<?xml version="1.0" encoding="UTF-8"?>
<gpx version="1.1" creator="https://www.youtrack.es" xsi:schemaLocation="http://www.topografix.com/GPX/1/1 http://www.topografix.com/GPX/1/1/gpx.xsd http://www.garmin.com/xmlschemas/GpxExtensions/v3 http://www.garmin.com/xmlschemas/GpxExtensionsv3.xsd http://www.garmin.com/xmlschemas/TrackPointExtension/v1 http://www.garmin.com/xmlschemas/TrackPointExtensionv1.xsd" xmlns:gpxtpx="http://www.garmin.com/xmlschemas/TrackPointExtension/v1" xmlns:gpxx="http://www.garmin.com/xmlschemas/GpxExtensions/v3" xmlns:xsi="http://www.w3.org/2001/XMLSchema-instance">
  <metadata>
    <link href="https://www.youtrack.es">
      <text>YouTrack.es</text>
    </link>
    <time>2026-05-09T03:33:12Z</time>
  </metadata>
  <trk>
    <src>https://www.youtrack.es</src>
    <link href="https://www.youtrack.es/ruta/23566-karoo-00-airport-jul-02-2021-110701">
      <text>YouTrack.es</text>
    </link>
    <trkseg>
      <trkpt lat="28.95166" lon="-13.59032">
        <ele>-1.8</ele>
        <time>2021-07-02 12:07:01</time>
      </trkpt>
      <trkpt lat="28.95171" lon="-13.59033">
        <ele>-1.8</ele>
        <time>2021-07-02 12:07:02</time>
      </trkpt>
      <trkpt lat="28.95175" lon="-13.59033">
        <ele>-1.8</ele>
        <time>2021-07-02 12:07:03</time>
      </trkpt>
      <trkpt lat="28.95179" lon="-13.59034">
        <ele>-1.8</ele>
        <time>2021-07-02 12:07:04</time>
      </trkpt>
      <trkpt lat="28.95183" lon="-13.59035">
        <ele>-2</ele>
        <time>2021-07-02 12:07:05</time>
      </trkpt>
      <trkpt lat="28.95188" lon="-13.59035">
        <ele>-2</ele>
        <time>2021-07-02 12:07:06</time>
      </trkpt>
      <trkpt lat="28.95192" lon="-13.59036">
        <ele>-2</ele>
        <time>2021-07-02 12:07:07</time>
      </trkpt>
      <trkpt lat="28.95197" lon="-13.59036">
        <ele>-2</ele>
        <time>2021-07-02 12:07:08</time>
      </trkpt>
      <trkpt lat="28.95201" lon="-13.59037">
        <ele>-2</ele>
        <time>2021-07-02 12:07:09</time>
      </trkpt>
      <trkpt lat="28.95205" lon="-13.59038">
        <ele>-2</ele>
        <time>2021-07-02 12:07:10</time>
      </trkpt>
      <trkpt lat="28.95209" lon="-13.59038">
        <ele>-2</ele>
        <time>2021-07-02 12:07:11</time>
      </trkpt>
      <trkpt lat="28.95212" lon="-13.59038">
        <ele>-2</ele>
        <time>2021-07-02 12:07:12</time>
      </trkpt>
      <trkpt lat="28.95217" lon="-13.59039">
        <ele>-1.6</ele>
        <time>2021-07-02 12:07:13</time>
      </trkpt>
      <trkpt lat="28.9522" lon="-13.59039">
        <ele>-1.2</ele>
        <time>2021-07-02 12:07:14</time>
      </trkpt>
      <trkpt lat="28.95224" lon="-13.5904">
        <ele>-1.2</ele>
        <time>2021-07-02 12:07:15</time>
      </trkpt>
      <trkpt lat="28.95227" lon="-13.5904">
        <ele>-1.2</ele>
        <time>2021-07-02 12:07:16</time>
      </trkpt>
      <trkpt lat="28.95231" lon="-13.59041">
        <ele>-1.6</ele>
        <time>2021-07-02 12:07:17</time>
      </trkpt>
      <trkpt lat="28.95235" lon="-13.59042">
        <ele>-1.6</ele>
        <time>2021-07-02 12:07:18</time>
      </trkpt>
      <trkpt lat="28.95239" lon="-13.59042">
        <ele>-1.8</ele>
        <time>2021-07-02 12:07:19</time>
      </trkpt>
      <trkpt lat="28.95242" lon="-13.59043">
        <ele>-1.8</ele>
        <time>2021-07-02 12:07:20</time>
      </trkpt>
      <trkpt lat="28.95246" lon="-13.59043">
        <ele>-1.8</ele>
        <time>2021-07-02 12:07:21</time>
      </trkpt>
      <trkpt lat="28.95249" lon="-13.59043">
        <ele>-2</ele>
        <time>2021-07-02 12:07:22</time>
      </trkpt>
      <trkpt lat="28.95251" lon="-13.59043">
        <ele>-2</ele>
        <time>2021-07-02 12:07:23</time>
      </trkpt>
      <trkpt lat="28.95253" lon="-13.59042">
        <ele>-2</ele>
        <time>2021-07-02 12:07:24</time>
      </trkpt>
      <trkpt lat="28.95255" lon="-13.5904">
        <ele>-2</ele>
        <time>2021-07-02 12:07:25</time>
      </trkpt>
      <trkpt lat="28.95255" lon="-13.59038">
        <ele>-2</ele>
        <time>2021-07-02 12:07:26</time>
      </trkpt>
      <trkpt lat="28.95255" lon="-13.59036">
        <ele>-1.8</ele>
        <time>2021-07-02 12:07:27</time>
      </trkpt>
      <trkpt lat="28.95255" lon="-13.59033">
        <ele>-1.8</ele>
        <time>2021-07-02 12:07:28</time>
      </trkpt>
      <trkpt lat="28.95255" lon="-13.59031">
        <ele>-1.8</ele>
        <time>2021-07-02 12:07:29</time>
      </trkpt>
      <trkpt lat="28.95255" lon="-13.59029">
        <ele>-1.8</ele>
        <time>2021-07-02 12:07:30</time>
      </trkpt>
      <trkpt lat="28.95255" lon="-13.59027">
        <ele>-1.8</ele>
        <time>2021-07-02 12:07:31</time>
      </trkpt>
      <trkpt lat="28.95255" lon="-13.59025">
        <ele>-1.6</ele>
        <time>2021-07-02 12:07:32</time>
      </trkpt>
      <trkpt lat="28.95255" lon="-13.59023">
        <ele>-1.6</ele>
        <time>2021-07-02 12:07:33</time>
      </trkpt>
      <trkpt lat="28.95255" lon="-13.5902">
        <ele>-1.4</ele>
        <time>2021-07-02 12:07:34</time>
      </trkpt>
      <trkpt lat="28.95255" lon="-13.59018">
        <ele>-1.4</ele>
        <time>2021-07-02 12:07:35</time>
      </trkpt>
      <trkpt lat="28.95255" lon="-13.59016">
        <ele>-1.4</ele>
        <time>2021-07-02 12:07:36</time>
      </trkpt>
      <trkpt lat="28.95255" lon="-13.59014">
        <ele>-1.4</ele>
        <time>2021-07-02 12:07:37</time>
      </trkpt>
      <trkpt lat="28.95255" lon="-13.59011">
        <ele>-1.4</ele>
        <time>2021-07-02 12:07:38</time>
      </trkpt>
      <trkpt lat="28.95255" lon="-13.59009">
        <ele>-1.4</ele>
        <time>2021-07-02 12:07:39</time>
      </trkpt>
      <trkpt lat="28.95256" lon="-13.59006">
        <ele>-2</ele>
        <time>2021-07-02 12:07:40</time>
      </trkpt>
      <trkpt lat="28.95256" lon="-13.59003">
        <ele>-2</ele>
        <time>2021-07-02 12:07:41</time>
      </trkpt>
      <trkpt lat="28.95256" lon="-13.59001">
        <ele>-2</ele>
        <time>2021-07-02 12:07:42</time>
      </trkpt>
      <trkpt lat="28.95257" lon="-13.58998">
        <ele>-2</ele>
        <time>2021-07-02 12:07:43</time>
      </trkpt>
      <trkpt lat="28.95257" lon="-13.58996">
        <ele>-2</ele>
        <time>2021-07-02 12:07:44</time>
      </trkpt>
      <trkpt lat="28.95258" lon="-13.58993">
        <ele>-1.8</ele>
        <time>2021-07-02 12:07:45</time>
      </trkpt>
      <trkpt lat="28.95258" lon="-13.5899">
        <ele>-1.8</ele>
        <time>2021-07-02 12:07:46</time>
      </trkpt>
      <trkpt lat="28.95258" lon="-13.58988">
        <ele>-1.8</ele>
        <time>2021-07-02 12:07:47</time>
      </trkpt>
      <trkpt lat="28.95258" lon="-13.58985">
        <ele>-1.8</ele>
        <time>2021-07-02 12:07:48</time>
      </trkpt>
      <trkpt lat="28.95258" lon="-13.58983">
        <ele>-1.8</ele>
        <time>2021-07-02 12:07:49</time>
      </trkpt>
      <trkpt lat="28.95259" lon="-13.58981">
        <ele>-1.8</ele>
        <time>2021-07-02 12:07:50</time>
      </trkpt>
      <trkpt lat="28.95259" lon="-13.58978">
        <ele>-1.6</ele>
        <time>2021-07-02 12:07:51</time>
      </trkpt>
      <trkpt lat="28.95258" lon="-13.58974">
        <ele>-1.2</ele>
        <time>2021-07-02 12:07:52</time>
      </trkpt>
      <trkpt lat="28.95258" lon="-13.58971">
        <ele>-1</ele>
        <time>2021-07-02 12:07:53</time>
      </trkpt>
      <trkpt lat="28.95259" lon="-13.58967">
        <ele>-0.6</ele>
        <time>2021-07-02 12:07:54</time>
      </trkpt>
      <trkpt lat="28.95259" lon="-13.58963">
        <ele>-0.4</ele>
        <time>2021-07-02 12:07:55</time>
      </trkpt>
      <trkpt lat="28.95259" lon="-13.5896">
        <ele>-0.2</ele>
        <time>2021-07-02 12:07:56</time>
      </trkpt>
      <trkpt lat="28.9526" lon="-13.58956">
        <ele>-0.2</ele>
        <time>2021-07-02 12:07:57</time>
      </trkpt>
      <trkpt lat="28.9526" lon="-13.58952">
        <ele>-0.2</ele>
        <time>2021-07-02 12:07:58</time>
      </trkpt>
      <trkpt lat="28.9526" lon="-13.58949">
        <ele>-0.4</ele>
        <time>2021-07-02 12:07:59</time>
      </trkpt>
      <trkpt lat="28.9526" lon="-13.58945">
        <ele>0.2</ele>
        <time>2021-07-02 12:08:00</time>
      </trkpt>
      <trkpt lat="28.9526" lon="-13.58942">
        <ele>0.4</ele>
        <time>2021-07-02 12:08:01</time>
      </trkpt>
      <trkpt lat="28.95261" lon="-13.58939">
        <ele>0.8</ele>
        <time>2021-07-02 12:08:02</time>
      </trkpt>
      <trkpt lat="28.95261" lon="-13.58937">
        <ele>1</ele>
        <time>2021-07-02 12:08:03</time>
      </trkpt>
      <trkpt lat="28.95262" lon="-13.58936">
        <ele>1</ele>
        <time>2021-07-02 12:08:04</time>
      </trkpt>
      <trkpt lat="28.95263" lon="-13.58935">
        <ele>1</ele>
        <time>2021-07-02 12:08:05</time>
      </trkpt>
      <trkpt lat="28.95265" lon="-13.58934">
        <ele>1</ele>
        <time>2021-07-02 12:08:06</time>
      </trkpt>
      <trkpt lat="28.95268" lon="-13.58934">
        <ele>1</ele>
        <time>2021-07-02 12:08:07</time>
      </trkpt>
      <trkpt lat="28.95271" lon="-13.58935">
        <ele>1</ele>
        <time>2021-07-02 12:08:08</time>
      </trkpt>
      <trkpt lat="28.95274" lon="-13.58936">
        <ele>1.2</ele>
        <time>2021-07-02 12:08:09</time>
      </trkpt>
      <trkpt lat="28.95277" lon="-13.58937">
        <ele>1.2</ele>
        <time>2021-07-02 12:08:10</time>
      </trkpt>
      <trkpt lat="28.9528" lon="-13.58938">
        <ele>1.4</ele>
        <time>2021-07-02 12:08:11</time>
      </trkpt>
      <trkpt lat="28.95284" lon="-13.58939">
        <ele>1.4</ele>
        <time>2021-07-02 12:08:12</time>
      </trkpt>
      <trkpt lat="28.95287" lon="-13.58939">
        <ele>1.8</ele>
        <time>2021-07-02 12:08:13</time>
      </trkpt>
      <trkpt lat="28.95291" lon="-13.5894">
        <ele>2.2</ele>
        <time>2021-07-02 12:08:14</time>
      </trkpt>
      <trkpt lat="28.95294" lon="-13.58941">
        <ele>2.4</ele>
        <time>2021-07-02 12:08:15</time>
      </trkpt>
      <trkpt lat="28.95298" lon="-13.58941">
        <ele>2.4</ele>
        <time>2021-07-02 12:08:16</time>
      </trkpt>
      <trkpt lat="28.95301" lon="-13.58942">
        <ele>2.6</ele>
        <time>2021-07-02 12:08:17</time>
      </trkpt>
      <trkpt lat="28.95304" lon="-13.58943">
        <ele>3</ele>
        <time>2021-07-02 12:08:18</time>
      </trkpt>
      <trkpt lat="28.95308" lon="-13.58943">
        <ele>3.2</ele>
        <time>2021-07-02 12:08:19</time>
      </trkpt>
      <trkpt lat="28.95312" lon="-13.58944">
        <ele>3.4</ele>
        <time>2021-07-02 12:08:20</time>
      </trkpt>
      <trkpt lat="28.95315" lon="-13.58944">
        <ele>3.4</ele>
        <time>2021-07-02 12:08:21</time>
      </trkpt>
      <trkpt lat="28.95319" lon="-13.58945">
        <ele>3.8</ele>
        <time>2021-07-02 12:08:22</time>
      </trkpt>
      <trkpt lat="28.95322" lon="-13.58946">
        <ele>3.8</ele>
        <time>2021-07-02 12:08:23</time>
      </trkpt>
      <trkpt lat="28.95325" lon="-13.58946">
        <ele>3.8</ele>
        <time>2021-07-02 12:08:24</time>
      </trkpt>
      <trkpt lat="28.95329" lon="-13.58947">
        <ele>4</ele>
        <time>2021-07-02 12:08:25</time>
      </trkpt>
      <trkpt lat="28.95332" lon="-13.58947">
        <ele>4</ele>
        <time>2021-07-02 12:08:26</time>
      </trkpt>
      <trkpt lat="28.95335" lon="-13.58948">
        <ele>4</ele>
        <time>2021-07-02 12:08:27</time>
      </trkpt>
      <trkpt lat="28.95337" lon="-13.58948">
        <ele>4.2</ele>
        <time>2021-07-02 12:08:28</time>
      </trkpt>
      <trkpt lat="28.95338" lon="-13.58948">
        <ele>4.2</ele>
        <time>2021-07-02 12:08:29</time>
      </trkpt>
      <trkpt lat="28.95339" lon="-13.58948">
        <ele>4.4</ele>
        <time>2021-07-02 12:08:30</time>
      </trkpt>
      <trkpt lat="28.9534" lon="-13.58947">
        <ele>4.4</ele>
        <time>2021-07-02 12:08:31</time>
      </trkpt>
      <trkpt lat="28.9534" lon="-13.58947">
        <ele>4.2</ele>
        <time>2021-07-02 12:08:32</time>
      </trkpt>
      <trkpt lat="28.95342" lon="-13.58946">
        <ele>4.2</ele>
        <time>2021-07-02 12:08:33</time>
      </trkpt>
      <trkpt lat="28.95343" lon="-13.58947">
        <ele>4.2</ele>
        <time>2021-07-02 12:08:34</time>
      </trkpt>
      <trkpt lat="28.95345" lon="-13.58947">
        <ele>4.2</ele>
        <time>2021-07-02 12:08:35</time>
      </trkpt>
      <trkpt lat="28.95348" lon="-13.58947">
        <ele>4.4</ele>
        <time>2021-07-02 12:08:36</time>
      </trkpt>
      <trkpt lat="28.95351" lon="-13.58948">
        <ele>4.4</ele>
        <time>2021-07-02 12:08:37</time>
      </trkpt>
      <trkpt lat="28.95353" lon="-13.58949">
        <ele>4.8</ele>
        <time>2021-07-02 12:08:38</time>
      </trkpt>
      <trkpt lat="28.95355" lon="-13.5895">
        <ele>5</ele>
        <time>2021-07-02 12:08:39</time>
      </trkpt>
      <trkpt lat="28.95357" lon="-13.5895">
        <ele>5</ele>
        <time>2021-07-02 12:08:40</time>
      </trkpt>
      <trkpt lat="28.95359" lon="-13.5895">
        <ele>5.4</ele>
        <time>2021-07-02 12:08:41</time>
      </trkpt>
      <trkpt lat="28.95361" lon="-13.58949">
        <ele>5.4</ele>
        <time>2021-07-02 12:08:42</time>
      </trkpt>
      <trkpt lat="28.95362" lon="-13.58946">
        <ele>5.6</ele>
        <time>2021-07-02 12:08:43</time>
      </trkpt>
      <trkpt lat="28.95363" lon="-13.58942">
        <ele>5.6</ele>
        <time>2021-07-02 12:08:44</time>
      </trkpt>
      <trkpt lat="28.95363" lon="-13.58938">
        <ele>5.8</ele>
        <time>2021-07-02 12:08:45</time>
      </trkpt>
      <trkpt lat="28.95364" lon="-13.58933">
        <ele>5.8</ele>
        <time>2021-07-02 12:08:46</time>
      </trkpt>
      <trkpt lat="28.95363" lon="-13.58927">
        <ele>5.8</ele>
        <time>2021-07-02 12:08:47</time>
      </trkpt>
      <trkpt lat="28.95364" lon="-13.58923">
        <ele>5.8</ele>
        <time>2021-07-02 12:08:48</time>
      </trkpt>
      <trkpt lat="28.95364" lon="-13.58917">
        <ele>5.8</ele>
        <time>2021-07-02 12:08:49</time>
      </trkpt>
      <trkpt lat="28.95365" lon="-13.58912">
        <ele>5.8</ele>
        <time>2021-07-02 12:08:50</time>
      </trkpt>
      <trkpt lat="28.95365" lon="-13.58907">
        <ele>5.8</ele>
        <time>2021-07-02 12:08:51</time>
      </trkpt>
      <trkpt lat="28.95366" lon="-13.58901">
        <ele>5.8</ele>
        <time>2021-07-02 12:08:52</time>
      </trkpt>
      <trkpt lat="28.95367" lon="-13.58896">
        <ele>5.8</ele>
        <time>2021-07-02 12:08:53</time>
      </trkpt>
      <trkpt lat="28.95368" lon="-13.5889">
        <ele>5.8</ele>
        <time>2021-07-02 12:08:54</time>
      </trkpt>
      <trkpt lat="28.95368" lon="-13.58884">
        <ele>5.8</ele>
        <time>2021-07-02 12:08:55</time>
      </trkpt>
      <trkpt lat="28.9537" lon="-13.58878">
        <ele>5.8</ele>
        <time>2021-07-02 12:08:56</time>
      </trkpt>
      <trkpt lat="28.95371" lon="-13.58871">
        <ele>5.8</ele>
        <time>2021-07-02 12:08:57</time>
      </trkpt>
      <trkpt lat="28.95371" lon="-13.58864">
        <ele>5.8</ele>
        <time>2021-07-02 12:08:58</time>
      </trkpt>
      <trkpt lat="28.95372" lon="-13.58857">
        <ele>5.6</ele>
        <time>2021-07-02 12:08:59</time>
      </trkpt>
      <trkpt lat="28.95373" lon="-13.5885">
        <ele>5.6</ele>
        <time>2021-07-02 12:09:00</time>
      </trkpt>
      <trkpt lat="28.95374" lon="-13.58843">
        <ele>5.4</ele>
        <time>2021-07-02 12:09:01</time>
      </trkpt>
      <trkpt lat="28.95375" lon="-13.58837">
        <ele>5.4</ele>
        <time>2021-07-02 12:09:02</time>
      </trkpt>
      <trkpt lat="28.95375" lon="-13.5883">
        <ele>5.4</ele>
        <time>2021-07-02 12:09:03</time>
      </trkpt>
      <trkpt lat="28.95376" lon="-13.58824">
        <ele>5.2</ele>
        <time>2021-07-02 12:09:04</time>
      </trkpt>
      <trkpt lat="28.95377" lon="-13.58817">
        <ele>5.2</ele>
        <time>2021-07-02 12:09:05</time>
      </trkpt>
      <trkpt lat="28.95378" lon="-13.58811">
        <ele>5.2</ele>
        <time>2021-07-02 12:09:06</time>
      </trkpt>
      <trkpt lat="28.95378" lon="-13.58805">
        <ele>5.2</ele>
        <time>2021-07-02 12:09:07</time>
      </trkpt>
      <trkpt lat="28.95379" lon="-13.58798">
        <ele>5.2</ele>
        <time>2021-07-02 12:09:08</time>
      </trkpt>
      <trkpt lat="28.95379" lon="-13.58792">
        <ele>5.2</ele>
        <time>2021-07-02 12:09:09</time>
      </trkpt>
      <trkpt lat="28.9538" lon="-13.58786">
        <ele>5.4</ele>
        <time>2021-07-02 12:09:10</time>
      </trkpt>
      <trkpt lat="28.95381" lon="-13.5878">
        <ele>5.4</ele>
        <time>2021-07-02 12:09:11</time>
      </trkpt>
      <trkpt lat="28.95382" lon="-13.58774">
        <ele>5.4</ele>
        <time>2021-07-02 12:09:12</time>
      </trkpt>
      <trkpt lat="28.95383" lon="-13.58768">
        <ele>5.4</ele>
        <time>2021-07-02 12:09:13</time>
      </trkpt>
      <trkpt lat="28.95383" lon="-13.58762">
        <ele>5.4</ele>
        <time>2021-07-02 12:09:14</time>
      </trkpt>
      <trkpt lat="28.95384" lon="-13.58756">
        <ele>5.4</ele>
        <time>2021-07-02 12:09:15</time>
      </trkpt>
      <trkpt lat="28.95385" lon="-13.5875">
        <ele>5.4</ele>
        <time>2021-07-02 12:09:16</time>
      </trkpt>
      <trkpt lat="28.95386" lon="-13.58744">
        <ele>5.4</ele>
        <time>2021-07-02 12:09:17</time>
      </trkpt>
      <trkpt lat="28.95387" lon="-13.58738">
        <ele>5.4</ele>
        <time>2021-07-02 12:09:18</time>
      </trkpt>
      <trkpt lat="28.95387" lon="-13.58732">
        <ele>5.4</ele>
        <time>2021-07-02 12:09:19</time>
      </trkpt>
      <trkpt lat="28.95388" lon="-13.58725">
        <ele>5.4</ele>
        <time>2021-07-02 12:09:20</time>
      </trkpt>
      <trkpt lat="28.95389" lon="-13.5872">
        <ele>5.4</ele>
        <time>2021-07-02 12:09:21</time>
      </trkpt>
      <trkpt lat="28.9539" lon="-13.58714">
        <ele>5.4</ele>
        <time>2021-07-02 12:09:22</time>
      </trkpt>
      <trkpt lat="28.95391" lon="-13.58708">
        <ele>5.2</ele>
        <time>2021-07-02 12:09:23</time>
      </trkpt>
      <trkpt lat="28.95391" lon="-13.58702">
        <ele>5.2</ele>
        <time>2021-07-02 12:09:24</time>
      </trkpt>
      <trkpt lat="28.95392" lon="-13.58695">
        <ele>4.8</ele>
        <time>2021-07-02 12:09:25</time>
      </trkpt>
      <trkpt lat="28.95392" lon="-13.58689">
        <ele>4.8</ele>
        <time>2021-07-02 12:09:26</time>
      </trkpt>
      <trkpt lat="28.95393" lon="-13.58682">
        <ele>4.8</ele>
        <time>2021-07-02 12:09:27</time>
      </trkpt>
      <trkpt lat="28.95393" lon="-13.58676">
        <ele>4.8</ele>
        <time>2021-07-02 12:09:28</time>
      </trkpt>
      <trkpt lat="28.95393" lon="-13.58669">
        <ele>4.6</ele>
        <time>2021-07-02 12:09:29</time>
      </trkpt>
      <trkpt lat="28.95393" lon="-13.58662">
        <ele>4.6</ele>
        <time>2021-07-02 12:09:30</time>
      </trkpt>
      <trkpt lat="28.95395" lon="-13.58655">
        <ele>4.6</ele>
        <time>2021-07-02 12:09:31</time>
      </trkpt>
      <trkpt lat="28.95394" lon="-13.58648">
        <ele>4.6</ele>
        <time>2021-07-02 12:09:32</time>
      </trkpt>
      <trkpt lat="28.95394" lon="-13.58641">
        <ele>4.4</ele>
        <time>2021-07-02 12:09:33</time>
      </trkpt>
      <trkpt lat="28.95395" lon="-13.58634">
        <ele>4.4</ele>
        <time>2021-07-02 12:09:34</time>
      </trkpt>
      <trkpt lat="28.95395" lon="-13.58626">
        <ele>4.4</ele>
        <time>2021-07-02 12:09:35</time>
      </trkpt>
      <trkpt lat="28.95395" lon="-13.58619">
        <ele>4.4</ele>
        <time>2021-07-02 12:09:36</time>
      </trkpt>
      <trkpt lat="28.95395" lon="-13.58613">
        <ele>4.4</ele>
        <time>2021-07-02 12:09:37</time>
      </trkpt>
      <trkpt lat="28.95395" lon="-13.58606">
        <ele>4.4</ele>
        <time>2021-07-02 12:09:38</time>
      </trkpt>
      <trkpt lat="28.95396" lon="-13.58601">
        <ele>4.4</ele>
        <time>2021-07-02 12:09:39</time>
      </trkpt>
      <trkpt lat="28.95396" lon="-13.58595">
        <ele>4.4</ele>
        <time>2021-07-02 12:09:40</time>
      </trkpt>
      <trkpt lat="28.95396" lon="-13.5859">
        <ele>4.4</ele>
        <time>2021-07-02 12:09:41</time>
      </trkpt>
      <trkpt lat="28.95396" lon="-13.58585">
        <ele>4.6</ele>
        <time>2021-07-02 12:09:42</time>
      </trkpt>
      <trkpt lat="28.95397" lon="-13.5858">
        <ele>4.6</ele>
        <time>2021-07-02 12:09:43</time>
      </trkpt>
      <trkpt lat="28.95397" lon="-13.58575">
        <ele>5</ele>
        <time>2021-07-02 12:09:44</time>
      </trkpt>
      <trkpt lat="28.95397" lon="-13.5857">
        <ele>5</ele>
        <time>2021-07-02 12:09:45</time>
      </trkpt>
      <trkpt lat="28.95397" lon="-13.58565">
        <ele>5.4</ele>
        <time>2021-07-02 12:09:46</time>
      </trkpt>
      <trkpt lat="28.95397" lon="-13.5856">
        <ele>5.4</ele>
        <time>2021-07-02 12:09:47</time>
      </trkpt>
      <trkpt lat="28.95397" lon="-13.58555">
        <ele>5.6</ele>
        <time>2021-07-02 12:09:48</time>
      </trkpt>
      <trkpt lat="28.95398" lon="-13.5855">
        <ele>5.6</ele>
        <time>2021-07-02 12:09:49</time>
      </trkpt>
      <trkpt lat="28.95398" lon="-13.58545">
        <ele>6</ele>
        <time>2021-07-02 12:09:50</time>
      </trkpt>
      <trkpt lat="28.95398" lon="-13.58539">
        <ele>6</ele>
        <time>2021-07-02 12:09:51</time>
      </trkpt>
      <trkpt lat="28.95398" lon="-13.58533">
        <ele>6</ele>
        <time>2021-07-02 12:09:52</time>
      </trkpt>
      <trkpt lat="28.95399" lon="-13.58527">
        <ele>6.2</ele>
        <time>2021-07-02 12:09:53</time>
      </trkpt>
      <trkpt lat="28.95399" lon="-13.58521">
        <ele>6.2</ele>
        <time>2021-07-02 12:09:54</time>
      </trkpt>
      <trkpt lat="28.95399" lon="-13.58515">
        <ele>6.6</ele>
        <time>2021-07-02 12:09:55</time>
      </trkpt>
      <trkpt lat="28.954" lon="-13.58508">
        <ele>6.6</ele>
        <time>2021-07-02 12:09:56</time>
      </trkpt>
      <trkpt lat="28.954" lon="-13.58502">
        <ele>6.6</ele>
        <time>2021-07-02 12:09:57</time>
      </trkpt>
      <trkpt lat="28.954" lon="-13.58495">
        <ele>6.6</ele>
        <time>2021-07-02 12:09:58</time>
      </trkpt>
      <trkpt lat="28.95401" lon="-13.58488">
        <ele>6.6</ele>
        <time>2021-07-02 12:09:59</time>
      </trkpt>
      <trkpt lat="28.95401" lon="-13.58482">
        <ele>6.6</ele>
        <time>2021-07-02 12:10:00</time>
      </trkpt>
      <trkpt lat="28.95402" lon="-13.58475">
        <ele>6.6</ele>
        <time>2021-07-02 12:10:01</time>
      </trkpt>
      <trkpt lat="28.95402" lon="-13.58467">
        <ele>6.6</ele>
        <time>2021-07-02 12:10:02</time>
      </trkpt>
      <trkpt lat="28.95403" lon="-13.58461">
        <ele>6.6</ele>
        <time>2021-07-02 12:10:03</time>
      </trkpt>
      <trkpt lat="28.95403" lon="-13.58454">
        <ele>6.4</ele>
        <time>2021-07-02 12:10:04</time>
      </trkpt>
      <trkpt lat="28.95403" lon="-13.58447">
        <ele>6.4</ele>
        <time>2021-07-02 12:10:05</time>
      </trkpt>
      <trkpt lat="28.95403" lon="-13.5844">
        <ele>6.4</ele>
        <time>2021-07-02 12:10:06</time>
      </trkpt>
      <trkpt lat="28.95404" lon="-13.58434">
        <ele>6</ele>
        <time>2021-07-02 12:10:07</time>
      </trkpt>
      <trkpt lat="28.95404" lon="-13.58428">
        <ele>6</ele>
        <time>2021-07-02 12:10:08</time>
      </trkpt>
      <trkpt lat="28.95404" lon="-13.58422">
        <ele>6</ele>
        <time>2021-07-02 12:10:09</time>
      </trkpt>
      <trkpt lat="28.95404" lon="-13.58416">
        <ele>6</ele>
        <time>2021-07-02 12:10:10</time>
      </trkpt>
      <trkpt lat="28.95404" lon="-13.5841">
        <ele>6</ele>
        <time>2021-07-02 12:10:11</time>
      </trkpt>
      <trkpt lat="28.95404" lon="-13.58405">
        <ele>6</ele>
        <time>2021-07-02 12:10:12</time>
      </trkpt>
      <trkpt lat="28.95405" lon="-13.584">
        <ele>6</ele>
        <time>2021-07-02 12:10:13</time>
      </trkpt>
      <trkpt lat="28.95404" lon="-13.58396">
        <ele>6</ele>
        <time>2021-07-02 12:10:14</time>
      </trkpt>
      <trkpt lat="28.95401" lon="-13.58393">
        <ele>6</ele>
        <time>2021-07-02 12:10:15</time>
      </trkpt>
      <trkpt lat="28.95397" lon="-13.58392">
        <ele>6</ele>
        <time>2021-07-02 12:10:16</time>
      </trkpt>
      <trkpt lat="28.95393" lon="-13.58392">
        <ele>6</ele>
        <time>2021-07-02 12:10:17</time>
      </trkpt>
      <trkpt lat="28.95389" lon="-13.58392">
        <ele>6</ele>
        <time>2021-07-02 12:10:18</time>
      </trkpt>
      <trkpt lat="28.95385" lon="-13.58392">
        <ele>6</ele>
        <time>2021-07-02 12:10:19</time>
      </trkpt>
      <trkpt lat="28.95382" lon="-13.58391">
        <ele>5.8</ele>
        <time>2021-07-02 12:10:20</time>
      </trkpt>
      <trkpt lat="28.95378" lon="-13.58391">
        <ele>5.8</ele>
        <time>2021-07-02 12:10:21</time>
      </trkpt>
      <trkpt lat="28.95376" lon="-13.5839">
        <ele>5.4</ele>
        <time>2021-07-02 12:10:22</time>
      </trkpt>
      <trkpt lat="28.95373" lon="-13.5839">
        <ele>5</ele>
        <time>2021-07-02 12:10:23</time>
      </trkpt>
      <trkpt lat="28.95369" lon="-13.58391">
        <ele>5</ele>
        <time>2021-07-02 12:10:24</time>
      </trkpt>
      <trkpt lat="28.95366" lon="-13.58391">
        <ele>4.4</ele>
        <time>2021-07-02 12:10:25</time>
      </trkpt>
      <trkpt lat="28.95363" lon="-13.5839">
        <ele>4</ele>
        <time>2021-07-02 12:10:26</time>
      </trkpt>
      <trkpt lat="28.9536" lon="-13.58389">
        <ele>3.8</ele>
        <time>2021-07-02 12:10:27</time>
      </trkpt>
      <trkpt lat="28.95357" lon="-13.58389">
        <ele>3.4</ele>
        <time>2021-07-02 12:10:28</time>
      </trkpt>
      <trkpt lat="28.95354" lon="-13.58388">
        <ele>3.4</ele>
        <time>2021-07-02 12:10:29</time>
      </trkpt>
      <trkpt lat="28.95351" lon="-13.58387">
        <ele>3</ele>
        <time>2021-07-02 12:10:30</time>
      </trkpt>
      <trkpt lat="28.95348" lon="-13.58386">
        <ele>3</ele>
        <time>2021-07-02 12:10:31</time>
      </trkpt>
      <trkpt lat="28.95345" lon="-13.58385">
        <ele>3</ele>
        <time>2021-07-02 12:10:32</time>
      </trkpt>
      <trkpt lat="28.95342" lon="-13.58384">
        <ele>2.8</ele>
        <time>2021-07-02 12:10:33</time>
      </trkpt>
      <trkpt lat="28.95339" lon="-13.58383">
        <ele>2.8</ele>
        <time>2021-07-02 12:10:34</time>
      </trkpt>
      <trkpt lat="28.95336" lon="-13.58382">
        <ele>2.6</ele>
        <time>2021-07-02 12:10:35</time>
      </trkpt>
      <trkpt lat="28.95334" lon="-13.5838">
        <ele>2.6</ele>
        <time>2021-07-02 12:10:36</time>
      </trkpt>
      <trkpt lat="28.95332" lon="-13.58378">
        <ele>2.4</ele>
        <time>2021-07-02 12:10:37</time>
      </trkpt>
      <trkpt lat="28.95331" lon="-13.58376">
        <ele>2.4</ele>
        <time>2021-07-02 12:10:38</time>
      </trkpt>
      <trkpt lat="28.95329" lon="-13.58372">
        <ele>2.4</ele>
        <time>2021-07-02 12:10:39</time>
      </trkpt>
      <trkpt lat="28.95327" lon="-13.58369">
        <ele>2.4</ele>
        <time>2021-07-02 12:10:40</time>
      </trkpt>
      <trkpt lat="28.95325" lon="-13.58367">
        <ele>3</ele>
        <time>2021-07-02 12:10:41</time>
      </trkpt>
      <trkpt lat="28.95322" lon="-13.58365">
        <ele>2.8</ele>
        <time>2021-07-02 12:10:42</time>
      </trkpt>
      <trkpt lat="28.9532" lon="-13.58364">
        <ele>2.8</ele>
        <time>2021-07-02 12:10:43</time>
      </trkpt>
      <trkpt lat="28.95317" lon="-13.58363">
        <ele>2.6</ele>
        <time>2021-07-02 12:10:44</time>
      </trkpt>
      <trkpt lat="28.95315" lon="-13.58363">
        <ele>2</ele>
        <time>2021-07-02 12:10:45</time>
      </trkpt>
      <trkpt lat="28.95313" lon="-13.58363">
        <ele>2</ele>
        <time>2021-07-02 12:10:46</time>
      </trkpt>
      <trkpt lat="28.95311" lon="-13.58363">
        <ele>2.4</ele>
        <time>2021-07-02 12:10:47</time>
      </trkpt>
      <trkpt lat="28.9531" lon="-13.58363">
        <ele>2.4</ele>
        <time>2021-07-02 12:10:48</time>
      </trkpt>
      <trkpt lat="28.95308" lon="-13.58362">
        <ele>2.4</ele>
        <time>2021-07-02 12:10:49</time>
      </trkpt>
      <trkpt lat="28.95306" lon="-13.58362">
        <ele>2.6</ele>
        <time>2021-07-02 12:10:50</time>
      </trkpt>
      <trkpt lat="28.95303" lon="-13.58362">
        <ele>2.6</ele>
        <time>2021-07-02 12:10:51</time>
      </trkpt>
      <trkpt lat="28.953" lon="-13.58361">
        <ele>2.6</ele>
        <time>2021-07-02 12:10:52</time>
      </trkpt>
      <trkpt lat="28.95297" lon="-13.58361">
        <ele>2.4</ele>
        <time>2021-07-02 12:10:53</time>
      </trkpt>
      <trkpt lat="28.95294" lon="-13.58359">
        <ele>2.4</ele>
        <time>2021-07-02 12:10:54</time>
      </trkpt>
      <trkpt lat="28.95291" lon="-13.58356">
        <ele>2.2</ele>
        <time>2021-07-02 12:10:55</time>
      </trkpt>
      <trkpt lat="28.95289" lon="-13.58354">
        <ele>2.2</ele>
        <time>2021-07-02 12:10:56</time>
      </trkpt>
      <trkpt lat="28.95286" lon="-13.58353">
        <ele>2.2</ele>
        <time>2021-07-02 12:10:57</time>
      </trkpt>
      <trkpt lat="28.95284" lon="-13.58351">
        <ele>2.2</ele>
        <time>2021-07-02 12:10:58</time>
      </trkpt>
      <trkpt lat="28.95281" lon="-13.58351">
        <ele>2.2</ele>
        <time>2021-07-02 12:10:59</time>
      </trkpt>
      <trkpt lat="28.95279" lon="-13.58351">
        <ele>1.8</ele>
        <time>2021-07-02 12:11:00</time>
      </trkpt>
      <trkpt lat="28.95276" lon="-13.58352">
        <ele>1.6</ele>
        <time>2021-07-02 12:11:01</time>
      </trkpt>
      <trkpt lat="28.95273" lon="-13.58352">
        <ele>1.2</ele>
        <time>2021-07-02 12:11:02</time>
      </trkpt>
      <trkpt lat="28.9527" lon="-13.58352">
        <ele>1</ele>
        <time>2021-07-02 12:11:03</time>
      </trkpt>
      <trkpt lat="28.95267" lon="-13.58351">
        <ele>0.6</ele>
        <time>2021-07-02 12:11:04</time>
      </trkpt>
      <trkpt lat="28.95265" lon="-13.5835">
        <ele>0.2</ele>
        <time>2021-07-02 12:11:05</time>
      </trkpt>
      <trkpt lat="28.95263" lon="-13.58349">
        <ele>-0.2</ele>
        <time>2021-07-02 12:11:06</time>
      </trkpt>
      <trkpt lat="28.95262" lon="-13.58348">
        <ele>-0.6</ele>
        <time>2021-07-02 12:11:07</time>
      </trkpt>
      <trkpt lat="28.95261" lon="-13.58347">
        <ele>-0.8</ele>
        <time>2021-07-02 12:11:08</time>
      </trkpt>
      <trkpt lat="28.9526" lon="-13.58345">
        <ele>-1.2</ele>
        <time>2021-07-02 12:11:09</time>
      </trkpt>
      <trkpt lat="28.95259" lon="-13.58342">
        <ele>-1.6</ele>
        <time>2021-07-02 12:11:10</time>
      </trkpt>
      <trkpt lat="28.95258" lon="-13.5834">
        <ele>-1.8</ele>
        <time>2021-07-02 12:11:11</time>
      </trkpt>
      <trkpt lat="28.95259" lon="-13.58338">
        <ele>-1.8</ele>
        <time>2021-07-02 12:11:12</time>
      </trkpt>
      <trkpt lat="28.95261" lon="-13.58337">
        <ele>-1.8</ele>
        <time>2021-07-02 12:11:13</time>
      </trkpt>
      <trkpt lat="28.95264" lon="-13.58336">
        <ele>-1.8</ele>
        <time>2021-07-02 12:11:14</time>
      </trkpt>
      <trkpt lat="28.95266" lon="-13.58337">
        <ele>-1.8</ele>
        <time>2021-07-02 12:11:15</time>
      </trkpt>
      <trkpt lat="28.95268" lon="-13.58338">
        <ele>-1.8</ele>
        <time>2021-07-02 12:11:16</time>
      </trkpt>
      <trkpt lat="28.95271" lon="-13.58339">
        <ele>-1.6</ele>
        <time>2021-07-02 12:11:17</time>
      </trkpt>
      <trkpt lat="28.95273" lon="-13.5834">
        <ele>-1.6</ele>
        <time>2021-07-02 12:11:18</time>
      </trkpt>
      <trkpt lat="28.95276" lon="-13.58341">
        <ele>-1.2</ele>
        <time>2021-07-02 12:11:19</time>
      </trkpt>
      <trkpt lat="28.95278" lon="-13.58341">
        <ele>-1.2</ele>
        <time>2021-07-02 12:11:20</time>
      </trkpt>
      <trkpt lat="28.95281" lon="-13.58341">
        <ele>-1</ele>
        <time>2021-07-02 12:11:21</time>
      </trkpt>
      <trkpt lat="28.95283" lon="-13.5834">
        <ele>-1</ele>
        <time>2021-07-02 12:11:22</time>
      </trkpt>
      <trkpt lat="28.95286" lon="-13.58339">
        <ele>-0.6</ele>
        <time>2021-07-02 12:11:23</time>
      </trkpt>
      <trkpt lat="28.95289" lon="-13.58338">
        <ele>-0.4</ele>
        <time>2021-07-02 12:11:24</time>
      </trkpt>
      <trkpt lat="28.95291" lon="-13.58337">
        <ele>-0.4</ele>
        <time>2021-07-02 12:11:25</time>
      </trkpt>
      <trkpt lat="28.95294" lon="-13.58336">
        <ele>0.2</ele>
        <time>2021-07-02 12:11:26</time>
      </trkpt>
      <trkpt lat="28.95297" lon="-13.58335">
        <ele>0.4</ele>
        <time>2021-07-02 12:11:27</time>
      </trkpt>
      <trkpt lat="28.953" lon="-13.58335">
        <ele>0.6</ele>
        <time>2021-07-02 12:11:28</time>
      </trkpt>
      <trkpt lat="28.95303" lon="-13.58334">
        <ele>0.6</ele>
        <time>2021-07-02 12:11:29</time>
      </trkpt>
      <trkpt lat="28.95306" lon="-13.58333">
        <ele>1</ele>
        <time>2021-07-02 12:11:30</time>
      </trkpt>
      <trkpt lat="28.95309" lon="-13.58333">
        <ele>1</ele>
        <time>2021-07-02 12:11:31</time>
      </trkpt>
      <trkpt lat="28.95312" lon="-13.58332">
        <ele>1.2</ele>
        <time>2021-07-02 12:11:32</time>
      </trkpt>
      <trkpt lat="28.95315" lon="-13.58332">
        <ele>1.2</ele>
        <time>2021-07-02 12:11:33</time>
      </trkpt>
      <trkpt lat="28.95319" lon="-13.58332">
        <ele>1.6</ele>
        <time>2021-07-02 12:11:34</time>
      </trkpt>
      <trkpt lat="28.95322" lon="-13.58332">
        <ele>1.6</ele>
        <time>2021-07-02 12:11:35</time>
      </trkpt>
      <trkpt lat="28.95326" lon="-13.58332">
        <ele>1.8</ele>
        <time>2021-07-02 12:11:36</time>
      </trkpt>
      <trkpt lat="28.95329" lon="-13.58332">
        <ele>1.8</ele>
        <time>2021-07-02 12:11:37</time>
      </trkpt>
      <trkpt lat="28.95333" lon="-13.58332">
        <ele>1.8</ele>
        <time>2021-07-02 12:11:38</time>
      </trkpt>
      <trkpt lat="28.95336" lon="-13.58332">
        <ele>1.8</ele>
        <time>2021-07-02 12:11:39</time>
      </trkpt>
      <trkpt lat="28.95339" lon="-13.58332">
        <ele>1.8</ele>
        <time>2021-07-02 12:11:40</time>
      </trkpt>
      <trkpt lat="28.95343" lon="-13.58331">
        <ele>1.8</ele>
        <time>2021-07-02 12:11:41</time>
      </trkpt>
      <trkpt lat="28.95346" lon="-13.58331">
        <ele>1.8</ele>
        <time>2021-07-02 12:11:42</time>
      </trkpt>
      <trkpt lat="28.9535" lon="-13.5833">
        <ele>1.6</ele>
        <time>2021-07-02 12:11:43</time>
      </trkpt>
      <trkpt lat="28.95354" lon="-13.5833">
        <ele>1.6</ele>
        <time>2021-07-02 12:11:44</time>
      </trkpt>
      <trkpt lat="28.95357" lon="-13.5833">
        <ele>1.4</ele>
        <time>2021-07-02 12:11:45</time>
      </trkpt>
      <trkpt lat="28.95361" lon="-13.5833">
        <ele>1.4</ele>
        <time>2021-07-02 12:11:46</time>
      </trkpt>
      <trkpt lat="28.95365" lon="-13.58329">
        <ele>1.4</ele>
        <time>2021-07-02 12:11:47</time>
      </trkpt>
      <trkpt lat="28.95368" lon="-13.58329">
        <ele>1.4</ele>
        <time>2021-07-02 12:11:48</time>
      </trkpt>
      <trkpt lat="28.95372" lon="-13.58329">
        <ele>1.4</ele>
        <time>2021-07-02 12:11:49</time>
      </trkpt>
      <trkpt lat="28.95375" lon="-13.58327">
        <ele>1.4</ele>
        <time>2021-07-02 12:11:50</time>
      </trkpt>
      <trkpt lat="28.95379" lon="-13.58325">
        <ele>1.4</ele>
        <time>2021-07-02 12:11:51</time>
      </trkpt>
      <trkpt lat="28.95381" lon="-13.58322">
        <ele>1.4</ele>
        <time>2021-07-02 12:11:52</time>
      </trkpt>
      <trkpt lat="28.95384" lon="-13.58319">
        <ele>1.4</ele>
        <time>2021-07-02 12:11:53</time>
      </trkpt>
      <trkpt lat="28.95387" lon="-13.58316">
        <ele>1.4</ele>
        <time>2021-07-02 12:11:54</time>
      </trkpt>
      <trkpt lat="28.9539" lon="-13.58313">
        <ele>1.4</ele>
        <time>2021-07-02 12:11:55</time>
      </trkpt>
      <trkpt lat="28.95393" lon="-13.58309">
        <ele>1.4</ele>
        <time>2021-07-02 12:11:56</time>
      </trkpt>
      <trkpt lat="28.95396" lon="-13.58304">
        <ele>1.4</ele>
        <time>2021-07-02 12:11:57</time>
      </trkpt>
      <trkpt lat="28.95398" lon="-13.583">
        <ele>1.4</ele>
        <time>2021-07-02 12:11:58</time>
      </trkpt>
      <trkpt lat="28.95401" lon="-13.58297">
        <ele>1.4</ele>
        <time>2021-07-02 12:11:59</time>
      </trkpt>
      <trkpt lat="28.95403" lon="-13.58294">
        <ele>1.4</ele>
        <time>2021-07-02 12:12:00</time>
      </trkpt>
      <trkpt lat="28.95406" lon="-13.58291">
        <ele>1</ele>
        <time>2021-07-02 12:12:01</time>
      </trkpt>
      <trkpt lat="28.95408" lon="-13.58289">
        <ele>1</ele>
        <time>2021-07-02 12:12:02</time>
      </trkpt>
      <trkpt lat="28.9541" lon="-13.58286">
        <ele>0.8</ele>
        <time>2021-07-02 12:12:03</time>
      </trkpt>
      <trkpt lat="28.95412" lon="-13.58283">
        <ele>0.8</ele>
        <time>2021-07-02 12:12:04</time>
      </trkpt>
      <trkpt lat="28.95415" lon="-13.58281">
        <ele>0.2</ele>
        <time>2021-07-02 12:12:05</time>
      </trkpt>
      <trkpt lat="28.95416" lon="-13.58278">
        <time>2021-07-02 12:12:06</time>
      </trkpt>
      <trkpt lat="28.95417" lon="-13.58274">
        <ele>-0.4</ele>
        <time>2021-07-02 12:12:07</time>
      </trkpt>
      <trkpt lat="28.95419" lon="-13.5827">
        <ele>-0.8</ele>
        <time>2021-07-02 12:12:08</time>
      </trkpt>
      <trkpt lat="28.95419" lon="-13.58265">
        <ele>-1</ele>
        <time>2021-07-02 12:12:09</time>
      </trkpt>
      <trkpt lat="28.9542" lon="-13.58262">
        <ele>-1.4</ele>
        <time>2021-07-02 12:12:10</time>
      </trkpt>
      <trkpt lat="28.95421" lon="-13.58259">
        <ele>-1.8</ele>
        <time>2021-07-02 12:12:11</time>
      </trkpt>
      <trkpt lat="28.95422" lon="-13.58256">
        <ele>-2</ele>
        <time>2021-07-02 12:12:12</time>
      </trkpt>
      <trkpt lat="28.95424" lon="-13.58253">
        <ele>-2.4</ele>
        <time>2021-07-02 12:12:13</time>
      </trkpt>
      <trkpt lat="28.95425" lon="-13.5825">
        <ele>-2.6</ele>
        <time>2021-07-02 12:12:14</time>
      </trkpt>
      <trkpt lat="28.95426" lon="-13.58247">
        <ele>-3</ele>
        <time>2021-07-02 12:12:15</time>
      </trkpt>
      <trkpt lat="28.95426" lon="-13.58245">
        <ele>-3</ele>
        <time>2021-07-02 12:12:16</time>
      </trkpt>
      <trkpt lat="28.95427" lon="-13.58244">
        <ele>-3.4</ele>
        <time>2021-07-02 12:12:17</time>
      </trkpt>
      <trkpt lat="28.95427" lon="-13.58244">
        <ele>-3.6</ele>
        <time>2021-07-02 12:12:18</time>
      </trkpt>
      <trkpt lat="28.95427" lon="-13.58244">
        <ele>-3.8</ele>
        <time>2021-07-02 12:12:19</time>
      </trkpt>
      <trkpt lat="28.95427" lon="-13.58244">
        <ele>-3.8</ele>
        <time>2021-07-02 12:12:20</time>
      </trkpt>
      <trkpt lat="28.95427" lon="-13.58244">
        <ele>-4</ele>
        <time>2021-07-02 12:12:24</time>
      </trkpt>
      <trkpt lat="28.95427" lon="-13.58243">
        <ele>-4</ele>
        <time>2021-07-02 12:12:25</time>
      </trkpt>
      <trkpt lat="28.95428" lon="-13.58243">
        <ele>-4.4</ele>
        <time>2021-07-02 12:12:26</time>
      </trkpt>
      <trkpt lat="28.95428" lon="-13.58242">
        <ele>-4.4</ele>
        <time>2021-07-02 12:12:27</time>
      </trkpt>
      <trkpt lat="28.95429" lon="-13.58241">
        <ele>-4.4</ele>
        <time>2021-07-02 12:12:28</time>
      </trkpt>
      <trkpt lat="28.95429" lon="-13.58241">
        <ele>-4.4</ele>
        <time>2021-07-02 12:12:29</time>
      </trkpt>
      <trkpt lat="28.9543" lon="-13.58241">
        <ele>-4.4</ele>
        <time>2021-07-02 12:12:30</time>
      </trkpt>
      <trkpt lat="28.9543" lon="-13.58242">
        <ele>-4.4</ele>
        <time>2021-07-02 12:12:31</time>
      </trkpt>
      <trkpt lat="28.95429" lon="-13.58243">
        <ele>-4.4</ele>
        <time>2021-07-02 12:12:32</time>
      </trkpt>
      <trkpt lat="28.95428" lon="-13.58245">
        <ele>-4.4</ele>
        <time>2021-07-02 12:12:33</time>
      </trkpt>
      <trkpt lat="28.95427" lon="-13.58246">
        <ele>-4.4</ele>
        <time>2021-07-02 12:12:34</time>
      </trkpt>
      <trkpt lat="28.95427" lon="-13.58248">
        <ele>-4.4</ele>
        <time>2021-07-02 12:12:35</time>
      </trkpt>
      <trkpt lat="28.95426" lon="-13.58249">
        <ele>-4.4</ele>
        <time>2021-07-02 12:12:36</time>
      </trkpt>
      <trkpt lat="28.95425" lon="-13.5825">
        <ele>-4.4</ele>
        <time>2021-07-02 12:12:37</time>
      </trkpt>
      <trkpt lat="28.95424" lon="-13.58251">
        <ele>-4.4</ele>
        <time>2021-07-02 12:12:38</time>
      </trkpt>
      <trkpt lat="28.95424" lon="-13.58252">
        <ele>-4.4</ele>
        <time>2021-07-02 12:12:39</time>
      </trkpt>
      <trkpt lat="28.95423" lon="-13.58253">
        <ele>-4</ele>
        <time>2021-07-02 12:12:40</time>
      </trkpt>
      <trkpt lat="28.95422" lon="-13.58254">
        <ele>-4</ele>
        <time>2021-07-02 12:12:41</time>
      </trkpt>
      <trkpt lat="28.95422" lon="-13.58256">
        <ele>-3.8</ele>
        <time>2021-07-02 12:12:42</time>
      </trkpt>
      <trkpt lat="28.95421" lon="-13.58257">
        <ele>-3.8</ele>
        <time>2021-07-02 12:12:43</time>
      </trkpt>
      <trkpt lat="28.95421" lon="-13.58258">
        <ele>-3.8</ele>
        <time>2021-07-02 12:12:44</time>
      </trkpt>
      <trkpt lat="28.9542" lon="-13.58259">
        <ele>-3.8</ele>
        <time>2021-07-02 12:12:45</time>
      </trkpt>
      <trkpt lat="28.9542" lon="-13.58261">
        <ele>-3.8</ele>
        <time>2021-07-02 12:12:46</time>
      </trkpt>
      <trkpt lat="28.9542" lon="-13.58262">
        <ele>-3.8</ele>
        <time>2021-07-02 12:12:47</time>
      </trkpt>
      <trkpt lat="28.95419" lon="-13.58264">
        <ele>-3.8</ele>
        <time>2021-07-02 12:12:48</time>
      </trkpt>
      <trkpt lat="28.95419" lon="-13.58265">
        <ele>-3.8</ele>
        <time>2021-07-02 12:12:49</time>
      </trkpt>
      <trkpt lat="28.95419" lon="-13.58266">
        <ele>-3.8</ele>
        <time>2021-07-02 12:12:50</time>
      </trkpt>
      <trkpt lat="28.95419" lon="-13.58268">
        <ele>-3.8</ele>
        <time>2021-07-02 12:12:51</time>
      </trkpt>
      <trkpt lat="28.95419" lon="-13.58269">
        <ele>-4</ele>
        <time>2021-07-02 12:12:52</time>
      </trkpt>
      <trkpt lat="28.95419" lon="-13.5827">
        <ele>-4</ele>
        <time>2021-07-02 12:12:53</time>
      </trkpt>
      <trkpt lat="28.95418" lon="-13.58272">
        <ele>-4</ele>
        <time>2021-07-02 12:12:54</time>
      </trkpt>
      <trkpt lat="28.95418" lon="-13.58273">
        <ele>-4</ele>
        <time>2021-07-02 12:12:55</time>
      </trkpt>
      <trkpt lat="28.95418" lon="-13.58274">
        <ele>-4</ele>
        <time>2021-07-02 12:12:56</time>
      </trkpt>
      <trkpt lat="28.95417" lon="-13.58275">
        <ele>-4</ele>
        <time>2021-07-02 12:12:57</time>
      </trkpt>
      <trkpt lat="28.95416" lon="-13.58276">
        <ele>-4</ele>
        <time>2021-07-02 12:12:58</time>
      </trkpt>
      <trkpt lat="28.95415" lon="-13.58278">
        <ele>-4</ele>
        <time>2021-07-02 12:12:59</time>
      </trkpt>
      <trkpt lat="28.95415" lon="-13.58279">
        <ele>-4</ele>
        <time>2021-07-02 12:13:00</time>
      </trkpt>
      <trkpt lat="28.95414" lon="-13.58279">
        <ele>-3.8</ele>
        <time>2021-07-02 12:13:01</time>
      </trkpt>
      <trkpt lat="28.95413" lon="-13.5828">
        <ele>-3.8</ele>
        <time>2021-07-02 12:13:02</time>
      </trkpt>
      <trkpt lat="28.95413" lon="-13.58281">
        <ele>-3.8</ele>
        <time>2021-07-02 12:13:03</time>
      </trkpt>
      <trkpt lat="28.95413" lon="-13.58282">
        <ele>-3.8</ele>
        <time>2021-07-02 12:13:04</time>
      </trkpt>
      <trkpt lat="28.95413" lon="-13.58282">
        <ele>-3.8</ele>
        <time>2021-07-02 12:13:05</time>
      </trkpt>
      <trkpt lat="28.95413" lon="-13.58282">
        <ele>-3.4</ele>
        <time>2021-07-02 12:13:06</time>
      </trkpt>
      <trkpt lat="28.95411" lon="-13.58283">
        <ele>-3</ele>
        <time>2021-07-02 12:13:11</time>
      </trkpt>
      <trkpt lat="28.9541" lon="-13.58284">
        <ele>-2.8</ele>
        <time>2021-07-02 12:13:12</time>
      </trkpt>
      <trkpt lat="28.95409" lon="-13.58284">
        <ele>-2.8</ele>
        <time>2021-07-02 12:13:13</time>
      </trkpt>
      <trkpt lat="28.95409" lon="-13.58286">
        <ele>-2.8</ele>
        <time>2021-07-02 12:13:14</time>
      </trkpt>
      <trkpt lat="28.95408" lon="-13.58287">
        <ele>-2.8</ele>
        <time>2021-07-02 12:13:15</time>
      </trkpt>
      <trkpt lat="28.95408" lon="-13.58289">
        <ele>-2.8</ele>
        <time>2021-07-02 12:13:16</time>
      </trkpt>
      <trkpt lat="28.95407" lon="-13.5829">
        <ele>-2.8</ele>
        <time>2021-07-02 12:13:17</time>
      </trkpt>
      <trkpt lat="28.95405" lon="-13.58291">
        <ele>-2.6</ele>
        <time>2021-07-02 12:13:18</time>
      </trkpt>
      <trkpt lat="28.95404" lon="-13.58292">
        <ele>-2.6</ele>
        <time>2021-07-02 12:13:19</time>
      </trkpt>
      <trkpt lat="28.95402" lon="-13.58294">
        <ele>-2.4</ele>
        <time>2021-07-02 12:13:20</time>
      </trkpt>
      <trkpt lat="28.95403" lon="-13.58296">
        <ele>-2.2</ele>
        <time>2021-07-02 12:13:21</time>
      </trkpt>
      <trkpt lat="28.95404" lon="-13.58297">
        <ele>-1.8</ele>
        <time>2021-07-02 12:13:22</time>
      </trkpt>
      <trkpt lat="28.95406" lon="-13.58298">
        <ele>-1.6</ele>
        <time>2021-07-02 12:13:23</time>
      </trkpt>
      <trkpt lat="28.95409" lon="-13.58298">
        <ele>-1.6</ele>
        <time>2021-07-02 12:13:24</time>
      </trkpt>
      <trkpt lat="28.95411" lon="-13.58296">
        <ele>-1.6</ele>
        <time>2021-07-02 12:13:25</time>
      </trkpt>
      <trkpt lat="28.95413" lon="-13.58294">
        <ele>-1.6</ele>
        <time>2021-07-02 12:13:26</time>
      </trkpt>
      <trkpt lat="28.95414" lon="-13.58293">
        <ele>-1.2</ele>
        <time>2021-07-02 12:13:27</time>
      </trkpt>
      <trkpt lat="28.95415" lon="-13.58292">
        <ele>-1.2</ele>
        <time>2021-07-02 12:13:28</time>
      </trkpt>
      <trkpt lat="28.95416" lon="-13.58291">
        <ele>-1</ele>
        <time>2021-07-02 12:13:29</time>
      </trkpt>
      <trkpt lat="28.95417" lon="-13.5829">
        <ele>-0.8</ele>
        <time>2021-07-02 12:13:30</time>
      </trkpt>
      <trkpt lat="28.95418" lon="-13.58288">
        <ele>-0.8</ele>
        <time>2021-07-02 12:13:31</time>
      </trkpt>
      <trkpt lat="28.9542" lon="-13.58287">
        <ele>-0.4</ele>
        <time>2021-07-02 12:13:32</time>
      </trkpt>
      <trkpt lat="28.95421" lon="-13.58287">
        <ele>-0.2</ele>
        <time>2021-07-02 12:13:33</time>
      </trkpt>
      <trkpt lat="28.95423" lon="-13.58286">
        <ele>-0.2</ele>
        <time>2021-07-02 12:13:34</time>
      </trkpt>
      <trkpt lat="28.95425" lon="-13.58286">
        <ele>0.2</ele>
        <time>2021-07-02 12:13:35</time>
      </trkpt>
      <trkpt lat="28.95427" lon="-13.58286">
        <ele>0.2</ele>
        <time>2021-07-02 12:13:36</time>
      </trkpt>
      <trkpt lat="28.95429" lon="-13.58285">
        <ele>0.4</ele>
        <time>2021-07-02 12:13:37</time>
      </trkpt>
      <trkpt lat="28.95432" lon="-13.58284">
        <ele>0.4</ele>
        <time>2021-07-02 12:13:38</time>
      </trkpt>
      <trkpt lat="28.95434" lon="-13.58283">
        <ele>0.8</ele>
        <time>2021-07-02 12:13:39</time>
      </trkpt>
      <trkpt lat="28.95436" lon="-13.58282">
        <ele>0.8</ele>
        <time>2021-07-02 12:13:40</time>
      </trkpt>
      <trkpt lat="28.95438" lon="-13.5828">
        <ele>0.8</ele>
        <time>2021-07-02 12:13:41</time>
      </trkpt>
      <trkpt lat="28.9544" lon="-13.58279">
        <ele>1</ele>
        <time>2021-07-02 12:13:42</time>
      </trkpt>
      <trkpt lat="28.95442" lon="-13.58277">
        <ele>1</ele>
        <time>2021-07-02 12:13:43</time>
      </trkpt>
      <trkpt lat="28.95444" lon="-13.58275">
        <ele>1</ele>
        <time>2021-07-02 12:13:44</time>
      </trkpt>
      <trkpt lat="28.95446" lon="-13.58274">
        <ele>1</ele>
        <time>2021-07-02 12:13:45</time>
      </trkpt>
      <trkpt lat="28.95447" lon="-13.58272">
        <ele>1</ele>
        <time>2021-07-02 12:13:46</time>
      </trkpt>
      <trkpt lat="28.95449" lon="-13.58271">
        <ele>1</ele>
        <time>2021-07-02 12:13:47</time>
      </trkpt>
      <trkpt lat="28.95451" lon="-13.58269">
        <ele>1</ele>
        <time>2021-07-02 12:13:48</time>
      </trkpt>
      <trkpt lat="28.95452" lon="-13.58268">
        <ele>1.2</ele>
        <time>2021-07-02 12:13:49</time>
      </trkpt>
      <trkpt lat="28.95453" lon="-13.58267">
        <ele>1.2</ele>
        <time>2021-07-02 12:13:50</time>
      </trkpt>
      <trkpt lat="28.95454" lon="-13.58266">
        <ele>1.2</ele>
        <time>2021-07-02 12:13:51</time>
      </trkpt>
      <trkpt lat="28.95455" lon="-13.58264">
        <ele>1.2</ele>
        <time>2021-07-02 12:13:52</time>
      </trkpt>
      <trkpt lat="28.95457" lon="-13.58263">
        <ele>1.2</ele>
        <time>2021-07-02 12:13:53</time>
      </trkpt>
      <trkpt lat="28.95459" lon="-13.58262">
        <ele>1.2</ele>
        <time>2021-07-02 12:13:54</time>
      </trkpt>
      <trkpt lat="28.95461" lon="-13.5826">
        <ele>1.2</ele>
        <time>2021-07-02 12:13:55</time>
      </trkpt>
      <trkpt lat="28.95464" lon="-13.58258">
        <ele>1.2</ele>
        <time>2021-07-02 12:13:56</time>
      </trkpt>
      <trkpt lat="28.95466" lon="-13.58256">
        <ele>1.2</ele>
        <time>2021-07-02 12:13:57</time>
      </trkpt>
      <trkpt lat="28.95469" lon="-13.58253">
        <ele>1.2</ele>
        <time>2021-07-02 12:13:58</time>
      </trkpt>
      <trkpt lat="28.95472" lon="-13.58251">
        <ele>1.2</ele>
        <time>2021-07-02 12:13:59</time>
      </trkpt>
      <trkpt lat="28.95474" lon="-13.58248">
        <ele>1</ele>
        <time>2021-07-02 12:14:00</time>
      </trkpt>
      <trkpt lat="28.95475" lon="-13.58244">
        <ele>1</ele>
        <time>2021-07-02 12:14:01</time>
      </trkpt>
      <trkpt lat="28.95475" lon="-13.5824">
        <ele>0.8</ele>
        <time>2021-07-02 12:14:02</time>
      </trkpt>
      <trkpt lat="28.95475" lon="-13.58236">
        <ele>0.6</ele>
        <time>2021-07-02 12:14:03</time>
      </trkpt>
      <trkpt lat="28.95475" lon="-13.58232">
        <ele>0.6</ele>
        <time>2021-07-02 12:14:04</time>
      </trkpt>
      <trkpt lat="28.95475" lon="-13.58227">
        <ele>0.2</ele>
        <time>2021-07-02 12:14:05</time>
      </trkpt>
      <trkpt lat="28.95474" lon="-13.58223">
        <time>2021-07-02 12:14:06</time>
      </trkpt>
      <trkpt lat="28.95474" lon="-13.58218">
        <ele>-0.4</ele>
        <time>2021-07-02 12:14:07</time>
      </trkpt>
      <trkpt lat="28.95474" lon="-13.58213">
        <ele>-0.6</ele>
        <time>2021-07-02 12:14:08</time>
      </trkpt>
      <trkpt lat="28.95474" lon="-13.58208">
        <ele>-1</ele>
        <time>2021-07-02 12:14:09</time>
      </trkpt>
      <trkpt lat="28.95473" lon="-13.58204">
        <ele>-1.2</ele>
        <time>2021-07-02 12:14:10</time>
      </trkpt>
      <trkpt lat="28.95473" lon="-13.582">
        <ele>-1.4</ele>
        <time>2021-07-02 12:14:11</time>
      </trkpt>
      <trkpt lat="28.95473" lon="-13.58196">
        <ele>-1.4</ele>
        <time>2021-07-02 12:14:12</time>
      </trkpt>
      <trkpt lat="28.95472" lon="-13.58191">
        <ele>-1.8</ele>
        <time>2021-07-02 12:14:13</time>
      </trkpt>
      <trkpt lat="28.95472" lon="-13.58187">
        <ele>-1.8</ele>
        <time>2021-07-02 12:14:14</time>
      </trkpt>
      <trkpt lat="28.95472" lon="-13.58183">
        <ele>-2</ele>
        <time>2021-07-02 12:14:15</time>
      </trkpt>
      <trkpt lat="28.95471" lon="-13.58178">
        <ele>-2</ele>
        <time>2021-07-02 12:14:16</time>
      </trkpt>
      <trkpt lat="28.95471" lon="-13.58174">
        <ele>-2</ele>
        <time>2021-07-02 12:14:17</time>
      </trkpt>
      <trkpt lat="28.95471" lon="-13.5817">
        <ele>-2</ele>
        <time>2021-07-02 12:14:18</time>
      </trkpt>
      <trkpt lat="28.95471" lon="-13.58166">
        <ele>-2</ele>
        <time>2021-07-02 12:14:19</time>
      </trkpt>
      <trkpt lat="28.9547" lon="-13.58161">
        <ele>-2</ele>
        <time>2021-07-02 12:14:20</time>
      </trkpt>
      <trkpt lat="28.95469" lon="-13.58157">
        <ele>-2</ele>
        <time>2021-07-02 12:14:21</time>
      </trkpt>
      <trkpt lat="28.95469" lon="-13.58153">
        <ele>-2.4</ele>
        <time>2021-07-02 12:14:22</time>
      </trkpt>
      <trkpt lat="28.95469" lon="-13.58149">
        <ele>-2.4</ele>
        <time>2021-07-02 12:14:23</time>
      </trkpt>
      <trkpt lat="28.95468" lon="-13.58144">
        <ele>-2.4</ele>
        <time>2021-07-02 12:14:24</time>
      </trkpt>
      <trkpt lat="28.95468" lon="-13.5814">
        <ele>-2.4</ele>
        <time>2021-07-02 12:14:25</time>
      </trkpt>
      <trkpt lat="28.95467" lon="-13.58135">
        <ele>-2.4</ele>
        <time>2021-07-02 12:14:26</time>
      </trkpt>
      <trkpt lat="28.95467" lon="-13.58131">
        <ele>-2.4</ele>
        <time>2021-07-02 12:14:27</time>
      </trkpt>
      <trkpt lat="28.95466" lon="-13.58126">
        <ele>-2.4</ele>
        <time>2021-07-02 12:14:28</time>
      </trkpt>
      <trkpt lat="28.95465" lon="-13.58122">
        <ele>-2</ele>
        <time>2021-07-02 12:14:29</time>
      </trkpt>
      <trkpt lat="28.95464" lon="-13.58118">
        <ele>-2</ele>
        <time>2021-07-02 12:14:30</time>
      </trkpt>
      <trkpt lat="28.95462" lon="-13.58114">
        <ele>-2</ele>
        <time>2021-07-02 12:14:31</time>
      </trkpt>
      <trkpt lat="28.95461" lon="-13.5811">
        <ele>-2</ele>
        <time>2021-07-02 12:14:32</time>
      </trkpt>
      <trkpt lat="28.9546" lon="-13.58106">
        <ele>-2</ele>
        <time>2021-07-02 12:14:33</time>
      </trkpt>
      <trkpt lat="28.95458" lon="-13.58102">
        <ele>-2</ele>
        <time>2021-07-02 12:14:34</time>
      </trkpt>
      <trkpt lat="28.95456" lon="-13.58098">
        <ele>-2</ele>
        <time>2021-07-02 12:14:35</time>
      </trkpt>
      <trkpt lat="28.95452" lon="-13.58094">
        <ele>-2</ele>
        <time>2021-07-02 12:14:36</time>
      </trkpt>
      <trkpt lat="28.95448" lon="-13.58092">
        <ele>-2</ele>
        <time>2021-07-02 12:14:37</time>
      </trkpt>
      <trkpt lat="28.95444" lon="-13.58088">
        <ele>-2.2</ele>
        <time>2021-07-02 12:14:38</time>
      </trkpt>
      <trkpt lat="28.95441" lon="-13.58085">
        <ele>-2.2</ele>
        <time>2021-07-02 12:14:39</time>
      </trkpt>
      <trkpt lat="28.95438" lon="-13.58082">
        <ele>-2.2</ele>
        <time>2021-07-02 12:14:40</time>
      </trkpt>
      <trkpt lat="28.95435" lon="-13.58079">
        <ele>-2.2</ele>
        <time>2021-07-02 12:14:41</time>
      </trkpt>
      <trkpt lat="28.95431" lon="-13.58076">
        <ele>-2.6</ele>
        <time>2021-07-02 12:14:42</time>
      </trkpt>
      <trkpt lat="28.95428" lon="-13.58072">
        <ele>-2.6</ele>
        <time>2021-07-02 12:14:43</time>
      </trkpt>
      <trkpt lat="28.95425" lon="-13.58069">
        <ele>-2.6</ele>
        <time>2021-07-02 12:14:44</time>
      </trkpt>
      <trkpt lat="28.95422" lon="-13.58066">
        <ele>-2.6</ele>
        <time>2021-07-02 12:14:45</time>
      </trkpt>
      <trkpt lat="28.95419" lon="-13.58063">
        <ele>-2.6</ele>
        <time>2021-07-02 12:14:46</time>
      </trkpt>
      <trkpt lat="28.95416" lon="-13.58059">
        <ele>-2.6</ele>
        <time>2021-07-02 12:14:47</time>
      </trkpt>
      <trkpt lat="28.95413" lon="-13.58055">
        <ele>-2.6</ele>
        <time>2021-07-02 12:14:48</time>
      </trkpt>
      <trkpt lat="28.95411" lon="-13.58051">
        <ele>-2.6</ele>
        <time>2021-07-02 12:14:49</time>
      </trkpt>
      <trkpt lat="28.9541" lon="-13.58046">
        <ele>-2.6</ele>
        <time>2021-07-02 12:14:50</time>
      </trkpt>
      <trkpt lat="28.95409" lon="-13.58042">
        <ele>-2.6</ele>
        <time>2021-07-02 12:14:51</time>
      </trkpt>
      <trkpt lat="28.95408" lon="-13.58037">
        <ele>-2.6</ele>
        <time>2021-07-02 12:14:52</time>
      </trkpt>
      <trkpt lat="28.95409" lon="-13.58032">
        <ele>-2.6</ele>
        <time>2021-07-02 12:14:53</time>
      </trkpt>
      <trkpt lat="28.95409" lon="-13.58027">
        <ele>-2.4</ele>
        <time>2021-07-02 12:14:54</time>
      </trkpt>
      <trkpt lat="28.95409" lon="-13.58022">
        <ele>-2.4</ele>
        <time>2021-07-02 12:14:55</time>
      </trkpt>
      <trkpt lat="28.9541" lon="-13.58017">
        <ele>-2.4</ele>
        <time>2021-07-02 12:14:56</time>
      </trkpt>
      <trkpt lat="28.9541" lon="-13.58013">
        <ele>-2.2</ele>
        <time>2021-07-02 12:14:57</time>
      </trkpt>
      <trkpt lat="28.9541" lon="-13.58008">
        <ele>-2</ele>
        <time>2021-07-02 12:14:58</time>
      </trkpt>
      <trkpt lat="28.9541" lon="-13.58003">
        <ele>-2</ele>
        <time>2021-07-02 12:14:59</time>
      </trkpt>
      <trkpt lat="28.9541" lon="-13.57998">
        <ele>-1.6</ele>
        <time>2021-07-02 12:15:00</time>
      </trkpt>
      <trkpt lat="28.9541" lon="-13.57994">
        <ele>-1.6</ele>
        <time>2021-07-02 12:15:01</time>
      </trkpt>
      <trkpt lat="28.95411" lon="-13.57989">
        <ele>-1.2</ele>
        <time>2021-07-02 12:15:02</time>
      </trkpt>
      <trkpt lat="28.9541" lon="-13.57984">
        <ele>-1.2</ele>
        <time>2021-07-02 12:15:03</time>
      </trkpt>
      <trkpt lat="28.95409" lon="-13.57979">
        <ele>-1</ele>
        <time>2021-07-02 12:15:04</time>
      </trkpt>
      <trkpt lat="28.95407" lon="-13.57975">
        <ele>-1</ele>
        <time>2021-07-02 12:15:05</time>
      </trkpt>
      <trkpt lat="28.95404" lon="-13.57971">
        <ele>-1</ele>
        <time>2021-07-02 12:15:06</time>
      </trkpt>
      <trkpt lat="28.95402" lon="-13.57967">
        <ele>-0.8</ele>
        <time>2021-07-02 12:15:07</time>
      </trkpt>
      <trkpt lat="28.95399" lon="-13.57963">
        <ele>-0.8</ele>
        <time>2021-07-02 12:15:08</time>
      </trkpt>
      <trkpt lat="28.95396" lon="-13.5796">
        <ele>-0.8</ele>
        <time>2021-07-02 12:15:09</time>
      </trkpt>
      <trkpt lat="28.95393" lon="-13.57956">
        <ele>-0.8</ele>
        <time>2021-07-02 12:15:10</time>
      </trkpt>
      <trkpt lat="28.9539" lon="-13.57952">
        <ele>-0.8</ele>
        <time>2021-07-02 12:15:11</time>
      </trkpt>
      <trkpt lat="28.95387" lon="-13.57948">
        <ele>-0.8</ele>
        <time>2021-07-02 12:15:12</time>
      </trkpt>
      <trkpt lat="28.95383" lon="-13.57944">
        <ele>-1</ele>
        <time>2021-07-02 12:15:13</time>
      </trkpt>
      <trkpt lat="28.9538" lon="-13.57941">
        <ele>-1</ele>
        <time>2021-07-02 12:15:14</time>
      </trkpt>
      <trkpt lat="28.95378" lon="-13.57937">
        <ele>-1</ele>
        <time>2021-07-02 12:15:15</time>
      </trkpt>
      <trkpt lat="28.95376" lon="-13.57932">
        <ele>-1</ele>
        <time>2021-07-02 12:15:16</time>
      </trkpt>
      <trkpt lat="28.95375" lon="-13.57927">
        <ele>-1</ele>
        <time>2021-07-02 12:15:17</time>
      </trkpt>
      <trkpt lat="28.95374" lon="-13.57921">
        <ele>-1</ele>
        <time>2021-07-02 12:15:18</time>
      </trkpt>
      <trkpt lat="28.95373" lon="-13.57916">
        <ele>-1</ele>
        <time>2021-07-02 12:15:19</time>
      </trkpt>
      <trkpt lat="28.95373" lon="-13.57911">
        <ele>-1</ele>
        <time>2021-07-02 12:15:20</time>
      </trkpt>
      <trkpt lat="28.95372" lon="-13.57907">
        <ele>-0.8</ele>
        <time>2021-07-02 12:15:21</time>
      </trkpt>
      <trkpt lat="28.95371" lon="-13.57902">
        <ele>-0.8</ele>
        <time>2021-07-02 12:15:22</time>
      </trkpt>
      <trkpt lat="28.95371" lon="-13.57898">
        <ele>-0.8</ele>
        <time>2021-07-02 12:15:23</time>
      </trkpt>
      <trkpt lat="28.9537" lon="-13.57894">
        <ele>-0.8</ele>
        <time>2021-07-02 12:15:24</time>
      </trkpt>
      <trkpt lat="28.9537" lon="-13.5789">
        <ele>-0.8</ele>
        <time>2021-07-02 12:15:25</time>
      </trkpt>
      <trkpt lat="28.95369" lon="-13.57887">
        <ele>-0.8</ele>
        <time>2021-07-02 12:15:26</time>
      </trkpt>
      <trkpt lat="28.95367" lon="-13.57884">
        <ele>-0.8</ele>
        <time>2021-07-02 12:15:27</time>
      </trkpt>
      <trkpt lat="28.95367" lon="-13.5788">
        <ele>-0.8</ele>
        <time>2021-07-02 12:15:28</time>
      </trkpt>
      <trkpt lat="28.95365" lon="-13.57877">
        <ele>-1.2</ele>
        <time>2021-07-02 12:15:29</time>
      </trkpt>
      <trkpt lat="28.95364" lon="-13.57873">
        <ele>-1.2</ele>
        <time>2021-07-02 12:15:30</time>
      </trkpt>
      <trkpt lat="28.95362" lon="-13.5787">
        <ele>-1.2</ele>
        <time>2021-07-02 12:15:31</time>
      </trkpt>
      <trkpt lat="28.95361" lon="-13.57867">
        <ele>-0.8</ele>
        <time>2021-07-02 12:15:32</time>
      </trkpt>
      <trkpt lat="28.95359" lon="-13.57864">
        <ele>-0.8</ele>
        <time>2021-07-02 12:15:33</time>
      </trkpt>
      <trkpt lat="28.95357" lon="-13.5786">
        <ele>-0.6</ele>
        <time>2021-07-02 12:15:34</time>
      </trkpt>
      <trkpt lat="28.95356" lon="-13.57857">
        <ele>-0.6</ele>
        <time>2021-07-02 12:15:35</time>
      </trkpt>
      <trkpt lat="28.95354" lon="-13.57853">
        <ele>-0.2</ele>
        <time>2021-07-02 12:15:36</time>
      </trkpt>
      <trkpt lat="28.95352" lon="-13.5785">
        <ele>-0.2</ele>
        <time>2021-07-02 12:15:37</time>
      </trkpt>
      <trkpt lat="28.9535" lon="-13.57846">
        <time>2021-07-02 12:15:38</time>
      </trkpt>
      <trkpt lat="28.95347" lon="-13.57843">
        <time>2021-07-02 12:15:39</time>
      </trkpt>
      <trkpt lat="28.95345" lon="-13.57838">
        <ele>0.2</ele>
        <time>2021-07-02 12:15:40</time>
      </trkpt>
      <trkpt lat="28.95343" lon="-13.57834">
        <ele>0.2</ele>
        <time>2021-07-02 12:15:41</time>
      </trkpt>
      <trkpt lat="28.95342" lon="-13.57829">
        <ele>0.2</ele>
        <time>2021-07-02 12:15:42</time>
      </trkpt>
      <trkpt lat="28.95341" lon="-13.57824">
        <ele>0.2</ele>
        <time>2021-07-02 12:15:43</time>
      </trkpt>
      <trkpt lat="28.95339" lon="-13.57819">
        <ele>0.4</ele>
        <time>2021-07-02 12:15:44</time>
      </trkpt>
      <trkpt lat="28.95338" lon="-13.57814">
        <ele>0.4</ele>
        <time>2021-07-02 12:15:45</time>
      </trkpt>
      <trkpt lat="28.95337" lon="-13.57809">
        <ele>0.4</ele>
        <time>2021-07-02 12:15:46</time>
      </trkpt>
      <trkpt lat="28.95336" lon="-13.57804">
        <ele>0.4</ele>
        <time>2021-07-02 12:15:47</time>
      </trkpt>
      <trkpt lat="28.95335" lon="-13.57798">
        <ele>0.4</ele>
        <time>2021-07-02 12:15:48</time>
      </trkpt>
      <trkpt lat="28.95334" lon="-13.57793">
        <ele>0.4</ele>
        <time>2021-07-02 12:15:49</time>
      </trkpt>
      <trkpt lat="28.95333" lon="-13.57787">
        <ele>0.4</ele>
        <time>2021-07-02 12:15:50</time>
      </trkpt>
      <trkpt lat="28.95333" lon="-13.57782">
        <ele>0.4</ele>
        <time>2021-07-02 12:15:51</time>
      </trkpt>
      <trkpt lat="28.95333" lon="-13.57776">
        <ele>0.4</ele>
        <time>2021-07-02 12:15:52</time>
      </trkpt>
      <trkpt lat="28.95333" lon="-13.57771">
        <ele>0.4</ele>
        <time>2021-07-02 12:15:53</time>
      </trkpt>
      <trkpt lat="28.95333" lon="-13.57765">
        <ele>0.4</ele>
        <time>2021-07-02 12:15:54</time>
      </trkpt>
      <trkpt lat="28.95334" lon="-13.5776">
        <ele>0.4</ele>
        <time>2021-07-02 12:15:55</time>
      </trkpt>
      <trkpt lat="28.95335" lon="-13.57755">
        <ele>0.4</ele>
        <time>2021-07-02 12:15:56</time>
      </trkpt>
      <trkpt lat="28.95337" lon="-13.5775">
        <ele>0.4</ele>
        <time>2021-07-02 12:15:57</time>
      </trkpt>
      <trkpt lat="28.95338" lon="-13.57744">
        <ele>0.4</ele>
        <time>2021-07-02 12:15:58</time>
      </trkpt>
      <trkpt lat="28.9534" lon="-13.57739">
        <ele>0.4</ele>
        <time>2021-07-02 12:15:59</time>
      </trkpt>
      <trkpt lat="28.95342" lon="-13.57734">
        <ele>0.4</ele>
        <time>2021-07-02 12:16:00</time>
      </trkpt>
      <trkpt lat="28.95344" lon="-13.57729">
        <ele>0.4</ele>
        <time>2021-07-02 12:16:01</time>
      </trkpt>
      <trkpt lat="28.95346" lon="-13.57724">
        <ele>0.4</ele>
        <time>2021-07-02 12:16:02</time>
      </trkpt>
      <trkpt lat="28.95349" lon="-13.5772">
        <ele>0.4</ele>
        <time>2021-07-02 12:16:03</time>
      </trkpt>
      <trkpt lat="28.95352" lon="-13.57715">
        <ele>0.4</ele>
        <time>2021-07-02 12:16:04</time>
      </trkpt>
      <trkpt lat="28.95354" lon="-13.57711">
        <ele>0.4</ele>
        <time>2021-07-02 12:16:05</time>
      </trkpt>
      <trkpt lat="28.95357" lon="-13.57707">
        <ele>0.4</ele>
        <time>2021-07-02 12:16:06</time>
      </trkpt>
      <trkpt lat="28.95361" lon="-13.57703">
        <ele>0.4</ele>
        <time>2021-07-02 12:16:07</time>
      </trkpt>
      <trkpt lat="28.95364" lon="-13.57699">
        <ele>0.4</ele>
        <time>2021-07-02 12:16:08</time>
      </trkpt>
      <trkpt lat="28.95367" lon="-13.57696">
        <ele>0.6</ele>
        <time>2021-07-02 12:16:09</time>
      </trkpt>
      <trkpt lat="28.9537" lon="-13.57694">
        <ele>0.6</ele>
        <time>2021-07-02 12:16:10</time>
      </trkpt>
      <trkpt lat="28.95373" lon="-13.57691">
        <ele>1</ele>
        <time>2021-07-02 12:16:11</time>
      </trkpt>
      <trkpt lat="28.95377" lon="-13.57689">
        <ele>1</ele>
        <time>2021-07-02 12:16:12</time>
      </trkpt>
      <trkpt lat="28.9538" lon="-13.57687">
        <ele>1</ele>
        <time>2021-07-02 12:16:13</time>
      </trkpt>
      <trkpt lat="28.95383" lon="-13.57686">
        <ele>1.2</ele>
        <time>2021-07-02 12:16:14</time>
      </trkpt>
      <trkpt lat="28.95386" lon="-13.57684">
        <ele>1.2</ele>
        <time>2021-07-02 12:16:15</time>
      </trkpt>
      <trkpt lat="28.95389" lon="-13.57683">
        <ele>1.4</ele>
        <time>2021-07-02 12:16:16</time>
      </trkpt>
      <trkpt lat="28.95392" lon="-13.57682">
        <ele>1.4</ele>
        <time>2021-07-02 12:16:17</time>
      </trkpt>
      <trkpt lat="28.95398" lon="-13.57679">
        <ele>1.6</ele>
        <time>2021-07-02 12:16:18</time>
      </trkpt>
      <trkpt lat="28.95402" lon="-13.57678">
        <ele>1.6</ele>
        <time>2021-07-02 12:16:19</time>
      </trkpt>
      <trkpt lat="28.95405" lon="-13.57677">
        <ele>1.6</ele>
        <time>2021-07-02 12:16:20</time>
      </trkpt>
      <trkpt lat="28.95409" lon="-13.57676">
        <ele>1.8</ele>
        <time>2021-07-02 12:16:21</time>
      </trkpt>
      <trkpt lat="28.95412" lon="-13.57675">
        <ele>1.8</ele>
        <time>2021-07-02 12:16:22</time>
      </trkpt>
      <trkpt lat="28.95416" lon="-13.57675">
        <ele>2</ele>
        <time>2021-07-02 12:16:23</time>
      </trkpt>
      <trkpt lat="28.9542" lon="-13.57674">
        <ele>2</ele>
        <time>2021-07-02 12:16:24</time>
      </trkpt>
      <trkpt lat="28.95424" lon="-13.57674">
        <ele>2.2</ele>
        <time>2021-07-02 12:16:25</time>
      </trkpt>
      <trkpt lat="28.95427" lon="-13.57674">
        <ele>2.2</ele>
        <time>2021-07-02 12:16:26</time>
      </trkpt>
      <trkpt lat="28.95431" lon="-13.57674">
        <ele>2.2</ele>
        <time>2021-07-02 12:16:27</time>
      </trkpt>
      <trkpt lat="28.95434" lon="-13.57674">
        <ele>2.6</ele>
        <time>2021-07-02 12:16:28</time>
      </trkpt>
      <trkpt lat="28.95438" lon="-13.57674">
        <ele>2.8</ele>
        <time>2021-07-02 12:16:29</time>
      </trkpt>
      <trkpt lat="28.95442" lon="-13.57674">
        <ele>2.8</ele>
        <time>2021-07-02 12:16:30</time>
      </trkpt>
      <trkpt lat="28.95445" lon="-13.57674">
        <ele>3.2</ele>
        <time>2021-07-02 12:16:31</time>
      </trkpt>
      <trkpt lat="28.95448" lon="-13.57674">
        <ele>3.4</ele>
        <time>2021-07-02 12:16:32</time>
      </trkpt>
      <trkpt lat="28.95452" lon="-13.57674">
        <ele>3.6</ele>
        <time>2021-07-02 12:16:33</time>
      </trkpt>
      <trkpt lat="28.95455" lon="-13.57674">
        <ele>4</ele>
        <time>2021-07-02 12:16:34</time>
      </trkpt>
      <trkpt lat="28.95458" lon="-13.57674">
        <ele>4.2</ele>
        <time>2021-07-02 12:16:35</time>
      </trkpt>
      <trkpt lat="28.95461" lon="-13.57674">
        <ele>4.4</ele>
        <time>2021-07-02 12:16:36</time>
      </trkpt>
      <trkpt lat="28.95464" lon="-13.57674">
        <ele>4.6</ele>
        <time>2021-07-02 12:16:37</time>
      </trkpt>
      <trkpt lat="28.95467" lon="-13.57674">
        <ele>5</ele>
        <time>2021-07-02 12:16:38</time>
      </trkpt>
      <trkpt lat="28.95471" lon="-13.57673">
        <ele>5.2</ele>
        <time>2021-07-02 12:16:39</time>
      </trkpt>
      <trkpt lat="28.95474" lon="-13.57673">
        <ele>5.2</ele>
        <time>2021-07-02 12:16:40</time>
      </trkpt>
      <trkpt lat="28.95477" lon="-13.57673">
        <ele>5.4</ele>
        <time>2021-07-02 12:16:41</time>
      </trkpt>
      <trkpt lat="28.9548" lon="-13.57672">
        <ele>5.4</ele>
        <time>2021-07-02 12:16:42</time>
      </trkpt>
      <trkpt lat="28.95483" lon="-13.57672">
        <ele>5.4</ele>
        <time>2021-07-02 12:16:43</time>
      </trkpt>
      <trkpt lat="28.95486" lon="-13.57671">
        <ele>5.4</ele>
        <time>2021-07-02 12:16:44</time>
      </trkpt>
      <trkpt lat="28.95489" lon="-13.5767">
        <ele>5.2</ele>
        <time>2021-07-02 12:16:45</time>
      </trkpt>
      <trkpt lat="28.95493" lon="-13.57668">
        <ele>5.2</ele>
        <time>2021-07-02 12:16:46</time>
      </trkpt>
      <trkpt lat="28.95497" lon="-13.57666">
        <ele>5</ele>
        <time>2021-07-02 12:16:47</time>
      </trkpt>
      <trkpt lat="28.95501" lon="-13.57664">
        <ele>5</ele>
        <time>2021-07-02 12:16:48</time>
      </trkpt>
      <trkpt lat="28.95505" lon="-13.57662">
        <ele>4.6</ele>
        <time>2021-07-02 12:16:49</time>
      </trkpt>
      <trkpt lat="28.95508" lon="-13.5766">
        <ele>4.6</ele>
        <time>2021-07-02 12:16:50</time>
      </trkpt>
      <trkpt lat="28.95512" lon="-13.57658">
        <ele>4.2</ele>
        <time>2021-07-02 12:16:51</time>
      </trkpt>
      <trkpt lat="28.95516" lon="-13.57655">
        <ele>4</ele>
        <time>2021-07-02 12:16:52</time>
      </trkpt>
      <trkpt lat="28.95519" lon="-13.57651">
        <ele>3.8</ele>
        <time>2021-07-02 12:16:53</time>
      </trkpt>
      <trkpt lat="28.95522" lon="-13.57647">
        <ele>3.8</ele>
        <time>2021-07-02 12:16:54</time>
      </trkpt>
      <trkpt lat="28.95525" lon="-13.57643">
        <ele>3.4</ele>
        <time>2021-07-02 12:16:55</time>
      </trkpt>
      <trkpt lat="28.95528" lon="-13.57639">
        <ele>3</ele>
        <time>2021-07-02 12:16:56</time>
      </trkpt>
      <trkpt lat="28.95531" lon="-13.57635">
        <ele>2.8</ele>
        <time>2021-07-02 12:16:57</time>
      </trkpt>
      <trkpt lat="28.95534" lon="-13.5763">
        <ele>2.6</ele>
        <time>2021-07-02 12:16:58</time>
      </trkpt>
      <trkpt lat="28.95536" lon="-13.57625">
        <ele>2.2</ele>
        <time>2021-07-02 12:16:59</time>
      </trkpt>
      <trkpt lat="28.95539" lon="-13.5762">
        <ele>2</ele>
        <time>2021-07-02 12:17:00</time>
      </trkpt>
      <trkpt lat="28.95541" lon="-13.57615">
        <ele>1.8</ele>
        <time>2021-07-02 12:17:01</time>
      </trkpt>
      <trkpt lat="28.95543" lon="-13.5761">
        <ele>1.4</ele>
        <time>2021-07-02 12:17:02</time>
      </trkpt>
      <trkpt lat="28.95545" lon="-13.57604">
        <ele>1.2</ele>
        <time>2021-07-02 12:17:03</time>
      </trkpt>
      <trkpt lat="28.95546" lon="-13.57599">
        <ele>1.2</ele>
        <time>2021-07-02 12:17:04</time>
      </trkpt>
      <trkpt lat="28.95547" lon="-13.57593">
        <ele>0.8</ele>
        <time>2021-07-02 12:17:05</time>
      </trkpt>
      <trkpt lat="28.95548" lon="-13.57588">
        <ele>0.8</ele>
        <time>2021-07-02 12:17:06</time>
      </trkpt>
      <trkpt lat="28.95549" lon="-13.57582">
        <ele>0.4</ele>
        <time>2021-07-02 12:17:07</time>
      </trkpt>
      <trkpt lat="28.9555" lon="-13.57577">
        <time>2021-07-02 12:17:08</time>
      </trkpt>
      <trkpt lat="28.9555" lon="-13.57571">
        <time>2021-07-02 12:17:09</time>
      </trkpt>
      <trkpt lat="28.95551" lon="-13.57565">
        <ele>-0.4</ele>
        <time>2021-07-02 12:17:10</time>
      </trkpt>
      <trkpt lat="28.95551" lon="-13.57559">
        <ele>-0.4</ele>
        <time>2021-07-02 12:17:11</time>
      </trkpt>
      <trkpt lat="28.95552" lon="-13.57554">
        <ele>-0.6</ele>
        <time>2021-07-02 12:17:12</time>
      </trkpt>
      <trkpt lat="28.95552" lon="-13.57548">
        <ele>-0.6</ele>
        <time>2021-07-02 12:17:13</time>
      </trkpt>
      <trkpt lat="28.95552" lon="-13.57541">
        <ele>-1</ele>
        <time>2021-07-02 12:17:14</time>
      </trkpt>
      <trkpt lat="28.95553" lon="-13.57535">
        <ele>-1</ele>
        <time>2021-07-02 12:17:15</time>
      </trkpt>
      <trkpt lat="28.95554" lon="-13.57529">
        <ele>-1.4</ele>
        <time>2021-07-02 12:17:16</time>
      </trkpt>
      <trkpt lat="28.95554" lon="-13.57524">
        <ele>-1.6</ele>
        <time>2021-07-02 12:17:17</time>
      </trkpt>
      <trkpt lat="28.95554" lon="-13.57518">
        <ele>-1.6</ele>
        <time>2021-07-02 12:17:18</time>
      </trkpt>
      <trkpt lat="28.95554" lon="-13.57511">
        <ele>-1.8</ele>
        <time>2021-07-02 12:17:19</time>
      </trkpt>
      <trkpt lat="28.95554" lon="-13.57505">
        <ele>-1.8</ele>
        <time>2021-07-02 12:17:20</time>
      </trkpt>
      <trkpt lat="28.95554" lon="-13.57499">
        <ele>-2</ele>
        <time>2021-07-02 12:17:21</time>
      </trkpt>
      <trkpt lat="28.95553" lon="-13.57493">
        <ele>-2</ele>
        <time>2021-07-02 12:17:22</time>
      </trkpt>
      <trkpt lat="28.95552" lon="-13.57487">
        <ele>-2.2</ele>
        <time>2021-07-02 12:17:23</time>
      </trkpt>
      <trkpt lat="28.9555" lon="-13.57481">
        <ele>-2.2</ele>
        <time>2021-07-02 12:17:24</time>
      </trkpt>
      <trkpt lat="28.95549" lon="-13.57476">
        <ele>-2.2</ele>
        <time>2021-07-02 12:17:25</time>
      </trkpt>
      <trkpt lat="28.95547" lon="-13.5747">
        <ele>-2.2</ele>
        <time>2021-07-02 12:17:26</time>
      </trkpt>
      <trkpt lat="28.95545" lon="-13.57465">
        <ele>-2.2</ele>
        <time>2021-07-02 12:17:27</time>
      </trkpt>
      <trkpt lat="28.95543" lon="-13.5746">
        <ele>-2.2</ele>
        <time>2021-07-02 12:17:28</time>
      </trkpt>
      <trkpt lat="28.9554" lon="-13.57455">
        <ele>-2.2</ele>
        <time>2021-07-02 12:17:29</time>
      </trkpt>
      <trkpt lat="28.95538" lon="-13.5745">
        <ele>-2.4</ele>
        <time>2021-07-02 12:17:30</time>
      </trkpt>
      <trkpt lat="28.95537" lon="-13.57444">
        <ele>-2.4</ele>
        <time>2021-07-02 12:17:31</time>
      </trkpt>
      <trkpt lat="28.95535" lon="-13.57439">
        <ele>-2.4</ele>
        <time>2021-07-02 12:17:32</time>
      </trkpt>
      <trkpt lat="28.95533" lon="-13.57434">
        <ele>-2.4</ele>
        <time>2021-07-02 12:17:33</time>
      </trkpt>
      <trkpt lat="28.95531" lon="-13.57428">
        <ele>-2.2</ele>
        <time>2021-07-02 12:17:34</time>
      </trkpt>
      <trkpt lat="28.9553" lon="-13.57423">
        <ele>-2.2</ele>
        <time>2021-07-02 12:17:35</time>
      </trkpt>
      <trkpt lat="28.95529" lon="-13.57417">
        <ele>-2</ele>
        <time>2021-07-02 12:17:36</time>
      </trkpt>
      <trkpt lat="28.95528" lon="-13.57411">
        <ele>-2</ele>
        <time>2021-07-02 12:17:37</time>
      </trkpt>
      <trkpt lat="28.95527" lon="-13.57405">
        <ele>-2</ele>
        <time>2021-07-02 12:17:38</time>
      </trkpt>
      <trkpt lat="28.95526" lon="-13.574">
        <ele>-1.8</ele>
        <time>2021-07-02 12:17:39</time>
      </trkpt>
      <trkpt lat="28.95526" lon="-13.57394">
        <ele>-1.8</ele>
        <time>2021-07-02 12:17:40</time>
      </trkpt>
      <trkpt lat="28.95525" lon="-13.57388">
        <ele>-1.6</ele>
        <time>2021-07-02 12:17:41</time>
      </trkpt>
      <trkpt lat="28.95524" lon="-13.57382">
        <ele>-1.6</ele>
        <time>2021-07-02 12:17:42</time>
      </trkpt>
      <trkpt lat="28.95523" lon="-13.57377">
        <ele>-1.6</ele>
        <time>2021-07-02 12:17:43</time>
      </trkpt>
      <trkpt lat="28.95522" lon="-13.57371">
        <ele>-1.4</ele>
        <time>2021-07-02 12:17:44</time>
      </trkpt>
      <trkpt lat="28.9552" lon="-13.57366">
        <ele>-1.4</ele>
        <time>2021-07-02 12:17:45</time>
      </trkpt>
      <trkpt lat="28.95518" lon="-13.57361">
        <ele>-1.4</ele>
        <time>2021-07-02 12:17:46</time>
      </trkpt>
      <trkpt lat="28.95516" lon="-13.57355">
        <ele>-1.4</ele>
        <time>2021-07-02 12:17:47</time>
      </trkpt>
      <trkpt lat="28.95513" lon="-13.5735">
        <ele>-1.4</ele>
        <time>2021-07-02 12:17:48</time>
      </trkpt>
      <trkpt lat="28.95511" lon="-13.57345">
        <ele>-1.4</ele>
        <time>2021-07-02 12:17:49</time>
      </trkpt>
      <trkpt lat="28.95508" lon="-13.5734">
        <ele>-1.4</ele>
        <time>2021-07-02 12:17:50</time>
      </trkpt>
      <trkpt lat="28.95506" lon="-13.57335">
        <ele>-1.4</ele>
        <time>2021-07-02 12:17:51</time>
      </trkpt>
      <trkpt lat="28.95503" lon="-13.5733">
        <ele>-1.4</ele>
        <time>2021-07-02 12:17:52</time>
      </trkpt>
      <trkpt lat="28.95501" lon="-13.57325">
        <ele>-1.4</ele>
        <time>2021-07-02 12:17:53</time>
      </trkpt>
      <trkpt lat="28.95499" lon="-13.5732">
        <ele>-1.4</ele>
        <time>2021-07-02 12:17:54</time>
      </trkpt>
      <trkpt lat="28.95496" lon="-13.57315">
        <ele>-1.4</ele>
        <time>2021-07-02 12:17:55</time>
      </trkpt>
      <trkpt lat="28.95494" lon="-13.57309">
        <ele>-1.4</ele>
        <time>2021-07-02 12:17:56</time>
      </trkpt>
      <trkpt lat="28.95493" lon="-13.57304">
        <ele>-1.4</ele>
        <time>2021-07-02 12:17:57</time>
      </trkpt>
      <trkpt lat="28.95491" lon="-13.57299">
        <ele>-1.4</ele>
        <time>2021-07-02 12:17:58</time>
      </trkpt>
      <trkpt lat="28.9549" lon="-13.57293">
        <ele>-1.4</ele>
        <time>2021-07-02 12:17:59</time>
      </trkpt>
      <trkpt lat="28.95488" lon="-13.57287">
        <ele>-1.4</ele>
        <time>2021-07-02 12:18:00</time>
      </trkpt>
      <trkpt lat="28.95487" lon="-13.57282">
        <ele>-1.4</ele>
        <time>2021-07-02 12:18:01</time>
      </trkpt>
      <trkpt lat="28.95485" lon="-13.57277">
        <ele>-1.4</ele>
        <time>2021-07-02 12:18:02</time>
      </trkpt>
      <trkpt lat="28.95484" lon="-13.57271">
        <ele>-1.4</ele>
        <time>2021-07-02 12:18:03</time>
      </trkpt>
      <trkpt lat="28.95482" lon="-13.57266">
        <ele>-1.4</ele>
        <time>2021-07-02 12:18:04</time>
      </trkpt>
      <trkpt lat="28.9548" lon="-13.57261">
        <ele>-1.4</ele>
        <time>2021-07-02 12:18:05</time>
      </trkpt>
      <trkpt lat="28.95479" lon="-13.57255">
        <ele>-1.4</ele>
        <time>2021-07-02 12:18:06</time>
      </trkpt>
      <trkpt lat="28.95476" lon="-13.57249">
        <ele>-1.4</ele>
        <time>2021-07-02 12:18:07</time>
      </trkpt>
      <trkpt lat="28.95475" lon="-13.57244">
        <ele>-1.6</ele>
        <time>2021-07-02 12:18:08</time>
      </trkpt>
      <trkpt lat="28.95473" lon="-13.57239">
        <ele>-1.6</ele>
        <time>2021-07-02 12:18:09</time>
      </trkpt>
      <trkpt lat="28.95471" lon="-13.57233">
        <ele>-1.6</ele>
        <time>2021-07-02 12:18:10</time>
      </trkpt>
      <trkpt lat="28.9547" lon="-13.57227">
        <ele>-1.6</ele>
        <time>2021-07-02 12:18:11</time>
      </trkpt>
      <trkpt lat="28.9547" lon="-13.57221">
        <ele>-1.6</ele>
        <time>2021-07-02 12:18:12</time>
      </trkpt>
      <trkpt lat="28.95469" lon="-13.57215">
        <ele>-1.8</ele>
        <time>2021-07-02 12:18:13</time>
      </trkpt>
      <trkpt lat="28.95469" lon="-13.57211">
        <ele>-1.8</ele>
        <time>2021-07-02 12:18:14</time>
      </trkpt>
      <trkpt lat="28.95469" lon="-13.57205">
        <ele>-1.8</ele>
        <time>2021-07-02 12:18:15</time>
      </trkpt>
      <trkpt lat="28.95469" lon="-13.572">
        <ele>-2</ele>
        <time>2021-07-02 12:18:16</time>
      </trkpt>
      <trkpt lat="28.95469" lon="-13.57195">
        <ele>-2</ele>
        <time>2021-07-02 12:18:17</time>
      </trkpt>
      <trkpt lat="28.95469" lon="-13.5719">
        <ele>-2</ele>
        <time>2021-07-02 12:18:18</time>
      </trkpt>
      <trkpt lat="28.9547" lon="-13.57185">
        <ele>-2.2</ele>
        <time>2021-07-02 12:18:19</time>
      </trkpt>
      <trkpt lat="28.9547" lon="-13.57179">
        <ele>-2.2</ele>
        <time>2021-07-02 12:18:20</time>
      </trkpt>
      <trkpt lat="28.95471" lon="-13.57174">
        <ele>-2.2</ele>
        <time>2021-07-02 12:18:21</time>
      </trkpt>
      <trkpt lat="28.95471" lon="-13.57168">
        <ele>-2.6</ele>
        <time>2021-07-02 12:18:22</time>
      </trkpt>
      <trkpt lat="28.95471" lon="-13.57162">
        <ele>-2.6</ele>
        <time>2021-07-02 12:18:23</time>
      </trkpt>
      <trkpt lat="28.95472" lon="-13.57157">
        <ele>-2.6</ele>
        <time>2021-07-02 12:18:24</time>
      </trkpt>
      <trkpt lat="28.95472" lon="-13.57151">
        <ele>-2.6</ele>
        <time>2021-07-02 12:18:25</time>
      </trkpt>
      <trkpt lat="28.95472" lon="-13.57145">
        <ele>-2.6</ele>
        <time>2021-07-02 12:18:26</time>
      </trkpt>
      <trkpt lat="28.95472" lon="-13.57138">
        <ele>-2.6</ele>
        <time>2021-07-02 12:18:27</time>
      </trkpt>
      <trkpt lat="28.95473" lon="-13.57132">
        <ele>-2.6</ele>
        <time>2021-07-02 12:18:28</time>
      </trkpt>
      <trkpt lat="28.95473" lon="-13.57127">
        <ele>-2.6</ele>
        <time>2021-07-02 12:18:29</time>
      </trkpt>
      <trkpt lat="28.95474" lon="-13.57121">
        <ele>-2.6</ele>
        <time>2021-07-02 12:18:30</time>
      </trkpt>
      <trkpt lat="28.95474" lon="-13.57115">
        <ele>-2.6</ele>
        <time>2021-07-02 12:18:31</time>
      </trkpt>
      <trkpt lat="28.95474" lon="-13.5711">
        <ele>-2.6</ele>
        <time>2021-07-02 12:18:32</time>
      </trkpt>
      <trkpt lat="28.95473" lon="-13.57104">
        <ele>-2.6</ele>
        <time>2021-07-02 12:18:33</time>
      </trkpt>
      <trkpt lat="28.95471" lon="-13.57099">
        <ele>-2.6</ele>
        <time>2021-07-02 12:18:34</time>
      </trkpt>
      <trkpt lat="28.95468" lon="-13.57095">
        <ele>-2.6</ele>
        <time>2021-07-02 12:18:35</time>
      </trkpt>
      <trkpt lat="28.95464" lon="-13.57091">
        <ele>-2.6</ele>
        <time>2021-07-02 12:18:36</time>
      </trkpt>
      <trkpt lat="28.95459" lon="-13.57089">
        <ele>-2.6</ele>
        <time>2021-07-02 12:18:37</time>
      </trkpt>
      <trkpt lat="28.95456" lon="-13.57086">
        <ele>-2.6</ele>
        <time>2021-07-02 12:18:38</time>
      </trkpt>
      <trkpt lat="28.95452" lon="-13.57083">
        <ele>-2.6</ele>
        <time>2021-07-02 12:18:39</time>
      </trkpt>
      <trkpt lat="28.95448" lon="-13.57079">
        <ele>-2.4</ele>
        <time>2021-07-02 12:18:40</time>
      </trkpt>
      <trkpt lat="28.95445" lon="-13.57075">
        <ele>-2.4</ele>
        <time>2021-07-02 12:18:41</time>
      </trkpt>
      <trkpt lat="28.95442" lon="-13.5707">
        <ele>-2.4</ele>
        <time>2021-07-02 12:18:42</time>
      </trkpt>
      <trkpt lat="28.95441" lon="-13.57065">
        <ele>-2.4</ele>
        <time>2021-07-02 12:18:43</time>
      </trkpt>
      <trkpt lat="28.95439" lon="-13.5706">
        <ele>-2.4</ele>
        <time>2021-07-02 12:18:44</time>
      </trkpt>
      <trkpt lat="28.95437" lon="-13.57055">
        <ele>-2.4</ele>
        <time>2021-07-02 12:18:45</time>
      </trkpt>
      <trkpt lat="28.95435" lon="-13.57049">
        <ele>-2.4</ele>
        <time>2021-07-02 12:18:46</time>
      </trkpt>
      <trkpt lat="28.95433" lon="-13.57044">
        <ele>-2.4</ele>
        <time>2021-07-02 12:18:47</time>
      </trkpt>
      <trkpt lat="28.95431" lon="-13.57038">
        <ele>-2.4</ele>
        <time>2021-07-02 12:18:48</time>
      </trkpt>
      <trkpt lat="28.9543" lon="-13.57033">
        <ele>-2.6</ele>
        <time>2021-07-02 12:18:49</time>
      </trkpt>
      <trkpt lat="28.95429" lon="-13.57028">
        <ele>-2.6</ele>
        <time>2021-07-02 12:18:50</time>
      </trkpt>
      <trkpt lat="28.95427" lon="-13.57022">
        <ele>-2.6</ele>
        <time>2021-07-02 12:18:51</time>
      </trkpt>
      <trkpt lat="28.95426" lon="-13.57017">
        <ele>-2.6</ele>
        <time>2021-07-02 12:18:52</time>
      </trkpt>
      <trkpt lat="28.95424" lon="-13.57011">
        <ele>-2.6</ele>
        <time>2021-07-02 12:18:53</time>
      </trkpt>
      <trkpt lat="28.95423" lon="-13.57006">
        <ele>-2.6</ele>
        <time>2021-07-02 12:18:54</time>
      </trkpt>
      <trkpt lat="28.95421" lon="-13.57">
        <ele>-2.6</ele>
        <time>2021-07-02 12:18:55</time>
      </trkpt>
      <trkpt lat="28.9542" lon="-13.56994">
        <ele>-2.6</ele>
        <time>2021-07-02 12:18:56</time>
      </trkpt>
      <trkpt lat="28.95419" lon="-13.56988">
        <ele>-2.6</ele>
        <time>2021-07-02 12:18:57</time>
      </trkpt>
      <trkpt lat="28.95418" lon="-13.56983">
        <ele>-2.6</ele>
        <time>2021-07-02 12:18:58</time>
      </trkpt>
      <trkpt lat="28.95416" lon="-13.56978">
        <ele>-2.6</ele>
        <time>2021-07-02 12:18:59</time>
      </trkpt>
      <trkpt lat="28.95415" lon="-13.56972">
        <ele>-2.6</ele>
        <time>2021-07-02 12:19:00</time>
      </trkpt>
      <trkpt lat="28.95414" lon="-13.56966">
        <ele>-2.6</ele>
        <time>2021-07-02 12:19:01</time>
      </trkpt>
      <trkpt lat="28.95413" lon="-13.5696">
        <ele>-2.6</ele>
        <time>2021-07-02 12:19:02</time>
      </trkpt>
      <trkpt lat="28.95412" lon="-13.56954">
        <ele>-2.6</ele>
        <time>2021-07-02 12:19:03</time>
      </trkpt>
      <trkpt lat="28.95411" lon="-13.56949">
        <ele>-2.6</ele>
        <time>2021-07-02 12:19:04</time>
      </trkpt>
      <trkpt lat="28.9541" lon="-13.56943">
        <ele>-3</ele>
        <time>2021-07-02 12:19:05</time>
      </trkpt>
      <trkpt lat="28.95409" lon="-13.56938">
        <ele>-2.6</ele>
        <time>2021-07-02 12:19:06</time>
      </trkpt>
      <trkpt lat="28.95409" lon="-13.56932">
        <ele>-2.6</ele>
        <time>2021-07-02 12:19:07</time>
      </trkpt>
      <trkpt lat="28.95408" lon="-13.56926">
        <ele>-2.6</ele>
        <time>2021-07-02 12:19:08</time>
      </trkpt>
      <trkpt lat="28.95409" lon="-13.56921">
        <ele>-2.6</ele>
        <time>2021-07-02 12:19:09</time>
      </trkpt>
      <trkpt lat="28.95409" lon="-13.56915">
        <ele>-2.6</ele>
        <time>2021-07-02 12:19:10</time>
      </trkpt>
      <trkpt lat="28.95409" lon="-13.5691">
        <ele>-3</ele>
        <time>2021-07-02 12:19:11</time>
      </trkpt>
      <trkpt lat="28.95409" lon="-13.56904">
        <ele>-3</ele>
        <time>2021-07-02 12:19:12</time>
      </trkpt>
      <trkpt lat="28.95409" lon="-13.56899">
        <ele>-3</ele>
        <time>2021-07-02 12:19:13</time>
      </trkpt>
      <trkpt lat="28.9541" lon="-13.56894">
        <ele>-3</ele>
        <time>2021-07-02 12:19:14</time>
      </trkpt>
      <trkpt lat="28.9541" lon="-13.56888">
        <ele>-3</ele>
        <time>2021-07-02 12:19:15</time>
      </trkpt>
      <trkpt lat="28.95411" lon="-13.56882">
        <ele>-2.6</ele>
        <time>2021-07-02 12:19:16</time>
      </trkpt>
      <trkpt lat="28.95411" lon="-13.56877">
        <ele>-2.6</ele>
        <time>2021-07-02 12:19:17</time>
      </trkpt>
      <trkpt lat="28.95412" lon="-13.56871">
        <ele>-2.4</ele>
        <time>2021-07-02 12:19:18</time>
      </trkpt>
      <trkpt lat="28.95413" lon="-13.56866">
        <ele>-2.4</ele>
        <time>2021-07-02 12:19:19</time>
      </trkpt>
      <trkpt lat="28.95414" lon="-13.5686">
        <ele>-2.2</ele>
        <time>2021-07-02 12:19:20</time>
      </trkpt>
      <trkpt lat="28.95415" lon="-13.56854">
        <ele>-2.2</ele>
        <time>2021-07-02 12:19:21</time>
      </trkpt>
      <trkpt lat="28.95416" lon="-13.56849">
        <ele>-2</ele>
        <time>2021-07-02 12:19:22</time>
      </trkpt>
      <trkpt lat="28.95417" lon="-13.56844">
        <ele>-2</ele>
        <time>2021-07-02 12:19:23</time>
      </trkpt>
      <trkpt lat="28.95418" lon="-13.56838">
        <ele>-1.6</ele>
        <time>2021-07-02 12:19:24</time>
      </trkpt>
      <trkpt lat="28.95419" lon="-13.56833">
        <ele>-1.6</ele>
        <time>2021-07-02 12:19:25</time>
      </trkpt>
      <trkpt lat="28.95421" lon="-13.56827">
        <ele>-1.4</ele>
        <time>2021-07-02 12:19:26</time>
      </trkpt>
      <trkpt lat="28.95422" lon="-13.56822">
        <ele>-1.4</ele>
        <time>2021-07-02 12:19:27</time>
      </trkpt>
      <trkpt lat="28.95424" lon="-13.56817">
        <ele>-1.4</ele>
        <time>2021-07-02 12:19:28</time>
      </trkpt>
      <trkpt lat="28.95425" lon="-13.56811">
        <ele>-1.2</ele>
        <time>2021-07-02 12:19:29</time>
      </trkpt>
      <trkpt lat="28.95426" lon="-13.56806">
        <ele>-1.2</ele>
        <time>2021-07-02 12:19:30</time>
      </trkpt>
      <trkpt lat="28.95428" lon="-13.568">
        <ele>-1.2</ele>
        <time>2021-07-02 12:19:31</time>
      </trkpt>
      <trkpt lat="28.95429" lon="-13.56795">
        <ele>-1.2</ele>
        <time>2021-07-02 12:19:32</time>
      </trkpt>
      <trkpt lat="28.9543" lon="-13.5679">
        <ele>-1.2</ele>
        <time>2021-07-02 12:19:33</time>
      </trkpt>
      <trkpt lat="28.95431" lon="-13.56784">
        <ele>-1.2</ele>
        <time>2021-07-02 12:19:34</time>
      </trkpt>
      <trkpt lat="28.95432" lon="-13.56779">
        <ele>-1.2</ele>
        <time>2021-07-02 12:19:35</time>
      </trkpt>
      <trkpt lat="28.95433" lon="-13.56773">
        <ele>-1.2</ele>
        <time>2021-07-02 12:19:36</time>
      </trkpt>
      <trkpt lat="28.95433" lon="-13.56767">
        <ele>-1.2</ele>
        <time>2021-07-02 12:19:37</time>
      </trkpt>
      <trkpt lat="28.95434" lon="-13.56762">
        <ele>-1.2</ele>
        <time>2021-07-02 12:19:38</time>
      </trkpt>
      <trkpt lat="28.95435" lon="-13.56756">
        <ele>-1.2</ele>
        <time>2021-07-02 12:19:39</time>
      </trkpt>
      <trkpt lat="28.95436" lon="-13.5675">
        <ele>-1.2</ele>
        <time>2021-07-02 12:19:40</time>
      </trkpt>
      <trkpt lat="28.95437" lon="-13.56745">
        <ele>-1.4</ele>
        <time>2021-07-02 12:19:41</time>
      </trkpt>
      <trkpt lat="28.95437" lon="-13.56739">
        <ele>-1.4</ele>
        <time>2021-07-02 12:19:42</time>
      </trkpt>
      <trkpt lat="28.95438" lon="-13.56733">
        <ele>-1.4</ele>
        <time>2021-07-02 12:19:43</time>
      </trkpt>
      <trkpt lat="28.95438" lon="-13.56727">
        <ele>-1.4</ele>
        <time>2021-07-02 12:19:44</time>
      </trkpt>
      <trkpt lat="28.95439" lon="-13.56722">
        <ele>-1.2</ele>
        <time>2021-07-02 12:19:45</time>
      </trkpt>
      <trkpt lat="28.95439" lon="-13.56717">
        <ele>-1</ele>
        <time>2021-07-02 12:19:46</time>
      </trkpt>
      <trkpt lat="28.9544" lon="-13.5671">
        <ele>-0.8</ele>
        <time>2021-07-02 12:19:47</time>
      </trkpt>
      <trkpt lat="28.95442" lon="-13.56705">
        <ele>-0.8</ele>
        <time>2021-07-02 12:19:48</time>
      </trkpt>
      <trkpt lat="28.95442" lon="-13.56699">
        <ele>-0.8</ele>
        <time>2021-07-02 12:19:49</time>
      </trkpt>
      <trkpt lat="28.95443" lon="-13.56694">
        <ele>-0.8</ele>
        <time>2021-07-02 12:19:50</time>
      </trkpt>
      <trkpt lat="28.95443" lon="-13.56688">
        <ele>-0.8</ele>
        <time>2021-07-02 12:19:51</time>
      </trkpt>
      <trkpt lat="28.95443" lon="-13.56682">
        <ele>-0.8</ele>
        <time>2021-07-02 12:19:52</time>
      </trkpt>
      <trkpt lat="28.95444" lon="-13.56676">
        <ele>-0.8</ele>
        <time>2021-07-02 12:19:53</time>
      </trkpt>
      <trkpt lat="28.95444" lon="-13.5667">
        <ele>-0.8</ele>
        <time>2021-07-02 12:19:54</time>
      </trkpt>
      <trkpt lat="28.95445" lon="-13.56664">
        <ele>-0.8</ele>
        <time>2021-07-02 12:19:55</time>
      </trkpt>
      <trkpt lat="28.95445" lon="-13.56658">
        <ele>-0.8</ele>
        <time>2021-07-02 12:19:56</time>
      </trkpt>
      <trkpt lat="28.95446" lon="-13.56652">
        <ele>-0.8</ele>
        <time>2021-07-02 12:19:57</time>
      </trkpt>
      <trkpt lat="28.95446" lon="-13.56646">
        <ele>-0.8</ele>
        <time>2021-07-02 12:19:58</time>
      </trkpt>
      <trkpt lat="28.95446" lon="-13.56639">
        <ele>-0.8</ele>
        <time>2021-07-02 12:19:59</time>
      </trkpt>
      <trkpt lat="28.95447" lon="-13.56633">
        <ele>-0.8</ele>
        <time>2021-07-02 12:20:00</time>
      </trkpt>
      <trkpt lat="28.95447" lon="-13.56627">
        <ele>-1</ele>
        <time>2021-07-02 12:20:01</time>
      </trkpt>
      <trkpt lat="28.95448" lon="-13.5662">
        <ele>-1</ele>
        <time>2021-07-02 12:20:02</time>
      </trkpt>
      <trkpt lat="28.95448" lon="-13.56614">
        <ele>-1</ele>
        <time>2021-07-02 12:20:03</time>
      </trkpt>
      <trkpt lat="28.95449" lon="-13.56608">
        <ele>-1.2</ele>
        <time>2021-07-02 12:20:04</time>
      </trkpt>
      <trkpt lat="28.9545" lon="-13.56602">
        <ele>-1.2</ele>
        <time>2021-07-02 12:20:05</time>
      </trkpt>
      <trkpt lat="28.9545" lon="-13.56596">
        <ele>-1.2</ele>
        <time>2021-07-02 12:20:06</time>
      </trkpt>
      <trkpt lat="28.95452" lon="-13.5659">
        <ele>-1.4</ele>
        <time>2021-07-02 12:20:07</time>
      </trkpt>
      <trkpt lat="28.95454" lon="-13.56584">
        <ele>-1.4</ele>
        <time>2021-07-02 12:20:08</time>
      </trkpt>
      <trkpt lat="28.95457" lon="-13.56577">
        <ele>-1.4</ele>
        <time>2021-07-02 12:20:09</time>
      </trkpt>
      <trkpt lat="28.95459" lon="-13.56572">
        <ele>-1.6</ele>
        <time>2021-07-02 12:20:10</time>
      </trkpt>
      <trkpt lat="28.95461" lon="-13.56566">
        <ele>-1.6</ele>
        <time>2021-07-02 12:20:11</time>
      </trkpt>
      <trkpt lat="28.95464" lon="-13.56561">
        <ele>-1.6</ele>
        <time>2021-07-02 12:20:12</time>
      </trkpt>
      <trkpt lat="28.95467" lon="-13.56556">
        <ele>-1.6</ele>
        <time>2021-07-02 12:20:13</time>
      </trkpt>
      <trkpt lat="28.9547" lon="-13.56551">
        <ele>-1.6</ele>
        <time>2021-07-02 12:20:14</time>
      </trkpt>
      <trkpt lat="28.95473" lon="-13.56546">
        <ele>-1.6</ele>
        <time>2021-07-02 12:20:15</time>
      </trkpt>
      <trkpt lat="28.95475" lon="-13.56541">
        <ele>-1.6</ele>
        <time>2021-07-02 12:20:16</time>
      </trkpt>
      <trkpt lat="28.95478" lon="-13.56536">
        <ele>-1.8</ele>
        <time>2021-07-02 12:20:17</time>
      </trkpt>
      <trkpt lat="28.95482" lon="-13.56532">
        <ele>-1.8</ele>
        <time>2021-07-02 12:20:18</time>
      </trkpt>
      <trkpt lat="28.95484" lon="-13.56527">
        <ele>-1.8</ele>
        <time>2021-07-02 12:20:19</time>
      </trkpt>
      <trkpt lat="28.95487" lon="-13.56523">
        <ele>-1.8</ele>
        <time>2021-07-02 12:20:20</time>
      </trkpt>
      <trkpt lat="28.9549" lon="-13.56519">
        <ele>-1.8</ele>
        <time>2021-07-02 12:20:21</time>
      </trkpt>
      <trkpt lat="28.95493" lon="-13.56514">
        <ele>-1.8</ele>
        <time>2021-07-02 12:20:22</time>
      </trkpt>
      <trkpt lat="28.95496" lon="-13.5651">
        <ele>-1.8</ele>
        <time>2021-07-02 12:20:23</time>
      </trkpt>
      <trkpt lat="28.95499" lon="-13.56506">
        <ele>-1.8</ele>
        <time>2021-07-02 12:20:24</time>
      </trkpt>
      <trkpt lat="28.95502" lon="-13.56502">
        <ele>-1.8</ele>
        <time>2021-07-02 12:20:25</time>
      </trkpt>
      <trkpt lat="28.95506" lon="-13.56497">
        <ele>-1.8</ele>
        <time>2021-07-02 12:20:26</time>
      </trkpt>
      <trkpt lat="28.95508" lon="-13.56493">
        <ele>-1.8</ele>
        <time>2021-07-02 12:20:27</time>
      </trkpt>
      <trkpt lat="28.95511" lon="-13.56489">
        <ele>-1.8</ele>
        <time>2021-07-02 12:20:28</time>
      </trkpt>
      <trkpt lat="28.95514" lon="-13.56485">
        <ele>-1.8</ele>
        <time>2021-07-02 12:20:29</time>
      </trkpt>
      <trkpt lat="28.95517" lon="-13.56481">
        <ele>-1.8</ele>
        <time>2021-07-02 12:20:30</time>
      </trkpt>
      <trkpt lat="28.95521" lon="-13.56477">
        <ele>-1.8</ele>
        <time>2021-07-02 12:20:31</time>
      </trkpt>
      <trkpt lat="28.95524" lon="-13.56473">
        <ele>-1.8</ele>
        <time>2021-07-02 12:20:32</time>
      </trkpt>
      <trkpt lat="28.95528" lon="-13.5647">
        <ele>-1.8</ele>
        <time>2021-07-02 12:20:33</time>
      </trkpt>
      <trkpt lat="28.9553" lon="-13.56466">
        <ele>-1.8</ele>
        <time>2021-07-02 12:20:34</time>
      </trkpt>
      <trkpt lat="28.95534" lon="-13.56462">
        <ele>-1.8</ele>
        <time>2021-07-02 12:20:35</time>
      </trkpt>
      <trkpt lat="28.95537" lon="-13.56458">
        <ele>-1.8</ele>
        <time>2021-07-02 12:20:36</time>
      </trkpt>
      <trkpt lat="28.95541" lon="-13.56454">
        <ele>-1.8</ele>
        <time>2021-07-02 12:20:37</time>
      </trkpt>
      <trkpt lat="28.95544" lon="-13.5645">
        <ele>-1.8</ele>
        <time>2021-07-02 12:20:38</time>
      </trkpt>
      <trkpt lat="28.95547" lon="-13.56445">
        <ele>-1.8</ele>
        <time>2021-07-02 12:20:39</time>
      </trkpt>
      <trkpt lat="28.95551" lon="-13.56441">
        <ele>-1.8</ele>
        <time>2021-07-02 12:20:40</time>
      </trkpt>
      <trkpt lat="28.95554" lon="-13.56437">
        <ele>-2</ele>
        <time>2021-07-02 12:20:41</time>
      </trkpt>
      <trkpt lat="28.95558" lon="-13.56433">
        <ele>-2</ele>
        <time>2021-07-02 12:20:42</time>
      </trkpt>
      <trkpt lat="28.95561" lon="-13.56428">
        <ele>-2</ele>
        <time>2021-07-02 12:20:43</time>
      </trkpt>
      <trkpt lat="28.95564" lon="-13.56424">
        <ele>-2</ele>
        <time>2021-07-02 12:20:44</time>
      </trkpt>
      <trkpt lat="28.95568" lon="-13.56419">
        <ele>-2</ele>
        <time>2021-07-02 12:20:45</time>
      </trkpt>
      <trkpt lat="28.95571" lon="-13.56414">
        <ele>-2.4</ele>
        <time>2021-07-02 12:20:46</time>
      </trkpt>
      <trkpt lat="28.95574" lon="-13.56409">
        <ele>-2.4</ele>
        <time>2021-07-02 12:20:47</time>
      </trkpt>
      <trkpt lat="28.95577" lon="-13.56405">
        <ele>-2.4</ele>
        <time>2021-07-02 12:20:48</time>
      </trkpt>
      <trkpt lat="28.9558" lon="-13.56399">
        <ele>-2.4</ele>
        <time>2021-07-02 12:20:49</time>
      </trkpt>
      <trkpt lat="28.95582" lon="-13.56394">
        <ele>-2.4</ele>
        <time>2021-07-02 12:20:50</time>
      </trkpt>
      <trkpt lat="28.95585" lon="-13.56389">
        <ele>-2.4</ele>
        <time>2021-07-02 12:20:51</time>
      </trkpt>
      <trkpt lat="28.95588" lon="-13.56384">
        <ele>-2.4</ele>
        <time>2021-07-02 12:20:52</time>
      </trkpt>
      <trkpt lat="28.9559" lon="-13.56378">
        <ele>-2.6</ele>
        <time>2021-07-02 12:20:53</time>
      </trkpt>
      <trkpt lat="28.95593" lon="-13.56372">
        <ele>-2.6</ele>
        <time>2021-07-02 12:20:54</time>
      </trkpt>
      <trkpt lat="28.95594" lon="-13.56367">
        <ele>-2.6</ele>
        <time>2021-07-02 12:20:55</time>
      </trkpt>
      <trkpt lat="28.95596" lon="-13.56361">
        <ele>-2.6</ele>
        <time>2021-07-02 12:20:56</time>
      </trkpt>
      <trkpt lat="28.95598" lon="-13.56355">
        <ele>-2.6</ele>
        <time>2021-07-02 12:20:57</time>
      </trkpt>
      <trkpt lat="28.956" lon="-13.56349">
        <ele>-2.6</ele>
        <time>2021-07-02 12:20:58</time>
      </trkpt>
      <trkpt lat="28.95601" lon="-13.56344">
        <ele>-2.6</ele>
        <time>2021-07-02 12:20:59</time>
      </trkpt>
      <trkpt lat="28.95602" lon="-13.56338">
        <ele>-2.8</ele>
        <time>2021-07-02 12:21:00</time>
      </trkpt>
      <trkpt lat="28.95603" lon="-13.56332">
        <ele>-2.8</ele>
        <time>2021-07-02 12:21:01</time>
      </trkpt>
      <trkpt lat="28.95604" lon="-13.56326">
        <ele>-2.8</ele>
        <time>2021-07-02 12:21:02</time>
      </trkpt>
      <trkpt lat="28.95604" lon="-13.5632">
        <ele>-2.8</ele>
        <time>2021-07-02 12:21:03</time>
      </trkpt>
      <trkpt lat="28.95605" lon="-13.56314">
        <ele>-2.8</ele>
        <time>2021-07-02 12:21:04</time>
      </trkpt>
      <trkpt lat="28.95605" lon="-13.56308">
        <ele>-2.8</ele>
        <time>2021-07-02 12:21:05</time>
      </trkpt>
      <trkpt lat="28.95606" lon="-13.56302">
        <ele>-2.8</ele>
        <time>2021-07-02 12:21:06</time>
      </trkpt>
      <trkpt lat="28.95606" lon="-13.56297">
        <ele>-3</ele>
        <time>2021-07-02 12:21:07</time>
      </trkpt>
      <trkpt lat="28.95606" lon="-13.56291">
        <ele>-3</ele>
        <time>2021-07-02 12:21:08</time>
      </trkpt>
      <trkpt lat="28.95607" lon="-13.56285">
        <ele>-3</ele>
        <time>2021-07-02 12:21:09</time>
      </trkpt>
      <trkpt lat="28.95607" lon="-13.56279">
        <ele>-3</ele>
        <time>2021-07-02 12:21:10</time>
      </trkpt>
      <trkpt lat="28.95607" lon="-13.56274">
        <ele>-3</ele>
        <time>2021-07-02 12:21:11</time>
      </trkpt>
      <trkpt lat="28.95607" lon="-13.56268">
        <ele>-3</ele>
        <time>2021-07-02 12:21:12</time>
      </trkpt>
      <trkpt lat="28.95607" lon="-13.56261">
        <ele>-3</ele>
        <time>2021-07-02 12:21:13</time>
      </trkpt>
      <trkpt lat="28.95607" lon="-13.56255">
        <ele>-3.2</ele>
        <time>2021-07-02 12:21:14</time>
      </trkpt>
      <trkpt lat="28.95608" lon="-13.56249">
        <ele>-3.2</ele>
        <time>2021-07-02 12:21:15</time>
      </trkpt>
      <trkpt lat="28.95608" lon="-13.56243">
        <ele>-3.2</ele>
        <time>2021-07-02 12:21:16</time>
      </trkpt>
      <trkpt lat="28.95608" lon="-13.56237">
        <ele>-3.2</ele>
        <time>2021-07-02 12:21:17</time>
      </trkpt>
      <trkpt lat="28.95608" lon="-13.56231">
        <ele>-3.2</ele>
        <time>2021-07-02 12:21:18</time>
      </trkpt>
      <trkpt lat="28.95608" lon="-13.56225">
        <ele>-3.2</ele>
        <time>2021-07-02 12:21:19</time>
      </trkpt>
      <trkpt lat="28.95608" lon="-13.56219">
        <ele>-3.2</ele>
        <time>2021-07-02 12:21:20</time>
      </trkpt>
      <trkpt lat="28.95608" lon="-13.56213">
        <ele>-3.2</ele>
        <time>2021-07-02 12:21:21</time>
      </trkpt>
      <trkpt lat="28.95608" lon="-13.56208">
        <ele>-3.2</ele>
        <time>2021-07-02 12:21:22</time>
      </trkpt>
      <trkpt lat="28.95608" lon="-13.56202">
        <ele>-3.2</ele>
        <time>2021-07-02 12:21:23</time>
      </trkpt>
      <trkpt lat="28.95608" lon="-13.56195">
        <ele>-3.2</ele>
        <time>2021-07-02 12:21:24</time>
      </trkpt>
      <trkpt lat="28.95608" lon="-13.56189">
        <ele>-3.2</ele>
        <time>2021-07-02 12:21:25</time>
      </trkpt>
      <trkpt lat="28.95609" lon="-13.56183">
        <ele>-3.4</ele>
        <time>2021-07-02 12:21:26</time>
      </trkpt>
      <trkpt lat="28.95609" lon="-13.56177">
        <ele>-3.4</ele>
        <time>2021-07-02 12:21:27</time>
      </trkpt>
      <trkpt lat="28.9561" lon="-13.56171">
        <ele>-3.6</ele>
        <time>2021-07-02 12:21:28</time>
      </trkpt>
      <trkpt lat="28.9561" lon="-13.56165">
        <ele>-3.6</ele>
        <time>2021-07-02 12:21:29</time>
      </trkpt>
      <trkpt lat="28.9561" lon="-13.5616">
        <ele>-4</ele>
        <time>2021-07-02 12:21:30</time>
      </trkpt>
      <trkpt lat="28.95611" lon="-13.56154">
        <ele>-4.2</ele>
        <time>2021-07-02 12:21:31</time>
      </trkpt>
      <trkpt lat="28.95612" lon="-13.56148">
        <ele>-4.2</ele>
        <time>2021-07-02 12:21:32</time>
      </trkpt>
      <trkpt lat="28.95613" lon="-13.56142">
        <ele>-4.4</ele>
        <time>2021-07-02 12:21:33</time>
      </trkpt>
      <trkpt lat="28.95613" lon="-13.56136">
        <ele>-4.4</ele>
        <time>2021-07-02 12:21:34</time>
      </trkpt>
      <trkpt lat="28.95614" lon="-13.5613">
        <ele>-4.4</ele>
        <time>2021-07-02 12:21:35</time>
      </trkpt>
      <trkpt lat="28.95615" lon="-13.56124">
        <ele>-4.4</ele>
        <time>2021-07-02 12:21:36</time>
      </trkpt>
      <trkpt lat="28.95616" lon="-13.56119">
        <ele>-4.4</ele>
        <time>2021-07-02 12:21:37</time>
      </trkpt>
      <trkpt lat="28.95616" lon="-13.56113">
        <ele>-4.4</ele>
        <time>2021-07-02 12:21:38</time>
      </trkpt>
      <trkpt lat="28.95617" lon="-13.56107">
        <ele>-4.4</ele>
        <time>2021-07-02 12:21:39</time>
      </trkpt>
      <trkpt lat="28.95618" lon="-13.56101">
        <ele>-4.4</ele>
        <time>2021-07-02 12:21:40</time>
      </trkpt>
      <trkpt lat="28.95619" lon="-13.56095">
        <ele>-4.4</ele>
        <time>2021-07-02 12:21:41</time>
      </trkpt>
      <trkpt lat="28.9562" lon="-13.5609">
        <ele>-4.4</ele>
        <time>2021-07-02 12:21:42</time>
      </trkpt>
      <trkpt lat="28.9562" lon="-13.56084">
        <ele>-4.4</ele>
        <time>2021-07-02 12:21:43</time>
      </trkpt>
      <trkpt lat="28.95621" lon="-13.56078">
        <ele>-4.4</ele>
        <time>2021-07-02 12:21:44</time>
      </trkpt>
      <trkpt lat="28.95622" lon="-13.56072">
        <ele>-4.4</ele>
        <time>2021-07-02 12:21:45</time>
      </trkpt>
      <trkpt lat="28.95623" lon="-13.56067">
        <ele>-4.2</ele>
        <time>2021-07-02 12:21:46</time>
      </trkpt>
      <trkpt lat="28.95624" lon="-13.56061">
        <ele>-4.2</ele>
        <time>2021-07-02 12:21:47</time>
      </trkpt>
      <trkpt lat="28.95625" lon="-13.56056">
        <ele>-4.2</ele>
        <time>2021-07-02 12:21:48</time>
      </trkpt>
      <trkpt lat="28.95625" lon="-13.5605">
        <ele>-4.2</ele>
        <time>2021-07-02 12:21:49</time>
      </trkpt>
      <trkpt lat="28.95625" lon="-13.56045">
        <ele>-4.2</ele>
        <time>2021-07-02 12:21:50</time>
      </trkpt>
      <trkpt lat="28.95626" lon="-13.5604">
        <ele>-4.2</ele>
        <time>2021-07-02 12:21:51</time>
      </trkpt>
      <trkpt lat="28.95626" lon="-13.56035">
        <ele>-4.2</ele>
        <time>2021-07-02 12:21:52</time>
      </trkpt>
      <trkpt lat="28.95626" lon="-13.5603">
        <ele>-4.6</ele>
        <time>2021-07-02 12:21:53</time>
      </trkpt>
      <trkpt lat="28.95629" lon="-13.56027">
        <ele>-4.6</ele>
        <time>2021-07-02 12:21:54</time>
      </trkpt>
      <trkpt lat="28.95632" lon="-13.56025">
        <ele>-4.6</ele>
        <time>2021-07-02 12:21:55</time>
      </trkpt>
      <trkpt lat="28.95636" lon="-13.56025">
        <ele>-4.6</ele>
        <time>2021-07-02 12:21:56</time>
      </trkpt>
      <trkpt lat="28.9564" lon="-13.56025">
        <ele>-4.8</ele>
        <time>2021-07-02 12:21:57</time>
      </trkpt>
      <trkpt lat="28.95644" lon="-13.56026">
        <ele>-4.8</ele>
        <time>2021-07-02 12:21:58</time>
      </trkpt>
      <trkpt lat="28.95648" lon="-13.56027">
        <ele>-4.8</ele>
        <time>2021-07-02 12:21:59</time>
      </trkpt>
      <trkpt lat="28.95652" lon="-13.56028">
        <ele>-4.8</ele>
        <time>2021-07-02 12:22:00</time>
      </trkpt>
      <trkpt lat="28.95656" lon="-13.56029">
        <ele>-4.8</ele>
        <time>2021-07-02 12:22:01</time>
      </trkpt>
      <trkpt lat="28.9566" lon="-13.56031">
        <ele>-4.8</ele>
        <time>2021-07-02 12:22:02</time>
      </trkpt>
      <trkpt lat="28.95664" lon="-13.56032">
        <ele>-4.8</ele>
        <time>2021-07-02 12:22:03</time>
      </trkpt>
      <trkpt lat="28.95669" lon="-13.56034">
        <ele>-4.8</ele>
        <time>2021-07-02 12:22:04</time>
      </trkpt>
      <trkpt lat="28.95672" lon="-13.56036">
        <ele>-4.8</ele>
        <time>2021-07-02 12:22:05</time>
      </trkpt>
      <trkpt lat="28.95675" lon="-13.5604">
        <ele>-4.8</ele>
        <time>2021-07-02 12:22:06</time>
      </trkpt>
      <trkpt lat="28.95679" lon="-13.56044">
        <ele>-4.8</ele>
        <time>2021-07-02 12:22:07</time>
      </trkpt>
      <trkpt lat="28.95682" lon="-13.56048">
        <ele>-4.8</ele>
        <time>2021-07-02 12:22:08</time>
      </trkpt>
      <trkpt lat="28.95685" lon="-13.56052">
        <ele>-4.8</ele>
        <time>2021-07-02 12:22:09</time>
      </trkpt>
      <trkpt lat="28.95688" lon="-13.56056">
        <ele>-4.4</ele>
        <time>2021-07-02 12:22:10</time>
      </trkpt>
      <trkpt lat="28.95691" lon="-13.5606">
        <ele>-4.4</ele>
        <time>2021-07-02 12:22:11</time>
      </trkpt>
      <trkpt lat="28.95694" lon="-13.56063">
        <ele>-4.2</ele>
        <time>2021-07-02 12:22:12</time>
      </trkpt>
      <trkpt lat="28.95698" lon="-13.56067">
        <ele>-4.2</ele>
        <time>2021-07-02 12:22:13</time>
      </trkpt>
      <trkpt lat="28.95701" lon="-13.5607">
        <ele>-4.2</ele>
        <time>2021-07-02 12:22:14</time>
      </trkpt>
      <trkpt lat="28.95704" lon="-13.56074">
        <ele>-4</ele>
        <time>2021-07-02 12:22:15</time>
      </trkpt>
      <trkpt lat="28.95708" lon="-13.56077">
        <ele>-4</ele>
        <time>2021-07-02 12:22:16</time>
      </trkpt>
      <trkpt lat="28.95712" lon="-13.5608">
        <ele>-4</ele>
        <time>2021-07-02 12:22:17</time>
      </trkpt>
      <trkpt lat="28.95716" lon="-13.56083">
        <ele>-4</ele>
        <time>2021-07-02 12:22:18</time>
      </trkpt>
      <trkpt lat="28.9572" lon="-13.56085">
        <ele>-4</ele>
        <time>2021-07-02 12:22:19</time>
      </trkpt>
      <trkpt lat="28.95724" lon="-13.56087">
        <ele>-4</ele>
        <time>2021-07-02 12:22:20</time>
      </trkpt>
      <trkpt lat="28.95729" lon="-13.56089">
        <ele>-3.8</ele>
        <time>2021-07-02 12:22:21</time>
      </trkpt>
      <trkpt lat="28.95733" lon="-13.56091">
        <ele>-3.8</ele>
        <time>2021-07-02 12:22:22</time>
      </trkpt>
      <trkpt lat="28.95737" lon="-13.56092">
        <ele>-3.8</ele>
        <time>2021-07-02 12:22:23</time>
      </trkpt>
      <trkpt lat="28.95742" lon="-13.56093">
        <ele>-3.8</ele>
        <time>2021-07-02 12:22:24</time>
      </trkpt>
      <trkpt lat="28.95747" lon="-13.56094">
        <ele>-3.8</ele>
        <time>2021-07-02 12:22:25</time>
      </trkpt>
      <trkpt lat="28.95751" lon="-13.56094">
        <ele>-3.4</ele>
        <time>2021-07-02 12:22:26</time>
      </trkpt>
      <trkpt lat="28.95755" lon="-13.56094">
        <ele>-3.4</ele>
        <time>2021-07-02 12:22:27</time>
      </trkpt>
      <trkpt lat="28.9576" lon="-13.56094">
        <ele>-3.4</ele>
        <time>2021-07-02 12:22:28</time>
      </trkpt>
      <trkpt lat="28.95765" lon="-13.56094">
        <ele>-3.4</ele>
        <time>2021-07-02 12:22:29</time>
      </trkpt>
      <trkpt lat="28.95769" lon="-13.56093">
        <ele>-3.6</ele>
        <time>2021-07-02 12:22:30</time>
      </trkpt>
      <trkpt lat="28.95773" lon="-13.56091">
        <ele>-3.6</ele>
        <time>2021-07-02 12:22:31</time>
      </trkpt>
      <trkpt lat="28.95777" lon="-13.5609">
        <ele>-3.6</ele>
        <time>2021-07-02 12:22:32</time>
      </trkpt>
      <trkpt lat="28.95781" lon="-13.56087">
        <ele>-3.6</ele>
        <time>2021-07-02 12:22:33</time>
      </trkpt>
      <trkpt lat="28.95785" lon="-13.56084">
        <ele>-3.6</ele>
        <time>2021-07-02 12:22:34</time>
      </trkpt>
      <trkpt lat="28.95788" lon="-13.56081">
        <ele>-3.6</ele>
        <time>2021-07-02 12:22:35</time>
      </trkpt>
      <trkpt lat="28.95792" lon="-13.56078">
        <ele>-3.6</ele>
        <time>2021-07-02 12:22:36</time>
      </trkpt>
      <trkpt lat="28.95795" lon="-13.56075">
        <ele>-3.6</ele>
        <time>2021-07-02 12:22:37</time>
      </trkpt>
      <trkpt lat="28.95798" lon="-13.5607">
        <ele>-3.6</ele>
        <time>2021-07-02 12:22:38</time>
      </trkpt>
      <trkpt lat="28.95801" lon="-13.56066">
        <ele>-3.6</ele>
        <time>2021-07-02 12:22:39</time>
      </trkpt>
      <trkpt lat="28.95804" lon="-13.56062">
        <ele>-3.6</ele>
        <time>2021-07-02 12:22:40</time>
      </trkpt>
      <trkpt lat="28.95807" lon="-13.56059">
        <ele>-3.6</ele>
        <time>2021-07-02 12:22:41</time>
      </trkpt>
      <trkpt lat="28.95809" lon="-13.56054">
        <ele>-3.8</ele>
        <time>2021-07-02 12:22:42</time>
      </trkpt>
      <trkpt lat="28.95812" lon="-13.5605">
        <ele>-3.8</ele>
        <time>2021-07-02 12:22:43</time>
      </trkpt>
      <trkpt lat="28.95815" lon="-13.56046">
        <ele>-3.8</ele>
        <time>2021-07-02 12:22:44</time>
      </trkpt>
      <trkpt lat="28.95817" lon="-13.56042">
        <ele>-3.8</ele>
        <time>2021-07-02 12:22:45</time>
      </trkpt>
      <trkpt lat="28.95819" lon="-13.56037">
        <ele>-3.8</ele>
        <time>2021-07-02 12:22:46</time>
      </trkpt>
      <trkpt lat="28.95821" lon="-13.56032">
        <ele>-3.8</ele>
        <time>2021-07-02 12:22:47</time>
      </trkpt>
      <trkpt lat="28.95823" lon="-13.56028">
        <ele>-3.8</ele>
        <time>2021-07-02 12:22:48</time>
      </trkpt>
      <trkpt lat="28.95824" lon="-13.56023">
        <ele>-3.6</ele>
        <time>2021-07-02 12:22:49</time>
      </trkpt>
      <trkpt lat="28.95826" lon="-13.56018">
        <ele>-3.6</ele>
        <time>2021-07-02 12:22:50</time>
      </trkpt>
      <trkpt lat="28.95827" lon="-13.56013">
        <ele>-3.6</ele>
        <time>2021-07-02 12:22:51</time>
      </trkpt>
      <trkpt lat="28.95829" lon="-13.56008">
        <ele>-3.6</ele>
        <time>2021-07-02 12:22:52</time>
      </trkpt>
      <trkpt lat="28.95831" lon="-13.56004">
        <ele>-3.4</ele>
        <time>2021-07-02 12:22:53</time>
      </trkpt>
      <trkpt lat="28.95832" lon="-13.55999">
        <ele>-3.4</ele>
        <time>2021-07-02 12:22:54</time>
      </trkpt>
      <trkpt lat="28.95836" lon="-13.55995">
        <ele>-3.2</ele>
        <time>2021-07-02 12:22:55</time>
      </trkpt>
      <trkpt lat="28.95837" lon="-13.5599">
        <ele>-3.2</ele>
        <time>2021-07-02 12:22:56</time>
      </trkpt>
      <trkpt lat="28.95839" lon="-13.55985">
        <ele>-3.2</ele>
        <time>2021-07-02 12:22:57</time>
      </trkpt>
      <trkpt lat="28.95841" lon="-13.55981">
        <ele>-3</ele>
        <time>2021-07-02 12:22:58</time>
      </trkpt>
      <trkpt lat="28.95844" lon="-13.55976">
        <ele>-3</ele>
        <time>2021-07-02 12:22:59</time>
      </trkpt>
      <trkpt lat="28.95846" lon="-13.55972">
        <ele>-3</ele>
        <time>2021-07-02 12:23:00</time>
      </trkpt>
      <trkpt lat="28.95848" lon="-13.55967">
        <ele>-2.6</ele>
        <time>2021-07-02 12:23:01</time>
      </trkpt>
      <trkpt lat="28.9585" lon="-13.55962">
        <ele>-2.6</ele>
        <time>2021-07-02 12:23:02</time>
      </trkpt>
      <trkpt lat="28.95851" lon="-13.55957">
        <ele>-2.6</ele>
        <time>2021-07-02 12:23:03</time>
      </trkpt>
      <trkpt lat="28.95852" lon="-13.55951">
        <ele>-2.6</ele>
        <time>2021-07-02 12:23:04</time>
      </trkpt>
      <trkpt lat="28.95853" lon="-13.55946">
        <ele>-2.6</ele>
        <time>2021-07-02 12:23:05</time>
      </trkpt>
      <trkpt lat="28.95854" lon="-13.55941">
        <ele>-2.6</ele>
        <time>2021-07-02 12:23:06</time>
      </trkpt>
      <trkpt lat="28.95856" lon="-13.55935">
        <ele>-2.6</ele>
        <time>2021-07-02 12:23:07</time>
      </trkpt>
      <trkpt lat="28.95857" lon="-13.5593">
        <ele>-2.6</ele>
        <time>2021-07-02 12:23:08</time>
      </trkpt>
      <trkpt lat="28.95859" lon="-13.55925">
        <ele>-2.6</ele>
        <time>2021-07-02 12:23:09</time>
      </trkpt>
      <trkpt lat="28.9586" lon="-13.5592">
        <ele>-2.6</ele>
        <time>2021-07-02 12:23:10</time>
      </trkpt>
      <trkpt lat="28.95861" lon="-13.55915">
        <ele>-2.6</ele>
        <time>2021-07-02 12:23:11</time>
      </trkpt>
      <trkpt lat="28.95863" lon="-13.5591">
        <ele>-2.6</ele>
        <time>2021-07-02 12:23:12</time>
      </trkpt>
      <trkpt lat="28.95865" lon="-13.55904">
        <ele>-2.6</ele>
        <time>2021-07-02 12:23:13</time>
      </trkpt>
      <trkpt lat="28.95865" lon="-13.559">
        <ele>-2.6</ele>
        <time>2021-07-02 12:23:14</time>
      </trkpt>
      <trkpt lat="28.95866" lon="-13.55895">
        <ele>-2.6</ele>
        <time>2021-07-02 12:23:15</time>
      </trkpt>
      <trkpt lat="28.95867" lon="-13.5589">
        <ele>-2.6</ele>
        <time>2021-07-02 12:23:16</time>
      </trkpt>
      <trkpt lat="28.95868" lon="-13.55885">
        <ele>-2.6</ele>
        <time>2021-07-02 12:23:17</time>
      </trkpt>
      <trkpt lat="28.95868" lon="-13.5588">
        <ele>-2.4</ele>
        <time>2021-07-02 12:23:18</time>
      </trkpt>
      <trkpt lat="28.95869" lon="-13.55875">
        <ele>-2.4</ele>
        <time>2021-07-02 12:23:19</time>
      </trkpt>
      <trkpt lat="28.95869" lon="-13.55869">
        <ele>-2.4</ele>
        <time>2021-07-02 12:23:20</time>
      </trkpt>
      <trkpt lat="28.95869" lon="-13.55864">
        <ele>-2.4</ele>
        <time>2021-07-02 12:23:21</time>
      </trkpt>
      <trkpt lat="28.9587" lon="-13.55858">
        <ele>-2.4</ele>
        <time>2021-07-02 12:23:22</time>
      </trkpt>
      <trkpt lat="28.9587" lon="-13.55853">
        <ele>-2.4</ele>
        <time>2021-07-02 12:23:23</time>
      </trkpt>
      <trkpt lat="28.9587" lon="-13.55847">
        <ele>-2.4</ele>
        <time>2021-07-02 12:23:24</time>
      </trkpt>
      <trkpt lat="28.9587" lon="-13.55842">
        <ele>-2.4</ele>
        <time>2021-07-02 12:23:25</time>
      </trkpt>
      <trkpt lat="28.9587" lon="-13.55836">
        <ele>-2.4</ele>
        <time>2021-07-02 12:23:26</time>
      </trkpt>
      <trkpt lat="28.9587" lon="-13.5583">
        <ele>-2.4</ele>
        <time>2021-07-02 12:23:27</time>
      </trkpt>
      <trkpt lat="28.9587" lon="-13.55825">
        <ele>-2.4</ele>
        <time>2021-07-02 12:23:28</time>
      </trkpt>
      <trkpt lat="28.9587" lon="-13.55819">
        <ele>-2.4</ele>
        <time>2021-07-02 12:23:29</time>
      </trkpt>
      <trkpt lat="28.9587" lon="-13.55813">
        <ele>-2.2</ele>
        <time>2021-07-02 12:23:30</time>
      </trkpt>
      <trkpt lat="28.9587" lon="-13.55807">
        <ele>-2.2</ele>
        <time>2021-07-02 12:23:31</time>
      </trkpt>
      <trkpt lat="28.95869" lon="-13.55802">
        <ele>-2.2</ele>
        <time>2021-07-02 12:23:32</time>
      </trkpt>
      <trkpt lat="28.95869" lon="-13.55796">
        <ele>-2</ele>
        <time>2021-07-02 12:23:33</time>
      </trkpt>
      <trkpt lat="28.95869" lon="-13.55791">
        <ele>-2</ele>
        <time>2021-07-02 12:23:34</time>
      </trkpt>
      <trkpt lat="28.95868" lon="-13.55785">
        <ele>-1.8</ele>
        <time>2021-07-02 12:23:35</time>
      </trkpt>
      <trkpt lat="28.95868" lon="-13.5578">
        <ele>-1.8</ele>
        <time>2021-07-02 12:23:36</time>
      </trkpt>
      <trkpt lat="28.95868" lon="-13.55775">
        <ele>-1.8</ele>
        <time>2021-07-02 12:23:37</time>
      </trkpt>
      <trkpt lat="28.95867" lon="-13.55769">
        <ele>-1.8</ele>
        <time>2021-07-02 12:23:38</time>
      </trkpt>
      <trkpt lat="28.95867" lon="-13.55764">
        <ele>-1.8</ele>
        <time>2021-07-02 12:23:39</time>
      </trkpt>
      <trkpt lat="28.95866" lon="-13.55758">
        <ele>-1.4</ele>
        <time>2021-07-02 12:23:40</time>
      </trkpt>
      <trkpt lat="28.95865" lon="-13.55753">
        <ele>-1.4</ele>
        <time>2021-07-02 12:23:41</time>
      </trkpt>
      <trkpt lat="28.95864" lon="-13.55747">
        <ele>-1.4</ele>
        <time>2021-07-02 12:23:42</time>
      </trkpt>
      <trkpt lat="28.95863" lon="-13.55742">
        <ele>-1.4</ele>
        <time>2021-07-02 12:23:43</time>
      </trkpt>
      <trkpt lat="28.95862" lon="-13.55737">
        <ele>-1.4</ele>
        <time>2021-07-02 12:23:44</time>
      </trkpt>
      <trkpt lat="28.95861" lon="-13.55732">
        <ele>-1.8</ele>
        <time>2021-07-02 12:23:45</time>
      </trkpt>
      <trkpt lat="28.9586" lon="-13.55726">
        <ele>-1.8</ele>
        <time>2021-07-02 12:23:46</time>
      </trkpt>
      <trkpt lat="28.95859" lon="-13.55721">
        <ele>-1.8</ele>
        <time>2021-07-02 12:23:47</time>
      </trkpt>
      <trkpt lat="28.95857" lon="-13.55716">
        <ele>-2</ele>
        <time>2021-07-02 12:23:48</time>
      </trkpt>
      <trkpt lat="28.95856" lon="-13.55711">
        <ele>-2</ele>
        <time>2021-07-02 12:23:49</time>
      </trkpt>
      <trkpt lat="28.95854" lon="-13.55706">
        <ele>-2</ele>
        <time>2021-07-02 12:23:50</time>
      </trkpt>
      <trkpt lat="28.95853" lon="-13.557">
        <ele>-2</ele>
        <time>2021-07-02 12:23:51</time>
      </trkpt>
      <trkpt lat="28.95852" lon="-13.55694">
        <ele>-2</ele>
        <time>2021-07-02 12:23:52</time>
      </trkpt>
      <trkpt lat="28.9585" lon="-13.55689">
        <ele>-2</ele>
        <time>2021-07-02 12:23:53</time>
      </trkpt>
      <trkpt lat="28.95849" lon="-13.55684">
        <ele>-2</ele>
        <time>2021-07-02 12:23:54</time>
      </trkpt>
      <trkpt lat="28.95848" lon="-13.55679">
        <ele>-2</ele>
        <time>2021-07-02 12:23:55</time>
      </trkpt>
      <trkpt lat="28.95847" lon="-13.55672">
        <ele>-2</ele>
        <time>2021-07-02 12:23:56</time>
      </trkpt>
      <trkpt lat="28.95845" lon="-13.55667">
        <ele>-2</ele>
        <time>2021-07-02 12:23:57</time>
      </trkpt>
      <trkpt lat="28.95844" lon="-13.55661">
        <ele>-2</ele>
        <time>2021-07-02 12:23:58</time>
      </trkpt>
      <trkpt lat="28.95843" lon="-13.55656">
        <ele>-2</ele>
        <time>2021-07-02 12:23:59</time>
      </trkpt>
      <trkpt lat="28.95841" lon="-13.5565">
        <ele>-2.2</ele>
        <time>2021-07-02 12:24:00</time>
      </trkpt>
      <trkpt lat="28.9584" lon="-13.55645">
        <ele>-2.2</ele>
        <time>2021-07-02 12:24:01</time>
      </trkpt>
      <trkpt lat="28.95838" lon="-13.55639">
        <ele>-2.6</ele>
        <time>2021-07-02 12:24:02</time>
      </trkpt>
      <trkpt lat="28.95836" lon="-13.55634">
        <ele>-2.8</ele>
        <time>2021-07-02 12:24:03</time>
      </trkpt>
      <trkpt lat="28.95835" lon="-13.55629">
        <ele>-3</ele>
        <time>2021-07-02 12:24:04</time>
      </trkpt>
      <trkpt lat="28.95833" lon="-13.55624">
        <ele>-3.2</ele>
        <time>2021-07-02 12:24:05</time>
      </trkpt>
      <trkpt lat="28.95831" lon="-13.55619">
        <ele>-3.2</ele>
        <time>2021-07-02 12:24:06</time>
      </trkpt>
      <trkpt lat="28.9583" lon="-13.55614">
        <ele>-3.4</ele>
        <time>2021-07-02 12:24:07</time>
      </trkpt>
      <trkpt lat="28.95828" lon="-13.55609">
        <ele>-3.4</ele>
        <time>2021-07-02 12:24:08</time>
      </trkpt>
      <trkpt lat="28.95827" lon="-13.55605">
        <ele>-3.4</ele>
        <time>2021-07-02 12:24:09</time>
      </trkpt>
      <trkpt lat="28.95826" lon="-13.556">
        <ele>-3.4</ele>
        <time>2021-07-02 12:24:10</time>
      </trkpt>
      <trkpt lat="28.95824" lon="-13.55594">
        <ele>-3.4</ele>
        <time>2021-07-02 12:24:11</time>
      </trkpt>
      <trkpt lat="28.95823" lon="-13.5559">
        <ele>-3.4</ele>
        <time>2021-07-02 12:24:12</time>
      </trkpt>
      <trkpt lat="28.95821" lon="-13.55585">
        <ele>-3.4</ele>
        <time>2021-07-02 12:24:13</time>
      </trkpt>
      <trkpt lat="28.95819" lon="-13.55581">
        <ele>-3.4</ele>
        <time>2021-07-02 12:24:14</time>
      </trkpt>
      <trkpt lat="28.95818" lon="-13.55577">
        <ele>-3.4</ele>
        <time>2021-07-02 12:24:15</time>
      </trkpt>
      <trkpt lat="28.95816" lon="-13.55573">
        <ele>-3.4</ele>
        <time>2021-07-02 12:24:16</time>
      </trkpt>
      <trkpt lat="28.95815" lon="-13.55569">
        <ele>-3.4</ele>
        <time>2021-07-02 12:24:17</time>
      </trkpt>
      <trkpt lat="28.95814" lon="-13.55565">
        <ele>-3.4</ele>
        <time>2021-07-02 12:24:18</time>
      </trkpt>
      <trkpt lat="28.95813" lon="-13.55561">
        <ele>-3.4</ele>
        <time>2021-07-02 12:24:19</time>
      </trkpt>
      <trkpt lat="28.95812" lon="-13.55557">
        <ele>-3.4</ele>
        <time>2021-07-02 12:24:20</time>
      </trkpt>
      <trkpt lat="28.95811" lon="-13.55552">
        <ele>-3.4</ele>
        <time>2021-07-02 12:24:21</time>
      </trkpt>
      <trkpt lat="28.9581" lon="-13.55548">
        <ele>-3.4</ele>
        <time>2021-07-02 12:24:22</time>
      </trkpt>
      <trkpt lat="28.95809" lon="-13.55544">
        <ele>-3.4</ele>
        <time>2021-07-02 12:24:23</time>
      </trkpt>
      <trkpt lat="28.95808" lon="-13.55541">
        <ele>-3.4</ele>
        <time>2021-07-02 12:24:24</time>
      </trkpt>
      <trkpt lat="28.95807" lon="-13.55537">
        <ele>-3.4</ele>
        <time>2021-07-02 12:24:25</time>
      </trkpt>
      <trkpt lat="28.95806" lon="-13.55533">
        <ele>-3.6</ele>
        <time>2021-07-02 12:24:26</time>
      </trkpt>
      <trkpt lat="28.95805" lon="-13.5553">
        <ele>-3.6</ele>
        <time>2021-07-02 12:24:27</time>
      </trkpt>
      <trkpt lat="28.95803" lon="-13.55526">
        <ele>-3.6</ele>
        <time>2021-07-02 12:24:28</time>
      </trkpt>
      <trkpt lat="28.95802" lon="-13.55523">
        <ele>-3.6</ele>
        <time>2021-07-02 12:24:29</time>
      </trkpt>
      <trkpt lat="28.958" lon="-13.55519">
        <ele>-3.6</ele>
        <time>2021-07-02 12:24:30</time>
      </trkpt>
      <trkpt lat="28.95798" lon="-13.55516">
        <ele>-3.6</ele>
        <time>2021-07-02 12:24:31</time>
      </trkpt>
      <trkpt lat="28.95797" lon="-13.55513">
        <ele>-3.6</ele>
        <time>2021-07-02 12:24:32</time>
      </trkpt>
      <trkpt lat="28.95795" lon="-13.55511">
        <ele>-3.6</ele>
        <time>2021-07-02 12:24:33</time>
      </trkpt>
      <trkpt lat="28.95794" lon="-13.55509">
        <ele>-4</ele>
        <time>2021-07-02 12:24:34</time>
      </trkpt>
      <trkpt lat="28.95792" lon="-13.55507">
        <ele>-4</ele>
        <time>2021-07-02 12:24:35</time>
      </trkpt>
      <trkpt lat="28.95791" lon="-13.55505">
        <ele>-4</ele>
        <time>2021-07-02 12:24:36</time>
      </trkpt>
      <trkpt lat="28.9579" lon="-13.55504">
        <ele>-4</ele>
        <time>2021-07-02 12:24:37</time>
      </trkpt>
      <trkpt lat="28.95789" lon="-13.55502">
        <ele>-4.2</ele>
        <time>2021-07-02 12:24:38</time>
      </trkpt>
      <trkpt lat="28.95788" lon="-13.555">
        <ele>-4.2</ele>
        <time>2021-07-02 12:24:39</time>
      </trkpt>
      <trkpt lat="28.95788" lon="-13.55497">
        <ele>-4.2</ele>
        <time>2021-07-02 12:24:40</time>
      </trkpt>
      <trkpt lat="28.95788" lon="-13.55494">
        <ele>-4.2</ele>
        <time>2021-07-02 12:24:41</time>
      </trkpt>
      <trkpt lat="28.95788" lon="-13.55491">
        <ele>-4.4</ele>
        <time>2021-07-02 12:24:42</time>
      </trkpt>
      <trkpt lat="28.95787" lon="-13.55488">
        <ele>-4.4</ele>
        <time>2021-07-02 12:24:43</time>
      </trkpt>
      <trkpt lat="28.95785" lon="-13.55484">
        <ele>-4.4</ele>
        <time>2021-07-02 12:24:44</time>
      </trkpt>
      <trkpt lat="28.95783" lon="-13.55481">
        <ele>-4.4</ele>
        <time>2021-07-02 12:24:45</time>
      </trkpt>
      <trkpt lat="28.9578" lon="-13.55478">
        <ele>-4.4</ele>
        <time>2021-07-02 12:24:46</time>
      </trkpt>
      <trkpt lat="28.95777" lon="-13.55475">
        <ele>-4.4</ele>
        <time>2021-07-02 12:24:47</time>
      </trkpt>
      <trkpt lat="28.95775" lon="-13.55472">
        <ele>-4.4</ele>
        <time>2021-07-02 12:24:48</time>
      </trkpt>
      <trkpt lat="28.95772" lon="-13.55469">
        <ele>-4.4</ele>
        <time>2021-07-02 12:24:49</time>
      </trkpt>
      <trkpt lat="28.95769" lon="-13.55465">
        <ele>-4.4</ele>
        <time>2021-07-02 12:24:50</time>
      </trkpt>
      <trkpt lat="28.95768" lon="-13.55461">
        <ele>-4.4</ele>
        <time>2021-07-02 12:24:51</time>
      </trkpt>
      <trkpt lat="28.95767" lon="-13.55456">
        <ele>-4.4</ele>
        <time>2021-07-02 12:24:52</time>
      </trkpt>
      <trkpt lat="28.95767" lon="-13.55451">
        <ele>-4.4</ele>
        <time>2021-07-02 12:24:53</time>
      </trkpt>
      <trkpt lat="28.95769" lon="-13.55446">
        <ele>-4.4</ele>
        <time>2021-07-02 12:24:54</time>
      </trkpt>
      <trkpt lat="28.9577" lon="-13.55441">
        <ele>-4.4</ele>
        <time>2021-07-02 12:24:55</time>
      </trkpt>
      <trkpt lat="28.9577" lon="-13.55436">
        <ele>-4.4</ele>
        <time>2021-07-02 12:24:56</time>
      </trkpt>
      <trkpt lat="28.95771" lon="-13.55431">
        <ele>-4.4</ele>
        <time>2021-07-02 12:24:57</time>
      </trkpt>
      <trkpt lat="28.95772" lon="-13.55426">
        <ele>-4.4</ele>
        <time>2021-07-02 12:24:58</time>
      </trkpt>
      <trkpt lat="28.95773" lon="-13.55421">
        <ele>-4.4</ele>
        <time>2021-07-02 12:24:59</time>
      </trkpt>
      <trkpt lat="28.95774" lon="-13.55416">
        <ele>-4.4</ele>
        <time>2021-07-02 12:25:00</time>
      </trkpt>
      <trkpt lat="28.95775" lon="-13.5541">
        <ele>-4.2</ele>
        <time>2021-07-02 12:25:01</time>
      </trkpt>
      <trkpt lat="28.95776" lon="-13.55405">
        <ele>-4.2</ele>
        <time>2021-07-02 12:25:02</time>
      </trkpt>
      <trkpt lat="28.95776" lon="-13.55399">
        <ele>-4.2</ele>
        <time>2021-07-02 12:25:03</time>
      </trkpt>
      <trkpt lat="28.95777" lon="-13.55394">
        <ele>-4.2</ele>
        <time>2021-07-02 12:25:04</time>
      </trkpt>
      <trkpt lat="28.95777" lon="-13.55389">
        <ele>-4.2</ele>
        <time>2021-07-02 12:25:05</time>
      </trkpt>
      <trkpt lat="28.95779" lon="-13.55383">
        <ele>-4.2</ele>
        <time>2021-07-02 12:25:06</time>
      </trkpt>
      <trkpt lat="28.9578" lon="-13.55378">
        <ele>-4.2</ele>
        <time>2021-07-02 12:25:07</time>
      </trkpt>
      <trkpt lat="28.95781" lon="-13.55373">
        <ele>-4.2</ele>
        <time>2021-07-02 12:25:08</time>
      </trkpt>
      <trkpt lat="28.95782" lon="-13.55368">
        <ele>-4.2</ele>
        <time>2021-07-02 12:25:09</time>
      </trkpt>
      <trkpt lat="28.95783" lon="-13.55363">
        <ele>-4.2</ele>
        <time>2021-07-02 12:25:10</time>
      </trkpt>
      <trkpt lat="28.95784" lon="-13.55358">
        <ele>-4.2</ele>
        <time>2021-07-02 12:25:11</time>
      </trkpt>
      <trkpt lat="28.95785" lon="-13.55353">
        <ele>-4.2</ele>
        <time>2021-07-02 12:25:12</time>
      </trkpt>
      <trkpt lat="28.95786" lon="-13.55348">
        <ele>-4.2</ele>
        <time>2021-07-02 12:25:13</time>
      </trkpt>
      <trkpt lat="28.95787" lon="-13.55342">
        <ele>-4.2</ele>
        <time>2021-07-02 12:25:14</time>
      </trkpt>
      <trkpt lat="28.95787" lon="-13.55336">
        <ele>-4.2</ele>
        <time>2021-07-02 12:25:15</time>
      </trkpt>
      <trkpt lat="28.95787" lon="-13.55331">
        <ele>-4.2</ele>
        <time>2021-07-02 12:25:16</time>
      </trkpt>
      <trkpt lat="28.95787" lon="-13.55325">
        <ele>-4.2</ele>
        <time>2021-07-02 12:25:17</time>
      </trkpt>
      <trkpt lat="28.95788" lon="-13.5532">
        <ele>-4.2</ele>
        <time>2021-07-02 12:25:18</time>
      </trkpt>
      <trkpt lat="28.95788" lon="-13.55314">
        <ele>-4.2</ele>
        <time>2021-07-02 12:25:19</time>
      </trkpt>
      <trkpt lat="28.95789" lon="-13.55309">
        <ele>-4.2</ele>
        <time>2021-07-02 12:25:20</time>
      </trkpt>
      <trkpt lat="28.95789" lon="-13.55304">
        <ele>-4.2</ele>
        <time>2021-07-02 12:25:21</time>
      </trkpt>
      <trkpt lat="28.95789" lon="-13.55298">
        <ele>-4.2</ele>
        <time>2021-07-02 12:25:22</time>
      </trkpt>
      <trkpt lat="28.95789" lon="-13.55293">
        <ele>-4.2</ele>
        <time>2021-07-02 12:25:23</time>
      </trkpt>
      <trkpt lat="28.9579" lon="-13.55287">
        <ele>-4.2</ele>
        <time>2021-07-02 12:25:24</time>
      </trkpt>
      <trkpt lat="28.95791" lon="-13.55282">
        <ele>-4.2</ele>
        <time>2021-07-02 12:25:25</time>
      </trkpt>
      <trkpt lat="28.95792" lon="-13.55277">
        <ele>-4.4</ele>
        <time>2021-07-02 12:25:26</time>
      </trkpt>
      <trkpt lat="28.95792" lon="-13.55272">
        <ele>-4.4</ele>
        <time>2021-07-02 12:25:27</time>
      </trkpt>
      <trkpt lat="28.95793" lon="-13.55266">
        <ele>-4.4</ele>
        <time>2021-07-02 12:25:28</time>
      </trkpt>
      <trkpt lat="28.95794" lon="-13.55261">
        <ele>-4.4</ele>
        <time>2021-07-02 12:25:29</time>
      </trkpt>
      <trkpt lat="28.95794" lon="-13.55255">
        <ele>-4.4</ele>
        <time>2021-07-02 12:25:30</time>
      </trkpt>
      <trkpt lat="28.95795" lon="-13.5525">
        <ele>-4.4</ele>
        <time>2021-07-02 12:25:31</time>
      </trkpt>
      <trkpt lat="28.95794" lon="-13.55244">
        <ele>-4.4</ele>
        <time>2021-07-02 12:25:32</time>
      </trkpt>
      <trkpt lat="28.95795" lon="-13.55238">
        <ele>-4.4</ele>
        <time>2021-07-02 12:25:33</time>
      </trkpt>
      <trkpt lat="28.95796" lon="-13.55233">
        <ele>-4.4</ele>
        <time>2021-07-02 12:25:34</time>
      </trkpt>
      <trkpt lat="28.95796" lon="-13.55228">
        <ele>-4.4</ele>
        <time>2021-07-02 12:25:35</time>
      </trkpt>
      <trkpt lat="28.95797" lon="-13.55224">
        <ele>-4.4</ele>
        <time>2021-07-02 12:25:36</time>
      </trkpt>
      <trkpt lat="28.95797" lon="-13.55219">
        <ele>-4.4</ele>
        <time>2021-07-02 12:25:37</time>
      </trkpt>
      <trkpt lat="28.95797" lon="-13.55214">
        <ele>-4.4</ele>
        <time>2021-07-02 12:25:38</time>
      </trkpt>
      <trkpt lat="28.95797" lon="-13.5521">
        <ele>-4.4</ele>
        <time>2021-07-02 12:25:39</time>
      </trkpt>
      <trkpt lat="28.95798" lon="-13.55205">
        <ele>-4.4</ele>
        <time>2021-07-02 12:25:40</time>
      </trkpt>
      <trkpt lat="28.95798" lon="-13.55201">
        <ele>-4.4</ele>
        <time>2021-07-02 12:25:41</time>
      </trkpt>
      <trkpt lat="28.95799" lon="-13.55196">
        <ele>-4.4</ele>
        <time>2021-07-02 12:25:42</time>
      </trkpt>
      <trkpt lat="28.95799" lon="-13.55191">
        <ele>-4.4</ele>
        <time>2021-07-02 12:25:43</time>
      </trkpt>
      <trkpt lat="28.958" lon="-13.55187">
        <ele>-4.4</ele>
        <time>2021-07-02 12:25:44</time>
      </trkpt>
      <trkpt lat="28.958" lon="-13.55184">
        <ele>-4.4</ele>
        <time>2021-07-02 12:25:45</time>
      </trkpt>
      <trkpt lat="28.95799" lon="-13.5518">
        <ele>-4.4</ele>
        <time>2021-07-02 12:25:46</time>
      </trkpt>
      <trkpt lat="28.95796" lon="-13.55176">
        <ele>-4.4</ele>
        <time>2021-07-02 12:25:47</time>
      </trkpt>
      <trkpt lat="28.95794" lon="-13.55173">
        <ele>-4.4</ele>
        <time>2021-07-02 12:25:48</time>
      </trkpt>
      <trkpt lat="28.95791" lon="-13.5517">
        <ele>-4.4</ele>
        <time>2021-07-02 12:25:49</time>
      </trkpt>
      <trkpt lat="28.95789" lon="-13.55166">
        <ele>-4.4</ele>
        <time>2021-07-02 12:25:50</time>
      </trkpt>
      <trkpt lat="28.95786" lon="-13.55163">
        <ele>-4.4</ele>
        <time>2021-07-02 12:25:51</time>
      </trkpt>
      <trkpt lat="28.95783" lon="-13.5516">
        <ele>-4.4</ele>
        <time>2021-07-02 12:25:52</time>
      </trkpt>
      <trkpt lat="28.9578" lon="-13.55157">
        <ele>-4.4</ele>
        <time>2021-07-02 12:25:53</time>
      </trkpt>
      <trkpt lat="28.95776" lon="-13.55155">
        <ele>-4.4</ele>
        <time>2021-07-02 12:25:54</time>
      </trkpt>
      <trkpt lat="28.95771" lon="-13.55154">
        <ele>-4.4</ele>
        <time>2021-07-02 12:25:55</time>
      </trkpt>
      <trkpt lat="28.95767" lon="-13.55154">
        <ele>-4.4</ele>
        <time>2021-07-02 12:25:56</time>
      </trkpt>
      <trkpt lat="28.95763" lon="-13.55154">
        <ele>-4.4</ele>
        <time>2021-07-02 12:25:57</time>
      </trkpt>
      <trkpt lat="28.95758" lon="-13.55154">
        <ele>-4.4</ele>
        <time>2021-07-02 12:25:58</time>
      </trkpt>
      <trkpt lat="28.95754" lon="-13.55154">
        <ele>-4.4</ele>
        <time>2021-07-02 12:25:59</time>
      </trkpt>
      <trkpt lat="28.9575" lon="-13.55154">
        <ele>-4.4</ele>
        <time>2021-07-02 12:26:00</time>
      </trkpt>
      <trkpt lat="28.95745" lon="-13.55154">
        <ele>-4.4</ele>
        <time>2021-07-02 12:26:01</time>
      </trkpt>
      <trkpt lat="28.9574" lon="-13.55153">
        <ele>-4.4</ele>
        <time>2021-07-02 12:26:02</time>
      </trkpt>
      <trkpt lat="28.95736" lon="-13.55152">
        <ele>-4.4</ele>
        <time>2021-07-02 12:26:03</time>
      </trkpt>
      <trkpt lat="28.95731" lon="-13.55152">
        <ele>-4.4</ele>
        <time>2021-07-02 12:26:04</time>
      </trkpt>
      <trkpt lat="28.95727" lon="-13.5515">
        <ele>-4.4</ele>
        <time>2021-07-02 12:26:05</time>
      </trkpt>
      <trkpt lat="28.95724" lon="-13.55146">
        <ele>-4.2</ele>
        <time>2021-07-02 12:26:06</time>
      </trkpt>
      <trkpt lat="28.95721" lon="-13.55143">
        <ele>-4.2</ele>
        <time>2021-07-02 12:26:07</time>
      </trkpt>
      <trkpt lat="28.9572" lon="-13.55138">
        <ele>-4.2</ele>
        <time>2021-07-02 12:26:08</time>
      </trkpt>
      <trkpt lat="28.95721" lon="-13.55134">
        <ele>-4.2</ele>
        <time>2021-07-02 12:26:09</time>
      </trkpt>
      <trkpt lat="28.95722" lon="-13.55129">
        <ele>-4.2</ele>
        <time>2021-07-02 12:26:10</time>
      </trkpt>
      <trkpt lat="28.95725" lon="-13.55125">
        <ele>-4.2</ele>
        <time>2021-07-02 12:26:11</time>
      </trkpt>
      <trkpt lat="28.95726" lon="-13.5512">
        <ele>-4.2</ele>
        <time>2021-07-02 12:26:12</time>
      </trkpt>
      <trkpt lat="28.95728" lon="-13.55115">
        <ele>-4</ele>
        <time>2021-07-02 12:26:13</time>
      </trkpt>
      <trkpt lat="28.95729" lon="-13.5511">
        <ele>-4</ele>
        <time>2021-07-02 12:26:14</time>
      </trkpt>
      <trkpt lat="28.95731" lon="-13.55105">
        <ele>-4</ele>
        <time>2021-07-02 12:26:15</time>
      </trkpt>
      <trkpt lat="28.95733" lon="-13.55101">
        <ele>-3.8</ele>
        <time>2021-07-02 12:26:16</time>
      </trkpt>
      <trkpt lat="28.95736" lon="-13.55096">
        <ele>-3.8</ele>
        <time>2021-07-02 12:26:17</time>
      </trkpt>
      <trkpt lat="28.95738" lon="-13.55092">
        <ele>-3.8</ele>
        <time>2021-07-02 12:26:18</time>
      </trkpt>
      <trkpt lat="28.95741" lon="-13.55087">
        <ele>-3.8</ele>
        <time>2021-07-02 12:26:19</time>
      </trkpt>
      <trkpt lat="28.95742" lon="-13.55083">
        <ele>-3.6</ele>
        <time>2021-07-02 12:26:20</time>
      </trkpt>
      <trkpt lat="28.95744" lon="-13.55079">
        <ele>-3.6</ele>
        <time>2021-07-02 12:26:21</time>
      </trkpt>
      <trkpt lat="28.95746" lon="-13.55074">
        <ele>-3.6</ele>
        <time>2021-07-02 12:26:22</time>
      </trkpt>
      <trkpt lat="28.95748" lon="-13.55071">
        <ele>-3.6</ele>
        <time>2021-07-02 12:26:23</time>
      </trkpt>
      <trkpt lat="28.9575" lon="-13.55067">
        <ele>-3.4</ele>
        <time>2021-07-02 12:26:24</time>
      </trkpt>
      <trkpt lat="28.95752" lon="-13.55064">
        <ele>-3.4</ele>
        <time>2021-07-02 12:26:25</time>
      </trkpt>
      <trkpt lat="28.95754" lon="-13.55061">
        <ele>-3.4</ele>
        <time>2021-07-02 12:26:26</time>
      </trkpt>
      <trkpt lat="28.95756" lon="-13.55058">
        <ele>-3.4</ele>
        <time>2021-07-02 12:26:27</time>
      </trkpt>
      <trkpt lat="28.95759" lon="-13.55056">
        <ele>-3.4</ele>
        <time>2021-07-02 12:26:28</time>
      </trkpt>
      <trkpt lat="28.95762" lon="-13.55054">
        <ele>-3.4</ele>
        <time>2021-07-02 12:26:29</time>
      </trkpt>
      <trkpt lat="28.95765" lon="-13.55052">
        <ele>-3.4</ele>
        <time>2021-07-02 12:26:30</time>
      </trkpt>
      <trkpt lat="28.95768" lon="-13.5505">
        <ele>-3.4</ele>
        <time>2021-07-02 12:26:31</time>
      </trkpt>
      <trkpt lat="28.95771" lon="-13.55046">
        <ele>-3.4</ele>
        <time>2021-07-02 12:26:32</time>
      </trkpt>
      <trkpt lat="28.95774" lon="-13.55043">
        <ele>-3.4</ele>
        <time>2021-07-02 12:26:33</time>
      </trkpt>
      <trkpt lat="28.95776" lon="-13.55039">
        <ele>-3.4</ele>
        <time>2021-07-02 12:26:34</time>
      </trkpt>
      <trkpt lat="28.95778" lon="-13.55034">
        <ele>-3.4</ele>
        <time>2021-07-02 12:26:35</time>
      </trkpt>
      <trkpt lat="28.95779" lon="-13.55029">
        <ele>-3.4</ele>
        <time>2021-07-02 12:26:36</time>
      </trkpt>
      <trkpt lat="28.95781" lon="-13.55025">
        <ele>-3.6</ele>
        <time>2021-07-02 12:26:37</time>
      </trkpt>
      <trkpt lat="28.95782" lon="-13.5502">
        <ele>-3.6</ele>
        <time>2021-07-02 12:26:38</time>
      </trkpt>
      <trkpt lat="28.95791" lon="-13.54997">
        <ele>-3.8</ele>
        <time>2021-07-02 12:26:39</time>
      </trkpt>
      <trkpt lat="28.95793" lon="-13.54992">
        <ele>-3.8</ele>
        <time>2021-07-02 12:26:40</time>
      </trkpt>
      <trkpt lat="28.95795" lon="-13.54987">
        <ele>-3.8</ele>
        <time>2021-07-02 12:26:41</time>
      </trkpt>
      <trkpt lat="28.95797" lon="-13.54982">
        <ele>-3.8</ele>
        <time>2021-07-02 12:26:42</time>
      </trkpt>
      <trkpt lat="28.95799" lon="-13.54977">
        <ele>-3.8</ele>
        <time>2021-07-02 12:26:43</time>
      </trkpt>
      <trkpt lat="28.95801" lon="-13.54972">
        <ele>-3.8</ele>
        <time>2021-07-02 12:26:44</time>
      </trkpt>
      <trkpt lat="28.95803" lon="-13.54967">
        <ele>-3.8</ele>
        <time>2021-07-02 12:26:45</time>
      </trkpt>
      <trkpt lat="28.95805" lon="-13.54963">
        <ele>-3.8</ele>
        <time>2021-07-02 12:26:46</time>
      </trkpt>
      <trkpt lat="28.95806" lon="-13.54958">
        <ele>-3.8</ele>
        <time>2021-07-02 12:26:47</time>
      </trkpt>
      <trkpt lat="28.95808" lon="-13.54954">
        <ele>-3.6</ele>
        <time>2021-07-02 12:26:48</time>
      </trkpt>
      <trkpt lat="28.9581" lon="-13.5495">
        <ele>-3.6</ele>
        <time>2021-07-02 12:26:49</time>
      </trkpt>
      <trkpt lat="28.95811" lon="-13.54946">
        <ele>-3.6</ele>
        <time>2021-07-02 12:26:50</time>
      </trkpt>
      <trkpt lat="28.95814" lon="-13.54942">
        <ele>-3.6</ele>
        <time>2021-07-02 12:26:51</time>
      </trkpt>
      <trkpt lat="28.95815" lon="-13.54938">
        <ele>-3.6</ele>
        <time>2021-07-02 12:26:52</time>
      </trkpt>
      <trkpt lat="28.95817" lon="-13.54934">
        <ele>-3.6</ele>
        <time>2021-07-02 12:26:53</time>
      </trkpt>
      <trkpt lat="28.95819" lon="-13.54932">
        <ele>-3.4</ele>
        <time>2021-07-02 12:26:54</time>
      </trkpt>
      <trkpt lat="28.95823" lon="-13.54932">
        <ele>-3.4</ele>
        <time>2021-07-02 12:26:55</time>
      </trkpt>
      <trkpt lat="28.95824" lon="-13.54933">
        <ele>-3.4</ele>
        <time>2021-07-02 12:26:56</time>
      </trkpt>
      <trkpt lat="28.95825" lon="-13.54933">
        <ele>-3.6</ele>
        <time>2021-07-02 12:26:57</time>
      </trkpt>
      <trkpt lat="28.95825" lon="-13.54933">
        <ele>-4</ele>
        <time>2021-07-02 12:26:58</time>
      </trkpt>
      <trkpt lat="28.95825" lon="-13.54933">
        <ele>-4.2</ele>
        <time>2021-07-02 12:26:59</time>
      </trkpt>
      <trkpt lat="28.95825" lon="-13.54932">
        <ele>-5.2</ele>
        <time>2021-07-02 12:27:00</time>
      </trkpt>
      <trkpt lat="28.95827" lon="-13.54932">
        <ele>-5.2</ele>
        <time>2021-07-02 12:27:01</time>
      </trkpt>
      <trkpt lat="28.95828" lon="-13.54932">
        <ele>-5.2</ele>
        <time>2021-07-02 12:27:02</time>
      </trkpt>
      <trkpt lat="28.95829" lon="-13.54932">
        <ele>-5.2</ele>
        <time>2021-07-02 12:27:03</time>
      </trkpt>
      <trkpt lat="28.9583" lon="-13.54931">
        <ele>-5.2</ele>
        <time>2021-07-02 12:27:04</time>
      </trkpt>
      <trkpt lat="28.95832" lon="-13.54931">
        <ele>-5</ele>
        <time>2021-07-02 12:27:05</time>
      </trkpt>
      <trkpt lat="28.95832" lon="-13.54931">
        <ele>-5</ele>
        <time>2021-07-02 12:27:17</time>
      </trkpt>
      <trkpt lat="28.95833" lon="-13.54932">
        <ele>-5</ele>
        <time>2021-07-02 12:27:18</time>
      </trkpt>
      <trkpt lat="28.95833" lon="-13.54934">
        <ele>-5</ele>
        <time>2021-07-02 12:27:19</time>
      </trkpt>
      <trkpt lat="28.95833" lon="-13.54935">
        <ele>-5</ele>
        <time>2021-07-02 12:27:20</time>
      </trkpt>
      <trkpt lat="28.95833" lon="-13.54935">
        <ele>-5</ele>
        <time>2021-07-02 12:27:21</time>
      </trkpt>
      <trkpt lat="28.95832" lon="-13.54935">
        <ele>-5</ele>
        <time>2021-07-02 12:27:22</time>
      </trkpt>
      <trkpt lat="28.95833" lon="-13.54935">
        <ele>-5</ele>
        <time>2021-07-02 12:27:23</time>
      </trkpt>
      <trkpt lat="28.95833" lon="-13.54936">
        <ele>-5</ele>
        <time>2021-07-02 12:27:24</time>
      </trkpt>
      <trkpt lat="28.95832" lon="-13.54936">
        <ele>-5</ele>
        <time>2021-07-02 12:27:25</time>
      </trkpt>
      <trkpt lat="28.95832" lon="-13.54935">
        <ele>-5</ele>
        <time>2021-07-02 12:27:26</time>
      </trkpt>
      <trkpt lat="28.95823" lon="-13.54907">
        <ele>-7</ele>
        <time>2021-07-02 12:27:27</time>
      </trkpt>
      <trkpt lat="28.95824" lon="-13.54903">
        <ele>-7.4</ele>
        <time>2021-07-02 12:27:28</time>
      </trkpt>
      <trkpt lat="28.95824" lon="-13.549">
        <ele>-7.2</ele>
        <time>2021-07-02 12:27:29</time>
      </trkpt>
      <trkpt lat="28.95825" lon="-13.54896">
        <ele>-7.2</ele>
        <time>2021-07-02 12:27:30</time>
      </trkpt>
      <trkpt lat="28.95825" lon="-13.54893">
        <ele>-6.8</ele>
        <time>2021-07-02 12:27:31</time>
      </trkpt>
      <trkpt lat="28.95826" lon="-13.54889">
        <ele>-6.8</ele>
        <time>2021-07-02 12:27:32</time>
      </trkpt>
      <trkpt lat="28.95827" lon="-13.54885">
        <ele>-6.8</ele>
        <time>2021-07-02 12:49:33</time>
      </trkpt>
      <trkpt lat="28.95828" lon="-13.54882">
        <ele>-6.8</ele>
        <time>2021-07-02 12:49:34</time>
      </trkpt>
      <trkpt lat="28.95828" lon="-13.54878">
        <ele>-6.8</ele>
        <time>2021-07-02 12:49:35</time>
      </trkpt>
      <trkpt lat="28.95829" lon="-13.54874">
        <ele>-6.8</ele>
        <time>2021-07-02 12:49:36</time>
      </trkpt>
      <trkpt lat="28.9583" lon="-13.54869">
        <ele>-6.8</ele>
        <time>2021-07-02 12:49:37</time>
      </trkpt>
      <trkpt lat="28.9583" lon="-13.54865">
        <ele>-6.6</ele>
        <time>2021-07-02 12:49:38</time>
      </trkpt>
      <trkpt lat="28.95831" lon="-13.54861">
        <ele>-6.6</ele>
        <time>2021-07-02 12:49:39</time>
      </trkpt>
      <trkpt lat="28.95832" lon="-13.54857">
        <ele>-6.6</ele>
        <time>2021-07-02 12:49:40</time>
      </trkpt>
      <trkpt lat="28.95833" lon="-13.54852">
        <ele>-6.6</ele>
        <time>2021-07-02 12:49:41</time>
      </trkpt>
      <trkpt lat="28.95834" lon="-13.54848">
        <ele>-6.6</ele>
        <time>2021-07-02 12:49:42</time>
      </trkpt>
      <trkpt lat="28.95835" lon="-13.54843">
        <ele>-6.4</ele>
        <time>2021-07-02 12:49:43</time>
      </trkpt>
      <trkpt lat="28.95836" lon="-13.54839">
        <ele>-6.4</ele>
        <time>2021-07-02 12:49:44</time>
      </trkpt>
      <trkpt lat="28.95837" lon="-13.54834">
        <ele>-6.4</ele>
        <time>2021-07-02 12:49:45</time>
      </trkpt>
      <trkpt lat="28.95839" lon="-13.5483">
        <ele>-6.2</ele>
        <time>2021-07-02 12:49:46</time>
      </trkpt>
      <trkpt lat="28.9584" lon="-13.54825">
        <ele>-6.2</ele>
        <time>2021-07-02 12:49:47</time>
      </trkpt>
      <trkpt lat="28.95841" lon="-13.54821">
        <ele>-6.2</ele>
        <time>2021-07-02 12:49:48</time>
      </trkpt>
      <trkpt lat="28.95842" lon="-13.54816">
        <ele>-5.8</ele>
        <time>2021-07-02 12:49:49</time>
      </trkpt>
      <trkpt lat="28.95843" lon="-13.54812">
        <ele>-5.8</ele>
        <time>2021-07-02 12:49:50</time>
      </trkpt>
      <trkpt lat="28.95844" lon="-13.54809">
        <ele>-5.8</ele>
        <time>2021-07-02 12:49:51</time>
      </trkpt>
      <trkpt lat="28.95845" lon="-13.54805">
        <ele>-5.8</ele>
        <time>2021-07-02 12:49:52</time>
      </trkpt>
      <trkpt lat="28.95846" lon="-13.54802">
        <ele>-5.8</ele>
        <time>2021-07-02 12:49:53</time>
      </trkpt>
      <trkpt lat="28.95848" lon="-13.54798">
        <ele>-5.8</ele>
        <time>2021-07-02 12:49:54</time>
      </trkpt>
      <trkpt lat="28.9585" lon="-13.54794">
        <ele>-5.8</ele>
        <time>2021-07-02 12:49:55</time>
      </trkpt>
      <trkpt lat="28.95852" lon="-13.5479">
        <ele>-5.8</ele>
        <time>2021-07-02 12:49:56</time>
      </trkpt>
      <trkpt lat="28.95853" lon="-13.54785">
        <ele>-5.6</ele>
        <time>2021-07-02 12:49:57</time>
      </trkpt>
      <trkpt lat="28.95855" lon="-13.54781">
        <ele>-5.6</ele>
        <time>2021-07-02 12:49:58</time>
      </trkpt>
      <trkpt lat="28.95857" lon="-13.54777">
        <ele>-5.6</ele>
        <time>2021-07-02 12:49:59</time>
      </trkpt>
      <trkpt lat="28.95859" lon="-13.54773">
        <ele>-5.4</ele>
        <time>2021-07-02 12:50:00</time>
      </trkpt>
      <trkpt lat="28.95861" lon="-13.54767">
        <ele>-5.4</ele>
        <time>2021-07-02 12:50:01</time>
      </trkpt>
      <trkpt lat="28.95863" lon="-13.54763">
        <ele>-5.2</ele>
        <time>2021-07-02 12:50:02</time>
      </trkpt>
      <trkpt lat="28.95865" lon="-13.54759">
        <ele>-5.2</ele>
        <time>2021-07-02 12:50:03</time>
      </trkpt>
      <trkpt lat="28.95868" lon="-13.54754">
        <ele>-5.2</ele>
        <time>2021-07-02 12:50:04</time>
      </trkpt>
      <trkpt lat="28.95869" lon="-13.54749">
        <ele>-5.2</ele>
        <time>2021-07-02 12:50:05</time>
      </trkpt>
      <trkpt lat="28.95871" lon="-13.54745">
        <ele>-5.2</ele>
        <time>2021-07-02 12:50:06</time>
      </trkpt>
      <trkpt lat="28.95873" lon="-13.5474">
        <ele>-5.2</ele>
        <time>2021-07-02 12:50:07</time>
      </trkpt>
      <trkpt lat="28.95875" lon="-13.54735">
        <ele>-5.2</ele>
        <time>2021-07-02 12:50:08</time>
      </trkpt>
      <trkpt lat="28.95877" lon="-13.54731">
        <ele>-5</ele>
        <time>2021-07-02 12:50:09</time>
      </trkpt>
      <trkpt lat="28.95879" lon="-13.54726">
        <ele>-5</ele>
        <time>2021-07-02 12:50:10</time>
      </trkpt>
      <trkpt lat="28.95881" lon="-13.54721">
        <ele>-5</ele>
        <time>2021-07-02 12:50:11</time>
      </trkpt>
      <trkpt lat="28.95883" lon="-13.54717">
        <ele>-5</ele>
        <time>2021-07-02 12:50:12</time>
      </trkpt>
      <trkpt lat="28.95885" lon="-13.54713">
        <ele>-4.8</ele>
        <time>2021-07-02 12:50:13</time>
      </trkpt>
      <trkpt lat="28.95887" lon="-13.54708">
        <ele>-4.8</ele>
        <time>2021-07-02 12:50:14</time>
      </trkpt>
      <trkpt lat="28.95889" lon="-13.54703">
        <ele>-4.8</ele>
        <time>2021-07-02 12:50:15</time>
      </trkpt>
      <trkpt lat="28.9589" lon="-13.54699">
        <ele>-4.4</ele>
        <time>2021-07-02 12:50:16</time>
      </trkpt>
      <trkpt lat="28.95893" lon="-13.54695">
        <ele>-4.4</ele>
        <time>2021-07-02 12:50:17</time>
      </trkpt>
      <trkpt lat="28.95895" lon="-13.5469">
        <ele>-4.2</ele>
        <time>2021-07-02 12:50:18</time>
      </trkpt>
      <trkpt lat="28.95897" lon="-13.54686">
        <ele>-4.2</ele>
        <time>2021-07-02 12:50:19</time>
      </trkpt>
      <trkpt lat="28.959" lon="-13.54682">
        <ele>-4.2</ele>
        <time>2021-07-02 12:50:20</time>
      </trkpt>
      <trkpt lat="28.95903" lon="-13.54679">
        <ele>-4</ele>
        <time>2021-07-02 12:50:21</time>
      </trkpt>
      <trkpt lat="28.95906" lon="-13.54675">
        <ele>-4</ele>
        <time>2021-07-02 12:50:22</time>
      </trkpt>
      <trkpt lat="28.95909" lon="-13.54671">
        <ele>-4</ele>
        <time>2021-07-02 12:50:23</time>
      </trkpt>
      <trkpt lat="28.95912" lon="-13.54667">
        <ele>-4</ele>
        <time>2021-07-02 12:50:24</time>
      </trkpt>
      <trkpt lat="28.95915" lon="-13.54664">
        <ele>-4</ele>
        <time>2021-07-02 12:50:25</time>
      </trkpt>
      <trkpt lat="28.95918" lon="-13.5466">
        <ele>-4</ele>
        <time>2021-07-02 12:50:26</time>
      </trkpt>
      <trkpt lat="28.9592" lon="-13.54656">
        <ele>-4</ele>
        <time>2021-07-02 12:50:27</time>
      </trkpt>
      <trkpt lat="28.95923" lon="-13.54652">
        <ele>-4</ele>
        <time>2021-07-02 12:50:28</time>
      </trkpt>
      <trkpt lat="28.95926" lon="-13.54648">
        <ele>-4</ele>
        <time>2021-07-02 12:50:29</time>
      </trkpt>
      <trkpt lat="28.95929" lon="-13.54644">
        <ele>-4</ele>
        <time>2021-07-02 12:50:30</time>
      </trkpt>
      <trkpt lat="28.95932" lon="-13.5464">
        <ele>-4</ele>
        <time>2021-07-02 12:50:31</time>
      </trkpt>
      <trkpt lat="28.95936" lon="-13.54636">
        <ele>-4</ele>
        <time>2021-07-02 12:50:32</time>
      </trkpt>
      <trkpt lat="28.95938" lon="-13.54633">
        <ele>-4</ele>
        <time>2021-07-02 12:50:33</time>
      </trkpt>
      <trkpt lat="28.95942" lon="-13.54628">
        <ele>-4</ele>
        <time>2021-07-02 12:50:34</time>
      </trkpt>
      <trkpt lat="28.95945" lon="-13.54625">
        <ele>-4</ele>
        <time>2021-07-02 12:50:35</time>
      </trkpt>
      <trkpt lat="28.95948" lon="-13.54621">
        <ele>-4</ele>
        <time>2021-07-02 12:50:36</time>
      </trkpt>
      <trkpt lat="28.95951" lon="-13.54617">
        <ele>-4</ele>
        <time>2021-07-02 12:50:37</time>
      </trkpt>
      <trkpt lat="28.95954" lon="-13.54613">
        <ele>-4</ele>
        <time>2021-07-02 12:50:38</time>
      </trkpt>
      <trkpt lat="28.95957" lon="-13.54609">
        <ele>-4.4</ele>
        <time>2021-07-02 12:50:39</time>
      </trkpt>
      <trkpt lat="28.9596" lon="-13.54605">
        <ele>-4.4</ele>
        <time>2021-07-02 12:50:40</time>
      </trkpt>
      <trkpt lat="28.95963" lon="-13.54602">
        <ele>-4.6</ele>
        <time>2021-07-02 12:50:41</time>
      </trkpt>
      <trkpt lat="28.95966" lon="-13.54598">
        <ele>-4.6</ele>
        <time>2021-07-02 12:50:42</time>
      </trkpt>
      <trkpt lat="28.9597" lon="-13.54594">
        <ele>-4.6</ele>
        <time>2021-07-02 12:50:43</time>
      </trkpt>
      <trkpt lat="28.95973" lon="-13.54591">
        <ele>-4.6</ele>
        <time>2021-07-02 12:50:44</time>
      </trkpt>
      <trkpt lat="28.95976" lon="-13.54586">
        <ele>-4.6</ele>
        <time>2021-07-02 12:50:45</time>
      </trkpt>
      <trkpt lat="28.95979" lon="-13.54583">
        <ele>-4.6</ele>
        <time>2021-07-02 12:50:46</time>
      </trkpt>
      <trkpt lat="28.95982" lon="-13.54579">
        <ele>-4.6</ele>
        <time>2021-07-02 12:50:47</time>
      </trkpt>
      <trkpt lat="28.95985" lon="-13.54576">
        <ele>-4.6</ele>
        <time>2021-07-02 12:50:48</time>
      </trkpt>
      <trkpt lat="28.95988" lon="-13.54572">
        <ele>-4.6</ele>
        <time>2021-07-02 12:50:49</time>
      </trkpt>
      <trkpt lat="28.95991" lon="-13.54569">
        <ele>-4.6</ele>
        <time>2021-07-02 12:50:50</time>
      </trkpt>
      <trkpt lat="28.95994" lon="-13.54565">
        <ele>-4.2</ele>
        <time>2021-07-02 12:50:51</time>
      </trkpt>
      <trkpt lat="28.95997" lon="-13.54561">
        <ele>-4.2</ele>
        <time>2021-07-02 12:50:52</time>
      </trkpt>
      <trkpt lat="28.95999" lon="-13.54557">
        <ele>-4</ele>
        <time>2021-07-02 12:50:53</time>
      </trkpt>
      <trkpt lat="28.96001" lon="-13.54553">
        <ele>-4</ele>
        <time>2021-07-02 12:50:54</time>
      </trkpt>
      <trkpt lat="28.96004" lon="-13.5455">
        <ele>-3.6</ele>
        <time>2021-07-02 12:50:55</time>
      </trkpt>
      <trkpt lat="28.96006" lon="-13.54546">
        <ele>-3.6</ele>
        <time>2021-07-02 12:50:56</time>
      </trkpt>
      <trkpt lat="28.96008" lon="-13.54542">
        <ele>-3.4</ele>
        <time>2021-07-02 12:50:57</time>
      </trkpt>
      <trkpt lat="28.96011" lon="-13.54538">
        <ele>-3.4</ele>
        <time>2021-07-02 12:50:58</time>
      </trkpt>
      <trkpt lat="28.96014" lon="-13.54534">
        <ele>-3</ele>
        <time>2021-07-02 12:50:59</time>
      </trkpt>
      <trkpt lat="28.96016" lon="-13.54529">
        <ele>-3</ele>
        <time>2021-07-02 12:51:00</time>
      </trkpt>
      <trkpt lat="28.96019" lon="-13.54525">
        <ele>-3</ele>
        <time>2021-07-02 12:51:01</time>
      </trkpt>
      <trkpt lat="28.96022" lon="-13.54521">
        <ele>-2.8</ele>
        <time>2021-07-02 12:51:02</time>
      </trkpt>
      <trkpt lat="28.96025" lon="-13.54516">
        <ele>-2.8</ele>
        <time>2021-07-02 12:51:03</time>
      </trkpt>
      <trkpt lat="28.96028" lon="-13.54511">
        <ele>-2.8</ele>
        <time>2021-07-02 12:51:04</time>
      </trkpt>
      <trkpt lat="28.9603" lon="-13.54507">
        <ele>-2.4</ele>
        <time>2021-07-02 12:51:05</time>
      </trkpt>
      <trkpt lat="28.96033" lon="-13.54503">
        <ele>-2.4</ele>
        <time>2021-07-02 12:51:06</time>
      </trkpt>
      <trkpt lat="28.96035" lon="-13.54498">
        <ele>-2.4</ele>
        <time>2021-07-02 12:51:07</time>
      </trkpt>
      <trkpt lat="28.96037" lon="-13.54494">
        <ele>-2.4</ele>
        <time>2021-07-02 12:51:08</time>
      </trkpt>
      <trkpt lat="28.96039" lon="-13.54489">
        <ele>-2.4</ele>
        <time>2021-07-02 12:51:09</time>
      </trkpt>
      <trkpt lat="28.96041" lon="-13.54484">
        <ele>-2.4</ele>
        <time>2021-07-02 12:51:10</time>
      </trkpt>
      <trkpt lat="28.96042" lon="-13.54479">
        <ele>-2.4</ele>
        <time>2021-07-02 12:51:11</time>
      </trkpt>
      <trkpt lat="28.96043" lon="-13.54475">
        <ele>-2.4</ele>
        <time>2021-07-02 12:51:12</time>
      </trkpt>
      <trkpt lat="28.96044" lon="-13.5447">
        <ele>-2.4</ele>
        <time>2021-07-02 12:51:13</time>
      </trkpt>
      <trkpt lat="28.96044" lon="-13.54466">
        <ele>-2.4</ele>
        <time>2021-07-02 12:51:14</time>
      </trkpt>
      <trkpt lat="28.96045" lon="-13.54462">
        <ele>-2.4</ele>
        <time>2021-07-02 12:51:15</time>
      </trkpt>
      <trkpt lat="28.96046" lon="-13.54459">
        <ele>-2.4</ele>
        <time>2021-07-02 12:51:16</time>
      </trkpt>
      <trkpt lat="28.96047" lon="-13.54455">
        <ele>-2.4</ele>
        <time>2021-07-02 12:51:17</time>
      </trkpt>
      <trkpt lat="28.96048" lon="-13.5445">
        <ele>-2.4</ele>
        <time>2021-07-02 12:51:18</time>
      </trkpt>
      <trkpt lat="28.96049" lon="-13.54446">
        <ele>-2.4</ele>
        <time>2021-07-02 12:51:19</time>
      </trkpt>
      <trkpt lat="28.9605" lon="-13.54442">
        <ele>-2.4</ele>
        <time>2021-07-02 12:51:20</time>
      </trkpt>
      <trkpt lat="28.96051" lon="-13.54438">
        <ele>-2.4</ele>
        <time>2021-07-02 12:51:21</time>
      </trkpt>
      <trkpt lat="28.96051" lon="-13.54435">
        <ele>-2.4</ele>
        <time>2021-07-02 12:51:22</time>
      </trkpt>
      <trkpt lat="28.96052" lon="-13.54434">
        <ele>-2.4</ele>
        <time>2021-07-02 12:51:23</time>
      </trkpt>
      <trkpt lat="28.96053" lon="-13.54434">
        <ele>-2.6</ele>
        <time>2021-07-02 12:51:24</time>
      </trkpt>
      <trkpt lat="28.96054" lon="-13.54433">
        <ele>-2.6</ele>
        <time>2021-07-02 12:51:25</time>
      </trkpt>
      <trkpt lat="28.96055" lon="-13.54433">
        <ele>-2.6</ele>
        <time>2021-07-02 12:51:26</time>
      </trkpt>
      <trkpt lat="28.96057" lon="-13.54434">
        <ele>-2.6</ele>
        <time>2021-07-02 12:51:27</time>
      </trkpt>
      <trkpt lat="28.96059" lon="-13.54435">
        <ele>-2.6</ele>
        <time>2021-07-02 12:51:28</time>
      </trkpt>
      <trkpt lat="28.96061" lon="-13.54437">
        <ele>-2.6</ele>
        <time>2021-07-02 12:51:29</time>
      </trkpt>
      <trkpt lat="28.96063" lon="-13.5444">
        <ele>-2.6</ele>
        <time>2021-07-02 12:51:30</time>
      </trkpt>
      <trkpt lat="28.96065" lon="-13.54441">
        <ele>-2.6</ele>
        <time>2021-07-02 12:51:31</time>
      </trkpt>
      <trkpt lat="28.96069" lon="-13.54441">
        <ele>-2.6</ele>
        <time>2021-07-02 12:51:32</time>
      </trkpt>
      <trkpt lat="28.96072" lon="-13.54439">
        <ele>-2.8</ele>
        <time>2021-07-02 12:51:33</time>
      </trkpt>
      <trkpt lat="28.96076" lon="-13.54437">
        <ele>-2.8</ele>
        <time>2021-07-02 12:51:34</time>
      </trkpt>
      <trkpt lat="28.9608" lon="-13.54436">
        <ele>-2.8</ele>
        <time>2021-07-02 12:51:35</time>
      </trkpt>
      <trkpt lat="28.96084" lon="-13.54434">
        <ele>-2.8</ele>
        <time>2021-07-02 12:51:36</time>
      </trkpt>
      <trkpt lat="28.96088" lon="-13.54434">
        <ele>-2.6</ele>
        <time>2021-07-02 12:51:37</time>
      </trkpt>
      <trkpt lat="28.96092" lon="-13.54434">
        <ele>-2.6</ele>
        <time>2021-07-02 12:51:38</time>
      </trkpt>
      <trkpt lat="28.96096" lon="-13.54434">
        <ele>-2.6</ele>
        <time>2021-07-02 12:51:39</time>
      </trkpt>
      <trkpt lat="28.961" lon="-13.54434">
        <ele>-2.6</ele>
        <time>2021-07-02 12:51:40</time>
      </trkpt>
      <trkpt lat="28.96104" lon="-13.54433">
        <ele>-2.6</ele>
        <time>2021-07-02 12:51:41</time>
      </trkpt>
      <trkpt lat="28.96108" lon="-13.54432">
        <ele>-2.6</ele>
        <time>2021-07-02 12:51:42</time>
      </trkpt>
      <trkpt lat="28.96112" lon="-13.54432">
        <ele>-2.6</ele>
        <time>2021-07-02 12:51:43</time>
      </trkpt>
      <trkpt lat="28.96116" lon="-13.54431">
        <ele>-2.6</ele>
        <time>2021-07-02 12:51:44</time>
      </trkpt>
      <trkpt lat="28.9612" lon="-13.54431">
        <ele>-2.6</ele>
        <time>2021-07-02 12:51:45</time>
      </trkpt>
      <trkpt lat="28.96124" lon="-13.5443">
        <ele>-2.6</ele>
        <time>2021-07-02 12:51:46</time>
      </trkpt>
      <trkpt lat="28.96128" lon="-13.54429">
        <ele>-2.6</ele>
        <time>2021-07-02 12:51:47</time>
      </trkpt>
      <trkpt lat="28.96132" lon="-13.54429">
        <ele>-2.6</ele>
        <time>2021-07-02 12:51:48</time>
      </trkpt>
      <trkpt lat="28.96136" lon="-13.54428">
        <ele>-2.6</ele>
        <time>2021-07-02 12:51:49</time>
      </trkpt>
      <trkpt lat="28.9614" lon="-13.54427">
        <ele>-2.8</ele>
        <time>2021-07-02 12:51:50</time>
      </trkpt>
      <trkpt lat="28.96144" lon="-13.54427">
        <ele>-2.8</ele>
        <time>2021-07-02 12:51:51</time>
      </trkpt>
      <trkpt lat="28.96148" lon="-13.54426">
        <ele>-3</ele>
        <time>2021-07-02 12:51:52</time>
      </trkpt>
      <trkpt lat="28.96153" lon="-13.54425">
        <ele>-3</ele>
        <time>2021-07-02 12:51:53</time>
      </trkpt>
      <trkpt lat="28.96156" lon="-13.54423">
        <ele>-3.2</ele>
        <time>2021-07-02 12:51:54</time>
      </trkpt>
      <trkpt lat="28.9616" lon="-13.54421">
        <ele>-3.2</ele>
        <time>2021-07-02 12:51:55</time>
      </trkpt>
      <trkpt lat="28.96163" lon="-13.5442">
        <ele>-3.2</ele>
        <time>2021-07-02 12:51:56</time>
      </trkpt>
      <trkpt lat="28.96167" lon="-13.54419">
        <ele>-3.6</ele>
        <time>2021-07-02 12:51:57</time>
      </trkpt>
      <trkpt lat="28.9617" lon="-13.54418">
        <ele>-3.6</ele>
        <time>2021-07-02 12:51:58</time>
      </trkpt>
      <trkpt lat="28.96173" lon="-13.54416">
        <ele>-3.6</ele>
        <time>2021-07-02 12:51:59</time>
      </trkpt>
      <trkpt lat="28.96176" lon="-13.54415">
        <ele>-3.8</ele>
        <time>2021-07-02 12:52:00</time>
      </trkpt>
      <trkpt lat="28.96178" lon="-13.54413">
        <ele>-3.8</ele>
        <time>2021-07-02 12:52:01</time>
      </trkpt>
      <trkpt lat="28.9618" lon="-13.54411">
        <ele>-3.8</ele>
        <time>2021-07-02 12:52:02</time>
      </trkpt>
      <trkpt lat="28.96182" lon="-13.54411">
        <ele>-3.8</ele>
        <time>2021-07-02 12:52:03</time>
      </trkpt>
      <trkpt lat="28.96183" lon="-13.54411">
        <ele>-3.8</ele>
        <time>2021-07-02 12:52:04</time>
      </trkpt>
      <trkpt lat="28.96185" lon="-13.54411">
        <ele>-3.8</ele>
        <time>2021-07-02 12:52:05</time>
      </trkpt>
      <trkpt lat="28.96186" lon="-13.54408">
        <ele>-4</ele>
        <time>2021-07-02 12:52:06</time>
      </trkpt>
      <trkpt lat="28.96186" lon="-13.54405">
        <ele>-4</ele>
        <time>2021-07-02 12:52:07</time>
      </trkpt>
      <trkpt lat="28.96186" lon="-13.54401">
        <ele>-4.2</ele>
        <time>2021-07-02 12:52:08</time>
      </trkpt>
      <trkpt lat="28.96186" lon="-13.54398">
        <ele>-4.2</ele>
        <time>2021-07-02 12:52:09</time>
      </trkpt>
      <trkpt lat="28.96187" lon="-13.54394">
        <ele>-4.2</ele>
        <time>2021-07-02 12:52:10</time>
      </trkpt>
      <trkpt lat="28.96189" lon="-13.54391">
        <ele>-4.2</ele>
        <time>2021-07-02 12:52:11</time>
      </trkpt>
      <trkpt lat="28.96192" lon="-13.54387">
        <ele>-4.6</ele>
        <time>2021-07-02 12:52:12</time>
      </trkpt>
      <trkpt lat="28.96194" lon="-13.54384">
        <ele>-4.6</ele>
        <time>2021-07-02 12:52:13</time>
      </trkpt>
      <trkpt lat="28.96197" lon="-13.54381">
        <ele>-4.6</ele>
        <time>2021-07-02 12:52:14</time>
      </trkpt>
      <trkpt lat="28.962" lon="-13.54378">
        <ele>-4.6</ele>
        <time>2021-07-02 12:52:15</time>
      </trkpt>
      <trkpt lat="28.96203" lon="-13.54375">
        <ele>-4.6</ele>
        <time>2021-07-02 12:52:16</time>
      </trkpt>
      <trkpt lat="28.96205" lon="-13.54373">
        <ele>-4.4</ele>
        <time>2021-07-02 12:52:17</time>
      </trkpt>
      <trkpt lat="28.96207" lon="-13.5437">
        <ele>-4.4</ele>
        <time>2021-07-02 12:52:18</time>
      </trkpt>
      <trkpt lat="28.96209" lon="-13.54368">
        <ele>-4.2</ele>
        <time>2021-07-02 12:52:19</time>
      </trkpt>
      <trkpt lat="28.96211" lon="-13.54366">
        <ele>-4.2</ele>
        <time>2021-07-02 12:52:20</time>
      </trkpt>
      <trkpt lat="28.96213" lon="-13.54364">
        <ele>-3.8</ele>
        <time>2021-07-02 12:52:21</time>
      </trkpt>
      <trkpt lat="28.96215" lon="-13.54361">
        <ele>-3.8</ele>
        <time>2021-07-02 12:52:22</time>
      </trkpt>
      <trkpt lat="28.96218" lon="-13.54359">
        <ele>-3.8</ele>
        <time>2021-07-02 12:52:23</time>
      </trkpt>
      <trkpt lat="28.96221" lon="-13.54356">
        <ele>-3.8</ele>
        <time>2021-07-02 12:52:24</time>
      </trkpt>
      <trkpt lat="28.96224" lon="-13.54353">
        <ele>-3.8</ele>
        <time>2021-07-02 12:52:25</time>
      </trkpt>
      <trkpt lat="28.96227" lon="-13.5435">
        <ele>-3.8</ele>
        <time>2021-07-02 12:52:26</time>
      </trkpt>
      <trkpt lat="28.96229" lon="-13.54347">
        <ele>-3.8</ele>
        <time>2021-07-02 12:52:27</time>
      </trkpt>
      <trkpt lat="28.96232" lon="-13.54344">
        <ele>-3.8</ele>
        <time>2021-07-02 12:52:28</time>
      </trkpt>
      <trkpt lat="28.96235" lon="-13.54341">
        <ele>-3.8</ele>
        <time>2021-07-02 12:52:29</time>
      </trkpt>
      <trkpt lat="28.96238" lon="-13.54338">
        <ele>-3.8</ele>
        <time>2021-07-02 12:52:30</time>
      </trkpt>
      <trkpt lat="28.96241" lon="-13.54335">
        <ele>-3.8</ele>
        <time>2021-07-02 12:52:31</time>
      </trkpt>
      <trkpt lat="28.96244" lon="-13.54332">
        <ele>-3.8</ele>
        <time>2021-07-02 12:52:32</time>
      </trkpt>
      <trkpt lat="28.96247" lon="-13.54329">
        <ele>-3.8</ele>
        <time>2021-07-02 12:52:33</time>
      </trkpt>
      <trkpt lat="28.9625" lon="-13.54326">
        <ele>-3.8</ele>
        <time>2021-07-02 12:52:34</time>
      </trkpt>
      <trkpt lat="28.96253" lon="-13.54323">
        <ele>-3.8</ele>
        <time>2021-07-02 12:52:35</time>
      </trkpt>
      <trkpt lat="28.96256" lon="-13.54319">
        <ele>-3.8</ele>
        <time>2021-07-02 12:52:36</time>
      </trkpt>
      <trkpt lat="28.96259" lon="-13.54316">
        <ele>-3.8</ele>
        <time>2021-07-02 12:52:37</time>
      </trkpt>
      <trkpt lat="28.96263" lon="-13.54313">
        <ele>-3.8</ele>
        <time>2021-07-02 12:52:38</time>
      </trkpt>
      <trkpt lat="28.96266" lon="-13.54308">
        <ele>-3.8</ele>
        <time>2021-07-02 12:52:39</time>
      </trkpt>
      <trkpt lat="28.96269" lon="-13.54305">
        <ele>-3.8</ele>
        <time>2021-07-02 12:52:40</time>
      </trkpt>
      <trkpt lat="28.96272" lon="-13.543">
        <ele>-3.8</ele>
        <time>2021-07-02 12:52:41</time>
      </trkpt>
      <trkpt lat="28.96274" lon="-13.54297">
        <ele>-3.8</ele>
        <time>2021-07-02 12:52:42</time>
      </trkpt>
      <trkpt lat="28.96277" lon="-13.54292">
        <ele>-3.8</ele>
        <time>2021-07-02 12:52:43</time>
      </trkpt>
      <trkpt lat="28.9628" lon="-13.54288">
        <ele>-3.8</ele>
        <time>2021-07-02 12:52:44</time>
      </trkpt>
      <trkpt lat="28.96282" lon="-13.54284">
        <ele>-3.8</ele>
        <time>2021-07-02 12:52:45</time>
      </trkpt>
      <trkpt lat="28.96285" lon="-13.5428">
        <ele>-3.8</ele>
        <time>2021-07-02 12:52:46</time>
      </trkpt>
      <trkpt lat="28.96288" lon="-13.54276">
        <ele>-4.2</ele>
        <time>2021-07-02 12:52:47</time>
      </trkpt>
      <trkpt lat="28.96292" lon="-13.54273">
        <ele>-4.2</ele>
        <time>2021-07-02 12:52:48</time>
      </trkpt>
      <trkpt lat="28.96295" lon="-13.54269">
        <ele>-4.2</ele>
        <time>2021-07-02 12:52:49</time>
      </trkpt>
      <trkpt lat="28.96297" lon="-13.54265">
        <ele>-4.2</ele>
        <time>2021-07-02 12:52:50</time>
      </trkpt>
      <trkpt lat="28.963" lon="-13.54261">
        <ele>-4.2</ele>
        <time>2021-07-02 12:52:51</time>
      </trkpt>
      <trkpt lat="28.96302" lon="-13.54257">
        <ele>-3.8</ele>
        <time>2021-07-02 12:52:52</time>
      </trkpt>
      <trkpt lat="28.96305" lon="-13.54253">
        <ele>-3.6</ele>
        <time>2021-07-02 12:52:53</time>
      </trkpt>
      <trkpt lat="28.96307" lon="-13.5425">
        <ele>-3.6</ele>
        <time>2021-07-02 12:52:54</time>
      </trkpt>
      <trkpt lat="28.9631" lon="-13.54246">
        <ele>-3.2</ele>
        <time>2021-07-02 12:52:55</time>
      </trkpt>
      <trkpt lat="28.96312" lon="-13.54242">
        <ele>-3.2</ele>
        <time>2021-07-02 12:52:56</time>
      </trkpt>
      <trkpt lat="28.96315" lon="-13.54238">
        <ele>-3.2</ele>
        <time>2021-07-02 12:52:57</time>
      </trkpt>
      <trkpt lat="28.96318" lon="-13.54234">
        <ele>-3</ele>
        <time>2021-07-02 12:52:58</time>
      </trkpt>
      <trkpt lat="28.9632" lon="-13.5423">
        <ele>-3</ele>
        <time>2021-07-02 12:52:59</time>
      </trkpt>
      <trkpt lat="28.96323" lon="-13.54225">
        <ele>-3</ele>
        <time>2021-07-02 12:53:00</time>
      </trkpt>
      <trkpt lat="28.96325" lon="-13.54222">
        <ele>-2.8</ele>
        <time>2021-07-02 12:53:01</time>
      </trkpt>
      <trkpt lat="28.96328" lon="-13.54218">
        <ele>-2.8</ele>
        <time>2021-07-02 12:53:02</time>
      </trkpt>
      <trkpt lat="28.9633" lon="-13.54214">
        <ele>-2.8</ele>
        <time>2021-07-02 12:53:03</time>
      </trkpt>
      <trkpt lat="28.96334" lon="-13.5421">
        <ele>-2.8</ele>
        <time>2021-07-02 12:53:04</time>
      </trkpt>
      <trkpt lat="28.96336" lon="-13.54206">
        <ele>-2.8</ele>
        <time>2021-07-02 12:53:05</time>
      </trkpt>
      <trkpt lat="28.96339" lon="-13.54203">
        <ele>-2.4</ele>
        <time>2021-07-02 12:53:06</time>
      </trkpt>
      <trkpt lat="28.96342" lon="-13.54198">
        <ele>-2.4</ele>
        <time>2021-07-02 12:53:07</time>
      </trkpt>
      <trkpt lat="28.96344" lon="-13.54194">
        <ele>-2.4</ele>
        <time>2021-07-02 12:53:08</time>
      </trkpt>
      <trkpt lat="28.96347" lon="-13.5419">
        <ele>-2.4</ele>
        <time>2021-07-02 12:53:09</time>
      </trkpt>
      <trkpt lat="28.96349" lon="-13.54186">
        <ele>-2.2</ele>
        <time>2021-07-02 12:53:10</time>
      </trkpt>
      <trkpt lat="28.96352" lon="-13.54182">
        <ele>-2.2</ele>
        <time>2021-07-02 12:53:11</time>
      </trkpt>
      <trkpt lat="28.96355" lon="-13.54177">
        <ele>-2.2</ele>
        <time>2021-07-02 12:53:12</time>
      </trkpt>
      <trkpt lat="28.96358" lon="-13.54173">
        <ele>-2.2</ele>
        <time>2021-07-02 12:53:13</time>
      </trkpt>
      <trkpt lat="28.96361" lon="-13.54169">
        <ele>-2</ele>
        <time>2021-07-02 12:53:14</time>
      </trkpt>
      <trkpt lat="28.96364" lon="-13.54165">
        <ele>-2</ele>
        <time>2021-07-02 12:53:15</time>
      </trkpt>
      <trkpt lat="28.96367" lon="-13.5416">
        <ele>-2</ele>
        <time>2021-07-02 12:53:16</time>
      </trkpt>
      <trkpt lat="28.9637" lon="-13.54156">
        <ele>-2.2</ele>
        <time>2021-07-02 12:53:17</time>
      </trkpt>
      <trkpt lat="28.96374" lon="-13.54152">
        <ele>-2.2</ele>
        <time>2021-07-02 12:53:18</time>
      </trkpt>
      <trkpt lat="28.96376" lon="-13.54147">
        <ele>-2.2</ele>
        <time>2021-07-02 12:53:19</time>
      </trkpt>
      <trkpt lat="28.9638" lon="-13.54143">
        <ele>-2.4</ele>
        <time>2021-07-02 12:53:20</time>
      </trkpt>
      <trkpt lat="28.96382" lon="-13.54139">
        <ele>-2.4</ele>
        <time>2021-07-02 12:53:21</time>
      </trkpt>
      <trkpt lat="28.96386" lon="-13.54135">
        <ele>-2.4</ele>
        <time>2021-07-02 12:53:22</time>
      </trkpt>
      <trkpt lat="28.96389" lon="-13.54131">
        <ele>-2.4</ele>
        <time>2021-07-02 12:53:23</time>
      </trkpt>
      <trkpt lat="28.96392" lon="-13.54126">
        <ele>-2.6</ele>
        <time>2021-07-02 12:53:24</time>
      </trkpt>
      <trkpt lat="28.96395" lon="-13.54123">
        <ele>-2.6</ele>
        <time>2021-07-02 12:53:25</time>
      </trkpt>
      <trkpt lat="28.96398" lon="-13.54119">
        <ele>-2.6</ele>
        <time>2021-07-02 12:53:26</time>
      </trkpt>
      <trkpt lat="28.96402" lon="-13.54115">
        <ele>-2.6</ele>
        <time>2021-07-02 12:53:27</time>
      </trkpt>
      <trkpt lat="28.96405" lon="-13.54111">
        <ele>-2.6</ele>
        <time>2021-07-02 12:53:28</time>
      </trkpt>
      <trkpt lat="28.96408" lon="-13.54107">
        <ele>-2.6</ele>
        <time>2021-07-02 12:53:29</time>
      </trkpt>
      <trkpt lat="28.96412" lon="-13.54103">
        <ele>-2.6</ele>
        <time>2021-07-02 12:53:30</time>
      </trkpt>
      <trkpt lat="28.96415" lon="-13.54098">
        <ele>-3</ele>
        <time>2021-07-02 12:53:31</time>
      </trkpt>
      <trkpt lat="28.96419" lon="-13.54094">
        <ele>-3</ele>
        <time>2021-07-02 12:53:32</time>
      </trkpt>
      <trkpt lat="28.96422" lon="-13.5409">
        <ele>-3.4</ele>
        <time>2021-07-02 12:53:33</time>
      </trkpt>
      <trkpt lat="28.96425" lon="-13.54086">
        <ele>-3.4</ele>
        <time>2021-07-02 12:53:34</time>
      </trkpt>
      <trkpt lat="28.96428" lon="-13.54082">
        <ele>-3.6</ele>
        <time>2021-07-02 12:53:35</time>
      </trkpt>
      <trkpt lat="28.96432" lon="-13.54078">
        <ele>-3.6</ele>
        <time>2021-07-02 12:53:36</time>
      </trkpt>
      <trkpt lat="28.96436" lon="-13.54074">
        <ele>-3.6</ele>
        <time>2021-07-02 12:53:37</time>
      </trkpt>
      <trkpt lat="28.9644" lon="-13.54072">
        <ele>-3.6</ele>
        <time>2021-07-02 12:53:38</time>
      </trkpt>
      <trkpt lat="28.96445" lon="-13.54071">
        <ele>-3.6</ele>
        <time>2021-07-02 12:53:39</time>
      </trkpt>
      <trkpt lat="28.9645" lon="-13.5407">
        <ele>-3.6</ele>
        <time>2021-07-02 12:53:40</time>
      </trkpt>
      <trkpt lat="28.96455" lon="-13.54069">
        <ele>-3.6</ele>
        <time>2021-07-02 12:53:41</time>
      </trkpt>
      <trkpt lat="28.9646" lon="-13.54069">
        <ele>-3.6</ele>
        <time>2021-07-02 12:53:42</time>
      </trkpt>
      <trkpt lat="28.96465" lon="-13.54067">
        <ele>-3.6</ele>
        <time>2021-07-02 12:53:43</time>
      </trkpt>
      <trkpt lat="28.96469" lon="-13.54064">
        <ele>-3.6</ele>
        <time>2021-07-02 12:53:44</time>
      </trkpt>
      <trkpt lat="28.96473" lon="-13.5406">
        <ele>-3.6</ele>
        <time>2021-07-02 12:53:45</time>
      </trkpt>
      <trkpt lat="28.96477" lon="-13.54057">
        <ele>-3.8</ele>
        <time>2021-07-02 12:53:46</time>
      </trkpt>
      <trkpt lat="28.96481" lon="-13.54053">
        <ele>-3.8</ele>
        <time>2021-07-02 12:53:47</time>
      </trkpt>
      <trkpt lat="28.96485" lon="-13.5405">
        <ele>-3.8</ele>
        <time>2021-07-02 12:53:48</time>
      </trkpt>
      <trkpt lat="28.96488" lon="-13.54046">
        <ele>-3.8</ele>
        <time>2021-07-02 12:53:49</time>
      </trkpt>
      <trkpt lat="28.96492" lon="-13.54042">
        <ele>-3.8</ele>
        <time>2021-07-02 12:53:50</time>
      </trkpt>
      <trkpt lat="28.96496" lon="-13.54038">
        <ele>-3.8</ele>
        <time>2021-07-02 12:53:51</time>
      </trkpt>
      <trkpt lat="28.965" lon="-13.54034">
        <ele>-4</ele>
        <time>2021-07-02 12:53:52</time>
      </trkpt>
      <trkpt lat="28.96504" lon="-13.5403">
        <ele>-4</ele>
        <time>2021-07-02 12:53:53</time>
      </trkpt>
      <trkpt lat="28.96508" lon="-13.54026">
        <ele>-4</ele>
        <time>2021-07-02 12:53:54</time>
      </trkpt>
      <trkpt lat="28.96512" lon="-13.54022">
        <ele>-4</ele>
        <time>2021-07-02 12:53:55</time>
      </trkpt>
      <trkpt lat="28.96516" lon="-13.54018">
        <ele>-4</ele>
        <time>2021-07-02 12:53:56</time>
      </trkpt>
      <trkpt lat="28.9652" lon="-13.54015">
        <ele>-4.2</ele>
        <time>2021-07-02 12:53:57</time>
      </trkpt>
      <trkpt lat="28.96524" lon="-13.54011">
        <ele>-4.2</ele>
        <time>2021-07-02 12:53:58</time>
      </trkpt>
      <trkpt lat="28.96528" lon="-13.54007">
        <ele>-4.2</ele>
        <time>2021-07-02 12:53:59</time>
      </trkpt>
      <trkpt lat="28.96532" lon="-13.54004">
        <ele>-4.2</ele>
        <time>2021-07-02 12:54:00</time>
      </trkpt>
      <trkpt lat="28.96536" lon="-13.54">
        <ele>-4.2</ele>
        <time>2021-07-02 12:54:01</time>
      </trkpt>
      <trkpt lat="28.9654" lon="-13.53996">
        <ele>-4.2</ele>
        <time>2021-07-02 12:54:02</time>
      </trkpt>
      <trkpt lat="28.96544" lon="-13.53993">
        <ele>-4.2</ele>
        <time>2021-07-02 12:54:03</time>
      </trkpt>
      <trkpt lat="28.96548" lon="-13.53989">
        <ele>-4.2</ele>
        <time>2021-07-02 12:54:04</time>
      </trkpt>
      <trkpt lat="28.96552" lon="-13.53986">
        <ele>-4.2</ele>
        <time>2021-07-02 12:54:05</time>
      </trkpt>
      <trkpt lat="28.96557" lon="-13.53985">
        <ele>-4.2</ele>
        <time>2021-07-02 12:54:06</time>
      </trkpt>
      <trkpt lat="28.96562" lon="-13.53984">
        <ele>-4.2</ele>
        <time>2021-07-02 12:54:07</time>
      </trkpt>
      <trkpt lat="28.96567" lon="-13.53983">
        <ele>-4.2</ele>
        <time>2021-07-02 12:54:08</time>
      </trkpt>
      <trkpt lat="28.96572" lon="-13.53983">
        <ele>-4.2</ele>
        <time>2021-07-02 12:54:09</time>
      </trkpt>
      <trkpt lat="28.96577" lon="-13.53983">
        <ele>-4.2</ele>
        <time>2021-07-02 12:54:10</time>
      </trkpt>
      <trkpt lat="28.96581" lon="-13.53983">
        <ele>-4.2</ele>
        <time>2021-07-02 12:54:11</time>
      </trkpt>
      <trkpt lat="28.96586" lon="-13.53983">
        <ele>-4.2</ele>
        <time>2021-07-02 12:54:12</time>
      </trkpt>
      <trkpt lat="28.96591" lon="-13.53983">
        <ele>-4.2</ele>
        <time>2021-07-02 12:54:13</time>
      </trkpt>
      <trkpt lat="28.96596" lon="-13.53983">
        <ele>-4.2</ele>
        <time>2021-07-02 12:54:14</time>
      </trkpt>
      <trkpt lat="28.966" lon="-13.53983">
        <ele>-4.2</ele>
        <time>2021-07-02 12:54:15</time>
      </trkpt>
      <trkpt lat="28.96605" lon="-13.53983">
        <ele>-4.2</ele>
        <time>2021-07-02 12:54:16</time>
      </trkpt>
      <trkpt lat="28.9661" lon="-13.53983">
        <ele>-4.2</ele>
        <time>2021-07-02 12:54:17</time>
      </trkpt>
      <trkpt lat="28.96615" lon="-13.53983">
        <ele>-4.2</ele>
        <time>2021-07-02 12:54:18</time>
      </trkpt>
      <trkpt lat="28.96618" lon="-13.53983">
        <ele>-4.2</ele>
        <time>2021-07-02 12:54:19</time>
      </trkpt>
      <trkpt lat="28.96622" lon="-13.53983">
        <ele>-4.2</ele>
        <time>2021-07-02 12:54:20</time>
      </trkpt>
      <trkpt lat="28.96626" lon="-13.53983">
        <ele>-4.2</ele>
        <time>2021-07-02 12:54:21</time>
      </trkpt>
      <trkpt lat="28.9663" lon="-13.53982">
        <ele>-4.2</ele>
        <time>2021-07-02 12:54:22</time>
      </trkpt>
      <trkpt lat="28.96635" lon="-13.53982">
        <ele>-4.2</ele>
        <time>2021-07-02 12:54:23</time>
      </trkpt>
      <trkpt lat="28.96639" lon="-13.53982">
        <ele>-4.2</ele>
        <time>2021-07-02 12:54:24</time>
      </trkpt>
      <trkpt lat="28.96643" lon="-13.53982">
        <ele>-4.2</ele>
        <time>2021-07-02 12:54:25</time>
      </trkpt>
      <trkpt lat="28.96647" lon="-13.53981">
        <ele>-4.2</ele>
        <time>2021-07-02 12:54:26</time>
      </trkpt>
      <trkpt lat="28.96651" lon="-13.53981">
        <ele>-4.2</ele>
        <time>2021-07-02 12:54:27</time>
      </trkpt>
      <trkpt lat="28.96656" lon="-13.53981">
        <ele>-4.2</ele>
        <time>2021-07-02 12:54:28</time>
      </trkpt>
      <trkpt lat="28.9666" lon="-13.53981">
        <ele>-4.2</ele>
        <time>2021-07-02 12:54:29</time>
      </trkpt>
      <trkpt lat="28.96665" lon="-13.5398">
        <ele>-4.2</ele>
        <time>2021-07-02 12:54:30</time>
      </trkpt>
      <trkpt lat="28.96669" lon="-13.53979">
        <ele>-4.2</ele>
        <time>2021-07-02 12:54:31</time>
      </trkpt>
      <trkpt lat="28.96674" lon="-13.53978">
        <ele>-4.2</ele>
        <time>2021-07-02 12:54:32</time>
      </trkpt>
      <trkpt lat="28.96678" lon="-13.53976">
        <ele>-4.2</ele>
        <time>2021-07-02 12:54:33</time>
      </trkpt>
      <trkpt lat="28.96682" lon="-13.53973">
        <ele>-4.2</ele>
        <time>2021-07-02 12:54:34</time>
      </trkpt>
      <trkpt lat="28.96685" lon="-13.5397">
        <ele>-4.2</ele>
        <time>2021-07-02 12:54:35</time>
      </trkpt>
      <trkpt lat="28.96688" lon="-13.53966">
        <ele>-4.2</ele>
        <time>2021-07-02 12:54:36</time>
      </trkpt>
      <trkpt lat="28.96691" lon="-13.53962">
        <ele>-4.2</ele>
        <time>2021-07-02 12:54:37</time>
      </trkpt>
      <trkpt lat="28.96694" lon="-13.53957">
        <ele>-4.2</ele>
        <time>2021-07-02 12:54:38</time>
      </trkpt>
      <trkpt lat="28.96697" lon="-13.53953">
        <ele>-4</ele>
        <time>2021-07-02 12:54:39</time>
      </trkpt>
      <trkpt lat="28.967" lon="-13.53949">
        <ele>-4</ele>
        <time>2021-07-02 12:54:40</time>
      </trkpt>
      <trkpt lat="28.96703" lon="-13.53944">
        <ele>-4</ele>
        <time>2021-07-02 12:54:41</time>
      </trkpt>
      <trkpt lat="28.96706" lon="-13.5394">
        <ele>-3.8</ele>
        <time>2021-07-02 12:54:42</time>
      </trkpt>
      <trkpt lat="28.96709" lon="-13.53936">
        <ele>-3.8</ele>
        <time>2021-07-02 12:54:43</time>
      </trkpt>
      <trkpt lat="28.96712" lon="-13.53931">
        <ele>-3.8</ele>
        <time>2021-07-02 12:54:44</time>
      </trkpt>
      <trkpt lat="28.96715" lon="-13.53927">
        <ele>-3.8</ele>
        <time>2021-07-02 12:54:45</time>
      </trkpt>
      <trkpt lat="28.96718" lon="-13.53922">
        <ele>-3.4</ele>
        <time>2021-07-02 12:54:46</time>
      </trkpt>
      <trkpt lat="28.96721" lon="-13.53917">
        <ele>-3.4</ele>
        <time>2021-07-02 12:54:47</time>
      </trkpt>
      <trkpt lat="28.96724" lon="-13.53913">
        <ele>-3.4</ele>
        <time>2021-07-02 12:54:48</time>
      </trkpt>
      <trkpt lat="28.96727" lon="-13.53908">
        <ele>-3.4</ele>
        <time>2021-07-02 12:54:49</time>
      </trkpt>
      <trkpt lat="28.9673" lon="-13.53903">
        <ele>-3.4</ele>
        <time>2021-07-02 12:54:50</time>
      </trkpt>
      <trkpt lat="28.96732" lon="-13.53899">
        <ele>-3.4</ele>
        <time>2021-07-02 12:54:51</time>
      </trkpt>
      <trkpt lat="28.96735" lon="-13.53894">
        <ele>-3.4</ele>
        <time>2021-07-02 12:54:52</time>
      </trkpt>
      <trkpt lat="28.96738" lon="-13.5389">
        <ele>-3.2</ele>
        <time>2021-07-02 12:54:53</time>
      </trkpt>
      <trkpt lat="28.96741" lon="-13.53885">
        <ele>-3.2</ele>
        <time>2021-07-02 12:54:54</time>
      </trkpt>
      <trkpt lat="28.96743" lon="-13.5388">
        <ele>-3.2</ele>
        <time>2021-07-02 12:54:55</time>
      </trkpt>
      <trkpt lat="28.96746" lon="-13.53876">
        <ele>-3.2</ele>
        <time>2021-07-02 12:54:56</time>
      </trkpt>
      <trkpt lat="28.96748" lon="-13.53871">
        <ele>-3.2</ele>
        <time>2021-07-02 12:54:57</time>
      </trkpt>
      <trkpt lat="28.96751" lon="-13.53866">
        <ele>-3.2</ele>
        <time>2021-07-02 12:54:58</time>
      </trkpt>
      <trkpt lat="28.96754" lon="-13.53862">
        <ele>-3.2</ele>
        <time>2021-07-02 12:54:59</time>
      </trkpt>
      <trkpt lat="28.96757" lon="-13.53857">
        <ele>-3.4</ele>
        <time>2021-07-02 12:55:00</time>
      </trkpt>
      <trkpt lat="28.9676" lon="-13.53853">
        <ele>-3.6</ele>
        <time>2021-07-02 12:55:01</time>
      </trkpt>
      <trkpt lat="28.96764" lon="-13.53849">
        <ele>-4</ele>
        <time>2021-07-02 12:55:02</time>
      </trkpt>
      <trkpt lat="28.96767" lon="-13.53846">
        <ele>-4.4</ele>
        <time>2021-07-02 12:55:03</time>
      </trkpt>
      <trkpt lat="28.96769" lon="-13.53841">
        <ele>-4.4</ele>
        <time>2021-07-02 12:55:04</time>
      </trkpt>
      <trkpt lat="28.96771" lon="-13.53837">
        <ele>-4.6</ele>
        <time>2021-07-02 12:55:05</time>
      </trkpt>
      <trkpt lat="28.96774" lon="-13.53834">
        <ele>-4.6</ele>
        <time>2021-07-02 12:55:06</time>
      </trkpt>
      <trkpt lat="28.96778" lon="-13.5383">
        <ele>-4.6</ele>
        <time>2021-07-02 12:55:07</time>
      </trkpt>
      <trkpt lat="28.96781" lon="-13.53827">
        <ele>-4.6</ele>
        <time>2021-07-02 12:55:08</time>
      </trkpt>
      <trkpt lat="28.96784" lon="-13.53823">
        <ele>-4.6</ele>
        <time>2021-07-02 12:55:09</time>
      </trkpt>
      <trkpt lat="28.96787" lon="-13.53819">
        <ele>-4.6</ele>
        <time>2021-07-02 12:55:10</time>
      </trkpt>
      <trkpt lat="28.9679" lon="-13.53815">
        <ele>-4.2</ele>
        <time>2021-07-02 12:55:11</time>
      </trkpt>
      <trkpt lat="28.96793" lon="-13.53811">
        <ele>-4.2</ele>
        <time>2021-07-02 12:55:12</time>
      </trkpt>
      <trkpt lat="28.96796" lon="-13.53808">
        <ele>-4.2</ele>
        <time>2021-07-02 12:55:13</time>
      </trkpt>
      <trkpt lat="28.96799" lon="-13.53804">
        <ele>-4</ele>
        <time>2021-07-02 12:55:14</time>
      </trkpt>
      <trkpt lat="28.96802" lon="-13.53801">
        <ele>-4</ele>
        <time>2021-07-02 12:55:15</time>
      </trkpt>
      <trkpt lat="28.96805" lon="-13.53797">
        <ele>-3.8</ele>
        <time>2021-07-02 12:55:16</time>
      </trkpt>
      <trkpt lat="28.96809" lon="-13.53793">
        <ele>-3.8</ele>
        <time>2021-07-02 12:55:17</time>
      </trkpt>
      <trkpt lat="28.96812" lon="-13.5379">
        <ele>-3.8</ele>
        <time>2021-07-02 12:55:18</time>
      </trkpt>
      <trkpt lat="28.96816" lon="-13.53788">
        <ele>-3.8</ele>
        <time>2021-07-02 12:55:19</time>
      </trkpt>
      <trkpt lat="28.9682" lon="-13.53787">
        <ele>-3.6</ele>
        <time>2021-07-02 12:55:20</time>
      </trkpt>
      <trkpt lat="28.96825" lon="-13.53785">
        <ele>-3.6</ele>
        <time>2021-07-02 12:55:21</time>
      </trkpt>
      <trkpt lat="28.96829" lon="-13.53785">
        <ele>-3.6</ele>
        <time>2021-07-02 12:55:22</time>
      </trkpt>
      <trkpt lat="28.96834" lon="-13.53785">
        <ele>-3.6</ele>
        <time>2021-07-02 12:55:23</time>
      </trkpt>
      <trkpt lat="28.96838" lon="-13.53785">
        <ele>-3.6</ele>
        <time>2021-07-02 12:55:24</time>
      </trkpt>
      <trkpt lat="28.96842" lon="-13.53787">
        <ele>-3.6</ele>
        <time>2021-07-02 12:55:25</time>
      </trkpt>
      <trkpt lat="28.96845" lon="-13.53789">
        <ele>-3.6</ele>
        <time>2021-07-02 12:55:26</time>
      </trkpt>
      <trkpt lat="28.96849" lon="-13.53791">
        <ele>-3.6</ele>
        <time>2021-07-02 12:55:27</time>
      </trkpt>
      <trkpt lat="28.96853" lon="-13.53795">
        <ele>-3.6</ele>
        <time>2021-07-02 12:55:28</time>
      </trkpt>
      <trkpt lat="28.96856" lon="-13.53798">
        <ele>-3.6</ele>
        <time>2021-07-02 12:55:29</time>
      </trkpt>
      <trkpt lat="28.96859" lon="-13.53801">
        <ele>-3.4</ele>
        <time>2021-07-02 12:55:30</time>
      </trkpt>
      <trkpt lat="28.96861" lon="-13.53803">
        <ele>-3.4</ele>
        <time>2021-07-02 12:55:31</time>
      </trkpt>
      <trkpt lat="28.96864" lon="-13.53802">
        <ele>-3</ele>
        <time>2021-07-02 12:55:32</time>
      </trkpt>
      <trkpt lat="28.96866" lon="-13.53801">
        <ele>-3</ele>
        <time>2021-07-02 12:55:33</time>
      </trkpt>
      <trkpt lat="28.96868" lon="-13.538">
        <ele>-3</ele>
        <time>2021-07-02 12:55:34</time>
      </trkpt>
      <trkpt lat="28.9687" lon="-13.53797">
        <ele>-3</ele>
        <time>2021-07-02 12:55:35</time>
      </trkpt>
      <trkpt lat="28.96873" lon="-13.53795">
        <ele>-3</ele>
        <time>2021-07-02 12:55:36</time>
      </trkpt>
      <trkpt lat="28.96876" lon="-13.53792">
        <ele>-3</ele>
        <time>2021-07-02 12:55:37</time>
      </trkpt>
      <trkpt lat="28.96878" lon="-13.53789">
        <ele>-3</ele>
        <time>2021-07-02 12:55:38</time>
      </trkpt>
      <trkpt lat="28.96881" lon="-13.53785">
        <ele>-3</ele>
        <time>2021-07-02 12:55:39</time>
      </trkpt>
      <trkpt lat="28.96884" lon="-13.53782">
        <ele>-3</ele>
        <time>2021-07-02 12:55:40</time>
      </trkpt>
      <trkpt lat="28.96888" lon="-13.53779">
        <ele>-3.2</ele>
        <time>2021-07-02 12:55:41</time>
      </trkpt>
      <trkpt lat="28.96891" lon="-13.53775">
        <ele>-3.2</ele>
        <time>2021-07-02 12:55:42</time>
      </trkpt>
      <trkpt lat="28.96895" lon="-13.53772">
        <ele>-3.2</ele>
        <time>2021-07-02 12:55:43</time>
      </trkpt>
      <trkpt lat="28.96898" lon="-13.53769">
        <ele>-3.6</ele>
        <time>2021-07-02 12:55:44</time>
      </trkpt>
      <trkpt lat="28.96902" lon="-13.53766">
        <ele>-3.6</ele>
        <time>2021-07-02 12:55:45</time>
      </trkpt>
      <trkpt lat="28.96905" lon="-13.53764">
        <ele>-3.6</ele>
        <time>2021-07-02 12:55:46</time>
      </trkpt>
      <trkpt lat="28.96909" lon="-13.5376">
        <ele>-3.6</ele>
        <time>2021-07-02 12:55:47</time>
      </trkpt>
      <trkpt lat="28.96912" lon="-13.53757">
        <ele>-3.8</ele>
        <time>2021-07-02 12:55:48</time>
      </trkpt>
      <trkpt lat="28.96915" lon="-13.53754">
        <ele>-3.8</ele>
        <time>2021-07-02 12:55:49</time>
      </trkpt>
      <trkpt lat="28.96918" lon="-13.5375">
        <ele>-3.8</ele>
        <time>2021-07-02 12:55:50</time>
      </trkpt>
      <trkpt lat="28.96919" lon="-13.53745">
        <ele>-3.8</ele>
        <time>2021-07-02 12:55:51</time>
      </trkpt>
      <trkpt lat="28.9692" lon="-13.53741">
        <ele>-3.8</ele>
        <time>2021-07-02 12:55:52</time>
      </trkpt>
      <trkpt lat="28.9692" lon="-13.53737">
        <ele>-3.8</ele>
        <time>2021-07-02 12:55:53</time>
      </trkpt>
      <trkpt lat="28.96921" lon="-13.53732">
        <ele>-3.8</ele>
        <time>2021-07-02 12:55:54</time>
      </trkpt>
      <trkpt lat="28.96923" lon="-13.53727">
        <ele>-3.8</ele>
        <time>2021-07-02 12:55:55</time>
      </trkpt>
      <trkpt lat="28.96924" lon="-13.53722">
        <ele>-3.8</ele>
        <time>2021-07-02 12:55:56</time>
      </trkpt>
      <trkpt lat="28.96925" lon="-13.53717">
        <ele>-3.8</ele>
        <time>2021-07-02 12:55:57</time>
      </trkpt>
      <trkpt lat="28.96927" lon="-13.53712">
        <ele>-3.8</ele>
        <time>2021-07-02 12:55:58</time>
      </trkpt>
      <trkpt lat="28.96928" lon="-13.53707">
        <ele>-3.6</ele>
        <time>2021-07-02 12:55:59</time>
      </trkpt>
      <trkpt lat="28.96929" lon="-13.53702">
        <ele>-3.6</ele>
        <time>2021-07-02 12:56:00</time>
      </trkpt>
      <trkpt lat="28.96931" lon="-13.53697">
        <ele>-3.6</ele>
        <time>2021-07-02 12:56:01</time>
      </trkpt>
      <trkpt lat="28.96932" lon="-13.53692">
        <ele>-3.6</ele>
        <time>2021-07-02 12:56:02</time>
      </trkpt>
      <trkpt lat="28.96933" lon="-13.53687">
        <ele>-3.6</ele>
        <time>2021-07-02 12:56:03</time>
      </trkpt>
      <trkpt lat="28.96935" lon="-13.53683">
        <ele>-3.6</ele>
        <time>2021-07-02 12:56:04</time>
      </trkpt>
      <trkpt lat="28.96937" lon="-13.53677">
        <ele>-3.2</ele>
        <time>2021-07-02 12:56:05</time>
      </trkpt>
      <trkpt lat="28.96939" lon="-13.53673">
        <ele>-3.2</ele>
        <time>2021-07-02 12:56:06</time>
      </trkpt>
      <trkpt lat="28.96944" lon="-13.5367">
        <ele>-3.2</ele>
        <time>2021-07-02 12:56:07</time>
      </trkpt>
      <trkpt lat="28.96948" lon="-13.5367">
        <ele>-3.2</ele>
        <time>2021-07-02 12:56:08</time>
      </trkpt>
      <trkpt lat="28.96951" lon="-13.53671">
        <ele>-3</ele>
        <time>2021-07-02 12:56:09</time>
      </trkpt>
      <trkpt lat="28.96955" lon="-13.53671">
        <ele>-3</ele>
        <time>2021-07-02 12:56:10</time>
      </trkpt>
      <trkpt lat="28.96958" lon="-13.53671">
        <ele>-2.6</ele>
        <time>2021-07-02 12:56:11</time>
      </trkpt>
      <trkpt lat="28.96961" lon="-13.53671">
        <ele>-2.6</ele>
        <time>2021-07-02 12:56:12</time>
      </trkpt>
      <trkpt lat="28.96964" lon="-13.5367">
        <ele>-2.2</ele>
        <time>2021-07-02 12:56:13</time>
      </trkpt>
      <trkpt lat="28.96967" lon="-13.53669">
        <ele>-1.8</ele>
        <time>2021-07-02 12:56:14</time>
      </trkpt>
      <trkpt lat="28.9697" lon="-13.53667">
        <ele>-1.6</ele>
        <time>2021-07-02 12:56:15</time>
      </trkpt>
      <trkpt lat="28.96972" lon="-13.53664">
        <ele>-1.2</ele>
        <time>2021-07-02 12:56:16</time>
      </trkpt>
      <trkpt lat="28.96973" lon="-13.53662">
        <ele>-0.8</ele>
        <time>2021-07-02 12:56:17</time>
      </trkpt>
      <trkpt lat="28.96975" lon="-13.53659">
        <ele>-0.8</ele>
        <time>2021-07-02 12:56:18</time>
      </trkpt>
      <trkpt lat="28.96977" lon="-13.53656">
        <ele>-0.6</ele>
        <time>2021-07-02 12:56:19</time>
      </trkpt>
      <trkpt lat="28.96979" lon="-13.53653">
        <ele>-0.6</ele>
        <time>2021-07-02 12:56:20</time>
      </trkpt>
      <trkpt lat="28.96982" lon="-13.5365">
        <ele>-0.6</ele>
        <time>2021-07-02 12:56:21</time>
      </trkpt>
      <trkpt lat="28.96984" lon="-13.53647">
        <ele>-0.6</ele>
        <time>2021-07-02 12:56:22</time>
      </trkpt>
      <trkpt lat="28.96986" lon="-13.53643">
        <ele>-0.6</ele>
        <time>2021-07-02 12:56:23</time>
      </trkpt>
      <trkpt lat="28.96987" lon="-13.5364">
        <ele>-0.6</ele>
        <time>2021-07-02 12:56:24</time>
      </trkpt>
      <trkpt lat="28.9699" lon="-13.53636">
        <ele>-0.6</ele>
        <time>2021-07-02 12:56:25</time>
      </trkpt>
      <trkpt lat="28.96992" lon="-13.53633">
        <ele>-0.6</ele>
        <time>2021-07-02 12:56:26</time>
      </trkpt>
      <trkpt lat="28.96994" lon="-13.5363">
        <ele>-0.6</ele>
        <time>2021-07-02 12:56:27</time>
      </trkpt>
      <trkpt lat="28.96996" lon="-13.53626">
        <ele>-0.4</ele>
        <time>2021-07-02 12:56:28</time>
      </trkpt>
      <trkpt lat="28.96998" lon="-13.53623">
        <ele>-0.4</ele>
        <time>2021-07-02 12:56:29</time>
      </trkpt>
      <trkpt lat="28.97" lon="-13.5362">
        <ele>-0.4</ele>
        <time>2021-07-02 12:56:30</time>
      </trkpt>
      <trkpt lat="28.97002" lon="-13.53617">
        <ele>-0.4</ele>
        <time>2021-07-02 12:56:31</time>
      </trkpt>
      <trkpt lat="28.97004" lon="-13.53613">
        <ele>-0.4</ele>
        <time>2021-07-02 12:56:32</time>
      </trkpt>
      <trkpt lat="28.97006" lon="-13.5361">
        <time>2021-07-02 12:56:33</time>
      </trkpt>
      <trkpt lat="28.97008" lon="-13.53607">
        <time>2021-07-02 12:56:34</time>
      </trkpt>
      <trkpt lat="28.9701" lon="-13.53604">
        <time>2021-07-02 12:56:35</time>
      </trkpt>
      <trkpt lat="28.97012" lon="-13.53601">
        <ele>0.2</ele>
        <time>2021-07-02 12:56:36</time>
      </trkpt>
      <trkpt lat="28.97014" lon="-13.53598">
        <ele>0.2</ele>
        <time>2021-07-02 12:56:37</time>
      </trkpt>
      <trkpt lat="28.97016" lon="-13.53595">
        <ele>0.2</ele>
        <time>2021-07-02 12:56:38</time>
      </trkpt>
      <trkpt lat="28.97019" lon="-13.53592">
        <ele>0.4</ele>
        <time>2021-07-02 12:56:39</time>
      </trkpt>
      <trkpt lat="28.97021" lon="-13.53589">
        <ele>0.4</ele>
        <time>2021-07-02 12:56:40</time>
      </trkpt>
      <trkpt lat="28.97023" lon="-13.53586">
        <ele>0.8</ele>
        <time>2021-07-02 12:56:41</time>
      </trkpt>
      <trkpt lat="28.97024" lon="-13.53584">
        <ele>0.8</ele>
        <time>2021-07-02 12:56:42</time>
      </trkpt>
      <trkpt lat="28.97026" lon="-13.53581">
        <ele>1</ele>
        <time>2021-07-02 12:56:43</time>
      </trkpt>
      <trkpt lat="28.97027" lon="-13.53578">
        <ele>1</ele>
        <time>2021-07-02 12:56:44</time>
      </trkpt>
      <trkpt lat="28.97028" lon="-13.53575">
        <ele>1.4</ele>
        <time>2021-07-02 12:56:45</time>
      </trkpt>
      <trkpt lat="28.97029" lon="-13.53572">
        <ele>1.4</ele>
        <time>2021-07-02 12:56:46</time>
      </trkpt>
      <trkpt lat="28.9703" lon="-13.53569">
        <ele>1.6</ele>
        <time>2021-07-02 12:56:47</time>
      </trkpt>
      <trkpt lat="28.9703" lon="-13.53566">
        <ele>1.6</ele>
        <time>2021-07-02 12:56:48</time>
      </trkpt>
      <trkpt lat="28.9703" lon="-13.53562">
        <ele>2</ele>
        <time>2021-07-02 12:56:49</time>
      </trkpt>
      <trkpt lat="28.97031" lon="-13.53559">
        <ele>2.2</ele>
        <time>2021-07-02 12:56:50</time>
      </trkpt>
      <trkpt lat="28.97031" lon="-13.53556">
        <ele>2.4</ele>
        <time>2021-07-02 12:56:51</time>
      </trkpt>
      <trkpt lat="28.97032" lon="-13.53553">
        <ele>2.4</ele>
        <time>2021-07-02 12:56:52</time>
      </trkpt>
      <trkpt lat="28.97033" lon="-13.5355">
        <ele>3</ele>
        <time>2021-07-02 12:56:53</time>
      </trkpt>
      <trkpt lat="28.97034" lon="-13.53547">
        <ele>3</ele>
        <time>2021-07-02 12:56:54</time>
      </trkpt>
      <trkpt lat="28.97035" lon="-13.53543">
        <ele>3.4</ele>
        <time>2021-07-02 12:56:55</time>
      </trkpt>
      <trkpt lat="28.97036" lon="-13.5354">
        <ele>3.6</ele>
        <time>2021-07-02 12:56:56</time>
      </trkpt>
      <trkpt lat="28.97038" lon="-13.53537">
        <ele>3.8</ele>
        <time>2021-07-02 12:56:57</time>
      </trkpt>
      <trkpt lat="28.97039" lon="-13.53534">
        <ele>4</ele>
        <time>2021-07-02 12:56:58</time>
      </trkpt>
      <trkpt lat="28.9704" lon="-13.53531">
        <ele>4.2</ele>
        <time>2021-07-02 12:56:59</time>
      </trkpt>
      <trkpt lat="28.97041" lon="-13.53528">
        <ele>4.6</ele>
        <time>2021-07-02 12:57:00</time>
      </trkpt>
      <trkpt lat="28.97043" lon="-13.53525">
        <ele>4.8</ele>
        <time>2021-07-02 12:57:01</time>
      </trkpt>
      <trkpt lat="28.97046" lon="-13.53523">
        <ele>5</ele>
        <time>2021-07-02 12:57:02</time>
      </trkpt>
      <trkpt lat="28.97048" lon="-13.5352">
        <ele>5</ele>
        <time>2021-07-02 12:57:03</time>
      </trkpt>
      <trkpt lat="28.9705" lon="-13.53517">
        <ele>5.4</ele>
        <time>2021-07-02 12:57:04</time>
      </trkpt>
      <trkpt lat="28.97051" lon="-13.53514">
        <ele>5.6</ele>
        <time>2021-07-02 12:57:05</time>
      </trkpt>
      <trkpt lat="28.97053" lon="-13.53511">
        <ele>5.6</ele>
        <time>2021-07-02 12:57:06</time>
      </trkpt>
      <trkpt lat="28.97054" lon="-13.53508">
        <ele>5.8</ele>
        <time>2021-07-02 12:57:07</time>
      </trkpt>
      <trkpt lat="28.97055" lon="-13.53504">
        <ele>5.8</ele>
        <time>2021-07-02 12:57:08</time>
      </trkpt>
      <trkpt lat="28.97057" lon="-13.53501">
        <ele>6</ele>
        <time>2021-07-02 12:57:09</time>
      </trkpt>
      <trkpt lat="28.97058" lon="-13.53498">
        <ele>6</ele>
        <time>2021-07-02 12:57:10</time>
      </trkpt>
      <trkpt lat="28.9706" lon="-13.53494">
        <ele>6.2</ele>
        <time>2021-07-02 12:57:11</time>
      </trkpt>
      <trkpt lat="28.97061" lon="-13.53491">
        <ele>6.2</ele>
        <time>2021-07-02 12:57:12</time>
      </trkpt>
      <trkpt lat="28.97063" lon="-13.53488">
        <ele>6.6</ele>
        <time>2021-07-02 12:57:13</time>
      </trkpt>
      <trkpt lat="28.97065" lon="-13.53485">
        <ele>6.6</ele>
        <time>2021-07-02 12:57:14</time>
      </trkpt>
      <trkpt lat="28.97067" lon="-13.53482">
        <ele>6.8</ele>
        <time>2021-07-02 12:57:15</time>
      </trkpt>
      <trkpt lat="28.97069" lon="-13.53479">
        <ele>6.8</ele>
        <time>2021-07-02 12:57:16</time>
      </trkpt>
      <trkpt lat="28.97071" lon="-13.53475">
        <ele>7</ele>
        <time>2021-07-02 12:57:17</time>
      </trkpt>
      <trkpt lat="28.97074" lon="-13.53472">
        <ele>7</ele>
        <time>2021-07-02 12:57:18</time>
      </trkpt>
      <trkpt lat="28.97076" lon="-13.53469">
        <ele>7</ele>
        <time>2021-07-02 12:57:19</time>
      </trkpt>
      <trkpt lat="28.97078" lon="-13.53466">
        <ele>7</ele>
        <time>2021-07-02 12:57:20</time>
      </trkpt>
      <trkpt lat="28.97081" lon="-13.53463">
        <ele>7.2</ele>
        <time>2021-07-02 12:57:21</time>
      </trkpt>
      <trkpt lat="28.97083" lon="-13.53461">
        <ele>7.2</ele>
        <time>2021-07-02 12:57:22</time>
      </trkpt>
      <trkpt lat="28.97086" lon="-13.53458">
        <ele>7.2</ele>
        <time>2021-07-02 12:57:23</time>
      </trkpt>
      <trkpt lat="28.97089" lon="-13.53456">
        <ele>7.2</ele>
        <time>2021-07-02 12:57:24</time>
      </trkpt>
      <trkpt lat="28.97092" lon="-13.53453">
        <ele>7.6</ele>
        <time>2021-07-02 12:57:25</time>
      </trkpt>
      <trkpt lat="28.97095" lon="-13.5345">
        <ele>7.6</ele>
        <time>2021-07-02 12:57:26</time>
      </trkpt>
      <trkpt lat="28.97098" lon="-13.53448">
        <ele>7.6</ele>
        <time>2021-07-02 12:57:27</time>
      </trkpt>
      <trkpt lat="28.971" lon="-13.53445">
        <ele>7.8</ele>
        <time>2021-07-02 12:57:28</time>
      </trkpt>
      <trkpt lat="28.97103" lon="-13.53442">
        <ele>7.8</ele>
        <time>2021-07-02 12:57:29</time>
      </trkpt>
      <trkpt lat="28.97106" lon="-13.5344">
        <ele>7.8</ele>
        <time>2021-07-02 12:57:30</time>
      </trkpt>
      <trkpt lat="28.97108" lon="-13.53437">
        <ele>7.8</ele>
        <time>2021-07-02 12:57:31</time>
      </trkpt>
      <trkpt lat="28.97111" lon="-13.53434">
        <ele>7.8</ele>
        <time>2021-07-02 12:57:32</time>
      </trkpt>
      <trkpt lat="28.97113" lon="-13.53431">
        <ele>8.2</ele>
        <time>2021-07-02 12:57:33</time>
      </trkpt>
      <trkpt lat="28.97116" lon="-13.53428">
        <ele>8.2</ele>
        <time>2021-07-02 12:57:34</time>
      </trkpt>
      <trkpt lat="28.97118" lon="-13.53425">
        <ele>8.4</ele>
        <time>2021-07-02 12:57:35</time>
      </trkpt>
      <trkpt lat="28.97121" lon="-13.53422">
        <ele>8.4</ele>
        <time>2021-07-02 12:57:36</time>
      </trkpt>
      <trkpt lat="28.97123" lon="-13.5342">
        <ele>8.6</ele>
        <time>2021-07-02 12:57:37</time>
      </trkpt>
      <trkpt lat="28.97126" lon="-13.53417">
        <ele>8.6</ele>
        <time>2021-07-02 12:57:38</time>
      </trkpt>
      <trkpt lat="28.97129" lon="-13.53415">
        <ele>8.6</ele>
        <time>2021-07-02 12:57:39</time>
      </trkpt>
      <trkpt lat="28.97131" lon="-13.53412">
        <ele>8.6</ele>
        <time>2021-07-02 12:57:40</time>
      </trkpt>
      <trkpt lat="28.97134" lon="-13.53409">
        <ele>9</ele>
        <time>2021-07-02 12:57:41</time>
      </trkpt>
      <trkpt lat="28.97136" lon="-13.53407">
        <ele>9</ele>
        <time>2021-07-02 12:57:42</time>
      </trkpt>
      <trkpt lat="28.97139" lon="-13.53404">
        <ele>9.2</ele>
        <time>2021-07-02 12:57:43</time>
      </trkpt>
      <trkpt lat="28.97141" lon="-13.53401">
        <ele>9.2</ele>
        <time>2021-07-02 12:57:44</time>
      </trkpt>
      <trkpt lat="28.97144" lon="-13.53399">
        <ele>9.6</ele>
        <time>2021-07-02 12:57:45</time>
      </trkpt>
      <trkpt lat="28.97146" lon="-13.53396">
        <ele>9.6</ele>
        <time>2021-07-02 12:57:46</time>
      </trkpt>
      <trkpt lat="28.97149" lon="-13.53393">
        <ele>9.8</ele>
        <time>2021-07-02 12:57:47</time>
      </trkpt>
      <trkpt lat="28.97151" lon="-13.53391">
        <ele>9.8</ele>
        <time>2021-07-02 12:57:48</time>
      </trkpt>
      <trkpt lat="28.97154" lon="-13.53388">
        <ele>10</ele>
        <time>2021-07-02 12:57:49</time>
      </trkpt>
      <trkpt lat="28.97156" lon="-13.53385">
        <ele>10</ele>
        <time>2021-07-02 12:57:50</time>
      </trkpt>
      <trkpt lat="28.97159" lon="-13.53383">
        <ele>10.4</ele>
        <time>2021-07-02 12:57:51</time>
      </trkpt>
      <trkpt lat="28.97161" lon="-13.5338">
        <ele>10.6</ele>
        <time>2021-07-02 12:57:52</time>
      </trkpt>
      <trkpt lat="28.97163" lon="-13.53377">
        <ele>10.6</ele>
        <time>2021-07-02 12:57:53</time>
      </trkpt>
      <trkpt lat="28.97165" lon="-13.53375">
        <ele>11</ele>
        <time>2021-07-02 12:57:54</time>
      </trkpt>
      <trkpt lat="28.97168" lon="-13.53372">
        <ele>11</ele>
        <time>2021-07-02 12:57:55</time>
      </trkpt>
      <trkpt lat="28.9717" lon="-13.53369">
        <ele>11</ele>
        <time>2021-07-02 12:57:56</time>
      </trkpt>
      <trkpt lat="28.97172" lon="-13.53366">
        <ele>11.2</ele>
        <time>2021-07-02 12:57:57</time>
      </trkpt>
      <trkpt lat="28.97174" lon="-13.53363">
        <ele>11.2</ele>
        <time>2021-07-02 12:57:58</time>
      </trkpt>
      <trkpt lat="28.97176" lon="-13.5336">
        <ele>11.6</ele>
        <time>2021-07-02 12:57:59</time>
      </trkpt>
      <trkpt lat="28.97178" lon="-13.53357">
        <ele>11.8</ele>
        <time>2021-07-02 12:58:00</time>
      </trkpt>
      <trkpt lat="28.9718" lon="-13.53354">
        <ele>12</ele>
        <time>2021-07-02 12:58:01</time>
      </trkpt>
      <trkpt lat="28.97182" lon="-13.53351">
        <ele>12</ele>
        <time>2021-07-02 12:58:02</time>
      </trkpt>
      <trkpt lat="28.97185" lon="-13.53348">
        <ele>12.4</ele>
        <time>2021-07-02 12:58:03</time>
      </trkpt>
      <trkpt lat="28.97187" lon="-13.53345">
        <ele>12.6</ele>
        <time>2021-07-02 12:58:04</time>
      </trkpt>
      <trkpt lat="28.97188" lon="-13.53342">
        <ele>12.6</ele>
        <time>2021-07-02 12:58:05</time>
      </trkpt>
      <trkpt lat="28.97191" lon="-13.53339">
        <ele>12.8</ele>
        <time>2021-07-02 12:58:06</time>
      </trkpt>
      <trkpt lat="28.97193" lon="-13.53337">
        <ele>12.8</ele>
        <time>2021-07-02 12:58:07</time>
      </trkpt>
      <trkpt lat="28.97195" lon="-13.53334">
        <ele>13.2</ele>
        <time>2021-07-02 12:58:08</time>
      </trkpt>
      <trkpt lat="28.97197" lon="-13.53331">
        <ele>13.2</ele>
        <time>2021-07-02 12:58:09</time>
      </trkpt>
      <trkpt lat="28.97199" lon="-13.53327">
        <ele>13.4</ele>
        <time>2021-07-02 12:58:10</time>
      </trkpt>
      <trkpt lat="28.972" lon="-13.53324">
        <ele>13.4</ele>
        <time>2021-07-02 12:58:11</time>
      </trkpt>
      <trkpt lat="28.97202" lon="-13.53321">
        <ele>13.6</ele>
        <time>2021-07-02 12:58:12</time>
      </trkpt>
      <trkpt lat="28.97204" lon="-13.53318">
        <ele>13.6</ele>
        <time>2021-07-02 12:58:13</time>
      </trkpt>
      <trkpt lat="28.97206" lon="-13.53315">
        <ele>13.8</ele>
        <time>2021-07-02 12:58:14</time>
      </trkpt>
      <trkpt lat="28.97208" lon="-13.53312">
        <ele>13.8</ele>
        <time>2021-07-02 12:58:15</time>
      </trkpt>
      <trkpt lat="28.97211" lon="-13.53309">
        <ele>13.8</ele>
        <time>2021-07-02 12:58:16</time>
      </trkpt>
      <trkpt lat="28.97213" lon="-13.53306">
        <ele>13.8</ele>
        <time>2021-07-02 12:58:17</time>
      </trkpt>
      <trkpt lat="28.97215" lon="-13.53303">
        <ele>13.8</ele>
        <time>2021-07-02 12:58:18</time>
      </trkpt>
      <trkpt lat="28.97217" lon="-13.53299">
        <ele>13.8</ele>
        <time>2021-07-02 12:58:19</time>
      </trkpt>
      <trkpt lat="28.9722" lon="-13.53296">
        <ele>13.8</ele>
        <time>2021-07-02 12:58:20</time>
      </trkpt>
      <trkpt lat="28.97222" lon="-13.53293">
        <ele>13.8</ele>
        <time>2021-07-02 12:58:21</time>
      </trkpt>
      <trkpt lat="28.97224" lon="-13.5329">
        <ele>13.8</ele>
        <time>2021-07-02 12:58:22</time>
      </trkpt>
      <trkpt lat="28.97227" lon="-13.53287">
        <ele>14.2</ele>
        <time>2021-07-02 12:58:23</time>
      </trkpt>
      <trkpt lat="28.97229" lon="-13.53284">
        <ele>14.2</ele>
        <time>2021-07-02 12:58:24</time>
      </trkpt>
      <trkpt lat="28.97232" lon="-13.53282">
        <ele>14.4</ele>
        <time>2021-07-02 12:58:25</time>
      </trkpt>
      <trkpt lat="28.97234" lon="-13.53279">
        <ele>14.4</ele>
        <time>2021-07-02 12:58:26</time>
      </trkpt>
      <trkpt lat="28.97237" lon="-13.53276">
        <ele>14.6</ele>
        <time>2021-07-02 12:58:27</time>
      </trkpt>
      <trkpt lat="28.9724" lon="-13.53274">
        <ele>14.6</ele>
        <time>2021-07-02 12:58:28</time>
      </trkpt>
      <trkpt lat="28.97243" lon="-13.53271">
        <ele>15</ele>
        <time>2021-07-02 12:58:29</time>
      </trkpt>
      <trkpt lat="28.97245" lon="-13.53269">
        <ele>15</ele>
        <time>2021-07-02 12:58:30</time>
      </trkpt>
      <trkpt lat="28.97248" lon="-13.53266">
        <ele>15.2</ele>
        <time>2021-07-02 12:58:31</time>
      </trkpt>
      <trkpt lat="28.97251" lon="-13.53264">
        <ele>15.2</ele>
        <time>2021-07-02 12:58:32</time>
      </trkpt>
      <trkpt lat="28.97254" lon="-13.53262">
        <ele>15.6</ele>
        <time>2021-07-02 12:58:33</time>
      </trkpt>
      <trkpt lat="28.97256" lon="-13.53259">
        <ele>14.6</ele>
        <time>2021-07-02 12:58:34</time>
      </trkpt>
      <trkpt lat="28.97259" lon="-13.53257">
        <ele>15</ele>
        <time>2021-07-02 12:58:35</time>
      </trkpt>
      <trkpt lat="28.97261" lon="-13.53255">
        <ele>15</ele>
        <time>2021-07-02 12:58:36</time>
      </trkpt>
      <trkpt lat="28.97263" lon="-13.53253">
        <ele>15</ele>
        <time>2021-07-02 12:58:37</time>
      </trkpt>
      <trkpt lat="28.97265" lon="-13.53251">
        <ele>15</ele>
        <time>2021-07-02 12:58:38</time>
      </trkpt>
      <trkpt lat="28.97267" lon="-13.53249">
        <ele>14.8</ele>
        <time>2021-07-02 12:58:39</time>
      </trkpt>
      <trkpt lat="28.97269" lon="-13.53246">
        <ele>14.8</ele>
        <time>2021-07-02 12:58:40</time>
      </trkpt>
      <trkpt lat="28.9727" lon="-13.53243">
        <ele>14.6</ele>
        <time>2021-07-02 12:58:41</time>
      </trkpt>
      <trkpt lat="28.9727" lon="-13.53239">
        <ele>14.6</ele>
        <time>2021-07-02 12:58:42</time>
      </trkpt>
      <trkpt lat="28.97271" lon="-13.53235">
        <ele>14.2</ele>
        <time>2021-07-02 12:58:43</time>
      </trkpt>
      <trkpt lat="28.97272" lon="-13.53229">
        <ele>14</ele>
        <time>2021-07-02 12:58:44</time>
      </trkpt>
      <trkpt lat="28.97274" lon="-13.53224">
        <ele>14</ele>
        <time>2021-07-02 12:58:45</time>
      </trkpt>
      <trkpt lat="28.97277" lon="-13.53219">
        <ele>13.6</ele>
        <time>2021-07-02 12:58:46</time>
      </trkpt>
      <trkpt lat="28.97283" lon="-13.53217">
        <ele>13.6</ele>
        <time>2021-07-02 12:58:47</time>
      </trkpt>
      <trkpt lat="28.97287" lon="-13.53214">
        <ele>13.4</ele>
        <time>2021-07-02 12:58:48</time>
      </trkpt>
      <trkpt lat="28.97291" lon="-13.53212">
        <ele>13.4</ele>
        <time>2021-07-02 12:58:49</time>
      </trkpt>
      <trkpt lat="28.97295" lon="-13.53211">
        <ele>13.4</ele>
        <time>2021-07-02 12:58:50</time>
      </trkpt>
      <trkpt lat="28.97299" lon="-13.5321">
        <ele>13</ele>
        <time>2021-07-02 12:58:51</time>
      </trkpt>
      <trkpt lat="28.97302" lon="-13.5321">
        <ele>13</ele>
        <time>2021-07-02 12:58:52</time>
      </trkpt>
      <trkpt lat="28.97305" lon="-13.53209">
        <ele>13</ele>
        <time>2021-07-02 12:58:53</time>
      </trkpt>
      <trkpt lat="28.97309" lon="-13.53208">
        <ele>12.8</ele>
        <time>2021-07-02 12:58:54</time>
      </trkpt>
      <trkpt lat="28.97312" lon="-13.53208">
        <ele>12.8</ele>
        <time>2021-07-02 12:58:55</time>
      </trkpt>
      <trkpt lat="28.97315" lon="-13.53208">
        <ele>12.8</ele>
        <time>2021-07-02 12:58:56</time>
      </trkpt>
      <trkpt lat="28.97319" lon="-13.53208">
        <ele>12.8</ele>
        <time>2021-07-02 12:58:57</time>
      </trkpt>
      <trkpt lat="28.97322" lon="-13.53209">
        <ele>12.6</ele>
        <time>2021-07-02 12:58:58</time>
      </trkpt>
      <trkpt lat="28.97326" lon="-13.53209">
        <ele>12.6</ele>
        <time>2021-07-02 12:58:59</time>
      </trkpt>
      <trkpt lat="28.9733" lon="-13.53209">
        <ele>12.4</ele>
        <time>2021-07-02 12:59:00</time>
      </trkpt>
      <trkpt lat="28.97334" lon="-13.5321">
        <ele>12.4</ele>
        <time>2021-07-02 12:59:01</time>
      </trkpt>
      <trkpt lat="28.97338" lon="-13.5321">
        <ele>12.2</ele>
        <time>2021-07-02 12:59:02</time>
      </trkpt>
      <trkpt lat="28.97342" lon="-13.53209">
        <ele>12.2</ele>
        <time>2021-07-02 12:59:03</time>
      </trkpt>
      <trkpt lat="28.97346" lon="-13.53208">
        <ele>11.8</ele>
        <time>2021-07-02 12:59:04</time>
      </trkpt>
      <trkpt lat="28.9735" lon="-13.53206">
        <ele>11.6</ele>
        <time>2021-07-02 12:59:05</time>
      </trkpt>
      <trkpt lat="28.97354" lon="-13.53203">
        <ele>11.2</ele>
        <time>2021-07-02 12:59:06</time>
      </trkpt>
      <trkpt lat="28.97356" lon="-13.532">
        <ele>11</ele>
        <time>2021-07-02 12:59:07</time>
      </trkpt>
      <trkpt lat="28.97359" lon="-13.53197">
        <ele>10.6</ele>
        <time>2021-07-02 12:59:08</time>
      </trkpt>
      <trkpt lat="28.9736" lon="-13.53193">
        <ele>10.2</ele>
        <time>2021-07-02 12:59:09</time>
      </trkpt>
      <trkpt lat="28.97361" lon="-13.53189">
        <ele>10</ele>
        <time>2021-07-02 12:59:10</time>
      </trkpt>
      <trkpt lat="28.97361" lon="-13.53187">
        <ele>9.8</ele>
        <time>2021-07-02 12:59:11</time>
      </trkpt>
      <trkpt lat="28.97361" lon="-13.53181">
        <ele>8.2</ele>
        <time>2021-07-02 12:59:12</time>
      </trkpt>
      <trkpt lat="28.97361" lon="-13.53179">
        <ele>7.8</ele>
        <time>2021-07-02 12:59:13</time>
      </trkpt>
      <trkpt lat="28.97362" lon="-13.53176">
        <ele>7.8</ele>
        <time>2021-07-02 12:59:14</time>
      </trkpt>
      <trkpt lat="28.97363" lon="-13.53172">
        <ele>7.4</ele>
        <time>2021-07-02 12:59:15</time>
      </trkpt>
      <trkpt lat="28.97362" lon="-13.53167">
        <ele>7.4</ele>
        <time>2021-07-02 12:59:16</time>
      </trkpt>
      <trkpt lat="28.9736" lon="-13.53163">
        <ele>7.2</ele>
        <time>2021-07-02 12:59:17</time>
      </trkpt>
      <trkpt lat="28.97359" lon="-13.53158">
        <ele>7.2</ele>
        <time>2021-07-02 12:59:18</time>
      </trkpt>
      <trkpt lat="28.9736" lon="-13.53153">
        <ele>6.8</ele>
        <time>2021-07-02 12:59:19</time>
      </trkpt>
      <trkpt lat="28.97361" lon="-13.53149">
        <ele>6.8</ele>
        <time>2021-07-02 12:59:20</time>
      </trkpt>
      <trkpt lat="28.97363" lon="-13.53145">
        <ele>6.6</ele>
        <time>2021-07-02 12:59:21</time>
      </trkpt>
      <trkpt lat="28.97366" lon="-13.53142">
        <ele>6.6</ele>
        <time>2021-07-02 12:59:26</time>
      </trkpt>
      <trkpt lat="28.97368" lon="-13.5314">
        <ele>6.2</ele>
        <time>2021-07-02 12:59:27</time>
      </trkpt>
      <trkpt lat="28.9737" lon="-13.53138">
        <ele>6</ele>
        <time>2021-07-02 12:59:28</time>
      </trkpt>
      <trkpt lat="28.97368" lon="-13.53136">
        <ele>5.8</ele>
        <time>2021-07-02 12:59:29</time>
      </trkpt>
      <trkpt lat="28.97367" lon="-13.53136">
        <ele>5.6</ele>
        <time>2021-07-02 12:59:30</time>
      </trkpt>
      <trkpt lat="28.97365" lon="-13.53138">
        <ele>5.2</ele>
        <time>2021-07-02 12:59:31</time>
      </trkpt>
      <trkpt lat="28.97361" lon="-13.53142">
        <ele>4.6</ele>
        <time>2021-07-02 12:59:32</time>
      </trkpt>
      <trkpt lat="28.97358" lon="-13.53144">
        <ele>4.2</ele>
        <time>2021-07-02 12:59:33</time>
      </trkpt>
      <trkpt lat="28.97357" lon="-13.53149">
        <ele>3.8</ele>
        <time>2021-07-02 12:59:34</time>
      </trkpt>
      <trkpt lat="28.97356" lon="-13.53154">
        <ele>3.6</ele>
        <time>2021-07-02 12:59:35</time>
      </trkpt>
      <trkpt lat="28.97355" lon="-13.53158">
        <ele>3.4</ele>
        <time>2021-07-02 12:59:36</time>
      </trkpt>
      <trkpt lat="28.97354" lon="-13.53163">
        <ele>3.4</ele>
        <time>2021-07-02 12:59:37</time>
      </trkpt>
      <trkpt lat="28.97352" lon="-13.53168">
        <ele>3.2</ele>
        <time>2021-07-02 12:59:38</time>
      </trkpt>
      <trkpt lat="28.9735" lon="-13.53172">
        <ele>3.2</ele>
        <time>2021-07-02 12:59:39</time>
      </trkpt>
      <trkpt lat="28.97348" lon="-13.53175">
        <ele>2.6</ele>
        <time>2021-07-02 12:59:40</time>
      </trkpt>
      <trkpt lat="28.97347" lon="-13.53178">
        <ele>2.4</ele>
        <time>2021-07-02 12:59:41</time>
      </trkpt>
      <trkpt lat="28.97345" lon="-13.5318">
        <ele>2.2</ele>
        <time>2021-07-02 12:59:42</time>
      </trkpt>
      <trkpt lat="28.97343" lon="-13.53181">
        <ele>2</ele>
        <time>2021-07-02 12:59:43</time>
      </trkpt>
      <trkpt lat="28.97342" lon="-13.53179">
        <ele>1.6</ele>
        <time>2021-07-02 12:59:44</time>
      </trkpt>
      <trkpt lat="28.97342" lon="-13.53177">
        <ele>1.4</ele>
        <time>2021-07-02 12:59:45</time>
      </trkpt>
      <trkpt lat="28.97344" lon="-13.53175">
        <ele>1.2</ele>
        <time>2021-07-02 12:59:46</time>
      </trkpt>
      <trkpt lat="28.97346" lon="-13.53173">
        <ele>1</ele>
        <time>2021-07-02 12:59:47</time>
      </trkpt>
      <trkpt lat="28.97348" lon="-13.5317">
        <ele>0.8</ele>
        <time>2021-07-02 12:59:48</time>
      </trkpt>
      <trkpt lat="28.9735" lon="-13.53167">
        <ele>0.4</ele>
        <time>2021-07-02 12:59:49</time>
      </trkpt>
      <trkpt lat="28.97352" lon="-13.53162">
        <ele>0.2</ele>
        <time>2021-07-02 12:59:50</time>
      </trkpt>
      <trkpt lat="28.97353" lon="-13.53157">
        <ele>0.2</ele>
        <time>2021-07-02 12:59:51</time>
      </trkpt>
      <trkpt lat="28.97354" lon="-13.53153">
        <ele>-0.2</ele>
        <time>2021-07-02 12:59:52</time>
      </trkpt>
      <trkpt lat="28.97354" lon="-13.53148">
        <ele>-0.4</ele>
        <time>2021-07-02 12:59:53</time>
      </trkpt>
      <trkpt lat="28.97355" lon="-13.53143">
        <ele>-0.8</ele>
        <time>2021-07-02 12:59:54</time>
      </trkpt>
      <trkpt lat="28.9736" lon="-13.5314">
        <ele>-0.8</ele>
        <time>2021-07-02 12:59:55</time>
      </trkpt>
      <trkpt lat="28.97362" lon="-13.53135">
        <ele>-1</ele>
        <time>2021-07-02 12:59:56</time>
      </trkpt>
      <trkpt lat="28.97361" lon="-13.5313">
        <ele>-1</ele>
        <time>2021-07-02 12:59:57</time>
      </trkpt>
      <trkpt lat="28.9736" lon="-13.53124">
        <ele>-1.2</ele>
        <time>2021-07-02 12:59:58</time>
      </trkpt>
      <trkpt lat="28.97358" lon="-13.53119">
        <ele>-1.2</ele>
        <time>2021-07-02 12:59:59</time>
      </trkpt>
      <trkpt lat="28.97357" lon="-13.53113">
        <ele>-1.2</ele>
        <time>2021-07-02 13:00:00</time>
      </trkpt>
      <trkpt lat="28.97355" lon="-13.53108">
        <ele>-1.6</ele>
        <time>2021-07-02 13:00:01</time>
      </trkpt>
      <trkpt lat="28.97354" lon="-13.53103">
        <ele>-1.6</ele>
        <time>2021-07-02 13:00:02</time>
      </trkpt>
      <trkpt lat="28.97353" lon="-13.53098">
        <ele>-1.6</ele>
        <time>2021-07-02 13:00:03</time>
      </trkpt>
      <trkpt lat="28.97351" lon="-13.53094">
        <ele>-1.6</ele>
        <time>2021-07-02 13:00:04</time>
      </trkpt>
      <trkpt lat="28.97349" lon="-13.5309">
        <ele>-1.8</ele>
        <time>2021-07-02 13:00:05</time>
      </trkpt>
      <trkpt lat="28.97348" lon="-13.53086">
        <ele>-1.8</ele>
        <time>2021-07-02 13:00:06</time>
      </trkpt>
      <trkpt lat="28.97348" lon="-13.53082">
        <ele>-1.8</ele>
        <time>2021-07-02 13:00:07</time>
      </trkpt>
      <trkpt lat="28.97347" lon="-13.53078">
        <ele>-1.8</ele>
        <time>2021-07-02 13:00:08</time>
      </trkpt>
      <trkpt lat="28.97347" lon="-13.53073">
        <ele>-1.8</ele>
        <time>2021-07-02 13:00:09</time>
      </trkpt>
      <trkpt lat="28.97347" lon="-13.53068">
        <ele>-1.8</ele>
        <time>2021-07-02 13:00:10</time>
      </trkpt>
      <trkpt lat="28.97346" lon="-13.53063">
        <ele>-1.8</ele>
        <time>2021-07-02 13:00:11</time>
      </trkpt>
      <trkpt lat="28.97346" lon="-13.53059">
        <ele>-1.8</ele>
        <time>2021-07-02 13:00:12</time>
      </trkpt>
      <trkpt lat="28.97346" lon="-13.53054">
        <ele>-1.8</ele>
        <time>2021-07-02 13:00:13</time>
      </trkpt>
      <trkpt lat="28.97345" lon="-13.53049">
        <ele>-1.8</ele>
        <time>2021-07-02 13:00:14</time>
      </trkpt>
      <trkpt lat="28.97345" lon="-13.53044">
        <ele>-1.6</ele>
        <time>2021-07-02 13:00:15</time>
      </trkpt>
      <trkpt lat="28.97345" lon="-13.53039">
        <ele>-1.6</ele>
        <time>2021-07-02 13:00:16</time>
      </trkpt>
      <trkpt lat="28.97345" lon="-13.53034">
        <ele>-1.4</ele>
        <time>2021-07-02 13:00:17</time>
      </trkpt>
      <trkpt lat="28.97345" lon="-13.53029">
        <ele>-1.4</ele>
        <time>2021-07-02 13:00:18</time>
      </trkpt>
      <trkpt lat="28.97345" lon="-13.53024">
        <ele>-1</ele>
        <time>2021-07-02 13:00:19</time>
      </trkpt>
      <trkpt lat="28.97346" lon="-13.53019">
        <ele>-1</ele>
        <time>2021-07-02 13:00:20</time>
      </trkpt>
      <trkpt lat="28.97346" lon="-13.53014">
        <ele>-1</ele>
        <time>2021-07-02 13:00:21</time>
      </trkpt>
      <trkpt lat="28.97347" lon="-13.53009">
        <ele>-1</ele>
        <time>2021-07-02 13:00:22</time>
      </trkpt>
      <trkpt lat="28.97348" lon="-13.53004">
        <ele>-1</ele>
        <time>2021-07-02 13:00:23</time>
      </trkpt>
      <trkpt lat="28.9735" lon="-13.52999">
        <ele>-1</ele>
        <time>2021-07-02 13:00:24</time>
      </trkpt>
      <trkpt lat="28.97352" lon="-13.52995">
        <ele>-1</ele>
        <time>2021-07-02 13:00:25</time>
      </trkpt>
      <trkpt lat="28.97354" lon="-13.5299">
        <ele>-1.4</ele>
        <time>2021-07-02 13:00:26</time>
      </trkpt>
      <trkpt lat="28.97356" lon="-13.52985">
        <ele>-1.4</ele>
        <time>2021-07-02 13:00:27</time>
      </trkpt>
      <trkpt lat="28.97358" lon="-13.5298">
        <ele>-1.6</ele>
        <time>2021-07-02 13:00:28</time>
      </trkpt>
      <trkpt lat="28.9736" lon="-13.52976">
        <ele>-1.6</ele>
        <time>2021-07-02 13:00:29</time>
      </trkpt>
      <trkpt lat="28.97361" lon="-13.52971">
        <ele>-1.6</ele>
        <time>2021-07-02 13:00:30</time>
      </trkpt>
      <trkpt lat="28.97363" lon="-13.52966">
        <ele>-1.6</ele>
        <time>2021-07-02 13:00:31</time>
      </trkpt>
      <trkpt lat="28.97365" lon="-13.52962">
        <ele>-1.6</ele>
        <time>2021-07-02 13:00:32</time>
      </trkpt>
      <trkpt lat="28.97366" lon="-13.52957">
        <ele>-1.6</ele>
        <time>2021-07-02 13:00:33</time>
      </trkpt>
      <trkpt lat="28.97368" lon="-13.52953">
        <ele>-1.6</ele>
        <time>2021-07-02 13:00:34</time>
      </trkpt>
      <trkpt lat="28.97369" lon="-13.52948">
        <ele>-1.6</ele>
        <time>2021-07-02 13:00:35</time>
      </trkpt>
      <trkpt lat="28.97371" lon="-13.52943">
        <ele>-1.4</ele>
        <time>2021-07-02 13:00:36</time>
      </trkpt>
      <trkpt lat="28.97371" lon="-13.52939">
        <ele>-1.4</ele>
        <time>2021-07-02 13:00:37</time>
      </trkpt>
      <trkpt lat="28.97371" lon="-13.52934">
        <ele>-1.4</ele>
        <time>2021-07-02 13:00:38</time>
      </trkpt>
      <trkpt lat="28.97371" lon="-13.52929">
        <ele>-1.4</ele>
        <time>2021-07-02 13:00:39</time>
      </trkpt>
      <trkpt lat="28.9737" lon="-13.52923">
        <ele>-1.4</ele>
        <time>2021-07-02 13:00:40</time>
      </trkpt>
      <trkpt lat="28.97369" lon="-13.52918">
        <ele>-1.4</ele>
        <time>2021-07-02 13:00:41</time>
      </trkpt>
      <trkpt lat="28.97369" lon="-13.52914">
        <ele>-1.4</ele>
        <time>2021-07-02 13:00:42</time>
      </trkpt>
      <trkpt lat="28.97368" lon="-13.52909">
        <ele>-1.4</ele>
        <time>2021-07-02 13:00:43</time>
      </trkpt>
      <trkpt lat="28.97367" lon="-13.52904">
        <ele>-1.4</ele>
        <time>2021-07-02 13:00:44</time>
      </trkpt>
      <trkpt lat="28.97366" lon="-13.529">
        <ele>-1.4</ele>
        <time>2021-07-02 13:00:45</time>
      </trkpt>
      <trkpt lat="28.97364" lon="-13.52896">
        <ele>-1.6</ele>
        <time>2021-07-02 13:00:46</time>
      </trkpt>
      <trkpt lat="28.97363" lon="-13.52891">
        <ele>-1.6</ele>
        <time>2021-07-02 13:00:47</time>
      </trkpt>
      <trkpt lat="28.97362" lon="-13.52887">
        <ele>-1.6</ele>
        <time>2021-07-02 13:00:48</time>
      </trkpt>
      <trkpt lat="28.97361" lon="-13.52882">
        <ele>-1.6</ele>
        <time>2021-07-02 13:00:49</time>
      </trkpt>
      <trkpt lat="28.9736" lon="-13.52878">
        <ele>-1.6</ele>
        <time>2021-07-02 13:00:50</time>
      </trkpt>
      <trkpt lat="28.9736" lon="-13.52874">
        <ele>-1.6</ele>
        <time>2021-07-02 13:00:51</time>
      </trkpt>
      <trkpt lat="28.97359" lon="-13.5287">
        <ele>-1.6</ele>
        <time>2021-07-02 13:00:52</time>
      </trkpt>
      <trkpt lat="28.97358" lon="-13.52866">
        <ele>-1.6</ele>
        <time>2021-07-02 13:00:53</time>
      </trkpt>
      <trkpt lat="28.97357" lon="-13.52863">
        <ele>-1.6</ele>
        <time>2021-07-02 13:00:54</time>
      </trkpt>
      <trkpt lat="28.97356" lon="-13.52861">
        <ele>-1.6</ele>
        <time>2021-07-02 13:00:55</time>
      </trkpt>
      <trkpt lat="28.97355" lon="-13.52858">
        <ele>-1.6</ele>
        <time>2021-07-02 13:00:56</time>
      </trkpt>
      <trkpt lat="28.97355" lon="-13.52855">
        <ele>-1.6</ele>
        <time>2021-07-02 13:00:57</time>
      </trkpt>
      <trkpt lat="28.97356" lon="-13.5285">
        <ele>-1.6</ele>
        <time>2021-07-02 13:00:58</time>
      </trkpt>
      <trkpt lat="28.97357" lon="-13.52846">
        <ele>-1.6</ele>
        <time>2021-07-02 13:00:59</time>
      </trkpt>
      <trkpt lat="28.97356" lon="-13.52841">
        <ele>-1.6</ele>
        <time>2021-07-02 13:01:00</time>
      </trkpt>
      <trkpt lat="28.97356" lon="-13.52837">
        <ele>-1.6</ele>
        <time>2021-07-02 13:01:01</time>
      </trkpt>
      <trkpt lat="28.97357" lon="-13.52833">
        <ele>-2</ele>
        <time>2021-07-02 13:01:02</time>
      </trkpt>
      <trkpt lat="28.97356" lon="-13.52829">
        <ele>-2</ele>
        <time>2021-07-02 13:01:03</time>
      </trkpt>
      <trkpt lat="28.97355" lon="-13.52826">
        <ele>-2</ele>
        <time>2021-07-02 13:01:04</time>
      </trkpt>
      <trkpt lat="28.97355" lon="-13.52823">
        <ele>-2</ele>
        <time>2021-07-02 13:01:05</time>
      </trkpt>
      <trkpt lat="28.97354" lon="-13.5282">
        <ele>-2</ele>
        <time>2021-07-02 13:01:06</time>
      </trkpt>
      <trkpt lat="28.97354" lon="-13.52818">
        <ele>-2</ele>
        <time>2021-07-02 13:01:07</time>
      </trkpt>
      <trkpt lat="28.97354" lon="-13.52815">
        <ele>-2</ele>
        <time>2021-07-02 13:01:08</time>
      </trkpt>
      <trkpt lat="28.97354" lon="-13.52812">
        <ele>-1.6</ele>
        <time>2021-07-02 13:01:09</time>
      </trkpt>
      <trkpt lat="28.97354" lon="-13.52808">
        <ele>-1.6</ele>
        <time>2021-07-02 13:01:10</time>
      </trkpt>
      <trkpt lat="28.97354" lon="-13.52804">
        <ele>-1.6</ele>
        <time>2021-07-02 13:01:11</time>
      </trkpt>
      <trkpt lat="28.97353" lon="-13.528">
        <ele>-1.6</ele>
        <time>2021-07-02 13:01:12</time>
      </trkpt>
      <trkpt lat="28.97353" lon="-13.52796">
        <ele>-1.6</ele>
        <time>2021-07-02 13:01:13</time>
      </trkpt>
      <trkpt lat="28.97353" lon="-13.52792">
        <ele>-1.6</ele>
        <time>2021-07-02 13:01:14</time>
      </trkpt>
      <trkpt lat="28.97354" lon="-13.52789">
        <ele>-1.6</ele>
        <time>2021-07-02 13:01:15</time>
      </trkpt>
      <trkpt lat="28.97354" lon="-13.52785">
        <ele>-1.6</ele>
        <time>2021-07-02 13:01:16</time>
      </trkpt>
      <trkpt lat="28.97355" lon="-13.52781">
        <ele>-1.6</ele>
        <time>2021-07-02 13:01:17</time>
      </trkpt>
      <trkpt lat="28.97358" lon="-13.52777">
        <ele>-1.6</ele>
        <time>2021-07-02 13:01:18</time>
      </trkpt>
      <trkpt lat="28.97361" lon="-13.52774">
        <ele>-1.6</ele>
        <time>2021-07-02 13:01:19</time>
      </trkpt>
      <trkpt lat="28.97364" lon="-13.52771">
        <ele>-1.8</ele>
        <time>2021-07-02 13:01:20</time>
      </trkpt>
      <trkpt lat="28.97367" lon="-13.52768">
        <ele>-1.8</ele>
        <time>2021-07-02 13:01:21</time>
      </trkpt>
      <trkpt lat="28.9737" lon="-13.52765">
        <ele>-1.8</ele>
        <time>2021-07-02 13:01:22</time>
      </trkpt>
      <trkpt lat="28.97373" lon="-13.52761">
        <ele>-1.8</ele>
        <time>2021-07-02 13:01:23</time>
      </trkpt>
      <trkpt lat="28.97375" lon="-13.52758">
        <ele>-1.8</ele>
        <time>2021-07-02 13:01:24</time>
      </trkpt>
      <trkpt lat="28.97378" lon="-13.52755">
        <ele>-1.8</ele>
        <time>2021-07-02 13:01:25</time>
      </trkpt>
      <trkpt lat="28.97381" lon="-13.52752">
        <ele>-1.6</ele>
        <time>2021-07-02 13:01:26</time>
      </trkpt>
      <trkpt lat="28.97384" lon="-13.52749">
        <ele>-1.6</ele>
        <time>2021-07-02 13:01:27</time>
      </trkpt>
      <trkpt lat="28.97387" lon="-13.52746">
        <ele>-1.6</ele>
        <time>2021-07-02 13:01:28</time>
      </trkpt>
      <trkpt lat="28.97389" lon="-13.52743">
        <ele>-1.6</ele>
        <time>2021-07-02 13:01:29</time>
      </trkpt>
      <trkpt lat="28.97392" lon="-13.5274">
        <ele>-1.4</ele>
        <time>2021-07-02 13:01:30</time>
      </trkpt>
      <trkpt lat="28.97394" lon="-13.52737">
        <ele>-1.4</ele>
        <time>2021-07-02 13:01:31</time>
      </trkpt>
      <trkpt lat="28.97397" lon="-13.52734">
        <ele>-1.4</ele>
        <time>2021-07-02 13:01:32</time>
      </trkpt>
      <trkpt lat="28.974" lon="-13.52731">
        <ele>-1.2</ele>
        <time>2021-07-02 13:01:33</time>
      </trkpt>
      <trkpt lat="28.97403" lon="-13.52728">
        <ele>-1.2</ele>
        <time>2021-07-02 13:01:34</time>
      </trkpt>
      <trkpt lat="28.97406" lon="-13.52725">
        <ele>-0.8</ele>
        <time>2021-07-02 13:01:35</time>
      </trkpt>
      <trkpt lat="28.97409" lon="-13.52723">
        <ele>-0.8</ele>
        <time>2021-07-02 13:01:36</time>
      </trkpt>
      <trkpt lat="28.97412" lon="-13.52721">
        <ele>-0.8</ele>
        <time>2021-07-02 13:01:37</time>
      </trkpt>
      <trkpt lat="28.97415" lon="-13.52719">
        <ele>-0.6</ele>
        <time>2021-07-02 13:01:38</time>
      </trkpt>
      <trkpt lat="28.97418" lon="-13.52718">
        <ele>-0.6</ele>
        <time>2021-07-02 13:01:39</time>
      </trkpt>
      <trkpt lat="28.97421" lon="-13.52716">
        <time>2021-07-02 13:01:40</time>
      </trkpt>
      <trkpt lat="28.97424" lon="-13.52715">
        <ele>0.2</ele>
        <time>2021-07-02 13:01:41</time>
      </trkpt>
      <trkpt lat="28.97427" lon="-13.52713">
        <ele>0.4</ele>
        <time>2021-07-02 13:01:42</time>
      </trkpt>
      <trkpt lat="28.9743" lon="-13.52711">
        <ele>0.4</ele>
        <time>2021-07-02 13:01:43</time>
      </trkpt>
      <trkpt lat="28.97433" lon="-13.52708">
        <ele>0.8</ele>
        <time>2021-07-02 13:01:44</time>
      </trkpt>
      <trkpt lat="28.97435" lon="-13.52705">
        <ele>0.8</ele>
        <time>2021-07-02 13:01:45</time>
      </trkpt>
      <trkpt lat="28.97437" lon="-13.52702">
        <ele>1</ele>
        <time>2021-07-02 13:01:46</time>
      </trkpt>
      <trkpt lat="28.97439" lon="-13.527">
        <ele>1</ele>
        <time>2021-07-02 13:01:47</time>
      </trkpt>
      <trkpt lat="28.97442" lon="-13.52697">
        <ele>1.2</ele>
        <time>2021-07-02 13:01:48</time>
      </trkpt>
      <trkpt lat="28.97445" lon="-13.52694">
        <ele>1.2</ele>
        <time>2021-07-02 13:01:49</time>
      </trkpt>
      <trkpt lat="28.97448" lon="-13.52692">
        <ele>1.2</ele>
        <time>2021-07-02 13:01:50</time>
      </trkpt>
      <trkpt lat="28.97451" lon="-13.52691">
        <ele>1.6</ele>
        <time>2021-07-02 13:01:51</time>
      </trkpt>
      <trkpt lat="28.97454" lon="-13.5269">
        <ele>1.6</ele>
        <time>2021-07-02 13:01:52</time>
      </trkpt>
      <trkpt lat="28.97457" lon="-13.5269">
        <ele>1.6</ele>
        <time>2021-07-02 13:01:53</time>
      </trkpt>
      <trkpt lat="28.97461" lon="-13.5269">
        <ele>1.6</ele>
        <time>2021-07-02 13:01:54</time>
      </trkpt>
      <trkpt lat="28.97464" lon="-13.52689">
        <ele>1.6</ele>
        <time>2021-07-02 13:01:55</time>
      </trkpt>
      <trkpt lat="28.97468" lon="-13.52689">
        <ele>1.6</ele>
        <time>2021-07-02 13:01:56</time>
      </trkpt>
      <trkpt lat="28.97472" lon="-13.52689">
        <ele>1.6</ele>
        <time>2021-07-02 13:01:57</time>
      </trkpt>
      <trkpt lat="28.97476" lon="-13.52689">
        <ele>1.6</ele>
        <time>2021-07-02 13:01:58</time>
      </trkpt>
      <trkpt lat="28.9748" lon="-13.52688">
        <ele>1.6</ele>
        <time>2021-07-02 13:01:59</time>
      </trkpt>
      <trkpt lat="28.97484" lon="-13.52688">
        <ele>1.6</ele>
        <time>2021-07-02 13:02:00</time>
      </trkpt>
      <trkpt lat="28.97487" lon="-13.52687">
        <ele>1.6</ele>
        <time>2021-07-02 13:02:01</time>
      </trkpt>
      <trkpt lat="28.9749" lon="-13.52686">
        <ele>1.6</ele>
        <time>2021-07-02 13:02:02</time>
      </trkpt>
      <trkpt lat="28.97493" lon="-13.52686">
        <ele>1.6</ele>
        <time>2021-07-02 13:02:03</time>
      </trkpt>
      <trkpt lat="28.97497" lon="-13.52686">
        <ele>1.6</ele>
        <time>2021-07-02 13:02:04</time>
      </trkpt>
      <trkpt lat="28.975" lon="-13.52687">
        <ele>1.6</ele>
        <time>2021-07-02 13:02:05</time>
      </trkpt>
      <trkpt lat="28.97504" lon="-13.52687">
        <ele>1.6</ele>
        <time>2021-07-02 13:02:06</time>
      </trkpt>
      <trkpt lat="28.97507" lon="-13.52688">
        <ele>1.6</ele>
        <time>2021-07-02 13:02:07</time>
      </trkpt>
      <trkpt lat="28.9751" lon="-13.52688">
        <ele>1.6</ele>
        <time>2021-07-02 13:02:08</time>
      </trkpt>
      <trkpt lat="28.97513" lon="-13.52689">
        <ele>1.8</ele>
        <time>2021-07-02 13:02:09</time>
      </trkpt>
      <trkpt lat="28.97516" lon="-13.5269">
        <ele>1.8</ele>
        <time>2021-07-02 13:02:10</time>
      </trkpt>
      <trkpt lat="28.9752" lon="-13.5269">
        <ele>1.8</ele>
        <time>2021-07-02 13:02:11</time>
      </trkpt>
      <trkpt lat="28.97523" lon="-13.52691">
        <ele>1.8</ele>
        <time>2021-07-02 13:02:12</time>
      </trkpt>
      <trkpt lat="28.97527" lon="-13.52691">
        <ele>1.8</ele>
        <time>2021-07-02 13:02:13</time>
      </trkpt>
      <trkpt lat="28.97531" lon="-13.52691">
        <ele>1.8</ele>
        <time>2021-07-02 13:02:14</time>
      </trkpt>
      <trkpt lat="28.97535" lon="-13.52691">
        <ele>2</ele>
        <time>2021-07-02 13:02:15</time>
      </trkpt>
      <trkpt lat="28.97539" lon="-13.52691">
        <ele>2</ele>
        <time>2021-07-02 13:02:16</time>
      </trkpt>
      <trkpt lat="28.97542" lon="-13.52691">
        <ele>2</ele>
        <time>2021-07-02 13:02:17</time>
      </trkpt>
      <trkpt lat="28.97546" lon="-13.52691">
        <ele>2</ele>
        <time>2021-07-02 13:02:18</time>
      </trkpt>
      <trkpt lat="28.9755" lon="-13.52691">
        <ele>2</ele>
        <time>2021-07-02 13:02:19</time>
      </trkpt>
      <trkpt lat="28.97554" lon="-13.5269">
        <ele>2.2</ele>
        <time>2021-07-02 13:02:20</time>
      </trkpt>
      <trkpt lat="28.97558" lon="-13.5269">
        <ele>2.2</ele>
        <time>2021-07-02 13:02:21</time>
      </trkpt>
      <trkpt lat="28.97562" lon="-13.5269">
        <ele>2.2</ele>
        <time>2021-07-02 13:02:22</time>
      </trkpt>
      <trkpt lat="28.97566" lon="-13.52691">
        <ele>2.2</ele>
        <time>2021-07-02 13:02:23</time>
      </trkpt>
      <trkpt lat="28.9757" lon="-13.52691">
        <ele>2.2</ele>
        <time>2021-07-02 13:02:24</time>
      </trkpt>
      <trkpt lat="28.97574" lon="-13.52691">
        <ele>2.2</ele>
        <time>2021-07-02 13:02:25</time>
      </trkpt>
      <trkpt lat="28.97578" lon="-13.52691">
        <ele>2.2</ele>
        <time>2021-07-02 13:02:26</time>
      </trkpt>
      <trkpt lat="28.97582" lon="-13.5269">
        <ele>2.2</ele>
        <time>2021-07-02 13:02:27</time>
      </trkpt>
      <trkpt lat="28.97586" lon="-13.52691">
        <ele>2.2</ele>
        <time>2021-07-02 13:02:28</time>
      </trkpt>
      <trkpt lat="28.9759" lon="-13.52691">
        <ele>2.2</ele>
        <time>2021-07-02 13:02:29</time>
      </trkpt>
      <trkpt lat="28.97593" lon="-13.52691">
        <ele>2.2</ele>
        <time>2021-07-02 13:02:30</time>
      </trkpt>
      <trkpt lat="28.97597" lon="-13.52691">
        <ele>2.2</ele>
        <time>2021-07-02 13:02:31</time>
      </trkpt>
      <trkpt lat="28.97601" lon="-13.52691">
        <ele>2.2</ele>
        <time>2021-07-02 13:02:32</time>
      </trkpt>
      <trkpt lat="28.97605" lon="-13.52691">
        <ele>2.2</ele>
        <time>2021-07-02 13:02:33</time>
      </trkpt>
      <trkpt lat="28.97609" lon="-13.52691">
        <ele>2.2</ele>
        <time>2021-07-02 13:02:34</time>
      </trkpt>
      <trkpt lat="28.97613" lon="-13.52691">
        <ele>2</ele>
        <time>2021-07-02 13:02:35</time>
      </trkpt>
      <trkpt lat="28.97617" lon="-13.52692">
        <ele>2</ele>
        <time>2021-07-02 13:02:36</time>
      </trkpt>
      <trkpt lat="28.97622" lon="-13.52692">
        <ele>2</ele>
        <time>2021-07-02 13:02:37</time>
      </trkpt>
      <trkpt lat="28.97626" lon="-13.52692">
        <ele>2</ele>
        <time>2021-07-02 13:02:38</time>
      </trkpt>
      <trkpt lat="28.9763" lon="-13.52692">
        <ele>2</ele>
        <time>2021-07-02 13:02:39</time>
      </trkpt>
      <trkpt lat="28.97634" lon="-13.52691">
        <ele>2</ele>
        <time>2021-07-02 13:02:40</time>
      </trkpt>
      <trkpt lat="28.97638" lon="-13.52691">
        <ele>2.2</ele>
        <time>2021-07-02 13:02:41</time>
      </trkpt>
      <trkpt lat="28.97642" lon="-13.52691">
        <ele>2.2</ele>
        <time>2021-07-02 13:02:42</time>
      </trkpt>
      <trkpt lat="28.97646" lon="-13.52691">
        <ele>2.4</ele>
        <time>2021-07-02 13:02:43</time>
      </trkpt>
      <trkpt lat="28.97649" lon="-13.52691">
        <ele>2.4</ele>
        <time>2021-07-02 13:02:44</time>
      </trkpt>
      <trkpt lat="28.97653" lon="-13.52691">
        <ele>2.4</ele>
        <time>2021-07-02 13:02:45</time>
      </trkpt>
      <trkpt lat="28.97656" lon="-13.52691">
        <ele>2.4</ele>
        <time>2021-07-02 13:02:46</time>
      </trkpt>
      <trkpt lat="28.9766" lon="-13.52691">
        <ele>2.8</ele>
        <time>2021-07-02 13:02:47</time>
      </trkpt>
      <trkpt lat="28.97664" lon="-13.52692">
        <ele>2.8</ele>
        <time>2021-07-02 13:02:48</time>
      </trkpt>
      <trkpt lat="28.97667" lon="-13.52692">
        <ele>3</ele>
        <time>2021-07-02 13:02:49</time>
      </trkpt>
      <trkpt lat="28.97672" lon="-13.52692">
        <ele>3</ele>
        <time>2021-07-02 13:02:50</time>
      </trkpt>
      <trkpt lat="28.97675" lon="-13.52692">
        <ele>3</ele>
        <time>2021-07-02 13:02:51</time>
      </trkpt>
      <trkpt lat="28.97679" lon="-13.52693">
        <ele>3</ele>
        <time>2021-07-02 13:02:52</time>
      </trkpt>
      <trkpt lat="28.97683" lon="-13.52693">
        <ele>3</ele>
        <time>2021-07-02 13:02:53</time>
      </trkpt>
      <trkpt lat="28.97686" lon="-13.52693">
        <ele>3.6</ele>
        <time>2021-07-02 13:02:54</time>
      </trkpt>
      <trkpt lat="28.9769" lon="-13.52694">
        <ele>3.6</ele>
        <time>2021-07-02 13:02:55</time>
      </trkpt>
      <trkpt lat="28.97694" lon="-13.52694">
        <ele>3.6</ele>
        <time>2021-07-02 13:02:56</time>
      </trkpt>
      <trkpt lat="28.97698" lon="-13.52695">
        <ele>3.6</ele>
        <time>2021-07-02 13:02:57</time>
      </trkpt>
      <trkpt lat="28.97701" lon="-13.52696">
        <ele>3.6</ele>
        <time>2021-07-02 13:02:58</time>
      </trkpt>
      <trkpt lat="28.97705" lon="-13.52696">
        <ele>3.6</ele>
        <time>2021-07-02 13:02:59</time>
      </trkpt>
      <trkpt lat="28.97709" lon="-13.52695">
        <ele>3.6</ele>
        <time>2021-07-02 13:03:00</time>
      </trkpt>
      <trkpt lat="28.97712" lon="-13.52695">
        <ele>3.6</ele>
        <time>2021-07-02 13:03:01</time>
      </trkpt>
      <trkpt lat="28.97716" lon="-13.52695">
        <ele>3.6</ele>
        <time>2021-07-02 13:03:02</time>
      </trkpt>
      <trkpt lat="28.9772" lon="-13.52694">
        <ele>3.6</ele>
        <time>2021-07-02 13:03:03</time>
      </trkpt>
      <trkpt lat="28.97722" lon="-13.52694">
        <ele>3.6</ele>
        <time>2021-07-02 13:03:04</time>
      </trkpt>
      <trkpt lat="28.97725" lon="-13.52693">
        <ele>3.6</ele>
        <time>2021-07-02 13:03:05</time>
      </trkpt>
      <trkpt lat="28.97727" lon="-13.52693">
        <ele>3.6</ele>
        <time>2021-07-02 13:03:06</time>
      </trkpt>
      <trkpt lat="28.97728" lon="-13.52692">
        <ele>3.6</ele>
        <time>2021-07-02 13:03:07</time>
      </trkpt>
      <trkpt lat="28.97729" lon="-13.5269">
        <ele>3.6</ele>
        <time>2021-07-02 13:03:08</time>
      </trkpt>
      <trkpt lat="28.9773" lon="-13.52687">
        <ele>3.6</ele>
        <time>2021-07-02 13:03:09</time>
      </trkpt>
      <trkpt lat="28.9773" lon="-13.52684">
        <ele>3.6</ele>
        <time>2021-07-02 13:03:10</time>
      </trkpt>
      <trkpt lat="28.97731" lon="-13.5268">
        <ele>3.6</ele>
        <time>2021-07-02 13:03:11</time>
      </trkpt>
      <trkpt lat="28.97731" lon="-13.52676">
        <ele>3.6</ele>
        <time>2021-07-02 13:03:12</time>
      </trkpt>
      <trkpt lat="28.97731" lon="-13.52672">
        <ele>3.6</ele>
        <time>2021-07-02 13:03:13</time>
      </trkpt>
      <trkpt lat="28.97731" lon="-13.52667">
        <ele>3.6</ele>
        <time>2021-07-02 13:03:14</time>
      </trkpt>
      <trkpt lat="28.97731" lon="-13.52662">
        <ele>3.6</ele>
        <time>2021-07-02 13:03:15</time>
      </trkpt>
      <trkpt lat="28.97732" lon="-13.52657">
        <ele>3.6</ele>
        <time>2021-07-02 13:03:16</time>
      </trkpt>
      <trkpt lat="28.97732" lon="-13.52652">
        <ele>3.6</ele>
        <time>2021-07-02 13:03:17</time>
      </trkpt>
      <trkpt lat="28.97733" lon="-13.52647">
        <ele>3.6</ele>
        <time>2021-07-02 13:03:18</time>
      </trkpt>
      <trkpt lat="28.97734" lon="-13.52643">
        <ele>3.6</ele>
        <time>2021-07-02 13:03:19</time>
      </trkpt>
      <trkpt lat="28.97735" lon="-13.52638">
        <ele>3.6</ele>
        <time>2021-07-02 13:03:20</time>
      </trkpt>
      <trkpt lat="28.97736" lon="-13.52633">
        <ele>3.6</ele>
        <time>2021-07-02 13:03:21</time>
      </trkpt>
      <trkpt lat="28.97737" lon="-13.52629">
        <ele>3.6</ele>
        <time>2021-07-02 13:03:22</time>
      </trkpt>
      <trkpt lat="28.97738" lon="-13.52624">
        <ele>3.2</ele>
        <time>2021-07-02 13:03:23</time>
      </trkpt>
      <trkpt lat="28.97739" lon="-13.52619">
        <ele>3.2</ele>
        <time>2021-07-02 13:03:24</time>
      </trkpt>
      <trkpt lat="28.97739" lon="-13.52614">
        <ele>3.2</ele>
        <time>2021-07-02 13:03:25</time>
      </trkpt>
      <trkpt lat="28.97739" lon="-13.52609">
        <ele>3.2</ele>
        <time>2021-07-02 13:03:26</time>
      </trkpt>
      <trkpt lat="28.9774" lon="-13.52603">
        <ele>3.2</ele>
        <time>2021-07-02 13:03:27</time>
      </trkpt>
      <trkpt lat="28.9774" lon="-13.52598">
        <ele>3.2</ele>
        <time>2021-07-02 13:03:28</time>
      </trkpt>
      <trkpt lat="28.9774" lon="-13.52592">
        <ele>3.2</ele>
        <time>2021-07-02 13:03:29</time>
      </trkpt>
      <trkpt lat="28.9774" lon="-13.52587">
        <ele>3.2</ele>
        <time>2021-07-02 13:03:30</time>
      </trkpt>
      <trkpt lat="28.97739" lon="-13.52581">
        <ele>3</ele>
        <time>2021-07-02 13:03:31</time>
      </trkpt>
      <trkpt lat="28.97736" lon="-13.52577">
        <ele>2.8</ele>
        <time>2021-07-02 13:03:32</time>
      </trkpt>
      <trkpt lat="28.97734" lon="-13.52573">
        <ele>2.4</ele>
        <time>2021-07-02 13:03:33</time>
      </trkpt>
      <trkpt lat="28.97731" lon="-13.52567">
        <ele>2</ele>
        <time>2021-07-02 13:03:34</time>
      </trkpt>
      <trkpt lat="28.9773" lon="-13.52562">
        <ele>1.8</ele>
        <time>2021-07-02 13:03:35</time>
      </trkpt>
      <trkpt lat="28.97728" lon="-13.52557">
        <ele>1.4</ele>
        <time>2021-07-02 13:03:36</time>
      </trkpt>
      <trkpt lat="28.97728" lon="-13.52551">
        <ele>1.2</ele>
        <time>2021-07-02 13:03:37</time>
      </trkpt>
      <trkpt lat="28.97728" lon="-13.52545">
        <ele>1.2</ele>
        <time>2021-07-02 13:03:38</time>
      </trkpt>
      <trkpt lat="28.97729" lon="-13.5254">
        <ele>1.2</ele>
        <time>2021-07-02 13:03:39</time>
      </trkpt>
      <trkpt lat="28.97729" lon="-13.52535">
        <ele>1.2</ele>
        <time>2021-07-02 13:03:40</time>
      </trkpt>
      <trkpt lat="28.9773" lon="-13.52531">
        <ele>1.2</ele>
        <time>2021-07-02 13:03:41</time>
      </trkpt>
      <trkpt lat="28.97732" lon="-13.52527">
        <ele>0.8</ele>
        <time>2021-07-02 13:03:42</time>
      </trkpt>
      <trkpt lat="28.97734" lon="-13.52524">
        <ele>0.6</ele>
        <time>2021-07-02 13:03:43</time>
      </trkpt>
      <trkpt lat="28.97736" lon="-13.52519">
        <ele>0.6</ele>
        <time>2021-07-02 13:03:44</time>
      </trkpt>
      <trkpt lat="28.97736" lon="-13.52515">
        <ele>0.6</ele>
        <time>2021-07-02 13:03:45</time>
      </trkpt>
      <trkpt lat="28.97737" lon="-13.5251">
        <ele>0.6</ele>
        <time>2021-07-02 13:03:46</time>
      </trkpt>
      <trkpt lat="28.97737" lon="-13.52505">
        <ele>0.6</ele>
        <time>2021-07-02 13:03:47</time>
      </trkpt>
      <trkpt lat="28.97737" lon="-13.52499">
        <ele>0.6</ele>
        <time>2021-07-02 13:03:48</time>
      </trkpt>
      <trkpt lat="28.97737" lon="-13.52494">
        <ele>0.6</ele>
        <time>2021-07-02 13:03:49</time>
      </trkpt>
      <trkpt lat="28.97737" lon="-13.52489">
        <ele>0.6</ele>
        <time>2021-07-02 13:03:50</time>
      </trkpt>
      <trkpt lat="28.97738" lon="-13.52484">
        <ele>0.4</ele>
        <time>2021-07-02 13:03:51</time>
      </trkpt>
      <trkpt lat="28.97738" lon="-13.52479">
        <ele>0.4</ele>
        <time>2021-07-02 13:03:52</time>
      </trkpt>
      <trkpt lat="28.97738" lon="-13.52474">
        <ele>0.2</ele>
        <time>2021-07-02 13:03:53</time>
      </trkpt>
      <trkpt lat="28.97738" lon="-13.52469">
        <ele>0.2</ele>
        <time>2021-07-02 13:03:54</time>
      </trkpt>
      <trkpt lat="28.97739" lon="-13.52464">
        <ele>0.2</ele>
        <time>2021-07-02 13:03:55</time>
      </trkpt>
      <trkpt lat="28.97739" lon="-13.52459">
        <ele>-0.2</ele>
        <time>2021-07-02 13:03:56</time>
      </trkpt>
      <trkpt lat="28.97739" lon="-13.52453">
        <ele>-0.2</ele>
        <time>2021-07-02 13:03:57</time>
      </trkpt>
      <trkpt lat="28.9774" lon="-13.52448">
        <ele>-0.2</ele>
        <time>2021-07-02 13:03:58</time>
      </trkpt>
      <trkpt lat="28.9774" lon="-13.52443">
        <ele>-0.2</ele>
        <time>2021-07-02 13:03:59</time>
      </trkpt>
      <trkpt lat="28.97741" lon="-13.52437">
        <ele>-0.2</ele>
        <time>2021-07-02 13:04:00</time>
      </trkpt>
      <trkpt lat="28.97741" lon="-13.52432">
        <ele>-0.2</ele>
        <time>2021-07-02 13:04:01</time>
      </trkpt>
      <trkpt lat="28.97742" lon="-13.52427">
        <ele>-0.2</ele>
        <time>2021-07-02 13:04:02</time>
      </trkpt>
      <trkpt lat="28.97742" lon="-13.52422">
        <ele>-0.2</ele>
        <time>2021-07-02 13:04:03</time>
      </trkpt>
      <trkpt lat="28.97742" lon="-13.52417">
        <ele>-0.2</ele>
        <time>2021-07-02 13:04:04</time>
      </trkpt>
      <trkpt lat="28.97743" lon="-13.52412">
        <ele>-0.2</ele>
        <time>2021-07-02 13:04:05</time>
      </trkpt>
      <trkpt lat="28.97743" lon="-13.52407">
        <ele>-0.2</ele>
        <time>2021-07-02 13:04:06</time>
      </trkpt>
      <trkpt lat="28.97743" lon="-13.52403">
        <ele>-0.2</ele>
        <time>2021-07-02 13:04:07</time>
      </trkpt>
      <trkpt lat="28.97743" lon="-13.52398">
        <time>2021-07-02 13:04:08</time>
      </trkpt>
      <trkpt lat="28.97743" lon="-13.52393">
        <time>2021-07-02 13:04:09</time>
      </trkpt>
      <trkpt lat="28.97743" lon="-13.52389">
        <time>2021-07-02 13:04:10</time>
      </trkpt>
      <trkpt lat="28.97743" lon="-13.52384">
        <ele>0.2</ele>
        <time>2021-07-02 13:04:11</time>
      </trkpt>
      <trkpt lat="28.97744" lon="-13.5238">
        <ele>0.2</ele>
        <time>2021-07-02 13:04:12</time>
      </trkpt>
      <trkpt lat="28.97744" lon="-13.52376">
        <ele>0.2</ele>
        <time>2021-07-02 13:04:13</time>
      </trkpt>
      <trkpt lat="28.97744" lon="-13.52372">
        <ele>0.2</ele>
        <time>2021-07-02 13:04:14</time>
      </trkpt>
      <trkpt lat="28.97744" lon="-13.52367">
        <ele>0.2</ele>
        <time>2021-07-02 13:04:15</time>
      </trkpt>
      <trkpt lat="28.97744" lon="-13.52363">
        <ele>0.2</ele>
        <time>2021-07-02 13:04:16</time>
      </trkpt>
      <trkpt lat="28.97744" lon="-13.52359">
        <ele>0.2</ele>
        <time>2021-07-02 13:04:17</time>
      </trkpt>
      <trkpt lat="28.97744" lon="-13.52355">
        <ele>0.2</ele>
        <time>2021-07-02 13:04:18</time>
      </trkpt>
      <trkpt lat="28.97744" lon="-13.52351">
        <ele>0.6</ele>
        <time>2021-07-02 13:04:19</time>
      </trkpt>
      <trkpt lat="28.97744" lon="-13.52347">
        <ele>0.6</ele>
        <time>2021-07-02 13:04:20</time>
      </trkpt>
      <trkpt lat="28.97745" lon="-13.52343">
        <ele>0.6</ele>
        <time>2021-07-02 13:04:21</time>
      </trkpt>
      <trkpt lat="28.97745" lon="-13.5234">
        <ele>0.6</ele>
        <time>2021-07-02 13:04:22</time>
      </trkpt>
      <trkpt lat="28.97745" lon="-13.52336">
        <ele>0.8</ele>
        <time>2021-07-02 13:04:23</time>
      </trkpt>
      <trkpt lat="28.97746" lon="-13.52332">
        <ele>1.2</ele>
        <time>2021-07-02 13:04:24</time>
      </trkpt>
      <trkpt lat="28.97746" lon="-13.52328">
        <ele>1.2</ele>
        <time>2021-07-02 13:04:25</time>
      </trkpt>
      <trkpt lat="28.97746" lon="-13.52325">
        <ele>1.2</ele>
        <time>2021-07-02 13:04:26</time>
      </trkpt>
      <trkpt lat="28.97746" lon="-13.52321">
        <ele>1.2</ele>
        <time>2021-07-02 13:04:27</time>
      </trkpt>
      <trkpt lat="28.97746" lon="-13.52318">
        <ele>1.2</ele>
        <time>2021-07-02 13:04:28</time>
      </trkpt>
      <trkpt lat="28.97746" lon="-13.52315">
        <ele>1.2</ele>
        <time>2021-07-02 13:04:29</time>
      </trkpt>
      <trkpt lat="28.97746" lon="-13.52313">
        <ele>1.2</ele>
        <time>2021-07-02 13:04:30</time>
      </trkpt>
      <trkpt lat="28.97745" lon="-13.52312">
        <ele>1.2</ele>
        <time>2021-07-02 13:04:31</time>
      </trkpt>
      <trkpt lat="28.97743" lon="-13.52311">
        <ele>1.2</ele>
        <time>2021-07-02 13:04:32</time>
      </trkpt>
      <trkpt lat="28.97741" lon="-13.52311">
        <ele>1</ele>
        <time>2021-07-02 13:04:33</time>
      </trkpt>
      <trkpt lat="28.9774" lon="-13.52311">
        <ele>0.6</ele>
        <time>2021-07-02 13:04:34</time>
      </trkpt>
      <trkpt lat="28.97738" lon="-13.5231">
        <ele>0.4</ele>
        <time>2021-07-02 13:04:35</time>
      </trkpt>
      <trkpt lat="28.97736" lon="-13.5231">
        <ele>-0.2</ele>
        <time>2021-07-02 13:04:36</time>
      </trkpt>
      <trkpt lat="28.97736" lon="-13.5231">
        <ele>-0.6</ele>
        <time>2021-07-02 13:04:37</time>
      </trkpt>
      <trkpt lat="28.97735" lon="-13.5231">
        <ele>-1</ele>
        <time>2021-07-02 13:04:38</time>
      </trkpt>
      <trkpt lat="28.97735" lon="-13.5231">
        <ele>-1.4</ele>
        <time>2021-07-02 13:04:39</time>
      </trkpt>
      <trkpt lat="28.97735" lon="-13.5231">
        <ele>-1.6</ele>
        <time>2021-07-02 13:04:40</time>
      </trkpt>
      <trkpt lat="28.97736" lon="-13.52312">
        <ele>-1</ele>
        <time>2021-07-02 13:04:41</time>
      </trkpt>
      <trkpt lat="28.97736" lon="-13.52311">
        <ele>-1</ele>
        <time>2021-07-02 13:04:42</time>
      </trkpt>
      <trkpt lat="28.97735" lon="-13.52311">
        <ele>-1</ele>
        <time>2021-07-02 13:04:43</time>
      </trkpt>
      <trkpt lat="28.97735" lon="-13.52312">
        <ele>-1</ele>
        <time>2021-07-02 13:04:44</time>
      </trkpt>
      <trkpt lat="28.97736" lon="-13.52312">
        <ele>-1.2</ele>
        <time>2021-07-02 13:04:45</time>
      </trkpt>
      <trkpt lat="28.97739" lon="-13.52313">
        <ele>-1.2</ele>
        <time>2021-07-02 13:04:46</time>
      </trkpt>
      <trkpt lat="28.9774" lon="-13.52314">
        <ele>-1.2</ele>
        <time>2021-07-02 13:04:47</time>
      </trkpt>
      <trkpt lat="28.97741" lon="-13.52313">
        <ele>-1.2</ele>
        <time>2021-07-02 13:04:48</time>
      </trkpt>
      <trkpt lat="28.97742" lon="-13.52313">
        <ele>-1.4</ele>
        <time>2021-07-02 13:04:49</time>
      </trkpt>
      <trkpt lat="28.97743" lon="-13.52313">
        <ele>-1.6</ele>
        <time>2021-07-02 13:04:50</time>
      </trkpt>
      <trkpt lat="28.97744" lon="-13.52313">
        <ele>-2</ele>
        <time>2021-07-02 13:04:51</time>
      </trkpt>
      <trkpt lat="28.97745" lon="-13.52313">
        <ele>-2.2</ele>
        <time>2021-07-02 13:05:51</time>
      </trkpt>
      <trkpt lat="28.97746" lon="-13.52312">
        <ele>-2.2</ele>
        <time>2021-07-02 13:05:52</time>
      </trkpt>
      <trkpt lat="28.97746" lon="-13.52311">
        <ele>-2.4</ele>
        <time>2021-07-02 13:05:53</time>
      </trkpt>
      <trkpt lat="28.97747" lon="-13.52311">
        <ele>-2.4</ele>
        <time>2021-07-02 13:05:54</time>
      </trkpt>
      <trkpt lat="28.97747" lon="-13.5231">
        <ele>-2.4</ele>
        <time>2021-07-02 13:05:55</time>
      </trkpt>
      <trkpt lat="28.97747" lon="-13.5231">
        <ele>-2.4</ele>
        <time>2021-07-02 13:08:02</time>
      </trkpt>
      <trkpt lat="28.97747" lon="-13.5231">
        <ele>-2.2</ele>
        <time>2021-07-02 13:08:03</time>
      </trkpt>
      <trkpt lat="28.97748" lon="-13.52309">
        <ele>-2.2</ele>
        <time>2021-07-02 13:08:04</time>
      </trkpt>
      <trkpt lat="28.97748" lon="-13.52307">
        <ele>-1.8</ele>
        <time>2021-07-02 13:08:05</time>
      </trkpt>
      <trkpt lat="28.97749" lon="-13.52305">
        <ele>-1.6</ele>
        <time>2021-07-02 13:08:06</time>
      </trkpt>
      <trkpt lat="28.97749" lon="-13.52303">
        <ele>-1.6</ele>
        <time>2021-07-02 13:08:07</time>
      </trkpt>
      <trkpt lat="28.97749" lon="-13.523">
        <ele>-1.4</ele>
        <time>2021-07-02 13:08:08</time>
      </trkpt>
      <trkpt lat="28.97749" lon="-13.52297">
        <ele>-1</ele>
        <time>2021-07-02 13:08:09</time>
      </trkpt>
      <trkpt lat="28.97749" lon="-13.52294">
        <ele>-1</ele>
        <time>2021-07-02 13:08:10</time>
      </trkpt>
      <trkpt lat="28.97749" lon="-13.52291">
        <ele>-0.8</ele>
        <time>2021-07-02 13:08:11</time>
      </trkpt>
      <trkpt lat="28.97749" lon="-13.52287">
        <ele>-0.8</ele>
        <time>2021-07-02 13:08:12</time>
      </trkpt>
      <trkpt lat="28.97749" lon="-13.52283">
        <ele>-0.4</ele>
        <time>2021-07-02 13:08:13</time>
      </trkpt>
      <trkpt lat="28.97749" lon="-13.5228">
        <ele>-0.4</ele>
        <time>2021-07-02 13:08:14</time>
      </trkpt>
      <trkpt lat="28.97749" lon="-13.52276">
        <ele>-0.2</ele>
        <time>2021-07-02 13:08:15</time>
      </trkpt>
      <trkpt lat="28.97749" lon="-13.52272">
        <ele>-0.2</ele>
        <time>2021-07-02 13:08:16</time>
      </trkpt>
      <trkpt lat="28.9775" lon="-13.52268">
        <ele>0.2</ele>
        <time>2021-07-02 13:08:17</time>
      </trkpt>
      <trkpt lat="28.9775" lon="-13.52265">
        <ele>0.2</ele>
        <time>2021-07-02 13:08:18</time>
      </trkpt>
      <trkpt lat="28.9775" lon="-13.52261">
        <ele>0.4</ele>
        <time>2021-07-02 13:08:19</time>
      </trkpt>
      <trkpt lat="28.9775" lon="-13.52257">
        <ele>0.4</ele>
        <time>2021-07-02 13:08:20</time>
      </trkpt>
      <trkpt lat="28.97751" lon="-13.52253">
        <ele>0.8</ele>
        <time>2021-07-02 13:08:21</time>
      </trkpt>
      <trkpt lat="28.97751" lon="-13.52249">
        <ele>0.8</ele>
        <time>2021-07-02 13:08:22</time>
      </trkpt>
      <trkpt lat="28.97751" lon="-13.52246">
        <ele>1</ele>
        <time>2021-07-02 13:08:23</time>
      </trkpt>
      <trkpt lat="28.97751" lon="-13.52242">
        <ele>1</ele>
        <time>2021-07-02 13:08:24</time>
      </trkpt>
      <trkpt lat="28.97752" lon="-13.52238">
        <ele>1.4</ele>
        <time>2021-07-02 13:08:25</time>
      </trkpt>
      <trkpt lat="28.97752" lon="-13.52235">
        <ele>1.4</ele>
        <time>2021-07-02 13:08:26</time>
      </trkpt>
      <trkpt lat="28.97752" lon="-13.52231">
        <ele>1.6</ele>
        <time>2021-07-02 13:08:27</time>
      </trkpt>
      <trkpt lat="28.97753" lon="-13.52228">
        <ele>1.8</ele>
        <time>2021-07-02 13:08:28</time>
      </trkpt>
      <trkpt lat="28.97753" lon="-13.52224">
        <ele>1.8</ele>
        <time>2021-07-02 13:08:29</time>
      </trkpt>
      <trkpt lat="28.97753" lon="-13.52221">
        <ele>2</ele>
        <time>2021-07-02 13:08:30</time>
      </trkpt>
      <trkpt lat="28.97754" lon="-13.52218">
        <ele>2</ele>
        <time>2021-07-02 13:08:31</time>
      </trkpt>
      <trkpt lat="28.97754" lon="-13.52214">
        <ele>2.4</ele>
        <time>2021-07-02 13:08:32</time>
      </trkpt>
      <trkpt lat="28.97755" lon="-13.5221">
        <ele>2.4</ele>
        <time>2021-07-02 13:08:33</time>
      </trkpt>
      <trkpt lat="28.97755" lon="-13.52207">
        <ele>2.6</ele>
        <time>2021-07-02 13:08:34</time>
      </trkpt>
      <trkpt lat="28.97756" lon="-13.52204">
        <ele>2.6</ele>
        <time>2021-07-02 13:08:35</time>
      </trkpt>
      <trkpt lat="28.97756" lon="-13.52201">
        <ele>3</ele>
        <time>2021-07-02 13:08:36</time>
      </trkpt>
      <trkpt lat="28.97756" lon="-13.52198">
        <ele>3</ele>
        <time>2021-07-02 13:08:37</time>
      </trkpt>
      <trkpt lat="28.97757" lon="-13.52195">
        <ele>3</ele>
        <time>2021-07-02 13:08:38</time>
      </trkpt>
      <trkpt lat="28.97757" lon="-13.52191">
        <ele>3</ele>
        <time>2021-07-02 13:08:39</time>
      </trkpt>
      <trkpt lat="28.97758" lon="-13.52188">
        <ele>3</ele>
        <time>2021-07-02 13:08:40</time>
      </trkpt>
      <trkpt lat="28.97758" lon="-13.52184">
        <ele>3</ele>
        <time>2021-07-02 13:08:41</time>
      </trkpt>
      <trkpt lat="28.97759" lon="-13.52181">
        <ele>3.4</ele>
        <time>2021-07-02 13:08:42</time>
      </trkpt>
      <trkpt lat="28.9776" lon="-13.52177">
        <ele>3.4</ele>
        <time>2021-07-02 13:08:43</time>
      </trkpt>
      <trkpt lat="28.97761" lon="-13.52174">
        <ele>3.6</ele>
        <time>2021-07-02 13:08:44</time>
      </trkpt>
      <trkpt lat="28.97761" lon="-13.52171">
        <ele>3.6</ele>
        <time>2021-07-02 13:08:45</time>
      </trkpt>
      <trkpt lat="28.97762" lon="-13.52167">
        <ele>4</ele>
        <time>2021-07-02 13:08:46</time>
      </trkpt>
      <trkpt lat="28.97762" lon="-13.52164">
        <ele>4.2</ele>
        <time>2021-07-02 13:08:47</time>
      </trkpt>
      <trkpt lat="28.97763" lon="-13.5216">
        <ele>4.6</ele>
        <time>2021-07-02 13:08:48</time>
      </trkpt>
      <trkpt lat="28.97763" lon="-13.52157">
        <ele>4.8</ele>
        <time>2021-07-02 13:08:49</time>
      </trkpt>
      <trkpt lat="28.97763" lon="-13.52153">
        <ele>5</ele>
        <time>2021-07-02 13:08:50</time>
      </trkpt>
      <trkpt lat="28.97764" lon="-13.5215">
        <ele>5.2</ele>
        <time>2021-07-02 13:08:51</time>
      </trkpt>
      <trkpt lat="28.97764" lon="-13.52147">
        <ele>5.2</ele>
        <time>2021-07-02 13:08:52</time>
      </trkpt>
      <trkpt lat="28.97765" lon="-13.52144">
        <ele>5.8</ele>
        <time>2021-07-02 13:08:53</time>
      </trkpt>
      <trkpt lat="28.97765" lon="-13.52141">
        <ele>6</ele>
        <time>2021-07-02 13:08:54</time>
      </trkpt>
      <trkpt lat="28.97766" lon="-13.52137">
        <ele>6.2</ele>
        <time>2021-07-02 13:08:55</time>
      </trkpt>
      <trkpt lat="28.97767" lon="-13.52134">
        <ele>6.4</ele>
        <time>2021-07-02 13:08:56</time>
      </trkpt>
      <trkpt lat="28.97768" lon="-13.52131">
        <ele>6.4</ele>
        <time>2021-07-02 13:08:57</time>
      </trkpt>
      <trkpt lat="28.97769" lon="-13.52127">
        <ele>6.8</ele>
        <time>2021-07-02 13:08:58</time>
      </trkpt>
      <trkpt lat="28.9777" lon="-13.52124">
        <ele>7</ele>
        <time>2021-07-02 13:08:59</time>
      </trkpt>
      <trkpt lat="28.97771" lon="-13.52121">
        <ele>7</ele>
        <time>2021-07-02 13:09:00</time>
      </trkpt>
      <trkpt lat="28.97772" lon="-13.52117">
        <ele>7.4</ele>
        <time>2021-07-02 13:09:01</time>
      </trkpt>
      <trkpt lat="28.97773" lon="-13.52114">
        <ele>7.4</ele>
        <time>2021-07-02 13:09:02</time>
      </trkpt>
      <trkpt lat="28.97774" lon="-13.52111">
        <ele>7.8</ele>
        <time>2021-07-02 13:09:03</time>
      </trkpt>
      <trkpt lat="28.97775" lon="-13.52107">
        <ele>7.8</ele>
        <time>2021-07-02 13:09:04</time>
      </trkpt>
      <trkpt lat="28.97777" lon="-13.52104">
        <ele>8</ele>
        <time>2021-07-02 13:09:05</time>
      </trkpt>
      <trkpt lat="28.97778" lon="-13.52101">
        <ele>8</ele>
        <time>2021-07-02 13:09:06</time>
      </trkpt>
      <trkpt lat="28.9778" lon="-13.52097">
        <ele>8</ele>
        <time>2021-07-02 13:09:07</time>
      </trkpt>
      <trkpt lat="28.97782" lon="-13.52094">
        <ele>8.2</ele>
        <time>2021-07-02 13:09:08</time>
      </trkpt>
      <trkpt lat="28.97784" lon="-13.52091">
        <ele>8.2</ele>
        <time>2021-07-02 13:09:09</time>
      </trkpt>
      <trkpt lat="28.97786" lon="-13.52087">
        <ele>8.2</ele>
        <time>2021-07-02 13:09:10</time>
      </trkpt>
      <trkpt lat="28.97788" lon="-13.52084">
        <ele>8.4</ele>
        <time>2021-07-02 13:09:11</time>
      </trkpt>
      <trkpt lat="28.9779" lon="-13.52081">
        <ele>8.4</ele>
        <time>2021-07-02 13:09:12</time>
      </trkpt>
      <trkpt lat="28.97792" lon="-13.52077">
        <ele>8.4</ele>
        <time>2021-07-02 13:09:13</time>
      </trkpt>
      <trkpt lat="28.97794" lon="-13.52074">
        <ele>8.4</ele>
        <time>2021-07-02 13:09:14</time>
      </trkpt>
      <trkpt lat="28.97796" lon="-13.5207">
        <ele>8.4</ele>
        <time>2021-07-02 13:09:15</time>
      </trkpt>
      <trkpt lat="28.97799" lon="-13.52067">
        <ele>8.4</ele>
        <time>2021-07-02 13:09:16</time>
      </trkpt>
      <trkpt lat="28.97802" lon="-13.52064">
        <ele>8.4</ele>
        <time>2021-07-02 13:09:17</time>
      </trkpt>
      <trkpt lat="28.97805" lon="-13.52061">
        <ele>8.4</ele>
        <time>2021-07-02 13:09:18</time>
      </trkpt>
      <trkpt lat="28.97808" lon="-13.52058">
        <ele>8.4</ele>
        <time>2021-07-02 13:09:19</time>
      </trkpt>
      <trkpt lat="28.97811" lon="-13.52055">
        <ele>8.4</ele>
        <time>2021-07-02 13:09:20</time>
      </trkpt>
      <trkpt lat="28.97813" lon="-13.52051">
        <ele>8.4</ele>
        <time>2021-07-02 13:09:21</time>
      </trkpt>
      <trkpt lat="28.97816" lon="-13.52048">
        <ele>8.4</ele>
        <time>2021-07-02 13:09:22</time>
      </trkpt>
      <trkpt lat="28.97819" lon="-13.52044">
        <ele>8.8</ele>
        <time>2021-07-02 13:09:23</time>
      </trkpt>
      <trkpt lat="28.97822" lon="-13.52041">
        <ele>8.8</ele>
        <time>2021-07-02 13:09:24</time>
      </trkpt>
      <trkpt lat="28.97826" lon="-13.52038">
        <ele>8.8</ele>
        <time>2021-07-02 13:09:25</time>
      </trkpt>
      <trkpt lat="28.97829" lon="-13.52034">
        <ele>8.8</ele>
        <time>2021-07-02 13:09:26</time>
      </trkpt>
      <trkpt lat="28.97832" lon="-13.5203">
        <ele>8.8</ele>
        <time>2021-07-02 13:09:27</time>
      </trkpt>
      <trkpt lat="28.97836" lon="-13.52027">
        <ele>8.8</ele>
        <time>2021-07-02 13:09:28</time>
      </trkpt>
      <trkpt lat="28.97839" lon="-13.52023">
        <ele>8.8</ele>
        <time>2021-07-02 13:09:29</time>
      </trkpt>
      <trkpt lat="28.97843" lon="-13.52018">
        <ele>8.8</ele>
        <time>2021-07-02 13:09:30</time>
      </trkpt>
      <trkpt lat="28.97846" lon="-13.52014">
        <ele>8.4</ele>
        <time>2021-07-02 13:09:31</time>
      </trkpt>
      <trkpt lat="28.9785" lon="-13.5201">
        <ele>8.4</ele>
        <time>2021-07-02 13:09:32</time>
      </trkpt>
      <trkpt lat="28.97854" lon="-13.52006">
        <ele>8.2</ele>
        <time>2021-07-02 13:09:33</time>
      </trkpt>
      <trkpt lat="28.97858" lon="-13.52001">
        <ele>8.2</ele>
        <time>2021-07-02 13:09:34</time>
      </trkpt>
      <trkpt lat="28.97862" lon="-13.51998">
        <ele>8.2</ele>
        <time>2021-07-02 13:09:35</time>
      </trkpt>
      <trkpt lat="28.97866" lon="-13.51993">
        <ele>8</ele>
        <time>2021-07-02 13:09:36</time>
      </trkpt>
      <trkpt lat="28.97869" lon="-13.51989">
        <ele>8</ele>
        <time>2021-07-02 13:09:37</time>
      </trkpt>
      <trkpt lat="28.97873" lon="-13.51985">
        <ele>7.6</ele>
        <time>2021-07-02 13:09:38</time>
      </trkpt>
      <trkpt lat="28.97877" lon="-13.51981">
        <ele>7.6</ele>
        <time>2021-07-02 13:09:39</time>
      </trkpt>
      <trkpt lat="28.9788" lon="-13.51977">
        <ele>7.4</ele>
        <time>2021-07-02 13:09:40</time>
      </trkpt>
      <trkpt lat="28.97884" lon="-13.51973">
        <ele>7.4</ele>
        <time>2021-07-02 13:09:41</time>
      </trkpt>
      <trkpt lat="28.97888" lon="-13.51968">
        <ele>7.4</ele>
        <time>2021-07-02 13:09:42</time>
      </trkpt>
      <trkpt lat="28.97892" lon="-13.51964">
        <ele>7.2</ele>
        <time>2021-07-02 13:09:43</time>
      </trkpt>
      <trkpt lat="28.97895" lon="-13.5196">
        <ele>7.2</ele>
        <time>2021-07-02 13:09:44</time>
      </trkpt>
      <trkpt lat="28.97899" lon="-13.51956">
        <ele>7.4</ele>
        <time>2021-07-02 13:09:45</time>
      </trkpt>
      <trkpt lat="28.97902" lon="-13.51951">
        <ele>7.4</ele>
        <time>2021-07-02 13:09:46</time>
      </trkpt>
      <trkpt lat="28.97905" lon="-13.51947">
        <ele>7.4</ele>
        <time>2021-07-02 13:09:47</time>
      </trkpt>
      <trkpt lat="28.97909" lon="-13.51943">
        <ele>7.4</ele>
        <time>2021-07-02 13:09:48</time>
      </trkpt>
      <trkpt lat="28.97913" lon="-13.51939">
        <ele>7.4</ele>
        <time>2021-07-02 13:09:49</time>
      </trkpt>
      <trkpt lat="28.97916" lon="-13.51935">
        <ele>7.4</ele>
        <time>2021-07-02 13:09:50</time>
      </trkpt>
      <trkpt lat="28.97919" lon="-13.51931">
        <ele>7.4</ele>
        <time>2021-07-02 13:09:51</time>
      </trkpt>
      <trkpt lat="28.97923" lon="-13.51928">
        <ele>7.4</ele>
        <time>2021-07-02 13:09:52</time>
      </trkpt>
      <trkpt lat="28.97926" lon="-13.51924">
        <ele>7.4</ele>
        <time>2021-07-02 13:09:53</time>
      </trkpt>
      <trkpt lat="28.97929" lon="-13.5192">
        <ele>7.4</ele>
        <time>2021-07-02 13:09:54</time>
      </trkpt>
      <trkpt lat="28.97932" lon="-13.51916">
        <ele>7.4</ele>
        <time>2021-07-02 13:09:55</time>
      </trkpt>
      <trkpt lat="28.97936" lon="-13.51912">
        <ele>7.4</ele>
        <time>2021-07-02 13:09:56</time>
      </trkpt>
      <trkpt lat="28.97938" lon="-13.51909">
        <ele>7.4</ele>
        <time>2021-07-02 13:09:57</time>
      </trkpt>
      <trkpt lat="28.97941" lon="-13.51905">
        <ele>7.4</ele>
        <time>2021-07-02 13:09:58</time>
      </trkpt>
      <trkpt lat="28.97943" lon="-13.51901">
        <ele>7.4</ele>
        <time>2021-07-02 13:09:59</time>
      </trkpt>
      <trkpt lat="28.97947" lon="-13.51898">
        <ele>7.4</ele>
        <time>2021-07-02 13:10:00</time>
      </trkpt>
      <trkpt lat="28.9795" lon="-13.51895">
        <ele>7.4</ele>
        <time>2021-07-02 13:10:01</time>
      </trkpt>
      <trkpt lat="28.97952" lon="-13.51892">
        <ele>7.6</ele>
        <time>2021-07-02 13:10:02</time>
      </trkpt>
      <trkpt lat="28.97955" lon="-13.51888">
        <ele>7.6</ele>
        <time>2021-07-02 13:10:03</time>
      </trkpt>
      <trkpt lat="28.97958" lon="-13.51885">
        <ele>7.6</ele>
        <time>2021-07-02 13:10:04</time>
      </trkpt>
      <trkpt lat="28.97961" lon="-13.51881">
        <ele>7.8</ele>
        <time>2021-07-02 13:10:05</time>
      </trkpt>
      <trkpt lat="28.97964" lon="-13.51877">
        <ele>7.8</ele>
        <time>2021-07-02 13:10:06</time>
      </trkpt>
      <trkpt lat="28.97966" lon="-13.51873">
        <ele>7.8</ele>
        <time>2021-07-02 13:10:07</time>
      </trkpt>
      <trkpt lat="28.97969" lon="-13.5187">
        <ele>7.8</ele>
        <time>2021-07-02 13:10:08</time>
      </trkpt>
      <trkpt lat="28.97972" lon="-13.51866">
        <ele>7.8</ele>
        <time>2021-07-02 13:10:09</time>
      </trkpt>
      <trkpt lat="28.97974" lon="-13.51863">
        <ele>7.8</ele>
        <time>2021-07-02 13:10:10</time>
      </trkpt>
      <trkpt lat="28.97977" lon="-13.51859">
        <ele>8</ele>
        <time>2021-07-02 13:10:11</time>
      </trkpt>
      <trkpt lat="28.9798" lon="-13.51856">
        <ele>8</ele>
        <time>2021-07-02 13:10:12</time>
      </trkpt>
      <trkpt lat="28.97982" lon="-13.51852">
        <ele>8</ele>
        <time>2021-07-02 13:10:13</time>
      </trkpt>
      <trkpt lat="28.97984" lon="-13.51848">
        <ele>8</ele>
        <time>2021-07-02 13:10:14</time>
      </trkpt>
      <trkpt lat="28.97987" lon="-13.51844">
        <ele>8</ele>
        <time>2021-07-02 13:10:15</time>
      </trkpt>
      <trkpt lat="28.9799" lon="-13.51841">
        <ele>8</ele>
        <time>2021-07-02 13:10:16</time>
      </trkpt>
      <trkpt lat="28.97992" lon="-13.51837">
        <ele>8</ele>
        <time>2021-07-02 13:10:17</time>
      </trkpt>
      <trkpt lat="28.97995" lon="-13.51833">
        <ele>8</ele>
        <time>2021-07-02 13:10:18</time>
      </trkpt>
      <trkpt lat="28.97997" lon="-13.51829">
        <ele>8</ele>
        <time>2021-07-02 13:10:19</time>
      </trkpt>
      <trkpt lat="28.98" lon="-13.51825">
        <ele>8</ele>
        <time>2021-07-02 13:10:20</time>
      </trkpt>
      <trkpt lat="28.98002" lon="-13.51821">
        <ele>8</ele>
        <time>2021-07-02 13:10:21</time>
      </trkpt>
      <trkpt lat="28.98005" lon="-13.51816">
        <ele>8</ele>
        <time>2021-07-02 13:10:22</time>
      </trkpt>
      <trkpt lat="28.98007" lon="-13.51812">
        <ele>8</ele>
        <time>2021-07-02 13:10:23</time>
      </trkpt>
      <trkpt lat="28.9801" lon="-13.51808">
        <ele>8</ele>
        <time>2021-07-02 13:10:24</time>
      </trkpt>
      <trkpt lat="28.98013" lon="-13.51803">
        <ele>8</ele>
        <time>2021-07-02 13:10:25</time>
      </trkpt>
      <trkpt lat="28.98016" lon="-13.51799">
        <ele>8</ele>
        <time>2021-07-02 13:10:26</time>
      </trkpt>
      <trkpt lat="28.98018" lon="-13.51795">
        <ele>8</ele>
        <time>2021-07-02 13:10:27</time>
      </trkpt>
      <trkpt lat="28.98021" lon="-13.5179">
        <ele>7.8</ele>
        <time>2021-07-02 13:10:28</time>
      </trkpt>
      <trkpt lat="28.98024" lon="-13.51786">
        <ele>7.8</ele>
        <time>2021-07-02 13:10:29</time>
      </trkpt>
      <trkpt lat="28.98026" lon="-13.51782">
        <ele>7.4</ele>
        <time>2021-07-02 13:10:30</time>
      </trkpt>
      <trkpt lat="28.98029" lon="-13.51777">
        <ele>7.4</ele>
        <time>2021-07-02 13:10:31</time>
      </trkpt>
      <trkpt lat="28.98032" lon="-13.51773">
        <ele>7</ele>
        <time>2021-07-02 13:10:32</time>
      </trkpt>
      <trkpt lat="28.98034" lon="-13.51768">
        <ele>7</ele>
        <time>2021-07-02 13:10:33</time>
      </trkpt>
      <trkpt lat="28.98037" lon="-13.51764">
        <ele>7</ele>
        <time>2021-07-02 13:10:34</time>
      </trkpt>
      <trkpt lat="28.9804" lon="-13.51759">
        <ele>6.8</ele>
        <time>2021-07-02 13:10:35</time>
      </trkpt>
      <trkpt lat="28.98043" lon="-13.51754">
        <ele>6.8</ele>
        <time>2021-07-02 13:10:36</time>
      </trkpt>
      <trkpt lat="28.98046" lon="-13.51749">
        <ele>6.6</ele>
        <time>2021-07-02 13:10:37</time>
      </trkpt>
      <trkpt lat="28.98049" lon="-13.51744">
        <ele>6.6</ele>
        <time>2021-07-02 13:10:38</time>
      </trkpt>
      <trkpt lat="28.98052" lon="-13.5174">
        <ele>6.2</ele>
        <time>2021-07-02 13:10:39</time>
      </trkpt>
      <trkpt lat="28.98055" lon="-13.51735">
        <ele>6</ele>
        <time>2021-07-02 13:10:40</time>
      </trkpt>
      <trkpt lat="28.98058" lon="-13.5173">
        <ele>6</ele>
        <time>2021-07-02 13:10:41</time>
      </trkpt>
      <trkpt lat="28.98061" lon="-13.51726">
        <ele>5.6</ele>
        <time>2021-07-02 13:10:42</time>
      </trkpt>
      <trkpt lat="28.98064" lon="-13.51721">
        <ele>5.4</ele>
        <time>2021-07-02 13:10:43</time>
      </trkpt>
      <trkpt lat="28.98066" lon="-13.51717">
        <ele>5.2</ele>
        <time>2021-07-02 13:10:44</time>
      </trkpt>
      <trkpt lat="28.9807" lon="-13.51712">
        <ele>5.2</ele>
        <time>2021-07-02 13:10:45</time>
      </trkpt>
      <trkpt lat="28.98073" lon="-13.51708">
        <ele>4.8</ele>
        <time>2021-07-02 13:10:46</time>
      </trkpt>
      <trkpt lat="28.98075" lon="-13.51704">
        <ele>4.8</ele>
        <time>2021-07-02 13:10:47</time>
      </trkpt>
      <trkpt lat="28.98078" lon="-13.51699">
        <ele>4.4</ele>
        <time>2021-07-02 13:10:48</time>
      </trkpt>
      <trkpt lat="28.9808" lon="-13.51696">
        <ele>4.4</ele>
        <time>2021-07-02 13:10:49</time>
      </trkpt>
      <trkpt lat="28.98083" lon="-13.51691">
        <ele>4.4</ele>
        <time>2021-07-02 13:10:50</time>
      </trkpt>
      <trkpt lat="28.98087" lon="-13.51686">
        <ele>4.2</ele>
        <time>2021-07-02 13:10:51</time>
      </trkpt>
      <trkpt lat="28.98089" lon="-13.51681">
        <ele>4.2</ele>
        <time>2021-07-02 13:10:52</time>
      </trkpt>
      <trkpt lat="28.98093" lon="-13.51677">
        <ele>3.8</ele>
        <time>2021-07-02 13:10:53</time>
      </trkpt>
      <trkpt lat="28.98095" lon="-13.51672">
        <ele>3.8</ele>
        <time>2021-07-02 13:10:54</time>
      </trkpt>
      <trkpt lat="28.98098" lon="-13.51668">
        <ele>3.4</ele>
        <time>2021-07-02 13:10:55</time>
      </trkpt>
      <trkpt lat="28.98101" lon="-13.51664">
        <ele>3.4</ele>
        <time>2021-07-02 13:10:56</time>
      </trkpt>
      <trkpt lat="28.98104" lon="-13.51659">
        <ele>3.2</ele>
        <time>2021-07-02 13:10:57</time>
      </trkpt>
      <trkpt lat="28.98107" lon="-13.51654">
        <ele>3.2</ele>
        <time>2021-07-02 13:10:58</time>
      </trkpt>
      <trkpt lat="28.9811" lon="-13.51649">
        <ele>3</ele>
        <time>2021-07-02 13:10:59</time>
      </trkpt>
      <trkpt lat="28.98113" lon="-13.51645">
        <ele>3</ele>
        <time>2021-07-02 13:11:00</time>
      </trkpt>
      <trkpt lat="28.98116" lon="-13.51639">
        <ele>2.6</ele>
        <time>2021-07-02 13:11:01</time>
      </trkpt>
      <trkpt lat="28.98119" lon="-13.51634">
        <ele>2.4</ele>
        <time>2021-07-02 13:11:02</time>
      </trkpt>
      <trkpt lat="28.98122" lon="-13.5163">
        <ele>2.4</ele>
        <time>2021-07-02 13:11:03</time>
      </trkpt>
      <trkpt lat="28.98125" lon="-13.51625">
        <ele>2</ele>
        <time>2021-07-02 13:11:04</time>
      </trkpt>
      <trkpt lat="28.98128" lon="-13.51621">
        <ele>2</ele>
        <time>2021-07-02 13:11:05</time>
      </trkpt>
      <trkpt lat="28.9813" lon="-13.51616">
        <ele>1.8</ele>
        <time>2021-07-02 13:11:06</time>
      </trkpt>
      <trkpt lat="28.98133" lon="-13.51612">
        <ele>1.8</ele>
        <time>2021-07-02 13:11:07</time>
      </trkpt>
      <trkpt lat="28.98136" lon="-13.51608">
        <ele>1.4</ele>
        <time>2021-07-02 13:11:08</time>
      </trkpt>
      <trkpt lat="28.98138" lon="-13.51603">
        <ele>1.2</ele>
        <time>2021-07-02 13:11:09</time>
      </trkpt>
      <trkpt lat="28.98141" lon="-13.51599">
        <ele>1.2</ele>
        <time>2021-07-02 13:11:10</time>
      </trkpt>
      <trkpt lat="28.98144" lon="-13.51595">
        <ele>0.8</ele>
        <time>2021-07-02 13:11:11</time>
      </trkpt>
      <trkpt lat="28.98146" lon="-13.51591">
        <ele>0.8</ele>
        <time>2021-07-02 13:11:12</time>
      </trkpt>
      <trkpt lat="28.98149" lon="-13.51587">
        <ele>0.4</ele>
        <time>2021-07-02 13:11:13</time>
      </trkpt>
      <trkpt lat="28.98151" lon="-13.51583">
        <ele>0.4</ele>
        <time>2021-07-02 13:11:14</time>
      </trkpt>
      <trkpt lat="28.98154" lon="-13.51579">
        <ele>0.2</ele>
        <time>2021-07-02 13:11:15</time>
      </trkpt>
      <trkpt lat="28.98156" lon="-13.51575">
        <ele>0.2</ele>
        <time>2021-07-02 13:11:16</time>
      </trkpt>
      <trkpt lat="28.98159" lon="-13.51571">
        <ele>0.2</ele>
        <time>2021-07-02 13:11:17</time>
      </trkpt>
      <trkpt lat="28.98161" lon="-13.51567">
        <ele>0.2</ele>
        <time>2021-07-02 13:11:18</time>
      </trkpt>
      <trkpt lat="28.98163" lon="-13.51563">
        <ele>0.2</ele>
        <time>2021-07-02 13:11:19</time>
      </trkpt>
      <trkpt lat="28.98166" lon="-13.51559">
        <ele>0.2</ele>
        <time>2021-07-02 13:11:20</time>
      </trkpt>
      <trkpt lat="28.98168" lon="-13.51555">
        <ele>0.2</ele>
        <time>2021-07-02 13:11:21</time>
      </trkpt>
      <trkpt lat="28.98169" lon="-13.51551">
        <time>2021-07-02 13:11:22</time>
      </trkpt>
      <trkpt lat="28.98171" lon="-13.51547">
        <time>2021-07-02 13:11:23</time>
      </trkpt>
      <trkpt lat="28.98173" lon="-13.51543">
        <time>2021-07-02 13:11:24</time>
      </trkpt>
      <trkpt lat="28.98175" lon="-13.51539">
        <time>2021-07-02 13:11:25</time>
      </trkpt>
      <trkpt lat="28.98178" lon="-13.51535">
        <ele>-0.4</ele>
        <time>2021-07-02 13:11:26</time>
      </trkpt>
      <trkpt lat="28.9818" lon="-13.51531">
        <ele>-0.4</ele>
        <time>2021-07-02 13:11:27</time>
      </trkpt>
      <trkpt lat="28.98183" lon="-13.51527">
        <ele>-0.4</ele>
        <time>2021-07-02 13:11:28</time>
      </trkpt>
      <trkpt lat="28.98185" lon="-13.51523">
        <ele>-0.4</ele>
        <time>2021-07-02 13:11:29</time>
      </trkpt>
      <trkpt lat="28.98187" lon="-13.51519">
        <ele>-0.4</ele>
        <time>2021-07-02 13:11:30</time>
      </trkpt>
      <trkpt lat="28.98188" lon="-13.51514">
        <ele>-0.4</ele>
        <time>2021-07-02 13:11:31</time>
      </trkpt>
      <trkpt lat="28.98189" lon="-13.5151">
        <ele>-0.4</ele>
        <time>2021-07-02 13:11:32</time>
      </trkpt>
      <trkpt lat="28.9819" lon="-13.51506">
        <ele>-0.4</ele>
        <time>2021-07-02 13:11:33</time>
      </trkpt>
      <trkpt lat="28.98191" lon="-13.51502">
        <ele>-0.4</ele>
        <time>2021-07-02 13:11:34</time>
      </trkpt>
      <trkpt lat="28.98192" lon="-13.51497">
        <ele>-0.4</ele>
        <time>2021-07-02 13:11:35</time>
      </trkpt>
      <trkpt lat="28.98193" lon="-13.51493">
        <ele>-0.4</ele>
        <time>2021-07-02 13:11:36</time>
      </trkpt>
      <trkpt lat="28.98194" lon="-13.51488">
        <time>2021-07-02 13:11:37</time>
      </trkpt>
      <trkpt lat="28.98195" lon="-13.51484">
        <time>2021-07-02 13:11:38</time>
      </trkpt>
      <trkpt lat="28.98196" lon="-13.5148">
        <time>2021-07-02 13:11:39</time>
      </trkpt>
      <trkpt lat="28.98197" lon="-13.51476">
        <ele>0.2</ele>
        <time>2021-07-02 13:11:40</time>
      </trkpt>
      <trkpt lat="28.98198" lon="-13.51472">
        <ele>0.2</ele>
        <time>2021-07-02 13:11:41</time>
      </trkpt>
      <trkpt lat="28.98199" lon="-13.51468">
        <ele>0.2</ele>
        <time>2021-07-02 13:11:42</time>
      </trkpt>
      <trkpt lat="28.98199" lon="-13.51464">
        <ele>0.2</ele>
        <time>2021-07-02 13:11:43</time>
      </trkpt>
      <trkpt lat="28.98201" lon="-13.5146">
        <ele>0.2</ele>
        <time>2021-07-02 13:11:44</time>
      </trkpt>
      <trkpt lat="28.98202" lon="-13.51456">
        <ele>0.2</ele>
        <time>2021-07-02 13:11:45</time>
      </trkpt>
      <trkpt lat="28.98207" lon="-13.51437">
        <time>2021-07-02 13:11:46</time>
      </trkpt>
      <trkpt lat="28.98207" lon="-13.51433">
        <time>2021-07-02 13:11:47</time>
      </trkpt>
      <trkpt lat="28.98208" lon="-13.51429">
        <time>2021-07-02 13:11:48</time>
      </trkpt>
      <trkpt lat="28.98209" lon="-13.51426">
        <time>2021-07-02 13:11:49</time>
      </trkpt>
      <trkpt lat="28.9821" lon="-13.51422">
        <time>2021-07-02 13:11:50</time>
      </trkpt>
      <trkpt lat="28.98211" lon="-13.51418">
        <time>2021-07-02 13:11:51</time>
      </trkpt>
      <trkpt lat="28.98212" lon="-13.51414">
        <time>2021-07-02 13:11:52</time>
      </trkpt>
      <trkpt lat="28.98213" lon="-13.51411">
        <ele>0.2</ele>
        <time>2021-07-02 13:11:53</time>
      </trkpt>
      <trkpt lat="28.98214" lon="-13.51407">
        <ele>0.2</ele>
        <time>2021-07-02 13:11:54</time>
      </trkpt>
      <trkpt lat="28.98215" lon="-13.51403">
        <ele>0.6</ele>
        <time>2021-07-02 13:11:55</time>
      </trkpt>
      <trkpt lat="28.98216" lon="-13.514">
        <ele>0.6</ele>
        <time>2021-07-02 13:11:56</time>
      </trkpt>
      <trkpt lat="28.98217" lon="-13.51396">
        <ele>0.8</ele>
        <time>2021-07-02 13:11:57</time>
      </trkpt>
      <trkpt lat="28.98218" lon="-13.51392">
        <ele>0.8</ele>
        <time>2021-07-02 13:11:58</time>
      </trkpt>
      <trkpt lat="28.98219" lon="-13.51389">
        <ele>1</ele>
        <time>2021-07-02 13:11:59</time>
      </trkpt>
      <trkpt lat="28.9822" lon="-13.51385">
        <ele>1</ele>
        <time>2021-07-02 13:12:00</time>
      </trkpt>
      <trkpt lat="28.98221" lon="-13.51382">
        <ele>1.2</ele>
        <time>2021-07-02 13:12:01</time>
      </trkpt>
      <trkpt lat="28.98222" lon="-13.51378">
        <ele>1.6</ele>
        <time>2021-07-02 13:12:02</time>
      </trkpt>
      <trkpt lat="28.98223" lon="-13.51375">
        <ele>1.6</ele>
        <time>2021-07-02 13:12:03</time>
      </trkpt>
      <trkpt lat="28.98224" lon="-13.51371">
        <ele>1.8</ele>
        <time>2021-07-02 13:12:04</time>
      </trkpt>
      <trkpt lat="28.98225" lon="-13.51368">
        <ele>1.8</ele>
        <time>2021-07-02 13:12:05</time>
      </trkpt>
      <trkpt lat="28.98225" lon="-13.51364">
        <ele>1.8</ele>
        <time>2021-07-02 13:12:06</time>
      </trkpt>
      <trkpt lat="28.98227" lon="-13.51357">
        <ele>1.8</ele>
        <time>2021-07-02 13:12:07</time>
      </trkpt>
      <trkpt lat="28.98228" lon="-13.51354">
        <ele>2</ele>
        <time>2021-07-02 13:12:08</time>
      </trkpt>
      <trkpt lat="28.98229" lon="-13.5135">
        <ele>2</ele>
        <time>2021-07-02 13:12:09</time>
      </trkpt>
      <trkpt lat="28.9823" lon="-13.51347">
        <ele>2.2</ele>
        <time>2021-07-02 13:12:10</time>
      </trkpt>
      <trkpt lat="28.9823" lon="-13.51343">
        <ele>2.2</ele>
        <time>2021-07-02 13:12:11</time>
      </trkpt>
      <trkpt lat="28.98231" lon="-13.51339">
        <ele>2.2</ele>
        <time>2021-07-02 13:12:12</time>
      </trkpt>
      <trkpt lat="28.98232" lon="-13.51336">
        <ele>2.4</ele>
        <time>2021-07-02 13:12:13</time>
      </trkpt>
      <trkpt lat="28.98232" lon="-13.51332">
        <ele>2.4</ele>
        <time>2021-07-02 13:12:14</time>
      </trkpt>
      <trkpt lat="28.98233" lon="-13.51328">
        <ele>2.4</ele>
        <time>2021-07-02 13:12:15</time>
      </trkpt>
      <trkpt lat="28.98234" lon="-13.51325">
        <ele>2.4</ele>
        <time>2021-07-02 13:12:16</time>
      </trkpt>
      <trkpt lat="28.98234" lon="-13.51321">
        <ele>2.4</ele>
        <time>2021-07-02 13:12:17</time>
      </trkpt>
      <trkpt lat="28.98235" lon="-13.51318">
        <ele>2.4</ele>
        <time>2021-07-02 13:12:18</time>
      </trkpt>
      <trkpt lat="28.98236" lon="-13.51314">
        <ele>2.6</ele>
        <time>2021-07-02 13:12:19</time>
      </trkpt>
      <trkpt lat="28.98237" lon="-13.51311">
        <ele>2.6</ele>
        <time>2021-07-02 13:12:20</time>
      </trkpt>
      <trkpt lat="28.98239" lon="-13.51307">
        <ele>2.6</ele>
        <time>2021-07-02 13:12:21</time>
      </trkpt>
      <trkpt lat="28.9824" lon="-13.51304">
        <ele>2.6</ele>
        <time>2021-07-02 13:12:22</time>
      </trkpt>
      <trkpt lat="28.98242" lon="-13.513">
        <ele>2.8</ele>
        <time>2021-07-02 13:12:23</time>
      </trkpt>
      <trkpt lat="28.98244" lon="-13.51298">
        <ele>2.8</ele>
        <time>2021-07-02 13:12:24</time>
      </trkpt>
      <trkpt lat="28.98248" lon="-13.51296">
        <ele>2.8</ele>
        <time>2021-07-02 13:12:25</time>
      </trkpt>
      <trkpt lat="28.98251" lon="-13.51296">
        <ele>3</ele>
        <time>2021-07-02 13:12:26</time>
      </trkpt>
      <trkpt lat="28.98255" lon="-13.51298">
        <ele>3</ele>
        <time>2021-07-02 13:12:27</time>
      </trkpt>
      <trkpt lat="28.98258" lon="-13.513">
        <ele>3.4</ele>
        <time>2021-07-02 13:12:28</time>
      </trkpt>
      <trkpt lat="28.98261" lon="-13.51303">
        <ele>3.4</ele>
        <time>2021-07-02 13:12:29</time>
      </trkpt>
      <trkpt lat="28.98263" lon="-13.51306">
        <ele>3.6</ele>
        <time>2021-07-02 13:12:30</time>
      </trkpt>
      <trkpt lat="28.98266" lon="-13.5131">
        <ele>3.8</ele>
        <time>2021-07-02 13:12:31</time>
      </trkpt>
      <trkpt lat="28.98269" lon="-13.51313">
        <ele>3.8</ele>
        <time>2021-07-02 13:12:32</time>
      </trkpt>
      <trkpt lat="28.98271" lon="-13.51315">
        <ele>4.2</ele>
        <time>2021-07-02 13:12:33</time>
      </trkpt>
      <trkpt lat="28.98274" lon="-13.51318">
        <ele>4.4</ele>
        <time>2021-07-02 13:12:34</time>
      </trkpt>
      <trkpt lat="28.98277" lon="-13.51321">
        <ele>4.4</ele>
        <time>2021-07-02 13:12:35</time>
      </trkpt>
      <trkpt lat="28.9828" lon="-13.51323">
        <ele>4.8</ele>
        <time>2021-07-02 13:12:36</time>
      </trkpt>
      <trkpt lat="28.98283" lon="-13.51325">
        <ele>5</ele>
        <time>2021-07-02 13:12:37</time>
      </trkpt>
      <trkpt lat="28.98286" lon="-13.51328">
        <ele>5</ele>
        <time>2021-07-02 13:12:38</time>
      </trkpt>
      <trkpt lat="28.98289" lon="-13.5133">
        <ele>5.4</ele>
        <time>2021-07-02 13:12:39</time>
      </trkpt>
      <trkpt lat="28.98292" lon="-13.51332">
        <ele>5.6</ele>
        <time>2021-07-02 13:12:40</time>
      </trkpt>
      <trkpt lat="28.98295" lon="-13.51335">
        <ele>5.8</ele>
        <time>2021-07-02 13:12:41</time>
      </trkpt>
      <trkpt lat="28.98298" lon="-13.51337">
        <ele>5.8</ele>
        <time>2021-07-02 13:12:42</time>
      </trkpt>
      <trkpt lat="28.98301" lon="-13.5134">
        <ele>6.2</ele>
        <time>2021-07-02 13:12:43</time>
      </trkpt>
      <trkpt lat="28.98304" lon="-13.51342">
        <ele>6.2</ele>
        <time>2021-07-02 13:12:44</time>
      </trkpt>
      <trkpt lat="28.98307" lon="-13.51344">
        <ele>6.6</ele>
        <time>2021-07-02 13:12:45</time>
      </trkpt>
      <trkpt lat="28.9831" lon="-13.51347">
        <ele>6.6</ele>
        <time>2021-07-02 13:12:46</time>
      </trkpt>
      <trkpt lat="28.98313" lon="-13.51349">
        <ele>6.8</ele>
        <time>2021-07-02 13:12:47</time>
      </trkpt>
      <trkpt lat="28.98316" lon="-13.51351">
        <ele>6.8</ele>
        <time>2021-07-02 13:12:48</time>
      </trkpt>
      <trkpt lat="28.98319" lon="-13.51353">
        <ele>7</ele>
        <time>2021-07-02 13:12:49</time>
      </trkpt>
      <trkpt lat="28.98321" lon="-13.51355">
        <ele>7</ele>
        <time>2021-07-02 13:12:50</time>
      </trkpt>
      <trkpt lat="28.98324" lon="-13.51357">
        <ele>7.4</ele>
        <time>2021-07-02 13:12:51</time>
      </trkpt>
      <trkpt lat="28.98327" lon="-13.51359">
        <ele>7.4</ele>
        <time>2021-07-02 13:12:52</time>
      </trkpt>
      <trkpt lat="28.9833" lon="-13.51361">
        <ele>7.6</ele>
        <time>2021-07-02 13:12:53</time>
      </trkpt>
      <trkpt lat="28.98333" lon="-13.51362">
        <ele>7.6</ele>
        <time>2021-07-02 13:12:54</time>
      </trkpt>
      <trkpt lat="28.98336" lon="-13.51364">
        <ele>7.6</ele>
        <time>2021-07-02 13:12:55</time>
      </trkpt>
      <trkpt lat="28.98339" lon="-13.51366">
        <ele>7.8</ele>
        <time>2021-07-02 13:12:56</time>
      </trkpt>
      <trkpt lat="28.98342" lon="-13.51369">
        <ele>7.8</ele>
        <time>2021-07-02 13:12:57</time>
      </trkpt>
      <trkpt lat="28.98345" lon="-13.51371">
        <ele>7.8</ele>
        <time>2021-07-02 13:12:58</time>
      </trkpt>
      <trkpt lat="28.98348" lon="-13.51373">
        <ele>8</ele>
        <time>2021-07-02 13:12:59</time>
      </trkpt>
      <trkpt lat="28.98351" lon="-13.51375">
        <ele>8.4</ele>
        <time>2021-07-02 13:13:00</time>
      </trkpt>
      <trkpt lat="28.98354" lon="-13.51378">
        <ele>8.4</ele>
        <time>2021-07-02 13:13:01</time>
      </trkpt>
      <trkpt lat="28.98357" lon="-13.5138">
        <ele>8.6</ele>
        <time>2021-07-02 13:13:02</time>
      </trkpt>
      <trkpt lat="28.9836" lon="-13.51382">
        <ele>8.6</ele>
        <time>2021-07-02 13:13:03</time>
      </trkpt>
      <trkpt lat="28.98363" lon="-13.51384">
        <ele>9</ele>
        <time>2021-07-02 13:13:04</time>
      </trkpt>
      <trkpt lat="28.98366" lon="-13.51387">
        <ele>9</ele>
        <time>2021-07-02 13:13:05</time>
      </trkpt>
      <trkpt lat="28.98369" lon="-13.51389">
        <ele>9.2</ele>
        <time>2021-07-02 13:13:06</time>
      </trkpt>
      <trkpt lat="28.98372" lon="-13.51392">
        <ele>9.2</ele>
        <time>2021-07-02 13:13:07</time>
      </trkpt>
      <trkpt lat="28.98375" lon="-13.51394">
        <ele>9.6</ele>
        <time>2021-07-02 13:13:08</time>
      </trkpt>
      <trkpt lat="28.98378" lon="-13.51396">
        <ele>9.6</ele>
        <time>2021-07-02 13:13:09</time>
      </trkpt>
      <trkpt lat="28.98382" lon="-13.51399">
        <ele>9.6</ele>
        <time>2021-07-02 13:13:10</time>
      </trkpt>
      <trkpt lat="28.98385" lon="-13.51401">
        <ele>9.6</ele>
        <time>2021-07-02 13:13:11</time>
      </trkpt>
      <trkpt lat="28.98388" lon="-13.51403">
        <ele>9.6</ele>
        <time>2021-07-02 13:13:12</time>
      </trkpt>
      <trkpt lat="28.98391" lon="-13.51406">
        <ele>9.6</ele>
        <time>2021-07-02 13:13:13</time>
      </trkpt>
      <trkpt lat="28.98395" lon="-13.51409">
        <ele>9.8</ele>
        <time>2021-07-02 13:13:14</time>
      </trkpt>
      <trkpt lat="28.98398" lon="-13.51411">
        <ele>9.8</ele>
        <time>2021-07-02 13:13:15</time>
      </trkpt>
      <trkpt lat="28.98401" lon="-13.51414">
        <ele>9.8</ele>
        <time>2021-07-02 13:13:16</time>
      </trkpt>
      <trkpt lat="28.98404" lon="-13.51416">
        <ele>10</ele>
        <time>2021-07-02 13:13:17</time>
      </trkpt>
      <trkpt lat="28.98408" lon="-13.51419">
        <ele>10</ele>
        <time>2021-07-02 13:13:18</time>
      </trkpt>
      <trkpt lat="28.98411" lon="-13.51422">
        <ele>10</ele>
        <time>2021-07-02 13:13:19</time>
      </trkpt>
      <trkpt lat="28.98414" lon="-13.51424">
        <ele>10.4</ele>
        <time>2021-07-02 13:13:20</time>
      </trkpt>
      <trkpt lat="28.98417" lon="-13.51427">
        <ele>10.4</ele>
        <time>2021-07-02 13:13:21</time>
      </trkpt>
      <trkpt lat="28.98421" lon="-13.5143">
        <ele>10.6</ele>
        <time>2021-07-02 13:13:22</time>
      </trkpt>
      <trkpt lat="28.98424" lon="-13.51432">
        <ele>10.6</ele>
        <time>2021-07-02 13:13:23</time>
      </trkpt>
      <trkpt lat="28.98428" lon="-13.51435">
        <ele>11</ele>
        <time>2021-07-02 13:13:24</time>
      </trkpt>
      <trkpt lat="28.98432" lon="-13.51436">
        <ele>11</ele>
        <time>2021-07-02 13:13:25</time>
      </trkpt>
      <trkpt lat="28.98436" lon="-13.51437">
        <ele>11.2</ele>
        <time>2021-07-02 13:13:26</time>
      </trkpt>
      <trkpt lat="28.98439" lon="-13.51437">
        <ele>11.2</ele>
        <time>2021-07-02 13:13:27</time>
      </trkpt>
      <trkpt lat="28.98443" lon="-13.51436">
        <ele>11.2</ele>
        <time>2021-07-02 13:13:28</time>
      </trkpt>
      <trkpt lat="28.98446" lon="-13.51434">
        <ele>11.4</ele>
        <time>2021-07-02 13:13:29</time>
      </trkpt>
      <trkpt lat="28.98449" lon="-13.51431">
        <ele>11.4</ele>
        <time>2021-07-02 13:13:30</time>
      </trkpt>
      <trkpt lat="28.98451" lon="-13.51428">
        <ele>11.4</ele>
        <time>2021-07-02 13:13:31</time>
      </trkpt>
      <trkpt lat="28.98453" lon="-13.51424">
        <ele>11.8</ele>
        <time>2021-07-02 13:13:32</time>
      </trkpt>
      <trkpt lat="28.98455" lon="-13.51421">
        <ele>11.8</ele>
        <time>2021-07-02 13:13:33</time>
      </trkpt>
      <trkpt lat="28.98457" lon="-13.51418">
        <ele>12.2</ele>
        <time>2021-07-02 13:13:34</time>
      </trkpt>
      <trkpt lat="28.98458" lon="-13.51415">
        <ele>12.2</ele>
        <time>2021-07-02 13:13:35</time>
      </trkpt>
      <trkpt lat="28.9846" lon="-13.51412">
        <ele>12.4</ele>
        <time>2021-07-02 13:13:36</time>
      </trkpt>
      <trkpt lat="28.98462" lon="-13.51409">
        <ele>12.4</ele>
        <time>2021-07-02 13:13:37</time>
      </trkpt>
      <trkpt lat="28.98464" lon="-13.51406">
        <ele>12.4</ele>
        <time>2021-07-02 13:13:38</time>
      </trkpt>
      <trkpt lat="28.98466" lon="-13.51403">
        <ele>12.4</ele>
        <time>2021-07-02 13:13:39</time>
      </trkpt>
      <trkpt lat="28.98467" lon="-13.51399">
        <ele>12.4</ele>
        <time>2021-07-02 13:13:40</time>
      </trkpt>
      <trkpt lat="28.98469" lon="-13.51396">
        <ele>12.8</ele>
        <time>2021-07-02 13:13:41</time>
      </trkpt>
      <trkpt lat="28.98471" lon="-13.51393">
        <ele>12.8</ele>
        <time>2021-07-02 13:13:42</time>
      </trkpt>
      <trkpt lat="28.98473" lon="-13.51389">
        <ele>12.8</ele>
        <time>2021-07-02 13:13:43</time>
      </trkpt>
      <trkpt lat="28.98475" lon="-13.51386">
        <ele>13</ele>
        <time>2021-07-02 13:13:44</time>
      </trkpt>
      <trkpt lat="28.98477" lon="-13.51383">
        <ele>13</ele>
        <time>2021-07-02 13:13:45</time>
      </trkpt>
      <trkpt lat="28.98478" lon="-13.51379">
        <ele>13</ele>
        <time>2021-07-02 13:13:46</time>
      </trkpt>
      <trkpt lat="28.9848" lon="-13.51376">
        <ele>13</ele>
        <time>2021-07-02 13:13:47</time>
      </trkpt>
      <trkpt lat="28.98483" lon="-13.51372">
        <ele>13</ele>
        <time>2021-07-02 13:13:48</time>
      </trkpt>
      <trkpt lat="28.98485" lon="-13.51369">
        <ele>13</ele>
        <time>2021-07-02 13:13:49</time>
      </trkpt>
      <trkpt lat="28.98487" lon="-13.51366">
        <ele>13</ele>
        <time>2021-07-02 13:13:50</time>
      </trkpt>
      <trkpt lat="28.98489" lon="-13.51362">
        <ele>13</ele>
        <time>2021-07-02 13:13:51</time>
      </trkpt>
      <trkpt lat="28.98491" lon="-13.51358">
        <ele>13</ele>
        <time>2021-07-02 13:13:52</time>
      </trkpt>
      <trkpt lat="28.98494" lon="-13.51355">
        <ele>13</ele>
        <time>2021-07-02 13:13:53</time>
      </trkpt>
      <trkpt lat="28.98496" lon="-13.51351">
        <ele>13.2</ele>
        <time>2021-07-02 13:13:54</time>
      </trkpt>
      <trkpt lat="28.98498" lon="-13.51347">
        <ele>13.2</ele>
        <time>2021-07-02 13:13:55</time>
      </trkpt>
      <trkpt lat="28.985" lon="-13.51343">
        <ele>13.2</ele>
        <time>2021-07-02 13:13:56</time>
      </trkpt>
      <trkpt lat="28.98502" lon="-13.5134">
        <ele>13.2</ele>
        <time>2021-07-02 13:13:57</time>
      </trkpt>
      <trkpt lat="28.98505" lon="-13.51336">
        <ele>13.2</ele>
        <time>2021-07-02 13:13:58</time>
      </trkpt>
      <trkpt lat="28.98507" lon="-13.51332">
        <ele>13.4</ele>
        <time>2021-07-02 13:13:59</time>
      </trkpt>
      <trkpt lat="28.98509" lon="-13.51328">
        <ele>13.4</ele>
        <time>2021-07-02 13:14:00</time>
      </trkpt>
      <trkpt lat="28.98511" lon="-13.51325">
        <ele>13.4</ele>
        <time>2021-07-02 13:14:01</time>
      </trkpt>
      <trkpt lat="28.98514" lon="-13.51321">
        <ele>13.4</ele>
        <time>2021-07-02 13:14:02</time>
      </trkpt>
      <trkpt lat="28.98517" lon="-13.51317">
        <ele>13.4</ele>
        <time>2021-07-02 13:14:03</time>
      </trkpt>
      <trkpt lat="28.98519" lon="-13.51313">
        <ele>13.2</ele>
        <time>2021-07-02 13:14:04</time>
      </trkpt>
      <trkpt lat="28.98522" lon="-13.51309">
        <ele>13.2</ele>
        <time>2021-07-02 13:14:05</time>
      </trkpt>
      <trkpt lat="28.98524" lon="-13.51304">
        <ele>13.2</ele>
        <time>2021-07-02 13:14:06</time>
      </trkpt>
      <trkpt lat="28.98527" lon="-13.513">
        <ele>13.2</ele>
        <time>2021-07-02 13:14:07</time>
      </trkpt>
      <trkpt lat="28.98529" lon="-13.51296">
        <ele>13.2</ele>
        <time>2021-07-02 13:14:08</time>
      </trkpt>
      <trkpt lat="28.98532" lon="-13.51291">
        <ele>13.2</ele>
        <time>2021-07-02 13:14:09</time>
      </trkpt>
      <trkpt lat="28.98535" lon="-13.51287">
        <ele>13.2</ele>
        <time>2021-07-02 13:14:10</time>
      </trkpt>
      <trkpt lat="28.98537" lon="-13.51283">
        <ele>13.2</ele>
        <time>2021-07-02 13:14:11</time>
      </trkpt>
      <trkpt lat="28.98539" lon="-13.51278">
        <ele>13.2</ele>
        <time>2021-07-02 13:14:12</time>
      </trkpt>
      <trkpt lat="28.98542" lon="-13.51274">
        <ele>13.2</ele>
        <time>2021-07-02 13:14:13</time>
      </trkpt>
      <trkpt lat="28.98544" lon="-13.51269">
        <ele>13.2</ele>
        <time>2021-07-02 13:14:14</time>
      </trkpt>
      <trkpt lat="28.98546" lon="-13.51265">
        <ele>13</ele>
        <time>2021-07-02 13:14:15</time>
      </trkpt>
      <trkpt lat="28.98549" lon="-13.5126">
        <ele>13</ele>
        <time>2021-07-02 13:14:16</time>
      </trkpt>
      <trkpt lat="28.98551" lon="-13.51256">
        <ele>13</ele>
        <time>2021-07-02 13:14:17</time>
      </trkpt>
      <trkpt lat="28.98553" lon="-13.51252">
        <ele>12.6</ele>
        <time>2021-07-02 13:14:18</time>
      </trkpt>
      <trkpt lat="28.98556" lon="-13.51248">
        <ele>12.6</ele>
        <time>2021-07-02 13:14:19</time>
      </trkpt>
      <trkpt lat="28.98558" lon="-13.51244">
        <ele>12.6</ele>
        <time>2021-07-02 13:14:20</time>
      </trkpt>
      <trkpt lat="28.98561" lon="-13.5124">
        <ele>12.4</ele>
        <time>2021-07-02 13:14:21</time>
      </trkpt>
      <trkpt lat="28.98563" lon="-13.51236">
        <ele>12.4</ele>
        <time>2021-07-02 13:14:22</time>
      </trkpt>
      <trkpt lat="28.98566" lon="-13.51233">
        <ele>12.4</ele>
        <time>2021-07-02 13:14:23</time>
      </trkpt>
      <trkpt lat="28.98568" lon="-13.51229">
        <ele>12.4</ele>
        <time>2021-07-02 13:14:24</time>
      </trkpt>
      <trkpt lat="28.9857" lon="-13.51225">
        <ele>12.4</ele>
        <time>2021-07-02 13:14:25</time>
      </trkpt>
      <trkpt lat="28.98572" lon="-13.51221">
        <ele>12.4</ele>
        <time>2021-07-02 13:14:26</time>
      </trkpt>
      <trkpt lat="28.98575" lon="-13.51218">
        <ele>12.8</ele>
        <time>2021-07-02 13:14:27</time>
      </trkpt>
      <trkpt lat="28.98577" lon="-13.51215">
        <ele>12.8</ele>
        <time>2021-07-02 13:14:28</time>
      </trkpt>
      <trkpt lat="28.98578" lon="-13.51211">
        <ele>13</ele>
        <time>2021-07-02 13:14:29</time>
      </trkpt>
      <trkpt lat="28.9858" lon="-13.51208">
        <ele>13</ele>
        <time>2021-07-02 13:14:30</time>
      </trkpt>
      <trkpt lat="28.98582" lon="-13.51205">
        <ele>13.2</ele>
        <time>2021-07-02 13:14:31</time>
      </trkpt>
      <trkpt lat="28.98584" lon="-13.51201">
        <ele>13.2</ele>
        <time>2021-07-02 13:14:32</time>
      </trkpt>
      <trkpt lat="28.98586" lon="-13.51198">
        <ele>13.4</ele>
        <time>2021-07-02 13:14:33</time>
      </trkpt>
      <trkpt lat="28.98588" lon="-13.51195">
        <ele>13.4</ele>
        <time>2021-07-02 13:14:34</time>
      </trkpt>
      <trkpt lat="28.9859" lon="-13.51192">
        <ele>13.8</ele>
        <time>2021-07-02 13:14:35</time>
      </trkpt>
      <trkpt lat="28.98591" lon="-13.51189">
        <ele>13.8</ele>
        <time>2021-07-02 13:14:36</time>
      </trkpt>
      <trkpt lat="28.98593" lon="-13.51186">
        <ele>14</ele>
        <time>2021-07-02 13:14:37</time>
      </trkpt>
      <trkpt lat="28.98595" lon="-13.51182">
        <ele>14</ele>
        <time>2021-07-02 13:14:38</time>
      </trkpt>
      <trkpt lat="28.98597" lon="-13.51179">
        <ele>14</ele>
        <time>2021-07-02 13:14:39</time>
      </trkpt>
      <trkpt lat="28.98599" lon="-13.51177">
        <ele>14.2</ele>
        <time>2021-07-02 13:14:40</time>
      </trkpt>
      <trkpt lat="28.98601" lon="-13.51174">
        <ele>14.2</ele>
        <time>2021-07-02 13:14:41</time>
      </trkpt>
      <trkpt lat="28.98603" lon="-13.51171">
        <ele>14.4</ele>
        <time>2021-07-02 13:14:42</time>
      </trkpt>
      <trkpt lat="28.98605" lon="-13.51168">
        <ele>14.4</ele>
        <time>2021-07-02 13:14:43</time>
      </trkpt>
      <trkpt lat="28.98607" lon="-13.51165">
        <ele>14.8</ele>
        <time>2021-07-02 13:14:44</time>
      </trkpt>
      <trkpt lat="28.98609" lon="-13.51162">
        <ele>15</ele>
        <time>2021-07-02 13:14:45</time>
      </trkpt>
      <trkpt lat="28.98611" lon="-13.51159">
        <ele>15</ele>
        <time>2021-07-02 13:14:46</time>
      </trkpt>
      <trkpt lat="28.98613" lon="-13.51156">
        <ele>15.4</ele>
        <time>2021-07-02 13:14:47</time>
      </trkpt>
      <trkpt lat="28.98615" lon="-13.51153">
        <ele>15.4</ele>
        <time>2021-07-02 13:14:48</time>
      </trkpt>
      <trkpt lat="28.98617" lon="-13.51151">
        <ele>15.6</ele>
        <time>2021-07-02 13:14:49</time>
      </trkpt>
      <trkpt lat="28.98619" lon="-13.51148">
        <ele>15.6</ele>
        <time>2021-07-02 13:14:50</time>
      </trkpt>
      <trkpt lat="28.98621" lon="-13.51145">
        <ele>15.8</ele>
        <time>2021-07-02 13:14:51</time>
      </trkpt>
      <trkpt lat="28.98623" lon="-13.51142">
        <ele>15.8</ele>
        <time>2021-07-02 13:14:52</time>
      </trkpt>
      <trkpt lat="28.98625" lon="-13.51139">
        <ele>16</ele>
        <time>2021-07-02 13:14:53</time>
      </trkpt>
      <trkpt lat="28.98627" lon="-13.51136">
        <ele>16</ele>
        <time>2021-07-02 13:14:54</time>
      </trkpt>
      <trkpt lat="28.9863" lon="-13.51133">
        <ele>16.4</ele>
        <time>2021-07-02 13:14:55</time>
      </trkpt>
      <trkpt lat="28.98632" lon="-13.5113">
        <ele>16.4</ele>
        <time>2021-07-02 13:14:56</time>
      </trkpt>
      <trkpt lat="28.98634" lon="-13.51127">
        <ele>16.6</ele>
        <time>2021-07-02 13:14:57</time>
      </trkpt>
      <trkpt lat="28.98637" lon="-13.51124">
        <ele>16.6</ele>
        <time>2021-07-02 13:14:58</time>
      </trkpt>
      <trkpt lat="28.9864" lon="-13.51121">
        <ele>16.8</ele>
        <time>2021-07-02 13:14:59</time>
      </trkpt>
      <trkpt lat="28.98642" lon="-13.51118">
        <ele>16.8</ele>
        <time>2021-07-02 13:15:00</time>
      </trkpt>
      <trkpt lat="28.98644" lon="-13.51115">
        <ele>16.8</ele>
        <time>2021-07-02 13:15:01</time>
      </trkpt>
      <trkpt lat="28.98647" lon="-13.51112">
        <ele>17.2</ele>
        <time>2021-07-02 13:15:02</time>
      </trkpt>
      <trkpt lat="28.98649" lon="-13.51109">
        <ele>17.2</ele>
        <time>2021-07-02 13:15:03</time>
      </trkpt>
      <trkpt lat="28.98652" lon="-13.51106">
        <ele>17.2</ele>
        <time>2021-07-02 13:15:04</time>
      </trkpt>
      <trkpt lat="28.98654" lon="-13.51103">
        <ele>17.2</ele>
        <time>2021-07-02 13:15:05</time>
      </trkpt>
      <trkpt lat="28.98657" lon="-13.511">
        <ele>17.4</ele>
        <time>2021-07-02 13:15:06</time>
      </trkpt>
      <trkpt lat="28.98659" lon="-13.51097">
        <ele>17.4</ele>
        <time>2021-07-02 13:15:07</time>
      </trkpt>
      <trkpt lat="28.98662" lon="-13.51094">
        <ele>17.4</ele>
        <time>2021-07-02 13:15:08</time>
      </trkpt>
      <trkpt lat="28.98664" lon="-13.51091">
        <ele>17.8</ele>
        <time>2021-07-02 13:15:09</time>
      </trkpt>
      <trkpt lat="28.98667" lon="-13.51087">
        <ele>17.8</ele>
        <time>2021-07-02 13:15:10</time>
      </trkpt>
      <trkpt lat="28.98669" lon="-13.51084">
        <ele>18</ele>
        <time>2021-07-02 13:15:11</time>
      </trkpt>
      <trkpt lat="28.98671" lon="-13.51081">
        <ele>18</ele>
        <time>2021-07-02 13:15:12</time>
      </trkpt>
      <trkpt lat="28.98674" lon="-13.51078">
        <ele>18</ele>
        <time>2021-07-02 13:15:13</time>
      </trkpt>
      <trkpt lat="28.98676" lon="-13.51075">
        <ele>18.2</ele>
        <time>2021-07-02 13:15:14</time>
      </trkpt>
      <trkpt lat="28.98679" lon="-13.51072">
        <ele>18.2</ele>
        <time>2021-07-02 13:15:15</time>
      </trkpt>
      <trkpt lat="28.98681" lon="-13.51069">
        <ele>18.4</ele>
        <time>2021-07-02 13:15:16</time>
      </trkpt>
      <trkpt lat="28.98684" lon="-13.51067">
        <ele>18.4</ele>
        <time>2021-07-02 13:15:17</time>
      </trkpt>
      <trkpt lat="28.98687" lon="-13.51064">
        <ele>18.8</ele>
        <time>2021-07-02 13:15:18</time>
      </trkpt>
      <trkpt lat="28.98689" lon="-13.51062">
        <ele>18.8</ele>
        <time>2021-07-02 13:15:19</time>
      </trkpt>
      <trkpt lat="28.98692" lon="-13.51059">
        <ele>19</ele>
        <time>2021-07-02 13:15:20</time>
      </trkpt>
      <trkpt lat="28.98694" lon="-13.51056">
        <ele>19</ele>
        <time>2021-07-02 13:15:21</time>
      </trkpt>
      <trkpt lat="28.98697" lon="-13.51053">
        <ele>19.2</ele>
        <time>2021-07-02 13:15:22</time>
      </trkpt>
      <trkpt lat="28.98699" lon="-13.51051">
        <ele>19.2</ele>
        <time>2021-07-02 13:15:23</time>
      </trkpt>
      <trkpt lat="28.98702" lon="-13.51048">
        <ele>19.2</ele>
        <time>2021-07-02 13:15:24</time>
      </trkpt>
      <trkpt lat="28.98705" lon="-13.51045">
        <ele>19.6</ele>
        <time>2021-07-02 13:15:25</time>
      </trkpt>
      <trkpt lat="28.98707" lon="-13.51042">
        <ele>19.6</ele>
        <time>2021-07-02 13:15:26</time>
      </trkpt>
      <trkpt lat="28.9871" lon="-13.5104">
        <ele>20</ele>
        <time>2021-07-02 13:15:27</time>
      </trkpt>
      <trkpt lat="28.98712" lon="-13.51037">
        <ele>20</ele>
        <time>2021-07-02 13:15:28</time>
      </trkpt>
      <trkpt lat="28.98715" lon="-13.51035">
        <ele>20</ele>
        <time>2021-07-02 13:15:29</time>
      </trkpt>
      <trkpt lat="28.98718" lon="-13.51032">
        <ele>20</ele>
        <time>2021-07-02 13:15:30</time>
      </trkpt>
      <trkpt lat="28.98721" lon="-13.5103">
        <ele>20.4</ele>
        <time>2021-07-02 13:15:31</time>
      </trkpt>
      <trkpt lat="28.98724" lon="-13.51027">
        <ele>20.4</ele>
        <time>2021-07-02 13:15:32</time>
      </trkpt>
      <trkpt lat="28.98726" lon="-13.51025">
        <ele>20.4</ele>
        <time>2021-07-02 13:15:33</time>
      </trkpt>
      <trkpt lat="28.98729" lon="-13.51022">
        <ele>20.6</ele>
        <time>2021-07-02 13:15:34</time>
      </trkpt>
      <trkpt lat="28.98732" lon="-13.5102">
        <ele>20.6</ele>
        <time>2021-07-02 13:15:35</time>
      </trkpt>
      <trkpt lat="28.98735" lon="-13.51017">
        <ele>20.8</ele>
        <time>2021-07-02 13:15:36</time>
      </trkpt>
      <trkpt lat="28.98738" lon="-13.51014">
        <ele>20.8</ele>
        <time>2021-07-02 13:15:37</time>
      </trkpt>
      <trkpt lat="28.98741" lon="-13.51011">
        <ele>20.8</ele>
        <time>2021-07-02 13:15:38</time>
      </trkpt>
      <trkpt lat="28.98744" lon="-13.51009">
        <ele>20.8</ele>
        <time>2021-07-02 13:15:39</time>
      </trkpt>
      <trkpt lat="28.98746" lon="-13.51006">
        <ele>20.8</ele>
        <time>2021-07-02 13:15:40</time>
      </trkpt>
      <trkpt lat="28.98749" lon="-13.51002">
        <ele>20.8</ele>
        <time>2021-07-02 13:15:41</time>
      </trkpt>
      <trkpt lat="28.98752" lon="-13.50999">
        <ele>20.8</ele>
        <time>2021-07-02 13:15:42</time>
      </trkpt>
      <trkpt lat="28.98756" lon="-13.50996">
        <ele>20.8</ele>
        <time>2021-07-02 13:15:43</time>
      </trkpt>
      <trkpt lat="28.98759" lon="-13.50992">
        <ele>20.8</ele>
        <time>2021-07-02 13:15:44</time>
      </trkpt>
      <trkpt lat="28.98762" lon="-13.50989">
        <ele>20.8</ele>
        <time>2021-07-02 13:15:45</time>
      </trkpt>
      <trkpt lat="28.98766" lon="-13.50986">
        <ele>20.6</ele>
        <time>2021-07-02 13:15:46</time>
      </trkpt>
      <trkpt lat="28.98769" lon="-13.50982">
        <ele>20.6</ele>
        <time>2021-07-02 13:15:47</time>
      </trkpt>
      <trkpt lat="28.98773" lon="-13.50979">
        <ele>20.2</ele>
        <time>2021-07-02 13:15:48</time>
      </trkpt>
      <trkpt lat="28.98777" lon="-13.50976">
        <ele>20.2</ele>
        <time>2021-07-02 13:15:49</time>
      </trkpt>
      <trkpt lat="28.98781" lon="-13.50972">
        <ele>20</ele>
        <time>2021-07-02 13:15:50</time>
      </trkpt>
      <trkpt lat="28.98785" lon="-13.50969">
        <ele>20</ele>
        <time>2021-07-02 13:15:51</time>
      </trkpt>
      <trkpt lat="28.98789" lon="-13.50966">
        <ele>19.6</ele>
        <time>2021-07-02 13:15:52</time>
      </trkpt>
      <trkpt lat="28.98793" lon="-13.50962">
        <ele>19.4</ele>
        <time>2021-07-02 13:15:53</time>
      </trkpt>
      <trkpt lat="28.98796" lon="-13.50959">
        <ele>19.2</ele>
        <time>2021-07-02 13:15:54</time>
      </trkpt>
      <trkpt lat="28.988" lon="-13.50955">
        <ele>19.2</ele>
        <time>2021-07-02 13:15:55</time>
      </trkpt>
      <trkpt lat="28.98804" lon="-13.50952">
        <ele>18.8</ele>
        <time>2021-07-02 13:15:56</time>
      </trkpt>
      <trkpt lat="28.98808" lon="-13.50949">
        <ele>18.8</ele>
        <time>2021-07-02 13:15:57</time>
      </trkpt>
      <trkpt lat="28.98811" lon="-13.50945">
        <ele>18.6</ele>
        <time>2021-07-02 13:15:58</time>
      </trkpt>
      <trkpt lat="28.98815" lon="-13.50942">
        <ele>18.4</ele>
        <time>2021-07-02 13:15:59</time>
      </trkpt>
      <trkpt lat="28.98819" lon="-13.50939">
        <ele>18.4</ele>
        <time>2021-07-02 13:16:00</time>
      </trkpt>
      <trkpt lat="28.98823" lon="-13.50935">
        <ele>18</ele>
        <time>2021-07-02 13:16:01</time>
      </trkpt>
      <trkpt lat="28.98826" lon="-13.50932">
        <ele>17.8</ele>
        <time>2021-07-02 13:16:02</time>
      </trkpt>
      <trkpt lat="28.9883" lon="-13.50929">
        <ele>17.8</ele>
        <time>2021-07-02 13:16:03</time>
      </trkpt>
      <trkpt lat="28.98834" lon="-13.50925">
        <ele>17.6</ele>
        <time>2021-07-02 13:16:04</time>
      </trkpt>
      <trkpt lat="28.98838" lon="-13.50922">
        <ele>17.2</ele>
        <time>2021-07-02 13:16:05</time>
      </trkpt>
      <trkpt lat="28.98841" lon="-13.50919">
        <ele>17</ele>
        <time>2021-07-02 13:16:06</time>
      </trkpt>
      <trkpt lat="28.98846" lon="-13.50915">
        <ele>17</ele>
        <time>2021-07-02 13:16:07</time>
      </trkpt>
      <trkpt lat="28.98849" lon="-13.50912">
        <ele>16.6</ele>
        <time>2021-07-02 13:16:08</time>
      </trkpt>
      <trkpt lat="28.98853" lon="-13.50908">
        <ele>16.6</ele>
        <time>2021-07-02 13:16:09</time>
      </trkpt>
      <trkpt lat="28.98856" lon="-13.50905">
        <ele>16.4</ele>
        <time>2021-07-02 13:16:10</time>
      </trkpt>
      <trkpt lat="28.9886" lon="-13.50902">
        <ele>16.4</ele>
        <time>2021-07-02 13:16:11</time>
      </trkpt>
      <trkpt lat="28.98864" lon="-13.50899">
        <ele>16.4</ele>
        <time>2021-07-02 13:16:12</time>
      </trkpt>
      <trkpt lat="28.98867" lon="-13.50896">
        <ele>16.4</ele>
        <time>2021-07-02 13:16:13</time>
      </trkpt>
      <trkpt lat="28.98871" lon="-13.50891">
        <ele>16.4</ele>
        <time>2021-07-02 13:16:14</time>
      </trkpt>
      <trkpt lat="28.98874" lon="-13.50888">
        <ele>16.4</ele>
        <time>2021-07-02 13:16:15</time>
      </trkpt>
      <trkpt lat="28.98878" lon="-13.50884">
        <ele>16.2</ele>
        <time>2021-07-02 13:16:16</time>
      </trkpt>
      <trkpt lat="28.98882" lon="-13.5088">
        <ele>16.2</ele>
        <time>2021-07-02 13:16:17</time>
      </trkpt>
      <trkpt lat="28.98886" lon="-13.50877">
        <ele>16.2</ele>
        <time>2021-07-02 13:16:18</time>
      </trkpt>
      <trkpt lat="28.98889" lon="-13.50873">
        <ele>16.2</ele>
        <time>2021-07-02 13:16:19</time>
      </trkpt>
      <trkpt lat="28.98892" lon="-13.50869">
        <ele>16.2</ele>
        <time>2021-07-02 13:16:20</time>
      </trkpt>
      <trkpt lat="28.98896" lon="-13.50865">
        <ele>16.2</ele>
        <time>2021-07-02 13:16:21</time>
      </trkpt>
      <trkpt lat="28.98899" lon="-13.50861">
        <ele>16.2</ele>
        <time>2021-07-02 13:16:22</time>
      </trkpt>
      <trkpt lat="28.98903" lon="-13.50857">
        <ele>16.2</ele>
        <time>2021-07-02 13:16:23</time>
      </trkpt>
      <trkpt lat="28.98906" lon="-13.50853">
        <ele>16.2</ele>
        <time>2021-07-02 13:16:24</time>
      </trkpt>
      <trkpt lat="28.98908" lon="-13.50849">
        <ele>16.2</ele>
        <time>2021-07-02 13:16:25</time>
      </trkpt>
      <trkpt lat="28.98912" lon="-13.50845">
        <ele>16.2</ele>
        <time>2021-07-02 13:16:26</time>
      </trkpt>
      <trkpt lat="28.98915" lon="-13.50841">
        <ele>16.2</ele>
        <time>2021-07-02 13:16:27</time>
      </trkpt>
      <trkpt lat="28.98918" lon="-13.50836">
        <ele>16.2</ele>
        <time>2021-07-02 13:16:28</time>
      </trkpt>
      <trkpt lat="28.98921" lon="-13.50833">
        <ele>16.4</ele>
        <time>2021-07-02 13:16:29</time>
      </trkpt>
      <trkpt lat="28.98924" lon="-13.50828">
        <ele>16.4</ele>
        <time>2021-07-02 13:16:30</time>
      </trkpt>
      <trkpt lat="28.98928" lon="-13.50824">
        <ele>16.4</ele>
        <time>2021-07-02 13:16:31</time>
      </trkpt>
      <trkpt lat="28.9893" lon="-13.50819">
        <ele>16</ele>
        <time>2021-07-02 13:16:32</time>
      </trkpt>
      <trkpt lat="28.98933" lon="-13.50815">
        <ele>16</ele>
        <time>2021-07-02 13:16:33</time>
      </trkpt>
      <trkpt lat="28.98936" lon="-13.5081">
        <ele>15.8</ele>
        <time>2021-07-02 13:16:34</time>
      </trkpt>
      <trkpt lat="28.98938" lon="-13.50805">
        <ele>15.8</ele>
        <time>2021-07-02 13:16:35</time>
      </trkpt>
      <trkpt lat="28.9894" lon="-13.50801">
        <ele>15.8</ele>
        <time>2021-07-02 13:16:36</time>
      </trkpt>
      <trkpt lat="28.98943" lon="-13.50797">
        <ele>15.8</ele>
        <time>2021-07-02 13:16:37</time>
      </trkpt>
      <trkpt lat="28.98945" lon="-13.50792">
        <ele>15.8</ele>
        <time>2021-07-02 13:16:38</time>
      </trkpt>
      <trkpt lat="28.98948" lon="-13.50787">
        <ele>15.8</ele>
        <time>2021-07-02 13:16:39</time>
      </trkpt>
      <trkpt lat="28.98949" lon="-13.50783">
        <ele>15.8</ele>
        <time>2021-07-02 13:16:40</time>
      </trkpt>
      <trkpt lat="28.98952" lon="-13.50778">
        <ele>15.8</ele>
        <time>2021-07-02 13:16:41</time>
      </trkpt>
      <trkpt lat="28.98954" lon="-13.50773">
        <ele>15.6</ele>
        <time>2021-07-02 13:16:42</time>
      </trkpt>
      <trkpt lat="28.98956" lon="-13.50768">
        <ele>15.6</ele>
        <time>2021-07-02 13:16:43</time>
      </trkpt>
      <trkpt lat="28.98958" lon="-13.50763">
        <ele>15.2</ele>
        <time>2021-07-02 13:16:44</time>
      </trkpt>
      <trkpt lat="28.9896" lon="-13.50758">
        <ele>15.2</ele>
        <time>2021-07-02 13:16:45</time>
      </trkpt>
      <trkpt lat="28.98962" lon="-13.50753">
        <ele>15.2</ele>
        <time>2021-07-02 13:16:46</time>
      </trkpt>
      <trkpt lat="28.98964" lon="-13.50747">
        <ele>15.2</ele>
        <time>2021-07-02 13:16:47</time>
      </trkpt>
      <trkpt lat="28.98965" lon="-13.50742">
        <ele>15.2</ele>
        <time>2021-07-02 13:16:48</time>
      </trkpt>
      <trkpt lat="28.98967" lon="-13.50737">
        <ele>15.2</ele>
        <time>2021-07-02 13:16:49</time>
      </trkpt>
      <trkpt lat="28.98968" lon="-13.50731">
        <ele>15.2</ele>
        <time>2021-07-02 13:16:50</time>
      </trkpt>
      <trkpt lat="28.9897" lon="-13.50727">
        <ele>15.2</ele>
        <time>2021-07-02 13:16:51</time>
      </trkpt>
      <trkpt lat="28.98971" lon="-13.50722">
        <ele>15.2</ele>
        <time>2021-07-02 13:16:52</time>
      </trkpt>
      <trkpt lat="28.98972" lon="-13.50717">
        <ele>15.2</ele>
        <time>2021-07-02 13:16:53</time>
      </trkpt>
      <trkpt lat="28.98973" lon="-13.50712">
        <ele>15.2</ele>
        <time>2021-07-02 13:16:54</time>
      </trkpt>
      <trkpt lat="28.98975" lon="-13.50707">
        <ele>15.2</ele>
        <time>2021-07-02 13:16:55</time>
      </trkpt>
      <trkpt lat="28.98975" lon="-13.50702">
        <ele>15.2</ele>
        <time>2021-07-02 13:16:56</time>
      </trkpt>
      <trkpt lat="28.98977" lon="-13.50697">
        <ele>15.2</ele>
        <time>2021-07-02 13:16:57</time>
      </trkpt>
      <trkpt lat="28.98979" lon="-13.50692">
        <ele>15.2</ele>
        <time>2021-07-02 13:16:58</time>
      </trkpt>
      <trkpt lat="28.9898" lon="-13.50686">
        <ele>15.2</ele>
        <time>2021-07-02 13:16:59</time>
      </trkpt>
      <trkpt lat="28.98981" lon="-13.50681">
        <ele>15.2</ele>
        <time>2021-07-02 13:17:00</time>
      </trkpt>
      <trkpt lat="28.98983" lon="-13.50676">
        <ele>15.2</ele>
        <time>2021-07-02 13:17:01</time>
      </trkpt>
      <trkpt lat="28.98985" lon="-13.50671">
        <ele>15.2</ele>
        <time>2021-07-02 13:17:02</time>
      </trkpt>
      <trkpt lat="28.98986" lon="-13.50665">
        <ele>15.2</ele>
        <time>2021-07-02 13:17:03</time>
      </trkpt>
      <trkpt lat="28.98987" lon="-13.5066">
        <ele>15.2</ele>
        <time>2021-07-02 13:17:04</time>
      </trkpt>
      <trkpt lat="28.98989" lon="-13.50654">
        <ele>15</ele>
        <time>2021-07-02 13:17:05</time>
      </trkpt>
      <trkpt lat="28.98991" lon="-13.5065">
        <ele>15</ele>
        <time>2021-07-02 13:17:06</time>
      </trkpt>
      <trkpt lat="28.98992" lon="-13.50645">
        <ele>15</ele>
        <time>2021-07-02 13:17:07</time>
      </trkpt>
      <trkpt lat="28.98992" lon="-13.5064">
        <ele>15</ele>
        <time>2021-07-02 13:17:08</time>
      </trkpt>
      <trkpt lat="28.98994" lon="-13.50635">
        <ele>15</ele>
        <time>2021-07-02 13:17:09</time>
      </trkpt>
      <trkpt lat="28.98995" lon="-13.50631">
        <ele>15</ele>
        <time>2021-07-02 13:17:10</time>
      </trkpt>
      <trkpt lat="28.98996" lon="-13.50626">
        <ele>15</ele>
        <time>2021-07-02 13:17:11</time>
      </trkpt>
      <trkpt lat="28.98998" lon="-13.50622">
        <ele>15</ele>
        <time>2021-07-02 13:17:12</time>
      </trkpt>
      <trkpt lat="28.98999" lon="-13.50617">
        <ele>15.2</ele>
        <time>2021-07-02 13:17:13</time>
      </trkpt>
      <trkpt lat="28.99" lon="-13.50613">
        <ele>15.2</ele>
        <time>2021-07-02 13:17:14</time>
      </trkpt>
      <trkpt lat="28.99001" lon="-13.50609">
        <ele>15.4</ele>
        <time>2021-07-02 13:17:15</time>
      </trkpt>
      <trkpt lat="28.99003" lon="-13.50605">
        <ele>15.4</ele>
        <time>2021-07-02 13:17:16</time>
      </trkpt>
      <trkpt lat="28.99004" lon="-13.50601">
        <ele>15.8</ele>
        <time>2021-07-02 13:17:17</time>
      </trkpt>
      <trkpt lat="28.99005" lon="-13.50597">
        <ele>15.8</ele>
        <time>2021-07-02 13:17:18</time>
      </trkpt>
      <trkpt lat="28.99006" lon="-13.50593">
        <ele>16.2</ele>
        <time>2021-07-02 13:17:19</time>
      </trkpt>
      <trkpt lat="28.99007" lon="-13.50589">
        <ele>16.2</ele>
        <time>2021-07-02 13:17:20</time>
      </trkpt>
      <trkpt lat="28.99008" lon="-13.50585">
        <ele>16.6</ele>
        <time>2021-07-02 13:17:21</time>
      </trkpt>
      <trkpt lat="28.99009" lon="-13.50581">
        <ele>16.6</ele>
        <time>2021-07-02 13:17:22</time>
      </trkpt>
      <trkpt lat="28.9901" lon="-13.50577">
        <ele>16.8</ele>
        <time>2021-07-02 13:17:23</time>
      </trkpt>
      <trkpt lat="28.99011" lon="-13.50573">
        <ele>16.8</ele>
        <time>2021-07-02 13:17:24</time>
      </trkpt>
      <trkpt lat="28.99012" lon="-13.50569">
        <ele>17</ele>
        <time>2021-07-02 13:17:25</time>
      </trkpt>
      <trkpt lat="28.99014" lon="-13.50565">
        <ele>17.2</ele>
        <time>2021-07-02 13:17:26</time>
      </trkpt>
      <trkpt lat="28.99015" lon="-13.50561">
        <ele>17.2</ele>
        <time>2021-07-02 13:17:27</time>
      </trkpt>
      <trkpt lat="28.99016" lon="-13.50556">
        <ele>17.6</ele>
        <time>2021-07-02 13:17:28</time>
      </trkpt>
      <trkpt lat="28.99017" lon="-13.50552">
        <ele>17.6</ele>
        <time>2021-07-02 13:17:29</time>
      </trkpt>
      <trkpt lat="28.99018" lon="-13.50548">
        <ele>17.8</ele>
        <time>2021-07-02 13:17:30</time>
      </trkpt>
      <trkpt lat="28.99019" lon="-13.50543">
        <ele>17.8</ele>
        <time>2021-07-02 13:17:31</time>
      </trkpt>
      <trkpt lat="28.9902" lon="-13.50539">
        <ele>17.8</ele>
        <time>2021-07-02 13:17:32</time>
      </trkpt>
      <trkpt lat="28.99021" lon="-13.50534">
        <ele>17.8</ele>
        <time>2021-07-02 13:17:33</time>
      </trkpt>
      <trkpt lat="28.99022" lon="-13.5053">
        <ele>17.8</ele>
        <time>2021-07-02 13:17:34</time>
      </trkpt>
      <trkpt lat="28.99023" lon="-13.50525">
        <ele>17.8</ele>
        <time>2021-07-02 13:17:35</time>
      </trkpt>
      <trkpt lat="28.99025" lon="-13.5052">
        <ele>17.8</ele>
        <time>2021-07-02 13:17:36</time>
      </trkpt>
      <trkpt lat="28.99026" lon="-13.50516">
        <ele>17.8</ele>
        <time>2021-07-02 13:17:37</time>
      </trkpt>
      <trkpt lat="28.99027" lon="-13.50511">
        <ele>17.8</ele>
        <time>2021-07-02 13:17:38</time>
      </trkpt>
      <trkpt lat="28.99028" lon="-13.50506">
        <ele>17.8</ele>
        <time>2021-07-02 13:17:39</time>
      </trkpt>
      <trkpt lat="28.99029" lon="-13.50502">
        <ele>17.8</ele>
        <time>2021-07-02 13:17:40</time>
      </trkpt>
      <trkpt lat="28.99031" lon="-13.50497">
        <ele>17.8</ele>
        <time>2021-07-02 13:17:41</time>
      </trkpt>
      <trkpt lat="28.99033" lon="-13.50492">
        <ele>17.8</ele>
        <time>2021-07-02 13:17:42</time>
      </trkpt>
      <trkpt lat="28.99034" lon="-13.50487">
        <ele>17.4</ele>
        <time>2021-07-02 13:17:43</time>
      </trkpt>
      <trkpt lat="28.99035" lon="-13.50482">
        <ele>17.4</ele>
        <time>2021-07-02 13:17:44</time>
      </trkpt>
      <trkpt lat="28.99036" lon="-13.50477">
        <ele>17.4</ele>
        <time>2021-07-02 13:17:45</time>
      </trkpt>
      <trkpt lat="28.99037" lon="-13.50473">
        <ele>17.2</ele>
        <time>2021-07-02 13:17:46</time>
      </trkpt>
      <trkpt lat="28.99038" lon="-13.50468">
        <ele>17.2</ele>
        <time>2021-07-02 13:17:47</time>
      </trkpt>
      <trkpt lat="28.99039" lon="-13.50464">
        <ele>17.2</ele>
        <time>2021-07-02 13:17:48</time>
      </trkpt>
      <trkpt lat="28.99041" lon="-13.50459">
        <ele>17.2</ele>
        <time>2021-07-02 13:17:49</time>
      </trkpt>
      <trkpt lat="28.99042" lon="-13.50455">
        <ele>17</ele>
        <time>2021-07-02 13:17:50</time>
      </trkpt>
      <trkpt lat="28.99044" lon="-13.5045">
        <ele>17</ele>
        <time>2021-07-02 13:17:51</time>
      </trkpt>
      <trkpt lat="28.99045" lon="-13.50446">
        <ele>17</ele>
        <time>2021-07-02 13:17:52</time>
      </trkpt>
      <trkpt lat="28.99046" lon="-13.50442">
        <ele>17</ele>
        <time>2021-07-02 13:17:53</time>
      </trkpt>
      <trkpt lat="28.99048" lon="-13.50437">
        <ele>17</ele>
        <time>2021-07-02 13:17:54</time>
      </trkpt>
      <trkpt lat="28.99049" lon="-13.50433">
        <ele>17</ele>
        <time>2021-07-02 13:17:55</time>
      </trkpt>
      <trkpt lat="28.9905" lon="-13.50428">
        <ele>16.8</ele>
        <time>2021-07-02 13:17:56</time>
      </trkpt>
      <trkpt lat="28.99051" lon="-13.50423">
        <ele>16.8</ele>
        <time>2021-07-02 13:17:57</time>
      </trkpt>
      <trkpt lat="28.99052" lon="-13.50419">
        <ele>16.6</ele>
        <time>2021-07-02 13:17:58</time>
      </trkpt>
      <trkpt lat="28.99053" lon="-13.50415">
        <ele>16.6</ele>
        <time>2021-07-02 13:17:59</time>
      </trkpt>
      <trkpt lat="28.99054" lon="-13.5041">
        <ele>16.6</ele>
        <time>2021-07-02 13:18:00</time>
      </trkpt>
      <trkpt lat="28.99056" lon="-13.50406">
        <ele>16.6</ele>
        <time>2021-07-02 13:18:01</time>
      </trkpt>
      <trkpt lat="28.99057" lon="-13.50401">
        <ele>16.6</ele>
        <time>2021-07-02 13:18:02</time>
      </trkpt>
      <trkpt lat="28.99058" lon="-13.50396">
        <ele>16.6</ele>
        <time>2021-07-02 13:18:03</time>
      </trkpt>
      <trkpt lat="28.99059" lon="-13.50392">
        <ele>16.6</ele>
        <time>2021-07-02 13:18:04</time>
      </trkpt>
      <trkpt lat="28.9906" lon="-13.50387">
        <ele>16.6</ele>
        <time>2021-07-02 13:18:05</time>
      </trkpt>
      <trkpt lat="28.99062" lon="-13.50382">
        <ele>16.4</ele>
        <time>2021-07-02 13:18:06</time>
      </trkpt>
      <trkpt lat="28.99063" lon="-13.50377">
        <ele>16.4</ele>
        <time>2021-07-02 13:18:07</time>
      </trkpt>
      <trkpt lat="28.99065" lon="-13.50372">
        <ele>16.4</ele>
        <time>2021-07-02 13:18:08</time>
      </trkpt>
      <trkpt lat="28.99066" lon="-13.50367">
        <ele>16</ele>
        <time>2021-07-02 13:18:09</time>
      </trkpt>
      <trkpt lat="28.99068" lon="-13.50361">
        <ele>16</ele>
        <time>2021-07-02 13:18:10</time>
      </trkpt>
      <trkpt lat="28.99069" lon="-13.50357">
        <ele>15.8</ele>
        <time>2021-07-02 13:18:11</time>
      </trkpt>
      <trkpt lat="28.99071" lon="-13.50352">
        <ele>15.8</ele>
        <time>2021-07-02 13:18:12</time>
      </trkpt>
      <trkpt lat="28.99071" lon="-13.50348">
        <ele>15.8</ele>
        <time>2021-07-02 13:18:13</time>
      </trkpt>
      <trkpt lat="28.99072" lon="-13.50343">
        <ele>15.6</ele>
        <time>2021-07-02 13:18:14</time>
      </trkpt>
      <trkpt lat="28.99073" lon="-13.50337">
        <ele>15.6</ele>
        <time>2021-07-02 13:18:15</time>
      </trkpt>
      <trkpt lat="28.99075" lon="-13.50333">
        <ele>15.2</ele>
        <time>2021-07-02 13:18:16</time>
      </trkpt>
      <trkpt lat="28.99076" lon="-13.50328">
        <ele>15.2</ele>
        <time>2021-07-02 13:18:17</time>
      </trkpt>
      <trkpt lat="28.99078" lon="-13.50323">
        <ele>15.2</ele>
        <time>2021-07-02 13:18:18</time>
      </trkpt>
      <trkpt lat="28.99079" lon="-13.50318">
        <ele>15</ele>
        <time>2021-07-02 13:18:19</time>
      </trkpt>
      <trkpt lat="28.99081" lon="-13.50313">
        <ele>15</ele>
        <time>2021-07-02 13:18:20</time>
      </trkpt>
      <trkpt lat="28.99083" lon="-13.50308">
        <ele>15</ele>
        <time>2021-07-02 13:18:21</time>
      </trkpt>
      <trkpt lat="28.99084" lon="-13.50303">
        <ele>15</ele>
        <time>2021-07-02 13:18:22</time>
      </trkpt>
      <trkpt lat="28.99085" lon="-13.50297">
        <ele>14.8</ele>
        <time>2021-07-02 13:18:23</time>
      </trkpt>
      <trkpt lat="28.99087" lon="-13.50292">
        <ele>14.8</ele>
        <time>2021-07-02 13:18:24</time>
      </trkpt>
      <trkpt lat="28.99088" lon="-13.50287">
        <ele>14.6</ele>
        <time>2021-07-02 13:18:25</time>
      </trkpt>
      <trkpt lat="28.99089" lon="-13.50281">
        <ele>14.6</ele>
        <time>2021-07-02 13:18:26</time>
      </trkpt>
      <trkpt lat="28.99091" lon="-13.50275">
        <ele>14.2</ele>
        <time>2021-07-02 13:18:27</time>
      </trkpt>
      <trkpt lat="28.99092" lon="-13.5027">
        <ele>14.2</ele>
        <time>2021-07-02 13:18:28</time>
      </trkpt>
      <trkpt lat="28.99094" lon="-13.50264">
        <ele>13.8</ele>
        <time>2021-07-02 13:18:29</time>
      </trkpt>
      <trkpt lat="28.99096" lon="-13.50258">
        <ele>13.8</ele>
        <time>2021-07-02 13:18:30</time>
      </trkpt>
      <trkpt lat="28.99097" lon="-13.50252">
        <ele>13.6</ele>
        <time>2021-07-02 13:18:31</time>
      </trkpt>
      <trkpt lat="28.99099" lon="-13.50246">
        <ele>13.4</ele>
        <time>2021-07-02 13:18:32</time>
      </trkpt>
      <trkpt lat="28.991" lon="-13.50239">
        <ele>13</ele>
        <time>2021-07-02 13:18:33</time>
      </trkpt>
      <trkpt lat="28.99102" lon="-13.50233">
        <ele>12.6</ele>
        <time>2021-07-02 13:18:34</time>
      </trkpt>
      <trkpt lat="28.99104" lon="-13.50227">
        <ele>12.4</ele>
        <time>2021-07-02 13:18:35</time>
      </trkpt>
      <trkpt lat="28.99105" lon="-13.5022">
        <ele>12</ele>
        <time>2021-07-02 13:18:36</time>
      </trkpt>
      <trkpt lat="28.99106" lon="-13.50214">
        <ele>11.8</ele>
        <time>2021-07-02 13:18:37</time>
      </trkpt>
      <trkpt lat="28.99108" lon="-13.50208">
        <ele>11.8</ele>
        <time>2021-07-02 13:18:38</time>
      </trkpt>
      <trkpt lat="28.99109" lon="-13.50201">
        <ele>11.8</ele>
        <time>2021-07-02 13:18:39</time>
      </trkpt>
      <trkpt lat="28.99111" lon="-13.50195">
        <ele>11.6</ele>
        <time>2021-07-02 13:18:40</time>
      </trkpt>
      <trkpt lat="28.99113" lon="-13.50189">
        <ele>11.6</ele>
        <time>2021-07-02 13:18:41</time>
      </trkpt>
      <trkpt lat="28.99114" lon="-13.50183">
        <ele>11.6</ele>
        <time>2021-07-02 13:18:42</time>
      </trkpt>
      <trkpt lat="28.99115" lon="-13.50178">
        <ele>11.6</ele>
        <time>2021-07-02 13:18:43</time>
      </trkpt>
      <trkpt lat="28.99116" lon="-13.50173">
        <ele>11.6</ele>
        <time>2021-07-02 13:18:44</time>
      </trkpt>
      <trkpt lat="28.99117" lon="-13.50167">
        <ele>11.8</ele>
        <time>2021-07-02 13:18:45</time>
      </trkpt>
      <trkpt lat="28.99119" lon="-13.50162">
        <ele>11.8</ele>
        <time>2021-07-02 13:18:46</time>
      </trkpt>
      <trkpt lat="28.9912" lon="-13.50156">
        <ele>11.8</ele>
        <time>2021-07-02 13:18:47</time>
      </trkpt>
      <trkpt lat="28.99122" lon="-13.50151">
        <ele>11.8</ele>
        <time>2021-07-02 13:18:48</time>
      </trkpt>
      <trkpt lat="28.99125" lon="-13.50147">
        <ele>11.6</ele>
        <time>2021-07-02 13:18:49</time>
      </trkpt>
      <trkpt lat="28.99126" lon="-13.50143">
        <ele>11.6</ele>
        <time>2021-07-02 13:18:50</time>
      </trkpt>
      <trkpt lat="28.99128" lon="-13.50139">
        <ele>11.6</ele>
        <time>2021-07-02 13:18:51</time>
      </trkpt>
      <trkpt lat="28.99129" lon="-13.50134">
        <ele>11.6</ele>
        <time>2021-07-02 13:18:52</time>
      </trkpt>
      <trkpt lat="28.9913" lon="-13.50131">
        <ele>11.2</ele>
        <time>2021-07-02 13:18:53</time>
      </trkpt>
      <trkpt lat="28.99131" lon="-13.50128">
        <ele>11</ele>
        <time>2021-07-02 13:18:54</time>
      </trkpt>
      <trkpt lat="28.99132" lon="-13.50126">
        <ele>10.8</ele>
        <time>2021-07-02 13:18:55</time>
      </trkpt>
      <trkpt lat="28.99133" lon="-13.50125">
        <ele>10.6</ele>
        <time>2021-07-02 13:18:56</time>
      </trkpt>
      <trkpt lat="28.99134" lon="-13.50123">
        <ele>10.6</ele>
        <time>2021-07-02 13:18:57</time>
      </trkpt>
      <trkpt lat="28.99135" lon="-13.50121">
        <ele>10.2</ele>
        <time>2021-07-02 13:18:58</time>
      </trkpt>
      <trkpt lat="28.99135" lon="-13.50119">
        <ele>9.8</ele>
        <time>2021-07-02 13:18:59</time>
      </trkpt>
      <trkpt lat="28.99135" lon="-13.50118">
        <ele>9.8</ele>
        <time>2021-07-02 13:19:00</time>
      </trkpt>
      <trkpt lat="28.99134" lon="-13.50117">
        <ele>9.6</ele>
        <time>2021-07-02 13:19:01</time>
      </trkpt>
      <trkpt lat="28.99133" lon="-13.50116">
        <ele>9.6</ele>
        <time>2021-07-02 13:19:02</time>
      </trkpt>
      <trkpt lat="28.99132" lon="-13.50115">
        <ele>9.2</ele>
        <time>2021-07-02 13:19:03</time>
      </trkpt>
      <trkpt lat="28.99131" lon="-13.50113">
        <ele>9.2</ele>
        <time>2021-07-02 13:19:04</time>
      </trkpt>
      <trkpt lat="28.9913" lon="-13.50111">
        <ele>9</ele>
        <time>2021-07-02 13:19:05</time>
      </trkpt>
      <trkpt lat="28.99129" lon="-13.50108">
        <ele>9</ele>
        <time>2021-07-02 13:19:06</time>
      </trkpt>
      <trkpt lat="28.99128" lon="-13.50106">
        <ele>9</ele>
        <time>2021-07-02 13:19:07</time>
      </trkpt>
      <trkpt lat="28.99126" lon="-13.50103">
        <ele>9</ele>
        <time>2021-07-02 13:19:08</time>
      </trkpt>
      <trkpt lat="28.99125" lon="-13.501">
        <ele>9</ele>
        <time>2021-07-02 13:19:09</time>
      </trkpt>
      <trkpt lat="28.99123" lon="-13.50096">
        <ele>9</ele>
        <time>2021-07-02 13:19:10</time>
      </trkpt>
      <trkpt lat="28.99123" lon="-13.50091">
        <ele>9</ele>
        <time>2021-07-02 13:19:11</time>
      </trkpt>
      <trkpt lat="28.99122" lon="-13.50086">
        <ele>9</ele>
        <time>2021-07-02 13:19:12</time>
      </trkpt>
      <trkpt lat="28.9912" lon="-13.50082">
        <ele>9</ele>
        <time>2021-07-02 13:19:13</time>
      </trkpt>
      <trkpt lat="28.99118" lon="-13.50078">
        <ele>8.6</ele>
        <time>2021-07-02 13:19:14</time>
      </trkpt>
      <trkpt lat="28.99115" lon="-13.50075">
        <ele>8.4</ele>
        <time>2021-07-02 13:19:15</time>
      </trkpt>
      <trkpt lat="28.99112" lon="-13.50072">
        <ele>8.4</ele>
        <time>2021-07-02 13:19:16</time>
      </trkpt>
      <trkpt lat="28.99109" lon="-13.50069">
        <ele>8</ele>
        <time>2021-07-02 13:19:17</time>
      </trkpt>
      <trkpt lat="28.99105" lon="-13.50068">
        <ele>7.8</ele>
        <time>2021-07-02 13:19:18</time>
      </trkpt>
      <trkpt lat="28.99101" lon="-13.50066">
        <ele>7.8</ele>
        <time>2021-07-02 13:19:19</time>
      </trkpt>
      <trkpt lat="28.99097" lon="-13.50064">
        <ele>7.4</ele>
        <time>2021-07-02 13:19:20</time>
      </trkpt>
      <trkpt lat="28.99093" lon="-13.50063">
        <ele>7.4</ele>
        <time>2021-07-02 13:19:21</time>
      </trkpt>
      <trkpt lat="28.9909" lon="-13.5006">
        <ele>7</ele>
        <time>2021-07-02 13:19:22</time>
      </trkpt>
      <trkpt lat="28.99087" lon="-13.50057">
        <ele>6.8</ele>
        <time>2021-07-02 13:19:23</time>
      </trkpt>
      <trkpt lat="28.99084" lon="-13.50054">
        <ele>6.8</ele>
        <time>2021-07-02 13:19:24</time>
      </trkpt>
      <trkpt lat="28.99083" lon="-13.50049">
        <ele>6.8</ele>
        <time>2021-07-02 13:19:25</time>
      </trkpt>
      <trkpt lat="28.99082" lon="-13.50045">
        <ele>6.6</ele>
        <time>2021-07-02 13:19:26</time>
      </trkpt>
      <trkpt lat="28.99081" lon="-13.50041">
        <ele>6.6</ele>
        <time>2021-07-02 13:19:27</time>
      </trkpt>
      <trkpt lat="28.99081" lon="-13.50036">
        <ele>6.6</ele>
        <time>2021-07-02 13:19:28</time>
      </trkpt>
      <trkpt lat="28.99082" lon="-13.50031">
        <ele>6.6</ele>
        <time>2021-07-02 13:19:29</time>
      </trkpt>
      <trkpt lat="28.99083" lon="-13.50026">
        <ele>6.2</ele>
        <time>2021-07-02 13:19:30</time>
      </trkpt>
      <trkpt lat="28.99083" lon="-13.50023">
        <ele>6.2</ele>
        <time>2021-07-02 13:19:31</time>
      </trkpt>
      <trkpt lat="28.99082" lon="-13.50022">
        <ele>5.8</ele>
        <time>2021-07-02 13:19:32</time>
      </trkpt>
      <trkpt lat="28.99082" lon="-13.50022">
        <ele>5.8</ele>
        <time>2021-07-02 13:19:33</time>
      </trkpt>
      <trkpt lat="28.99082" lon="-13.50022">
        <ele>5.8</ele>
        <time>2021-07-02 13:19:34</time>
      </trkpt>
      <trkpt lat="28.99082" lon="-13.50023">
        <ele>5.8</ele>
        <time>2021-07-02 13:19:35</time>
      </trkpt>
      <trkpt lat="28.99082" lon="-13.50025">
        <ele>5.4</ele>
        <time>2021-07-02 13:19:36</time>
      </trkpt>
      <trkpt lat="28.99082" lon="-13.50025">
        <ele>5.4</ele>
        <time>2021-07-02 13:19:37</time>
      </trkpt>
      <trkpt lat="28.99083" lon="-13.50025">
        <ele>5.4</ele>
        <time>2021-07-02 13:19:38</time>
      </trkpt>
      <trkpt lat="28.99083" lon="-13.50026">
        <ele>5.4</ele>
        <time>2021-07-02 13:19:39</time>
      </trkpt>
      <trkpt lat="28.99083" lon="-13.50027">
        <ele>5.4</ele>
        <time>2021-07-02 13:19:40</time>
      </trkpt>
      <trkpt lat="28.99083" lon="-13.50027">
        <ele>5.2</ele>
        <time>2021-07-02 13:19:41</time>
      </trkpt>
      <trkpt lat="28.99083" lon="-13.50027">
        <ele>5.2</ele>
        <time>2021-07-02 13:19:42</time>
      </trkpt>
      <trkpt lat="28.99083" lon="-13.50027">
        <ele>5.2</ele>
        <time>2021-07-02 13:19:43</time>
      </trkpt>
      <trkpt lat="28.99081" lon="-13.50027">
        <ele>4.6</ele>
        <time>2021-07-02 13:19:44</time>
      </trkpt>
      <trkpt lat="28.99081" lon="-13.50025">
        <ele>4.6</ele>
        <time>2021-07-02 13:19:45</time>
      </trkpt>
      <trkpt lat="28.99081" lon="-13.50023">
        <ele>4.6</ele>
        <time>2021-07-02 13:19:46</time>
      </trkpt>
      <trkpt lat="28.99081" lon="-13.5002">
        <ele>4.6</ele>
        <time>2021-07-02 13:19:47</time>
      </trkpt>
      <trkpt lat="28.99081" lon="-13.50017">
        <ele>4.8</ele>
        <time>2021-07-02 13:19:48</time>
      </trkpt>
      <trkpt lat="28.99081" lon="-13.50013">
        <ele>4.8</ele>
        <time>2021-07-02 13:19:49</time>
      </trkpt>
      <trkpt lat="28.99081" lon="-13.5001">
        <ele>4.8</ele>
        <time>2021-07-02 13:19:50</time>
      </trkpt>
      <trkpt lat="28.99081" lon="-13.50007">
        <ele>4.8</ele>
        <time>2021-07-02 13:19:51</time>
      </trkpt>
      <trkpt lat="28.99081" lon="-13.50002">
        <ele>4.8</ele>
        <time>2021-07-02 13:19:54</time>
      </trkpt>
      <trkpt lat="28.99082" lon="-13.49998">
        <ele>4.8</ele>
        <time>2021-07-02 13:19:55</time>
      </trkpt>
      <trkpt lat="28.99082" lon="-13.49994">
        <ele>4.6</ele>
        <time>2021-07-02 13:19:56</time>
      </trkpt>
      <trkpt lat="28.99082" lon="-13.4999">
        <ele>4.6</ele>
        <time>2021-07-02 13:19:57</time>
      </trkpt>
      <trkpt lat="28.99082" lon="-13.49986">
        <ele>4.6</ele>
        <time>2021-07-02 13:19:58</time>
      </trkpt>
      <trkpt lat="28.99081" lon="-13.49982">
        <ele>4.6</ele>
        <time>2021-07-02 13:19:59</time>
      </trkpt>
      <trkpt lat="28.9908" lon="-13.49978">
        <ele>4.4</ele>
        <time>2021-07-02 13:20:00</time>
      </trkpt>
      <trkpt lat="28.99079" lon="-13.49974">
        <ele>4.4</ele>
        <time>2021-07-02 13:20:01</time>
      </trkpt>
      <trkpt lat="28.99078" lon="-13.4997">
        <ele>4.4</ele>
        <time>2021-07-02 13:21:19</time>
      </trkpt>
      <trkpt lat="28.99077" lon="-13.49966">
        <ele>4.4</ele>
        <time>2021-07-02 13:21:20</time>
      </trkpt>
      <trkpt lat="28.99075" lon="-13.49963">
        <ele>4.4</ele>
        <time>2021-07-02 13:21:21</time>
      </trkpt>
      <trkpt lat="28.99074" lon="-13.4996">
        <ele>4.4</ele>
        <time>2021-07-02 13:21:22</time>
      </trkpt>
      <trkpt lat="28.99072" lon="-13.49956">
        <ele>4.4</ele>
        <time>2021-07-02 13:21:23</time>
      </trkpt>
      <trkpt lat="28.99071" lon="-13.49953">
        <ele>4.4</ele>
        <time>2021-07-02 13:21:24</time>
      </trkpt>
      <trkpt lat="28.99069" lon="-13.49949">
        <ele>4.4</ele>
        <time>2021-07-02 13:21:25</time>
      </trkpt>
      <trkpt lat="28.99068" lon="-13.49945">
        <ele>4.4</ele>
        <time>2021-07-02 13:21:26</time>
      </trkpt>
      <trkpt lat="28.99067" lon="-13.4994">
        <ele>4.4</ele>
        <time>2021-07-02 13:21:27</time>
      </trkpt>
      <trkpt lat="28.99067" lon="-13.49935">
        <ele>4.4</ele>
        <time>2021-07-02 13:21:28</time>
      </trkpt>
      <trkpt lat="28.99066" lon="-13.49931">
        <ele>4.4</ele>
        <time>2021-07-02 13:21:29</time>
      </trkpt>
      <trkpt lat="28.99066" lon="-13.49927">
        <ele>4.4</ele>
        <time>2021-07-02 13:21:30</time>
      </trkpt>
      <trkpt lat="28.99065" lon="-13.49923">
        <ele>4.4</ele>
        <time>2021-07-02 13:21:31</time>
      </trkpt>
      <trkpt lat="28.99064" lon="-13.49919">
        <ele>4.4</ele>
        <time>2021-07-02 13:21:32</time>
      </trkpt>
      <trkpt lat="28.99063" lon="-13.49915">
        <ele>4.4</ele>
        <time>2021-07-02 13:21:33</time>
      </trkpt>
      <trkpt lat="28.99062" lon="-13.49911">
        <ele>4.4</ele>
        <time>2021-07-02 13:21:34</time>
      </trkpt>
      <trkpt lat="28.9906" lon="-13.49907">
        <ele>4.4</ele>
        <time>2021-07-02 13:21:35</time>
      </trkpt>
      <trkpt lat="28.99058" lon="-13.49904">
        <ele>4.4</ele>
        <time>2021-07-02 13:21:36</time>
      </trkpt>
      <trkpt lat="28.99056" lon="-13.49901">
        <ele>4.4</ele>
        <time>2021-07-02 13:21:37</time>
      </trkpt>
      <trkpt lat="28.99054" lon="-13.49899">
        <ele>4.4</ele>
        <time>2021-07-02 13:21:38</time>
      </trkpt>
      <trkpt lat="28.99051" lon="-13.49897">
        <ele>4.4</ele>
        <time>2021-07-02 13:21:39</time>
      </trkpt>
      <trkpt lat="28.99049" lon="-13.49894">
        <ele>4.4</ele>
        <time>2021-07-02 13:21:40</time>
      </trkpt>
      <trkpt lat="28.99047" lon="-13.49891">
        <ele>4</ele>
        <time>2021-07-02 13:21:41</time>
      </trkpt>
      <trkpt lat="28.99047" lon="-13.49887">
        <ele>4</ele>
        <time>2021-07-02 13:21:42</time>
      </trkpt>
      <trkpt lat="28.99048" lon="-13.49883">
        <ele>4</ele>
        <time>2021-07-02 13:21:43</time>
      </trkpt>
      <trkpt lat="28.99049" lon="-13.49879">
        <ele>4</ele>
        <time>2021-07-02 13:21:44</time>
      </trkpt>
      <trkpt lat="28.9905" lon="-13.49875">
        <ele>4</ele>
        <time>2021-07-02 13:21:45</time>
      </trkpt>
      <trkpt lat="28.99051" lon="-13.4987">
        <ele>4</ele>
        <time>2021-07-02 13:21:46</time>
      </trkpt>
      <trkpt lat="28.99053" lon="-13.49866">
        <ele>4</ele>
        <time>2021-07-02 13:21:47</time>
      </trkpt>
      <trkpt lat="28.99055" lon="-13.49861">
        <ele>3.8</ele>
        <time>2021-07-02 13:21:48</time>
      </trkpt>
      <trkpt lat="28.99057" lon="-13.49857">
        <ele>3.8</ele>
        <time>2021-07-02 13:21:49</time>
      </trkpt>
      <trkpt lat="28.99059" lon="-13.49853">
        <ele>3.8</ele>
        <time>2021-07-02 13:21:50</time>
      </trkpt>
      <trkpt lat="28.99061" lon="-13.49849">
        <ele>3.8</ele>
        <time>2021-07-02 13:21:51</time>
      </trkpt>
      <trkpt lat="28.99064" lon="-13.49845">
        <ele>3.8</ele>
        <time>2021-07-02 13:21:52</time>
      </trkpt>
      <trkpt lat="28.99067" lon="-13.49842">
        <ele>3.8</ele>
        <time>2021-07-02 13:21:53</time>
      </trkpt>
      <trkpt lat="28.9907" lon="-13.49838">
        <ele>3.8</ele>
        <time>2021-07-02 13:21:54</time>
      </trkpt>
      <trkpt lat="28.99073" lon="-13.49835">
        <ele>3.8</ele>
        <time>2021-07-02 13:21:55</time>
      </trkpt>
      <trkpt lat="28.99077" lon="-13.49831">
        <ele>3.8</ele>
        <time>2021-07-02 13:21:56</time>
      </trkpt>
      <trkpt lat="28.9908" lon="-13.49827">
        <ele>3.6</ele>
        <time>2021-07-02 13:21:57</time>
      </trkpt>
      <trkpt lat="28.99083" lon="-13.49824">
        <ele>3.6</ele>
        <time>2021-07-02 13:21:58</time>
      </trkpt>
      <trkpt lat="28.99087" lon="-13.4982">
        <ele>3.6</ele>
        <time>2021-07-02 13:21:59</time>
      </trkpt>
      <trkpt lat="28.99089" lon="-13.49817">
        <ele>3.6</ele>
        <time>2021-07-02 13:22:00</time>
      </trkpt>
      <trkpt lat="28.99092" lon="-13.49813">
        <ele>3.6</ele>
        <time>2021-07-02 13:22:01</time>
      </trkpt>
      <trkpt lat="28.99095" lon="-13.49809">
        <ele>3.4</ele>
        <time>2021-07-02 13:22:02</time>
      </trkpt>
      <trkpt lat="28.99108" lon="-13.49794">
        <ele>3.2</ele>
        <time>2021-07-02 13:22:03</time>
      </trkpt>
      <trkpt lat="28.99112" lon="-13.49791">
        <ele>3.2</ele>
        <time>2021-07-02 13:22:04</time>
      </trkpt>
      <trkpt lat="28.99115" lon="-13.49788">
        <ele>2.8</ele>
        <time>2021-07-02 13:22:05</time>
      </trkpt>
      <trkpt lat="28.99118" lon="-13.49785">
        <ele>2.8</ele>
        <time>2021-07-02 13:22:06</time>
      </trkpt>
      <trkpt lat="28.99121" lon="-13.49782">
        <ele>2.8</ele>
        <time>2021-07-02 13:22:07</time>
      </trkpt>
      <trkpt lat="28.99124" lon="-13.49778">
        <ele>2.8</ele>
        <time>2021-07-02 13:22:08</time>
      </trkpt>
      <trkpt lat="28.99127" lon="-13.49775">
        <ele>3.2</ele>
        <time>2021-07-02 13:22:09</time>
      </trkpt>
      <trkpt lat="28.99129" lon="-13.49772">
        <ele>3.2</ele>
        <time>2021-07-02 13:22:10</time>
      </trkpt>
      <trkpt lat="28.99132" lon="-13.49769">
        <ele>3.4</ele>
        <time>2021-07-02 13:22:11</time>
      </trkpt>
      <trkpt lat="28.99135" lon="-13.49765">
        <ele>3.4</ele>
        <time>2021-07-02 13:22:12</time>
      </trkpt>
      <trkpt lat="28.99138" lon="-13.49762">
        <ele>3.4</ele>
        <time>2021-07-02 13:22:13</time>
      </trkpt>
      <trkpt lat="28.99141" lon="-13.49758">
        <ele>3.4</ele>
        <time>2021-07-02 13:22:14</time>
      </trkpt>
      <trkpt lat="28.99145" lon="-13.49755">
        <ele>3.4</ele>
        <time>2021-07-02 13:22:15</time>
      </trkpt>
      <trkpt lat="28.99148" lon="-13.49751">
        <ele>3.4</ele>
        <time>2021-07-02 13:22:16</time>
      </trkpt>
      <trkpt lat="28.99151" lon="-13.49748">
        <ele>3.4</ele>
        <time>2021-07-02 13:22:17</time>
      </trkpt>
      <trkpt lat="28.99154" lon="-13.49745">
        <ele>3.4</ele>
        <time>2021-07-02 13:22:18</time>
      </trkpt>
      <trkpt lat="28.99157" lon="-13.49741">
        <ele>3.4</ele>
        <time>2021-07-02 13:22:19</time>
      </trkpt>
      <trkpt lat="28.99163" lon="-13.49735">
        <ele>3.4</ele>
        <time>2021-07-02 13:22:20</time>
      </trkpt>
      <trkpt lat="28.99166" lon="-13.49732">
        <ele>3.4</ele>
        <time>2021-07-02 13:22:21</time>
      </trkpt>
      <trkpt lat="28.99169" lon="-13.49729">
        <ele>3.4</ele>
        <time>2021-07-02 13:22:22</time>
      </trkpt>
      <trkpt lat="28.99172" lon="-13.49726">
        <ele>3.4</ele>
        <time>2021-07-02 13:22:23</time>
      </trkpt>
      <trkpt lat="28.99175" lon="-13.49723">
        <ele>3.4</ele>
        <time>2021-07-02 13:22:24</time>
      </trkpt>
      <trkpt lat="28.99178" lon="-13.4972">
        <ele>3.4</ele>
        <time>2021-07-02 13:22:25</time>
      </trkpt>
      <trkpt lat="28.99182" lon="-13.49718">
        <ele>3.2</ele>
        <time>2021-07-02 13:22:26</time>
      </trkpt>
      <trkpt lat="28.99186" lon="-13.49716">
        <ele>3.2</ele>
        <time>2021-07-02 13:22:27</time>
      </trkpt>
      <trkpt lat="28.9919" lon="-13.49715">
        <ele>3.2</ele>
        <time>2021-07-02 13:22:28</time>
      </trkpt>
      <trkpt lat="28.99194" lon="-13.49714">
        <ele>3.2</ele>
        <time>2021-07-02 13:22:29</time>
      </trkpt>
      <trkpt lat="28.99198" lon="-13.49712">
        <ele>3.2</ele>
        <time>2021-07-02 13:22:30</time>
      </trkpt>
      <trkpt lat="28.99203" lon="-13.49711">
        <ele>3.2</ele>
        <time>2021-07-02 13:22:31</time>
      </trkpt>
      <trkpt lat="28.99208" lon="-13.4971">
        <ele>3.2</ele>
        <time>2021-07-02 13:22:32</time>
      </trkpt>
      <trkpt lat="28.99212" lon="-13.49708">
        <ele>3.2</ele>
        <time>2021-07-02 13:22:33</time>
      </trkpt>
      <trkpt lat="28.99217" lon="-13.49706">
        <ele>2.8</ele>
        <time>2021-07-02 13:22:34</time>
      </trkpt>
      <trkpt lat="28.99222" lon="-13.49703">
        <ele>2.8</ele>
        <time>2021-07-02 13:22:35</time>
      </trkpt>
      <trkpt lat="28.99227" lon="-13.49701">
        <ele>2.6</ele>
        <time>2021-07-02 13:22:36</time>
      </trkpt>
      <trkpt lat="28.99232" lon="-13.49698">
        <ele>2.6</ele>
        <time>2021-07-02 13:22:37</time>
      </trkpt>
      <trkpt lat="28.99236" lon="-13.49694">
        <ele>2.4</ele>
        <time>2021-07-02 13:22:38</time>
      </trkpt>
      <trkpt lat="28.9924" lon="-13.49691">
        <ele>2.4</ele>
        <time>2021-07-02 13:22:39</time>
      </trkpt>
      <trkpt lat="28.99244" lon="-13.49687">
        <ele>2</ele>
        <time>2021-07-02 13:22:40</time>
      </trkpt>
      <trkpt lat="28.99247" lon="-13.49684">
        <ele>2</ele>
        <time>2021-07-02 13:22:41</time>
      </trkpt>
      <trkpt lat="28.9925" lon="-13.49679">
        <ele>2</ele>
        <time>2021-07-02 13:22:42</time>
      </trkpt>
      <trkpt lat="28.99254" lon="-13.49675">
        <ele>1.8</ele>
        <time>2021-07-02 13:22:43</time>
      </trkpt>
      <trkpt lat="28.99257" lon="-13.49671">
        <ele>1.8</ele>
        <time>2021-07-02 13:22:44</time>
      </trkpt>
      <trkpt lat="28.9926" lon="-13.49666">
        <ele>1.8</ele>
        <time>2021-07-02 13:22:45</time>
      </trkpt>
      <trkpt lat="28.99263" lon="-13.49663">
        <ele>1.8</ele>
        <time>2021-07-02 13:22:46</time>
      </trkpt>
      <trkpt lat="28.99265" lon="-13.49659">
        <ele>1.8</ele>
        <time>2021-07-02 13:22:47</time>
      </trkpt>
      <trkpt lat="28.99268" lon="-13.49655">
        <ele>1.8</ele>
        <time>2021-07-02 13:22:48</time>
      </trkpt>
      <trkpt lat="28.99271" lon="-13.49651">
        <ele>1.8</ele>
        <time>2021-07-02 13:22:49</time>
      </trkpt>
      <trkpt lat="28.99274" lon="-13.49648">
        <ele>1.8</ele>
        <time>2021-07-02 13:22:50</time>
      </trkpt>
      <trkpt lat="28.99276" lon="-13.49644">
        <ele>1.8</ele>
        <time>2021-07-02 13:22:51</time>
      </trkpt>
      <trkpt lat="28.99279" lon="-13.4964">
        <ele>1.8</ele>
        <time>2021-07-02 13:22:52</time>
      </trkpt>
      <trkpt lat="28.99282" lon="-13.49636">
        <ele>1.8</ele>
        <time>2021-07-02 13:22:53</time>
      </trkpt>
      <trkpt lat="28.99285" lon="-13.49632">
        <ele>1.8</ele>
        <time>2021-07-02 13:22:54</time>
      </trkpt>
      <trkpt lat="28.99288" lon="-13.49628">
        <ele>1.8</ele>
        <time>2021-07-02 13:22:55</time>
      </trkpt>
      <trkpt lat="28.99291" lon="-13.49624">
        <ele>1.8</ele>
        <time>2021-07-02 13:22:56</time>
      </trkpt>
      <trkpt lat="28.99293" lon="-13.4962">
        <ele>1.8</ele>
        <time>2021-07-02 13:22:57</time>
      </trkpt>
      <trkpt lat="28.99296" lon="-13.49616">
        <ele>1.8</ele>
        <time>2021-07-02 13:22:58</time>
      </trkpt>
      <trkpt lat="28.99299" lon="-13.49612">
        <ele>1.8</ele>
        <time>2021-07-02 13:22:59</time>
      </trkpt>
      <trkpt lat="28.99302" lon="-13.49607">
        <ele>1.8</ele>
        <time>2021-07-02 13:23:00</time>
      </trkpt>
      <trkpt lat="28.99305" lon="-13.49604">
        <ele>1.6</ele>
        <time>2021-07-02 13:23:01</time>
      </trkpt>
      <trkpt lat="28.99308" lon="-13.496">
        <ele>1.6</ele>
        <time>2021-07-02 13:23:02</time>
      </trkpt>
      <trkpt lat="28.99311" lon="-13.49596">
        <ele>1.6</ele>
        <time>2021-07-02 13:23:03</time>
      </trkpt>
      <trkpt lat="28.99314" lon="-13.49593">
        <ele>1.4</ele>
        <time>2021-07-02 13:23:04</time>
      </trkpt>
      <trkpt lat="28.99316" lon="-13.49589">
        <ele>1.4</ele>
        <time>2021-07-02 13:23:05</time>
      </trkpt>
      <trkpt lat="28.99319" lon="-13.49585">
        <ele>1.2</ele>
        <time>2021-07-02 13:23:06</time>
      </trkpt>
      <trkpt lat="28.99322" lon="-13.49581">
        <ele>1.2</ele>
        <time>2021-07-02 13:23:07</time>
      </trkpt>
      <trkpt lat="28.99324" lon="-13.49577">
        <ele>1.2</ele>
        <time>2021-07-02 13:23:08</time>
      </trkpt>
      <trkpt lat="28.99327" lon="-13.49573">
        <ele>1.2</ele>
        <time>2021-07-02 13:23:09</time>
      </trkpt>
      <trkpt lat="28.9933" lon="-13.49569">
        <ele>1.2</ele>
        <time>2021-07-02 13:23:10</time>
      </trkpt>
      <trkpt lat="28.99332" lon="-13.49565">
        <ele>1.2</ele>
        <time>2021-07-02 13:23:11</time>
      </trkpt>
      <trkpt lat="28.99334" lon="-13.49561">
        <ele>1.2</ele>
        <time>2021-07-02 13:23:12</time>
      </trkpt>
      <trkpt lat="28.99336" lon="-13.49557">
        <ele>1.2</ele>
        <time>2021-07-02 13:23:13</time>
      </trkpt>
      <trkpt lat="28.99338" lon="-13.49552">
        <ele>1.2</ele>
        <time>2021-07-02 13:23:14</time>
      </trkpt>
      <trkpt lat="28.99339" lon="-13.49547">
        <ele>1.2</ele>
        <time>2021-07-02 13:23:15</time>
      </trkpt>
      <trkpt lat="28.99341" lon="-13.49542">
        <ele>1.2</ele>
        <time>2021-07-02 13:23:16</time>
      </trkpt>
      <trkpt lat="28.99341" lon="-13.49537">
        <ele>1.2</ele>
        <time>2021-07-02 13:23:17</time>
      </trkpt>
      <trkpt lat="28.99342" lon="-13.49532">
        <ele>1.4</ele>
        <time>2021-07-02 13:23:18</time>
      </trkpt>
      <trkpt lat="28.99342" lon="-13.49527">
        <ele>1.4</ele>
        <time>2021-07-02 13:23:19</time>
      </trkpt>
      <trkpt lat="28.99343" lon="-13.49521">
        <ele>1.4</ele>
        <time>2021-07-02 13:23:20</time>
      </trkpt>
      <trkpt lat="28.99343" lon="-13.49517">
        <ele>1.4</ele>
        <time>2021-07-02 13:23:21</time>
      </trkpt>
      <trkpt lat="28.99343" lon="-13.49512">
        <ele>1.4</ele>
        <time>2021-07-02 13:23:22</time>
      </trkpt>
      <trkpt lat="28.99344" lon="-13.49507">
        <ele>1.6</ele>
        <time>2021-07-02 13:23:23</time>
      </trkpt>
      <trkpt lat="28.99344" lon="-13.49502">
        <ele>1.6</ele>
        <time>2021-07-02 13:23:24</time>
      </trkpt>
      <trkpt lat="28.99345" lon="-13.49498">
        <ele>1.6</ele>
        <time>2021-07-02 13:23:25</time>
      </trkpt>
      <trkpt lat="28.99345" lon="-13.49493">
        <ele>1.8</ele>
        <time>2021-07-02 13:23:26</time>
      </trkpt>
      <trkpt lat="28.99345" lon="-13.49489">
        <ele>1.8</ele>
        <time>2021-07-02 13:23:27</time>
      </trkpt>
      <trkpt lat="28.99345" lon="-13.49484">
        <ele>1.8</ele>
        <time>2021-07-02 13:23:28</time>
      </trkpt>
      <trkpt lat="28.99346" lon="-13.4948">
        <ele>1.6</ele>
        <time>2021-07-02 13:23:29</time>
      </trkpt>
      <trkpt lat="28.99346" lon="-13.49475">
        <ele>1.6</ele>
        <time>2021-07-02 13:23:30</time>
      </trkpt>
      <trkpt lat="28.99346" lon="-13.49471">
        <ele>1.6</ele>
        <time>2021-07-02 13:23:31</time>
      </trkpt>
      <trkpt lat="28.99347" lon="-13.49466">
        <ele>1.6</ele>
        <time>2021-07-02 13:23:32</time>
      </trkpt>
      <trkpt lat="28.99347" lon="-13.49462">
        <ele>1.6</ele>
        <time>2021-07-02 13:23:33</time>
      </trkpt>
      <trkpt lat="28.99347" lon="-13.49459">
        <ele>1.6</ele>
        <time>2021-07-02 13:23:34</time>
      </trkpt>
      <trkpt lat="28.99348" lon="-13.49455">
        <ele>1.6</ele>
        <time>2021-07-02 13:23:35</time>
      </trkpt>
      <trkpt lat="28.99348" lon="-13.4945">
        <ele>1.6</ele>
        <time>2021-07-02 13:23:36</time>
      </trkpt>
      <trkpt lat="28.99348" lon="-13.49446">
        <ele>1.8</ele>
        <time>2021-07-02 13:23:37</time>
      </trkpt>
      <trkpt lat="28.99348" lon="-13.49443">
        <ele>1.8</ele>
        <time>2021-07-02 13:23:38</time>
      </trkpt>
      <trkpt lat="28.99349" lon="-13.49439">
        <ele>2.2</ele>
        <time>2021-07-02 13:23:39</time>
      </trkpt>
      <trkpt lat="28.9935" lon="-13.49435">
        <ele>2.2</ele>
        <time>2021-07-02 13:23:40</time>
      </trkpt>
      <trkpt lat="28.9935" lon="-13.49431">
        <ele>2.4</ele>
        <time>2021-07-02 13:23:41</time>
      </trkpt>
      <trkpt lat="28.9935" lon="-13.49427">
        <ele>2.4</ele>
        <time>2021-07-02 13:23:42</time>
      </trkpt>
      <trkpt lat="28.99351" lon="-13.49423">
        <ele>2.6</ele>
        <time>2021-07-02 13:23:43</time>
      </trkpt>
      <trkpt lat="28.99351" lon="-13.49419">
        <ele>2.6</ele>
        <time>2021-07-02 13:23:44</time>
      </trkpt>
      <trkpt lat="28.99352" lon="-13.49415">
        <ele>3</ele>
        <time>2021-07-02 13:23:45</time>
      </trkpt>
      <trkpt lat="28.99352" lon="-13.49412">
        <ele>3.2</ele>
        <time>2021-07-02 13:23:46</time>
      </trkpt>
      <trkpt lat="28.99353" lon="-13.49408">
        <ele>3.2</ele>
        <time>2021-07-02 13:23:47</time>
      </trkpt>
      <trkpt lat="28.99354" lon="-13.49404">
        <ele>3.6</ele>
        <time>2021-07-02 13:23:48</time>
      </trkpt>
      <trkpt lat="28.99355" lon="-13.494">
        <ele>3.6</ele>
        <time>2021-07-02 13:23:49</time>
      </trkpt>
      <trkpt lat="28.99356" lon="-13.49396">
        <ele>3.6</ele>
        <time>2021-07-02 13:23:50</time>
      </trkpt>
      <trkpt lat="28.99357" lon="-13.49392">
        <ele>3.6</ele>
        <time>2021-07-02 13:23:51</time>
      </trkpt>
      <trkpt lat="28.99358" lon="-13.49388">
        <ele>3.2</ele>
        <time>2021-07-02 13:23:52</time>
      </trkpt>
      <trkpt lat="28.9936" lon="-13.49384">
        <ele>3.2</ele>
        <time>2021-07-02 13:23:53</time>
      </trkpt>
      <trkpt lat="28.99361" lon="-13.49379">
        <ele>3.2</ele>
        <time>2021-07-02 13:23:54</time>
      </trkpt>
      <trkpt lat="28.99362" lon="-13.49375">
        <ele>3.2</ele>
        <time>2021-07-02 13:23:55</time>
      </trkpt>
      <trkpt lat="28.99363" lon="-13.49371">
        <ele>3.2</ele>
        <time>2021-07-02 13:23:56</time>
      </trkpt>
      <trkpt lat="28.99363" lon="-13.49367">
        <ele>3.2</ele>
        <time>2021-07-02 13:23:57</time>
      </trkpt>
      <trkpt lat="28.99364" lon="-13.49363">
        <ele>3.2</ele>
        <time>2021-07-02 13:23:58</time>
      </trkpt>
      <trkpt lat="28.99366" lon="-13.49359">
        <ele>3.2</ele>
        <time>2021-07-02 13:23:59</time>
      </trkpt>
      <trkpt lat="28.99367" lon="-13.49355">
        <ele>3.2</ele>
        <time>2021-07-02 13:24:00</time>
      </trkpt>
      <trkpt lat="28.99367" lon="-13.49351">
        <ele>3.6</ele>
        <time>2021-07-02 13:24:01</time>
      </trkpt>
      <trkpt lat="28.99368" lon="-13.49348">
        <ele>3.6</ele>
        <time>2021-07-02 13:24:02</time>
      </trkpt>
      <trkpt lat="28.99369" lon="-13.49345">
        <ele>3.6</ele>
        <time>2021-07-02 13:24:03</time>
      </trkpt>
      <trkpt lat="28.9937" lon="-13.49341">
        <ele>3.6</ele>
        <time>2021-07-02 13:24:04</time>
      </trkpt>
      <trkpt lat="28.99371" lon="-13.49338">
        <ele>3.8</ele>
        <time>2021-07-02 13:24:05</time>
      </trkpt>
      <trkpt lat="28.99373" lon="-13.49334">
        <ele>3.8</ele>
        <time>2021-07-02 13:24:06</time>
      </trkpt>
      <trkpt lat="28.99374" lon="-13.49331">
        <ele>3.8</ele>
        <time>2021-07-02 13:24:07</time>
      </trkpt>
      <trkpt lat="28.99375" lon="-13.49328">
        <ele>4</ele>
        <time>2021-07-02 13:24:08</time>
      </trkpt>
      <trkpt lat="28.99376" lon="-13.49325">
        <ele>4</ele>
        <time>2021-07-02 13:24:09</time>
      </trkpt>
      <trkpt lat="28.99378" lon="-13.49322">
        <ele>4</ele>
        <time>2021-07-02 13:24:10</time>
      </trkpt>
      <trkpt lat="28.9938" lon="-13.49319">
        <ele>4</ele>
        <time>2021-07-02 13:24:11</time>
      </trkpt>
      <trkpt lat="28.99381" lon="-13.49316">
        <ele>4</ele>
        <time>2021-07-02 13:24:12</time>
      </trkpt>
      <trkpt lat="28.99383" lon="-13.49313">
        <ele>4.2</ele>
        <time>2021-07-02 13:24:13</time>
      </trkpt>
      <trkpt lat="28.99385" lon="-13.4931">
        <ele>4.2</ele>
        <time>2021-07-02 13:24:14</time>
      </trkpt>
      <trkpt lat="28.99387" lon="-13.49307">
        <ele>4.2</ele>
        <time>2021-07-02 13:24:15</time>
      </trkpt>
      <trkpt lat="28.99388" lon="-13.49304">
        <ele>4.6</ele>
        <time>2021-07-02 13:24:16</time>
      </trkpt>
      <trkpt lat="28.9939" lon="-13.49301">
        <ele>4.6</ele>
        <time>2021-07-02 13:24:17</time>
      </trkpt>
      <trkpt lat="28.99392" lon="-13.49299">
        <ele>5</ele>
        <time>2021-07-02 13:24:18</time>
      </trkpt>
      <trkpt lat="28.99395" lon="-13.49296">
        <ele>5</ele>
        <time>2021-07-02 13:24:19</time>
      </trkpt>
      <trkpt lat="28.99398" lon="-13.49294">
        <ele>5.2</ele>
        <time>2021-07-02 13:24:20</time>
      </trkpt>
      <trkpt lat="28.99401" lon="-13.49292">
        <ele>5.2</ele>
        <time>2021-07-02 13:24:21</time>
      </trkpt>
      <trkpt lat="28.99404" lon="-13.4929">
        <ele>5.6</ele>
        <time>2021-07-02 13:24:22</time>
      </trkpt>
      <trkpt lat="28.99408" lon="-13.49289">
        <ele>5.6</ele>
        <time>2021-07-02 13:24:23</time>
      </trkpt>
      <trkpt lat="28.99412" lon="-13.49287">
        <ele>5.8</ele>
        <time>2021-07-02 13:24:24</time>
      </trkpt>
      <trkpt lat="28.99416" lon="-13.49286">
        <ele>5.8</ele>
        <time>2021-07-02 13:24:25</time>
      </trkpt>
      <trkpt lat="28.99419" lon="-13.49285">
        <ele>5.8</ele>
        <time>2021-07-02 13:24:26</time>
      </trkpt>
      <trkpt lat="28.99423" lon="-13.49283">
        <ele>6.2</ele>
        <time>2021-07-02 13:24:27</time>
      </trkpt>
      <trkpt lat="28.99427" lon="-13.49282">
        <ele>6.2</ele>
        <time>2021-07-02 13:24:28</time>
      </trkpt>
      <trkpt lat="28.99431" lon="-13.4928">
        <ele>6.2</ele>
        <time>2021-07-02 13:24:29</time>
      </trkpt>
      <trkpt lat="28.99435" lon="-13.49278">
        <ele>6.2</ele>
        <time>2021-07-02 13:24:30</time>
      </trkpt>
      <trkpt lat="28.99438" lon="-13.49276">
        <ele>6.2</ele>
        <time>2021-07-02 13:24:31</time>
      </trkpt>
      <trkpt lat="28.99442" lon="-13.49273">
        <ele>6.2</ele>
        <time>2021-07-02 13:24:32</time>
      </trkpt>
      <trkpt lat="28.99445" lon="-13.49271">
        <ele>6.4</ele>
        <time>2021-07-02 13:24:33</time>
      </trkpt>
      <trkpt lat="28.99448" lon="-13.49268">
        <ele>6.4</ele>
        <time>2021-07-02 13:24:34</time>
      </trkpt>
      <trkpt lat="28.99451" lon="-13.49266">
        <ele>6.4</ele>
        <time>2021-07-02 13:24:35</time>
      </trkpt>
      <trkpt lat="28.99455" lon="-13.49263">
        <ele>6.6</ele>
        <time>2021-07-02 13:24:36</time>
      </trkpt>
      <trkpt lat="28.99458" lon="-13.4926">
        <ele>6.6</ele>
        <time>2021-07-02 13:24:37</time>
      </trkpt>
      <trkpt lat="28.99461" lon="-13.49258">
        <ele>6.6</ele>
        <time>2021-07-02 13:24:38</time>
      </trkpt>
      <trkpt lat="28.99464" lon="-13.49255">
        <ele>6.6</ele>
        <time>2021-07-02 13:24:39</time>
      </trkpt>
      <trkpt lat="28.99468" lon="-13.49253">
        <ele>6.8</ele>
        <time>2021-07-02 13:24:40</time>
      </trkpt>
      <trkpt lat="28.99471" lon="-13.49251">
        <ele>6.8</ele>
        <time>2021-07-02 13:24:41</time>
      </trkpt>
      <trkpt lat="28.99474" lon="-13.49248">
        <ele>7</ele>
        <time>2021-07-02 13:24:42</time>
      </trkpt>
      <trkpt lat="28.99478" lon="-13.49246">
        <ele>7</ele>
        <time>2021-07-02 13:24:43</time>
      </trkpt>
      <trkpt lat="28.99481" lon="-13.49243">
        <ele>7</ele>
        <time>2021-07-02 13:24:44</time>
      </trkpt>
      <trkpt lat="28.99484" lon="-13.4924">
        <ele>7</ele>
        <time>2021-07-02 13:24:45</time>
      </trkpt>
      <trkpt lat="28.99487" lon="-13.49238">
        <ele>7</ele>
        <time>2021-07-02 13:24:46</time>
      </trkpt>
      <trkpt lat="28.99491" lon="-13.49235">
        <ele>7</ele>
        <time>2021-07-02 13:24:47</time>
      </trkpt>
      <trkpt lat="28.99494" lon="-13.49233">
        <ele>7</ele>
        <time>2021-07-02 13:24:48</time>
      </trkpt>
      <trkpt lat="28.99497" lon="-13.49231">
        <ele>7</ele>
        <time>2021-07-02 13:24:49</time>
      </trkpt>
      <trkpt lat="28.99501" lon="-13.49228">
        <ele>7</ele>
        <time>2021-07-02 13:24:50</time>
      </trkpt>
      <trkpt lat="28.99504" lon="-13.49226">
        <ele>7</ele>
        <time>2021-07-02 13:24:51</time>
      </trkpt>
      <trkpt lat="28.99508" lon="-13.49223">
        <ele>7</ele>
        <time>2021-07-02 13:24:52</time>
      </trkpt>
      <trkpt lat="28.99511" lon="-13.49221">
        <ele>7</ele>
        <time>2021-07-02 13:24:53</time>
      </trkpt>
      <trkpt lat="28.99515" lon="-13.49218">
        <ele>7</ele>
        <time>2021-07-02 13:24:54</time>
      </trkpt>
      <trkpt lat="28.99518" lon="-13.49216">
        <ele>7.4</ele>
        <time>2021-07-02 13:24:55</time>
      </trkpt>
      <trkpt lat="28.99521" lon="-13.49213">
        <ele>7.4</ele>
        <time>2021-07-02 13:24:56</time>
      </trkpt>
      <trkpt lat="28.99525" lon="-13.49211">
        <ele>7.4</ele>
        <time>2021-07-02 13:24:57</time>
      </trkpt>
      <trkpt lat="28.99528" lon="-13.49209">
        <ele>7.4</ele>
        <time>2021-07-02 13:24:58</time>
      </trkpt>
      <trkpt lat="28.99532" lon="-13.49206">
        <ele>7.4</ele>
        <time>2021-07-02 13:24:59</time>
      </trkpt>
      <trkpt lat="28.99535" lon="-13.49204">
        <ele>7.4</ele>
        <time>2021-07-02 13:25:00</time>
      </trkpt>
      <trkpt lat="28.99538" lon="-13.49202">
        <ele>7.4</ele>
        <time>2021-07-02 13:25:01</time>
      </trkpt>
      <trkpt lat="28.99541" lon="-13.49199">
        <ele>7.6</ele>
        <time>2021-07-02 13:25:02</time>
      </trkpt>
      <trkpt lat="28.99544" lon="-13.49197">
        <ele>7.6</ele>
        <time>2021-07-02 13:25:03</time>
      </trkpt>
      <trkpt lat="28.99548" lon="-13.49194">
        <ele>7.6</ele>
        <time>2021-07-02 13:25:04</time>
      </trkpt>
      <trkpt lat="28.99551" lon="-13.49191">
        <ele>7.6</ele>
        <time>2021-07-02 13:25:05</time>
      </trkpt>
      <trkpt lat="28.99554" lon="-13.49189">
        <ele>7.6</ele>
        <time>2021-07-02 13:25:06</time>
      </trkpt>
      <trkpt lat="28.99557" lon="-13.49186">
        <ele>7.8</ele>
        <time>2021-07-02 13:25:07</time>
      </trkpt>
      <trkpt lat="28.99561" lon="-13.49183">
        <ele>7.8</ele>
        <time>2021-07-02 13:25:08</time>
      </trkpt>
      <trkpt lat="28.99564" lon="-13.49181">
        <ele>7.8</ele>
        <time>2021-07-02 13:25:09</time>
      </trkpt>
      <trkpt lat="28.99567" lon="-13.49178">
        <ele>8.2</ele>
        <time>2021-07-02 13:25:10</time>
      </trkpt>
      <trkpt lat="28.9957" lon="-13.49176">
        <ele>8.2</ele>
        <time>2021-07-02 13:25:11</time>
      </trkpt>
      <trkpt lat="28.99573" lon="-13.49173">
        <ele>8.4</ele>
        <time>2021-07-02 13:25:12</time>
      </trkpt>
      <trkpt lat="28.99576" lon="-13.49171">
        <ele>8.4</ele>
        <time>2021-07-02 13:25:13</time>
      </trkpt>
      <trkpt lat="28.99579" lon="-13.49168">
        <ele>8.4</ele>
        <time>2021-07-02 13:25:14</time>
      </trkpt>
      <trkpt lat="28.99581" lon="-13.49166">
        <ele>8.6</ele>
        <time>2021-07-02 13:25:15</time>
      </trkpt>
      <trkpt lat="28.99584" lon="-13.49163">
        <ele>8.6</ele>
        <time>2021-07-02 13:25:16</time>
      </trkpt>
      <trkpt lat="28.99585" lon="-13.49162">
        <ele>8.6</ele>
        <time>2021-07-02 13:25:17</time>
      </trkpt>
      <trkpt lat="28.99587" lon="-13.4916">
        <ele>8.6</ele>
        <time>2021-07-02 13:25:18</time>
      </trkpt>
      <trkpt lat="28.99589" lon="-13.49159">
        <ele>8.6</ele>
        <time>2021-07-02 13:25:19</time>
      </trkpt>
      <trkpt lat="28.99591" lon="-13.49158">
        <ele>8.6</ele>
        <time>2021-07-02 13:25:20</time>
      </trkpt>
      <trkpt lat="28.99592" lon="-13.49157">
        <ele>8.6</ele>
        <time>2021-07-02 13:25:21</time>
      </trkpt>
      <trkpt lat="28.99594" lon="-13.49155">
        <ele>8.6</ele>
        <time>2021-07-02 13:25:22</time>
      </trkpt>
      <trkpt lat="28.99596" lon="-13.49153">
        <ele>8.6</ele>
        <time>2021-07-02 13:25:23</time>
      </trkpt>
      <trkpt lat="28.99597" lon="-13.4915">
        <ele>8.6</ele>
        <time>2021-07-02 13:25:24</time>
      </trkpt>
      <trkpt lat="28.99598" lon="-13.49147">
        <ele>8.6</ele>
        <time>2021-07-02 13:25:25</time>
      </trkpt>
      <trkpt lat="28.99598" lon="-13.49144">
        <ele>8.6</ele>
        <time>2021-07-02 13:25:26</time>
      </trkpt>
      <trkpt lat="28.996" lon="-13.4914">
        <ele>8.6</ele>
        <time>2021-07-02 13:25:27</time>
      </trkpt>
      <trkpt lat="28.99602" lon="-13.49137">
        <ele>8.6</ele>
        <time>2021-07-02 13:25:28</time>
      </trkpt>
      <trkpt lat="28.99604" lon="-13.49133">
        <ele>8.6</ele>
        <time>2021-07-02 13:25:29</time>
      </trkpt>
      <trkpt lat="28.99607" lon="-13.4913">
        <ele>8.6</ele>
        <time>2021-07-02 13:25:30</time>
      </trkpt>
      <trkpt lat="28.99609" lon="-13.49126">
        <ele>8.6</ele>
        <time>2021-07-02 13:25:31</time>
      </trkpt>
      <trkpt lat="28.99612" lon="-13.49124">
        <ele>8.6</ele>
        <time>2021-07-02 13:25:32</time>
      </trkpt>
      <trkpt lat="28.99615" lon="-13.49121">
        <ele>8.6</ele>
        <time>2021-07-02 13:25:33</time>
      </trkpt>
      <trkpt lat="28.99618" lon="-13.49118">
        <ele>8.6</ele>
        <time>2021-07-02 13:25:34</time>
      </trkpt>
      <trkpt lat="28.99621" lon="-13.49115">
        <ele>8.6</ele>
        <time>2021-07-02 13:25:35</time>
      </trkpt>
      <trkpt lat="28.99624" lon="-13.49112">
        <ele>9</ele>
        <time>2021-07-02 13:25:36</time>
      </trkpt>
      <trkpt lat="28.99627" lon="-13.49109">
        <ele>9</ele>
        <time>2021-07-02 13:25:37</time>
      </trkpt>
      <trkpt lat="28.9963" lon="-13.49106">
        <ele>9</ele>
        <time>2021-07-02 13:25:38</time>
      </trkpt>
      <trkpt lat="28.99633" lon="-13.49103">
        <ele>9.2</ele>
        <time>2021-07-02 13:25:39</time>
      </trkpt>
      <trkpt lat="28.99636" lon="-13.491">
        <ele>9.2</ele>
        <time>2021-07-02 13:25:40</time>
      </trkpt>
      <trkpt lat="28.99639" lon="-13.49098">
        <ele>9.4</ele>
        <time>2021-07-02 13:25:41</time>
      </trkpt>
      <trkpt lat="28.99641" lon="-13.49095">
        <ele>9.4</ele>
        <time>2021-07-02 13:25:42</time>
      </trkpt>
      <trkpt lat="28.99644" lon="-13.49092">
        <ele>9.4</ele>
        <time>2021-07-02 13:25:43</time>
      </trkpt>
      <trkpt lat="28.99647" lon="-13.4909">
        <ele>9.4</ele>
        <time>2021-07-02 13:25:44</time>
      </trkpt>
      <trkpt lat="28.99651" lon="-13.49087">
        <ele>9.4</ele>
        <time>2021-07-02 13:25:45</time>
      </trkpt>
      <trkpt lat="28.99654" lon="-13.49084">
        <ele>9.8</ele>
        <time>2021-07-02 13:25:46</time>
      </trkpt>
      <trkpt lat="28.99657" lon="-13.49082">
        <ele>9.8</ele>
        <time>2021-07-02 13:25:47</time>
      </trkpt>
      <trkpt lat="28.9966" lon="-13.49079">
        <ele>9.8</ele>
        <time>2021-07-02 13:25:48</time>
      </trkpt>
      <trkpt lat="28.99663" lon="-13.49076">
        <ele>10</ele>
        <time>2021-07-02 13:25:49</time>
      </trkpt>
      <trkpt lat="28.99666" lon="-13.49073">
        <ele>10</ele>
        <time>2021-07-02 13:25:50</time>
      </trkpt>
      <trkpt lat="28.99669" lon="-13.4907">
        <ele>10</ele>
        <time>2021-07-02 13:25:51</time>
      </trkpt>
      <trkpt lat="28.99672" lon="-13.49067">
        <ele>10</ele>
        <time>2021-07-02 13:25:52</time>
      </trkpt>
      <trkpt lat="28.99675" lon="-13.49065">
        <ele>10</ele>
        <time>2021-07-02 13:25:53</time>
      </trkpt>
      <trkpt lat="28.99678" lon="-13.49063">
        <ele>10</ele>
        <time>2021-07-02 13:25:54</time>
      </trkpt>
      <trkpt lat="28.9968" lon="-13.4906">
        <ele>10</ele>
        <time>2021-07-02 13:25:55</time>
      </trkpt>
      <trkpt lat="28.99682" lon="-13.49058">
        <ele>10</ele>
        <time>2021-07-02 13:25:56</time>
      </trkpt>
      <trkpt lat="28.99684" lon="-13.49056">
        <ele>10.2</ele>
        <time>2021-07-02 13:25:57</time>
      </trkpt>
      <trkpt lat="28.99687" lon="-13.49053">
        <ele>10.2</ele>
        <time>2021-07-02 13:25:58</time>
      </trkpt>
      <trkpt lat="28.99689" lon="-13.49051">
        <ele>10.2</ele>
        <time>2021-07-02 13:25:59</time>
      </trkpt>
      <trkpt lat="28.99691" lon="-13.49048">
        <ele>10.2</ele>
        <time>2021-07-02 13:26:00</time>
      </trkpt>
      <trkpt lat="28.99694" lon="-13.49044">
        <ele>10.2</ele>
        <time>2021-07-02 13:26:01</time>
      </trkpt>
      <trkpt lat="28.99696" lon="-13.49041">
        <ele>10</ele>
        <time>2021-07-02 13:26:02</time>
      </trkpt>
      <trkpt lat="28.99698" lon="-13.49037">
        <ele>10</ele>
        <time>2021-07-02 13:26:03</time>
      </trkpt>
      <trkpt lat="28.997" lon="-13.49033">
        <ele>9.6</ele>
        <time>2021-07-02 13:26:04</time>
      </trkpt>
      <trkpt lat="28.99703" lon="-13.49029">
        <ele>9.6</ele>
        <time>2021-07-02 13:26:05</time>
      </trkpt>
      <trkpt lat="28.99706" lon="-13.49025">
        <ele>9.6</ele>
        <time>2021-07-02 13:26:06</time>
      </trkpt>
      <trkpt lat="28.99709" lon="-13.49021">
        <ele>9.4</ele>
        <time>2021-07-02 13:26:07</time>
      </trkpt>
      <trkpt lat="28.99712" lon="-13.49017">
        <ele>9.4</ele>
        <time>2021-07-02 13:26:08</time>
      </trkpt>
      <trkpt lat="28.99716" lon="-13.49013">
        <ele>9.4</ele>
        <time>2021-07-02 13:26:09</time>
      </trkpt>
      <trkpt lat="28.99719" lon="-13.4901">
        <ele>9.4</ele>
        <time>2021-07-02 13:26:10</time>
      </trkpt>
      <trkpt lat="28.99723" lon="-13.49006">
        <ele>9.4</ele>
        <time>2021-07-02 13:26:11</time>
      </trkpt>
      <trkpt lat="28.99726" lon="-13.49001">
        <ele>9.4</ele>
        <time>2021-07-02 13:26:12</time>
      </trkpt>
      <trkpt lat="28.9973" lon="-13.48997">
        <ele>9.4</ele>
        <time>2021-07-02 13:26:13</time>
      </trkpt>
      <trkpt lat="28.99733" lon="-13.48993">
        <ele>9</ele>
        <time>2021-07-02 13:26:14</time>
      </trkpt>
      <trkpt lat="28.99735" lon="-13.48987">
        <ele>8.8</ele>
        <time>2021-07-02 13:26:15</time>
      </trkpt>
      <trkpt lat="28.99737" lon="-13.48981">
        <ele>8.6</ele>
        <time>2021-07-02 13:26:16</time>
      </trkpt>
      <trkpt lat="28.99739" lon="-13.48976">
        <ele>8.2</ele>
        <time>2021-07-02 13:26:17</time>
      </trkpt>
      <trkpt lat="28.99743" lon="-13.48972">
        <ele>8</ele>
        <time>2021-07-02 13:26:18</time>
      </trkpt>
      <trkpt lat="28.99748" lon="-13.4897">
        <ele>7.6</ele>
        <time>2021-07-02 13:26:19</time>
      </trkpt>
      <trkpt lat="28.99753" lon="-13.4897">
        <ele>7.4</ele>
        <time>2021-07-02 13:26:20</time>
      </trkpt>
      <trkpt lat="28.99756" lon="-13.48969">
        <ele>7</ele>
        <time>2021-07-02 13:26:21</time>
      </trkpt>
      <trkpt lat="28.9976" lon="-13.48966">
        <ele>6.8</ele>
        <time>2021-07-02 13:26:22</time>
      </trkpt>
      <trkpt lat="28.99764" lon="-13.48965">
        <ele>6.4</ele>
        <time>2021-07-02 13:26:23</time>
      </trkpt>
      <trkpt lat="28.99767" lon="-13.48963">
        <ele>6</ele>
        <time>2021-07-02 13:26:24</time>
      </trkpt>
      <trkpt lat="28.9977" lon="-13.4896">
        <ele>5.8</ele>
        <time>2021-07-02 13:26:25</time>
      </trkpt>
      <trkpt lat="28.99773" lon="-13.48956">
        <ele>5.8</ele>
        <time>2021-07-02 13:26:26</time>
      </trkpt>
      <trkpt lat="28.99776" lon="-13.48953">
        <ele>5.6</ele>
        <time>2021-07-02 13:26:27</time>
      </trkpt>
      <trkpt lat="28.99778" lon="-13.48949">
        <ele>5.6</ele>
        <time>2021-07-02 13:26:28</time>
      </trkpt>
      <trkpt lat="28.9978" lon="-13.48946">
        <ele>5.4</ele>
        <time>2021-07-02 13:26:29</time>
      </trkpt>
      <trkpt lat="28.99783" lon="-13.48943">
        <ele>5.4</ele>
        <time>2021-07-02 13:26:30</time>
      </trkpt>
      <trkpt lat="28.99786" lon="-13.48939">
        <ele>5.4</ele>
        <time>2021-07-02 13:26:31</time>
      </trkpt>
      <trkpt lat="28.99789" lon="-13.48936">
        <ele>5.4</ele>
        <time>2021-07-02 13:26:32</time>
      </trkpt>
      <trkpt lat="28.99792" lon="-13.48933">
        <ele>5.4</ele>
        <time>2021-07-02 13:26:33</time>
      </trkpt>
      <trkpt lat="28.99795" lon="-13.4893">
        <ele>5</ele>
        <time>2021-07-02 13:26:34</time>
      </trkpt>
      <trkpt lat="28.99798" lon="-13.48927">
        <ele>5</ele>
        <time>2021-07-02 13:26:35</time>
      </trkpt>
      <trkpt lat="28.99801" lon="-13.48924">
        <ele>5</ele>
        <time>2021-07-02 13:26:36</time>
      </trkpt>
      <trkpt lat="28.99805" lon="-13.48921">
        <ele>5</ele>
        <time>2021-07-02 13:26:37</time>
      </trkpt>
      <trkpt lat="28.99808" lon="-13.48918">
        <ele>5</ele>
        <time>2021-07-02 13:26:38</time>
      </trkpt>
      <trkpt lat="28.99811" lon="-13.48916">
        <ele>5</ele>
        <time>2021-07-02 13:26:39</time>
      </trkpt>
      <trkpt lat="28.99814" lon="-13.48913">
        <ele>5</ele>
        <time>2021-07-02 13:26:40</time>
      </trkpt>
      <trkpt lat="28.99818" lon="-13.48911">
        <ele>5</ele>
        <time>2021-07-02 13:26:41</time>
      </trkpt>
      <trkpt lat="28.99822" lon="-13.48909">
        <ele>5</ele>
        <time>2021-07-02 13:26:42</time>
      </trkpt>
      <trkpt lat="28.99825" lon="-13.48907">
        <ele>4.8</ele>
        <time>2021-07-02 13:26:43</time>
      </trkpt>
      <trkpt lat="28.99829" lon="-13.48905">
        <ele>4.8</ele>
        <time>2021-07-02 13:26:44</time>
      </trkpt>
      <trkpt lat="28.99833" lon="-13.48902">
        <ele>4.8</ele>
        <time>2021-07-02 13:26:45</time>
      </trkpt>
      <trkpt lat="28.99836" lon="-13.489">
        <ele>4.6</ele>
        <time>2021-07-02 13:26:46</time>
      </trkpt>
      <trkpt lat="28.99841" lon="-13.48898">
        <ele>4.6</ele>
        <time>2021-07-02 13:26:47</time>
      </trkpt>
      <trkpt lat="28.99845" lon="-13.48895">
        <ele>4.2</ele>
        <time>2021-07-02 13:26:48</time>
      </trkpt>
      <trkpt lat="28.99849" lon="-13.48892">
        <ele>4.2</ele>
        <time>2021-07-02 13:26:49</time>
      </trkpt>
      <trkpt lat="28.99853" lon="-13.48889">
        <ele>4</ele>
        <time>2021-07-02 13:26:50</time>
      </trkpt>
      <trkpt lat="28.99858" lon="-13.48886">
        <ele>4</ele>
        <time>2021-07-02 13:26:51</time>
      </trkpt>
      <trkpt lat="28.99863" lon="-13.48883">
        <ele>3.6</ele>
        <time>2021-07-02 13:26:52</time>
      </trkpt>
      <trkpt lat="28.99868" lon="-13.48879">
        <ele>3.4</ele>
        <time>2021-07-02 13:26:53</time>
      </trkpt>
      <trkpt lat="28.99873" lon="-13.48875">
        <ele>3.2</ele>
        <time>2021-07-02 13:26:54</time>
      </trkpt>
      <trkpt lat="28.99878" lon="-13.48871">
        <ele>3</ele>
        <time>2021-07-02 13:26:55</time>
      </trkpt>
      <trkpt lat="28.99882" lon="-13.48867">
        <ele>3</ele>
        <time>2021-07-02 13:26:56</time>
      </trkpt>
      <trkpt lat="28.99887" lon="-13.48864">
        <ele>2.6</ele>
        <time>2021-07-02 13:26:57</time>
      </trkpt>
      <trkpt lat="28.99892" lon="-13.4886">
        <ele>2.2</ele>
        <time>2021-07-02 13:26:58</time>
      </trkpt>
      <trkpt lat="28.99896" lon="-13.48857">
        <ele>2</ele>
        <time>2021-07-02 13:26:59</time>
      </trkpt>
      <trkpt lat="28.999" lon="-13.48853">
        <ele>1.6</ele>
        <time>2021-07-02 13:27:00</time>
      </trkpt>
      <trkpt lat="28.99903" lon="-13.4885">
        <ele>1.4</ele>
        <time>2021-07-02 13:27:01</time>
      </trkpt>
      <trkpt lat="28.99907" lon="-13.48847">
        <ele>1.2</ele>
        <time>2021-07-02 13:27:02</time>
      </trkpt>
      <trkpt lat="28.9991" lon="-13.48844">
        <ele>1.2</ele>
        <time>2021-07-02 13:27:03</time>
      </trkpt>
      <trkpt lat="28.99913" lon="-13.48841">
        <ele>1</ele>
        <time>2021-07-02 13:27:04</time>
      </trkpt>
      <trkpt lat="28.99916" lon="-13.48838">
        <ele>1</ele>
        <time>2021-07-02 13:27:05</time>
      </trkpt>
      <trkpt lat="28.99919" lon="-13.48835">
        <ele>1</ele>
        <time>2021-07-02 13:27:06</time>
      </trkpt>
      <trkpt lat="28.99922" lon="-13.48833">
        <ele>1</ele>
        <time>2021-07-02 13:27:07</time>
      </trkpt>
      <trkpt lat="28.99924" lon="-13.4883">
        <ele>1</ele>
        <time>2021-07-02 13:27:08</time>
      </trkpt>
      <trkpt lat="28.99927" lon="-13.48827">
        <ele>1</ele>
        <time>2021-07-02 13:27:09</time>
      </trkpt>
      <trkpt lat="28.99928" lon="-13.48823">
        <ele>1</ele>
        <time>2021-07-02 13:27:10</time>
      </trkpt>
      <trkpt lat="28.9993" lon="-13.48819">
        <ele>0.6</ele>
        <time>2021-07-02 13:27:11</time>
      </trkpt>
      <trkpt lat="28.99932" lon="-13.48816">
        <ele>0.6</ele>
        <time>2021-07-02 13:27:12</time>
      </trkpt>
      <trkpt lat="28.99934" lon="-13.48813">
        <ele>0.4</ele>
        <time>2021-07-02 13:27:13</time>
      </trkpt>
      <trkpt lat="28.99937" lon="-13.48809">
        <ele>0.4</ele>
        <time>2021-07-02 13:27:14</time>
      </trkpt>
      <trkpt lat="28.99939" lon="-13.48807">
        <ele>0.4</ele>
        <time>2021-07-02 13:27:15</time>
      </trkpt>
      <trkpt lat="28.99941" lon="-13.48804">
        <ele>0.4</ele>
        <time>2021-07-02 13:27:16</time>
      </trkpt>
      <trkpt lat="28.99943" lon="-13.48801">
        <ele>0.4</ele>
        <time>2021-07-02 13:27:17</time>
      </trkpt>
      <trkpt lat="28.99945" lon="-13.48798">
        <ele>0.4</ele>
        <time>2021-07-02 13:27:18</time>
      </trkpt>
      <trkpt lat="28.99947" lon="-13.48795">
        <ele>0.6</ele>
        <time>2021-07-02 13:27:19</time>
      </trkpt>
      <trkpt lat="28.99949" lon="-13.48793">
        <ele>0.6</ele>
        <time>2021-07-02 13:27:20</time>
      </trkpt>
      <trkpt lat="28.99951" lon="-13.4879">
        <ele>0.6</ele>
        <time>2021-07-02 13:27:21</time>
      </trkpt>
      <trkpt lat="28.99953" lon="-13.48787">
        <ele>0.6</ele>
        <time>2021-07-02 13:27:22</time>
      </trkpt>
      <trkpt lat="28.99955" lon="-13.48784">
        <ele>0.6</ele>
        <time>2021-07-02 13:27:23</time>
      </trkpt>
      <trkpt lat="28.99957" lon="-13.4878">
        <ele>0.6</ele>
        <time>2021-07-02 13:27:24</time>
      </trkpt>
      <trkpt lat="28.99959" lon="-13.48777">
        <ele>0.6</ele>
        <time>2021-07-02 13:27:25</time>
      </trkpt>
      <trkpt lat="28.9996" lon="-13.48773">
        <ele>0.6</ele>
        <time>2021-07-02 13:27:26</time>
      </trkpt>
      <trkpt lat="28.99962" lon="-13.4877">
        <ele>0.6</ele>
        <time>2021-07-02 13:27:27</time>
      </trkpt>
      <trkpt lat="28.99964" lon="-13.48767">
        <ele>0.6</ele>
        <time>2021-07-02 13:27:28</time>
      </trkpt>
      <trkpt lat="28.99966" lon="-13.48763">
        <ele>0.6</ele>
        <time>2021-07-02 13:27:29</time>
      </trkpt>
      <trkpt lat="28.99968" lon="-13.4876">
        <ele>0.6</ele>
        <time>2021-07-02 13:27:30</time>
      </trkpt>
      <trkpt lat="28.99969" lon="-13.48758">
        <ele>1</ele>
        <time>2021-07-02 13:27:31</time>
      </trkpt>
      <trkpt lat="28.99971" lon="-13.48755">
        <ele>1</ele>
        <time>2021-07-02 13:27:32</time>
      </trkpt>
      <trkpt lat="28.99973" lon="-13.48752">
        <ele>1</ele>
        <time>2021-07-02 13:27:33</time>
      </trkpt>
      <trkpt lat="28.99975" lon="-13.4875">
        <ele>1</ele>
        <time>2021-07-02 13:27:34</time>
      </trkpt>
      <trkpt lat="28.99978" lon="-13.48748">
        <ele>1</ele>
        <time>2021-07-02 13:27:35</time>
      </trkpt>
      <trkpt lat="28.99982" lon="-13.48749">
        <ele>1</ele>
        <time>2021-07-02 13:27:36</time>
      </trkpt>
      <trkpt lat="28.99986" lon="-13.4875">
        <ele>1</ele>
        <time>2021-07-02 13:27:37</time>
      </trkpt>
      <trkpt lat="28.99989" lon="-13.48753">
        <ele>1</ele>
        <time>2021-07-02 13:27:38</time>
      </trkpt>
      <trkpt lat="28.99992" lon="-13.48755">
        <ele>1</ele>
        <time>2021-07-02 13:27:39</time>
      </trkpt>
      <trkpt lat="28.99996" lon="-13.48758">
        <ele>1.2</ele>
        <time>2021-07-02 13:27:40</time>
      </trkpt>
      <trkpt lat="28.99999" lon="-13.48761">
        <ele>1.2</ele>
        <time>2021-07-02 13:27:41</time>
      </trkpt>
      <trkpt lat="29.00002" lon="-13.48764">
        <ele>1.2</ele>
        <time>2021-07-02 13:27:42</time>
      </trkpt>
      <trkpt lat="29.00005" lon="-13.48766">
        <ele>1.2</ele>
        <time>2021-07-02 13:27:43</time>
      </trkpt>
      <trkpt lat="29.00008" lon="-13.48769">
        <ele>1.2</ele>
        <time>2021-07-02 13:27:44</time>
      </trkpt>
      <trkpt lat="29.00011" lon="-13.48772">
        <ele>1.2</ele>
        <time>2021-07-02 13:27:45</time>
      </trkpt>
      <trkpt lat="29.00014" lon="-13.48775">
        <ele>1.2</ele>
        <time>2021-07-02 13:27:46</time>
      </trkpt>
      <trkpt lat="29.00017" lon="-13.48778">
        <ele>1.2</ele>
        <time>2021-07-02 13:27:47</time>
      </trkpt>
      <trkpt lat="29.0002" lon="-13.48781">
        <ele>1.2</ele>
        <time>2021-07-02 13:27:48</time>
      </trkpt>
      <trkpt lat="29.00022" lon="-13.48784">
        <ele>1.4</ele>
        <time>2021-07-02 13:27:49</time>
      </trkpt>
      <trkpt lat="29.00024" lon="-13.48788">
        <ele>1.4</ele>
        <time>2021-07-02 13:27:50</time>
      </trkpt>
      <trkpt lat="29.00026" lon="-13.48792">
        <ele>1.4</ele>
        <time>2021-07-02 13:27:51</time>
      </trkpt>
      <trkpt lat="29.00028" lon="-13.48795">
        <ele>1.4</ele>
        <time>2021-07-02 13:27:52</time>
      </trkpt>
      <trkpt lat="29.0003" lon="-13.48799">
        <ele>1.4</ele>
        <time>2021-07-02 13:27:53</time>
      </trkpt>
      <trkpt lat="29.00031" lon="-13.48802">
        <ele>1.8</ele>
        <time>2021-07-02 13:27:54</time>
      </trkpt>
      <trkpt lat="29.00033" lon="-13.48806">
        <ele>1.8</ele>
        <time>2021-07-02 13:27:55</time>
      </trkpt>
      <trkpt lat="29.00035" lon="-13.4881">
        <ele>2.2</ele>
        <time>2021-07-02 13:27:56</time>
      </trkpt>
      <trkpt lat="29.00036" lon="-13.48814">
        <ele>2.2</ele>
        <time>2021-07-02 13:27:57</time>
      </trkpt>
      <trkpt lat="29.00038" lon="-13.48819">
        <ele>2.4</ele>
        <time>2021-07-02 13:27:58</time>
      </trkpt>
      <trkpt lat="29.00039" lon="-13.48823">
        <ele>2.4</ele>
        <time>2021-07-02 13:27:59</time>
      </trkpt>
      <trkpt lat="29.00041" lon="-13.48828">
        <ele>2.4</ele>
        <time>2021-07-02 13:28:00</time>
      </trkpt>
      <trkpt lat="29.00043" lon="-13.48832">
        <ele>2.4</ele>
        <time>2021-07-02 13:28:01</time>
      </trkpt>
      <trkpt lat="29.00044" lon="-13.48837">
        <ele>2.4</ele>
        <time>2021-07-02 13:28:02</time>
      </trkpt>
      <trkpt lat="29.00044" lon="-13.48842">
        <ele>2.4</ele>
        <time>2021-07-02 13:28:03</time>
      </trkpt>
      <trkpt lat="29.00044" lon="-13.48847">
        <ele>2.4</ele>
        <time>2021-07-02 13:28:04</time>
      </trkpt>
      <trkpt lat="29.00045" lon="-13.48852">
        <ele>2.4</ele>
        <time>2021-07-02 13:28:05</time>
      </trkpt>
      <trkpt lat="29.00045" lon="-13.48857">
        <ele>2.4</ele>
        <time>2021-07-02 13:28:06</time>
      </trkpt>
      <trkpt lat="29.00046" lon="-13.48862">
        <ele>2.4</ele>
        <time>2021-07-02 13:28:07</time>
      </trkpt>
      <trkpt lat="29.00047" lon="-13.48866">
        <ele>2.2</ele>
        <time>2021-07-02 13:28:08</time>
      </trkpt>
      <trkpt lat="29.00048" lon="-13.48871">
        <ele>2.2</ele>
        <time>2021-07-02 13:28:09</time>
      </trkpt>
      <trkpt lat="29.00049" lon="-13.48876">
        <ele>2</ele>
        <time>2021-07-02 13:28:10</time>
      </trkpt>
      <trkpt lat="29.00051" lon="-13.4888">
        <ele>2</ele>
        <time>2021-07-02 13:28:11</time>
      </trkpt>
      <trkpt lat="29.00053" lon="-13.48884">
        <ele>2</ele>
        <time>2021-07-02 13:28:12</time>
      </trkpt>
      <trkpt lat="29.00055" lon="-13.48888">
        <ele>2</ele>
        <time>2021-07-02 13:28:13</time>
      </trkpt>
      <trkpt lat="29.00058" lon="-13.48892">
        <ele>2</ele>
        <time>2021-07-02 13:28:14</time>
      </trkpt>
      <trkpt lat="29.0006" lon="-13.48895">
        <ele>2</ele>
        <time>2021-07-02 13:28:15</time>
      </trkpt>
      <trkpt lat="29.00062" lon="-13.48899">
        <ele>2</ele>
        <time>2021-07-02 13:28:16</time>
      </trkpt>
      <trkpt lat="29.00063" lon="-13.48902">
        <ele>2</ele>
        <time>2021-07-02 13:28:17</time>
      </trkpt>
      <trkpt lat="29.00063" lon="-13.48905">
        <ele>2</ele>
        <time>2021-07-02 13:28:18</time>
      </trkpt>
      <trkpt lat="29.00064" lon="-13.48907">
        <ele>2.4</ele>
        <time>2021-07-02 13:28:19</time>
      </trkpt>
      <trkpt lat="29.00064" lon="-13.4891">
        <ele>2.6</ele>
        <time>2021-07-02 13:28:20</time>
      </trkpt>
      <trkpt lat="29.00063" lon="-13.48913">
        <ele>3</ele>
        <time>2021-07-02 13:28:21</time>
      </trkpt>
      <trkpt lat="29.00063" lon="-13.48916">
        <ele>3.4</ele>
        <time>2021-07-02 13:28:22</time>
      </trkpt>
      <trkpt lat="29.00062" lon="-13.48919">
        <ele>3.6</ele>
        <time>2021-07-02 13:28:23</time>
      </trkpt>
      <trkpt lat="29.00061" lon="-13.48922">
        <ele>4</ele>
        <time>2021-07-02 13:28:24</time>
      </trkpt>
      <trkpt lat="29.0006" lon="-13.48925">
        <ele>4</ele>
        <time>2021-07-02 13:28:25</time>
      </trkpt>
      <trkpt lat="29.00059" lon="-13.48928">
        <ele>4.2</ele>
        <time>2021-07-02 13:28:26</time>
      </trkpt>
      <trkpt lat="29.00058" lon="-13.48931">
        <ele>4.2</ele>
        <time>2021-07-02 13:28:27</time>
      </trkpt>
      <trkpt lat="29.00058" lon="-13.48933">
        <ele>4.6</ele>
        <time>2021-07-02 13:28:28</time>
      </trkpt>
      <trkpt lat="29.00059" lon="-13.48936">
        <ele>4.6</ele>
        <time>2021-07-02 13:28:29</time>
      </trkpt>
      <trkpt lat="29.00062" lon="-13.48939">
        <ele>4.8</ele>
        <time>2021-07-02 13:28:30</time>
      </trkpt>
      <trkpt lat="29.00064" lon="-13.48941">
        <ele>4.8</ele>
        <time>2021-07-02 13:28:31</time>
      </trkpt>
      <trkpt lat="29.00067" lon="-13.48943">
        <ele>5</ele>
        <time>2021-07-02 13:28:32</time>
      </trkpt>
      <trkpt lat="29.0007" lon="-13.48945">
        <ele>5</ele>
        <time>2021-07-02 13:28:33</time>
      </trkpt>
      <trkpt lat="29.00073" lon="-13.48948">
        <ele>5</ele>
        <time>2021-07-02 13:28:34</time>
      </trkpt>
      <trkpt lat="29.00075" lon="-13.4895">
        <ele>5.4</ele>
        <time>2021-07-02 13:28:35</time>
      </trkpt>
      <trkpt lat="29.00077" lon="-13.48952">
        <ele>5.4</ele>
        <time>2021-07-02 13:28:36</time>
      </trkpt>
      <trkpt lat="29.00079" lon="-13.48953">
        <ele>5.8</ele>
        <time>2021-07-02 13:28:37</time>
      </trkpt>
      <trkpt lat="29.00081" lon="-13.48954">
        <ele>5.8</ele>
        <time>2021-07-02 13:28:38</time>
      </trkpt>
      <trkpt lat="29.00083" lon="-13.48954">
        <ele>6</ele>
        <time>2021-07-02 13:28:39</time>
      </trkpt>
      <trkpt lat="29.00084" lon="-13.48954">
        <ele>6</ele>
        <time>2021-07-02 13:28:40</time>
      </trkpt>
      <trkpt lat="29.00084" lon="-13.48953">
        <ele>6</ele>
        <time>2021-07-02 13:28:41</time>
      </trkpt>
      <trkpt lat="29.00084" lon="-13.48952">
        <ele>6.2</ele>
        <time>2021-07-02 13:28:42</time>
      </trkpt>
      <trkpt lat="29.00084" lon="-13.48952">
        <ele>6.2</ele>
        <time>2021-07-02 13:28:43</time>
      </trkpt>
      <trkpt lat="29.00088" lon="-13.48953">
        <ele>6.8</ele>
        <time>2021-07-02 13:28:44</time>
      </trkpt>
      <trkpt lat="29.0009" lon="-13.48953">
        <ele>6.8</ele>
        <time>2021-07-02 13:28:45</time>
      </trkpt>
      <trkpt lat="29.00091" lon="-13.48954">
        <ele>7.2</ele>
        <time>2021-07-02 13:28:46</time>
      </trkpt>
      <trkpt lat="29.00093" lon="-13.48954">
        <ele>7.2</ele>
        <time>2021-07-02 13:28:47</time>
      </trkpt>
      <trkpt lat="29.00094" lon="-13.48953">
        <ele>7.2</ele>
        <time>2021-07-02 13:28:48</time>
      </trkpt>
      <trkpt lat="29.00096" lon="-13.48952">
        <ele>7.2</ele>
        <time>2021-07-02 13:28:49</time>
      </trkpt>
      <trkpt lat="29.00097" lon="-13.4895">
        <ele>6.8</ele>
        <time>2021-07-02 13:28:50</time>
      </trkpt>
      <trkpt lat="29.00098" lon="-13.48948">
        <ele>6.8</ele>
        <time>2021-07-02 13:28:51</time>
      </trkpt>
      <trkpt lat="29.00098" lon="-13.48947">
        <ele>6.4</ele>
        <time>2021-07-02 13:28:52</time>
      </trkpt>
      <trkpt lat="29.00099" lon="-13.48947">
        <ele>6.4</ele>
        <time>2021-07-02 13:28:53</time>
      </trkpt>
      <trkpt lat="29.00099" lon="-13.48947">
        <ele>6.4</ele>
        <time>2021-07-02 13:28:54</time>
      </trkpt>
      <trkpt lat="29.001" lon="-13.48947">
        <ele>6.4</ele>
        <time>2021-07-02 13:28:55</time>
      </trkpt>
      <trkpt lat="29.001" lon="-13.48948">
        <ele>6.4</ele>
        <time>2021-07-02 13:28:56</time>
      </trkpt>
      <trkpt lat="29.00101" lon="-13.4895">
        <ele>6.4</ele>
        <time>2021-07-02 13:28:57</time>
      </trkpt>
      <trkpt lat="29.00103" lon="-13.48952">
        <ele>6.4</ele>
        <time>2021-07-02 13:28:58</time>
      </trkpt>
      <trkpt lat="29.00104" lon="-13.48954">
        <ele>6.4</ele>
        <time>2021-07-02 13:28:59</time>
      </trkpt>
      <trkpt lat="29.00106" lon="-13.48957">
        <ele>6.4</ele>
        <time>2021-07-02 13:29:00</time>
      </trkpt>
      <trkpt lat="29.00108" lon="-13.4896">
        <ele>6.4</ele>
        <time>2021-07-02 13:29:01</time>
      </trkpt>
      <trkpt lat="29.0011" lon="-13.48963">
        <ele>6.4</ele>
        <time>2021-07-02 13:29:02</time>
      </trkpt>
      <trkpt lat="29.00112" lon="-13.48966">
        <ele>6.4</ele>
        <time>2021-07-02 13:29:03</time>
      </trkpt>
      <trkpt lat="29.00115" lon="-13.48968">
        <ele>6.4</ele>
        <time>2021-07-02 13:29:06</time>
      </trkpt>
      <trkpt lat="29.00117" lon="-13.48971">
        <ele>6.2</ele>
        <time>2021-07-02 13:29:07</time>
      </trkpt>
      <trkpt lat="29.0012" lon="-13.48974">
        <ele>6.2</ele>
        <time>2021-07-02 13:29:08</time>
      </trkpt>
      <trkpt lat="29.00122" lon="-13.48977">
        <ele>6</ele>
        <time>2021-07-02 13:29:09</time>
      </trkpt>
      <trkpt lat="29.00124" lon="-13.4898">
        <ele>6</ele>
        <time>2021-07-02 13:29:10</time>
      </trkpt>
      <trkpt lat="29.00126" lon="-13.48983">
        <ele>6</ele>
        <time>2021-07-02 13:29:11</time>
      </trkpt>
      <trkpt lat="29.00129" lon="-13.48986">
        <ele>5.6</ele>
        <time>2021-07-02 13:29:12</time>
      </trkpt>
      <trkpt lat="29.00132" lon="-13.48989">
        <ele>5.6</ele>
        <time>2021-07-02 13:29:13</time>
      </trkpt>
      <trkpt lat="29.00135" lon="-13.48992">
        <ele>5.6</ele>
        <time>2021-07-02 13:29:14</time>
      </trkpt>
      <trkpt lat="29.00137" lon="-13.48994">
        <ele>5.6</ele>
        <time>2021-07-02 13:29:15</time>
      </trkpt>
      <trkpt lat="29.0014" lon="-13.48997">
        <ele>5.6</ele>
        <time>2021-07-02 13:29:16</time>
      </trkpt>
      <trkpt lat="29.00143" lon="-13.48999">
        <ele>5.6</ele>
        <time>2021-07-02 13:29:17</time>
      </trkpt>
      <trkpt lat="29.00146" lon="-13.49002">
        <ele>5.6</ele>
        <time>2021-07-02 13:29:18</time>
      </trkpt>
      <trkpt lat="29.00148" lon="-13.49004">
        <ele>5.6</ele>
        <time>2021-07-02 13:29:19</time>
      </trkpt>
      <trkpt lat="29.00151" lon="-13.49007">
        <ele>5.6</ele>
        <time>2021-07-02 13:29:20</time>
      </trkpt>
      <trkpt lat="29.00153" lon="-13.4901">
        <ele>5.6</ele>
        <time>2021-07-02 13:29:21</time>
      </trkpt>
      <trkpt lat="29.00156" lon="-13.49013">
        <ele>5.6</ele>
        <time>2021-07-02 13:29:22</time>
      </trkpt>
      <trkpt lat="29.00158" lon="-13.49016">
        <ele>5.6</ele>
        <time>2021-07-02 13:29:23</time>
      </trkpt>
      <trkpt lat="29.00161" lon="-13.49018">
        <ele>5.6</ele>
        <time>2021-07-02 13:29:24</time>
      </trkpt>
      <trkpt lat="29.00163" lon="-13.49021">
        <ele>5.6</ele>
        <time>2021-07-02 13:29:25</time>
      </trkpt>
      <trkpt lat="29.00165" lon="-13.49023">
        <ele>5.8</ele>
        <time>2021-07-02 13:29:26</time>
      </trkpt>
      <trkpt lat="29.00167" lon="-13.49026">
        <ele>5.8</ele>
        <time>2021-07-02 13:29:27</time>
      </trkpt>
      <trkpt lat="29.0017" lon="-13.49029">
        <ele>6.2</ele>
        <time>2021-07-02 13:29:28</time>
      </trkpt>
      <trkpt lat="29.00172" lon="-13.49032">
        <ele>6.4</ele>
        <time>2021-07-02 13:29:29</time>
      </trkpt>
      <trkpt lat="29.00175" lon="-13.49034">
        <ele>6.4</ele>
        <time>2021-07-02 13:29:30</time>
      </trkpt>
      <trkpt lat="29.00177" lon="-13.49037">
        <ele>6.6</ele>
        <time>2021-07-02 13:29:31</time>
      </trkpt>
      <trkpt lat="29.0018" lon="-13.4904">
        <ele>6.6</ele>
        <time>2021-07-02 13:29:32</time>
      </trkpt>
      <trkpt lat="29.00182" lon="-13.49043">
        <ele>6.6</ele>
        <time>2021-07-02 13:29:33</time>
      </trkpt>
      <trkpt lat="29.00185" lon="-13.49045">
        <ele>6.6</ele>
        <time>2021-07-02 13:29:34</time>
      </trkpt>
      <trkpt lat="29.00187" lon="-13.49048">
        <ele>6.6</ele>
        <time>2021-07-02 13:29:35</time>
      </trkpt>
      <trkpt lat="29.0019" lon="-13.4905">
        <ele>6.6</ele>
        <time>2021-07-02 13:29:36</time>
      </trkpt>
      <trkpt lat="29.00192" lon="-13.49053">
        <ele>6.6</ele>
        <time>2021-07-02 13:29:37</time>
      </trkpt>
      <trkpt lat="29.00195" lon="-13.49056">
        <ele>6.6</ele>
        <time>2021-07-02 13:29:38</time>
      </trkpt>
      <trkpt lat="29.00197" lon="-13.49058">
        <ele>7</ele>
        <time>2021-07-02 13:29:39</time>
      </trkpt>
      <trkpt lat="29.002" lon="-13.49061">
        <ele>7</ele>
        <time>2021-07-02 13:29:40</time>
      </trkpt>
      <trkpt lat="29.00202" lon="-13.49063">
        <ele>7</ele>
        <time>2021-07-02 13:29:41</time>
      </trkpt>
      <trkpt lat="29.00204" lon="-13.49065">
        <ele>7.2</ele>
        <time>2021-07-02 13:29:42</time>
      </trkpt>
      <trkpt lat="29.00206" lon="-13.49067">
        <ele>7.2</ele>
        <time>2021-07-02 13:29:43</time>
      </trkpt>
      <trkpt lat="29.00208" lon="-13.4907">
        <ele>7.2</ele>
        <time>2021-07-02 13:29:44</time>
      </trkpt>
      <trkpt lat="29.0021" lon="-13.49072">
        <ele>7.4</ele>
        <time>2021-07-02 13:29:45</time>
      </trkpt>
      <trkpt lat="29.00212" lon="-13.49074">
        <ele>7.4</ele>
        <time>2021-07-02 13:29:46</time>
      </trkpt>
      <trkpt lat="29.00213" lon="-13.49076">
        <ele>7.4</ele>
        <time>2021-07-02 13:29:47</time>
      </trkpt>
      <trkpt lat="29.00215" lon="-13.49078">
        <ele>7.8</ele>
        <time>2021-07-02 13:29:48</time>
      </trkpt>
      <trkpt lat="29.00217" lon="-13.4908">
        <ele>7.8</ele>
        <time>2021-07-02 13:29:49</time>
      </trkpt>
      <trkpt lat="29.0022" lon="-13.49082">
        <ele>8</ele>
        <time>2021-07-02 13:29:50</time>
      </trkpt>
      <trkpt lat="29.00222" lon="-13.49084">
        <ele>8</ele>
        <time>2021-07-02 13:29:51</time>
      </trkpt>
      <trkpt lat="29.00224" lon="-13.49087">
        <ele>8.2</ele>
        <time>2021-07-02 13:29:52</time>
      </trkpt>
      <trkpt lat="29.00226" lon="-13.49089">
        <ele>8.2</ele>
        <time>2021-07-02 13:29:53</time>
      </trkpt>
      <trkpt lat="29.00228" lon="-13.49091">
        <ele>8.4</ele>
        <time>2021-07-02 13:29:54</time>
      </trkpt>
      <trkpt lat="29.0023" lon="-13.49093">
        <ele>8.4</ele>
        <time>2021-07-02 13:29:55</time>
      </trkpt>
      <trkpt lat="29.00232" lon="-13.49095">
        <ele>8.8</ele>
        <time>2021-07-02 13:29:56</time>
      </trkpt>
      <trkpt lat="29.00233" lon="-13.49097">
        <ele>8.8</ele>
        <time>2021-07-02 13:29:57</time>
      </trkpt>
      <trkpt lat="29.00235" lon="-13.49099">
        <ele>9.2</ele>
        <time>2021-07-02 13:29:58</time>
      </trkpt>
      <trkpt lat="29.00236" lon="-13.491">
        <ele>9.4</ele>
        <time>2021-07-02 13:29:59</time>
      </trkpt>
      <trkpt lat="29.00237" lon="-13.49102">
        <ele>9.6</ele>
        <time>2021-07-02 13:30:00</time>
      </trkpt>
      <trkpt lat="29.00239" lon="-13.49104">
        <ele>9.8</ele>
        <time>2021-07-02 13:30:01</time>
      </trkpt>
      <trkpt lat="29.0024" lon="-13.49106">
        <ele>10.2</ele>
        <time>2021-07-02 13:30:02</time>
      </trkpt>
      <trkpt lat="29.00242" lon="-13.49109">
        <ele>10.2</ele>
        <time>2021-07-02 13:30:03</time>
      </trkpt>
      <trkpt lat="29.00243" lon="-13.49112">
        <ele>10.4</ele>
        <time>2021-07-02 13:30:04</time>
      </trkpt>
      <trkpt lat="29.00245" lon="-13.49114">
        <ele>10.4</ele>
        <time>2021-07-02 13:30:05</time>
      </trkpt>
      <trkpt lat="29.00246" lon="-13.49116">
        <ele>10.4</ele>
        <time>2021-07-02 13:30:06</time>
      </trkpt>
      <trkpt lat="29.00248" lon="-13.49119">
        <ele>10.8</ele>
        <time>2021-07-02 13:30:07</time>
      </trkpt>
      <trkpt lat="29.0025" lon="-13.49121">
        <ele>10.8</ele>
        <time>2021-07-02 13:30:08</time>
      </trkpt>
      <trkpt lat="29.00251" lon="-13.49123">
        <ele>11</ele>
        <time>2021-07-02 13:30:09</time>
      </trkpt>
      <trkpt lat="29.00253" lon="-13.49126">
        <ele>11</ele>
        <time>2021-07-02 13:30:10</time>
      </trkpt>
      <trkpt lat="29.00255" lon="-13.49128">
        <ele>11</ele>
        <time>2021-07-02 13:30:11</time>
      </trkpt>
      <trkpt lat="29.00256" lon="-13.49131">
        <ele>11.4</ele>
        <time>2021-07-02 13:30:12</time>
      </trkpt>
      <trkpt lat="29.00258" lon="-13.49133">
        <ele>11.6</ele>
        <time>2021-07-02 13:30:13</time>
      </trkpt>
      <trkpt lat="29.0026" lon="-13.49136">
        <ele>12</ele>
        <time>2021-07-02 13:30:14</time>
      </trkpt>
      <trkpt lat="29.00262" lon="-13.49139">
        <ele>12</ele>
        <time>2021-07-02 13:30:15</time>
      </trkpt>
      <trkpt lat="29.00264" lon="-13.49142">
        <ele>12.2</ele>
        <time>2021-07-02 13:30:16</time>
      </trkpt>
      <trkpt lat="29.00266" lon="-13.49144">
        <ele>12.2</ele>
        <time>2021-07-02 13:30:17</time>
      </trkpt>
      <trkpt lat="29.00268" lon="-13.49147">
        <ele>12.2</ele>
        <time>2021-07-02 13:30:18</time>
      </trkpt>
      <trkpt lat="29.0027" lon="-13.4915">
        <ele>12.4</ele>
        <time>2021-07-02 13:30:19</time>
      </trkpt>
      <trkpt lat="29.00272" lon="-13.49152">
        <ele>12.4</ele>
        <time>2021-07-02 13:30:20</time>
      </trkpt>
      <trkpt lat="29.00274" lon="-13.49155">
        <ele>12.4</ele>
        <time>2021-07-02 13:30:21</time>
      </trkpt>
      <trkpt lat="29.00275" lon="-13.49157">
        <ele>12.2</ele>
        <time>2021-07-02 13:30:22</time>
      </trkpt>
      <trkpt lat="29.00277" lon="-13.49159">
        <ele>12.2</ele>
        <time>2021-07-02 13:30:23</time>
      </trkpt>
      <trkpt lat="29.00279" lon="-13.49161">
        <ele>12.2</ele>
        <time>2021-07-02 13:30:24</time>
      </trkpt>
      <trkpt lat="29.00281" lon="-13.49164">
        <ele>12.2</ele>
        <time>2021-07-02 13:30:25</time>
      </trkpt>
      <trkpt lat="29.00283" lon="-13.49167">
        <ele>12.2</ele>
        <time>2021-07-02 13:30:26</time>
      </trkpt>
      <trkpt lat="29.00286" lon="-13.4917">
        <ele>12.2</ele>
        <time>2021-07-02 13:30:27</time>
      </trkpt>
      <trkpt lat="29.00288" lon="-13.49172">
        <ele>12.2</ele>
        <time>2021-07-02 13:30:28</time>
      </trkpt>
      <trkpt lat="29.0029" lon="-13.49175">
        <ele>12.4</ele>
        <time>2021-07-02 13:30:29</time>
      </trkpt>
      <trkpt lat="29.00292" lon="-13.49178">
        <ele>12.4</ele>
        <time>2021-07-02 13:30:30</time>
      </trkpt>
      <trkpt lat="29.00295" lon="-13.4918">
        <ele>12.4</ele>
        <time>2021-07-02 13:30:31</time>
      </trkpt>
      <trkpt lat="29.00297" lon="-13.49183">
        <ele>12.4</ele>
        <time>2021-07-02 13:30:32</time>
      </trkpt>
      <trkpt lat="29.00299" lon="-13.49185">
        <ele>12.6</ele>
        <time>2021-07-02 13:30:33</time>
      </trkpt>
      <trkpt lat="29.00301" lon="-13.49188">
        <ele>12.6</ele>
        <time>2021-07-02 13:30:34</time>
      </trkpt>
      <trkpt lat="29.00304" lon="-13.4919">
        <ele>12.6</ele>
        <time>2021-07-02 13:30:35</time>
      </trkpt>
      <trkpt lat="29.00306" lon="-13.49193">
        <ele>12.6</ele>
        <time>2021-07-02 13:30:36</time>
      </trkpt>
      <trkpt lat="29.00308" lon="-13.49196">
        <ele>13</ele>
        <time>2021-07-02 13:30:37</time>
      </trkpt>
      <trkpt lat="29.0031" lon="-13.49199">
        <ele>13.2</ele>
        <time>2021-07-02 13:30:38</time>
      </trkpt>
      <trkpt lat="29.00312" lon="-13.49202">
        <ele>13.2</ele>
        <time>2021-07-02 13:30:39</time>
      </trkpt>
      <trkpt lat="29.00313" lon="-13.49205">
        <ele>13.4</ele>
        <time>2021-07-02 13:30:40</time>
      </trkpt>
      <trkpt lat="29.00315" lon="-13.49208">
        <ele>13.4</ele>
        <time>2021-07-02 13:30:41</time>
      </trkpt>
      <trkpt lat="29.00317" lon="-13.49211">
        <ele>13.4</ele>
        <time>2021-07-02 13:30:42</time>
      </trkpt>
      <trkpt lat="29.0032" lon="-13.49214">
        <ele>13.4</ele>
        <time>2021-07-02 13:30:43</time>
      </trkpt>
      <trkpt lat="29.00322" lon="-13.49216">
        <ele>13.4</ele>
        <time>2021-07-02 13:30:44</time>
      </trkpt>
      <trkpt lat="29.00324" lon="-13.49219">
        <ele>13.4</ele>
        <time>2021-07-02 13:30:45</time>
      </trkpt>
      <trkpt lat="29.00326" lon="-13.49222">
        <ele>13.4</ele>
        <time>2021-07-02 13:30:46</time>
      </trkpt>
      <trkpt lat="29.00328" lon="-13.49225">
        <ele>13.4</ele>
        <time>2021-07-02 13:30:47</time>
      </trkpt>
      <trkpt lat="29.0033" lon="-13.49228">
        <ele>13.6</ele>
        <time>2021-07-02 13:30:48</time>
      </trkpt>
      <trkpt lat="29.00332" lon="-13.4923">
        <ele>13.8</ele>
        <time>2021-07-02 13:30:49</time>
      </trkpt>
      <trkpt lat="29.00334" lon="-13.49233">
        <ele>13.8</ele>
        <time>2021-07-02 13:30:50</time>
      </trkpt>
      <trkpt lat="29.00336" lon="-13.49237">
        <ele>13.8</ele>
        <time>2021-07-02 13:30:51</time>
      </trkpt>
      <trkpt lat="29.00338" lon="-13.4924">
        <ele>13.8</ele>
        <time>2021-07-02 13:30:52</time>
      </trkpt>
      <trkpt lat="29.0034" lon="-13.49243">
        <ele>13.8</ele>
        <time>2021-07-02 13:30:53</time>
      </trkpt>
      <trkpt lat="29.00342" lon="-13.49246">
        <ele>13.8</ele>
        <time>2021-07-02 13:30:54</time>
      </trkpt>
      <trkpt lat="29.00344" lon="-13.49249">
        <ele>13.8</ele>
        <time>2021-07-02 13:30:55</time>
      </trkpt>
      <trkpt lat="29.00346" lon="-13.49251">
        <ele>13.8</ele>
        <time>2021-07-02 13:30:56</time>
      </trkpt>
      <trkpt lat="29.00348" lon="-13.49253">
        <ele>14.2</ele>
        <time>2021-07-02 13:30:57</time>
      </trkpt>
      <trkpt lat="29.00349" lon="-13.49255">
        <ele>14.2</ele>
        <time>2021-07-02 13:30:58</time>
      </trkpt>
      <trkpt lat="29.00351" lon="-13.49257">
        <ele>14.2</ele>
        <time>2021-07-02 13:30:59</time>
      </trkpt>
      <trkpt lat="29.00352" lon="-13.49259">
        <ele>14.2</ele>
        <time>2021-07-02 13:31:00</time>
      </trkpt>
      <trkpt lat="29.00354" lon="-13.49261">
        <ele>14.4</ele>
        <time>2021-07-02 13:31:01</time>
      </trkpt>
      <trkpt lat="29.00355" lon="-13.49262">
        <ele>14.4</ele>
        <time>2021-07-02 13:31:02</time>
      </trkpt>
      <trkpt lat="29.00357" lon="-13.49264">
        <ele>14.4</ele>
        <time>2021-07-02 13:31:03</time>
      </trkpt>
      <trkpt lat="29.00358" lon="-13.49265">
        <ele>14.8</ele>
        <time>2021-07-02 13:31:04</time>
      </trkpt>
      <trkpt lat="29.00359" lon="-13.49266">
        <ele>15</ele>
        <time>2021-07-02 13:31:05</time>
      </trkpt>
      <trkpt lat="29.00359" lon="-13.49266">
        <ele>15.2</ele>
        <time>2021-07-02 13:31:06</time>
      </trkpt>
      <trkpt lat="29.0036" lon="-13.49266">
        <ele>15.4</ele>
        <time>2021-07-02 13:31:07</time>
      </trkpt>
      <trkpt lat="29.0036" lon="-13.49266">
        <ele>15.6</ele>
        <time>2021-07-02 13:31:08</time>
      </trkpt>
      <trkpt lat="29.00361" lon="-13.49266">
        <ele>15.6</ele>
        <time>2021-07-02 13:31:09</time>
      </trkpt>
      <trkpt lat="29.00362" lon="-13.49267">
        <ele>15.6</ele>
        <time>2021-07-02 13:31:10</time>
      </trkpt>
      <trkpt lat="29.00362" lon="-13.49267">
        <ele>16</ele>
        <time>2021-07-02 13:31:11</time>
      </trkpt>
      <trkpt lat="29.00363" lon="-13.49267">
        <ele>16</ele>
        <time>2021-07-02 13:31:12</time>
      </trkpt>
      <trkpt lat="29.00363" lon="-13.49267">
        <ele>16</ele>
        <time>2021-07-02 13:31:13</time>
      </trkpt>
      <trkpt lat="29.00364" lon="-13.49267">
        <ele>15.6</ele>
        <time>2021-07-02 13:31:14</time>
      </trkpt>
      <trkpt lat="29.00365" lon="-13.49266">
        <ele>15.6</ele>
        <time>2021-07-02 13:31:15</time>
      </trkpt>
      <trkpt lat="29.00366" lon="-13.49264">
        <ele>15.4</ele>
        <time>2021-07-02 13:31:16</time>
      </trkpt>
      <trkpt lat="29.00368" lon="-13.49262">
        <ele>15.4</ele>
        <time>2021-07-02 13:31:17</time>
      </trkpt>
      <trkpt lat="29.0037" lon="-13.49261">
        <ele>15</ele>
        <time>2021-07-02 13:31:18</time>
      </trkpt>
      <trkpt lat="29.00372" lon="-13.49259">
        <ele>14.8</ele>
        <time>2021-07-02 13:31:19</time>
      </trkpt>
      <trkpt lat="29.00374" lon="-13.49257">
        <ele>14.6</ele>
        <time>2021-07-02 13:31:20</time>
      </trkpt>
      <trkpt lat="29.00377" lon="-13.49255">
        <ele>14.6</ele>
        <time>2021-07-02 13:31:21</time>
      </trkpt>
      <trkpt lat="29.0038" lon="-13.49253">
        <ele>14.2</ele>
        <time>2021-07-02 13:31:22</time>
      </trkpt>
      <trkpt lat="29.00383" lon="-13.49251">
        <ele>14.2</ele>
        <time>2021-07-02 13:31:23</time>
      </trkpt>
      <trkpt lat="29.00387" lon="-13.49248">
        <ele>13.8</ele>
        <time>2021-07-02 13:31:24</time>
      </trkpt>
      <trkpt lat="29.0039" lon="-13.49246">
        <ele>13.8</ele>
        <time>2021-07-02 13:31:25</time>
      </trkpt>
      <trkpt lat="29.00394" lon="-13.49244">
        <ele>13.4</ele>
        <time>2021-07-02 13:31:26</time>
      </trkpt>
      <trkpt lat="29.00398" lon="-13.49241">
        <ele>13</ele>
        <time>2021-07-02 13:31:27</time>
      </trkpt>
      <trkpt lat="29.00401" lon="-13.4924">
        <ele>12.8</ele>
        <time>2021-07-02 13:31:28</time>
      </trkpt>
      <trkpt lat="29.00403" lon="-13.4924">
        <ele>12.6</ele>
        <time>2021-07-02 13:31:29</time>
      </trkpt>
      <trkpt lat="29.00405" lon="-13.49242">
        <ele>12.6</ele>
        <time>2021-07-02 13:31:30</time>
      </trkpt>
      <trkpt lat="29.00404" lon="-13.49245">
        <ele>12.4</ele>
        <time>2021-07-02 13:31:31</time>
      </trkpt>
      <trkpt lat="29.00403" lon="-13.49248">
        <ele>12.4</ele>
        <time>2021-07-02 13:31:32</time>
      </trkpt>
      <trkpt lat="29.00401" lon="-13.49251">
        <ele>12.4</ele>
        <time>2021-07-02 13:31:33</time>
      </trkpt>
      <trkpt lat="29.00399" lon="-13.49253">
        <ele>12</ele>
        <time>2021-07-02 13:31:34</time>
      </trkpt>
      <trkpt lat="29.00396" lon="-13.49255">
        <ele>12</ele>
        <time>2021-07-02 13:31:35</time>
      </trkpt>
      <trkpt lat="29.00394" lon="-13.49257">
        <ele>11.8</ele>
        <time>2021-07-02 13:31:36</time>
      </trkpt>
      <trkpt lat="29.00392" lon="-13.4926">
        <ele>11.6</ele>
        <time>2021-07-02 13:31:37</time>
      </trkpt>
      <trkpt lat="29.0039" lon="-13.49262">
        <ele>11.6</ele>
        <time>2021-07-02 13:31:38</time>
      </trkpt>
      <trkpt lat="29.00387" lon="-13.49265">
        <ele>11.6</ele>
        <time>2021-07-02 13:31:39</time>
      </trkpt>
      <trkpt lat="29.00385" lon="-13.49268">
        <ele>11.4</ele>
        <time>2021-07-02 13:31:40</time>
      </trkpt>
      <trkpt lat="29.00384" lon="-13.49271">
        <ele>11.4</ele>
        <time>2021-07-02 13:31:41</time>
      </trkpt>
      <trkpt lat="29.00383" lon="-13.49274">
        <ele>11.6</ele>
        <time>2021-07-02 13:31:42</time>
      </trkpt>
      <trkpt lat="29.00383" lon="-13.49277">
        <ele>11.8</ele>
        <time>2021-07-02 13:31:43</time>
      </trkpt>
      <trkpt lat="29.00383" lon="-13.49281">
        <ele>11.8</ele>
        <time>2021-07-02 13:31:44</time>
      </trkpt>
      <trkpt lat="29.00382" lon="-13.49285">
        <ele>12.2</ele>
        <time>2021-07-02 13:31:45</time>
      </trkpt>
      <trkpt lat="29.00383" lon="-13.49288">
        <ele>12.2</ele>
        <time>2021-07-02 13:31:46</time>
      </trkpt>
      <trkpt lat="29.00383" lon="-13.49291">
        <ele>12.4</ele>
        <time>2021-07-02 13:31:47</time>
      </trkpt>
      <trkpt lat="29.00383" lon="-13.49295">
        <ele>12.4</ele>
        <time>2021-07-02 13:31:48</time>
      </trkpt>
      <trkpt lat="29.00385" lon="-13.49298">
        <ele>12.8</ele>
        <time>2021-07-02 13:31:49</time>
      </trkpt>
      <trkpt lat="29.00386" lon="-13.493">
        <ele>12.8</ele>
        <time>2021-07-02 13:31:50</time>
      </trkpt>
      <trkpt lat="29.00388" lon="-13.49303">
        <ele>13.2</ele>
        <time>2021-07-02 13:31:51</time>
      </trkpt>
      <trkpt lat="29.0039" lon="-13.49306">
        <ele>13.4</ele>
        <time>2021-07-02 13:31:52</time>
      </trkpt>
      <trkpt lat="29.00393" lon="-13.49308">
        <ele>13.6</ele>
        <time>2021-07-02 13:31:53</time>
      </trkpt>
      <trkpt lat="29.00395" lon="-13.49311">
        <ele>14</ele>
        <time>2021-07-02 13:31:54</time>
      </trkpt>
      <trkpt lat="29.00397" lon="-13.49314">
        <ele>14.2</ele>
        <time>2021-07-02 13:31:55</time>
      </trkpt>
      <trkpt lat="29.00399" lon="-13.49317">
        <ele>14.6</ele>
        <time>2021-07-02 13:31:56</time>
      </trkpt>
      <trkpt lat="29.00402" lon="-13.4932">
        <ele>14.6</ele>
        <time>2021-07-02 13:31:57</time>
      </trkpt>
      <trkpt lat="29.00404" lon="-13.49323">
        <ele>14.6</ele>
        <time>2021-07-02 13:31:58</time>
      </trkpt>
      <trkpt lat="29.00406" lon="-13.49327">
        <ele>14.8</ele>
        <time>2021-07-02 13:31:59</time>
      </trkpt>
      <trkpt lat="29.00407" lon="-13.4933">
        <ele>14.8</ele>
        <time>2021-07-02 13:32:00</time>
      </trkpt>
      <trkpt lat="29.00409" lon="-13.49333">
        <ele>14.8</ele>
        <time>2021-07-02 13:32:01</time>
      </trkpt>
      <trkpt lat="29.00418" lon="-13.49351">
        <ele>14.8</ele>
        <time>2021-07-02 13:32:02</time>
      </trkpt>
      <trkpt lat="29.00421" lon="-13.49356">
        <ele>14.6</ele>
        <time>2021-07-02 13:32:03</time>
      </trkpt>
      <trkpt lat="29.00424" lon="-13.4936">
        <ele>14.6</ele>
        <time>2021-07-02 13:32:04</time>
      </trkpt>
      <trkpt lat="29.00427" lon="-13.49364">
        <ele>14.6</ele>
        <time>2021-07-02 13:32:05</time>
      </trkpt>
      <trkpt lat="29.00429" lon="-13.49368">
        <ele>14.4</ele>
        <time>2021-07-02 13:32:06</time>
      </trkpt>
      <trkpt lat="29.00431" lon="-13.49372">
        <ele>14.4</ele>
        <time>2021-07-02 13:32:07</time>
      </trkpt>
      <trkpt lat="29.00433" lon="-13.49375">
        <ele>14.4</ele>
        <time>2021-07-02 13:32:08</time>
      </trkpt>
      <trkpt lat="29.00436" lon="-13.49379">
        <ele>14.4</ele>
        <time>2021-07-02 13:32:09</time>
      </trkpt>
      <trkpt lat="29.00438" lon="-13.49382">
        <ele>14.4</ele>
        <time>2021-07-02 13:32:10</time>
      </trkpt>
      <trkpt lat="29.00441" lon="-13.49385">
        <ele>14.4</ele>
        <time>2021-07-02 13:32:11</time>
      </trkpt>
      <trkpt lat="29.00443" lon="-13.49388">
        <ele>14.4</ele>
        <time>2021-07-02 13:32:12</time>
      </trkpt>
      <trkpt lat="29.00446" lon="-13.49391">
        <ele>14.4</ele>
        <time>2021-07-02 13:32:13</time>
      </trkpt>
      <trkpt lat="29.00448" lon="-13.49394">
        <ele>14.4</ele>
        <time>2021-07-02 13:32:14</time>
      </trkpt>
      <trkpt lat="29.00451" lon="-13.49397">
        <ele>14.6</ele>
        <time>2021-07-02 13:32:15</time>
      </trkpt>
      <trkpt lat="29.00453" lon="-13.494">
        <ele>14.6</ele>
        <time>2021-07-02 13:32:16</time>
      </trkpt>
      <trkpt lat="29.00456" lon="-13.49402">
        <ele>14.6</ele>
        <time>2021-07-02 13:32:17</time>
      </trkpt>
      <trkpt lat="29.00459" lon="-13.49405">
        <ele>15</ele>
        <time>2021-07-02 13:32:18</time>
      </trkpt>
      <trkpt lat="29.00463" lon="-13.49412">
        <ele>15</ele>
        <time>2021-07-02 13:32:19</time>
      </trkpt>
      <trkpt lat="29.00465" lon="-13.49415">
        <ele>15.2</ele>
        <time>2021-07-02 13:32:20</time>
      </trkpt>
      <trkpt lat="29.00468" lon="-13.49418">
        <ele>15.2</ele>
        <time>2021-07-02 13:32:21</time>
      </trkpt>
      <trkpt lat="29.0047" lon="-13.49422">
        <ele>15.2</ele>
        <time>2021-07-02 13:32:22</time>
      </trkpt>
      <trkpt lat="29.00472" lon="-13.49425">
        <ele>15.2</ele>
        <time>2021-07-02 13:32:23</time>
      </trkpt>
      <trkpt lat="29.00475" lon="-13.49428">
        <ele>15.4</ele>
        <time>2021-07-02 13:32:24</time>
      </trkpt>
      <trkpt lat="29.00477" lon="-13.49431">
        <ele>15.4</ele>
        <time>2021-07-02 13:32:25</time>
      </trkpt>
      <trkpt lat="29.00479" lon="-13.49435">
        <ele>15.4</ele>
        <time>2021-07-02 13:32:26</time>
      </trkpt>
      <trkpt lat="29.00481" lon="-13.49438">
        <ele>15.6</ele>
        <time>2021-07-02 13:32:27</time>
      </trkpt>
      <trkpt lat="29.00482" lon="-13.49442">
        <ele>15.6</ele>
        <time>2021-07-02 13:32:28</time>
      </trkpt>
      <trkpt lat="29.00484" lon="-13.49446">
        <ele>15.6</ele>
        <time>2021-07-02 13:32:29</time>
      </trkpt>
      <trkpt lat="29.00485" lon="-13.49449">
        <ele>15.6</ele>
        <time>2021-07-02 13:32:30</time>
      </trkpt>
      <trkpt lat="29.00486" lon="-13.49453">
        <ele>15.6</ele>
        <time>2021-07-02 13:32:31</time>
      </trkpt>
      <trkpt lat="29.00488" lon="-13.49456">
        <ele>15.6</ele>
        <time>2021-07-02 13:32:32</time>
      </trkpt>
      <trkpt lat="29.00489" lon="-13.49459">
        <ele>15.6</ele>
        <time>2021-07-02 13:32:33</time>
      </trkpt>
      <trkpt lat="29.0049" lon="-13.49462">
        <ele>16</ele>
        <time>2021-07-02 13:32:34</time>
      </trkpt>
      <trkpt lat="29.00492" lon="-13.49465">
        <ele>16</ele>
        <time>2021-07-02 13:32:35</time>
      </trkpt>
      <trkpt lat="29.00492" lon="-13.49468">
        <ele>16.2</ele>
        <time>2021-07-02 13:32:36</time>
      </trkpt>
      <trkpt lat="29.00493" lon="-13.49471">
        <ele>16.2</ele>
        <time>2021-07-02 13:32:37</time>
      </trkpt>
      <trkpt lat="29.00494" lon="-13.49473">
        <ele>16.4</ele>
        <time>2021-07-02 13:32:38</time>
      </trkpt>
      <trkpt lat="29.00496" lon="-13.49476">
        <ele>16.4</ele>
        <time>2021-07-02 13:32:39</time>
      </trkpt>
      <trkpt lat="29.00497" lon="-13.49479">
        <ele>16.8</ele>
        <time>2021-07-02 13:32:40</time>
      </trkpt>
      <trkpt lat="29.00498" lon="-13.49482">
        <ele>16.8</ele>
        <time>2021-07-02 13:32:41</time>
      </trkpt>
      <trkpt lat="29.00499" lon="-13.49485">
        <ele>17</ele>
        <time>2021-07-02 13:32:42</time>
      </trkpt>
      <trkpt lat="29.00499" lon="-13.49488">
        <ele>17</ele>
        <time>2021-07-02 13:32:43</time>
      </trkpt>
      <trkpt lat="29.005" lon="-13.4949">
        <ele>17.2</ele>
        <time>2021-07-02 13:32:44</time>
      </trkpt>
      <trkpt lat="29.00501" lon="-13.49491">
        <ele>17.2</ele>
        <time>2021-07-02 13:32:45</time>
      </trkpt>
      <trkpt lat="29.00501" lon="-13.49492">
        <ele>17.4</ele>
        <time>2021-07-02 13:32:46</time>
      </trkpt>
      <trkpt lat="29.00502" lon="-13.49493">
        <ele>17.4</ele>
        <time>2021-07-02 13:32:47</time>
      </trkpt>
      <trkpt lat="29.00502" lon="-13.49494">
        <ele>17.4</ele>
        <time>2021-07-02 13:32:48</time>
      </trkpt>
      <trkpt lat="29.00503" lon="-13.49495">
        <ele>17.8</ele>
        <time>2021-07-02 13:32:49</time>
      </trkpt>
      <trkpt lat="29.00503" lon="-13.49496">
        <ele>17.8</ele>
        <time>2021-07-02 13:32:50</time>
      </trkpt>
      <trkpt lat="29.00504" lon="-13.49499">
        <ele>18</ele>
        <time>2021-07-02 13:32:51</time>
      </trkpt>
      <trkpt lat="29.00505" lon="-13.49501">
        <ele>18</ele>
        <time>2021-07-02 13:32:52</time>
      </trkpt>
      <trkpt lat="29.00506" lon="-13.49503">
        <ele>18</ele>
        <time>2021-07-02 13:32:53</time>
      </trkpt>
      <trkpt lat="29.00507" lon="-13.49504">
        <ele>18</ele>
        <time>2021-07-02 13:32:54</time>
      </trkpt>
      <trkpt lat="29.00508" lon="-13.49504">
        <ele>18</ele>
        <time>2021-07-02 13:32:55</time>
      </trkpt>
      <trkpt lat="29.00509" lon="-13.49505">
        <ele>18.4</ele>
        <time>2021-07-02 13:32:56</time>
      </trkpt>
      <trkpt lat="29.0051" lon="-13.49507">
        <ele>18.4</ele>
        <time>2021-07-02 13:32:57</time>
      </trkpt>
      <trkpt lat="29.00511" lon="-13.49509">
        <ele>18.4</ele>
        <time>2021-07-02 13:32:58</time>
      </trkpt>
      <trkpt lat="29.00513" lon="-13.49512">
        <ele>18.6</ele>
        <time>2021-07-02 13:32:59</time>
      </trkpt>
      <trkpt lat="29.00514" lon="-13.49514">
        <ele>18.6</ele>
        <time>2021-07-02 13:33:00</time>
      </trkpt>
      <trkpt lat="29.00516" lon="-13.49516">
        <ele>18.6</ele>
        <time>2021-07-02 13:33:01</time>
      </trkpt>
      <trkpt lat="29.00518" lon="-13.49518">
        <ele>18.6</ele>
        <time>2021-07-02 13:33:02</time>
      </trkpt>
      <trkpt lat="29.0052" lon="-13.49521">
        <ele>19</ele>
        <time>2021-07-02 13:33:03</time>
      </trkpt>
      <trkpt lat="29.00521" lon="-13.49523">
        <ele>19</ele>
        <time>2021-07-02 13:33:04</time>
      </trkpt>
      <trkpt lat="29.00523" lon="-13.49526">
        <ele>19.2</ele>
        <time>2021-07-02 13:33:05</time>
      </trkpt>
      <trkpt lat="29.00525" lon="-13.49528">
        <ele>19.2</ele>
        <time>2021-07-02 13:33:06</time>
      </trkpt>
      <trkpt lat="29.00527" lon="-13.4953">
        <ele>19.6</ele>
        <time>2021-07-02 13:33:07</time>
      </trkpt>
      <trkpt lat="29.0053" lon="-13.49532">
        <ele>19.6</ele>
        <time>2021-07-02 13:33:08</time>
      </trkpt>
      <trkpt lat="29.00532" lon="-13.49535">
        <ele>19.8</ele>
        <time>2021-07-02 13:33:09</time>
      </trkpt>
      <trkpt lat="29.00535" lon="-13.49537">
        <ele>19.8</ele>
        <time>2021-07-02 13:33:10</time>
      </trkpt>
      <trkpt lat="29.00537" lon="-13.49539">
        <ele>19.8</ele>
        <time>2021-07-02 13:33:11</time>
      </trkpt>
      <trkpt lat="29.0054" lon="-13.49542">
        <ele>19.8</ele>
        <time>2021-07-02 13:33:12</time>
      </trkpt>
      <trkpt lat="29.00542" lon="-13.49544">
        <ele>19.8</ele>
        <time>2021-07-02 13:33:13</time>
      </trkpt>
      <trkpt lat="29.00544" lon="-13.49547">
        <ele>19.8</ele>
        <time>2021-07-02 13:33:14</time>
      </trkpt>
      <trkpt lat="29.00546" lon="-13.49549">
        <ele>19.6</ele>
        <time>2021-07-02 13:33:15</time>
      </trkpt>
      <trkpt lat="29.00549" lon="-13.49551">
        <ele>19.4</ele>
        <time>2021-07-02 13:33:16</time>
      </trkpt>
      <trkpt lat="29.00551" lon="-13.49554">
        <ele>19.4</ele>
        <time>2021-07-02 13:33:17</time>
      </trkpt>
      <trkpt lat="29.00553" lon="-13.49556">
        <ele>19.2</ele>
        <time>2021-07-02 13:33:18</time>
      </trkpt>
      <trkpt lat="29.00555" lon="-13.49558">
        <ele>19.2</ele>
        <time>2021-07-02 13:33:19</time>
      </trkpt>
      <trkpt lat="29.00557" lon="-13.4956">
        <ele>19.2</ele>
        <time>2021-07-02 13:33:20</time>
      </trkpt>
      <trkpt lat="29.00559" lon="-13.49563">
        <ele>19.2</ele>
        <time>2021-07-02 13:33:21</time>
      </trkpt>
      <trkpt lat="29.00561" lon="-13.49565">
        <ele>19.2</ele>
        <time>2021-07-02 13:33:22</time>
      </trkpt>
      <trkpt lat="29.00563" lon="-13.49567">
        <ele>19.2</ele>
        <time>2021-07-02 13:33:23</time>
      </trkpt>
      <trkpt lat="29.00565" lon="-13.4957">
        <ele>19.2</ele>
        <time>2021-07-02 13:33:24</time>
      </trkpt>
      <trkpt lat="29.00567" lon="-13.49572">
        <ele>19.4</ele>
        <time>2021-07-02 13:33:25</time>
      </trkpt>
      <trkpt lat="29.00569" lon="-13.49574">
        <ele>19.4</ele>
        <time>2021-07-02 13:33:26</time>
      </trkpt>
      <trkpt lat="29.00571" lon="-13.49576">
        <ele>19.4</ele>
        <time>2021-07-02 13:33:27</time>
      </trkpt>
      <trkpt lat="29.00574" lon="-13.49579">
        <ele>19.6</ele>
        <time>2021-07-02 13:33:28</time>
      </trkpt>
      <trkpt lat="29.00576" lon="-13.49581">
        <ele>19.6</ele>
        <time>2021-07-02 13:33:29</time>
      </trkpt>
      <trkpt lat="29.00578" lon="-13.49583">
        <ele>19.6</ele>
        <time>2021-07-02 13:33:30</time>
      </trkpt>
      <trkpt lat="29.00581" lon="-13.49586">
        <ele>19.6</ele>
        <time>2021-07-02 13:33:31</time>
      </trkpt>
      <trkpt lat="29.00583" lon="-13.49588">
        <ele>19.8</ele>
        <time>2021-07-02 13:33:32</time>
      </trkpt>
      <trkpt lat="29.00586" lon="-13.4959">
        <ele>19.8</ele>
        <time>2021-07-02 13:33:33</time>
      </trkpt>
      <trkpt lat="29.00588" lon="-13.49592">
        <ele>20.2</ele>
        <time>2021-07-02 13:33:34</time>
      </trkpt>
      <trkpt lat="29.0059" lon="-13.49595">
        <ele>20.2</ele>
        <time>2021-07-02 13:33:35</time>
      </trkpt>
      <trkpt lat="29.00593" lon="-13.49597">
        <ele>20.2</ele>
        <time>2021-07-02 13:33:36</time>
      </trkpt>
      <trkpt lat="29.00595" lon="-13.49599">
        <ele>20.4</ele>
        <time>2021-07-02 13:33:37</time>
      </trkpt>
      <trkpt lat="29.00597" lon="-13.49601">
        <ele>20.4</ele>
        <time>2021-07-02 13:33:38</time>
      </trkpt>
      <trkpt lat="29.006" lon="-13.49603">
        <ele>20.4</ele>
        <time>2021-07-02 13:33:39</time>
      </trkpt>
      <trkpt lat="29.00602" lon="-13.49605">
        <ele>20.6</ele>
        <time>2021-07-02 13:33:40</time>
      </trkpt>
      <trkpt lat="29.00604" lon="-13.49608">
        <ele>20.6</ele>
        <time>2021-07-02 13:33:41</time>
      </trkpt>
      <trkpt lat="29.00606" lon="-13.49611">
        <ele>20.6</ele>
        <time>2021-07-02 13:33:42</time>
      </trkpt>
      <trkpt lat="29.00608" lon="-13.49614">
        <ele>20.6</ele>
        <time>2021-07-02 13:33:43</time>
      </trkpt>
      <trkpt lat="29.00611" lon="-13.49617">
        <ele>20.6</ele>
        <time>2021-07-02 13:33:44</time>
      </trkpt>
      <trkpt lat="29.00613" lon="-13.49619">
        <ele>20.6</ele>
        <time>2021-07-02 13:33:45</time>
      </trkpt>
      <trkpt lat="29.00615" lon="-13.49621">
        <ele>20.6</ele>
        <time>2021-07-02 13:33:46</time>
      </trkpt>
      <trkpt lat="29.00617" lon="-13.49623">
        <ele>20.6</ele>
        <time>2021-07-02 13:33:47</time>
      </trkpt>
      <trkpt lat="29.00619" lon="-13.49625">
        <ele>20.6</ele>
        <time>2021-07-02 13:33:48</time>
      </trkpt>
      <trkpt lat="29.00621" lon="-13.49626">
        <ele>21</ele>
        <time>2021-07-02 13:33:49</time>
      </trkpt>
      <trkpt lat="29.00622" lon="-13.49628">
        <ele>21</ele>
        <time>2021-07-02 13:33:50</time>
      </trkpt>
      <trkpt lat="29.00623" lon="-13.4963">
        <ele>21.2</ele>
        <time>2021-07-02 13:33:51</time>
      </trkpt>
      <trkpt lat="29.00624" lon="-13.49631">
        <ele>21.2</ele>
        <time>2021-07-02 13:33:52</time>
      </trkpt>
      <trkpt lat="29.00625" lon="-13.49631">
        <ele>21.6</ele>
        <time>2021-07-02 13:33:53</time>
      </trkpt>
      <trkpt lat="29.00626" lon="-13.49632">
        <ele>21.8</ele>
        <time>2021-07-02 13:33:54</time>
      </trkpt>
      <trkpt lat="29.00628" lon="-13.49633">
        <ele>22.4</ele>
        <time>2021-07-02 13:33:55</time>
      </trkpt>
      <trkpt lat="29.0063" lon="-13.49634">
        <ele>22.6</ele>
        <time>2021-07-02 13:33:56</time>
      </trkpt>
      <trkpt lat="29.00631" lon="-13.49636">
        <ele>23</ele>
        <time>2021-07-02 13:33:57</time>
      </trkpt>
      <trkpt lat="29.00633" lon="-13.49638">
        <ele>23.4</ele>
        <time>2021-07-02 13:33:58</time>
      </trkpt>
      <trkpt lat="29.00636" lon="-13.49641">
        <ele>23.8</ele>
        <time>2021-07-02 13:33:59</time>
      </trkpt>
      <trkpt lat="29.00639" lon="-13.49644">
        <ele>24</ele>
        <time>2021-07-02 13:34:00</time>
      </trkpt>
      <trkpt lat="29.00642" lon="-13.49648">
        <ele>24</ele>
        <time>2021-07-02 13:34:01</time>
      </trkpt>
      <trkpt lat="29.00645" lon="-13.49653">
        <ele>24.2</ele>
        <time>2021-07-02 13:34:02</time>
      </trkpt>
      <trkpt lat="29.00648" lon="-13.49656">
        <ele>24.2</ele>
        <time>2021-07-02 13:34:03</time>
      </trkpt>
      <trkpt lat="29.00651" lon="-13.49659">
        <ele>23.8</ele>
        <time>2021-07-02 13:34:04</time>
      </trkpt>
      <trkpt lat="29.00654" lon="-13.49661">
        <ele>23.8</ele>
        <time>2021-07-02 13:34:05</time>
      </trkpt>
      <trkpt lat="29.00657" lon="-13.49662">
        <ele>23.6</ele>
        <time>2021-07-02 13:34:06</time>
      </trkpt>
      <trkpt lat="29.00661" lon="-13.49662">
        <ele>23.6</ele>
        <time>2021-07-02 13:34:07</time>
      </trkpt>
      <trkpt lat="29.00664" lon="-13.49663">
        <ele>23.6</ele>
        <time>2021-07-02 13:34:08</time>
      </trkpt>
      <trkpt lat="29.00668" lon="-13.49664">
        <ele>23.6</ele>
        <time>2021-07-02 13:34:09</time>
      </trkpt>
      <trkpt lat="29.00672" lon="-13.49663">
        <ele>23.4</ele>
        <time>2021-07-02 13:34:10</time>
      </trkpt>
      <trkpt lat="29.00676" lon="-13.49664">
        <ele>23.4</ele>
        <time>2021-07-02 13:34:11</time>
      </trkpt>
      <trkpt lat="29.0068" lon="-13.49663">
        <ele>23.4</ele>
        <time>2021-07-02 13:34:12</time>
      </trkpt>
      <trkpt lat="29.00684" lon="-13.49664">
        <ele>23.4</ele>
        <time>2021-07-02 13:34:13</time>
      </trkpt>
      <trkpt lat="29.00688" lon="-13.49665">
        <ele>23.4</ele>
        <time>2021-07-02 13:34:14</time>
      </trkpt>
      <trkpt lat="29.00692" lon="-13.49665">
        <ele>23</ele>
        <time>2021-07-02 13:34:15</time>
      </trkpt>
      <trkpt lat="29.00696" lon="-13.49665">
        <ele>23</ele>
        <time>2021-07-02 13:34:16</time>
      </trkpt>
      <trkpt lat="29.007" lon="-13.49665">
        <ele>23</ele>
        <time>2021-07-02 13:34:17</time>
      </trkpt>
      <trkpt lat="29.00703" lon="-13.49665">
        <ele>23</ele>
        <time>2021-07-02 13:34:18</time>
      </trkpt>
      <trkpt lat="29.00707" lon="-13.49665">
        <ele>22.8</ele>
        <time>2021-07-02 13:34:19</time>
      </trkpt>
      <trkpt lat="29.0071" lon="-13.49665">
        <ele>22.8</ele>
        <time>2021-07-02 13:34:20</time>
      </trkpt>
      <trkpt lat="29.00714" lon="-13.49665">
        <ele>22.8</ele>
        <time>2021-07-02 13:34:21</time>
      </trkpt>
      <trkpt lat="29.00717" lon="-13.49664">
        <ele>22.8</ele>
        <time>2021-07-02 13:34:22</time>
      </trkpt>
      <trkpt lat="29.00721" lon="-13.49664">
        <ele>22.8</ele>
        <time>2021-07-02 13:34:23</time>
      </trkpt>
      <trkpt lat="29.00724" lon="-13.49664">
        <ele>23.2</ele>
        <time>2021-07-02 13:34:24</time>
      </trkpt>
      <trkpt lat="29.00728" lon="-13.49664">
        <ele>23.2</ele>
        <time>2021-07-02 13:34:25</time>
      </trkpt>
      <trkpt lat="29.00731" lon="-13.49664">
        <ele>23.2</ele>
        <time>2021-07-02 13:34:26</time>
      </trkpt>
      <trkpt lat="29.00734" lon="-13.49664">
        <ele>23.2</ele>
        <time>2021-07-02 13:34:27</time>
      </trkpt>
      <trkpt lat="29.00738" lon="-13.49663">
        <ele>23.6</ele>
        <time>2021-07-02 13:34:28</time>
      </trkpt>
      <trkpt lat="29.00741" lon="-13.49663">
        <ele>23.6</ele>
        <time>2021-07-02 13:34:29</time>
      </trkpt>
      <trkpt lat="29.00744" lon="-13.49662">
        <ele>23.6</ele>
        <time>2021-07-02 13:34:30</time>
      </trkpt>
      <trkpt lat="29.00748" lon="-13.49662">
        <ele>23.8</ele>
        <time>2021-07-02 13:34:31</time>
      </trkpt>
      <trkpt lat="29.00751" lon="-13.49663">
        <ele>23.8</ele>
        <time>2021-07-02 13:34:32</time>
      </trkpt>
      <trkpt lat="29.00755" lon="-13.49663">
        <ele>24</ele>
        <time>2021-07-02 13:34:33</time>
      </trkpt>
      <trkpt lat="29.00758" lon="-13.49663">
        <ele>24</ele>
        <time>2021-07-02 13:34:34</time>
      </trkpt>
      <trkpt lat="29.00762" lon="-13.49664">
        <ele>24.2</ele>
        <time>2021-07-02 13:34:35</time>
      </trkpt>
      <trkpt lat="29.00766" lon="-13.49665">
        <ele>24.2</ele>
        <time>2021-07-02 13:34:36</time>
      </trkpt>
      <trkpt lat="29.00769" lon="-13.49666">
        <ele>24.2</ele>
        <time>2021-07-02 13:34:37</time>
      </trkpt>
      <trkpt lat="29.00772" lon="-13.49667">
        <ele>24.4</ele>
        <time>2021-07-02 13:34:38</time>
      </trkpt>
      <trkpt lat="29.00776" lon="-13.49668">
        <ele>24.4</ele>
        <time>2021-07-02 13:34:39</time>
      </trkpt>
      <trkpt lat="29.00779" lon="-13.49669">
        <ele>24.4</ele>
        <time>2021-07-02 13:34:40</time>
      </trkpt>
      <trkpt lat="29.00781" lon="-13.4967">
        <ele>24.4</ele>
        <time>2021-07-02 13:34:41</time>
      </trkpt>
      <trkpt lat="29.00784" lon="-13.49671">
        <ele>24.4</ele>
        <time>2021-07-02 13:34:42</time>
      </trkpt>
      <trkpt lat="29.00788" lon="-13.49672">
        <ele>24.4</ele>
        <time>2021-07-02 13:34:43</time>
      </trkpt>
      <trkpt lat="29.00791" lon="-13.49673">
        <ele>24.4</ele>
        <time>2021-07-02 13:34:44</time>
      </trkpt>
      <trkpt lat="29.00794" lon="-13.49674">
        <ele>24.4</ele>
        <time>2021-07-02 13:34:45</time>
      </trkpt>
      <trkpt lat="29.00797" lon="-13.49675">
        <ele>24.4</ele>
        <time>2021-07-02 13:34:46</time>
      </trkpt>
      <trkpt lat="29.008" lon="-13.49676">
        <ele>24.8</ele>
        <time>2021-07-02 13:34:47</time>
      </trkpt>
      <trkpt lat="29.00803" lon="-13.49677">
        <ele>24.8</ele>
        <time>2021-07-02 13:34:48</time>
      </trkpt>
      <trkpt lat="29.00805" lon="-13.49677">
        <ele>24.8</ele>
        <time>2021-07-02 13:34:49</time>
      </trkpt>
      <trkpt lat="29.00809" lon="-13.49678">
        <ele>25</ele>
        <time>2021-07-02 13:34:50</time>
      </trkpt>
      <trkpt lat="29.00812" lon="-13.49679">
        <ele>25</ele>
        <time>2021-07-02 13:34:51</time>
      </trkpt>
      <trkpt lat="29.00815" lon="-13.49679">
        <ele>25.2</ele>
        <time>2021-07-02 13:34:52</time>
      </trkpt>
      <trkpt lat="29.00818" lon="-13.49679">
        <ele>25.2</ele>
        <time>2021-07-02 13:34:53</time>
      </trkpt>
      <trkpt lat="29.00822" lon="-13.49679">
        <ele>25.4</ele>
        <time>2021-07-02 13:34:54</time>
      </trkpt>
      <trkpt lat="29.00825" lon="-13.49678">
        <ele>25.4</ele>
        <time>2021-07-02 13:34:55</time>
      </trkpt>
      <trkpt lat="29.00828" lon="-13.49678">
        <ele>25.4</ele>
        <time>2021-07-02 13:34:56</time>
      </trkpt>
      <trkpt lat="29.00832" lon="-13.49677">
        <ele>25.4</ele>
        <time>2021-07-02 13:34:57</time>
      </trkpt>
      <trkpt lat="29.00835" lon="-13.49676">
        <ele>25.4</ele>
        <time>2021-07-02 13:34:58</time>
      </trkpt>
      <trkpt lat="29.00838" lon="-13.49675">
        <ele>25.4</ele>
        <time>2021-07-02 13:34:59</time>
      </trkpt>
      <trkpt lat="29.00841" lon="-13.49675">
        <ele>25.4</ele>
        <time>2021-07-02 13:35:00</time>
      </trkpt>
      <trkpt lat="29.00844" lon="-13.49675">
        <ele>25.4</ele>
        <time>2021-07-02 13:35:01</time>
      </trkpt>
      <trkpt lat="29.00847" lon="-13.49675">
        <ele>25.4</ele>
        <time>2021-07-02 13:35:02</time>
      </trkpt>
      <trkpt lat="29.00851" lon="-13.49675">
        <ele>25.4</ele>
        <time>2021-07-02 13:35:03</time>
      </trkpt>
      <trkpt lat="29.00854" lon="-13.49675">
        <ele>25.6</ele>
        <time>2021-07-02 13:35:04</time>
      </trkpt>
      <trkpt lat="29.00858" lon="-13.49675">
        <ele>25.6</ele>
        <time>2021-07-02 13:35:05</time>
      </trkpt>
      <trkpt lat="29.00862" lon="-13.49675">
        <ele>25.6</ele>
        <time>2021-07-02 13:35:06</time>
      </trkpt>
      <trkpt lat="29.00865" lon="-13.49675">
        <ele>25.6</ele>
        <time>2021-07-02 13:35:07</time>
      </trkpt>
      <trkpt lat="29.00869" lon="-13.49675">
        <ele>25.6</ele>
        <time>2021-07-02 13:35:08</time>
      </trkpt>
      <trkpt lat="29.00872" lon="-13.49676">
        <ele>25.6</ele>
        <time>2021-07-02 13:35:09</time>
      </trkpt>
      <trkpt lat="29.00875" lon="-13.49676">
        <ele>25.6</ele>
        <time>2021-07-02 13:35:10</time>
      </trkpt>
      <trkpt lat="29.00879" lon="-13.49676">
        <ele>25.6</ele>
        <time>2021-07-02 13:35:11</time>
      </trkpt>
      <trkpt lat="29.00882" lon="-13.49676">
        <ele>25.8</ele>
        <time>2021-07-02 13:35:12</time>
      </trkpt>
      <trkpt lat="29.00886" lon="-13.49676">
        <ele>25.8</ele>
        <time>2021-07-02 13:35:13</time>
      </trkpt>
      <trkpt lat="29.00889" lon="-13.49676">
        <ele>25.8</ele>
        <time>2021-07-02 13:35:14</time>
      </trkpt>
      <trkpt lat="29.00893" lon="-13.49676">
        <ele>25.8</ele>
        <time>2021-07-02 13:35:15</time>
      </trkpt>
      <trkpt lat="29.00896" lon="-13.49675">
        <ele>25.8</ele>
        <time>2021-07-02 13:35:16</time>
      </trkpt>
      <trkpt lat="29.009" lon="-13.49675">
        <ele>25.8</ele>
        <time>2021-07-02 13:35:17</time>
      </trkpt>
      <trkpt lat="29.00903" lon="-13.49674">
        <ele>25.8</ele>
        <time>2021-07-02 13:35:18</time>
      </trkpt>
      <trkpt lat="29.00906" lon="-13.49674">
        <ele>25.8</ele>
        <time>2021-07-02 13:35:19</time>
      </trkpt>
      <trkpt lat="29.00909" lon="-13.49673">
        <ele>25.8</ele>
        <time>2021-07-02 13:35:20</time>
      </trkpt>
      <trkpt lat="29.00913" lon="-13.49673">
        <ele>25.8</ele>
        <time>2021-07-02 13:35:21</time>
      </trkpt>
      <trkpt lat="29.00916" lon="-13.49673">
        <ele>25.8</ele>
        <time>2021-07-02 13:35:22</time>
      </trkpt>
      <trkpt lat="29.0092" lon="-13.49672">
        <ele>26</ele>
        <time>2021-07-02 13:35:23</time>
      </trkpt>
      <trkpt lat="29.00923" lon="-13.49672">
        <ele>26</ele>
        <time>2021-07-02 13:35:24</time>
      </trkpt>
      <trkpt lat="29.00926" lon="-13.49672">
        <ele>26</ele>
        <time>2021-07-02 13:35:25</time>
      </trkpt>
      <trkpt lat="29.00929" lon="-13.49672">
        <ele>26.4</ele>
        <time>2021-07-02 13:35:26</time>
      </trkpt>
      <trkpt lat="29.00933" lon="-13.49672">
        <ele>26.4</ele>
        <time>2021-07-02 13:35:27</time>
      </trkpt>
      <trkpt lat="29.00936" lon="-13.49672">
        <ele>26.4</ele>
        <time>2021-07-02 13:35:28</time>
      </trkpt>
      <trkpt lat="29.0094" lon="-13.49672">
        <ele>26.4</ele>
        <time>2021-07-02 13:35:29</time>
      </trkpt>
      <trkpt lat="29.00943" lon="-13.49673">
        <ele>26.4</ele>
        <time>2021-07-02 13:35:30</time>
      </trkpt>
      <trkpt lat="29.00946" lon="-13.49673">
        <ele>26.4</ele>
        <time>2021-07-02 13:35:31</time>
      </trkpt>
      <trkpt lat="29.00949" lon="-13.49674">
        <ele>26.8</ele>
        <time>2021-07-02 13:35:32</time>
      </trkpt>
      <trkpt lat="29.00952" lon="-13.49675">
        <ele>26.8</ele>
        <time>2021-07-02 13:35:33</time>
      </trkpt>
      <trkpt lat="29.00955" lon="-13.49675">
        <ele>27</ele>
        <time>2021-07-02 13:35:34</time>
      </trkpt>
      <trkpt lat="29.00958" lon="-13.49676">
        <ele>27</ele>
        <time>2021-07-02 13:35:35</time>
      </trkpt>
      <trkpt lat="29.00961" lon="-13.49677">
        <ele>27.4</ele>
        <time>2021-07-02 13:35:36</time>
      </trkpt>
      <trkpt lat="29.00964" lon="-13.49678">
        <ele>27.4</ele>
        <time>2021-07-02 13:35:37</time>
      </trkpt>
      <trkpt lat="29.00967" lon="-13.49679">
        <ele>27.6</ele>
        <time>2021-07-02 13:35:38</time>
      </trkpt>
      <trkpt lat="29.0097" lon="-13.49681">
        <ele>27.6</ele>
        <time>2021-07-02 13:35:39</time>
      </trkpt>
      <trkpt lat="29.00973" lon="-13.49682">
        <ele>27.6</ele>
        <time>2021-07-02 13:35:40</time>
      </trkpt>
      <trkpt lat="29.00976" lon="-13.49684">
        <ele>27.6</ele>
        <time>2021-07-02 13:35:41</time>
      </trkpt>
      <trkpt lat="29.0098" lon="-13.49686">
        <ele>27.6</ele>
        <time>2021-07-02 13:35:42</time>
      </trkpt>
      <trkpt lat="29.00983" lon="-13.49687">
        <ele>27.6</ele>
        <time>2021-07-02 13:35:43</time>
      </trkpt>
      <trkpt lat="29.00986" lon="-13.49689">
        <ele>27.6</ele>
        <time>2021-07-02 13:35:44</time>
      </trkpt>
      <trkpt lat="29.00989" lon="-13.49691">
        <ele>27.4</ele>
        <time>2021-07-02 13:35:45</time>
      </trkpt>
      <trkpt lat="29.00992" lon="-13.49694">
        <ele>27.4</ele>
        <time>2021-07-02 13:35:46</time>
      </trkpt>
      <trkpt lat="29.00995" lon="-13.49696">
        <ele>27.2</ele>
        <time>2021-07-02 13:35:47</time>
      </trkpt>
      <trkpt lat="29.00998" lon="-13.49698">
        <ele>27.2</ele>
        <time>2021-07-02 13:35:48</time>
      </trkpt>
      <trkpt lat="29.01001" lon="-13.49701">
        <ele>27.2</ele>
        <time>2021-07-02 13:35:49</time>
      </trkpt>
      <trkpt lat="29.01003" lon="-13.49703">
        <ele>27.2</ele>
        <time>2021-07-02 13:35:50</time>
      </trkpt>
      <trkpt lat="29.01006" lon="-13.49706">
        <ele>27.2</ele>
        <time>2021-07-02 13:35:51</time>
      </trkpt>
      <trkpt lat="29.01008" lon="-13.49709">
        <ele>27.2</ele>
        <time>2021-07-02 13:35:52</time>
      </trkpt>
      <trkpt lat="29.01011" lon="-13.49711">
        <ele>27.2</ele>
        <time>2021-07-02 13:35:53</time>
      </trkpt>
      <trkpt lat="29.01013" lon="-13.49714">
        <ele>27.2</ele>
        <time>2021-07-02 13:35:54</time>
      </trkpt>
      <trkpt lat="29.01016" lon="-13.49716">
        <ele>27.2</ele>
        <time>2021-07-02 13:35:55</time>
      </trkpt>
      <trkpt lat="29.01018" lon="-13.49718">
        <ele>27.2</ele>
        <time>2021-07-02 13:35:56</time>
      </trkpt>
      <trkpt lat="29.01021" lon="-13.4972">
        <ele>27.2</ele>
        <time>2021-07-02 13:35:57</time>
      </trkpt>
      <trkpt lat="29.01023" lon="-13.49721">
        <ele>27.2</ele>
        <time>2021-07-02 13:35:58</time>
      </trkpt>
      <trkpt lat="29.01026" lon="-13.49722">
        <ele>27.4</ele>
        <time>2021-07-02 13:35:59</time>
      </trkpt>
      <trkpt lat="29.01028" lon="-13.49723">
        <ele>27.4</ele>
        <time>2021-07-02 13:36:00</time>
      </trkpt>
      <trkpt lat="29.01031" lon="-13.49724">
        <ele>27.6</ele>
        <time>2021-07-02 13:36:01</time>
      </trkpt>
      <trkpt lat="29.01033" lon="-13.49726">
        <ele>27.6</ele>
        <time>2021-07-02 13:36:02</time>
      </trkpt>
      <trkpt lat="29.01036" lon="-13.49728">
        <ele>28</ele>
        <time>2021-07-02 13:36:03</time>
      </trkpt>
      <trkpt lat="29.01038" lon="-13.4973">
        <ele>28</ele>
        <time>2021-07-02 13:36:04</time>
      </trkpt>
      <trkpt lat="29.0104" lon="-13.49733">
        <ele>28</ele>
        <time>2021-07-02 13:36:05</time>
      </trkpt>
      <trkpt lat="29.01041" lon="-13.49736">
        <ele>28</ele>
        <time>2021-07-02 13:36:06</time>
      </trkpt>
      <trkpt lat="29.01043" lon="-13.4974">
        <ele>28</ele>
        <time>2021-07-02 13:36:07</time>
      </trkpt>
      <trkpt lat="29.01044" lon="-13.49743">
        <ele>28</ele>
        <time>2021-07-02 13:36:08</time>
      </trkpt>
      <trkpt lat="29.01046" lon="-13.49745">
        <ele>28</ele>
        <time>2021-07-02 13:36:09</time>
      </trkpt>
      <trkpt lat="29.01048" lon="-13.49748">
        <ele>28</ele>
        <time>2021-07-02 13:36:10</time>
      </trkpt>
      <trkpt lat="29.01051" lon="-13.4975">
        <ele>28</ele>
        <time>2021-07-02 13:36:11</time>
      </trkpt>
      <trkpt lat="29.01053" lon="-13.49752">
        <ele>28</ele>
        <time>2021-07-02 13:36:12</time>
      </trkpt>
      <trkpt lat="29.01056" lon="-13.49754">
        <ele>28</ele>
        <time>2021-07-02 13:36:13</time>
      </trkpt>
      <trkpt lat="29.01058" lon="-13.49756">
        <ele>28.2</ele>
        <time>2021-07-02 13:36:14</time>
      </trkpt>
      <trkpt lat="29.01061" lon="-13.49759">
        <ele>28.2</ele>
        <time>2021-07-02 13:36:15</time>
      </trkpt>
      <trkpt lat="29.01063" lon="-13.49761">
        <ele>28.2</ele>
        <time>2021-07-02 13:36:16</time>
      </trkpt>
      <trkpt lat="29.01066" lon="-13.49763">
        <ele>28.4</ele>
        <time>2021-07-02 13:36:17</time>
      </trkpt>
      <trkpt lat="29.01068" lon="-13.49765">
        <ele>28.4</ele>
        <time>2021-07-02 13:36:18</time>
      </trkpt>
      <trkpt lat="29.01069" lon="-13.49766">
        <ele>28.4</ele>
        <time>2021-07-02 13:36:19</time>
      </trkpt>
      <trkpt lat="29.01072" lon="-13.49768">
        <ele>28.4</ele>
        <time>2021-07-02 13:36:20</time>
      </trkpt>
      <trkpt lat="29.01074" lon="-13.49769">
        <ele>28.4</ele>
        <time>2021-07-02 13:36:21</time>
      </trkpt>
      <trkpt lat="29.01076" lon="-13.4977">
        <ele>28.4</ele>
        <time>2021-07-02 13:36:22</time>
      </trkpt>
      <trkpt lat="29.01078" lon="-13.49771">
        <ele>28.4</ele>
        <time>2021-07-02 13:36:23</time>
      </trkpt>
      <trkpt lat="29.01081" lon="-13.49772">
        <ele>28.4</ele>
        <time>2021-07-02 13:36:24</time>
      </trkpt>
      <trkpt lat="29.01084" lon="-13.49772">
        <ele>28.4</ele>
        <time>2021-07-02 13:36:25</time>
      </trkpt>
      <trkpt lat="29.01086" lon="-13.49773">
        <ele>28.4</ele>
        <time>2021-07-02 13:36:26</time>
      </trkpt>
      <trkpt lat="29.01088" lon="-13.49774">
        <ele>28.4</ele>
        <time>2021-07-02 13:36:27</time>
      </trkpt>
      <trkpt lat="29.01091" lon="-13.49775">
        <ele>28.4</ele>
        <time>2021-07-02 13:36:28</time>
      </trkpt>
      <trkpt lat="29.01093" lon="-13.49777">
        <ele>28.4</ele>
        <time>2021-07-02 13:36:29</time>
      </trkpt>
      <trkpt lat="29.01095" lon="-13.49779">
        <ele>28.4</ele>
        <time>2021-07-02 13:36:30</time>
      </trkpt>
      <trkpt lat="29.01097" lon="-13.49781">
        <ele>28.4</ele>
        <time>2021-07-02 13:36:31</time>
      </trkpt>
      <trkpt lat="29.01098" lon="-13.49784">
        <ele>28.4</ele>
        <time>2021-07-02 13:36:32</time>
      </trkpt>
      <trkpt lat="29.01098" lon="-13.49785">
        <ele>28.4</ele>
        <time>2021-07-02 13:36:33</time>
      </trkpt>
      <trkpt lat="29.01099" lon="-13.49786">
        <ele>28.8</ele>
        <time>2021-07-02 13:36:34</time>
      </trkpt>
      <trkpt lat="29.01099" lon="-13.49788">
        <ele>29</ele>
        <time>2021-07-02 13:36:35</time>
      </trkpt>
      <trkpt lat="29.011" lon="-13.49789">
        <ele>29.4</ele>
        <time>2021-07-02 13:36:36</time>
      </trkpt>
      <trkpt lat="29.011" lon="-13.4979">
        <ele>29.6</ele>
        <time>2021-07-02 13:36:37</time>
      </trkpt>
      <trkpt lat="29.011" lon="-13.49793">
        <ele>29.6</ele>
        <time>2021-07-02 13:36:38</time>
      </trkpt>
      <trkpt lat="29.01101" lon="-13.49795">
        <ele>29.6</ele>
        <time>2021-07-02 13:36:39</time>
      </trkpt>
      <trkpt lat="29.01101" lon="-13.49797">
        <ele>29.6</ele>
        <time>2021-07-02 13:36:40</time>
      </trkpt>
      <trkpt lat="29.01101" lon="-13.49799">
        <ele>30</ele>
        <time>2021-07-02 13:36:41</time>
      </trkpt>
      <trkpt lat="29.01101" lon="-13.49801">
        <ele>30.2</ele>
        <time>2021-07-02 13:36:42</time>
      </trkpt>
      <trkpt lat="29.011" lon="-13.49803">
        <ele>30.2</ele>
        <time>2021-07-02 13:36:43</time>
      </trkpt>
      <trkpt lat="29.011" lon="-13.49805">
        <ele>30.2</ele>
        <time>2021-07-02 13:36:44</time>
      </trkpt>
      <trkpt lat="29.01099" lon="-13.49806">
        <ele>30.4</ele>
        <time>2021-07-02 13:36:45</time>
      </trkpt>
      <trkpt lat="29.01099" lon="-13.49807">
        <ele>30.4</ele>
        <time>2021-07-02 13:36:46</time>
      </trkpt>
      <trkpt lat="29.01099" lon="-13.49806">
        <ele>30.4</ele>
        <time>2021-07-02 13:36:47</time>
      </trkpt>
      <trkpt lat="29.01099" lon="-13.49806">
        <ele>30.4</ele>
        <time>2021-07-02 13:36:48</time>
      </trkpt>
      <trkpt lat="29.01098" lon="-13.49806">
        <ele>30.4</ele>
        <time>2021-07-02 13:36:49</time>
      </trkpt>
      <trkpt lat="29.01097" lon="-13.49807">
        <ele>30.4</ele>
        <time>2021-07-02 13:36:50</time>
      </trkpt>
      <trkpt lat="29.01096" lon="-13.49808">
        <ele>30.2</ele>
        <time>2021-07-02 13:36:51</time>
      </trkpt>
      <trkpt lat="29.01094" lon="-13.49808">
        <ele>30.2</ele>
        <time>2021-07-02 13:36:52</time>
      </trkpt>
      <trkpt lat="29.01092" lon="-13.49805">
        <ele>30</ele>
        <time>2021-07-02 13:36:53</time>
      </trkpt>
      <trkpt lat="29.01093" lon="-13.49802">
        <ele>30</ele>
        <time>2021-07-02 13:36:54</time>
      </trkpt>
      <trkpt lat="29.01095" lon="-13.498">
        <ele>30</ele>
        <time>2021-07-02 13:36:55</time>
      </trkpt>
      <trkpt lat="29.01098" lon="-13.49799">
        <ele>30.2</ele>
        <time>2021-07-02 13:36:56</time>
      </trkpt>
      <trkpt lat="29.011" lon="-13.49797">
        <ele>30.4</ele>
        <time>2021-07-02 13:36:57</time>
      </trkpt>
      <trkpt lat="29.01102" lon="-13.49796">
        <ele>30.4</ele>
        <time>2021-07-02 13:36:58</time>
      </trkpt>
      <trkpt lat="29.01104" lon="-13.49796">
        <ele>30.6</ele>
        <time>2021-07-02 13:36:59</time>
      </trkpt>
      <trkpt lat="29.01106" lon="-13.49796">
        <ele>30.6</ele>
        <time>2021-07-02 13:37:00</time>
      </trkpt>
      <trkpt lat="29.01108" lon="-13.49796">
        <ele>30.6</ele>
        <time>2021-07-02 13:37:01</time>
      </trkpt>
      <trkpt lat="29.01108" lon="-13.49797">
        <ele>30.6</ele>
        <time>2021-07-02 13:37:02</time>
      </trkpt>
      <trkpt lat="29.01109" lon="-13.49797">
        <ele>30.8</ele>
        <time>2021-07-02 13:37:03</time>
      </trkpt>
      <trkpt lat="29.01109" lon="-13.49797">
        <ele>30.8</ele>
        <time>2021-07-02 13:37:04</time>
      </trkpt>
      <trkpt lat="29.01109" lon="-13.49797">
        <ele>30.8</ele>
        <time>2021-07-02 13:37:05</time>
      </trkpt>
      <trkpt lat="29.0111" lon="-13.49798">
        <ele>30.8</ele>
        <time>2021-07-02 13:37:06</time>
      </trkpt>
      <trkpt lat="29.0111" lon="-13.49798">
        <ele>30.8</ele>
        <time>2021-07-02 13:37:07</time>
      </trkpt>
      <trkpt lat="29.01111" lon="-13.49799">
        <ele>30.8</ele>
        <time>2021-07-02 13:37:08</time>
      </trkpt>
      <trkpt lat="29.01113" lon="-13.49801">
        <ele>30.8</ele>
        <time>2021-07-02 13:37:09</time>
      </trkpt>
      <trkpt lat="29.01115" lon="-13.49803">
        <ele>30.8</ele>
        <time>2021-07-02 13:37:10</time>
      </trkpt>
      <trkpt lat="29.01117" lon="-13.49805">
        <ele>30.8</ele>
        <time>2021-07-02 13:37:11</time>
      </trkpt>
      <trkpt lat="29.01119" lon="-13.49808">
        <ele>30.8</ele>
        <time>2021-07-02 13:37:12</time>
      </trkpt>
      <trkpt lat="29.01121" lon="-13.49811">
        <ele>30.8</ele>
        <time>2021-07-02 13:37:23</time>
      </trkpt>
      <trkpt lat="29.01123" lon="-13.49814">
        <ele>30.8</ele>
        <time>2021-07-02 13:37:24</time>
      </trkpt>
      <trkpt lat="29.01125" lon="-13.49817">
        <ele>30.6</ele>
        <time>2021-07-02 13:37:25</time>
      </trkpt>
      <trkpt lat="29.01127" lon="-13.4982">
        <ele>30.6</ele>
        <time>2021-07-02 13:37:26</time>
      </trkpt>
      <trkpt lat="29.01129" lon="-13.49822">
        <ele>30.6</ele>
        <time>2021-07-02 13:37:27</time>
      </trkpt>
      <trkpt lat="29.01131" lon="-13.49825">
        <ele>30.6</ele>
        <time>2021-07-02 13:37:28</time>
      </trkpt>
      <trkpt lat="29.01132" lon="-13.49828">
        <ele>30.6</ele>
        <time>2021-07-02 13:37:29</time>
      </trkpt>
      <trkpt lat="29.01134" lon="-13.49831">
        <ele>30.6</ele>
        <time>2021-07-02 13:37:30</time>
      </trkpt>
      <trkpt lat="29.01137" lon="-13.49833">
        <ele>30.6</ele>
        <time>2021-07-02 13:37:31</time>
      </trkpt>
      <trkpt lat="29.01139" lon="-13.49835">
        <ele>30.6</ele>
        <time>2021-07-02 13:37:32</time>
      </trkpt>
      <trkpt lat="29.01141" lon="-13.49838">
        <ele>30.6</ele>
        <time>2021-07-02 13:37:33</time>
      </trkpt>
      <trkpt lat="29.01144" lon="-13.4984">
        <ele>30.6</ele>
        <time>2021-07-02 13:37:34</time>
      </trkpt>
      <trkpt lat="29.01146" lon="-13.49842">
        <ele>30.6</ele>
        <time>2021-07-02 13:37:35</time>
      </trkpt>
      <trkpt lat="29.01149" lon="-13.49844">
        <ele>30.6</ele>
        <time>2021-07-02 13:37:36</time>
      </trkpt>
      <trkpt lat="29.01151" lon="-13.49846">
        <ele>30.6</ele>
        <time>2021-07-02 13:37:37</time>
      </trkpt>
      <trkpt lat="29.01154" lon="-13.49848">
        <ele>30.8</ele>
        <time>2021-07-02 13:37:38</time>
      </trkpt>
      <trkpt lat="29.01156" lon="-13.4985">
        <ele>30.8</ele>
        <time>2021-07-02 13:37:39</time>
      </trkpt>
      <trkpt lat="29.01158" lon="-13.49853">
        <ele>30.8</ele>
        <time>2021-07-02 13:37:40</time>
      </trkpt>
      <trkpt lat="29.01159" lon="-13.49856">
        <ele>30.8</ele>
        <time>2021-07-02 13:37:41</time>
      </trkpt>
      <trkpt lat="29.0116" lon="-13.49859">
        <ele>30.8</ele>
        <time>2021-07-02 13:37:42</time>
      </trkpt>
      <trkpt lat="29.01161" lon="-13.49863">
        <ele>30.8</ele>
        <time>2021-07-02 13:37:43</time>
      </trkpt>
      <trkpt lat="29.01162" lon="-13.49866">
        <ele>30.8</ele>
        <time>2021-07-02 13:37:44</time>
      </trkpt>
      <trkpt lat="29.01163" lon="-13.49869">
        <ele>30.8</ele>
        <time>2021-07-02 13:37:45</time>
      </trkpt>
      <trkpt lat="29.01163" lon="-13.49872">
        <ele>31</ele>
        <time>2021-07-02 13:37:46</time>
      </trkpt>
      <trkpt lat="29.01164" lon="-13.49876">
        <ele>31</ele>
        <time>2021-07-02 13:37:47</time>
      </trkpt>
      <trkpt lat="29.01165" lon="-13.49879">
        <ele>31.2</ele>
        <time>2021-07-02 13:37:48</time>
      </trkpt>
      <trkpt lat="29.01166" lon="-13.49882">
        <ele>31.2</ele>
        <time>2021-07-02 13:37:49</time>
      </trkpt>
      <trkpt lat="29.01168" lon="-13.49885">
        <ele>31.2</ele>
        <time>2021-07-02 13:37:50</time>
      </trkpt>
      <trkpt lat="29.01169" lon="-13.49887">
        <ele>31.2</ele>
        <time>2021-07-02 13:37:51</time>
      </trkpt>
      <trkpt lat="29.0117" lon="-13.4989">
        <ele>31.2</ele>
        <time>2021-07-02 13:37:52</time>
      </trkpt>
      <trkpt lat="29.01171" lon="-13.49893">
        <ele>33.6</ele>
        <time>2021-07-02 13:37:53</time>
      </trkpt>
      <trkpt lat="29.01172" lon="-13.49896">
        <ele>33.4</ele>
        <time>2021-07-02 13:37:54</time>
      </trkpt>
      <trkpt lat="29.01173" lon="-13.49899">
        <ele>33.4</ele>
        <time>2021-07-02 13:37:55</time>
      </trkpt>
      <trkpt lat="29.01175" lon="-13.49902">
        <ele>32.6</ele>
        <time>2021-07-02 13:37:56</time>
      </trkpt>
      <trkpt lat="29.01176" lon="-13.49906">
        <ele>32.6</ele>
        <time>2021-07-02 13:37:57</time>
      </trkpt>
      <trkpt lat="29.01179" lon="-13.49909">
        <ele>32.4</ele>
        <time>2021-07-02 13:37:58</time>
      </trkpt>
      <trkpt lat="29.0118" lon="-13.49911">
        <ele>32.2</ele>
        <time>2021-07-02 13:37:59</time>
      </trkpt>
      <trkpt lat="29.01182" lon="-13.49914">
        <ele>32.2</ele>
        <time>2021-07-02 13:38:00</time>
      </trkpt>
      <trkpt lat="29.01184" lon="-13.49916">
        <ele>32.2</ele>
        <time>2021-07-02 13:38:01</time>
      </trkpt>
      <trkpt lat="29.01186" lon="-13.49919">
        <ele>32.2</ele>
        <time>2021-07-02 13:38:02</time>
      </trkpt>
      <trkpt lat="29.01188" lon="-13.49921">
        <ele>32.2</ele>
        <time>2021-07-02 13:38:03</time>
      </trkpt>
      <trkpt lat="29.01191" lon="-13.49924">
        <ele>32.6</ele>
        <time>2021-07-02 13:38:04</time>
      </trkpt>
      <trkpt lat="29.01193" lon="-13.49926">
        <ele>32.6</ele>
        <time>2021-07-02 13:38:05</time>
      </trkpt>
      <trkpt lat="29.01196" lon="-13.49928">
        <ele>32.6</ele>
        <time>2021-07-02 13:38:06</time>
      </trkpt>
      <trkpt lat="29.01198" lon="-13.4993">
        <ele>32.2</ele>
        <time>2021-07-02 13:38:07</time>
      </trkpt>
      <trkpt lat="29.01201" lon="-13.49932">
        <ele>32.2</ele>
        <time>2021-07-02 13:38:08</time>
      </trkpt>
      <trkpt lat="29.01203" lon="-13.49934">
        <ele>32.2</ele>
        <time>2021-07-02 13:38:09</time>
      </trkpt>
      <trkpt lat="29.01206" lon="-13.49936">
        <ele>32.2</ele>
        <time>2021-07-02 13:38:10</time>
      </trkpt>
      <trkpt lat="29.01208" lon="-13.49938">
        <ele>32.2</ele>
        <time>2021-07-02 13:38:11</time>
      </trkpt>
      <trkpt lat="29.0121" lon="-13.49941">
        <ele>33.2</ele>
        <time>2021-07-02 13:38:12</time>
      </trkpt>
      <trkpt lat="29.01212" lon="-13.49943">
        <ele>32.8</ele>
        <time>2021-07-02 13:38:13</time>
      </trkpt>
      <trkpt lat="29.01214" lon="-13.49945">
        <ele>33</ele>
        <time>2021-07-02 13:38:14</time>
      </trkpt>
      <trkpt lat="29.01216" lon="-13.49948">
        <ele>32.8</ele>
        <time>2021-07-02 13:38:15</time>
      </trkpt>
      <trkpt lat="29.01217" lon="-13.4995">
        <ele>32.8</ele>
        <time>2021-07-02 13:38:16</time>
      </trkpt>
      <trkpt lat="29.01219" lon="-13.49952">
        <ele>32.2</ele>
        <time>2021-07-02 13:38:17</time>
      </trkpt>
      <trkpt lat="29.01221" lon="-13.49954">
        <ele>32.6</ele>
        <time>2021-07-02 13:38:18</time>
      </trkpt>
      <trkpt lat="29.01222" lon="-13.49957">
        <ele>32.6</ele>
        <time>2021-07-02 13:38:19</time>
      </trkpt>
      <trkpt lat="29.01224" lon="-13.4996">
        <ele>32.6</ele>
        <time>2021-07-02 13:38:20</time>
      </trkpt>
      <trkpt lat="29.01225" lon="-13.49963">
        <ele>32.6</ele>
        <time>2021-07-02 13:38:21</time>
      </trkpt>
      <trkpt lat="29.01227" lon="-13.49965">
        <ele>32.2</ele>
        <time>2021-07-02 13:38:22</time>
      </trkpt>
      <trkpt lat="29.01229" lon="-13.49968">
        <ele>32.6</ele>
        <time>2021-07-02 13:38:23</time>
      </trkpt>
      <trkpt lat="29.0123" lon="-13.4997">
        <ele>32.6</ele>
        <time>2021-07-02 13:38:24</time>
      </trkpt>
      <trkpt lat="29.01232" lon="-13.49973">
        <ele>32.6</ele>
        <time>2021-07-02 13:38:25</time>
      </trkpt>
      <trkpt lat="29.01234" lon="-13.49975">
        <ele>32.2</ele>
        <time>2021-07-02 13:38:26</time>
      </trkpt>
      <trkpt lat="29.01236" lon="-13.49978">
        <ele>32.2</ele>
        <time>2021-07-02 13:38:27</time>
      </trkpt>
      <trkpt lat="29.01238" lon="-13.4998">
        <ele>32.2</ele>
        <time>2021-07-02 13:38:28</time>
      </trkpt>
      <trkpt lat="29.01239" lon="-13.49983">
        <ele>32.2</ele>
        <time>2021-07-02 13:38:29</time>
      </trkpt>
      <trkpt lat="29.01241" lon="-13.49986">
        <ele>33</ele>
        <time>2021-07-02 13:38:30</time>
      </trkpt>
      <trkpt lat="29.01242" lon="-13.49988">
        <ele>33.6</ele>
        <time>2021-07-02 13:38:31</time>
      </trkpt>
      <trkpt lat="29.01243" lon="-13.49991">
        <ele>33.4</ele>
        <time>2021-07-02 13:38:32</time>
      </trkpt>
      <trkpt lat="29.01244" lon="-13.49993">
        <ele>32.6</ele>
        <time>2021-07-02 13:38:33</time>
      </trkpt>
      <trkpt lat="29.01245" lon="-13.49996">
        <ele>32.4</ele>
        <time>2021-07-02 13:38:34</time>
      </trkpt>
      <trkpt lat="29.01246" lon="-13.49999">
        <ele>32.4</ele>
        <time>2021-07-02 13:38:35</time>
      </trkpt>
      <trkpt lat="29.01247" lon="-13.50002">
        <ele>32.4</ele>
        <time>2021-07-02 13:38:36</time>
      </trkpt>
      <trkpt lat="29.01247" lon="-13.50005">
        <ele>32.4</ele>
        <time>2021-07-02 13:38:37</time>
      </trkpt>
      <trkpt lat="29.01248" lon="-13.50008">
        <ele>32.4</ele>
        <time>2021-07-02 13:38:38</time>
      </trkpt>
      <trkpt lat="29.0125" lon="-13.5001">
        <ele>32.6</ele>
        <time>2021-07-02 13:38:39</time>
      </trkpt>
      <trkpt lat="29.01252" lon="-13.50013">
        <ele>32.6</ele>
        <time>2021-07-02 13:38:40</time>
      </trkpt>
      <trkpt lat="29.01254" lon="-13.50015">
        <ele>33</ele>
        <time>2021-07-02 13:38:41</time>
      </trkpt>
      <trkpt lat="29.01256" lon="-13.50018">
        <ele>33.2</ele>
        <time>2021-07-02 13:38:42</time>
      </trkpt>
      <trkpt lat="29.01257" lon="-13.50021">
        <ele>33.6</ele>
        <time>2021-07-02 13:38:43</time>
      </trkpt>
      <trkpt lat="29.01259" lon="-13.50024">
        <ele>33.6</ele>
        <time>2021-07-02 13:38:44</time>
      </trkpt>
      <trkpt lat="29.01261" lon="-13.50027">
        <ele>33.6</ele>
        <time>2021-07-02 13:38:45</time>
      </trkpt>
      <trkpt lat="29.01262" lon="-13.5003">
        <ele>33.6</ele>
        <time>2021-07-02 13:38:46</time>
      </trkpt>
      <trkpt lat="29.01264" lon="-13.50033">
        <ele>33.6</ele>
        <time>2021-07-02 13:38:47</time>
      </trkpt>
      <trkpt lat="29.01266" lon="-13.50036">
        <ele>33.6</ele>
        <time>2021-07-02 13:38:48</time>
      </trkpt>
      <trkpt lat="29.01267" lon="-13.50039">
        <ele>33.6</ele>
        <time>2021-07-02 13:38:49</time>
      </trkpt>
      <trkpt lat="29.01269" lon="-13.50043">
        <ele>34</ele>
        <time>2021-07-02 13:38:50</time>
      </trkpt>
      <trkpt lat="29.01271" lon="-13.50046">
        <ele>34.4</ele>
        <time>2021-07-02 13:38:51</time>
      </trkpt>
      <trkpt lat="29.01272" lon="-13.50049">
        <ele>34.6</ele>
        <time>2021-07-02 13:38:52</time>
      </trkpt>
      <trkpt lat="29.01274" lon="-13.50052">
        <ele>34.8</ele>
        <time>2021-07-02 13:38:53</time>
      </trkpt>
      <trkpt lat="29.01276" lon="-13.50056">
        <ele>34.8</ele>
        <time>2021-07-02 13:38:54</time>
      </trkpt>
      <trkpt lat="29.01278" lon="-13.50059">
        <ele>35.2</ele>
        <time>2021-07-02 13:38:55</time>
      </trkpt>
      <trkpt lat="29.0128" lon="-13.50062">
        <ele>35.2</ele>
        <time>2021-07-02 13:38:56</time>
      </trkpt>
      <trkpt lat="29.01282" lon="-13.50065">
        <ele>35.4</ele>
        <time>2021-07-02 13:38:57</time>
      </trkpt>
      <trkpt lat="29.01284" lon="-13.50067">
        <ele>35.4</ele>
        <time>2021-07-02 13:38:58</time>
      </trkpt>
      <trkpt lat="29.01286" lon="-13.5007">
        <ele>35.8</ele>
        <time>2021-07-02 13:38:59</time>
      </trkpt>
      <trkpt lat="29.01289" lon="-13.50073">
        <ele>35.8</ele>
        <time>2021-07-02 13:39:00</time>
      </trkpt>
      <trkpt lat="29.01291" lon="-13.50075">
        <ele>36</ele>
        <time>2021-07-02 13:39:01</time>
      </trkpt>
      <trkpt lat="29.01293" lon="-13.50078">
        <ele>36</ele>
        <time>2021-07-02 13:39:02</time>
      </trkpt>
      <trkpt lat="29.01295" lon="-13.50081">
        <ele>36.2</ele>
        <time>2021-07-02 13:39:03</time>
      </trkpt>
      <trkpt lat="29.01297" lon="-13.50084">
        <ele>36.2</ele>
        <time>2021-07-02 13:39:04</time>
      </trkpt>
      <trkpt lat="29.01299" lon="-13.50087">
        <ele>36.4</ele>
        <time>2021-07-02 13:39:05</time>
      </trkpt>
      <trkpt lat="29.01301" lon="-13.5009">
        <ele>36.4</ele>
        <time>2021-07-02 13:39:06</time>
      </trkpt>
      <trkpt lat="29.01303" lon="-13.50092">
        <ele>36.8</ele>
        <time>2021-07-02 13:39:07</time>
      </trkpt>
      <trkpt lat="29.01305" lon="-13.50095">
        <ele>37</ele>
        <time>2021-07-02 13:39:08</time>
      </trkpt>
      <trkpt lat="29.01307" lon="-13.50099">
        <ele>37</ele>
        <time>2021-07-02 13:39:09</time>
      </trkpt>
      <trkpt lat="29.01308" lon="-13.50102">
        <ele>37.2</ele>
        <time>2021-07-02 13:39:10</time>
      </trkpt>
      <trkpt lat="29.0131" lon="-13.50105">
        <ele>37.2</ele>
        <time>2021-07-02 13:39:11</time>
      </trkpt>
      <trkpt lat="29.01312" lon="-13.50108">
        <ele>37.2</ele>
        <time>2021-07-02 13:39:12</time>
      </trkpt>
      <trkpt lat="29.01314" lon="-13.50111">
        <ele>37.6</ele>
        <time>2021-07-02 13:39:13</time>
      </trkpt>
      <trkpt lat="29.01316" lon="-13.50114">
        <ele>37.6</ele>
        <time>2021-07-02 13:39:14</time>
      </trkpt>
      <trkpt lat="29.01318" lon="-13.50118">
        <ele>37.6</ele>
        <time>2021-07-02 13:39:15</time>
      </trkpt>
      <trkpt lat="29.0132" lon="-13.50121">
        <ele>37.6</ele>
        <time>2021-07-02 13:39:16</time>
      </trkpt>
      <trkpt lat="29.01322" lon="-13.50124">
        <ele>37.6</ele>
        <time>2021-07-02 13:39:17</time>
      </trkpt>
      <trkpt lat="29.01323" lon="-13.50127">
        <ele>37.6</ele>
        <time>2021-07-02 13:39:18</time>
      </trkpt>
      <trkpt lat="29.01326" lon="-13.5013">
        <ele>37.6</ele>
        <time>2021-07-02 13:39:19</time>
      </trkpt>
      <trkpt lat="29.01328" lon="-13.50134">
        <ele>37.6</ele>
        <time>2021-07-02 13:39:20</time>
      </trkpt>
      <trkpt lat="29.0133" lon="-13.50137">
        <ele>37.6</ele>
        <time>2021-07-02 13:39:21</time>
      </trkpt>
      <trkpt lat="29.01331" lon="-13.5014">
        <ele>37.6</ele>
        <time>2021-07-02 13:39:22</time>
      </trkpt>
      <trkpt lat="29.01333" lon="-13.50143">
        <ele>37.6</ele>
        <time>2021-07-02 13:39:23</time>
      </trkpt>
      <trkpt lat="29.01335" lon="-13.50146">
        <ele>37.6</ele>
        <time>2021-07-02 13:39:24</time>
      </trkpt>
      <trkpt lat="29.01338" lon="-13.50149">
        <ele>37.6</ele>
        <time>2021-07-02 13:39:25</time>
      </trkpt>
      <trkpt lat="29.0134" lon="-13.50151">
        <ele>37.6</ele>
        <time>2021-07-02 13:39:26</time>
      </trkpt>
      <trkpt lat="29.01342" lon="-13.50153">
        <ele>37.6</ele>
        <time>2021-07-02 13:39:27</time>
      </trkpt>
      <trkpt lat="29.01343" lon="-13.50155">
        <ele>37.8</ele>
        <time>2021-07-02 13:39:28</time>
      </trkpt>
      <trkpt lat="29.01343" lon="-13.50156">
        <ele>38</ele>
        <time>2021-07-02 13:39:29</time>
      </trkpt>
      <trkpt lat="29.01344" lon="-13.50156">
        <ele>38.2</ele>
        <time>2021-07-02 13:39:30</time>
      </trkpt>
      <trkpt lat="29.01344" lon="-13.50157">
        <ele>38.2</ele>
        <time>2021-07-02 13:39:31</time>
      </trkpt>
      <trkpt lat="29.01344" lon="-13.50157">
        <ele>38.6</ele>
        <time>2021-07-02 13:39:32</time>
      </trkpt>
      <trkpt lat="29.01344" lon="-13.50157">
        <ele>38.6</ele>
        <time>2021-07-02 13:39:33</time>
      </trkpt>
      <trkpt lat="29.01345" lon="-13.50157">
        <ele>38.8</ele>
        <time>2021-07-02 13:39:34</time>
      </trkpt>
      <trkpt lat="29.01346" lon="-13.50157">
        <ele>38.8</ele>
        <time>2021-07-02 13:39:35</time>
      </trkpt>
      <trkpt lat="29.01348" lon="-13.50157">
        <ele>39.2</ele>
        <time>2021-07-02 13:39:36</time>
      </trkpt>
      <trkpt lat="29.0135" lon="-13.50156">
        <ele>39.2</ele>
        <time>2021-07-02 13:39:37</time>
      </trkpt>
      <trkpt lat="29.01352" lon="-13.50155">
        <ele>39.2</ele>
        <time>2021-07-02 13:39:38</time>
      </trkpt>
      <trkpt lat="29.01354" lon="-13.50153">
        <ele>39.2</ele>
        <time>2021-07-02 13:39:39</time>
      </trkpt>
      <trkpt lat="29.01357" lon="-13.50151">
        <ele>39.2</ele>
        <time>2021-07-02 13:39:40</time>
      </trkpt>
      <trkpt lat="29.01359" lon="-13.50149">
        <ele>39.2</ele>
        <time>2021-07-02 13:39:41</time>
      </trkpt>
      <trkpt lat="29.01362" lon="-13.50147">
        <ele>39.2</ele>
        <time>2021-07-02 13:39:42</time>
      </trkpt>
      <trkpt lat="29.01365" lon="-13.50145">
        <ele>39.2</ele>
        <time>2021-07-02 13:39:43</time>
      </trkpt>
      <trkpt lat="29.01367" lon="-13.50142">
        <ele>39.2</ele>
        <time>2021-07-02 13:39:44</time>
      </trkpt>
      <trkpt lat="29.0137" lon="-13.5014">
        <ele>39.2</ele>
        <time>2021-07-02 13:39:45</time>
      </trkpt>
      <trkpt lat="29.01373" lon="-13.50137">
        <ele>39.2</ele>
        <time>2021-07-02 13:39:46</time>
      </trkpt>
      <trkpt lat="29.01376" lon="-13.50134">
        <ele>39.2</ele>
        <time>2021-07-02 13:39:47</time>
      </trkpt>
      <trkpt lat="29.01379" lon="-13.50131">
        <ele>38.8</ele>
        <time>2021-07-02 13:39:48</time>
      </trkpt>
      <trkpt lat="29.01381" lon="-13.50127">
        <ele>38.8</ele>
        <time>2021-07-02 13:39:49</time>
      </trkpt>
      <trkpt lat="29.01384" lon="-13.50124">
        <ele>38.8</ele>
        <time>2021-07-02 13:39:50</time>
      </trkpt>
      <trkpt lat="29.01387" lon="-13.50121">
        <ele>38.8</ele>
        <time>2021-07-02 13:39:51</time>
      </trkpt>
      <trkpt lat="29.0139" lon="-13.50118">
        <ele>38.8</ele>
        <time>2021-07-02 13:39:52</time>
      </trkpt>
      <trkpt lat="29.01393" lon="-13.50115">
        <ele>38.6</ele>
        <time>2021-07-02 13:39:53</time>
      </trkpt>
      <trkpt lat="29.01395" lon="-13.50113">
        <ele>38.6</ele>
        <time>2021-07-02 13:39:54</time>
      </trkpt>
      <trkpt lat="29.01397" lon="-13.50111">
        <ele>38.6</ele>
        <time>2021-07-02 13:39:55</time>
      </trkpt>
      <trkpt lat="29.01399" lon="-13.5011">
        <ele>38.6</ele>
        <time>2021-07-02 13:39:56</time>
      </trkpt>
      <trkpt lat="29.01401" lon="-13.50108">
        <ele>38.6</ele>
        <time>2021-07-02 13:39:57</time>
      </trkpt>
      <trkpt lat="29.01403" lon="-13.50107">
        <ele>38.6</ele>
        <time>2021-07-02 13:39:58</time>
      </trkpt>
      <trkpt lat="29.01406" lon="-13.50107">
        <ele>38.6</ele>
        <time>2021-07-02 13:39:59</time>
      </trkpt>
      <trkpt lat="29.0141" lon="-13.50107">
        <ele>38.6</ele>
        <time>2021-07-02 13:40:00</time>
      </trkpt>
      <trkpt lat="29.01412" lon="-13.50109">
        <ele>38.8</ele>
        <time>2021-07-02 13:40:01</time>
      </trkpt>
      <trkpt lat="29.01414" lon="-13.50112">
        <ele>38.8</ele>
        <time>2021-07-02 13:40:02</time>
      </trkpt>
      <trkpt lat="29.01417" lon="-13.50116">
        <ele>39.2</ele>
        <time>2021-07-02 13:40:03</time>
      </trkpt>
      <trkpt lat="29.01419" lon="-13.50119">
        <ele>39.2</ele>
        <time>2021-07-02 13:40:04</time>
      </trkpt>
      <trkpt lat="29.01422" lon="-13.50122">
        <ele>39.6</ele>
        <time>2021-07-02 13:40:05</time>
      </trkpt>
      <trkpt lat="29.01424" lon="-13.50125">
        <ele>40</ele>
        <time>2021-07-02 13:40:06</time>
      </trkpt>
      <trkpt lat="29.01426" lon="-13.50128">
        <ele>40</ele>
        <time>2021-07-02 13:40:07</time>
      </trkpt>
      <trkpt lat="29.01429" lon="-13.50131">
        <ele>40.2</ele>
        <time>2021-07-02 13:40:08</time>
      </trkpt>
      <trkpt lat="29.01431" lon="-13.50135">
        <ele>40.2</ele>
        <time>2021-07-02 13:40:09</time>
      </trkpt>
      <trkpt lat="29.01434" lon="-13.50138">
        <ele>40.2</ele>
        <time>2021-07-02 13:40:10</time>
      </trkpt>
      <trkpt lat="29.01436" lon="-13.50141">
        <ele>40.4</ele>
        <time>2021-07-02 13:40:11</time>
      </trkpt>
      <trkpt lat="29.01439" lon="-13.50144">
        <ele>40.4</ele>
        <time>2021-07-02 13:40:12</time>
      </trkpt>
      <trkpt lat="29.01441" lon="-13.50146">
        <ele>40.4</ele>
        <time>2021-07-02 13:40:13</time>
      </trkpt>
      <trkpt lat="29.01443" lon="-13.50149">
        <ele>40.4</ele>
        <time>2021-07-02 13:40:14</time>
      </trkpt>
      <trkpt lat="29.01445" lon="-13.50152">
        <ele>40.6</ele>
        <time>2021-07-02 13:40:15</time>
      </trkpt>
      <trkpt lat="29.01447" lon="-13.50155">
        <ele>40.6</ele>
        <time>2021-07-02 13:40:16</time>
      </trkpt>
      <trkpt lat="29.0145" lon="-13.50157">
        <ele>40.6</ele>
        <time>2021-07-02 13:40:17</time>
      </trkpt>
      <trkpt lat="29.01452" lon="-13.5016">
        <ele>41</ele>
        <time>2021-07-02 13:40:18</time>
      </trkpt>
      <trkpt lat="29.01454" lon="-13.50162">
        <ele>41.2</ele>
        <time>2021-07-02 13:40:19</time>
      </trkpt>
      <trkpt lat="29.01456" lon="-13.50165">
        <ele>41.2</ele>
        <time>2021-07-02 13:40:20</time>
      </trkpt>
      <trkpt lat="29.01458" lon="-13.50167">
        <ele>41.6</ele>
        <time>2021-07-02 13:40:21</time>
      </trkpt>
      <trkpt lat="29.0146" lon="-13.5017">
        <ele>44.2</ele>
        <time>2021-07-02 13:40:22</time>
      </trkpt>
      <trkpt lat="29.01462" lon="-13.50173">
        <ele>43.6</ele>
        <time>2021-07-02 13:40:23</time>
      </trkpt>
      <trkpt lat="29.01464" lon="-13.50175">
        <ele>43.2</ele>
        <time>2021-07-02 13:40:24</time>
      </trkpt>
      <trkpt lat="29.01466" lon="-13.50177">
        <ele>42.8</ele>
        <time>2021-07-02 13:40:25</time>
      </trkpt>
      <trkpt lat="29.01468" lon="-13.5018">
        <ele>42.8</ele>
        <time>2021-07-02 13:40:26</time>
      </trkpt>
      <trkpt lat="29.0147" lon="-13.50182">
        <ele>42.6</ele>
        <time>2021-07-02 13:40:27</time>
      </trkpt>
      <trkpt lat="29.01472" lon="-13.50185">
        <ele>42.6</ele>
        <time>2021-07-02 13:40:28</time>
      </trkpt>
      <trkpt lat="29.01474" lon="-13.50188">
        <ele>42.6</ele>
        <time>2021-07-02 13:40:29</time>
      </trkpt>
      <trkpt lat="29.01476" lon="-13.5019">
        <ele>42.8</ele>
        <time>2021-07-02 13:40:30</time>
      </trkpt>
      <trkpt lat="29.01478" lon="-13.50193">
        <ele>42.8</ele>
        <time>2021-07-02 13:40:31</time>
      </trkpt>
      <trkpt lat="29.0148" lon="-13.50196">
        <ele>43</ele>
        <time>2021-07-02 13:40:32</time>
      </trkpt>
      <trkpt lat="29.01482" lon="-13.50199">
        <ele>43</ele>
        <time>2021-07-02 13:40:33</time>
      </trkpt>
      <trkpt lat="29.01484" lon="-13.50201">
        <ele>43.2</ele>
        <time>2021-07-02 13:40:34</time>
      </trkpt>
      <trkpt lat="29.01486" lon="-13.50204">
        <ele>43.6</ele>
        <time>2021-07-02 13:40:35</time>
      </trkpt>
      <trkpt lat="29.01489" lon="-13.50206">
        <ele>43.6</ele>
        <time>2021-07-02 13:40:36</time>
      </trkpt>
      <trkpt lat="29.01491" lon="-13.50209">
        <ele>43.8</ele>
        <time>2021-07-02 13:40:37</time>
      </trkpt>
      <trkpt lat="29.01493" lon="-13.50211">
        <ele>43.8</ele>
        <time>2021-07-02 13:40:38</time>
      </trkpt>
      <trkpt lat="29.01495" lon="-13.50214">
        <ele>44.2</ele>
        <time>2021-07-02 13:40:39</time>
      </trkpt>
      <trkpt lat="29.01497" lon="-13.50217">
        <ele>44.6</ele>
        <time>2021-07-02 13:40:40</time>
      </trkpt>
      <trkpt lat="29.01499" lon="-13.50219">
        <ele>44.6</ele>
        <time>2021-07-02 13:40:41</time>
      </trkpt>
      <trkpt lat="29.01501" lon="-13.50221">
        <ele>44.8</ele>
        <time>2021-07-02 13:40:42</time>
      </trkpt>
      <trkpt lat="29.01503" lon="-13.50224">
        <ele>44.8</ele>
        <time>2021-07-02 13:40:43</time>
      </trkpt>
      <trkpt lat="29.01505" lon="-13.50227">
        <ele>45.2</ele>
        <time>2021-07-02 13:40:44</time>
      </trkpt>
      <trkpt lat="29.01507" lon="-13.5023">
        <ele>45.4</ele>
        <time>2021-07-02 13:40:45</time>
      </trkpt>
      <trkpt lat="29.01509" lon="-13.50232">
        <ele>45.6</ele>
        <time>2021-07-02 13:40:46</time>
      </trkpt>
      <trkpt lat="29.01511" lon="-13.50235">
        <ele>45.6</ele>
        <time>2021-07-02 13:40:47</time>
      </trkpt>
      <trkpt lat="29.01513" lon="-13.50238">
        <ele>46</ele>
        <time>2021-07-02 13:40:48</time>
      </trkpt>
      <trkpt lat="29.01515" lon="-13.5024">
        <ele>46.2</ele>
        <time>2021-07-02 13:40:49</time>
      </trkpt>
      <trkpt lat="29.01517" lon="-13.50243">
        <ele>46.2</ele>
        <time>2021-07-02 13:40:50</time>
      </trkpt>
      <trkpt lat="29.01519" lon="-13.50246">
        <ele>46.2</ele>
        <time>2021-07-02 13:40:51</time>
      </trkpt>
      <trkpt lat="29.01521" lon="-13.50248">
        <ele>46.4</ele>
        <time>2021-07-02 13:40:52</time>
      </trkpt>
      <trkpt lat="29.01523" lon="-13.50251">
        <ele>46.4</ele>
        <time>2021-07-02 13:40:53</time>
      </trkpt>
      <trkpt lat="29.01525" lon="-13.50254">
        <ele>46.4</ele>
        <time>2021-07-02 13:40:54</time>
      </trkpt>
      <trkpt lat="29.01527" lon="-13.50257">
        <ele>46.8</ele>
        <time>2021-07-02 13:40:55</time>
      </trkpt>
      <trkpt lat="29.01529" lon="-13.5026">
        <ele>47</ele>
        <time>2021-07-02 13:40:56</time>
      </trkpt>
      <trkpt lat="29.01531" lon="-13.50262">
        <ele>47.2</ele>
        <time>2021-07-02 13:40:57</time>
      </trkpt>
      <trkpt lat="29.01533" lon="-13.50265">
        <ele>47.4</ele>
        <time>2021-07-02 13:40:58</time>
      </trkpt>
      <trkpt lat="29.01535" lon="-13.50268">
        <ele>47.4</ele>
        <time>2021-07-02 13:40:59</time>
      </trkpt>
      <trkpt lat="29.01537" lon="-13.50271">
        <ele>47.4</ele>
        <time>2021-07-02 13:41:00</time>
      </trkpt>
      <trkpt lat="29.01539" lon="-13.50274">
        <ele>47.8</ele>
        <time>2021-07-02 13:41:01</time>
      </trkpt>
      <trkpt lat="29.0154" lon="-13.50276">
        <ele>47.8</ele>
        <time>2021-07-02 13:41:02</time>
      </trkpt>
      <trkpt lat="29.01542" lon="-13.50279">
        <ele>48</ele>
        <time>2021-07-02 13:41:03</time>
      </trkpt>
      <trkpt lat="29.01544" lon="-13.50282">
        <ele>48</ele>
        <time>2021-07-02 13:41:04</time>
      </trkpt>
      <trkpt lat="29.01546" lon="-13.50285">
        <ele>48</ele>
        <time>2021-07-02 13:41:05</time>
      </trkpt>
      <trkpt lat="29.01548" lon="-13.50288">
        <ele>48.4</ele>
        <time>2021-07-02 13:41:06</time>
      </trkpt>
      <trkpt lat="29.0155" lon="-13.5029">
        <ele>48.6</ele>
        <time>2021-07-02 13:41:07</time>
      </trkpt>
      <trkpt lat="29.01552" lon="-13.50293">
        <ele>48.6</ele>
        <time>2021-07-02 13:41:08</time>
      </trkpt>
      <trkpt lat="29.01554" lon="-13.50296">
        <ele>49</ele>
        <time>2021-07-02 13:41:09</time>
      </trkpt>
      <trkpt lat="29.01556" lon="-13.50299">
        <ele>49.4</ele>
        <time>2021-07-02 13:41:10</time>
      </trkpt>
      <trkpt lat="29.01557" lon="-13.50302">
        <ele>49.4</ele>
        <time>2021-07-02 13:41:11</time>
      </trkpt>
      <trkpt lat="29.01559" lon="-13.50304">
        <ele>49.4</ele>
        <time>2021-07-02 13:41:12</time>
      </trkpt>
      <trkpt lat="29.01561" lon="-13.50307">
        <ele>49.4</ele>
        <time>2021-07-02 13:41:13</time>
      </trkpt>
      <trkpt lat="29.01563" lon="-13.5031">
        <ele>49.8</ele>
        <time>2021-07-02 13:41:14</time>
      </trkpt>
      <trkpt lat="29.01565" lon="-13.50313">
        <ele>49.8</ele>
        <time>2021-07-02 13:41:15</time>
      </trkpt>
      <trkpt lat="29.01567" lon="-13.50316">
        <ele>50</ele>
        <time>2021-07-02 13:41:16</time>
      </trkpt>
      <trkpt lat="29.01569" lon="-13.50319">
        <ele>50</ele>
        <time>2021-07-02 13:41:17</time>
      </trkpt>
      <trkpt lat="29.01571" lon="-13.50322">
        <ele>50.6</ele>
        <time>2021-07-02 13:41:18</time>
      </trkpt>
      <trkpt lat="29.01573" lon="-13.50325">
        <ele>51</ele>
        <time>2021-07-02 13:41:19</time>
      </trkpt>
      <trkpt lat="29.01574" lon="-13.50328">
        <ele>51.2</ele>
        <time>2021-07-02 13:41:20</time>
      </trkpt>
      <trkpt lat="29.01576" lon="-13.50331">
        <ele>51.4</ele>
        <time>2021-07-02 13:41:21</time>
      </trkpt>
      <trkpt lat="29.01578" lon="-13.50334">
        <ele>51.4</ele>
        <time>2021-07-02 13:41:22</time>
      </trkpt>
      <trkpt lat="29.0158" lon="-13.50336">
        <ele>51.4</ele>
        <time>2021-07-02 13:41:23</time>
      </trkpt>
      <trkpt lat="29.01582" lon="-13.50339">
        <ele>51.6</ele>
        <time>2021-07-02 13:41:24</time>
      </trkpt>
      <trkpt lat="29.01584" lon="-13.50342">
        <ele>52</ele>
        <time>2021-07-02 13:41:25</time>
      </trkpt>
      <trkpt lat="29.01586" lon="-13.50345">
        <ele>52.4</ele>
        <time>2021-07-02 13:41:26</time>
      </trkpt>
      <trkpt lat="29.01588" lon="-13.50348">
        <ele>52.6</ele>
        <time>2021-07-02 13:41:27</time>
      </trkpt>
      <trkpt lat="29.01589" lon="-13.50351">
        <ele>53</ele>
        <time>2021-07-02 13:41:28</time>
      </trkpt>
      <trkpt lat="29.01591" lon="-13.50354">
        <ele>53.2</ele>
        <time>2021-07-02 13:41:29</time>
      </trkpt>
      <trkpt lat="29.01594" lon="-13.50356">
        <ele>53.6</ele>
        <time>2021-07-02 13:41:30</time>
      </trkpt>
      <trkpt lat="29.01596" lon="-13.50359">
        <ele>53.8</ele>
        <time>2021-07-02 13:41:31</time>
      </trkpt>
      <trkpt lat="29.01597" lon="-13.50362">
        <ele>54</ele>
        <time>2021-07-02 13:41:32</time>
      </trkpt>
      <trkpt lat="29.01599" lon="-13.50365">
        <ele>54.2</ele>
        <time>2021-07-02 13:41:33</time>
      </trkpt>
      <trkpt lat="29.01601" lon="-13.50367">
        <ele>54.2</ele>
        <time>2021-07-02 13:41:34</time>
      </trkpt>
      <trkpt lat="29.01603" lon="-13.5037">
        <ele>54.8</ele>
        <time>2021-07-02 13:41:35</time>
      </trkpt>
      <trkpt lat="29.01605" lon="-13.50373">
        <ele>54.8</ele>
        <time>2021-07-02 13:41:36</time>
      </trkpt>
      <trkpt lat="29.01607" lon="-13.50375">
        <ele>55.2</ele>
        <time>2021-07-02 13:41:37</time>
      </trkpt>
      <trkpt lat="29.0161" lon="-13.50378">
        <ele>55.6</ele>
        <time>2021-07-02 13:41:38</time>
      </trkpt>
      <trkpt lat="29.01612" lon="-13.5038">
        <ele>55.6</ele>
        <time>2021-07-02 13:41:39</time>
      </trkpt>
      <trkpt lat="29.01614" lon="-13.50383">
        <ele>55.8</ele>
        <time>2021-07-02 13:41:40</time>
      </trkpt>
      <trkpt lat="29.01616" lon="-13.50386">
        <ele>55.8</ele>
        <time>2021-07-02 13:41:41</time>
      </trkpt>
      <trkpt lat="29.01618" lon="-13.50388">
        <ele>56</ele>
        <time>2021-07-02 13:41:42</time>
      </trkpt>
      <trkpt lat="29.01621" lon="-13.5039">
        <ele>56</ele>
        <time>2021-07-02 13:41:43</time>
      </trkpt>
      <trkpt lat="29.01623" lon="-13.50393">
        <ele>56.4</ele>
        <time>2021-07-02 13:41:44</time>
      </trkpt>
      <trkpt lat="29.01625" lon="-13.50395">
        <ele>56.4</ele>
        <time>2021-07-02 13:41:45</time>
      </trkpt>
      <trkpt lat="29.01628" lon="-13.50397">
        <ele>56.4</ele>
        <time>2021-07-02 13:41:46</time>
      </trkpt>
      <trkpt lat="29.0163" lon="-13.50399">
        <ele>56.6</ele>
        <time>2021-07-02 13:41:47</time>
      </trkpt>
      <trkpt lat="29.01633" lon="-13.50401">
        <ele>56.6</ele>
        <time>2021-07-02 13:41:48</time>
      </trkpt>
      <trkpt lat="29.01635" lon="-13.50403">
        <ele>56.8</ele>
        <time>2021-07-02 13:41:49</time>
      </trkpt>
      <trkpt lat="29.01638" lon="-13.50406">
        <ele>56.8</ele>
        <time>2021-07-02 13:41:50</time>
      </trkpt>
      <trkpt lat="29.0164" lon="-13.50408">
        <ele>57.2</ele>
        <time>2021-07-02 13:41:51</time>
      </trkpt>
      <trkpt lat="29.01643" lon="-13.50411">
        <ele>57.2</ele>
        <time>2021-07-02 13:41:52</time>
      </trkpt>
      <trkpt lat="29.01646" lon="-13.50413">
        <ele>57.6</ele>
        <time>2021-07-02 13:41:53</time>
      </trkpt>
      <trkpt lat="29.01649" lon="-13.50416">
        <ele>57.8</ele>
        <time>2021-07-02 13:41:54</time>
      </trkpt>
      <trkpt lat="29.01651" lon="-13.50418">
        <ele>57.8</ele>
        <time>2021-07-02 13:41:55</time>
      </trkpt>
      <trkpt lat="29.01654" lon="-13.5042">
        <ele>58.4</ele>
        <time>2021-07-02 13:41:56</time>
      </trkpt>
      <trkpt lat="29.01657" lon="-13.50423">
        <ele>58.4</ele>
        <time>2021-07-02 13:41:57</time>
      </trkpt>
      <trkpt lat="29.01659" lon="-13.50425">
        <ele>58.6</ele>
        <time>2021-07-02 13:41:58</time>
      </trkpt>
      <trkpt lat="29.01662" lon="-13.50427">
        <ele>58.6</ele>
        <time>2021-07-02 13:41:59</time>
      </trkpt>
      <trkpt lat="29.01665" lon="-13.5043">
        <ele>58.8</ele>
        <time>2021-07-02 13:42:00</time>
      </trkpt>
      <trkpt lat="29.01668" lon="-13.50432">
        <ele>58.8</ele>
        <time>2021-07-02 13:42:01</time>
      </trkpt>
      <trkpt lat="29.0167" lon="-13.50435">
        <ele>58.8</ele>
        <time>2021-07-02 13:42:02</time>
      </trkpt>
      <trkpt lat="29.01673" lon="-13.50437">
        <ele>59.2</ele>
        <time>2021-07-02 13:42:03</time>
      </trkpt>
      <trkpt lat="29.01676" lon="-13.5044">
        <ele>59.2</ele>
        <time>2021-07-02 13:42:04</time>
      </trkpt>
      <trkpt lat="29.01679" lon="-13.50442">
        <ele>59.2</ele>
        <time>2021-07-02 13:42:05</time>
      </trkpt>
      <trkpt lat="29.01682" lon="-13.50445">
        <ele>59.4</ele>
        <time>2021-07-02 13:42:06</time>
      </trkpt>
      <trkpt lat="29.01685" lon="-13.50447">
        <ele>59.4</ele>
        <time>2021-07-02 13:42:07</time>
      </trkpt>
      <trkpt lat="29.01688" lon="-13.50449">
        <ele>59.4</ele>
        <time>2021-07-02 13:42:08</time>
      </trkpt>
      <trkpt lat="29.01691" lon="-13.50452">
        <ele>59.8</ele>
        <time>2021-07-02 13:42:09</time>
      </trkpt>
      <trkpt lat="29.01694" lon="-13.50455">
        <ele>59.8</ele>
        <time>2021-07-02 13:42:10</time>
      </trkpt>
      <trkpt lat="29.01697" lon="-13.50457">
        <ele>59.8</ele>
        <time>2021-07-02 13:42:11</time>
      </trkpt>
      <trkpt lat="29.017" lon="-13.5046">
        <ele>59.8</ele>
        <time>2021-07-02 13:42:12</time>
      </trkpt>
      <trkpt lat="29.01703" lon="-13.50462">
        <ele>59.8</ele>
        <time>2021-07-02 13:42:13</time>
      </trkpt>
      <trkpt lat="29.01706" lon="-13.50465">
        <ele>59.8</ele>
        <time>2021-07-02 13:42:14</time>
      </trkpt>
      <trkpt lat="29.0171" lon="-13.50467">
        <ele>59.8</ele>
        <time>2021-07-02 13:42:15</time>
      </trkpt>
      <trkpt lat="29.01713" lon="-13.5047">
        <ele>59.8</ele>
        <time>2021-07-02 13:42:16</time>
      </trkpt>
      <trkpt lat="29.01716" lon="-13.50473">
        <ele>59.8</ele>
        <time>2021-07-02 13:42:17</time>
      </trkpt>
      <trkpt lat="29.01719" lon="-13.50476">
        <ele>59.8</ele>
        <time>2021-07-02 13:42:18</time>
      </trkpt>
      <trkpt lat="29.01722" lon="-13.50479">
        <ele>59.8</ele>
        <time>2021-07-02 13:42:19</time>
      </trkpt>
      <trkpt lat="29.01726" lon="-13.50481">
        <ele>59.8</ele>
        <time>2021-07-02 13:42:20</time>
      </trkpt>
      <trkpt lat="29.01729" lon="-13.50484">
        <ele>59.8</ele>
        <time>2021-07-02 13:42:21</time>
      </trkpt>
      <trkpt lat="29.01732" lon="-13.50487">
        <ele>59.8</ele>
        <time>2021-07-02 13:42:22</time>
      </trkpt>
      <trkpt lat="29.01736" lon="-13.5049">
        <ele>60.2</ele>
        <time>2021-07-02 13:42:23</time>
      </trkpt>
      <trkpt lat="29.01739" lon="-13.50492">
        <ele>60.2</ele>
        <time>2021-07-02 13:42:24</time>
      </trkpt>
      <trkpt lat="29.01743" lon="-13.50495">
        <ele>60.2</ele>
        <time>2021-07-02 13:42:25</time>
      </trkpt>
      <trkpt lat="29.01746" lon="-13.50498">
        <ele>60.2</ele>
        <time>2021-07-02 13:42:26</time>
      </trkpt>
      <trkpt lat="29.0175" lon="-13.505">
        <ele>60.2</ele>
        <time>2021-07-02 13:42:27</time>
      </trkpt>
      <trkpt lat="29.01754" lon="-13.50503">
        <ele>60.4</ele>
        <time>2021-07-02 13:42:28</time>
      </trkpt>
      <trkpt lat="29.01768" lon="-13.50514">
        <ele>61.2</ele>
        <time>2021-07-02 13:42:29</time>
      </trkpt>
      <trkpt lat="29.01772" lon="-13.50516">
        <ele>61.2</ele>
        <time>2021-07-02 13:42:30</time>
      </trkpt>
      <trkpt lat="29.01775" lon="-13.50519">
        <ele>61.2</ele>
        <time>2021-07-02 13:42:31</time>
      </trkpt>
      <trkpt lat="29.01779" lon="-13.50521">
        <ele>61.2</ele>
        <time>2021-07-02 13:42:32</time>
      </trkpt>
      <trkpt lat="29.01783" lon="-13.50523">
        <ele>61.2</ele>
        <time>2021-07-02 13:42:33</time>
      </trkpt>
      <trkpt lat="29.01786" lon="-13.50526">
        <ele>61.2</ele>
        <time>2021-07-02 13:42:34</time>
      </trkpt>
      <trkpt lat="29.0179" lon="-13.50528">
        <ele>61.2</ele>
        <time>2021-07-02 13:42:35</time>
      </trkpt>
      <trkpt lat="29.01794" lon="-13.50531">
        <ele>61.2</ele>
        <time>2021-07-02 13:42:36</time>
      </trkpt>
      <trkpt lat="29.01797" lon="-13.50533">
        <ele>61.2</ele>
        <time>2021-07-02 13:42:37</time>
      </trkpt>
      <trkpt lat="29.01801" lon="-13.50535">
        <ele>61.2</ele>
        <time>2021-07-02 13:42:38</time>
      </trkpt>
      <trkpt lat="29.01805" lon="-13.50538">
        <ele>61.2</ele>
        <time>2021-07-02 13:42:39</time>
      </trkpt>
      <trkpt lat="29.01809" lon="-13.5054">
        <ele>61.4</ele>
        <time>2021-07-02 13:42:40</time>
      </trkpt>
      <trkpt lat="29.01812" lon="-13.50542">
        <ele>61.4</ele>
        <time>2021-07-02 13:42:41</time>
      </trkpt>
      <trkpt lat="29.01816" lon="-13.50545">
        <ele>61.8</ele>
        <time>2021-07-02 13:42:42</time>
      </trkpt>
      <trkpt lat="29.0182" lon="-13.50547">
        <ele>61.8</ele>
        <time>2021-07-02 13:42:43</time>
      </trkpt>
      <trkpt lat="29.01824" lon="-13.50549">
        <ele>61.8</ele>
        <time>2021-07-02 13:42:44</time>
      </trkpt>
      <trkpt lat="29.01827" lon="-13.50551">
        <ele>62.2</ele>
        <time>2021-07-02 13:42:45</time>
      </trkpt>
      <trkpt lat="29.01831" lon="-13.50554">
        <ele>62.2</ele>
        <time>2021-07-02 13:42:46</time>
      </trkpt>
      <trkpt lat="29.01839" lon="-13.50558">
        <ele>62.2</ele>
        <time>2021-07-02 13:42:47</time>
      </trkpt>
      <trkpt lat="29.01842" lon="-13.5056">
        <ele>62.4</ele>
        <time>2021-07-02 13:42:48</time>
      </trkpt>
      <trkpt lat="29.01846" lon="-13.50562">
        <ele>62.4</ele>
        <time>2021-07-02 13:42:49</time>
      </trkpt>
      <trkpt lat="29.0185" lon="-13.50565">
        <ele>62.6</ele>
        <time>2021-07-02 13:42:50</time>
      </trkpt>
      <trkpt lat="29.01853" lon="-13.50567">
        <ele>62.6</ele>
        <time>2021-07-02 13:42:51</time>
      </trkpt>
      <trkpt lat="29.01857" lon="-13.50569">
        <ele>62.6</ele>
        <time>2021-07-02 13:42:52</time>
      </trkpt>
      <trkpt lat="29.01861" lon="-13.50571">
        <ele>63</ele>
        <time>2021-07-02 13:42:53</time>
      </trkpt>
      <trkpt lat="29.01865" lon="-13.50573">
        <ele>63</ele>
        <time>2021-07-02 13:42:54</time>
      </trkpt>
      <trkpt lat="29.01868" lon="-13.50575">
        <ele>63</ele>
        <time>2021-07-02 13:42:55</time>
      </trkpt>
      <trkpt lat="29.01872" lon="-13.50577">
        <ele>63.2</ele>
        <time>2021-07-02 13:42:56</time>
      </trkpt>
      <trkpt lat="29.01876" lon="-13.5058">
        <ele>63.2</ele>
        <time>2021-07-02 13:42:57</time>
      </trkpt>
      <trkpt lat="29.01879" lon="-13.50582">
        <ele>63.4</ele>
        <time>2021-07-02 13:42:58</time>
      </trkpt>
      <trkpt lat="29.01883" lon="-13.50584">
        <ele>63.4</ele>
        <time>2021-07-02 13:42:59</time>
      </trkpt>
      <trkpt lat="29.01887" lon="-13.50586">
        <ele>63.4</ele>
        <time>2021-07-02 13:43:00</time>
      </trkpt>
      <trkpt lat="29.01891" lon="-13.50587">
        <ele>63.4</ele>
        <time>2021-07-02 13:43:01</time>
      </trkpt>
      <trkpt lat="29.01894" lon="-13.50589">
        <ele>63.4</ele>
        <time>2021-07-02 13:43:02</time>
      </trkpt>
      <trkpt lat="29.01898" lon="-13.50592">
        <ele>63.6</ele>
        <time>2021-07-02 13:43:03</time>
      </trkpt>
      <trkpt lat="29.01901" lon="-13.50593">
        <ele>63.6</ele>
        <time>2021-07-02 13:43:04</time>
      </trkpt>
      <trkpt lat="29.01904" lon="-13.50595">
        <ele>63.6</ele>
        <time>2021-07-02 13:43:05</time>
      </trkpt>
      <trkpt lat="29.01907" lon="-13.50597">
        <ele>63.6</ele>
        <time>2021-07-02 13:43:06</time>
      </trkpt>
      <trkpt lat="29.0191" lon="-13.50599">
        <ele>64</ele>
        <time>2021-07-02 13:43:07</time>
      </trkpt>
      <trkpt lat="29.01913" lon="-13.506">
        <ele>64</ele>
        <time>2021-07-02 13:43:08</time>
      </trkpt>
      <trkpt lat="29.01915" lon="-13.50601">
        <ele>64.4</ele>
        <time>2021-07-02 13:43:09</time>
      </trkpt>
      <trkpt lat="29.01918" lon="-13.50601">
        <ele>64.4</ele>
        <time>2021-07-02 13:43:10</time>
      </trkpt>
      <trkpt lat="29.0192" lon="-13.50601">
        <ele>64.4</ele>
        <time>2021-07-02 13:43:11</time>
      </trkpt>
      <trkpt lat="29.01923" lon="-13.506">
        <ele>64.4</ele>
        <time>2021-07-02 13:43:12</time>
      </trkpt>
      <trkpt lat="29.01926" lon="-13.50598">
        <ele>64.4</ele>
        <time>2021-07-02 13:43:13</time>
      </trkpt>
      <trkpt lat="29.01927" lon="-13.50596">
        <ele>64.4</ele>
        <time>2021-07-02 13:43:14</time>
      </trkpt>
      <trkpt lat="29.01929" lon="-13.50595">
        <ele>64.4</ele>
        <time>2021-07-02 13:43:15</time>
      </trkpt>
      <trkpt lat="29.01931" lon="-13.50595">
        <ele>64.4</ele>
        <time>2021-07-02 13:43:16</time>
      </trkpt>
      <trkpt lat="29.01933" lon="-13.50594">
        <ele>64.4</ele>
        <time>2021-07-02 13:43:17</time>
      </trkpt>
      <trkpt lat="29.01935" lon="-13.50593">
        <ele>64.4</ele>
        <time>2021-07-02 13:43:18</time>
      </trkpt>
      <trkpt lat="29.01937" lon="-13.50593">
        <ele>64.4</ele>
        <time>2021-07-02 13:43:19</time>
      </trkpt>
      <trkpt lat="29.0194" lon="-13.50593">
        <ele>64.4</ele>
        <time>2021-07-02 13:43:20</time>
      </trkpt>
      <trkpt lat="29.01944" lon="-13.50593">
        <ele>64</ele>
        <time>2021-07-02 13:43:21</time>
      </trkpt>
      <trkpt lat="29.01947" lon="-13.50595">
        <ele>64</ele>
        <time>2021-07-02 13:43:22</time>
      </trkpt>
      <trkpt lat="29.0195" lon="-13.50597">
        <ele>64</ele>
        <time>2021-07-02 13:43:23</time>
      </trkpt>
      <trkpt lat="29.01952" lon="-13.50598">
        <ele>64</ele>
        <time>2021-07-02 13:43:24</time>
      </trkpt>
      <trkpt lat="29.01955" lon="-13.50599">
        <ele>64</ele>
        <time>2021-07-02 13:43:25</time>
      </trkpt>
      <trkpt lat="29.01958" lon="-13.50599">
        <ele>63.8</ele>
        <time>2021-07-02 13:43:26</time>
      </trkpt>
      <trkpt lat="29.0196" lon="-13.50599">
        <ele>63.8</ele>
        <time>2021-07-02 13:43:27</time>
      </trkpt>
      <trkpt lat="29.01962" lon="-13.50599">
        <ele>63.8</ele>
        <time>2021-07-02 13:43:28</time>
      </trkpt>
      <trkpt lat="29.01965" lon="-13.506">
        <ele>63.8</ele>
        <time>2021-07-02 13:43:29</time>
      </trkpt>
      <trkpt lat="29.01967" lon="-13.50602">
        <ele>63.8</ele>
        <time>2021-07-02 13:43:30</time>
      </trkpt>
      <trkpt lat="29.0197" lon="-13.50604">
        <ele>63.8</ele>
        <time>2021-07-02 13:43:31</time>
      </trkpt>
      <trkpt lat="29.01972" lon="-13.50606">
        <ele>63.8</ele>
        <time>2021-07-02 13:43:32</time>
      </trkpt>
      <trkpt lat="29.01975" lon="-13.50607">
        <ele>64.2</ele>
        <time>2021-07-02 13:43:33</time>
      </trkpt>
      <trkpt lat="29.01977" lon="-13.50609">
        <ele>64.2</ele>
        <time>2021-07-02 13:43:34</time>
      </trkpt>
      <trkpt lat="29.0198" lon="-13.5061">
        <ele>64.4</ele>
        <time>2021-07-02 13:43:35</time>
      </trkpt>
      <trkpt lat="29.01983" lon="-13.50611">
        <ele>64.4</ele>
        <time>2021-07-02 13:43:36</time>
      </trkpt>
      <trkpt lat="29.01986" lon="-13.50612">
        <ele>64.6</ele>
        <time>2021-07-02 13:43:37</time>
      </trkpt>
      <trkpt lat="29.01989" lon="-13.50613">
        <ele>64.6</ele>
        <time>2021-07-02 13:43:38</time>
      </trkpt>
      <trkpt lat="29.01991" lon="-13.50614">
        <ele>65</ele>
        <time>2021-07-02 13:43:39</time>
      </trkpt>
      <trkpt lat="29.01994" lon="-13.50615">
        <ele>65</ele>
        <time>2021-07-02 13:43:40</time>
      </trkpt>
      <trkpt lat="29.01996" lon="-13.50615">
        <ele>65.2</ele>
        <time>2021-07-02 13:43:41</time>
      </trkpt>
      <trkpt lat="29.01999" lon="-13.50616">
        <ele>65.2</ele>
        <time>2021-07-02 13:43:42</time>
      </trkpt>
      <trkpt lat="29.02001" lon="-13.50616">
        <ele>65.4</ele>
        <time>2021-07-02 13:43:43</time>
      </trkpt>
      <trkpt lat="29.02002" lon="-13.50616">
        <ele>65.4</ele>
        <time>2021-07-02 13:43:44</time>
      </trkpt>
      <trkpt lat="29.02002" lon="-13.50616">
        <ele>65.4</ele>
        <time>2021-07-02 13:43:45</time>
      </trkpt>
      <trkpt lat="29.02003" lon="-13.50616">
        <ele>65.6</ele>
        <time>2021-07-02 13:43:46</time>
      </trkpt>
      <trkpt lat="29.02004" lon="-13.50616">
        <ele>65.6</ele>
        <time>2021-07-02 13:43:47</time>
      </trkpt>
      <trkpt lat="29.02004" lon="-13.50616">
        <ele>65.6</ele>
        <time>2021-07-02 13:43:48</time>
      </trkpt>
      <trkpt lat="29.02004" lon="-13.50615">
        <ele>65.6</ele>
        <time>2021-07-02 13:43:49</time>
      </trkpt>
      <trkpt lat="29.02005" lon="-13.50615">
        <ele>66.2</ele>
        <time>2021-07-02 13:43:50</time>
      </trkpt>
      <trkpt lat="29.02006" lon="-13.50615">
        <ele>66.2</ele>
        <time>2021-07-02 13:43:51</time>
      </trkpt>
      <trkpt lat="29.02006" lon="-13.50614">
        <ele>66.2</ele>
        <time>2021-07-02 13:43:52</time>
      </trkpt>
      <trkpt lat="29.02007" lon="-13.50614">
        <ele>66.2</ele>
        <time>2021-07-02 13:43:53</time>
      </trkpt>
      <trkpt lat="29.02007" lon="-13.50614">
        <ele>66.6</ele>
        <time>2021-07-02 13:43:54</time>
      </trkpt>
      <trkpt lat="29.02007" lon="-13.50614">
        <ele>66.6</ele>
        <time>2021-07-02 13:43:55</time>
      </trkpt>
      <trkpt lat="29.02008" lon="-13.50614">
        <ele>67</ele>
        <time>2021-07-02 13:43:56</time>
      </trkpt>
      <trkpt lat="29.02009" lon="-13.50614">
        <ele>67</ele>
        <time>2021-07-02 13:43:57</time>
      </trkpt>
      <trkpt lat="29.02009" lon="-13.50614">
        <ele>67.2</ele>
        <time>2021-07-02 13:43:58</time>
      </trkpt>
      <trkpt lat="29.0201" lon="-13.50614">
        <ele>67.2</ele>
        <time>2021-07-02 13:43:59</time>
      </trkpt>
      <trkpt lat="29.0201" lon="-13.50614">
        <ele>67.2</ele>
        <time>2021-07-02 13:44:00</time>
      </trkpt>
      <trkpt lat="29.0201" lon="-13.50614">
        <ele>67.2</ele>
        <time>2021-07-02 13:44:01</time>
      </trkpt>
      <trkpt lat="29.0201" lon="-13.50614">
        <ele>66.8</ele>
        <time>2021-07-02 13:44:02</time>
      </trkpt>
      <trkpt lat="29.02011" lon="-13.50614">
        <ele>66.8</ele>
        <time>2021-07-02 13:44:03</time>
      </trkpt>
      <trkpt lat="29.02011" lon="-13.50614">
        <ele>67</ele>
        <time>2021-07-02 13:44:04</time>
      </trkpt>
      <trkpt lat="29.02012" lon="-13.50614">
        <ele>67.2</ele>
        <time>2021-07-02 13:44:05</time>
      </trkpt>
      <trkpt lat="29.02013" lon="-13.50614">
        <ele>67.2</ele>
        <time>2021-07-02 13:44:06</time>
      </trkpt>
      <trkpt lat="29.02014" lon="-13.50614">
        <ele>67.6</ele>
        <time>2021-07-02 13:44:07</time>
      </trkpt>
      <trkpt lat="29.02015" lon="-13.50614">
        <ele>67.8</ele>
        <time>2021-07-02 13:44:08</time>
      </trkpt>
      <trkpt lat="29.02016" lon="-13.50614">
        <ele>67.8</ele>
        <time>2021-07-02 13:44:09</time>
      </trkpt>
      <trkpt lat="29.02016" lon="-13.50613">
        <ele>68.2</ele>
        <time>2021-07-02 13:44:10</time>
      </trkpt>
      <trkpt lat="29.02017" lon="-13.50613">
        <ele>68.2</ele>
        <time>2021-07-02 13:44:11</time>
      </trkpt>
      <trkpt lat="29.02017" lon="-13.50613">
        <ele>68.6</ele>
        <time>2021-07-02 13:44:12</time>
      </trkpt>
      <trkpt lat="29.02017" lon="-13.50613">
        <ele>68.6</ele>
        <time>2021-07-02 13:44:13</time>
      </trkpt>
      <trkpt lat="29.02018" lon="-13.50613">
        <ele>68.8</ele>
        <time>2021-07-02 13:44:14</time>
      </trkpt>
      <trkpt lat="29.02018" lon="-13.50613">
        <ele>68.8</ele>
        <time>2021-07-02 13:44:15</time>
      </trkpt>
      <trkpt lat="29.02018" lon="-13.50613">
        <ele>69.2</ele>
        <time>2021-07-02 13:44:16</time>
      </trkpt>
      <trkpt lat="29.02018" lon="-13.50613">
        <ele>69.2</ele>
        <time>2021-07-02 13:44:17</time>
      </trkpt>
      <trkpt lat="29.02019" lon="-13.50613">
        <ele>69.6</ele>
        <time>2021-07-02 13:44:22</time>
      </trkpt>
      <trkpt lat="29.0202" lon="-13.50613">
        <ele>69.6</ele>
        <time>2021-07-02 13:44:23</time>
      </trkpt>
      <trkpt lat="29.02021" lon="-13.50613">
        <ele>69.6</ele>
        <time>2021-07-02 13:44:24</time>
      </trkpt>
      <trkpt lat="29.02022" lon="-13.50613">
        <ele>69.6</ele>
        <time>2021-07-02 13:44:25</time>
      </trkpt>
      <trkpt lat="29.02024" lon="-13.50613">
        <ele>69.6</ele>
        <time>2021-07-02 13:44:26</time>
      </trkpt>
      <trkpt lat="29.02026" lon="-13.50613">
        <ele>69.6</ele>
        <time>2021-07-02 13:44:27</time>
      </trkpt>
      <trkpt lat="29.02028" lon="-13.50614">
        <ele>69.6</ele>
        <time>2021-07-02 13:44:28</time>
      </trkpt>
      <trkpt lat="29.0203" lon="-13.50614">
        <ele>69.6</ele>
        <time>2021-07-02 13:44:29</time>
      </trkpt>
      <trkpt lat="29.02031" lon="-13.50615">
        <ele>69.6</ele>
        <time>2021-07-02 13:44:30</time>
      </trkpt>
      <trkpt lat="29.02033" lon="-13.50615">
        <ele>69.6</ele>
        <time>2021-07-02 13:44:31</time>
      </trkpt>
      <trkpt lat="29.02035" lon="-13.50615">
        <ele>69.6</ele>
        <time>2021-07-02 13:44:32</time>
      </trkpt>
      <trkpt lat="29.02036" lon="-13.50615">
        <ele>69.6</ele>
        <time>2021-07-02 13:44:33</time>
      </trkpt>
      <trkpt lat="29.02037" lon="-13.50615">
        <ele>69.6</ele>
        <time>2021-07-02 13:47:40</time>
      </trkpt>
      <trkpt lat="29.02039" lon="-13.50615">
        <ele>69.6</ele>
        <time>2021-07-02 13:47:41</time>
      </trkpt>
      <trkpt lat="29.02041" lon="-13.50615">
        <ele>69.8</ele>
        <time>2021-07-02 13:47:42</time>
      </trkpt>
      <trkpt lat="29.02043" lon="-13.50615">
        <ele>69.8</ele>
        <time>2021-07-02 13:47:43</time>
      </trkpt>
      <trkpt lat="29.02045" lon="-13.50615">
        <ele>70.2</ele>
        <time>2021-07-02 13:47:44</time>
      </trkpt>
      <trkpt lat="29.02047" lon="-13.50615">
        <ele>70.2</ele>
        <time>2021-07-02 13:47:45</time>
      </trkpt>
      <trkpt lat="29.02048" lon="-13.50615">
        <ele>70.2</ele>
        <time>2021-07-02 13:47:46</time>
      </trkpt>
      <trkpt lat="29.0205" lon="-13.50615">
        <ele>70.2</ele>
        <time>2021-07-02 13:47:47</time>
      </trkpt>
      <trkpt lat="29.02052" lon="-13.50615">
        <ele>70.2</ele>
        <time>2021-07-02 13:47:48</time>
      </trkpt>
      <trkpt lat="29.02054" lon="-13.50615">
        <ele>70.2</ele>
        <time>2021-07-02 13:47:49</time>
      </trkpt>
      <trkpt lat="29.02056" lon="-13.50614">
        <ele>70.2</ele>
        <time>2021-07-02 13:47:50</time>
      </trkpt>
      <trkpt lat="29.02058" lon="-13.50614">
        <ele>70.2</ele>
        <time>2021-07-02 13:47:51</time>
      </trkpt>
      <trkpt lat="29.0206" lon="-13.50614">
        <ele>70.4</ele>
        <time>2021-07-02 13:47:52</time>
      </trkpt>
      <trkpt lat="29.02061" lon="-13.50614">
        <ele>70.4</ele>
        <time>2021-07-02 13:47:53</time>
      </trkpt>
      <trkpt lat="29.02063" lon="-13.50613">
        <ele>70.8</ele>
        <time>2021-07-02 13:47:54</time>
      </trkpt>
      <trkpt lat="29.02065" lon="-13.50613">
        <ele>71.2</ele>
        <time>2021-07-02 13:47:55</time>
      </trkpt>
      <trkpt lat="29.02067" lon="-13.50613">
        <ele>71.2</ele>
        <time>2021-07-02 13:47:56</time>
      </trkpt>
      <trkpt lat="29.02069" lon="-13.50612">
        <ele>71.2</ele>
        <time>2021-07-02 13:47:57</time>
      </trkpt>
      <trkpt lat="29.0207" lon="-13.50612">
        <ele>71.4</ele>
        <time>2021-07-02 13:47:58</time>
      </trkpt>
      <trkpt lat="29.02072" lon="-13.50612">
        <ele>71.4</ele>
        <time>2021-07-02 13:47:59</time>
      </trkpt>
      <trkpt lat="29.02074" lon="-13.50612">
        <ele>71.6</ele>
        <time>2021-07-02 13:48:00</time>
      </trkpt>
      <trkpt lat="29.02076" lon="-13.50611">
        <ele>71.6</ele>
        <time>2021-07-02 13:48:01</time>
      </trkpt>
      <trkpt lat="29.02077" lon="-13.50611">
        <ele>71.8</ele>
        <time>2021-07-02 13:48:02</time>
      </trkpt>
      <trkpt lat="29.02079" lon="-13.50611">
        <ele>71.8</ele>
        <time>2021-07-02 13:48:03</time>
      </trkpt>
      <trkpt lat="29.02081" lon="-13.50611">
        <ele>72</ele>
        <time>2021-07-02 13:48:04</time>
      </trkpt>
      <trkpt lat="29.02083" lon="-13.50611">
        <ele>72</ele>
        <time>2021-07-02 13:48:05</time>
      </trkpt>
      <trkpt lat="29.02084" lon="-13.50611">
        <ele>72</ele>
        <time>2021-07-02 13:48:06</time>
      </trkpt>
      <trkpt lat="29.02085" lon="-13.50611">
        <ele>72.4</ele>
        <time>2021-07-02 13:48:07</time>
      </trkpt>
      <trkpt lat="29.02087" lon="-13.50611">
        <ele>72.4</ele>
        <time>2021-07-02 13:48:08</time>
      </trkpt>
      <trkpt lat="29.02089" lon="-13.5061">
        <ele>72.8</ele>
        <time>2021-07-02 13:48:09</time>
      </trkpt>
      <trkpt lat="29.0209" lon="-13.5061">
        <ele>72.8</ele>
        <time>2021-07-02 13:48:10</time>
      </trkpt>
      <trkpt lat="29.02092" lon="-13.5061">
        <ele>73</ele>
        <time>2021-07-02 13:48:11</time>
      </trkpt>
      <trkpt lat="29.02095" lon="-13.50609">
        <ele>73</ele>
        <time>2021-07-02 13:48:12</time>
      </trkpt>
      <trkpt lat="29.02097" lon="-13.50609">
        <ele>73</ele>
        <time>2021-07-02 13:48:13</time>
      </trkpt>
      <trkpt lat="29.02099" lon="-13.50608">
        <ele>73</ele>
        <time>2021-07-02 13:48:14</time>
      </trkpt>
      <trkpt lat="29.02101" lon="-13.50607">
        <ele>73.2</ele>
        <time>2021-07-02 13:48:15</time>
      </trkpt>
      <trkpt lat="29.02103" lon="-13.50606">
        <ele>73.2</ele>
        <time>2021-07-02 13:48:16</time>
      </trkpt>
      <trkpt lat="29.02104" lon="-13.50605">
        <ele>73.2</ele>
        <time>2021-07-02 13:48:17</time>
      </trkpt>
      <trkpt lat="29.02106" lon="-13.50604">
        <ele>73.2</ele>
        <time>2021-07-02 13:48:18</time>
      </trkpt>
      <trkpt lat="29.02108" lon="-13.50604">
        <ele>73.4</ele>
        <time>2021-07-02 13:48:19</time>
      </trkpt>
      <trkpt lat="29.0211" lon="-13.50603">
        <ele>73.4</ele>
        <time>2021-07-02 13:48:20</time>
      </trkpt>
      <trkpt lat="29.02111" lon="-13.50603">
        <ele>73.4</ele>
        <time>2021-07-02 13:48:21</time>
      </trkpt>
      <trkpt lat="29.02113" lon="-13.50602">
        <ele>73.6</ele>
        <time>2021-07-02 13:48:22</time>
      </trkpt>
      <trkpt lat="29.02116" lon="-13.50601">
        <ele>73.6</ele>
        <time>2021-07-02 13:48:23</time>
      </trkpt>
      <trkpt lat="29.02118" lon="-13.506">
        <ele>73.6</ele>
        <time>2021-07-02 13:48:24</time>
      </trkpt>
      <trkpt lat="29.0212" lon="-13.50599">
        <ele>74</ele>
        <time>2021-07-02 13:48:25</time>
      </trkpt>
      <trkpt lat="29.02122" lon="-13.50599">
        <ele>74</ele>
        <time>2021-07-02 13:48:26</time>
      </trkpt>
      <trkpt lat="29.02124" lon="-13.50598">
        <ele>74</ele>
        <time>2021-07-02 13:48:27</time>
      </trkpt>
      <trkpt lat="29.02126" lon="-13.50597">
        <ele>74.2</ele>
        <time>2021-07-02 13:48:28</time>
      </trkpt>
      <trkpt lat="29.02128" lon="-13.50596">
        <ele>74.2</ele>
        <time>2021-07-02 13:48:29</time>
      </trkpt>
      <trkpt lat="29.0213" lon="-13.50595">
        <ele>74.2</ele>
        <time>2021-07-02 13:48:30</time>
      </trkpt>
      <trkpt lat="29.02132" lon="-13.50594">
        <ele>74.6</ele>
        <time>2021-07-02 13:48:31</time>
      </trkpt>
      <trkpt lat="29.02134" lon="-13.50593">
        <ele>74.8</ele>
        <time>2021-07-02 13:48:32</time>
      </trkpt>
      <trkpt lat="29.02136" lon="-13.50592">
        <ele>75</ele>
        <time>2021-07-02 13:48:33</time>
      </trkpt>
      <trkpt lat="29.02138" lon="-13.50591">
        <ele>75</ele>
        <time>2021-07-02 13:48:34</time>
      </trkpt>
      <trkpt lat="29.02141" lon="-13.5059">
        <ele>75.2</ele>
        <time>2021-07-02 13:48:35</time>
      </trkpt>
      <trkpt lat="29.02143" lon="-13.50589">
        <ele>75.2</ele>
        <time>2021-07-02 13:48:36</time>
      </trkpt>
      <trkpt lat="29.02145" lon="-13.50588">
        <ele>75.4</ele>
        <time>2021-07-02 13:48:37</time>
      </trkpt>
      <trkpt lat="29.02147" lon="-13.50587">
        <ele>75.4</ele>
        <time>2021-07-02 13:48:38</time>
      </trkpt>
      <trkpt lat="29.02149" lon="-13.50586">
        <ele>75.4</ele>
        <time>2021-07-02 13:48:39</time>
      </trkpt>
      <trkpt lat="29.02151" lon="-13.50584">
        <ele>75.8</ele>
        <time>2021-07-02 13:48:40</time>
      </trkpt>
      <trkpt lat="29.02154" lon="-13.50583">
        <ele>75.8</ele>
        <time>2021-07-02 13:48:41</time>
      </trkpt>
      <trkpt lat="29.02155" lon="-13.50582">
        <ele>76</ele>
        <time>2021-07-02 13:48:42</time>
      </trkpt>
      <trkpt lat="29.02157" lon="-13.50581">
        <ele>76</ele>
        <time>2021-07-02 13:48:43</time>
      </trkpt>
      <trkpt lat="29.02159" lon="-13.5058">
        <ele>76.4</ele>
        <time>2021-07-02 13:48:44</time>
      </trkpt>
      <trkpt lat="29.02161" lon="-13.50579">
        <ele>76.4</ele>
        <time>2021-07-02 13:48:45</time>
      </trkpt>
      <trkpt lat="29.02162" lon="-13.50578">
        <ele>76.8</ele>
        <time>2021-07-02 13:48:46</time>
      </trkpt>
      <trkpt lat="29.02164" lon="-13.50577">
        <ele>76.8</ele>
        <time>2021-07-02 13:48:47</time>
      </trkpt>
      <trkpt lat="29.02166" lon="-13.50577">
        <ele>77</ele>
        <time>2021-07-02 13:48:48</time>
      </trkpt>
      <trkpt lat="29.02168" lon="-13.50576">
        <ele>77</ele>
        <time>2021-07-02 13:48:49</time>
      </trkpt>
      <trkpt lat="29.02171" lon="-13.50575">
        <ele>77.2</ele>
        <time>2021-07-02 13:48:50</time>
      </trkpt>
      <trkpt lat="29.02173" lon="-13.50574">
        <ele>77.2</ele>
        <time>2021-07-02 13:48:51</time>
      </trkpt>
      <trkpt lat="29.02175" lon="-13.50574">
        <ele>77.4</ele>
        <time>2021-07-02 13:48:52</time>
      </trkpt>
      <trkpt lat="29.02178" lon="-13.50573">
        <ele>77.4</ele>
        <time>2021-07-02 13:48:53</time>
      </trkpt>
      <trkpt lat="29.0218" lon="-13.50573">
        <ele>77.4</ele>
        <time>2021-07-02 13:48:54</time>
      </trkpt>
      <trkpt lat="29.02182" lon="-13.50572">
        <ele>77.4</ele>
        <time>2021-07-02 13:48:55</time>
      </trkpt>
      <trkpt lat="29.02185" lon="-13.50572">
        <ele>77.4</ele>
        <time>2021-07-02 13:48:56</time>
      </trkpt>
      <trkpt lat="29.02187" lon="-13.50571">
        <ele>77.6</ele>
        <time>2021-07-02 13:48:57</time>
      </trkpt>
      <trkpt lat="29.02188" lon="-13.50571">
        <ele>77.6</ele>
        <time>2021-07-02 13:48:58</time>
      </trkpt>
      <trkpt lat="29.0219" lon="-13.5057">
        <ele>77.6</ele>
        <time>2021-07-02 13:48:59</time>
      </trkpt>
      <trkpt lat="29.02192" lon="-13.50569">
        <ele>77.6</ele>
        <time>2021-07-02 13:49:00</time>
      </trkpt>
      <trkpt lat="29.02194" lon="-13.50568">
        <ele>77.6</ele>
        <time>2021-07-02 13:49:01</time>
      </trkpt>
      <trkpt lat="29.02196" lon="-13.50566">
        <ele>77.6</ele>
        <time>2021-07-02 13:49:02</time>
      </trkpt>
      <trkpt lat="29.02198" lon="-13.50565">
        <ele>77.8</ele>
        <time>2021-07-02 13:49:03</time>
      </trkpt>
      <trkpt lat="29.022" lon="-13.50563">
        <ele>77.8</ele>
        <time>2021-07-02 13:49:04</time>
      </trkpt>
      <trkpt lat="29.02201" lon="-13.50562">
        <ele>77.8</ele>
        <time>2021-07-02 13:49:05</time>
      </trkpt>
      <trkpt lat="29.02203" lon="-13.5056">
        <ele>78.2</ele>
        <time>2021-07-02 13:49:06</time>
      </trkpt>
      <trkpt lat="29.02204" lon="-13.50558">
        <ele>78.2</ele>
        <time>2021-07-02 13:49:07</time>
      </trkpt>
      <trkpt lat="29.02206" lon="-13.50556">
        <ele>78.2</ele>
        <time>2021-07-02 13:49:08</time>
      </trkpt>
      <trkpt lat="29.02208" lon="-13.50555">
        <ele>78.2</ele>
        <time>2021-07-02 13:49:09</time>
      </trkpt>
      <trkpt lat="29.02209" lon="-13.50553">
        <ele>78.2</ele>
        <time>2021-07-02 13:49:10</time>
      </trkpt>
      <trkpt lat="29.02211" lon="-13.50551">
        <ele>78.2</ele>
        <time>2021-07-02 13:49:11</time>
      </trkpt>
      <trkpt lat="29.02213" lon="-13.50549">
        <ele>78.4</ele>
        <time>2021-07-02 13:49:12</time>
      </trkpt>
      <trkpt lat="29.02215" lon="-13.50547">
        <ele>78.4</ele>
        <time>2021-07-02 13:49:13</time>
      </trkpt>
      <trkpt lat="29.02217" lon="-13.50545">
        <ele>78.4</ele>
        <time>2021-07-02 13:49:14</time>
      </trkpt>
      <trkpt lat="29.02219" lon="-13.50543">
        <ele>78.4</ele>
        <time>2021-07-02 13:49:15</time>
      </trkpt>
      <trkpt lat="29.02221" lon="-13.50542">
        <ele>78.2</ele>
        <time>2021-07-02 13:49:16</time>
      </trkpt>
      <trkpt lat="29.02223" lon="-13.50541">
        <ele>78.2</ele>
        <time>2021-07-02 13:49:17</time>
      </trkpt>
      <trkpt lat="29.02224" lon="-13.5054">
        <ele>78.2</ele>
        <time>2021-07-02 13:49:18</time>
      </trkpt>
      <trkpt lat="29.02226" lon="-13.50539">
        <ele>78.2</ele>
        <time>2021-07-02 13:49:19</time>
      </trkpt>
      <trkpt lat="29.02227" lon="-13.50539">
        <ele>78.2</ele>
        <time>2021-07-02 13:49:20</time>
      </trkpt>
      <trkpt lat="29.02229" lon="-13.50538">
        <ele>78.2</ele>
        <time>2021-07-02 13:49:21</time>
      </trkpt>
      <trkpt lat="29.02231" lon="-13.50537">
        <ele>78.2</ele>
        <time>2021-07-02 13:49:22</time>
      </trkpt>
      <trkpt lat="29.02233" lon="-13.50536">
        <ele>78.2</ele>
        <time>2021-07-02 13:49:23</time>
      </trkpt>
      <trkpt lat="29.02235" lon="-13.50534">
        <ele>78.2</ele>
        <time>2021-07-02 13:49:24</time>
      </trkpt>
      <trkpt lat="29.02238" lon="-13.50533">
        <ele>78.2</ele>
        <time>2021-07-02 13:49:25</time>
      </trkpt>
      <trkpt lat="29.0224" lon="-13.50532">
        <ele>78.4</ele>
        <time>2021-07-02 13:49:26</time>
      </trkpt>
      <trkpt lat="29.02241" lon="-13.50531">
        <ele>78.4</ele>
        <time>2021-07-02 13:49:27</time>
      </trkpt>
      <trkpt lat="29.02243" lon="-13.5053">
        <ele>78.6</ele>
        <time>2021-07-02 13:49:28</time>
      </trkpt>
      <trkpt lat="29.02245" lon="-13.50529">
        <ele>78.6</ele>
        <time>2021-07-02 13:49:29</time>
      </trkpt>
      <trkpt lat="29.02247" lon="-13.50528">
        <ele>78.6</ele>
        <time>2021-07-02 13:49:30</time>
      </trkpt>
      <trkpt lat="29.02249" lon="-13.50527">
        <ele>78.8</ele>
        <time>2021-07-02 13:49:31</time>
      </trkpt>
      <trkpt lat="29.02251" lon="-13.50525">
        <ele>78.8</ele>
        <time>2021-07-02 13:49:32</time>
      </trkpt>
      <trkpt lat="29.02252" lon="-13.50524">
        <ele>78.8</ele>
        <time>2021-07-02 13:49:33</time>
      </trkpt>
      <trkpt lat="29.02254" lon="-13.50522">
        <ele>78.8</ele>
        <time>2021-07-02 13:49:34</time>
      </trkpt>
      <trkpt lat="29.02256" lon="-13.50521">
        <ele>78.8</ele>
        <time>2021-07-02 13:49:35</time>
      </trkpt>
      <trkpt lat="29.02258" lon="-13.5052">
        <ele>78.8</ele>
        <time>2021-07-02 13:49:36</time>
      </trkpt>
      <trkpt lat="29.02259" lon="-13.50518">
        <ele>79.2</ele>
        <time>2021-07-02 13:49:37</time>
      </trkpt>
      <trkpt lat="29.02261" lon="-13.50517">
        <ele>79.2</ele>
        <time>2021-07-02 13:49:38</time>
      </trkpt>
      <trkpt lat="29.02263" lon="-13.50515">
        <ele>79.4</ele>
        <time>2021-07-02 13:49:39</time>
      </trkpt>
      <trkpt lat="29.02264" lon="-13.50514">
        <ele>79.4</ele>
        <time>2021-07-02 13:49:40</time>
      </trkpt>
      <trkpt lat="29.02266" lon="-13.50513">
        <ele>79.8</ele>
        <time>2021-07-02 13:49:41</time>
      </trkpt>
      <trkpt lat="29.02268" lon="-13.50512">
        <ele>79.8</ele>
        <time>2021-07-02 13:49:42</time>
      </trkpt>
      <trkpt lat="29.0227" lon="-13.50511">
        <ele>80</ele>
        <time>2021-07-02 13:49:43</time>
      </trkpt>
      <trkpt lat="29.02272" lon="-13.5051">
        <ele>80</ele>
        <time>2021-07-02 13:49:44</time>
      </trkpt>
      <trkpt lat="29.02274" lon="-13.50509">
        <ele>80.2</ele>
        <time>2021-07-02 13:49:45</time>
      </trkpt>
      <trkpt lat="29.02276" lon="-13.50508">
        <ele>80.2</ele>
        <time>2021-07-02 13:49:46</time>
      </trkpt>
      <trkpt lat="29.02277" lon="-13.50507">
        <ele>80.2</ele>
        <time>2021-07-02 13:49:47</time>
      </trkpt>
      <trkpt lat="29.02278" lon="-13.50505">
        <ele>80.6</ele>
        <time>2021-07-02 13:49:48</time>
      </trkpt>
      <trkpt lat="29.0228" lon="-13.50504">
        <ele>80.6</ele>
        <time>2021-07-02 13:49:49</time>
      </trkpt>
      <trkpt lat="29.02281" lon="-13.50502">
        <ele>80.6</ele>
        <time>2021-07-02 13:49:50</time>
      </trkpt>
      <trkpt lat="29.02283" lon="-13.50501">
        <ele>80.8</ele>
        <time>2021-07-02 13:49:51</time>
      </trkpt>
      <trkpt lat="29.02284" lon="-13.50499">
        <ele>80.8</ele>
        <time>2021-07-02 13:49:52</time>
      </trkpt>
      <trkpt lat="29.02286" lon="-13.50497">
        <ele>81.2</ele>
        <time>2021-07-02 13:49:53</time>
      </trkpt>
      <trkpt lat="29.02287" lon="-13.50496">
        <ele>81.2</ele>
        <time>2021-07-02 13:49:54</time>
      </trkpt>
      <trkpt lat="29.02288" lon="-13.50494">
        <ele>81.4</ele>
        <time>2021-07-02 13:49:55</time>
      </trkpt>
      <trkpt lat="29.02289" lon="-13.50491">
        <ele>81.4</ele>
        <time>2021-07-02 13:49:56</time>
      </trkpt>
      <trkpt lat="29.02289" lon="-13.50489">
        <ele>81.4</ele>
        <time>2021-07-02 13:49:57</time>
      </trkpt>
      <trkpt lat="29.0229" lon="-13.50487">
        <ele>81.4</ele>
        <time>2021-07-02 13:49:58</time>
      </trkpt>
      <trkpt lat="29.0229" lon="-13.50485">
        <ele>81.4</ele>
        <time>2021-07-02 13:49:59</time>
      </trkpt>
      <trkpt lat="29.02291" lon="-13.50483">
        <ele>81.4</ele>
        <time>2021-07-02 13:50:00</time>
      </trkpt>
      <trkpt lat="29.02292" lon="-13.5048">
        <ele>81.6</ele>
        <time>2021-07-02 13:50:01</time>
      </trkpt>
      <trkpt lat="29.02293" lon="-13.50479">
        <ele>81.6</ele>
        <time>2021-07-02 13:50:02</time>
      </trkpt>
      <trkpt lat="29.02293" lon="-13.50477">
        <ele>81.6</ele>
        <time>2021-07-02 13:50:03</time>
      </trkpt>
      <trkpt lat="29.02294" lon="-13.50475">
        <ele>81.8</ele>
        <time>2021-07-02 13:50:04</time>
      </trkpt>
      <trkpt lat="29.02295" lon="-13.50473">
        <ele>81.8</ele>
        <time>2021-07-02 13:50:05</time>
      </trkpt>
      <trkpt lat="29.02296" lon="-13.50471">
        <ele>82.2</ele>
        <time>2021-07-02 13:50:06</time>
      </trkpt>
      <trkpt lat="29.02298" lon="-13.50469">
        <ele>82.2</ele>
        <time>2021-07-02 13:50:07</time>
      </trkpt>
      <trkpt lat="29.02299" lon="-13.50467">
        <ele>82.4</ele>
        <time>2021-07-02 13:50:08</time>
      </trkpt>
      <trkpt lat="29.02301" lon="-13.50465">
        <ele>82.4</ele>
        <time>2021-07-02 13:50:09</time>
      </trkpt>
      <trkpt lat="29.02302" lon="-13.50463">
        <ele>82.4</ele>
        <time>2021-07-02 13:50:10</time>
      </trkpt>
      <trkpt lat="29.02303" lon="-13.50461">
        <ele>82.6</ele>
        <time>2021-07-02 13:50:11</time>
      </trkpt>
      <trkpt lat="29.02305" lon="-13.50458">
        <ele>82.6</ele>
        <time>2021-07-02 13:50:12</time>
      </trkpt>
      <trkpt lat="29.02306" lon="-13.50456">
        <ele>83</ele>
        <time>2021-07-02 13:50:13</time>
      </trkpt>
      <trkpt lat="29.02308" lon="-13.50455">
        <ele>83</ele>
        <time>2021-07-02 13:50:14</time>
      </trkpt>
      <trkpt lat="29.0231" lon="-13.50453">
        <ele>83.2</ele>
        <time>2021-07-02 13:50:15</time>
      </trkpt>
      <trkpt lat="29.02312" lon="-13.50451">
        <ele>83.2</ele>
        <time>2021-07-02 13:50:16</time>
      </trkpt>
      <trkpt lat="29.02313" lon="-13.5045">
        <ele>83.6</ele>
        <time>2021-07-02 13:50:17</time>
      </trkpt>
      <trkpt lat="29.02315" lon="-13.50448">
        <ele>83.8</ele>
        <time>2021-07-02 13:50:18</time>
      </trkpt>
      <trkpt lat="29.02317" lon="-13.50446">
        <ele>83.8</ele>
        <time>2021-07-02 13:50:19</time>
      </trkpt>
      <trkpt lat="29.02318" lon="-13.50445">
        <ele>84.2</ele>
        <time>2021-07-02 13:50:20</time>
      </trkpt>
      <trkpt lat="29.0232" lon="-13.50443">
        <ele>84.4</ele>
        <time>2021-07-02 13:50:21</time>
      </trkpt>
      <trkpt lat="29.02322" lon="-13.50441">
        <ele>84.4</ele>
        <time>2021-07-02 13:50:22</time>
      </trkpt>
      <trkpt lat="29.02324" lon="-13.5044">
        <ele>84.4</ele>
        <time>2021-07-02 13:50:23</time>
      </trkpt>
      <trkpt lat="29.02325" lon="-13.50438">
        <ele>84.6</ele>
        <time>2021-07-02 13:50:24</time>
      </trkpt>
      <trkpt lat="29.02327" lon="-13.50436">
        <ele>84.6</ele>
        <time>2021-07-02 13:50:25</time>
      </trkpt>
      <trkpt lat="29.02328" lon="-13.50434">
        <ele>85</ele>
        <time>2021-07-02 13:50:26</time>
      </trkpt>
      <trkpt lat="29.0233" lon="-13.50433">
        <ele>85</ele>
        <time>2021-07-02 13:50:27</time>
      </trkpt>
      <trkpt lat="29.02332" lon="-13.50431">
        <ele>85.2</ele>
        <time>2021-07-02 13:50:28</time>
      </trkpt>
      <trkpt lat="29.02334" lon="-13.5043">
        <ele>85.6</ele>
        <time>2021-07-02 13:50:29</time>
      </trkpt>
      <trkpt lat="29.02335" lon="-13.50429">
        <ele>85.6</ele>
        <time>2021-07-02 13:50:30</time>
      </trkpt>
      <trkpt lat="29.02337" lon="-13.50428">
        <ele>85.8</ele>
        <time>2021-07-02 13:50:31</time>
      </trkpt>
      <trkpt lat="29.02338" lon="-13.50427">
        <ele>86</ele>
        <time>2021-07-02 13:50:32</time>
      </trkpt>
      <trkpt lat="29.0234" lon="-13.50426">
        <ele>86.4</ele>
        <time>2021-07-02 13:50:33</time>
      </trkpt>
      <trkpt lat="29.02342" lon="-13.50425">
        <ele>86.4</ele>
        <time>2021-07-02 13:50:34</time>
      </trkpt>
      <trkpt lat="29.02344" lon="-13.50423">
        <ele>86.6</ele>
        <time>2021-07-02 13:50:35</time>
      </trkpt>
      <trkpt lat="29.02346" lon="-13.50422">
        <ele>86.6</ele>
        <time>2021-07-02 13:50:36</time>
      </trkpt>
      <trkpt lat="29.02347" lon="-13.50421">
        <ele>87</ele>
        <time>2021-07-02 13:50:37</time>
      </trkpt>
      <trkpt lat="29.02349" lon="-13.5042">
        <ele>87</ele>
        <time>2021-07-02 13:50:38</time>
      </trkpt>
      <trkpt lat="29.02351" lon="-13.50418">
        <ele>87.2</ele>
        <time>2021-07-02 13:50:39</time>
      </trkpt>
      <trkpt lat="29.02353" lon="-13.50416">
        <ele>87.2</ele>
        <time>2021-07-02 13:50:40</time>
      </trkpt>
      <trkpt lat="29.02355" lon="-13.50414">
        <ele>87.2</ele>
        <time>2021-07-02 13:50:41</time>
      </trkpt>
      <trkpt lat="29.02356" lon="-13.50413">
        <ele>87.4</ele>
        <time>2021-07-02 13:50:42</time>
      </trkpt>
      <trkpt lat="29.02357" lon="-13.50411">
        <ele>87.4</ele>
        <time>2021-07-02 13:50:43</time>
      </trkpt>
      <trkpt lat="29.02359" lon="-13.5041">
        <ele>87.4</ele>
        <time>2021-07-02 13:50:44</time>
      </trkpt>
      <trkpt lat="29.0236" lon="-13.5041">
        <ele>87.6</ele>
        <time>2021-07-02 13:50:45</time>
      </trkpt>
      <trkpt lat="29.02362" lon="-13.50409">
        <ele>87.6</ele>
        <time>2021-07-02 13:50:46</time>
      </trkpt>
      <trkpt lat="29.02364" lon="-13.50409">
        <ele>87.8</ele>
        <time>2021-07-02 13:50:47</time>
      </trkpt>
      <trkpt lat="29.02365" lon="-13.50409">
        <ele>87.8</ele>
        <time>2021-07-02 13:50:48</time>
      </trkpt>
      <trkpt lat="29.02367" lon="-13.50409">
        <ele>88.2</ele>
        <time>2021-07-02 13:50:49</time>
      </trkpt>
      <trkpt lat="29.02368" lon="-13.50408">
        <ele>88.2</ele>
        <time>2021-07-02 13:50:50</time>
      </trkpt>
      <trkpt lat="29.0237" lon="-13.50407">
        <ele>88.4</ele>
        <time>2021-07-02 13:50:51</time>
      </trkpt>
      <trkpt lat="29.02372" lon="-13.50405">
        <ele>88.4</ele>
        <time>2021-07-02 13:50:52</time>
      </trkpt>
      <trkpt lat="29.02373" lon="-13.50403">
        <ele>88.8</ele>
        <time>2021-07-02 13:50:53</time>
      </trkpt>
      <trkpt lat="29.02374" lon="-13.50401">
        <ele>88.8</ele>
        <time>2021-07-02 13:50:54</time>
      </trkpt>
      <trkpt lat="29.02375" lon="-13.50399">
        <ele>89</ele>
        <time>2021-07-02 13:50:55</time>
      </trkpt>
      <trkpt lat="29.02376" lon="-13.50398">
        <ele>89</ele>
        <time>2021-07-02 13:50:56</time>
      </trkpt>
      <trkpt lat="29.02378" lon="-13.50396">
        <ele>89.2</ele>
        <time>2021-07-02 13:50:57</time>
      </trkpt>
      <trkpt lat="29.02379" lon="-13.50395">
        <ele>89.2</ele>
        <time>2021-07-02 13:50:58</time>
      </trkpt>
      <trkpt lat="29.02381" lon="-13.50394">
        <ele>89.6</ele>
        <time>2021-07-02 13:50:59</time>
      </trkpt>
      <trkpt lat="29.02382" lon="-13.50393">
        <ele>89.6</ele>
        <time>2021-07-02 13:51:00</time>
      </trkpt>
      <trkpt lat="29.02383" lon="-13.50392">
        <ele>89.6</ele>
        <time>2021-07-02 13:51:01</time>
      </trkpt>
      <trkpt lat="29.02385" lon="-13.5039">
        <ele>90</ele>
        <time>2021-07-02 13:51:02</time>
      </trkpt>
      <trkpt lat="29.02386" lon="-13.50388">
        <ele>90</ele>
        <time>2021-07-02 13:51:03</time>
      </trkpt>
      <trkpt lat="29.02387" lon="-13.50387">
        <ele>90.2</ele>
        <time>2021-07-02 13:51:04</time>
      </trkpt>
      <trkpt lat="29.02388" lon="-13.50385">
        <ele>90.2</ele>
        <time>2021-07-02 13:51:05</time>
      </trkpt>
      <trkpt lat="29.02389" lon="-13.50385">
        <ele>90.6</ele>
        <time>2021-07-02 13:51:06</time>
      </trkpt>
      <trkpt lat="29.02389" lon="-13.50384">
        <ele>90.6</ele>
        <time>2021-07-02 13:51:07</time>
      </trkpt>
      <trkpt lat="29.02389" lon="-13.50384">
        <ele>90.6</ele>
        <time>2021-07-02 13:51:08</time>
      </trkpt>
      <trkpt lat="29.02389" lon="-13.50384">
        <ele>90.6</ele>
        <time>2021-07-02 13:51:09</time>
      </trkpt>
      <trkpt lat="29.02391" lon="-13.50383">
        <ele>91.8</ele>
        <time>2021-07-02 13:51:10</time>
      </trkpt>
      <trkpt lat="29.02393" lon="-13.50382">
        <ele>91.6</ele>
        <time>2021-07-02 13:51:11</time>
      </trkpt>
      <trkpt lat="29.02395" lon="-13.5038">
        <ele>91.6</ele>
        <time>2021-07-02 13:51:12</time>
      </trkpt>
      <trkpt lat="29.02396" lon="-13.50379">
        <ele>91.6</ele>
        <time>2021-07-02 13:51:13</time>
      </trkpt>
      <trkpt lat="29.02397" lon="-13.50377">
        <ele>91.4</ele>
        <time>2021-07-02 13:51:14</time>
      </trkpt>
      <trkpt lat="29.02399" lon="-13.50376">
        <ele>91.4</ele>
        <time>2021-07-02 13:51:15</time>
      </trkpt>
      <trkpt lat="29.024" lon="-13.50375">
        <ele>91.4</ele>
        <time>2021-07-02 13:51:16</time>
      </trkpt>
      <trkpt lat="29.02402" lon="-13.50373">
        <ele>91.4</ele>
        <time>2021-07-02 13:51:17</time>
      </trkpt>
      <trkpt lat="29.02404" lon="-13.50372">
        <ele>91.4</ele>
        <time>2021-07-02 13:51:18</time>
      </trkpt>
      <trkpt lat="29.02406" lon="-13.5037">
        <ele>91.4</ele>
        <time>2021-07-02 13:51:19</time>
      </trkpt>
      <trkpt lat="29.02408" lon="-13.50369">
        <ele>91.6</ele>
        <time>2021-07-02 13:51:20</time>
      </trkpt>
      <trkpt lat="29.0241" lon="-13.50368">
        <ele>91.8</ele>
        <time>2021-07-02 13:51:21</time>
      </trkpt>
      <trkpt lat="29.02412" lon="-13.50366">
        <ele>91.8</ele>
        <time>2021-07-02 13:51:22</time>
      </trkpt>
      <trkpt lat="29.02414" lon="-13.50364">
        <ele>92</ele>
        <time>2021-07-02 13:51:23</time>
      </trkpt>
      <trkpt lat="29.02416" lon="-13.50361">
        <ele>92</ele>
        <time>2021-07-02 13:51:24</time>
      </trkpt>
      <trkpt lat="29.02417" lon="-13.5036">
        <ele>92.2</ele>
        <time>2021-07-02 13:51:25</time>
      </trkpt>
      <trkpt lat="29.02418" lon="-13.5036">
        <ele>92.2</ele>
        <time>2021-07-02 13:51:26</time>
      </trkpt>
      <trkpt lat="29.0242" lon="-13.50359">
        <ele>92.6</ele>
        <time>2021-07-02 13:51:27</time>
      </trkpt>
      <trkpt lat="29.02422" lon="-13.50357">
        <ele>92.8</ele>
        <time>2021-07-02 13:51:28</time>
      </trkpt>
      <trkpt lat="29.02423" lon="-13.50356">
        <ele>93</ele>
        <time>2021-07-02 13:51:29</time>
      </trkpt>
      <trkpt lat="29.02425" lon="-13.50354">
        <ele>93</ele>
        <time>2021-07-02 13:51:30</time>
      </trkpt>
      <trkpt lat="29.02428" lon="-13.50352">
        <ele>93.4</ele>
        <time>2021-07-02 13:51:31</time>
      </trkpt>
      <trkpt lat="29.0243" lon="-13.5035">
        <ele>93.4</ele>
        <time>2021-07-02 13:51:32</time>
      </trkpt>
      <trkpt lat="29.02431" lon="-13.50348">
        <ele>93.6</ele>
        <time>2021-07-02 13:51:33</time>
      </trkpt>
      <trkpt lat="29.02432" lon="-13.50346">
        <ele>93.6</ele>
        <time>2021-07-02 13:51:34</time>
      </trkpt>
      <trkpt lat="29.02434" lon="-13.50344">
        <ele>93.6</ele>
        <time>2021-07-02 13:51:35</time>
      </trkpt>
      <trkpt lat="29.02436" lon="-13.50342">
        <ele>93.6</ele>
        <time>2021-07-02 13:51:36</time>
      </trkpt>
      <trkpt lat="29.02437" lon="-13.50341">
        <ele>94</ele>
        <time>2021-07-02 13:51:37</time>
      </trkpt>
      <trkpt lat="29.02438" lon="-13.5034">
        <ele>94.2</ele>
        <time>2021-07-02 13:52:08</time>
      </trkpt>
      <trkpt lat="29.0244" lon="-13.50339">
        <ele>94.2</ele>
        <time>2021-07-02 13:52:09</time>
      </trkpt>
      <trkpt lat="29.02441" lon="-13.50338">
        <ele>94.6</ele>
        <time>2021-07-02 13:52:10</time>
      </trkpt>
      <trkpt lat="29.02443" lon="-13.50336">
        <ele>94.8</ele>
        <time>2021-07-02 13:52:11</time>
      </trkpt>
      <trkpt lat="29.02445" lon="-13.50335">
        <ele>94.8</ele>
        <time>2021-07-02 13:52:12</time>
      </trkpt>
      <trkpt lat="29.02446" lon="-13.50333">
        <ele>95.2</ele>
        <time>2021-07-02 13:52:13</time>
      </trkpt>
      <trkpt lat="29.02448" lon="-13.50332">
        <ele>95.2</ele>
        <time>2021-07-02 13:52:14</time>
      </trkpt>
      <trkpt lat="29.0245" lon="-13.50329">
        <ele>95.2</ele>
        <time>2021-07-02 13:52:15</time>
      </trkpt>
      <trkpt lat="29.02452" lon="-13.50327">
        <ele>95.4</ele>
        <time>2021-07-02 13:52:16</time>
      </trkpt>
      <trkpt lat="29.02453" lon="-13.50326">
        <ele>95.6</ele>
        <time>2021-07-02 13:52:17</time>
      </trkpt>
      <trkpt lat="29.02455" lon="-13.50325">
        <ele>96</ele>
        <time>2021-07-02 13:52:18</time>
      </trkpt>
      <trkpt lat="29.02456" lon="-13.50324">
        <ele>96</ele>
        <time>2021-07-02 13:52:19</time>
      </trkpt>
      <trkpt lat="29.02458" lon="-13.50323">
        <ele>96.4</ele>
        <time>2021-07-02 13:52:20</time>
      </trkpt>
      <trkpt lat="29.0246" lon="-13.50322">
        <ele>96.4</ele>
        <time>2021-07-02 13:52:21</time>
      </trkpt>
      <trkpt lat="29.02461" lon="-13.5032">
        <ele>98</ele>
        <time>2021-07-02 13:52:22</time>
      </trkpt>
      <trkpt lat="29.02463" lon="-13.50318">
        <ele>97.6</ele>
        <time>2021-07-02 13:52:23</time>
      </trkpt>
      <trkpt lat="29.02466" lon="-13.50316">
        <ele>97.6</ele>
        <time>2021-07-02 13:52:24</time>
      </trkpt>
      <trkpt lat="29.02468" lon="-13.50314">
        <ele>97.4</ele>
        <time>2021-07-02 13:52:25</time>
      </trkpt>
      <trkpt lat="29.02469" lon="-13.50313">
        <ele>97.4</ele>
        <time>2021-07-02 13:52:26</time>
      </trkpt>
      <trkpt lat="29.0247" lon="-13.50312">
        <ele>97.4</ele>
        <time>2021-07-02 13:52:27</time>
      </trkpt>
      <trkpt lat="29.0247" lon="-13.50311">
        <ele>97.4</ele>
        <time>2021-07-02 13:52:28</time>
      </trkpt>
      <trkpt lat="29.02471" lon="-13.50309">
        <ele>97.4</ele>
        <time>2021-07-02 13:52:29</time>
      </trkpt>
      <trkpt lat="29.02473" lon="-13.50307">
        <ele>97.6</ele>
        <time>2021-07-02 13:52:30</time>
      </trkpt>
      <trkpt lat="29.02474" lon="-13.50305">
        <ele>97.6</ele>
        <time>2021-07-02 13:52:31</time>
      </trkpt>
      <trkpt lat="29.02476" lon="-13.50303">
        <ele>98</ele>
        <time>2021-07-02 13:52:32</time>
      </trkpt>
      <trkpt lat="29.02477" lon="-13.50302">
        <ele>98.2</ele>
        <time>2021-07-02 13:52:33</time>
      </trkpt>
      <trkpt lat="29.02478" lon="-13.50301">
        <ele>98.4</ele>
        <time>2021-07-02 13:52:34</time>
      </trkpt>
      <trkpt lat="29.02479" lon="-13.50301">
        <ele>98.4</ele>
        <time>2021-07-02 13:52:35</time>
      </trkpt>
      <trkpt lat="29.02479" lon="-13.50301">
        <ele>98.4</ele>
        <time>2021-07-02 13:52:36</time>
      </trkpt>
      <trkpt lat="29.02479" lon="-13.50302">
        <ele>98.8</ele>
        <time>2021-07-02 13:52:37</time>
      </trkpt>
      <trkpt lat="29.02479" lon="-13.50301">
        <ele>98.8</ele>
        <time>2021-07-02 13:52:38</time>
      </trkpt>
      <trkpt lat="29.02479" lon="-13.50301">
        <ele>98.8</ele>
        <time>2021-07-02 13:52:39</time>
      </trkpt>
      <trkpt lat="29.02479" lon="-13.503">
        <ele>98.8</ele>
        <time>2021-07-02 13:52:40</time>
      </trkpt>
      <trkpt lat="29.02479" lon="-13.503">
        <ele>98.8</ele>
        <time>2021-07-02 13:52:41</time>
      </trkpt>
      <trkpt lat="29.02479" lon="-13.50299">
        <ele>98.8</ele>
        <time>2021-07-02 13:52:42</time>
      </trkpt>
      <trkpt lat="29.0248" lon="-13.50298">
        <ele>98.8</ele>
        <time>2021-07-02 13:52:43</time>
      </trkpt>
      <trkpt lat="29.02481" lon="-13.50298">
        <ele>99.2</ele>
        <time>2021-07-02 13:52:44</time>
      </trkpt>
      <trkpt lat="29.02482" lon="-13.50297">
        <ele>99.2</ele>
        <time>2021-07-02 13:52:45</time>
      </trkpt>
      <trkpt lat="29.02483" lon="-13.50296">
        <ele>99.2</ele>
        <time>2021-07-02 13:52:46</time>
      </trkpt>
      <trkpt lat="29.02484" lon="-13.50295">
        <ele>99.2</ele>
        <time>2021-07-02 13:52:47</time>
      </trkpt>
      <trkpt lat="29.02486" lon="-13.50294">
        <ele>99.2</ele>
        <time>2021-07-02 13:52:48</time>
      </trkpt>
      <trkpt lat="29.02487" lon="-13.50293">
        <ele>99.2</ele>
        <time>2021-07-02 13:52:49</time>
      </trkpt>
      <trkpt lat="29.02489" lon="-13.50292">
        <ele>99.2</ele>
        <time>2021-07-02 13:52:50</time>
      </trkpt>
      <trkpt lat="29.0249" lon="-13.5029">
        <ele>99.2</ele>
        <time>2021-07-02 13:52:51</time>
      </trkpt>
      <trkpt lat="29.02492" lon="-13.50289">
        <ele>99.2</ele>
        <time>2021-07-02 13:52:52</time>
      </trkpt>
      <trkpt lat="29.02493" lon="-13.50287">
        <ele>99.2</ele>
        <time>2021-07-02 13:52:53</time>
      </trkpt>
      <trkpt lat="29.02494" lon="-13.50286">
        <ele>99.2</ele>
        <time>2021-07-02 13:52:54</time>
      </trkpt>
      <trkpt lat="29.02495" lon="-13.50284">
        <ele>99.2</ele>
        <time>2021-07-02 13:52:55</time>
      </trkpt>
      <trkpt lat="29.02496" lon="-13.50282">
        <ele>99.2</ele>
        <time>2021-07-02 13:52:56</time>
      </trkpt>
      <trkpt lat="29.02498" lon="-13.50281">
        <ele>99.2</ele>
        <time>2021-07-02 13:52:57</time>
      </trkpt>
      <trkpt lat="29.025" lon="-13.50279">
        <ele>99.2</ele>
        <time>2021-07-02 13:52:58</time>
      </trkpt>
      <trkpt lat="29.02502" lon="-13.50277">
        <ele>99.2</ele>
        <time>2021-07-02 13:52:59</time>
      </trkpt>
      <trkpt lat="29.02503" lon="-13.50274">
        <ele>99.4</ele>
        <time>2021-07-02 13:53:00</time>
      </trkpt>
      <trkpt lat="29.02505" lon="-13.50272">
        <ele>99.4</ele>
        <time>2021-07-02 13:53:01</time>
      </trkpt>
      <trkpt lat="29.02506" lon="-13.50269">
        <ele>99.8</ele>
        <time>2021-07-02 13:53:02</time>
      </trkpt>
      <trkpt lat="29.02508" lon="-13.50268">
        <ele>99.8</ele>
        <time>2021-07-02 13:53:03</time>
      </trkpt>
      <trkpt lat="29.02509" lon="-13.50266">
        <ele>100.2</ele>
        <time>2021-07-02 13:53:04</time>
      </trkpt>
      <trkpt lat="29.02511" lon="-13.50265">
        <ele>100.2</ele>
        <time>2021-07-02 13:53:05</time>
      </trkpt>
      <trkpt lat="29.02512" lon="-13.50264">
        <ele>100.6</ele>
        <time>2021-07-02 13:53:48</time>
      </trkpt>
      <trkpt lat="29.02514" lon="-13.50262">
        <ele>100.8</ele>
        <time>2021-07-02 13:53:49</time>
      </trkpt>
      <trkpt lat="29.02516" lon="-13.50261">
        <ele>101</ele>
        <time>2021-07-02 13:53:50</time>
      </trkpt>
      <trkpt lat="29.02518" lon="-13.5026">
        <ele>101.4</ele>
        <time>2021-07-02 13:53:51</time>
      </trkpt>
      <trkpt lat="29.0252" lon="-13.5026">
        <ele>101.8</ele>
        <time>2021-07-02 13:53:52</time>
      </trkpt>
      <trkpt lat="29.02522" lon="-13.50259">
        <ele>102</ele>
        <time>2021-07-02 13:53:53</time>
      </trkpt>
      <trkpt lat="29.02524" lon="-13.50258">
        <ele>102.2</ele>
        <time>2021-07-02 13:53:54</time>
      </trkpt>
      <trkpt lat="29.02527" lon="-13.50257">
        <ele>102.2</ele>
        <time>2021-07-02 13:53:55</time>
      </trkpt>
      <trkpt lat="29.02529" lon="-13.50256">
        <ele>102.4</ele>
        <time>2021-07-02 13:53:56</time>
      </trkpt>
      <trkpt lat="29.02531" lon="-13.50254">
        <ele>102.4</ele>
        <time>2021-07-02 13:53:57</time>
      </trkpt>
      <trkpt lat="29.02532" lon="-13.50253">
        <ele>102.4</ele>
        <time>2021-07-02 13:53:58</time>
      </trkpt>
      <trkpt lat="29.02533" lon="-13.50252">
        <ele>102.4</ele>
        <time>2021-07-02 13:53:59</time>
      </trkpt>
      <trkpt lat="29.02535" lon="-13.50251">
        <ele>102.4</ele>
        <time>2021-07-02 13:54:00</time>
      </trkpt>
      <trkpt lat="29.02536" lon="-13.50249">
        <ele>102.4</ele>
        <time>2021-07-02 13:54:01</time>
      </trkpt>
      <trkpt lat="29.02537" lon="-13.50248">
        <ele>102.4</ele>
        <time>2021-07-02 13:54:02</time>
      </trkpt>
      <trkpt lat="29.02539" lon="-13.50246">
        <ele>102.8</ele>
        <time>2021-07-02 13:54:03</time>
      </trkpt>
      <trkpt lat="29.0254" lon="-13.50245">
        <ele>102.8</ele>
        <time>2021-07-02 13:54:04</time>
      </trkpt>
      <trkpt lat="29.0254" lon="-13.50243">
        <ele>102.8</ele>
        <time>2021-07-02 13:54:05</time>
      </trkpt>
      <trkpt lat="29.02541" lon="-13.50241">
        <ele>103</ele>
        <time>2021-07-02 13:54:06</time>
      </trkpt>
      <trkpt lat="29.02542" lon="-13.50239">
        <ele>103</ele>
        <time>2021-07-02 13:54:07</time>
      </trkpt>
      <trkpt lat="29.02543" lon="-13.50237">
        <ele>103.4</ele>
        <time>2021-07-02 13:54:08</time>
      </trkpt>
      <trkpt lat="29.02544" lon="-13.50235">
        <ele>103.4</ele>
        <time>2021-07-02 13:54:09</time>
      </trkpt>
      <trkpt lat="29.02546" lon="-13.50233">
        <ele>103.6</ele>
        <time>2021-07-02 13:54:10</time>
      </trkpt>
      <trkpt lat="29.02547" lon="-13.50231">
        <ele>103.6</ele>
        <time>2021-07-02 13:54:11</time>
      </trkpt>
      <trkpt lat="29.02548" lon="-13.50229">
        <ele>104</ele>
        <time>2021-07-02 13:54:12</time>
      </trkpt>
      <trkpt lat="29.0255" lon="-13.50227">
        <ele>104.2</ele>
        <time>2021-07-02 13:54:13</time>
      </trkpt>
      <trkpt lat="29.0255" lon="-13.50225">
        <ele>104.4</ele>
        <time>2021-07-02 13:54:14</time>
      </trkpt>
      <trkpt lat="29.02551" lon="-13.50224">
        <ele>104.8</ele>
        <time>2021-07-02 13:54:15</time>
      </trkpt>
      <trkpt lat="29.02552" lon="-13.50222">
        <ele>105</ele>
        <time>2021-07-02 13:54:16</time>
      </trkpt>
      <trkpt lat="29.02552" lon="-13.50221">
        <ele>105.2</ele>
        <time>2021-07-02 13:54:17</time>
      </trkpt>
      <trkpt lat="29.02552" lon="-13.50219">
        <ele>105.2</ele>
        <time>2021-07-02 13:54:18</time>
      </trkpt>
      <trkpt lat="29.02553" lon="-13.50218">
        <ele>105.6</ele>
        <time>2021-07-02 13:54:19</time>
      </trkpt>
      <trkpt lat="29.02553" lon="-13.50216">
        <ele>105.8</ele>
        <time>2021-07-02 13:54:20</time>
      </trkpt>
      <trkpt lat="29.02553" lon="-13.50215">
        <ele>106.2</ele>
        <time>2021-07-02 13:54:21</time>
      </trkpt>
      <trkpt lat="29.02554" lon="-13.50213">
        <ele>106.4</ele>
        <time>2021-07-02 13:54:22</time>
      </trkpt>
      <trkpt lat="29.02555" lon="-13.50213">
        <ele>106.8</ele>
        <time>2021-07-02 13:54:23</time>
      </trkpt>
      <trkpt lat="29.02557" lon="-13.50212">
        <ele>107</ele>
        <time>2021-07-02 13:54:24</time>
      </trkpt>
      <trkpt lat="29.02558" lon="-13.50211">
        <ele>107</ele>
        <time>2021-07-02 13:54:25</time>
      </trkpt>
      <trkpt lat="29.02559" lon="-13.5021">
        <ele>107.4</ele>
        <time>2021-07-02 13:54:26</time>
      </trkpt>
      <trkpt lat="29.0256" lon="-13.50209">
        <ele>107.4</ele>
        <time>2021-07-02 13:54:27</time>
      </trkpt>
      <trkpt lat="29.02561" lon="-13.50208">
        <ele>107.6</ele>
        <time>2021-07-02 13:54:28</time>
      </trkpt>
      <trkpt lat="29.02562" lon="-13.50207">
        <ele>107.6</ele>
        <time>2021-07-02 13:54:29</time>
      </trkpt>
      <trkpt lat="29.02564" lon="-13.50206">
        <ele>107.6</ele>
        <time>2021-07-02 13:54:30</time>
      </trkpt>
      <trkpt lat="29.02564" lon="-13.50205">
        <ele>108</ele>
        <time>2021-07-02 13:54:31</time>
      </trkpt>
      <trkpt lat="29.02565" lon="-13.50204">
        <ele>108</ele>
        <time>2021-07-02 13:54:32</time>
      </trkpt>
      <trkpt lat="29.02566" lon="-13.50202">
        <ele>108.2</ele>
        <time>2021-07-02 13:54:33</time>
      </trkpt>
      <trkpt lat="29.02567" lon="-13.50201">
        <ele>108.2</ele>
        <time>2021-07-02 13:54:34</time>
      </trkpt>
      <trkpt lat="29.02568" lon="-13.502">
        <ele>108.4</ele>
        <time>2021-07-02 13:54:35</time>
      </trkpt>
      <trkpt lat="29.02569" lon="-13.50198">
        <ele>108.4</ele>
        <time>2021-07-02 13:54:36</time>
      </trkpt>
      <trkpt lat="29.0257" lon="-13.50196">
        <ele>108.6</ele>
        <time>2021-07-02 13:54:37</time>
      </trkpt>
      <trkpt lat="29.02571" lon="-13.50194">
        <ele>108.6</ele>
        <time>2021-07-02 13:54:38</time>
      </trkpt>
      <trkpt lat="29.02571" lon="-13.50192">
        <ele>109</ele>
        <time>2021-07-02 13:54:39</time>
      </trkpt>
      <trkpt lat="29.02572" lon="-13.5019">
        <ele>109.2</ele>
        <time>2021-07-02 13:54:40</time>
      </trkpt>
      <trkpt lat="29.02574" lon="-13.50188">
        <ele>109.2</ele>
        <time>2021-07-02 13:54:41</time>
      </trkpt>
      <trkpt lat="29.02575" lon="-13.50187">
        <ele>109.6</ele>
        <time>2021-07-02 13:54:42</time>
      </trkpt>
      <trkpt lat="29.02576" lon="-13.50185">
        <ele>109.6</ele>
        <time>2021-07-02 13:54:43</time>
      </trkpt>
      <trkpt lat="29.02577" lon="-13.50183">
        <ele>109.8</ele>
        <time>2021-07-02 13:54:44</time>
      </trkpt>
      <trkpt lat="29.02579" lon="-13.50177">
        <ele>110.4</ele>
        <time>2021-07-02 13:54:45</time>
      </trkpt>
      <trkpt lat="29.0258" lon="-13.50175">
        <ele>110.8</ele>
        <time>2021-07-02 13:54:46</time>
      </trkpt>
      <trkpt lat="29.02581" lon="-13.50173">
        <ele>110.8</ele>
        <time>2021-07-02 13:54:47</time>
      </trkpt>
      <trkpt lat="29.02582" lon="-13.50172">
        <ele>111</ele>
        <time>2021-07-02 13:54:48</time>
      </trkpt>
      <trkpt lat="29.02583" lon="-13.50171">
        <ele>111</ele>
        <time>2021-07-02 13:54:49</time>
      </trkpt>
      <trkpt lat="29.02585" lon="-13.50169">
        <ele>111.6</ele>
        <time>2021-07-02 13:54:50</time>
      </trkpt>
      <trkpt lat="29.02586" lon="-13.50168">
        <ele>112</ele>
        <time>2021-07-02 13:54:51</time>
      </trkpt>
      <trkpt lat="29.02587" lon="-13.50166">
        <ele>112.4</ele>
        <time>2021-07-02 13:54:52</time>
      </trkpt>
      <trkpt lat="29.02588" lon="-13.50165">
        <ele>112.6</ele>
        <time>2021-07-02 13:54:53</time>
      </trkpt>
      <trkpt lat="29.02588" lon="-13.50164">
        <ele>112.8</ele>
        <time>2021-07-02 13:54:54</time>
      </trkpt>
      <trkpt lat="29.02589" lon="-13.50164">
        <ele>113.2</ele>
        <time>2021-07-02 13:54:55</time>
      </trkpt>
      <trkpt lat="29.02589" lon="-13.50164">
        <ele>113.2</ele>
        <time>2021-07-02 13:54:56</time>
      </trkpt>
      <trkpt lat="29.02589" lon="-13.50164">
        <ele>113.4</ele>
        <time>2021-07-02 13:54:57</time>
      </trkpt>
      <trkpt lat="29.02589" lon="-13.50163">
        <ele>113.6</ele>
        <time>2021-07-02 13:54:58</time>
      </trkpt>
      <trkpt lat="29.0259" lon="-13.50161">
        <ele>113.6</ele>
        <time>2021-07-02 13:54:59</time>
      </trkpt>
      <trkpt lat="29.02592" lon="-13.50157">
        <ele>113.6</ele>
        <time>2021-07-02 13:55:00</time>
      </trkpt>
      <trkpt lat="29.02593" lon="-13.50155">
        <ele>113.6</ele>
        <time>2021-07-02 13:55:01</time>
      </trkpt>
      <trkpt lat="29.02594" lon="-13.50153">
        <ele>113.6</ele>
        <time>2021-07-02 13:55:02</time>
      </trkpt>
      <trkpt lat="29.02594" lon="-13.50152">
        <ele>113.6</ele>
        <time>2021-07-02 13:55:03</time>
      </trkpt>
      <trkpt lat="29.02595" lon="-13.5015">
        <ele>114</ele>
        <time>2021-07-02 13:55:04</time>
      </trkpt>
      <trkpt lat="29.02596" lon="-13.50147">
        <ele>114</ele>
        <time>2021-07-02 13:55:05</time>
      </trkpt>
      <trkpt lat="29.02596" lon="-13.50146">
        <ele>114.2</ele>
        <time>2021-07-02 13:55:06</time>
      </trkpt>
      <trkpt lat="29.02598" lon="-13.50144">
        <ele>114.4</ele>
        <time>2021-07-02 13:55:07</time>
      </trkpt>
      <trkpt lat="29.02599" lon="-13.50142">
        <ele>114.6</ele>
        <time>2021-07-02 13:55:08</time>
      </trkpt>
      <trkpt lat="29.02601" lon="-13.5014">
        <ele>114.8</ele>
        <time>2021-07-02 13:55:09</time>
      </trkpt>
      <trkpt lat="29.02602" lon="-13.50138">
        <ele>114.8</ele>
        <time>2021-07-02 13:55:10</time>
      </trkpt>
      <trkpt lat="29.02603" lon="-13.50136">
        <ele>115.2</ele>
        <time>2021-07-02 13:55:11</time>
      </trkpt>
      <trkpt lat="29.02605" lon="-13.50133">
        <ele>115.4</ele>
        <time>2021-07-02 13:55:12</time>
      </trkpt>
      <trkpt lat="29.02606" lon="-13.50131">
        <ele>115.4</ele>
        <time>2021-07-02 13:55:13</time>
      </trkpt>
      <trkpt lat="29.02607" lon="-13.50128">
        <ele>115.8</ele>
        <time>2021-07-02 13:55:14</time>
      </trkpt>
      <trkpt lat="29.02608" lon="-13.50126">
        <ele>116.2</ele>
        <time>2021-07-02 13:55:15</time>
      </trkpt>
      <trkpt lat="29.0261" lon="-13.50124">
        <ele>116.4</ele>
        <time>2021-07-02 13:55:16</time>
      </trkpt>
      <trkpt lat="29.02611" lon="-13.50121">
        <ele>116.6</ele>
        <time>2021-07-02 13:55:17</time>
      </trkpt>
      <trkpt lat="29.02612" lon="-13.50119">
        <ele>116.6</ele>
        <time>2021-07-02 13:55:18</time>
      </trkpt>
      <trkpt lat="29.02614" lon="-13.50117">
        <ele>116.8</ele>
        <time>2021-07-02 13:55:19</time>
      </trkpt>
      <trkpt lat="29.02615" lon="-13.50115">
        <ele>116.8</ele>
        <time>2021-07-02 13:55:20</time>
      </trkpt>
      <trkpt lat="29.02616" lon="-13.50112">
        <ele>117</ele>
        <time>2021-07-02 13:55:21</time>
      </trkpt>
      <trkpt lat="29.02617" lon="-13.5011">
        <ele>117</ele>
        <time>2021-07-02 13:55:22</time>
      </trkpt>
      <trkpt lat="29.02619" lon="-13.50108">
        <ele>117.4</ele>
        <time>2021-07-02 13:55:23</time>
      </trkpt>
      <trkpt lat="29.0262" lon="-13.50106">
        <ele>117.4</ele>
        <time>2021-07-02 13:55:24</time>
      </trkpt>
      <trkpt lat="29.02621" lon="-13.50103">
        <ele>117.6</ele>
        <time>2021-07-02 13:55:25</time>
      </trkpt>
      <trkpt lat="29.02622" lon="-13.50101">
        <ele>117.6</ele>
        <time>2021-07-02 13:55:26</time>
      </trkpt>
      <trkpt lat="29.02624" lon="-13.50099">
        <ele>118</ele>
        <time>2021-07-02 13:55:27</time>
      </trkpt>
      <trkpt lat="29.02625" lon="-13.50096">
        <ele>118</ele>
        <time>2021-07-02 13:55:28</time>
      </trkpt>
      <trkpt lat="29.02627" lon="-13.50094">
        <ele>118</ele>
        <time>2021-07-02 13:55:32</time>
      </trkpt>
      <trkpt lat="29.02628" lon="-13.50091">
        <ele>118.2</ele>
        <time>2021-07-02 13:55:33</time>
      </trkpt>
      <trkpt lat="29.02629" lon="-13.5009">
        <ele>118.2</ele>
        <time>2021-07-02 13:55:34</time>
      </trkpt>
      <trkpt lat="29.02629" lon="-13.5009">
        <ele>118.2</ele>
        <time>2021-07-02 13:55:35</time>
      </trkpt>
      <trkpt lat="29.02629" lon="-13.5009">
        <ele>118.2</ele>
        <time>2021-07-02 13:55:36</time>
      </trkpt>
      <trkpt lat="29.02629" lon="-13.50088">
        <ele>118</ele>
        <time>2021-07-02 13:55:37</time>
      </trkpt>
      <trkpt lat="29.0263" lon="-13.50087">
        <ele>118</ele>
        <time>2021-07-02 13:55:38</time>
      </trkpt>
      <trkpt lat="29.02631" lon="-13.50086">
        <ele>118</ele>
        <time>2021-07-02 13:55:39</time>
      </trkpt>
      <trkpt lat="29.02633" lon="-13.50084">
        <ele>118</ele>
        <time>2021-07-02 13:55:40</time>
      </trkpt>
      <trkpt lat="29.02634" lon="-13.50082">
        <ele>118</ele>
        <time>2021-07-02 13:55:41</time>
      </trkpt>
      <trkpt lat="29.02636" lon="-13.5008">
        <ele>117.8</ele>
        <time>2021-07-02 13:55:42</time>
      </trkpt>
      <trkpt lat="29.02638" lon="-13.50077">
        <ele>117.8</ele>
        <time>2021-07-02 13:55:43</time>
      </trkpt>
      <trkpt lat="29.0264" lon="-13.50075">
        <ele>117.8</ele>
        <time>2021-07-02 13:55:44</time>
      </trkpt>
      <trkpt lat="29.02642" lon="-13.50073">
        <ele>117.4</ele>
        <time>2021-07-02 13:55:45</time>
      </trkpt>
      <trkpt lat="29.02644" lon="-13.5007">
        <ele>117.4</ele>
        <time>2021-07-02 13:55:46</time>
      </trkpt>
      <trkpt lat="29.02646" lon="-13.50068">
        <ele>117.2</ele>
        <time>2021-07-02 13:55:47</time>
      </trkpt>
      <trkpt lat="29.02648" lon="-13.50066">
        <ele>117.2</ele>
        <time>2021-07-02 13:55:48</time>
      </trkpt>
      <trkpt lat="29.0265" lon="-13.50063">
        <ele>117</ele>
        <time>2021-07-02 13:55:49</time>
      </trkpt>
      <trkpt lat="29.02652" lon="-13.5006">
        <ele>117</ele>
        <time>2021-07-02 13:55:50</time>
      </trkpt>
      <trkpt lat="29.02654" lon="-13.50057">
        <ele>117</ele>
        <time>2021-07-02 13:55:51</time>
      </trkpt>
      <trkpt lat="29.02655" lon="-13.50054">
        <ele>116.8</ele>
        <time>2021-07-02 13:55:52</time>
      </trkpt>
      <trkpt lat="29.02657" lon="-13.50051">
        <ele>116.8</ele>
        <time>2021-07-02 13:55:53</time>
      </trkpt>
      <trkpt lat="29.02659" lon="-13.50047">
        <ele>116.8</ele>
        <time>2021-07-02 13:55:54</time>
      </trkpt>
      <trkpt lat="29.0266" lon="-13.50044">
        <ele>116.6</ele>
        <time>2021-07-02 13:55:55</time>
      </trkpt>
      <trkpt lat="29.02661" lon="-13.50041">
        <ele>116.6</ele>
        <time>2021-07-02 13:55:56</time>
      </trkpt>
      <trkpt lat="29.02662" lon="-13.50038">
        <ele>116</ele>
        <time>2021-07-02 13:55:57</time>
      </trkpt>
      <trkpt lat="29.02663" lon="-13.50036">
        <ele>116</ele>
        <time>2021-07-02 13:55:58</time>
      </trkpt>
      <trkpt lat="29.02664" lon="-13.50035">
        <ele>115.6</ele>
        <time>2021-07-02 13:55:59</time>
      </trkpt>
      <trkpt lat="29.02665" lon="-13.50033">
        <ele>115.6</ele>
        <time>2021-07-02 13:56:00</time>
      </trkpt>
      <trkpt lat="29.02667" lon="-13.5003">
        <ele>115.2</ele>
        <time>2021-07-02 13:56:01</time>
      </trkpt>
      <trkpt lat="29.02669" lon="-13.50028">
        <ele>115.2</ele>
        <time>2021-07-02 13:56:02</time>
      </trkpt>
      <trkpt lat="29.02671" lon="-13.50025">
        <ele>114.8</ele>
        <time>2021-07-02 13:56:03</time>
      </trkpt>
      <trkpt lat="29.02673" lon="-13.50023">
        <ele>114.8</ele>
        <time>2021-07-02 13:56:04</time>
      </trkpt>
      <trkpt lat="29.02675" lon="-13.5002">
        <ele>114.6</ele>
        <time>2021-07-02 13:56:05</time>
      </trkpt>
      <trkpt lat="29.02677" lon="-13.50017">
        <ele>114.4</ele>
        <time>2021-07-02 13:56:06</time>
      </trkpt>
      <trkpt lat="29.02679" lon="-13.50014">
        <ele>114.4</ele>
        <time>2021-07-02 13:56:07</time>
      </trkpt>
      <trkpt lat="29.02681" lon="-13.5001">
        <ele>114.2</ele>
        <time>2021-07-02 13:56:08</time>
      </trkpt>
      <trkpt lat="29.02682" lon="-13.50007">
        <ele>114.2</ele>
        <time>2021-07-02 13:56:49</time>
      </trkpt>
      <trkpt lat="29.02684" lon="-13.50003">
        <ele>113.8</ele>
        <time>2021-07-02 13:56:50</time>
      </trkpt>
      <trkpt lat="29.02685" lon="-13.49999">
        <ele>113.8</ele>
        <time>2021-07-02 13:56:51</time>
      </trkpt>
      <trkpt lat="29.02686" lon="-13.49995">
        <ele>113.6</ele>
        <time>2021-07-02 13:56:52</time>
      </trkpt>
      <trkpt lat="29.02687" lon="-13.49991">
        <ele>113.6</ele>
        <time>2021-07-02 13:56:53</time>
      </trkpt>
      <trkpt lat="29.02688" lon="-13.49987">
        <ele>113.2</ele>
        <time>2021-07-02 13:56:54</time>
      </trkpt>
      <trkpt lat="29.0269" lon="-13.49983">
        <ele>113</ele>
        <time>2021-07-02 13:56:55</time>
      </trkpt>
      <trkpt lat="29.0269" lon="-13.49979">
        <ele>112.8</ele>
        <time>2021-07-02 13:56:56</time>
      </trkpt>
      <trkpt lat="29.02691" lon="-13.49976">
        <ele>112.4</ele>
        <time>2021-07-02 13:56:57</time>
      </trkpt>
      <trkpt lat="29.02691" lon="-13.49972">
        <ele>112.2</ele>
        <time>2021-07-02 13:56:58</time>
      </trkpt>
      <trkpt lat="29.02691" lon="-13.49969">
        <ele>112.2</ele>
        <time>2021-07-02 13:56:59</time>
      </trkpt>
      <trkpt lat="29.02691" lon="-13.49967">
        <ele>111.8</ele>
        <time>2021-07-02 13:57:00</time>
      </trkpt>
      <trkpt lat="29.02691" lon="-13.49966">
        <ele>111.8</ele>
        <time>2021-07-02 13:57:01</time>
      </trkpt>
      <trkpt lat="29.02691" lon="-13.49964">
        <ele>111.8</ele>
        <time>2021-07-02 13:57:02</time>
      </trkpt>
      <trkpt lat="29.02691" lon="-13.49962">
        <ele>111.6</ele>
        <time>2021-07-02 13:57:03</time>
      </trkpt>
      <trkpt lat="29.02692" lon="-13.49958">
        <ele>111.6</ele>
        <time>2021-07-02 13:57:04</time>
      </trkpt>
      <trkpt lat="29.02693" lon="-13.49955">
        <ele>111.6</ele>
        <time>2021-07-02 13:57:05</time>
      </trkpt>
      <trkpt lat="29.02693" lon="-13.49951">
        <ele>111.4</ele>
        <time>2021-07-02 13:57:06</time>
      </trkpt>
      <trkpt lat="29.02694" lon="-13.49947">
        <ele>111.4</ele>
        <time>2021-07-02 13:57:07</time>
      </trkpt>
      <trkpt lat="29.02695" lon="-13.49942">
        <ele>111.4</ele>
        <time>2021-07-02 13:57:08</time>
      </trkpt>
      <trkpt lat="29.02695" lon="-13.49938">
        <ele>111.4</ele>
        <time>2021-07-02 13:57:09</time>
      </trkpt>
      <trkpt lat="29.02696" lon="-13.49933">
        <ele>111.2</ele>
        <time>2021-07-02 13:57:10</time>
      </trkpt>
      <trkpt lat="29.02697" lon="-13.4993">
        <ele>111.2</ele>
        <time>2021-07-02 13:57:11</time>
      </trkpt>
      <trkpt lat="29.02699" lon="-13.49927">
        <ele>111.2</ele>
        <time>2021-07-02 13:57:12</time>
      </trkpt>
      <trkpt lat="29.027" lon="-13.49923">
        <ele>111.2</ele>
        <time>2021-07-02 13:57:13</time>
      </trkpt>
      <trkpt lat="29.02701" lon="-13.4992">
        <ele>111.2</ele>
        <time>2021-07-02 13:57:14</time>
      </trkpt>
      <trkpt lat="29.02703" lon="-13.49916">
        <ele>111.2</ele>
        <time>2021-07-02 13:57:15</time>
      </trkpt>
      <trkpt lat="29.02704" lon="-13.49912">
        <ele>110.8</ele>
        <time>2021-07-02 13:57:16</time>
      </trkpt>
      <trkpt lat="29.02705" lon="-13.49909">
        <ele>110.8</ele>
        <time>2021-07-02 13:57:17</time>
      </trkpt>
      <trkpt lat="29.02705" lon="-13.49905">
        <ele>110.6</ele>
        <time>2021-07-02 13:57:18</time>
      </trkpt>
      <trkpt lat="29.02706" lon="-13.49902">
        <ele>110.6</ele>
        <time>2021-07-02 13:57:19</time>
      </trkpt>
      <trkpt lat="29.02707" lon="-13.49898">
        <ele>110.2</ele>
        <time>2021-07-02 13:57:20</time>
      </trkpt>
      <trkpt lat="29.02708" lon="-13.49895">
        <ele>110.2</ele>
        <time>2021-07-02 13:57:21</time>
      </trkpt>
      <trkpt lat="29.02709" lon="-13.49891">
        <ele>110</ele>
        <time>2021-07-02 13:57:22</time>
      </trkpt>
      <trkpt lat="29.02711" lon="-13.49888">
        <ele>110</ele>
        <time>2021-07-02 13:57:23</time>
      </trkpt>
      <trkpt lat="29.02714" lon="-13.49886">
        <ele>109.6</ele>
        <time>2021-07-02 13:57:24</time>
      </trkpt>
      <trkpt lat="29.02717" lon="-13.49883">
        <ele>109.6</ele>
        <time>2021-07-02 13:57:25</time>
      </trkpt>
      <trkpt lat="29.02719" lon="-13.4988">
        <ele>109.2</ele>
        <time>2021-07-02 13:57:26</time>
      </trkpt>
      <trkpt lat="29.02722" lon="-13.49877">
        <ele>109</ele>
        <time>2021-07-02 13:57:27</time>
      </trkpt>
      <trkpt lat="29.02724" lon="-13.49873">
        <ele>108.8</ele>
        <time>2021-07-02 13:57:28</time>
      </trkpt>
      <trkpt lat="29.02726" lon="-13.4987">
        <ele>108.8</ele>
        <time>2021-07-02 13:57:29</time>
      </trkpt>
      <trkpt lat="29.02728" lon="-13.49867">
        <ele>108.4</ele>
        <time>2021-07-02 13:57:30</time>
      </trkpt>
      <trkpt lat="29.02731" lon="-13.49864">
        <ele>108.4</ele>
        <time>2021-07-02 13:57:31</time>
      </trkpt>
      <trkpt lat="29.02733" lon="-13.49861">
        <ele>108.2</ele>
        <time>2021-07-02 13:57:32</time>
      </trkpt>
      <trkpt lat="29.02735" lon="-13.49859">
        <ele>108.2</ele>
        <time>2021-07-02 13:57:33</time>
      </trkpt>
      <trkpt lat="29.02738" lon="-13.49856">
        <ele>107.8</ele>
        <time>2021-07-02 13:57:34</time>
      </trkpt>
      <trkpt lat="29.0274" lon="-13.49852">
        <ele>107.8</ele>
        <time>2021-07-02 13:57:35</time>
      </trkpt>
      <trkpt lat="29.02742" lon="-13.49849">
        <ele>107.6</ele>
        <time>2021-07-02 13:57:36</time>
      </trkpt>
      <trkpt lat="29.02744" lon="-13.49847">
        <ele>107.6</ele>
        <time>2021-07-02 13:57:37</time>
      </trkpt>
      <trkpt lat="29.02747" lon="-13.49845">
        <ele>107.6</ele>
        <time>2021-07-02 13:57:38</time>
      </trkpt>
      <trkpt lat="29.02751" lon="-13.49843">
        <ele>107.2</ele>
        <time>2021-07-02 13:57:39</time>
      </trkpt>
      <trkpt lat="29.02754" lon="-13.4984">
        <ele>107.2</ele>
        <time>2021-07-02 13:57:40</time>
      </trkpt>
      <trkpt lat="29.02757" lon="-13.49838">
        <ele>107.2</ele>
        <time>2021-07-02 13:57:41</time>
      </trkpt>
      <trkpt lat="29.02761" lon="-13.49835">
        <ele>107</ele>
        <time>2021-07-02 13:57:42</time>
      </trkpt>
      <trkpt lat="29.02763" lon="-13.49833">
        <ele>107</ele>
        <time>2021-07-02 13:57:43</time>
      </trkpt>
      <trkpt lat="29.02766" lon="-13.4983">
        <ele>107</ele>
        <time>2021-07-02 13:57:44</time>
      </trkpt>
      <trkpt lat="29.02768" lon="-13.49827">
        <ele>106.8</ele>
        <time>2021-07-02 13:57:45</time>
      </trkpt>
      <trkpt lat="29.0277" lon="-13.49823">
        <ele>106.8</ele>
        <time>2021-07-02 13:57:46</time>
      </trkpt>
      <trkpt lat="29.02772" lon="-13.4982">
        <ele>106.4</ele>
        <time>2021-07-02 13:57:47</time>
      </trkpt>
      <trkpt lat="29.02774" lon="-13.49817">
        <ele>106.4</ele>
        <time>2021-07-02 13:57:48</time>
      </trkpt>
      <trkpt lat="29.02777" lon="-13.49814">
        <ele>106.4</ele>
        <time>2021-07-02 13:57:49</time>
      </trkpt>
      <trkpt lat="29.0278" lon="-13.49813">
        <ele>106.4</ele>
        <time>2021-07-02 13:57:50</time>
      </trkpt>
      <trkpt lat="29.02783" lon="-13.49811">
        <ele>106.4</ele>
        <time>2021-07-02 13:57:51</time>
      </trkpt>
      <trkpt lat="29.02786" lon="-13.4981">
        <ele>106.4</ele>
        <time>2021-07-02 13:57:52</time>
      </trkpt>
      <trkpt lat="29.0279" lon="-13.49809">
        <ele>106.4</ele>
        <time>2021-07-02 13:57:53</time>
      </trkpt>
      <trkpt lat="29.02792" lon="-13.49807">
        <ele>106.4</ele>
        <time>2021-07-02 13:57:54</time>
      </trkpt>
      <trkpt lat="29.02795" lon="-13.49805">
        <ele>106.4</ele>
        <time>2021-07-02 13:57:55</time>
      </trkpt>
      <trkpt lat="29.02798" lon="-13.49804">
        <ele>106.4</ele>
        <time>2021-07-02 13:57:56</time>
      </trkpt>
      <trkpt lat="29.02801" lon="-13.49804">
        <ele>106.4</ele>
        <time>2021-07-02 13:57:57</time>
      </trkpt>
      <trkpt lat="29.02804" lon="-13.49805">
        <ele>106.4</ele>
        <time>2021-07-02 13:57:58</time>
      </trkpt>
      <trkpt lat="29.02806" lon="-13.49806">
        <ele>106.4</ele>
        <time>2021-07-02 13:57:59</time>
      </trkpt>
      <trkpt lat="29.02809" lon="-13.49806">
        <ele>106.4</ele>
        <time>2021-07-02 13:58:00</time>
      </trkpt>
      <trkpt lat="29.0281" lon="-13.49806">
        <ele>106.4</ele>
        <time>2021-07-02 13:58:01</time>
      </trkpt>
      <trkpt lat="29.02812" lon="-13.49806">
        <ele>106.4</ele>
        <time>2021-07-02 13:58:02</time>
      </trkpt>
      <trkpt lat="29.02813" lon="-13.49804">
        <ele>106.4</ele>
        <time>2021-07-02 13:58:03</time>
      </trkpt>
      <trkpt lat="29.02815" lon="-13.49802">
        <ele>106.4</ele>
        <time>2021-07-02 13:58:04</time>
      </trkpt>
      <trkpt lat="29.02815" lon="-13.498">
        <ele>106.4</ele>
        <time>2021-07-02 13:58:05</time>
      </trkpt>
      <trkpt lat="29.02816" lon="-13.49797">
        <ele>106.4</ele>
        <time>2021-07-02 13:58:06</time>
      </trkpt>
      <trkpt lat="29.02817" lon="-13.49795">
        <ele>106.4</ele>
        <time>2021-07-02 13:58:07</time>
      </trkpt>
      <trkpt lat="29.02819" lon="-13.49793">
        <ele>106.4</ele>
        <time>2021-07-02 13:58:08</time>
      </trkpt>
      <trkpt lat="29.02821" lon="-13.49791">
        <ele>106.4</ele>
        <time>2021-07-02 13:58:09</time>
      </trkpt>
      <trkpt lat="29.02823" lon="-13.4979">
        <ele>106.4</ele>
        <time>2021-07-02 13:58:10</time>
      </trkpt>
      <trkpt lat="29.02825" lon="-13.49788">
        <ele>106.4</ele>
        <time>2021-07-02 13:58:11</time>
      </trkpt>
      <trkpt lat="29.02827" lon="-13.49786">
        <ele>106.4</ele>
        <time>2021-07-02 13:58:12</time>
      </trkpt>
      <trkpt lat="29.02828" lon="-13.49783">
        <ele>106.4</ele>
        <time>2021-07-02 13:58:13</time>
      </trkpt>
      <trkpt lat="29.0283" lon="-13.4978">
        <ele>106.6</ele>
        <time>2021-07-02 13:58:14</time>
      </trkpt>
      <trkpt lat="29.02832" lon="-13.49778">
        <ele>106.6</ele>
        <time>2021-07-02 13:58:15</time>
      </trkpt>
      <trkpt lat="29.02834" lon="-13.49775">
        <ele>106.6</ele>
        <time>2021-07-02 13:58:16</time>
      </trkpt>
      <trkpt lat="29.02835" lon="-13.49772">
        <ele>106.6</ele>
        <time>2021-07-02 13:58:17</time>
      </trkpt>
      <trkpt lat="29.02838" lon="-13.4977">
        <ele>106.6</ele>
        <time>2021-07-02 13:58:18</time>
      </trkpt>
      <trkpt lat="29.0284" lon="-13.49768">
        <ele>106.6</ele>
        <time>2021-07-02 13:58:19</time>
      </trkpt>
      <trkpt lat="29.02841" lon="-13.49767">
        <ele>106.6</ele>
        <time>2021-07-02 13:58:20</time>
      </trkpt>
      <trkpt lat="29.02842" lon="-13.49767">
        <ele>106.6</ele>
        <time>2021-07-02 13:58:21</time>
      </trkpt>
      <trkpt lat="29.02843" lon="-13.49766">
        <ele>106.6</ele>
        <time>2021-07-02 13:58:22</time>
      </trkpt>
      <trkpt lat="29.02844" lon="-13.49764">
        <ele>106.6</ele>
        <time>2021-07-02 13:58:23</time>
      </trkpt>
      <trkpt lat="29.02845" lon="-13.49762">
        <ele>106.6</ele>
        <time>2021-07-02 13:58:24</time>
      </trkpt>
      <trkpt lat="29.02846" lon="-13.49759">
        <ele>106.6</ele>
        <time>2021-07-02 13:58:25</time>
      </trkpt>
      <trkpt lat="29.02847" lon="-13.49758">
        <ele>106.6</ele>
        <time>2021-07-02 13:58:26</time>
      </trkpt>
      <trkpt lat="29.02848" lon="-13.49756">
        <ele>106.6</ele>
        <time>2021-07-02 13:58:27</time>
      </trkpt>
      <trkpt lat="29.0285" lon="-13.49755">
        <ele>106.8</ele>
        <time>2021-07-02 13:58:28</time>
      </trkpt>
      <trkpt lat="29.02852" lon="-13.49754">
        <ele>106.8</ele>
        <time>2021-07-02 13:58:29</time>
      </trkpt>
      <trkpt lat="29.02854" lon="-13.49753">
        <ele>106.8</ele>
        <time>2021-07-02 13:58:30</time>
      </trkpt>
      <trkpt lat="29.02857" lon="-13.49751">
        <ele>107</ele>
        <time>2021-07-02 13:58:31</time>
      </trkpt>
      <trkpt lat="29.02859" lon="-13.4975">
        <ele>107</ele>
        <time>2021-07-02 13:58:32</time>
      </trkpt>
      <trkpt lat="29.02862" lon="-13.49748">
        <ele>107</ele>
        <time>2021-07-02 13:58:33</time>
      </trkpt>
      <trkpt lat="29.02865" lon="-13.49748">
        <ele>107</ele>
        <time>2021-07-02 13:58:34</time>
      </trkpt>
      <trkpt lat="29.02868" lon="-13.49747">
        <ele>107</ele>
        <time>2021-07-02 13:58:35</time>
      </trkpt>
      <trkpt lat="29.02871" lon="-13.49746">
        <ele>107.2</ele>
        <time>2021-07-02 13:58:36</time>
      </trkpt>
      <trkpt lat="29.02874" lon="-13.49746">
        <ele>107.2</ele>
        <time>2021-07-02 13:58:37</time>
      </trkpt>
      <trkpt lat="29.02876" lon="-13.49745">
        <ele>107.6</ele>
        <time>2021-07-02 13:58:38</time>
      </trkpt>
      <trkpt lat="29.02879" lon="-13.49745">
        <ele>107.6</ele>
        <time>2021-07-02 13:58:39</time>
      </trkpt>
      <trkpt lat="29.02881" lon="-13.49744">
        <ele>109.2</ele>
        <time>2021-07-02 13:58:40</time>
      </trkpt>
      <trkpt lat="29.02883" lon="-13.49743">
        <ele>108.8</ele>
        <time>2021-07-02 13:58:41</time>
      </trkpt>
      <trkpt lat="29.02886" lon="-13.49743">
        <ele>108.8</ele>
        <time>2021-07-02 13:58:42</time>
      </trkpt>
      <trkpt lat="29.0289" lon="-13.49742">
        <ele>108.4</ele>
        <time>2021-07-02 13:58:43</time>
      </trkpt>
      <trkpt lat="29.02893" lon="-13.49741">
        <ele>108.4</ele>
        <time>2021-07-02 13:58:44</time>
      </trkpt>
      <trkpt lat="29.02896" lon="-13.4974">
        <ele>108.2</ele>
        <time>2021-07-02 13:58:45</time>
      </trkpt>
      <trkpt lat="29.02899" lon="-13.49739">
        <ele>108.2</ele>
        <time>2021-07-02 13:58:46</time>
      </trkpt>
      <trkpt lat="29.02902" lon="-13.49738">
        <ele>108.4</ele>
        <time>2021-07-02 13:58:47</time>
      </trkpt>
      <trkpt lat="29.02905" lon="-13.49737">
        <ele>108</ele>
        <time>2021-07-02 13:58:48</time>
      </trkpt>
      <trkpt lat="29.02908" lon="-13.49737">
        <ele>110.8</ele>
        <time>2021-07-02 13:58:49</time>
      </trkpt>
      <trkpt lat="29.02912" lon="-13.49736">
        <ele>111.2</ele>
        <time>2021-07-02 13:58:50</time>
      </trkpt>
      <trkpt lat="29.02915" lon="-13.49734">
        <ele>111</ele>
        <time>2021-07-02 13:58:51</time>
      </trkpt>
      <trkpt lat="29.02918" lon="-13.49733">
        <ele>110.6</ele>
        <time>2021-07-02 13:58:52</time>
      </trkpt>
      <trkpt lat="29.02921" lon="-13.49733">
        <ele>110.2</ele>
        <time>2021-07-02 13:58:53</time>
      </trkpt>
      <trkpt lat="29.02924" lon="-13.49732">
        <ele>109.6</ele>
        <time>2021-07-02 13:58:54</time>
      </trkpt>
      <trkpt lat="29.02928" lon="-13.49731">
        <ele>109.2</ele>
        <time>2021-07-02 13:58:55</time>
      </trkpt>
      <trkpt lat="29.02931" lon="-13.4973">
        <ele>109.2</ele>
        <time>2021-07-02 13:58:56</time>
      </trkpt>
      <trkpt lat="29.02934" lon="-13.4973">
        <ele>108.6</ele>
        <time>2021-07-02 13:58:57</time>
      </trkpt>
      <trkpt lat="29.02937" lon="-13.4973">
        <ele>108.4</ele>
        <time>2021-07-02 13:58:58</time>
      </trkpt>
      <trkpt lat="29.0294" lon="-13.49731">
        <ele>108.4</ele>
        <time>2021-07-02 13:58:59</time>
      </trkpt>
      <trkpt lat="29.02943" lon="-13.49732">
        <ele>108</ele>
        <time>2021-07-02 13:59:00</time>
      </trkpt>
      <trkpt lat="29.02946" lon="-13.49734">
        <ele>107.6</ele>
        <time>2021-07-02 13:59:01</time>
      </trkpt>
      <trkpt lat="29.02949" lon="-13.49734">
        <ele>107.6</ele>
        <time>2021-07-02 13:59:02</time>
      </trkpt>
      <trkpt lat="29.02953" lon="-13.49734">
        <ele>107.6</ele>
        <time>2021-07-02 13:59:03</time>
      </trkpt>
      <trkpt lat="29.02956" lon="-13.49734">
        <ele>107.6</ele>
        <time>2021-07-02 13:59:04</time>
      </trkpt>
      <trkpt lat="29.02959" lon="-13.49733">
        <ele>107.4</ele>
        <time>2021-07-02 13:59:05</time>
      </trkpt>
      <trkpt lat="29.02961" lon="-13.49731">
        <ele>106.8</ele>
        <time>2021-07-02 13:59:06</time>
      </trkpt>
      <trkpt lat="29.02964" lon="-13.4973">
        <ele>106.6</ele>
        <time>2021-07-02 13:59:07</time>
      </trkpt>
      <trkpt lat="29.02966" lon="-13.49728">
        <ele>106.6</ele>
        <time>2021-07-02 13:59:08</time>
      </trkpt>
      <trkpt lat="29.02969" lon="-13.49727">
        <ele>106.6</ele>
        <time>2021-07-02 13:59:09</time>
      </trkpt>
      <trkpt lat="29.02973" lon="-13.49726">
        <ele>106.6</ele>
        <time>2021-07-02 13:59:10</time>
      </trkpt>
      <trkpt lat="29.02976" lon="-13.49725">
        <ele>106.6</ele>
        <time>2021-07-02 13:59:11</time>
      </trkpt>
      <trkpt lat="29.02979" lon="-13.49725">
        <ele>106.2</ele>
        <time>2021-07-02 13:59:12</time>
      </trkpt>
      <trkpt lat="29.02982" lon="-13.49725">
        <ele>106.2</ele>
        <time>2021-07-02 13:59:13</time>
      </trkpt>
      <trkpt lat="29.02986" lon="-13.49725">
        <ele>106.4</ele>
        <time>2021-07-02 13:59:14</time>
      </trkpt>
      <trkpt lat="29.02989" lon="-13.49725">
        <ele>106.4</ele>
        <time>2021-07-02 13:59:15</time>
      </trkpt>
      <trkpt lat="29.02992" lon="-13.49725">
        <ele>106.4</ele>
        <time>2021-07-02 13:59:16</time>
      </trkpt>
      <trkpt lat="29.02995" lon="-13.49725">
        <ele>106.4</ele>
        <time>2021-07-02 13:59:17</time>
      </trkpt>
      <trkpt lat="29.02999" lon="-13.49725">
        <ele>107.6</ele>
        <time>2021-07-02 13:59:18</time>
      </trkpt>
      <trkpt lat="29.03002" lon="-13.49724">
        <ele>107.6</ele>
        <time>2021-07-02 13:59:19</time>
      </trkpt>
      <trkpt lat="29.03005" lon="-13.49724">
        <ele>107.6</ele>
        <time>2021-07-02 13:59:20</time>
      </trkpt>
      <trkpt lat="29.03008" lon="-13.49723">
        <ele>107</ele>
        <time>2021-07-02 13:59:21</time>
      </trkpt>
      <trkpt lat="29.03011" lon="-13.49723">
        <ele>107</ele>
        <time>2021-07-02 13:59:22</time>
      </trkpt>
      <trkpt lat="29.03014" lon="-13.49722">
        <ele>107</ele>
        <time>2021-07-02 13:59:23</time>
      </trkpt>
      <trkpt lat="29.03017" lon="-13.49721">
        <ele>108</ele>
        <time>2021-07-02 13:59:24</time>
      </trkpt>
      <trkpt lat="29.0302" lon="-13.4972">
        <ele>107.6</ele>
        <time>2021-07-02 13:59:25</time>
      </trkpt>
      <trkpt lat="29.03023" lon="-13.49719">
        <ele>107.6</ele>
        <time>2021-07-02 13:59:26</time>
      </trkpt>
      <trkpt lat="29.03026" lon="-13.49717">
        <ele>107.2</ele>
        <time>2021-07-02 13:59:27</time>
      </trkpt>
      <trkpt lat="29.03029" lon="-13.49716">
        <ele>107.2</ele>
        <time>2021-07-02 13:59:28</time>
      </trkpt>
      <trkpt lat="29.03032" lon="-13.49715">
        <ele>107.2</ele>
        <time>2021-07-02 13:59:29</time>
      </trkpt>
      <trkpt lat="29.03035" lon="-13.49714">
        <ele>107</ele>
        <time>2021-07-02 13:59:30</time>
      </trkpt>
      <trkpt lat="29.03038" lon="-13.49713">
        <ele>107</ele>
        <time>2021-07-02 13:59:31</time>
      </trkpt>
      <trkpt lat="29.03041" lon="-13.49711">
        <ele>107</ele>
        <time>2021-07-02 13:59:32</time>
      </trkpt>
      <trkpt lat="29.03044" lon="-13.4971">
        <ele>107</ele>
        <time>2021-07-02 13:59:33</time>
      </trkpt>
      <trkpt lat="29.03046" lon="-13.49709">
        <ele>107.6</ele>
        <time>2021-07-02 13:59:34</time>
      </trkpt>
      <trkpt lat="29.03049" lon="-13.49707">
        <ele>107.6</ele>
        <time>2021-07-02 13:59:35</time>
      </trkpt>
      <trkpt lat="29.03052" lon="-13.49706">
        <ele>107.6</ele>
        <time>2021-07-02 13:59:36</time>
      </trkpt>
      <trkpt lat="29.03054" lon="-13.49704">
        <ele>107.6</ele>
        <time>2021-07-02 13:59:37</time>
      </trkpt>
      <trkpt lat="29.03057" lon="-13.49702">
        <ele>107.6</ele>
        <time>2021-07-02 13:59:38</time>
      </trkpt>
      <trkpt lat="29.03059" lon="-13.497">
        <ele>109.6</ele>
        <time>2021-07-02 13:59:39</time>
      </trkpt>
      <trkpt lat="29.03061" lon="-13.49698">
        <ele>109</ele>
        <time>2021-07-02 13:59:40</time>
      </trkpt>
      <trkpt lat="29.03064" lon="-13.49696">
        <ele>108.4</ele>
        <time>2021-07-02 13:59:41</time>
      </trkpt>
      <trkpt lat="29.03067" lon="-13.49693">
        <ele>108.2</ele>
        <time>2021-07-02 13:59:42</time>
      </trkpt>
      <trkpt lat="29.03068" lon="-13.49691">
        <ele>107.4</ele>
        <time>2021-07-02 13:59:43</time>
      </trkpt>
      <trkpt lat="29.0307" lon="-13.49689">
        <ele>107.2</ele>
        <time>2021-07-02 13:59:44</time>
      </trkpt>
      <trkpt lat="29.03072" lon="-13.49687">
        <ele>107.2</ele>
        <time>2021-07-02 13:59:45</time>
      </trkpt>
      <trkpt lat="29.03073" lon="-13.49685">
        <ele>107.6</ele>
        <time>2021-07-02 13:59:46</time>
      </trkpt>
      <trkpt lat="29.03076" lon="-13.49682">
        <ele>106.8</ele>
        <time>2021-07-02 13:59:47</time>
      </trkpt>
      <trkpt lat="29.03078" lon="-13.4968">
        <ele>106.8</ele>
        <time>2021-07-02 13:59:48</time>
      </trkpt>
      <trkpt lat="29.0308" lon="-13.49679">
        <ele>109.6</ele>
        <time>2021-07-02 13:59:49</time>
      </trkpt>
      <trkpt lat="29.03081" lon="-13.49678">
        <ele>108.4</ele>
        <time>2021-07-02 13:59:50</time>
      </trkpt>
      <trkpt lat="29.03084" lon="-13.49676">
        <ele>107.6</ele>
        <time>2021-07-02 13:59:51</time>
      </trkpt>
      <trkpt lat="29.03086" lon="-13.49674">
        <ele>107.2</ele>
        <time>2021-07-02 13:59:52</time>
      </trkpt>
      <trkpt lat="29.03089" lon="-13.49673">
        <ele>106.8</ele>
        <time>2021-07-02 13:59:53</time>
      </trkpt>
      <trkpt lat="29.03091" lon="-13.49673">
        <ele>106.6</ele>
        <time>2021-07-02 13:59:54</time>
      </trkpt>
      <trkpt lat="29.03093" lon="-13.49673">
        <ele>106.4</ele>
        <time>2021-07-02 13:59:55</time>
      </trkpt>
      <trkpt lat="29.03093" lon="-13.49673">
        <ele>106.4</ele>
        <time>2021-07-02 13:59:56</time>
      </trkpt>
      <trkpt lat="29.03093" lon="-13.49673">
        <ele>106.2</ele>
        <time>2021-07-02 13:59:57</time>
      </trkpt>
      <trkpt lat="29.03093" lon="-13.49673">
        <ele>106.2</ele>
        <time>2021-07-02 13:59:58</time>
      </trkpt>
      <trkpt lat="29.03094" lon="-13.49673">
        <ele>105.2</ele>
        <time>2021-07-02 13:59:59</time>
      </trkpt>
      <trkpt lat="29.03096" lon="-13.49673">
        <ele>105.2</ele>
        <time>2021-07-02 14:00:00</time>
      </trkpt>
      <trkpt lat="29.03098" lon="-13.49673">
        <ele>105.4</ele>
        <time>2021-07-02 14:00:01</time>
      </trkpt>
      <trkpt lat="29.03101" lon="-13.49672">
        <ele>105.4</ele>
        <time>2021-07-02 14:00:02</time>
      </trkpt>
      <trkpt lat="29.03104" lon="-13.49671">
        <ele>105.8</ele>
        <time>2021-07-02 14:00:03</time>
      </trkpt>
      <trkpt lat="29.03107" lon="-13.4967">
        <ele>105.8</ele>
        <time>2021-07-02 14:00:04</time>
      </trkpt>
      <trkpt lat="29.03111" lon="-13.4967">
        <ele>105.8</ele>
        <time>2021-07-02 14:00:05</time>
      </trkpt>
      <trkpt lat="29.03115" lon="-13.4967">
        <ele>105.8</ele>
        <time>2021-07-02 14:00:06</time>
      </trkpt>
      <trkpt lat="29.03119" lon="-13.4967">
        <ele>105.8</ele>
        <time>2021-07-02 14:00:07</time>
      </trkpt>
      <trkpt lat="29.03123" lon="-13.49671">
        <ele>105.8</ele>
        <time>2021-07-02 14:00:08</time>
      </trkpt>
      <trkpt lat="29.03127" lon="-13.4967">
        <ele>105.8</ele>
        <time>2021-07-02 14:00:09</time>
      </trkpt>
      <trkpt lat="29.03131" lon="-13.4967">
        <ele>105.8</ele>
        <time>2021-07-02 14:00:10</time>
      </trkpt>
      <trkpt lat="29.03135" lon="-13.49669">
        <ele>105.8</ele>
        <time>2021-07-02 14:00:11</time>
      </trkpt>
      <trkpt lat="29.0314" lon="-13.49669">
        <ele>105.8</ele>
        <time>2021-07-02 14:00:12</time>
      </trkpt>
      <trkpt lat="29.03144" lon="-13.49669">
        <ele>105.8</ele>
        <time>2021-07-02 14:00:13</time>
      </trkpt>
      <trkpt lat="29.03148" lon="-13.49669">
        <ele>105.8</ele>
        <time>2021-07-02 14:00:14</time>
      </trkpt>
      <trkpt lat="29.03152" lon="-13.49669">
        <ele>105.8</ele>
        <time>2021-07-02 14:00:15</time>
      </trkpt>
      <trkpt lat="29.03157" lon="-13.49669">
        <ele>105.8</ele>
        <time>2021-07-02 14:00:16</time>
      </trkpt>
      <trkpt lat="29.03161" lon="-13.49668">
        <ele>105.8</ele>
        <time>2021-07-02 14:00:17</time>
      </trkpt>
      <trkpt lat="29.03165" lon="-13.49668">
        <ele>105.8</ele>
        <time>2021-07-02 14:00:18</time>
      </trkpt>
      <trkpt lat="29.03169" lon="-13.49667">
        <ele>105.8</ele>
        <time>2021-07-02 14:00:19</time>
      </trkpt>
      <trkpt lat="29.03173" lon="-13.49667">
        <ele>105.8</ele>
        <time>2021-07-02 14:00:20</time>
      </trkpt>
      <trkpt lat="29.03177" lon="-13.49667">
        <ele>105.8</ele>
        <time>2021-07-02 14:00:21</time>
      </trkpt>
      <trkpt lat="29.03182" lon="-13.49668">
        <ele>105.8</ele>
        <time>2021-07-02 14:00:22</time>
      </trkpt>
      <trkpt lat="29.03185" lon="-13.49669">
        <ele>105.8</ele>
        <time>2021-07-02 14:00:23</time>
      </trkpt>
      <trkpt lat="29.03189" lon="-13.4967">
        <ele>105.8</ele>
        <time>2021-07-02 14:00:24</time>
      </trkpt>
      <trkpt lat="29.03192" lon="-13.49672">
        <ele>105.8</ele>
        <time>2021-07-02 14:00:25</time>
      </trkpt>
      <trkpt lat="29.03195" lon="-13.49675">
        <ele>105.8</ele>
        <time>2021-07-02 14:00:26</time>
      </trkpt>
      <trkpt lat="29.03199" lon="-13.49677">
        <ele>105.8</ele>
        <time>2021-07-02 14:00:27</time>
      </trkpt>
      <trkpt lat="29.03202" lon="-13.4968">
        <ele>105.4</ele>
        <time>2021-07-02 14:00:28</time>
      </trkpt>
      <trkpt lat="29.03205" lon="-13.49682">
        <ele>105.4</ele>
        <time>2021-07-02 14:00:29</time>
      </trkpt>
      <trkpt lat="29.03209" lon="-13.49684">
        <ele>105.4</ele>
        <time>2021-07-02 14:00:30</time>
      </trkpt>
      <trkpt lat="29.03212" lon="-13.49685">
        <ele>105.2</ele>
        <time>2021-07-02 14:00:44</time>
      </trkpt>
      <trkpt lat="29.03216" lon="-13.49686">
        <ele>105.2</ele>
        <time>2021-07-02 14:00:45</time>
      </trkpt>
      <trkpt lat="29.0322" lon="-13.49687">
        <ele>105.2</ele>
        <time>2021-07-02 14:00:46</time>
      </trkpt>
      <trkpt lat="29.03224" lon="-13.49687">
        <ele>104.8</ele>
        <time>2021-07-02 14:00:47</time>
      </trkpt>
      <trkpt lat="29.03229" lon="-13.49687">
        <ele>104.8</ele>
        <time>2021-07-02 14:00:48</time>
      </trkpt>
      <trkpt lat="29.03233" lon="-13.49687">
        <ele>104.8</ele>
        <time>2021-07-02 14:00:49</time>
      </trkpt>
      <trkpt lat="29.03237" lon="-13.49687">
        <ele>104.8</ele>
        <time>2021-07-02 14:00:50</time>
      </trkpt>
      <trkpt lat="29.03241" lon="-13.49687">
        <ele>104.8</ele>
        <time>2021-07-02 14:00:51</time>
      </trkpt>
      <trkpt lat="29.03244" lon="-13.49688">
        <ele>104.8</ele>
        <time>2021-07-02 14:00:52</time>
      </trkpt>
      <trkpt lat="29.03248" lon="-13.49688">
        <ele>104.8</ele>
        <time>2021-07-02 14:00:53</time>
      </trkpt>
      <trkpt lat="29.03251" lon="-13.49688">
        <ele>104.8</ele>
        <time>2021-07-02 14:00:54</time>
      </trkpt>
      <trkpt lat="29.03255" lon="-13.49688">
        <ele>104.8</ele>
        <time>2021-07-02 14:00:55</time>
      </trkpt>
      <trkpt lat="29.03259" lon="-13.49689">
        <ele>104.8</ele>
        <time>2021-07-02 14:00:56</time>
      </trkpt>
      <trkpt lat="29.03262" lon="-13.49689">
        <ele>104.8</ele>
        <time>2021-07-02 14:00:57</time>
      </trkpt>
      <trkpt lat="29.03266" lon="-13.49689">
        <ele>104.8</ele>
        <time>2021-07-02 14:00:58</time>
      </trkpt>
      <trkpt lat="29.03269" lon="-13.49689">
        <ele>105.2</ele>
        <time>2021-07-02 14:00:59</time>
      </trkpt>
      <trkpt lat="29.03273" lon="-13.49689">
        <ele>105.2</ele>
        <time>2021-07-02 14:01:00</time>
      </trkpt>
      <trkpt lat="29.03277" lon="-13.49689">
        <ele>105.2</ele>
        <time>2021-07-02 14:01:01</time>
      </trkpt>
      <trkpt lat="29.0328" lon="-13.49689">
        <ele>105.2</ele>
        <time>2021-07-02 14:01:02</time>
      </trkpt>
      <trkpt lat="29.03284" lon="-13.4969">
        <ele>105.2</ele>
        <time>2021-07-02 14:01:03</time>
      </trkpt>
      <trkpt lat="29.03288" lon="-13.49691">
        <ele>105.2</ele>
        <time>2021-07-02 14:01:04</time>
      </trkpt>
      <trkpt lat="29.03292" lon="-13.49692">
        <ele>105.2</ele>
        <time>2021-07-02 14:01:05</time>
      </trkpt>
      <trkpt lat="29.03295" lon="-13.49694">
        <ele>105.2</ele>
        <time>2021-07-02 14:01:06</time>
      </trkpt>
      <trkpt lat="29.03299" lon="-13.49696">
        <ele>105.2</ele>
        <time>2021-07-02 14:01:07</time>
      </trkpt>
      <trkpt lat="29.03302" lon="-13.49697">
        <ele>105.2</ele>
        <time>2021-07-02 14:01:08</time>
      </trkpt>
      <trkpt lat="29.03305" lon="-13.49699">
        <ele>105.2</ele>
        <time>2021-07-02 14:01:09</time>
      </trkpt>
      <trkpt lat="29.03308" lon="-13.49702">
        <ele>105.2</ele>
        <time>2021-07-02 14:01:10</time>
      </trkpt>
      <trkpt lat="29.03312" lon="-13.49704">
        <ele>105.2</ele>
        <time>2021-07-02 14:01:11</time>
      </trkpt>
      <trkpt lat="29.03315" lon="-13.49706">
        <ele>105.2</ele>
        <time>2021-07-02 14:01:12</time>
      </trkpt>
      <trkpt lat="29.03318" lon="-13.49708">
        <ele>105.2</ele>
        <time>2021-07-02 14:01:13</time>
      </trkpt>
      <trkpt lat="29.03321" lon="-13.49711">
        <ele>105.2</ele>
        <time>2021-07-02 14:01:14</time>
      </trkpt>
      <trkpt lat="29.03324" lon="-13.49713">
        <ele>105.2</ele>
        <time>2021-07-02 14:01:15</time>
      </trkpt>
      <trkpt lat="29.03327" lon="-13.49716">
        <ele>105.2</ele>
        <time>2021-07-02 14:01:16</time>
      </trkpt>
      <trkpt lat="29.0333" lon="-13.49718">
        <ele>105.2</ele>
        <time>2021-07-02 14:01:17</time>
      </trkpt>
      <trkpt lat="29.03333" lon="-13.49721">
        <ele>105.2</ele>
        <time>2021-07-02 14:01:18</time>
      </trkpt>
      <trkpt lat="29.03336" lon="-13.49723">
        <ele>105.2</ele>
        <time>2021-07-02 14:01:19</time>
      </trkpt>
      <trkpt lat="29.03339" lon="-13.49726">
        <ele>105.2</ele>
        <time>2021-07-02 14:01:20</time>
      </trkpt>
      <trkpt lat="29.03342" lon="-13.49728">
        <ele>105.2</ele>
        <time>2021-07-02 14:01:21</time>
      </trkpt>
      <trkpt lat="29.03346" lon="-13.49731">
        <ele>105.2</ele>
        <time>2021-07-02 14:01:22</time>
      </trkpt>
      <trkpt lat="29.03348" lon="-13.49734">
        <ele>105.2</ele>
        <time>2021-07-02 14:01:23</time>
      </trkpt>
      <trkpt lat="29.03351" lon="-13.49737">
        <ele>105.2</ele>
        <time>2021-07-02 14:01:24</time>
      </trkpt>
      <trkpt lat="29.03353" lon="-13.49739">
        <ele>105</ele>
        <time>2021-07-02 14:01:25</time>
      </trkpt>
      <trkpt lat="29.03355" lon="-13.49742">
        <ele>105</ele>
        <time>2021-07-02 14:01:26</time>
      </trkpt>
      <trkpt lat="29.03357" lon="-13.49745">
        <ele>104.8</ele>
        <time>2021-07-02 14:01:27</time>
      </trkpt>
      <trkpt lat="29.03359" lon="-13.49747">
        <ele>104.4</ele>
        <time>2021-07-02 14:01:28</time>
      </trkpt>
      <trkpt lat="29.0336" lon="-13.4975">
        <ele>104.2</ele>
        <time>2021-07-02 14:01:29</time>
      </trkpt>
      <trkpt lat="29.03362" lon="-13.49752">
        <ele>104.2</ele>
        <time>2021-07-02 14:01:30</time>
      </trkpt>
      <trkpt lat="29.03362" lon="-13.49753">
        <ele>103.8</ele>
        <time>2021-07-02 14:01:31</time>
      </trkpt>
      <trkpt lat="29.03363" lon="-13.49754">
        <ele>103.8</ele>
        <time>2021-07-02 14:01:32</time>
      </trkpt>
      <trkpt lat="29.03363" lon="-13.49754">
        <ele>103.8</ele>
        <time>2021-07-02 14:01:33</time>
      </trkpt>
      <trkpt lat="29.03363" lon="-13.49754">
        <ele>103.6</ele>
        <time>2021-07-02 14:01:34</time>
      </trkpt>
      <trkpt lat="29.03363" lon="-13.49754">
        <ele>103.6</ele>
        <time>2021-07-02 14:01:35</time>
      </trkpt>
      <trkpt lat="29.03365" lon="-13.49754">
        <ele>102.4</ele>
        <time>2021-07-02 14:01:36</time>
      </trkpt>
      <trkpt lat="29.03366" lon="-13.49756">
        <ele>102.4</ele>
        <time>2021-07-02 14:01:37</time>
      </trkpt>
      <trkpt lat="29.03369" lon="-13.49765">
        <ele>102</ele>
        <time>2021-07-02 14:01:38</time>
      </trkpt>
      <trkpt lat="29.0337" lon="-13.49767">
        <ele>102.2</ele>
        <time>2021-07-02 14:01:39</time>
      </trkpt>
      <trkpt lat="29.03372" lon="-13.4977">
        <ele>101.8</ele>
        <time>2021-07-02 14:01:40</time>
      </trkpt>
      <trkpt lat="29.03374" lon="-13.49773">
        <ele>101.4</ele>
        <time>2021-07-02 14:01:41</time>
      </trkpt>
      <trkpt lat="29.03376" lon="-13.49776">
        <ele>101.2</ele>
        <time>2021-07-02 14:01:42</time>
      </trkpt>
      <trkpt lat="29.03378" lon="-13.4978">
        <ele>101.2</ele>
        <time>2021-07-02 14:01:43</time>
      </trkpt>
      <trkpt lat="29.0338" lon="-13.49784">
        <ele>101.2</ele>
        <time>2021-07-02 14:01:44</time>
      </trkpt>
      <trkpt lat="29.03382" lon="-13.49788">
        <ele>101</ele>
        <time>2021-07-02 14:01:45</time>
      </trkpt>
      <trkpt lat="29.03384" lon="-13.49791">
        <ele>101</ele>
        <time>2021-07-02 14:01:46</time>
      </trkpt>
      <trkpt lat="29.03386" lon="-13.49795">
        <ele>101</ele>
        <time>2021-07-02 14:01:47</time>
      </trkpt>
      <trkpt lat="29.03388" lon="-13.49798">
        <ele>100.6</ele>
        <time>2021-07-02 14:01:48</time>
      </trkpt>
      <trkpt lat="29.0339" lon="-13.49802">
        <ele>100.6</ele>
        <time>2021-07-02 14:01:49</time>
      </trkpt>
      <trkpt lat="29.03392" lon="-13.49806">
        <ele>100.4</ele>
        <time>2021-07-02 14:01:50</time>
      </trkpt>
      <trkpt lat="29.03395" lon="-13.49809">
        <ele>100.2</ele>
        <time>2021-07-02 14:01:51</time>
      </trkpt>
      <trkpt lat="29.03398" lon="-13.49813">
        <ele>99.8</ele>
        <time>2021-07-02 14:01:52</time>
      </trkpt>
      <trkpt lat="29.03402" lon="-13.49817">
        <ele>99.6</ele>
        <time>2021-07-02 14:01:53</time>
      </trkpt>
      <trkpt lat="29.03406" lon="-13.49821">
        <ele>99.6</ele>
        <time>2021-07-02 14:01:54</time>
      </trkpt>
      <trkpt lat="29.0341" lon="-13.49823">
        <ele>99.6</ele>
        <time>2021-07-02 14:01:55</time>
      </trkpt>
      <trkpt lat="29.03414" lon="-13.49825">
        <ele>99.6</ele>
        <time>2021-07-02 14:01:56</time>
      </trkpt>
      <trkpt lat="29.03418" lon="-13.49828">
        <ele>100.2</ele>
        <time>2021-07-02 14:01:57</time>
      </trkpt>
      <trkpt lat="29.0342" lon="-13.4983">
        <ele>99.4</ele>
        <time>2021-07-02 14:01:58</time>
      </trkpt>
      <trkpt lat="29.03423" lon="-13.49832">
        <ele>98.8</ele>
        <time>2021-07-02 14:01:59</time>
      </trkpt>
      <trkpt lat="29.03426" lon="-13.49835">
        <ele>98.4</ele>
        <time>2021-07-02 14:02:00</time>
      </trkpt>
      <trkpt lat="29.03429" lon="-13.49837">
        <ele>98</ele>
        <time>2021-07-02 14:02:01</time>
      </trkpt>
      <trkpt lat="29.03432" lon="-13.4984">
        <ele>98</ele>
        <time>2021-07-02 14:02:02</time>
      </trkpt>
      <trkpt lat="29.03435" lon="-13.49842">
        <ele>97.6</ele>
        <time>2021-07-02 14:02:03</time>
      </trkpt>
      <trkpt lat="29.03438" lon="-13.49845">
        <ele>97.4</ele>
        <time>2021-07-02 14:02:04</time>
      </trkpt>
      <trkpt lat="29.03441" lon="-13.49848">
        <ele>97.4</ele>
        <time>2021-07-02 14:02:05</time>
      </trkpt>
      <trkpt lat="29.03444" lon="-13.49851">
        <ele>97.4</ele>
        <time>2021-07-02 14:02:06</time>
      </trkpt>
      <trkpt lat="29.03446" lon="-13.49854">
        <ele>97.2</ele>
        <time>2021-07-02 14:02:07</time>
      </trkpt>
      <trkpt lat="29.03448" lon="-13.49857">
        <ele>97.2</ele>
        <time>2021-07-02 14:05:50</time>
      </trkpt>
      <trkpt lat="29.0345" lon="-13.4986">
        <ele>97</ele>
        <time>2021-07-02 14:05:51</time>
      </trkpt>
      <trkpt lat="29.03453" lon="-13.49862">
        <ele>97</ele>
        <time>2021-07-02 14:05:52</time>
      </trkpt>
      <trkpt lat="29.03456" lon="-13.49866">
        <ele>96.6</ele>
        <time>2021-07-02 14:05:53</time>
      </trkpt>
      <trkpt lat="29.03459" lon="-13.49869">
        <ele>96.6</ele>
        <time>2021-07-02 14:05:54</time>
      </trkpt>
      <trkpt lat="29.03462" lon="-13.49872">
        <ele>96.2</ele>
        <time>2021-07-02 14:05:55</time>
      </trkpt>
      <trkpt lat="29.03465" lon="-13.49877">
        <ele>96.2</ele>
        <time>2021-07-02 14:05:56</time>
      </trkpt>
      <trkpt lat="29.03468" lon="-13.49881">
        <ele>96.2</ele>
        <time>2021-07-02 14:05:57</time>
      </trkpt>
      <trkpt lat="29.03471" lon="-13.49885">
        <ele>96</ele>
        <time>2021-07-02 14:05:58</time>
      </trkpt>
      <trkpt lat="29.03474" lon="-13.49889">
        <ele>96</ele>
        <time>2021-07-02 14:05:59</time>
      </trkpt>
      <trkpt lat="29.03477" lon="-13.49893">
        <ele>95.8</ele>
        <time>2021-07-02 14:06:00</time>
      </trkpt>
      <trkpt lat="29.0348" lon="-13.49896">
        <ele>95.8</ele>
        <time>2021-07-02 14:06:01</time>
      </trkpt>
      <trkpt lat="29.03483" lon="-13.499">
        <ele>95.8</ele>
        <time>2021-07-02 14:06:02</time>
      </trkpt>
      <trkpt lat="29.03486" lon="-13.49904">
        <ele>95.8</ele>
        <time>2021-07-02 14:06:03</time>
      </trkpt>
      <trkpt lat="29.03489" lon="-13.49907">
        <ele>95.8</ele>
        <time>2021-07-02 14:06:04</time>
      </trkpt>
      <trkpt lat="29.03491" lon="-13.4991">
        <ele>95.6</ele>
        <time>2021-07-02 14:06:05</time>
      </trkpt>
      <trkpt lat="29.03494" lon="-13.49914">
        <ele>95.6</ele>
        <time>2021-07-02 14:06:06</time>
      </trkpt>
      <trkpt lat="29.03497" lon="-13.49917">
        <ele>95.6</ele>
        <time>2021-07-02 14:06:07</time>
      </trkpt>
      <trkpt lat="29.035" lon="-13.4992">
        <ele>95.6</ele>
        <time>2021-07-02 14:06:08</time>
      </trkpt>
      <trkpt lat="29.03503" lon="-13.49923">
        <ele>95.6</ele>
        <time>2021-07-02 14:06:09</time>
      </trkpt>
      <trkpt lat="29.03506" lon="-13.49926">
        <ele>95.6</ele>
        <time>2021-07-02 14:06:10</time>
      </trkpt>
      <trkpt lat="29.03508" lon="-13.49929">
        <ele>95.6</ele>
        <time>2021-07-02 14:06:11</time>
      </trkpt>
      <trkpt lat="29.0351" lon="-13.49932">
        <ele>95.6</ele>
        <time>2021-07-02 14:06:12</time>
      </trkpt>
      <trkpt lat="29.03512" lon="-13.49934">
        <ele>95.6</ele>
        <time>2021-07-02 14:06:13</time>
      </trkpt>
      <trkpt lat="29.03513" lon="-13.49935">
        <ele>95.6</ele>
        <time>2021-07-02 14:06:14</time>
      </trkpt>
      <trkpt lat="29.03513" lon="-13.49935">
        <ele>95.6</ele>
        <time>2021-07-02 14:06:15</time>
      </trkpt>
      <trkpt lat="29.03513" lon="-13.49935">
        <ele>95.6</ele>
        <time>2021-07-02 14:06:16</time>
      </trkpt>
      <trkpt lat="29.03512" lon="-13.49935">
        <ele>95.6</ele>
        <time>2021-07-02 14:06:17</time>
      </trkpt>
      <trkpt lat="29.03514" lon="-13.49938">
        <ele>94.8</ele>
        <time>2021-07-02 14:06:18</time>
      </trkpt>
      <trkpt lat="29.03515" lon="-13.49939">
        <ele>94.8</ele>
        <time>2021-07-02 14:06:19</time>
      </trkpt>
      <trkpt lat="29.03516" lon="-13.49942">
        <ele>94.8</ele>
        <time>2021-07-02 14:06:20</time>
      </trkpt>
      <trkpt lat="29.03518" lon="-13.49944">
        <ele>94.8</ele>
        <time>2021-07-02 14:06:21</time>
      </trkpt>
      <trkpt lat="29.03519" lon="-13.49946">
        <ele>94.8</ele>
        <time>2021-07-02 14:06:22</time>
      </trkpt>
      <trkpt lat="29.03521" lon="-13.49949">
        <ele>94.8</ele>
        <time>2021-07-02 14:06:23</time>
      </trkpt>
      <trkpt lat="29.03524" lon="-13.49952">
        <ele>94.8</ele>
        <time>2021-07-02 14:06:24</time>
      </trkpt>
      <trkpt lat="29.03526" lon="-13.49955">
        <ele>94.8</ele>
        <time>2021-07-02 14:06:25</time>
      </trkpt>
      <trkpt lat="29.03528" lon="-13.49958">
        <ele>94.8</ele>
        <time>2021-07-02 14:06:26</time>
      </trkpt>
      <trkpt lat="29.03531" lon="-13.49961">
        <ele>94.8</ele>
        <time>2021-07-02 14:06:27</time>
      </trkpt>
      <trkpt lat="29.03533" lon="-13.49965">
        <ele>94.8</ele>
        <time>2021-07-02 14:06:28</time>
      </trkpt>
      <trkpt lat="29.03535" lon="-13.49968">
        <ele>94.8</ele>
        <time>2021-07-02 14:06:29</time>
      </trkpt>
      <trkpt lat="29.03537" lon="-13.49972">
        <ele>94.8</ele>
        <time>2021-07-02 14:06:30</time>
      </trkpt>
      <trkpt lat="29.0354" lon="-13.49975">
        <ele>94.8</ele>
        <time>2021-07-02 14:06:31</time>
      </trkpt>
      <trkpt lat="29.03542" lon="-13.49979">
        <ele>94.8</ele>
        <time>2021-07-02 14:06:32</time>
      </trkpt>
      <trkpt lat="29.03545" lon="-13.49983">
        <ele>94.8</ele>
        <time>2021-07-02 14:06:33</time>
      </trkpt>
      <trkpt lat="29.03547" lon="-13.49987">
        <ele>94.8</ele>
        <time>2021-07-02 14:06:34</time>
      </trkpt>
      <trkpt lat="29.03549" lon="-13.4999">
        <ele>94.8</ele>
        <time>2021-07-02 14:06:35</time>
      </trkpt>
      <trkpt lat="29.03552" lon="-13.49994">
        <ele>94.8</ele>
        <time>2021-07-02 14:06:36</time>
      </trkpt>
      <trkpt lat="29.03554" lon="-13.49998">
        <ele>94.8</ele>
        <time>2021-07-02 14:06:37</time>
      </trkpt>
      <trkpt lat="29.03556" lon="-13.50002">
        <ele>94.8</ele>
        <time>2021-07-02 14:06:38</time>
      </trkpt>
      <trkpt lat="29.03559" lon="-13.50006">
        <ele>94.8</ele>
        <time>2021-07-02 14:06:39</time>
      </trkpt>
      <trkpt lat="29.03561" lon="-13.5001">
        <ele>94.8</ele>
        <time>2021-07-02 14:06:40</time>
      </trkpt>
      <trkpt lat="29.03563" lon="-13.50014">
        <ele>94.8</ele>
        <time>2021-07-02 14:06:41</time>
      </trkpt>
      <trkpt lat="29.03566" lon="-13.50019">
        <ele>94.8</ele>
        <time>2021-07-02 14:06:42</time>
      </trkpt>
      <trkpt lat="29.03568" lon="-13.50023">
        <ele>94.8</ele>
        <time>2021-07-02 14:06:43</time>
      </trkpt>
      <trkpt lat="29.03571" lon="-13.50027">
        <ele>94.8</ele>
        <time>2021-07-02 14:06:44</time>
      </trkpt>
      <trkpt lat="29.03574" lon="-13.50031">
        <ele>94.8</ele>
        <time>2021-07-02 14:06:45</time>
      </trkpt>
      <trkpt lat="29.03576" lon="-13.50035">
        <ele>94.8</ele>
        <time>2021-07-02 14:06:46</time>
      </trkpt>
      <trkpt lat="29.03578" lon="-13.50039">
        <ele>94.8</ele>
        <time>2021-07-02 14:06:47</time>
      </trkpt>
      <trkpt lat="29.0358" lon="-13.50043">
        <ele>94.8</ele>
        <time>2021-07-02 14:06:48</time>
      </trkpt>
      <trkpt lat="29.03583" lon="-13.50047">
        <ele>94.8</ele>
        <time>2021-07-02 14:06:49</time>
      </trkpt>
      <trkpt lat="29.03585" lon="-13.50051">
        <ele>94.8</ele>
        <time>2021-07-02 14:06:50</time>
      </trkpt>
      <trkpt lat="29.03587" lon="-13.50055">
        <ele>95</ele>
        <time>2021-07-02 14:06:51</time>
      </trkpt>
      <trkpt lat="29.0359" lon="-13.50059">
        <ele>95</ele>
        <time>2021-07-02 14:06:52</time>
      </trkpt>
      <trkpt lat="29.03592" lon="-13.50064">
        <ele>95.2</ele>
        <time>2021-07-02 14:07:12</time>
      </trkpt>
      <trkpt lat="29.03593" lon="-13.50068">
        <ele>95.2</ele>
        <time>2021-07-02 14:07:13</time>
      </trkpt>
      <trkpt lat="29.03596" lon="-13.50073">
        <ele>95.2</ele>
        <time>2021-07-02 14:07:14</time>
      </trkpt>
      <trkpt lat="29.03598" lon="-13.50077">
        <ele>95.2</ele>
        <time>2021-07-02 14:07:15</time>
      </trkpt>
      <trkpt lat="29.03601" lon="-13.50082">
        <ele>95.2</ele>
        <time>2021-07-02 14:07:16</time>
      </trkpt>
      <trkpt lat="29.03603" lon="-13.50086">
        <ele>95.2</ele>
        <time>2021-07-02 14:07:17</time>
      </trkpt>
      <trkpt lat="29.03606" lon="-13.5009">
        <ele>95.2</ele>
        <time>2021-07-02 14:07:18</time>
      </trkpt>
      <trkpt lat="29.03608" lon="-13.50094">
        <ele>95.2</ele>
        <time>2021-07-02 14:07:19</time>
      </trkpt>
      <trkpt lat="29.0361" lon="-13.50098">
        <ele>95.2</ele>
        <time>2021-07-02 14:07:20</time>
      </trkpt>
      <trkpt lat="29.03613" lon="-13.50102">
        <ele>95.2</ele>
        <time>2021-07-02 14:07:21</time>
      </trkpt>
      <trkpt lat="29.03616" lon="-13.50107">
        <ele>95.2</ele>
        <time>2021-07-02 14:07:22</time>
      </trkpt>
      <trkpt lat="29.03619" lon="-13.50111">
        <ele>95.2</ele>
        <time>2021-07-02 14:07:23</time>
      </trkpt>
      <trkpt lat="29.03621" lon="-13.50115">
        <ele>95.2</ele>
        <time>2021-07-02 14:07:24</time>
      </trkpt>
      <trkpt lat="29.03624" lon="-13.5012">
        <ele>95.2</ele>
        <time>2021-07-02 14:07:25</time>
      </trkpt>
      <trkpt lat="29.03626" lon="-13.50124">
        <ele>95.2</ele>
        <time>2021-07-02 14:07:26</time>
      </trkpt>
      <trkpt lat="29.0363" lon="-13.50127">
        <ele>95</ele>
        <time>2021-07-02 14:07:27</time>
      </trkpt>
      <trkpt lat="29.03632" lon="-13.50131">
        <ele>94.6</ele>
        <time>2021-07-02 14:07:28</time>
      </trkpt>
      <trkpt lat="29.03634" lon="-13.50134">
        <ele>94.4</ele>
        <time>2021-07-02 14:07:29</time>
      </trkpt>
      <trkpt lat="29.03637" lon="-13.50138">
        <ele>94.4</ele>
        <time>2021-07-02 14:07:30</time>
      </trkpt>
      <trkpt lat="29.03639" lon="-13.50142">
        <ele>94</ele>
        <time>2021-07-02 14:07:31</time>
      </trkpt>
      <trkpt lat="29.03641" lon="-13.50145">
        <ele>94</ele>
        <time>2021-07-02 14:07:32</time>
      </trkpt>
      <trkpt lat="29.03643" lon="-13.50149">
        <ele>94</ele>
        <time>2021-07-02 14:07:33</time>
      </trkpt>
      <trkpt lat="29.03646" lon="-13.50153">
        <ele>94</ele>
        <time>2021-07-02 14:07:34</time>
      </trkpt>
      <trkpt lat="29.03648" lon="-13.50156">
        <ele>94</ele>
        <time>2021-07-02 14:07:35</time>
      </trkpt>
      <trkpt lat="29.0365" lon="-13.50159">
        <ele>94</ele>
        <time>2021-07-02 14:07:36</time>
      </trkpt>
      <trkpt lat="29.03652" lon="-13.50163">
        <ele>94</ele>
        <time>2021-07-02 14:07:37</time>
      </trkpt>
      <trkpt lat="29.03655" lon="-13.50166">
        <ele>94</ele>
        <time>2021-07-02 14:07:38</time>
      </trkpt>
      <trkpt lat="29.03657" lon="-13.5017">
        <ele>94</ele>
        <time>2021-07-02 14:07:39</time>
      </trkpt>
      <trkpt lat="29.03658" lon="-13.50174">
        <ele>93.8</ele>
        <time>2021-07-02 14:07:40</time>
      </trkpt>
      <trkpt lat="29.0366" lon="-13.50177">
        <ele>93.8</ele>
        <time>2021-07-02 14:07:41</time>
      </trkpt>
      <trkpt lat="29.03662" lon="-13.5018">
        <ele>93.8</ele>
        <time>2021-07-02 14:07:42</time>
      </trkpt>
      <trkpt lat="29.03665" lon="-13.50183">
        <ele>93.8</ele>
        <time>2021-07-02 14:07:43</time>
      </trkpt>
      <trkpt lat="29.03667" lon="-13.50186">
        <ele>93.8</ele>
        <time>2021-07-02 14:07:44</time>
      </trkpt>
      <trkpt lat="29.03668" lon="-13.50188">
        <ele>93.8</ele>
        <time>2021-07-02 14:07:45</time>
      </trkpt>
      <trkpt lat="29.03669" lon="-13.50189">
        <ele>94.2</ele>
        <time>2021-07-02 14:07:46</time>
      </trkpt>
      <trkpt lat="29.0367" lon="-13.50189">
        <ele>94.2</ele>
        <time>2021-07-02 14:07:47</time>
      </trkpt>
      <trkpt lat="29.0367" lon="-13.5019">
        <ele>94.2</ele>
        <time>2021-07-02 14:07:48</time>
      </trkpt>
      <trkpt lat="29.03671" lon="-13.50192">
        <ele>94.4</ele>
        <time>2021-07-02 14:07:49</time>
      </trkpt>
      <trkpt lat="29.03672" lon="-13.50193">
        <ele>94.4</ele>
        <time>2021-07-02 14:07:50</time>
      </trkpt>
      <trkpt lat="29.03673" lon="-13.50195">
        <ele>94.4</ele>
        <time>2021-07-02 14:07:51</time>
      </trkpt>
      <trkpt lat="29.03675" lon="-13.50197">
        <ele>94.4</ele>
        <time>2021-07-02 14:07:52</time>
      </trkpt>
      <trkpt lat="29.03676" lon="-13.502">
        <ele>94.4</ele>
        <time>2021-07-02 14:07:53</time>
      </trkpt>
      <trkpt lat="29.03678" lon="-13.50203">
        <ele>94.4</ele>
        <time>2021-07-02 14:07:54</time>
      </trkpt>
      <trkpt lat="29.0368" lon="-13.50206">
        <ele>94.4</ele>
        <time>2021-07-02 14:07:55</time>
      </trkpt>
      <trkpt lat="29.03682" lon="-13.50209">
        <ele>94.4</ele>
        <time>2021-07-02 14:07:56</time>
      </trkpt>
      <trkpt lat="29.03684" lon="-13.50212">
        <ele>94.4</ele>
        <time>2021-07-02 14:07:57</time>
      </trkpt>
      <trkpt lat="29.03686" lon="-13.50215">
        <ele>94.4</ele>
        <time>2021-07-02 14:07:58</time>
      </trkpt>
      <trkpt lat="29.03688" lon="-13.50218">
        <ele>94.4</ele>
        <time>2021-07-02 14:07:59</time>
      </trkpt>
      <trkpt lat="29.0369" lon="-13.50222">
        <ele>94.4</ele>
        <time>2021-07-02 14:08:00</time>
      </trkpt>
      <trkpt lat="29.03692" lon="-13.50225">
        <ele>94.4</ele>
        <time>2021-07-02 14:08:01</time>
      </trkpt>
      <trkpt lat="29.03694" lon="-13.50228">
        <ele>94.4</ele>
        <time>2021-07-02 14:08:02</time>
      </trkpt>
      <trkpt lat="29.03696" lon="-13.50232">
        <ele>94.4</ele>
        <time>2021-07-02 14:08:03</time>
      </trkpt>
      <trkpt lat="29.03698" lon="-13.50235">
        <ele>94.4</ele>
        <time>2021-07-02 14:08:04</time>
      </trkpt>
      <trkpt lat="29.03701" lon="-13.50238">
        <ele>94.4</ele>
        <time>2021-07-02 14:08:05</time>
      </trkpt>
      <trkpt lat="29.03702" lon="-13.50242">
        <ele>94.4</ele>
        <time>2021-07-02 14:08:06</time>
      </trkpt>
      <trkpt lat="29.03704" lon="-13.50245">
        <ele>94.4</ele>
        <time>2021-07-02 14:08:07</time>
      </trkpt>
      <trkpt lat="29.03706" lon="-13.50247">
        <ele>94.4</ele>
        <time>2021-07-02 14:08:08</time>
      </trkpt>
      <trkpt lat="29.03707" lon="-13.50249">
        <ele>94.4</ele>
        <time>2021-07-02 14:08:09</time>
      </trkpt>
      <trkpt lat="29.03708" lon="-13.5025">
        <ele>94.4</ele>
        <time>2021-07-02 14:08:10</time>
      </trkpt>
      <trkpt lat="29.03709" lon="-13.50252">
        <ele>94.4</ele>
        <time>2021-07-02 14:08:11</time>
      </trkpt>
      <trkpt lat="29.03709" lon="-13.50253">
        <ele>94.4</ele>
        <time>2021-07-02 14:08:12</time>
      </trkpt>
      <trkpt lat="29.0371" lon="-13.50254">
        <ele>94.4</ele>
        <time>2021-07-02 14:08:13</time>
      </trkpt>
      <trkpt lat="29.03711" lon="-13.50255">
        <ele>94.4</ele>
        <time>2021-07-02 14:08:14</time>
      </trkpt>
      <trkpt lat="29.03713" lon="-13.50255">
        <ele>94.4</ele>
        <time>2021-07-02 14:08:15</time>
      </trkpt>
      <trkpt lat="29.03714" lon="-13.50255">
        <ele>94.4</ele>
        <time>2021-07-02 14:08:16</time>
      </trkpt>
      <trkpt lat="29.03716" lon="-13.50253">
        <ele>94.4</ele>
        <time>2021-07-02 14:08:17</time>
      </trkpt>
      <trkpt lat="29.03718" lon="-13.50251">
        <ele>94.8</ele>
        <time>2021-07-02 14:08:18</time>
      </trkpt>
      <trkpt lat="29.0372" lon="-13.50249">
        <ele>94.8</ele>
        <time>2021-07-02 14:08:19</time>
      </trkpt>
      <trkpt lat="29.03723" lon="-13.50247">
        <ele>94.8</ele>
        <time>2021-07-02 14:08:20</time>
      </trkpt>
      <trkpt lat="29.03726" lon="-13.50245">
        <ele>95</ele>
        <time>2021-07-02 14:08:21</time>
      </trkpt>
      <trkpt lat="29.03728" lon="-13.50243">
        <ele>95</ele>
        <time>2021-07-02 14:08:22</time>
      </trkpt>
      <trkpt lat="29.03731" lon="-13.5024">
        <ele>95</ele>
        <time>2021-07-02 14:08:23</time>
      </trkpt>
      <trkpt lat="29.03734" lon="-13.50238">
        <ele>95</ele>
        <time>2021-07-02 14:08:24</time>
      </trkpt>
      <trkpt lat="29.03737" lon="-13.50235">
        <ele>95.2</ele>
        <time>2021-07-02 14:08:25</time>
      </trkpt>
      <trkpt lat="29.03739" lon="-13.50233">
        <ele>95.2</ele>
        <time>2021-07-02 14:08:26</time>
      </trkpt>
      <trkpt lat="29.03742" lon="-13.5023">
        <ele>95.2</ele>
        <time>2021-07-02 14:08:27</time>
      </trkpt>
      <trkpt lat="29.03745" lon="-13.50227">
        <ele>95.2</ele>
        <time>2021-07-02 14:08:28</time>
      </trkpt>
      <trkpt lat="29.03749" lon="-13.50224">
        <ele>95.2</ele>
        <time>2021-07-02 14:08:29</time>
      </trkpt>
      <trkpt lat="29.03752" lon="-13.50222">
        <ele>95.4</ele>
        <time>2021-07-02 14:08:30</time>
      </trkpt>
      <trkpt lat="29.03755" lon="-13.5022">
        <ele>95.4</ele>
        <time>2021-07-02 14:08:31</time>
      </trkpt>
      <trkpt lat="29.03758" lon="-13.50217">
        <ele>95.4</ele>
        <time>2021-07-02 14:08:32</time>
      </trkpt>
      <trkpt lat="29.03762" lon="-13.50215">
        <ele>95.4</ele>
        <time>2021-07-02 14:08:33</time>
      </trkpt>
      <trkpt lat="29.03765" lon="-13.50214">
        <ele>95.4</ele>
        <time>2021-07-02 14:08:34</time>
      </trkpt>
      <trkpt lat="29.03768" lon="-13.50212">
        <ele>95.4</ele>
        <time>2021-07-02 14:08:35</time>
      </trkpt>
      <trkpt lat="29.03771" lon="-13.50209">
        <ele>95.4</ele>
        <time>2021-07-02 14:08:36</time>
      </trkpt>
      <trkpt lat="29.03774" lon="-13.50207">
        <ele>95.4</ele>
        <time>2021-07-02 14:08:37</time>
      </trkpt>
      <trkpt lat="29.03777" lon="-13.50205">
        <ele>95.4</ele>
        <time>2021-07-02 14:08:38</time>
      </trkpt>
      <trkpt lat="29.0378" lon="-13.50203">
        <ele>95.4</ele>
        <time>2021-07-02 14:08:39</time>
      </trkpt>
      <trkpt lat="29.03784" lon="-13.50201">
        <ele>95.4</ele>
        <time>2021-07-02 14:08:40</time>
      </trkpt>
      <trkpt lat="29.03787" lon="-13.50199">
        <ele>95.4</ele>
        <time>2021-07-02 14:08:41</time>
      </trkpt>
      <trkpt lat="29.0379" lon="-13.50197">
        <ele>95.4</ele>
        <time>2021-07-02 14:08:42</time>
      </trkpt>
      <trkpt lat="29.03793" lon="-13.50195">
        <ele>95.4</ele>
        <time>2021-07-02 14:08:43</time>
      </trkpt>
      <trkpt lat="29.03796" lon="-13.50193">
        <ele>95.4</ele>
        <time>2021-07-02 14:08:44</time>
      </trkpt>
      <trkpt lat="29.03799" lon="-13.50191">
        <ele>95.4</ele>
        <time>2021-07-02 14:08:45</time>
      </trkpt>
      <trkpt lat="29.03803" lon="-13.50189">
        <ele>95.4</ele>
        <time>2021-07-02 14:08:46</time>
      </trkpt>
      <trkpt lat="29.03806" lon="-13.50187">
        <ele>95.4</ele>
        <time>2021-07-02 14:08:47</time>
      </trkpt>
      <trkpt lat="29.03809" lon="-13.50185">
        <ele>95.4</ele>
        <time>2021-07-02 14:08:48</time>
      </trkpt>
      <trkpt lat="29.03812" lon="-13.50183">
        <ele>95.2</ele>
        <time>2021-07-02 14:08:49</time>
      </trkpt>
      <trkpt lat="29.03816" lon="-13.50181">
        <ele>95.2</ele>
        <time>2021-07-02 14:08:50</time>
      </trkpt>
      <trkpt lat="29.03819" lon="-13.50179">
        <ele>95.2</ele>
        <time>2021-07-02 14:08:51</time>
      </trkpt>
      <trkpt lat="29.03823" lon="-13.50177">
        <ele>95</ele>
        <time>2021-07-02 14:08:52</time>
      </trkpt>
      <trkpt lat="29.03827" lon="-13.50175">
        <ele>95</ele>
        <time>2021-07-02 14:08:53</time>
      </trkpt>
      <trkpt lat="29.03831" lon="-13.50172">
        <ele>94.6</ele>
        <time>2021-07-02 14:08:54</time>
      </trkpt>
      <trkpt lat="29.03835" lon="-13.5017">
        <ele>94.6</ele>
        <time>2021-07-02 14:08:55</time>
      </trkpt>
      <trkpt lat="29.03838" lon="-13.50168">
        <ele>94.2</ele>
        <time>2021-07-02 14:08:56</time>
      </trkpt>
      <trkpt lat="29.03841" lon="-13.50166">
        <ele>94.2</ele>
        <time>2021-07-02 14:08:57</time>
      </trkpt>
      <trkpt lat="29.03844" lon="-13.50164">
        <ele>94</ele>
        <time>2021-07-02 14:08:58</time>
      </trkpt>
      <trkpt lat="29.03847" lon="-13.50163">
        <ele>94</ele>
        <time>2021-07-02 14:08:59</time>
      </trkpt>
      <trkpt lat="29.03849" lon="-13.5016">
        <ele>94.6</ele>
        <time>2021-07-02 14:09:00</time>
      </trkpt>
      <trkpt lat="29.03851" lon="-13.50159">
        <ele>94.2</ele>
        <time>2021-07-02 14:09:01</time>
      </trkpt>
      <trkpt lat="29.03853" lon="-13.50158">
        <ele>94</ele>
        <time>2021-07-02 14:09:02</time>
      </trkpt>
      <trkpt lat="29.03855" lon="-13.50157">
        <ele>93.6</ele>
        <time>2021-07-02 14:09:03</time>
      </trkpt>
      <trkpt lat="29.03856" lon="-13.50155">
        <ele>93.6</ele>
        <time>2021-07-02 14:09:04</time>
      </trkpt>
      <trkpt lat="29.03857" lon="-13.50155">
        <ele>93.6</ele>
        <time>2021-07-02 14:09:05</time>
      </trkpt>
      <trkpt lat="29.03859" lon="-13.50155">
        <ele>93.6</ele>
        <time>2021-07-02 14:09:06</time>
      </trkpt>
      <trkpt lat="29.03861" lon="-13.50154">
        <ele>93.6</ele>
        <time>2021-07-02 14:09:07</time>
      </trkpt>
      <trkpt lat="29.03863" lon="-13.50154">
        <ele>93.6</ele>
        <time>2021-07-02 14:09:08</time>
      </trkpt>
      <trkpt lat="29.03865" lon="-13.50153">
        <ele>93.6</ele>
        <time>2021-07-02 14:09:09</time>
      </trkpt>
      <trkpt lat="29.03866" lon="-13.50152">
        <ele>93.6</ele>
        <time>2021-07-02 14:09:10</time>
      </trkpt>
      <trkpt lat="29.03868" lon="-13.50152">
        <ele>93.6</ele>
        <time>2021-07-02 14:09:11</time>
      </trkpt>
      <trkpt lat="29.03869" lon="-13.50152">
        <ele>93.6</ele>
        <time>2021-07-02 14:09:12</time>
      </trkpt>
      <trkpt lat="29.0387" lon="-13.50152">
        <ele>94</ele>
        <time>2021-07-02 14:09:13</time>
      </trkpt>
      <trkpt lat="29.03872" lon="-13.50152">
        <ele>94.4</ele>
        <time>2021-07-02 14:09:14</time>
      </trkpt>
      <trkpt lat="29.03874" lon="-13.50153">
        <ele>94.4</ele>
        <time>2021-07-02 14:09:15</time>
      </trkpt>
      <trkpt lat="29.03875" lon="-13.50153">
        <ele>94.4</ele>
        <time>2021-07-02 14:09:16</time>
      </trkpt>
      <trkpt lat="29.03876" lon="-13.50152">
        <ele>94.4</ele>
        <time>2021-07-02 14:09:17</time>
      </trkpt>
      <trkpt lat="29.03878" lon="-13.50152">
        <ele>94.4</ele>
        <time>2021-07-02 14:09:18</time>
      </trkpt>
      <trkpt lat="29.03879" lon="-13.50152">
        <ele>94.4</ele>
        <time>2021-07-02 14:09:19</time>
      </trkpt>
      <trkpt lat="29.03881" lon="-13.50151">
        <ele>94.6</ele>
        <time>2021-07-02 14:09:20</time>
      </trkpt>
      <trkpt lat="29.03884" lon="-13.50151">
        <ele>94.6</ele>
        <time>2021-07-02 14:09:21</time>
      </trkpt>
      <trkpt lat="29.03886" lon="-13.5015">
        <ele>94.6</ele>
        <time>2021-07-02 14:09:22</time>
      </trkpt>
      <trkpt lat="29.03888" lon="-13.50149">
        <ele>95</ele>
        <time>2021-07-02 14:09:23</time>
      </trkpt>
      <trkpt lat="29.0389" lon="-13.50149">
        <ele>95</ele>
        <time>2021-07-02 14:09:24</time>
      </trkpt>
      <trkpt lat="29.03892" lon="-13.50148">
        <ele>95.2</ele>
        <time>2021-07-02 14:09:25</time>
      </trkpt>
      <trkpt lat="29.03894" lon="-13.50147">
        <ele>95.2</ele>
        <time>2021-07-02 14:09:26</time>
      </trkpt>
      <trkpt lat="29.03897" lon="-13.50146">
        <ele>95.6</ele>
        <time>2021-07-02 14:09:27</time>
      </trkpt>
      <trkpt lat="29.03899" lon="-13.50145">
        <ele>95.6</ele>
        <time>2021-07-02 14:09:28</time>
      </trkpt>
      <trkpt lat="29.03902" lon="-13.50144">
        <ele>95.8</ele>
        <time>2021-07-02 14:09:29</time>
      </trkpt>
      <trkpt lat="29.03905" lon="-13.50143">
        <ele>95.8</ele>
        <time>2021-07-02 14:09:30</time>
      </trkpt>
      <trkpt lat="29.03908" lon="-13.50142">
        <ele>95.8</ele>
        <time>2021-07-02 14:09:31</time>
      </trkpt>
      <trkpt lat="29.03911" lon="-13.50142">
        <ele>95.8</ele>
        <time>2021-07-02 14:09:32</time>
      </trkpt>
      <trkpt lat="29.03914" lon="-13.50142">
        <ele>96</ele>
        <time>2021-07-02 14:09:33</time>
      </trkpt>
      <trkpt lat="29.03918" lon="-13.50141">
        <ele>96</ele>
        <time>2021-07-02 14:09:34</time>
      </trkpt>
      <trkpt lat="29.03921" lon="-13.50141">
        <ele>96</ele>
        <time>2021-07-02 14:09:35</time>
      </trkpt>
      <trkpt lat="29.03924" lon="-13.50141">
        <ele>96</ele>
        <time>2021-07-02 14:09:36</time>
      </trkpt>
      <trkpt lat="29.03927" lon="-13.5014">
        <ele>96</ele>
        <time>2021-07-02 14:09:37</time>
      </trkpt>
      <trkpt lat="29.0393" lon="-13.5014">
        <ele>96</ele>
        <time>2021-07-02 14:09:38</time>
      </trkpt>
      <trkpt lat="29.03933" lon="-13.50139">
        <ele>96</ele>
        <time>2021-07-02 14:09:39</time>
      </trkpt>
      <trkpt lat="29.03936" lon="-13.50139">
        <ele>96</ele>
        <time>2021-07-02 14:09:40</time>
      </trkpt>
      <trkpt lat="29.03938" lon="-13.50138">
        <ele>96</ele>
        <time>2021-07-02 14:09:41</time>
      </trkpt>
      <trkpt lat="29.0394" lon="-13.50138">
        <ele>96.2</ele>
        <time>2021-07-02 14:09:42</time>
      </trkpt>
      <trkpt lat="29.03942" lon="-13.50138">
        <ele>96.2</ele>
        <time>2021-07-02 14:09:43</time>
      </trkpt>
      <trkpt lat="29.03945" lon="-13.50138">
        <ele>96.2</ele>
        <time>2021-07-02 14:09:44</time>
      </trkpt>
      <trkpt lat="29.03948" lon="-13.50137">
        <ele>96.2</ele>
        <time>2021-07-02 14:09:45</time>
      </trkpt>
      <trkpt lat="29.0395" lon="-13.50136">
        <ele>96.4</ele>
        <time>2021-07-02 14:09:46</time>
      </trkpt>
      <trkpt lat="29.03953" lon="-13.50134">
        <ele>96.4</ele>
        <time>2021-07-02 14:09:47</time>
      </trkpt>
      <trkpt lat="29.03955" lon="-13.50132">
        <ele>96.4</ele>
        <time>2021-07-02 14:09:48</time>
      </trkpt>
      <trkpt lat="29.03957" lon="-13.5013">
        <ele>96.4</ele>
        <time>2021-07-02 14:09:49</time>
      </trkpt>
      <trkpt lat="29.03959" lon="-13.50129">
        <ele>96.4</ele>
        <time>2021-07-02 14:09:50</time>
      </trkpt>
      <trkpt lat="29.03961" lon="-13.50127">
        <ele>96.6</ele>
        <time>2021-07-02 14:09:51</time>
      </trkpt>
      <trkpt lat="29.03964" lon="-13.50125">
        <ele>96.6</ele>
        <time>2021-07-02 14:09:52</time>
      </trkpt>
      <trkpt lat="29.03966" lon="-13.50122">
        <ele>97</ele>
        <time>2021-07-02 14:09:53</time>
      </trkpt>
      <trkpt lat="29.03967" lon="-13.50121">
        <ele>97</ele>
        <time>2021-07-02 14:09:54</time>
      </trkpt>
      <trkpt lat="29.03969" lon="-13.50119">
        <ele>97.2</ele>
        <time>2021-07-02 14:09:55</time>
      </trkpt>
      <trkpt lat="29.03971" lon="-13.50118">
        <ele>97.2</ele>
        <time>2021-07-02 14:09:56</time>
      </trkpt>
      <trkpt lat="29.03973" lon="-13.50117">
        <ele>97.6</ele>
        <time>2021-07-02 14:09:57</time>
      </trkpt>
      <trkpt lat="29.03975" lon="-13.50116">
        <ele>97.6</ele>
        <time>2021-07-02 14:09:58</time>
      </trkpt>
      <trkpt lat="29.03977" lon="-13.50115">
        <ele>97.8</ele>
        <time>2021-07-02 14:09:59</time>
      </trkpt>
      <trkpt lat="29.03979" lon="-13.50114">
        <ele>97.8</ele>
        <time>2021-07-02 14:10:00</time>
      </trkpt>
      <trkpt lat="29.03981" lon="-13.50113">
        <ele>98.2</ele>
        <time>2021-07-02 14:10:01</time>
      </trkpt>
      <trkpt lat="29.03984" lon="-13.50112">
        <ele>98.2</ele>
        <time>2021-07-02 14:10:02</time>
      </trkpt>
      <trkpt lat="29.03986" lon="-13.50111">
        <ele>98.4</ele>
        <time>2021-07-02 14:10:03</time>
      </trkpt>
      <trkpt lat="29.03989" lon="-13.5011">
        <ele>98.4</ele>
        <time>2021-07-02 14:10:04</time>
      </trkpt>
      <trkpt lat="29.03991" lon="-13.50109">
        <ele>98.6</ele>
        <time>2021-07-02 14:10:05</time>
      </trkpt>
      <trkpt lat="29.03994" lon="-13.50108">
        <ele>98.6</ele>
        <time>2021-07-02 14:10:06</time>
      </trkpt>
      <trkpt lat="29.03996" lon="-13.50107">
        <ele>98.6</ele>
        <time>2021-07-02 14:10:07</time>
      </trkpt>
      <trkpt lat="29.03999" lon="-13.50106">
        <ele>98.8</ele>
        <time>2021-07-02 14:10:08</time>
      </trkpt>
      <trkpt lat="29.04002" lon="-13.50105">
        <ele>98.8</ele>
        <time>2021-07-02 14:10:09</time>
      </trkpt>
      <trkpt lat="29.04004" lon="-13.50104">
        <ele>99.2</ele>
        <time>2021-07-02 14:10:10</time>
      </trkpt>
      <trkpt lat="29.04006" lon="-13.50103">
        <ele>99.2</ele>
        <time>2021-07-02 14:10:11</time>
      </trkpt>
      <trkpt lat="29.04009" lon="-13.50102">
        <ele>99.4</ele>
        <time>2021-07-02 14:10:12</time>
      </trkpt>
      <trkpt lat="29.04011" lon="-13.50101">
        <ele>99.4</ele>
        <time>2021-07-02 14:10:13</time>
      </trkpt>
      <trkpt lat="29.04014" lon="-13.50101">
        <ele>99.6</ele>
        <time>2021-07-02 14:10:14</time>
      </trkpt>
      <trkpt lat="29.04016" lon="-13.501">
        <ele>99.6</ele>
        <time>2021-07-02 14:10:15</time>
      </trkpt>
      <trkpt lat="29.04019" lon="-13.50099">
        <ele>99.6</ele>
        <time>2021-07-02 14:10:16</time>
      </trkpt>
      <trkpt lat="29.04022" lon="-13.50097">
        <ele>99.8</ele>
        <time>2021-07-02 14:10:17</time>
      </trkpt>
      <trkpt lat="29.04024" lon="-13.50096">
        <ele>99.8</ele>
        <time>2021-07-02 14:10:18</time>
      </trkpt>
      <trkpt lat="29.04027" lon="-13.50095">
        <ele>99.8</ele>
        <time>2021-07-02 14:10:19</time>
      </trkpt>
      <trkpt lat="29.04029" lon="-13.50093">
        <ele>100.2</ele>
        <time>2021-07-02 14:10:20</time>
      </trkpt>
      <trkpt lat="29.04031" lon="-13.50092">
        <ele>100.2</ele>
        <time>2021-07-02 14:10:21</time>
      </trkpt>
      <trkpt lat="29.04034" lon="-13.50091">
        <ele>100.2</ele>
        <time>2021-07-02 14:10:22</time>
      </trkpt>
      <trkpt lat="29.04037" lon="-13.50089">
        <ele>100.4</ele>
        <time>2021-07-02 14:10:23</time>
      </trkpt>
      <trkpt lat="29.04039" lon="-13.50088">
        <ele>100.4</ele>
        <time>2021-07-02 14:10:24</time>
      </trkpt>
      <trkpt lat="29.04042" lon="-13.50087">
        <ele>100.6</ele>
        <time>2021-07-02 14:10:25</time>
      </trkpt>
      <trkpt lat="29.04044" lon="-13.50086">
        <ele>100.6</ele>
        <time>2021-07-02 14:10:26</time>
      </trkpt>
      <trkpt lat="29.04047" lon="-13.50084">
        <ele>100.6</ele>
        <time>2021-07-02 14:10:27</time>
      </trkpt>
      <trkpt lat="29.0405" lon="-13.50083">
        <ele>101</ele>
        <time>2021-07-02 14:10:28</time>
      </trkpt>
      <trkpt lat="29.04052" lon="-13.50081">
        <ele>101</ele>
        <time>2021-07-02 14:10:29</time>
      </trkpt>
      <trkpt lat="29.04054" lon="-13.5008">
        <ele>101.2</ele>
        <time>2021-07-02 14:10:30</time>
      </trkpt>
      <trkpt lat="29.04057" lon="-13.50079">
        <ele>101.2</ele>
        <time>2021-07-02 14:10:31</time>
      </trkpt>
      <trkpt lat="29.0406" lon="-13.50078">
        <ele>101.6</ele>
        <time>2021-07-02 14:10:32</time>
      </trkpt>
      <trkpt lat="29.04062" lon="-13.50077">
        <ele>101.6</ele>
        <time>2021-07-02 14:10:33</time>
      </trkpt>
      <trkpt lat="29.04065" lon="-13.50076">
        <ele>101.6</ele>
        <time>2021-07-02 14:10:34</time>
      </trkpt>
      <trkpt lat="29.04068" lon="-13.50075">
        <ele>102</ele>
        <time>2021-07-02 14:10:35</time>
      </trkpt>
      <trkpt lat="29.0407" lon="-13.50074">
        <ele>102</ele>
        <time>2021-07-02 14:10:36</time>
      </trkpt>
      <trkpt lat="29.04073" lon="-13.50072">
        <ele>102</ele>
        <time>2021-07-02 14:10:37</time>
      </trkpt>
      <trkpt lat="29.04075" lon="-13.50071">
        <ele>102.2</ele>
        <time>2021-07-02 14:10:38</time>
      </trkpt>
      <trkpt lat="29.04077" lon="-13.50069">
        <ele>102.2</ele>
        <time>2021-07-02 14:10:39</time>
      </trkpt>
      <trkpt lat="29.0408" lon="-13.50068">
        <ele>102.2</ele>
        <time>2021-07-02 14:10:40</time>
      </trkpt>
      <trkpt lat="29.04082" lon="-13.50066">
        <ele>102.4</ele>
        <time>2021-07-02 14:10:41</time>
      </trkpt>
      <trkpt lat="29.04085" lon="-13.50065">
        <ele>102.4</ele>
        <time>2021-07-02 14:10:42</time>
      </trkpt>
      <trkpt lat="29.04088" lon="-13.50063">
        <ele>102.8</ele>
        <time>2021-07-02 14:10:43</time>
      </trkpt>
      <trkpt lat="29.04091" lon="-13.50062">
        <ele>102.8</ele>
        <time>2021-07-02 14:10:44</time>
      </trkpt>
      <trkpt lat="29.04094" lon="-13.5006">
        <ele>103</ele>
        <time>2021-07-02 14:10:45</time>
      </trkpt>
      <trkpt lat="29.04097" lon="-13.50058">
        <ele>103</ele>
        <time>2021-07-02 14:10:46</time>
      </trkpt>
      <trkpt lat="29.041" lon="-13.50057">
        <ele>103.2</ele>
        <time>2021-07-02 14:10:47</time>
      </trkpt>
      <trkpt lat="29.04103" lon="-13.50055">
        <ele>103.2</ele>
        <time>2021-07-02 14:10:48</time>
      </trkpt>
      <trkpt lat="29.04105" lon="-13.50054">
        <ele>103.6</ele>
        <time>2021-07-02 14:10:49</time>
      </trkpt>
      <trkpt lat="29.04108" lon="-13.50053">
        <ele>103.6</ele>
        <time>2021-07-02 14:10:50</time>
      </trkpt>
      <trkpt lat="29.04111" lon="-13.50051">
        <ele>103.8</ele>
        <time>2021-07-02 14:10:51</time>
      </trkpt>
      <trkpt lat="29.04113" lon="-13.5005">
        <ele>103.8</ele>
        <time>2021-07-02 14:10:52</time>
      </trkpt>
      <trkpt lat="29.04116" lon="-13.50048">
        <ele>103.8</ele>
        <time>2021-07-02 14:10:53</time>
      </trkpt>
      <trkpt lat="29.04118" lon="-13.50047">
        <ele>103.8</ele>
        <time>2021-07-02 14:10:54</time>
      </trkpt>
      <trkpt lat="29.04121" lon="-13.50046">
        <ele>103.8</ele>
        <time>2021-07-02 14:10:55</time>
      </trkpt>
      <trkpt lat="29.04124" lon="-13.50045">
        <ele>103.8</ele>
        <time>2021-07-02 14:10:56</time>
      </trkpt>
      <trkpt lat="29.04127" lon="-13.50044">
        <ele>104</ele>
        <time>2021-07-02 14:10:57</time>
      </trkpt>
      <trkpt lat="29.04129" lon="-13.50043">
        <ele>104</ele>
        <time>2021-07-02 14:10:58</time>
      </trkpt>
      <trkpt lat="29.04132" lon="-13.50042">
        <ele>104</ele>
        <time>2021-07-02 14:10:59</time>
      </trkpt>
      <trkpt lat="29.04135" lon="-13.5004">
        <ele>104</ele>
        <time>2021-07-02 14:11:00</time>
      </trkpt>
      <trkpt lat="29.04138" lon="-13.50039">
        <ele>104.2</ele>
        <time>2021-07-02 14:11:01</time>
      </trkpt>
      <trkpt lat="29.04141" lon="-13.50038">
        <ele>104.2</ele>
        <time>2021-07-02 14:11:02</time>
      </trkpt>
      <trkpt lat="29.04144" lon="-13.50037">
        <ele>104.2</ele>
        <time>2021-07-02 14:11:03</time>
      </trkpt>
      <trkpt lat="29.04146" lon="-13.50035">
        <ele>104.2</ele>
        <time>2021-07-02 14:11:04</time>
      </trkpt>
      <trkpt lat="29.04149" lon="-13.50034">
        <ele>104.6</ele>
        <time>2021-07-02 14:11:05</time>
      </trkpt>
      <trkpt lat="29.04152" lon="-13.50033">
        <ele>104.6</ele>
        <time>2021-07-02 14:11:06</time>
      </trkpt>
      <trkpt lat="29.04154" lon="-13.50032">
        <ele>104.8</ele>
        <time>2021-07-02 14:11:07</time>
      </trkpt>
      <trkpt lat="29.04157" lon="-13.5003">
        <ele>104.8</ele>
        <time>2021-07-02 14:11:08</time>
      </trkpt>
      <trkpt lat="29.0416" lon="-13.50029">
        <ele>105.2</ele>
        <time>2021-07-02 14:11:09</time>
      </trkpt>
      <trkpt lat="29.04163" lon="-13.50028">
        <ele>105.2</ele>
        <time>2021-07-02 14:11:10</time>
      </trkpt>
      <trkpt lat="29.04165" lon="-13.50027">
        <ele>105.4</ele>
        <time>2021-07-02 14:11:11</time>
      </trkpt>
      <trkpt lat="29.04168" lon="-13.50026">
        <ele>105.4</ele>
        <time>2021-07-02 14:11:12</time>
      </trkpt>
      <trkpt lat="29.0417" lon="-13.50025">
        <ele>105.4</ele>
        <time>2021-07-02 14:11:13</time>
      </trkpt>
      <trkpt lat="29.04173" lon="-13.50024">
        <ele>105.4</ele>
        <time>2021-07-02 14:11:14</time>
      </trkpt>
      <trkpt lat="29.04176" lon="-13.50022">
        <ele>105.4</ele>
        <time>2021-07-02 14:11:15</time>
      </trkpt>
      <trkpt lat="29.04178" lon="-13.50021">
        <ele>105.4</ele>
        <time>2021-07-02 14:11:16</time>
      </trkpt>
      <trkpt lat="29.04181" lon="-13.5002">
        <ele>105.6</ele>
        <time>2021-07-02 14:11:17</time>
      </trkpt>
      <trkpt lat="29.04184" lon="-13.50019">
        <ele>105.6</ele>
        <time>2021-07-02 14:11:18</time>
      </trkpt>
      <trkpt lat="29.04186" lon="-13.50018">
        <ele>105.6</ele>
        <time>2021-07-02 14:11:19</time>
      </trkpt>
      <trkpt lat="29.04189" lon="-13.50017">
        <ele>105.6</ele>
        <time>2021-07-02 14:11:20</time>
      </trkpt>
      <trkpt lat="29.04192" lon="-13.50016">
        <ele>105.6</ele>
        <time>2021-07-02 14:11:21</time>
      </trkpt>
      <trkpt lat="29.04194" lon="-13.50015">
        <ele>105.6</ele>
        <time>2021-07-02 14:11:22</time>
      </trkpt>
      <trkpt lat="29.04197" lon="-13.50013">
        <ele>105.6</ele>
        <time>2021-07-02 14:11:23</time>
      </trkpt>
      <trkpt lat="29.04199" lon="-13.50012">
        <ele>106</ele>
        <time>2021-07-02 14:11:24</time>
      </trkpt>
      <trkpt lat="29.04202" lon="-13.50011">
        <ele>106</ele>
        <time>2021-07-02 14:11:25</time>
      </trkpt>
      <trkpt lat="29.04204" lon="-13.5001">
        <ele>106.2</ele>
        <time>2021-07-02 14:11:26</time>
      </trkpt>
      <trkpt lat="29.04206" lon="-13.50009">
        <ele>106.2</ele>
        <time>2021-07-02 14:11:27</time>
      </trkpt>
      <trkpt lat="29.04208" lon="-13.50007">
        <ele>106.2</ele>
        <time>2021-07-02 14:11:28</time>
      </trkpt>
      <trkpt lat="29.04211" lon="-13.50006">
        <ele>106.4</ele>
        <time>2021-07-02 14:11:29</time>
      </trkpt>
      <trkpt lat="29.04213" lon="-13.50004">
        <ele>106.4</ele>
        <time>2021-07-02 14:11:30</time>
      </trkpt>
      <trkpt lat="29.04216" lon="-13.50003">
        <ele>106.4</ele>
        <time>2021-07-02 14:11:31</time>
      </trkpt>
      <trkpt lat="29.04219" lon="-13.50002">
        <ele>106.4</ele>
        <time>2021-07-02 14:11:32</time>
      </trkpt>
      <trkpt lat="29.04221" lon="-13.50001">
        <ele>106.8</ele>
        <time>2021-07-02 14:11:33</time>
      </trkpt>
      <trkpt lat="29.04224" lon="-13.50001">
        <ele>106.8</ele>
        <time>2021-07-02 14:11:34</time>
      </trkpt>
      <trkpt lat="29.04227" lon="-13.5">
        <ele>107</ele>
        <time>2021-07-02 14:11:35</time>
      </trkpt>
      <trkpt lat="29.0423" lon="-13.49999">
        <ele>107</ele>
        <time>2021-07-02 14:11:36</time>
      </trkpt>
      <trkpt lat="29.04232" lon="-13.49998">
        <ele>107</ele>
        <time>2021-07-02 14:11:37</time>
      </trkpt>
      <trkpt lat="29.04235" lon="-13.49997">
        <ele>107.2</ele>
        <time>2021-07-02 14:11:38</time>
      </trkpt>
      <trkpt lat="29.04238" lon="-13.49996">
        <ele>107.2</ele>
        <time>2021-07-02 14:11:39</time>
      </trkpt>
      <trkpt lat="29.0424" lon="-13.49995">
        <ele>107.6</ele>
        <time>2021-07-02 14:11:40</time>
      </trkpt>
      <trkpt lat="29.04243" lon="-13.49994">
        <ele>107.6</ele>
        <time>2021-07-02 14:11:41</time>
      </trkpt>
      <trkpt lat="29.04247" lon="-13.49994">
        <ele>107.8</ele>
        <time>2021-07-02 14:11:42</time>
      </trkpt>
      <trkpt lat="29.0425" lon="-13.49993">
        <ele>107.8</ele>
        <time>2021-07-02 14:11:43</time>
      </trkpt>
      <trkpt lat="29.04253" lon="-13.49993">
        <ele>108</ele>
        <time>2021-07-02 14:11:44</time>
      </trkpt>
      <trkpt lat="29.04256" lon="-13.49992">
        <ele>108</ele>
        <time>2021-07-02 14:11:45</time>
      </trkpt>
      <trkpt lat="29.04259" lon="-13.49992">
        <ele>108</ele>
        <time>2021-07-02 14:11:46</time>
      </trkpt>
      <trkpt lat="29.04262" lon="-13.49992">
        <ele>108.4</ele>
        <time>2021-07-02 14:11:47</time>
      </trkpt>
      <trkpt lat="29.04265" lon="-13.49991">
        <ele>108.4</ele>
        <time>2021-07-02 14:11:48</time>
      </trkpt>
      <trkpt lat="29.04268" lon="-13.49991">
        <ele>108.4</ele>
        <time>2021-07-02 14:11:49</time>
      </trkpt>
      <trkpt lat="29.0427" lon="-13.4999">
        <ele>108.6</ele>
        <time>2021-07-02 14:11:50</time>
      </trkpt>
      <trkpt lat="29.04273" lon="-13.49989">
        <ele>108.6</ele>
        <time>2021-07-02 14:11:51</time>
      </trkpt>
      <trkpt lat="29.04275" lon="-13.49988">
        <ele>108.6</ele>
        <time>2021-07-02 14:11:52</time>
      </trkpt>
      <trkpt lat="29.04277" lon="-13.49988">
        <ele>108.8</ele>
        <time>2021-07-02 14:11:53</time>
      </trkpt>
      <trkpt lat="29.04279" lon="-13.49987">
        <ele>108.8</ele>
        <time>2021-07-02 14:11:54</time>
      </trkpt>
      <trkpt lat="29.04282" lon="-13.49986">
        <ele>108.8</ele>
        <time>2021-07-02 14:11:55</time>
      </trkpt>
      <trkpt lat="29.04285" lon="-13.49984">
        <ele>109.2</ele>
        <time>2021-07-02 14:11:56</time>
      </trkpt>
      <trkpt lat="29.04287" lon="-13.49983">
        <ele>109.2</ele>
        <time>2021-07-02 14:11:57</time>
      </trkpt>
      <trkpt lat="29.0429" lon="-13.49982">
        <ele>109.4</ele>
        <time>2021-07-02 14:11:58</time>
      </trkpt>
      <trkpt lat="29.04292" lon="-13.49981">
        <ele>109.4</ele>
        <time>2021-07-02 14:11:59</time>
      </trkpt>
      <trkpt lat="29.04295" lon="-13.4998">
        <ele>109.4</ele>
        <time>2021-07-02 14:12:00</time>
      </trkpt>
      <trkpt lat="29.04297" lon="-13.49979">
        <ele>109.6</ele>
        <time>2021-07-02 14:12:01</time>
      </trkpt>
      <trkpt lat="29.04299" lon="-13.49978">
        <ele>109.6</ele>
        <time>2021-07-02 14:12:02</time>
      </trkpt>
      <trkpt lat="29.04302" lon="-13.49977">
        <ele>109.6</ele>
        <time>2021-07-02 14:12:03</time>
      </trkpt>
      <trkpt lat="29.04304" lon="-13.49976">
        <ele>110</ele>
        <time>2021-07-02 14:12:04</time>
      </trkpt>
      <trkpt lat="29.04307" lon="-13.49976">
        <ele>110</ele>
        <time>2021-07-02 14:12:05</time>
      </trkpt>
      <trkpt lat="29.04309" lon="-13.49975">
        <ele>110.2</ele>
        <time>2021-07-02 14:12:06</time>
      </trkpt>
      <trkpt lat="29.04311" lon="-13.49974">
        <ele>110.2</ele>
        <time>2021-07-02 14:12:07</time>
      </trkpt>
      <trkpt lat="29.04313" lon="-13.49973">
        <ele>110.2</ele>
        <time>2021-07-02 14:12:08</time>
      </trkpt>
      <trkpt lat="29.04315" lon="-13.49971">
        <ele>110.2</ele>
        <time>2021-07-02 14:12:09</time>
      </trkpt>
      <trkpt lat="29.04318" lon="-13.4997">
        <ele>110.2</ele>
        <time>2021-07-02 14:12:10</time>
      </trkpt>
      <trkpt lat="29.0432" lon="-13.49969">
        <ele>110.4</ele>
        <time>2021-07-02 14:12:11</time>
      </trkpt>
      <trkpt lat="29.04322" lon="-13.49968">
        <ele>110.4</ele>
        <time>2021-07-02 14:12:12</time>
      </trkpt>
      <trkpt lat="29.04324" lon="-13.49967">
        <ele>110.6</ele>
        <time>2021-07-02 14:12:13</time>
      </trkpt>
      <trkpt lat="29.04326" lon="-13.49967">
        <ele>110.6</ele>
        <time>2021-07-02 14:12:14</time>
      </trkpt>
      <trkpt lat="29.04328" lon="-13.49966">
        <ele>110.6</ele>
        <time>2021-07-02 14:12:15</time>
      </trkpt>
      <trkpt lat="29.04331" lon="-13.49965">
        <ele>110.6</ele>
        <time>2021-07-02 14:12:16</time>
      </trkpt>
      <trkpt lat="29.04333" lon="-13.49964">
        <ele>110.6</ele>
        <time>2021-07-02 14:12:17</time>
      </trkpt>
      <trkpt lat="29.04335" lon="-13.49962">
        <ele>110.6</ele>
        <time>2021-07-02 14:12:18</time>
      </trkpt>
      <trkpt lat="29.04338" lon="-13.49961">
        <ele>110.6</ele>
        <time>2021-07-02 14:12:19</time>
      </trkpt>
      <trkpt lat="29.0434" lon="-13.4996">
        <ele>110.8</ele>
        <time>2021-07-02 14:12:20</time>
      </trkpt>
      <trkpt lat="29.04342" lon="-13.49959">
        <ele>110.8</ele>
        <time>2021-07-02 14:12:21</time>
      </trkpt>
      <trkpt lat="29.04345" lon="-13.49959">
        <ele>110.8</ele>
        <time>2021-07-02 14:12:22</time>
      </trkpt>
      <trkpt lat="29.04347" lon="-13.49957">
        <ele>111.2</ele>
        <time>2021-07-02 14:12:23</time>
      </trkpt>
      <trkpt lat="29.0435" lon="-13.49956">
        <ele>111.2</ele>
        <time>2021-07-02 14:12:24</time>
      </trkpt>
      <trkpt lat="29.04352" lon="-13.49955">
        <ele>111.4</ele>
        <time>2021-07-02 14:12:25</time>
      </trkpt>
      <trkpt lat="29.04355" lon="-13.49954">
        <ele>111.4</ele>
        <time>2021-07-02 14:12:26</time>
      </trkpt>
      <trkpt lat="29.04357" lon="-13.49952">
        <ele>111.4</ele>
        <time>2021-07-02 14:12:27</time>
      </trkpt>
      <trkpt lat="29.04359" lon="-13.49951">
        <ele>111.4</ele>
        <time>2021-07-02 14:12:28</time>
      </trkpt>
      <trkpt lat="29.04361" lon="-13.4995">
        <ele>111.6</ele>
        <time>2021-07-02 14:12:29</time>
      </trkpt>
      <trkpt lat="29.04364" lon="-13.49949">
        <ele>111.6</ele>
        <time>2021-07-02 14:12:30</time>
      </trkpt>
      <trkpt lat="29.04366" lon="-13.49949">
        <ele>111.6</ele>
        <time>2021-07-02 14:12:31</time>
      </trkpt>
      <trkpt lat="29.04369" lon="-13.49948">
        <ele>111.8</ele>
        <time>2021-07-02 14:12:32</time>
      </trkpt>
      <trkpt lat="29.04372" lon="-13.49947">
        <ele>111.8</ele>
        <time>2021-07-02 14:12:33</time>
      </trkpt>
      <trkpt lat="29.04374" lon="-13.49946">
        <ele>112</ele>
        <time>2021-07-02 14:12:34</time>
      </trkpt>
      <trkpt lat="29.04377" lon="-13.49945">
        <ele>112</ele>
        <time>2021-07-02 14:12:35</time>
      </trkpt>
      <trkpt lat="29.0438" lon="-13.49945">
        <ele>112.4</ele>
        <time>2021-07-02 14:12:36</time>
      </trkpt>
      <trkpt lat="29.04382" lon="-13.49944">
        <ele>116</ele>
        <time>2021-07-02 14:12:37</time>
      </trkpt>
      <trkpt lat="29.04385" lon="-13.49944">
        <ele>114.8</ele>
        <time>2021-07-02 14:12:38</time>
      </trkpt>
      <trkpt lat="29.04388" lon="-13.49943">
        <ele>114</ele>
        <time>2021-07-02 14:12:39</time>
      </trkpt>
      <trkpt lat="29.04391" lon="-13.49943">
        <ele>113.4</ele>
        <time>2021-07-02 14:12:40</time>
      </trkpt>
      <trkpt lat="29.04393" lon="-13.49943">
        <ele>113</ele>
        <time>2021-07-02 14:12:41</time>
      </trkpt>
      <trkpt lat="29.04395" lon="-13.49943">
        <ele>113</ele>
        <time>2021-07-02 14:12:42</time>
      </trkpt>
      <trkpt lat="29.04396" lon="-13.49942">
        <ele>112.8</ele>
        <time>2021-07-02 14:12:43</time>
      </trkpt>
      <trkpt lat="29.04398" lon="-13.49942">
        <ele>112.8</ele>
        <time>2021-07-02 14:12:44</time>
      </trkpt>
      <trkpt lat="29.044" lon="-13.49941">
        <ele>113</ele>
        <time>2021-07-02 14:12:45</time>
      </trkpt>
      <trkpt lat="29.04402" lon="-13.4994">
        <ele>113</ele>
        <time>2021-07-02 14:12:46</time>
      </trkpt>
      <trkpt lat="29.04405" lon="-13.4994">
        <ele>112.8</ele>
        <time>2021-07-02 14:12:47</time>
      </trkpt>
      <trkpt lat="29.04407" lon="-13.49939">
        <ele>112.8</ele>
        <time>2021-07-02 14:12:48</time>
      </trkpt>
      <trkpt lat="29.0441" lon="-13.49939">
        <ele>112.8</ele>
        <time>2021-07-02 14:12:49</time>
      </trkpt>
      <trkpt lat="29.04412" lon="-13.49939">
        <ele>112.8</ele>
        <time>2021-07-02 14:12:50</time>
      </trkpt>
      <trkpt lat="29.04415" lon="-13.49938">
        <ele>112.8</ele>
        <time>2021-07-02 14:12:51</time>
      </trkpt>
      <trkpt lat="29.04418" lon="-13.49937">
        <ele>112.8</ele>
        <time>2021-07-02 14:12:52</time>
      </trkpt>
      <trkpt lat="29.04421" lon="-13.49937">
        <ele>112.8</ele>
        <time>2021-07-02 14:12:53</time>
      </trkpt>
      <trkpt lat="29.04423" lon="-13.49936">
        <ele>112.8</ele>
        <time>2021-07-02 14:12:54</time>
      </trkpt>
      <trkpt lat="29.04426" lon="-13.49936">
        <ele>112.8</ele>
        <time>2021-07-02 14:12:55</time>
      </trkpt>
      <trkpt lat="29.04428" lon="-13.49936">
        <ele>113</ele>
        <time>2021-07-02 14:12:56</time>
      </trkpt>
      <trkpt lat="29.04431" lon="-13.49935">
        <ele>114</ele>
        <time>2021-07-02 14:12:57</time>
      </trkpt>
      <trkpt lat="29.04433" lon="-13.49935">
        <ele>113.8</ele>
        <time>2021-07-02 14:12:58</time>
      </trkpt>
      <trkpt lat="29.04435" lon="-13.49934">
        <ele>113.8</ele>
        <time>2021-07-02 14:12:59</time>
      </trkpt>
      <trkpt lat="29.04438" lon="-13.49934">
        <ele>113.8</ele>
        <time>2021-07-02 14:13:00</time>
      </trkpt>
      <trkpt lat="29.04441" lon="-13.49933">
        <ele>113.8</ele>
        <time>2021-07-02 14:13:01</time>
      </trkpt>
      <trkpt lat="29.04444" lon="-13.49933">
        <ele>113.8</ele>
        <time>2021-07-02 14:13:02</time>
      </trkpt>
      <trkpt lat="29.04447" lon="-13.49932">
        <ele>113.8</ele>
        <time>2021-07-02 14:13:03</time>
      </trkpt>
      <trkpt lat="29.04449" lon="-13.49932">
        <ele>114</ele>
        <time>2021-07-02 14:13:04</time>
      </trkpt>
      <trkpt lat="29.04452" lon="-13.49932">
        <ele>114</ele>
        <time>2021-07-02 14:13:05</time>
      </trkpt>
      <trkpt lat="29.04455" lon="-13.49932">
        <ele>114</ele>
        <time>2021-07-02 14:13:06</time>
      </trkpt>
      <trkpt lat="29.04457" lon="-13.49932">
        <ele>114.2</ele>
        <time>2021-07-02 14:13:07</time>
      </trkpt>
      <trkpt lat="29.0446" lon="-13.49931">
        <ele>114.2</ele>
        <time>2021-07-02 14:13:08</time>
      </trkpt>
      <trkpt lat="29.04463" lon="-13.4993">
        <ele>114.2</ele>
        <time>2021-07-02 14:13:09</time>
      </trkpt>
      <trkpt lat="29.04465" lon="-13.4993">
        <ele>114.2</ele>
        <time>2021-07-02 14:13:10</time>
      </trkpt>
      <trkpt lat="29.04468" lon="-13.49929">
        <ele>114.6</ele>
        <time>2021-07-02 14:13:11</time>
      </trkpt>
      <trkpt lat="29.04471" lon="-13.49929">
        <ele>114.6</ele>
        <time>2021-07-02 14:13:12</time>
      </trkpt>
      <trkpt lat="29.04474" lon="-13.49928">
        <ele>114.6</ele>
        <time>2021-07-02 14:13:13</time>
      </trkpt>
      <trkpt lat="29.04476" lon="-13.49928">
        <ele>114.6</ele>
        <time>2021-07-02 14:13:14</time>
      </trkpt>
      <trkpt lat="29.04479" lon="-13.49928">
        <ele>115.2</ele>
        <time>2021-07-02 14:13:15</time>
      </trkpt>
      <trkpt lat="29.04482" lon="-13.49927">
        <ele>115.2</ele>
        <time>2021-07-02 14:13:16</time>
      </trkpt>
      <trkpt lat="29.04485" lon="-13.49926">
        <ele>115.2</ele>
        <time>2021-07-02 14:13:17</time>
      </trkpt>
      <trkpt lat="29.04487" lon="-13.49926">
        <ele>115.2</ele>
        <time>2021-07-02 14:13:18</time>
      </trkpt>
      <trkpt lat="29.0449" lon="-13.49925">
        <ele>115.2</ele>
        <time>2021-07-02 14:13:19</time>
      </trkpt>
      <trkpt lat="29.04492" lon="-13.49925">
        <ele>115.2</ele>
        <time>2021-07-02 14:13:20</time>
      </trkpt>
      <trkpt lat="29.04495" lon="-13.49924">
        <ele>115.6</ele>
        <time>2021-07-02 14:13:21</time>
      </trkpt>
      <trkpt lat="29.04498" lon="-13.49924">
        <ele>115.6</ele>
        <time>2021-07-02 14:13:22</time>
      </trkpt>
      <trkpt lat="29.045" lon="-13.49923">
        <ele>115.6</ele>
        <time>2021-07-02 14:13:23</time>
      </trkpt>
      <trkpt lat="29.04503" lon="-13.49923">
        <ele>115.8</ele>
        <time>2021-07-02 14:13:24</time>
      </trkpt>
      <trkpt lat="29.04506" lon="-13.49923">
        <ele>116.2</ele>
        <time>2021-07-02 14:13:25</time>
      </trkpt>
      <trkpt lat="29.04508" lon="-13.49922">
        <ele>116.2</ele>
        <time>2021-07-02 14:13:26</time>
      </trkpt>
      <trkpt lat="29.0451" lon="-13.49922">
        <ele>116.2</ele>
        <time>2021-07-02 14:13:27</time>
      </trkpt>
      <trkpt lat="29.04513" lon="-13.49921">
        <ele>116.2</ele>
        <time>2021-07-02 14:13:28</time>
      </trkpt>
      <trkpt lat="29.04515" lon="-13.49921">
        <ele>116.2</ele>
        <time>2021-07-02 14:13:29</time>
      </trkpt>
      <trkpt lat="29.04517" lon="-13.4992">
        <ele>116.4</ele>
        <time>2021-07-02 14:13:30</time>
      </trkpt>
      <trkpt lat="29.04519" lon="-13.49919">
        <ele>116.8</ele>
        <time>2021-07-02 14:13:31</time>
      </trkpt>
      <trkpt lat="29.04521" lon="-13.49918">
        <ele>117</ele>
        <time>2021-07-02 14:13:32</time>
      </trkpt>
      <trkpt lat="29.04524" lon="-13.49918">
        <ele>117</ele>
        <time>2021-07-02 14:13:33</time>
      </trkpt>
      <trkpt lat="29.04527" lon="-13.49917">
        <ele>117.2</ele>
        <time>2021-07-02 14:13:34</time>
      </trkpt>
      <trkpt lat="29.0453" lon="-13.49917">
        <ele>117.6</ele>
        <time>2021-07-02 14:13:35</time>
      </trkpt>
      <trkpt lat="29.04532" lon="-13.49916">
        <ele>117.6</ele>
        <time>2021-07-02 14:13:36</time>
      </trkpt>
      <trkpt lat="29.04535" lon="-13.49915">
        <ele>117.6</ele>
        <time>2021-07-02 14:13:37</time>
      </trkpt>
      <trkpt lat="29.04538" lon="-13.49914">
        <ele>117.6</ele>
        <time>2021-07-02 14:13:38</time>
      </trkpt>
      <trkpt lat="29.04541" lon="-13.49914">
        <ele>117.8</ele>
        <time>2021-07-02 14:13:39</time>
      </trkpt>
      <trkpt lat="29.04544" lon="-13.49913">
        <ele>117.8</ele>
        <time>2021-07-02 14:13:40</time>
      </trkpt>
      <trkpt lat="29.04547" lon="-13.49912">
        <ele>118</ele>
        <time>2021-07-02 14:13:41</time>
      </trkpt>
      <trkpt lat="29.0455" lon="-13.4991">
        <ele>118</ele>
        <time>2021-07-02 14:13:42</time>
      </trkpt>
      <trkpt lat="29.04553" lon="-13.49909">
        <ele>118</ele>
        <time>2021-07-02 14:13:43</time>
      </trkpt>
      <trkpt lat="29.04556" lon="-13.49908">
        <ele>118</ele>
        <time>2021-07-02 14:13:44</time>
      </trkpt>
      <trkpt lat="29.04559" lon="-13.49907">
        <ele>118.2</ele>
        <time>2021-07-02 14:13:45</time>
      </trkpt>
      <trkpt lat="29.04562" lon="-13.49906">
        <ele>118.2</ele>
        <time>2021-07-02 14:13:46</time>
      </trkpt>
      <trkpt lat="29.04565" lon="-13.49904">
        <ele>118.6</ele>
        <time>2021-07-02 14:13:47</time>
      </trkpt>
      <trkpt lat="29.04568" lon="-13.49903">
        <ele>118.6</ele>
        <time>2021-07-02 14:13:48</time>
      </trkpt>
      <trkpt lat="29.04571" lon="-13.49902">
        <ele>118.8</ele>
        <time>2021-07-02 14:13:49</time>
      </trkpt>
      <trkpt lat="29.04574" lon="-13.499">
        <ele>119</ele>
        <time>2021-07-02 14:13:50</time>
      </trkpt>
      <trkpt lat="29.04577" lon="-13.49899">
        <ele>119</ele>
        <time>2021-07-02 14:13:51</time>
      </trkpt>
      <trkpt lat="29.0458" lon="-13.49898">
        <ele>119.4</ele>
        <time>2021-07-02 14:13:52</time>
      </trkpt>
      <trkpt lat="29.04583" lon="-13.49897">
        <ele>119.4</ele>
        <time>2021-07-02 14:13:53</time>
      </trkpt>
      <trkpt lat="29.04586" lon="-13.49896">
        <ele>119.4</ele>
        <time>2021-07-02 14:13:54</time>
      </trkpt>
      <trkpt lat="29.04589" lon="-13.49894">
        <ele>119.4</ele>
        <time>2021-07-02 14:13:55</time>
      </trkpt>
      <trkpt lat="29.04592" lon="-13.49893">
        <ele>119.6</ele>
        <time>2021-07-02 14:13:56</time>
      </trkpt>
      <trkpt lat="29.04595" lon="-13.49892">
        <ele>119.6</ele>
        <time>2021-07-02 14:13:57</time>
      </trkpt>
      <trkpt lat="29.04598" lon="-13.49891">
        <ele>119.8</ele>
        <time>2021-07-02 14:13:58</time>
      </trkpt>
      <trkpt lat="29.04601" lon="-13.4989">
        <ele>119.8</ele>
        <time>2021-07-02 14:13:59</time>
      </trkpt>
      <trkpt lat="29.04604" lon="-13.49888">
        <ele>120</ele>
        <time>2021-07-02 14:14:00</time>
      </trkpt>
      <trkpt lat="29.04606" lon="-13.49887">
        <ele>120</ele>
        <time>2021-07-02 14:14:01</time>
      </trkpt>
      <trkpt lat="29.04609" lon="-13.49886">
        <ele>120.4</ele>
        <time>2021-07-02 14:14:02</time>
      </trkpt>
      <trkpt lat="29.04612" lon="-13.49885">
        <ele>120.4</ele>
        <time>2021-07-02 14:14:03</time>
      </trkpt>
      <trkpt lat="29.04614" lon="-13.49884">
        <ele>120.4</ele>
        <time>2021-07-02 14:14:04</time>
      </trkpt>
      <trkpt lat="29.04617" lon="-13.49883">
        <ele>120.4</ele>
        <time>2021-07-02 14:14:05</time>
      </trkpt>
      <trkpt lat="29.04619" lon="-13.49882">
        <ele>120.4</ele>
        <time>2021-07-02 14:14:06</time>
      </trkpt>
      <trkpt lat="29.04622" lon="-13.4988">
        <ele>120.4</ele>
        <time>2021-07-02 14:14:07</time>
      </trkpt>
      <trkpt lat="29.04625" lon="-13.49879">
        <ele>120.4</ele>
        <time>2021-07-02 14:14:08</time>
      </trkpt>
      <trkpt lat="29.04628" lon="-13.49877">
        <ele>120.4</ele>
        <time>2021-07-02 14:14:09</time>
      </trkpt>
      <trkpt lat="29.0463" lon="-13.49875">
        <ele>120.4</ele>
        <time>2021-07-02 14:14:10</time>
      </trkpt>
      <trkpt lat="29.04631" lon="-13.49875">
        <ele>120.6</ele>
        <time>2021-07-02 14:14:11</time>
      </trkpt>
      <trkpt lat="29.04631" lon="-13.49874">
        <ele>120.6</ele>
        <time>2021-07-02 14:14:12</time>
      </trkpt>
      <trkpt lat="29.04631" lon="-13.49874">
        <ele>120.6</ele>
        <time>2021-07-02 14:14:13</time>
      </trkpt>
      <trkpt lat="29.0463" lon="-13.49874">
        <ele>120.6</ele>
        <time>2021-07-02 14:14:14</time>
      </trkpt>
      <trkpt lat="29.04634" lon="-13.49873">
        <ele>121</ele>
        <time>2021-07-02 14:14:15</time>
      </trkpt>
      <trkpt lat="29.04636" lon="-13.49872">
        <ele>121</ele>
        <time>2021-07-02 14:14:16</time>
      </trkpt>
      <trkpt lat="29.04639" lon="-13.49871">
        <ele>121</ele>
        <time>2021-07-02 14:14:17</time>
      </trkpt>
      <trkpt lat="29.04642" lon="-13.49869">
        <ele>121</ele>
        <time>2021-07-02 14:14:18</time>
      </trkpt>
      <trkpt lat="29.04646" lon="-13.49867">
        <ele>121</ele>
        <time>2021-07-02 14:14:19</time>
      </trkpt>
      <trkpt lat="29.04649" lon="-13.49866">
        <ele>121</ele>
        <time>2021-07-02 14:14:20</time>
      </trkpt>
      <trkpt lat="29.04653" lon="-13.49864">
        <ele>121</ele>
        <time>2021-07-02 14:14:21</time>
      </trkpt>
      <trkpt lat="29.04657" lon="-13.49862">
        <ele>121</ele>
        <time>2021-07-02 14:14:22</time>
      </trkpt>
      <trkpt lat="29.0466" lon="-13.49861">
        <ele>121</ele>
        <time>2021-07-02 14:14:23</time>
      </trkpt>
      <trkpt lat="29.04665" lon="-13.49859">
        <ele>121</ele>
        <time>2021-07-02 14:14:24</time>
      </trkpt>
      <trkpt lat="29.04669" lon="-13.49858">
        <ele>121</ele>
        <time>2021-07-02 14:14:25</time>
      </trkpt>
      <trkpt lat="29.04673" lon="-13.49856">
        <ele>121</ele>
        <time>2021-07-02 14:14:26</time>
      </trkpt>
      <trkpt lat="29.04677" lon="-13.49855">
        <ele>121</ele>
        <time>2021-07-02 14:14:27</time>
      </trkpt>
      <trkpt lat="29.04682" lon="-13.49854">
        <ele>121</ele>
        <time>2021-07-02 14:14:28</time>
      </trkpt>
      <trkpt lat="29.04686" lon="-13.49852">
        <ele>120.6</ele>
        <time>2021-07-02 14:14:29</time>
      </trkpt>
      <trkpt lat="29.04691" lon="-13.49851">
        <ele>120.6</ele>
        <time>2021-07-02 14:14:30</time>
      </trkpt>
      <trkpt lat="29.04695" lon="-13.49849">
        <ele>120.4</ele>
        <time>2021-07-02 14:14:31</time>
      </trkpt>
      <trkpt lat="29.047" lon="-13.49848">
        <ele>120.4</ele>
        <time>2021-07-02 14:14:32</time>
      </trkpt>
      <trkpt lat="29.04705" lon="-13.49846">
        <ele>120.2</ele>
        <time>2021-07-02 14:14:33</time>
      </trkpt>
      <trkpt lat="29.0471" lon="-13.49845">
        <ele>120.2</ele>
        <time>2021-07-02 14:14:34</time>
      </trkpt>
      <trkpt lat="29.04714" lon="-13.49843">
        <ele>120</ele>
        <time>2021-07-02 14:14:35</time>
      </trkpt>
      <trkpt lat="29.04719" lon="-13.49841">
        <ele>120</ele>
        <time>2021-07-02 14:14:36</time>
      </trkpt>
      <trkpt lat="29.04723" lon="-13.49839">
        <ele>119.8</ele>
        <time>2021-07-02 14:14:37</time>
      </trkpt>
      <trkpt lat="29.04728" lon="-13.49837">
        <ele>119.8</ele>
        <time>2021-07-02 14:14:38</time>
      </trkpt>
      <trkpt lat="29.04732" lon="-13.49835">
        <ele>119.6</ele>
        <time>2021-07-02 14:14:39</time>
      </trkpt>
      <trkpt lat="29.04737" lon="-13.49834">
        <ele>119.8</ele>
        <time>2021-07-02 14:14:40</time>
      </trkpt>
      <trkpt lat="29.04741" lon="-13.49832">
        <ele>119.8</ele>
        <time>2021-07-02 14:14:41</time>
      </trkpt>
      <trkpt lat="29.04745" lon="-13.49831">
        <ele>119.6</ele>
        <time>2021-07-02 14:14:42</time>
      </trkpt>
      <trkpt lat="29.04749" lon="-13.49829">
        <ele>119.6</ele>
        <time>2021-07-02 14:14:43</time>
      </trkpt>
      <trkpt lat="29.04754" lon="-13.49827">
        <ele>119.6</ele>
        <time>2021-07-02 14:14:44</time>
      </trkpt>
      <trkpt lat="29.04757" lon="-13.49825">
        <ele>119.4</ele>
        <time>2021-07-02 14:14:45</time>
      </trkpt>
      <trkpt lat="29.04761" lon="-13.49823">
        <ele>119.4</ele>
        <time>2021-07-02 14:14:46</time>
      </trkpt>
      <trkpt lat="29.04766" lon="-13.49821">
        <ele>119.4</ele>
        <time>2021-07-02 14:14:47</time>
      </trkpt>
      <trkpt lat="29.0477" lon="-13.4982">
        <ele>119.4</ele>
        <time>2021-07-02 14:14:48</time>
      </trkpt>
      <trkpt lat="29.04774" lon="-13.49818">
        <ele>119.4</ele>
        <time>2021-07-02 14:14:49</time>
      </trkpt>
      <trkpt lat="29.04778" lon="-13.49816">
        <ele>119.4</ele>
        <time>2021-07-02 14:15:11</time>
      </trkpt>
      <trkpt lat="29.04782" lon="-13.49814">
        <ele>119.4</ele>
        <time>2021-07-02 14:15:12</time>
      </trkpt>
      <trkpt lat="29.04786" lon="-13.49812">
        <ele>119.4</ele>
        <time>2021-07-02 14:15:13</time>
      </trkpt>
      <trkpt lat="29.0479" lon="-13.4981">
        <ele>119.4</ele>
        <time>2021-07-02 14:15:14</time>
      </trkpt>
      <trkpt lat="29.04795" lon="-13.49809">
        <ele>119.6</ele>
        <time>2021-07-02 14:15:15</time>
      </trkpt>
      <trkpt lat="29.04799" lon="-13.49807">
        <ele>119.6</ele>
        <time>2021-07-02 14:15:16</time>
      </trkpt>
      <trkpt lat="29.04803" lon="-13.49806">
        <ele>119.8</ele>
        <time>2021-07-02 14:15:17</time>
      </trkpt>
      <trkpt lat="29.04807" lon="-13.49804">
        <ele>119.8</ele>
        <time>2021-07-02 14:15:18</time>
      </trkpt>
      <trkpt lat="29.04812" lon="-13.49802">
        <ele>119.8</ele>
        <time>2021-07-02 14:15:19</time>
      </trkpt>
      <trkpt lat="29.04816" lon="-13.498">
        <ele>119.8</ele>
        <time>2021-07-02 14:15:20</time>
      </trkpt>
      <trkpt lat="29.04821" lon="-13.49798">
        <ele>119.8</ele>
        <time>2021-07-02 14:15:21</time>
      </trkpt>
      <trkpt lat="29.04825" lon="-13.49797">
        <ele>119.8</ele>
        <time>2021-07-02 14:15:22</time>
      </trkpt>
      <trkpt lat="29.0483" lon="-13.49795">
        <ele>120.2</ele>
        <time>2021-07-02 14:15:23</time>
      </trkpt>
      <trkpt lat="29.04835" lon="-13.49794">
        <ele>120.2</ele>
        <time>2021-07-02 14:15:24</time>
      </trkpt>
      <trkpt lat="29.04839" lon="-13.49792">
        <ele>120.2</ele>
        <time>2021-07-02 14:15:25</time>
      </trkpt>
      <trkpt lat="29.04843" lon="-13.4979">
        <ele>120.2</ele>
        <time>2021-07-02 14:15:26</time>
      </trkpt>
      <trkpt lat="29.04848" lon="-13.49789">
        <ele>120.4</ele>
        <time>2021-07-02 14:15:27</time>
      </trkpt>
      <trkpt lat="29.04852" lon="-13.49788">
        <ele>120.4</ele>
        <time>2021-07-02 14:15:28</time>
      </trkpt>
      <trkpt lat="29.04857" lon="-13.49788">
        <ele>120.4</ele>
        <time>2021-07-02 14:15:29</time>
      </trkpt>
      <trkpt lat="29.04861" lon="-13.49787">
        <ele>120.4</ele>
        <time>2021-07-02 14:15:30</time>
      </trkpt>
      <trkpt lat="29.04865" lon="-13.49787">
        <ele>120.8</ele>
        <time>2021-07-02 14:15:31</time>
      </trkpt>
      <trkpt lat="29.04869" lon="-13.49786">
        <ele>120.8</ele>
        <time>2021-07-02 14:15:32</time>
      </trkpt>
      <trkpt lat="29.04873" lon="-13.49788">
        <ele>120.8</ele>
        <time>2021-07-02 14:15:33</time>
      </trkpt>
      <trkpt lat="29.04877" lon="-13.49789">
        <ele>120.8</ele>
        <time>2021-07-02 14:15:34</time>
      </trkpt>
      <trkpt lat="29.0488" lon="-13.49791">
        <ele>120.6</ele>
        <time>2021-07-02 14:15:35</time>
      </trkpt>
      <trkpt lat="29.04883" lon="-13.49792">
        <ele>120.6</ele>
        <time>2021-07-02 14:15:36</time>
      </trkpt>
      <trkpt lat="29.04887" lon="-13.49794">
        <ele>120.6</ele>
        <time>2021-07-02 14:15:37</time>
      </trkpt>
      <trkpt lat="29.0489" lon="-13.49797">
        <ele>120</ele>
        <time>2021-07-02 14:15:38</time>
      </trkpt>
      <trkpt lat="29.04894" lon="-13.49799">
        <ele>120</ele>
        <time>2021-07-02 14:15:39</time>
      </trkpt>
      <trkpt lat="29.04898" lon="-13.49801">
        <ele>119.6</ele>
        <time>2021-07-02 14:15:40</time>
      </trkpt>
      <trkpt lat="29.04902" lon="-13.49804">
        <ele>119.8</ele>
        <time>2021-07-02 14:15:41</time>
      </trkpt>
      <trkpt lat="29.04906" lon="-13.49807">
        <ele>119.6</ele>
        <time>2021-07-02 14:15:42</time>
      </trkpt>
      <trkpt lat="29.0491" lon="-13.4981">
        <ele>119.2</ele>
        <time>2021-07-02 14:15:43</time>
      </trkpt>
      <trkpt lat="29.04915" lon="-13.49812">
        <ele>118.8</ele>
        <time>2021-07-02 14:15:44</time>
      </trkpt>
      <trkpt lat="29.0492" lon="-13.49812">
        <ele>118.6</ele>
        <time>2021-07-02 14:15:45</time>
      </trkpt>
      <trkpt lat="29.04925" lon="-13.49813">
        <ele>118.6</ele>
        <time>2021-07-02 14:15:46</time>
      </trkpt>
      <trkpt lat="29.04929" lon="-13.49812">
        <ele>118.2</ele>
        <time>2021-07-02 14:15:47</time>
      </trkpt>
      <trkpt lat="29.04932" lon="-13.49811">
        <ele>118</ele>
        <time>2021-07-02 14:15:48</time>
      </trkpt>
      <trkpt lat="29.04934" lon="-13.49809">
        <ele>118</ele>
        <time>2021-07-02 14:15:49</time>
      </trkpt>
      <trkpt lat="29.04937" lon="-13.49808">
        <ele>118</ele>
        <time>2021-07-02 14:15:50</time>
      </trkpt>
      <trkpt lat="29.0494" lon="-13.49806">
        <ele>117.8</ele>
        <time>2021-07-02 14:15:51</time>
      </trkpt>
      <trkpt lat="29.04943" lon="-13.49805">
        <ele>117.8</ele>
        <time>2021-07-02 14:15:52</time>
      </trkpt>
      <trkpt lat="29.04945" lon="-13.49803">
        <ele>117.8</ele>
        <time>2021-07-02 14:15:53</time>
      </trkpt>
      <trkpt lat="29.04948" lon="-13.49801">
        <ele>117.4</ele>
        <time>2021-07-02 14:15:54</time>
      </trkpt>
      <trkpt lat="29.04951" lon="-13.49799">
        <ele>117.4</ele>
        <time>2021-07-02 14:15:55</time>
      </trkpt>
      <trkpt lat="29.04953" lon="-13.49797">
        <ele>117.4</ele>
        <time>2021-07-02 14:15:56</time>
      </trkpt>
      <trkpt lat="29.04955" lon="-13.49795">
        <ele>117.4</ele>
        <time>2021-07-02 14:15:57</time>
      </trkpt>
      <trkpt lat="29.04958" lon="-13.49794">
        <ele>117.4</ele>
        <time>2021-07-02 14:15:58</time>
      </trkpt>
      <trkpt lat="29.0496" lon="-13.49792">
        <ele>117.4</ele>
        <time>2021-07-02 14:15:59</time>
      </trkpt>
      <trkpt lat="29.04962" lon="-13.4979">
        <ele>117.4</ele>
        <time>2021-07-02 14:16:00</time>
      </trkpt>
      <trkpt lat="29.04965" lon="-13.49789">
        <ele>117.4</ele>
        <time>2021-07-02 14:16:01</time>
      </trkpt>
      <trkpt lat="29.04967" lon="-13.49787">
        <ele>117.4</ele>
        <time>2021-07-02 14:16:02</time>
      </trkpt>
      <trkpt lat="29.04969" lon="-13.49786">
        <ele>117.6</ele>
        <time>2021-07-02 14:16:03</time>
      </trkpt>
      <trkpt lat="29.04972" lon="-13.49784">
        <ele>117.6</ele>
        <time>2021-07-02 14:16:04</time>
      </trkpt>
      <trkpt lat="29.04974" lon="-13.49782">
        <ele>118</ele>
        <time>2021-07-02 14:16:05</time>
      </trkpt>
      <trkpt lat="29.04977" lon="-13.49781">
        <ele>118</ele>
        <time>2021-07-02 14:16:06</time>
      </trkpt>
      <trkpt lat="29.0498" lon="-13.4978">
        <ele>118.2</ele>
        <time>2021-07-02 14:16:07</time>
      </trkpt>
      <trkpt lat="29.04983" lon="-13.49779">
        <ele>118.2</ele>
        <time>2021-07-02 14:16:08</time>
      </trkpt>
      <trkpt lat="29.04986" lon="-13.49778">
        <ele>118.6</ele>
        <time>2021-07-02 14:16:09</time>
      </trkpt>
      <trkpt lat="29.0499" lon="-13.49777">
        <ele>118.6</ele>
        <time>2021-07-02 14:16:10</time>
      </trkpt>
      <trkpt lat="29.04993" lon="-13.49776">
        <ele>118.8</ele>
        <time>2021-07-02 14:16:11</time>
      </trkpt>
      <trkpt lat="29.04996" lon="-13.49775">
        <ele>118.8</ele>
        <time>2021-07-02 14:16:12</time>
      </trkpt>
      <trkpt lat="29.05" lon="-13.49774">
        <ele>118.8</ele>
        <time>2021-07-02 14:16:13</time>
      </trkpt>
      <trkpt lat="29.05003" lon="-13.49773">
        <ele>118.8</ele>
        <time>2021-07-02 14:16:14</time>
      </trkpt>
      <trkpt lat="29.05006" lon="-13.49771">
        <ele>118.8</ele>
        <time>2021-07-02 14:16:15</time>
      </trkpt>
      <trkpt lat="29.05009" lon="-13.4977">
        <ele>118.6</ele>
        <time>2021-07-02 14:16:16</time>
      </trkpt>
      <trkpt lat="29.05012" lon="-13.49768">
        <ele>118.6</ele>
        <time>2021-07-02 14:16:17</time>
      </trkpt>
      <trkpt lat="29.05015" lon="-13.49767">
        <ele>118.6</ele>
        <time>2021-07-02 14:16:18</time>
      </trkpt>
      <trkpt lat="29.05018" lon="-13.49765">
        <ele>118.6</ele>
        <time>2021-07-02 14:16:19</time>
      </trkpt>
      <trkpt lat="29.05022" lon="-13.49763">
        <ele>118.6</ele>
        <time>2021-07-02 14:16:20</time>
      </trkpt>
      <trkpt lat="29.05025" lon="-13.4976">
        <ele>118.2</ele>
        <time>2021-07-02 14:16:21</time>
      </trkpt>
      <trkpt lat="29.05028" lon="-13.49759">
        <ele>118.2</ele>
        <time>2021-07-02 14:16:22</time>
      </trkpt>
      <trkpt lat="29.05031" lon="-13.49757">
        <ele>118.2</ele>
        <time>2021-07-02 14:16:23</time>
      </trkpt>
      <trkpt lat="29.05034" lon="-13.49755">
        <ele>118</ele>
        <time>2021-07-02 14:16:24</time>
      </trkpt>
      <trkpt lat="29.05037" lon="-13.49754">
        <ele>118</ele>
        <time>2021-07-02 14:16:25</time>
      </trkpt>
      <trkpt lat="29.0504" lon="-13.49752">
        <ele>118</ele>
        <time>2021-07-02 14:16:26</time>
      </trkpt>
      <trkpt lat="29.05042" lon="-13.4975">
        <ele>117.8</ele>
        <time>2021-07-02 14:16:27</time>
      </trkpt>
      <trkpt lat="29.05043" lon="-13.49749">
        <ele>117.8</ele>
        <time>2021-07-02 14:16:28</time>
      </trkpt>
      <trkpt lat="29.05045" lon="-13.49747">
        <ele>117.8</ele>
        <time>2021-07-02 14:16:29</time>
      </trkpt>
      <trkpt lat="29.05046" lon="-13.49746">
        <ele>117.8</ele>
        <time>2021-07-02 14:16:30</time>
      </trkpt>
      <trkpt lat="29.05047" lon="-13.49744">
        <ele>117.8</ele>
        <time>2021-07-02 14:16:31</time>
      </trkpt>
      <trkpt lat="29.05049" lon="-13.49743">
        <ele>117.8</ele>
        <time>2021-07-02 14:16:32</time>
      </trkpt>
      <trkpt lat="29.05051" lon="-13.49741">
        <ele>118</ele>
        <time>2021-07-02 14:16:33</time>
      </trkpt>
      <trkpt lat="29.05053" lon="-13.49739">
        <ele>118</ele>
        <time>2021-07-02 14:16:34</time>
      </trkpt>
      <trkpt lat="29.05055" lon="-13.49737">
        <ele>118</ele>
        <time>2021-07-02 14:16:35</time>
      </trkpt>
      <trkpt lat="29.05057" lon="-13.49735">
        <ele>118</ele>
        <time>2021-07-02 14:16:36</time>
      </trkpt>
      <trkpt lat="29.05059" lon="-13.49733">
        <ele>118.2</ele>
        <time>2021-07-02 14:16:37</time>
      </trkpt>
      <trkpt lat="29.05062" lon="-13.49731">
        <ele>118.2</ele>
        <time>2021-07-02 14:16:38</time>
      </trkpt>
      <trkpt lat="29.05064" lon="-13.49729">
        <ele>118.6</ele>
        <time>2021-07-02 14:16:39</time>
      </trkpt>
      <trkpt lat="29.05065" lon="-13.49727">
        <ele>118.6</ele>
        <time>2021-07-02 14:16:40</time>
      </trkpt>
      <trkpt lat="29.05067" lon="-13.49725">
        <ele>118.8</ele>
        <time>2021-07-02 14:16:41</time>
      </trkpt>
      <trkpt lat="29.05069" lon="-13.49723">
        <ele>118.8</ele>
        <time>2021-07-02 14:16:42</time>
      </trkpt>
      <trkpt lat="29.05071" lon="-13.49721">
        <ele>119</ele>
        <time>2021-07-02 14:16:43</time>
      </trkpt>
      <trkpt lat="29.05073" lon="-13.49719">
        <ele>119</ele>
        <time>2021-07-02 14:16:44</time>
      </trkpt>
      <trkpt lat="29.05075" lon="-13.49717">
        <ele>119</ele>
        <time>2021-07-02 14:16:45</time>
      </trkpt>
      <trkpt lat="29.05076" lon="-13.49715">
        <ele>119</ele>
        <time>2021-07-02 14:16:46</time>
      </trkpt>
      <trkpt lat="29.05078" lon="-13.49713">
        <ele>119.2</ele>
        <time>2021-07-02 14:16:47</time>
      </trkpt>
      <trkpt lat="29.0508" lon="-13.49711">
        <ele>119.2</ele>
        <time>2021-07-02 14:16:48</time>
      </trkpt>
      <trkpt lat="29.05082" lon="-13.49709">
        <ele>119.2</ele>
        <time>2021-07-02 14:16:49</time>
      </trkpt>
      <trkpt lat="29.05084" lon="-13.49707">
        <ele>119.6</ele>
        <time>2021-07-02 14:16:50</time>
      </trkpt>
      <trkpt lat="29.05086" lon="-13.49705">
        <ele>119.6</ele>
        <time>2021-07-02 14:16:51</time>
      </trkpt>
      <trkpt lat="29.05088" lon="-13.49704">
        <ele>120</ele>
        <time>2021-07-02 14:16:52</time>
      </trkpt>
      <trkpt lat="29.0509" lon="-13.49703">
        <ele>120</ele>
        <time>2021-07-02 14:16:53</time>
      </trkpt>
      <trkpt lat="29.05093" lon="-13.49701">
        <ele>120.2</ele>
        <time>2021-07-02 14:16:54</time>
      </trkpt>
      <trkpt lat="29.05095" lon="-13.497">
        <ele>120.2</ele>
        <time>2021-07-02 14:16:55</time>
      </trkpt>
      <trkpt lat="29.05097" lon="-13.49699">
        <ele>120.6</ele>
        <time>2021-07-02 14:16:56</time>
      </trkpt>
      <trkpt lat="29.051" lon="-13.49697">
        <ele>120.6</ele>
        <time>2021-07-02 14:16:57</time>
      </trkpt>
      <trkpt lat="29.05102" lon="-13.49696">
        <ele>120.8</ele>
        <time>2021-07-02 14:16:58</time>
      </trkpt>
      <trkpt lat="29.05105" lon="-13.49695">
        <ele>120.8</ele>
        <time>2021-07-02 14:16:59</time>
      </trkpt>
      <trkpt lat="29.05108" lon="-13.49693">
        <ele>121</ele>
        <time>2021-07-02 14:17:00</time>
      </trkpt>
      <trkpt lat="29.05111" lon="-13.49692">
        <ele>121</ele>
        <time>2021-07-02 14:17:01</time>
      </trkpt>
      <trkpt lat="29.05115" lon="-13.49691">
        <ele>121</ele>
        <time>2021-07-02 14:17:02</time>
      </trkpt>
      <trkpt lat="29.05118" lon="-13.4969">
        <ele>121</ele>
        <time>2021-07-02 14:17:03</time>
      </trkpt>
      <trkpt lat="29.05122" lon="-13.49689">
        <ele>121</ele>
        <time>2021-07-02 14:17:04</time>
      </trkpt>
      <trkpt lat="29.05125" lon="-13.49688">
        <ele>121</ele>
        <time>2021-07-02 14:17:05</time>
      </trkpt>
      <trkpt lat="29.05129" lon="-13.49688">
        <ele>121</ele>
        <time>2021-07-02 14:17:06</time>
      </trkpt>
      <trkpt lat="29.05132" lon="-13.49686">
        <ele>120.8</ele>
        <time>2021-07-02 14:17:07</time>
      </trkpt>
      <trkpt lat="29.05136" lon="-13.49685">
        <ele>120.8</ele>
        <time>2021-07-02 14:17:08</time>
      </trkpt>
      <trkpt lat="29.05139" lon="-13.49684">
        <ele>120.8</ele>
        <time>2021-07-02 14:17:09</time>
      </trkpt>
      <trkpt lat="29.05142" lon="-13.49683">
        <ele>120.8</ele>
        <time>2021-07-02 14:17:10</time>
      </trkpt>
      <trkpt lat="29.05146" lon="-13.49682">
        <ele>120.8</ele>
        <time>2021-07-02 14:17:11</time>
      </trkpt>
      <trkpt lat="29.0515" lon="-13.49681">
        <ele>120.8</ele>
        <time>2021-07-02 14:17:12</time>
      </trkpt>
      <trkpt lat="29.05153" lon="-13.49679">
        <ele>120.8</ele>
        <time>2021-07-02 14:17:13</time>
      </trkpt>
      <trkpt lat="29.05156" lon="-13.49678">
        <ele>120.8</ele>
        <time>2021-07-02 14:17:14</time>
      </trkpt>
      <trkpt lat="29.0516" lon="-13.49677">
        <ele>120.8</ele>
        <time>2021-07-02 14:17:15</time>
      </trkpt>
      <trkpt lat="29.05163" lon="-13.49676">
        <ele>120.8</ele>
        <time>2021-07-02 14:17:16</time>
      </trkpt>
      <trkpt lat="29.05166" lon="-13.49674">
        <ele>120.6</ele>
        <time>2021-07-02 14:17:17</time>
      </trkpt>
      <trkpt lat="29.05169" lon="-13.49673">
        <ele>120.6</ele>
        <time>2021-07-02 14:17:18</time>
      </trkpt>
      <trkpt lat="29.05173" lon="-13.49672">
        <ele>120.6</ele>
        <time>2021-07-02 14:17:19</time>
      </trkpt>
      <trkpt lat="29.05176" lon="-13.49671">
        <ele>120.6</ele>
        <time>2021-07-02 14:17:20</time>
      </trkpt>
      <trkpt lat="29.0518" lon="-13.4967">
        <ele>120.6</ele>
        <time>2021-07-02 14:17:21</time>
      </trkpt>
      <trkpt lat="29.05183" lon="-13.49668">
        <ele>120.6</ele>
        <time>2021-07-02 14:17:22</time>
      </trkpt>
      <trkpt lat="29.05186" lon="-13.49667">
        <ele>120.6</ele>
        <time>2021-07-02 14:17:23</time>
      </trkpt>
      <trkpt lat="29.0519" lon="-13.49666">
        <ele>120.6</ele>
        <time>2021-07-02 14:17:24</time>
      </trkpt>
      <trkpt lat="29.05193" lon="-13.49665">
        <ele>120.6</ele>
        <time>2021-07-02 14:17:25</time>
      </trkpt>
      <trkpt lat="29.05196" lon="-13.49663">
        <ele>120.4</ele>
        <time>2021-07-02 14:17:26</time>
      </trkpt>
      <trkpt lat="29.052" lon="-13.49661">
        <ele>120.4</ele>
        <time>2021-07-02 14:17:27</time>
      </trkpt>
      <trkpt lat="29.05202" lon="-13.49659">
        <ele>120</ele>
        <time>2021-07-02 14:17:28</time>
      </trkpt>
      <trkpt lat="29.05204" lon="-13.49657">
        <ele>120</ele>
        <time>2021-07-02 14:17:29</time>
      </trkpt>
      <trkpt lat="29.05205" lon="-13.49655">
        <ele>120</ele>
        <time>2021-07-02 14:17:30</time>
      </trkpt>
      <trkpt lat="29.05206" lon="-13.49654">
        <ele>120</ele>
        <time>2021-07-02 14:17:31</time>
      </trkpt>
      <trkpt lat="29.05208" lon="-13.49651">
        <ele>120</ele>
        <time>2021-07-02 14:17:32</time>
      </trkpt>
      <trkpt lat="29.05209" lon="-13.49649">
        <ele>120</ele>
        <time>2021-07-02 14:17:33</time>
      </trkpt>
      <trkpt lat="29.05211" lon="-13.49647">
        <ele>120</ele>
        <time>2021-07-02 14:17:34</time>
      </trkpt>
      <trkpt lat="29.05213" lon="-13.49645">
        <ele>120</ele>
        <time>2021-07-02 14:17:35</time>
      </trkpt>
      <trkpt lat="29.05214" lon="-13.49642">
        <ele>120</ele>
        <time>2021-07-02 14:17:36</time>
      </trkpt>
      <trkpt lat="29.05216" lon="-13.49639">
        <ele>120.4</ele>
        <time>2021-07-02 14:17:37</time>
      </trkpt>
      <trkpt lat="29.05218" lon="-13.49637">
        <ele>120.4</ele>
        <time>2021-07-02 14:17:38</time>
      </trkpt>
      <trkpt lat="29.0522" lon="-13.49634">
        <ele>120.4</ele>
        <time>2021-07-02 14:17:39</time>
      </trkpt>
      <trkpt lat="29.05223" lon="-13.49631">
        <ele>120.4</ele>
        <time>2021-07-02 14:17:40</time>
      </trkpt>
      <trkpt lat="29.05225" lon="-13.49628">
        <ele>120.4</ele>
        <time>2021-07-02 14:17:41</time>
      </trkpt>
      <trkpt lat="29.05228" lon="-13.49625">
        <ele>120.4</ele>
        <time>2021-07-02 14:17:42</time>
      </trkpt>
      <trkpt lat="29.0523" lon="-13.49622">
        <ele>120.4</ele>
        <time>2021-07-02 14:17:43</time>
      </trkpt>
      <trkpt lat="29.05232" lon="-13.49619">
        <ele>120.6</ele>
        <time>2021-07-02 14:17:44</time>
      </trkpt>
      <trkpt lat="29.05235" lon="-13.49616">
        <ele>120.6</ele>
        <time>2021-07-02 14:17:45</time>
      </trkpt>
      <trkpt lat="29.05237" lon="-13.49613">
        <ele>120.6</ele>
        <time>2021-07-02 14:17:46</time>
      </trkpt>
      <trkpt lat="29.05239" lon="-13.4961">
        <ele>120.6</ele>
        <time>2021-07-02 14:17:47</time>
      </trkpt>
      <trkpt lat="29.05241" lon="-13.49607">
        <ele>120.6</ele>
        <time>2021-07-02 14:17:48</time>
      </trkpt>
      <trkpt lat="29.05243" lon="-13.49604">
        <ele>120.6</ele>
        <time>2021-07-02 14:17:49</time>
      </trkpt>
      <trkpt lat="29.05245" lon="-13.49601">
        <ele>120.6</ele>
        <time>2021-07-02 14:17:50</time>
      </trkpt>
      <trkpt lat="29.05247" lon="-13.49598">
        <ele>120.6</ele>
        <time>2021-07-02 14:17:51</time>
      </trkpt>
      <trkpt lat="29.05248" lon="-13.49595">
        <ele>120.6</ele>
        <time>2021-07-02 14:17:52</time>
      </trkpt>
      <trkpt lat="29.0525" lon="-13.49592">
        <ele>120.6</ele>
        <time>2021-07-02 14:17:53</time>
      </trkpt>
      <trkpt lat="29.05253" lon="-13.49589">
        <ele>120.8</ele>
        <time>2021-07-02 14:17:54</time>
      </trkpt>
      <trkpt lat="29.05255" lon="-13.49587">
        <ele>120.8</ele>
        <time>2021-07-02 14:17:55</time>
      </trkpt>
      <trkpt lat="29.05257" lon="-13.49584">
        <ele>120.8</ele>
        <time>2021-07-02 14:17:56</time>
      </trkpt>
      <trkpt lat="29.0526" lon="-13.49583">
        <ele>120.8</ele>
        <time>2021-07-02 14:17:57</time>
      </trkpt>
      <trkpt lat="29.05264" lon="-13.49581">
        <ele>120.8</ele>
        <time>2021-07-02 14:17:58</time>
      </trkpt>
      <trkpt lat="29.05268" lon="-13.4958">
        <ele>120.8</ele>
        <time>2021-07-02 14:17:59</time>
      </trkpt>
      <trkpt lat="29.05272" lon="-13.4958">
        <ele>120.8</ele>
        <time>2021-07-02 14:18:00</time>
      </trkpt>
      <trkpt lat="29.05276" lon="-13.49579">
        <ele>120.8</ele>
        <time>2021-07-02 14:18:01</time>
      </trkpt>
      <trkpt lat="29.0528" lon="-13.49579">
        <ele>120.8</ele>
        <time>2021-07-02 14:18:02</time>
      </trkpt>
      <trkpt lat="29.05284" lon="-13.49578">
        <ele>120.8</ele>
        <time>2021-07-02 14:18:03</time>
      </trkpt>
      <trkpt lat="29.05288" lon="-13.49578">
        <ele>120.8</ele>
        <time>2021-07-02 14:18:04</time>
      </trkpt>
      <trkpt lat="29.05292" lon="-13.49577">
        <ele>120.8</ele>
        <time>2021-07-02 14:18:05</time>
      </trkpt>
      <trkpt lat="29.05296" lon="-13.49575">
        <ele>120.6</ele>
        <time>2021-07-02 14:18:06</time>
      </trkpt>
      <trkpt lat="29.053" lon="-13.49574">
        <ele>120.6</ele>
        <time>2021-07-02 14:18:07</time>
      </trkpt>
      <trkpt lat="29.05303" lon="-13.49572">
        <ele>120.2</ele>
        <time>2021-07-02 14:18:08</time>
      </trkpt>
      <trkpt lat="29.05307" lon="-13.49571">
        <ele>120.2</ele>
        <time>2021-07-02 14:18:09</time>
      </trkpt>
      <trkpt lat="29.05311" lon="-13.4957">
        <ele>120.2</ele>
        <time>2021-07-02 14:18:10</time>
      </trkpt>
      <trkpt lat="29.05314" lon="-13.49569">
        <ele>120</ele>
        <time>2021-07-02 14:18:11</time>
      </trkpt>
      <trkpt lat="29.05318" lon="-13.49568">
        <ele>120</ele>
        <time>2021-07-02 14:18:12</time>
      </trkpt>
      <trkpt lat="29.05321" lon="-13.49567">
        <ele>120</ele>
        <time>2021-07-02 14:18:13</time>
      </trkpt>
      <trkpt lat="29.05324" lon="-13.49566">
        <ele>120</ele>
        <time>2021-07-02 14:18:14</time>
      </trkpt>
      <trkpt lat="29.05327" lon="-13.49565">
        <ele>119.6</ele>
        <time>2021-07-02 14:18:15</time>
      </trkpt>
      <trkpt lat="29.0533" lon="-13.49564">
        <ele>119.6</ele>
        <time>2021-07-02 14:18:16</time>
      </trkpt>
      <trkpt lat="29.05332" lon="-13.49563">
        <ele>119.6</ele>
        <time>2021-07-02 14:18:17</time>
      </trkpt>
      <trkpt lat="29.05336" lon="-13.49561">
        <ele>119.4</ele>
        <time>2021-07-02 14:18:18</time>
      </trkpt>
      <trkpt lat="29.05339" lon="-13.4956">
        <ele>119.4</ele>
        <time>2021-07-02 14:18:19</time>
      </trkpt>
      <trkpt lat="29.05342" lon="-13.49558">
        <ele>119.4</ele>
        <time>2021-07-02 14:18:20</time>
      </trkpt>
      <trkpt lat="29.05346" lon="-13.49556">
        <ele>119.4</ele>
        <time>2021-07-02 14:18:21</time>
      </trkpt>
      <trkpt lat="29.05349" lon="-13.49555">
        <ele>119.4</ele>
        <time>2021-07-02 14:18:22</time>
      </trkpt>
      <trkpt lat="29.05353" lon="-13.49553">
        <ele>119.4</ele>
        <time>2021-07-02 14:18:23</time>
      </trkpt>
      <trkpt lat="29.05357" lon="-13.49552">
        <ele>119.2</ele>
        <time>2021-07-02 14:18:24</time>
      </trkpt>
      <trkpt lat="29.0536" lon="-13.49552">
        <ele>119.2</ele>
        <time>2021-07-02 14:18:25</time>
      </trkpt>
      <trkpt lat="29.05364" lon="-13.49551">
        <ele>118.8</ele>
        <time>2021-07-02 14:18:26</time>
      </trkpt>
      <trkpt lat="29.05367" lon="-13.49551">
        <ele>118.6</ele>
        <time>2021-07-02 14:18:27</time>
      </trkpt>
      <trkpt lat="29.05371" lon="-13.49551">
        <ele>118.6</ele>
        <time>2021-07-02 14:18:28</time>
      </trkpt>
      <trkpt lat="29.05375" lon="-13.49552">
        <ele>118.2</ele>
        <time>2021-07-02 14:18:29</time>
      </trkpt>
      <trkpt lat="29.05379" lon="-13.49552">
        <ele>118.2</ele>
        <time>2021-07-02 14:18:30</time>
      </trkpt>
      <trkpt lat="29.05383" lon="-13.49553">
        <ele>117.8</ele>
        <time>2021-07-02 14:18:31</time>
      </trkpt>
      <trkpt lat="29.05386" lon="-13.49553">
        <ele>117.6</ele>
        <time>2021-07-02 14:18:32</time>
      </trkpt>
      <trkpt lat="29.0539" lon="-13.49554">
        <ele>117.6</ele>
        <time>2021-07-02 14:18:33</time>
      </trkpt>
      <trkpt lat="29.05412" lon="-13.49554">
        <ele>115.8</ele>
        <time>2021-07-02 14:18:34</time>
      </trkpt>
      <trkpt lat="29.05416" lon="-13.49553">
        <ele>115.6</ele>
        <time>2021-07-02 14:18:35</time>
      </trkpt>
      <trkpt lat="29.05421" lon="-13.49553">
        <ele>115.6</ele>
        <time>2021-07-02 14:18:36</time>
      </trkpt>
      <trkpt lat="29.05424" lon="-13.49554">
        <ele>115.2</ele>
        <time>2021-07-02 14:18:37</time>
      </trkpt>
      <trkpt lat="29.05429" lon="-13.49554">
        <ele>115.2</ele>
        <time>2021-07-02 14:18:38</time>
      </trkpt>
      <trkpt lat="29.05432" lon="-13.49556">
        <ele>115.2</ele>
        <time>2021-07-02 14:18:39</time>
      </trkpt>
      <trkpt lat="29.05435" lon="-13.49557">
        <ele>115.2</ele>
        <time>2021-07-02 14:18:40</time>
      </trkpt>
      <trkpt lat="29.05439" lon="-13.49558">
        <ele>115.2</ele>
        <time>2021-07-02 14:18:41</time>
      </trkpt>
      <trkpt lat="29.05442" lon="-13.49559">
        <ele>115.2</ele>
        <time>2021-07-02 14:18:42</time>
      </trkpt>
      <trkpt lat="29.05445" lon="-13.49559">
        <ele>115.2</ele>
        <time>2021-07-02 14:18:43</time>
      </trkpt>
      <trkpt lat="29.05447" lon="-13.49561">
        <ele>115.2</ele>
        <time>2021-07-02 14:18:44</time>
      </trkpt>
      <trkpt lat="29.0545" lon="-13.49563">
        <ele>115.2</ele>
        <time>2021-07-02 14:18:45</time>
      </trkpt>
      <trkpt lat="29.05454" lon="-13.49565">
        <ele>115.2</ele>
        <time>2021-07-02 14:18:46</time>
      </trkpt>
      <trkpt lat="29.05457" lon="-13.49566">
        <ele>115.2</ele>
        <time>2021-07-02 14:18:47</time>
      </trkpt>
      <trkpt lat="29.0546" lon="-13.49567">
        <ele>115.4</ele>
        <time>2021-07-02 14:18:48</time>
      </trkpt>
      <trkpt lat="29.05464" lon="-13.49569">
        <ele>115.4</ele>
        <time>2021-07-02 14:18:49</time>
      </trkpt>
      <trkpt lat="29.0547" lon="-13.49572">
        <ele>115.4</ele>
        <time>2021-07-02 14:18:50</time>
      </trkpt>
      <trkpt lat="29.05473" lon="-13.49573">
        <ele>115.4</ele>
        <time>2021-07-02 14:18:51</time>
      </trkpt>
      <trkpt lat="29.05477" lon="-13.49575">
        <ele>115.4</ele>
        <time>2021-07-02 14:18:52</time>
      </trkpt>
      <trkpt lat="29.0548" lon="-13.49577">
        <ele>115.4</ele>
        <time>2021-07-02 14:18:53</time>
      </trkpt>
      <trkpt lat="29.05483" lon="-13.49579">
        <ele>115.4</ele>
        <time>2021-07-02 14:18:54</time>
      </trkpt>
      <trkpt lat="29.05487" lon="-13.49581">
        <ele>115.2</ele>
        <time>2021-07-02 14:18:55</time>
      </trkpt>
      <trkpt lat="29.0549" lon="-13.49583">
        <ele>115.2</ele>
        <time>2021-07-02 14:18:56</time>
      </trkpt>
      <trkpt lat="29.05494" lon="-13.49585">
        <ele>115.2</ele>
        <time>2021-07-02 14:18:57</time>
      </trkpt>
      <trkpt lat="29.05498" lon="-13.49587">
        <ele>115.2</ele>
        <time>2021-07-02 14:18:58</time>
      </trkpt>
      <trkpt lat="29.05502" lon="-13.49588">
        <ele>115.2</ele>
        <time>2021-07-02 14:18:59</time>
      </trkpt>
      <trkpt lat="29.05505" lon="-13.4959">
        <ele>115.2</ele>
        <time>2021-07-02 14:19:00</time>
      </trkpt>
      <trkpt lat="29.05509" lon="-13.49592">
        <ele>115.2</ele>
        <time>2021-07-02 14:19:01</time>
      </trkpt>
      <trkpt lat="29.05513" lon="-13.49594">
        <ele>115</ele>
        <time>2021-07-02 14:19:02</time>
      </trkpt>
      <trkpt lat="29.05517" lon="-13.49596">
        <ele>115</ele>
        <time>2021-07-02 14:19:03</time>
      </trkpt>
      <trkpt lat="29.0552" lon="-13.49598">
        <ele>115</ele>
        <time>2021-07-02 14:19:04</time>
      </trkpt>
      <trkpt lat="29.05523" lon="-13.49601">
        <ele>115</ele>
        <time>2021-07-02 14:19:05</time>
      </trkpt>
      <trkpt lat="29.05525" lon="-13.49603">
        <ele>115</ele>
        <time>2021-07-02 14:19:06</time>
      </trkpt>
      <trkpt lat="29.05527" lon="-13.49606">
        <ele>115</ele>
        <time>2021-07-02 14:19:07</time>
      </trkpt>
      <trkpt lat="29.05528" lon="-13.49609">
        <ele>115</ele>
        <time>2021-07-02 14:19:08</time>
      </trkpt>
      <trkpt lat="29.05529" lon="-13.49611">
        <ele>115</ele>
        <time>2021-07-02 14:19:09</time>
      </trkpt>
      <trkpt lat="29.0553" lon="-13.49614">
        <ele>115</ele>
        <time>2021-07-02 14:19:10</time>
      </trkpt>
      <trkpt lat="29.05531" lon="-13.49616">
        <ele>115</ele>
        <time>2021-07-02 14:19:11</time>
      </trkpt>
      <trkpt lat="29.05532" lon="-13.49618">
        <ele>115</ele>
        <time>2021-07-02 14:19:12</time>
      </trkpt>
      <trkpt lat="29.05533" lon="-13.49618">
        <ele>115</ele>
        <time>2021-07-02 14:19:13</time>
      </trkpt>
      <trkpt lat="29.05534" lon="-13.49618">
        <ele>115.2</ele>
        <time>2021-07-02 14:19:14</time>
      </trkpt>
      <trkpt lat="29.05537" lon="-13.49618">
        <ele>115.2</ele>
        <time>2021-07-02 14:19:15</time>
      </trkpt>
      <trkpt lat="29.0554" lon="-13.49618">
        <ele>115.4</ele>
        <time>2021-07-02 14:19:16</time>
      </trkpt>
      <trkpt lat="29.05543" lon="-13.49619">
        <ele>115.4</ele>
        <time>2021-07-02 14:19:17</time>
      </trkpt>
      <trkpt lat="29.05545" lon="-13.49619">
        <ele>115.4</ele>
        <time>2021-07-02 14:19:18</time>
      </trkpt>
      <trkpt lat="29.05549" lon="-13.49617">
        <ele>115.2</ele>
        <time>2021-07-02 14:19:19</time>
      </trkpt>
      <trkpt lat="29.05553" lon="-13.49616">
        <ele>114.8</ele>
        <time>2021-07-02 14:19:20</time>
      </trkpt>
      <trkpt lat="29.05556" lon="-13.49613">
        <ele>114.6</ele>
        <time>2021-07-02 14:19:21</time>
      </trkpt>
      <trkpt lat="29.05558" lon="-13.49611">
        <ele>114.2</ele>
        <time>2021-07-02 14:19:22</time>
      </trkpt>
      <trkpt lat="29.05558" lon="-13.49611">
        <ele>114.2</ele>
        <time>2021-07-02 14:19:23</time>
      </trkpt>
      <trkpt lat="29.05559" lon="-13.4961">
        <ele>114.2</ele>
        <time>2021-07-02 14:19:24</time>
      </trkpt>
      <trkpt lat="29.0556" lon="-13.49609">
        <ele>114.2</ele>
        <time>2021-07-02 14:19:25</time>
      </trkpt>
      <trkpt lat="29.05562" lon="-13.49609">
        <ele>114.2</ele>
        <time>2021-07-02 14:19:26</time>
      </trkpt>
      <trkpt lat="29.05563" lon="-13.49609">
        <ele>114.2</ele>
        <time>2021-07-02 14:19:27</time>
      </trkpt>
      <trkpt lat="29.05564" lon="-13.49608">
        <ele>114.2</ele>
        <time>2021-07-02 14:19:28</time>
      </trkpt>
      <trkpt lat="29.05566" lon="-13.49608">
        <ele>114.4</ele>
        <time>2021-07-02 14:19:29</time>
      </trkpt>
      <trkpt lat="29.05567" lon="-13.49607">
        <ele>114.4</ele>
        <time>2021-07-02 14:19:30</time>
      </trkpt>
      <trkpt lat="29.05568" lon="-13.49608">
        <ele>114.4</ele>
        <time>2021-07-02 14:19:31</time>
      </trkpt>
      <trkpt lat="29.0557" lon="-13.49608">
        <ele>114.6</ele>
        <time>2021-07-02 14:19:32</time>
      </trkpt>
      <trkpt lat="29.05571" lon="-13.49608">
        <ele>114.6</ele>
        <time>2021-07-02 14:19:33</time>
      </trkpt>
      <trkpt lat="29.05573" lon="-13.49608">
        <ele>114.6</ele>
        <time>2021-07-02 14:19:34</time>
      </trkpt>
      <trkpt lat="29.05575" lon="-13.49608">
        <ele>115</ele>
        <time>2021-07-02 14:19:35</time>
      </trkpt>
      <trkpt lat="29.05576" lon="-13.49609">
        <ele>115</ele>
        <time>2021-07-02 14:19:36</time>
      </trkpt>
      <trkpt lat="29.05578" lon="-13.49609">
        <ele>115.2</ele>
        <time>2021-07-02 14:19:37</time>
      </trkpt>
      <trkpt lat="29.0558" lon="-13.49609">
        <ele>115.4</ele>
        <time>2021-07-02 14:19:38</time>
      </trkpt>
      <trkpt lat="29.05582" lon="-13.4961">
        <ele>115.8</ele>
        <time>2021-07-02 14:19:39</time>
      </trkpt>
      <trkpt lat="29.05583" lon="-13.4961">
        <ele>116.2</ele>
        <time>2021-07-02 14:19:40</time>
      </trkpt>
      <trkpt lat="29.05584" lon="-13.4961">
        <ele>116.4</ele>
        <time>2021-07-02 14:19:41</time>
      </trkpt>
      <trkpt lat="29.05585" lon="-13.4961">
        <ele>116.8</ele>
        <time>2021-07-02 14:19:42</time>
      </trkpt>
      <trkpt lat="29.05586" lon="-13.4961">
        <ele>117</ele>
        <time>2021-07-02 14:19:43</time>
      </trkpt>
      <trkpt lat="29.05588" lon="-13.4961">
        <ele>117.4</ele>
        <time>2021-07-02 14:19:44</time>
      </trkpt>
      <trkpt lat="29.05589" lon="-13.49609">
        <ele>117.6</ele>
        <time>2021-07-02 14:19:45</time>
      </trkpt>
      <trkpt lat="29.0559" lon="-13.49608">
        <ele>117.8</ele>
        <time>2021-07-02 14:19:46</time>
      </trkpt>
      <trkpt lat="29.05591" lon="-13.49608">
        <ele>118</ele>
        <time>2021-07-02 14:19:47</time>
      </trkpt>
      <trkpt lat="29.05591" lon="-13.49608">
        <ele>118.4</ele>
        <time>2021-07-02 14:19:48</time>
      </trkpt>
      <trkpt lat="29.05591" lon="-13.49608">
        <ele>118.8</ele>
        <time>2021-07-02 14:19:49</time>
      </trkpt>
      <trkpt lat="29.05592" lon="-13.49608">
        <ele>119</ele>
        <time>2021-07-02 14:19:50</time>
      </trkpt>
      <trkpt lat="29.05592" lon="-13.49608">
        <ele>119.2</ele>
        <time>2021-07-02 14:19:51</time>
      </trkpt>
      <trkpt lat="29.05593" lon="-13.49608">
        <ele>119.6</ele>
        <time>2021-07-02 14:19:52</time>
      </trkpt>
      <trkpt lat="29.05593" lon="-13.49608">
        <ele>119.8</ele>
        <time>2021-07-02 14:19:53</time>
      </trkpt>
      <trkpt lat="29.05594" lon="-13.49607">
        <ele>119.8</ele>
        <time>2021-07-02 14:19:54</time>
      </trkpt>
      <trkpt lat="29.05595" lon="-13.49607">
        <ele>120.2</ele>
        <time>2021-07-02 14:19:55</time>
      </trkpt>
      <trkpt lat="29.05595" lon="-13.49606">
        <ele>120.2</ele>
        <time>2021-07-02 14:19:56</time>
      </trkpt>
      <trkpt lat="29.05596" lon="-13.49606">
        <ele>120.4</ele>
        <time>2021-07-02 14:19:57</time>
      </trkpt>
      <trkpt lat="29.05597" lon="-13.49605">
        <ele>120.4</ele>
        <time>2021-07-02 14:19:58</time>
      </trkpt>
      <trkpt lat="29.05599" lon="-13.49604">
        <ele>120.4</ele>
        <time>2021-07-02 14:19:59</time>
      </trkpt>
      <trkpt lat="29.056" lon="-13.49603">
        <ele>120.4</ele>
        <time>2021-07-02 14:20:00</time>
      </trkpt>
      <trkpt lat="29.05602" lon="-13.49603">
        <ele>120.8</ele>
        <time>2021-07-02 14:20:01</time>
      </trkpt>
      <trkpt lat="29.05603" lon="-13.49601">
        <ele>120.8</ele>
        <time>2021-07-02 14:20:02</time>
      </trkpt>
      <trkpt lat="29.05605" lon="-13.496">
        <ele>121.2</ele>
        <time>2021-07-02 14:20:03</time>
      </trkpt>
      <trkpt lat="29.05606" lon="-13.49598">
        <ele>121.4</ele>
        <time>2021-07-02 14:20:04</time>
      </trkpt>
      <trkpt lat="29.05608" lon="-13.49597">
        <ele>121.4</ele>
        <time>2021-07-02 14:20:05</time>
      </trkpt>
      <trkpt lat="29.05609" lon="-13.49595">
        <ele>121.8</ele>
        <time>2021-07-02 14:20:06</time>
      </trkpt>
      <trkpt lat="29.0561" lon="-13.49592">
        <ele>121.8</ele>
        <time>2021-07-02 14:20:07</time>
      </trkpt>
      <trkpt lat="29.05612" lon="-13.4959">
        <ele>121.8</ele>
        <time>2021-07-02 14:20:08</time>
      </trkpt>
      <trkpt lat="29.05614" lon="-13.49589">
        <ele>121.8</ele>
        <time>2021-07-02 14:20:09</time>
      </trkpt>
      <trkpt lat="29.05617" lon="-13.49588">
        <ele>123.4</ele>
        <time>2021-07-02 14:20:10</time>
      </trkpt>
      <trkpt lat="29.05619" lon="-13.49586">
        <ele>122.6</ele>
        <time>2021-07-02 14:20:11</time>
      </trkpt>
      <trkpt lat="29.05621" lon="-13.49584">
        <ele>122.6</ele>
        <time>2021-07-02 14:20:12</time>
      </trkpt>
      <trkpt lat="29.05623" lon="-13.49582">
        <ele>121.4</ele>
        <time>2021-07-02 14:20:13</time>
      </trkpt>
      <trkpt lat="29.05625" lon="-13.4958">
        <ele>121.4</ele>
        <time>2021-07-02 14:20:14</time>
      </trkpt>
      <trkpt lat="29.05627" lon="-13.49578">
        <ele>120.6</ele>
        <time>2021-07-02 14:20:15</time>
      </trkpt>
      <trkpt lat="29.05629" lon="-13.49576">
        <ele>120.4</ele>
        <time>2021-07-02 14:20:16</time>
      </trkpt>
      <trkpt lat="29.0563" lon="-13.49573">
        <ele>120.4</ele>
        <time>2021-07-02 14:20:17</time>
      </trkpt>
      <trkpt lat="29.05632" lon="-13.49571">
        <ele>120</ele>
        <time>2021-07-02 14:20:18</time>
      </trkpt>
      <trkpt lat="29.05634" lon="-13.49568">
        <ele>120</ele>
        <time>2021-07-02 14:20:19</time>
      </trkpt>
      <trkpt lat="29.05637" lon="-13.49565">
        <ele>120</ele>
        <time>2021-07-02 14:20:20</time>
      </trkpt>
      <trkpt lat="29.05639" lon="-13.49562">
        <ele>120</ele>
        <time>2021-07-02 14:20:21</time>
      </trkpt>
      <trkpt lat="29.05641" lon="-13.4956">
        <ele>120</ele>
        <time>2021-07-02 14:20:22</time>
      </trkpt>
      <trkpt lat="29.05644" lon="-13.49557">
        <ele>120</ele>
        <time>2021-07-02 14:20:23</time>
      </trkpt>
      <trkpt lat="29.05646" lon="-13.49554">
        <ele>120</ele>
        <time>2021-07-02 14:20:24</time>
      </trkpt>
      <trkpt lat="29.05649" lon="-13.4955">
        <ele>120</ele>
        <time>2021-07-02 14:20:25</time>
      </trkpt>
      <trkpt lat="29.05651" lon="-13.49547">
        <ele>120</ele>
        <time>2021-07-02 14:20:26</time>
      </trkpt>
      <trkpt lat="29.05654" lon="-13.49544">
        <ele>120.4</ele>
        <time>2021-07-02 14:20:27</time>
      </trkpt>
      <trkpt lat="29.05657" lon="-13.49541">
        <ele>120.4</ele>
        <time>2021-07-02 14:20:28</time>
      </trkpt>
      <trkpt lat="29.05659" lon="-13.49538">
        <ele>120.4</ele>
        <time>2021-07-02 14:20:29</time>
      </trkpt>
      <trkpt lat="29.05662" lon="-13.49536">
        <ele>120.2</ele>
        <time>2021-07-02 14:20:30</time>
      </trkpt>
      <trkpt lat="29.05664" lon="-13.49533">
        <ele>120.2</ele>
        <time>2021-07-02 14:20:31</time>
      </trkpt>
      <trkpt lat="29.05667" lon="-13.4953">
        <ele>120.2</ele>
        <time>2021-07-02 14:20:32</time>
      </trkpt>
      <trkpt lat="29.05669" lon="-13.49527">
        <ele>120.2</ele>
        <time>2021-07-02 14:20:33</time>
      </trkpt>
      <trkpt lat="29.05672" lon="-13.49524">
        <ele>120.6</ele>
        <time>2021-07-02 14:20:34</time>
      </trkpt>
      <trkpt lat="29.05674" lon="-13.4952">
        <ele>120.6</ele>
        <time>2021-07-02 14:20:35</time>
      </trkpt>
      <trkpt lat="29.05677" lon="-13.49517">
        <ele>121</ele>
        <time>2021-07-02 14:20:36</time>
      </trkpt>
      <trkpt lat="29.0568" lon="-13.49514">
        <ele>120.8</ele>
        <time>2021-07-02 14:20:37</time>
      </trkpt>
      <trkpt lat="29.05682" lon="-13.49511">
        <ele>120.6</ele>
        <time>2021-07-02 14:20:38</time>
      </trkpt>
      <trkpt lat="29.05685" lon="-13.49508">
        <ele>120.6</ele>
        <time>2021-07-02 14:20:39</time>
      </trkpt>
      <trkpt lat="29.05687" lon="-13.49505">
        <ele>120.2</ele>
        <time>2021-07-02 14:20:40</time>
      </trkpt>
      <trkpt lat="29.0569" lon="-13.49502">
        <ele>120.2</ele>
        <time>2021-07-02 14:20:41</time>
      </trkpt>
      <trkpt lat="29.05692" lon="-13.49499">
        <ele>120.2</ele>
        <time>2021-07-02 14:20:42</time>
      </trkpt>
      <trkpt lat="29.05695" lon="-13.49495">
        <ele>120.2</ele>
        <time>2021-07-02 14:20:43</time>
      </trkpt>
      <trkpt lat="29.05698" lon="-13.49492">
        <ele>120.2</ele>
        <time>2021-07-02 14:20:44</time>
      </trkpt>
      <trkpt lat="29.05701" lon="-13.49489">
        <ele>120.2</ele>
        <time>2021-07-02 14:20:45</time>
      </trkpt>
      <trkpt lat="29.05703" lon="-13.49486">
        <ele>120.2</ele>
        <time>2021-07-02 14:20:46</time>
      </trkpt>
      <trkpt lat="29.05706" lon="-13.49482">
        <ele>120.2</ele>
        <time>2021-07-02 14:20:47</time>
      </trkpt>
      <trkpt lat="29.05708" lon="-13.49479">
        <ele>120.2</ele>
        <time>2021-07-02 14:20:48</time>
      </trkpt>
      <trkpt lat="29.05711" lon="-13.49476">
        <ele>120.2</ele>
        <time>2021-07-02 14:20:49</time>
      </trkpt>
      <trkpt lat="29.05714" lon="-13.49473">
        <ele>120</ele>
        <time>2021-07-02 14:20:50</time>
      </trkpt>
      <trkpt lat="29.05717" lon="-13.4947">
        <ele>120</ele>
        <time>2021-07-02 14:20:51</time>
      </trkpt>
      <trkpt lat="29.0572" lon="-13.49467">
        <ele>120.2</ele>
        <time>2021-07-02 14:20:52</time>
      </trkpt>
      <trkpt lat="29.05722" lon="-13.49464">
        <ele>120.2</ele>
        <time>2021-07-02 14:20:53</time>
      </trkpt>
      <trkpt lat="29.05725" lon="-13.49461">
        <ele>120</ele>
        <time>2021-07-02 14:20:54</time>
      </trkpt>
      <trkpt lat="29.05727" lon="-13.49459">
        <ele>120</ele>
        <time>2021-07-02 14:20:55</time>
      </trkpt>
      <trkpt lat="29.0573" lon="-13.49455">
        <ele>120</ele>
        <time>2021-07-02 14:20:56</time>
      </trkpt>
      <trkpt lat="29.05733" lon="-13.49452">
        <ele>119.8</ele>
        <time>2021-07-02 14:20:57</time>
      </trkpt>
      <trkpt lat="29.05735" lon="-13.49449">
        <ele>119.8</ele>
        <time>2021-07-02 14:20:58</time>
      </trkpt>
      <trkpt lat="29.05738" lon="-13.49446">
        <ele>119.8</ele>
        <time>2021-07-02 14:20:59</time>
      </trkpt>
      <trkpt lat="29.05741" lon="-13.49443">
        <ele>119.6</ele>
        <time>2021-07-02 14:21:00</time>
      </trkpt>
      <trkpt lat="29.05744" lon="-13.49439">
        <ele>119.6</ele>
        <time>2021-07-02 14:21:01</time>
      </trkpt>
      <trkpt lat="29.05747" lon="-13.49436">
        <ele>119.6</ele>
        <time>2021-07-02 14:21:02</time>
      </trkpt>
      <trkpt lat="29.0575" lon="-13.49433">
        <ele>119.6</ele>
        <time>2021-07-02 14:21:03</time>
      </trkpt>
      <trkpt lat="29.05753" lon="-13.4943">
        <ele>119.6</ele>
        <time>2021-07-02 14:21:04</time>
      </trkpt>
      <trkpt lat="29.05755" lon="-13.49427">
        <ele>119.6</ele>
        <time>2021-07-02 14:21:05</time>
      </trkpt>
      <trkpt lat="29.05757" lon="-13.49424">
        <ele>119.4</ele>
        <time>2021-07-02 14:21:06</time>
      </trkpt>
      <trkpt lat="29.0576" lon="-13.49421">
        <ele>119.4</ele>
        <time>2021-07-02 14:21:07</time>
      </trkpt>
      <trkpt lat="29.05763" lon="-13.49418">
        <ele>119.4</ele>
        <time>2021-07-02 14:21:08</time>
      </trkpt>
      <trkpt lat="29.05766" lon="-13.49414">
        <ele>119.4</ele>
        <time>2021-07-02 14:21:09</time>
      </trkpt>
      <trkpt lat="29.05769" lon="-13.49411">
        <ele>119.4</ele>
        <time>2021-07-02 14:21:10</time>
      </trkpt>
      <trkpt lat="29.05772" lon="-13.49408">
        <ele>119.2</ele>
        <time>2021-07-02 14:21:11</time>
      </trkpt>
      <trkpt lat="29.05774" lon="-13.49405">
        <ele>119.2</ele>
        <time>2021-07-02 14:21:12</time>
      </trkpt>
      <trkpt lat="29.05777" lon="-13.49402">
        <ele>119.2</ele>
        <time>2021-07-02 14:21:13</time>
      </trkpt>
      <trkpt lat="29.05779" lon="-13.49398">
        <ele>119.2</ele>
        <time>2021-07-02 14:21:14</time>
      </trkpt>
      <trkpt lat="29.05782" lon="-13.49395">
        <ele>118.8</ele>
        <time>2021-07-02 14:21:15</time>
      </trkpt>
      <trkpt lat="29.05784" lon="-13.49392">
        <ele>118.6</ele>
        <time>2021-07-02 14:21:16</time>
      </trkpt>
      <trkpt lat="29.05787" lon="-13.49389">
        <ele>118.6</ele>
        <time>2021-07-02 14:21:17</time>
      </trkpt>
      <trkpt lat="29.05789" lon="-13.49386">
        <ele>118.4</ele>
        <time>2021-07-02 14:21:18</time>
      </trkpt>
      <trkpt lat="29.05792" lon="-13.49382">
        <ele>118.4</ele>
        <time>2021-07-02 14:21:19</time>
      </trkpt>
      <trkpt lat="29.05794" lon="-13.49379">
        <ele>118.4</ele>
        <time>2021-07-02 14:21:20</time>
      </trkpt>
      <trkpt lat="29.05797" lon="-13.49376">
        <ele>118.4</ele>
        <time>2021-07-02 14:21:21</time>
      </trkpt>
      <trkpt lat="29.05799" lon="-13.49372">
        <ele>118.4</ele>
        <time>2021-07-02 14:21:22</time>
      </trkpt>
      <trkpt lat="29.05802" lon="-13.49369">
        <ele>118.4</ele>
        <time>2021-07-02 14:21:23</time>
      </trkpt>
      <trkpt lat="29.05804" lon="-13.49366">
        <ele>118.4</ele>
        <time>2021-07-02 14:21:24</time>
      </trkpt>
      <trkpt lat="29.05807" lon="-13.49363">
        <ele>118.4</ele>
        <time>2021-07-02 14:21:25</time>
      </trkpt>
      <trkpt lat="29.05809" lon="-13.4936">
        <ele>118.4</ele>
        <time>2021-07-02 14:21:26</time>
      </trkpt>
      <trkpt lat="29.05811" lon="-13.49357">
        <ele>118</ele>
        <time>2021-07-02 14:21:27</time>
      </trkpt>
      <trkpt lat="29.05814" lon="-13.49354">
        <ele>118</ele>
        <time>2021-07-02 14:21:28</time>
      </trkpt>
      <trkpt lat="29.05816" lon="-13.49352">
        <ele>118</ele>
        <time>2021-07-02 14:21:29</time>
      </trkpt>
      <trkpt lat="29.05818" lon="-13.49348">
        <ele>118</ele>
        <time>2021-07-02 14:21:30</time>
      </trkpt>
      <trkpt lat="29.0582" lon="-13.49345">
        <ele>118</ele>
        <time>2021-07-02 14:21:31</time>
      </trkpt>
      <trkpt lat="29.05821" lon="-13.49341">
        <ele>117.8</ele>
        <time>2021-07-02 14:21:32</time>
      </trkpt>
      <trkpt lat="29.05822" lon="-13.49337">
        <ele>117.8</ele>
        <time>2021-07-02 14:21:33</time>
      </trkpt>
      <trkpt lat="29.05824" lon="-13.49334">
        <ele>117.8</ele>
        <time>2021-07-02 14:21:34</time>
      </trkpt>
      <trkpt lat="29.05825" lon="-13.49331">
        <ele>117.6</ele>
        <time>2021-07-02 14:21:35</time>
      </trkpt>
      <trkpt lat="29.05828" lon="-13.49328">
        <ele>117.6</ele>
        <time>2021-07-02 14:21:36</time>
      </trkpt>
      <trkpt lat="29.0583" lon="-13.49326">
        <ele>117.6</ele>
        <time>2021-07-02 14:21:37</time>
      </trkpt>
      <trkpt lat="29.05832" lon="-13.49323">
        <ele>117.8</ele>
        <time>2021-07-02 14:21:38</time>
      </trkpt>
      <trkpt lat="29.05835" lon="-13.4932">
        <ele>117.8</ele>
        <time>2021-07-02 14:21:39</time>
      </trkpt>
      <trkpt lat="29.05837" lon="-13.49317">
        <ele>117.8</ele>
        <time>2021-07-02 14:21:40</time>
      </trkpt>
      <trkpt lat="29.05839" lon="-13.49314">
        <ele>117.8</ele>
        <time>2021-07-02 14:21:41</time>
      </trkpt>
      <trkpt lat="29.05841" lon="-13.49311">
        <ele>117.8</ele>
        <time>2021-07-02 14:21:42</time>
      </trkpt>
      <trkpt lat="29.05843" lon="-13.49308">
        <ele>117.8</ele>
        <time>2021-07-02 14:21:43</time>
      </trkpt>
      <trkpt lat="29.05845" lon="-13.49304">
        <ele>118</ele>
        <time>2021-07-02 14:21:44</time>
      </trkpt>
      <trkpt lat="29.05847" lon="-13.49302">
        <ele>118</ele>
        <time>2021-07-02 14:21:45</time>
      </trkpt>
      <trkpt lat="29.0585" lon="-13.49299">
        <ele>118</ele>
        <time>2021-07-02 14:21:46</time>
      </trkpt>
      <trkpt lat="29.05852" lon="-13.49296">
        <ele>118</ele>
        <time>2021-07-02 14:21:47</time>
      </trkpt>
      <trkpt lat="29.05854" lon="-13.49293">
        <ele>118</ele>
        <time>2021-07-02 14:21:48</time>
      </trkpt>
      <trkpt lat="29.05856" lon="-13.4929">
        <ele>118</ele>
        <time>2021-07-02 14:21:49</time>
      </trkpt>
      <trkpt lat="29.05858" lon="-13.49287">
        <ele>118</ele>
        <time>2021-07-02 14:21:50</time>
      </trkpt>
      <trkpt lat="29.0586" lon="-13.49284">
        <ele>118.4</ele>
        <time>2021-07-02 14:21:51</time>
      </trkpt>
      <trkpt lat="29.05862" lon="-13.49281">
        <ele>118.4</ele>
        <time>2021-07-02 14:21:52</time>
      </trkpt>
      <trkpt lat="29.05865" lon="-13.49278">
        <ele>118.6</ele>
        <time>2021-07-02 14:21:53</time>
      </trkpt>
      <trkpt lat="29.05867" lon="-13.49275">
        <ele>118.6</ele>
        <time>2021-07-02 14:21:54</time>
      </trkpt>
      <trkpt lat="29.05869" lon="-13.49272">
        <ele>118.8</ele>
        <time>2021-07-02 14:21:55</time>
      </trkpt>
      <trkpt lat="29.05871" lon="-13.49268">
        <ele>118.8</ele>
        <time>2021-07-02 14:21:56</time>
      </trkpt>
      <trkpt lat="29.05873" lon="-13.49265">
        <ele>119.2</ele>
        <time>2021-07-02 14:21:57</time>
      </trkpt>
      <trkpt lat="29.05875" lon="-13.49263">
        <ele>119.2</ele>
        <time>2021-07-02 14:21:58</time>
      </trkpt>
      <trkpt lat="29.05877" lon="-13.4926">
        <ele>119.4</ele>
        <time>2021-07-02 14:21:59</time>
      </trkpt>
      <trkpt lat="29.0588" lon="-13.49257">
        <ele>119.4</ele>
        <time>2021-07-02 14:22:00</time>
      </trkpt>
      <trkpt lat="29.05882" lon="-13.49253">
        <ele>119.4</ele>
        <time>2021-07-02 14:22:01</time>
      </trkpt>
      <trkpt lat="29.05884" lon="-13.4925">
        <ele>119.6</ele>
        <time>2021-07-02 14:22:02</time>
      </trkpt>
      <trkpt lat="29.05886" lon="-13.49248">
        <ele>119.6</ele>
        <time>2021-07-02 14:22:03</time>
      </trkpt>
      <trkpt lat="29.05888" lon="-13.49245">
        <ele>119.6</ele>
        <time>2021-07-02 14:22:04</time>
      </trkpt>
      <trkpt lat="29.0589" lon="-13.49243">
        <ele>119.6</ele>
        <time>2021-07-02 14:22:05</time>
      </trkpt>
      <trkpt lat="29.05892" lon="-13.49241">
        <ele>119.6</ele>
        <time>2021-07-02 14:22:06</time>
      </trkpt>
      <trkpt lat="29.05894" lon="-13.49238">
        <ele>119.6</ele>
        <time>2021-07-02 14:22:07</time>
      </trkpt>
      <trkpt lat="29.05896" lon="-13.49235">
        <ele>119.8</ele>
        <time>2021-07-02 14:22:08</time>
      </trkpt>
      <trkpt lat="29.05897" lon="-13.49233">
        <ele>119.8</ele>
        <time>2021-07-02 14:22:09</time>
      </trkpt>
      <trkpt lat="29.05899" lon="-13.49229">
        <ele>119.8</ele>
        <time>2021-07-02 14:22:10</time>
      </trkpt>
      <trkpt lat="29.05901" lon="-13.49227">
        <ele>119.8</ele>
        <time>2021-07-02 14:22:11</time>
      </trkpt>
      <trkpt lat="29.05903" lon="-13.49224">
        <ele>119.8</ele>
        <time>2021-07-02 14:22:12</time>
      </trkpt>
      <trkpt lat="29.05905" lon="-13.49221">
        <ele>119.8</ele>
        <time>2021-07-02 14:22:13</time>
      </trkpt>
      <trkpt lat="29.05907" lon="-13.49218">
        <ele>119.8</ele>
        <time>2021-07-02 14:22:14</time>
      </trkpt>
      <trkpt lat="29.05909" lon="-13.49216">
        <ele>119.8</ele>
        <time>2021-07-02 14:22:15</time>
      </trkpt>
      <trkpt lat="29.05911" lon="-13.49213">
        <ele>120</ele>
        <time>2021-07-02 14:22:16</time>
      </trkpt>
      <trkpt lat="29.05913" lon="-13.4921">
        <ele>120.4</ele>
        <time>2021-07-02 14:22:17</time>
      </trkpt>
      <trkpt lat="29.05914" lon="-13.49208">
        <ele>120.2</ele>
        <time>2021-07-02 14:22:18</time>
      </trkpt>
      <trkpt lat="29.05916" lon="-13.49205">
        <ele>120.2</ele>
        <time>2021-07-02 14:22:19</time>
      </trkpt>
      <trkpt lat="29.05918" lon="-13.49203">
        <ele>120</ele>
        <time>2021-07-02 14:22:20</time>
      </trkpt>
      <trkpt lat="29.0592" lon="-13.492">
        <ele>120</ele>
        <time>2021-07-02 14:22:21</time>
      </trkpt>
      <trkpt lat="29.05922" lon="-13.49197">
        <ele>120</ele>
        <time>2021-07-02 14:22:22</time>
      </trkpt>
      <trkpt lat="29.05924" lon="-13.49195">
        <ele>119.8</ele>
        <time>2021-07-02 14:22:23</time>
      </trkpt>
      <trkpt lat="29.05927" lon="-13.49192">
        <ele>119.8</ele>
        <time>2021-07-02 14:22:24</time>
      </trkpt>
      <trkpt lat="29.05929" lon="-13.49189">
        <ele>119.8</ele>
        <time>2021-07-02 14:22:25</time>
      </trkpt>
      <trkpt lat="29.05931" lon="-13.49187">
        <ele>119.8</ele>
        <time>2021-07-02 14:22:26</time>
      </trkpt>
      <trkpt lat="29.05933" lon="-13.49185">
        <ele>119.8</ele>
        <time>2021-07-02 14:22:27</time>
      </trkpt>
      <trkpt lat="29.05935" lon="-13.49182">
        <ele>120</ele>
        <time>2021-07-02 14:22:28</time>
      </trkpt>
      <trkpt lat="29.05937" lon="-13.49179">
        <ele>120</ele>
        <time>2021-07-02 14:22:29</time>
      </trkpt>
      <trkpt lat="29.05939" lon="-13.49176">
        <ele>120</ele>
        <time>2021-07-02 14:22:30</time>
      </trkpt>
      <trkpt lat="29.05941" lon="-13.49173">
        <ele>120</ele>
        <time>2021-07-02 14:22:31</time>
      </trkpt>
      <trkpt lat="29.05942" lon="-13.49171">
        <ele>120.2</ele>
        <time>2021-07-02 14:22:32</time>
      </trkpt>
      <trkpt lat="29.05944" lon="-13.49168">
        <ele>120.2</ele>
        <time>2021-07-02 14:22:33</time>
      </trkpt>
      <trkpt lat="29.05946" lon="-13.49165">
        <ele>120.2</ele>
        <time>2021-07-02 14:22:34</time>
      </trkpt>
      <trkpt lat="29.05948" lon="-13.49161">
        <ele>120.2</ele>
        <time>2021-07-02 14:22:35</time>
      </trkpt>
      <trkpt lat="29.0595" lon="-13.49158">
        <ele>120.2</ele>
        <time>2021-07-02 14:22:36</time>
      </trkpt>
      <trkpt lat="29.05952" lon="-13.49155">
        <ele>120.2</ele>
        <time>2021-07-02 14:22:37</time>
      </trkpt>
      <trkpt lat="29.05954" lon="-13.49152">
        <ele>120.2</ele>
        <time>2021-07-02 14:22:38</time>
      </trkpt>
      <trkpt lat="29.05956" lon="-13.49149">
        <ele>120</ele>
        <time>2021-07-02 14:22:39</time>
      </trkpt>
      <trkpt lat="29.05958" lon="-13.49146">
        <ele>120</ele>
        <time>2021-07-02 14:22:40</time>
      </trkpt>
      <trkpt lat="29.0596" lon="-13.49144">
        <ele>120</ele>
        <time>2021-07-02 14:22:41</time>
      </trkpt>
      <trkpt lat="29.05962" lon="-13.49141">
        <ele>119.8</ele>
        <time>2021-07-02 14:22:42</time>
      </trkpt>
      <trkpt lat="29.05964" lon="-13.49138">
        <ele>120</ele>
        <time>2021-07-02 14:22:43</time>
      </trkpt>
      <trkpt lat="29.05966" lon="-13.49136">
        <ele>120</ele>
        <time>2021-07-02 14:22:44</time>
      </trkpt>
      <trkpt lat="29.05968" lon="-13.49133">
        <ele>119.6</ele>
        <time>2021-07-02 14:22:45</time>
      </trkpt>
      <trkpt lat="29.0597" lon="-13.49131">
        <ele>119.4</ele>
        <time>2021-07-02 14:22:46</time>
      </trkpt>
      <trkpt lat="29.05972" lon="-13.49129">
        <ele>119.2</ele>
        <time>2021-07-02 14:22:47</time>
      </trkpt>
      <trkpt lat="29.05974" lon="-13.49127">
        <ele>119.2</ele>
        <time>2021-07-02 14:22:48</time>
      </trkpt>
      <trkpt lat="29.05976" lon="-13.49125">
        <ele>120.6</ele>
        <time>2021-07-02 14:22:49</time>
      </trkpt>
      <trkpt lat="29.05978" lon="-13.49122">
        <ele>120.4</ele>
        <time>2021-07-02 14:22:50</time>
      </trkpt>
      <trkpt lat="29.0598" lon="-13.49119">
        <ele>119.6</ele>
        <time>2021-07-02 14:22:51</time>
      </trkpt>
      <trkpt lat="29.05982" lon="-13.49117">
        <ele>118.8</ele>
        <time>2021-07-02 14:22:52</time>
      </trkpt>
      <trkpt lat="29.05984" lon="-13.49114">
        <ele>118.4</ele>
        <time>2021-07-02 14:22:53</time>
      </trkpt>
      <trkpt lat="29.05985" lon="-13.49111">
        <ele>118.2</ele>
        <time>2021-07-02 14:22:54</time>
      </trkpt>
      <trkpt lat="29.05987" lon="-13.49108">
        <ele>118.2</ele>
        <time>2021-07-02 14:22:55</time>
      </trkpt>
      <trkpt lat="29.05989" lon="-13.49105">
        <ele>118.2</ele>
        <time>2021-07-02 14:22:56</time>
      </trkpt>
      <trkpt lat="29.05991" lon="-13.49102">
        <ele>118.2</ele>
        <time>2021-07-02 14:22:57</time>
      </trkpt>
      <trkpt lat="29.05993" lon="-13.49099">
        <ele>118.6</ele>
        <time>2021-07-02 14:22:58</time>
      </trkpt>
      <trkpt lat="29.05995" lon="-13.49096">
        <ele>118.6</ele>
        <time>2021-07-02 14:22:59</time>
      </trkpt>
      <trkpt lat="29.05996" lon="-13.49093">
        <ele>118.4</ele>
        <time>2021-07-02 14:23:00</time>
      </trkpt>
      <trkpt lat="29.05998" lon="-13.4909">
        <ele>118.4</ele>
        <time>2021-07-02 14:23:01</time>
      </trkpt>
      <trkpt lat="29.05999" lon="-13.49087">
        <ele>118</ele>
        <time>2021-07-02 14:23:02</time>
      </trkpt>
      <trkpt lat="29.06001" lon="-13.49084">
        <ele>118</ele>
        <time>2021-07-02 14:23:03</time>
      </trkpt>
      <trkpt lat="29.06003" lon="-13.49081">
        <ele>118</ele>
        <time>2021-07-02 14:23:04</time>
      </trkpt>
      <trkpt lat="29.06005" lon="-13.49078">
        <ele>118</ele>
        <time>2021-07-02 14:23:05</time>
      </trkpt>
      <trkpt lat="29.06007" lon="-13.49075">
        <ele>118</ele>
        <time>2021-07-02 14:23:06</time>
      </trkpt>
      <trkpt lat="29.06009" lon="-13.49073">
        <ele>118</ele>
        <time>2021-07-02 14:23:07</time>
      </trkpt>
      <trkpt lat="29.06011" lon="-13.4907">
        <ele>118.4</ele>
        <time>2021-07-02 14:23:08</time>
      </trkpt>
      <trkpt lat="29.06013" lon="-13.49067">
        <ele>118.4</ele>
        <time>2021-07-02 14:23:09</time>
      </trkpt>
      <trkpt lat="29.06016" lon="-13.49065">
        <ele>118.2</ele>
        <time>2021-07-02 14:23:10</time>
      </trkpt>
      <trkpt lat="29.06018" lon="-13.49062">
        <ele>118.2</ele>
        <time>2021-07-02 14:23:11</time>
      </trkpt>
      <trkpt lat="29.0602" lon="-13.49058">
        <ele>118.2</ele>
        <time>2021-07-02 14:23:12</time>
      </trkpt>
      <trkpt lat="29.06021" lon="-13.49055">
        <ele>118</ele>
        <time>2021-07-02 14:23:13</time>
      </trkpt>
      <trkpt lat="29.06023" lon="-13.49051">
        <ele>118</ele>
        <time>2021-07-02 14:23:14</time>
      </trkpt>
      <trkpt lat="29.06024" lon="-13.49048">
        <ele>118</ele>
        <time>2021-07-02 14:23:15</time>
      </trkpt>
      <trkpt lat="29.06025" lon="-13.49044">
        <ele>118</ele>
        <time>2021-07-02 14:23:16</time>
      </trkpt>
      <trkpt lat="29.06026" lon="-13.4904">
        <ele>117.6</ele>
        <time>2021-07-02 14:23:17</time>
      </trkpt>
      <trkpt lat="29.06026" lon="-13.49037">
        <ele>117.6</ele>
        <time>2021-07-02 14:23:18</time>
      </trkpt>
      <trkpt lat="29.06027" lon="-13.49033">
        <ele>117.2</ele>
        <time>2021-07-02 14:23:19</time>
      </trkpt>
      <trkpt lat="29.06027" lon="-13.49029">
        <ele>117.2</ele>
        <time>2021-07-02 14:23:20</time>
      </trkpt>
      <trkpt lat="29.06028" lon="-13.49026">
        <ele>117</ele>
        <time>2021-07-02 14:23:21</time>
      </trkpt>
      <trkpt lat="29.06029" lon="-13.49022">
        <ele>117.2</ele>
        <time>2021-07-02 14:23:22</time>
      </trkpt>
      <trkpt lat="29.0603" lon="-13.49018">
        <ele>118.2</ele>
        <time>2021-07-02 14:23:23</time>
      </trkpt>
      <trkpt lat="29.06031" lon="-13.49015">
        <ele>118.2</ele>
        <time>2021-07-02 14:23:24</time>
      </trkpt>
      <trkpt lat="29.06031" lon="-13.49011">
        <ele>117.8</ele>
        <time>2021-07-02 14:23:25</time>
      </trkpt>
      <trkpt lat="29.0603" lon="-13.49008">
        <ele>117.2</ele>
        <time>2021-07-02 14:23:26</time>
      </trkpt>
      <trkpt lat="29.06029" lon="-13.49005">
        <ele>116.8</ele>
        <time>2021-07-02 14:23:27</time>
      </trkpt>
      <trkpt lat="29.06029" lon="-13.49002">
        <ele>116.8</ele>
        <time>2021-07-02 14:23:28</time>
      </trkpt>
      <trkpt lat="29.06029" lon="-13.49">
        <ele>116.4</ele>
        <time>2021-07-02 14:23:29</time>
      </trkpt>
      <trkpt lat="29.06029" lon="-13.48998">
        <ele>116.4</ele>
        <time>2021-07-02 14:23:30</time>
      </trkpt>
      <trkpt lat="29.0603" lon="-13.48996">
        <ele>116</ele>
        <time>2021-07-02 14:23:31</time>
      </trkpt>
      <trkpt lat="29.06031" lon="-13.48995">
        <ele>116</ele>
        <time>2021-07-02 14:23:32</time>
      </trkpt>
      <trkpt lat="29.06032" lon="-13.48993">
        <ele>116</ele>
        <time>2021-07-02 14:23:33</time>
      </trkpt>
      <trkpt lat="29.06033" lon="-13.48992">
        <ele>116</ele>
        <time>2021-07-02 14:23:34</time>
      </trkpt>
      <trkpt lat="29.06034" lon="-13.48992">
        <ele>116</ele>
        <time>2021-07-02 14:23:35</time>
      </trkpt>
      <trkpt lat="29.06035" lon="-13.48991">
        <ele>116</ele>
        <time>2021-07-02 14:23:36</time>
      </trkpt>
      <trkpt lat="29.06036" lon="-13.48992">
        <ele>116</ele>
        <time>2021-07-02 14:23:37</time>
      </trkpt>
      <trkpt lat="29.06036" lon="-13.48992">
        <ele>116</ele>
        <time>2021-07-02 14:23:38</time>
      </trkpt>
      <trkpt lat="29.06036" lon="-13.48991">
        <ele>116</ele>
        <time>2021-07-02 14:23:39</time>
      </trkpt>
      <trkpt lat="29.06036" lon="-13.48991">
        <ele>116.2</ele>
        <time>2021-07-02 14:23:40</time>
      </trkpt>
      <trkpt lat="29.06036" lon="-13.48991">
        <ele>116.2</ele>
        <time>2021-07-02 14:23:41</time>
      </trkpt>
      <trkpt lat="29.06038" lon="-13.4899">
        <ele>114.4</ele>
        <time>2021-07-02 14:23:42</time>
      </trkpt>
      <trkpt lat="29.06038" lon="-13.48988">
        <ele>114.4</ele>
        <time>2021-07-02 14:23:43</time>
      </trkpt>
      <trkpt lat="29.06038" lon="-13.48986">
        <ele>114.8</ele>
        <time>2021-07-02 14:23:44</time>
      </trkpt>
      <trkpt lat="29.06038" lon="-13.48984">
        <ele>114.8</ele>
        <time>2021-07-02 14:23:45</time>
      </trkpt>
      <trkpt lat="29.06037" lon="-13.48982">
        <ele>115</ele>
        <time>2021-07-02 14:23:46</time>
      </trkpt>
      <trkpt lat="29.06036" lon="-13.48979">
        <ele>115</ele>
        <time>2021-07-02 14:23:47</time>
      </trkpt>
      <trkpt lat="29.06035" lon="-13.48976">
        <ele>115</ele>
        <time>2021-07-02 14:23:48</time>
      </trkpt>
      <trkpt lat="29.06035" lon="-13.48974">
        <ele>115</ele>
        <time>2021-07-02 14:23:49</time>
      </trkpt>
      <trkpt lat="29.06034" lon="-13.48972">
        <ele>115.2</ele>
        <time>2021-07-02 14:23:50</time>
      </trkpt>
      <trkpt lat="29.06032" lon="-13.4897">
        <ele>115.2</ele>
        <time>2021-07-02 14:23:51</time>
      </trkpt>
      <trkpt lat="29.06031" lon="-13.48968">
        <ele>115.2</ele>
        <time>2021-07-02 14:23:52</time>
      </trkpt>
      <trkpt lat="29.0603" lon="-13.48966">
        <ele>115.2</ele>
        <time>2021-07-02 14:23:53</time>
      </trkpt>
      <trkpt lat="29.06028" lon="-13.48965">
        <ele>115.2</ele>
        <time>2021-07-02 14:23:54</time>
      </trkpt>
      <trkpt lat="29.06028" lon="-13.48964">
        <ele>115.2</ele>
        <time>2021-07-02 14:23:55</time>
      </trkpt>
      <trkpt lat="29.06027" lon="-13.48964">
        <ele>115.4</ele>
        <time>2021-07-02 14:23:56</time>
      </trkpt>
      <trkpt lat="29.06027" lon="-13.48963">
        <ele>115.4</ele>
        <time>2021-07-02 14:23:57</time>
      </trkpt>
      <trkpt lat="29.06027" lon="-13.48964">
        <ele>115.4</ele>
        <time>2021-07-02 14:23:58</time>
      </trkpt>
      <trkpt lat="29.06027" lon="-13.48964">
        <ele>115.4</ele>
        <time>2021-07-02 14:23:59</time>
      </trkpt>
      <trkpt lat="29.06026" lon="-13.48965">
        <ele>115.4</ele>
        <time>2021-07-02 14:24:00</time>
      </trkpt>
      <trkpt lat="29.06025" lon="-13.48965">
        <ele>115.4</ele>
        <time>2021-07-02 14:24:01</time>
      </trkpt>
      <trkpt lat="29.06025" lon="-13.48965">
        <ele>115.8</ele>
        <time>2021-07-02 14:24:02</time>
      </trkpt>
      <trkpt lat="29.06024" lon="-13.48965">
        <ele>116</ele>
        <time>2021-07-02 14:24:03</time>
      </trkpt>
      <trkpt lat="29.06024" lon="-13.48965">
        <ele>116</ele>
        <time>2021-07-02 14:24:04</time>
      </trkpt>
      <trkpt lat="29.06024" lon="-13.48965">
        <ele>116</ele>
        <time>2021-07-02 14:24:05</time>
      </trkpt>
      <trkpt lat="29.06024" lon="-13.48964">
        <ele>117</ele>
        <time>2021-07-02 14:24:06</time>
      </trkpt>
      <trkpt lat="29.06024" lon="-13.48964">
        <ele>116.6</ele>
        <time>2021-07-02 14:24:07</time>
      </trkpt>
      <trkpt lat="29.06025" lon="-13.48963">
        <ele>116.2</ele>
        <time>2021-07-02 14:24:08</time>
      </trkpt>
      <trkpt lat="29.06025" lon="-13.48963">
        <ele>116</ele>
        <time>2021-07-02 14:24:09</time>
      </trkpt>
      <trkpt lat="29.06024" lon="-13.48961">
        <ele>115.2</ele>
        <time>2021-07-02 14:24:10</time>
      </trkpt>
      <trkpt lat="29.06024" lon="-13.4896">
        <ele>115.2</ele>
        <time>2021-07-02 14:24:11</time>
      </trkpt>
      <trkpt lat="29.06024" lon="-13.4896">
        <ele>115.2</ele>
        <time>2021-07-02 14:24:12</time>
      </trkpt>
      <trkpt lat="29.06024" lon="-13.4896">
        <ele>115</ele>
        <time>2021-07-02 14:24:13</time>
      </trkpt>
      <trkpt lat="29.06024" lon="-13.48959">
        <ele>115</ele>
        <time>2021-07-02 14:24:14</time>
      </trkpt>
      <trkpt lat="29.06024" lon="-13.4896">
        <ele>116.6</ele>
        <time>2021-07-02 14:24:15</time>
      </trkpt>
      <trkpt lat="29.06026" lon="-13.48967">
        <ele>115.6</ele>
        <time>2021-07-02 14:24:16</time>
      </trkpt>
      <trkpt lat="29.06025" lon="-13.48968">
        <ele>115.4</ele>
        <time>2021-07-02 14:24:17</time>
      </trkpt>
      <trkpt lat="29.06024" lon="-13.48969">
        <ele>115.4</ele>
        <time>2021-07-02 14:24:18</time>
      </trkpt>
      <trkpt lat="29.06022" lon="-13.48969">
        <ele>115.4</ele>
        <time>2021-07-02 14:24:19</time>
      </trkpt>
      <trkpt lat="29.06021" lon="-13.48969">
        <ele>115.4</ele>
        <time>2021-07-02 14:24:20</time>
      </trkpt>
      <trkpt lat="29.06019" lon="-13.48969">
        <ele>115.6</ele>
        <time>2021-07-02 14:24:21</time>
      </trkpt>
      <trkpt lat="29.06018" lon="-13.48969">
        <ele>115.6</ele>
        <time>2021-07-02 14:24:46</time>
      </trkpt>
      <trkpt lat="29.06017" lon="-13.4897">
        <ele>115.8</ele>
        <time>2021-07-02 14:24:47</time>
      </trkpt>
      <trkpt lat="29.06016" lon="-13.4897">
        <ele>115.8</ele>
        <time>2021-07-02 14:24:48</time>
      </trkpt>
      <trkpt lat="29.06015" lon="-13.4897">
        <ele>116.2</ele>
        <time>2021-07-02 14:24:49</time>
      </trkpt>
      <trkpt lat="29.06013" lon="-13.48971">
        <ele>116.2</ele>
        <time>2021-07-02 14:24:50</time>
      </trkpt>
      <trkpt lat="29.06012" lon="-13.48971">
        <ele>116.2</ele>
        <time>2021-07-02 14:24:51</time>
      </trkpt>
      <trkpt lat="29.06012" lon="-13.4897">
        <ele>116.2</ele>
        <time>2021-07-02 14:24:52</time>
      </trkpt>
      <trkpt lat="29.06012" lon="-13.4897">
        <ele>116.8</ele>
        <time>2021-07-02 14:24:53</time>
      </trkpt>
      <trkpt lat="29.06012" lon="-13.48969">
        <ele>116.8</ele>
        <time>2021-07-02 14:24:54</time>
      </trkpt>
      <trkpt lat="29.06012" lon="-13.48969">
        <ele>116.8</ele>
        <time>2021-07-02 14:24:55</time>
      </trkpt>
      <trkpt lat="29.06012" lon="-13.4897">
        <ele>116.8</ele>
        <time>2021-07-02 14:24:56</time>
      </trkpt>
      <trkpt lat="29.06013" lon="-13.48974">
        <ele>118.2</ele>
        <time>2021-07-02 14:24:57</time>
      </trkpt>
      <trkpt lat="29.06015" lon="-13.48976">
        <ele>116.4</ele>
        <time>2021-07-02 14:24:58</time>
      </trkpt>
      <trkpt lat="29.06014" lon="-13.48976">
        <ele>116.2</ele>
        <time>2021-07-02 14:24:59</time>
      </trkpt>
      <trkpt lat="29.06014" lon="-13.48976">
        <ele>115.8</ele>
        <time>2021-07-02 14:25:00</time>
      </trkpt>
      <trkpt lat="29.06014" lon="-13.48976">
        <ele>115.8</ele>
        <time>2021-07-02 14:25:01</time>
      </trkpt>
      <trkpt lat="29.06014" lon="-13.48976">
        <ele>115.8</ele>
        <time>2021-07-02 14:25:02</time>
      </trkpt>
      <trkpt lat="29.06013" lon="-13.48977">
        <ele>115.8</ele>
        <time>2021-07-02 14:25:03</time>
      </trkpt>
      <trkpt lat="29.06013" lon="-13.48976">
        <ele>115.8</ele>
        <time>2021-07-02 14:25:06</time>
      </trkpt>
      <trkpt lat="29.06013" lon="-13.48976">
        <ele>115.8</ele>
        <time>2021-07-02 14:25:07</time>
      </trkpt>
      <trkpt lat="29.06012" lon="-13.48976">
        <ele>115.8</ele>
        <time>2021-07-02 14:25:08</time>
      </trkpt>
      <trkpt lat="29.06011" lon="-13.48976">
        <ele>115.8</ele>
        <time>2021-07-02 14:25:09</time>
      </trkpt>
      <trkpt lat="29.0601" lon="-13.48976">
        <ele>115.8</ele>
        <time>2021-07-02 14:25:10</time>
      </trkpt>
      <trkpt lat="29.06009" lon="-13.48976">
        <ele>115.8</ele>
        <time>2021-07-02 14:25:11</time>
      </trkpt>
      <trkpt lat="29.06008" lon="-13.48977">
        <ele>115.4</ele>
        <time>2021-07-02 14:25:17</time>
      </trkpt>
      <trkpt lat="29.06007" lon="-13.48978">
        <ele>115.2</ele>
        <time>2021-07-02 14:25:18</time>
      </trkpt>
      <trkpt lat="29.06006" lon="-13.48979">
        <ele>115.2</ele>
        <time>2021-07-02 14:25:19</time>
      </trkpt>
      <trkpt lat="29.06005" lon="-13.4898">
        <ele>115.2</ele>
        <time>2021-07-02 14:25:20</time>
      </trkpt>
      <trkpt lat="29.06004" lon="-13.48981">
        <ele>114.8</ele>
        <time>2021-07-02 14:25:25</time>
      </trkpt>
      <trkpt lat="29.06002" lon="-13.48982">
        <ele>114.6</ele>
        <time>2021-07-02 14:25:26</time>
      </trkpt>
      <trkpt lat="29.06" lon="-13.48983">
        <ele>114.6</ele>
        <time>2021-07-02 14:25:27</time>
      </trkpt>
      <trkpt lat="29.05998" lon="-13.48982">
        <ele>114.6</ele>
        <time>2021-07-02 14:25:28</time>
      </trkpt>
      <trkpt lat="29.05997" lon="-13.48978">
        <ele>114.6</ele>
        <time>2021-07-02 14:25:29</time>
      </trkpt>
      <trkpt lat="29.05997" lon="-13.48976">
        <ele>115</ele>
        <time>2021-07-02 14:36:17</time>
      </trkpt>
      <trkpt lat="29.05998" lon="-13.48974">
        <ele>115</ele>
        <time>2021-07-02 14:36:18</time>
      </trkpt>
      <trkpt lat="29.05999" lon="-13.48973">
        <ele>115</ele>
        <time>2021-07-02 14:36:19</time>
      </trkpt>
      <trkpt lat="29.06001" lon="-13.48972">
        <ele>115.4</ele>
        <time>2021-07-02 14:36:20</time>
      </trkpt>
      <trkpt lat="29.06002" lon="-13.48972">
        <ele>115.4</ele>
        <time>2021-07-02 14:36:21</time>
      </trkpt>
      <trkpt lat="29.06003" lon="-13.48972">
        <ele>115.6</ele>
        <time>2021-07-02 14:36:22</time>
      </trkpt>
      <trkpt lat="29.06004" lon="-13.48972">
        <ele>115.6</ele>
        <time>2021-07-02 14:36:23</time>
      </trkpt>
      <trkpt lat="29.06005" lon="-13.48972">
        <ele>115.6</ele>
        <time>2021-07-02 14:36:24</time>
      </trkpt>
      <trkpt lat="29.06007" lon="-13.48972">
        <ele>115.8</ele>
        <time>2021-07-02 14:36:25</time>
      </trkpt>
      <trkpt lat="29.06008" lon="-13.48973">
        <ele>115.8</ele>
        <time>2021-07-02 14:36:26</time>
      </trkpt>
      <trkpt lat="29.06009" lon="-13.48974">
        <ele>115.8</ele>
        <time>2021-07-02 14:36:27</time>
      </trkpt>
      <trkpt lat="29.06011" lon="-13.48975">
        <ele>115.8</ele>
        <time>2021-07-02 14:36:28</time>
      </trkpt>
      <trkpt lat="29.06012" lon="-13.48975">
        <ele>115.6</ele>
        <time>2021-07-02 14:36:29</time>
      </trkpt>
      <trkpt lat="29.06014" lon="-13.48975">
        <ele>115.6</ele>
        <time>2021-07-02 14:36:30</time>
      </trkpt>
      <trkpt lat="29.06016" lon="-13.48974">
        <ele>115.6</ele>
        <time>2021-07-02 14:36:31</time>
      </trkpt>
      <trkpt lat="29.06018" lon="-13.48974">
        <ele>115.6</ele>
        <time>2021-07-02 14:36:32</time>
      </trkpt>
      <trkpt lat="29.06019" lon="-13.48973">
        <ele>115.6</ele>
        <time>2021-07-02 14:36:33</time>
      </trkpt>
      <trkpt lat="29.06021" lon="-13.48972">
        <ele>115.6</ele>
        <time>2021-07-02 14:36:34</time>
      </trkpt>
      <trkpt lat="29.06022" lon="-13.48971">
        <ele>115.6</ele>
        <time>2021-07-02 14:36:35</time>
      </trkpt>
      <trkpt lat="29.06024" lon="-13.48971">
        <ele>115.6</ele>
        <time>2021-07-02 14:36:36</time>
      </trkpt>
      <trkpt lat="29.06026" lon="-13.4897">
        <ele>115.6</ele>
        <time>2021-07-02 14:36:37</time>
      </trkpt>
      <trkpt lat="29.06027" lon="-13.4897">
        <ele>115.6</ele>
        <time>2021-07-02 14:36:38</time>
      </trkpt>
      <trkpt lat="29.06029" lon="-13.4897">
        <ele>115.6</ele>
        <time>2021-07-02 14:51:47</time>
      </trkpt>
      <trkpt lat="29.0603" lon="-13.4897">
        <ele>115.6</ele>
        <time>2021-07-02 14:51:48</time>
      </trkpt>
      <trkpt lat="29.06032" lon="-13.4897">
        <ele>115.6</ele>
        <time>2021-07-02 14:51:49</time>
      </trkpt>
      <trkpt lat="29.06034" lon="-13.48969">
        <ele>115.8</ele>
        <time>2021-07-02 14:51:50</time>
      </trkpt>
      <trkpt lat="29.06035" lon="-13.48969">
        <ele>115.8</ele>
        <time>2021-07-02 14:51:51</time>
      </trkpt>
      <trkpt lat="29.06037" lon="-13.48968">
        <ele>115.8</ele>
        <time>2021-07-02 14:51:52</time>
      </trkpt>
      <trkpt lat="29.06038" lon="-13.48968">
        <ele>116</ele>
        <time>2021-07-02 14:51:53</time>
      </trkpt>
      <trkpt lat="29.0604" lon="-13.48967">
        <ele>116</ele>
        <time>2021-07-02 14:51:54</time>
      </trkpt>
      <trkpt lat="29.06041" lon="-13.48965">
        <ele>116</ele>
        <time>2021-07-02 14:51:55</time>
      </trkpt>
      <trkpt lat="29.06041" lon="-13.48963">
        <ele>116</ele>
        <time>2021-07-02 14:51:56</time>
      </trkpt>
      <trkpt lat="29.0604" lon="-13.48961">
        <ele>115.8</ele>
        <time>2021-07-02 14:51:57</time>
      </trkpt>
      <trkpt lat="29.06039" lon="-13.4896">
        <ele>115.8</ele>
        <time>2021-07-02 14:51:58</time>
      </trkpt>
      <trkpt lat="29.06038" lon="-13.4896">
        <ele>115.8</ele>
        <time>2021-07-02 14:51:59</time>
      </trkpt>
      <trkpt lat="29.06036" lon="-13.4896">
        <ele>115.8</ele>
        <time>2021-07-02 14:52:00</time>
      </trkpt>
      <trkpt lat="29.06035" lon="-13.48961">
        <ele>115.6</ele>
        <time>2021-07-02 14:52:01</time>
      </trkpt>
      <trkpt lat="29.06033" lon="-13.48961">
        <ele>115.6</ele>
        <time>2021-07-02 14:52:02</time>
      </trkpt>
      <trkpt lat="29.06032" lon="-13.48962">
        <ele>115.6</ele>
        <time>2021-07-02 14:52:03</time>
      </trkpt>
      <trkpt lat="29.0603" lon="-13.48963">
        <ele>115.6</ele>
        <time>2021-07-02 14:52:04</time>
      </trkpt>
      <trkpt lat="29.0603" lon="-13.48964">
        <ele>115.6</ele>
        <time>2021-07-02 14:52:05</time>
      </trkpt>
      <trkpt lat="29.06032" lon="-13.48966">
        <ele>115.2</ele>
        <time>2021-07-02 14:52:06</time>
      </trkpt>
      <trkpt lat="29.06033" lon="-13.48967">
        <ele>115.2</ele>
        <time>2021-07-02 14:52:07</time>
      </trkpt>
      <trkpt lat="29.06034" lon="-13.48969">
        <ele>115.6</ele>
        <time>2021-07-02 14:52:08</time>
      </trkpt>
      <trkpt lat="29.06034" lon="-13.48971">
        <ele>115.6</ele>
        <time>2021-07-02 14:52:09</time>
      </trkpt>
      <trkpt lat="29.06034" lon="-13.48972">
        <ele>115.8</ele>
        <time>2021-07-02 14:52:10</time>
      </trkpt>
      <trkpt lat="29.06033" lon="-13.48974">
        <ele>115.8</ele>
        <time>2021-07-02 14:52:11</time>
      </trkpt>
      <trkpt lat="29.06031" lon="-13.48975">
        <ele>115.8</ele>
        <time>2021-07-02 14:52:12</time>
      </trkpt>
      <trkpt lat="29.0603" lon="-13.48976">
        <ele>115.8</ele>
        <time>2021-07-02 14:52:13</time>
      </trkpt>
      <trkpt lat="29.0603" lon="-13.48978">
        <ele>115.8</ele>
        <time>2021-07-02 14:52:14</time>
      </trkpt>
      <trkpt lat="29.0603" lon="-13.4898">
        <ele>115.8</ele>
        <time>2021-07-02 14:52:15</time>
      </trkpt>
      <trkpt lat="29.06029" lon="-13.48981">
        <ele>115.8</ele>
        <time>2021-07-02 14:52:16</time>
      </trkpt>
      <trkpt lat="29.06028" lon="-13.48983">
        <ele>115.8</ele>
        <time>2021-07-02 14:52:17</time>
      </trkpt>
      <trkpt lat="29.06027" lon="-13.48984">
        <ele>115.8</ele>
        <time>2021-07-02 14:52:18</time>
      </trkpt>
      <trkpt lat="29.06025" lon="-13.48985">
        <ele>115.8</ele>
        <time>2021-07-02 14:52:19</time>
      </trkpt>
      <trkpt lat="29.06024" lon="-13.48986">
        <ele>115.8</ele>
        <time>2021-07-02 14:52:20</time>
      </trkpt>
      <trkpt lat="29.06023" lon="-13.48989">
        <ele>115.6</ele>
        <time>2021-07-02 14:52:21</time>
      </trkpt>
      <trkpt lat="29.06024" lon="-13.48991">
        <ele>115.4</ele>
        <time>2021-07-02 14:52:22</time>
      </trkpt>
      <trkpt lat="29.06026" lon="-13.48993">
        <ele>115.4</ele>
        <time>2021-07-02 14:52:23</time>
      </trkpt>
      <trkpt lat="29.06029" lon="-13.48994">
        <ele>115.4</ele>
        <time>2021-07-02 14:52:24</time>
      </trkpt>
      <trkpt lat="29.06031" lon="-13.48994">
        <ele>115.4</ele>
        <time>2021-07-02 14:52:25</time>
      </trkpt>
      <trkpt lat="29.06034" lon="-13.48995">
        <ele>115.4</ele>
        <time>2021-07-02 14:52:26</time>
      </trkpt>
      <trkpt lat="29.06036" lon="-13.48995">
        <ele>115.4</ele>
        <time>2021-07-02 14:52:27</time>
      </trkpt>
      <trkpt lat="29.06039" lon="-13.48996">
        <ele>115.2</ele>
        <time>2021-07-02 14:52:28</time>
      </trkpt>
      <trkpt lat="29.06042" lon="-13.48996">
        <ele>115.2</ele>
        <time>2021-07-02 14:52:29</time>
      </trkpt>
      <trkpt lat="29.06045" lon="-13.48996">
        <ele>115.2</ele>
        <time>2021-07-02 14:52:30</time>
      </trkpt>
      <trkpt lat="29.06048" lon="-13.48996">
        <ele>115.2</ele>
        <time>2021-07-02 14:52:31</time>
      </trkpt>
      <trkpt lat="29.06051" lon="-13.48994">
        <ele>115.2</ele>
        <time>2021-07-02 14:52:32</time>
      </trkpt>
      <trkpt lat="29.06054" lon="-13.48992">
        <ele>115.2</ele>
        <time>2021-07-02 14:52:33</time>
      </trkpt>
      <trkpt lat="29.06055" lon="-13.48988">
        <ele>115.2</ele>
        <time>2021-07-02 14:52:34</time>
      </trkpt>
      <trkpt lat="29.06056" lon="-13.48985">
        <ele>115.2</ele>
        <time>2021-07-02 14:52:35</time>
      </trkpt>
      <trkpt lat="29.06056" lon="-13.48981">
        <ele>115</ele>
        <time>2021-07-02 14:52:36</time>
      </trkpt>
      <trkpt lat="29.06056" lon="-13.48977">
        <ele>115</ele>
        <time>2021-07-02 14:52:37</time>
      </trkpt>
      <trkpt lat="29.06056" lon="-13.48973">
        <ele>115</ele>
        <time>2021-07-02 14:52:38</time>
      </trkpt>
      <trkpt lat="29.06056" lon="-13.4897">
        <ele>115</ele>
        <time>2021-07-02 14:52:39</time>
      </trkpt>
      <trkpt lat="29.06055" lon="-13.48966">
        <ele>115</ele>
        <time>2021-07-02 14:52:40</time>
      </trkpt>
      <trkpt lat="29.06055" lon="-13.48962">
        <ele>115</ele>
        <time>2021-07-02 14:52:41</time>
      </trkpt>
      <trkpt lat="29.06056" lon="-13.48959">
        <ele>115.2</ele>
        <time>2021-07-02 14:52:42</time>
      </trkpt>
      <trkpt lat="29.06056" lon="-13.48955">
        <ele>115.2</ele>
        <time>2021-07-02 14:52:43</time>
      </trkpt>
      <trkpt lat="29.06058" lon="-13.48952">
        <ele>115.6</ele>
        <time>2021-07-02 14:52:44</time>
      </trkpt>
      <trkpt lat="29.06059" lon="-13.48948">
        <ele>115.8</ele>
        <time>2021-07-02 14:52:45</time>
      </trkpt>
      <trkpt lat="29.06061" lon="-13.48944">
        <ele>115.8</ele>
        <time>2021-07-02 14:52:46</time>
      </trkpt>
      <trkpt lat="29.06063" lon="-13.48941">
        <ele>116.4</ele>
        <time>2021-07-02 14:52:47</time>
      </trkpt>
      <trkpt lat="29.06065" lon="-13.48938">
        <ele>116.4</ele>
        <time>2021-07-02 14:52:48</time>
      </trkpt>
      <trkpt lat="29.06068" lon="-13.48936">
        <ele>116.8</ele>
        <time>2021-07-02 14:52:49</time>
      </trkpt>
      <trkpt lat="29.0607" lon="-13.48934">
        <ele>116.8</ele>
        <time>2021-07-02 14:52:50</time>
      </trkpt>
      <trkpt lat="29.06072" lon="-13.48932">
        <ele>117</ele>
        <time>2021-07-02 14:52:51</time>
      </trkpt>
      <trkpt lat="29.06074" lon="-13.48929">
        <ele>117.2</ele>
        <time>2021-07-02 14:52:52</time>
      </trkpt>
      <trkpt lat="29.06074" lon="-13.48926">
        <ele>117.4</ele>
        <time>2021-07-02 14:52:53</time>
      </trkpt>
      <trkpt lat="29.06073" lon="-13.48924">
        <ele>117.4</ele>
        <time>2021-07-02 14:52:54</time>
      </trkpt>
      <trkpt lat="29.06071" lon="-13.48922">
        <ele>117.4</ele>
        <time>2021-07-02 14:52:55</time>
      </trkpt>
      <trkpt lat="29.06069" lon="-13.4892">
        <ele>117.4</ele>
        <time>2021-07-02 14:52:56</time>
      </trkpt>
      <trkpt lat="29.06066" lon="-13.48919">
        <ele>117.4</ele>
        <time>2021-07-02 14:52:57</time>
      </trkpt>
      <trkpt lat="29.06063" lon="-13.48917">
        <ele>117.2</ele>
        <time>2021-07-02 14:52:58</time>
      </trkpt>
      <trkpt lat="29.0606" lon="-13.48916">
        <ele>116.8</ele>
        <time>2021-07-02 14:52:59</time>
      </trkpt>
      <trkpt lat="29.06057" lon="-13.48914">
        <ele>116.8</ele>
        <time>2021-07-02 14:53:00</time>
      </trkpt>
      <trkpt lat="29.06054" lon="-13.48913">
        <ele>116.8</ele>
        <time>2021-07-02 14:53:01</time>
      </trkpt>
      <trkpt lat="29.06051" lon="-13.48911">
        <ele>116.8</ele>
        <time>2021-07-02 14:53:02</time>
      </trkpt>
      <trkpt lat="29.06047" lon="-13.4891">
        <ele>116.8</ele>
        <time>2021-07-02 14:53:03</time>
      </trkpt>
      <trkpt lat="29.06043" lon="-13.4891">
        <ele>116.8</ele>
        <time>2021-07-02 14:53:04</time>
      </trkpt>
      <trkpt lat="29.0604" lon="-13.48909">
        <ele>116.6</ele>
        <time>2021-07-02 14:53:05</time>
      </trkpt>
      <trkpt lat="29.06036" lon="-13.4891">
        <ele>117</ele>
        <time>2021-07-02 14:53:06</time>
      </trkpt>
      <trkpt lat="29.06032" lon="-13.48914">
        <ele>117</ele>
        <time>2021-07-02 14:53:07</time>
      </trkpt>
      <trkpt lat="29.06028" lon="-13.48917">
        <ele>117</ele>
        <time>2021-07-02 14:53:08</time>
      </trkpt>
      <trkpt lat="29.06024" lon="-13.48921">
        <ele>116.6</ele>
        <time>2021-07-02 14:53:09</time>
      </trkpt>
      <trkpt lat="29.06019" lon="-13.48925">
        <ele>116.6</ele>
        <time>2021-07-02 14:53:10</time>
      </trkpt>
      <trkpt lat="29.06013" lon="-13.48928">
        <ele>117.8</ele>
        <time>2021-07-02 14:53:11</time>
      </trkpt>
      <trkpt lat="29.06007" lon="-13.4893">
        <ele>116.8</ele>
        <time>2021-07-02 14:53:12</time>
      </trkpt>
      <trkpt lat="29.06" lon="-13.48931">
        <ele>115.6</ele>
        <time>2021-07-02 14:53:13</time>
      </trkpt>
      <trkpt lat="29.05994" lon="-13.48931">
        <ele>115</ele>
        <time>2021-07-02 14:53:14</time>
      </trkpt>
      <trkpt lat="29.05987" lon="-13.4893">
        <ele>114.6</ele>
        <time>2021-07-02 14:53:15</time>
      </trkpt>
      <trkpt lat="29.0598" lon="-13.48931">
        <ele>114</ele>
        <time>2021-07-02 14:53:16</time>
      </trkpt>
      <trkpt lat="29.05973" lon="-13.48931">
        <ele>113.8</ele>
        <time>2021-07-02 14:53:17</time>
      </trkpt>
      <trkpt lat="29.05966" lon="-13.48931">
        <ele>113.2</ele>
        <time>2021-07-02 14:53:18</time>
      </trkpt>
      <trkpt lat="29.05959" lon="-13.48931">
        <ele>113</ele>
        <time>2021-07-02 14:53:19</time>
      </trkpt>
      <trkpt lat="29.05953" lon="-13.48931">
        <ele>112.6</ele>
        <time>2021-07-02 14:53:20</time>
      </trkpt>
      <trkpt lat="29.05946" lon="-13.48931">
        <ele>112.8</ele>
        <time>2021-07-02 14:53:21</time>
      </trkpt>
      <trkpt lat="29.0594" lon="-13.48931">
        <ele>112.4</ele>
        <time>2021-07-02 14:53:22</time>
      </trkpt>
      <trkpt lat="29.05934" lon="-13.48932">
        <ele>112.2</ele>
        <time>2021-07-02 14:53:23</time>
      </trkpt>
      <trkpt lat="29.05928" lon="-13.48932">
        <ele>112.2</ele>
        <time>2021-07-02 14:53:24</time>
      </trkpt>
      <trkpt lat="29.05922" lon="-13.48932">
        <ele>112</ele>
        <time>2021-07-02 14:53:25</time>
      </trkpt>
      <trkpt lat="29.05916" lon="-13.48932">
        <ele>111.6</ele>
        <time>2021-07-02 14:53:26</time>
      </trkpt>
      <trkpt lat="29.0591" lon="-13.48933">
        <ele>111.6</ele>
        <time>2021-07-02 14:53:27</time>
      </trkpt>
      <trkpt lat="29.05904" lon="-13.48933">
        <ele>111.4</ele>
        <time>2021-07-02 14:53:28</time>
      </trkpt>
      <trkpt lat="29.05899" lon="-13.48932">
        <ele>111.4</ele>
        <time>2021-07-02 14:53:29</time>
      </trkpt>
      <trkpt lat="29.05894" lon="-13.48932">
        <ele>111.4</ele>
        <time>2021-07-02 14:53:30</time>
      </trkpt>
      <trkpt lat="29.05888" lon="-13.48931">
        <ele>111.4</ele>
        <time>2021-07-02 14:53:31</time>
      </trkpt>
      <trkpt lat="29.05883" lon="-13.48931">
        <ele>111</ele>
        <time>2021-07-02 14:53:32</time>
      </trkpt>
      <trkpt lat="29.05877" lon="-13.4893">
        <ele>111</ele>
        <time>2021-07-02 14:53:33</time>
      </trkpt>
      <trkpt lat="29.0587" lon="-13.4893">
        <ele>110.6</ele>
        <time>2021-07-02 14:53:34</time>
      </trkpt>
      <trkpt lat="29.05864" lon="-13.4893">
        <ele>110.4</ele>
        <time>2021-07-02 14:53:35</time>
      </trkpt>
      <trkpt lat="29.05859" lon="-13.4893">
        <ele>110.2</ele>
        <time>2021-07-02 14:53:36</time>
      </trkpt>
      <trkpt lat="29.05853" lon="-13.4893">
        <ele>110.6</ele>
        <time>2021-07-02 14:53:37</time>
      </trkpt>
      <trkpt lat="29.05847" lon="-13.4893">
        <ele>110.4</ele>
        <time>2021-07-02 14:53:38</time>
      </trkpt>
      <trkpt lat="29.05842" lon="-13.4893">
        <ele>109.6</ele>
        <time>2021-07-02 14:53:39</time>
      </trkpt>
      <trkpt lat="29.05836" lon="-13.4893">
        <ele>109</ele>
        <time>2021-07-02 14:53:40</time>
      </trkpt>
      <trkpt lat="29.05831" lon="-13.48929">
        <ele>108.8</ele>
        <time>2021-07-02 14:53:41</time>
      </trkpt>
      <trkpt lat="29.05824" lon="-13.48928">
        <ele>108</ele>
        <time>2021-07-02 14:53:42</time>
      </trkpt>
      <trkpt lat="29.05818" lon="-13.48927">
        <ele>107.6</ele>
        <time>2021-07-02 14:53:43</time>
      </trkpt>
      <trkpt lat="29.05811" lon="-13.48927">
        <ele>107.2</ele>
        <time>2021-07-02 14:53:44</time>
      </trkpt>
      <trkpt lat="29.05804" lon="-13.48926">
        <ele>106.8</ele>
        <time>2021-07-02 14:53:45</time>
      </trkpt>
      <trkpt lat="29.05798" lon="-13.48926">
        <ele>106.4</ele>
        <time>2021-07-02 14:53:46</time>
      </trkpt>
      <trkpt lat="29.05792" lon="-13.48924">
        <ele>106.2</ele>
        <time>2021-07-02 14:53:47</time>
      </trkpt>
      <trkpt lat="29.05785" lon="-13.48923">
        <ele>106.2</ele>
        <time>2021-07-02 14:53:48</time>
      </trkpt>
      <trkpt lat="29.05779" lon="-13.48921">
        <ele>105.6</ele>
        <time>2021-07-02 14:53:49</time>
      </trkpt>
      <trkpt lat="29.05773" lon="-13.48918">
        <ele>105.6</ele>
        <time>2021-07-02 14:53:50</time>
      </trkpt>
      <trkpt lat="29.05766" lon="-13.48916">
        <ele>105.6</ele>
        <time>2021-07-02 14:53:51</time>
      </trkpt>
      <trkpt lat="29.0576" lon="-13.48914">
        <ele>105.2</ele>
        <time>2021-07-02 14:53:52</time>
      </trkpt>
      <trkpt lat="29.05754" lon="-13.48912">
        <ele>105</ele>
        <time>2021-07-02 14:53:53</time>
      </trkpt>
      <trkpt lat="29.05747" lon="-13.48911">
        <ele>105</ele>
        <time>2021-07-02 14:53:54</time>
      </trkpt>
      <trkpt lat="29.0574" lon="-13.4891">
        <ele>104.8</ele>
        <time>2021-07-02 14:53:55</time>
      </trkpt>
      <trkpt lat="29.05733" lon="-13.48909">
        <ele>104.6</ele>
        <time>2021-07-02 14:53:56</time>
      </trkpt>
      <trkpt lat="29.05726" lon="-13.48908">
        <ele>104.6</ele>
        <time>2021-07-02 14:53:57</time>
      </trkpt>
      <trkpt lat="29.05718" lon="-13.48908">
        <ele>104.6</ele>
        <time>2021-07-02 14:53:58</time>
      </trkpt>
      <trkpt lat="29.05712" lon="-13.48907">
        <ele>104.2</ele>
        <time>2021-07-02 14:53:59</time>
      </trkpt>
      <trkpt lat="29.05706" lon="-13.48906">
        <ele>103.8</ele>
        <time>2021-07-02 14:54:00</time>
      </trkpt>
      <trkpt lat="29.057" lon="-13.48905">
        <ele>103.4</ele>
        <time>2021-07-02 14:54:01</time>
      </trkpt>
      <trkpt lat="29.05694" lon="-13.48904">
        <ele>103</ele>
        <time>2021-07-02 14:54:02</time>
      </trkpt>
      <trkpt lat="29.05688" lon="-13.48904">
        <ele>102.6</ele>
        <time>2021-07-02 14:54:03</time>
      </trkpt>
      <trkpt lat="29.05681" lon="-13.48905">
        <ele>102.6</ele>
        <time>2021-07-02 14:54:04</time>
      </trkpt>
      <trkpt lat="29.05675" lon="-13.48906">
        <ele>102</ele>
        <time>2021-07-02 14:54:05</time>
      </trkpt>
      <trkpt lat="29.05668" lon="-13.48907">
        <ele>101.8</ele>
        <time>2021-07-02 14:54:06</time>
      </trkpt>
      <trkpt lat="29.05661" lon="-13.4891">
        <ele>101.4</ele>
        <time>2021-07-02 14:54:07</time>
      </trkpt>
      <trkpt lat="29.05654" lon="-13.48912">
        <ele>101.2</ele>
        <time>2021-07-02 14:54:08</time>
      </trkpt>
      <trkpt lat="29.05647" lon="-13.48914">
        <ele>100.8</ele>
        <time>2021-07-02 14:54:09</time>
      </trkpt>
      <trkpt lat="29.05641" lon="-13.48915">
        <ele>100.6</ele>
        <time>2021-07-02 14:54:10</time>
      </trkpt>
      <trkpt lat="29.05634" lon="-13.48917">
        <ele>100.4</ele>
        <time>2021-07-02 14:54:11</time>
      </trkpt>
      <trkpt lat="29.05627" lon="-13.48918">
        <ele>100.2</ele>
        <time>2021-07-02 14:54:12</time>
      </trkpt>
      <trkpt lat="29.0562" lon="-13.48919">
        <ele>100.2</ele>
        <time>2021-07-02 14:54:13</time>
      </trkpt>
      <trkpt lat="29.05614" lon="-13.4892">
        <ele>99.8</ele>
        <time>2021-07-02 14:54:14</time>
      </trkpt>
      <trkpt lat="29.05608" lon="-13.4892">
        <ele>99.8</ele>
        <time>2021-07-02 14:54:15</time>
      </trkpt>
      <trkpt lat="29.05602" lon="-13.48918">
        <ele>99.6</ele>
        <time>2021-07-02 14:54:16</time>
      </trkpt>
      <trkpt lat="29.05597" lon="-13.48917">
        <ele>99.6</ele>
        <time>2021-07-02 14:54:17</time>
      </trkpt>
      <trkpt lat="29.05592" lon="-13.48915">
        <ele>99.6</ele>
        <time>2021-07-02 14:54:18</time>
      </trkpt>
      <trkpt lat="29.05588" lon="-13.48911">
        <ele>99.6</ele>
        <time>2021-07-02 14:54:19</time>
      </trkpt>
      <trkpt lat="29.05582" lon="-13.48909">
        <ele>99.6</ele>
        <time>2021-07-02 14:54:20</time>
      </trkpt>
      <trkpt lat="29.05576" lon="-13.48907">
        <ele>99.6</ele>
        <time>2021-07-02 14:54:21</time>
      </trkpt>
      <trkpt lat="29.0557" lon="-13.48906">
        <ele>99.2</ele>
        <time>2021-07-02 14:54:22</time>
      </trkpt>
      <trkpt lat="29.05563" lon="-13.48907">
        <ele>99</ele>
        <time>2021-07-02 14:54:23</time>
      </trkpt>
      <trkpt lat="29.05557" lon="-13.48907">
        <ele>98.8</ele>
        <time>2021-07-02 14:54:24</time>
      </trkpt>
      <trkpt lat="29.0555" lon="-13.48908">
        <ele>98.6</ele>
        <time>2021-07-02 14:54:25</time>
      </trkpt>
      <trkpt lat="29.05543" lon="-13.48908">
        <ele>98.2</ele>
        <time>2021-07-02 14:54:26</time>
      </trkpt>
      <trkpt lat="29.05537" lon="-13.48908">
        <ele>98</ele>
        <time>2021-07-02 14:54:27</time>
      </trkpt>
      <trkpt lat="29.05531" lon="-13.48907">
        <ele>97.6</ele>
        <time>2021-07-02 14:54:28</time>
      </trkpt>
      <trkpt lat="29.05524" lon="-13.48906">
        <ele>97.4</ele>
        <time>2021-07-02 14:54:29</time>
      </trkpt>
      <trkpt lat="29.05518" lon="-13.48905">
        <ele>97.4</ele>
        <time>2021-07-02 14:54:30</time>
      </trkpt>
      <trkpt lat="29.05512" lon="-13.48903">
        <ele>97</ele>
        <time>2021-07-02 14:54:31</time>
      </trkpt>
      <trkpt lat="29.05506" lon="-13.48901">
        <ele>97</ele>
        <time>2021-07-02 14:54:32</time>
      </trkpt>
      <trkpt lat="29.055" lon="-13.489">
        <ele>96.8</ele>
        <time>2021-07-02 14:54:33</time>
      </trkpt>
      <trkpt lat="29.05495" lon="-13.48898">
        <ele>96.8</ele>
        <time>2021-07-02 14:54:34</time>
      </trkpt>
      <trkpt lat="29.0549" lon="-13.48897">
        <ele>96.8</ele>
        <time>2021-07-02 14:54:35</time>
      </trkpt>
      <trkpt lat="29.05484" lon="-13.48897">
        <ele>96.8</ele>
        <time>2021-07-02 14:54:36</time>
      </trkpt>
      <trkpt lat="29.05479" lon="-13.48897">
        <ele>96.4</ele>
        <time>2021-07-02 14:54:37</time>
      </trkpt>
      <trkpt lat="29.05474" lon="-13.48897">
        <ele>96.4</ele>
        <time>2021-07-02 14:54:38</time>
      </trkpt>
      <trkpt lat="29.05469" lon="-13.48896">
        <ele>96</ele>
        <time>2021-07-02 14:54:39</time>
      </trkpt>
      <trkpt lat="29.05464" lon="-13.48896">
        <ele>95.8</ele>
        <time>2021-07-02 14:54:40</time>
      </trkpt>
      <trkpt lat="29.05459" lon="-13.48896">
        <ele>95.8</ele>
        <time>2021-07-02 14:54:41</time>
      </trkpt>
      <trkpt lat="29.05454" lon="-13.48895">
        <ele>95.4</ele>
        <time>2021-07-02 14:54:42</time>
      </trkpt>
      <trkpt lat="29.05449" lon="-13.48895">
        <ele>95.4</ele>
        <time>2021-07-02 14:54:43</time>
      </trkpt>
      <trkpt lat="29.05444" lon="-13.48896">
        <ele>95</ele>
        <time>2021-07-02 14:54:44</time>
      </trkpt>
      <trkpt lat="29.05439" lon="-13.48895">
        <ele>95</ele>
        <time>2021-07-02 14:54:45</time>
      </trkpt>
      <trkpt lat="29.05434" lon="-13.48895">
        <ele>94.8</ele>
        <time>2021-07-02 14:54:46</time>
      </trkpt>
      <trkpt lat="29.0543" lon="-13.48895">
        <ele>94.8</ele>
        <time>2021-07-02 14:54:47</time>
      </trkpt>
      <trkpt lat="29.05426" lon="-13.48894">
        <ele>94.8</ele>
        <time>2021-07-02 14:54:48</time>
      </trkpt>
      <trkpt lat="29.05423" lon="-13.48894">
        <ele>94.8</ele>
        <time>2021-07-02 14:54:49</time>
      </trkpt>
      <trkpt lat="29.05419" lon="-13.48894">
        <ele>94.8</ele>
        <time>2021-07-02 14:54:50</time>
      </trkpt>
      <trkpt lat="29.05416" lon="-13.48895">
        <ele>95.2</ele>
        <time>2021-07-02 14:54:51</time>
      </trkpt>
      <trkpt lat="29.05412" lon="-13.48895">
        <ele>95.4</ele>
        <time>2021-07-02 14:54:52</time>
      </trkpt>
      <trkpt lat="29.05408" lon="-13.48895">
        <ele>95.4</ele>
        <time>2021-07-02 14:54:53</time>
      </trkpt>
      <trkpt lat="29.05404" lon="-13.48895">
        <ele>95.8</ele>
        <time>2021-07-02 14:54:54</time>
      </trkpt>
      <trkpt lat="29.054" lon="-13.48895">
        <ele>95.8</ele>
        <time>2021-07-02 14:54:55</time>
      </trkpt>
      <trkpt lat="29.05395" lon="-13.48894">
        <ele>95.8</ele>
        <time>2021-07-02 14:54:56</time>
      </trkpt>
      <trkpt lat="29.05391" lon="-13.48894">
        <ele>96</ele>
        <time>2021-07-02 14:54:57</time>
      </trkpt>
      <trkpt lat="29.05387" lon="-13.48893">
        <ele>96</ele>
        <time>2021-07-02 14:54:58</time>
      </trkpt>
      <trkpt lat="29.05382" lon="-13.48893">
        <ele>96</ele>
        <time>2021-07-02 14:54:59</time>
      </trkpt>
      <trkpt lat="29.05377" lon="-13.48892">
        <ele>95.8</ele>
        <time>2021-07-02 14:55:00</time>
      </trkpt>
      <trkpt lat="29.05372" lon="-13.48891">
        <ele>95.8</ele>
        <time>2021-07-02 14:55:01</time>
      </trkpt>
      <trkpt lat="29.05367" lon="-13.4889">
        <ele>95.6</ele>
        <time>2021-07-02 14:55:02</time>
      </trkpt>
      <trkpt lat="29.05363" lon="-13.48889">
        <ele>95.6</ele>
        <time>2021-07-02 14:55:03</time>
      </trkpt>
      <trkpt lat="29.05358" lon="-13.48889">
        <ele>95.6</ele>
        <time>2021-07-02 14:55:04</time>
      </trkpt>
      <trkpt lat="29.05353" lon="-13.48888">
        <ele>95.4</ele>
        <time>2021-07-02 14:55:05</time>
      </trkpt>
      <trkpt lat="29.05348" lon="-13.48887">
        <ele>95.4</ele>
        <time>2021-07-02 14:55:06</time>
      </trkpt>
      <trkpt lat="29.05342" lon="-13.48886">
        <ele>95.4</ele>
        <time>2021-07-02 14:55:07</time>
      </trkpt>
      <trkpt lat="29.05337" lon="-13.48886">
        <ele>95</ele>
        <time>2021-07-02 14:55:08</time>
      </trkpt>
      <trkpt lat="29.05332" lon="-13.48884">
        <ele>95</ele>
        <time>2021-07-02 14:55:09</time>
      </trkpt>
      <trkpt lat="29.05327" lon="-13.48882">
        <ele>94.8</ele>
        <time>2021-07-02 14:55:10</time>
      </trkpt>
      <trkpt lat="29.05323" lon="-13.48882">
        <ele>94.6</ele>
        <time>2021-07-02 14:55:11</time>
      </trkpt>
      <trkpt lat="29.05317" lon="-13.4888">
        <ele>94.6</ele>
        <time>2021-07-02 14:55:12</time>
      </trkpt>
      <trkpt lat="29.05313" lon="-13.48879">
        <ele>94.6</ele>
        <time>2021-07-02 14:55:13</time>
      </trkpt>
      <trkpt lat="29.05308" lon="-13.48879">
        <ele>94.6</ele>
        <time>2021-07-02 14:55:14</time>
      </trkpt>
      <trkpt lat="29.05303" lon="-13.48877">
        <ele>94.6</ele>
        <time>2021-07-02 14:55:15</time>
      </trkpt>
      <trkpt lat="29.05298" lon="-13.48877">
        <ele>94.6</ele>
        <time>2021-07-02 14:55:16</time>
      </trkpt>
      <trkpt lat="29.05293" lon="-13.48876">
        <ele>94.6</ele>
        <time>2021-07-02 14:55:17</time>
      </trkpt>
      <trkpt lat="29.05288" lon="-13.48877">
        <ele>94.6</ele>
        <time>2021-07-02 14:55:18</time>
      </trkpt>
      <trkpt lat="29.05283" lon="-13.48877">
        <ele>94.6</ele>
        <time>2021-07-02 14:55:19</time>
      </trkpt>
      <trkpt lat="29.05278" lon="-13.48877">
        <ele>94.4</ele>
        <time>2021-07-02 14:55:20</time>
      </trkpt>
      <trkpt lat="29.05275" lon="-13.48877">
        <ele>94.4</ele>
        <time>2021-07-02 14:55:21</time>
      </trkpt>
      <trkpt lat="29.05271" lon="-13.48876">
        <ele>94.4</ele>
        <time>2021-07-02 14:55:22</time>
      </trkpt>
      <trkpt lat="29.05268" lon="-13.48875">
        <ele>94</ele>
        <time>2021-07-02 14:55:23</time>
      </trkpt>
      <trkpt lat="29.05264" lon="-13.48874">
        <ele>94</ele>
        <time>2021-07-02 14:55:24</time>
      </trkpt>
      <trkpt lat="29.05261" lon="-13.48872">
        <ele>94</ele>
        <time>2021-07-02 14:55:25</time>
      </trkpt>
      <trkpt lat="29.05259" lon="-13.4887">
        <ele>93.8</ele>
        <time>2021-07-02 14:55:26</time>
      </trkpt>
      <trkpt lat="29.05256" lon="-13.48867">
        <ele>93.8</ele>
        <time>2021-07-02 14:55:27</time>
      </trkpt>
      <trkpt lat="29.05254" lon="-13.48864">
        <ele>93.6</ele>
        <time>2021-07-02 14:55:28</time>
      </trkpt>
      <trkpt lat="29.05252" lon="-13.48861">
        <ele>93.6</ele>
        <time>2021-07-02 14:55:29</time>
      </trkpt>
      <trkpt lat="29.0525" lon="-13.48858">
        <ele>93.6</ele>
        <time>2021-07-02 14:55:30</time>
      </trkpt>
      <trkpt lat="29.05248" lon="-13.48856">
        <ele>93.8</ele>
        <time>2021-07-02 14:55:31</time>
      </trkpt>
      <trkpt lat="29.05245" lon="-13.48853">
        <ele>93.8</ele>
        <time>2021-07-02 14:55:32</time>
      </trkpt>
      <trkpt lat="29.05242" lon="-13.48851">
        <ele>93.8</ele>
        <time>2021-07-02 14:55:33</time>
      </trkpt>
      <trkpt lat="29.05239" lon="-13.48849">
        <ele>93.8</ele>
        <time>2021-07-02 14:55:34</time>
      </trkpt>
      <trkpt lat="29.05236" lon="-13.48847">
        <ele>93.8</ele>
        <time>2021-07-02 14:55:35</time>
      </trkpt>
      <trkpt lat="29.05232" lon="-13.48845">
        <ele>93.8</ele>
        <time>2021-07-02 14:55:36</time>
      </trkpt>
      <trkpt lat="29.05228" lon="-13.48843">
        <ele>93.8</ele>
        <time>2021-07-02 14:55:37</time>
      </trkpt>
      <trkpt lat="29.05224" lon="-13.48842">
        <ele>93.8</ele>
        <time>2021-07-02 14:55:38</time>
      </trkpt>
      <trkpt lat="29.05221" lon="-13.4884">
        <ele>93.8</ele>
        <time>2021-07-02 14:55:39</time>
      </trkpt>
      <trkpt lat="29.05218" lon="-13.48837">
        <ele>93.6</ele>
        <time>2021-07-02 14:55:40</time>
      </trkpt>
      <trkpt lat="29.05215" lon="-13.48835">
        <ele>93.6</ele>
        <time>2021-07-02 14:55:41</time>
      </trkpt>
      <trkpt lat="29.05212" lon="-13.48834">
        <ele>93.6</ele>
        <time>2021-07-02 14:55:42</time>
      </trkpt>
      <trkpt lat="29.05208" lon="-13.48834">
        <ele>93.2</ele>
        <time>2021-07-02 14:55:43</time>
      </trkpt>
      <trkpt lat="29.05203" lon="-13.48835">
        <ele>93.2</ele>
        <time>2021-07-02 14:55:44</time>
      </trkpt>
      <trkpt lat="29.05198" lon="-13.48836">
        <ele>92.8</ele>
        <time>2021-07-02 14:55:45</time>
      </trkpt>
      <trkpt lat="29.05193" lon="-13.48836">
        <ele>92.6</ele>
        <time>2021-07-02 14:55:46</time>
      </trkpt>
      <trkpt lat="29.05189" lon="-13.48834">
        <ele>92.4</ele>
        <time>2021-07-02 14:55:47</time>
      </trkpt>
      <trkpt lat="29.05184" lon="-13.48833">
        <ele>92</ele>
        <time>2021-07-02 14:55:48</time>
      </trkpt>
      <trkpt lat="29.05179" lon="-13.48831">
        <ele>91.6</ele>
        <time>2021-07-02 14:55:49</time>
      </trkpt>
      <trkpt lat="29.05175" lon="-13.48829">
        <ele>91.4</ele>
        <time>2021-07-02 14:55:50</time>
      </trkpt>
      <trkpt lat="29.0517" lon="-13.48826">
        <ele>91.2</ele>
        <time>2021-07-02 14:55:51</time>
      </trkpt>
      <trkpt lat="29.05165" lon="-13.48823">
        <ele>90.8</ele>
        <time>2021-07-02 14:55:52</time>
      </trkpt>
      <trkpt lat="29.0516" lon="-13.48819">
        <ele>90.4</ele>
        <time>2021-07-02 14:55:53</time>
      </trkpt>
      <trkpt lat="29.05155" lon="-13.48817">
        <ele>90.4</ele>
        <time>2021-07-02 14:55:54</time>
      </trkpt>
      <trkpt lat="29.05149" lon="-13.48814">
        <ele>90</ele>
        <time>2021-07-02 14:55:55</time>
      </trkpt>
      <trkpt lat="29.05142" lon="-13.48811">
        <ele>89.8</ele>
        <time>2021-07-02 14:55:56</time>
      </trkpt>
      <trkpt lat="29.05136" lon="-13.4881">
        <ele>89.4</ele>
        <time>2021-07-02 14:55:57</time>
      </trkpt>
      <trkpt lat="29.0513" lon="-13.48807">
        <ele>89</ele>
        <time>2021-07-02 14:55:58</time>
      </trkpt>
      <trkpt lat="29.05125" lon="-13.48805">
        <ele>88.6</ele>
        <time>2021-07-02 14:55:59</time>
      </trkpt>
      <trkpt lat="29.05121" lon="-13.48803">
        <ele>88.2</ele>
        <time>2021-07-02 14:56:00</time>
      </trkpt>
      <trkpt lat="29.05117" lon="-13.488">
        <ele>87.8</ele>
        <time>2021-07-02 14:56:01</time>
      </trkpt>
      <trkpt lat="29.05114" lon="-13.48795">
        <ele>87.4</ele>
        <time>2021-07-02 14:56:02</time>
      </trkpt>
      <trkpt lat="29.05111" lon="-13.48792">
        <ele>87</ele>
        <time>2021-07-02 14:56:03</time>
      </trkpt>
      <trkpt lat="29.05111" lon="-13.48787">
        <ele>86.6</ele>
        <time>2021-07-02 14:56:04</time>
      </trkpt>
      <trkpt lat="29.0511" lon="-13.48782">
        <ele>86.6</ele>
        <time>2021-07-02 14:56:05</time>
      </trkpt>
      <trkpt lat="29.0511" lon="-13.48777">
        <ele>86.4</ele>
        <time>2021-07-02 14:56:06</time>
      </trkpt>
      <trkpt lat="29.05109" lon="-13.48771">
        <ele>86.4</ele>
        <time>2021-07-02 14:56:07</time>
      </trkpt>
      <trkpt lat="29.05109" lon="-13.48766">
        <ele>86.4</ele>
        <time>2021-07-02 14:56:08</time>
      </trkpt>
      <trkpt lat="29.05108" lon="-13.48762">
        <ele>86.4</ele>
        <time>2021-07-02 14:56:09</time>
      </trkpt>
      <trkpt lat="29.05108" lon="-13.48756">
        <ele>86.4</ele>
        <time>2021-07-02 14:56:10</time>
      </trkpt>
      <trkpt lat="29.05108" lon="-13.48751">
        <ele>86.4</ele>
        <time>2021-07-02 14:56:11</time>
      </trkpt>
      <trkpt lat="29.05107" lon="-13.48746">
        <ele>86.4</ele>
        <time>2021-07-02 14:56:12</time>
      </trkpt>
      <trkpt lat="29.05108" lon="-13.48741">
        <ele>86.4</ele>
        <time>2021-07-02 14:56:13</time>
      </trkpt>
      <trkpt lat="29.05107" lon="-13.48737">
        <ele>86.4</ele>
        <time>2021-07-02 14:56:14</time>
      </trkpt>
      <trkpt lat="29.05106" lon="-13.48733">
        <ele>86.4</ele>
        <time>2021-07-02 14:56:15</time>
      </trkpt>
      <trkpt lat="29.05106" lon="-13.48729">
        <ele>86.2</ele>
        <time>2021-07-02 14:56:16</time>
      </trkpt>
      <trkpt lat="29.05106" lon="-13.48725">
        <ele>86.2</ele>
        <time>2021-07-02 14:56:17</time>
      </trkpt>
      <trkpt lat="29.05105" lon="-13.4872">
        <ele>85.8</ele>
        <time>2021-07-02 14:56:18</time>
      </trkpt>
      <trkpt lat="29.05104" lon="-13.48716">
        <ele>85.8</ele>
        <time>2021-07-02 14:56:19</time>
      </trkpt>
      <trkpt lat="29.05104" lon="-13.48712">
        <ele>85.2</ele>
        <time>2021-07-02 14:56:20</time>
      </trkpt>
      <trkpt lat="29.05103" lon="-13.48708">
        <ele>85.2</ele>
        <time>2021-07-02 14:56:21</time>
      </trkpt>
      <trkpt lat="29.05103" lon="-13.48703">
        <ele>85</ele>
        <time>2021-07-02 14:56:22</time>
      </trkpt>
      <trkpt lat="29.05103" lon="-13.48698">
        <ele>85</ele>
        <time>2021-07-02 14:56:23</time>
      </trkpt>
      <trkpt lat="29.05103" lon="-13.48693">
        <ele>85</ele>
        <time>2021-07-02 14:56:24</time>
      </trkpt>
      <trkpt lat="29.05104" lon="-13.48689">
        <ele>84.8</ele>
        <time>2021-07-02 14:56:25</time>
      </trkpt>
      <trkpt lat="29.05105" lon="-13.48684">
        <ele>84.8</ele>
        <time>2021-07-02 14:56:26</time>
      </trkpt>
      <trkpt lat="29.05106" lon="-13.48679">
        <ele>84.4</ele>
        <time>2021-07-02 14:56:27</time>
      </trkpt>
      <trkpt lat="29.05107" lon="-13.48674">
        <ele>84.4</ele>
        <time>2021-07-02 14:56:28</time>
      </trkpt>
      <trkpt lat="29.05109" lon="-13.4867">
        <ele>84.4</ele>
        <time>2021-07-02 14:56:29</time>
      </trkpt>
      <trkpt lat="29.0511" lon="-13.48667">
        <ele>84.2</ele>
        <time>2021-07-02 14:56:30</time>
      </trkpt>
      <trkpt lat="29.05112" lon="-13.48664">
        <ele>84.2</ele>
        <time>2021-07-02 14:56:31</time>
      </trkpt>
      <trkpt lat="29.05114" lon="-13.4866">
        <ele>84.2</ele>
        <time>2021-07-02 14:56:32</time>
      </trkpt>
      <trkpt lat="29.05116" lon="-13.48656">
        <ele>84.2</ele>
        <time>2021-07-02 14:56:33</time>
      </trkpt>
      <trkpt lat="29.05118" lon="-13.48652">
        <ele>84.2</ele>
        <time>2021-07-02 14:56:34</time>
      </trkpt>
      <trkpt lat="29.0512" lon="-13.48649">
        <ele>84.2</ele>
        <time>2021-07-02 14:56:35</time>
      </trkpt>
      <trkpt lat="29.05122" lon="-13.48645">
        <ele>84.2</ele>
        <time>2021-07-02 14:56:36</time>
      </trkpt>
      <trkpt lat="29.05124" lon="-13.48642">
        <ele>84.2</ele>
        <time>2021-07-02 14:56:37</time>
      </trkpt>
      <trkpt lat="29.05126" lon="-13.48639">
        <ele>84.2</ele>
        <time>2021-07-02 14:56:38</time>
      </trkpt>
      <trkpt lat="29.05129" lon="-13.48636">
        <ele>84.2</ele>
        <time>2021-07-02 14:56:39</time>
      </trkpt>
      <trkpt lat="29.05131" lon="-13.48633">
        <ele>84.2</ele>
        <time>2021-07-02 14:56:40</time>
      </trkpt>
      <trkpt lat="29.05133" lon="-13.4863">
        <ele>83.8</ele>
        <time>2021-07-02 14:56:41</time>
      </trkpt>
      <trkpt lat="29.05135" lon="-13.48627">
        <ele>83.8</ele>
        <time>2021-07-02 14:56:42</time>
      </trkpt>
      <trkpt lat="29.05138" lon="-13.48625">
        <ele>83.8</ele>
        <time>2021-07-02 14:56:43</time>
      </trkpt>
      <trkpt lat="29.0514" lon="-13.48622">
        <ele>83.8</ele>
        <time>2021-07-02 14:56:44</time>
      </trkpt>
      <trkpt lat="29.05142" lon="-13.4862">
        <ele>83.4</ele>
        <time>2021-07-02 14:56:45</time>
      </trkpt>
      <trkpt lat="29.05145" lon="-13.48617">
        <ele>83.4</ele>
        <time>2021-07-02 14:56:46</time>
      </trkpt>
      <trkpt lat="29.05148" lon="-13.48615">
        <ele>83.2</ele>
        <time>2021-07-02 14:56:47</time>
      </trkpt>
      <trkpt lat="29.0515" lon="-13.48614">
        <ele>83.2</ele>
        <time>2021-07-02 14:56:48</time>
      </trkpt>
      <trkpt lat="29.05152" lon="-13.48612">
        <ele>83</ele>
        <time>2021-07-02 14:56:49</time>
      </trkpt>
      <trkpt lat="29.05154" lon="-13.4861">
        <ele>83</ele>
        <time>2021-07-02 14:56:50</time>
      </trkpt>
      <trkpt lat="29.05156" lon="-13.48608">
        <ele>83</ele>
        <time>2021-07-02 14:56:51</time>
      </trkpt>
      <trkpt lat="29.05158" lon="-13.48606">
        <ele>83</ele>
        <time>2021-07-02 14:56:52</time>
      </trkpt>
      <trkpt lat="29.05161" lon="-13.48604">
        <ele>83</ele>
        <time>2021-07-02 14:56:53</time>
      </trkpt>
      <trkpt lat="29.05164" lon="-13.48602">
        <ele>83</ele>
        <time>2021-07-02 14:56:54</time>
      </trkpt>
      <trkpt lat="29.05168" lon="-13.48601">
        <ele>82.8</ele>
        <time>2021-07-02 14:56:55</time>
      </trkpt>
      <trkpt lat="29.05171" lon="-13.486">
        <ele>82.8</ele>
        <time>2021-07-02 14:56:56</time>
      </trkpt>
      <trkpt lat="29.05175" lon="-13.48598">
        <ele>82.4</ele>
        <time>2021-07-02 14:56:57</time>
      </trkpt>
      <trkpt lat="29.05178" lon="-13.48597">
        <ele>82.2</ele>
        <time>2021-07-02 14:56:58</time>
      </trkpt>
      <trkpt lat="29.05181" lon="-13.48596">
        <ele>82</ele>
        <time>2021-07-02 14:56:59</time>
      </trkpt>
      <trkpt lat="29.05184" lon="-13.48594">
        <ele>82</ele>
        <time>2021-07-02 14:57:00</time>
      </trkpt>
      <trkpt lat="29.05187" lon="-13.48592">
        <ele>81.6</ele>
        <time>2021-07-02 14:57:01</time>
      </trkpt>
      <trkpt lat="29.05191" lon="-13.4859">
        <ele>81.4</ele>
        <time>2021-07-02 14:57:02</time>
      </trkpt>
      <trkpt lat="29.05194" lon="-13.48588">
        <ele>81.4</ele>
        <time>2021-07-02 14:57:03</time>
      </trkpt>
      <trkpt lat="29.05197" lon="-13.48585">
        <ele>81</ele>
        <time>2021-07-02 14:57:04</time>
      </trkpt>
      <trkpt lat="29.052" lon="-13.48583">
        <ele>81</ele>
        <time>2021-07-02 14:57:05</time>
      </trkpt>
      <trkpt lat="29.05203" lon="-13.48581">
        <ele>80.6</ele>
        <time>2021-07-02 14:57:06</time>
      </trkpt>
      <trkpt lat="29.05207" lon="-13.48578">
        <ele>80.4</ele>
        <time>2021-07-02 14:57:07</time>
      </trkpt>
      <trkpt lat="29.0521" lon="-13.48576">
        <ele>80.4</ele>
        <time>2021-07-02 14:57:08</time>
      </trkpt>
      <trkpt lat="29.05213" lon="-13.48574">
        <ele>80</ele>
        <time>2021-07-02 14:57:09</time>
      </trkpt>
      <trkpt lat="29.05216" lon="-13.48572">
        <ele>80</ele>
        <time>2021-07-02 14:57:10</time>
      </trkpt>
      <trkpt lat="29.05219" lon="-13.48571">
        <ele>79.8</ele>
        <time>2021-07-02 14:57:11</time>
      </trkpt>
      <trkpt lat="29.05222" lon="-13.48569">
        <ele>79.8</ele>
        <time>2021-07-02 14:57:12</time>
      </trkpt>
      <trkpt lat="29.05225" lon="-13.48568">
        <ele>79.8</ele>
        <time>2021-07-02 14:57:13</time>
      </trkpt>
      <trkpt lat="29.05227" lon="-13.48568">
        <ele>79.8</ele>
        <time>2021-07-02 14:57:14</time>
      </trkpt>
      <trkpt lat="29.05229" lon="-13.48567">
        <ele>79.8</ele>
        <time>2021-07-02 14:57:15</time>
      </trkpt>
      <trkpt lat="29.05232" lon="-13.48567">
        <ele>79.8</ele>
        <time>2021-07-02 14:57:16</time>
      </trkpt>
      <trkpt lat="29.05234" lon="-13.48566">
        <ele>79.8</ele>
        <time>2021-07-02 14:57:17</time>
      </trkpt>
      <trkpt lat="29.05237" lon="-13.48564">
        <ele>79.4</ele>
        <time>2021-07-02 14:57:18</time>
      </trkpt>
      <trkpt lat="29.0524" lon="-13.48562">
        <ele>79.2</ele>
        <time>2021-07-02 14:57:19</time>
      </trkpt>
      <trkpt lat="29.05243" lon="-13.4856">
        <ele>79.2</ele>
        <time>2021-07-02 14:57:20</time>
      </trkpt>
      <trkpt lat="29.05245" lon="-13.48559">
        <ele>79.2</ele>
        <time>2021-07-02 14:57:21</time>
      </trkpt>
      <trkpt lat="29.05247" lon="-13.48557">
        <ele>79.2</ele>
        <time>2021-07-02 14:57:22</time>
      </trkpt>
      <trkpt lat="29.05249" lon="-13.48555">
        <ele>79</ele>
        <time>2021-07-02 14:57:23</time>
      </trkpt>
      <trkpt lat="29.05251" lon="-13.48552">
        <ele>79</ele>
        <time>2021-07-02 14:57:24</time>
      </trkpt>
      <trkpt lat="29.05252" lon="-13.4855">
        <ele>79</ele>
        <time>2021-07-02 14:57:25</time>
      </trkpt>
      <trkpt lat="29.05254" lon="-13.48548">
        <ele>79</ele>
        <time>2021-07-02 14:57:26</time>
      </trkpt>
      <trkpt lat="29.05255" lon="-13.48546">
        <ele>79</ele>
        <time>2021-07-02 14:57:27</time>
      </trkpt>
      <trkpt lat="29.05257" lon="-13.48544">
        <ele>79</ele>
        <time>2021-07-02 14:57:28</time>
      </trkpt>
      <trkpt lat="29.0526" lon="-13.48542">
        <ele>78.6</ele>
        <time>2021-07-02 14:57:29</time>
      </trkpt>
      <trkpt lat="29.05262" lon="-13.48539">
        <ele>78.4</ele>
        <time>2021-07-02 14:57:30</time>
      </trkpt>
      <trkpt lat="29.05263" lon="-13.48537">
        <ele>78.2</ele>
        <time>2021-07-02 14:57:31</time>
      </trkpt>
      <trkpt lat="29.05265" lon="-13.48535">
        <ele>78.2</ele>
        <time>2021-07-02 14:57:32</time>
      </trkpt>
      <trkpt lat="29.05265" lon="-13.48532">
        <ele>77.8</ele>
        <time>2021-07-02 14:57:33</time>
      </trkpt>
      <trkpt lat="29.05266" lon="-13.48529">
        <ele>77.8</ele>
        <time>2021-07-02 14:57:34</time>
      </trkpt>
      <trkpt lat="29.05266" lon="-13.48526">
        <ele>77.8</ele>
        <time>2021-07-02 14:57:35</time>
      </trkpt>
      <trkpt lat="29.05266" lon="-13.48522">
        <ele>77.8</ele>
        <time>2021-07-02 14:57:36</time>
      </trkpt>
      <trkpt lat="29.05267" lon="-13.48519">
        <ele>77.8</ele>
        <time>2021-07-02 14:57:37</time>
      </trkpt>
      <trkpt lat="29.05267" lon="-13.48515">
        <ele>77.8</ele>
        <time>2021-07-02 14:57:38</time>
      </trkpt>
      <trkpt lat="29.05267" lon="-13.48511">
        <ele>77.8</ele>
        <time>2021-07-02 14:57:39</time>
      </trkpt>
      <trkpt lat="29.05268" lon="-13.48506">
        <ele>77.6</ele>
        <time>2021-07-02 14:57:40</time>
      </trkpt>
      <trkpt lat="29.05268" lon="-13.48501">
        <ele>77.6</ele>
        <time>2021-07-02 14:57:41</time>
      </trkpt>
      <trkpt lat="29.05269" lon="-13.48496">
        <ele>77.6</ele>
        <time>2021-07-02 14:57:42</time>
      </trkpt>
      <trkpt lat="29.05269" lon="-13.48491">
        <ele>77.6</ele>
        <time>2021-07-02 14:57:43</time>
      </trkpt>
      <trkpt lat="29.0527" lon="-13.48486">
        <ele>77.4</ele>
        <time>2021-07-02 14:57:44</time>
      </trkpt>
      <trkpt lat="29.0527" lon="-13.48481">
        <ele>77</ele>
        <time>2021-07-02 14:57:45</time>
      </trkpt>
      <trkpt lat="29.05271" lon="-13.48476">
        <ele>76.8</ele>
        <time>2021-07-02 14:57:46</time>
      </trkpt>
      <trkpt lat="29.05272" lon="-13.48471">
        <ele>76.8</ele>
        <time>2021-07-02 14:57:47</time>
      </trkpt>
      <trkpt lat="29.05274" lon="-13.48466">
        <ele>76.6</ele>
        <time>2021-07-02 14:57:48</time>
      </trkpt>
      <trkpt lat="29.05275" lon="-13.48461">
        <ele>76.6</ele>
        <time>2021-07-02 14:57:49</time>
      </trkpt>
      <trkpt lat="29.05276" lon="-13.48456">
        <ele>76.2</ele>
        <time>2021-07-02 14:57:50</time>
      </trkpt>
      <trkpt lat="29.05277" lon="-13.48452">
        <ele>76.2</ele>
        <time>2021-07-02 14:57:51</time>
      </trkpt>
      <trkpt lat="29.05278" lon="-13.48449">
        <ele>75.8</ele>
        <time>2021-07-02 14:57:52</time>
      </trkpt>
      <trkpt lat="29.05278" lon="-13.48448">
        <ele>75.6</ele>
        <time>2021-07-02 14:57:53</time>
      </trkpt>
      <trkpt lat="29.05278" lon="-13.48448">
        <ele>75.2</ele>
        <time>2021-07-02 14:57:54</time>
      </trkpt>
      <trkpt lat="29.05278" lon="-13.48448">
        <ele>74.8</ele>
        <time>2021-07-02 14:57:55</time>
      </trkpt>
      <trkpt lat="29.05278" lon="-13.48447">
        <ele>70.6</ele>
        <time>2021-07-02 14:57:56</time>
      </trkpt>
      <trkpt lat="29.05279" lon="-13.48447">
        <ele>70.8</ele>
        <time>2021-07-02 14:57:57</time>
      </trkpt>
      <trkpt lat="29.05279" lon="-13.48446">
        <ele>70.8</ele>
        <time>2021-07-02 14:57:58</time>
      </trkpt>
      <trkpt lat="29.05279" lon="-13.48446">
        <ele>70.8</ele>
        <time>2021-07-02 14:57:59</time>
      </trkpt>
      <trkpt lat="29.05279" lon="-13.48446">
        <ele>70.6</ele>
        <time>2021-07-02 14:58:00</time>
      </trkpt>
      <trkpt lat="29.05279" lon="-13.48445">
        <ele>70.6</ele>
        <time>2021-07-02 14:58:01</time>
      </trkpt>
      <trkpt lat="29.05279" lon="-13.48444">
        <ele>70</ele>
        <time>2021-07-02 14:58:02</time>
      </trkpt>
      <trkpt lat="29.05279" lon="-13.48444">
        <ele>70</ele>
        <time>2021-07-02 14:58:03</time>
      </trkpt>
      <trkpt lat="29.0528" lon="-13.48444">
        <ele>70</ele>
        <time>2021-07-02 14:58:04</time>
      </trkpt>
      <trkpt lat="29.0528" lon="-13.48443">
        <ele>70</ele>
        <time>2021-07-02 14:58:05</time>
      </trkpt>
      <trkpt lat="29.0528" lon="-13.48442">
        <ele>72.8</ele>
        <time>2021-07-02 14:58:06</time>
      </trkpt>
      <trkpt lat="29.0528" lon="-13.4844">
        <ele>71.8</ele>
        <time>2021-07-02 14:58:07</time>
      </trkpt>
      <trkpt lat="29.0528" lon="-13.48438">
        <ele>71.6</ele>
        <time>2021-07-02 14:58:08</time>
      </trkpt>
      <trkpt lat="29.0528" lon="-13.48436">
        <ele>71</ele>
        <time>2021-07-02 14:58:09</time>
      </trkpt>
      <trkpt lat="29.0528" lon="-13.48433">
        <ele>70.6</ele>
        <time>2021-07-02 14:58:10</time>
      </trkpt>
      <trkpt lat="29.05281" lon="-13.48429">
        <ele>70.2</ele>
        <time>2021-07-02 14:58:11</time>
      </trkpt>
      <trkpt lat="29.05281" lon="-13.48426">
        <ele>70.2</ele>
        <time>2021-07-02 14:58:12</time>
      </trkpt>
      <trkpt lat="29.05281" lon="-13.48422">
        <ele>70.2</ele>
        <time>2021-07-02 14:58:13</time>
      </trkpt>
      <trkpt lat="29.05282" lon="-13.48418">
        <ele>70.6</ele>
        <time>2021-07-02 14:58:14</time>
      </trkpt>
      <trkpt lat="29.05282" lon="-13.48415">
        <ele>70.6</ele>
        <time>2021-07-02 14:58:15</time>
      </trkpt>
      <trkpt lat="29.05282" lon="-13.48411">
        <ele>70.6</ele>
        <time>2021-07-02 14:58:16</time>
      </trkpt>
      <trkpt lat="29.05282" lon="-13.48407">
        <ele>70.8</ele>
        <time>2021-07-02 14:58:17</time>
      </trkpt>
      <trkpt lat="29.05282" lon="-13.48403">
        <ele>70.6</ele>
        <time>2021-07-02 14:58:18</time>
      </trkpt>
      <trkpt lat="29.05282" lon="-13.48399">
        <ele>70.6</ele>
        <time>2021-07-02 14:58:19</time>
      </trkpt>
      <trkpt lat="29.05282" lon="-13.48395">
        <ele>70.6</ele>
        <time>2021-07-02 14:58:20</time>
      </trkpt>
      <trkpt lat="29.05282" lon="-13.48391">
        <ele>70.6</ele>
        <time>2021-07-02 14:58:21</time>
      </trkpt>
      <trkpt lat="29.05281" lon="-13.48386">
        <ele>70.6</ele>
        <time>2021-07-02 14:58:22</time>
      </trkpt>
      <trkpt lat="29.05281" lon="-13.48382">
        <ele>70</ele>
        <time>2021-07-02 14:58:23</time>
      </trkpt>
      <trkpt lat="29.0528" lon="-13.48378">
        <ele>69.4</ele>
        <time>2021-07-02 14:58:24</time>
      </trkpt>
      <trkpt lat="29.0528" lon="-13.48374">
        <ele>69.4</ele>
        <time>2021-07-02 14:58:25</time>
      </trkpt>
      <trkpt lat="29.05279" lon="-13.4837">
        <ele>69</ele>
        <time>2021-07-02 14:58:26</time>
      </trkpt>
      <trkpt lat="29.05279" lon="-13.48366">
        <ele>68.8</ele>
        <time>2021-07-02 14:58:27</time>
      </trkpt>
      <trkpt lat="29.05278" lon="-13.48361">
        <ele>68.8</ele>
        <time>2021-07-02 14:58:28</time>
      </trkpt>
      <trkpt lat="29.05278" lon="-13.48356">
        <ele>68.6</ele>
        <time>2021-07-02 14:58:29</time>
      </trkpt>
      <trkpt lat="29.05278" lon="-13.4835">
        <ele>68.8</ele>
        <time>2021-07-02 14:58:30</time>
      </trkpt>
      <trkpt lat="29.05278" lon="-13.48345">
        <ele>68.8</ele>
        <time>2021-07-02 14:58:31</time>
      </trkpt>
      <trkpt lat="29.05277" lon="-13.4834">
        <ele>68.8</ele>
        <time>2021-07-02 14:58:32</time>
      </trkpt>
      <trkpt lat="29.05277" lon="-13.48335">
        <ele>68.4</ele>
        <time>2021-07-02 14:58:33</time>
      </trkpt>
      <trkpt lat="29.05277" lon="-13.4833">
        <ele>68.4</ele>
        <time>2021-07-02 14:58:34</time>
      </trkpt>
      <trkpt lat="29.05276" lon="-13.48325">
        <ele>68.2</ele>
        <time>2021-07-02 14:58:35</time>
      </trkpt>
      <trkpt lat="29.05277" lon="-13.4832">
        <ele>68.2</ele>
        <time>2021-07-02 14:58:36</time>
      </trkpt>
      <trkpt lat="29.05277" lon="-13.48314">
        <ele>69</ele>
        <time>2021-07-02 14:58:37</time>
      </trkpt>
      <trkpt lat="29.05277" lon="-13.48309">
        <ele>68.8</ele>
        <time>2021-07-02 14:58:38</time>
      </trkpt>
      <trkpt lat="29.05277" lon="-13.48304">
        <ele>68.8</ele>
        <time>2021-07-02 14:58:39</time>
      </trkpt>
      <trkpt lat="29.05277" lon="-13.48299">
        <ele>68.4</ele>
        <time>2021-07-02 14:58:40</time>
      </trkpt>
      <trkpt lat="29.05278" lon="-13.48294">
        <ele>68.4</ele>
        <time>2021-07-02 14:58:41</time>
      </trkpt>
      <trkpt lat="29.05278" lon="-13.4829">
        <ele>68.4</ele>
        <time>2021-07-02 14:58:42</time>
      </trkpt>
      <trkpt lat="29.05279" lon="-13.48285">
        <ele>68.4</ele>
        <time>2021-07-02 14:58:43</time>
      </trkpt>
      <trkpt lat="29.05279" lon="-13.4828">
        <ele>68.4</ele>
        <time>2021-07-02 14:58:44</time>
      </trkpt>
      <trkpt lat="29.05279" lon="-13.48276">
        <ele>68.2</ele>
        <time>2021-07-02 14:59:45</time>
      </trkpt>
      <trkpt lat="29.05278" lon="-13.48271">
        <ele>68.2</ele>
        <time>2021-07-02 14:59:46</time>
      </trkpt>
      <trkpt lat="29.05278" lon="-13.48266">
        <ele>68.2</ele>
        <time>2021-07-02 14:59:47</time>
      </trkpt>
      <trkpt lat="29.05276" lon="-13.48261">
        <ele>68.2</ele>
        <time>2021-07-02 14:59:48</time>
      </trkpt>
      <trkpt lat="29.05275" lon="-13.48256">
        <ele>67.8</ele>
        <time>2021-07-02 14:59:49</time>
      </trkpt>
      <trkpt lat="29.05274" lon="-13.48251">
        <ele>67.8</ele>
        <time>2021-07-02 14:59:50</time>
      </trkpt>
      <trkpt lat="29.05274" lon="-13.48247">
        <ele>67.8</ele>
        <time>2021-07-02 14:59:55</time>
      </trkpt>
      <trkpt lat="29.05273" lon="-13.48242">
        <ele>67.8</ele>
        <time>2021-07-02 14:59:56</time>
      </trkpt>
      <trkpt lat="29.05272" lon="-13.48237">
        <ele>67.6</ele>
        <time>2021-07-02 14:59:57</time>
      </trkpt>
      <trkpt lat="29.05272" lon="-13.48232">
        <ele>67.6</ele>
        <time>2021-07-02 14:59:58</time>
      </trkpt>
      <trkpt lat="29.05271" lon="-13.48228">
        <ele>67.6</ele>
        <time>2021-07-02 15:00:07</time>
      </trkpt>
      <trkpt lat="29.05271" lon="-13.48223">
        <ele>67.6</ele>
        <time>2021-07-02 15:00:08</time>
      </trkpt>
      <trkpt lat="29.05271" lon="-13.48218">
        <ele>67.4</ele>
        <time>2021-07-02 15:00:09</time>
      </trkpt>
      <trkpt lat="29.05271" lon="-13.48214">
        <ele>67.4</ele>
        <time>2021-07-02 15:00:10</time>
      </trkpt>
      <trkpt lat="29.05271" lon="-13.48209">
        <ele>67.4</ele>
        <time>2021-07-02 15:00:11</time>
      </trkpt>
      <trkpt lat="29.05272" lon="-13.48205">
        <ele>67.2</ele>
        <time>2021-07-02 15:00:12</time>
      </trkpt>
      <trkpt lat="29.05273" lon="-13.482">
        <ele>67.2</ele>
        <time>2021-07-02 15:00:13</time>
      </trkpt>
      <trkpt lat="29.05275" lon="-13.48196">
        <ele>67.2</ele>
        <time>2021-07-02 15:00:14</time>
      </trkpt>
      <trkpt lat="29.05277" lon="-13.48193">
        <ele>67.2</ele>
        <time>2021-07-02 15:00:15</time>
      </trkpt>
      <trkpt lat="29.05279" lon="-13.4819">
        <ele>67.2</ele>
        <time>2021-07-02 15:00:16</time>
      </trkpt>
      <trkpt lat="29.05281" lon="-13.48187">
        <ele>67.4</ele>
        <time>2021-07-02 15:00:17</time>
      </trkpt>
      <trkpt lat="29.05283" lon="-13.48185">
        <ele>67.4</ele>
        <time>2021-07-02 15:00:18</time>
      </trkpt>
      <trkpt lat="29.05285" lon="-13.48182">
        <ele>67.4</ele>
        <time>2021-07-02 15:00:19</time>
      </trkpt>
      <trkpt lat="29.05288" lon="-13.48179">
        <ele>67.4</ele>
        <time>2021-07-02 15:00:20</time>
      </trkpt>
      <trkpt lat="29.0529" lon="-13.48177">
        <ele>67.4</ele>
        <time>2021-07-02 15:00:21</time>
      </trkpt>
      <trkpt lat="29.05293" lon="-13.48176">
        <ele>67.4</ele>
        <time>2021-07-02 15:00:22</time>
      </trkpt>
      <trkpt lat="29.05296" lon="-13.48175">
        <ele>67.6</ele>
        <time>2021-07-02 15:00:23</time>
      </trkpt>
      <trkpt lat="29.05298" lon="-13.48174">
        <ele>67.6</ele>
        <time>2021-07-02 15:00:24</time>
      </trkpt>
      <trkpt lat="29.05301" lon="-13.48173">
        <ele>67.6</ele>
        <time>2021-07-02 15:00:25</time>
      </trkpt>
      <trkpt lat="29.05305" lon="-13.48172">
        <ele>67.4</ele>
        <time>2021-07-02 15:00:26</time>
      </trkpt>
      <trkpt lat="29.05308" lon="-13.48171">
        <ele>68.4</ele>
        <time>2021-07-02 15:00:27</time>
      </trkpt>
      <trkpt lat="29.0531" lon="-13.4817">
        <ele>68</ele>
        <time>2021-07-02 15:00:28</time>
      </trkpt>
      <trkpt lat="29.05313" lon="-13.48168">
        <ele>68</ele>
        <time>2021-07-02 15:00:29</time>
      </trkpt>
      <trkpt lat="29.05316" lon="-13.48166">
        <ele>67.4</ele>
        <time>2021-07-02 15:00:30</time>
      </trkpt>
      <trkpt lat="29.05319" lon="-13.48164">
        <ele>67.4</ele>
        <time>2021-07-02 15:00:31</time>
      </trkpt>
      <trkpt lat="29.05322" lon="-13.48161">
        <ele>67.2</ele>
        <time>2021-07-02 15:00:32</time>
      </trkpt>
      <trkpt lat="29.05325" lon="-13.48157">
        <ele>67</ele>
        <time>2021-07-02 15:00:33</time>
      </trkpt>
      <trkpt lat="29.05326" lon="-13.48152">
        <ele>66.6</ele>
        <time>2021-07-02 15:00:34</time>
      </trkpt>
      <trkpt lat="29.05328" lon="-13.48147">
        <ele>66.6</ele>
        <time>2021-07-02 15:00:35</time>
      </trkpt>
      <trkpt lat="29.05329" lon="-13.48142">
        <ele>66.4</ele>
        <time>2021-07-02 15:00:36</time>
      </trkpt>
      <trkpt lat="29.05331" lon="-13.48137">
        <ele>66</ele>
        <time>2021-07-02 15:00:37</time>
      </trkpt>
      <trkpt lat="29.05333" lon="-13.48132">
        <ele>65.6</ele>
        <time>2021-07-02 15:00:38</time>
      </trkpt>
      <trkpt lat="29.05334" lon="-13.48128">
        <ele>65.6</ele>
        <time>2021-07-02 15:00:39</time>
      </trkpt>
      <trkpt lat="29.05336" lon="-13.48123">
        <ele>64.8</ele>
        <time>2021-07-02 15:00:40</time>
      </trkpt>
      <trkpt lat="29.05337" lon="-13.48118">
        <ele>64.4</ele>
        <time>2021-07-02 15:00:41</time>
      </trkpt>
      <trkpt lat="29.05339" lon="-13.48114">
        <ele>63.8</ele>
        <time>2021-07-02 15:00:42</time>
      </trkpt>
      <trkpt lat="29.0534" lon="-13.48109">
        <ele>63</ele>
        <time>2021-07-02 15:00:43</time>
      </trkpt>
      <trkpt lat="29.05341" lon="-13.48104">
        <ele>62.4</ele>
        <time>2021-07-02 15:00:44</time>
      </trkpt>
      <trkpt lat="29.05341" lon="-13.481">
        <ele>61.6</ele>
        <time>2021-07-02 15:00:45</time>
      </trkpt>
      <trkpt lat="29.05342" lon="-13.48096">
        <ele>60.8</ele>
        <time>2021-07-02 15:00:46</time>
      </trkpt>
      <trkpt lat="29.05345" lon="-13.48092">
        <ele>60</ele>
        <time>2021-07-02 15:00:47</time>
      </trkpt>
      <trkpt lat="29.05346" lon="-13.48087">
        <ele>59.4</ele>
        <time>2021-07-02 15:00:48</time>
      </trkpt>
      <trkpt lat="29.05348" lon="-13.48082">
        <ele>58.8</ele>
        <time>2021-07-02 15:00:49</time>
      </trkpt>
      <trkpt lat="29.0535" lon="-13.48077">
        <ele>58.4</ele>
        <time>2021-07-02 15:00:50</time>
      </trkpt>
      <trkpt lat="29.05351" lon="-13.48073">
        <ele>57.8</ele>
        <time>2021-07-02 15:00:51</time>
      </trkpt>
      <trkpt lat="29.05351" lon="-13.48068">
        <ele>57.4</ele>
        <time>2021-07-02 15:00:52</time>
      </trkpt>
      <trkpt lat="29.0535" lon="-13.48064">
        <ele>57.2</ele>
        <time>2021-07-02 15:00:53</time>
      </trkpt>
      <trkpt lat="29.05349" lon="-13.48059">
        <ele>56.6</ele>
        <time>2021-07-02 15:00:54</time>
      </trkpt>
      <trkpt lat="29.05348" lon="-13.48055">
        <ele>56</ele>
        <time>2021-07-02 15:00:55</time>
      </trkpt>
      <trkpt lat="29.05346" lon="-13.48051">
        <ele>56</ele>
        <time>2021-07-02 15:00:56</time>
      </trkpt>
      <trkpt lat="29.05344" lon="-13.48047">
        <ele>55.6</ele>
        <time>2021-07-02 15:00:57</time>
      </trkpt>
      <trkpt lat="29.05343" lon="-13.48043">
        <ele>54.8</ele>
        <time>2021-07-02 15:00:58</time>
      </trkpt>
      <trkpt lat="29.05342" lon="-13.48039">
        <ele>54.4</ele>
        <time>2021-07-02 15:00:59</time>
      </trkpt>
      <trkpt lat="29.05343" lon="-13.48035">
        <ele>53.8</ele>
        <time>2021-07-02 15:01:00</time>
      </trkpt>
      <trkpt lat="29.05346" lon="-13.48032">
        <ele>53.2</ele>
        <time>2021-07-02 15:01:01</time>
      </trkpt>
      <trkpt lat="29.0535" lon="-13.4803">
        <ele>53</ele>
        <time>2021-07-02 15:01:02</time>
      </trkpt>
      <trkpt lat="29.05353" lon="-13.48029">
        <ele>52.8</ele>
        <time>2021-07-02 15:01:03</time>
      </trkpt>
      <trkpt lat="29.05356" lon="-13.48029">
        <ele>53.8</ele>
        <time>2021-07-02 15:01:04</time>
      </trkpt>
      <trkpt lat="29.05359" lon="-13.48031">
        <ele>53</ele>
        <time>2021-07-02 15:01:05</time>
      </trkpt>
      <trkpt lat="29.05361" lon="-13.48032">
        <ele>52.4</ele>
        <time>2021-07-02 15:01:06</time>
      </trkpt>
      <trkpt lat="29.05363" lon="-13.48034">
        <ele>52</ele>
        <time>2021-07-02 15:01:07</time>
      </trkpt>
      <trkpt lat="29.05365" lon="-13.48034">
        <ele>51.6</ele>
        <time>2021-07-02 15:01:08</time>
      </trkpt>
      <trkpt lat="29.05368" lon="-13.48034">
        <ele>51</ele>
        <time>2021-07-02 15:01:09</time>
      </trkpt>
      <trkpt lat="29.05371" lon="-13.48034">
        <ele>50.6</ele>
        <time>2021-07-02 15:01:10</time>
      </trkpt>
      <trkpt lat="29.05372" lon="-13.48034">
        <ele>50.4</ele>
        <time>2021-07-02 15:01:11</time>
      </trkpt>
      <trkpt lat="29.05373" lon="-13.48033">
        <ele>50.4</ele>
        <time>2021-07-02 15:01:12</time>
      </trkpt>
      <trkpt lat="29.05374" lon="-13.48033">
        <ele>50.2</ele>
        <time>2021-07-02 15:01:13</time>
      </trkpt>
      <trkpt lat="29.05374" lon="-13.48033">
        <ele>50.2</ele>
        <time>2021-07-02 15:01:14</time>
      </trkpt>
      <trkpt lat="29.05373" lon="-13.48033">
        <ele>50.2</ele>
        <time>2021-07-02 15:01:15</time>
      </trkpt>
      <trkpt lat="29.05374" lon="-13.48033">
        <ele>50.2</ele>
        <time>2021-07-02 15:01:16</time>
      </trkpt>
      <trkpt lat="29.05374" lon="-13.48033">
        <ele>50.2</ele>
        <time>2021-07-02 15:01:17</time>
      </trkpt>
      <trkpt lat="29.05375" lon="-13.48033">
        <ele>50.2</ele>
        <time>2021-07-02 15:01:18</time>
      </trkpt>
      <trkpt lat="29.05375" lon="-13.48033">
        <ele>50.2</ele>
        <time>2021-07-02 15:01:19</time>
      </trkpt>
      <trkpt lat="29.05376" lon="-13.48033">
        <ele>50.2</ele>
        <time>2021-07-02 15:01:20</time>
      </trkpt>
      <trkpt lat="29.05377" lon="-13.48032">
        <ele>50.4</ele>
        <time>2021-07-02 15:01:21</time>
      </trkpt>
      <trkpt lat="29.05379" lon="-13.48031">
        <ele>50.4</ele>
        <time>2021-07-02 15:01:22</time>
      </trkpt>
      <trkpt lat="29.0538" lon="-13.48031">
        <ele>50.4</ele>
        <time>2021-07-02 15:01:23</time>
      </trkpt>
      <trkpt lat="29.05381" lon="-13.4803">
        <ele>50.8</ele>
        <time>2021-07-02 15:01:24</time>
      </trkpt>
      <trkpt lat="29.05382" lon="-13.4803">
        <ele>50.8</ele>
        <time>2021-07-02 15:01:25</time>
      </trkpt>
      <trkpt lat="29.05383" lon="-13.48029">
        <ele>50.8</ele>
        <time>2021-07-02 15:01:26</time>
      </trkpt>
      <trkpt lat="29.05385" lon="-13.48029">
        <ele>50.8</ele>
        <time>2021-07-02 15:01:27</time>
      </trkpt>
      <trkpt lat="29.05387" lon="-13.48028">
        <ele>50.8</ele>
        <time>2021-07-02 15:01:28</time>
      </trkpt>
      <trkpt lat="29.05389" lon="-13.48028">
        <ele>50.8</ele>
        <time>2021-07-02 15:01:29</time>
      </trkpt>
      <trkpt lat="29.05391" lon="-13.48027">
        <ele>50.8</ele>
        <time>2021-07-02 15:01:30</time>
      </trkpt>
      <trkpt lat="29.05393" lon="-13.48026">
        <ele>50.8</ele>
        <time>2021-07-02 15:01:31</time>
      </trkpt>
      <trkpt lat="29.05395" lon="-13.48025">
        <ele>50.6</ele>
        <time>2021-07-02 15:01:32</time>
      </trkpt>
      <trkpt lat="29.05396" lon="-13.48024">
        <ele>50.6</ele>
        <time>2021-07-02 15:01:33</time>
      </trkpt>
      <trkpt lat="29.05397" lon="-13.48022">
        <ele>50.6</ele>
        <time>2021-07-02 15:01:34</time>
      </trkpt>
      <trkpt lat="29.05399" lon="-13.4802">
        <ele>50.8</ele>
        <time>2021-07-02 15:01:35</time>
      </trkpt>
      <trkpt lat="29.054" lon="-13.48018">
        <ele>50.8</ele>
        <time>2021-07-02 15:01:36</time>
      </trkpt>
      <trkpt lat="29.05401" lon="-13.48016">
        <ele>51.4</ele>
        <time>2021-07-02 15:01:37</time>
      </trkpt>
      <trkpt lat="29.05402" lon="-13.48013">
        <ele>51.4</ele>
        <time>2021-07-02 15:01:38</time>
      </trkpt>
      <trkpt lat="29.05404" lon="-13.48011">
        <ele>51.6</ele>
        <time>2021-07-02 15:01:39</time>
      </trkpt>
      <trkpt lat="29.05405" lon="-13.48009">
        <ele>51.6</ele>
        <time>2021-07-02 15:01:40</time>
      </trkpt>
      <trkpt lat="29.05406" lon="-13.48006">
        <ele>51.8</ele>
        <time>2021-07-02 15:01:41</time>
      </trkpt>
      <trkpt lat="29.05407" lon="-13.48004">
        <ele>52.2</ele>
        <time>2021-07-02 15:01:42</time>
      </trkpt>
      <trkpt lat="29.05408" lon="-13.48001">
        <ele>52.2</ele>
        <time>2021-07-02 15:01:43</time>
      </trkpt>
      <trkpt lat="29.0541" lon="-13.47999">
        <ele>52.4</ele>
        <time>2021-07-02 15:01:44</time>
      </trkpt>
      <trkpt lat="29.05412" lon="-13.47996">
        <ele>52.4</ele>
        <time>2021-07-02 15:01:45</time>
      </trkpt>
      <trkpt lat="29.05414" lon="-13.47993">
        <ele>52.4</ele>
        <time>2021-07-02 15:01:46</time>
      </trkpt>
      <trkpt lat="29.05415" lon="-13.47991">
        <ele>52.6</ele>
        <time>2021-07-02 15:01:47</time>
      </trkpt>
      <trkpt lat="29.05417" lon="-13.47988">
        <ele>52.6</ele>
        <time>2021-07-02 15:01:48</time>
      </trkpt>
      <trkpt lat="29.05419" lon="-13.47986">
        <ele>52.6</ele>
        <time>2021-07-02 15:01:49</time>
      </trkpt>
      <trkpt lat="29.05421" lon="-13.47983">
        <ele>53</ele>
        <time>2021-07-02 15:01:50</time>
      </trkpt>
      <trkpt lat="29.05423" lon="-13.47981">
        <ele>53</ele>
        <time>2021-07-02 15:01:51</time>
      </trkpt>
      <trkpt lat="29.05425" lon="-13.47979">
        <ele>53</ele>
        <time>2021-07-02 15:01:52</time>
      </trkpt>
      <trkpt lat="29.05427" lon="-13.47977">
        <ele>53.2</ele>
        <time>2021-07-02 15:01:53</time>
      </trkpt>
      <trkpt lat="29.05429" lon="-13.47976">
        <ele>53.2</ele>
        <time>2021-07-02 15:01:54</time>
      </trkpt>
      <trkpt lat="29.05431" lon="-13.47974">
        <ele>53.2</ele>
        <time>2021-07-02 15:01:55</time>
      </trkpt>
      <trkpt lat="29.05433" lon="-13.47972">
        <ele>53.2</ele>
        <time>2021-07-02 15:01:56</time>
      </trkpt>
      <trkpt lat="29.05435" lon="-13.47971">
        <ele>53.2</ele>
        <time>2021-07-02 15:01:57</time>
      </trkpt>
      <trkpt lat="29.05437" lon="-13.47969">
        <ele>53.2</ele>
        <time>2021-07-02 15:01:58</time>
      </trkpt>
      <trkpt lat="29.05439" lon="-13.47967">
        <ele>53.2</ele>
        <time>2021-07-02 15:01:59</time>
      </trkpt>
      <trkpt lat="29.05441" lon="-13.47965">
        <ele>53.2</ele>
        <time>2021-07-02 15:02:00</time>
      </trkpt>
      <trkpt lat="29.05443" lon="-13.47963">
        <ele>53.6</ele>
        <time>2021-07-02 15:02:01</time>
      </trkpt>
      <trkpt lat="29.05444" lon="-13.47961">
        <ele>53.6</ele>
        <time>2021-07-02 15:02:02</time>
      </trkpt>
      <trkpt lat="29.05445" lon="-13.47959">
        <ele>53.4</ele>
        <time>2021-07-02 15:02:03</time>
      </trkpt>
      <trkpt lat="29.05446" lon="-13.47958">
        <ele>53.4</ele>
        <time>2021-07-02 15:02:04</time>
      </trkpt>
      <trkpt lat="29.05447" lon="-13.47955">
        <ele>53.4</ele>
        <time>2021-07-02 15:02:05</time>
      </trkpt>
      <trkpt lat="29.05448" lon="-13.47953">
        <ele>53.2</ele>
        <time>2021-07-02 15:02:06</time>
      </trkpt>
      <trkpt lat="29.0545" lon="-13.4795">
        <ele>53.2</ele>
        <time>2021-07-02 15:02:07</time>
      </trkpt>
      <trkpt lat="29.05451" lon="-13.47947">
        <ele>53.2</ele>
        <time>2021-07-02 15:02:08</time>
      </trkpt>
      <trkpt lat="29.05452" lon="-13.47945">
        <ele>53.2</ele>
        <time>2021-07-02 15:02:09</time>
      </trkpt>
      <trkpt lat="29.05454" lon="-13.47942">
        <ele>53.2</ele>
        <time>2021-07-02 15:02:10</time>
      </trkpt>
      <trkpt lat="29.05455" lon="-13.47938">
        <ele>53</ele>
        <time>2021-07-02 15:02:11</time>
      </trkpt>
      <trkpt lat="29.05456" lon="-13.47935">
        <ele>53</ele>
        <time>2021-07-02 15:02:12</time>
      </trkpt>
      <trkpt lat="29.05456" lon="-13.47933">
        <ele>53</ele>
        <time>2021-07-02 15:02:13</time>
      </trkpt>
      <trkpt lat="29.05457" lon="-13.47931">
        <ele>53</ele>
        <time>2021-07-02 15:02:14</time>
      </trkpt>
      <trkpt lat="29.05457" lon="-13.47928">
        <ele>54.8</ele>
        <time>2021-07-02 15:02:15</time>
      </trkpt>
      <trkpt lat="29.05458" lon="-13.47925">
        <ele>55.4</ele>
        <time>2021-07-02 15:02:16</time>
      </trkpt>
      <trkpt lat="29.05459" lon="-13.47923">
        <ele>55.8</ele>
        <time>2021-07-02 15:02:17</time>
      </trkpt>
      <trkpt lat="29.05459" lon="-13.4792">
        <ele>55.4</ele>
        <time>2021-07-02 15:02:18</time>
      </trkpt>
      <trkpt lat="29.0546" lon="-13.47917">
        <ele>55</ele>
        <time>2021-07-02 15:02:19</time>
      </trkpt>
      <trkpt lat="29.05461" lon="-13.47914">
        <ele>54.6</ele>
        <time>2021-07-02 15:02:20</time>
      </trkpt>
      <trkpt lat="29.05461" lon="-13.47912">
        <ele>56.2</ele>
        <time>2021-07-02 15:02:21</time>
      </trkpt>
      <trkpt lat="29.05462" lon="-13.4791">
        <ele>57</ele>
        <time>2021-07-02 15:02:22</time>
      </trkpt>
      <trkpt lat="29.05463" lon="-13.47907">
        <ele>56.8</ele>
        <time>2021-07-02 15:02:23</time>
      </trkpt>
      <trkpt lat="29.05464" lon="-13.47904">
        <ele>56.8</ele>
        <time>2021-07-02 15:02:24</time>
      </trkpt>
      <trkpt lat="29.05465" lon="-13.47901">
        <ele>56</ele>
        <time>2021-07-02 15:02:25</time>
      </trkpt>
      <trkpt lat="29.05466" lon="-13.47898">
        <ele>55.2</ele>
        <time>2021-07-02 15:02:26</time>
      </trkpt>
      <trkpt lat="29.05467" lon="-13.47896">
        <ele>55.2</ele>
        <time>2021-07-02 15:02:27</time>
      </trkpt>
      <trkpt lat="29.05468" lon="-13.47893">
        <ele>54.6</ele>
        <time>2021-07-02 15:02:28</time>
      </trkpt>
      <trkpt lat="29.0547" lon="-13.4789">
        <ele>54.2</ele>
        <time>2021-07-02 15:02:29</time>
      </trkpt>
      <trkpt lat="29.05471" lon="-13.47888">
        <ele>53.6</ele>
        <time>2021-07-02 15:02:30</time>
      </trkpt>
      <trkpt lat="29.05473" lon="-13.47884">
        <ele>53.2</ele>
        <time>2021-07-02 15:02:31</time>
      </trkpt>
      <trkpt lat="29.05474" lon="-13.47881">
        <ele>53.2</ele>
        <time>2021-07-02 15:02:32</time>
      </trkpt>
      <trkpt lat="29.05476" lon="-13.47877">
        <ele>52.4</ele>
        <time>2021-07-02 15:02:33</time>
      </trkpt>
      <trkpt lat="29.05477" lon="-13.47873">
        <ele>52</ele>
        <time>2021-07-02 15:02:34</time>
      </trkpt>
      <trkpt lat="29.05479" lon="-13.47869">
        <ele>51.4</ele>
        <time>2021-07-02 15:02:35</time>
      </trkpt>
      <trkpt lat="29.0548" lon="-13.47866">
        <ele>51</ele>
        <time>2021-07-02 15:02:36</time>
      </trkpt>
      <trkpt lat="29.05482" lon="-13.47862">
        <ele>51</ele>
        <time>2021-07-02 15:02:37</time>
      </trkpt>
      <trkpt lat="29.05483" lon="-13.47859">
        <ele>51</ele>
        <time>2021-07-02 15:02:38</time>
      </trkpt>
      <trkpt lat="29.05484" lon="-13.47856">
        <ele>50.6</ele>
        <time>2021-07-02 15:02:39</time>
      </trkpt>
      <trkpt lat="29.05486" lon="-13.47853">
        <ele>51.2</ele>
        <time>2021-07-02 15:02:40</time>
      </trkpt>
      <trkpt lat="29.05487" lon="-13.4785">
        <ele>50.8</ele>
        <time>2021-07-02 15:02:41</time>
      </trkpt>
      <trkpt lat="29.05489" lon="-13.47846">
        <ele>50.8</ele>
        <time>2021-07-02 15:02:42</time>
      </trkpt>
      <trkpt lat="29.0549" lon="-13.47843">
        <ele>50.8</ele>
        <time>2021-07-02 15:02:43</time>
      </trkpt>
      <trkpt lat="29.05491" lon="-13.47839">
        <ele>50.8</ele>
        <time>2021-07-02 15:02:44</time>
      </trkpt>
      <trkpt lat="29.05492" lon="-13.47836">
        <ele>50.6</ele>
        <time>2021-07-02 15:02:45</time>
      </trkpt>
      <trkpt lat="29.05494" lon="-13.47832">
        <ele>50.6</ele>
        <time>2021-07-02 15:02:46</time>
      </trkpt>
      <trkpt lat="29.05496" lon="-13.47829">
        <ele>50.6</ele>
        <time>2021-07-02 15:02:47</time>
      </trkpt>
      <trkpt lat="29.05498" lon="-13.47826">
        <ele>50.6</ele>
        <time>2021-07-02 15:02:48</time>
      </trkpt>
      <trkpt lat="29.055" lon="-13.47823">
        <ele>50.6</ele>
        <time>2021-07-02 15:02:49</time>
      </trkpt>
      <trkpt lat="29.05502" lon="-13.4782">
        <ele>50.6</ele>
        <time>2021-07-02 15:02:50</time>
      </trkpt>
      <trkpt lat="29.05504" lon="-13.47818">
        <ele>50.8</ele>
        <time>2021-07-02 15:02:51</time>
      </trkpt>
      <trkpt lat="29.05507" lon="-13.47816">
        <ele>51</ele>
        <time>2021-07-02 15:02:52</time>
      </trkpt>
      <trkpt lat="29.0551" lon="-13.47814">
        <ele>50.8</ele>
        <time>2021-07-02 15:02:53</time>
      </trkpt>
      <trkpt lat="29.05513" lon="-13.47813">
        <ele>50.4</ele>
        <time>2021-07-02 15:02:54</time>
      </trkpt>
      <trkpt lat="29.05515" lon="-13.47811">
        <ele>50.4</ele>
        <time>2021-07-02 15:02:55</time>
      </trkpt>
      <trkpt lat="29.05518" lon="-13.4781">
        <ele>50.4</ele>
        <time>2021-07-02 15:02:56</time>
      </trkpt>
      <trkpt lat="29.05521" lon="-13.47808">
        <ele>50.6</ele>
        <time>2021-07-02 15:02:57</time>
      </trkpt>
      <trkpt lat="29.05523" lon="-13.47806">
        <ele>50.6</ele>
        <time>2021-07-02 15:02:58</time>
      </trkpt>
      <trkpt lat="29.05525" lon="-13.47803">
        <ele>50.6</ele>
        <time>2021-07-02 15:02:59</time>
      </trkpt>
      <trkpt lat="29.05527" lon="-13.478">
        <ele>50.6</ele>
        <time>2021-07-02 15:03:00</time>
      </trkpt>
      <trkpt lat="29.05528" lon="-13.47797">
        <ele>50.6</ele>
        <time>2021-07-02 15:03:01</time>
      </trkpt>
      <trkpt lat="29.05529" lon="-13.47794">
        <ele>49.8</ele>
        <time>2021-07-02 15:03:02</time>
      </trkpt>
      <trkpt lat="29.0553" lon="-13.47791">
        <ele>50.6</ele>
        <time>2021-07-02 15:03:03</time>
      </trkpt>
      <trkpt lat="29.0553" lon="-13.47787">
        <ele>50.6</ele>
        <time>2021-07-02 15:03:04</time>
      </trkpt>
      <trkpt lat="29.05529" lon="-13.47783">
        <ele>50</ele>
        <time>2021-07-02 15:03:05</time>
      </trkpt>
      <trkpt lat="29.05529" lon="-13.47778">
        <ele>50</ele>
        <time>2021-07-02 15:03:06</time>
      </trkpt>
      <trkpt lat="29.0553" lon="-13.47774">
        <ele>49.8</ele>
        <time>2021-07-02 15:03:07</time>
      </trkpt>
      <trkpt lat="29.05531" lon="-13.4777">
        <ele>50.4</ele>
        <time>2021-07-02 15:03:08</time>
      </trkpt>
      <trkpt lat="29.05534" lon="-13.47767">
        <ele>50</ele>
        <time>2021-07-02 15:03:09</time>
      </trkpt>
      <trkpt lat="29.05537" lon="-13.47764">
        <ele>51.6</ele>
        <time>2021-07-02 15:03:10</time>
      </trkpt>
      <trkpt lat="29.0554" lon="-13.47762">
        <ele>50.4</ele>
        <time>2021-07-02 15:03:11</time>
      </trkpt>
      <trkpt lat="29.05543" lon="-13.4776">
        <ele>49.8</ele>
        <time>2021-07-02 15:03:12</time>
      </trkpt>
      <trkpt lat="29.05545" lon="-13.47757">
        <ele>49</ele>
        <time>2021-07-02 15:03:13</time>
      </trkpt>
      <trkpt lat="29.05548" lon="-13.47753">
        <ele>48.6</ele>
        <time>2021-07-02 15:03:14</time>
      </trkpt>
      <trkpt lat="29.0555" lon="-13.4775">
        <ele>48.6</ele>
        <time>2021-07-02 15:03:15</time>
      </trkpt>
      <trkpt lat="29.05554" lon="-13.47746">
        <ele>48.2</ele>
        <time>2021-07-02 15:03:16</time>
      </trkpt>
      <trkpt lat="29.05556" lon="-13.47742">
        <ele>48</ele>
        <time>2021-07-02 15:03:17</time>
      </trkpt>
      <trkpt lat="29.0556" lon="-13.47739">
        <ele>48</ele>
        <time>2021-07-02 15:03:18</time>
      </trkpt>
      <trkpt lat="29.05562" lon="-13.47737">
        <ele>47.4</ele>
        <time>2021-07-02 15:03:19</time>
      </trkpt>
      <trkpt lat="29.05565" lon="-13.47734">
        <ele>47.4</ele>
        <time>2021-07-02 15:03:20</time>
      </trkpt>
      <trkpt lat="29.05567" lon="-13.4773">
        <ele>47</ele>
        <time>2021-07-02 15:03:21</time>
      </trkpt>
      <trkpt lat="29.05569" lon="-13.47726">
        <ele>46.6</ele>
        <time>2021-07-02 15:03:22</time>
      </trkpt>
      <trkpt lat="29.0557" lon="-13.47723">
        <ele>47.2</ele>
        <time>2021-07-02 15:03:23</time>
      </trkpt>
      <trkpt lat="29.05571" lon="-13.47719">
        <ele>47</ele>
        <time>2021-07-02 15:03:24</time>
      </trkpt>
      <trkpt lat="29.05572" lon="-13.47715">
        <ele>46.8</ele>
        <time>2021-07-02 15:03:25</time>
      </trkpt>
      <trkpt lat="29.05571" lon="-13.47712">
        <ele>46.2</ele>
        <time>2021-07-02 15:03:26</time>
      </trkpt>
      <trkpt lat="29.05572" lon="-13.47708">
        <ele>46.2</ele>
        <time>2021-07-02 15:03:27</time>
      </trkpt>
      <trkpt lat="29.05572" lon="-13.47703">
        <ele>46.2</ele>
        <time>2021-07-02 15:03:28</time>
      </trkpt>
      <trkpt lat="29.05573" lon="-13.47698">
        <ele>45.8</ele>
        <time>2021-07-02 15:03:29</time>
      </trkpt>
      <trkpt lat="29.05574" lon="-13.47694">
        <ele>45.2</ele>
        <time>2021-07-02 15:03:30</time>
      </trkpt>
      <trkpt lat="29.05576" lon="-13.4769">
        <ele>45.2</ele>
        <time>2021-07-02 15:03:31</time>
      </trkpt>
      <trkpt lat="29.05577" lon="-13.47687">
        <ele>44.8</ele>
        <time>2021-07-02 15:03:32</time>
      </trkpt>
      <trkpt lat="29.05579" lon="-13.47683">
        <ele>44.8</ele>
        <time>2021-07-02 15:03:33</time>
      </trkpt>
      <trkpt lat="29.05581" lon="-13.47679">
        <ele>44.6</ele>
        <time>2021-07-02 15:03:34</time>
      </trkpt>
      <trkpt lat="29.05582" lon="-13.47676">
        <ele>44.6</ele>
        <time>2021-07-02 15:03:35</time>
      </trkpt>
      <trkpt lat="29.05584" lon="-13.47672">
        <ele>44.6</ele>
        <time>2021-07-02 15:03:36</time>
      </trkpt>
      <trkpt lat="29.05586" lon="-13.47669">
        <ele>45</ele>
        <time>2021-07-02 15:03:37</time>
      </trkpt>
      <trkpt lat="29.05588" lon="-13.47666">
        <ele>44.6</ele>
        <time>2021-07-02 15:03:38</time>
      </trkpt>
      <trkpt lat="29.0559" lon="-13.47664">
        <ele>44.4</ele>
        <time>2021-07-02 15:03:39</time>
      </trkpt>
      <trkpt lat="29.05592" lon="-13.47662">
        <ele>46.6</ele>
        <time>2021-07-02 15:03:40</time>
      </trkpt>
      <trkpt lat="29.05594" lon="-13.4766">
        <ele>46</ele>
        <time>2021-07-02 15:03:41</time>
      </trkpt>
      <trkpt lat="29.05596" lon="-13.47658">
        <ele>46</ele>
        <time>2021-07-02 15:03:42</time>
      </trkpt>
      <trkpt lat="29.05598" lon="-13.47656">
        <ele>45.6</ele>
        <time>2021-07-02 15:03:43</time>
      </trkpt>
      <trkpt lat="29.056" lon="-13.47654">
        <ele>45.6</ele>
        <time>2021-07-02 15:03:44</time>
      </trkpt>
      <trkpt lat="29.05602" lon="-13.47652">
        <ele>46</ele>
        <time>2021-07-02 15:03:45</time>
      </trkpt>
      <trkpt lat="29.05605" lon="-13.47651">
        <ele>46</ele>
        <time>2021-07-02 15:03:46</time>
      </trkpt>
      <trkpt lat="29.05608" lon="-13.4765">
        <ele>45.6</ele>
        <time>2021-07-02 15:03:47</time>
      </trkpt>
      <trkpt lat="29.05609" lon="-13.47649">
        <ele>45</ele>
        <time>2021-07-02 15:03:48</time>
      </trkpt>
      <trkpt lat="29.05611" lon="-13.47648">
        <ele>45</ele>
        <time>2021-07-02 15:03:49</time>
      </trkpt>
      <trkpt lat="29.05613" lon="-13.47646">
        <ele>45</ele>
        <time>2021-07-02 15:03:50</time>
      </trkpt>
      <trkpt lat="29.05615" lon="-13.47644">
        <ele>45</ele>
        <time>2021-07-02 15:03:51</time>
      </trkpt>
      <trkpt lat="29.05617" lon="-13.47642">
        <ele>45</ele>
        <time>2021-07-02 15:03:52</time>
      </trkpt>
      <trkpt lat="29.05619" lon="-13.4764">
        <ele>45.4</ele>
        <time>2021-07-02 15:03:53</time>
      </trkpt>
      <trkpt lat="29.05621" lon="-13.47638">
        <ele>45.6</ele>
        <time>2021-07-02 15:03:54</time>
      </trkpt>
      <trkpt lat="29.05623" lon="-13.47636">
        <ele>46</ele>
        <time>2021-07-02 15:03:55</time>
      </trkpt>
      <trkpt lat="29.05625" lon="-13.47634">
        <ele>45.8</ele>
        <time>2021-07-02 15:03:56</time>
      </trkpt>
      <trkpt lat="29.05627" lon="-13.47631">
        <ele>45.8</ele>
        <time>2021-07-02 15:03:57</time>
      </trkpt>
      <trkpt lat="29.05629" lon="-13.47628">
        <ele>45.8</ele>
        <time>2021-07-02 15:03:58</time>
      </trkpt>
      <trkpt lat="29.0563" lon="-13.47625">
        <ele>45.8</ele>
        <time>2021-07-02 15:03:59</time>
      </trkpt>
      <trkpt lat="29.05631" lon="-13.47622">
        <ele>45.8</ele>
        <time>2021-07-02 15:04:00</time>
      </trkpt>
      <trkpt lat="29.05632" lon="-13.47619">
        <ele>46.4</ele>
        <time>2021-07-02 15:04:01</time>
      </trkpt>
      <trkpt lat="29.05633" lon="-13.47615">
        <ele>47</ele>
        <time>2021-07-02 15:04:02</time>
      </trkpt>
      <trkpt lat="29.05635" lon="-13.47611">
        <ele>47</ele>
        <time>2021-07-02 15:04:03</time>
      </trkpt>
      <trkpt lat="29.05635" lon="-13.47608">
        <ele>47</ele>
        <time>2021-07-02 15:04:04</time>
      </trkpt>
      <trkpt lat="29.05636" lon="-13.47605">
        <ele>47.6</ele>
        <time>2021-07-02 15:04:05</time>
      </trkpt>
      <trkpt lat="29.05637" lon="-13.47602">
        <ele>47.6</ele>
        <time>2021-07-02 15:04:06</time>
      </trkpt>
      <trkpt lat="29.05638" lon="-13.47598">
        <ele>47</ele>
        <time>2021-07-02 15:04:07</time>
      </trkpt>
      <trkpt lat="29.05639" lon="-13.47595">
        <ele>47</ele>
        <time>2021-07-02 15:04:08</time>
      </trkpt>
      <trkpt lat="29.0564" lon="-13.47592">
        <ele>46.2</ele>
        <time>2021-07-02 15:04:09</time>
      </trkpt>
      <trkpt lat="29.05641" lon="-13.47588">
        <ele>46.2</ele>
        <time>2021-07-02 15:04:10</time>
      </trkpt>
      <trkpt lat="29.05643" lon="-13.47585">
        <ele>45.8</ele>
        <time>2021-07-02 15:04:11</time>
      </trkpt>
      <trkpt lat="29.05644" lon="-13.47581">
        <ele>45.8</ele>
        <time>2021-07-02 15:04:12</time>
      </trkpt>
      <trkpt lat="29.05645" lon="-13.47577">
        <ele>45.8</ele>
        <time>2021-07-02 15:04:13</time>
      </trkpt>
      <trkpt lat="29.05646" lon="-13.47574">
        <ele>45.8</ele>
        <time>2021-07-02 15:04:14</time>
      </trkpt>
      <trkpt lat="29.05648" lon="-13.4757">
        <ele>45.8</ele>
        <time>2021-07-02 15:04:15</time>
      </trkpt>
      <trkpt lat="29.05649" lon="-13.47567">
        <ele>46</ele>
        <time>2021-07-02 15:04:16</time>
      </trkpt>
      <trkpt lat="29.0565" lon="-13.47565">
        <ele>46</ele>
        <time>2021-07-02 15:04:17</time>
      </trkpt>
      <trkpt lat="29.05651" lon="-13.47561">
        <ele>46</ele>
        <time>2021-07-02 15:04:18</time>
      </trkpt>
      <trkpt lat="29.05652" lon="-13.47559">
        <ele>46.6</ele>
        <time>2021-07-02 15:04:19</time>
      </trkpt>
      <trkpt lat="29.05654" lon="-13.47555">
        <ele>47</ele>
        <time>2021-07-02 15:04:20</time>
      </trkpt>
      <trkpt lat="29.05655" lon="-13.47552">
        <ele>46.6</ele>
        <time>2021-07-02 15:04:21</time>
      </trkpt>
      <trkpt lat="29.05656" lon="-13.47549">
        <ele>47.4</ele>
        <time>2021-07-02 15:04:22</time>
      </trkpt>
      <trkpt lat="29.05658" lon="-13.47546">
        <ele>47.4</ele>
        <time>2021-07-02 15:04:23</time>
      </trkpt>
      <trkpt lat="29.05659" lon="-13.47543">
        <ele>47.2</ele>
        <time>2021-07-02 15:04:24</time>
      </trkpt>
      <trkpt lat="29.05661" lon="-13.4754">
        <ele>46.6</ele>
        <time>2021-07-02 15:04:25</time>
      </trkpt>
      <trkpt lat="29.05662" lon="-13.47537">
        <ele>46.6</ele>
        <time>2021-07-02 15:04:26</time>
      </trkpt>
      <trkpt lat="29.05664" lon="-13.47534">
        <ele>46.2</ele>
        <time>2021-07-02 15:04:27</time>
      </trkpt>
      <trkpt lat="29.05665" lon="-13.47531">
        <ele>46.2</ele>
        <time>2021-07-02 15:04:28</time>
      </trkpt>
      <trkpt lat="29.05666" lon="-13.47527">
        <ele>46.2</ele>
        <time>2021-07-02 15:04:29</time>
      </trkpt>
      <trkpt lat="29.05667" lon="-13.47524">
        <ele>47</ele>
        <time>2021-07-02 15:04:30</time>
      </trkpt>
      <trkpt lat="29.05668" lon="-13.47522">
        <ele>47</ele>
        <time>2021-07-02 15:04:31</time>
      </trkpt>
      <trkpt lat="29.05669" lon="-13.47519">
        <ele>47</ele>
        <time>2021-07-02 15:04:32</time>
      </trkpt>
      <trkpt lat="29.0567" lon="-13.47517">
        <ele>46.2</ele>
        <time>2021-07-02 15:04:33</time>
      </trkpt>
      <trkpt lat="29.05671" lon="-13.47514">
        <ele>46</ele>
        <time>2021-07-02 15:04:34</time>
      </trkpt>
      <trkpt lat="29.05672" lon="-13.47512">
        <ele>45.8</ele>
        <time>2021-07-02 15:04:35</time>
      </trkpt>
      <trkpt lat="29.05673" lon="-13.47509">
        <ele>45.8</ele>
        <time>2021-07-02 15:04:36</time>
      </trkpt>
      <trkpt lat="29.05674" lon="-13.47506">
        <ele>46</ele>
        <time>2021-07-02 15:04:37</time>
      </trkpt>
      <trkpt lat="29.05675" lon="-13.47503">
        <ele>46.8</ele>
        <time>2021-07-02 15:04:38</time>
      </trkpt>
      <trkpt lat="29.05677" lon="-13.47501">
        <ele>46.2</ele>
        <time>2021-07-02 15:04:39</time>
      </trkpt>
      <trkpt lat="29.05678" lon="-13.47498">
        <ele>45.6</ele>
        <time>2021-07-02 15:04:40</time>
      </trkpt>
      <trkpt lat="29.05679" lon="-13.47495">
        <ele>45.2</ele>
        <time>2021-07-02 15:04:41</time>
      </trkpt>
      <trkpt lat="29.0568" lon="-13.47492">
        <ele>44.8</ele>
        <time>2021-07-02 15:04:42</time>
      </trkpt>
      <trkpt lat="29.05682" lon="-13.47489">
        <ele>45.8</ele>
        <time>2021-07-02 15:04:43</time>
      </trkpt>
      <trkpt lat="29.05683" lon="-13.47486">
        <ele>47</ele>
        <time>2021-07-02 15:04:44</time>
      </trkpt>
      <trkpt lat="29.05684" lon="-13.47484">
        <ele>46.6</ele>
        <time>2021-07-02 15:04:45</time>
      </trkpt>
      <trkpt lat="29.05685" lon="-13.47481">
        <ele>46</ele>
        <time>2021-07-02 15:04:46</time>
      </trkpt>
      <trkpt lat="29.05686" lon="-13.47478">
        <ele>45.6</ele>
        <time>2021-07-02 15:04:47</time>
      </trkpt>
      <trkpt lat="29.05687" lon="-13.47474">
        <ele>45.6</ele>
        <time>2021-07-02 15:04:48</time>
      </trkpt>
      <trkpt lat="29.05688" lon="-13.47471">
        <ele>45.2</ele>
        <time>2021-07-02 15:04:49</time>
      </trkpt>
      <trkpt lat="29.05689" lon="-13.47468">
        <ele>45.2</ele>
        <time>2021-07-02 15:04:50</time>
      </trkpt>
      <trkpt lat="29.0569" lon="-13.47464">
        <ele>45.2</ele>
        <time>2021-07-02 15:04:51</time>
      </trkpt>
      <trkpt lat="29.05691" lon="-13.47461">
        <ele>45.2</ele>
        <time>2021-07-02 15:04:52</time>
      </trkpt>
      <trkpt lat="29.05692" lon="-13.47457">
        <ele>44.8</ele>
        <time>2021-07-02 15:04:53</time>
      </trkpt>
      <trkpt lat="29.05694" lon="-13.47454">
        <ele>44.8</ele>
        <time>2021-07-02 15:04:54</time>
      </trkpt>
      <trkpt lat="29.05695" lon="-13.4745">
        <ele>44.8</ele>
        <time>2021-07-02 15:04:55</time>
      </trkpt>
      <trkpt lat="29.05696" lon="-13.47447">
        <ele>44.8</ele>
        <time>2021-07-02 15:04:56</time>
      </trkpt>
      <trkpt lat="29.05697" lon="-13.47443">
        <ele>44.8</ele>
        <time>2021-07-02 15:04:57</time>
      </trkpt>
      <trkpt lat="29.05698" lon="-13.47439">
        <ele>45</ele>
        <time>2021-07-02 15:04:58</time>
      </trkpt>
      <trkpt lat="29.05699" lon="-13.47435">
        <ele>44.4</ele>
        <time>2021-07-02 15:04:59</time>
      </trkpt>
      <trkpt lat="29.057" lon="-13.47432">
        <ele>44.2</ele>
        <time>2021-07-02 15:05:00</time>
      </trkpt>
      <trkpt lat="29.05701" lon="-13.47428">
        <ele>46</ele>
        <time>2021-07-02 15:05:01</time>
      </trkpt>
      <trkpt lat="29.05701" lon="-13.47424">
        <ele>45.4</ele>
        <time>2021-07-02 15:05:02</time>
      </trkpt>
      <trkpt lat="29.05701" lon="-13.4742">
        <ele>45</ele>
        <time>2021-07-02 15:05:03</time>
      </trkpt>
      <trkpt lat="29.05702" lon="-13.47417">
        <ele>44.8</ele>
        <time>2021-07-02 15:05:04</time>
      </trkpt>
      <trkpt lat="29.05703" lon="-13.47413">
        <ele>44.8</ele>
        <time>2021-07-02 15:05:05</time>
      </trkpt>
      <trkpt lat="29.05704" lon="-13.47409">
        <ele>44.6</ele>
        <time>2021-07-02 15:05:06</time>
      </trkpt>
      <trkpt lat="29.05705" lon="-13.47406">
        <ele>44.6</ele>
        <time>2021-07-02 15:05:07</time>
      </trkpt>
      <trkpt lat="29.05707" lon="-13.47402">
        <ele>44.2</ele>
        <time>2021-07-02 15:05:08</time>
      </trkpt>
      <trkpt lat="29.05708" lon="-13.47399">
        <ele>44.6</ele>
        <time>2021-07-02 15:05:09</time>
      </trkpt>
      <trkpt lat="29.0571" lon="-13.47396">
        <ele>44.6</ele>
        <time>2021-07-02 15:05:10</time>
      </trkpt>
      <trkpt lat="29.05712" lon="-13.47393">
        <ele>44.6</ele>
        <time>2021-07-02 15:05:11</time>
      </trkpt>
      <trkpt lat="29.05714" lon="-13.47389">
        <ele>44.6</ele>
        <time>2021-07-02 15:05:12</time>
      </trkpt>
      <trkpt lat="29.05716" lon="-13.47387">
        <ele>45.4</ele>
        <time>2021-07-02 15:05:13</time>
      </trkpt>
      <trkpt lat="29.05717" lon="-13.47384">
        <ele>45</ele>
        <time>2021-07-02 15:05:14</time>
      </trkpt>
      <trkpt lat="29.05718" lon="-13.4738">
        <ele>44.4</ele>
        <time>2021-07-02 15:05:15</time>
      </trkpt>
      <trkpt lat="29.05719" lon="-13.47377">
        <ele>44.8</ele>
        <time>2021-07-02 15:05:16</time>
      </trkpt>
      <trkpt lat="29.0572" lon="-13.47374">
        <ele>44.8</ele>
        <time>2021-07-02 15:05:17</time>
      </trkpt>
      <trkpt lat="29.05721" lon="-13.4737">
        <ele>45.2</ele>
        <time>2021-07-02 15:05:18</time>
      </trkpt>
      <trkpt lat="29.05722" lon="-13.47367">
        <ele>44.4</ele>
        <time>2021-07-02 15:05:19</time>
      </trkpt>
      <trkpt lat="29.05723" lon="-13.47364">
        <ele>43.8</ele>
        <time>2021-07-02 15:05:20</time>
      </trkpt>
      <trkpt lat="29.05724" lon="-13.4736">
        <ele>43.4</ele>
        <time>2021-07-02 15:05:21</time>
      </trkpt>
      <trkpt lat="29.05725" lon="-13.47357">
        <ele>42.8</ele>
        <time>2021-07-02 15:05:22</time>
      </trkpt>
      <trkpt lat="29.05726" lon="-13.47354">
        <ele>42.8</ele>
        <time>2021-07-02 15:05:23</time>
      </trkpt>
      <trkpt lat="29.05727" lon="-13.47351">
        <ele>42.8</ele>
        <time>2021-07-02 15:05:24</time>
      </trkpt>
      <trkpt lat="29.05728" lon="-13.47348">
        <ele>42.6</ele>
        <time>2021-07-02 15:05:25</time>
      </trkpt>
      <trkpt lat="29.0573" lon="-13.47344">
        <ele>42.2</ele>
        <time>2021-07-02 15:05:26</time>
      </trkpt>
      <trkpt lat="29.05731" lon="-13.47341">
        <ele>42.2</ele>
        <time>2021-07-02 15:05:27</time>
      </trkpt>
      <trkpt lat="29.05732" lon="-13.47337">
        <ele>42.2</ele>
        <time>2021-07-02 15:05:28</time>
      </trkpt>
      <trkpt lat="29.05733" lon="-13.47334">
        <ele>42.2</ele>
        <time>2021-07-02 15:05:29</time>
      </trkpt>
      <trkpt lat="29.05734" lon="-13.47331">
        <ele>42.2</ele>
        <time>2021-07-02 15:05:30</time>
      </trkpt>
      <trkpt lat="29.05735" lon="-13.47327">
        <ele>42.2</ele>
        <time>2021-07-02 15:05:31</time>
      </trkpt>
      <trkpt lat="29.05737" lon="-13.47324">
        <ele>42.2</ele>
        <time>2021-07-02 15:05:32</time>
      </trkpt>
      <trkpt lat="29.05738" lon="-13.4732">
        <ele>42.2</ele>
        <time>2021-07-02 15:05:33</time>
      </trkpt>
      <trkpt lat="29.05739" lon="-13.47317">
        <ele>42.2</ele>
        <time>2021-07-02 15:05:34</time>
      </trkpt>
      <trkpt lat="29.05741" lon="-13.47313">
        <ele>42.2</ele>
        <time>2021-07-02 15:05:35</time>
      </trkpt>
      <trkpt lat="29.05742" lon="-13.47311">
        <ele>42.2</ele>
        <time>2021-07-02 15:05:36</time>
      </trkpt>
      <trkpt lat="29.05742" lon="-13.4731">
        <ele>42.2</ele>
        <time>2021-07-02 15:05:37</time>
      </trkpt>
      <trkpt lat="29.05742" lon="-13.4731">
        <ele>42.2</ele>
        <time>2021-07-02 15:05:38</time>
      </trkpt>
      <trkpt lat="29.05742" lon="-13.4731">
        <ele>42</ele>
        <time>2021-07-02 15:05:39</time>
      </trkpt>
      <trkpt lat="29.05741" lon="-13.47311">
        <ele>42</ele>
        <time>2021-07-02 15:05:40</time>
      </trkpt>
      <trkpt lat="29.05742" lon="-13.47309">
        <ele>41.2</ele>
        <time>2021-07-02 15:05:41</time>
      </trkpt>
      <trkpt lat="29.05743" lon="-13.47308">
        <ele>41.2</ele>
        <time>2021-07-02 15:05:42</time>
      </trkpt>
      <trkpt lat="29.05743" lon="-13.47308">
        <ele>41.2</ele>
        <time>2021-07-02 15:05:43</time>
      </trkpt>
      <trkpt lat="29.05743" lon="-13.47307">
        <ele>41.2</ele>
        <time>2021-07-02 15:05:44</time>
      </trkpt>
      <trkpt lat="29.05744" lon="-13.47307">
        <ele>41.2</ele>
        <time>2021-07-02 15:05:45</time>
      </trkpt>
      <trkpt lat="29.05744" lon="-13.47304">
        <ele>40.2</ele>
        <time>2021-07-02 15:05:46</time>
      </trkpt>
      <trkpt lat="29.05745" lon="-13.47302">
        <ele>40.6</ele>
        <time>2021-07-02 15:05:47</time>
      </trkpt>
      <trkpt lat="29.05746" lon="-13.47301">
        <ele>40.8</ele>
        <time>2021-07-02 15:05:48</time>
      </trkpt>
      <trkpt lat="29.05747" lon="-13.47299">
        <ele>40.8</ele>
        <time>2021-07-02 15:05:49</time>
      </trkpt>
      <trkpt lat="29.05749" lon="-13.47297">
        <ele>40.8</ele>
        <time>2021-07-02 15:05:50</time>
      </trkpt>
      <trkpt lat="29.05751" lon="-13.47295">
        <ele>41</ele>
        <time>2021-07-02 15:05:51</time>
      </trkpt>
      <trkpt lat="29.05752" lon="-13.47293">
        <ele>41</ele>
        <time>2021-07-02 15:05:52</time>
      </trkpt>
      <trkpt lat="29.05754" lon="-13.47291">
        <ele>41.4</ele>
        <time>2021-07-02 15:05:53</time>
      </trkpt>
      <trkpt lat="29.05755" lon="-13.47289">
        <ele>41.4</ele>
        <time>2021-07-02 15:05:54</time>
      </trkpt>
      <trkpt lat="29.05757" lon="-13.47286">
        <ele>41.4</ele>
        <time>2021-07-02 15:05:55</time>
      </trkpt>
      <trkpt lat="29.05758" lon="-13.47283">
        <ele>43</ele>
        <time>2021-07-02 15:05:56</time>
      </trkpt>
      <trkpt lat="29.05759" lon="-13.4728">
        <ele>42.4</ele>
        <time>2021-07-02 15:05:57</time>
      </trkpt>
      <trkpt lat="29.05761" lon="-13.47277">
        <ele>42.4</ele>
        <time>2021-07-02 15:05:58</time>
      </trkpt>
      <trkpt lat="29.05762" lon="-13.47273">
        <ele>42.4</ele>
        <time>2021-07-02 15:05:59</time>
      </trkpt>
      <trkpt lat="29.05763" lon="-13.4727">
        <ele>42.4</ele>
        <time>2021-07-02 15:06:00</time>
      </trkpt>
      <trkpt lat="29.05765" lon="-13.47265">
        <ele>42</ele>
        <time>2021-07-02 15:06:01</time>
      </trkpt>
      <trkpt lat="29.05765" lon="-13.47261">
        <ele>42</ele>
        <time>2021-07-02 15:06:02</time>
      </trkpt>
      <trkpt lat="29.05766" lon="-13.47257">
        <ele>41.6</ele>
        <time>2021-07-02 15:06:03</time>
      </trkpt>
      <trkpt lat="29.05767" lon="-13.47254">
        <ele>41.2</ele>
        <time>2021-07-02 15:06:04</time>
      </trkpt>
      <trkpt lat="29.05767" lon="-13.47252">
        <ele>41.2</ele>
        <time>2021-07-02 15:06:05</time>
      </trkpt>
      <trkpt lat="29.05768" lon="-13.47249">
        <ele>41.2</ele>
        <time>2021-07-02 15:06:06</time>
      </trkpt>
      <trkpt lat="29.05769" lon="-13.47246">
        <ele>40.6</ele>
        <time>2021-07-02 15:06:07</time>
      </trkpt>
      <trkpt lat="29.0577" lon="-13.47243">
        <ele>40.4</ele>
        <time>2021-07-02 15:06:08</time>
      </trkpt>
      <trkpt lat="29.05771" lon="-13.47239">
        <ele>40.4</ele>
        <time>2021-07-02 15:06:09</time>
      </trkpt>
      <trkpt lat="29.05771" lon="-13.47236">
        <ele>41</ele>
        <time>2021-07-02 15:06:10</time>
      </trkpt>
      <trkpt lat="29.05772" lon="-13.47232">
        <ele>40.8</ele>
        <time>2021-07-02 15:06:11</time>
      </trkpt>
      <trkpt lat="29.05773" lon="-13.47229">
        <ele>40.8</ele>
        <time>2021-07-02 15:06:12</time>
      </trkpt>
      <trkpt lat="29.05773" lon="-13.47225">
        <ele>40.8</ele>
        <time>2021-07-02 15:06:13</time>
      </trkpt>
      <trkpt lat="29.05774" lon="-13.47222">
        <ele>40.8</ele>
        <time>2021-07-02 15:06:14</time>
      </trkpt>
      <trkpt lat="29.05775" lon="-13.47218">
        <ele>40.8</ele>
        <time>2021-07-02 15:06:15</time>
      </trkpt>
      <trkpt lat="29.05776" lon="-13.47214">
        <ele>40.8</ele>
        <time>2021-07-02 15:06:16</time>
      </trkpt>
      <trkpt lat="29.05777" lon="-13.47211">
        <ele>40.8</ele>
        <time>2021-07-02 15:06:17</time>
      </trkpt>
      <trkpt lat="29.05779" lon="-13.47207">
        <ele>40.8</ele>
        <time>2021-07-02 15:06:18</time>
      </trkpt>
      <trkpt lat="29.05781" lon="-13.47203">
        <ele>41</ele>
        <time>2021-07-02 15:06:19</time>
      </trkpt>
      <trkpt lat="29.05783" lon="-13.472">
        <ele>41</ele>
        <time>2021-07-02 15:06:20</time>
      </trkpt>
      <trkpt lat="29.05785" lon="-13.47197">
        <ele>41</ele>
        <time>2021-07-02 15:06:21</time>
      </trkpt>
      <trkpt lat="29.05787" lon="-13.47194">
        <ele>41</ele>
        <time>2021-07-02 15:06:22</time>
      </trkpt>
      <trkpt lat="29.05789" lon="-13.47192">
        <ele>40.4</ele>
        <time>2021-07-02 15:06:23</time>
      </trkpt>
      <trkpt lat="29.05792" lon="-13.47189">
        <ele>40.2</ele>
        <time>2021-07-02 15:06:24</time>
      </trkpt>
      <trkpt lat="29.05794" lon="-13.47187">
        <ele>40.2</ele>
        <time>2021-07-02 15:06:25</time>
      </trkpt>
      <trkpt lat="29.05796" lon="-13.47184">
        <ele>39.8</ele>
        <time>2021-07-02 15:06:26</time>
      </trkpt>
      <trkpt lat="29.05798" lon="-13.47182">
        <ele>39.8</ele>
        <time>2021-07-02 15:06:27</time>
      </trkpt>
      <trkpt lat="29.058" lon="-13.47179">
        <ele>39.8</ele>
        <time>2021-07-02 15:06:28</time>
      </trkpt>
      <trkpt lat="29.05802" lon="-13.47177">
        <ele>39.6</ele>
        <time>2021-07-02 15:06:29</time>
      </trkpt>
      <trkpt lat="29.05804" lon="-13.47174">
        <ele>39.6</ele>
        <time>2021-07-02 15:06:49</time>
      </trkpt>
      <trkpt lat="29.05806" lon="-13.47172">
        <ele>39.4</ele>
        <time>2021-07-02 15:06:50</time>
      </trkpt>
      <trkpt lat="29.05808" lon="-13.47169">
        <ele>39.4</ele>
        <time>2021-07-02 15:06:51</time>
      </trkpt>
      <trkpt lat="29.0581" lon="-13.47167">
        <ele>39.4</ele>
        <time>2021-07-02 15:06:52</time>
      </trkpt>
      <trkpt lat="29.05812" lon="-13.47164">
        <ele>40.2</ele>
        <time>2021-07-02 15:06:53</time>
      </trkpt>
      <trkpt lat="29.05813" lon="-13.47161">
        <ele>39.8</ele>
        <time>2021-07-02 15:06:54</time>
      </trkpt>
      <trkpt lat="29.05815" lon="-13.47159">
        <ele>39.8</ele>
        <time>2021-07-02 15:08:45</time>
      </trkpt>
      <trkpt lat="29.05816" lon="-13.47157">
        <ele>39.8</ele>
        <time>2021-07-02 15:08:46</time>
      </trkpt>
      <trkpt lat="29.05818" lon="-13.47155">
        <ele>39.4</ele>
        <time>2021-07-02 15:08:47</time>
      </trkpt>
      <trkpt lat="29.0582" lon="-13.47152">
        <ele>40.4</ele>
        <time>2021-07-02 15:08:48</time>
      </trkpt>
      <trkpt lat="29.05821" lon="-13.4715">
        <ele>40</ele>
        <time>2021-07-02 15:08:49</time>
      </trkpt>
      <trkpt lat="29.05822" lon="-13.47147">
        <ele>40</ele>
        <time>2021-07-02 15:08:50</time>
      </trkpt>
      <trkpt lat="29.05824" lon="-13.47145">
        <ele>39.4</ele>
        <time>2021-07-02 15:08:51</time>
      </trkpt>
      <trkpt lat="29.05825" lon="-13.47143">
        <ele>39.2</ele>
        <time>2021-07-02 15:08:52</time>
      </trkpt>
      <trkpt lat="29.05827" lon="-13.47141">
        <ele>39.2</ele>
        <time>2021-07-02 15:08:53</time>
      </trkpt>
      <trkpt lat="29.05829" lon="-13.47138">
        <ele>39.2</ele>
        <time>2021-07-02 15:08:54</time>
      </trkpt>
      <trkpt lat="29.05831" lon="-13.47135">
        <ele>38.6</ele>
        <time>2021-07-02 15:08:55</time>
      </trkpt>
      <trkpt lat="29.05832" lon="-13.47132">
        <ele>38.4</ele>
        <time>2021-07-02 15:08:56</time>
      </trkpt>
      <trkpt lat="29.05834" lon="-13.47129">
        <ele>38.2</ele>
        <time>2021-07-02 15:08:57</time>
      </trkpt>
      <trkpt lat="29.05836" lon="-13.47126">
        <ele>38.2</ele>
        <time>2021-07-02 15:08:58</time>
      </trkpt>
      <trkpt lat="29.05838" lon="-13.47123">
        <ele>38.2</ele>
        <time>2021-07-02 15:08:59</time>
      </trkpt>
      <trkpt lat="29.05839" lon="-13.4712">
        <ele>38.2</ele>
        <time>2021-07-02 15:09:00</time>
      </trkpt>
      <trkpt lat="29.05841" lon="-13.47118">
        <ele>38.2</ele>
        <time>2021-07-02 15:09:01</time>
      </trkpt>
      <trkpt lat="29.05843" lon="-13.47115">
        <ele>38.2</ele>
        <time>2021-07-02 15:09:02</time>
      </trkpt>
      <trkpt lat="29.05845" lon="-13.47112">
        <ele>38.2</ele>
        <time>2021-07-02 15:09:03</time>
      </trkpt>
      <trkpt lat="29.05847" lon="-13.47109">
        <ele>38.2</ele>
        <time>2021-07-02 15:09:04</time>
      </trkpt>
      <trkpt lat="29.05849" lon="-13.47107">
        <ele>38</ele>
        <time>2021-07-02 15:09:05</time>
      </trkpt>
      <trkpt lat="29.05851" lon="-13.47105">
        <ele>37.6</ele>
        <time>2021-07-02 15:09:06</time>
      </trkpt>
      <trkpt lat="29.05852" lon="-13.47103">
        <ele>37.6</ele>
        <time>2021-07-02 15:09:07</time>
      </trkpt>
      <trkpt lat="29.05853" lon="-13.471">
        <ele>37.4</ele>
        <time>2021-07-02 15:09:08</time>
      </trkpt>
      <trkpt lat="29.05854" lon="-13.47098">
        <ele>37.4</ele>
        <time>2021-07-02 15:09:09</time>
      </trkpt>
      <trkpt lat="29.05856" lon="-13.47095">
        <ele>37.4</ele>
        <time>2021-07-02 15:09:10</time>
      </trkpt>
      <trkpt lat="29.05857" lon="-13.47093">
        <ele>37.4</ele>
        <time>2021-07-02 15:09:11</time>
      </trkpt>
      <trkpt lat="29.05859" lon="-13.4709">
        <ele>37.4</ele>
        <time>2021-07-02 15:09:12</time>
      </trkpt>
      <trkpt lat="29.0586" lon="-13.47086">
        <ele>37.4</ele>
        <time>2021-07-02 15:09:13</time>
      </trkpt>
      <trkpt lat="29.05861" lon="-13.47083">
        <ele>37.4</ele>
        <time>2021-07-02 15:09:14</time>
      </trkpt>
      <trkpt lat="29.05862" lon="-13.4708">
        <ele>37.6</ele>
        <time>2021-07-02 15:09:15</time>
      </trkpt>
      <trkpt lat="29.05863" lon="-13.47077">
        <ele>37.6</ele>
        <time>2021-07-02 15:09:16</time>
      </trkpt>
      <trkpt lat="29.05864" lon="-13.47073">
        <ele>38</ele>
        <time>2021-07-02 15:09:17</time>
      </trkpt>
      <trkpt lat="29.05865" lon="-13.47069">
        <ele>38</ele>
        <time>2021-07-02 15:09:18</time>
      </trkpt>
      <trkpt lat="29.05866" lon="-13.47066">
        <ele>38.2</ele>
        <time>2021-07-02 15:09:19</time>
      </trkpt>
      <trkpt lat="29.05867" lon="-13.47061">
        <ele>38.2</ele>
        <time>2021-07-02 15:09:20</time>
      </trkpt>
      <trkpt lat="29.05868" lon="-13.47056">
        <ele>38.8</ele>
        <time>2021-07-02 15:09:21</time>
      </trkpt>
      <trkpt lat="29.05868" lon="-13.47052">
        <ele>38</ele>
        <time>2021-07-02 15:09:22</time>
      </trkpt>
      <trkpt lat="29.05869" lon="-13.47048">
        <ele>37.6</ele>
        <time>2021-07-02 15:09:23</time>
      </trkpt>
      <trkpt lat="29.0587" lon="-13.47043">
        <ele>37</ele>
        <time>2021-07-02 15:09:24</time>
      </trkpt>
      <trkpt lat="29.05872" lon="-13.47038">
        <ele>37</ele>
        <time>2021-07-02 15:09:25</time>
      </trkpt>
      <trkpt lat="29.05873" lon="-13.47033">
        <ele>36.4</ele>
        <time>2021-07-02 15:09:26</time>
      </trkpt>
      <trkpt lat="29.05876" lon="-13.47028">
        <ele>35.6</ele>
        <time>2021-07-02 15:09:27</time>
      </trkpt>
      <trkpt lat="29.05878" lon="-13.47023">
        <ele>35.2</ele>
        <time>2021-07-02 15:09:28</time>
      </trkpt>
      <trkpt lat="29.05881" lon="-13.47018">
        <ele>34.8</ele>
        <time>2021-07-02 15:09:29</time>
      </trkpt>
      <trkpt lat="29.05883" lon="-13.47013">
        <ele>34.2</ele>
        <time>2021-07-02 15:09:30</time>
      </trkpt>
      <trkpt lat="29.05886" lon="-13.47008">
        <ele>33.8</ele>
        <time>2021-07-02 15:09:31</time>
      </trkpt>
      <trkpt lat="29.05889" lon="-13.47003">
        <ele>33.2</ele>
        <time>2021-07-02 15:09:32</time>
      </trkpt>
      <trkpt lat="29.05891" lon="-13.46999">
        <ele>33</ele>
        <time>2021-07-02 15:09:33</time>
      </trkpt>
      <trkpt lat="29.05894" lon="-13.46995">
        <ele>32.6</ele>
        <time>2021-07-02 15:09:34</time>
      </trkpt>
      <trkpt lat="29.05896" lon="-13.46991">
        <ele>32.4</ele>
        <time>2021-07-02 15:09:35</time>
      </trkpt>
      <trkpt lat="29.05898" lon="-13.46987">
        <ele>32</ele>
        <time>2021-07-02 15:09:36</time>
      </trkpt>
      <trkpt lat="29.05899" lon="-13.46982">
        <ele>32</ele>
        <time>2021-07-02 15:09:37</time>
      </trkpt>
      <trkpt lat="29.059" lon="-13.46978">
        <ele>31.6</ele>
        <time>2021-07-02 15:09:38</time>
      </trkpt>
      <trkpt lat="29.05901" lon="-13.46974">
        <ele>31.6</ele>
        <time>2021-07-02 15:09:39</time>
      </trkpt>
      <trkpt lat="29.05901" lon="-13.46969">
        <ele>31.4</ele>
        <time>2021-07-02 15:09:40</time>
      </trkpt>
      <trkpt lat="29.05901" lon="-13.46964">
        <ele>31.2</ele>
        <time>2021-07-02 15:09:41</time>
      </trkpt>
      <trkpt lat="29.05902" lon="-13.4696">
        <ele>31</ele>
        <time>2021-07-02 15:09:42</time>
      </trkpt>
      <trkpt lat="29.05903" lon="-13.46955">
        <ele>31</ele>
        <time>2021-07-02 15:09:43</time>
      </trkpt>
      <trkpt lat="29.05905" lon="-13.46951">
        <ele>30.6</ele>
        <time>2021-07-02 15:09:44</time>
      </trkpt>
      <trkpt lat="29.05907" lon="-13.46947">
        <ele>30.6</ele>
        <time>2021-07-02 15:09:45</time>
      </trkpt>
      <trkpt lat="29.05911" lon="-13.46943">
        <ele>30.2</ele>
        <time>2021-07-02 15:09:46</time>
      </trkpt>
      <trkpt lat="29.05914" lon="-13.4694">
        <ele>30.2</ele>
        <time>2021-07-02 15:09:47</time>
      </trkpt>
      <trkpt lat="29.05918" lon="-13.46937">
        <ele>30.2</ele>
        <time>2021-07-02 15:09:48</time>
      </trkpt>
      <trkpt lat="29.05922" lon="-13.46935">
        <ele>30</ele>
        <time>2021-07-02 15:09:49</time>
      </trkpt>
      <trkpt lat="29.05927" lon="-13.46933">
        <ele>29.6</ele>
        <time>2021-07-02 15:09:50</time>
      </trkpt>
      <trkpt lat="29.05932" lon="-13.46933">
        <ele>29.2</ele>
        <time>2021-07-02 15:09:51</time>
      </trkpt>
      <trkpt lat="29.05937" lon="-13.46933">
        <ele>28.6</ele>
        <time>2021-07-02 15:09:52</time>
      </trkpt>
      <trkpt lat="29.05941" lon="-13.46933">
        <ele>27.8</ele>
        <time>2021-07-02 15:09:53</time>
      </trkpt>
      <trkpt lat="29.05946" lon="-13.46933">
        <ele>27</ele>
        <time>2021-07-02 15:09:54</time>
      </trkpt>
      <trkpt lat="29.05951" lon="-13.46933">
        <ele>26.2</ele>
        <time>2021-07-02 15:09:55</time>
      </trkpt>
      <trkpt lat="29.05955" lon="-13.46933">
        <ele>25.6</ele>
        <time>2021-07-02 15:09:56</time>
      </trkpt>
      <trkpt lat="29.05959" lon="-13.46932">
        <ele>25.2</ele>
        <time>2021-07-02 15:09:57</time>
      </trkpt>
      <trkpt lat="29.05962" lon="-13.46932">
        <ele>24.4</ele>
        <time>2021-07-02 15:09:58</time>
      </trkpt>
      <trkpt lat="29.05965" lon="-13.46931">
        <ele>24</ele>
        <time>2021-07-02 15:09:59</time>
      </trkpt>
      <trkpt lat="29.05967" lon="-13.46929">
        <ele>23.4</ele>
        <time>2021-07-02 15:10:00</time>
      </trkpt>
      <trkpt lat="29.0597" lon="-13.46926">
        <ele>23</ele>
        <time>2021-07-02 15:10:01</time>
      </trkpt>
      <trkpt lat="29.05973" lon="-13.46924">
        <ele>22.6</ele>
        <time>2021-07-02 15:10:02</time>
      </trkpt>
      <trkpt lat="29.05976" lon="-13.46921">
        <ele>22.4</ele>
        <time>2021-07-02 15:10:03</time>
      </trkpt>
      <trkpt lat="29.05978" lon="-13.46917">
        <ele>22</ele>
        <time>2021-07-02 15:10:04</time>
      </trkpt>
      <trkpt lat="29.0598" lon="-13.46913">
        <ele>21.8</ele>
        <time>2021-07-02 15:10:05</time>
      </trkpt>
      <trkpt lat="29.05982" lon="-13.46909">
        <ele>21.6</ele>
        <time>2021-07-02 15:10:06</time>
      </trkpt>
      <trkpt lat="29.05984" lon="-13.46905">
        <ele>21.4</ele>
        <time>2021-07-02 15:10:07</time>
      </trkpt>
      <trkpt lat="29.05986" lon="-13.46901">
        <ele>21.2</ele>
        <time>2021-07-02 15:10:08</time>
      </trkpt>
      <trkpt lat="29.05987" lon="-13.46899">
        <ele>20.8</ele>
        <time>2021-07-02 15:10:09</time>
      </trkpt>
      <trkpt lat="29.05989" lon="-13.46895">
        <ele>20.6</ele>
        <time>2021-07-02 15:10:10</time>
      </trkpt>
      <trkpt lat="29.05992" lon="-13.46892">
        <ele>20.6</ele>
        <time>2021-07-02 15:10:11</time>
      </trkpt>
      <trkpt lat="29.05995" lon="-13.46888">
        <ele>20.2</ele>
        <time>2021-07-02 15:10:12</time>
      </trkpt>
      <trkpt lat="29.05998" lon="-13.46885">
        <ele>20.8</ele>
        <time>2021-07-02 15:10:13</time>
      </trkpt>
      <trkpt lat="29.06001" lon="-13.46882">
        <ele>20.8</ele>
        <time>2021-07-02 15:10:14</time>
      </trkpt>
      <trkpt lat="29.06004" lon="-13.4688">
        <ele>20.2</ele>
        <time>2021-07-02 15:10:15</time>
      </trkpt>
      <trkpt lat="29.06007" lon="-13.46878">
        <ele>19.6</ele>
        <time>2021-07-02 15:10:16</time>
      </trkpt>
      <trkpt lat="29.0601" lon="-13.46875">
        <ele>19.6</ele>
        <time>2021-07-02 15:10:17</time>
      </trkpt>
      <trkpt lat="29.06013" lon="-13.46873">
        <ele>19.2</ele>
        <time>2021-07-02 15:10:18</time>
      </trkpt>
      <trkpt lat="29.06016" lon="-13.46871">
        <ele>19.2</ele>
        <time>2021-07-02 15:10:19</time>
      </trkpt>
      <trkpt lat="29.0602" lon="-13.46868">
        <ele>19</ele>
        <time>2021-07-02 15:10:20</time>
      </trkpt>
      <trkpt lat="29.06022" lon="-13.46865">
        <ele>19</ele>
        <time>2021-07-02 15:10:21</time>
      </trkpt>
      <trkpt lat="29.06025" lon="-13.46861">
        <ele>19</ele>
        <time>2021-07-02 15:10:22</time>
      </trkpt>
      <trkpt lat="29.06027" lon="-13.46857">
        <ele>18.6</ele>
        <time>2021-07-02 15:10:23</time>
      </trkpt>
      <trkpt lat="29.06029" lon="-13.46854">
        <ele>18.6</ele>
        <time>2021-07-02 15:10:24</time>
      </trkpt>
      <trkpt lat="29.06031" lon="-13.46851">
        <ele>18.4</ele>
        <time>2021-07-02 15:10:25</time>
      </trkpt>
      <trkpt lat="29.06033" lon="-13.46847">
        <ele>18.4</ele>
        <time>2021-07-02 15:10:26</time>
      </trkpt>
      <trkpt lat="29.06035" lon="-13.46843">
        <ele>18.4</ele>
        <time>2021-07-02 15:10:27</time>
      </trkpt>
      <trkpt lat="29.06037" lon="-13.46839">
        <ele>18.4</ele>
        <time>2021-07-02 15:10:28</time>
      </trkpt>
      <trkpt lat="29.06039" lon="-13.46836">
        <ele>18</ele>
        <time>2021-07-02 15:10:29</time>
      </trkpt>
      <trkpt lat="29.06041" lon="-13.46833">
        <ele>18</ele>
        <time>2021-07-02 15:10:30</time>
      </trkpt>
      <trkpt lat="29.06044" lon="-13.46829">
        <ele>17.8</ele>
        <time>2021-07-02 15:10:31</time>
      </trkpt>
      <trkpt lat="29.06046" lon="-13.46825">
        <ele>17.8</ele>
        <time>2021-07-02 15:10:32</time>
      </trkpt>
      <trkpt lat="29.06048" lon="-13.46821">
        <ele>17.8</ele>
        <time>2021-07-02 15:10:33</time>
      </trkpt>
      <trkpt lat="29.0605" lon="-13.46818">
        <ele>17.8</ele>
        <time>2021-07-02 15:10:34</time>
      </trkpt>
      <trkpt lat="29.06052" lon="-13.46814">
        <ele>17.8</ele>
        <time>2021-07-02 15:10:35</time>
      </trkpt>
      <trkpt lat="29.06054" lon="-13.46811">
        <ele>17.8</ele>
        <time>2021-07-02 15:10:36</time>
      </trkpt>
      <trkpt lat="29.06056" lon="-13.46808">
        <ele>17.8</ele>
        <time>2021-07-02 15:10:37</time>
      </trkpt>
      <trkpt lat="29.06059" lon="-13.46805">
        <ele>17.8</ele>
        <time>2021-07-02 15:10:38</time>
      </trkpt>
      <trkpt lat="29.06061" lon="-13.46802">
        <ele>17.8</ele>
        <time>2021-07-02 15:10:39</time>
      </trkpt>
      <trkpt lat="29.06063" lon="-13.46799">
        <ele>17.8</ele>
        <time>2021-07-02 15:10:40</time>
      </trkpt>
      <trkpt lat="29.06065" lon="-13.46796">
        <ele>17.8</ele>
        <time>2021-07-02 15:10:41</time>
      </trkpt>
      <trkpt lat="29.06067" lon="-13.46793">
        <ele>17.6</ele>
        <time>2021-07-02 15:10:42</time>
      </trkpt>
      <trkpt lat="29.06069" lon="-13.4679">
        <ele>17.6</ele>
        <time>2021-07-02 15:10:43</time>
      </trkpt>
      <trkpt lat="29.06071" lon="-13.46787">
        <ele>17.6</ele>
        <time>2021-07-02 15:10:44</time>
      </trkpt>
      <trkpt lat="29.06073" lon="-13.46784">
        <ele>17.6</ele>
        <time>2021-07-02 15:10:45</time>
      </trkpt>
      <trkpt lat="29.06075" lon="-13.46781">
        <ele>17.6</ele>
        <time>2021-07-02 15:10:46</time>
      </trkpt>
      <trkpt lat="29.06078" lon="-13.46778">
        <ele>17.8</ele>
        <time>2021-07-02 15:10:47</time>
      </trkpt>
      <trkpt lat="29.06079" lon="-13.46775">
        <ele>17.8</ele>
        <time>2021-07-02 15:10:48</time>
      </trkpt>
      <trkpt lat="29.06081" lon="-13.46772">
        <ele>17.8</ele>
        <time>2021-07-02 15:10:49</time>
      </trkpt>
      <trkpt lat="29.06083" lon="-13.46769">
        <ele>17.8</ele>
        <time>2021-07-02 15:10:50</time>
      </trkpt>
      <trkpt lat="29.06084" lon="-13.46765">
        <ele>17.6</ele>
        <time>2021-07-02 15:10:51</time>
      </trkpt>
      <trkpt lat="29.06085" lon="-13.46761">
        <ele>17.6</ele>
        <time>2021-07-02 15:10:52</time>
      </trkpt>
      <trkpt lat="29.06086" lon="-13.46758">
        <ele>17.4</ele>
        <time>2021-07-02 15:10:53</time>
      </trkpt>
      <trkpt lat="29.06087" lon="-13.46754">
        <ele>17.4</ele>
        <time>2021-07-02 15:10:54</time>
      </trkpt>
      <trkpt lat="29.06088" lon="-13.46751">
        <ele>17</ele>
        <time>2021-07-02 15:10:55</time>
      </trkpt>
      <trkpt lat="29.06089" lon="-13.46747">
        <ele>17</ele>
        <time>2021-07-02 15:10:56</time>
      </trkpt>
      <trkpt lat="29.06091" lon="-13.46744">
        <ele>16.8</ele>
        <time>2021-07-02 15:10:57</time>
      </trkpt>
      <trkpt lat="29.06093" lon="-13.46741">
        <ele>16.8</ele>
        <time>2021-07-02 15:10:58</time>
      </trkpt>
      <trkpt lat="29.06095" lon="-13.46739">
        <ele>16.8</ele>
        <time>2021-07-02 15:10:59</time>
      </trkpt>
      <trkpt lat="29.06098" lon="-13.46738">
        <ele>16.4</ele>
        <time>2021-07-02 15:11:00</time>
      </trkpt>
      <trkpt lat="29.06102" lon="-13.46738">
        <ele>16.4</ele>
        <time>2021-07-02 15:11:01</time>
      </trkpt>
      <trkpt lat="29.06105" lon="-13.46737">
        <ele>16.2</ele>
        <time>2021-07-02 15:11:02</time>
      </trkpt>
      <trkpt lat="29.06108" lon="-13.46737">
        <ele>16.2</ele>
        <time>2021-07-02 15:11:03</time>
      </trkpt>
      <trkpt lat="29.06111" lon="-13.46737">
        <ele>16.2</ele>
        <time>2021-07-02 15:11:04</time>
      </trkpt>
      <trkpt lat="29.06114" lon="-13.46736">
        <ele>16.2</ele>
        <time>2021-07-02 15:11:05</time>
      </trkpt>
      <trkpt lat="29.06117" lon="-13.46735">
        <ele>16.2</ele>
        <time>2021-07-02 15:11:06</time>
      </trkpt>
      <trkpt lat="29.0612" lon="-13.46734">
        <ele>16.2</ele>
        <time>2021-07-02 15:11:07</time>
      </trkpt>
      <trkpt lat="29.06123" lon="-13.46734">
        <ele>16.2</ele>
        <time>2021-07-02 15:11:08</time>
      </trkpt>
      <trkpt lat="29.06126" lon="-13.46733">
        <ele>16.2</ele>
        <time>2021-07-02 15:11:09</time>
      </trkpt>
      <trkpt lat="29.06129" lon="-13.46733">
        <ele>16.2</ele>
        <time>2021-07-02 15:11:10</time>
      </trkpt>
      <trkpt lat="29.06132" lon="-13.46733">
        <ele>16.2</ele>
        <time>2021-07-02 15:11:11</time>
      </trkpt>
      <trkpt lat="29.06135" lon="-13.46733">
        <ele>16.2</ele>
        <time>2021-07-02 15:11:12</time>
      </trkpt>
      <trkpt lat="29.06138" lon="-13.46733">
        <ele>16.2</ele>
        <time>2021-07-02 15:11:13</time>
      </trkpt>
      <trkpt lat="29.06141" lon="-13.46733">
        <ele>16.6</ele>
        <time>2021-07-02 15:11:14</time>
      </trkpt>
      <trkpt lat="29.06144" lon="-13.46733">
        <ele>16.6</ele>
        <time>2021-07-02 15:11:15</time>
      </trkpt>
      <trkpt lat="29.06147" lon="-13.46733">
        <ele>16.6</ele>
        <time>2021-07-02 15:11:16</time>
      </trkpt>
      <trkpt lat="29.0615" lon="-13.46734">
        <ele>16.8</ele>
        <time>2021-07-02 15:11:17</time>
      </trkpt>
      <trkpt lat="29.06153" lon="-13.46735">
        <ele>16.8</ele>
        <time>2021-07-02 15:11:18</time>
      </trkpt>
      <trkpt lat="29.06156" lon="-13.46735">
        <ele>16.8</ele>
        <time>2021-07-02 15:11:19</time>
      </trkpt>
      <trkpt lat="29.06159" lon="-13.46735">
        <ele>16.4</ele>
        <time>2021-07-02 15:11:20</time>
      </trkpt>
      <trkpt lat="29.06162" lon="-13.46735">
        <ele>16.4</ele>
        <time>2021-07-02 15:11:21</time>
      </trkpt>
      <trkpt lat="29.06165" lon="-13.46734">
        <ele>16.4</ele>
        <time>2021-07-02 15:11:22</time>
      </trkpt>
      <trkpt lat="29.06168" lon="-13.46733">
        <ele>16.4</ele>
        <time>2021-07-02 15:11:23</time>
      </trkpt>
      <trkpt lat="29.06171" lon="-13.46733">
        <ele>16.4</ele>
        <time>2021-07-02 15:11:24</time>
      </trkpt>
      <trkpt lat="29.06174" lon="-13.46734">
        <ele>16.4</ele>
        <time>2021-07-02 15:11:25</time>
      </trkpt>
      <trkpt lat="29.06176" lon="-13.46735">
        <ele>16.4</ele>
        <time>2021-07-02 15:11:26</time>
      </trkpt>
      <trkpt lat="29.06179" lon="-13.46735">
        <ele>16.8</ele>
        <time>2021-07-02 15:11:27</time>
      </trkpt>
      <trkpt lat="29.06182" lon="-13.46736">
        <ele>16.8</ele>
        <time>2021-07-02 15:11:28</time>
      </trkpt>
      <trkpt lat="29.06185" lon="-13.46736">
        <ele>17</ele>
        <time>2021-07-02 15:11:29</time>
      </trkpt>
      <trkpt lat="29.06188" lon="-13.46736">
        <ele>17</ele>
        <time>2021-07-02 15:11:30</time>
      </trkpt>
      <trkpt lat="29.06191" lon="-13.46736">
        <ele>17.2</ele>
        <time>2021-07-02 15:11:31</time>
      </trkpt>
      <trkpt lat="29.06194" lon="-13.46736">
        <ele>17.2</ele>
        <time>2021-07-02 15:11:32</time>
      </trkpt>
      <trkpt lat="29.06197" lon="-13.46736">
        <ele>17.2</ele>
        <time>2021-07-02 15:11:33</time>
      </trkpt>
      <trkpt lat="29.062" lon="-13.46736">
        <ele>17.2</ele>
        <time>2021-07-02 15:11:34</time>
      </trkpt>
      <trkpt lat="29.06203" lon="-13.46737">
        <ele>17.6</ele>
        <time>2021-07-02 15:11:35</time>
      </trkpt>
      <trkpt lat="29.06205" lon="-13.46738">
        <ele>17.6</ele>
        <time>2021-07-02 15:11:36</time>
      </trkpt>
      <trkpt lat="29.06208" lon="-13.46739">
        <ele>17.6</ele>
        <time>2021-07-02 15:11:37</time>
      </trkpt>
      <trkpt lat="29.06211" lon="-13.4674">
        <ele>17.6</ele>
        <time>2021-07-02 15:11:38</time>
      </trkpt>
      <trkpt lat="29.06213" lon="-13.46741">
        <ele>17.6</ele>
        <time>2021-07-02 15:11:39</time>
      </trkpt>
      <trkpt lat="29.06216" lon="-13.46742">
        <ele>17.6</ele>
        <time>2021-07-02 15:11:40</time>
      </trkpt>
      <trkpt lat="29.06218" lon="-13.46744">
        <ele>17.6</ele>
        <time>2021-07-02 15:11:41</time>
      </trkpt>
      <trkpt lat="29.06221" lon="-13.46744">
        <ele>17.6</ele>
        <time>2021-07-02 15:11:42</time>
      </trkpt>
      <trkpt lat="29.06224" lon="-13.46744">
        <ele>17.6</ele>
        <time>2021-07-02 15:11:43</time>
      </trkpt>
      <trkpt lat="29.06226" lon="-13.46744">
        <ele>17.6</ele>
        <time>2021-07-02 15:11:44</time>
      </trkpt>
      <trkpt lat="29.06229" lon="-13.46744">
        <ele>17.6</ele>
        <time>2021-07-02 15:11:45</time>
      </trkpt>
      <trkpt lat="29.06232" lon="-13.46743">
        <ele>17.8</ele>
        <time>2021-07-02 15:11:46</time>
      </trkpt>
      <trkpt lat="29.06235" lon="-13.46743">
        <ele>17.8</ele>
        <time>2021-07-02 15:11:47</time>
      </trkpt>
      <trkpt lat="29.06238" lon="-13.46742">
        <ele>17.8</ele>
        <time>2021-07-02 15:11:48</time>
      </trkpt>
      <trkpt lat="29.06241" lon="-13.46742">
        <ele>17.8</ele>
        <time>2021-07-02 15:11:49</time>
      </trkpt>
      <trkpt lat="29.06244" lon="-13.46742">
        <ele>18</ele>
        <time>2021-07-02 15:11:50</time>
      </trkpt>
      <trkpt lat="29.06247" lon="-13.46742">
        <ele>18</ele>
        <time>2021-07-02 15:11:51</time>
      </trkpt>
      <trkpt lat="29.06249" lon="-13.46742">
        <ele>18</ele>
        <time>2021-07-02 15:11:52</time>
      </trkpt>
      <trkpt lat="29.06252" lon="-13.46742">
        <ele>18</ele>
        <time>2021-07-02 15:11:53</time>
      </trkpt>
      <trkpt lat="29.06255" lon="-13.46742">
        <ele>18</ele>
        <time>2021-07-02 15:11:54</time>
      </trkpt>
      <trkpt lat="29.06258" lon="-13.46741">
        <ele>18.4</ele>
        <time>2021-07-02 15:11:55</time>
      </trkpt>
      <trkpt lat="29.06261" lon="-13.46741">
        <ele>18.4</ele>
        <time>2021-07-02 15:11:56</time>
      </trkpt>
      <trkpt lat="29.06263" lon="-13.4674">
        <ele>18.6</ele>
        <time>2021-07-02 15:11:57</time>
      </trkpt>
      <trkpt lat="29.06266" lon="-13.46739">
        <ele>18.6</ele>
        <time>2021-07-02 15:11:58</time>
      </trkpt>
      <trkpt lat="29.06268" lon="-13.46738">
        <ele>18.6</ele>
        <time>2021-07-02 15:11:59</time>
      </trkpt>
      <trkpt lat="29.06271" lon="-13.46738">
        <ele>18.8</ele>
        <time>2021-07-02 15:12:00</time>
      </trkpt>
      <trkpt lat="29.06273" lon="-13.46737">
        <ele>19.2</ele>
        <time>2021-07-02 15:12:01</time>
      </trkpt>
      <trkpt lat="29.06275" lon="-13.46737">
        <ele>19.4</ele>
        <time>2021-07-02 15:12:02</time>
      </trkpt>
      <trkpt lat="29.06277" lon="-13.46736">
        <ele>19.6</ele>
        <time>2021-07-02 15:12:03</time>
      </trkpt>
      <trkpt lat="29.0628" lon="-13.46736">
        <ele>19.8</ele>
        <time>2021-07-02 15:12:04</time>
      </trkpt>
      <trkpt lat="29.06283" lon="-13.46736">
        <ele>20.2</ele>
        <time>2021-07-02 15:12:05</time>
      </trkpt>
      <trkpt lat="29.06285" lon="-13.46736">
        <ele>20.4</ele>
        <time>2021-07-02 15:12:06</time>
      </trkpt>
      <trkpt lat="29.06288" lon="-13.46735">
        <ele>20.8</ele>
        <time>2021-07-02 15:12:07</time>
      </trkpt>
      <trkpt lat="29.06292" lon="-13.46733">
        <ele>20.8</ele>
        <time>2021-07-02 15:12:08</time>
      </trkpt>
      <trkpt lat="29.06295" lon="-13.46733">
        <ele>21</ele>
        <time>2021-07-02 15:12:09</time>
      </trkpt>
      <trkpt lat="29.06298" lon="-13.46733">
        <ele>21</ele>
        <time>2021-07-02 15:12:10</time>
      </trkpt>
      <trkpt lat="29.06301" lon="-13.46733">
        <ele>21</ele>
        <time>2021-07-02 15:12:11</time>
      </trkpt>
      <trkpt lat="29.06303" lon="-13.46733">
        <ele>21.4</ele>
        <time>2021-07-02 15:12:12</time>
      </trkpt>
      <trkpt lat="29.06304" lon="-13.46733">
        <ele>21.4</ele>
        <time>2021-07-02 15:12:13</time>
      </trkpt>
      <trkpt lat="29.06306" lon="-13.46734">
        <ele>21.4</ele>
        <time>2021-07-02 15:12:14</time>
      </trkpt>
      <trkpt lat="29.06307" lon="-13.46734">
        <ele>21.4</ele>
        <time>2021-07-02 15:12:15</time>
      </trkpt>
      <trkpt lat="29.06308" lon="-13.46735">
        <ele>21.6</ele>
        <time>2021-07-02 15:12:16</time>
      </trkpt>
      <trkpt lat="29.0631" lon="-13.46736">
        <ele>21.6</ele>
        <time>2021-07-02 15:12:17</time>
      </trkpt>
      <trkpt lat="29.06311" lon="-13.46736">
        <ele>21.6</ele>
        <time>2021-07-02 15:12:18</time>
      </trkpt>
      <trkpt lat="29.06313" lon="-13.46735">
        <ele>21.6</ele>
        <time>2021-07-02 15:12:19</time>
      </trkpt>
      <trkpt lat="29.06315" lon="-13.46735">
        <ele>21.6</ele>
        <time>2021-07-02 15:12:20</time>
      </trkpt>
      <trkpt lat="29.06317" lon="-13.46735">
        <ele>21.6</ele>
        <time>2021-07-02 15:12:21</time>
      </trkpt>
      <trkpt lat="29.06319" lon="-13.46735">
        <ele>21.8</ele>
        <time>2021-07-02 15:12:22</time>
      </trkpt>
      <trkpt lat="29.06321" lon="-13.46734">
        <ele>21.8</ele>
        <time>2021-07-02 15:12:23</time>
      </trkpt>
      <trkpt lat="29.06324" lon="-13.46734">
        <ele>21.8</ele>
        <time>2021-07-02 15:12:24</time>
      </trkpt>
      <trkpt lat="29.06326" lon="-13.46733">
        <ele>21.8</ele>
        <time>2021-07-02 15:12:25</time>
      </trkpt>
      <trkpt lat="29.06328" lon="-13.46734">
        <ele>21.8</ele>
        <time>2021-07-02 15:12:26</time>
      </trkpt>
      <trkpt lat="29.06331" lon="-13.46734">
        <ele>21.8</ele>
        <time>2021-07-02 15:12:27</time>
      </trkpt>
      <trkpt lat="29.06333" lon="-13.46734">
        <ele>21.8</ele>
        <time>2021-07-02 15:12:28</time>
      </trkpt>
      <trkpt lat="29.06335" lon="-13.46734">
        <ele>22.6</ele>
        <time>2021-07-02 15:12:29</time>
      </trkpt>
      <trkpt lat="29.06337" lon="-13.46734">
        <ele>25.6</ele>
        <time>2021-07-02 15:12:30</time>
      </trkpt>
      <trkpt lat="29.06339" lon="-13.46734">
        <ele>25</ele>
        <time>2021-07-02 15:12:31</time>
      </trkpt>
      <trkpt lat="29.06342" lon="-13.46734">
        <ele>28.2</ele>
        <time>2021-07-02 15:12:32</time>
      </trkpt>
      <trkpt lat="29.06344" lon="-13.46734">
        <ele>27.8</ele>
        <time>2021-07-02 15:12:33</time>
      </trkpt>
      <trkpt lat="29.06347" lon="-13.46734">
        <ele>26.6</ele>
        <time>2021-07-02 15:12:34</time>
      </trkpt>
      <trkpt lat="29.06349" lon="-13.46735">
        <ele>25.8</ele>
        <time>2021-07-02 15:12:35</time>
      </trkpt>
      <trkpt lat="29.06352" lon="-13.46735">
        <ele>24.8</ele>
        <time>2021-07-02 15:12:36</time>
      </trkpt>
      <trkpt lat="29.06354" lon="-13.46735">
        <ele>24</ele>
        <time>2021-07-02 15:12:37</time>
      </trkpt>
      <trkpt lat="29.06357" lon="-13.46736">
        <ele>23.6</ele>
        <time>2021-07-02 15:12:38</time>
      </trkpt>
      <trkpt lat="29.06359" lon="-13.46736">
        <ele>23.2</ele>
        <time>2021-07-02 15:12:39</time>
      </trkpt>
      <trkpt lat="29.06361" lon="-13.46736">
        <ele>23.2</ele>
        <time>2021-07-02 15:12:40</time>
      </trkpt>
      <trkpt lat="29.06364" lon="-13.46736">
        <ele>22.2</ele>
        <time>2021-07-02 15:12:41</time>
      </trkpt>
      <trkpt lat="29.06366" lon="-13.46735">
        <ele>22.8</ele>
        <time>2021-07-02 15:12:42</time>
      </trkpt>
      <trkpt lat="29.06369" lon="-13.46735">
        <ele>23.2</ele>
        <time>2021-07-02 15:12:43</time>
      </trkpt>
      <trkpt lat="29.06372" lon="-13.46735">
        <ele>23.2</ele>
        <time>2021-07-02 15:12:44</time>
      </trkpt>
      <trkpt lat="29.06374" lon="-13.46734">
        <ele>23.2</ele>
        <time>2021-07-02 15:12:45</time>
      </trkpt>
      <trkpt lat="29.06376" lon="-13.46734">
        <ele>22.8</ele>
        <time>2021-07-02 15:12:46</time>
      </trkpt>
      <trkpt lat="29.06379" lon="-13.46734">
        <ele>22.6</ele>
        <time>2021-07-02 15:12:47</time>
      </trkpt>
      <trkpt lat="29.06381" lon="-13.46733">
        <ele>23.2</ele>
        <time>2021-07-02 15:12:48</time>
      </trkpt>
      <trkpt lat="29.06383" lon="-13.46733">
        <ele>23.6</ele>
        <time>2021-07-02 15:12:49</time>
      </trkpt>
      <trkpt lat="29.06386" lon="-13.46733">
        <ele>23.6</ele>
        <time>2021-07-02 15:12:50</time>
      </trkpt>
      <trkpt lat="29.06388" lon="-13.46733">
        <ele>23.6</ele>
        <time>2021-07-02 15:12:51</time>
      </trkpt>
      <trkpt lat="29.06391" lon="-13.46733">
        <ele>23.6</ele>
        <time>2021-07-02 15:12:52</time>
      </trkpt>
      <trkpt lat="29.06393" lon="-13.46733">
        <ele>23.6</ele>
        <time>2021-07-02 15:12:53</time>
      </trkpt>
      <trkpt lat="29.06396" lon="-13.46733">
        <ele>23.8</ele>
        <time>2021-07-02 15:12:54</time>
      </trkpt>
      <trkpt lat="29.06399" lon="-13.46733">
        <ele>23.8</ele>
        <time>2021-07-02 15:12:55</time>
      </trkpt>
      <trkpt lat="29.06401" lon="-13.46733">
        <ele>23.8</ele>
        <time>2021-07-02 15:12:56</time>
      </trkpt>
      <trkpt lat="29.06404" lon="-13.46733">
        <ele>23.8</ele>
        <time>2021-07-02 15:12:57</time>
      </trkpt>
      <trkpt lat="29.06407" lon="-13.46733">
        <ele>23.8</ele>
        <time>2021-07-02 15:12:58</time>
      </trkpt>
      <trkpt lat="29.06409" lon="-13.46733">
        <ele>23.8</ele>
        <time>2021-07-02 15:12:59</time>
      </trkpt>
      <trkpt lat="29.06412" lon="-13.46733">
        <ele>24.4</ele>
        <time>2021-07-02 15:13:00</time>
      </trkpt>
      <trkpt lat="29.06415" lon="-13.46733">
        <ele>24.4</ele>
        <time>2021-07-02 15:13:01</time>
      </trkpt>
      <trkpt lat="29.06418" lon="-13.46733">
        <ele>24.4</ele>
        <time>2021-07-02 15:13:02</time>
      </trkpt>
      <trkpt lat="29.06421" lon="-13.46733">
        <ele>24</ele>
        <time>2021-07-02 15:13:03</time>
      </trkpt>
      <trkpt lat="29.06424" lon="-13.46733">
        <ele>24</ele>
        <time>2021-07-02 15:13:04</time>
      </trkpt>
      <trkpt lat="29.06428" lon="-13.46733">
        <ele>24</ele>
        <time>2021-07-02 15:13:05</time>
      </trkpt>
      <trkpt lat="29.06431" lon="-13.46733">
        <ele>24.2</ele>
        <time>2021-07-02 15:13:06</time>
      </trkpt>
      <trkpt lat="29.06434" lon="-13.46733">
        <ele>24.2</ele>
        <time>2021-07-02 15:13:07</time>
      </trkpt>
      <trkpt lat="29.06437" lon="-13.46733">
        <ele>24.6</ele>
        <time>2021-07-02 15:13:08</time>
      </trkpt>
      <trkpt lat="29.0644" lon="-13.46732">
        <ele>24.6</ele>
        <time>2021-07-02 15:13:09</time>
      </trkpt>
      <trkpt lat="29.06444" lon="-13.46732">
        <ele>24.6</ele>
        <time>2021-07-02 15:13:10</time>
      </trkpt>
      <trkpt lat="29.06447" lon="-13.46732">
        <ele>24.6</ele>
        <time>2021-07-02 15:13:11</time>
      </trkpt>
      <trkpt lat="29.0645" lon="-13.46732">
        <ele>25</ele>
        <time>2021-07-02 15:13:12</time>
      </trkpt>
      <trkpt lat="29.06453" lon="-13.46732">
        <ele>25</ele>
        <time>2021-07-02 15:13:13</time>
      </trkpt>
      <trkpt lat="29.06456" lon="-13.46733">
        <ele>25</ele>
        <time>2021-07-02 15:13:14</time>
      </trkpt>
      <trkpt lat="29.06459" lon="-13.46733">
        <ele>25.4</ele>
        <time>2021-07-02 15:13:15</time>
      </trkpt>
      <trkpt lat="29.06462" lon="-13.46733">
        <ele>25.4</ele>
        <time>2021-07-02 15:13:16</time>
      </trkpt>
      <trkpt lat="29.06464" lon="-13.46733">
        <ele>25.6</ele>
        <time>2021-07-02 15:13:17</time>
      </trkpt>
      <trkpt lat="29.06467" lon="-13.46732">
        <ele>26</ele>
        <time>2021-07-02 15:13:18</time>
      </trkpt>
      <trkpt lat="29.06469" lon="-13.46732">
        <ele>26.4</ele>
        <time>2021-07-02 15:13:19</time>
      </trkpt>
      <trkpt lat="29.06472" lon="-13.46732">
        <ele>26.4</ele>
        <time>2021-07-02 15:13:20</time>
      </trkpt>
      <trkpt lat="29.06474" lon="-13.46733">
        <ele>26.8</ele>
        <time>2021-07-02 15:13:21</time>
      </trkpt>
      <trkpt lat="29.06476" lon="-13.46733">
        <ele>27.2</ele>
        <time>2021-07-02 15:13:22</time>
      </trkpt>
      <trkpt lat="29.06479" lon="-13.46733">
        <ele>27.6</ele>
        <time>2021-07-02 15:13:23</time>
      </trkpt>
      <trkpt lat="29.06481" lon="-13.46733">
        <ele>27.6</ele>
        <time>2021-07-02 15:13:24</time>
      </trkpt>
      <trkpt lat="29.06483" lon="-13.46733">
        <ele>27.6</ele>
        <time>2021-07-02 15:13:25</time>
      </trkpt>
      <trkpt lat="29.06486" lon="-13.46734">
        <ele>28.2</ele>
        <time>2021-07-02 15:13:26</time>
      </trkpt>
      <trkpt lat="29.06488" lon="-13.46734">
        <ele>28.2</ele>
        <time>2021-07-02 15:13:27</time>
      </trkpt>
      <trkpt lat="29.06491" lon="-13.46734">
        <ele>27.8</ele>
        <time>2021-07-02 15:13:28</time>
      </trkpt>
      <trkpt lat="29.06493" lon="-13.46735">
        <ele>27.8</ele>
        <time>2021-07-02 15:13:29</time>
      </trkpt>
      <trkpt lat="29.06496" lon="-13.46735">
        <ele>27.8</ele>
        <time>2021-07-02 15:13:30</time>
      </trkpt>
      <trkpt lat="29.06498" lon="-13.46735">
        <ele>27.8</ele>
        <time>2021-07-02 15:13:31</time>
      </trkpt>
      <trkpt lat="29.065" lon="-13.46736">
        <ele>27.8</ele>
        <time>2021-07-02 15:13:32</time>
      </trkpt>
      <trkpt lat="29.06503" lon="-13.46736">
        <ele>28.2</ele>
        <time>2021-07-02 15:13:33</time>
      </trkpt>
      <trkpt lat="29.06505" lon="-13.46737">
        <ele>28.8</ele>
        <time>2021-07-02 15:13:34</time>
      </trkpt>
      <trkpt lat="29.06507" lon="-13.46737">
        <ele>28.8</ele>
        <time>2021-07-02 15:13:35</time>
      </trkpt>
      <trkpt lat="29.06509" lon="-13.46738">
        <ele>28.8</ele>
        <time>2021-07-02 15:13:36</time>
      </trkpt>
      <trkpt lat="29.06511" lon="-13.4674">
        <ele>28.8</ele>
        <time>2021-07-02 15:13:37</time>
      </trkpt>
      <trkpt lat="29.06514" lon="-13.46741">
        <ele>28.8</ele>
        <time>2021-07-02 15:13:38</time>
      </trkpt>
      <trkpt lat="29.06516" lon="-13.46742">
        <ele>28.6</ele>
        <time>2021-07-02 15:13:39</time>
      </trkpt>
      <trkpt lat="29.06519" lon="-13.46743">
        <ele>28.6</ele>
        <time>2021-07-02 15:13:40</time>
      </trkpt>
      <trkpt lat="29.06522" lon="-13.46744">
        <ele>28.8</ele>
        <time>2021-07-02 15:13:41</time>
      </trkpt>
      <trkpt lat="29.06524" lon="-13.46745">
        <ele>29.2</ele>
        <time>2021-07-02 15:13:42</time>
      </trkpt>
      <trkpt lat="29.06527" lon="-13.46747">
        <ele>29.2</ele>
        <time>2021-07-02 15:13:43</time>
      </trkpt>
      <trkpt lat="29.0653" lon="-13.46748">
        <ele>29.2</ele>
        <time>2021-07-02 15:13:44</time>
      </trkpt>
      <trkpt lat="29.06532" lon="-13.46749">
        <ele>29.6</ele>
        <time>2021-07-02 15:13:45</time>
      </trkpt>
      <trkpt lat="29.06535" lon="-13.4675">
        <ele>29.8</ele>
        <time>2021-07-02 15:13:46</time>
      </trkpt>
      <trkpt lat="29.06538" lon="-13.46751">
        <ele>29.8</ele>
        <time>2021-07-02 15:13:47</time>
      </trkpt>
      <trkpt lat="29.06541" lon="-13.46753">
        <ele>29.8</ele>
        <time>2021-07-02 15:13:48</time>
      </trkpt>
      <trkpt lat="29.06544" lon="-13.46754">
        <ele>30.6</ele>
        <time>2021-07-02 15:13:49</time>
      </trkpt>
      <trkpt lat="29.06546" lon="-13.46756">
        <ele>30.4</ele>
        <time>2021-07-02 15:13:50</time>
      </trkpt>
      <trkpt lat="29.06549" lon="-13.46757">
        <ele>30.6</ele>
        <time>2021-07-02 15:13:51</time>
      </trkpt>
      <trkpt lat="29.06552" lon="-13.46759">
        <ele>30.6</ele>
        <time>2021-07-02 15:13:52</time>
      </trkpt>
      <trkpt lat="29.06554" lon="-13.4676">
        <ele>30.2</ele>
        <time>2021-07-02 15:13:53</time>
      </trkpt>
      <trkpt lat="29.06557" lon="-13.46762">
        <ele>30.2</ele>
        <time>2021-07-02 15:13:54</time>
      </trkpt>
      <trkpt lat="29.06559" lon="-13.46764">
        <ele>30.2</ele>
        <time>2021-07-02 15:13:55</time>
      </trkpt>
      <trkpt lat="29.06561" lon="-13.46766">
        <ele>30.2</ele>
        <time>2021-07-02 15:13:56</time>
      </trkpt>
      <trkpt lat="29.06564" lon="-13.46767">
        <ele>30.6</ele>
        <time>2021-07-02 15:13:57</time>
      </trkpt>
      <trkpt lat="29.06566" lon="-13.46769">
        <ele>30.6</ele>
        <time>2021-07-02 15:13:58</time>
      </trkpt>
      <trkpt lat="29.06568" lon="-13.4677">
        <ele>30.6</ele>
        <time>2021-07-02 15:13:59</time>
      </trkpt>
      <trkpt lat="29.06571" lon="-13.46772">
        <ele>30.6</ele>
        <time>2021-07-02 15:14:00</time>
      </trkpt>
      <trkpt lat="29.06574" lon="-13.46773">
        <ele>30.6</ele>
        <time>2021-07-02 15:14:01</time>
      </trkpt>
      <trkpt lat="29.06576" lon="-13.46775">
        <ele>30.6</ele>
        <time>2021-07-02 15:14:02</time>
      </trkpt>
      <trkpt lat="29.06578" lon="-13.46777">
        <ele>30.8</ele>
        <time>2021-07-02 15:14:03</time>
      </trkpt>
      <trkpt lat="29.06581" lon="-13.46778">
        <ele>31.2</ele>
        <time>2021-07-02 15:14:04</time>
      </trkpt>
      <trkpt lat="29.06583" lon="-13.4678">
        <ele>31.6</ele>
        <time>2021-07-02 15:14:05</time>
      </trkpt>
      <trkpt lat="29.06586" lon="-13.46781">
        <ele>32</ele>
        <time>2021-07-02 15:14:06</time>
      </trkpt>
      <trkpt lat="29.06588" lon="-13.46783">
        <ele>31.6</ele>
        <time>2021-07-02 15:14:07</time>
      </trkpt>
      <trkpt lat="29.0659" lon="-13.46785">
        <ele>31.6</ele>
        <time>2021-07-02 15:14:08</time>
      </trkpt>
      <trkpt lat="29.06593" lon="-13.46787">
        <ele>31.6</ele>
        <time>2021-07-02 15:14:09</time>
      </trkpt>
      <trkpt lat="29.06595" lon="-13.46788">
        <ele>31.6</ele>
        <time>2021-07-02 15:14:10</time>
      </trkpt>
      <trkpt lat="29.06598" lon="-13.4679">
        <ele>31.8</ele>
        <time>2021-07-02 15:14:11</time>
      </trkpt>
      <trkpt lat="29.066" lon="-13.46791">
        <ele>31.8</ele>
        <time>2021-07-02 15:14:12</time>
      </trkpt>
      <trkpt lat="29.06603" lon="-13.46793">
        <ele>32.2</ele>
        <time>2021-07-02 15:14:13</time>
      </trkpt>
      <trkpt lat="29.06605" lon="-13.46795">
        <ele>32.2</ele>
        <time>2021-07-02 15:14:14</time>
      </trkpt>
      <trkpt lat="29.06608" lon="-13.46796">
        <ele>32.2</ele>
        <time>2021-07-02 15:14:15</time>
      </trkpt>
      <trkpt lat="29.06611" lon="-13.46798">
        <ele>32.2</ele>
        <time>2021-07-02 15:14:16</time>
      </trkpt>
      <trkpt lat="29.06613" lon="-13.46799">
        <ele>32.4</ele>
        <time>2021-07-02 15:14:17</time>
      </trkpt>
      <trkpt lat="29.06615" lon="-13.46801">
        <ele>32.4</ele>
        <time>2021-07-02 15:14:18</time>
      </trkpt>
      <trkpt lat="29.06618" lon="-13.46803">
        <ele>32.4</ele>
        <time>2021-07-02 15:14:19</time>
      </trkpt>
      <trkpt lat="29.0662" lon="-13.46805">
        <ele>32.4</ele>
        <time>2021-07-02 15:14:20</time>
      </trkpt>
      <trkpt lat="29.06622" lon="-13.46806">
        <ele>32.8</ele>
        <time>2021-07-02 15:14:21</time>
      </trkpt>
      <trkpt lat="29.06625" lon="-13.46808">
        <ele>32.8</ele>
        <time>2021-07-02 15:14:22</time>
      </trkpt>
      <trkpt lat="29.06627" lon="-13.4681">
        <ele>33</ele>
        <time>2021-07-02 15:14:23</time>
      </trkpt>
      <trkpt lat="29.0663" lon="-13.46811">
        <ele>34</ele>
        <time>2021-07-02 15:14:24</time>
      </trkpt>
      <trkpt lat="29.06632" lon="-13.46813">
        <ele>33.8</ele>
        <time>2021-07-02 15:14:25</time>
      </trkpt>
      <trkpt lat="29.06635" lon="-13.46816">
        <ele>33.8</ele>
        <time>2021-07-02 15:14:26</time>
      </trkpt>
      <trkpt lat="29.06637" lon="-13.46817">
        <ele>33.4</ele>
        <time>2021-07-02 15:14:27</time>
      </trkpt>
      <trkpt lat="29.0664" lon="-13.46819">
        <ele>33.4</ele>
        <time>2021-07-02 15:14:28</time>
      </trkpt>
      <trkpt lat="29.06642" lon="-13.46821">
        <ele>33.6</ele>
        <time>2021-07-02 15:14:29</time>
      </trkpt>
      <trkpt lat="29.06644" lon="-13.46823">
        <ele>33.6</ele>
        <time>2021-07-02 15:14:30</time>
      </trkpt>
      <trkpt lat="29.06647" lon="-13.46824">
        <ele>34</ele>
        <time>2021-07-02 15:14:31</time>
      </trkpt>
      <trkpt lat="29.06649" lon="-13.46826">
        <ele>34.2</ele>
        <time>2021-07-02 15:14:32</time>
      </trkpt>
      <trkpt lat="29.06651" lon="-13.46828">
        <ele>34.6</ele>
        <time>2021-07-02 15:14:33</time>
      </trkpt>
      <trkpt lat="29.06654" lon="-13.46829">
        <ele>34.6</ele>
        <time>2021-07-02 15:14:34</time>
      </trkpt>
      <trkpt lat="29.06656" lon="-13.46831">
        <ele>34.6</ele>
        <time>2021-07-02 15:14:35</time>
      </trkpt>
      <trkpt lat="29.06659" lon="-13.46832">
        <ele>35</ele>
        <time>2021-07-02 15:14:36</time>
      </trkpt>
      <trkpt lat="29.06661" lon="-13.46834">
        <ele>35</ele>
        <time>2021-07-02 15:14:37</time>
      </trkpt>
      <trkpt lat="29.06663" lon="-13.46835">
        <ele>35</ele>
        <time>2021-07-02 15:14:38</time>
      </trkpt>
      <trkpt lat="29.06665" lon="-13.46836">
        <ele>35</ele>
        <time>2021-07-02 15:14:39</time>
      </trkpt>
      <trkpt lat="29.06667" lon="-13.46838">
        <ele>35</ele>
        <time>2021-07-02 15:14:40</time>
      </trkpt>
      <trkpt lat="29.06669" lon="-13.46839">
        <ele>35</ele>
        <time>2021-07-02 15:14:41</time>
      </trkpt>
      <trkpt lat="29.06671" lon="-13.46841">
        <ele>35.2</ele>
        <time>2021-07-02 15:14:42</time>
      </trkpt>
      <trkpt lat="29.06674" lon="-13.46842">
        <ele>35.2</ele>
        <time>2021-07-02 15:14:43</time>
      </trkpt>
      <trkpt lat="29.06676" lon="-13.46844">
        <ele>35.4</ele>
        <time>2021-07-02 15:14:44</time>
      </trkpt>
      <trkpt lat="29.06678" lon="-13.46845">
        <ele>35.8</ele>
        <time>2021-07-02 15:14:45</time>
      </trkpt>
      <trkpt lat="29.0668" lon="-13.46847">
        <ele>35.8</ele>
        <time>2021-07-02 15:14:46</time>
      </trkpt>
      <trkpt lat="29.06683" lon="-13.46848">
        <ele>36.2</ele>
        <time>2021-07-02 15:14:47</time>
      </trkpt>
      <trkpt lat="29.06685" lon="-13.4685">
        <ele>36.2</ele>
        <time>2021-07-02 15:14:48</time>
      </trkpt>
      <trkpt lat="29.06687" lon="-13.46852">
        <ele>36.2</ele>
        <time>2021-07-02 15:14:49</time>
      </trkpt>
      <trkpt lat="29.06689" lon="-13.46853">
        <ele>36.2</ele>
        <time>2021-07-02 15:14:50</time>
      </trkpt>
      <trkpt lat="29.06692" lon="-13.46855">
        <ele>36.4</ele>
        <time>2021-07-02 15:14:51</time>
      </trkpt>
      <trkpt lat="29.06694" lon="-13.46857">
        <ele>36.8</ele>
        <time>2021-07-02 15:14:52</time>
      </trkpt>
      <trkpt lat="29.06696" lon="-13.46859">
        <ele>36.8</ele>
        <time>2021-07-02 15:14:53</time>
      </trkpt>
      <trkpt lat="29.06698" lon="-13.46861">
        <ele>36.8</ele>
        <time>2021-07-02 15:14:54</time>
      </trkpt>
      <trkpt lat="29.067" lon="-13.46862">
        <ele>36.8</ele>
        <time>2021-07-02 15:14:55</time>
      </trkpt>
      <trkpt lat="29.06702" lon="-13.46864">
        <ele>36.8</ele>
        <time>2021-07-02 15:14:56</time>
      </trkpt>
      <trkpt lat="29.06704" lon="-13.46866">
        <ele>36.8</ele>
        <time>2021-07-02 15:14:57</time>
      </trkpt>
      <trkpt lat="29.06706" lon="-13.46868">
        <ele>36.8</ele>
        <time>2021-07-02 15:14:58</time>
      </trkpt>
      <trkpt lat="29.06708" lon="-13.46871">
        <ele>37</ele>
        <time>2021-07-02 15:14:59</time>
      </trkpt>
      <trkpt lat="29.0671" lon="-13.46873">
        <ele>37.2</ele>
        <time>2021-07-02 15:15:00</time>
      </trkpt>
      <trkpt lat="29.06712" lon="-13.46875">
        <ele>37.2</ele>
        <time>2021-07-02 15:15:01</time>
      </trkpt>
      <trkpt lat="29.06714" lon="-13.46877">
        <ele>37.2</ele>
        <time>2021-07-02 15:15:02</time>
      </trkpt>
      <trkpt lat="29.06716" lon="-13.46879">
        <ele>37.2</ele>
        <time>2021-07-02 15:15:03</time>
      </trkpt>
      <trkpt lat="29.06718" lon="-13.46881">
        <ele>37.6</ele>
        <time>2021-07-02 15:15:04</time>
      </trkpt>
      <trkpt lat="29.0672" lon="-13.46884">
        <ele>37.6</ele>
        <time>2021-07-02 15:15:05</time>
      </trkpt>
      <trkpt lat="29.06722" lon="-13.46886">
        <ele>37.6</ele>
        <time>2021-07-02 15:15:06</time>
      </trkpt>
      <trkpt lat="29.06724" lon="-13.46888">
        <ele>37.6</ele>
        <time>2021-07-02 15:15:07</time>
      </trkpt>
      <trkpt lat="29.06725" lon="-13.4689">
        <ele>38</ele>
        <time>2021-07-02 15:15:08</time>
      </trkpt>
      <trkpt lat="29.06727" lon="-13.46893">
        <ele>38.4</ele>
        <time>2021-07-02 15:15:09</time>
      </trkpt>
      <trkpt lat="29.06729" lon="-13.46895">
        <ele>38.4</ele>
        <time>2021-07-02 15:15:10</time>
      </trkpt>
      <trkpt lat="29.06731" lon="-13.46898">
        <ele>38.4</ele>
        <time>2021-07-02 15:15:11</time>
      </trkpt>
      <trkpt lat="29.06733" lon="-13.469">
        <ele>38.4</ele>
        <time>2021-07-02 15:15:12</time>
      </trkpt>
      <trkpt lat="29.06734" lon="-13.46902">
        <ele>38.4</ele>
        <time>2021-07-02 15:15:13</time>
      </trkpt>
      <trkpt lat="29.06736" lon="-13.46905">
        <ele>38.4</ele>
        <time>2021-07-02 15:15:14</time>
      </trkpt>
      <trkpt lat="29.06738" lon="-13.46907">
        <ele>38.6</ele>
        <time>2021-07-02 15:15:15</time>
      </trkpt>
      <trkpt lat="29.0674" lon="-13.46909">
        <ele>38.6</ele>
        <time>2021-07-02 15:15:16</time>
      </trkpt>
      <trkpt lat="29.06742" lon="-13.46911">
        <ele>39.2</ele>
        <time>2021-07-02 15:15:17</time>
      </trkpt>
      <trkpt lat="29.06743" lon="-13.46913">
        <ele>39.2</ele>
        <time>2021-07-02 15:15:18</time>
      </trkpt>
      <trkpt lat="29.06745" lon="-13.46915">
        <ele>39.2</ele>
        <time>2021-07-02 15:15:19</time>
      </trkpt>
      <trkpt lat="29.06747" lon="-13.46918">
        <ele>39.8</ele>
        <time>2021-07-02 15:15:20</time>
      </trkpt>
      <trkpt lat="29.06749" lon="-13.4692">
        <ele>39.8</ele>
        <time>2021-07-02 15:15:21</time>
      </trkpt>
      <trkpt lat="29.06751" lon="-13.46923">
        <ele>40</ele>
        <time>2021-07-02 15:15:22</time>
      </trkpt>
      <trkpt lat="29.06753" lon="-13.46925">
        <ele>40.2</ele>
        <time>2021-07-02 15:15:23</time>
      </trkpt>
      <trkpt lat="29.06755" lon="-13.46928">
        <ele>40.2</ele>
        <time>2021-07-02 15:15:24</time>
      </trkpt>
      <trkpt lat="29.06757" lon="-13.4693">
        <ele>40.2</ele>
        <time>2021-07-02 15:15:25</time>
      </trkpt>
      <trkpt lat="29.06758" lon="-13.46933">
        <ele>40.6</ele>
        <time>2021-07-02 15:15:26</time>
      </trkpt>
      <trkpt lat="29.0676" lon="-13.46935">
        <ele>41.2</ele>
        <time>2021-07-02 15:15:27</time>
      </trkpt>
      <trkpt lat="29.06762" lon="-13.46937">
        <ele>41.2</ele>
        <time>2021-07-02 15:15:28</time>
      </trkpt>
      <trkpt lat="29.06764" lon="-13.4694">
        <ele>41.4</ele>
        <time>2021-07-02 15:15:29</time>
      </trkpt>
      <trkpt lat="29.06766" lon="-13.46942">
        <ele>41.4</ele>
        <time>2021-07-02 15:15:30</time>
      </trkpt>
      <trkpt lat="29.06768" lon="-13.46944">
        <ele>41.4</ele>
        <time>2021-07-02 15:15:31</time>
      </trkpt>
      <trkpt lat="29.06769" lon="-13.46947">
        <ele>41.4</ele>
        <time>2021-07-02 15:15:32</time>
      </trkpt>
      <trkpt lat="29.06771" lon="-13.46949">
        <ele>41.4</ele>
        <time>2021-07-02 15:15:33</time>
      </trkpt>
      <trkpt lat="29.06773" lon="-13.46951">
        <ele>42.2</ele>
        <time>2021-07-02 15:15:34</time>
      </trkpt>
      <trkpt lat="29.06775" lon="-13.46951">
        <ele>42.4</ele>
        <time>2021-07-02 15:15:35</time>
      </trkpt>
      <trkpt lat="29.06778" lon="-13.46951">
        <ele>42.4</ele>
        <time>2021-07-02 15:15:36</time>
      </trkpt>
      <trkpt lat="29.06781" lon="-13.46951">
        <ele>42.4</ele>
        <time>2021-07-02 15:15:37</time>
      </trkpt>
      <trkpt lat="29.06784" lon="-13.46952">
        <ele>41.6</ele>
        <time>2021-07-02 15:15:38</time>
      </trkpt>
      <trkpt lat="29.06787" lon="-13.46952">
        <ele>41.2</ele>
        <time>2021-07-02 15:15:39</time>
      </trkpt>
      <trkpt lat="29.0679" lon="-13.46953">
        <ele>41.2</ele>
        <time>2021-07-02 15:15:40</time>
      </trkpt>
      <trkpt lat="29.06792" lon="-13.46953">
        <ele>41.2</ele>
        <time>2021-07-02 15:15:41</time>
      </trkpt>
      <trkpt lat="29.06795" lon="-13.46953">
        <ele>41.2</ele>
        <time>2021-07-02 15:15:42</time>
      </trkpt>
      <trkpt lat="29.06797" lon="-13.46954">
        <ele>40.8</ele>
        <time>2021-07-02 15:15:43</time>
      </trkpt>
      <trkpt lat="29.068" lon="-13.46954">
        <ele>40.4</ele>
        <time>2021-07-02 15:15:44</time>
      </trkpt>
      <trkpt lat="29.06802" lon="-13.46955">
        <ele>40.4</ele>
        <time>2021-07-02 15:15:45</time>
      </trkpt>
      <trkpt lat="29.06805" lon="-13.46955">
        <ele>40.4</ele>
        <time>2021-07-02 15:15:46</time>
      </trkpt>
      <trkpt lat="29.06808" lon="-13.46956">
        <ele>40.4</ele>
        <time>2021-07-02 15:15:47</time>
      </trkpt>
      <trkpt lat="29.0681" lon="-13.46956">
        <ele>40.4</ele>
        <time>2021-07-02 15:15:48</time>
      </trkpt>
      <trkpt lat="29.06813" lon="-13.46956">
        <ele>40.4</ele>
        <time>2021-07-02 15:15:49</time>
      </trkpt>
      <trkpt lat="29.06815" lon="-13.46956">
        <ele>40.2</ele>
        <time>2021-07-02 15:15:50</time>
      </trkpt>
      <trkpt lat="29.06818" lon="-13.46956">
        <ele>40.8</ele>
        <time>2021-07-02 15:15:51</time>
      </trkpt>
      <trkpt lat="29.06821" lon="-13.46956">
        <ele>40.8</ele>
        <time>2021-07-02 15:15:52</time>
      </trkpt>
      <trkpt lat="29.06823" lon="-13.46957">
        <ele>40.8</ele>
        <time>2021-07-02 15:15:53</time>
      </trkpt>
      <trkpt lat="29.06825" lon="-13.46958">
        <ele>40.8</ele>
        <time>2021-07-02 15:15:54</time>
      </trkpt>
      <trkpt lat="29.06827" lon="-13.46959">
        <ele>40.8</ele>
        <time>2021-07-02 15:15:55</time>
      </trkpt>
      <trkpt lat="29.06829" lon="-13.4696">
        <ele>41.2</ele>
        <time>2021-07-02 15:15:56</time>
      </trkpt>
      <trkpt lat="29.06831" lon="-13.46962">
        <ele>41.2</ele>
        <time>2021-07-02 15:15:57</time>
      </trkpt>
      <trkpt lat="29.06834" lon="-13.46963">
        <ele>41.2</ele>
        <time>2021-07-02 15:15:58</time>
      </trkpt>
      <trkpt lat="29.06836" lon="-13.46964">
        <ele>41.2</ele>
        <time>2021-07-02 15:15:59</time>
      </trkpt>
      <trkpt lat="29.06838" lon="-13.46964">
        <ele>41.4</ele>
        <time>2021-07-02 15:16:00</time>
      </trkpt>
      <trkpt lat="29.06841" lon="-13.46965">
        <ele>41</ele>
        <time>2021-07-02 15:16:01</time>
      </trkpt>
      <trkpt lat="29.06843" lon="-13.46965">
        <ele>41.4</ele>
        <time>2021-07-02 15:16:02</time>
      </trkpt>
      <trkpt lat="29.06845" lon="-13.46966">
        <ele>41.4</ele>
        <time>2021-07-02 15:16:03</time>
      </trkpt>
      <trkpt lat="29.06848" lon="-13.46966">
        <ele>41.4</ele>
        <time>2021-07-02 15:16:04</time>
      </trkpt>
      <trkpt lat="29.0685" lon="-13.46967">
        <ele>41.8</ele>
        <time>2021-07-02 15:16:05</time>
      </trkpt>
      <trkpt lat="29.06851" lon="-13.46967">
        <ele>41.8</ele>
        <time>2021-07-02 15:16:06</time>
      </trkpt>
      <trkpt lat="29.06853" lon="-13.46967">
        <ele>41.8</ele>
        <time>2021-07-02 15:16:07</time>
      </trkpt>
      <trkpt lat="29.06855" lon="-13.46968">
        <ele>42</ele>
        <time>2021-07-02 15:16:08</time>
      </trkpt>
      <trkpt lat="29.06858" lon="-13.46968">
        <ele>42</ele>
        <time>2021-07-02 15:16:09</time>
      </trkpt>
      <trkpt lat="29.0686" lon="-13.46968">
        <ele>42</ele>
        <time>2021-07-02 15:16:10</time>
      </trkpt>
      <trkpt lat="29.06863" lon="-13.46967">
        <ele>42</ele>
        <time>2021-07-02 15:16:11</time>
      </trkpt>
      <trkpt lat="29.06865" lon="-13.46967">
        <ele>41.8</ele>
        <time>2021-07-02 15:16:12</time>
      </trkpt>
      <trkpt lat="29.06868" lon="-13.46967">
        <ele>41.6</ele>
        <time>2021-07-02 15:16:13</time>
      </trkpt>
      <trkpt lat="29.0687" lon="-13.46967">
        <ele>41.8</ele>
        <time>2021-07-02 15:16:14</time>
      </trkpt>
      <trkpt lat="29.06873" lon="-13.46966">
        <ele>42</ele>
        <time>2021-07-02 15:16:15</time>
      </trkpt>
      <trkpt lat="29.06875" lon="-13.46965">
        <ele>42.4</ele>
        <time>2021-07-02 15:16:16</time>
      </trkpt>
      <trkpt lat="29.06878" lon="-13.46964">
        <ele>42.4</ele>
        <time>2021-07-02 15:16:17</time>
      </trkpt>
      <trkpt lat="29.0688" lon="-13.46962">
        <ele>42.4</ele>
        <time>2021-07-02 15:16:18</time>
      </trkpt>
      <trkpt lat="29.06883" lon="-13.46961">
        <ele>42.4</ele>
        <time>2021-07-02 15:16:19</time>
      </trkpt>
      <trkpt lat="29.06885" lon="-13.46959">
        <ele>42.4</ele>
        <time>2021-07-02 15:16:20</time>
      </trkpt>
      <trkpt lat="29.06888" lon="-13.46958">
        <ele>42.8</ele>
        <time>2021-07-02 15:16:21</time>
      </trkpt>
      <trkpt lat="29.06891" lon="-13.46957">
        <ele>42.8</ele>
        <time>2021-07-02 15:16:22</time>
      </trkpt>
      <trkpt lat="29.06894" lon="-13.46955">
        <ele>42.8</ele>
        <time>2021-07-02 15:16:23</time>
      </trkpt>
      <trkpt lat="29.06897" lon="-13.46954">
        <ele>42.8</ele>
        <time>2021-07-02 15:16:24</time>
      </trkpt>
      <trkpt lat="29.069" lon="-13.46953">
        <ele>43.2</ele>
        <time>2021-07-02 15:16:25</time>
      </trkpt>
      <trkpt lat="29.06902" lon="-13.46952">
        <ele>43.2</ele>
        <time>2021-07-02 15:16:26</time>
      </trkpt>
      <trkpt lat="29.06904" lon="-13.46951">
        <ele>43.2</ele>
        <time>2021-07-02 15:16:27</time>
      </trkpt>
      <trkpt lat="29.06907" lon="-13.4695">
        <ele>43.2</ele>
        <time>2021-07-02 15:16:28</time>
      </trkpt>
      <trkpt lat="29.06909" lon="-13.46949">
        <ele>43.2</ele>
        <time>2021-07-02 15:16:29</time>
      </trkpt>
      <trkpt lat="29.06912" lon="-13.46948">
        <ele>43.4</ele>
        <time>2021-07-02 15:16:30</time>
      </trkpt>
      <trkpt lat="29.06914" lon="-13.46947">
        <ele>43.4</ele>
        <time>2021-07-02 15:16:31</time>
      </trkpt>
      <trkpt lat="29.06917" lon="-13.46946">
        <ele>43.8</ele>
        <time>2021-07-02 15:16:32</time>
      </trkpt>
      <trkpt lat="29.06919" lon="-13.46945">
        <ele>43</ele>
        <time>2021-07-02 15:16:33</time>
      </trkpt>
      <trkpt lat="29.06922" lon="-13.46943">
        <ele>43</ele>
        <time>2021-07-02 15:16:34</time>
      </trkpt>
      <trkpt lat="29.06924" lon="-13.46942">
        <ele>43</ele>
        <time>2021-07-02 15:16:35</time>
      </trkpt>
      <trkpt lat="29.06927" lon="-13.4694">
        <ele>43</ele>
        <time>2021-07-02 15:16:36</time>
      </trkpt>
      <trkpt lat="29.06929" lon="-13.46938">
        <ele>43</ele>
        <time>2021-07-02 15:16:37</time>
      </trkpt>
      <trkpt lat="29.06932" lon="-13.46936">
        <ele>43.6</ele>
        <time>2021-07-02 15:16:38</time>
      </trkpt>
      <trkpt lat="29.06934" lon="-13.46935">
        <ele>43.6</ele>
        <time>2021-07-02 15:16:39</time>
      </trkpt>
      <trkpt lat="29.06937" lon="-13.46933">
        <ele>43.2</ele>
        <time>2021-07-02 15:16:40</time>
      </trkpt>
      <trkpt lat="29.0694" lon="-13.46932">
        <ele>43.2</ele>
        <time>2021-07-02 15:16:41</time>
      </trkpt>
      <trkpt lat="29.06943" lon="-13.4693">
        <ele>43.2</ele>
        <time>2021-07-02 15:16:42</time>
      </trkpt>
      <trkpt lat="29.06946" lon="-13.46928">
        <ele>43.6</ele>
        <time>2021-07-02 15:16:43</time>
      </trkpt>
      <trkpt lat="29.06949" lon="-13.46926">
        <ele>43.6</ele>
        <time>2021-07-02 15:16:44</time>
      </trkpt>
      <trkpt lat="29.06952" lon="-13.46925">
        <ele>44.4</ele>
        <time>2021-07-02 15:16:45</time>
      </trkpt>
      <trkpt lat="29.06955" lon="-13.46923">
        <ele>43.8</ele>
        <time>2021-07-02 15:16:46</time>
      </trkpt>
      <trkpt lat="29.06958" lon="-13.46922">
        <ele>43.4</ele>
        <time>2021-07-02 15:16:47</time>
      </trkpt>
      <trkpt lat="29.06961" lon="-13.4692">
        <ele>43.4</ele>
        <time>2021-07-02 15:16:48</time>
      </trkpt>
      <trkpt lat="29.06964" lon="-13.46919">
        <ele>43</ele>
        <time>2021-07-02 15:16:49</time>
      </trkpt>
      <trkpt lat="29.06966" lon="-13.46917">
        <ele>42.6</ele>
        <time>2021-07-02 15:16:50</time>
      </trkpt>
      <trkpt lat="29.06969" lon="-13.46915">
        <ele>42.2</ele>
        <time>2021-07-02 15:16:51</time>
      </trkpt>
      <trkpt lat="29.06971" lon="-13.46914">
        <ele>42.2</ele>
        <time>2021-07-02 15:16:52</time>
      </trkpt>
      <trkpt lat="29.06974" lon="-13.46912">
        <ele>42.2</ele>
        <time>2021-07-02 15:16:53</time>
      </trkpt>
      <trkpt lat="29.06976" lon="-13.4691">
        <ele>42.2</ele>
        <time>2021-07-02 15:16:54</time>
      </trkpt>
      <trkpt lat="29.06979" lon="-13.46908">
        <ele>43.6</ele>
        <time>2021-07-02 15:16:55</time>
      </trkpt>
      <trkpt lat="29.06983" lon="-13.46906">
        <ele>43</ele>
        <time>2021-07-02 15:16:56</time>
      </trkpt>
      <trkpt lat="29.06986" lon="-13.46904">
        <ele>43</ele>
        <time>2021-07-02 15:16:57</time>
      </trkpt>
      <trkpt lat="29.0699" lon="-13.46902">
        <ele>43.6</ele>
        <time>2021-07-02 15:16:58</time>
      </trkpt>
      <trkpt lat="29.07004" lon="-13.46891">
        <ele>42.2</ele>
        <time>2021-07-02 15:16:59</time>
      </trkpt>
      <trkpt lat="29.07008" lon="-13.46888">
        <ele>41.8</ele>
        <time>2021-07-02 15:17:00</time>
      </trkpt>
      <trkpt lat="29.07011" lon="-13.46885">
        <ele>41.8</ele>
        <time>2021-07-02 15:17:01</time>
      </trkpt>
      <trkpt lat="29.07014" lon="-13.46882">
        <ele>41.4</ele>
        <time>2021-07-02 15:17:02</time>
      </trkpt>
      <trkpt lat="29.07017" lon="-13.4688">
        <ele>40.6</ele>
        <time>2021-07-02 15:17:03</time>
      </trkpt>
      <trkpt lat="29.0702" lon="-13.46877">
        <ele>40.2</ele>
        <time>2021-07-02 15:17:04</time>
      </trkpt>
      <trkpt lat="29.07023" lon="-13.46875">
        <ele>40.2</ele>
        <time>2021-07-02 15:17:05</time>
      </trkpt>
      <trkpt lat="29.07026" lon="-13.46873">
        <ele>40.2</ele>
        <time>2021-07-02 15:17:06</time>
      </trkpt>
      <trkpt lat="29.07029" lon="-13.46871">
        <ele>40.2</ele>
        <time>2021-07-02 15:17:07</time>
      </trkpt>
      <trkpt lat="29.07032" lon="-13.46869">
        <ele>40.2</ele>
        <time>2021-07-02 15:17:08</time>
      </trkpt>
      <trkpt lat="29.07035" lon="-13.46867">
        <ele>41.4</ele>
        <time>2021-07-02 15:17:09</time>
      </trkpt>
      <trkpt lat="29.07038" lon="-13.46866">
        <ele>41.4</ele>
        <time>2021-07-02 15:17:10</time>
      </trkpt>
      <trkpt lat="29.0704" lon="-13.46864">
        <ele>41</ele>
        <time>2021-07-02 15:17:11</time>
      </trkpt>
      <trkpt lat="29.07043" lon="-13.46862">
        <ele>41.4</ele>
        <time>2021-07-02 15:17:12</time>
      </trkpt>
      <trkpt lat="29.07045" lon="-13.46861">
        <ele>41.4</ele>
        <time>2021-07-02 15:17:13</time>
      </trkpt>
      <trkpt lat="29.07048" lon="-13.46859">
        <ele>41.4</ele>
        <time>2021-07-02 15:17:14</time>
      </trkpt>
      <trkpt lat="29.0705" lon="-13.46858">
        <ele>41.8</ele>
        <time>2021-07-02 15:17:15</time>
      </trkpt>
      <trkpt lat="29.07053" lon="-13.46857">
        <ele>42.2</ele>
        <time>2021-07-02 15:17:16</time>
      </trkpt>
      <trkpt lat="29.07055" lon="-13.46856">
        <ele>42.6</ele>
        <time>2021-07-02 15:17:17</time>
      </trkpt>
      <trkpt lat="29.07057" lon="-13.46854">
        <ele>42.8</ele>
        <time>2021-07-02 15:17:18</time>
      </trkpt>
      <trkpt lat="29.07062" lon="-13.46851">
        <ele>43.4</ele>
        <time>2021-07-02 15:17:19</time>
      </trkpt>
      <trkpt lat="29.07064" lon="-13.46849">
        <ele>43.6</ele>
        <time>2021-07-02 15:17:20</time>
      </trkpt>
      <trkpt lat="29.07067" lon="-13.46847">
        <ele>44</ele>
        <time>2021-07-02 15:17:21</time>
      </trkpt>
      <trkpt lat="29.07069" lon="-13.46846">
        <ele>44.2</ele>
        <time>2021-07-02 15:17:22</time>
      </trkpt>
      <trkpt lat="29.07072" lon="-13.46844">
        <ele>44.2</ele>
        <time>2021-07-02 15:17:23</time>
      </trkpt>
      <trkpt lat="29.07075" lon="-13.46842">
        <ele>44.2</ele>
        <time>2021-07-02 15:17:24</time>
      </trkpt>
      <trkpt lat="29.07078" lon="-13.4684">
        <ele>44.2</ele>
        <time>2021-07-02 15:17:25</time>
      </trkpt>
      <trkpt lat="29.0708" lon="-13.46838">
        <ele>44.4</ele>
        <time>2021-07-02 15:17:26</time>
      </trkpt>
      <trkpt lat="29.07083" lon="-13.46836">
        <ele>44.8</ele>
        <time>2021-07-02 15:17:27</time>
      </trkpt>
      <trkpt lat="29.07085" lon="-13.46834">
        <ele>45.4</ele>
        <time>2021-07-02 15:17:28</time>
      </trkpt>
      <trkpt lat="29.07088" lon="-13.46832">
        <ele>45.8</ele>
        <time>2021-07-02 15:17:29</time>
      </trkpt>
      <trkpt lat="29.07091" lon="-13.46829">
        <ele>45.4</ele>
        <time>2021-07-02 15:17:30</time>
      </trkpt>
      <trkpt lat="29.07094" lon="-13.46827">
        <ele>45.4</ele>
        <time>2021-07-02 15:17:31</time>
      </trkpt>
      <trkpt lat="29.07097" lon="-13.46825">
        <ele>45.4</ele>
        <time>2021-07-02 15:17:32</time>
      </trkpt>
      <trkpt lat="29.07099" lon="-13.46823">
        <ele>45.4</ele>
        <time>2021-07-02 15:17:33</time>
      </trkpt>
      <trkpt lat="29.07101" lon="-13.46821">
        <ele>45</ele>
        <time>2021-07-02 15:17:34</time>
      </trkpt>
      <trkpt lat="29.07103" lon="-13.4682">
        <ele>45.6</ele>
        <time>2021-07-02 15:17:35</time>
      </trkpt>
      <trkpt lat="29.07106" lon="-13.46818">
        <ele>45.2</ele>
        <time>2021-07-02 15:17:36</time>
      </trkpt>
      <trkpt lat="29.07108" lon="-13.46816">
        <ele>45.2</ele>
        <time>2021-07-02 15:17:37</time>
      </trkpt>
      <trkpt lat="29.07111" lon="-13.46815">
        <ele>45</ele>
        <time>2021-07-02 15:17:38</time>
      </trkpt>
      <trkpt lat="29.07113" lon="-13.46813">
        <ele>45</ele>
        <time>2021-07-02 15:17:39</time>
      </trkpt>
      <trkpt lat="29.07116" lon="-13.46811">
        <ele>45</ele>
        <time>2021-07-02 15:17:40</time>
      </trkpt>
      <trkpt lat="29.07118" lon="-13.4681">
        <ele>45</ele>
        <time>2021-07-02 15:17:41</time>
      </trkpt>
      <trkpt lat="29.07121" lon="-13.46808">
        <ele>45</ele>
        <time>2021-07-02 15:17:42</time>
      </trkpt>
      <trkpt lat="29.07123" lon="-13.46806">
        <ele>45.2</ele>
        <time>2021-07-02 15:17:43</time>
      </trkpt>
      <trkpt lat="29.07126" lon="-13.46805">
        <ele>45.2</ele>
        <time>2021-07-02 15:17:44</time>
      </trkpt>
      <trkpt lat="29.07128" lon="-13.46803">
        <ele>45.6</ele>
        <time>2021-07-02 15:17:45</time>
      </trkpt>
      <trkpt lat="29.07131" lon="-13.46801">
        <ele>45.8</ele>
        <time>2021-07-02 15:17:46</time>
      </trkpt>
      <trkpt lat="29.07133" lon="-13.46799">
        <ele>46.6</ele>
        <time>2021-07-02 15:17:47</time>
      </trkpt>
      <trkpt lat="29.07136" lon="-13.46797">
        <ele>46.6</ele>
        <time>2021-07-02 15:17:48</time>
      </trkpt>
      <trkpt lat="29.0714" lon="-13.46794">
        <ele>46.6</ele>
        <time>2021-07-02 15:17:49</time>
      </trkpt>
      <trkpt lat="29.07143" lon="-13.46792">
        <ele>46.2</ele>
        <time>2021-07-02 15:17:50</time>
      </trkpt>
      <trkpt lat="29.07146" lon="-13.46789">
        <ele>46.8</ele>
        <time>2021-07-02 15:17:51</time>
      </trkpt>
      <trkpt lat="29.07149" lon="-13.46786">
        <ele>46.8</ele>
        <time>2021-07-02 15:17:52</time>
      </trkpt>
      <trkpt lat="29.07153" lon="-13.46784">
        <ele>46.4</ele>
        <time>2021-07-02 15:17:53</time>
      </trkpt>
      <trkpt lat="29.07156" lon="-13.46782">
        <ele>45.8</ele>
        <time>2021-07-02 15:17:54</time>
      </trkpt>
      <trkpt lat="29.07158" lon="-13.4678">
        <ele>45.8</ele>
        <time>2021-07-02 15:17:55</time>
      </trkpt>
      <trkpt lat="29.07161" lon="-13.4678">
        <ele>45.4</ele>
        <time>2021-07-02 15:17:56</time>
      </trkpt>
      <trkpt lat="29.07163" lon="-13.4678">
        <ele>45.2</ele>
        <time>2021-07-02 15:17:57</time>
      </trkpt>
      <trkpt lat="29.07165" lon="-13.46781">
        <ele>44.4</ele>
        <time>2021-07-02 15:17:58</time>
      </trkpt>
      <trkpt lat="29.07167" lon="-13.46783">
        <ele>44.2</ele>
        <time>2021-07-02 15:17:59</time>
      </trkpt>
      <trkpt lat="29.07168" lon="-13.46786">
        <ele>44.2</ele>
        <time>2021-07-02 15:18:00</time>
      </trkpt>
      <trkpt lat="29.07168" lon="-13.46789">
        <ele>44</ele>
        <time>2021-07-02 15:18:01</time>
      </trkpt>
      <trkpt lat="29.07168" lon="-13.46792">
        <ele>44</ele>
        <time>2021-07-02 15:18:02</time>
      </trkpt>
      <trkpt lat="29.07169" lon="-13.46795">
        <ele>44</ele>
        <time>2021-07-02 15:18:03</time>
      </trkpt>
      <trkpt lat="29.07169" lon="-13.46798">
        <ele>43.4</ele>
        <time>2021-07-02 15:18:04</time>
      </trkpt>
      <trkpt lat="29.07169" lon="-13.46801">
        <ele>43.4</ele>
        <time>2021-07-02 15:18:05</time>
      </trkpt>
      <trkpt lat="29.07169" lon="-13.46803">
        <ele>43.4</ele>
        <time>2021-07-02 15:18:06</time>
      </trkpt>
      <trkpt lat="29.07169" lon="-13.46805">
        <ele>43.4</ele>
        <time>2021-07-02 15:18:07</time>
      </trkpt>
      <trkpt lat="29.0717" lon="-13.46807">
        <ele>43.6</ele>
        <time>2021-07-02 15:18:08</time>
      </trkpt>
      <trkpt lat="29.0717" lon="-13.46809">
        <ele>43.6</ele>
        <time>2021-07-02 15:18:09</time>
      </trkpt>
      <trkpt lat="29.07171" lon="-13.46812">
        <ele>44.4</ele>
        <time>2021-07-02 15:18:10</time>
      </trkpt>
      <trkpt lat="29.07171" lon="-13.46814">
        <ele>44.8</ele>
        <time>2021-07-02 15:18:11</time>
      </trkpt>
      <trkpt lat="29.07172" lon="-13.46817">
        <ele>45.2</ele>
        <time>2021-07-02 15:18:12</time>
      </trkpt>
      <trkpt lat="29.07173" lon="-13.46819">
        <ele>45.2</ele>
        <time>2021-07-02 15:18:13</time>
      </trkpt>
      <trkpt lat="29.07173" lon="-13.46822">
        <ele>45.6</ele>
        <time>2021-07-02 15:18:14</time>
      </trkpt>
      <trkpt lat="29.07173" lon="-13.46825">
        <ele>46.2</ele>
        <time>2021-07-02 15:18:15</time>
      </trkpt>
      <trkpt lat="29.07174" lon="-13.46828">
        <ele>46.2</ele>
        <time>2021-07-02 15:18:16</time>
      </trkpt>
      <trkpt lat="29.07174" lon="-13.46831">
        <ele>46</ele>
        <time>2021-07-02 15:18:17</time>
      </trkpt>
      <trkpt lat="29.07175" lon="-13.46834">
        <ele>46</ele>
        <time>2021-07-02 15:18:18</time>
      </trkpt>
      <trkpt lat="29.07175" lon="-13.46837">
        <ele>46</ele>
        <time>2021-07-02 15:18:19</time>
      </trkpt>
      <trkpt lat="29.07175" lon="-13.4684">
        <ele>46</ele>
        <time>2021-07-02 15:18:20</time>
      </trkpt>
      <trkpt lat="29.07176" lon="-13.46843">
        <ele>46</ele>
        <time>2021-07-02 15:18:21</time>
      </trkpt>
      <trkpt lat="29.07176" lon="-13.46847">
        <ele>46</ele>
        <time>2021-07-02 15:18:22</time>
      </trkpt>
      <trkpt lat="29.07176" lon="-13.4685">
        <ele>46.4</ele>
        <time>2021-07-02 15:18:23</time>
      </trkpt>
      <trkpt lat="29.07176" lon="-13.46853">
        <ele>46.4</ele>
        <time>2021-07-02 15:18:24</time>
      </trkpt>
      <trkpt lat="29.07177" lon="-13.46856">
        <ele>46.4</ele>
        <time>2021-07-02 15:18:25</time>
      </trkpt>
      <trkpt lat="29.07177" lon="-13.46859">
        <ele>46.6</ele>
        <time>2021-07-02 15:18:26</time>
      </trkpt>
      <trkpt lat="29.07177" lon="-13.46862">
        <ele>46.6</ele>
        <time>2021-07-02 15:18:27</time>
      </trkpt>
      <trkpt lat="29.07177" lon="-13.46865">
        <ele>46.6</ele>
        <time>2021-07-02 15:18:28</time>
      </trkpt>
      <trkpt lat="29.07177" lon="-13.46868">
        <ele>47</ele>
        <time>2021-07-02 15:18:29</time>
      </trkpt>
      <trkpt lat="29.07177" lon="-13.46871">
        <ele>47</ele>
        <time>2021-07-02 15:18:30</time>
      </trkpt>
      <trkpt lat="29.07177" lon="-13.46874">
        <ele>46.8</ele>
        <time>2021-07-02 15:18:31</time>
      </trkpt>
      <trkpt lat="29.07178" lon="-13.46877">
        <ele>46.8</ele>
        <time>2021-07-02 15:18:32</time>
      </trkpt>
      <trkpt lat="29.07178" lon="-13.46879">
        <ele>46.8</ele>
        <time>2021-07-02 15:18:33</time>
      </trkpt>
      <trkpt lat="29.07178" lon="-13.46882">
        <ele>47.4</ele>
        <time>2021-07-02 15:18:34</time>
      </trkpt>
      <trkpt lat="29.07178" lon="-13.46884">
        <ele>47.4</ele>
        <time>2021-07-02 15:18:35</time>
      </trkpt>
      <trkpt lat="29.07178" lon="-13.46887">
        <ele>47.4</ele>
        <time>2021-07-02 15:18:36</time>
      </trkpt>
      <trkpt lat="29.07178" lon="-13.46889">
        <ele>47.8</ele>
        <time>2021-07-02 15:18:37</time>
      </trkpt>
      <trkpt lat="29.07179" lon="-13.46892">
        <ele>47.8</ele>
        <time>2021-07-02 15:18:38</time>
      </trkpt>
      <trkpt lat="29.07179" lon="-13.46894">
        <ele>47.8</ele>
        <time>2021-07-02 15:18:39</time>
      </trkpt>
      <trkpt lat="29.07179" lon="-13.46896">
        <ele>47.8</ele>
        <time>2021-07-02 15:18:40</time>
      </trkpt>
      <trkpt lat="29.07179" lon="-13.46899">
        <ele>47.8</ele>
        <time>2021-07-02 15:18:41</time>
      </trkpt>
      <trkpt lat="29.0718" lon="-13.46901">
        <ele>47.8</ele>
        <time>2021-07-02 15:18:42</time>
      </trkpt>
      <trkpt lat="29.0718" lon="-13.46904">
        <ele>48</ele>
        <time>2021-07-02 15:18:43</time>
      </trkpt>
      <trkpt lat="29.07181" lon="-13.46906">
        <ele>48.4</ele>
        <time>2021-07-02 15:18:44</time>
      </trkpt>
      <trkpt lat="29.07182" lon="-13.46908">
        <ele>48.4</ele>
        <time>2021-07-02 15:18:45</time>
      </trkpt>
      <trkpt lat="29.07182" lon="-13.4691">
        <ele>48.8</ele>
        <time>2021-07-02 15:18:46</time>
      </trkpt>
      <trkpt lat="29.07182" lon="-13.4691">
        <ele>49</ele>
        <time>2021-07-02 15:18:47</time>
      </trkpt>
      <trkpt lat="29.07183" lon="-13.46912">
        <ele>49</ele>
        <time>2021-07-02 15:18:48</time>
      </trkpt>
      <trkpt lat="29.07184" lon="-13.46914">
        <ele>49</ele>
        <time>2021-07-02 15:18:49</time>
      </trkpt>
      <trkpt lat="29.07185" lon="-13.46916">
        <ele>49.4</ele>
        <time>2021-07-02 15:18:50</time>
      </trkpt>
      <trkpt lat="29.07185" lon="-13.46917">
        <ele>49.6</ele>
        <time>2021-07-02 15:18:51</time>
      </trkpt>
      <trkpt lat="29.07186" lon="-13.46919">
        <ele>50.2</ele>
        <time>2021-07-02 15:18:52</time>
      </trkpt>
      <trkpt lat="29.07187" lon="-13.46921">
        <ele>50.6</ele>
        <time>2021-07-02 15:18:53</time>
      </trkpt>
      <trkpt lat="29.07187" lon="-13.46922">
        <ele>50.6</ele>
        <time>2021-07-02 15:18:54</time>
      </trkpt>
      <trkpt lat="29.07188" lon="-13.46924">
        <ele>50.6</ele>
        <time>2021-07-02 15:18:55</time>
      </trkpt>
      <trkpt lat="29.07189" lon="-13.46925">
        <ele>51</ele>
        <time>2021-07-02 15:18:56</time>
      </trkpt>
      <trkpt lat="29.0719" lon="-13.46926">
        <ele>51.4</ele>
        <time>2021-07-02 15:18:57</time>
      </trkpt>
      <trkpt lat="29.0719" lon="-13.46928">
        <ele>51.4</ele>
        <time>2021-07-02 15:18:58</time>
      </trkpt>
      <trkpt lat="29.07191" lon="-13.46929">
        <ele>52.4</ele>
        <time>2021-07-02 15:18:59</time>
      </trkpt>
      <trkpt lat="29.07192" lon="-13.4693">
        <ele>52.8</ele>
        <time>2021-07-02 15:19:00</time>
      </trkpt>
      <trkpt lat="29.07192" lon="-13.46931">
        <ele>52.8</ele>
        <time>2021-07-02 15:19:01</time>
      </trkpt>
      <trkpt lat="29.07192" lon="-13.46931">
        <ele>52.8</ele>
        <time>2021-07-02 15:19:02</time>
      </trkpt>
      <trkpt lat="29.07192" lon="-13.46931">
        <ele>52.8</ele>
        <time>2021-07-02 15:19:03</time>
      </trkpt>
      <trkpt lat="29.07192" lon="-13.46931">
        <ele>52.4</ele>
        <time>2021-07-02 15:19:04</time>
      </trkpt>
      <trkpt lat="29.07193" lon="-13.46933">
        <ele>52.4</ele>
        <time>2021-07-02 15:19:05</time>
      </trkpt>
      <trkpt lat="29.07193" lon="-13.46934">
        <ele>52.6</ele>
        <time>2021-07-02 15:19:06</time>
      </trkpt>
      <trkpt lat="29.07194" lon="-13.46936">
        <ele>52.6</ele>
        <time>2021-07-02 15:19:07</time>
      </trkpt>
      <trkpt lat="29.07194" lon="-13.46937">
        <ele>52.8</ele>
        <time>2021-07-02 15:19:08</time>
      </trkpt>
      <trkpt lat="29.07194" lon="-13.46938">
        <ele>53.2</ele>
        <time>2021-07-02 15:19:09</time>
      </trkpt>
      <trkpt lat="29.07195" lon="-13.46938">
        <ele>53.4</ele>
        <time>2021-07-02 15:19:10</time>
      </trkpt>
      <trkpt lat="29.07195" lon="-13.46939">
        <ele>53.4</ele>
        <time>2021-07-02 15:19:11</time>
      </trkpt>
      <trkpt lat="29.07196" lon="-13.4694">
        <ele>53.4</ele>
        <time>2021-07-02 15:19:12</time>
      </trkpt>
      <trkpt lat="29.07196" lon="-13.46941">
        <ele>53.6</ele>
        <time>2021-07-02 15:19:13</time>
      </trkpt>
      <trkpt lat="29.07196" lon="-13.46942">
        <ele>53.6</ele>
        <time>2021-07-02 15:19:14</time>
      </trkpt>
      <trkpt lat="29.07196" lon="-13.46943">
        <ele>54.4</ele>
        <time>2021-07-02 15:19:15</time>
      </trkpt>
      <trkpt lat="29.07197" lon="-13.46944">
        <ele>54.4</ele>
        <time>2021-07-02 15:19:16</time>
      </trkpt>
      <trkpt lat="29.07197" lon="-13.46945">
        <ele>54.4</ele>
        <time>2021-07-02 15:19:17</time>
      </trkpt>
      <trkpt lat="29.07198" lon="-13.46946">
        <ele>54.4</ele>
        <time>2021-07-02 15:19:18</time>
      </trkpt>
      <trkpt lat="29.07198" lon="-13.46947">
        <ele>54.4</ele>
        <time>2021-07-02 15:19:19</time>
      </trkpt>
      <trkpt lat="29.07199" lon="-13.46947">
        <ele>54.4</ele>
        <time>2021-07-02 15:19:20</time>
      </trkpt>
      <trkpt lat="29.07199" lon="-13.46948">
        <ele>54.4</ele>
        <time>2021-07-02 15:19:21</time>
      </trkpt>
      <trkpt lat="29.072" lon="-13.46949">
        <ele>54.4</ele>
        <time>2021-07-02 15:19:22</time>
      </trkpt>
      <trkpt lat="29.072" lon="-13.4695">
        <ele>54.8</ele>
        <time>2021-07-02 15:19:23</time>
      </trkpt>
      <trkpt lat="29.07201" lon="-13.46951">
        <ele>54.8</ele>
        <time>2021-07-02 15:19:24</time>
      </trkpt>
      <trkpt lat="29.07201" lon="-13.46952">
        <ele>54.8</ele>
        <time>2021-07-02 15:19:25</time>
      </trkpt>
      <trkpt lat="29.07202" lon="-13.46952">
        <ele>55.2</ele>
        <time>2021-07-02 15:19:26</time>
      </trkpt>
      <trkpt lat="29.07203" lon="-13.46953">
        <ele>55.2</ele>
        <time>2021-07-02 15:19:27</time>
      </trkpt>
      <trkpt lat="29.07203" lon="-13.46954">
        <ele>55.2</ele>
        <time>2021-07-02 15:19:28</time>
      </trkpt>
      <trkpt lat="29.07204" lon="-13.46955">
        <ele>55.2</ele>
        <time>2021-07-02 15:19:29</time>
      </trkpt>
      <trkpt lat="29.07204" lon="-13.46956">
        <ele>55.2</ele>
        <time>2021-07-02 15:19:30</time>
      </trkpt>
      <trkpt lat="29.07205" lon="-13.46957">
        <ele>55.4</ele>
        <time>2021-07-02 15:19:31</time>
      </trkpt>
      <trkpt lat="29.07205" lon="-13.46958">
        <ele>55.8</ele>
        <time>2021-07-02 15:19:32</time>
      </trkpt>
      <trkpt lat="29.07206" lon="-13.46959">
        <ele>55.8</ele>
        <time>2021-07-02 15:19:33</time>
      </trkpt>
      <trkpt lat="29.07206" lon="-13.46959">
        <ele>55.8</ele>
        <time>2021-07-02 15:19:34</time>
      </trkpt>
      <trkpt lat="29.07207" lon="-13.4696">
        <ele>56</ele>
        <time>2021-07-02 15:19:35</time>
      </trkpt>
      <trkpt lat="29.07207" lon="-13.46961">
        <ele>56</ele>
        <time>2021-07-02 15:19:36</time>
      </trkpt>
      <trkpt lat="29.07208" lon="-13.46962">
        <ele>56</ele>
        <time>2021-07-02 15:19:37</time>
      </trkpt>
      <trkpt lat="29.07208" lon="-13.46963">
        <ele>56.4</ele>
        <time>2021-07-02 15:19:38</time>
      </trkpt>
      <trkpt lat="29.07209" lon="-13.46964">
        <ele>56.4</ele>
        <time>2021-07-02 15:19:39</time>
      </trkpt>
      <trkpt lat="29.07209" lon="-13.46965">
        <ele>56.4</ele>
        <time>2021-07-02 15:19:40</time>
      </trkpt>
      <trkpt lat="29.0721" lon="-13.46965">
        <ele>56.6</ele>
        <time>2021-07-02 15:19:41</time>
      </trkpt>
      <trkpt lat="29.0721" lon="-13.46966">
        <ele>56.6</ele>
        <time>2021-07-02 15:19:42</time>
      </trkpt>
      <trkpt lat="29.07211" lon="-13.46967">
        <ele>57</ele>
        <time>2021-07-02 15:19:43</time>
      </trkpt>
      <trkpt lat="29.07211" lon="-13.46968">
        <ele>57</ele>
        <time>2021-07-02 15:19:44</time>
      </trkpt>
      <trkpt lat="29.07212" lon="-13.46969">
        <ele>57</ele>
        <time>2021-07-02 15:19:45</time>
      </trkpt>
      <trkpt lat="29.07213" lon="-13.4697">
        <ele>57.2</ele>
        <time>2021-07-02 15:19:46</time>
      </trkpt>
      <trkpt lat="29.07213" lon="-13.46971">
        <ele>57.2</ele>
        <time>2021-07-02 15:19:47</time>
      </trkpt>
      <trkpt lat="29.07214" lon="-13.46972">
        <ele>57.6</ele>
        <time>2021-07-02 15:19:48</time>
      </trkpt>
      <trkpt lat="29.07214" lon="-13.46973">
        <ele>57.8</ele>
        <time>2021-07-02 15:19:49</time>
      </trkpt>
      <trkpt lat="29.07215" lon="-13.46974">
        <ele>57.8</ele>
        <time>2021-07-02 15:19:50</time>
      </trkpt>
      <trkpt lat="29.07215" lon="-13.46975">
        <ele>58</ele>
        <time>2021-07-02 15:19:51</time>
      </trkpt>
      <trkpt lat="29.07216" lon="-13.46975">
        <ele>58</ele>
        <time>2021-07-02 15:19:52</time>
      </trkpt>
      <trkpt lat="29.07216" lon="-13.46976">
        <ele>58</ele>
        <time>2021-07-02 15:19:53</time>
      </trkpt>
      <trkpt lat="29.07217" lon="-13.46977">
        <ele>58</ele>
        <time>2021-07-02 15:19:54</time>
      </trkpt>
      <trkpt lat="29.07218" lon="-13.46978">
        <ele>58</ele>
        <time>2021-07-02 15:19:55</time>
      </trkpt>
      <trkpt lat="29.07218" lon="-13.46979">
        <ele>58</ele>
        <time>2021-07-02 15:19:56</time>
      </trkpt>
      <trkpt lat="29.07219" lon="-13.46979">
        <ele>58.6</ele>
        <time>2021-07-02 15:19:57</time>
      </trkpt>
      <trkpt lat="29.0722" lon="-13.4698">
        <ele>59</ele>
        <time>2021-07-02 15:19:58</time>
      </trkpt>
      <trkpt lat="29.0722" lon="-13.46981">
        <ele>59</ele>
        <time>2021-07-02 15:20:01</time>
      </trkpt>
      <trkpt lat="29.07221" lon="-13.46981">
        <ele>59.4</ele>
        <time>2021-07-02 15:20:02</time>
      </trkpt>
      <trkpt lat="29.07221" lon="-13.46982">
        <ele>59.4</ele>
        <time>2021-07-02 15:20:03</time>
      </trkpt>
      <trkpt lat="29.07222" lon="-13.46983">
        <ele>59.4</ele>
        <time>2021-07-02 15:20:04</time>
      </trkpt>
      <trkpt lat="29.07222" lon="-13.46983">
        <ele>59.4</ele>
        <time>2021-07-02 15:20:05</time>
      </trkpt>
      <trkpt lat="29.07223" lon="-13.46984">
        <ele>59.8</ele>
        <time>2021-07-02 15:20:06</time>
      </trkpt>
      <trkpt lat="29.07223" lon="-13.46985">
        <ele>59.8</ele>
        <time>2021-07-02 15:20:07</time>
      </trkpt>
      <trkpt lat="29.07223" lon="-13.46985">
        <ele>59.8</ele>
        <time>2021-07-02 15:20:08</time>
      </trkpt>
      <trkpt lat="29.07224" lon="-13.46986">
        <ele>60</ele>
        <time>2021-07-02 15:20:09</time>
      </trkpt>
      <trkpt lat="29.07224" lon="-13.46987">
        <ele>60</ele>
        <time>2021-07-02 15:20:10</time>
      </trkpt>
      <trkpt lat="29.07225" lon="-13.46987">
        <ele>60.4</ele>
        <time>2021-07-02 15:20:11</time>
      </trkpt>
      <trkpt lat="29.07226" lon="-13.46988">
        <ele>60.4</ele>
        <time>2021-07-02 15:20:12</time>
      </trkpt>
      <trkpt lat="29.07226" lon="-13.46988">
        <ele>60.6</ele>
        <time>2021-07-02 15:20:13</time>
      </trkpt>
      <trkpt lat="29.07227" lon="-13.46989">
        <ele>60.8</ele>
        <time>2021-07-02 15:20:14</time>
      </trkpt>
      <trkpt lat="29.07227" lon="-13.4699">
        <ele>61</ele>
        <time>2021-07-02 15:20:15</time>
      </trkpt>
      <trkpt lat="29.07228" lon="-13.4699">
        <ele>61.4</ele>
        <time>2021-07-02 15:20:16</time>
      </trkpt>
      <trkpt lat="29.07228" lon="-13.46991">
        <ele>61.6</ele>
        <time>2021-07-02 15:20:17</time>
      </trkpt>
      <trkpt lat="29.07229" lon="-13.46991">
        <ele>61.6</ele>
        <time>2021-07-02 15:20:18</time>
      </trkpt>
      <trkpt lat="29.07229" lon="-13.46992">
        <ele>62</ele>
        <time>2021-07-02 15:20:19</time>
      </trkpt>
      <trkpt lat="29.0723" lon="-13.46992">
        <ele>62.2</ele>
        <time>2021-07-02 15:20:20</time>
      </trkpt>
      <trkpt lat="29.07231" lon="-13.46993">
        <ele>62.2</ele>
        <time>2021-07-02 15:20:21</time>
      </trkpt>
      <trkpt lat="29.07231" lon="-13.46993">
        <ele>62.4</ele>
        <time>2021-07-02 15:20:22</time>
      </trkpt>
      <trkpt lat="29.07232" lon="-13.46994">
        <ele>62.4</ele>
        <time>2021-07-02 15:20:23</time>
      </trkpt>
      <trkpt lat="29.07233" lon="-13.46994">
        <ele>62.8</ele>
        <time>2021-07-02 15:20:24</time>
      </trkpt>
      <trkpt lat="29.07234" lon="-13.46994">
        <ele>62.8</ele>
        <time>2021-07-02 15:20:25</time>
      </trkpt>
      <trkpt lat="29.07234" lon="-13.46995">
        <ele>63</ele>
        <time>2021-07-02 15:20:26</time>
      </trkpt>
      <trkpt lat="29.07235" lon="-13.46995">
        <ele>63.2</ele>
        <time>2021-07-02 15:20:27</time>
      </trkpt>
      <trkpt lat="29.07236" lon="-13.46995">
        <ele>63.2</ele>
        <time>2021-07-02 15:20:28</time>
      </trkpt>
      <trkpt lat="29.07237" lon="-13.46995">
        <ele>63.6</ele>
        <time>2021-07-02 15:20:29</time>
      </trkpt>
      <trkpt lat="29.07238" lon="-13.46995">
        <ele>63.6</ele>
        <time>2021-07-02 15:20:30</time>
      </trkpt>
      <trkpt lat="29.07239" lon="-13.46995">
        <ele>63.6</ele>
        <time>2021-07-02 15:20:31</time>
      </trkpt>
      <trkpt lat="29.0724" lon="-13.46995">
        <ele>63.8</ele>
        <time>2021-07-02 15:20:32</time>
      </trkpt>
      <trkpt lat="29.07241" lon="-13.46995">
        <ele>63.8</ele>
        <time>2021-07-02 15:20:33</time>
      </trkpt>
      <trkpt lat="29.07242" lon="-13.46995">
        <ele>63.8</ele>
        <time>2021-07-02 15:20:34</time>
      </trkpt>
      <trkpt lat="29.07243" lon="-13.46995">
        <ele>64</ele>
        <time>2021-07-02 15:20:35</time>
      </trkpt>
      <trkpt lat="29.07243" lon="-13.46995">
        <ele>64.2</ele>
        <time>2021-07-02 15:20:36</time>
      </trkpt>
      <trkpt lat="29.07244" lon="-13.46995">
        <ele>64.2</ele>
        <time>2021-07-02 15:20:37</time>
      </trkpt>
      <trkpt lat="29.07245" lon="-13.46994">
        <ele>64.2</ele>
        <time>2021-07-02 15:20:38</time>
      </trkpt>
      <trkpt lat="29.07247" lon="-13.46994">
        <ele>64.2</ele>
        <time>2021-07-02 15:20:39</time>
      </trkpt>
      <trkpt lat="29.07248" lon="-13.46993">
        <ele>64.6</ele>
        <time>2021-07-02 15:20:40</time>
      </trkpt>
      <trkpt lat="29.07248" lon="-13.46993">
        <ele>64.8</ele>
        <time>2021-07-02 15:20:41</time>
      </trkpt>
      <trkpt lat="29.07249" lon="-13.46992">
        <ele>65.2</ele>
        <time>2021-07-02 15:20:42</time>
      </trkpt>
      <trkpt lat="29.0725" lon="-13.46991">
        <ele>65.4</ele>
        <time>2021-07-02 15:20:43</time>
      </trkpt>
      <trkpt lat="29.07251" lon="-13.46991">
        <ele>65.6</ele>
        <time>2021-07-02 15:20:44</time>
      </trkpt>
      <trkpt lat="29.07252" lon="-13.4699">
        <ele>66.2</ele>
        <time>2021-07-02 15:20:45</time>
      </trkpt>
      <trkpt lat="29.07253" lon="-13.46989">
        <ele>66.2</ele>
        <time>2021-07-02 15:20:46</time>
      </trkpt>
      <trkpt lat="29.07254" lon="-13.46988">
        <ele>66.2</ele>
        <time>2021-07-02 15:20:47</time>
      </trkpt>
      <trkpt lat="29.07254" lon="-13.46988">
        <ele>66.6</ele>
        <time>2021-07-02 15:20:48</time>
      </trkpt>
      <trkpt lat="29.07255" lon="-13.46987">
        <ele>67</ele>
        <time>2021-07-02 15:20:49</time>
      </trkpt>
      <trkpt lat="29.07256" lon="-13.46987">
        <ele>67</ele>
        <time>2021-07-02 15:20:50</time>
      </trkpt>
      <trkpt lat="29.07257" lon="-13.46986">
        <ele>67.2</ele>
        <time>2021-07-02 15:20:51</time>
      </trkpt>
      <trkpt lat="29.07258" lon="-13.46985">
        <ele>67.2</ele>
        <time>2021-07-02 15:20:52</time>
      </trkpt>
      <trkpt lat="29.07258" lon="-13.46985">
        <ele>67.8</ele>
        <time>2021-07-02 15:20:53</time>
      </trkpt>
      <trkpt lat="29.07259" lon="-13.46984">
        <ele>68</ele>
        <time>2021-07-02 15:20:54</time>
      </trkpt>
      <trkpt lat="29.0726" lon="-13.46983">
        <ele>68</ele>
        <time>2021-07-02 15:20:55</time>
      </trkpt>
      <trkpt lat="29.0726" lon="-13.46983">
        <ele>68.2</ele>
        <time>2021-07-02 15:20:56</time>
      </trkpt>
      <trkpt lat="29.0726" lon="-13.46983">
        <ele>68.2</ele>
        <time>2021-07-02 15:20:57</time>
      </trkpt>
      <trkpt lat="29.0726" lon="-13.46983">
        <ele>68.6</ele>
        <time>2021-07-02 15:20:58</time>
      </trkpt>
      <trkpt lat="29.0726" lon="-13.46983">
        <ele>68.6</ele>
        <time>2021-07-02 15:20:59</time>
      </trkpt>
      <trkpt lat="29.0726" lon="-13.46982">
        <ele>68.6</ele>
        <time>2021-07-02 15:21:00</time>
      </trkpt>
      <trkpt lat="29.0726" lon="-13.4698">
        <ele>69.4</ele>
        <time>2021-07-02 15:21:01</time>
      </trkpt>
      <trkpt lat="29.07261" lon="-13.46979">
        <ele>69.4</ele>
        <time>2021-07-02 15:21:02</time>
      </trkpt>
      <trkpt lat="29.07262" lon="-13.46978">
        <ele>69.6</ele>
        <time>2021-07-02 15:21:03</time>
      </trkpt>
      <trkpt lat="29.07262" lon="-13.46978">
        <ele>69.6</ele>
        <time>2021-07-02 15:21:04</time>
      </trkpt>
      <trkpt lat="29.07262" lon="-13.46978">
        <ele>69.8</ele>
        <time>2021-07-02 15:21:05</time>
      </trkpt>
      <trkpt lat="29.07263" lon="-13.46977">
        <ele>68.8</ele>
        <time>2021-07-02 15:21:06</time>
      </trkpt>
      <trkpt lat="29.07265" lon="-13.46975">
        <ele>68.8</ele>
        <time>2021-07-02 15:21:07</time>
      </trkpt>
      <trkpt lat="29.07266" lon="-13.46972">
        <ele>68.8</ele>
        <time>2021-07-02 15:21:08</time>
      </trkpt>
      <trkpt lat="29.07268" lon="-13.46969">
        <ele>69</ele>
        <time>2021-07-02 15:21:09</time>
      </trkpt>
      <trkpt lat="29.07269" lon="-13.46966">
        <ele>69</ele>
        <time>2021-07-02 15:21:10</time>
      </trkpt>
      <trkpt lat="29.07271" lon="-13.46962">
        <ele>69.4</ele>
        <time>2021-07-02 15:21:11</time>
      </trkpt>
      <trkpt lat="29.07272" lon="-13.46959">
        <ele>69.4</ele>
        <time>2021-07-02 15:21:12</time>
      </trkpt>
      <trkpt lat="29.07274" lon="-13.46955">
        <ele>69.4</ele>
        <time>2021-07-02 15:21:13</time>
      </trkpt>
      <trkpt lat="29.07276" lon="-13.4695">
        <ele>69.6</ele>
        <time>2021-07-02 15:21:14</time>
      </trkpt>
      <trkpt lat="29.07278" lon="-13.46946">
        <ele>70.4</ele>
        <time>2021-07-02 15:21:15</time>
      </trkpt>
      <trkpt lat="29.0728" lon="-13.46941">
        <ele>70.4</ele>
        <time>2021-07-02 15:21:16</time>
      </trkpt>
      <trkpt lat="29.07282" lon="-13.46937">
        <ele>70</ele>
        <time>2021-07-02 15:21:17</time>
      </trkpt>
      <trkpt lat="29.07285" lon="-13.46933">
        <ele>69.4</ele>
        <time>2021-07-02 15:21:18</time>
      </trkpt>
      <trkpt lat="29.07287" lon="-13.46929">
        <ele>69.4</ele>
        <time>2021-07-02 15:21:19</time>
      </trkpt>
      <trkpt lat="29.07289" lon="-13.46924">
        <ele>69.2</ele>
        <time>2021-07-02 15:21:20</time>
      </trkpt>
      <trkpt lat="29.07292" lon="-13.4692">
        <ele>69.2</ele>
        <time>2021-07-02 15:21:21</time>
      </trkpt>
      <trkpt lat="29.07294" lon="-13.46916">
        <ele>69.2</ele>
        <time>2021-07-02 15:21:22</time>
      </trkpt>
      <trkpt lat="29.07296" lon="-13.46911">
        <ele>69.2</ele>
        <time>2021-07-02 15:21:23</time>
      </trkpt>
      <trkpt lat="29.07298" lon="-13.46907">
        <ele>69.2</ele>
        <time>2021-07-02 15:21:24</time>
      </trkpt>
      <trkpt lat="29.073" lon="-13.46903">
        <ele>69.2</ele>
        <time>2021-07-02 15:21:25</time>
      </trkpt>
      <trkpt lat="29.07302" lon="-13.46899">
        <ele>69.2</ele>
        <time>2021-07-02 15:21:26</time>
      </trkpt>
      <trkpt lat="29.07305" lon="-13.46895">
        <ele>69.2</ele>
        <time>2021-07-02 15:21:27</time>
      </trkpt>
      <trkpt lat="29.07307" lon="-13.4689">
        <ele>68.6</ele>
        <time>2021-07-02 15:21:28</time>
      </trkpt>
      <trkpt lat="29.07309" lon="-13.46886">
        <ele>68.6</ele>
        <time>2021-07-02 15:21:29</time>
      </trkpt>
      <trkpt lat="29.07311" lon="-13.46882">
        <ele>68.4</ele>
        <time>2021-07-02 15:21:30</time>
      </trkpt>
      <trkpt lat="29.07313" lon="-13.46878">
        <ele>68.8</ele>
        <time>2021-07-02 15:21:31</time>
      </trkpt>
      <trkpt lat="29.07315" lon="-13.46874">
        <ele>68.8</ele>
        <time>2021-07-02 15:21:32</time>
      </trkpt>
      <trkpt lat="29.07317" lon="-13.4687">
        <ele>69</ele>
        <time>2021-07-02 15:21:33</time>
      </trkpt>
      <trkpt lat="29.07319" lon="-13.46866">
        <ele>68.8</ele>
        <time>2021-07-02 15:21:34</time>
      </trkpt>
      <trkpt lat="29.07321" lon="-13.46862">
        <ele>68.8</ele>
        <time>2021-07-02 15:21:35</time>
      </trkpt>
      <trkpt lat="29.07323" lon="-13.46858">
        <ele>68.8</ele>
        <time>2021-07-02 15:21:36</time>
      </trkpt>
      <trkpt lat="29.07325" lon="-13.46854">
        <ele>68.8</ele>
        <time>2021-07-02 15:21:37</time>
      </trkpt>
      <trkpt lat="29.07327" lon="-13.46851">
        <ele>68.8</ele>
        <time>2021-07-02 15:21:38</time>
      </trkpt>
      <trkpt lat="29.07329" lon="-13.46847">
        <ele>69</ele>
        <time>2021-07-02 15:21:39</time>
      </trkpt>
      <trkpt lat="29.07331" lon="-13.46844">
        <ele>69</ele>
        <time>2021-07-02 15:21:40</time>
      </trkpt>
      <trkpt lat="29.07333" lon="-13.4684">
        <ele>68.8</ele>
        <time>2021-07-02 15:21:41</time>
      </trkpt>
      <trkpt lat="29.07335" lon="-13.46837">
        <ele>69.2</ele>
        <time>2021-07-02 15:21:42</time>
      </trkpt>
      <trkpt lat="29.07337" lon="-13.46834">
        <ele>69.2</ele>
        <time>2021-07-02 15:21:43</time>
      </trkpt>
      <trkpt lat="29.07339" lon="-13.46831">
        <ele>69.2</ele>
        <time>2021-07-02 15:21:44</time>
      </trkpt>
      <trkpt lat="29.07341" lon="-13.46827">
        <ele>69.2</ele>
        <time>2021-07-02 15:21:45</time>
      </trkpt>
      <trkpt lat="29.07343" lon="-13.46824">
        <ele>69.2</ele>
        <time>2021-07-02 15:21:46</time>
      </trkpt>
      <trkpt lat="29.07345" lon="-13.46821">
        <ele>69</ele>
        <time>2021-07-02 15:21:47</time>
      </trkpt>
      <trkpt lat="29.07347" lon="-13.46818">
        <ele>68.8</ele>
        <time>2021-07-02 15:21:48</time>
      </trkpt>
      <trkpt lat="29.07349" lon="-13.46814">
        <ele>68.6</ele>
        <time>2021-07-02 15:21:49</time>
      </trkpt>
      <trkpt lat="29.07351" lon="-13.4681">
        <ele>68.6</ele>
        <time>2021-07-02 15:21:50</time>
      </trkpt>
      <trkpt lat="29.07354" lon="-13.46807">
        <ele>68.2</ele>
        <time>2021-07-02 15:21:51</time>
      </trkpt>
      <trkpt lat="29.07356" lon="-13.46804">
        <ele>68.2</ele>
        <time>2021-07-02 15:21:52</time>
      </trkpt>
      <trkpt lat="29.07358" lon="-13.468">
        <ele>68.2</ele>
        <time>2021-07-02 15:21:53</time>
      </trkpt>
      <trkpt lat="29.0736" lon="-13.46797">
        <ele>68.2</ele>
        <time>2021-07-02 15:21:54</time>
      </trkpt>
      <trkpt lat="29.07363" lon="-13.46794">
        <ele>68.4</ele>
        <time>2021-07-02 15:21:57</time>
      </trkpt>
      <trkpt lat="29.07365" lon="-13.4679">
        <ele>69.2</ele>
        <time>2021-07-02 15:21:58</time>
      </trkpt>
      <trkpt lat="29.07367" lon="-13.46787">
        <ele>69.2</ele>
        <time>2021-07-02 15:21:59</time>
      </trkpt>
      <trkpt lat="29.07369" lon="-13.46784">
        <ele>69.2</ele>
        <time>2021-07-02 15:22:00</time>
      </trkpt>
      <trkpt lat="29.07372" lon="-13.46781">
        <ele>69.2</ele>
        <time>2021-07-02 15:22:01</time>
      </trkpt>
      <trkpt lat="29.07374" lon="-13.46778">
        <ele>69.4</ele>
        <time>2021-07-02 15:22:13</time>
      </trkpt>
      <trkpt lat="29.07376" lon="-13.46775">
        <ele>69</ele>
        <time>2021-07-02 15:22:14</time>
      </trkpt>
      <trkpt lat="29.07379" lon="-13.46773">
        <ele>68.6</ele>
        <time>2021-07-02 15:22:15</time>
      </trkpt>
      <trkpt lat="29.07382" lon="-13.4677">
        <ele>68.6</ele>
        <time>2021-07-02 15:22:16</time>
      </trkpt>
      <trkpt lat="29.07384" lon="-13.46768">
        <ele>68</ele>
        <time>2021-07-02 15:22:17</time>
      </trkpt>
      <trkpt lat="29.07387" lon="-13.46765">
        <ele>68</ele>
        <time>2021-07-02 15:22:18</time>
      </trkpt>
      <trkpt lat="29.07389" lon="-13.46762">
        <ele>68</ele>
        <time>2021-07-02 15:22:19</time>
      </trkpt>
      <trkpt lat="29.07392" lon="-13.46759">
        <ele>67.4</ele>
        <time>2021-07-02 15:22:20</time>
      </trkpt>
      <trkpt lat="29.07394" lon="-13.46756">
        <ele>67.4</ele>
        <time>2021-07-02 15:22:21</time>
      </trkpt>
      <trkpt lat="29.07397" lon="-13.46753">
        <ele>67.4</ele>
        <time>2021-07-02 15:22:22</time>
      </trkpt>
      <trkpt lat="29.07399" lon="-13.4675">
        <ele>67.2</ele>
        <time>2021-07-02 15:22:23</time>
      </trkpt>
      <trkpt lat="29.07402" lon="-13.46747">
        <ele>67.2</ele>
        <time>2021-07-02 15:22:24</time>
      </trkpt>
      <trkpt lat="29.07404" lon="-13.46744">
        <ele>67.2</ele>
        <time>2021-07-02 15:22:25</time>
      </trkpt>
      <trkpt lat="29.07407" lon="-13.46741">
        <ele>67</ele>
        <time>2021-07-02 15:22:26</time>
      </trkpt>
      <trkpt lat="29.07409" lon="-13.46738">
        <ele>67</ele>
        <time>2021-07-02 15:22:27</time>
      </trkpt>
      <trkpt lat="29.07412" lon="-13.46735">
        <ele>67.2</ele>
        <time>2021-07-02 15:22:28</time>
      </trkpt>
      <trkpt lat="29.07414" lon="-13.46732">
        <ele>67.2</ele>
        <time>2021-07-02 15:22:29</time>
      </trkpt>
      <trkpt lat="29.07416" lon="-13.46729">
        <ele>67.2</ele>
        <time>2021-07-02 15:22:30</time>
      </trkpt>
      <trkpt lat="29.07418" lon="-13.46726">
        <ele>67.2</ele>
        <time>2021-07-02 15:22:31</time>
      </trkpt>
      <trkpt lat="29.07421" lon="-13.46723">
        <ele>67.2</ele>
        <time>2021-07-02 15:22:32</time>
      </trkpt>
      <trkpt lat="29.07423" lon="-13.46721">
        <ele>67.2</ele>
        <time>2021-07-02 15:22:33</time>
      </trkpt>
      <trkpt lat="29.07426" lon="-13.46718">
        <ele>67.4</ele>
        <time>2021-07-02 15:22:34</time>
      </trkpt>
      <trkpt lat="29.07428" lon="-13.46715">
        <ele>67.8</ele>
        <time>2021-07-02 15:22:35</time>
      </trkpt>
      <trkpt lat="29.0743" lon="-13.46713">
        <ele>67.6</ele>
        <time>2021-07-02 15:22:36</time>
      </trkpt>
      <trkpt lat="29.07433" lon="-13.4671">
        <ele>67.6</ele>
        <time>2021-07-02 15:22:37</time>
      </trkpt>
      <trkpt lat="29.07435" lon="-13.46708">
        <ele>67.2</ele>
        <time>2021-07-02 15:22:38</time>
      </trkpt>
      <trkpt lat="29.07437" lon="-13.46705">
        <ele>67.2</ele>
        <time>2021-07-02 15:22:39</time>
      </trkpt>
      <trkpt lat="29.0744" lon="-13.46702">
        <ele>66.8</ele>
        <time>2021-07-02 15:22:40</time>
      </trkpt>
      <trkpt lat="29.07442" lon="-13.467">
        <ele>66.8</ele>
        <time>2021-07-02 15:22:41</time>
      </trkpt>
      <trkpt lat="29.07444" lon="-13.46697">
        <ele>67.2</ele>
        <time>2021-07-02 15:22:42</time>
      </trkpt>
      <trkpt lat="29.07446" lon="-13.46694">
        <ele>66.6</ele>
        <time>2021-07-02 15:22:43</time>
      </trkpt>
      <trkpt lat="29.07448" lon="-13.46691">
        <ele>66.6</ele>
        <time>2021-07-02 15:22:44</time>
      </trkpt>
      <trkpt lat="29.0745" lon="-13.46688">
        <ele>66.6</ele>
        <time>2021-07-02 15:22:45</time>
      </trkpt>
      <trkpt lat="29.07452" lon="-13.46686">
        <ele>66.4</ele>
        <time>2021-07-02 15:22:46</time>
      </trkpt>
      <trkpt lat="29.07454" lon="-13.46683">
        <ele>66.4</ele>
        <time>2021-07-02 15:22:47</time>
      </trkpt>
      <trkpt lat="29.07456" lon="-13.4668">
        <ele>66.8</ele>
        <time>2021-07-02 15:22:48</time>
      </trkpt>
      <trkpt lat="29.07458" lon="-13.46678">
        <ele>66.4</ele>
        <time>2021-07-02 15:22:49</time>
      </trkpt>
      <trkpt lat="29.0746" lon="-13.46675">
        <ele>66.4</ele>
        <time>2021-07-02 15:22:50</time>
      </trkpt>
      <trkpt lat="29.07462" lon="-13.46673">
        <ele>66.4</ele>
        <time>2021-07-02 15:22:51</time>
      </trkpt>
      <trkpt lat="29.07464" lon="-13.4667">
        <ele>66.4</ele>
        <time>2021-07-02 15:22:52</time>
      </trkpt>
      <trkpt lat="29.07465" lon="-13.46667">
        <ele>66.4</ele>
        <time>2021-07-02 15:22:53</time>
      </trkpt>
      <trkpt lat="29.07467" lon="-13.46665">
        <ele>66.4</ele>
        <time>2021-07-02 15:22:54</time>
      </trkpt>
      <trkpt lat="29.07469" lon="-13.46662">
        <ele>66.4</ele>
        <time>2021-07-02 15:22:55</time>
      </trkpt>
      <trkpt lat="29.07471" lon="-13.4666">
        <ele>66.2</ele>
        <time>2021-07-02 15:22:56</time>
      </trkpt>
      <trkpt lat="29.07472" lon="-13.46657">
        <ele>66.2</ele>
        <time>2021-07-02 15:22:57</time>
      </trkpt>
      <trkpt lat="29.07474" lon="-13.46655">
        <ele>66.6</ele>
        <time>2021-07-02 15:22:58</time>
      </trkpt>
      <trkpt lat="29.07476" lon="-13.46653">
        <ele>66.6</ele>
        <time>2021-07-02 15:22:59</time>
      </trkpt>
      <trkpt lat="29.07478" lon="-13.46651">
        <ele>67</ele>
        <time>2021-07-02 15:23:00</time>
      </trkpt>
      <trkpt lat="29.0748" lon="-13.46648">
        <ele>67</ele>
        <time>2021-07-02 15:23:01</time>
      </trkpt>
      <trkpt lat="29.07481" lon="-13.46646">
        <ele>67</ele>
        <time>2021-07-02 15:23:02</time>
      </trkpt>
      <trkpt lat="29.07483" lon="-13.46643">
        <ele>67</ele>
        <time>2021-07-02 15:23:03</time>
      </trkpt>
      <trkpt lat="29.07485" lon="-13.46641">
        <ele>67</ele>
        <time>2021-07-02 15:23:04</time>
      </trkpt>
      <trkpt lat="29.07487" lon="-13.46639">
        <ele>67.4</ele>
        <time>2021-07-02 15:23:05</time>
      </trkpt>
      <trkpt lat="29.07488" lon="-13.46637">
        <ele>67.4</ele>
        <time>2021-07-02 15:23:06</time>
      </trkpt>
      <trkpt lat="29.0749" lon="-13.46634">
        <ele>67.4</ele>
        <time>2021-07-02 15:23:07</time>
      </trkpt>
      <trkpt lat="29.07492" lon="-13.46632">
        <ele>67.4</ele>
        <time>2021-07-02 15:23:08</time>
      </trkpt>
      <trkpt lat="29.07493" lon="-13.4663">
        <ele>67.6</ele>
        <time>2021-07-02 15:23:09</time>
      </trkpt>
      <trkpt lat="29.07495" lon="-13.46628">
        <ele>67.6</ele>
        <time>2021-07-02 15:23:10</time>
      </trkpt>
      <trkpt lat="29.07497" lon="-13.46626">
        <ele>67.6</ele>
        <time>2021-07-02 15:23:11</time>
      </trkpt>
      <trkpt lat="29.07498" lon="-13.46624">
        <ele>67.6</ele>
        <time>2021-07-02 15:23:12</time>
      </trkpt>
      <trkpt lat="29.075" lon="-13.46622">
        <ele>67.6</ele>
        <time>2021-07-02 15:23:13</time>
      </trkpt>
      <trkpt lat="29.07502" lon="-13.4662">
        <ele>67.6</ele>
        <time>2021-07-02 15:23:14</time>
      </trkpt>
      <trkpt lat="29.07503" lon="-13.46618">
        <ele>67.4</ele>
        <time>2021-07-02 15:23:15</time>
      </trkpt>
      <trkpt lat="29.07505" lon="-13.46616">
        <ele>67.4</ele>
        <time>2021-07-02 15:23:16</time>
      </trkpt>
      <trkpt lat="29.07507" lon="-13.46614">
        <ele>67.6</ele>
        <time>2021-07-02 15:23:17</time>
      </trkpt>
      <trkpt lat="29.07508" lon="-13.46612">
        <ele>67.6</ele>
        <time>2021-07-02 15:23:18</time>
      </trkpt>
      <trkpt lat="29.0751" lon="-13.4661">
        <ele>67.6</ele>
        <time>2021-07-02 15:23:19</time>
      </trkpt>
      <trkpt lat="29.07512" lon="-13.46608">
        <ele>67.6</ele>
        <time>2021-07-02 15:23:20</time>
      </trkpt>
      <trkpt lat="29.07513" lon="-13.46605">
        <ele>67.4</ele>
        <time>2021-07-02 15:23:21</time>
      </trkpt>
      <trkpt lat="29.07514" lon="-13.46603">
        <ele>67.8</ele>
        <time>2021-07-02 15:23:22</time>
      </trkpt>
      <trkpt lat="29.07516" lon="-13.466">
        <ele>68</ele>
        <time>2021-07-02 15:23:23</time>
      </trkpt>
      <trkpt lat="29.07517" lon="-13.46597">
        <ele>68</ele>
        <time>2021-07-02 15:23:24</time>
      </trkpt>
      <trkpt lat="29.07518" lon="-13.46595">
        <ele>68</ele>
        <time>2021-07-02 15:23:25</time>
      </trkpt>
      <trkpt lat="29.07518" lon="-13.46592">
        <ele>68.4</ele>
        <time>2021-07-02 15:23:26</time>
      </trkpt>
      <trkpt lat="29.07519" lon="-13.46589">
        <ele>68.4</ele>
        <time>2021-07-02 15:23:27</time>
      </trkpt>
      <trkpt lat="29.07519" lon="-13.46585">
        <ele>68.8</ele>
        <time>2021-07-02 15:23:28</time>
      </trkpt>
      <trkpt lat="29.07519" lon="-13.46582">
        <ele>68.8</ele>
        <time>2021-07-02 15:23:29</time>
      </trkpt>
      <trkpt lat="29.07519" lon="-13.46579">
        <ele>69.2</ele>
        <time>2021-07-02 15:23:30</time>
      </trkpt>
      <trkpt lat="29.07519" lon="-13.46576">
        <ele>69.2</ele>
        <time>2021-07-02 15:23:31</time>
      </trkpt>
      <trkpt lat="29.0752" lon="-13.46574">
        <ele>68.6</ele>
        <time>2021-07-02 15:23:32</time>
      </trkpt>
      <trkpt lat="29.0752" lon="-13.46572">
        <ele>68.2</ele>
        <time>2021-07-02 15:23:33</time>
      </trkpt>
      <trkpt lat="29.0752" lon="-13.46569">
        <ele>68.2</ele>
        <time>2021-07-02 15:23:34</time>
      </trkpt>
      <trkpt lat="29.0752" lon="-13.46567">
        <ele>69.2</ele>
        <time>2021-07-02 15:23:35</time>
      </trkpt>
      <trkpt lat="29.0752" lon="-13.46565">
        <ele>69.2</ele>
        <time>2021-07-02 15:23:36</time>
      </trkpt>
      <trkpt lat="29.0752" lon="-13.46563">
        <ele>69.6</ele>
        <time>2021-07-02 15:23:37</time>
      </trkpt>
      <trkpt lat="29.07521" lon="-13.46561">
        <ele>69.6</ele>
        <time>2021-07-02 15:23:38</time>
      </trkpt>
      <trkpt lat="29.07521" lon="-13.46559">
        <ele>69.6</ele>
        <time>2021-07-02 15:23:39</time>
      </trkpt>
      <trkpt lat="29.07521" lon="-13.46557">
        <ele>69.6</ele>
        <time>2021-07-02 15:23:40</time>
      </trkpt>
      <trkpt lat="29.07521" lon="-13.46555">
        <ele>69.6</ele>
        <time>2021-07-02 15:23:41</time>
      </trkpt>
      <trkpt lat="29.07521" lon="-13.46553">
        <ele>69.8</ele>
        <time>2021-07-02 15:23:42</time>
      </trkpt>
      <trkpt lat="29.0752" lon="-13.46551">
        <ele>70.2</ele>
        <time>2021-07-02 15:23:43</time>
      </trkpt>
      <trkpt lat="29.0752" lon="-13.46549">
        <ele>70.4</ele>
        <time>2021-07-02 15:23:44</time>
      </trkpt>
      <trkpt lat="29.0752" lon="-13.46546">
        <ele>71</ele>
        <time>2021-07-02 15:23:45</time>
      </trkpt>
      <trkpt lat="29.07521" lon="-13.46544">
        <ele>72</ele>
        <time>2021-07-02 15:23:46</time>
      </trkpt>
      <trkpt lat="29.07521" lon="-13.46542">
        <ele>72</ele>
        <time>2021-07-02 15:23:47</time>
      </trkpt>
      <trkpt lat="29.07521" lon="-13.4654">
        <ele>72.4</ele>
        <time>2021-07-02 15:23:48</time>
      </trkpt>
      <trkpt lat="29.07522" lon="-13.46539">
        <ele>72.8</ele>
        <time>2021-07-02 15:23:49</time>
      </trkpt>
      <trkpt lat="29.07523" lon="-13.46537">
        <ele>73.2</ele>
        <time>2021-07-02 15:23:50</time>
      </trkpt>
      <trkpt lat="29.07524" lon="-13.46535">
        <ele>74</ele>
        <time>2021-07-02 15:23:51</time>
      </trkpt>
      <trkpt lat="29.07526" lon="-13.46533">
        <ele>74.4</ele>
        <time>2021-07-02 15:23:52</time>
      </trkpt>
      <trkpt lat="29.07526" lon="-13.46531">
        <ele>74.8</ele>
        <time>2021-07-02 15:23:53</time>
      </trkpt>
      <trkpt lat="29.07527" lon="-13.46529">
        <ele>75.2</ele>
        <time>2021-07-02 15:23:54</time>
      </trkpt>
      <trkpt lat="29.07529" lon="-13.46527">
        <ele>75.8</ele>
        <time>2021-07-02 15:23:55</time>
      </trkpt>
      <trkpt lat="29.0753" lon="-13.46525">
        <ele>75.8</ele>
        <time>2021-07-02 15:23:56</time>
      </trkpt>
      <trkpt lat="29.07531" lon="-13.46523">
        <ele>75.8</ele>
        <time>2021-07-02 15:23:57</time>
      </trkpt>
      <trkpt lat="29.07533" lon="-13.46521">
        <ele>77</ele>
        <time>2021-07-02 15:23:58</time>
      </trkpt>
      <trkpt lat="29.07534" lon="-13.46519">
        <ele>77</ele>
        <time>2021-07-02 15:23:59</time>
      </trkpt>
      <trkpt lat="29.07536" lon="-13.46518">
        <ele>77</ele>
        <time>2021-07-02 15:24:00</time>
      </trkpt>
      <trkpt lat="29.07538" lon="-13.46516">
        <ele>76.6</ele>
        <time>2021-07-02 15:24:01</time>
      </trkpt>
      <trkpt lat="29.07539" lon="-13.46515">
        <ele>76.6</ele>
        <time>2021-07-02 15:24:02</time>
      </trkpt>
      <trkpt lat="29.07541" lon="-13.46514">
        <ele>76.4</ele>
        <time>2021-07-02 15:24:03</time>
      </trkpt>
      <trkpt lat="29.07543" lon="-13.46513">
        <ele>76.4</ele>
        <time>2021-07-02 15:24:04</time>
      </trkpt>
      <trkpt lat="29.07545" lon="-13.46512">
        <ele>76.2</ele>
        <time>2021-07-02 15:24:05</time>
      </trkpt>
      <trkpt lat="29.07547" lon="-13.46511">
        <ele>76.2</ele>
        <time>2021-07-02 15:24:06</time>
      </trkpt>
      <trkpt lat="29.07549" lon="-13.4651">
        <ele>76.2</ele>
        <time>2021-07-02 15:24:07</time>
      </trkpt>
      <trkpt lat="29.07552" lon="-13.46509">
        <ele>76.2</ele>
        <time>2021-07-02 15:24:08</time>
      </trkpt>
      <trkpt lat="29.07554" lon="-13.46508">
        <ele>76</ele>
        <time>2021-07-02 15:24:09</time>
      </trkpt>
      <trkpt lat="29.07556" lon="-13.46508">
        <ele>75.6</ele>
        <time>2021-07-02 15:24:10</time>
      </trkpt>
      <trkpt lat="29.07558" lon="-13.46507">
        <ele>75.6</ele>
        <time>2021-07-02 15:24:11</time>
      </trkpt>
      <trkpt lat="29.0756" lon="-13.46507">
        <ele>76</ele>
        <time>2021-07-02 15:24:12</time>
      </trkpt>
      <trkpt lat="29.07562" lon="-13.46506">
        <ele>75.6</ele>
        <time>2021-07-02 15:24:13</time>
      </trkpt>
      <trkpt lat="29.07564" lon="-13.46506">
        <ele>75.6</ele>
        <time>2021-07-02 15:24:14</time>
      </trkpt>
      <trkpt lat="29.07565" lon="-13.46506">
        <ele>75.6</ele>
        <time>2021-07-02 15:24:15</time>
      </trkpt>
      <trkpt lat="29.07567" lon="-13.46506">
        <ele>75.6</ele>
        <time>2021-07-02 15:24:16</time>
      </trkpt>
      <trkpt lat="29.07568" lon="-13.46506">
        <ele>75.6</ele>
        <time>2021-07-02 15:24:17</time>
      </trkpt>
      <trkpt lat="29.0757" lon="-13.46505">
        <ele>75.6</ele>
        <time>2021-07-02 15:24:18</time>
      </trkpt>
      <trkpt lat="29.07572" lon="-13.46505">
        <ele>76.4</ele>
        <time>2021-07-02 15:24:19</time>
      </trkpt>
      <trkpt lat="29.07573" lon="-13.46505">
        <ele>76.4</ele>
        <time>2021-07-02 15:24:20</time>
      </trkpt>
      <trkpt lat="29.07575" lon="-13.46504">
        <ele>76.4</ele>
        <time>2021-07-02 15:24:21</time>
      </trkpt>
      <trkpt lat="29.07576" lon="-13.46504">
        <ele>76.8</ele>
        <time>2021-07-02 15:24:22</time>
      </trkpt>
      <trkpt lat="29.07577" lon="-13.46503">
        <ele>76.8</ele>
        <time>2021-07-02 15:24:23</time>
      </trkpt>
      <trkpt lat="29.07579" lon="-13.46503">
        <ele>76.8</ele>
        <time>2021-07-02 15:24:24</time>
      </trkpt>
      <trkpt lat="29.07581" lon="-13.46503">
        <ele>77</ele>
        <time>2021-07-02 15:24:25</time>
      </trkpt>
      <trkpt lat="29.07583" lon="-13.46502">
        <ele>77</ele>
        <time>2021-07-02 15:24:26</time>
      </trkpt>
      <trkpt lat="29.07585" lon="-13.46502">
        <ele>77.4</ele>
        <time>2021-07-02 15:24:27</time>
      </trkpt>
      <trkpt lat="29.07586" lon="-13.46502">
        <ele>77.4</ele>
        <time>2021-07-02 15:24:28</time>
      </trkpt>
      <trkpt lat="29.07588" lon="-13.46502">
        <ele>77.4</ele>
        <time>2021-07-02 15:24:29</time>
      </trkpt>
      <trkpt lat="29.0759" lon="-13.46502">
        <ele>77.8</ele>
        <time>2021-07-02 15:24:30</time>
      </trkpt>
      <trkpt lat="29.07592" lon="-13.46503">
        <ele>78</ele>
        <time>2021-07-02 15:24:31</time>
      </trkpt>
      <trkpt lat="29.07594" lon="-13.46503">
        <ele>78.4</ele>
        <time>2021-07-02 15:24:32</time>
      </trkpt>
      <trkpt lat="29.07596" lon="-13.46504">
        <ele>78.4</ele>
        <time>2021-07-02 15:24:33</time>
      </trkpt>
      <trkpt lat="29.07597" lon="-13.46505">
        <ele>78.4</ele>
        <time>2021-07-02 15:24:34</time>
      </trkpt>
      <trkpt lat="29.07599" lon="-13.46506">
        <ele>78.6</ele>
        <time>2021-07-02 15:24:35</time>
      </trkpt>
      <trkpt lat="29.07601" lon="-13.46507">
        <ele>79</ele>
        <time>2021-07-02 15:24:36</time>
      </trkpt>
      <trkpt lat="29.07602" lon="-13.46507">
        <ele>79</ele>
        <time>2021-07-02 15:24:37</time>
      </trkpt>
      <trkpt lat="29.07604" lon="-13.46507">
        <ele>79.4</ele>
        <time>2021-07-02 15:24:38</time>
      </trkpt>
      <trkpt lat="29.07606" lon="-13.46506">
        <ele>79.8</ele>
        <time>2021-07-02 15:24:39</time>
      </trkpt>
      <trkpt lat="29.07608" lon="-13.46506">
        <ele>80</ele>
        <time>2021-07-02 15:24:40</time>
      </trkpt>
      <trkpt lat="29.0761" lon="-13.46506">
        <ele>80</ele>
        <time>2021-07-02 15:24:41</time>
      </trkpt>
      <trkpt lat="29.07612" lon="-13.46505">
        <ele>80</ele>
        <time>2021-07-02 15:24:42</time>
      </trkpt>
      <trkpt lat="29.07614" lon="-13.46504">
        <ele>80.2</ele>
        <time>2021-07-02 15:24:43</time>
      </trkpt>
      <trkpt lat="29.07616" lon="-13.46504">
        <ele>80.6</ele>
        <time>2021-07-02 15:24:44</time>
      </trkpt>
      <trkpt lat="29.07618" lon="-13.46503">
        <ele>80.6</ele>
        <time>2021-07-02 15:24:45</time>
      </trkpt>
      <trkpt lat="29.0762" lon="-13.46502">
        <ele>80.6</ele>
        <time>2021-07-02 15:24:46</time>
      </trkpt>
      <trkpt lat="29.07622" lon="-13.46501">
        <ele>81</ele>
        <time>2021-07-02 15:24:47</time>
      </trkpt>
      <trkpt lat="29.07624" lon="-13.465">
        <ele>81</ele>
        <time>2021-07-02 15:24:48</time>
      </trkpt>
      <trkpt lat="29.07626" lon="-13.46499">
        <ele>81.2</ele>
        <time>2021-07-02 15:24:49</time>
      </trkpt>
      <trkpt lat="29.07628" lon="-13.46498">
        <ele>81.2</ele>
        <time>2021-07-02 15:24:50</time>
      </trkpt>
      <trkpt lat="29.0763" lon="-13.46497">
        <ele>81.4</ele>
        <time>2021-07-02 15:24:51</time>
      </trkpt>
      <trkpt lat="29.07633" lon="-13.46497">
        <ele>81.8</ele>
        <time>2021-07-02 15:24:52</time>
      </trkpt>
      <trkpt lat="29.07636" lon="-13.46496">
        <ele>81.4</ele>
        <time>2021-07-02 15:24:53</time>
      </trkpt>
      <trkpt lat="29.07639" lon="-13.46496">
        <ele>81.4</ele>
        <time>2021-07-02 15:24:54</time>
      </trkpt>
      <trkpt lat="29.07641" lon="-13.46496">
        <ele>81.4</ele>
        <time>2021-07-02 15:24:55</time>
      </trkpt>
      <trkpt lat="29.07644" lon="-13.46496">
        <ele>81.4</ele>
        <time>2021-07-02 15:24:56</time>
      </trkpt>
      <trkpt lat="29.07646" lon="-13.46496">
        <ele>81.6</ele>
        <time>2021-07-02 15:24:57</time>
      </trkpt>
      <trkpt lat="29.07648" lon="-13.46496">
        <ele>81.6</ele>
        <time>2021-07-02 15:24:58</time>
      </trkpt>
      <trkpt lat="29.07651" lon="-13.46496">
        <ele>82</ele>
        <time>2021-07-02 15:24:59</time>
      </trkpt>
      <trkpt lat="29.07653" lon="-13.46496">
        <ele>82</ele>
        <time>2021-07-02 15:25:00</time>
      </trkpt>
      <trkpt lat="29.07655" lon="-13.46496">
        <ele>82</ele>
        <time>2021-07-02 15:25:01</time>
      </trkpt>
      <trkpt lat="29.07657" lon="-13.46496">
        <ele>82</ele>
        <time>2021-07-02 15:25:02</time>
      </trkpt>
      <trkpt lat="29.0766" lon="-13.46496">
        <ele>82.2</ele>
        <time>2021-07-02 15:25:03</time>
      </trkpt>
      <trkpt lat="29.07662" lon="-13.46496">
        <ele>82.2</ele>
        <time>2021-07-02 15:25:04</time>
      </trkpt>
      <trkpt lat="29.07664" lon="-13.46496">
        <ele>82.6</ele>
        <time>2021-07-02 15:25:05</time>
      </trkpt>
      <trkpt lat="29.07666" lon="-13.46497">
        <ele>82.6</ele>
        <time>2021-07-02 15:25:06</time>
      </trkpt>
      <trkpt lat="29.07668" lon="-13.46497">
        <ele>82.8</ele>
        <time>2021-07-02 15:25:07</time>
      </trkpt>
      <trkpt lat="29.0767" lon="-13.46497">
        <ele>83.4</ele>
        <time>2021-07-02 15:25:08</time>
      </trkpt>
      <trkpt lat="29.07673" lon="-13.46497">
        <ele>83.4</ele>
        <time>2021-07-02 15:25:09</time>
      </trkpt>
      <trkpt lat="29.07675" lon="-13.46497">
        <ele>83.4</ele>
        <time>2021-07-02 15:25:10</time>
      </trkpt>
      <trkpt lat="29.07678" lon="-13.46497">
        <ele>83.8</ele>
        <time>2021-07-02 15:25:11</time>
      </trkpt>
      <trkpt lat="29.0768" lon="-13.46497">
        <ele>83.8</ele>
        <time>2021-07-02 15:25:12</time>
      </trkpt>
      <trkpt lat="29.07681" lon="-13.46497">
        <ele>84.2</ele>
        <time>2021-07-02 15:25:13</time>
      </trkpt>
      <trkpt lat="29.07683" lon="-13.46497">
        <ele>84.4</ele>
        <time>2021-07-02 15:25:14</time>
      </trkpt>
      <trkpt lat="29.07683" lon="-13.46497">
        <ele>84.4</ele>
        <time>2021-07-02 15:25:15</time>
      </trkpt>
      <trkpt lat="29.07683" lon="-13.46497">
        <ele>84.8</ele>
        <time>2021-07-02 15:25:16</time>
      </trkpt>
      <trkpt lat="29.07683" lon="-13.46497">
        <ele>85.2</ele>
        <time>2021-07-02 15:25:17</time>
      </trkpt>
      <trkpt lat="29.07684" lon="-13.46497">
        <ele>84.2</ele>
        <time>2021-07-02 15:25:18</time>
      </trkpt>
      <trkpt lat="29.07685" lon="-13.46497">
        <ele>84.2</ele>
        <time>2021-07-02 15:25:19</time>
      </trkpt>
      <trkpt lat="29.07687" lon="-13.46496">
        <ele>84.2</ele>
        <time>2021-07-02 15:25:20</time>
      </trkpt>
      <trkpt lat="29.07689" lon="-13.46496">
        <ele>84.8</ele>
        <time>2021-07-02 15:25:21</time>
      </trkpt>
      <trkpt lat="29.07692" lon="-13.46496">
        <ele>85</ele>
        <time>2021-07-02 15:25:22</time>
      </trkpt>
      <trkpt lat="29.07695" lon="-13.46495">
        <ele>85</ele>
        <time>2021-07-02 15:25:23</time>
      </trkpt>
      <trkpt lat="29.07697" lon="-13.46495">
        <ele>85.2</ele>
        <time>2021-07-02 15:25:24</time>
      </trkpt>
      <trkpt lat="29.077" lon="-13.46495">
        <ele>85.6</ele>
        <time>2021-07-02 15:25:25</time>
      </trkpt>
      <trkpt lat="29.07703" lon="-13.46496">
        <ele>85.4</ele>
        <time>2021-07-02 15:25:26</time>
      </trkpt>
      <trkpt lat="29.07706" lon="-13.46498">
        <ele>85.4</ele>
        <time>2021-07-02 15:25:27</time>
      </trkpt>
      <trkpt lat="29.07708" lon="-13.465">
        <ele>84.8</ele>
        <time>2021-07-02 15:25:28</time>
      </trkpt>
      <trkpt lat="29.0771" lon="-13.46503">
        <ele>85</ele>
        <time>2021-07-02 15:25:29</time>
      </trkpt>
      <trkpt lat="29.07711" lon="-13.46506">
        <ele>84.8</ele>
        <time>2021-07-02 15:25:30</time>
      </trkpt>
      <trkpt lat="29.07712" lon="-13.46509">
        <ele>85</ele>
        <time>2021-07-02 15:25:31</time>
      </trkpt>
      <trkpt lat="29.07714" lon="-13.46512">
        <ele>85</ele>
        <time>2021-07-02 15:25:32</time>
      </trkpt>
      <trkpt lat="29.07715" lon="-13.46515">
        <ele>86</ele>
        <time>2021-07-02 15:25:33</time>
      </trkpt>
      <trkpt lat="29.07717" lon="-13.46517">
        <ele>85.6</ele>
        <time>2021-07-02 15:25:34</time>
      </trkpt>
      <trkpt lat="29.0772" lon="-13.46518">
        <ele>85.6</ele>
        <time>2021-07-02 15:25:35</time>
      </trkpt>
      <trkpt lat="29.07723" lon="-13.46519">
        <ele>86.2</ele>
        <time>2021-07-02 15:25:36</time>
      </trkpt>
      <trkpt lat="29.07726" lon="-13.46519">
        <ele>86.2</ele>
        <time>2021-07-02 15:25:37</time>
      </trkpt>
      <trkpt lat="29.07729" lon="-13.46519">
        <ele>86.6</ele>
        <time>2021-07-02 15:25:38</time>
      </trkpt>
      <trkpt lat="29.07732" lon="-13.46519">
        <ele>86.6</ele>
        <time>2021-07-02 15:25:39</time>
      </trkpt>
      <trkpt lat="29.07735" lon="-13.46519">
        <ele>86.6</ele>
        <time>2021-07-02 15:25:40</time>
      </trkpt>
      <trkpt lat="29.07738" lon="-13.46519">
        <ele>86.6</ele>
        <time>2021-07-02 15:25:41</time>
      </trkpt>
      <trkpt lat="29.07741" lon="-13.46518">
        <ele>86.6</ele>
        <time>2021-07-02 15:25:42</time>
      </trkpt>
      <trkpt lat="29.07744" lon="-13.46517">
        <ele>87</ele>
        <time>2021-07-02 15:25:43</time>
      </trkpt>
      <trkpt lat="29.07746" lon="-13.46515">
        <ele>87</ele>
        <time>2021-07-02 15:25:44</time>
      </trkpt>
      <trkpt lat="29.07749" lon="-13.46513">
        <ele>87</ele>
        <time>2021-07-02 15:25:45</time>
      </trkpt>
      <trkpt lat="29.07752" lon="-13.46511">
        <ele>87</ele>
        <time>2021-07-02 15:25:46</time>
      </trkpt>
      <trkpt lat="29.07755" lon="-13.46509">
        <ele>87.2</ele>
        <time>2021-07-02 15:25:47</time>
      </trkpt>
      <trkpt lat="29.07757" lon="-13.46506">
        <ele>87</ele>
        <time>2021-07-02 15:25:48</time>
      </trkpt>
      <trkpt lat="29.0776" lon="-13.46503">
        <ele>86.8</ele>
        <time>2021-07-02 15:25:49</time>
      </trkpt>
      <trkpt lat="29.07763" lon="-13.46499">
        <ele>86.8</ele>
        <time>2021-07-02 15:25:50</time>
      </trkpt>
      <trkpt lat="29.07765" lon="-13.46495">
        <ele>86.8</ele>
        <time>2021-07-02 15:25:51</time>
      </trkpt>
      <trkpt lat="29.07768" lon="-13.46491">
        <ele>86.2</ele>
        <time>2021-07-02 15:25:52</time>
      </trkpt>
      <trkpt lat="29.0777" lon="-13.46488">
        <ele>86</ele>
        <time>2021-07-02 15:25:53</time>
      </trkpt>
      <trkpt lat="29.07773" lon="-13.46485">
        <ele>86</ele>
        <time>2021-07-02 15:25:54</time>
      </trkpt>
      <trkpt lat="29.07777" lon="-13.46483">
        <ele>85.4</ele>
        <time>2021-07-02 15:25:55</time>
      </trkpt>
      <trkpt lat="29.0778" lon="-13.46481">
        <ele>85.4</ele>
        <time>2021-07-02 15:25:56</time>
      </trkpt>
      <trkpt lat="29.07784" lon="-13.46479">
        <ele>85</ele>
        <time>2021-07-02 15:25:57</time>
      </trkpt>
      <trkpt lat="29.07788" lon="-13.46478">
        <ele>85</ele>
        <time>2021-07-02 15:25:58</time>
      </trkpt>
      <trkpt lat="29.07792" lon="-13.46478">
        <ele>85</ele>
        <time>2021-07-02 15:25:59</time>
      </trkpt>
      <trkpt lat="29.07796" lon="-13.46477">
        <ele>84.6</ele>
        <time>2021-07-02 15:26:00</time>
      </trkpt>
      <trkpt lat="29.078" lon="-13.46476">
        <ele>84.2</ele>
        <time>2021-07-02 15:26:01</time>
      </trkpt>
      <trkpt lat="29.07803" lon="-13.46474">
        <ele>84.2</ele>
        <time>2021-07-02 15:26:02</time>
      </trkpt>
      <trkpt lat="29.07806" lon="-13.46472">
        <ele>84.2</ele>
        <time>2021-07-02 15:26:03</time>
      </trkpt>
      <trkpt lat="29.0781" lon="-13.4647">
        <ele>83.8</ele>
        <time>2021-07-02 15:26:04</time>
      </trkpt>
      <trkpt lat="29.07813" lon="-13.46467">
        <ele>83.8</ele>
        <time>2021-07-02 15:26:05</time>
      </trkpt>
      <trkpt lat="29.07817" lon="-13.46465">
        <ele>83.8</ele>
        <time>2021-07-02 15:26:06</time>
      </trkpt>
      <trkpt lat="29.0782" lon="-13.46463">
        <ele>83.4</ele>
        <time>2021-07-02 15:26:07</time>
      </trkpt>
      <trkpt lat="29.07823" lon="-13.46462">
        <ele>83.6</ele>
        <time>2021-07-02 15:26:08</time>
      </trkpt>
      <trkpt lat="29.07826" lon="-13.46461">
        <ele>83.6</ele>
        <time>2021-07-02 15:26:09</time>
      </trkpt>
      <trkpt lat="29.0783" lon="-13.46459">
        <ele>83.6</ele>
        <time>2021-07-02 15:26:10</time>
      </trkpt>
      <trkpt lat="29.07833" lon="-13.46459">
        <ele>83.6</ele>
        <time>2021-07-02 15:26:11</time>
      </trkpt>
      <trkpt lat="29.07836" lon="-13.46458">
        <ele>83.6</ele>
        <time>2021-07-02 15:26:39</time>
      </trkpt>
      <trkpt lat="29.07838" lon="-13.46458">
        <ele>83.6</ele>
        <time>2021-07-02 15:26:40</time>
      </trkpt>
      <trkpt lat="29.07841" lon="-13.46458">
        <ele>83.4</ele>
        <time>2021-07-02 15:26:41</time>
      </trkpt>
      <trkpt lat="29.07843" lon="-13.46457">
        <ele>84</ele>
        <time>2021-07-02 15:26:42</time>
      </trkpt>
      <trkpt lat="29.07846" lon="-13.46457">
        <ele>83.6</ele>
        <time>2021-07-02 15:26:43</time>
      </trkpt>
      <trkpt lat="29.07849" lon="-13.46457">
        <ele>83.6</ele>
        <time>2021-07-02 15:26:44</time>
      </trkpt>
      <trkpt lat="29.07852" lon="-13.46457">
        <ele>83.4</ele>
        <time>2021-07-02 15:26:45</time>
      </trkpt>
      <trkpt lat="29.07854" lon="-13.46457">
        <ele>83.4</ele>
        <time>2021-07-02 15:26:46</time>
      </trkpt>
      <trkpt lat="29.07857" lon="-13.46457">
        <ele>83.8</ele>
        <time>2021-07-02 15:26:47</time>
      </trkpt>
      <trkpt lat="29.0786" lon="-13.46457">
        <ele>83.8</ele>
        <time>2021-07-02 15:26:48</time>
      </trkpt>
      <trkpt lat="29.07863" lon="-13.46456">
        <ele>83.8</ele>
        <time>2021-07-02 15:26:49</time>
      </trkpt>
      <trkpt lat="29.07866" lon="-13.46456">
        <ele>83.8</ele>
        <time>2021-07-02 15:26:50</time>
      </trkpt>
      <trkpt lat="29.07868" lon="-13.46456">
        <ele>83.8</ele>
        <time>2021-07-02 15:26:51</time>
      </trkpt>
      <trkpt lat="29.07871" lon="-13.46456">
        <ele>83.8</ele>
        <time>2021-07-02 15:26:52</time>
      </trkpt>
      <trkpt lat="29.07873" lon="-13.46455">
        <ele>83.8</ele>
        <time>2021-07-02 15:26:53</time>
      </trkpt>
      <trkpt lat="29.07875" lon="-13.46454">
        <ele>83.4</ele>
        <time>2021-07-02 15:26:54</time>
      </trkpt>
      <trkpt lat="29.07877" lon="-13.46452">
        <ele>83.4</ele>
        <time>2021-07-02 15:26:55</time>
      </trkpt>
      <trkpt lat="29.0788" lon="-13.46449">
        <ele>83.4</ele>
        <time>2021-07-02 15:26:56</time>
      </trkpt>
      <trkpt lat="29.07883" lon="-13.46446">
        <ele>83.2</ele>
        <time>2021-07-02 15:26:57</time>
      </trkpt>
      <trkpt lat="29.07885" lon="-13.46443">
        <ele>83.4</ele>
        <time>2021-07-02 15:26:58</time>
      </trkpt>
      <trkpt lat="29.07889" lon="-13.46438">
        <ele>83</ele>
        <time>2021-07-02 15:26:59</time>
      </trkpt>
      <trkpt lat="29.07892" lon="-13.46437">
        <ele>83</ele>
        <time>2021-07-02 15:27:00</time>
      </trkpt>
      <trkpt lat="29.07896" lon="-13.46435">
        <ele>83</ele>
        <time>2021-07-02 15:27:01</time>
      </trkpt>
      <trkpt lat="29.07899" lon="-13.46435">
        <ele>82.6</ele>
        <time>2021-07-02 15:27:02</time>
      </trkpt>
      <trkpt lat="29.07903" lon="-13.46436">
        <ele>81.4</ele>
        <time>2021-07-02 15:27:03</time>
      </trkpt>
      <trkpt lat="29.07907" lon="-13.46437">
        <ele>80.4</ele>
        <time>2021-07-02 15:27:04</time>
      </trkpt>
      <trkpt lat="29.07911" lon="-13.46439">
        <ele>80</ele>
        <time>2021-07-02 15:27:05</time>
      </trkpt>
      <trkpt lat="29.07915" lon="-13.4644">
        <ele>79.8</ele>
        <time>2021-07-02 15:27:06</time>
      </trkpt>
      <trkpt lat="29.07918" lon="-13.4644">
        <ele>79.8</ele>
        <time>2021-07-02 15:27:07</time>
      </trkpt>
      <trkpt lat="29.07922" lon="-13.4644">
        <ele>79.6</ele>
        <time>2021-07-02 15:27:08</time>
      </trkpt>
      <trkpt lat="29.07926" lon="-13.46439">
        <ele>80</ele>
        <time>2021-07-02 15:27:09</time>
      </trkpt>
      <trkpt lat="29.0793" lon="-13.46438">
        <ele>80</ele>
        <time>2021-07-02 15:27:10</time>
      </trkpt>
      <trkpt lat="29.07933" lon="-13.46437">
        <ele>79.6</ele>
        <time>2021-07-02 15:27:11</time>
      </trkpt>
      <trkpt lat="29.07937" lon="-13.46436">
        <ele>79.8</ele>
        <time>2021-07-02 15:27:12</time>
      </trkpt>
      <trkpt lat="29.07941" lon="-13.46435">
        <ele>79.4</ele>
        <time>2021-07-02 15:27:13</time>
      </trkpt>
      <trkpt lat="29.07944" lon="-13.46434">
        <ele>79.4</ele>
        <time>2021-07-02 15:27:14</time>
      </trkpt>
      <trkpt lat="29.07948" lon="-13.46432">
        <ele>79.4</ele>
        <time>2021-07-02 15:27:15</time>
      </trkpt>
      <trkpt lat="29.07951" lon="-13.4643">
        <ele>79</ele>
        <time>2021-07-02 15:27:16</time>
      </trkpt>
      <trkpt lat="29.07954" lon="-13.46428">
        <ele>79</ele>
        <time>2021-07-02 15:27:17</time>
      </trkpt>
      <trkpt lat="29.07957" lon="-13.46426">
        <ele>79</ele>
        <time>2021-07-02 15:27:18</time>
      </trkpt>
      <trkpt lat="29.0796" lon="-13.46424">
        <ele>79</ele>
        <time>2021-07-02 15:27:19</time>
      </trkpt>
      <trkpt lat="29.07962" lon="-13.46422">
        <ele>79</ele>
        <time>2021-07-02 15:27:20</time>
      </trkpt>
      <trkpt lat="29.07965" lon="-13.4642">
        <ele>79</ele>
        <time>2021-07-02 15:27:21</time>
      </trkpt>
      <trkpt lat="29.07967" lon="-13.46418">
        <ele>79.4</ele>
        <time>2021-07-02 15:27:22</time>
      </trkpt>
      <trkpt lat="29.07969" lon="-13.46416">
        <ele>80.2</ele>
        <time>2021-07-02 15:27:23</time>
      </trkpt>
      <trkpt lat="29.07972" lon="-13.46414">
        <ele>80.2</ele>
        <time>2021-07-02 15:27:24</time>
      </trkpt>
      <trkpt lat="29.07974" lon="-13.46412">
        <ele>79.8</ele>
        <time>2021-07-02 15:27:25</time>
      </trkpt>
      <trkpt lat="29.07976" lon="-13.4641">
        <ele>79.8</ele>
        <time>2021-07-02 15:27:26</time>
      </trkpt>
      <trkpt lat="29.07978" lon="-13.46408">
        <ele>79.8</ele>
        <time>2021-07-02 15:27:27</time>
      </trkpt>
      <trkpt lat="29.07981" lon="-13.46406">
        <ele>80.4</ele>
        <time>2021-07-02 15:27:28</time>
      </trkpt>
      <trkpt lat="29.07983" lon="-13.46404">
        <ele>80.6</ele>
        <time>2021-07-02 15:27:29</time>
      </trkpt>
      <trkpt lat="29.07985" lon="-13.46401">
        <ele>80.6</ele>
        <time>2021-07-02 15:27:30</time>
      </trkpt>
      <trkpt lat="29.07987" lon="-13.46399">
        <ele>80.8</ele>
        <time>2021-07-02 15:27:31</time>
      </trkpt>
      <trkpt lat="29.0799" lon="-13.46397">
        <ele>81.4</ele>
        <time>2021-07-02 15:27:32</time>
      </trkpt>
      <trkpt lat="29.07992" lon="-13.46395">
        <ele>81.4</ele>
        <time>2021-07-02 15:27:33</time>
      </trkpt>
      <trkpt lat="29.07995" lon="-13.46393">
        <ele>81.6</ele>
        <time>2021-07-02 15:27:34</time>
      </trkpt>
      <trkpt lat="29.07997" lon="-13.46392">
        <ele>81.6</ele>
        <time>2021-07-02 15:27:35</time>
      </trkpt>
      <trkpt lat="29.08" lon="-13.4639">
        <ele>81.4</ele>
        <time>2021-07-02 15:27:36</time>
      </trkpt>
      <trkpt lat="29.08002" lon="-13.46388">
        <ele>81.2</ele>
        <time>2021-07-02 15:27:37</time>
      </trkpt>
      <trkpt lat="29.08005" lon="-13.46387">
        <ele>81.2</ele>
        <time>2021-07-02 15:27:38</time>
      </trkpt>
      <trkpt lat="29.08007" lon="-13.46385">
        <ele>80.8</ele>
        <time>2021-07-02 15:27:39</time>
      </trkpt>
      <trkpt lat="29.08009" lon="-13.46382">
        <ele>80.8</ele>
        <time>2021-07-02 15:27:40</time>
      </trkpt>
      <trkpt lat="29.0801" lon="-13.4638">
        <ele>80.8</ele>
        <time>2021-07-02 15:27:41</time>
      </trkpt>
      <trkpt lat="29.08012" lon="-13.46378">
        <ele>80.8</ele>
        <time>2021-07-02 15:27:42</time>
      </trkpt>
      <trkpt lat="29.08014" lon="-13.46376">
        <ele>80.8</ele>
        <time>2021-07-02 15:27:43</time>
      </trkpt>
      <trkpt lat="29.08015" lon="-13.46375">
        <ele>80.8</ele>
        <time>2021-07-02 15:27:44</time>
      </trkpt>
      <trkpt lat="29.08017" lon="-13.46373">
        <ele>80.8</ele>
        <time>2021-07-02 15:27:45</time>
      </trkpt>
      <trkpt lat="29.08019" lon="-13.46372">
        <ele>80.8</ele>
        <time>2021-07-02 15:27:46</time>
      </trkpt>
      <trkpt lat="29.08022" lon="-13.46371">
        <ele>80.8</ele>
        <time>2021-07-02 15:27:47</time>
      </trkpt>
      <trkpt lat="29.08024" lon="-13.46371">
        <ele>80.8</ele>
        <time>2021-07-02 15:27:48</time>
      </trkpt>
      <trkpt lat="29.08026" lon="-13.46371">
        <ele>81.2</ele>
        <time>2021-07-02 15:27:49</time>
      </trkpt>
      <trkpt lat="29.08027" lon="-13.46371">
        <ele>81.2</ele>
        <time>2021-07-02 15:27:50</time>
      </trkpt>
      <trkpt lat="29.0803" lon="-13.4637">
        <ele>81.2</ele>
        <time>2021-07-02 15:27:51</time>
      </trkpt>
      <trkpt lat="29.08032" lon="-13.46369">
        <ele>81.2</ele>
        <time>2021-07-02 15:27:52</time>
      </trkpt>
      <trkpt lat="29.08033" lon="-13.46369">
        <ele>81.2</ele>
        <time>2021-07-02 15:27:53</time>
      </trkpt>
      <trkpt lat="29.08035" lon="-13.46368">
        <ele>81.2</ele>
        <time>2021-07-02 15:27:54</time>
      </trkpt>
      <trkpt lat="29.08037" lon="-13.46367">
        <ele>81.4</ele>
        <time>2021-07-02 15:27:55</time>
      </trkpt>
      <trkpt lat="29.08039" lon="-13.46365">
        <ele>82</ele>
        <time>2021-07-02 15:27:56</time>
      </trkpt>
      <trkpt lat="29.0804" lon="-13.46363">
        <ele>82.6</ele>
        <time>2021-07-02 15:27:57</time>
      </trkpt>
      <trkpt lat="29.08041" lon="-13.46362">
        <ele>83</ele>
        <time>2021-07-02 15:27:58</time>
      </trkpt>
      <trkpt lat="29.08042" lon="-13.4636">
        <ele>83</ele>
        <time>2021-07-02 15:27:59</time>
      </trkpt>
      <trkpt lat="29.08044" lon="-13.46359">
        <ele>83</ele>
        <time>2021-07-02 15:28:00</time>
      </trkpt>
      <trkpt lat="29.08046" lon="-13.46358">
        <ele>83</ele>
        <time>2021-07-02 15:28:01</time>
      </trkpt>
      <trkpt lat="29.08048" lon="-13.46357">
        <ele>83.4</ele>
        <time>2021-07-02 15:28:02</time>
      </trkpt>
      <trkpt lat="29.0805" lon="-13.46356">
        <ele>83.8</ele>
        <time>2021-07-02 15:28:03</time>
      </trkpt>
      <trkpt lat="29.08052" lon="-13.46355">
        <ele>84.2</ele>
        <time>2021-07-02 15:28:04</time>
      </trkpt>
      <trkpt lat="29.08055" lon="-13.46355">
        <ele>84.2</ele>
        <time>2021-07-02 15:28:05</time>
      </trkpt>
      <trkpt lat="29.08057" lon="-13.46355">
        <ele>84.6</ele>
        <time>2021-07-02 15:28:06</time>
      </trkpt>
      <trkpt lat="29.08059" lon="-13.46355">
        <ele>84.6</ele>
        <time>2021-07-02 15:28:07</time>
      </trkpt>
      <trkpt lat="29.0806" lon="-13.46355">
        <ele>84.8</ele>
        <time>2021-07-02 15:28:08</time>
      </trkpt>
      <trkpt lat="29.08061" lon="-13.46354">
        <ele>84.8</ele>
        <time>2021-07-02 15:28:09</time>
      </trkpt>
      <trkpt lat="29.08062" lon="-13.46354">
        <ele>85.2</ele>
        <time>2021-07-02 15:28:10</time>
      </trkpt>
      <trkpt lat="29.08064" lon="-13.46354">
        <ele>85.6</ele>
        <time>2021-07-02 15:28:11</time>
      </trkpt>
      <trkpt lat="29.08066" lon="-13.46354">
        <ele>86.2</ele>
        <time>2021-07-02 15:28:12</time>
      </trkpt>
      <trkpt lat="29.08068" lon="-13.46354">
        <ele>86.4</ele>
        <time>2021-07-02 15:28:13</time>
      </trkpt>
      <trkpt lat="29.0807" lon="-13.46354">
        <ele>86.4</ele>
        <time>2021-07-02 15:28:14</time>
      </trkpt>
      <trkpt lat="29.08071" lon="-13.46353">
        <ele>86.6</ele>
        <time>2021-07-02 15:28:15</time>
      </trkpt>
      <trkpt lat="29.08073" lon="-13.46353">
        <ele>87.2</ele>
        <time>2021-07-02 15:28:16</time>
      </trkpt>
      <trkpt lat="29.08075" lon="-13.46352">
        <ele>87.6</ele>
        <time>2021-07-02 15:28:17</time>
      </trkpt>
      <trkpt lat="29.08077" lon="-13.46351">
        <ele>87.8</ele>
        <time>2021-07-02 15:28:18</time>
      </trkpt>
      <trkpt lat="29.08079" lon="-13.46351">
        <ele>88</ele>
        <time>2021-07-02 15:28:19</time>
      </trkpt>
      <trkpt lat="29.08081" lon="-13.46349">
        <ele>88</ele>
        <time>2021-07-02 15:28:20</time>
      </trkpt>
      <trkpt lat="29.08083" lon="-13.46349">
        <ele>88.6</ele>
        <time>2021-07-02 15:28:21</time>
      </trkpt>
      <trkpt lat="29.08085" lon="-13.46347">
        <ele>88.6</ele>
        <time>2021-07-02 15:28:22</time>
      </trkpt>
      <trkpt lat="29.08086" lon="-13.46345">
        <ele>89.2</ele>
        <time>2021-07-02 15:28:23</time>
      </trkpt>
      <trkpt lat="29.08087" lon="-13.46343">
        <ele>89.2</ele>
        <time>2021-07-02 15:28:24</time>
      </trkpt>
      <trkpt lat="29.08088" lon="-13.46342">
        <ele>89.8</ele>
        <time>2021-07-02 15:28:25</time>
      </trkpt>
      <trkpt lat="29.08089" lon="-13.46341">
        <ele>89.8</ele>
        <time>2021-07-02 15:28:26</time>
      </trkpt>
      <trkpt lat="29.0809" lon="-13.4634">
        <ele>90.2</ele>
        <time>2021-07-02 15:28:27</time>
      </trkpt>
      <trkpt lat="29.08091" lon="-13.4634">
        <ele>90.6</ele>
        <time>2021-07-02 15:28:28</time>
      </trkpt>
      <trkpt lat="29.08092" lon="-13.4634">
        <ele>91.2</ele>
        <time>2021-07-02 15:28:29</time>
      </trkpt>
      <trkpt lat="29.08094" lon="-13.4634">
        <ele>91.2</ele>
        <time>2021-07-02 15:28:30</time>
      </trkpt>
      <trkpt lat="29.08095" lon="-13.4634">
        <ele>91.4</ele>
        <time>2021-07-02 15:28:31</time>
      </trkpt>
      <trkpt lat="29.08096" lon="-13.46339">
        <ele>91.4</ele>
        <time>2021-07-02 15:28:32</time>
      </trkpt>
      <trkpt lat="29.08098" lon="-13.46339">
        <ele>91.8</ele>
        <time>2021-07-02 15:28:33</time>
      </trkpt>
      <trkpt lat="29.08099" lon="-13.46337">
        <ele>92.2</ele>
        <time>2021-07-02 15:28:34</time>
      </trkpt>
      <trkpt lat="29.08101" lon="-13.46336">
        <ele>92.4</ele>
        <time>2021-07-02 15:28:35</time>
      </trkpt>
      <trkpt lat="29.08102" lon="-13.46336">
        <ele>92.4</ele>
        <time>2021-07-02 15:28:36</time>
      </trkpt>
      <trkpt lat="29.08103" lon="-13.46335">
        <ele>93</ele>
        <time>2021-07-02 15:28:37</time>
      </trkpt>
      <trkpt lat="29.08105" lon="-13.46335">
        <ele>93</ele>
        <time>2021-07-02 15:28:38</time>
      </trkpt>
      <trkpt lat="29.08107" lon="-13.46334">
        <ele>93.4</ele>
        <time>2021-07-02 15:28:39</time>
      </trkpt>
      <trkpt lat="29.08109" lon="-13.46334">
        <ele>93.4</ele>
        <time>2021-07-02 15:28:40</time>
      </trkpt>
      <trkpt lat="29.08109" lon="-13.46334">
        <ele>93.8</ele>
        <time>2021-07-02 15:28:41</time>
      </trkpt>
      <trkpt lat="29.08109" lon="-13.46334">
        <ele>93.8</ele>
        <time>2021-07-02 15:28:42</time>
      </trkpt>
      <trkpt lat="29.08108" lon="-13.46334">
        <ele>93.6</ele>
        <time>2021-07-02 15:28:43</time>
      </trkpt>
      <trkpt lat="29.08108" lon="-13.46335">
        <ele>93</ele>
        <time>2021-07-02 15:28:44</time>
      </trkpt>
      <trkpt lat="29.0811" lon="-13.46334">
        <ele>93</ele>
        <time>2021-07-02 15:28:45</time>
      </trkpt>
      <trkpt lat="29.08111" lon="-13.46333">
        <ele>93</ele>
        <time>2021-07-02 15:28:46</time>
      </trkpt>
      <trkpt lat="29.08114" lon="-13.46332">
        <ele>93</ele>
        <time>2021-07-02 15:28:47</time>
      </trkpt>
      <trkpt lat="29.08116" lon="-13.46332">
        <ele>93.6</ele>
        <time>2021-07-02 15:28:48</time>
      </trkpt>
      <trkpt lat="29.08118" lon="-13.46333">
        <ele>93.6</ele>
        <time>2021-07-02 15:28:49</time>
      </trkpt>
      <trkpt lat="29.08119" lon="-13.46335">
        <ele>94.2</ele>
        <time>2021-07-02 15:28:50</time>
      </trkpt>
      <trkpt lat="29.0812" lon="-13.46336">
        <ele>94.2</ele>
        <time>2021-07-02 15:28:51</time>
      </trkpt>
      <trkpt lat="29.08121" lon="-13.46338">
        <ele>94</ele>
        <time>2021-07-02 15:28:52</time>
      </trkpt>
      <trkpt lat="29.08123" lon="-13.46339">
        <ele>93.6</ele>
        <time>2021-07-02 15:28:53</time>
      </trkpt>
      <trkpt lat="29.08125" lon="-13.46341">
        <ele>93.8</ele>
        <time>2021-07-02 15:28:54</time>
      </trkpt>
      <trkpt lat="29.08126" lon="-13.46342">
        <ele>94</ele>
        <time>2021-07-02 15:28:55</time>
      </trkpt>
      <trkpt lat="29.08127" lon="-13.46344">
        <ele>93.8</ele>
        <time>2021-07-02 15:28:56</time>
      </trkpt>
      <trkpt lat="29.08127" lon="-13.46346">
        <ele>93.8</ele>
        <time>2021-07-02 15:28:57</time>
      </trkpt>
      <trkpt lat="29.08128" lon="-13.46348">
        <ele>93.8</ele>
        <time>2021-07-02 15:28:58</time>
      </trkpt>
      <trkpt lat="29.08128" lon="-13.46351">
        <ele>94.6</ele>
        <time>2021-07-02 15:28:59</time>
      </trkpt>
      <trkpt lat="29.08128" lon="-13.46353">
        <ele>94.6</ele>
        <time>2021-07-02 15:29:00</time>
      </trkpt>
      <trkpt lat="29.08128" lon="-13.46356">
        <ele>94.6</ele>
        <time>2021-07-02 15:29:01</time>
      </trkpt>
      <trkpt lat="29.08127" lon="-13.46358">
        <ele>94.6</ele>
        <time>2021-07-02 15:29:02</time>
      </trkpt>
      <trkpt lat="29.08125" lon="-13.46361">
        <ele>94.6</ele>
        <time>2021-07-02 15:29:03</time>
      </trkpt>
      <trkpt lat="29.08124" lon="-13.46363">
        <ele>94.8</ele>
        <time>2021-07-02 15:29:04</time>
      </trkpt>
      <trkpt lat="29.08122" lon="-13.46366">
        <ele>95</ele>
        <time>2021-07-02 15:29:05</time>
      </trkpt>
      <trkpt lat="29.08121" lon="-13.46369">
        <ele>95</ele>
        <time>2021-07-02 15:29:06</time>
      </trkpt>
      <trkpt lat="29.0812" lon="-13.46372">
        <ele>94.8</ele>
        <time>2021-07-02 15:29:07</time>
      </trkpt>
      <trkpt lat="29.08118" lon="-13.46375">
        <ele>94.8</ele>
        <time>2021-07-02 15:29:08</time>
      </trkpt>
      <trkpt lat="29.08116" lon="-13.46378">
        <ele>95.2</ele>
        <time>2021-07-02 15:29:09</time>
      </trkpt>
      <trkpt lat="29.08114" lon="-13.46381">
        <ele>95.2</ele>
        <time>2021-07-02 15:29:10</time>
      </trkpt>
      <trkpt lat="29.08112" lon="-13.46385">
        <ele>95.2</ele>
        <time>2021-07-02 15:29:11</time>
      </trkpt>
      <trkpt lat="29.0811" lon="-13.46388">
        <ele>95.2</ele>
        <time>2021-07-02 15:29:12</time>
      </trkpt>
      <trkpt lat="29.08109" lon="-13.46392">
        <ele>95.4</ele>
        <time>2021-07-02 15:29:13</time>
      </trkpt>
      <trkpt lat="29.08108" lon="-13.46395">
        <ele>95.4</ele>
        <time>2021-07-02 15:29:14</time>
      </trkpt>
      <trkpt lat="29.08106" lon="-13.46399">
        <ele>95.4</ele>
        <time>2021-07-02 15:29:15</time>
      </trkpt>
      <trkpt lat="29.08105" lon="-13.46403">
        <ele>95.2</ele>
        <time>2021-07-02 15:29:16</time>
      </trkpt>
      <trkpt lat="29.08104" lon="-13.46407">
        <ele>95.2</ele>
        <time>2021-07-02 15:29:17</time>
      </trkpt>
      <trkpt lat="29.08103" lon="-13.46411">
        <ele>94.8</ele>
        <time>2021-07-02 15:29:18</time>
      </trkpt>
      <trkpt lat="29.08103" lon="-13.46415">
        <ele>94.8</ele>
        <time>2021-07-02 15:29:19</time>
      </trkpt>
      <trkpt lat="29.08104" lon="-13.46421">
        <ele>94.8</ele>
        <time>2021-07-02 15:29:20</time>
      </trkpt>
      <trkpt lat="29.08105" lon="-13.46426">
        <ele>95.2</ele>
        <time>2021-07-02 15:29:21</time>
      </trkpt>
      <trkpt lat="29.08105" lon="-13.46431">
        <ele>95.2</ele>
        <time>2021-07-02 15:29:22</time>
      </trkpt>
      <trkpt lat="29.08105" lon="-13.46437">
        <ele>94.6</ele>
        <time>2021-07-02 15:29:23</time>
      </trkpt>
      <trkpt lat="29.08104" lon="-13.46443">
        <ele>94.6</ele>
        <time>2021-07-02 15:29:24</time>
      </trkpt>
      <trkpt lat="29.08104" lon="-13.46448">
        <ele>94.2</ele>
        <time>2021-07-02 15:29:25</time>
      </trkpt>
      <trkpt lat="29.08104" lon="-13.46453">
        <ele>94.2</ele>
        <time>2021-07-02 15:29:26</time>
      </trkpt>
      <trkpt lat="29.08104" lon="-13.46457">
        <ele>94.2</ele>
        <time>2021-07-02 15:29:27</time>
      </trkpt>
      <trkpt lat="29.08103" lon="-13.46461">
        <ele>94.2</ele>
        <time>2021-07-02 15:29:28</time>
      </trkpt>
      <trkpt lat="29.08103" lon="-13.46466">
        <ele>94.2</ele>
        <time>2021-07-02 15:29:29</time>
      </trkpt>
      <trkpt lat="29.08103" lon="-13.46469">
        <ele>94.6</ele>
        <time>2021-07-02 15:29:30</time>
      </trkpt>
      <trkpt lat="29.08103" lon="-13.46473">
        <ele>94.6</ele>
        <time>2021-07-02 15:29:31</time>
      </trkpt>
      <trkpt lat="29.08103" lon="-13.46477">
        <ele>94.6</ele>
        <time>2021-07-02 15:29:32</time>
      </trkpt>
      <trkpt lat="29.08104" lon="-13.4648">
        <ele>94.8</ele>
        <time>2021-07-02 15:29:33</time>
      </trkpt>
      <trkpt lat="29.08103" lon="-13.46483">
        <ele>94.8</ele>
        <time>2021-07-02 15:29:34</time>
      </trkpt>
      <trkpt lat="29.08104" lon="-13.46487">
        <ele>95.2</ele>
        <time>2021-07-02 15:29:35</time>
      </trkpt>
      <trkpt lat="29.08104" lon="-13.4649">
        <ele>95.2</ele>
        <time>2021-07-02 15:29:36</time>
      </trkpt>
      <trkpt lat="29.08105" lon="-13.46493">
        <ele>95.6</ele>
        <time>2021-07-02 15:29:37</time>
      </trkpt>
      <trkpt lat="29.08106" lon="-13.46496">
        <ele>95.6</ele>
        <time>2021-07-02 15:29:53</time>
      </trkpt>
      <trkpt lat="29.08106" lon="-13.465">
        <ele>96</ele>
        <time>2021-07-02 15:29:54</time>
      </trkpt>
      <trkpt lat="29.08107" lon="-13.46503">
        <ele>96.4</ele>
        <time>2021-07-02 15:29:55</time>
      </trkpt>
      <trkpt lat="29.08108" lon="-13.46507">
        <ele>97</ele>
        <time>2021-07-02 15:29:56</time>
      </trkpt>
      <trkpt lat="29.0811" lon="-13.4651">
        <ele>97.4</ele>
        <time>2021-07-02 15:29:57</time>
      </trkpt>
      <trkpt lat="29.08111" lon="-13.46513">
        <ele>97.4</ele>
        <time>2021-07-02 15:29:58</time>
      </trkpt>
      <trkpt lat="29.08113" lon="-13.46516">
        <ele>97.4</ele>
        <time>2021-07-02 15:29:59</time>
      </trkpt>
      <trkpt lat="29.08115" lon="-13.4652">
        <ele>97.6</ele>
        <time>2021-07-02 15:30:00</time>
      </trkpt>
      <trkpt lat="29.08117" lon="-13.46523">
        <ele>97.6</ele>
        <time>2021-07-02 15:30:01</time>
      </trkpt>
      <trkpt lat="29.08118" lon="-13.46526">
        <ele>97.6</ele>
        <time>2021-07-02 15:30:02</time>
      </trkpt>
      <trkpt lat="29.0812" lon="-13.46529">
        <ele>97.6</ele>
        <time>2021-07-02 15:30:03</time>
      </trkpt>
      <trkpt lat="29.08122" lon="-13.46533">
        <ele>97.8</ele>
        <time>2021-07-02 15:30:04</time>
      </trkpt>
      <trkpt lat="29.08124" lon="-13.46536">
        <ele>98.2</ele>
        <time>2021-07-02 15:30:05</time>
      </trkpt>
      <trkpt lat="29.08126" lon="-13.46539">
        <ele>98.2</ele>
        <time>2021-07-02 15:30:06</time>
      </trkpt>
      <trkpt lat="29.08127" lon="-13.46542">
        <ele>98.2</ele>
        <time>2021-07-02 15:30:07</time>
      </trkpt>
      <trkpt lat="29.08128" lon="-13.46544">
        <ele>98.2</ele>
        <time>2021-07-02 15:30:08</time>
      </trkpt>
      <trkpt lat="29.08128" lon="-13.46545">
        <ele>98.6</ele>
        <time>2021-07-02 15:30:09</time>
      </trkpt>
      <trkpt lat="29.08129" lon="-13.46547">
        <ele>99.4</ele>
        <time>2021-07-02 15:30:10</time>
      </trkpt>
      <trkpt lat="29.08131" lon="-13.46549">
        <ele>99.4</ele>
        <time>2021-07-02 15:30:11</time>
      </trkpt>
      <trkpt lat="29.08132" lon="-13.46551">
        <ele>99.6</ele>
        <time>2021-07-02 15:30:12</time>
      </trkpt>
      <trkpt lat="29.08133" lon="-13.46553">
        <ele>100.2</ele>
        <time>2021-07-02 15:30:13</time>
      </trkpt>
      <trkpt lat="29.08134" lon="-13.46555">
        <ele>100.2</ele>
        <time>2021-07-02 15:30:14</time>
      </trkpt>
      <trkpt lat="29.08135" lon="-13.46557">
        <ele>100.4</ele>
        <time>2021-07-02 15:30:15</time>
      </trkpt>
      <trkpt lat="29.08136" lon="-13.46559">
        <ele>100.4</ele>
        <time>2021-07-02 15:30:16</time>
      </trkpt>
      <trkpt lat="29.08136" lon="-13.46562">
        <ele>100.6</ele>
        <time>2021-07-02 15:30:17</time>
      </trkpt>
      <trkpt lat="29.08137" lon="-13.46565">
        <ele>100.6</ele>
        <time>2021-07-02 15:30:18</time>
      </trkpt>
      <trkpt lat="29.08137" lon="-13.46567">
        <ele>101</ele>
        <time>2021-07-02 15:30:19</time>
      </trkpt>
      <trkpt lat="29.08137" lon="-13.4657">
        <ele>101</ele>
        <time>2021-07-02 15:30:20</time>
      </trkpt>
      <trkpt lat="29.08138" lon="-13.46573">
        <ele>101.2</ele>
        <time>2021-07-02 15:30:21</time>
      </trkpt>
      <trkpt lat="29.08138" lon="-13.46575">
        <ele>101.2</ele>
        <time>2021-07-02 15:30:22</time>
      </trkpt>
      <trkpt lat="29.08138" lon="-13.46578">
        <ele>101.4</ele>
        <time>2021-07-02 15:30:23</time>
      </trkpt>
      <trkpt lat="29.08138" lon="-13.46581">
        <ele>101.4</ele>
        <time>2021-07-02 15:30:24</time>
      </trkpt>
      <trkpt lat="29.08138" lon="-13.46583">
        <ele>101.6</ele>
        <time>2021-07-02 15:30:25</time>
      </trkpt>
      <trkpt lat="29.08139" lon="-13.46585">
        <ele>101.6</ele>
        <time>2021-07-02 15:30:26</time>
      </trkpt>
      <trkpt lat="29.08139" lon="-13.46588">
        <ele>102</ele>
        <time>2021-07-02 15:30:27</time>
      </trkpt>
      <trkpt lat="29.0814" lon="-13.46591">
        <ele>102.4</ele>
        <time>2021-07-02 15:30:28</time>
      </trkpt>
      <trkpt lat="29.08141" lon="-13.46593">
        <ele>102.4</ele>
        <time>2021-07-02 15:30:29</time>
      </trkpt>
      <trkpt lat="29.08142" lon="-13.46596">
        <ele>102.6</ele>
        <time>2021-07-02 15:30:30</time>
      </trkpt>
      <trkpt lat="29.08143" lon="-13.46598">
        <ele>103.2</ele>
        <time>2021-07-02 15:30:31</time>
      </trkpt>
      <trkpt lat="29.08143" lon="-13.46601">
        <ele>103.2</ele>
        <time>2021-07-02 15:30:32</time>
      </trkpt>
      <trkpt lat="29.08145" lon="-13.46604">
        <ele>103.2</ele>
        <time>2021-07-02 15:30:33</time>
      </trkpt>
      <trkpt lat="29.08146" lon="-13.46606">
        <ele>103.4</ele>
        <time>2021-07-02 15:30:34</time>
      </trkpt>
      <trkpt lat="29.08147" lon="-13.46609">
        <ele>103.8</ele>
        <time>2021-07-02 15:30:35</time>
      </trkpt>
      <trkpt lat="29.08149" lon="-13.46611">
        <ele>103.8</ele>
        <time>2021-07-02 15:30:36</time>
      </trkpt>
      <trkpt lat="29.0815" lon="-13.46614">
        <ele>104</ele>
        <time>2021-07-02 15:30:37</time>
      </trkpt>
      <trkpt lat="29.08151" lon="-13.46616">
        <ele>104.4</ele>
        <time>2021-07-02 15:30:38</time>
      </trkpt>
      <trkpt lat="29.08152" lon="-13.46618">
        <ele>104.4</ele>
        <time>2021-07-02 15:30:39</time>
      </trkpt>
      <trkpt lat="29.08154" lon="-13.46621">
        <ele>104.4</ele>
        <time>2021-07-02 15:30:40</time>
      </trkpt>
      <trkpt lat="29.08155" lon="-13.46623">
        <ele>104.4</ele>
        <time>2021-07-02 15:30:41</time>
      </trkpt>
      <trkpt lat="29.08156" lon="-13.46625">
        <ele>104.4</ele>
        <time>2021-07-02 15:30:42</time>
      </trkpt>
      <trkpt lat="29.08157" lon="-13.46627">
        <ele>104.4</ele>
        <time>2021-07-02 15:30:43</time>
      </trkpt>
      <trkpt lat="29.08158" lon="-13.46629">
        <ele>105.4</ele>
        <time>2021-07-02 15:30:44</time>
      </trkpt>
      <trkpt lat="29.08159" lon="-13.46632">
        <ele>106.4</ele>
        <time>2021-07-02 15:30:45</time>
      </trkpt>
      <trkpt lat="29.0816" lon="-13.46634">
        <ele>106.4</ele>
        <time>2021-07-02 15:30:46</time>
      </trkpt>
      <trkpt lat="29.08161" lon="-13.46636">
        <ele>105.8</ele>
        <time>2021-07-02 15:30:47</time>
      </trkpt>
      <trkpt lat="29.08162" lon="-13.46638">
        <ele>105.2</ele>
        <time>2021-07-02 15:30:48</time>
      </trkpt>
      <trkpt lat="29.08163" lon="-13.4664">
        <ele>104.6</ele>
        <time>2021-07-02 15:30:49</time>
      </trkpt>
      <trkpt lat="29.08164" lon="-13.46642">
        <ele>104.2</ele>
        <time>2021-07-02 15:30:50</time>
      </trkpt>
      <trkpt lat="29.08165" lon="-13.46644">
        <ele>104.8</ele>
        <time>2021-07-02 15:30:51</time>
      </trkpt>
      <trkpt lat="29.08166" lon="-13.46646">
        <ele>104.8</ele>
        <time>2021-07-02 15:30:52</time>
      </trkpt>
      <trkpt lat="29.08167" lon="-13.46648">
        <ele>104.8</ele>
        <time>2021-07-02 15:30:53</time>
      </trkpt>
      <trkpt lat="29.08168" lon="-13.4665">
        <ele>105.4</ele>
        <time>2021-07-02 15:30:54</time>
      </trkpt>
      <trkpt lat="29.08169" lon="-13.46652">
        <ele>105.4</ele>
        <time>2021-07-02 15:30:55</time>
      </trkpt>
      <trkpt lat="29.08171" lon="-13.46655">
        <ele>105.4</ele>
        <time>2021-07-02 15:30:56</time>
      </trkpt>
      <trkpt lat="29.08172" lon="-13.46657">
        <ele>105</ele>
        <time>2021-07-02 15:30:57</time>
      </trkpt>
      <trkpt lat="29.08173" lon="-13.46659">
        <ele>105.2</ele>
        <time>2021-07-02 15:30:58</time>
      </trkpt>
      <trkpt lat="29.08174" lon="-13.46661">
        <ele>105.2</ele>
        <time>2021-07-02 15:30:59</time>
      </trkpt>
      <trkpt lat="29.08176" lon="-13.46663">
        <ele>105.2</ele>
        <time>2021-07-02 15:31:00</time>
      </trkpt>
      <trkpt lat="29.08177" lon="-13.46665">
        <ele>105.2</ele>
        <time>2021-07-02 15:31:01</time>
      </trkpt>
      <trkpt lat="29.08178" lon="-13.46668">
        <ele>105.2</ele>
        <time>2021-07-02 15:31:02</time>
      </trkpt>
      <trkpt lat="29.0818" lon="-13.4667">
        <ele>105.2</ele>
        <time>2021-07-02 15:31:03</time>
      </trkpt>
      <trkpt lat="29.08181" lon="-13.46672">
        <ele>105.2</ele>
        <time>2021-07-02 15:31:04</time>
      </trkpt>
      <trkpt lat="29.08182" lon="-13.46675">
        <ele>105.2</ele>
        <time>2021-07-02 15:31:05</time>
      </trkpt>
      <trkpt lat="29.08183" lon="-13.46677">
        <ele>105.4</ele>
        <time>2021-07-02 15:31:06</time>
      </trkpt>
      <trkpt lat="29.08184" lon="-13.4668">
        <ele>105.4</ele>
        <time>2021-07-02 15:31:07</time>
      </trkpt>
      <trkpt lat="29.08186" lon="-13.46682">
        <ele>105.8</ele>
        <time>2021-07-02 15:31:08</time>
      </trkpt>
      <trkpt lat="29.08187" lon="-13.46684">
        <ele>105.8</ele>
        <time>2021-07-02 15:31:09</time>
      </trkpt>
      <trkpt lat="29.08189" lon="-13.46686">
        <ele>106.2</ele>
        <time>2021-07-02 15:31:10</time>
      </trkpt>
      <trkpt lat="29.0819" lon="-13.46688">
        <ele>106.2</ele>
        <time>2021-07-02 15:31:11</time>
      </trkpt>
      <trkpt lat="29.08192" lon="-13.46691">
        <ele>106.8</ele>
        <time>2021-07-02 15:31:12</time>
      </trkpt>
      <trkpt lat="29.08193" lon="-13.46692">
        <ele>107.2</ele>
        <time>2021-07-02 15:31:13</time>
      </trkpt>
      <trkpt lat="29.08195" lon="-13.46694">
        <ele>108.4</ele>
        <time>2021-07-02 15:31:14</time>
      </trkpt>
      <trkpt lat="29.08197" lon="-13.46696">
        <ele>109.2</ele>
        <time>2021-07-02 15:31:15</time>
      </trkpt>
      <trkpt lat="29.08199" lon="-13.46698">
        <ele>110</ele>
        <time>2021-07-02 15:31:16</time>
      </trkpt>
      <trkpt lat="29.082" lon="-13.46699">
        <ele>110</ele>
        <time>2021-07-02 15:31:17</time>
      </trkpt>
      <trkpt lat="29.08202" lon="-13.46701">
        <ele>110</ele>
        <time>2021-07-02 15:31:18</time>
      </trkpt>
      <trkpt lat="29.08203" lon="-13.46703">
        <ele>109.8</ele>
        <time>2021-07-02 15:31:19</time>
      </trkpt>
      <trkpt lat="29.08205" lon="-13.46705">
        <ele>109.8</ele>
        <time>2021-07-02 15:31:20</time>
      </trkpt>
      <trkpt lat="29.08207" lon="-13.46707">
        <ele>109.8</ele>
        <time>2021-07-02 15:31:21</time>
      </trkpt>
      <trkpt lat="29.08209" lon="-13.46708">
        <ele>109.8</ele>
        <time>2021-07-02 15:31:22</time>
      </trkpt>
      <trkpt lat="29.0821" lon="-13.4671">
        <ele>110</ele>
        <time>2021-07-02 15:31:23</time>
      </trkpt>
      <trkpt lat="29.08211" lon="-13.46712">
        <ele>110</ele>
        <time>2021-07-02 15:31:24</time>
      </trkpt>
      <trkpt lat="29.08211" lon="-13.46715">
        <ele>110.8</ele>
        <time>2021-07-02 15:31:25</time>
      </trkpt>
      <trkpt lat="29.08211" lon="-13.46717">
        <ele>110.4</ele>
        <time>2021-07-02 15:31:26</time>
      </trkpt>
      <trkpt lat="29.08211" lon="-13.4672">
        <ele>110.4</ele>
        <time>2021-07-02 15:31:27</time>
      </trkpt>
      <trkpt lat="29.0821" lon="-13.46723">
        <ele>110.4</ele>
        <time>2021-07-02 15:31:28</time>
      </trkpt>
      <trkpt lat="29.0821" lon="-13.46725">
        <ele>110.4</ele>
        <time>2021-07-02 15:31:29</time>
      </trkpt>
      <trkpt lat="29.08209" lon="-13.46727">
        <ele>110.4</ele>
        <time>2021-07-02 15:31:30</time>
      </trkpt>
      <trkpt lat="29.08209" lon="-13.46728">
        <ele>111.2</ele>
        <time>2021-07-02 15:31:31</time>
      </trkpt>
      <trkpt lat="29.08208" lon="-13.46731">
        <ele>111.8</ele>
        <time>2021-07-02 15:31:32</time>
      </trkpt>
      <trkpt lat="29.08207" lon="-13.46733">
        <ele>111.8</ele>
        <time>2021-07-02 15:31:33</time>
      </trkpt>
      <trkpt lat="29.08206" lon="-13.46735">
        <ele>111.6</ele>
        <time>2021-07-02 15:31:34</time>
      </trkpt>
      <trkpt lat="29.08205" lon="-13.46738">
        <ele>111.6</ele>
        <time>2021-07-02 15:31:35</time>
      </trkpt>
      <trkpt lat="29.08204" lon="-13.46741">
        <ele>111.6</ele>
        <time>2021-07-02 15:31:36</time>
      </trkpt>
      <trkpt lat="29.08204" lon="-13.46743">
        <ele>111.6</ele>
        <time>2021-07-02 15:31:37</time>
      </trkpt>
      <trkpt lat="29.08203" lon="-13.46746">
        <ele>111.8</ele>
        <time>2021-07-02 15:31:38</time>
      </trkpt>
      <trkpt lat="29.08201" lon="-13.46748">
        <ele>111.8</ele>
        <time>2021-07-02 15:31:39</time>
      </trkpt>
      <trkpt lat="29.082" lon="-13.46751">
        <ele>111.8</ele>
        <time>2021-07-02 15:31:40</time>
      </trkpt>
      <trkpt lat="29.082" lon="-13.46754">
        <ele>111.8</ele>
        <time>2021-07-02 15:31:41</time>
      </trkpt>
      <trkpt lat="29.08199" lon="-13.46758">
        <ele>111.8</ele>
        <time>2021-07-02 15:31:42</time>
      </trkpt>
      <trkpt lat="29.08199" lon="-13.46762">
        <ele>111.8</ele>
        <time>2021-07-02 15:31:43</time>
      </trkpt>
      <trkpt lat="29.08198" lon="-13.46766">
        <ele>111.6</ele>
        <time>2021-07-02 15:31:44</time>
      </trkpt>
      <trkpt lat="29.08198" lon="-13.4677">
        <ele>111.8</ele>
        <time>2021-07-02 15:31:45</time>
      </trkpt>
      <trkpt lat="29.08198" lon="-13.46774">
        <ele>111.8</ele>
        <time>2021-07-02 15:31:46</time>
      </trkpt>
      <trkpt lat="29.08198" lon="-13.46778">
        <ele>111.8</ele>
        <time>2021-07-02 15:31:47</time>
      </trkpt>
      <trkpt lat="29.082" lon="-13.46782">
        <ele>112.8</ele>
        <time>2021-07-02 15:31:48</time>
      </trkpt>
      <trkpt lat="29.08211" lon="-13.46796">
        <ele>112</ele>
        <time>2021-07-02 15:31:49</time>
      </trkpt>
      <trkpt lat="29.08214" lon="-13.46799">
        <ele>111.6</ele>
        <time>2021-07-02 15:31:50</time>
      </trkpt>
      <trkpt lat="29.08216" lon="-13.46803">
        <ele>111.6</ele>
        <time>2021-07-02 15:31:51</time>
      </trkpt>
      <trkpt lat="29.08218" lon="-13.46807">
        <ele>111.6</ele>
        <time>2021-07-02 15:31:52</time>
      </trkpt>
      <trkpt lat="29.08219" lon="-13.46811">
        <ele>111.2</ele>
        <time>2021-07-02 15:31:53</time>
      </trkpt>
      <trkpt lat="29.0822" lon="-13.46816">
        <ele>111.2</ele>
        <time>2021-07-02 15:31:54</time>
      </trkpt>
      <trkpt lat="29.08221" lon="-13.4682">
        <ele>111.2</ele>
        <time>2021-07-02 15:31:55</time>
      </trkpt>
      <trkpt lat="29.08222" lon="-13.46825">
        <ele>110.8</ele>
        <time>2021-07-02 15:31:56</time>
      </trkpt>
      <trkpt lat="29.08223" lon="-13.46829">
        <ele>110.8</ele>
        <time>2021-07-02 15:31:57</time>
      </trkpt>
      <trkpt lat="29.08223" lon="-13.46833">
        <ele>110.2</ele>
        <time>2021-07-02 15:31:58</time>
      </trkpt>
      <trkpt lat="29.08223" lon="-13.46838">
        <ele>110.8</ele>
        <time>2021-07-02 15:31:59</time>
      </trkpt>
      <trkpt lat="29.08223" lon="-13.46842">
        <ele>109.8</ele>
        <time>2021-07-02 15:32:00</time>
      </trkpt>
      <trkpt lat="29.08222" lon="-13.46848">
        <ele>108.8</ele>
        <time>2021-07-02 15:32:01</time>
      </trkpt>
      <trkpt lat="29.08222" lon="-13.46853">
        <ele>108.4</ele>
        <time>2021-07-02 15:32:02</time>
      </trkpt>
      <trkpt lat="29.08222" lon="-13.4686">
        <ele>108</ele>
        <time>2021-07-02 15:32:03</time>
      </trkpt>
      <trkpt lat="29.08222" lon="-13.46867">
        <ele>107.6</ele>
        <time>2021-07-02 15:32:04</time>
      </trkpt>
      <trkpt lat="29.08222" lon="-13.46874">
        <ele>106.8</ele>
        <time>2021-07-02 15:32:05</time>
      </trkpt>
      <trkpt lat="29.08223" lon="-13.46888">
        <ele>106</ele>
        <time>2021-07-02 15:32:06</time>
      </trkpt>
      <trkpt lat="29.08223" lon="-13.46895">
        <ele>105.8</ele>
        <time>2021-07-02 15:32:07</time>
      </trkpt>
      <trkpt lat="29.08223" lon="-13.46902">
        <ele>105.8</ele>
        <time>2021-07-02 15:32:08</time>
      </trkpt>
      <trkpt lat="29.08223" lon="-13.46908">
        <ele>105</ele>
        <time>2021-07-02 15:32:09</time>
      </trkpt>
      <trkpt lat="29.08224" lon="-13.46914">
        <ele>104.8</ele>
        <time>2021-07-02 15:32:10</time>
      </trkpt>
      <trkpt lat="29.08225" lon="-13.46918">
        <ele>104.6</ele>
        <time>2021-07-02 15:32:11</time>
      </trkpt>
      <trkpt lat="29.08225" lon="-13.46923">
        <ele>104.2</ele>
        <time>2021-07-02 15:32:12</time>
      </trkpt>
      <trkpt lat="29.08226" lon="-13.46928">
        <ele>104.2</ele>
        <time>2021-07-02 15:32:13</time>
      </trkpt>
      <trkpt lat="29.08226" lon="-13.46932">
        <ele>104</ele>
        <time>2021-07-02 15:32:14</time>
      </trkpt>
      <trkpt lat="29.08226" lon="-13.46938">
        <ele>104</ele>
        <time>2021-07-02 15:32:15</time>
      </trkpt>
      <trkpt lat="29.08226" lon="-13.46943">
        <ele>103.6</ele>
        <time>2021-07-02 15:32:16</time>
      </trkpt>
      <trkpt lat="29.08226" lon="-13.46949">
        <ele>103.6</ele>
        <time>2021-07-02 15:32:17</time>
      </trkpt>
      <trkpt lat="29.08227" lon="-13.46955">
        <ele>103.4</ele>
        <time>2021-07-02 15:32:18</time>
      </trkpt>
      <trkpt lat="29.08227" lon="-13.46961">
        <ele>103.4</ele>
        <time>2021-07-02 15:32:19</time>
      </trkpt>
      <trkpt lat="29.08227" lon="-13.46967">
        <ele>103.2</ele>
        <time>2021-07-02 15:32:20</time>
      </trkpt>
      <trkpt lat="29.08227" lon="-13.46973">
        <ele>103</ele>
        <time>2021-07-02 15:32:21</time>
      </trkpt>
      <trkpt lat="29.08226" lon="-13.46979">
        <ele>102.6</ele>
        <time>2021-07-02 15:32:22</time>
      </trkpt>
      <trkpt lat="29.08225" lon="-13.46985">
        <ele>102.6</ele>
        <time>2021-07-02 15:32:23</time>
      </trkpt>
      <trkpt lat="29.08224" lon="-13.46992">
        <ele>102.6</ele>
        <time>2021-07-02 15:32:24</time>
      </trkpt>
      <trkpt lat="29.08223" lon="-13.46999">
        <ele>102.2</ele>
        <time>2021-07-02 15:32:25</time>
      </trkpt>
      <trkpt lat="29.08223" lon="-13.47005">
        <ele>101.8</ele>
        <time>2021-07-02 15:32:26</time>
      </trkpt>
      <trkpt lat="29.08221" lon="-13.47012">
        <ele>101.6</ele>
        <time>2021-07-02 15:32:27</time>
      </trkpt>
      <trkpt lat="29.0822" lon="-13.47019">
        <ele>101.2</ele>
        <time>2021-07-02 15:32:28</time>
      </trkpt>
      <trkpt lat="29.08219" lon="-13.47026">
        <ele>101</ele>
        <time>2021-07-02 15:32:29</time>
      </trkpt>
      <trkpt lat="29.08219" lon="-13.47034">
        <ele>100.6</ele>
        <time>2021-07-02 15:32:30</time>
      </trkpt>
      <trkpt lat="29.08218" lon="-13.47041">
        <ele>100.6</ele>
        <time>2021-07-02 15:32:31</time>
      </trkpt>
      <trkpt lat="29.08216" lon="-13.47048">
        <ele>100.6</ele>
        <time>2021-07-02 15:32:32</time>
      </trkpt>
      <trkpt lat="29.08214" lon="-13.47055">
        <ele>100.6</ele>
        <time>2021-07-02 15:32:33</time>
      </trkpt>
      <trkpt lat="29.08211" lon="-13.47062">
        <ele>99.8</ele>
        <time>2021-07-02 15:32:34</time>
      </trkpt>
      <trkpt lat="29.08208" lon="-13.47069">
        <ele>99.2</ele>
        <time>2021-07-02 15:32:35</time>
      </trkpt>
      <trkpt lat="29.08205" lon="-13.47076">
        <ele>99</ele>
        <time>2021-07-02 15:32:36</time>
      </trkpt>
      <trkpt lat="29.08201" lon="-13.47082">
        <ele>98.6</ele>
        <time>2021-07-02 15:32:37</time>
      </trkpt>
      <trkpt lat="29.08197" lon="-13.47088">
        <ele>98.6</ele>
        <time>2021-07-02 15:32:38</time>
      </trkpt>
      <trkpt lat="29.08191" lon="-13.47092">
        <ele>98.2</ele>
        <time>2021-07-02 15:32:39</time>
      </trkpt>
      <trkpt lat="29.08186" lon="-13.47095">
        <ele>98</ele>
        <time>2021-07-02 15:32:40</time>
      </trkpt>
      <trkpt lat="29.08181" lon="-13.47098">
        <ele>98.8</ele>
        <time>2021-07-02 15:32:41</time>
      </trkpt>
      <trkpt lat="29.08177" lon="-13.471">
        <ele>98.6</ele>
        <time>2021-07-02 15:32:42</time>
      </trkpt>
      <trkpt lat="29.08173" lon="-13.47103">
        <ele>98.4</ele>
        <time>2021-07-02 15:32:43</time>
      </trkpt>
      <trkpt lat="29.08169" lon="-13.47106">
        <ele>98.4</ele>
        <time>2021-07-02 15:32:44</time>
      </trkpt>
      <trkpt lat="29.08166" lon="-13.4711">
        <ele>98</ele>
        <time>2021-07-02 15:32:45</time>
      </trkpt>
      <trkpt lat="29.08163" lon="-13.47115">
        <ele>98.2</ele>
        <time>2021-07-02 15:32:46</time>
      </trkpt>
      <trkpt lat="29.0816" lon="-13.47119">
        <ele>98.2</ele>
        <time>2021-07-02 15:32:47</time>
      </trkpt>
      <trkpt lat="29.08159" lon="-13.47124">
        <ele>98</ele>
        <time>2021-07-02 15:32:48</time>
      </trkpt>
      <trkpt lat="29.08158" lon="-13.47128">
        <ele>98.2</ele>
        <time>2021-07-02 15:32:49</time>
      </trkpt>
      <trkpt lat="29.08156" lon="-13.47132">
        <ele>98.2</ele>
        <time>2021-07-02 15:32:50</time>
      </trkpt>
      <trkpt lat="29.08155" lon="-13.47137">
        <ele>98</ele>
        <time>2021-07-02 15:32:51</time>
      </trkpt>
      <trkpt lat="29.08154" lon="-13.47142">
        <ele>98</ele>
        <time>2021-07-02 15:32:52</time>
      </trkpt>
      <trkpt lat="29.08152" lon="-13.47146">
        <ele>98</ele>
        <time>2021-07-02 15:32:53</time>
      </trkpt>
      <trkpt lat="29.08151" lon="-13.4715">
        <ele>98</ele>
        <time>2021-07-02 15:32:54</time>
      </trkpt>
      <trkpt lat="29.0815" lon="-13.47154">
        <ele>98</ele>
        <time>2021-07-02 15:32:55</time>
      </trkpt>
      <trkpt lat="29.08149" lon="-13.47157">
        <ele>98</ele>
        <time>2021-07-02 15:32:56</time>
      </trkpt>
      <trkpt lat="29.08148" lon="-13.47161">
        <ele>98</ele>
        <time>2021-07-02 15:32:57</time>
      </trkpt>
      <trkpt lat="29.08148" lon="-13.47165">
        <ele>98</ele>
        <time>2021-07-02 15:32:58</time>
      </trkpt>
      <trkpt lat="29.08148" lon="-13.47169">
        <ele>97.6</ele>
        <time>2021-07-02 15:32:59</time>
      </trkpt>
      <trkpt lat="29.08148" lon="-13.47171">
        <ele>97.6</ele>
        <time>2021-07-02 15:33:00</time>
      </trkpt>
      <trkpt lat="29.08149" lon="-13.47173">
        <ele>97.6</ele>
        <time>2021-07-02 15:33:01</time>
      </trkpt>
      <trkpt lat="29.08152" lon="-13.47174">
        <ele>97.4</ele>
        <time>2021-07-02 15:33:02</time>
      </trkpt>
      <trkpt lat="29.08157" lon="-13.4717">
        <ele>97.4</ele>
        <time>2021-07-02 15:33:03</time>
      </trkpt>
      <trkpt lat="29.08162" lon="-13.47169">
        <ele>97.4</ele>
        <time>2021-07-02 15:33:04</time>
      </trkpt>
      <trkpt lat="29.08167" lon="-13.47167">
        <ele>97.2</ele>
        <time>2021-07-02 15:33:05</time>
      </trkpt>
      <trkpt lat="29.08172" lon="-13.47166">
        <ele>97.2</ele>
        <time>2021-07-02 15:33:06</time>
      </trkpt>
      <trkpt lat="29.08177" lon="-13.47164">
        <ele>97.2</ele>
        <time>2021-07-02 15:33:07</time>
      </trkpt>
      <trkpt lat="29.08183" lon="-13.47163">
        <ele>97.2</ele>
        <time>2021-07-02 15:33:08</time>
      </trkpt>
      <trkpt lat="29.08188" lon="-13.47165">
        <ele>96.8</ele>
        <time>2021-07-02 15:33:09</time>
      </trkpt>
      <trkpt lat="29.08192" lon="-13.47169">
        <ele>96.8</ele>
        <time>2021-07-02 15:33:10</time>
      </trkpt>
      <trkpt lat="29.08194" lon="-13.47174">
        <ele>96.2</ele>
        <time>2021-07-02 15:33:11</time>
      </trkpt>
      <trkpt lat="29.08195" lon="-13.4718">
        <ele>95.8</ele>
        <time>2021-07-02 15:33:12</time>
      </trkpt>
      <trkpt lat="29.08195" lon="-13.47186">
        <ele>95.4</ele>
        <time>2021-07-02 15:33:13</time>
      </trkpt>
      <trkpt lat="29.08197" lon="-13.47192">
        <ele>95.2</ele>
        <time>2021-07-02 15:33:14</time>
      </trkpt>
      <trkpt lat="29.08199" lon="-13.47197">
        <ele>95</ele>
        <time>2021-07-02 15:33:15</time>
      </trkpt>
      <trkpt lat="29.08203" lon="-13.47201">
        <ele>94.6</ele>
        <time>2021-07-02 15:33:16</time>
      </trkpt>
      <trkpt lat="29.08206" lon="-13.47203">
        <ele>94.6</ele>
        <time>2021-07-02 15:33:17</time>
      </trkpt>
      <trkpt lat="29.0821" lon="-13.47204">
        <ele>94.6</ele>
        <time>2021-07-02 15:33:18</time>
      </trkpt>
      <trkpt lat="29.08214" lon="-13.47205">
        <ele>94.6</ele>
        <time>2021-07-02 15:33:19</time>
      </trkpt>
      <trkpt lat="29.08218" lon="-13.47205">
        <ele>94.6</ele>
        <time>2021-07-02 15:33:20</time>
      </trkpt>
      <trkpt lat="29.08223" lon="-13.47206">
        <ele>95.2</ele>
        <time>2021-07-02 15:33:21</time>
      </trkpt>
      <trkpt lat="29.08227" lon="-13.47205">
        <ele>95.2</ele>
        <time>2021-07-02 15:33:22</time>
      </trkpt>
      <trkpt lat="29.08232" lon="-13.47205">
        <ele>94.8</ele>
        <time>2021-07-02 15:33:23</time>
      </trkpt>
      <trkpt lat="29.08237" lon="-13.47205">
        <ele>94.6</ele>
        <time>2021-07-02 15:33:24</time>
      </trkpt>
      <trkpt lat="29.08243" lon="-13.47204">
        <ele>94.2</ele>
        <time>2021-07-02 15:33:25</time>
      </trkpt>
      <trkpt lat="29.08249" lon="-13.47204">
        <ele>94</ele>
        <time>2021-07-02 15:33:26</time>
      </trkpt>
      <trkpt lat="29.08254" lon="-13.47204">
        <ele>93.8</ele>
        <time>2021-07-02 15:33:27</time>
      </trkpt>
      <trkpt lat="29.08261" lon="-13.47203">
        <ele>93.4</ele>
        <time>2021-07-02 15:33:28</time>
      </trkpt>
      <trkpt lat="29.08267" lon="-13.47203">
        <ele>93.2</ele>
        <time>2021-07-02 15:33:29</time>
      </trkpt>
      <trkpt lat="29.08273" lon="-13.47202">
        <ele>93.2</ele>
        <time>2021-07-02 15:33:30</time>
      </trkpt>
      <trkpt lat="29.08279" lon="-13.47202">
        <ele>92.8</ele>
        <time>2021-07-02 15:33:31</time>
      </trkpt>
      <trkpt lat="29.08285" lon="-13.47201">
        <ele>92.8</ele>
        <time>2021-07-02 15:33:32</time>
      </trkpt>
      <trkpt lat="29.08291" lon="-13.472">
        <ele>92.4</ele>
        <time>2021-07-02 15:33:33</time>
      </trkpt>
      <trkpt lat="29.08297" lon="-13.472">
        <ele>92.4</ele>
        <time>2021-07-02 15:33:34</time>
      </trkpt>
      <trkpt lat="29.08303" lon="-13.47201">
        <ele>92</ele>
        <time>2021-07-02 15:33:35</time>
      </trkpt>
      <trkpt lat="29.08308" lon="-13.47203">
        <ele>92</ele>
        <time>2021-07-02 15:33:36</time>
      </trkpt>
      <trkpt lat="29.08312" lon="-13.47205">
        <ele>92</ele>
        <time>2021-07-02 15:33:37</time>
      </trkpt>
      <trkpt lat="29.08316" lon="-13.47208">
        <ele>91.8</ele>
        <time>2021-07-02 15:33:38</time>
      </trkpt>
      <trkpt lat="29.08321" lon="-13.4721">
        <ele>92</ele>
        <time>2021-07-02 15:33:39</time>
      </trkpt>
      <trkpt lat="29.08325" lon="-13.47213">
        <ele>92</ele>
        <time>2021-07-02 15:33:40</time>
      </trkpt>
      <trkpt lat="29.08329" lon="-13.47215">
        <ele>92</ele>
        <time>2021-07-02 15:33:41</time>
      </trkpt>
      <trkpt lat="29.08332" lon="-13.47219">
        <ele>91.8</ele>
        <time>2021-07-02 15:33:42</time>
      </trkpt>
      <trkpt lat="29.08335" lon="-13.47223">
        <ele>91.8</ele>
        <time>2021-07-02 15:33:43</time>
      </trkpt>
      <trkpt lat="29.08338" lon="-13.47226">
        <ele>91.4</ele>
        <time>2021-07-02 15:33:44</time>
      </trkpt>
      <trkpt lat="29.08342" lon="-13.47228">
        <ele>91.2</ele>
        <time>2021-07-02 15:33:45</time>
      </trkpt>
      <trkpt lat="29.08346" lon="-13.47229">
        <ele>91.2</ele>
        <time>2021-07-02 15:33:46</time>
      </trkpt>
      <trkpt lat="29.08351" lon="-13.47228">
        <ele>90.8</ele>
        <time>2021-07-02 15:33:47</time>
      </trkpt>
      <trkpt lat="29.08355" lon="-13.47225">
        <ele>90.6</ele>
        <time>2021-07-02 15:33:48</time>
      </trkpt>
      <trkpt lat="29.08359" lon="-13.47221">
        <ele>90.6</ele>
        <time>2021-07-02 15:33:49</time>
      </trkpt>
      <trkpt lat="29.08363" lon="-13.47218">
        <ele>90.6</ele>
        <time>2021-07-02 15:33:50</time>
      </trkpt>
      <trkpt lat="29.08368" lon="-13.47216">
        <ele>90.4</ele>
        <time>2021-07-02 15:33:51</time>
      </trkpt>
      <trkpt lat="29.08373" lon="-13.47214">
        <ele>90.2</ele>
        <time>2021-07-02 15:33:52</time>
      </trkpt>
      <trkpt lat="29.08378" lon="-13.47213">
        <ele>90.2</ele>
        <time>2021-07-02 15:33:53</time>
      </trkpt>
      <trkpt lat="29.08382" lon="-13.47212">
        <ele>89.8</ele>
        <time>2021-07-02 15:33:54</time>
      </trkpt>
      <trkpt lat="29.08387" lon="-13.47211">
        <ele>89.8</ele>
        <time>2021-07-02 15:33:55</time>
      </trkpt>
      <trkpt lat="29.08392" lon="-13.4721">
        <ele>89.4</ele>
        <time>2021-07-02 15:33:56</time>
      </trkpt>
      <trkpt lat="29.08396" lon="-13.47209">
        <ele>89.4</ele>
        <time>2021-07-02 15:33:57</time>
      </trkpt>
      <trkpt lat="29.084" lon="-13.47207">
        <ele>89.4</ele>
        <time>2021-07-02 15:33:58</time>
      </trkpt>
      <trkpt lat="29.08404" lon="-13.47205">
        <ele>89.2</ele>
        <time>2021-07-02 15:33:59</time>
      </trkpt>
      <trkpt lat="29.08408" lon="-13.47204">
        <ele>89.2</ele>
        <time>2021-07-02 15:34:00</time>
      </trkpt>
      <trkpt lat="29.08412" lon="-13.47202">
        <ele>89.2</ele>
        <time>2021-07-02 15:34:01</time>
      </trkpt>
      <trkpt lat="29.08417" lon="-13.47201">
        <ele>89.2</ele>
        <time>2021-07-02 15:34:02</time>
      </trkpt>
      <trkpt lat="29.0842" lon="-13.472">
        <ele>89</ele>
        <time>2021-07-02 15:34:03</time>
      </trkpt>
      <trkpt lat="29.08424" lon="-13.47199">
        <ele>89</ele>
        <time>2021-07-02 15:34:04</time>
      </trkpt>
      <trkpt lat="29.08427" lon="-13.47197">
        <ele>89</ele>
        <time>2021-07-02 15:34:05</time>
      </trkpt>
      <trkpt lat="29.08431" lon="-13.47196">
        <ele>89</ele>
        <time>2021-07-02 15:34:06</time>
      </trkpt>
      <trkpt lat="29.08435" lon="-13.47194">
        <ele>88.6</ele>
        <time>2021-07-02 15:34:07</time>
      </trkpt>
      <trkpt lat="29.08439" lon="-13.47193">
        <ele>88.6</ele>
        <time>2021-07-02 15:34:08</time>
      </trkpt>
      <trkpt lat="29.08443" lon="-13.47193">
        <ele>88.6</ele>
        <time>2021-07-02 15:34:09</time>
      </trkpt>
      <trkpt lat="29.08447" lon="-13.47192">
        <ele>88.6</ele>
        <time>2021-07-02 15:34:10</time>
      </trkpt>
      <trkpt lat="29.0845" lon="-13.47191">
        <ele>88.6</ele>
        <time>2021-07-02 15:34:11</time>
      </trkpt>
      <trkpt lat="29.08454" lon="-13.4719">
        <ele>89</ele>
        <time>2021-07-02 15:34:12</time>
      </trkpt>
      <trkpt lat="29.08457" lon="-13.47188">
        <ele>89</ele>
        <time>2021-07-02 15:34:13</time>
      </trkpt>
      <trkpt lat="29.08461" lon="-13.47187">
        <ele>89.2</ele>
        <time>2021-07-02 15:34:14</time>
      </trkpt>
      <trkpt lat="29.08465" lon="-13.47186">
        <ele>89.2</ele>
        <time>2021-07-02 15:34:15</time>
      </trkpt>
      <trkpt lat="29.08468" lon="-13.47185">
        <ele>89.2</ele>
        <time>2021-07-02 15:34:16</time>
      </trkpt>
      <trkpt lat="29.08472" lon="-13.47184">
        <ele>89.4</ele>
        <time>2021-07-02 15:34:17</time>
      </trkpt>
      <trkpt lat="29.08475" lon="-13.47182">
        <ele>89.4</ele>
        <time>2021-07-02 15:34:18</time>
      </trkpt>
      <trkpt lat="29.08479" lon="-13.47181">
        <ele>89.4</ele>
        <time>2021-07-02 15:34:19</time>
      </trkpt>
      <trkpt lat="29.08482" lon="-13.4718">
        <ele>89.4</ele>
        <time>2021-07-02 15:34:20</time>
      </trkpt>
      <trkpt lat="29.08486" lon="-13.47179">
        <ele>89.4</ele>
        <time>2021-07-02 15:34:21</time>
      </trkpt>
      <trkpt lat="29.08489" lon="-13.47178">
        <ele>89.8</ele>
        <time>2021-07-02 15:34:22</time>
      </trkpt>
      <trkpt lat="29.08493" lon="-13.47177">
        <ele>89.8</ele>
        <time>2021-07-02 15:34:23</time>
      </trkpt>
      <trkpt lat="29.08498" lon="-13.47175">
        <ele>89.8</ele>
        <time>2021-07-02 15:34:24</time>
      </trkpt>
      <trkpt lat="29.08502" lon="-13.47174">
        <ele>89.6</ele>
        <time>2021-07-02 15:34:25</time>
      </trkpt>
      <trkpt lat="29.08508" lon="-13.47173">
        <ele>89.2</ele>
        <time>2021-07-02 15:34:26</time>
      </trkpt>
      <trkpt lat="29.08515" lon="-13.47171">
        <ele>88.8</ele>
        <time>2021-07-02 15:34:27</time>
      </trkpt>
      <trkpt lat="29.08521" lon="-13.47169">
        <ele>88</ele>
        <time>2021-07-02 15:34:28</time>
      </trkpt>
      <trkpt lat="29.08527" lon="-13.47167">
        <ele>87.4</ele>
        <time>2021-07-02 15:34:29</time>
      </trkpt>
      <trkpt lat="29.08534" lon="-13.47165">
        <ele>86.8</ele>
        <time>2021-07-02 15:34:30</time>
      </trkpt>
      <trkpt lat="29.0854" lon="-13.47164">
        <ele>86.2</ele>
        <time>2021-07-02 15:34:31</time>
      </trkpt>
      <trkpt lat="29.08546" lon="-13.47162">
        <ele>85.6</ele>
        <time>2021-07-02 15:34:32</time>
      </trkpt>
      <trkpt lat="29.08552" lon="-13.4716">
        <ele>85</ele>
        <time>2021-07-02 15:34:33</time>
      </trkpt>
      <trkpt lat="29.08557" lon="-13.47159">
        <ele>84.6</ele>
        <time>2021-07-02 15:34:34</time>
      </trkpt>
      <trkpt lat="29.08562" lon="-13.47157">
        <ele>84.2</ele>
        <time>2021-07-02 15:34:35</time>
      </trkpt>
      <trkpt lat="29.08568" lon="-13.47155">
        <ele>84</ele>
        <time>2021-07-02 15:34:36</time>
      </trkpt>
      <trkpt lat="29.08573" lon="-13.47154">
        <ele>83.6</ele>
        <time>2021-07-02 15:34:37</time>
      </trkpt>
      <trkpt lat="29.08578" lon="-13.47152">
        <ele>83.2</ele>
        <time>2021-07-02 15:34:38</time>
      </trkpt>
      <trkpt lat="29.08584" lon="-13.4715">
        <ele>83</ele>
        <time>2021-07-02 15:34:39</time>
      </trkpt>
      <trkpt lat="29.08589" lon="-13.47148">
        <ele>82.6</ele>
        <time>2021-07-02 15:34:40</time>
      </trkpt>
      <trkpt lat="29.08594" lon="-13.47147">
        <ele>82.2</ele>
        <time>2021-07-02 15:34:41</time>
      </trkpt>
      <trkpt lat="29.08598" lon="-13.47145">
        <ele>82</ele>
        <time>2021-07-02 15:34:42</time>
      </trkpt>
      <trkpt lat="29.08603" lon="-13.47144">
        <ele>81.8</ele>
        <time>2021-07-02 15:34:43</time>
      </trkpt>
      <trkpt lat="29.08608" lon="-13.47141">
        <ele>81.8</ele>
        <time>2021-07-02 15:34:44</time>
      </trkpt>
      <trkpt lat="29.08613" lon="-13.47138">
        <ele>81.4</ele>
        <time>2021-07-02 15:34:45</time>
      </trkpt>
      <trkpt lat="29.08618" lon="-13.47136">
        <ele>81.4</ele>
        <time>2021-07-02 15:34:46</time>
      </trkpt>
      <trkpt lat="29.08623" lon="-13.47134">
        <ele>81.2</ele>
        <time>2021-07-02 15:34:47</time>
      </trkpt>
      <trkpt lat="29.08628" lon="-13.47132">
        <ele>80.8</ele>
        <time>2021-07-02 15:34:48</time>
      </trkpt>
      <trkpt lat="29.08633" lon="-13.4713">
        <ele>80.8</ele>
        <time>2021-07-02 15:34:49</time>
      </trkpt>
      <trkpt lat="29.08638" lon="-13.47129">
        <ele>80.6</ele>
        <time>2021-07-02 15:34:50</time>
      </trkpt>
      <trkpt lat="29.08642" lon="-13.47127">
        <ele>80.6</ele>
        <time>2021-07-02 15:34:51</time>
      </trkpt>
      <trkpt lat="29.08645" lon="-13.47127">
        <ele>80.2</ele>
        <time>2021-07-02 15:34:52</time>
      </trkpt>
      <trkpt lat="29.08646" lon="-13.47126">
        <ele>80</ele>
        <time>2021-07-02 15:34:53</time>
      </trkpt>
      <trkpt lat="29.08646" lon="-13.47126">
        <ele>79.8</ele>
        <time>2021-07-02 15:34:54</time>
      </trkpt>
      <trkpt lat="29.08646" lon="-13.47126">
        <ele>79.4</ele>
        <time>2021-07-02 15:34:55</time>
      </trkpt>
      <trkpt lat="29.08648" lon="-13.47127">
        <ele>76.8</ele>
        <time>2021-07-02 15:34:56</time>
      </trkpt>
      <trkpt lat="29.0865" lon="-13.47127">
        <ele>76.8</ele>
        <time>2021-07-02 15:34:57</time>
      </trkpt>
      <trkpt lat="29.08652" lon="-13.47127">
        <ele>76.8</ele>
        <time>2021-07-02 15:34:58</time>
      </trkpt>
      <trkpt lat="29.08655" lon="-13.47126">
        <ele>76.8</ele>
        <time>2021-07-02 15:34:59</time>
      </trkpt>
      <trkpt lat="29.08659" lon="-13.47125">
        <ele>76.8</ele>
        <time>2021-07-02 15:35:00</time>
      </trkpt>
      <trkpt lat="29.08663" lon="-13.47124">
        <ele>76.8</ele>
        <time>2021-07-02 15:35:01</time>
      </trkpt>
      <trkpt lat="29.08667" lon="-13.47122">
        <ele>77</ele>
        <time>2021-07-02 15:35:02</time>
      </trkpt>
      <trkpt lat="29.08672" lon="-13.4712">
        <ele>77</ele>
        <time>2021-07-02 15:35:03</time>
      </trkpt>
      <trkpt lat="29.08677" lon="-13.47119">
        <ele>77</ele>
        <time>2021-07-02 15:35:04</time>
      </trkpt>
      <trkpt lat="29.08682" lon="-13.47117">
        <ele>77</ele>
        <time>2021-07-02 15:35:05</time>
      </trkpt>
      <trkpt lat="29.08686" lon="-13.47116">
        <ele>77</ele>
        <time>2021-07-02 15:35:06</time>
      </trkpt>
      <trkpt lat="29.0869" lon="-13.47115">
        <ele>77.4</ele>
        <time>2021-07-02 15:35:07</time>
      </trkpt>
      <trkpt lat="29.08693" lon="-13.47114">
        <ele>77.4</ele>
        <time>2021-07-02 15:35:08</time>
      </trkpt>
      <trkpt lat="29.08696" lon="-13.47113">
        <ele>78</ele>
        <time>2021-07-02 15:35:09</time>
      </trkpt>
      <trkpt lat="29.087" lon="-13.47112">
        <ele>78.2</ele>
        <time>2021-07-02 15:35:10</time>
      </trkpt>
      <trkpt lat="29.08703" lon="-13.47111">
        <ele>78.2</ele>
        <time>2021-07-02 15:35:11</time>
      </trkpt>
      <trkpt lat="29.08706" lon="-13.47109">
        <ele>78.2</ele>
        <time>2021-07-02 15:35:12</time>
      </trkpt>
      <trkpt lat="29.08708" lon="-13.47108">
        <ele>78.4</ele>
        <time>2021-07-02 15:35:13</time>
      </trkpt>
      <trkpt lat="29.08712" lon="-13.47106">
        <ele>78.4</ele>
        <time>2021-07-02 15:35:14</time>
      </trkpt>
      <trkpt lat="29.08715" lon="-13.47106">
        <ele>78.6</ele>
        <time>2021-07-02 15:35:15</time>
      </trkpt>
      <trkpt lat="29.08718" lon="-13.47104">
        <ele>78.6</ele>
        <time>2021-07-02 15:35:16</time>
      </trkpt>
      <trkpt lat="29.08722" lon="-13.47103">
        <ele>78.6</ele>
        <time>2021-07-02 15:35:17</time>
      </trkpt>
      <trkpt lat="29.08725" lon="-13.47102">
        <ele>78.6</ele>
        <time>2021-07-02 15:35:18</time>
      </trkpt>
      <trkpt lat="29.08729" lon="-13.47101">
        <ele>78.6</ele>
        <time>2021-07-02 15:35:19</time>
      </trkpt>
      <trkpt lat="29.08733" lon="-13.471">
        <ele>78.4</ele>
        <time>2021-07-02 15:35:20</time>
      </trkpt>
      <trkpt lat="29.08736" lon="-13.47099">
        <ele>78.4</ele>
        <time>2021-07-02 15:35:21</time>
      </trkpt>
      <trkpt lat="29.0874" lon="-13.47097">
        <ele>78.4</ele>
        <time>2021-07-02 15:35:22</time>
      </trkpt>
      <trkpt lat="29.08743" lon="-13.47096">
        <ele>78.4</ele>
        <time>2021-07-02 15:35:23</time>
      </trkpt>
      <trkpt lat="29.08747" lon="-13.47095">
        <ele>78.4</ele>
        <time>2021-07-02 15:35:24</time>
      </trkpt>
      <trkpt lat="29.08749" lon="-13.47094">
        <ele>78.8</ele>
        <time>2021-07-02 15:35:25</time>
      </trkpt>
      <trkpt lat="29.08752" lon="-13.47094">
        <ele>78.8</ele>
        <time>2021-07-02 15:35:26</time>
      </trkpt>
      <trkpt lat="29.08756" lon="-13.47093">
        <ele>79</ele>
        <time>2021-07-02 15:35:27</time>
      </trkpt>
      <trkpt lat="29.08759" lon="-13.47092">
        <ele>79</ele>
        <time>2021-07-02 15:35:28</time>
      </trkpt>
      <trkpt lat="29.08763" lon="-13.47091">
        <ele>79.2</ele>
        <time>2021-07-02 15:35:29</time>
      </trkpt>
      <trkpt lat="29.08766" lon="-13.4709">
        <ele>79.2</ele>
        <time>2021-07-02 15:35:30</time>
      </trkpt>
      <trkpt lat="29.0877" lon="-13.47089">
        <ele>79.2</ele>
        <time>2021-07-02 15:35:31</time>
      </trkpt>
      <trkpt lat="29.08774" lon="-13.47088">
        <ele>79.2</ele>
        <time>2021-07-02 15:35:32</time>
      </trkpt>
      <trkpt lat="29.08778" lon="-13.47087">
        <ele>79.2</ele>
        <time>2021-07-02 15:35:33</time>
      </trkpt>
      <trkpt lat="29.08782" lon="-13.47087">
        <ele>79.2</ele>
        <time>2021-07-02 15:35:34</time>
      </trkpt>
      <trkpt lat="29.08786" lon="-13.47087">
        <ele>79.2</ele>
        <time>2021-07-02 15:35:35</time>
      </trkpt>
      <trkpt lat="29.0879" lon="-13.47088">
        <ele>79.2</ele>
        <time>2021-07-02 15:35:36</time>
      </trkpt>
      <trkpt lat="29.08794" lon="-13.47088">
        <ele>79.2</ele>
        <time>2021-07-02 15:35:37</time>
      </trkpt>
      <trkpt lat="29.08799" lon="-13.47088">
        <ele>79.2</ele>
        <time>2021-07-02 15:35:38</time>
      </trkpt>
      <trkpt lat="29.08803" lon="-13.47089">
        <ele>79.2</ele>
        <time>2021-07-02 15:35:39</time>
      </trkpt>
      <trkpt lat="29.08808" lon="-13.47088">
        <ele>79.2</ele>
        <time>2021-07-02 15:35:40</time>
      </trkpt>
      <trkpt lat="29.08813" lon="-13.47088">
        <ele>79.2</ele>
        <time>2021-07-02 15:35:41</time>
      </trkpt>
      <trkpt lat="29.08817" lon="-13.47088">
        <ele>79.2</ele>
        <time>2021-07-02 15:35:42</time>
      </trkpt>
      <trkpt lat="29.08822" lon="-13.47088">
        <ele>79.2</ele>
        <time>2021-07-02 15:35:43</time>
      </trkpt>
      <trkpt lat="29.08826" lon="-13.47088">
        <ele>79.2</ele>
        <time>2021-07-02 15:35:44</time>
      </trkpt>
      <trkpt lat="29.08831" lon="-13.47088">
        <ele>79.2</ele>
        <time>2021-07-02 15:35:45</time>
      </trkpt>
      <trkpt lat="29.08836" lon="-13.47087">
        <ele>79.2</ele>
        <time>2021-07-02 15:35:46</time>
      </trkpt>
      <trkpt lat="29.0884" lon="-13.47087">
        <ele>79.2</ele>
        <time>2021-07-02 15:35:47</time>
      </trkpt>
      <trkpt lat="29.08845" lon="-13.47087">
        <ele>79</ele>
        <time>2021-07-02 15:35:48</time>
      </trkpt>
      <trkpt lat="29.0885" lon="-13.47087">
        <ele>79</ele>
        <time>2021-07-02 15:35:49</time>
      </trkpt>
      <trkpt lat="29.08854" lon="-13.47085">
        <ele>79</ele>
        <time>2021-07-02 15:35:50</time>
      </trkpt>
      <trkpt lat="29.08859" lon="-13.47083">
        <ele>78.6</ele>
        <time>2021-07-02 15:35:51</time>
      </trkpt>
      <trkpt lat="29.08864" lon="-13.47081">
        <ele>78.6</ele>
        <time>2021-07-02 15:35:52</time>
      </trkpt>
      <trkpt lat="29.08869" lon="-13.4708">
        <ele>78.2</ele>
        <time>2021-07-02 15:35:53</time>
      </trkpt>
      <trkpt lat="29.08874" lon="-13.47079">
        <ele>78</ele>
        <time>2021-07-02 15:36:06</time>
      </trkpt>
      <trkpt lat="29.08879" lon="-13.47077">
        <ele>78</ele>
        <time>2021-07-02 15:36:07</time>
      </trkpt>
      <trkpt lat="29.08884" lon="-13.47076">
        <ele>77.8</ele>
        <time>2021-07-02 15:36:08</time>
      </trkpt>
      <trkpt lat="29.0889" lon="-13.47075">
        <ele>77.8</ele>
        <time>2021-07-02 15:36:09</time>
      </trkpt>
      <trkpt lat="29.08895" lon="-13.47073">
        <ele>77.4</ele>
        <time>2021-07-02 15:36:10</time>
      </trkpt>
      <trkpt lat="29.089" lon="-13.47071">
        <ele>77.4</ele>
        <time>2021-07-02 15:36:11</time>
      </trkpt>
      <trkpt lat="29.08906" lon="-13.47069">
        <ele>77.2</ele>
        <time>2021-07-02 15:36:12</time>
      </trkpt>
      <trkpt lat="29.08911" lon="-13.47067">
        <ele>77.2</ele>
        <time>2021-07-02 15:36:13</time>
      </trkpt>
      <trkpt lat="29.08916" lon="-13.47067">
        <ele>77</ele>
        <time>2021-07-02 15:36:14</time>
      </trkpt>
      <trkpt lat="29.08921" lon="-13.47064">
        <ele>77</ele>
        <time>2021-07-02 15:36:15</time>
      </trkpt>
      <trkpt lat="29.08927" lon="-13.47063">
        <ele>76.6</ele>
        <time>2021-07-02 15:36:16</time>
      </trkpt>
      <trkpt lat="29.08932" lon="-13.47061">
        <ele>76.6</ele>
        <time>2021-07-02 15:36:17</time>
      </trkpt>
      <trkpt lat="29.08937" lon="-13.4706">
        <ele>76.4</ele>
        <time>2021-07-02 15:36:18</time>
      </trkpt>
      <trkpt lat="29.08943" lon="-13.47058">
        <ele>76.4</ele>
        <time>2021-07-02 15:36:19</time>
      </trkpt>
      <trkpt lat="29.08948" lon="-13.47057">
        <ele>76.2</ele>
        <time>2021-07-02 15:36:20</time>
      </trkpt>
      <trkpt lat="29.08954" lon="-13.47055">
        <ele>76.2</ele>
        <time>2021-07-02 15:36:21</time>
      </trkpt>
      <trkpt lat="29.08959" lon="-13.47053">
        <ele>76</ele>
        <time>2021-07-02 15:36:22</time>
      </trkpt>
      <trkpt lat="29.08964" lon="-13.47051">
        <ele>76</ele>
        <time>2021-07-02 15:36:23</time>
      </trkpt>
      <trkpt lat="29.08969" lon="-13.4705">
        <ele>75.6</ele>
        <time>2021-07-02 15:36:24</time>
      </trkpt>
      <trkpt lat="29.08975" lon="-13.47047">
        <ele>75.4</ele>
        <time>2021-07-02 15:36:25</time>
      </trkpt>
      <trkpt lat="29.0898" lon="-13.47045">
        <ele>75.4</ele>
        <time>2021-07-02 15:36:26</time>
      </trkpt>
      <trkpt lat="29.08986" lon="-13.47044">
        <ele>75</ele>
        <time>2021-07-02 15:36:27</time>
      </trkpt>
      <trkpt lat="29.08991" lon="-13.47042">
        <ele>75</ele>
        <time>2021-07-02 15:36:28</time>
      </trkpt>
      <trkpt lat="29.08996" lon="-13.4704">
        <ele>74.8</ele>
        <time>2021-07-02 15:36:29</time>
      </trkpt>
      <trkpt lat="29.09001" lon="-13.47038">
        <ele>74.8</ele>
        <time>2021-07-02 15:36:30</time>
      </trkpt>
      <trkpt lat="29.09006" lon="-13.47036">
        <ele>74.6</ele>
        <time>2021-07-02 15:36:31</time>
      </trkpt>
      <trkpt lat="29.09011" lon="-13.47033">
        <ele>74.6</ele>
        <time>2021-07-02 15:36:32</time>
      </trkpt>
      <trkpt lat="29.09016" lon="-13.47031">
        <ele>74.4</ele>
        <time>2021-07-02 15:36:33</time>
      </trkpt>
      <trkpt lat="29.09021" lon="-13.4703">
        <ele>74.4</ele>
        <time>2021-07-02 15:36:34</time>
      </trkpt>
      <trkpt lat="29.09026" lon="-13.47028">
        <ele>74</ele>
        <time>2021-07-02 15:36:35</time>
      </trkpt>
      <trkpt lat="29.0903" lon="-13.47026">
        <ele>74</ele>
        <time>2021-07-02 15:36:36</time>
      </trkpt>
      <trkpt lat="29.09035" lon="-13.47024">
        <ele>74</ele>
        <time>2021-07-02 15:36:37</time>
      </trkpt>
      <trkpt lat="29.09039" lon="-13.47022">
        <ele>73.6</ele>
        <time>2021-07-02 15:36:38</time>
      </trkpt>
      <trkpt lat="29.09043" lon="-13.4702">
        <ele>73.6</ele>
        <time>2021-07-02 15:36:39</time>
      </trkpt>
      <trkpt lat="29.09047" lon="-13.47019">
        <ele>73.6</ele>
        <time>2021-07-02 15:36:40</time>
      </trkpt>
      <trkpt lat="29.09051" lon="-13.47017">
        <ele>73.6</ele>
        <time>2021-07-02 15:36:41</time>
      </trkpt>
      <trkpt lat="29.09056" lon="-13.47015">
        <ele>73.6</ele>
        <time>2021-07-02 15:36:42</time>
      </trkpt>
      <trkpt lat="29.0906" lon="-13.47013">
        <ele>73.6</ele>
        <time>2021-07-02 15:36:43</time>
      </trkpt>
      <trkpt lat="29.09065" lon="-13.47012">
        <ele>73.4</ele>
        <time>2021-07-02 15:36:44</time>
      </trkpt>
      <trkpt lat="29.0907" lon="-13.4701">
        <ele>73.4</ele>
        <time>2021-07-02 15:36:45</time>
      </trkpt>
      <trkpt lat="29.09075" lon="-13.47008">
        <ele>73.2</ele>
        <time>2021-07-02 15:36:46</time>
      </trkpt>
      <trkpt lat="29.0908" lon="-13.47007">
        <ele>73.2</ele>
        <time>2021-07-02 15:36:47</time>
      </trkpt>
      <trkpt lat="29.09085" lon="-13.47006">
        <ele>73.2</ele>
        <time>2021-07-02 15:36:48</time>
      </trkpt>
      <trkpt lat="29.09091" lon="-13.47006">
        <ele>72.8</ele>
        <time>2021-07-02 15:36:49</time>
      </trkpt>
      <trkpt lat="29.09096" lon="-13.47008">
        <ele>72.8</ele>
        <time>2021-07-02 15:36:50</time>
      </trkpt>
      <trkpt lat="29.091" lon="-13.47011">
        <ele>72.6</ele>
        <time>2021-07-02 15:36:51</time>
      </trkpt>
      <trkpt lat="29.09104" lon="-13.47014">
        <ele>72.6</ele>
        <time>2021-07-02 15:36:52</time>
      </trkpt>
      <trkpt lat="29.09109" lon="-13.47016">
        <ele>72.2</ele>
        <time>2021-07-02 15:36:53</time>
      </trkpt>
      <trkpt lat="29.09114" lon="-13.47016">
        <ele>72.2</ele>
        <time>2021-07-02 15:36:54</time>
      </trkpt>
      <trkpt lat="29.0912" lon="-13.47015">
        <ele>72</ele>
        <time>2021-07-02 15:36:55</time>
      </trkpt>
      <trkpt lat="29.09125" lon="-13.47014">
        <ele>72</ele>
        <time>2021-07-02 15:36:56</time>
      </trkpt>
      <trkpt lat="29.0913" lon="-13.47012">
        <ele>71.6</ele>
        <time>2021-07-02 15:36:57</time>
      </trkpt>
      <trkpt lat="29.09135" lon="-13.47011">
        <ele>71.6</ele>
        <time>2021-07-02 15:36:58</time>
      </trkpt>
      <trkpt lat="29.09139" lon="-13.47009">
        <ele>71.4</ele>
        <time>2021-07-02 15:36:59</time>
      </trkpt>
      <trkpt lat="29.09143" lon="-13.47007">
        <ele>71.4</ele>
        <time>2021-07-02 15:37:00</time>
      </trkpt>
      <trkpt lat="29.09147" lon="-13.47005">
        <ele>71.2</ele>
        <time>2021-07-02 15:37:01</time>
      </trkpt>
      <trkpt lat="29.09151" lon="-13.47004">
        <ele>71.2</ele>
        <time>2021-07-02 15:37:02</time>
      </trkpt>
      <trkpt lat="29.09156" lon="-13.47003">
        <ele>70.8</ele>
        <time>2021-07-02 15:37:03</time>
      </trkpt>
      <trkpt lat="29.09159" lon="-13.47003">
        <ele>70.8</ele>
        <time>2021-07-02 15:37:04</time>
      </trkpt>
      <trkpt lat="29.09163" lon="-13.47005">
        <ele>70.8</ele>
        <time>2021-07-02 15:37:05</time>
      </trkpt>
      <trkpt lat="29.09166" lon="-13.47006">
        <ele>70.6</ele>
        <time>2021-07-02 15:37:06</time>
      </trkpt>
      <trkpt lat="29.0917" lon="-13.47009">
        <ele>70.2</ele>
        <time>2021-07-02 15:37:07</time>
      </trkpt>
      <trkpt lat="29.09173" lon="-13.47011">
        <ele>70</ele>
        <time>2021-07-02 15:37:08</time>
      </trkpt>
      <trkpt lat="29.09176" lon="-13.47014">
        <ele>69.8</ele>
        <time>2021-07-02 15:37:09</time>
      </trkpt>
      <trkpt lat="29.09179" lon="-13.47017">
        <ele>69.6</ele>
        <time>2021-07-02 15:37:10</time>
      </trkpt>
      <trkpt lat="29.09181" lon="-13.4702">
        <ele>69.4</ele>
        <time>2021-07-02 15:37:11</time>
      </trkpt>
      <trkpt lat="29.09184" lon="-13.47023">
        <ele>69.4</ele>
        <time>2021-07-02 15:37:12</time>
      </trkpt>
      <trkpt lat="29.09186" lon="-13.47027">
        <ele>69.2</ele>
        <time>2021-07-02 15:37:13</time>
      </trkpt>
      <trkpt lat="29.09188" lon="-13.4703">
        <ele>68.8</ele>
        <time>2021-07-02 15:37:14</time>
      </trkpt>
      <trkpt lat="29.0919" lon="-13.47033">
        <ele>68.8</ele>
        <time>2021-07-02 15:37:15</time>
      </trkpt>
      <trkpt lat="29.09193" lon="-13.47037">
        <ele>68.6</ele>
        <time>2021-07-02 15:37:16</time>
      </trkpt>
      <trkpt lat="29.09195" lon="-13.47039">
        <ele>68.6</ele>
        <time>2021-07-02 15:37:17</time>
      </trkpt>
      <trkpt lat="29.09198" lon="-13.47042">
        <ele>68.4</ele>
        <time>2021-07-02 15:37:18</time>
      </trkpt>
      <trkpt lat="29.09201" lon="-13.47045">
        <ele>68.4</ele>
        <time>2021-07-02 15:37:19</time>
      </trkpt>
      <trkpt lat="29.09204" lon="-13.47049">
        <ele>68</ele>
        <time>2021-07-02 15:37:20</time>
      </trkpt>
      <trkpt lat="29.09207" lon="-13.47052">
        <ele>67.8</ele>
        <time>2021-07-02 15:37:21</time>
      </trkpt>
      <trkpt lat="29.09209" lon="-13.47056">
        <ele>67.6</ele>
        <time>2021-07-02 15:37:22</time>
      </trkpt>
      <trkpt lat="29.0921" lon="-13.47061">
        <ele>67.4</ele>
        <time>2021-07-02 15:37:23</time>
      </trkpt>
      <trkpt lat="29.09212" lon="-13.47064">
        <ele>67</ele>
        <time>2021-07-02 15:37:24</time>
      </trkpt>
      <trkpt lat="29.09214" lon="-13.47067">
        <ele>66.8</ele>
        <time>2021-07-02 15:37:25</time>
      </trkpt>
      <trkpt lat="29.09216" lon="-13.4707">
        <ele>66.6</ele>
        <time>2021-07-02 15:37:26</time>
      </trkpt>
      <trkpt lat="29.09217" lon="-13.47072">
        <ele>66.2</ele>
        <time>2021-07-02 15:37:27</time>
      </trkpt>
      <trkpt lat="29.09218" lon="-13.47075">
        <ele>66</ele>
        <time>2021-07-02 15:37:28</time>
      </trkpt>
      <trkpt lat="29.09219" lon="-13.47079">
        <ele>65.8</ele>
        <time>2021-07-02 15:37:29</time>
      </trkpt>
      <trkpt lat="29.0922" lon="-13.47082">
        <ele>65.8</ele>
        <time>2021-07-02 15:37:30</time>
      </trkpt>
      <trkpt lat="29.09221" lon="-13.47086">
        <ele>65.6</ele>
        <time>2021-07-02 15:37:31</time>
      </trkpt>
      <trkpt lat="29.09223" lon="-13.47089">
        <ele>65.6</ele>
        <time>2021-07-02 15:37:32</time>
      </trkpt>
      <trkpt lat="29.09225" lon="-13.47092">
        <ele>65.2</ele>
        <time>2021-07-02 15:37:33</time>
      </trkpt>
      <trkpt lat="29.09228" lon="-13.47095">
        <ele>65</ele>
        <time>2021-07-02 15:37:34</time>
      </trkpt>
      <trkpt lat="29.09231" lon="-13.47096">
        <ele>65</ele>
        <time>2021-07-02 15:37:35</time>
      </trkpt>
      <trkpt lat="29.09234" lon="-13.47096">
        <ele>64.6</ele>
        <time>2021-07-02 15:37:36</time>
      </trkpt>
      <trkpt lat="29.09235" lon="-13.47095">
        <ele>64.6</ele>
        <time>2021-07-02 15:37:37</time>
      </trkpt>
      <trkpt lat="29.09236" lon="-13.47094">
        <ele>64.4</ele>
        <time>2021-07-02 15:37:38</time>
      </trkpt>
      <trkpt lat="29.09236" lon="-13.47093">
        <ele>64.4</ele>
        <time>2021-07-02 15:37:39</time>
      </trkpt>
      <trkpt lat="29.09236" lon="-13.47092">
        <ele>64.2</ele>
        <time>2021-07-02 15:37:40</time>
      </trkpt>
      <trkpt lat="29.09237" lon="-13.47092">
        <ele>65.2</ele>
        <time>2021-07-02 15:37:41</time>
      </trkpt>
      <trkpt lat="29.09239" lon="-13.47092">
        <ele>65.2</ele>
        <time>2021-07-02 15:37:42</time>
      </trkpt>
      <trkpt lat="29.09242" lon="-13.47091">
        <ele>65.2</ele>
        <time>2021-07-02 15:37:43</time>
      </trkpt>
      <trkpt lat="29.09244" lon="-13.47091">
        <ele>65.2</ele>
        <time>2021-07-02 15:37:44</time>
      </trkpt>
      <trkpt lat="29.09248" lon="-13.47091">
        <ele>65.2</ele>
        <time>2021-07-02 15:37:45</time>
      </trkpt>
      <trkpt lat="29.09251" lon="-13.4709">
        <ele>64.8</ele>
        <time>2021-07-02 15:37:46</time>
      </trkpt>
      <trkpt lat="29.09255" lon="-13.47089">
        <ele>64.8</ele>
        <time>2021-07-02 15:37:47</time>
      </trkpt>
      <trkpt lat="29.09259" lon="-13.47088">
        <ele>64.8</ele>
        <time>2021-07-02 15:37:48</time>
      </trkpt>
      <trkpt lat="29.09264" lon="-13.47086">
        <ele>64.6</ele>
        <time>2021-07-02 15:37:49</time>
      </trkpt>
      <trkpt lat="29.09269" lon="-13.47085">
        <ele>64.6</ele>
        <time>2021-07-02 15:37:50</time>
      </trkpt>
      <trkpt lat="29.09274" lon="-13.47083">
        <ele>64.2</ele>
        <time>2021-07-02 15:37:51</time>
      </trkpt>
      <trkpt lat="29.0928" lon="-13.47082">
        <ele>64.2</ele>
        <time>2021-07-02 15:37:52</time>
      </trkpt>
      <trkpt lat="29.09285" lon="-13.47081">
        <ele>64</ele>
        <time>2021-07-02 15:37:53</time>
      </trkpt>
      <trkpt lat="29.09291" lon="-13.4708">
        <ele>64</ele>
        <time>2021-07-02 15:37:54</time>
      </trkpt>
      <trkpt lat="29.09297" lon="-13.47079">
        <ele>63.8</ele>
        <time>2021-07-02 15:37:55</time>
      </trkpt>
      <trkpt lat="29.09303" lon="-13.47078">
        <ele>63.6</ele>
        <time>2021-07-02 15:37:56</time>
      </trkpt>
      <trkpt lat="29.09309" lon="-13.47076">
        <ele>63.6</ele>
        <time>2021-07-02 15:37:57</time>
      </trkpt>
      <trkpt lat="29.09316" lon="-13.47075">
        <ele>63.2</ele>
        <time>2021-07-02 15:37:58</time>
      </trkpt>
      <trkpt lat="29.09322" lon="-13.47073">
        <ele>63</ele>
        <time>2021-07-02 15:37:59</time>
      </trkpt>
      <trkpt lat="29.09328" lon="-13.47072">
        <ele>63</ele>
        <time>2021-07-02 15:38:00</time>
      </trkpt>
      <trkpt lat="29.09334" lon="-13.4707">
        <ele>62.6</ele>
        <time>2021-07-02 15:38:01</time>
      </trkpt>
      <trkpt lat="29.0934" lon="-13.47069">
        <ele>62.4</ele>
        <time>2021-07-02 15:38:02</time>
      </trkpt>
      <trkpt lat="29.09346" lon="-13.47067">
        <ele>62</ele>
        <time>2021-07-02 15:38:03</time>
      </trkpt>
      <trkpt lat="29.09352" lon="-13.47065">
        <ele>61.8</ele>
        <time>2021-07-02 15:38:04</time>
      </trkpt>
      <trkpt lat="29.09358" lon="-13.47063">
        <ele>61.4</ele>
        <time>2021-07-02 15:38:05</time>
      </trkpt>
      <trkpt lat="29.09364" lon="-13.47062">
        <ele>61</ele>
        <time>2021-07-02 15:38:06</time>
      </trkpt>
      <trkpt lat="29.09371" lon="-13.47061">
        <ele>60.8</ele>
        <time>2021-07-02 15:38:07</time>
      </trkpt>
      <trkpt lat="29.09377" lon="-13.47059">
        <ele>60.4</ele>
        <time>2021-07-02 15:38:08</time>
      </trkpt>
      <trkpt lat="29.09384" lon="-13.47058">
        <ele>60.4</ele>
        <time>2021-07-02 15:38:09</time>
      </trkpt>
      <trkpt lat="29.0939" lon="-13.47056">
        <ele>60.2</ele>
        <time>2021-07-02 15:38:10</time>
      </trkpt>
      <trkpt lat="29.09397" lon="-13.47056">
        <ele>60.2</ele>
        <time>2021-07-02 15:38:11</time>
      </trkpt>
      <trkpt lat="29.09404" lon="-13.47054">
        <ele>59.8</ele>
        <time>2021-07-02 15:38:12</time>
      </trkpt>
      <trkpt lat="29.0941" lon="-13.47052">
        <ele>59.8</ele>
        <time>2021-07-02 15:38:13</time>
      </trkpt>
      <trkpt lat="29.09417" lon="-13.47051">
        <ele>59.4</ele>
        <time>2021-07-02 15:38:14</time>
      </trkpt>
      <trkpt lat="29.09423" lon="-13.4705">
        <ele>63</ele>
        <time>2021-07-02 15:38:15</time>
      </trkpt>
      <trkpt lat="29.0943" lon="-13.47047">
        <ele>62.4</ele>
        <time>2021-07-02 15:38:16</time>
      </trkpt>
      <trkpt lat="29.09437" lon="-13.47046">
        <ele>61.6</ele>
        <time>2021-07-02 15:38:17</time>
      </trkpt>
      <trkpt lat="29.09443" lon="-13.47044">
        <ele>62.8</ele>
        <time>2021-07-02 15:38:18</time>
      </trkpt>
      <trkpt lat="29.09449" lon="-13.47044">
        <ele>62.4</ele>
        <time>2021-07-02 15:38:19</time>
      </trkpt>
      <trkpt lat="29.09455" lon="-13.47041">
        <ele>61.4</ele>
        <time>2021-07-02 15:38:20</time>
      </trkpt>
      <trkpt lat="29.09461" lon="-13.4704">
        <ele>60.4</ele>
        <time>2021-07-02 15:38:21</time>
      </trkpt>
      <trkpt lat="29.09468" lon="-13.47038">
        <ele>60</ele>
        <time>2021-07-02 15:38:22</time>
      </trkpt>
      <trkpt lat="29.09475" lon="-13.47036">
        <ele>59.2</ele>
        <time>2021-07-02 15:38:23</time>
      </trkpt>
      <trkpt lat="29.09482" lon="-13.47034">
        <ele>58.6</ele>
        <time>2021-07-02 15:38:24</time>
      </trkpt>
      <trkpt lat="29.09489" lon="-13.47032">
        <ele>57.8</ele>
        <time>2021-07-02 15:38:25</time>
      </trkpt>
      <trkpt lat="29.09495" lon="-13.47029">
        <ele>57.4</ele>
        <time>2021-07-02 15:38:26</time>
      </trkpt>
      <trkpt lat="29.09502" lon="-13.47028">
        <ele>57</ele>
        <time>2021-07-02 15:38:27</time>
      </trkpt>
      <trkpt lat="29.09509" lon="-13.47026">
        <ele>56.6</ele>
        <time>2021-07-02 15:38:28</time>
      </trkpt>
      <trkpt lat="29.09516" lon="-13.47024">
        <ele>56.2</ele>
        <time>2021-07-02 15:38:29</time>
      </trkpt>
      <trkpt lat="29.09523" lon="-13.47022">
        <ele>55.8</ele>
        <time>2021-07-02 15:38:30</time>
      </trkpt>
      <trkpt lat="29.0953" lon="-13.4702">
        <ele>55.6</ele>
        <time>2021-07-02 15:38:31</time>
      </trkpt>
      <trkpt lat="29.09537" lon="-13.47017">
        <ele>55.2</ele>
        <time>2021-07-02 15:38:32</time>
      </trkpt>
      <trkpt lat="29.09544" lon="-13.47016">
        <ele>55.2</ele>
        <time>2021-07-02 15:38:33</time>
      </trkpt>
      <trkpt lat="29.09552" lon="-13.47013">
        <ele>54.8</ele>
        <time>2021-07-02 15:38:34</time>
      </trkpt>
      <trkpt lat="29.09559" lon="-13.47011">
        <ele>54.6</ele>
        <time>2021-07-02 15:38:35</time>
      </trkpt>
      <trkpt lat="29.09567" lon="-13.47009">
        <ele>54.2</ele>
        <time>2021-07-02 15:38:36</time>
      </trkpt>
      <trkpt lat="29.09574" lon="-13.47007">
        <ele>53.8</ele>
        <time>2021-07-02 15:38:37</time>
      </trkpt>
      <trkpt lat="29.09581" lon="-13.47005">
        <ele>53.6</ele>
        <time>2021-07-02 15:38:38</time>
      </trkpt>
      <trkpt lat="29.09589" lon="-13.47003">
        <ele>53</ele>
        <time>2021-07-02 15:39:14</time>
      </trkpt>
      <trkpt lat="29.09596" lon="-13.47001">
        <ele>53</ele>
        <time>2021-07-02 15:39:15</time>
      </trkpt>
      <trkpt lat="29.09604" lon="-13.46999">
        <ele>52.6</ele>
        <time>2021-07-02 15:39:16</time>
      </trkpt>
      <trkpt lat="29.09611" lon="-13.46997">
        <ele>52.4</ele>
        <time>2021-07-02 15:39:17</time>
      </trkpt>
      <trkpt lat="29.09619" lon="-13.46995">
        <ele>52.4</ele>
        <time>2021-07-02 15:39:18</time>
      </trkpt>
      <trkpt lat="29.09626" lon="-13.46993">
        <ele>51.8</ele>
        <time>2021-07-02 15:39:19</time>
      </trkpt>
      <trkpt lat="29.09634" lon="-13.46992">
        <ele>51.6</ele>
        <time>2021-07-02 15:39:20</time>
      </trkpt>
      <trkpt lat="29.09641" lon="-13.4699">
        <ele>51.6</ele>
        <time>2021-07-02 15:39:21</time>
      </trkpt>
      <trkpt lat="29.09648" lon="-13.46988">
        <ele>51</ele>
        <time>2021-07-02 15:39:22</time>
      </trkpt>
      <trkpt lat="29.09656" lon="-13.46986">
        <ele>50.8</ele>
        <time>2021-07-02 15:39:23</time>
      </trkpt>
      <trkpt lat="29.09663" lon="-13.46984">
        <ele>50.2</ele>
        <time>2021-07-02 15:39:24</time>
      </trkpt>
      <trkpt lat="29.09671" lon="-13.46982">
        <ele>50</ele>
        <time>2021-07-02 15:39:25</time>
      </trkpt>
      <trkpt lat="29.09678" lon="-13.46981">
        <ele>49.6</ele>
        <time>2021-07-02 15:39:26</time>
      </trkpt>
      <trkpt lat="29.09685" lon="-13.46979">
        <ele>49.4</ele>
        <time>2021-07-02 15:39:27</time>
      </trkpt>
      <trkpt lat="29.09692" lon="-13.46978">
        <ele>49</ele>
        <time>2021-07-02 15:39:28</time>
      </trkpt>
      <trkpt lat="29.09699" lon="-13.46976">
        <ele>49</ele>
        <time>2021-07-02 15:39:29</time>
      </trkpt>
      <trkpt lat="29.09706" lon="-13.46975">
        <ele>49</ele>
        <time>2021-07-02 15:39:30</time>
      </trkpt>
      <trkpt lat="29.09713" lon="-13.46975">
        <ele>49</ele>
        <time>2021-07-02 15:39:31</time>
      </trkpt>
      <trkpt lat="29.0972" lon="-13.46974">
        <ele>48.8</ele>
        <time>2021-07-02 15:39:32</time>
      </trkpt>
      <trkpt lat="29.09726" lon="-13.46973">
        <ele>48.8</ele>
        <time>2021-07-02 15:39:33</time>
      </trkpt>
      <trkpt lat="29.09732" lon="-13.46972">
        <ele>48.4</ele>
        <time>2021-07-02 15:39:34</time>
      </trkpt>
      <trkpt lat="29.09739" lon="-13.46971">
        <ele>48</ele>
        <time>2021-07-02 15:39:35</time>
      </trkpt>
      <trkpt lat="29.09745" lon="-13.4697">
        <ele>47.8</ele>
        <time>2021-07-02 15:39:36</time>
      </trkpt>
      <trkpt lat="29.09752" lon="-13.4697">
        <ele>47.6</ele>
        <time>2021-07-02 15:39:37</time>
      </trkpt>
      <trkpt lat="29.09758" lon="-13.4697">
        <ele>47.4</ele>
        <time>2021-07-02 15:39:38</time>
      </trkpt>
      <trkpt lat="29.09764" lon="-13.4697">
        <ele>46.8</ele>
        <time>2021-07-02 15:39:39</time>
      </trkpt>
      <trkpt lat="29.09771" lon="-13.4697">
        <ele>46.4</ele>
        <time>2021-07-02 15:39:40</time>
      </trkpt>
      <trkpt lat="29.09778" lon="-13.4697">
        <ele>46.2</ele>
        <time>2021-07-02 15:39:41</time>
      </trkpt>
      <trkpt lat="29.09784" lon="-13.46969">
        <ele>46.2</ele>
        <time>2021-07-02 15:39:42</time>
      </trkpt>
      <trkpt lat="29.0979" lon="-13.46969">
        <ele>45.8</ele>
        <time>2021-07-02 15:39:43</time>
      </trkpt>
      <trkpt lat="29.09797" lon="-13.46969">
        <ele>45.6</ele>
        <time>2021-07-02 15:39:44</time>
      </trkpt>
      <trkpt lat="29.09803" lon="-13.46969">
        <ele>45.2</ele>
        <time>2021-07-02 15:39:45</time>
      </trkpt>
      <trkpt lat="29.09809" lon="-13.46969">
        <ele>45.2</ele>
        <time>2021-07-02 15:39:46</time>
      </trkpt>
      <trkpt lat="29.09815" lon="-13.46969">
        <ele>45</ele>
        <time>2021-07-02 15:39:47</time>
      </trkpt>
      <trkpt lat="29.09821" lon="-13.46969">
        <ele>44.8</ele>
        <time>2021-07-02 15:39:48</time>
      </trkpt>
      <trkpt lat="29.09827" lon="-13.46969">
        <ele>44.4</ele>
        <time>2021-07-02 15:39:49</time>
      </trkpt>
      <trkpt lat="29.09833" lon="-13.46969">
        <ele>44.4</ele>
        <time>2021-07-02 15:39:50</time>
      </trkpt>
      <trkpt lat="29.09839" lon="-13.46969">
        <ele>44.6</ele>
        <time>2021-07-02 15:39:51</time>
      </trkpt>
      <trkpt lat="29.09844" lon="-13.46969">
        <ele>44.6</ele>
        <time>2021-07-02 15:39:52</time>
      </trkpt>
      <trkpt lat="29.09849" lon="-13.46969">
        <ele>44.6</ele>
        <time>2021-07-02 15:39:53</time>
      </trkpt>
      <trkpt lat="29.09855" lon="-13.46969">
        <ele>44.4</ele>
        <time>2021-07-02 15:39:54</time>
      </trkpt>
      <trkpt lat="29.0986" lon="-13.4697">
        <ele>44.2</ele>
        <time>2021-07-02 15:39:55</time>
      </trkpt>
      <trkpt lat="29.09866" lon="-13.4697">
        <ele>44.2</ele>
        <time>2021-07-02 15:39:56</time>
      </trkpt>
      <trkpt lat="29.09871" lon="-13.46969">
        <ele>44.2</ele>
        <time>2021-07-02 15:39:57</time>
      </trkpt>
      <trkpt lat="29.09877" lon="-13.46969">
        <ele>43.8</ele>
        <time>2021-07-02 15:39:58</time>
      </trkpt>
      <trkpt lat="29.09882" lon="-13.46968">
        <ele>44.4</ele>
        <time>2021-07-02 15:39:59</time>
      </trkpt>
      <trkpt lat="29.09887" lon="-13.46968">
        <ele>44.4</ele>
        <time>2021-07-02 15:40:00</time>
      </trkpt>
      <trkpt lat="29.09892" lon="-13.46969">
        <ele>44.4</ele>
        <time>2021-07-02 15:40:01</time>
      </trkpt>
      <trkpt lat="29.09897" lon="-13.46969">
        <ele>44.4</ele>
        <time>2021-07-02 15:40:02</time>
      </trkpt>
      <trkpt lat="29.09902" lon="-13.46969">
        <ele>44.4</ele>
        <time>2021-07-02 15:40:03</time>
      </trkpt>
      <trkpt lat="29.09907" lon="-13.46969">
        <ele>44.4</ele>
        <time>2021-07-02 15:40:04</time>
      </trkpt>
      <trkpt lat="29.09911" lon="-13.46968">
        <ele>44.4</ele>
        <time>2021-07-02 15:40:05</time>
      </trkpt>
      <trkpt lat="29.09916" lon="-13.46968">
        <ele>44.4</ele>
        <time>2021-07-02 15:40:06</time>
      </trkpt>
      <trkpt lat="29.09921" lon="-13.46968">
        <ele>44</ele>
        <time>2021-07-02 15:40:07</time>
      </trkpt>
      <trkpt lat="29.09926" lon="-13.46967">
        <ele>44</ele>
        <time>2021-07-02 15:40:08</time>
      </trkpt>
      <trkpt lat="29.09931" lon="-13.46967">
        <ele>44.6</ele>
        <time>2021-07-02 15:40:09</time>
      </trkpt>
      <trkpt lat="29.09935" lon="-13.46966">
        <ele>44.4</ele>
        <time>2021-07-02 15:40:10</time>
      </trkpt>
      <trkpt lat="29.0994" lon="-13.46966">
        <ele>44.4</ele>
        <time>2021-07-02 15:40:11</time>
      </trkpt>
      <trkpt lat="29.09945" lon="-13.46966">
        <ele>44</ele>
        <time>2021-07-02 15:40:12</time>
      </trkpt>
      <trkpt lat="29.0995" lon="-13.46966">
        <ele>43.8</ele>
        <time>2021-07-02 15:40:13</time>
      </trkpt>
      <trkpt lat="29.09955" lon="-13.46966">
        <ele>43.8</ele>
        <time>2021-07-02 15:40:14</time>
      </trkpt>
      <trkpt lat="29.0996" lon="-13.46966">
        <ele>43.8</ele>
        <time>2021-07-02 15:40:15</time>
      </trkpt>
      <trkpt lat="29.09965" lon="-13.46965">
        <ele>43.8</ele>
        <time>2021-07-02 15:40:16</time>
      </trkpt>
      <trkpt lat="29.0997" lon="-13.46965">
        <ele>44</ele>
        <time>2021-07-02 15:40:17</time>
      </trkpt>
      <trkpt lat="29.09976" lon="-13.46964">
        <ele>44</ele>
        <time>2021-07-02 15:40:18</time>
      </trkpt>
      <trkpt lat="29.0998" lon="-13.46965">
        <ele>44.4</ele>
        <time>2021-07-02 15:40:19</time>
      </trkpt>
      <trkpt lat="29.09985" lon="-13.46964">
        <ele>44.4</ele>
        <time>2021-07-02 15:40:20</time>
      </trkpt>
      <trkpt lat="29.0999" lon="-13.46964">
        <ele>44.4</ele>
        <time>2021-07-02 15:40:21</time>
      </trkpt>
      <trkpt lat="29.09996" lon="-13.46964">
        <ele>44.4</ele>
        <time>2021-07-02 15:40:22</time>
      </trkpt>
      <trkpt lat="29.10001" lon="-13.46964">
        <ele>44.2</ele>
        <time>2021-07-02 15:40:23</time>
      </trkpt>
      <trkpt lat="29.10006" lon="-13.46964">
        <ele>44.2</ele>
        <time>2021-07-02 15:40:24</time>
      </trkpt>
      <trkpt lat="29.10011" lon="-13.46963">
        <ele>44.2</ele>
        <time>2021-07-02 15:40:25</time>
      </trkpt>
      <trkpt lat="29.10017" lon="-13.46963">
        <ele>44.2</ele>
        <time>2021-07-02 15:40:26</time>
      </trkpt>
      <trkpt lat="29.10021" lon="-13.46963">
        <ele>44.2</ele>
        <time>2021-07-02 15:40:27</time>
      </trkpt>
      <trkpt lat="29.10027" lon="-13.46963">
        <ele>44.2</ele>
        <time>2021-07-02 15:40:28</time>
      </trkpt>
      <trkpt lat="29.10031" lon="-13.46962">
        <ele>44.2</ele>
        <time>2021-07-02 15:40:29</time>
      </trkpt>
      <trkpt lat="29.10037" lon="-13.46962">
        <ele>44.2</ele>
        <time>2021-07-02 15:40:30</time>
      </trkpt>
      <trkpt lat="29.10042" lon="-13.46962">
        <ele>44.2</ele>
        <time>2021-07-02 15:40:31</time>
      </trkpt>
      <trkpt lat="29.10047" lon="-13.46962">
        <ele>44.2</ele>
        <time>2021-07-02 15:40:32</time>
      </trkpt>
      <trkpt lat="29.10053" lon="-13.46962">
        <ele>44.2</ele>
        <time>2021-07-02 15:40:33</time>
      </trkpt>
      <trkpt lat="29.10058" lon="-13.46961">
        <ele>44</ele>
        <time>2021-07-02 15:40:34</time>
      </trkpt>
      <trkpt lat="29.10063" lon="-13.46962">
        <ele>44</ele>
        <time>2021-07-02 15:40:35</time>
      </trkpt>
      <trkpt lat="29.10069" lon="-13.46962">
        <ele>44</ele>
        <time>2021-07-02 15:40:36</time>
      </trkpt>
      <trkpt lat="29.10073" lon="-13.46962">
        <ele>44</ele>
        <time>2021-07-02 15:40:37</time>
      </trkpt>
      <trkpt lat="29.10079" lon="-13.46962">
        <ele>44</ele>
        <time>2021-07-02 15:40:38</time>
      </trkpt>
      <trkpt lat="29.10084" lon="-13.46961">
        <ele>44</ele>
        <time>2021-07-02 15:40:39</time>
      </trkpt>
      <trkpt lat="29.10089" lon="-13.46962">
        <ele>44</ele>
        <time>2021-07-02 15:40:40</time>
      </trkpt>
      <trkpt lat="29.10095" lon="-13.46962">
        <ele>44</ele>
        <time>2021-07-02 15:40:41</time>
      </trkpt>
      <trkpt lat="29.101" lon="-13.46962">
        <ele>44</ele>
        <time>2021-07-02 15:40:42</time>
      </trkpt>
      <trkpt lat="29.10105" lon="-13.46962">
        <ele>44</ele>
        <time>2021-07-02 15:40:43</time>
      </trkpt>
      <trkpt lat="29.1011" lon="-13.46962">
        <ele>44</ele>
        <time>2021-07-02 15:40:44</time>
      </trkpt>
      <trkpt lat="29.10115" lon="-13.46962">
        <ele>44</ele>
        <time>2021-07-02 15:40:45</time>
      </trkpt>
      <trkpt lat="29.10121" lon="-13.46961">
        <ele>44</ele>
        <time>2021-07-02 15:40:46</time>
      </trkpt>
      <trkpt lat="29.10126" lon="-13.46961">
        <ele>44</ele>
        <time>2021-07-02 15:40:47</time>
      </trkpt>
      <trkpt lat="29.10131" lon="-13.46961">
        <ele>44</ele>
        <time>2021-07-02 15:40:48</time>
      </trkpt>
      <trkpt lat="29.10135" lon="-13.46961">
        <ele>44</ele>
        <time>2021-07-02 15:40:49</time>
      </trkpt>
      <trkpt lat="29.1014" lon="-13.46961">
        <ele>44</ele>
        <time>2021-07-02 15:40:50</time>
      </trkpt>
      <trkpt lat="29.10145" lon="-13.46961">
        <ele>44</ele>
        <time>2021-07-02 15:40:51</time>
      </trkpt>
      <trkpt lat="29.10151" lon="-13.46961">
        <ele>43.6</ele>
        <time>2021-07-02 15:40:52</time>
      </trkpt>
      <trkpt lat="29.10155" lon="-13.46961">
        <ele>43.6</ele>
        <time>2021-07-02 15:40:53</time>
      </trkpt>
      <trkpt lat="29.10161" lon="-13.46961">
        <ele>43.6</ele>
        <time>2021-07-02 15:40:54</time>
      </trkpt>
      <trkpt lat="29.10166" lon="-13.46961">
        <ele>43.6</ele>
        <time>2021-07-02 15:40:55</time>
      </trkpt>
      <trkpt lat="29.1017" lon="-13.4696">
        <ele>43.6</ele>
        <time>2021-07-02 15:40:56</time>
      </trkpt>
      <trkpt lat="29.10175" lon="-13.4696">
        <ele>43.6</ele>
        <time>2021-07-02 15:40:57</time>
      </trkpt>
      <trkpt lat="29.10181" lon="-13.4696">
        <ele>43.6</ele>
        <time>2021-07-02 15:40:58</time>
      </trkpt>
      <trkpt lat="29.10186" lon="-13.46959">
        <ele>43.6</ele>
        <time>2021-07-02 15:40:59</time>
      </trkpt>
      <trkpt lat="29.10191" lon="-13.46959">
        <ele>43.4</ele>
        <time>2021-07-02 15:41:00</time>
      </trkpt>
      <trkpt lat="29.10196" lon="-13.46959">
        <ele>43.4</ele>
        <time>2021-07-02 15:41:01</time>
      </trkpt>
      <trkpt lat="29.10201" lon="-13.46959">
        <ele>43.4</ele>
        <time>2021-07-02 15:41:02</time>
      </trkpt>
      <trkpt lat="29.10206" lon="-13.4696">
        <ele>43.2</ele>
        <time>2021-07-02 15:41:03</time>
      </trkpt>
      <trkpt lat="29.10212" lon="-13.46959">
        <ele>43.2</ele>
        <time>2021-07-02 15:41:04</time>
      </trkpt>
      <trkpt lat="29.10217" lon="-13.46959">
        <ele>43.2</ele>
        <time>2021-07-02 15:41:05</time>
      </trkpt>
      <trkpt lat="29.10222" lon="-13.46958">
        <ele>43.2</ele>
        <time>2021-07-02 15:41:06</time>
      </trkpt>
      <trkpt lat="29.10228" lon="-13.46959">
        <ele>43.2</ele>
        <time>2021-07-02 15:41:07</time>
      </trkpt>
      <trkpt lat="29.10234" lon="-13.46958">
        <ele>43.2</ele>
        <time>2021-07-02 15:41:08</time>
      </trkpt>
      <trkpt lat="29.10239" lon="-13.46959">
        <ele>43.2</ele>
        <time>2021-07-02 15:41:09</time>
      </trkpt>
      <trkpt lat="29.10244" lon="-13.4696">
        <ele>43.2</ele>
        <time>2021-07-02 15:41:10</time>
      </trkpt>
      <trkpt lat="29.10249" lon="-13.46959">
        <ele>43.2</ele>
        <time>2021-07-02 15:41:11</time>
      </trkpt>
      <trkpt lat="29.10254" lon="-13.46958">
        <ele>43.2</ele>
        <time>2021-07-02 15:41:12</time>
      </trkpt>
      <trkpt lat="29.10259" lon="-13.46958">
        <ele>43.2</ele>
        <time>2021-07-02 15:41:13</time>
      </trkpt>
      <trkpt lat="29.10265" lon="-13.46958">
        <ele>43.2</ele>
        <time>2021-07-02 15:41:14</time>
      </trkpt>
      <trkpt lat="29.1027" lon="-13.46958">
        <ele>43</ele>
        <time>2021-07-02 15:41:15</time>
      </trkpt>
      <trkpt lat="29.10276" lon="-13.46957">
        <ele>43</ele>
        <time>2021-07-02 15:41:16</time>
      </trkpt>
      <trkpt lat="29.10281" lon="-13.46957">
        <ele>42.6</ele>
        <time>2021-07-02 15:41:17</time>
      </trkpt>
      <trkpt lat="29.10286" lon="-13.46957">
        <ele>42.6</ele>
        <time>2021-07-02 15:41:18</time>
      </trkpt>
      <trkpt lat="29.10292" lon="-13.46957">
        <ele>42.6</ele>
        <time>2021-07-02 15:41:19</time>
      </trkpt>
      <trkpt lat="29.10297" lon="-13.46956">
        <ele>42.6</ele>
        <time>2021-07-02 15:41:20</time>
      </trkpt>
      <trkpt lat="29.10302" lon="-13.46956">
        <ele>42.6</ele>
        <time>2021-07-02 15:41:21</time>
      </trkpt>
      <trkpt lat="29.10307" lon="-13.46955">
        <ele>42.6</ele>
        <time>2021-07-02 15:41:22</time>
      </trkpt>
      <trkpt lat="29.10312" lon="-13.46954">
        <ele>42.6</ele>
        <time>2021-07-02 15:41:23</time>
      </trkpt>
      <trkpt lat="29.10318" lon="-13.46954">
        <ele>42.6</ele>
        <time>2021-07-02 15:41:24</time>
      </trkpt>
      <trkpt lat="29.10323" lon="-13.46953">
        <ele>42.6</ele>
        <time>2021-07-02 15:41:25</time>
      </trkpt>
      <trkpt lat="29.10328" lon="-13.46952">
        <ele>42.6</ele>
        <time>2021-07-02 15:41:26</time>
      </trkpt>
      <trkpt lat="29.10332" lon="-13.46951">
        <ele>42.6</ele>
        <time>2021-07-02 15:41:27</time>
      </trkpt>
      <trkpt lat="29.10337" lon="-13.4695">
        <ele>42.6</ele>
        <time>2021-07-02 15:41:28</time>
      </trkpt>
      <trkpt lat="29.10342" lon="-13.46949">
        <ele>42.8</ele>
        <time>2021-07-02 15:41:29</time>
      </trkpt>
      <trkpt lat="29.10347" lon="-13.46948">
        <ele>42.8</ele>
        <time>2021-07-02 15:41:30</time>
      </trkpt>
      <trkpt lat="29.10351" lon="-13.46946">
        <ele>42.8</ele>
        <time>2021-07-02 15:41:31</time>
      </trkpt>
      <trkpt lat="29.10355" lon="-13.46945">
        <ele>42.8</ele>
        <time>2021-07-02 15:41:32</time>
      </trkpt>
      <trkpt lat="29.1036" lon="-13.46944">
        <ele>42.8</ele>
        <time>2021-07-02 15:41:33</time>
      </trkpt>
      <trkpt lat="29.10364" lon="-13.46943">
        <ele>42.8</ele>
        <time>2021-07-02 15:41:34</time>
      </trkpt>
      <trkpt lat="29.10369" lon="-13.46942">
        <ele>42.8</ele>
        <time>2021-07-02 15:41:35</time>
      </trkpt>
      <trkpt lat="29.10373" lon="-13.46941">
        <ele>43</ele>
        <time>2021-07-02 15:41:36</time>
      </trkpt>
      <trkpt lat="29.10377" lon="-13.4694">
        <ele>43</ele>
        <time>2021-07-02 15:41:37</time>
      </trkpt>
      <trkpt lat="29.10381" lon="-13.46939">
        <ele>43</ele>
        <time>2021-07-02 15:41:38</time>
      </trkpt>
      <trkpt lat="29.10386" lon="-13.46938">
        <ele>43</ele>
        <time>2021-07-02 15:41:39</time>
      </trkpt>
      <trkpt lat="29.1039" lon="-13.46937">
        <ele>43</ele>
        <time>2021-07-02 15:41:40</time>
      </trkpt>
      <trkpt lat="29.10395" lon="-13.46936">
        <ele>43</ele>
        <time>2021-07-02 15:41:41</time>
      </trkpt>
      <trkpt lat="29.10399" lon="-13.46934">
        <ele>43.4</ele>
        <time>2021-07-02 15:41:42</time>
      </trkpt>
      <trkpt lat="29.10404" lon="-13.46933">
        <ele>43.4</ele>
        <time>2021-07-02 15:41:43</time>
      </trkpt>
      <trkpt lat="29.10409" lon="-13.46933">
        <ele>43.4</ele>
        <time>2021-07-02 15:41:44</time>
      </trkpt>
      <trkpt lat="29.10413" lon="-13.46931">
        <ele>43.4</ele>
        <time>2021-07-02 15:41:45</time>
      </trkpt>
      <trkpt lat="29.10417" lon="-13.4693">
        <ele>43.6</ele>
        <time>2021-07-02 15:41:46</time>
      </trkpt>
      <trkpt lat="29.10422" lon="-13.46929">
        <ele>43.6</ele>
        <time>2021-07-02 15:41:47</time>
      </trkpt>
      <trkpt lat="29.10426" lon="-13.46928">
        <ele>43.6</ele>
        <time>2021-07-02 15:41:48</time>
      </trkpt>
      <trkpt lat="29.1043" lon="-13.46927">
        <ele>43.6</ele>
        <time>2021-07-02 15:41:49</time>
      </trkpt>
      <trkpt lat="29.10434" lon="-13.46926">
        <ele>43.6</ele>
        <time>2021-07-02 15:41:50</time>
      </trkpt>
      <trkpt lat="29.10439" lon="-13.46925">
        <ele>43.6</ele>
        <time>2021-07-02 15:41:51</time>
      </trkpt>
      <trkpt lat="29.10444" lon="-13.46924">
        <ele>43.6</ele>
        <time>2021-07-02 15:41:52</time>
      </trkpt>
      <trkpt lat="29.10448" lon="-13.46923">
        <ele>43.6</ele>
        <time>2021-07-02 15:41:53</time>
      </trkpt>
      <trkpt lat="29.10452" lon="-13.46922">
        <ele>43.6</ele>
        <time>2021-07-02 15:41:54</time>
      </trkpt>
      <trkpt lat="29.10457" lon="-13.46921">
        <ele>43.6</ele>
        <time>2021-07-02 15:41:55</time>
      </trkpt>
      <trkpt lat="29.10462" lon="-13.4692">
        <ele>43.4</ele>
        <time>2021-07-02 15:41:56</time>
      </trkpt>
      <trkpt lat="29.10466" lon="-13.46919">
        <ele>43.2</ele>
        <time>2021-07-02 15:41:57</time>
      </trkpt>
      <trkpt lat="29.1047" lon="-13.46918">
        <ele>43.2</ele>
        <time>2021-07-02 15:41:58</time>
      </trkpt>
      <trkpt lat="29.10475" lon="-13.46917">
        <ele>43.2</ele>
        <time>2021-07-02 15:41:59</time>
      </trkpt>
      <trkpt lat="29.10479" lon="-13.46916">
        <ele>43.2</ele>
        <time>2021-07-02 15:42:00</time>
      </trkpt>
      <trkpt lat="29.10484" lon="-13.46915">
        <ele>43.2</ele>
        <time>2021-07-02 15:42:01</time>
      </trkpt>
      <trkpt lat="29.10488" lon="-13.46915">
        <ele>43.2</ele>
        <time>2021-07-02 15:42:02</time>
      </trkpt>
      <trkpt lat="29.10493" lon="-13.46914">
        <ele>43.2</ele>
        <time>2021-07-02 15:42:03</time>
      </trkpt>
      <trkpt lat="29.10498" lon="-13.46913">
        <ele>43.2</ele>
        <time>2021-07-02 15:42:04</time>
      </trkpt>
      <trkpt lat="29.10502" lon="-13.46912">
        <ele>43.4</ele>
        <time>2021-07-02 15:42:05</time>
      </trkpt>
      <trkpt lat="29.10507" lon="-13.46911">
        <ele>43.4</ele>
        <time>2021-07-02 15:42:06</time>
      </trkpt>
      <trkpt lat="29.10512" lon="-13.4691">
        <ele>43.4</ele>
        <time>2021-07-02 15:42:07</time>
      </trkpt>
      <trkpt lat="29.10517" lon="-13.46908">
        <ele>43.8</ele>
        <time>2021-07-02 15:42:08</time>
      </trkpt>
      <trkpt lat="29.10522" lon="-13.46907">
        <ele>43.8</ele>
        <time>2021-07-02 15:42:09</time>
      </trkpt>
      <trkpt lat="29.10526" lon="-13.46906">
        <ele>43.8</ele>
        <time>2021-07-02 15:42:10</time>
      </trkpt>
      <trkpt lat="29.10531" lon="-13.46905">
        <ele>43.8</ele>
        <time>2021-07-02 15:42:11</time>
      </trkpt>
      <trkpt lat="29.10536" lon="-13.46904">
        <ele>43.4</ele>
        <time>2021-07-02 15:42:12</time>
      </trkpt>
      <trkpt lat="29.10541" lon="-13.46903">
        <ele>43.4</ele>
        <time>2021-07-02 15:42:13</time>
      </trkpt>
      <trkpt lat="29.10545" lon="-13.46902">
        <ele>43.2</ele>
        <time>2021-07-02 15:42:14</time>
      </trkpt>
      <trkpt lat="29.1055" lon="-13.46901">
        <ele>43.2</ele>
        <time>2021-07-02 15:42:15</time>
      </trkpt>
      <trkpt lat="29.10555" lon="-13.469">
        <ele>43.2</ele>
        <time>2021-07-02 15:42:16</time>
      </trkpt>
      <trkpt lat="29.1056" lon="-13.469">
        <ele>43.2</ele>
        <time>2021-07-02 15:42:17</time>
      </trkpt>
      <trkpt lat="29.10564" lon="-13.46899">
        <ele>43.2</ele>
        <time>2021-07-02 15:42:18</time>
      </trkpt>
      <trkpt lat="29.10569" lon="-13.46898">
        <ele>43.2</ele>
        <time>2021-07-02 15:42:19</time>
      </trkpt>
      <trkpt lat="29.10574" lon="-13.46897">
        <ele>43.2</ele>
        <time>2021-07-02 15:42:20</time>
      </trkpt>
      <trkpt lat="29.10579" lon="-13.46895">
        <ele>42.8</ele>
        <time>2021-07-02 15:42:21</time>
      </trkpt>
      <trkpt lat="29.10584" lon="-13.46895">
        <ele>42.8</ele>
        <time>2021-07-02 15:42:22</time>
      </trkpt>
      <trkpt lat="29.10589" lon="-13.46894">
        <ele>42.8</ele>
        <time>2021-07-02 15:42:23</time>
      </trkpt>
      <trkpt lat="29.10594" lon="-13.46893">
        <ele>42.8</ele>
        <time>2021-07-02 15:42:24</time>
      </trkpt>
      <trkpt lat="29.10599" lon="-13.46892">
        <ele>42.6</ele>
        <time>2021-07-02 15:42:25</time>
      </trkpt>
      <trkpt lat="29.10603" lon="-13.4689">
        <ele>42.6</ele>
        <time>2021-07-02 15:42:26</time>
      </trkpt>
      <trkpt lat="29.10608" lon="-13.46889">
        <ele>42.6</ele>
        <time>2021-07-02 15:42:27</time>
      </trkpt>
      <trkpt lat="29.10612" lon="-13.46888">
        <ele>42.6</ele>
        <time>2021-07-02 15:42:28</time>
      </trkpt>
      <trkpt lat="29.10617" lon="-13.46887">
        <ele>42.6</ele>
        <time>2021-07-02 15:42:29</time>
      </trkpt>
      <trkpt lat="29.10622" lon="-13.46887">
        <ele>42.6</ele>
        <time>2021-07-02 15:42:30</time>
      </trkpt>
      <trkpt lat="29.10627" lon="-13.46885">
        <ele>42.6</ele>
        <time>2021-07-02 15:42:31</time>
      </trkpt>
      <trkpt lat="29.10632" lon="-13.46884">
        <ele>42.6</ele>
        <time>2021-07-02 15:42:32</time>
      </trkpt>
      <trkpt lat="29.10637" lon="-13.46883">
        <ele>42.6</ele>
        <time>2021-07-02 15:42:33</time>
      </trkpt>
      <trkpt lat="29.10641" lon="-13.46881">
        <ele>42.6</ele>
        <time>2021-07-02 15:42:34</time>
      </trkpt>
      <trkpt lat="29.10646" lon="-13.4688">
        <ele>42.6</ele>
        <time>2021-07-02 15:42:35</time>
      </trkpt>
      <trkpt lat="29.10651" lon="-13.46879">
        <ele>42.4</ele>
        <time>2021-07-02 15:42:36</time>
      </trkpt>
      <trkpt lat="29.10656" lon="-13.46878">
        <ele>42.4</ele>
        <time>2021-07-02 15:42:37</time>
      </trkpt>
      <trkpt lat="29.10661" lon="-13.46877">
        <ele>42</ele>
        <time>2021-07-02 15:42:38</time>
      </trkpt>
      <trkpt lat="29.10666" lon="-13.46876">
        <ele>42</ele>
        <time>2021-07-02 15:42:39</time>
      </trkpt>
      <trkpt lat="29.10671" lon="-13.46874">
        <ele>41.8</ele>
        <time>2021-07-02 15:42:40</time>
      </trkpt>
      <trkpt lat="29.10677" lon="-13.46873">
        <ele>41.8</ele>
        <time>2021-07-02 15:42:41</time>
      </trkpt>
      <trkpt lat="29.10701" lon="-13.46867">
        <ele>40.4</ele>
        <time>2021-07-02 15:42:42</time>
      </trkpt>
      <trkpt lat="29.10706" lon="-13.46866">
        <ele>40</ele>
        <time>2021-07-02 15:42:43</time>
      </trkpt>
      <trkpt lat="29.10711" lon="-13.46865">
        <ele>39.8</ele>
        <time>2021-07-02 15:42:44</time>
      </trkpt>
      <trkpt lat="29.10716" lon="-13.46863">
        <ele>39.8</ele>
        <time>2021-07-02 15:42:45</time>
      </trkpt>
      <trkpt lat="29.1072" lon="-13.46862">
        <ele>39.8</ele>
        <time>2021-07-02 15:42:46</time>
      </trkpt>
      <trkpt lat="29.10725" lon="-13.46861">
        <ele>39.8</ele>
        <time>2021-07-02 15:42:47</time>
      </trkpt>
      <trkpt lat="29.1073" lon="-13.4686">
        <ele>40.2</ele>
        <time>2021-07-02 15:42:48</time>
      </trkpt>
      <trkpt lat="29.10734" lon="-13.46859">
        <ele>40.2</ele>
        <time>2021-07-02 15:42:49</time>
      </trkpt>
      <trkpt lat="29.10739" lon="-13.46858">
        <ele>40.4</ele>
        <time>2021-07-02 15:42:50</time>
      </trkpt>
      <trkpt lat="29.10744" lon="-13.46856">
        <ele>40.4</ele>
        <time>2021-07-02 15:42:51</time>
      </trkpt>
      <trkpt lat="29.10749" lon="-13.46856">
        <ele>40.4</ele>
        <time>2021-07-02 15:42:52</time>
      </trkpt>
      <trkpt lat="29.10754" lon="-13.46855">
        <ele>40.4</ele>
        <time>2021-07-02 15:42:53</time>
      </trkpt>
      <trkpt lat="29.10759" lon="-13.46853">
        <ele>40.4</ele>
        <time>2021-07-02 15:42:54</time>
      </trkpt>
      <trkpt lat="29.10764" lon="-13.46852">
        <ele>40.2</ele>
        <time>2021-07-02 15:42:55</time>
      </trkpt>
      <trkpt lat="29.10768" lon="-13.46851">
        <ele>40.2</ele>
        <time>2021-07-02 15:42:56</time>
      </trkpt>
      <trkpt lat="29.10773" lon="-13.4685">
        <ele>40.4</ele>
        <time>2021-07-02 15:42:57</time>
      </trkpt>
      <trkpt lat="29.10778" lon="-13.46849">
        <ele>40.4</ele>
        <time>2021-07-02 15:42:58</time>
      </trkpt>
      <trkpt lat="29.10783" lon="-13.46849">
        <ele>40.4</ele>
        <time>2021-07-02 15:42:59</time>
      </trkpt>
      <trkpt lat="29.10792" lon="-13.46847">
        <ele>40.6</ele>
        <time>2021-07-02 15:43:00</time>
      </trkpt>
      <trkpt lat="29.10796" lon="-13.46847">
        <ele>40.6</ele>
        <time>2021-07-02 15:43:01</time>
      </trkpt>
      <trkpt lat="29.10801" lon="-13.46848">
        <ele>40.6</ele>
        <time>2021-07-02 15:43:02</time>
      </trkpt>
      <trkpt lat="29.10805" lon="-13.46848">
        <ele>40.6</ele>
        <time>2021-07-02 15:43:03</time>
      </trkpt>
      <trkpt lat="29.10809" lon="-13.46849">
        <ele>40.6</ele>
        <time>2021-07-02 15:43:04</time>
      </trkpt>
      <trkpt lat="29.10813" lon="-13.4685">
        <ele>40.6</ele>
        <time>2021-07-02 15:43:05</time>
      </trkpt>
      <trkpt lat="29.10817" lon="-13.46851">
        <ele>40.2</ele>
        <time>2021-07-02 15:43:06</time>
      </trkpt>
      <trkpt lat="29.10821" lon="-13.46851">
        <ele>40.4</ele>
        <time>2021-07-02 15:43:07</time>
      </trkpt>
      <trkpt lat="29.10824" lon="-13.46851">
        <ele>40.4</ele>
        <time>2021-07-02 15:43:08</time>
      </trkpt>
      <trkpt lat="29.10828" lon="-13.46849">
        <ele>40.4</ele>
        <time>2021-07-02 15:43:09</time>
      </trkpt>
      <trkpt lat="29.1083" lon="-13.46846">
        <ele>40.4</ele>
        <time>2021-07-02 15:43:10</time>
      </trkpt>
      <trkpt lat="29.10833" lon="-13.46844">
        <ele>40.4</ele>
        <time>2021-07-02 15:43:11</time>
      </trkpt>
      <trkpt lat="29.10836" lon="-13.46842">
        <ele>40.2</ele>
        <time>2021-07-02 15:43:12</time>
      </trkpt>
      <trkpt lat="29.10839" lon="-13.46839">
        <ele>40.2</ele>
        <time>2021-07-02 15:43:13</time>
      </trkpt>
      <trkpt lat="29.10842" lon="-13.46838">
        <ele>40.2</ele>
        <time>2021-07-02 15:43:14</time>
      </trkpt>
      <trkpt lat="29.10846" lon="-13.46836">
        <ele>40.2</ele>
        <time>2021-07-02 15:43:15</time>
      </trkpt>
      <trkpt lat="29.1085" lon="-13.46834">
        <ele>40.2</ele>
        <time>2021-07-02 15:43:16</time>
      </trkpt>
      <trkpt lat="29.10854" lon="-13.46833">
        <ele>40.2</ele>
        <time>2021-07-02 15:43:17</time>
      </trkpt>
      <trkpt lat="29.10858" lon="-13.46831">
        <ele>40.2</ele>
        <time>2021-07-02 15:43:18</time>
      </trkpt>
      <trkpt lat="29.10862" lon="-13.4683">
        <ele>40.6</ele>
        <time>2021-07-02 15:43:19</time>
      </trkpt>
      <trkpt lat="29.10866" lon="-13.46829">
        <ele>40.6</ele>
        <time>2021-07-02 15:43:20</time>
      </trkpt>
      <trkpt lat="29.1087" lon="-13.46829">
        <ele>40.6</ele>
        <time>2021-07-02 15:43:21</time>
      </trkpt>
      <trkpt lat="29.10874" lon="-13.46828">
        <ele>40.6</ele>
        <time>2021-07-02 15:43:22</time>
      </trkpt>
      <trkpt lat="29.10878" lon="-13.46827">
        <ele>40.2</ele>
        <time>2021-07-02 15:43:23</time>
      </trkpt>
      <trkpt lat="29.10882" lon="-13.46826">
        <ele>40.6</ele>
        <time>2021-07-02 15:43:24</time>
      </trkpt>
      <trkpt lat="29.10885" lon="-13.46825">
        <ele>40.8</ele>
        <time>2021-07-02 15:43:25</time>
      </trkpt>
      <trkpt lat="29.10889" lon="-13.46825">
        <ele>41</ele>
        <time>2021-07-02 15:43:26</time>
      </trkpt>
      <trkpt lat="29.10893" lon="-13.46824">
        <ele>41</ele>
        <time>2021-07-02 15:43:27</time>
      </trkpt>
      <trkpt lat="29.10897" lon="-13.46823">
        <ele>41.8</ele>
        <time>2021-07-02 15:43:28</time>
      </trkpt>
      <trkpt lat="29.10901" lon="-13.46822">
        <ele>41.8</ele>
        <time>2021-07-02 15:43:29</time>
      </trkpt>
      <trkpt lat="29.10904" lon="-13.46821">
        <ele>42</ele>
        <time>2021-07-02 15:43:30</time>
      </trkpt>
      <trkpt lat="29.10908" lon="-13.4682">
        <ele>42.2</ele>
        <time>2021-07-02 15:43:31</time>
      </trkpt>
      <trkpt lat="29.10912" lon="-13.46819">
        <ele>42.6</ele>
        <time>2021-07-02 15:43:32</time>
      </trkpt>
      <trkpt lat="29.10916" lon="-13.46818">
        <ele>42.8</ele>
        <time>2021-07-02 15:43:33</time>
      </trkpt>
      <trkpt lat="29.10919" lon="-13.46818">
        <ele>42.8</ele>
        <time>2021-07-02 15:43:34</time>
      </trkpt>
      <trkpt lat="29.10923" lon="-13.46817">
        <ele>43.2</ele>
        <time>2021-07-02 15:43:35</time>
      </trkpt>
      <trkpt lat="29.10927" lon="-13.46816">
        <ele>43.2</ele>
        <time>2021-07-02 15:43:36</time>
      </trkpt>
      <trkpt lat="29.10931" lon="-13.46815">
        <ele>43.2</ele>
        <time>2021-07-02 15:43:37</time>
      </trkpt>
      <trkpt lat="29.10934" lon="-13.46814">
        <ele>43.2</ele>
        <time>2021-07-02 15:43:38</time>
      </trkpt>
      <trkpt lat="29.10938" lon="-13.46814">
        <ele>43.4</ele>
        <time>2021-07-02 15:43:39</time>
      </trkpt>
      <trkpt lat="29.10941" lon="-13.46813">
        <ele>43.4</ele>
        <time>2021-07-02 15:43:40</time>
      </trkpt>
      <trkpt lat="29.10945" lon="-13.46812">
        <ele>43.4</ele>
        <time>2021-07-02 15:43:41</time>
      </trkpt>
      <trkpt lat="29.10949" lon="-13.46811">
        <ele>43.4</ele>
        <time>2021-07-02 15:43:42</time>
      </trkpt>
      <trkpt lat="29.10953" lon="-13.4681">
        <ele>43.4</ele>
        <time>2021-07-02 15:43:43</time>
      </trkpt>
      <trkpt lat="29.10957" lon="-13.46809">
        <ele>43.4</ele>
        <time>2021-07-02 15:43:44</time>
      </trkpt>
      <trkpt lat="29.10961" lon="-13.46808">
        <ele>43.4</ele>
        <time>2021-07-02 15:43:45</time>
      </trkpt>
      <trkpt lat="29.10965" lon="-13.46807">
        <ele>43.8</ele>
        <time>2021-07-02 15:43:46</time>
      </trkpt>
      <trkpt lat="29.10969" lon="-13.46806">
        <ele>43.8</ele>
        <time>2021-07-02 15:43:47</time>
      </trkpt>
      <trkpt lat="29.10972" lon="-13.46805">
        <ele>43.8</ele>
        <time>2021-07-02 15:43:48</time>
      </trkpt>
      <trkpt lat="29.10976" lon="-13.46804">
        <ele>43.8</ele>
        <time>2021-07-02 15:43:49</time>
      </trkpt>
      <trkpt lat="29.1098" lon="-13.46804">
        <ele>43.8</ele>
        <time>2021-07-02 15:43:50</time>
      </trkpt>
      <trkpt lat="29.10984" lon="-13.46803">
        <ele>43.4</ele>
        <time>2021-07-02 15:43:51</time>
      </trkpt>
      <trkpt lat="29.10988" lon="-13.46802">
        <ele>43.4</ele>
        <time>2021-07-02 15:43:52</time>
      </trkpt>
      <trkpt lat="29.10992" lon="-13.46801">
        <ele>43.4</ele>
        <time>2021-07-02 15:43:53</time>
      </trkpt>
      <trkpt lat="29.10996" lon="-13.468">
        <ele>43.6</ele>
        <time>2021-07-02 15:43:54</time>
      </trkpt>
      <trkpt lat="29.11" lon="-13.46799">
        <ele>43.6</ele>
        <time>2021-07-02 15:43:55</time>
      </trkpt>
      <trkpt lat="29.11004" lon="-13.46798">
        <ele>43.6</ele>
        <time>2021-07-02 15:43:56</time>
      </trkpt>
      <trkpt lat="29.11007" lon="-13.46797">
        <ele>43.6</ele>
        <time>2021-07-02 15:43:57</time>
      </trkpt>
      <trkpt lat="29.11011" lon="-13.46796">
        <ele>44</ele>
        <time>2021-07-02 15:43:58</time>
      </trkpt>
      <trkpt lat="29.11015" lon="-13.46795">
        <ele>43.6</ele>
        <time>2021-07-02 15:43:59</time>
      </trkpt>
      <trkpt lat="29.11018" lon="-13.46793">
        <ele>43.6</ele>
        <time>2021-07-02 15:44:00</time>
      </trkpt>
      <trkpt lat="29.11022" lon="-13.46792">
        <ele>44.6</ele>
        <time>2021-07-02 15:44:01</time>
      </trkpt>
      <trkpt lat="29.11026" lon="-13.46792">
        <ele>45.6</ele>
        <time>2021-07-02 15:44:02</time>
      </trkpt>
      <trkpt lat="29.11029" lon="-13.46792">
        <ele>44.6</ele>
        <time>2021-07-02 15:44:03</time>
      </trkpt>
      <trkpt lat="29.11032" lon="-13.46791">
        <ele>44.2</ele>
        <time>2021-07-02 15:44:04</time>
      </trkpt>
      <trkpt lat="29.11036" lon="-13.46791">
        <ele>43.8</ele>
        <time>2021-07-02 15:44:05</time>
      </trkpt>
      <trkpt lat="29.11039" lon="-13.4679">
        <ele>44.4</ele>
        <time>2021-07-02 15:44:06</time>
      </trkpt>
      <trkpt lat="29.11042" lon="-13.46789">
        <ele>44.4</ele>
        <time>2021-07-02 15:44:07</time>
      </trkpt>
      <trkpt lat="29.11046" lon="-13.46788">
        <ele>44</ele>
        <time>2021-07-02 15:44:08</time>
      </trkpt>
      <trkpt lat="29.11049" lon="-13.46787">
        <ele>44</ele>
        <time>2021-07-02 15:44:09</time>
      </trkpt>
      <trkpt lat="29.11053" lon="-13.46786">
        <ele>44</ele>
        <time>2021-07-02 15:44:10</time>
      </trkpt>
      <trkpt lat="29.11057" lon="-13.46785">
        <ele>44</ele>
        <time>2021-07-02 15:44:11</time>
      </trkpt>
      <trkpt lat="29.11061" lon="-13.46784">
        <ele>43.8</ele>
        <time>2021-07-02 15:44:12</time>
      </trkpt>
      <trkpt lat="29.11065" lon="-13.46784">
        <ele>43.6</ele>
        <time>2021-07-02 15:44:13</time>
      </trkpt>
      <trkpt lat="29.11069" lon="-13.46783">
        <ele>43.6</ele>
        <time>2021-07-02 15:44:14</time>
      </trkpt>
      <trkpt lat="29.11073" lon="-13.46782">
        <ele>43.2</ele>
        <time>2021-07-02 15:44:15</time>
      </trkpt>
      <trkpt lat="29.11077" lon="-13.46781">
        <ele>43.2</ele>
        <time>2021-07-02 15:44:16</time>
      </trkpt>
      <trkpt lat="29.11081" lon="-13.4678">
        <ele>43</ele>
        <time>2021-07-02 15:44:17</time>
      </trkpt>
      <trkpt lat="29.11085" lon="-13.46778">
        <ele>43</ele>
        <time>2021-07-02 15:44:18</time>
      </trkpt>
      <trkpt lat="29.11089" lon="-13.46777">
        <ele>43</ele>
        <time>2021-07-02 15:44:19</time>
      </trkpt>
      <trkpt lat="29.11093" lon="-13.46776">
        <ele>42.8</ele>
        <time>2021-07-02 15:44:20</time>
      </trkpt>
      <trkpt lat="29.11097" lon="-13.46775">
        <ele>42.8</ele>
        <time>2021-07-02 15:44:21</time>
      </trkpt>
      <trkpt lat="29.11101" lon="-13.46774">
        <ele>42.8</ele>
        <time>2021-07-02 15:44:22</time>
      </trkpt>
      <trkpt lat="29.11105" lon="-13.46773">
        <ele>42.8</ele>
        <time>2021-07-02 15:44:23</time>
      </trkpt>
      <trkpt lat="29.11109" lon="-13.46772">
        <ele>43</ele>
        <time>2021-07-02 15:44:24</time>
      </trkpt>
      <trkpt lat="29.11113" lon="-13.46772">
        <ele>43</ele>
        <time>2021-07-02 15:44:25</time>
      </trkpt>
      <trkpt lat="29.11117" lon="-13.46771">
        <ele>43</ele>
        <time>2021-07-02 15:44:26</time>
      </trkpt>
      <trkpt lat="29.11121" lon="-13.4677">
        <ele>42.6</ele>
        <time>2021-07-02 15:44:27</time>
      </trkpt>
      <trkpt lat="29.11125" lon="-13.46769">
        <ele>42.6</ele>
        <time>2021-07-02 15:44:28</time>
      </trkpt>
      <trkpt lat="29.11129" lon="-13.46768">
        <ele>42.6</ele>
        <time>2021-07-02 15:44:29</time>
      </trkpt>
      <trkpt lat="29.11133" lon="-13.46767">
        <ele>42.4</ele>
        <time>2021-07-02 15:44:30</time>
      </trkpt>
      <trkpt lat="29.11138" lon="-13.46766">
        <ele>42.4</ele>
        <time>2021-07-02 15:44:31</time>
      </trkpt>
      <trkpt lat="29.11142" lon="-13.46765">
        <ele>42.4</ele>
        <time>2021-07-02 15:44:32</time>
      </trkpt>
      <trkpt lat="29.11146" lon="-13.46764">
        <ele>42.4</ele>
        <time>2021-07-02 15:44:33</time>
      </trkpt>
      <trkpt lat="29.1115" lon="-13.46764">
        <ele>42.4</ele>
        <time>2021-07-02 15:44:34</time>
      </trkpt>
      <trkpt lat="29.11154" lon="-13.46763">
        <ele>42.4</ele>
        <time>2021-07-02 15:44:35</time>
      </trkpt>
      <trkpt lat="29.11158" lon="-13.46762">
        <ele>42.4</ele>
        <time>2021-07-02 15:44:36</time>
      </trkpt>
      <trkpt lat="29.11163" lon="-13.46761">
        <ele>42.8</ele>
        <time>2021-07-02 15:44:37</time>
      </trkpt>
      <trkpt lat="29.11167" lon="-13.4676">
        <ele>42.8</ele>
        <time>2021-07-02 15:44:38</time>
      </trkpt>
      <trkpt lat="29.11171" lon="-13.46759">
        <ele>42.8</ele>
        <time>2021-07-02 15:44:39</time>
      </trkpt>
      <trkpt lat="29.11176" lon="-13.46757">
        <ele>42.8</ele>
        <time>2021-07-02 15:44:40</time>
      </trkpt>
      <trkpt lat="29.11181" lon="-13.46756">
        <ele>42.4</ele>
        <time>2021-07-02 15:44:41</time>
      </trkpt>
      <trkpt lat="29.11186" lon="-13.46756">
        <ele>42.4</ele>
        <time>2021-07-02 15:44:42</time>
      </trkpt>
      <trkpt lat="29.1119" lon="-13.46755">
        <ele>42.4</ele>
        <time>2021-07-02 15:44:43</time>
      </trkpt>
      <trkpt lat="29.11195" lon="-13.46753">
        <ele>42.4</ele>
        <time>2021-07-02 15:44:44</time>
      </trkpt>
      <trkpt lat="29.11199" lon="-13.46752">
        <ele>42.4</ele>
        <time>2021-07-02 15:44:45</time>
      </trkpt>
      <trkpt lat="29.11203" lon="-13.46752">
        <ele>42.4</ele>
        <time>2021-07-02 15:44:46</time>
      </trkpt>
      <trkpt lat="29.11207" lon="-13.46751">
        <ele>42.4</ele>
        <time>2021-07-02 15:44:47</time>
      </trkpt>
      <trkpt lat="29.11211" lon="-13.46749">
        <ele>42.4</ele>
        <time>2021-07-02 15:44:48</time>
      </trkpt>
      <trkpt lat="29.11216" lon="-13.46748">
        <ele>42.2</ele>
        <time>2021-07-02 15:44:49</time>
      </trkpt>
      <trkpt lat="29.11221" lon="-13.46748">
        <ele>42.2</ele>
        <time>2021-07-02 15:44:50</time>
      </trkpt>
      <trkpt lat="29.11225" lon="-13.46747">
        <ele>42.2</ele>
        <time>2021-07-02 15:44:51</time>
      </trkpt>
      <trkpt lat="29.11229" lon="-13.46746">
        <ele>42.2</ele>
        <time>2021-07-02 15:44:52</time>
      </trkpt>
      <trkpt lat="29.11234" lon="-13.46744">
        <ele>42.2</ele>
        <time>2021-07-02 15:44:53</time>
      </trkpt>
      <trkpt lat="29.11238" lon="-13.46743">
        <ele>42.2</ele>
        <time>2021-07-02 15:44:54</time>
      </trkpt>
      <trkpt lat="29.11243" lon="-13.46742">
        <ele>42.2</ele>
        <time>2021-07-02 15:44:55</time>
      </trkpt>
      <trkpt lat="29.11247" lon="-13.46741">
        <ele>42.2</ele>
        <time>2021-07-02 15:44:56</time>
      </trkpt>
      <trkpt lat="29.11252" lon="-13.4674">
        <ele>42.2</ele>
        <time>2021-07-02 15:44:57</time>
      </trkpt>
      <trkpt lat="29.11256" lon="-13.46739">
        <ele>42</ele>
        <time>2021-07-02 15:44:58</time>
      </trkpt>
      <trkpt lat="29.11261" lon="-13.46738">
        <ele>42</ele>
        <time>2021-07-02 15:44:59</time>
      </trkpt>
      <trkpt lat="29.11265" lon="-13.46737">
        <ele>41.6</ele>
        <time>2021-07-02 15:45:00</time>
      </trkpt>
      <trkpt lat="29.1127" lon="-13.46736">
        <ele>41.4</ele>
        <time>2021-07-02 15:45:01</time>
      </trkpt>
      <trkpt lat="29.11274" lon="-13.46735">
        <ele>41.2</ele>
        <time>2021-07-02 15:45:02</time>
      </trkpt>
      <trkpt lat="29.11279" lon="-13.46734">
        <ele>41.2</ele>
        <time>2021-07-02 15:45:03</time>
      </trkpt>
      <trkpt lat="29.11283" lon="-13.46733">
        <ele>40.8</ele>
        <time>2021-07-02 15:45:04</time>
      </trkpt>
      <trkpt lat="29.11288" lon="-13.46732">
        <ele>40.6</ele>
        <time>2021-07-02 15:45:05</time>
      </trkpt>
      <trkpt lat="29.11292" lon="-13.46731">
        <ele>40.6</ele>
        <time>2021-07-02 15:45:06</time>
      </trkpt>
      <trkpt lat="29.11297" lon="-13.4673">
        <ele>40.6</ele>
        <time>2021-07-02 15:45:07</time>
      </trkpt>
      <trkpt lat="29.11301" lon="-13.46728">
        <ele>40.4</ele>
        <time>2021-07-02 15:45:08</time>
      </trkpt>
      <trkpt lat="29.11306" lon="-13.46727">
        <ele>40.4</ele>
        <time>2021-07-02 15:45:09</time>
      </trkpt>
      <trkpt lat="29.11311" lon="-13.46726">
        <ele>40.4</ele>
        <time>2021-07-02 15:45:10</time>
      </trkpt>
      <trkpt lat="29.11315" lon="-13.46725">
        <ele>40</ele>
        <time>2021-07-02 15:45:11</time>
      </trkpt>
      <trkpt lat="29.1132" lon="-13.46723">
        <ele>39.6</ele>
        <time>2021-07-02 15:45:12</time>
      </trkpt>
      <trkpt lat="29.11325" lon="-13.46722">
        <ele>39.6</ele>
        <time>2021-07-02 15:45:13</time>
      </trkpt>
      <trkpt lat="29.1133" lon="-13.46721">
        <ele>39.2</ele>
        <time>2021-07-02 15:45:14</time>
      </trkpt>
      <trkpt lat="29.11335" lon="-13.4672">
        <ele>38.8</ele>
        <time>2021-07-02 15:45:15</time>
      </trkpt>
      <trkpt lat="29.1134" lon="-13.46718">
        <ele>38.8</ele>
        <time>2021-07-02 15:45:16</time>
      </trkpt>
      <trkpt lat="29.11345" lon="-13.46718">
        <ele>39.2</ele>
        <time>2021-07-02 15:45:17</time>
      </trkpt>
      <trkpt lat="29.11349" lon="-13.46716">
        <ele>39</ele>
        <time>2021-07-02 15:45:18</time>
      </trkpt>
      <trkpt lat="29.11354" lon="-13.46715">
        <ele>39</ele>
        <time>2021-07-02 15:45:19</time>
      </trkpt>
      <trkpt lat="29.11359" lon="-13.46714">
        <ele>39</ele>
        <time>2021-07-02 15:45:20</time>
      </trkpt>
      <trkpt lat="29.11364" lon="-13.46713">
        <ele>39</ele>
        <time>2021-07-02 15:45:21</time>
      </trkpt>
      <trkpt lat="29.11369" lon="-13.46712">
        <ele>39</ele>
        <time>2021-07-02 15:45:22</time>
      </trkpt>
      <trkpt lat="29.11374" lon="-13.46711">
        <ele>38.6</ele>
        <time>2021-07-02 15:45:23</time>
      </trkpt>
      <trkpt lat="29.11379" lon="-13.4671">
        <ele>38.6</ele>
        <time>2021-07-02 15:45:24</time>
      </trkpt>
      <trkpt lat="29.11383" lon="-13.46708">
        <ele>38.4</ele>
        <time>2021-07-02 15:45:25</time>
      </trkpt>
      <trkpt lat="29.11388" lon="-13.46707">
        <ele>38.4</ele>
        <time>2021-07-02 15:45:26</time>
      </trkpt>
      <trkpt lat="29.11393" lon="-13.46706">
        <ele>38.4</ele>
        <time>2021-07-02 15:45:27</time>
      </trkpt>
      <trkpt lat="29.11399" lon="-13.46705">
        <ele>38.4</ele>
        <time>2021-07-02 15:45:28</time>
      </trkpt>
      <trkpt lat="29.11404" lon="-13.46704">
        <ele>38.4</ele>
        <time>2021-07-02 15:45:29</time>
      </trkpt>
      <trkpt lat="29.11409" lon="-13.46703">
        <ele>38.2</ele>
        <time>2021-07-02 15:45:30</time>
      </trkpt>
      <trkpt lat="29.11414" lon="-13.46702">
        <ele>38.2</ele>
        <time>2021-07-02 15:45:31</time>
      </trkpt>
      <trkpt lat="29.11419" lon="-13.46701">
        <ele>37.8</ele>
        <time>2021-07-02 15:45:32</time>
      </trkpt>
      <trkpt lat="29.11424" lon="-13.46699">
        <ele>37.8</ele>
        <time>2021-07-02 15:45:33</time>
      </trkpt>
      <trkpt lat="29.11429" lon="-13.46698">
        <ele>37.6</ele>
        <time>2021-07-02 15:45:34</time>
      </trkpt>
      <trkpt lat="29.11434" lon="-13.46697">
        <ele>37.4</ele>
        <time>2021-07-02 15:45:35</time>
      </trkpt>
      <trkpt lat="29.1144" lon="-13.46695">
        <ele>37.4</ele>
        <time>2021-07-02 15:45:36</time>
      </trkpt>
      <trkpt lat="29.11445" lon="-13.46695">
        <ele>37.2</ele>
        <time>2021-07-02 15:45:37</time>
      </trkpt>
      <trkpt lat="29.11451" lon="-13.46694">
        <ele>37.2</ele>
        <time>2021-07-02 15:45:38</time>
      </trkpt>
      <trkpt lat="29.11455" lon="-13.46693">
        <ele>36.8</ele>
        <time>2021-07-02 15:45:39</time>
      </trkpt>
      <trkpt lat="29.11461" lon="-13.46691">
        <ele>36.8</ele>
        <time>2021-07-02 15:45:40</time>
      </trkpt>
      <trkpt lat="29.11466" lon="-13.4669">
        <ele>36.6</ele>
        <time>2021-07-02 15:45:41</time>
      </trkpt>
      <trkpt lat="29.11471" lon="-13.46689">
        <ele>36.6</ele>
        <time>2021-07-02 15:45:42</time>
      </trkpt>
      <trkpt lat="29.11476" lon="-13.46688">
        <ele>36.6</ele>
        <time>2021-07-02 15:45:43</time>
      </trkpt>
      <trkpt lat="29.11482" lon="-13.46686">
        <ele>36.2</ele>
        <time>2021-07-02 15:45:44</time>
      </trkpt>
      <trkpt lat="29.11487" lon="-13.46685">
        <ele>36</ele>
        <time>2021-07-02 15:45:45</time>
      </trkpt>
      <trkpt lat="29.11492" lon="-13.46683">
        <ele>36</ele>
        <time>2021-07-02 15:45:46</time>
      </trkpt>
      <trkpt lat="29.11498" lon="-13.46682">
        <ele>35.6</ele>
        <time>2021-07-02 15:45:47</time>
      </trkpt>
      <trkpt lat="29.11504" lon="-13.46681">
        <ele>35.6</ele>
        <time>2021-07-02 15:45:48</time>
      </trkpt>
      <trkpt lat="29.11509" lon="-13.4668">
        <ele>35.4</ele>
        <time>2021-07-02 15:45:49</time>
      </trkpt>
      <trkpt lat="29.11515" lon="-13.46678">
        <ele>35</ele>
        <time>2021-07-02 15:45:50</time>
      </trkpt>
      <trkpt lat="29.1152" lon="-13.46677">
        <ele>34.8</ele>
        <time>2021-07-02 15:45:51</time>
      </trkpt>
      <trkpt lat="29.11525" lon="-13.46676">
        <ele>34.6</ele>
        <time>2021-07-02 15:45:52</time>
      </trkpt>
      <trkpt lat="29.1153" lon="-13.46674">
        <ele>34.6</ele>
        <time>2021-07-02 15:45:53</time>
      </trkpt>
      <trkpt lat="29.11536" lon="-13.46673">
        <ele>34.6</ele>
        <time>2021-07-02 15:45:54</time>
      </trkpt>
      <trkpt lat="29.11542" lon="-13.46672">
        <ele>34.4</ele>
        <time>2021-07-02 15:45:55</time>
      </trkpt>
      <trkpt lat="29.11547" lon="-13.46671">
        <ele>34.4</ele>
        <time>2021-07-02 15:45:56</time>
      </trkpt>
      <trkpt lat="29.11552" lon="-13.4667">
        <ele>34.4</ele>
        <time>2021-07-02 15:45:57</time>
      </trkpt>
      <trkpt lat="29.11558" lon="-13.46668">
        <ele>34.4</ele>
        <time>2021-07-02 15:45:58</time>
      </trkpt>
      <trkpt lat="29.11563" lon="-13.46667">
        <ele>34</ele>
        <time>2021-07-02 15:45:59</time>
      </trkpt>
      <trkpt lat="29.11569" lon="-13.46665">
        <ele>34</ele>
        <time>2021-07-02 15:46:00</time>
      </trkpt>
      <trkpt lat="29.11574" lon="-13.46664">
        <ele>33.8</ele>
        <time>2021-07-02 15:46:01</time>
      </trkpt>
      <trkpt lat="29.11579" lon="-13.46663">
        <ele>33.8</ele>
        <time>2021-07-02 15:46:02</time>
      </trkpt>
      <trkpt lat="29.11585" lon="-13.46661">
        <ele>33.6</ele>
        <time>2021-07-02 15:46:03</time>
      </trkpt>
      <trkpt lat="29.11591" lon="-13.46661">
        <ele>33.6</ele>
        <time>2021-07-02 15:46:04</time>
      </trkpt>
      <trkpt lat="29.11596" lon="-13.46659">
        <ele>33.2</ele>
        <time>2021-07-02 15:46:05</time>
      </trkpt>
      <trkpt lat="29.11602" lon="-13.46658">
        <ele>33.2</ele>
        <time>2021-07-02 15:46:06</time>
      </trkpt>
      <trkpt lat="29.11608" lon="-13.46657">
        <ele>33</ele>
        <time>2021-07-02 15:46:07</time>
      </trkpt>
      <trkpt lat="29.11613" lon="-13.46655">
        <ele>33</ele>
        <time>2021-07-02 15:46:08</time>
      </trkpt>
      <trkpt lat="29.11619" lon="-13.46654">
        <ele>33</ele>
        <time>2021-07-02 15:46:09</time>
      </trkpt>
      <trkpt lat="29.11624" lon="-13.46652">
        <ele>33</ele>
        <time>2021-07-02 15:46:10</time>
      </trkpt>
      <trkpt lat="29.11629" lon="-13.46651">
        <ele>32.8</ele>
        <time>2021-07-02 15:46:11</time>
      </trkpt>
      <trkpt lat="29.11635" lon="-13.4665">
        <ele>32.8</ele>
        <time>2021-07-02 15:46:12</time>
      </trkpt>
      <trkpt lat="29.1164" lon="-13.46648">
        <ele>32.6</ele>
        <time>2021-07-02 15:46:13</time>
      </trkpt>
      <trkpt lat="29.11645" lon="-13.46647">
        <ele>32.8</ele>
        <time>2021-07-02 15:46:14</time>
      </trkpt>
      <trkpt lat="29.11651" lon="-13.46646">
        <ele>32.8</ele>
        <time>2021-07-02 15:46:15</time>
      </trkpt>
      <trkpt lat="29.11656" lon="-13.46645">
        <ele>32.8</ele>
        <time>2021-07-02 15:46:16</time>
      </trkpt>
      <trkpt lat="29.11661" lon="-13.46644">
        <ele>32.4</ele>
        <time>2021-07-02 15:46:17</time>
      </trkpt>
      <trkpt lat="29.11666" lon="-13.46643">
        <ele>32.2</ele>
        <time>2021-07-02 15:46:18</time>
      </trkpt>
      <trkpt lat="29.11671" lon="-13.46642">
        <ele>32</ele>
        <time>2021-07-02 15:46:19</time>
      </trkpt>
      <trkpt lat="29.11677" lon="-13.4664">
        <ele>32</ele>
        <time>2021-07-02 15:46:20</time>
      </trkpt>
      <trkpt lat="29.11682" lon="-13.46639">
        <ele>31.6</ele>
        <time>2021-07-02 15:46:21</time>
      </trkpt>
      <trkpt lat="29.11687" lon="-13.46638">
        <ele>31.6</ele>
        <time>2021-07-02 15:46:22</time>
      </trkpt>
      <trkpt lat="29.11692" lon="-13.46636">
        <ele>31.4</ele>
        <time>2021-07-02 15:46:23</time>
      </trkpt>
      <trkpt lat="29.11697" lon="-13.46636">
        <ele>31.4</ele>
        <time>2021-07-02 15:46:24</time>
      </trkpt>
      <trkpt lat="29.11701" lon="-13.46634">
        <ele>31</ele>
        <time>2021-07-02 15:46:25</time>
      </trkpt>
      <trkpt lat="29.11706" lon="-13.46633">
        <ele>31</ele>
        <time>2021-07-02 15:46:26</time>
      </trkpt>
      <trkpt lat="29.11711" lon="-13.46632">
        <ele>30.8</ele>
        <time>2021-07-02 15:46:27</time>
      </trkpt>
      <trkpt lat="29.11716" lon="-13.46631">
        <ele>30.8</ele>
        <time>2021-07-02 15:46:28</time>
      </trkpt>
      <trkpt lat="29.11721" lon="-13.4663">
        <ele>30.8</ele>
        <time>2021-07-02 15:46:29</time>
      </trkpt>
      <trkpt lat="29.11726" lon="-13.46629">
        <ele>30.8</ele>
        <time>2021-07-02 15:46:30</time>
      </trkpt>
      <trkpt lat="29.11731" lon="-13.46628">
        <ele>30.8</ele>
        <time>2021-07-02 15:46:31</time>
      </trkpt>
      <trkpt lat="29.11736" lon="-13.46627">
        <ele>30.4</ele>
        <time>2021-07-02 15:46:32</time>
      </trkpt>
      <trkpt lat="29.11741" lon="-13.46625">
        <ele>30.4</ele>
        <time>2021-07-02 15:46:33</time>
      </trkpt>
      <trkpt lat="29.11746" lon="-13.46624">
        <ele>30.2</ele>
        <time>2021-07-02 15:46:34</time>
      </trkpt>
      <trkpt lat="29.11751" lon="-13.46623">
        <ele>30.2</ele>
        <time>2021-07-02 15:46:35</time>
      </trkpt>
      <trkpt lat="29.11756" lon="-13.46622">
        <ele>30</ele>
        <time>2021-07-02 15:46:36</time>
      </trkpt>
      <trkpt lat="29.11762" lon="-13.4662">
        <ele>30</ele>
        <time>2021-07-02 15:46:37</time>
      </trkpt>
      <trkpt lat="29.11768" lon="-13.46618">
        <ele>30</ele>
        <time>2021-07-02 15:46:38</time>
      </trkpt>
      <trkpt lat="29.11773" lon="-13.46617">
        <ele>29.8</ele>
        <time>2021-07-02 15:46:39</time>
      </trkpt>
      <trkpt lat="29.11778" lon="-13.46615">
        <ele>29.8</ele>
        <time>2021-07-02 15:46:40</time>
      </trkpt>
      <trkpt lat="29.11783" lon="-13.46614">
        <ele>29.8</ele>
        <time>2021-07-02 15:46:41</time>
      </trkpt>
      <trkpt lat="29.11789" lon="-13.46613">
        <ele>29.8</ele>
        <time>2021-07-02 15:46:42</time>
      </trkpt>
      <trkpt lat="29.11794" lon="-13.46612">
        <ele>29.8</ele>
        <time>2021-07-02 15:46:43</time>
      </trkpt>
      <trkpt lat="29.11799" lon="-13.46611">
        <ele>29.8</ele>
        <time>2021-07-02 15:46:44</time>
      </trkpt>
      <trkpt lat="29.11805" lon="-13.4661">
        <ele>29.6</ele>
        <time>2021-07-02 15:46:45</time>
      </trkpt>
      <trkpt lat="29.1181" lon="-13.46609">
        <ele>29.6</ele>
        <time>2021-07-02 15:46:46</time>
      </trkpt>
      <trkpt lat="29.11816" lon="-13.46608">
        <ele>29.4</ele>
        <time>2021-07-02 15:46:47</time>
      </trkpt>
      <trkpt lat="29.11821" lon="-13.46607">
        <ele>29.4</ele>
        <time>2021-07-02 15:46:48</time>
      </trkpt>
      <trkpt lat="29.11825" lon="-13.46606">
        <ele>29.4</ele>
        <time>2021-07-02 15:46:49</time>
      </trkpt>
      <trkpt lat="29.1183" lon="-13.46604">
        <ele>29.4</ele>
        <time>2021-07-02 15:46:50</time>
      </trkpt>
      <trkpt lat="29.11836" lon="-13.46603">
        <ele>29.4</ele>
        <time>2021-07-02 15:46:51</time>
      </trkpt>
      <trkpt lat="29.11841" lon="-13.46601">
        <ele>29</ele>
        <time>2021-07-02 15:46:52</time>
      </trkpt>
      <trkpt lat="29.11846" lon="-13.466">
        <ele>29</ele>
        <time>2021-07-02 15:46:53</time>
      </trkpt>
      <trkpt lat="29.11851" lon="-13.46599">
        <ele>29</ele>
        <time>2021-07-02 15:46:54</time>
      </trkpt>
      <trkpt lat="29.11856" lon="-13.46598">
        <ele>29</ele>
        <time>2021-07-02 15:46:55</time>
      </trkpt>
      <trkpt lat="29.11862" lon="-13.46597">
        <ele>29</ele>
        <time>2021-07-02 15:46:56</time>
      </trkpt>
      <trkpt lat="29.11867" lon="-13.46595">
        <ele>29</ele>
        <time>2021-07-02 15:46:57</time>
      </trkpt>
      <trkpt lat="29.11872" lon="-13.46594">
        <ele>28.8</ele>
        <time>2021-07-02 15:46:58</time>
      </trkpt>
      <trkpt lat="29.11878" lon="-13.46593">
        <ele>28.8</ele>
        <time>2021-07-02 15:46:59</time>
      </trkpt>
      <trkpt lat="29.11883" lon="-13.46592">
        <ele>28.6</ele>
        <time>2021-07-02 15:47:00</time>
      </trkpt>
      <trkpt lat="29.11888" lon="-13.46591">
        <ele>28.6</ele>
        <time>2021-07-02 15:47:01</time>
      </trkpt>
      <trkpt lat="29.11893" lon="-13.4659">
        <ele>28.2</ele>
        <time>2021-07-02 15:47:02</time>
      </trkpt>
      <trkpt lat="29.11899" lon="-13.46588">
        <ele>28.2</ele>
        <time>2021-07-02 15:47:03</time>
      </trkpt>
      <trkpt lat="29.11904" lon="-13.46587">
        <ele>27.8</ele>
        <time>2021-07-02 15:47:04</time>
      </trkpt>
      <trkpt lat="29.11908" lon="-13.46586">
        <ele>27.6</ele>
        <time>2021-07-02 15:47:05</time>
      </trkpt>
      <trkpt lat="29.11913" lon="-13.46584">
        <ele>27.6</ele>
        <time>2021-07-02 15:47:06</time>
      </trkpt>
      <trkpt lat="29.11918" lon="-13.46583">
        <ele>27.6</ele>
        <time>2021-07-02 15:47:07</time>
      </trkpt>
      <trkpt lat="29.11922" lon="-13.46582">
        <ele>27.2</ele>
        <time>2021-07-02 15:47:08</time>
      </trkpt>
      <trkpt lat="29.11927" lon="-13.46581">
        <ele>27.2</ele>
        <time>2021-07-02 15:47:09</time>
      </trkpt>
      <trkpt lat="29.11931" lon="-13.46581">
        <ele>27.2</ele>
        <time>2021-07-02 15:47:10</time>
      </trkpt>
      <trkpt lat="29.11936" lon="-13.46579">
        <ele>27.2</ele>
        <time>2021-07-02 15:47:11</time>
      </trkpt>
      <trkpt lat="29.1194" lon="-13.46578">
        <ele>26.8</ele>
        <time>2021-07-02 15:47:12</time>
      </trkpt>
      <trkpt lat="29.11944" lon="-13.46577">
        <ele>26.8</ele>
        <time>2021-07-02 15:47:13</time>
      </trkpt>
      <trkpt lat="29.11948" lon="-13.46576">
        <ele>26.8</ele>
        <time>2021-07-02 15:47:14</time>
      </trkpt>
      <trkpt lat="29.11951" lon="-13.46575">
        <ele>26.6</ele>
        <time>2021-07-02 15:47:15</time>
      </trkpt>
      <trkpt lat="29.11954" lon="-13.46574">
        <ele>26.6</ele>
        <time>2021-07-02 15:47:16</time>
      </trkpt>
      <trkpt lat="29.11956" lon="-13.46572">
        <ele>26.2</ele>
        <time>2021-07-02 15:47:17</time>
      </trkpt>
      <trkpt lat="29.11957" lon="-13.4657">
        <ele>26.2</ele>
        <time>2021-07-02 15:47:18</time>
      </trkpt>
      <trkpt lat="29.11958" lon="-13.46567">
        <ele>25</ele>
        <time>2021-07-02 15:47:19</time>
      </trkpt>
      <trkpt lat="29.1196" lon="-13.46565">
        <ele>25</ele>
        <time>2021-07-02 15:47:20</time>
      </trkpt>
      <trkpt lat="29.11962" lon="-13.46565">
        <ele>25.2</ele>
        <time>2021-07-02 15:47:21</time>
      </trkpt>
      <trkpt lat="29.11964" lon="-13.46564">
        <ele>24.8</ele>
        <time>2021-07-02 15:47:22</time>
      </trkpt>
      <trkpt lat="29.11967" lon="-13.46563">
        <ele>24.8</ele>
        <time>2021-07-02 15:47:23</time>
      </trkpt>
      <trkpt lat="29.11971" lon="-13.46562">
        <ele>24.4</ele>
        <time>2021-07-02 15:47:24</time>
      </trkpt>
      <trkpt lat="29.11974" lon="-13.46561">
        <ele>24.2</ele>
        <time>2021-07-02 15:47:25</time>
      </trkpt>
      <trkpt lat="29.11978" lon="-13.46561">
        <ele>24.2</ele>
        <time>2021-07-02 15:47:26</time>
      </trkpt>
      <trkpt lat="29.11981" lon="-13.4656">
        <ele>24.4</ele>
        <time>2021-07-02 15:47:27</time>
      </trkpt>
      <trkpt lat="29.11985" lon="-13.46559">
        <ele>24.8</ele>
        <time>2021-07-02 15:47:28</time>
      </trkpt>
      <trkpt lat="29.11989" lon="-13.46559">
        <ele>24.8</ele>
        <time>2021-07-02 15:47:29</time>
      </trkpt>
      <trkpt lat="29.11993" lon="-13.46558">
        <ele>24.6</ele>
        <time>2021-07-02 15:47:30</time>
      </trkpt>
      <trkpt lat="29.11997" lon="-13.46557">
        <ele>24.8</ele>
        <time>2021-07-02 15:47:31</time>
      </trkpt>
      <trkpt lat="29.12001" lon="-13.46556">
        <ele>24.8</ele>
        <time>2021-07-02 15:47:32</time>
      </trkpt>
      <trkpt lat="29.12005" lon="-13.46556">
        <ele>24.8</ele>
        <time>2021-07-02 15:47:33</time>
      </trkpt>
      <trkpt lat="29.12009" lon="-13.46555">
        <ele>24.8</ele>
        <time>2021-07-02 15:47:34</time>
      </trkpt>
      <trkpt lat="29.12013" lon="-13.46554">
        <ele>24.6</ele>
        <time>2021-07-02 15:47:35</time>
      </trkpt>
      <trkpt lat="29.12018" lon="-13.46554">
        <ele>24.6</ele>
        <time>2021-07-02 15:47:36</time>
      </trkpt>
      <trkpt lat="29.12022" lon="-13.46553">
        <ele>24.6</ele>
        <time>2021-07-02 15:47:37</time>
      </trkpt>
      <trkpt lat="29.12026" lon="-13.46553">
        <ele>24.4</ele>
        <time>2021-07-02 15:47:38</time>
      </trkpt>
      <trkpt lat="29.12029" lon="-13.46552">
        <ele>24.4</ele>
        <time>2021-07-02 15:47:39</time>
      </trkpt>
      <trkpt lat="29.12033" lon="-13.46551">
        <ele>24.4</ele>
        <time>2021-07-02 15:47:40</time>
      </trkpt>
      <trkpt lat="29.12037" lon="-13.4655">
        <ele>24.4</ele>
        <time>2021-07-02 15:47:41</time>
      </trkpt>
      <trkpt lat="29.12041" lon="-13.4655">
        <ele>24.4</ele>
        <time>2021-07-02 15:47:42</time>
      </trkpt>
      <trkpt lat="29.12045" lon="-13.4655">
        <ele>24.4</ele>
        <time>2021-07-02 15:47:43</time>
      </trkpt>
      <trkpt lat="29.12048" lon="-13.46551">
        <ele>23.8</ele>
        <time>2021-07-02 15:47:44</time>
      </trkpt>
      <trkpt lat="29.12052" lon="-13.46552">
        <ele>23.6</ele>
        <time>2021-07-02 15:47:45</time>
      </trkpt>
      <trkpt lat="29.12056" lon="-13.46552">
        <ele>23.6</ele>
        <time>2021-07-02 15:47:46</time>
      </trkpt>
      <trkpt lat="29.1206" lon="-13.46553">
        <ele>23.6</ele>
        <time>2021-07-02 15:47:47</time>
      </trkpt>
      <trkpt lat="29.12063" lon="-13.46554">
        <ele>23.6</ele>
        <time>2021-07-02 15:47:48</time>
      </trkpt>
      <trkpt lat="29.12067" lon="-13.46555">
        <ele>23.2</ele>
        <time>2021-07-02 15:47:49</time>
      </trkpt>
      <trkpt lat="29.12071" lon="-13.46557">
        <ele>23.2</ele>
        <time>2021-07-02 15:47:50</time>
      </trkpt>
      <trkpt lat="29.12074" lon="-13.46559">
        <ele>23.8</ele>
        <time>2021-07-02 15:47:51</time>
      </trkpt>
      <trkpt lat="29.12077" lon="-13.46561">
        <ele>23.8</ele>
        <time>2021-07-02 15:47:52</time>
      </trkpt>
      <trkpt lat="29.1208" lon="-13.46563">
        <ele>23.6</ele>
        <time>2021-07-02 15:47:53</time>
      </trkpt>
      <trkpt lat="29.12083" lon="-13.46566">
        <ele>23.6</ele>
        <time>2021-07-02 15:47:54</time>
      </trkpt>
      <trkpt lat="29.12087" lon="-13.46568">
        <ele>24.4</ele>
        <time>2021-07-02 15:47:55</time>
      </trkpt>
      <trkpt lat="29.1209" lon="-13.46569">
        <ele>23.6</ele>
        <time>2021-07-02 15:47:56</time>
      </trkpt>
      <trkpt lat="29.12094" lon="-13.4657">
        <ele>23.4</ele>
        <time>2021-07-02 15:47:57</time>
      </trkpt>
      <trkpt lat="29.12097" lon="-13.46571">
        <ele>23.4</ele>
        <time>2021-07-02 15:47:58</time>
      </trkpt>
      <trkpt lat="29.12101" lon="-13.46572">
        <ele>23</ele>
        <time>2021-07-02 15:47:59</time>
      </trkpt>
      <trkpt lat="29.12105" lon="-13.46573">
        <ele>22.6</ele>
        <time>2021-07-02 15:48:00</time>
      </trkpt>
      <trkpt lat="29.12108" lon="-13.46574">
        <ele>22.4</ele>
        <time>2021-07-02 15:48:01</time>
      </trkpt>
      <trkpt lat="29.12112" lon="-13.46575">
        <ele>22.8</ele>
        <time>2021-07-02 15:48:02</time>
      </trkpt>
      <trkpt lat="29.12116" lon="-13.46576">
        <ele>23.2</ele>
        <time>2021-07-02 15:48:03</time>
      </trkpt>
      <trkpt lat="29.12119" lon="-13.46577">
        <ele>23</ele>
        <time>2021-07-02 15:48:04</time>
      </trkpt>
      <trkpt lat="29.12123" lon="-13.46578">
        <ele>23</ele>
        <time>2021-07-02 15:48:05</time>
      </trkpt>
      <trkpt lat="29.12127" lon="-13.46579">
        <ele>23.4</ele>
        <time>2021-07-02 15:48:06</time>
      </trkpt>
      <trkpt lat="29.12131" lon="-13.4658">
        <ele>23</ele>
        <time>2021-07-02 15:48:07</time>
      </trkpt>
      <trkpt lat="29.12134" lon="-13.46581">
        <ele>23.4</ele>
        <time>2021-07-02 15:48:08</time>
      </trkpt>
      <trkpt lat="29.12137" lon="-13.46583">
        <ele>23</ele>
        <time>2021-07-02 15:48:09</time>
      </trkpt>
      <trkpt lat="29.1214" lon="-13.46584">
        <ele>23</ele>
        <time>2021-07-02 15:48:10</time>
      </trkpt>
      <trkpt lat="29.12143" lon="-13.46585">
        <ele>22.4</ele>
        <time>2021-07-02 15:48:11</time>
      </trkpt>
      <trkpt lat="29.12146" lon="-13.46586">
        <ele>22.4</ele>
        <time>2021-07-02 15:48:12</time>
      </trkpt>
      <trkpt lat="29.12149" lon="-13.46588">
        <ele>22.4</ele>
        <time>2021-07-02 15:48:13</time>
      </trkpt>
      <trkpt lat="29.12152" lon="-13.46589">
        <ele>23</ele>
        <time>2021-07-02 15:48:14</time>
      </trkpt>
      <trkpt lat="29.12155" lon="-13.46591">
        <ele>23</ele>
        <time>2021-07-02 15:48:15</time>
      </trkpt>
      <trkpt lat="29.12158" lon="-13.46593">
        <ele>23.6</ele>
        <time>2021-07-02 15:48:16</time>
      </trkpt>
      <trkpt lat="29.1216" lon="-13.46596">
        <ele>23.2</ele>
        <time>2021-07-02 15:48:17</time>
      </trkpt>
      <trkpt lat="29.12162" lon="-13.46598">
        <ele>23.2</ele>
        <time>2021-07-02 15:48:18</time>
      </trkpt>
      <trkpt lat="29.12165" lon="-13.46601">
        <ele>23.2</ele>
        <time>2021-07-02 15:48:19</time>
      </trkpt>
      <trkpt lat="29.12167" lon="-13.46603">
        <ele>23.2</ele>
        <time>2021-07-02 15:48:20</time>
      </trkpt>
      <trkpt lat="29.1217" lon="-13.46604">
        <ele>23.2</ele>
        <time>2021-07-02 15:48:21</time>
      </trkpt>
      <trkpt lat="29.12172" lon="-13.46605">
        <ele>23.2</ele>
        <time>2021-07-02 15:48:22</time>
      </trkpt>
      <trkpt lat="29.12174" lon="-13.46606">
        <ele>24.4</ele>
        <time>2021-07-02 15:48:23</time>
      </trkpt>
      <trkpt lat="29.12177" lon="-13.46607">
        <ele>24.2</ele>
        <time>2021-07-02 15:48:24</time>
      </trkpt>
      <trkpt lat="29.12178" lon="-13.46608">
        <ele>24.2</ele>
        <time>2021-07-02 15:48:25</time>
      </trkpt>
      <trkpt lat="29.12181" lon="-13.46609">
        <ele>23.6</ele>
        <time>2021-07-02 15:48:26</time>
      </trkpt>
      <trkpt lat="29.12183" lon="-13.46609">
        <ele>24</ele>
        <time>2021-07-02 15:48:27</time>
      </trkpt>
      <trkpt lat="29.12185" lon="-13.4661">
        <ele>24</ele>
        <time>2021-07-02 15:48:28</time>
      </trkpt>
      <trkpt lat="29.12187" lon="-13.46611">
        <ele>23.4</ele>
        <time>2021-07-02 15:48:29</time>
      </trkpt>
      <trkpt lat="29.12189" lon="-13.46612">
        <ele>23.2</ele>
        <time>2021-07-02 15:48:30</time>
      </trkpt>
      <trkpt lat="29.12192" lon="-13.46613">
        <ele>23</ele>
        <time>2021-07-02 15:48:31</time>
      </trkpt>
      <trkpt lat="29.12194" lon="-13.46615">
        <ele>22.4</ele>
        <time>2021-07-02 15:48:32</time>
      </trkpt>
      <trkpt lat="29.12196" lon="-13.46616">
        <ele>22.4</ele>
        <time>2021-07-02 15:48:33</time>
      </trkpt>
      <trkpt lat="29.12198" lon="-13.46617">
        <ele>22</ele>
        <time>2021-07-02 15:48:34</time>
      </trkpt>
      <trkpt lat="29.12201" lon="-13.46618">
        <ele>22.8</ele>
        <time>2021-07-02 15:48:35</time>
      </trkpt>
      <trkpt lat="29.12204" lon="-13.46619">
        <ele>22.4</ele>
        <time>2021-07-02 15:48:36</time>
      </trkpt>
      <trkpt lat="29.12207" lon="-13.46621">
        <ele>22.8</ele>
        <time>2021-07-02 15:48:37</time>
      </trkpt>
      <trkpt lat="29.1221" lon="-13.46623">
        <ele>22.2</ele>
        <time>2021-07-02 15:48:38</time>
      </trkpt>
      <trkpt lat="29.12213" lon="-13.46626">
        <ele>21.8</ele>
        <time>2021-07-02 15:48:39</time>
      </trkpt>
      <trkpt lat="29.12216" lon="-13.46628">
        <ele>21</ele>
        <time>2021-07-02 15:48:40</time>
      </trkpt>
      <trkpt lat="29.12218" lon="-13.46629">
        <ele>20.8</ele>
        <time>2021-07-02 15:48:41</time>
      </trkpt>
      <trkpt lat="29.12221" lon="-13.46631">
        <ele>20.8</ele>
        <time>2021-07-02 15:48:42</time>
      </trkpt>
      <trkpt lat="29.12224" lon="-13.46634">
        <ele>20.4</ele>
        <time>2021-07-02 15:48:43</time>
      </trkpt>
      <trkpt lat="29.12227" lon="-13.46636">
        <ele>20</ele>
        <time>2021-07-02 15:48:44</time>
      </trkpt>
      <trkpt lat="29.12231" lon="-13.46638">
        <ele>19.6</ele>
        <time>2021-07-02 15:48:45</time>
      </trkpt>
      <trkpt lat="29.12235" lon="-13.4664">
        <ele>19.2</ele>
        <time>2021-07-02 15:48:46</time>
      </trkpt>
      <trkpt lat="29.12238" lon="-13.46643">
        <ele>19.2</ele>
        <time>2021-07-02 15:48:47</time>
      </trkpt>
      <trkpt lat="29.12242" lon="-13.46644">
        <ele>19.2</ele>
        <time>2021-07-02 15:48:48</time>
      </trkpt>
      <trkpt lat="29.12246" lon="-13.46647">
        <ele>19.2</ele>
        <time>2021-07-02 15:48:49</time>
      </trkpt>
      <trkpt lat="29.12249" lon="-13.46649">
        <ele>19</ele>
        <time>2021-07-02 15:48:50</time>
      </trkpt>
      <trkpt lat="29.12252" lon="-13.46651">
        <ele>19</ele>
        <time>2021-07-02 15:48:51</time>
      </trkpt>
      <trkpt lat="29.12256" lon="-13.46654">
        <ele>18.4</ele>
        <time>2021-07-02 15:48:52</time>
      </trkpt>
      <trkpt lat="29.12258" lon="-13.46657">
        <ele>18.4</ele>
        <time>2021-07-02 15:48:53</time>
      </trkpt>
      <trkpt lat="29.12261" lon="-13.46659">
        <ele>18.2</ele>
        <time>2021-07-02 15:48:54</time>
      </trkpt>
      <trkpt lat="29.12265" lon="-13.46661">
        <ele>18</ele>
        <time>2021-07-02 15:48:55</time>
      </trkpt>
      <trkpt lat="29.12268" lon="-13.46662">
        <ele>17.6</ele>
        <time>2021-07-02 15:48:56</time>
      </trkpt>
      <trkpt lat="29.12272" lon="-13.46664">
        <ele>17.6</ele>
        <time>2021-07-02 15:48:57</time>
      </trkpt>
      <trkpt lat="29.12277" lon="-13.46666">
        <ele>17.2</ele>
        <time>2021-07-02 15:48:58</time>
      </trkpt>
      <trkpt lat="29.12281" lon="-13.46668">
        <ele>16.8</ele>
        <time>2021-07-02 15:48:59</time>
      </trkpt>
      <trkpt lat="29.12286" lon="-13.4667">
        <ele>16.8</ele>
        <time>2021-07-02 15:49:00</time>
      </trkpt>
      <trkpt lat="29.1229" lon="-13.46671">
        <ele>16.4</ele>
        <time>2021-07-02 15:49:01</time>
      </trkpt>
      <trkpt lat="29.12295" lon="-13.46672">
        <ele>16.2</ele>
        <time>2021-07-02 15:49:02</time>
      </trkpt>
      <trkpt lat="29.12299" lon="-13.46673">
        <ele>16.2</ele>
        <time>2021-07-02 15:49:03</time>
      </trkpt>
      <trkpt lat="29.12304" lon="-13.46673">
        <ele>15.6</ele>
        <time>2021-07-02 15:49:04</time>
      </trkpt>
      <trkpt lat="29.12308" lon="-13.46674">
        <ele>15.4</ele>
        <time>2021-07-02 15:49:05</time>
      </trkpt>
      <trkpt lat="29.12313" lon="-13.46674">
        <ele>15.4</ele>
        <time>2021-07-02 15:49:06</time>
      </trkpt>
      <trkpt lat="29.12316" lon="-13.46674">
        <ele>15.4</ele>
        <time>2021-07-02 15:49:07</time>
      </trkpt>
      <trkpt lat="29.12317" lon="-13.46675">
        <ele>15</ele>
        <time>2021-07-02 15:49:08</time>
      </trkpt>
      <trkpt lat="29.1232" lon="-13.46675">
        <ele>14.8</ele>
        <time>2021-07-02 15:49:09</time>
      </trkpt>
      <trkpt lat="29.12323" lon="-13.46675">
        <ele>14.8</ele>
        <time>2021-07-02 15:49:10</time>
      </trkpt>
      <trkpt lat="29.12326" lon="-13.46675">
        <ele>14.6</ele>
        <time>2021-07-02 15:49:11</time>
      </trkpt>
      <trkpt lat="29.12329" lon="-13.46676">
        <ele>14.6</ele>
        <time>2021-07-02 15:49:12</time>
      </trkpt>
      <trkpt lat="29.12332" lon="-13.46676">
        <ele>14.6</ele>
        <time>2021-07-02 15:49:13</time>
      </trkpt>
      <trkpt lat="29.12334" lon="-13.46676">
        <ele>14.4</ele>
        <time>2021-07-02 15:49:14</time>
      </trkpt>
      <trkpt lat="29.12336" lon="-13.46675">
        <ele>14.4</ele>
        <time>2021-07-02 15:49:15</time>
      </trkpt>
      <trkpt lat="29.12338" lon="-13.46675">
        <ele>14.4</ele>
        <time>2021-07-02 15:49:16</time>
      </trkpt>
      <trkpt lat="29.1234" lon="-13.46675">
        <ele>14.6</ele>
        <time>2021-07-02 15:49:17</time>
      </trkpt>
      <trkpt lat="29.12341" lon="-13.46675">
        <ele>14.6</ele>
        <time>2021-07-02 15:49:18</time>
      </trkpt>
      <trkpt lat="29.12343" lon="-13.46675">
        <ele>14.6</ele>
        <time>2021-07-02 15:49:19</time>
      </trkpt>
      <trkpt lat="29.12343" lon="-13.46674">
        <ele>14.2</ele>
        <time>2021-07-02 15:49:20</time>
      </trkpt>
      <trkpt lat="29.12344" lon="-13.46674">
        <ele>14.2</ele>
        <time>2021-07-02 15:49:21</time>
      </trkpt>
      <trkpt lat="29.12344" lon="-13.46674">
        <ele>14</ele>
        <time>2021-07-02 15:49:22</time>
      </trkpt>
      <trkpt lat="29.12342" lon="-13.46672">
        <ele>14</ele>
        <time>2021-07-02 15:49:23</time>
      </trkpt>
      <trkpt lat="29.12341" lon="-13.46671">
        <ele>14</ele>
        <time>2021-07-02 15:49:24</time>
      </trkpt>
      <trkpt lat="29.12341" lon="-13.46671">
        <ele>14</ele>
        <time>2021-07-02 15:49:25</time>
      </trkpt>
      <trkpt lat="29.1234" lon="-13.46671">
        <ele>13.6</ele>
        <time>2021-07-02 15:49:26</time>
      </trkpt>
      <trkpt lat="29.12339" lon="-13.46671">
        <ele>13.6</ele>
        <time>2021-07-02 15:49:27</time>
      </trkpt>
      <trkpt lat="29.12338" lon="-13.46671">
        <ele>13.4</ele>
        <time>2021-07-02 15:49:28</time>
      </trkpt>
      <trkpt lat="29.12337" lon="-13.46671">
        <ele>13.4</ele>
        <time>2021-07-02 15:49:29</time>
      </trkpt>
      <trkpt lat="29.12336" lon="-13.46671">
        <ele>13.2</ele>
        <time>2021-07-02 15:49:30</time>
      </trkpt>
      <trkpt lat="29.12336" lon="-13.46671">
        <ele>13.2</ele>
        <time>2021-07-02 15:49:31</time>
      </trkpt>
      <trkpt lat="29.12335" lon="-13.46672">
        <ele>13.2</ele>
        <time>2021-07-02 15:49:32</time>
      </trkpt>
      <trkpt lat="29.12335" lon="-13.46673">
        <ele>13.2</ele>
        <time>2021-07-02 15:49:33</time>
      </trkpt>
      <trkpt lat="29.12334" lon="-13.46674">
        <ele>13.2</ele>
        <time>2021-07-02 15:49:34</time>
      </trkpt>
      <trkpt lat="29.12333" lon="-13.46675">
        <ele>13.2</ele>
        <time>2021-07-02 15:49:35</time>
      </trkpt>
      <trkpt lat="29.12331" lon="-13.46676">
        <ele>13.2</ele>
        <time>2021-07-02 15:49:36</time>
      </trkpt>
      <trkpt lat="29.12329" lon="-13.46676">
        <ele>13.4</ele>
        <time>2021-07-02 15:49:37</time>
      </trkpt>
      <trkpt lat="29.12327" lon="-13.46676">
        <ele>13.4</ele>
        <time>2021-07-02 15:49:38</time>
      </trkpt>
      <trkpt lat="29.12324" lon="-13.46675">
        <ele>13.4</ele>
        <time>2021-07-02 15:49:39</time>
      </trkpt>
      <trkpt lat="29.12321" lon="-13.46675">
        <ele>13.6</ele>
        <time>2021-07-02 15:49:40</time>
      </trkpt>
      <trkpt lat="29.12318" lon="-13.46674">
        <ele>13.6</ele>
        <time>2021-07-02 15:49:41</time>
      </trkpt>
      <trkpt lat="29.12315" lon="-13.46674">
        <ele>13.6</ele>
        <time>2021-07-02 15:49:42</time>
      </trkpt>
      <trkpt lat="29.12313" lon="-13.46674">
        <ele>13.6</ele>
        <time>2021-07-02 15:49:43</time>
      </trkpt>
      <trkpt lat="29.1231" lon="-13.46673">
        <ele>13.2</ele>
        <time>2021-07-02 15:49:44</time>
      </trkpt>
      <trkpt lat="29.12307" lon="-13.46672">
        <ele>13.2</ele>
        <time>2021-07-02 15:49:45</time>
      </trkpt>
      <trkpt lat="29.12306" lon="-13.4667">
        <ele>13.2</ele>
        <time>2021-07-02 15:49:46</time>
      </trkpt>
      <trkpt lat="29.12305" lon="-13.46668">
        <ele>13</ele>
        <time>2021-07-02 15:49:47</time>
      </trkpt>
      <trkpt lat="29.12306" lon="-13.46666">
        <ele>12.8</ele>
        <time>2021-07-02 15:49:48</time>
      </trkpt>
      <trkpt lat="29.12308" lon="-13.46664">
        <ele>12.6</ele>
        <time>2021-07-02 15:49:49</time>
      </trkpt>
      <trkpt lat="29.12311" lon="-13.46662">
        <ele>12.6</ele>
        <time>2021-07-02 15:49:50</time>
      </trkpt>
      <trkpt lat="29.12313" lon="-13.4666">
        <ele>12.6</ele>
        <time>2021-07-02 15:49:51</time>
      </trkpt>
      <trkpt lat="29.12316" lon="-13.46657">
        <ele>12.6</ele>
        <time>2021-07-02 15:49:52</time>
      </trkpt>
      <trkpt lat="29.12318" lon="-13.46653">
        <ele>12.2</ele>
        <time>2021-07-02 15:49:53</time>
      </trkpt>
      <trkpt lat="29.12319" lon="-13.4665">
        <ele>12.2</ele>
        <time>2021-07-02 15:49:54</time>
      </trkpt>
      <trkpt lat="29.12321" lon="-13.46648">
        <ele>13</ele>
        <time>2021-07-02 15:49:55</time>
      </trkpt>
      <trkpt lat="29.12323" lon="-13.46646">
        <ele>12.6</ele>
        <time>2021-07-02 15:49:56</time>
      </trkpt>
      <trkpt lat="29.12324" lon="-13.46643">
        <ele>12.6</ele>
        <time>2021-07-02 15:49:57</time>
      </trkpt>
      <trkpt lat="29.12326" lon="-13.46639">
        <ele>12</ele>
        <time>2021-07-02 15:49:58</time>
      </trkpt>
      <trkpt lat="29.12328" lon="-13.46635">
        <ele>11.4</ele>
        <time>2021-07-02 15:49:59</time>
      </trkpt>
      <trkpt lat="29.12329" lon="-13.4663">
        <ele>11</ele>
        <time>2021-07-02 15:50:00</time>
      </trkpt>
      <trkpt lat="29.1233" lon="-13.46625">
        <ele>10.8</ele>
        <time>2021-07-02 15:50:01</time>
      </trkpt>
      <trkpt lat="29.12331" lon="-13.46621">
        <ele>10.4</ele>
        <time>2021-07-02 15:50:02</time>
      </trkpt>
      <trkpt lat="29.12332" lon="-13.46618">
        <ele>10</ele>
        <time>2021-07-02 15:50:03</time>
      </trkpt>
      <trkpt lat="29.12333" lon="-13.46614">
        <ele>9.4</ele>
        <time>2021-07-02 15:50:04</time>
      </trkpt>
      <trkpt lat="29.12333" lon="-13.4661">
        <ele>9.2</ele>
        <time>2021-07-02 15:50:05</time>
      </trkpt>
      <trkpt lat="29.12334" lon="-13.46608">
        <ele>8.8</ele>
        <time>2021-07-02 15:50:06</time>
      </trkpt>
      <trkpt lat="29.12334" lon="-13.46605">
        <ele>8.4</ele>
        <time>2021-07-02 15:50:07</time>
      </trkpt>
      <trkpt lat="29.12335" lon="-13.46602">
        <ele>8</ele>
        <time>2021-07-02 15:50:08</time>
      </trkpt>
      <trkpt lat="29.12337" lon="-13.46599">
        <ele>7.6</ele>
        <time>2021-07-02 15:50:09</time>
      </trkpt>
      <trkpt lat="29.12339" lon="-13.46596">
        <ele>7.4</ele>
        <time>2021-07-02 15:50:10</time>
      </trkpt>
      <trkpt lat="29.12341" lon="-13.46593">
        <ele>7.4</ele>
        <time>2021-07-02 15:50:11</time>
      </trkpt>
      <trkpt lat="29.12343" lon="-13.46589">
        <ele>7.2</ele>
        <time>2021-07-02 15:50:12</time>
      </trkpt>
      <trkpt lat="29.12345" lon="-13.46586">
        <ele>7.2</ele>
        <time>2021-07-02 15:50:13</time>
      </trkpt>
      <trkpt lat="29.12348" lon="-13.46583">
        <ele>7.2</ele>
        <time>2021-07-02 15:50:14</time>
      </trkpt>
      <trkpt lat="29.12351" lon="-13.4658">
        <ele>7.2</ele>
        <time>2021-07-02 15:50:15</time>
      </trkpt>
      <trkpt lat="29.12354" lon="-13.46577">
        <ele>7.2</ele>
        <time>2021-07-02 15:50:16</time>
      </trkpt>
      <trkpt lat="29.12357" lon="-13.46574">
        <ele>7.2</ele>
        <time>2021-07-02 15:50:17</time>
      </trkpt>
      <trkpt lat="29.1236" lon="-13.46571">
        <ele>7.2</ele>
        <time>2021-07-02 15:50:18</time>
      </trkpt>
      <trkpt lat="29.12363" lon="-13.46569">
        <ele>7.4</ele>
        <time>2021-07-02 15:50:19</time>
      </trkpt>
      <trkpt lat="29.12367" lon="-13.46566">
        <ele>7.4</ele>
        <time>2021-07-02 15:50:20</time>
      </trkpt>
      <trkpt lat="29.1237" lon="-13.46564">
        <ele>7.4</ele>
        <time>2021-07-02 15:50:21</time>
      </trkpt>
      <trkpt lat="29.12374" lon="-13.46562">
        <ele>7.4</ele>
        <time>2021-07-02 15:50:22</time>
      </trkpt>
      <trkpt lat="29.12378" lon="-13.46561">
        <ele>7.4</ele>
        <time>2021-07-02 15:50:23</time>
      </trkpt>
      <trkpt lat="29.12382" lon="-13.4656">
        <ele>7.4</ele>
        <time>2021-07-02 15:50:24</time>
      </trkpt>
      <trkpt lat="29.12386" lon="-13.46559">
        <ele>7.4</ele>
        <time>2021-07-02 15:50:25</time>
      </trkpt>
      <trkpt lat="29.12391" lon="-13.46558">
        <ele>7.2</ele>
        <time>2021-07-02 15:50:28</time>
      </trkpt>
      <trkpt lat="29.12395" lon="-13.46558">
        <ele>7.2</ele>
        <time>2021-07-02 15:50:29</time>
      </trkpt>
      <trkpt lat="29.12399" lon="-13.46558">
        <ele>7.2</ele>
        <time>2021-07-02 15:50:30</time>
      </trkpt>
      <trkpt lat="29.12403" lon="-13.46557">
        <ele>7.2</ele>
        <time>2021-07-02 15:50:31</time>
      </trkpt>
      <trkpt lat="29.12407" lon="-13.46558">
        <ele>7.2</ele>
        <time>2021-07-02 15:50:32</time>
      </trkpt>
      <trkpt lat="29.12411" lon="-13.46558">
        <ele>7.2</ele>
        <time>2021-07-02 15:50:33</time>
      </trkpt>
      <trkpt lat="29.12415" lon="-13.46558">
        <ele>7.2</ele>
        <time>2021-07-02 15:50:34</time>
      </trkpt>
      <trkpt lat="29.12419" lon="-13.46559">
        <ele>7.2</ele>
        <time>2021-07-02 15:50:35</time>
      </trkpt>
      <trkpt lat="29.12423" lon="-13.46559">
        <ele>7.2</ele>
        <time>2021-07-02 15:50:36</time>
      </trkpt>
      <trkpt lat="29.12427" lon="-13.46559">
        <ele>7.2</ele>
        <time>2021-07-02 15:50:37</time>
      </trkpt>
      <trkpt lat="29.12431" lon="-13.46559">
        <ele>7.2</ele>
        <time>2021-07-02 15:50:38</time>
      </trkpt>
      <trkpt lat="29.12435" lon="-13.46558">
        <ele>7.4</ele>
        <time>2021-07-02 15:50:39</time>
      </trkpt>
      <trkpt lat="29.12439" lon="-13.46558">
        <ele>7.4</ele>
        <time>2021-07-02 15:50:40</time>
      </trkpt>
      <trkpt lat="29.12443" lon="-13.46557">
        <ele>7</ele>
        <time>2021-07-02 15:50:41</time>
      </trkpt>
      <trkpt lat="29.12447" lon="-13.46556">
        <ele>7</ele>
        <time>2021-07-02 15:50:42</time>
      </trkpt>
      <trkpt lat="29.12452" lon="-13.46555">
        <ele>7.4</ele>
        <time>2021-07-02 15:50:43</time>
      </trkpt>
      <trkpt lat="29.12455" lon="-13.46554">
        <ele>7.4</ele>
        <time>2021-07-02 15:50:44</time>
      </trkpt>
      <trkpt lat="29.12459" lon="-13.46553">
        <ele>7</ele>
        <time>2021-07-02 15:50:45</time>
      </trkpt>
      <trkpt lat="29.12463" lon="-13.46552">
        <ele>7</ele>
        <time>2021-07-02 15:50:46</time>
      </trkpt>
      <trkpt lat="29.12466" lon="-13.46551">
        <ele>6.8</ele>
        <time>2021-07-02 15:50:47</time>
      </trkpt>
      <trkpt lat="29.1247" lon="-13.4655">
        <ele>6.8</ele>
        <time>2021-07-02 15:50:48</time>
      </trkpt>
      <trkpt lat="29.12474" lon="-13.46549">
        <ele>6.8</ele>
        <time>2021-07-02 15:50:49</time>
      </trkpt>
      <trkpt lat="29.12477" lon="-13.46548">
        <ele>6.8</ele>
        <time>2021-07-02 15:50:50</time>
      </trkpt>
      <trkpt lat="29.12481" lon="-13.46547">
        <ele>6.8</ele>
        <time>2021-07-02 15:50:51</time>
      </trkpt>
      <trkpt lat="29.12485" lon="-13.46547">
        <ele>6.8</ele>
        <time>2021-07-02 15:50:52</time>
      </trkpt>
      <trkpt lat="29.12489" lon="-13.46546">
        <ele>6.8</ele>
        <time>2021-07-02 15:50:53</time>
      </trkpt>
      <trkpt lat="29.12492" lon="-13.46545">
        <ele>6.8</ele>
        <time>2021-07-02 15:50:54</time>
      </trkpt>
      <trkpt lat="29.12496" lon="-13.46544">
        <ele>6.8</ele>
        <time>2021-07-02 15:50:55</time>
      </trkpt>
      <trkpt lat="29.125" lon="-13.46543">
        <ele>6.8</ele>
        <time>2021-07-02 15:50:56</time>
      </trkpt>
      <trkpt lat="29.12504" lon="-13.46542">
        <ele>6.8</ele>
        <time>2021-07-02 15:50:57</time>
      </trkpt>
      <trkpt lat="29.12508" lon="-13.46541">
        <ele>6.8</ele>
        <time>2021-07-02 15:50:58</time>
      </trkpt>
      <trkpt lat="29.12511" lon="-13.4654">
        <ele>6.8</ele>
        <time>2021-07-02 15:50:59</time>
      </trkpt>
      <trkpt lat="29.12515" lon="-13.46538">
        <ele>6.6</ele>
        <time>2021-07-02 15:51:00</time>
      </trkpt>
      <trkpt lat="29.12519" lon="-13.46538">
        <ele>6.6</ele>
        <time>2021-07-02 15:51:01</time>
      </trkpt>
      <trkpt lat="29.12523" lon="-13.46537">
        <ele>6.2</ele>
        <time>2021-07-02 15:51:02</time>
      </trkpt>
      <trkpt lat="29.12526" lon="-13.46536">
        <ele>6.2</ele>
        <time>2021-07-02 15:51:03</time>
      </trkpt>
      <trkpt lat="29.1253" lon="-13.46535">
        <ele>6.2</ele>
        <time>2021-07-02 15:51:04</time>
      </trkpt>
      <trkpt lat="29.12534" lon="-13.46534">
        <ele>6.2</ele>
        <time>2021-07-02 15:51:05</time>
      </trkpt>
      <trkpt lat="29.12537" lon="-13.46533">
        <ele>6.2</ele>
        <time>2021-07-02 15:51:06</time>
      </trkpt>
      <trkpt lat="29.12541" lon="-13.46533">
        <ele>6.2</ele>
        <time>2021-07-02 15:51:07</time>
      </trkpt>
      <trkpt lat="29.12544" lon="-13.46532">
        <ele>6.2</ele>
        <time>2021-07-02 15:51:08</time>
      </trkpt>
      <trkpt lat="29.12548" lon="-13.46532">
        <ele>6.8</ele>
        <time>2021-07-02 15:51:09</time>
      </trkpt>
      <trkpt lat="29.12551" lon="-13.46531">
        <ele>6.8</ele>
        <time>2021-07-02 15:51:10</time>
      </trkpt>
      <trkpt lat="29.12554" lon="-13.46531">
        <ele>6.8</ele>
        <time>2021-07-02 15:51:11</time>
      </trkpt>
      <trkpt lat="29.12558" lon="-13.4653">
        <ele>6.8</ele>
        <time>2021-07-02 15:51:12</time>
      </trkpt>
      <trkpt lat="29.12561" lon="-13.46529">
        <ele>6.8</ele>
        <time>2021-07-02 15:51:13</time>
      </trkpt>
      <trkpt lat="29.12565" lon="-13.46528">
        <ele>6.8</ele>
        <time>2021-07-02 15:51:14</time>
      </trkpt>
      <trkpt lat="29.12568" lon="-13.46527">
        <ele>6.8</ele>
        <time>2021-07-02 15:51:15</time>
      </trkpt>
      <trkpt lat="29.12572" lon="-13.46527">
        <ele>6.8</ele>
        <time>2021-07-02 15:51:16</time>
      </trkpt>
      <trkpt lat="29.12576" lon="-13.46526">
        <ele>6.8</ele>
        <time>2021-07-02 15:51:17</time>
      </trkpt>
      <trkpt lat="29.12579" lon="-13.46525">
        <ele>6.8</ele>
        <time>2021-07-02 15:51:18</time>
      </trkpt>
      <trkpt lat="29.12583" lon="-13.46524">
        <ele>6.8</ele>
        <time>2021-07-02 15:51:19</time>
      </trkpt>
      <trkpt lat="29.12586" lon="-13.46524">
        <ele>6.8</ele>
        <time>2021-07-02 15:51:20</time>
      </trkpt>
      <trkpt lat="29.1259" lon="-13.46523">
        <ele>7</ele>
        <time>2021-07-02 15:51:21</time>
      </trkpt>
      <trkpt lat="29.12593" lon="-13.46522">
        <ele>7</ele>
        <time>2021-07-02 15:51:22</time>
      </trkpt>
      <trkpt lat="29.12597" lon="-13.46521">
        <ele>7.2</ele>
        <time>2021-07-02 15:51:23</time>
      </trkpt>
      <trkpt lat="29.126" lon="-13.4652">
        <ele>7.2</ele>
        <time>2021-07-02 15:51:24</time>
      </trkpt>
      <trkpt lat="29.12604" lon="-13.46519">
        <ele>7.2</ele>
        <time>2021-07-02 15:51:25</time>
      </trkpt>
      <trkpt lat="29.12607" lon="-13.46518">
        <ele>7.2</ele>
        <time>2021-07-02 15:51:26</time>
      </trkpt>
      <trkpt lat="29.12611" lon="-13.46518">
        <ele>7.4</ele>
        <time>2021-07-02 15:51:27</time>
      </trkpt>
      <trkpt lat="29.12614" lon="-13.46517">
        <ele>7.4</ele>
        <time>2021-07-02 15:51:28</time>
      </trkpt>
      <trkpt lat="29.12618" lon="-13.46516">
        <ele>7.4</ele>
        <time>2021-07-02 15:51:29</time>
      </trkpt>
      <trkpt lat="29.12621" lon="-13.46515">
        <ele>7.4</ele>
        <time>2021-07-02 15:51:30</time>
      </trkpt>
      <trkpt lat="29.12625" lon="-13.46515">
        <ele>7.6</ele>
        <time>2021-07-02 15:51:31</time>
      </trkpt>
      <trkpt lat="29.12628" lon="-13.46514">
        <ele>7.6</ele>
        <time>2021-07-02 15:51:32</time>
      </trkpt>
      <trkpt lat="29.12631" lon="-13.46513">
        <ele>7.6</ele>
        <time>2021-07-02 15:51:33</time>
      </trkpt>
      <trkpt lat="29.12635" lon="-13.46512">
        <ele>7.6</ele>
        <time>2021-07-02 15:51:34</time>
      </trkpt>
      <trkpt lat="29.12638" lon="-13.46511">
        <ele>7.6</ele>
        <time>2021-07-02 15:51:35</time>
      </trkpt>
      <trkpt lat="29.12641" lon="-13.4651">
        <ele>7.6</ele>
        <time>2021-07-02 15:51:36</time>
      </trkpt>
      <trkpt lat="29.12644" lon="-13.46509">
        <ele>7.6</ele>
        <time>2021-07-02 15:51:37</time>
      </trkpt>
      <trkpt lat="29.12647" lon="-13.46508">
        <ele>7.6</ele>
        <time>2021-07-02 15:51:38</time>
      </trkpt>
      <trkpt lat="29.1265" lon="-13.46507">
        <ele>8.2</ele>
        <time>2021-07-02 15:51:39</time>
      </trkpt>
      <trkpt lat="29.12653" lon="-13.46507">
        <ele>7.8</ele>
        <time>2021-07-02 15:51:40</time>
      </trkpt>
      <trkpt lat="29.12656" lon="-13.46506">
        <ele>7.2</ele>
        <time>2021-07-02 15:51:41</time>
      </trkpt>
      <trkpt lat="29.12659" lon="-13.46505">
        <ele>6.6</ele>
        <time>2021-07-02 15:51:42</time>
      </trkpt>
      <trkpt lat="29.12662" lon="-13.46502">
        <ele>6.2</ele>
        <time>2021-07-02 15:51:43</time>
      </trkpt>
      <trkpt lat="29.12664" lon="-13.465">
        <ele>6</ele>
        <time>2021-07-02 15:51:44</time>
      </trkpt>
      <trkpt lat="29.12667" lon="-13.46497">
        <ele>5.6</ele>
        <time>2021-07-02 15:51:45</time>
      </trkpt>
      <trkpt lat="29.1267" lon="-13.46495">
        <ele>5.6</ele>
        <time>2021-07-02 15:51:46</time>
      </trkpt>
      <trkpt lat="29.12673" lon="-13.46494">
        <ele>5.6</ele>
        <time>2021-07-02 15:51:47</time>
      </trkpt>
      <trkpt lat="29.12676" lon="-13.46493">
        <ele>5.6</ele>
        <time>2021-07-02 15:51:48</time>
      </trkpt>
      <trkpt lat="29.12679" lon="-13.46492">
        <ele>5.2</ele>
        <time>2021-07-02 15:51:49</time>
      </trkpt>
      <trkpt lat="29.12683" lon="-13.46492">
        <ele>5</ele>
        <time>2021-07-02 15:51:50</time>
      </trkpt>
      <trkpt lat="29.12686" lon="-13.46492">
        <ele>5</ele>
        <time>2021-07-02 15:51:51</time>
      </trkpt>
      <trkpt lat="29.1269" lon="-13.46492">
        <ele>4.8</ele>
        <time>2021-07-02 15:51:52</time>
      </trkpt>
      <trkpt lat="29.12694" lon="-13.46492">
        <ele>4.8</ele>
        <time>2021-07-02 15:51:53</time>
      </trkpt>
      <trkpt lat="29.12697" lon="-13.46493">
        <ele>4.8</ele>
        <time>2021-07-02 15:51:54</time>
      </trkpt>
      <trkpt lat="29.12701" lon="-13.46493">
        <ele>4.8</ele>
        <time>2021-07-02 15:51:55</time>
      </trkpt>
      <trkpt lat="29.12705" lon="-13.46494">
        <ele>4.8</ele>
        <time>2021-07-02 15:51:56</time>
      </trkpt>
      <trkpt lat="29.12708" lon="-13.46494">
        <ele>4.8</ele>
        <time>2021-07-02 15:51:57</time>
      </trkpt>
      <trkpt lat="29.12712" lon="-13.46495">
        <ele>4.4</ele>
        <time>2021-07-02 15:51:58</time>
      </trkpt>
      <trkpt lat="29.12715" lon="-13.46495">
        <ele>4.4</ele>
        <time>2021-07-02 15:51:59</time>
      </trkpt>
      <trkpt lat="29.12719" lon="-13.46496">
        <ele>4.4</ele>
        <time>2021-07-02 15:52:00</time>
      </trkpt>
      <trkpt lat="29.12723" lon="-13.46496">
        <ele>5.6</ele>
        <time>2021-07-02 15:52:01</time>
      </trkpt>
      <trkpt lat="29.12727" lon="-13.46497">
        <ele>5.6</ele>
        <time>2021-07-02 15:52:02</time>
      </trkpt>
      <trkpt lat="29.1273" lon="-13.46497">
        <ele>5.2</ele>
        <time>2021-07-02 15:52:03</time>
      </trkpt>
      <trkpt lat="29.12734" lon="-13.46498">
        <ele>5.2</ele>
        <time>2021-07-02 15:52:04</time>
      </trkpt>
      <trkpt lat="29.12738" lon="-13.46498">
        <ele>5</ele>
        <time>2021-07-02 15:52:05</time>
      </trkpt>
      <trkpt lat="29.12742" lon="-13.46499">
        <ele>5.2</ele>
        <time>2021-07-02 15:52:06</time>
      </trkpt>
      <trkpt lat="29.12746" lon="-13.465">
        <ele>5.2</ele>
        <time>2021-07-02 15:52:07</time>
      </trkpt>
      <trkpt lat="29.12749" lon="-13.465">
        <ele>5.6</ele>
        <time>2021-07-02 15:52:08</time>
      </trkpt>
      <trkpt lat="29.12753" lon="-13.465">
        <ele>5.4</ele>
        <time>2021-07-02 15:52:09</time>
      </trkpt>
      <trkpt lat="29.12756" lon="-13.465">
        <ele>5</ele>
        <time>2021-07-02 15:52:10</time>
      </trkpt>
      <trkpt lat="29.1276" lon="-13.46499">
        <ele>4.8</ele>
        <time>2021-07-02 15:52:11</time>
      </trkpt>
      <trkpt lat="29.12764" lon="-13.46499">
        <ele>5.2</ele>
        <time>2021-07-02 15:52:12</time>
      </trkpt>
      <trkpt lat="29.12767" lon="-13.46499">
        <ele>5.2</ele>
        <time>2021-07-02 15:52:13</time>
      </trkpt>
      <trkpt lat="29.1277" lon="-13.46499">
        <ele>4.8</ele>
        <time>2021-07-02 15:52:14</time>
      </trkpt>
      <trkpt lat="29.12774" lon="-13.46498">
        <ele>4.8</ele>
        <time>2021-07-02 15:52:15</time>
      </trkpt>
      <trkpt lat="29.12777" lon="-13.46498">
        <ele>4.8</ele>
        <time>2021-07-02 15:52:16</time>
      </trkpt>
      <trkpt lat="29.12781" lon="-13.46497">
        <ele>4.8</ele>
        <time>2021-07-02 15:52:17</time>
      </trkpt>
      <trkpt lat="29.12784" lon="-13.46497">
        <ele>4.8</ele>
        <time>2021-07-02 15:52:18</time>
      </trkpt>
      <trkpt lat="29.12787" lon="-13.46496">
        <ele>4.8</ele>
        <time>2021-07-02 15:52:19</time>
      </trkpt>
      <trkpt lat="29.1279" lon="-13.46496">
        <ele>4.8</ele>
        <time>2021-07-02 15:52:20</time>
      </trkpt>
      <trkpt lat="29.12793" lon="-13.46495">
        <ele>4.8</ele>
        <time>2021-07-02 15:52:21</time>
      </trkpt>
      <trkpt lat="29.12796" lon="-13.46496">
        <ele>4.8</ele>
        <time>2021-07-02 15:52:22</time>
      </trkpt>
      <trkpt lat="29.12799" lon="-13.46496">
        <ele>4.8</ele>
        <time>2021-07-02 15:52:23</time>
      </trkpt>
      <trkpt lat="29.12801" lon="-13.46497">
        <ele>4.8</ele>
        <time>2021-07-02 15:52:24</time>
      </trkpt>
      <trkpt lat="29.12802" lon="-13.46498">
        <ele>4.6</ele>
        <time>2021-07-02 15:52:25</time>
      </trkpt>
      <trkpt lat="29.12803" lon="-13.46498">
        <ele>4.6</ele>
        <time>2021-07-02 15:52:26</time>
      </trkpt>
      <trkpt lat="29.12804" lon="-13.46499">
        <ele>4.2</ele>
        <time>2021-07-02 15:52:27</time>
      </trkpt>
      <trkpt lat="29.12805" lon="-13.46499">
        <ele>4.2</ele>
        <time>2021-07-02 15:52:28</time>
      </trkpt>
      <trkpt lat="29.12806" lon="-13.465">
        <ele>4.2</ele>
        <time>2021-07-02 15:52:29</time>
      </trkpt>
      <trkpt lat="29.12807" lon="-13.46501">
        <ele>4</ele>
        <time>2021-07-02 15:52:30</time>
      </trkpt>
      <trkpt lat="29.12808" lon="-13.46502">
        <ele>4</ele>
        <time>2021-07-02 15:52:31</time>
      </trkpt>
      <trkpt lat="29.12809" lon="-13.46503">
        <ele>4</ele>
        <time>2021-07-02 15:52:32</time>
      </trkpt>
      <trkpt lat="29.1281" lon="-13.46504">
        <ele>4</ele>
        <time>2021-07-02 15:52:33</time>
      </trkpt>
      <trkpt lat="29.12812" lon="-13.46506">
        <ele>4</ele>
        <time>2021-07-02 15:52:34</time>
      </trkpt>
      <trkpt lat="29.12813" lon="-13.46511">
        <ele>4</ele>
        <time>2021-07-02 15:52:35</time>
      </trkpt>
      <trkpt lat="29.12817" lon="-13.46514">
        <ele>4</ele>
        <time>2021-07-02 15:52:36</time>
      </trkpt>
      <trkpt lat="29.12819" lon="-13.46518">
        <ele>4</ele>
        <time>2021-07-02 15:52:37</time>
      </trkpt>
      <trkpt lat="29.12822" lon="-13.46521">
        <ele>3.6</ele>
        <time>2021-07-02 15:52:38</time>
      </trkpt>
      <trkpt lat="29.12824" lon="-13.46523">
        <ele>3.6</ele>
        <time>2021-07-02 15:52:39</time>
      </trkpt>
      <trkpt lat="29.12826" lon="-13.46526">
        <ele>3.2</ele>
        <time>2021-07-02 15:52:40</time>
      </trkpt>
      <trkpt lat="29.12827" lon="-13.46528">
        <ele>3</ele>
        <time>2021-07-02 15:52:41</time>
      </trkpt>
      <trkpt lat="29.12829" lon="-13.4653">
        <ele>3</ele>
        <time>2021-07-02 15:52:42</time>
      </trkpt>
      <trkpt lat="29.12829" lon="-13.46533">
        <ele>3</ele>
        <time>2021-07-02 15:52:43</time>
      </trkpt>
      <trkpt lat="29.1283" lon="-13.46533">
        <ele>3</ele>
        <time>2021-07-02 15:52:44</time>
      </trkpt>
      <trkpt lat="29.12831" lon="-13.46535">
        <ele>3</ele>
        <time>2021-07-02 15:52:45</time>
      </trkpt>
      <trkpt lat="29.12831" lon="-13.46537">
        <ele>3.4</ele>
        <time>2021-07-02 15:52:46</time>
      </trkpt>
      <trkpt lat="29.1283" lon="-13.46539">
        <ele>3.4</ele>
        <time>2021-07-02 15:52:47</time>
      </trkpt>
      <trkpt lat="29.12829" lon="-13.46541">
        <ele>3.8</ele>
        <time>2021-07-02 15:52:48</time>
      </trkpt>
      <trkpt lat="29.12828" lon="-13.46544">
        <ele>3.8</ele>
        <time>2021-07-02 15:52:49</time>
      </trkpt>
      <trkpt lat="29.12827" lon="-13.46547">
        <ele>3.8</ele>
        <time>2021-07-02 15:52:50</time>
      </trkpt>
      <trkpt lat="29.12827" lon="-13.4655">
        <ele>5</ele>
        <time>2021-07-02 15:52:51</time>
      </trkpt>
      <trkpt lat="29.12826" lon="-13.46552">
        <ele>5</ele>
        <time>2021-07-02 15:52:52</time>
      </trkpt>
      <trkpt lat="29.12826" lon="-13.46555">
        <ele>4.8</ele>
        <time>2021-07-02 15:52:53</time>
      </trkpt>
      <trkpt lat="29.12826" lon="-13.46558">
        <ele>4.8</ele>
        <time>2021-07-02 15:52:54</time>
      </trkpt>
      <trkpt lat="29.12827" lon="-13.46561">
        <ele>4.8</ele>
        <time>2021-07-02 15:52:55</time>
      </trkpt>
      <trkpt lat="29.12827" lon="-13.46564">
        <ele>4.8</ele>
        <time>2021-07-02 15:52:56</time>
      </trkpt>
      <trkpt lat="29.12827" lon="-13.46567">
        <ele>5.2</ele>
        <time>2021-07-02 15:52:57</time>
      </trkpt>
      <trkpt lat="29.12828" lon="-13.46571">
        <ele>5.2</ele>
        <time>2021-07-02 15:52:58</time>
      </trkpt>
      <trkpt lat="29.12828" lon="-13.46574">
        <ele>5.4</ele>
        <time>2021-07-02 15:52:59</time>
      </trkpt>
      <trkpt lat="29.12828" lon="-13.46578">
        <ele>5.4</ele>
        <time>2021-07-02 15:53:00</time>
      </trkpt>
      <trkpt lat="29.12828" lon="-13.46581">
        <ele>5.6</ele>
        <time>2021-07-02 15:53:01</time>
      </trkpt>
      <trkpt lat="29.12828" lon="-13.46584">
        <ele>5.6</ele>
        <time>2021-07-02 15:53:02</time>
      </trkpt>
      <trkpt lat="29.12828" lon="-13.46587">
        <ele>6</ele>
        <time>2021-07-02 15:53:03</time>
      </trkpt>
      <trkpt lat="29.12828" lon="-13.4659">
        <ele>6.2</ele>
        <time>2021-07-02 15:53:04</time>
      </trkpt>
      <trkpt lat="29.12828" lon="-13.46593">
        <ele>6.2</ele>
        <time>2021-07-02 15:53:05</time>
      </trkpt>
      <trkpt lat="29.12828" lon="-13.46596">
        <ele>6.4</ele>
        <time>2021-07-02 15:53:06</time>
      </trkpt>
      <trkpt lat="29.12828" lon="-13.466">
        <ele>6.6</ele>
        <time>2021-07-02 15:53:07</time>
      </trkpt>
      <trkpt lat="29.12829" lon="-13.46603">
        <ele>6.6</ele>
        <time>2021-07-02 15:53:08</time>
      </trkpt>
      <trkpt lat="29.12829" lon="-13.46606">
        <ele>7</ele>
        <time>2021-07-02 15:53:09</time>
      </trkpt>
      <trkpt lat="29.12829" lon="-13.46609">
        <ele>7</ele>
        <time>2021-07-02 15:53:10</time>
      </trkpt>
      <trkpt lat="29.1283" lon="-13.46612">
        <ele>7.4</ele>
        <time>2021-07-02 15:53:11</time>
      </trkpt>
      <trkpt lat="29.1283" lon="-13.46615">
        <ele>7.6</ele>
        <time>2021-07-02 15:53:12</time>
      </trkpt>
      <trkpt lat="29.12832" lon="-13.46616">
        <ele>7.6</ele>
        <time>2021-07-02 15:53:13</time>
      </trkpt>
      <trkpt lat="29.12834" lon="-13.46618">
        <ele>7.6</ele>
        <time>2021-07-02 15:53:14</time>
      </trkpt>
      <trkpt lat="29.12837" lon="-13.46618">
        <ele>7.6</ele>
        <time>2021-07-02 15:53:15</time>
      </trkpt>
      <trkpt lat="29.1284" lon="-13.46618">
        <ele>7.6</ele>
        <time>2021-07-02 15:53:16</time>
      </trkpt>
      <trkpt lat="29.12842" lon="-13.46616">
        <ele>7.6</ele>
        <time>2021-07-02 15:53:17</time>
      </trkpt>
      <trkpt lat="29.12844" lon="-13.46613">
        <ele>7.6</ele>
        <time>2021-07-02 15:53:18</time>
      </trkpt>
      <trkpt lat="29.12846" lon="-13.46611">
        <ele>7.6</ele>
        <time>2021-07-02 15:53:19</time>
      </trkpt>
      <trkpt lat="29.1285" lon="-13.46609">
        <ele>7.6</ele>
        <time>2021-07-02 15:53:20</time>
      </trkpt>
      <trkpt lat="29.12854" lon="-13.46608">
        <ele>7.6</ele>
        <time>2021-07-02 15:53:21</time>
      </trkpt>
      <trkpt lat="29.12857" lon="-13.46609">
        <ele>7.6</ele>
        <time>2021-07-02 15:53:22</time>
      </trkpt>
      <trkpt lat="29.12861" lon="-13.46609">
        <ele>7.6</ele>
        <time>2021-07-02 15:53:23</time>
      </trkpt>
      <trkpt lat="29.12864" lon="-13.46608">
        <ele>7.6</ele>
        <time>2021-07-02 15:53:24</time>
      </trkpt>
      <trkpt lat="29.12867" lon="-13.46608">
        <ele>7.6</ele>
        <time>2021-07-02 15:53:25</time>
      </trkpt>
      <trkpt lat="29.1287" lon="-13.46607">
        <ele>7.6</ele>
        <time>2021-07-02 15:53:26</time>
      </trkpt>
      <trkpt lat="29.12874" lon="-13.46606">
        <ele>7.4</ele>
        <time>2021-07-02 15:53:27</time>
      </trkpt>
      <trkpt lat="29.12877" lon="-13.46606">
        <ele>7.4</ele>
        <time>2021-07-02 15:53:28</time>
      </trkpt>
      <trkpt lat="29.1288" lon="-13.46605">
        <ele>7.8</ele>
        <time>2021-07-02 15:53:29</time>
      </trkpt>
      <trkpt lat="29.12885" lon="-13.46603">
        <ele>7.8</ele>
        <time>2021-07-02 15:53:30</time>
      </trkpt>
      <trkpt lat="29.12887" lon="-13.46602">
        <ele>7.8</ele>
        <time>2021-07-02 15:53:31</time>
      </trkpt>
      <trkpt lat="29.12891" lon="-13.46602">
        <ele>7.8</ele>
        <time>2021-07-02 15:53:32</time>
      </trkpt>
      <trkpt lat="29.12895" lon="-13.46601">
        <ele>7.8</ele>
        <time>2021-07-02 15:53:33</time>
      </trkpt>
      <trkpt lat="29.12899" lon="-13.466">
        <ele>7.8</ele>
        <time>2021-07-02 15:53:34</time>
      </trkpt>
      <trkpt lat="29.12902" lon="-13.466">
        <ele>7.8</ele>
        <time>2021-07-02 15:53:35</time>
      </trkpt>
      <trkpt lat="29.12906" lon="-13.46599">
        <ele>7.8</ele>
        <time>2021-07-02 15:53:36</time>
      </trkpt>
      <trkpt lat="29.1291" lon="-13.46599">
        <ele>7.8</ele>
        <time>2021-07-02 15:53:37</time>
      </trkpt>
      <trkpt lat="29.12914" lon="-13.46598">
        <ele>7.8</ele>
        <time>2021-07-02 15:53:38</time>
      </trkpt>
      <trkpt lat="29.12917" lon="-13.46597">
        <ele>7.8</ele>
        <time>2021-07-02 15:53:39</time>
      </trkpt>
      <trkpt lat="29.12921" lon="-13.46596">
        <ele>7.8</ele>
        <time>2021-07-02 15:53:40</time>
      </trkpt>
      <trkpt lat="29.12924" lon="-13.46594">
        <ele>7.8</ele>
        <time>2021-07-02 15:53:41</time>
      </trkpt>
      <trkpt lat="29.12928" lon="-13.46592">
        <ele>7.8</ele>
        <time>2021-07-02 15:53:42</time>
      </trkpt>
      <trkpt lat="29.12932" lon="-13.4659">
        <ele>7.8</ele>
        <time>2021-07-02 15:53:43</time>
      </trkpt>
      <trkpt lat="29.12935" lon="-13.46588">
        <ele>8</ele>
        <time>2021-07-02 15:53:44</time>
      </trkpt>
      <trkpt lat="29.12938" lon="-13.46586">
        <ele>8</ele>
        <time>2021-07-02 15:53:45</time>
      </trkpt>
      <trkpt lat="29.12942" lon="-13.46584">
        <ele>7.8</ele>
        <time>2021-07-02 15:53:46</time>
      </trkpt>
      <trkpt lat="29.12945" lon="-13.46583">
        <ele>7.8</ele>
        <time>2021-07-02 15:53:47</time>
      </trkpt>
      <trkpt lat="29.12947" lon="-13.46582">
        <ele>7.8</ele>
        <time>2021-07-02 15:53:48</time>
      </trkpt>
      <trkpt lat="29.12951" lon="-13.46581">
        <ele>7.8</ele>
        <time>2021-07-02 15:53:49</time>
      </trkpt>
      <trkpt lat="29.12955" lon="-13.46579">
        <ele>7.8</ele>
        <time>2021-07-02 15:53:50</time>
      </trkpt>
      <trkpt lat="29.12958" lon="-13.46579">
        <ele>7.8</ele>
        <time>2021-07-02 15:53:51</time>
      </trkpt>
      <trkpt lat="29.12961" lon="-13.46578">
        <ele>7.8</ele>
        <time>2021-07-02 15:53:52</time>
      </trkpt>
      <trkpt lat="29.12964" lon="-13.46577">
        <ele>7.8</ele>
        <time>2021-07-02 15:53:53</time>
      </trkpt>
      <trkpt lat="29.12968" lon="-13.46576">
        <ele>7.8</ele>
        <time>2021-07-02 15:53:54</time>
      </trkpt>
      <trkpt lat="29.12972" lon="-13.46575">
        <ele>7.8</ele>
        <time>2021-07-02 15:53:55</time>
      </trkpt>
      <trkpt lat="29.12976" lon="-13.46574">
        <ele>7.8</ele>
        <time>2021-07-02 15:53:56</time>
      </trkpt>
      <trkpt lat="29.1298" lon="-13.46573">
        <ele>7.8</ele>
        <time>2021-07-02 15:53:57</time>
      </trkpt>
      <trkpt lat="29.12983" lon="-13.46572">
        <ele>7.8</ele>
        <time>2021-07-02 15:53:58</time>
      </trkpt>
      <trkpt lat="29.12987" lon="-13.4657">
        <ele>7.8</ele>
        <time>2021-07-02 15:53:59</time>
      </trkpt>
      <trkpt lat="29.12991" lon="-13.46569">
        <ele>7.8</ele>
        <time>2021-07-02 15:54:00</time>
      </trkpt>
      <trkpt lat="29.12995" lon="-13.46567">
        <ele>7.8</ele>
        <time>2021-07-02 15:54:01</time>
      </trkpt>
      <trkpt lat="29.12999" lon="-13.46565">
        <ele>7.8</ele>
        <time>2021-07-02 15:54:02</time>
      </trkpt>
      <trkpt lat="29.13003" lon="-13.46564">
        <ele>7.8</ele>
        <time>2021-07-02 15:54:03</time>
      </trkpt>
      <trkpt lat="29.13006" lon="-13.46562">
        <ele>8</ele>
        <time>2021-07-02 15:54:04</time>
      </trkpt>
      <trkpt lat="29.1301" lon="-13.4656">
        <ele>8</ele>
        <time>2021-07-02 15:54:05</time>
      </trkpt>
      <trkpt lat="29.13013" lon="-13.46558">
        <ele>8</ele>
        <time>2021-07-02 15:54:06</time>
      </trkpt>
      <trkpt lat="29.13017" lon="-13.46557">
        <ele>8</ele>
        <time>2021-07-02 15:54:07</time>
      </trkpt>
      <trkpt lat="29.1302" lon="-13.46555">
        <ele>8</ele>
        <time>2021-07-02 15:54:08</time>
      </trkpt>
      <trkpt lat="29.13023" lon="-13.46553">
        <ele>8</ele>
        <time>2021-07-02 15:54:09</time>
      </trkpt>
      <trkpt lat="29.13028" lon="-13.46552">
        <ele>8.4</ele>
        <time>2021-07-02 15:54:10</time>
      </trkpt>
      <trkpt lat="29.1303" lon="-13.46551">
        <ele>8.4</ele>
        <time>2021-07-02 15:54:11</time>
      </trkpt>
      <trkpt lat="29.13033" lon="-13.4655">
        <ele>8.2</ele>
        <time>2021-07-02 15:54:12</time>
      </trkpt>
      <trkpt lat="29.13037" lon="-13.4655">
        <ele>8.2</ele>
        <time>2021-07-02 15:54:13</time>
      </trkpt>
      <trkpt lat="29.13039" lon="-13.4655">
        <ele>8.2</ele>
        <time>2021-07-02 15:54:14</time>
      </trkpt>
      <trkpt lat="29.13043" lon="-13.46549">
        <ele>8.2</ele>
        <time>2021-07-02 15:54:15</time>
      </trkpt>
      <trkpt lat="29.13046" lon="-13.46549">
        <ele>8.2</ele>
        <time>2021-07-02 15:54:16</time>
      </trkpt>
      <trkpt lat="29.13049" lon="-13.46548">
        <ele>8.2</ele>
        <time>2021-07-02 15:54:17</time>
      </trkpt>
      <trkpt lat="29.13052" lon="-13.46548">
        <ele>8.2</ele>
        <time>2021-07-02 15:54:18</time>
      </trkpt>
      <trkpt lat="29.13055" lon="-13.46546">
        <ele>8.2</ele>
        <time>2021-07-02 15:54:19</time>
      </trkpt>
      <trkpt lat="29.13058" lon="-13.46545">
        <ele>8.2</ele>
        <time>2021-07-02 15:54:20</time>
      </trkpt>
      <trkpt lat="29.13061" lon="-13.46543">
        <ele>8.2</ele>
        <time>2021-07-02 15:54:21</time>
      </trkpt>
      <trkpt lat="29.13064" lon="-13.46542">
        <ele>8.2</ele>
        <time>2021-07-02 15:54:22</time>
      </trkpt>
      <trkpt lat="29.13067" lon="-13.4654">
        <ele>8.2</ele>
        <time>2021-07-02 15:54:23</time>
      </trkpt>
      <trkpt lat="29.1307" lon="-13.46538">
        <ele>8.2</ele>
        <time>2021-07-02 15:54:24</time>
      </trkpt>
      <trkpt lat="29.13073" lon="-13.46537">
        <ele>8.2</ele>
        <time>2021-07-02 15:54:25</time>
      </trkpt>
      <trkpt lat="29.13075" lon="-13.46535">
        <ele>8.2</ele>
        <time>2021-07-02 15:54:26</time>
      </trkpt>
      <trkpt lat="29.13077" lon="-13.46534">
        <ele>8.2</ele>
        <time>2021-07-02 15:54:27</time>
      </trkpt>
      <trkpt lat="29.1308" lon="-13.46532">
        <ele>8.4</ele>
        <time>2021-07-02 15:54:28</time>
      </trkpt>
      <trkpt lat="29.13082" lon="-13.4653">
        <ele>8.4</ele>
        <time>2021-07-02 15:54:29</time>
      </trkpt>
      <trkpt lat="29.13085" lon="-13.46529">
        <ele>8.4</ele>
        <time>2021-07-02 15:54:30</time>
      </trkpt>
      <trkpt lat="29.13087" lon="-13.46527">
        <ele>8.6</ele>
        <time>2021-07-02 15:54:31</time>
      </trkpt>
      <trkpt lat="29.1309" lon="-13.46526">
        <ele>8.6</ele>
        <time>2021-07-02 15:54:32</time>
      </trkpt>
      <trkpt lat="29.13093" lon="-13.46524">
        <ele>8.6</ele>
        <time>2021-07-02 15:54:33</time>
      </trkpt>
      <trkpt lat="29.13095" lon="-13.46524">
        <ele>8.6</ele>
        <time>2021-07-02 15:54:34</time>
      </trkpt>
      <trkpt lat="29.13098" lon="-13.46522">
        <ele>9</ele>
        <time>2021-07-02 15:54:35</time>
      </trkpt>
      <trkpt lat="29.131" lon="-13.46521">
        <ele>9</ele>
        <time>2021-07-02 15:54:36</time>
      </trkpt>
      <trkpt lat="29.13103" lon="-13.4652">
        <ele>9</ele>
        <time>2021-07-02 15:54:37</time>
      </trkpt>
      <trkpt lat="29.13107" lon="-13.46519">
        <ele>9</ele>
        <time>2021-07-02 15:54:38</time>
      </trkpt>
      <trkpt lat="29.1311" lon="-13.46518">
        <ele>9.4</ele>
        <time>2021-07-02 15:54:39</time>
      </trkpt>
      <trkpt lat="29.13112" lon="-13.46517">
        <ele>9.4</ele>
        <time>2021-07-02 15:54:40</time>
      </trkpt>
      <trkpt lat="29.13115" lon="-13.46516">
        <ele>9.6</ele>
        <time>2021-07-02 15:54:41</time>
      </trkpt>
      <trkpt lat="29.13119" lon="-13.46515">
        <ele>9.6</ele>
        <time>2021-07-02 15:54:42</time>
      </trkpt>
      <trkpt lat="29.13122" lon="-13.46513">
        <ele>9.8</ele>
        <time>2021-07-02 15:54:43</time>
      </trkpt>
      <trkpt lat="29.13125" lon="-13.46512">
        <ele>9.8</ele>
        <time>2021-07-02 15:54:44</time>
      </trkpt>
      <trkpt lat="29.13127" lon="-13.46511">
        <ele>9.8</ele>
        <time>2021-07-02 15:54:45</time>
      </trkpt>
      <trkpt lat="29.1313" lon="-13.4651">
        <ele>10</ele>
        <time>2021-07-02 15:54:46</time>
      </trkpt>
      <trkpt lat="29.13133" lon="-13.46509">
        <ele>10</ele>
        <time>2021-07-02 15:54:47</time>
      </trkpt>
      <trkpt lat="29.13136" lon="-13.46509">
        <ele>10.4</ele>
        <time>2021-07-02 15:54:48</time>
      </trkpt>
      <trkpt lat="29.13138" lon="-13.46508">
        <ele>10.4</ele>
        <time>2021-07-02 15:54:49</time>
      </trkpt>
      <trkpt lat="29.1314" lon="-13.46507">
        <ele>11</ele>
        <time>2021-07-02 15:54:50</time>
      </trkpt>
      <trkpt lat="29.13142" lon="-13.46507">
        <ele>11</ele>
        <time>2021-07-02 15:54:51</time>
      </trkpt>
      <trkpt lat="29.13144" lon="-13.46506">
        <ele>10.8</ele>
        <time>2021-07-02 15:54:52</time>
      </trkpt>
      <trkpt lat="29.13145" lon="-13.46506">
        <ele>10.8</ele>
        <time>2021-07-02 15:54:53</time>
      </trkpt>
      <trkpt lat="29.13147" lon="-13.46505">
        <ele>10.8</ele>
        <time>2021-07-02 15:54:54</time>
      </trkpt>
      <trkpt lat="29.13149" lon="-13.46505">
        <ele>10.8</ele>
        <time>2021-07-02 15:54:55</time>
      </trkpt>
      <trkpt lat="29.13151" lon="-13.46504">
        <ele>10.8</ele>
        <time>2021-07-02 15:54:56</time>
      </trkpt>
      <trkpt lat="29.13153" lon="-13.46503">
        <ele>10.8</ele>
        <time>2021-07-02 15:54:57</time>
      </trkpt>
      <trkpt lat="29.13154" lon="-13.46502">
        <ele>10.8</ele>
        <time>2021-07-02 15:54:58</time>
      </trkpt>
      <trkpt lat="29.13156" lon="-13.465">
        <ele>11</ele>
        <time>2021-07-02 15:54:59</time>
      </trkpt>
      <trkpt lat="29.13158" lon="-13.46499">
        <ele>11</ele>
        <time>2021-07-02 15:55:00</time>
      </trkpt>
      <trkpt lat="29.1316" lon="-13.46498">
        <ele>11</ele>
        <time>2021-07-02 15:55:01</time>
      </trkpt>
      <trkpt lat="29.13161" lon="-13.46497">
        <ele>11</ele>
        <time>2021-07-02 15:55:02</time>
      </trkpt>
      <trkpt lat="29.13164" lon="-13.46496">
        <ele>11.4</ele>
        <time>2021-07-02 15:55:03</time>
      </trkpt>
      <trkpt lat="29.13166" lon="-13.46496">
        <ele>11.4</ele>
        <time>2021-07-02 15:55:04</time>
      </trkpt>
      <trkpt lat="29.13168" lon="-13.46496">
        <ele>11.6</ele>
        <time>2021-07-02 15:55:05</time>
      </trkpt>
      <trkpt lat="29.1317" lon="-13.46496">
        <ele>11.6</ele>
        <time>2021-07-02 15:55:06</time>
      </trkpt>
      <trkpt lat="29.13173" lon="-13.46496">
        <ele>11.6</ele>
        <time>2021-07-02 15:55:07</time>
      </trkpt>
      <trkpt lat="29.13175" lon="-13.46496">
        <ele>11.6</ele>
        <time>2021-07-02 15:55:08</time>
      </trkpt>
      <trkpt lat="29.13178" lon="-13.46495">
        <ele>11.6</ele>
        <time>2021-07-02 15:55:09</time>
      </trkpt>
      <trkpt lat="29.1318" lon="-13.46495">
        <ele>11.6</ele>
        <time>2021-07-02 15:55:10</time>
      </trkpt>
      <trkpt lat="29.13182" lon="-13.46494">
        <ele>11.8</ele>
        <time>2021-07-02 15:55:11</time>
      </trkpt>
      <trkpt lat="29.13184" lon="-13.46493">
        <ele>11.8</ele>
        <time>2021-07-02 15:55:12</time>
      </trkpt>
      <trkpt lat="29.13186" lon="-13.46492">
        <ele>11.8</ele>
        <time>2021-07-02 15:55:13</time>
      </trkpt>
      <trkpt lat="29.13189" lon="-13.46491">
        <ele>11.8</ele>
        <time>2021-07-02 15:55:14</time>
      </trkpt>
      <trkpt lat="29.13191" lon="-13.4649">
        <ele>11.8</ele>
        <time>2021-07-02 15:55:15</time>
      </trkpt>
      <trkpt lat="29.13193" lon="-13.46489">
        <ele>11.8</ele>
        <time>2021-07-02 15:55:16</time>
      </trkpt>
      <trkpt lat="29.13195" lon="-13.46488">
        <ele>11.8</ele>
        <time>2021-07-02 15:55:17</time>
      </trkpt>
      <trkpt lat="29.13198" lon="-13.46488">
        <ele>11.8</ele>
        <time>2021-07-02 15:55:18</time>
      </trkpt>
      <trkpt lat="29.132" lon="-13.46489">
        <ele>11.8</ele>
        <time>2021-07-02 15:55:19</time>
      </trkpt>
      <trkpt lat="29.13201" lon="-13.4649">
        <ele>11.8</ele>
        <time>2021-07-02 15:55:20</time>
      </trkpt>
      <trkpt lat="29.13203" lon="-13.46491">
        <ele>12.2</ele>
        <time>2021-07-02 15:55:21</time>
      </trkpt>
      <trkpt lat="29.13205" lon="-13.46492">
        <ele>12.2</ele>
        <time>2021-07-02 15:55:22</time>
      </trkpt>
      <trkpt lat="29.13206" lon="-13.46492">
        <ele>12.2</ele>
        <time>2021-07-02 15:55:23</time>
      </trkpt>
      <trkpt lat="29.13207" lon="-13.46492">
        <ele>12.4</ele>
        <time>2021-07-02 15:55:24</time>
      </trkpt>
      <trkpt lat="29.13207" lon="-13.46492">
        <ele>12.4</ele>
        <time>2021-07-02 15:55:25</time>
      </trkpt>
      <trkpt lat="29.13207" lon="-13.46492">
        <ele>12.4</ele>
        <time>2021-07-02 15:55:26</time>
      </trkpt>
      <trkpt lat="29.13208" lon="-13.46492">
        <ele>12.6</ele>
        <time>2021-07-02 15:55:27</time>
      </trkpt>
      <trkpt lat="29.1321" lon="-13.46493">
        <ele>12.6</ele>
        <time>2021-07-02 15:55:28</time>
      </trkpt>
      <trkpt lat="29.13212" lon="-13.46493">
        <ele>12.6</ele>
        <time>2021-07-02 15:55:29</time>
      </trkpt>
      <trkpt lat="29.13214" lon="-13.46492">
        <ele>12.6</ele>
        <time>2021-07-02 15:55:30</time>
      </trkpt>
      <trkpt lat="29.13217" lon="-13.46491">
        <ele>12.6</ele>
        <time>2021-07-02 15:55:31</time>
      </trkpt>
      <trkpt lat="29.1322" lon="-13.4649">
        <ele>12.8</ele>
        <time>2021-07-02 15:55:32</time>
      </trkpt>
      <trkpt lat="29.13223" lon="-13.46489">
        <ele>12.8</ele>
        <time>2021-07-02 15:55:33</time>
      </trkpt>
      <trkpt lat="29.13226" lon="-13.46488">
        <ele>12.8</ele>
        <time>2021-07-02 15:55:34</time>
      </trkpt>
      <trkpt lat="29.13229" lon="-13.46486">
        <ele>12.8</ele>
        <time>2021-07-02 15:55:35</time>
      </trkpt>
      <trkpt lat="29.13233" lon="-13.46485">
        <ele>13</ele>
        <time>2021-07-02 15:55:36</time>
      </trkpt>
      <trkpt lat="29.13236" lon="-13.46484">
        <ele>13</ele>
        <time>2021-07-02 15:55:37</time>
      </trkpt>
      <trkpt lat="29.1324" lon="-13.46482">
        <ele>13</ele>
        <time>2021-07-02 15:55:38</time>
      </trkpt>
      <trkpt lat="29.13243" lon="-13.46481">
        <ele>13.2</ele>
        <time>2021-07-02 15:55:39</time>
      </trkpt>
      <trkpt lat="29.13246" lon="-13.4648">
        <ele>13.2</ele>
        <time>2021-07-02 15:55:40</time>
      </trkpt>
      <trkpt lat="29.13249" lon="-13.46479">
        <ele>13.2</ele>
        <time>2021-07-02 15:55:41</time>
      </trkpt>
      <trkpt lat="29.13252" lon="-13.46477">
        <ele>13.2</ele>
        <time>2021-07-02 15:55:42</time>
      </trkpt>
      <trkpt lat="29.13255" lon="-13.46476">
        <ele>13.2</ele>
        <time>2021-07-02 15:55:43</time>
      </trkpt>
      <trkpt lat="29.13258" lon="-13.46475">
        <ele>13.2</ele>
        <time>2021-07-02 15:55:44</time>
      </trkpt>
      <trkpt lat="29.13262" lon="-13.46474">
        <ele>13.6</ele>
        <time>2021-07-02 15:55:45</time>
      </trkpt>
      <trkpt lat="29.13265" lon="-13.46472">
        <ele>13.6</ele>
        <time>2021-07-02 15:55:46</time>
      </trkpt>
      <trkpt lat="29.13268" lon="-13.46471">
        <ele>13.6</ele>
        <time>2021-07-02 15:55:47</time>
      </trkpt>
      <trkpt lat="29.13271" lon="-13.4647">
        <ele>13.8</ele>
        <time>2021-07-02 15:55:48</time>
      </trkpt>
      <trkpt lat="29.13275" lon="-13.46469">
        <ele>13.8</ele>
        <time>2021-07-02 15:55:49</time>
      </trkpt>
      <trkpt lat="29.13278" lon="-13.46467">
        <ele>13.8</ele>
        <time>2021-07-02 15:55:50</time>
      </trkpt>
      <trkpt lat="29.13281" lon="-13.46466">
        <ele>14</ele>
        <time>2021-07-02 15:55:51</time>
      </trkpt>
      <trkpt lat="29.13284" lon="-13.46465">
        <ele>14</ele>
        <time>2021-07-02 15:55:52</time>
      </trkpt>
      <trkpt lat="29.13287" lon="-13.46464">
        <ele>14</ele>
        <time>2021-07-02 15:55:53</time>
      </trkpt>
      <trkpt lat="29.1329" lon="-13.46463">
        <ele>14</ele>
        <time>2021-07-02 15:55:54</time>
      </trkpt>
      <trkpt lat="29.13293" lon="-13.46462">
        <ele>14</ele>
        <time>2021-07-02 15:55:55</time>
      </trkpt>
      <trkpt lat="29.13296" lon="-13.46461">
        <ele>14</ele>
        <time>2021-07-02 15:55:56</time>
      </trkpt>
      <trkpt lat="29.13299" lon="-13.46459">
        <ele>14</ele>
        <time>2021-07-02 15:55:57</time>
      </trkpt>
      <trkpt lat="29.13302" lon="-13.46458">
        <ele>14</ele>
        <time>2021-07-02 15:55:58</time>
      </trkpt>
      <trkpt lat="29.13305" lon="-13.46456">
        <ele>14</ele>
        <time>2021-07-02 15:55:59</time>
      </trkpt>
      <trkpt lat="29.13308" lon="-13.46454">
        <ele>14</ele>
        <time>2021-07-02 15:56:00</time>
      </trkpt>
      <trkpt lat="29.13311" lon="-13.46452">
        <ele>14</ele>
        <time>2021-07-02 15:56:01</time>
      </trkpt>
      <trkpt lat="29.13313" lon="-13.4645">
        <ele>14</ele>
        <time>2021-07-02 15:56:02</time>
      </trkpt>
      <trkpt lat="29.13316" lon="-13.46447">
        <ele>14</ele>
        <time>2021-07-02 15:56:03</time>
      </trkpt>
      <trkpt lat="29.13318" lon="-13.46445">
        <ele>14</ele>
        <time>2021-07-02 15:56:04</time>
      </trkpt>
      <trkpt lat="29.1332" lon="-13.46442">
        <ele>14</ele>
        <time>2021-07-02 15:56:05</time>
      </trkpt>
      <trkpt lat="29.13322" lon="-13.46439">
        <ele>14</ele>
        <time>2021-07-02 15:56:06</time>
      </trkpt>
      <trkpt lat="29.13324" lon="-13.46436">
        <ele>14</ele>
        <time>2021-07-02 15:56:07</time>
      </trkpt>
      <trkpt lat="29.13325" lon="-13.46433">
        <ele>14.2</ele>
        <time>2021-07-02 15:56:08</time>
      </trkpt>
      <trkpt lat="29.13327" lon="-13.46429">
        <ele>14.2</ele>
        <time>2021-07-02 15:56:09</time>
      </trkpt>
      <trkpt lat="29.13327" lon="-13.46426">
        <ele>14.6</ele>
        <time>2021-07-02 15:56:10</time>
      </trkpt>
      <trkpt lat="29.13328" lon="-13.46422">
        <ele>14.6</ele>
        <time>2021-07-02 15:56:11</time>
      </trkpt>
      <trkpt lat="29.13328" lon="-13.46418">
        <ele>14.8</ele>
        <time>2021-07-02 15:56:12</time>
      </trkpt>
      <trkpt lat="29.13327" lon="-13.46414">
        <ele>14.8</ele>
        <time>2021-07-02 15:56:13</time>
      </trkpt>
      <trkpt lat="29.13326" lon="-13.4641">
        <ele>14.8</ele>
        <time>2021-07-02 15:56:14</time>
      </trkpt>
      <trkpt lat="29.13325" lon="-13.46406">
        <ele>14.8</ele>
        <time>2021-07-02 15:56:15</time>
      </trkpt>
      <trkpt lat="29.13323" lon="-13.46402">
        <ele>14.8</ele>
        <time>2021-07-02 15:56:16</time>
      </trkpt>
      <trkpt lat="29.13321" lon="-13.46398">
        <ele>14.8</ele>
        <time>2021-07-02 15:56:17</time>
      </trkpt>
      <trkpt lat="29.13319" lon="-13.46393">
        <ele>14.8</ele>
        <time>2021-07-02 15:56:18</time>
      </trkpt>
      <trkpt lat="29.13315" lon="-13.46389">
        <ele>14.8</ele>
        <time>2021-07-02 15:56:19</time>
      </trkpt>
      <trkpt lat="29.13312" lon="-13.46385">
        <ele>14.6</ele>
        <time>2021-07-02 15:56:20</time>
      </trkpt>
      <trkpt lat="29.13309" lon="-13.46381">
        <ele>14.6</ele>
        <time>2021-07-02 15:56:21</time>
      </trkpt>
      <trkpt lat="29.13306" lon="-13.46377">
        <ele>14.2</ele>
        <time>2021-07-02 15:56:22</time>
      </trkpt>
      <trkpt lat="29.13303" lon="-13.46373">
        <ele>14.2</ele>
        <time>2021-07-02 15:56:23</time>
      </trkpt>
      <trkpt lat="29.13299" lon="-13.46369">
        <ele>14</ele>
        <time>2021-07-02 15:56:24</time>
      </trkpt>
      <trkpt lat="29.13295" lon="-13.46365">
        <ele>14</ele>
        <time>2021-07-02 15:56:25</time>
      </trkpt>
      <trkpt lat="29.1329" lon="-13.46361">
        <ele>13.6</ele>
        <time>2021-07-02 15:56:26</time>
      </trkpt>
      <trkpt lat="29.13287" lon="-13.46356">
        <ele>13.4</ele>
        <time>2021-07-02 15:56:27</time>
      </trkpt>
      <trkpt lat="29.13283" lon="-13.46351">
        <ele>13.2</ele>
        <time>2021-07-02 15:56:28</time>
      </trkpt>
      <trkpt lat="29.13279" lon="-13.46346">
        <ele>13.2</ele>
        <time>2021-07-02 15:56:29</time>
      </trkpt>
      <trkpt lat="29.13275" lon="-13.46341">
        <ele>12.8</ele>
        <time>2021-07-02 15:56:35</time>
      </trkpt>
      <trkpt lat="29.13271" lon="-13.46336">
        <ele>12.8</ele>
        <time>2021-07-02 15:56:36</time>
      </trkpt>
      <trkpt lat="29.13267" lon="-13.46331">
        <ele>12.4</ele>
        <time>2021-07-02 15:56:37</time>
      </trkpt>
      <trkpt lat="29.13263" lon="-13.46325">
        <ele>12.4</ele>
        <time>2021-07-02 15:56:38</time>
      </trkpt>
      <trkpt lat="29.13258" lon="-13.46319">
        <ele>12</ele>
        <time>2021-07-02 15:56:39</time>
      </trkpt>
      <trkpt lat="29.13254" lon="-13.46313">
        <ele>12</ele>
        <time>2021-07-02 15:56:40</time>
      </trkpt>
      <trkpt lat="29.1325" lon="-13.46308">
        <ele>11.6</ele>
        <time>2021-07-02 15:56:41</time>
      </trkpt>
      <trkpt lat="29.13244" lon="-13.46302">
        <ele>11.6</ele>
        <time>2021-07-02 15:56:42</time>
      </trkpt>
      <trkpt lat="29.13239" lon="-13.46296">
        <ele>11.2</ele>
        <time>2021-07-02 15:56:43</time>
      </trkpt>
      <trkpt lat="29.13235" lon="-13.46291">
        <ele>11.2</ele>
        <time>2021-07-02 15:56:44</time>
      </trkpt>
      <trkpt lat="29.1323" lon="-13.46285">
        <ele>10.8</ele>
        <time>2021-07-02 15:56:45</time>
      </trkpt>
      <trkpt lat="29.13225" lon="-13.46279">
        <ele>10.8</ele>
        <time>2021-07-02 15:56:46</time>
      </trkpt>
      <trkpt lat="29.1322" lon="-13.46273">
        <ele>10.4</ele>
        <time>2021-07-02 15:56:47</time>
      </trkpt>
      <trkpt lat="29.13214" lon="-13.46267">
        <ele>10.2</ele>
        <time>2021-07-02 15:56:48</time>
      </trkpt>
      <trkpt lat="29.1321" lon="-13.46261">
        <ele>10.2</ele>
        <time>2021-07-02 15:56:49</time>
      </trkpt>
      <trkpt lat="29.13206" lon="-13.46255">
        <ele>10.2</ele>
        <time>2021-07-02 15:56:50</time>
      </trkpt>
      <trkpt lat="29.13201" lon="-13.4625">
        <ele>5.6</ele>
        <time>2021-07-02 15:56:51</time>
      </trkpt>
      <trkpt lat="29.13197" lon="-13.46245">
        <ele>6.4</ele>
        <time>2021-07-02 15:56:52</time>
      </trkpt>
      <trkpt lat="29.13193" lon="-13.4624">
        <ele>8.8</ele>
        <time>2021-07-02 15:56:53</time>
      </trkpt>
      <trkpt lat="29.13187" lon="-13.46236">
        <ele>9.8</ele>
        <time>2021-07-02 15:56:54</time>
      </trkpt>
      <trkpt lat="29.13183" lon="-13.46231">
        <ele>10.2</ele>
        <time>2021-07-02 15:56:55</time>
      </trkpt>
      <trkpt lat="29.13179" lon="-13.46225">
        <ele>10.2</ele>
        <time>2021-07-02 15:56:56</time>
      </trkpt>
      <trkpt lat="29.13175" lon="-13.4622">
        <ele>10.2</ele>
        <time>2021-07-02 15:56:57</time>
      </trkpt>
      <trkpt lat="29.13171" lon="-13.46215">
        <ele>9.8</ele>
        <time>2021-07-02 15:56:58</time>
      </trkpt>
      <trkpt lat="29.13166" lon="-13.46209">
        <ele>9.2</ele>
        <time>2021-07-02 15:56:59</time>
      </trkpt>
      <trkpt lat="29.13162" lon="-13.46204">
        <ele>8.8</ele>
        <time>2021-07-02 15:57:00</time>
      </trkpt>
      <trkpt lat="29.13157" lon="-13.46199">
        <ele>8.6</ele>
        <time>2021-07-02 15:57:01</time>
      </trkpt>
      <trkpt lat="29.13152" lon="-13.46194">
        <ele>8.4</ele>
        <time>2021-07-02 15:57:02</time>
      </trkpt>
      <trkpt lat="29.13147" lon="-13.46188">
        <ele>8</ele>
        <time>2021-07-02 15:57:03</time>
      </trkpt>
      <trkpt lat="29.13142" lon="-13.46182">
        <ele>7.8</ele>
        <time>2021-07-02 15:57:04</time>
      </trkpt>
      <trkpt lat="29.13137" lon="-13.46177">
        <ele>7.6</ele>
        <time>2021-07-02 15:57:05</time>
      </trkpt>
      <trkpt lat="29.13132" lon="-13.46172">
        <ele>7.4</ele>
        <time>2021-07-02 15:57:06</time>
      </trkpt>
      <trkpt lat="29.13128" lon="-13.46166">
        <ele>7</ele>
        <time>2021-07-02 15:57:07</time>
      </trkpt>
      <trkpt lat="29.13124" lon="-13.46161">
        <ele>6.8</ele>
        <time>2021-07-02 15:57:08</time>
      </trkpt>
      <trkpt lat="29.1312" lon="-13.46158">
        <ele>6.6</ele>
        <time>2021-07-02 15:57:09</time>
      </trkpt>
      <trkpt lat="29.13117" lon="-13.46156">
        <ele>6.4</ele>
        <time>2021-07-02 15:57:10</time>
      </trkpt>
      <trkpt lat="29.13115" lon="-13.46153">
        <ele>6.4</ele>
        <time>2021-07-02 15:57:11</time>
      </trkpt>
      <trkpt lat="29.13112" lon="-13.46151">
        <ele>5.8</ele>
        <time>2021-07-02 15:57:12</time>
      </trkpt>
      <trkpt lat="29.13111" lon="-13.46148">
        <ele>5.6</ele>
        <time>2021-07-02 15:57:13</time>
      </trkpt>
      <trkpt lat="29.13111" lon="-13.46144">
        <ele>5.2</ele>
        <time>2021-07-02 15:57:14</time>
      </trkpt>
      <trkpt lat="29.13112" lon="-13.4614">
        <ele>5.2</ele>
        <time>2021-07-02 15:57:15</time>
      </trkpt>
      <trkpt lat="29.13114" lon="-13.46136">
        <ele>5.2</ele>
        <time>2021-07-02 15:57:16</time>
      </trkpt>
      <trkpt lat="29.13116" lon="-13.46132">
        <ele>5.2</ele>
        <time>2021-07-02 15:57:17</time>
      </trkpt>
      <trkpt lat="29.13119" lon="-13.46128">
        <ele>5.2</ele>
        <time>2021-07-02 15:57:18</time>
      </trkpt>
      <trkpt lat="29.13122" lon="-13.46124">
        <ele>5.2</ele>
        <time>2021-07-02 15:57:19</time>
      </trkpt>
      <trkpt lat="29.13125" lon="-13.46121">
        <ele>5.2</ele>
        <time>2021-07-02 15:57:20</time>
      </trkpt>
      <trkpt lat="29.13129" lon="-13.46118">
        <ele>5.2</ele>
        <time>2021-07-02 15:57:21</time>
      </trkpt>
      <trkpt lat="29.13133" lon="-13.46115">
        <ele>5.2</ele>
        <time>2021-07-02 15:57:22</time>
      </trkpt>
      <trkpt lat="29.13138" lon="-13.46113">
        <ele>5.2</ele>
        <time>2021-07-02 15:57:23</time>
      </trkpt>
      <trkpt lat="29.13142" lon="-13.46109">
        <ele>5.2</ele>
        <time>2021-07-02 15:57:24</time>
      </trkpt>
      <trkpt lat="29.13146" lon="-13.46106">
        <ele>5</ele>
        <time>2021-07-02 15:57:25</time>
      </trkpt>
      <trkpt lat="29.13149" lon="-13.46103">
        <ele>5</ele>
        <time>2021-07-02 15:57:26</time>
      </trkpt>
      <trkpt lat="29.13154" lon="-13.461">
        <ele>5</ele>
        <time>2021-07-02 15:57:27</time>
      </trkpt>
      <trkpt lat="29.13158" lon="-13.46098">
        <ele>5</ele>
        <time>2021-07-02 15:57:28</time>
      </trkpt>
      <trkpt lat="29.13163" lon="-13.46095">
        <ele>5</ele>
        <time>2021-07-02 15:57:29</time>
      </trkpt>
      <trkpt lat="29.13167" lon="-13.46092">
        <ele>5</ele>
        <time>2021-07-02 15:57:30</time>
      </trkpt>
      <trkpt lat="29.13171" lon="-13.4609">
        <ele>5</ele>
        <time>2021-07-02 15:57:31</time>
      </trkpt>
      <trkpt lat="29.13176" lon="-13.46087">
        <ele>5</ele>
        <time>2021-07-02 15:57:32</time>
      </trkpt>
      <trkpt lat="29.1318" lon="-13.46084">
        <ele>5</ele>
        <time>2021-07-02 15:57:33</time>
      </trkpt>
      <trkpt lat="29.13185" lon="-13.46081">
        <ele>5</ele>
        <time>2021-07-02 15:57:34</time>
      </trkpt>
      <trkpt lat="29.13189" lon="-13.46079">
        <ele>5</ele>
        <time>2021-07-02 15:57:35</time>
      </trkpt>
      <trkpt lat="29.13193" lon="-13.46075">
        <ele>5</ele>
        <time>2021-07-02 15:57:36</time>
      </trkpt>
      <trkpt lat="29.13198" lon="-13.46072">
        <ele>5</ele>
        <time>2021-07-02 15:57:37</time>
      </trkpt>
      <trkpt lat="29.13202" lon="-13.4607">
        <ele>5</ele>
        <time>2021-07-02 15:57:38</time>
      </trkpt>
      <trkpt lat="29.13207" lon="-13.46067">
        <ele>5</ele>
        <time>2021-07-02 15:57:39</time>
      </trkpt>
      <trkpt lat="29.13211" lon="-13.46064">
        <ele>5</ele>
        <time>2021-07-02 15:57:40</time>
      </trkpt>
      <trkpt lat="29.13216" lon="-13.46061">
        <ele>5</ele>
        <time>2021-07-02 15:57:41</time>
      </trkpt>
      <trkpt lat="29.13221" lon="-13.46058">
        <ele>5</ele>
        <time>2021-07-02 15:57:42</time>
      </trkpt>
      <trkpt lat="29.13226" lon="-13.46056">
        <ele>5.4</ele>
        <time>2021-07-02 15:57:43</time>
      </trkpt>
      <trkpt lat="29.1323" lon="-13.46053">
        <ele>5.4</ele>
        <time>2021-07-02 15:57:44</time>
      </trkpt>
      <trkpt lat="29.13235" lon="-13.46051">
        <ele>5.4</ele>
        <time>2021-07-02 15:57:45</time>
      </trkpt>
      <trkpt lat="29.13238" lon="-13.46048">
        <ele>5.4</ele>
        <time>2021-07-02 15:57:46</time>
      </trkpt>
      <trkpt lat="29.13243" lon="-13.46046">
        <ele>5.4</ele>
        <time>2021-07-02 15:57:47</time>
      </trkpt>
      <trkpt lat="29.13247" lon="-13.46044">
        <ele>5.6</ele>
        <time>2021-07-02 15:57:48</time>
      </trkpt>
      <trkpt lat="29.1326" lon="-13.46037">
        <ele>7</ele>
        <time>2021-07-02 15:57:49</time>
      </trkpt>
      <trkpt lat="29.13264" lon="-13.46035">
        <ele>7.2</ele>
        <time>2021-07-02 15:57:50</time>
      </trkpt>
      <trkpt lat="29.13267" lon="-13.46033">
        <ele>7.2</ele>
        <time>2021-07-02 15:57:51</time>
      </trkpt>
      <trkpt lat="29.1327" lon="-13.46032">
        <ele>7.2</ele>
        <time>2021-07-02 15:57:52</time>
      </trkpt>
      <trkpt lat="29.13274" lon="-13.4603">
        <ele>7.2</ele>
        <time>2021-07-02 15:57:53</time>
      </trkpt>
      <trkpt lat="29.13277" lon="-13.46028">
        <ele>7.6</ele>
        <time>2021-07-02 15:57:54</time>
      </trkpt>
      <trkpt lat="29.13281" lon="-13.46024">
        <ele>7.6</ele>
        <time>2021-07-02 15:57:55</time>
      </trkpt>
      <trkpt lat="29.13284" lon="-13.46021">
        <ele>7.6</ele>
        <time>2021-07-02 15:57:56</time>
      </trkpt>
      <trkpt lat="29.13287" lon="-13.46018">
        <ele>7.6</ele>
        <time>2021-07-02 15:57:57</time>
      </trkpt>
      <trkpt lat="29.1329" lon="-13.46014">
        <ele>7.6</ele>
        <time>2021-07-02 15:57:58</time>
      </trkpt>
      <trkpt lat="29.13293" lon="-13.46011">
        <ele>7.6</ele>
        <time>2021-07-02 15:57:59</time>
      </trkpt>
      <trkpt lat="29.13295" lon="-13.46007">
        <ele>7.6</ele>
        <time>2021-07-02 15:58:00</time>
      </trkpt>
      <trkpt lat="29.13298" lon="-13.46004">
        <ele>7.2</ele>
        <time>2021-07-02 15:58:01</time>
      </trkpt>
      <trkpt lat="29.133" lon="-13.46">
        <ele>7.2</ele>
        <time>2021-07-02 15:58:02</time>
      </trkpt>
      <trkpt lat="29.13303" lon="-13.45996">
        <ele>7.2</ele>
        <time>2021-07-02 15:58:03</time>
      </trkpt>
      <trkpt lat="29.13305" lon="-13.45993">
        <ele>7.2</ele>
        <time>2021-07-02 15:58:04</time>
      </trkpt>
      <trkpt lat="29.13308" lon="-13.45989">
        <ele>7.2</ele>
        <time>2021-07-02 15:58:05</time>
      </trkpt>
      <trkpt lat="29.13313" lon="-13.45982">
        <ele>7.2</ele>
        <time>2021-07-02 15:58:06</time>
      </trkpt>
      <trkpt lat="29.13316" lon="-13.45978">
        <ele>7.2</ele>
        <time>2021-07-02 15:58:07</time>
      </trkpt>
      <trkpt lat="29.13318" lon="-13.45975">
        <ele>7.2</ele>
        <time>2021-07-02 15:58:08</time>
      </trkpt>
      <trkpt lat="29.13321" lon="-13.45971">
        <ele>7.6</ele>
        <time>2021-07-02 15:58:09</time>
      </trkpt>
      <trkpt lat="29.13323" lon="-13.45969">
        <ele>7.8</ele>
        <time>2021-07-02 15:58:10</time>
      </trkpt>
      <trkpt lat="29.13325" lon="-13.45966">
        <ele>7.8</ele>
        <time>2021-07-02 15:58:11</time>
      </trkpt>
      <trkpt lat="29.13328" lon="-13.45963">
        <ele>7.8</ele>
        <time>2021-07-02 15:58:12</time>
      </trkpt>
      <trkpt lat="29.1333" lon="-13.45959">
        <ele>7.8</ele>
        <time>2021-07-02 15:58:13</time>
      </trkpt>
      <trkpt lat="29.13332" lon="-13.45956">
        <ele>7.8</ele>
        <time>2021-07-02 15:58:14</time>
      </trkpt>
      <trkpt lat="29.13334" lon="-13.45952">
        <ele>7.8</ele>
        <time>2021-07-02 15:58:15</time>
      </trkpt>
      <trkpt lat="29.13337" lon="-13.45948">
        <ele>7.8</ele>
        <time>2021-07-02 15:58:16</time>
      </trkpt>
      <trkpt lat="29.13337" lon="-13.45942">
        <ele>7.8</ele>
        <time>2021-07-02 15:58:17</time>
      </trkpt>
      <trkpt lat="29.13338" lon="-13.45937">
        <ele>8</ele>
        <time>2021-07-02 15:58:18</time>
      </trkpt>
      <trkpt lat="29.13338" lon="-13.4593">
        <ele>8</ele>
        <time>2021-07-02 15:58:19</time>
      </trkpt>
      <trkpt lat="29.13338" lon="-13.45924">
        <ele>8.4</ele>
        <time>2021-07-02 15:58:20</time>
      </trkpt>
      <trkpt lat="29.13338" lon="-13.45917">
        <ele>8.4</ele>
        <time>2021-07-02 15:58:21</time>
      </trkpt>
      <trkpt lat="29.13338" lon="-13.4591">
        <ele>8.4</ele>
        <time>2021-07-02 15:58:22</time>
      </trkpt>
      <trkpt lat="29.13337" lon="-13.45903">
        <ele>8.4</ele>
        <time>2021-07-02 15:58:23</time>
      </trkpt>
      <trkpt lat="29.13337" lon="-13.45897">
        <ele>8</ele>
        <time>2021-07-02 15:58:24</time>
      </trkpt>
      <trkpt lat="29.13337" lon="-13.45891">
        <ele>8</ele>
        <time>2021-07-02 15:58:25</time>
      </trkpt>
      <trkpt lat="29.13336" lon="-13.45884">
        <ele>7.8</ele>
        <time>2021-07-02 15:58:26</time>
      </trkpt>
      <trkpt lat="29.13335" lon="-13.45877">
        <ele>7.8</ele>
        <time>2021-07-02 15:58:27</time>
      </trkpt>
      <trkpt lat="29.13335" lon="-13.45871">
        <ele>7.4</ele>
        <time>2021-07-02 15:58:28</time>
      </trkpt>
      <trkpt lat="29.13335" lon="-13.45864">
        <ele>7.4</ele>
        <time>2021-07-02 15:58:29</time>
      </trkpt>
      <trkpt lat="29.13336" lon="-13.45856">
        <ele>7.4</ele>
        <time>2021-07-02 15:58:30</time>
      </trkpt>
      <trkpt lat="29.13335" lon="-13.45849">
        <ele>7.4</ele>
        <time>2021-07-02 15:58:31</time>
      </trkpt>
      <trkpt lat="29.13334" lon="-13.45843">
        <ele>7.4</ele>
        <time>2021-07-02 15:58:32</time>
      </trkpt>
      <trkpt lat="29.13334" lon="-13.45836">
        <ele>7.4</ele>
        <time>2021-07-02 15:58:33</time>
      </trkpt>
      <trkpt lat="29.13335" lon="-13.4583">
        <ele>7.4</ele>
        <time>2021-07-02 15:58:34</time>
      </trkpt>
      <trkpt lat="29.13335" lon="-13.45823">
        <ele>7.4</ele>
        <time>2021-07-02 15:58:35</time>
      </trkpt>
      <trkpt lat="29.13334" lon="-13.45817">
        <ele>7.2</ele>
        <time>2021-07-02 15:58:36</time>
      </trkpt>
      <trkpt lat="29.13334" lon="-13.45811">
        <ele>7.2</ele>
        <time>2021-07-02 15:58:37</time>
      </trkpt>
      <trkpt lat="29.13334" lon="-13.45806">
        <ele>7.2</ele>
        <time>2021-07-02 15:58:38</time>
      </trkpt>
      <trkpt lat="29.13336" lon="-13.458">
        <ele>7.2</ele>
        <time>2021-07-02 15:58:39</time>
      </trkpt>
      <trkpt lat="29.13337" lon="-13.45794">
        <ele>7.2</ele>
        <time>2021-07-02 15:58:40</time>
      </trkpt>
      <trkpt lat="29.13339" lon="-13.4579">
        <ele>7.2</ele>
        <time>2021-07-02 15:58:41</time>
      </trkpt>
      <trkpt lat="29.13342" lon="-13.45785">
        <ele>7.2</ele>
        <time>2021-07-02 15:58:42</time>
      </trkpt>
      <trkpt lat="29.13345" lon="-13.4578">
        <ele>7.2</ele>
        <time>2021-07-02 15:58:43</time>
      </trkpt>
      <trkpt lat="29.13348" lon="-13.45776">
        <ele>7.2</ele>
        <time>2021-07-02 15:58:44</time>
      </trkpt>
      <trkpt lat="29.13351" lon="-13.45773">
        <ele>7.2</ele>
        <time>2021-07-02 15:58:45</time>
      </trkpt>
      <trkpt lat="29.13355" lon="-13.4577">
        <ele>7.2</ele>
        <time>2021-07-02 15:58:46</time>
      </trkpt>
      <trkpt lat="29.13359" lon="-13.45768">
        <ele>7.2</ele>
        <time>2021-07-02 15:58:47</time>
      </trkpt>
      <trkpt lat="29.13364" lon="-13.45767">
        <ele>7.2</ele>
        <time>2021-07-02 15:58:48</time>
      </trkpt>
      <trkpt lat="29.13368" lon="-13.45766">
        <ele>7.2</ele>
        <time>2021-07-02 15:58:49</time>
      </trkpt>
      <trkpt lat="29.13373" lon="-13.45766">
        <ele>7.2</ele>
        <time>2021-07-02 15:58:50</time>
      </trkpt>
      <trkpt lat="29.13378" lon="-13.45764">
        <ele>7.2</ele>
        <time>2021-07-02 15:58:51</time>
      </trkpt>
      <trkpt lat="29.13382" lon="-13.45764">
        <ele>7.2</ele>
        <time>2021-07-02 15:58:52</time>
      </trkpt>
      <trkpt lat="29.13386" lon="-13.45763">
        <ele>7.2</ele>
        <time>2021-07-02 15:58:53</time>
      </trkpt>
      <trkpt lat="29.13391" lon="-13.45762">
        <ele>7.2</ele>
        <time>2021-07-02 15:58:54</time>
      </trkpt>
      <trkpt lat="29.13396" lon="-13.45761">
        <ele>7.2</ele>
        <time>2021-07-02 15:58:55</time>
      </trkpt>
      <trkpt lat="29.13401" lon="-13.4576">
        <ele>7.2</ele>
        <time>2021-07-02 15:58:56</time>
      </trkpt>
      <trkpt lat="29.13406" lon="-13.45758">
        <ele>7</ele>
        <time>2021-07-02 15:58:57</time>
      </trkpt>
      <trkpt lat="29.13411" lon="-13.45755">
        <ele>7</ele>
        <time>2021-07-02 15:58:58</time>
      </trkpt>
      <trkpt lat="29.13416" lon="-13.45752">
        <ele>6.8</ele>
        <time>2021-07-02 15:58:59</time>
      </trkpt>
      <trkpt lat="29.13421" lon="-13.45749">
        <ele>6.8</ele>
        <time>2021-07-02 15:59:00</time>
      </trkpt>
      <trkpt lat="29.13425" lon="-13.45746">
        <ele>6.4</ele>
        <time>2021-07-02 15:59:01</time>
      </trkpt>
      <trkpt lat="29.13429" lon="-13.45742">
        <ele>6.4</ele>
        <time>2021-07-02 15:59:02</time>
      </trkpt>
      <trkpt lat="29.13433" lon="-13.45739">
        <ele>6.4</ele>
        <time>2021-07-02 15:59:03</time>
      </trkpt>
      <trkpt lat="29.13437" lon="-13.45736">
        <ele>6.2</ele>
        <time>2021-07-02 15:59:04</time>
      </trkpt>
      <trkpt lat="29.13441" lon="-13.45733">
        <ele>6.2</ele>
        <time>2021-07-02 15:59:05</time>
      </trkpt>
      <trkpt lat="29.13445" lon="-13.45729">
        <ele>6</ele>
        <time>2021-07-02 15:59:06</time>
      </trkpt>
      <trkpt lat="29.1345" lon="-13.45725">
        <ele>6</ele>
        <time>2021-07-02 15:59:07</time>
      </trkpt>
      <trkpt lat="29.13454" lon="-13.45722">
        <ele>6</ele>
        <time>2021-07-02 15:59:08</time>
      </trkpt>
      <trkpt lat="29.13458" lon="-13.45719">
        <ele>6</ele>
        <time>2021-07-02 15:59:09</time>
      </trkpt>
      <trkpt lat="29.13463" lon="-13.45717">
        <ele>6</ele>
        <time>2021-07-02 15:59:10</time>
      </trkpt>
      <trkpt lat="29.13467" lon="-13.45714">
        <ele>6.2</ele>
        <time>2021-07-02 15:59:11</time>
      </trkpt>
      <trkpt lat="29.13471" lon="-13.45712">
        <ele>6.2</ele>
        <time>2021-07-02 15:59:12</time>
      </trkpt>
      <trkpt lat="29.13475" lon="-13.45709">
        <ele>6.2</ele>
        <time>2021-07-02 15:59:13</time>
      </trkpt>
      <trkpt lat="29.13479" lon="-13.45708">
        <ele>6.2</ele>
        <time>2021-07-02 15:59:14</time>
      </trkpt>
      <trkpt lat="29.13484" lon="-13.45707">
        <ele>6.2</ele>
        <time>2021-07-02 15:59:15</time>
      </trkpt>
      <trkpt lat="29.13488" lon="-13.45706">
        <ele>6.4</ele>
        <time>2021-07-02 15:59:16</time>
      </trkpt>
      <trkpt lat="29.13492" lon="-13.45705">
        <ele>6.4</ele>
        <time>2021-07-02 15:59:17</time>
      </trkpt>
      <trkpt lat="29.13497" lon="-13.45704">
        <ele>6.4</ele>
        <time>2021-07-02 15:59:18</time>
      </trkpt>
      <trkpt lat="29.13502" lon="-13.45702">
        <ele>6.4</ele>
        <time>2021-07-02 15:59:19</time>
      </trkpt>
      <trkpt lat="29.13506" lon="-13.45701">
        <ele>6.4</ele>
        <time>2021-07-02 15:59:20</time>
      </trkpt>
      <trkpt lat="29.13511" lon="-13.45699">
        <ele>6.4</ele>
        <time>2021-07-02 15:59:21</time>
      </trkpt>
      <trkpt lat="29.13515" lon="-13.45697">
        <ele>6.4</ele>
        <time>2021-07-02 15:59:22</time>
      </trkpt>
      <trkpt lat="29.1352" lon="-13.45696">
        <ele>6.2</ele>
        <time>2021-07-02 15:59:23</time>
      </trkpt>
      <trkpt lat="29.13524" lon="-13.45694">
        <ele>6.2</ele>
        <time>2021-07-02 15:59:24</time>
      </trkpt>
      <trkpt lat="29.13529" lon="-13.45692">
        <ele>6.2</ele>
        <time>2021-07-02 15:59:25</time>
      </trkpt>
      <trkpt lat="29.13533" lon="-13.4569">
        <ele>6.2</ele>
        <time>2021-07-02 15:59:26</time>
      </trkpt>
      <trkpt lat="29.13537" lon="-13.45689">
        <ele>6.2</ele>
        <time>2021-07-02 15:59:27</time>
      </trkpt>
      <trkpt lat="29.13542" lon="-13.45687">
        <ele>6.4</ele>
        <time>2021-07-02 15:59:28</time>
      </trkpt>
      <trkpt lat="29.13546" lon="-13.45686">
        <ele>6.4</ele>
        <time>2021-07-02 15:59:29</time>
      </trkpt>
      <trkpt lat="29.1355" lon="-13.45684">
        <ele>6.4</ele>
        <time>2021-07-02 15:59:30</time>
      </trkpt>
      <trkpt lat="29.13554" lon="-13.45683">
        <ele>6.8</ele>
        <time>2021-07-02 15:59:31</time>
      </trkpt>
      <trkpt lat="29.13558" lon="-13.45682">
        <ele>6.8</ele>
        <time>2021-07-02 15:59:32</time>
      </trkpt>
      <trkpt lat="29.13563" lon="-13.45681">
        <ele>7</ele>
        <time>2021-07-02 15:59:33</time>
      </trkpt>
      <trkpt lat="29.13567" lon="-13.45678">
        <ele>7</ele>
        <time>2021-07-02 15:59:34</time>
      </trkpt>
      <trkpt lat="29.1357" lon="-13.45677">
        <ele>7.4</ele>
        <time>2021-07-02 15:59:35</time>
      </trkpt>
      <trkpt lat="29.13574" lon="-13.45675">
        <ele>7.4</ele>
        <time>2021-07-02 15:59:36</time>
      </trkpt>
      <trkpt lat="29.13576" lon="-13.45672">
        <ele>7.6</ele>
        <time>2021-07-02 15:59:37</time>
      </trkpt>
      <trkpt lat="29.1358" lon="-13.45669">
        <ele>7.6</ele>
        <time>2021-07-02 15:59:38</time>
      </trkpt>
      <trkpt lat="29.13583" lon="-13.45665">
        <ele>7.6</ele>
        <time>2021-07-02 15:59:39</time>
      </trkpt>
      <trkpt lat="29.13587" lon="-13.45663">
        <ele>7.6</ele>
        <time>2021-07-02 15:59:40</time>
      </trkpt>
      <trkpt lat="29.1359" lon="-13.45659">
        <ele>7.8</ele>
        <time>2021-07-02 15:59:41</time>
      </trkpt>
      <trkpt lat="29.13594" lon="-13.45656">
        <ele>7.8</ele>
        <time>2021-07-02 15:59:42</time>
      </trkpt>
      <trkpt lat="29.13597" lon="-13.45653">
        <ele>7.8</ele>
        <time>2021-07-02 15:59:43</time>
      </trkpt>
      <trkpt lat="29.13601" lon="-13.4565">
        <ele>8</ele>
        <time>2021-07-02 15:59:44</time>
      </trkpt>
      <trkpt lat="29.13604" lon="-13.45647">
        <ele>8</ele>
        <time>2021-07-02 15:59:45</time>
      </trkpt>
      <trkpt lat="29.13608" lon="-13.45644">
        <ele>8</ele>
        <time>2021-07-02 15:59:46</time>
      </trkpt>
      <trkpt lat="29.13611" lon="-13.45641">
        <ele>8.4</ele>
        <time>2021-07-02 15:59:47</time>
      </trkpt>
      <trkpt lat="29.13614" lon="-13.45638">
        <ele>8.4</ele>
        <time>2021-07-02 15:59:48</time>
      </trkpt>
      <trkpt lat="29.13618" lon="-13.45636">
        <ele>8.4</ele>
        <time>2021-07-02 15:59:49</time>
      </trkpt>
      <trkpt lat="29.13622" lon="-13.45633">
        <ele>8.6</ele>
        <time>2021-07-02 15:59:50</time>
      </trkpt>
      <trkpt lat="29.13626" lon="-13.45631">
        <ele>8.6</ele>
        <time>2021-07-02 15:59:51</time>
      </trkpt>
      <trkpt lat="29.1363" lon="-13.4563">
        <ele>8.6</ele>
        <time>2021-07-02 15:59:52</time>
      </trkpt>
      <trkpt lat="29.13634" lon="-13.45627">
        <ele>8.6</ele>
        <time>2021-07-02 15:59:53</time>
      </trkpt>
      <trkpt lat="29.13639" lon="-13.45625">
        <ele>8.6</ele>
        <time>2021-07-02 15:59:54</time>
      </trkpt>
      <trkpt lat="29.13643" lon="-13.45624">
        <ele>9</ele>
        <time>2021-07-02 15:59:55</time>
      </trkpt>
      <trkpt lat="29.13648" lon="-13.45622">
        <ele>8.6</ele>
        <time>2021-07-02 15:59:56</time>
      </trkpt>
      <trkpt lat="29.13653" lon="-13.4562">
        <ele>8.2</ele>
        <time>2021-07-02 15:59:57</time>
      </trkpt>
      <trkpt lat="29.13657" lon="-13.45618">
        <ele>8</ele>
        <time>2021-07-02 15:59:58</time>
      </trkpt>
      <trkpt lat="29.13661" lon="-13.45616">
        <ele>7.8</ele>
        <time>2021-07-02 15:59:59</time>
      </trkpt>
      <trkpt lat="29.13665" lon="-13.45614">
        <ele>7.4</ele>
        <time>2021-07-02 16:00:00</time>
      </trkpt>
      <trkpt lat="29.13669" lon="-13.45612">
        <ele>7.2</ele>
        <time>2021-07-02 16:00:01</time>
      </trkpt>
      <trkpt lat="29.13673" lon="-13.4561">
        <ele>7</ele>
        <time>2021-07-02 16:00:02</time>
      </trkpt>
      <trkpt lat="29.13677" lon="-13.45608">
        <ele>6.8</ele>
        <time>2021-07-02 16:00:03</time>
      </trkpt>
      <trkpt lat="29.13681" lon="-13.45606">
        <ele>6.8</ele>
        <time>2021-07-02 16:00:04</time>
      </trkpt>
      <trkpt lat="29.13685" lon="-13.45604">
        <ele>6.4</ele>
        <time>2021-07-02 16:00:05</time>
      </trkpt>
      <trkpt lat="29.13689" lon="-13.45603">
        <ele>6.4</ele>
        <time>2021-07-02 16:00:06</time>
      </trkpt>
      <trkpt lat="29.13692" lon="-13.45601">
        <ele>6</ele>
        <time>2021-07-02 16:00:07</time>
      </trkpt>
      <trkpt lat="29.13696" lon="-13.456">
        <ele>6</ele>
        <time>2021-07-02 16:00:08</time>
      </trkpt>
      <trkpt lat="29.137" lon="-13.45599">
        <ele>6</ele>
        <time>2021-07-02 16:00:09</time>
      </trkpt>
      <trkpt lat="29.13704" lon="-13.45597">
        <ele>5.8</ele>
        <time>2021-07-02 16:00:10</time>
      </trkpt>
      <trkpt lat="29.13709" lon="-13.45596">
        <ele>5.8</ele>
        <time>2021-07-02 16:00:11</time>
      </trkpt>
      <trkpt lat="29.13713" lon="-13.45595">
        <ele>5.8</ele>
        <time>2021-07-02 16:00:12</time>
      </trkpt>
      <trkpt lat="29.13717" lon="-13.45594">
        <ele>5.6</ele>
        <time>2021-07-02 16:00:13</time>
      </trkpt>
      <trkpt lat="29.13722" lon="-13.45594">
        <ele>5.6</ele>
        <time>2021-07-02 16:00:14</time>
      </trkpt>
      <trkpt lat="29.13726" lon="-13.45594">
        <ele>5.6</ele>
        <time>2021-07-02 16:00:15</time>
      </trkpt>
      <trkpt lat="29.13731" lon="-13.45594">
        <ele>5.6</ele>
        <time>2021-07-02 16:00:16</time>
      </trkpt>
      <trkpt lat="29.13735" lon="-13.45594">
        <ele>5.6</ele>
        <time>2021-07-02 16:00:17</time>
      </trkpt>
      <trkpt lat="29.13739" lon="-13.45593">
        <ele>5.6</ele>
        <time>2021-07-02 16:00:18</time>
      </trkpt>
      <trkpt lat="29.13743" lon="-13.45594">
        <ele>5.6</ele>
        <time>2021-07-02 16:00:19</time>
      </trkpt>
      <trkpt lat="29.13748" lon="-13.45594">
        <ele>5.6</ele>
        <time>2021-07-02 16:00:20</time>
      </trkpt>
      <trkpt lat="29.13752" lon="-13.45594">
        <ele>5.6</ele>
        <time>2021-07-02 16:00:21</time>
      </trkpt>
      <trkpt lat="29.13756" lon="-13.45593">
        <ele>5.6</ele>
        <time>2021-07-02 16:00:22</time>
      </trkpt>
      <trkpt lat="29.1376" lon="-13.45593">
        <ele>5.6</ele>
        <time>2021-07-02 16:00:23</time>
      </trkpt>
      <trkpt lat="29.13764" lon="-13.45593">
        <ele>5.6</ele>
        <time>2021-07-02 16:00:24</time>
      </trkpt>
      <trkpt lat="29.13768" lon="-13.45594">
        <ele>5.6</ele>
        <time>2021-07-02 16:00:25</time>
      </trkpt>
      <trkpt lat="29.13771" lon="-13.45593">
        <ele>5.8</ele>
        <time>2021-07-02 16:00:26</time>
      </trkpt>
      <trkpt lat="29.13775" lon="-13.45593">
        <ele>5.8</ele>
        <time>2021-07-02 16:00:27</time>
      </trkpt>
      <trkpt lat="29.13779" lon="-13.45593">
        <ele>5.8</ele>
        <time>2021-07-02 16:00:28</time>
      </trkpt>
      <trkpt lat="29.13783" lon="-13.45593">
        <ele>5.8</ele>
        <time>2021-07-02 16:00:29</time>
      </trkpt>
      <trkpt lat="29.13787" lon="-13.45593">
        <ele>5.8</ele>
        <time>2021-07-02 16:00:30</time>
      </trkpt>
      <trkpt lat="29.13791" lon="-13.45591">
        <ele>5.8</ele>
        <time>2021-07-02 16:00:31</time>
      </trkpt>
      <trkpt lat="29.13795" lon="-13.45589">
        <ele>5.8</ele>
        <time>2021-07-02 16:00:32</time>
      </trkpt>
      <trkpt lat="29.13798" lon="-13.45585">
        <ele>5.6</ele>
        <time>2021-07-02 16:00:33</time>
      </trkpt>
      <trkpt lat="29.13802" lon="-13.45582">
        <ele>5.6</ele>
        <time>2021-07-02 16:00:34</time>
      </trkpt>
      <trkpt lat="29.13805" lon="-13.45578">
        <ele>5.6</ele>
        <time>2021-07-02 16:00:35</time>
      </trkpt>
      <trkpt lat="29.13807" lon="-13.45575">
        <ele>5.6</ele>
        <time>2021-07-02 16:00:36</time>
      </trkpt>
      <trkpt lat="29.1381" lon="-13.45572">
        <ele>5.2</ele>
        <time>2021-07-02 16:00:37</time>
      </trkpt>
      <trkpt lat="29.13813" lon="-13.45568">
        <ele>5.2</ele>
        <time>2021-07-02 16:00:38</time>
      </trkpt>
      <trkpt lat="29.13815" lon="-13.45564">
        <ele>5</ele>
        <time>2021-07-02 16:00:39</time>
      </trkpt>
      <trkpt lat="29.13818" lon="-13.4556">
        <ele>5</ele>
        <time>2021-07-02 16:00:40</time>
      </trkpt>
      <trkpt lat="29.13821" lon="-13.45556">
        <ele>5</ele>
        <time>2021-07-02 16:00:41</time>
      </trkpt>
      <trkpt lat="29.13824" lon="-13.45552">
        <ele>5</ele>
        <time>2021-07-02 16:00:42</time>
      </trkpt>
      <trkpt lat="29.13826" lon="-13.45548">
        <ele>5</ele>
        <time>2021-07-02 16:00:43</time>
      </trkpt>
      <trkpt lat="29.13829" lon="-13.45544">
        <ele>5</ele>
        <time>2021-07-02 16:00:44</time>
      </trkpt>
      <trkpt lat="29.13831" lon="-13.4554">
        <ele>5.2</ele>
        <time>2021-07-02 16:00:45</time>
      </trkpt>
      <trkpt lat="29.13834" lon="-13.45537">
        <ele>5.2</ele>
        <time>2021-07-02 16:00:46</time>
      </trkpt>
      <trkpt lat="29.13837" lon="-13.45533">
        <ele>5.2</ele>
        <time>2021-07-02 16:00:47</time>
      </trkpt>
      <trkpt lat="29.1384" lon="-13.45529">
        <ele>5.2</ele>
        <time>2021-07-02 16:00:48</time>
      </trkpt>
      <trkpt lat="29.13843" lon="-13.45525">
        <ele>5</ele>
        <time>2021-07-02 16:00:49</time>
      </trkpt>
      <trkpt lat="29.13845" lon="-13.45522">
        <ele>5</ele>
        <time>2021-07-02 16:00:50</time>
      </trkpt>
      <trkpt lat="29.13848" lon="-13.45518">
        <ele>4.6</ele>
        <time>2021-07-02 16:00:51</time>
      </trkpt>
      <trkpt lat="29.13852" lon="-13.45514">
        <ele>4.6</ele>
        <time>2021-07-02 16:00:52</time>
      </trkpt>
      <trkpt lat="29.13855" lon="-13.4551">
        <ele>4.6</ele>
        <time>2021-07-02 16:00:53</time>
      </trkpt>
      <trkpt lat="29.13858" lon="-13.45507">
        <ele>4.6</ele>
        <time>2021-07-02 16:00:54</time>
      </trkpt>
      <trkpt lat="29.13862" lon="-13.45503">
        <ele>4.4</ele>
        <time>2021-07-02 16:00:55</time>
      </trkpt>
      <trkpt lat="29.13865" lon="-13.45499">
        <ele>4.4</ele>
        <time>2021-07-02 16:00:56</time>
      </trkpt>
      <trkpt lat="29.13868" lon="-13.45495">
        <ele>4.4</ele>
        <time>2021-07-02 16:00:57</time>
      </trkpt>
      <trkpt lat="29.13871" lon="-13.45492">
        <ele>4.2</ele>
        <time>2021-07-02 16:00:58</time>
      </trkpt>
      <trkpt lat="29.13874" lon="-13.45488">
        <ele>4.2</ele>
        <time>2021-07-02 16:00:59</time>
      </trkpt>
      <trkpt lat="29.13877" lon="-13.45484">
        <ele>4.2</ele>
        <time>2021-07-02 16:01:00</time>
      </trkpt>
      <trkpt lat="29.1388" lon="-13.45481">
        <ele>4.2</ele>
        <time>2021-07-02 16:01:01</time>
      </trkpt>
      <trkpt lat="29.13883" lon="-13.45477">
        <ele>4.4</ele>
        <time>2021-07-02 16:01:02</time>
      </trkpt>
      <trkpt lat="29.13886" lon="-13.45474">
        <ele>4.4</ele>
        <time>2021-07-02 16:01:03</time>
      </trkpt>
      <trkpt lat="29.13888" lon="-13.45471">
        <ele>4.4</ele>
        <time>2021-07-02 16:01:04</time>
      </trkpt>
      <trkpt lat="29.13891" lon="-13.45468">
        <ele>4.4</ele>
        <time>2021-07-02 16:01:05</time>
      </trkpt>
      <trkpt lat="29.13894" lon="-13.45465">
        <ele>4.4</ele>
        <time>2021-07-02 16:01:06</time>
      </trkpt>
      <trkpt lat="29.13897" lon="-13.45461">
        <ele>4.6</ele>
        <time>2021-07-02 16:01:07</time>
      </trkpt>
      <trkpt lat="29.139" lon="-13.45458">
        <ele>4.6</ele>
        <time>2021-07-02 16:01:08</time>
      </trkpt>
      <trkpt lat="29.13902" lon="-13.45454">
        <ele>4.8</ele>
        <time>2021-07-02 16:01:09</time>
      </trkpt>
      <trkpt lat="29.13906" lon="-13.45451">
        <ele>4.8</ele>
        <time>2021-07-02 16:01:10</time>
      </trkpt>
      <trkpt lat="29.13909" lon="-13.45448">
        <ele>4.8</ele>
        <time>2021-07-02 16:01:11</time>
      </trkpt>
      <trkpt lat="29.13912" lon="-13.45444">
        <ele>4.8</ele>
        <time>2021-07-02 16:01:12</time>
      </trkpt>
      <trkpt lat="29.13915" lon="-13.45441">
        <ele>4.8</ele>
        <time>2021-07-02 16:01:13</time>
      </trkpt>
      <trkpt lat="29.13918" lon="-13.45437">
        <ele>4.8</ele>
        <time>2021-07-02 16:01:14</time>
      </trkpt>
      <trkpt lat="29.13921" lon="-13.45433">
        <ele>4.8</ele>
        <time>2021-07-02 16:01:15</time>
      </trkpt>
      <trkpt lat="29.13924" lon="-13.4543">
        <ele>4.8</ele>
        <time>2021-07-02 16:01:16</time>
      </trkpt>
      <trkpt lat="29.13928" lon="-13.45426">
        <ele>4.8</ele>
        <time>2021-07-02 16:01:17</time>
      </trkpt>
      <trkpt lat="29.13931" lon="-13.45422">
        <ele>4.8</ele>
        <time>2021-07-02 16:01:18</time>
      </trkpt>
      <trkpt lat="29.13935" lon="-13.45418">
        <ele>4.8</ele>
        <time>2021-07-02 16:01:19</time>
      </trkpt>
      <trkpt lat="29.13938" lon="-13.45414">
        <ele>4.6</ele>
        <time>2021-07-02 16:01:20</time>
      </trkpt>
      <trkpt lat="29.13941" lon="-13.4541">
        <ele>4.6</ele>
        <time>2021-07-02 16:01:21</time>
      </trkpt>
      <trkpt lat="29.13945" lon="-13.45407">
        <ele>4.6</ele>
        <time>2021-07-02 16:01:22</time>
      </trkpt>
      <trkpt lat="29.13948" lon="-13.45403">
        <ele>4.6</ele>
        <time>2021-07-02 16:01:23</time>
      </trkpt>
      <trkpt lat="29.13951" lon="-13.45399">
        <ele>4.6</ele>
        <time>2021-07-02 16:01:24</time>
      </trkpt>
      <trkpt lat="29.13954" lon="-13.45395">
        <ele>4.6</ele>
        <time>2021-07-02 16:01:25</time>
      </trkpt>
      <trkpt lat="29.13958" lon="-13.45391">
        <ele>4.6</ele>
        <time>2021-07-02 16:01:26</time>
      </trkpt>
      <trkpt lat="29.13961" lon="-13.45387">
        <ele>4.4</ele>
        <time>2021-07-02 16:01:27</time>
      </trkpt>
      <trkpt lat="29.13964" lon="-13.45384">
        <ele>4.4</ele>
        <time>2021-07-02 16:01:28</time>
      </trkpt>
      <trkpt lat="29.13967" lon="-13.4538">
        <ele>4.4</ele>
        <time>2021-07-02 16:01:29</time>
      </trkpt>
      <trkpt lat="29.1397" lon="-13.45376">
        <ele>4.4</ele>
        <time>2021-07-02 16:01:30</time>
      </trkpt>
      <trkpt lat="29.13974" lon="-13.45373">
        <ele>4.4</ele>
        <time>2021-07-02 16:01:31</time>
      </trkpt>
      <trkpt lat="29.13977" lon="-13.45369">
        <ele>4.2</ele>
        <time>2021-07-02 16:01:32</time>
      </trkpt>
      <trkpt lat="29.13981" lon="-13.45365">
        <ele>4.2</ele>
        <time>2021-07-02 16:01:33</time>
      </trkpt>
      <trkpt lat="29.13984" lon="-13.45361">
        <ele>4.2</ele>
        <time>2021-07-02 16:01:34</time>
      </trkpt>
      <trkpt lat="29.13987" lon="-13.45357">
        <ele>4.2</ele>
        <time>2021-07-02 16:01:35</time>
      </trkpt>
      <trkpt lat="29.1399" lon="-13.45354">
        <ele>4.2</ele>
        <time>2021-07-02 16:01:36</time>
      </trkpt>
      <trkpt lat="29.13993" lon="-13.4535">
        <ele>4.2</ele>
        <time>2021-07-02 16:01:37</time>
      </trkpt>
      <trkpt lat="29.13996" lon="-13.45347">
        <ele>4.4</ele>
        <time>2021-07-02 16:01:38</time>
      </trkpt>
      <trkpt lat="29.13999" lon="-13.45344">
        <ele>4.4</ele>
        <time>2021-07-02 16:01:39</time>
      </trkpt>
      <trkpt lat="29.14001" lon="-13.45341">
        <ele>4.8</ele>
        <time>2021-07-02 16:01:40</time>
      </trkpt>
      <trkpt lat="29.14004" lon="-13.45338">
        <ele>4.8</ele>
        <time>2021-07-02 16:01:41</time>
      </trkpt>
      <trkpt lat="29.14006" lon="-13.45335">
        <ele>5.2</ele>
        <time>2021-07-02 16:01:42</time>
      </trkpt>
      <trkpt lat="29.14008" lon="-13.45332">
        <ele>5.2</ele>
        <time>2021-07-02 16:01:43</time>
      </trkpt>
      <trkpt lat="29.14011" lon="-13.45329">
        <ele>5.4</ele>
        <time>2021-07-02 16:01:44</time>
      </trkpt>
      <trkpt lat="29.14014" lon="-13.45326">
        <ele>5.4</ele>
        <time>2021-07-02 16:01:45</time>
      </trkpt>
      <trkpt lat="29.14016" lon="-13.45324">
        <ele>5.4</ele>
        <time>2021-07-02 16:01:46</time>
      </trkpt>
      <trkpt lat="29.14019" lon="-13.4532">
        <ele>5.4</ele>
        <time>2021-07-02 16:01:47</time>
      </trkpt>
      <trkpt lat="29.14021" lon="-13.45317">
        <ele>5.8</ele>
        <time>2021-07-02 16:01:48</time>
      </trkpt>
      <trkpt lat="29.14024" lon="-13.45314">
        <ele>5.8</ele>
        <time>2021-07-02 16:01:49</time>
      </trkpt>
      <trkpt lat="29.14026" lon="-13.45311">
        <ele>5.8</ele>
        <time>2021-07-02 16:01:50</time>
      </trkpt>
      <trkpt lat="29.14029" lon="-13.45308">
        <ele>5.8</ele>
        <time>2021-07-02 16:01:51</time>
      </trkpt>
      <trkpt lat="29.14031" lon="-13.45305">
        <ele>6</ele>
        <time>2021-07-02 16:01:52</time>
      </trkpt>
      <trkpt lat="29.14034" lon="-13.45302">
        <ele>6</ele>
        <time>2021-07-02 16:01:53</time>
      </trkpt>
      <trkpt lat="29.14037" lon="-13.45299">
        <ele>6</ele>
        <time>2021-07-02 16:01:54</time>
      </trkpt>
      <trkpt lat="29.1404" lon="-13.45296">
        <ele>6</ele>
        <time>2021-07-02 16:01:55</time>
      </trkpt>
      <trkpt lat="29.14043" lon="-13.45292">
        <ele>6</ele>
        <time>2021-07-02 16:01:56</time>
      </trkpt>
      <trkpt lat="29.14046" lon="-13.45289">
        <ele>6</ele>
        <time>2021-07-02 16:01:57</time>
      </trkpt>
      <trkpt lat="29.14049" lon="-13.45286">
        <ele>6</ele>
        <time>2021-07-02 16:01:58</time>
      </trkpt>
      <trkpt lat="29.14052" lon="-13.45282">
        <ele>6</ele>
        <time>2021-07-02 16:01:59</time>
      </trkpt>
      <trkpt lat="29.14055" lon="-13.45279">
        <ele>6</ele>
        <time>2021-07-02 16:02:00</time>
      </trkpt>
      <trkpt lat="29.14058" lon="-13.45276">
        <ele>6</ele>
        <time>2021-07-02 16:02:01</time>
      </trkpt>
      <trkpt lat="29.14061" lon="-13.45272">
        <ele>6</ele>
        <time>2021-07-02 16:02:02</time>
      </trkpt>
      <trkpt lat="29.14063" lon="-13.45269">
        <ele>6</ele>
        <time>2021-07-02 16:02:03</time>
      </trkpt>
      <trkpt lat="29.14066" lon="-13.45266">
        <ele>6.2</ele>
        <time>2021-07-02 16:02:04</time>
      </trkpt>
      <trkpt lat="29.14069" lon="-13.45262">
        <ele>6.2</ele>
        <time>2021-07-02 16:02:05</time>
      </trkpt>
      <trkpt lat="29.14072" lon="-13.45259">
        <ele>6.2</ele>
        <time>2021-07-02 16:02:06</time>
      </trkpt>
      <trkpt lat="29.14075" lon="-13.45256">
        <ele>6.2</ele>
        <time>2021-07-02 16:02:07</time>
      </trkpt>
      <trkpt lat="29.14078" lon="-13.45253">
        <ele>6.6</ele>
        <time>2021-07-02 16:02:08</time>
      </trkpt>
      <trkpt lat="29.14081" lon="-13.4525">
        <ele>6.6</ele>
        <time>2021-07-02 16:02:09</time>
      </trkpt>
      <trkpt lat="29.14084" lon="-13.45247">
        <ele>6.8</ele>
        <time>2021-07-02 16:02:10</time>
      </trkpt>
      <trkpt lat="29.14086" lon="-13.45245">
        <ele>6.8</ele>
        <time>2021-07-02 16:02:11</time>
      </trkpt>
      <trkpt lat="29.14089" lon="-13.45242">
        <ele>6.8</ele>
        <time>2021-07-02 16:02:12</time>
      </trkpt>
      <trkpt lat="29.14092" lon="-13.45239">
        <ele>6.8</ele>
        <time>2021-07-02 16:02:13</time>
      </trkpt>
      <trkpt lat="29.14095" lon="-13.45237">
        <ele>6.8</ele>
        <time>2021-07-02 16:02:14</time>
      </trkpt>
      <trkpt lat="29.14099" lon="-13.45234">
        <ele>6.8</ele>
        <time>2021-07-02 16:02:15</time>
      </trkpt>
      <trkpt lat="29.14102" lon="-13.45232">
        <ele>6.8</ele>
        <time>2021-07-02 16:02:16</time>
      </trkpt>
      <trkpt lat="29.14105" lon="-13.4523">
        <ele>6.8</ele>
        <time>2021-07-02 16:02:17</time>
      </trkpt>
      <trkpt lat="29.14108" lon="-13.45228">
        <ele>6.8</ele>
        <time>2021-07-02 16:02:18</time>
      </trkpt>
      <trkpt lat="29.14111" lon="-13.45226">
        <ele>6.8</ele>
        <time>2021-07-02 16:02:19</time>
      </trkpt>
      <trkpt lat="29.14114" lon="-13.45224">
        <ele>6.8</ele>
        <time>2021-07-02 16:02:20</time>
      </trkpt>
      <trkpt lat="29.14118" lon="-13.45223">
        <ele>7</ele>
        <time>2021-07-02 16:02:21</time>
      </trkpt>
      <trkpt lat="29.14121" lon="-13.45221">
        <ele>7</ele>
        <time>2021-07-02 16:02:22</time>
      </trkpt>
      <trkpt lat="29.14125" lon="-13.45219">
        <ele>7</ele>
        <time>2021-07-02 16:02:23</time>
      </trkpt>
      <trkpt lat="29.14128" lon="-13.45218">
        <ele>7</ele>
        <time>2021-07-02 16:02:24</time>
      </trkpt>
      <trkpt lat="29.14131" lon="-13.45216">
        <ele>7</ele>
        <time>2021-07-02 16:02:25</time>
      </trkpt>
      <trkpt lat="29.14135" lon="-13.45214">
        <ele>7</ele>
        <time>2021-07-02 16:02:26</time>
      </trkpt>
      <trkpt lat="29.14138" lon="-13.45213">
        <ele>7</ele>
        <time>2021-07-02 16:02:27</time>
      </trkpt>
      <trkpt lat="29.14141" lon="-13.45211">
        <ele>7.4</ele>
        <time>2021-07-02 16:02:28</time>
      </trkpt>
      <trkpt lat="29.14145" lon="-13.4521">
        <ele>7.6</ele>
        <time>2021-07-02 16:02:29</time>
      </trkpt>
      <trkpt lat="29.14148" lon="-13.45208">
        <ele>7.6</ele>
        <time>2021-07-02 16:02:30</time>
      </trkpt>
      <trkpt lat="29.14151" lon="-13.45206">
        <ele>7.8</ele>
        <time>2021-07-02 16:02:31</time>
      </trkpt>
      <trkpt lat="29.14155" lon="-13.45204">
        <ele>7.8</ele>
        <time>2021-07-02 16:02:32</time>
      </trkpt>
      <trkpt lat="29.14158" lon="-13.45203">
        <ele>7.8</ele>
        <time>2021-07-02 16:02:33</time>
      </trkpt>
      <trkpt lat="29.14161" lon="-13.45201">
        <ele>8</ele>
        <time>2021-07-02 16:02:34</time>
      </trkpt>
      <trkpt lat="29.14165" lon="-13.45199">
        <ele>8</ele>
        <time>2021-07-02 16:02:35</time>
      </trkpt>
      <trkpt lat="29.14168" lon="-13.45197">
        <ele>8</ele>
        <time>2021-07-02 16:02:36</time>
      </trkpt>
      <trkpt lat="29.14172" lon="-13.45196">
        <ele>8</ele>
        <time>2021-07-02 16:02:37</time>
      </trkpt>
      <trkpt lat="29.14175" lon="-13.45194">
        <ele>8.2</ele>
        <time>2021-07-02 16:02:38</time>
      </trkpt>
      <trkpt lat="29.14179" lon="-13.45192">
        <ele>8.2</ele>
        <time>2021-07-02 16:02:39</time>
      </trkpt>
      <trkpt lat="29.14182" lon="-13.4519">
        <ele>8.2</ele>
        <time>2021-07-02 16:02:40</time>
      </trkpt>
      <trkpt lat="29.14186" lon="-13.45189">
        <ele>8.2</ele>
        <time>2021-07-02 16:02:41</time>
      </trkpt>
      <trkpt lat="29.14189" lon="-13.45187">
        <ele>8</ele>
        <time>2021-07-02 16:02:42</time>
      </trkpt>
      <trkpt lat="29.14193" lon="-13.45186">
        <ele>8</ele>
        <time>2021-07-02 16:02:43</time>
      </trkpt>
      <trkpt lat="29.14196" lon="-13.45184">
        <ele>8</ele>
        <time>2021-07-02 16:02:44</time>
      </trkpt>
      <trkpt lat="29.142" lon="-13.45182">
        <ele>8</ele>
        <time>2021-07-02 16:02:45</time>
      </trkpt>
      <trkpt lat="29.14203" lon="-13.4518">
        <ele>8</ele>
        <time>2021-07-02 16:02:46</time>
      </trkpt>
      <trkpt lat="29.14207" lon="-13.45178">
        <ele>8</ele>
        <time>2021-07-02 16:02:47</time>
      </trkpt>
      <trkpt lat="29.1421" lon="-13.45177">
        <ele>8.4</ele>
        <time>2021-07-02 16:02:48</time>
      </trkpt>
      <trkpt lat="29.14214" lon="-13.45175">
        <ele>8.4</ele>
        <time>2021-07-02 16:02:49</time>
      </trkpt>
      <trkpt lat="29.14217" lon="-13.45173">
        <ele>8.6</ele>
        <time>2021-07-02 16:02:50</time>
      </trkpt>
      <trkpt lat="29.1422" lon="-13.45171">
        <ele>8.6</ele>
        <time>2021-07-02 16:02:51</time>
      </trkpt>
      <trkpt lat="29.14223" lon="-13.4517">
        <ele>9</ele>
        <time>2021-07-02 16:02:52</time>
      </trkpt>
      <trkpt lat="29.14226" lon="-13.45168">
        <ele>9.2</ele>
        <time>2021-07-02 16:02:53</time>
      </trkpt>
      <trkpt lat="29.14229" lon="-13.45167">
        <ele>9.6</ele>
        <time>2021-07-02 16:02:54</time>
      </trkpt>
      <trkpt lat="29.14233" lon="-13.45165">
        <ele>9.8</ele>
        <time>2021-07-02 16:02:55</time>
      </trkpt>
      <trkpt lat="29.14236" lon="-13.45164">
        <ele>10</ele>
        <time>2021-07-02 16:02:56</time>
      </trkpt>
      <trkpt lat="29.14239" lon="-13.45162">
        <ele>10</ele>
        <time>2021-07-02 16:02:57</time>
      </trkpt>
      <trkpt lat="29.14243" lon="-13.45161">
        <ele>10.2</ele>
        <time>2021-07-02 16:02:58</time>
      </trkpt>
      <trkpt lat="29.14246" lon="-13.45159">
        <ele>10.2</ele>
        <time>2021-07-02 16:02:59</time>
      </trkpt>
      <trkpt lat="29.14249" lon="-13.45157">
        <ele>10.2</ele>
        <time>2021-07-02 16:03:00</time>
      </trkpt>
      <trkpt lat="29.14253" lon="-13.45156">
        <ele>10.4</ele>
        <time>2021-07-02 16:03:01</time>
      </trkpt>
      <trkpt lat="29.14256" lon="-13.45154">
        <ele>10.4</ele>
        <time>2021-07-02 16:03:02</time>
      </trkpt>
      <trkpt lat="29.1426" lon="-13.45152">
        <ele>10.4</ele>
        <time>2021-07-02 16:03:03</time>
      </trkpt>
      <trkpt lat="29.14263" lon="-13.45151">
        <ele>10.6</ele>
        <time>2021-07-02 16:03:04</time>
      </trkpt>
      <trkpt lat="29.14266" lon="-13.45149">
        <ele>10.6</ele>
        <time>2021-07-02 16:03:05</time>
      </trkpt>
      <trkpt lat="29.1427" lon="-13.45148">
        <ele>11</ele>
        <time>2021-07-02 16:03:06</time>
      </trkpt>
      <trkpt lat="29.14273" lon="-13.45146">
        <ele>11</ele>
        <time>2021-07-02 16:03:07</time>
      </trkpt>
      <trkpt lat="29.14276" lon="-13.45144">
        <ele>11</ele>
        <time>2021-07-02 16:03:08</time>
      </trkpt>
      <trkpt lat="29.1428" lon="-13.45142">
        <ele>11</ele>
        <time>2021-07-02 16:03:09</time>
      </trkpt>
      <trkpt lat="29.14284" lon="-13.4514">
        <ele>11.2</ele>
        <time>2021-07-02 16:03:10</time>
      </trkpt>
      <trkpt lat="29.14288" lon="-13.45139">
        <ele>11.2</ele>
        <time>2021-07-02 16:03:11</time>
      </trkpt>
      <trkpt lat="29.14291" lon="-13.45137">
        <ele>11.2</ele>
        <time>2021-07-02 16:03:12</time>
      </trkpt>
      <trkpt lat="29.14295" lon="-13.45135">
        <ele>11.2</ele>
        <time>2021-07-02 16:03:13</time>
      </trkpt>
      <trkpt lat="29.14299" lon="-13.45134">
        <ele>11.2</ele>
        <time>2021-07-02 16:03:14</time>
      </trkpt>
      <trkpt lat="29.14303" lon="-13.45132">
        <ele>11.2</ele>
        <time>2021-07-02 16:03:15</time>
      </trkpt>
      <trkpt lat="29.14307" lon="-13.45131">
        <ele>11.2</ele>
        <time>2021-07-02 16:03:16</time>
      </trkpt>
      <trkpt lat="29.14311" lon="-13.45129">
        <ele>11.2</ele>
        <time>2021-07-02 16:03:17</time>
      </trkpt>
      <trkpt lat="29.14315" lon="-13.45127">
        <ele>11.2</ele>
        <time>2021-07-02 16:03:18</time>
      </trkpt>
      <trkpt lat="29.14319" lon="-13.45126">
        <ele>11.2</ele>
        <time>2021-07-02 16:03:19</time>
      </trkpt>
      <trkpt lat="29.14323" lon="-13.45123">
        <ele>11</ele>
        <time>2021-07-02 16:03:20</time>
      </trkpt>
      <trkpt lat="29.14327" lon="-13.45121">
        <ele>11</ele>
        <time>2021-07-02 16:03:21</time>
      </trkpt>
      <trkpt lat="29.1433" lon="-13.45119">
        <ele>11</ele>
        <time>2021-07-02 16:03:22</time>
      </trkpt>
      <trkpt lat="29.14334" lon="-13.45118">
        <ele>11</ele>
        <time>2021-07-02 16:03:23</time>
      </trkpt>
      <trkpt lat="29.14338" lon="-13.45116">
        <ele>11</ele>
        <time>2021-07-02 16:03:24</time>
      </trkpt>
      <trkpt lat="29.14342" lon="-13.45114">
        <ele>10.6</ele>
        <time>2021-07-02 16:03:25</time>
      </trkpt>
      <trkpt lat="29.14345" lon="-13.45112">
        <ele>10.6</ele>
        <time>2021-07-02 16:03:26</time>
      </trkpt>
      <trkpt lat="29.14349" lon="-13.45109">
        <ele>10.4</ele>
        <time>2021-07-02 16:03:27</time>
      </trkpt>
      <trkpt lat="29.14353" lon="-13.45107">
        <ele>10.4</ele>
        <time>2021-07-02 16:03:28</time>
      </trkpt>
      <trkpt lat="29.14357" lon="-13.45103">
        <ele>10.4</ele>
        <time>2021-07-02 16:03:29</time>
      </trkpt>
      <trkpt lat="29.1436" lon="-13.45101">
        <ele>10</ele>
        <time>2021-07-02 16:03:30</time>
      </trkpt>
      <trkpt lat="29.14364" lon="-13.45098">
        <ele>10</ele>
        <time>2021-07-02 16:03:31</time>
      </trkpt>
      <trkpt lat="29.14367" lon="-13.45095">
        <ele>9.8</ele>
        <time>2021-07-02 16:03:32</time>
      </trkpt>
      <trkpt lat="29.1437" lon="-13.45092">
        <ele>9.8</ele>
        <time>2021-07-02 16:03:33</time>
      </trkpt>
      <trkpt lat="29.14373" lon="-13.45089">
        <ele>9.8</ele>
        <time>2021-07-02 16:03:34</time>
      </trkpt>
      <trkpt lat="29.14377" lon="-13.45086">
        <ele>9.4</ele>
        <time>2021-07-02 16:03:35</time>
      </trkpt>
      <trkpt lat="29.1438" lon="-13.45083">
        <ele>9.4</ele>
        <time>2021-07-02 16:03:36</time>
      </trkpt>
      <trkpt lat="29.14383" lon="-13.4508">
        <ele>9.4</ele>
        <time>2021-07-02 16:03:37</time>
      </trkpt>
      <trkpt lat="29.14385" lon="-13.45077">
        <ele>9.4</ele>
        <time>2021-07-02 16:03:38</time>
      </trkpt>
      <trkpt lat="29.14388" lon="-13.45075">
        <ele>9.8</ele>
        <time>2021-07-02 16:03:39</time>
      </trkpt>
      <trkpt lat="29.14391" lon="-13.45072">
        <ele>9.8</ele>
        <time>2021-07-02 16:03:40</time>
      </trkpt>
      <trkpt lat="29.14394" lon="-13.45069">
        <ele>10</ele>
        <time>2021-07-02 16:03:41</time>
      </trkpt>
      <trkpt lat="29.14397" lon="-13.45066">
        <ele>10</ele>
        <time>2021-07-02 16:03:42</time>
      </trkpt>
      <trkpt lat="29.144" lon="-13.45063">
        <ele>10.2</ele>
        <time>2021-07-02 16:03:43</time>
      </trkpt>
      <trkpt lat="29.14403" lon="-13.45061">
        <ele>10.4</ele>
        <time>2021-07-02 16:03:44</time>
      </trkpt>
      <trkpt lat="29.14406" lon="-13.45058">
        <ele>10.4</ele>
        <time>2021-07-02 16:03:45</time>
      </trkpt>
      <trkpt lat="29.14409" lon="-13.45056">
        <ele>10.6</ele>
        <time>2021-07-02 16:03:46</time>
      </trkpt>
      <trkpt lat="29.14412" lon="-13.45053">
        <ele>10.6</ele>
        <time>2021-07-02 16:03:47</time>
      </trkpt>
      <trkpt lat="29.14415" lon="-13.4505">
        <ele>10.6</ele>
        <time>2021-07-02 16:03:48</time>
      </trkpt>
      <trkpt lat="29.14419" lon="-13.45048">
        <ele>10.6</ele>
        <time>2021-07-02 16:03:49</time>
      </trkpt>
      <trkpt lat="29.14423" lon="-13.45045">
        <ele>10.4</ele>
        <time>2021-07-02 16:03:50</time>
      </trkpt>
      <trkpt lat="29.14426" lon="-13.45042">
        <ele>10.2</ele>
        <time>2021-07-02 16:03:51</time>
      </trkpt>
      <trkpt lat="29.1443" lon="-13.45038">
        <ele>9.8</ele>
        <time>2021-07-02 16:03:52</time>
      </trkpt>
      <trkpt lat="29.14435" lon="-13.45034">
        <ele>9.6</ele>
        <time>2021-07-02 16:03:53</time>
      </trkpt>
      <trkpt lat="29.14439" lon="-13.45031">
        <ele>9.2</ele>
        <time>2021-07-02 16:03:54</time>
      </trkpt>
      <trkpt lat="29.14443" lon="-13.45028">
        <ele>9</ele>
        <time>2021-07-02 16:03:55</time>
      </trkpt>
      <trkpt lat="29.14447" lon="-13.45024">
        <ele>8.8</ele>
        <time>2021-07-02 16:03:56</time>
      </trkpt>
      <trkpt lat="29.14451" lon="-13.45022">
        <ele>8.4</ele>
        <time>2021-07-02 16:03:57</time>
      </trkpt>
      <trkpt lat="29.14455" lon="-13.45019">
        <ele>8.2</ele>
        <time>2021-07-02 16:03:58</time>
      </trkpt>
      <trkpt lat="29.14457" lon="-13.45015">
        <ele>8</ele>
        <time>2021-07-02 16:03:59</time>
      </trkpt>
      <trkpt lat="29.1446" lon="-13.45013">
        <ele>8</ele>
        <time>2021-07-02 16:04:00</time>
      </trkpt>
      <trkpt lat="29.14463" lon="-13.45011">
        <ele>8</ele>
        <time>2021-07-02 16:04:01</time>
      </trkpt>
      <trkpt lat="29.14466" lon="-13.45009">
        <ele>8</ele>
        <time>2021-07-02 16:04:02</time>
      </trkpt>
      <trkpt lat="29.14468" lon="-13.45006">
        <ele>8</ele>
        <time>2021-07-02 16:04:03</time>
      </trkpt>
      <trkpt lat="29.1447" lon="-13.45004">
        <ele>8</ele>
        <time>2021-07-02 16:04:04</time>
      </trkpt>
      <trkpt lat="29.14473" lon="-13.45001">
        <ele>8.2</ele>
        <time>2021-07-02 16:04:05</time>
      </trkpt>
      <trkpt lat="29.14476" lon="-13.44999">
        <ele>8.2</ele>
        <time>2021-07-02 16:04:06</time>
      </trkpt>
      <trkpt lat="29.14478" lon="-13.44997">
        <ele>8.6</ele>
        <time>2021-07-02 16:04:07</time>
      </trkpt>
      <trkpt lat="29.1448" lon="-13.44995">
        <ele>8.6</ele>
        <time>2021-07-02 16:04:08</time>
      </trkpt>
      <trkpt lat="29.14482" lon="-13.44994">
        <ele>9</ele>
        <time>2021-07-02 16:04:09</time>
      </trkpt>
      <trkpt lat="29.14483" lon="-13.44993">
        <ele>9.2</ele>
        <time>2021-07-02 16:04:10</time>
      </trkpt>
      <trkpt lat="29.14483" lon="-13.44993">
        <ele>9.2</ele>
        <time>2021-07-02 16:04:11</time>
      </trkpt>
      <trkpt lat="29.14482" lon="-13.44993">
        <ele>9.4</ele>
        <time>2021-07-02 16:04:12</time>
      </trkpt>
      <trkpt lat="29.14482" lon="-13.44992">
        <ele>8.6</ele>
        <time>2021-07-02 16:04:13</time>
      </trkpt>
      <trkpt lat="29.14481" lon="-13.44991">
        <ele>8.6</ele>
        <time>2021-07-02 16:04:14</time>
      </trkpt>
      <trkpt lat="29.14479" lon="-13.44991">
        <ele>8.4</ele>
        <time>2021-07-02 16:04:15</time>
      </trkpt>
      <trkpt lat="29.14478" lon="-13.44991">
        <ele>8.4</ele>
        <time>2021-07-02 16:04:16</time>
      </trkpt>
      <trkpt lat="29.14476" lon="-13.44992">
        <ele>8</ele>
        <time>2021-07-02 16:04:17</time>
      </trkpt>
      <trkpt lat="29.14475" lon="-13.44992">
        <ele>8</ele>
        <time>2021-07-02 16:04:18</time>
      </trkpt>
      <trkpt lat="29.14474" lon="-13.44993">
        <ele>8</ele>
        <time>2021-07-02 16:04:19</time>
      </trkpt>
      <trkpt lat="29.14473" lon="-13.44995">
        <ele>7.6</ele>
        <time>2021-07-02 16:04:20</time>
      </trkpt>
      <trkpt lat="29.14471" lon="-13.44996">
        <ele>7.6</ele>
        <time>2021-07-02 16:04:21</time>
      </trkpt>
      <trkpt lat="29.1447" lon="-13.44997">
        <ele>7.6</ele>
        <time>2021-07-02 16:04:22</time>
      </trkpt>
      <trkpt lat="29.14469" lon="-13.44998">
        <ele>7.6</ele>
        <time>2021-07-02 16:04:23</time>
      </trkpt>
      <trkpt lat="29.14469" lon="-13.44999">
        <ele>7.6</ele>
        <time>2021-07-02 16:04:24</time>
      </trkpt>
      <trkpt lat="29.14468" lon="-13.45">
        <ele>7.6</ele>
        <time>2021-07-02 16:04:25</time>
      </trkpt>
      <trkpt lat="29.14467" lon="-13.45001">
        <ele>7.6</ele>
        <time>2021-07-02 16:04:26</time>
      </trkpt>
      <trkpt lat="29.14467" lon="-13.45003">
        <ele>7.4</ele>
        <time>2021-07-02 16:04:27</time>
      </trkpt>
      <trkpt lat="29.14468" lon="-13.45004">
        <ele>7.4</ele>
        <time>2021-07-02 16:04:28</time>
      </trkpt>
      <trkpt lat="29.1447" lon="-13.45005">
        <ele>7.4</ele>
        <time>2021-07-02 16:04:29</time>
      </trkpt>
      <trkpt lat="29.14471" lon="-13.45004">
        <ele>7.8</ele>
        <time>2021-07-02 16:04:30</time>
      </trkpt>
      <trkpt lat="29.14471" lon="-13.45003">
        <ele>8</ele>
        <time>2021-07-02 16:04:31</time>
      </trkpt>
      <trkpt lat="29.14471" lon="-13.45002">
        <ele>8.2</ele>
        <time>2021-07-02 16:04:32</time>
      </trkpt>
      <trkpt lat="29.14471" lon="-13.45">
        <ele>8.4</ele>
        <time>2021-07-02 16:04:33</time>
      </trkpt>
      <trkpt lat="29.14471" lon="-13.44999">
        <ele>8.6</ele>
        <time>2021-07-02 16:04:34</time>
      </trkpt>
      <trkpt lat="29.14471" lon="-13.44998">
        <ele>8.6</ele>
        <time>2021-07-02 16:04:35</time>
      </trkpt>
      <trkpt lat="29.1447" lon="-13.44997">
        <ele>9</ele>
        <time>2021-07-02 16:04:36</time>
      </trkpt>
      <trkpt lat="29.1447" lon="-13.44997">
        <ele>9</ele>
        <time>2021-07-02 16:04:37</time>
      </trkpt>
      <trkpt lat="29.1447" lon="-13.44998">
        <ele>9.2</ele>
        <time>2021-07-02 16:04:38</time>
      </trkpt>
      <trkpt lat="29.1447" lon="-13.44998">
        <ele>9.2</ele>
        <time>2021-07-02 16:04:39</time>
      </trkpt>
      <trkpt lat="29.1447" lon="-13.44996">
        <ele>8.6</ele>
        <time>2021-07-02 16:04:40</time>
      </trkpt>
      <trkpt lat="29.14472" lon="-13.44995">
        <ele>8.4</ele>
        <time>2021-07-02 16:04:41</time>
      </trkpt>
      <trkpt lat="29.14473" lon="-13.44995">
        <ele>8.4</ele>
        <time>2021-07-02 16:04:42</time>
      </trkpt>
      <trkpt lat="29.14475" lon="-13.44995">
        <ele>8.2</ele>
        <time>2021-07-02 16:04:43</time>
      </trkpt>
      <trkpt lat="29.14478" lon="-13.44994">
        <ele>8.2</ele>
        <time>2021-07-02 16:04:44</time>
      </trkpt>
      <trkpt lat="29.1448" lon="-13.44993">
        <ele>8</ele>
        <time>2021-07-02 16:04:45</time>
      </trkpt>
      <trkpt lat="29.14482" lon="-13.44992">
        <ele>8</ele>
        <time>2021-07-02 16:04:46</time>
      </trkpt>
      <trkpt lat="29.14485" lon="-13.4499">
        <ele>7.8</ele>
        <time>2021-07-02 16:04:47</time>
      </trkpt>
      <trkpt lat="29.14488" lon="-13.44989">
        <ele>7.8</ele>
        <time>2021-07-02 16:04:48</time>
      </trkpt>
      <trkpt lat="29.14491" lon="-13.44987">
        <ele>7.8</ele>
        <time>2021-07-02 16:04:49</time>
      </trkpt>
      <trkpt lat="29.14493" lon="-13.44985">
        <ele>7.8</ele>
        <time>2021-07-02 16:04:50</time>
      </trkpt>
      <trkpt lat="29.14496" lon="-13.44983">
        <ele>7.8</ele>
        <time>2021-07-02 16:04:51</time>
      </trkpt>
      <trkpt lat="29.14498" lon="-13.4498">
        <ele>8</ele>
        <time>2021-07-02 16:04:52</time>
      </trkpt>
      <trkpt lat="29.14501" lon="-13.44978">
        <ele>8</ele>
        <time>2021-07-02 16:04:53</time>
      </trkpt>
      <trkpt lat="29.14503" lon="-13.44975">
        <ele>8.4</ele>
        <time>2021-07-02 16:04:54</time>
      </trkpt>
      <trkpt lat="29.14506" lon="-13.44973">
        <ele>8.4</ele>
        <time>2021-07-02 16:04:55</time>
      </trkpt>
      <trkpt lat="29.14508" lon="-13.4497">
        <ele>8.8</ele>
        <time>2021-07-02 16:04:56</time>
      </trkpt>
      <trkpt lat="29.14511" lon="-13.44968">
        <ele>8.8</ele>
        <time>2021-07-02 16:04:57</time>
      </trkpt>
      <trkpt lat="29.14514" lon="-13.44966">
        <ele>9</ele>
        <time>2021-07-02 16:04:58</time>
      </trkpt>
      <trkpt lat="29.14517" lon="-13.44963">
        <ele>9</ele>
        <time>2021-07-02 16:04:59</time>
      </trkpt>
      <trkpt lat="29.1452" lon="-13.44962">
        <ele>9.2</ele>
        <time>2021-07-02 16:05:00</time>
      </trkpt>
      <trkpt lat="29.14523" lon="-13.4496">
        <ele>9.2</ele>
        <time>2021-07-02 16:05:01</time>
      </trkpt>
      <trkpt lat="29.14526" lon="-13.44958">
        <ele>9.2</ele>
        <time>2021-07-02 16:05:02</time>
      </trkpt>
      <trkpt lat="29.14529" lon="-13.44955">
        <ele>9.2</ele>
        <time>2021-07-02 16:05:03</time>
      </trkpt>
      <trkpt lat="29.14532" lon="-13.44953">
        <ele>9.2</ele>
        <time>2021-07-02 16:05:04</time>
      </trkpt>
      <trkpt lat="29.14535" lon="-13.44951">
        <ele>9.2</ele>
        <time>2021-07-02 16:05:05</time>
      </trkpt>
      <trkpt lat="29.14538" lon="-13.44949">
        <ele>9.2</ele>
        <time>2021-07-02 16:05:06</time>
      </trkpt>
      <trkpt lat="29.14541" lon="-13.44946">
        <ele>9.2</ele>
        <time>2021-07-02 16:05:07</time>
      </trkpt>
      <trkpt lat="29.14544" lon="-13.44944">
        <ele>9.2</ele>
        <time>2021-07-02 16:05:08</time>
      </trkpt>
      <trkpt lat="29.14547" lon="-13.44941">
        <ele>9.2</ele>
        <time>2021-07-02 16:05:09</time>
      </trkpt>
      <trkpt lat="29.1455" lon="-13.44939">
        <ele>9.2</ele>
        <time>2021-07-02 16:05:10</time>
      </trkpt>
      <trkpt lat="29.14553" lon="-13.44937">
        <ele>9.2</ele>
        <time>2021-07-02 16:05:11</time>
      </trkpt>
      <trkpt lat="29.14557" lon="-13.44935">
        <ele>9.2</ele>
        <time>2021-07-02 16:05:12</time>
      </trkpt>
      <trkpt lat="29.1456" lon="-13.44933">
        <ele>9.2</ele>
        <time>2021-07-02 16:05:13</time>
      </trkpt>
      <trkpt lat="29.14564" lon="-13.4493">
        <ele>9.2</ele>
        <time>2021-07-02 16:05:14</time>
      </trkpt>
      <trkpt lat="29.14567" lon="-13.44928">
        <ele>9</ele>
        <time>2021-07-02 16:05:15</time>
      </trkpt>
      <trkpt lat="29.14571" lon="-13.44925">
        <ele>9</ele>
        <time>2021-07-02 16:05:16</time>
      </trkpt>
      <trkpt lat="29.14575" lon="-13.44922">
        <ele>9</ele>
        <time>2021-07-02 16:05:17</time>
      </trkpt>
      <trkpt lat="29.14578" lon="-13.44919">
        <ele>9</ele>
        <time>2021-07-02 16:05:18</time>
      </trkpt>
      <trkpt lat="29.14582" lon="-13.44917">
        <ele>9</ele>
        <time>2021-07-02 16:05:19</time>
      </trkpt>
      <trkpt lat="29.14585" lon="-13.44914">
        <ele>8.8</ele>
        <time>2021-07-02 16:05:28</time>
      </trkpt>
      <trkpt lat="29.14589" lon="-13.44911">
        <ele>8.8</ele>
        <time>2021-07-02 16:05:29</time>
      </trkpt>
      <trkpt lat="29.14593" lon="-13.44908">
        <ele>8.8</ele>
        <time>2021-07-02 16:05:30</time>
      </trkpt>
      <trkpt lat="29.14596" lon="-13.44906">
        <ele>8.8</ele>
        <time>2021-07-02 16:05:31</time>
      </trkpt>
      <trkpt lat="29.14599" lon="-13.44903">
        <ele>8.8</ele>
        <time>2021-07-02 16:05:32</time>
      </trkpt>
      <trkpt lat="29.14602" lon="-13.449">
        <ele>8.8</ele>
        <time>2021-07-02 16:05:33</time>
      </trkpt>
      <trkpt lat="29.14606" lon="-13.44898">
        <ele>8.8</ele>
        <time>2021-07-02 16:05:34</time>
      </trkpt>
      <trkpt lat="29.14609" lon="-13.44895">
        <ele>8.8</ele>
        <time>2021-07-02 16:05:35</time>
      </trkpt>
      <trkpt lat="29.14612" lon="-13.44892">
        <ele>8.8</ele>
        <time>2021-07-02 16:05:36</time>
      </trkpt>
      <trkpt lat="29.14615" lon="-13.4489">
        <ele>9</ele>
        <time>2021-07-02 16:05:37</time>
      </trkpt>
      <trkpt lat="29.14618" lon="-13.44887">
        <ele>9</ele>
        <time>2021-07-02 16:05:38</time>
      </trkpt>
      <trkpt lat="29.14621" lon="-13.44884">
        <ele>9</ele>
        <time>2021-07-02 16:05:39</time>
      </trkpt>
      <trkpt lat="29.14625" lon="-13.44882">
        <ele>9</ele>
        <time>2021-07-02 16:05:40</time>
      </trkpt>
      <trkpt lat="29.14628" lon="-13.44879">
        <ele>8.8</ele>
        <time>2021-07-02 16:05:41</time>
      </trkpt>
      <trkpt lat="29.14631" lon="-13.44876">
        <ele>8.8</ele>
        <time>2021-07-02 16:05:42</time>
      </trkpt>
      <trkpt lat="29.14634" lon="-13.44874">
        <ele>8.8</ele>
        <time>2021-07-02 16:05:43</time>
      </trkpt>
      <trkpt lat="29.14637" lon="-13.44871">
        <ele>8.8</ele>
        <time>2021-07-02 16:05:44</time>
      </trkpt>
      <trkpt lat="29.1464" lon="-13.44869">
        <ele>8.8</ele>
        <time>2021-07-02 16:05:45</time>
      </trkpt>
      <trkpt lat="29.14643" lon="-13.44867">
        <ele>8.8</ele>
        <time>2021-07-02 16:05:46</time>
      </trkpt>
      <trkpt lat="29.14646" lon="-13.44865">
        <ele>8.8</ele>
        <time>2021-07-02 16:05:47</time>
      </trkpt>
      <trkpt lat="29.14649" lon="-13.44864">
        <ele>8.8</ele>
        <time>2021-07-02 16:05:48</time>
      </trkpt>
      <trkpt lat="29.14652" lon="-13.44864">
        <ele>8.8</ele>
        <time>2021-07-02 16:05:49</time>
      </trkpt>
      <trkpt lat="29.14656" lon="-13.44866">
        <ele>8.8</ele>
        <time>2021-07-02 16:05:50</time>
      </trkpt>
      <trkpt lat="29.14659" lon="-13.44868">
        <ele>8.8</ele>
        <time>2021-07-02 16:05:51</time>
      </trkpt>
      <trkpt lat="29.14661" lon="-13.44871">
        <ele>8.8</ele>
        <time>2021-07-02 16:05:52</time>
      </trkpt>
      <trkpt lat="29.14663" lon="-13.44874">
        <ele>8.8</ele>
        <time>2021-07-02 16:05:53</time>
      </trkpt>
      <trkpt lat="29.14665" lon="-13.44877">
        <ele>9</ele>
        <time>2021-07-02 16:05:54</time>
      </trkpt>
      <trkpt lat="29.14667" lon="-13.44881">
        <ele>9</ele>
        <time>2021-07-02 16:07:54</time>
      </trkpt>
      <trkpt lat="29.14669" lon="-13.44884">
        <ele>9.4</ele>
        <time>2021-07-02 16:07:55</time>
      </trkpt>
      <trkpt lat="29.1467" lon="-13.44888">
        <ele>9.4</ele>
        <time>2021-07-02 16:07:56</time>
      </trkpt>
      <trkpt lat="29.14672" lon="-13.44892">
        <ele>9.6</ele>
        <time>2021-07-02 16:07:57</time>
      </trkpt>
      <trkpt lat="29.14674" lon="-13.44896">
        <ele>9.6</ele>
        <time>2021-07-02 16:07:58</time>
      </trkpt>
      <trkpt lat="29.14676" lon="-13.44899">
        <ele>9.6</ele>
        <time>2021-07-02 16:07:59</time>
      </trkpt>
      <trkpt lat="29.14677" lon="-13.44903">
        <ele>9.6</ele>
        <time>2021-07-02 16:08:00</time>
      </trkpt>
      <trkpt lat="29.14679" lon="-13.44907">
        <ele>9.6</ele>
        <time>2021-07-02 16:08:01</time>
      </trkpt>
      <trkpt lat="29.14681" lon="-13.4491">
        <ele>9.6</ele>
        <time>2021-07-02 16:08:02</time>
      </trkpt>
      <trkpt lat="29.14684" lon="-13.44913">
        <ele>10</ele>
        <time>2021-07-02 16:08:03</time>
      </trkpt>
      <trkpt lat="29.14686" lon="-13.44917">
        <ele>10</ele>
        <time>2021-07-02 16:08:04</time>
      </trkpt>
      <trkpt lat="29.14688" lon="-13.4492">
        <ele>10</ele>
        <time>2021-07-02 16:08:05</time>
      </trkpt>
      <trkpt lat="29.1469" lon="-13.44924">
        <ele>10.2</ele>
        <time>2021-07-02 16:08:06</time>
      </trkpt>
      <trkpt lat="29.14692" lon="-13.44927">
        <ele>10.2</ele>
        <time>2021-07-02 16:08:07</time>
      </trkpt>
      <trkpt lat="29.14694" lon="-13.44931">
        <ele>10.6</ele>
        <time>2021-07-02 16:08:08</time>
      </trkpt>
      <trkpt lat="29.14696" lon="-13.44934">
        <ele>10.6</ele>
        <time>2021-07-02 16:08:09</time>
      </trkpt>
      <trkpt lat="29.14697" lon="-13.44938">
        <ele>11</ele>
        <time>2021-07-02 16:08:10</time>
      </trkpt>
      <trkpt lat="29.14699" lon="-13.44941">
        <ele>11.2</ele>
        <time>2021-07-02 16:08:11</time>
      </trkpt>
      <trkpt lat="29.14701" lon="-13.44944">
        <ele>11.4</ele>
        <time>2021-07-02 16:08:12</time>
      </trkpt>
      <trkpt lat="29.14703" lon="-13.44948">
        <ele>11.6</ele>
        <time>2021-07-02 16:08:13</time>
      </trkpt>
      <trkpt lat="29.14705" lon="-13.44951">
        <ele>11.6</ele>
        <time>2021-07-02 16:08:14</time>
      </trkpt>
      <trkpt lat="29.14707" lon="-13.44955">
        <ele>12</ele>
        <time>2021-07-02 16:08:15</time>
      </trkpt>
      <trkpt lat="29.14708" lon="-13.44958">
        <ele>12</ele>
        <time>2021-07-02 16:08:16</time>
      </trkpt>
      <trkpt lat="29.14711" lon="-13.44961">
        <ele>12</ele>
        <time>2021-07-02 16:08:17</time>
      </trkpt>
      <trkpt lat="29.14713" lon="-13.44962">
        <ele>12.2</ele>
        <time>2021-07-02 16:08:18</time>
      </trkpt>
      <trkpt lat="29.14714" lon="-13.44962">
        <ele>12.2</ele>
        <time>2021-07-02 16:08:19</time>
      </trkpt>
      <trkpt lat="29.14716" lon="-13.44962">
        <ele>12.6</ele>
        <time>2021-07-02 16:08:20</time>
      </trkpt>
      <trkpt lat="29.14716" lon="-13.44961">
        <ele>12.6</ele>
        <time>2021-07-02 16:08:21</time>
      </trkpt>
      <trkpt lat="29.14717" lon="-13.44961">
        <ele>12.8</ele>
        <time>2021-07-02 16:08:22</time>
      </trkpt>
      <trkpt lat="29.14717" lon="-13.44961">
        <ele>12.8</ele>
        <time>2021-07-02 16:08:23</time>
      </trkpt>
      <trkpt lat="29.14718" lon="-13.44961">
        <ele>12.8</ele>
        <time>2021-07-02 16:08:24</time>
      </trkpt>
      <trkpt lat="29.14718" lon="-13.44961">
        <ele>12.8</ele>
        <time>2021-07-02 16:08:25</time>
      </trkpt>
      <trkpt lat="29.14718" lon="-13.44961">
        <ele>12.8</ele>
        <time>2021-07-02 16:08:26</time>
      </trkpt>
      <trkpt lat="29.1472" lon="-13.4496">
        <ele>12.8</ele>
        <time>2021-07-02 16:08:27</time>
      </trkpt>
      <trkpt lat="29.14722" lon="-13.44959">
        <ele>12.8</ele>
        <time>2021-07-02 16:08:28</time>
      </trkpt>
      <trkpt lat="29.14724" lon="-13.44957">
        <ele>12.8</ele>
        <time>2021-07-02 16:08:29</time>
      </trkpt>
      <trkpt lat="29.14726" lon="-13.44954">
        <ele>12.8</ele>
        <time>2021-07-02 16:08:30</time>
      </trkpt>
      <trkpt lat="29.14728" lon="-13.44951">
        <ele>13.2</ele>
        <time>2021-07-02 16:08:31</time>
      </trkpt>
      <trkpt lat="29.1473" lon="-13.44948">
        <ele>13.2</ele>
        <time>2021-07-02 16:08:32</time>
      </trkpt>
      <trkpt lat="29.14732" lon="-13.44944">
        <ele>13.2</ele>
        <time>2021-07-02 16:08:33</time>
      </trkpt>
      <trkpt lat="29.14735" lon="-13.4494">
        <ele>13.2</ele>
        <time>2021-07-02 16:08:34</time>
      </trkpt>
      <trkpt lat="29.14737" lon="-13.44936">
        <ele>13.2</ele>
        <time>2021-07-02 16:08:35</time>
      </trkpt>
      <trkpt lat="29.14739" lon="-13.44932">
        <ele>13.2</ele>
        <time>2021-07-02 16:08:36</time>
      </trkpt>
      <trkpt lat="29.14742" lon="-13.44928">
        <ele>13.2</ele>
        <time>2021-07-02 16:08:37</time>
      </trkpt>
      <trkpt lat="29.14744" lon="-13.44924">
        <ele>13.2</ele>
        <time>2021-07-02 16:08:38</time>
      </trkpt>
      <trkpt lat="29.14747" lon="-13.4492">
        <ele>13.2</ele>
        <time>2021-07-02 16:08:39</time>
      </trkpt>
      <trkpt lat="29.14749" lon="-13.44916">
        <ele>13.2</ele>
        <time>2021-07-02 16:08:40</time>
      </trkpt>
      <trkpt lat="29.14751" lon="-13.44912">
        <ele>13.2</ele>
        <time>2021-07-02 16:08:41</time>
      </trkpt>
      <trkpt lat="29.14754" lon="-13.44908">
        <ele>13.2</ele>
        <time>2021-07-02 16:08:42</time>
      </trkpt>
      <trkpt lat="29.14756" lon="-13.44904">
        <ele>13.2</ele>
        <time>2021-07-02 16:08:43</time>
      </trkpt>
      <trkpt lat="29.14759" lon="-13.449">
        <ele>13.4</ele>
        <time>2021-07-02 16:08:44</time>
      </trkpt>
      <trkpt lat="29.14761" lon="-13.44896">
        <ele>13.4</ele>
        <time>2021-07-02 16:08:45</time>
      </trkpt>
      <trkpt lat="29.14764" lon="-13.44893">
        <ele>13.4</ele>
        <time>2021-07-02 16:08:46</time>
      </trkpt>
      <trkpt lat="29.14766" lon="-13.44889">
        <ele>13.4</ele>
        <time>2021-07-02 16:08:47</time>
      </trkpt>
      <trkpt lat="29.14768" lon="-13.44885">
        <ele>13.4</ele>
        <time>2021-07-02 16:08:48</time>
      </trkpt>
      <trkpt lat="29.14771" lon="-13.44881">
        <ele>13.4</ele>
        <time>2021-07-02 16:08:49</time>
      </trkpt>
      <trkpt lat="29.14773" lon="-13.44877">
        <ele>13.4</ele>
        <time>2021-07-02 16:08:50</time>
      </trkpt>
      <trkpt lat="29.14775" lon="-13.44874">
        <ele>13.4</ele>
        <time>2021-07-02 16:08:51</time>
      </trkpt>
      <trkpt lat="29.14777" lon="-13.4487">
        <ele>13.4</ele>
        <time>2021-07-02 16:08:52</time>
      </trkpt>
      <trkpt lat="29.14779" lon="-13.44865">
        <ele>13.4</ele>
        <time>2021-07-02 16:08:53</time>
      </trkpt>
      <trkpt lat="29.14782" lon="-13.44862">
        <ele>13.4</ele>
        <time>2021-07-02 16:08:54</time>
      </trkpt>
      <trkpt lat="29.14784" lon="-13.44858">
        <ele>13.4</ele>
        <time>2021-07-02 16:08:55</time>
      </trkpt>
      <trkpt lat="29.14786" lon="-13.44854">
        <ele>13.4</ele>
        <time>2021-07-02 16:08:56</time>
      </trkpt>
      <trkpt lat="29.14789" lon="-13.4485">
        <ele>13.4</ele>
        <time>2021-07-02 16:08:57</time>
      </trkpt>
      <trkpt lat="29.14791" lon="-13.44846">
        <ele>13.4</ele>
        <time>2021-07-02 16:08:58</time>
      </trkpt>
      <trkpt lat="29.14794" lon="-13.44842">
        <ele>13.4</ele>
        <time>2021-07-02 16:08:59</time>
      </trkpt>
      <trkpt lat="29.14796" lon="-13.44838">
        <ele>13.4</ele>
        <time>2021-07-02 16:09:00</time>
      </trkpt>
      <trkpt lat="29.14799" lon="-13.44834">
        <ele>13.4</ele>
        <time>2021-07-02 16:09:01</time>
      </trkpt>
      <trkpt lat="29.14801" lon="-13.4483">
        <ele>13.4</ele>
        <time>2021-07-02 16:09:02</time>
      </trkpt>
      <trkpt lat="29.14811" lon="-13.44814">
        <ele>13.4</ele>
        <time>2021-07-02 16:09:03</time>
      </trkpt>
      <trkpt lat="29.14813" lon="-13.44811">
        <ele>13</ele>
        <time>2021-07-02 16:09:04</time>
      </trkpt>
      <trkpt lat="29.14816" lon="-13.44807">
        <ele>13</ele>
        <time>2021-07-02 16:09:05</time>
      </trkpt>
      <trkpt lat="29.14818" lon="-13.44803">
        <ele>13</ele>
        <time>2021-07-02 16:09:06</time>
      </trkpt>
      <trkpt lat="29.14821" lon="-13.44799">
        <ele>13.4</ele>
        <time>2021-07-02 16:09:07</time>
      </trkpt>
      <trkpt lat="29.14823" lon="-13.44795">
        <ele>13.4</ele>
        <time>2021-07-02 16:09:08</time>
      </trkpt>
      <trkpt lat="29.14826" lon="-13.44791">
        <ele>13.4</ele>
        <time>2021-07-02 16:09:09</time>
      </trkpt>
      <trkpt lat="29.14828" lon="-13.44787">
        <ele>13.6</ele>
        <time>2021-07-02 16:09:10</time>
      </trkpt>
      <trkpt lat="29.14831" lon="-13.44783">
        <ele>13.6</ele>
        <time>2021-07-02 16:09:11</time>
      </trkpt>
      <trkpt lat="29.14834" lon="-13.44779">
        <ele>13.8</ele>
        <time>2021-07-02 16:09:12</time>
      </trkpt>
      <trkpt lat="29.14836" lon="-13.44775">
        <ele>13.8</ele>
        <time>2021-07-02 16:09:13</time>
      </trkpt>
      <trkpt lat="29.14839" lon="-13.44771">
        <ele>13.8</ele>
        <time>2021-07-02 16:09:14</time>
      </trkpt>
      <trkpt lat="29.14841" lon="-13.44767">
        <ele>14.2</ele>
        <time>2021-07-02 16:09:15</time>
      </trkpt>
      <trkpt lat="29.14844" lon="-13.44763">
        <ele>14.2</ele>
        <time>2021-07-02 16:09:16</time>
      </trkpt>
      <trkpt lat="29.14846" lon="-13.44759">
        <ele>14.2</ele>
        <time>2021-07-02 16:09:17</time>
      </trkpt>
      <trkpt lat="29.14849" lon="-13.44756">
        <ele>14.4</ele>
        <time>2021-07-02 16:09:18</time>
      </trkpt>
      <trkpt lat="29.14851" lon="-13.44752">
        <ele>14.4</ele>
        <time>2021-07-02 16:09:19</time>
      </trkpt>
      <trkpt lat="29.14856" lon="-13.44743">
        <ele>14.4</ele>
        <time>2021-07-02 16:09:20</time>
      </trkpt>
      <trkpt lat="29.14858" lon="-13.4474">
        <ele>14.4</ele>
        <time>2021-07-02 16:09:21</time>
      </trkpt>
      <trkpt lat="29.14861" lon="-13.44735">
        <ele>14.4</ele>
        <time>2021-07-02 16:09:22</time>
      </trkpt>
      <trkpt lat="29.14863" lon="-13.44731">
        <ele>14.4</ele>
        <time>2021-07-02 16:09:23</time>
      </trkpt>
      <trkpt lat="29.14866" lon="-13.44727">
        <ele>14.4</ele>
        <time>2021-07-02 16:09:24</time>
      </trkpt>
      <trkpt lat="29.14868" lon="-13.44723">
        <ele>14.4</ele>
        <time>2021-07-02 16:09:25</time>
      </trkpt>
      <trkpt lat="29.14871" lon="-13.44719">
        <ele>14.4</ele>
        <time>2021-07-02 16:09:26</time>
      </trkpt>
      <trkpt lat="29.14874" lon="-13.44715">
        <ele>14.4</ele>
        <time>2021-07-02 16:09:27</time>
      </trkpt>
      <trkpt lat="29.14876" lon="-13.44711">
        <ele>14.4</ele>
        <time>2021-07-02 16:09:28</time>
      </trkpt>
      <trkpt lat="29.14879" lon="-13.44706">
        <ele>14.4</ele>
        <time>2021-07-02 16:09:29</time>
      </trkpt>
      <trkpt lat="29.14881" lon="-13.44702">
        <ele>14.4</ele>
        <time>2021-07-02 16:09:30</time>
      </trkpt>
      <trkpt lat="29.14884" lon="-13.44698">
        <ele>14.4</ele>
        <time>2021-07-02 16:09:31</time>
      </trkpt>
      <trkpt lat="29.14886" lon="-13.44694">
        <ele>14.4</ele>
        <time>2021-07-02 16:09:32</time>
      </trkpt>
      <trkpt lat="29.14889" lon="-13.4469">
        <ele>14.4</ele>
        <time>2021-07-02 16:09:33</time>
      </trkpt>
      <trkpt lat="29.14892" lon="-13.44686">
        <ele>14.4</ele>
        <time>2021-07-02 16:09:39</time>
      </trkpt>
      <trkpt lat="29.14894" lon="-13.44682">
        <ele>14.4</ele>
        <time>2021-07-02 16:09:40</time>
      </trkpt>
      <trkpt lat="29.14897" lon="-13.44677">
        <ele>14.4</ele>
        <time>2021-07-02 16:09:41</time>
      </trkpt>
      <trkpt lat="29.149" lon="-13.44673">
        <ele>14.4</ele>
        <time>2021-07-02 16:09:42</time>
      </trkpt>
      <trkpt lat="29.14903" lon="-13.44668">
        <ele>14.4</ele>
        <time>2021-07-02 16:09:43</time>
      </trkpt>
      <trkpt lat="29.14905" lon="-13.44664">
        <ele>14.4</ele>
        <time>2021-07-02 16:09:44</time>
      </trkpt>
      <trkpt lat="29.14908" lon="-13.44659">
        <ele>14.4</ele>
        <time>2021-07-02 16:09:45</time>
      </trkpt>
      <trkpt lat="29.14911" lon="-13.44655">
        <ele>14.4</ele>
        <time>2021-07-02 16:09:46</time>
      </trkpt>
      <trkpt lat="29.14914" lon="-13.44651">
        <ele>14.4</ele>
        <time>2021-07-02 16:09:47</time>
      </trkpt>
      <trkpt lat="29.14917" lon="-13.44647">
        <ele>14.4</ele>
        <time>2021-07-02 16:09:48</time>
      </trkpt>
      <trkpt lat="29.1492" lon="-13.44642">
        <ele>14.4</ele>
        <time>2021-07-02 16:09:49</time>
      </trkpt>
      <trkpt lat="29.14922" lon="-13.44638">
        <ele>14.4</ele>
        <time>2021-07-02 16:09:50</time>
      </trkpt>
      <trkpt lat="29.14925" lon="-13.44634">
        <ele>14.4</ele>
        <time>2021-07-02 16:09:51</time>
      </trkpt>
      <trkpt lat="29.14928" lon="-13.44629">
        <ele>14.4</ele>
        <time>2021-07-02 16:09:52</time>
      </trkpt>
      <trkpt lat="29.1493" lon="-13.44624">
        <ele>14.4</ele>
        <time>2021-07-02 16:09:53</time>
      </trkpt>
      <trkpt lat="29.14933" lon="-13.4462">
        <ele>14.4</ele>
        <time>2021-07-02 16:09:54</time>
      </trkpt>
      <trkpt lat="29.14936" lon="-13.44615">
        <ele>14</ele>
        <time>2021-07-02 16:09:55</time>
      </trkpt>
      <trkpt lat="29.14939" lon="-13.44611">
        <ele>14</ele>
        <time>2021-07-02 16:09:56</time>
      </trkpt>
      <trkpt lat="29.14941" lon="-13.44606">
        <ele>14</ele>
        <time>2021-07-02 16:09:57</time>
      </trkpt>
      <trkpt lat="29.14945" lon="-13.44601">
        <ele>14</ele>
        <time>2021-07-02 16:09:58</time>
      </trkpt>
      <trkpt lat="29.14947" lon="-13.44596">
        <ele>14</ele>
        <time>2021-07-02 16:09:59</time>
      </trkpt>
      <trkpt lat="29.1495" lon="-13.44592">
        <ele>14</ele>
        <time>2021-07-02 16:10:00</time>
      </trkpt>
      <trkpt lat="29.14953" lon="-13.44587">
        <ele>13.8</ele>
        <time>2021-07-02 16:10:01</time>
      </trkpt>
      <trkpt lat="29.14956" lon="-13.44582">
        <ele>13.8</ele>
        <time>2021-07-02 16:10:02</time>
      </trkpt>
      <trkpt lat="29.14959" lon="-13.44578">
        <ele>13.8</ele>
        <time>2021-07-02 16:10:03</time>
      </trkpt>
      <trkpt lat="29.14962" lon="-13.44573">
        <ele>13.6</ele>
        <time>2021-07-02 16:10:04</time>
      </trkpt>
      <trkpt lat="29.14964" lon="-13.44569">
        <ele>13.6</ele>
        <time>2021-07-02 16:10:05</time>
      </trkpt>
      <trkpt lat="29.14967" lon="-13.44564">
        <ele>13.6</ele>
        <time>2021-07-02 16:10:06</time>
      </trkpt>
      <trkpt lat="29.1497" lon="-13.4456">
        <ele>13.6</ele>
        <time>2021-07-02 16:10:07</time>
      </trkpt>
      <trkpt lat="29.14972" lon="-13.44556">
        <ele>13.6</ele>
        <time>2021-07-02 16:10:08</time>
      </trkpt>
      <trkpt lat="29.14975" lon="-13.44552">
        <ele>13.6</ele>
        <time>2021-07-02 16:10:09</time>
      </trkpt>
      <trkpt lat="29.14978" lon="-13.44548">
        <ele>13.6</ele>
        <time>2021-07-02 16:10:10</time>
      </trkpt>
      <trkpt lat="29.1498" lon="-13.44544">
        <ele>13.6</ele>
        <time>2021-07-02 16:10:11</time>
      </trkpt>
      <trkpt lat="29.14983" lon="-13.44539">
        <ele>14</ele>
        <time>2021-07-02 16:10:12</time>
      </trkpt>
      <trkpt lat="29.14985" lon="-13.44535">
        <ele>14</ele>
        <time>2021-07-02 16:10:13</time>
      </trkpt>
      <trkpt lat="29.14988" lon="-13.44531">
        <ele>14</ele>
        <time>2021-07-02 16:10:14</time>
      </trkpt>
      <trkpt lat="29.14991" lon="-13.44526">
        <ele>14</ele>
        <time>2021-07-02 16:10:15</time>
      </trkpt>
      <trkpt lat="29.14994" lon="-13.44522">
        <ele>14</ele>
        <time>2021-07-02 16:10:16</time>
      </trkpt>
      <trkpt lat="29.14996" lon="-13.44518">
        <ele>14.2</ele>
        <time>2021-07-02 16:10:17</time>
      </trkpt>
      <trkpt lat="29.14999" lon="-13.44514">
        <ele>14.2</ele>
        <time>2021-07-02 16:10:18</time>
      </trkpt>
      <trkpt lat="29.15001" lon="-13.4451">
        <ele>14.4</ele>
        <time>2021-07-02 16:10:19</time>
      </trkpt>
      <trkpt lat="29.15003" lon="-13.44505">
        <ele>14.4</ele>
        <time>2021-07-02 16:10:20</time>
      </trkpt>
      <trkpt lat="29.15005" lon="-13.44502">
        <ele>14.8</ele>
        <time>2021-07-02 16:10:21</time>
      </trkpt>
      <trkpt lat="29.15008" lon="-13.44498">
        <ele>14.8</ele>
        <time>2021-07-02 16:10:22</time>
      </trkpt>
      <trkpt lat="29.1501" lon="-13.44494">
        <ele>14.8</ele>
        <time>2021-07-02 16:10:23</time>
      </trkpt>
      <trkpt lat="29.15013" lon="-13.4449">
        <ele>14.8</ele>
        <time>2021-07-02 16:10:24</time>
      </trkpt>
      <trkpt lat="29.15016" lon="-13.44486">
        <ele>15</ele>
        <time>2021-07-02 16:10:25</time>
      </trkpt>
      <trkpt lat="29.15018" lon="-13.44482">
        <ele>15</ele>
        <time>2021-07-02 16:10:26</time>
      </trkpt>
      <trkpt lat="29.15021" lon="-13.44478">
        <ele>15</ele>
        <time>2021-07-02 16:10:27</time>
      </trkpt>
      <trkpt lat="29.15024" lon="-13.44474">
        <ele>15</ele>
        <time>2021-07-02 16:10:28</time>
      </trkpt>
      <trkpt lat="29.15026" lon="-13.4447">
        <ele>15</ele>
        <time>2021-07-02 16:10:29</time>
      </trkpt>
      <trkpt lat="29.15029" lon="-13.44465">
        <ele>15.2</ele>
        <time>2021-07-02 16:10:30</time>
      </trkpt>
      <trkpt lat="29.15031" lon="-13.44461">
        <ele>15.2</ele>
        <time>2021-07-02 16:10:31</time>
      </trkpt>
      <trkpt lat="29.15034" lon="-13.44457">
        <ele>15.2</ele>
        <time>2021-07-02 16:10:32</time>
      </trkpt>
      <trkpt lat="29.15036" lon="-13.44453">
        <ele>15.6</ele>
        <time>2021-07-02 16:10:33</time>
      </trkpt>
      <trkpt lat="29.15039" lon="-13.44448">
        <ele>15.6</ele>
        <time>2021-07-02 16:10:34</time>
      </trkpt>
      <trkpt lat="29.15042" lon="-13.44444">
        <ele>15.6</ele>
        <time>2021-07-02 16:10:35</time>
      </trkpt>
      <trkpt lat="29.15045" lon="-13.4444">
        <ele>15.6</ele>
        <time>2021-07-02 16:10:36</time>
      </trkpt>
      <trkpt lat="29.15047" lon="-13.44435">
        <ele>15.6</ele>
        <time>2021-07-02 16:10:37</time>
      </trkpt>
      <trkpt lat="29.15049" lon="-13.44432">
        <ele>15.6</ele>
        <time>2021-07-02 16:10:38</time>
      </trkpt>
      <trkpt lat="29.15052" lon="-13.44428">
        <ele>15.6</ele>
        <time>2021-07-02 16:10:39</time>
      </trkpt>
      <trkpt lat="29.15055" lon="-13.44424">
        <ele>15.6</ele>
        <time>2021-07-02 16:10:40</time>
      </trkpt>
      <trkpt lat="29.15057" lon="-13.4442">
        <ele>15.6</ele>
        <time>2021-07-02 16:10:41</time>
      </trkpt>
      <trkpt lat="29.1506" lon="-13.44416">
        <ele>15.6</ele>
        <time>2021-07-02 16:10:42</time>
      </trkpt>
      <trkpt lat="29.15062" lon="-13.44412">
        <ele>15.6</ele>
        <time>2021-07-02 16:10:43</time>
      </trkpt>
      <trkpt lat="29.15065" lon="-13.44409">
        <ele>15.6</ele>
        <time>2021-07-02 16:10:44</time>
      </trkpt>
      <trkpt lat="29.15067" lon="-13.44404">
        <ele>15.6</ele>
        <time>2021-07-02 16:10:45</time>
      </trkpt>
      <trkpt lat="29.1507" lon="-13.444">
        <ele>15.6</ele>
        <time>2021-07-02 16:10:46</time>
      </trkpt>
      <trkpt lat="29.15072" lon="-13.44396">
        <ele>15.6</ele>
        <time>2021-07-02 16:10:47</time>
      </trkpt>
      <trkpt lat="29.15075" lon="-13.44392">
        <ele>15.6</ele>
        <time>2021-07-02 16:10:48</time>
      </trkpt>
      <trkpt lat="29.15077" lon="-13.44388">
        <ele>15.4</ele>
        <time>2021-07-02 16:10:49</time>
      </trkpt>
      <trkpt lat="29.1508" lon="-13.44384">
        <ele>15.4</ele>
        <time>2021-07-02 16:10:50</time>
      </trkpt>
      <trkpt lat="29.15082" lon="-13.4438">
        <ele>15.4</ele>
        <time>2021-07-02 16:10:51</time>
      </trkpt>
      <trkpt lat="29.15085" lon="-13.44376">
        <ele>15.4</ele>
        <time>2021-07-02 16:10:52</time>
      </trkpt>
      <trkpt lat="29.15087" lon="-13.44371">
        <ele>15.4</ele>
        <time>2021-07-02 16:10:53</time>
      </trkpt>
      <trkpt lat="29.1509" lon="-13.44367">
        <ele>15.4</ele>
        <time>2021-07-02 16:10:54</time>
      </trkpt>
      <trkpt lat="29.15093" lon="-13.44363">
        <ele>15.4</ele>
        <time>2021-07-02 16:10:55</time>
      </trkpt>
      <trkpt lat="29.15095" lon="-13.44359">
        <ele>15.4</ele>
        <time>2021-07-02 16:10:56</time>
      </trkpt>
      <trkpt lat="29.15098" lon="-13.44355">
        <ele>15.4</ele>
        <time>2021-07-02 16:10:57</time>
      </trkpt>
      <trkpt lat="29.151" lon="-13.4435">
        <ele>15.4</ele>
        <time>2021-07-02 16:10:58</time>
      </trkpt>
      <trkpt lat="29.15103" lon="-13.44346">
        <ele>15.4</ele>
        <time>2021-07-02 16:10:59</time>
      </trkpt>
      <trkpt lat="29.15105" lon="-13.44342">
        <ele>15.4</ele>
        <time>2021-07-02 16:11:00</time>
      </trkpt>
      <trkpt lat="29.15108" lon="-13.44338">
        <ele>15.4</ele>
        <time>2021-07-02 16:11:01</time>
      </trkpt>
      <trkpt lat="29.1511" lon="-13.44333">
        <ele>15.4</ele>
        <time>2021-07-02 16:11:02</time>
      </trkpt>
      <trkpt lat="29.15113" lon="-13.44329">
        <ele>15.4</ele>
        <time>2021-07-02 16:11:03</time>
      </trkpt>
      <trkpt lat="29.15116" lon="-13.44325">
        <ele>15</ele>
        <time>2021-07-02 16:11:04</time>
      </trkpt>
      <trkpt lat="29.15119" lon="-13.44321">
        <ele>15</ele>
        <time>2021-07-02 16:11:05</time>
      </trkpt>
      <trkpt lat="29.15121" lon="-13.44316">
        <ele>15</ele>
        <time>2021-07-02 16:11:06</time>
      </trkpt>
      <trkpt lat="29.15124" lon="-13.44312">
        <ele>14.8</ele>
        <time>2021-07-02 16:11:07</time>
      </trkpt>
      <trkpt lat="29.15126" lon="-13.44308">
        <ele>14.8</ele>
        <time>2021-07-02 16:11:08</time>
      </trkpt>
      <trkpt lat="29.15129" lon="-13.44303">
        <ele>14.8</ele>
        <time>2021-07-02 16:11:09</time>
      </trkpt>
      <trkpt lat="29.15132" lon="-13.44299">
        <ele>14.8</ele>
        <time>2021-07-02 16:11:10</time>
      </trkpt>
      <trkpt lat="29.15134" lon="-13.44295">
        <ele>14.6</ele>
        <time>2021-07-02 16:11:11</time>
      </trkpt>
      <trkpt lat="29.15137" lon="-13.44291">
        <ele>14.6</ele>
        <time>2021-07-02 16:11:12</time>
      </trkpt>
      <trkpt lat="29.1514" lon="-13.44286">
        <ele>14.6</ele>
        <time>2021-07-02 16:11:13</time>
      </trkpt>
      <trkpt lat="29.15142" lon="-13.44282">
        <ele>14.4</ele>
        <time>2021-07-02 16:11:14</time>
      </trkpt>
      <trkpt lat="29.15144" lon="-13.44278">
        <ele>14.4</ele>
        <time>2021-07-02 16:11:15</time>
      </trkpt>
      <trkpt lat="29.15147" lon="-13.44273">
        <ele>14.4</ele>
        <time>2021-07-02 16:11:16</time>
      </trkpt>
      <trkpt lat="29.1515" lon="-13.44269">
        <ele>14.4</ele>
        <time>2021-07-02 16:11:17</time>
      </trkpt>
      <trkpt lat="29.15153" lon="-13.44265">
        <ele>14.4</ele>
        <time>2021-07-02 16:11:18</time>
      </trkpt>
      <trkpt lat="29.15156" lon="-13.4426">
        <ele>14.4</ele>
        <time>2021-07-02 16:11:19</time>
      </trkpt>
      <trkpt lat="29.15159" lon="-13.44256">
        <ele>14.4</ele>
        <time>2021-07-02 16:11:20</time>
      </trkpt>
      <trkpt lat="29.15161" lon="-13.44251">
        <ele>14.4</ele>
        <time>2021-07-02 16:11:21</time>
      </trkpt>
      <trkpt lat="29.15164" lon="-13.44246">
        <ele>14.4</ele>
        <time>2021-07-02 16:11:22</time>
      </trkpt>
      <trkpt lat="29.15167" lon="-13.44242">
        <ele>14.4</ele>
        <time>2021-07-02 16:11:23</time>
      </trkpt>
      <trkpt lat="29.1517" lon="-13.44238">
        <ele>14.4</ele>
        <time>2021-07-02 16:11:24</time>
      </trkpt>
      <trkpt lat="29.15172" lon="-13.44234">
        <ele>14.4</ele>
        <time>2021-07-02 16:11:25</time>
      </trkpt>
      <trkpt lat="29.15175" lon="-13.4423">
        <ele>14.4</ele>
        <time>2021-07-02 16:11:26</time>
      </trkpt>
      <trkpt lat="29.15178" lon="-13.44226">
        <ele>14.4</ele>
        <time>2021-07-02 16:11:27</time>
      </trkpt>
      <trkpt lat="29.1518" lon="-13.44222">
        <ele>14.4</ele>
        <time>2021-07-02 16:11:28</time>
      </trkpt>
      <trkpt lat="29.15184" lon="-13.44217">
        <ele>14.2</ele>
        <time>2021-07-02 16:11:29</time>
      </trkpt>
      <trkpt lat="29.15187" lon="-13.44212">
        <ele>14.2</ele>
        <time>2021-07-02 16:11:30</time>
      </trkpt>
      <trkpt lat="29.15189" lon="-13.44208">
        <ele>14.2</ele>
        <time>2021-07-02 16:11:31</time>
      </trkpt>
      <trkpt lat="29.15192" lon="-13.44203">
        <ele>14</ele>
        <time>2021-07-02 16:11:32</time>
      </trkpt>
      <trkpt lat="29.15195" lon="-13.44199">
        <ele>14</ele>
        <time>2021-07-02 16:11:33</time>
      </trkpt>
      <trkpt lat="29.15198" lon="-13.44194">
        <ele>14</ele>
        <time>2021-07-02 16:11:34</time>
      </trkpt>
      <trkpt lat="29.152" lon="-13.4419">
        <ele>13.6</ele>
        <time>2021-07-02 16:11:35</time>
      </trkpt>
      <trkpt lat="29.15203" lon="-13.44186">
        <ele>13.6</ele>
        <time>2021-07-02 16:11:36</time>
      </trkpt>
      <trkpt lat="29.15206" lon="-13.44181">
        <ele>13.6</ele>
        <time>2021-07-02 16:11:37</time>
      </trkpt>
      <trkpt lat="29.15208" lon="-13.44177">
        <ele>13.6</ele>
        <time>2021-07-02 16:11:38</time>
      </trkpt>
      <trkpt lat="29.15211" lon="-13.44173">
        <ele>13.6</ele>
        <time>2021-07-02 16:11:39</time>
      </trkpt>
      <trkpt lat="29.15214" lon="-13.44168">
        <ele>13.6</ele>
        <time>2021-07-02 16:11:40</time>
      </trkpt>
      <trkpt lat="29.15217" lon="-13.44164">
        <ele>13.6</ele>
        <time>2021-07-02 16:11:41</time>
      </trkpt>
      <trkpt lat="29.15219" lon="-13.44159">
        <ele>13.4</ele>
        <time>2021-07-02 16:11:42</time>
      </trkpt>
      <trkpt lat="29.15222" lon="-13.44155">
        <ele>13.4</ele>
        <time>2021-07-02 16:11:43</time>
      </trkpt>
      <trkpt lat="29.15225" lon="-13.44151">
        <ele>13</ele>
        <time>2021-07-02 16:11:44</time>
      </trkpt>
      <trkpt lat="29.15228" lon="-13.44146">
        <ele>13</ele>
        <time>2021-07-02 16:11:45</time>
      </trkpt>
      <trkpt lat="29.15231" lon="-13.44142">
        <ele>12.8</ele>
        <time>2021-07-02 16:11:46</time>
      </trkpt>
      <trkpt lat="29.15233" lon="-13.44137">
        <ele>12.8</ele>
        <time>2021-07-02 16:11:47</time>
      </trkpt>
      <trkpt lat="29.15236" lon="-13.44132">
        <ele>12.8</ele>
        <time>2021-07-02 16:11:48</time>
      </trkpt>
      <trkpt lat="29.15238" lon="-13.44128">
        <ele>12.6</ele>
        <time>2021-07-02 16:11:49</time>
      </trkpt>
      <trkpt lat="29.15241" lon="-13.44124">
        <ele>12.6</ele>
        <time>2021-07-02 16:11:50</time>
      </trkpt>
      <trkpt lat="29.15244" lon="-13.44118">
        <ele>12.6</ele>
        <time>2021-07-02 16:11:51</time>
      </trkpt>
      <trkpt lat="29.15247" lon="-13.44114">
        <ele>12.6</ele>
        <time>2021-07-02 16:11:52</time>
      </trkpt>
      <trkpt lat="29.1525" lon="-13.4411">
        <ele>12.4</ele>
        <time>2021-07-02 16:11:53</time>
      </trkpt>
      <trkpt lat="29.15252" lon="-13.44105">
        <ele>12.4</ele>
        <time>2021-07-02 16:11:54</time>
      </trkpt>
      <trkpt lat="29.15255" lon="-13.441">
        <ele>12.2</ele>
        <time>2021-07-02 16:11:55</time>
      </trkpt>
      <trkpt lat="29.15258" lon="-13.44096">
        <ele>12.2</ele>
        <time>2021-07-02 16:11:56</time>
      </trkpt>
      <trkpt lat="29.15261" lon="-13.44091">
        <ele>12.2</ele>
        <time>2021-07-02 16:11:57</time>
      </trkpt>
      <trkpt lat="29.15264" lon="-13.44087">
        <ele>12.2</ele>
        <time>2021-07-02 16:11:58</time>
      </trkpt>
      <trkpt lat="29.15267" lon="-13.44082">
        <ele>12.2</ele>
        <time>2021-07-02 16:11:59</time>
      </trkpt>
      <trkpt lat="29.15269" lon="-13.44078">
        <ele>12.2</ele>
        <time>2021-07-02 16:12:00</time>
      </trkpt>
      <trkpt lat="29.15272" lon="-13.44074">
        <ele>12.2</ele>
        <time>2021-07-02 16:12:01</time>
      </trkpt>
      <trkpt lat="29.15275" lon="-13.4407">
        <ele>12.2</ele>
        <time>2021-07-02 16:12:02</time>
      </trkpt>
      <trkpt lat="29.15277" lon="-13.44065">
        <ele>12.2</ele>
        <time>2021-07-02 16:12:03</time>
      </trkpt>
      <trkpt lat="29.1528" lon="-13.44061">
        <ele>12.4</ele>
        <time>2021-07-02 16:12:04</time>
      </trkpt>
      <trkpt lat="29.15282" lon="-13.44057">
        <ele>12.4</ele>
        <time>2021-07-02 16:12:05</time>
      </trkpt>
      <trkpt lat="29.15285" lon="-13.44053">
        <ele>12.4</ele>
        <time>2021-07-02 16:12:06</time>
      </trkpt>
      <trkpt lat="29.15287" lon="-13.44049">
        <ele>12.4</ele>
        <time>2021-07-02 16:12:07</time>
      </trkpt>
      <trkpt lat="29.1529" lon="-13.44045">
        <ele>12.4</ele>
        <time>2021-07-02 16:12:08</time>
      </trkpt>
      <trkpt lat="29.15292" lon="-13.44041">
        <ele>12.4</ele>
        <time>2021-07-02 16:12:09</time>
      </trkpt>
      <trkpt lat="29.15295" lon="-13.44037">
        <ele>12.2</ele>
        <time>2021-07-02 16:12:10</time>
      </trkpt>
      <trkpt lat="29.15297" lon="-13.44034">
        <ele>12.2</ele>
        <time>2021-07-02 16:12:11</time>
      </trkpt>
      <trkpt lat="29.153" lon="-13.4403">
        <ele>12.2</ele>
        <time>2021-07-02 16:12:12</time>
      </trkpt>
      <trkpt lat="29.15302" lon="-13.44026">
        <ele>12</ele>
        <time>2021-07-02 16:12:13</time>
      </trkpt>
      <trkpt lat="29.15305" lon="-13.44022">
        <ele>12</ele>
        <time>2021-07-02 16:12:14</time>
      </trkpt>
      <trkpt lat="29.15308" lon="-13.44018">
        <ele>12</ele>
        <time>2021-07-02 16:12:15</time>
      </trkpt>
      <trkpt lat="29.1531" lon="-13.44014">
        <ele>12</ele>
        <time>2021-07-02 16:12:16</time>
      </trkpt>
      <trkpt lat="29.15313" lon="-13.4401">
        <ele>12</ele>
        <time>2021-07-02 16:12:17</time>
      </trkpt>
      <trkpt lat="29.15316" lon="-13.44006">
        <ele>11.8</ele>
        <time>2021-07-02 16:12:18</time>
      </trkpt>
      <trkpt lat="29.15318" lon="-13.44002">
        <ele>11.8</ele>
        <time>2021-07-02 16:12:19</time>
      </trkpt>
      <trkpt lat="29.15321" lon="-13.43998">
        <ele>11.8</ele>
        <time>2021-07-02 16:12:20</time>
      </trkpt>
      <trkpt lat="29.15324" lon="-13.43994">
        <ele>11.8</ele>
        <time>2021-07-02 16:12:21</time>
      </trkpt>
      <trkpt lat="29.15326" lon="-13.4399">
        <ele>11.8</ele>
        <time>2021-07-02 16:12:22</time>
      </trkpt>
      <trkpt lat="29.15329" lon="-13.43986">
        <ele>11.8</ele>
        <time>2021-07-02 16:12:23</time>
      </trkpt>
      <trkpt lat="29.15331" lon="-13.43982">
        <ele>11.8</ele>
        <time>2021-07-02 16:12:24</time>
      </trkpt>
      <trkpt lat="29.15334" lon="-13.43978">
        <ele>11.8</ele>
        <time>2021-07-02 16:12:25</time>
      </trkpt>
      <trkpt lat="29.15336" lon="-13.43974">
        <ele>11.8</ele>
        <time>2021-07-02 16:12:26</time>
      </trkpt>
      <trkpt lat="29.15339" lon="-13.4397">
        <ele>11.8</ele>
        <time>2021-07-02 16:12:27</time>
      </trkpt>
      <trkpt lat="29.15341" lon="-13.43967">
        <ele>11.8</ele>
        <time>2021-07-02 16:12:28</time>
      </trkpt>
      <trkpt lat="29.15344" lon="-13.43963">
        <ele>11.6</ele>
        <time>2021-07-02 16:12:29</time>
      </trkpt>
      <trkpt lat="29.15346" lon="-13.4396">
        <ele>11.6</ele>
        <time>2021-07-02 16:12:30</time>
      </trkpt>
      <trkpt lat="29.15349" lon="-13.43956">
        <ele>11.6</ele>
        <time>2021-07-02 16:12:31</time>
      </trkpt>
      <trkpt lat="29.15352" lon="-13.43952">
        <ele>11.6</ele>
        <time>2021-07-02 16:12:32</time>
      </trkpt>
      <trkpt lat="29.15355" lon="-13.43949">
        <ele>11.6</ele>
        <time>2021-07-02 16:12:33</time>
      </trkpt>
      <trkpt lat="29.15357" lon="-13.43946">
        <ele>11.6</ele>
        <time>2021-07-02 16:12:34</time>
      </trkpt>
      <trkpt lat="29.1536" lon="-13.43943">
        <ele>11.6</ele>
        <time>2021-07-02 16:12:35</time>
      </trkpt>
      <trkpt lat="29.15363" lon="-13.4394">
        <ele>11.6</ele>
        <time>2021-07-02 16:12:36</time>
      </trkpt>
      <trkpt lat="29.15366" lon="-13.43938">
        <ele>11.8</ele>
        <time>2021-07-02 16:12:37</time>
      </trkpt>
      <trkpt lat="29.15368" lon="-13.43935">
        <ele>11.8</ele>
        <time>2021-07-02 16:12:38</time>
      </trkpt>
      <trkpt lat="29.15371" lon="-13.43932">
        <ele>11.8</ele>
        <time>2021-07-02 16:12:39</time>
      </trkpt>
      <trkpt lat="29.15373" lon="-13.4393">
        <ele>12.2</ele>
        <time>2021-07-02 16:12:40</time>
      </trkpt>
      <trkpt lat="29.15376" lon="-13.43927">
        <ele>12.2</ele>
        <time>2021-07-02 16:12:41</time>
      </trkpt>
      <trkpt lat="29.15378" lon="-13.43925">
        <ele>12.2</ele>
        <time>2021-07-02 16:12:42</time>
      </trkpt>
      <trkpt lat="29.1538" lon="-13.43922">
        <ele>12.4</ele>
        <time>2021-07-02 16:12:43</time>
      </trkpt>
      <trkpt lat="29.15382" lon="-13.4392">
        <ele>12.4</ele>
        <time>2021-07-02 16:12:44</time>
      </trkpt>
      <trkpt lat="29.15385" lon="-13.43917">
        <ele>12.6</ele>
        <time>2021-07-02 16:12:45</time>
      </trkpt>
      <trkpt lat="29.15387" lon="-13.43915">
        <ele>12.6</ele>
        <time>2021-07-02 16:12:46</time>
      </trkpt>
      <trkpt lat="29.15389" lon="-13.43912">
        <ele>12.6</ele>
        <time>2021-07-02 16:12:47</time>
      </trkpt>
      <trkpt lat="29.15391" lon="-13.4391">
        <ele>12.6</ele>
        <time>2021-07-02 16:12:48</time>
      </trkpt>
      <trkpt lat="29.15393" lon="-13.43907">
        <ele>12.6</ele>
        <time>2021-07-02 16:12:49</time>
      </trkpt>
      <trkpt lat="29.15395" lon="-13.43904">
        <ele>12.6</ele>
        <time>2021-07-02 16:12:50</time>
      </trkpt>
      <trkpt lat="29.15397" lon="-13.43902">
        <ele>12.6</ele>
        <time>2021-07-02 16:12:51</time>
      </trkpt>
      <trkpt lat="29.154" lon="-13.43899">
        <ele>12.6</ele>
        <time>2021-07-02 16:12:52</time>
      </trkpt>
      <trkpt lat="29.15402" lon="-13.43897">
        <ele>13</ele>
        <time>2021-07-02 16:12:53</time>
      </trkpt>
      <trkpt lat="29.15404" lon="-13.43894">
        <ele>13</ele>
        <time>2021-07-02 16:12:54</time>
      </trkpt>
      <trkpt lat="29.15407" lon="-13.43891">
        <ele>13</ele>
        <time>2021-07-02 16:12:55</time>
      </trkpt>
      <trkpt lat="29.15409" lon="-13.43888">
        <ele>13</ele>
        <time>2021-07-02 16:12:56</time>
      </trkpt>
      <trkpt lat="29.15411" lon="-13.43886">
        <ele>13</ele>
        <time>2021-07-02 16:12:57</time>
      </trkpt>
      <trkpt lat="29.15414" lon="-13.43883">
        <ele>13</ele>
        <time>2021-07-02 16:12:58</time>
      </trkpt>
      <trkpt lat="29.15416" lon="-13.4388">
        <ele>13</ele>
        <time>2021-07-02 16:12:59</time>
      </trkpt>
      <trkpt lat="29.15418" lon="-13.43878">
        <ele>13</ele>
        <time>2021-07-02 16:13:00</time>
      </trkpt>
      <trkpt lat="29.15421" lon="-13.43875">
        <ele>13</ele>
        <time>2021-07-02 16:13:01</time>
      </trkpt>
      <trkpt lat="29.15423" lon="-13.43872">
        <ele>13</ele>
        <time>2021-07-02 16:13:02</time>
      </trkpt>
      <trkpt lat="29.15426" lon="-13.43869">
        <ele>13</ele>
        <time>2021-07-02 16:13:03</time>
      </trkpt>
      <trkpt lat="29.15428" lon="-13.43867">
        <ele>13</ele>
        <time>2021-07-02 16:13:04</time>
      </trkpt>
      <trkpt lat="29.1543" lon="-13.43864">
        <ele>13.2</ele>
        <time>2021-07-02 16:13:05</time>
      </trkpt>
      <trkpt lat="29.15433" lon="-13.43861">
        <ele>13.2</ele>
        <time>2021-07-02 16:13:06</time>
      </trkpt>
      <trkpt lat="29.15435" lon="-13.43859">
        <ele>13.6</ele>
        <time>2021-07-02 16:13:07</time>
      </trkpt>
      <trkpt lat="29.15437" lon="-13.43856">
        <ele>13.8</ele>
        <time>2021-07-02 16:13:08</time>
      </trkpt>
      <trkpt lat="29.15439" lon="-13.43854">
        <ele>13.8</ele>
        <time>2021-07-02 16:13:09</time>
      </trkpt>
      <trkpt lat="29.15441" lon="-13.43851">
        <ele>14.2</ele>
        <time>2021-07-02 16:13:10</time>
      </trkpt>
      <trkpt lat="29.15443" lon="-13.43848">
        <ele>14.2</ele>
        <time>2021-07-02 16:13:11</time>
      </trkpt>
      <trkpt lat="29.15445" lon="-13.43846">
        <ele>14.4</ele>
        <time>2021-07-02 16:13:12</time>
      </trkpt>
      <trkpt lat="29.15448" lon="-13.43843">
        <ele>14.4</ele>
        <time>2021-07-02 16:13:13</time>
      </trkpt>
      <trkpt lat="29.1545" lon="-13.4384">
        <ele>14.4</ele>
        <time>2021-07-02 16:13:14</time>
      </trkpt>
      <trkpt lat="29.15452" lon="-13.43838">
        <ele>14.8</ele>
        <time>2021-07-02 16:13:15</time>
      </trkpt>
      <trkpt lat="29.15454" lon="-13.43836">
        <ele>14.8</ele>
        <time>2021-07-02 16:13:16</time>
      </trkpt>
      <trkpt lat="29.15456" lon="-13.43833">
        <ele>15</ele>
        <time>2021-07-02 16:13:17</time>
      </trkpt>
      <trkpt lat="29.15459" lon="-13.43831">
        <ele>15</ele>
        <time>2021-07-02 16:13:18</time>
      </trkpt>
      <trkpt lat="29.15461" lon="-13.43828">
        <ele>15</ele>
        <time>2021-07-02 16:13:19</time>
      </trkpt>
      <trkpt lat="29.15463" lon="-13.43826">
        <ele>15.4</ele>
        <time>2021-07-02 16:13:20</time>
      </trkpt>
      <trkpt lat="29.15465" lon="-13.43824">
        <ele>15.6</ele>
        <time>2021-07-02 16:13:21</time>
      </trkpt>
      <trkpt lat="29.15468" lon="-13.43822">
        <ele>15.6</ele>
        <time>2021-07-02 16:13:22</time>
      </trkpt>
      <trkpt lat="29.1547" lon="-13.43819">
        <ele>15.8</ele>
        <time>2021-07-02 16:13:23</time>
      </trkpt>
      <trkpt lat="29.15472" lon="-13.43816">
        <ele>15.8</ele>
        <time>2021-07-02 16:13:24</time>
      </trkpt>
      <trkpt lat="29.15474" lon="-13.43813">
        <ele>16.2</ele>
        <time>2021-07-02 16:13:25</time>
      </trkpt>
      <trkpt lat="29.15476" lon="-13.43811">
        <ele>16.2</ele>
        <time>2021-07-02 16:13:26</time>
      </trkpt>
      <trkpt lat="29.15478" lon="-13.43808">
        <ele>16.4</ele>
        <time>2021-07-02 16:13:27</time>
      </trkpt>
      <trkpt lat="29.15481" lon="-13.43805">
        <ele>16.4</ele>
        <time>2021-07-02 16:13:28</time>
      </trkpt>
      <trkpt lat="29.15483" lon="-13.43802">
        <ele>16.4</ele>
        <time>2021-07-02 16:13:29</time>
      </trkpt>
      <trkpt lat="29.15485" lon="-13.438">
        <ele>16.4</ele>
        <time>2021-07-02 16:13:30</time>
      </trkpt>
      <trkpt lat="29.15488" lon="-13.43798">
        <ele>16.4</ele>
        <time>2021-07-02 16:13:31</time>
      </trkpt>
      <trkpt lat="29.1549" lon="-13.43795">
        <ele>16.6</ele>
        <time>2021-07-02 16:13:32</time>
      </trkpt>
      <trkpt lat="29.15492" lon="-13.43793">
        <ele>16.6</ele>
        <time>2021-07-02 16:13:33</time>
      </trkpt>
      <trkpt lat="29.15494" lon="-13.4379">
        <ele>16.8</ele>
        <time>2021-07-02 16:13:34</time>
      </trkpt>
      <trkpt lat="29.15496" lon="-13.43787">
        <ele>17</ele>
        <time>2021-07-02 16:13:35</time>
      </trkpt>
      <trkpt lat="29.15499" lon="-13.43785">
        <ele>17</ele>
        <time>2021-07-02 16:13:36</time>
      </trkpt>
      <trkpt lat="29.15501" lon="-13.43782">
        <ele>17.4</ele>
        <time>2021-07-02 16:13:37</time>
      </trkpt>
      <trkpt lat="29.15503" lon="-13.43779">
        <ele>17.4</ele>
        <time>2021-07-02 16:13:38</time>
      </trkpt>
      <trkpt lat="29.15506" lon="-13.43776">
        <ele>17.4</ele>
        <time>2021-07-02 16:13:39</time>
      </trkpt>
      <trkpt lat="29.15508" lon="-13.43773">
        <ele>17.4</ele>
        <time>2021-07-02 16:13:40</time>
      </trkpt>
      <trkpt lat="29.15511" lon="-13.4377">
        <ele>17.6</ele>
        <time>2021-07-02 16:13:41</time>
      </trkpt>
      <trkpt lat="29.15513" lon="-13.43768">
        <ele>17.6</ele>
        <time>2021-07-02 16:13:42</time>
      </trkpt>
      <trkpt lat="29.15515" lon="-13.43765">
        <ele>18</ele>
        <time>2021-07-02 16:13:43</time>
      </trkpt>
      <trkpt lat="29.15517" lon="-13.43763">
        <ele>18</ele>
        <time>2021-07-02 16:13:44</time>
      </trkpt>
      <trkpt lat="29.1552" lon="-13.4376">
        <ele>18</ele>
        <time>2021-07-02 16:13:45</time>
      </trkpt>
      <trkpt lat="29.15522" lon="-13.43757">
        <ele>18.2</ele>
        <time>2021-07-02 16:13:46</time>
      </trkpt>
      <trkpt lat="29.15524" lon="-13.43755">
        <ele>18.2</ele>
        <time>2021-07-02 16:13:47</time>
      </trkpt>
      <trkpt lat="29.15526" lon="-13.43752">
        <ele>18.2</ele>
        <time>2021-07-02 16:13:48</time>
      </trkpt>
      <trkpt lat="29.15529" lon="-13.43749">
        <ele>18.2</ele>
        <time>2021-07-02 16:13:49</time>
      </trkpt>
      <trkpt lat="29.15531" lon="-13.43747">
        <ele>18.2</ele>
        <time>2021-07-02 16:13:50</time>
      </trkpt>
      <trkpt lat="29.15533" lon="-13.43744">
        <ele>18.2</ele>
        <time>2021-07-02 16:13:51</time>
      </trkpt>
      <trkpt lat="29.15536" lon="-13.43741">
        <ele>18.4</ele>
        <time>2021-07-02 16:13:52</time>
      </trkpt>
      <trkpt lat="29.15538" lon="-13.43738">
        <ele>18.4</ele>
        <time>2021-07-02 16:13:53</time>
      </trkpt>
      <trkpt lat="29.1554" lon="-13.43736">
        <ele>18.4</ele>
        <time>2021-07-02 16:13:54</time>
      </trkpt>
      <trkpt lat="29.15542" lon="-13.43733">
        <ele>18.8</ele>
        <time>2021-07-02 16:13:55</time>
      </trkpt>
      <trkpt lat="29.15545" lon="-13.4373">
        <ele>18.8</ele>
        <time>2021-07-02 16:13:56</time>
      </trkpt>
      <trkpt lat="29.15547" lon="-13.43727">
        <ele>19</ele>
        <time>2021-07-02 16:13:57</time>
      </trkpt>
      <trkpt lat="29.15549" lon="-13.43725">
        <ele>19</ele>
        <time>2021-07-02 16:13:58</time>
      </trkpt>
      <trkpt lat="29.15551" lon="-13.43722">
        <ele>19</ele>
        <time>2021-07-02 16:13:59</time>
      </trkpt>
      <trkpt lat="29.15554" lon="-13.43719">
        <ele>19</ele>
        <time>2021-07-02 16:14:00</time>
      </trkpt>
      <trkpt lat="29.15556" lon="-13.43716">
        <ele>19.2</ele>
        <time>2021-07-02 16:14:01</time>
      </trkpt>
      <trkpt lat="29.15558" lon="-13.43714">
        <ele>19.4</ele>
        <time>2021-07-02 16:14:02</time>
      </trkpt>
      <trkpt lat="29.1556" lon="-13.43711">
        <ele>19.4</ele>
        <time>2021-07-02 16:14:03</time>
      </trkpt>
      <trkpt lat="29.15562" lon="-13.43709">
        <ele>19.8</ele>
        <time>2021-07-02 16:14:04</time>
      </trkpt>
      <trkpt lat="29.15563" lon="-13.43706">
        <ele>20</ele>
        <time>2021-07-02 16:14:05</time>
      </trkpt>
      <trkpt lat="29.15565" lon="-13.43703">
        <ele>20.2</ele>
        <time>2021-07-02 16:14:06</time>
      </trkpt>
      <trkpt lat="29.15567" lon="-13.437">
        <ele>20.2</ele>
        <time>2021-07-02 16:14:07</time>
      </trkpt>
      <trkpt lat="29.15569" lon="-13.43698">
        <ele>20.6</ele>
        <time>2021-07-02 16:14:08</time>
      </trkpt>
      <trkpt lat="29.15571" lon="-13.43695">
        <ele>20.6</ele>
        <time>2021-07-02 16:14:09</time>
      </trkpt>
      <trkpt lat="29.15573" lon="-13.43692">
        <ele>20.8</ele>
        <time>2021-07-02 16:14:10</time>
      </trkpt>
      <trkpt lat="29.15575" lon="-13.43689">
        <ele>21.2</ele>
        <time>2021-07-02 16:14:11</time>
      </trkpt>
      <trkpt lat="29.15577" lon="-13.43686">
        <ele>21.2</ele>
        <time>2021-07-02 16:14:12</time>
      </trkpt>
      <trkpt lat="29.15578" lon="-13.43682">
        <ele>21.4</ele>
        <time>2021-07-02 16:14:13</time>
      </trkpt>
      <trkpt lat="29.1558" lon="-13.43679">
        <ele>21.8</ele>
        <time>2021-07-02 16:14:14</time>
      </trkpt>
      <trkpt lat="29.15582" lon="-13.43676">
        <ele>22</ele>
        <time>2021-07-02 16:14:15</time>
      </trkpt>
      <trkpt lat="29.15583" lon="-13.43672">
        <ele>22.2</ele>
        <time>2021-07-02 16:14:16</time>
      </trkpt>
      <trkpt lat="29.15585" lon="-13.43669">
        <ele>22.4</ele>
        <time>2021-07-02 16:14:17</time>
      </trkpt>
      <trkpt lat="29.15586" lon="-13.43666">
        <ele>22.4</ele>
        <time>2021-07-02 16:14:18</time>
      </trkpt>
      <trkpt lat="29.15587" lon="-13.43662">
        <ele>22.8</ele>
        <time>2021-07-02 16:14:19</time>
      </trkpt>
      <trkpt lat="29.15589" lon="-13.43659">
        <ele>23</ele>
        <time>2021-07-02 16:14:20</time>
      </trkpt>
      <trkpt lat="29.1559" lon="-13.43655">
        <ele>23.4</ele>
        <time>2021-07-02 16:14:21</time>
      </trkpt>
      <trkpt lat="29.15591" lon="-13.43651">
        <ele>23.6</ele>
        <time>2021-07-02 16:14:22</time>
      </trkpt>
      <trkpt lat="29.15592" lon="-13.43648">
        <ele>23.8</ele>
        <time>2021-07-02 16:14:23</time>
      </trkpt>
      <trkpt lat="29.15594" lon="-13.43644">
        <ele>24</ele>
        <time>2021-07-02 16:14:24</time>
      </trkpt>
      <trkpt lat="29.15595" lon="-13.4364">
        <ele>24</ele>
        <time>2021-07-02 16:14:25</time>
      </trkpt>
      <trkpt lat="29.15596" lon="-13.43637">
        <ele>24.4</ele>
        <time>2021-07-02 16:14:26</time>
      </trkpt>
      <trkpt lat="29.15598" lon="-13.43633">
        <ele>24.4</ele>
        <time>2021-07-02 16:14:27</time>
      </trkpt>
      <trkpt lat="29.15599" lon="-13.43629">
        <ele>24.8</ele>
        <time>2021-07-02 16:14:28</time>
      </trkpt>
      <trkpt lat="29.15601" lon="-13.43626">
        <ele>25</ele>
        <time>2021-07-02 16:14:29</time>
      </trkpt>
      <trkpt lat="29.15602" lon="-13.43622">
        <ele>25.2</ele>
        <time>2021-07-02 16:14:30</time>
      </trkpt>
      <trkpt lat="29.15603" lon="-13.43618">
        <ele>25.4</ele>
        <time>2021-07-02 16:14:31</time>
      </trkpt>
      <trkpt lat="29.15605" lon="-13.43614">
        <ele>25.6</ele>
        <time>2021-07-02 16:14:32</time>
      </trkpt>
      <trkpt lat="29.15606" lon="-13.4361">
        <ele>25.6</ele>
        <time>2021-07-02 16:14:33</time>
      </trkpt>
      <trkpt lat="29.15608" lon="-13.43607">
        <ele>26</ele>
        <time>2021-07-02 16:14:34</time>
      </trkpt>
      <trkpt lat="29.15609" lon="-13.43603">
        <ele>26</ele>
        <time>2021-07-02 16:14:35</time>
      </trkpt>
      <trkpt lat="29.1561" lon="-13.43599">
        <ele>26.4</ele>
        <time>2021-07-02 16:14:36</time>
      </trkpt>
      <trkpt lat="29.15612" lon="-13.43595">
        <ele>26.4</ele>
        <time>2021-07-02 16:14:37</time>
      </trkpt>
      <trkpt lat="29.15613" lon="-13.43591">
        <ele>26.6</ele>
        <time>2021-07-02 16:14:38</time>
      </trkpt>
      <trkpt lat="29.15614" lon="-13.43587">
        <ele>26.8</ele>
        <time>2021-07-02 16:14:39</time>
      </trkpt>
      <trkpt lat="29.15616" lon="-13.43583">
        <ele>27</ele>
        <time>2021-07-02 16:14:40</time>
      </trkpt>
      <trkpt lat="29.15617" lon="-13.43579">
        <ele>27</ele>
        <time>2021-07-02 16:14:41</time>
      </trkpt>
      <trkpt lat="29.15619" lon="-13.43575">
        <ele>27.4</ele>
        <time>2021-07-02 16:14:42</time>
      </trkpt>
      <trkpt lat="29.1562" lon="-13.43572">
        <ele>27.8</ele>
        <time>2021-07-02 16:14:43</time>
      </trkpt>
      <trkpt lat="29.15621" lon="-13.43568">
        <ele>27.8</ele>
        <time>2021-07-02 16:14:44</time>
      </trkpt>
      <trkpt lat="29.15623" lon="-13.43564">
        <ele>28.2</ele>
        <time>2021-07-02 16:14:45</time>
      </trkpt>
      <trkpt lat="29.15624" lon="-13.4356">
        <ele>28.2</ele>
        <time>2021-07-02 16:14:46</time>
      </trkpt>
      <trkpt lat="29.15625" lon="-13.43556">
        <ele>28.4</ele>
        <time>2021-07-02 16:14:47</time>
      </trkpt>
      <trkpt lat="29.15627" lon="-13.43553">
        <ele>28.4</ele>
        <time>2021-07-02 16:14:48</time>
      </trkpt>
      <trkpt lat="29.15628" lon="-13.43549">
        <ele>28.6</ele>
        <time>2021-07-02 16:14:49</time>
      </trkpt>
      <trkpt lat="29.1563" lon="-13.43545">
        <ele>28.6</ele>
        <time>2021-07-02 16:14:50</time>
      </trkpt>
      <trkpt lat="29.15632" lon="-13.43541">
        <ele>29</ele>
        <time>2021-07-02 16:14:51</time>
      </trkpt>
      <trkpt lat="29.15634" lon="-13.43538">
        <ele>29</ele>
        <time>2021-07-02 16:14:52</time>
      </trkpt>
      <trkpt lat="29.15635" lon="-13.43534">
        <ele>29</ele>
        <time>2021-07-02 16:14:53</time>
      </trkpt>
      <trkpt lat="29.15637" lon="-13.4353">
        <ele>29</ele>
        <time>2021-07-02 16:14:54</time>
      </trkpt>
      <trkpt lat="29.1564" lon="-13.43526">
        <ele>29</ele>
        <time>2021-07-02 16:14:55</time>
      </trkpt>
      <trkpt lat="29.15642" lon="-13.43523">
        <ele>29</ele>
        <time>2021-07-02 16:14:56</time>
      </trkpt>
      <trkpt lat="29.15644" lon="-13.43519">
        <ele>29.2</ele>
        <time>2021-07-02 16:14:57</time>
      </trkpt>
      <trkpt lat="29.15647" lon="-13.43515">
        <ele>29.2</ele>
        <time>2021-07-02 16:14:58</time>
      </trkpt>
      <trkpt lat="29.15649" lon="-13.43512">
        <ele>29.2</ele>
        <time>2021-07-02 16:14:59</time>
      </trkpt>
      <trkpt lat="29.15652" lon="-13.43508">
        <ele>29.6</ele>
        <time>2021-07-02 16:15:00</time>
      </trkpt>
      <trkpt lat="29.15654" lon="-13.43505">
        <ele>29.6</ele>
        <time>2021-07-02 16:15:01</time>
      </trkpt>
      <trkpt lat="29.15657" lon="-13.43501">
        <ele>29.6</ele>
        <time>2021-07-02 16:15:02</time>
      </trkpt>
      <trkpt lat="29.1566" lon="-13.43498">
        <ele>29.8</ele>
        <time>2021-07-02 16:15:03</time>
      </trkpt>
      <trkpt lat="29.15662" lon="-13.43495">
        <ele>29.8</ele>
        <time>2021-07-02 16:15:04</time>
      </trkpt>
      <trkpt lat="29.15665" lon="-13.43492">
        <ele>29.8</ele>
        <time>2021-07-02 16:15:05</time>
      </trkpt>
      <trkpt lat="29.15668" lon="-13.43488">
        <ele>29.8</ele>
        <time>2021-07-02 16:15:06</time>
      </trkpt>
      <trkpt lat="29.15671" lon="-13.43485">
        <ele>29.8</ele>
        <time>2021-07-02 16:15:07</time>
      </trkpt>
      <trkpt lat="29.15674" lon="-13.43482">
        <ele>29.8</ele>
        <time>2021-07-02 16:15:08</time>
      </trkpt>
      <trkpt lat="29.15676" lon="-13.43479">
        <ele>30</ele>
        <time>2021-07-02 16:15:09</time>
      </trkpt>
      <trkpt lat="29.15679" lon="-13.43476">
        <ele>30</ele>
        <time>2021-07-02 16:15:10</time>
      </trkpt>
      <trkpt lat="29.15682" lon="-13.43474">
        <ele>30</ele>
        <time>2021-07-02 16:15:11</time>
      </trkpt>
      <trkpt lat="29.15685" lon="-13.43471">
        <ele>30</ele>
        <time>2021-07-02 16:15:12</time>
      </trkpt>
      <trkpt lat="29.15688" lon="-13.43468">
        <ele>29.8</ele>
        <time>2021-07-02 16:15:13</time>
      </trkpt>
      <trkpt lat="29.15692" lon="-13.43465">
        <ele>29.8</ele>
        <time>2021-07-02 16:15:14</time>
      </trkpt>
      <trkpt lat="29.15695" lon="-13.43462">
        <ele>29.6</ele>
        <time>2021-07-02 16:15:15</time>
      </trkpt>
      <trkpt lat="29.15698" lon="-13.43459">
        <ele>29.6</ele>
        <time>2021-07-02 16:15:16</time>
      </trkpt>
      <trkpt lat="29.15702" lon="-13.43457">
        <ele>29.4</ele>
        <time>2021-07-02 16:15:17</time>
      </trkpt>
      <trkpt lat="29.15705" lon="-13.43454">
        <ele>29.4</ele>
        <time>2021-07-02 16:15:18</time>
      </trkpt>
      <trkpt lat="29.15708" lon="-13.43451">
        <ele>29.4</ele>
        <time>2021-07-02 16:15:19</time>
      </trkpt>
      <trkpt lat="29.15712" lon="-13.43449">
        <ele>29.4</ele>
        <time>2021-07-02 16:15:20</time>
      </trkpt>
      <trkpt lat="29.15715" lon="-13.43446">
        <ele>29.4</ele>
        <time>2021-07-02 16:15:21</time>
      </trkpt>
      <trkpt lat="29.15719" lon="-13.43444">
        <ele>29</ele>
        <time>2021-07-02 16:15:22</time>
      </trkpt>
      <trkpt lat="29.15722" lon="-13.43441">
        <ele>29</ele>
        <time>2021-07-02 16:15:23</time>
      </trkpt>
      <trkpt lat="29.15726" lon="-13.43439">
        <ele>29</ele>
        <time>2021-07-02 16:15:24</time>
      </trkpt>
      <trkpt lat="29.15729" lon="-13.43436">
        <ele>28.8</ele>
        <time>2021-07-02 16:15:25</time>
      </trkpt>
      <trkpt lat="29.15733" lon="-13.43434">
        <ele>28.8</ele>
        <time>2021-07-02 16:15:26</time>
      </trkpt>
      <trkpt lat="29.15737" lon="-13.43432">
        <ele>28.6</ele>
        <time>2021-07-02 16:15:27</time>
      </trkpt>
      <trkpt lat="29.15741" lon="-13.4343">
        <ele>28.4</ele>
        <time>2021-07-02 16:15:28</time>
      </trkpt>
      <trkpt lat="29.15745" lon="-13.43428">
        <ele>28</ele>
        <time>2021-07-02 16:15:29</time>
      </trkpt>
      <trkpt lat="29.15749" lon="-13.43426">
        <ele>27.8</ele>
        <time>2021-07-02 16:15:30</time>
      </trkpt>
      <trkpt lat="29.15753" lon="-13.43423">
        <ele>27.6</ele>
        <time>2021-07-02 16:15:31</time>
      </trkpt>
      <trkpt lat="29.15757" lon="-13.43421">
        <ele>27.6</ele>
        <time>2021-07-02 16:15:32</time>
      </trkpt>
      <trkpt lat="29.15761" lon="-13.43419">
        <ele>27.2</ele>
        <time>2021-07-02 16:15:33</time>
      </trkpt>
      <trkpt lat="29.15766" lon="-13.43417">
        <ele>27</ele>
        <time>2021-07-02 16:15:34</time>
      </trkpt>
      <trkpt lat="29.1577" lon="-13.43415">
        <ele>26.8</ele>
        <time>2021-07-02 16:15:35</time>
      </trkpt>
      <trkpt lat="29.15775" lon="-13.43413">
        <ele>26.6</ele>
        <time>2021-07-02 16:15:36</time>
      </trkpt>
      <trkpt lat="29.15779" lon="-13.43411">
        <ele>26.2</ele>
        <time>2021-07-02 16:15:37</time>
      </trkpt>
      <trkpt lat="29.15783" lon="-13.43409">
        <ele>26.2</ele>
        <time>2021-07-02 16:15:38</time>
      </trkpt>
      <trkpt lat="29.15788" lon="-13.43408">
        <ele>26.2</ele>
        <time>2021-07-02 16:15:39</time>
      </trkpt>
      <trkpt lat="29.15792" lon="-13.43404">
        <ele>26.2</ele>
        <time>2021-07-02 16:15:40</time>
      </trkpt>
      <trkpt lat="29.15796" lon="-13.43402">
        <ele>26</ele>
        <time>2021-07-02 16:15:41</time>
      </trkpt>
      <trkpt lat="29.158" lon="-13.434">
        <ele>25.6</ele>
        <time>2021-07-02 16:15:42</time>
      </trkpt>
      <trkpt lat="29.15804" lon="-13.43397">
        <ele>25.6</ele>
        <time>2021-07-02 16:15:43</time>
      </trkpt>
      <trkpt lat="29.15808" lon="-13.43395">
        <ele>25.2</ele>
        <time>2021-07-02 16:15:44</time>
      </trkpt>
      <trkpt lat="29.15812" lon="-13.43392">
        <ele>25.2</ele>
        <time>2021-07-02 16:15:45</time>
      </trkpt>
      <trkpt lat="29.15815" lon="-13.43389">
        <ele>24.8</ele>
        <time>2021-07-02 16:15:46</time>
      </trkpt>
      <trkpt lat="29.15818" lon="-13.43386">
        <ele>24.6</ele>
        <time>2021-07-02 16:15:47</time>
      </trkpt>
      <trkpt lat="29.15821" lon="-13.43385">
        <ele>24.2</ele>
        <time>2021-07-02 16:15:48</time>
      </trkpt>
      <trkpt lat="29.15824" lon="-13.43383">
        <ele>24</ele>
        <time>2021-07-02 16:15:49</time>
      </trkpt>
      <trkpt lat="29.15826" lon="-13.43381">
        <ele>24</ele>
        <time>2021-07-02 16:15:50</time>
      </trkpt>
      <trkpt lat="29.15829" lon="-13.4338">
        <ele>23.6</ele>
        <time>2021-07-02 16:15:51</time>
      </trkpt>
      <trkpt lat="29.15831" lon="-13.4338">
        <ele>23.2</ele>
        <time>2021-07-02 16:15:52</time>
      </trkpt>
      <trkpt lat="29.15832" lon="-13.4338">
        <ele>23</ele>
        <time>2021-07-02 16:15:53</time>
      </trkpt>
      <trkpt lat="29.15832" lon="-13.4338">
        <ele>22.8</ele>
        <time>2021-07-02 16:15:54</time>
      </trkpt>
      <trkpt lat="29.15832" lon="-13.4338">
        <ele>22.4</ele>
        <time>2021-07-02 16:15:55</time>
      </trkpt>
      <trkpt lat="29.15832" lon="-13.4338">
        <ele>22.2</ele>
        <time>2021-07-02 16:15:56</time>
      </trkpt>
      <trkpt lat="29.15832" lon="-13.4338">
        <ele>22.2</ele>
        <time>2021-07-02 16:15:57</time>
      </trkpt>
      <trkpt lat="29.15835" lon="-13.43379">
        <ele>20.8</ele>
        <time>2021-07-02 16:15:58</time>
      </trkpt>
      <trkpt lat="29.15836" lon="-13.43379">
        <ele>20.8</ele>
        <time>2021-07-02 16:15:59</time>
      </trkpt>
      <trkpt lat="29.15836" lon="-13.43379">
        <ele>20.8</ele>
        <time>2021-07-02 16:16:00</time>
      </trkpt>
      <trkpt lat="29.15836" lon="-13.43379">
        <ele>20.8</ele>
        <time>2021-07-02 16:16:01</time>
      </trkpt>
      <trkpt lat="29.15837" lon="-13.43379">
        <ele>20.8</ele>
        <time>2021-07-02 16:16:02</time>
      </trkpt>
      <trkpt lat="29.15838" lon="-13.43379">
        <ele>21.2</ele>
        <time>2021-07-02 16:16:03</time>
      </trkpt>
      <trkpt lat="29.1584" lon="-13.4338">
        <ele>21.2</ele>
        <time>2021-07-02 16:16:04</time>
      </trkpt>
      <trkpt lat="29.15842" lon="-13.43379">
        <ele>21.2</ele>
        <time>2021-07-02 16:16:05</time>
      </trkpt>
      <trkpt lat="29.15844" lon="-13.43378">
        <ele>21</ele>
        <time>2021-07-02 16:16:06</time>
      </trkpt>
      <trkpt lat="29.15847" lon="-13.43377">
        <ele>21</ele>
        <time>2021-07-02 16:16:07</time>
      </trkpt>
      <trkpt lat="29.1585" lon="-13.43375">
        <ele>21</ele>
        <time>2021-07-02 16:16:08</time>
      </trkpt>
      <trkpt lat="29.15854" lon="-13.43373">
        <ele>20.8</ele>
        <time>2021-07-02 16:16:09</time>
      </trkpt>
      <trkpt lat="29.15857" lon="-13.43371">
        <ele>20.8</ele>
        <time>2021-07-02 16:16:10</time>
      </trkpt>
      <trkpt lat="29.15859" lon="-13.4337">
        <ele>20.6</ele>
        <time>2021-07-02 16:16:11</time>
      </trkpt>
      <trkpt lat="29.15863" lon="-13.43368">
        <ele>20.6</ele>
        <time>2021-07-02 16:16:12</time>
      </trkpt>
      <trkpt lat="29.15866" lon="-13.43366">
        <ele>20.6</ele>
        <time>2021-07-02 16:16:13</time>
      </trkpt>
      <trkpt lat="29.15869" lon="-13.43364">
        <ele>20.6</ele>
        <time>2021-07-02 16:16:14</time>
      </trkpt>
      <trkpt lat="29.15873" lon="-13.43363">
        <ele>20.4</ele>
        <time>2021-07-02 16:16:15</time>
      </trkpt>
      <trkpt lat="29.15877" lon="-13.43361">
        <ele>20.4</ele>
        <time>2021-07-02 16:16:16</time>
      </trkpt>
      <trkpt lat="29.1588" lon="-13.43359">
        <ele>20.2</ele>
        <time>2021-07-02 16:16:17</time>
      </trkpt>
      <trkpt lat="29.15884" lon="-13.43357">
        <ele>19.8</ele>
        <time>2021-07-02 16:16:18</time>
      </trkpt>
      <trkpt lat="29.15888" lon="-13.43355">
        <ele>19.8</ele>
        <time>2021-07-02 16:16:19</time>
      </trkpt>
      <trkpt lat="29.15892" lon="-13.43353">
        <ele>19.6</ele>
        <time>2021-07-02 16:16:20</time>
      </trkpt>
      <trkpt lat="29.15896" lon="-13.43351">
        <ele>19.4</ele>
        <time>2021-07-02 16:16:21</time>
      </trkpt>
      <trkpt lat="29.159" lon="-13.43349">
        <ele>19</ele>
        <time>2021-07-02 16:16:22</time>
      </trkpt>
      <trkpt lat="29.15904" lon="-13.43347">
        <ele>18.8</ele>
        <time>2021-07-02 16:16:23</time>
      </trkpt>
      <trkpt lat="29.15908" lon="-13.43345">
        <ele>18.8</ele>
        <time>2021-07-02 16:16:24</time>
      </trkpt>
      <trkpt lat="29.15912" lon="-13.43343">
        <ele>18.6</ele>
        <time>2021-07-02 16:16:25</time>
      </trkpt>
      <trkpt lat="29.15915" lon="-13.43341">
        <ele>18.6</ele>
        <time>2021-07-02 16:16:26</time>
      </trkpt>
      <trkpt lat="29.1592" lon="-13.43339">
        <ele>18.6</ele>
        <time>2021-07-02 16:16:27</time>
      </trkpt>
      <trkpt lat="29.15924" lon="-13.43336">
        <ele>18.4</ele>
        <time>2021-07-02 16:16:28</time>
      </trkpt>
      <trkpt lat="29.15927" lon="-13.43334">
        <ele>18.4</ele>
        <time>2021-07-02 16:16:29</time>
      </trkpt>
      <trkpt lat="29.15932" lon="-13.43332">
        <ele>18.4</ele>
        <time>2021-07-02 16:16:30</time>
      </trkpt>
      <trkpt lat="29.15935" lon="-13.4333">
        <ele>18.4</ele>
        <time>2021-07-02 16:16:31</time>
      </trkpt>
      <trkpt lat="29.15939" lon="-13.43328">
        <ele>18.2</ele>
        <time>2021-07-02 16:16:32</time>
      </trkpt>
      <trkpt lat="29.15944" lon="-13.43326">
        <ele>18.2</ele>
        <time>2021-07-02 16:16:33</time>
      </trkpt>
      <trkpt lat="29.15948" lon="-13.43324">
        <ele>18.2</ele>
        <time>2021-07-02 16:16:34</time>
      </trkpt>
      <trkpt lat="29.15952" lon="-13.43322">
        <ele>17.8</ele>
        <time>2021-07-02 16:16:35</time>
      </trkpt>
      <trkpt lat="29.15956" lon="-13.4332">
        <ele>17.8</ele>
        <time>2021-07-02 16:16:36</time>
      </trkpt>
      <trkpt lat="29.1596" lon="-13.43318">
        <ele>17.8</ele>
        <time>2021-07-02 16:16:37</time>
      </trkpt>
      <trkpt lat="29.15964" lon="-13.43316">
        <ele>17.8</ele>
        <time>2021-07-02 16:16:38</time>
      </trkpt>
      <trkpt lat="29.15968" lon="-13.43313">
        <ele>17.8</ele>
        <time>2021-07-02 16:16:39</time>
      </trkpt>
      <trkpt lat="29.15972" lon="-13.43312">
        <ele>17.8</ele>
        <time>2021-07-02 16:16:40</time>
      </trkpt>
      <trkpt lat="29.15976" lon="-13.4331">
        <ele>17.8</ele>
        <time>2021-07-02 16:16:41</time>
      </trkpt>
      <trkpt lat="29.1598" lon="-13.43307">
        <ele>17.8</ele>
        <time>2021-07-02 16:16:42</time>
      </trkpt>
      <trkpt lat="29.15984" lon="-13.43305">
        <ele>17.8</ele>
        <time>2021-07-02 16:16:43</time>
      </trkpt>
      <trkpt lat="29.15988" lon="-13.43303">
        <ele>17.8</ele>
        <time>2021-07-02 16:16:44</time>
      </trkpt>
      <trkpt lat="29.15992" lon="-13.43301">
        <ele>17.8</ele>
        <time>2021-07-02 16:16:45</time>
      </trkpt>
      <trkpt lat="29.15996" lon="-13.43299">
        <ele>17.8</ele>
        <time>2021-07-02 16:16:46</time>
      </trkpt>
      <trkpt lat="29.16" lon="-13.43297">
        <ele>17.8</ele>
        <time>2021-07-02 16:16:47</time>
      </trkpt>
      <trkpt lat="29.16004" lon="-13.43295">
        <ele>17.8</ele>
        <time>2021-07-02 16:16:48</time>
      </trkpt>
      <trkpt lat="29.16008" lon="-13.43293">
        <ele>17.8</ele>
        <time>2021-07-02 16:16:49</time>
      </trkpt>
      <trkpt lat="29.16012" lon="-13.43291">
        <ele>17.8</ele>
        <time>2021-07-02 16:16:50</time>
      </trkpt>
      <trkpt lat="29.16016" lon="-13.43289">
        <ele>17.8</ele>
        <time>2021-07-02 16:16:51</time>
      </trkpt>
      <trkpt lat="29.1602" lon="-13.43287">
        <ele>17.8</ele>
        <time>2021-07-02 16:16:52</time>
      </trkpt>
      <trkpt lat="29.16024" lon="-13.43285">
        <ele>17.8</ele>
        <time>2021-07-02 16:16:53</time>
      </trkpt>
      <trkpt lat="29.16028" lon="-13.43283">
        <ele>17.6</ele>
        <time>2021-07-02 16:16:54</time>
      </trkpt>
      <trkpt lat="29.16032" lon="-13.43281">
        <ele>17.6</ele>
        <time>2021-07-02 16:16:55</time>
      </trkpt>
      <trkpt lat="29.16036" lon="-13.43279">
        <ele>17.6</ele>
        <time>2021-07-02 16:16:56</time>
      </trkpt>
      <trkpt lat="29.1604" lon="-13.43277">
        <ele>17.6</ele>
        <time>2021-07-02 16:16:57</time>
      </trkpt>
      <trkpt lat="29.16044" lon="-13.43275">
        <ele>17.6</ele>
        <time>2021-07-02 16:16:58</time>
      </trkpt>
      <trkpt lat="29.16049" lon="-13.43273">
        <ele>17.6</ele>
        <time>2021-07-02 16:16:59</time>
      </trkpt>
      <trkpt lat="29.16052" lon="-13.43271">
        <ele>17.6</ele>
        <time>2021-07-02 16:17:00</time>
      </trkpt>
      <trkpt lat="29.16056" lon="-13.43269">
        <ele>17.6</ele>
        <time>2021-07-02 16:17:01</time>
      </trkpt>
      <trkpt lat="29.1606" lon="-13.43267">
        <ele>17.6</ele>
        <time>2021-07-02 16:17:02</time>
      </trkpt>
      <trkpt lat="29.16064" lon="-13.43264">
        <ele>17.6</ele>
        <time>2021-07-02 16:17:03</time>
      </trkpt>
      <trkpt lat="29.16068" lon="-13.43263">
        <ele>17.6</ele>
        <time>2021-07-02 16:17:04</time>
      </trkpt>
      <trkpt lat="29.16072" lon="-13.43261">
        <ele>17.6</ele>
        <time>2021-07-02 16:17:05</time>
      </trkpt>
      <trkpt lat="29.16076" lon="-13.43259">
        <ele>17.6</ele>
        <time>2021-07-02 16:17:06</time>
      </trkpt>
      <trkpt lat="29.1608" lon="-13.43257">
        <ele>17.6</ele>
        <time>2021-07-02 16:17:07</time>
      </trkpt>
      <trkpt lat="29.16084" lon="-13.43255">
        <ele>17.6</ele>
        <time>2021-07-02 16:17:08</time>
      </trkpt>
      <trkpt lat="29.16088" lon="-13.43253">
        <ele>17.6</ele>
        <time>2021-07-02 16:18:24</time>
      </trkpt>
      <trkpt lat="29.16091" lon="-13.43251">
        <ele>18</ele>
        <time>2021-07-02 16:18:25</time>
      </trkpt>
      <trkpt lat="29.16095" lon="-13.43249">
        <ele>18</ele>
        <time>2021-07-02 16:18:26</time>
      </trkpt>
      <trkpt lat="29.16099" lon="-13.43247">
        <ele>18</ele>
        <time>2021-07-02 16:18:27</time>
      </trkpt>
      <trkpt lat="29.16103" lon="-13.43245">
        <ele>18.2</ele>
        <time>2021-07-02 16:18:28</time>
      </trkpt>
      <trkpt lat="29.16107" lon="-13.43244">
        <ele>18.2</ele>
        <time>2021-07-02 16:18:46</time>
      </trkpt>
      <trkpt lat="29.16111" lon="-13.43242">
        <ele>18.2</ele>
        <time>2021-07-02 16:18:47</time>
      </trkpt>
      <trkpt lat="29.16114" lon="-13.4324">
        <ele>18.2</ele>
        <time>2021-07-02 16:18:48</time>
      </trkpt>
      <trkpt lat="29.16118" lon="-13.43238">
        <ele>18.2</ele>
        <time>2021-07-02 16:18:49</time>
      </trkpt>
      <trkpt lat="29.16122" lon="-13.43236">
        <ele>18.2</ele>
        <time>2021-07-02 16:18:50</time>
      </trkpt>
      <trkpt lat="29.16126" lon="-13.43234">
        <ele>18.2</ele>
        <time>2021-07-02 16:18:51</time>
      </trkpt>
      <trkpt lat="29.1613" lon="-13.43232">
        <ele>18.2</ele>
        <time>2021-07-02 16:18:52</time>
      </trkpt>
      <trkpt lat="29.16134" lon="-13.4323">
        <ele>18.2</ele>
        <time>2021-07-02 16:18:53</time>
      </trkpt>
      <trkpt lat="29.16138" lon="-13.43228">
        <ele>18.2</ele>
        <time>2021-07-02 16:18:54</time>
      </trkpt>
      <trkpt lat="29.16143" lon="-13.43225">
        <ele>18.2</ele>
        <time>2021-07-02 16:18:55</time>
      </trkpt>
      <trkpt lat="29.16149" lon="-13.43223">
        <ele>18.2</ele>
        <time>2021-07-02 16:18:56</time>
      </trkpt>
      <trkpt lat="29.16154" lon="-13.4322">
        <ele>18.2</ele>
        <time>2021-07-02 16:18:57</time>
      </trkpt>
      <trkpt lat="29.16159" lon="-13.43217">
        <ele>18.2</ele>
        <time>2021-07-02 16:18:58</time>
      </trkpt>
      <trkpt lat="29.16165" lon="-13.43214">
        <ele>18</ele>
        <time>2021-07-02 16:18:59</time>
      </trkpt>
      <trkpt lat="29.1617" lon="-13.43212">
        <ele>18</ele>
        <time>2021-07-02 16:19:00</time>
      </trkpt>
      <trkpt lat="29.16175" lon="-13.4321">
        <ele>17.8</ele>
        <time>2021-07-02 16:19:01</time>
      </trkpt>
      <trkpt lat="29.1618" lon="-13.43208">
        <ele>17.8</ele>
        <time>2021-07-02 16:19:02</time>
      </trkpt>
      <trkpt lat="29.16184" lon="-13.43206">
        <ele>17.8</ele>
        <time>2021-07-02 16:19:03</time>
      </trkpt>
      <trkpt lat="29.16188" lon="-13.43203">
        <ele>17.4</ele>
        <time>2021-07-02 16:19:04</time>
      </trkpt>
      <trkpt lat="29.16193" lon="-13.43201">
        <ele>17.4</ele>
        <time>2021-07-02 16:19:05</time>
      </trkpt>
      <trkpt lat="29.16197" lon="-13.43198">
        <ele>17.2</ele>
        <time>2021-07-02 16:19:06</time>
      </trkpt>
      <trkpt lat="29.16202" lon="-13.43195">
        <ele>17.2</ele>
        <time>2021-07-02 16:19:07</time>
      </trkpt>
      <trkpt lat="29.16207" lon="-13.43193">
        <ele>16.8</ele>
        <time>2021-07-02 16:19:08</time>
      </trkpt>
      <trkpt lat="29.16212" lon="-13.43191">
        <ele>16.8</ele>
        <time>2021-07-02 16:19:09</time>
      </trkpt>
      <trkpt lat="29.16217" lon="-13.43188">
        <ele>16.6</ele>
        <time>2021-07-02 16:19:10</time>
      </trkpt>
      <trkpt lat="29.16221" lon="-13.43186">
        <ele>16.6</ele>
        <time>2021-07-02 16:19:11</time>
      </trkpt>
      <trkpt lat="29.16226" lon="-13.43184">
        <ele>16.6</ele>
        <time>2021-07-02 16:19:12</time>
      </trkpt>
      <trkpt lat="29.16231" lon="-13.43181">
        <ele>16.2</ele>
        <time>2021-07-02 16:19:13</time>
      </trkpt>
      <trkpt lat="29.16236" lon="-13.43178">
        <ele>16.2</ele>
        <time>2021-07-02 16:19:14</time>
      </trkpt>
      <trkpt lat="29.1624" lon="-13.43176">
        <ele>16.2</ele>
        <time>2021-07-02 16:19:15</time>
      </trkpt>
      <trkpt lat="29.16244" lon="-13.43173">
        <ele>16</ele>
        <time>2021-07-02 16:19:16</time>
      </trkpt>
      <trkpt lat="29.16249" lon="-13.43171">
        <ele>16</ele>
        <time>2021-07-02 16:19:17</time>
      </trkpt>
      <trkpt lat="29.16272" lon="-13.4316">
        <ele>14.8</ele>
        <time>2021-07-02 16:19:18</time>
      </trkpt>
      <trkpt lat="29.16276" lon="-13.43158">
        <ele>14.8</ele>
        <time>2021-07-02 16:19:19</time>
      </trkpt>
      <trkpt lat="29.16281" lon="-13.43155">
        <ele>14.4</ele>
        <time>2021-07-02 16:19:20</time>
      </trkpt>
      <trkpt lat="29.16285" lon="-13.43153">
        <ele>14.4</ele>
        <time>2021-07-02 16:19:21</time>
      </trkpt>
      <trkpt lat="29.16289" lon="-13.43151">
        <ele>14.2</ele>
        <time>2021-07-02 16:19:22</time>
      </trkpt>
      <trkpt lat="29.16293" lon="-13.43149">
        <ele>14.2</ele>
        <time>2021-07-02 16:19:23</time>
      </trkpt>
      <trkpt lat="29.16297" lon="-13.43147">
        <ele>14.2</ele>
        <time>2021-07-02 16:19:24</time>
      </trkpt>
      <trkpt lat="29.16301" lon="-13.43145">
        <ele>14.2</ele>
        <time>2021-07-02 16:19:25</time>
      </trkpt>
      <trkpt lat="29.16305" lon="-13.43143">
        <ele>14.2</ele>
        <time>2021-07-02 16:19:26</time>
      </trkpt>
      <trkpt lat="29.1631" lon="-13.43141">
        <ele>14.2</ele>
        <time>2021-07-02 16:19:27</time>
      </trkpt>
      <trkpt lat="29.16314" lon="-13.43139">
        <ele>14</ele>
        <time>2021-07-02 16:19:28</time>
      </trkpt>
      <trkpt lat="29.16318" lon="-13.43137">
        <ele>14</ele>
        <time>2021-07-02 16:19:29</time>
      </trkpt>
      <trkpt lat="29.16322" lon="-13.43135">
        <ele>14</ele>
        <time>2021-07-02 16:19:30</time>
      </trkpt>
      <trkpt lat="29.16326" lon="-13.43132">
        <ele>14</ele>
        <time>2021-07-02 16:19:31</time>
      </trkpt>
      <trkpt lat="29.1633" lon="-13.43131">
        <ele>14</ele>
        <time>2021-07-02 16:19:32</time>
      </trkpt>
      <trkpt lat="29.16334" lon="-13.43129">
        <ele>14</ele>
        <time>2021-07-02 16:19:33</time>
      </trkpt>
      <trkpt lat="29.16338" lon="-13.43127">
        <ele>14</ele>
        <time>2021-07-02 16:19:34</time>
      </trkpt>
      <trkpt lat="29.16342" lon="-13.43125">
        <ele>14</ele>
        <time>2021-07-02 16:19:35</time>
      </trkpt>
      <trkpt lat="29.16346" lon="-13.43123">
        <ele>14.2</ele>
        <time>2021-07-02 16:19:36</time>
      </trkpt>
      <trkpt lat="29.16355" lon="-13.43118">
        <ele>14.2</ele>
        <time>2021-07-02 16:19:37</time>
      </trkpt>
      <trkpt lat="29.16359" lon="-13.43116">
        <ele>14.2</ele>
        <time>2021-07-02 16:19:38</time>
      </trkpt>
      <trkpt lat="29.16363" lon="-13.43114">
        <ele>14.2</ele>
        <time>2021-07-02 16:19:39</time>
      </trkpt>
      <trkpt lat="29.16368" lon="-13.43112">
        <ele>14.2</ele>
        <time>2021-07-02 16:19:40</time>
      </trkpt>
      <trkpt lat="29.16372" lon="-13.4311">
        <ele>14.2</ele>
        <time>2021-07-02 16:19:41</time>
      </trkpt>
      <trkpt lat="29.16376" lon="-13.43107">
        <ele>14</ele>
        <time>2021-07-02 16:19:42</time>
      </trkpt>
      <trkpt lat="29.1638" lon="-13.43105">
        <ele>14</ele>
        <time>2021-07-02 16:19:43</time>
      </trkpt>
      <trkpt lat="29.16385" lon="-13.43103">
        <ele>14</ele>
        <time>2021-07-02 16:19:44</time>
      </trkpt>
      <trkpt lat="29.16389" lon="-13.431">
        <ele>14</ele>
        <time>2021-07-02 16:19:45</time>
      </trkpt>
      <trkpt lat="29.16394" lon="-13.43098">
        <ele>14</ele>
        <time>2021-07-02 16:19:46</time>
      </trkpt>
      <trkpt lat="29.16398" lon="-13.43096">
        <ele>14.2</ele>
        <time>2021-07-02 16:19:47</time>
      </trkpt>
      <trkpt lat="29.16403" lon="-13.43094">
        <ele>14.2</ele>
        <time>2021-07-02 16:19:48</time>
      </trkpt>
      <trkpt lat="29.16407" lon="-13.43092">
        <ele>14.2</ele>
        <time>2021-07-02 16:19:49</time>
      </trkpt>
      <trkpt lat="29.16411" lon="-13.43089">
        <ele>14.2</ele>
        <time>2021-07-02 16:19:50</time>
      </trkpt>
      <trkpt lat="29.16416" lon="-13.43087">
        <ele>14</ele>
        <time>2021-07-02 16:19:51</time>
      </trkpt>
      <trkpt lat="29.1642" lon="-13.43084">
        <ele>14</ele>
        <time>2021-07-02 16:19:52</time>
      </trkpt>
      <trkpt lat="29.16425" lon="-13.43082">
        <ele>14</ele>
        <time>2021-07-02 16:19:53</time>
      </trkpt>
      <trkpt lat="29.1643" lon="-13.43079">
        <ele>13.8</ele>
        <time>2021-07-02 16:19:54</time>
      </trkpt>
      <trkpt lat="29.16435" lon="-13.43076">
        <ele>13.8</ele>
        <time>2021-07-02 16:19:55</time>
      </trkpt>
      <trkpt lat="29.1644" lon="-13.43074">
        <ele>13.8</ele>
        <time>2021-07-02 16:19:56</time>
      </trkpt>
      <trkpt lat="29.16445" lon="-13.43072">
        <ele>13.6</ele>
        <time>2021-07-02 16:19:57</time>
      </trkpt>
      <trkpt lat="29.16451" lon="-13.43069">
        <ele>13.6</ele>
        <time>2021-07-02 16:19:58</time>
      </trkpt>
      <trkpt lat="29.16455" lon="-13.43067">
        <ele>13.6</ele>
        <time>2021-07-02 16:19:59</time>
      </trkpt>
      <trkpt lat="29.1646" lon="-13.43064">
        <ele>13.6</ele>
        <time>2021-07-02 16:20:00</time>
      </trkpt>
      <trkpt lat="29.16465" lon="-13.43062">
        <ele>13.6</ele>
        <time>2021-07-02 16:20:01</time>
      </trkpt>
      <trkpt lat="29.16471" lon="-13.43059">
        <ele>13.6</ele>
        <time>2021-07-02 16:20:02</time>
      </trkpt>
      <trkpt lat="29.16476" lon="-13.43056">
        <ele>13.6</ele>
        <time>2021-07-02 16:20:03</time>
      </trkpt>
      <trkpt lat="29.16481" lon="-13.43053">
        <ele>13.4</ele>
        <time>2021-07-02 16:20:04</time>
      </trkpt>
      <trkpt lat="29.16486" lon="-13.43051">
        <ele>13.4</ele>
        <time>2021-07-02 16:20:05</time>
      </trkpt>
      <trkpt lat="29.16491" lon="-13.43048">
        <ele>13.4</ele>
        <time>2021-07-02 16:20:06</time>
      </trkpt>
      <trkpt lat="29.16496" lon="-13.43046">
        <ele>13.4</ele>
        <time>2021-07-02 16:20:07</time>
      </trkpt>
      <trkpt lat="29.16501" lon="-13.43043">
        <ele>13.4</ele>
        <time>2021-07-02 16:20:08</time>
      </trkpt>
      <trkpt lat="29.16506" lon="-13.43041">
        <ele>13.4</ele>
        <time>2021-07-02 16:20:09</time>
      </trkpt>
      <trkpt lat="29.1651" lon="-13.43039">
        <ele>13.4</ele>
        <time>2021-07-02 16:20:10</time>
      </trkpt>
      <trkpt lat="29.16515" lon="-13.43036">
        <ele>13.4</ele>
        <time>2021-07-02 16:20:11</time>
      </trkpt>
      <trkpt lat="29.1652" lon="-13.43034">
        <ele>13.4</ele>
        <time>2021-07-02 16:20:12</time>
      </trkpt>
      <trkpt lat="29.16525" lon="-13.43031">
        <ele>13.4</ele>
        <time>2021-07-02 16:20:13</time>
      </trkpt>
      <trkpt lat="29.1653" lon="-13.43029">
        <ele>13.4</ele>
        <time>2021-07-02 16:20:14</time>
      </trkpt>
      <trkpt lat="29.16535" lon="-13.43026">
        <ele>13.4</ele>
        <time>2021-07-02 16:20:15</time>
      </trkpt>
      <trkpt lat="29.1654" lon="-13.43024">
        <ele>13.2</ele>
        <time>2021-07-02 16:20:16</time>
      </trkpt>
      <trkpt lat="29.16544" lon="-13.43021">
        <ele>13.2</ele>
        <time>2021-07-02 16:20:17</time>
      </trkpt>
      <trkpt lat="29.16549" lon="-13.43019">
        <ele>13.2</ele>
        <time>2021-07-02 16:20:18</time>
      </trkpt>
      <trkpt lat="29.16553" lon="-13.43017">
        <ele>13.2</ele>
        <time>2021-07-02 16:20:19</time>
      </trkpt>
      <trkpt lat="29.16558" lon="-13.43015">
        <ele>13.2</ele>
        <time>2021-07-02 16:20:20</time>
      </trkpt>
      <trkpt lat="29.16562" lon="-13.43012">
        <ele>13.2</ele>
        <time>2021-07-02 16:20:21</time>
      </trkpt>
      <trkpt lat="29.16567" lon="-13.4301">
        <ele>13.2</ele>
        <time>2021-07-02 16:20:22</time>
      </trkpt>
      <trkpt lat="29.16571" lon="-13.43008">
        <ele>13.2</ele>
        <time>2021-07-02 16:20:23</time>
      </trkpt>
      <trkpt lat="29.16576" lon="-13.43006">
        <ele>13.2</ele>
        <time>2021-07-02 16:20:24</time>
      </trkpt>
      <trkpt lat="29.1658" lon="-13.43004">
        <ele>13.2</ele>
        <time>2021-07-02 16:20:25</time>
      </trkpt>
      <trkpt lat="29.16585" lon="-13.43002">
        <ele>13.2</ele>
        <time>2021-07-02 16:20:26</time>
      </trkpt>
      <trkpt lat="29.16589" lon="-13.43">
        <ele>13.2</ele>
        <time>2021-07-02 16:20:27</time>
      </trkpt>
      <trkpt lat="29.16593" lon="-13.42998">
        <ele>13.6</ele>
        <time>2021-07-02 16:20:28</time>
      </trkpt>
      <trkpt lat="29.16597" lon="-13.42996">
        <ele>13.8</ele>
        <time>2021-07-02 16:20:29</time>
      </trkpt>
      <trkpt lat="29.16601" lon="-13.42994">
        <ele>13.8</ele>
        <time>2021-07-02 16:20:30</time>
      </trkpt>
      <trkpt lat="29.16606" lon="-13.42992">
        <ele>14.2</ele>
        <time>2021-07-02 16:20:31</time>
      </trkpt>
      <trkpt lat="29.16609" lon="-13.4299">
        <ele>14.2</ele>
        <time>2021-07-02 16:20:32</time>
      </trkpt>
      <trkpt lat="29.16614" lon="-13.42988">
        <ele>14.4</ele>
        <time>2021-07-02 16:20:33</time>
      </trkpt>
      <trkpt lat="29.16618" lon="-13.42986">
        <ele>14.4</ele>
        <time>2021-07-02 16:20:34</time>
      </trkpt>
      <trkpt lat="29.16622" lon="-13.42984">
        <ele>14.4</ele>
        <time>2021-07-02 16:20:35</time>
      </trkpt>
      <trkpt lat="29.16626" lon="-13.42982">
        <ele>14.4</ele>
        <time>2021-07-02 16:20:36</time>
      </trkpt>
      <trkpt lat="29.16631" lon="-13.4298">
        <ele>14.4</ele>
        <time>2021-07-02 16:20:37</time>
      </trkpt>
      <trkpt lat="29.16635" lon="-13.42979">
        <ele>14.6</ele>
        <time>2021-07-02 16:20:38</time>
      </trkpt>
      <trkpt lat="29.16639" lon="-13.42977">
        <ele>14.6</ele>
        <time>2021-07-02 16:20:39</time>
      </trkpt>
      <trkpt lat="29.16643" lon="-13.42975">
        <ele>14.6</ele>
        <time>2021-07-02 16:20:40</time>
      </trkpt>
      <trkpt lat="29.16647" lon="-13.42974">
        <ele>14.8</ele>
        <time>2021-07-02 16:20:41</time>
      </trkpt>
      <trkpt lat="29.16651" lon="-13.42972">
        <ele>14.8</ele>
        <time>2021-07-02 16:20:42</time>
      </trkpt>
      <trkpt lat="29.16655" lon="-13.4297">
        <ele>14.8</ele>
        <time>2021-07-02 16:20:43</time>
      </trkpt>
      <trkpt lat="29.16659" lon="-13.42969">
        <ele>14.8</ele>
        <time>2021-07-02 16:20:44</time>
      </trkpt>
      <trkpt lat="29.16663" lon="-13.42967">
        <ele>14.8</ele>
        <time>2021-07-02 16:20:45</time>
      </trkpt>
      <trkpt lat="29.16667" lon="-13.42965">
        <ele>14.8</ele>
        <time>2021-07-02 16:20:46</time>
      </trkpt>
      <trkpt lat="29.16671" lon="-13.42964">
        <ele>14.8</ele>
        <time>2021-07-02 16:20:47</time>
      </trkpt>
      <trkpt lat="29.16675" lon="-13.42963">
        <ele>14.8</ele>
        <time>2021-07-02 16:20:48</time>
      </trkpt>
      <trkpt lat="29.1668" lon="-13.42961">
        <ele>14.8</ele>
        <time>2021-07-02 16:20:49</time>
      </trkpt>
      <trkpt lat="29.16684" lon="-13.4296">
        <ele>14.8</ele>
        <time>2021-07-02 16:20:50</time>
      </trkpt>
      <trkpt lat="29.16688" lon="-13.42958">
        <ele>14.8</ele>
        <time>2021-07-02 16:20:51</time>
      </trkpt>
      <trkpt lat="29.16693" lon="-13.42956">
        <ele>14.8</ele>
        <time>2021-07-02 16:20:52</time>
      </trkpt>
      <trkpt lat="29.16697" lon="-13.42955">
        <ele>14.8</ele>
        <time>2021-07-02 16:20:53</time>
      </trkpt>
      <trkpt lat="29.16701" lon="-13.42953">
        <ele>14.8</ele>
        <time>2021-07-02 16:20:54</time>
      </trkpt>
      <trkpt lat="29.16705" lon="-13.42951">
        <ele>14.8</ele>
        <time>2021-07-02 16:20:55</time>
      </trkpt>
      <trkpt lat="29.1671" lon="-13.4295">
        <ele>14.8</ele>
        <time>2021-07-02 16:20:56</time>
      </trkpt>
      <trkpt lat="29.16714" lon="-13.42948">
        <ele>14.8</ele>
        <time>2021-07-02 16:20:57</time>
      </trkpt>
      <trkpt lat="29.16718" lon="-13.42946">
        <ele>14.8</ele>
        <time>2021-07-02 16:20:58</time>
      </trkpt>
      <trkpt lat="29.16723" lon="-13.42945">
        <ele>14.8</ele>
        <time>2021-07-02 16:20:59</time>
      </trkpt>
      <trkpt lat="29.16727" lon="-13.42943">
        <ele>14.8</ele>
        <time>2021-07-02 16:21:00</time>
      </trkpt>
      <trkpt lat="29.16731" lon="-13.42941">
        <ele>14.8</ele>
        <time>2021-07-02 16:21:01</time>
      </trkpt>
      <trkpt lat="29.16736" lon="-13.4294">
        <ele>14.8</ele>
        <time>2021-07-02 16:21:02</time>
      </trkpt>
      <trkpt lat="29.1674" lon="-13.42938">
        <ele>14.8</ele>
        <time>2021-07-02 16:21:03</time>
      </trkpt>
      <trkpt lat="29.16745" lon="-13.42936">
        <ele>14.8</ele>
        <time>2021-07-02 16:21:04</time>
      </trkpt>
      <trkpt lat="29.16749" lon="-13.42935">
        <ele>14.8</ele>
        <time>2021-07-02 16:21:05</time>
      </trkpt>
      <trkpt lat="29.16754" lon="-13.42933">
        <ele>14.8</ele>
        <time>2021-07-02 16:21:06</time>
      </trkpt>
      <trkpt lat="29.16758" lon="-13.42931">
        <ele>14.8</ele>
        <time>2021-07-02 16:21:07</time>
      </trkpt>
      <trkpt lat="29.16763" lon="-13.42929">
        <ele>14.8</ele>
        <time>2021-07-02 16:21:08</time>
      </trkpt>
      <trkpt lat="29.16768" lon="-13.42927">
        <ele>14.8</ele>
        <time>2021-07-02 16:21:09</time>
      </trkpt>
      <trkpt lat="29.16773" lon="-13.42925">
        <ele>14.8</ele>
        <time>2021-07-02 16:21:10</time>
      </trkpt>
      <trkpt lat="29.16778" lon="-13.42924">
        <ele>14.8</ele>
        <time>2021-07-02 16:21:11</time>
      </trkpt>
      <trkpt lat="29.16783" lon="-13.42921">
        <ele>14.8</ele>
        <time>2021-07-02 16:21:12</time>
      </trkpt>
      <trkpt lat="29.16789" lon="-13.4292">
        <ele>14.8</ele>
        <time>2021-07-02 16:21:13</time>
      </trkpt>
      <trkpt lat="29.16794" lon="-13.42917">
        <ele>14.8</ele>
        <time>2021-07-02 16:21:14</time>
      </trkpt>
      <trkpt lat="29.16799" lon="-13.42915">
        <ele>14.8</ele>
        <time>2021-07-02 16:21:15</time>
      </trkpt>
      <trkpt lat="29.16804" lon="-13.42913">
        <ele>14.8</ele>
        <time>2021-07-02 16:21:16</time>
      </trkpt>
      <trkpt lat="29.1681" lon="-13.42911">
        <ele>15.2</ele>
        <time>2021-07-02 16:21:17</time>
      </trkpt>
      <trkpt lat="29.16815" lon="-13.42909">
        <ele>15.2</ele>
        <time>2021-07-02 16:21:18</time>
      </trkpt>
      <trkpt lat="29.1682" lon="-13.42907">
        <ele>15.4</ele>
        <time>2021-07-02 16:21:19</time>
      </trkpt>
      <trkpt lat="29.16825" lon="-13.42905">
        <ele>15.4</ele>
        <time>2021-07-02 16:21:20</time>
      </trkpt>
      <trkpt lat="29.16831" lon="-13.42903">
        <ele>15.4</ele>
        <time>2021-07-02 16:21:21</time>
      </trkpt>
      <trkpt lat="29.16836" lon="-13.42901">
        <ele>15.4</ele>
        <time>2021-07-02 16:21:22</time>
      </trkpt>
      <trkpt lat="29.16841" lon="-13.42899">
        <ele>15.4</ele>
        <time>2021-07-02 16:21:23</time>
      </trkpt>
      <trkpt lat="29.16847" lon="-13.42897">
        <ele>15.2</ele>
        <time>2021-07-02 16:21:24</time>
      </trkpt>
      <trkpt lat="29.16852" lon="-13.42895">
        <ele>14.8</ele>
        <time>2021-07-02 16:21:25</time>
      </trkpt>
      <trkpt lat="29.16858" lon="-13.42893">
        <ele>14.6</ele>
        <time>2021-07-02 16:21:26</time>
      </trkpt>
      <trkpt lat="29.16863" lon="-13.42891">
        <ele>14.4</ele>
        <time>2021-07-02 16:21:27</time>
      </trkpt>
      <trkpt lat="29.16869" lon="-13.42889">
        <ele>14.2</ele>
        <time>2021-07-02 16:21:28</time>
      </trkpt>
      <trkpt lat="29.16874" lon="-13.42887">
        <ele>14</ele>
        <time>2021-07-02 16:21:29</time>
      </trkpt>
      <trkpt lat="29.1688" lon="-13.42884">
        <ele>13.8</ele>
        <time>2021-07-02 16:21:30</time>
      </trkpt>
      <trkpt lat="29.16885" lon="-13.42882">
        <ele>13.8</ele>
        <time>2021-07-02 16:21:31</time>
      </trkpt>
      <trkpt lat="29.16891" lon="-13.4288">
        <ele>13.4</ele>
        <time>2021-07-02 16:21:32</time>
      </trkpt>
      <trkpt lat="29.16896" lon="-13.42878">
        <ele>13.2</ele>
        <time>2021-07-02 16:21:33</time>
      </trkpt>
      <trkpt lat="29.16902" lon="-13.42876">
        <ele>13.2</ele>
        <time>2021-07-02 16:21:34</time>
      </trkpt>
      <trkpt lat="29.16907" lon="-13.42874">
        <ele>13</ele>
        <time>2021-07-02 16:21:35</time>
      </trkpt>
      <trkpt lat="29.16912" lon="-13.42872">
        <ele>13</ele>
        <time>2021-07-02 16:21:36</time>
      </trkpt>
      <trkpt lat="29.16916" lon="-13.4287">
        <ele>13</ele>
        <time>2021-07-02 16:21:37</time>
      </trkpt>
      <trkpt lat="29.16921" lon="-13.42868">
        <ele>13</ele>
        <time>2021-07-02 16:21:38</time>
      </trkpt>
      <trkpt lat="29.16926" lon="-13.42867">
        <ele>13</ele>
        <time>2021-07-02 16:21:39</time>
      </trkpt>
      <trkpt lat="29.1693" lon="-13.42864">
        <ele>13.2</ele>
        <time>2021-07-02 16:21:40</time>
      </trkpt>
      <trkpt lat="29.16934" lon="-13.42863">
        <ele>13.2</ele>
        <time>2021-07-02 16:21:41</time>
      </trkpt>
      <trkpt lat="29.16939" lon="-13.42862">
        <ele>13.2</ele>
        <time>2021-07-02 16:21:42</time>
      </trkpt>
      <trkpt lat="29.16943" lon="-13.4286">
        <ele>13.2</ele>
        <time>2021-07-02 16:21:43</time>
      </trkpt>
      <trkpt lat="29.16947" lon="-13.42858">
        <ele>13.2</ele>
        <time>2021-07-02 16:21:44</time>
      </trkpt>
      <trkpt lat="29.16951" lon="-13.42857">
        <ele>13.2</ele>
        <time>2021-07-02 16:21:45</time>
      </trkpt>
      <trkpt lat="29.16955" lon="-13.42855">
        <ele>13.2</ele>
        <time>2021-07-02 16:21:46</time>
      </trkpt>
      <trkpt lat="29.16959" lon="-13.42854">
        <ele>13.2</ele>
        <time>2021-07-02 16:21:47</time>
      </trkpt>
      <trkpt lat="29.16963" lon="-13.42852">
        <ele>13.2</ele>
        <time>2021-07-02 16:21:48</time>
      </trkpt>
      <trkpt lat="29.16967" lon="-13.42851">
        <ele>13.2</ele>
        <time>2021-07-02 16:21:49</time>
      </trkpt>
      <trkpt lat="29.16971" lon="-13.42849">
        <ele>13.2</ele>
        <time>2021-07-02 16:21:50</time>
      </trkpt>
      <trkpt lat="29.16976" lon="-13.42847">
        <ele>13.2</ele>
        <time>2021-07-02 16:21:51</time>
      </trkpt>
      <trkpt lat="29.1698" lon="-13.42845">
        <ele>13.2</ele>
        <time>2021-07-02 16:21:52</time>
      </trkpt>
      <trkpt lat="29.16984" lon="-13.42844">
        <ele>13.2</ele>
        <time>2021-07-02 16:21:53</time>
      </trkpt>
      <trkpt lat="29.16988" lon="-13.42842">
        <ele>13.2</ele>
        <time>2021-07-02 16:21:54</time>
      </trkpt>
      <trkpt lat="29.16992" lon="-13.4284">
        <ele>13.4</ele>
        <time>2021-07-02 16:21:55</time>
      </trkpt>
      <trkpt lat="29.16997" lon="-13.42838">
        <ele>13.4</ele>
        <time>2021-07-02 16:21:56</time>
      </trkpt>
      <trkpt lat="29.17001" lon="-13.42837">
        <ele>13.4</ele>
        <time>2021-07-02 16:21:57</time>
      </trkpt>
      <trkpt lat="29.17006" lon="-13.42835">
        <ele>13.6</ele>
        <time>2021-07-02 16:21:58</time>
      </trkpt>
      <trkpt lat="29.17009" lon="-13.42833">
        <ele>13.6</ele>
        <time>2021-07-02 16:21:59</time>
      </trkpt>
      <trkpt lat="29.17013" lon="-13.42832">
        <ele>14</ele>
        <time>2021-07-02 16:22:00</time>
      </trkpt>
      <trkpt lat="29.17018" lon="-13.4283">
        <ele>14</ele>
        <time>2021-07-02 16:22:01</time>
      </trkpt>
      <trkpt lat="29.17022" lon="-13.42828">
        <ele>14</ele>
        <time>2021-07-02 16:22:02</time>
      </trkpt>
      <trkpt lat="29.17026" lon="-13.42827">
        <ele>14.2</ele>
        <time>2021-07-02 16:22:03</time>
      </trkpt>
      <trkpt lat="29.17031" lon="-13.42825">
        <ele>14.2</ele>
        <time>2021-07-02 16:22:04</time>
      </trkpt>
      <trkpt lat="29.17035" lon="-13.42823">
        <ele>14.2</ele>
        <time>2021-07-02 16:22:05</time>
      </trkpt>
      <trkpt lat="29.17039" lon="-13.42821">
        <ele>14.2</ele>
        <time>2021-07-02 16:22:06</time>
      </trkpt>
      <trkpt lat="29.17043" lon="-13.4282">
        <ele>14.6</ele>
        <time>2021-07-02 16:22:07</time>
      </trkpt>
      <trkpt lat="29.17048" lon="-13.42818">
        <ele>14.6</ele>
        <time>2021-07-02 16:22:08</time>
      </trkpt>
      <trkpt lat="29.17052" lon="-13.42817">
        <ele>14.6</ele>
        <time>2021-07-02 16:22:09</time>
      </trkpt>
      <trkpt lat="29.17057" lon="-13.42814">
        <ele>14.6</ele>
        <time>2021-07-02 16:22:10</time>
      </trkpt>
      <trkpt lat="29.17062" lon="-13.42813">
        <ele>14.8</ele>
        <time>2021-07-02 16:22:11</time>
      </trkpt>
      <trkpt lat="29.17066" lon="-13.42811">
        <ele>14.8</ele>
        <time>2021-07-02 16:22:12</time>
      </trkpt>
      <trkpt lat="29.17071" lon="-13.4281">
        <ele>14.8</ele>
        <time>2021-07-02 16:22:13</time>
      </trkpt>
      <trkpt lat="29.17076" lon="-13.42808">
        <ele>14.8</ele>
        <time>2021-07-02 16:22:14</time>
      </trkpt>
      <trkpt lat="29.1708" lon="-13.42807">
        <ele>14.8</ele>
        <time>2021-07-02 16:22:15</time>
      </trkpt>
      <trkpt lat="29.17086" lon="-13.42804">
        <ele>14.8</ele>
        <time>2021-07-02 16:22:16</time>
      </trkpt>
      <trkpt lat="29.17091" lon="-13.42802">
        <ele>14.8</ele>
        <time>2021-07-02 16:22:17</time>
      </trkpt>
      <trkpt lat="29.17096" lon="-13.428">
        <ele>14.8</ele>
        <time>2021-07-02 16:22:18</time>
      </trkpt>
      <trkpt lat="29.17101" lon="-13.42798">
        <ele>14.8</ele>
        <time>2021-07-02 16:22:19</time>
      </trkpt>
      <trkpt lat="29.17106" lon="-13.42796">
        <ele>14.6</ele>
        <time>2021-07-02 16:22:20</time>
      </trkpt>
      <trkpt lat="29.17111" lon="-13.42794">
        <ele>14.6</ele>
        <time>2021-07-02 16:22:21</time>
      </trkpt>
      <trkpt lat="29.17117" lon="-13.42792">
        <ele>14.6</ele>
        <time>2021-07-02 16:22:22</time>
      </trkpt>
      <trkpt lat="29.17122" lon="-13.4279">
        <ele>14.2</ele>
        <time>2021-07-02 16:22:23</time>
      </trkpt>
      <trkpt lat="29.17128" lon="-13.42788">
        <ele>14.2</ele>
        <time>2021-07-02 16:22:24</time>
      </trkpt>
      <trkpt lat="29.17133" lon="-13.42785">
        <ele>13.8</ele>
        <time>2021-07-02 16:22:25</time>
      </trkpt>
      <trkpt lat="29.17139" lon="-13.42783">
        <ele>13.8</ele>
        <time>2021-07-02 16:22:26</time>
      </trkpt>
      <trkpt lat="29.17144" lon="-13.42781">
        <ele>13.6</ele>
        <time>2021-07-02 16:22:27</time>
      </trkpt>
      <trkpt lat="29.1715" lon="-13.42779">
        <ele>13.6</ele>
        <time>2021-07-02 16:22:28</time>
      </trkpt>
      <trkpt lat="29.17155" lon="-13.42777">
        <ele>13.6</ele>
        <time>2021-07-02 16:22:29</time>
      </trkpt>
      <trkpt lat="29.17161" lon="-13.42774">
        <ele>13.4</ele>
        <time>2021-07-02 16:22:30</time>
      </trkpt>
      <trkpt lat="29.17166" lon="-13.42772">
        <ele>13.4</ele>
        <time>2021-07-02 16:22:31</time>
      </trkpt>
      <trkpt lat="29.17171" lon="-13.4277">
        <ele>13.4</ele>
        <time>2021-07-02 16:22:32</time>
      </trkpt>
      <trkpt lat="29.17177" lon="-13.42768">
        <ele>13.2</ele>
        <time>2021-07-02 16:22:33</time>
      </trkpt>
      <trkpt lat="29.17182" lon="-13.42765">
        <ele>13.2</ele>
        <time>2021-07-02 16:22:34</time>
      </trkpt>
      <trkpt lat="29.17187" lon="-13.42763">
        <ele>13.2</ele>
        <time>2021-07-02 16:22:35</time>
      </trkpt>
      <trkpt lat="29.17193" lon="-13.42761">
        <ele>13.2</ele>
        <time>2021-07-02 16:22:36</time>
      </trkpt>
      <trkpt lat="29.17198" lon="-13.42759">
        <ele>13.2</ele>
        <time>2021-07-02 16:22:37</time>
      </trkpt>
      <trkpt lat="29.17204" lon="-13.42757">
        <ele>13.2</ele>
        <time>2021-07-02 16:22:38</time>
      </trkpt>
      <trkpt lat="29.17209" lon="-13.42755">
        <ele>13.2</ele>
        <time>2021-07-02 16:22:39</time>
      </trkpt>
      <trkpt lat="29.17215" lon="-13.42753">
        <ele>13.2</ele>
        <time>2021-07-02 16:22:40</time>
      </trkpt>
      <trkpt lat="29.17221" lon="-13.42751">
        <ele>12.8</ele>
        <time>2021-07-02 16:22:41</time>
      </trkpt>
      <trkpt lat="29.17227" lon="-13.42749">
        <ele>12.8</ele>
        <time>2021-07-02 16:22:42</time>
      </trkpt>
      <trkpt lat="29.17233" lon="-13.42746">
        <ele>12.6</ele>
        <time>2021-07-02 16:22:43</time>
      </trkpt>
      <trkpt lat="29.17239" lon="-13.42744">
        <ele>12.6</ele>
        <time>2021-07-02 16:22:44</time>
      </trkpt>
      <trkpt lat="29.17246" lon="-13.42742">
        <ele>12.2</ele>
        <time>2021-07-02 16:22:45</time>
      </trkpt>
      <trkpt lat="29.17252" lon="-13.42739">
        <ele>12</ele>
        <time>2021-07-02 16:22:46</time>
      </trkpt>
      <trkpt lat="29.17258" lon="-13.42737">
        <ele>11.6</ele>
        <time>2021-07-02 16:22:47</time>
      </trkpt>
      <trkpt lat="29.17265" lon="-13.42734">
        <ele>11.2</ele>
        <time>2021-07-02 16:22:48</time>
      </trkpt>
      <trkpt lat="29.17271" lon="-13.42732">
        <ele>11</ele>
        <time>2021-07-02 16:22:49</time>
      </trkpt>
      <trkpt lat="29.17277" lon="-13.4273">
        <ele>10.4</ele>
        <time>2021-07-02 16:22:50</time>
      </trkpt>
      <trkpt lat="29.17284" lon="-13.42727">
        <ele>10</ele>
        <time>2021-07-02 16:22:51</time>
      </trkpt>
      <trkpt lat="29.1729" lon="-13.42725">
        <ele>9.6</ele>
        <time>2021-07-02 16:22:52</time>
      </trkpt>
      <trkpt lat="29.17297" lon="-13.42722">
        <ele>9.2</ele>
        <time>2021-07-02 16:22:53</time>
      </trkpt>
      <trkpt lat="29.17303" lon="-13.4272">
        <ele>8.8</ele>
        <time>2021-07-02 16:22:54</time>
      </trkpt>
      <trkpt lat="29.17309" lon="-13.42717">
        <ele>8.4</ele>
        <time>2021-07-02 16:22:55</time>
      </trkpt>
      <trkpt lat="29.17315" lon="-13.42714">
        <ele>8.2</ele>
        <time>2021-07-02 16:22:56</time>
      </trkpt>
      <trkpt lat="29.17322" lon="-13.42712">
        <ele>8</ele>
        <time>2021-07-02 16:22:57</time>
      </trkpt>
      <trkpt lat="29.17327" lon="-13.42709">
        <ele>8</ele>
        <time>2021-07-02 16:22:58</time>
      </trkpt>
      <trkpt lat="29.17333" lon="-13.42708">
        <ele>7.6</ele>
        <time>2021-07-02 16:22:59</time>
      </trkpt>
      <trkpt lat="29.17338" lon="-13.42705">
        <ele>7.6</ele>
        <time>2021-07-02 16:23:00</time>
      </trkpt>
      <trkpt lat="29.17343" lon="-13.42703">
        <ele>7.6</ele>
        <time>2021-07-02 16:23:01</time>
      </trkpt>
      <trkpt lat="29.17348" lon="-13.42701">
        <ele>7.4</ele>
        <time>2021-07-02 16:23:02</time>
      </trkpt>
      <trkpt lat="29.17353" lon="-13.42699">
        <ele>7.4</ele>
        <time>2021-07-02 16:23:03</time>
      </trkpt>
      <trkpt lat="29.17357" lon="-13.42698">
        <ele>7.4</ele>
        <time>2021-07-02 16:23:04</time>
      </trkpt>
      <trkpt lat="29.17362" lon="-13.42696">
        <ele>7.2</ele>
        <time>2021-07-02 16:23:05</time>
      </trkpt>
      <trkpt lat="29.17366" lon="-13.42694">
        <ele>7.2</ele>
        <time>2021-07-02 16:23:06</time>
      </trkpt>
      <trkpt lat="29.1737" lon="-13.42693">
        <ele>7.2</ele>
        <time>2021-07-02 16:23:07</time>
      </trkpt>
      <trkpt lat="29.17374" lon="-13.42691">
        <ele>7.2</ele>
        <time>2021-07-02 16:23:08</time>
      </trkpt>
      <trkpt lat="29.17378" lon="-13.4269">
        <ele>6.8</ele>
        <time>2021-07-02 16:23:09</time>
      </trkpt>
      <trkpt lat="29.17382" lon="-13.42688">
        <ele>6.8</ele>
        <time>2021-07-02 16:23:10</time>
      </trkpt>
      <trkpt lat="29.17386" lon="-13.42687">
        <ele>6.8</ele>
        <time>2021-07-02 16:23:11</time>
      </trkpt>
      <trkpt lat="29.17389" lon="-13.42686">
        <ele>6.8</ele>
        <time>2021-07-02 16:23:12</time>
      </trkpt>
      <trkpt lat="29.17393" lon="-13.42684">
        <ele>6.8</ele>
        <time>2021-07-02 16:23:13</time>
      </trkpt>
      <trkpt lat="29.17396" lon="-13.42683">
        <ele>6.8</ele>
        <time>2021-07-02 16:23:14</time>
      </trkpt>
      <trkpt lat="29.17399" lon="-13.42681">
        <ele>6.8</ele>
        <time>2021-07-02 16:23:15</time>
      </trkpt>
      <trkpt lat="29.17403" lon="-13.4268">
        <ele>7.2</ele>
        <time>2021-07-02 16:23:16</time>
      </trkpt>
      <trkpt lat="29.17406" lon="-13.42679">
        <ele>7.2</ele>
        <time>2021-07-02 16:23:17</time>
      </trkpt>
      <trkpt lat="29.17409" lon="-13.42677">
        <ele>7.2</ele>
        <time>2021-07-02 16:23:18</time>
      </trkpt>
      <trkpt lat="29.17412" lon="-13.42676">
        <ele>7.2</ele>
        <time>2021-07-02 16:23:19</time>
      </trkpt>
      <trkpt lat="29.17415" lon="-13.42675">
        <ele>7.4</ele>
        <time>2021-07-02 16:23:20</time>
      </trkpt>
      <trkpt lat="29.17418" lon="-13.42674">
        <ele>7.4</ele>
        <time>2021-07-02 16:23:21</time>
      </trkpt>
      <trkpt lat="29.17421" lon="-13.42673">
        <ele>7.6</ele>
        <time>2021-07-02 16:23:22</time>
      </trkpt>
      <trkpt lat="29.17424" lon="-13.42672">
        <ele>7.6</ele>
        <time>2021-07-02 16:23:23</time>
      </trkpt>
      <trkpt lat="29.17427" lon="-13.4267">
        <ele>8</ele>
        <time>2021-07-02 16:23:24</time>
      </trkpt>
      <trkpt lat="29.1743" lon="-13.42669">
        <ele>8</ele>
        <time>2021-07-02 16:23:25</time>
      </trkpt>
      <trkpt lat="29.17433" lon="-13.42668">
        <ele>8</ele>
        <time>2021-07-02 16:23:26</time>
      </trkpt>
      <trkpt lat="29.17436" lon="-13.42667">
        <ele>8.2</ele>
        <time>2021-07-02 16:23:27</time>
      </trkpt>
      <trkpt lat="29.17439" lon="-13.42665">
        <ele>8.2</ele>
        <time>2021-07-02 16:23:28</time>
      </trkpt>
      <trkpt lat="29.17442" lon="-13.42664">
        <ele>8.4</ele>
        <time>2021-07-02 16:23:29</time>
      </trkpt>
      <trkpt lat="29.17445" lon="-13.42663">
        <ele>8.6</ele>
        <time>2021-07-02 16:23:30</time>
      </trkpt>
      <trkpt lat="29.17448" lon="-13.42661">
        <ele>9</ele>
        <time>2021-07-02 16:23:31</time>
      </trkpt>
      <trkpt lat="29.17451" lon="-13.4266">
        <ele>9.2</ele>
        <time>2021-07-02 16:23:32</time>
      </trkpt>
      <trkpt lat="29.17454" lon="-13.42659">
        <ele>9.6</ele>
        <time>2021-07-02 16:23:33</time>
      </trkpt>
      <trkpt lat="29.17457" lon="-13.42657">
        <ele>9.6</ele>
        <time>2021-07-02 16:23:34</time>
      </trkpt>
      <trkpt lat="29.1746" lon="-13.42656">
        <ele>9.8</ele>
        <time>2021-07-02 16:23:35</time>
      </trkpt>
      <trkpt lat="29.17464" lon="-13.42655">
        <ele>9.8</ele>
        <time>2021-07-02 16:23:36</time>
      </trkpt>
      <trkpt lat="29.17467" lon="-13.42653">
        <ele>10</ele>
        <time>2021-07-02 16:23:37</time>
      </trkpt>
      <trkpt lat="29.1747" lon="-13.42652">
        <ele>10</ele>
        <time>2021-07-02 16:23:38</time>
      </trkpt>
      <trkpt lat="29.17473" lon="-13.42651">
        <ele>10</ele>
        <time>2021-07-02 16:23:39</time>
      </trkpt>
      <trkpt lat="29.17476" lon="-13.4265">
        <ele>10.4</ele>
        <time>2021-07-02 16:23:40</time>
      </trkpt>
      <trkpt lat="29.1748" lon="-13.42648">
        <ele>10.4</ele>
        <time>2021-07-02 16:23:41</time>
      </trkpt>
      <trkpt lat="29.17483" lon="-13.42647">
        <ele>10.6</ele>
        <time>2021-07-02 16:23:42</time>
      </trkpt>
      <trkpt lat="29.17486" lon="-13.42646">
        <ele>10.6</ele>
        <time>2021-07-02 16:23:43</time>
      </trkpt>
      <trkpt lat="29.17489" lon="-13.42644">
        <ele>10.8</ele>
        <time>2021-07-02 16:23:44</time>
      </trkpt>
      <trkpt lat="29.17492" lon="-13.42643">
        <ele>10.8</ele>
        <time>2021-07-02 16:23:45</time>
      </trkpt>
      <trkpt lat="29.17496" lon="-13.42641">
        <ele>11</ele>
        <time>2021-07-02 16:23:46</time>
      </trkpt>
      <trkpt lat="29.17499" lon="-13.4264">
        <ele>11</ele>
        <time>2021-07-02 16:23:47</time>
      </trkpt>
      <trkpt lat="29.17502" lon="-13.42639">
        <ele>11.4</ele>
        <time>2021-07-02 16:23:48</time>
      </trkpt>
      <trkpt lat="29.17506" lon="-13.42638">
        <ele>11.4</ele>
        <time>2021-07-02 16:23:49</time>
      </trkpt>
      <trkpt lat="29.17509" lon="-13.42636">
        <ele>11.6</ele>
        <time>2021-07-02 16:23:50</time>
      </trkpt>
      <trkpt lat="29.17512" lon="-13.42635">
        <ele>11.6</ele>
        <time>2021-07-02 16:23:51</time>
      </trkpt>
      <trkpt lat="29.17515" lon="-13.42634">
        <ele>11.6</ele>
        <time>2021-07-02 16:23:52</time>
      </trkpt>
      <trkpt lat="29.17519" lon="-13.42633">
        <ele>12</ele>
        <time>2021-07-02 16:23:53</time>
      </trkpt>
      <trkpt lat="29.17522" lon="-13.42631">
        <ele>12</ele>
        <time>2021-07-02 16:23:54</time>
      </trkpt>
      <trkpt lat="29.17526" lon="-13.4263">
        <ele>12</ele>
        <time>2021-07-02 16:23:55</time>
      </trkpt>
      <trkpt lat="29.17529" lon="-13.42629">
        <ele>12</ele>
        <time>2021-07-02 16:23:56</time>
      </trkpt>
      <trkpt lat="29.17533" lon="-13.42627">
        <ele>12</ele>
        <time>2021-07-02 16:23:57</time>
      </trkpt>
      <trkpt lat="29.17537" lon="-13.42626">
        <ele>12</ele>
        <time>2021-07-02 16:23:58</time>
      </trkpt>
      <trkpt lat="29.1754" lon="-13.42624">
        <ele>12</ele>
        <time>2021-07-02 16:23:59</time>
      </trkpt>
      <trkpt lat="29.17544" lon="-13.42623">
        <ele>12</ele>
        <time>2021-07-02 16:24:00</time>
      </trkpt>
      <trkpt lat="29.17547" lon="-13.42622">
        <ele>12</ele>
        <time>2021-07-02 16:24:01</time>
      </trkpt>
      <trkpt lat="29.17551" lon="-13.4262">
        <ele>12</ele>
        <time>2021-07-02 16:24:02</time>
      </trkpt>
      <trkpt lat="29.17555" lon="-13.42619">
        <ele>12</ele>
        <time>2021-07-02 16:24:03</time>
      </trkpt>
      <trkpt lat="29.17558" lon="-13.42617">
        <ele>12</ele>
        <time>2021-07-02 16:24:04</time>
      </trkpt>
      <trkpt lat="29.17562" lon="-13.42616">
        <ele>12</ele>
        <time>2021-07-02 16:24:05</time>
      </trkpt>
      <trkpt lat="29.17566" lon="-13.42614">
        <ele>12</ele>
        <time>2021-07-02 16:24:06</time>
      </trkpt>
      <trkpt lat="29.17569" lon="-13.42613">
        <ele>12</ele>
        <time>2021-07-02 16:24:07</time>
      </trkpt>
      <trkpt lat="29.17573" lon="-13.42612">
        <ele>12.2</ele>
        <time>2021-07-02 16:24:08</time>
      </trkpt>
      <trkpt lat="29.17577" lon="-13.4261">
        <ele>12.2</ele>
        <time>2021-07-02 16:24:09</time>
      </trkpt>
      <trkpt lat="29.1758" lon="-13.42609">
        <ele>12.4</ele>
        <time>2021-07-02 16:24:10</time>
      </trkpt>
      <trkpt lat="29.17584" lon="-13.42607">
        <ele>12.4</ele>
        <time>2021-07-02 16:24:11</time>
      </trkpt>
      <trkpt lat="29.17588" lon="-13.42606">
        <ele>12.4</ele>
        <time>2021-07-02 16:24:12</time>
      </trkpt>
      <trkpt lat="29.17592" lon="-13.42604">
        <ele>12.6</ele>
        <time>2021-07-02 16:24:13</time>
      </trkpt>
      <trkpt lat="29.17595" lon="-13.42603">
        <ele>12.6</ele>
        <time>2021-07-02 16:24:14</time>
      </trkpt>
      <trkpt lat="29.17599" lon="-13.42601">
        <ele>12.6</ele>
        <time>2021-07-02 16:24:15</time>
      </trkpt>
      <trkpt lat="29.17603" lon="-13.426">
        <ele>12.8</ele>
        <time>2021-07-02 16:24:16</time>
      </trkpt>
      <trkpt lat="29.17606" lon="-13.42599">
        <ele>12.8</ele>
        <time>2021-07-02 16:24:17</time>
      </trkpt>
      <trkpt lat="29.1761" lon="-13.42597">
        <ele>13.2</ele>
        <time>2021-07-02 16:24:18</time>
      </trkpt>
      <trkpt lat="29.17614" lon="-13.42596">
        <ele>13.2</ele>
        <time>2021-07-02 16:24:19</time>
      </trkpt>
      <trkpt lat="29.17617" lon="-13.42595">
        <ele>13.4</ele>
        <time>2021-07-02 16:24:20</time>
      </trkpt>
      <trkpt lat="29.17621" lon="-13.42593">
        <ele>13.4</ele>
        <time>2021-07-02 16:24:21</time>
      </trkpt>
      <trkpt lat="29.17624" lon="-13.42592">
        <ele>13.8</ele>
        <time>2021-07-02 16:24:22</time>
      </trkpt>
      <trkpt lat="29.17628" lon="-13.42591">
        <ele>13.8</ele>
        <time>2021-07-02 16:24:23</time>
      </trkpt>
      <trkpt lat="29.17631" lon="-13.4259">
        <ele>13.8</ele>
        <time>2021-07-02 16:24:24</time>
      </trkpt>
      <trkpt lat="29.17635" lon="-13.42588">
        <ele>13.8</ele>
        <time>2021-07-02 16:24:25</time>
      </trkpt>
      <trkpt lat="29.17638" lon="-13.42587">
        <ele>14</ele>
        <time>2021-07-02 16:24:26</time>
      </trkpt>
      <trkpt lat="29.17642" lon="-13.42586">
        <ele>14</ele>
        <time>2021-07-02 16:24:27</time>
      </trkpt>
      <trkpt lat="29.17645" lon="-13.42584">
        <ele>14</ele>
        <time>2021-07-02 16:24:28</time>
      </trkpt>
      <trkpt lat="29.17649" lon="-13.42583">
        <ele>14.2</ele>
        <time>2021-07-02 16:24:29</time>
      </trkpt>
      <trkpt lat="29.17652" lon="-13.42582">
        <ele>14.2</ele>
        <time>2021-07-02 16:24:30</time>
      </trkpt>
      <trkpt lat="29.17656" lon="-13.42581">
        <ele>14.4</ele>
        <time>2021-07-02 16:24:31</time>
      </trkpt>
      <trkpt lat="29.1766" lon="-13.42579">
        <ele>14.4</ele>
        <time>2021-07-02 16:24:32</time>
      </trkpt>
      <trkpt lat="29.17663" lon="-13.42577">
        <ele>14.8</ele>
        <time>2021-07-02 16:24:33</time>
      </trkpt>
      <trkpt lat="29.17667" lon="-13.42576">
        <ele>14.8</ele>
        <time>2021-07-02 16:24:34</time>
      </trkpt>
      <trkpt lat="29.1767" lon="-13.42575">
        <ele>15.2</ele>
        <time>2021-07-02 16:24:35</time>
      </trkpt>
      <trkpt lat="29.17673" lon="-13.42574">
        <ele>15.2</ele>
        <time>2021-07-02 16:24:36</time>
      </trkpt>
      <trkpt lat="29.17677" lon="-13.42572">
        <ele>15.4</ele>
        <time>2021-07-02 16:24:37</time>
      </trkpt>
      <trkpt lat="29.1768" lon="-13.42571">
        <ele>15.4</ele>
        <time>2021-07-02 16:24:38</time>
      </trkpt>
      <trkpt lat="29.17684" lon="-13.42569">
        <ele>15.4</ele>
        <time>2021-07-02 16:24:39</time>
      </trkpt>
      <trkpt lat="29.17688" lon="-13.42568">
        <ele>15.6</ele>
        <time>2021-07-02 16:24:40</time>
      </trkpt>
      <trkpt lat="29.17691" lon="-13.42566">
        <ele>15.6</ele>
        <time>2021-07-02 16:24:41</time>
      </trkpt>
      <trkpt lat="29.17695" lon="-13.42565">
        <ele>15.6</ele>
        <time>2021-07-02 16:24:42</time>
      </trkpt>
      <trkpt lat="29.17699" lon="-13.42563">
        <ele>15.8</ele>
        <time>2021-07-02 16:24:43</time>
      </trkpt>
      <trkpt lat="29.17702" lon="-13.42562">
        <ele>15.8</ele>
        <time>2021-07-02 16:24:44</time>
      </trkpt>
      <trkpt lat="29.17706" lon="-13.42561">
        <ele>15.8</ele>
        <time>2021-07-02 16:24:45</time>
      </trkpt>
      <trkpt lat="29.1771" lon="-13.42559">
        <ele>16.2</ele>
        <time>2021-07-02 16:24:46</time>
      </trkpt>
      <trkpt lat="29.17713" lon="-13.42558">
        <ele>16.2</ele>
        <time>2021-07-02 16:24:47</time>
      </trkpt>
      <trkpt lat="29.17717" lon="-13.42556">
        <ele>16.4</ele>
        <time>2021-07-02 16:24:48</time>
      </trkpt>
      <trkpt lat="29.1772" lon="-13.42555">
        <ele>16.4</ele>
        <time>2021-07-02 16:24:49</time>
      </trkpt>
      <trkpt lat="29.17724" lon="-13.42554">
        <ele>16.6</ele>
        <time>2021-07-02 16:24:50</time>
      </trkpt>
      <trkpt lat="29.17728" lon="-13.42553">
        <ele>16.6</ele>
        <time>2021-07-02 16:24:51</time>
      </trkpt>
      <trkpt lat="29.17731" lon="-13.42551">
        <ele>16.6</ele>
        <time>2021-07-02 16:24:52</time>
      </trkpt>
      <trkpt lat="29.17735" lon="-13.4255">
        <ele>16.8</ele>
        <time>2021-07-02 16:24:53</time>
      </trkpt>
      <trkpt lat="29.17738" lon="-13.42548">
        <ele>16.8</ele>
        <time>2021-07-02 16:24:54</time>
      </trkpt>
      <trkpt lat="29.17742" lon="-13.42547">
        <ele>16.8</ele>
        <time>2021-07-02 16:24:55</time>
      </trkpt>
      <trkpt lat="29.17746" lon="-13.42545">
        <ele>17</ele>
        <time>2021-07-02 16:24:56</time>
      </trkpt>
      <trkpt lat="29.17749" lon="-13.42544">
        <ele>17</ele>
        <time>2021-07-02 16:24:57</time>
      </trkpt>
      <trkpt lat="29.17753" lon="-13.42542">
        <ele>17</ele>
        <time>2021-07-02 16:24:58</time>
      </trkpt>
      <trkpt lat="29.17757" lon="-13.42541">
        <ele>17</ele>
        <time>2021-07-02 16:24:59</time>
      </trkpt>
      <trkpt lat="29.1776" lon="-13.42539">
        <ele>17</ele>
        <time>2021-07-02 16:25:00</time>
      </trkpt>
      <trkpt lat="29.17764" lon="-13.42538">
        <ele>17</ele>
        <time>2021-07-02 16:25:01</time>
      </trkpt>
      <trkpt lat="29.17768" lon="-13.42536">
        <ele>17</ele>
        <time>2021-07-02 16:25:02</time>
      </trkpt>
      <trkpt lat="29.17771" lon="-13.42535">
        <ele>17</ele>
        <time>2021-07-02 16:25:03</time>
      </trkpt>
      <trkpt lat="29.17775" lon="-13.42533">
        <ele>17</ele>
        <time>2021-07-02 16:25:04</time>
      </trkpt>
      <trkpt lat="29.17779" lon="-13.42532">
        <ele>17</ele>
        <time>2021-07-02 16:25:05</time>
      </trkpt>
      <trkpt lat="29.17783" lon="-13.4253">
        <ele>17</ele>
        <time>2021-07-02 16:25:06</time>
      </trkpt>
      <trkpt lat="29.17786" lon="-13.42529">
        <ele>17</ele>
        <time>2021-07-02 16:25:07</time>
      </trkpt>
      <trkpt lat="29.1779" lon="-13.42527">
        <ele>17</ele>
        <time>2021-07-02 16:25:08</time>
      </trkpt>
      <trkpt lat="29.17794" lon="-13.42525">
        <ele>17</ele>
        <time>2021-07-02 16:25:09</time>
      </trkpt>
      <trkpt lat="29.17798" lon="-13.42524">
        <ele>17.4</ele>
        <time>2021-07-02 16:25:10</time>
      </trkpt>
      <trkpt lat="29.17801" lon="-13.42522">
        <ele>17.4</ele>
        <time>2021-07-02 16:25:11</time>
      </trkpt>
      <trkpt lat="29.17805" lon="-13.42521">
        <ele>17.4</ele>
        <time>2021-07-02 16:25:12</time>
      </trkpt>
      <trkpt lat="29.17809" lon="-13.42519">
        <ele>17.4</ele>
        <time>2021-07-02 16:25:13</time>
      </trkpt>
      <trkpt lat="29.17813" lon="-13.42518">
        <ele>17.4</ele>
        <time>2021-07-02 16:25:14</time>
      </trkpt>
      <trkpt lat="29.17817" lon="-13.42516">
        <ele>17.4</ele>
        <time>2021-07-02 16:25:15</time>
      </trkpt>
      <trkpt lat="29.17821" lon="-13.42515">
        <ele>17</ele>
        <time>2021-07-02 16:25:16</time>
      </trkpt>
      <trkpt lat="29.17825" lon="-13.42513">
        <ele>16.8</ele>
        <time>2021-07-02 16:25:17</time>
      </trkpt>
      <trkpt lat="29.17829" lon="-13.42511">
        <ele>16.6</ele>
        <time>2021-07-02 16:25:18</time>
      </trkpt>
      <trkpt lat="29.17833" lon="-13.42509">
        <ele>16.6</ele>
        <time>2021-07-02 16:25:19</time>
      </trkpt>
      <trkpt lat="29.17838" lon="-13.42507">
        <ele>16.2</ele>
        <time>2021-07-02 16:25:20</time>
      </trkpt>
      <trkpt lat="29.17843" lon="-13.42506">
        <ele>16.2</ele>
        <time>2021-07-02 16:25:21</time>
      </trkpt>
      <trkpt lat="29.17848" lon="-13.42504">
        <ele>15.8</ele>
        <time>2021-07-02 16:25:22</time>
      </trkpt>
      <trkpt lat="29.17853" lon="-13.42502">
        <ele>15.6</ele>
        <time>2021-07-02 16:25:23</time>
      </trkpt>
      <trkpt lat="29.17858" lon="-13.425">
        <ele>15.6</ele>
        <time>2021-07-02 16:25:24</time>
      </trkpt>
      <trkpt lat="29.17862" lon="-13.42499">
        <ele>15.2</ele>
        <time>2021-07-02 16:25:25</time>
      </trkpt>
      <trkpt lat="29.17868" lon="-13.42497">
        <ele>15.2</ele>
        <time>2021-07-02 16:25:26</time>
      </trkpt>
      <trkpt lat="29.17873" lon="-13.42495">
        <ele>15</ele>
        <time>2021-07-02 16:25:27</time>
      </trkpt>
      <trkpt lat="29.17878" lon="-13.42494">
        <ele>15</ele>
        <time>2021-07-02 16:25:28</time>
      </trkpt>
      <trkpt lat="29.17883" lon="-13.42492">
        <ele>15</ele>
        <time>2021-07-02 16:25:29</time>
      </trkpt>
      <trkpt lat="29.17888" lon="-13.42491">
        <ele>15</ele>
        <time>2021-07-02 16:25:30</time>
      </trkpt>
      <trkpt lat="29.17893" lon="-13.42489">
        <ele>15</ele>
        <time>2021-07-02 16:25:31</time>
      </trkpt>
      <trkpt lat="29.17898" lon="-13.42487">
        <ele>15</ele>
        <time>2021-07-02 16:25:32</time>
      </trkpt>
      <trkpt lat="29.17903" lon="-13.42486">
        <ele>15</ele>
        <time>2021-07-02 16:25:33</time>
      </trkpt>
      <trkpt lat="29.17908" lon="-13.42484">
        <ele>15</ele>
        <time>2021-07-02 16:25:34</time>
      </trkpt>
      <trkpt lat="29.17913" lon="-13.42482">
        <ele>15</ele>
        <time>2021-07-02 16:25:35</time>
      </trkpt>
      <trkpt lat="29.17918" lon="-13.42481">
        <ele>15</ele>
        <time>2021-07-02 16:25:36</time>
      </trkpt>
      <trkpt lat="29.17923" lon="-13.42479">
        <ele>15</ele>
        <time>2021-07-02 16:25:37</time>
      </trkpt>
      <trkpt lat="29.17928" lon="-13.42478">
        <ele>14.8</ele>
        <time>2021-07-02 16:25:38</time>
      </trkpt>
      <trkpt lat="29.17933" lon="-13.42477">
        <ele>14.8</ele>
        <time>2021-07-02 16:25:39</time>
      </trkpt>
      <trkpt lat="29.17937" lon="-13.42475">
        <ele>14.6</ele>
        <time>2021-07-02 16:25:40</time>
      </trkpt>
      <trkpt lat="29.17942" lon="-13.42474">
        <ele>14.6</ele>
        <time>2021-07-02 16:25:41</time>
      </trkpt>
      <trkpt lat="29.17947" lon="-13.42472">
        <ele>14.6</ele>
        <time>2021-07-02 16:25:42</time>
      </trkpt>
      <trkpt lat="29.17952" lon="-13.42471">
        <ele>14.6</ele>
        <time>2021-07-02 16:25:43</time>
      </trkpt>
      <trkpt lat="29.17957" lon="-13.4247">
        <ele>14.6</ele>
        <time>2021-07-02 16:25:44</time>
      </trkpt>
      <trkpt lat="29.17961" lon="-13.42469">
        <ele>14.6</ele>
        <time>2021-07-02 16:25:45</time>
      </trkpt>
      <trkpt lat="29.17966" lon="-13.42468">
        <ele>14.6</ele>
        <time>2021-07-02 16:25:46</time>
      </trkpt>
      <trkpt lat="29.17971" lon="-13.42467">
        <ele>14.6</ele>
        <time>2021-07-02 16:25:47</time>
      </trkpt>
      <trkpt lat="29.17975" lon="-13.42465">
        <ele>14.6</ele>
        <time>2021-07-02 16:25:48</time>
      </trkpt>
      <trkpt lat="29.1798" lon="-13.42465">
        <ele>14.4</ele>
        <time>2021-07-02 16:25:49</time>
      </trkpt>
      <trkpt lat="29.17985" lon="-13.42463">
        <ele>14.4</ele>
        <time>2021-07-02 16:25:50</time>
      </trkpt>
      <trkpt lat="29.17989" lon="-13.42462">
        <ele>14.2</ele>
        <time>2021-07-02 16:25:51</time>
      </trkpt>
      <trkpt lat="29.17994" lon="-13.42461">
        <ele>14.2</ele>
        <time>2021-07-02 16:25:52</time>
      </trkpt>
      <trkpt lat="29.17998" lon="-13.4246">
        <ele>13.8</ele>
        <time>2021-07-02 16:25:53</time>
      </trkpt>
      <trkpt lat="29.18003" lon="-13.42459">
        <ele>13.8</ele>
        <time>2021-07-02 16:25:54</time>
      </trkpt>
      <trkpt lat="29.18007" lon="-13.42458">
        <ele>13.8</ele>
        <time>2021-07-02 16:25:55</time>
      </trkpt>
      <trkpt lat="29.18011" lon="-13.42457">
        <ele>13.6</ele>
        <time>2021-07-02 16:25:56</time>
      </trkpt>
      <trkpt lat="29.18015" lon="-13.42456">
        <ele>13.6</ele>
        <time>2021-07-02 16:25:57</time>
      </trkpt>
      <trkpt lat="29.18019" lon="-13.42455">
        <ele>13.6</ele>
        <time>2021-07-02 16:25:58</time>
      </trkpt>
      <trkpt lat="29.18023" lon="-13.42454">
        <ele>14</ele>
        <time>2021-07-02 16:25:59</time>
      </trkpt>
      <trkpt lat="29.18028" lon="-13.42453">
        <ele>14</ele>
        <time>2021-07-02 16:26:00</time>
      </trkpt>
      <trkpt lat="29.18031" lon="-13.42452">
        <ele>14.2</ele>
        <time>2021-07-02 16:26:01</time>
      </trkpt>
      <trkpt lat="29.18035" lon="-13.42451">
        <ele>14.2</ele>
        <time>2021-07-02 16:26:02</time>
      </trkpt>
      <trkpt lat="29.18039" lon="-13.4245">
        <ele>14.4</ele>
        <time>2021-07-02 16:26:03</time>
      </trkpt>
      <trkpt lat="29.18043" lon="-13.42449">
        <ele>14.4</ele>
        <time>2021-07-02 16:26:04</time>
      </trkpt>
      <trkpt lat="29.18047" lon="-13.42448">
        <ele>14.4</ele>
        <time>2021-07-02 16:26:05</time>
      </trkpt>
      <trkpt lat="29.18051" lon="-13.42448">
        <ele>14.4</ele>
        <time>2021-07-02 16:26:06</time>
      </trkpt>
      <trkpt lat="29.18055" lon="-13.42447">
        <ele>14.4</ele>
        <time>2021-07-02 16:26:07</time>
      </trkpt>
      <trkpt lat="29.18058" lon="-13.42446">
        <ele>14.4</ele>
        <time>2021-07-02 16:26:08</time>
      </trkpt>
      <trkpt lat="29.18062" lon="-13.42445">
        <ele>14.6</ele>
        <time>2021-07-02 16:26:09</time>
      </trkpt>
      <trkpt lat="29.18065" lon="-13.42444">
        <ele>14.6</ele>
        <time>2021-07-02 16:26:10</time>
      </trkpt>
      <trkpt lat="29.18069" lon="-13.42444">
        <ele>14.6</ele>
        <time>2021-07-02 16:26:11</time>
      </trkpt>
      <trkpt lat="29.18072" lon="-13.42443">
        <ele>15</ele>
        <time>2021-07-02 16:26:12</time>
      </trkpt>
      <trkpt lat="29.18075" lon="-13.42442">
        <ele>15</ele>
        <time>2021-07-02 16:26:13</time>
      </trkpt>
      <trkpt lat="29.18079" lon="-13.42441">
        <ele>15</ele>
        <time>2021-07-02 16:26:14</time>
      </trkpt>
      <trkpt lat="29.18082" lon="-13.4244">
        <ele>15.2</ele>
        <time>2021-07-02 16:26:15</time>
      </trkpt>
      <trkpt lat="29.18086" lon="-13.42439">
        <ele>15.2</ele>
        <time>2021-07-02 16:26:16</time>
      </trkpt>
      <trkpt lat="29.18089" lon="-13.42438">
        <ele>15.4</ele>
        <time>2021-07-02 16:26:17</time>
      </trkpt>
      <trkpt lat="29.18092" lon="-13.42437">
        <ele>15.4</ele>
        <time>2021-07-02 16:26:18</time>
      </trkpt>
      <trkpt lat="29.18096" lon="-13.42437">
        <ele>15.8</ele>
        <time>2021-07-02 16:26:19</time>
      </trkpt>
      <trkpt lat="29.18099" lon="-13.42436">
        <ele>15.8</ele>
        <time>2021-07-02 16:26:20</time>
      </trkpt>
      <trkpt lat="29.18102" lon="-13.42435">
        <ele>16</ele>
        <time>2021-07-02 16:26:21</time>
      </trkpt>
      <trkpt lat="29.18106" lon="-13.42434">
        <ele>16</ele>
        <time>2021-07-02 16:26:22</time>
      </trkpt>
      <trkpt lat="29.18109" lon="-13.42433">
        <ele>16.2</ele>
        <time>2021-07-02 16:26:23</time>
      </trkpt>
      <trkpt lat="29.18112" lon="-13.42432">
        <ele>16.2</ele>
        <time>2021-07-02 16:26:24</time>
      </trkpt>
      <trkpt lat="29.18116" lon="-13.42431">
        <ele>16.2</ele>
        <time>2021-07-02 16:26:25</time>
      </trkpt>
      <trkpt lat="29.18119" lon="-13.4243">
        <ele>16.6</ele>
        <time>2021-07-02 16:26:26</time>
      </trkpt>
      <trkpt lat="29.18122" lon="-13.4243">
        <ele>16.8</ele>
        <time>2021-07-02 16:26:27</time>
      </trkpt>
      <trkpt lat="29.18126" lon="-13.42429">
        <ele>17</ele>
        <time>2021-07-02 16:26:28</time>
      </trkpt>
      <trkpt lat="29.18129" lon="-13.42428">
        <ele>17</ele>
        <time>2021-07-02 16:26:29</time>
      </trkpt>
      <trkpt lat="29.18132" lon="-13.42427">
        <ele>17</ele>
        <time>2021-07-02 16:26:30</time>
      </trkpt>
      <trkpt lat="29.18135" lon="-13.42426">
        <ele>17</ele>
        <time>2021-07-02 16:26:31</time>
      </trkpt>
      <trkpt lat="29.18139" lon="-13.42425">
        <ele>17.2</ele>
        <time>2021-07-02 16:26:32</time>
      </trkpt>
      <trkpt lat="29.18142" lon="-13.42425">
        <ele>17.2</ele>
        <time>2021-07-02 16:26:33</time>
      </trkpt>
      <trkpt lat="29.18145" lon="-13.42424">
        <ele>17.2</ele>
        <time>2021-07-02 16:26:34</time>
      </trkpt>
      <trkpt lat="29.18149" lon="-13.42423">
        <ele>17.2</ele>
        <time>2021-07-02 16:26:35</time>
      </trkpt>
      <trkpt lat="29.18152" lon="-13.42422">
        <ele>17.2</ele>
        <time>2021-07-02 16:26:36</time>
      </trkpt>
      <trkpt lat="29.18155" lon="-13.42421">
        <ele>17.6</ele>
        <time>2021-07-02 16:26:37</time>
      </trkpt>
      <trkpt lat="29.18159" lon="-13.4242">
        <ele>17.6</ele>
        <time>2021-07-02 16:26:38</time>
      </trkpt>
      <trkpt lat="29.18163" lon="-13.42419">
        <ele>17.6</ele>
        <time>2021-07-02 16:26:39</time>
      </trkpt>
      <trkpt lat="29.18166" lon="-13.42418">
        <ele>17.2</ele>
        <time>2021-07-02 16:26:40</time>
      </trkpt>
      <trkpt lat="29.1817" lon="-13.42417">
        <ele>17.2</ele>
        <time>2021-07-02 16:26:41</time>
      </trkpt>
      <trkpt lat="29.18173" lon="-13.42416">
        <ele>17.2</ele>
        <time>2021-07-02 16:26:42</time>
      </trkpt>
      <trkpt lat="29.18177" lon="-13.42415">
        <ele>16.8</ele>
        <time>2021-07-02 16:26:43</time>
      </trkpt>
      <trkpt lat="29.18181" lon="-13.42414">
        <ele>16.8</ele>
        <time>2021-07-02 16:26:44</time>
      </trkpt>
      <trkpt lat="29.18185" lon="-13.42413">
        <ele>16.8</ele>
        <time>2021-07-02 16:26:45</time>
      </trkpt>
      <trkpt lat="29.18188" lon="-13.42412">
        <ele>16.6</ele>
        <time>2021-07-02 16:26:46</time>
      </trkpt>
      <trkpt lat="29.18192" lon="-13.42412">
        <ele>16.6</ele>
        <time>2021-07-02 16:26:47</time>
      </trkpt>
      <trkpt lat="29.18196" lon="-13.42411">
        <ele>16.6</ele>
        <time>2021-07-02 16:26:48</time>
      </trkpt>
      <trkpt lat="29.182" lon="-13.4241">
        <ele>16.4</ele>
        <time>2021-07-02 16:26:49</time>
      </trkpt>
      <trkpt lat="29.18203" lon="-13.42409">
        <ele>16.4</ele>
        <time>2021-07-02 16:26:50</time>
      </trkpt>
      <trkpt lat="29.18207" lon="-13.42408">
        <ele>16.4</ele>
        <time>2021-07-02 16:26:51</time>
      </trkpt>
      <trkpt lat="29.18211" lon="-13.42407">
        <ele>16</ele>
        <time>2021-07-02 16:26:52</time>
      </trkpt>
      <trkpt lat="29.18215" lon="-13.42406">
        <ele>16</ele>
        <time>2021-07-02 16:26:53</time>
      </trkpt>
      <trkpt lat="29.18218" lon="-13.42405">
        <ele>16</ele>
        <time>2021-07-02 16:26:54</time>
      </trkpt>
      <trkpt lat="29.18222" lon="-13.42404">
        <ele>15.8</ele>
        <time>2021-07-02 16:26:55</time>
      </trkpt>
      <trkpt lat="29.18226" lon="-13.42403">
        <ele>15.8</ele>
        <time>2021-07-02 16:26:56</time>
      </trkpt>
      <trkpt lat="29.1823" lon="-13.42402">
        <ele>15.8</ele>
        <time>2021-07-02 16:26:57</time>
      </trkpt>
      <trkpt lat="29.18234" lon="-13.42401">
        <ele>15.6</ele>
        <time>2021-07-02 16:26:58</time>
      </trkpt>
      <trkpt lat="29.18238" lon="-13.424">
        <ele>15.6</ele>
        <time>2021-07-02 16:26:59</time>
      </trkpt>
      <trkpt lat="29.18241" lon="-13.42399">
        <ele>15.6</ele>
        <time>2021-07-02 16:27:00</time>
      </trkpt>
      <trkpt lat="29.18246" lon="-13.42398">
        <ele>15.6</ele>
        <time>2021-07-02 16:27:01</time>
      </trkpt>
      <trkpt lat="29.18249" lon="-13.42398">
        <ele>15.2</ele>
        <time>2021-07-02 16:27:02</time>
      </trkpt>
      <trkpt lat="29.18253" lon="-13.42397">
        <ele>15.2</ele>
        <time>2021-07-02 16:27:03</time>
      </trkpt>
      <trkpt lat="29.18257" lon="-13.42396">
        <ele>15.2</ele>
        <time>2021-07-02 16:27:04</time>
      </trkpt>
      <trkpt lat="29.18261" lon="-13.42395">
        <ele>15.2</ele>
        <time>2021-07-02 16:27:05</time>
      </trkpt>
      <trkpt lat="29.18265" lon="-13.42394">
        <ele>15</ele>
        <time>2021-07-02 16:27:06</time>
      </trkpt>
      <trkpt lat="29.1827" lon="-13.42393">
        <ele>15</ele>
        <time>2021-07-02 16:27:07</time>
      </trkpt>
      <trkpt lat="29.18273" lon="-13.42392">
        <ele>15</ele>
        <time>2021-07-02 16:27:08</time>
      </trkpt>
      <trkpt lat="29.18277" lon="-13.42391">
        <ele>15</ele>
        <time>2021-07-02 16:27:09</time>
      </trkpt>
      <trkpt lat="29.18281" lon="-13.4239">
        <ele>15</ele>
        <time>2021-07-02 16:27:10</time>
      </trkpt>
      <trkpt lat="29.18285" lon="-13.42389">
        <ele>15</ele>
        <time>2021-07-02 16:27:11</time>
      </trkpt>
      <trkpt lat="29.18289" lon="-13.42388">
        <ele>15</ele>
        <time>2021-07-02 16:27:12</time>
      </trkpt>
      <trkpt lat="29.18293" lon="-13.42387">
        <ele>15</ele>
        <time>2021-07-02 16:27:13</time>
      </trkpt>
      <trkpt lat="29.18296" lon="-13.42386">
        <ele>15</ele>
        <time>2021-07-02 16:27:14</time>
      </trkpt>
      <trkpt lat="29.183" lon="-13.42385">
        <ele>15</ele>
        <time>2021-07-02 16:27:15</time>
      </trkpt>
      <trkpt lat="29.18304" lon="-13.42385">
        <ele>15</ele>
        <time>2021-07-02 16:27:16</time>
      </trkpt>
      <trkpt lat="29.18308" lon="-13.42384">
        <ele>15</ele>
        <time>2021-07-02 16:27:17</time>
      </trkpt>
      <trkpt lat="29.18312" lon="-13.42383">
        <ele>15.2</ele>
        <time>2021-07-02 16:27:18</time>
      </trkpt>
      <trkpt lat="29.18316" lon="-13.42381">
        <ele>15.2</ele>
        <time>2021-07-02 16:27:19</time>
      </trkpt>
      <trkpt lat="29.1832" lon="-13.4238">
        <ele>15.6</ele>
        <time>2021-07-02 16:27:20</time>
      </trkpt>
      <trkpt lat="29.18324" lon="-13.42379">
        <ele>15.6</ele>
        <time>2021-07-02 16:27:21</time>
      </trkpt>
      <trkpt lat="29.18327" lon="-13.42378">
        <ele>16</ele>
        <time>2021-07-02 16:27:22</time>
      </trkpt>
      <trkpt lat="29.18331" lon="-13.42378">
        <ele>16.2</ele>
        <time>2021-07-02 16:27:23</time>
      </trkpt>
      <trkpt lat="29.18335" lon="-13.42377">
        <ele>16.6</ele>
        <time>2021-07-02 16:27:24</time>
      </trkpt>
      <trkpt lat="29.18339" lon="-13.42376">
        <ele>16.8</ele>
        <time>2021-07-02 16:27:25</time>
      </trkpt>
      <trkpt lat="29.18342" lon="-13.42375">
        <ele>16.8</ele>
        <time>2021-07-02 16:27:26</time>
      </trkpt>
      <trkpt lat="29.18346" lon="-13.42374">
        <ele>17.4</ele>
        <time>2021-07-02 16:27:27</time>
      </trkpt>
      <trkpt lat="29.1835" lon="-13.42373">
        <ele>17.4</ele>
        <time>2021-07-02 16:27:28</time>
      </trkpt>
      <trkpt lat="29.18354" lon="-13.42372">
        <ele>17.8</ele>
        <time>2021-07-02 16:27:29</time>
      </trkpt>
      <trkpt lat="29.18357" lon="-13.42371">
        <ele>18</ele>
        <time>2021-07-02 16:27:30</time>
      </trkpt>
      <trkpt lat="29.18361" lon="-13.4237">
        <ele>18.2</ele>
        <time>2021-07-02 16:27:31</time>
      </trkpt>
      <trkpt lat="29.18365" lon="-13.42369">
        <ele>18.2</ele>
        <time>2021-07-02 16:27:32</time>
      </trkpt>
      <trkpt lat="29.18369" lon="-13.42368">
        <ele>18.2</ele>
        <time>2021-07-02 16:27:33</time>
      </trkpt>
      <trkpt lat="29.18372" lon="-13.42367">
        <ele>18.6</ele>
        <time>2021-07-02 16:27:34</time>
      </trkpt>
      <trkpt lat="29.18376" lon="-13.42367">
        <ele>18.6</ele>
        <time>2021-07-02 16:27:35</time>
      </trkpt>
      <trkpt lat="29.1838" lon="-13.42366">
        <ele>18.6</ele>
        <time>2021-07-02 16:27:36</time>
      </trkpt>
      <trkpt lat="29.18384" lon="-13.42365">
        <ele>18.6</ele>
        <time>2021-07-02 16:27:37</time>
      </trkpt>
      <trkpt lat="29.18388" lon="-13.42364">
        <ele>18.6</ele>
        <time>2021-07-02 16:27:38</time>
      </trkpt>
      <trkpt lat="29.18391" lon="-13.42363">
        <ele>18.6</ele>
        <time>2021-07-02 16:27:39</time>
      </trkpt>
      <trkpt lat="29.18395" lon="-13.42362">
        <ele>18.6</ele>
        <time>2021-07-02 16:27:40</time>
      </trkpt>
      <trkpt lat="29.18399" lon="-13.42361">
        <ele>18.6</ele>
        <time>2021-07-02 16:27:41</time>
      </trkpt>
      <trkpt lat="29.18403" lon="-13.4236">
        <ele>18.2</ele>
        <time>2021-07-02 16:27:42</time>
      </trkpt>
      <trkpt lat="29.18407" lon="-13.42359">
        <ele>18.2</ele>
        <time>2021-07-02 16:27:43</time>
      </trkpt>
      <trkpt lat="29.18411" lon="-13.42358">
        <ele>18.2</ele>
        <time>2021-07-02 16:27:44</time>
      </trkpt>
      <trkpt lat="29.18416" lon="-13.42357">
        <ele>18</ele>
        <time>2021-07-02 16:27:45</time>
      </trkpt>
      <trkpt lat="29.1842" lon="-13.42356">
        <ele>17.8</ele>
        <time>2021-07-02 16:27:46</time>
      </trkpt>
      <trkpt lat="29.18424" lon="-13.42355">
        <ele>17.8</ele>
        <time>2021-07-02 16:27:47</time>
      </trkpt>
      <trkpt lat="29.18428" lon="-13.42354">
        <ele>17.4</ele>
        <time>2021-07-02 16:27:48</time>
      </trkpt>
      <trkpt lat="29.18432" lon="-13.42352">
        <ele>17.4</ele>
        <time>2021-07-02 16:27:49</time>
      </trkpt>
      <trkpt lat="29.18436" lon="-13.42351">
        <ele>17.2</ele>
        <time>2021-07-02 16:27:50</time>
      </trkpt>
      <trkpt lat="29.18441" lon="-13.4235">
        <ele>17.2</ele>
        <time>2021-07-02 16:27:51</time>
      </trkpt>
      <trkpt lat="29.18445" lon="-13.42349">
        <ele>17.2</ele>
        <time>2021-07-02 16:27:52</time>
      </trkpt>
      <trkpt lat="29.18449" lon="-13.42348">
        <ele>17.2</ele>
        <time>2021-07-02 16:27:53</time>
      </trkpt>
      <trkpt lat="29.18453" lon="-13.42347">
        <ele>17.2</ele>
        <time>2021-07-02 16:27:54</time>
      </trkpt>
      <trkpt lat="29.18457" lon="-13.42346">
        <ele>17.2</ele>
        <time>2021-07-02 16:27:55</time>
      </trkpt>
      <trkpt lat="29.18462" lon="-13.42345">
        <ele>17.2</ele>
        <time>2021-07-02 16:27:56</time>
      </trkpt>
      <trkpt lat="29.18466" lon="-13.42344">
        <ele>17.2</ele>
        <time>2021-07-02 16:27:57</time>
      </trkpt>
      <trkpt lat="29.1847" lon="-13.42343">
        <ele>16.8</ele>
        <time>2021-07-02 16:27:58</time>
      </trkpt>
      <trkpt lat="29.18474" lon="-13.42342">
        <ele>16.8</ele>
        <time>2021-07-02 16:27:59</time>
      </trkpt>
      <trkpt lat="29.18479" lon="-13.42341">
        <ele>16.4</ele>
        <time>2021-07-02 16:28:00</time>
      </trkpt>
      <trkpt lat="29.18484" lon="-13.4234">
        <ele>16.4</ele>
        <time>2021-07-02 16:28:01</time>
      </trkpt>
      <trkpt lat="29.18488" lon="-13.42338">
        <ele>16.2</ele>
        <time>2021-07-02 16:28:02</time>
      </trkpt>
      <trkpt lat="29.18492" lon="-13.42338">
        <ele>16</ele>
        <time>2021-07-02 16:28:03</time>
      </trkpt>
      <trkpt lat="29.18497" lon="-13.42337">
        <ele>16</ele>
        <time>2021-07-02 16:28:04</time>
      </trkpt>
      <trkpt lat="29.18501" lon="-13.42336">
        <ele>16</ele>
        <time>2021-07-02 16:28:05</time>
      </trkpt>
      <trkpt lat="29.18506" lon="-13.42334">
        <ele>16</ele>
        <time>2021-07-02 16:28:06</time>
      </trkpt>
      <trkpt lat="29.1851" lon="-13.42333">
        <ele>16</ele>
        <time>2021-07-02 16:28:07</time>
      </trkpt>
      <trkpt lat="29.18515" lon="-13.42332">
        <ele>15.8</ele>
        <time>2021-07-02 16:28:08</time>
      </trkpt>
      <trkpt lat="29.18519" lon="-13.42331">
        <ele>15.8</ele>
        <time>2021-07-02 16:28:09</time>
      </trkpt>
      <trkpt lat="29.18523" lon="-13.4233">
        <ele>15.8</ele>
        <time>2021-07-02 16:28:10</time>
      </trkpt>
      <trkpt lat="29.18528" lon="-13.42329">
        <ele>15.8</ele>
        <time>2021-07-02 16:28:11</time>
      </trkpt>
      <trkpt lat="29.18532" lon="-13.42328">
        <ele>15.8</ele>
        <time>2021-07-02 16:28:12</time>
      </trkpt>
      <trkpt lat="29.18536" lon="-13.42327">
        <ele>15.8</ele>
        <time>2021-07-02 16:28:13</time>
      </trkpt>
      <trkpt lat="29.18541" lon="-13.42325">
        <ele>15.8</ele>
        <time>2021-07-02 16:28:14</time>
      </trkpt>
      <trkpt lat="29.18546" lon="-13.42324">
        <ele>15.8</ele>
        <time>2021-07-02 16:28:15</time>
      </trkpt>
      <trkpt lat="29.1855" lon="-13.42323">
        <ele>15.6</ele>
        <time>2021-07-02 16:28:16</time>
      </trkpt>
      <trkpt lat="29.18555" lon="-13.42322">
        <ele>15.6</ele>
        <time>2021-07-02 16:28:17</time>
      </trkpt>
      <trkpt lat="29.1856" lon="-13.42321">
        <ele>15.6</ele>
        <time>2021-07-02 16:28:18</time>
      </trkpt>
      <trkpt lat="29.18565" lon="-13.4232">
        <ele>15.6</ele>
        <time>2021-07-02 16:28:19</time>
      </trkpt>
      <trkpt lat="29.18569" lon="-13.42318">
        <ele>15.4</ele>
        <time>2021-07-02 16:28:20</time>
      </trkpt>
      <trkpt lat="29.18574" lon="-13.42317">
        <ele>15.4</ele>
        <time>2021-07-02 16:28:21</time>
      </trkpt>
      <trkpt lat="29.18579" lon="-13.42316">
        <ele>15</ele>
        <time>2021-07-02 16:28:22</time>
      </trkpt>
      <trkpt lat="29.18584" lon="-13.42315">
        <ele>14.8</ele>
        <time>2021-07-02 16:28:23</time>
      </trkpt>
      <trkpt lat="29.18589" lon="-13.42314">
        <ele>14.4</ele>
        <time>2021-07-02 16:28:24</time>
      </trkpt>
      <trkpt lat="29.18594" lon="-13.42313">
        <ele>14.2</ele>
        <time>2021-07-02 16:28:25</time>
      </trkpt>
      <trkpt lat="29.186" lon="-13.42311">
        <ele>14</ele>
        <time>2021-07-02 16:28:26</time>
      </trkpt>
      <trkpt lat="29.18605" lon="-13.4231">
        <ele>13.6</ele>
        <time>2021-07-02 16:28:27</time>
      </trkpt>
      <trkpt lat="29.18611" lon="-13.42309">
        <ele>13.4</ele>
        <time>2021-07-02 16:28:28</time>
      </trkpt>
      <trkpt lat="29.18616" lon="-13.42307">
        <ele>13.4</ele>
        <time>2021-07-02 16:28:29</time>
      </trkpt>
      <trkpt lat="29.18622" lon="-13.42306">
        <ele>13.2</ele>
        <time>2021-07-02 16:28:30</time>
      </trkpt>
      <trkpt lat="29.18627" lon="-13.42305">
        <ele>13.2</ele>
        <time>2021-07-02 16:28:31</time>
      </trkpt>
      <trkpt lat="29.18632" lon="-13.42304">
        <ele>13.2</ele>
        <time>2021-07-02 16:28:32</time>
      </trkpt>
      <trkpt lat="29.18637" lon="-13.42303">
        <ele>13.2</ele>
        <time>2021-07-02 16:28:33</time>
      </trkpt>
      <trkpt lat="29.18643" lon="-13.42301">
        <ele>12.8</ele>
        <time>2021-07-02 16:28:34</time>
      </trkpt>
      <trkpt lat="29.18649" lon="-13.423">
        <ele>12.8</ele>
        <time>2021-07-02 16:28:35</time>
      </trkpt>
      <trkpt lat="29.18654" lon="-13.42298">
        <ele>12.6</ele>
        <time>2021-07-02 16:28:36</time>
      </trkpt>
      <trkpt lat="29.1866" lon="-13.42297">
        <ele>12.2</ele>
        <time>2021-07-02 16:28:37</time>
      </trkpt>
      <trkpt lat="29.18666" lon="-13.42295">
        <ele>12</ele>
        <time>2021-07-02 16:28:38</time>
      </trkpt>
      <trkpt lat="29.18672" lon="-13.42294">
        <ele>11.8</ele>
        <time>2021-07-02 16:28:39</time>
      </trkpt>
      <trkpt lat="29.18678" lon="-13.42292">
        <ele>11.8</ele>
        <time>2021-07-02 16:28:40</time>
      </trkpt>
      <trkpt lat="29.18683" lon="-13.42291">
        <ele>11.8</ele>
        <time>2021-07-02 16:28:41</time>
      </trkpt>
      <trkpt lat="29.18689" lon="-13.4229">
        <ele>11.4</ele>
        <time>2021-07-02 16:28:42</time>
      </trkpt>
      <trkpt lat="29.18695" lon="-13.42288">
        <ele>11.4</ele>
        <time>2021-07-02 16:28:43</time>
      </trkpt>
      <trkpt lat="29.187" lon="-13.42287">
        <ele>11.4</ele>
        <time>2021-07-02 16:28:44</time>
      </trkpt>
      <trkpt lat="29.18706" lon="-13.42285">
        <ele>11.6</ele>
        <time>2021-07-02 16:28:45</time>
      </trkpt>
      <trkpt lat="29.18711" lon="-13.42284">
        <ele>11.6</ele>
        <time>2021-07-02 16:28:46</time>
      </trkpt>
      <trkpt lat="29.18716" lon="-13.42282">
        <ele>11.6</ele>
        <time>2021-07-02 16:28:47</time>
      </trkpt>
      <trkpt lat="29.18721" lon="-13.42281">
        <ele>11.8</ele>
        <time>2021-07-02 16:28:48</time>
      </trkpt>
      <trkpt lat="29.18726" lon="-13.4228">
        <ele>11.8</ele>
        <time>2021-07-02 16:28:49</time>
      </trkpt>
      <trkpt lat="29.18732" lon="-13.42279">
        <ele>11.8</ele>
        <time>2021-07-02 16:28:50</time>
      </trkpt>
      <trkpt lat="29.18737" lon="-13.42278">
        <ele>11.6</ele>
        <time>2021-07-02 16:28:51</time>
      </trkpt>
      <trkpt lat="29.18743" lon="-13.42277">
        <ele>11.6</ele>
        <time>2021-07-02 16:28:52</time>
      </trkpt>
      <trkpt lat="29.18748" lon="-13.42275">
        <ele>11.4</ele>
        <time>2021-07-02 16:28:53</time>
      </trkpt>
      <trkpt lat="29.18753" lon="-13.42273">
        <ele>11.4</ele>
        <time>2021-07-02 16:28:54</time>
      </trkpt>
      <trkpt lat="29.18758" lon="-13.42272">
        <ele>11.4</ele>
        <time>2021-07-02 16:28:55</time>
      </trkpt>
      <trkpt lat="29.18763" lon="-13.42271">
        <ele>11.4</ele>
        <time>2021-07-02 16:28:56</time>
      </trkpt>
      <trkpt lat="29.18769" lon="-13.4227">
        <ele>11.4</ele>
        <time>2021-07-02 16:28:57</time>
      </trkpt>
      <trkpt lat="29.18774" lon="-13.42268">
        <ele>11.2</ele>
        <time>2021-07-02 16:28:58</time>
      </trkpt>
      <trkpt lat="29.1878" lon="-13.42267">
        <ele>11.2</ele>
        <time>2021-07-02 16:28:59</time>
      </trkpt>
      <trkpt lat="29.18785" lon="-13.42266">
        <ele>10.8</ele>
        <time>2021-07-02 16:29:00</time>
      </trkpt>
      <trkpt lat="29.18791" lon="-13.42264">
        <ele>10.6</ele>
        <time>2021-07-02 16:29:01</time>
      </trkpt>
      <trkpt lat="29.18797" lon="-13.42263">
        <ele>10.6</ele>
        <time>2021-07-02 16:29:02</time>
      </trkpt>
      <trkpt lat="29.18803" lon="-13.42262">
        <ele>10.4</ele>
        <time>2021-07-02 16:29:03</time>
      </trkpt>
      <trkpt lat="29.18808" lon="-13.4226">
        <ele>10.4</ele>
        <time>2021-07-02 16:29:04</time>
      </trkpt>
      <trkpt lat="29.18814" lon="-13.4226">
        <ele>10</ele>
        <time>2021-07-02 16:29:05</time>
      </trkpt>
      <trkpt lat="29.1882" lon="-13.42259">
        <ele>9.6</ele>
        <time>2021-07-02 16:29:06</time>
      </trkpt>
      <trkpt lat="29.18826" lon="-13.42258">
        <ele>9.4</ele>
        <time>2021-07-02 16:29:07</time>
      </trkpt>
      <trkpt lat="29.18831" lon="-13.42257">
        <ele>9.4</ele>
        <time>2021-07-02 16:29:08</time>
      </trkpt>
      <trkpt lat="29.18837" lon="-13.42256">
        <ele>9</ele>
        <time>2021-07-02 16:29:09</time>
      </trkpt>
      <trkpt lat="29.18843" lon="-13.42255">
        <ele>8.6</ele>
        <time>2021-07-02 16:29:10</time>
      </trkpt>
      <trkpt lat="29.18849" lon="-13.42254">
        <ele>8.4</ele>
        <time>2021-07-02 16:29:11</time>
      </trkpt>
      <trkpt lat="29.18855" lon="-13.42254">
        <ele>8.2</ele>
        <time>2021-07-02 16:29:12</time>
      </trkpt>
      <trkpt lat="29.18861" lon="-13.42253">
        <ele>7.8</ele>
        <time>2021-07-02 16:29:13</time>
      </trkpt>
      <trkpt lat="29.18867" lon="-13.42252">
        <ele>7.6</ele>
        <time>2021-07-02 16:29:14</time>
      </trkpt>
      <trkpt lat="29.18873" lon="-13.42251">
        <ele>7.6</ele>
        <time>2021-07-02 16:29:15</time>
      </trkpt>
      <trkpt lat="29.18879" lon="-13.42251">
        <ele>7.4</ele>
        <time>2021-07-02 16:29:16</time>
      </trkpt>
      <trkpt lat="29.18884" lon="-13.4225">
        <ele>7.4</ele>
        <time>2021-07-02 16:29:17</time>
      </trkpt>
      <trkpt lat="29.1889" lon="-13.42249">
        <ele>7</ele>
        <time>2021-07-02 16:29:18</time>
      </trkpt>
      <trkpt lat="29.18896" lon="-13.42249">
        <ele>7</ele>
        <time>2021-07-02 16:29:19</time>
      </trkpt>
      <trkpt lat="29.18902" lon="-13.42248">
        <ele>6.6</ele>
        <time>2021-07-02 16:29:20</time>
      </trkpt>
      <trkpt lat="29.18908" lon="-13.42247">
        <ele>6.4</ele>
        <time>2021-07-02 16:29:21</time>
      </trkpt>
      <trkpt lat="29.18914" lon="-13.42247">
        <ele>6.4</ele>
        <time>2021-07-02 16:29:22</time>
      </trkpt>
      <trkpt lat="29.1892" lon="-13.42246">
        <ele>6</ele>
        <time>2021-07-02 16:29:23</time>
      </trkpt>
      <trkpt lat="29.18926" lon="-13.42246">
        <ele>5.8</ele>
        <time>2021-07-02 16:29:24</time>
      </trkpt>
      <trkpt lat="29.18932" lon="-13.42245">
        <ele>5.6</ele>
        <time>2021-07-02 16:29:25</time>
      </trkpt>
      <trkpt lat="29.18938" lon="-13.42245">
        <ele>5.4</ele>
        <time>2021-07-02 16:29:26</time>
      </trkpt>
      <trkpt lat="29.18944" lon="-13.42245">
        <ele>5.4</ele>
        <time>2021-07-02 16:29:27</time>
      </trkpt>
      <trkpt lat="29.18949" lon="-13.42245">
        <ele>5</ele>
        <time>2021-07-02 16:29:28</time>
      </trkpt>
      <trkpt lat="29.18955" lon="-13.42245">
        <ele>5</ele>
        <time>2021-07-02 16:29:29</time>
      </trkpt>
      <trkpt lat="29.18961" lon="-13.42245">
        <ele>4.8</ele>
        <time>2021-07-02 16:29:30</time>
      </trkpt>
      <trkpt lat="29.18966" lon="-13.42244">
        <ele>4.8</ele>
        <time>2021-07-02 16:29:31</time>
      </trkpt>
      <trkpt lat="29.18971" lon="-13.42244">
        <ele>4.8</ele>
        <time>2021-07-02 16:29:32</time>
      </trkpt>
      <trkpt lat="29.18976" lon="-13.42243">
        <ele>4.8</ele>
        <time>2021-07-02 16:29:33</time>
      </trkpt>
      <trkpt lat="29.18981" lon="-13.42243">
        <ele>4.8</ele>
        <time>2021-07-02 16:29:34</time>
      </trkpt>
      <trkpt lat="29.18986" lon="-13.42243">
        <ele>4.8</ele>
        <time>2021-07-02 16:29:35</time>
      </trkpt>
      <trkpt lat="29.18991" lon="-13.42242">
        <ele>4.6</ele>
        <time>2021-07-02 16:29:36</time>
      </trkpt>
      <trkpt lat="29.18996" lon="-13.42242">
        <ele>4.6</ele>
        <time>2021-07-02 16:29:37</time>
      </trkpt>
      <trkpt lat="29.19" lon="-13.42242">
        <ele>4.6</ele>
        <time>2021-07-02 16:29:38</time>
      </trkpt>
      <trkpt lat="29.19004" lon="-13.42242">
        <ele>4.6</ele>
        <time>2021-07-02 16:29:39</time>
      </trkpt>
      <trkpt lat="29.19009" lon="-13.42242">
        <ele>4.6</ele>
        <time>2021-07-02 16:29:40</time>
      </trkpt>
      <trkpt lat="29.19013" lon="-13.42241">
        <ele>4.6</ele>
        <time>2021-07-02 16:29:41</time>
      </trkpt>
      <trkpt lat="29.19017" lon="-13.42241">
        <ele>4.6</ele>
        <time>2021-07-02 16:29:42</time>
      </trkpt>
      <trkpt lat="29.19022" lon="-13.42241">
        <ele>4.6</ele>
        <time>2021-07-02 16:29:43</time>
      </trkpt>
      <trkpt lat="29.19026" lon="-13.4224">
        <ele>4.6</ele>
        <time>2021-07-02 16:29:44</time>
      </trkpt>
      <trkpt lat="29.19031" lon="-13.42241">
        <ele>4.6</ele>
        <time>2021-07-02 16:29:45</time>
      </trkpt>
      <trkpt lat="29.19035" lon="-13.4224">
        <ele>4.6</ele>
        <time>2021-07-02 16:29:46</time>
      </trkpt>
      <trkpt lat="29.19039" lon="-13.4224">
        <ele>4.8</ele>
        <time>2021-07-02 16:29:47</time>
      </trkpt>
      <trkpt lat="29.19043" lon="-13.4224">
        <ele>4.8</ele>
        <time>2021-07-02 16:29:48</time>
      </trkpt>
      <trkpt lat="29.19047" lon="-13.42239">
        <ele>5</ele>
        <time>2021-07-02 16:29:49</time>
      </trkpt>
      <trkpt lat="29.19051" lon="-13.4224">
        <ele>5</ele>
        <time>2021-07-02 16:29:50</time>
      </trkpt>
      <trkpt lat="29.19055" lon="-13.4224">
        <ele>5</ele>
        <time>2021-07-02 16:29:51</time>
      </trkpt>
      <trkpt lat="29.19059" lon="-13.42241">
        <ele>5</ele>
        <time>2021-07-02 16:29:52</time>
      </trkpt>
      <trkpt lat="29.19064" lon="-13.4224">
        <ele>5.2</ele>
        <time>2021-07-02 16:29:53</time>
      </trkpt>
      <trkpt lat="29.19068" lon="-13.4224">
        <ele>5.2</ele>
        <time>2021-07-02 16:29:54</time>
      </trkpt>
      <trkpt lat="29.19072" lon="-13.42239">
        <ele>5.2</ele>
        <time>2021-07-02 16:29:55</time>
      </trkpt>
      <trkpt lat="29.19076" lon="-13.42239">
        <ele>5.2</ele>
        <time>2021-07-02 16:29:56</time>
      </trkpt>
      <trkpt lat="29.1908" lon="-13.42239">
        <ele>5.4</ele>
        <time>2021-07-02 16:29:57</time>
      </trkpt>
      <trkpt lat="29.19084" lon="-13.42239">
        <ele>5.4</ele>
        <time>2021-07-02 16:29:58</time>
      </trkpt>
      <trkpt lat="29.19088" lon="-13.42239">
        <ele>5.8</ele>
        <time>2021-07-02 16:29:59</time>
      </trkpt>
      <trkpt lat="29.19093" lon="-13.42239">
        <ele>5.8</ele>
        <time>2021-07-02 16:30:00</time>
      </trkpt>
      <trkpt lat="29.19097" lon="-13.42239">
        <ele>5.8</ele>
        <time>2021-07-02 16:30:01</time>
      </trkpt>
      <trkpt lat="29.19101" lon="-13.42239">
        <ele>5.8</ele>
        <time>2021-07-02 16:30:02</time>
      </trkpt>
      <trkpt lat="29.19105" lon="-13.42239">
        <ele>5.8</ele>
        <time>2021-07-02 16:30:03</time>
      </trkpt>
      <trkpt lat="29.1911" lon="-13.42239">
        <ele>5.8</ele>
        <time>2021-07-02 16:30:04</time>
      </trkpt>
      <trkpt lat="29.19114" lon="-13.42239">
        <ele>5.8</ele>
        <time>2021-07-02 16:30:05</time>
      </trkpt>
      <trkpt lat="29.19118" lon="-13.42239">
        <ele>5.8</ele>
        <time>2021-07-02 16:30:06</time>
      </trkpt>
      <trkpt lat="29.19122" lon="-13.42238">
        <ele>5.8</ele>
        <time>2021-07-02 16:30:07</time>
      </trkpt>
      <trkpt lat="29.19126" lon="-13.42238">
        <ele>5.8</ele>
        <time>2021-07-02 16:30:08</time>
      </trkpt>
      <trkpt lat="29.19131" lon="-13.42238">
        <ele>5.8</ele>
        <time>2021-07-02 16:30:09</time>
      </trkpt>
      <trkpt lat="29.19135" lon="-13.42238">
        <ele>6</ele>
        <time>2021-07-02 16:30:10</time>
      </trkpt>
      <trkpt lat="29.19139" lon="-13.42238">
        <ele>6</ele>
        <time>2021-07-02 16:30:11</time>
      </trkpt>
      <trkpt lat="29.19143" lon="-13.42237">
        <ele>6</ele>
        <time>2021-07-02 16:30:12</time>
      </trkpt>
      <trkpt lat="29.19147" lon="-13.42237">
        <ele>6.4</ele>
        <time>2021-07-02 16:30:13</time>
      </trkpt>
      <trkpt lat="29.19151" lon="-13.42237">
        <ele>6.4</ele>
        <time>2021-07-02 16:30:14</time>
      </trkpt>
      <trkpt lat="29.19155" lon="-13.42237">
        <ele>6.4</ele>
        <time>2021-07-02 16:30:15</time>
      </trkpt>
      <trkpt lat="29.1916" lon="-13.42237">
        <ele>6.6</ele>
        <time>2021-07-02 16:30:16</time>
      </trkpt>
      <trkpt lat="29.19164" lon="-13.42237">
        <ele>6.6</ele>
        <time>2021-07-02 16:30:17</time>
      </trkpt>
      <trkpt lat="29.19168" lon="-13.42236">
        <ele>6.8</ele>
        <time>2021-07-02 16:30:18</time>
      </trkpt>
      <trkpt lat="29.19172" lon="-13.42236">
        <ele>6.8</ele>
        <time>2021-07-02 16:30:19</time>
      </trkpt>
      <trkpt lat="29.19176" lon="-13.42236">
        <ele>6.8</ele>
        <time>2021-07-02 16:30:20</time>
      </trkpt>
      <trkpt lat="29.19181" lon="-13.42236">
        <ele>6.8</ele>
        <time>2021-07-02 16:30:21</time>
      </trkpt>
      <trkpt lat="29.19185" lon="-13.42236">
        <ele>6.8</ele>
        <time>2021-07-02 16:30:22</time>
      </trkpt>
      <trkpt lat="29.19189" lon="-13.42235">
        <ele>6.8</ele>
        <time>2021-07-02 16:30:23</time>
      </trkpt>
      <trkpt lat="29.19194" lon="-13.42235">
        <ele>6.8</ele>
        <time>2021-07-02 16:30:24</time>
      </trkpt>
      <trkpt lat="29.19198" lon="-13.42235">
        <ele>6.8</ele>
        <time>2021-07-02 16:30:25</time>
      </trkpt>
      <trkpt lat="29.19202" lon="-13.42236">
        <ele>6.8</ele>
        <time>2021-07-02 16:30:26</time>
      </trkpt>
      <trkpt lat="29.19207" lon="-13.42235">
        <ele>6.8</ele>
        <time>2021-07-02 16:30:27</time>
      </trkpt>
      <trkpt lat="29.19212" lon="-13.42235">
        <ele>6.8</ele>
        <time>2021-07-02 16:30:28</time>
      </trkpt>
      <trkpt lat="29.19216" lon="-13.42236">
        <ele>7.2</ele>
        <time>2021-07-02 16:30:29</time>
      </trkpt>
      <trkpt lat="29.1922" lon="-13.42235">
        <ele>7.2</ele>
        <time>2021-07-02 16:30:30</time>
      </trkpt>
      <trkpt lat="29.19225" lon="-13.42235">
        <ele>7.2</ele>
        <time>2021-07-02 16:30:31</time>
      </trkpt>
      <trkpt lat="29.19229" lon="-13.42235">
        <ele>7.4</ele>
        <time>2021-07-02 16:30:32</time>
      </trkpt>
      <trkpt lat="29.19234" lon="-13.42235">
        <ele>7.4</ele>
        <time>2021-07-02 16:30:33</time>
      </trkpt>
      <trkpt lat="29.19238" lon="-13.42235">
        <ele>7.4</ele>
        <time>2021-07-02 16:30:34</time>
      </trkpt>
      <trkpt lat="29.19242" lon="-13.42234">
        <ele>7.4</ele>
        <time>2021-07-02 16:30:35</time>
      </trkpt>
      <trkpt lat="29.19247" lon="-13.42234">
        <ele>7.4</ele>
        <time>2021-07-02 16:30:36</time>
      </trkpt>
      <trkpt lat="29.19251" lon="-13.42234">
        <ele>7.6</ele>
        <time>2021-07-02 16:30:37</time>
      </trkpt>
      <trkpt lat="29.19256" lon="-13.42234">
        <ele>7.6</ele>
        <time>2021-07-02 16:30:38</time>
      </trkpt>
      <trkpt lat="29.19261" lon="-13.42234">
        <ele>7.6</ele>
        <time>2021-07-02 16:30:39</time>
      </trkpt>
      <trkpt lat="29.19265" lon="-13.42234">
        <ele>7.6</ele>
        <time>2021-07-02 16:30:40</time>
      </trkpt>
      <trkpt lat="29.19269" lon="-13.42234">
        <ele>7.6</ele>
        <time>2021-07-02 16:30:41</time>
      </trkpt>
      <trkpt lat="29.19274" lon="-13.42234">
        <ele>7.6</ele>
        <time>2021-07-02 16:30:42</time>
      </trkpt>
      <trkpt lat="29.19278" lon="-13.42234">
        <ele>7.6</ele>
        <time>2021-07-02 16:30:43</time>
      </trkpt>
      <trkpt lat="29.19283" lon="-13.42233">
        <ele>7.8</ele>
        <time>2021-07-02 16:30:44</time>
      </trkpt>
      <trkpt lat="29.19287" lon="-13.42233">
        <ele>7.8</ele>
        <time>2021-07-02 16:30:45</time>
      </trkpt>
      <trkpt lat="29.19292" lon="-13.42233">
        <ele>7.8</ele>
        <time>2021-07-02 16:30:46</time>
      </trkpt>
      <trkpt lat="29.19297" lon="-13.42233">
        <ele>7.6</ele>
        <time>2021-07-02 16:30:47</time>
      </trkpt>
      <trkpt lat="29.19302" lon="-13.42232">
        <ele>7.6</ele>
        <time>2021-07-02 16:30:48</time>
      </trkpt>
      <trkpt lat="29.19307" lon="-13.42232">
        <ele>7.2</ele>
        <time>2021-07-02 16:30:49</time>
      </trkpt>
      <trkpt lat="29.19311" lon="-13.42232">
        <ele>7.2</ele>
        <time>2021-07-02 16:30:50</time>
      </trkpt>
      <trkpt lat="29.19316" lon="-13.42232">
        <ele>7.2</ele>
        <time>2021-07-02 16:30:51</time>
      </trkpt>
      <trkpt lat="29.19321" lon="-13.42232">
        <ele>7</ele>
        <time>2021-07-02 16:30:52</time>
      </trkpt>
      <trkpt lat="29.19326" lon="-13.42231">
        <ele>7</ele>
        <time>2021-07-02 16:30:53</time>
      </trkpt>
      <trkpt lat="29.19331" lon="-13.42231">
        <ele>7</ele>
        <time>2021-07-02 16:30:54</time>
      </trkpt>
      <trkpt lat="29.19335" lon="-13.42231">
        <ele>7</ele>
        <time>2021-07-02 16:30:55</time>
      </trkpt>
      <trkpt lat="29.1934" lon="-13.42231">
        <ele>7</ele>
        <time>2021-07-02 16:30:56</time>
      </trkpt>
      <trkpt lat="29.19345" lon="-13.4223">
        <ele>6.8</ele>
        <time>2021-07-02 16:30:57</time>
      </trkpt>
      <trkpt lat="29.1935" lon="-13.4223">
        <ele>6.8</ele>
        <time>2021-07-02 16:30:58</time>
      </trkpt>
      <trkpt lat="29.19355" lon="-13.42229">
        <ele>6.4</ele>
        <time>2021-07-02 16:30:59</time>
      </trkpt>
      <trkpt lat="29.1936" lon="-13.42229">
        <ele>6.4</ele>
        <time>2021-07-02 16:31:00</time>
      </trkpt>
      <trkpt lat="29.19365" lon="-13.42228">
        <ele>6.4</ele>
        <time>2021-07-02 16:31:01</time>
      </trkpt>
      <trkpt lat="29.1937" lon="-13.42228">
        <ele>6</ele>
        <time>2021-07-02 16:31:02</time>
      </trkpt>
      <trkpt lat="29.19375" lon="-13.42228">
        <ele>5.8</ele>
        <time>2021-07-02 16:31:03</time>
      </trkpt>
      <trkpt lat="29.1938" lon="-13.42228">
        <ele>5.8</ele>
        <time>2021-07-02 16:31:04</time>
      </trkpt>
      <trkpt lat="29.19385" lon="-13.42228">
        <ele>5.6</ele>
        <time>2021-07-02 16:31:05</time>
      </trkpt>
      <trkpt lat="29.19391" lon="-13.42228">
        <ele>5.6</ele>
        <time>2021-07-02 16:31:06</time>
      </trkpt>
      <trkpt lat="29.19396" lon="-13.42227">
        <ele>5.6</ele>
        <time>2021-07-02 16:31:07</time>
      </trkpt>
      <trkpt lat="29.19401" lon="-13.42227">
        <ele>5.2</ele>
        <time>2021-07-02 16:31:08</time>
      </trkpt>
      <trkpt lat="29.19407" lon="-13.42227">
        <ele>5.2</ele>
        <time>2021-07-02 16:31:09</time>
      </trkpt>
      <trkpt lat="29.19412" lon="-13.42227">
        <ele>5.2</ele>
        <time>2021-07-02 16:31:10</time>
      </trkpt>
      <trkpt lat="29.19417" lon="-13.42227">
        <ele>5</ele>
        <time>2021-07-02 16:31:11</time>
      </trkpt>
      <trkpt lat="29.19422" lon="-13.42226">
        <ele>5</ele>
        <time>2021-07-02 16:31:12</time>
      </trkpt>
      <trkpt lat="29.19427" lon="-13.42226">
        <ele>5</ele>
        <time>2021-07-02 16:31:13</time>
      </trkpt>
      <trkpt lat="29.19433" lon="-13.42226">
        <ele>4.8</ele>
        <time>2021-07-02 16:31:14</time>
      </trkpt>
      <trkpt lat="29.19438" lon="-13.42226">
        <ele>4.8</ele>
        <time>2021-07-02 16:31:15</time>
      </trkpt>
      <trkpt lat="29.19443" lon="-13.42226">
        <ele>4.8</ele>
        <time>2021-07-02 16:31:16</time>
      </trkpt>
      <trkpt lat="29.19448" lon="-13.42226">
        <ele>4.6</ele>
        <time>2021-07-02 16:31:17</time>
      </trkpt>
      <trkpt lat="29.19453" lon="-13.42225">
        <ele>4.6</ele>
        <time>2021-07-02 16:31:18</time>
      </trkpt>
      <trkpt lat="29.19458" lon="-13.42225">
        <ele>4.6</ele>
        <time>2021-07-02 16:31:19</time>
      </trkpt>
      <trkpt lat="29.19464" lon="-13.42225">
        <ele>4.4</ele>
        <time>2021-07-02 16:31:20</time>
      </trkpt>
      <trkpt lat="29.19469" lon="-13.42225">
        <ele>4.4</ele>
        <time>2021-07-02 16:31:21</time>
      </trkpt>
      <trkpt lat="29.19474" lon="-13.42225">
        <ele>4.4</ele>
        <time>2021-07-02 16:31:22</time>
      </trkpt>
      <trkpt lat="29.1948" lon="-13.42224">
        <ele>4.2</ele>
        <time>2021-07-02 16:31:23</time>
      </trkpt>
      <trkpt lat="29.19485" lon="-13.42224">
        <ele>4.2</ele>
        <time>2021-07-02 16:31:24</time>
      </trkpt>
      <trkpt lat="29.1949" lon="-13.42223">
        <ele>4.2</ele>
        <time>2021-07-02 16:31:25</time>
      </trkpt>
      <trkpt lat="29.19494" lon="-13.42223">
        <ele>4.4</ele>
        <time>2021-07-02 16:31:26</time>
      </trkpt>
      <trkpt lat="29.19498" lon="-13.42223">
        <ele>4.4</ele>
        <time>2021-07-02 16:31:27</time>
      </trkpt>
      <trkpt lat="29.19503" lon="-13.42223">
        <ele>4.6</ele>
        <time>2021-07-02 16:31:28</time>
      </trkpt>
      <trkpt lat="29.19507" lon="-13.42222">
        <ele>5</ele>
        <time>2021-07-02 16:31:29</time>
      </trkpt>
      <trkpt lat="29.19511" lon="-13.42222">
        <ele>5</ele>
        <time>2021-07-02 16:31:30</time>
      </trkpt>
      <trkpt lat="29.19515" lon="-13.42222">
        <ele>5.2</ele>
        <time>2021-07-02 16:31:31</time>
      </trkpt>
      <trkpt lat="29.19519" lon="-13.42222">
        <ele>5.2</ele>
        <time>2021-07-02 16:31:32</time>
      </trkpt>
      <trkpt lat="29.19522" lon="-13.42221">
        <ele>5.2</ele>
        <time>2021-07-02 16:31:33</time>
      </trkpt>
      <trkpt lat="29.19526" lon="-13.42221">
        <ele>5.6</ele>
        <time>2021-07-02 16:31:34</time>
      </trkpt>
      <trkpt lat="29.1953" lon="-13.42221">
        <ele>5.6</ele>
        <time>2021-07-02 16:31:35</time>
      </trkpt>
      <trkpt lat="29.19534" lon="-13.42221">
        <ele>5.6</ele>
        <time>2021-07-02 16:31:36</time>
      </trkpt>
      <trkpt lat="29.19538" lon="-13.42221">
        <ele>5.8</ele>
        <time>2021-07-02 16:31:37</time>
      </trkpt>
      <trkpt lat="29.19542" lon="-13.42221">
        <ele>5.8</ele>
        <time>2021-07-02 16:31:38</time>
      </trkpt>
      <trkpt lat="29.19546" lon="-13.42221">
        <ele>5.8</ele>
        <time>2021-07-02 16:31:39</time>
      </trkpt>
      <trkpt lat="29.19549" lon="-13.42221">
        <ele>5.8</ele>
        <time>2021-07-02 16:31:40</time>
      </trkpt>
      <trkpt lat="29.19552" lon="-13.42221">
        <ele>5.8</ele>
        <time>2021-07-02 16:31:41</time>
      </trkpt>
      <trkpt lat="29.19554" lon="-13.42221">
        <ele>5.8</ele>
        <time>2021-07-02 16:31:42</time>
      </trkpt>
      <trkpt lat="29.19554" lon="-13.42221">
        <ele>5.8</ele>
        <time>2021-07-02 16:31:43</time>
      </trkpt>
      <trkpt lat="29.19554" lon="-13.42221">
        <ele>5.8</ele>
        <time>2021-07-02 16:31:44</time>
      </trkpt>
      <trkpt lat="29.19555" lon="-13.42221">
        <ele>5.8</ele>
        <time>2021-07-02 16:31:45</time>
      </trkpt>
      <trkpt lat="29.19556" lon="-13.42221">
        <ele>4</ele>
        <time>2021-07-02 16:31:46</time>
      </trkpt>
      <trkpt lat="29.19556" lon="-13.4222">
        <ele>4</ele>
        <time>2021-07-02 16:31:47</time>
      </trkpt>
      <trkpt lat="29.19556" lon="-13.42221">
        <ele>4</ele>
        <time>2021-07-02 16:31:48</time>
      </trkpt>
      <trkpt lat="29.19558" lon="-13.4222">
        <ele>3.8</ele>
        <time>2021-07-02 16:31:49</time>
      </trkpt>
      <trkpt lat="29.19559" lon="-13.4222">
        <ele>3.8</ele>
        <time>2021-07-02 16:31:50</time>
      </trkpt>
      <trkpt lat="29.19561" lon="-13.4222">
        <ele>4</ele>
        <time>2021-07-02 16:31:51</time>
      </trkpt>
      <trkpt lat="29.19563" lon="-13.42221">
        <ele>4.2</ele>
        <time>2021-07-02 16:31:52</time>
      </trkpt>
      <trkpt lat="29.19565" lon="-13.42223">
        <ele>4.6</ele>
        <time>2021-07-02 16:31:53</time>
      </trkpt>
      <trkpt lat="29.19568" lon="-13.42223">
        <ele>4.6</ele>
        <time>2021-07-02 16:31:54</time>
      </trkpt>
      <trkpt lat="29.19572" lon="-13.42223">
        <ele>4.8</ele>
        <time>2021-07-02 16:31:55</time>
      </trkpt>
      <trkpt lat="29.19575" lon="-13.42223">
        <ele>4.8</ele>
        <time>2021-07-02 16:31:56</time>
      </trkpt>
      <trkpt lat="29.19579" lon="-13.42223">
        <ele>5.2</ele>
        <time>2021-07-02 16:31:57</time>
      </trkpt>
      <trkpt lat="29.19582" lon="-13.42222">
        <ele>5.4</ele>
        <time>2021-07-02 16:31:58</time>
      </trkpt>
      <trkpt lat="29.19585" lon="-13.42222">
        <ele>5.6</ele>
        <time>2021-07-02 16:31:59</time>
      </trkpt>
      <trkpt lat="29.19589" lon="-13.42222">
        <ele>5.8</ele>
        <time>2021-07-02 16:32:00</time>
      </trkpt>
      <trkpt lat="29.19592" lon="-13.42221">
        <ele>6</ele>
        <time>2021-07-02 16:32:01</time>
      </trkpt>
      <trkpt lat="29.19595" lon="-13.42221">
        <ele>6</ele>
        <time>2021-07-02 16:32:02</time>
      </trkpt>
      <trkpt lat="29.19598" lon="-13.42221">
        <ele>6.4</ele>
        <time>2021-07-02 16:32:03</time>
      </trkpt>
      <trkpt lat="29.19602" lon="-13.42221">
        <ele>6.4</ele>
        <time>2021-07-02 16:32:04</time>
      </trkpt>
      <trkpt lat="29.19606" lon="-13.42221">
        <ele>6.6</ele>
        <time>2021-07-02 16:32:05</time>
      </trkpt>
      <trkpt lat="29.19609" lon="-13.42221">
        <ele>6.6</ele>
        <time>2021-07-02 16:32:06</time>
      </trkpt>
      <trkpt lat="29.19613" lon="-13.4222">
        <ele>7</ele>
        <time>2021-07-02 16:32:07</time>
      </trkpt>
      <trkpt lat="29.19617" lon="-13.4222">
        <ele>7</ele>
        <time>2021-07-02 16:32:08</time>
      </trkpt>
      <trkpt lat="29.19621" lon="-13.4222">
        <ele>7.2</ele>
        <time>2021-07-02 16:32:09</time>
      </trkpt>
      <trkpt lat="29.19624" lon="-13.4222">
        <ele>7.2</ele>
        <time>2021-07-02 16:32:10</time>
      </trkpt>
      <trkpt lat="29.19628" lon="-13.4222">
        <ele>7.2</ele>
        <time>2021-07-02 16:32:11</time>
      </trkpt>
      <trkpt lat="29.19632" lon="-13.42219">
        <ele>7.4</ele>
        <time>2021-07-02 16:32:12</time>
      </trkpt>
      <trkpt lat="29.19636" lon="-13.42219">
        <ele>7.4</ele>
        <time>2021-07-02 16:32:13</time>
      </trkpt>
      <trkpt lat="29.1964" lon="-13.42219">
        <ele>7.4</ele>
        <time>2021-07-02 16:32:14</time>
      </trkpt>
      <trkpt lat="29.19644" lon="-13.42219">
        <ele>7.8</ele>
        <time>2021-07-02 16:32:15</time>
      </trkpt>
      <trkpt lat="29.19648" lon="-13.42219">
        <ele>7.8</ele>
        <time>2021-07-02 16:32:16</time>
      </trkpt>
      <trkpt lat="29.19652" lon="-13.42218">
        <ele>7.8</ele>
        <time>2021-07-02 16:32:17</time>
      </trkpt>
      <trkpt lat="29.19655" lon="-13.42218">
        <ele>8</ele>
        <time>2021-07-02 16:32:18</time>
      </trkpt>
      <trkpt lat="29.19659" lon="-13.42218">
        <ele>8</ele>
        <time>2021-07-02 16:32:19</time>
      </trkpt>
      <trkpt lat="29.19663" lon="-13.42218">
        <ele>8</ele>
        <time>2021-07-02 16:32:20</time>
      </trkpt>
      <trkpt lat="29.19667" lon="-13.42218">
        <ele>8</ele>
        <time>2021-07-02 16:32:21</time>
      </trkpt>
      <trkpt lat="29.19671" lon="-13.42218">
        <ele>8</ele>
        <time>2021-07-02 16:32:22</time>
      </trkpt>
      <trkpt lat="29.19675" lon="-13.42218">
        <ele>8.2</ele>
        <time>2021-07-02 16:32:23</time>
      </trkpt>
      <trkpt lat="29.19679" lon="-13.42217">
        <ele>8.2</ele>
        <time>2021-07-02 16:32:24</time>
      </trkpt>
      <trkpt lat="29.19683" lon="-13.42217">
        <ele>8.4</ele>
        <time>2021-07-02 16:32:25</time>
      </trkpt>
      <trkpt lat="29.19687" lon="-13.42217">
        <ele>8.4</ele>
        <time>2021-07-02 16:32:26</time>
      </trkpt>
      <trkpt lat="29.1969" lon="-13.42217">
        <ele>8.6</ele>
        <time>2021-07-02 16:32:27</time>
      </trkpt>
      <trkpt lat="29.19694" lon="-13.42217">
        <ele>8.8</ele>
        <time>2021-07-02 16:32:28</time>
      </trkpt>
      <trkpt lat="29.19698" lon="-13.42217">
        <ele>8.8</ele>
        <time>2021-07-02 16:32:29</time>
      </trkpt>
      <trkpt lat="29.19702" lon="-13.42216">
        <ele>9.2</ele>
        <time>2021-07-02 16:32:30</time>
      </trkpt>
      <trkpt lat="29.19706" lon="-13.42216">
        <ele>9.2</ele>
        <time>2021-07-02 16:32:31</time>
      </trkpt>
      <trkpt lat="29.1971" lon="-13.42216">
        <ele>9.2</ele>
        <time>2021-07-02 16:32:32</time>
      </trkpt>
      <trkpt lat="29.19713" lon="-13.42216">
        <ele>9.4</ele>
        <time>2021-07-02 16:32:33</time>
      </trkpt>
      <trkpt lat="29.19717" lon="-13.42216">
        <ele>9.4</ele>
        <time>2021-07-02 16:32:34</time>
      </trkpt>
      <trkpt lat="29.19721" lon="-13.42216">
        <ele>9.4</ele>
        <time>2021-07-02 16:32:35</time>
      </trkpt>
      <trkpt lat="29.19725" lon="-13.42215">
        <ele>9.4</ele>
        <time>2021-07-02 16:32:36</time>
      </trkpt>
      <trkpt lat="29.19729" lon="-13.42215">
        <ele>9.4</ele>
        <time>2021-07-02 16:32:37</time>
      </trkpt>
      <trkpt lat="29.19733" lon="-13.42215">
        <ele>9.4</ele>
        <time>2021-07-02 16:32:38</time>
      </trkpt>
      <trkpt lat="29.19737" lon="-13.42215">
        <ele>9.4</ele>
        <time>2021-07-02 16:32:39</time>
      </trkpt>
      <trkpt lat="29.19741" lon="-13.42215">
        <ele>9.4</ele>
        <time>2021-07-02 16:32:40</time>
      </trkpt>
      <trkpt lat="29.19745" lon="-13.42214">
        <ele>9.4</ele>
        <time>2021-07-02 16:32:41</time>
      </trkpt>
      <trkpt lat="29.19749" lon="-13.42214">
        <ele>9.4</ele>
        <time>2021-07-02 16:32:42</time>
      </trkpt>
      <trkpt lat="29.19753" lon="-13.42214">
        <ele>9.4</ele>
        <time>2021-07-02 16:32:43</time>
      </trkpt>
      <trkpt lat="29.19757" lon="-13.42214">
        <ele>9.4</ele>
        <time>2021-07-02 16:32:44</time>
      </trkpt>
      <trkpt lat="29.19761" lon="-13.42214">
        <ele>9.4</ele>
        <time>2021-07-02 16:32:45</time>
      </trkpt>
      <trkpt lat="29.19766" lon="-13.42214">
        <ele>9.4</ele>
        <time>2021-07-02 16:32:46</time>
      </trkpt>
      <trkpt lat="29.1977" lon="-13.42214">
        <ele>9.6</ele>
        <time>2021-07-02 16:32:47</time>
      </trkpt>
      <trkpt lat="29.19774" lon="-13.42213">
        <ele>9.6</ele>
        <time>2021-07-02 16:32:48</time>
      </trkpt>
      <trkpt lat="29.19778" lon="-13.42213">
        <ele>9.6</ele>
        <time>2021-07-02 16:32:49</time>
      </trkpt>
      <trkpt lat="29.19782" lon="-13.42213">
        <ele>9.6</ele>
        <time>2021-07-02 16:32:50</time>
      </trkpt>
      <trkpt lat="29.19787" lon="-13.42213">
        <ele>9.6</ele>
        <time>2021-07-02 16:32:51</time>
      </trkpt>
      <trkpt lat="29.19791" lon="-13.42213">
        <ele>9.6</ele>
        <time>2021-07-02 16:32:52</time>
      </trkpt>
      <trkpt lat="29.19795" lon="-13.42213">
        <ele>9.6</ele>
        <time>2021-07-02 16:32:53</time>
      </trkpt>
      <trkpt lat="29.19799" lon="-13.42213">
        <ele>9.6</ele>
        <time>2021-07-02 16:32:54</time>
      </trkpt>
      <trkpt lat="29.19803" lon="-13.42212">
        <ele>9.6</ele>
        <time>2021-07-02 16:32:55</time>
      </trkpt>
      <trkpt lat="29.19808" lon="-13.42212">
        <ele>9.4</ele>
        <time>2021-07-02 16:32:56</time>
      </trkpt>
      <trkpt lat="29.19812" lon="-13.42213">
        <ele>9.4</ele>
        <time>2021-07-02 16:32:57</time>
      </trkpt>
      <trkpt lat="29.19816" lon="-13.42213">
        <ele>9.2</ele>
        <time>2021-07-02 16:32:58</time>
      </trkpt>
      <trkpt lat="29.1982" lon="-13.42212">
        <ele>9.2</ele>
        <time>2021-07-02 16:32:59</time>
      </trkpt>
      <trkpt lat="29.19825" lon="-13.42212">
        <ele>9.2</ele>
        <time>2021-07-02 16:33:00</time>
      </trkpt>
      <trkpt lat="29.19829" lon="-13.42212">
        <ele>9.2</ele>
        <time>2021-07-02 16:33:01</time>
      </trkpt>
      <trkpt lat="29.19833" lon="-13.42212">
        <ele>8.8</ele>
        <time>2021-07-02 16:33:11</time>
      </trkpt>
      <trkpt lat="29.19838" lon="-13.42212">
        <ele>8.8</ele>
        <time>2021-07-02 16:33:12</time>
      </trkpt>
      <trkpt lat="29.19843" lon="-13.42212">
        <ele>8.8</ele>
        <time>2021-07-02 16:33:13</time>
      </trkpt>
      <trkpt lat="29.19847" lon="-13.42212">
        <ele>8.8</ele>
        <time>2021-07-02 16:33:42</time>
      </trkpt>
      <trkpt lat="29.19852" lon="-13.42211">
        <ele>8.8</ele>
        <time>2021-07-02 16:33:43</time>
      </trkpt>
      <trkpt lat="29.19857" lon="-13.42211">
        <ele>8.6</ele>
        <time>2021-07-02 16:33:44</time>
      </trkpt>
      <trkpt lat="29.19862" lon="-13.4221">
        <ele>8.6</ele>
        <time>2021-07-02 16:33:45</time>
      </trkpt>
      <trkpt lat="29.19866" lon="-13.4221">
        <ele>8.6</ele>
        <time>2021-07-02 16:33:46</time>
      </trkpt>
      <trkpt lat="29.19871" lon="-13.4221">
        <ele>8.4</ele>
        <time>2021-07-02 16:33:47</time>
      </trkpt>
      <trkpt lat="29.19876" lon="-13.4221">
        <ele>8.4</ele>
        <time>2021-07-02 16:33:48</time>
      </trkpt>
      <trkpt lat="29.1988" lon="-13.42209">
        <ele>8.4</ele>
        <time>2021-07-02 16:33:49</time>
      </trkpt>
      <trkpt lat="29.19885" lon="-13.42209">
        <ele>8.4</ele>
        <time>2021-07-02 16:33:50</time>
      </trkpt>
      <trkpt lat="29.1989" lon="-13.42209">
        <ele>8.4</ele>
        <time>2021-07-02 16:33:51</time>
      </trkpt>
      <trkpt lat="29.19895" lon="-13.42209">
        <ele>8.4</ele>
        <time>2021-07-02 16:33:52</time>
      </trkpt>
      <trkpt lat="29.199" lon="-13.42209">
        <ele>8.4</ele>
        <time>2021-07-02 16:33:53</time>
      </trkpt>
      <trkpt lat="29.19905" lon="-13.42209">
        <ele>8.2</ele>
        <time>2021-07-02 16:33:54</time>
      </trkpt>
      <trkpt lat="29.1991" lon="-13.42209">
        <ele>8.2</ele>
        <time>2021-07-02 16:33:55</time>
      </trkpt>
      <trkpt lat="29.19915" lon="-13.42209">
        <ele>8.2</ele>
        <time>2021-07-02 16:33:56</time>
      </trkpt>
      <trkpt lat="29.1992" lon="-13.42209">
        <ele>8</ele>
        <time>2021-07-02 16:33:57</time>
      </trkpt>
      <trkpt lat="29.19925" lon="-13.42209">
        <ele>8</ele>
        <time>2021-07-02 16:33:58</time>
      </trkpt>
      <trkpt lat="29.1993" lon="-13.42208">
        <ele>7.6</ele>
        <time>2021-07-02 16:33:59</time>
      </trkpt>
      <trkpt lat="29.19936" lon="-13.42208">
        <ele>7.6</ele>
        <time>2021-07-02 16:34:00</time>
      </trkpt>
      <trkpt lat="29.19941" lon="-13.42208">
        <ele>7.4</ele>
        <time>2021-07-02 16:34:01</time>
      </trkpt>
      <trkpt lat="29.19946" lon="-13.42208">
        <ele>7</ele>
        <time>2021-07-02 16:34:02</time>
      </trkpt>
      <trkpt lat="29.19952" lon="-13.42208">
        <ele>6.8</ele>
        <time>2021-07-02 16:34:03</time>
      </trkpt>
      <trkpt lat="29.19957" lon="-13.42208">
        <ele>6.6</ele>
        <time>2021-07-02 16:34:04</time>
      </trkpt>
      <trkpt lat="29.19963" lon="-13.42208">
        <ele>6.6</ele>
        <time>2021-07-02 16:34:05</time>
      </trkpt>
      <trkpt lat="29.19968" lon="-13.42207">
        <ele>6.4</ele>
        <time>2021-07-02 16:34:06</time>
      </trkpt>
      <trkpt lat="29.19974" lon="-13.42207">
        <ele>6.4</ele>
        <time>2021-07-02 16:34:07</time>
      </trkpt>
      <trkpt lat="29.1998" lon="-13.42207">
        <ele>6.4</ele>
        <time>2021-07-02 16:34:08</time>
      </trkpt>
      <trkpt lat="29.19985" lon="-13.42206">
        <ele>6</ele>
        <time>2021-07-02 16:34:09</time>
      </trkpt>
      <trkpt lat="29.19991" lon="-13.42206">
        <ele>6</ele>
        <time>2021-07-02 16:34:10</time>
      </trkpt>
      <trkpt lat="29.19997" lon="-13.42206">
        <ele>5.8</ele>
        <time>2021-07-02 16:34:11</time>
      </trkpt>
      <trkpt lat="29.20002" lon="-13.42205">
        <ele>5.8</ele>
        <time>2021-07-02 16:34:12</time>
      </trkpt>
      <trkpt lat="29.20008" lon="-13.42205">
        <ele>5.4</ele>
        <time>2021-07-02 16:34:13</time>
      </trkpt>
      <trkpt lat="29.20013" lon="-13.42205">
        <ele>5.2</ele>
        <time>2021-07-02 16:34:14</time>
      </trkpt>
      <trkpt lat="29.20019" lon="-13.42205">
        <ele>5.2</ele>
        <time>2021-07-02 16:34:15</time>
      </trkpt>
      <trkpt lat="29.20025" lon="-13.42205">
        <ele>5.2</ele>
        <time>2021-07-02 16:34:16</time>
      </trkpt>
      <trkpt lat="29.2003" lon="-13.42204">
        <ele>4.8</ele>
        <time>2021-07-02 16:34:17</time>
      </trkpt>
      <trkpt lat="29.20036" lon="-13.42204">
        <ele>4.8</ele>
        <time>2021-07-02 16:34:18</time>
      </trkpt>
      <trkpt lat="29.20042" lon="-13.42203">
        <ele>4.6</ele>
        <time>2021-07-02 16:34:19</time>
      </trkpt>
      <trkpt lat="29.20047" lon="-13.42203">
        <ele>4.6</ele>
        <time>2021-07-02 16:34:20</time>
      </trkpt>
      <trkpt lat="29.20052" lon="-13.42203">
        <ele>4.6</ele>
        <time>2021-07-02 16:34:21</time>
      </trkpt>
      <trkpt lat="29.20058" lon="-13.42203">
        <ele>4.6</ele>
        <time>2021-07-02 16:34:22</time>
      </trkpt>
      <trkpt lat="29.20063" lon="-13.42203">
        <ele>4.6</ele>
        <time>2021-07-02 16:34:23</time>
      </trkpt>
      <trkpt lat="29.20068" lon="-13.42203">
        <ele>4.6</ele>
        <time>2021-07-02 16:34:24</time>
      </trkpt>
      <trkpt lat="29.20073" lon="-13.42203">
        <ele>4.6</ele>
        <time>2021-07-02 16:34:25</time>
      </trkpt>
      <trkpt lat="29.20078" lon="-13.42202">
        <ele>4.6</ele>
        <time>2021-07-02 16:34:26</time>
      </trkpt>
      <trkpt lat="29.20083" lon="-13.42202">
        <ele>4.6</ele>
        <time>2021-07-02 16:34:27</time>
      </trkpt>
      <trkpt lat="29.20088" lon="-13.42202">
        <ele>4.6</ele>
        <time>2021-07-02 16:34:28</time>
      </trkpt>
      <trkpt lat="29.20093" lon="-13.42202">
        <ele>4.6</ele>
        <time>2021-07-02 16:34:29</time>
      </trkpt>
      <trkpt lat="29.20097" lon="-13.42201">
        <ele>4.6</ele>
        <time>2021-07-02 16:34:30</time>
      </trkpt>
      <trkpt lat="29.20102" lon="-13.42201">
        <ele>4.6</ele>
        <time>2021-07-02 16:34:31</time>
      </trkpt>
      <trkpt lat="29.20107" lon="-13.42201">
        <ele>4.6</ele>
        <time>2021-07-02 16:34:32</time>
      </trkpt>
      <trkpt lat="29.20112" lon="-13.42201">
        <ele>4.6</ele>
        <time>2021-07-02 16:34:33</time>
      </trkpt>
      <trkpt lat="29.20117" lon="-13.42201">
        <ele>4.6</ele>
        <time>2021-07-02 16:34:34</time>
      </trkpt>
      <trkpt lat="29.20122" lon="-13.42201">
        <ele>4.6</ele>
        <time>2021-07-02 16:34:35</time>
      </trkpt>
      <trkpt lat="29.20126" lon="-13.42201">
        <ele>4.4</ele>
        <time>2021-07-02 16:34:36</time>
      </trkpt>
      <trkpt lat="29.20132" lon="-13.42202">
        <ele>4.4</ele>
        <time>2021-07-02 16:34:37</time>
      </trkpt>
      <trkpt lat="29.20137" lon="-13.42202">
        <ele>4.2</ele>
        <time>2021-07-02 16:34:38</time>
      </trkpt>
      <trkpt lat="29.20142" lon="-13.42202">
        <ele>4.2</ele>
        <time>2021-07-02 16:34:39</time>
      </trkpt>
      <trkpt lat="29.20147" lon="-13.42203">
        <ele>4</ele>
        <time>2021-07-02 16:34:40</time>
      </trkpt>
      <trkpt lat="29.20152" lon="-13.42203">
        <ele>4</ele>
        <time>2021-07-02 16:34:41</time>
      </trkpt>
      <trkpt lat="29.20158" lon="-13.42203">
        <ele>3.6</ele>
        <time>2021-07-02 16:34:42</time>
      </trkpt>
      <trkpt lat="29.20163" lon="-13.42203">
        <ele>3.6</ele>
        <time>2021-07-02 16:34:43</time>
      </trkpt>
      <trkpt lat="29.20167" lon="-13.42205">
        <ele>3.4</ele>
        <time>2021-07-02 16:34:44</time>
      </trkpt>
      <trkpt lat="29.20173" lon="-13.42205">
        <ele>3.4</ele>
        <time>2021-07-02 16:34:45</time>
      </trkpt>
      <trkpt lat="29.20177" lon="-13.42206">
        <ele>3.4</ele>
        <time>2021-07-02 16:34:46</time>
      </trkpt>
      <trkpt lat="29.20182" lon="-13.42207">
        <ele>3.2</ele>
        <time>2021-07-02 16:34:47</time>
      </trkpt>
      <trkpt lat="29.20188" lon="-13.42209">
        <ele>3.2</ele>
        <time>2021-07-02 16:34:48</time>
      </trkpt>
      <trkpt lat="29.20193" lon="-13.42211">
        <ele>3.2</ele>
        <time>2021-07-02 16:34:49</time>
      </trkpt>
      <trkpt lat="29.20198" lon="-13.42212">
        <ele>3.2</ele>
        <time>2021-07-02 16:34:50</time>
      </trkpt>
      <trkpt lat="29.20203" lon="-13.42215">
        <ele>3</ele>
        <time>2021-07-02 16:34:51</time>
      </trkpt>
      <trkpt lat="29.20208" lon="-13.42217">
        <ele>3</ele>
        <time>2021-07-02 16:34:52</time>
      </trkpt>
      <trkpt lat="29.20213" lon="-13.42219">
        <ele>3</ele>
        <time>2021-07-02 16:34:53</time>
      </trkpt>
      <trkpt lat="29.20217" lon="-13.42221">
        <ele>2.6</ele>
        <time>2021-07-02 16:34:54</time>
      </trkpt>
      <trkpt lat="29.20222" lon="-13.42223">
        <ele>2.6</ele>
        <time>2021-07-02 16:34:55</time>
      </trkpt>
      <trkpt lat="29.20227" lon="-13.42226">
        <ele>2.6</ele>
        <time>2021-07-02 16:34:56</time>
      </trkpt>
      <trkpt lat="29.20232" lon="-13.42228">
        <ele>2.6</ele>
        <time>2021-07-02 16:34:57</time>
      </trkpt>
      <trkpt lat="29.20236" lon="-13.42231">
        <ele>2.6</ele>
        <time>2021-07-02 16:34:58</time>
      </trkpt>
      <trkpt lat="29.20241" lon="-13.42233">
        <ele>2.6</ele>
        <time>2021-07-02 16:34:59</time>
      </trkpt>
      <trkpt lat="29.20245" lon="-13.42236">
        <ele>2.6</ele>
        <time>2021-07-02 16:35:00</time>
      </trkpt>
      <trkpt lat="29.20249" lon="-13.42239">
        <ele>2.6</ele>
        <time>2021-07-02 16:35:01</time>
      </trkpt>
      <trkpt lat="29.20253" lon="-13.42241">
        <ele>2.6</ele>
        <time>2021-07-02 16:35:02</time>
      </trkpt>
      <trkpt lat="29.20256" lon="-13.42244">
        <ele>2.6</ele>
        <time>2021-07-02 16:35:03</time>
      </trkpt>
      <trkpt lat="29.20261" lon="-13.42246">
        <ele>2.4</ele>
        <time>2021-07-02 16:35:04</time>
      </trkpt>
      <trkpt lat="29.20264" lon="-13.42249">
        <ele>2.4</ele>
        <time>2021-07-02 16:35:05</time>
      </trkpt>
      <trkpt lat="29.20267" lon="-13.42252">
        <ele>2.4</ele>
        <time>2021-07-02 16:35:06</time>
      </trkpt>
      <trkpt lat="29.20271" lon="-13.42255">
        <ele>2.4</ele>
        <time>2021-07-02 16:35:07</time>
      </trkpt>
      <trkpt lat="29.20275" lon="-13.42258">
        <ele>2.4</ele>
        <time>2021-07-02 16:35:08</time>
      </trkpt>
      <trkpt lat="29.20278" lon="-13.42261">
        <ele>2.4</ele>
        <time>2021-07-02 16:35:09</time>
      </trkpt>
      <trkpt lat="29.20282" lon="-13.42264">
        <ele>2.4</ele>
        <time>2021-07-02 16:35:10</time>
      </trkpt>
      <trkpt lat="29.20285" lon="-13.42268">
        <ele>2.4</ele>
        <time>2021-07-02 16:35:11</time>
      </trkpt>
      <trkpt lat="29.20289" lon="-13.42271">
        <ele>2.4</ele>
        <time>2021-07-02 16:35:12</time>
      </trkpt>
      <trkpt lat="29.20292" lon="-13.42274">
        <ele>2.8</ele>
        <time>2021-07-02 16:35:13</time>
      </trkpt>
      <trkpt lat="29.20296" lon="-13.42277">
        <ele>2.8</ele>
        <time>2021-07-02 16:35:14</time>
      </trkpt>
      <trkpt lat="29.20299" lon="-13.4228">
        <ele>3</ele>
        <time>2021-07-02 16:35:15</time>
      </trkpt>
      <trkpt lat="29.20302" lon="-13.42283">
        <ele>3</ele>
        <time>2021-07-02 16:35:16</time>
      </trkpt>
      <trkpt lat="29.20305" lon="-13.42287">
        <ele>3</ele>
        <time>2021-07-02 16:35:17</time>
      </trkpt>
      <trkpt lat="29.20309" lon="-13.4229">
        <ele>3.2</ele>
        <time>2021-07-02 16:35:18</time>
      </trkpt>
      <trkpt lat="29.20312" lon="-13.42294">
        <ele>3.2</ele>
        <time>2021-07-02 16:35:19</time>
      </trkpt>
      <trkpt lat="29.20314" lon="-13.42297">
        <ele>3.6</ele>
        <time>2021-07-02 16:35:20</time>
      </trkpt>
      <trkpt lat="29.20317" lon="-13.42301">
        <ele>3.6</ele>
        <time>2021-07-02 16:35:21</time>
      </trkpt>
      <trkpt lat="29.20321" lon="-13.42304">
        <ele>3.8</ele>
        <time>2021-07-02 16:35:22</time>
      </trkpt>
      <trkpt lat="29.20323" lon="-13.42307">
        <ele>4</ele>
        <time>2021-07-02 16:35:23</time>
      </trkpt>
      <trkpt lat="29.20326" lon="-13.42311">
        <ele>4</ele>
        <time>2021-07-02 16:35:24</time>
      </trkpt>
      <trkpt lat="29.20329" lon="-13.42315">
        <ele>4.4</ele>
        <time>2021-07-02 16:35:25</time>
      </trkpt>
      <trkpt lat="29.20331" lon="-13.42319">
        <ele>4.4</ele>
        <time>2021-07-02 16:35:26</time>
      </trkpt>
      <trkpt lat="29.20334" lon="-13.42322">
        <ele>4.8</ele>
        <time>2021-07-02 16:35:27</time>
      </trkpt>
      <trkpt lat="29.20337" lon="-13.42326">
        <ele>4.8</ele>
        <time>2021-07-02 16:35:28</time>
      </trkpt>
      <trkpt lat="29.20339" lon="-13.4233">
        <ele>5</ele>
        <time>2021-07-02 16:35:29</time>
      </trkpt>
      <trkpt lat="29.20342" lon="-13.42333">
        <ele>5</ele>
        <time>2021-07-02 16:35:30</time>
      </trkpt>
      <trkpt lat="29.20344" lon="-13.42337">
        <ele>5.4</ele>
        <time>2021-07-02 16:35:31</time>
      </trkpt>
      <trkpt lat="29.20346" lon="-13.42341">
        <ele>5.4</ele>
        <time>2021-07-02 16:35:32</time>
      </trkpt>
      <trkpt lat="29.20348" lon="-13.42345">
        <ele>5.6</ele>
        <time>2021-07-02 16:35:33</time>
      </trkpt>
      <trkpt lat="29.20351" lon="-13.42349">
        <ele>5.6</ele>
        <time>2021-07-02 16:35:34</time>
      </trkpt>
      <trkpt lat="29.20353" lon="-13.42352">
        <ele>5.6</ele>
        <time>2021-07-02 16:35:35</time>
      </trkpt>
      <trkpt lat="29.20355" lon="-13.42356">
        <ele>6</ele>
        <time>2021-07-02 16:35:36</time>
      </trkpt>
      <trkpt lat="29.20357" lon="-13.42361">
        <ele>6</ele>
        <time>2021-07-02 16:35:37</time>
      </trkpt>
      <trkpt lat="29.20359" lon="-13.42365">
        <ele>6</ele>
        <time>2021-07-02 16:35:38</time>
      </trkpt>
      <trkpt lat="29.20361" lon="-13.42369">
        <ele>6</ele>
        <time>2021-07-02 16:35:39</time>
      </trkpt>
      <trkpt lat="29.20363" lon="-13.42373">
        <ele>6</ele>
        <time>2021-07-02 16:35:40</time>
      </trkpt>
      <trkpt lat="29.20365" lon="-13.42378">
        <ele>6.2</ele>
        <time>2021-07-02 16:35:41</time>
      </trkpt>
      <trkpt lat="29.20367" lon="-13.42382">
        <ele>6.2</ele>
        <time>2021-07-02 16:35:42</time>
      </trkpt>
      <trkpt lat="29.20369" lon="-13.42386">
        <ele>6.2</ele>
        <time>2021-07-02 16:35:43</time>
      </trkpt>
      <trkpt lat="29.20372" lon="-13.42391">
        <ele>6.2</ele>
        <time>2021-07-02 16:35:44</time>
      </trkpt>
      <trkpt lat="29.20374" lon="-13.42395">
        <ele>6.2</ele>
        <time>2021-07-02 16:35:45</time>
      </trkpt>
      <trkpt lat="29.20376" lon="-13.42399">
        <ele>6.2</ele>
        <time>2021-07-02 16:35:46</time>
      </trkpt>
      <trkpt lat="29.20378" lon="-13.42404">
        <ele>6.4</ele>
        <time>2021-07-02 16:35:47</time>
      </trkpt>
      <trkpt lat="29.2038" lon="-13.42408">
        <ele>6.4</ele>
        <time>2021-07-02 16:35:48</time>
      </trkpt>
      <trkpt lat="29.20383" lon="-13.42413">
        <ele>6.4</ele>
        <time>2021-07-02 16:35:49</time>
      </trkpt>
      <trkpt lat="29.20385" lon="-13.42417">
        <ele>6.4</ele>
        <time>2021-07-02 16:35:50</time>
      </trkpt>
      <trkpt lat="29.20387" lon="-13.42422">
        <ele>6.4</ele>
        <time>2021-07-02 16:35:51</time>
      </trkpt>
      <trkpt lat="29.2039" lon="-13.42427">
        <ele>6.4</ele>
        <time>2021-07-02 16:35:52</time>
      </trkpt>
      <trkpt lat="29.20392" lon="-13.42432">
        <ele>6.4</ele>
        <time>2021-07-02 16:35:53</time>
      </trkpt>
      <trkpt lat="29.20395" lon="-13.42437">
        <ele>6.4</ele>
        <time>2021-07-02 16:35:54</time>
      </trkpt>
      <trkpt lat="29.20397" lon="-13.42442">
        <ele>6</ele>
        <time>2021-07-02 16:35:55</time>
      </trkpt>
      <trkpt lat="29.204" lon="-13.42447">
        <ele>6</ele>
        <time>2021-07-02 16:35:56</time>
      </trkpt>
      <trkpt lat="29.20402" lon="-13.42452">
        <ele>6</ele>
        <time>2021-07-02 16:35:57</time>
      </trkpt>
      <trkpt lat="29.20404" lon="-13.42457">
        <ele>5.8</ele>
        <time>2021-07-02 16:35:58</time>
      </trkpt>
      <trkpt lat="29.20407" lon="-13.42462">
        <ele>5.8</ele>
        <time>2021-07-02 16:35:59</time>
      </trkpt>
      <trkpt lat="29.20409" lon="-13.42467">
        <ele>5.6</ele>
        <time>2021-07-02 16:36:00</time>
      </trkpt>
      <trkpt lat="29.20412" lon="-13.42472">
        <ele>5.6</ele>
        <time>2021-07-02 16:36:01</time>
      </trkpt>
      <trkpt lat="29.20414" lon="-13.42477">
        <ele>5.4</ele>
        <time>2021-07-02 16:36:02</time>
      </trkpt>
      <trkpt lat="29.20417" lon="-13.42482">
        <ele>5.4</ele>
        <time>2021-07-02 16:36:03</time>
      </trkpt>
      <trkpt lat="29.20419" lon="-13.42488">
        <ele>5.2</ele>
        <time>2021-07-02 16:36:04</time>
      </trkpt>
      <trkpt lat="29.20421" lon="-13.42492">
        <ele>5.2</ele>
        <time>2021-07-02 16:36:05</time>
      </trkpt>
      <trkpt lat="29.20424" lon="-13.42497">
        <ele>5.2</ele>
        <time>2021-07-02 16:36:06</time>
      </trkpt>
      <trkpt lat="29.20426" lon="-13.42502">
        <ele>5.2</ele>
        <time>2021-07-02 16:36:07</time>
      </trkpt>
      <trkpt lat="29.20428" lon="-13.42506">
        <ele>5.2</ele>
        <time>2021-07-02 16:36:08</time>
      </trkpt>
      <trkpt lat="29.20431" lon="-13.42511">
        <ele>5.2</ele>
        <time>2021-07-02 16:36:09</time>
      </trkpt>
      <trkpt lat="29.20433" lon="-13.42515">
        <ele>5.2</ele>
        <time>2021-07-02 16:36:10</time>
      </trkpt>
      <trkpt lat="29.20436" lon="-13.4252">
        <ele>5.2</ele>
        <time>2021-07-02 16:36:11</time>
      </trkpt>
      <trkpt lat="29.20438" lon="-13.42524">
        <ele>5.2</ele>
        <time>2021-07-02 16:36:12</time>
      </trkpt>
      <trkpt lat="29.2044" lon="-13.42528">
        <ele>5.2</ele>
        <time>2021-07-02 16:36:13</time>
      </trkpt>
      <trkpt lat="29.20442" lon="-13.42533">
        <ele>5.2</ele>
        <time>2021-07-02 16:36:14</time>
      </trkpt>
      <trkpt lat="29.20444" lon="-13.42537">
        <ele>5.4</ele>
        <time>2021-07-02 16:36:15</time>
      </trkpt>
      <trkpt lat="29.20446" lon="-13.42541">
        <ele>5.4</ele>
        <time>2021-07-02 16:36:16</time>
      </trkpt>
      <trkpt lat="29.20449" lon="-13.42545">
        <ele>5.6</ele>
        <time>2021-07-02 16:36:17</time>
      </trkpt>
      <trkpt lat="29.2045" lon="-13.4255">
        <ele>5.6</ele>
        <time>2021-07-02 16:36:18</time>
      </trkpt>
      <trkpt lat="29.20452" lon="-13.42554">
        <ele>6</ele>
        <time>2021-07-02 16:36:19</time>
      </trkpt>
      <trkpt lat="29.20455" lon="-13.42558">
        <ele>6.2</ele>
        <time>2021-07-02 16:36:20</time>
      </trkpt>
      <trkpt lat="29.20457" lon="-13.42562">
        <ele>6.2</ele>
        <time>2021-07-02 16:36:21</time>
      </trkpt>
      <trkpt lat="29.20458" lon="-13.42566">
        <ele>6.6</ele>
        <time>2021-07-02 16:36:22</time>
      </trkpt>
      <trkpt lat="29.20461" lon="-13.42571">
        <ele>6.6</ele>
        <time>2021-07-02 16:36:23</time>
      </trkpt>
      <trkpt lat="29.20463" lon="-13.42575">
        <ele>6.8</ele>
        <time>2021-07-02 16:36:24</time>
      </trkpt>
      <trkpt lat="29.20465" lon="-13.42579">
        <ele>6.8</ele>
        <time>2021-07-02 16:36:25</time>
      </trkpt>
      <trkpt lat="29.20467" lon="-13.42583">
        <ele>6.8</ele>
        <time>2021-07-02 16:36:26</time>
      </trkpt>
      <trkpt lat="29.20469" lon="-13.42587">
        <ele>6.8</ele>
        <time>2021-07-02 16:36:27</time>
      </trkpt>
      <trkpt lat="29.20471" lon="-13.42591">
        <ele>7.2</ele>
        <time>2021-07-02 16:36:28</time>
      </trkpt>
      <trkpt lat="29.20473" lon="-13.42595">
        <ele>7.2</ele>
        <time>2021-07-02 16:36:29</time>
      </trkpt>
      <trkpt lat="29.20475" lon="-13.42599">
        <ele>7.2</ele>
        <time>2021-07-02 16:36:30</time>
      </trkpt>
      <trkpt lat="29.20477" lon="-13.42603">
        <ele>7.4</ele>
        <time>2021-07-02 16:36:31</time>
      </trkpt>
      <trkpt lat="29.20479" lon="-13.42607">
        <ele>7.4</ele>
        <time>2021-07-02 16:36:32</time>
      </trkpt>
      <trkpt lat="29.20481" lon="-13.42611">
        <ele>7.6</ele>
        <time>2021-07-02 16:36:33</time>
      </trkpt>
      <trkpt lat="29.20482" lon="-13.42614">
        <ele>7.6</ele>
        <time>2021-07-02 16:36:34</time>
      </trkpt>
      <trkpt lat="29.20484" lon="-13.42618">
        <ele>8</ele>
        <time>2021-07-02 16:36:35</time>
      </trkpt>
      <trkpt lat="29.20486" lon="-13.42622">
        <ele>8</ele>
        <time>2021-07-02 16:36:36</time>
      </trkpt>
      <trkpt lat="29.20488" lon="-13.42626">
        <ele>8.2</ele>
        <time>2021-07-02 16:36:37</time>
      </trkpt>
      <trkpt lat="29.2049" lon="-13.4263">
        <ele>8.2</ele>
        <time>2021-07-02 16:36:38</time>
      </trkpt>
      <trkpt lat="29.20492" lon="-13.42634">
        <ele>8.4</ele>
        <time>2021-07-02 16:36:39</time>
      </trkpt>
      <trkpt lat="29.20494" lon="-13.42638">
        <ele>8.4</ele>
        <time>2021-07-02 16:36:40</time>
      </trkpt>
      <trkpt lat="29.20496" lon="-13.42642">
        <ele>8.8</ele>
        <time>2021-07-02 16:36:41</time>
      </trkpt>
      <trkpt lat="29.20498" lon="-13.42645">
        <ele>9</ele>
        <time>2021-07-02 16:36:42</time>
      </trkpt>
      <trkpt lat="29.205" lon="-13.42649">
        <ele>9</ele>
        <time>2021-07-02 16:36:43</time>
      </trkpt>
      <trkpt lat="29.20502" lon="-13.42653">
        <ele>9.4</ele>
        <time>2021-07-02 16:36:44</time>
      </trkpt>
      <trkpt lat="29.20504" lon="-13.42657">
        <ele>9.4</ele>
        <time>2021-07-02 16:36:45</time>
      </trkpt>
      <trkpt lat="29.20506" lon="-13.42661">
        <ele>9.6</ele>
        <time>2021-07-02 16:36:46</time>
      </trkpt>
      <trkpt lat="29.20507" lon="-13.42665">
        <ele>9.6</ele>
        <time>2021-07-02 16:36:47</time>
      </trkpt>
      <trkpt lat="29.20509" lon="-13.42669">
        <ele>10</ele>
        <time>2021-07-02 16:36:48</time>
      </trkpt>
      <trkpt lat="29.20511" lon="-13.42673">
        <ele>10.2</ele>
        <time>2021-07-02 16:36:49</time>
      </trkpt>
      <trkpt lat="29.20513" lon="-13.42676">
        <ele>10.4</ele>
        <time>2021-07-02 16:36:50</time>
      </trkpt>
      <trkpt lat="29.20515" lon="-13.42679">
        <ele>10.8</ele>
        <time>2021-07-02 16:36:51</time>
      </trkpt>
      <trkpt lat="29.20517" lon="-13.42683">
        <ele>11</ele>
        <time>2021-07-02 16:36:52</time>
      </trkpt>
      <trkpt lat="29.20519" lon="-13.42687">
        <ele>11.2</ele>
        <time>2021-07-02 16:36:53</time>
      </trkpt>
      <trkpt lat="29.20521" lon="-13.4269">
        <ele>11.2</ele>
        <time>2021-07-02 16:36:54</time>
      </trkpt>
      <trkpt lat="29.20523" lon="-13.42694">
        <ele>11.6</ele>
        <time>2021-07-02 16:36:55</time>
      </trkpt>
      <trkpt lat="29.20525" lon="-13.42697">
        <ele>11.6</ele>
        <time>2021-07-02 16:36:56</time>
      </trkpt>
      <trkpt lat="29.20527" lon="-13.427">
        <ele>12</ele>
        <time>2021-07-02 16:36:57</time>
      </trkpt>
      <trkpt lat="29.20529" lon="-13.42704">
        <ele>12</ele>
        <time>2021-07-02 16:36:58</time>
      </trkpt>
      <trkpt lat="29.20531" lon="-13.42707">
        <ele>12.2</ele>
        <time>2021-07-02 16:36:59</time>
      </trkpt>
      <trkpt lat="29.20533" lon="-13.42711">
        <ele>12.2</ele>
        <time>2021-07-02 16:37:00</time>
      </trkpt>
      <trkpt lat="29.20535" lon="-13.42714">
        <ele>12.2</ele>
        <time>2021-07-02 16:37:01</time>
      </trkpt>
      <trkpt lat="29.20537" lon="-13.42718">
        <ele>12.4</ele>
        <time>2021-07-02 16:37:02</time>
      </trkpt>
      <trkpt lat="29.20539" lon="-13.42722">
        <ele>12.4</ele>
        <time>2021-07-02 16:37:03</time>
      </trkpt>
      <trkpt lat="29.20541" lon="-13.42726">
        <ele>12.4</ele>
        <time>2021-07-02 16:37:04</time>
      </trkpt>
      <trkpt lat="29.20543" lon="-13.4273">
        <ele>12.4</ele>
        <time>2021-07-02 16:37:05</time>
      </trkpt>
      <trkpt lat="29.20545" lon="-13.42734">
        <ele>12.6</ele>
        <time>2021-07-02 16:37:06</time>
      </trkpt>
      <trkpt lat="29.20546" lon="-13.42737">
        <ele>12.6</ele>
        <time>2021-07-02 16:37:07</time>
      </trkpt>
      <trkpt lat="29.20548" lon="-13.42741">
        <ele>12.6</ele>
        <time>2021-07-02 16:37:08</time>
      </trkpt>
      <trkpt lat="29.2055" lon="-13.42745">
        <ele>12.6</ele>
        <time>2021-07-02 16:37:09</time>
      </trkpt>
      <trkpt lat="29.20551" lon="-13.42749">
        <ele>13</ele>
        <time>2021-07-02 16:37:10</time>
      </trkpt>
      <trkpt lat="29.20553" lon="-13.42753">
        <ele>13</ele>
        <time>2021-07-02 16:37:11</time>
      </trkpt>
      <trkpt lat="29.20555" lon="-13.42757">
        <ele>13.2</ele>
        <time>2021-07-02 16:37:12</time>
      </trkpt>
      <trkpt lat="29.20557" lon="-13.42761">
        <ele>13.2</ele>
        <time>2021-07-02 16:37:13</time>
      </trkpt>
      <trkpt lat="29.20559" lon="-13.42765">
        <ele>13.6</ele>
        <time>2021-07-02 16:37:14</time>
      </trkpt>
      <trkpt lat="29.20561" lon="-13.4277">
        <ele>13.8</ele>
        <time>2021-07-02 16:37:15</time>
      </trkpt>
      <trkpt lat="29.20563" lon="-13.42774">
        <ele>13.8</ele>
        <time>2021-07-02 16:37:16</time>
      </trkpt>
      <trkpt lat="29.20566" lon="-13.42778">
        <ele>14</ele>
        <time>2021-07-02 16:37:17</time>
      </trkpt>
      <trkpt lat="29.20568" lon="-13.42782">
        <ele>14</ele>
        <time>2021-07-02 16:37:18</time>
      </trkpt>
      <trkpt lat="29.2057" lon="-13.42786">
        <ele>14.2</ele>
        <time>2021-07-02 16:37:19</time>
      </trkpt>
      <trkpt lat="29.20572" lon="-13.42791">
        <ele>14.2</ele>
        <time>2021-07-02 16:37:20</time>
      </trkpt>
      <trkpt lat="29.20574" lon="-13.42795">
        <ele>14.2</ele>
        <time>2021-07-02 16:37:21</time>
      </trkpt>
      <trkpt lat="29.20576" lon="-13.42799">
        <ele>14.4</ele>
        <time>2021-07-02 16:37:22</time>
      </trkpt>
      <trkpt lat="29.20578" lon="-13.42803">
        <ele>14.4</ele>
        <time>2021-07-02 16:37:23</time>
      </trkpt>
      <trkpt lat="29.2058" lon="-13.42808">
        <ele>14.8</ele>
        <time>2021-07-02 16:37:24</time>
      </trkpt>
      <trkpt lat="29.20582" lon="-13.42812">
        <ele>14.8</ele>
        <time>2021-07-02 16:37:25</time>
      </trkpt>
      <trkpt lat="29.20584" lon="-13.42816">
        <ele>14.8</ele>
        <time>2021-07-02 16:37:26</time>
      </trkpt>
      <trkpt lat="29.20586" lon="-13.4282">
        <ele>15</ele>
        <time>2021-07-02 16:37:27</time>
      </trkpt>
      <trkpt lat="29.20588" lon="-13.42824">
        <ele>15</ele>
        <time>2021-07-02 16:37:28</time>
      </trkpt>
      <trkpt lat="29.2059" lon="-13.42828">
        <ele>15</ele>
        <time>2021-07-02 16:37:29</time>
      </trkpt>
      <trkpt lat="29.20592" lon="-13.42832">
        <ele>15</ele>
        <time>2021-07-02 16:37:30</time>
      </trkpt>
      <trkpt lat="29.20594" lon="-13.42837">
        <ele>15</ele>
        <time>2021-07-02 16:37:31</time>
      </trkpt>
      <trkpt lat="29.20596" lon="-13.42841">
        <ele>15</ele>
        <time>2021-07-02 16:37:32</time>
      </trkpt>
      <trkpt lat="29.20598" lon="-13.42845">
        <ele>15</ele>
        <time>2021-07-02 16:37:33</time>
      </trkpt>
      <trkpt lat="29.206" lon="-13.4285">
        <ele>15.4</ele>
        <time>2021-07-02 16:37:34</time>
      </trkpt>
      <trkpt lat="29.20602" lon="-13.42855">
        <ele>15.4</ele>
        <time>2021-07-02 16:37:35</time>
      </trkpt>
      <trkpt lat="29.20604" lon="-13.42859">
        <ele>15.4</ele>
        <time>2021-07-02 16:37:36</time>
      </trkpt>
      <trkpt lat="29.20606" lon="-13.42863">
        <ele>15.6</ele>
        <time>2021-07-02 16:37:37</time>
      </trkpt>
      <trkpt lat="29.20608" lon="-13.42867">
        <ele>15.6</ele>
        <time>2021-07-02 16:37:38</time>
      </trkpt>
      <trkpt lat="29.2061" lon="-13.42871">
        <ele>15.8</ele>
        <time>2021-07-02 16:37:39</time>
      </trkpt>
      <trkpt lat="29.20612" lon="-13.42875">
        <ele>15.8</ele>
        <time>2021-07-02 16:37:40</time>
      </trkpt>
      <trkpt lat="29.20613" lon="-13.42879">
        <ele>15.8</ele>
        <time>2021-07-02 16:37:41</time>
      </trkpt>
      <trkpt lat="29.20615" lon="-13.42883">
        <ele>15.8</ele>
        <time>2021-07-02 16:37:42</time>
      </trkpt>
      <trkpt lat="29.20617" lon="-13.42887">
        <ele>15.8</ele>
        <time>2021-07-02 16:37:43</time>
      </trkpt>
      <trkpt lat="29.20619" lon="-13.42891">
        <ele>16</ele>
        <time>2021-07-02 16:37:44</time>
      </trkpt>
      <trkpt lat="29.20621" lon="-13.42895">
        <ele>16</ele>
        <time>2021-07-02 16:37:45</time>
      </trkpt>
      <trkpt lat="29.20623" lon="-13.42899">
        <ele>16</ele>
        <time>2021-07-02 16:37:46</time>
      </trkpt>
      <trkpt lat="29.20626" lon="-13.42903">
        <ele>16.2</ele>
        <time>2021-07-02 16:37:47</time>
      </trkpt>
      <trkpt lat="29.20627" lon="-13.42907">
        <ele>16.2</ele>
        <time>2021-07-02 16:37:48</time>
      </trkpt>
      <trkpt lat="29.20629" lon="-13.42911">
        <ele>16.2</ele>
        <time>2021-07-02 16:37:49</time>
      </trkpt>
      <trkpt lat="29.20631" lon="-13.42916">
        <ele>16.6</ele>
        <time>2021-07-02 16:37:50</time>
      </trkpt>
      <trkpt lat="29.20633" lon="-13.4292">
        <ele>16.6</ele>
        <time>2021-07-02 16:37:51</time>
      </trkpt>
      <trkpt lat="29.20635" lon="-13.42924">
        <ele>16.8</ele>
        <time>2021-07-02 16:37:52</time>
      </trkpt>
      <trkpt lat="29.20637" lon="-13.42928">
        <ele>16.8</ele>
        <time>2021-07-02 16:37:53</time>
      </trkpt>
      <trkpt lat="29.20639" lon="-13.42931">
        <ele>17.2</ele>
        <time>2021-07-02 16:37:54</time>
      </trkpt>
      <trkpt lat="29.20641" lon="-13.42935">
        <ele>17.2</ele>
        <time>2021-07-02 16:37:55</time>
      </trkpt>
      <trkpt lat="29.20644" lon="-13.42939">
        <ele>17.4</ele>
        <time>2021-07-02 16:37:56</time>
      </trkpt>
      <trkpt lat="29.20646" lon="-13.42943">
        <ele>17.6</ele>
        <time>2021-07-02 16:37:57</time>
      </trkpt>
      <trkpt lat="29.20648" lon="-13.42948">
        <ele>17.6</ele>
        <time>2021-07-02 16:37:58</time>
      </trkpt>
      <trkpt lat="29.2065" lon="-13.42952">
        <ele>17.6</ele>
        <time>2021-07-02 16:37:59</time>
      </trkpt>
      <trkpt lat="29.20652" lon="-13.42956">
        <ele>17.6</ele>
        <time>2021-07-02 16:38:00</time>
      </trkpt>
      <trkpt lat="29.20655" lon="-13.42961">
        <ele>17.6</ele>
        <time>2021-07-02 16:38:01</time>
      </trkpt>
      <trkpt lat="29.20657" lon="-13.42965">
        <ele>17.6</ele>
        <time>2021-07-02 16:38:02</time>
      </trkpt>
      <trkpt lat="29.20659" lon="-13.4297">
        <ele>17.4</ele>
        <time>2021-07-02 16:38:03</time>
      </trkpt>
      <trkpt lat="29.20662" lon="-13.42976">
        <ele>17.4</ele>
        <time>2021-07-02 16:38:04</time>
      </trkpt>
      <trkpt lat="29.20665" lon="-13.42981">
        <ele>17.2</ele>
        <time>2021-07-02 16:38:05</time>
      </trkpt>
      <trkpt lat="29.20667" lon="-13.42986">
        <ele>17.2</ele>
        <time>2021-07-02 16:38:06</time>
      </trkpt>
      <trkpt lat="29.2067" lon="-13.42991">
        <ele>16.8</ele>
        <time>2021-07-02 16:38:07</time>
      </trkpt>
      <trkpt lat="29.20672" lon="-13.42996">
        <ele>16.6</ele>
        <time>2021-07-02 16:38:08</time>
      </trkpt>
      <trkpt lat="29.20675" lon="-13.43002">
        <ele>16.6</ele>
        <time>2021-07-02 16:38:09</time>
      </trkpt>
      <trkpt lat="29.20678" lon="-13.43007">
        <ele>16.4</ele>
        <time>2021-07-02 16:38:10</time>
      </trkpt>
      <trkpt lat="29.20681" lon="-13.43012">
        <ele>16.2</ele>
        <time>2021-07-02 16:38:11</time>
      </trkpt>
      <trkpt lat="29.20684" lon="-13.43018">
        <ele>15.8</ele>
        <time>2021-07-02 16:38:12</time>
      </trkpt>
      <trkpt lat="29.20686" lon="-13.43024">
        <ele>15.8</ele>
        <time>2021-07-02 16:38:13</time>
      </trkpt>
      <trkpt lat="29.20689" lon="-13.43029">
        <ele>15.4</ele>
        <time>2021-07-02 16:38:14</time>
      </trkpt>
      <trkpt lat="29.20692" lon="-13.43035">
        <ele>15.2</ele>
        <time>2021-07-02 16:38:15</time>
      </trkpt>
      <trkpt lat="29.20695" lon="-13.4304">
        <ele>14.8</ele>
        <time>2021-07-02 16:38:16</time>
      </trkpt>
      <trkpt lat="29.20698" lon="-13.43046">
        <ele>14.6</ele>
        <time>2021-07-02 16:38:17</time>
      </trkpt>
      <trkpt lat="29.20701" lon="-13.43051">
        <ele>14.2</ele>
        <time>2021-07-02 16:38:18</time>
      </trkpt>
      <trkpt lat="29.20704" lon="-13.43057">
        <ele>14</ele>
        <time>2021-07-02 16:38:19</time>
      </trkpt>
      <trkpt lat="29.20707" lon="-13.43063">
        <ele>14</ele>
        <time>2021-07-02 16:38:20</time>
      </trkpt>
      <trkpt lat="29.20709" lon="-13.43069">
        <ele>13.6</ele>
        <time>2021-07-02 16:38:21</time>
      </trkpt>
      <trkpt lat="29.20712" lon="-13.43075">
        <ele>13.2</ele>
        <time>2021-07-02 16:38:22</time>
      </trkpt>
      <trkpt lat="29.20715" lon="-13.43081">
        <ele>12.8</ele>
        <time>2021-07-02 16:38:23</time>
      </trkpt>
      <trkpt lat="29.20717" lon="-13.43087">
        <ele>12.6</ele>
        <time>2021-07-02 16:38:24</time>
      </trkpt>
      <trkpt lat="29.2072" lon="-13.43092">
        <ele>12.4</ele>
        <time>2021-07-02 16:38:25</time>
      </trkpt>
      <trkpt lat="29.20723" lon="-13.43097">
        <ele>12</ele>
        <time>2021-07-02 16:38:26</time>
      </trkpt>
      <trkpt lat="29.20726" lon="-13.43104">
        <ele>11.8</ele>
        <time>2021-07-02 16:38:27</time>
      </trkpt>
      <trkpt lat="29.20729" lon="-13.43109">
        <ele>11.4</ele>
        <time>2021-07-02 16:38:28</time>
      </trkpt>
      <trkpt lat="29.20732" lon="-13.43115">
        <ele>11</ele>
        <time>2021-07-02 16:38:29</time>
      </trkpt>
      <trkpt lat="29.20734" lon="-13.43121">
        <ele>10.8</ele>
        <time>2021-07-02 16:38:30</time>
      </trkpt>
      <trkpt lat="29.20737" lon="-13.43126">
        <ele>10.8</ele>
        <time>2021-07-02 16:38:31</time>
      </trkpt>
      <trkpt lat="29.2074" lon="-13.43131">
        <ele>10.4</ele>
        <time>2021-07-02 16:38:32</time>
      </trkpt>
      <trkpt lat="29.20743" lon="-13.43137">
        <ele>10.2</ele>
        <time>2021-07-02 16:38:33</time>
      </trkpt>
      <trkpt lat="29.20745" lon="-13.43142">
        <ele>9.8</ele>
        <time>2021-07-02 16:38:34</time>
      </trkpt>
      <trkpt lat="29.20748" lon="-13.43147">
        <ele>9.4</ele>
        <time>2021-07-02 16:38:35</time>
      </trkpt>
      <trkpt lat="29.20751" lon="-13.43151">
        <ele>9.2</ele>
        <time>2021-07-02 16:38:36</time>
      </trkpt>
      <trkpt lat="29.20753" lon="-13.43156">
        <ele>8.8</ele>
        <time>2021-07-02 16:38:37</time>
      </trkpt>
      <trkpt lat="29.20755" lon="-13.43159">
        <ele>8.6</ele>
        <time>2021-07-02 16:38:38</time>
      </trkpt>
      <trkpt lat="29.20757" lon="-13.43162">
        <ele>8.2</ele>
        <time>2021-07-02 16:38:39</time>
      </trkpt>
      <trkpt lat="29.20758" lon="-13.43164">
        <ele>7.8</ele>
        <time>2021-07-02 16:38:40</time>
      </trkpt>
      <trkpt lat="29.20758" lon="-13.43164">
        <ele>7.6</ele>
        <time>2021-07-02 16:38:41</time>
      </trkpt>
      <trkpt lat="29.20758" lon="-13.43164">
        <ele>7.2</ele>
        <time>2021-07-02 16:38:42</time>
      </trkpt>
      <trkpt lat="29.20758" lon="-13.43164">
        <ele>6.8</ele>
        <time>2021-07-02 16:38:43</time>
      </trkpt>
      <trkpt lat="29.20758" lon="-13.43165">
        <ele>4.6</ele>
        <time>2021-07-02 16:38:44</time>
      </trkpt>
      <trkpt lat="29.20759" lon="-13.43168">
        <ele>4.6</ele>
        <time>2021-07-02 16:38:45</time>
      </trkpt>
      <trkpt lat="29.2076" lon="-13.43171">
        <ele>4.6</ele>
        <time>2021-07-02 16:38:46</time>
      </trkpt>
      <trkpt lat="29.20762" lon="-13.43174">
        <ele>4.8</ele>
        <time>2021-07-02 16:38:47</time>
      </trkpt>
      <trkpt lat="29.20764" lon="-13.43178">
        <ele>4.8</ele>
        <time>2021-07-02 16:38:48</time>
      </trkpt>
      <trkpt lat="29.20767" lon="-13.43183">
        <ele>4.8</ele>
        <time>2021-07-02 16:38:49</time>
      </trkpt>
      <trkpt lat="29.2077" lon="-13.43188">
        <ele>4.8</ele>
        <time>2021-07-02 16:38:50</time>
      </trkpt>
      <trkpt lat="29.20772" lon="-13.43194">
        <ele>5</ele>
        <time>2021-07-02 16:38:51</time>
      </trkpt>
      <trkpt lat="29.20774" lon="-13.432">
        <ele>5</ele>
        <time>2021-07-02 16:38:52</time>
      </trkpt>
      <trkpt lat="29.20777" lon="-13.43206">
        <ele>5</ele>
        <time>2021-07-02 16:38:53</time>
      </trkpt>
      <trkpt lat="29.2078" lon="-13.43212">
        <ele>5</ele>
        <time>2021-07-02 16:38:54</time>
      </trkpt>
      <trkpt lat="29.20784" lon="-13.43218">
        <ele>5</ele>
        <time>2021-07-02 16:38:55</time>
      </trkpt>
      <trkpt lat="29.20787" lon="-13.43224">
        <ele>5</ele>
        <time>2021-07-02 16:38:56</time>
      </trkpt>
      <trkpt lat="29.2079" lon="-13.43231">
        <ele>5</ele>
        <time>2021-07-02 16:38:57</time>
      </trkpt>
      <trkpt lat="29.20793" lon="-13.43238">
        <ele>4.8</ele>
        <time>2021-07-02 16:38:58</time>
      </trkpt>
      <trkpt lat="29.20797" lon="-13.43245">
        <ele>4.8</ele>
        <time>2021-07-02 16:38:59</time>
      </trkpt>
      <trkpt lat="29.20801" lon="-13.43252">
        <ele>4.8</ele>
        <time>2021-07-02 16:39:00</time>
      </trkpt>
      <trkpt lat="29.20804" lon="-13.43259">
        <ele>4.4</ele>
        <time>2021-07-02 16:39:01</time>
      </trkpt>
      <trkpt lat="29.20807" lon="-13.43266">
        <ele>4.4</ele>
        <time>2021-07-02 16:39:02</time>
      </trkpt>
      <trkpt lat="29.20811" lon="-13.43273">
        <ele>4.2</ele>
        <time>2021-07-02 16:39:03</time>
      </trkpt>
      <trkpt lat="29.20814" lon="-13.43281">
        <ele>4.2</ele>
        <time>2021-07-02 16:39:04</time>
      </trkpt>
      <trkpt lat="29.20818" lon="-13.43288">
        <ele>4.2</ele>
        <time>2021-07-02 16:39:05</time>
      </trkpt>
      <trkpt lat="29.20822" lon="-13.43294">
        <ele>4</ele>
        <time>2021-07-02 16:39:06</time>
      </trkpt>
      <trkpt lat="29.20826" lon="-13.43301">
        <ele>4</ele>
        <time>2021-07-02 16:39:07</time>
      </trkpt>
      <trkpt lat="29.2083" lon="-13.43308">
        <ele>4</ele>
        <time>2021-07-02 16:39:08</time>
      </trkpt>
      <trkpt lat="29.20833" lon="-13.43316">
        <ele>4</ele>
        <time>2021-07-02 16:39:09</time>
      </trkpt>
      <trkpt lat="29.20836" lon="-13.43322">
        <ele>4</ele>
        <time>2021-07-02 16:39:10</time>
      </trkpt>
      <trkpt lat="29.2084" lon="-13.43329">
        <ele>4</ele>
        <time>2021-07-02 16:39:11</time>
      </trkpt>
      <trkpt lat="29.20843" lon="-13.43336">
        <ele>4</ele>
        <time>2021-07-02 16:39:12</time>
      </trkpt>
      <trkpt lat="29.20847" lon="-13.43343">
        <ele>4</ele>
        <time>2021-07-02 16:39:13</time>
      </trkpt>
      <trkpt lat="29.2085" lon="-13.4335">
        <ele>3.6</ele>
        <time>2021-07-02 16:39:14</time>
      </trkpt>
      <trkpt lat="29.20853" lon="-13.43356">
        <ele>3.6</ele>
        <time>2021-07-02 16:39:15</time>
      </trkpt>
      <trkpt lat="29.20857" lon="-13.43364">
        <ele>4</ele>
        <time>2021-07-02 16:39:16</time>
      </trkpt>
      <trkpt lat="29.2086" lon="-13.43371">
        <ele>4</ele>
        <time>2021-07-02 16:39:17</time>
      </trkpt>
      <trkpt lat="29.20864" lon="-13.43378">
        <ele>4</ele>
        <time>2021-07-02 16:39:18</time>
      </trkpt>
      <trkpt lat="29.20867" lon="-13.43384">
        <ele>4.2</ele>
        <time>2021-07-02 16:39:19</time>
      </trkpt>
      <trkpt lat="29.20871" lon="-13.43392">
        <ele>4.2</ele>
        <time>2021-07-02 16:39:20</time>
      </trkpt>
      <trkpt lat="29.20874" lon="-13.43398">
        <ele>4.2</ele>
        <time>2021-07-02 16:39:21</time>
      </trkpt>
      <trkpt lat="29.20878" lon="-13.43405">
        <ele>4.4</ele>
        <time>2021-07-02 16:39:22</time>
      </trkpt>
      <trkpt lat="29.20881" lon="-13.43412">
        <ele>4.4</ele>
        <time>2021-07-02 16:39:23</time>
      </trkpt>
      <trkpt lat="29.20884" lon="-13.43418">
        <ele>4.6</ele>
        <time>2021-07-02 16:39:24</time>
      </trkpt>
      <trkpt lat="29.20888" lon="-13.43424">
        <ele>4.6</ele>
        <time>2021-07-02 16:39:25</time>
      </trkpt>
      <trkpt lat="29.20891" lon="-13.4343">
        <ele>4.8</ele>
        <time>2021-07-02 16:39:26</time>
      </trkpt>
      <trkpt lat="29.20894" lon="-13.43437">
        <ele>4.8</ele>
        <time>2021-07-02 16:39:27</time>
      </trkpt>
      <trkpt lat="29.20897" lon="-13.43443">
        <ele>5.2</ele>
        <time>2021-07-02 16:39:28</time>
      </trkpt>
      <trkpt lat="29.209" lon="-13.43449">
        <ele>5.2</ele>
        <time>2021-07-02 16:39:29</time>
      </trkpt>
      <trkpt lat="29.20903" lon="-13.43455">
        <ele>5.2</ele>
        <time>2021-07-02 16:39:30</time>
      </trkpt>
      <trkpt lat="29.20906" lon="-13.43461">
        <ele>5.2</ele>
        <time>2021-07-02 16:39:31</time>
      </trkpt>
      <trkpt lat="29.20908" lon="-13.43468">
        <ele>5.2</ele>
        <time>2021-07-02 16:39:32</time>
      </trkpt>
      <trkpt lat="29.20911" lon="-13.43473">
        <ele>5.2</ele>
        <time>2021-07-02 16:39:33</time>
      </trkpt>
      <trkpt lat="29.20915" lon="-13.43479">
        <ele>5.2</ele>
        <time>2021-07-02 16:39:34</time>
      </trkpt>
      <trkpt lat="29.20917" lon="-13.43485">
        <ele>5.2</ele>
        <time>2021-07-02 16:39:35</time>
      </trkpt>
      <trkpt lat="29.20921" lon="-13.43491">
        <ele>5.2</ele>
        <time>2021-07-02 16:39:36</time>
      </trkpt>
      <trkpt lat="29.20924" lon="-13.43497">
        <ele>5.2</ele>
        <time>2021-07-02 16:39:37</time>
      </trkpt>
      <trkpt lat="29.20927" lon="-13.43502">
        <ele>5.2</ele>
        <time>2021-07-02 16:39:38</time>
      </trkpt>
      <trkpt lat="29.2093" lon="-13.43508">
        <ele>5.2</ele>
        <time>2021-07-02 16:39:39</time>
      </trkpt>
      <trkpt lat="29.20932" lon="-13.43513">
        <ele>5.2</ele>
        <time>2021-07-02 16:39:40</time>
      </trkpt>
      <trkpt lat="29.20934" lon="-13.43517">
        <ele>5.2</ele>
        <time>2021-07-02 16:39:41</time>
      </trkpt>
      <trkpt lat="29.20937" lon="-13.43521">
        <ele>5.4</ele>
        <time>2021-07-02 16:39:42</time>
      </trkpt>
      <trkpt lat="29.20938" lon="-13.43526">
        <ele>5.4</ele>
        <time>2021-07-02 16:39:43</time>
      </trkpt>
      <trkpt lat="29.2094" lon="-13.4353">
        <ele>5.4</ele>
        <time>2021-07-02 16:39:44</time>
      </trkpt>
      <trkpt lat="29.20942" lon="-13.43534">
        <ele>5.6</ele>
        <time>2021-07-02 16:39:45</time>
      </trkpt>
      <trkpt lat="29.20944" lon="-13.43538">
        <ele>5.6</ele>
        <time>2021-07-02 16:39:46</time>
      </trkpt>
      <trkpt lat="29.20946" lon="-13.43542">
        <ele>6</ele>
        <time>2021-07-02 16:39:47</time>
      </trkpt>
      <trkpt lat="29.20948" lon="-13.43545">
        <ele>6.2</ele>
        <time>2021-07-02 16:39:48</time>
      </trkpt>
      <trkpt lat="29.2095" lon="-13.43549">
        <ele>6.6</ele>
        <time>2021-07-02 16:39:49</time>
      </trkpt>
      <trkpt lat="29.20951" lon="-13.43553">
        <ele>6.8</ele>
        <time>2021-07-02 16:39:50</time>
      </trkpt>
      <trkpt lat="29.20953" lon="-13.43556">
        <ele>7</ele>
        <time>2021-07-02 16:39:51</time>
      </trkpt>
      <trkpt lat="29.20954" lon="-13.43559">
        <ele>7</ele>
        <time>2021-07-02 16:39:52</time>
      </trkpt>
      <trkpt lat="29.20956" lon="-13.43563">
        <ele>7.2</ele>
        <time>2021-07-02 16:39:53</time>
      </trkpt>
      <trkpt lat="29.20958" lon="-13.43566">
        <ele>7.2</ele>
        <time>2021-07-02 16:39:54</time>
      </trkpt>
      <trkpt lat="29.2096" lon="-13.4357">
        <ele>7.6</ele>
        <time>2021-07-02 16:39:55</time>
      </trkpt>
      <trkpt lat="29.20962" lon="-13.43573">
        <ele>7.6</ele>
        <time>2021-07-02 16:39:56</time>
      </trkpt>
      <trkpt lat="29.20963" lon="-13.43577">
        <ele>7.8</ele>
        <time>2021-07-02 16:39:57</time>
      </trkpt>
      <trkpt lat="29.20965" lon="-13.4358">
        <ele>7.8</ele>
        <time>2021-07-02 16:39:58</time>
      </trkpt>
      <trkpt lat="29.20967" lon="-13.43584">
        <ele>8</ele>
        <time>2021-07-02 16:39:59</time>
      </trkpt>
      <trkpt lat="29.20969" lon="-13.43587">
        <ele>8</ele>
        <time>2021-07-02 16:40:25</time>
      </trkpt>
      <trkpt lat="29.2097" lon="-13.4359">
        <ele>8.4</ele>
        <time>2021-07-02 16:40:26</time>
      </trkpt>
      <trkpt lat="29.20972" lon="-13.43593">
        <ele>8.4</ele>
        <time>2021-07-02 16:40:27</time>
      </trkpt>
      <trkpt lat="29.20974" lon="-13.43597">
        <ele>8.4</ele>
        <time>2021-07-02 16:40:28</time>
      </trkpt>
      <trkpt lat="29.20976" lon="-13.436">
        <ele>8.4</ele>
        <time>2021-07-02 16:40:29</time>
      </trkpt>
      <trkpt lat="29.20977" lon="-13.43603">
        <ele>8.4</ele>
        <time>2021-07-02 16:40:30</time>
      </trkpt>
      <trkpt lat="29.20979" lon="-13.43607">
        <ele>8.4</ele>
        <time>2021-07-02 16:40:31</time>
      </trkpt>
      <trkpt lat="29.20981" lon="-13.4361">
        <ele>8.4</ele>
        <time>2021-07-02 16:40:32</time>
      </trkpt>
      <trkpt lat="29.20982" lon="-13.43614">
        <ele>8.4</ele>
        <time>2021-07-02 16:40:33</time>
      </trkpt>
      <trkpt lat="29.20984" lon="-13.43617">
        <ele>8.4</ele>
        <time>2021-07-02 16:40:34</time>
      </trkpt>
      <trkpt lat="29.20986" lon="-13.4362">
        <ele>8.6</ele>
        <time>2021-07-02 16:40:35</time>
      </trkpt>
      <trkpt lat="29.20988" lon="-13.43624">
        <ele>8.8</ele>
        <time>2021-07-02 16:40:36</time>
      </trkpt>
      <trkpt lat="29.20989" lon="-13.43627">
        <ele>9.2</ele>
        <time>2021-07-02 16:40:37</time>
      </trkpt>
      <trkpt lat="29.20991" lon="-13.43631">
        <ele>9.2</ele>
        <time>2021-07-02 16:40:38</time>
      </trkpt>
      <trkpt lat="29.20993" lon="-13.43635">
        <ele>9.6</ele>
        <time>2021-07-02 16:40:39</time>
      </trkpt>
      <trkpt lat="29.20995" lon="-13.43638">
        <ele>9.6</ele>
        <time>2021-07-02 16:40:40</time>
      </trkpt>
      <trkpt lat="29.20997" lon="-13.43642">
        <ele>9.6</ele>
        <time>2021-07-02 16:40:41</time>
      </trkpt>
      <trkpt lat="29.20999" lon="-13.43646">
        <ele>9.8</ele>
        <time>2021-07-02 16:40:42</time>
      </trkpt>
      <trkpt lat="29.21" lon="-13.43649">
        <ele>9.8</ele>
        <time>2021-07-02 16:40:43</time>
      </trkpt>
      <trkpt lat="29.21002" lon="-13.43653">
        <ele>9.8</ele>
        <time>2021-07-02 16:40:44</time>
      </trkpt>
      <trkpt lat="29.21004" lon="-13.43657">
        <ele>9.8</ele>
        <time>2021-07-02 16:40:45</time>
      </trkpt>
      <trkpt lat="29.21006" lon="-13.4366">
        <ele>10</ele>
        <time>2021-07-02 16:40:46</time>
      </trkpt>
      <trkpt lat="29.21008" lon="-13.43664">
        <ele>10</ele>
        <time>2021-07-02 16:40:47</time>
      </trkpt>
      <trkpt lat="29.21009" lon="-13.43668">
        <ele>10</ele>
        <time>2021-07-02 16:40:48</time>
      </trkpt>
      <trkpt lat="29.21011" lon="-13.43672">
        <ele>10</ele>
        <time>2021-07-02 16:40:49</time>
      </trkpt>
      <trkpt lat="29.21013" lon="-13.43676">
        <ele>10.2</ele>
        <time>2021-07-02 16:40:50</time>
      </trkpt>
      <trkpt lat="29.21015" lon="-13.4368">
        <ele>10.2</ele>
        <time>2021-07-02 16:40:51</time>
      </trkpt>
      <trkpt lat="29.21017" lon="-13.43683">
        <ele>10.2</ele>
        <time>2021-07-02 16:40:52</time>
      </trkpt>
      <trkpt lat="29.21019" lon="-13.43687">
        <ele>10.6</ele>
        <time>2021-07-02 16:40:53</time>
      </trkpt>
      <trkpt lat="29.2102" lon="-13.43691">
        <ele>10.6</ele>
        <time>2021-07-02 16:40:54</time>
      </trkpt>
      <trkpt lat="29.21022" lon="-13.43695">
        <ele>10.8</ele>
        <time>2021-07-02 16:40:55</time>
      </trkpt>
      <trkpt lat="29.21024" lon="-13.43699">
        <ele>10.8</ele>
        <time>2021-07-02 16:40:56</time>
      </trkpt>
      <trkpt lat="29.21026" lon="-13.43703">
        <ele>10.8</ele>
        <time>2021-07-02 16:40:57</time>
      </trkpt>
      <trkpt lat="29.21027" lon="-13.43707">
        <ele>11</ele>
        <time>2021-07-02 16:40:58</time>
      </trkpt>
      <trkpt lat="29.2103" lon="-13.43711">
        <ele>11</ele>
        <time>2021-07-02 16:40:59</time>
      </trkpt>
      <trkpt lat="29.21032" lon="-13.43715">
        <ele>11.4</ele>
        <time>2021-07-02 16:41:00</time>
      </trkpt>
      <trkpt lat="29.21034" lon="-13.43719">
        <ele>11.4</ele>
        <time>2021-07-02 16:41:01</time>
      </trkpt>
      <trkpt lat="29.21036" lon="-13.43723">
        <ele>11.4</ele>
        <time>2021-07-02 16:41:02</time>
      </trkpt>
      <trkpt lat="29.21038" lon="-13.43727">
        <ele>11.6</ele>
        <time>2021-07-02 16:41:03</time>
      </trkpt>
      <trkpt lat="29.2104" lon="-13.43731">
        <ele>11.6</ele>
        <time>2021-07-02 16:41:04</time>
      </trkpt>
      <trkpt lat="29.21042" lon="-13.43735">
        <ele>11.6</ele>
        <time>2021-07-02 16:41:05</time>
      </trkpt>
      <trkpt lat="29.21044" lon="-13.4374">
        <ele>11.6</ele>
        <time>2021-07-02 16:41:06</time>
      </trkpt>
      <trkpt lat="29.21046" lon="-13.43744">
        <ele>11.6</ele>
        <time>2021-07-02 16:41:07</time>
      </trkpt>
      <trkpt lat="29.21048" lon="-13.43748">
        <ele>11.6</ele>
        <time>2021-07-02 16:41:08</time>
      </trkpt>
      <trkpt lat="29.2105" lon="-13.43752">
        <ele>11.6</ele>
        <time>2021-07-02 16:41:09</time>
      </trkpt>
      <trkpt lat="29.21053" lon="-13.43757">
        <ele>11.6</ele>
        <time>2021-07-02 16:41:10</time>
      </trkpt>
      <trkpt lat="29.21055" lon="-13.43761">
        <ele>11.6</ele>
        <time>2021-07-02 16:41:11</time>
      </trkpt>
      <trkpt lat="29.21057" lon="-13.43765">
        <ele>11.6</ele>
        <time>2021-07-02 16:41:12</time>
      </trkpt>
      <trkpt lat="29.21059" lon="-13.43769">
        <ele>11.6</ele>
        <time>2021-07-02 16:41:13</time>
      </trkpt>
      <trkpt lat="29.21061" lon="-13.43772">
        <ele>11.6</ele>
        <time>2021-07-02 16:41:14</time>
      </trkpt>
      <trkpt lat="29.21063" lon="-13.43777">
        <ele>11.6</ele>
        <time>2021-07-02 16:41:15</time>
      </trkpt>
      <trkpt lat="29.21066" lon="-13.43781">
        <ele>11.4</ele>
        <time>2021-07-02 16:41:16</time>
      </trkpt>
      <trkpt lat="29.21068" lon="-13.43785">
        <ele>11.4</ele>
        <time>2021-07-02 16:41:17</time>
      </trkpt>
      <trkpt lat="29.2107" lon="-13.43789">
        <ele>11.4</ele>
        <time>2021-07-02 16:41:18</time>
      </trkpt>
      <trkpt lat="29.21072" lon="-13.43794">
        <ele>11.4</ele>
        <time>2021-07-02 16:41:19</time>
      </trkpt>
      <trkpt lat="29.21075" lon="-13.43799">
        <ele>11</ele>
        <time>2021-07-02 16:41:20</time>
      </trkpt>
      <trkpt lat="29.21077" lon="-13.43803">
        <ele>11</ele>
        <time>2021-07-02 16:41:21</time>
      </trkpt>
      <trkpt lat="29.21079" lon="-13.43808">
        <ele>11</ele>
        <time>2021-07-02 16:41:22</time>
      </trkpt>
      <trkpt lat="29.21082" lon="-13.43812">
        <ele>11</ele>
        <time>2021-07-02 16:41:23</time>
      </trkpt>
      <trkpt lat="29.21084" lon="-13.43817">
        <ele>11</ele>
        <time>2021-07-02 16:41:24</time>
      </trkpt>
      <trkpt lat="29.21086" lon="-13.43822">
        <ele>11</ele>
        <time>2021-07-02 16:41:25</time>
      </trkpt>
      <trkpt lat="29.21089" lon="-13.43827">
        <ele>11</ele>
        <time>2021-07-02 16:41:26</time>
      </trkpt>
      <trkpt lat="29.21092" lon="-13.43832">
        <ele>11</ele>
        <time>2021-07-02 16:41:27</time>
      </trkpt>
      <trkpt lat="29.21094" lon="-13.43837">
        <ele>11</ele>
        <time>2021-07-02 16:41:28</time>
      </trkpt>
      <trkpt lat="29.21097" lon="-13.43842">
        <ele>11</ele>
        <time>2021-07-02 16:41:29</time>
      </trkpt>
      <trkpt lat="29.211" lon="-13.43847">
        <ele>11.4</ele>
        <time>2021-07-02 16:41:30</time>
      </trkpt>
      <trkpt lat="29.21103" lon="-13.43852">
        <ele>11.4</ele>
        <time>2021-07-02 16:41:31</time>
      </trkpt>
      <trkpt lat="29.21105" lon="-13.43858">
        <ele>11.4</ele>
        <time>2021-07-02 16:41:32</time>
      </trkpt>
      <trkpt lat="29.21108" lon="-13.43862">
        <ele>11</ele>
        <time>2021-07-02 16:41:33</time>
      </trkpt>
      <trkpt lat="29.2111" lon="-13.43868">
        <ele>11</ele>
        <time>2021-07-02 16:41:34</time>
      </trkpt>
      <trkpt lat="29.21112" lon="-13.43872">
        <ele>11</ele>
        <time>2021-07-02 16:41:35</time>
      </trkpt>
      <trkpt lat="29.21115" lon="-13.43876">
        <ele>11</ele>
        <time>2021-07-02 16:41:36</time>
      </trkpt>
      <trkpt lat="29.21117" lon="-13.43882">
        <ele>11</ele>
        <time>2021-07-02 16:41:37</time>
      </trkpt>
      <trkpt lat="29.2112" lon="-13.43887">
        <ele>10.8</ele>
        <time>2021-07-02 16:41:38</time>
      </trkpt>
      <trkpt lat="29.21123" lon="-13.43892">
        <ele>10.8</ele>
        <time>2021-07-02 16:41:39</time>
      </trkpt>
      <trkpt lat="29.21125" lon="-13.43897">
        <ele>10.8</ele>
        <time>2021-07-02 16:41:40</time>
      </trkpt>
      <trkpt lat="29.21128" lon="-13.43902">
        <ele>10.6</ele>
        <time>2021-07-02 16:41:41</time>
      </trkpt>
      <trkpt lat="29.21131" lon="-13.43908">
        <ele>10.6</ele>
        <time>2021-07-02 16:41:42</time>
      </trkpt>
      <trkpt lat="29.21133" lon="-13.43913">
        <ele>10.2</ele>
        <time>2021-07-02 16:41:43</time>
      </trkpt>
      <trkpt lat="29.21135" lon="-13.43918">
        <ele>10.2</ele>
        <time>2021-07-02 16:41:44</time>
      </trkpt>
      <trkpt lat="29.21138" lon="-13.43923">
        <ele>10</ele>
        <time>2021-07-02 16:41:45</time>
      </trkpt>
      <trkpt lat="29.2114" lon="-13.43929">
        <ele>10</ele>
        <time>2021-07-02 16:41:46</time>
      </trkpt>
      <trkpt lat="29.21143" lon="-13.43934">
        <ele>10</ele>
        <time>2021-07-02 16:41:47</time>
      </trkpt>
      <trkpt lat="29.21146" lon="-13.43939">
        <ele>9.8</ele>
        <time>2021-07-02 16:41:48</time>
      </trkpt>
      <trkpt lat="29.21148" lon="-13.43944">
        <ele>9.8</ele>
        <time>2021-07-02 16:41:49</time>
      </trkpt>
      <trkpt lat="29.21151" lon="-13.43949">
        <ele>9.8</ele>
        <time>2021-07-02 16:41:50</time>
      </trkpt>
      <trkpt lat="29.21154" lon="-13.43954">
        <ele>9.6</ele>
        <time>2021-07-02 16:41:51</time>
      </trkpt>
      <trkpt lat="29.21156" lon="-13.43959">
        <ele>9.6</ele>
        <time>2021-07-02 16:41:52</time>
      </trkpt>
      <trkpt lat="29.21158" lon="-13.43964">
        <ele>9.6</ele>
        <time>2021-07-02 16:41:53</time>
      </trkpt>
      <trkpt lat="29.2116" lon="-13.43969">
        <ele>9.6</ele>
        <time>2021-07-02 16:41:54</time>
      </trkpt>
      <trkpt lat="29.21162" lon="-13.43974">
        <ele>9.4</ele>
        <time>2021-07-02 16:41:55</time>
      </trkpt>
      <trkpt lat="29.21164" lon="-13.43978">
        <ele>9.4</ele>
        <time>2021-07-02 16:41:56</time>
      </trkpt>
      <trkpt lat="29.21167" lon="-13.43982">
        <ele>9.4</ele>
        <time>2021-07-02 16:41:57</time>
      </trkpt>
      <trkpt lat="29.21169" lon="-13.43988">
        <ele>9.4</ele>
        <time>2021-07-02 16:41:58</time>
      </trkpt>
      <trkpt lat="29.21172" lon="-13.43992">
        <ele>9.4</ele>
        <time>2021-07-02 16:41:59</time>
      </trkpt>
      <trkpt lat="29.21174" lon="-13.43996">
        <ele>9.4</ele>
        <time>2021-07-02 16:42:00</time>
      </trkpt>
      <trkpt lat="29.21176" lon="-13.44001">
        <ele>9.4</ele>
        <time>2021-07-02 16:42:01</time>
      </trkpt>
      <trkpt lat="29.21179" lon="-13.44006">
        <ele>9.4</ele>
        <time>2021-07-02 16:42:02</time>
      </trkpt>
      <trkpt lat="29.21181" lon="-13.44011">
        <ele>9.4</ele>
        <time>2021-07-02 16:42:03</time>
      </trkpt>
      <trkpt lat="29.21183" lon="-13.44016">
        <ele>9.4</ele>
        <time>2021-07-02 16:42:04</time>
      </trkpt>
      <trkpt lat="29.21186" lon="-13.44021">
        <ele>9.4</ele>
        <time>2021-07-02 16:42:05</time>
      </trkpt>
      <trkpt lat="29.21189" lon="-13.44025">
        <ele>9.4</ele>
        <time>2021-07-02 16:42:06</time>
      </trkpt>
      <trkpt lat="29.21191" lon="-13.4403">
        <ele>9</ele>
        <time>2021-07-02 16:42:07</time>
      </trkpt>
      <trkpt lat="29.21194" lon="-13.44034">
        <ele>9</ele>
        <time>2021-07-02 16:42:08</time>
      </trkpt>
      <trkpt lat="29.21197" lon="-13.44039">
        <ele>8.8</ele>
        <time>2021-07-02 16:42:09</time>
      </trkpt>
      <trkpt lat="29.212" lon="-13.44043">
        <ele>8.8</ele>
        <time>2021-07-02 16:42:10</time>
      </trkpt>
      <trkpt lat="29.21203" lon="-13.44048">
        <ele>8.8</ele>
        <time>2021-07-02 16:42:11</time>
      </trkpt>
      <trkpt lat="29.21206" lon="-13.44052">
        <ele>8.8</ele>
        <time>2021-07-02 16:42:12</time>
      </trkpt>
      <trkpt lat="29.21209" lon="-13.44056">
        <ele>8.8</ele>
        <time>2021-07-02 16:42:13</time>
      </trkpt>
      <trkpt lat="29.21212" lon="-13.4406">
        <ele>8.6</ele>
        <time>2021-07-02 16:42:14</time>
      </trkpt>
      <trkpt lat="29.21215" lon="-13.44064">
        <ele>8.6</ele>
        <time>2021-07-02 16:42:15</time>
      </trkpt>
      <trkpt lat="29.21218" lon="-13.44068">
        <ele>8.6</ele>
        <time>2021-07-02 16:42:16</time>
      </trkpt>
      <trkpt lat="29.21221" lon="-13.44072">
        <ele>8.6</ele>
        <time>2021-07-02 16:42:17</time>
      </trkpt>
      <trkpt lat="29.21225" lon="-13.44076">
        <ele>8.6</ele>
        <time>2021-07-02 16:42:18</time>
      </trkpt>
      <trkpt lat="29.21228" lon="-13.44081">
        <ele>8.4</ele>
        <time>2021-07-02 16:42:19</time>
      </trkpt>
      <trkpt lat="29.21231" lon="-13.44085">
        <ele>8.4</ele>
        <time>2021-07-02 16:42:20</time>
      </trkpt>
      <trkpt lat="29.21235" lon="-13.44089">
        <ele>8.4</ele>
        <time>2021-07-02 16:42:21</time>
      </trkpt>
      <trkpt lat="29.21238" lon="-13.44093">
        <ele>8.2</ele>
        <time>2021-07-02 16:42:22</time>
      </trkpt>
      <trkpt lat="29.21242" lon="-13.44098">
        <ele>8.2</ele>
        <time>2021-07-02 16:42:23</time>
      </trkpt>
      <trkpt lat="29.21245" lon="-13.44102">
        <ele>8</ele>
        <time>2021-07-02 16:42:24</time>
      </trkpt>
      <trkpt lat="29.21249" lon="-13.44107">
        <ele>8</ele>
        <time>2021-07-02 16:42:25</time>
      </trkpt>
      <trkpt lat="29.21252" lon="-13.4411">
        <ele>7.8</ele>
        <time>2021-07-02 16:42:26</time>
      </trkpt>
      <trkpt lat="29.21256" lon="-13.44115">
        <ele>7.8</ele>
        <time>2021-07-02 16:42:27</time>
      </trkpt>
      <trkpt lat="29.21259" lon="-13.44119">
        <ele>7.6</ele>
        <time>2021-07-02 16:42:28</time>
      </trkpt>
      <trkpt lat="29.21263" lon="-13.44123">
        <ele>7.6</ele>
        <time>2021-07-02 16:42:29</time>
      </trkpt>
      <trkpt lat="29.21267" lon="-13.44128">
        <ele>7.6</ele>
        <time>2021-07-02 16:42:30</time>
      </trkpt>
      <trkpt lat="29.2127" lon="-13.44132">
        <ele>7.6</ele>
        <time>2021-07-02 16:42:31</time>
      </trkpt>
      <trkpt lat="29.21274" lon="-13.44136">
        <ele>7.4</ele>
        <time>2021-07-02 16:42:32</time>
      </trkpt>
      <trkpt lat="29.21277" lon="-13.4414">
        <ele>7.4</ele>
        <time>2021-07-02 16:42:33</time>
      </trkpt>
      <trkpt lat="29.21281" lon="-13.44144">
        <ele>7.4</ele>
        <time>2021-07-02 16:42:34</time>
      </trkpt>
      <trkpt lat="29.21284" lon="-13.44148">
        <ele>7.4</ele>
        <time>2021-07-02 16:42:35</time>
      </trkpt>
      <trkpt lat="29.21288" lon="-13.44152">
        <ele>7.4</ele>
        <time>2021-07-02 16:42:36</time>
      </trkpt>
      <trkpt lat="29.21292" lon="-13.44156">
        <ele>7</ele>
        <time>2021-07-02 16:42:37</time>
      </trkpt>
      <trkpt lat="29.21296" lon="-13.4416">
        <ele>7</ele>
        <time>2021-07-02 16:42:38</time>
      </trkpt>
      <trkpt lat="29.21299" lon="-13.44164">
        <ele>7</ele>
        <time>2021-07-02 16:42:39</time>
      </trkpt>
      <trkpt lat="29.21303" lon="-13.44168">
        <ele>7</ele>
        <time>2021-07-02 16:42:40</time>
      </trkpt>
      <trkpt lat="29.21307" lon="-13.44172">
        <ele>6.8</ele>
        <time>2021-07-02 16:42:41</time>
      </trkpt>
      <trkpt lat="29.21311" lon="-13.44176">
        <ele>6.8</ele>
        <time>2021-07-02 16:42:42</time>
      </trkpt>
      <trkpt lat="29.21315" lon="-13.4418">
        <ele>6.8</ele>
        <time>2021-07-02 16:42:43</time>
      </trkpt>
      <trkpt lat="29.21318" lon="-13.44184">
        <ele>6.8</ele>
        <time>2021-07-02 16:42:44</time>
      </trkpt>
      <trkpt lat="29.21322" lon="-13.44188">
        <ele>6.6</ele>
        <time>2021-07-02 16:42:45</time>
      </trkpt>
      <trkpt lat="29.21325" lon="-13.44192">
        <ele>6.6</ele>
        <time>2021-07-02 16:42:46</time>
      </trkpt>
      <trkpt lat="29.2133" lon="-13.44196">
        <ele>6.6</ele>
        <time>2021-07-02 16:42:47</time>
      </trkpt>
      <trkpt lat="29.21333" lon="-13.44199">
        <ele>6.6</ele>
        <time>2021-07-02 16:42:48</time>
      </trkpt>
      <trkpt lat="29.21356" lon="-13.44221">
        <ele>5.6</ele>
        <time>2021-07-02 16:42:49</time>
      </trkpt>
      <trkpt lat="29.2136" lon="-13.44225">
        <ele>5.4</ele>
        <time>2021-07-02 16:42:50</time>
      </trkpt>
      <trkpt lat="29.21364" lon="-13.44229">
        <ele>5.4</ele>
        <time>2021-07-02 16:42:51</time>
      </trkpt>
      <trkpt lat="29.21368" lon="-13.44233">
        <ele>5.4</ele>
        <time>2021-07-02 16:42:52</time>
      </trkpt>
      <trkpt lat="29.21372" lon="-13.44237">
        <ele>5.4</ele>
        <time>2021-07-02 16:42:53</time>
      </trkpt>
      <trkpt lat="29.21376" lon="-13.4424">
        <ele>5.4</ele>
        <time>2021-07-02 16:42:54</time>
      </trkpt>
      <trkpt lat="29.2138" lon="-13.44244">
        <ele>5.4</ele>
        <time>2021-07-02 16:42:55</time>
      </trkpt>
      <trkpt lat="29.21383" lon="-13.44247">
        <ele>5.4</ele>
        <time>2021-07-02 16:42:56</time>
      </trkpt>
      <trkpt lat="29.21387" lon="-13.44251">
        <ele>5.4</ele>
        <time>2021-07-02 16:42:57</time>
      </trkpt>
      <trkpt lat="29.21391" lon="-13.44255">
        <ele>5.4</ele>
        <time>2021-07-02 16:42:58</time>
      </trkpt>
      <trkpt lat="29.21394" lon="-13.44258">
        <ele>5.4</ele>
        <time>2021-07-02 16:42:59</time>
      </trkpt>
      <trkpt lat="29.21397" lon="-13.44261">
        <ele>5.4</ele>
        <time>2021-07-02 16:43:00</time>
      </trkpt>
      <trkpt lat="29.21401" lon="-13.44264">
        <ele>5.4</ele>
        <time>2021-07-02 16:43:01</time>
      </trkpt>
      <trkpt lat="29.21404" lon="-13.44268">
        <ele>5.4</ele>
        <time>2021-07-02 16:43:02</time>
      </trkpt>
      <trkpt lat="29.21408" lon="-13.44272">
        <ele>5.4</ele>
        <time>2021-07-02 16:43:03</time>
      </trkpt>
      <trkpt lat="29.21411" lon="-13.44275">
        <ele>5.6</ele>
        <time>2021-07-02 16:43:04</time>
      </trkpt>
      <trkpt lat="29.21419" lon="-13.44283">
        <ele>5.6</ele>
        <time>2021-07-02 16:43:05</time>
      </trkpt>
      <trkpt lat="29.21422" lon="-13.44287">
        <ele>5.6</ele>
        <time>2021-07-02 16:43:06</time>
      </trkpt>
      <trkpt lat="29.21425" lon="-13.4429">
        <ele>5.6</ele>
        <time>2021-07-02 16:43:07</time>
      </trkpt>
      <trkpt lat="29.21428" lon="-13.44293">
        <ele>5.6</ele>
        <time>2021-07-02 16:43:08</time>
      </trkpt>
      <trkpt lat="29.21432" lon="-13.44297">
        <ele>5.6</ele>
        <time>2021-07-02 16:43:09</time>
      </trkpt>
      <trkpt lat="29.21436" lon="-13.443">
        <ele>5.6</ele>
        <time>2021-07-02 16:43:10</time>
      </trkpt>
      <trkpt lat="29.2144" lon="-13.44304">
        <ele>5.6</ele>
        <time>2021-07-02 16:43:11</time>
      </trkpt>
      <trkpt lat="29.21444" lon="-13.44308">
        <ele>5.6</ele>
        <time>2021-07-02 16:43:12</time>
      </trkpt>
      <trkpt lat="29.21448" lon="-13.44312">
        <ele>5.6</ele>
        <time>2021-07-02 16:43:13</time>
      </trkpt>
      <trkpt lat="29.21452" lon="-13.44315">
        <ele>5.6</ele>
        <time>2021-07-02 16:43:14</time>
      </trkpt>
      <trkpt lat="29.21456" lon="-13.44318">
        <ele>5.6</ele>
        <time>2021-07-02 16:43:15</time>
      </trkpt>
      <trkpt lat="29.2146" lon="-13.44321">
        <ele>6</ele>
        <time>2021-07-02 16:43:16</time>
      </trkpt>
      <trkpt lat="29.21463" lon="-13.44324">
        <ele>6</ele>
        <time>2021-07-02 16:43:17</time>
      </trkpt>
      <trkpt lat="29.21467" lon="-13.44327">
        <ele>6</ele>
        <time>2021-07-02 16:43:18</time>
      </trkpt>
      <trkpt lat="29.2147" lon="-13.44331">
        <ele>6.4</ele>
        <time>2021-07-02 16:43:19</time>
      </trkpt>
      <trkpt lat="29.21474" lon="-13.44333">
        <ele>6.4</ele>
        <time>2021-07-02 16:43:20</time>
      </trkpt>
      <trkpt lat="29.21477" lon="-13.44337">
        <ele>6.6</ele>
        <time>2021-07-02 16:43:21</time>
      </trkpt>
      <trkpt lat="29.2148" lon="-13.4434">
        <ele>6.6</ele>
        <time>2021-07-02 16:43:22</time>
      </trkpt>
      <trkpt lat="29.21483" lon="-13.44343">
        <ele>6.8</ele>
        <time>2021-07-02 16:43:23</time>
      </trkpt>
      <trkpt lat="29.21486" lon="-13.44346">
        <ele>6.8</ele>
        <time>2021-07-02 16:43:24</time>
      </trkpt>
      <trkpt lat="29.2149" lon="-13.4435">
        <ele>6.8</ele>
        <time>2021-07-02 16:43:25</time>
      </trkpt>
      <trkpt lat="29.21493" lon="-13.44353">
        <ele>6.8</ele>
        <time>2021-07-02 16:43:26</time>
      </trkpt>
      <trkpt lat="29.21497" lon="-13.44356">
        <ele>6.8</ele>
        <time>2021-07-02 16:43:27</time>
      </trkpt>
      <trkpt lat="29.215" lon="-13.44359">
        <ele>7</ele>
        <time>2021-07-02 16:43:28</time>
      </trkpt>
      <trkpt lat="29.21503" lon="-13.44362">
        <ele>7</ele>
        <time>2021-07-02 16:43:29</time>
      </trkpt>
      <trkpt lat="29.21506" lon="-13.44365">
        <ele>7.2</ele>
        <time>2021-07-02 16:43:30</time>
      </trkpt>
      <trkpt lat="29.21509" lon="-13.44368">
        <ele>7.2</ele>
        <time>2021-07-02 16:43:31</time>
      </trkpt>
      <trkpt lat="29.21512" lon="-13.4437">
        <ele>7.6</ele>
        <time>2021-07-02 16:43:32</time>
      </trkpt>
      <trkpt lat="29.21514" lon="-13.44373">
        <ele>7.6</ele>
        <time>2021-07-02 16:43:33</time>
      </trkpt>
      <trkpt lat="29.21517" lon="-13.44376">
        <ele>7.8</ele>
        <time>2021-07-02 16:43:34</time>
      </trkpt>
      <trkpt lat="29.2152" lon="-13.44378">
        <ele>7.8</ele>
        <time>2021-07-02 16:43:35</time>
      </trkpt>
      <trkpt lat="29.21523" lon="-13.44381">
        <ele>8.2</ele>
        <time>2021-07-02 16:43:36</time>
      </trkpt>
      <trkpt lat="29.21525" lon="-13.44384">
        <ele>8.6</ele>
        <time>2021-07-02 16:43:37</time>
      </trkpt>
      <trkpt lat="29.21528" lon="-13.44387">
        <ele>8.8</ele>
        <time>2021-07-02 16:43:38</time>
      </trkpt>
      <trkpt lat="29.21531" lon="-13.4439">
        <ele>9.2</ele>
        <time>2021-07-02 16:43:39</time>
      </trkpt>
      <trkpt lat="29.21534" lon="-13.44393">
        <ele>9.4</ele>
        <time>2021-07-02 16:43:40</time>
      </trkpt>
      <trkpt lat="29.21537" lon="-13.44396">
        <ele>9.8</ele>
        <time>2021-07-02 16:43:41</time>
      </trkpt>
      <trkpt lat="29.2154" lon="-13.444">
        <ele>10</ele>
        <time>2021-07-02 16:43:42</time>
      </trkpt>
      <trkpt lat="29.21542" lon="-13.44403">
        <ele>10.4</ele>
        <time>2021-07-02 16:43:43</time>
      </trkpt>
      <trkpt lat="29.21545" lon="-13.44405">
        <ele>10.8</ele>
        <time>2021-07-02 16:43:44</time>
      </trkpt>
      <trkpt lat="29.21547" lon="-13.44408">
        <ele>11.2</ele>
        <time>2021-07-02 16:43:45</time>
      </trkpt>
      <trkpt lat="29.21549" lon="-13.4441">
        <ele>11.4</ele>
        <time>2021-07-02 16:43:46</time>
      </trkpt>
      <trkpt lat="29.21551" lon="-13.44413">
        <ele>11.8</ele>
        <time>2021-07-02 16:43:47</time>
      </trkpt>
      <trkpt lat="29.21553" lon="-13.44416">
        <ele>12</ele>
        <time>2021-07-02 16:43:48</time>
      </trkpt>
      <trkpt lat="29.21554" lon="-13.44419">
        <ele>12.2</ele>
        <time>2021-07-02 16:43:49</time>
      </trkpt>
      <trkpt lat="29.21556" lon="-13.44421">
        <ele>12.4</ele>
        <time>2021-07-02 16:43:50</time>
      </trkpt>
      <trkpt lat="29.21558" lon="-13.44425">
        <ele>12.4</ele>
        <time>2021-07-02 16:43:51</time>
      </trkpt>
      <trkpt lat="29.2156" lon="-13.44427">
        <ele>12.8</ele>
        <time>2021-07-02 16:43:52</time>
      </trkpt>
      <trkpt lat="29.21562" lon="-13.4443">
        <ele>13</ele>
        <time>2021-07-02 16:43:53</time>
      </trkpt>
      <trkpt lat="29.21564" lon="-13.44433">
        <ele>13</ele>
        <time>2021-07-02 16:43:54</time>
      </trkpt>
      <trkpt lat="29.21566" lon="-13.44436">
        <ele>13.4</ele>
        <time>2021-07-02 16:43:55</time>
      </trkpt>
      <trkpt lat="29.21567" lon="-13.44439">
        <ele>13.6</ele>
        <time>2021-07-02 16:43:56</time>
      </trkpt>
      <trkpt lat="29.21569" lon="-13.44441">
        <ele>13.8</ele>
        <time>2021-07-02 16:43:57</time>
      </trkpt>
      <trkpt lat="29.2157" lon="-13.44445">
        <ele>13.8</ele>
        <time>2021-07-02 16:43:58</time>
      </trkpt>
      <trkpt lat="29.21572" lon="-13.44448">
        <ele>14</ele>
        <time>2021-07-02 16:43:59</time>
      </trkpt>
      <trkpt lat="29.21574" lon="-13.44451">
        <ele>14</ele>
        <time>2021-07-02 16:44:00</time>
      </trkpt>
      <trkpt lat="29.21576" lon="-13.44455">
        <ele>14</ele>
        <time>2021-07-02 16:44:01</time>
      </trkpt>
      <trkpt lat="29.21578" lon="-13.44458">
        <ele>14.4</ele>
        <time>2021-07-02 16:44:02</time>
      </trkpt>
      <trkpt lat="29.2158" lon="-13.44461">
        <ele>14.4</ele>
        <time>2021-07-02 16:44:03</time>
      </trkpt>
      <trkpt lat="29.21582" lon="-13.44465">
        <ele>14.6</ele>
        <time>2021-07-02 16:44:04</time>
      </trkpt>
      <trkpt lat="29.21584" lon="-13.44468">
        <ele>14.6</ele>
        <time>2021-07-02 16:44:05</time>
      </trkpt>
      <trkpt lat="29.21586" lon="-13.44472">
        <ele>15</ele>
        <time>2021-07-02 16:44:06</time>
      </trkpt>
      <trkpt lat="29.21588" lon="-13.44476">
        <ele>15</ele>
        <time>2021-07-02 16:44:07</time>
      </trkpt>
      <trkpt lat="29.2159" lon="-13.4448">
        <ele>15</ele>
        <time>2021-07-02 16:44:08</time>
      </trkpt>
      <trkpt lat="29.21592" lon="-13.44484">
        <ele>15</ele>
        <time>2021-07-02 16:44:09</time>
      </trkpt>
      <trkpt lat="29.21593" lon="-13.44489">
        <ele>15</ele>
        <time>2021-07-02 16:44:10</time>
      </trkpt>
      <trkpt lat="29.21595" lon="-13.44493">
        <ele>15</ele>
        <time>2021-07-02 16:44:11</time>
      </trkpt>
      <trkpt lat="29.21597" lon="-13.44497">
        <ele>15</ele>
        <time>2021-07-02 16:44:12</time>
      </trkpt>
      <trkpt lat="29.21599" lon="-13.44502">
        <ele>15.2</ele>
        <time>2021-07-02 16:44:13</time>
      </trkpt>
      <trkpt lat="29.21601" lon="-13.44506">
        <ele>15.2</ele>
        <time>2021-07-02 16:44:14</time>
      </trkpt>
      <trkpt lat="29.21603" lon="-13.44511">
        <ele>15.2</ele>
        <time>2021-07-02 16:44:15</time>
      </trkpt>
      <trkpt lat="29.21606" lon="-13.44515">
        <ele>15.2</ele>
        <time>2021-07-02 16:44:16</time>
      </trkpt>
      <trkpt lat="29.21607" lon="-13.4452">
        <ele>15.2</ele>
        <time>2021-07-02 16:44:17</time>
      </trkpt>
      <trkpt lat="29.21609" lon="-13.44525">
        <ele>15.2</ele>
        <time>2021-07-02 16:44:18</time>
      </trkpt>
      <trkpt lat="29.21612" lon="-13.44529">
        <ele>15.2</ele>
        <time>2021-07-02 16:44:19</time>
      </trkpt>
      <trkpt lat="29.21614" lon="-13.44534">
        <ele>14.4</ele>
        <time>2021-07-02 16:44:20</time>
      </trkpt>
      <trkpt lat="29.21616" lon="-13.44539">
        <ele>14.8</ele>
        <time>2021-07-02 16:44:21</time>
      </trkpt>
      <trkpt lat="29.21618" lon="-13.44544">
        <ele>14.8</ele>
        <time>2021-07-02 16:44:22</time>
      </trkpt>
      <trkpt lat="29.21621" lon="-13.44548">
        <ele>14.8</ele>
        <time>2021-07-02 16:44:23</time>
      </trkpt>
      <trkpt lat="29.21623" lon="-13.44552">
        <ele>14.8</ele>
        <time>2021-07-02 16:44:24</time>
      </trkpt>
      <trkpt lat="29.21625" lon="-13.44557">
        <ele>14.8</ele>
        <time>2021-07-02 16:44:25</time>
      </trkpt>
      <trkpt lat="29.21628" lon="-13.44562">
        <ele>14.8</ele>
        <time>2021-07-02 16:44:26</time>
      </trkpt>
      <trkpt lat="29.2163" lon="-13.44566">
        <ele>14.8</ele>
        <time>2021-07-02 16:44:27</time>
      </trkpt>
      <trkpt lat="29.21632" lon="-13.4457">
        <ele>14.8</ele>
        <time>2021-07-02 16:44:28</time>
      </trkpt>
      <trkpt lat="29.21635" lon="-13.44575">
        <ele>14.8</ele>
        <time>2021-07-02 16:44:29</time>
      </trkpt>
      <trkpt lat="29.21637" lon="-13.4458">
        <ele>14.8</ele>
        <time>2021-07-02 16:44:30</time>
      </trkpt>
      <trkpt lat="29.21639" lon="-13.44584">
        <ele>15</ele>
        <time>2021-07-02 16:44:31</time>
      </trkpt>
      <trkpt lat="29.21642" lon="-13.44589">
        <ele>15</ele>
        <time>2021-07-02 16:44:32</time>
      </trkpt>
      <trkpt lat="29.21644" lon="-13.44593">
        <ele>15</ele>
        <time>2021-07-02 16:44:33</time>
      </trkpt>
      <trkpt lat="29.21647" lon="-13.44597">
        <ele>15</ele>
        <time>2021-07-02 16:44:34</time>
      </trkpt>
      <trkpt lat="29.21649" lon="-13.44601">
        <ele>15</ele>
        <time>2021-07-02 16:44:35</time>
      </trkpt>
      <trkpt lat="29.21652" lon="-13.44606">
        <ele>15</ele>
        <time>2021-07-02 16:44:36</time>
      </trkpt>
      <trkpt lat="29.21654" lon="-13.4461">
        <ele>15</ele>
        <time>2021-07-02 16:44:37</time>
      </trkpt>
      <trkpt lat="29.21657" lon="-13.44615">
        <ele>15</ele>
        <time>2021-07-02 16:44:38</time>
      </trkpt>
      <trkpt lat="29.21659" lon="-13.4462">
        <ele>15.2</ele>
        <time>2021-07-02 16:44:39</time>
      </trkpt>
      <trkpt lat="29.21662" lon="-13.44624">
        <ele>15.2</ele>
        <time>2021-07-02 16:44:40</time>
      </trkpt>
      <trkpt lat="29.21664" lon="-13.44628">
        <ele>15.2</ele>
        <time>2021-07-02 16:44:41</time>
      </trkpt>
      <trkpt lat="29.21667" lon="-13.44632">
        <ele>15.2</ele>
        <time>2021-07-02 16:44:42</time>
      </trkpt>
      <trkpt lat="29.21669" lon="-13.44637">
        <ele>15.2</ele>
        <time>2021-07-02 16:44:43</time>
      </trkpt>
      <trkpt lat="29.21672" lon="-13.44642">
        <ele>15.2</ele>
        <time>2021-07-02 16:44:44</time>
      </trkpt>
      <trkpt lat="29.21675" lon="-13.44646">
        <ele>15.2</ele>
        <time>2021-07-02 16:44:45</time>
      </trkpt>
      <trkpt lat="29.21677" lon="-13.44651">
        <ele>15.2</ele>
        <time>2021-07-02 16:44:46</time>
      </trkpt>
      <trkpt lat="29.2168" lon="-13.44655">
        <ele>15.2</ele>
        <time>2021-07-02 16:44:47</time>
      </trkpt>
      <trkpt lat="29.21683" lon="-13.44659">
        <ele>15.2</ele>
        <time>2021-07-02 16:44:48</time>
      </trkpt>
      <trkpt lat="29.21686" lon="-13.44664">
        <ele>15.2</ele>
        <time>2021-07-02 16:44:49</time>
      </trkpt>
      <trkpt lat="29.21689" lon="-13.44668">
        <ele>15.2</ele>
        <time>2021-07-02 16:44:50</time>
      </trkpt>
      <trkpt lat="29.21691" lon="-13.44672">
        <ele>15.2</ele>
        <time>2021-07-02 16:44:51</time>
      </trkpt>
      <trkpt lat="29.21694" lon="-13.44676">
        <ele>15.2</ele>
        <time>2021-07-02 16:44:52</time>
      </trkpt>
      <trkpt lat="29.21698" lon="-13.44681">
        <ele>15.2</ele>
        <time>2021-07-02 16:44:53</time>
      </trkpt>
      <trkpt lat="29.21701" lon="-13.44685">
        <ele>15.2</ele>
        <time>2021-07-02 16:44:54</time>
      </trkpt>
      <trkpt lat="29.21704" lon="-13.4469">
        <ele>15.2</ele>
        <time>2021-07-02 16:44:55</time>
      </trkpt>
      <trkpt lat="29.21708" lon="-13.44694">
        <ele>15.2</ele>
        <time>2021-07-02 16:44:56</time>
      </trkpt>
      <trkpt lat="29.21711" lon="-13.44699">
        <ele>15.2</ele>
        <time>2021-07-02 16:44:57</time>
      </trkpt>
      <trkpt lat="29.21714" lon="-13.44703">
        <ele>15.2</ele>
        <time>2021-07-02 16:44:58</time>
      </trkpt>
      <trkpt lat="29.21718" lon="-13.44707">
        <ele>15.2</ele>
        <time>2021-07-02 16:44:59</time>
      </trkpt>
      <trkpt lat="29.21721" lon="-13.44711">
        <ele>15</ele>
        <time>2021-07-02 16:45:00</time>
      </trkpt>
      <trkpt lat="29.21725" lon="-13.44716">
        <ele>15</ele>
        <time>2021-07-02 16:45:01</time>
      </trkpt>
      <trkpt lat="29.21729" lon="-13.4472">
        <ele>14.6</ele>
        <time>2021-07-02 16:45:02</time>
      </trkpt>
      <trkpt lat="29.21732" lon="-13.44725">
        <ele>14.6</ele>
        <time>2021-07-02 16:45:03</time>
      </trkpt>
      <trkpt lat="29.21736" lon="-13.44729">
        <ele>14.6</ele>
        <time>2021-07-02 16:45:04</time>
      </trkpt>
      <trkpt lat="29.2174" lon="-13.44734">
        <ele>14.6</ele>
        <time>2021-07-02 16:45:05</time>
      </trkpt>
      <trkpt lat="29.21744" lon="-13.44739">
        <ele>14.4</ele>
        <time>2021-07-02 16:45:06</time>
      </trkpt>
      <trkpt lat="29.21747" lon="-13.44743">
        <ele>14.4</ele>
        <time>2021-07-02 16:45:07</time>
      </trkpt>
      <trkpt lat="29.21751" lon="-13.44747">
        <ele>14.4</ele>
        <time>2021-07-02 16:45:08</time>
      </trkpt>
      <trkpt lat="29.21755" lon="-13.44752">
        <ele>14.2</ele>
        <time>2021-07-02 16:45:09</time>
      </trkpt>
      <trkpt lat="29.21759" lon="-13.44756">
        <ele>14.2</ele>
        <time>2021-07-02 16:45:10</time>
      </trkpt>
      <trkpt lat="29.21762" lon="-13.44761">
        <ele>14</ele>
        <time>2021-07-02 16:45:11</time>
      </trkpt>
      <trkpt lat="29.21766" lon="-13.44765">
        <ele>14</ele>
        <time>2021-07-02 16:45:12</time>
      </trkpt>
      <trkpt lat="29.2177" lon="-13.4477">
        <ele>14</ele>
        <time>2021-07-02 16:45:13</time>
      </trkpt>
      <trkpt lat="29.21774" lon="-13.44774">
        <ele>13.8</ele>
        <time>2021-07-02 16:45:14</time>
      </trkpt>
      <trkpt lat="29.21778" lon="-13.44779">
        <ele>13.8</ele>
        <time>2021-07-02 16:45:15</time>
      </trkpt>
      <trkpt lat="29.21782" lon="-13.44783">
        <ele>13.8</ele>
        <time>2021-07-02 16:45:16</time>
      </trkpt>
      <trkpt lat="29.21786" lon="-13.44788">
        <ele>13.4</ele>
        <time>2021-07-02 16:45:17</time>
      </trkpt>
      <trkpt lat="29.2179" lon="-13.44792">
        <ele>13.4</ele>
        <time>2021-07-02 16:45:18</time>
      </trkpt>
      <trkpt lat="29.21794" lon="-13.44797">
        <ele>13.4</ele>
        <time>2021-07-02 16:45:19</time>
      </trkpt>
      <trkpt lat="29.21798" lon="-13.44802">
        <ele>13.4</ele>
        <time>2021-07-02 16:45:20</time>
      </trkpt>
      <trkpt lat="29.21801" lon="-13.44807">
        <ele>13.4</ele>
        <time>2021-07-02 16:45:21</time>
      </trkpt>
      <trkpt lat="29.21805" lon="-13.44811">
        <ele>13.2</ele>
        <time>2021-07-02 16:45:22</time>
      </trkpt>
      <trkpt lat="29.21809" lon="-13.44817">
        <ele>13.2</ele>
        <time>2021-07-02 16:45:23</time>
      </trkpt>
      <trkpt lat="29.21813" lon="-13.44821">
        <ele>13.2</ele>
        <time>2021-07-02 16:45:24</time>
      </trkpt>
      <trkpt lat="29.21817" lon="-13.44826">
        <ele>13</ele>
        <time>2021-07-02 16:45:25</time>
      </trkpt>
      <trkpt lat="29.2182" lon="-13.44831">
        <ele>13</ele>
        <time>2021-07-02 16:45:26</time>
      </trkpt>
      <trkpt lat="29.21824" lon="-13.44836">
        <ele>13</ele>
        <time>2021-07-02 16:45:27</time>
      </trkpt>
      <trkpt lat="29.21827" lon="-13.4484">
        <ele>13</ele>
        <time>2021-07-02 16:45:28</time>
      </trkpt>
      <trkpt lat="29.21831" lon="-13.44846">
        <ele>13</ele>
        <time>2021-07-02 16:45:29</time>
      </trkpt>
      <trkpt lat="29.21834" lon="-13.44851">
        <ele>13</ele>
        <time>2021-07-02 16:45:30</time>
      </trkpt>
      <trkpt lat="29.21837" lon="-13.44856">
        <ele>13</ele>
        <time>2021-07-02 16:45:31</time>
      </trkpt>
      <trkpt lat="29.2184" lon="-13.44861">
        <ele>13</ele>
        <time>2021-07-02 16:45:32</time>
      </trkpt>
      <trkpt lat="29.21844" lon="-13.44867">
        <ele>13</ele>
        <time>2021-07-02 16:45:33</time>
      </trkpt>
      <trkpt lat="29.21847" lon="-13.44871">
        <ele>13</ele>
        <time>2021-07-02 16:45:34</time>
      </trkpt>
      <trkpt lat="29.21849" lon="-13.44876">
        <ele>13</ele>
        <time>2021-07-02 16:45:35</time>
      </trkpt>
      <trkpt lat="29.21852" lon="-13.44881">
        <ele>13</ele>
        <time>2021-07-02 16:45:36</time>
      </trkpt>
      <trkpt lat="29.21854" lon="-13.44885">
        <ele>13.2</ele>
        <time>2021-07-02 16:45:37</time>
      </trkpt>
      <trkpt lat="29.21857" lon="-13.44891">
        <ele>13.2</ele>
        <time>2021-07-02 16:45:38</time>
      </trkpt>
      <trkpt lat="29.2186" lon="-13.44896">
        <ele>13.2</ele>
        <time>2021-07-02 16:45:39</time>
      </trkpt>
      <trkpt lat="29.21862" lon="-13.44901">
        <ele>13.2</ele>
        <time>2021-07-02 16:45:40</time>
      </trkpt>
      <trkpt lat="29.21865" lon="-13.44906">
        <ele>13.2</ele>
        <time>2021-07-02 16:45:41</time>
      </trkpt>
      <trkpt lat="29.21867" lon="-13.44912">
        <ele>13</ele>
        <time>2021-07-02 16:45:42</time>
      </trkpt>
      <trkpt lat="29.21869" lon="-13.44917">
        <ele>13</ele>
        <time>2021-07-02 16:45:43</time>
      </trkpt>
      <trkpt lat="29.21871" lon="-13.44923">
        <ele>13</ele>
        <time>2021-07-02 16:45:44</time>
      </trkpt>
      <trkpt lat="29.21873" lon="-13.44928">
        <ele>13</ele>
        <time>2021-07-02 16:45:45</time>
      </trkpt>
      <trkpt lat="29.21875" lon="-13.44933">
        <ele>13</ele>
        <time>2021-07-02 16:45:46</time>
      </trkpt>
      <trkpt lat="29.21877" lon="-13.44938">
        <ele>13</ele>
        <time>2021-07-02 16:45:47</time>
      </trkpt>
      <trkpt lat="29.21879" lon="-13.44943">
        <ele>13</ele>
        <time>2021-07-02 16:45:48</time>
      </trkpt>
      <trkpt lat="29.21881" lon="-13.44948">
        <ele>13</ele>
        <time>2021-07-02 16:45:49</time>
      </trkpt>
      <trkpt lat="29.21883" lon="-13.44953">
        <ele>13.2</ele>
        <time>2021-07-02 16:45:50</time>
      </trkpt>
      <trkpt lat="29.21884" lon="-13.44959">
        <ele>13.2</ele>
        <time>2021-07-02 16:45:51</time>
      </trkpt>
      <trkpt lat="29.21885" lon="-13.44964">
        <ele>13.6</ele>
        <time>2021-07-02 16:45:52</time>
      </trkpt>
      <trkpt lat="29.21886" lon="-13.4497">
        <ele>13.6</ele>
        <time>2021-07-02 16:45:53</time>
      </trkpt>
      <trkpt lat="29.21887" lon="-13.44975">
        <ele>13.6</ele>
        <time>2021-07-02 16:45:54</time>
      </trkpt>
      <trkpt lat="29.21888" lon="-13.44981">
        <ele>13.8</ele>
        <time>2021-07-02 16:45:55</time>
      </trkpt>
      <trkpt lat="29.21889" lon="-13.44987">
        <ele>13.8</ele>
        <time>2021-07-02 16:45:56</time>
      </trkpt>
      <trkpt lat="29.2189" lon="-13.44992">
        <ele>13.8</ele>
        <time>2021-07-02 16:45:57</time>
      </trkpt>
      <trkpt lat="29.21891" lon="-13.44998">
        <ele>14.2</ele>
        <time>2021-07-02 16:45:58</time>
      </trkpt>
      <trkpt lat="29.21892" lon="-13.45004">
        <ele>14.2</ele>
        <time>2021-07-02 16:45:59</time>
      </trkpt>
      <trkpt lat="29.21892" lon="-13.4501">
        <ele>14.2</ele>
        <time>2021-07-02 16:46:00</time>
      </trkpt>
      <trkpt lat="29.21893" lon="-13.45016">
        <ele>14.2</ele>
        <time>2021-07-02 16:46:01</time>
      </trkpt>
      <trkpt lat="29.21894" lon="-13.45021">
        <ele>14.4</ele>
        <time>2021-07-02 16:46:02</time>
      </trkpt>
      <trkpt lat="29.21894" lon="-13.45027">
        <ele>14.4</ele>
        <time>2021-07-02 16:46:03</time>
      </trkpt>
      <trkpt lat="29.21895" lon="-13.45033">
        <ele>14.8</ele>
        <time>2021-07-02 16:46:04</time>
      </trkpt>
      <trkpt lat="29.21895" lon="-13.45039">
        <ele>14.8</ele>
        <time>2021-07-02 16:46:05</time>
      </trkpt>
      <trkpt lat="29.21896" lon="-13.45045">
        <ele>14.8</ele>
        <time>2021-07-02 16:46:06</time>
      </trkpt>
      <trkpt lat="29.21896" lon="-13.45051">
        <ele>15</ele>
        <time>2021-07-02 16:46:07</time>
      </trkpt>
      <trkpt lat="29.21896" lon="-13.45057">
        <ele>15</ele>
        <time>2021-07-02 16:46:08</time>
      </trkpt>
      <trkpt lat="29.21897" lon="-13.45063">
        <ele>15</ele>
        <time>2021-07-02 16:46:09</time>
      </trkpt>
      <trkpt lat="29.21898" lon="-13.45069">
        <ele>15</ele>
        <time>2021-07-02 16:46:10</time>
      </trkpt>
      <trkpt lat="29.21898" lon="-13.45074">
        <ele>15</ele>
        <time>2021-07-02 16:46:11</time>
      </trkpt>
      <trkpt lat="29.21899" lon="-13.4508">
        <ele>14.6</ele>
        <time>2021-07-02 16:46:12</time>
      </trkpt>
      <trkpt lat="29.21899" lon="-13.45086">
        <ele>14.6</ele>
        <time>2021-07-02 16:46:13</time>
      </trkpt>
      <trkpt lat="29.219" lon="-13.45092">
        <ele>14.6</ele>
        <time>2021-07-02 16:46:14</time>
      </trkpt>
      <trkpt lat="29.219" lon="-13.45097">
        <ele>14.6</ele>
        <time>2021-07-02 16:46:15</time>
      </trkpt>
      <trkpt lat="29.21901" lon="-13.45102">
        <ele>14.6</ele>
        <time>2021-07-02 16:46:16</time>
      </trkpt>
      <trkpt lat="29.21902" lon="-13.45107">
        <ele>14.6</ele>
        <time>2021-07-02 16:46:17</time>
      </trkpt>
      <trkpt lat="29.21902" lon="-13.45112">
        <ele>14.6</ele>
        <time>2021-07-02 16:46:18</time>
      </trkpt>
      <trkpt lat="29.21903" lon="-13.45118">
        <ele>14.4</ele>
        <time>2021-07-02 16:46:19</time>
      </trkpt>
      <trkpt lat="29.21903" lon="-13.45124">
        <ele>14.4</ele>
        <time>2021-07-02 16:46:20</time>
      </trkpt>
      <trkpt lat="29.21904" lon="-13.4513">
        <ele>14.4</ele>
        <time>2021-07-02 16:46:21</time>
      </trkpt>
      <trkpt lat="29.21905" lon="-13.45136">
        <ele>14.4</ele>
        <time>2021-07-02 16:46:22</time>
      </trkpt>
      <trkpt lat="29.21906" lon="-13.45142">
        <ele>14</ele>
        <time>2021-07-02 16:46:23</time>
      </trkpt>
      <trkpt lat="29.21906" lon="-13.45149">
        <ele>14</ele>
        <time>2021-07-02 16:46:24</time>
      </trkpt>
      <trkpt lat="29.21906" lon="-13.45156">
        <ele>13.6</ele>
        <time>2021-07-02 16:46:25</time>
      </trkpt>
      <trkpt lat="29.21907" lon="-13.45162">
        <ele>13.6</ele>
        <time>2021-07-02 16:46:26</time>
      </trkpt>
      <trkpt lat="29.21907" lon="-13.45167">
        <ele>13.4</ele>
        <time>2021-07-02 16:46:27</time>
      </trkpt>
      <trkpt lat="29.21908" lon="-13.45172">
        <ele>13.4</ele>
        <time>2021-07-02 16:46:28</time>
      </trkpt>
      <trkpt lat="29.21909" lon="-13.45178">
        <ele>13</ele>
        <time>2021-07-02 16:46:29</time>
      </trkpt>
      <trkpt lat="29.21909" lon="-13.45184">
        <ele>13</ele>
        <time>2021-07-02 16:46:30</time>
      </trkpt>
      <trkpt lat="29.21909" lon="-13.4519">
        <ele>12.8</ele>
        <time>2021-07-02 16:46:31</time>
      </trkpt>
      <trkpt lat="29.2191" lon="-13.45196">
        <ele>12.8</ele>
        <time>2021-07-02 16:46:32</time>
      </trkpt>
      <trkpt lat="29.21911" lon="-13.45202">
        <ele>12.4</ele>
        <time>2021-07-02 16:46:33</time>
      </trkpt>
      <trkpt lat="29.21912" lon="-13.45208">
        <ele>12.4</ele>
        <time>2021-07-02 16:46:34</time>
      </trkpt>
      <trkpt lat="29.21913" lon="-13.45215">
        <ele>12.2</ele>
        <time>2021-07-02 16:46:35</time>
      </trkpt>
      <trkpt lat="29.21915" lon="-13.45221">
        <ele>11.8</ele>
        <time>2021-07-02 16:46:36</time>
      </trkpt>
      <trkpt lat="29.21918" lon="-13.45226">
        <ele>11.6</ele>
        <time>2021-07-02 16:46:37</time>
      </trkpt>
      <trkpt lat="29.21921" lon="-13.45229">
        <ele>11.6</ele>
        <time>2021-07-02 16:46:38</time>
      </trkpt>
      <trkpt lat="29.21923" lon="-13.45233">
        <ele>11.4</ele>
        <time>2021-07-02 16:46:39</time>
      </trkpt>
      <trkpt lat="29.21925" lon="-13.45234">
        <ele>11</ele>
        <time>2021-07-02 16:46:40</time>
      </trkpt>
      <trkpt lat="29.21926" lon="-13.45236">
        <ele>10.8</ele>
        <time>2021-07-02 16:46:41</time>
      </trkpt>
      <trkpt lat="29.21927" lon="-13.45237">
        <ele>10.8</ele>
        <time>2021-07-02 16:46:42</time>
      </trkpt>
      <trkpt lat="29.21929" lon="-13.45239">
        <ele>10.4</ele>
        <time>2021-07-02 16:46:43</time>
      </trkpt>
      <trkpt lat="29.21931" lon="-13.45238">
        <ele>10.4</ele>
        <time>2021-07-02 16:46:44</time>
      </trkpt>
      <trkpt lat="29.21932" lon="-13.45239">
        <ele>10.2</ele>
        <time>2021-07-02 16:46:45</time>
      </trkpt>
      <trkpt lat="29.21932" lon="-13.45239">
        <ele>10</ele>
        <time>2021-07-02 16:46:46</time>
      </trkpt>
      <trkpt lat="29.21932" lon="-13.45239">
        <ele>9.6</ele>
        <time>2021-07-02 16:46:47</time>
      </trkpt>
      <trkpt lat="29.21933" lon="-13.4524">
        <ele>9.4</ele>
        <time>2021-07-02 16:46:48</time>
      </trkpt>
      <trkpt lat="29.21934" lon="-13.45239">
        <ele>9.4</ele>
        <time>2021-07-02 16:46:49</time>
      </trkpt>
      <trkpt lat="29.21936" lon="-13.45239">
        <ele>9.4</ele>
        <time>2021-07-02 16:46:50</time>
      </trkpt>
      <trkpt lat="29.21938" lon="-13.45238">
        <ele>9.2</ele>
        <time>2021-07-02 16:46:51</time>
      </trkpt>
      <trkpt lat="29.2194" lon="-13.45238">
        <ele>9.2</ele>
        <time>2021-07-02 16:46:52</time>
      </trkpt>
      <trkpt lat="29.21942" lon="-13.45238">
        <ele>9.2</ele>
        <time>2021-07-02 16:46:53</time>
      </trkpt>
      <trkpt lat="29.21944" lon="-13.45238">
        <ele>8.8</ele>
        <time>2021-07-02 16:46:54</time>
      </trkpt>
      <trkpt lat="29.21947" lon="-13.45238">
        <ele>8.8</ele>
        <time>2021-07-02 16:46:55</time>
      </trkpt>
      <trkpt lat="29.21952" lon="-13.45238">
        <ele>8.6</ele>
        <time>2021-07-02 16:46:56</time>
      </trkpt>
      <trkpt lat="29.21957" lon="-13.45238">
        <ele>8.6</ele>
        <time>2021-07-02 16:46:57</time>
      </trkpt>
      <trkpt lat="29.21963" lon="-13.45238">
        <ele>8.6</ele>
        <time>2021-07-02 16:46:58</time>
      </trkpt>
      <trkpt lat="29.21968" lon="-13.45238">
        <ele>8.6</ele>
        <time>2021-07-02 16:46:59</time>
      </trkpt>
      <trkpt lat="29.21974" lon="-13.45237">
        <ele>8.6</ele>
        <time>2021-07-02 16:47:00</time>
      </trkpt>
      <trkpt lat="29.2198" lon="-13.45237">
        <ele>8.4</ele>
        <time>2021-07-02 16:47:01</time>
      </trkpt>
      <trkpt lat="29.21986" lon="-13.45237">
        <ele>8.4</ele>
        <time>2021-07-02 16:47:02</time>
      </trkpt>
      <trkpt lat="29.21992" lon="-13.45237">
        <ele>8.4</ele>
        <time>2021-07-02 16:47:03</time>
      </trkpt>
      <trkpt lat="29.21999" lon="-13.45237">
        <ele>8.2</ele>
        <time>2021-07-02 16:47:04</time>
      </trkpt>
      <trkpt lat="29.22006" lon="-13.45236">
        <ele>8.2</ele>
        <time>2021-07-02 16:47:05</time>
      </trkpt>
      <trkpt lat="29.22013" lon="-13.45236">
        <ele>8.2</ele>
        <time>2021-07-02 16:47:06</time>
      </trkpt>
      <trkpt lat="29.2202" lon="-13.45236">
        <ele>8</ele>
        <time>2021-07-02 16:47:07</time>
      </trkpt>
      <trkpt lat="29.22027" lon="-13.45235">
        <ele>8</ele>
        <time>2021-07-02 16:47:08</time>
      </trkpt>
      <trkpt lat="29.22034" lon="-13.45235">
        <ele>8</ele>
        <time>2021-07-02 16:47:09</time>
      </trkpt>
      <trkpt lat="29.22041" lon="-13.45235">
        <ele>7.6</ele>
        <time>2021-07-02 16:47:10</time>
      </trkpt>
      <trkpt lat="29.22048" lon="-13.45235">
        <ele>7.6</ele>
        <time>2021-07-02 16:47:11</time>
      </trkpt>
      <trkpt lat="29.22055" lon="-13.45235">
        <ele>7.4</ele>
        <time>2021-07-02 16:47:12</time>
      </trkpt>
      <trkpt lat="29.22062" lon="-13.45235">
        <ele>7.4</ele>
        <time>2021-07-02 16:47:13</time>
      </trkpt>
      <trkpt lat="29.22069" lon="-13.45234">
        <ele>7.4</ele>
        <time>2021-07-02 16:47:14</time>
      </trkpt>
      <trkpt lat="29.22075" lon="-13.45235">
        <ele>7.2</ele>
        <time>2021-07-02 16:47:15</time>
      </trkpt>
      <trkpt lat="29.22083" lon="-13.45235">
        <ele>7.2</ele>
        <time>2021-07-02 16:47:16</time>
      </trkpt>
      <trkpt lat="29.22089" lon="-13.45234">
        <ele>7.2</ele>
        <time>2021-07-02 16:47:17</time>
      </trkpt>
      <trkpt lat="29.22096" lon="-13.45233">
        <ele>7.2</ele>
        <time>2021-07-02 16:47:18</time>
      </trkpt>
      <trkpt lat="29.22102" lon="-13.45233">
        <ele>7</ele>
        <time>2021-07-02 16:47:19</time>
      </trkpt>
      <trkpt lat="29.22107" lon="-13.45232">
        <ele>7</ele>
        <time>2021-07-02 16:47:20</time>
      </trkpt>
      <trkpt lat="29.22114" lon="-13.45232">
        <ele>7</ele>
        <time>2021-07-02 16:47:21</time>
      </trkpt>
      <trkpt lat="29.2212" lon="-13.45232">
        <ele>7</ele>
        <time>2021-07-02 16:47:22</time>
      </trkpt>
      <trkpt lat="29.22126" lon="-13.45231">
        <ele>7</ele>
        <time>2021-07-02 16:47:23</time>
      </trkpt>
      <trkpt lat="29.22132" lon="-13.45232">
        <ele>7</ele>
        <time>2021-07-02 16:47:24</time>
      </trkpt>
      <trkpt lat="29.22137" lon="-13.45231">
        <ele>6.8</ele>
        <time>2021-07-02 16:47:25</time>
      </trkpt>
      <trkpt lat="29.22143" lon="-13.45231">
        <ele>6.8</ele>
        <time>2021-07-02 16:47:26</time>
      </trkpt>
      <trkpt lat="29.22149" lon="-13.45232">
        <ele>6.8</ele>
        <time>2021-07-02 16:47:27</time>
      </trkpt>
      <trkpt lat="29.22154" lon="-13.45232">
        <ele>6.8</ele>
        <time>2021-07-02 16:47:28</time>
      </trkpt>
      <trkpt lat="29.22159" lon="-13.45234">
        <ele>6.8</ele>
        <time>2021-07-02 16:47:29</time>
      </trkpt>
      <trkpt lat="29.22164" lon="-13.45235">
        <ele>6.8</ele>
        <time>2021-07-02 16:47:30</time>
      </trkpt>
      <trkpt lat="29.2217" lon="-13.45236">
        <ele>6.6</ele>
        <time>2021-07-02 16:47:31</time>
      </trkpt>
      <trkpt lat="29.22175" lon="-13.45237">
        <ele>6.6</ele>
        <time>2021-07-02 16:47:32</time>
      </trkpt>
      <trkpt lat="29.22179" lon="-13.4524">
        <ele>6.8</ele>
        <time>2021-07-02 16:47:33</time>
      </trkpt>
      <trkpt lat="29.22184" lon="-13.4524">
        <ele>6.6</ele>
        <time>2021-07-02 16:47:34</time>
      </trkpt>
      <trkpt lat="29.22189" lon="-13.45241">
        <ele>6.6</ele>
        <time>2021-07-02 16:47:35</time>
      </trkpt>
      <trkpt lat="29.22194" lon="-13.45242">
        <ele>6.2</ele>
        <time>2021-07-02 16:47:36</time>
      </trkpt>
      <trkpt lat="29.22199" lon="-13.45243">
        <ele>6.2</ele>
        <time>2021-07-02 16:47:37</time>
      </trkpt>
      <trkpt lat="29.22204" lon="-13.45244">
        <ele>6</ele>
        <time>2021-07-02 16:47:38</time>
      </trkpt>
      <trkpt lat="29.22209" lon="-13.45246">
        <ele>6</ele>
        <time>2021-07-02 16:47:39</time>
      </trkpt>
      <trkpt lat="29.22214" lon="-13.45247">
        <ele>6</ele>
        <time>2021-07-02 16:47:40</time>
      </trkpt>
      <trkpt lat="29.22219" lon="-13.45247">
        <ele>11</ele>
        <time>2021-07-02 16:47:41</time>
      </trkpt>
      <trkpt lat="29.22223" lon="-13.45249">
        <ele>9</ele>
        <time>2021-07-02 16:47:42</time>
      </trkpt>
      <trkpt lat="29.22229" lon="-13.4525">
        <ele>7.4</ele>
        <time>2021-07-02 16:47:43</time>
      </trkpt>
      <trkpt lat="29.22234" lon="-13.45252">
        <ele>6.2</ele>
        <time>2021-07-02 16:47:44</time>
      </trkpt>
      <trkpt lat="29.22239" lon="-13.45253">
        <ele>5</ele>
        <time>2021-07-02 16:47:45</time>
      </trkpt>
      <trkpt lat="29.22245" lon="-13.45254">
        <ele>4.2</ele>
        <time>2021-07-02 16:47:46</time>
      </trkpt>
      <trkpt lat="29.2225" lon="-13.45256">
        <ele>3.6</ele>
        <time>2021-07-02 16:47:47</time>
      </trkpt>
      <trkpt lat="29.22256" lon="-13.45257">
        <ele>3.2</ele>
        <time>2021-07-02 16:47:48</time>
      </trkpt>
      <trkpt lat="29.2226" lon="-13.45258">
        <ele>2.8</ele>
        <time>2021-07-02 16:47:49</time>
      </trkpt>
      <trkpt lat="29.22265" lon="-13.45258">
        <ele>2.6</ele>
        <time>2021-07-02 16:47:50</time>
      </trkpt>
      <trkpt lat="29.22271" lon="-13.45258">
        <ele>2.4</ele>
        <time>2021-07-02 16:47:51</time>
      </trkpt>
      <trkpt lat="29.22275" lon="-13.45256">
        <ele>2.4</ele>
        <time>2021-07-02 16:47:52</time>
      </trkpt>
      <trkpt lat="29.22279" lon="-13.45254">
        <ele>2.4</ele>
        <time>2021-07-02 16:47:53</time>
      </trkpt>
      <trkpt lat="29.22284" lon="-13.45253">
        <ele>2.4</ele>
        <time>2021-07-02 16:47:54</time>
      </trkpt>
      <trkpt lat="29.22288" lon="-13.45251">
        <ele>2</ele>
        <time>2021-07-02 16:47:55</time>
      </trkpt>
      <trkpt lat="29.22292" lon="-13.45249">
        <ele>2</ele>
        <time>2021-07-02 16:47:56</time>
      </trkpt>
      <trkpt lat="29.22296" lon="-13.45247">
        <ele>1.8</ele>
        <time>2021-07-02 16:47:57</time>
      </trkpt>
      <trkpt lat="29.223" lon="-13.45245">
        <ele>1.8</ele>
        <time>2021-07-02 16:47:58</time>
      </trkpt>
      <trkpt lat="29.22304" lon="-13.45244">
        <ele>1.4</ele>
        <time>2021-07-02 16:47:59</time>
      </trkpt>
      <trkpt lat="29.22309" lon="-13.45243">
        <ele>1.4</ele>
        <time>2021-07-02 16:48:00</time>
      </trkpt>
      <trkpt lat="29.22313" lon="-13.45242">
        <ele>1.2</ele>
        <time>2021-07-02 16:48:01</time>
      </trkpt>
      <trkpt lat="29.22318" lon="-13.45242">
        <ele>1.2</ele>
        <time>2021-07-02 16:48:02</time>
      </trkpt>
      <trkpt lat="29.22322" lon="-13.45242">
        <ele>0.8</ele>
        <time>2021-07-02 16:48:03</time>
      </trkpt>
      <trkpt lat="29.22326" lon="-13.45241">
        <ele>0.8</ele>
        <time>2021-07-02 16:48:04</time>
      </trkpt>
      <trkpt lat="29.22331" lon="-13.45241">
        <ele>0.6</ele>
        <time>2021-07-02 16:48:05</time>
      </trkpt>
      <trkpt lat="29.22335" lon="-13.45241">
        <ele>0.6</ele>
        <time>2021-07-02 16:48:06</time>
      </trkpt>
      <trkpt lat="29.22339" lon="-13.45241">
        <ele>0.4</ele>
        <time>2021-07-02 16:48:07</time>
      </trkpt>
      <trkpt lat="29.22342" lon="-13.45241">
        <ele>0.4</ele>
        <time>2021-07-02 16:48:08</time>
      </trkpt>
      <trkpt lat="29.22346" lon="-13.4524">
        <time>2021-07-02 16:48:09</time>
      </trkpt>
      <trkpt lat="29.22349" lon="-13.4524">
        <time>2021-07-02 16:48:13</time>
      </trkpt>
      <trkpt lat="29.22352" lon="-13.45239">
        <ele>-0.4</ele>
        <time>2021-07-02 16:48:14</time>
      </trkpt>
      <trkpt lat="29.22354" lon="-13.45239">
        <ele>-0.4</ele>
        <time>2021-07-02 16:48:15</time>
      </trkpt>
      <trkpt lat="29.22355" lon="-13.45239">
        <ele>-0.6</ele>
        <time>2021-07-02 16:48:16</time>
      </trkpt>
      <trkpt lat="29.22356" lon="-13.45239">
        <ele>-0.6</ele>
        <time>2021-07-02 16:48:17</time>
      </trkpt>
      <trkpt lat="29.22356" lon="-13.45239">
        <ele>-1</ele>
        <time>2021-07-02 16:48:18</time>
      </trkpt>
      <trkpt lat="29.22357" lon="-13.45239">
        <ele>-1</ele>
        <time>2021-07-02 16:48:19</time>
      </trkpt>
      <trkpt lat="29.22357" lon="-13.45239">
        <ele>-1.2</ele>
        <time>2021-07-02 16:48:20</time>
      </trkpt>
      <trkpt lat="29.22358" lon="-13.45239">
        <ele>-1.2</ele>
        <time>2021-07-02 16:48:21</time>
      </trkpt>
      <trkpt lat="29.22358" lon="-13.45239">
        <ele>-1.4</ele>
        <time>2021-07-02 16:48:22</time>
      </trkpt>
      <trkpt lat="29.22358" lon="-13.45239">
        <ele>-1.4</ele>
        <time>2021-07-02 16:48:23</time>
      </trkpt>
      <trkpt lat="29.22358" lon="-13.45239">
        <ele>-1.4</ele>
        <time>2021-07-02 16:48:24</time>
      </trkpt>
      <trkpt lat="29.22356" lon="-13.45239">
        <ele>-0.6</ele>
        <time>2021-07-02 16:48:25</time>
      </trkpt>
      <trkpt lat="29.22355" lon="-13.45239">
        <ele>-0.6</ele>
        <time>2021-07-02 16:48:26</time>
      </trkpt>
      <trkpt lat="29.22354" lon="-13.45238">
        <ele>-0.6</ele>
        <time>2021-07-02 16:48:27</time>
      </trkpt>
      <trkpt lat="29.22354" lon="-13.45236">
        <ele>-0.8</ele>
        <time>2021-07-02 16:48:28</time>
      </trkpt>
      <trkpt lat="29.22354" lon="-13.45235">
        <ele>-0.8</ele>
        <time>2021-07-02 16:48:29</time>
      </trkpt>
      <trkpt lat="29.22354" lon="-13.45233">
        <ele>-1.2</ele>
        <time>2021-07-02 16:48:30</time>
      </trkpt>
      <trkpt lat="29.22354" lon="-13.45232">
        <ele>-1.4</ele>
        <time>2021-07-02 16:48:31</time>
      </trkpt>
      <trkpt lat="29.22354" lon="-13.45232">
        <ele>-1.8</ele>
        <time>2021-07-02 16:48:32</time>
      </trkpt>
      <trkpt lat="29.22353" lon="-13.45231">
        <ele>-2.2</ele>
        <time>2021-07-02 16:48:33</time>
      </trkpt>
      <trkpt lat="29.22353" lon="-13.45231">
        <ele>-2.4</ele>
        <time>2021-07-02 16:48:34</time>
      </trkpt>
      <trkpt lat="29.22352" lon="-13.4523">
        <ele>-2.6</ele>
        <time>2021-07-02 16:48:35</time>
      </trkpt>
      <trkpt lat="29.22353" lon="-13.4523">
        <ele>-3</ele>
        <time>2021-07-02 16:48:36</time>
      </trkpt>
      <trkpt lat="29.22353" lon="-13.4523">
        <ele>-3</ele>
        <time>2021-07-02 16:48:37</time>
      </trkpt>
      <trkpt lat="29.23126" lon="-13.50314">
        <ele>9.6</ele>
        <time>2021-07-02 18:10:03</time>
      </trkpt>
      <trkpt lat="29.23128" lon="-13.50313">
        <ele>9.6</ele>
        <time>2021-07-02 18:10:04</time>
      </trkpt>
      <trkpt lat="29.23131" lon="-13.50314">
        <ele>9.6</ele>
        <time>2021-07-02 18:10:05</time>
      </trkpt>
      <trkpt lat="29.23133" lon="-13.50314">
        <ele>9.4</ele>
        <time>2021-07-02 18:10:06</time>
      </trkpt>
      <trkpt lat="29.23136" lon="-13.50316">
        <ele>9.4</ele>
        <time>2021-07-02 18:10:07</time>
      </trkpt>
      <trkpt lat="29.23138" lon="-13.50318">
        <ele>9.4</ele>
        <time>2021-07-02 18:10:08</time>
      </trkpt>
      <trkpt lat="29.23139" lon="-13.5032">
        <ele>9.2</ele>
        <time>2021-07-02 18:10:09</time>
      </trkpt>
      <trkpt lat="29.2314" lon="-13.50322">
        <ele>9.2</ele>
        <time>2021-07-02 18:10:10</time>
      </trkpt>
      <trkpt lat="29.23139" lon="-13.50325">
        <ele>9.2</ele>
        <time>2021-07-02 18:10:11</time>
      </trkpt>
      <trkpt lat="29.23138" lon="-13.50329">
        <ele>9.2</ele>
        <time>2021-07-02 18:10:12</time>
      </trkpt>
      <trkpt lat="29.23136" lon="-13.50333">
        <ele>9.2</ele>
        <time>2021-07-02 18:10:13</time>
      </trkpt>
      <trkpt lat="29.23134" lon="-13.50336">
        <ele>9.2</ele>
        <time>2021-07-02 18:10:14</time>
      </trkpt>
      <trkpt lat="29.23133" lon="-13.5034">
        <ele>9.2</ele>
        <time>2021-07-02 18:10:15</time>
      </trkpt>
      <trkpt lat="29.23131" lon="-13.50344">
        <ele>9.4</ele>
        <time>2021-07-02 18:10:16</time>
      </trkpt>
      <trkpt lat="29.2313" lon="-13.50348">
        <ele>9.4</ele>
        <time>2021-07-02 18:10:17</time>
      </trkpt>
      <trkpt lat="29.23129" lon="-13.50352">
        <ele>9.4</ele>
        <time>2021-07-02 18:10:18</time>
      </trkpt>
      <trkpt lat="29.23128" lon="-13.50356">
        <ele>9.4</ele>
        <time>2021-07-02 18:10:19</time>
      </trkpt>
      <trkpt lat="29.23126" lon="-13.5036">
        <ele>9.4</ele>
        <time>2021-07-02 18:10:20</time>
      </trkpt>
      <trkpt lat="29.23125" lon="-13.50364">
        <ele>9.4</ele>
        <time>2021-07-02 18:10:21</time>
      </trkpt>
      <trkpt lat="29.23124" lon="-13.50368">
        <ele>9.4</ele>
        <time>2021-07-02 18:10:22</time>
      </trkpt>
      <trkpt lat="29.23123" lon="-13.50372">
        <ele>9.4</ele>
        <time>2021-07-02 18:10:23</time>
      </trkpt>
      <trkpt lat="29.23122" lon="-13.50375">
        <ele>9.4</ele>
        <time>2021-07-02 18:10:24</time>
      </trkpt>
      <trkpt lat="29.23121" lon="-13.50379">
        <ele>9.4</ele>
        <time>2021-07-02 18:10:25</time>
      </trkpt>
      <trkpt lat="29.2312" lon="-13.50383">
        <ele>9.4</ele>
        <time>2021-07-02 18:10:26</time>
      </trkpt>
      <trkpt lat="29.2312" lon="-13.50385">
        <ele>9.4</ele>
        <time>2021-07-02 18:10:27</time>
      </trkpt>
      <trkpt lat="29.2312" lon="-13.50388">
        <ele>9.4</ele>
        <time>2021-07-02 18:10:28</time>
      </trkpt>
      <trkpt lat="29.23122" lon="-13.5039">
        <ele>9.4</ele>
        <time>2021-07-02 18:10:29</time>
      </trkpt>
      <trkpt lat="29.23123" lon="-13.50392">
        <ele>9.6</ele>
        <time>2021-07-02 18:10:30</time>
      </trkpt>
      <trkpt lat="29.23126" lon="-13.50393">
        <ele>9.6</ele>
        <time>2021-07-02 18:10:31</time>
      </trkpt>
      <trkpt lat="29.23128" lon="-13.50394">
        <ele>9.6</ele>
        <time>2021-07-02 18:10:32</time>
      </trkpt>
      <trkpt lat="29.23131" lon="-13.50395">
        <ele>9.6</ele>
        <time>2021-07-02 18:10:33</time>
      </trkpt>
      <trkpt lat="29.23135" lon="-13.50396">
        <ele>9.6</ele>
        <time>2021-07-02 18:10:34</time>
      </trkpt>
      <trkpt lat="29.23138" lon="-13.50396">
        <ele>9.6</ele>
        <time>2021-07-02 18:10:35</time>
      </trkpt>
      <trkpt lat="29.23141" lon="-13.50396">
        <ele>10</ele>
        <time>2021-07-02 18:10:36</time>
      </trkpt>
      <trkpt lat="29.23144" lon="-13.50396">
        <ele>10</ele>
        <time>2021-07-02 18:10:37</time>
      </trkpt>
      <trkpt lat="29.23147" lon="-13.50397">
        <ele>10</ele>
        <time>2021-07-02 18:10:38</time>
      </trkpt>
      <trkpt lat="29.2315" lon="-13.50397">
        <ele>10</ele>
        <time>2021-07-02 18:10:39</time>
      </trkpt>
      <trkpt lat="29.23153" lon="-13.50398">
        <ele>10.2</ele>
        <time>2021-07-02 18:10:40</time>
      </trkpt>
      <trkpt lat="29.23155" lon="-13.50399">
        <ele>10.2</ele>
        <time>2021-07-02 18:10:41</time>
      </trkpt>
      <trkpt lat="29.23158" lon="-13.504">
        <ele>10.4</ele>
        <time>2021-07-02 18:10:42</time>
      </trkpt>
      <trkpt lat="29.23161" lon="-13.50401">
        <ele>10.4</ele>
        <time>2021-07-02 18:10:43</time>
      </trkpt>
      <trkpt lat="29.23163" lon="-13.50403">
        <ele>10.8</ele>
        <time>2021-07-02 18:10:44</time>
      </trkpt>
      <trkpt lat="29.23166" lon="-13.50404">
        <ele>10.8</ele>
        <time>2021-07-02 18:10:45</time>
      </trkpt>
      <trkpt lat="29.23169" lon="-13.50405">
        <ele>11</ele>
        <time>2021-07-02 18:10:46</time>
      </trkpt>
      <trkpt lat="29.23172" lon="-13.50406">
        <ele>11</ele>
        <time>2021-07-02 18:10:47</time>
      </trkpt>
      <trkpt lat="29.23174" lon="-13.50406">
        <ele>11</ele>
        <time>2021-07-02 18:10:48</time>
      </trkpt>
      <trkpt lat="29.23177" lon="-13.50407">
        <ele>11.4</ele>
        <time>2021-07-02 18:10:49</time>
      </trkpt>
      <trkpt lat="29.23179" lon="-13.50409">
        <ele>11.4</ele>
        <time>2021-07-02 18:10:50</time>
      </trkpt>
      <trkpt lat="29.23182" lon="-13.5041">
        <ele>11.4</ele>
        <time>2021-07-02 18:10:51</time>
      </trkpt>
      <trkpt lat="29.23184" lon="-13.50411">
        <ele>11.4</ele>
        <time>2021-07-02 18:10:52</time>
      </trkpt>
      <trkpt lat="29.23187" lon="-13.50413">
        <ele>11.4</ele>
        <time>2021-07-02 18:10:53</time>
      </trkpt>
      <trkpt lat="29.2319" lon="-13.50415">
        <ele>11.4</ele>
        <time>2021-07-02 18:10:54</time>
      </trkpt>
      <trkpt lat="29.23193" lon="-13.50417">
        <ele>11.4</ele>
        <time>2021-07-02 18:10:55</time>
      </trkpt>
      <trkpt lat="29.23197" lon="-13.50419">
        <ele>11.6</ele>
        <time>2021-07-02 18:10:56</time>
      </trkpt>
      <trkpt lat="29.232" lon="-13.50421">
        <ele>11.6</ele>
        <time>2021-07-02 18:10:57</time>
      </trkpt>
      <trkpt lat="29.23202" lon="-13.50423">
        <ele>11.8</ele>
        <time>2021-07-02 18:10:58</time>
      </trkpt>
      <trkpt lat="29.23205" lon="-13.50426">
        <ele>11.8</ele>
        <time>2021-07-02 18:10:59</time>
      </trkpt>
      <trkpt lat="29.23206" lon="-13.50428">
        <ele>11.8</ele>
        <time>2021-07-02 18:11:00</time>
      </trkpt>
      <trkpt lat="29.23207" lon="-13.50429">
        <ele>12</ele>
        <time>2021-07-02 18:11:01</time>
      </trkpt>
      <trkpt lat="29.23208" lon="-13.50431">
        <ele>12</ele>
        <time>2021-07-02 18:11:02</time>
      </trkpt>
      <trkpt lat="29.23209" lon="-13.50434">
        <ele>12</ele>
        <time>2021-07-02 18:11:03</time>
      </trkpt>
      <trkpt lat="29.23209" lon="-13.50437">
        <ele>12.4</ele>
        <time>2021-07-02 18:11:04</time>
      </trkpt>
      <trkpt lat="29.23209" lon="-13.50439">
        <ele>12.4</ele>
        <time>2021-07-02 18:11:05</time>
      </trkpt>
      <trkpt lat="29.23208" lon="-13.50441">
        <ele>12.4</ele>
        <time>2021-07-02 18:11:06</time>
      </trkpt>
      <trkpt lat="29.23207" lon="-13.50442">
        <ele>12.6</ele>
        <time>2021-07-02 18:11:07</time>
      </trkpt>
      <trkpt lat="29.23206" lon="-13.50444">
        <ele>12.6</ele>
        <time>2021-07-02 18:11:08</time>
      </trkpt>
      <trkpt lat="29.23205" lon="-13.50447">
        <ele>12.6</ele>
        <time>2021-07-02 18:11:09</time>
      </trkpt>
      <trkpt lat="29.23203" lon="-13.50449">
        <ele>12.6</ele>
        <time>2021-07-02 18:11:10</time>
      </trkpt>
      <trkpt lat="29.23202" lon="-13.50451">
        <ele>12.6</ele>
        <time>2021-07-02 18:11:11</time>
      </trkpt>
      <trkpt lat="29.232" lon="-13.50453">
        <ele>12.8</ele>
        <time>2021-07-02 18:11:12</time>
      </trkpt>
      <trkpt lat="29.23199" lon="-13.50455">
        <ele>12.8</ele>
        <time>2021-07-02 18:11:13</time>
      </trkpt>
      <trkpt lat="29.23199" lon="-13.50458">
        <ele>12.8</ele>
        <time>2021-07-02 18:11:14</time>
      </trkpt>
      <trkpt lat="29.232" lon="-13.50461">
        <ele>12.8</ele>
        <time>2021-07-02 18:11:15</time>
      </trkpt>
      <trkpt lat="29.23201" lon="-13.50464">
        <ele>12.8</ele>
        <time>2021-07-02 18:11:16</time>
      </trkpt>
      <trkpt lat="29.23202" lon="-13.50467">
        <ele>12.8</ele>
        <time>2021-07-02 18:11:17</time>
      </trkpt>
      <trkpt lat="29.23204" lon="-13.50469">
        <ele>12.8</ele>
        <time>2021-07-02 18:11:18</time>
      </trkpt>
      <trkpt lat="29.23206" lon="-13.50472">
        <ele>12.8</ele>
        <time>2021-07-02 18:11:19</time>
      </trkpt>
      <trkpt lat="29.23208" lon="-13.50474">
        <ele>13</ele>
        <time>2021-07-02 18:11:20</time>
      </trkpt>
      <trkpt lat="29.2321" lon="-13.50477">
        <ele>13</ele>
        <time>2021-07-02 18:11:21</time>
      </trkpt>
      <trkpt lat="29.23212" lon="-13.50481">
        <ele>13</ele>
        <time>2021-07-02 18:11:22</time>
      </trkpt>
      <trkpt lat="29.23214" lon="-13.50484">
        <ele>13.2</ele>
        <time>2021-07-02 18:11:23</time>
      </trkpt>
      <trkpt lat="29.23216" lon="-13.50487">
        <ele>13.2</ele>
        <time>2021-07-02 18:11:24</time>
      </trkpt>
      <trkpt lat="29.23218" lon="-13.5049">
        <ele>13.6</ele>
        <time>2021-07-02 18:11:25</time>
      </trkpt>
      <trkpt lat="29.2322" lon="-13.50492">
        <ele>13.6</ele>
        <time>2021-07-02 18:11:26</time>
      </trkpt>
      <trkpt lat="29.23222" lon="-13.50494">
        <ele>13.6</ele>
        <time>2021-07-02 18:11:27</time>
      </trkpt>
      <trkpt lat="29.23224" lon="-13.50496">
        <ele>13.8</ele>
        <time>2021-07-02 18:11:28</time>
      </trkpt>
      <trkpt lat="29.23227" lon="-13.50498">
        <ele>14</ele>
        <time>2021-07-02 18:11:29</time>
      </trkpt>
      <trkpt lat="29.23229" lon="-13.505">
        <ele>14</ele>
        <time>2021-07-02 18:11:30</time>
      </trkpt>
      <trkpt lat="29.23232" lon="-13.50501">
        <ele>14.4</ele>
        <time>2021-07-02 18:11:31</time>
      </trkpt>
      <trkpt lat="29.23234" lon="-13.50503">
        <ele>14.4</ele>
        <time>2021-07-02 18:11:32</time>
      </trkpt>
      <trkpt lat="29.23237" lon="-13.50504">
        <ele>14.6</ele>
        <time>2021-07-02 18:11:33</time>
      </trkpt>
      <trkpt lat="29.2324" lon="-13.50504">
        <ele>14.6</ele>
        <time>2021-07-02 18:11:34</time>
      </trkpt>
      <trkpt lat="29.23244" lon="-13.50505">
        <ele>14.8</ele>
        <time>2021-07-02 18:11:35</time>
      </trkpt>
      <trkpt lat="29.23246" lon="-13.50505">
        <ele>14.8</ele>
        <time>2021-07-02 18:11:36</time>
      </trkpt>
      <trkpt lat="29.23249" lon="-13.50505">
        <ele>15.2</ele>
        <time>2021-07-02 18:11:37</time>
      </trkpt>
      <trkpt lat="29.23253" lon="-13.50505">
        <ele>15.2</ele>
        <time>2021-07-02 18:11:38</time>
      </trkpt>
      <trkpt lat="29.23255" lon="-13.50506">
        <ele>15.4</ele>
        <time>2021-07-02 18:11:39</time>
      </trkpt>
      <trkpt lat="29.23258" lon="-13.50506">
        <ele>15.4</ele>
        <time>2021-07-02 18:11:40</time>
      </trkpt>
      <trkpt lat="29.23261" lon="-13.50506">
        <ele>15.6</ele>
        <time>2021-07-02 18:11:41</time>
      </trkpt>
      <trkpt lat="29.23264" lon="-13.50507">
        <ele>15.6</ele>
        <time>2021-07-02 18:11:42</time>
      </trkpt>
      <trkpt lat="29.23267" lon="-13.50507">
        <ele>16</ele>
        <time>2021-07-02 18:11:43</time>
      </trkpt>
      <trkpt lat="29.23269" lon="-13.50507">
        <ele>16.2</ele>
        <time>2021-07-02 18:11:44</time>
      </trkpt>
      <trkpt lat="29.23272" lon="-13.50507">
        <ele>16.2</ele>
        <time>2021-07-02 18:11:45</time>
      </trkpt>
      <trkpt lat="29.23274" lon="-13.50506">
        <ele>16.6</ele>
        <time>2021-07-02 18:11:46</time>
      </trkpt>
      <trkpt lat="29.23277" lon="-13.50506">
        <ele>16.8</ele>
        <time>2021-07-02 18:11:47</time>
      </trkpt>
      <trkpt lat="29.2328" lon="-13.50506">
        <ele>17</ele>
        <time>2021-07-02 18:11:48</time>
      </trkpt>
      <trkpt lat="29.23282" lon="-13.50505">
        <ele>17.2</ele>
        <time>2021-07-02 18:11:49</time>
      </trkpt>
      <trkpt lat="29.23285" lon="-13.50505">
        <ele>17.2</ele>
        <time>2021-07-02 18:11:50</time>
      </trkpt>
      <trkpt lat="29.23287" lon="-13.50505">
        <ele>17.6</ele>
        <time>2021-07-02 18:11:51</time>
      </trkpt>
      <trkpt lat="29.2329" lon="-13.50504">
        <ele>17.6</ele>
        <time>2021-07-02 18:11:52</time>
      </trkpt>
      <trkpt lat="29.23293" lon="-13.50503">
        <ele>18</ele>
        <time>2021-07-02 18:11:53</time>
      </trkpt>
      <trkpt lat="29.23295" lon="-13.50502">
        <ele>18</ele>
        <time>2021-07-02 18:11:54</time>
      </trkpt>
      <trkpt lat="29.23299" lon="-13.50501">
        <ele>18.2</ele>
        <time>2021-07-02 18:11:55</time>
      </trkpt>
      <trkpt lat="29.23302" lon="-13.505">
        <ele>18.2</ele>
        <time>2021-07-02 18:11:56</time>
      </trkpt>
      <trkpt lat="29.23305" lon="-13.505">
        <ele>18.4</ele>
        <time>2021-07-02 18:11:57</time>
      </trkpt>
      <trkpt lat="29.23308" lon="-13.50499">
        <ele>18.4</ele>
        <time>2021-07-02 18:11:58</time>
      </trkpt>
      <trkpt lat="29.2331" lon="-13.50499">
        <ele>18.6</ele>
        <time>2021-07-02 18:11:59</time>
      </trkpt>
      <trkpt lat="29.23313" lon="-13.50498">
        <ele>18.6</ele>
        <time>2021-07-02 18:12:00</time>
      </trkpt>
      <trkpt lat="29.23315" lon="-13.50498">
        <ele>18.6</ele>
        <time>2021-07-02 18:12:01</time>
      </trkpt>
      <trkpt lat="29.23317" lon="-13.50498">
        <ele>19</ele>
        <time>2021-07-02 18:12:02</time>
      </trkpt>
      <trkpt lat="29.23319" lon="-13.50497">
        <ele>19</ele>
        <time>2021-07-02 18:12:03</time>
      </trkpt>
      <trkpt lat="29.23322" lon="-13.50497">
        <ele>19</ele>
        <time>2021-07-02 18:12:04</time>
      </trkpt>
      <trkpt lat="29.23324" lon="-13.50497">
        <ele>19.4</ele>
        <time>2021-07-02 18:12:05</time>
      </trkpt>
      <trkpt lat="29.23326" lon="-13.50497">
        <ele>19.4</ele>
        <time>2021-07-02 18:12:06</time>
      </trkpt>
      <trkpt lat="29.23329" lon="-13.50497">
        <ele>19.6</ele>
        <time>2021-07-02 18:12:07</time>
      </trkpt>
      <trkpt lat="29.23332" lon="-13.50497">
        <ele>19.6</ele>
        <time>2021-07-02 18:12:08</time>
      </trkpt>
      <trkpt lat="29.23334" lon="-13.50497">
        <ele>19.6</ele>
        <time>2021-07-02 18:12:09</time>
      </trkpt>
      <trkpt lat="29.23337" lon="-13.50497">
        <ele>19.8</ele>
        <time>2021-07-02 18:12:10</time>
      </trkpt>
      <trkpt lat="29.2334" lon="-13.50497">
        <ele>19.8</ele>
        <time>2021-07-02 18:12:11</time>
      </trkpt>
      <trkpt lat="29.23343" lon="-13.50497">
        <ele>19.8</ele>
        <time>2021-07-02 18:12:12</time>
      </trkpt>
      <trkpt lat="29.23346" lon="-13.50497">
        <ele>20.2</ele>
        <time>2021-07-02 18:12:13</time>
      </trkpt>
      <trkpt lat="29.23349" lon="-13.50496">
        <ele>20.4</ele>
        <time>2021-07-02 18:12:14</time>
      </trkpt>
      <trkpt lat="29.23352" lon="-13.50496">
        <ele>20.4</ele>
        <time>2021-07-02 18:12:15</time>
      </trkpt>
      <trkpt lat="29.23355" lon="-13.50496">
        <ele>20.6</ele>
        <time>2021-07-02 18:12:16</time>
      </trkpt>
      <trkpt lat="29.23359" lon="-13.50496">
        <ele>20.6</ele>
        <time>2021-07-02 18:12:17</time>
      </trkpt>
      <trkpt lat="29.23362" lon="-13.50497">
        <ele>20.6</ele>
        <time>2021-07-02 18:12:18</time>
      </trkpt>
      <trkpt lat="29.23365" lon="-13.50498">
        <ele>21</ele>
        <time>2021-07-02 18:12:19</time>
      </trkpt>
      <trkpt lat="29.23368" lon="-13.50498">
        <ele>21</ele>
        <time>2021-07-02 18:12:20</time>
      </trkpt>
      <trkpt lat="29.23371" lon="-13.50499">
        <ele>21</ele>
        <time>2021-07-02 18:12:21</time>
      </trkpt>
      <trkpt lat="29.23374" lon="-13.505">
        <ele>21.2</ele>
        <time>2021-07-02 18:12:22</time>
      </trkpt>
      <trkpt lat="29.23377" lon="-13.505">
        <ele>21.2</ele>
        <time>2021-07-02 18:12:23</time>
      </trkpt>
      <trkpt lat="29.23381" lon="-13.50501">
        <ele>21.6</ele>
        <time>2021-07-02 18:12:24</time>
      </trkpt>
      <trkpt lat="29.23384" lon="-13.50502">
        <ele>21.6</ele>
        <time>2021-07-02 18:12:25</time>
      </trkpt>
      <trkpt lat="29.23387" lon="-13.50503">
        <ele>21.8</ele>
        <time>2021-07-02 18:12:26</time>
      </trkpt>
      <trkpt lat="29.2339" lon="-13.50504">
        <ele>21.8</ele>
        <time>2021-07-02 18:12:27</time>
      </trkpt>
      <trkpt lat="29.23393" lon="-13.50505">
        <ele>21.8</ele>
        <time>2021-07-02 18:12:28</time>
      </trkpt>
      <trkpt lat="29.23395" lon="-13.50506">
        <ele>21.8</ele>
        <time>2021-07-02 18:12:29</time>
      </trkpt>
      <trkpt lat="29.23398" lon="-13.50506">
        <ele>22.2</ele>
        <time>2021-07-02 18:12:30</time>
      </trkpt>
      <trkpt lat="29.23401" lon="-13.50507">
        <ele>22.2</ele>
        <time>2021-07-02 18:12:31</time>
      </trkpt>
      <trkpt lat="29.23404" lon="-13.50507">
        <ele>22.2</ele>
        <time>2021-07-02 18:12:32</time>
      </trkpt>
      <trkpt lat="29.23407" lon="-13.50507">
        <ele>22.4</ele>
        <time>2021-07-02 18:12:33</time>
      </trkpt>
      <trkpt lat="29.2341" lon="-13.50508">
        <ele>22.4</ele>
        <time>2021-07-02 18:12:34</time>
      </trkpt>
      <trkpt lat="29.23414" lon="-13.50508">
        <ele>22.8</ele>
        <time>2021-07-02 18:12:35</time>
      </trkpt>
      <trkpt lat="29.23417" lon="-13.50509">
        <ele>22.8</ele>
        <time>2021-07-02 18:12:36</time>
      </trkpt>
      <trkpt lat="29.2342" lon="-13.50509">
        <ele>23</ele>
        <time>2021-07-02 18:12:37</time>
      </trkpt>
      <trkpt lat="29.23423" lon="-13.5051">
        <ele>23</ele>
        <time>2021-07-02 18:12:38</time>
      </trkpt>
      <trkpt lat="29.23426" lon="-13.5051">
        <ele>23.2</ele>
        <time>2021-07-02 18:12:39</time>
      </trkpt>
      <trkpt lat="29.23429" lon="-13.50511">
        <ele>23.2</ele>
        <time>2021-07-02 18:12:40</time>
      </trkpt>
      <trkpt lat="29.23432" lon="-13.50511">
        <ele>23.6</ele>
        <time>2021-07-02 18:12:41</time>
      </trkpt>
      <trkpt lat="29.23435" lon="-13.50512">
        <ele>23.6</ele>
        <time>2021-07-02 18:12:42</time>
      </trkpt>
      <trkpt lat="29.23437" lon="-13.50512">
        <ele>23.8</ele>
        <time>2021-07-02 18:12:43</time>
      </trkpt>
      <trkpt lat="29.2344" lon="-13.50512">
        <ele>23.8</ele>
        <time>2021-07-02 18:12:44</time>
      </trkpt>
      <trkpt lat="29.23442" lon="-13.50512">
        <ele>23.8</ele>
        <time>2021-07-02 18:12:45</time>
      </trkpt>
      <trkpt lat="29.23445" lon="-13.50512">
        <ele>24</ele>
        <time>2021-07-02 18:12:46</time>
      </trkpt>
      <trkpt lat="29.23448" lon="-13.50513">
        <ele>24</ele>
        <time>2021-07-02 18:12:47</time>
      </trkpt>
      <trkpt lat="29.23451" lon="-13.50513">
        <ele>24.2</ele>
        <time>2021-07-02 18:12:48</time>
      </trkpt>
      <trkpt lat="29.23454" lon="-13.50514">
        <ele>24.4</ele>
        <time>2021-07-02 18:12:49</time>
      </trkpt>
      <trkpt lat="29.23457" lon="-13.50514">
        <ele>24.4</ele>
        <time>2021-07-02 18:12:50</time>
      </trkpt>
      <trkpt lat="29.2346" lon="-13.50515">
        <ele>24.8</ele>
        <time>2021-07-02 18:12:51</time>
      </trkpt>
      <trkpt lat="29.23463" lon="-13.50515">
        <ele>24.8</ele>
        <time>2021-07-02 18:12:52</time>
      </trkpt>
      <trkpt lat="29.23466" lon="-13.50516">
        <ele>25</ele>
        <time>2021-07-02 18:12:53</time>
      </trkpt>
      <trkpt lat="29.23469" lon="-13.50516">
        <ele>25</ele>
        <time>2021-07-02 18:12:54</time>
      </trkpt>
      <trkpt lat="29.23471" lon="-13.50517">
        <ele>25</ele>
        <time>2021-07-02 18:12:55</time>
      </trkpt>
      <trkpt lat="29.23474" lon="-13.50518">
        <ele>25.4</ele>
        <time>2021-07-02 18:12:56</time>
      </trkpt>
      <trkpt lat="29.23477" lon="-13.50518">
        <ele>25.6</ele>
        <time>2021-07-02 18:12:57</time>
      </trkpt>
      <trkpt lat="29.2348" lon="-13.50519">
        <ele>26</ele>
        <time>2021-07-02 18:12:58</time>
      </trkpt>
      <trkpt lat="29.23483" lon="-13.50519">
        <ele>26.2</ele>
        <time>2021-07-02 18:12:59</time>
      </trkpt>
      <trkpt lat="29.23486" lon="-13.50519">
        <ele>26.4</ele>
        <time>2021-07-02 18:13:00</time>
      </trkpt>
      <trkpt lat="29.23489" lon="-13.50519">
        <ele>26.4</ele>
        <time>2021-07-02 18:13:01</time>
      </trkpt>
      <trkpt lat="29.23492" lon="-13.5052">
        <ele>26.6</ele>
        <time>2021-07-02 18:13:02</time>
      </trkpt>
      <trkpt lat="29.23495" lon="-13.50521">
        <ele>26.6</ele>
        <time>2021-07-02 18:13:03</time>
      </trkpt>
      <trkpt lat="29.23497" lon="-13.50521">
        <ele>27</ele>
        <time>2021-07-02 18:13:04</time>
      </trkpt>
      <trkpt lat="29.235" lon="-13.50522">
        <ele>27</ele>
        <time>2021-07-02 18:13:05</time>
      </trkpt>
      <trkpt lat="29.23502" lon="-13.50523">
        <ele>27</ele>
        <time>2021-07-02 18:13:06</time>
      </trkpt>
      <trkpt lat="29.23504" lon="-13.50524">
        <ele>27</ele>
        <time>2021-07-02 18:13:07</time>
      </trkpt>
      <trkpt lat="29.23507" lon="-13.50524">
        <ele>27.2</ele>
        <time>2021-07-02 18:13:08</time>
      </trkpt>
      <trkpt lat="29.23509" lon="-13.50525">
        <ele>27.2</ele>
        <time>2021-07-02 18:13:09</time>
      </trkpt>
      <trkpt lat="29.23512" lon="-13.50526">
        <ele>27.6</ele>
        <time>2021-07-02 18:13:10</time>
      </trkpt>
      <trkpt lat="29.23515" lon="-13.50527">
        <ele>27.6</ele>
        <time>2021-07-02 18:13:11</time>
      </trkpt>
      <trkpt lat="29.23518" lon="-13.50528">
        <ele>27.8</ele>
        <time>2021-07-02 18:13:12</time>
      </trkpt>
      <trkpt lat="29.23521" lon="-13.50528">
        <ele>28.2</ele>
        <time>2021-07-02 18:13:13</time>
      </trkpt>
      <trkpt lat="29.23524" lon="-13.50529">
        <ele>28.4</ele>
        <time>2021-07-02 18:13:14</time>
      </trkpt>
      <trkpt lat="29.23527" lon="-13.5053">
        <ele>28.6</ele>
        <time>2021-07-02 18:13:15</time>
      </trkpt>
      <trkpt lat="29.2353" lon="-13.5053">
        <ele>28.6</ele>
        <time>2021-07-02 18:13:16</time>
      </trkpt>
      <trkpt lat="29.23532" lon="-13.5053">
        <ele>29</ele>
        <time>2021-07-02 18:13:17</time>
      </trkpt>
      <trkpt lat="29.23535" lon="-13.50531">
        <ele>29.2</ele>
        <time>2021-07-02 18:13:18</time>
      </trkpt>
      <trkpt lat="29.23538" lon="-13.50531">
        <ele>29.2</ele>
        <time>2021-07-02 18:13:19</time>
      </trkpt>
      <trkpt lat="29.23541" lon="-13.50532">
        <ele>29.6</ele>
        <time>2021-07-02 18:13:20</time>
      </trkpt>
      <trkpt lat="29.23543" lon="-13.50532">
        <ele>29.6</ele>
        <time>2021-07-02 18:13:21</time>
      </trkpt>
      <trkpt lat="29.23546" lon="-13.50532">
        <ele>30</ele>
        <time>2021-07-02 18:13:22</time>
      </trkpt>
      <trkpt lat="29.23549" lon="-13.50532">
        <ele>30</ele>
        <time>2021-07-02 18:13:23</time>
      </trkpt>
      <trkpt lat="29.23551" lon="-13.50533">
        <ele>30.2</ele>
        <time>2021-07-02 18:13:24</time>
      </trkpt>
      <trkpt lat="29.23554" lon="-13.50533">
        <ele>30.2</ele>
        <time>2021-07-02 18:13:25</time>
      </trkpt>
      <trkpt lat="29.23557" lon="-13.50533">
        <ele>30.6</ele>
        <time>2021-07-02 18:13:26</time>
      </trkpt>
      <trkpt lat="29.2356" lon="-13.50534">
        <ele>30.6</ele>
        <time>2021-07-02 18:13:27</time>
      </trkpt>
      <trkpt lat="29.23563" lon="-13.50534">
        <ele>31</ele>
        <time>2021-07-02 18:13:28</time>
      </trkpt>
      <trkpt lat="29.23565" lon="-13.50535">
        <ele>31</ele>
        <time>2021-07-02 18:13:29</time>
      </trkpt>
      <trkpt lat="29.23568" lon="-13.50536">
        <ele>31.2</ele>
        <time>2021-07-02 18:13:30</time>
      </trkpt>
      <trkpt lat="29.2357" lon="-13.50537">
        <ele>31.2</ele>
        <time>2021-07-02 18:13:31</time>
      </trkpt>
      <trkpt lat="29.23572" lon="-13.50539">
        <ele>31.6</ele>
        <time>2021-07-02 18:13:32</time>
      </trkpt>
      <trkpt lat="29.23574" lon="-13.5054">
        <ele>31.8</ele>
        <time>2021-07-02 18:13:33</time>
      </trkpt>
      <trkpt lat="29.23576" lon="-13.5054">
        <ele>32</ele>
        <time>2021-07-02 18:13:34</time>
      </trkpt>
      <trkpt lat="29.23579" lon="-13.50541">
        <ele>32.2</ele>
        <time>2021-07-02 18:13:35</time>
      </trkpt>
      <trkpt lat="29.23582" lon="-13.50541">
        <ele>32.6</ele>
        <time>2021-07-02 18:13:36</time>
      </trkpt>
      <trkpt lat="29.23584" lon="-13.50542">
        <ele>32.6</ele>
        <time>2021-07-02 18:13:37</time>
      </trkpt>
      <trkpt lat="29.23587" lon="-13.50542">
        <ele>33</ele>
        <time>2021-07-02 18:13:38</time>
      </trkpt>
      <trkpt lat="29.23589" lon="-13.50543">
        <ele>33.2</ele>
        <time>2021-07-02 18:13:39</time>
      </trkpt>
      <trkpt lat="29.23592" lon="-13.50544">
        <ele>33.4</ele>
        <time>2021-07-02 18:13:40</time>
      </trkpt>
      <trkpt lat="29.23594" lon="-13.50546">
        <ele>33.4</ele>
        <time>2021-07-02 18:13:41</time>
      </trkpt>
      <trkpt lat="29.23596" lon="-13.50546">
        <ele>33.8</ele>
        <time>2021-07-02 18:13:42</time>
      </trkpt>
      <trkpt lat="29.23598" lon="-13.50547">
        <ele>33.8</ele>
        <time>2021-07-02 18:13:43</time>
      </trkpt>
      <trkpt lat="29.23601" lon="-13.50548">
        <ele>34.2</ele>
        <time>2021-07-02 18:13:44</time>
      </trkpt>
      <trkpt lat="29.23603" lon="-13.50548">
        <ele>34.2</ele>
        <time>2021-07-02 18:13:45</time>
      </trkpt>
      <trkpt lat="29.23605" lon="-13.50549">
        <ele>34.4</ele>
        <time>2021-07-02 18:13:46</time>
      </trkpt>
      <trkpt lat="29.23607" lon="-13.5055">
        <ele>34.4</ele>
        <time>2021-07-02 18:13:47</time>
      </trkpt>
      <trkpt lat="29.23609" lon="-13.50551">
        <ele>34.6</ele>
        <time>2021-07-02 18:13:48</time>
      </trkpt>
      <trkpt lat="29.23611" lon="-13.50553">
        <ele>34.8</ele>
        <time>2021-07-02 18:13:49</time>
      </trkpt>
      <trkpt lat="29.23613" lon="-13.50554">
        <ele>35</ele>
        <time>2021-07-02 18:13:50</time>
      </trkpt>
      <trkpt lat="29.23615" lon="-13.50555">
        <ele>35</ele>
        <time>2021-07-02 18:13:51</time>
      </trkpt>
      <trkpt lat="29.23617" lon="-13.50555">
        <ele>35.4</ele>
        <time>2021-07-02 18:13:52</time>
      </trkpt>
      <trkpt lat="29.2362" lon="-13.50556">
        <ele>35.4</ele>
        <time>2021-07-02 18:13:53</time>
      </trkpt>
      <trkpt lat="29.23622" lon="-13.50557">
        <ele>35.6</ele>
        <time>2021-07-02 18:13:54</time>
      </trkpt>
      <trkpt lat="29.23625" lon="-13.50558">
        <ele>35.6</ele>
        <time>2021-07-02 18:13:55</time>
      </trkpt>
      <trkpt lat="29.23627" lon="-13.50559">
        <ele>35.8</ele>
        <time>2021-07-02 18:13:56</time>
      </trkpt>
      <trkpt lat="29.2363" lon="-13.5056">
        <ele>35.8</ele>
        <time>2021-07-02 18:13:57</time>
      </trkpt>
      <trkpt lat="29.23632" lon="-13.5056">
        <ele>36.2</ele>
        <time>2021-07-02 18:13:58</time>
      </trkpt>
      <trkpt lat="29.23634" lon="-13.50561">
        <ele>36.2</ele>
        <time>2021-07-02 18:13:59</time>
      </trkpt>
      <trkpt lat="29.23637" lon="-13.50562">
        <ele>36.4</ele>
        <time>2021-07-02 18:14:00</time>
      </trkpt>
      <trkpt lat="29.23639" lon="-13.50563">
        <ele>36.4</ele>
        <time>2021-07-02 18:14:01</time>
      </trkpt>
      <trkpt lat="29.23641" lon="-13.50563">
        <ele>36.8</ele>
        <time>2021-07-02 18:14:02</time>
      </trkpt>
      <trkpt lat="29.23644" lon="-13.50564">
        <ele>36.8</ele>
        <time>2021-07-02 18:14:03</time>
      </trkpt>
      <trkpt lat="29.23646" lon="-13.50565">
        <ele>37</ele>
        <time>2021-07-02 18:14:04</time>
      </trkpt>
      <trkpt lat="29.23649" lon="-13.50566">
        <ele>37</ele>
        <time>2021-07-02 18:14:05</time>
      </trkpt>
      <trkpt lat="29.23652" lon="-13.50567">
        <ele>37.4</ele>
        <time>2021-07-02 18:14:06</time>
      </trkpt>
      <trkpt lat="29.23654" lon="-13.50567">
        <ele>37.4</ele>
        <time>2021-07-02 18:14:07</time>
      </trkpt>
      <trkpt lat="29.23657" lon="-13.50568">
        <ele>37.4</ele>
        <time>2021-07-02 18:14:08</time>
      </trkpt>
      <trkpt lat="29.23659" lon="-13.50568">
        <ele>37.8</ele>
        <time>2021-07-02 18:14:09</time>
      </trkpt>
      <trkpt lat="29.23662" lon="-13.50569">
        <ele>37.8</ele>
        <time>2021-07-02 18:14:10</time>
      </trkpt>
      <trkpt lat="29.23664" lon="-13.5057">
        <ele>38</ele>
        <time>2021-07-02 18:14:11</time>
      </trkpt>
      <trkpt lat="29.23666" lon="-13.5057">
        <ele>38</ele>
        <time>2021-07-02 18:14:12</time>
      </trkpt>
      <trkpt lat="29.23668" lon="-13.50571">
        <ele>38.4</ele>
        <time>2021-07-02 18:14:13</time>
      </trkpt>
      <trkpt lat="29.2367" lon="-13.50572">
        <ele>38.4</ele>
        <time>2021-07-02 18:14:14</time>
      </trkpt>
      <trkpt lat="29.23672" lon="-13.50573">
        <ele>38.6</ele>
        <time>2021-07-02 18:14:15</time>
      </trkpt>
      <trkpt lat="29.23674" lon="-13.50573">
        <ele>38.6</ele>
        <time>2021-07-02 18:14:16</time>
      </trkpt>
      <trkpt lat="29.23676" lon="-13.50574">
        <ele>39</ele>
        <time>2021-07-02 18:14:17</time>
      </trkpt>
      <trkpt lat="29.23678" lon="-13.50574">
        <ele>39</ele>
        <time>2021-07-02 18:14:18</time>
      </trkpt>
      <trkpt lat="29.2368" lon="-13.50575">
        <ele>39.2</ele>
        <time>2021-07-02 18:14:19</time>
      </trkpt>
      <trkpt lat="29.23682" lon="-13.50576">
        <ele>39.2</ele>
        <time>2021-07-02 18:14:20</time>
      </trkpt>
      <trkpt lat="29.23684" lon="-13.50577">
        <ele>39.2</ele>
        <time>2021-07-02 18:14:21</time>
      </trkpt>
      <trkpt lat="29.23686" lon="-13.50578">
        <ele>39.4</ele>
        <time>2021-07-02 18:14:22</time>
      </trkpt>
      <trkpt lat="29.23688" lon="-13.50579">
        <ele>39.4</ele>
        <time>2021-07-02 18:14:23</time>
      </trkpt>
      <trkpt lat="29.2369" lon="-13.50579">
        <ele>39.6</ele>
        <time>2021-07-02 18:14:24</time>
      </trkpt>
      <trkpt lat="29.23692" lon="-13.50579">
        <ele>39.6</ele>
        <time>2021-07-02 18:14:25</time>
      </trkpt>
      <trkpt lat="29.23694" lon="-13.5058">
        <ele>39.6</ele>
        <time>2021-07-02 18:14:26</time>
      </trkpt>
      <trkpt lat="29.23697" lon="-13.5058">
        <ele>40</ele>
        <time>2021-07-02 18:14:27</time>
      </trkpt>
      <trkpt lat="29.23699" lon="-13.50581">
        <ele>40</ele>
        <time>2021-07-02 18:14:28</time>
      </trkpt>
      <trkpt lat="29.23701" lon="-13.50581">
        <ele>40.2</ele>
        <time>2021-07-02 18:14:29</time>
      </trkpt>
      <trkpt lat="29.23703" lon="-13.50582">
        <ele>40.2</ele>
        <time>2021-07-02 18:14:30</time>
      </trkpt>
      <trkpt lat="29.23706" lon="-13.50582">
        <ele>40.2</ele>
        <time>2021-07-02 18:14:31</time>
      </trkpt>
      <trkpt lat="29.23708" lon="-13.50583">
        <ele>40.4</ele>
        <time>2021-07-02 18:14:32</time>
      </trkpt>
      <trkpt lat="29.2371" lon="-13.50583">
        <ele>40.4</ele>
        <time>2021-07-02 18:14:33</time>
      </trkpt>
      <trkpt lat="29.23713" lon="-13.50584">
        <ele>40.8</ele>
        <time>2021-07-02 18:14:34</time>
      </trkpt>
      <trkpt lat="29.23715" lon="-13.50585">
        <ele>40.8</ele>
        <time>2021-07-02 18:14:35</time>
      </trkpt>
      <trkpt lat="29.23718" lon="-13.50585">
        <ele>41</ele>
        <time>2021-07-02 18:14:36</time>
      </trkpt>
      <trkpt lat="29.2372" lon="-13.50586">
        <ele>41</ele>
        <time>2021-07-02 18:14:37</time>
      </trkpt>
      <trkpt lat="29.23723" lon="-13.50586">
        <ele>41.2</ele>
        <time>2021-07-02 18:14:38</time>
      </trkpt>
      <trkpt lat="29.23726" lon="-13.50587">
        <ele>41.2</ele>
        <time>2021-07-02 18:14:39</time>
      </trkpt>
      <trkpt lat="29.23728" lon="-13.50587">
        <ele>41.2</ele>
        <time>2021-07-02 18:14:40</time>
      </trkpt>
      <trkpt lat="29.2373" lon="-13.50587">
        <ele>41.6</ele>
        <time>2021-07-02 18:14:41</time>
      </trkpt>
      <trkpt lat="29.23733" lon="-13.50588">
        <ele>41.6</ele>
        <time>2021-07-02 18:14:42</time>
      </trkpt>
      <trkpt lat="29.23735" lon="-13.50589">
        <ele>41.8</ele>
        <time>2021-07-02 18:14:43</time>
      </trkpt>
      <trkpt lat="29.23738" lon="-13.5059">
        <ele>41.8</ele>
        <time>2021-07-02 18:14:44</time>
      </trkpt>
      <trkpt lat="29.23741" lon="-13.5059">
        <ele>42</ele>
        <time>2021-07-02 18:14:45</time>
      </trkpt>
      <trkpt lat="29.23743" lon="-13.50591">
        <ele>42</ele>
        <time>2021-07-02 18:14:46</time>
      </trkpt>
      <trkpt lat="29.23746" lon="-13.50591">
        <ele>42.2</ele>
        <time>2021-07-02 18:14:47</time>
      </trkpt>
      <trkpt lat="29.23749" lon="-13.50591">
        <ele>42.2</ele>
        <time>2021-07-02 18:14:48</time>
      </trkpt>
      <trkpt lat="29.23752" lon="-13.50591">
        <ele>42.4</ele>
        <time>2021-07-02 18:14:49</time>
      </trkpt>
      <trkpt lat="29.23755" lon="-13.50591">
        <ele>42.8</ele>
        <time>2021-07-02 18:14:50</time>
      </trkpt>
      <trkpt lat="29.23758" lon="-13.50592">
        <ele>43</ele>
        <time>2021-07-02 18:14:51</time>
      </trkpt>
      <trkpt lat="29.2376" lon="-13.50592">
        <ele>43</ele>
        <time>2021-07-02 18:14:52</time>
      </trkpt>
      <trkpt lat="29.23763" lon="-13.50593">
        <ele>43.2</ele>
        <time>2021-07-02 18:14:53</time>
      </trkpt>
      <trkpt lat="29.23766" lon="-13.50594">
        <ele>43.2</ele>
        <time>2021-07-02 18:14:54</time>
      </trkpt>
      <trkpt lat="29.23768" lon="-13.50595">
        <ele>43.4</ele>
        <time>2021-07-02 18:14:55</time>
      </trkpt>
      <trkpt lat="29.2377" lon="-13.50596">
        <ele>43.6</ele>
        <time>2021-07-02 18:14:56</time>
      </trkpt>
      <trkpt lat="29.23773" lon="-13.50597">
        <ele>43.6</ele>
        <time>2021-07-02 18:14:57</time>
      </trkpt>
      <trkpt lat="29.23775" lon="-13.50598">
        <ele>43.6</ele>
        <time>2021-07-02 18:14:58</time>
      </trkpt>
      <trkpt lat="29.23778" lon="-13.50599">
        <ele>43.8</ele>
        <time>2021-07-02 18:14:59</time>
      </trkpt>
      <trkpt lat="29.2378" lon="-13.506">
        <ele>43.8</ele>
        <time>2021-07-02 18:15:00</time>
      </trkpt>
      <trkpt lat="29.23783" lon="-13.50601">
        <ele>43.8</ele>
        <time>2021-07-02 18:15:01</time>
      </trkpt>
      <trkpt lat="29.23785" lon="-13.50602">
        <ele>44.2</ele>
        <time>2021-07-02 18:15:02</time>
      </trkpt>
      <trkpt lat="29.23788" lon="-13.50603">
        <ele>44.2</ele>
        <time>2021-07-02 18:15:03</time>
      </trkpt>
      <trkpt lat="29.23791" lon="-13.50603">
        <ele>44.4</ele>
        <time>2021-07-02 18:15:04</time>
      </trkpt>
      <trkpt lat="29.23794" lon="-13.50604">
        <ele>44.4</ele>
        <time>2021-07-02 18:15:05</time>
      </trkpt>
      <trkpt lat="29.23796" lon="-13.50605">
        <ele>44.6</ele>
        <time>2021-07-02 18:15:06</time>
      </trkpt>
      <trkpt lat="29.23799" lon="-13.50606">
        <ele>44.6</ele>
        <time>2021-07-02 18:15:07</time>
      </trkpt>
      <trkpt lat="29.23801" lon="-13.50606">
        <ele>45</ele>
        <time>2021-07-02 18:15:08</time>
      </trkpt>
      <trkpt lat="29.23804" lon="-13.50607">
        <ele>45</ele>
        <time>2021-07-02 18:15:09</time>
      </trkpt>
      <trkpt lat="29.23806" lon="-13.50608">
        <ele>45.2</ele>
        <time>2021-07-02 18:15:10</time>
      </trkpt>
      <trkpt lat="29.23808" lon="-13.50609">
        <ele>45.4</ele>
        <time>2021-07-02 18:15:11</time>
      </trkpt>
      <trkpt lat="29.2381" lon="-13.50609">
        <ele>45.6</ele>
        <time>2021-07-02 18:15:12</time>
      </trkpt>
      <trkpt lat="29.23813" lon="-13.5061">
        <ele>45.6</ele>
        <time>2021-07-02 18:15:13</time>
      </trkpt>
      <trkpt lat="29.23815" lon="-13.50611">
        <ele>46</ele>
        <time>2021-07-02 18:15:14</time>
      </trkpt>
      <trkpt lat="29.23818" lon="-13.50612">
        <ele>46.2</ele>
        <time>2021-07-02 18:15:15</time>
      </trkpt>
      <trkpt lat="29.23821" lon="-13.50613">
        <ele>46.2</ele>
        <time>2021-07-02 18:15:16</time>
      </trkpt>
      <trkpt lat="29.23823" lon="-13.50614">
        <ele>46.2</ele>
        <time>2021-07-02 18:15:17</time>
      </trkpt>
      <trkpt lat="29.23826" lon="-13.50616">
        <ele>46.6</ele>
        <time>2021-07-02 18:15:18</time>
      </trkpt>
      <trkpt lat="29.23828" lon="-13.50617">
        <ele>46.6</ele>
        <time>2021-07-02 18:15:19</time>
      </trkpt>
      <trkpt lat="29.23831" lon="-13.50618">
        <ele>46.8</ele>
        <time>2021-07-02 18:15:20</time>
      </trkpt>
      <trkpt lat="29.23833" lon="-13.50619">
        <ele>46.8</ele>
        <time>2021-07-02 18:15:21</time>
      </trkpt>
      <trkpt lat="29.23836" lon="-13.50621">
        <ele>47.2</ele>
        <time>2021-07-02 18:15:22</time>
      </trkpt>
      <trkpt lat="29.23839" lon="-13.50622">
        <ele>47.2</ele>
        <time>2021-07-02 18:15:23</time>
      </trkpt>
      <trkpt lat="29.23841" lon="-13.50622">
        <ele>47.4</ele>
        <time>2021-07-02 18:15:24</time>
      </trkpt>
      <trkpt lat="29.23844" lon="-13.50623">
        <ele>47.4</ele>
        <time>2021-07-02 18:15:25</time>
      </trkpt>
      <trkpt lat="29.23846" lon="-13.50624">
        <ele>47.6</ele>
        <time>2021-07-02 18:15:26</time>
      </trkpt>
      <trkpt lat="29.23849" lon="-13.50625">
        <ele>47.6</ele>
        <time>2021-07-02 18:15:27</time>
      </trkpt>
      <trkpt lat="29.23851" lon="-13.50626">
        <ele>47.8</ele>
        <time>2021-07-02 18:15:28</time>
      </trkpt>
      <trkpt lat="29.23854" lon="-13.50627">
        <ele>47.8</ele>
        <time>2021-07-02 18:15:29</time>
      </trkpt>
      <trkpt lat="29.23857" lon="-13.50628">
        <ele>48.2</ele>
        <time>2021-07-02 18:15:30</time>
      </trkpt>
      <trkpt lat="29.2386" lon="-13.5063">
        <ele>48.2</ele>
        <time>2021-07-02 18:15:31</time>
      </trkpt>
      <trkpt lat="29.23862" lon="-13.50632">
        <ele>48.4</ele>
        <time>2021-07-02 18:15:32</time>
      </trkpt>
      <trkpt lat="29.23864" lon="-13.50633">
        <ele>48.6</ele>
        <time>2021-07-02 18:15:33</time>
      </trkpt>
      <trkpt lat="29.23867" lon="-13.50635">
        <ele>48.6</ele>
        <time>2021-07-02 18:15:34</time>
      </trkpt>
      <trkpt lat="29.2387" lon="-13.50636">
        <ele>48.6</ele>
        <time>2021-07-02 18:15:35</time>
      </trkpt>
      <trkpt lat="29.23873" lon="-13.50637">
        <ele>48.8</ele>
        <time>2021-07-02 18:15:36</time>
      </trkpt>
      <trkpt lat="29.23875" lon="-13.50638">
        <ele>48.8</ele>
        <time>2021-07-02 18:15:37</time>
      </trkpt>
      <trkpt lat="29.23878" lon="-13.50638">
        <ele>49</ele>
        <time>2021-07-02 18:15:38</time>
      </trkpt>
      <trkpt lat="29.23881" lon="-13.50639">
        <ele>49</ele>
        <time>2021-07-02 18:15:39</time>
      </trkpt>
      <trkpt lat="29.23884" lon="-13.5064">
        <ele>49.4</ele>
        <time>2021-07-02 18:15:40</time>
      </trkpt>
      <trkpt lat="29.23887" lon="-13.50641">
        <ele>49.4</ele>
        <time>2021-07-02 18:15:41</time>
      </trkpt>
      <trkpt lat="29.2389" lon="-13.50642">
        <ele>49.6</ele>
        <time>2021-07-02 18:15:42</time>
      </trkpt>
      <trkpt lat="29.23892" lon="-13.50643">
        <ele>49.6</ele>
        <time>2021-07-02 18:15:43</time>
      </trkpt>
      <trkpt lat="29.23895" lon="-13.50644">
        <ele>49.6</ele>
        <time>2021-07-02 18:15:44</time>
      </trkpt>
      <trkpt lat="29.23898" lon="-13.50645">
        <ele>49.6</ele>
        <time>2021-07-02 18:15:45</time>
      </trkpt>
      <trkpt lat="29.239" lon="-13.50646">
        <ele>49.8</ele>
        <time>2021-07-02 18:15:46</time>
      </trkpt>
      <trkpt lat="29.23903" lon="-13.50646">
        <ele>49.8</ele>
        <time>2021-07-02 18:15:47</time>
      </trkpt>
      <trkpt lat="29.23906" lon="-13.50646">
        <ele>49.8</ele>
        <time>2021-07-02 18:15:48</time>
      </trkpt>
      <trkpt lat="29.23908" lon="-13.50647">
        <ele>49.8</ele>
        <time>2021-07-02 18:15:49</time>
      </trkpt>
      <trkpt lat="29.23911" lon="-13.50648">
        <ele>49.8</ele>
        <time>2021-07-02 18:15:50</time>
      </trkpt>
      <trkpt lat="29.23914" lon="-13.50649">
        <ele>50</ele>
        <time>2021-07-02 18:15:51</time>
      </trkpt>
      <trkpt lat="29.23916" lon="-13.5065">
        <ele>50</ele>
        <time>2021-07-02 18:15:52</time>
      </trkpt>
      <trkpt lat="29.23919" lon="-13.50651">
        <ele>50.4</ele>
        <time>2021-07-02 18:15:53</time>
      </trkpt>
      <trkpt lat="29.23921" lon="-13.50653">
        <ele>50.4</ele>
        <time>2021-07-02 18:15:54</time>
      </trkpt>
      <trkpt lat="29.23924" lon="-13.50654">
        <ele>50.8</ele>
        <time>2021-07-02 18:15:55</time>
      </trkpt>
      <trkpt lat="29.23926" lon="-13.50655">
        <ele>51</ele>
        <time>2021-07-02 18:15:56</time>
      </trkpt>
      <trkpt lat="29.23929" lon="-13.50656">
        <ele>51</ele>
        <time>2021-07-02 18:15:57</time>
      </trkpt>
      <trkpt lat="29.23931" lon="-13.50658">
        <ele>51.4</ele>
        <time>2021-07-02 18:15:58</time>
      </trkpt>
      <trkpt lat="29.23933" lon="-13.50659">
        <ele>51.6</ele>
        <time>2021-07-02 18:15:59</time>
      </trkpt>
      <trkpt lat="29.23936" lon="-13.5066">
        <ele>51.6</ele>
        <time>2021-07-02 18:16:00</time>
      </trkpt>
      <trkpt lat="29.23939" lon="-13.50662">
        <ele>51.8</ele>
        <time>2021-07-02 18:16:01</time>
      </trkpt>
      <trkpt lat="29.23941" lon="-13.50663">
        <ele>51.8</ele>
        <time>2021-07-02 18:16:02</time>
      </trkpt>
      <trkpt lat="29.23944" lon="-13.50664">
        <ele>51.8</ele>
        <time>2021-07-02 18:16:03</time>
      </trkpt>
      <trkpt lat="29.23947" lon="-13.50665">
        <ele>51.8</ele>
        <time>2021-07-02 18:16:04</time>
      </trkpt>
      <trkpt lat="29.23949" lon="-13.50667">
        <ele>51.8</ele>
        <time>2021-07-02 18:16:05</time>
      </trkpt>
      <trkpt lat="29.23952" lon="-13.50669">
        <ele>51.8</ele>
        <time>2021-07-02 18:16:06</time>
      </trkpt>
      <trkpt lat="29.23955" lon="-13.5067">
        <ele>51.8</ele>
        <time>2021-07-02 18:16:07</time>
      </trkpt>
      <trkpt lat="29.23957" lon="-13.50672">
        <ele>51.8</ele>
        <time>2021-07-02 18:16:08</time>
      </trkpt>
      <trkpt lat="29.23959" lon="-13.50673">
        <ele>51.8</ele>
        <time>2021-07-02 18:16:09</time>
      </trkpt>
      <trkpt lat="29.23962" lon="-13.50675">
        <ele>51.8</ele>
        <time>2021-07-02 18:16:10</time>
      </trkpt>
      <trkpt lat="29.23964" lon="-13.50676">
        <ele>51.8</ele>
        <time>2021-07-02 18:16:11</time>
      </trkpt>
      <trkpt lat="29.23967" lon="-13.50678">
        <ele>51.8</ele>
        <time>2021-07-02 18:16:12</time>
      </trkpt>
      <trkpt lat="29.23969" lon="-13.5068">
        <ele>51.8</ele>
        <time>2021-07-02 18:16:13</time>
      </trkpt>
      <trkpt lat="29.23972" lon="-13.50681">
        <ele>52</ele>
        <time>2021-07-02 18:16:14</time>
      </trkpt>
      <trkpt lat="29.23975" lon="-13.50683">
        <ele>52</ele>
        <time>2021-07-02 18:16:15</time>
      </trkpt>
      <trkpt lat="29.23978" lon="-13.50684">
        <ele>52</ele>
        <time>2021-07-02 18:16:16</time>
      </trkpt>
      <trkpt lat="29.23981" lon="-13.50685">
        <ele>52</ele>
        <time>2021-07-02 18:16:17</time>
      </trkpt>
      <trkpt lat="29.23984" lon="-13.50686">
        <ele>52</ele>
        <time>2021-07-02 18:16:18</time>
      </trkpt>
      <trkpt lat="29.23986" lon="-13.50687">
        <ele>52</ele>
        <time>2021-07-02 18:16:19</time>
      </trkpt>
      <trkpt lat="29.23989" lon="-13.50687">
        <ele>52</ele>
        <time>2021-07-02 18:16:20</time>
      </trkpt>
      <trkpt lat="29.23992" lon="-13.50689">
        <ele>52</ele>
        <time>2021-07-02 18:16:21</time>
      </trkpt>
      <trkpt lat="29.23995" lon="-13.5069">
        <ele>52</ele>
        <time>2021-07-02 18:16:22</time>
      </trkpt>
      <trkpt lat="29.23997" lon="-13.50691">
        <ele>52</ele>
        <time>2021-07-02 18:16:23</time>
      </trkpt>
      <trkpt lat="29.24" lon="-13.50692">
        <ele>52</ele>
        <time>2021-07-02 18:16:24</time>
      </trkpt>
      <trkpt lat="29.24002" lon="-13.50693">
        <ele>52</ele>
        <time>2021-07-02 18:16:25</time>
      </trkpt>
      <trkpt lat="29.24005" lon="-13.50695">
        <ele>52</ele>
        <time>2021-07-02 18:16:26</time>
      </trkpt>
      <trkpt lat="29.24008" lon="-13.50696">
        <ele>52</ele>
        <time>2021-07-02 18:16:27</time>
      </trkpt>
      <trkpt lat="29.24011" lon="-13.50697">
        <ele>52.4</ele>
        <time>2021-07-02 18:16:28</time>
      </trkpt>
      <trkpt lat="29.24013" lon="-13.50698">
        <ele>52.4</ele>
        <time>2021-07-02 18:16:29</time>
      </trkpt>
      <trkpt lat="29.24016" lon="-13.50699">
        <ele>52.4</ele>
        <time>2021-07-02 18:16:30</time>
      </trkpt>
      <trkpt lat="29.24019" lon="-13.507">
        <ele>52.4</ele>
        <time>2021-07-02 18:16:31</time>
      </trkpt>
      <trkpt lat="29.24021" lon="-13.50702">
        <ele>52.4</ele>
        <time>2021-07-02 18:16:32</time>
      </trkpt>
      <trkpt lat="29.24024" lon="-13.50704">
        <ele>52.6</ele>
        <time>2021-07-02 18:16:33</time>
      </trkpt>
      <trkpt lat="29.24027" lon="-13.50705">
        <ele>52.6</ele>
        <time>2021-07-02 18:16:34</time>
      </trkpt>
      <trkpt lat="29.2403" lon="-13.50706">
        <ele>52.8</ele>
        <time>2021-07-02 18:16:35</time>
      </trkpt>
      <trkpt lat="29.24033" lon="-13.50708">
        <ele>52.8</ele>
        <time>2021-07-02 18:16:36</time>
      </trkpt>
      <trkpt lat="29.24036" lon="-13.50709">
        <ele>52.8</ele>
        <time>2021-07-02 18:16:37</time>
      </trkpt>
      <trkpt lat="29.24039" lon="-13.50711">
        <ele>53.2</ele>
        <time>2021-07-02 18:16:38</time>
      </trkpt>
      <trkpt lat="29.24042" lon="-13.50712">
        <ele>53.2</ele>
        <time>2021-07-02 18:16:39</time>
      </trkpt>
      <trkpt lat="29.24045" lon="-13.50714">
        <ele>53.2</ele>
        <time>2021-07-02 18:16:40</time>
      </trkpt>
      <trkpt lat="29.24048" lon="-13.50715">
        <ele>53.4</ele>
        <time>2021-07-02 18:16:41</time>
      </trkpt>
      <trkpt lat="29.24051" lon="-13.50717">
        <ele>53.4</ele>
        <time>2021-07-02 18:16:42</time>
      </trkpt>
      <trkpt lat="29.24054" lon="-13.50718">
        <ele>53.4</ele>
        <time>2021-07-02 18:16:43</time>
      </trkpt>
      <trkpt lat="29.24057" lon="-13.5072">
        <ele>53.4</ele>
        <time>2021-07-02 18:16:44</time>
      </trkpt>
      <trkpt lat="29.2406" lon="-13.50722">
        <ele>53.6</ele>
        <time>2021-07-02 18:16:45</time>
      </trkpt>
      <trkpt lat="29.24063" lon="-13.50723">
        <ele>53.6</ele>
        <time>2021-07-02 18:16:46</time>
      </trkpt>
      <trkpt lat="29.24066" lon="-13.50725">
        <ele>53.6</ele>
        <time>2021-07-02 18:16:47</time>
      </trkpt>
      <trkpt lat="29.24069" lon="-13.50727">
        <ele>53.6</ele>
        <time>2021-07-02 18:16:48</time>
      </trkpt>
      <trkpt lat="29.24072" lon="-13.50729">
        <ele>53.6</ele>
        <time>2021-07-02 18:16:49</time>
      </trkpt>
      <trkpt lat="29.24075" lon="-13.5073">
        <ele>53.6</ele>
        <time>2021-07-02 18:16:50</time>
      </trkpt>
      <trkpt lat="29.24078" lon="-13.50732">
        <ele>53.6</ele>
        <time>2021-07-02 18:16:51</time>
      </trkpt>
      <trkpt lat="29.24081" lon="-13.50734">
        <ele>53.6</ele>
        <time>2021-07-02 18:16:52</time>
      </trkpt>
      <trkpt lat="29.24084" lon="-13.50736">
        <ele>53.6</ele>
        <time>2021-07-02 18:16:53</time>
      </trkpt>
      <trkpt lat="29.24088" lon="-13.50738">
        <ele>53.6</ele>
        <time>2021-07-02 18:16:54</time>
      </trkpt>
      <trkpt lat="29.24091" lon="-13.5074">
        <ele>53.6</ele>
        <time>2021-07-02 18:16:55</time>
      </trkpt>
      <trkpt lat="29.24094" lon="-13.50742">
        <ele>53.6</ele>
        <time>2021-07-02 18:16:56</time>
      </trkpt>
      <trkpt lat="29.24098" lon="-13.50743">
        <ele>53.6</ele>
        <time>2021-07-02 18:16:57</time>
      </trkpt>
      <trkpt lat="29.24101" lon="-13.50745">
        <ele>53.8</ele>
        <time>2021-07-02 18:16:58</time>
      </trkpt>
      <trkpt lat="29.24104" lon="-13.50747">
        <ele>53.8</ele>
        <time>2021-07-02 18:16:59</time>
      </trkpt>
      <trkpt lat="29.24108" lon="-13.50749">
        <ele>53.8</ele>
        <time>2021-07-02 18:17:00</time>
      </trkpt>
      <trkpt lat="29.24111" lon="-13.5075">
        <ele>53.8</ele>
        <time>2021-07-02 18:17:01</time>
      </trkpt>
      <trkpt lat="29.24114" lon="-13.50752">
        <ele>54</ele>
        <time>2021-07-02 18:17:02</time>
      </trkpt>
      <trkpt lat="29.24117" lon="-13.50755">
        <ele>54</ele>
        <time>2021-07-02 18:17:03</time>
      </trkpt>
      <trkpt lat="29.2412" lon="-13.50757">
        <ele>54</ele>
        <time>2021-07-02 18:17:04</time>
      </trkpt>
      <trkpt lat="29.24124" lon="-13.50759">
        <ele>54</ele>
        <time>2021-07-02 18:17:05</time>
      </trkpt>
      <trkpt lat="29.24127" lon="-13.50761">
        <ele>54</ele>
        <time>2021-07-02 18:17:06</time>
      </trkpt>
      <trkpt lat="29.24131" lon="-13.50762">
        <ele>54</ele>
        <time>2021-07-02 18:17:07</time>
      </trkpt>
      <trkpt lat="29.24134" lon="-13.50764">
        <ele>54</ele>
        <time>2021-07-02 18:17:08</time>
      </trkpt>
      <trkpt lat="29.24138" lon="-13.50765">
        <ele>54</ele>
        <time>2021-07-02 18:17:09</time>
      </trkpt>
      <trkpt lat="29.24141" lon="-13.50766">
        <ele>54</ele>
        <time>2021-07-02 18:17:10</time>
      </trkpt>
      <trkpt lat="29.24144" lon="-13.50766">
        <ele>54</ele>
        <time>2021-07-02 18:17:11</time>
      </trkpt>
      <trkpt lat="29.24148" lon="-13.50768">
        <ele>54</ele>
        <time>2021-07-02 18:17:12</time>
      </trkpt>
      <trkpt lat="29.24151" lon="-13.5077">
        <ele>54</ele>
        <time>2021-07-02 18:17:13</time>
      </trkpt>
      <trkpt lat="29.24155" lon="-13.50772">
        <ele>54</ele>
        <time>2021-07-02 18:17:14</time>
      </trkpt>
      <trkpt lat="29.24159" lon="-13.50774">
        <ele>53.8</ele>
        <time>2021-07-02 18:17:15</time>
      </trkpt>
      <trkpt lat="29.24163" lon="-13.50777">
        <ele>53.8</ele>
        <time>2021-07-02 18:17:16</time>
      </trkpt>
      <trkpt lat="29.24167" lon="-13.50779">
        <ele>53.4</ele>
        <time>2021-07-02 18:17:17</time>
      </trkpt>
      <trkpt lat="29.24172" lon="-13.50781">
        <ele>53.4</ele>
        <time>2021-07-02 18:17:18</time>
      </trkpt>
      <trkpt lat="29.24176" lon="-13.50782">
        <ele>53.4</ele>
        <time>2021-07-02 18:17:19</time>
      </trkpt>
      <trkpt lat="29.2418" lon="-13.50784">
        <ele>53.2</ele>
        <time>2021-07-02 18:17:20</time>
      </trkpt>
      <trkpt lat="29.24184" lon="-13.50785">
        <ele>53.2</ele>
        <time>2021-07-02 18:17:21</time>
      </trkpt>
      <trkpt lat="29.24187" lon="-13.50787">
        <ele>53.2</ele>
        <time>2021-07-02 18:17:22</time>
      </trkpt>
      <trkpt lat="29.24191" lon="-13.50789">
        <ele>53</ele>
        <time>2021-07-02 18:17:23</time>
      </trkpt>
      <trkpt lat="29.24194" lon="-13.5079">
        <ele>53</ele>
        <time>2021-07-02 18:17:24</time>
      </trkpt>
      <trkpt lat="29.24198" lon="-13.50792">
        <ele>53</ele>
        <time>2021-07-02 18:17:25</time>
      </trkpt>
      <trkpt lat="29.24201" lon="-13.50793">
        <ele>53</ele>
        <time>2021-07-02 18:17:26</time>
      </trkpt>
      <trkpt lat="29.24205" lon="-13.50795">
        <ele>52.8</ele>
        <time>2021-07-02 18:17:27</time>
      </trkpt>
      <trkpt lat="29.24209" lon="-13.50797">
        <ele>52.8</ele>
        <time>2021-07-02 18:17:28</time>
      </trkpt>
      <trkpt lat="29.24213" lon="-13.50798">
        <ele>52.4</ele>
        <time>2021-07-02 18:17:29</time>
      </trkpt>
      <trkpt lat="29.24217" lon="-13.508">
        <ele>52.4</ele>
        <time>2021-07-02 18:17:30</time>
      </trkpt>
      <trkpt lat="29.2422" lon="-13.50801">
        <ele>52.4</ele>
        <time>2021-07-02 18:17:31</time>
      </trkpt>
      <trkpt lat="29.24224" lon="-13.50803">
        <ele>52.4</ele>
        <time>2021-07-02 18:17:32</time>
      </trkpt>
      <trkpt lat="29.24227" lon="-13.50804">
        <ele>52.4</ele>
        <time>2021-07-02 18:17:33</time>
      </trkpt>
      <trkpt lat="29.24231" lon="-13.50806">
        <ele>52.4</ele>
        <time>2021-07-02 18:17:34</time>
      </trkpt>
      <trkpt lat="29.24234" lon="-13.50807">
        <ele>52.4</ele>
        <time>2021-07-02 18:17:35</time>
      </trkpt>
      <trkpt lat="29.24237" lon="-13.50809">
        <ele>52.4</ele>
        <time>2021-07-02 18:17:36</time>
      </trkpt>
      <trkpt lat="29.24241" lon="-13.5081">
        <ele>52.4</ele>
        <time>2021-07-02 18:17:37</time>
      </trkpt>
      <trkpt lat="29.24244" lon="-13.50812">
        <ele>52.4</ele>
        <time>2021-07-02 18:17:38</time>
      </trkpt>
      <trkpt lat="29.24248" lon="-13.50813">
        <ele>52.4</ele>
        <time>2021-07-02 18:17:39</time>
      </trkpt>
      <trkpt lat="29.24252" lon="-13.50815">
        <ele>52.4</ele>
        <time>2021-07-02 18:17:40</time>
      </trkpt>
      <trkpt lat="29.24256" lon="-13.50817">
        <ele>52.4</ele>
        <time>2021-07-02 18:17:41</time>
      </trkpt>
      <trkpt lat="29.2426" lon="-13.50819">
        <ele>52</ele>
        <time>2021-07-02 18:17:42</time>
      </trkpt>
      <trkpt lat="29.24263" lon="-13.50821">
        <ele>52</ele>
        <time>2021-07-02 18:17:43</time>
      </trkpt>
      <trkpt lat="29.24267" lon="-13.50823">
        <ele>52</ele>
        <time>2021-07-02 18:17:44</time>
      </trkpt>
      <trkpt lat="29.2427" lon="-13.50825">
        <ele>51.8</ele>
        <time>2021-07-02 18:17:45</time>
      </trkpt>
      <trkpt lat="29.24273" lon="-13.50827">
        <ele>51.8</ele>
        <time>2021-07-02 18:17:46</time>
      </trkpt>
      <trkpt lat="29.24277" lon="-13.50829">
        <ele>51.4</ele>
        <time>2021-07-02 18:17:47</time>
      </trkpt>
      <trkpt lat="29.24281" lon="-13.50831">
        <ele>51.2</ele>
        <time>2021-07-02 18:17:48</time>
      </trkpt>
      <trkpt lat="29.24284" lon="-13.50833">
        <ele>51.2</ele>
        <time>2021-07-02 18:17:49</time>
      </trkpt>
      <trkpt lat="29.24288" lon="-13.50835">
        <ele>50.8</ele>
        <time>2021-07-02 18:17:50</time>
      </trkpt>
      <trkpt lat="29.24292" lon="-13.50838">
        <ele>50.6</ele>
        <time>2021-07-02 18:17:51</time>
      </trkpt>
      <trkpt lat="29.24295" lon="-13.5084">
        <ele>50.6</ele>
        <time>2021-07-02 18:17:52</time>
      </trkpt>
      <trkpt lat="29.24299" lon="-13.50842">
        <ele>50.4</ele>
        <time>2021-07-02 18:17:53</time>
      </trkpt>
      <trkpt lat="29.24302" lon="-13.50844">
        <ele>50.4</ele>
        <time>2021-07-02 18:17:54</time>
      </trkpt>
      <trkpt lat="29.24305" lon="-13.50846">
        <ele>50.2</ele>
        <time>2021-07-02 18:17:55</time>
      </trkpt>
      <trkpt lat="29.24309" lon="-13.50847">
        <ele>50.2</ele>
        <time>2021-07-02 18:17:56</time>
      </trkpt>
      <trkpt lat="29.24312" lon="-13.50848">
        <ele>50</ele>
        <time>2021-07-02 18:17:57</time>
      </trkpt>
      <trkpt lat="29.24316" lon="-13.50851">
        <ele>50</ele>
        <time>2021-07-02 18:17:58</time>
      </trkpt>
      <trkpt lat="29.2432" lon="-13.50852">
        <ele>50</ele>
        <time>2021-07-02 18:17:59</time>
      </trkpt>
      <trkpt lat="29.24324" lon="-13.50854">
        <ele>49.6</ele>
        <time>2021-07-02 18:18:00</time>
      </trkpt>
      <trkpt lat="29.24328" lon="-13.50857">
        <ele>49.6</ele>
        <time>2021-07-02 18:18:01</time>
      </trkpt>
      <trkpt lat="29.24331" lon="-13.50859">
        <ele>49.6</ele>
        <time>2021-07-02 18:18:02</time>
      </trkpt>
      <trkpt lat="29.24335" lon="-13.50861">
        <ele>49.4</ele>
        <time>2021-07-02 18:18:03</time>
      </trkpt>
      <trkpt lat="29.24339" lon="-13.50864">
        <ele>49.4</ele>
        <time>2021-07-02 18:18:04</time>
      </trkpt>
      <trkpt lat="29.24342" lon="-13.50866">
        <ele>49.4</ele>
        <time>2021-07-02 18:18:05</time>
      </trkpt>
      <trkpt lat="29.24347" lon="-13.50868">
        <ele>49.4</ele>
        <time>2021-07-02 18:18:06</time>
      </trkpt>
      <trkpt lat="29.24351" lon="-13.5087">
        <ele>49.4</ele>
        <time>2021-07-02 18:18:07</time>
      </trkpt>
      <trkpt lat="29.24355" lon="-13.50873">
        <ele>49.4</ele>
        <time>2021-07-02 18:18:08</time>
      </trkpt>
      <trkpt lat="29.24359" lon="-13.50875">
        <ele>49</ele>
        <time>2021-07-02 18:18:09</time>
      </trkpt>
      <trkpt lat="29.24363" lon="-13.50877">
        <ele>49</ele>
        <time>2021-07-02 18:18:10</time>
      </trkpt>
      <trkpt lat="29.24367" lon="-13.5088">
        <ele>48.8</ele>
        <time>2021-07-02 18:18:11</time>
      </trkpt>
      <trkpt lat="29.2437" lon="-13.50883">
        <ele>48.8</ele>
        <time>2021-07-02 18:18:12</time>
      </trkpt>
      <trkpt lat="29.24374" lon="-13.50886">
        <ele>48.8</ele>
        <time>2021-07-02 18:18:13</time>
      </trkpt>
      <trkpt lat="29.24378" lon="-13.50888">
        <ele>48.6</ele>
        <time>2021-07-02 18:18:14</time>
      </trkpt>
      <trkpt lat="29.24381" lon="-13.50889">
        <ele>48.6</ele>
        <time>2021-07-02 18:18:15</time>
      </trkpt>
      <trkpt lat="29.24385" lon="-13.50891">
        <ele>48.6</ele>
        <time>2021-07-02 18:18:16</time>
      </trkpt>
      <trkpt lat="29.24388" lon="-13.50894">
        <ele>48.6</ele>
        <time>2021-07-02 18:18:17</time>
      </trkpt>
      <trkpt lat="29.24392" lon="-13.50896">
        <ele>48.4</ele>
        <time>2021-07-02 18:18:18</time>
      </trkpt>
      <trkpt lat="29.24395" lon="-13.50898">
        <ele>48.4</ele>
        <time>2021-07-02 18:18:19</time>
      </trkpt>
      <trkpt lat="29.24399" lon="-13.509">
        <ele>48.4</ele>
        <time>2021-07-02 18:18:20</time>
      </trkpt>
      <trkpt lat="29.24403" lon="-13.50902">
        <ele>48.4</ele>
        <time>2021-07-02 18:18:21</time>
      </trkpt>
      <trkpt lat="29.24407" lon="-13.50904">
        <ele>48.4</ele>
        <time>2021-07-02 18:18:22</time>
      </trkpt>
      <trkpt lat="29.2441" lon="-13.50907">
        <ele>48</ele>
        <time>2021-07-02 18:18:23</time>
      </trkpt>
      <trkpt lat="29.24414" lon="-13.50909">
        <ele>48</ele>
        <time>2021-07-02 18:18:24</time>
      </trkpt>
      <trkpt lat="29.24418" lon="-13.50912">
        <ele>48</ele>
        <time>2021-07-02 18:18:25</time>
      </trkpt>
      <trkpt lat="29.24421" lon="-13.50914">
        <ele>48</ele>
        <time>2021-07-02 18:18:26</time>
      </trkpt>
      <trkpt lat="29.24425" lon="-13.50916">
        <ele>47.8</ele>
        <time>2021-07-02 18:18:27</time>
      </trkpt>
      <trkpt lat="29.24428" lon="-13.50918">
        <ele>47.6</ele>
        <time>2021-07-02 18:18:28</time>
      </trkpt>
      <trkpt lat="29.24432" lon="-13.5092">
        <ele>47.6</ele>
        <time>2021-07-02 18:18:29</time>
      </trkpt>
      <trkpt lat="29.24435" lon="-13.50922">
        <ele>47.6</ele>
        <time>2021-07-02 18:18:30</time>
      </trkpt>
      <trkpt lat="29.24439" lon="-13.50924">
        <ele>47.6</ele>
        <time>2021-07-02 18:18:31</time>
      </trkpt>
      <trkpt lat="29.24443" lon="-13.50926">
        <ele>47.6</ele>
        <time>2021-07-02 18:18:32</time>
      </trkpt>
      <trkpt lat="29.24446" lon="-13.50929">
        <ele>47.2</ele>
        <time>2021-07-02 18:18:33</time>
      </trkpt>
      <trkpt lat="29.2445" lon="-13.50931">
        <ele>47.2</ele>
        <time>2021-07-02 18:18:34</time>
      </trkpt>
      <trkpt lat="29.24454" lon="-13.50933">
        <ele>47.2</ele>
        <time>2021-07-02 18:18:35</time>
      </trkpt>
      <trkpt lat="29.24458" lon="-13.50936">
        <ele>47</ele>
        <time>2021-07-02 18:18:36</time>
      </trkpt>
      <trkpt lat="29.24462" lon="-13.50939">
        <ele>47</ele>
        <time>2021-07-02 18:18:37</time>
      </trkpt>
      <trkpt lat="29.24465" lon="-13.5094">
        <ele>46.8</ele>
        <time>2021-07-02 18:18:38</time>
      </trkpt>
      <trkpt lat="29.24468" lon="-13.50943">
        <ele>46.6</ele>
        <time>2021-07-02 18:18:39</time>
      </trkpt>
      <trkpt lat="29.24472" lon="-13.50945">
        <ele>46.6</ele>
        <time>2021-07-02 18:18:40</time>
      </trkpt>
      <trkpt lat="29.24476" lon="-13.50946">
        <ele>46.6</ele>
        <time>2021-07-02 18:18:41</time>
      </trkpt>
      <trkpt lat="29.2448" lon="-13.50949">
        <ele>46.2</ele>
        <time>2021-07-02 18:18:42</time>
      </trkpt>
      <trkpt lat="29.24484" lon="-13.50951">
        <ele>46.2</ele>
        <time>2021-07-02 18:18:43</time>
      </trkpt>
      <trkpt lat="29.24488" lon="-13.50953">
        <ele>46.2</ele>
        <time>2021-07-02 18:18:44</time>
      </trkpt>
      <trkpt lat="29.24491" lon="-13.50955">
        <ele>45.8</ele>
        <time>2021-07-02 18:18:45</time>
      </trkpt>
      <trkpt lat="29.24496" lon="-13.50957">
        <ele>45.6</ele>
        <time>2021-07-02 18:18:46</time>
      </trkpt>
      <trkpt lat="29.245" lon="-13.5096">
        <ele>45.4</ele>
        <time>2021-07-02 18:18:47</time>
      </trkpt>
      <trkpt lat="29.24503" lon="-13.50962">
        <ele>45.4</ele>
        <time>2021-07-02 18:18:48</time>
      </trkpt>
      <trkpt lat="29.24507" lon="-13.50965">
        <ele>45.2</ele>
        <time>2021-07-02 18:18:49</time>
      </trkpt>
      <trkpt lat="29.24511" lon="-13.50967">
        <ele>45.2</ele>
        <time>2021-07-02 18:18:50</time>
      </trkpt>
      <trkpt lat="29.24515" lon="-13.50969">
        <ele>44.8</ele>
        <time>2021-07-02 18:18:51</time>
      </trkpt>
      <trkpt lat="29.24519" lon="-13.50971">
        <ele>44.8</ele>
        <time>2021-07-02 18:18:52</time>
      </trkpt>
      <trkpt lat="29.24522" lon="-13.50974">
        <ele>44.8</ele>
        <time>2021-07-02 18:18:53</time>
      </trkpt>
      <trkpt lat="29.24526" lon="-13.50976">
        <ele>44.8</ele>
        <time>2021-07-02 18:18:54</time>
      </trkpt>
      <trkpt lat="29.2453" lon="-13.50979">
        <ele>44.6</ele>
        <time>2021-07-02 18:18:55</time>
      </trkpt>
      <trkpt lat="29.24534" lon="-13.50981">
        <ele>44.6</ele>
        <time>2021-07-02 18:18:56</time>
      </trkpt>
      <trkpt lat="29.24537" lon="-13.50984">
        <ele>44.4</ele>
        <time>2021-07-02 18:18:57</time>
      </trkpt>
      <trkpt lat="29.2454" lon="-13.50987">
        <ele>44.4</ele>
        <time>2021-07-02 18:18:58</time>
      </trkpt>
      <trkpt lat="29.24543" lon="-13.5099">
        <ele>44.4</ele>
        <time>2021-07-02 18:18:59</time>
      </trkpt>
      <trkpt lat="29.24547" lon="-13.50993">
        <ele>44</ele>
        <time>2021-07-02 18:19:00</time>
      </trkpt>
      <trkpt lat="29.2455" lon="-13.50996">
        <ele>44</ele>
        <time>2021-07-02 18:19:01</time>
      </trkpt>
      <trkpt lat="29.24553" lon="-13.50999">
        <ele>43.8</ele>
        <time>2021-07-02 18:19:02</time>
      </trkpt>
      <trkpt lat="29.24556" lon="-13.51002">
        <ele>43.8</ele>
        <time>2021-07-02 18:19:03</time>
      </trkpt>
      <trkpt lat="29.24559" lon="-13.51005">
        <ele>43.4</ele>
        <time>2021-07-02 18:19:04</time>
      </trkpt>
      <trkpt lat="29.24562" lon="-13.51008">
        <ele>43.4</ele>
        <time>2021-07-02 18:19:05</time>
      </trkpt>
      <trkpt lat="29.24566" lon="-13.51011">
        <ele>43</ele>
        <time>2021-07-02 18:19:06</time>
      </trkpt>
      <trkpt lat="29.24568" lon="-13.51014">
        <ele>43</ele>
        <time>2021-07-02 18:19:07</time>
      </trkpt>
      <trkpt lat="29.2457" lon="-13.51016">
        <ele>42.8</ele>
        <time>2021-07-02 18:19:08</time>
      </trkpt>
      <trkpt lat="29.24573" lon="-13.51018">
        <ele>42.8</ele>
        <time>2021-07-02 18:19:09</time>
      </trkpt>
      <trkpt lat="29.24576" lon="-13.51019">
        <ele>42.8</ele>
        <time>2021-07-02 18:19:10</time>
      </trkpt>
      <trkpt lat="29.2458" lon="-13.51019">
        <ele>42.6</ele>
        <time>2021-07-02 18:19:11</time>
      </trkpt>
      <trkpt lat="29.24583" lon="-13.51017">
        <ele>42.6</ele>
        <time>2021-07-02 18:19:12</time>
      </trkpt>
      <trkpt lat="29.24586" lon="-13.51015">
        <ele>42.2</ele>
        <time>2021-07-02 18:19:13</time>
      </trkpt>
      <trkpt lat="29.2459" lon="-13.51013">
        <ele>42.2</ele>
        <time>2021-07-02 18:19:14</time>
      </trkpt>
      <trkpt lat="29.24593" lon="-13.5101">
        <ele>42</ele>
        <time>2021-07-02 18:19:15</time>
      </trkpt>
      <trkpt lat="29.24596" lon="-13.51006">
        <ele>42</ele>
        <time>2021-07-02 18:19:16</time>
      </trkpt>
      <trkpt lat="29.24598" lon="-13.51003">
        <ele>42</ele>
        <time>2021-07-02 18:19:17</time>
      </trkpt>
      <trkpt lat="29.24601" lon="-13.51">
        <ele>41.8</ele>
        <time>2021-07-02 18:19:18</time>
      </trkpt>
      <trkpt lat="29.24603" lon="-13.50996">
        <ele>41.8</ele>
        <time>2021-07-02 18:19:19</time>
      </trkpt>
      <trkpt lat="29.24605" lon="-13.50993">
        <ele>41.8</ele>
        <time>2021-07-02 18:19:20</time>
      </trkpt>
      <trkpt lat="29.24606" lon="-13.50989">
        <ele>41.8</ele>
        <time>2021-07-02 18:19:21</time>
      </trkpt>
      <trkpt lat="29.24607" lon="-13.50984">
        <ele>41.6</ele>
        <time>2021-07-02 18:19:22</time>
      </trkpt>
      <trkpt lat="29.24609" lon="-13.50981">
        <ele>41.6</ele>
        <time>2021-07-02 18:19:23</time>
      </trkpt>
      <trkpt lat="29.2461" lon="-13.50976">
        <ele>41.6</ele>
        <time>2021-07-02 18:19:24</time>
      </trkpt>
      <trkpt lat="29.24612" lon="-13.50972">
        <ele>41.2</ele>
        <time>2021-07-02 18:19:25</time>
      </trkpt>
      <trkpt lat="29.24613" lon="-13.50968">
        <ele>41.2</ele>
        <time>2021-07-02 18:19:26</time>
      </trkpt>
      <trkpt lat="29.24614" lon="-13.50964">
        <ele>41.2</ele>
        <time>2021-07-02 18:19:27</time>
      </trkpt>
      <trkpt lat="29.24615" lon="-13.5096">
        <ele>41</ele>
        <time>2021-07-02 18:19:28</time>
      </trkpt>
      <trkpt lat="29.24616" lon="-13.50956">
        <ele>41</ele>
        <time>2021-07-02 18:19:29</time>
      </trkpt>
      <trkpt lat="29.24617" lon="-13.50952">
        <ele>41</ele>
        <time>2021-07-02 18:19:30</time>
      </trkpt>
      <trkpt lat="29.24617" lon="-13.50948">
        <ele>41</ele>
        <time>2021-07-02 18:19:31</time>
      </trkpt>
      <trkpt lat="29.24617" lon="-13.50943">
        <ele>41</ele>
        <time>2021-07-02 18:19:32</time>
      </trkpt>
      <trkpt lat="29.24617" lon="-13.50939">
        <ele>41</ele>
        <time>2021-07-02 18:19:33</time>
      </trkpt>
      <trkpt lat="29.24617" lon="-13.50935">
        <ele>40.6</ele>
        <time>2021-07-02 18:19:34</time>
      </trkpt>
      <trkpt lat="29.24616" lon="-13.50931">
        <ele>40.6</ele>
        <time>2021-07-02 18:19:35</time>
      </trkpt>
      <trkpt lat="29.24616" lon="-13.50928">
        <ele>40.6</ele>
        <time>2021-07-02 18:19:36</time>
      </trkpt>
      <trkpt lat="29.24616" lon="-13.50924">
        <ele>41</ele>
        <time>2021-07-02 18:19:37</time>
      </trkpt>
      <trkpt lat="29.24615" lon="-13.5092">
        <ele>41</ele>
        <time>2021-07-02 18:19:38</time>
      </trkpt>
      <trkpt lat="29.24615" lon="-13.50916">
        <ele>41</ele>
        <time>2021-07-02 18:19:39</time>
      </trkpt>
      <trkpt lat="29.24616" lon="-13.50911">
        <ele>41.2</ele>
        <time>2021-07-02 18:19:40</time>
      </trkpt>
      <trkpt lat="29.24616" lon="-13.50906">
        <ele>41.2</ele>
        <time>2021-07-02 18:19:41</time>
      </trkpt>
      <trkpt lat="29.24616" lon="-13.50901">
        <ele>41.2</ele>
        <time>2021-07-02 18:19:42</time>
      </trkpt>
      <trkpt lat="29.24616" lon="-13.50897">
        <ele>41.2</ele>
        <time>2021-07-02 18:19:43</time>
      </trkpt>
      <trkpt lat="29.24616" lon="-13.50892">
        <ele>41.2</ele>
        <time>2021-07-02 18:19:44</time>
      </trkpt>
      <trkpt lat="29.24617" lon="-13.50887">
        <ele>41.2</ele>
        <time>2021-07-02 18:19:45</time>
      </trkpt>
      <trkpt lat="29.24619" lon="-13.50883">
        <ele>41.2</ele>
        <time>2021-07-02 18:19:46</time>
      </trkpt>
      <trkpt lat="29.2462" lon="-13.50879">
        <ele>41.2</ele>
        <time>2021-07-02 18:19:47</time>
      </trkpt>
      <trkpt lat="29.24622" lon="-13.50874">
        <ele>41.2</ele>
        <time>2021-07-02 18:19:48</time>
      </trkpt>
      <trkpt lat="29.24623" lon="-13.5087">
        <ele>41.4</ele>
        <time>2021-07-02 18:19:49</time>
      </trkpt>
      <trkpt lat="29.24624" lon="-13.50865">
        <ele>41.4</ele>
        <time>2021-07-02 18:19:50</time>
      </trkpt>
      <trkpt lat="29.24624" lon="-13.5086">
        <ele>41.4</ele>
        <time>2021-07-02 18:19:51</time>
      </trkpt>
      <trkpt lat="29.24625" lon="-13.50856">
        <ele>41.6</ele>
        <time>2021-07-02 18:19:52</time>
      </trkpt>
      <trkpt lat="29.24626" lon="-13.50851">
        <ele>41.6</ele>
        <time>2021-07-02 18:19:53</time>
      </trkpt>
      <trkpt lat="29.24627" lon="-13.50847">
        <ele>41.6</ele>
        <time>2021-07-02 18:19:54</time>
      </trkpt>
      <trkpt lat="29.24628" lon="-13.50842">
        <ele>42</ele>
        <time>2021-07-02 18:19:55</time>
      </trkpt>
      <trkpt lat="29.24629" lon="-13.50838">
        <ele>42</ele>
        <time>2021-07-02 18:19:56</time>
      </trkpt>
      <trkpt lat="29.24629" lon="-13.50834">
        <ele>42</ele>
        <time>2021-07-02 18:19:57</time>
      </trkpt>
      <trkpt lat="29.2463" lon="-13.50829">
        <ele>42.4</ele>
        <time>2021-07-02 18:19:58</time>
      </trkpt>
      <trkpt lat="29.24631" lon="-13.50826">
        <ele>42.4</ele>
        <time>2021-07-02 18:19:59</time>
      </trkpt>
      <trkpt lat="29.24632" lon="-13.50822">
        <ele>42.6</ele>
        <time>2021-07-02 18:20:00</time>
      </trkpt>
      <trkpt lat="29.24633" lon="-13.50817">
        <ele>42.6</ele>
        <time>2021-07-02 18:20:01</time>
      </trkpt>
      <trkpt lat="29.24634" lon="-13.50813">
        <ele>43</ele>
        <time>2021-07-02 18:20:02</time>
      </trkpt>
      <trkpt lat="29.24635" lon="-13.50809">
        <ele>43</ele>
        <time>2021-07-02 18:20:03</time>
      </trkpt>
      <trkpt lat="29.24636" lon="-13.50804">
        <ele>43</ele>
        <time>2021-07-02 18:20:04</time>
      </trkpt>
      <trkpt lat="29.24637" lon="-13.508">
        <ele>43</ele>
        <time>2021-07-02 18:20:05</time>
      </trkpt>
      <trkpt lat="29.24637" lon="-13.50795">
        <ele>43</ele>
        <time>2021-07-02 18:20:06</time>
      </trkpt>
      <trkpt lat="29.24638" lon="-13.50791">
        <ele>43</ele>
        <time>2021-07-02 18:20:07</time>
      </trkpt>
      <trkpt lat="29.24638" lon="-13.50787">
        <ele>43</ele>
        <time>2021-07-02 18:20:08</time>
      </trkpt>
      <trkpt lat="29.24638" lon="-13.50783">
        <ele>43</ele>
        <time>2021-07-02 18:20:09</time>
      </trkpt>
      <trkpt lat="29.24639" lon="-13.50778">
        <ele>43</ele>
        <time>2021-07-02 18:20:10</time>
      </trkpt>
      <trkpt lat="29.2464" lon="-13.50774">
        <ele>43</ele>
        <time>2021-07-02 18:20:11</time>
      </trkpt>
      <trkpt lat="29.2464" lon="-13.5077">
        <ele>43</ele>
        <time>2021-07-02 18:20:12</time>
      </trkpt>
      <trkpt lat="29.24641" lon="-13.50766">
        <ele>43</ele>
        <time>2021-07-02 18:20:13</time>
      </trkpt>
      <trkpt lat="29.24641" lon="-13.50761">
        <ele>43</ele>
        <time>2021-07-02 18:20:14</time>
      </trkpt>
      <trkpt lat="29.24641" lon="-13.50757">
        <ele>43</ele>
        <time>2021-07-02 18:20:15</time>
      </trkpt>
      <trkpt lat="29.24642" lon="-13.50752">
        <ele>43</ele>
        <time>2021-07-02 18:20:16</time>
      </trkpt>
      <trkpt lat="29.24642" lon="-13.50748">
        <ele>43</ele>
        <time>2021-07-02 18:20:17</time>
      </trkpt>
      <trkpt lat="29.24642" lon="-13.50743">
        <ele>43</ele>
        <time>2021-07-02 18:20:18</time>
      </trkpt>
      <trkpt lat="29.24642" lon="-13.50739">
        <ele>43</ele>
        <time>2021-07-02 18:20:19</time>
      </trkpt>
      <trkpt lat="29.24642" lon="-13.50734">
        <ele>43</ele>
        <time>2021-07-02 18:20:20</time>
      </trkpt>
      <trkpt lat="29.24642" lon="-13.5073">
        <ele>43</ele>
        <time>2021-07-02 18:20:21</time>
      </trkpt>
      <trkpt lat="29.24642" lon="-13.50725">
        <ele>43</ele>
        <time>2021-07-02 18:20:22</time>
      </trkpt>
      <trkpt lat="29.24642" lon="-13.50721">
        <ele>43</ele>
        <time>2021-07-02 18:20:23</time>
      </trkpt>
      <trkpt lat="29.24642" lon="-13.50716">
        <ele>43</ele>
        <time>2021-07-02 18:20:24</time>
      </trkpt>
      <trkpt lat="29.24643" lon="-13.50712">
        <ele>43</ele>
        <time>2021-07-02 18:20:25</time>
      </trkpt>
      <trkpt lat="29.24643" lon="-13.50708">
        <ele>43</ele>
        <time>2021-07-02 18:20:26</time>
      </trkpt>
      <trkpt lat="29.24644" lon="-13.50704">
        <ele>43</ele>
        <time>2021-07-02 18:20:27</time>
      </trkpt>
      <trkpt lat="29.24644" lon="-13.50699">
        <ele>43</ele>
        <time>2021-07-02 18:20:28</time>
      </trkpt>
      <trkpt lat="29.24645" lon="-13.50695">
        <ele>43</ele>
        <time>2021-07-02 18:20:29</time>
      </trkpt>
      <trkpt lat="29.24646" lon="-13.50691">
        <ele>43</ele>
        <time>2021-07-02 18:20:30</time>
      </trkpt>
      <trkpt lat="29.24647" lon="-13.50687">
        <ele>43</ele>
        <time>2021-07-02 18:20:31</time>
      </trkpt>
      <trkpt lat="29.24648" lon="-13.50684">
        <ele>43</ele>
        <time>2021-07-02 18:20:32</time>
      </trkpt>
      <trkpt lat="29.24648" lon="-13.5068">
        <ele>43</ele>
        <time>2021-07-02 18:20:33</time>
      </trkpt>
      <trkpt lat="29.24649" lon="-13.50676">
        <ele>43</ele>
        <time>2021-07-02 18:20:34</time>
      </trkpt>
      <trkpt lat="29.2465" lon="-13.50673">
        <ele>43.2</ele>
        <time>2021-07-02 18:20:35</time>
      </trkpt>
      <trkpt lat="29.24651" lon="-13.50669">
        <ele>43.2</ele>
        <time>2021-07-02 18:20:36</time>
      </trkpt>
      <trkpt lat="29.24652" lon="-13.50666">
        <ele>43.2</ele>
        <time>2021-07-02 18:20:37</time>
      </trkpt>
      <trkpt lat="29.24653" lon="-13.50662">
        <ele>43.2</ele>
        <time>2021-07-02 18:20:38</time>
      </trkpt>
      <trkpt lat="29.24654" lon="-13.50658">
        <ele>43.4</ele>
        <time>2021-07-02 18:20:39</time>
      </trkpt>
      <trkpt lat="29.24655" lon="-13.50655">
        <ele>43.4</ele>
        <time>2021-07-02 18:20:40</time>
      </trkpt>
      <trkpt lat="29.24656" lon="-13.50651">
        <ele>43.6</ele>
        <time>2021-07-02 18:20:41</time>
      </trkpt>
      <trkpt lat="29.24657" lon="-13.50648">
        <ele>43.6</ele>
        <time>2021-07-02 18:20:42</time>
      </trkpt>
      <trkpt lat="29.24657" lon="-13.50645">
        <ele>44</ele>
        <time>2021-07-02 18:20:43</time>
      </trkpt>
      <trkpt lat="29.24658" lon="-13.50641">
        <ele>44.2</ele>
        <time>2021-07-02 18:20:44</time>
      </trkpt>
      <trkpt lat="29.24658" lon="-13.50638">
        <ele>44.4</ele>
        <time>2021-07-02 18:20:45</time>
      </trkpt>
      <trkpt lat="29.24659" lon="-13.50634">
        <ele>44.4</ele>
        <time>2021-07-02 18:20:46</time>
      </trkpt>
      <trkpt lat="29.24659" lon="-13.50631">
        <ele>44.8</ele>
        <time>2021-07-02 18:20:47</time>
      </trkpt>
      <trkpt lat="29.2466" lon="-13.50627">
        <ele>44.8</ele>
        <time>2021-07-02 18:20:48</time>
      </trkpt>
      <trkpt lat="29.2466" lon="-13.50624">
        <ele>45.2</ele>
        <time>2021-07-02 18:20:49</time>
      </trkpt>
      <trkpt lat="29.24661" lon="-13.5062">
        <ele>45.2</ele>
        <time>2021-07-02 18:20:50</time>
      </trkpt>
      <trkpt lat="29.24661" lon="-13.50616">
        <ele>45.2</ele>
        <time>2021-07-02 18:20:51</time>
      </trkpt>
      <trkpt lat="29.24662" lon="-13.50612">
        <ele>45.4</ele>
        <time>2021-07-02 18:20:52</time>
      </trkpt>
      <trkpt lat="29.24663" lon="-13.50608">
        <ele>45.4</ele>
        <time>2021-07-02 18:20:53</time>
      </trkpt>
      <trkpt lat="29.24663" lon="-13.50604">
        <ele>45.4</ele>
        <time>2021-07-02 18:20:54</time>
      </trkpt>
      <trkpt lat="29.24664" lon="-13.506">
        <ele>45.4</ele>
        <time>2021-07-02 18:20:55</time>
      </trkpt>
      <trkpt lat="29.24665" lon="-13.50596">
        <ele>45.6</ele>
        <time>2021-07-02 18:20:56</time>
      </trkpt>
      <trkpt lat="29.24665" lon="-13.50592">
        <ele>45.6</ele>
        <time>2021-07-02 18:20:57</time>
      </trkpt>
      <trkpt lat="29.24666" lon="-13.50588">
        <ele>45.6</ele>
        <time>2021-07-02 18:20:58</time>
      </trkpt>
      <trkpt lat="29.24667" lon="-13.50585">
        <ele>45.6</ele>
        <time>2021-07-02 18:20:59</time>
      </trkpt>
      <trkpt lat="29.24667" lon="-13.50582">
        <ele>45.8</ele>
        <time>2021-07-02 18:21:00</time>
      </trkpt>
      <trkpt lat="29.24668" lon="-13.50579">
        <ele>45.8</ele>
        <time>2021-07-02 18:21:01</time>
      </trkpt>
      <trkpt lat="29.24668" lon="-13.50576">
        <ele>45.8</ele>
        <time>2021-07-02 18:21:02</time>
      </trkpt>
      <trkpt lat="29.24669" lon="-13.50573">
        <ele>46.2</ele>
        <time>2021-07-02 18:21:03</time>
      </trkpt>
      <trkpt lat="29.24669" lon="-13.5057">
        <ele>46.2</ele>
        <time>2021-07-02 18:21:04</time>
      </trkpt>
      <trkpt lat="29.24669" lon="-13.50568">
        <ele>46.4</ele>
        <time>2021-07-02 18:21:05</time>
      </trkpt>
      <trkpt lat="29.2467" lon="-13.50565">
        <ele>46.6</ele>
        <time>2021-07-02 18:21:06</time>
      </trkpt>
      <trkpt lat="29.2467" lon="-13.50562">
        <ele>46.6</ele>
        <time>2021-07-02 18:21:07</time>
      </trkpt>
      <trkpt lat="29.24671" lon="-13.5056">
        <ele>47</ele>
        <time>2021-07-02 18:21:08</time>
      </trkpt>
      <trkpt lat="29.24671" lon="-13.50557">
        <ele>47</ele>
        <time>2021-07-02 18:21:09</time>
      </trkpt>
      <trkpt lat="29.24671" lon="-13.50554">
        <ele>47</ele>
        <time>2021-07-02 18:21:10</time>
      </trkpt>
      <trkpt lat="29.24672" lon="-13.50551">
        <ele>47.2</ele>
        <time>2021-07-02 18:21:11</time>
      </trkpt>
      <trkpt lat="29.24672" lon="-13.50548">
        <ele>47.2</ele>
        <time>2021-07-02 18:21:12</time>
      </trkpt>
      <trkpt lat="29.24673" lon="-13.50545">
        <ele>47.4</ele>
        <time>2021-07-02 18:21:13</time>
      </trkpt>
      <trkpt lat="29.24673" lon="-13.50542">
        <ele>47.4</ele>
        <time>2021-07-02 18:21:14</time>
      </trkpt>
      <trkpt lat="29.24674" lon="-13.50539">
        <ele>47.8</ele>
        <time>2021-07-02 18:21:15</time>
      </trkpt>
      <trkpt lat="29.24674" lon="-13.50536">
        <ele>48</ele>
        <time>2021-07-02 18:21:16</time>
      </trkpt>
      <trkpt lat="29.24675" lon="-13.50533">
        <ele>48</ele>
        <time>2021-07-02 18:21:17</time>
      </trkpt>
      <trkpt lat="29.24675" lon="-13.50531">
        <ele>48.4</ele>
        <time>2021-07-02 18:21:18</time>
      </trkpt>
      <trkpt lat="29.24676" lon="-13.50528">
        <ele>48.4</ele>
        <time>2021-07-02 18:21:19</time>
      </trkpt>
      <trkpt lat="29.24676" lon="-13.50526">
        <ele>48.8</ele>
        <time>2021-07-02 18:21:20</time>
      </trkpt>
      <trkpt lat="29.24677" lon="-13.50523">
        <ele>49</ele>
        <time>2021-07-02 18:21:21</time>
      </trkpt>
      <trkpt lat="29.24677" lon="-13.5052">
        <ele>49</ele>
        <time>2021-07-02 18:21:22</time>
      </trkpt>
      <trkpt lat="29.24678" lon="-13.50516">
        <ele>49.2</ele>
        <time>2021-07-02 18:21:23</time>
      </trkpt>
      <trkpt lat="29.24679" lon="-13.50513">
        <ele>49.2</ele>
        <time>2021-07-02 18:21:24</time>
      </trkpt>
      <trkpt lat="29.24679" lon="-13.5051">
        <ele>49.4</ele>
        <time>2021-07-02 18:21:25</time>
      </trkpt>
      <trkpt lat="29.24678" lon="-13.50508">
        <ele>49.4</ele>
        <time>2021-07-02 18:21:26</time>
      </trkpt>
      <trkpt lat="29.24678" lon="-13.50505">
        <ele>49.4</ele>
        <time>2021-07-02 18:21:27</time>
      </trkpt>
      <trkpt lat="29.24679" lon="-13.50503">
        <ele>49.8</ele>
        <time>2021-07-02 18:21:28</time>
      </trkpt>
      <trkpt lat="29.24679" lon="-13.505">
        <ele>49.8</ele>
        <time>2021-07-02 18:21:29</time>
      </trkpt>
      <trkpt lat="29.24679" lon="-13.50497">
        <ele>50.2</ele>
        <time>2021-07-02 18:21:30</time>
      </trkpt>
      <trkpt lat="29.2468" lon="-13.50494">
        <ele>50.2</ele>
        <time>2021-07-02 18:21:31</time>
      </trkpt>
      <trkpt lat="29.2468" lon="-13.50491">
        <ele>50.4</ele>
        <time>2021-07-02 18:21:32</time>
      </trkpt>
      <trkpt lat="29.24681" lon="-13.50487">
        <ele>50.4</ele>
        <time>2021-07-02 18:21:33</time>
      </trkpt>
      <trkpt lat="29.24681" lon="-13.50484">
        <ele>50.8</ele>
        <time>2021-07-02 18:21:34</time>
      </trkpt>
      <trkpt lat="29.24682" lon="-13.50481">
        <ele>50.8</ele>
        <time>2021-07-02 18:21:35</time>
      </trkpt>
      <trkpt lat="29.24682" lon="-13.50477">
        <ele>51</ele>
        <time>2021-07-02 18:21:36</time>
      </trkpt>
      <trkpt lat="29.24683" lon="-13.50474">
        <ele>51</ele>
        <time>2021-07-02 18:21:37</time>
      </trkpt>
      <trkpt lat="29.24684" lon="-13.5047">
        <ele>51.4</ele>
        <time>2021-07-02 18:21:38</time>
      </trkpt>
      <trkpt lat="29.24685" lon="-13.50467">
        <ele>51.4</ele>
        <time>2021-07-02 18:21:39</time>
      </trkpt>
      <trkpt lat="29.24686" lon="-13.50463">
        <ele>51.4</ele>
        <time>2021-07-02 18:21:40</time>
      </trkpt>
      <trkpt lat="29.24687" lon="-13.50459">
        <ele>51.4</ele>
        <time>2021-07-02 18:21:41</time>
      </trkpt>
      <trkpt lat="29.24688" lon="-13.50456">
        <ele>51.6</ele>
        <time>2021-07-02 18:21:42</time>
      </trkpt>
      <trkpt lat="29.24689" lon="-13.50452">
        <ele>51.6</ele>
        <time>2021-07-02 18:21:43</time>
      </trkpt>
      <trkpt lat="29.2469" lon="-13.50449">
        <ele>51.6</ele>
        <time>2021-07-02 18:21:44</time>
      </trkpt>
      <trkpt lat="29.24691" lon="-13.50445">
        <ele>51.6</ele>
        <time>2021-07-02 18:21:45</time>
      </trkpt>
      <trkpt lat="29.24693" lon="-13.5044">
        <ele>51.6</ele>
        <time>2021-07-02 18:21:46</time>
      </trkpt>
      <trkpt lat="29.24694" lon="-13.50436">
        <ele>51.8</ele>
        <time>2021-07-02 18:21:47</time>
      </trkpt>
      <trkpt lat="29.24695" lon="-13.50431">
        <ele>51.8</ele>
        <time>2021-07-02 18:21:48</time>
      </trkpt>
      <trkpt lat="29.24696" lon="-13.50426">
        <ele>51.8</ele>
        <time>2021-07-02 18:21:49</time>
      </trkpt>
      <trkpt lat="29.24697" lon="-13.50422">
        <ele>51.8</ele>
        <time>2021-07-02 18:21:50</time>
      </trkpt>
      <trkpt lat="29.24698" lon="-13.50418">
        <ele>51.6</ele>
        <time>2021-07-02 18:21:51</time>
      </trkpt>
      <trkpt lat="29.24699" lon="-13.50413">
        <ele>51.6</ele>
        <time>2021-07-02 18:21:52</time>
      </trkpt>
      <trkpt lat="29.247" lon="-13.50409">
        <ele>51.6</ele>
        <time>2021-07-02 18:21:53</time>
      </trkpt>
      <trkpt lat="29.24702" lon="-13.50406">
        <ele>51.6</ele>
        <time>2021-07-02 18:21:54</time>
      </trkpt>
      <trkpt lat="29.24702" lon="-13.50401">
        <ele>51.6</ele>
        <time>2021-07-02 18:21:55</time>
      </trkpt>
      <trkpt lat="29.24704" lon="-13.50398">
        <ele>51.6</ele>
        <time>2021-07-02 18:21:56</time>
      </trkpt>
      <trkpt lat="29.24705" lon="-13.50395">
        <ele>51.6</ele>
        <time>2021-07-02 18:21:57</time>
      </trkpt>
      <trkpt lat="29.24706" lon="-13.50391">
        <ele>51.6</ele>
        <time>2021-07-02 18:21:58</time>
      </trkpt>
      <trkpt lat="29.24707" lon="-13.50387">
        <ele>51.8</ele>
        <time>2021-07-02 18:21:59</time>
      </trkpt>
      <trkpt lat="29.24708" lon="-13.50384">
        <ele>51.8</ele>
        <time>2021-07-02 18:22:00</time>
      </trkpt>
      <trkpt lat="29.2471" lon="-13.5038">
        <ele>52.2</ele>
        <time>2021-07-02 18:22:01</time>
      </trkpt>
      <trkpt lat="29.24711" lon="-13.50376">
        <ele>52.2</ele>
        <time>2021-07-02 18:22:02</time>
      </trkpt>
      <trkpt lat="29.24713" lon="-13.50373">
        <ele>52.6</ele>
        <time>2021-07-02 18:22:03</time>
      </trkpt>
      <trkpt lat="29.24715" lon="-13.50369">
        <ele>52.6</ele>
        <time>2021-07-02 18:22:04</time>
      </trkpt>
      <trkpt lat="29.24716" lon="-13.50366">
        <ele>52.8</ele>
        <time>2021-07-02 18:22:05</time>
      </trkpt>
      <trkpt lat="29.24718" lon="-13.50362">
        <ele>52.8</ele>
        <time>2021-07-02 18:22:06</time>
      </trkpt>
      <trkpt lat="29.2472" lon="-13.50359">
        <ele>53</ele>
        <time>2021-07-02 18:22:07</time>
      </trkpt>
      <trkpt lat="29.24721" lon="-13.50355">
        <ele>53</ele>
        <time>2021-07-02 18:22:08</time>
      </trkpt>
      <trkpt lat="29.24723" lon="-13.50351">
        <ele>53</ele>
        <time>2021-07-02 18:22:09</time>
      </trkpt>
      <trkpt lat="29.24725" lon="-13.50347">
        <ele>53.4</ele>
        <time>2021-07-02 18:22:10</time>
      </trkpt>
      <trkpt lat="29.24726" lon="-13.50344">
        <ele>53.4</ele>
        <time>2021-07-02 18:22:11</time>
      </trkpt>
      <trkpt lat="29.24728" lon="-13.50341">
        <ele>53.6</ele>
        <time>2021-07-02 18:22:12</time>
      </trkpt>
      <trkpt lat="29.2473" lon="-13.50338">
        <ele>53.6</ele>
        <time>2021-07-02 18:22:13</time>
      </trkpt>
      <trkpt lat="29.24732" lon="-13.50334">
        <ele>54</ele>
        <time>2021-07-02 18:22:14</time>
      </trkpt>
      <trkpt lat="29.24734" lon="-13.50331">
        <ele>54.2</ele>
        <time>2021-07-02 18:22:15</time>
      </trkpt>
      <trkpt lat="29.24736" lon="-13.50328">
        <ele>54.2</ele>
        <time>2021-07-02 18:22:16</time>
      </trkpt>
      <trkpt lat="29.24738" lon="-13.50325">
        <ele>54.6</ele>
        <time>2021-07-02 18:22:17</time>
      </trkpt>
      <trkpt lat="29.2474" lon="-13.50321">
        <ele>54.6</ele>
        <time>2021-07-02 18:22:18</time>
      </trkpt>
      <trkpt lat="29.24741" lon="-13.50318">
        <ele>54.8</ele>
        <time>2021-07-02 18:22:19</time>
      </trkpt>
      <trkpt lat="29.24743" lon="-13.50315">
        <ele>54.8</ele>
        <time>2021-07-02 18:22:20</time>
      </trkpt>
      <trkpt lat="29.24745" lon="-13.50311">
        <ele>54.8</ele>
        <time>2021-07-02 18:22:21</time>
      </trkpt>
      <trkpt lat="29.24748" lon="-13.50308">
        <ele>54.8</ele>
        <time>2021-07-02 18:22:22</time>
      </trkpt>
      <trkpt lat="29.2475" lon="-13.50305">
        <ele>54.8</ele>
        <time>2021-07-02 18:22:23</time>
      </trkpt>
      <trkpt lat="29.24752" lon="-13.50301">
        <ele>55.2</ele>
        <time>2021-07-02 18:22:24</time>
      </trkpt>
      <trkpt lat="29.24754" lon="-13.50298">
        <ele>55.2</ele>
        <time>2021-07-02 18:22:25</time>
      </trkpt>
      <trkpt lat="29.24757" lon="-13.50294">
        <ele>55.2</ele>
        <time>2021-07-02 18:22:26</time>
      </trkpt>
      <trkpt lat="29.24759" lon="-13.5029">
        <ele>55.2</ele>
        <time>2021-07-02 18:22:27</time>
      </trkpt>
      <trkpt lat="29.24762" lon="-13.50287">
        <ele>55.4</ele>
        <time>2021-07-02 18:22:28</time>
      </trkpt>
      <trkpt lat="29.24765" lon="-13.50284">
        <ele>55.4</ele>
        <time>2021-07-02 18:22:29</time>
      </trkpt>
      <trkpt lat="29.24767" lon="-13.5028">
        <ele>55.4</ele>
        <time>2021-07-02 18:22:30</time>
      </trkpt>
      <trkpt lat="29.2477" lon="-13.50277">
        <ele>55.4</ele>
        <time>2021-07-02 18:22:31</time>
      </trkpt>
      <trkpt lat="29.24773" lon="-13.50273">
        <ele>55.4</ele>
        <time>2021-07-02 18:22:32</time>
      </trkpt>
      <trkpt lat="29.24775" lon="-13.50269">
        <ele>55.4</ele>
        <time>2021-07-02 18:22:33</time>
      </trkpt>
      <trkpt lat="29.24778" lon="-13.50266">
        <ele>55.4</ele>
        <time>2021-07-02 18:22:34</time>
      </trkpt>
      <trkpt lat="29.2478" lon="-13.50263">
        <ele>55.4</ele>
        <time>2021-07-02 18:22:35</time>
      </trkpt>
      <trkpt lat="29.24782" lon="-13.50259">
        <ele>55.4</ele>
        <time>2021-07-02 18:22:36</time>
      </trkpt>
      <trkpt lat="29.24785" lon="-13.50256">
        <ele>55.4</ele>
        <time>2021-07-02 18:22:37</time>
      </trkpt>
      <trkpt lat="29.24787" lon="-13.50252">
        <ele>55.4</ele>
        <time>2021-07-02 18:22:38</time>
      </trkpt>
      <trkpt lat="29.2479" lon="-13.50249">
        <ele>55.4</ele>
        <time>2021-07-02 18:22:39</time>
      </trkpt>
      <trkpt lat="29.24792" lon="-13.50245">
        <ele>55.6</ele>
        <time>2021-07-02 18:22:40</time>
      </trkpt>
      <trkpt lat="29.24795" lon="-13.50242">
        <ele>55.6</ele>
        <time>2021-07-02 18:22:41</time>
      </trkpt>
      <trkpt lat="29.24797" lon="-13.50238">
        <ele>55.8</ele>
        <time>2021-07-02 18:22:42</time>
      </trkpt>
      <trkpt lat="29.248" lon="-13.50235">
        <ele>55.8</ele>
        <time>2021-07-02 18:22:43</time>
      </trkpt>
      <trkpt lat="29.24802" lon="-13.50231">
        <ele>56.2</ele>
        <time>2021-07-02 18:22:44</time>
      </trkpt>
      <trkpt lat="29.24804" lon="-13.50228">
        <ele>56.2</ele>
        <time>2021-07-02 18:22:45</time>
      </trkpt>
      <trkpt lat="29.24806" lon="-13.50224">
        <ele>56.4</ele>
        <time>2021-07-02 18:22:46</time>
      </trkpt>
      <trkpt lat="29.24808" lon="-13.5022">
        <ele>56.4</ele>
        <time>2021-07-02 18:22:47</time>
      </trkpt>
      <trkpt lat="29.2481" lon="-13.50217">
        <ele>56.4</ele>
        <time>2021-07-02 18:22:48</time>
      </trkpt>
      <trkpt lat="29.24813" lon="-13.50213">
        <ele>56.6</ele>
        <time>2021-07-02 18:22:49</time>
      </trkpt>
      <trkpt lat="29.24815" lon="-13.50209">
        <ele>56.6</ele>
        <time>2021-07-02 18:22:50</time>
      </trkpt>
      <trkpt lat="29.24817" lon="-13.50206">
        <ele>56.8</ele>
        <time>2021-07-02 18:22:51</time>
      </trkpt>
      <trkpt lat="29.24819" lon="-13.50202">
        <ele>56.8</ele>
        <time>2021-07-02 18:22:52</time>
      </trkpt>
      <trkpt lat="29.24821" lon="-13.50199">
        <ele>57.2</ele>
        <time>2021-07-02 18:22:53</time>
      </trkpt>
      <trkpt lat="29.24823" lon="-13.50196">
        <ele>57.2</ele>
        <time>2021-07-02 18:22:54</time>
      </trkpt>
      <trkpt lat="29.24825" lon="-13.50191">
        <ele>57.6</ele>
        <time>2021-07-02 18:22:55</time>
      </trkpt>
      <trkpt lat="29.24828" lon="-13.50188">
        <ele>57.6</ele>
        <time>2021-07-02 18:22:56</time>
      </trkpt>
      <trkpt lat="29.2483" lon="-13.50184">
        <ele>57.8</ele>
        <time>2021-07-02 18:22:57</time>
      </trkpt>
      <trkpt lat="29.24834" lon="-13.50179">
        <ele>57.8</ele>
        <time>2021-07-02 18:22:58</time>
      </trkpt>
      <trkpt lat="29.24837" lon="-13.50175">
        <ele>57.8</ele>
        <time>2021-07-02 18:22:59</time>
      </trkpt>
      <trkpt lat="29.24839" lon="-13.50172">
        <ele>57.8</ele>
        <time>2021-07-02 18:23:00</time>
      </trkpt>
      <trkpt lat="29.24842" lon="-13.50168">
        <ele>57.8</ele>
        <time>2021-07-02 18:23:01</time>
      </trkpt>
      <trkpt lat="29.24844" lon="-13.50164">
        <ele>57.8</ele>
        <time>2021-07-02 18:23:02</time>
      </trkpt>
      <trkpt lat="29.24846" lon="-13.50161">
        <ele>57.8</ele>
        <time>2021-07-02 18:23:03</time>
      </trkpt>
      <trkpt lat="29.24848" lon="-13.50158">
        <ele>57.8</ele>
        <time>2021-07-02 18:23:04</time>
      </trkpt>
      <trkpt lat="29.2485" lon="-13.50154">
        <ele>57.8</ele>
        <time>2021-07-02 18:23:05</time>
      </trkpt>
      <trkpt lat="29.24853" lon="-13.50151">
        <ele>57.8</ele>
        <time>2021-07-02 18:23:06</time>
      </trkpt>
      <trkpt lat="29.24855" lon="-13.50147">
        <ele>57.8</ele>
        <time>2021-07-02 18:23:07</time>
      </trkpt>
      <trkpt lat="29.24858" lon="-13.50143">
        <ele>57.4</ele>
        <time>2021-07-02 18:23:08</time>
      </trkpt>
      <trkpt lat="29.2486" lon="-13.50139">
        <ele>57.4</ele>
        <time>2021-07-02 18:23:09</time>
      </trkpt>
      <trkpt lat="29.24863" lon="-13.50135">
        <ele>57.2</ele>
        <time>2021-07-02 18:23:10</time>
      </trkpt>
      <trkpt lat="29.24865" lon="-13.50131">
        <ele>57.2</ele>
        <time>2021-07-02 18:23:11</time>
      </trkpt>
      <trkpt lat="29.24868" lon="-13.50128">
        <ele>57.2</ele>
        <time>2021-07-02 18:23:12</time>
      </trkpt>
      <trkpt lat="29.24872" lon="-13.50124">
        <ele>57</ele>
        <time>2021-07-02 18:23:13</time>
      </trkpt>
      <trkpt lat="29.24874" lon="-13.50121">
        <ele>57</ele>
        <time>2021-07-02 18:23:14</time>
      </trkpt>
      <trkpt lat="29.24877" lon="-13.50117">
        <ele>57</ele>
        <time>2021-07-02 18:23:15</time>
      </trkpt>
      <trkpt lat="29.2488" lon="-13.50114">
        <ele>57</ele>
        <time>2021-07-02 18:23:16</time>
      </trkpt>
      <trkpt lat="29.24882" lon="-13.5011">
        <ele>57</ele>
        <time>2021-07-02 18:23:17</time>
      </trkpt>
      <trkpt lat="29.24885" lon="-13.50107">
        <ele>57</ele>
        <time>2021-07-02 18:23:18</time>
      </trkpt>
      <trkpt lat="29.24888" lon="-13.50104">
        <ele>57</ele>
        <time>2021-07-02 18:23:19</time>
      </trkpt>
      <trkpt lat="29.24891" lon="-13.501">
        <ele>57</ele>
        <time>2021-07-02 18:23:20</time>
      </trkpt>
      <trkpt lat="29.24893" lon="-13.50097">
        <ele>57</ele>
        <time>2021-07-02 18:23:21</time>
      </trkpt>
      <trkpt lat="29.24895" lon="-13.50094">
        <ele>57</ele>
        <time>2021-07-02 18:23:22</time>
      </trkpt>
      <trkpt lat="29.24898" lon="-13.50092">
        <ele>57</ele>
        <time>2021-07-02 18:23:23</time>
      </trkpt>
      <trkpt lat="29.24901" lon="-13.50089">
        <ele>57</ele>
        <time>2021-07-02 18:23:24</time>
      </trkpt>
      <trkpt lat="29.24903" lon="-13.50086">
        <ele>57</ele>
        <time>2021-07-02 18:23:25</time>
      </trkpt>
      <trkpt lat="29.24905" lon="-13.50084">
        <ele>57</ele>
        <time>2021-07-02 18:23:26</time>
      </trkpt>
      <trkpt lat="29.24907" lon="-13.50082">
        <ele>57</ele>
        <time>2021-07-02 18:23:27</time>
      </trkpt>
      <trkpt lat="29.24909" lon="-13.50079">
        <ele>57</ele>
        <time>2021-07-02 18:23:28</time>
      </trkpt>
      <trkpt lat="29.24912" lon="-13.50076">
        <ele>57</ele>
        <time>2021-07-02 18:23:29</time>
      </trkpt>
      <trkpt lat="29.24914" lon="-13.50073">
        <ele>57</ele>
        <time>2021-07-02 18:23:30</time>
      </trkpt>
      <trkpt lat="29.24916" lon="-13.5007">
        <ele>57</ele>
        <time>2021-07-02 18:23:31</time>
      </trkpt>
      <trkpt lat="29.24919" lon="-13.50067">
        <ele>57</ele>
        <time>2021-07-02 18:23:32</time>
      </trkpt>
      <trkpt lat="29.24922" lon="-13.50063">
        <ele>57</ele>
        <time>2021-07-02 18:23:33</time>
      </trkpt>
      <trkpt lat="29.24925" lon="-13.5006">
        <ele>57</ele>
        <time>2021-07-02 18:23:34</time>
      </trkpt>
      <trkpt lat="29.24928" lon="-13.50057">
        <ele>57</ele>
        <time>2021-07-02 18:23:35</time>
      </trkpt>
      <trkpt lat="29.24931" lon="-13.50054">
        <ele>57</ele>
        <time>2021-07-02 18:23:36</time>
      </trkpt>
      <trkpt lat="29.24933" lon="-13.50051">
        <ele>57</ele>
        <time>2021-07-02 18:23:37</time>
      </trkpt>
      <trkpt lat="29.24936" lon="-13.50048">
        <ele>57</ele>
        <time>2021-07-02 18:23:38</time>
      </trkpt>
      <trkpt lat="29.24939" lon="-13.50045">
        <ele>57</ele>
        <time>2021-07-02 18:23:39</time>
      </trkpt>
      <trkpt lat="29.24942" lon="-13.50041">
        <ele>57</ele>
        <time>2021-07-02 18:23:40</time>
      </trkpt>
      <trkpt lat="29.24945" lon="-13.50038">
        <ele>57</ele>
        <time>2021-07-02 18:23:41</time>
      </trkpt>
      <trkpt lat="29.24948" lon="-13.50035">
        <ele>57</ele>
        <time>2021-07-02 18:23:42</time>
      </trkpt>
      <trkpt lat="29.24951" lon="-13.50032">
        <ele>57</ele>
        <time>2021-07-02 18:23:43</time>
      </trkpt>
      <trkpt lat="29.24953" lon="-13.50029">
        <ele>57</ele>
        <time>2021-07-02 18:23:44</time>
      </trkpt>
      <trkpt lat="29.24956" lon="-13.50026">
        <ele>57</ele>
        <time>2021-07-02 18:23:45</time>
      </trkpt>
      <trkpt lat="29.24959" lon="-13.50023">
        <ele>57</ele>
        <time>2021-07-02 18:23:46</time>
      </trkpt>
      <trkpt lat="29.24962" lon="-13.5002">
        <ele>57</ele>
        <time>2021-07-02 18:23:47</time>
      </trkpt>
      <trkpt lat="29.24964" lon="-13.50017">
        <ele>57</ele>
        <time>2021-07-02 18:23:48</time>
      </trkpt>
      <trkpt lat="29.24967" lon="-13.50013">
        <ele>56.8</ele>
        <time>2021-07-02 18:23:49</time>
      </trkpt>
      <trkpt lat="29.2497" lon="-13.5001">
        <ele>56.8</ele>
        <time>2021-07-02 18:23:50</time>
      </trkpt>
      <trkpt lat="29.24972" lon="-13.50007">
        <ele>56.8</ele>
        <time>2021-07-02 18:23:51</time>
      </trkpt>
      <trkpt lat="29.24975" lon="-13.50005">
        <ele>56.8</ele>
        <time>2021-07-02 18:23:52</time>
      </trkpt>
      <trkpt lat="29.24978" lon="-13.50002">
        <ele>56.8</ele>
        <time>2021-07-02 18:23:53</time>
      </trkpt>
      <trkpt lat="29.24981" lon="-13.49999">
        <ele>56.8</ele>
        <time>2021-07-02 18:23:54</time>
      </trkpt>
      <trkpt lat="29.24983" lon="-13.49996">
        <ele>56.8</ele>
        <time>2021-07-02 18:23:55</time>
      </trkpt>
      <trkpt lat="29.24986" lon="-13.49994">
        <ele>56.8</ele>
        <time>2021-07-02 18:23:56</time>
      </trkpt>
      <trkpt lat="29.24988" lon="-13.49991">
        <ele>56.8</ele>
        <time>2021-07-02 18:23:57</time>
      </trkpt>
      <trkpt lat="29.24991" lon="-13.49988">
        <ele>56.8</ele>
        <time>2021-07-02 18:23:58</time>
      </trkpt>
      <trkpt lat="29.24994" lon="-13.49985">
        <ele>56.8</ele>
        <time>2021-07-02 18:23:59</time>
      </trkpt>
      <trkpt lat="29.24994" lon="-13.49985">
        <ele>56.8</ele>
        <time>2021-07-02 18:24:00</time>
      </trkpt>
      <trkpt lat="29.25" lon="-13.4998">
        <ele>56.8</ele>
        <time>2021-07-02 18:24:01</time>
      </trkpt>
      <trkpt lat="29.25002" lon="-13.49977">
        <ele>56.8</ele>
        <time>2021-07-02 18:24:02</time>
      </trkpt>
      <trkpt lat="29.25005" lon="-13.49974">
        <ele>56.8</ele>
        <time>2021-07-02 18:24:03</time>
      </trkpt>
      <trkpt lat="29.25008" lon="-13.49971">
        <ele>56.8</ele>
        <time>2021-07-02 18:24:04</time>
      </trkpt>
      <trkpt lat="29.25011" lon="-13.49968">
        <ele>56.8</ele>
        <time>2021-07-02 18:24:05</time>
      </trkpt>
      <trkpt lat="29.25013" lon="-13.49965">
        <ele>56.8</ele>
        <time>2021-07-02 18:24:06</time>
      </trkpt>
      <trkpt lat="29.25016" lon="-13.49962">
        <ele>56.8</ele>
        <time>2021-07-02 18:24:07</time>
      </trkpt>
      <trkpt lat="29.25018" lon="-13.49959">
        <ele>56.8</ele>
        <time>2021-07-02 18:24:08</time>
      </trkpt>
      <trkpt lat="29.2502" lon="-13.49957">
        <ele>56.8</ele>
        <time>2021-07-02 18:24:09</time>
      </trkpt>
      <trkpt lat="29.25023" lon="-13.49955">
        <ele>56.8</ele>
        <time>2021-07-02 18:24:10</time>
      </trkpt>
      <trkpt lat="29.25026" lon="-13.49952">
        <ele>56.8</ele>
        <time>2021-07-02 18:24:11</time>
      </trkpt>
      <trkpt lat="29.25029" lon="-13.4995">
        <ele>56.8</ele>
        <time>2021-07-02 18:24:12</time>
      </trkpt>
      <trkpt lat="29.25032" lon="-13.49946">
        <ele>56.8</ele>
        <time>2021-07-02 18:24:13</time>
      </trkpt>
      <trkpt lat="29.25035" lon="-13.49943">
        <ele>56.8</ele>
        <time>2021-07-02 18:24:14</time>
      </trkpt>
      <trkpt lat="29.25037" lon="-13.49941">
        <ele>57</ele>
        <time>2021-07-02 18:24:15</time>
      </trkpt>
      <trkpt lat="29.2504" lon="-13.49938">
        <ele>57</ele>
        <time>2021-07-02 18:24:16</time>
      </trkpt>
      <trkpt lat="29.25043" lon="-13.49936">
        <ele>57</ele>
        <time>2021-07-02 18:24:17</time>
      </trkpt>
      <trkpt lat="29.25046" lon="-13.49934">
        <ele>57</ele>
        <time>2021-07-02 18:24:18</time>
      </trkpt>
      <trkpt lat="29.25049" lon="-13.49932">
        <ele>57.2</ele>
        <time>2021-07-02 18:24:19</time>
      </trkpt>
      <trkpt lat="29.25052" lon="-13.49929">
        <ele>57.2</ele>
        <time>2021-07-02 18:24:20</time>
      </trkpt>
      <trkpt lat="29.25055" lon="-13.49927">
        <ele>57.2</ele>
        <time>2021-07-02 18:24:21</time>
      </trkpt>
      <trkpt lat="29.25058" lon="-13.49925">
        <ele>57.2</ele>
        <time>2021-07-02 18:24:22</time>
      </trkpt>
      <trkpt lat="29.25061" lon="-13.49922">
        <ele>57.2</ele>
        <time>2021-07-02 18:24:23</time>
      </trkpt>
      <trkpt lat="29.25064" lon="-13.4992">
        <ele>57.2</ele>
        <time>2021-07-02 18:24:24</time>
      </trkpt>
      <trkpt lat="29.25067" lon="-13.49918">
        <ele>57.2</ele>
        <time>2021-07-02 18:24:25</time>
      </trkpt>
      <trkpt lat="29.2507" lon="-13.49916">
        <ele>57.6</ele>
        <time>2021-07-02 18:24:26</time>
      </trkpt>
      <trkpt lat="29.25074" lon="-13.49913">
        <ele>57.6</ele>
        <time>2021-07-02 18:24:27</time>
      </trkpt>
      <trkpt lat="29.25076" lon="-13.49911">
        <ele>57.6</ele>
        <time>2021-07-02 18:24:28</time>
      </trkpt>
      <trkpt lat="29.25079" lon="-13.49909">
        <ele>57.6</ele>
        <time>2021-07-02 18:24:29</time>
      </trkpt>
      <trkpt lat="29.25082" lon="-13.49907">
        <ele>57.6</ele>
        <time>2021-07-02 18:24:30</time>
      </trkpt>
      <trkpt lat="29.25085" lon="-13.49904">
        <ele>57.6</ele>
        <time>2021-07-02 18:24:31</time>
      </trkpt>
      <trkpt lat="29.25088" lon="-13.49902">
        <ele>57.6</ele>
        <time>2021-07-02 18:24:32</time>
      </trkpt>
      <trkpt lat="29.2509" lon="-13.499">
        <ele>57.6</ele>
        <time>2021-07-02 18:24:33</time>
      </trkpt>
      <trkpt lat="29.25093" lon="-13.49898">
        <ele>57.6</ele>
        <time>2021-07-02 18:24:34</time>
      </trkpt>
      <trkpt lat="29.25096" lon="-13.49895">
        <ele>57.8</ele>
        <time>2021-07-02 18:24:35</time>
      </trkpt>
      <trkpt lat="29.25099" lon="-13.49894">
        <ele>57.8</ele>
        <time>2021-07-02 18:24:36</time>
      </trkpt>
      <trkpt lat="29.25102" lon="-13.49892">
        <ele>58</ele>
        <time>2021-07-02 18:24:37</time>
      </trkpt>
      <trkpt lat="29.25104" lon="-13.4989">
        <ele>58</ele>
        <time>2021-07-02 18:24:38</time>
      </trkpt>
      <trkpt lat="29.25106" lon="-13.49888">
        <ele>58</ele>
        <time>2021-07-02 18:24:39</time>
      </trkpt>
      <trkpt lat="29.25109" lon="-13.49886">
        <ele>58</ele>
        <time>2021-07-02 18:24:40</time>
      </trkpt>
      <trkpt lat="29.25112" lon="-13.49884">
        <ele>58.2</ele>
        <time>2021-07-02 18:24:41</time>
      </trkpt>
      <trkpt lat="29.25114" lon="-13.49882">
        <ele>58.2</ele>
        <time>2021-07-02 18:24:42</time>
      </trkpt>
      <trkpt lat="29.25117" lon="-13.49881">
        <ele>58.4</ele>
        <time>2021-07-02 18:24:43</time>
      </trkpt>
      <trkpt lat="29.25119" lon="-13.49879">
        <ele>58.4</ele>
        <time>2021-07-02 18:24:44</time>
      </trkpt>
      <trkpt lat="29.25122" lon="-13.49877">
        <ele>58.8</ele>
        <time>2021-07-02 18:24:45</time>
      </trkpt>
      <trkpt lat="29.25125" lon="-13.49875">
        <ele>58.8</ele>
        <time>2021-07-02 18:24:46</time>
      </trkpt>
      <trkpt lat="29.25127" lon="-13.49874">
        <ele>58.8</ele>
        <time>2021-07-02 18:24:47</time>
      </trkpt>
      <trkpt lat="29.25129" lon="-13.49873">
        <ele>59</ele>
        <time>2021-07-02 18:24:48</time>
      </trkpt>
      <trkpt lat="29.25132" lon="-13.49871">
        <ele>59</ele>
        <time>2021-07-02 18:24:49</time>
      </trkpt>
      <trkpt lat="29.25135" lon="-13.49869">
        <ele>59</ele>
        <time>2021-07-02 18:24:50</time>
      </trkpt>
      <trkpt lat="29.25137" lon="-13.49867">
        <ele>59.4</ele>
        <time>2021-07-02 18:24:51</time>
      </trkpt>
      <trkpt lat="29.2514" lon="-13.49866">
        <ele>59.4</ele>
        <time>2021-07-02 18:24:52</time>
      </trkpt>
      <trkpt lat="29.25143" lon="-13.49864">
        <ele>59.4</ele>
        <time>2021-07-02 18:24:53</time>
      </trkpt>
      <trkpt lat="29.25145" lon="-13.49862">
        <ele>59.4</ele>
        <time>2021-07-02 18:24:54</time>
      </trkpt>
      <trkpt lat="29.25148" lon="-13.4986">
        <ele>59.6</ele>
        <time>2021-07-02 18:24:55</time>
      </trkpt>
      <trkpt lat="29.2515" lon="-13.49858">
        <ele>59.6</ele>
        <time>2021-07-02 18:24:56</time>
      </trkpt>
      <trkpt lat="29.25152" lon="-13.49857">
        <ele>59.6</ele>
        <time>2021-07-02 18:24:57</time>
      </trkpt>
      <trkpt lat="29.25155" lon="-13.49855">
        <ele>59.6</ele>
        <time>2021-07-02 18:24:58</time>
      </trkpt>
      <trkpt lat="29.25157" lon="-13.49853">
        <ele>59.6</ele>
        <time>2021-07-02 18:24:59</time>
      </trkpt>
      <trkpt lat="29.2516" lon="-13.49851">
        <ele>59.6</ele>
        <time>2021-07-02 18:25:00</time>
      </trkpt>
      <trkpt lat="29.25163" lon="-13.49849">
        <ele>59.6</ele>
        <time>2021-07-02 18:25:01</time>
      </trkpt>
      <trkpt lat="29.25166" lon="-13.49847">
        <ele>59.6</ele>
        <time>2021-07-02 18:25:02</time>
      </trkpt>
      <trkpt lat="29.25169" lon="-13.49845">
        <ele>59.6</ele>
        <time>2021-07-02 18:25:03</time>
      </trkpt>
      <trkpt lat="29.25171" lon="-13.49844">
        <ele>59.8</ele>
        <time>2021-07-02 18:25:04</time>
      </trkpt>
      <trkpt lat="29.25174" lon="-13.49842">
        <ele>59.8</ele>
        <time>2021-07-02 18:25:05</time>
      </trkpt>
      <trkpt lat="29.25177" lon="-13.4984">
        <ele>59.8</ele>
        <time>2021-07-02 18:25:06</time>
      </trkpt>
      <trkpt lat="29.2518" lon="-13.49838">
        <ele>59.8</ele>
        <time>2021-07-02 18:25:07</time>
      </trkpt>
      <trkpt lat="29.25183" lon="-13.49837">
        <ele>60</ele>
        <time>2021-07-02 18:25:08</time>
      </trkpt>
      <trkpt lat="29.25186" lon="-13.49836">
        <ele>60</ele>
        <time>2021-07-02 18:25:09</time>
      </trkpt>
      <trkpt lat="29.25189" lon="-13.49834">
        <ele>60</ele>
        <time>2021-07-02 18:25:10</time>
      </trkpt>
      <trkpt lat="29.25192" lon="-13.49833">
        <ele>60</ele>
        <time>2021-07-02 18:25:11</time>
      </trkpt>
      <trkpt lat="29.25195" lon="-13.49832">
        <ele>60</ele>
        <time>2021-07-02 18:25:12</time>
      </trkpt>
      <trkpt lat="29.25198" lon="-13.49831">
        <ele>60</ele>
        <time>2021-07-02 18:25:13</time>
      </trkpt>
      <trkpt lat="29.25201" lon="-13.49829">
        <ele>60.2</ele>
        <time>2021-07-02 18:25:14</time>
      </trkpt>
      <trkpt lat="29.25204" lon="-13.49828">
        <ele>60.2</ele>
        <time>2021-07-02 18:25:15</time>
      </trkpt>
      <trkpt lat="29.25207" lon="-13.49826">
        <ele>60.2</ele>
        <time>2021-07-02 18:25:16</time>
      </trkpt>
      <trkpt lat="29.2521" lon="-13.49824">
        <ele>60.2</ele>
        <time>2021-07-02 18:25:17</time>
      </trkpt>
      <trkpt lat="29.25213" lon="-13.49823">
        <ele>60.4</ele>
        <time>2021-07-02 18:25:18</time>
      </trkpt>
      <trkpt lat="29.25216" lon="-13.49821">
        <ele>60.4</ele>
        <time>2021-07-02 18:25:19</time>
      </trkpt>
      <trkpt lat="29.25218" lon="-13.49819">
        <ele>60.4</ele>
        <time>2021-07-02 18:25:20</time>
      </trkpt>
      <trkpt lat="29.25221" lon="-13.49818">
        <ele>60.4</ele>
        <time>2021-07-02 18:25:21</time>
      </trkpt>
      <trkpt lat="29.25223" lon="-13.49816">
        <ele>60.6</ele>
        <time>2021-07-02 18:25:22</time>
      </trkpt>
      <trkpt lat="29.25225" lon="-13.49815">
        <ele>60.6</ele>
        <time>2021-07-02 18:25:23</time>
      </trkpt>
      <trkpt lat="29.25229" lon="-13.49813">
        <ele>60.6</ele>
        <time>2021-07-02 18:25:24</time>
      </trkpt>
      <trkpt lat="29.25232" lon="-13.49811">
        <ele>60.6</ele>
        <time>2021-07-02 18:25:25</time>
      </trkpt>
      <trkpt lat="29.25235" lon="-13.49809">
        <ele>60.6</ele>
        <time>2021-07-02 18:25:26</time>
      </trkpt>
      <trkpt lat="29.25238" lon="-13.49807">
        <ele>60.6</ele>
        <time>2021-07-02 18:25:27</time>
      </trkpt>
      <trkpt lat="29.25241" lon="-13.49806">
        <ele>60.8</ele>
        <time>2021-07-02 18:25:28</time>
      </trkpt>
      <trkpt lat="29.25244" lon="-13.49804">
        <ele>60.8</ele>
        <time>2021-07-02 18:25:29</time>
      </trkpt>
      <trkpt lat="29.25247" lon="-13.49802">
        <ele>60.8</ele>
        <time>2021-07-02 18:25:30</time>
      </trkpt>
      <trkpt lat="29.25249" lon="-13.49801">
        <ele>60.8</ele>
        <time>2021-07-02 18:25:31</time>
      </trkpt>
      <trkpt lat="29.25252" lon="-13.49799">
        <ele>60.8</ele>
        <time>2021-07-02 18:25:32</time>
      </trkpt>
      <trkpt lat="29.25254" lon="-13.49798">
        <ele>61.2</ele>
        <time>2021-07-02 18:25:33</time>
      </trkpt>
      <trkpt lat="29.25256" lon="-13.49797">
        <ele>61.2</ele>
        <time>2021-07-02 18:25:34</time>
      </trkpt>
      <trkpt lat="29.25258" lon="-13.49795">
        <ele>61.2</ele>
        <time>2021-07-02 18:25:35</time>
      </trkpt>
      <trkpt lat="29.2526" lon="-13.49793">
        <ele>61.2</ele>
        <time>2021-07-02 18:25:36</time>
      </trkpt>
      <trkpt lat="29.25263" lon="-13.4979">
        <ele>61.2</ele>
        <time>2021-07-02 18:25:37</time>
      </trkpt>
      <trkpt lat="29.25265" lon="-13.49788">
        <ele>61.2</ele>
        <time>2021-07-02 18:25:38</time>
      </trkpt>
      <trkpt lat="29.25268" lon="-13.49786">
        <ele>61.2</ele>
        <time>2021-07-02 18:25:39</time>
      </trkpt>
      <trkpt lat="29.2527" lon="-13.49784">
        <ele>61.4</ele>
        <time>2021-07-02 18:25:40</time>
      </trkpt>
      <trkpt lat="29.25273" lon="-13.49782">
        <ele>61.4</ele>
        <time>2021-07-02 18:25:41</time>
      </trkpt>
      <trkpt lat="29.25275" lon="-13.49781">
        <ele>61.4</ele>
        <time>2021-07-02 18:25:42</time>
      </trkpt>
      <trkpt lat="29.25278" lon="-13.4978">
        <ele>61.6</ele>
        <time>2021-07-02 18:25:43</time>
      </trkpt>
      <trkpt lat="29.25281" lon="-13.49779">
        <ele>61.6</ele>
        <time>2021-07-02 18:25:44</time>
      </trkpt>
      <trkpt lat="29.25284" lon="-13.49778">
        <ele>61.8</ele>
        <time>2021-07-02 18:25:45</time>
      </trkpt>
      <trkpt lat="29.25286" lon="-13.49777">
        <ele>61.8</ele>
        <time>2021-07-02 18:25:46</time>
      </trkpt>
      <trkpt lat="29.25288" lon="-13.49776">
        <ele>61.8</ele>
        <time>2021-07-02 18:25:47</time>
      </trkpt>
      <trkpt lat="29.2529" lon="-13.49775">
        <ele>62.2</ele>
        <time>2021-07-02 18:25:48</time>
      </trkpt>
      <trkpt lat="29.25292" lon="-13.49774">
        <ele>62.2</ele>
        <time>2021-07-02 18:25:49</time>
      </trkpt>
      <trkpt lat="29.25295" lon="-13.49773">
        <ele>62.4</ele>
        <time>2021-07-02 18:25:50</time>
      </trkpt>
      <trkpt lat="29.25297" lon="-13.49772">
        <ele>62.4</ele>
        <time>2021-07-02 18:25:51</time>
      </trkpt>
      <trkpt lat="29.25299" lon="-13.4977">
        <ele>62.6</ele>
        <time>2021-07-02 18:25:52</time>
      </trkpt>
      <trkpt lat="29.25301" lon="-13.49769">
        <ele>62.6</ele>
        <time>2021-07-02 18:25:53</time>
      </trkpt>
      <trkpt lat="29.25303" lon="-13.49768">
        <ele>62.8</ele>
        <time>2021-07-02 18:25:54</time>
      </trkpt>
      <trkpt lat="29.25305" lon="-13.49766">
        <ele>62.8</ele>
        <time>2021-07-02 18:25:55</time>
      </trkpt>
      <trkpt lat="29.25307" lon="-13.49765">
        <ele>63.2</ele>
        <time>2021-07-02 18:25:56</time>
      </trkpt>
      <trkpt lat="29.25309" lon="-13.49765">
        <ele>63.2</ele>
        <time>2021-07-02 18:25:57</time>
      </trkpt>
      <trkpt lat="29.25311" lon="-13.49764">
        <ele>63.4</ele>
        <time>2021-07-02 18:25:58</time>
      </trkpt>
      <trkpt lat="29.25313" lon="-13.49762">
        <ele>63.4</ele>
        <time>2021-07-02 18:25:59</time>
      </trkpt>
      <trkpt lat="29.25315" lon="-13.49761">
        <ele>63.8</ele>
        <time>2021-07-02 18:26:00</time>
      </trkpt>
      <trkpt lat="29.25317" lon="-13.4976">
        <ele>63.8</ele>
        <time>2021-07-02 18:26:01</time>
      </trkpt>
      <trkpt lat="29.25319" lon="-13.49758">
        <ele>64</ele>
        <time>2021-07-02 18:26:02</time>
      </trkpt>
      <trkpt lat="29.25321" lon="-13.49757">
        <ele>64</ele>
        <time>2021-07-02 18:26:03</time>
      </trkpt>
      <trkpt lat="29.25324" lon="-13.49755">
        <ele>64</ele>
        <time>2021-07-02 18:26:04</time>
      </trkpt>
      <trkpt lat="29.25326" lon="-13.49753">
        <ele>64.4</ele>
        <time>2021-07-02 18:26:05</time>
      </trkpt>
      <trkpt lat="29.25328" lon="-13.49752">
        <ele>64.4</ele>
        <time>2021-07-02 18:26:06</time>
      </trkpt>
      <trkpt lat="29.2533" lon="-13.4975">
        <ele>64.6</ele>
        <time>2021-07-02 18:26:07</time>
      </trkpt>
      <trkpt lat="29.25333" lon="-13.49749">
        <ele>64.6</ele>
        <time>2021-07-02 18:26:08</time>
      </trkpt>
      <trkpt lat="29.25335" lon="-13.49747">
        <ele>64.8</ele>
        <time>2021-07-02 18:26:09</time>
      </trkpt>
      <trkpt lat="29.25337" lon="-13.49746">
        <ele>64.8</ele>
        <time>2021-07-02 18:26:10</time>
      </trkpt>
      <trkpt lat="29.25339" lon="-13.49745">
        <ele>65</ele>
        <time>2021-07-02 18:26:11</time>
      </trkpt>
      <trkpt lat="29.25342" lon="-13.49743">
        <ele>65</ele>
        <time>2021-07-02 18:26:12</time>
      </trkpt>
      <trkpt lat="29.25344" lon="-13.49742">
        <ele>65.4</ele>
        <time>2021-07-02 18:26:13</time>
      </trkpt>
      <trkpt lat="29.25347" lon="-13.4974">
        <ele>65.6</ele>
        <time>2021-07-02 18:26:14</time>
      </trkpt>
      <trkpt lat="29.25349" lon="-13.49739">
        <ele>65.6</ele>
        <time>2021-07-02 18:26:15</time>
      </trkpt>
      <trkpt lat="29.25351" lon="-13.49737">
        <ele>65.8</ele>
        <time>2021-07-02 18:26:16</time>
      </trkpt>
      <trkpt lat="29.25353" lon="-13.49736">
        <ele>65.8</ele>
        <time>2021-07-02 18:26:17</time>
      </trkpt>
      <trkpt lat="29.25355" lon="-13.49735">
        <ele>66</ele>
        <time>2021-07-02 18:26:18</time>
      </trkpt>
      <trkpt lat="29.25357" lon="-13.49734">
        <ele>66</ele>
        <time>2021-07-02 18:26:19</time>
      </trkpt>
      <trkpt lat="29.25359" lon="-13.49733">
        <ele>66</ele>
        <time>2021-07-02 18:26:20</time>
      </trkpt>
      <trkpt lat="29.25361" lon="-13.49732">
        <ele>66.4</ele>
        <time>2021-07-02 18:26:21</time>
      </trkpt>
      <trkpt lat="29.25363" lon="-13.4973">
        <ele>66.4</ele>
        <time>2021-07-02 18:26:22</time>
      </trkpt>
      <trkpt lat="29.25366" lon="-13.49729">
        <ele>66.6</ele>
        <time>2021-07-02 18:26:23</time>
      </trkpt>
      <trkpt lat="29.25368" lon="-13.49728">
        <ele>66.6</ele>
        <time>2021-07-02 18:26:24</time>
      </trkpt>
      <trkpt lat="29.2537" lon="-13.49726">
        <ele>67</ele>
        <time>2021-07-02 18:26:25</time>
      </trkpt>
      <trkpt lat="29.25372" lon="-13.49725">
        <ele>67</ele>
        <time>2021-07-02 18:26:26</time>
      </trkpt>
      <trkpt lat="29.25374" lon="-13.49724">
        <ele>67.4</ele>
        <time>2021-07-02 18:26:27</time>
      </trkpt>
      <trkpt lat="29.25376" lon="-13.49722">
        <ele>67.4</ele>
        <time>2021-07-02 18:26:28</time>
      </trkpt>
      <trkpt lat="29.25378" lon="-13.49721">
        <ele>67.8</ele>
        <time>2021-07-02 18:26:29</time>
      </trkpt>
      <trkpt lat="29.2538" lon="-13.4972">
        <ele>68</ele>
        <time>2021-07-02 18:26:30</time>
      </trkpt>
      <trkpt lat="29.25381" lon="-13.49718">
        <ele>68</ele>
        <time>2021-07-02 18:26:31</time>
      </trkpt>
      <trkpt lat="29.25384" lon="-13.49717">
        <ele>68.4</ele>
        <time>2021-07-02 18:26:32</time>
      </trkpt>
      <trkpt lat="29.25385" lon="-13.49716">
        <ele>68.6</ele>
        <time>2021-07-02 18:26:33</time>
      </trkpt>
      <trkpt lat="29.25388" lon="-13.49714">
        <ele>68.6</ele>
        <time>2021-07-02 18:26:34</time>
      </trkpt>
      <trkpt lat="29.2539" lon="-13.49713">
        <ele>68.8</ele>
        <time>2021-07-02 18:26:35</time>
      </trkpt>
      <trkpt lat="29.25392" lon="-13.49711">
        <ele>68.8</ele>
        <time>2021-07-02 18:26:36</time>
      </trkpt>
      <trkpt lat="29.25394" lon="-13.4971">
        <ele>69.2</ele>
        <time>2021-07-02 18:26:37</time>
      </trkpt>
      <trkpt lat="29.25396" lon="-13.49708">
        <ele>69.2</ele>
        <time>2021-07-02 18:26:38</time>
      </trkpt>
      <trkpt lat="29.25398" lon="-13.49706">
        <ele>69.2</ele>
        <time>2021-07-02 18:26:39</time>
      </trkpt>
      <trkpt lat="29.254" lon="-13.49704">
        <ele>69.4</ele>
        <time>2021-07-02 18:26:40</time>
      </trkpt>
      <trkpt lat="29.25402" lon="-13.49702">
        <ele>69.4</ele>
        <time>2021-07-02 18:26:41</time>
      </trkpt>
      <trkpt lat="29.25404" lon="-13.497">
        <ele>69.4</ele>
        <time>2021-07-02 18:26:42</time>
      </trkpt>
      <trkpt lat="29.25405" lon="-13.49698">
        <ele>69.4</ele>
        <time>2021-07-02 18:26:43</time>
      </trkpt>
      <trkpt lat="29.25408" lon="-13.49696">
        <ele>69.6</ele>
        <time>2021-07-02 18:26:44</time>
      </trkpt>
      <trkpt lat="29.2541" lon="-13.49695">
        <ele>69.6</ele>
        <time>2021-07-02 18:26:45</time>
      </trkpt>
      <trkpt lat="29.25411" lon="-13.49693">
        <ele>69.8</ele>
        <time>2021-07-02 18:26:46</time>
      </trkpt>
      <trkpt lat="29.25413" lon="-13.49691">
        <ele>69.8</ele>
        <time>2021-07-02 18:26:47</time>
      </trkpt>
      <trkpt lat="29.25415" lon="-13.4969">
        <ele>70</ele>
        <time>2021-07-02 18:26:48</time>
      </trkpt>
      <trkpt lat="29.25417" lon="-13.49689">
        <ele>70</ele>
        <time>2021-07-02 18:26:49</time>
      </trkpt>
      <trkpt lat="29.25419" lon="-13.49688">
        <ele>70</ele>
        <time>2021-07-02 18:26:50</time>
      </trkpt>
      <trkpt lat="29.25421" lon="-13.49687">
        <ele>70.4</ele>
        <time>2021-07-02 18:26:51</time>
      </trkpt>
      <trkpt lat="29.25423" lon="-13.49686">
        <ele>70.4</ele>
        <time>2021-07-02 18:26:52</time>
      </trkpt>
      <trkpt lat="29.25425" lon="-13.49685">
        <ele>70.6</ele>
        <time>2021-07-02 18:26:53</time>
      </trkpt>
      <trkpt lat="29.25427" lon="-13.49684">
        <ele>70.6</ele>
        <time>2021-07-02 18:26:54</time>
      </trkpt>
      <trkpt lat="29.25429" lon="-13.49683">
        <ele>71</ele>
        <time>2021-07-02 18:26:55</time>
      </trkpt>
      <trkpt lat="29.25431" lon="-13.49682">
        <ele>71</ele>
        <time>2021-07-02 18:26:56</time>
      </trkpt>
      <trkpt lat="29.25432" lon="-13.49682">
        <ele>71</ele>
        <time>2021-07-02 18:26:57</time>
      </trkpt>
      <trkpt lat="29.25434" lon="-13.49681">
        <ele>71.2</ele>
        <time>2021-07-02 18:26:58</time>
      </trkpt>
      <trkpt lat="29.25436" lon="-13.4968">
        <ele>71.2</ele>
        <time>2021-07-02 18:26:59</time>
      </trkpt>
      <trkpt lat="29.25439" lon="-13.49678">
        <ele>71.4</ele>
        <time>2021-07-02 18:27:00</time>
      </trkpt>
      <trkpt lat="29.25441" lon="-13.49677">
        <ele>71.4</ele>
        <time>2021-07-02 18:27:01</time>
      </trkpt>
      <trkpt lat="29.25443" lon="-13.49675">
        <ele>71.4</ele>
        <time>2021-07-02 18:27:02</time>
      </trkpt>
      <trkpt lat="29.25445" lon="-13.49673">
        <ele>71.6</ele>
        <time>2021-07-02 18:27:03</time>
      </trkpt>
      <trkpt lat="29.25447" lon="-13.49671">
        <ele>71.6</ele>
        <time>2021-07-02 18:27:04</time>
      </trkpt>
      <trkpt lat="29.2545" lon="-13.49669">
        <ele>71.6</ele>
        <time>2021-07-02 18:27:05</time>
      </trkpt>
      <trkpt lat="29.25452" lon="-13.49668">
        <ele>71.6</ele>
        <time>2021-07-02 18:27:06</time>
      </trkpt>
      <trkpt lat="29.25454" lon="-13.49666">
        <ele>72</ele>
        <time>2021-07-02 18:27:07</time>
      </trkpt>
      <trkpt lat="29.25456" lon="-13.49664">
        <ele>72</ele>
        <time>2021-07-02 18:27:08</time>
      </trkpt>
      <trkpt lat="29.25458" lon="-13.49662">
        <ele>72</ele>
        <time>2021-07-02 18:27:09</time>
      </trkpt>
      <trkpt lat="29.25461" lon="-13.4966">
        <ele>72</ele>
        <time>2021-07-02 18:27:10</time>
      </trkpt>
      <trkpt lat="29.25463" lon="-13.49659">
        <ele>72</ele>
        <time>2021-07-02 18:27:11</time>
      </trkpt>
      <trkpt lat="29.25466" lon="-13.49657">
        <ele>72</ele>
        <time>2021-07-02 18:27:12</time>
      </trkpt>
      <trkpt lat="29.25469" lon="-13.49655">
        <ele>72.2</ele>
        <time>2021-07-02 18:27:13</time>
      </trkpt>
      <trkpt lat="29.25472" lon="-13.49654">
        <ele>72.2</ele>
        <time>2021-07-02 18:27:14</time>
      </trkpt>
      <trkpt lat="29.25475" lon="-13.49652">
        <ele>72.2</ele>
        <time>2021-07-02 18:27:15</time>
      </trkpt>
      <trkpt lat="29.25478" lon="-13.4965">
        <ele>72.2</ele>
        <time>2021-07-02 18:27:16</time>
      </trkpt>
      <trkpt lat="29.25481" lon="-13.49647">
        <ele>72.2</ele>
        <time>2021-07-02 18:27:17</time>
      </trkpt>
      <trkpt lat="29.25484" lon="-13.49645">
        <ele>72.2</ele>
        <time>2021-07-02 18:27:18</time>
      </trkpt>
      <trkpt lat="29.25487" lon="-13.49643">
        <ele>72.2</ele>
        <time>2021-07-02 18:27:19</time>
      </trkpt>
      <trkpt lat="29.25489" lon="-13.4964">
        <ele>71.8</ele>
        <time>2021-07-02 18:27:20</time>
      </trkpt>
      <trkpt lat="29.25492" lon="-13.49637">
        <ele>71.8</ele>
        <time>2021-07-02 18:27:21</time>
      </trkpt>
      <trkpt lat="29.25494" lon="-13.49635">
        <ele>71.8</ele>
        <time>2021-07-02 18:27:22</time>
      </trkpt>
      <trkpt lat="29.25496" lon="-13.49632">
        <ele>71.8</ele>
        <time>2021-07-02 18:27:23</time>
      </trkpt>
      <trkpt lat="29.25498" lon="-13.49629">
        <ele>71.8</ele>
        <time>2021-07-02 18:27:24</time>
      </trkpt>
      <trkpt lat="29.255" lon="-13.49627">
        <ele>72.2</ele>
        <time>2021-07-02 18:27:25</time>
      </trkpt>
      <trkpt lat="29.25502" lon="-13.49624">
        <ele>72.2</ele>
        <time>2021-07-02 18:27:26</time>
      </trkpt>
      <trkpt lat="29.25503" lon="-13.49622">
        <ele>72.6</ele>
        <time>2021-07-02 18:27:27</time>
      </trkpt>
      <trkpt lat="29.25506" lon="-13.49618">
        <ele>72.6</ele>
        <time>2021-07-02 18:27:28</time>
      </trkpt>
      <trkpt lat="29.25507" lon="-13.49616">
        <ele>72.8</ele>
        <time>2021-07-02 18:27:29</time>
      </trkpt>
      <trkpt lat="29.25509" lon="-13.49614">
        <ele>72.8</ele>
        <time>2021-07-02 18:27:30</time>
      </trkpt>
      <trkpt lat="29.2551" lon="-13.49611">
        <ele>73</ele>
        <time>2021-07-02 18:27:31</time>
      </trkpt>
      <trkpt lat="29.25512" lon="-13.49609">
        <ele>73</ele>
        <time>2021-07-02 18:27:32</time>
      </trkpt>
      <trkpt lat="29.25514" lon="-13.49606">
        <ele>73.4</ele>
        <time>2021-07-02 18:27:33</time>
      </trkpt>
      <trkpt lat="29.25516" lon="-13.49604">
        <ele>73.4</ele>
        <time>2021-07-02 18:27:34</time>
      </trkpt>
      <trkpt lat="29.25518" lon="-13.49601">
        <ele>73.4</ele>
        <time>2021-07-02 18:27:35</time>
      </trkpt>
      <trkpt lat="29.2552" lon="-13.49599">
        <ele>73.6</ele>
        <time>2021-07-02 18:27:36</time>
      </trkpt>
      <trkpt lat="29.25522" lon="-13.49596">
        <ele>73.6</ele>
        <time>2021-07-02 18:27:37</time>
      </trkpt>
      <trkpt lat="29.25524" lon="-13.49593">
        <ele>73.8</ele>
        <time>2021-07-02 18:27:38</time>
      </trkpt>
      <trkpt lat="29.25525" lon="-13.49591">
        <ele>73.8</ele>
        <time>2021-07-02 18:27:39</time>
      </trkpt>
      <trkpt lat="29.25527" lon="-13.49588">
        <ele>74.2</ele>
        <time>2021-07-02 18:27:40</time>
      </trkpt>
      <trkpt lat="29.25529" lon="-13.49586">
        <ele>74.2</ele>
        <time>2021-07-02 18:27:41</time>
      </trkpt>
      <trkpt lat="29.25531" lon="-13.49583">
        <ele>74.2</ele>
        <time>2021-07-02 18:27:42</time>
      </trkpt>
      <trkpt lat="29.25533" lon="-13.49581">
        <ele>74.6</ele>
        <time>2021-07-02 18:27:43</time>
      </trkpt>
      <trkpt lat="29.25536" lon="-13.49579">
        <ele>74.6</ele>
        <time>2021-07-02 18:27:44</time>
      </trkpt>
      <trkpt lat="29.25538" lon="-13.49577">
        <ele>74.6</ele>
        <time>2021-07-02 18:27:45</time>
      </trkpt>
      <trkpt lat="29.2554" lon="-13.49574">
        <ele>74.6</ele>
        <time>2021-07-02 18:27:46</time>
      </trkpt>
      <trkpt lat="29.25543" lon="-13.49571">
        <ele>74.6</ele>
        <time>2021-07-02 18:27:47</time>
      </trkpt>
      <trkpt lat="29.25545" lon="-13.49568">
        <ele>74.6</ele>
        <time>2021-07-02 18:27:48</time>
      </trkpt>
      <trkpt lat="29.25547" lon="-13.49566">
        <ele>74.8</ele>
        <time>2021-07-02 18:27:49</time>
      </trkpt>
      <trkpt lat="29.25549" lon="-13.49563">
        <ele>74.8</ele>
        <time>2021-07-02 18:27:50</time>
      </trkpt>
      <trkpt lat="29.25551" lon="-13.4956">
        <ele>75</ele>
        <time>2021-07-02 18:27:51</time>
      </trkpt>
      <trkpt lat="29.25553" lon="-13.49557">
        <ele>75</ele>
        <time>2021-07-02 18:27:52</time>
      </trkpt>
      <trkpt lat="29.25555" lon="-13.49554">
        <ele>75</ele>
        <time>2021-07-02 18:27:53</time>
      </trkpt>
      <trkpt lat="29.25557" lon="-13.49552">
        <ele>75.2</ele>
        <time>2021-07-02 18:27:54</time>
      </trkpt>
      <trkpt lat="29.25559" lon="-13.49549">
        <ele>75.2</ele>
        <time>2021-07-02 18:27:55</time>
      </trkpt>
      <trkpt lat="29.25561" lon="-13.49546">
        <ele>75.2</ele>
        <time>2021-07-02 18:27:56</time>
      </trkpt>
      <trkpt lat="29.25563" lon="-13.49543">
        <ele>75.2</ele>
        <time>2021-07-02 18:27:57</time>
      </trkpt>
      <trkpt lat="29.25565" lon="-13.4954">
        <ele>75.4</ele>
        <time>2021-07-02 18:27:58</time>
      </trkpt>
      <trkpt lat="29.25567" lon="-13.49538">
        <ele>75.4</ele>
        <time>2021-07-02 18:27:59</time>
      </trkpt>
      <trkpt lat="29.25569" lon="-13.49535">
        <ele>75.4</ele>
        <time>2021-07-02 18:28:00</time>
      </trkpt>
      <trkpt lat="29.25571" lon="-13.49532">
        <ele>75.4</ele>
        <time>2021-07-02 18:28:01</time>
      </trkpt>
      <trkpt lat="29.25573" lon="-13.49529">
        <ele>75.6</ele>
        <time>2021-07-02 18:28:02</time>
      </trkpt>
      <trkpt lat="29.25575" lon="-13.49526">
        <ele>75.6</ele>
        <time>2021-07-02 18:28:03</time>
      </trkpt>
      <trkpt lat="29.25577" lon="-13.49523">
        <ele>75.6</ele>
        <time>2021-07-02 18:28:04</time>
      </trkpt>
      <trkpt lat="29.25579" lon="-13.49521">
        <ele>76</ele>
        <time>2021-07-02 18:28:05</time>
      </trkpt>
      <trkpt lat="29.25581" lon="-13.49518">
        <ele>76</ele>
        <time>2021-07-02 18:28:06</time>
      </trkpt>
      <trkpt lat="29.25583" lon="-13.49516">
        <ele>76.2</ele>
        <time>2021-07-02 18:28:07</time>
      </trkpt>
      <trkpt lat="29.25585" lon="-13.49514">
        <ele>76.2</ele>
        <time>2021-07-02 18:28:08</time>
      </trkpt>
      <trkpt lat="29.25587" lon="-13.49511">
        <ele>76.4</ele>
        <time>2021-07-02 18:28:09</time>
      </trkpt>
      <trkpt lat="29.25589" lon="-13.49509">
        <ele>76.4</ele>
        <time>2021-07-02 18:28:10</time>
      </trkpt>
      <trkpt lat="29.25591" lon="-13.49506">
        <ele>76.4</ele>
        <time>2021-07-02 18:28:11</time>
      </trkpt>
      <trkpt lat="29.25593" lon="-13.49504">
        <ele>76.8</ele>
        <time>2021-07-02 18:28:12</time>
      </trkpt>
      <trkpt lat="29.25595" lon="-13.49501">
        <ele>76.8</ele>
        <time>2021-07-02 18:28:13</time>
      </trkpt>
      <trkpt lat="29.25597" lon="-13.49498">
        <ele>76.8</ele>
        <time>2021-07-02 18:28:14</time>
      </trkpt>
      <trkpt lat="29.25599" lon="-13.49496">
        <ele>77</ele>
        <time>2021-07-02 18:28:15</time>
      </trkpt>
      <trkpt lat="29.25601" lon="-13.49493">
        <ele>77</ele>
        <time>2021-07-02 18:28:16</time>
      </trkpt>
      <trkpt lat="29.25603" lon="-13.49491">
        <ele>77.2</ele>
        <time>2021-07-02 18:28:17</time>
      </trkpt>
      <trkpt lat="29.25605" lon="-13.49488">
        <ele>77.2</ele>
        <time>2021-07-02 18:28:18</time>
      </trkpt>
      <trkpt lat="29.25607" lon="-13.49485">
        <ele>77.2</ele>
        <time>2021-07-02 18:28:19</time>
      </trkpt>
      <trkpt lat="29.25609" lon="-13.49483">
        <ele>77.4</ele>
        <time>2021-07-02 18:28:20</time>
      </trkpt>
      <trkpt lat="29.25611" lon="-13.4948">
        <ele>77.4</ele>
        <time>2021-07-02 18:28:21</time>
      </trkpt>
      <trkpt lat="29.25614" lon="-13.49477">
        <ele>77.4</ele>
        <time>2021-07-02 18:28:22</time>
      </trkpt>
      <trkpt lat="29.25615" lon="-13.49475">
        <ele>77.8</ele>
        <time>2021-07-02 18:28:23</time>
      </trkpt>
      <trkpt lat="29.25617" lon="-13.49472">
        <ele>77.8</ele>
        <time>2021-07-02 18:28:24</time>
      </trkpt>
      <trkpt lat="29.25619" lon="-13.4947">
        <ele>78</ele>
        <time>2021-07-02 18:28:25</time>
      </trkpt>
      <trkpt lat="29.25622" lon="-13.49468">
        <ele>78</ele>
        <time>2021-07-02 18:28:26</time>
      </trkpt>
      <trkpt lat="29.25624" lon="-13.49465">
        <ele>78.2</ele>
        <time>2021-07-02 18:28:27</time>
      </trkpt>
      <trkpt lat="29.25626" lon="-13.49463">
        <ele>78.2</ele>
        <time>2021-07-02 18:28:28</time>
      </trkpt>
      <trkpt lat="29.25628" lon="-13.49461">
        <ele>78.4</ele>
        <time>2021-07-02 18:28:29</time>
      </trkpt>
      <trkpt lat="29.2563" lon="-13.49458">
        <ele>78.4</ele>
        <time>2021-07-02 18:28:30</time>
      </trkpt>
      <trkpt lat="29.25632" lon="-13.49456">
        <ele>78.6</ele>
        <time>2021-07-02 18:28:31</time>
      </trkpt>
      <trkpt lat="29.25634" lon="-13.49453">
        <ele>78.6</ele>
        <time>2021-07-02 18:28:32</time>
      </trkpt>
      <trkpt lat="29.25636" lon="-13.49451">
        <ele>78.6</ele>
        <time>2021-07-02 18:28:33</time>
      </trkpt>
      <trkpt lat="29.25638" lon="-13.49449">
        <ele>78.6</ele>
        <time>2021-07-02 18:28:34</time>
      </trkpt>
      <trkpt lat="29.2564" lon="-13.49446">
        <ele>78.8</ele>
        <time>2021-07-02 18:28:35</time>
      </trkpt>
      <trkpt lat="29.25642" lon="-13.49443">
        <ele>78.8</ele>
        <time>2021-07-02 18:28:36</time>
      </trkpt>
      <trkpt lat="29.25644" lon="-13.49441">
        <ele>78.8</ele>
        <time>2021-07-02 18:28:37</time>
      </trkpt>
      <trkpt lat="29.25646" lon="-13.49438">
        <ele>79</ele>
        <time>2021-07-02 18:28:38</time>
      </trkpt>
      <trkpt lat="29.25649" lon="-13.49435">
        <ele>79</ele>
        <time>2021-07-02 18:28:39</time>
      </trkpt>
      <trkpt lat="29.25651" lon="-13.49432">
        <ele>79</ele>
        <time>2021-07-02 18:28:40</time>
      </trkpt>
      <trkpt lat="29.25653" lon="-13.49429">
        <ele>79</ele>
        <time>2021-07-02 18:28:41</time>
      </trkpt>
      <trkpt lat="29.25655" lon="-13.49427">
        <ele>79</ele>
        <time>2021-07-02 18:28:42</time>
      </trkpt>
      <trkpt lat="29.25657" lon="-13.49424">
        <ele>79</ele>
        <time>2021-07-02 18:28:43</time>
      </trkpt>
      <trkpt lat="29.2566" lon="-13.49421">
        <ele>79.2</ele>
        <time>2021-07-02 18:28:44</time>
      </trkpt>
      <trkpt lat="29.25662" lon="-13.49419">
        <ele>79.2</ele>
        <time>2021-07-02 18:28:45</time>
      </trkpt>
      <trkpt lat="29.25664" lon="-13.49416">
        <ele>79.2</ele>
        <time>2021-07-02 18:28:46</time>
      </trkpt>
      <trkpt lat="29.25666" lon="-13.49412">
        <ele>79.2</ele>
        <time>2021-07-02 18:28:47</time>
      </trkpt>
      <trkpt lat="29.25669" lon="-13.49409">
        <ele>79</ele>
        <time>2021-07-02 18:28:48</time>
      </trkpt>
      <trkpt lat="29.25671" lon="-13.49406">
        <ele>79</ele>
        <time>2021-07-02 18:28:49</time>
      </trkpt>
      <trkpt lat="29.25673" lon="-13.49402">
        <ele>79</ele>
        <time>2021-07-02 18:28:50</time>
      </trkpt>
      <trkpt lat="29.25675" lon="-13.49399">
        <ele>79</ele>
        <time>2021-07-02 18:28:51</time>
      </trkpt>
      <trkpt lat="29.25677" lon="-13.49396">
        <ele>79</ele>
        <time>2021-07-02 18:28:52</time>
      </trkpt>
      <trkpt lat="29.25679" lon="-13.49393">
        <ele>78.8</ele>
        <time>2021-07-02 18:28:53</time>
      </trkpt>
      <trkpt lat="29.25681" lon="-13.4939">
        <ele>78.8</ele>
        <time>2021-07-02 18:28:54</time>
      </trkpt>
      <trkpt lat="29.25682" lon="-13.49387">
        <ele>78.8</ele>
        <time>2021-07-02 18:28:55</time>
      </trkpt>
      <trkpt lat="29.25684" lon="-13.49384">
        <ele>78.8</ele>
        <time>2021-07-02 18:28:56</time>
      </trkpt>
      <trkpt lat="29.25687" lon="-13.49381">
        <ele>78.8</ele>
        <time>2021-07-02 18:28:57</time>
      </trkpt>
      <trkpt lat="29.25689" lon="-13.49378">
        <ele>78.6</ele>
        <time>2021-07-02 18:28:58</time>
      </trkpt>
      <trkpt lat="29.25691" lon="-13.49374">
        <ele>78.6</ele>
        <time>2021-07-02 18:28:59</time>
      </trkpt>
      <trkpt lat="29.25693" lon="-13.4937">
        <ele>78.2</ele>
        <time>2021-07-02 18:29:00</time>
      </trkpt>
      <trkpt lat="29.25696" lon="-13.49367">
        <ele>78.2</ele>
        <time>2021-07-02 18:29:01</time>
      </trkpt>
      <trkpt lat="29.25699" lon="-13.49363">
        <ele>78</ele>
        <time>2021-07-02 18:29:02</time>
      </trkpt>
      <trkpt lat="29.25702" lon="-13.4936">
        <ele>78</ele>
        <time>2021-07-02 18:29:03</time>
      </trkpt>
      <trkpt lat="29.25704" lon="-13.49356">
        <ele>77.4</ele>
        <time>2021-07-02 18:29:04</time>
      </trkpt>
      <trkpt lat="29.25707" lon="-13.49351">
        <ele>77.4</ele>
        <time>2021-07-02 18:29:05</time>
      </trkpt>
      <trkpt lat="29.25709" lon="-13.49347">
        <ele>77.4</ele>
        <time>2021-07-02 18:29:06</time>
      </trkpt>
      <trkpt lat="29.2571" lon="-13.49342">
        <ele>77</ele>
        <time>2021-07-02 18:29:07</time>
      </trkpt>
      <trkpt lat="29.25711" lon="-13.49337">
        <ele>76.8</ele>
        <time>2021-07-02 18:29:08</time>
      </trkpt>
      <trkpt lat="29.2571" lon="-13.49333">
        <ele>76.8</ele>
        <time>2021-07-02 18:29:09</time>
      </trkpt>
      <trkpt lat="29.2571" lon="-13.49328">
        <ele>76.8</ele>
        <time>2021-07-02 18:29:10</time>
      </trkpt>
      <trkpt lat="29.25709" lon="-13.49324">
        <ele>76.6</ele>
        <time>2021-07-02 18:29:11</time>
      </trkpt>
      <trkpt lat="29.25708" lon="-13.4932">
        <ele>76.6</ele>
        <time>2021-07-02 18:29:12</time>
      </trkpt>
      <trkpt lat="29.25709" lon="-13.49317">
        <ele>76.6</ele>
        <time>2021-07-02 18:29:13</time>
      </trkpt>
      <trkpt lat="29.25709" lon="-13.49314">
        <ele>76.6</ele>
        <time>2021-07-02 18:29:14</time>
      </trkpt>
      <trkpt lat="29.25711" lon="-13.4931">
        <ele>76.6</ele>
        <time>2021-07-02 18:29:15</time>
      </trkpt>
      <trkpt lat="29.25713" lon="-13.49307">
        <ele>76.6</ele>
        <time>2021-07-02 18:29:16</time>
      </trkpt>
      <trkpt lat="29.25714" lon="-13.49303">
        <ele>76.6</ele>
        <time>2021-07-02 18:29:17</time>
      </trkpt>
      <trkpt lat="29.25715" lon="-13.493">
        <ele>76.6</ele>
        <time>2021-07-02 18:29:18</time>
      </trkpt>
      <trkpt lat="29.25716" lon="-13.49297">
        <ele>76.6</ele>
        <time>2021-07-02 18:29:19</time>
      </trkpt>
      <trkpt lat="29.25718" lon="-13.49294">
        <ele>76.6</ele>
        <time>2021-07-02 18:29:20</time>
      </trkpt>
      <trkpt lat="29.2572" lon="-13.49291">
        <ele>76.6</ele>
        <time>2021-07-02 18:29:21</time>
      </trkpt>
      <trkpt lat="29.25721" lon="-13.49289">
        <ele>76.2</ele>
        <time>2021-07-02 18:29:22</time>
      </trkpt>
      <trkpt lat="29.25723" lon="-13.49286">
        <ele>76.2</ele>
        <time>2021-07-02 18:29:23</time>
      </trkpt>
      <trkpt lat="29.25726" lon="-13.49283">
        <ele>76.2</ele>
        <time>2021-07-02 18:29:24</time>
      </trkpt>
      <trkpt lat="29.25728" lon="-13.49279">
        <ele>76</ele>
        <time>2021-07-02 18:29:25</time>
      </trkpt>
      <trkpt lat="29.25731" lon="-13.49276">
        <ele>76</ele>
        <time>2021-07-02 18:29:26</time>
      </trkpt>
      <trkpt lat="29.25733" lon="-13.49272">
        <ele>76</ele>
        <time>2021-07-02 18:29:27</time>
      </trkpt>
      <trkpt lat="29.25735" lon="-13.49268">
        <ele>75.8</ele>
        <time>2021-07-02 18:29:28</time>
      </trkpt>
      <trkpt lat="29.25737" lon="-13.49265">
        <ele>75.8</ele>
        <time>2021-07-02 18:29:29</time>
      </trkpt>
      <trkpt lat="29.2574" lon="-13.49261">
        <ele>75.8</ele>
        <time>2021-07-02 18:29:30</time>
      </trkpt>
      <trkpt lat="29.25742" lon="-13.49257">
        <ele>75.4</ele>
        <time>2021-07-02 18:29:31</time>
      </trkpt>
      <trkpt lat="29.25743" lon="-13.49254">
        <ele>75.4</ele>
        <time>2021-07-02 18:29:32</time>
      </trkpt>
      <trkpt lat="29.25745" lon="-13.49251">
        <ele>75.4</ele>
        <time>2021-07-02 18:29:33</time>
      </trkpt>
      <trkpt lat="29.25746" lon="-13.49248">
        <ele>75.4</ele>
        <time>2021-07-02 18:29:34</time>
      </trkpt>
      <trkpt lat="29.25747" lon="-13.49245">
        <ele>75.4</ele>
        <time>2021-07-02 18:29:35</time>
      </trkpt>
      <trkpt lat="29.25749" lon="-13.49242">
        <ele>75.4</ele>
        <time>2021-07-02 18:29:36</time>
      </trkpt>
      <trkpt lat="29.25751" lon="-13.49239">
        <ele>75.4</ele>
        <time>2021-07-02 18:29:37</time>
      </trkpt>
      <trkpt lat="29.25754" lon="-13.49236">
        <ele>75.2</ele>
        <time>2021-07-02 18:29:38</time>
      </trkpt>
      <trkpt lat="29.25757" lon="-13.49232">
        <ele>75.2</ele>
        <time>2021-07-02 18:29:39</time>
      </trkpt>
      <trkpt lat="29.25759" lon="-13.49229">
        <ele>75.2</ele>
        <time>2021-07-02 18:29:40</time>
      </trkpt>
      <trkpt lat="29.25761" lon="-13.49226">
        <ele>75</ele>
        <time>2021-07-02 18:29:41</time>
      </trkpt>
      <trkpt lat="29.25764" lon="-13.49222">
        <ele>75</ele>
        <time>2021-07-02 18:29:42</time>
      </trkpt>
      <trkpt lat="29.25765" lon="-13.49219">
        <ele>75</ele>
        <time>2021-07-02 18:29:43</time>
      </trkpt>
      <trkpt lat="29.25767" lon="-13.49216">
        <ele>75</ele>
        <time>2021-07-02 18:29:44</time>
      </trkpt>
      <trkpt lat="29.25769" lon="-13.49213">
        <ele>75</ele>
        <time>2021-07-02 18:29:45</time>
      </trkpt>
      <trkpt lat="29.25771" lon="-13.49211">
        <ele>75</ele>
        <time>2021-07-02 18:29:46</time>
      </trkpt>
      <trkpt lat="29.25773" lon="-13.49209">
        <ele>75</ele>
        <time>2021-07-02 18:29:47</time>
      </trkpt>
      <trkpt lat="29.25775" lon="-13.49206">
        <ele>75</ele>
        <time>2021-07-02 18:29:48</time>
      </trkpt>
      <trkpt lat="29.25778" lon="-13.49204">
        <ele>75</ele>
        <time>2021-07-02 18:29:49</time>
      </trkpt>
      <trkpt lat="29.2578" lon="-13.49202">
        <ele>75</ele>
        <time>2021-07-02 18:29:50</time>
      </trkpt>
      <trkpt lat="29.25782" lon="-13.49199">
        <ele>75.2</ele>
        <time>2021-07-02 18:29:51</time>
      </trkpt>
      <trkpt lat="29.25785" lon="-13.49197">
        <ele>75.2</ele>
        <time>2021-07-02 18:29:52</time>
      </trkpt>
      <trkpt lat="29.25787" lon="-13.49195">
        <ele>75.2</ele>
        <time>2021-07-02 18:29:53</time>
      </trkpt>
      <trkpt lat="29.2579" lon="-13.49192">
        <ele>75.2</ele>
        <time>2021-07-02 18:29:54</time>
      </trkpt>
      <trkpt lat="29.25792" lon="-13.49189">
        <ele>75.2</ele>
        <time>2021-07-02 18:29:55</time>
      </trkpt>
      <trkpt lat="29.25795" lon="-13.49186">
        <ele>75.2</ele>
        <time>2021-07-02 18:29:56</time>
      </trkpt>
      <trkpt lat="29.25797" lon="-13.49182">
        <ele>75.2</ele>
        <time>2021-07-02 18:29:57</time>
      </trkpt>
      <trkpt lat="29.25799" lon="-13.49177">
        <ele>75</ele>
        <time>2021-07-02 18:29:58</time>
      </trkpt>
      <trkpt lat="29.25801" lon="-13.49172">
        <ele>74.8</ele>
        <time>2021-07-02 18:29:59</time>
      </trkpt>
      <trkpt lat="29.25802" lon="-13.49166">
        <ele>74.4</ele>
        <time>2021-07-02 18:30:00</time>
      </trkpt>
      <trkpt lat="29.25803" lon="-13.4916">
        <ele>74.4</ele>
        <time>2021-07-02 18:30:01</time>
      </trkpt>
      <trkpt lat="29.25803" lon="-13.49154">
        <ele>74</ele>
        <time>2021-07-02 18:30:02</time>
      </trkpt>
      <trkpt lat="29.25803" lon="-13.49149">
        <ele>74</ele>
        <time>2021-07-02 18:30:03</time>
      </trkpt>
      <trkpt lat="29.25804" lon="-13.49145">
        <ele>74</ele>
        <time>2021-07-02 18:30:04</time>
      </trkpt>
      <trkpt lat="29.25805" lon="-13.49141">
        <ele>73.8</ele>
        <time>2021-07-02 18:30:05</time>
      </trkpt>
      <trkpt lat="29.25807" lon="-13.49138">
        <ele>73.8</ele>
        <time>2021-07-02 18:30:06</time>
      </trkpt>
      <trkpt lat="29.25808" lon="-13.49134">
        <ele>73.6</ele>
        <time>2021-07-02 18:30:07</time>
      </trkpt>
      <trkpt lat="29.25809" lon="-13.4913">
        <ele>73.6</ele>
        <time>2021-07-02 18:30:08</time>
      </trkpt>
      <trkpt lat="29.25811" lon="-13.49128">
        <ele>73.6</ele>
        <time>2021-07-02 18:30:09</time>
      </trkpt>
      <trkpt lat="29.25813" lon="-13.49124">
        <ele>73.6</ele>
        <time>2021-07-02 18:30:10</time>
      </trkpt>
      <trkpt lat="29.25815" lon="-13.49121">
        <ele>73.4</ele>
        <time>2021-07-02 18:30:11</time>
      </trkpt>
      <trkpt lat="29.25817" lon="-13.49118">
        <ele>73.4</ele>
        <time>2021-07-02 18:30:12</time>
      </trkpt>
      <trkpt lat="29.25819" lon="-13.49115">
        <ele>73.4</ele>
        <time>2021-07-02 18:30:13</time>
      </trkpt>
      <trkpt lat="29.25821" lon="-13.49112">
        <ele>73.8</ele>
        <time>2021-07-02 18:30:14</time>
      </trkpt>
      <trkpt lat="29.25823" lon="-13.49109">
        <ele>73.8</ele>
        <time>2021-07-02 18:30:15</time>
      </trkpt>
      <trkpt lat="29.25825" lon="-13.49107">
        <ele>73.8</ele>
        <time>2021-07-02 18:30:16</time>
      </trkpt>
      <trkpt lat="29.25827" lon="-13.49105">
        <ele>74</ele>
        <time>2021-07-02 18:30:17</time>
      </trkpt>
      <trkpt lat="29.25828" lon="-13.49103">
        <ele>74</ele>
        <time>2021-07-02 18:30:18</time>
      </trkpt>
      <trkpt lat="29.2583" lon="-13.49101">
        <ele>74.4</ele>
        <time>2021-07-02 18:30:19</time>
      </trkpt>
      <trkpt lat="29.25831" lon="-13.49099">
        <ele>74.4</ele>
        <time>2021-07-02 18:30:20</time>
      </trkpt>
      <trkpt lat="29.25832" lon="-13.49098">
        <ele>75</ele>
        <time>2021-07-02 18:30:21</time>
      </trkpt>
      <trkpt lat="29.25834" lon="-13.49096">
        <ele>75</ele>
        <time>2021-07-02 18:30:22</time>
      </trkpt>
      <trkpt lat="29.25836" lon="-13.49095">
        <ele>75.2</ele>
        <time>2021-07-02 18:30:23</time>
      </trkpt>
      <trkpt lat="29.25838" lon="-13.49093">
        <ele>75.2</ele>
        <time>2021-07-02 18:30:24</time>
      </trkpt>
      <trkpt lat="29.2584" lon="-13.49091">
        <ele>75.2</ele>
        <time>2021-07-02 18:30:25</time>
      </trkpt>
      <trkpt lat="29.25843" lon="-13.49087">
        <ele>75.2</ele>
        <time>2021-07-02 18:30:26</time>
      </trkpt>
      <trkpt lat="29.25847" lon="-13.49084">
        <ele>75.2</ele>
        <time>2021-07-02 18:30:27</time>
      </trkpt>
      <trkpt lat="29.2585" lon="-13.4908">
        <ele>75</ele>
        <time>2021-07-02 18:30:28</time>
      </trkpt>
      <trkpt lat="29.25854" lon="-13.49076">
        <ele>74.8</ele>
        <time>2021-07-02 18:30:29</time>
      </trkpt>
      <trkpt lat="29.25858" lon="-13.49072">
        <ele>74.4</ele>
        <time>2021-07-02 18:30:30</time>
      </trkpt>
      <trkpt lat="29.25861" lon="-13.49069">
        <ele>74.2</ele>
        <time>2021-07-02 18:30:31</time>
      </trkpt>
      <trkpt lat="29.25864" lon="-13.49066">
        <ele>73.8</ele>
        <time>2021-07-02 18:30:32</time>
      </trkpt>
      <trkpt lat="29.25867" lon="-13.49064">
        <ele>73.4</ele>
        <time>2021-07-02 18:30:33</time>
      </trkpt>
      <trkpt lat="29.2587" lon="-13.49061">
        <ele>73.2</ele>
        <time>2021-07-02 18:30:34</time>
      </trkpt>
      <trkpt lat="29.25872" lon="-13.49059">
        <ele>73</ele>
        <time>2021-07-02 18:30:35</time>
      </trkpt>
      <trkpt lat="29.25875" lon="-13.49057">
        <ele>73</ele>
        <time>2021-07-02 18:30:36</time>
      </trkpt>
      <trkpt lat="29.25878" lon="-13.49054">
        <ele>72.8</ele>
        <time>2021-07-02 18:30:37</time>
      </trkpt>
      <trkpt lat="29.25881" lon="-13.49051">
        <ele>72.8</ele>
        <time>2021-07-02 18:30:38</time>
      </trkpt>
      <trkpt lat="29.25884" lon="-13.49049">
        <ele>72.6</ele>
        <time>2021-07-02 18:30:39</time>
      </trkpt>
      <trkpt lat="29.25888" lon="-13.49046">
        <ele>72.2</ele>
        <time>2021-07-02 18:30:40</time>
      </trkpt>
      <trkpt lat="29.25891" lon="-13.49042">
        <ele>72.2</ele>
        <time>2021-07-02 18:30:41</time>
      </trkpt>
      <trkpt lat="29.25895" lon="-13.49039">
        <ele>71.6</ele>
        <time>2021-07-02 18:30:42</time>
      </trkpt>
      <trkpt lat="29.25898" lon="-13.49035">
        <ele>71.6</ele>
        <time>2021-07-02 18:30:43</time>
      </trkpt>
      <trkpt lat="29.25903" lon="-13.49032">
        <ele>71.2</ele>
        <time>2021-07-02 18:30:44</time>
      </trkpt>
      <trkpt lat="29.25907" lon="-13.49028">
        <ele>71</ele>
        <time>2021-07-02 18:30:45</time>
      </trkpt>
      <trkpt lat="29.2591" lon="-13.49025">
        <ele>70.6</ele>
        <time>2021-07-02 18:30:46</time>
      </trkpt>
      <trkpt lat="29.25914" lon="-13.49021">
        <ele>70</ele>
        <time>2021-07-02 18:30:47</time>
      </trkpt>
      <trkpt lat="29.25918" lon="-13.49016">
        <ele>69.4</ele>
        <time>2021-07-02 18:30:48</time>
      </trkpt>
      <trkpt lat="29.25921" lon="-13.49012">
        <ele>69</ele>
        <time>2021-07-02 18:30:49</time>
      </trkpt>
      <trkpt lat="29.25925" lon="-13.49006">
        <ele>68.6</ele>
        <time>2021-07-02 18:30:50</time>
      </trkpt>
      <trkpt lat="29.25928" lon="-13.49">
        <ele>68.2</ele>
        <time>2021-07-02 18:30:51</time>
      </trkpt>
      <trkpt lat="29.25932" lon="-13.48994">
        <ele>67.8</ele>
        <time>2021-07-02 18:30:52</time>
      </trkpt>
      <trkpt lat="29.25935" lon="-13.48988">
        <ele>67.4</ele>
        <time>2021-07-02 18:30:53</time>
      </trkpt>
      <trkpt lat="29.25938" lon="-13.48982">
        <ele>67</ele>
        <time>2021-07-02 18:30:54</time>
      </trkpt>
      <trkpt lat="29.25941" lon="-13.48976">
        <ele>66.4</ele>
        <time>2021-07-02 18:30:55</time>
      </trkpt>
      <trkpt lat="29.25944" lon="-13.4897">
        <ele>66</ele>
        <time>2021-07-02 18:30:56</time>
      </trkpt>
      <trkpt lat="29.25947" lon="-13.48965">
        <ele>65.6</ele>
        <time>2021-07-02 18:30:57</time>
      </trkpt>
      <trkpt lat="29.25949" lon="-13.48959">
        <ele>65.4</ele>
        <time>2021-07-02 18:30:58</time>
      </trkpt>
      <trkpt lat="29.25952" lon="-13.48953">
        <ele>65</ele>
        <time>2021-07-02 18:30:59</time>
      </trkpt>
      <trkpt lat="29.25954" lon="-13.48947">
        <ele>65</ele>
        <time>2021-07-02 18:31:00</time>
      </trkpt>
      <trkpt lat="29.25957" lon="-13.48942">
        <ele>64.4</ele>
        <time>2021-07-02 18:31:01</time>
      </trkpt>
      <trkpt lat="29.25959" lon="-13.48937">
        <ele>64.2</ele>
        <time>2021-07-02 18:31:02</time>
      </trkpt>
      <trkpt lat="29.2596" lon="-13.48932">
        <ele>63.8</ele>
        <time>2021-07-02 18:31:03</time>
      </trkpt>
      <trkpt lat="29.25962" lon="-13.48927">
        <ele>63.6</ele>
        <time>2021-07-02 18:31:04</time>
      </trkpt>
      <trkpt lat="29.25965" lon="-13.48923">
        <ele>63.6</ele>
        <time>2021-07-02 18:31:05</time>
      </trkpt>
      <trkpt lat="29.25969" lon="-13.48919">
        <ele>63.2</ele>
        <time>2021-07-02 18:31:06</time>
      </trkpt>
      <trkpt lat="29.25972" lon="-13.48915">
        <ele>63</ele>
        <time>2021-07-02 18:31:07</time>
      </trkpt>
      <trkpt lat="29.25976" lon="-13.48912">
        <ele>62.8</ele>
        <time>2021-07-02 18:31:08</time>
      </trkpt>
      <trkpt lat="29.2598" lon="-13.48908">
        <ele>62.4</ele>
        <time>2021-07-02 18:31:09</time>
      </trkpt>
      <trkpt lat="29.25984" lon="-13.48905">
        <ele>62</ele>
        <time>2021-07-02 18:31:10</time>
      </trkpt>
      <trkpt lat="29.25989" lon="-13.48902">
        <ele>61.6</ele>
        <time>2021-07-02 18:31:11</time>
      </trkpt>
      <trkpt lat="29.25994" lon="-13.48899">
        <ele>61.6</ele>
        <time>2021-07-02 18:31:12</time>
      </trkpt>
      <trkpt lat="29.25998" lon="-13.48896">
        <ele>61.2</ele>
        <time>2021-07-02 18:31:13</time>
      </trkpt>
      <trkpt lat="29.26002" lon="-13.48893">
        <ele>60.6</ele>
        <time>2021-07-02 18:31:14</time>
      </trkpt>
      <trkpt lat="29.26006" lon="-13.48891">
        <ele>60.6</ele>
        <time>2021-07-02 18:31:15</time>
      </trkpt>
      <trkpt lat="29.2601" lon="-13.48888">
        <ele>60.4</ele>
        <time>2021-07-02 18:31:16</time>
      </trkpt>
      <trkpt lat="29.26014" lon="-13.48886">
        <ele>60</ele>
        <time>2021-07-02 18:31:17</time>
      </trkpt>
      <trkpt lat="29.26018" lon="-13.48883">
        <ele>60</ele>
        <time>2021-07-02 18:31:18</time>
      </trkpt>
      <trkpt lat="29.26021" lon="-13.48881">
        <ele>59.8</ele>
        <time>2021-07-02 18:31:19</time>
      </trkpt>
      <trkpt lat="29.26025" lon="-13.48879">
        <ele>59.4</ele>
        <time>2021-07-02 18:31:20</time>
      </trkpt>
      <trkpt lat="29.26028" lon="-13.48878">
        <ele>59.4</ele>
        <time>2021-07-02 18:31:21</time>
      </trkpt>
      <trkpt lat="29.26031" lon="-13.48875">
        <ele>59.2</ele>
        <time>2021-07-02 18:31:22</time>
      </trkpt>
      <trkpt lat="29.26034" lon="-13.48874">
        <ele>59.2</ele>
        <time>2021-07-02 18:31:23</time>
      </trkpt>
      <trkpt lat="29.26037" lon="-13.48872">
        <ele>59.2</ele>
        <time>2021-07-02 18:31:24</time>
      </trkpt>
      <trkpt lat="29.2604" lon="-13.4887">
        <ele>58.8</ele>
        <time>2021-07-02 18:31:25</time>
      </trkpt>
      <trkpt lat="29.26044" lon="-13.48868">
        <ele>58.8</ele>
        <time>2021-07-02 18:31:26</time>
      </trkpt>
      <trkpt lat="29.26047" lon="-13.48866">
        <ele>58.8</ele>
        <time>2021-07-02 18:31:27</time>
      </trkpt>
      <trkpt lat="29.26051" lon="-13.48864">
        <ele>58.6</ele>
        <time>2021-07-02 18:31:28</time>
      </trkpt>
      <trkpt lat="29.26054" lon="-13.48862">
        <ele>58.6</ele>
        <time>2021-07-02 18:31:29</time>
      </trkpt>
      <trkpt lat="29.26058" lon="-13.48861">
        <ele>58.6</ele>
        <time>2021-07-02 18:31:30</time>
      </trkpt>
      <trkpt lat="29.26061" lon="-13.48859">
        <ele>58.4</ele>
        <time>2021-07-02 18:31:31</time>
      </trkpt>
      <trkpt lat="29.26065" lon="-13.48857">
        <ele>58.4</ele>
        <time>2021-07-02 18:31:32</time>
      </trkpt>
      <trkpt lat="29.26069" lon="-13.48856">
        <ele>58.4</ele>
        <time>2021-07-02 18:31:33</time>
      </trkpt>
      <trkpt lat="29.26072" lon="-13.48854">
        <ele>58.4</ele>
        <time>2021-07-02 18:31:34</time>
      </trkpt>
      <trkpt lat="29.26076" lon="-13.48852">
        <ele>58.4</ele>
        <time>2021-07-02 18:31:35</time>
      </trkpt>
      <trkpt lat="29.2608" lon="-13.48851">
        <ele>58</ele>
        <time>2021-07-02 18:31:36</time>
      </trkpt>
      <trkpt lat="29.26084" lon="-13.4885">
        <ele>58</ele>
        <time>2021-07-02 18:31:37</time>
      </trkpt>
      <trkpt lat="29.26087" lon="-13.48849">
        <ele>57.8</ele>
        <time>2021-07-02 18:31:38</time>
      </trkpt>
      <trkpt lat="29.26091" lon="-13.48848">
        <ele>57.8</ele>
        <time>2021-07-02 18:31:39</time>
      </trkpt>
      <trkpt lat="29.26094" lon="-13.48847">
        <ele>57.8</ele>
        <time>2021-07-02 18:31:40</time>
      </trkpt>
      <trkpt lat="29.26097" lon="-13.48845">
        <ele>57.6</ele>
        <time>2021-07-02 18:31:41</time>
      </trkpt>
      <trkpt lat="29.26101" lon="-13.48845">
        <ele>57.6</ele>
        <time>2021-07-02 18:31:42</time>
      </trkpt>
      <trkpt lat="29.26105" lon="-13.48844">
        <ele>57.6</ele>
        <time>2021-07-02 18:31:43</time>
      </trkpt>
      <trkpt lat="29.26109" lon="-13.48843">
        <ele>57.6</ele>
        <time>2021-07-02 18:31:44</time>
      </trkpt>
      <trkpt lat="29.26113" lon="-13.48842">
        <ele>57.6</ele>
        <time>2021-07-02 18:31:45</time>
      </trkpt>
      <trkpt lat="29.26117" lon="-13.48842">
        <ele>57.6</ele>
        <time>2021-07-02 18:31:46</time>
      </trkpt>
      <trkpt lat="29.26121" lon="-13.48841">
        <ele>57.4</ele>
        <time>2021-07-02 18:31:47</time>
      </trkpt>
      <trkpt lat="29.26125" lon="-13.48841">
        <ele>57.4</ele>
        <time>2021-07-02 18:31:48</time>
      </trkpt>
      <trkpt lat="29.26128" lon="-13.48841">
        <ele>57.4</ele>
        <time>2021-07-02 18:31:49</time>
      </trkpt>
      <trkpt lat="29.26132" lon="-13.4884">
        <ele>57.4</ele>
        <time>2021-07-02 18:31:50</time>
      </trkpt>
      <trkpt lat="29.26136" lon="-13.4884">
        <ele>57.4</ele>
        <time>2021-07-02 18:31:51</time>
      </trkpt>
      <trkpt lat="29.2614" lon="-13.48839">
        <ele>57.4</ele>
        <time>2021-07-02 18:31:52</time>
      </trkpt>
      <trkpt lat="29.26143" lon="-13.48839">
        <ele>57.4</ele>
        <time>2021-07-02 18:31:53</time>
      </trkpt>
      <trkpt lat="29.26147" lon="-13.48839">
        <ele>57.4</ele>
        <time>2021-07-02 18:31:54</time>
      </trkpt>
      <trkpt lat="29.2615" lon="-13.48838">
        <ele>57.4</ele>
        <time>2021-07-02 18:31:55</time>
      </trkpt>
      <trkpt lat="29.26154" lon="-13.48837">
        <ele>57.4</ele>
        <time>2021-07-02 18:31:56</time>
      </trkpt>
      <trkpt lat="29.26157" lon="-13.48835">
        <ele>57.4</ele>
        <time>2021-07-02 18:31:57</time>
      </trkpt>
      <trkpt lat="29.2616" lon="-13.48833">
        <ele>57.4</ele>
        <time>2021-07-02 18:31:58</time>
      </trkpt>
      <trkpt lat="29.26163" lon="-13.48832">
        <ele>57.4</ele>
        <time>2021-07-02 18:31:59</time>
      </trkpt>
      <trkpt lat="29.26165" lon="-13.4883">
        <ele>57.4</ele>
        <time>2021-07-02 18:32:00</time>
      </trkpt>
      <trkpt lat="29.26167" lon="-13.48829">
        <ele>57.6</ele>
        <time>2021-07-02 18:32:01</time>
      </trkpt>
      <trkpt lat="29.26169" lon="-13.48827">
        <ele>57.6</ele>
        <time>2021-07-02 18:32:02</time>
      </trkpt>
      <trkpt lat="29.2617" lon="-13.48826">
        <ele>57.6</ele>
        <time>2021-07-02 18:32:03</time>
      </trkpt>
      <trkpt lat="29.26172" lon="-13.48824">
        <ele>57.8</ele>
        <time>2021-07-02 18:32:04</time>
      </trkpt>
      <trkpt lat="29.26175" lon="-13.48823">
        <ele>57.8</ele>
        <time>2021-07-02 18:32:05</time>
      </trkpt>
      <trkpt lat="29.26177" lon="-13.48822">
        <ele>58</ele>
        <time>2021-07-02 18:32:06</time>
      </trkpt>
      <trkpt lat="29.2618" lon="-13.48821">
        <ele>58</ele>
        <time>2021-07-02 18:32:07</time>
      </trkpt>
      <trkpt lat="29.26183" lon="-13.4882">
        <ele>58.2</ele>
        <time>2021-07-02 18:32:08</time>
      </trkpt>
      <trkpt lat="29.26185" lon="-13.48818">
        <ele>58.2</ele>
        <time>2021-07-02 18:32:09</time>
      </trkpt>
      <trkpt lat="29.26187" lon="-13.48817">
        <ele>58.6</ele>
        <time>2021-07-02 18:32:10</time>
      </trkpt>
      <trkpt lat="29.2619" lon="-13.48815">
        <ele>58.6</ele>
        <time>2021-07-02 18:32:11</time>
      </trkpt>
      <trkpt lat="29.26192" lon="-13.48814">
        <ele>58.6</ele>
        <time>2021-07-02 18:32:12</time>
      </trkpt>
      <trkpt lat="29.26195" lon="-13.48811">
        <ele>58.6</ele>
        <time>2021-07-02 18:32:13</time>
      </trkpt>
      <trkpt lat="29.26199" lon="-13.48809">
        <ele>58.6</ele>
        <time>2021-07-02 18:32:14</time>
      </trkpt>
      <trkpt lat="29.26202" lon="-13.48807">
        <ele>58.6</ele>
        <time>2021-07-02 18:32:15</time>
      </trkpt>
      <trkpt lat="29.26205" lon="-13.48804">
        <ele>58.2</ele>
        <time>2021-07-02 18:32:16</time>
      </trkpt>
      <trkpt lat="29.26209" lon="-13.48799">
        <ele>57.8</ele>
        <time>2021-07-02 18:32:17</time>
      </trkpt>
      <trkpt lat="29.26214" lon="-13.48795">
        <ele>57.6</ele>
        <time>2021-07-02 18:32:18</time>
      </trkpt>
      <trkpt lat="29.26218" lon="-13.48791">
        <ele>57.2</ele>
        <time>2021-07-02 18:32:19</time>
      </trkpt>
      <trkpt lat="29.26222" lon="-13.48787">
        <ele>56.8</ele>
        <time>2021-07-02 18:32:20</time>
      </trkpt>
      <trkpt lat="29.26225" lon="-13.48783">
        <ele>56.4</ele>
        <time>2021-07-02 18:32:21</time>
      </trkpt>
      <trkpt lat="29.26229" lon="-13.48779">
        <ele>56</ele>
        <time>2021-07-02 18:32:22</time>
      </trkpt>
      <trkpt lat="29.26232" lon="-13.48776">
        <ele>55.8</ele>
        <time>2021-07-02 18:32:23</time>
      </trkpt>
      <trkpt lat="29.26235" lon="-13.48772">
        <ele>55.8</ele>
        <time>2021-07-02 18:32:24</time>
      </trkpt>
      <trkpt lat="29.26238" lon="-13.4877">
        <ele>55.4</ele>
        <time>2021-07-02 18:32:25</time>
      </trkpt>
      <trkpt lat="29.26241" lon="-13.48767">
        <ele>55.4</ele>
        <time>2021-07-02 18:32:26</time>
      </trkpt>
      <trkpt lat="29.26243" lon="-13.48764">
        <ele>55.4</ele>
        <time>2021-07-02 18:32:27</time>
      </trkpt>
      <trkpt lat="29.26245" lon="-13.48762">
        <ele>55.4</ele>
        <time>2021-07-02 18:32:28</time>
      </trkpt>
      <trkpt lat="29.26248" lon="-13.48759">
        <ele>55.2</ele>
        <time>2021-07-02 18:32:29</time>
      </trkpt>
      <trkpt lat="29.2625" lon="-13.48756">
        <ele>55.2</ele>
        <time>2021-07-02 18:32:30</time>
      </trkpt>
      <trkpt lat="29.26252" lon="-13.48753">
        <ele>55.2</ele>
        <time>2021-07-02 18:32:31</time>
      </trkpt>
      <trkpt lat="29.26255" lon="-13.48751">
        <ele>55.2</ele>
        <time>2021-07-02 18:32:32</time>
      </trkpt>
      <trkpt lat="29.26257" lon="-13.48748">
        <ele>54.8</ele>
        <time>2021-07-02 18:32:33</time>
      </trkpt>
      <trkpt lat="29.2626" lon="-13.48745">
        <ele>54.8</ele>
        <time>2021-07-02 18:32:34</time>
      </trkpt>
      <trkpt lat="29.26262" lon="-13.48742">
        <ele>54.8</ele>
        <time>2021-07-02 18:32:35</time>
      </trkpt>
      <trkpt lat="29.26265" lon="-13.4874">
        <ele>54.8</ele>
        <time>2021-07-02 18:32:36</time>
      </trkpt>
      <trkpt lat="29.26266" lon="-13.48737">
        <ele>54.6</ele>
        <time>2021-07-02 18:32:37</time>
      </trkpt>
      <trkpt lat="29.26267" lon="-13.48734">
        <ele>54.6</ele>
        <time>2021-07-02 18:32:38</time>
      </trkpt>
      <trkpt lat="29.26269" lon="-13.48731">
        <ele>54.6</ele>
        <time>2021-07-02 18:32:39</time>
      </trkpt>
      <trkpt lat="29.26271" lon="-13.48728">
        <ele>54.6</ele>
        <time>2021-07-02 18:32:40</time>
      </trkpt>
      <trkpt lat="29.26274" lon="-13.48726">
        <ele>54.6</ele>
        <time>2021-07-02 18:32:41</time>
      </trkpt>
      <trkpt lat="29.26276" lon="-13.48724">
        <ele>54.6</ele>
        <time>2021-07-02 18:32:42</time>
      </trkpt>
      <trkpt lat="29.26279" lon="-13.48722">
        <ele>54.6</ele>
        <time>2021-07-02 18:32:43</time>
      </trkpt>
      <trkpt lat="29.26281" lon="-13.4872">
        <ele>54.6</ele>
        <time>2021-07-02 18:32:44</time>
      </trkpt>
      <trkpt lat="29.26283" lon="-13.48718">
        <ele>54.6</ele>
        <time>2021-07-02 18:32:45</time>
      </trkpt>
      <trkpt lat="29.26285" lon="-13.48715">
        <ele>54.6</ele>
        <time>2021-07-02 18:32:46</time>
      </trkpt>
      <trkpt lat="29.26287" lon="-13.48712">
        <ele>54.6</ele>
        <time>2021-07-02 18:32:47</time>
      </trkpt>
      <trkpt lat="29.26289" lon="-13.4871">
        <ele>54.6</ele>
        <time>2021-07-02 18:32:48</time>
      </trkpt>
      <trkpt lat="29.26292" lon="-13.48708">
        <ele>54.6</ele>
        <time>2021-07-02 18:32:49</time>
      </trkpt>
      <trkpt lat="29.26294" lon="-13.48706">
        <ele>54.6</ele>
        <time>2021-07-02 18:32:50</time>
      </trkpt>
      <trkpt lat="29.26297" lon="-13.48704">
        <ele>54.6</ele>
        <time>2021-07-02 18:32:51</time>
      </trkpt>
      <trkpt lat="29.26299" lon="-13.48702">
        <ele>54.6</ele>
        <time>2021-07-02 18:32:52</time>
      </trkpt>
      <trkpt lat="29.26301" lon="-13.487">
        <ele>54.6</ele>
        <time>2021-07-02 18:32:53</time>
      </trkpt>
      <trkpt lat="29.26304" lon="-13.48698">
        <ele>54.6</ele>
        <time>2021-07-02 18:32:54</time>
      </trkpt>
      <trkpt lat="29.26306" lon="-13.48696">
        <ele>54.6</ele>
        <time>2021-07-02 18:32:55</time>
      </trkpt>
      <trkpt lat="29.26309" lon="-13.48693">
        <ele>54.6</ele>
        <time>2021-07-02 18:32:56</time>
      </trkpt>
      <trkpt lat="29.26311" lon="-13.48691">
        <ele>54.6</ele>
        <time>2021-07-02 18:32:57</time>
      </trkpt>
      <trkpt lat="29.26314" lon="-13.48689">
        <ele>54.6</ele>
        <time>2021-07-02 18:32:58</time>
      </trkpt>
      <trkpt lat="29.26315" lon="-13.48687">
        <ele>54.6</ele>
        <time>2021-07-02 18:32:59</time>
      </trkpt>
      <trkpt lat="29.26317" lon="-13.48686">
        <ele>54.6</ele>
        <time>2021-07-02 18:33:00</time>
      </trkpt>
      <trkpt lat="29.26318" lon="-13.48684">
        <ele>54.6</ele>
        <time>2021-07-02 18:33:01</time>
      </trkpt>
      <trkpt lat="29.26321" lon="-13.48682">
        <ele>54.6</ele>
        <time>2021-07-02 18:33:02</time>
      </trkpt>
      <trkpt lat="29.26323" lon="-13.48679">
        <ele>54.4</ele>
        <time>2021-07-02 18:33:03</time>
      </trkpt>
      <trkpt lat="29.26325" lon="-13.48678">
        <ele>54.4</ele>
        <time>2021-07-02 18:33:04</time>
      </trkpt>
      <trkpt lat="29.26326" lon="-13.48676">
        <ele>54.4</ele>
        <time>2021-07-02 18:33:05</time>
      </trkpt>
      <trkpt lat="29.26328" lon="-13.48674">
        <ele>54.4</ele>
        <time>2021-07-02 18:33:06</time>
      </trkpt>
      <trkpt lat="29.2633" lon="-13.48671">
        <ele>54.4</ele>
        <time>2021-07-02 18:33:07</time>
      </trkpt>
      <trkpt lat="29.26333" lon="-13.48668">
        <ele>54.4</ele>
        <time>2021-07-02 18:33:08</time>
      </trkpt>
      <trkpt lat="29.26335" lon="-13.48666">
        <ele>54.6</ele>
        <time>2021-07-02 18:33:09</time>
      </trkpt>
      <trkpt lat="29.26338" lon="-13.48664">
        <ele>54.6</ele>
        <time>2021-07-02 18:33:10</time>
      </trkpt>
      <trkpt lat="29.2634" lon="-13.48662">
        <ele>54.6</ele>
        <time>2021-07-02 18:33:11</time>
      </trkpt>
      <trkpt lat="29.26343" lon="-13.4866">
        <ele>54.6</ele>
        <time>2021-07-02 18:33:12</time>
      </trkpt>
      <trkpt lat="29.26345" lon="-13.48658">
        <ele>54.6</ele>
        <time>2021-07-02 18:33:13</time>
      </trkpt>
      <trkpt lat="29.26348" lon="-13.48656">
        <ele>54.6</ele>
        <time>2021-07-02 18:33:14</time>
      </trkpt>
      <trkpt lat="29.2635" lon="-13.48654">
        <ele>54.4</ele>
        <time>2021-07-02 18:33:15</time>
      </trkpt>
      <trkpt lat="29.26353" lon="-13.48652">
        <ele>54.4</ele>
        <time>2021-07-02 18:33:16</time>
      </trkpt>
      <trkpt lat="29.26355" lon="-13.48651">
        <ele>54.4</ele>
        <time>2021-07-02 18:33:17</time>
      </trkpt>
      <trkpt lat="29.26358" lon="-13.4865">
        <ele>54.4</ele>
        <time>2021-07-02 18:33:18</time>
      </trkpt>
      <trkpt lat="29.26361" lon="-13.48649">
        <ele>54.4</ele>
        <time>2021-07-02 18:33:19</time>
      </trkpt>
      <trkpt lat="29.26364" lon="-13.48647">
        <ele>54.4</ele>
        <time>2021-07-02 18:33:20</time>
      </trkpt>
      <trkpt lat="29.26367" lon="-13.48645">
        <ele>54.4</ele>
        <time>2021-07-02 18:33:21</time>
      </trkpt>
      <trkpt lat="29.2637" lon="-13.48643">
        <ele>54.2</ele>
        <time>2021-07-02 18:33:22</time>
      </trkpt>
      <trkpt lat="29.26373" lon="-13.48641">
        <ele>54.2</ele>
        <time>2021-07-02 18:33:23</time>
      </trkpt>
      <trkpt lat="29.26376" lon="-13.48639">
        <ele>54.2</ele>
        <time>2021-07-02 18:33:24</time>
      </trkpt>
      <trkpt lat="29.26379" lon="-13.48637">
        <ele>53.8</ele>
        <time>2021-07-02 18:33:25</time>
      </trkpt>
      <trkpt lat="29.26382" lon="-13.48634">
        <ele>53.8</ele>
        <time>2021-07-02 18:33:26</time>
      </trkpt>
      <trkpt lat="29.26385" lon="-13.48632">
        <ele>53.6</ele>
        <time>2021-07-02 18:33:27</time>
      </trkpt>
      <trkpt lat="29.26387" lon="-13.4863">
        <ele>53.6</ele>
        <time>2021-07-02 18:33:28</time>
      </trkpt>
      <trkpt lat="29.2639" lon="-13.48628">
        <ele>53.4</ele>
        <time>2021-07-02 18:33:29</time>
      </trkpt>
      <trkpt lat="29.26393" lon="-13.48627">
        <ele>53.4</ele>
        <time>2021-07-02 18:33:30</time>
      </trkpt>
      <trkpt lat="29.26396" lon="-13.48625">
        <ele>53.4</ele>
        <time>2021-07-02 18:33:31</time>
      </trkpt>
      <trkpt lat="29.264" lon="-13.48622">
        <ele>53.2</ele>
        <time>2021-07-02 18:33:32</time>
      </trkpt>
      <trkpt lat="29.26403" lon="-13.4862">
        <ele>53</ele>
        <time>2021-07-02 18:33:33</time>
      </trkpt>
      <trkpt lat="29.26406" lon="-13.48617">
        <ele>53</ele>
        <time>2021-07-02 18:33:34</time>
      </trkpt>
      <trkpt lat="29.26409" lon="-13.48615">
        <ele>53</ele>
        <time>2021-07-02 18:33:35</time>
      </trkpt>
      <trkpt lat="29.26411" lon="-13.48612">
        <ele>52.6</ele>
        <time>2021-07-02 18:33:36</time>
      </trkpt>
      <trkpt lat="29.26414" lon="-13.4861">
        <ele>52.6</ele>
        <time>2021-07-02 18:33:37</time>
      </trkpt>
      <trkpt lat="29.26416" lon="-13.48608">
        <ele>52.6</ele>
        <time>2021-07-02 18:33:38</time>
      </trkpt>
      <trkpt lat="29.26418" lon="-13.48605">
        <ele>52.4</ele>
        <time>2021-07-02 18:33:39</time>
      </trkpt>
      <trkpt lat="29.2642" lon="-13.48602">
        <ele>52.4</ele>
        <time>2021-07-02 18:33:40</time>
      </trkpt>
      <trkpt lat="29.26422" lon="-13.48599">
        <ele>52.4</ele>
        <time>2021-07-02 18:33:41</time>
      </trkpt>
      <trkpt lat="29.26424" lon="-13.48595">
        <ele>52.2</ele>
        <time>2021-07-02 18:33:42</time>
      </trkpt>
      <trkpt lat="29.26427" lon="-13.48592">
        <ele>52.2</ele>
        <time>2021-07-02 18:33:43</time>
      </trkpt>
      <trkpt lat="29.2643" lon="-13.48589">
        <ele>52.2</ele>
        <time>2021-07-02 18:33:44</time>
      </trkpt>
      <trkpt lat="29.26432" lon="-13.48585">
        <ele>52.2</ele>
        <time>2021-07-02 18:33:45</time>
      </trkpt>
      <trkpt lat="29.26435" lon="-13.48582">
        <ele>52</ele>
        <time>2021-07-02 18:33:46</time>
      </trkpt>
      <trkpt lat="29.26438" lon="-13.48579">
        <ele>52</ele>
        <time>2021-07-02 18:33:47</time>
      </trkpt>
      <trkpt lat="29.26441" lon="-13.48576">
        <ele>52</ele>
        <time>2021-07-02 18:33:48</time>
      </trkpt>
      <trkpt lat="29.26444" lon="-13.48574">
        <ele>52</ele>
        <time>2021-07-02 18:33:49</time>
      </trkpt>
      <trkpt lat="29.26447" lon="-13.48571">
        <ele>52</ele>
        <time>2021-07-02 18:33:50</time>
      </trkpt>
      <trkpt lat="29.26449" lon="-13.48568">
        <ele>52</ele>
        <time>2021-07-02 18:33:51</time>
      </trkpt>
      <trkpt lat="29.26452" lon="-13.48565">
        <ele>51.8</ele>
        <time>2021-07-02 18:33:52</time>
      </trkpt>
      <trkpt lat="29.26455" lon="-13.48563">
        <ele>51.8</ele>
        <time>2021-07-02 18:33:53</time>
      </trkpt>
      <trkpt lat="29.26458" lon="-13.4856">
        <ele>51.8</ele>
        <time>2021-07-02 18:33:54</time>
      </trkpt>
      <trkpt lat="29.26461" lon="-13.48557">
        <ele>51.8</ele>
        <time>2021-07-02 18:33:55</time>
      </trkpt>
      <trkpt lat="29.26463" lon="-13.48555">
        <ele>51.8</ele>
        <time>2021-07-02 18:33:56</time>
      </trkpt>
      <trkpt lat="29.26465" lon="-13.48553">
        <ele>51.8</ele>
        <time>2021-07-02 18:33:57</time>
      </trkpt>
      <trkpt lat="29.26467" lon="-13.48551">
        <ele>51.8</ele>
        <time>2021-07-02 18:33:58</time>
      </trkpt>
      <trkpt lat="29.26468" lon="-13.4855">
        <ele>51.8</ele>
        <time>2021-07-02 18:33:59</time>
      </trkpt>
      <trkpt lat="29.26469" lon="-13.48548">
        <ele>51.8</ele>
        <time>2021-07-02 18:34:00</time>
      </trkpt>
      <trkpt lat="29.2647" lon="-13.48547">
        <ele>51.8</ele>
        <time>2021-07-02 18:34:01</time>
      </trkpt>
      <trkpt lat="29.26471" lon="-13.48546">
        <ele>52</ele>
        <time>2021-07-02 18:34:02</time>
      </trkpt>
      <trkpt lat="29.26473" lon="-13.48545">
        <ele>52</ele>
        <time>2021-07-02 18:34:03</time>
      </trkpt>
      <trkpt lat="29.26474" lon="-13.48544">
        <ele>52</ele>
        <time>2021-07-02 18:34:04</time>
      </trkpt>
      <trkpt lat="29.26475" lon="-13.48542">
        <ele>52</ele>
        <time>2021-07-02 18:34:05</time>
      </trkpt>
      <trkpt lat="29.26477" lon="-13.4854">
        <ele>52</ele>
        <time>2021-07-02 18:34:06</time>
      </trkpt>
      <trkpt lat="29.26478" lon="-13.48539">
        <ele>52</ele>
        <time>2021-07-02 18:34:07</time>
      </trkpt>
      <trkpt lat="29.26479" lon="-13.48539">
        <ele>52</ele>
        <time>2021-07-02 18:34:08</time>
      </trkpt>
      <trkpt lat="29.2648" lon="-13.48538">
        <ele>52</ele>
        <time>2021-07-02 18:34:09</time>
      </trkpt>
      <trkpt lat="29.26481" lon="-13.48537">
        <ele>52</ele>
        <time>2021-07-02 18:34:10</time>
      </trkpt>
      <trkpt lat="29.26483" lon="-13.48536">
        <ele>52</ele>
        <time>2021-07-02 18:34:11</time>
      </trkpt>
      <trkpt lat="29.26484" lon="-13.48534">
        <ele>52</ele>
        <time>2021-07-02 18:34:12</time>
      </trkpt>
      <trkpt lat="29.26486" lon="-13.48532">
        <ele>51.8</ele>
        <time>2021-07-02 18:34:13</time>
      </trkpt>
      <trkpt lat="29.26487" lon="-13.48529">
        <ele>51.8</ele>
        <time>2021-07-02 18:34:14</time>
      </trkpt>
      <trkpt lat="29.26488" lon="-13.48526">
        <ele>51.4</ele>
        <time>2021-07-02 18:34:15</time>
      </trkpt>
      <trkpt lat="29.26489" lon="-13.48524">
        <ele>51.4</ele>
        <time>2021-07-02 18:34:16</time>
      </trkpt>
      <trkpt lat="29.26489" lon="-13.48522">
        <ele>51</ele>
        <time>2021-07-02 18:34:17</time>
      </trkpt>
      <trkpt lat="29.26489" lon="-13.48521">
        <ele>51</ele>
        <time>2021-07-02 18:34:18</time>
      </trkpt>
      <trkpt lat="29.26489" lon="-13.48521">
        <ele>50.6</ele>
        <time>2021-07-02 18:34:19</time>
      </trkpt>
      <trkpt lat="29.26489" lon="-13.48521">
        <ele>50.6</ele>
        <time>2021-07-02 18:34:20</time>
      </trkpt>
      <trkpt lat="29.26489" lon="-13.48521">
        <ele>50.4</ele>
        <time>2021-07-02 18:34:21</time>
      </trkpt>
      <trkpt lat="29.26489" lon="-13.48522">
        <ele>50.4</ele>
        <time>2021-07-02 18:34:22</time>
      </trkpt>
      <trkpt lat="29.26489" lon="-13.48522">
        <ele>50.4</ele>
        <time>2021-07-02 18:34:23</time>
      </trkpt>
      <trkpt lat="29.2649" lon="-13.48515">
        <ele>50</ele>
        <time>2021-07-02 18:34:47</time>
      </trkpt>
      <trkpt lat="29.2649" lon="-13.48512">
        <ele>49.8</ele>
        <time>2021-07-02 18:34:48</time>
      </trkpt>
      <trkpt lat="29.2649" lon="-13.48509">
        <ele>49.8</ele>
        <time>2021-07-02 18:34:49</time>
      </trkpt>
      <trkpt lat="29.26489" lon="-13.48506">
        <ele>49.4</ele>
        <time>2021-07-02 18:34:50</time>
      </trkpt>
      <trkpt lat="29.26489" lon="-13.48503">
        <ele>49.4</ele>
        <time>2021-07-02 18:34:51</time>
      </trkpt>
      <trkpt lat="29.26488" lon="-13.485">
        <ele>49</ele>
        <time>2021-07-02 18:34:52</time>
      </trkpt>
      <trkpt lat="29.26487" lon="-13.48496">
        <ele>48.8</ele>
        <time>2021-07-02 18:34:53</time>
      </trkpt>
      <trkpt lat="29.26486" lon="-13.48493">
        <ele>48.4</ele>
        <time>2021-07-02 18:34:54</time>
      </trkpt>
      <trkpt lat="29.26485" lon="-13.48489">
        <ele>48.2</ele>
        <time>2021-07-02 18:34:55</time>
      </trkpt>
      <trkpt lat="29.26483" lon="-13.48485">
        <ele>47.8</ele>
        <time>2021-07-02 18:34:56</time>
      </trkpt>
      <trkpt lat="29.26481" lon="-13.48481">
        <ele>47.6</ele>
        <time>2021-07-02 18:34:57</time>
      </trkpt>
      <trkpt lat="29.26479" lon="-13.48477">
        <ele>47.2</ele>
        <time>2021-07-02 18:34:58</time>
      </trkpt>
      <trkpt lat="29.26478" lon="-13.48474">
        <ele>46.8</ele>
        <time>2021-07-02 18:34:59</time>
      </trkpt>
      <trkpt lat="29.26476" lon="-13.4847">
        <ele>46</ele>
        <time>2021-07-02 18:35:00</time>
      </trkpt>
      <trkpt lat="29.26475" lon="-13.48467">
        <ele>45.8</ele>
        <time>2021-07-02 18:35:01</time>
      </trkpt>
      <trkpt lat="29.26474" lon="-13.48463">
        <ele>45.2</ele>
        <time>2021-07-02 18:35:02</time>
      </trkpt>
      <trkpt lat="29.26474" lon="-13.48459">
        <ele>44.8</ele>
        <time>2021-07-02 18:35:03</time>
      </trkpt>
      <trkpt lat="29.26475" lon="-13.48454">
        <ele>44.4</ele>
        <time>2021-07-02 18:35:04</time>
      </trkpt>
      <trkpt lat="29.26476" lon="-13.4845">
        <ele>44</ele>
        <time>2021-07-02 18:35:05</time>
      </trkpt>
      <trkpt lat="29.26478" lon="-13.48446">
        <ele>43.6</ele>
        <time>2021-07-02 18:35:06</time>
      </trkpt>
      <trkpt lat="29.2648" lon="-13.48441">
        <ele>43.2</ele>
        <time>2021-07-02 18:35:07</time>
      </trkpt>
      <trkpt lat="29.26483" lon="-13.48437">
        <ele>42.8</ele>
        <time>2021-07-02 18:35:08</time>
      </trkpt>
      <trkpt lat="29.26485" lon="-13.48434">
        <ele>42.4</ele>
        <time>2021-07-02 18:35:09</time>
      </trkpt>
      <trkpt lat="29.26488" lon="-13.48432">
        <ele>42</ele>
        <time>2021-07-02 18:35:10</time>
      </trkpt>
      <trkpt lat="29.26491" lon="-13.48431">
        <ele>41.8</ele>
        <time>2021-07-02 18:35:11</time>
      </trkpt>
      <trkpt lat="29.26495" lon="-13.48429">
        <ele>41.2</ele>
        <time>2021-07-02 18:35:12</time>
      </trkpt>
      <trkpt lat="29.26498" lon="-13.48427">
        <ele>40.8</ele>
        <time>2021-07-02 18:35:13</time>
      </trkpt>
      <trkpt lat="29.26502" lon="-13.48426">
        <ele>40.4</ele>
        <time>2021-07-02 18:35:14</time>
      </trkpt>
      <trkpt lat="29.26505" lon="-13.48425">
        <ele>40</ele>
        <time>2021-07-02 18:35:15</time>
      </trkpt>
      <trkpt lat="29.26508" lon="-13.48425">
        <ele>39.4</ele>
        <time>2021-07-02 18:35:16</time>
      </trkpt>
      <trkpt lat="29.26511" lon="-13.48423">
        <ele>38.8</ele>
        <time>2021-07-02 18:35:17</time>
      </trkpt>
      <trkpt lat="29.26515" lon="-13.48421">
        <ele>38.4</ele>
        <time>2021-07-02 18:35:18</time>
      </trkpt>
      <trkpt lat="29.26519" lon="-13.48417">
        <ele>38</ele>
        <time>2021-07-02 18:35:19</time>
      </trkpt>
      <trkpt lat="29.26522" lon="-13.48413">
        <ele>37.4</ele>
        <time>2021-07-02 18:35:20</time>
      </trkpt>
      <trkpt lat="29.26526" lon="-13.48409">
        <ele>37</ele>
        <time>2021-07-02 18:35:21</time>
      </trkpt>
      <trkpt lat="29.26529" lon="-13.48405">
        <ele>36.4</ele>
        <time>2021-07-02 18:35:22</time>
      </trkpt>
      <trkpt lat="29.26532" lon="-13.48401">
        <ele>36</ele>
        <time>2021-07-02 18:35:23</time>
      </trkpt>
      <trkpt lat="29.26535" lon="-13.48397">
        <ele>35.6</ele>
        <time>2021-07-02 18:35:24</time>
      </trkpt>
      <trkpt lat="29.26537" lon="-13.48394">
        <ele>35.2</ele>
        <time>2021-07-02 18:35:25</time>
      </trkpt>
      <trkpt lat="29.26539" lon="-13.4839">
        <ele>34.8</ele>
        <time>2021-07-02 18:35:26</time>
      </trkpt>
      <trkpt lat="29.26542" lon="-13.48386">
        <ele>34.4</ele>
        <time>2021-07-02 18:35:27</time>
      </trkpt>
      <trkpt lat="29.26545" lon="-13.48383">
        <ele>34</ele>
        <time>2021-07-02 18:35:28</time>
      </trkpt>
      <trkpt lat="29.26547" lon="-13.48379">
        <ele>33.6</ele>
        <time>2021-07-02 18:35:29</time>
      </trkpt>
      <trkpt lat="29.2655" lon="-13.48375">
        <ele>33.4</ele>
        <time>2021-07-02 18:35:30</time>
      </trkpt>
      <trkpt lat="29.26553" lon="-13.48372">
        <ele>33</ele>
        <time>2021-07-02 18:35:31</time>
      </trkpt>
      <trkpt lat="29.26557" lon="-13.48369">
        <ele>32.8</ele>
        <time>2021-07-02 18:35:32</time>
      </trkpt>
      <trkpt lat="29.2656" lon="-13.48366">
        <ele>32.4</ele>
        <time>2021-07-02 18:35:33</time>
      </trkpt>
      <trkpt lat="29.26564" lon="-13.48364">
        <ele>32.2</ele>
        <time>2021-07-02 18:35:34</time>
      </trkpt>
      <trkpt lat="29.26568" lon="-13.48363">
        <ele>31.8</ele>
        <time>2021-07-02 18:35:35</time>
      </trkpt>
      <trkpt lat="29.26573" lon="-13.48361">
        <ele>31.6</ele>
        <time>2021-07-02 18:35:36</time>
      </trkpt>
      <trkpt lat="29.26577" lon="-13.48361">
        <ele>31.2</ele>
        <time>2021-07-02 18:35:37</time>
      </trkpt>
      <trkpt lat="29.26581" lon="-13.48361">
        <ele>31</ele>
        <time>2021-07-02 18:35:38</time>
      </trkpt>
      <trkpt lat="29.26585" lon="-13.48361">
        <ele>30.8</ele>
        <time>2021-07-02 18:35:39</time>
      </trkpt>
      <trkpt lat="29.26589" lon="-13.48361">
        <ele>30.6</ele>
        <time>2021-07-02 18:35:40</time>
      </trkpt>
      <trkpt lat="29.26593" lon="-13.48362">
        <ele>30.6</ele>
        <time>2021-07-02 18:35:41</time>
      </trkpt>
      <trkpt lat="29.26596" lon="-13.48362">
        <ele>30.2</ele>
        <time>2021-07-02 18:35:42</time>
      </trkpt>
      <trkpt lat="29.266" lon="-13.48362">
        <ele>30.2</ele>
        <time>2021-07-02 18:35:43</time>
      </trkpt>
      <trkpt lat="29.26603" lon="-13.48362">
        <ele>30.2</ele>
        <time>2021-07-02 18:35:44</time>
      </trkpt>
      <trkpt lat="29.26607" lon="-13.48362">
        <ele>30</ele>
        <time>2021-07-02 18:35:45</time>
      </trkpt>
      <trkpt lat="29.2661" lon="-13.48361">
        <ele>30</ele>
        <time>2021-07-02 18:35:46</time>
      </trkpt>
      <trkpt lat="29.26614" lon="-13.48361">
        <ele>30</ele>
        <time>2021-07-02 18:35:47</time>
      </trkpt>
      <trkpt lat="29.26618" lon="-13.48361">
        <ele>29.8</ele>
        <time>2021-07-02 18:35:48</time>
      </trkpt>
      <trkpt lat="29.26621" lon="-13.48361">
        <ele>29.8</ele>
        <time>2021-07-02 18:35:49</time>
      </trkpt>
      <trkpt lat="29.26625" lon="-13.48361">
        <ele>29.6</ele>
        <time>2021-07-02 18:35:50</time>
      </trkpt>
      <trkpt lat="29.26629" lon="-13.4836">
        <ele>29.6</ele>
        <time>2021-07-02 18:35:51</time>
      </trkpt>
      <trkpt lat="29.26632" lon="-13.4836">
        <ele>29.6</ele>
        <time>2021-07-02 18:35:52</time>
      </trkpt>
      <trkpt lat="29.26635" lon="-13.4836">
        <ele>29.6</ele>
        <time>2021-07-02 18:35:53</time>
      </trkpt>
      <trkpt lat="29.26635" lon="-13.4836">
        <ele>29.2</ele>
        <time>2021-07-02 18:35:54</time>
      </trkpt>
      <trkpt lat="29.26636" lon="-13.4836">
        <ele>29.2</ele>
        <time>2021-07-02 18:35:55</time>
      </trkpt>
      <trkpt lat="29.26635" lon="-13.4836">
        <ele>29.2</ele>
        <time>2021-07-02 18:35:56</time>
      </trkpt>
      <trkpt lat="29.26635" lon="-13.4836">
        <ele>29.2</ele>
        <time>2021-07-02 18:35:57</time>
      </trkpt>
      <trkpt lat="29.26635" lon="-13.4836">
        <ele>29.2</ele>
        <time>2021-07-02 18:35:58</time>
      </trkpt>
      <trkpt lat="29.26639" lon="-13.48359">
        <ele>29.4</ele>
        <time>2021-07-02 18:36:32</time>
      </trkpt>
      <trkpt lat="29.26641" lon="-13.48358">
        <ele>29.4</ele>
        <time>2021-07-02 18:36:33</time>
      </trkpt>
      <trkpt lat="29.26644" lon="-13.48358">
        <ele>29.2</ele>
        <time>2021-07-02 18:36:34</time>
      </trkpt>
      <trkpt lat="29.26647" lon="-13.48358">
        <ele>29.2</ele>
        <time>2021-07-02 18:36:35</time>
      </trkpt>
      <trkpt lat="29.2665" lon="-13.48357">
        <ele>29.2</ele>
        <time>2021-07-02 18:36:36</time>
      </trkpt>
      <trkpt lat="29.26653" lon="-13.48357">
        <ele>29</ele>
        <time>2021-07-02 18:36:37</time>
      </trkpt>
      <trkpt lat="29.26657" lon="-13.48357">
        <ele>29</ele>
        <time>2021-07-02 18:36:38</time>
      </trkpt>
      <trkpt lat="29.2666" lon="-13.48357">
        <ele>29</ele>
        <time>2021-07-02 18:36:39</time>
      </trkpt>
      <trkpt lat="29.26664" lon="-13.48356">
        <ele>29</ele>
        <time>2021-07-02 18:36:40</time>
      </trkpt>
      <trkpt lat="29.26668" lon="-13.48356">
        <ele>29</ele>
        <time>2021-07-02 18:36:41</time>
      </trkpt>
      <trkpt lat="29.26671" lon="-13.48356">
        <ele>29</ele>
        <time>2021-07-02 18:36:42</time>
      </trkpt>
      <trkpt lat="29.26675" lon="-13.48356">
        <ele>29</ele>
        <time>2021-07-02 18:36:43</time>
      </trkpt>
      <trkpt lat="29.26679" lon="-13.48356">
        <ele>29</ele>
        <time>2021-07-02 18:36:44</time>
      </trkpt>
      <trkpt lat="29.26682" lon="-13.48356">
        <ele>29</ele>
        <time>2021-07-02 18:36:45</time>
      </trkpt>
      <trkpt lat="29.26686" lon="-13.48356">
        <ele>29</ele>
        <time>2021-07-02 18:36:46</time>
      </trkpt>
      <trkpt lat="29.2669" lon="-13.48356">
        <ele>29</ele>
        <time>2021-07-02 18:36:47</time>
      </trkpt>
      <trkpt lat="29.26694" lon="-13.48355">
        <ele>29</ele>
        <time>2021-07-02 18:36:48</time>
      </trkpt>
      <trkpt lat="29.26697" lon="-13.48355">
        <ele>29</ele>
        <time>2021-07-02 18:36:49</time>
      </trkpt>
      <trkpt lat="29.26701" lon="-13.48356">
        <ele>29</ele>
        <time>2021-07-02 18:36:50</time>
      </trkpt>
      <trkpt lat="29.26705" lon="-13.48356">
        <ele>29</ele>
        <time>2021-07-02 18:36:51</time>
      </trkpt>
      <trkpt lat="29.26709" lon="-13.48356">
        <ele>29</ele>
        <time>2021-07-02 18:36:52</time>
      </trkpt>
      <trkpt lat="29.26712" lon="-13.48356">
        <ele>29</ele>
        <time>2021-07-02 18:36:53</time>
      </trkpt>
      <trkpt lat="29.26716" lon="-13.48356">
        <ele>29</ele>
        <time>2021-07-02 18:36:54</time>
      </trkpt>
      <trkpt lat="29.26719" lon="-13.48356">
        <ele>28.8</ele>
        <time>2021-07-02 18:36:55</time>
      </trkpt>
      <trkpt lat="29.26722" lon="-13.48356">
        <ele>28.8</ele>
        <time>2021-07-02 18:36:56</time>
      </trkpt>
      <trkpt lat="29.26726" lon="-13.48355">
        <ele>28.8</ele>
        <time>2021-07-02 18:36:57</time>
      </trkpt>
      <trkpt lat="29.26729" lon="-13.48355">
        <ele>28.8</ele>
        <time>2021-07-02 18:36:58</time>
      </trkpt>
      <trkpt lat="29.26733" lon="-13.48354">
        <ele>28.8</ele>
        <time>2021-07-02 18:36:59</time>
      </trkpt>
      <trkpt lat="29.26736" lon="-13.48353">
        <ele>28.8</ele>
        <time>2021-07-02 18:37:00</time>
      </trkpt>
      <trkpt lat="29.2674" lon="-13.48352">
        <ele>28.8</ele>
        <time>2021-07-02 18:37:01</time>
      </trkpt>
      <trkpt lat="29.26743" lon="-13.48351">
        <ele>28.8</ele>
        <time>2021-07-02 18:37:02</time>
      </trkpt>
      <trkpt lat="29.26746" lon="-13.4835">
        <ele>28.8</ele>
        <time>2021-07-02 18:37:03</time>
      </trkpt>
      <trkpt lat="29.2675" lon="-13.48349">
        <ele>28.8</ele>
        <time>2021-07-02 18:37:04</time>
      </trkpt>
      <trkpt lat="29.26753" lon="-13.48348">
        <ele>28.8</ele>
        <time>2021-07-02 18:37:05</time>
      </trkpt>
      <trkpt lat="29.26757" lon="-13.48347">
        <ele>28.8</ele>
        <time>2021-07-02 18:37:06</time>
      </trkpt>
      <trkpt lat="29.2676" lon="-13.48347">
        <ele>28.6</ele>
        <time>2021-07-02 18:37:07</time>
      </trkpt>
      <trkpt lat="29.26763" lon="-13.48346">
        <ele>28.6</ele>
        <time>2021-07-02 18:37:08</time>
      </trkpt>
      <trkpt lat="29.26766" lon="-13.48345">
        <ele>28.6</ele>
        <time>2021-07-02 18:37:09</time>
      </trkpt>
      <trkpt lat="29.2677" lon="-13.48345">
        <ele>28.6</ele>
        <time>2021-07-02 18:37:10</time>
      </trkpt>
      <trkpt lat="29.26773" lon="-13.48344">
        <ele>28.8</ele>
        <time>2021-07-02 18:37:11</time>
      </trkpt>
      <trkpt lat="29.26776" lon="-13.48344">
        <ele>28.8</ele>
        <time>2021-07-02 18:37:12</time>
      </trkpt>
      <trkpt lat="29.2678" lon="-13.48343">
        <ele>28.8</ele>
        <time>2021-07-02 18:37:13</time>
      </trkpt>
      <trkpt lat="29.26783" lon="-13.48343">
        <ele>28.8</ele>
        <time>2021-07-02 18:37:14</time>
      </trkpt>
      <trkpt lat="29.26787" lon="-13.48342">
        <ele>28.8</ele>
        <time>2021-07-02 18:37:15</time>
      </trkpt>
      <trkpt lat="29.2679" lon="-13.48342">
        <ele>28.8</ele>
        <time>2021-07-02 18:37:16</time>
      </trkpt>
      <trkpt lat="29.26793" lon="-13.48341">
        <ele>28.8</ele>
        <time>2021-07-02 18:37:17</time>
      </trkpt>
      <trkpt lat="29.26797" lon="-13.48341">
        <ele>29</ele>
        <time>2021-07-02 18:37:18</time>
      </trkpt>
      <trkpt lat="29.268" lon="-13.48341">
        <ele>29</ele>
        <time>2021-07-02 18:37:19</time>
      </trkpt>
      <trkpt lat="29.26804" lon="-13.48342">
        <ele>29</ele>
        <time>2021-07-02 18:37:20</time>
      </trkpt>
      <trkpt lat="29.26808" lon="-13.48343">
        <ele>29</ele>
        <time>2021-07-02 18:37:21</time>
      </trkpt>
      <trkpt lat="29.26811" lon="-13.48345">
        <ele>29</ele>
        <time>2021-07-02 18:37:22</time>
      </trkpt>
      <trkpt lat="29.26815" lon="-13.48348">
        <ele>29</ele>
        <time>2021-07-02 18:37:23</time>
      </trkpt>
      <trkpt lat="29.26818" lon="-13.48351">
        <ele>28.6</ele>
        <time>2021-07-02 18:37:24</time>
      </trkpt>
      <trkpt lat="29.26821" lon="-13.48354">
        <ele>28.6</ele>
        <time>2021-07-02 18:37:25</time>
      </trkpt>
      <trkpt lat="29.26825" lon="-13.48357">
        <ele>28.4</ele>
        <time>2021-07-02 18:37:26</time>
      </trkpt>
      <trkpt lat="29.26828" lon="-13.4836">
        <ele>28.4</ele>
        <time>2021-07-02 18:37:27</time>
      </trkpt>
      <trkpt lat="29.26832" lon="-13.48363">
        <ele>28.4</ele>
        <time>2021-07-02 18:37:28</time>
      </trkpt>
      <trkpt lat="29.26836" lon="-13.48366">
        <ele>28.2</ele>
        <time>2021-07-02 18:37:29</time>
      </trkpt>
      <trkpt lat="29.26839" lon="-13.48368">
        <ele>28.2</ele>
        <time>2021-07-02 18:37:30</time>
      </trkpt>
      <trkpt lat="29.26843" lon="-13.48371">
        <ele>28</ele>
        <time>2021-07-02 18:37:31</time>
      </trkpt>
      <trkpt lat="29.26847" lon="-13.48373">
        <ele>28</ele>
        <time>2021-07-02 18:37:32</time>
      </trkpt>
      <trkpt lat="29.26851" lon="-13.48375">
        <ele>27.8</ele>
        <time>2021-07-02 18:37:33</time>
      </trkpt>
      <trkpt lat="29.26855" lon="-13.48376">
        <ele>27.8</ele>
        <time>2021-07-02 18:37:34</time>
      </trkpt>
      <trkpt lat="29.26859" lon="-13.48378">
        <ele>27.6</ele>
        <time>2021-07-02 18:37:35</time>
      </trkpt>
      <trkpt lat="29.26862" lon="-13.48379">
        <ele>27.6</ele>
        <time>2021-07-02 18:37:36</time>
      </trkpt>
      <trkpt lat="29.26866" lon="-13.48381">
        <ele>27.2</ele>
        <time>2021-07-02 18:37:37</time>
      </trkpt>
      <trkpt lat="29.2687" lon="-13.48382">
        <ele>27.2</ele>
        <time>2021-07-02 18:37:38</time>
      </trkpt>
      <trkpt lat="29.26873" lon="-13.48383">
        <ele>27</ele>
        <time>2021-07-02 18:37:39</time>
      </trkpt>
      <trkpt lat="29.26877" lon="-13.48384">
        <ele>27</ele>
        <time>2021-07-02 18:37:40</time>
      </trkpt>
      <trkpt lat="29.26881" lon="-13.48385">
        <ele>26.8</ele>
        <time>2021-07-02 18:37:41</time>
      </trkpt>
      <trkpt lat="29.26884" lon="-13.48385">
        <ele>26.8</ele>
        <time>2021-07-02 18:37:42</time>
      </trkpt>
      <trkpt lat="29.26888" lon="-13.48386">
        <ele>26.8</ele>
        <time>2021-07-02 18:37:43</time>
      </trkpt>
      <trkpt lat="29.26892" lon="-13.48387">
        <ele>26.8</ele>
        <time>2021-07-02 18:37:44</time>
      </trkpt>
      <trkpt lat="29.26895" lon="-13.48388">
        <ele>26.8</ele>
        <time>2021-07-02 18:37:45</time>
      </trkpt>
      <trkpt lat="29.26899" lon="-13.48389">
        <ele>26.8</ele>
        <time>2021-07-02 18:37:46</time>
      </trkpt>
      <trkpt lat="29.26902" lon="-13.4839">
        <ele>26.6</ele>
        <time>2021-07-02 18:37:47</time>
      </trkpt>
      <trkpt lat="29.26906" lon="-13.4839">
        <ele>26.6</ele>
        <time>2021-07-02 18:37:48</time>
      </trkpt>
      <trkpt lat="29.2691" lon="-13.48391">
        <ele>26.6</ele>
        <time>2021-07-02 18:37:49</time>
      </trkpt>
      <trkpt lat="29.26914" lon="-13.48392">
        <ele>26.6</ele>
        <time>2021-07-02 18:37:50</time>
      </trkpt>
      <trkpt lat="29.26917" lon="-13.48392">
        <ele>26.6</ele>
        <time>2021-07-02 18:37:51</time>
      </trkpt>
      <trkpt lat="29.26921" lon="-13.48393">
        <ele>26.2</ele>
        <time>2021-07-02 18:37:52</time>
      </trkpt>
      <trkpt lat="29.26925" lon="-13.48393">
        <ele>26.2</ele>
        <time>2021-07-02 18:37:53</time>
      </trkpt>
      <trkpt lat="29.26929" lon="-13.48394">
        <ele>26.2</ele>
        <time>2021-07-02 18:37:54</time>
      </trkpt>
      <trkpt lat="29.26932" lon="-13.48394">
        <ele>26.2</ele>
        <time>2021-07-02 18:37:55</time>
      </trkpt>
      <trkpt lat="29.26936" lon="-13.48395">
        <ele>26.2</ele>
        <time>2021-07-02 18:37:56</time>
      </trkpt>
      <trkpt lat="29.2694" lon="-13.48396">
        <ele>26.2</ele>
        <time>2021-07-02 18:37:57</time>
      </trkpt>
      <trkpt lat="29.26944" lon="-13.48396">
        <ele>26.2</ele>
        <time>2021-07-02 18:37:58</time>
      </trkpt>
      <trkpt lat="29.26947" lon="-13.48396">
        <ele>26.2</ele>
        <time>2021-07-02 18:37:59</time>
      </trkpt>
      <trkpt lat="29.26951" lon="-13.48397">
        <ele>26.2</ele>
        <time>2021-07-02 18:38:00</time>
      </trkpt>
      <trkpt lat="29.26955" lon="-13.48397">
        <ele>26.2</ele>
        <time>2021-07-02 18:38:01</time>
      </trkpt>
      <trkpt lat="29.26959" lon="-13.48397">
        <ele>26.2</ele>
        <time>2021-07-02 18:38:02</time>
      </trkpt>
      <trkpt lat="29.26963" lon="-13.48397">
        <ele>26.2</ele>
        <time>2021-07-02 18:38:03</time>
      </trkpt>
      <trkpt lat="29.26967" lon="-13.48397">
        <ele>26.2</ele>
        <time>2021-07-02 18:38:04</time>
      </trkpt>
      <trkpt lat="29.2697" lon="-13.48398">
        <ele>26</ele>
        <time>2021-07-02 18:38:05</time>
      </trkpt>
      <trkpt lat="29.26974" lon="-13.48398">
        <ele>26</ele>
        <time>2021-07-02 18:38:06</time>
      </trkpt>
      <trkpt lat="29.26978" lon="-13.484">
        <ele>26</ele>
        <time>2021-07-02 18:38:07</time>
      </trkpt>
      <trkpt lat="29.26982" lon="-13.48401">
        <ele>25.6</ele>
        <time>2021-07-02 18:38:08</time>
      </trkpt>
      <trkpt lat="29.26986" lon="-13.48402">
        <ele>25.6</ele>
        <time>2021-07-02 18:38:09</time>
      </trkpt>
      <trkpt lat="29.2699" lon="-13.48403">
        <ele>25.6</ele>
        <time>2021-07-02 18:38:10</time>
      </trkpt>
      <trkpt lat="29.26994" lon="-13.48404">
        <ele>25.6</ele>
        <time>2021-07-02 18:38:11</time>
      </trkpt>
      <trkpt lat="29.26998" lon="-13.48405">
        <ele>25.6</ele>
        <time>2021-07-02 18:38:12</time>
      </trkpt>
      <trkpt lat="29.27001" lon="-13.48406">
        <ele>25.6</ele>
        <time>2021-07-02 18:38:13</time>
      </trkpt>
      <trkpt lat="29.27005" lon="-13.48405">
        <ele>25.6</ele>
        <time>2021-07-02 18:38:14</time>
      </trkpt>
      <trkpt lat="29.27009" lon="-13.48405">
        <ele>25.6</ele>
        <time>2021-07-02 18:38:15</time>
      </trkpt>
      <trkpt lat="29.27013" lon="-13.48404">
        <ele>25.6</ele>
        <time>2021-07-02 18:38:16</time>
      </trkpt>
      <trkpt lat="29.27017" lon="-13.48404">
        <ele>25.6</ele>
        <time>2021-07-02 18:38:17</time>
      </trkpt>
      <trkpt lat="29.27021" lon="-13.48402">
        <ele>25.6</ele>
        <time>2021-07-02 18:38:18</time>
      </trkpt>
      <trkpt lat="29.27025" lon="-13.48401">
        <ele>25.6</ele>
        <time>2021-07-02 18:38:19</time>
      </trkpt>
      <trkpt lat="29.27029" lon="-13.48399">
        <ele>25.4</ele>
        <time>2021-07-02 18:38:20</time>
      </trkpt>
      <trkpt lat="29.27033" lon="-13.48398">
        <ele>25.4</ele>
        <time>2021-07-02 18:38:21</time>
      </trkpt>
      <trkpt lat="29.27037" lon="-13.48397">
        <ele>25.4</ele>
        <time>2021-07-02 18:38:22</time>
      </trkpt>
      <trkpt lat="29.27041" lon="-13.48397">
        <ele>25.2</ele>
        <time>2021-07-02 18:38:23</time>
      </trkpt>
      <trkpt lat="29.27044" lon="-13.48397">
        <ele>25.2</ele>
        <time>2021-07-02 18:38:24</time>
      </trkpt>
      <trkpt lat="29.27048" lon="-13.48397">
        <ele>25.2</ele>
        <time>2021-07-02 18:38:25</time>
      </trkpt>
      <trkpt lat="29.27052" lon="-13.48398">
        <ele>25.2</ele>
        <time>2021-07-02 18:38:26</time>
      </trkpt>
      <trkpt lat="29.27056" lon="-13.48399">
        <ele>25.2</ele>
        <time>2021-07-02 18:38:27</time>
      </trkpt>
      <trkpt lat="29.27059" lon="-13.48401">
        <ele>25.2</ele>
        <time>2021-07-02 18:38:28</time>
      </trkpt>
      <trkpt lat="29.27063" lon="-13.48403">
        <ele>25.2</ele>
        <time>2021-07-02 18:38:29</time>
      </trkpt>
      <trkpt lat="29.27067" lon="-13.48406">
        <ele>25.2</ele>
        <time>2021-07-02 18:38:30</time>
      </trkpt>
      <trkpt lat="29.27071" lon="-13.48408">
        <ele>25.2</ele>
        <time>2021-07-02 18:38:31</time>
      </trkpt>
      <trkpt lat="29.27074" lon="-13.48411">
        <ele>25.2</ele>
        <time>2021-07-02 18:38:32</time>
      </trkpt>
      <trkpt lat="29.27078" lon="-13.48413">
        <ele>25.2</ele>
        <time>2021-07-02 18:38:33</time>
      </trkpt>
      <trkpt lat="29.27082" lon="-13.48416">
        <ele>24.8</ele>
        <time>2021-07-02 18:38:34</time>
      </trkpt>
      <trkpt lat="29.27085" lon="-13.48419">
        <ele>24.8</ele>
        <time>2021-07-02 18:38:35</time>
      </trkpt>
      <trkpt lat="29.27089" lon="-13.48422">
        <ele>24.6</ele>
        <time>2021-07-02 18:38:36</time>
      </trkpt>
      <trkpt lat="29.27092" lon="-13.48425">
        <ele>24.6</ele>
        <time>2021-07-02 18:38:37</time>
      </trkpt>
      <trkpt lat="29.27095" lon="-13.48428">
        <ele>24.4</ele>
        <time>2021-07-02 18:38:38</time>
      </trkpt>
      <trkpt lat="29.27098" lon="-13.48432">
        <ele>24.4</ele>
        <time>2021-07-02 18:38:39</time>
      </trkpt>
      <trkpt lat="29.27102" lon="-13.48436">
        <ele>24.2</ele>
        <time>2021-07-02 18:38:40</time>
      </trkpt>
      <trkpt lat="29.27105" lon="-13.48439">
        <ele>24.2</ele>
        <time>2021-07-02 18:38:41</time>
      </trkpt>
      <trkpt lat="29.27108" lon="-13.48442">
        <ele>24</ele>
        <time>2021-07-02 18:38:42</time>
      </trkpt>
      <trkpt lat="29.27111" lon="-13.48446">
        <ele>24</ele>
        <time>2021-07-02 18:38:43</time>
      </trkpt>
      <trkpt lat="29.27115" lon="-13.48449">
        <ele>24</ele>
        <time>2021-07-02 18:38:44</time>
      </trkpt>
      <trkpt lat="29.27117" lon="-13.48452">
        <ele>24</ele>
        <time>2021-07-02 18:38:45</time>
      </trkpt>
      <trkpt lat="29.27121" lon="-13.48455">
        <ele>24</ele>
        <time>2021-07-02 18:38:46</time>
      </trkpt>
      <trkpt lat="29.27124" lon="-13.48458">
        <ele>24</ele>
        <time>2021-07-02 18:38:47</time>
      </trkpt>
      <trkpt lat="29.27128" lon="-13.48461">
        <ele>23.8</ele>
        <time>2021-07-02 18:38:48</time>
      </trkpt>
      <trkpt lat="29.27131" lon="-13.48463">
        <ele>23.8</ele>
        <time>2021-07-02 18:38:49</time>
      </trkpt>
      <trkpt lat="29.27135" lon="-13.48465">
        <ele>23.8</ele>
        <time>2021-07-02 18:38:50</time>
      </trkpt>
      <trkpt lat="29.27139" lon="-13.48466">
        <ele>23.8</ele>
        <time>2021-07-02 18:38:51</time>
      </trkpt>
      <trkpt lat="29.27143" lon="-13.48468">
        <ele>23.8</ele>
        <time>2021-07-02 18:38:52</time>
      </trkpt>
      <trkpt lat="29.27145" lon="-13.48469">
        <ele>23.8</ele>
        <time>2021-07-02 18:38:53</time>
      </trkpt>
      <trkpt lat="29.27148" lon="-13.4847">
        <ele>23.4</ele>
        <time>2021-07-02 18:38:54</time>
      </trkpt>
      <trkpt lat="29.27151" lon="-13.4847">
        <ele>23.4</ele>
        <time>2021-07-02 18:38:55</time>
      </trkpt>
      <trkpt lat="29.27154" lon="-13.48472">
        <ele>23.2</ele>
        <time>2021-07-02 18:38:56</time>
      </trkpt>
      <trkpt lat="29.27158" lon="-13.48473">
        <ele>23.2</ele>
        <time>2021-07-02 18:38:57</time>
      </trkpt>
      <trkpt lat="29.27162" lon="-13.48474">
        <ele>23.2</ele>
        <time>2021-07-02 18:38:58</time>
      </trkpt>
      <trkpt lat="29.27166" lon="-13.48475">
        <ele>22.8</ele>
        <time>2021-07-02 18:38:59</time>
      </trkpt>
      <trkpt lat="29.27166" lon="-13.48475">
        <ele>22.8</ele>
        <time>2021-07-02 18:39:00</time>
      </trkpt>
      <trkpt lat="29.27176" lon="-13.4848">
        <ele>22.6</ele>
        <time>2021-07-02 18:39:01</time>
      </trkpt>
      <trkpt lat="29.27179" lon="-13.48482">
        <ele>22.6</ele>
        <time>2021-07-02 18:39:02</time>
      </trkpt>
      <trkpt lat="29.27182" lon="-13.48484">
        <ele>22.4</ele>
        <time>2021-07-02 18:39:03</time>
      </trkpt>
      <trkpt lat="29.27185" lon="-13.48486">
        <ele>22.4</ele>
        <time>2021-07-02 18:39:04</time>
      </trkpt>
      <trkpt lat="29.27189" lon="-13.48488">
        <ele>22</ele>
        <time>2021-07-02 18:39:05</time>
      </trkpt>
      <trkpt lat="29.27192" lon="-13.4849">
        <ele>22</ele>
        <time>2021-07-02 18:39:06</time>
      </trkpt>
      <trkpt lat="29.27196" lon="-13.48492">
        <ele>22</ele>
        <time>2021-07-02 18:39:07</time>
      </trkpt>
      <trkpt lat="29.27199" lon="-13.48494">
        <ele>21.8</ele>
        <time>2021-07-02 18:39:08</time>
      </trkpt>
      <trkpt lat="29.27203" lon="-13.48496">
        <ele>21.8</ele>
        <time>2021-07-02 18:39:09</time>
      </trkpt>
      <trkpt lat="29.27206" lon="-13.48498">
        <ele>21.8</ele>
        <time>2021-07-02 18:39:10</time>
      </trkpt>
      <trkpt lat="29.2721" lon="-13.485">
        <ele>21.6</ele>
        <time>2021-07-02 18:39:11</time>
      </trkpt>
      <trkpt lat="29.27213" lon="-13.48502">
        <ele>21.6</ele>
        <time>2021-07-02 18:39:12</time>
      </trkpt>
      <trkpt lat="29.27216" lon="-13.48504">
        <ele>21.6</ele>
        <time>2021-07-02 18:39:13</time>
      </trkpt>
      <trkpt lat="29.27219" lon="-13.48507">
        <ele>21.4</ele>
        <time>2021-07-02 18:39:14</time>
      </trkpt>
      <trkpt lat="29.27222" lon="-13.48509">
        <ele>21.4</ele>
        <time>2021-07-02 18:39:15</time>
      </trkpt>
      <trkpt lat="29.27225" lon="-13.48512">
        <ele>21.4</ele>
        <time>2021-07-02 18:39:16</time>
      </trkpt>
      <trkpt lat="29.27228" lon="-13.48514">
        <ele>21.4</ele>
        <time>2021-07-02 18:39:17</time>
      </trkpt>
      <trkpt lat="29.27231" lon="-13.48516">
        <ele>21.4</ele>
        <time>2021-07-02 18:39:18</time>
      </trkpt>
      <trkpt lat="29.27234" lon="-13.48518">
        <ele>21.4</ele>
        <time>2021-07-02 18:39:19</time>
      </trkpt>
      <trkpt lat="29.27237" lon="-13.4852">
        <ele>21.4</ele>
        <time>2021-07-02 18:39:20</time>
      </trkpt>
      <trkpt lat="29.27241" lon="-13.48523">
        <ele>21</ele>
        <time>2021-07-02 18:39:21</time>
      </trkpt>
      <trkpt lat="29.27244" lon="-13.48525">
        <ele>21</ele>
        <time>2021-07-02 18:39:22</time>
      </trkpt>
      <trkpt lat="29.27247" lon="-13.48527">
        <ele>20.8</ele>
        <time>2021-07-02 18:39:23</time>
      </trkpt>
      <trkpt lat="29.2725" lon="-13.48529">
        <ele>20.8</ele>
        <time>2021-07-02 18:39:24</time>
      </trkpt>
      <trkpt lat="29.27254" lon="-13.48531">
        <ele>20.6</ele>
        <time>2021-07-02 18:39:25</time>
      </trkpt>
      <trkpt lat="29.27257" lon="-13.48533">
        <ele>20.6</ele>
        <time>2021-07-02 18:39:26</time>
      </trkpt>
      <trkpt lat="29.2726" lon="-13.48535">
        <ele>20.6</ele>
        <time>2021-07-02 18:39:27</time>
      </trkpt>
      <trkpt lat="29.27264" lon="-13.48537">
        <ele>20.6</ele>
        <time>2021-07-02 18:39:28</time>
      </trkpt>
      <trkpt lat="29.27267" lon="-13.48539">
        <ele>20.6</ele>
        <time>2021-07-02 18:39:29</time>
      </trkpt>
      <trkpt lat="29.2727" lon="-13.48541">
        <ele>20.6</ele>
        <time>2021-07-02 18:39:30</time>
      </trkpt>
      <trkpt lat="29.27273" lon="-13.48542">
        <ele>20.8</ele>
        <time>2021-07-02 18:39:31</time>
      </trkpt>
      <trkpt lat="29.27277" lon="-13.48543">
        <ele>20.8</ele>
        <time>2021-07-02 18:39:32</time>
      </trkpt>
      <trkpt lat="29.2728" lon="-13.48545">
        <ele>20.8</ele>
        <time>2021-07-02 18:39:33</time>
      </trkpt>
      <trkpt lat="29.27284" lon="-13.48547">
        <ele>20.8</ele>
        <time>2021-07-02 18:39:34</time>
      </trkpt>
      <trkpt lat="29.27287" lon="-13.48549">
        <ele>20.8</ele>
        <time>2021-07-02 18:39:35</time>
      </trkpt>
      <trkpt lat="29.27291" lon="-13.48551">
        <ele>20.8</ele>
        <time>2021-07-02 18:39:36</time>
      </trkpt>
      <trkpt lat="29.27294" lon="-13.48553">
        <ele>20.8</ele>
        <time>2021-07-02 18:39:37</time>
      </trkpt>
      <trkpt lat="29.27297" lon="-13.48556">
        <ele>20.8</ele>
        <time>2021-07-02 18:39:38</time>
      </trkpt>
      <trkpt lat="29.273" lon="-13.48559">
        <ele>20.8</ele>
        <time>2021-07-02 18:39:39</time>
      </trkpt>
      <trkpt lat="29.27303" lon="-13.48562">
        <ele>20.8</ele>
        <time>2021-07-02 18:39:40</time>
      </trkpt>
      <trkpt lat="29.27306" lon="-13.48565">
        <ele>20.8</ele>
        <time>2021-07-02 18:39:41</time>
      </trkpt>
      <trkpt lat="29.27309" lon="-13.48568">
        <ele>20.6</ele>
        <time>2021-07-02 18:39:42</time>
      </trkpt>
      <trkpt lat="29.27312" lon="-13.4857">
        <ele>20.6</ele>
        <time>2021-07-02 18:39:43</time>
      </trkpt>
      <trkpt lat="29.27315" lon="-13.48573">
        <ele>20.2</ele>
        <time>2021-07-02 18:39:44</time>
      </trkpt>
      <trkpt lat="29.27319" lon="-13.48575">
        <ele>20</ele>
        <time>2021-07-02 18:39:45</time>
      </trkpt>
      <trkpt lat="29.27322" lon="-13.48578">
        <ele>20</ele>
        <time>2021-07-02 18:39:46</time>
      </trkpt>
      <trkpt lat="29.27326" lon="-13.48581">
        <ele>19.8</ele>
        <time>2021-07-02 18:39:47</time>
      </trkpt>
      <trkpt lat="29.27329" lon="-13.48583">
        <ele>19.8</ele>
        <time>2021-07-02 18:39:48</time>
      </trkpt>
      <trkpt lat="29.27332" lon="-13.48585">
        <ele>19.6</ele>
        <time>2021-07-02 18:39:49</time>
      </trkpt>
      <trkpt lat="29.27335" lon="-13.48588">
        <ele>19.2</ele>
        <time>2021-07-02 18:39:50</time>
      </trkpt>
      <trkpt lat="29.27338" lon="-13.48591">
        <ele>19.2</ele>
        <time>2021-07-02 18:39:51</time>
      </trkpt>
      <trkpt lat="29.27341" lon="-13.48594">
        <ele>19</ele>
        <time>2021-07-02 18:39:52</time>
      </trkpt>
      <trkpt lat="29.27344" lon="-13.48597">
        <ele>19</ele>
        <time>2021-07-02 18:39:53</time>
      </trkpt>
      <trkpt lat="29.27347" lon="-13.48599">
        <ele>18.8</ele>
        <time>2021-07-02 18:39:54</time>
      </trkpt>
      <trkpt lat="29.27351" lon="-13.48602">
        <ele>18.8</ele>
        <time>2021-07-02 18:39:55</time>
      </trkpt>
      <trkpt lat="29.27354" lon="-13.48604">
        <ele>18.8</ele>
        <time>2021-07-02 18:39:56</time>
      </trkpt>
      <trkpt lat="29.27358" lon="-13.48606">
        <ele>18.6</ele>
        <time>2021-07-02 18:39:57</time>
      </trkpt>
      <trkpt lat="29.27361" lon="-13.48608">
        <ele>18.6</ele>
        <time>2021-07-02 18:39:58</time>
      </trkpt>
      <trkpt lat="29.27364" lon="-13.48611">
        <ele>18.6</ele>
        <time>2021-07-02 18:39:59</time>
      </trkpt>
      <trkpt lat="29.27368" lon="-13.48613">
        <ele>18.4</ele>
        <time>2021-07-02 18:40:00</time>
      </trkpt>
      <trkpt lat="29.27371" lon="-13.48616">
        <ele>18.4</ele>
        <time>2021-07-02 18:40:01</time>
      </trkpt>
      <trkpt lat="29.27374" lon="-13.48619">
        <ele>18.4</ele>
        <time>2021-07-02 18:40:02</time>
      </trkpt>
      <trkpt lat="29.27377" lon="-13.48622">
        <ele>18</ele>
        <time>2021-07-02 18:40:03</time>
      </trkpt>
      <trkpt lat="29.2738" lon="-13.48625">
        <ele>18</ele>
        <time>2021-07-02 18:40:04</time>
      </trkpt>
      <trkpt lat="29.27383" lon="-13.48628">
        <ele>17.8</ele>
        <time>2021-07-02 18:40:05</time>
      </trkpt>
      <trkpt lat="29.27386" lon="-13.48632">
        <ele>17.8</ele>
        <time>2021-07-02 18:40:06</time>
      </trkpt>
      <trkpt lat="29.27389" lon="-13.48636">
        <ele>17.8</ele>
        <time>2021-07-02 18:40:07</time>
      </trkpt>
      <trkpt lat="29.27392" lon="-13.4864">
        <ele>17.8</ele>
        <time>2021-07-02 18:40:08</time>
      </trkpt>
      <trkpt lat="29.27394" lon="-13.48644">
        <ele>17.6</ele>
        <time>2021-07-02 18:40:09</time>
      </trkpt>
      <trkpt lat="29.27397" lon="-13.48647">
        <ele>17.6</ele>
        <time>2021-07-02 18:40:10</time>
      </trkpt>
      <trkpt lat="29.274" lon="-13.48651">
        <ele>17.6</ele>
        <time>2021-07-02 18:40:11</time>
      </trkpt>
      <trkpt lat="29.27402" lon="-13.48654">
        <ele>17.6</ele>
        <time>2021-07-02 18:40:12</time>
      </trkpt>
      <trkpt lat="29.27405" lon="-13.48658">
        <ele>17.6</ele>
        <time>2021-07-02 18:40:13</time>
      </trkpt>
      <trkpt lat="29.27408" lon="-13.48661">
        <ele>17.4</ele>
        <time>2021-07-02 18:40:14</time>
      </trkpt>
      <trkpt lat="29.27411" lon="-13.48664">
        <ele>17.4</ele>
        <time>2021-07-02 18:40:15</time>
      </trkpt>
      <trkpt lat="29.27415" lon="-13.48667">
        <ele>17.4</ele>
        <time>2021-07-02 18:40:16</time>
      </trkpt>
      <trkpt lat="29.27418" lon="-13.4867">
        <ele>17.4</ele>
        <time>2021-07-02 18:40:17</time>
      </trkpt>
      <trkpt lat="29.27422" lon="-13.48673">
        <ele>17</ele>
        <time>2021-07-02 18:40:18</time>
      </trkpt>
      <trkpt lat="29.27425" lon="-13.48675">
        <ele>17</ele>
        <time>2021-07-02 18:40:19</time>
      </trkpt>
      <trkpt lat="29.27429" lon="-13.48678">
        <ele>17</ele>
        <time>2021-07-02 18:40:20</time>
      </trkpt>
      <trkpt lat="29.27432" lon="-13.48681">
        <ele>16.8</ele>
        <time>2021-07-02 18:40:21</time>
      </trkpt>
      <trkpt lat="29.27436" lon="-13.48683">
        <ele>16.8</ele>
        <time>2021-07-02 18:40:22</time>
      </trkpt>
      <trkpt lat="29.27439" lon="-13.48686">
        <ele>16.8</ele>
        <time>2021-07-02 18:40:23</time>
      </trkpt>
      <trkpt lat="29.27442" lon="-13.48689">
        <ele>16.8</ele>
        <time>2021-07-02 18:40:24</time>
      </trkpt>
      <trkpt lat="29.27446" lon="-13.48692">
        <ele>16.8</ele>
        <time>2021-07-02 18:40:25</time>
      </trkpt>
      <trkpt lat="29.27449" lon="-13.48694">
        <ele>16.8</ele>
        <time>2021-07-02 18:40:26</time>
      </trkpt>
      <trkpt lat="29.27453" lon="-13.48697">
        <ele>16.8</ele>
        <time>2021-07-02 18:40:27</time>
      </trkpt>
      <trkpt lat="29.27456" lon="-13.48699">
        <ele>16.8</ele>
        <time>2021-07-02 18:40:28</time>
      </trkpt>
      <trkpt lat="29.2746" lon="-13.48701">
        <ele>16.8</ele>
        <time>2021-07-02 18:40:29</time>
      </trkpt>
      <trkpt lat="29.27463" lon="-13.48703">
        <ele>16.8</ele>
        <time>2021-07-02 18:40:30</time>
      </trkpt>
      <trkpt lat="29.27467" lon="-13.48705">
        <ele>16.6</ele>
        <time>2021-07-02 18:40:31</time>
      </trkpt>
      <trkpt lat="29.27471" lon="-13.48706">
        <ele>16.6</ele>
        <time>2021-07-02 18:40:32</time>
      </trkpt>
      <trkpt lat="29.27472" lon="-13.48707">
        <ele>16.6</ele>
        <time>2021-07-02 18:40:33</time>
      </trkpt>
      <trkpt lat="29.27472" lon="-13.48707">
        <ele>16.6</ele>
        <time>2021-07-02 18:40:34</time>
      </trkpt>
      <trkpt lat="29.27473" lon="-13.48707">
        <ele>16.4</ele>
        <time>2021-07-02 18:40:35</time>
      </trkpt>
      <trkpt lat="29.27472" lon="-13.48707">
        <ele>16.4</ele>
        <time>2021-07-02 18:40:36</time>
      </trkpt>
      <trkpt lat="29.27472" lon="-13.48707">
        <ele>16.4</ele>
        <time>2021-07-02 18:40:37</time>
      </trkpt>
      <trkpt lat="29.27472" lon="-13.48706">
        <ele>16.4</ele>
        <time>2021-07-02 18:40:38</time>
      </trkpt>
      <trkpt lat="29.27477" lon="-13.48707">
        <ele>16</ele>
        <time>2021-07-02 18:40:39</time>
      </trkpt>
      <trkpt lat="29.2748" lon="-13.48708">
        <ele>16</ele>
        <time>2021-07-02 18:41:31</time>
      </trkpt>
      <trkpt lat="29.27482" lon="-13.48709">
        <ele>16</ele>
        <time>2021-07-02 18:41:32</time>
      </trkpt>
      <trkpt lat="29.27485" lon="-13.4871">
        <ele>16</ele>
        <time>2021-07-02 18:41:33</time>
      </trkpt>
      <trkpt lat="29.27487" lon="-13.48712">
        <ele>16</ele>
        <time>2021-07-02 18:41:34</time>
      </trkpt>
      <trkpt lat="29.27489" lon="-13.48713">
        <ele>16</ele>
        <time>2021-07-02 18:41:35</time>
      </trkpt>
      <trkpt lat="29.27492" lon="-13.48714">
        <ele>16</ele>
        <time>2021-07-02 18:41:36</time>
      </trkpt>
      <trkpt lat="29.27494" lon="-13.48715">
        <ele>16</ele>
        <time>2021-07-02 18:41:37</time>
      </trkpt>
      <trkpt lat="29.27497" lon="-13.48716">
        <ele>16</ele>
        <time>2021-07-02 18:41:38</time>
      </trkpt>
      <trkpt lat="29.27499" lon="-13.48717">
        <ele>16</ele>
        <time>2021-07-02 18:41:39</time>
      </trkpt>
      <trkpt lat="29.27502" lon="-13.48718">
        <ele>16</ele>
        <time>2021-07-02 18:41:40</time>
      </trkpt>
      <trkpt lat="29.27504" lon="-13.4872">
        <ele>16</ele>
        <time>2021-07-02 18:41:41</time>
      </trkpt>
      <trkpt lat="29.27507" lon="-13.48721">
        <ele>16</ele>
        <time>2021-07-02 18:41:42</time>
      </trkpt>
      <trkpt lat="29.2751" lon="-13.48722">
        <ele>16</ele>
        <time>2021-07-02 18:41:43</time>
      </trkpt>
      <trkpt lat="29.27513" lon="-13.48723">
        <ele>16</ele>
        <time>2021-07-02 18:41:44</time>
      </trkpt>
      <trkpt lat="29.27516" lon="-13.48725">
        <ele>15.8</ele>
        <time>2021-07-02 18:41:45</time>
      </trkpt>
      <trkpt lat="29.27519" lon="-13.48726">
        <ele>15.8</ele>
        <time>2021-07-02 18:41:46</time>
      </trkpt>
      <trkpt lat="29.27523" lon="-13.48728">
        <ele>15.8</ele>
        <time>2021-07-02 18:41:47</time>
      </trkpt>
      <trkpt lat="29.27526" lon="-13.48729">
        <ele>15.6</ele>
        <time>2021-07-02 18:41:48</time>
      </trkpt>
      <trkpt lat="29.27529" lon="-13.4873">
        <ele>15.6</ele>
        <time>2021-07-02 18:41:49</time>
      </trkpt>
      <trkpt lat="29.27532" lon="-13.48731">
        <ele>15.6</ele>
        <time>2021-07-02 18:41:50</time>
      </trkpt>
      <trkpt lat="29.27535" lon="-13.48732">
        <ele>15.4</ele>
        <time>2021-07-02 18:41:51</time>
      </trkpt>
      <trkpt lat="29.27537" lon="-13.48733">
        <ele>15.4</ele>
        <time>2021-07-02 18:41:52</time>
      </trkpt>
      <trkpt lat="29.2754" lon="-13.48735">
        <ele>15</ele>
        <time>2021-07-02 18:41:53</time>
      </trkpt>
      <trkpt lat="29.27542" lon="-13.48736">
        <ele>15</ele>
        <time>2021-07-02 18:41:54</time>
      </trkpt>
      <trkpt lat="29.27545" lon="-13.48738">
        <ele>14.8</ele>
        <time>2021-07-02 18:41:55</time>
      </trkpt>
      <trkpt lat="29.27548" lon="-13.48739">
        <ele>14.8</ele>
        <time>2021-07-02 18:41:56</time>
      </trkpt>
      <trkpt lat="29.27551" lon="-13.4874">
        <ele>14.8</ele>
        <time>2021-07-02 18:41:57</time>
      </trkpt>
      <trkpt lat="29.27554" lon="-13.48741">
        <ele>14.8</ele>
        <time>2021-07-02 18:41:58</time>
      </trkpt>
      <trkpt lat="29.27557" lon="-13.48742">
        <ele>14.6</ele>
        <time>2021-07-02 18:41:59</time>
      </trkpt>
      <trkpt lat="29.2756" lon="-13.48743">
        <ele>14.6</ele>
        <time>2021-07-02 18:42:00</time>
      </trkpt>
      <trkpt lat="29.27563" lon="-13.48743">
        <ele>14.6</ele>
        <time>2021-07-02 18:42:01</time>
      </trkpt>
      <trkpt lat="29.27567" lon="-13.48744">
        <ele>14.6</ele>
        <time>2021-07-02 18:42:02</time>
      </trkpt>
      <trkpt lat="29.2757" lon="-13.48744">
        <ele>14.6</ele>
        <time>2021-07-02 18:42:03</time>
      </trkpt>
      <trkpt lat="29.27573" lon="-13.48745">
        <ele>14.6</ele>
        <time>2021-07-02 18:42:04</time>
      </trkpt>
      <trkpt lat="29.27576" lon="-13.48745">
        <ele>14.6</ele>
        <time>2021-07-02 18:42:05</time>
      </trkpt>
      <trkpt lat="29.27578" lon="-13.48745">
        <ele>14.6</ele>
        <time>2021-07-02 18:42:06</time>
      </trkpt>
      <trkpt lat="29.27579" lon="-13.48745">
        <ele>14.6</ele>
        <time>2021-07-02 18:42:07</time>
      </trkpt>
      <trkpt lat="29.27579" lon="-13.48745">
        <ele>14.6</ele>
        <time>2021-07-02 18:42:08</time>
      </trkpt>
      <trkpt lat="29.2758" lon="-13.48745">
        <ele>14.6</ele>
        <time>2021-07-02 18:42:09</time>
      </trkpt>
      <trkpt lat="29.27581" lon="-13.48745">
        <ele>14.8</ele>
        <time>2021-07-02 18:42:10</time>
      </trkpt>
      <trkpt lat="29.27583" lon="-13.48744">
        <ele>14.8</ele>
        <time>2021-07-02 18:42:11</time>
      </trkpt>
      <trkpt lat="29.27585" lon="-13.48745">
        <ele>14.8</ele>
        <time>2021-07-02 18:42:12</time>
      </trkpt>
      <trkpt lat="29.27586" lon="-13.48745">
        <ele>14.8</ele>
        <time>2021-07-02 18:42:13</time>
      </trkpt>
      <trkpt lat="29.27587" lon="-13.48745">
        <ele>14.8</ele>
        <time>2021-07-02 18:42:14</time>
      </trkpt>
      <trkpt lat="29.27589" lon="-13.48745">
        <ele>14.8</ele>
        <time>2021-07-02 18:42:15</time>
      </trkpt>
      <trkpt lat="29.27591" lon="-13.48746">
        <ele>14.8</ele>
        <time>2021-07-02 18:42:16</time>
      </trkpt>
      <trkpt lat="29.27593" lon="-13.48746">
        <ele>14.6</ele>
        <time>2021-07-02 18:42:17</time>
      </trkpt>
      <trkpt lat="29.27596" lon="-13.48747">
        <ele>14.6</ele>
        <time>2021-07-02 18:42:18</time>
      </trkpt>
      <trkpt lat="29.27599" lon="-13.48748">
        <ele>14.4</ele>
        <time>2021-07-02 18:42:19</time>
      </trkpt>
      <trkpt lat="29.27603" lon="-13.48749">
        <ele>14.4</ele>
        <time>2021-07-02 18:42:20</time>
      </trkpt>
      <trkpt lat="29.27607" lon="-13.48751">
        <ele>14.2</ele>
        <time>2021-07-02 18:42:21</time>
      </trkpt>
      <trkpt lat="29.2761" lon="-13.48753">
        <ele>14.2</ele>
        <time>2021-07-02 18:42:22</time>
      </trkpt>
      <trkpt lat="29.27613" lon="-13.48755">
        <ele>14</ele>
        <time>2021-07-02 18:42:23</time>
      </trkpt>
      <trkpt lat="29.27617" lon="-13.48756">
        <ele>14</ele>
        <time>2021-07-02 18:42:24</time>
      </trkpt>
      <trkpt lat="29.2762" lon="-13.48758">
        <ele>14</ele>
        <time>2021-07-02 18:42:25</time>
      </trkpt>
      <trkpt lat="29.27623" lon="-13.48759">
        <ele>13.8</ele>
        <time>2021-07-02 18:42:26</time>
      </trkpt>
      <trkpt lat="29.27627" lon="-13.48761">
        <ele>13.8</ele>
        <time>2021-07-02 18:42:27</time>
      </trkpt>
      <trkpt lat="29.2763" lon="-13.48762">
        <ele>13.8</ele>
        <time>2021-07-02 18:42:28</time>
      </trkpt>
      <trkpt lat="29.27634" lon="-13.48763">
        <ele>13.8</ele>
        <time>2021-07-02 18:42:29</time>
      </trkpt>
      <trkpt lat="29.27637" lon="-13.48764">
        <ele>13.8</ele>
        <time>2021-07-02 18:42:30</time>
      </trkpt>
      <trkpt lat="29.2764" lon="-13.48765">
        <ele>13.8</ele>
        <time>2021-07-02 18:42:31</time>
      </trkpt>
      <trkpt lat="29.27643" lon="-13.48766">
        <ele>13.8</ele>
        <time>2021-07-02 18:42:32</time>
      </trkpt>
      <trkpt lat="29.27645" lon="-13.48766">
        <ele>13.8</ele>
        <time>2021-07-02 18:42:33</time>
      </trkpt>
      <trkpt lat="29.27648" lon="-13.48767">
        <ele>13.8</ele>
        <time>2021-07-02 18:42:34</time>
      </trkpt>
      <trkpt lat="29.27651" lon="-13.48767">
        <ele>13.8</ele>
        <time>2021-07-02 18:42:35</time>
      </trkpt>
      <trkpt lat="29.27654" lon="-13.48768">
        <ele>13.8</ele>
        <time>2021-07-02 18:42:36</time>
      </trkpt>
      <trkpt lat="29.27655" lon="-13.48768">
        <ele>13.8</ele>
        <time>2021-07-02 18:42:37</time>
      </trkpt>
      <trkpt lat="29.27656" lon="-13.48768">
        <ele>13.8</ele>
        <time>2021-07-02 18:42:38</time>
      </trkpt>
      <trkpt lat="29.27656" lon="-13.48768">
        <ele>13.8</ele>
        <time>2021-07-02 18:42:39</time>
      </trkpt>
      <trkpt lat="29.27655" lon="-13.48768">
        <ele>13.8</ele>
        <time>2021-07-02 18:42:40</time>
      </trkpt>
      <trkpt lat="29.27655" lon="-13.48769">
        <ele>13.8</ele>
        <time>2021-07-02 18:42:41</time>
      </trkpt>
      <trkpt lat="29.27655" lon="-13.48769">
        <ele>13.8</ele>
        <time>2021-07-02 18:42:42</time>
      </trkpt>
      <trkpt lat="29.27658" lon="-13.48769">
        <ele>13.4</ele>
        <time>2021-07-02 18:42:43</time>
      </trkpt>
      <trkpt lat="29.2766" lon="-13.48769">
        <ele>13.4</ele>
        <time>2021-07-02 18:43:00</time>
      </trkpt>
      <trkpt lat="29.27662" lon="-13.4877">
        <ele>13.4</ele>
        <time>2021-07-02 18:43:01</time>
      </trkpt>
      <trkpt lat="29.27664" lon="-13.4877">
        <ele>13.4</ele>
        <time>2021-07-02 18:43:02</time>
      </trkpt>
      <trkpt lat="29.27667" lon="-13.4877">
        <ele>13.4</ele>
        <time>2021-07-02 18:43:03</time>
      </trkpt>
      <trkpt lat="29.2767" lon="-13.48771">
        <ele>13.4</ele>
        <time>2021-07-02 18:43:04</time>
      </trkpt>
      <trkpt lat="29.27673" lon="-13.48772">
        <ele>13.4</ele>
        <time>2021-07-02 18:43:05</time>
      </trkpt>
      <trkpt lat="29.27676" lon="-13.48773">
        <ele>13.4</ele>
        <time>2021-07-02 18:43:06</time>
      </trkpt>
      <trkpt lat="29.27679" lon="-13.48774">
        <ele>13.2</ele>
        <time>2021-07-02 18:43:07</time>
      </trkpt>
      <trkpt lat="29.27682" lon="-13.48775">
        <ele>13.2</ele>
        <time>2021-07-02 18:43:08</time>
      </trkpt>
      <trkpt lat="29.27686" lon="-13.48776">
        <ele>13.2</ele>
        <time>2021-07-02 18:43:09</time>
      </trkpt>
      <trkpt lat="29.27689" lon="-13.48777">
        <ele>13</ele>
        <time>2021-07-02 18:43:10</time>
      </trkpt>
      <trkpt lat="29.27693" lon="-13.48778">
        <ele>13</ele>
        <time>2021-07-02 18:43:11</time>
      </trkpt>
      <trkpt lat="29.27696" lon="-13.4878">
        <ele>13</ele>
        <time>2021-07-02 18:43:12</time>
      </trkpt>
      <trkpt lat="29.277" lon="-13.48781">
        <ele>13</ele>
        <time>2021-07-02 18:43:13</time>
      </trkpt>
      <trkpt lat="29.27703" lon="-13.48783">
        <ele>12.8</ele>
        <time>2021-07-02 18:43:14</time>
      </trkpt>
      <trkpt lat="29.27707" lon="-13.48784">
        <ele>12.8</ele>
        <time>2021-07-02 18:43:15</time>
      </trkpt>
      <trkpt lat="29.27709" lon="-13.48784">
        <ele>12.4</ele>
        <time>2021-07-02 18:43:16</time>
      </trkpt>
      <trkpt lat="29.27712" lon="-13.48785">
        <ele>12.4</ele>
        <time>2021-07-02 18:43:17</time>
      </trkpt>
      <trkpt lat="29.27715" lon="-13.48786">
        <ele>12.4</ele>
        <time>2021-07-02 18:43:18</time>
      </trkpt>
      <trkpt lat="29.27718" lon="-13.48787">
        <ele>12.4</ele>
        <time>2021-07-02 18:43:19</time>
      </trkpt>
      <trkpt lat="29.27721" lon="-13.48788">
        <ele>12.2</ele>
        <time>2021-07-02 18:43:20</time>
      </trkpt>
      <trkpt lat="29.27724" lon="-13.48788">
        <ele>12.2</ele>
        <time>2021-07-02 18:43:21</time>
      </trkpt>
      <trkpt lat="29.27727" lon="-13.48789">
        <ele>12.2</ele>
        <time>2021-07-02 18:43:22</time>
      </trkpt>
      <trkpt lat="29.2773" lon="-13.48788">
        <ele>12.2</ele>
        <time>2021-07-02 18:43:23</time>
      </trkpt>
      <trkpt lat="29.27734" lon="-13.48788">
        <ele>12.2</ele>
        <time>2021-07-02 18:43:24</time>
      </trkpt>
      <trkpt lat="29.27738" lon="-13.48787">
        <ele>12.2</ele>
        <time>2021-07-02 18:43:25</time>
      </trkpt>
      <trkpt lat="29.27742" lon="-13.48787">
        <ele>12.2</ele>
        <time>2021-07-02 18:43:26</time>
      </trkpt>
      <trkpt lat="29.27746" lon="-13.48787">
        <ele>12.2</ele>
        <time>2021-07-02 18:43:27</time>
      </trkpt>
      <trkpt lat="29.2775" lon="-13.48787">
        <ele>12.2</ele>
        <time>2021-07-02 18:43:28</time>
      </trkpt>
      <trkpt lat="29.27754" lon="-13.48787">
        <ele>12.2</ele>
        <time>2021-07-02 18:43:29</time>
      </trkpt>
      <trkpt lat="29.27758" lon="-13.48787">
        <ele>12</ele>
        <time>2021-07-02 18:43:30</time>
      </trkpt>
      <trkpt lat="29.27762" lon="-13.48787">
        <ele>12</ele>
        <time>2021-07-02 18:43:31</time>
      </trkpt>
      <trkpt lat="29.27766" lon="-13.48787">
        <ele>12</ele>
        <time>2021-07-02 18:43:32</time>
      </trkpt>
      <trkpt lat="29.27769" lon="-13.48787">
        <ele>12</ele>
        <time>2021-07-02 18:43:33</time>
      </trkpt>
      <trkpt lat="29.27773" lon="-13.48787">
        <ele>11.8</ele>
        <time>2021-07-02 18:43:34</time>
      </trkpt>
      <trkpt lat="29.27776" lon="-13.48787">
        <ele>11.8</ele>
        <time>2021-07-02 18:43:35</time>
      </trkpt>
      <trkpt lat="29.2778" lon="-13.48787">
        <ele>11.8</ele>
        <time>2021-07-02 18:43:36</time>
      </trkpt>
      <trkpt lat="29.27784" lon="-13.48788">
        <ele>11.8</ele>
        <time>2021-07-02 18:43:37</time>
      </trkpt>
      <trkpt lat="29.27788" lon="-13.48788">
        <ele>11.8</ele>
        <time>2021-07-02 18:43:38</time>
      </trkpt>
      <trkpt lat="29.27792" lon="-13.48789">
        <ele>11.8</ele>
        <time>2021-07-02 18:43:39</time>
      </trkpt>
      <trkpt lat="29.27795" lon="-13.48791">
        <ele>11.8</ele>
        <time>2021-07-02 18:43:40</time>
      </trkpt>
      <trkpt lat="29.27798" lon="-13.48792">
        <ele>11.8</ele>
        <time>2021-07-02 18:43:41</time>
      </trkpt>
      <trkpt lat="29.27801" lon="-13.48793">
        <ele>11.8</ele>
        <time>2021-07-02 18:43:42</time>
      </trkpt>
      <trkpt lat="29.27803" lon="-13.48795">
        <ele>11.8</ele>
        <time>2021-07-02 18:43:43</time>
      </trkpt>
      <trkpt lat="29.27806" lon="-13.48796">
        <ele>11.8</ele>
        <time>2021-07-02 18:43:44</time>
      </trkpt>
      <trkpt lat="29.2781" lon="-13.48798">
        <ele>11.8</ele>
        <time>2021-07-02 18:43:45</time>
      </trkpt>
      <trkpt lat="29.27814" lon="-13.48799">
        <ele>11.6</ele>
        <time>2021-07-02 18:43:46</time>
      </trkpt>
      <trkpt lat="29.27818" lon="-13.48801">
        <ele>11.6</ele>
        <time>2021-07-02 18:43:47</time>
      </trkpt>
      <trkpt lat="29.27821" lon="-13.48802">
        <ele>11.6</ele>
        <time>2021-07-02 18:43:48</time>
      </trkpt>
      <trkpt lat="29.27825" lon="-13.48804">
        <ele>11.6</ele>
        <time>2021-07-02 18:43:49</time>
      </trkpt>
      <trkpt lat="29.27827" lon="-13.48805">
        <ele>11.6</ele>
        <time>2021-07-02 18:43:50</time>
      </trkpt>
      <trkpt lat="29.2783" lon="-13.48808">
        <ele>11.6</ele>
        <time>2021-07-02 18:43:51</time>
      </trkpt>
      <trkpt lat="29.27833" lon="-13.4881">
        <ele>11.6</ele>
        <time>2021-07-02 18:43:52</time>
      </trkpt>
      <trkpt lat="29.27835" lon="-13.48812">
        <ele>11.4</ele>
        <time>2021-07-02 18:43:53</time>
      </trkpt>
      <trkpt lat="29.27838" lon="-13.48815">
        <ele>11.4</ele>
        <time>2021-07-02 18:43:54</time>
      </trkpt>
      <trkpt lat="29.27839" lon="-13.48818">
        <ele>11.4</ele>
        <time>2021-07-02 18:43:55</time>
      </trkpt>
      <trkpt lat="29.27841" lon="-13.48821">
        <ele>11.4</ele>
        <time>2021-07-02 18:43:56</time>
      </trkpt>
      <trkpt lat="29.27843" lon="-13.48824">
        <ele>11.4</ele>
        <time>2021-07-02 18:43:57</time>
      </trkpt>
      <trkpt lat="29.27844" lon="-13.48827">
        <ele>11.4</ele>
        <time>2021-07-02 18:43:58</time>
      </trkpt>
      <trkpt lat="29.27845" lon="-13.4883">
        <ele>11.4</ele>
        <time>2021-07-02 18:43:59</time>
      </trkpt>
      <trkpt lat="29.27846" lon="-13.48832">
        <ele>11.4</ele>
        <time>2021-07-02 18:44:00</time>
      </trkpt>
      <trkpt lat="29.27847" lon="-13.48834">
        <ele>11.4</ele>
        <time>2021-07-02 18:44:01</time>
      </trkpt>
      <trkpt lat="29.27848" lon="-13.48836">
        <ele>11.6</ele>
        <time>2021-07-02 18:44:02</time>
      </trkpt>
      <trkpt lat="29.27848" lon="-13.48838">
        <ele>11.6</ele>
        <time>2021-07-02 18:44:03</time>
      </trkpt>
      <trkpt lat="29.2785" lon="-13.48841">
        <ele>11.6</ele>
        <time>2021-07-02 18:44:04</time>
      </trkpt>
      <trkpt lat="29.27851" lon="-13.48844">
        <ele>11.6</ele>
        <time>2021-07-02 18:44:05</time>
      </trkpt>
      <trkpt lat="29.27852" lon="-13.48847">
        <ele>11.6</ele>
        <time>2021-07-02 18:44:06</time>
      </trkpt>
      <trkpt lat="29.27853" lon="-13.4885">
        <ele>11.6</ele>
        <time>2021-07-02 18:44:07</time>
      </trkpt>
      <trkpt lat="29.27854" lon="-13.48853">
        <ele>11.6</ele>
        <time>2021-07-02 18:44:08</time>
      </trkpt>
      <trkpt lat="29.27855" lon="-13.48856">
        <ele>11.6</ele>
        <time>2021-07-02 18:44:09</time>
      </trkpt>
      <trkpt lat="29.27855" lon="-13.48858">
        <ele>11.6</ele>
        <time>2021-07-02 18:44:10</time>
      </trkpt>
      <trkpt lat="29.27855" lon="-13.4886">
        <ele>11.6</ele>
        <time>2021-07-02 18:44:11</time>
      </trkpt>
      <trkpt lat="29.27855" lon="-13.48861">
        <ele>11.6</ele>
        <time>2021-07-02 18:44:12</time>
      </trkpt>
      <trkpt lat="29.27855" lon="-13.48861">
        <ele>11.6</ele>
        <time>2021-07-02 18:44:13</time>
      </trkpt>
      <trkpt lat="29.27855" lon="-13.48861">
        <ele>11.6</ele>
        <time>2021-07-02 18:44:14</time>
      </trkpt>
      <trkpt lat="29.27855" lon="-13.48861">
        <ele>11.6</ele>
        <time>2021-07-02 18:44:15</time>
      </trkpt>
      <trkpt lat="29.27854" lon="-13.48861">
        <ele>11.6</ele>
        <time>2021-07-02 18:44:16</time>
      </trkpt>
      <trkpt lat="29.27855" lon="-13.48866">
        <ele>11.6</ele>
        <time>2021-07-02 18:44:17</time>
      </trkpt>
      <trkpt lat="29.27855" lon="-13.48869">
        <ele>11.6</ele>
        <time>2021-07-02 18:44:22</time>
      </trkpt>
      <trkpt lat="29.27855" lon="-13.48873">
        <ele>11.6</ele>
        <time>2021-07-02 18:44:23</time>
      </trkpt>
      <trkpt lat="29.27854" lon="-13.48876">
        <ele>11.6</ele>
        <time>2021-07-02 18:44:24</time>
      </trkpt>
      <trkpt lat="29.27853" lon="-13.4888">
        <ele>11.6</ele>
        <time>2021-07-02 18:44:25</time>
      </trkpt>
      <trkpt lat="29.27851" lon="-13.48884">
        <ele>11.2</ele>
        <time>2021-07-02 18:44:26</time>
      </trkpt>
      <trkpt lat="29.2785" lon="-13.48887">
        <ele>11.2</ele>
        <time>2021-07-02 18:44:27</time>
      </trkpt>
      <trkpt lat="29.27848" lon="-13.4889">
        <ele>11.2</ele>
        <time>2021-07-02 18:44:28</time>
      </trkpt>
      <trkpt lat="29.27847" lon="-13.48892">
        <ele>11.2</ele>
        <time>2021-07-02 18:44:29</time>
      </trkpt>
      <trkpt lat="29.27846" lon="-13.48894">
        <ele>11.2</ele>
        <time>2021-07-02 18:44:30</time>
      </trkpt>
      <trkpt lat="29.27845" lon="-13.48894">
        <ele>11.2</ele>
        <time>2021-07-02 18:44:31</time>
      </trkpt>
      <trkpt lat="29.27844" lon="-13.48893">
        <ele>11.2</ele>
        <time>2021-07-02 18:44:32</time>
      </trkpt>
      <trkpt lat="29.27844" lon="-13.48892">
        <ele>11</ele>
        <time>2021-07-02 18:44:33</time>
      </trkpt>
      <trkpt lat="29.27846" lon="-13.4889">
        <ele>11</ele>
        <time>2021-07-02 18:44:34</time>
      </trkpt>
      <trkpt lat="29.27848" lon="-13.48887">
        <ele>10.6</ele>
        <time>2021-07-02 18:44:35</time>
      </trkpt>
      <trkpt lat="29.2785" lon="-13.48883">
        <ele>10.6</ele>
        <time>2021-07-02 18:44:36</time>
      </trkpt>
      <trkpt lat="29.27851" lon="-13.48878">
        <ele>10.4</ele>
        <time>2021-07-02 18:44:37</time>
      </trkpt>
      <trkpt lat="29.27852" lon="-13.48872">
        <ele>10.4</ele>
        <time>2021-07-02 18:44:38</time>
      </trkpt>
      <trkpt lat="29.27853" lon="-13.48867">
        <ele>10.4</ele>
        <time>2021-07-02 18:44:39</time>
      </trkpt>
      <trkpt lat="29.27854" lon="-13.48861">
        <ele>10.4</ele>
        <time>2021-07-02 18:44:40</time>
      </trkpt>
      <trkpt lat="29.27854" lon="-13.48856">
        <ele>10.4</ele>
        <time>2021-07-02 18:44:41</time>
      </trkpt>
      <trkpt lat="29.27853" lon="-13.48852">
        <ele>10.4</ele>
        <time>2021-07-02 18:44:42</time>
      </trkpt>
      <trkpt lat="29.27852" lon="-13.48849">
        <ele>10.4</ele>
        <time>2021-07-02 18:44:43</time>
      </trkpt>
      <trkpt lat="29.27851" lon="-13.48847">
        <ele>10.6</ele>
        <time>2021-07-02 18:44:44</time>
      </trkpt>
      <trkpt lat="29.2785" lon="-13.48846">
        <ele>10.6</ele>
        <time>2021-07-02 18:44:45</time>
      </trkpt>
      <trkpt lat="29.27848" lon="-13.48845">
        <ele>11</ele>
        <time>2021-07-02 18:44:46</time>
      </trkpt>
      <trkpt lat="29.27849" lon="-13.48844">
        <ele>11</ele>
        <time>2021-07-02 18:44:47</time>
      </trkpt>
      <trkpt lat="29.2785" lon="-13.48844">
        <ele>11</ele>
        <time>2021-07-02 18:44:48</time>
      </trkpt>
      <trkpt lat="29.27851" lon="-13.48845">
        <ele>11</ele>
        <time>2021-07-02 18:44:49</time>
      </trkpt>
      <trkpt lat="29.27851" lon="-13.48846">
        <ele>11</ele>
        <time>2021-07-02 18:44:50</time>
      </trkpt>
      <trkpt lat="29.27852" lon="-13.48849">
        <ele>11</ele>
        <time>2021-07-02 18:44:51</time>
      </trkpt>
      <trkpt lat="29.27853" lon="-13.48851">
        <ele>11.2</ele>
        <time>2021-07-02 18:44:52</time>
      </trkpt>
      <trkpt lat="29.27854" lon="-13.48854">
        <ele>11.2</ele>
        <time>2021-07-02 18:44:53</time>
      </trkpt>
      <trkpt lat="29.27854" lon="-13.48857">
        <ele>11.2</ele>
        <time>2021-07-02 18:44:54</time>
      </trkpt>
      <trkpt lat="29.27855" lon="-13.48861">
        <ele>11.2</ele>
        <time>2021-07-02 18:44:55</time>
      </trkpt>
      <trkpt lat="29.27855" lon="-13.48865">
        <ele>11.2</ele>
        <time>2021-07-02 18:44:56</time>
      </trkpt>
      <trkpt lat="29.27855" lon="-13.48869">
        <ele>11.2</ele>
        <time>2021-07-02 18:44:57</time>
      </trkpt>
      <trkpt lat="29.27855" lon="-13.48873">
        <ele>11.2</ele>
        <time>2021-07-02 18:44:58</time>
      </trkpt>
      <trkpt lat="29.27854" lon="-13.48877">
        <ele>11.2</ele>
        <time>2021-07-02 18:44:59</time>
      </trkpt>
      <trkpt lat="29.27853" lon="-13.48881">
        <ele>11.2</ele>
        <time>2021-07-02 18:45:00</time>
      </trkpt>
      <trkpt lat="29.27851" lon="-13.48885">
        <ele>11.2</ele>
        <time>2021-07-02 18:45:01</time>
      </trkpt>
      <trkpt lat="29.27849" lon="-13.48889">
        <ele>11.2</ele>
        <time>2021-07-02 18:45:02</time>
      </trkpt>
      <trkpt lat="29.27847" lon="-13.48893">
        <ele>11.2</ele>
        <time>2021-07-02 18:45:03</time>
      </trkpt>
      <trkpt lat="29.27845" lon="-13.48897">
        <ele>11.2</ele>
        <time>2021-07-02 18:45:04</time>
      </trkpt>
      <trkpt lat="29.27843" lon="-13.48901">
        <ele>11.2</ele>
        <time>2021-07-02 18:45:05</time>
      </trkpt>
      <trkpt lat="29.27842" lon="-13.48905">
        <ele>11.2</ele>
        <time>2021-07-02 18:45:06</time>
      </trkpt>
      <trkpt lat="29.27841" lon="-13.4891">
        <ele>11.2</ele>
        <time>2021-07-02 18:45:07</time>
      </trkpt>
      <trkpt lat="29.2784" lon="-13.48915">
        <ele>11.2</ele>
        <time>2021-07-02 18:45:08</time>
      </trkpt>
      <trkpt lat="29.2784" lon="-13.4892">
        <ele>11</ele>
        <time>2021-07-02 18:45:09</time>
      </trkpt>
      <trkpt lat="29.27839" lon="-13.48925">
        <ele>11</ele>
        <time>2021-07-02 18:45:10</time>
      </trkpt>
      <trkpt lat="29.27838" lon="-13.4893">
        <ele>11</ele>
        <time>2021-07-02 18:45:11</time>
      </trkpt>
      <trkpt lat="29.27838" lon="-13.48934">
        <ele>11</ele>
        <time>2021-07-02 18:45:12</time>
      </trkpt>
      <trkpt lat="29.27837" lon="-13.48939">
        <ele>11</ele>
        <time>2021-07-02 18:45:13</time>
      </trkpt>
      <trkpt lat="29.27837" lon="-13.48945">
        <ele>11</ele>
        <time>2021-07-02 18:45:14</time>
      </trkpt>
      <trkpt lat="29.27837" lon="-13.48949">
        <ele>11</ele>
        <time>2021-07-02 18:45:15</time>
      </trkpt>
      <trkpt lat="29.27837" lon="-13.48954">
        <ele>11</ele>
        <time>2021-07-02 18:45:16</time>
      </trkpt>
      <trkpt lat="29.27837" lon="-13.48959">
        <ele>10.8</ele>
        <time>2021-07-02 18:45:17</time>
      </trkpt>
      <trkpt lat="29.27836" lon="-13.48963">
        <ele>10.8</ele>
        <time>2021-07-02 18:45:18</time>
      </trkpt>
      <trkpt lat="29.27836" lon="-13.48967">
        <ele>10.8</ele>
        <time>2021-07-02 18:45:19</time>
      </trkpt>
      <trkpt lat="29.27836" lon="-13.48971">
        <ele>10.8</ele>
        <time>2021-07-02 18:45:20</time>
      </trkpt>
      <trkpt lat="29.27836" lon="-13.48975">
        <ele>10.8</ele>
        <time>2021-07-02 18:45:21</time>
      </trkpt>
      <trkpt lat="29.27835" lon="-13.4898">
        <ele>10.8</ele>
        <time>2021-07-02 18:45:22</time>
      </trkpt>
      <trkpt lat="29.27835" lon="-13.48984">
        <ele>10.8</ele>
        <time>2021-07-02 18:45:23</time>
      </trkpt>
      <trkpt lat="29.27834" lon="-13.48989">
        <ele>10.8</ele>
        <time>2021-07-02 18:45:24</time>
      </trkpt>
      <trkpt lat="29.27833" lon="-13.48993">
        <ele>10.6</ele>
        <time>2021-07-02 18:45:25</time>
      </trkpt>
      <trkpt lat="29.27832" lon="-13.48998">
        <ele>10.6</ele>
        <time>2021-07-02 18:45:26</time>
      </trkpt>
      <trkpt lat="29.27831" lon="-13.49001">
        <ele>10.6</ele>
        <time>2021-07-02 18:45:27</time>
      </trkpt>
      <trkpt lat="29.27829" lon="-13.49005">
        <ele>10.6</ele>
        <time>2021-07-02 18:45:28</time>
      </trkpt>
      <trkpt lat="29.27828" lon="-13.49009">
        <ele>10.6</ele>
        <time>2021-07-02 18:45:29</time>
      </trkpt>
      <trkpt lat="29.27826" lon="-13.49014">
        <ele>10.6</ele>
        <time>2021-07-02 18:45:30</time>
      </trkpt>
      <trkpt lat="29.27825" lon="-13.49018">
        <ele>10.4</ele>
        <time>2021-07-02 18:45:31</time>
      </trkpt>
      <trkpt lat="29.27824" lon="-13.49023">
        <ele>10.4</ele>
        <time>2021-07-02 18:45:32</time>
      </trkpt>
      <trkpt lat="29.27823" lon="-13.49028">
        <ele>10.4</ele>
        <time>2021-07-02 18:45:33</time>
      </trkpt>
      <trkpt lat="29.27822" lon="-13.49033">
        <ele>10.4</ele>
        <time>2021-07-02 18:45:34</time>
      </trkpt>
      <trkpt lat="29.27821" lon="-13.49038">
        <ele>10.4</ele>
        <time>2021-07-02 18:45:35</time>
      </trkpt>
      <trkpt lat="29.27819" lon="-13.49043">
        <ele>10.4</ele>
        <time>2021-07-02 18:45:36</time>
      </trkpt>
      <trkpt lat="29.27818" lon="-13.49048">
        <ele>10.4</ele>
        <time>2021-07-02 18:45:37</time>
      </trkpt>
      <trkpt lat="29.27817" lon="-13.49053">
        <ele>10.4</ele>
        <time>2021-07-02 18:45:38</time>
      </trkpt>
      <trkpt lat="29.27817" lon="-13.49057">
        <ele>10.4</ele>
        <time>2021-07-02 18:45:39</time>
      </trkpt>
      <trkpt lat="29.27816" lon="-13.4906">
        <ele>10.4</ele>
        <time>2021-07-02 18:45:40</time>
      </trkpt>
      <trkpt lat="29.27815" lon="-13.49063">
        <ele>10.6</ele>
        <time>2021-07-02 18:45:41</time>
      </trkpt>
      <trkpt lat="29.27816" lon="-13.49066">
        <ele>10.6</ele>
        <time>2021-07-02 18:45:42</time>
      </trkpt>
      <trkpt lat="29.27815" lon="-13.49069">
        <ele>10.8</ele>
        <time>2021-07-02 18:45:43</time>
      </trkpt>
      <trkpt lat="29.27815" lon="-13.49072">
        <ele>10.8</ele>
        <time>2021-07-02 18:45:44</time>
      </trkpt>
      <trkpt lat="29.27816" lon="-13.49076">
        <ele>10.8</ele>
        <time>2021-07-02 18:45:45</time>
      </trkpt>
      <trkpt lat="29.27816" lon="-13.49078">
        <ele>10.8</ele>
        <time>2021-07-02 18:45:46</time>
      </trkpt>
      <trkpt lat="29.27815" lon="-13.49082">
        <ele>11.2</ele>
        <time>2021-07-02 18:45:47</time>
      </trkpt>
      <trkpt lat="29.27815" lon="-13.49085">
        <ele>11.2</ele>
        <time>2021-07-02 18:45:48</time>
      </trkpt>
      <trkpt lat="29.27815" lon="-13.49088">
        <ele>11.2</ele>
        <time>2021-07-02 18:45:49</time>
      </trkpt>
      <trkpt lat="29.27815" lon="-13.49092">
        <ele>11.4</ele>
        <time>2021-07-02 18:45:50</time>
      </trkpt>
      <trkpt lat="29.27815" lon="-13.49096">
        <ele>11.4</ele>
        <time>2021-07-02 18:45:51</time>
      </trkpt>
      <trkpt lat="29.27816" lon="-13.491">
        <ele>11.4</ele>
        <time>2021-07-02 18:45:52</time>
      </trkpt>
      <trkpt lat="29.27816" lon="-13.49105">
        <ele>11.6</ele>
        <time>2021-07-02 18:45:53</time>
      </trkpt>
      <trkpt lat="29.27816" lon="-13.49111">
        <ele>11.6</ele>
        <time>2021-07-02 18:45:54</time>
      </trkpt>
      <trkpt lat="29.27816" lon="-13.49115">
        <ele>11.6</ele>
        <time>2021-07-02 18:45:55</time>
      </trkpt>
      <trkpt lat="29.27816" lon="-13.49119">
        <ele>11.6</ele>
        <time>2021-07-02 18:45:56</time>
      </trkpt>
      <trkpt lat="29.27815" lon="-13.49123">
        <ele>11.6</ele>
        <time>2021-07-02 18:45:57</time>
      </trkpt>
      <trkpt lat="29.27815" lon="-13.49127">
        <ele>11.6</ele>
        <time>2021-07-02 18:45:58</time>
      </trkpt>
      <trkpt lat="29.27814" lon="-13.4913">
        <ele>11.6</ele>
        <time>2021-07-02 18:45:59</time>
      </trkpt>
      <trkpt lat="29.27813" lon="-13.49134">
        <ele>11.6</ele>
        <time>2021-07-02 18:46:00</time>
      </trkpt>
      <trkpt lat="29.27812" lon="-13.49138">
        <ele>11.8</ele>
        <time>2021-07-02 18:46:01</time>
      </trkpt>
      <trkpt lat="29.27812" lon="-13.49142">
        <ele>11.8</ele>
        <time>2021-07-02 18:46:02</time>
      </trkpt>
      <trkpt lat="29.27812" lon="-13.49145">
        <ele>11.8</ele>
        <time>2021-07-02 18:46:03</time>
      </trkpt>
      <trkpt lat="29.27812" lon="-13.49149">
        <ele>12.2</ele>
        <time>2021-07-02 18:46:04</time>
      </trkpt>
      <trkpt lat="29.27811" lon="-13.49152">
        <ele>12.2</ele>
        <time>2021-07-02 18:46:05</time>
      </trkpt>
      <trkpt lat="29.2781" lon="-13.49154">
        <ele>12.2</ele>
        <time>2021-07-02 18:46:06</time>
      </trkpt>
      <trkpt lat="29.2781" lon="-13.49157">
        <ele>12.2</ele>
        <time>2021-07-02 18:46:07</time>
      </trkpt>
      <trkpt lat="29.2781" lon="-13.49159">
        <ele>12.2</ele>
        <time>2021-07-02 18:46:08</time>
      </trkpt>
      <trkpt lat="29.27809" lon="-13.49162">
        <ele>12.2</ele>
        <time>2021-07-02 18:46:09</time>
      </trkpt>
      <trkpt lat="29.27809" lon="-13.49163">
        <ele>12.2</ele>
        <time>2021-07-02 18:46:10</time>
      </trkpt>
      <trkpt lat="29.27809" lon="-13.49164">
        <ele>12.2</ele>
        <time>2021-07-02 18:46:11</time>
      </trkpt>
      <trkpt lat="29.27809" lon="-13.49165">
        <ele>12.2</ele>
        <time>2021-07-02 18:46:12</time>
      </trkpt>
      <trkpt lat="29.27809" lon="-13.49167">
        <ele>12.2</ele>
        <time>2021-07-02 18:46:13</time>
      </trkpt>
      <trkpt lat="29.27809" lon="-13.49168">
        <ele>12.2</ele>
        <time>2021-07-02 18:46:14</time>
      </trkpt>
      <trkpt lat="29.27808" lon="-13.49169">
        <ele>12.2</ele>
        <time>2021-07-02 18:46:15</time>
      </trkpt>
      <trkpt lat="29.27808" lon="-13.49171">
        <ele>12.2</ele>
        <time>2021-07-02 18:46:16</time>
      </trkpt>
      <trkpt lat="29.27808" lon="-13.49172">
        <ele>12</ele>
        <time>2021-07-02 18:46:17</time>
      </trkpt>
      <trkpt lat="29.27808" lon="-13.49173">
        <ele>12</ele>
        <time>2021-07-02 18:46:18</time>
      </trkpt>
      <trkpt lat="29.27808" lon="-13.49174">
        <ele>12</ele>
        <time>2021-07-02 18:46:19</time>
      </trkpt>
      <trkpt lat="29.27808" lon="-13.49176">
        <ele>12</ele>
        <time>2021-07-02 18:46:20</time>
      </trkpt>
      <trkpt lat="29.27808" lon="-13.49178">
        <ele>11.6</ele>
        <time>2021-07-02 18:46:21</time>
      </trkpt>
      <trkpt lat="29.27808" lon="-13.4918">
        <ele>11.6</ele>
        <time>2021-07-02 18:46:22</time>
      </trkpt>
      <trkpt lat="29.27807" lon="-13.49183">
        <ele>11.4</ele>
        <time>2021-07-02 18:46:23</time>
      </trkpt>
      <trkpt lat="29.27806" lon="-13.49188">
        <ele>11.4</ele>
        <time>2021-07-02 18:46:24</time>
      </trkpt>
      <trkpt lat="29.27806" lon="-13.49192">
        <ele>11.2</ele>
        <time>2021-07-02 18:46:25</time>
      </trkpt>
      <trkpt lat="29.27805" lon="-13.49197">
        <ele>11.2</ele>
        <time>2021-07-02 18:46:26</time>
      </trkpt>
      <trkpt lat="29.27805" lon="-13.49202">
        <ele>11.2</ele>
        <time>2021-07-02 18:46:27</time>
      </trkpt>
      <trkpt lat="29.27805" lon="-13.49206">
        <ele>11.2</ele>
        <time>2021-07-02 18:46:28</time>
      </trkpt>
      <trkpt lat="29.27804" lon="-13.4921">
        <ele>11.2</ele>
        <time>2021-07-02 18:46:29</time>
      </trkpt>
      <trkpt lat="29.27804" lon="-13.49214">
        <ele>11.2</ele>
        <time>2021-07-02 18:46:30</time>
      </trkpt>
      <trkpt lat="29.27803" lon="-13.49219">
        <ele>11.2</ele>
        <time>2021-07-02 18:46:31</time>
      </trkpt>
      <trkpt lat="29.27802" lon="-13.49223">
        <ele>11.2</ele>
        <time>2021-07-02 18:46:32</time>
      </trkpt>
      <trkpt lat="29.27801" lon="-13.49228">
        <ele>11.2</ele>
        <time>2021-07-02 18:46:33</time>
      </trkpt>
      <trkpt lat="29.278" lon="-13.49232">
        <ele>11.2</ele>
        <time>2021-07-02 18:46:34</time>
      </trkpt>
      <trkpt lat="29.27799" lon="-13.49236">
        <ele>11.2</ele>
        <time>2021-07-02 18:46:35</time>
      </trkpt>
      <trkpt lat="29.27797" lon="-13.4924">
        <ele>11.2</ele>
        <time>2021-07-02 18:46:36</time>
      </trkpt>
      <trkpt lat="29.27795" lon="-13.49244">
        <ele>11.4</ele>
        <time>2021-07-02 18:46:37</time>
      </trkpt>
      <trkpt lat="29.27793" lon="-13.49247">
        <ele>11.4</ele>
        <time>2021-07-02 18:46:38</time>
      </trkpt>
      <trkpt lat="29.27792" lon="-13.49251">
        <ele>11.4</ele>
        <time>2021-07-02 18:46:39</time>
      </trkpt>
      <trkpt lat="29.27791" lon="-13.49254">
        <ele>11.6</ele>
        <time>2021-07-02 18:46:40</time>
      </trkpt>
      <trkpt lat="29.27791" lon="-13.49255">
        <ele>11.6</ele>
        <time>2021-07-02 18:46:41</time>
      </trkpt>
      <trkpt lat="29.27791" lon="-13.49256">
        <ele>12</ele>
        <time>2021-07-02 18:46:42</time>
      </trkpt>
      <trkpt lat="29.27791" lon="-13.49256">
        <ele>12</ele>
        <time>2021-07-02 18:46:43</time>
      </trkpt>
      <trkpt lat="29.27791" lon="-13.49257">
        <ele>12.4</ele>
        <time>2021-07-02 18:46:44</time>
      </trkpt>
      <trkpt lat="29.2779" lon="-13.49259">
        <ele>12.4</ele>
        <time>2021-07-02 18:46:45</time>
      </trkpt>
      <trkpt lat="29.27789" lon="-13.4926">
        <ele>12.6</ele>
        <time>2021-07-02 18:46:46</time>
      </trkpt>
      <trkpt lat="29.27788" lon="-13.49263">
        <ele>12.6</ele>
        <time>2021-07-02 18:46:47</time>
      </trkpt>
      <trkpt lat="29.27787" lon="-13.49265">
        <ele>13</ele>
        <time>2021-07-02 18:46:48</time>
      </trkpt>
      <trkpt lat="29.27787" lon="-13.49268">
        <ele>13</ele>
        <time>2021-07-02 18:46:49</time>
      </trkpt>
      <trkpt lat="29.27786" lon="-13.4927">
        <ele>13</ele>
        <time>2021-07-02 18:46:50</time>
      </trkpt>
      <trkpt lat="29.27785" lon="-13.49272">
        <ele>13.2</ele>
        <time>2021-07-02 18:46:51</time>
      </trkpt>
      <trkpt lat="29.27785" lon="-13.49274">
        <ele>13.2</ele>
        <time>2021-07-02 18:46:52</time>
      </trkpt>
      <trkpt lat="29.27785" lon="-13.49274">
        <ele>13.2</ele>
        <time>2021-07-02 18:46:53</time>
      </trkpt>
      <trkpt lat="29.27785" lon="-13.49274">
        <ele>13.2</ele>
        <time>2021-07-02 18:46:54</time>
      </trkpt>
      <trkpt lat="29.27785" lon="-13.49275">
        <ele>13.2</ele>
        <time>2021-07-02 18:46:55</time>
      </trkpt>
      <trkpt lat="29.27784" lon="-13.49277">
        <ele>13.2</ele>
        <time>2021-07-02 18:46:56</time>
      </trkpt>
      <trkpt lat="29.27784" lon="-13.49278">
        <ele>13.2</ele>
        <time>2021-07-02 18:46:57</time>
      </trkpt>
      <trkpt lat="29.27784" lon="-13.49279">
        <ele>13.2</ele>
        <time>2021-07-02 18:46:58</time>
      </trkpt>
      <trkpt lat="29.27784" lon="-13.4928">
        <ele>13.2</ele>
        <time>2021-07-02 18:46:59</time>
      </trkpt>
      <trkpt lat="29.27783" lon="-13.49282">
        <ele>13.2</ele>
        <time>2021-07-02 18:47:00</time>
      </trkpt>
      <trkpt lat="29.27783" lon="-13.49283">
        <ele>13.2</ele>
        <time>2021-07-02 18:47:01</time>
      </trkpt>
      <trkpt lat="29.27783" lon="-13.49285">
        <ele>13.2</ele>
        <time>2021-07-02 18:47:02</time>
      </trkpt>
      <trkpt lat="29.27783" lon="-13.49286">
        <ele>13.2</ele>
        <time>2021-07-02 18:47:03</time>
      </trkpt>
      <trkpt lat="29.27783" lon="-13.49288">
        <ele>13</ele>
        <time>2021-07-02 18:47:04</time>
      </trkpt>
      <trkpt lat="29.27783" lon="-13.49289">
        <ele>13</ele>
        <time>2021-07-02 18:47:05</time>
      </trkpt>
      <trkpt lat="29.27784" lon="-13.4929">
        <ele>13</ele>
        <time>2021-07-02 18:47:06</time>
      </trkpt>
      <trkpt lat="29.27784" lon="-13.49291">
        <ele>13</ele>
        <time>2021-07-02 18:47:07</time>
      </trkpt>
      <trkpt lat="29.27784" lon="-13.49293">
        <ele>13</ele>
        <time>2021-07-02 18:47:08</time>
      </trkpt>
      <trkpt lat="29.27784" lon="-13.49294">
        <ele>13</ele>
        <time>2021-07-02 18:47:09</time>
      </trkpt>
      <trkpt lat="29.27784" lon="-13.49295">
        <ele>13</ele>
        <time>2021-07-02 18:47:10</time>
      </trkpt>
      <trkpt lat="29.27784" lon="-13.49296">
        <ele>13</ele>
        <time>2021-07-02 18:47:11</time>
      </trkpt>
      <trkpt lat="29.27784" lon="-13.49296">
        <ele>13</ele>
        <time>2021-07-02 18:47:12</time>
      </trkpt>
      <trkpt lat="29.27785" lon="-13.49296">
        <ele>13</ele>
        <time>2021-07-02 18:47:13</time>
      </trkpt>
      <trkpt lat="29.27785" lon="-13.49296">
        <ele>13.2</ele>
        <time>2021-07-02 18:47:14</time>
      </trkpt>
      <trkpt lat="29.27785" lon="-13.49299">
        <ele>13.6</ele>
        <time>2021-07-02 18:47:15</time>
      </trkpt>
      <trkpt lat="29.27786" lon="-13.49301">
        <ele>13.6</ele>
        <time>2021-07-02 18:47:18</time>
      </trkpt>
      <trkpt lat="29.27786" lon="-13.49304">
        <ele>13.6</ele>
        <time>2021-07-02 18:47:19</time>
      </trkpt>
      <trkpt lat="29.27786" lon="-13.49307">
        <ele>13.6</ele>
        <time>2021-07-02 18:47:20</time>
      </trkpt>
      <trkpt lat="29.27786" lon="-13.4931">
        <ele>13.6</ele>
        <time>2021-07-02 18:47:21</time>
      </trkpt>
      <trkpt lat="29.27786" lon="-13.49313">
        <ele>13.6</ele>
        <time>2021-07-02 18:47:22</time>
      </trkpt>
      <trkpt lat="29.27786" lon="-13.49317">
        <ele>13.8</ele>
        <time>2021-07-02 18:47:23</time>
      </trkpt>
      <trkpt lat="29.27785" lon="-13.49319">
        <ele>13.8</ele>
        <time>2021-07-02 18:47:24</time>
      </trkpt>
      <trkpt lat="29.27784" lon="-13.49322">
        <ele>14</ele>
        <time>2021-07-02 18:47:25</time>
      </trkpt>
      <trkpt lat="29.27782" lon="-13.49325">
        <ele>14</ele>
        <time>2021-07-02 18:47:26</time>
      </trkpt>
      <trkpt lat="29.27781" lon="-13.49328">
        <ele>14</ele>
        <time>2021-07-02 18:47:27</time>
      </trkpt>
      <trkpt lat="29.27779" lon="-13.49331">
        <ele>14.2</ele>
        <time>2021-07-02 18:47:28</time>
      </trkpt>
      <trkpt lat="29.27777" lon="-13.49334">
        <ele>14.2</ele>
        <time>2021-07-02 18:47:29</time>
      </trkpt>
      <trkpt lat="29.27775" lon="-13.49338">
        <ele>14.2</ele>
        <time>2021-07-02 18:47:30</time>
      </trkpt>
      <trkpt lat="29.27774" lon="-13.49341">
        <ele>14.6</ele>
        <time>2021-07-02 18:47:31</time>
      </trkpt>
      <trkpt lat="29.27772" lon="-13.49345">
        <ele>14.6</ele>
        <time>2021-07-02 18:47:32</time>
      </trkpt>
      <trkpt lat="29.27771" lon="-13.49349">
        <ele>14.6</ele>
        <time>2021-07-02 18:47:33</time>
      </trkpt>
      <trkpt lat="29.2777" lon="-13.49352">
        <ele>14.6</ele>
        <time>2021-07-02 18:47:34</time>
      </trkpt>
      <trkpt lat="29.27769" lon="-13.49356">
        <ele>14.6</ele>
        <time>2021-07-02 18:47:35</time>
      </trkpt>
      <trkpt lat="29.27768" lon="-13.4936">
        <ele>14.6</ele>
        <time>2021-07-02 18:47:36</time>
      </trkpt>
      <trkpt lat="29.27767" lon="-13.49363">
        <ele>14.6</ele>
        <time>2021-07-02 18:47:37</time>
      </trkpt>
      <trkpt lat="29.27766" lon="-13.49367">
        <ele>14.6</ele>
        <time>2021-07-02 18:47:38</time>
      </trkpt>
      <trkpt lat="29.27765" lon="-13.4937">
        <ele>14.8</ele>
        <time>2021-07-02 18:47:39</time>
      </trkpt>
      <trkpt lat="29.27765" lon="-13.49374">
        <ele>14.8</ele>
        <time>2021-07-02 18:47:40</time>
      </trkpt>
      <trkpt lat="29.27764" lon="-13.49377">
        <ele>15</ele>
        <time>2021-07-02 18:47:41</time>
      </trkpt>
      <trkpt lat="29.27763" lon="-13.49381">
        <ele>15</ele>
        <time>2021-07-02 18:47:42</time>
      </trkpt>
      <trkpt lat="29.27762" lon="-13.49384">
        <ele>15.4</ele>
        <time>2021-07-02 18:47:43</time>
      </trkpt>
      <trkpt lat="29.27761" lon="-13.49387">
        <ele>15.4</ele>
        <time>2021-07-02 18:47:44</time>
      </trkpt>
      <trkpt lat="29.2776" lon="-13.49391">
        <ele>15.6</ele>
        <time>2021-07-02 18:47:45</time>
      </trkpt>
      <trkpt lat="29.27759" lon="-13.49395">
        <ele>15.6</ele>
        <time>2021-07-02 18:47:46</time>
      </trkpt>
      <trkpt lat="29.27758" lon="-13.49398">
        <ele>15.6</ele>
        <time>2021-07-02 18:47:47</time>
      </trkpt>
      <trkpt lat="29.27756" lon="-13.49402">
        <ele>15.8</ele>
        <time>2021-07-02 18:47:48</time>
      </trkpt>
      <trkpt lat="29.27754" lon="-13.49406">
        <ele>15.8</ele>
        <time>2021-07-02 18:47:49</time>
      </trkpt>
      <trkpt lat="29.27753" lon="-13.4941">
        <ele>15.8</ele>
        <time>2021-07-02 18:47:50</time>
      </trkpt>
      <trkpt lat="29.27751" lon="-13.49413">
        <ele>15.8</ele>
        <time>2021-07-02 18:47:51</time>
      </trkpt>
      <trkpt lat="29.27749" lon="-13.49417">
        <ele>16</ele>
        <time>2021-07-02 18:47:52</time>
      </trkpt>
      <trkpt lat="29.27748" lon="-13.4942">
        <ele>16</ele>
        <time>2021-07-02 18:47:53</time>
      </trkpt>
      <trkpt lat="29.27746" lon="-13.49424">
        <ele>16</ele>
        <time>2021-07-02 18:47:54</time>
      </trkpt>
      <trkpt lat="29.27745" lon="-13.49428">
        <ele>16</ele>
        <time>2021-07-02 18:47:55</time>
      </trkpt>
      <trkpt lat="29.27744" lon="-13.49432">
        <ele>16</ele>
        <time>2021-07-02 18:47:56</time>
      </trkpt>
      <trkpt lat="29.27742" lon="-13.49435">
        <ele>16</ele>
        <time>2021-07-02 18:47:57</time>
      </trkpt>
      <trkpt lat="29.27741" lon="-13.49439">
        <ele>16</ele>
        <time>2021-07-02 18:47:58</time>
      </trkpt>
      <trkpt lat="29.2774" lon="-13.49442">
        <ele>16.2</ele>
        <time>2021-07-02 18:47:59</time>
      </trkpt>
      <trkpt lat="29.27738" lon="-13.49446">
        <ele>16.2</ele>
        <time>2021-07-02 18:48:00</time>
      </trkpt>
      <trkpt lat="29.27737" lon="-13.4945">
        <ele>16.2</ele>
        <time>2021-07-02 18:48:01</time>
      </trkpt>
      <trkpt lat="29.27736" lon="-13.49453">
        <ele>16.6</ele>
        <time>2021-07-02 18:48:02</time>
      </trkpt>
      <trkpt lat="29.27735" lon="-13.49456">
        <ele>16.8</ele>
        <time>2021-07-02 18:48:03</time>
      </trkpt>
      <trkpt lat="29.27734" lon="-13.49458">
        <ele>16.8</ele>
        <time>2021-07-02 18:48:04</time>
      </trkpt>
      <trkpt lat="29.27734" lon="-13.49461">
        <ele>17</ele>
        <time>2021-07-02 18:48:05</time>
      </trkpt>
      <trkpt lat="29.27734" lon="-13.49465">
        <ele>17</ele>
        <time>2021-07-02 18:48:06</time>
      </trkpt>
      <trkpt lat="29.27734" lon="-13.49469">
        <ele>17</ele>
        <time>2021-07-02 18:48:07</time>
      </trkpt>
      <trkpt lat="29.27734" lon="-13.49472">
        <ele>17.4</ele>
        <time>2021-07-02 18:48:08</time>
      </trkpt>
      <trkpt lat="29.27734" lon="-13.49476">
        <ele>17.4</ele>
        <time>2021-07-02 18:48:09</time>
      </trkpt>
      <trkpt lat="29.27734" lon="-13.49479">
        <ele>17.6</ele>
        <time>2021-07-02 18:48:10</time>
      </trkpt>
      <trkpt lat="29.27734" lon="-13.49481">
        <ele>17.6</ele>
        <time>2021-07-02 18:48:11</time>
      </trkpt>
      <trkpt lat="29.27735" lon="-13.49483">
        <ele>18</ele>
        <time>2021-07-02 18:48:12</time>
      </trkpt>
      <trkpt lat="29.27735" lon="-13.49485">
        <ele>18</ele>
        <time>2021-07-02 18:48:13</time>
      </trkpt>
      <trkpt lat="29.27735" lon="-13.49487">
        <ele>18.2</ele>
        <time>2021-07-02 18:48:14</time>
      </trkpt>
      <trkpt lat="29.27735" lon="-13.4949">
        <ele>18.2</ele>
        <time>2021-07-02 18:48:15</time>
      </trkpt>
      <trkpt lat="29.27735" lon="-13.49492">
        <ele>18.6</ele>
        <time>2021-07-02 18:48:16</time>
      </trkpt>
      <trkpt lat="29.27735" lon="-13.49495">
        <ele>18.6</ele>
        <time>2021-07-02 18:48:17</time>
      </trkpt>
      <trkpt lat="29.27736" lon="-13.49498">
        <ele>19</ele>
        <time>2021-07-02 18:48:18</time>
      </trkpt>
      <trkpt lat="29.27736" lon="-13.495">
        <ele>19.2</ele>
        <time>2021-07-02 18:48:19</time>
      </trkpt>
      <trkpt lat="29.27737" lon="-13.49503">
        <ele>19.2</ele>
        <time>2021-07-02 18:48:20</time>
      </trkpt>
      <trkpt lat="29.27737" lon="-13.49506">
        <ele>19.6</ele>
        <time>2021-07-02 18:48:21</time>
      </trkpt>
      <trkpt lat="29.27738" lon="-13.49509">
        <ele>19.8</ele>
        <time>2021-07-02 18:48:22</time>
      </trkpt>
      <trkpt lat="29.27739" lon="-13.49512">
        <ele>20</ele>
        <time>2021-07-02 18:48:23</time>
      </trkpt>
      <trkpt lat="29.2774" lon="-13.49514">
        <ele>20</ele>
        <time>2021-07-02 18:48:24</time>
      </trkpt>
      <trkpt lat="29.27742" lon="-13.49516">
        <ele>20.2</ele>
        <time>2021-07-02 18:48:25</time>
      </trkpt>
      <trkpt lat="29.27743" lon="-13.49517">
        <ele>20.2</ele>
        <time>2021-07-02 18:48:26</time>
      </trkpt>
      <trkpt lat="29.27745" lon="-13.49517">
        <ele>20.2</ele>
        <time>2021-07-02 18:48:27</time>
      </trkpt>
      <trkpt lat="29.27747" lon="-13.49518">
        <ele>20.2</ele>
        <time>2021-07-02 18:48:28</time>
      </trkpt>
      <trkpt lat="29.27748" lon="-13.4952">
        <ele>20.2</ele>
        <time>2021-07-02 18:48:29</time>
      </trkpt>
      <trkpt lat="29.27751" lon="-13.49521">
        <ele>20.2</ele>
        <time>2021-07-02 18:48:30</time>
      </trkpt>
      <trkpt lat="29.27753" lon="-13.49524">
        <ele>20.2</ele>
        <time>2021-07-02 18:48:31</time>
      </trkpt>
      <trkpt lat="29.27756" lon="-13.49526">
        <ele>20.2</ele>
        <time>2021-07-02 18:48:32</time>
      </trkpt>
      <trkpt lat="29.27758" lon="-13.49529">
        <ele>20.2</ele>
        <time>2021-07-02 18:48:33</time>
      </trkpt>
      <trkpt lat="29.27759" lon="-13.4953">
        <ele>20.2</ele>
        <time>2021-07-02 18:48:34</time>
      </trkpt>
      <trkpt lat="29.27761" lon="-13.49532">
        <ele>20.6</ele>
        <time>2021-07-02 18:48:35</time>
      </trkpt>
      <trkpt lat="29.27762" lon="-13.49534">
        <ele>20.6</ele>
        <time>2021-07-02 18:48:36</time>
      </trkpt>
      <trkpt lat="29.27763" lon="-13.49536">
        <ele>20.8</ele>
        <time>2021-07-02 18:48:37</time>
      </trkpt>
      <trkpt lat="29.27765" lon="-13.49538">
        <ele>20.8</ele>
        <time>2021-07-02 18:48:38</time>
      </trkpt>
      <trkpt lat="29.27766" lon="-13.4954">
        <ele>21.2</ele>
        <time>2021-07-02 18:48:39</time>
      </trkpt>
      <trkpt lat="29.27767" lon="-13.49543">
        <ele>21.2</ele>
        <time>2021-07-02 18:48:40</time>
      </trkpt>
      <trkpt lat="29.27768" lon="-13.49545">
        <ele>21.4</ele>
        <time>2021-07-02 18:48:41</time>
      </trkpt>
      <trkpt lat="29.27768" lon="-13.49547">
        <ele>21.8</ele>
        <time>2021-07-02 18:48:42</time>
      </trkpt>
      <trkpt lat="29.27769" lon="-13.49548">
        <ele>22</ele>
        <time>2021-07-02 18:48:43</time>
      </trkpt>
      <trkpt lat="29.27769" lon="-13.49549">
        <ele>22.2</ele>
        <time>2021-07-02 18:48:44</time>
      </trkpt>
      <trkpt lat="29.2777" lon="-13.49551">
        <ele>22.2</ele>
        <time>2021-07-02 18:48:45</time>
      </trkpt>
      <trkpt lat="29.27771" lon="-13.49553">
        <ele>22.6</ele>
        <time>2021-07-02 18:48:46</time>
      </trkpt>
      <trkpt lat="29.27772" lon="-13.49555">
        <ele>22.8</ele>
        <time>2021-07-02 18:48:47</time>
      </trkpt>
      <trkpt lat="29.27773" lon="-13.49558">
        <ele>22.8</ele>
        <time>2021-07-02 18:48:48</time>
      </trkpt>
      <trkpt lat="29.27774" lon="-13.49561">
        <ele>23</ele>
        <time>2021-07-02 18:48:49</time>
      </trkpt>
      <trkpt lat="29.27775" lon="-13.49564">
        <ele>23</ele>
        <time>2021-07-02 18:48:50</time>
      </trkpt>
      <trkpt lat="29.27776" lon="-13.49568">
        <ele>23.2</ele>
        <time>2021-07-02 18:48:51</time>
      </trkpt>
      <trkpt lat="29.27777" lon="-13.49571">
        <ele>23.2</ele>
        <time>2021-07-02 18:48:52</time>
      </trkpt>
      <trkpt lat="29.27778" lon="-13.49574">
        <ele>23.2</ele>
        <time>2021-07-02 18:48:53</time>
      </trkpt>
      <trkpt lat="29.27778" lon="-13.49576">
        <ele>23.2</ele>
        <time>2021-07-02 18:48:54</time>
      </trkpt>
      <trkpt lat="29.27778" lon="-13.49578">
        <ele>23.2</ele>
        <time>2021-07-02 18:48:55</time>
      </trkpt>
      <trkpt lat="29.27778" lon="-13.49581">
        <ele>23.2</ele>
        <time>2021-07-02 18:48:56</time>
      </trkpt>
      <trkpt lat="29.27778" lon="-13.49583">
        <ele>23.2</ele>
        <time>2021-07-02 18:48:57</time>
      </trkpt>
      <trkpt lat="29.27778" lon="-13.49584">
        <ele>23.2</ele>
        <time>2021-07-02 18:48:58</time>
      </trkpt>
      <trkpt lat="29.27779" lon="-13.49587">
        <ele>23.2</ele>
        <time>2021-07-02 18:48:59</time>
      </trkpt>
      <trkpt lat="29.2778" lon="-13.49589">
        <ele>23.2</ele>
        <time>2021-07-02 18:49:00</time>
      </trkpt>
      <trkpt lat="29.27781" lon="-13.49591">
        <ele>23.2</ele>
        <time>2021-07-02 18:49:01</time>
      </trkpt>
      <trkpt lat="29.27782" lon="-13.49593">
        <ele>23.2</ele>
        <time>2021-07-02 18:49:02</time>
      </trkpt>
      <trkpt lat="29.27782" lon="-13.49594">
        <ele>23.2</ele>
        <time>2021-07-02 18:49:03</time>
      </trkpt>
      <trkpt lat="29.27782" lon="-13.49594">
        <ele>23.2</ele>
        <time>2021-07-02 18:49:04</time>
      </trkpt>
      <trkpt lat="29.27782" lon="-13.49594">
        <ele>23.2</ele>
        <time>2021-07-02 18:49:05</time>
      </trkpt>
      <trkpt lat="29.27782" lon="-13.49593">
        <ele>23.2</ele>
        <time>2021-07-02 18:49:06</time>
      </trkpt>
      <trkpt lat="29.27784" lon="-13.49596">
        <ele>24.2</ele>
        <time>2021-07-02 18:49:07</time>
      </trkpt>
      <trkpt lat="29.27785" lon="-13.49598">
        <ele>24.2</ele>
        <time>2021-07-02 18:49:29</time>
      </trkpt>
      <trkpt lat="29.27786" lon="-13.496">
        <ele>24.2</ele>
        <time>2021-07-02 18:49:30</time>
      </trkpt>
      <trkpt lat="29.27787" lon="-13.49603">
        <ele>24.2</ele>
        <time>2021-07-02 18:49:31</time>
      </trkpt>
      <trkpt lat="29.27788" lon="-13.49605">
        <ele>24.2</ele>
        <time>2021-07-02 18:49:32</time>
      </trkpt>
      <trkpt lat="29.27789" lon="-13.49607">
        <ele>24.2</ele>
        <time>2021-07-02 18:49:33</time>
      </trkpt>
      <trkpt lat="29.27792" lon="-13.49609">
        <ele>24.2</ele>
        <time>2021-07-02 18:49:34</time>
      </trkpt>
      <trkpt lat="29.27795" lon="-13.49611">
        <ele>24.2</ele>
        <time>2021-07-02 18:49:35</time>
      </trkpt>
      <trkpt lat="29.27797" lon="-13.49613">
        <ele>24</ele>
        <time>2021-07-02 18:49:36</time>
      </trkpt>
      <trkpt lat="29.278" lon="-13.49614">
        <ele>24</ele>
        <time>2021-07-02 18:49:37</time>
      </trkpt>
      <trkpt lat="29.27803" lon="-13.49617">
        <ele>23.8</ele>
        <time>2021-07-02 18:49:38</time>
      </trkpt>
      <trkpt lat="29.27806" lon="-13.49619">
        <ele>23.8</ele>
        <time>2021-07-02 18:49:39</time>
      </trkpt>
      <trkpt lat="29.27808" lon="-13.49621">
        <ele>23.8</ele>
        <time>2021-07-02 18:49:40</time>
      </trkpt>
      <trkpt lat="29.27811" lon="-13.49624">
        <ele>23.8</ele>
        <time>2021-07-02 18:49:41</time>
      </trkpt>
      <trkpt lat="29.27813" lon="-13.49626">
        <ele>23.4</ele>
        <time>2021-07-02 18:49:42</time>
      </trkpt>
      <trkpt lat="29.27816" lon="-13.49628">
        <ele>23.4</ele>
        <time>2021-07-02 18:49:43</time>
      </trkpt>
      <trkpt lat="29.27819" lon="-13.49631">
        <ele>23.4</ele>
        <time>2021-07-02 18:49:44</time>
      </trkpt>
      <trkpt lat="29.27821" lon="-13.49633">
        <ele>23.2</ele>
        <time>2021-07-02 18:49:45</time>
      </trkpt>
      <trkpt lat="29.27824" lon="-13.49635">
        <ele>23.2</ele>
        <time>2021-07-02 18:49:46</time>
      </trkpt>
      <trkpt lat="29.27827" lon="-13.49638">
        <ele>23.2</ele>
        <time>2021-07-02 18:49:47</time>
      </trkpt>
      <trkpt lat="29.27829" lon="-13.4964">
        <ele>23</ele>
        <time>2021-07-02 18:49:48</time>
      </trkpt>
      <trkpt lat="29.27832" lon="-13.49642">
        <ele>23</ele>
        <time>2021-07-02 18:49:49</time>
      </trkpt>
      <trkpt lat="29.27835" lon="-13.49644">
        <ele>22.6</ele>
        <time>2021-07-02 18:49:50</time>
      </trkpt>
      <trkpt lat="29.27837" lon="-13.49646">
        <ele>22.6</ele>
        <time>2021-07-02 18:49:51</time>
      </trkpt>
      <trkpt lat="29.27839" lon="-13.49648">
        <ele>22.4</ele>
        <time>2021-07-02 18:49:52</time>
      </trkpt>
      <trkpt lat="29.27842" lon="-13.49651">
        <ele>22.4</ele>
        <time>2021-07-02 18:49:53</time>
      </trkpt>
      <trkpt lat="29.27844" lon="-13.49654">
        <ele>22.2</ele>
        <time>2021-07-02 18:49:54</time>
      </trkpt>
      <trkpt lat="29.27846" lon="-13.49657">
        <ele>22.2</ele>
        <time>2021-07-02 18:49:55</time>
      </trkpt>
      <trkpt lat="29.27849" lon="-13.4966">
        <ele>21.8</ele>
        <time>2021-07-02 18:49:56</time>
      </trkpt>
      <trkpt lat="29.27852" lon="-13.49663">
        <ele>21.8</ele>
        <time>2021-07-02 18:49:57</time>
      </trkpt>
      <trkpt lat="29.27855" lon="-13.49665">
        <ele>21.6</ele>
        <time>2021-07-02 18:49:58</time>
      </trkpt>
      <trkpt lat="29.27858" lon="-13.49667">
        <ele>21.6</ele>
        <time>2021-07-02 18:49:59</time>
      </trkpt>
      <trkpt lat="29.2786" lon="-13.4967">
        <ele>21.2</ele>
        <time>2021-07-02 18:50:00</time>
      </trkpt>
      <trkpt lat="29.27863" lon="-13.49672">
        <ele>21.2</ele>
        <time>2021-07-02 18:50:01</time>
      </trkpt>
      <trkpt lat="29.27865" lon="-13.49675">
        <ele>21.2</ele>
        <time>2021-07-02 18:50:02</time>
      </trkpt>
      <trkpt lat="29.27867" lon="-13.49678">
        <ele>21.2</ele>
        <time>2021-07-02 18:50:03</time>
      </trkpt>
      <trkpt lat="29.27868" lon="-13.4968">
        <ele>21.2</ele>
        <time>2021-07-02 18:50:04</time>
      </trkpt>
      <trkpt lat="29.2787" lon="-13.49683">
        <ele>21</ele>
        <time>2021-07-02 18:50:05</time>
      </trkpt>
      <trkpt lat="29.27872" lon="-13.49686">
        <ele>21</ele>
        <time>2021-07-02 18:50:06</time>
      </trkpt>
      <trkpt lat="29.27874" lon="-13.4969">
        <ele>21</ele>
        <time>2021-07-02 18:50:07</time>
      </trkpt>
      <trkpt lat="29.27875" lon="-13.49693">
        <ele>21</ele>
        <time>2021-07-02 18:50:08</time>
      </trkpt>
      <trkpt lat="29.27877" lon="-13.49696">
        <ele>21</ele>
        <time>2021-07-02 18:50:09</time>
      </trkpt>
      <trkpt lat="29.27879" lon="-13.49699">
        <ele>21</ele>
        <time>2021-07-02 18:50:10</time>
      </trkpt>
      <trkpt lat="29.27881" lon="-13.49702">
        <ele>20.8</ele>
        <time>2021-07-02 18:50:11</time>
      </trkpt>
      <trkpt lat="29.27881" lon="-13.49703">
        <ele>20.8</ele>
        <time>2021-07-02 18:50:12</time>
      </trkpt>
      <trkpt lat="29.27882" lon="-13.49705">
        <ele>20.8</ele>
        <time>2021-07-02 18:50:13</time>
      </trkpt>
      <trkpt lat="29.27883" lon="-13.49706">
        <ele>20.6</ele>
        <time>2021-07-02 18:50:14</time>
      </trkpt>
      <trkpt lat="29.27884" lon="-13.49707">
        <ele>20.6</ele>
        <time>2021-07-02 18:50:15</time>
      </trkpt>
      <trkpt lat="29.27884" lon="-13.49708">
        <ele>20.6</ele>
        <time>2021-07-02 18:50:16</time>
      </trkpt>
      <trkpt lat="29.27885" lon="-13.49708">
        <ele>20.4</ele>
        <time>2021-07-02 18:50:17</time>
      </trkpt>
      <trkpt lat="29.27885" lon="-13.49708">
        <ele>20.4</ele>
        <time>2021-07-02 18:50:18</time>
      </trkpt>
      <trkpt lat="29.27886" lon="-13.49709">
        <ele>20.4</ele>
        <time>2021-07-02 18:50:19</time>
      </trkpt>
      <trkpt lat="29.27887" lon="-13.4971">
        <ele>20</ele>
        <time>2021-07-02 18:50:20</time>
      </trkpt>
      <trkpt lat="29.27887" lon="-13.49711">
        <ele>20</ele>
        <time>2021-07-02 18:50:21</time>
      </trkpt>
      <trkpt lat="29.27888" lon="-13.49711">
        <ele>20</ele>
        <time>2021-07-02 18:50:22</time>
      </trkpt>
      <trkpt lat="29.27888" lon="-13.49711">
        <ele>19.8</ele>
        <time>2021-07-02 18:50:23</time>
      </trkpt>
      <trkpt lat="29.27889" lon="-13.49712">
        <ele>19.8</ele>
        <time>2021-07-02 18:50:24</time>
      </trkpt>
      <trkpt lat="29.27889" lon="-13.49713">
        <ele>19.8</ele>
        <time>2021-07-02 18:50:25</time>
      </trkpt>
      <trkpt lat="29.2789" lon="-13.49713">
        <ele>19.8</ele>
        <time>2021-07-02 18:50:26</time>
      </trkpt>
      <trkpt lat="29.27891" lon="-13.49714">
        <ele>19.8</ele>
        <time>2021-07-02 18:50:27</time>
      </trkpt>
      <trkpt lat="29.27892" lon="-13.49715">
        <ele>19.8</ele>
        <time>2021-07-02 18:50:28</time>
      </trkpt>
      <trkpt lat="29.27894" lon="-13.49716">
        <ele>19.8</ele>
        <time>2021-07-02 18:50:29</time>
      </trkpt>
      <trkpt lat="29.27895" lon="-13.49718">
        <ele>19.8</ele>
        <time>2021-07-02 18:50:30</time>
      </trkpt>
      <trkpt lat="29.27896" lon="-13.49718">
        <ele>19.8</ele>
        <time>2021-07-02 18:50:31</time>
      </trkpt>
      <trkpt lat="29.27896" lon="-13.49719">
        <ele>19.8</ele>
        <time>2021-07-02 18:50:32</time>
      </trkpt>
      <trkpt lat="29.27896" lon="-13.49719">
        <ele>19.8</ele>
        <time>2021-07-02 18:50:33</time>
      </trkpt>
      <trkpt lat="29.27897" lon="-13.4972">
        <ele>19.8</ele>
        <time>2021-07-02 18:50:34</time>
      </trkpt>
      <trkpt lat="29.27898" lon="-13.4972">
        <ele>19.8</ele>
        <time>2021-07-02 18:50:35</time>
      </trkpt>
      <trkpt lat="29.27899" lon="-13.49721">
        <ele>19.8</ele>
        <time>2021-07-02 18:50:36</time>
      </trkpt>
      <trkpt lat="29.27901" lon="-13.49721">
        <ele>19.8</ele>
        <time>2021-07-02 18:50:37</time>
      </trkpt>
      <trkpt lat="29.27904" lon="-13.49722">
        <ele>19.8</ele>
        <time>2021-07-02 18:50:38</time>
      </trkpt>
      <trkpt lat="29.27906" lon="-13.49724">
        <ele>19.8</ele>
        <time>2021-07-02 18:50:39</time>
      </trkpt>
      <trkpt lat="29.27909" lon="-13.49726">
        <ele>19.8</ele>
        <time>2021-07-02 18:50:40</time>
      </trkpt>
      <trkpt lat="29.27912" lon="-13.49728">
        <ele>19.6</ele>
        <time>2021-07-02 18:50:41</time>
      </trkpt>
      <trkpt lat="29.27915" lon="-13.4973">
        <ele>19.6</ele>
        <time>2021-07-02 18:50:42</time>
      </trkpt>
      <trkpt lat="29.27918" lon="-13.49732">
        <ele>19.6</ele>
        <time>2021-07-02 18:50:43</time>
      </trkpt>
      <trkpt lat="29.27921" lon="-13.49734">
        <ele>19.4</ele>
        <time>2021-07-02 18:50:44</time>
      </trkpt>
      <trkpt lat="29.27925" lon="-13.49735">
        <ele>19.4</ele>
        <time>2021-07-02 18:50:45</time>
      </trkpt>
      <trkpt lat="29.27928" lon="-13.49736">
        <ele>19.2</ele>
        <time>2021-07-02 18:50:46</time>
      </trkpt>
      <trkpt lat="29.2793" lon="-13.49737">
        <ele>19.2</ele>
        <time>2021-07-02 18:50:47</time>
      </trkpt>
      <trkpt lat="29.27932" lon="-13.49737">
        <ele>19.2</ele>
        <time>2021-07-02 18:50:48</time>
      </trkpt>
      <trkpt lat="29.27934" lon="-13.49737">
        <ele>19.2</ele>
        <time>2021-07-02 18:50:49</time>
      </trkpt>
      <trkpt lat="29.27936" lon="-13.49737">
        <ele>19.2</ele>
        <time>2021-07-02 18:50:50</time>
      </trkpt>
      <trkpt lat="29.27936" lon="-13.49736">
        <ele>19.2</ele>
        <time>2021-07-02 18:50:51</time>
      </trkpt>
      <trkpt lat="29.27936" lon="-13.49736">
        <ele>19.2</ele>
        <time>2021-07-02 18:50:52</time>
      </trkpt>
      <trkpt lat="29.27936" lon="-13.49736">
        <ele>19.2</ele>
        <time>2021-07-02 18:50:53</time>
      </trkpt>
      <trkpt lat="29.27935" lon="-13.49736">
        <ele>19.2</ele>
        <time>2021-07-02 18:50:54</time>
      </trkpt>
      <trkpt lat="29.27936" lon="-13.4974">
        <ele>19.2</ele>
        <time>2021-07-02 18:50:55</time>
      </trkpt>
      <trkpt lat="29.27936" lon="-13.49741">
        <ele>19.2</ele>
        <time>2021-07-02 18:51:17</time>
      </trkpt>
      <trkpt lat="29.27936" lon="-13.49742">
        <ele>19.2</ele>
        <time>2021-07-02 18:51:18</time>
      </trkpt>
      <trkpt lat="29.27936" lon="-13.49742">
        <ele>18.8</ele>
        <time>2021-07-02 18:51:19</time>
      </trkpt>
      <trkpt lat="29.27936" lon="-13.49743">
        <ele>18.8</ele>
        <time>2021-07-02 18:51:20</time>
      </trkpt>
      <trkpt lat="29.27936" lon="-13.49742">
        <ele>18.8</ele>
        <time>2021-07-02 18:51:21</time>
      </trkpt>
      <trkpt lat="29.27936" lon="-13.49742">
        <ele>18.6</ele>
        <time>2021-07-02 18:51:22</time>
      </trkpt>
      <trkpt lat="29.27936" lon="-13.49742">
        <ele>17.4</ele>
        <time>2021-07-02 18:51:23</time>
      </trkpt>
      <trkpt lat="29.27936" lon="-13.49742">
        <ele>17.4</ele>
        <time>2021-07-02 18:52:38</time>
      </trkpt>
      <trkpt lat="29.27936" lon="-13.49742">
        <ele>17.4</ele>
        <time>2021-07-02 18:52:39</time>
      </trkpt>
      <trkpt lat="29.27936" lon="-13.49742">
        <ele>17.6</ele>
        <time>2021-07-02 18:52:40</time>
      </trkpt>
      <trkpt lat="29.27941" lon="-13.49741">
        <ele>17.8</ele>
        <time>2021-07-02 18:52:41</time>
      </trkpt>
      <trkpt lat="29.27944" lon="-13.4974">
        <ele>17.8</ele>
        <time>2021-07-02 18:52:49</time>
      </trkpt>
      <trkpt lat="29.27946" lon="-13.49739">
        <ele>17.8</ele>
        <time>2021-07-02 18:52:50</time>
      </trkpt>
      <trkpt lat="29.27949" lon="-13.49738">
        <ele>17.8</ele>
        <time>2021-07-02 18:52:51</time>
      </trkpt>
      <trkpt lat="29.27952" lon="-13.49737">
        <ele>17.8</ele>
        <time>2021-07-02 18:52:52</time>
      </trkpt>
      <trkpt lat="29.27955" lon="-13.49735">
        <ele>17.8</ele>
        <time>2021-07-02 18:52:53</time>
      </trkpt>
      <trkpt lat="29.27958" lon="-13.49734">
        <ele>17.6</ele>
        <time>2021-07-02 18:52:54</time>
      </trkpt>
      <trkpt lat="29.27961" lon="-13.49733">
        <ele>17.6</ele>
        <time>2021-07-02 18:52:55</time>
      </trkpt>
      <trkpt lat="29.27963" lon="-13.49732">
        <ele>17.4</ele>
        <time>2021-07-02 18:52:56</time>
      </trkpt>
      <trkpt lat="29.27966" lon="-13.49731">
        <ele>17.4</ele>
        <time>2021-07-02 18:52:57</time>
      </trkpt>
      <trkpt lat="29.27968" lon="-13.49731">
        <ele>17</ele>
        <time>2021-07-02 18:52:58</time>
      </trkpt>
      <trkpt lat="29.27971" lon="-13.4973">
        <ele>16.8</ele>
        <time>2021-07-02 18:52:59</time>
      </trkpt>
      <trkpt lat="29.27974" lon="-13.49729">
        <ele>16.6</ele>
        <time>2021-07-02 18:53:00</time>
      </trkpt>
      <trkpt lat="29.27978" lon="-13.49727">
        <ele>16.2</ele>
        <time>2021-07-02 18:53:01</time>
      </trkpt>
      <trkpt lat="29.27982" lon="-13.49727">
        <ele>16</ele>
        <time>2021-07-02 18:53:02</time>
      </trkpt>
      <trkpt lat="29.27985" lon="-13.49726">
        <ele>15.6</ele>
        <time>2021-07-02 18:53:03</time>
      </trkpt>
      <trkpt lat="29.27988" lon="-13.49726">
        <ele>15.4</ele>
        <time>2021-07-02 18:53:04</time>
      </trkpt>
      <trkpt lat="29.27992" lon="-13.49725">
        <ele>15</ele>
        <time>2021-07-02 18:53:05</time>
      </trkpt>
      <trkpt lat="29.27996" lon="-13.49725">
        <ele>14.6</ele>
        <time>2021-07-02 18:53:06</time>
      </trkpt>
      <trkpt lat="29.28" lon="-13.49725">
        <ele>14.2</ele>
        <time>2021-07-02 18:53:07</time>
      </trkpt>
      <trkpt lat="29.28004" lon="-13.49725">
        <ele>13.8</ele>
        <time>2021-07-02 18:53:08</time>
      </trkpt>
      <trkpt lat="29.28009" lon="-13.49724">
        <ele>13.4</ele>
        <time>2021-07-02 18:53:09</time>
      </trkpt>
      <trkpt lat="29.28013" lon="-13.49724">
        <ele>13.2</ele>
        <time>2021-07-02 18:53:10</time>
      </trkpt>
      <trkpt lat="29.28016" lon="-13.49723">
        <ele>12.8</ele>
        <time>2021-07-02 18:53:11</time>
      </trkpt>
      <trkpt lat="29.28019" lon="-13.49722">
        <ele>12.4</ele>
        <time>2021-07-02 18:53:12</time>
      </trkpt>
      <trkpt lat="29.28023" lon="-13.49722">
        <ele>12</ele>
        <time>2021-07-02 18:53:13</time>
      </trkpt>
      <trkpt lat="29.28027" lon="-13.49721">
        <ele>11.6</ele>
        <time>2021-07-02 18:53:14</time>
      </trkpt>
      <trkpt lat="29.28031" lon="-13.49721">
        <ele>11.4</ele>
        <time>2021-07-02 18:53:15</time>
      </trkpt>
      <trkpt lat="29.28035" lon="-13.4972">
        <ele>11</ele>
        <time>2021-07-02 18:53:16</time>
      </trkpt>
      <trkpt lat="29.28039" lon="-13.4972">
        <ele>10.8</ele>
        <time>2021-07-02 18:53:17</time>
      </trkpt>
      <trkpt lat="29.28043" lon="-13.49719">
        <ele>10.4</ele>
        <time>2021-07-02 18:53:18</time>
      </trkpt>
      <trkpt lat="29.28047" lon="-13.49719">
        <ele>10.2</ele>
        <time>2021-07-02 18:53:19</time>
      </trkpt>
      <trkpt lat="29.28051" lon="-13.49719">
        <ele>10</ele>
        <time>2021-07-02 18:53:20</time>
      </trkpt>
      <trkpt lat="29.28055" lon="-13.49719">
        <ele>10</ele>
        <time>2021-07-02 18:53:21</time>
      </trkpt>
      <trkpt lat="29.28059" lon="-13.49719">
        <ele>9.6</ele>
        <time>2021-07-02 18:53:22</time>
      </trkpt>
      <trkpt lat="29.28064" lon="-13.49719">
        <ele>9.6</ele>
        <time>2021-07-02 18:53:23</time>
      </trkpt>
      <trkpt lat="29.28068" lon="-13.49718">
        <ele>9.2</ele>
        <time>2021-07-02 18:53:24</time>
      </trkpt>
      <trkpt lat="29.28072" lon="-13.49718">
        <ele>9.2</ele>
        <time>2021-07-02 18:53:25</time>
      </trkpt>
      <trkpt lat="29.28076" lon="-13.49718">
        <ele>9</ele>
        <time>2021-07-02 18:53:26</time>
      </trkpt>
      <trkpt lat="29.28079" lon="-13.49717">
        <ele>9</ele>
        <time>2021-07-02 18:53:27</time>
      </trkpt>
      <trkpt lat="29.28083" lon="-13.49717">
        <ele>8.8</ele>
        <time>2021-07-02 18:53:28</time>
      </trkpt>
      <trkpt lat="29.28087" lon="-13.49716">
        <ele>8.8</ele>
        <time>2021-07-02 18:53:29</time>
      </trkpt>
      <trkpt lat="29.2809" lon="-13.49715">
        <ele>8.8</ele>
        <time>2021-07-02 18:53:30</time>
      </trkpt>
      <trkpt lat="29.28094" lon="-13.49714">
        <ele>8.8</ele>
        <time>2021-07-02 18:53:31</time>
      </trkpt>
      <trkpt lat="29.28098" lon="-13.49713">
        <ele>8.4</ele>
        <time>2021-07-02 18:53:32</time>
      </trkpt>
      <trkpt lat="29.28101" lon="-13.49711">
        <ele>8.4</ele>
        <time>2021-07-02 18:53:33</time>
      </trkpt>
      <trkpt lat="29.28105" lon="-13.4971">
        <ele>8.2</ele>
        <time>2021-07-02 18:53:34</time>
      </trkpt>
      <trkpt lat="29.28108" lon="-13.49709">
        <ele>8.2</ele>
        <time>2021-07-02 18:53:35</time>
      </trkpt>
      <trkpt lat="29.2811" lon="-13.49708">
        <ele>8.2</ele>
        <time>2021-07-02 18:53:36</time>
      </trkpt>
      <trkpt lat="29.28114" lon="-13.49707">
        <ele>8</ele>
        <time>2021-07-02 18:53:37</time>
      </trkpt>
      <trkpt lat="29.28117" lon="-13.49706">
        <ele>8</ele>
        <time>2021-07-02 18:53:38</time>
      </trkpt>
      <trkpt lat="29.28121" lon="-13.49705">
        <ele>7.8</ele>
        <time>2021-07-02 18:53:39</time>
      </trkpt>
      <trkpt lat="29.28124" lon="-13.49705">
        <ele>7.8</ele>
        <time>2021-07-02 18:53:40</time>
      </trkpt>
      <trkpt lat="29.28128" lon="-13.49705">
        <ele>7.8</ele>
        <time>2021-07-02 18:53:41</time>
      </trkpt>
      <trkpt lat="29.28131" lon="-13.49705">
        <ele>7.6</ele>
        <time>2021-07-02 18:53:42</time>
      </trkpt>
      <trkpt lat="29.28135" lon="-13.49705">
        <ele>7.6</ele>
        <time>2021-07-02 18:53:43</time>
      </trkpt>
      <trkpt lat="29.28138" lon="-13.49706">
        <ele>7.6</ele>
        <time>2021-07-02 18:53:44</time>
      </trkpt>
      <trkpt lat="29.28142" lon="-13.49707">
        <ele>7.6</ele>
        <time>2021-07-02 18:53:45</time>
      </trkpt>
      <trkpt lat="29.28146" lon="-13.49708">
        <ele>7.6</ele>
        <time>2021-07-02 18:53:46</time>
      </trkpt>
      <trkpt lat="29.28149" lon="-13.49709">
        <ele>7.6</ele>
        <time>2021-07-02 18:53:47</time>
      </trkpt>
      <trkpt lat="29.28152" lon="-13.49711">
        <ele>7.6</ele>
        <time>2021-07-02 18:53:48</time>
      </trkpt>
      <trkpt lat="29.28156" lon="-13.49712">
        <ele>7.6</ele>
        <time>2021-07-02 18:53:49</time>
      </trkpt>
      <trkpt lat="29.28159" lon="-13.49714">
        <ele>7.6</ele>
        <time>2021-07-02 18:53:50</time>
      </trkpt>
      <trkpt lat="29.28161" lon="-13.49716">
        <ele>7.6</ele>
        <time>2021-07-02 18:53:51</time>
      </trkpt>
      <trkpt lat="29.28164" lon="-13.49717">
        <ele>7.6</ele>
        <time>2021-07-02 18:53:52</time>
      </trkpt>
      <trkpt lat="29.28167" lon="-13.49719">
        <ele>7.6</ele>
        <time>2021-07-02 18:53:53</time>
      </trkpt>
      <trkpt lat="29.2817" lon="-13.49721">
        <ele>7.6</ele>
        <time>2021-07-02 18:53:54</time>
      </trkpt>
      <trkpt lat="29.28172" lon="-13.49722">
        <ele>7.6</ele>
        <time>2021-07-02 18:53:55</time>
      </trkpt>
      <trkpt lat="29.28175" lon="-13.49724">
        <ele>7.6</ele>
        <time>2021-07-02 18:53:56</time>
      </trkpt>
      <trkpt lat="29.28177" lon="-13.49726">
        <ele>7.8</ele>
        <time>2021-07-02 18:53:57</time>
      </trkpt>
      <trkpt lat="29.2818" lon="-13.49728">
        <ele>7.8</ele>
        <time>2021-07-02 18:53:58</time>
      </trkpt>
      <trkpt lat="29.2818" lon="-13.49728">
        <ele>7.8</ele>
        <time>2021-07-02 18:53:59</time>
      </trkpt>
      <trkpt lat="29.28185" lon="-13.49731">
        <ele>7.8</ele>
        <time>2021-07-02 18:54:00</time>
      </trkpt>
      <trkpt lat="29.28188" lon="-13.49733">
        <ele>7.8</ele>
        <time>2021-07-02 18:54:01</time>
      </trkpt>
      <trkpt lat="29.2819" lon="-13.49735">
        <ele>7.8</ele>
        <time>2021-07-02 18:54:02</time>
      </trkpt>
      <trkpt lat="29.28192" lon="-13.49737">
        <ele>7.8</ele>
        <time>2021-07-02 18:54:03</time>
      </trkpt>
      <trkpt lat="29.28195" lon="-13.49739">
        <ele>7.8</ele>
        <time>2021-07-02 18:54:04</time>
      </trkpt>
      <trkpt lat="29.28198" lon="-13.49741">
        <ele>8</ele>
        <time>2021-07-02 18:54:05</time>
      </trkpt>
      <trkpt lat="29.28201" lon="-13.49744">
        <ele>8</ele>
        <time>2021-07-02 18:54:06</time>
      </trkpt>
      <trkpt lat="29.28204" lon="-13.49746">
        <ele>8</ele>
        <time>2021-07-02 18:54:07</time>
      </trkpt>
      <trkpt lat="29.28207" lon="-13.49748">
        <ele>8</ele>
        <time>2021-07-02 18:54:08</time>
      </trkpt>
      <trkpt lat="29.28209" lon="-13.49751">
        <ele>8</ele>
        <time>2021-07-02 18:54:09</time>
      </trkpt>
      <trkpt lat="29.28212" lon="-13.49754">
        <ele>8</ele>
        <time>2021-07-02 18:54:10</time>
      </trkpt>
      <trkpt lat="29.28214" lon="-13.49757">
        <ele>8</ele>
        <time>2021-07-02 18:54:11</time>
      </trkpt>
      <trkpt lat="29.28216" lon="-13.4976">
        <ele>8</ele>
        <time>2021-07-02 18:54:12</time>
      </trkpt>
      <trkpt lat="29.28217" lon="-13.49763">
        <ele>8</ele>
        <time>2021-07-02 18:54:13</time>
      </trkpt>
      <trkpt lat="29.28218" lon="-13.49766">
        <ele>8</ele>
        <time>2021-07-02 18:54:14</time>
      </trkpt>
      <trkpt lat="29.2822" lon="-13.4977">
        <ele>8.2</ele>
        <time>2021-07-02 18:54:15</time>
      </trkpt>
      <trkpt lat="29.28222" lon="-13.49774">
        <ele>8.2</ele>
        <time>2021-07-02 18:54:16</time>
      </trkpt>
      <trkpt lat="29.28224" lon="-13.49778">
        <ele>8.2</ele>
        <time>2021-07-02 18:54:17</time>
      </trkpt>
      <trkpt lat="29.28226" lon="-13.49781">
        <ele>8.2</ele>
        <time>2021-07-02 18:54:18</time>
      </trkpt>
      <trkpt lat="29.28228" lon="-13.49785">
        <ele>8.2</ele>
        <time>2021-07-02 18:54:19</time>
      </trkpt>
      <trkpt lat="29.2823" lon="-13.49788">
        <ele>8.2</ele>
        <time>2021-07-02 18:54:20</time>
      </trkpt>
      <trkpt lat="29.28233" lon="-13.49791">
        <ele>8.2</ele>
        <time>2021-07-02 18:54:21</time>
      </trkpt>
      <trkpt lat="29.28236" lon="-13.49793">
        <ele>8.2</ele>
        <time>2021-07-02 18:54:22</time>
      </trkpt>
      <trkpt lat="29.28239" lon="-13.49796">
        <ele>8.2</ele>
        <time>2021-07-02 18:54:23</time>
      </trkpt>
      <trkpt lat="29.28242" lon="-13.49798">
        <ele>8.2</ele>
        <time>2021-07-02 18:54:24</time>
      </trkpt>
      <trkpt lat="29.28246" lon="-13.49799">
        <ele>8</ele>
        <time>2021-07-02 18:54:25</time>
      </trkpt>
      <trkpt lat="29.28249" lon="-13.49801">
        <ele>8</ele>
        <time>2021-07-02 18:54:26</time>
      </trkpt>
      <trkpt lat="29.28253" lon="-13.49802">
        <ele>8</ele>
        <time>2021-07-02 18:54:27</time>
      </trkpt>
      <trkpt lat="29.28256" lon="-13.49803">
        <ele>8</ele>
        <time>2021-07-02 18:54:28</time>
      </trkpt>
      <trkpt lat="29.28259" lon="-13.49804">
        <ele>8</ele>
        <time>2021-07-02 18:54:29</time>
      </trkpt>
      <trkpt lat="29.28262" lon="-13.49805">
        <ele>8</ele>
        <time>2021-07-02 18:54:30</time>
      </trkpt>
      <trkpt lat="29.28265" lon="-13.49807">
        <ele>7.8</ele>
        <time>2021-07-02 18:54:31</time>
      </trkpt>
      <trkpt lat="29.28267" lon="-13.49808">
        <ele>7.8</ele>
        <time>2021-07-02 18:54:32</time>
      </trkpt>
      <trkpt lat="29.28269" lon="-13.49811">
        <ele>7.8</ele>
        <time>2021-07-02 18:54:33</time>
      </trkpt>
      <trkpt lat="29.28271" lon="-13.49814">
        <ele>7.6</ele>
        <time>2021-07-02 18:54:34</time>
      </trkpt>
      <trkpt lat="29.28271" lon="-13.49817">
        <ele>7.6</ele>
        <time>2021-07-02 18:54:35</time>
      </trkpt>
      <trkpt lat="29.28272" lon="-13.49821">
        <ele>7.6</ele>
        <time>2021-07-02 18:54:36</time>
      </trkpt>
      <trkpt lat="29.28271" lon="-13.49824">
        <ele>7.6</ele>
        <time>2021-07-02 18:54:37</time>
      </trkpt>
      <trkpt lat="29.2827" lon="-13.49828">
        <ele>7.6</ele>
        <time>2021-07-02 18:54:38</time>
      </trkpt>
      <trkpt lat="29.28268" lon="-13.4983">
        <ele>7.8</ele>
        <time>2021-07-02 18:54:39</time>
      </trkpt>
      <trkpt lat="29.28266" lon="-13.49833">
        <ele>7.8</ele>
        <time>2021-07-02 18:54:40</time>
      </trkpt>
      <trkpt lat="29.28264" lon="-13.49836">
        <ele>8.2</ele>
        <time>2021-07-02 18:54:41</time>
      </trkpt>
      <trkpt lat="29.28262" lon="-13.49838">
        <ele>8.2</ele>
        <time>2021-07-02 18:54:42</time>
      </trkpt>
      <trkpt lat="29.2826" lon="-13.4984">
        <ele>8.6</ele>
        <time>2021-07-02 18:54:43</time>
      </trkpt>
      <trkpt lat="29.28259" lon="-13.49842">
        <ele>8.8</ele>
        <time>2021-07-02 18:54:44</time>
      </trkpt>
      <trkpt lat="29.28257" lon="-13.49843">
        <ele>9</ele>
        <time>2021-07-02 18:54:45</time>
      </trkpt>
      <trkpt lat="29.28255" lon="-13.49844">
        <ele>9.2</ele>
        <time>2021-07-02 18:54:46</time>
      </trkpt>
      <trkpt lat="29.28252" lon="-13.49845">
        <ele>9.4</ele>
        <time>2021-07-02 18:54:47</time>
      </trkpt>
      <trkpt lat="29.2825" lon="-13.49846">
        <ele>9.6</ele>
        <time>2021-07-02 18:54:48</time>
      </trkpt>
      <trkpt lat="29.28247" lon="-13.49848">
        <ele>9.6</ele>
        <time>2021-07-02 18:54:49</time>
      </trkpt>
      <trkpt lat="29.28244" lon="-13.49849">
        <ele>10</ele>
        <time>2021-07-02 18:54:50</time>
      </trkpt>
      <trkpt lat="29.28241" lon="-13.49851">
        <ele>10</ele>
        <time>2021-07-02 18:54:51</time>
      </trkpt>
      <trkpt lat="29.28239" lon="-13.49853">
        <ele>10.2</ele>
        <time>2021-07-02 18:54:52</time>
      </trkpt>
      <trkpt lat="29.28236" lon="-13.49856">
        <ele>10.2</ele>
        <time>2021-07-02 18:54:53</time>
      </trkpt>
      <trkpt lat="29.28233" lon="-13.49859">
        <ele>10.2</ele>
        <time>2021-07-02 18:54:54</time>
      </trkpt>
      <trkpt lat="29.2823" lon="-13.49862">
        <ele>10.2</ele>
        <time>2021-07-02 18:54:55</time>
      </trkpt>
      <trkpt lat="29.28228" lon="-13.49865">
        <ele>10.2</ele>
        <time>2021-07-02 18:54:56</time>
      </trkpt>
      <trkpt lat="29.28225" lon="-13.49867">
        <ele>10.4</ele>
        <time>2021-07-02 18:54:57</time>
      </trkpt>
      <trkpt lat="29.28222" lon="-13.4987">
        <ele>10.4</ele>
        <time>2021-07-02 18:54:58</time>
      </trkpt>
      <trkpt lat="29.28219" lon="-13.49872">
        <ele>10.4</ele>
        <time>2021-07-02 18:54:59</time>
      </trkpt>
      <trkpt lat="29.28215" lon="-13.49874">
        <ele>10.4</ele>
        <time>2021-07-02 18:55:00</time>
      </trkpt>
      <trkpt lat="29.28212" lon="-13.49875">
        <ele>10.4</ele>
        <time>2021-07-02 18:55:01</time>
      </trkpt>
      <trkpt lat="29.28208" lon="-13.49877">
        <ele>10.8</ele>
        <time>2021-07-02 18:55:02</time>
      </trkpt>
      <trkpt lat="29.28205" lon="-13.49878">
        <ele>10.8</ele>
        <time>2021-07-02 18:55:03</time>
      </trkpt>
      <trkpt lat="29.28201" lon="-13.49879">
        <ele>10.8</ele>
        <time>2021-07-02 18:55:04</time>
      </trkpt>
      <trkpt lat="29.28198" lon="-13.4988">
        <ele>11</ele>
        <time>2021-07-02 18:55:05</time>
      </trkpt>
      <trkpt lat="29.28194" lon="-13.49881">
        <ele>11</ele>
        <time>2021-07-02 18:55:06</time>
      </trkpt>
      <trkpt lat="29.2819" lon="-13.49883">
        <ele>11.2</ele>
        <time>2021-07-02 18:55:07</time>
      </trkpt>
      <trkpt lat="29.28185" lon="-13.49884">
        <ele>11.2</ele>
        <time>2021-07-02 18:55:08</time>
      </trkpt>
      <trkpt lat="29.28181" lon="-13.49886">
        <ele>11.2</ele>
        <time>2021-07-02 18:55:09</time>
      </trkpt>
      <trkpt lat="29.28177" lon="-13.49888">
        <ele>11.2</ele>
        <time>2021-07-02 18:55:10</time>
      </trkpt>
      <trkpt lat="29.28173" lon="-13.4989">
        <ele>11.4</ele>
        <time>2021-07-02 18:55:11</time>
      </trkpt>
      <trkpt lat="29.28169" lon="-13.49893">
        <ele>11.4</ele>
        <time>2021-07-02 18:55:12</time>
      </trkpt>
      <trkpt lat="29.28165" lon="-13.49895">
        <ele>11.4</ele>
        <time>2021-07-02 18:55:13</time>
      </trkpt>
      <trkpt lat="29.28161" lon="-13.49899">
        <ele>11.8</ele>
        <time>2021-07-02 18:55:14</time>
      </trkpt>
      <trkpt lat="29.28157" lon="-13.49902">
        <ele>11.8</ele>
        <time>2021-07-02 18:55:15</time>
      </trkpt>
      <trkpt lat="29.28153" lon="-13.49905">
        <ele>11.8</ele>
        <time>2021-07-02 18:55:16</time>
      </trkpt>
      <trkpt lat="29.2815" lon="-13.49909">
        <ele>12</ele>
        <time>2021-07-02 18:55:17</time>
      </trkpt>
      <trkpt lat="29.28147" lon="-13.49913">
        <ele>12</ele>
        <time>2021-07-02 18:55:18</time>
      </trkpt>
      <trkpt lat="29.28144" lon="-13.49917">
        <ele>12</ele>
        <time>2021-07-02 18:55:19</time>
      </trkpt>
      <trkpt lat="29.28142" lon="-13.49922">
        <ele>12</ele>
        <time>2021-07-02 18:55:20</time>
      </trkpt>
      <trkpt lat="29.2814" lon="-13.49927">
        <ele>12</ele>
        <time>2021-07-02 18:55:21</time>
      </trkpt>
      <trkpt lat="29.28137" lon="-13.49931">
        <ele>12</ele>
        <time>2021-07-02 18:55:22</time>
      </trkpt>
      <trkpt lat="29.28135" lon="-13.49936">
        <ele>12.2</ele>
        <time>2021-07-02 18:55:23</time>
      </trkpt>
      <trkpt lat="29.28132" lon="-13.49941">
        <ele>12.2</ele>
        <time>2021-07-02 18:55:24</time>
      </trkpt>
      <trkpt lat="29.28129" lon="-13.49946">
        <ele>12.2</ele>
        <time>2021-07-02 18:55:25</time>
      </trkpt>
      <trkpt lat="29.28125" lon="-13.49951">
        <ele>12.2</ele>
        <time>2021-07-02 18:55:26</time>
      </trkpt>
      <trkpt lat="29.28122" lon="-13.49956">
        <ele>12.4</ele>
        <time>2021-07-02 18:55:27</time>
      </trkpt>
      <trkpt lat="29.28119" lon="-13.49961">
        <ele>12.4</ele>
        <time>2021-07-02 18:55:28</time>
      </trkpt>
      <trkpt lat="29.28116" lon="-13.49966">
        <ele>12.4</ele>
        <time>2021-07-02 18:55:29</time>
      </trkpt>
      <trkpt lat="29.28114" lon="-13.49971">
        <ele>12.8</ele>
        <time>2021-07-02 18:55:30</time>
      </trkpt>
      <trkpt lat="29.28111" lon="-13.49976">
        <ele>12.8</ele>
        <time>2021-07-02 18:55:31</time>
      </trkpt>
      <trkpt lat="29.28108" lon="-13.49981">
        <ele>12.8</ele>
        <time>2021-07-02 18:55:32</time>
      </trkpt>
      <trkpt lat="29.28104" lon="-13.49985">
        <ele>12.8</ele>
        <time>2021-07-02 18:55:33</time>
      </trkpt>
      <trkpt lat="29.28101" lon="-13.4999">
        <ele>13</ele>
        <time>2021-07-02 18:55:34</time>
      </trkpt>
      <trkpt lat="29.28097" lon="-13.49994">
        <ele>13</ele>
        <time>2021-07-02 18:55:35</time>
      </trkpt>
      <trkpt lat="29.28094" lon="-13.49998">
        <ele>13.2</ele>
        <time>2021-07-02 18:55:36</time>
      </trkpt>
      <trkpt lat="29.28089" lon="-13.50002">
        <ele>13.2</ele>
        <time>2021-07-02 18:55:37</time>
      </trkpt>
      <trkpt lat="29.28085" lon="-13.50006">
        <ele>13.2</ele>
        <time>2021-07-02 18:55:38</time>
      </trkpt>
      <trkpt lat="29.28081" lon="-13.5001">
        <ele>13.2</ele>
        <time>2021-07-02 18:55:39</time>
      </trkpt>
      <trkpt lat="29.28077" lon="-13.50015">
        <ele>13.4</ele>
        <time>2021-07-02 18:55:40</time>
      </trkpt>
      <trkpt lat="29.28074" lon="-13.50019">
        <ele>13.4</ele>
        <time>2021-07-02 18:55:41</time>
      </trkpt>
      <trkpt lat="29.28069" lon="-13.50023">
        <ele>13.4</ele>
        <time>2021-07-02 18:55:42</time>
      </trkpt>
      <trkpt lat="29.28066" lon="-13.50027">
        <ele>13.4</ele>
        <time>2021-07-02 18:55:43</time>
      </trkpt>
      <trkpt lat="29.28062" lon="-13.50032">
        <ele>13.4</ele>
        <time>2021-07-02 18:55:44</time>
      </trkpt>
      <trkpt lat="29.28058" lon="-13.50037">
        <ele>13.8</ele>
        <time>2021-07-02 18:55:45</time>
      </trkpt>
      <trkpt lat="29.28054" lon="-13.50042">
        <ele>13.8</ele>
        <time>2021-07-02 18:55:46</time>
      </trkpt>
      <trkpt lat="29.28051" lon="-13.50046">
        <ele>13.8</ele>
        <time>2021-07-02 18:55:47</time>
      </trkpt>
      <trkpt lat="29.28047" lon="-13.50051">
        <ele>13.8</ele>
        <time>2021-07-02 18:55:48</time>
      </trkpt>
      <trkpt lat="29.28043" lon="-13.50056">
        <ele>13.8</ele>
        <time>2021-07-02 18:55:49</time>
      </trkpt>
      <trkpt lat="29.28039" lon="-13.50061">
        <ele>13.8</ele>
        <time>2021-07-02 18:55:50</time>
      </trkpt>
      <trkpt lat="29.28035" lon="-13.50065">
        <ele>13.8</ele>
        <time>2021-07-02 18:55:51</time>
      </trkpt>
      <trkpt lat="29.28031" lon="-13.5007">
        <ele>13.4</ele>
        <time>2021-07-02 18:55:52</time>
      </trkpt>
      <trkpt lat="29.28027" lon="-13.50074">
        <ele>13.4</ele>
        <time>2021-07-02 18:55:53</time>
      </trkpt>
      <trkpt lat="29.28023" lon="-13.50078">
        <ele>13.4</ele>
        <time>2021-07-02 18:55:54</time>
      </trkpt>
      <trkpt lat="29.28018" lon="-13.50083">
        <ele>13.4</ele>
        <time>2021-07-02 18:55:55</time>
      </trkpt>
      <trkpt lat="29.28014" lon="-13.50087">
        <ele>13.4</ele>
        <time>2021-07-02 18:55:56</time>
      </trkpt>
      <trkpt lat="29.2801" lon="-13.50091">
        <ele>13.2</ele>
        <time>2021-07-02 18:55:57</time>
      </trkpt>
      <trkpt lat="29.28006" lon="-13.50096">
        <ele>13.2</ele>
        <time>2021-07-02 18:55:58</time>
      </trkpt>
      <trkpt lat="29.28002" lon="-13.501">
        <ele>13.2</ele>
        <time>2021-07-02 18:55:59</time>
      </trkpt>
      <trkpt lat="29.27998" lon="-13.50105">
        <ele>12.8</ele>
        <time>2021-07-02 18:56:00</time>
      </trkpt>
      <trkpt lat="29.27995" lon="-13.50108">
        <ele>12.8</ele>
        <time>2021-07-02 18:56:01</time>
      </trkpt>
      <trkpt lat="29.27992" lon="-13.50113">
        <ele>12.8</ele>
        <time>2021-07-02 18:56:02</time>
      </trkpt>
      <trkpt lat="29.27988" lon="-13.50116">
        <ele>12.8</ele>
        <time>2021-07-02 18:56:03</time>
      </trkpt>
      <trkpt lat="29.27986" lon="-13.50121">
        <ele>12.8</ele>
        <time>2021-07-02 18:56:04</time>
      </trkpt>
      <trkpt lat="29.27984" lon="-13.50126">
        <ele>12.8</ele>
        <time>2021-07-02 18:56:05</time>
      </trkpt>
      <trkpt lat="29.27982" lon="-13.50131">
        <ele>12.8</ele>
        <time>2021-07-02 18:56:06</time>
      </trkpt>
      <trkpt lat="29.27979" lon="-13.50137">
        <ele>12.8</ele>
        <time>2021-07-02 18:56:07</time>
      </trkpt>
      <trkpt lat="29.27976" lon="-13.50143">
        <ele>12.8</ele>
        <time>2021-07-02 18:56:08</time>
      </trkpt>
      <trkpt lat="29.27975" lon="-13.50149">
        <ele>12.8</ele>
        <time>2021-07-02 18:56:09</time>
      </trkpt>
      <trkpt lat="29.27972" lon="-13.50155">
        <ele>12.8</ele>
        <time>2021-07-02 18:56:10</time>
      </trkpt>
      <trkpt lat="29.27969" lon="-13.5016">
        <ele>12.8</ele>
        <time>2021-07-02 18:56:11</time>
      </trkpt>
      <trkpt lat="29.27968" lon="-13.50165">
        <ele>13.2</ele>
        <time>2021-07-02 18:56:12</time>
      </trkpt>
      <trkpt lat="29.27965" lon="-13.5017">
        <ele>13.2</ele>
        <time>2021-07-02 18:56:13</time>
      </trkpt>
      <trkpt lat="29.27964" lon="-13.50176">
        <ele>13.6</ele>
        <time>2021-07-02 18:56:14</time>
      </trkpt>
      <trkpt lat="29.27962" lon="-13.5018">
        <ele>13.8</ele>
        <time>2021-07-02 18:56:15</time>
      </trkpt>
      <trkpt lat="29.2796" lon="-13.50185">
        <ele>14</ele>
        <time>2021-07-02 18:56:16</time>
      </trkpt>
      <trkpt lat="29.27958" lon="-13.5019">
        <ele>14.2</ele>
        <time>2021-07-02 18:56:17</time>
      </trkpt>
      <trkpt lat="29.27956" lon="-13.50194">
        <ele>14.4</ele>
        <time>2021-07-02 18:56:18</time>
      </trkpt>
      <trkpt lat="29.27954" lon="-13.50199">
        <ele>14.6</ele>
        <time>2021-07-02 18:56:19</time>
      </trkpt>
      <trkpt lat="29.27951" lon="-13.50203">
        <ele>14.6</ele>
        <time>2021-07-02 18:56:20</time>
      </trkpt>
      <trkpt lat="29.27948" lon="-13.50208">
        <ele>14.8</ele>
        <time>2021-07-02 18:56:21</time>
      </trkpt>
      <trkpt lat="29.27944" lon="-13.50212">
        <ele>14.8</ele>
        <time>2021-07-02 18:56:22</time>
      </trkpt>
      <trkpt lat="29.27941" lon="-13.50216">
        <ele>15</ele>
        <time>2021-07-02 18:56:23</time>
      </trkpt>
      <trkpt lat="29.27937" lon="-13.5022">
        <ele>15</ele>
        <time>2021-07-02 18:56:24</time>
      </trkpt>
      <trkpt lat="29.27934" lon="-13.50225">
        <ele>15.4</ele>
        <time>2021-07-02 18:56:25</time>
      </trkpt>
      <trkpt lat="29.2793" lon="-13.50228">
        <ele>15.4</ele>
        <time>2021-07-02 18:56:26</time>
      </trkpt>
      <trkpt lat="29.27926" lon="-13.50233">
        <ele>15.6</ele>
        <time>2021-07-02 18:56:27</time>
      </trkpt>
      <trkpt lat="29.27922" lon="-13.50238">
        <ele>15.6</ele>
        <time>2021-07-02 18:56:28</time>
      </trkpt>
      <trkpt lat="29.27918" lon="-13.50243">
        <ele>15.6</ele>
        <time>2021-07-02 18:56:29</time>
      </trkpt>
      <trkpt lat="29.27915" lon="-13.50248">
        <ele>15.8</ele>
        <time>2021-07-02 18:56:30</time>
      </trkpt>
      <trkpt lat="29.27911" lon="-13.50252">
        <ele>15.8</ele>
        <time>2021-07-02 18:56:31</time>
      </trkpt>
      <trkpt lat="29.27907" lon="-13.50257">
        <ele>15.8</ele>
        <time>2021-07-02 18:56:32</time>
      </trkpt>
      <trkpt lat="29.27903" lon="-13.50261">
        <ele>15.8</ele>
        <time>2021-07-02 18:56:33</time>
      </trkpt>
      <trkpt lat="29.27899" lon="-13.50265">
        <ele>16</ele>
        <time>2021-07-02 18:56:34</time>
      </trkpt>
      <trkpt lat="29.27894" lon="-13.50269">
        <ele>16</ele>
        <time>2021-07-02 18:56:35</time>
      </trkpt>
      <trkpt lat="29.2789" lon="-13.50272">
        <ele>16</ele>
        <time>2021-07-02 18:56:36</time>
      </trkpt>
      <trkpt lat="29.27885" lon="-13.50274">
        <ele>16</ele>
        <time>2021-07-02 18:56:37</time>
      </trkpt>
      <trkpt lat="29.2788" lon="-13.50276">
        <ele>16.4</ele>
        <time>2021-07-02 18:56:38</time>
      </trkpt>
      <trkpt lat="29.27876" lon="-13.50278">
        <ele>16.4</ele>
        <time>2021-07-02 18:56:39</time>
      </trkpt>
      <trkpt lat="29.27871" lon="-13.50279">
        <ele>16.4</ele>
        <time>2021-07-02 18:56:40</time>
      </trkpt>
      <trkpt lat="29.27865" lon="-13.5028">
        <ele>16.4</ele>
        <time>2021-07-02 18:56:41</time>
      </trkpt>
      <trkpt lat="29.2786" lon="-13.5028">
        <ele>16.4</ele>
        <time>2021-07-02 18:56:42</time>
      </trkpt>
      <trkpt lat="29.27856" lon="-13.50282">
        <ele>16.4</ele>
        <time>2021-07-02 18:56:43</time>
      </trkpt>
      <trkpt lat="29.27852" lon="-13.50285">
        <ele>16.4</ele>
        <time>2021-07-02 18:56:44</time>
      </trkpt>
      <trkpt lat="29.27848" lon="-13.50289">
        <ele>16.4</ele>
        <time>2021-07-02 18:56:45</time>
      </trkpt>
      <trkpt lat="29.27844" lon="-13.50293">
        <ele>16.4</ele>
        <time>2021-07-02 18:56:46</time>
      </trkpt>
      <trkpt lat="29.27842" lon="-13.50296">
        <ele>16.4</ele>
        <time>2021-07-02 18:56:47</time>
      </trkpt>
      <trkpt lat="29.2784" lon="-13.503">
        <ele>16.4</ele>
        <time>2021-07-02 18:56:48</time>
      </trkpt>
      <trkpt lat="29.27838" lon="-13.50302">
        <ele>16.4</ele>
        <time>2021-07-02 18:56:49</time>
      </trkpt>
      <trkpt lat="29.27837" lon="-13.50304">
        <ele>16.4</ele>
        <time>2021-07-02 18:56:50</time>
      </trkpt>
      <trkpt lat="29.27837" lon="-13.50304">
        <ele>16.4</ele>
        <time>2021-07-02 18:56:51</time>
      </trkpt>
      <trkpt lat="29.27838" lon="-13.50304">
        <ele>16.4</ele>
        <time>2021-07-02 18:56:52</time>
      </trkpt>
      <trkpt lat="29.27838" lon="-13.50304">
        <ele>16.4</ele>
        <time>2021-07-02 18:56:53</time>
      </trkpt>
      <trkpt lat="29.27837" lon="-13.50303">
        <ele>16.6</ele>
        <time>2021-07-02 18:56:54</time>
      </trkpt>
      <trkpt lat="29.27838" lon="-13.50303">
        <ele>16.6</ele>
        <time>2021-07-02 18:56:55</time>
      </trkpt>
      <trkpt lat="29.27832" lon="-13.50309">
        <ele>16.8</ele>
        <time>2021-07-02 18:56:56</time>
      </trkpt>
      <trkpt lat="29.27829" lon="-13.50311">
        <ele>16.8</ele>
        <time>2021-07-02 18:57:07</time>
      </trkpt>
      <trkpt lat="29.27827" lon="-13.50314">
        <ele>16.8</ele>
        <time>2021-07-02 18:57:08</time>
      </trkpt>
      <trkpt lat="29.27824" lon="-13.50317">
        <ele>16.8</ele>
        <time>2021-07-02 18:57:09</time>
      </trkpt>
      <trkpt lat="29.27821" lon="-13.50321">
        <ele>16.8</ele>
        <time>2021-07-02 18:57:10</time>
      </trkpt>
      <trkpt lat="29.27817" lon="-13.50325">
        <ele>16.8</ele>
        <time>2021-07-02 18:57:11</time>
      </trkpt>
      <trkpt lat="29.27814" lon="-13.50328">
        <ele>16.8</ele>
        <time>2021-07-02 18:57:12</time>
      </trkpt>
      <trkpt lat="29.27811" lon="-13.50332">
        <ele>16.8</ele>
        <time>2021-07-02 18:57:13</time>
      </trkpt>
      <trkpt lat="29.27807" lon="-13.50336">
        <ele>16.8</ele>
        <time>2021-07-02 18:57:14</time>
      </trkpt>
      <trkpt lat="29.27803" lon="-13.5034">
        <ele>16.8</ele>
        <time>2021-07-02 18:57:15</time>
      </trkpt>
      <trkpt lat="29.278" lon="-13.50345">
        <ele>16.8</ele>
        <time>2021-07-02 18:57:16</time>
      </trkpt>
      <trkpt lat="29.27796" lon="-13.50348">
        <ele>16.8</ele>
        <time>2021-07-02 18:57:17</time>
      </trkpt>
      <trkpt lat="29.27793" lon="-13.50352">
        <ele>16.8</ele>
        <time>2021-07-02 18:57:18</time>
      </trkpt>
      <trkpt lat="29.27789" lon="-13.50356">
        <ele>16.8</ele>
        <time>2021-07-02 18:57:19</time>
      </trkpt>
      <trkpt lat="29.27786" lon="-13.5036">
        <ele>16.8</ele>
        <time>2021-07-02 18:57:20</time>
      </trkpt>
      <trkpt lat="29.27783" lon="-13.50364">
        <ele>16.8</ele>
        <time>2021-07-02 18:57:21</time>
      </trkpt>
      <trkpt lat="29.27781" lon="-13.50368">
        <ele>16.8</ele>
        <time>2021-07-02 18:57:22</time>
      </trkpt>
      <trkpt lat="29.27779" lon="-13.50373">
        <ele>16.8</ele>
        <time>2021-07-02 18:57:23</time>
      </trkpt>
      <trkpt lat="29.27777" lon="-13.50378">
        <ele>16.8</ele>
        <time>2021-07-02 18:57:24</time>
      </trkpt>
      <trkpt lat="29.27775" lon="-13.50383">
        <ele>16.8</ele>
        <time>2021-07-02 18:57:25</time>
      </trkpt>
      <trkpt lat="29.27772" lon="-13.50388">
        <ele>16.8</ele>
        <time>2021-07-02 18:57:26</time>
      </trkpt>
      <trkpt lat="29.27769" lon="-13.50393">
        <ele>17</ele>
        <time>2021-07-02 18:57:27</time>
      </trkpt>
      <trkpt lat="29.27766" lon="-13.50398">
        <ele>17</ele>
        <time>2021-07-02 18:57:28</time>
      </trkpt>
      <trkpt lat="29.27763" lon="-13.50403">
        <ele>17.2</ele>
        <time>2021-07-02 18:57:29</time>
      </trkpt>
      <trkpt lat="29.27759" lon="-13.50408">
        <ele>17.2</ele>
        <time>2021-07-02 18:57:30</time>
      </trkpt>
      <trkpt lat="29.27756" lon="-13.50412">
        <ele>17.2</ele>
        <time>2021-07-02 18:57:31</time>
      </trkpt>
      <trkpt lat="29.27753" lon="-13.50417">
        <ele>17.2</ele>
        <time>2021-07-02 18:57:32</time>
      </trkpt>
      <trkpt lat="29.2775" lon="-13.50422">
        <ele>17.2</ele>
        <time>2021-07-02 18:57:33</time>
      </trkpt>
      <trkpt lat="29.27747" lon="-13.50426">
        <ele>17.2</ele>
        <time>2021-07-02 18:57:34</time>
      </trkpt>
      <trkpt lat="29.27745" lon="-13.5043">
        <ele>17.2</ele>
        <time>2021-07-02 18:57:35</time>
      </trkpt>
      <trkpt lat="29.27742" lon="-13.50434">
        <ele>17.2</ele>
        <time>2021-07-02 18:57:36</time>
      </trkpt>
      <trkpt lat="29.27738" lon="-13.50438">
        <ele>17.4</ele>
        <time>2021-07-02 18:57:37</time>
      </trkpt>
      <trkpt lat="29.27735" lon="-13.50442">
        <ele>17.4</ele>
        <time>2021-07-02 18:57:38</time>
      </trkpt>
      <trkpt lat="29.27731" lon="-13.50445">
        <ele>17.4</ele>
        <time>2021-07-02 18:57:39</time>
      </trkpt>
      <trkpt lat="29.27728" lon="-13.50449">
        <ele>17.4</ele>
        <time>2021-07-02 18:57:40</time>
      </trkpt>
      <trkpt lat="29.27725" lon="-13.50453">
        <ele>17.4</ele>
        <time>2021-07-02 18:57:41</time>
      </trkpt>
      <trkpt lat="29.27721" lon="-13.50456">
        <ele>17.8</ele>
        <time>2021-07-02 18:57:42</time>
      </trkpt>
      <trkpt lat="29.27717" lon="-13.5046">
        <ele>17.8</ele>
        <time>2021-07-02 18:57:43</time>
      </trkpt>
      <trkpt lat="29.27713" lon="-13.50464">
        <ele>17.8</ele>
        <time>2021-07-02 18:57:44</time>
      </trkpt>
      <trkpt lat="29.27709" lon="-13.50468">
        <ele>17.8</ele>
        <time>2021-07-02 18:57:45</time>
      </trkpt>
      <trkpt lat="29.27704" lon="-13.50472">
        <ele>17.8</ele>
        <time>2021-07-02 18:57:46</time>
      </trkpt>
      <trkpt lat="29.277" lon="-13.50477">
        <ele>17.8</ele>
        <time>2021-07-02 18:57:47</time>
      </trkpt>
      <trkpt lat="29.27696" lon="-13.50481">
        <ele>18</ele>
        <time>2021-07-02 18:57:48</time>
      </trkpt>
      <trkpt lat="29.27692" lon="-13.50485">
        <ele>18</ele>
        <time>2021-07-02 18:57:49</time>
      </trkpt>
      <trkpt lat="29.27688" lon="-13.50489">
        <ele>18.2</ele>
        <time>2021-07-02 18:57:50</time>
      </trkpt>
      <trkpt lat="29.27684" lon="-13.50493">
        <ele>18.2</ele>
        <time>2021-07-02 18:57:51</time>
      </trkpt>
      <trkpt lat="29.27679" lon="-13.50497">
        <ele>18.2</ele>
        <time>2021-07-02 18:57:52</time>
      </trkpt>
      <trkpt lat="29.27675" lon="-13.50501">
        <ele>18.2</ele>
        <time>2021-07-02 18:57:53</time>
      </trkpt>
      <trkpt lat="29.27671" lon="-13.50505">
        <ele>18.2</ele>
        <time>2021-07-02 18:57:54</time>
      </trkpt>
      <trkpt lat="29.27667" lon="-13.5051">
        <ele>18.2</ele>
        <time>2021-07-02 18:57:55</time>
      </trkpt>
      <trkpt lat="29.27663" lon="-13.50514">
        <ele>18.2</ele>
        <time>2021-07-02 18:57:56</time>
      </trkpt>
      <trkpt lat="29.27658" lon="-13.50518">
        <ele>18.2</ele>
        <time>2021-07-02 18:57:57</time>
      </trkpt>
      <trkpt lat="29.27654" lon="-13.50522">
        <ele>18.4</ele>
        <time>2021-07-02 18:57:58</time>
      </trkpt>
      <trkpt lat="29.27649" lon="-13.50526">
        <ele>18.4</ele>
        <time>2021-07-02 18:57:59</time>
      </trkpt>
      <trkpt lat="29.27644" lon="-13.5053">
        <ele>18.4</ele>
        <time>2021-07-02 18:58:00</time>
      </trkpt>
      <trkpt lat="29.2764" lon="-13.50535">
        <ele>18.4</ele>
        <time>2021-07-02 18:58:01</time>
      </trkpt>
      <trkpt lat="29.27636" lon="-13.50539">
        <ele>18.6</ele>
        <time>2021-07-02 18:58:02</time>
      </trkpt>
      <trkpt lat="29.27631" lon="-13.5054">
        <ele>18.6</ele>
        <time>2021-07-02 18:58:03</time>
      </trkpt>
      <trkpt lat="29.27626" lon="-13.50541">
        <ele>18.6</ele>
        <time>2021-07-02 18:58:04</time>
      </trkpt>
      <trkpt lat="29.27622" lon="-13.50542">
        <ele>19</ele>
        <time>2021-07-02 18:58:05</time>
      </trkpt>
      <trkpt lat="29.27619" lon="-13.50545">
        <ele>19</ele>
        <time>2021-07-02 18:58:06</time>
      </trkpt>
      <trkpt lat="29.27615" lon="-13.50547">
        <ele>19.2</ele>
        <time>2021-07-02 18:58:07</time>
      </trkpt>
      <trkpt lat="29.27612" lon="-13.5055">
        <ele>19.2</ele>
        <time>2021-07-02 18:58:08</time>
      </trkpt>
      <trkpt lat="29.27607" lon="-13.50552">
        <ele>19.4</ele>
        <time>2021-07-02 18:58:09</time>
      </trkpt>
      <trkpt lat="29.27603" lon="-13.50554">
        <ele>19.4</ele>
        <time>2021-07-02 18:58:10</time>
      </trkpt>
      <trkpt lat="29.27598" lon="-13.50556">
        <ele>19.4</ele>
        <time>2021-07-02 18:58:11</time>
      </trkpt>
      <trkpt lat="29.27593" lon="-13.50561">
        <ele>19.4</ele>
        <time>2021-07-02 18:58:12</time>
      </trkpt>
      <trkpt lat="29.27587" lon="-13.50563">
        <ele>19.6</ele>
        <time>2021-07-02 18:58:13</time>
      </trkpt>
      <trkpt lat="29.27582" lon="-13.50566">
        <ele>19.6</ele>
        <time>2021-07-02 18:58:14</time>
      </trkpt>
      <trkpt lat="29.27578" lon="-13.50568">
        <ele>19.6</ele>
        <time>2021-07-02 18:58:15</time>
      </trkpt>
      <trkpt lat="29.27573" lon="-13.50572">
        <ele>19.6</ele>
        <time>2021-07-02 18:58:16</time>
      </trkpt>
      <trkpt lat="29.27569" lon="-13.50575">
        <ele>19.6</ele>
        <time>2021-07-02 18:58:17</time>
      </trkpt>
      <trkpt lat="29.27564" lon="-13.50577">
        <ele>19.6</ele>
        <time>2021-07-02 18:58:18</time>
      </trkpt>
      <trkpt lat="29.27559" lon="-13.5058">
        <ele>19.6</ele>
        <time>2021-07-02 18:58:19</time>
      </trkpt>
      <trkpt lat="29.27554" lon="-13.50582">
        <ele>20</ele>
        <time>2021-07-02 18:58:20</time>
      </trkpt>
      <trkpt lat="29.27549" lon="-13.50585">
        <ele>20</ele>
        <time>2021-07-02 18:58:21</time>
      </trkpt>
      <trkpt lat="29.27543" lon="-13.50587">
        <ele>20</ele>
        <time>2021-07-02 18:58:22</time>
      </trkpt>
      <trkpt lat="29.27538" lon="-13.5059">
        <ele>20</ele>
        <time>2021-07-02 18:58:23</time>
      </trkpt>
      <trkpt lat="29.27533" lon="-13.50593">
        <ele>20</ele>
        <time>2021-07-02 18:58:24</time>
      </trkpt>
      <trkpt lat="29.27528" lon="-13.50595">
        <ele>20.2</ele>
        <time>2021-07-02 18:58:25</time>
      </trkpt>
      <trkpt lat="29.27523" lon="-13.50598">
        <ele>20.2</ele>
        <time>2021-07-02 18:58:26</time>
      </trkpt>
      <trkpt lat="29.27519" lon="-13.506">
        <ele>20.4</ele>
        <time>2021-07-02 18:58:27</time>
      </trkpt>
      <trkpt lat="29.27515" lon="-13.50603">
        <ele>20.4</ele>
        <time>2021-07-02 18:58:28</time>
      </trkpt>
      <trkpt lat="29.27512" lon="-13.50605">
        <ele>20.4</ele>
        <time>2021-07-02 18:58:29</time>
      </trkpt>
      <trkpt lat="29.27508" lon="-13.50607">
        <ele>20.4</ele>
        <time>2021-07-02 18:58:30</time>
      </trkpt>
      <trkpt lat="29.27504" lon="-13.50609">
        <ele>20.6</ele>
        <time>2021-07-02 18:58:31</time>
      </trkpt>
      <trkpt lat="29.27499" lon="-13.50611">
        <ele>20.6</ele>
        <time>2021-07-02 18:58:32</time>
      </trkpt>
      <trkpt lat="29.27494" lon="-13.50614">
        <ele>20.6</ele>
        <time>2021-07-02 18:58:33</time>
      </trkpt>
      <trkpt lat="29.27489" lon="-13.50616">
        <ele>20.6</ele>
        <time>2021-07-02 18:58:34</time>
      </trkpt>
      <trkpt lat="29.27485" lon="-13.50619">
        <ele>20.6</ele>
        <time>2021-07-02 18:58:35</time>
      </trkpt>
      <trkpt lat="29.2748" lon="-13.50622">
        <ele>20.6</ele>
        <time>2021-07-02 18:58:36</time>
      </trkpt>
      <trkpt lat="29.27475" lon="-13.50625">
        <ele>20.6</ele>
        <time>2021-07-02 18:58:37</time>
      </trkpt>
      <trkpt lat="29.2747" lon="-13.50628">
        <ele>20.6</ele>
        <time>2021-07-02 18:58:38</time>
      </trkpt>
      <trkpt lat="29.27465" lon="-13.50633">
        <ele>20.6</ele>
        <time>2021-07-02 18:58:39</time>
      </trkpt>
      <trkpt lat="29.27461" lon="-13.50636">
        <ele>20.6</ele>
        <time>2021-07-02 18:58:40</time>
      </trkpt>
      <trkpt lat="29.27457" lon="-13.50638">
        <ele>20.6</ele>
        <time>2021-07-02 18:58:41</time>
      </trkpt>
      <trkpt lat="29.27453" lon="-13.5064">
        <ele>20.6</ele>
        <time>2021-07-02 18:58:42</time>
      </trkpt>
      <trkpt lat="29.27449" lon="-13.50643">
        <ele>20.6</ele>
        <time>2021-07-02 18:58:43</time>
      </trkpt>
      <trkpt lat="29.27443" lon="-13.50647">
        <ele>20.6</ele>
        <time>2021-07-02 18:58:44</time>
      </trkpt>
      <trkpt lat="29.27439" lon="-13.50651">
        <ele>20.8</ele>
        <time>2021-07-02 18:58:45</time>
      </trkpt>
      <trkpt lat="29.27434" lon="-13.50655">
        <ele>20.8</ele>
        <time>2021-07-02 18:58:46</time>
      </trkpt>
      <trkpt lat="29.2743" lon="-13.50659">
        <ele>20.8</ele>
        <time>2021-07-02 18:58:47</time>
      </trkpt>
      <trkpt lat="29.27426" lon="-13.50662">
        <ele>20.8</ele>
        <time>2021-07-02 18:58:48</time>
      </trkpt>
      <trkpt lat="29.27422" lon="-13.50665">
        <ele>20.8</ele>
        <time>2021-07-02 18:58:49</time>
      </trkpt>
      <trkpt lat="29.27417" lon="-13.50669">
        <ele>20.8</ele>
        <time>2021-07-02 18:58:50</time>
      </trkpt>
      <trkpt lat="29.27413" lon="-13.5067">
        <ele>20.8</ele>
        <time>2021-07-02 18:58:51</time>
      </trkpt>
      <trkpt lat="29.27409" lon="-13.50673">
        <ele>20.8</ele>
        <time>2021-07-02 18:58:52</time>
      </trkpt>
      <trkpt lat="29.27406" lon="-13.50676">
        <ele>21.2</ele>
        <time>2021-07-02 18:58:53</time>
      </trkpt>
      <trkpt lat="29.27404" lon="-13.50679">
        <ele>21.2</ele>
        <time>2021-07-02 18:58:54</time>
      </trkpt>
      <trkpt lat="29.27401" lon="-13.50684">
        <ele>21.2</ele>
        <time>2021-07-02 18:58:55</time>
      </trkpt>
      <trkpt lat="29.27398" lon="-13.50688">
        <ele>21.2</ele>
        <time>2021-07-02 18:58:56</time>
      </trkpt>
      <trkpt lat="29.27397" lon="-13.50691">
        <ele>21.4</ele>
        <time>2021-07-02 18:58:57</time>
      </trkpt>
      <trkpt lat="29.27395" lon="-13.50694">
        <ele>21.4</ele>
        <time>2021-07-02 18:58:58</time>
      </trkpt>
      <trkpt lat="29.27393" lon="-13.50698">
        <ele>21.4</ele>
        <time>2021-07-02 18:58:59</time>
      </trkpt>
      <trkpt lat="29.2739" lon="-13.50702">
        <ele>21.6</ele>
        <time>2021-07-02 18:59:00</time>
      </trkpt>
      <trkpt lat="29.27387" lon="-13.50707">
        <ele>21.6</ele>
        <time>2021-07-02 18:59:01</time>
      </trkpt>
      <trkpt lat="29.27387" lon="-13.50712">
        <ele>21.8</ele>
        <time>2021-07-02 18:59:02</time>
      </trkpt>
      <trkpt lat="29.27384" lon="-13.50718">
        <ele>21.8</ele>
        <time>2021-07-02 18:59:03</time>
      </trkpt>
      <trkpt lat="29.27381" lon="-13.50723">
        <ele>21.8</ele>
        <time>2021-07-02 18:59:04</time>
      </trkpt>
      <trkpt lat="29.27377" lon="-13.50728">
        <ele>21.8</ele>
        <time>2021-07-02 18:59:05</time>
      </trkpt>
      <trkpt lat="29.27374" lon="-13.50733">
        <ele>21.8</ele>
        <time>2021-07-02 18:59:06</time>
      </trkpt>
      <trkpt lat="29.27371" lon="-13.50737">
        <ele>21.8</ele>
        <time>2021-07-02 18:59:07</time>
      </trkpt>
      <trkpt lat="29.27368" lon="-13.50742">
        <ele>21.8</ele>
        <time>2021-07-02 18:59:08</time>
      </trkpt>
      <trkpt lat="29.27365" lon="-13.50746">
        <ele>22.2</ele>
        <time>2021-07-02 18:59:09</time>
      </trkpt>
      <trkpt lat="29.27363" lon="-13.5075">
        <ele>22.2</ele>
        <time>2021-07-02 18:59:10</time>
      </trkpt>
      <trkpt lat="29.2736" lon="-13.50754">
        <ele>22.2</ele>
        <time>2021-07-02 18:59:11</time>
      </trkpt>
      <trkpt lat="29.27356" lon="-13.50757">
        <ele>22.4</ele>
        <time>2021-07-02 18:59:12</time>
      </trkpt>
      <trkpt lat="29.27352" lon="-13.5076">
        <ele>22.4</ele>
        <time>2021-07-02 18:59:13</time>
      </trkpt>
      <trkpt lat="29.27348" lon="-13.50764">
        <ele>22.6</ele>
        <time>2021-07-02 18:59:14</time>
      </trkpt>
      <trkpt lat="29.27345" lon="-13.50767">
        <ele>22.6</ele>
        <time>2021-07-02 18:59:15</time>
      </trkpt>
      <trkpt lat="29.27342" lon="-13.50772">
        <ele>22.6</ele>
        <time>2021-07-02 18:59:16</time>
      </trkpt>
      <trkpt lat="29.27339" lon="-13.50776">
        <ele>22.6</ele>
        <time>2021-07-02 18:59:17</time>
      </trkpt>
      <trkpt lat="29.27337" lon="-13.5078">
        <ele>22.6</ele>
        <time>2021-07-02 18:59:18</time>
      </trkpt>
      <trkpt lat="29.27333" lon="-13.50785">
        <ele>22.8</ele>
        <time>2021-07-02 18:59:19</time>
      </trkpt>
      <trkpt lat="29.2733" lon="-13.50789">
        <ele>22.8</ele>
        <time>2021-07-02 18:59:20</time>
      </trkpt>
      <trkpt lat="29.27328" lon="-13.50794">
        <ele>22.8</ele>
        <time>2021-07-02 18:59:21</time>
      </trkpt>
      <trkpt lat="29.27323" lon="-13.50797">
        <ele>23</ele>
        <time>2021-07-02 18:59:22</time>
      </trkpt>
      <trkpt lat="29.27319" lon="-13.508">
        <ele>23</ele>
        <time>2021-07-02 18:59:23</time>
      </trkpt>
      <trkpt lat="29.27315" lon="-13.50804">
        <ele>23</ele>
        <time>2021-07-02 18:59:24</time>
      </trkpt>
      <trkpt lat="29.27311" lon="-13.50808">
        <ele>23</ele>
        <time>2021-07-02 18:59:25</time>
      </trkpt>
      <trkpt lat="29.27307" lon="-13.50811">
        <ele>23</ele>
        <time>2021-07-02 18:59:26</time>
      </trkpt>
      <trkpt lat="29.27304" lon="-13.50814">
        <ele>23.2</ele>
        <time>2021-07-02 18:59:27</time>
      </trkpt>
      <trkpt lat="29.27301" lon="-13.50817">
        <ele>23.2</ele>
        <time>2021-07-02 18:59:28</time>
      </trkpt>
      <trkpt lat="29.27297" lon="-13.50821">
        <ele>23.2</ele>
        <time>2021-07-02 18:59:29</time>
      </trkpt>
      <trkpt lat="29.27294" lon="-13.50824">
        <ele>23.2</ele>
        <time>2021-07-02 18:59:30</time>
      </trkpt>
      <trkpt lat="29.2729" lon="-13.50827">
        <ele>23.2</ele>
        <time>2021-07-02 18:59:31</time>
      </trkpt>
      <trkpt lat="29.27287" lon="-13.50831">
        <ele>23.2</ele>
        <time>2021-07-02 18:59:32</time>
      </trkpt>
      <trkpt lat="29.27284" lon="-13.50834">
        <ele>23.2</ele>
        <time>2021-07-02 18:59:33</time>
      </trkpt>
      <trkpt lat="29.27281" lon="-13.50837">
        <ele>23.2</ele>
        <time>2021-07-02 18:59:34</time>
      </trkpt>
      <trkpt lat="29.27277" lon="-13.5084">
        <ele>23.2</ele>
        <time>2021-07-02 18:59:35</time>
      </trkpt>
      <trkpt lat="29.27273" lon="-13.50843">
        <ele>23.6</ele>
        <time>2021-07-02 18:59:36</time>
      </trkpt>
      <trkpt lat="29.2727" lon="-13.50847">
        <ele>23.6</ele>
        <time>2021-07-02 18:59:37</time>
      </trkpt>
      <trkpt lat="29.27267" lon="-13.5085">
        <ele>23.6</ele>
        <time>2021-07-02 18:59:38</time>
      </trkpt>
      <trkpt lat="29.27264" lon="-13.50853">
        <ele>23.8</ele>
        <time>2021-07-02 18:59:39</time>
      </trkpt>
      <trkpt lat="29.27262" lon="-13.50855">
        <ele>23.8</ele>
        <time>2021-07-02 18:59:40</time>
      </trkpt>
      <trkpt lat="29.27258" lon="-13.50858">
        <ele>23.8</ele>
        <time>2021-07-02 18:59:41</time>
      </trkpt>
      <trkpt lat="29.27255" lon="-13.50861">
        <ele>23.8</ele>
        <time>2021-07-02 18:59:42</time>
      </trkpt>
      <trkpt lat="29.27251" lon="-13.50864">
        <ele>24.2</ele>
        <time>2021-07-02 18:59:43</time>
      </trkpt>
      <trkpt lat="29.27247" lon="-13.50867">
        <ele>24.2</ele>
        <time>2021-07-02 18:59:44</time>
      </trkpt>
      <trkpt lat="29.27244" lon="-13.50871">
        <ele>24.2</ele>
        <time>2021-07-02 18:59:45</time>
      </trkpt>
      <trkpt lat="29.2724" lon="-13.50874">
        <ele>24.4</ele>
        <time>2021-07-02 18:59:46</time>
      </trkpt>
      <trkpt lat="29.27236" lon="-13.50878">
        <ele>24.4</ele>
        <time>2021-07-02 18:59:47</time>
      </trkpt>
      <trkpt lat="29.27232" lon="-13.50882">
        <ele>24.4</ele>
        <time>2021-07-02 18:59:48</time>
      </trkpt>
      <trkpt lat="29.27229" lon="-13.50886">
        <ele>24.4</ele>
        <time>2021-07-02 18:59:49</time>
      </trkpt>
      <trkpt lat="29.27225" lon="-13.50891">
        <ele>24.4</ele>
        <time>2021-07-02 18:59:50</time>
      </trkpt>
      <trkpt lat="29.27221" lon="-13.50894">
        <ele>24.4</ele>
        <time>2021-07-02 18:59:51</time>
      </trkpt>
      <trkpt lat="29.27217" lon="-13.50898">
        <ele>24.4</ele>
        <time>2021-07-02 18:59:52</time>
      </trkpt>
      <trkpt lat="29.27213" lon="-13.50902">
        <ele>24.6</ele>
        <time>2021-07-02 18:59:53</time>
      </trkpt>
      <trkpt lat="29.2721" lon="-13.50906">
        <ele>24.6</ele>
        <time>2021-07-02 18:59:54</time>
      </trkpt>
      <trkpt lat="29.27206" lon="-13.5091">
        <ele>24.6</ele>
        <time>2021-07-02 18:59:55</time>
      </trkpt>
      <trkpt lat="29.27202" lon="-13.50914">
        <ele>24.6</ele>
        <time>2021-07-02 18:59:56</time>
      </trkpt>
      <trkpt lat="29.27198" lon="-13.50918">
        <ele>24.8</ele>
        <time>2021-07-02 18:59:57</time>
      </trkpt>
      <trkpt lat="29.27195" lon="-13.50922">
        <ele>24.8</ele>
        <time>2021-07-02 18:59:58</time>
      </trkpt>
      <trkpt lat="29.27191" lon="-13.50927">
        <ele>25</ele>
        <time>2021-07-02 18:59:59</time>
      </trkpt>
      <trkpt lat="29.27188" lon="-13.50932">
        <ele>25</ele>
        <time>2021-07-02 19:00:00</time>
      </trkpt>
      <trkpt lat="29.27184" lon="-13.50937">
        <ele>25</ele>
        <time>2021-07-02 19:00:01</time>
      </trkpt>
      <trkpt lat="29.2718" lon="-13.50941">
        <ele>25</ele>
        <time>2021-07-02 19:00:02</time>
      </trkpt>
      <trkpt lat="29.27176" lon="-13.50947">
        <ele>25.2</ele>
        <time>2021-07-02 19:00:03</time>
      </trkpt>
      <trkpt lat="29.27172" lon="-13.50951">
        <ele>25.2</ele>
        <time>2021-07-02 19:00:04</time>
      </trkpt>
      <trkpt lat="29.27168" lon="-13.50956">
        <ele>25.2</ele>
        <time>2021-07-02 19:00:05</time>
      </trkpt>
      <trkpt lat="29.27164" lon="-13.5096">
        <ele>25.2</ele>
        <time>2021-07-02 19:00:06</time>
      </trkpt>
      <trkpt lat="29.2716" lon="-13.50964">
        <ele>25.2</ele>
        <time>2021-07-02 19:00:07</time>
      </trkpt>
      <trkpt lat="29.27156" lon="-13.50969">
        <ele>25.4</ele>
        <time>2021-07-02 19:00:08</time>
      </trkpt>
      <trkpt lat="29.27152" lon="-13.50973">
        <ele>25.4</ele>
        <time>2021-07-02 19:00:09</time>
      </trkpt>
      <trkpt lat="29.27147" lon="-13.50977">
        <ele>25.4</ele>
        <time>2021-07-02 19:00:10</time>
      </trkpt>
      <trkpt lat="29.27143" lon="-13.50982">
        <ele>25.4</ele>
        <time>2021-07-02 19:00:11</time>
      </trkpt>
      <trkpt lat="29.27139" lon="-13.50986">
        <ele>25.8</ele>
        <time>2021-07-02 19:00:12</time>
      </trkpt>
      <trkpt lat="29.27135" lon="-13.5099">
        <ele>25.8</ele>
        <time>2021-07-02 19:00:13</time>
      </trkpt>
      <trkpt lat="29.2713" lon="-13.50994">
        <ele>26</ele>
        <time>2021-07-02 19:00:14</time>
      </trkpt>
      <trkpt lat="29.27126" lon="-13.50998">
        <ele>26</ele>
        <time>2021-07-02 19:00:15</time>
      </trkpt>
      <trkpt lat="29.27122" lon="-13.51003">
        <ele>26.4</ele>
        <time>2021-07-02 19:00:16</time>
      </trkpt>
      <trkpt lat="29.27118" lon="-13.51007">
        <ele>26.4</ele>
        <time>2021-07-02 19:00:17</time>
      </trkpt>
      <trkpt lat="29.27114" lon="-13.51011">
        <ele>26.6</ele>
        <time>2021-07-02 19:00:18</time>
      </trkpt>
      <trkpt lat="29.2711" lon="-13.51015">
        <ele>26.6</ele>
        <time>2021-07-02 19:00:19</time>
      </trkpt>
      <trkpt lat="29.27106" lon="-13.5102">
        <ele>26.6</ele>
        <time>2021-07-02 19:00:20</time>
      </trkpt>
      <trkpt lat="29.27101" lon="-13.51024">
        <ele>27</ele>
        <time>2021-07-02 19:00:21</time>
      </trkpt>
      <trkpt lat="29.27097" lon="-13.51028">
        <ele>27</ele>
        <time>2021-07-02 19:00:22</time>
      </trkpt>
      <trkpt lat="29.27093" lon="-13.51032">
        <ele>27.2</ele>
        <time>2021-07-02 19:00:23</time>
      </trkpt>
      <trkpt lat="29.27089" lon="-13.51037">
        <ele>27.2</ele>
        <time>2021-07-02 19:00:24</time>
      </trkpt>
      <trkpt lat="29.27085" lon="-13.51041">
        <ele>27.2</ele>
        <time>2021-07-02 19:00:25</time>
      </trkpt>
      <trkpt lat="29.27081" lon="-13.51043">
        <ele>27.2</ele>
        <time>2021-07-02 19:00:26</time>
      </trkpt>
      <trkpt lat="29.27078" lon="-13.51047">
        <ele>27.4</ele>
        <time>2021-07-02 19:00:27</time>
      </trkpt>
      <trkpt lat="29.27074" lon="-13.51051">
        <ele>27.4</ele>
        <time>2021-07-02 19:00:28</time>
      </trkpt>
      <trkpt lat="29.2707" lon="-13.51055">
        <ele>27.4</ele>
        <time>2021-07-02 19:00:29</time>
      </trkpt>
      <trkpt lat="29.27067" lon="-13.5106">
        <ele>27.8</ele>
        <time>2021-07-02 19:00:30</time>
      </trkpt>
      <trkpt lat="29.27063" lon="-13.51065">
        <ele>27.8</ele>
        <time>2021-07-02 19:00:31</time>
      </trkpt>
      <trkpt lat="29.2706" lon="-13.51069">
        <ele>28</ele>
        <time>2021-07-02 19:00:32</time>
      </trkpt>
      <trkpt lat="29.27056" lon="-13.51074">
        <ele>28</ele>
        <time>2021-07-02 19:00:33</time>
      </trkpt>
      <trkpt lat="29.27053" lon="-13.51079">
        <ele>28</ele>
        <time>2021-07-02 19:00:34</time>
      </trkpt>
      <trkpt lat="29.27049" lon="-13.51085">
        <ele>28</ele>
        <time>2021-07-02 19:00:35</time>
      </trkpt>
      <trkpt lat="29.27046" lon="-13.5109">
        <ele>28.2</ele>
        <time>2021-07-02 19:00:36</time>
      </trkpt>
      <trkpt lat="29.27042" lon="-13.51096">
        <ele>28.2</ele>
        <time>2021-07-02 19:00:37</time>
      </trkpt>
      <trkpt lat="29.27039" lon="-13.51102">
        <ele>28.2</ele>
        <time>2021-07-02 19:00:38</time>
      </trkpt>
      <trkpt lat="29.27035" lon="-13.51107">
        <ele>28.6</ele>
        <time>2021-07-02 19:00:39</time>
      </trkpt>
      <trkpt lat="29.27032" lon="-13.51113">
        <ele>28.6</ele>
        <time>2021-07-02 19:00:40</time>
      </trkpt>
      <trkpt lat="29.2703" lon="-13.5112">
        <ele>28.6</ele>
        <time>2021-07-02 19:00:41</time>
      </trkpt>
      <trkpt lat="29.27028" lon="-13.51126">
        <ele>28.8</ele>
        <time>2021-07-02 19:00:42</time>
      </trkpt>
      <trkpt lat="29.27026" lon="-13.51132">
        <ele>28.8</ele>
        <time>2021-07-02 19:00:43</time>
      </trkpt>
      <trkpt lat="29.27023" lon="-13.51138">
        <ele>28.8</ele>
        <time>2021-07-02 19:00:44</time>
      </trkpt>
      <trkpt lat="29.27021" lon="-13.51144">
        <ele>29</ele>
        <time>2021-07-02 19:00:45</time>
      </trkpt>
      <trkpt lat="29.27018" lon="-13.5115">
        <ele>29</ele>
        <time>2021-07-02 19:00:46</time>
      </trkpt>
      <trkpt lat="29.27016" lon="-13.51156">
        <ele>29</ele>
        <time>2021-07-02 19:00:47</time>
      </trkpt>
      <trkpt lat="29.27014" lon="-13.51163">
        <ele>29</ele>
        <time>2021-07-02 19:00:48</time>
      </trkpt>
      <trkpt lat="29.27011" lon="-13.51169">
        <ele>29</ele>
        <time>2021-07-02 19:00:49</time>
      </trkpt>
      <trkpt lat="29.2701" lon="-13.51175">
        <ele>29.2</ele>
        <time>2021-07-02 19:00:50</time>
      </trkpt>
      <trkpt lat="29.27009" lon="-13.51181">
        <ele>29.2</ele>
        <time>2021-07-02 19:00:51</time>
      </trkpt>
      <trkpt lat="29.27007" lon="-13.51187">
        <ele>29.2</ele>
        <time>2021-07-02 19:00:52</time>
      </trkpt>
      <trkpt lat="29.27006" lon="-13.51192">
        <ele>29.2</ele>
        <time>2021-07-02 19:00:53</time>
      </trkpt>
      <trkpt lat="29.27005" lon="-13.51197">
        <ele>29.6</ele>
        <time>2021-07-02 19:00:54</time>
      </trkpt>
      <trkpt lat="29.27003" lon="-13.51203">
        <ele>29.6</ele>
        <time>2021-07-02 19:00:55</time>
      </trkpt>
      <trkpt lat="29.27002" lon="-13.51208">
        <ele>29.6</ele>
        <time>2021-07-02 19:00:56</time>
      </trkpt>
      <trkpt lat="29.27" lon="-13.51213">
        <ele>29.6</ele>
        <time>2021-07-02 19:00:57</time>
      </trkpt>
      <trkpt lat="29.26998" lon="-13.51219">
        <ele>29.8</ele>
        <time>2021-07-02 19:00:58</time>
      </trkpt>
      <trkpt lat="29.26996" lon="-13.51224">
        <ele>29.8</ele>
        <time>2021-07-02 19:00:59</time>
      </trkpt>
      <trkpt lat="29.26994" lon="-13.51229">
        <ele>30.2</ele>
        <time>2021-07-02 19:01:00</time>
      </trkpt>
      <trkpt lat="29.26992" lon="-13.51235">
        <ele>30.2</ele>
        <time>2021-07-02 19:01:01</time>
      </trkpt>
      <trkpt lat="29.2699" lon="-13.5124">
        <ele>30.2</ele>
        <time>2021-07-02 19:01:02</time>
      </trkpt>
      <trkpt lat="29.26989" lon="-13.51246">
        <ele>30.4</ele>
        <time>2021-07-02 19:01:03</time>
      </trkpt>
      <trkpt lat="29.26987" lon="-13.51252">
        <ele>30.4</ele>
        <time>2021-07-02 19:01:04</time>
      </trkpt>
      <trkpt lat="29.26985" lon="-13.51257">
        <ele>30.4</ele>
        <time>2021-07-02 19:01:05</time>
      </trkpt>
      <trkpt lat="29.26984" lon="-13.51262">
        <ele>30.6</ele>
        <time>2021-07-02 19:01:06</time>
      </trkpt>
      <trkpt lat="29.26981" lon="-13.51268">
        <ele>30.6</ele>
        <time>2021-07-02 19:01:07</time>
      </trkpt>
      <trkpt lat="29.2698" lon="-13.51273">
        <ele>30.6</ele>
        <time>2021-07-02 19:01:08</time>
      </trkpt>
      <trkpt lat="29.26978" lon="-13.51279">
        <ele>30.8</ele>
        <time>2021-07-02 19:01:09</time>
      </trkpt>
      <trkpt lat="29.26975" lon="-13.51285">
        <ele>30.8</ele>
        <time>2021-07-02 19:01:10</time>
      </trkpt>
      <trkpt lat="29.26973" lon="-13.51291">
        <ele>31</ele>
        <time>2021-07-02 19:01:11</time>
      </trkpt>
      <trkpt lat="29.26971" lon="-13.51297">
        <ele>31</ele>
        <time>2021-07-02 19:01:12</time>
      </trkpt>
      <trkpt lat="29.26969" lon="-13.51302">
        <ele>31</ele>
        <time>2021-07-02 19:01:13</time>
      </trkpt>
      <trkpt lat="29.26968" lon="-13.51307">
        <ele>31</ele>
        <time>2021-07-02 19:01:14</time>
      </trkpt>
      <trkpt lat="29.26966" lon="-13.51311">
        <ele>31</ele>
        <time>2021-07-02 19:01:15</time>
      </trkpt>
      <trkpt lat="29.26964" lon="-13.51316">
        <ele>31</ele>
        <time>2021-07-02 19:01:16</time>
      </trkpt>
      <trkpt lat="29.26963" lon="-13.51321">
        <ele>31</ele>
        <time>2021-07-02 19:01:17</time>
      </trkpt>
      <trkpt lat="29.26961" lon="-13.51326">
        <ele>31</ele>
        <time>2021-07-02 19:01:18</time>
      </trkpt>
      <trkpt lat="29.2696" lon="-13.51333">
        <ele>31</ele>
        <time>2021-07-02 19:01:19</time>
      </trkpt>
      <trkpt lat="29.26958" lon="-13.51339">
        <ele>31.4</ele>
        <time>2021-07-02 19:01:20</time>
      </trkpt>
      <trkpt lat="29.26956" lon="-13.51345">
        <ele>31.4</ele>
        <time>2021-07-02 19:01:21</time>
      </trkpt>
      <trkpt lat="29.26955" lon="-13.51351">
        <ele>31.4</ele>
        <time>2021-07-02 19:01:22</time>
      </trkpt>
      <trkpt lat="29.26954" lon="-13.51357">
        <ele>31.4</ele>
        <time>2021-07-02 19:01:23</time>
      </trkpt>
      <trkpt lat="29.26953" lon="-13.51362">
        <ele>31.4</ele>
        <time>2021-07-02 19:01:24</time>
      </trkpt>
      <trkpt lat="29.26952" lon="-13.51368">
        <ele>31.4</ele>
        <time>2021-07-02 19:01:25</time>
      </trkpt>
      <trkpt lat="29.26952" lon="-13.51374">
        <ele>31.4</ele>
        <time>2021-07-02 19:01:26</time>
      </trkpt>
      <trkpt lat="29.26951" lon="-13.5138">
        <ele>31.2</ele>
        <time>2021-07-02 19:01:27</time>
      </trkpt>
      <trkpt lat="29.26951" lon="-13.51386">
        <ele>31.2</ele>
        <time>2021-07-02 19:01:28</time>
      </trkpt>
      <trkpt lat="29.26951" lon="-13.51393">
        <ele>31.2</ele>
        <time>2021-07-02 19:01:29</time>
      </trkpt>
      <trkpt lat="29.2695" lon="-13.51399">
        <ele>31.2</ele>
        <time>2021-07-02 19:01:30</time>
      </trkpt>
      <trkpt lat="29.2695" lon="-13.51405">
        <ele>31.2</ele>
        <time>2021-07-02 19:01:31</time>
      </trkpt>
      <trkpt lat="29.26949" lon="-13.51411">
        <ele>30.8</ele>
        <time>2021-07-02 19:01:32</time>
      </trkpt>
      <trkpt lat="29.26949" lon="-13.51418">
        <ele>30.8</ele>
        <time>2021-07-02 19:01:33</time>
      </trkpt>
      <trkpt lat="29.26948" lon="-13.51424">
        <ele>30.8</ele>
        <time>2021-07-02 19:01:34</time>
      </trkpt>
      <trkpt lat="29.26948" lon="-13.51431">
        <ele>30.6</ele>
        <time>2021-07-02 19:01:35</time>
      </trkpt>
      <trkpt lat="29.26947" lon="-13.51437">
        <ele>30.6</ele>
        <time>2021-07-02 19:01:36</time>
      </trkpt>
      <trkpt lat="29.26947" lon="-13.51444">
        <ele>30.2</ele>
        <time>2021-07-02 19:01:37</time>
      </trkpt>
      <trkpt lat="29.26946" lon="-13.51451">
        <ele>30</ele>
        <time>2021-07-02 19:01:38</time>
      </trkpt>
      <trkpt lat="29.26946" lon="-13.51457">
        <ele>30</ele>
        <time>2021-07-02 19:01:39</time>
      </trkpt>
      <trkpt lat="29.26945" lon="-13.51464">
        <ele>29.6</ele>
        <time>2021-07-02 19:01:40</time>
      </trkpt>
      <trkpt lat="29.26944" lon="-13.51471">
        <ele>29.4</ele>
        <time>2021-07-02 19:01:41</time>
      </trkpt>
      <trkpt lat="29.26943" lon="-13.51478">
        <ele>29.4</ele>
        <time>2021-07-02 19:01:42</time>
      </trkpt>
      <trkpt lat="29.26942" lon="-13.51485">
        <ele>29</ele>
        <time>2021-07-02 19:01:43</time>
      </trkpt>
      <trkpt lat="29.26941" lon="-13.51493">
        <ele>28.8</ele>
        <time>2021-07-02 19:01:44</time>
      </trkpt>
      <trkpt lat="29.2694" lon="-13.51501">
        <ele>28.4</ele>
        <time>2021-07-02 19:01:45</time>
      </trkpt>
      <trkpt lat="29.26938" lon="-13.51508">
        <ele>28.2</ele>
        <time>2021-07-02 19:01:46</time>
      </trkpt>
      <trkpt lat="29.26937" lon="-13.51516">
        <ele>27.8</ele>
        <time>2021-07-02 19:01:47</time>
      </trkpt>
      <trkpt lat="29.26936" lon="-13.51524">
        <ele>27.6</ele>
        <time>2021-07-02 19:01:48</time>
      </trkpt>
      <trkpt lat="29.26935" lon="-13.51533">
        <ele>27.2</ele>
        <time>2021-07-02 19:01:49</time>
      </trkpt>
      <trkpt lat="29.26934" lon="-13.51542">
        <ele>26.6</ele>
        <time>2021-07-02 19:01:50</time>
      </trkpt>
      <trkpt lat="29.26933" lon="-13.5155">
        <ele>26.4</ele>
        <time>2021-07-02 19:01:51</time>
      </trkpt>
      <trkpt lat="29.26933" lon="-13.5156">
        <ele>26</ele>
        <time>2021-07-02 19:01:52</time>
      </trkpt>
      <trkpt lat="29.26932" lon="-13.51569">
        <ele>25.8</ele>
        <time>2021-07-02 19:01:53</time>
      </trkpt>
      <trkpt lat="29.26932" lon="-13.51578">
        <ele>25.2</ele>
        <time>2021-07-02 19:01:54</time>
      </trkpt>
      <trkpt lat="29.26933" lon="-13.51587">
        <ele>25</ele>
        <time>2021-07-02 19:01:55</time>
      </trkpt>
      <trkpt lat="29.26934" lon="-13.51595">
        <ele>24.6</ele>
        <time>2021-07-02 19:01:56</time>
      </trkpt>
      <trkpt lat="29.26935" lon="-13.51603">
        <ele>24.2</ele>
        <time>2021-07-02 19:01:57</time>
      </trkpt>
      <trkpt lat="29.26936" lon="-13.51611">
        <ele>24</ele>
        <time>2021-07-02 19:01:58</time>
      </trkpt>
      <trkpt lat="29.26936" lon="-13.51618">
        <ele>23.6</ele>
        <time>2021-07-02 19:01:59</time>
      </trkpt>
      <trkpt lat="29.26936" lon="-13.51626">
        <ele>23.4</ele>
        <time>2021-07-02 19:02:00</time>
      </trkpt>
      <trkpt lat="29.26937" lon="-13.51632">
        <ele>23.4</ele>
        <time>2021-07-02 19:02:01</time>
      </trkpt>
      <trkpt lat="29.26937" lon="-13.51639">
        <ele>23</ele>
        <time>2021-07-02 19:02:02</time>
      </trkpt>
      <trkpt lat="29.26937" lon="-13.51646">
        <ele>23</ele>
        <time>2021-07-02 19:02:03</time>
      </trkpt>
      <trkpt lat="29.26935" lon="-13.51652">
        <ele>22.6</ele>
        <time>2021-07-02 19:02:04</time>
      </trkpt>
      <trkpt lat="29.26932" lon="-13.51656">
        <ele>22.4</ele>
        <time>2021-07-02 19:02:05</time>
      </trkpt>
      <trkpt lat="29.26928" lon="-13.5166">
        <ele>22.4</ele>
        <time>2021-07-02 19:02:06</time>
      </trkpt>
      <trkpt lat="29.26924" lon="-13.51663">
        <ele>22.2</ele>
        <time>2021-07-02 19:02:07</time>
      </trkpt>
      <trkpt lat="29.26921" lon="-13.51666">
        <ele>22.2</ele>
        <time>2021-07-02 19:02:08</time>
      </trkpt>
      <trkpt lat="29.26919" lon="-13.51668">
        <ele>22.2</ele>
        <time>2021-07-02 19:02:09</time>
      </trkpt>
      <trkpt lat="29.26918" lon="-13.51668">
        <ele>22</ele>
        <time>2021-07-02 19:02:10</time>
      </trkpt>
      <trkpt lat="29.26918" lon="-13.51668">
        <ele>22</ele>
        <time>2021-07-02 19:02:11</time>
      </trkpt>
      <trkpt lat="29.26918" lon="-13.51668">
        <ele>22</ele>
        <time>2021-07-02 19:02:12</time>
      </trkpt>
      <trkpt lat="29.26918" lon="-13.51668">
        <ele>22</ele>
        <time>2021-07-02 19:02:13</time>
      </trkpt>
      <trkpt lat="29.26918" lon="-13.51668">
        <ele>21.6</ele>
        <time>2021-07-02 19:02:14</time>
      </trkpt>
      <trkpt lat="29.26918" lon="-13.51668">
        <ele>21.6</ele>
        <time>2021-07-02 19:02:15</time>
      </trkpt>
      <trkpt lat="29.26912" lon="-13.51671">
        <ele>21.4</ele>
        <time>2021-07-02 19:02:16</time>
      </trkpt>
      <trkpt lat="29.2691" lon="-13.51674">
        <ele>21.4</ele>
        <time>2021-07-02 19:02:34</time>
      </trkpt>
      <trkpt lat="29.26908" lon="-13.51676">
        <ele>21.4</ele>
        <time>2021-07-02 19:02:35</time>
      </trkpt>
      <trkpt lat="29.26906" lon="-13.51677">
        <ele>21.4</ele>
        <time>2021-07-02 19:02:36</time>
      </trkpt>
      <trkpt lat="29.26903" lon="-13.51679">
        <ele>21.4</ele>
        <time>2021-07-02 19:02:37</time>
      </trkpt>
      <trkpt lat="29.269" lon="-13.51682">
        <ele>21.4</ele>
        <time>2021-07-02 19:02:38</time>
      </trkpt>
      <trkpt lat="29.26897" lon="-13.51684">
        <ele>21.2</ele>
        <time>2021-07-02 19:02:39</time>
      </trkpt>
      <trkpt lat="29.26894" lon="-13.51686">
        <ele>21.2</ele>
        <time>2021-07-02 19:02:40</time>
      </trkpt>
      <trkpt lat="29.26891" lon="-13.51689">
        <ele>21.2</ele>
        <time>2021-07-02 19:02:41</time>
      </trkpt>
      <trkpt lat="29.26888" lon="-13.51691">
        <ele>21</ele>
        <time>2021-07-02 19:02:42</time>
      </trkpt>
      <trkpt lat="29.26885" lon="-13.51694">
        <ele>21</ele>
        <time>2021-07-02 19:02:43</time>
      </trkpt>
      <trkpt lat="29.26882" lon="-13.51697">
        <ele>21</ele>
        <time>2021-07-02 19:02:44</time>
      </trkpt>
      <trkpt lat="29.26878" lon="-13.517">
        <ele>20.8</ele>
        <time>2021-07-02 19:02:45</time>
      </trkpt>
      <trkpt lat="29.26875" lon="-13.51703">
        <ele>20.8</ele>
        <time>2021-07-02 19:02:46</time>
      </trkpt>
      <trkpt lat="29.26871" lon="-13.51707">
        <ele>20.4</ele>
        <time>2021-07-02 19:02:47</time>
      </trkpt>
      <trkpt lat="29.26867" lon="-13.5171">
        <ele>20.4</ele>
        <time>2021-07-02 19:02:48</time>
      </trkpt>
      <trkpt lat="29.26863" lon="-13.51714">
        <ele>20.4</ele>
        <time>2021-07-02 19:02:49</time>
      </trkpt>
      <trkpt lat="29.26859" lon="-13.51717">
        <ele>20.2</ele>
        <time>2021-07-02 19:02:50</time>
      </trkpt>
      <trkpt lat="29.26855" lon="-13.5172">
        <ele>20.2</ele>
        <time>2021-07-02 19:02:51</time>
      </trkpt>
      <trkpt lat="29.26851" lon="-13.51723">
        <ele>19.8</ele>
        <time>2021-07-02 19:02:52</time>
      </trkpt>
      <trkpt lat="29.26847" lon="-13.51726">
        <ele>19.8</ele>
        <time>2021-07-02 19:02:53</time>
      </trkpt>
      <trkpt lat="29.26844" lon="-13.5173">
        <ele>19.6</ele>
        <time>2021-07-02 19:02:54</time>
      </trkpt>
      <trkpt lat="29.2684" lon="-13.51733">
        <ele>19.4</ele>
        <time>2021-07-02 19:02:55</time>
      </trkpt>
      <trkpt lat="29.26836" lon="-13.51736">
        <ele>19.4</ele>
        <time>2021-07-02 19:02:56</time>
      </trkpt>
      <trkpt lat="29.26832" lon="-13.5174">
        <ele>19</ele>
        <time>2021-07-02 19:02:57</time>
      </trkpt>
      <trkpt lat="29.26828" lon="-13.51743">
        <ele>19</ele>
        <time>2021-07-02 19:02:58</time>
      </trkpt>
      <trkpt lat="29.26824" lon="-13.51747">
        <ele>18.6</ele>
        <time>2021-07-02 19:02:59</time>
      </trkpt>
      <trkpt lat="29.2682" lon="-13.51751">
        <ele>18.4</ele>
        <time>2021-07-02 19:03:00</time>
      </trkpt>
      <trkpt lat="29.26815" lon="-13.51755">
        <ele>18.4</ele>
        <time>2021-07-02 19:03:01</time>
      </trkpt>
      <trkpt lat="29.2681" lon="-13.51758">
        <ele>18.2</ele>
        <time>2021-07-02 19:03:02</time>
      </trkpt>
      <trkpt lat="29.26806" lon="-13.51762">
        <ele>17.8</ele>
        <time>2021-07-02 19:03:03</time>
      </trkpt>
      <trkpt lat="29.26802" lon="-13.51766">
        <ele>17.8</ele>
        <time>2021-07-02 19:03:04</time>
      </trkpt>
      <trkpt lat="29.26797" lon="-13.5177">
        <ele>17.6</ele>
        <time>2021-07-02 19:03:05</time>
      </trkpt>
      <trkpt lat="29.26793" lon="-13.51774">
        <ele>17.6</ele>
        <time>2021-07-02 19:03:06</time>
      </trkpt>
      <trkpt lat="29.26788" lon="-13.51778">
        <ele>17.4</ele>
        <time>2021-07-02 19:03:07</time>
      </trkpt>
      <trkpt lat="29.26784" lon="-13.51782">
        <ele>17.4</ele>
        <time>2021-07-02 19:03:08</time>
      </trkpt>
      <trkpt lat="29.2678" lon="-13.51786">
        <ele>17.2</ele>
        <time>2021-07-02 19:03:09</time>
      </trkpt>
      <trkpt lat="29.26775" lon="-13.5179">
        <ele>17.2</ele>
        <time>2021-07-02 19:03:10</time>
      </trkpt>
      <trkpt lat="29.26771" lon="-13.51794">
        <ele>17.2</ele>
        <time>2021-07-02 19:03:11</time>
      </trkpt>
      <trkpt lat="29.26766" lon="-13.51799">
        <ele>16.8</ele>
        <time>2021-07-02 19:03:12</time>
      </trkpt>
      <trkpt lat="29.26762" lon="-13.51803">
        <ele>16.8</ele>
        <time>2021-07-02 19:03:13</time>
      </trkpt>
      <trkpt lat="29.26756" lon="-13.51807">
        <ele>16.6</ele>
        <time>2021-07-02 19:03:14</time>
      </trkpt>
      <trkpt lat="29.26752" lon="-13.51811">
        <ele>16.6</ele>
        <time>2021-07-02 19:03:15</time>
      </trkpt>
      <trkpt lat="29.26748" lon="-13.51816">
        <ele>16.2</ele>
        <time>2021-07-02 19:03:16</time>
      </trkpt>
      <trkpt lat="29.26743" lon="-13.5182">
        <ele>16.2</ele>
        <time>2021-07-02 19:03:17</time>
      </trkpt>
      <trkpt lat="29.26739" lon="-13.51823">
        <ele>16.2</ele>
        <time>2021-07-02 19:03:18</time>
      </trkpt>
      <trkpt lat="29.26735" lon="-13.51827">
        <ele>16.2</ele>
        <time>2021-07-02 19:03:19</time>
      </trkpt>
      <trkpt lat="29.26731" lon="-13.51831">
        <ele>16.2</ele>
        <time>2021-07-02 19:03:20</time>
      </trkpt>
      <trkpt lat="29.26728" lon="-13.51834">
        <ele>16</ele>
        <time>2021-07-02 19:03:21</time>
      </trkpt>
      <trkpt lat="29.26725" lon="-13.51837">
        <ele>16</ele>
        <time>2021-07-02 19:03:22</time>
      </trkpt>
      <trkpt lat="29.26722" lon="-13.51841">
        <ele>15.6</ele>
        <time>2021-07-02 19:03:23</time>
      </trkpt>
      <trkpt lat="29.2672" lon="-13.51844">
        <ele>15.6</ele>
        <time>2021-07-02 19:03:24</time>
      </trkpt>
      <trkpt lat="29.26718" lon="-13.51848">
        <ele>15.6</ele>
        <time>2021-07-02 19:03:25</time>
      </trkpt>
      <trkpt lat="29.26716" lon="-13.51851">
        <ele>15.6</ele>
        <time>2021-07-02 19:03:26</time>
      </trkpt>
      <trkpt lat="29.26713" lon="-13.51854">
        <ele>15.6</ele>
        <time>2021-07-02 19:03:27</time>
      </trkpt>
      <trkpt lat="29.2671" lon="-13.51857">
        <ele>15.6</ele>
        <time>2021-07-02 19:03:28</time>
      </trkpt>
      <trkpt lat="29.26708" lon="-13.51859">
        <ele>15.4</ele>
        <time>2021-07-02 19:03:29</time>
      </trkpt>
      <trkpt lat="29.26707" lon="-13.5186">
        <ele>15.4</ele>
        <time>2021-07-02 19:03:30</time>
      </trkpt>
      <trkpt lat="29.26706" lon="-13.51861">
        <ele>15.4</ele>
        <time>2021-07-02 19:03:31</time>
      </trkpt>
      <trkpt lat="29.26706" lon="-13.5186">
        <ele>15.4</ele>
        <time>2021-07-02 19:03:32</time>
      </trkpt>
      <trkpt lat="29.26706" lon="-13.5186">
        <ele>15.2</ele>
        <time>2021-07-02 19:03:33</time>
      </trkpt>
      <trkpt lat="29.26706" lon="-13.5186">
        <ele>15.2</ele>
        <time>2021-07-02 19:03:34</time>
      </trkpt>
      <trkpt lat="29.26706" lon="-13.5186">
        <ele>15.2</ele>
        <time>2021-07-02 19:03:35</time>
      </trkpt>
      <trkpt lat="29.267" lon="-13.51866">
        <ele>15.6</ele>
        <time>2021-07-02 19:03:36</time>
      </trkpt>
      <trkpt lat="29.26698" lon="-13.51867">
        <ele>15.6</ele>
        <time>2021-07-02 19:03:58</time>
      </trkpt>
      <trkpt lat="29.26696" lon="-13.51869">
        <ele>15.4</ele>
        <time>2021-07-02 19:03:59</time>
      </trkpt>
      <trkpt lat="29.26694" lon="-13.51871">
        <ele>15.4</ele>
        <time>2021-07-02 19:04:00</time>
      </trkpt>
      <trkpt lat="29.26692" lon="-13.51873">
        <ele>15.4</ele>
        <time>2021-07-02 19:04:01</time>
      </trkpt>
      <trkpt lat="29.2669" lon="-13.51874">
        <ele>15.4</ele>
        <time>2021-07-02 19:04:02</time>
      </trkpt>
      <trkpt lat="29.26688" lon="-13.51876">
        <ele>15.4</ele>
        <time>2021-07-02 19:04:03</time>
      </trkpt>
      <trkpt lat="29.26686" lon="-13.51878">
        <ele>15</ele>
        <time>2021-07-02 19:04:04</time>
      </trkpt>
      <trkpt lat="29.26684" lon="-13.5188">
        <ele>15</ele>
        <time>2021-07-02 19:04:05</time>
      </trkpt>
      <trkpt lat="29.26682" lon="-13.51882">
        <ele>15</ele>
        <time>2021-07-02 19:04:06</time>
      </trkpt>
      <trkpt lat="29.26679" lon="-13.51884">
        <ele>15</ele>
        <time>2021-07-02 19:04:07</time>
      </trkpt>
      <trkpt lat="29.26676" lon="-13.51886">
        <ele>15</ele>
        <time>2021-07-02 19:04:08</time>
      </trkpt>
      <trkpt lat="29.26673" lon="-13.51889">
        <ele>15</ele>
        <time>2021-07-02 19:04:09</time>
      </trkpt>
      <trkpt lat="29.2667" lon="-13.51891">
        <ele>14.8</ele>
        <time>2021-07-02 19:04:10</time>
      </trkpt>
      <trkpt lat="29.26667" lon="-13.51894">
        <ele>14.8</ele>
        <time>2021-07-02 19:04:11</time>
      </trkpt>
      <trkpt lat="29.26663" lon="-13.51896">
        <ele>14.8</ele>
        <time>2021-07-02 19:04:12</time>
      </trkpt>
      <trkpt lat="29.2666" lon="-13.51899">
        <ele>14.6</ele>
        <time>2021-07-02 19:04:13</time>
      </trkpt>
      <trkpt lat="29.26656" lon="-13.51902">
        <ele>14.6</ele>
        <time>2021-07-02 19:04:14</time>
      </trkpt>
      <trkpt lat="29.26653" lon="-13.51905">
        <ele>14.6</ele>
        <time>2021-07-02 19:04:15</time>
      </trkpt>
      <trkpt lat="29.26649" lon="-13.51908">
        <ele>14.6</ele>
        <time>2021-07-02 19:04:16</time>
      </trkpt>
      <trkpt lat="29.26647" lon="-13.51911">
        <ele>14.6</ele>
        <time>2021-07-02 19:04:17</time>
      </trkpt>
      <trkpt lat="29.26643" lon="-13.51914">
        <ele>14.4</ele>
        <time>2021-07-02 19:04:18</time>
      </trkpt>
      <trkpt lat="29.2664" lon="-13.51917">
        <ele>14.4</ele>
        <time>2021-07-02 19:04:19</time>
      </trkpt>
      <trkpt lat="29.26636" lon="-13.5192">
        <ele>14.4</ele>
        <time>2021-07-02 19:04:20</time>
      </trkpt>
      <trkpt lat="29.26633" lon="-13.51923">
        <ele>14.2</ele>
        <time>2021-07-02 19:04:21</time>
      </trkpt>
      <trkpt lat="29.2663" lon="-13.51925">
        <ele>14.2</ele>
        <time>2021-07-02 19:04:22</time>
      </trkpt>
      <trkpt lat="29.26626" lon="-13.51928">
        <ele>14.2</ele>
        <time>2021-07-02 19:04:23</time>
      </trkpt>
      <trkpt lat="29.26623" lon="-13.51931">
        <ele>13.8</ele>
        <time>2021-07-02 19:04:24</time>
      </trkpt>
      <trkpt lat="29.2662" lon="-13.51933">
        <ele>13.8</ele>
        <time>2021-07-02 19:04:25</time>
      </trkpt>
      <trkpt lat="29.26617" lon="-13.51935">
        <ele>13.8</ele>
        <time>2021-07-02 19:04:26</time>
      </trkpt>
      <trkpt lat="29.26614" lon="-13.51938">
        <ele>13.6</ele>
        <time>2021-07-02 19:04:27</time>
      </trkpt>
      <trkpt lat="29.26611" lon="-13.5194">
        <ele>13.6</ele>
        <time>2021-07-02 19:04:28</time>
      </trkpt>
      <trkpt lat="29.26608" lon="-13.51942">
        <ele>13.6</ele>
        <time>2021-07-02 19:04:29</time>
      </trkpt>
      <trkpt lat="29.26605" lon="-13.51945">
        <ele>13.4</ele>
        <time>2021-07-02 19:04:30</time>
      </trkpt>
      <trkpt lat="29.26602" lon="-13.51947">
        <ele>13.4</ele>
        <time>2021-07-02 19:04:31</time>
      </trkpt>
      <trkpt lat="29.26598" lon="-13.5195">
        <ele>13.4</ele>
        <time>2021-07-02 19:04:32</time>
      </trkpt>
      <trkpt lat="29.26594" lon="-13.51952">
        <ele>13.4</ele>
        <time>2021-07-02 19:04:33</time>
      </trkpt>
      <trkpt lat="29.2659" lon="-13.51955">
        <ele>13</ele>
        <time>2021-07-02 19:04:34</time>
      </trkpt>
      <trkpt lat="29.26587" lon="-13.51957">
        <ele>13</ele>
        <time>2021-07-02 19:04:35</time>
      </trkpt>
      <trkpt lat="29.26582" lon="-13.51959">
        <ele>13</ele>
        <time>2021-07-02 19:04:36</time>
      </trkpt>
      <trkpt lat="29.26578" lon="-13.51962">
        <ele>13</ele>
        <time>2021-07-02 19:04:37</time>
      </trkpt>
      <trkpt lat="29.26574" lon="-13.51964">
        <ele>12.8</ele>
        <time>2021-07-02 19:04:38</time>
      </trkpt>
      <trkpt lat="29.2657" lon="-13.51966">
        <ele>12.8</ele>
        <time>2021-07-02 19:04:39</time>
      </trkpt>
      <trkpt lat="29.26566" lon="-13.51968">
        <ele>12.8</ele>
        <time>2021-07-02 19:04:40</time>
      </trkpt>
      <trkpt lat="29.26562" lon="-13.5197">
        <ele>12.8</ele>
        <time>2021-07-02 19:04:41</time>
      </trkpt>
      <trkpt lat="29.26557" lon="-13.51972">
        <ele>12.8</ele>
        <time>2021-07-02 19:04:42</time>
      </trkpt>
      <trkpt lat="29.26553" lon="-13.51973">
        <ele>12.8</ele>
        <time>2021-07-02 19:04:43</time>
      </trkpt>
      <trkpt lat="29.26549" lon="-13.51975">
        <ele>12.8</ele>
        <time>2021-07-02 19:04:44</time>
      </trkpt>
      <trkpt lat="29.26545" lon="-13.51976">
        <ele>12.8</ele>
        <time>2021-07-02 19:04:45</time>
      </trkpt>
      <trkpt lat="29.2654" lon="-13.51976">
        <ele>12.8</ele>
        <time>2021-07-02 19:04:46</time>
      </trkpt>
      <trkpt lat="29.26536" lon="-13.51977">
        <ele>12.6</ele>
        <time>2021-07-02 19:04:47</time>
      </trkpt>
      <trkpt lat="29.26532" lon="-13.51978">
        <ele>12.6</ele>
        <time>2021-07-02 19:04:48</time>
      </trkpt>
      <trkpt lat="29.26528" lon="-13.51978">
        <ele>12.6</ele>
        <time>2021-07-02 19:04:49</time>
      </trkpt>
      <trkpt lat="29.26524" lon="-13.51979">
        <ele>12.6</ele>
        <time>2021-07-02 19:04:50</time>
      </trkpt>
      <trkpt lat="29.26519" lon="-13.51979">
        <ele>12.6</ele>
        <time>2021-07-02 19:04:51</time>
      </trkpt>
      <trkpt lat="29.26515" lon="-13.51979">
        <ele>12.6</ele>
        <time>2021-07-02 19:04:52</time>
      </trkpt>
      <trkpt lat="29.26511" lon="-13.51979">
        <ele>12.6</ele>
        <time>2021-07-02 19:04:53</time>
      </trkpt>
      <trkpt lat="29.26506" lon="-13.51979">
        <ele>12.4</ele>
        <time>2021-07-02 19:04:54</time>
      </trkpt>
      <trkpt lat="29.26502" lon="-13.51979">
        <ele>12.4</ele>
        <time>2021-07-02 19:04:55</time>
      </trkpt>
      <trkpt lat="29.26497" lon="-13.51979">
        <ele>12.4</ele>
        <time>2021-07-02 19:04:56</time>
      </trkpt>
      <trkpt lat="29.26493" lon="-13.51979">
        <ele>12.4</ele>
        <time>2021-07-02 19:04:57</time>
      </trkpt>
      <trkpt lat="29.26488" lon="-13.51978">
        <ele>12.2</ele>
        <time>2021-07-02 19:04:58</time>
      </trkpt>
      <trkpt lat="29.26484" lon="-13.51978">
        <ele>12.2</ele>
        <time>2021-07-02 19:04:59</time>
      </trkpt>
      <trkpt lat="29.2648" lon="-13.51978">
        <ele>12.2</ele>
        <time>2021-07-02 19:05:00</time>
      </trkpt>
      <trkpt lat="29.26476" lon="-13.51977">
        <ele>12.2</ele>
        <time>2021-07-02 19:05:01</time>
      </trkpt>
      <trkpt lat="29.26472" lon="-13.51977">
        <ele>12.2</ele>
        <time>2021-07-02 19:05:02</time>
      </trkpt>
      <trkpt lat="29.26467" lon="-13.51977">
        <ele>12.2</ele>
        <time>2021-07-02 19:05:03</time>
      </trkpt>
      <trkpt lat="29.26463" lon="-13.51978">
        <ele>12.2</ele>
        <time>2021-07-02 19:05:04</time>
      </trkpt>
      <trkpt lat="29.26459" lon="-13.51978">
        <ele>12.2</ele>
        <time>2021-07-02 19:05:05</time>
      </trkpt>
      <trkpt lat="29.26455" lon="-13.51978">
        <ele>12.4</ele>
        <time>2021-07-02 19:05:06</time>
      </trkpt>
      <trkpt lat="29.26451" lon="-13.51979">
        <ele>12.4</ele>
        <time>2021-07-02 19:05:07</time>
      </trkpt>
      <trkpt lat="29.26447" lon="-13.51979">
        <ele>12.4</ele>
        <time>2021-07-02 19:05:08</time>
      </trkpt>
      <trkpt lat="29.26444" lon="-13.51979">
        <ele>12.4</ele>
        <time>2021-07-02 19:05:09</time>
      </trkpt>
      <trkpt lat="29.2644" lon="-13.51979">
        <ele>12.6</ele>
        <time>2021-07-02 19:05:10</time>
      </trkpt>
      <trkpt lat="29.26437" lon="-13.51979">
        <ele>12.6</ele>
        <time>2021-07-02 19:05:11</time>
      </trkpt>
      <trkpt lat="29.26433" lon="-13.51979">
        <ele>12.6</ele>
        <time>2021-07-02 19:05:12</time>
      </trkpt>
      <trkpt lat="29.26431" lon="-13.51979">
        <ele>12.6</ele>
        <time>2021-07-02 19:05:13</time>
      </trkpt>
      <trkpt lat="29.26428" lon="-13.51979">
        <ele>12.6</ele>
        <time>2021-07-02 19:05:14</time>
      </trkpt>
      <trkpt lat="29.26424" lon="-13.5198">
        <ele>12.6</ele>
        <time>2021-07-02 19:05:15</time>
      </trkpt>
      <trkpt lat="29.2642" lon="-13.5198">
        <ele>12.6</ele>
        <time>2021-07-02 19:05:16</time>
      </trkpt>
      <trkpt lat="29.26416" lon="-13.5198">
        <ele>12.6</ele>
        <time>2021-07-02 19:05:17</time>
      </trkpt>
      <trkpt lat="29.26412" lon="-13.5198">
        <ele>12.6</ele>
        <time>2021-07-02 19:05:18</time>
      </trkpt>
      <trkpt lat="29.26408" lon="-13.5198">
        <ele>12.6</ele>
        <time>2021-07-02 19:05:19</time>
      </trkpt>
      <trkpt lat="29.26403" lon="-13.5198">
        <ele>12.8</ele>
        <time>2021-07-02 19:05:20</time>
      </trkpt>
      <trkpt lat="29.26399" lon="-13.5198">
        <ele>12.8</ele>
        <time>2021-07-02 19:05:21</time>
      </trkpt>
      <trkpt lat="29.26395" lon="-13.5198">
        <ele>12.8</ele>
        <time>2021-07-02 19:05:22</time>
      </trkpt>
      <trkpt lat="29.26391" lon="-13.5198">
        <ele>12.8</ele>
        <time>2021-07-02 19:05:23</time>
      </trkpt>
      <trkpt lat="29.26387" lon="-13.51981">
        <ele>12.8</ele>
        <time>2021-07-02 19:05:24</time>
      </trkpt>
      <trkpt lat="29.26383" lon="-13.51981">
        <ele>12.8</ele>
        <time>2021-07-02 19:05:25</time>
      </trkpt>
      <trkpt lat="29.26379" lon="-13.5198">
        <ele>12.8</ele>
        <time>2021-07-02 19:05:26</time>
      </trkpt>
      <trkpt lat="29.26376" lon="-13.51981">
        <ele>12.8</ele>
        <time>2021-07-02 19:05:27</time>
      </trkpt>
      <trkpt lat="29.26372" lon="-13.51981">
        <ele>13.2</ele>
        <time>2021-07-02 19:05:28</time>
      </trkpt>
      <trkpt lat="29.26368" lon="-13.5198">
        <ele>13.2</ele>
        <time>2021-07-02 19:05:29</time>
      </trkpt>
      <trkpt lat="29.26364" lon="-13.5198">
        <ele>13.2</ele>
        <time>2021-07-02 19:05:30</time>
      </trkpt>
      <trkpt lat="29.2636" lon="-13.5198">
        <ele>13.2</ele>
        <time>2021-07-02 19:05:31</time>
      </trkpt>
      <trkpt lat="29.26356" lon="-13.5198">
        <ele>13.4</ele>
        <time>2021-07-02 19:05:32</time>
      </trkpt>
      <trkpt lat="29.26352" lon="-13.5198">
        <ele>13.4</ele>
        <time>2021-07-02 19:05:33</time>
      </trkpt>
      <trkpt lat="29.26347" lon="-13.5198">
        <ele>13.4</ele>
        <time>2021-07-02 19:05:34</time>
      </trkpt>
      <trkpt lat="29.26343" lon="-13.51979">
        <ele>13.4</ele>
        <time>2021-07-02 19:05:35</time>
      </trkpt>
      <trkpt lat="29.26339" lon="-13.51979">
        <ele>13.4</ele>
        <time>2021-07-02 19:05:36</time>
      </trkpt>
      <trkpt lat="29.26335" lon="-13.51979">
        <ele>13.4</ele>
        <time>2021-07-02 19:05:37</time>
      </trkpt>
      <trkpt lat="29.26331" lon="-13.51979">
        <ele>13.4</ele>
        <time>2021-07-02 19:05:38</time>
      </trkpt>
      <trkpt lat="29.26328" lon="-13.51979">
        <ele>13.4</ele>
        <time>2021-07-02 19:05:39</time>
      </trkpt>
      <trkpt lat="29.26324" lon="-13.51979">
        <ele>13.4</ele>
        <time>2021-07-02 19:05:40</time>
      </trkpt>
      <trkpt lat="29.2632" lon="-13.51979">
        <ele>13.4</ele>
        <time>2021-07-02 19:05:41</time>
      </trkpt>
      <trkpt lat="29.26316" lon="-13.51978">
        <ele>13.4</ele>
        <time>2021-07-02 19:05:42</time>
      </trkpt>
      <trkpt lat="29.26312" lon="-13.51978">
        <ele>13.4</ele>
        <time>2021-07-02 19:05:43</time>
      </trkpt>
      <trkpt lat="29.26308" lon="-13.51977">
        <ele>13.4</ele>
        <time>2021-07-02 19:05:44</time>
      </trkpt>
      <trkpt lat="29.26304" lon="-13.51976">
        <ele>13.4</ele>
        <time>2021-07-02 19:05:45</time>
      </trkpt>
      <trkpt lat="29.26301" lon="-13.51976">
        <ele>13.6</ele>
        <time>2021-07-02 19:05:46</time>
      </trkpt>
      <trkpt lat="29.26297" lon="-13.51975">
        <ele>13.6</ele>
        <time>2021-07-02 19:05:47</time>
      </trkpt>
      <trkpt lat="29.26294" lon="-13.51975">
        <ele>13.6</ele>
        <time>2021-07-02 19:05:48</time>
      </trkpt>
      <trkpt lat="29.2629" lon="-13.51975">
        <ele>13.8</ele>
        <time>2021-07-02 19:05:49</time>
      </trkpt>
      <trkpt lat="29.26287" lon="-13.51974">
        <ele>13.8</ele>
        <time>2021-07-02 19:05:50</time>
      </trkpt>
      <trkpt lat="29.26284" lon="-13.51974">
        <ele>13.8</ele>
        <time>2021-07-02 19:05:51</time>
      </trkpt>
      <trkpt lat="29.2628" lon="-13.51974">
        <ele>14</ele>
        <time>2021-07-02 19:05:52</time>
      </trkpt>
      <trkpt lat="29.26277" lon="-13.51973">
        <ele>14</ele>
        <time>2021-07-02 19:05:53</time>
      </trkpt>
      <trkpt lat="29.26273" lon="-13.51973">
        <ele>14</ele>
        <time>2021-07-02 19:05:54</time>
      </trkpt>
      <trkpt lat="29.2627" lon="-13.51972">
        <ele>14.2</ele>
        <time>2021-07-02 19:05:55</time>
      </trkpt>
      <trkpt lat="29.26267" lon="-13.51971">
        <ele>14.2</ele>
        <time>2021-07-02 19:05:56</time>
      </trkpt>
      <trkpt lat="29.26263" lon="-13.51971">
        <ele>14.2</ele>
        <time>2021-07-02 19:05:57</time>
      </trkpt>
      <trkpt lat="29.2626" lon="-13.51971">
        <ele>14.6</ele>
        <time>2021-07-02 19:05:58</time>
      </trkpt>
      <trkpt lat="29.26257" lon="-13.51971">
        <ele>14.6</ele>
        <time>2021-07-02 19:05:59</time>
      </trkpt>
      <trkpt lat="29.26254" lon="-13.5197">
        <ele>14.8</ele>
        <time>2021-07-02 19:06:00</time>
      </trkpt>
      <trkpt lat="29.26251" lon="-13.51969">
        <ele>14.8</ele>
        <time>2021-07-02 19:06:01</time>
      </trkpt>
      <trkpt lat="29.26247" lon="-13.51969">
        <ele>15.2</ele>
        <time>2021-07-02 19:06:02</time>
      </trkpt>
      <trkpt lat="29.26244" lon="-13.51968">
        <ele>15.2</ele>
        <time>2021-07-02 19:06:03</time>
      </trkpt>
      <trkpt lat="29.26241" lon="-13.51967">
        <ele>15.4</ele>
        <time>2021-07-02 19:06:04</time>
      </trkpt>
      <trkpt lat="29.26238" lon="-13.51967">
        <ele>15.4</ele>
        <time>2021-07-02 19:06:05</time>
      </trkpt>
      <trkpt lat="29.26235" lon="-13.51966">
        <ele>15.6</ele>
        <time>2021-07-02 19:06:06</time>
      </trkpt>
      <trkpt lat="29.26232" lon="-13.51965">
        <ele>15.6</ele>
        <time>2021-07-02 19:06:07</time>
      </trkpt>
      <trkpt lat="29.26229" lon="-13.51963">
        <ele>15.8</ele>
        <time>2021-07-02 19:06:08</time>
      </trkpt>
      <trkpt lat="29.26225" lon="-13.51962">
        <ele>15.8</ele>
        <time>2021-07-02 19:06:09</time>
      </trkpt>
      <trkpt lat="29.26221" lon="-13.51961">
        <ele>15.8</ele>
        <time>2021-07-02 19:06:10</time>
      </trkpt>
      <trkpt lat="29.26218" lon="-13.51959">
        <ele>16.2</ele>
        <time>2021-07-02 19:06:11</time>
      </trkpt>
      <trkpt lat="29.26215" lon="-13.51957">
        <ele>16.2</ele>
        <time>2021-07-02 19:06:12</time>
      </trkpt>
      <trkpt lat="29.26213" lon="-13.51955">
        <ele>16.2</ele>
        <time>2021-07-02 19:06:13</time>
      </trkpt>
      <trkpt lat="29.26211" lon="-13.51954">
        <ele>16.4</ele>
        <time>2021-07-02 19:06:14</time>
      </trkpt>
      <trkpt lat="29.26209" lon="-13.51952">
        <ele>16.4</ele>
        <time>2021-07-02 19:06:15</time>
      </trkpt>
      <trkpt lat="29.26207" lon="-13.51951">
        <ele>16.8</ele>
        <time>2021-07-02 19:06:16</time>
      </trkpt>
      <trkpt lat="29.26206" lon="-13.5195">
        <ele>16.8</ele>
        <time>2021-07-02 19:06:17</time>
      </trkpt>
      <trkpt lat="29.26205" lon="-13.51948">
        <ele>17</ele>
        <time>2021-07-02 19:06:18</time>
      </trkpt>
      <trkpt lat="29.26204" lon="-13.51946">
        <ele>17</ele>
        <time>2021-07-02 19:06:19</time>
      </trkpt>
      <trkpt lat="29.26202" lon="-13.51944">
        <ele>17.4</ele>
        <time>2021-07-02 19:06:20</time>
      </trkpt>
      <trkpt lat="29.26201" lon="-13.51943">
        <ele>17.4</ele>
        <time>2021-07-02 19:06:21</time>
      </trkpt>
      <trkpt lat="29.26199" lon="-13.51941">
        <ele>17.8</ele>
        <time>2021-07-02 19:06:22</time>
      </trkpt>
      <trkpt lat="29.26197" lon="-13.51939">
        <ele>18</ele>
        <time>2021-07-02 19:06:23</time>
      </trkpt>
      <trkpt lat="29.26196" lon="-13.51937">
        <ele>18</ele>
        <time>2021-07-02 19:06:24</time>
      </trkpt>
      <trkpt lat="29.26194" lon="-13.51935">
        <ele>18.4</ele>
        <time>2021-07-02 19:06:25</time>
      </trkpt>
      <trkpt lat="29.26192" lon="-13.51933">
        <ele>18.6</ele>
        <time>2021-07-02 19:06:26</time>
      </trkpt>
      <trkpt lat="29.2619" lon="-13.51931">
        <ele>18.6</ele>
        <time>2021-07-02 19:06:27</time>
      </trkpt>
      <trkpt lat="29.26188" lon="-13.5193">
        <ele>19</ele>
        <time>2021-07-02 19:06:28</time>
      </trkpt>
      <trkpt lat="29.26187" lon="-13.51928">
        <ele>19.4</ele>
        <time>2021-07-02 19:06:29</time>
      </trkpt>
      <trkpt lat="29.26185" lon="-13.51926">
        <ele>19.6</ele>
        <time>2021-07-02 19:06:30</time>
      </trkpt>
      <trkpt lat="29.26184" lon="-13.51924">
        <ele>19.6</ele>
        <time>2021-07-02 19:06:31</time>
      </trkpt>
      <trkpt lat="29.26183" lon="-13.51922">
        <ele>20</ele>
        <time>2021-07-02 19:06:32</time>
      </trkpt>
      <trkpt lat="29.26182" lon="-13.51921">
        <ele>20.2</ele>
        <time>2021-07-02 19:06:33</time>
      </trkpt>
      <trkpt lat="29.26181" lon="-13.51919">
        <ele>20.4</ele>
        <time>2021-07-02 19:06:34</time>
      </trkpt>
      <trkpt lat="29.2618" lon="-13.51917">
        <ele>20.8</ele>
        <time>2021-07-02 19:06:35</time>
      </trkpt>
      <trkpt lat="29.26178" lon="-13.51916">
        <ele>21.2</ele>
        <time>2021-07-02 19:06:36</time>
      </trkpt>
      <trkpt lat="29.26177" lon="-13.51914">
        <ele>21.6</ele>
        <time>2021-07-02 19:06:37</time>
      </trkpt>
      <trkpt lat="29.26176" lon="-13.51912">
        <ele>21.8</ele>
        <time>2021-07-02 19:06:38</time>
      </trkpt>
      <trkpt lat="29.26175" lon="-13.51909">
        <ele>22.2</ele>
        <time>2021-07-02 19:06:39</time>
      </trkpt>
      <trkpt lat="29.26174" lon="-13.51907">
        <ele>22.4</ele>
        <time>2021-07-02 19:06:40</time>
      </trkpt>
      <trkpt lat="29.26173" lon="-13.51906">
        <ele>22.6</ele>
        <time>2021-07-02 19:06:41</time>
      </trkpt>
      <trkpt lat="29.26171" lon="-13.51904">
        <ele>23</ele>
        <time>2021-07-02 19:06:42</time>
      </trkpt>
      <trkpt lat="29.26171" lon="-13.51901">
        <ele>23</ele>
        <time>2021-07-02 19:06:43</time>
      </trkpt>
      <trkpt lat="29.2617" lon="-13.51899">
        <ele>23.4</ele>
        <time>2021-07-02 19:06:44</time>
      </trkpt>
      <trkpt lat="29.2617" lon="-13.51897">
        <ele>23.8</ele>
        <time>2021-07-02 19:06:45</time>
      </trkpt>
      <trkpt lat="29.26169" lon="-13.51895">
        <ele>24</ele>
        <time>2021-07-02 19:06:46</time>
      </trkpt>
      <trkpt lat="29.26168" lon="-13.51892">
        <ele>24.4</ele>
        <time>2021-07-02 19:06:47</time>
      </trkpt>
      <trkpt lat="29.26166" lon="-13.5189">
        <ele>24.6</ele>
        <time>2021-07-02 19:06:48</time>
      </trkpt>
      <trkpt lat="29.26164" lon="-13.51888">
        <ele>24.6</ele>
        <time>2021-07-02 19:06:49</time>
      </trkpt>
      <trkpt lat="29.26162" lon="-13.51886">
        <ele>24.8</ele>
        <time>2021-07-02 19:06:50</time>
      </trkpt>
      <trkpt lat="29.26161" lon="-13.51884">
        <ele>25</ele>
        <time>2021-07-02 19:06:51</time>
      </trkpt>
      <trkpt lat="29.26159" lon="-13.51882">
        <ele>25</ele>
        <time>2021-07-02 19:06:52</time>
      </trkpt>
      <trkpt lat="29.26157" lon="-13.51879">
        <ele>25.4</ele>
        <time>2021-07-02 19:06:53</time>
      </trkpt>
      <trkpt lat="29.26155" lon="-13.51877">
        <ele>25.4</ele>
        <time>2021-07-02 19:06:54</time>
      </trkpt>
      <trkpt lat="29.26153" lon="-13.51875">
        <ele>25.6</ele>
        <time>2021-07-02 19:06:55</time>
      </trkpt>
      <trkpt lat="29.26151" lon="-13.51873">
        <ele>25.6</ele>
        <time>2021-07-02 19:06:56</time>
      </trkpt>
      <trkpt lat="29.26149" lon="-13.5187">
        <ele>25.6</ele>
        <time>2021-07-02 19:06:57</time>
      </trkpt>
      <trkpt lat="29.26148" lon="-13.51868">
        <ele>26</ele>
        <time>2021-07-02 19:06:58</time>
      </trkpt>
      <trkpt lat="29.26146" lon="-13.51866">
        <ele>26</ele>
        <time>2021-07-02 19:06:59</time>
      </trkpt>
      <trkpt lat="29.26145" lon="-13.51863">
        <ele>26.2</ele>
        <time>2021-07-02 19:07:00</time>
      </trkpt>
      <trkpt lat="29.26143" lon="-13.51861">
        <ele>26.2</ele>
        <time>2021-07-02 19:07:01</time>
      </trkpt>
      <trkpt lat="29.26142" lon="-13.51859">
        <ele>26.2</ele>
        <time>2021-07-02 19:07:02</time>
      </trkpt>
      <trkpt lat="29.2614" lon="-13.51856">
        <ele>26.2</ele>
        <time>2021-07-02 19:07:03</time>
      </trkpt>
      <trkpt lat="29.26139" lon="-13.51854">
        <ele>26.2</ele>
        <time>2021-07-02 19:07:04</time>
      </trkpt>
      <trkpt lat="29.26137" lon="-13.51852">
        <ele>26.6</ele>
        <time>2021-07-02 19:07:05</time>
      </trkpt>
      <trkpt lat="29.26136" lon="-13.5185">
        <ele>26.6</ele>
        <time>2021-07-02 19:07:06</time>
      </trkpt>
      <trkpt lat="29.26134" lon="-13.51848">
        <ele>26.8</ele>
        <time>2021-07-02 19:07:07</time>
      </trkpt>
      <trkpt lat="29.26132" lon="-13.51847">
        <ele>27</ele>
        <time>2021-07-02 19:07:08</time>
      </trkpt>
      <trkpt lat="29.2613" lon="-13.51845">
        <ele>27</ele>
        <time>2021-07-02 19:07:09</time>
      </trkpt>
      <trkpt lat="29.26128" lon="-13.51843">
        <ele>27.2</ele>
        <time>2021-07-02 19:07:10</time>
      </trkpt>
      <trkpt lat="29.26126" lon="-13.5184">
        <ele>27.2</ele>
        <time>2021-07-02 19:07:11</time>
      </trkpt>
      <trkpt lat="29.26124" lon="-13.51837">
        <ele>27.4</ele>
        <time>2021-07-02 19:07:12</time>
      </trkpt>
      <trkpt lat="29.26122" lon="-13.51834">
        <ele>27.4</ele>
        <time>2021-07-02 19:07:13</time>
      </trkpt>
      <trkpt lat="29.26121" lon="-13.51831">
        <ele>27.4</ele>
        <time>2021-07-02 19:07:14</time>
      </trkpt>
      <trkpt lat="29.26119" lon="-13.51828">
        <ele>27.4</ele>
        <time>2021-07-02 19:07:15</time>
      </trkpt>
      <trkpt lat="29.26117" lon="-13.51825">
        <ele>27.4</ele>
        <time>2021-07-02 19:07:16</time>
      </trkpt>
      <trkpt lat="29.26114" lon="-13.51823">
        <ele>27.4</ele>
        <time>2021-07-02 19:07:17</time>
      </trkpt>
      <trkpt lat="29.26112" lon="-13.5182">
        <ele>27.8</ele>
        <time>2021-07-02 19:07:18</time>
      </trkpt>
      <trkpt lat="29.26111" lon="-13.51817">
        <ele>27.8</ele>
        <time>2021-07-02 19:07:19</time>
      </trkpt>
      <trkpt lat="29.26109" lon="-13.51814">
        <ele>28</ele>
        <time>2021-07-02 19:07:20</time>
      </trkpt>
      <trkpt lat="29.26107" lon="-13.51811">
        <ele>28</ele>
        <time>2021-07-02 19:07:21</time>
      </trkpt>
      <trkpt lat="29.26105" lon="-13.51808">
        <ele>28</ele>
        <time>2021-07-02 19:07:22</time>
      </trkpt>
      <trkpt lat="29.26102" lon="-13.51805">
        <ele>28.4</ele>
        <time>2021-07-02 19:07:23</time>
      </trkpt>
      <trkpt lat="29.261" lon="-13.51802">
        <ele>28.4</ele>
        <time>2021-07-02 19:07:24</time>
      </trkpt>
      <trkpt lat="29.26098" lon="-13.51799">
        <ele>28.6</ele>
        <time>2021-07-02 19:07:25</time>
      </trkpt>
      <trkpt lat="29.26095" lon="-13.51796">
        <ele>28.6</ele>
        <time>2021-07-02 19:07:26</time>
      </trkpt>
      <trkpt lat="29.26093" lon="-13.51792">
        <ele>28.8</ele>
        <time>2021-07-02 19:07:27</time>
      </trkpt>
      <trkpt lat="29.26091" lon="-13.51789">
        <ele>28.8</ele>
        <time>2021-07-02 19:07:28</time>
      </trkpt>
      <trkpt lat="29.26089" lon="-13.51786">
        <ele>29.2</ele>
        <time>2021-07-02 19:07:29</time>
      </trkpt>
      <trkpt lat="29.26086" lon="-13.51783">
        <ele>29.4</ele>
        <time>2021-07-02 19:07:30</time>
      </trkpt>
      <trkpt lat="29.26084" lon="-13.51779">
        <ele>29.4</ele>
        <time>2021-07-02 19:07:31</time>
      </trkpt>
      <trkpt lat="29.26082" lon="-13.51776">
        <ele>29.6</ele>
        <time>2021-07-02 19:07:32</time>
      </trkpt>
      <trkpt lat="29.2608" lon="-13.51773">
        <ele>29.8</ele>
        <time>2021-07-02 19:07:33</time>
      </trkpt>
      <trkpt lat="29.26078" lon="-13.5177">
        <ele>29.8</ele>
        <time>2021-07-02 19:07:34</time>
      </trkpt>
      <trkpt lat="29.26076" lon="-13.51767">
        <ele>30</ele>
        <time>2021-07-02 19:07:35</time>
      </trkpt>
      <trkpt lat="29.26073" lon="-13.51764">
        <ele>30</ele>
        <time>2021-07-02 19:07:36</time>
      </trkpt>
      <trkpt lat="29.26071" lon="-13.51761">
        <ele>30.4</ele>
        <time>2021-07-02 19:07:37</time>
      </trkpt>
      <trkpt lat="29.2607" lon="-13.51759">
        <ele>30.4</ele>
        <time>2021-07-02 19:07:38</time>
      </trkpt>
      <trkpt lat="29.26068" lon="-13.51755">
        <ele>30.8</ele>
        <time>2021-07-02 19:07:39</time>
      </trkpt>
      <trkpt lat="29.26066" lon="-13.51752">
        <ele>30.8</ele>
        <time>2021-07-02 19:07:40</time>
      </trkpt>
      <trkpt lat="29.26064" lon="-13.51749">
        <ele>31</ele>
        <time>2021-07-02 19:07:41</time>
      </trkpt>
      <trkpt lat="29.26062" lon="-13.51746">
        <ele>31</ele>
        <time>2021-07-02 19:07:42</time>
      </trkpt>
      <trkpt lat="29.2606" lon="-13.51743">
        <ele>31.2</ele>
        <time>2021-07-02 19:07:43</time>
      </trkpt>
      <trkpt lat="29.26058" lon="-13.51741">
        <ele>31.2</ele>
        <time>2021-07-02 19:07:44</time>
      </trkpt>
      <trkpt lat="29.26056" lon="-13.51738">
        <ele>31.4</ele>
        <time>2021-07-02 19:07:45</time>
      </trkpt>
      <trkpt lat="29.26054" lon="-13.51735">
        <ele>31.4</ele>
        <time>2021-07-02 19:07:46</time>
      </trkpt>
      <trkpt lat="29.26053" lon="-13.51732">
        <ele>31.8</ele>
        <time>2021-07-02 19:07:47</time>
      </trkpt>
      <trkpt lat="29.26051" lon="-13.51729">
        <ele>31.8</ele>
        <time>2021-07-02 19:07:48</time>
      </trkpt>
      <trkpt lat="29.26049" lon="-13.51726">
        <ele>32.2</ele>
        <time>2021-07-02 19:07:49</time>
      </trkpt>
      <trkpt lat="29.26047" lon="-13.51722">
        <ele>32.2</ele>
        <time>2021-07-02 19:07:50</time>
      </trkpt>
      <trkpt lat="29.26046" lon="-13.5172">
        <ele>32.6</ele>
        <time>2021-07-02 19:07:51</time>
      </trkpt>
      <trkpt lat="29.26044" lon="-13.51717">
        <ele>32.6</ele>
        <time>2021-07-02 19:07:52</time>
      </trkpt>
      <trkpt lat="29.26042" lon="-13.51714">
        <ele>32.8</ele>
        <time>2021-07-02 19:07:53</time>
      </trkpt>
      <trkpt lat="29.26041" lon="-13.5171">
        <ele>32.8</ele>
        <time>2021-07-02 19:07:54</time>
      </trkpt>
      <trkpt lat="29.26039" lon="-13.51707">
        <ele>33.2</ele>
        <time>2021-07-02 19:07:55</time>
      </trkpt>
      <trkpt lat="29.26038" lon="-13.51704">
        <ele>33.2</ele>
        <time>2021-07-02 19:07:56</time>
      </trkpt>
      <trkpt lat="29.26036" lon="-13.517">
        <ele>33.6</ele>
        <time>2021-07-02 19:07:57</time>
      </trkpt>
      <trkpt lat="29.26034" lon="-13.51697">
        <ele>33.8</ele>
        <time>2021-07-02 19:07:58</time>
      </trkpt>
      <trkpt lat="29.26032" lon="-13.51693">
        <ele>34</ele>
        <time>2021-07-02 19:07:59</time>
      </trkpt>
      <trkpt lat="29.26031" lon="-13.5169">
        <ele>34.2</ele>
        <time>2021-07-02 19:08:00</time>
      </trkpt>
      <trkpt lat="29.26029" lon="-13.51686">
        <ele>34.4</ele>
        <time>2021-07-02 19:08:01</time>
      </trkpt>
      <trkpt lat="29.26028" lon="-13.51683">
        <ele>34.4</ele>
        <time>2021-07-02 19:08:02</time>
      </trkpt>
      <trkpt lat="29.26027" lon="-13.5168">
        <ele>34.8</ele>
        <time>2021-07-02 19:08:03</time>
      </trkpt>
      <trkpt lat="29.26025" lon="-13.51677">
        <ele>35</ele>
        <time>2021-07-02 19:08:04</time>
      </trkpt>
      <trkpt lat="29.26024" lon="-13.51674">
        <ele>35.2</ele>
        <time>2021-07-02 19:08:05</time>
      </trkpt>
      <trkpt lat="29.26021" lon="-13.51671">
        <ele>35.2</ele>
        <time>2021-07-02 19:08:06</time>
      </trkpt>
      <trkpt lat="29.26019" lon="-13.51667">
        <ele>35.6</ele>
        <time>2021-07-02 19:08:07</time>
      </trkpt>
      <trkpt lat="29.26018" lon="-13.51664">
        <ele>35.6</ele>
        <time>2021-07-02 19:08:08</time>
      </trkpt>
      <trkpt lat="29.26016" lon="-13.5166">
        <ele>35.8</ele>
        <time>2021-07-02 19:08:09</time>
      </trkpt>
      <trkpt lat="29.26015" lon="-13.51657">
        <ele>35.8</ele>
        <time>2021-07-02 19:08:10</time>
      </trkpt>
      <trkpt lat="29.26013" lon="-13.51653">
        <ele>35.8</ele>
        <time>2021-07-02 19:08:11</time>
      </trkpt>
      <trkpt lat="29.26011" lon="-13.5165">
        <ele>36</ele>
        <time>2021-07-02 19:08:12</time>
      </trkpt>
      <trkpt lat="29.26009" lon="-13.51647">
        <ele>36</ele>
        <time>2021-07-02 19:08:13</time>
      </trkpt>
      <trkpt lat="29.26007" lon="-13.51644">
        <ele>36</ele>
        <time>2021-07-02 19:08:14</time>
      </trkpt>
      <trkpt lat="29.26005" lon="-13.51642">
        <ele>36.4</ele>
        <time>2021-07-02 19:08:15</time>
      </trkpt>
      <trkpt lat="29.26002" lon="-13.5164">
        <ele>36.4</ele>
        <time>2021-07-02 19:08:16</time>
      </trkpt>
      <trkpt lat="29.25999" lon="-13.51638">
        <ele>36.8</ele>
        <time>2021-07-02 19:08:17</time>
      </trkpt>
      <trkpt lat="29.25996" lon="-13.51637">
        <ele>36.8</ele>
        <time>2021-07-02 19:08:18</time>
      </trkpt>
      <trkpt lat="29.25993" lon="-13.51636">
        <ele>37</ele>
        <time>2021-07-02 19:08:19</time>
      </trkpt>
      <trkpt lat="29.25989" lon="-13.51634">
        <ele>37</ele>
        <time>2021-07-02 19:08:20</time>
      </trkpt>
      <trkpt lat="29.25986" lon="-13.51633">
        <ele>37.2</ele>
        <time>2021-07-02 19:08:21</time>
      </trkpt>
      <trkpt lat="29.25983" lon="-13.51632">
        <ele>37.2</ele>
        <time>2021-07-02 19:08:22</time>
      </trkpt>
      <trkpt lat="29.25979" lon="-13.51631">
        <ele>37.2</ele>
        <time>2021-07-02 19:08:23</time>
      </trkpt>
      <trkpt lat="29.25975" lon="-13.5163">
        <ele>37.2</ele>
        <time>2021-07-02 19:08:24</time>
      </trkpt>
      <trkpt lat="29.25972" lon="-13.51629">
        <ele>37.4</ele>
        <time>2021-07-02 19:08:25</time>
      </trkpt>
      <trkpt lat="29.25968" lon="-13.51628">
        <ele>37.4</ele>
        <time>2021-07-02 19:08:26</time>
      </trkpt>
      <trkpt lat="29.25965" lon="-13.51627">
        <ele>37.4</ele>
        <time>2021-07-02 19:08:27</time>
      </trkpt>
      <trkpt lat="29.25962" lon="-13.51625">
        <ele>37.4</ele>
        <time>2021-07-02 19:08:28</time>
      </trkpt>
      <trkpt lat="29.25959" lon="-13.51624">
        <ele>37.4</ele>
        <time>2021-07-02 19:08:29</time>
      </trkpt>
      <trkpt lat="29.25956" lon="-13.51622">
        <ele>37.4</ele>
        <time>2021-07-02 19:08:30</time>
      </trkpt>
      <trkpt lat="29.25953" lon="-13.51621">
        <ele>37.4</ele>
        <time>2021-07-02 19:08:31</time>
      </trkpt>
      <trkpt lat="29.2595" lon="-13.51619">
        <ele>37.4</ele>
        <time>2021-07-02 19:08:32</time>
      </trkpt>
      <trkpt lat="29.25946" lon="-13.51618">
        <ele>37.6</ele>
        <time>2021-07-02 19:08:33</time>
      </trkpt>
      <trkpt lat="29.25943" lon="-13.51616">
        <ele>37.6</ele>
        <time>2021-07-02 19:08:34</time>
      </trkpt>
      <trkpt lat="29.25941" lon="-13.51616">
        <ele>37.8</ele>
        <time>2021-07-02 19:08:35</time>
      </trkpt>
      <trkpt lat="29.25939" lon="-13.51615">
        <ele>37.8</ele>
        <time>2021-07-02 19:08:36</time>
      </trkpt>
      <trkpt lat="29.25937" lon="-13.51614">
        <ele>38.4</ele>
        <time>2021-07-02 19:08:37</time>
      </trkpt>
      <trkpt lat="29.25934" lon="-13.51613">
        <ele>38.6</ele>
        <time>2021-07-02 19:08:38</time>
      </trkpt>
      <trkpt lat="29.25932" lon="-13.51612">
        <ele>38.8</ele>
        <time>2021-07-02 19:08:39</time>
      </trkpt>
      <trkpt lat="29.2593" lon="-13.5161">
        <ele>39.2</ele>
        <time>2021-07-02 19:08:40</time>
      </trkpt>
      <trkpt lat="29.25928" lon="-13.5161">
        <ele>39.6</ele>
        <time>2021-07-02 19:08:41</time>
      </trkpt>
      <trkpt lat="29.25925" lon="-13.5161">
        <ele>40</ele>
        <time>2021-07-02 19:08:42</time>
      </trkpt>
      <trkpt lat="29.25923" lon="-13.5161">
        <ele>40.2</ele>
        <time>2021-07-02 19:08:43</time>
      </trkpt>
      <trkpt lat="29.2592" lon="-13.5161">
        <ele>40.6</ele>
        <time>2021-07-02 19:08:44</time>
      </trkpt>
      <trkpt lat="29.25917" lon="-13.5161">
        <ele>40.8</ele>
        <time>2021-07-02 19:08:45</time>
      </trkpt>
      <trkpt lat="29.25914" lon="-13.5161">
        <ele>41.2</ele>
        <time>2021-07-02 19:08:46</time>
      </trkpt>
      <trkpt lat="29.25911" lon="-13.51611">
        <ele>41.4</ele>
        <time>2021-07-02 19:08:47</time>
      </trkpt>
      <trkpt lat="29.25907" lon="-13.5161">
        <ele>41.4</ele>
        <time>2021-07-02 19:08:48</time>
      </trkpt>
      <trkpt lat="29.25904" lon="-13.51609">
        <ele>41.6</ele>
        <time>2021-07-02 19:08:49</time>
      </trkpt>
      <trkpt lat="29.25901" lon="-13.51607">
        <ele>41.6</ele>
        <time>2021-07-02 19:08:50</time>
      </trkpt>
      <trkpt lat="29.25899" lon="-13.51605">
        <ele>41.6</ele>
        <time>2021-07-02 19:08:51</time>
      </trkpt>
      <trkpt lat="29.25897" lon="-13.51603">
        <ele>41.6</ele>
        <time>2021-07-02 19:08:52</time>
      </trkpt>
      <trkpt lat="29.25896" lon="-13.51601">
        <ele>41.6</ele>
        <time>2021-07-02 19:08:53</time>
      </trkpt>
      <trkpt lat="29.25894" lon="-13.51599">
        <ele>41.8</ele>
        <time>2021-07-02 19:08:54</time>
      </trkpt>
      <trkpt lat="29.25892" lon="-13.51598">
        <ele>41.8</ele>
        <time>2021-07-02 19:08:55</time>
      </trkpt>
      <trkpt lat="29.2589" lon="-13.51596">
        <ele>42.2</ele>
        <time>2021-07-02 19:08:56</time>
      </trkpt>
      <trkpt lat="29.25888" lon="-13.51595">
        <ele>42.6</ele>
        <time>2021-07-02 19:08:57</time>
      </trkpt>
      <trkpt lat="29.25887" lon="-13.51593">
        <ele>42.8</ele>
        <time>2021-07-02 19:08:58</time>
      </trkpt>
      <trkpt lat="29.25887" lon="-13.51593">
        <ele>43</ele>
        <time>2021-07-02 19:08:59</time>
      </trkpt>
      <trkpt lat="29.2588" lon="-13.51588">
        <ele>43.6</ele>
        <time>2021-07-02 19:09:00</time>
      </trkpt>
      <trkpt lat="29.25878" lon="-13.51587">
        <ele>43.6</ele>
        <time>2021-07-02 19:09:01</time>
      </trkpt>
      <trkpt lat="29.25875" lon="-13.51585">
        <ele>44</ele>
        <time>2021-07-02 19:09:02</time>
      </trkpt>
      <trkpt lat="29.25873" lon="-13.51584">
        <ele>44.2</ele>
        <time>2021-07-02 19:09:03</time>
      </trkpt>
      <trkpt lat="29.2587" lon="-13.51583">
        <ele>44.2</ele>
        <time>2021-07-02 19:09:04</time>
      </trkpt>
      <trkpt lat="29.25867" lon="-13.51582">
        <ele>44.4</ele>
        <time>2021-07-02 19:09:05</time>
      </trkpt>
      <trkpt lat="29.25864" lon="-13.51582">
        <ele>44.4</ele>
        <time>2021-07-02 19:09:06</time>
      </trkpt>
      <trkpt lat="29.2586" lon="-13.51581">
        <ele>44.8</ele>
        <time>2021-07-02 19:09:07</time>
      </trkpt>
      <trkpt lat="29.25858" lon="-13.51581">
        <ele>44.8</ele>
        <time>2021-07-02 19:09:08</time>
      </trkpt>
      <trkpt lat="29.25855" lon="-13.51581">
        <ele>45</ele>
        <time>2021-07-02 19:09:09</time>
      </trkpt>
      <trkpt lat="29.25852" lon="-13.51582">
        <ele>45</ele>
        <time>2021-07-02 19:09:10</time>
      </trkpt>
      <trkpt lat="29.25849" lon="-13.51583">
        <ele>45.4</ele>
        <time>2021-07-02 19:09:11</time>
      </trkpt>
      <trkpt lat="29.25846" lon="-13.51583">
        <ele>45.4</ele>
        <time>2021-07-02 19:09:12</time>
      </trkpt>
      <trkpt lat="29.25843" lon="-13.51584">
        <ele>45.8</ele>
        <time>2021-07-02 19:09:13</time>
      </trkpt>
      <trkpt lat="29.2584" lon="-13.51584">
        <ele>46</ele>
        <time>2021-07-02 19:09:14</time>
      </trkpt>
      <trkpt lat="29.25838" lon="-13.51584">
        <ele>46</ele>
        <time>2021-07-02 19:09:15</time>
      </trkpt>
      <trkpt lat="29.25835" lon="-13.51585">
        <ele>46.4</ele>
        <time>2021-07-02 19:09:16</time>
      </trkpt>
      <trkpt lat="29.25832" lon="-13.51585">
        <ele>46.4</ele>
        <time>2021-07-02 19:09:17</time>
      </trkpt>
      <trkpt lat="29.25829" lon="-13.51585">
        <ele>46.6</ele>
        <time>2021-07-02 19:09:18</time>
      </trkpt>
      <trkpt lat="29.25826" lon="-13.51586">
        <ele>47</ele>
        <time>2021-07-02 19:09:19</time>
      </trkpt>
      <trkpt lat="29.25823" lon="-13.51587">
        <ele>47</ele>
        <time>2021-07-02 19:09:20</time>
      </trkpt>
      <trkpt lat="29.2582" lon="-13.51587">
        <ele>47.2</ele>
        <time>2021-07-02 19:09:21</time>
      </trkpt>
      <trkpt lat="29.25817" lon="-13.51588">
        <ele>47.2</ele>
        <time>2021-07-02 19:09:22</time>
      </trkpt>
      <trkpt lat="29.25813" lon="-13.51588">
        <ele>47.6</ele>
        <time>2021-07-02 19:09:23</time>
      </trkpt>
      <trkpt lat="29.2581" lon="-13.51589">
        <ele>47.6</ele>
        <time>2021-07-02 19:09:24</time>
      </trkpt>
      <trkpt lat="29.25807" lon="-13.51589">
        <ele>48</ele>
        <time>2021-07-02 19:09:25</time>
      </trkpt>
      <trkpt lat="29.25803" lon="-13.5159">
        <ele>48</ele>
        <time>2021-07-02 19:09:26</time>
      </trkpt>
      <trkpt lat="29.258" lon="-13.5159">
        <ele>48.4</ele>
        <time>2021-07-02 19:09:27</time>
      </trkpt>
      <trkpt lat="29.25797" lon="-13.51591">
        <ele>48.4</ele>
        <time>2021-07-02 19:09:28</time>
      </trkpt>
      <trkpt lat="29.25793" lon="-13.51591">
        <ele>48.6</ele>
        <time>2021-07-02 19:09:29</time>
      </trkpt>
      <trkpt lat="29.2579" lon="-13.51591">
        <ele>48.8</ele>
        <time>2021-07-02 19:09:30</time>
      </trkpt>
      <trkpt lat="29.25786" lon="-13.51592">
        <ele>48.8</ele>
        <time>2021-07-02 19:09:31</time>
      </trkpt>
      <trkpt lat="29.25783" lon="-13.51592">
        <ele>49</ele>
        <time>2021-07-02 19:09:32</time>
      </trkpt>
      <trkpt lat="29.25779" lon="-13.51592">
        <ele>49</ele>
        <time>2021-07-02 19:09:33</time>
      </trkpt>
      <trkpt lat="29.25775" lon="-13.51592">
        <ele>49</ele>
        <time>2021-07-02 19:09:34</time>
      </trkpt>
      <trkpt lat="29.25771" lon="-13.51592">
        <ele>49.2</ele>
        <time>2021-07-02 19:09:35</time>
      </trkpt>
      <trkpt lat="29.25768" lon="-13.51593">
        <ele>49.2</ele>
        <time>2021-07-02 19:09:36</time>
      </trkpt>
      <trkpt lat="29.25764" lon="-13.51593">
        <ele>49.6</ele>
        <time>2021-07-02 19:09:37</time>
      </trkpt>
      <trkpt lat="29.2576" lon="-13.51593">
        <ele>49.6</ele>
        <time>2021-07-02 19:09:38</time>
      </trkpt>
      <trkpt lat="29.25757" lon="-13.51593">
        <ele>49.6</ele>
        <time>2021-07-02 19:09:39</time>
      </trkpt>
      <trkpt lat="29.25753" lon="-13.51594">
        <ele>49.8</ele>
        <time>2021-07-02 19:09:40</time>
      </trkpt>
      <trkpt lat="29.25749" lon="-13.51594">
        <ele>49.8</ele>
        <time>2021-07-02 19:09:41</time>
      </trkpt>
      <trkpt lat="29.25746" lon="-13.51595">
        <ele>49.8</ele>
        <time>2021-07-02 19:09:42</time>
      </trkpt>
      <trkpt lat="29.25742" lon="-13.51596">
        <ele>50</ele>
        <time>2021-07-02 19:09:43</time>
      </trkpt>
      <trkpt lat="29.25739" lon="-13.51597">
        <ele>50</ele>
        <time>2021-07-02 19:09:44</time>
      </trkpt>
      <trkpt lat="29.25735" lon="-13.51597">
        <ele>50.4</ele>
        <time>2021-07-02 19:09:45</time>
      </trkpt>
      <trkpt lat="29.25732" lon="-13.51597">
        <ele>50.4</ele>
        <time>2021-07-02 19:09:46</time>
      </trkpt>
      <trkpt lat="29.25728" lon="-13.51597">
        <ele>50.8</ele>
        <time>2021-07-02 19:09:47</time>
      </trkpt>
      <trkpt lat="29.25724" lon="-13.51597">
        <ele>50.8</ele>
        <time>2021-07-02 19:09:48</time>
      </trkpt>
      <trkpt lat="29.25721" lon="-13.51597">
        <ele>51.2</ele>
        <time>2021-07-02 19:09:49</time>
      </trkpt>
      <trkpt lat="29.25717" lon="-13.51596">
        <ele>51.2</ele>
        <time>2021-07-02 19:09:50</time>
      </trkpt>
      <trkpt lat="29.25713" lon="-13.51596">
        <ele>51.2</ele>
        <time>2021-07-02 19:09:51</time>
      </trkpt>
      <trkpt lat="29.25709" lon="-13.51595">
        <ele>51.4</ele>
        <time>2021-07-02 19:09:52</time>
      </trkpt>
      <trkpt lat="29.25705" lon="-13.51594">
        <ele>51.4</ele>
        <time>2021-07-02 19:09:53</time>
      </trkpt>
      <trkpt lat="29.25701" lon="-13.51593">
        <ele>51.8</ele>
        <time>2021-07-02 19:09:54</time>
      </trkpt>
      <trkpt lat="29.25697" lon="-13.51592">
        <ele>51.8</ele>
        <time>2021-07-02 19:09:55</time>
      </trkpt>
      <trkpt lat="29.25693" lon="-13.51591">
        <ele>51.8</ele>
        <time>2021-07-02 19:09:56</time>
      </trkpt>
      <trkpt lat="29.2569" lon="-13.51589">
        <ele>52</ele>
        <time>2021-07-02 19:09:57</time>
      </trkpt>
      <trkpt lat="29.25686" lon="-13.51587">
        <ele>52</ele>
        <time>2021-07-02 19:09:58</time>
      </trkpt>
      <trkpt lat="29.25683" lon="-13.51585">
        <ele>52.2</ele>
        <time>2021-07-02 19:09:59</time>
      </trkpt>
      <trkpt lat="29.25679" lon="-13.51583">
        <ele>52.2</ele>
        <time>2021-07-02 19:10:00</time>
      </trkpt>
      <trkpt lat="29.25676" lon="-13.5158">
        <ele>52.2</ele>
        <time>2021-07-02 19:10:01</time>
      </trkpt>
      <trkpt lat="29.25673" lon="-13.51577">
        <ele>52.2</ele>
        <time>2021-07-02 19:10:02</time>
      </trkpt>
      <trkpt lat="29.2567" lon="-13.51575">
        <ele>52.2</ele>
        <time>2021-07-02 19:10:03</time>
      </trkpt>
      <trkpt lat="29.25667" lon="-13.51573">
        <ele>52.2</ele>
        <time>2021-07-02 19:10:04</time>
      </trkpt>
      <trkpt lat="29.25664" lon="-13.5157">
        <ele>52.6</ele>
        <time>2021-07-02 19:10:05</time>
      </trkpt>
      <trkpt lat="29.25661" lon="-13.51568">
        <ele>52.6</ele>
        <time>2021-07-02 19:10:06</time>
      </trkpt>
      <trkpt lat="29.25658" lon="-13.51566">
        <ele>52.8</ele>
        <time>2021-07-02 19:10:07</time>
      </trkpt>
      <trkpt lat="29.25655" lon="-13.51564">
        <ele>52.8</ele>
        <time>2021-07-02 19:10:08</time>
      </trkpt>
      <trkpt lat="29.25651" lon="-13.51561">
        <ele>53.4</ele>
        <time>2021-07-02 19:10:09</time>
      </trkpt>
      <trkpt lat="29.25648" lon="-13.51559">
        <ele>53.2</ele>
        <time>2021-07-02 19:10:10</time>
      </trkpt>
      <trkpt lat="29.25645" lon="-13.51557">
        <ele>53.2</ele>
        <time>2021-07-02 19:10:11</time>
      </trkpt>
      <trkpt lat="29.25641" lon="-13.51555">
        <ele>53.2</ele>
        <time>2021-07-02 19:10:12</time>
      </trkpt>
      <trkpt lat="29.25637" lon="-13.51553">
        <ele>53.4</ele>
        <time>2021-07-02 19:10:13</time>
      </trkpt>
      <trkpt lat="29.25634" lon="-13.51552">
        <ele>53.4</ele>
        <time>2021-07-02 19:10:14</time>
      </trkpt>
      <trkpt lat="29.2563" lon="-13.51551">
        <ele>53.4</ele>
        <time>2021-07-02 19:10:15</time>
      </trkpt>
      <trkpt lat="29.25626" lon="-13.51549">
        <ele>53.6</ele>
        <time>2021-07-02 19:10:16</time>
      </trkpt>
      <trkpt lat="29.25623" lon="-13.51547">
        <ele>53.6</ele>
        <time>2021-07-02 19:10:17</time>
      </trkpt>
      <trkpt lat="29.25619" lon="-13.51545">
        <ele>53.8</ele>
        <time>2021-07-02 19:10:18</time>
      </trkpt>
      <trkpt lat="29.25616" lon="-13.51543">
        <ele>53.8</ele>
        <time>2021-07-02 19:10:19</time>
      </trkpt>
      <trkpt lat="29.25613" lon="-13.51541">
        <ele>53.8</ele>
        <time>2021-07-02 19:10:20</time>
      </trkpt>
      <trkpt lat="29.2561" lon="-13.51539">
        <ele>53.8</ele>
        <time>2021-07-02 19:10:21</time>
      </trkpt>
      <trkpt lat="29.25606" lon="-13.51537">
        <ele>54.2</ele>
        <time>2021-07-02 19:10:22</time>
      </trkpt>
      <trkpt lat="29.25603" lon="-13.51535">
        <ele>54.2</ele>
        <time>2021-07-02 19:10:23</time>
      </trkpt>
      <trkpt lat="29.256" lon="-13.51533">
        <ele>54.4</ele>
        <time>2021-07-02 19:10:24</time>
      </trkpt>
      <trkpt lat="29.25598" lon="-13.51531">
        <ele>54.6</ele>
        <time>2021-07-02 19:10:25</time>
      </trkpt>
      <trkpt lat="29.25596" lon="-13.51529">
        <ele>54.6</ele>
        <time>2021-07-02 19:10:26</time>
      </trkpt>
      <trkpt lat="29.25593" lon="-13.51527">
        <ele>55</ele>
        <time>2021-07-02 19:10:27</time>
      </trkpt>
      <trkpt lat="29.2559" lon="-13.51526">
        <ele>55</ele>
        <time>2021-07-02 19:10:28</time>
      </trkpt>
      <trkpt lat="29.25588" lon="-13.51524">
        <ele>55.4</ele>
        <time>2021-07-02 19:10:29</time>
      </trkpt>
      <trkpt lat="29.25586" lon="-13.51523">
        <ele>55.6</ele>
        <time>2021-07-02 19:10:30</time>
      </trkpt>
      <trkpt lat="29.25584" lon="-13.51522">
        <ele>55.8</ele>
        <time>2021-07-02 19:10:31</time>
      </trkpt>
      <trkpt lat="29.25582" lon="-13.5152">
        <ele>56.2</ele>
        <time>2021-07-02 19:10:32</time>
      </trkpt>
      <trkpt lat="29.2558" lon="-13.51518">
        <ele>56.4</ele>
        <time>2021-07-02 19:10:33</time>
      </trkpt>
      <trkpt lat="29.25578" lon="-13.51516">
        <ele>56.6</ele>
        <time>2021-07-02 19:10:34</time>
      </trkpt>
      <trkpt lat="29.25576" lon="-13.51514">
        <ele>56.8</ele>
        <time>2021-07-02 19:10:35</time>
      </trkpt>
      <trkpt lat="29.25573" lon="-13.51512">
        <ele>57.2</ele>
        <time>2021-07-02 19:10:36</time>
      </trkpt>
      <trkpt lat="29.25571" lon="-13.5151">
        <ele>57.2</ele>
        <time>2021-07-02 19:10:37</time>
      </trkpt>
      <trkpt lat="29.25568" lon="-13.51508">
        <ele>57.4</ele>
        <time>2021-07-02 19:10:38</time>
      </trkpt>
      <trkpt lat="29.25566" lon="-13.51505">
        <ele>57.8</ele>
        <time>2021-07-02 19:10:39</time>
      </trkpt>
      <trkpt lat="29.25564" lon="-13.51503">
        <ele>57.8</ele>
        <time>2021-07-02 19:10:40</time>
      </trkpt>
      <trkpt lat="29.25563" lon="-13.51501">
        <ele>58</ele>
        <time>2021-07-02 19:10:41</time>
      </trkpt>
      <trkpt lat="29.25561" lon="-13.515">
        <ele>58</ele>
        <time>2021-07-02 19:10:42</time>
      </trkpt>
      <trkpt lat="29.25561" lon="-13.51499">
        <ele>58.4</ele>
        <time>2021-07-02 19:10:43</time>
      </trkpt>
      <trkpt lat="29.25561" lon="-13.51499">
        <ele>58.4</ele>
        <time>2021-07-02 19:10:44</time>
      </trkpt>
      <trkpt lat="29.25561" lon="-13.51499">
        <ele>58.6</ele>
        <time>2021-07-02 19:10:45</time>
      </trkpt>
      <trkpt lat="29.25561" lon="-13.51499">
        <ele>58.6</ele>
        <time>2021-07-02 19:10:46</time>
      </trkpt>
      <trkpt lat="29.25561" lon="-13.51499">
        <ele>59</ele>
        <time>2021-07-02 19:10:47</time>
      </trkpt>
      <trkpt lat="29.25561" lon="-13.51499">
        <ele>59</ele>
        <time>2021-07-02 19:10:48</time>
      </trkpt>
      <trkpt lat="29.25559" lon="-13.51497">
        <ele>59</ele>
        <time>2021-07-02 19:10:49</time>
      </trkpt>
      <trkpt lat="29.25558" lon="-13.51495">
        <ele>59</ele>
        <time>2021-07-02 19:10:50</time>
      </trkpt>
      <trkpt lat="29.25557" lon="-13.51493">
        <ele>59</ele>
        <time>2021-07-02 19:11:02</time>
      </trkpt>
      <trkpt lat="29.25555" lon="-13.51491">
        <ele>59</ele>
        <time>2021-07-02 19:11:03</time>
      </trkpt>
      <trkpt lat="29.25554" lon="-13.51489">
        <ele>59</ele>
        <time>2021-07-02 19:11:04</time>
      </trkpt>
      <trkpt lat="29.25552" lon="-13.51486">
        <ele>59</ele>
        <time>2021-07-02 19:11:05</time>
      </trkpt>
      <trkpt lat="29.2555" lon="-13.51484">
        <ele>59</ele>
        <time>2021-07-02 19:11:06</time>
      </trkpt>
      <trkpt lat="29.25548" lon="-13.51482">
        <ele>59</ele>
        <time>2021-07-02 19:11:07</time>
      </trkpt>
      <trkpt lat="29.25546" lon="-13.51479">
        <ele>59</ele>
        <time>2021-07-02 19:11:08</time>
      </trkpt>
      <trkpt lat="29.25544" lon="-13.51477">
        <ele>59</ele>
        <time>2021-07-02 19:11:09</time>
      </trkpt>
      <trkpt lat="29.25542" lon="-13.51474">
        <ele>59</ele>
        <time>2021-07-02 19:11:10</time>
      </trkpt>
      <trkpt lat="29.2554" lon="-13.51472">
        <ele>59</ele>
        <time>2021-07-02 19:11:11</time>
      </trkpt>
      <trkpt lat="29.25538" lon="-13.51469">
        <ele>59</ele>
        <time>2021-07-02 19:11:12</time>
      </trkpt>
      <trkpt lat="29.25536" lon="-13.51467">
        <ele>59</ele>
        <time>2021-07-02 19:11:13</time>
      </trkpt>
      <trkpt lat="29.25534" lon="-13.51464">
        <ele>59</ele>
        <time>2021-07-02 19:11:14</time>
      </trkpt>
      <trkpt lat="29.25532" lon="-13.51462">
        <ele>59.2</ele>
        <time>2021-07-02 19:11:15</time>
      </trkpt>
      <trkpt lat="29.2553" lon="-13.51459">
        <ele>59.2</ele>
        <time>2021-07-02 19:11:16</time>
      </trkpt>
      <trkpt lat="29.25528" lon="-13.51457">
        <ele>59.2</ele>
        <time>2021-07-02 19:11:17</time>
      </trkpt>
      <trkpt lat="29.25526" lon="-13.51454">
        <ele>59.2</ele>
        <time>2021-07-02 19:11:18</time>
      </trkpt>
      <trkpt lat="29.25525" lon="-13.51452">
        <ele>59.4</ele>
        <time>2021-07-02 19:11:19</time>
      </trkpt>
      <trkpt lat="29.25524" lon="-13.5145">
        <ele>59.4</ele>
        <time>2021-07-02 19:11:20</time>
      </trkpt>
      <trkpt lat="29.25523" lon="-13.51449">
        <ele>59.4</ele>
        <time>2021-07-02 19:11:21</time>
      </trkpt>
      <trkpt lat="29.25522" lon="-13.51446">
        <ele>59.4</ele>
        <time>2021-07-02 19:11:22</time>
      </trkpt>
      <trkpt lat="29.2552" lon="-13.51443">
        <ele>59.8</ele>
        <time>2021-07-02 19:11:23</time>
      </trkpt>
      <trkpt lat="29.25519" lon="-13.5144">
        <ele>59.8</ele>
        <time>2021-07-02 19:11:24</time>
      </trkpt>
      <trkpt lat="29.25517" lon="-13.51438">
        <ele>59.8</ele>
        <time>2021-07-02 19:11:25</time>
      </trkpt>
      <trkpt lat="29.25515" lon="-13.51437">
        <ele>59.8</ele>
        <time>2021-07-02 19:11:26</time>
      </trkpt>
      <trkpt lat="29.25513" lon="-13.51435">
        <ele>59.8</ele>
        <time>2021-07-02 19:11:27</time>
      </trkpt>
      <trkpt lat="29.25512" lon="-13.51433">
        <ele>59.8</ele>
        <time>2021-07-02 19:11:28</time>
      </trkpt>
      <trkpt lat="29.2551" lon="-13.51432">
        <ele>59.8</ele>
        <time>2021-07-02 19:11:29</time>
      </trkpt>
      <trkpt lat="29.25508" lon="-13.5143">
        <ele>59.8</ele>
        <time>2021-07-02 19:11:30</time>
      </trkpt>
      <trkpt lat="29.25506" lon="-13.51428">
        <ele>59.8</ele>
        <time>2021-07-02 19:11:31</time>
      </trkpt>
      <trkpt lat="29.25504" lon="-13.51426">
        <ele>59.8</ele>
        <time>2021-07-02 19:11:32</time>
      </trkpt>
      <trkpt lat="29.25503" lon="-13.51424">
        <ele>59.8</ele>
        <time>2021-07-02 19:11:33</time>
      </trkpt>
      <trkpt lat="29.25502" lon="-13.51422">
        <ele>59.8</ele>
        <time>2021-07-02 19:11:34</time>
      </trkpt>
      <trkpt lat="29.255" lon="-13.5142">
        <ele>59.8</ele>
        <time>2021-07-02 19:11:35</time>
      </trkpt>
      <trkpt lat="29.25498" lon="-13.51417">
        <ele>59.8</ele>
        <time>2021-07-02 19:11:36</time>
      </trkpt>
      <trkpt lat="29.25495" lon="-13.51414">
        <ele>60</ele>
        <time>2021-07-02 19:11:37</time>
      </trkpt>
      <trkpt lat="29.25493" lon="-13.51412">
        <ele>60</ele>
        <time>2021-07-02 19:11:38</time>
      </trkpt>
      <trkpt lat="29.25491" lon="-13.5141">
        <ele>60</ele>
        <time>2021-07-02 19:11:39</time>
      </trkpt>
      <trkpt lat="29.25489" lon="-13.51408">
        <ele>60</ele>
        <time>2021-07-02 19:11:40</time>
      </trkpt>
      <trkpt lat="29.25487" lon="-13.51407">
        <ele>60</ele>
        <time>2021-07-02 19:11:41</time>
      </trkpt>
      <trkpt lat="29.25486" lon="-13.51406">
        <ele>60</ele>
        <time>2021-07-02 19:11:42</time>
      </trkpt>
      <trkpt lat="29.25484" lon="-13.51405">
        <ele>60</ele>
        <time>2021-07-02 19:11:43</time>
      </trkpt>
      <trkpt lat="29.25483" lon="-13.51405">
        <ele>60</ele>
        <time>2021-07-02 19:11:44</time>
      </trkpt>
      <trkpt lat="29.25482" lon="-13.51405">
        <ele>60</ele>
        <time>2021-07-02 19:11:45</time>
      </trkpt>
      <trkpt lat="29.25481" lon="-13.51405">
        <ele>60</ele>
        <time>2021-07-02 19:11:46</time>
      </trkpt>
      <trkpt lat="29.25481" lon="-13.51405">
        <ele>60</ele>
        <time>2021-07-02 19:11:47</time>
      </trkpt>
      <trkpt lat="29.25482" lon="-13.51405">
        <ele>59.8</ele>
        <time>2021-07-02 19:11:48</time>
      </trkpt>
      <trkpt lat="29.25482" lon="-13.51405">
        <ele>59.8</ele>
        <time>2021-07-02 19:11:49</time>
      </trkpt>
      <trkpt lat="29.25481" lon="-13.51402">
        <ele>59.8</ele>
        <time>2021-07-02 19:11:50</time>
      </trkpt>
      <trkpt lat="29.25481" lon="-13.51401">
        <ele>59.4</ele>
        <time>2021-07-02 19:11:51</time>
      </trkpt>
      <trkpt lat="29.25481" lon="-13.51401">
        <ele>59.4</ele>
        <time>2021-07-02 19:12:02</time>
      </trkpt>
      <trkpt lat="29.25481" lon="-13.51401">
        <ele>59.4</ele>
        <time>2021-07-02 19:12:03</time>
      </trkpt>
      <trkpt lat="29.25481" lon="-13.51401">
        <ele>59.4</ele>
        <time>2021-07-02 19:12:04</time>
      </trkpt>
      <trkpt lat="29.25478" lon="-13.51399">
        <ele>60</ele>
        <time>2021-07-02 19:12:05</time>
      </trkpt>
      <trkpt lat="29.25476" lon="-13.51398">
        <ele>59.6</ele>
        <time>2021-07-02 19:12:06</time>
      </trkpt>
      <trkpt lat="29.25473" lon="-13.51396">
        <ele>59.6</ele>
        <time>2021-07-02 19:12:56</time>
      </trkpt>
      <trkpt lat="29.25471" lon="-13.51394">
        <ele>59.6</ele>
        <time>2021-07-02 19:12:57</time>
      </trkpt>
      <trkpt lat="29.25468" lon="-13.51391">
        <ele>59.4</ele>
        <time>2021-07-02 19:12:58</time>
      </trkpt>
      <trkpt lat="29.25465" lon="-13.51389">
        <ele>59.4</ele>
        <time>2021-07-02 19:12:59</time>
      </trkpt>
      <trkpt lat="29.25462" lon="-13.51387">
        <ele>59.4</ele>
        <time>2021-07-02 19:13:00</time>
      </trkpt>
      <trkpt lat="29.25459" lon="-13.51385">
        <ele>59.2</ele>
        <time>2021-07-02 19:13:01</time>
      </trkpt>
      <trkpt lat="29.25456" lon="-13.51383">
        <ele>59.2</ele>
        <time>2021-07-02 19:13:02</time>
      </trkpt>
      <trkpt lat="29.25454" lon="-13.51382">
        <ele>59.2</ele>
        <time>2021-07-02 19:13:03</time>
      </trkpt>
      <trkpt lat="29.25451" lon="-13.51379">
        <ele>59.2</ele>
        <time>2021-07-02 19:13:04</time>
      </trkpt>
      <trkpt lat="29.25448" lon="-13.51377">
        <ele>59</ele>
        <time>2021-07-02 19:13:05</time>
      </trkpt>
      <trkpt lat="29.25445" lon="-13.51375">
        <ele>59</ele>
        <time>2021-07-02 19:13:06</time>
      </trkpt>
      <trkpt lat="29.25442" lon="-13.51372">
        <ele>59</ele>
        <time>2021-07-02 19:13:07</time>
      </trkpt>
      <trkpt lat="29.25439" lon="-13.5137">
        <ele>58.6</ele>
        <time>2021-07-02 19:13:08</time>
      </trkpt>
      <trkpt lat="29.25436" lon="-13.51368">
        <ele>58.6</ele>
        <time>2021-07-02 19:13:09</time>
      </trkpt>
      <trkpt lat="29.25433" lon="-13.51366">
        <ele>58.6</ele>
        <time>2021-07-02 19:13:10</time>
      </trkpt>
      <trkpt lat="29.25429" lon="-13.51364">
        <ele>58.4</ele>
        <time>2021-07-02 19:13:11</time>
      </trkpt>
      <trkpt lat="29.25425" lon="-13.51363">
        <ele>58.4</ele>
        <time>2021-07-02 19:13:12</time>
      </trkpt>
      <trkpt lat="29.25421" lon="-13.51361">
        <ele>58.4</ele>
        <time>2021-07-02 19:13:13</time>
      </trkpt>
      <trkpt lat="29.25417" lon="-13.51359">
        <ele>58.2</ele>
        <time>2021-07-02 19:13:14</time>
      </trkpt>
      <trkpt lat="29.25413" lon="-13.51358">
        <ele>58.2</ele>
        <time>2021-07-02 19:13:15</time>
      </trkpt>
      <trkpt lat="29.25409" lon="-13.51356">
        <ele>57.8</ele>
        <time>2021-07-02 19:13:16</time>
      </trkpt>
      <trkpt lat="29.25405" lon="-13.51355">
        <ele>57.8</ele>
        <time>2021-07-02 19:13:17</time>
      </trkpt>
      <trkpt lat="29.254" lon="-13.51355">
        <ele>57.6</ele>
        <time>2021-07-02 19:13:18</time>
      </trkpt>
      <trkpt lat="29.25395" lon="-13.51355">
        <ele>57.6</ele>
        <time>2021-07-02 19:13:19</time>
      </trkpt>
      <trkpt lat="29.2539" lon="-13.51356">
        <ele>57.2</ele>
        <time>2021-07-02 19:13:20</time>
      </trkpt>
      <trkpt lat="29.25385" lon="-13.51354">
        <ele>57</ele>
        <time>2021-07-02 19:13:21</time>
      </trkpt>
      <trkpt lat="29.2538" lon="-13.51354">
        <ele>57</ele>
        <time>2021-07-02 19:13:22</time>
      </trkpt>
      <trkpt lat="29.25375" lon="-13.51352">
        <ele>56.6</ele>
        <time>2021-07-02 19:13:23</time>
      </trkpt>
      <trkpt lat="29.2537" lon="-13.5135">
        <ele>56.4</ele>
        <time>2021-07-02 19:13:24</time>
      </trkpt>
      <trkpt lat="29.25364" lon="-13.51349">
        <ele>56.2</ele>
        <time>2021-07-02 19:13:25</time>
      </trkpt>
      <trkpt lat="29.25359" lon="-13.51346">
        <ele>56</ele>
        <time>2021-07-02 19:13:26</time>
      </trkpt>
      <trkpt lat="29.25353" lon="-13.51345">
        <ele>55.6</ele>
        <time>2021-07-02 19:13:27</time>
      </trkpt>
      <trkpt lat="29.25347" lon="-13.51343">
        <ele>55.4</ele>
        <time>2021-07-02 19:13:28</time>
      </trkpt>
      <trkpt lat="29.25341" lon="-13.5134">
        <ele>55.2</ele>
        <time>2021-07-02 19:13:29</time>
      </trkpt>
      <trkpt lat="29.25334" lon="-13.51338">
        <ele>55</ele>
        <time>2021-07-02 19:13:30</time>
      </trkpt>
      <trkpt lat="29.25328" lon="-13.51335">
        <ele>54.6</ele>
        <time>2021-07-02 19:13:31</time>
      </trkpt>
      <trkpt lat="29.25321" lon="-13.51333">
        <ele>54.2</ele>
        <time>2021-07-02 19:13:32</time>
      </trkpt>
      <trkpt lat="29.25315" lon="-13.51331">
        <ele>54</ele>
        <time>2021-07-02 19:13:33</time>
      </trkpt>
      <trkpt lat="29.25308" lon="-13.51329">
        <ele>53.6</ele>
        <time>2021-07-02 19:13:34</time>
      </trkpt>
      <trkpt lat="29.25301" lon="-13.51328">
        <ele>53.2</ele>
        <time>2021-07-02 19:13:35</time>
      </trkpt>
      <trkpt lat="29.25294" lon="-13.51327">
        <ele>53.2</ele>
        <time>2021-07-02 19:13:36</time>
      </trkpt>
      <trkpt lat="29.25288" lon="-13.51326">
        <ele>53</ele>
        <time>2021-07-02 19:13:37</time>
      </trkpt>
      <trkpt lat="29.25281" lon="-13.51325">
        <ele>53</ele>
        <time>2021-07-02 19:13:38</time>
      </trkpt>
      <trkpt lat="29.25274" lon="-13.51324">
        <ele>52.6</ele>
        <time>2021-07-02 19:13:39</time>
      </trkpt>
      <trkpt lat="29.25266" lon="-13.51324">
        <ele>52.4</ele>
        <time>2021-07-02 19:13:40</time>
      </trkpt>
      <trkpt lat="29.25259" lon="-13.51323">
        <ele>52.4</ele>
        <time>2021-07-02 19:13:41</time>
      </trkpt>
      <trkpt lat="29.25252" lon="-13.51323">
        <ele>52</ele>
        <time>2021-07-02 19:13:42</time>
      </trkpt>
      <trkpt lat="29.25245" lon="-13.51323">
        <ele>51.6</ele>
        <time>2021-07-02 19:13:43</time>
      </trkpt>
      <trkpt lat="29.25238" lon="-13.51323">
        <ele>51.4</ele>
        <time>2021-07-02 19:13:44</time>
      </trkpt>
      <trkpt lat="29.2523" lon="-13.51323">
        <ele>51.2</ele>
        <time>2021-07-02 19:13:45</time>
      </trkpt>
      <trkpt lat="29.25223" lon="-13.51323">
        <ele>50.8</ele>
        <time>2021-07-02 19:13:46</time>
      </trkpt>
      <trkpt lat="29.25216" lon="-13.51323">
        <ele>50.8</ele>
        <time>2021-07-02 19:13:47</time>
      </trkpt>
      <trkpt lat="29.25209" lon="-13.51323">
        <ele>50.6</ele>
        <time>2021-07-02 19:13:48</time>
      </trkpt>
      <trkpt lat="29.25202" lon="-13.51322">
        <ele>50.4</ele>
        <time>2021-07-02 19:13:49</time>
      </trkpt>
      <trkpt lat="29.25194" lon="-13.51322">
        <ele>50.4</ele>
        <time>2021-07-02 19:13:50</time>
      </trkpt>
      <trkpt lat="29.25187" lon="-13.51322">
        <ele>50</ele>
        <time>2021-07-02 19:13:51</time>
      </trkpt>
      <trkpt lat="29.2518" lon="-13.51321">
        <ele>49.8</ele>
        <time>2021-07-02 19:13:52</time>
      </trkpt>
      <trkpt lat="29.25174" lon="-13.51321">
        <ele>49.8</ele>
        <time>2021-07-02 19:13:53</time>
      </trkpt>
      <trkpt lat="29.25167" lon="-13.5132">
        <ele>49.6</ele>
        <time>2021-07-02 19:13:54</time>
      </trkpt>
      <trkpt lat="29.25161" lon="-13.5132">
        <ele>49.2</ele>
        <time>2021-07-02 19:13:55</time>
      </trkpt>
      <trkpt lat="29.25156" lon="-13.5132">
        <ele>49</ele>
        <time>2021-07-02 19:13:56</time>
      </trkpt>
      <trkpt lat="29.25151" lon="-13.51321">
        <ele>48.6</ele>
        <time>2021-07-02 19:13:57</time>
      </trkpt>
      <trkpt lat="29.25146" lon="-13.51321">
        <ele>48.2</ele>
        <time>2021-07-02 19:13:58</time>
      </trkpt>
      <trkpt lat="29.25141" lon="-13.51321">
        <ele>48.2</ele>
        <time>2021-07-02 19:13:59</time>
      </trkpt>
      <trkpt lat="29.25137" lon="-13.5132">
        <ele>48</ele>
        <time>2021-07-02 19:14:00</time>
      </trkpt>
      <trkpt lat="29.25132" lon="-13.51317">
        <ele>48</ele>
        <time>2021-07-02 19:14:01</time>
      </trkpt>
      <trkpt lat="29.25128" lon="-13.51315">
        <ele>47.6</ele>
        <time>2021-07-02 19:14:02</time>
      </trkpt>
      <trkpt lat="29.25123" lon="-13.51314">
        <ele>47.4</ele>
        <time>2021-07-02 19:14:03</time>
      </trkpt>
      <trkpt lat="29.25119" lon="-13.51313">
        <ele>47</ele>
        <time>2021-07-02 19:14:04</time>
      </trkpt>
      <trkpt lat="29.25114" lon="-13.51312">
        <ele>47</ele>
        <time>2021-07-02 19:14:05</time>
      </trkpt>
      <trkpt lat="29.2511" lon="-13.51311">
        <ele>46.6</ele>
        <time>2021-07-02 19:14:06</time>
      </trkpt>
      <trkpt lat="29.25105" lon="-13.51311">
        <ele>46.6</ele>
        <time>2021-07-02 19:14:07</time>
      </trkpt>
      <trkpt lat="29.251" lon="-13.5131">
        <ele>46.6</ele>
        <time>2021-07-02 19:14:08</time>
      </trkpt>
      <trkpt lat="29.25096" lon="-13.5131">
        <ele>46.2</ele>
        <time>2021-07-02 19:14:09</time>
      </trkpt>
      <trkpt lat="29.25091" lon="-13.5131">
        <ele>46.2</ele>
        <time>2021-07-02 19:14:10</time>
      </trkpt>
      <trkpt lat="29.25087" lon="-13.5131">
        <ele>46.2</ele>
        <time>2021-07-02 19:14:11</time>
      </trkpt>
      <trkpt lat="29.25082" lon="-13.5131">
        <ele>45.8</ele>
        <time>2021-07-02 19:14:12</time>
      </trkpt>
      <trkpt lat="29.25077" lon="-13.51309">
        <ele>45.8</ele>
        <time>2021-07-02 19:14:13</time>
      </trkpt>
      <trkpt lat="29.25072" lon="-13.51309">
        <ele>45.4</ele>
        <time>2021-07-02 19:14:14</time>
      </trkpt>
      <trkpt lat="29.25068" lon="-13.51308">
        <ele>45.4</ele>
        <time>2021-07-02 19:14:15</time>
      </trkpt>
      <trkpt lat="29.25063" lon="-13.51308">
        <ele>45.4</ele>
        <time>2021-07-02 19:14:16</time>
      </trkpt>
      <trkpt lat="29.25059" lon="-13.51308">
        <ele>45.2</ele>
        <time>2021-07-02 19:14:17</time>
      </trkpt>
      <trkpt lat="29.25055" lon="-13.51308">
        <ele>45.2</ele>
        <time>2021-07-02 19:14:18</time>
      </trkpt>
      <trkpt lat="29.2505" lon="-13.51306">
        <ele>45.2</ele>
        <time>2021-07-02 19:14:19</time>
      </trkpt>
      <trkpt lat="29.25046" lon="-13.51305">
        <ele>44.8</ele>
        <time>2021-07-02 19:14:20</time>
      </trkpt>
      <trkpt lat="29.25042" lon="-13.51303">
        <ele>44.8</ele>
        <time>2021-07-02 19:14:21</time>
      </trkpt>
      <trkpt lat="29.25038" lon="-13.51302">
        <ele>44.8</ele>
        <time>2021-07-02 19:14:22</time>
      </trkpt>
      <trkpt lat="29.25035" lon="-13.51301">
        <ele>44.6</ele>
        <time>2021-07-02 19:14:23</time>
      </trkpt>
      <trkpt lat="29.25031" lon="-13.51299">
        <ele>44.6</ele>
        <time>2021-07-02 19:14:24</time>
      </trkpt>
      <trkpt lat="29.25027" lon="-13.51298">
        <ele>44.6</ele>
        <time>2021-07-02 19:14:25</time>
      </trkpt>
      <trkpt lat="29.25023" lon="-13.51296">
        <ele>44.2</ele>
        <time>2021-07-02 19:14:26</time>
      </trkpt>
      <trkpt lat="29.25019" lon="-13.51296">
        <ele>44.2</ele>
        <time>2021-07-02 19:14:27</time>
      </trkpt>
      <trkpt lat="29.25016" lon="-13.51295">
        <ele>44.2</ele>
        <time>2021-07-02 19:14:28</time>
      </trkpt>
      <trkpt lat="29.25012" lon="-13.51293">
        <ele>44.2</ele>
        <time>2021-07-02 19:14:29</time>
      </trkpt>
      <trkpt lat="29.25008" lon="-13.51292">
        <ele>44</ele>
        <time>2021-07-02 19:14:30</time>
      </trkpt>
      <trkpt lat="29.25004" lon="-13.5129">
        <ele>43.8</ele>
        <time>2021-07-02 19:14:31</time>
      </trkpt>
      <trkpt lat="29.25001" lon="-13.51289">
        <ele>43.8</ele>
        <time>2021-07-02 19:14:32</time>
      </trkpt>
      <trkpt lat="29.24997" lon="-13.51287">
        <ele>43.6</ele>
        <time>2021-07-02 19:14:33</time>
      </trkpt>
      <trkpt lat="29.24994" lon="-13.51285">
        <ele>43.6</ele>
        <time>2021-07-02 19:14:34</time>
      </trkpt>
      <trkpt lat="29.2499" lon="-13.51284">
        <ele>43.6</ele>
        <time>2021-07-02 19:14:35</time>
      </trkpt>
      <trkpt lat="29.24986" lon="-13.51282">
        <ele>43.4</ele>
        <time>2021-07-02 19:14:36</time>
      </trkpt>
      <trkpt lat="29.24982" lon="-13.5128">
        <ele>43.4</ele>
        <time>2021-07-02 19:14:37</time>
      </trkpt>
      <trkpt lat="29.24979" lon="-13.51279">
        <ele>43.4</ele>
        <time>2021-07-02 19:14:38</time>
      </trkpt>
      <trkpt lat="29.24975" lon="-13.51276">
        <ele>43.2</ele>
        <time>2021-07-02 19:14:39</time>
      </trkpt>
      <trkpt lat="29.24972" lon="-13.51274">
        <ele>43.2</ele>
        <time>2021-07-02 19:14:40</time>
      </trkpt>
      <trkpt lat="29.24969" lon="-13.51272">
        <ele>43.2</ele>
        <time>2021-07-02 19:14:41</time>
      </trkpt>
      <trkpt lat="29.24965" lon="-13.5127">
        <ele>43.2</ele>
        <time>2021-07-02 19:14:42</time>
      </trkpt>
      <trkpt lat="29.24962" lon="-13.51267">
        <ele>43</ele>
        <time>2021-07-02 19:14:43</time>
      </trkpt>
      <trkpt lat="29.24959" lon="-13.51265">
        <ele>43</ele>
        <time>2021-07-02 19:14:44</time>
      </trkpt>
      <trkpt lat="29.24956" lon="-13.51262">
        <ele>42.6</ele>
        <time>2021-07-02 19:14:45</time>
      </trkpt>
      <trkpt lat="29.24953" lon="-13.51259">
        <ele>42.6</ele>
        <time>2021-07-02 19:14:46</time>
      </trkpt>
      <trkpt lat="29.2495" lon="-13.51257">
        <ele>42.6</ele>
        <time>2021-07-02 19:14:47</time>
      </trkpt>
      <trkpt lat="29.24946" lon="-13.51254">
        <ele>42.6</ele>
        <time>2021-07-02 19:14:48</time>
      </trkpt>
      <trkpt lat="29.24943" lon="-13.51252">
        <ele>42.6</ele>
        <time>2021-07-02 19:14:49</time>
      </trkpt>
      <trkpt lat="29.24939" lon="-13.51249">
        <ele>42.6</ele>
        <time>2021-07-02 19:14:50</time>
      </trkpt>
      <trkpt lat="29.24936" lon="-13.51246">
        <ele>42.2</ele>
        <time>2021-07-02 19:14:51</time>
      </trkpt>
      <trkpt lat="29.24933" lon="-13.51243">
        <ele>42.2</ele>
        <time>2021-07-02 19:14:52</time>
      </trkpt>
      <trkpt lat="29.2493" lon="-13.51242">
        <ele>42.2</ele>
        <time>2021-07-02 19:14:53</time>
      </trkpt>
      <trkpt lat="29.24927" lon="-13.51239">
        <ele>42.2</ele>
        <time>2021-07-02 19:14:54</time>
      </trkpt>
      <trkpt lat="29.24924" lon="-13.51237">
        <ele>42.2</ele>
        <time>2021-07-02 19:14:55</time>
      </trkpt>
      <trkpt lat="29.2492" lon="-13.51235">
        <ele>42.2</ele>
        <time>2021-07-02 19:14:56</time>
      </trkpt>
      <trkpt lat="29.24916" lon="-13.51232">
        <ele>42.2</ele>
        <time>2021-07-02 19:14:57</time>
      </trkpt>
      <trkpt lat="29.24913" lon="-13.5123">
        <ele>42.2</ele>
        <time>2021-07-02 19:14:58</time>
      </trkpt>
      <trkpt lat="29.2491" lon="-13.51229">
        <ele>42.2</ele>
        <time>2021-07-02 19:14:59</time>
      </trkpt>
      <trkpt lat="29.24906" lon="-13.51226">
        <ele>42.2</ele>
        <time>2021-07-02 19:15:00</time>
      </trkpt>
      <trkpt lat="29.24904" lon="-13.51223">
        <ele>42.2</ele>
        <time>2021-07-02 19:15:01</time>
      </trkpt>
      <trkpt lat="29.24901" lon="-13.51221">
        <ele>42</ele>
        <time>2021-07-02 19:15:02</time>
      </trkpt>
      <trkpt lat="29.24898" lon="-13.51219">
        <ele>42</ele>
        <time>2021-07-02 19:15:03</time>
      </trkpt>
      <trkpt lat="29.24895" lon="-13.51216">
        <ele>42</ele>
        <time>2021-07-02 19:15:04</time>
      </trkpt>
      <trkpt lat="29.24892" lon="-13.51213">
        <ele>42</ele>
        <time>2021-07-02 19:15:05</time>
      </trkpt>
      <trkpt lat="29.24889" lon="-13.5121">
        <ele>42</ele>
        <time>2021-07-02 19:15:06</time>
      </trkpt>
      <trkpt lat="29.24887" lon="-13.51208">
        <ele>42</ele>
        <time>2021-07-02 19:15:07</time>
      </trkpt>
      <trkpt lat="29.24886" lon="-13.51208">
        <ele>42</ele>
        <time>2021-07-02 19:15:08</time>
      </trkpt>
      <trkpt lat="29.24885" lon="-13.51208">
        <ele>42</ele>
        <time>2021-07-02 19:15:09</time>
      </trkpt>
      <trkpt lat="29.24885" lon="-13.51208">
        <ele>42</ele>
        <time>2021-07-02 19:15:10</time>
      </trkpt>
      <trkpt lat="29.24886" lon="-13.51208">
        <ele>42</ele>
        <time>2021-07-02 19:15:11</time>
      </trkpt>
      <trkpt lat="29.24886" lon="-13.51207">
        <ele>42</ele>
        <time>2021-07-02 19:15:12</time>
      </trkpt>
      <trkpt lat="29.24884" lon="-13.51205">
        <ele>41.8</ele>
        <time>2021-07-02 19:15:13</time>
      </trkpt>
      <trkpt lat="29.24882" lon="-13.51204">
        <ele>41.8</ele>
        <time>2021-07-02 19:15:14</time>
      </trkpt>
      <trkpt lat="29.2488" lon="-13.51202">
        <ele>41.8</ele>
        <time>2021-07-02 19:15:18</time>
      </trkpt>
      <trkpt lat="29.24878" lon="-13.512">
        <ele>41.8</ele>
        <time>2021-07-02 19:15:19</time>
      </trkpt>
      <trkpt lat="29.24876" lon="-13.51197">
        <ele>41.8</ele>
        <time>2021-07-02 19:15:20</time>
      </trkpt>
      <trkpt lat="29.24873" lon="-13.51195">
        <ele>41.8</ele>
        <time>2021-07-02 19:15:21</time>
      </trkpt>
      <trkpt lat="29.24871" lon="-13.51192">
        <ele>41.8</ele>
        <time>2021-07-02 19:15:22</time>
      </trkpt>
      <trkpt lat="29.24868" lon="-13.51189">
        <ele>41.8</ele>
        <time>2021-07-02 19:15:23</time>
      </trkpt>
      <trkpt lat="29.24866" lon="-13.51186">
        <ele>41.8</ele>
        <time>2021-07-02 19:15:24</time>
      </trkpt>
      <trkpt lat="29.24863" lon="-13.51183">
        <ele>41.8</ele>
        <time>2021-07-02 19:15:25</time>
      </trkpt>
      <trkpt lat="29.2486" lon="-13.51181">
        <ele>41.6</ele>
        <time>2021-07-02 19:15:26</time>
      </trkpt>
      <trkpt lat="29.24857" lon="-13.51178">
        <ele>41.6</ele>
        <time>2021-07-02 19:15:27</time>
      </trkpt>
      <trkpt lat="29.24855" lon="-13.51176">
        <ele>41.6</ele>
        <time>2021-07-02 19:15:28</time>
      </trkpt>
      <trkpt lat="29.24853" lon="-13.51174">
        <ele>41.6</ele>
        <time>2021-07-02 19:15:29</time>
      </trkpt>
      <trkpt lat="29.2485" lon="-13.51172">
        <ele>41.6</ele>
        <time>2021-07-02 19:15:30</time>
      </trkpt>
      <trkpt lat="29.24847" lon="-13.5117">
        <ele>41.6</ele>
        <time>2021-07-02 19:15:31</time>
      </trkpt>
      <trkpt lat="29.24844" lon="-13.51168">
        <ele>41.8</ele>
        <time>2021-07-02 19:15:32</time>
      </trkpt>
      <trkpt lat="29.24841" lon="-13.51166">
        <ele>41.8</ele>
        <time>2021-07-02 19:15:33</time>
      </trkpt>
      <trkpt lat="29.24839" lon="-13.51164">
        <ele>41.8</ele>
        <time>2021-07-02 19:15:34</time>
      </trkpt>
      <trkpt lat="29.24836" lon="-13.51161">
        <ele>41.8</ele>
        <time>2021-07-02 19:15:35</time>
      </trkpt>
      <trkpt lat="29.24833" lon="-13.51158">
        <ele>41.8</ele>
        <time>2021-07-02 19:15:36</time>
      </trkpt>
      <trkpt lat="29.2483" lon="-13.51156">
        <ele>41.8</ele>
        <time>2021-07-02 19:15:37</time>
      </trkpt>
      <trkpt lat="29.24826" lon="-13.51153">
        <ele>41.8</ele>
        <time>2021-07-02 19:15:38</time>
      </trkpt>
      <trkpt lat="29.24823" lon="-13.5115">
        <ele>41.8</ele>
        <time>2021-07-02 19:15:39</time>
      </trkpt>
      <trkpt lat="29.2482" lon="-13.51147">
        <ele>41.8</ele>
        <time>2021-07-02 19:15:40</time>
      </trkpt>
      <trkpt lat="29.24817" lon="-13.51145">
        <ele>41.8</ele>
        <time>2021-07-02 19:15:41</time>
      </trkpt>
      <trkpt lat="29.24814" lon="-13.51142">
        <ele>41.8</ele>
        <time>2021-07-02 19:15:42</time>
      </trkpt>
      <trkpt lat="29.24811" lon="-13.5114">
        <ele>41.8</ele>
        <time>2021-07-02 19:15:43</time>
      </trkpt>
      <trkpt lat="29.24809" lon="-13.51138">
        <ele>41.8</ele>
        <time>2021-07-02 19:15:44</time>
      </trkpt>
      <trkpt lat="29.24806" lon="-13.51136">
        <ele>41.8</ele>
        <time>2021-07-02 19:15:45</time>
      </trkpt>
      <trkpt lat="29.24803" lon="-13.51133">
        <ele>41.8</ele>
        <time>2021-07-02 19:15:46</time>
      </trkpt>
      <trkpt lat="29.24799" lon="-13.5113">
        <ele>41.8</ele>
        <time>2021-07-02 19:15:47</time>
      </trkpt>
      <trkpt lat="29.24797" lon="-13.51128">
        <ele>41.8</ele>
        <time>2021-07-02 19:15:48</time>
      </trkpt>
      <trkpt lat="29.24794" lon="-13.51125">
        <ele>41.8</ele>
        <time>2021-07-02 19:15:49</time>
      </trkpt>
      <trkpt lat="29.24791" lon="-13.51123">
        <ele>41.8</ele>
        <time>2021-07-02 19:15:50</time>
      </trkpt>
      <trkpt lat="29.24788" lon="-13.51121">
        <ele>41.8</ele>
        <time>2021-07-02 19:15:51</time>
      </trkpt>
      <trkpt lat="29.24785" lon="-13.5112">
        <ele>41.8</ele>
        <time>2021-07-02 19:15:52</time>
      </trkpt>
      <trkpt lat="29.24782" lon="-13.51118">
        <ele>41.8</ele>
        <time>2021-07-02 19:15:53</time>
      </trkpt>
      <trkpt lat="29.24779" lon="-13.51116">
        <ele>41.8</ele>
        <time>2021-07-02 19:15:54</time>
      </trkpt>
      <trkpt lat="29.24777" lon="-13.51114">
        <ele>41.8</ele>
        <time>2021-07-02 19:15:55</time>
      </trkpt>
      <trkpt lat="29.24774" lon="-13.51112">
        <ele>41.8</ele>
        <time>2021-07-02 19:15:56</time>
      </trkpt>
      <trkpt lat="29.24771" lon="-13.51109">
        <ele>41.8</ele>
        <time>2021-07-02 19:15:57</time>
      </trkpt>
      <trkpt lat="29.24769" lon="-13.51107">
        <ele>41.6</ele>
        <time>2021-07-02 19:15:58</time>
      </trkpt>
      <trkpt lat="29.24765" lon="-13.51104">
        <ele>41.6</ele>
        <time>2021-07-02 19:15:59</time>
      </trkpt>
      <trkpt lat="29.24762" lon="-13.51102">
        <ele>41.6</ele>
        <time>2021-07-02 19:16:00</time>
      </trkpt>
      <trkpt lat="29.24759" lon="-13.511">
        <ele>41.6</ele>
        <time>2021-07-02 19:16:01</time>
      </trkpt>
      <trkpt lat="29.24756" lon="-13.51098">
        <ele>41.6</ele>
        <time>2021-07-02 19:16:02</time>
      </trkpt>
      <trkpt lat="29.24754" lon="-13.51095">
        <ele>41.4</ele>
        <time>2021-07-02 19:16:03</time>
      </trkpt>
      <trkpt lat="29.24751" lon="-13.51093">
        <ele>41.4</ele>
        <time>2021-07-02 19:16:04</time>
      </trkpt>
      <trkpt lat="29.24749" lon="-13.51091">
        <ele>41.4</ele>
        <time>2021-07-02 19:16:05</time>
      </trkpt>
      <trkpt lat="29.24746" lon="-13.51089">
        <ele>41.4</ele>
        <time>2021-07-02 19:16:06</time>
      </trkpt>
      <trkpt lat="29.24744" lon="-13.51087">
        <ele>41.4</ele>
        <time>2021-07-02 19:16:07</time>
      </trkpt>
      <trkpt lat="29.24741" lon="-13.51085">
        <ele>41.4</ele>
        <time>2021-07-02 19:16:08</time>
      </trkpt>
      <trkpt lat="29.24737" lon="-13.51082">
        <ele>41.4</ele>
        <time>2021-07-02 19:16:09</time>
      </trkpt>
      <trkpt lat="29.24733" lon="-13.51079">
        <ele>41.4</ele>
        <time>2021-07-02 19:16:10</time>
      </trkpt>
      <trkpt lat="29.2473" lon="-13.51076">
        <ele>41.2</ele>
        <time>2021-07-02 19:16:11</time>
      </trkpt>
      <trkpt lat="29.24727" lon="-13.51072">
        <ele>41.2</ele>
        <time>2021-07-02 19:16:12</time>
      </trkpt>
      <trkpt lat="29.24724" lon="-13.5107">
        <ele>41.2</ele>
        <time>2021-07-02 19:16:13</time>
      </trkpt>
      <trkpt lat="29.24721" lon="-13.51066">
        <ele>41.2</ele>
        <time>2021-07-02 19:16:14</time>
      </trkpt>
      <trkpt lat="29.24718" lon="-13.51063">
        <ele>41.2</ele>
        <time>2021-07-02 19:16:15</time>
      </trkpt>
      <trkpt lat="29.24715" lon="-13.51059">
        <ele>41.2</ele>
        <time>2021-07-02 19:16:16</time>
      </trkpt>
      <trkpt lat="29.24712" lon="-13.51056">
        <ele>41.2</ele>
        <time>2021-07-02 19:16:17</time>
      </trkpt>
      <trkpt lat="29.2471" lon="-13.51053">
        <ele>41.2</ele>
        <time>2021-07-02 19:16:18</time>
      </trkpt>
      <trkpt lat="29.24706" lon="-13.51051">
        <ele>41.2</ele>
        <time>2021-07-02 19:16:19</time>
      </trkpt>
      <trkpt lat="29.24704" lon="-13.51048">
        <ele>41.2</ele>
        <time>2021-07-02 19:16:20</time>
      </trkpt>
      <trkpt lat="29.247" lon="-13.51045">
        <ele>41.2</ele>
        <time>2021-07-02 19:16:21</time>
      </trkpt>
      <trkpt lat="29.24697" lon="-13.51043">
        <ele>40.8</ele>
        <time>2021-07-02 19:16:22</time>
      </trkpt>
      <trkpt lat="29.24695" lon="-13.51041">
        <ele>40.8</ele>
        <time>2021-07-02 19:16:23</time>
      </trkpt>
      <trkpt lat="29.24693" lon="-13.51038">
        <ele>40.8</ele>
        <time>2021-07-02 19:16:24</time>
      </trkpt>
      <trkpt lat="29.24691" lon="-13.51034">
        <ele>40.8</ele>
        <time>2021-07-02 19:16:25</time>
      </trkpt>
      <trkpt lat="29.24689" lon="-13.51031">
        <ele>40.8</ele>
        <time>2021-07-02 19:16:26</time>
      </trkpt>
      <trkpt lat="29.24687" lon="-13.51028">
        <ele>40.8</ele>
        <time>2021-07-02 19:16:27</time>
      </trkpt>
      <trkpt lat="29.24684" lon="-13.51024">
        <ele>40.8</ele>
        <time>2021-07-02 19:16:28</time>
      </trkpt>
      <trkpt lat="29.24681" lon="-13.5102">
        <ele>40.8</ele>
        <time>2021-07-02 19:16:29</time>
      </trkpt>
      <trkpt lat="29.24678" lon="-13.51017">
        <ele>40.8</ele>
        <time>2021-07-02 19:16:30</time>
      </trkpt>
      <trkpt lat="29.24676" lon="-13.51013">
        <ele>40.8</ele>
        <time>2021-07-02 19:16:31</time>
      </trkpt>
      <trkpt lat="29.24673" lon="-13.51009">
        <ele>40.8</ele>
        <time>2021-07-02 19:16:32</time>
      </trkpt>
      <trkpt lat="29.2467" lon="-13.51005">
        <ele>40.8</ele>
        <time>2021-07-02 19:16:33</time>
      </trkpt>
      <trkpt lat="29.24668" lon="-13.51001">
        <ele>40.8</ele>
        <time>2021-07-02 19:16:34</time>
      </trkpt>
      <trkpt lat="29.24665" lon="-13.50997">
        <ele>40.8</ele>
        <time>2021-07-02 19:16:35</time>
      </trkpt>
      <trkpt lat="29.24663" lon="-13.50994">
        <ele>40.8</ele>
        <time>2021-07-02 19:16:36</time>
      </trkpt>
      <trkpt lat="29.24661" lon="-13.5099">
        <ele>40.6</ele>
        <time>2021-07-02 19:16:37</time>
      </trkpt>
      <trkpt lat="29.24658" lon="-13.50987">
        <ele>40.6</ele>
        <time>2021-07-02 19:16:38</time>
      </trkpt>
      <trkpt lat="29.24656" lon="-13.50983">
        <ele>40.4</ele>
        <time>2021-07-02 19:16:39</time>
      </trkpt>
      <trkpt lat="29.24654" lon="-13.5098">
        <ele>40.4</ele>
        <time>2021-07-02 19:16:40</time>
      </trkpt>
      <trkpt lat="29.24652" lon="-13.50977">
        <ele>40.4</ele>
        <time>2021-07-02 19:16:41</time>
      </trkpt>
      <trkpt lat="29.2465" lon="-13.50973">
        <ele>40.4</ele>
        <time>2021-07-02 19:16:42</time>
      </trkpt>
      <trkpt lat="29.24649" lon="-13.50971">
        <ele>40.4</ele>
        <time>2021-07-02 19:16:43</time>
      </trkpt>
      <trkpt lat="29.24648" lon="-13.50968">
        <ele>40.4</ele>
        <time>2021-07-02 19:16:44</time>
      </trkpt>
      <trkpt lat="29.24646" lon="-13.50965">
        <ele>40.2</ele>
        <time>2021-07-02 19:16:45</time>
      </trkpt>
      <trkpt lat="29.24644" lon="-13.50961">
        <ele>40.2</ele>
        <time>2021-07-02 19:16:46</time>
      </trkpt>
      <trkpt lat="29.24642" lon="-13.50958">
        <ele>40.2</ele>
        <time>2021-07-02 19:16:47</time>
      </trkpt>
      <trkpt lat="29.24641" lon="-13.50955">
        <ele>40.2</ele>
        <time>2021-07-02 19:16:48</time>
      </trkpt>
      <trkpt lat="29.24639" lon="-13.50951">
        <ele>40.2</ele>
        <time>2021-07-02 19:16:49</time>
      </trkpt>
      <trkpt lat="29.24637" lon="-13.50948">
        <ele>40.2</ele>
        <time>2021-07-02 19:16:50</time>
      </trkpt>
      <trkpt lat="29.24635" lon="-13.50945">
        <ele>40.2</ele>
        <time>2021-07-02 19:16:51</time>
      </trkpt>
      <trkpt lat="29.24633" lon="-13.50943">
        <ele>40.2</ele>
        <time>2021-07-02 19:16:52</time>
      </trkpt>
      <trkpt lat="29.24631" lon="-13.50942">
        <ele>40.2</ele>
        <time>2021-07-02 19:16:53</time>
      </trkpt>
      <trkpt lat="29.24628" lon="-13.50942">
        <ele>40.2</ele>
        <time>2021-07-02 19:16:54</time>
      </trkpt>
      <trkpt lat="29.24625" lon="-13.50944">
        <ele>40.2</ele>
        <time>2021-07-02 19:16:55</time>
      </trkpt>
      <trkpt lat="29.24623" lon="-13.50946">
        <ele>40.2</ele>
        <time>2021-07-02 19:16:56</time>
      </trkpt>
      <trkpt lat="29.24621" lon="-13.50949">
        <ele>40.2</ele>
        <time>2021-07-02 19:16:57</time>
      </trkpt>
      <trkpt lat="29.24619" lon="-13.50952">
        <ele>40.2</ele>
        <time>2021-07-02 19:16:58</time>
      </trkpt>
      <trkpt lat="29.24617" lon="-13.50955">
        <ele>40</ele>
        <time>2021-07-02 19:16:59</time>
      </trkpt>
      <trkpt lat="29.24616" lon="-13.50958">
        <ele>40</ele>
        <time>2021-07-02 19:17:00</time>
      </trkpt>
      <trkpt lat="29.24615" lon="-13.50962">
        <ele>40</ele>
        <time>2021-07-02 19:17:01</time>
      </trkpt>
      <trkpt lat="29.24614" lon="-13.50966">
        <ele>40</ele>
        <time>2021-07-02 19:17:02</time>
      </trkpt>
      <trkpt lat="29.24613" lon="-13.50971">
        <ele>40</ele>
        <time>2021-07-02 19:17:03</time>
      </trkpt>
      <trkpt lat="29.24612" lon="-13.50975">
        <ele>40</ele>
        <time>2021-07-02 19:17:04</time>
      </trkpt>
      <trkpt lat="29.2461" lon="-13.50979">
        <ele>39.6</ele>
        <time>2021-07-02 19:17:05</time>
      </trkpt>
      <trkpt lat="29.24609" lon="-13.50984">
        <ele>39.6</ele>
        <time>2021-07-02 19:17:06</time>
      </trkpt>
      <trkpt lat="29.24607" lon="-13.50988">
        <ele>39.6</ele>
        <time>2021-07-02 19:17:07</time>
      </trkpt>
      <trkpt lat="29.24605" lon="-13.50992">
        <ele>39.6</ele>
        <time>2021-07-02 19:17:08</time>
      </trkpt>
      <trkpt lat="29.24603" lon="-13.50996">
        <ele>39.4</ele>
        <time>2021-07-02 19:17:09</time>
      </trkpt>
      <trkpt lat="29.24601" lon="-13.50999">
        <ele>39.4</ele>
        <time>2021-07-02 19:17:10</time>
      </trkpt>
      <trkpt lat="29.24598" lon="-13.51003">
        <ele>39.4</ele>
        <time>2021-07-02 19:17:11</time>
      </trkpt>
      <trkpt lat="29.24596" lon="-13.51006">
        <ele>39.6</ele>
        <time>2021-07-02 19:17:12</time>
      </trkpt>
      <trkpt lat="29.24593" lon="-13.51009">
        <ele>39.6</ele>
        <time>2021-07-02 19:17:13</time>
      </trkpt>
      <trkpt lat="29.2459" lon="-13.51012">
        <ele>40</ele>
        <time>2021-07-02 19:17:14</time>
      </trkpt>
      <trkpt lat="29.24587" lon="-13.51014">
        <ele>40</ele>
        <time>2021-07-02 19:17:15</time>
      </trkpt>
      <trkpt lat="29.24584" lon="-13.51016">
        <ele>40.2</ele>
        <time>2021-07-02 19:17:16</time>
      </trkpt>
      <trkpt lat="29.24581" lon="-13.51018">
        <ele>40.2</ele>
        <time>2021-07-02 19:17:17</time>
      </trkpt>
      <trkpt lat="29.24578" lon="-13.51019">
        <ele>40.6</ele>
        <time>2021-07-02 19:17:18</time>
      </trkpt>
      <trkpt lat="29.24575" lon="-13.5102">
        <ele>40.6</ele>
        <time>2021-07-02 19:17:19</time>
      </trkpt>
      <trkpt lat="29.24572" lon="-13.5102">
        <ele>40.8</ele>
        <time>2021-07-02 19:17:20</time>
      </trkpt>
      <trkpt lat="29.24569" lon="-13.51021">
        <ele>40.8</ele>
        <time>2021-07-02 19:17:21</time>
      </trkpt>
      <trkpt lat="29.24566" lon="-13.5102">
        <ele>41.2</ele>
        <time>2021-07-02 19:17:22</time>
      </trkpt>
      <trkpt lat="29.24564" lon="-13.51018">
        <ele>41.2</ele>
        <time>2021-07-02 19:17:23</time>
      </trkpt>
      <trkpt lat="29.24562" lon="-13.51015">
        <ele>41.2</ele>
        <time>2021-07-02 19:17:24</time>
      </trkpt>
      <trkpt lat="29.24562" lon="-13.51012">
        <ele>41.4</ele>
        <time>2021-07-02 19:17:25</time>
      </trkpt>
      <trkpt lat="29.24561" lon="-13.51009">
        <ele>41.4</ele>
        <time>2021-07-02 19:17:26</time>
      </trkpt>
      <trkpt lat="29.2456" lon="-13.51006">
        <ele>41.6</ele>
        <time>2021-07-02 19:17:27</time>
      </trkpt>
      <trkpt lat="29.24558" lon="-13.51003">
        <ele>41.8</ele>
        <time>2021-07-02 19:17:28</time>
      </trkpt>
      <trkpt lat="29.24555" lon="-13.51">
        <ele>42</ele>
        <time>2021-07-02 19:17:29</time>
      </trkpt>
      <trkpt lat="29.24551" lon="-13.50996">
        <ele>42</ele>
        <time>2021-07-02 19:17:30</time>
      </trkpt>
      <trkpt lat="29.24548" lon="-13.50993">
        <ele>42.4</ele>
        <time>2021-07-02 19:17:31</time>
      </trkpt>
      <trkpt lat="29.24544" lon="-13.5099">
        <ele>42.4</ele>
        <time>2021-07-02 19:17:32</time>
      </trkpt>
      <trkpt lat="29.24541" lon="-13.50988">
        <ele>42.6</ele>
        <time>2021-07-02 19:17:33</time>
      </trkpt>
      <trkpt lat="29.24538" lon="-13.50984">
        <ele>42.6</ele>
        <time>2021-07-02 19:17:34</time>
      </trkpt>
      <trkpt lat="29.24535" lon="-13.50981">
        <ele>42.6</ele>
        <time>2021-07-02 19:17:35</time>
      </trkpt>
      <trkpt lat="29.24531" lon="-13.50978">
        <ele>43</ele>
        <time>2021-07-02 19:17:36</time>
      </trkpt>
      <trkpt lat="29.24527" lon="-13.50975">
        <ele>43</ele>
        <time>2021-07-02 19:17:37</time>
      </trkpt>
      <trkpt lat="29.24523" lon="-13.50973">
        <ele>43</ele>
        <time>2021-07-02 19:17:38</time>
      </trkpt>
      <trkpt lat="29.24519" lon="-13.5097">
        <ele>43.2</ele>
        <time>2021-07-02 19:17:39</time>
      </trkpt>
      <trkpt lat="29.24515" lon="-13.50968">
        <ele>43.2</ele>
        <time>2021-07-02 19:17:40</time>
      </trkpt>
      <trkpt lat="29.24511" lon="-13.50966">
        <ele>43.2</ele>
        <time>2021-07-02 19:17:41</time>
      </trkpt>
      <trkpt lat="29.24507" lon="-13.50963">
        <ele>43.6</ele>
        <time>2021-07-02 19:17:42</time>
      </trkpt>
      <trkpt lat="29.24503" lon="-13.50961">
        <ele>43.6</ele>
        <time>2021-07-02 19:17:43</time>
      </trkpt>
      <trkpt lat="29.245" lon="-13.50959">
        <ele>43.8</ele>
        <time>2021-07-02 19:17:44</time>
      </trkpt>
      <trkpt lat="29.24496" lon="-13.50956">
        <ele>43.8</ele>
        <time>2021-07-02 19:17:45</time>
      </trkpt>
      <trkpt lat="29.24492" lon="-13.50954">
        <ele>44.2</ele>
        <time>2021-07-02 19:17:46</time>
      </trkpt>
      <trkpt lat="29.24488" lon="-13.50952">
        <ele>44.2</ele>
        <time>2021-07-02 19:17:47</time>
      </trkpt>
      <trkpt lat="29.24484" lon="-13.50949">
        <ele>44.4</ele>
        <time>2021-07-02 19:17:48</time>
      </trkpt>
      <trkpt lat="29.2448" lon="-13.50947">
        <ele>44.4</ele>
        <time>2021-07-02 19:17:49</time>
      </trkpt>
      <trkpt lat="29.24476" lon="-13.50945">
        <ele>44.6</ele>
        <time>2021-07-02 19:17:50</time>
      </trkpt>
      <trkpt lat="29.24473" lon="-13.50943">
        <ele>44.6</ele>
        <time>2021-07-02 19:17:51</time>
      </trkpt>
      <trkpt lat="29.2447" lon="-13.50942">
        <ele>45</ele>
        <time>2021-07-02 19:17:52</time>
      </trkpt>
      <trkpt lat="29.24467" lon="-13.5094">
        <ele>45</ele>
        <time>2021-07-02 19:17:53</time>
      </trkpt>
      <trkpt lat="29.24464" lon="-13.50939">
        <ele>45.2</ele>
        <time>2021-07-02 19:17:54</time>
      </trkpt>
      <trkpt lat="29.2446" lon="-13.50936">
        <ele>45.2</ele>
        <time>2021-07-02 19:17:55</time>
      </trkpt>
      <trkpt lat="29.24458" lon="-13.50934">
        <ele>45.4</ele>
        <time>2021-07-02 19:17:56</time>
      </trkpt>
      <trkpt lat="29.24454" lon="-13.50933">
        <ele>45.4</ele>
        <time>2021-07-02 19:17:57</time>
      </trkpt>
      <trkpt lat="29.24451" lon="-13.50931">
        <ele>45.4</ele>
        <time>2021-07-02 19:17:58</time>
      </trkpt>
      <trkpt lat="29.24448" lon="-13.5093">
        <ele>45.6</ele>
        <time>2021-07-02 19:17:59</time>
      </trkpt>
      <trkpt lat="29.24445" lon="-13.50927">
        <ele>45.6</ele>
        <time>2021-07-02 19:18:00</time>
      </trkpt>
      <trkpt lat="29.24442" lon="-13.50926">
        <ele>45.6</ele>
        <time>2021-07-02 19:18:01</time>
      </trkpt>
      <trkpt lat="29.24438" lon="-13.50923">
        <ele>45.6</ele>
        <time>2021-07-02 19:18:02</time>
      </trkpt>
      <trkpt lat="29.24434" lon="-13.50921">
        <ele>45.6</ele>
        <time>2021-07-02 19:18:03</time>
      </trkpt>
      <trkpt lat="29.2443" lon="-13.50919">
        <ele>45.8</ele>
        <time>2021-07-02 19:18:04</time>
      </trkpt>
      <trkpt lat="29.24425" lon="-13.50916">
        <ele>45.8</ele>
        <time>2021-07-02 19:18:05</time>
      </trkpt>
      <trkpt lat="29.24421" lon="-13.50914">
        <ele>45.8</ele>
        <time>2021-07-02 19:18:06</time>
      </trkpt>
      <trkpt lat="29.24417" lon="-13.50911">
        <ele>45.8</ele>
        <time>2021-07-02 19:18:07</time>
      </trkpt>
      <trkpt lat="29.24414" lon="-13.50909">
        <ele>46.2</ele>
        <time>2021-07-02 19:18:08</time>
      </trkpt>
      <trkpt lat="29.24409" lon="-13.50906">
        <ele>46.2</ele>
        <time>2021-07-02 19:18:09</time>
      </trkpt>
      <trkpt lat="29.24405" lon="-13.50904">
        <ele>46.2</ele>
        <time>2021-07-02 19:18:10</time>
      </trkpt>
      <trkpt lat="29.24402" lon="-13.50902">
        <ele>46.2</ele>
        <time>2021-07-02 19:18:11</time>
      </trkpt>
      <trkpt lat="29.24398" lon="-13.509">
        <ele>46.2</ele>
        <time>2021-07-02 19:18:12</time>
      </trkpt>
      <trkpt lat="29.24394" lon="-13.50897">
        <ele>46.4</ele>
        <time>2021-07-02 19:18:13</time>
      </trkpt>
      <trkpt lat="29.2439" lon="-13.50895">
        <ele>46.6</ele>
        <time>2021-07-02 19:18:14</time>
      </trkpt>
      <trkpt lat="29.24386" lon="-13.50892">
        <ele>46.6</ele>
        <time>2021-07-02 19:18:15</time>
      </trkpt>
      <trkpt lat="29.24383" lon="-13.50891">
        <ele>46.8</ele>
        <time>2021-07-02 19:18:16</time>
      </trkpt>
      <trkpt lat="29.24379" lon="-13.50889">
        <ele>46.8</ele>
        <time>2021-07-02 19:18:17</time>
      </trkpt>
      <trkpt lat="29.24375" lon="-13.50887">
        <ele>46.8</ele>
        <time>2021-07-02 19:18:18</time>
      </trkpt>
      <trkpt lat="29.24372" lon="-13.50885">
        <ele>47</ele>
        <time>2021-07-02 19:18:19</time>
      </trkpt>
      <trkpt lat="29.2437" lon="-13.50882">
        <ele>47</ele>
        <time>2021-07-02 19:18:20</time>
      </trkpt>
      <trkpt lat="29.24366" lon="-13.5088">
        <ele>47</ele>
        <time>2021-07-02 19:18:21</time>
      </trkpt>
      <trkpt lat="29.24362" lon="-13.50878">
        <ele>47.2</ele>
        <time>2021-07-02 19:18:22</time>
      </trkpt>
      <trkpt lat="29.24358" lon="-13.50876">
        <ele>47.2</ele>
        <time>2021-07-02 19:18:23</time>
      </trkpt>
      <trkpt lat="29.24354" lon="-13.50873">
        <ele>47.2</ele>
        <time>2021-07-02 19:18:24</time>
      </trkpt>
      <trkpt lat="29.2435" lon="-13.5087">
        <ele>47.6</ele>
        <time>2021-07-02 19:18:25</time>
      </trkpt>
      <trkpt lat="29.24345" lon="-13.50868">
        <ele>47.6</ele>
        <time>2021-07-02 19:18:26</time>
      </trkpt>
      <trkpt lat="29.24341" lon="-13.50865">
        <ele>47.8</ele>
        <time>2021-07-02 19:18:27</time>
      </trkpt>
      <trkpt lat="29.24337" lon="-13.50863">
        <ele>47.8</ele>
        <time>2021-07-02 19:18:28</time>
      </trkpt>
      <trkpt lat="29.24332" lon="-13.5086">
        <ele>48.2</ele>
        <time>2021-07-02 19:18:29</time>
      </trkpt>
      <trkpt lat="29.24329" lon="-13.50857">
        <ele>48.2</ele>
        <time>2021-07-02 19:18:30</time>
      </trkpt>
      <trkpt lat="29.24325" lon="-13.50855">
        <ele>48.4</ele>
        <time>2021-07-02 19:18:31</time>
      </trkpt>
      <trkpt lat="29.24321" lon="-13.50852">
        <ele>48.4</ele>
        <time>2021-07-02 19:18:32</time>
      </trkpt>
      <trkpt lat="29.24317" lon="-13.5085">
        <ele>48.6</ele>
        <time>2021-07-02 19:18:33</time>
      </trkpt>
      <trkpt lat="29.24312" lon="-13.50848">
        <ele>48.6</ele>
        <time>2021-07-02 19:18:34</time>
      </trkpt>
      <trkpt lat="29.24308" lon="-13.50846">
        <ele>48.8</ele>
        <time>2021-07-02 19:18:35</time>
      </trkpt>
      <trkpt lat="29.24305" lon="-13.50843">
        <ele>48.8</ele>
        <time>2021-07-02 19:18:36</time>
      </trkpt>
      <trkpt lat="29.24301" lon="-13.50842">
        <ele>48.8</ele>
        <time>2021-07-02 19:18:37</time>
      </trkpt>
      <trkpt lat="29.24297" lon="-13.5084">
        <ele>48.8</ele>
        <time>2021-07-02 19:18:38</time>
      </trkpt>
      <trkpt lat="29.24294" lon="-13.50838">
        <ele>48.8</ele>
        <time>2021-07-02 19:18:39</time>
      </trkpt>
      <trkpt lat="29.24291" lon="-13.50837">
        <ele>48.8</ele>
        <time>2021-07-02 19:18:40</time>
      </trkpt>
      <trkpt lat="29.24289" lon="-13.50836">
        <ele>48.8</ele>
        <time>2021-07-02 19:18:41</time>
      </trkpt>
      <trkpt lat="29.24286" lon="-13.50834">
        <ele>48.8</ele>
        <time>2021-07-02 19:18:42</time>
      </trkpt>
      <trkpt lat="29.24283" lon="-13.50833">
        <ele>48.8</ele>
        <time>2021-07-02 19:18:43</time>
      </trkpt>
      <trkpt lat="29.24279" lon="-13.50831">
        <ele>49.2</ele>
        <time>2021-07-02 19:18:44</time>
      </trkpt>
      <trkpt lat="29.24275" lon="-13.50829">
        <ele>49.2</ele>
        <time>2021-07-02 19:18:45</time>
      </trkpt>
      <trkpt lat="29.24272" lon="-13.50827">
        <ele>49.4</ele>
        <time>2021-07-02 19:18:46</time>
      </trkpt>
      <trkpt lat="29.24268" lon="-13.50826">
        <ele>49.4</ele>
        <time>2021-07-02 19:18:47</time>
      </trkpt>
      <trkpt lat="29.24264" lon="-13.50824">
        <ele>49.8</ele>
        <time>2021-07-02 19:18:48</time>
      </trkpt>
      <trkpt lat="29.24261" lon="-13.50823">
        <ele>49.8</ele>
        <time>2021-07-02 19:18:49</time>
      </trkpt>
      <trkpt lat="29.24257" lon="-13.50821">
        <ele>50</ele>
        <time>2021-07-02 19:18:50</time>
      </trkpt>
      <trkpt lat="29.24254" lon="-13.5082">
        <ele>50</ele>
        <time>2021-07-02 19:18:51</time>
      </trkpt>
      <trkpt lat="29.24252" lon="-13.50818">
        <ele>50.2</ele>
        <time>2021-07-02 19:18:52</time>
      </trkpt>
      <trkpt lat="29.24249" lon="-13.50816">
        <ele>50.2</ele>
        <time>2021-07-02 19:18:53</time>
      </trkpt>
      <trkpt lat="29.24247" lon="-13.50815">
        <ele>50.6</ele>
        <time>2021-07-02 19:18:54</time>
      </trkpt>
      <trkpt lat="29.24244" lon="-13.50813">
        <ele>50.6</ele>
        <time>2021-07-02 19:18:55</time>
      </trkpt>
      <trkpt lat="29.24241" lon="-13.50811">
        <ele>51</ele>
        <time>2021-07-02 19:18:56</time>
      </trkpt>
      <trkpt lat="29.24237" lon="-13.50809">
        <ele>51</ele>
        <time>2021-07-02 19:18:57</time>
      </trkpt>
      <trkpt lat="29.24233" lon="-13.50806">
        <ele>51</ele>
        <time>2021-07-02 19:18:58</time>
      </trkpt>
      <trkpt lat="29.24229" lon="-13.50804">
        <ele>51.2</ele>
        <time>2021-07-02 19:18:59</time>
      </trkpt>
      <trkpt lat="29.24224" lon="-13.50802">
        <ele>51.2</ele>
        <time>2021-07-02 19:19:00</time>
      </trkpt>
      <trkpt lat="29.24221" lon="-13.50801">
        <ele>51.2</ele>
        <time>2021-07-02 19:19:01</time>
      </trkpt>
      <trkpt lat="29.24216" lon="-13.508">
        <ele>51.2</ele>
        <time>2021-07-02 19:19:02</time>
      </trkpt>
      <trkpt lat="29.24212" lon="-13.50798">
        <ele>51.2</ele>
        <time>2021-07-02 19:19:03</time>
      </trkpt>
      <trkpt lat="29.24207" lon="-13.50796">
        <ele>51.4</ele>
        <time>2021-07-02 19:19:04</time>
      </trkpt>
      <trkpt lat="29.24203" lon="-13.50794">
        <ele>51.4</ele>
        <time>2021-07-02 19:19:05</time>
      </trkpt>
      <trkpt lat="29.24198" lon="-13.50792">
        <ele>51.4</ele>
        <time>2021-07-02 19:19:06</time>
      </trkpt>
      <trkpt lat="29.24194" lon="-13.5079">
        <ele>51.4</ele>
        <time>2021-07-02 19:19:07</time>
      </trkpt>
      <trkpt lat="29.24191" lon="-13.50787">
        <ele>51.4</ele>
        <time>2021-07-02 19:19:08</time>
      </trkpt>
      <trkpt lat="29.24187" lon="-13.50786">
        <ele>51.8</ele>
        <time>2021-07-02 19:19:09</time>
      </trkpt>
      <trkpt lat="29.24184" lon="-13.50784">
        <ele>51.8</ele>
        <time>2021-07-02 19:19:10</time>
      </trkpt>
      <trkpt lat="29.2418" lon="-13.50783">
        <ele>52</ele>
        <time>2021-07-02 19:19:11</time>
      </trkpt>
      <trkpt lat="29.24176" lon="-13.50781">
        <ele>52</ele>
        <time>2021-07-02 19:19:12</time>
      </trkpt>
      <trkpt lat="29.24173" lon="-13.5078">
        <ele>52.2</ele>
        <time>2021-07-02 19:19:13</time>
      </trkpt>
      <trkpt lat="29.24169" lon="-13.50779">
        <ele>52.2</ele>
        <time>2021-07-02 19:19:14</time>
      </trkpt>
      <trkpt lat="29.24165" lon="-13.50777">
        <ele>52.2</ele>
        <time>2021-07-02 19:19:15</time>
      </trkpt>
      <trkpt lat="29.24162" lon="-13.50775">
        <ele>52.4</ele>
        <time>2021-07-02 19:19:16</time>
      </trkpt>
      <trkpt lat="29.24158" lon="-13.50773">
        <ele>52.4</ele>
        <time>2021-07-02 19:19:17</time>
      </trkpt>
      <trkpt lat="29.24155" lon="-13.50772">
        <ele>52.4</ele>
        <time>2021-07-02 19:19:18</time>
      </trkpt>
      <trkpt lat="29.24152" lon="-13.5077">
        <ele>52.4</ele>
        <time>2021-07-02 19:19:19</time>
      </trkpt>
      <trkpt lat="29.24148" lon="-13.50768">
        <ele>52.4</ele>
        <time>2021-07-02 19:19:20</time>
      </trkpt>
      <trkpt lat="29.24145" lon="-13.50766">
        <ele>52.6</ele>
        <time>2021-07-02 19:19:21</time>
      </trkpt>
      <trkpt lat="29.24141" lon="-13.50765">
        <ele>52.6</ele>
        <time>2021-07-02 19:19:22</time>
      </trkpt>
      <trkpt lat="29.24138" lon="-13.50763">
        <ele>53</ele>
        <time>2021-07-02 19:19:23</time>
      </trkpt>
      <trkpt lat="29.24134" lon="-13.50762">
        <ele>53</ele>
        <time>2021-07-02 19:19:24</time>
      </trkpt>
      <trkpt lat="29.24131" lon="-13.5076">
        <ele>53</ele>
        <time>2021-07-02 19:19:25</time>
      </trkpt>
      <trkpt lat="29.24127" lon="-13.50758">
        <ele>53.2</ele>
        <time>2021-07-02 19:19:26</time>
      </trkpt>
      <trkpt lat="29.24124" lon="-13.50756">
        <ele>53.2</ele>
        <time>2021-07-02 19:19:27</time>
      </trkpt>
      <trkpt lat="29.2412" lon="-13.50754">
        <ele>53.2</ele>
        <time>2021-07-02 19:19:28</time>
      </trkpt>
      <trkpt lat="29.24117" lon="-13.50751">
        <ele>53.2</ele>
        <time>2021-07-02 19:19:29</time>
      </trkpt>
      <trkpt lat="29.24113" lon="-13.50749">
        <ele>53.4</ele>
        <time>2021-07-02 19:19:30</time>
      </trkpt>
      <trkpt lat="29.24109" lon="-13.50746">
        <ele>53.4</ele>
        <time>2021-07-02 19:19:31</time>
      </trkpt>
      <trkpt lat="29.24105" lon="-13.50745">
        <ele>53.4</ele>
        <time>2021-07-02 19:19:32</time>
      </trkpt>
      <trkpt lat="29.24101" lon="-13.50744">
        <ele>53.4</ele>
        <time>2021-07-02 19:19:33</time>
      </trkpt>
      <trkpt lat="29.24097" lon="-13.50742">
        <ele>53.4</ele>
        <time>2021-07-02 19:19:34</time>
      </trkpt>
      <trkpt lat="29.24093" lon="-13.50741">
        <ele>53.4</ele>
        <time>2021-07-02 19:19:35</time>
      </trkpt>
      <trkpt lat="29.2409" lon="-13.50739">
        <ele>53.4</ele>
        <time>2021-07-02 19:19:36</time>
      </trkpt>
      <trkpt lat="29.24087" lon="-13.50738">
        <ele>53.4</ele>
        <time>2021-07-02 19:19:37</time>
      </trkpt>
      <trkpt lat="29.24084" lon="-13.50737">
        <ele>53.4</ele>
        <time>2021-07-02 19:19:38</time>
      </trkpt>
      <trkpt lat="29.2408" lon="-13.50737">
        <ele>53.4</ele>
        <time>2021-07-02 19:19:39</time>
      </trkpt>
      <trkpt lat="29.24077" lon="-13.50737">
        <ele>53.4</ele>
        <time>2021-07-02 19:19:40</time>
      </trkpt>
      <trkpt lat="29.24074" lon="-13.50737">
        <ele>53.4</ele>
        <time>2021-07-02 19:19:41</time>
      </trkpt>
      <trkpt lat="29.24071" lon="-13.50736">
        <ele>53.4</ele>
        <time>2021-07-02 19:19:42</time>
      </trkpt>
      <trkpt lat="29.24067" lon="-13.50735">
        <ele>53.4</ele>
        <time>2021-07-02 19:19:43</time>
      </trkpt>
      <trkpt lat="29.24064" lon="-13.50733">
        <ele>53.4</ele>
        <time>2021-07-02 19:19:44</time>
      </trkpt>
      <trkpt lat="29.2406" lon="-13.5073">
        <ele>53.4</ele>
        <time>2021-07-02 19:19:45</time>
      </trkpt>
      <trkpt lat="29.24057" lon="-13.50729">
        <ele>53.4</ele>
        <time>2021-07-02 19:19:46</time>
      </trkpt>
      <trkpt lat="29.24054" lon="-13.50727">
        <ele>53.4</ele>
        <time>2021-07-02 19:19:47</time>
      </trkpt>
      <trkpt lat="29.24051" lon="-13.50726">
        <ele>53.4</ele>
        <time>2021-07-02 19:19:48</time>
      </trkpt>
      <trkpt lat="29.24047" lon="-13.50724">
        <ele>53.4</ele>
        <time>2021-07-02 19:19:49</time>
      </trkpt>
      <trkpt lat="29.24044" lon="-13.50722">
        <ele>53.4</ele>
        <time>2021-07-02 19:19:50</time>
      </trkpt>
      <trkpt lat="29.2404" lon="-13.50721">
        <ele>53.4</ele>
        <time>2021-07-02 19:19:51</time>
      </trkpt>
      <trkpt lat="29.24037" lon="-13.50719">
        <ele>53.4</ele>
        <time>2021-07-02 19:19:52</time>
      </trkpt>
      <trkpt lat="29.24034" lon="-13.50717">
        <ele>53.4</ele>
        <time>2021-07-02 19:19:53</time>
      </trkpt>
      <trkpt lat="29.24031" lon="-13.50714">
        <ele>53.4</ele>
        <time>2021-07-02 19:19:54</time>
      </trkpt>
      <trkpt lat="29.24028" lon="-13.50711">
        <ele>53.4</ele>
        <time>2021-07-02 19:19:55</time>
      </trkpt>
      <trkpt lat="29.24026" lon="-13.50707">
        <ele>53.4</ele>
        <time>2021-07-02 19:19:56</time>
      </trkpt>
      <trkpt lat="29.24024" lon="-13.50705">
        <ele>53.4</ele>
        <time>2021-07-02 19:19:57</time>
      </trkpt>
      <trkpt lat="29.24021" lon="-13.50703">
        <ele>53.4</ele>
        <time>2021-07-02 19:19:58</time>
      </trkpt>
      <trkpt lat="29.24017" lon="-13.50701">
        <ele>53.4</ele>
        <time>2021-07-02 19:19:59</time>
      </trkpt>
      <trkpt lat="29.24013" lon="-13.50699">
        <ele>53.4</ele>
        <time>2021-07-02 19:20:00</time>
      </trkpt>
      <trkpt lat="29.24009" lon="-13.50698">
        <ele>53.4</ele>
        <time>2021-07-02 19:20:01</time>
      </trkpt>
      <trkpt lat="29.24005" lon="-13.50696">
        <ele>53.4</ele>
        <time>2021-07-02 19:20:02</time>
      </trkpt>
      <trkpt lat="29.24001" lon="-13.50694">
        <ele>53.4</ele>
        <time>2021-07-02 19:20:03</time>
      </trkpt>
      <trkpt lat="29.23997" lon="-13.50692">
        <ele>53.4</ele>
        <time>2021-07-02 19:20:04</time>
      </trkpt>
      <trkpt lat="29.23993" lon="-13.50689">
        <ele>53.4</ele>
        <time>2021-07-02 19:20:05</time>
      </trkpt>
      <trkpt lat="29.23989" lon="-13.50688">
        <ele>53.4</ele>
        <time>2021-07-02 19:20:06</time>
      </trkpt>
      <trkpt lat="29.23984" lon="-13.50686">
        <ele>53.2</ele>
        <time>2021-07-02 19:20:07</time>
      </trkpt>
      <trkpt lat="29.2398" lon="-13.50684">
        <ele>53.2</ele>
        <time>2021-07-02 19:20:08</time>
      </trkpt>
      <trkpt lat="29.23976" lon="-13.50681">
        <ele>53.2</ele>
        <time>2021-07-02 19:20:09</time>
      </trkpt>
      <trkpt lat="29.23972" lon="-13.50678">
        <ele>53.2</ele>
        <time>2021-07-02 19:20:10</time>
      </trkpt>
      <trkpt lat="29.23967" lon="-13.50676">
        <ele>52.8</ele>
        <time>2021-07-02 19:20:11</time>
      </trkpt>
      <trkpt lat="29.23962" lon="-13.50674">
        <ele>52.8</ele>
        <time>2021-07-02 19:20:12</time>
      </trkpt>
      <trkpt lat="29.23958" lon="-13.50672">
        <ele>52.6</ele>
        <time>2021-07-02 19:20:13</time>
      </trkpt>
      <trkpt lat="29.23954" lon="-13.50669">
        <ele>52.6</ele>
        <time>2021-07-02 19:20:14</time>
      </trkpt>
      <trkpt lat="29.23949" lon="-13.50667">
        <ele>52.4</ele>
        <time>2021-07-02 19:20:15</time>
      </trkpt>
      <trkpt lat="29.23945" lon="-13.50664">
        <ele>52</ele>
        <time>2021-07-02 19:20:16</time>
      </trkpt>
      <trkpt lat="29.2394" lon="-13.50662">
        <ele>52</ele>
        <time>2021-07-02 19:20:17</time>
      </trkpt>
      <trkpt lat="29.23936" lon="-13.50661">
        <ele>52</ele>
        <time>2021-07-02 19:20:18</time>
      </trkpt>
      <trkpt lat="29.23932" lon="-13.50659">
        <ele>51.8</ele>
        <time>2021-07-02 19:20:19</time>
      </trkpt>
      <trkpt lat="29.23928" lon="-13.50657">
        <ele>51.8</ele>
        <time>2021-07-02 19:20:20</time>
      </trkpt>
      <trkpt lat="29.23924" lon="-13.50656">
        <ele>51.6</ele>
        <time>2021-07-02 19:20:21</time>
      </trkpt>
      <trkpt lat="29.2392" lon="-13.50654">
        <ele>51.6</ele>
        <time>2021-07-02 19:20:22</time>
      </trkpt>
      <trkpt lat="29.23915" lon="-13.50652">
        <ele>51.6</ele>
        <time>2021-07-02 19:20:23</time>
      </trkpt>
      <trkpt lat="29.23911" lon="-13.5065">
        <ele>51.6</ele>
        <time>2021-07-02 19:20:24</time>
      </trkpt>
      <trkpt lat="29.23907" lon="-13.50649">
        <ele>51.6</ele>
        <time>2021-07-02 19:20:25</time>
      </trkpt>
      <trkpt lat="29.23903" lon="-13.50647">
        <ele>51.4</ele>
        <time>2021-07-02 19:20:26</time>
      </trkpt>
      <trkpt lat="29.23899" lon="-13.50646">
        <ele>51.4</ele>
        <time>2021-07-02 19:20:27</time>
      </trkpt>
      <trkpt lat="29.23894" lon="-13.50645">
        <ele>51.4</ele>
        <time>2021-07-02 19:20:28</time>
      </trkpt>
      <trkpt lat="29.2389" lon="-13.50642">
        <ele>51</ele>
        <time>2021-07-02 19:20:29</time>
      </trkpt>
      <trkpt lat="29.23886" lon="-13.5064">
        <ele>51</ele>
        <time>2021-07-02 19:20:30</time>
      </trkpt>
      <trkpt lat="29.23882" lon="-13.50639">
        <ele>50.8</ele>
        <time>2021-07-02 19:20:31</time>
      </trkpt>
      <trkpt lat="29.23878" lon="-13.50637">
        <ele>50.8</ele>
        <time>2021-07-02 19:20:32</time>
      </trkpt>
      <trkpt lat="29.23873" lon="-13.50635">
        <ele>50.6</ele>
        <time>2021-07-02 19:20:33</time>
      </trkpt>
      <trkpt lat="29.23869" lon="-13.50633">
        <ele>50.6</ele>
        <time>2021-07-02 19:20:34</time>
      </trkpt>
      <trkpt lat="29.23864" lon="-13.50631">
        <ele>50.2</ele>
        <time>2021-07-02 19:20:35</time>
      </trkpt>
      <trkpt lat="29.23859" lon="-13.50629">
        <ele>50.2</ele>
        <time>2021-07-02 19:20:36</time>
      </trkpt>
      <trkpt lat="29.23854" lon="-13.50627">
        <ele>50</ele>
        <time>2021-07-02 19:20:37</time>
      </trkpt>
      <trkpt lat="29.23849" lon="-13.50625">
        <ele>50</ele>
        <time>2021-07-02 19:20:38</time>
      </trkpt>
      <trkpt lat="29.23845" lon="-13.50623">
        <ele>49.6</ele>
        <time>2021-07-02 19:20:39</time>
      </trkpt>
      <trkpt lat="29.2384" lon="-13.50621">
        <ele>49.6</ele>
        <time>2021-07-02 19:20:40</time>
      </trkpt>
      <trkpt lat="29.23835" lon="-13.5062">
        <ele>49.4</ele>
        <time>2021-07-02 19:20:41</time>
      </trkpt>
      <trkpt lat="29.2383" lon="-13.50619">
        <ele>49.4</ele>
        <time>2021-07-02 19:20:42</time>
      </trkpt>
      <trkpt lat="29.23827" lon="-13.50618">
        <ele>49</ele>
        <time>2021-07-02 19:20:43</time>
      </trkpt>
      <trkpt lat="29.23824" lon="-13.50616">
        <ele>48.8</ele>
        <time>2021-07-02 19:20:44</time>
      </trkpt>
      <trkpt lat="29.2382" lon="-13.50615">
        <ele>48.8</ele>
        <time>2021-07-02 19:20:45</time>
      </trkpt>
      <trkpt lat="29.23817" lon="-13.50614">
        <ele>48.4</ele>
        <time>2021-07-02 19:20:46</time>
      </trkpt>
      <trkpt lat="29.23814" lon="-13.50612">
        <ele>48.2</ele>
        <time>2021-07-02 19:20:47</time>
      </trkpt>
      <trkpt lat="29.23809" lon="-13.5061">
        <ele>48.2</ele>
        <time>2021-07-02 19:20:48</time>
      </trkpt>
      <trkpt lat="29.23805" lon="-13.50609">
        <ele>47.8</ele>
        <time>2021-07-02 19:20:49</time>
      </trkpt>
      <trkpt lat="29.23801" lon="-13.50606">
        <ele>47.8</ele>
        <time>2021-07-02 19:20:50</time>
      </trkpt>
      <trkpt lat="29.23796" lon="-13.50605">
        <ele>47.4</ele>
        <time>2021-07-02 19:20:51</time>
      </trkpt>
      <trkpt lat="29.23791" lon="-13.50604">
        <ele>47</ele>
        <time>2021-07-02 19:20:52</time>
      </trkpt>
      <trkpt lat="29.23785" lon="-13.50602">
        <ele>46.8</ele>
        <time>2021-07-02 19:20:53</time>
      </trkpt>
      <trkpt lat="29.2378" lon="-13.506">
        <ele>46.4</ele>
        <time>2021-07-02 19:20:54</time>
      </trkpt>
      <trkpt lat="29.23775" lon="-13.50598">
        <ele>46.4</ele>
        <time>2021-07-02 19:20:55</time>
      </trkpt>
      <trkpt lat="29.23771" lon="-13.50596">
        <ele>45.8</ele>
        <time>2021-07-02 19:20:56</time>
      </trkpt>
      <trkpt lat="29.23767" lon="-13.50594">
        <ele>45.4</ele>
        <time>2021-07-02 19:20:57</time>
      </trkpt>
      <trkpt lat="29.23762" lon="-13.50593">
        <ele>45.2</ele>
        <time>2021-07-02 19:20:58</time>
      </trkpt>
      <trkpt lat="29.23758" lon="-13.50592">
        <ele>45.2</ele>
        <time>2021-07-02 19:20:59</time>
      </trkpt>
      <trkpt lat="29.23754" lon="-13.50591">
        <ele>44.8</ele>
        <time>2021-07-02 19:21:00</time>
      </trkpt>
      <trkpt lat="29.2375" lon="-13.5059">
        <ele>44.8</ele>
        <time>2021-07-02 19:21:01</time>
      </trkpt>
      <trkpt lat="29.23745" lon="-13.50589">
        <ele>44.6</ele>
        <time>2021-07-02 19:21:02</time>
      </trkpt>
      <trkpt lat="29.2374" lon="-13.50587">
        <ele>44.6</ele>
        <time>2021-07-02 19:21:03</time>
      </trkpt>
      <trkpt lat="29.23735" lon="-13.50586">
        <ele>44.4</ele>
        <time>2021-07-02 19:21:04</time>
      </trkpt>
      <trkpt lat="29.2373" lon="-13.50585">
        <ele>44.2</ele>
        <time>2021-07-02 19:21:05</time>
      </trkpt>
      <trkpt lat="29.23725" lon="-13.50583">
        <ele>44.2</ele>
        <time>2021-07-02 19:21:06</time>
      </trkpt>
      <trkpt lat="29.23719" lon="-13.50582">
        <ele>43.8</ele>
        <time>2021-07-02 19:21:07</time>
      </trkpt>
      <trkpt lat="29.23713" lon="-13.50582">
        <ele>43.8</ele>
        <time>2021-07-02 19:21:08</time>
      </trkpt>
      <trkpt lat="29.23707" lon="-13.5058">
        <ele>43.4</ele>
        <time>2021-07-02 19:21:09</time>
      </trkpt>
      <trkpt lat="29.23701" lon="-13.50579">
        <ele>43</ele>
        <time>2021-07-02 19:21:10</time>
      </trkpt>
      <trkpt lat="29.23695" lon="-13.50577">
        <ele>42.8</ele>
        <time>2021-07-02 19:21:11</time>
      </trkpt>
      <trkpt lat="29.23689" lon="-13.50575">
        <ele>42.4</ele>
        <time>2021-07-02 19:21:12</time>
      </trkpt>
      <trkpt lat="29.23684" lon="-13.50574">
        <ele>42.2</ele>
        <time>2021-07-02 19:21:13</time>
      </trkpt>
      <trkpt lat="29.23679" lon="-13.50573">
        <ele>41.8</ele>
        <time>2021-07-02 19:21:14</time>
      </trkpt>
      <trkpt lat="29.23674" lon="-13.50571">
        <ele>41.6</ele>
        <time>2021-07-02 19:21:15</time>
      </trkpt>
      <trkpt lat="29.23668" lon="-13.50569">
        <ele>41.2</ele>
        <time>2021-07-02 19:21:16</time>
      </trkpt>
      <trkpt lat="29.23663" lon="-13.50568">
        <ele>41</ele>
        <time>2021-07-02 19:21:17</time>
      </trkpt>
      <trkpt lat="29.23658" lon="-13.50566">
        <ele>40.8</ele>
        <time>2021-07-02 19:21:18</time>
      </trkpt>
      <trkpt lat="29.23653" lon="-13.50565">
        <ele>40.6</ele>
        <time>2021-07-02 19:21:19</time>
      </trkpt>
      <trkpt lat="29.23648" lon="-13.50563">
        <ele>40.2</ele>
        <time>2021-07-02 19:21:20</time>
      </trkpt>
      <trkpt lat="29.23642" lon="-13.50561">
        <ele>40</ele>
        <time>2021-07-02 19:21:21</time>
      </trkpt>
      <trkpt lat="29.23637" lon="-13.50558">
        <ele>39.6</ele>
        <time>2021-07-02 19:21:22</time>
      </trkpt>
      <trkpt lat="29.23631" lon="-13.50556">
        <ele>39.2</ele>
        <time>2021-07-02 19:21:23</time>
      </trkpt>
      <trkpt lat="29.23626" lon="-13.50554">
        <ele>39</ele>
        <time>2021-07-02 19:21:24</time>
      </trkpt>
      <trkpt lat="29.2362" lon="-13.50552">
        <ele>38.6</ele>
        <time>2021-07-02 19:21:25</time>
      </trkpt>
      <trkpt lat="29.23615" lon="-13.50551">
        <ele>38.4</ele>
        <time>2021-07-02 19:21:26</time>
      </trkpt>
      <trkpt lat="29.23611" lon="-13.5055">
        <ele>38</ele>
        <time>2021-07-02 19:21:27</time>
      </trkpt>
      <trkpt lat="29.23606" lon="-13.50548">
        <ele>37.6</ele>
        <time>2021-07-02 19:21:28</time>
      </trkpt>
      <trkpt lat="29.23601" lon="-13.50547">
        <ele>37.6</ele>
        <time>2021-07-02 19:21:29</time>
      </trkpt>
      <trkpt lat="29.23597" lon="-13.50546">
        <ele>37</ele>
        <time>2021-07-02 19:21:30</time>
      </trkpt>
      <trkpt lat="29.23593" lon="-13.50545">
        <ele>36.6</ele>
        <time>2021-07-02 19:21:31</time>
      </trkpt>
      <trkpt lat="29.23588" lon="-13.50543">
        <ele>36.4</ele>
        <time>2021-07-02 19:21:32</time>
      </trkpt>
      <trkpt lat="29.23583" lon="-13.50542">
        <ele>36.2</ele>
        <time>2021-07-02 19:21:33</time>
      </trkpt>
      <trkpt lat="29.23578" lon="-13.50541">
        <ele>36.2</ele>
        <time>2021-07-02 19:21:34</time>
      </trkpt>
      <trkpt lat="29.23574" lon="-13.50538">
        <ele>35.8</ele>
        <time>2021-07-02 19:21:35</time>
      </trkpt>
      <trkpt lat="29.23569" lon="-13.50537">
        <ele>35.4</ele>
        <time>2021-07-02 19:21:36</time>
      </trkpt>
      <trkpt lat="29.23565" lon="-13.50536">
        <ele>35</ele>
        <time>2021-07-02 19:21:37</time>
      </trkpt>
      <trkpt lat="29.2356" lon="-13.50535">
        <ele>34.4</ele>
        <time>2021-07-02 19:21:38</time>
      </trkpt>
      <trkpt lat="29.23556" lon="-13.50534">
        <ele>34.2</ele>
        <time>2021-07-02 19:21:39</time>
      </trkpt>
      <trkpt lat="29.23551" lon="-13.50534">
        <ele>33.8</ele>
        <time>2021-07-02 19:21:40</time>
      </trkpt>
      <trkpt lat="29.23545" lon="-13.50534">
        <ele>33.6</ele>
        <time>2021-07-02 19:21:41</time>
      </trkpt>
      <trkpt lat="29.2354" lon="-13.50533">
        <ele>33.2</ele>
        <time>2021-07-02 19:21:42</time>
      </trkpt>
      <trkpt lat="29.23534" lon="-13.50532">
        <ele>32.8</ele>
        <time>2021-07-02 19:21:43</time>
      </trkpt>
      <trkpt lat="29.23529" lon="-13.5053">
        <ele>32.4</ele>
        <time>2021-07-02 19:21:44</time>
      </trkpt>
      <trkpt lat="29.23522" lon="-13.50529">
        <ele>32</ele>
        <time>2021-07-02 19:21:45</time>
      </trkpt>
      <trkpt lat="29.23517" lon="-13.50527">
        <ele>31.6</ele>
        <time>2021-07-02 19:21:46</time>
      </trkpt>
      <trkpt lat="29.23511" lon="-13.50525">
        <ele>31.2</ele>
        <time>2021-07-02 19:21:47</time>
      </trkpt>
      <trkpt lat="29.23505" lon="-13.50524">
        <ele>31</ele>
        <time>2021-07-02 19:21:48</time>
      </trkpt>
      <trkpt lat="29.235" lon="-13.50522">
        <ele>30.6</ele>
        <time>2021-07-02 19:21:49</time>
      </trkpt>
      <trkpt lat="29.23495" lon="-13.50521">
        <ele>30</ele>
        <time>2021-07-02 19:21:50</time>
      </trkpt>
      <trkpt lat="29.23491" lon="-13.5052">
        <ele>29.6</ele>
        <time>2021-07-02 19:21:51</time>
      </trkpt>
      <trkpt lat="29.23485" lon="-13.5052">
        <ele>29.2</ele>
        <time>2021-07-02 19:21:52</time>
      </trkpt>
      <trkpt lat="29.2348" lon="-13.50518">
        <ele>29</ele>
        <time>2021-07-02 19:21:53</time>
      </trkpt>
      <trkpt lat="29.23475" lon="-13.50517">
        <ele>28.6</ele>
        <time>2021-07-02 19:21:54</time>
      </trkpt>
      <trkpt lat="29.23469" lon="-13.50516">
        <ele>28.4</ele>
        <time>2021-07-02 19:21:55</time>
      </trkpt>
      <trkpt lat="29.23464" lon="-13.50515">
        <ele>28</ele>
        <time>2021-07-02 19:21:56</time>
      </trkpt>
      <trkpt lat="29.23458" lon="-13.50514">
        <ele>27.8</ele>
        <time>2021-07-02 19:21:57</time>
      </trkpt>
      <trkpt lat="29.23453" lon="-13.50513">
        <ele>27.4</ele>
        <time>2021-07-02 19:21:58</time>
      </trkpt>
      <trkpt lat="29.23448" lon="-13.50512">
        <ele>27</ele>
        <time>2021-07-02 19:21:59</time>
      </trkpt>
      <trkpt lat="29.23443" lon="-13.50511">
        <ele>26.8</ele>
        <time>2021-07-02 19:22:00</time>
      </trkpt>
      <trkpt lat="29.23437" lon="-13.50509">
        <ele>26.4</ele>
        <time>2021-07-02 19:22:01</time>
      </trkpt>
      <trkpt lat="29.23432" lon="-13.50508">
        <ele>26.2</ele>
        <time>2021-07-02 19:22:02</time>
      </trkpt>
      <trkpt lat="29.23427" lon="-13.50508">
        <ele>25.8</ele>
        <time>2021-07-02 19:22:03</time>
      </trkpt>
      <trkpt lat="29.23422" lon="-13.50507">
        <ele>25.6</ele>
        <time>2021-07-02 19:22:04</time>
      </trkpt>
      <trkpt lat="29.23416" lon="-13.50506">
        <ele>25.6</ele>
        <time>2021-07-02 19:22:05</time>
      </trkpt>
      <trkpt lat="29.23411" lon="-13.50505">
        <ele>25.2</ele>
        <time>2021-07-02 19:22:06</time>
      </trkpt>
      <trkpt lat="29.23405" lon="-13.50504">
        <ele>25.2</ele>
        <time>2021-07-02 19:22:07</time>
      </trkpt>
      <trkpt lat="29.23399" lon="-13.50503">
        <ele>24.6</ele>
        <time>2021-07-02 19:22:08</time>
      </trkpt>
      <trkpt lat="29.23394" lon="-13.50502">
        <ele>24.4</ele>
        <time>2021-07-02 19:22:09</time>
      </trkpt>
      <trkpt lat="29.23388" lon="-13.50501">
        <ele>24</ele>
        <time>2021-07-02 19:22:10</time>
      </trkpt>
      <trkpt lat="29.23382" lon="-13.505">
        <ele>23.8</ele>
        <time>2021-07-02 19:22:11</time>
      </trkpt>
      <trkpt lat="29.23377" lon="-13.50499">
        <ele>23.8</ele>
        <time>2021-07-02 19:22:12</time>
      </trkpt>
      <trkpt lat="29.23372" lon="-13.50498">
        <ele>23.8</ele>
        <time>2021-07-02 19:22:13</time>
      </trkpt>
      <trkpt lat="29.23367" lon="-13.50497">
        <ele>23.4</ele>
        <time>2021-07-02 19:22:14</time>
      </trkpt>
      <trkpt lat="29.23363" lon="-13.50496">
        <ele>23.2</ele>
        <time>2021-07-02 19:22:15</time>
      </trkpt>
      <trkpt lat="29.23359" lon="-13.50495">
        <ele>23.2</ele>
        <time>2021-07-02 19:22:16</time>
      </trkpt>
      <trkpt lat="29.23354" lon="-13.50494">
        <ele>22.8</ele>
        <time>2021-07-02 19:22:17</time>
      </trkpt>
      <trkpt lat="29.2335" lon="-13.50494">
        <ele>22.8</ele>
        <time>2021-07-02 19:22:18</time>
      </trkpt>
      <trkpt lat="29.23345" lon="-13.50494">
        <ele>22.6</ele>
        <time>2021-07-02 19:22:19</time>
      </trkpt>
      <trkpt lat="29.23341" lon="-13.50493">
        <ele>22.6</ele>
        <time>2021-07-02 19:22:20</time>
      </trkpt>
      <trkpt lat="29.23337" lon="-13.50493">
        <ele>22.2</ele>
        <time>2021-07-02 19:22:21</time>
      </trkpt>
      <trkpt lat="29.23332" lon="-13.50492">
        <ele>22.2</ele>
        <time>2021-07-02 19:22:22</time>
      </trkpt>
      <trkpt lat="29.23328" lon="-13.50492">
        <ele>22</ele>
        <time>2021-07-02 19:22:23</time>
      </trkpt>
      <trkpt lat="29.23324" lon="-13.50493">
        <ele>22</ele>
        <time>2021-07-02 19:22:24</time>
      </trkpt>
      <trkpt lat="29.2332" lon="-13.50492">
        <ele>21.6</ele>
        <time>2021-07-02 19:22:25</time>
      </trkpt>
      <trkpt lat="29.23316" lon="-13.50493">
        <ele>21.6</ele>
        <time>2021-07-02 19:22:26</time>
      </trkpt>
      <trkpt lat="29.23311" lon="-13.50493">
        <ele>21.6</ele>
        <time>2021-07-02 19:22:27</time>
      </trkpt>
      <trkpt lat="29.23307" lon="-13.50495">
        <ele>21.6</ele>
        <time>2021-07-02 19:22:28</time>
      </trkpt>
      <trkpt lat="29.23302" lon="-13.50496">
        <ele>21.4</ele>
        <time>2021-07-02 19:22:29</time>
      </trkpt>
      <trkpt lat="29.23297" lon="-13.50497">
        <ele>21.4</ele>
        <time>2021-07-02 19:22:30</time>
      </trkpt>
      <trkpt lat="29.23292" lon="-13.50499">
        <ele>21</ele>
        <time>2021-07-02 19:22:31</time>
      </trkpt>
      <trkpt lat="29.23287" lon="-13.505">
        <ele>21</ele>
        <time>2021-07-02 19:22:32</time>
      </trkpt>
      <trkpt lat="29.23281" lon="-13.50501">
        <ele>20.6</ele>
        <time>2021-07-02 19:22:33</time>
      </trkpt>
      <trkpt lat="29.23276" lon="-13.50501">
        <ele>20.4</ele>
        <time>2021-07-02 19:22:34</time>
      </trkpt>
      <trkpt lat="29.2327" lon="-13.50502">
        <ele>20.2</ele>
        <time>2021-07-02 19:22:35</time>
      </trkpt>
      <trkpt lat="29.23265" lon="-13.50502">
        <ele>19.8</ele>
        <time>2021-07-02 19:22:36</time>
      </trkpt>
      <trkpt lat="29.2326" lon="-13.50503">
        <ele>19.4</ele>
        <time>2021-07-02 19:22:37</time>
      </trkpt>
      <trkpt lat="29.23255" lon="-13.50504">
        <ele>19.2</ele>
        <time>2021-07-02 19:22:38</time>
      </trkpt>
      <trkpt lat="29.2325" lon="-13.50504">
        <ele>18.8</ele>
        <time>2021-07-02 19:22:39</time>
      </trkpt>
      <trkpt lat="29.23244" lon="-13.50504">
        <ele>18.6</ele>
        <time>2021-07-02 19:22:40</time>
      </trkpt>
      <trkpt lat="29.23239" lon="-13.50503">
        <ele>18.2</ele>
        <time>2021-07-02 19:22:41</time>
      </trkpt>
      <trkpt lat="29.23234" lon="-13.50501">
        <ele>18</ele>
        <time>2021-07-02 19:22:42</time>
      </trkpt>
      <trkpt lat="29.23229" lon="-13.50498">
        <ele>17.4</ele>
        <time>2021-07-02 19:22:43</time>
      </trkpt>
      <trkpt lat="29.23226" lon="-13.50495">
        <ele>17.2</ele>
        <time>2021-07-02 19:22:44</time>
      </trkpt>
      <trkpt lat="29.23223" lon="-13.50492">
        <ele>16.8</ele>
        <time>2021-07-02 19:22:45</time>
      </trkpt>
      <trkpt lat="29.23219" lon="-13.50488">
        <ele>16.4</ele>
        <time>2021-07-02 19:22:46</time>
      </trkpt>
      <trkpt lat="29.23217" lon="-13.50485">
        <ele>16.2</ele>
        <time>2021-07-02 19:22:47</time>
      </trkpt>
      <trkpt lat="29.23214" lon="-13.50481">
        <ele>15.8</ele>
        <time>2021-07-02 19:22:48</time>
      </trkpt>
      <trkpt lat="29.23213" lon="-13.50476">
        <ele>15.6</ele>
        <time>2021-07-02 19:22:49</time>
      </trkpt>
      <trkpt lat="29.23211" lon="-13.50473">
        <ele>15.4</ele>
        <time>2021-07-02 19:22:50</time>
      </trkpt>
      <trkpt lat="29.23209" lon="-13.5047">
        <ele>15.4</ele>
        <time>2021-07-02 19:22:51</time>
      </trkpt>
      <trkpt lat="29.23207" lon="-13.50467">
        <ele>15</ele>
        <time>2021-07-02 19:22:52</time>
      </trkpt>
      <trkpt lat="29.23206" lon="-13.50464">
        <ele>15</ele>
        <time>2021-07-02 19:22:53</time>
      </trkpt>
      <trkpt lat="29.23204" lon="-13.50461">
        <ele>14.8</ele>
        <time>2021-07-02 19:22:54</time>
      </trkpt>
      <trkpt lat="29.23203" lon="-13.50457">
        <ele>14.4</ele>
        <time>2021-07-02 19:22:55</time>
      </trkpt>
      <trkpt lat="29.23202" lon="-13.50454">
        <ele>14.4</ele>
        <time>2021-07-02 19:22:56</time>
      </trkpt>
      <trkpt lat="29.23203" lon="-13.5045">
        <ele>14.2</ele>
        <time>2021-07-02 19:22:57</time>
      </trkpt>
      <trkpt lat="29.23203" lon="-13.50447">
        <ele>14.2</ele>
        <time>2021-07-02 19:22:58</time>
      </trkpt>
      <trkpt lat="29.23204" lon="-13.50444">
        <ele>13.8</ele>
        <time>2021-07-02 19:22:59</time>
      </trkpt>
      <trkpt lat="29.23205" lon="-13.50442">
        <ele>13.8</ele>
        <time>2021-07-02 19:23:00</time>
      </trkpt>
      <trkpt lat="29.23206" lon="-13.50439">
        <ele>13.8</ele>
        <time>2021-07-02 19:23:01</time>
      </trkpt>
      <trkpt lat="29.23206" lon="-13.50436">
        <ele>13.8</ele>
        <time>2021-07-02 19:23:02</time>
      </trkpt>
      <trkpt lat="29.23206" lon="-13.50433">
        <ele>13.8</ele>
        <time>2021-07-02 19:23:03</time>
      </trkpt>
      <trkpt lat="29.23206" lon="-13.50431">
        <ele>13.6</ele>
        <time>2021-07-02 19:23:04</time>
      </trkpt>
      <trkpt lat="29.23206" lon="-13.50428">
        <ele>13.6</ele>
        <time>2021-07-02 19:23:05</time>
      </trkpt>
      <trkpt lat="29.23205" lon="-13.50426">
        <ele>13.6</ele>
        <time>2021-07-02 19:23:06</time>
      </trkpt>
      <trkpt lat="29.23204" lon="-13.50424">
        <ele>13.6</ele>
        <time>2021-07-02 19:23:07</time>
      </trkpt>
      <trkpt lat="29.23204" lon="-13.50423">
        <ele>13.6</ele>
        <time>2021-07-02 19:23:08</time>
      </trkpt>
      <trkpt lat="29.23204" lon="-13.50423">
        <ele>13.4</ele>
        <time>2021-07-02 19:23:09</time>
      </trkpt>
      <trkpt lat="29.23203" lon="-13.50423">
        <ele>13.4</ele>
        <time>2021-07-02 19:23:10</time>
      </trkpt>
      <trkpt lat="29.23202" lon="-13.50422">
        <ele>13.4</ele>
        <time>2021-07-02 19:23:11</time>
      </trkpt>
      <trkpt lat="29.23201" lon="-13.50422">
        <ele>13.4</ele>
        <time>2021-07-02 19:23:12</time>
      </trkpt>
      <trkpt lat="29.23199" lon="-13.5042">
        <ele>13.2</ele>
        <time>2021-07-02 19:23:13</time>
      </trkpt>
      <trkpt lat="29.23197" lon="-13.50419">
        <ele>13.2</ele>
        <time>2021-07-02 19:23:14</time>
      </trkpt>
      <trkpt lat="29.23195" lon="-13.50417">
        <ele>13.2</ele>
        <time>2021-07-02 19:23:15</time>
      </trkpt>
      <trkpt lat="29.23192" lon="-13.50415">
        <ele>13.2</ele>
        <time>2021-07-02 19:23:16</time>
      </trkpt>
      <trkpt lat="29.23189" lon="-13.50413">
        <ele>13</ele>
        <time>2021-07-02 19:23:17</time>
      </trkpt>
      <trkpt lat="29.23187" lon="-13.50412">
        <ele>13</ele>
        <time>2021-07-02 19:23:18</time>
      </trkpt>
      <trkpt lat="29.23184" lon="-13.50411">
        <ele>13</ele>
        <time>2021-07-02 19:23:19</time>
      </trkpt>
      <trkpt lat="29.23181" lon="-13.5041">
        <ele>13</ele>
        <time>2021-07-02 19:23:20</time>
      </trkpt>
      <trkpt lat="29.23179" lon="-13.50409">
        <ele>13</ele>
        <time>2021-07-02 19:23:21</time>
      </trkpt>
      <trkpt lat="29.23176" lon="-13.50408">
        <ele>13</ele>
        <time>2021-07-02 19:23:22</time>
      </trkpt>
      <trkpt lat="29.23173" lon="-13.50407">
        <ele>12.6</ele>
        <time>2021-07-02 19:23:23</time>
      </trkpt>
      <trkpt lat="29.2317" lon="-13.50406">
        <ele>12.6</ele>
        <time>2021-07-02 19:23:24</time>
      </trkpt>
      <trkpt lat="29.23167" lon="-13.50405">
        <ele>12.4</ele>
        <time>2021-07-02 19:23:25</time>
      </trkpt>
      <trkpt lat="29.23164" lon="-13.50404">
        <ele>12.4</ele>
        <time>2021-07-02 19:23:26</time>
      </trkpt>
      <trkpt lat="29.23161" lon="-13.50403">
        <ele>12.4</ele>
        <time>2021-07-02 19:23:27</time>
      </trkpt>
      <trkpt lat="29.23158" lon="-13.50402">
        <ele>12.2</ele>
        <time>2021-07-02 19:23:28</time>
      </trkpt>
      <trkpt lat="29.23155" lon="-13.50401">
        <ele>12.2</ele>
        <time>2021-07-02 19:23:29</time>
      </trkpt>
      <trkpt lat="29.23152" lon="-13.504">
        <ele>12.2</ele>
        <time>2021-07-02 19:23:30</time>
      </trkpt>
      <trkpt lat="29.23149" lon="-13.50399">
        <ele>12.2</ele>
        <time>2021-07-02 19:23:31</time>
      </trkpt>
      <trkpt lat="29.23146" lon="-13.50398">
        <ele>12.2</ele>
        <time>2021-07-02 19:23:32</time>
      </trkpt>
      <trkpt lat="29.23143" lon="-13.50397">
        <ele>12.2</ele>
        <time>2021-07-02 19:23:33</time>
      </trkpt>
      <trkpt lat="29.23141" lon="-13.50396">
        <ele>12</ele>
        <time>2021-07-02 19:23:34</time>
      </trkpt>
      <trkpt lat="29.2314" lon="-13.50395">
        <ele>12</ele>
        <time>2021-07-02 19:23:35</time>
      </trkpt>
      <trkpt lat="29.2314" lon="-13.50394">
        <ele>12</ele>
        <time>2021-07-02 19:23:36</time>
      </trkpt>
      <trkpt lat="29.23139" lon="-13.50394">
        <ele>12</ele>
        <time>2021-07-02 19:23:37</time>
      </trkpt>
      <trkpt lat="29.2314" lon="-13.50394">
        <ele>12</ele>
        <time>2021-07-02 19:23:38</time>
      </trkpt>
      <trkpt lat="29.2314" lon="-13.50394">
        <ele>12</ele>
        <time>2021-07-02 19:23:39</time>
      </trkpt>
      <trkpt lat="29.23137" lon="-13.50394">
        <ele>12</ele>
        <time>2021-07-02 19:23:40</time>
      </trkpt>
      <trkpt lat="29.23135" lon="-13.50393">
        <ele>12</ele>
        <time>2021-07-02 19:23:41</time>
      </trkpt>
      <trkpt lat="29.23134" lon="-13.50392">
        <ele>12</ele>
        <time>2021-07-02 19:23:47</time>
      </trkpt>
      <trkpt lat="29.23132" lon="-13.50391">
        <ele>12</ele>
        <time>2021-07-02 19:23:48</time>
      </trkpt>
      <trkpt lat="29.23131" lon="-13.50391">
        <ele>12</ele>
        <time>2021-07-02 19:23:49</time>
      </trkpt>
      <trkpt lat="29.23129" lon="-13.50391">
        <ele>12</ele>
        <time>2021-07-02 19:23:50</time>
      </trkpt>
      <trkpt lat="29.23127" lon="-13.5039">
        <ele>12</ele>
        <time>2021-07-02 19:23:51</time>
      </trkpt>
      <trkpt lat="29.23125" lon="-13.5039">
        <ele>11.8</ele>
        <time>2021-07-02 19:23:52</time>
      </trkpt>
      <trkpt lat="29.23123" lon="-13.50389">
        <ele>11.8</ele>
        <time>2021-07-02 19:23:53</time>
      </trkpt>
      <trkpt lat="29.23121" lon="-13.50387">
        <ele>11.8</ele>
        <time>2021-07-02 19:23:54</time>
      </trkpt>
      <trkpt lat="29.23121" lon="-13.50385">
        <ele>11.4</ele>
        <time>2021-07-02 19:23:55</time>
      </trkpt>
      <trkpt lat="29.23121" lon="-13.50384">
        <ele>11.4</ele>
        <time>2021-07-02 19:23:56</time>
      </trkpt>
      <trkpt lat="29.23122" lon="-13.50382">
        <ele>11.4</ele>
        <time>2021-07-02 19:23:57</time>
      </trkpt>
      <trkpt lat="29.23122" lon="-13.50382">
        <ele>11.2</ele>
        <time>2021-07-02 19:23:58</time>
      </trkpt>
      <trkpt lat="29.23123" lon="-13.50376">
        <ele>11.2</ele>
        <time>2021-07-02 19:23:59</time>
      </trkpt>
      <trkpt lat="29.23124" lon="-13.50373">
        <ele>11</ele>
        <time>2021-07-02 19:24:00</time>
      </trkpt>
      <trkpt lat="29.23125" lon="-13.50369">
        <ele>11</ele>
        <time>2021-07-02 19:24:01</time>
      </trkpt>
      <trkpt lat="29.23126" lon="-13.50366">
        <ele>10.8</ele>
        <time>2021-07-02 19:24:02</time>
      </trkpt>
      <trkpt lat="29.23127" lon="-13.50363">
        <ele>10.8</ele>
        <time>2021-07-02 19:24:03</time>
      </trkpt>
      <trkpt lat="29.23128" lon="-13.5036">
        <ele>10.4</ele>
        <time>2021-07-02 19:24:04</time>
      </trkpt>
      <trkpt lat="29.23129" lon="-13.50357">
        <ele>10.4</ele>
        <time>2021-07-02 19:24:05</time>
      </trkpt>
      <trkpt lat="29.23129" lon="-13.50355">
        <ele>10.4</ele>
        <time>2021-07-02 19:24:06</time>
      </trkpt>
      <trkpt lat="29.2313" lon="-13.50352">
        <ele>10.4</ele>
        <time>2021-07-02 19:24:07</time>
      </trkpt>
      <trkpt lat="29.2313" lon="-13.5035">
        <ele>10.4</ele>
        <time>2021-07-02 19:24:08</time>
      </trkpt>
      <trkpt lat="29.23131" lon="-13.50348">
        <ele>10.4</ele>
        <time>2021-07-02 19:24:09</time>
      </trkpt>
      <trkpt lat="29.23132" lon="-13.50346">
        <ele>10.4</ele>
        <time>2021-07-02 19:24:10</time>
      </trkpt>
      <trkpt lat="29.23133" lon="-13.50343">
        <ele>10.4</ele>
        <time>2021-07-02 19:24:11</time>
      </trkpt>
      <trkpt lat="29.23134" lon="-13.50341">
        <ele>10.4</ele>
        <time>2021-07-02 19:24:12</time>
      </trkpt>
      <trkpt lat="29.23135" lon="-13.50339">
        <ele>10.4</ele>
        <time>2021-07-02 19:24:13</time>
      </trkpt>
      <trkpt lat="29.23136" lon="-13.50336">
        <ele>10.2</ele>
        <time>2021-07-02 19:24:14</time>
      </trkpt>
      <trkpt lat="29.23136" lon="-13.50334">
        <ele>10.2</ele>
        <time>2021-07-02 19:24:15</time>
      </trkpt>
      <trkpt lat="29.23137" lon="-13.50331">
        <ele>9.8</ele>
        <time>2021-07-02 19:24:16</time>
      </trkpt>
      <trkpt lat="29.23138" lon="-13.50329">
        <ele>9.8</ele>
        <time>2021-07-02 19:24:17</time>
      </trkpt>
      <trkpt lat="29.23138" lon="-13.50327">
        <ele>9.8</ele>
        <time>2021-07-02 19:24:18</time>
      </trkpt>
      <trkpt lat="29.23139" lon="-13.50324">
        <ele>9.8</ele>
        <time>2021-07-02 19:24:19</time>
      </trkpt>
      <trkpt lat="29.23139" lon="-13.50321">
        <ele>9.8</ele>
        <time>2021-07-02 19:24:20</time>
      </trkpt>
      <trkpt lat="29.23138" lon="-13.50318">
        <ele>9.8</ele>
        <time>2021-07-02 19:24:21</time>
      </trkpt>
      <trkpt lat="29.23135" lon="-13.50316">
        <ele>9.8</ele>
        <time>2021-07-02 19:24:22</time>
      </trkpt>
      <trkpt lat="29.23133" lon="-13.50314">
        <ele>9.6</ele>
        <time>2021-07-02 19:24:23</time>
      </trkpt>
      <trkpt lat="29.2313" lon="-13.50313">
        <ele>9.6</ele>
        <time>2021-07-02 19:24:24</time>
      </trkpt>
      <trkpt lat="29.23127" lon="-13.50313">
        <ele>9.4</ele>
        <time>2021-07-02 19:24:25</time>
      </trkpt>
      <trkpt lat="29.23125" lon="-13.50313">
        <ele>9.4</ele>
        <time>2021-07-02 19:24:26</time>
      </trkpt>
      <trkpt lat="29.23123" lon="-13.50313">
        <ele>9.4</ele>
        <time>2021-07-02 19:24:27</time>
      </trkpt>
      <trkpt lat="29.23122" lon="-13.50314">
        <ele>9.4</ele>
        <time>2021-07-02 19:24:28</time>
      </trkpt>
      <trkpt lat="29.23122" lon="-13.50315">
        <ele>9.4</ele>
        <time>2021-07-02 19:24:29</time>
      </trkpt>
      <trkpt lat="29.23122" lon="-13.50315">
        <ele>8</ele>
        <time>2021-07-02 19:24:30</time>
      </trkpt>
      <trkpt lat="29.23122" lon="-13.50315">
        <ele>8.4</ele>
        <time>2021-07-02 19:24:31</time>
      </trkpt>
      <trkpt lat="29.21932" lon="-13.45244">
        <ele>17.8</ele>
        <time>2021-07-03 12:08:46</time>
      </trkpt>
      <trkpt lat="29.21931" lon="-13.45243">
        <ele>17.8</ele>
        <time>2021-07-03 12:08:47</time>
      </trkpt>
      <trkpt lat="29.2193" lon="-13.45242">
        <ele>17.8</ele>
        <time>2021-07-03 12:08:48</time>
      </trkpt>
      <trkpt lat="29.21928" lon="-13.45242">
        <ele>17.8</ele>
        <time>2021-07-03 12:08:49</time>
      </trkpt>
      <trkpt lat="29.21926" lon="-13.45242">
        <ele>17.6</ele>
        <time>2021-07-03 12:08:50</time>
      </trkpt>
      <trkpt lat="29.21925" lon="-13.45241">
        <ele>17.6</ele>
        <time>2021-07-03 12:08:51</time>
      </trkpt>
      <trkpt lat="29.21922" lon="-13.45241">
        <ele>17.6</ele>
        <time>2021-07-03 12:08:52</time>
      </trkpt>
      <trkpt lat="29.2192" lon="-13.45241">
        <ele>17.6</ele>
        <time>2021-07-03 12:08:53</time>
      </trkpt>
      <trkpt lat="29.21918" lon="-13.45241">
        <ele>17.4</ele>
        <time>2021-07-03 12:08:54</time>
      </trkpt>
      <trkpt lat="29.21915" lon="-13.45241">
        <ele>17.4</ele>
        <time>2021-07-03 12:08:55</time>
      </trkpt>
      <trkpt lat="29.21912" lon="-13.45241">
        <ele>17.2</ele>
        <time>2021-07-03 12:08:56</time>
      </trkpt>
      <trkpt lat="29.2191" lon="-13.45242">
        <ele>17.2</ele>
        <time>2021-07-03 12:08:57</time>
      </trkpt>
      <trkpt lat="29.21908" lon="-13.45243">
        <ele>17.2</ele>
        <time>2021-07-03 12:08:58</time>
      </trkpt>
      <trkpt lat="29.21905" lon="-13.45243">
        <ele>17.2</ele>
        <time>2021-07-03 12:08:59</time>
      </trkpt>
      <trkpt lat="29.21902" lon="-13.45243">
        <ele>17.2</ele>
        <time>2021-07-03 12:09:00</time>
      </trkpt>
      <trkpt lat="29.219" lon="-13.45243">
        <ele>17</ele>
        <time>2021-07-03 12:09:01</time>
      </trkpt>
      <trkpt lat="29.21898" lon="-13.45243">
        <ele>17</ele>
        <time>2021-07-03 12:09:02</time>
      </trkpt>
      <trkpt lat="29.21895" lon="-13.45243">
        <ele>17</ele>
        <time>2021-07-03 12:09:03</time>
      </trkpt>
      <trkpt lat="29.21892" lon="-13.45243">
        <ele>17</ele>
        <time>2021-07-03 12:09:04</time>
      </trkpt>
      <trkpt lat="29.2189" lon="-13.45244">
        <ele>17</ele>
        <time>2021-07-03 12:09:05</time>
      </trkpt>
      <trkpt lat="29.21887" lon="-13.45244">
        <ele>17</ele>
        <time>2021-07-03 12:09:06</time>
      </trkpt>
      <trkpt lat="29.21885" lon="-13.45245">
        <ele>17</ele>
        <time>2021-07-03 12:09:07</time>
      </trkpt>
      <trkpt lat="29.21882" lon="-13.45246">
        <ele>17</ele>
        <time>2021-07-03 12:09:08</time>
      </trkpt>
      <trkpt lat="29.2188" lon="-13.45246">
        <ele>17</ele>
        <time>2021-07-03 12:09:09</time>
      </trkpt>
      <trkpt lat="29.21877" lon="-13.45247">
        <ele>17</ele>
        <time>2021-07-03 12:09:10</time>
      </trkpt>
      <trkpt lat="29.21875" lon="-13.45247">
        <ele>17.2</ele>
        <time>2021-07-03 12:09:11</time>
      </trkpt>
      <trkpt lat="29.21872" lon="-13.45247">
        <ele>17.2</ele>
        <time>2021-07-03 12:09:12</time>
      </trkpt>
      <trkpt lat="29.2187" lon="-13.45247">
        <ele>17.2</ele>
        <time>2021-07-03 12:09:13</time>
      </trkpt>
      <trkpt lat="29.21868" lon="-13.45247">
        <ele>17.4</ele>
        <time>2021-07-03 12:09:14</time>
      </trkpt>
      <trkpt lat="29.21865" lon="-13.45247">
        <ele>17.4</ele>
        <time>2021-07-03 12:09:15</time>
      </trkpt>
      <trkpt lat="29.21863" lon="-13.45247">
        <ele>17.8</ele>
        <time>2021-07-03 12:09:16</time>
      </trkpt>
      <trkpt lat="29.2186" lon="-13.45247">
        <ele>17.8</ele>
        <time>2021-07-03 12:09:17</time>
      </trkpt>
      <trkpt lat="29.21857" lon="-13.45247">
        <ele>17.8</ele>
        <time>2021-07-03 12:09:18</time>
      </trkpt>
      <trkpt lat="29.21854" lon="-13.45247">
        <ele>18</ele>
        <time>2021-07-03 12:09:19</time>
      </trkpt>
      <trkpt lat="29.21851" lon="-13.45248">
        <ele>18</ele>
        <time>2021-07-03 12:09:20</time>
      </trkpt>
      <trkpt lat="29.21848" lon="-13.45248">
        <ele>18</ele>
        <time>2021-07-03 12:09:21</time>
      </trkpt>
      <trkpt lat="29.21845" lon="-13.45248">
        <ele>18</ele>
        <time>2021-07-03 12:09:22</time>
      </trkpt>
      <trkpt lat="29.21842" lon="-13.45248">
        <ele>18.2</ele>
        <time>2021-07-03 12:09:23</time>
      </trkpt>
      <trkpt lat="29.21839" lon="-13.45247">
        <ele>18.4</ele>
        <time>2021-07-03 12:09:24</time>
      </trkpt>
      <trkpt lat="29.21836" lon="-13.45246">
        <ele>18.4</ele>
        <time>2021-07-03 12:09:25</time>
      </trkpt>
      <trkpt lat="29.21833" lon="-13.45245">
        <ele>18.6</ele>
        <time>2021-07-03 12:09:26</time>
      </trkpt>
      <trkpt lat="29.21831" lon="-13.45244">
        <ele>18.6</ele>
        <time>2021-07-03 12:09:27</time>
      </trkpt>
      <trkpt lat="29.21828" lon="-13.45243">
        <ele>18.6</ele>
        <time>2021-07-03 12:09:28</time>
      </trkpt>
      <trkpt lat="29.21825" lon="-13.45241">
        <ele>18.8</ele>
        <time>2021-07-03 12:09:29</time>
      </trkpt>
      <trkpt lat="29.21822" lon="-13.45239">
        <ele>18.8</ele>
        <time>2021-07-03 12:09:30</time>
      </trkpt>
      <trkpt lat="29.21819" lon="-13.45237">
        <ele>19</ele>
        <time>2021-07-03 12:09:31</time>
      </trkpt>
      <trkpt lat="29.21816" lon="-13.45235">
        <ele>19</ele>
        <time>2021-07-03 12:09:32</time>
      </trkpt>
      <trkpt lat="29.21813" lon="-13.45233">
        <ele>19</ele>
        <time>2021-07-03 12:09:33</time>
      </trkpt>
      <trkpt lat="29.21811" lon="-13.45231">
        <ele>19</ele>
        <time>2021-07-03 12:09:34</time>
      </trkpt>
      <trkpt lat="29.21808" lon="-13.45229">
        <ele>19.4</ele>
        <time>2021-07-03 12:09:35</time>
      </trkpt>
      <trkpt lat="29.21805" lon="-13.45226">
        <ele>19.4</ele>
        <time>2021-07-03 12:09:36</time>
      </trkpt>
      <trkpt lat="29.21802" lon="-13.45224">
        <ele>19.4</ele>
        <time>2021-07-03 12:09:37</time>
      </trkpt>
      <trkpt lat="29.21799" lon="-13.45221">
        <ele>19.4</ele>
        <time>2021-07-03 12:09:38</time>
      </trkpt>
      <trkpt lat="29.21796" lon="-13.45218">
        <ele>19.4</ele>
        <time>2021-07-03 12:09:39</time>
      </trkpt>
      <trkpt lat="29.21792" lon="-13.45216">
        <ele>19.4</ele>
        <time>2021-07-03 12:09:40</time>
      </trkpt>
      <trkpt lat="29.21789" lon="-13.45213">
        <ele>19.4</ele>
        <time>2021-07-03 12:09:41</time>
      </trkpt>
      <trkpt lat="29.21786" lon="-13.4521">
        <ele>19.4</ele>
        <time>2021-07-03 12:09:42</time>
      </trkpt>
      <trkpt lat="29.21783" lon="-13.45208">
        <ele>19.4</ele>
        <time>2021-07-03 12:09:43</time>
      </trkpt>
      <trkpt lat="29.2178" lon="-13.45206">
        <ele>19.4</ele>
        <time>2021-07-03 12:09:44</time>
      </trkpt>
      <trkpt lat="29.21777" lon="-13.45203">
        <ele>19.4</ele>
        <time>2021-07-03 12:09:45</time>
      </trkpt>
      <trkpt lat="29.21774" lon="-13.45201">
        <ele>19.4</ele>
        <time>2021-07-03 12:09:46</time>
      </trkpt>
      <trkpt lat="29.21771" lon="-13.45199">
        <ele>19.4</ele>
        <time>2021-07-03 12:09:47</time>
      </trkpt>
      <trkpt lat="29.21768" lon="-13.45197">
        <ele>19.4</ele>
        <time>2021-07-03 12:09:48</time>
      </trkpt>
      <trkpt lat="29.21765" lon="-13.45195">
        <ele>19.4</ele>
        <time>2021-07-03 12:09:49</time>
      </trkpt>
      <trkpt lat="29.21762" lon="-13.45193">
        <ele>19.6</ele>
        <time>2021-07-03 12:09:50</time>
      </trkpt>
      <trkpt lat="29.21759" lon="-13.45191">
        <ele>19.6</ele>
        <time>2021-07-03 12:09:51</time>
      </trkpt>
      <trkpt lat="29.21756" lon="-13.45189">
        <ele>19.6</ele>
        <time>2021-07-03 12:09:52</time>
      </trkpt>
      <trkpt lat="29.21753" lon="-13.45188">
        <ele>19.6</ele>
        <time>2021-07-03 12:09:53</time>
      </trkpt>
      <trkpt lat="29.2175" lon="-13.45186">
        <ele>19.6</ele>
        <time>2021-07-03 12:09:54</time>
      </trkpt>
      <trkpt lat="29.21747" lon="-13.45185">
        <ele>19.6</ele>
        <time>2021-07-03 12:09:55</time>
      </trkpt>
      <trkpt lat="29.21744" lon="-13.45183">
        <ele>19.6</ele>
        <time>2021-07-03 12:09:56</time>
      </trkpt>
      <trkpt lat="29.21741" lon="-13.45182">
        <ele>19.8</ele>
        <time>2021-07-03 12:09:57</time>
      </trkpt>
      <trkpt lat="29.21738" lon="-13.4518">
        <ele>19.8</ele>
        <time>2021-07-03 12:09:58</time>
      </trkpt>
      <trkpt lat="29.21735" lon="-13.45179">
        <ele>20</ele>
        <time>2021-07-03 12:09:59</time>
      </trkpt>
      <trkpt lat="29.21732" lon="-13.45178">
        <ele>20</ele>
        <time>2021-07-03 12:10:00</time>
      </trkpt>
      <trkpt lat="29.21728" lon="-13.45176">
        <ele>20</ele>
        <time>2021-07-03 12:10:01</time>
      </trkpt>
      <trkpt lat="29.21725" lon="-13.45175">
        <ele>20</ele>
        <time>2021-07-03 12:10:02</time>
      </trkpt>
      <trkpt lat="29.21721" lon="-13.45173">
        <ele>20</ele>
        <time>2021-07-03 12:10:03</time>
      </trkpt>
      <trkpt lat="29.21718" lon="-13.45171">
        <ele>20.4</ele>
        <time>2021-07-03 12:10:04</time>
      </trkpt>
      <trkpt lat="29.21714" lon="-13.4517">
        <ele>20.4</ele>
        <time>2021-07-03 12:10:05</time>
      </trkpt>
      <trkpt lat="29.2171" lon="-13.45168">
        <ele>20.4</ele>
        <time>2021-07-03 12:10:06</time>
      </trkpt>
      <trkpt lat="29.21707" lon="-13.45167">
        <ele>20.4</ele>
        <time>2021-07-03 12:10:07</time>
      </trkpt>
      <trkpt lat="29.21703" lon="-13.45165">
        <ele>20.6</ele>
        <time>2021-07-03 12:10:08</time>
      </trkpt>
      <trkpt lat="29.21699" lon="-13.45164">
        <ele>20.6</ele>
        <time>2021-07-03 12:10:09</time>
      </trkpt>
      <trkpt lat="29.21696" lon="-13.45162">
        <ele>20.6</ele>
        <time>2021-07-03 12:10:10</time>
      </trkpt>
      <trkpt lat="29.21692" lon="-13.4516">
        <ele>21</ele>
        <time>2021-07-03 12:10:11</time>
      </trkpt>
      <trkpt lat="29.21689" lon="-13.45159">
        <ele>21</ele>
        <time>2021-07-03 12:10:12</time>
      </trkpt>
      <trkpt lat="29.21685" lon="-13.45157">
        <ele>21</ele>
        <time>2021-07-03 12:10:13</time>
      </trkpt>
      <trkpt lat="29.21681" lon="-13.45156">
        <ele>21</ele>
        <time>2021-07-03 12:10:14</time>
      </trkpt>
      <trkpt lat="29.21678" lon="-13.45154">
        <ele>21.2</ele>
        <time>2021-07-03 12:10:15</time>
      </trkpt>
      <trkpt lat="29.21674" lon="-13.45152">
        <ele>21.2</ele>
        <time>2021-07-03 12:10:16</time>
      </trkpt>
      <trkpt lat="29.21671" lon="-13.4515">
        <ele>21.2</ele>
        <time>2021-07-03 12:10:17</time>
      </trkpt>
      <trkpt lat="29.21667" lon="-13.45149">
        <ele>21.4</ele>
        <time>2021-07-03 12:10:18</time>
      </trkpt>
      <trkpt lat="29.21663" lon="-13.45147">
        <ele>21.4</ele>
        <time>2021-07-03 12:10:19</time>
      </trkpt>
      <trkpt lat="29.21659" lon="-13.45146">
        <ele>21.4</ele>
        <time>2021-07-03 12:10:20</time>
      </trkpt>
      <trkpt lat="29.21656" lon="-13.45144">
        <ele>21.4</ele>
        <time>2021-07-03 12:10:21</time>
      </trkpt>
      <trkpt lat="29.21652" lon="-13.45143">
        <ele>21.8</ele>
        <time>2021-07-03 12:10:22</time>
      </trkpt>
      <trkpt lat="29.21648" lon="-13.45141">
        <ele>21.8</ele>
        <time>2021-07-03 12:10:23</time>
      </trkpt>
      <trkpt lat="29.21644" lon="-13.4514">
        <ele>21.8</ele>
        <time>2021-07-03 12:10:24</time>
      </trkpt>
      <trkpt lat="29.2164" lon="-13.45138">
        <ele>22.2</ele>
        <time>2021-07-03 12:10:25</time>
      </trkpt>
      <trkpt lat="29.21637" lon="-13.45136">
        <ele>22.2</ele>
        <time>2021-07-03 12:10:26</time>
      </trkpt>
      <trkpt lat="29.21633" lon="-13.45134">
        <ele>22.2</ele>
        <time>2021-07-03 12:10:27</time>
      </trkpt>
      <trkpt lat="29.21629" lon="-13.45132">
        <ele>22.2</ele>
        <time>2021-07-03 12:10:28</time>
      </trkpt>
      <trkpt lat="29.21625" lon="-13.45131">
        <ele>22.2</ele>
        <time>2021-07-03 12:10:29</time>
      </trkpt>
      <trkpt lat="29.21622" lon="-13.45129">
        <ele>22.2</ele>
        <time>2021-07-03 12:10:30</time>
      </trkpt>
      <trkpt lat="29.21618" lon="-13.45128">
        <ele>22.4</ele>
        <time>2021-07-03 12:10:31</time>
      </trkpt>
      <trkpt lat="29.21614" lon="-13.45126">
        <ele>22.4</ele>
        <time>2021-07-03 12:10:32</time>
      </trkpt>
      <trkpt lat="29.21611" lon="-13.45124">
        <ele>22</ele>
        <time>2021-07-03 12:10:33</time>
      </trkpt>
      <trkpt lat="29.21607" lon="-13.45122">
        <ele>22.2</ele>
        <time>2021-07-03 12:10:34</time>
      </trkpt>
      <trkpt lat="29.21604" lon="-13.45121">
        <ele>22.2</ele>
        <time>2021-07-03 12:10:35</time>
      </trkpt>
      <trkpt lat="29.21601" lon="-13.45119">
        <ele>22.2</ele>
        <time>2021-07-03 12:10:36</time>
      </trkpt>
      <trkpt lat="29.21597" lon="-13.45118">
        <ele>22.4</ele>
        <time>2021-07-03 12:10:37</time>
      </trkpt>
      <trkpt lat="29.21593" lon="-13.45116">
        <ele>22.4</ele>
        <time>2021-07-03 12:10:38</time>
      </trkpt>
      <trkpt lat="29.2159" lon="-13.45115">
        <ele>22.8</ele>
        <time>2021-07-03 12:10:39</time>
      </trkpt>
      <trkpt lat="29.21586" lon="-13.45113">
        <ele>22.8</ele>
        <time>2021-07-03 12:10:40</time>
      </trkpt>
      <trkpt lat="29.21582" lon="-13.45111">
        <ele>23</ele>
        <time>2021-07-03 12:10:41</time>
      </trkpt>
      <trkpt lat="29.21578" lon="-13.45109">
        <ele>23</ele>
        <time>2021-07-03 12:10:42</time>
      </trkpt>
      <trkpt lat="29.21574" lon="-13.45107">
        <ele>23</ele>
        <time>2021-07-03 12:10:43</time>
      </trkpt>
      <trkpt lat="29.21571" lon="-13.45106">
        <ele>23.2</ele>
        <time>2021-07-03 12:10:44</time>
      </trkpt>
      <trkpt lat="29.21567" lon="-13.45104">
        <ele>23.2</ele>
        <time>2021-07-03 12:10:45</time>
      </trkpt>
      <trkpt lat="29.21563" lon="-13.45102">
        <ele>23.4</ele>
        <time>2021-07-03 12:10:46</time>
      </trkpt>
      <trkpt lat="29.2156" lon="-13.451">
        <ele>23.4</ele>
        <time>2021-07-03 12:10:47</time>
      </trkpt>
      <trkpt lat="29.21556" lon="-13.45098">
        <ele>23.4</ele>
        <time>2021-07-03 12:10:48</time>
      </trkpt>
      <trkpt lat="29.21552" lon="-13.45097">
        <ele>23.8</ele>
        <time>2021-07-03 12:10:49</time>
      </trkpt>
      <trkpt lat="29.21548" lon="-13.45095">
        <ele>23.8</ele>
        <time>2021-07-03 12:10:50</time>
      </trkpt>
      <trkpt lat="29.21544" lon="-13.45093">
        <ele>23.8</ele>
        <time>2021-07-03 12:10:51</time>
      </trkpt>
      <trkpt lat="29.2154" lon="-13.45092">
        <ele>23.8</ele>
        <time>2021-07-03 12:10:52</time>
      </trkpt>
      <trkpt lat="29.21536" lon="-13.4509">
        <ele>23.8</ele>
        <time>2021-07-03 12:10:53</time>
      </trkpt>
      <trkpt lat="29.21532" lon="-13.45089">
        <ele>23.8</ele>
        <time>2021-07-03 12:10:54</time>
      </trkpt>
      <trkpt lat="29.21529" lon="-13.45087">
        <ele>24</ele>
        <time>2021-07-03 12:10:55</time>
      </trkpt>
      <trkpt lat="29.21525" lon="-13.45085">
        <ele>24</ele>
        <time>2021-07-03 12:10:56</time>
      </trkpt>
      <trkpt lat="29.21521" lon="-13.45083">
        <ele>24</ele>
        <time>2021-07-03 12:10:57</time>
      </trkpt>
      <trkpt lat="29.21517" lon="-13.45081">
        <ele>24</ele>
        <time>2021-07-03 12:10:58</time>
      </trkpt>
      <trkpt lat="29.21513" lon="-13.4508">
        <ele>24.4</ele>
        <time>2021-07-03 12:10:59</time>
      </trkpt>
      <trkpt lat="29.21509" lon="-13.45078">
        <ele>24.4</ele>
        <time>2021-07-03 12:11:00</time>
      </trkpt>
      <trkpt lat="29.21505" lon="-13.45076">
        <ele>24.6</ele>
        <time>2021-07-03 12:11:01</time>
      </trkpt>
      <trkpt lat="29.21501" lon="-13.45074">
        <ele>24.6</ele>
        <time>2021-07-03 12:11:02</time>
      </trkpt>
      <trkpt lat="29.21498" lon="-13.45073">
        <ele>24.6</ele>
        <time>2021-07-03 12:11:03</time>
      </trkpt>
      <trkpt lat="29.21494" lon="-13.45071">
        <ele>24.6</ele>
        <time>2021-07-03 12:11:04</time>
      </trkpt>
      <trkpt lat="29.21491" lon="-13.45069">
        <ele>25</ele>
        <time>2021-07-03 12:11:05</time>
      </trkpt>
      <trkpt lat="29.21487" lon="-13.45067">
        <ele>25</ele>
        <time>2021-07-03 12:11:06</time>
      </trkpt>
      <trkpt lat="29.21483" lon="-13.45065">
        <ele>25</ele>
        <time>2021-07-03 12:11:07</time>
      </trkpt>
      <trkpt lat="29.2148" lon="-13.45064">
        <ele>25.2</ele>
        <time>2021-07-03 12:11:08</time>
      </trkpt>
      <trkpt lat="29.21476" lon="-13.45062">
        <ele>25.2</ele>
        <time>2021-07-03 12:11:09</time>
      </trkpt>
      <trkpt lat="29.21472" lon="-13.45061">
        <ele>25.2</ele>
        <time>2021-07-03 12:11:10</time>
      </trkpt>
      <trkpt lat="29.21468" lon="-13.45059">
        <ele>25.2</ele>
        <time>2021-07-03 12:11:11</time>
      </trkpt>
      <trkpt lat="29.21464" lon="-13.45057">
        <ele>25.2</ele>
        <time>2021-07-03 12:11:12</time>
      </trkpt>
      <trkpt lat="29.2146" lon="-13.45056">
        <ele>25.2</ele>
        <time>2021-07-03 12:11:13</time>
      </trkpt>
      <trkpt lat="29.21456" lon="-13.45054">
        <ele>25.2</ele>
        <time>2021-07-03 12:11:14</time>
      </trkpt>
      <trkpt lat="29.21452" lon="-13.45052">
        <ele>25.2</ele>
        <time>2021-07-03 12:11:15</time>
      </trkpt>
      <trkpt lat="29.21448" lon="-13.4505">
        <ele>25.6</ele>
        <time>2021-07-03 12:11:16</time>
      </trkpt>
      <trkpt lat="29.21444" lon="-13.45048">
        <ele>25.6</ele>
        <time>2021-07-03 12:11:17</time>
      </trkpt>
      <trkpt lat="29.2144" lon="-13.45046">
        <ele>25.6</ele>
        <time>2021-07-03 12:11:18</time>
      </trkpt>
      <trkpt lat="29.21437" lon="-13.45045">
        <ele>25.8</ele>
        <time>2021-07-03 12:11:19</time>
      </trkpt>
      <trkpt lat="29.21433" lon="-13.45043">
        <ele>25.8</ele>
        <time>2021-07-03 12:11:20</time>
      </trkpt>
      <trkpt lat="29.21429" lon="-13.45041">
        <ele>25.8</ele>
        <time>2021-07-03 12:11:21</time>
      </trkpt>
      <trkpt lat="29.21425" lon="-13.45039">
        <ele>26</ele>
        <time>2021-07-03 12:11:22</time>
      </trkpt>
      <trkpt lat="29.21421" lon="-13.45037">
        <ele>26</ele>
        <time>2021-07-03 12:11:23</time>
      </trkpt>
      <trkpt lat="29.21417" lon="-13.45036">
        <ele>26</ele>
        <time>2021-07-03 12:11:24</time>
      </trkpt>
      <trkpt lat="29.21413" lon="-13.45034">
        <ele>26.2</ele>
        <time>2021-07-03 12:11:25</time>
      </trkpt>
      <trkpt lat="29.21409" lon="-13.45032">
        <ele>26.2</ele>
        <time>2021-07-03 12:11:26</time>
      </trkpt>
      <trkpt lat="29.21405" lon="-13.4503">
        <ele>26.2</ele>
        <time>2021-07-03 12:11:27</time>
      </trkpt>
      <trkpt lat="29.214" lon="-13.45029">
        <ele>26.4</ele>
        <time>2021-07-03 12:11:28</time>
      </trkpt>
      <trkpt lat="29.21396" lon="-13.45027">
        <ele>26.4</ele>
        <time>2021-07-03 12:11:29</time>
      </trkpt>
      <trkpt lat="29.21393" lon="-13.45026">
        <ele>26.4</ele>
        <time>2021-07-03 12:11:30</time>
      </trkpt>
      <trkpt lat="29.21388" lon="-13.45026">
        <ele>26.4</ele>
        <time>2021-07-03 12:11:31</time>
      </trkpt>
      <trkpt lat="29.21384" lon="-13.45025">
        <ele>26.6</ele>
        <time>2021-07-03 12:11:32</time>
      </trkpt>
      <trkpt lat="29.21381" lon="-13.45025">
        <ele>26.6</ele>
        <time>2021-07-03 12:11:33</time>
      </trkpt>
      <trkpt lat="29.21377" lon="-13.45025">
        <ele>26.6</ele>
        <time>2021-07-03 12:11:34</time>
      </trkpt>
      <trkpt lat="29.21372" lon="-13.45025">
        <ele>27</ele>
        <time>2021-07-03 12:11:35</time>
      </trkpt>
      <trkpt lat="29.21368" lon="-13.45026">
        <ele>27</ele>
        <time>2021-07-03 12:11:36</time>
      </trkpt>
      <trkpt lat="29.21364" lon="-13.45026">
        <ele>27</ele>
        <time>2021-07-03 12:11:37</time>
      </trkpt>
      <trkpt lat="29.21361" lon="-13.45027">
        <ele>27.2</ele>
        <time>2021-07-03 12:11:38</time>
      </trkpt>
      <trkpt lat="29.21357" lon="-13.45028">
        <ele>27.2</ele>
        <time>2021-07-03 12:11:39</time>
      </trkpt>
      <trkpt lat="29.21353" lon="-13.45029">
        <ele>27.4</ele>
        <time>2021-07-03 12:11:40</time>
      </trkpt>
      <trkpt lat="29.21349" lon="-13.4503">
        <ele>27.4</ele>
        <time>2021-07-03 12:11:41</time>
      </trkpt>
      <trkpt lat="29.21346" lon="-13.45031">
        <ele>27.6</ele>
        <time>2021-07-03 12:11:42</time>
      </trkpt>
      <trkpt lat="29.21343" lon="-13.45032">
        <ele>27.8</ele>
        <time>2021-07-03 12:11:43</time>
      </trkpt>
      <trkpt lat="29.21339" lon="-13.45033">
        <ele>27.8</ele>
        <time>2021-07-03 12:11:44</time>
      </trkpt>
      <trkpt lat="29.21336" lon="-13.45034">
        <ele>28.2</ele>
        <time>2021-07-03 12:11:45</time>
      </trkpt>
      <trkpt lat="29.21333" lon="-13.45035">
        <ele>28.4</ele>
        <time>2021-07-03 12:11:46</time>
      </trkpt>
      <trkpt lat="29.21329" lon="-13.45036">
        <ele>28.6</ele>
        <time>2021-07-03 12:11:47</time>
      </trkpt>
      <trkpt lat="29.21326" lon="-13.45037">
        <ele>28.6</ele>
        <time>2021-07-03 12:11:48</time>
      </trkpt>
      <trkpt lat="29.21323" lon="-13.45038">
        <ele>29</ele>
        <time>2021-07-03 12:11:49</time>
      </trkpt>
      <trkpt lat="29.2132" lon="-13.45039">
        <ele>29.4</ele>
        <time>2021-07-03 12:11:50</time>
      </trkpt>
      <trkpt lat="29.21317" lon="-13.4504">
        <ele>29.6</ele>
        <time>2021-07-03 12:11:51</time>
      </trkpt>
      <trkpt lat="29.21314" lon="-13.45041">
        <ele>29.6</ele>
        <time>2021-07-03 12:11:52</time>
      </trkpt>
      <trkpt lat="29.21311" lon="-13.45042">
        <ele>30.2</ele>
        <time>2021-07-03 12:11:53</time>
      </trkpt>
      <trkpt lat="29.21308" lon="-13.45043">
        <ele>30.4</ele>
        <time>2021-07-03 12:11:54</time>
      </trkpt>
      <trkpt lat="29.21305" lon="-13.45044">
        <ele>30.8</ele>
        <time>2021-07-03 12:11:55</time>
      </trkpt>
      <trkpt lat="29.21302" lon="-13.45045">
        <ele>31</ele>
        <time>2021-07-03 12:11:56</time>
      </trkpt>
      <trkpt lat="29.21299" lon="-13.45046">
        <ele>31</ele>
        <time>2021-07-03 12:11:57</time>
      </trkpt>
      <trkpt lat="29.21295" lon="-13.45046">
        <ele>31.4</ele>
        <time>2021-07-03 12:11:58</time>
      </trkpt>
      <trkpt lat="29.21292" lon="-13.45047">
        <ele>31.6</ele>
        <time>2021-07-03 12:11:59</time>
      </trkpt>
      <trkpt lat="29.21289" lon="-13.45048">
        <ele>31.6</ele>
        <time>2021-07-03 12:12:00</time>
      </trkpt>
      <trkpt lat="29.21286" lon="-13.45049">
        <ele>31.8</ele>
        <time>2021-07-03 12:12:01</time>
      </trkpt>
      <trkpt lat="29.21283" lon="-13.45051">
        <ele>32.2</ele>
        <time>2021-07-03 12:12:02</time>
      </trkpt>
      <trkpt lat="29.21279" lon="-13.45052">
        <ele>32.4</ele>
        <time>2021-07-03 12:12:03</time>
      </trkpt>
      <trkpt lat="29.21276" lon="-13.45053">
        <ele>32.4</ele>
        <time>2021-07-03 12:12:04</time>
      </trkpt>
      <trkpt lat="29.21273" lon="-13.45054">
        <ele>32.8</ele>
        <time>2021-07-03 12:12:05</time>
      </trkpt>
      <trkpt lat="29.2127" lon="-13.45055">
        <ele>33</ele>
        <time>2021-07-03 12:12:06</time>
      </trkpt>
      <trkpt lat="29.21266" lon="-13.45056">
        <ele>33</ele>
        <time>2021-07-03 12:12:07</time>
      </trkpt>
      <trkpt lat="29.21263" lon="-13.45057">
        <ele>33.2</ele>
        <time>2021-07-03 12:12:08</time>
      </trkpt>
      <trkpt lat="29.2126" lon="-13.45059">
        <ele>33.4</ele>
        <time>2021-07-03 12:12:09</time>
      </trkpt>
      <trkpt lat="29.21256" lon="-13.4506">
        <ele>33.8</ele>
        <time>2021-07-03 12:12:10</time>
      </trkpt>
      <trkpt lat="29.21253" lon="-13.45061">
        <ele>34</ele>
        <time>2021-07-03 12:12:11</time>
      </trkpt>
      <trkpt lat="29.2125" lon="-13.45062">
        <ele>34.2</ele>
        <time>2021-07-03 12:12:12</time>
      </trkpt>
      <trkpt lat="29.21247" lon="-13.45063">
        <ele>34.2</ele>
        <time>2021-07-03 12:12:13</time>
      </trkpt>
      <trkpt lat="29.21244" lon="-13.45064">
        <ele>34.4</ele>
        <time>2021-07-03 12:12:14</time>
      </trkpt>
      <trkpt lat="29.21241" lon="-13.45065">
        <ele>34.6</ele>
        <time>2021-07-03 12:12:15</time>
      </trkpt>
      <trkpt lat="29.21237" lon="-13.45066">
        <ele>34.8</ele>
        <time>2021-07-03 12:12:16</time>
      </trkpt>
      <trkpt lat="29.21234" lon="-13.45066">
        <ele>34.8</ele>
        <time>2021-07-03 12:12:17</time>
      </trkpt>
      <trkpt lat="29.21231" lon="-13.45067">
        <ele>34.8</ele>
        <time>2021-07-03 12:12:18</time>
      </trkpt>
      <trkpt lat="29.21228" lon="-13.45067">
        <ele>34.8</ele>
        <time>2021-07-03 12:12:19</time>
      </trkpt>
      <trkpt lat="29.21225" lon="-13.45068">
        <ele>35.2</ele>
        <time>2021-07-03 12:12:20</time>
      </trkpt>
      <trkpt lat="29.21222" lon="-13.45068">
        <ele>35.2</ele>
        <time>2021-07-03 12:12:21</time>
      </trkpt>
      <trkpt lat="29.21219" lon="-13.45069">
        <ele>35.2</ele>
        <time>2021-07-03 12:12:22</time>
      </trkpt>
      <trkpt lat="29.21216" lon="-13.4507">
        <ele>35.4</ele>
        <time>2021-07-03 12:12:23</time>
      </trkpt>
      <trkpt lat="29.21212" lon="-13.45071">
        <ele>35.4</ele>
        <time>2021-07-03 12:12:24</time>
      </trkpt>
      <trkpt lat="29.21209" lon="-13.45073">
        <ele>35.4</ele>
        <time>2021-07-03 12:12:25</time>
      </trkpt>
      <trkpt lat="29.21206" lon="-13.45074">
        <ele>35.4</ele>
        <time>2021-07-03 12:12:26</time>
      </trkpt>
      <trkpt lat="29.21202" lon="-13.45075">
        <ele>35.4</ele>
        <time>2021-07-03 12:12:27</time>
      </trkpt>
      <trkpt lat="29.21199" lon="-13.45076">
        <ele>35.4</ele>
        <time>2021-07-03 12:12:28</time>
      </trkpt>
      <trkpt lat="29.21195" lon="-13.45077">
        <ele>35.6</ele>
        <time>2021-07-03 12:12:29</time>
      </trkpt>
      <trkpt lat="29.21192" lon="-13.45078">
        <ele>35.6</ele>
        <time>2021-07-03 12:12:30</time>
      </trkpt>
      <trkpt lat="29.21188" lon="-13.45079">
        <ele>36</ele>
        <time>2021-07-03 12:12:31</time>
      </trkpt>
      <trkpt lat="29.21184" lon="-13.4508">
        <ele>36</ele>
        <time>2021-07-03 12:12:32</time>
      </trkpt>
      <trkpt lat="29.21181" lon="-13.45081">
        <ele>36.2</ele>
        <time>2021-07-03 12:12:33</time>
      </trkpt>
      <trkpt lat="29.21177" lon="-13.45083">
        <ele>36.2</ele>
        <time>2021-07-03 12:12:34</time>
      </trkpt>
      <trkpt lat="29.21173" lon="-13.45084">
        <ele>36.2</ele>
        <time>2021-07-03 12:12:35</time>
      </trkpt>
      <trkpt lat="29.2117" lon="-13.45085">
        <ele>36.4</ele>
        <time>2021-07-03 12:12:36</time>
      </trkpt>
      <trkpt lat="29.21166" lon="-13.45086">
        <ele>36.4</ele>
        <time>2021-07-03 12:12:37</time>
      </trkpt>
      <trkpt lat="29.21162" lon="-13.45087">
        <ele>36.4</ele>
        <time>2021-07-03 12:12:38</time>
      </trkpt>
      <trkpt lat="29.21158" lon="-13.45088">
        <ele>36.4</ele>
        <time>2021-07-03 12:12:39</time>
      </trkpt>
      <trkpt lat="29.21155" lon="-13.45089">
        <ele>36.4</ele>
        <time>2021-07-03 12:12:40</time>
      </trkpt>
      <trkpt lat="29.21151" lon="-13.4509">
        <ele>36.4</ele>
        <time>2021-07-03 12:12:41</time>
      </trkpt>
      <trkpt lat="29.21147" lon="-13.45092">
        <ele>36.8</ele>
        <time>2021-07-03 12:12:42</time>
      </trkpt>
      <trkpt lat="29.21144" lon="-13.45093">
        <ele>36.8</ele>
        <time>2021-07-03 12:12:43</time>
      </trkpt>
      <trkpt lat="29.2114" lon="-13.45094">
        <ele>36.8</ele>
        <time>2021-07-03 12:12:44</time>
      </trkpt>
      <trkpt lat="29.21136" lon="-13.45095">
        <ele>37</ele>
        <time>2021-07-03 12:12:45</time>
      </trkpt>
      <trkpt lat="29.21133" lon="-13.45096">
        <ele>37</ele>
        <time>2021-07-03 12:12:46</time>
      </trkpt>
      <trkpt lat="29.21129" lon="-13.45097">
        <ele>37.2</ele>
        <time>2021-07-03 12:12:47</time>
      </trkpt>
      <trkpt lat="29.21125" lon="-13.45098">
        <ele>37.2</ele>
        <time>2021-07-03 12:12:48</time>
      </trkpt>
      <trkpt lat="29.21121" lon="-13.45099">
        <ele>37.4</ele>
        <time>2021-07-03 12:12:49</time>
      </trkpt>
      <trkpt lat="29.21117" lon="-13.451">
        <ele>37.4</ele>
        <time>2021-07-03 12:12:50</time>
      </trkpt>
      <trkpt lat="29.21113" lon="-13.45101">
        <ele>37.4</ele>
        <time>2021-07-03 12:12:51</time>
      </trkpt>
      <trkpt lat="29.2111" lon="-13.45102">
        <ele>37.6</ele>
        <time>2021-07-03 12:12:52</time>
      </trkpt>
      <trkpt lat="29.21106" lon="-13.45103">
        <ele>38</ele>
        <time>2021-07-03 12:12:53</time>
      </trkpt>
      <trkpt lat="29.21102" lon="-13.45104">
        <ele>38</ele>
        <time>2021-07-03 12:12:54</time>
      </trkpt>
      <trkpt lat="29.21098" lon="-13.45105">
        <ele>38</ele>
        <time>2021-07-03 12:12:55</time>
      </trkpt>
      <trkpt lat="29.21093" lon="-13.45106">
        <ele>38</ele>
        <time>2021-07-03 12:12:56</time>
      </trkpt>
      <trkpt lat="29.2109" lon="-13.45107">
        <ele>38</ele>
        <time>2021-07-03 12:12:57</time>
      </trkpt>
      <trkpt lat="29.21086" lon="-13.45108">
        <ele>38</ele>
        <time>2021-07-03 12:12:58</time>
      </trkpt>
      <trkpt lat="29.21082" lon="-13.45109">
        <ele>38</ele>
        <time>2021-07-03 12:12:59</time>
      </trkpt>
      <trkpt lat="29.21078" lon="-13.45111">
        <ele>38</ele>
        <time>2021-07-03 12:13:00</time>
      </trkpt>
      <trkpt lat="29.21074" lon="-13.45112">
        <ele>38</ele>
        <time>2021-07-03 12:13:01</time>
      </trkpt>
      <trkpt lat="29.2107" lon="-13.45113">
        <ele>38</ele>
        <time>2021-07-03 12:13:02</time>
      </trkpt>
      <trkpt lat="29.21066" lon="-13.45114">
        <ele>38</ele>
        <time>2021-07-03 12:13:03</time>
      </trkpt>
      <trkpt lat="29.21062" lon="-13.45115">
        <ele>38</ele>
        <time>2021-07-03 12:13:04</time>
      </trkpt>
      <trkpt lat="29.21058" lon="-13.45116">
        <ele>38</ele>
        <time>2021-07-03 12:13:05</time>
      </trkpt>
      <trkpt lat="29.21054" lon="-13.45117">
        <ele>38</ele>
        <time>2021-07-03 12:13:06</time>
      </trkpt>
      <trkpt lat="29.2105" lon="-13.45119">
        <ele>38</ele>
        <time>2021-07-03 12:13:07</time>
      </trkpt>
      <trkpt lat="29.21046" lon="-13.4512">
        <ele>38.2</ele>
        <time>2021-07-03 12:13:08</time>
      </trkpt>
      <trkpt lat="29.21043" lon="-13.45121">
        <ele>38.2</ele>
        <time>2021-07-03 12:13:09</time>
      </trkpt>
      <trkpt lat="29.21039" lon="-13.45123">
        <ele>38.2</ele>
        <time>2021-07-03 12:13:10</time>
      </trkpt>
      <trkpt lat="29.21035" lon="-13.45124">
        <ele>38.6</ele>
        <time>2021-07-03 12:13:11</time>
      </trkpt>
      <trkpt lat="29.21031" lon="-13.45125">
        <ele>38.6</ele>
        <time>2021-07-03 12:13:12</time>
      </trkpt>
      <trkpt lat="29.21027" lon="-13.45126">
        <ele>38.6</ele>
        <time>2021-07-03 12:13:13</time>
      </trkpt>
      <trkpt lat="29.21023" lon="-13.45128">
        <ele>38.6</ele>
        <time>2021-07-03 12:13:14</time>
      </trkpt>
      <trkpt lat="29.21019" lon="-13.45129">
        <ele>38.8</ele>
        <time>2021-07-03 12:13:15</time>
      </trkpt>
      <trkpt lat="29.21015" lon="-13.4513">
        <ele>38.8</ele>
        <time>2021-07-03 12:13:16</time>
      </trkpt>
      <trkpt lat="29.21011" lon="-13.45131">
        <ele>38.8</ele>
        <time>2021-07-03 12:13:17</time>
      </trkpt>
      <trkpt lat="29.21008" lon="-13.45132">
        <ele>39</ele>
        <time>2021-07-03 12:13:18</time>
      </trkpt>
      <trkpt lat="29.21004" lon="-13.45133">
        <ele>39</ele>
        <time>2021-07-03 12:13:19</time>
      </trkpt>
      <trkpt lat="29.21" lon="-13.45134">
        <ele>39</ele>
        <time>2021-07-03 12:13:20</time>
      </trkpt>
      <trkpt lat="29.20996" lon="-13.45135">
        <ele>39</ele>
        <time>2021-07-03 12:13:21</time>
      </trkpt>
      <trkpt lat="29.20992" lon="-13.45136">
        <ele>39.2</ele>
        <time>2021-07-03 12:13:22</time>
      </trkpt>
      <trkpt lat="29.20988" lon="-13.45138">
        <ele>39.2</ele>
        <time>2021-07-03 12:13:23</time>
      </trkpt>
      <trkpt lat="29.20984" lon="-13.45139">
        <ele>39.2</ele>
        <time>2021-07-03 12:13:24</time>
      </trkpt>
      <trkpt lat="29.20981" lon="-13.4514">
        <ele>39.2</ele>
        <time>2021-07-03 12:13:25</time>
      </trkpt>
      <trkpt lat="29.20977" lon="-13.45141">
        <ele>39.6</ele>
        <time>2021-07-03 12:13:26</time>
      </trkpt>
      <trkpt lat="29.20973" lon="-13.45142">
        <ele>39.6</ele>
        <time>2021-07-03 12:13:27</time>
      </trkpt>
      <trkpt lat="29.20969" lon="-13.45142">
        <ele>39.6</ele>
        <time>2021-07-03 12:13:28</time>
      </trkpt>
      <trkpt lat="29.20965" lon="-13.45143">
        <ele>39.6</ele>
        <time>2021-07-03 12:13:29</time>
      </trkpt>
      <trkpt lat="29.20961" lon="-13.45144">
        <ele>39.6</ele>
        <time>2021-07-03 12:13:30</time>
      </trkpt>
      <trkpt lat="29.20957" lon="-13.45146">
        <ele>39.6</ele>
        <time>2021-07-03 12:13:31</time>
      </trkpt>
      <trkpt lat="29.20953" lon="-13.45147">
        <ele>40</ele>
        <time>2021-07-03 12:13:32</time>
      </trkpt>
      <trkpt lat="29.20949" lon="-13.45148">
        <ele>40</ele>
        <time>2021-07-03 12:13:33</time>
      </trkpt>
      <trkpt lat="29.20945" lon="-13.45149">
        <ele>40</ele>
        <time>2021-07-03 12:13:34</time>
      </trkpt>
      <trkpt lat="29.20941" lon="-13.4515">
        <ele>40.2</ele>
        <time>2021-07-03 12:13:35</time>
      </trkpt>
      <trkpt lat="29.20937" lon="-13.45151">
        <ele>40.2</ele>
        <time>2021-07-03 12:13:36</time>
      </trkpt>
      <trkpt lat="29.20933" lon="-13.45152">
        <ele>40.4</ele>
        <time>2021-07-03 12:13:37</time>
      </trkpt>
      <trkpt lat="29.2093" lon="-13.45153">
        <ele>40.4</ele>
        <time>2021-07-03 12:13:38</time>
      </trkpt>
      <trkpt lat="29.20926" lon="-13.45154">
        <ele>40.4</ele>
        <time>2021-07-03 12:13:39</time>
      </trkpt>
      <trkpt lat="29.20923" lon="-13.45155">
        <ele>40.6</ele>
        <time>2021-07-03 12:13:40</time>
      </trkpt>
      <trkpt lat="29.20919" lon="-13.45156">
        <ele>40.6</ele>
        <time>2021-07-03 12:13:41</time>
      </trkpt>
      <trkpt lat="29.20915" lon="-13.45157">
        <ele>41</ele>
        <time>2021-07-03 12:13:42</time>
      </trkpt>
      <trkpt lat="29.20912" lon="-13.45159">
        <ele>41</ele>
        <time>2021-07-03 12:13:43</time>
      </trkpt>
      <trkpt lat="29.20908" lon="-13.4516">
        <ele>41.2</ele>
        <time>2021-07-03 12:13:44</time>
      </trkpt>
      <trkpt lat="29.20904" lon="-13.45161">
        <ele>41.2</ele>
        <time>2021-07-03 12:13:45</time>
      </trkpt>
      <trkpt lat="29.20901" lon="-13.45162">
        <ele>41.2</ele>
        <time>2021-07-03 12:13:46</time>
      </trkpt>
      <trkpt lat="29.20897" lon="-13.45163">
        <ele>41.6</ele>
        <time>2021-07-03 12:13:47</time>
      </trkpt>
      <trkpt lat="29.20894" lon="-13.45164">
        <ele>41.6</ele>
        <time>2021-07-03 12:13:48</time>
      </trkpt>
      <trkpt lat="29.2089" lon="-13.45165">
        <ele>41.8</ele>
        <time>2021-07-03 12:13:49</time>
      </trkpt>
      <trkpt lat="29.20886" lon="-13.45165">
        <ele>41.8</ele>
        <time>2021-07-03 12:13:50</time>
      </trkpt>
      <trkpt lat="29.20883" lon="-13.45166">
        <ele>42.2</ele>
        <time>2021-07-03 12:13:51</time>
      </trkpt>
      <trkpt lat="29.20879" lon="-13.45167">
        <ele>42.2</ele>
        <time>2021-07-03 12:13:52</time>
      </trkpt>
      <trkpt lat="29.20876" lon="-13.45168">
        <ele>42.4</ele>
        <time>2021-07-03 12:13:53</time>
      </trkpt>
      <trkpt lat="29.20872" lon="-13.4517">
        <ele>42.4</ele>
        <time>2021-07-03 12:13:54</time>
      </trkpt>
      <trkpt lat="29.20869" lon="-13.45171">
        <ele>42.6</ele>
        <time>2021-07-03 12:13:55</time>
      </trkpt>
      <trkpt lat="29.20866" lon="-13.45172">
        <ele>42.6</ele>
        <time>2021-07-03 12:13:56</time>
      </trkpt>
      <trkpt lat="29.20862" lon="-13.45173">
        <ele>43</ele>
        <time>2021-07-03 12:13:57</time>
      </trkpt>
      <trkpt lat="29.20859" lon="-13.45174">
        <ele>43.2</ele>
        <time>2021-07-03 12:13:58</time>
      </trkpt>
      <trkpt lat="29.20856" lon="-13.45175">
        <ele>43.2</ele>
        <time>2021-07-03 12:13:59</time>
      </trkpt>
      <trkpt lat="29.20852" lon="-13.45176">
        <ele>43.6</ele>
        <time>2021-07-03 12:14:00</time>
      </trkpt>
      <trkpt lat="29.20849" lon="-13.45177">
        <ele>43.6</ele>
        <time>2021-07-03 12:14:01</time>
      </trkpt>
      <trkpt lat="29.20845" lon="-13.45178">
        <ele>43.6</ele>
        <time>2021-07-03 12:14:02</time>
      </trkpt>
      <trkpt lat="29.20842" lon="-13.45178">
        <ele>44</ele>
        <time>2021-07-03 12:14:03</time>
      </trkpt>
      <trkpt lat="29.20838" lon="-13.45179">
        <ele>44</ele>
        <time>2021-07-03 12:14:04</time>
      </trkpt>
      <trkpt lat="29.20835" lon="-13.45179">
        <ele>44.2</ele>
        <time>2021-07-03 12:14:05</time>
      </trkpt>
      <trkpt lat="29.20831" lon="-13.4518">
        <ele>44.2</ele>
        <time>2021-07-03 12:14:06</time>
      </trkpt>
      <trkpt lat="29.20827" lon="-13.4518">
        <ele>44.2</ele>
        <time>2021-07-03 12:14:07</time>
      </trkpt>
      <trkpt lat="29.20823" lon="-13.4518">
        <ele>44.4</ele>
        <time>2021-07-03 12:14:08</time>
      </trkpt>
      <trkpt lat="29.20819" lon="-13.45181">
        <ele>44.4</ele>
        <time>2021-07-03 12:14:09</time>
      </trkpt>
      <trkpt lat="29.20816" lon="-13.45181">
        <ele>44.4</ele>
        <time>2021-07-03 12:14:10</time>
      </trkpt>
      <trkpt lat="29.20812" lon="-13.45181">
        <ele>44.4</ele>
        <time>2021-07-03 12:14:11</time>
      </trkpt>
      <trkpt lat="29.20808" lon="-13.45181">
        <ele>44.4</ele>
        <time>2021-07-03 12:14:12</time>
      </trkpt>
      <trkpt lat="29.20804" lon="-13.45182">
        <ele>44.6</ele>
        <time>2021-07-03 12:14:13</time>
      </trkpt>
      <trkpt lat="29.208" lon="-13.45182">
        <ele>44.6</ele>
        <time>2021-07-03 12:14:14</time>
      </trkpt>
      <trkpt lat="29.20796" lon="-13.45182">
        <ele>44.6</ele>
        <time>2021-07-03 12:14:15</time>
      </trkpt>
      <trkpt lat="29.20793" lon="-13.45181">
        <ele>44.6</ele>
        <time>2021-07-03 12:14:16</time>
      </trkpt>
      <trkpt lat="29.20789" lon="-13.45181">
        <ele>44.6</ele>
        <time>2021-07-03 12:14:17</time>
      </trkpt>
      <trkpt lat="29.20785" lon="-13.45181">
        <ele>44.8</ele>
        <time>2021-07-03 12:14:18</time>
      </trkpt>
      <trkpt lat="29.20781" lon="-13.45181">
        <ele>44.8</ele>
        <time>2021-07-03 12:14:19</time>
      </trkpt>
      <trkpt lat="29.20777" lon="-13.45181">
        <ele>44.8</ele>
        <time>2021-07-03 12:14:20</time>
      </trkpt>
      <trkpt lat="29.20773" lon="-13.45181">
        <ele>44.8</ele>
        <time>2021-07-03 12:14:21</time>
      </trkpt>
      <trkpt lat="29.20769" lon="-13.45181">
        <ele>44.8</ele>
        <time>2021-07-03 12:14:22</time>
      </trkpt>
      <trkpt lat="29.20766" lon="-13.45181">
        <ele>45</ele>
        <time>2021-07-03 12:14:23</time>
      </trkpt>
      <trkpt lat="29.20763" lon="-13.45181">
        <ele>45</ele>
        <time>2021-07-03 12:14:24</time>
      </trkpt>
      <trkpt lat="29.2076" lon="-13.4518">
        <ele>45</ele>
        <time>2021-07-03 12:14:25</time>
      </trkpt>
      <trkpt lat="29.20757" lon="-13.45179">
        <ele>45.2</ele>
        <time>2021-07-03 12:14:26</time>
      </trkpt>
      <trkpt lat="29.20753" lon="-13.45179">
        <ele>45.2</ele>
        <time>2021-07-03 12:14:27</time>
      </trkpt>
      <trkpt lat="29.2075" lon="-13.45179">
        <ele>45.2</ele>
        <time>2021-07-03 12:14:28</time>
      </trkpt>
      <trkpt lat="29.20747" lon="-13.45179">
        <ele>45.2</ele>
        <time>2021-07-03 12:14:29</time>
      </trkpt>
      <trkpt lat="29.20743" lon="-13.45179">
        <ele>45.2</ele>
        <time>2021-07-03 12:14:30</time>
      </trkpt>
      <trkpt lat="29.2074" lon="-13.45179">
        <ele>45.2</ele>
        <time>2021-07-03 12:14:31</time>
      </trkpt>
      <trkpt lat="29.20736" lon="-13.45179">
        <ele>45.2</ele>
        <time>2021-07-03 12:14:32</time>
      </trkpt>
      <trkpt lat="29.20733" lon="-13.45178">
        <ele>45.2</ele>
        <time>2021-07-03 12:14:33</time>
      </trkpt>
      <trkpt lat="29.20729" lon="-13.45178">
        <ele>45.2</ele>
        <time>2021-07-03 12:14:34</time>
      </trkpt>
      <trkpt lat="29.20725" lon="-13.45178">
        <ele>45.2</ele>
        <time>2021-07-03 12:14:35</time>
      </trkpt>
      <trkpt lat="29.20722" lon="-13.45177">
        <ele>45.2</ele>
        <time>2021-07-03 12:14:36</time>
      </trkpt>
      <trkpt lat="29.20718" lon="-13.45177">
        <ele>45.2</ele>
        <time>2021-07-03 12:14:37</time>
      </trkpt>
      <trkpt lat="29.20715" lon="-13.45176">
        <ele>45.2</ele>
        <time>2021-07-03 12:14:38</time>
      </trkpt>
      <trkpt lat="29.20711" lon="-13.45176">
        <ele>45.2</ele>
        <time>2021-07-03 12:14:39</time>
      </trkpt>
      <trkpt lat="29.20707" lon="-13.45175">
        <ele>45.2</ele>
        <time>2021-07-03 12:14:40</time>
      </trkpt>
      <trkpt lat="29.20704" lon="-13.45175">
        <ele>45.2</ele>
        <time>2021-07-03 12:14:41</time>
      </trkpt>
      <trkpt lat="29.207" lon="-13.45175">
        <ele>45.2</ele>
        <time>2021-07-03 12:14:42</time>
      </trkpt>
      <trkpt lat="29.20696" lon="-13.45175">
        <ele>45.6</ele>
        <time>2021-07-03 12:14:43</time>
      </trkpt>
      <trkpt lat="29.20692" lon="-13.45174">
        <ele>45.6</ele>
        <time>2021-07-03 12:14:44</time>
      </trkpt>
      <trkpt lat="29.20689" lon="-13.45174">
        <ele>45.6</ele>
        <time>2021-07-03 12:14:45</time>
      </trkpt>
      <trkpt lat="29.20685" lon="-13.45173">
        <ele>45.8</ele>
        <time>2021-07-03 12:14:46</time>
      </trkpt>
      <trkpt lat="29.20681" lon="-13.45172">
        <ele>45.8</ele>
        <time>2021-07-03 12:14:47</time>
      </trkpt>
      <trkpt lat="29.20678" lon="-13.45172">
        <ele>45.8</ele>
        <time>2021-07-03 12:14:48</time>
      </trkpt>
      <trkpt lat="29.20674" lon="-13.45172">
        <ele>45.8</ele>
        <time>2021-07-03 12:14:49</time>
      </trkpt>
      <trkpt lat="29.2067" lon="-13.45172">
        <ele>45.8</ele>
        <time>2021-07-03 12:14:50</time>
      </trkpt>
      <trkpt lat="29.20667" lon="-13.45171">
        <ele>45.8</ele>
        <time>2021-07-03 12:14:51</time>
      </trkpt>
      <trkpt lat="29.20663" lon="-13.45171">
        <ele>45.8</ele>
        <time>2021-07-03 12:14:52</time>
      </trkpt>
      <trkpt lat="29.2066" lon="-13.45171">
        <ele>45.8</ele>
        <time>2021-07-03 12:14:53</time>
      </trkpt>
      <trkpt lat="29.20656" lon="-13.45171">
        <ele>45.8</ele>
        <time>2021-07-03 12:14:54</time>
      </trkpt>
      <trkpt lat="29.20653" lon="-13.45171">
        <ele>45.8</ele>
        <time>2021-07-03 12:14:55</time>
      </trkpt>
      <trkpt lat="29.20649" lon="-13.4517">
        <ele>45.8</ele>
        <time>2021-07-03 12:14:56</time>
      </trkpt>
      <trkpt lat="29.20645" lon="-13.4517">
        <ele>46</ele>
        <time>2021-07-03 12:14:57</time>
      </trkpt>
      <trkpt lat="29.20641" lon="-13.4517">
        <ele>46</ele>
        <time>2021-07-03 12:14:58</time>
      </trkpt>
      <trkpt lat="29.20638" lon="-13.45169">
        <ele>46</ele>
        <time>2021-07-03 12:14:59</time>
      </trkpt>
      <trkpt lat="29.20634" lon="-13.45169">
        <ele>46</ele>
        <time>2021-07-03 12:15:00</time>
      </trkpt>
      <trkpt lat="29.20631" lon="-13.45168">
        <ele>46.2</ele>
        <time>2021-07-03 12:15:01</time>
      </trkpt>
      <trkpt lat="29.20627" lon="-13.45168">
        <ele>46.2</ele>
        <time>2021-07-03 12:15:02</time>
      </trkpt>
      <trkpt lat="29.20623" lon="-13.45167">
        <ele>46.4</ele>
        <time>2021-07-03 12:15:03</time>
      </trkpt>
      <trkpt lat="29.20619" lon="-13.45167">
        <ele>46.4</ele>
        <time>2021-07-03 12:15:04</time>
      </trkpt>
      <trkpt lat="29.20616" lon="-13.45167">
        <ele>46.4</ele>
        <time>2021-07-03 12:15:05</time>
      </trkpt>
      <trkpt lat="29.20612" lon="-13.45166">
        <ele>46.8</ele>
        <time>2021-07-03 12:15:06</time>
      </trkpt>
      <trkpt lat="29.20608" lon="-13.45166">
        <ele>46.8</ele>
        <time>2021-07-03 12:15:07</time>
      </trkpt>
      <trkpt lat="29.20605" lon="-13.45166">
        <ele>47</ele>
        <time>2021-07-03 12:15:08</time>
      </trkpt>
      <trkpt lat="29.20601" lon="-13.45166">
        <ele>47</ele>
        <time>2021-07-03 12:15:09</time>
      </trkpt>
      <trkpt lat="29.20597" lon="-13.45165">
        <ele>47</ele>
        <time>2021-07-03 12:15:10</time>
      </trkpt>
      <trkpt lat="29.20593" lon="-13.45165">
        <ele>47</ele>
        <time>2021-07-03 12:15:11</time>
      </trkpt>
      <trkpt lat="29.20589" lon="-13.45165">
        <ele>47.2</ele>
        <time>2021-07-03 12:15:12</time>
      </trkpt>
      <trkpt lat="29.20585" lon="-13.45165">
        <ele>47.2</ele>
        <time>2021-07-03 12:15:13</time>
      </trkpt>
      <trkpt lat="29.20582" lon="-13.45164">
        <ele>47.2</ele>
        <time>2021-07-03 12:15:14</time>
      </trkpt>
      <trkpt lat="29.20578" lon="-13.45164">
        <ele>47.4</ele>
        <time>2021-07-03 12:15:15</time>
      </trkpt>
      <trkpt lat="29.20574" lon="-13.45164">
        <ele>47.4</ele>
        <time>2021-07-03 12:15:16</time>
      </trkpt>
      <trkpt lat="29.2057" lon="-13.45163">
        <ele>47.8</ele>
        <time>2021-07-03 12:15:17</time>
      </trkpt>
      <trkpt lat="29.20566" lon="-13.45162">
        <ele>47.8</ele>
        <time>2021-07-03 12:15:18</time>
      </trkpt>
      <trkpt lat="29.20561" lon="-13.45162">
        <ele>47.8</ele>
        <time>2021-07-03 12:15:19</time>
      </trkpt>
      <trkpt lat="29.20558" lon="-13.45162">
        <ele>47.8</ele>
        <time>2021-07-03 12:15:20</time>
      </trkpt>
      <trkpt lat="29.20554" lon="-13.45162">
        <ele>47.8</ele>
        <time>2021-07-03 12:15:21</time>
      </trkpt>
      <trkpt lat="29.2055" lon="-13.45161">
        <ele>47.8</ele>
        <time>2021-07-03 12:15:22</time>
      </trkpt>
      <trkpt lat="29.20546" lon="-13.45161">
        <ele>48</ele>
        <time>2021-07-03 12:15:23</time>
      </trkpt>
      <trkpt lat="29.20542" lon="-13.45161">
        <ele>48</ele>
        <time>2021-07-03 12:15:24</time>
      </trkpt>
      <trkpt lat="29.20538" lon="-13.4516">
        <ele>48</ele>
        <time>2021-07-03 12:15:25</time>
      </trkpt>
      <trkpt lat="29.20534" lon="-13.4516">
        <ele>48.2</ele>
        <time>2021-07-03 12:15:26</time>
      </trkpt>
      <trkpt lat="29.2053" lon="-13.45159">
        <ele>48.2</ele>
        <time>2021-07-03 12:15:27</time>
      </trkpt>
      <trkpt lat="29.20526" lon="-13.45159">
        <ele>48.6</ele>
        <time>2021-07-03 12:15:28</time>
      </trkpt>
      <trkpt lat="29.20522" lon="-13.45158">
        <ele>48.6</ele>
        <time>2021-07-03 12:15:29</time>
      </trkpt>
      <trkpt lat="29.20518" lon="-13.45158">
        <ele>48.8</ele>
        <time>2021-07-03 12:15:30</time>
      </trkpt>
      <trkpt lat="29.20514" lon="-13.45158">
        <ele>48.8</ele>
        <time>2021-07-03 12:15:31</time>
      </trkpt>
      <trkpt lat="29.2051" lon="-13.45157">
        <ele>48.8</ele>
        <time>2021-07-03 12:15:32</time>
      </trkpt>
      <trkpt lat="29.20507" lon="-13.45157">
        <ele>48.8</ele>
        <time>2021-07-03 12:15:33</time>
      </trkpt>
      <trkpt lat="29.20503" lon="-13.45156">
        <ele>48.8</ele>
        <time>2021-07-03 12:15:34</time>
      </trkpt>
      <trkpt lat="29.20499" lon="-13.45156">
        <ele>49.2</ele>
        <time>2021-07-03 12:15:35</time>
      </trkpt>
      <trkpt lat="29.20495" lon="-13.45155">
        <ele>49.2</ele>
        <time>2021-07-03 12:15:36</time>
      </trkpt>
      <trkpt lat="29.20491" lon="-13.45155">
        <ele>49.2</ele>
        <time>2021-07-03 12:15:37</time>
      </trkpt>
      <trkpt lat="29.20487" lon="-13.45155">
        <ele>49.6</ele>
        <time>2021-07-03 12:15:38</time>
      </trkpt>
      <trkpt lat="29.20483" lon="-13.45154">
        <ele>49.6</ele>
        <time>2021-07-03 12:15:39</time>
      </trkpt>
      <trkpt lat="29.2048" lon="-13.45154">
        <ele>49.8</ele>
        <time>2021-07-03 12:15:40</time>
      </trkpt>
      <trkpt lat="29.20476" lon="-13.45154">
        <ele>49.8</ele>
        <time>2021-07-03 12:15:41</time>
      </trkpt>
      <trkpt lat="29.20472" lon="-13.45153">
        <ele>49.8</ele>
        <time>2021-07-03 12:15:42</time>
      </trkpt>
      <trkpt lat="29.20468" lon="-13.45153">
        <ele>49.8</ele>
        <time>2021-07-03 12:15:43</time>
      </trkpt>
      <trkpt lat="29.20464" lon="-13.45152">
        <ele>50.2</ele>
        <time>2021-07-03 12:15:44</time>
      </trkpt>
      <trkpt lat="29.20461" lon="-13.45152">
        <ele>50.2</ele>
        <time>2021-07-03 12:15:45</time>
      </trkpt>
      <trkpt lat="29.20457" lon="-13.45151">
        <ele>50.6</ele>
        <time>2021-07-03 12:15:46</time>
      </trkpt>
      <trkpt lat="29.20453" lon="-13.45151">
        <ele>50.6</ele>
        <time>2021-07-03 12:15:47</time>
      </trkpt>
      <trkpt lat="29.20449" lon="-13.45151">
        <ele>50.6</ele>
        <time>2021-07-03 12:15:48</time>
      </trkpt>
      <trkpt lat="29.20446" lon="-13.4515">
        <ele>50.6</ele>
        <time>2021-07-03 12:15:49</time>
      </trkpt>
      <trkpt lat="29.20442" lon="-13.4515">
        <ele>50.8</ele>
        <time>2021-07-03 12:15:50</time>
      </trkpt>
      <trkpt lat="29.20438" lon="-13.45149">
        <ele>50.8</ele>
        <time>2021-07-03 12:15:51</time>
      </trkpt>
      <trkpt lat="29.20435" lon="-13.45149">
        <ele>50.8</ele>
        <time>2021-07-03 12:15:52</time>
      </trkpt>
      <trkpt lat="29.20431" lon="-13.45149">
        <ele>50.8</ele>
        <time>2021-07-03 12:15:53</time>
      </trkpt>
      <trkpt lat="29.20427" lon="-13.45149">
        <ele>50.8</ele>
        <time>2021-07-03 12:15:54</time>
      </trkpt>
      <trkpt lat="29.20424" lon="-13.45149">
        <ele>51.2</ele>
        <time>2021-07-03 12:15:55</time>
      </trkpt>
      <trkpt lat="29.2042" lon="-13.45149">
        <ele>51.2</ele>
        <time>2021-07-03 12:15:56</time>
      </trkpt>
      <trkpt lat="29.20417" lon="-13.45148">
        <ele>51.4</ele>
        <time>2021-07-03 12:15:57</time>
      </trkpt>
      <trkpt lat="29.20413" lon="-13.45148">
        <ele>51.8</ele>
        <time>2021-07-03 12:15:58</time>
      </trkpt>
      <trkpt lat="29.2041" lon="-13.45149">
        <ele>52</ele>
        <time>2021-07-03 12:15:59</time>
      </trkpt>
      <trkpt lat="29.20407" lon="-13.45149">
        <ele>52</ele>
        <time>2021-07-03 12:16:00</time>
      </trkpt>
      <trkpt lat="29.20403" lon="-13.45149">
        <ele>52.2</ele>
        <time>2021-07-03 12:16:01</time>
      </trkpt>
      <trkpt lat="29.204" lon="-13.45149">
        <ele>52.2</ele>
        <time>2021-07-03 12:16:02</time>
      </trkpt>
      <trkpt lat="29.20397" lon="-13.4515">
        <ele>52.6</ele>
        <time>2021-07-03 12:16:03</time>
      </trkpt>
      <trkpt lat="29.20394" lon="-13.4515">
        <ele>52.6</ele>
        <time>2021-07-03 12:16:04</time>
      </trkpt>
      <trkpt lat="29.20391" lon="-13.4515">
        <ele>52.8</ele>
        <time>2021-07-03 12:16:05</time>
      </trkpt>
      <trkpt lat="29.20388" lon="-13.4515">
        <ele>52.8</ele>
        <time>2021-07-03 12:16:06</time>
      </trkpt>
      <trkpt lat="29.20385" lon="-13.45151">
        <ele>53.2</ele>
        <time>2021-07-03 12:16:07</time>
      </trkpt>
      <trkpt lat="29.20382" lon="-13.45151">
        <ele>53.2</ele>
        <time>2021-07-03 12:16:08</time>
      </trkpt>
      <trkpt lat="29.20379" lon="-13.45152">
        <ele>53.6</ele>
        <time>2021-07-03 12:16:09</time>
      </trkpt>
      <trkpt lat="29.20376" lon="-13.45152">
        <ele>53.6</ele>
        <time>2021-07-03 12:16:10</time>
      </trkpt>
      <trkpt lat="29.20373" lon="-13.45153">
        <ele>53.8</ele>
        <time>2021-07-03 12:16:11</time>
      </trkpt>
      <trkpt lat="29.2037" lon="-13.45153">
        <ele>53.8</ele>
        <time>2021-07-03 12:16:12</time>
      </trkpt>
      <trkpt lat="29.20367" lon="-13.45154">
        <ele>54</ele>
        <time>2021-07-03 12:16:13</time>
      </trkpt>
      <trkpt lat="29.20364" lon="-13.45155">
        <ele>54</ele>
        <time>2021-07-03 12:16:14</time>
      </trkpt>
      <trkpt lat="29.20361" lon="-13.45156">
        <ele>54</ele>
        <time>2021-07-03 12:16:15</time>
      </trkpt>
      <trkpt lat="29.20358" lon="-13.45156">
        <ele>54.2</ele>
        <time>2021-07-03 12:16:16</time>
      </trkpt>
      <trkpt lat="29.20355" lon="-13.45157">
        <ele>54.2</ele>
        <time>2021-07-03 12:16:17</time>
      </trkpt>
      <trkpt lat="29.20352" lon="-13.45157">
        <ele>54.2</ele>
        <time>2021-07-03 12:16:18</time>
      </trkpt>
      <trkpt lat="29.20349" lon="-13.45158">
        <ele>54.8</ele>
        <time>2021-07-03 12:16:19</time>
      </trkpt>
      <trkpt lat="29.20346" lon="-13.45159">
        <ele>54.8</ele>
        <time>2021-07-03 12:16:20</time>
      </trkpt>
      <trkpt lat="29.20343" lon="-13.4516">
        <ele>55</ele>
        <time>2021-07-03 12:16:21</time>
      </trkpt>
      <trkpt lat="29.20341" lon="-13.45161">
        <ele>55</ele>
        <time>2021-07-03 12:16:22</time>
      </trkpt>
      <trkpt lat="29.20338" lon="-13.45163">
        <ele>55</ele>
        <time>2021-07-03 12:16:23</time>
      </trkpt>
      <trkpt lat="29.20334" lon="-13.45164">
        <ele>55.4</ele>
        <time>2021-07-03 12:16:24</time>
      </trkpt>
      <trkpt lat="29.20331" lon="-13.45165">
        <ele>55.4</ele>
        <time>2021-07-03 12:16:25</time>
      </trkpt>
      <trkpt lat="29.20328" lon="-13.45166">
        <ele>55.8</ele>
        <time>2021-07-03 12:16:26</time>
      </trkpt>
      <trkpt lat="29.20325" lon="-13.45167">
        <ele>55.8</ele>
        <time>2021-07-03 12:16:27</time>
      </trkpt>
      <trkpt lat="29.20321" lon="-13.45168">
        <ele>55.8</ele>
        <time>2021-07-03 12:16:28</time>
      </trkpt>
      <trkpt lat="29.20318" lon="-13.45169">
        <ele>56</ele>
        <time>2021-07-03 12:16:29</time>
      </trkpt>
      <trkpt lat="29.20315" lon="-13.4517">
        <ele>56</ele>
        <time>2021-07-03 12:16:30</time>
      </trkpt>
      <trkpt lat="29.20312" lon="-13.45171">
        <ele>56.4</ele>
        <time>2021-07-03 12:16:31</time>
      </trkpt>
      <trkpt lat="29.20308" lon="-13.45172">
        <ele>56.4</ele>
        <time>2021-07-03 12:16:32</time>
      </trkpt>
      <trkpt lat="29.20305" lon="-13.45173">
        <ele>56.4</ele>
        <time>2021-07-03 12:16:33</time>
      </trkpt>
      <trkpt lat="29.20302" lon="-13.45174">
        <ele>56.6</ele>
        <time>2021-07-03 12:16:34</time>
      </trkpt>
      <trkpt lat="29.20299" lon="-13.45175">
        <ele>56.6</ele>
        <time>2021-07-03 12:16:35</time>
      </trkpt>
      <trkpt lat="29.20295" lon="-13.45176">
        <ele>56.8</ele>
        <time>2021-07-03 12:16:36</time>
      </trkpt>
      <trkpt lat="29.20292" lon="-13.45177">
        <ele>56.8</ele>
        <time>2021-07-03 12:16:37</time>
      </trkpt>
      <trkpt lat="29.20289" lon="-13.45178">
        <ele>57</ele>
        <time>2021-07-03 12:16:38</time>
      </trkpt>
      <trkpt lat="29.20286" lon="-13.45179">
        <ele>57</ele>
        <time>2021-07-03 12:16:39</time>
      </trkpt>
      <trkpt lat="29.20282" lon="-13.4518">
        <ele>57</ele>
        <time>2021-07-03 12:16:40</time>
      </trkpt>
      <trkpt lat="29.20279" lon="-13.45182">
        <ele>57</ele>
        <time>2021-07-03 12:16:41</time>
      </trkpt>
      <trkpt lat="29.20276" lon="-13.45183">
        <ele>57</ele>
        <time>2021-07-03 12:16:42</time>
      </trkpt>
      <trkpt lat="29.20273" lon="-13.45184">
        <ele>57.4</ele>
        <time>2021-07-03 12:16:43</time>
      </trkpt>
      <trkpt lat="29.20269" lon="-13.45185">
        <ele>57.4</ele>
        <time>2021-07-03 12:16:44</time>
      </trkpt>
      <trkpt lat="29.20266" lon="-13.45186">
        <ele>57.4</ele>
        <time>2021-07-03 12:16:45</time>
      </trkpt>
      <trkpt lat="29.20263" lon="-13.45186">
        <ele>57.4</ele>
        <time>2021-07-03 12:16:46</time>
      </trkpt>
      <trkpt lat="29.2026" lon="-13.45187">
        <ele>57.4</ele>
        <time>2021-07-03 12:16:47</time>
      </trkpt>
      <trkpt lat="29.20257" lon="-13.45188">
        <ele>57.6</ele>
        <time>2021-07-03 12:16:48</time>
      </trkpt>
      <trkpt lat="29.20254" lon="-13.45189">
        <ele>57.6</ele>
        <time>2021-07-03 12:16:49</time>
      </trkpt>
      <trkpt lat="29.2025" lon="-13.4519">
        <ele>57.6</ele>
        <time>2021-07-03 12:16:50</time>
      </trkpt>
      <trkpt lat="29.20247" lon="-13.45191">
        <ele>57.8</ele>
        <time>2021-07-03 12:16:51</time>
      </trkpt>
      <trkpt lat="29.20244" lon="-13.45192">
        <ele>57.8</ele>
        <time>2021-07-03 12:16:52</time>
      </trkpt>
      <trkpt lat="29.20241" lon="-13.45193">
        <ele>57.8</ele>
        <time>2021-07-03 12:16:53</time>
      </trkpt>
      <trkpt lat="29.20238" lon="-13.45193">
        <ele>58.2</ele>
        <time>2021-07-03 12:16:54</time>
      </trkpt>
      <trkpt lat="29.20234" lon="-13.45194">
        <ele>58.2</ele>
        <time>2021-07-03 12:16:55</time>
      </trkpt>
      <trkpt lat="29.20231" lon="-13.45196">
        <ele>58.2</ele>
        <time>2021-07-03 12:16:56</time>
      </trkpt>
      <trkpt lat="29.20227" lon="-13.45197">
        <ele>58.6</ele>
        <time>2021-07-03 12:16:57</time>
      </trkpt>
      <trkpt lat="29.20224" lon="-13.45198">
        <ele>58.6</ele>
        <time>2021-07-03 12:16:58</time>
      </trkpt>
      <trkpt lat="29.2022" lon="-13.45199">
        <ele>58.6</ele>
        <time>2021-07-03 12:16:59</time>
      </trkpt>
      <trkpt lat="29.20217" lon="-13.452">
        <ele>58.8</ele>
        <time>2021-07-03 12:17:00</time>
      </trkpt>
      <trkpt lat="29.20214" lon="-13.45201">
        <ele>58.8</ele>
        <time>2021-07-03 12:17:01</time>
      </trkpt>
      <trkpt lat="29.2021" lon="-13.45202">
        <ele>59</ele>
        <time>2021-07-03 12:17:02</time>
      </trkpt>
      <trkpt lat="29.20207" lon="-13.45203">
        <ele>59</ele>
        <time>2021-07-03 12:17:03</time>
      </trkpt>
      <trkpt lat="29.20203" lon="-13.45204">
        <ele>59.2</ele>
        <time>2021-07-03 12:17:04</time>
      </trkpt>
      <trkpt lat="29.202" lon="-13.45205">
        <ele>59.6</ele>
        <time>2021-07-03 12:17:05</time>
      </trkpt>
      <trkpt lat="29.20196" lon="-13.45206">
        <ele>59.6</ele>
        <time>2021-07-03 12:17:06</time>
      </trkpt>
      <trkpt lat="29.20193" lon="-13.45207">
        <ele>59.8</ele>
        <time>2021-07-03 12:17:07</time>
      </trkpt>
      <trkpt lat="29.20189" lon="-13.45208">
        <ele>59.8</ele>
        <time>2021-07-03 12:17:08</time>
      </trkpt>
      <trkpt lat="29.20186" lon="-13.45209">
        <ele>59.8</ele>
        <time>2021-07-03 12:17:09</time>
      </trkpt>
      <trkpt lat="29.20183" lon="-13.4521">
        <ele>60.2</ele>
        <time>2021-07-03 12:17:10</time>
      </trkpt>
      <trkpt lat="29.20179" lon="-13.45211">
        <ele>60.2</ele>
        <time>2021-07-03 12:17:11</time>
      </trkpt>
      <trkpt lat="29.20176" lon="-13.45212">
        <ele>60.4</ele>
        <time>2021-07-03 12:17:12</time>
      </trkpt>
      <trkpt lat="29.20173" lon="-13.45213">
        <ele>60.8</ele>
        <time>2021-07-03 12:17:13</time>
      </trkpt>
      <trkpt lat="29.2017" lon="-13.45214">
        <ele>61</ele>
        <time>2021-07-03 12:17:14</time>
      </trkpt>
      <trkpt lat="29.20166" lon="-13.45215">
        <ele>61</ele>
        <time>2021-07-03 12:17:15</time>
      </trkpt>
      <trkpt lat="29.20163" lon="-13.45216">
        <ele>61.4</ele>
        <time>2021-07-03 12:17:16</time>
      </trkpt>
      <trkpt lat="29.2016" lon="-13.45217">
        <ele>61.4</ele>
        <time>2021-07-03 12:17:17</time>
      </trkpt>
      <trkpt lat="29.20157" lon="-13.45218">
        <ele>61.8</ele>
        <time>2021-07-03 12:17:18</time>
      </trkpt>
      <trkpt lat="29.20154" lon="-13.45219">
        <ele>62.2</ele>
        <time>2021-07-03 12:17:19</time>
      </trkpt>
      <trkpt lat="29.20151" lon="-13.4522">
        <ele>62.2</ele>
        <time>2021-07-03 12:17:20</time>
      </trkpt>
      <trkpt lat="29.20148" lon="-13.45221">
        <ele>62.4</ele>
        <time>2021-07-03 12:17:21</time>
      </trkpt>
      <trkpt lat="29.20145" lon="-13.45222">
        <ele>62.4</ele>
        <time>2021-07-03 12:17:22</time>
      </trkpt>
      <trkpt lat="29.20143" lon="-13.45223">
        <ele>62.8</ele>
        <time>2021-07-03 12:17:23</time>
      </trkpt>
      <trkpt lat="29.2014" lon="-13.45224">
        <ele>62.8</ele>
        <time>2021-07-03 12:17:24</time>
      </trkpt>
      <trkpt lat="29.20137" lon="-13.45224">
        <ele>62.8</ele>
        <time>2021-07-03 12:17:25</time>
      </trkpt>
      <trkpt lat="29.20134" lon="-13.45225">
        <ele>63.2</ele>
        <time>2021-07-03 12:17:26</time>
      </trkpt>
      <trkpt lat="29.20131" lon="-13.45226">
        <ele>63.2</ele>
        <time>2021-07-03 12:17:27</time>
      </trkpt>
      <trkpt lat="29.20128" lon="-13.45227">
        <ele>63.4</ele>
        <time>2021-07-03 12:17:28</time>
      </trkpt>
      <trkpt lat="29.20125" lon="-13.45228">
        <ele>63.4</ele>
        <time>2021-07-03 12:17:29</time>
      </trkpt>
      <trkpt lat="29.20122" lon="-13.45228">
        <ele>63.6</ele>
        <time>2021-07-03 12:17:30</time>
      </trkpt>
      <trkpt lat="29.2012" lon="-13.45229">
        <ele>64</ele>
        <time>2021-07-03 12:17:31</time>
      </trkpt>
      <trkpt lat="29.20117" lon="-13.4523">
        <ele>64.2</ele>
        <time>2021-07-03 12:17:32</time>
      </trkpt>
      <trkpt lat="29.20114" lon="-13.45231">
        <ele>64.2</ele>
        <time>2021-07-03 12:17:33</time>
      </trkpt>
      <trkpt lat="29.20112" lon="-13.45232">
        <ele>64.6</ele>
        <time>2021-07-03 12:17:34</time>
      </trkpt>
      <trkpt lat="29.20109" lon="-13.45233">
        <ele>65</ele>
        <time>2021-07-03 12:17:35</time>
      </trkpt>
      <trkpt lat="29.20106" lon="-13.45234">
        <ele>65.2</ele>
        <time>2021-07-03 12:17:36</time>
      </trkpt>
      <trkpt lat="29.20103" lon="-13.45234">
        <ele>65.2</ele>
        <time>2021-07-03 12:17:37</time>
      </trkpt>
      <trkpt lat="29.201" lon="-13.45235">
        <ele>65.8</ele>
        <time>2021-07-03 12:17:38</time>
      </trkpt>
      <trkpt lat="29.20098" lon="-13.45236">
        <ele>65.8</ele>
        <time>2021-07-03 12:17:39</time>
      </trkpt>
      <trkpt lat="29.20095" lon="-13.45237">
        <ele>65.8</ele>
        <time>2021-07-03 12:17:40</time>
      </trkpt>
      <trkpt lat="29.20092" lon="-13.45238">
        <ele>66.2</ele>
        <time>2021-07-03 12:17:41</time>
      </trkpt>
      <trkpt lat="29.20089" lon="-13.45239">
        <ele>66.2</ele>
        <time>2021-07-03 12:17:42</time>
      </trkpt>
      <trkpt lat="29.20086" lon="-13.45239">
        <ele>66.6</ele>
        <time>2021-07-03 12:17:43</time>
      </trkpt>
      <trkpt lat="29.20084" lon="-13.4524">
        <ele>66.6</ele>
        <time>2021-07-03 12:17:44</time>
      </trkpt>
      <trkpt lat="29.20081" lon="-13.45241">
        <ele>66.8</ele>
        <time>2021-07-03 12:17:45</time>
      </trkpt>
      <trkpt lat="29.20079" lon="-13.45242">
        <ele>67.2</ele>
        <time>2021-07-03 12:17:46</time>
      </trkpt>
      <trkpt lat="29.20076" lon="-13.45243">
        <ele>67.2</ele>
        <time>2021-07-03 12:17:47</time>
      </trkpt>
      <trkpt lat="29.20074" lon="-13.45243">
        <ele>67.4</ele>
        <time>2021-07-03 12:17:48</time>
      </trkpt>
      <trkpt lat="29.20072" lon="-13.45244">
        <ele>67.4</ele>
        <time>2021-07-03 12:17:49</time>
      </trkpt>
      <trkpt lat="29.20069" lon="-13.45244">
        <ele>67.8</ele>
        <time>2021-07-03 12:17:50</time>
      </trkpt>
      <trkpt lat="29.20067" lon="-13.45244">
        <ele>67.8</ele>
        <time>2021-07-03 12:17:51</time>
      </trkpt>
      <trkpt lat="29.20065" lon="-13.45244">
        <ele>68</ele>
        <time>2021-07-03 12:17:52</time>
      </trkpt>
      <trkpt lat="29.20062" lon="-13.45244">
        <ele>68.2</ele>
        <time>2021-07-03 12:17:53</time>
      </trkpt>
      <trkpt lat="29.2006" lon="-13.45244">
        <ele>68.6</ele>
        <time>2021-07-03 12:17:54</time>
      </trkpt>
      <trkpt lat="29.20058" lon="-13.45244">
        <ele>68.8</ele>
        <time>2021-07-03 12:17:55</time>
      </trkpt>
      <trkpt lat="29.20055" lon="-13.45244">
        <ele>69</ele>
        <time>2021-07-03 12:17:56</time>
      </trkpt>
      <trkpt lat="29.20053" lon="-13.45244">
        <ele>69.2</ele>
        <time>2021-07-03 12:17:57</time>
      </trkpt>
      <trkpt lat="29.20051" lon="-13.45243">
        <ele>69.4</ele>
        <time>2021-07-03 12:17:58</time>
      </trkpt>
      <trkpt lat="29.20048" lon="-13.45243">
        <ele>69.8</ele>
        <time>2021-07-03 12:17:59</time>
      </trkpt>
      <trkpt lat="29.20046" lon="-13.45242">
        <ele>70.2</ele>
        <time>2021-07-03 12:18:00</time>
      </trkpt>
      <trkpt lat="29.20044" lon="-13.45241">
        <ele>70.6</ele>
        <time>2021-07-03 12:18:01</time>
      </trkpt>
      <trkpt lat="29.20042" lon="-13.4524">
        <ele>70.6</ele>
        <time>2021-07-03 12:18:02</time>
      </trkpt>
      <trkpt lat="29.2004" lon="-13.45239">
        <ele>71</ele>
        <time>2021-07-03 12:18:03</time>
      </trkpt>
      <trkpt lat="29.20038" lon="-13.45238">
        <ele>71</ele>
        <time>2021-07-03 12:18:04</time>
      </trkpt>
      <trkpt lat="29.20035" lon="-13.45236">
        <ele>71.2</ele>
        <time>2021-07-03 12:18:05</time>
      </trkpt>
      <trkpt lat="29.20034" lon="-13.45235">
        <ele>71.2</ele>
        <time>2021-07-03 12:18:06</time>
      </trkpt>
      <trkpt lat="29.20032" lon="-13.45233">
        <ele>71.6</ele>
        <time>2021-07-03 12:18:07</time>
      </trkpt>
      <trkpt lat="29.2003" lon="-13.45231">
        <ele>71.8</ele>
        <time>2021-07-03 12:18:08</time>
      </trkpt>
      <trkpt lat="29.20028" lon="-13.4523">
        <ele>72</ele>
        <time>2021-07-03 12:18:09</time>
      </trkpt>
      <trkpt lat="29.20026" lon="-13.45228">
        <ele>72</ele>
        <time>2021-07-03 12:18:10</time>
      </trkpt>
      <trkpt lat="29.20024" lon="-13.45227">
        <ele>72</ele>
        <time>2021-07-03 12:18:11</time>
      </trkpt>
      <trkpt lat="29.20022" lon="-13.45225">
        <ele>72.6</ele>
        <time>2021-07-03 12:18:12</time>
      </trkpt>
      <trkpt lat="29.2002" lon="-13.45224">
        <ele>71.8</ele>
        <time>2021-07-03 12:18:13</time>
      </trkpt>
      <trkpt lat="29.20018" lon="-13.45222">
        <ele>72.4</ele>
        <time>2021-07-03 12:18:14</time>
      </trkpt>
      <trkpt lat="29.20016" lon="-13.45221">
        <ele>72.8</ele>
        <time>2021-07-03 12:18:15</time>
      </trkpt>
      <trkpt lat="29.20014" lon="-13.4522">
        <ele>73</ele>
        <time>2021-07-03 12:18:16</time>
      </trkpt>
      <trkpt lat="29.20012" lon="-13.45219">
        <ele>73.4</ele>
        <time>2021-07-03 12:18:17</time>
      </trkpt>
      <trkpt lat="29.2001" lon="-13.45217">
        <ele>73.6</ele>
        <time>2021-07-03 12:18:18</time>
      </trkpt>
      <trkpt lat="29.20008" lon="-13.45216">
        <ele>73.6</ele>
        <time>2021-07-03 12:18:19</time>
      </trkpt>
      <trkpt lat="29.20006" lon="-13.45214">
        <ele>74.2</ele>
        <time>2021-07-03 12:18:20</time>
      </trkpt>
      <trkpt lat="29.20004" lon="-13.45213">
        <ele>74.6</ele>
        <time>2021-07-03 12:18:21</time>
      </trkpt>
      <trkpt lat="29.20002" lon="-13.45212">
        <ele>74.8</ele>
        <time>2021-07-03 12:18:22</time>
      </trkpt>
      <trkpt lat="29.2" lon="-13.45211">
        <ele>75.2</ele>
        <time>2021-07-03 12:18:23</time>
      </trkpt>
      <trkpt lat="29.19998" lon="-13.4521">
        <ele>75.6</ele>
        <time>2021-07-03 12:18:24</time>
      </trkpt>
      <trkpt lat="29.19996" lon="-13.45208">
        <ele>75.8</ele>
        <time>2021-07-03 12:18:25</time>
      </trkpt>
      <trkpt lat="29.19995" lon="-13.45207">
        <ele>76</ele>
        <time>2021-07-03 12:18:26</time>
      </trkpt>
      <trkpt lat="29.19993" lon="-13.45206">
        <ele>76.4</ele>
        <time>2021-07-03 12:18:27</time>
      </trkpt>
      <trkpt lat="29.1999" lon="-13.45204">
        <ele>76.8</ele>
        <time>2021-07-03 12:18:28</time>
      </trkpt>
      <trkpt lat="29.19989" lon="-13.45203">
        <ele>76.8</ele>
        <time>2021-07-03 12:18:29</time>
      </trkpt>
      <trkpt lat="29.19987" lon="-13.45201">
        <ele>77.2</ele>
        <time>2021-07-03 12:18:30</time>
      </trkpt>
      <trkpt lat="29.19985" lon="-13.452">
        <ele>77.2</ele>
        <time>2021-07-03 12:18:31</time>
      </trkpt>
      <trkpt lat="29.19983" lon="-13.45198">
        <ele>77.6</ele>
        <time>2021-07-03 12:18:32</time>
      </trkpt>
      <trkpt lat="29.19981" lon="-13.45197">
        <ele>77.8</ele>
        <time>2021-07-03 12:18:33</time>
      </trkpt>
      <trkpt lat="29.19979" lon="-13.45195">
        <ele>77.8</ele>
        <time>2021-07-03 12:18:34</time>
      </trkpt>
      <trkpt lat="29.19977" lon="-13.45194">
        <ele>78.2</ele>
        <time>2021-07-03 12:18:35</time>
      </trkpt>
      <trkpt lat="29.19974" lon="-13.45192">
        <ele>78.4</ele>
        <time>2021-07-03 12:18:36</time>
      </trkpt>
      <trkpt lat="29.19972" lon="-13.45191">
        <ele>78.6</ele>
        <time>2021-07-03 12:18:37</time>
      </trkpt>
      <trkpt lat="29.1997" lon="-13.4519">
        <ele>78.6</ele>
        <time>2021-07-03 12:18:38</time>
      </trkpt>
      <trkpt lat="29.19968" lon="-13.45188">
        <ele>78.8</ele>
        <time>2021-07-03 12:18:39</time>
      </trkpt>
      <trkpt lat="29.19965" lon="-13.45187">
        <ele>79.2</ele>
        <time>2021-07-03 12:18:40</time>
      </trkpt>
      <trkpt lat="29.19963" lon="-13.45185">
        <ele>79.4</ele>
        <time>2021-07-03 12:18:41</time>
      </trkpt>
      <trkpt lat="29.19961" lon="-13.45184">
        <ele>79.4</ele>
        <time>2021-07-03 12:18:42</time>
      </trkpt>
      <trkpt lat="29.19959" lon="-13.45183">
        <ele>79.8</ele>
        <time>2021-07-03 12:18:43</time>
      </trkpt>
      <trkpt lat="29.19956" lon="-13.45182">
        <ele>79.8</ele>
        <time>2021-07-03 12:18:44</time>
      </trkpt>
      <trkpt lat="29.19954" lon="-13.45181">
        <ele>80</ele>
        <time>2021-07-03 12:18:45</time>
      </trkpt>
      <trkpt lat="29.19952" lon="-13.4518">
        <ele>80</ele>
        <time>2021-07-03 12:18:46</time>
      </trkpt>
      <trkpt lat="29.1995" lon="-13.45178">
        <ele>80</ele>
        <time>2021-07-03 12:18:47</time>
      </trkpt>
      <trkpt lat="29.19948" lon="-13.45176">
        <ele>80.2</ele>
        <time>2021-07-03 12:18:48</time>
      </trkpt>
      <trkpt lat="29.19945" lon="-13.45175">
        <ele>80.2</ele>
        <time>2021-07-03 12:18:49</time>
      </trkpt>
      <trkpt lat="29.19943" lon="-13.45174">
        <ele>80.6</ele>
        <time>2021-07-03 12:18:50</time>
      </trkpt>
      <trkpt lat="29.1994" lon="-13.45173">
        <ele>80.6</ele>
        <time>2021-07-03 12:18:51</time>
      </trkpt>
      <trkpt lat="29.19938" lon="-13.45172">
        <ele>80.6</ele>
        <time>2021-07-03 12:18:52</time>
      </trkpt>
      <trkpt lat="29.19935" lon="-13.45171">
        <ele>80.8</ele>
        <time>2021-07-03 12:18:53</time>
      </trkpt>
      <trkpt lat="29.19933" lon="-13.4517">
        <ele>80.8</ele>
        <time>2021-07-03 12:18:54</time>
      </trkpt>
      <trkpt lat="29.19931" lon="-13.45169">
        <ele>80.8</ele>
        <time>2021-07-03 12:18:55</time>
      </trkpt>
      <trkpt lat="29.19928" lon="-13.45168">
        <ele>81</ele>
        <time>2021-07-03 12:18:56</time>
      </trkpt>
      <trkpt lat="29.19926" lon="-13.45167">
        <ele>81.4</ele>
        <time>2021-07-03 12:18:57</time>
      </trkpt>
      <trkpt lat="29.19924" lon="-13.45165">
        <ele>81.4</ele>
        <time>2021-07-03 12:18:58</time>
      </trkpt>
      <trkpt lat="29.19922" lon="-13.45164">
        <ele>81.6</ele>
        <time>2021-07-03 12:18:59</time>
      </trkpt>
      <trkpt lat="29.19919" lon="-13.45163">
        <ele>81.6</ele>
        <time>2021-07-03 12:19:00</time>
      </trkpt>
      <trkpt lat="29.19917" lon="-13.45161">
        <ele>81.6</ele>
        <time>2021-07-03 12:19:01</time>
      </trkpt>
      <trkpt lat="29.19915" lon="-13.4516">
        <ele>82</ele>
        <time>2021-07-03 12:19:02</time>
      </trkpt>
      <trkpt lat="29.19913" lon="-13.45159">
        <ele>82</ele>
        <time>2021-07-03 12:19:03</time>
      </trkpt>
      <trkpt lat="29.1991" lon="-13.45158">
        <ele>82.4</ele>
        <time>2021-07-03 12:19:04</time>
      </trkpt>
      <trkpt lat="29.19908" lon="-13.45157">
        <ele>82.6</ele>
        <time>2021-07-03 12:19:05</time>
      </trkpt>
      <trkpt lat="29.19905" lon="-13.45156">
        <ele>82.6</ele>
        <time>2021-07-03 12:19:06</time>
      </trkpt>
      <trkpt lat="29.19903" lon="-13.45155">
        <ele>83</ele>
        <time>2021-07-03 12:19:07</time>
      </trkpt>
      <trkpt lat="29.19901" lon="-13.45154">
        <ele>83</ele>
        <time>2021-07-03 12:19:08</time>
      </trkpt>
      <trkpt lat="29.19898" lon="-13.45153">
        <ele>83.2</ele>
        <time>2021-07-03 12:19:09</time>
      </trkpt>
      <trkpt lat="29.19896" lon="-13.45152">
        <ele>83.2</ele>
        <time>2021-07-03 12:19:10</time>
      </trkpt>
      <trkpt lat="29.19893" lon="-13.45151">
        <ele>83.4</ele>
        <time>2021-07-03 12:19:11</time>
      </trkpt>
      <trkpt lat="29.19891" lon="-13.4515">
        <ele>83.4</ele>
        <time>2021-07-03 12:19:12</time>
      </trkpt>
      <trkpt lat="29.19888" lon="-13.4515">
        <ele>83.4</ele>
        <time>2021-07-03 12:19:13</time>
      </trkpt>
      <trkpt lat="29.19886" lon="-13.45149">
        <ele>83.8</ele>
        <time>2021-07-03 12:19:14</time>
      </trkpt>
      <trkpt lat="29.19883" lon="-13.45148">
        <ele>84.2</ele>
        <time>2021-07-03 12:19:15</time>
      </trkpt>
      <trkpt lat="29.19881" lon="-13.45147">
        <ele>84.4</ele>
        <time>2021-07-03 12:19:16</time>
      </trkpt>
      <trkpt lat="29.19878" lon="-13.45147">
        <ele>84.6</ele>
        <time>2021-07-03 12:19:17</time>
      </trkpt>
      <trkpt lat="29.19876" lon="-13.45147">
        <ele>84.6</ele>
        <time>2021-07-03 12:19:18</time>
      </trkpt>
      <trkpt lat="29.19873" lon="-13.45147">
        <ele>85</ele>
        <time>2021-07-03 12:19:19</time>
      </trkpt>
      <trkpt lat="29.19871" lon="-13.45146">
        <ele>85.4</ele>
        <time>2021-07-03 12:19:20</time>
      </trkpt>
      <trkpt lat="29.19868" lon="-13.45146">
        <ele>85.6</ele>
        <time>2021-07-03 12:19:21</time>
      </trkpt>
      <trkpt lat="29.19866" lon="-13.45146">
        <ele>85.6</ele>
        <time>2021-07-03 12:19:22</time>
      </trkpt>
      <trkpt lat="29.19863" lon="-13.45147">
        <ele>85.8</ele>
        <time>2021-07-03 12:19:23</time>
      </trkpt>
      <trkpt lat="29.19861" lon="-13.45147">
        <ele>86</ele>
        <time>2021-07-03 12:19:24</time>
      </trkpt>
      <trkpt lat="29.19859" lon="-13.45147">
        <ele>86</ele>
        <time>2021-07-03 12:19:25</time>
      </trkpt>
      <trkpt lat="29.19856" lon="-13.45147">
        <ele>86.4</ele>
        <time>2021-07-03 12:19:26</time>
      </trkpt>
      <trkpt lat="29.19854" lon="-13.45147">
        <ele>86.6</ele>
        <time>2021-07-03 12:19:27</time>
      </trkpt>
      <trkpt lat="29.19851" lon="-13.45147">
        <ele>86.6</ele>
        <time>2021-07-03 12:19:28</time>
      </trkpt>
      <trkpt lat="29.19849" lon="-13.45147">
        <ele>86.6</ele>
        <time>2021-07-03 12:19:29</time>
      </trkpt>
      <trkpt lat="29.19846" lon="-13.45147">
        <ele>87</ele>
        <time>2021-07-03 12:19:30</time>
      </trkpt>
      <trkpt lat="29.19844" lon="-13.45148">
        <ele>87</ele>
        <time>2021-07-03 12:19:31</time>
      </trkpt>
      <trkpt lat="29.19842" lon="-13.45148">
        <ele>87</ele>
        <time>2021-07-03 12:19:32</time>
      </trkpt>
      <trkpt lat="29.1984" lon="-13.45148">
        <ele>87.4</ele>
        <time>2021-07-03 12:19:33</time>
      </trkpt>
      <trkpt lat="29.19838" lon="-13.45148">
        <ele>87.4</ele>
        <time>2021-07-03 12:19:34</time>
      </trkpt>
      <trkpt lat="29.19835" lon="-13.45148">
        <ele>87.8</ele>
        <time>2021-07-03 12:19:35</time>
      </trkpt>
      <trkpt lat="29.19833" lon="-13.45148">
        <ele>88.2</ele>
        <time>2021-07-03 12:19:36</time>
      </trkpt>
      <trkpt lat="29.19831" lon="-13.45149">
        <ele>88.2</ele>
        <time>2021-07-03 12:19:37</time>
      </trkpt>
      <trkpt lat="29.19829" lon="-13.45149">
        <ele>88.6</ele>
        <time>2021-07-03 12:19:38</time>
      </trkpt>
      <trkpt lat="29.19827" lon="-13.45149">
        <ele>88.6</ele>
        <time>2021-07-03 12:19:39</time>
      </trkpt>
      <trkpt lat="29.19824" lon="-13.45149">
        <ele>89</ele>
        <time>2021-07-03 12:19:40</time>
      </trkpt>
      <trkpt lat="29.19822" lon="-13.4515">
        <ele>89</ele>
        <time>2021-07-03 12:19:41</time>
      </trkpt>
      <trkpt lat="29.1982" lon="-13.4515">
        <ele>89.6</ele>
        <time>2021-07-03 12:19:42</time>
      </trkpt>
      <trkpt lat="29.19818" lon="-13.4515">
        <ele>89.6</ele>
        <time>2021-07-03 12:19:43</time>
      </trkpt>
      <trkpt lat="29.19815" lon="-13.45151">
        <ele>89.8</ele>
        <time>2021-07-03 12:19:44</time>
      </trkpt>
      <trkpt lat="29.19813" lon="-13.45151">
        <ele>90.2</ele>
        <time>2021-07-03 12:19:45</time>
      </trkpt>
      <trkpt lat="29.19811" lon="-13.45151">
        <ele>90.4</ele>
        <time>2021-07-03 12:19:46</time>
      </trkpt>
      <trkpt lat="29.19809" lon="-13.45151">
        <ele>90.4</ele>
        <time>2021-07-03 12:19:47</time>
      </trkpt>
      <trkpt lat="29.19807" lon="-13.45151">
        <ele>90.8</ele>
        <time>2021-07-03 12:19:48</time>
      </trkpt>
      <trkpt lat="29.19804" lon="-13.45151">
        <ele>91</ele>
        <time>2021-07-03 12:19:49</time>
      </trkpt>
      <trkpt lat="29.19802" lon="-13.45151">
        <ele>91.2</ele>
        <time>2021-07-03 12:19:50</time>
      </trkpt>
      <trkpt lat="29.198" lon="-13.45151">
        <ele>91.4</ele>
        <time>2021-07-03 12:19:51</time>
      </trkpt>
      <trkpt lat="29.19798" lon="-13.4515">
        <ele>91.8</ele>
        <time>2021-07-03 12:19:52</time>
      </trkpt>
      <trkpt lat="29.19795" lon="-13.4515">
        <ele>91.8</ele>
        <time>2021-07-03 12:19:53</time>
      </trkpt>
      <trkpt lat="29.19793" lon="-13.45151">
        <ele>92.2</ele>
        <time>2021-07-03 12:19:54</time>
      </trkpt>
      <trkpt lat="29.19791" lon="-13.45151">
        <ele>92.6</ele>
        <time>2021-07-03 12:19:55</time>
      </trkpt>
      <trkpt lat="29.19789" lon="-13.45151">
        <ele>92.6</ele>
        <time>2021-07-03 12:19:56</time>
      </trkpt>
      <trkpt lat="29.19787" lon="-13.45152">
        <ele>92.8</ele>
        <time>2021-07-03 12:19:57</time>
      </trkpt>
      <trkpt lat="29.19784" lon="-13.45152">
        <ele>93.2</ele>
        <time>2021-07-03 12:19:58</time>
      </trkpt>
      <trkpt lat="29.19782" lon="-13.45152">
        <ele>93.4</ele>
        <time>2021-07-03 12:19:59</time>
      </trkpt>
      <trkpt lat="29.1978" lon="-13.45152">
        <ele>93.8</ele>
        <time>2021-07-03 12:20:00</time>
      </trkpt>
      <trkpt lat="29.19778" lon="-13.45152">
        <ele>93.8</ele>
        <time>2021-07-03 12:20:01</time>
      </trkpt>
      <trkpt lat="29.19775" lon="-13.45152">
        <ele>94.2</ele>
        <time>2021-07-03 12:20:02</time>
      </trkpt>
      <trkpt lat="29.19773" lon="-13.45152">
        <ele>94.6</ele>
        <time>2021-07-03 12:20:03</time>
      </trkpt>
      <trkpt lat="29.19771" lon="-13.45152">
        <ele>94.6</ele>
        <time>2021-07-03 12:20:04</time>
      </trkpt>
      <trkpt lat="29.19768" lon="-13.45152">
        <ele>94.8</ele>
        <time>2021-07-03 12:20:05</time>
      </trkpt>
      <trkpt lat="29.19766" lon="-13.45152">
        <ele>94.8</ele>
        <time>2021-07-03 12:20:06</time>
      </trkpt>
      <trkpt lat="29.19764" lon="-13.45152">
        <ele>95.2</ele>
        <time>2021-07-03 12:20:07</time>
      </trkpt>
      <trkpt lat="29.19762" lon="-13.45152">
        <ele>95.4</ele>
        <time>2021-07-03 12:20:08</time>
      </trkpt>
      <trkpt lat="29.19759" lon="-13.45153">
        <ele>95.8</ele>
        <time>2021-07-03 12:20:09</time>
      </trkpt>
      <trkpt lat="29.19757" lon="-13.45153">
        <ele>96.2</ele>
        <time>2021-07-03 12:20:10</time>
      </trkpt>
      <trkpt lat="29.19755" lon="-13.45154">
        <ele>96.4</ele>
        <time>2021-07-03 12:20:11</time>
      </trkpt>
      <trkpt lat="29.19753" lon="-13.45154">
        <ele>96.8</ele>
        <time>2021-07-03 12:20:12</time>
      </trkpt>
      <trkpt lat="29.19751" lon="-13.45154">
        <ele>97</ele>
        <time>2021-07-03 12:20:13</time>
      </trkpt>
      <trkpt lat="29.19748" lon="-13.45154">
        <ele>97</ele>
        <time>2021-07-03 12:20:14</time>
      </trkpt>
      <trkpt lat="29.19746" lon="-13.45154">
        <ele>97</ele>
        <time>2021-07-03 12:20:15</time>
      </trkpt>
      <trkpt lat="29.19744" lon="-13.45155">
        <ele>97.4</ele>
        <time>2021-07-03 12:20:16</time>
      </trkpt>
      <trkpt lat="29.19742" lon="-13.45156">
        <ele>97.4</ele>
        <time>2021-07-03 12:20:17</time>
      </trkpt>
      <trkpt lat="29.1974" lon="-13.45157">
        <ele>98</ele>
        <time>2021-07-03 12:20:18</time>
      </trkpt>
      <trkpt lat="29.19738" lon="-13.45158">
        <ele>98.4</ele>
        <time>2021-07-03 12:20:19</time>
      </trkpt>
      <trkpt lat="29.19735" lon="-13.45158">
        <ele>98.8</ele>
        <time>2021-07-03 12:20:20</time>
      </trkpt>
      <trkpt lat="29.19733" lon="-13.45159">
        <ele>99</ele>
        <time>2021-07-03 12:20:21</time>
      </trkpt>
      <trkpt lat="29.19731" lon="-13.4516">
        <ele>99.4</ele>
        <time>2021-07-03 12:20:22</time>
      </trkpt>
      <trkpt lat="29.19729" lon="-13.45161">
        <ele>99.4</ele>
        <time>2021-07-03 12:20:23</time>
      </trkpt>
      <trkpt lat="29.19728" lon="-13.45163">
        <ele>99.8</ele>
        <time>2021-07-03 12:20:24</time>
      </trkpt>
      <trkpt lat="29.19726" lon="-13.45165">
        <ele>100.2</ele>
        <time>2021-07-03 12:20:25</time>
      </trkpt>
      <trkpt lat="29.19725" lon="-13.45167">
        <ele>100.4</ele>
        <time>2021-07-03 12:20:26</time>
      </trkpt>
      <trkpt lat="29.19723" lon="-13.45168">
        <ele>100.8</ele>
        <time>2021-07-03 12:20:27</time>
      </trkpt>
      <trkpt lat="29.19722" lon="-13.4517">
        <ele>101</ele>
        <time>2021-07-03 12:20:28</time>
      </trkpt>
      <trkpt lat="29.19721" lon="-13.45172">
        <ele>101</ele>
        <time>2021-07-03 12:20:29</time>
      </trkpt>
      <trkpt lat="29.1972" lon="-13.45174">
        <ele>101.4</ele>
        <time>2021-07-03 12:20:30</time>
      </trkpt>
      <trkpt lat="29.19719" lon="-13.45177">
        <ele>101.8</ele>
        <time>2021-07-03 12:20:31</time>
      </trkpt>
      <trkpt lat="29.19718" lon="-13.45179">
        <ele>102.2</ele>
        <time>2021-07-03 12:20:32</time>
      </trkpt>
      <trkpt lat="29.19718" lon="-13.45182">
        <ele>102.6</ele>
        <time>2021-07-03 12:20:33</time>
      </trkpt>
      <trkpt lat="29.19718" lon="-13.45184">
        <ele>103</ele>
        <time>2021-07-03 12:20:34</time>
      </trkpt>
      <trkpt lat="29.19718" lon="-13.45187">
        <ele>103.6</ele>
        <time>2021-07-03 12:20:35</time>
      </trkpt>
      <trkpt lat="29.19718" lon="-13.4519">
        <ele>103.6</ele>
        <time>2021-07-03 12:20:36</time>
      </trkpt>
      <trkpt lat="29.19719" lon="-13.45193">
        <ele>104</ele>
        <time>2021-07-03 12:20:37</time>
      </trkpt>
      <trkpt lat="29.1972" lon="-13.45195">
        <ele>104</ele>
        <time>2021-07-03 12:20:38</time>
      </trkpt>
      <trkpt lat="29.19721" lon="-13.45198">
        <ele>104.4</ele>
        <time>2021-07-03 12:20:39</time>
      </trkpt>
      <trkpt lat="29.19722" lon="-13.452">
        <ele>104.4</ele>
        <time>2021-07-03 12:20:40</time>
      </trkpt>
      <trkpt lat="29.19722" lon="-13.45203">
        <ele>104.6</ele>
        <time>2021-07-03 12:20:41</time>
      </trkpt>
      <trkpt lat="29.19723" lon="-13.45206">
        <ele>104.6</ele>
        <time>2021-07-03 12:20:42</time>
      </trkpt>
      <trkpt lat="29.19724" lon="-13.45208">
        <ele>104.6</ele>
        <time>2021-07-03 12:20:43</time>
      </trkpt>
      <trkpt lat="29.19725" lon="-13.4521">
        <ele>105</ele>
        <time>2021-07-03 12:20:44</time>
      </trkpt>
      <trkpt lat="29.19726" lon="-13.45213">
        <ele>105</ele>
        <time>2021-07-03 12:20:45</time>
      </trkpt>
      <trkpt lat="29.19727" lon="-13.45216">
        <ele>105</ele>
        <time>2021-07-03 12:20:46</time>
      </trkpt>
      <trkpt lat="29.19728" lon="-13.45218">
        <ele>105</ele>
        <time>2021-07-03 12:20:47</time>
      </trkpt>
      <trkpt lat="29.19729" lon="-13.45221">
        <ele>105.2</ele>
        <time>2021-07-03 12:20:48</time>
      </trkpt>
      <trkpt lat="29.1973" lon="-13.45223">
        <ele>105.2</ele>
        <time>2021-07-03 12:20:49</time>
      </trkpt>
      <trkpt lat="29.19731" lon="-13.45226">
        <ele>105.4</ele>
        <time>2021-07-03 12:20:50</time>
      </trkpt>
      <trkpt lat="29.19731" lon="-13.45229">
        <ele>105.4</ele>
        <time>2021-07-03 12:20:51</time>
      </trkpt>
      <trkpt lat="29.19732" lon="-13.45231">
        <ele>105.8</ele>
        <time>2021-07-03 12:20:52</time>
      </trkpt>
      <trkpt lat="29.19733" lon="-13.45233">
        <ele>106</ele>
        <time>2021-07-03 12:20:53</time>
      </trkpt>
      <trkpt lat="29.19734" lon="-13.45236">
        <ele>106</ele>
        <time>2021-07-03 12:20:54</time>
      </trkpt>
      <trkpt lat="29.19735" lon="-13.45238">
        <ele>106.4</ele>
        <time>2021-07-03 12:20:55</time>
      </trkpt>
      <trkpt lat="29.19736" lon="-13.4524">
        <ele>106.6</ele>
        <time>2021-07-03 12:20:56</time>
      </trkpt>
      <trkpt lat="29.19737" lon="-13.45243">
        <ele>106.6</ele>
        <time>2021-07-03 12:20:57</time>
      </trkpt>
      <trkpt lat="29.19738" lon="-13.45245">
        <ele>106.6</ele>
        <time>2021-07-03 12:20:58</time>
      </trkpt>
      <trkpt lat="29.19738" lon="-13.45248">
        <ele>107</ele>
        <time>2021-07-03 12:20:59</time>
      </trkpt>
      <trkpt lat="29.19739" lon="-13.4525">
        <ele>107</ele>
        <time>2021-07-03 12:21:00</time>
      </trkpt>
      <trkpt lat="29.1974" lon="-13.45252">
        <ele>107</ele>
        <time>2021-07-03 12:21:01</time>
      </trkpt>
      <trkpt lat="29.19742" lon="-13.45255">
        <ele>107</ele>
        <time>2021-07-03 12:21:02</time>
      </trkpt>
      <trkpt lat="29.19743" lon="-13.45257">
        <ele>107.2</ele>
        <time>2021-07-03 12:21:03</time>
      </trkpt>
      <trkpt lat="29.19744" lon="-13.45259">
        <ele>107.2</ele>
        <time>2021-07-03 12:21:04</time>
      </trkpt>
      <trkpt lat="29.19745" lon="-13.45262">
        <ele>107.2</ele>
        <time>2021-07-03 12:21:05</time>
      </trkpt>
      <trkpt lat="29.19745" lon="-13.45264">
        <ele>107.2</ele>
        <time>2021-07-03 12:21:06</time>
      </trkpt>
      <trkpt lat="29.19746" lon="-13.45266">
        <ele>107.6</ele>
        <time>2021-07-03 12:21:07</time>
      </trkpt>
      <trkpt lat="29.19747" lon="-13.45268">
        <ele>107.8</ele>
        <time>2021-07-03 12:21:08</time>
      </trkpt>
      <trkpt lat="29.19748" lon="-13.4527">
        <ele>107.8</ele>
        <time>2021-07-03 12:21:09</time>
      </trkpt>
      <trkpt lat="29.19748" lon="-13.45273">
        <ele>108.2</ele>
        <time>2021-07-03 12:21:10</time>
      </trkpt>
      <trkpt lat="29.19749" lon="-13.45275">
        <ele>108.6</ele>
        <time>2021-07-03 12:21:11</time>
      </trkpt>
      <trkpt lat="29.1975" lon="-13.45277">
        <ele>108.8</ele>
        <time>2021-07-03 12:21:12</time>
      </trkpt>
      <trkpt lat="29.1975" lon="-13.4528">
        <ele>109.2</ele>
        <time>2021-07-03 12:21:13</time>
      </trkpt>
      <trkpt lat="29.19751" lon="-13.45282">
        <ele>109.4</ele>
        <time>2021-07-03 12:21:14</time>
      </trkpt>
      <trkpt lat="29.19751" lon="-13.45285">
        <ele>109.4</ele>
        <time>2021-07-03 12:21:15</time>
      </trkpt>
      <trkpt lat="29.19752" lon="-13.45287">
        <ele>110</ele>
        <time>2021-07-03 12:21:16</time>
      </trkpt>
      <trkpt lat="29.19752" lon="-13.4529">
        <ele>110.2</ele>
        <time>2021-07-03 12:21:17</time>
      </trkpt>
      <trkpt lat="29.19753" lon="-13.45292">
        <ele>110.4</ele>
        <time>2021-07-03 12:21:18</time>
      </trkpt>
      <trkpt lat="29.19753" lon="-13.45295">
        <ele>110.8</ele>
        <time>2021-07-03 12:21:19</time>
      </trkpt>
      <trkpt lat="29.19754" lon="-13.45298">
        <ele>111</ele>
        <time>2021-07-03 12:21:20</time>
      </trkpt>
      <trkpt lat="29.19754" lon="-13.453">
        <ele>111.2</ele>
        <time>2021-07-03 12:21:21</time>
      </trkpt>
      <trkpt lat="29.19754" lon="-13.45303">
        <ele>111.6</ele>
        <time>2021-07-03 12:21:22</time>
      </trkpt>
      <trkpt lat="29.19755" lon="-13.45305">
        <ele>111.8</ele>
        <time>2021-07-03 12:21:23</time>
      </trkpt>
      <trkpt lat="29.19755" lon="-13.45308">
        <ele>112.2</ele>
        <time>2021-07-03 12:21:24</time>
      </trkpt>
      <trkpt lat="29.19755" lon="-13.4531">
        <ele>112.6</ele>
        <time>2021-07-03 12:21:25</time>
      </trkpt>
      <trkpt lat="29.19755" lon="-13.45313">
        <ele>113</ele>
        <time>2021-07-03 12:21:26</time>
      </trkpt>
      <trkpt lat="29.19754" lon="-13.45315">
        <ele>113.4</ele>
        <time>2021-07-03 12:21:27</time>
      </trkpt>
      <trkpt lat="29.19754" lon="-13.45318">
        <ele>113.6</ele>
        <time>2021-07-03 12:21:28</time>
      </trkpt>
      <trkpt lat="29.19754" lon="-13.4532">
        <ele>113.8</ele>
        <time>2021-07-03 12:21:29</time>
      </trkpt>
      <trkpt lat="29.19753" lon="-13.45323">
        <ele>113.8</ele>
        <time>2021-07-03 12:21:30</time>
      </trkpt>
      <trkpt lat="29.19753" lon="-13.45325">
        <ele>114</ele>
        <time>2021-07-03 12:21:31</time>
      </trkpt>
      <trkpt lat="29.19752" lon="-13.45327">
        <ele>114</ele>
        <time>2021-07-03 12:21:32</time>
      </trkpt>
      <trkpt lat="29.19751" lon="-13.45329">
        <ele>114</ele>
        <time>2021-07-03 12:21:33</time>
      </trkpt>
      <trkpt lat="29.19751" lon="-13.45332">
        <ele>114</ele>
        <time>2021-07-03 12:21:34</time>
      </trkpt>
      <trkpt lat="29.1975" lon="-13.45334">
        <ele>114.4</ele>
        <time>2021-07-03 12:21:35</time>
      </trkpt>
      <trkpt lat="29.19749" lon="-13.45336">
        <ele>114.4</ele>
        <time>2021-07-03 12:21:36</time>
      </trkpt>
      <trkpt lat="29.19748" lon="-13.45339">
        <ele>114.4</ele>
        <time>2021-07-03 12:21:37</time>
      </trkpt>
      <trkpt lat="29.19747" lon="-13.45341">
        <ele>114.8</ele>
        <time>2021-07-03 12:21:38</time>
      </trkpt>
      <trkpt lat="29.19746" lon="-13.45343">
        <ele>114.8</ele>
        <time>2021-07-03 12:21:39</time>
      </trkpt>
      <trkpt lat="29.19744" lon="-13.45346">
        <ele>115.2</ele>
        <time>2021-07-03 12:21:40</time>
      </trkpt>
      <trkpt lat="29.19743" lon="-13.45348">
        <ele>115.2</ele>
        <time>2021-07-03 12:21:41</time>
      </trkpt>
      <trkpt lat="29.19742" lon="-13.4535">
        <ele>115.2</ele>
        <time>2021-07-03 12:21:42</time>
      </trkpt>
      <trkpt lat="29.19741" lon="-13.45353">
        <ele>115.2</ele>
        <time>2021-07-03 12:21:43</time>
      </trkpt>
      <trkpt lat="29.19739" lon="-13.45355">
        <ele>115.4</ele>
        <time>2021-07-03 12:21:44</time>
      </trkpt>
      <trkpt lat="29.19737" lon="-13.45357">
        <ele>115.4</ele>
        <time>2021-07-03 12:21:45</time>
      </trkpt>
      <trkpt lat="29.19735" lon="-13.45359">
        <ele>115.4</ele>
        <time>2021-07-03 12:21:46</time>
      </trkpt>
      <trkpt lat="29.19733" lon="-13.4536">
        <ele>115.6</ele>
        <time>2021-07-03 12:21:47</time>
      </trkpt>
      <trkpt lat="29.19732" lon="-13.45362">
        <ele>115.8</ele>
        <time>2021-07-03 12:21:48</time>
      </trkpt>
      <trkpt lat="29.1973" lon="-13.45364">
        <ele>115.8</ele>
        <time>2021-07-03 12:21:49</time>
      </trkpt>
      <trkpt lat="29.19728" lon="-13.45366">
        <ele>116</ele>
        <time>2021-07-03 12:21:50</time>
      </trkpt>
      <trkpt lat="29.19726" lon="-13.45368">
        <ele>116</ele>
        <time>2021-07-03 12:21:51</time>
      </trkpt>
      <trkpt lat="29.19724" lon="-13.45369">
        <ele>116</ele>
        <time>2021-07-03 12:21:52</time>
      </trkpt>
      <trkpt lat="29.19723" lon="-13.45371">
        <ele>116.4</ele>
        <time>2021-07-03 12:21:53</time>
      </trkpt>
      <trkpt lat="29.19721" lon="-13.45373">
        <ele>116.4</ele>
        <time>2021-07-03 12:21:54</time>
      </trkpt>
      <trkpt lat="29.19719" lon="-13.45374">
        <ele>116.6</ele>
        <time>2021-07-03 12:21:55</time>
      </trkpt>
      <trkpt lat="29.19718" lon="-13.45376">
        <ele>116.6</ele>
        <time>2021-07-03 12:21:56</time>
      </trkpt>
      <trkpt lat="29.19716" lon="-13.45378">
        <ele>116.8</ele>
        <time>2021-07-03 12:21:57</time>
      </trkpt>
      <trkpt lat="29.19715" lon="-13.4538">
        <ele>116.8</ele>
        <time>2021-07-03 12:21:58</time>
      </trkpt>
      <trkpt lat="29.19714" lon="-13.45382">
        <ele>117.2</ele>
        <time>2021-07-03 12:21:59</time>
      </trkpt>
      <trkpt lat="29.19713" lon="-13.45387">
        <ele>117.6</ele>
        <time>2021-07-03 12:22:00</time>
      </trkpt>
      <trkpt lat="29.19712" lon="-13.45389">
        <ele>117.8</ele>
        <time>2021-07-03 12:22:01</time>
      </trkpt>
      <trkpt lat="29.19712" lon="-13.45391">
        <ele>117.8</ele>
        <time>2021-07-03 12:22:02</time>
      </trkpt>
      <trkpt lat="29.19711" lon="-13.45393">
        <ele>118.2</ele>
        <time>2021-07-03 12:22:03</time>
      </trkpt>
      <trkpt lat="29.1971" lon="-13.45395">
        <ele>118.4</ele>
        <time>2021-07-03 12:22:04</time>
      </trkpt>
      <trkpt lat="29.1971" lon="-13.45398">
        <ele>118.4</ele>
        <time>2021-07-03 12:22:05</time>
      </trkpt>
      <trkpt lat="29.19709" lon="-13.454">
        <ele>119</ele>
        <time>2021-07-03 12:22:06</time>
      </trkpt>
      <trkpt lat="29.19708" lon="-13.45402">
        <ele>119.4</ele>
        <time>2021-07-03 12:22:07</time>
      </trkpt>
      <trkpt lat="29.19708" lon="-13.45404">
        <ele>119.4</ele>
        <time>2021-07-03 12:22:08</time>
      </trkpt>
      <trkpt lat="29.19708" lon="-13.45407">
        <ele>119.8</ele>
        <time>2021-07-03 12:22:09</time>
      </trkpt>
      <trkpt lat="29.19708" lon="-13.45409">
        <ele>120</ele>
        <time>2021-07-03 12:22:10</time>
      </trkpt>
      <trkpt lat="29.19708" lon="-13.45411">
        <ele>120</ele>
        <time>2021-07-03 12:22:11</time>
      </trkpt>
      <trkpt lat="29.19707" lon="-13.45413">
        <ele>120.6</ele>
        <time>2021-07-03 12:22:12</time>
      </trkpt>
      <trkpt lat="29.19707" lon="-13.45415">
        <ele>120.6</ele>
        <time>2021-07-03 12:22:13</time>
      </trkpt>
      <trkpt lat="29.19707" lon="-13.45417">
        <ele>121</ele>
        <time>2021-07-03 12:22:14</time>
      </trkpt>
      <trkpt lat="29.19708" lon="-13.45419">
        <ele>121.2</ele>
        <time>2021-07-03 12:22:15</time>
      </trkpt>
      <trkpt lat="29.19708" lon="-13.45421">
        <ele>121.4</ele>
        <time>2021-07-03 12:22:16</time>
      </trkpt>
      <trkpt lat="29.19708" lon="-13.45423">
        <ele>121.8</ele>
        <time>2021-07-03 12:22:17</time>
      </trkpt>
      <trkpt lat="29.19708" lon="-13.45425">
        <ele>121.8</ele>
        <time>2021-07-03 12:22:18</time>
      </trkpt>
      <trkpt lat="29.19708" lon="-13.45427">
        <ele>122</ele>
        <time>2021-07-03 12:22:19</time>
      </trkpt>
      <trkpt lat="29.19709" lon="-13.45429">
        <ele>122</ele>
        <time>2021-07-03 12:22:20</time>
      </trkpt>
      <trkpt lat="29.1971" lon="-13.45431">
        <ele>122.4</ele>
        <time>2021-07-03 12:22:21</time>
      </trkpt>
      <trkpt lat="29.19711" lon="-13.45433">
        <ele>122.6</ele>
        <time>2021-07-03 12:22:22</time>
      </trkpt>
      <trkpt lat="29.19712" lon="-13.45435">
        <ele>122.8</ele>
        <time>2021-07-03 12:22:23</time>
      </trkpt>
      <trkpt lat="29.19713" lon="-13.45437">
        <ele>122.8</ele>
        <time>2021-07-03 12:22:24</time>
      </trkpt>
      <trkpt lat="29.19714" lon="-13.45438">
        <ele>123</ele>
        <time>2021-07-03 12:22:25</time>
      </trkpt>
      <trkpt lat="29.19714" lon="-13.4544">
        <ele>123.4</ele>
        <time>2021-07-03 12:22:26</time>
      </trkpt>
      <trkpt lat="29.19716" lon="-13.45442">
        <ele>123.4</ele>
        <time>2021-07-03 12:22:27</time>
      </trkpt>
      <trkpt lat="29.19717" lon="-13.45443">
        <ele>123.6</ele>
        <time>2021-07-03 12:22:28</time>
      </trkpt>
      <trkpt lat="29.19718" lon="-13.45445">
        <ele>123.8</ele>
        <time>2021-07-03 12:22:29</time>
      </trkpt>
      <trkpt lat="29.19719" lon="-13.45446">
        <ele>124.2</ele>
        <time>2021-07-03 12:22:30</time>
      </trkpt>
      <trkpt lat="29.1972" lon="-13.45447">
        <ele>124.4</ele>
        <time>2021-07-03 12:22:31</time>
      </trkpt>
      <trkpt lat="29.19721" lon="-13.45449">
        <ele>124.4</ele>
        <time>2021-07-03 12:22:32</time>
      </trkpt>
      <trkpt lat="29.19722" lon="-13.4545">
        <ele>124.4</ele>
        <time>2021-07-03 12:22:33</time>
      </trkpt>
      <trkpt lat="29.19724" lon="-13.45451">
        <ele>124.8</ele>
        <time>2021-07-03 12:22:34</time>
      </trkpt>
      <trkpt lat="29.19725" lon="-13.45453">
        <ele>125.2</ele>
        <time>2021-07-03 12:22:35</time>
      </trkpt>
      <trkpt lat="29.19726" lon="-13.45454">
        <ele>125.2</ele>
        <time>2021-07-03 12:22:36</time>
      </trkpt>
      <trkpt lat="29.19728" lon="-13.45456">
        <ele>125.4</ele>
        <time>2021-07-03 12:22:37</time>
      </trkpt>
      <trkpt lat="29.19729" lon="-13.45457">
        <ele>125.4</ele>
        <time>2021-07-03 12:22:38</time>
      </trkpt>
      <trkpt lat="29.19731" lon="-13.45459">
        <ele>125.8</ele>
        <time>2021-07-03 12:22:39</time>
      </trkpt>
      <trkpt lat="29.19733" lon="-13.45461">
        <ele>126.2</ele>
        <time>2021-07-03 12:22:40</time>
      </trkpt>
      <trkpt lat="29.19734" lon="-13.45462">
        <ele>126.6</ele>
        <time>2021-07-03 12:22:41</time>
      </trkpt>
      <trkpt lat="29.19736" lon="-13.45464">
        <ele>126.8</ele>
        <time>2021-07-03 12:22:42</time>
      </trkpt>
      <trkpt lat="29.19738" lon="-13.45466">
        <ele>127</ele>
        <time>2021-07-03 12:22:43</time>
      </trkpt>
      <trkpt lat="29.1974" lon="-13.45468">
        <ele>127.2</ele>
        <time>2021-07-03 12:22:44</time>
      </trkpt>
      <trkpt lat="29.19742" lon="-13.45469">
        <ele>127.4</ele>
        <time>2021-07-03 12:22:45</time>
      </trkpt>
      <trkpt lat="29.19743" lon="-13.45471">
        <ele>127.4</ele>
        <time>2021-07-03 12:22:46</time>
      </trkpt>
      <trkpt lat="29.19745" lon="-13.45473">
        <ele>127.4</ele>
        <time>2021-07-03 12:22:47</time>
      </trkpt>
      <trkpt lat="29.19747" lon="-13.45475">
        <ele>127.4</ele>
        <time>2021-07-03 12:22:48</time>
      </trkpt>
      <trkpt lat="29.19748" lon="-13.45477">
        <ele>127.4</ele>
        <time>2021-07-03 12:22:49</time>
      </trkpt>
      <trkpt lat="29.1975" lon="-13.45479">
        <ele>127.4</ele>
        <time>2021-07-03 12:22:50</time>
      </trkpt>
      <trkpt lat="29.19751" lon="-13.45482">
        <ele>127.8</ele>
        <time>2021-07-03 12:22:51</time>
      </trkpt>
      <trkpt lat="29.19752" lon="-13.45484">
        <ele>127.8</ele>
        <time>2021-07-03 12:22:52</time>
      </trkpt>
      <trkpt lat="29.19754" lon="-13.45486">
        <ele>128.2</ele>
        <time>2021-07-03 12:22:53</time>
      </trkpt>
      <trkpt lat="29.19755" lon="-13.45488">
        <ele>128.4</ele>
        <time>2021-07-03 12:22:54</time>
      </trkpt>
      <trkpt lat="29.19757" lon="-13.4549">
        <ele>128.8</ele>
        <time>2021-07-03 12:22:55</time>
      </trkpt>
      <trkpt lat="29.19758" lon="-13.45493">
        <ele>129.2</ele>
        <time>2021-07-03 12:22:56</time>
      </trkpt>
      <trkpt lat="29.19759" lon="-13.45495">
        <ele>129.2</ele>
        <time>2021-07-03 12:22:57</time>
      </trkpt>
      <trkpt lat="29.1976" lon="-13.45497">
        <ele>129.8</ele>
        <time>2021-07-03 12:22:58</time>
      </trkpt>
      <trkpt lat="29.19762" lon="-13.45502">
        <ele>130</ele>
        <time>2021-07-03 12:22:59</time>
      </trkpt>
      <trkpt lat="29.19762" lon="-13.45504">
        <ele>130.6</ele>
        <time>2021-07-03 12:23:00</time>
      </trkpt>
      <trkpt lat="29.19763" lon="-13.45507">
        <ele>130.6</ele>
        <time>2021-07-03 12:23:01</time>
      </trkpt>
      <trkpt lat="29.19764" lon="-13.45509">
        <ele>130.6</ele>
        <time>2021-07-03 12:23:02</time>
      </trkpt>
      <trkpt lat="29.19765" lon="-13.45511">
        <ele>131</ele>
        <time>2021-07-03 12:23:03</time>
      </trkpt>
      <trkpt lat="29.19766" lon="-13.45514">
        <ele>131.4</ele>
        <time>2021-07-03 12:23:04</time>
      </trkpt>
      <trkpt lat="29.19766" lon="-13.45517">
        <ele>131.8</ele>
        <time>2021-07-03 12:23:05</time>
      </trkpt>
      <trkpt lat="29.19766" lon="-13.45519">
        <ele>131.8</ele>
        <time>2021-07-03 12:23:06</time>
      </trkpt>
      <trkpt lat="29.19766" lon="-13.45522">
        <ele>132</ele>
        <time>2021-07-03 12:23:07</time>
      </trkpt>
      <trkpt lat="29.19767" lon="-13.45525">
        <ele>132</ele>
        <time>2021-07-03 12:23:08</time>
      </trkpt>
      <trkpt lat="29.19767" lon="-13.45527">
        <ele>132.4</ele>
        <time>2021-07-03 12:23:09</time>
      </trkpt>
      <trkpt lat="29.19767" lon="-13.4553">
        <ele>132.8</ele>
        <time>2021-07-03 12:23:10</time>
      </trkpt>
      <trkpt lat="29.19768" lon="-13.45532">
        <ele>132.8</ele>
        <time>2021-07-03 12:23:11</time>
      </trkpt>
      <trkpt lat="29.19768" lon="-13.45535">
        <ele>132.8</ele>
        <time>2021-07-03 12:23:12</time>
      </trkpt>
      <trkpt lat="29.19768" lon="-13.45538">
        <ele>132.4</ele>
        <time>2021-07-03 12:23:13</time>
      </trkpt>
      <trkpt lat="29.19768" lon="-13.4554">
        <ele>133</ele>
        <time>2021-07-03 12:23:14</time>
      </trkpt>
      <trkpt lat="29.19768" lon="-13.45543">
        <ele>133.4</ele>
        <time>2021-07-03 12:23:15</time>
      </trkpt>
      <trkpt lat="29.19768" lon="-13.45546">
        <ele>133.8</ele>
        <time>2021-07-03 12:23:16</time>
      </trkpt>
      <trkpt lat="29.19768" lon="-13.45548">
        <ele>133.8</ele>
        <time>2021-07-03 12:23:17</time>
      </trkpt>
      <trkpt lat="29.19768" lon="-13.4555">
        <ele>134.2</ele>
        <time>2021-07-03 12:23:18</time>
      </trkpt>
      <trkpt lat="29.19769" lon="-13.45552">
        <ele>134.4</ele>
        <time>2021-07-03 12:23:19</time>
      </trkpt>
      <trkpt lat="29.19769" lon="-13.45555">
        <ele>134.8</ele>
        <time>2021-07-03 12:23:20</time>
      </trkpt>
      <trkpt lat="29.19769" lon="-13.45557">
        <ele>134.8</ele>
        <time>2021-07-03 12:23:21</time>
      </trkpt>
      <trkpt lat="29.19768" lon="-13.4556">
        <ele>135</ele>
        <time>2021-07-03 12:23:22</time>
      </trkpt>
      <trkpt lat="29.19768" lon="-13.45562">
        <ele>135</ele>
        <time>2021-07-03 12:23:23</time>
      </trkpt>
      <trkpt lat="29.19768" lon="-13.45565">
        <ele>135.6</ele>
        <time>2021-07-03 12:23:24</time>
      </trkpt>
      <trkpt lat="29.19768" lon="-13.45568">
        <ele>135.6</ele>
        <time>2021-07-03 12:23:25</time>
      </trkpt>
      <trkpt lat="29.19768" lon="-13.4557">
        <ele>135.8</ele>
        <time>2021-07-03 12:23:26</time>
      </trkpt>
      <trkpt lat="29.19768" lon="-13.45573">
        <ele>135.8</ele>
        <time>2021-07-03 12:23:27</time>
      </trkpt>
      <trkpt lat="29.19767" lon="-13.45575">
        <ele>136.2</ele>
        <time>2021-07-03 12:23:28</time>
      </trkpt>
      <trkpt lat="29.19767" lon="-13.45578">
        <ele>136.2</ele>
        <time>2021-07-03 12:23:29</time>
      </trkpt>
      <trkpt lat="29.19767" lon="-13.45581">
        <ele>136.4</ele>
        <time>2021-07-03 12:23:30</time>
      </trkpt>
      <trkpt lat="29.19767" lon="-13.45583">
        <ele>136.4</ele>
        <time>2021-07-03 12:23:31</time>
      </trkpt>
      <trkpt lat="29.19767" lon="-13.45586">
        <ele>136.8</ele>
        <time>2021-07-03 12:23:32</time>
      </trkpt>
      <trkpt lat="29.19767" lon="-13.45588">
        <ele>136.8</ele>
        <time>2021-07-03 12:23:33</time>
      </trkpt>
      <trkpt lat="29.19767" lon="-13.45591">
        <ele>137.2</ele>
        <time>2021-07-03 12:23:34</time>
      </trkpt>
      <trkpt lat="29.19767" lon="-13.45593">
        <ele>137.2</ele>
        <time>2021-07-03 12:23:35</time>
      </trkpt>
      <trkpt lat="29.19767" lon="-13.45596">
        <ele>137.6</ele>
        <time>2021-07-03 12:23:36</time>
      </trkpt>
      <trkpt lat="29.19767" lon="-13.45598">
        <ele>137.6</ele>
        <time>2021-07-03 12:23:37</time>
      </trkpt>
      <trkpt lat="29.19767" lon="-13.45601">
        <ele>137.8</ele>
        <time>2021-07-03 12:23:38</time>
      </trkpt>
      <trkpt lat="29.19767" lon="-13.45603">
        <ele>138</ele>
        <time>2021-07-03 12:23:39</time>
      </trkpt>
      <trkpt lat="29.19767" lon="-13.45606">
        <ele>138</ele>
        <time>2021-07-03 12:23:40</time>
      </trkpt>
      <trkpt lat="29.19767" lon="-13.45608">
        <ele>138</ele>
        <time>2021-07-03 12:23:41</time>
      </trkpt>
      <trkpt lat="29.19767" lon="-13.45611">
        <ele>138.2</ele>
        <time>2021-07-03 12:23:42</time>
      </trkpt>
      <trkpt lat="29.19767" lon="-13.45613">
        <ele>138.2</ele>
        <time>2021-07-03 12:23:43</time>
      </trkpt>
      <trkpt lat="29.19767" lon="-13.45616">
        <ele>138.2</ele>
        <time>2021-07-03 12:23:44</time>
      </trkpt>
      <trkpt lat="29.19767" lon="-13.45618">
        <ele>138.6</ele>
        <time>2021-07-03 12:23:45</time>
      </trkpt>
      <trkpt lat="29.19767" lon="-13.45621">
        <ele>138.8</ele>
        <time>2021-07-03 12:23:46</time>
      </trkpt>
      <trkpt lat="29.19767" lon="-13.45623">
        <ele>138.8</ele>
        <time>2021-07-03 12:23:47</time>
      </trkpt>
      <trkpt lat="29.19767" lon="-13.45626">
        <ele>139.2</ele>
        <time>2021-07-03 12:23:48</time>
      </trkpt>
      <trkpt lat="29.19767" lon="-13.45628">
        <ele>139.4</ele>
        <time>2021-07-03 12:23:49</time>
      </trkpt>
      <trkpt lat="29.19767" lon="-13.4563">
        <ele>139.8</ele>
        <time>2021-07-03 12:23:50</time>
      </trkpt>
      <trkpt lat="29.19767" lon="-13.45633">
        <ele>140</ele>
        <time>2021-07-03 12:23:51</time>
      </trkpt>
      <trkpt lat="29.19767" lon="-13.45635">
        <ele>140</ele>
        <time>2021-07-03 12:23:52</time>
      </trkpt>
      <trkpt lat="29.19767" lon="-13.45637">
        <ele>140.4</ele>
        <time>2021-07-03 12:23:53</time>
      </trkpt>
      <trkpt lat="29.19767" lon="-13.4564">
        <ele>140.4</ele>
        <time>2021-07-03 12:23:54</time>
      </trkpt>
      <trkpt lat="29.19767" lon="-13.45642">
        <ele>140.6</ele>
        <time>2021-07-03 12:23:55</time>
      </trkpt>
      <trkpt lat="29.19767" lon="-13.45645">
        <ele>140.6</ele>
        <time>2021-07-03 12:23:56</time>
      </trkpt>
      <trkpt lat="29.19767" lon="-13.45647">
        <ele>140.6</ele>
        <time>2021-07-03 12:23:57</time>
      </trkpt>
      <trkpt lat="29.19767" lon="-13.4565">
        <ele>140.6</ele>
        <time>2021-07-03 12:23:58</time>
      </trkpt>
      <trkpt lat="29.19767" lon="-13.45653">
        <ele>140.8</ele>
        <time>2021-07-03 12:23:59</time>
      </trkpt>
      <trkpt lat="29.19767" lon="-13.45655">
        <ele>140.8</ele>
        <time>2021-07-03 12:24:00</time>
      </trkpt>
      <trkpt lat="29.19766" lon="-13.45658">
        <ele>141</ele>
        <time>2021-07-03 12:24:01</time>
      </trkpt>
      <trkpt lat="29.19766" lon="-13.4566">
        <ele>141.4</ele>
        <time>2021-07-03 12:24:02</time>
      </trkpt>
      <trkpt lat="29.19766" lon="-13.45663">
        <ele>141.6</ele>
        <time>2021-07-03 12:24:03</time>
      </trkpt>
      <trkpt lat="29.19766" lon="-13.45665">
        <ele>141.6</ele>
        <time>2021-07-03 12:24:04</time>
      </trkpt>
      <trkpt lat="29.19765" lon="-13.45668">
        <ele>141.8</ele>
        <time>2021-07-03 12:24:05</time>
      </trkpt>
      <trkpt lat="29.19765" lon="-13.4567">
        <ele>141.8</ele>
        <time>2021-07-03 12:24:06</time>
      </trkpt>
      <trkpt lat="29.19764" lon="-13.45673">
        <ele>141.8</ele>
        <time>2021-07-03 12:24:07</time>
      </trkpt>
      <trkpt lat="29.19764" lon="-13.45676">
        <ele>141.8</ele>
        <time>2021-07-03 12:24:08</time>
      </trkpt>
      <trkpt lat="29.19763" lon="-13.45678">
        <ele>141.8</ele>
        <time>2021-07-03 12:24:09</time>
      </trkpt>
      <trkpt lat="29.19762" lon="-13.45681">
        <ele>141.8</ele>
        <time>2021-07-03 12:24:10</time>
      </trkpt>
      <trkpt lat="29.19761" lon="-13.45683">
        <ele>141.8</ele>
        <time>2021-07-03 12:24:11</time>
      </trkpt>
      <trkpt lat="29.1976" lon="-13.45686">
        <ele>141.8</ele>
        <time>2021-07-03 12:24:12</time>
      </trkpt>
      <trkpt lat="29.19759" lon="-13.45688">
        <ele>141.8</ele>
        <time>2021-07-03 12:24:13</time>
      </trkpt>
      <trkpt lat="29.19758" lon="-13.45691">
        <ele>141.8</ele>
        <time>2021-07-03 12:24:14</time>
      </trkpt>
      <trkpt lat="29.19758" lon="-13.45693">
        <ele>141.8</ele>
        <time>2021-07-03 12:24:15</time>
      </trkpt>
      <trkpt lat="29.19757" lon="-13.45696">
        <ele>142</ele>
        <time>2021-07-03 12:24:16</time>
      </trkpt>
      <trkpt lat="29.19757" lon="-13.45698">
        <ele>142</ele>
        <time>2021-07-03 12:24:17</time>
      </trkpt>
      <trkpt lat="29.19756" lon="-13.45701">
        <ele>142</ele>
        <time>2021-07-03 12:24:18</time>
      </trkpt>
      <trkpt lat="29.19755" lon="-13.45703">
        <ele>142.4</ele>
        <time>2021-07-03 12:24:19</time>
      </trkpt>
      <trkpt lat="29.19754" lon="-13.45706">
        <ele>142.4</ele>
        <time>2021-07-03 12:24:20</time>
      </trkpt>
      <trkpt lat="29.19753" lon="-13.45708">
        <ele>142.4</ele>
        <time>2021-07-03 12:24:21</time>
      </trkpt>
      <trkpt lat="29.19753" lon="-13.45711">
        <ele>142.6</ele>
        <time>2021-07-03 12:24:22</time>
      </trkpt>
      <trkpt lat="29.19751" lon="-13.45713">
        <ele>142.6</ele>
        <time>2021-07-03 12:24:23</time>
      </trkpt>
      <trkpt lat="29.1975" lon="-13.45715">
        <ele>142.6</ele>
        <time>2021-07-03 12:24:24</time>
      </trkpt>
      <trkpt lat="29.19749" lon="-13.45717">
        <ele>143</ele>
        <time>2021-07-03 12:24:25</time>
      </trkpt>
      <trkpt lat="29.19749" lon="-13.4572">
        <ele>143</ele>
        <time>2021-07-03 12:24:26</time>
      </trkpt>
      <trkpt lat="29.19748" lon="-13.45722">
        <ele>143</ele>
        <time>2021-07-03 12:24:27</time>
      </trkpt>
      <trkpt lat="29.19747" lon="-13.45724">
        <ele>143</ele>
        <time>2021-07-03 12:24:28</time>
      </trkpt>
      <trkpt lat="29.19746" lon="-13.45727">
        <ele>143.2</ele>
        <time>2021-07-03 12:24:29</time>
      </trkpt>
      <trkpt lat="29.19745" lon="-13.45729">
        <ele>143.2</ele>
        <time>2021-07-03 12:24:30</time>
      </trkpt>
      <trkpt lat="29.19744" lon="-13.45731">
        <ele>143.2</ele>
        <time>2021-07-03 12:24:31</time>
      </trkpt>
      <trkpt lat="29.19744" lon="-13.45733">
        <ele>143.6</ele>
        <time>2021-07-03 12:24:32</time>
      </trkpt>
      <trkpt lat="29.19743" lon="-13.45736">
        <ele>143.8</ele>
        <time>2021-07-03 12:24:33</time>
      </trkpt>
      <trkpt lat="29.19742" lon="-13.45738">
        <ele>143.8</ele>
        <time>2021-07-03 12:24:34</time>
      </trkpt>
      <trkpt lat="29.19741" lon="-13.4574">
        <ele>144.2</ele>
        <time>2021-07-03 12:24:35</time>
      </trkpt>
      <trkpt lat="29.19741" lon="-13.45743">
        <ele>144.4</ele>
        <time>2021-07-03 12:24:36</time>
      </trkpt>
      <trkpt lat="29.1974" lon="-13.45745">
        <ele>144.4</ele>
        <time>2021-07-03 12:24:37</time>
      </trkpt>
      <trkpt lat="29.19738" lon="-13.45747">
        <ele>144.8</ele>
        <time>2021-07-03 12:24:38</time>
      </trkpt>
      <trkpt lat="29.19738" lon="-13.45749">
        <ele>144.8</ele>
        <time>2021-07-03 12:24:39</time>
      </trkpt>
      <trkpt lat="29.19737" lon="-13.45751">
        <ele>145.2</ele>
        <time>2021-07-03 12:24:40</time>
      </trkpt>
      <trkpt lat="29.19736" lon="-13.45754">
        <ele>145.2</ele>
        <time>2021-07-03 12:24:41</time>
      </trkpt>
      <trkpt lat="29.19735" lon="-13.45756">
        <ele>145.4</ele>
        <time>2021-07-03 12:24:42</time>
      </trkpt>
      <trkpt lat="29.19733" lon="-13.45758">
        <ele>145.4</ele>
        <time>2021-07-03 12:24:43</time>
      </trkpt>
      <trkpt lat="29.19732" lon="-13.4576">
        <ele>145.6</ele>
        <time>2021-07-03 12:24:44</time>
      </trkpt>
      <trkpt lat="29.19731" lon="-13.45763">
        <ele>146</ele>
        <time>2021-07-03 12:24:45</time>
      </trkpt>
      <trkpt lat="29.1973" lon="-13.45765">
        <ele>146.2</ele>
        <time>2021-07-03 12:24:46</time>
      </trkpt>
      <trkpt lat="29.19729" lon="-13.45767">
        <ele>146.2</ele>
        <time>2021-07-03 12:24:47</time>
      </trkpt>
      <trkpt lat="29.19728" lon="-13.4577">
        <ele>146.4</ele>
        <time>2021-07-03 12:24:48</time>
      </trkpt>
      <trkpt lat="29.19727" lon="-13.45772">
        <ele>146.4</ele>
        <time>2021-07-03 12:24:49</time>
      </trkpt>
      <trkpt lat="29.19726" lon="-13.45774">
        <ele>146.4</ele>
        <time>2021-07-03 12:24:50</time>
      </trkpt>
      <trkpt lat="29.19725" lon="-13.45776">
        <ele>146.6</ele>
        <time>2021-07-03 12:24:51</time>
      </trkpt>
      <trkpt lat="29.19725" lon="-13.45778">
        <ele>147</ele>
        <time>2021-07-03 12:24:52</time>
      </trkpt>
      <trkpt lat="29.19724" lon="-13.4578">
        <ele>147</ele>
        <time>2021-07-03 12:24:53</time>
      </trkpt>
      <trkpt lat="29.19723" lon="-13.45783">
        <ele>147.2</ele>
        <time>2021-07-03 12:24:54</time>
      </trkpt>
      <trkpt lat="29.19721" lon="-13.45785">
        <ele>147.2</ele>
        <time>2021-07-03 12:24:55</time>
      </trkpt>
      <trkpt lat="29.1972" lon="-13.45787">
        <ele>147.4</ele>
        <time>2021-07-03 12:24:56</time>
      </trkpt>
      <trkpt lat="29.1972" lon="-13.45789">
        <ele>147.4</ele>
        <time>2021-07-03 12:24:57</time>
      </trkpt>
      <trkpt lat="29.19719" lon="-13.45792">
        <ele>147.8</ele>
        <time>2021-07-03 12:24:58</time>
      </trkpt>
      <trkpt lat="29.19718" lon="-13.45794">
        <ele>148.2</ele>
        <time>2021-07-03 12:24:59</time>
      </trkpt>
      <trkpt lat="29.19718" lon="-13.45796">
        <ele>148.4</ele>
        <time>2021-07-03 12:25:00</time>
      </trkpt>
      <trkpt lat="29.19717" lon="-13.45799">
        <ele>148.4</ele>
        <time>2021-07-03 12:25:01</time>
      </trkpt>
      <trkpt lat="29.19716" lon="-13.45801">
        <ele>148.6</ele>
        <time>2021-07-03 12:25:02</time>
      </trkpt>
      <trkpt lat="29.19716" lon="-13.45803">
        <ele>148.8</ele>
        <time>2021-07-03 12:25:03</time>
      </trkpt>
      <trkpt lat="29.19715" lon="-13.45806">
        <ele>148.8</ele>
        <time>2021-07-03 12:25:04</time>
      </trkpt>
      <trkpt lat="29.19714" lon="-13.45808">
        <ele>149.2</ele>
        <time>2021-07-03 12:25:05</time>
      </trkpt>
      <trkpt lat="29.19714" lon="-13.45811">
        <ele>149.4</ele>
        <time>2021-07-03 12:25:06</time>
      </trkpt>
      <trkpt lat="29.19713" lon="-13.45813">
        <ele>149.8</ele>
        <time>2021-07-03 12:25:07</time>
      </trkpt>
      <trkpt lat="29.19713" lon="-13.45816">
        <ele>150.2</ele>
        <time>2021-07-03 12:25:08</time>
      </trkpt>
      <trkpt lat="29.19713" lon="-13.45818">
        <ele>150.4</ele>
        <time>2021-07-03 12:25:09</time>
      </trkpt>
      <trkpt lat="29.19712" lon="-13.45821">
        <ele>150.8</ele>
        <time>2021-07-03 12:25:10</time>
      </trkpt>
      <trkpt lat="29.19711" lon="-13.45823">
        <ele>151</ele>
        <time>2021-07-03 12:25:11</time>
      </trkpt>
      <trkpt lat="29.19711" lon="-13.45826">
        <ele>151.4</ele>
        <time>2021-07-03 12:25:12</time>
      </trkpt>
      <trkpt lat="29.1971" lon="-13.45828">
        <ele>151.6</ele>
        <time>2021-07-03 12:25:13</time>
      </trkpt>
      <trkpt lat="29.1971" lon="-13.45831">
        <ele>151.8</ele>
        <time>2021-07-03 12:25:14</time>
      </trkpt>
      <trkpt lat="29.19709" lon="-13.45833">
        <ele>151.8</ele>
        <time>2021-07-03 12:25:15</time>
      </trkpt>
      <trkpt lat="29.19709" lon="-13.45836">
        <ele>152.2</ele>
        <time>2021-07-03 12:25:16</time>
      </trkpt>
      <trkpt lat="29.19708" lon="-13.45839">
        <ele>152.2</ele>
        <time>2021-07-03 12:25:17</time>
      </trkpt>
      <trkpt lat="29.19707" lon="-13.45841">
        <ele>152.6</ele>
        <time>2021-07-03 12:25:18</time>
      </trkpt>
      <trkpt lat="29.19707" lon="-13.45844">
        <ele>152.6</ele>
        <time>2021-07-03 12:25:19</time>
      </trkpt>
      <trkpt lat="29.19706" lon="-13.45846">
        <ele>152.8</ele>
        <time>2021-07-03 12:25:20</time>
      </trkpt>
      <trkpt lat="29.19706" lon="-13.45849">
        <ele>152.8</ele>
        <time>2021-07-03 12:25:21</time>
      </trkpt>
      <trkpt lat="29.19705" lon="-13.45851">
        <ele>153</ele>
        <time>2021-07-03 12:25:22</time>
      </trkpt>
      <trkpt lat="29.19704" lon="-13.45853">
        <ele>153</ele>
        <time>2021-07-03 12:25:23</time>
      </trkpt>
      <trkpt lat="29.19703" lon="-13.45855">
        <ele>153</ele>
        <time>2021-07-03 12:25:24</time>
      </trkpt>
      <trkpt lat="29.19702" lon="-13.45857">
        <ele>153.4</ele>
        <time>2021-07-03 12:25:25</time>
      </trkpt>
      <trkpt lat="29.19702" lon="-13.4586">
        <ele>153.4</ele>
        <time>2021-07-03 12:25:26</time>
      </trkpt>
      <trkpt lat="29.19703" lon="-13.45862">
        <ele>153.6</ele>
        <time>2021-07-03 12:25:27</time>
      </trkpt>
      <trkpt lat="29.19704" lon="-13.45864">
        <ele>154</ele>
        <time>2021-07-03 12:25:28</time>
      </trkpt>
      <trkpt lat="29.19706" lon="-13.45865">
        <ele>154</ele>
        <time>2021-07-03 12:25:29</time>
      </trkpt>
      <trkpt lat="29.19708" lon="-13.45866">
        <ele>154.2</ele>
        <time>2021-07-03 12:25:30</time>
      </trkpt>
      <trkpt lat="29.1971" lon="-13.45867">
        <ele>154.2</ele>
        <time>2021-07-03 12:25:31</time>
      </trkpt>
      <trkpt lat="29.19713" lon="-13.45867">
        <ele>154.2</ele>
        <time>2021-07-03 12:25:32</time>
      </trkpt>
      <trkpt lat="29.19715" lon="-13.45866">
        <ele>154.4</ele>
        <time>2021-07-03 12:25:33</time>
      </trkpt>
      <trkpt lat="29.19717" lon="-13.45866">
        <ele>154.6</ele>
        <time>2021-07-03 12:25:34</time>
      </trkpt>
      <trkpt lat="29.19719" lon="-13.45866">
        <ele>154.6</ele>
        <time>2021-07-03 12:25:35</time>
      </trkpt>
      <trkpt lat="29.19721" lon="-13.45865">
        <ele>155</ele>
        <time>2021-07-03 12:25:36</time>
      </trkpt>
      <trkpt lat="29.19723" lon="-13.45865">
        <ele>155</ele>
        <time>2021-07-03 12:25:37</time>
      </trkpt>
      <trkpt lat="29.19725" lon="-13.45865">
        <ele>155.4</ele>
        <time>2021-07-03 12:25:38</time>
      </trkpt>
      <trkpt lat="29.19727" lon="-13.45865">
        <ele>155.6</ele>
        <time>2021-07-03 12:25:39</time>
      </trkpt>
      <trkpt lat="29.19729" lon="-13.45864">
        <ele>155.6</ele>
        <time>2021-07-03 12:25:40</time>
      </trkpt>
      <trkpt lat="29.19731" lon="-13.45864">
        <ele>156</ele>
        <time>2021-07-03 12:25:41</time>
      </trkpt>
      <trkpt lat="29.19733" lon="-13.45864">
        <ele>156.4</ele>
        <time>2021-07-03 12:25:42</time>
      </trkpt>
      <trkpt lat="29.19735" lon="-13.45863">
        <ele>156.6</ele>
        <time>2021-07-03 12:25:43</time>
      </trkpt>
      <trkpt lat="29.19737" lon="-13.45863">
        <ele>156.6</ele>
        <time>2021-07-03 12:25:44</time>
      </trkpt>
      <trkpt lat="29.19739" lon="-13.45863">
        <ele>157.2</ele>
        <time>2021-07-03 12:25:45</time>
      </trkpt>
      <trkpt lat="29.19741" lon="-13.45862">
        <ele>157.2</ele>
        <time>2021-07-03 12:25:46</time>
      </trkpt>
      <trkpt lat="29.19743" lon="-13.45861">
        <ele>157.2</ele>
        <time>2021-07-03 12:25:47</time>
      </trkpt>
      <trkpt lat="29.19744" lon="-13.45861">
        <ele>157.6</ele>
        <time>2021-07-03 12:25:48</time>
      </trkpt>
      <trkpt lat="29.19746" lon="-13.45861">
        <ele>158</ele>
        <time>2021-07-03 12:25:49</time>
      </trkpt>
      <trkpt lat="29.19747" lon="-13.45862">
        <ele>158.4</ele>
        <time>2021-07-03 12:25:50</time>
      </trkpt>
      <trkpt lat="29.19748" lon="-13.45863">
        <ele>158.4</ele>
        <time>2021-07-03 12:25:51</time>
      </trkpt>
      <trkpt lat="29.1975" lon="-13.45864">
        <ele>158.4</ele>
        <time>2021-07-03 12:25:52</time>
      </trkpt>
      <trkpt lat="29.19751" lon="-13.45866">
        <ele>158.6</ele>
        <time>2021-07-03 12:25:53</time>
      </trkpt>
      <trkpt lat="29.19751" lon="-13.45867">
        <ele>159</ele>
        <time>2021-07-03 12:25:54</time>
      </trkpt>
      <trkpt lat="29.19752" lon="-13.45869">
        <ele>159.4</ele>
        <time>2021-07-03 12:25:55</time>
      </trkpt>
      <trkpt lat="29.19752" lon="-13.45871">
        <ele>160.6</ele>
        <time>2021-07-03 12:25:56</time>
      </trkpt>
      <trkpt lat="29.19752" lon="-13.45873">
        <ele>160.8</ele>
        <time>2021-07-03 12:25:57</time>
      </trkpt>
      <trkpt lat="29.19752" lon="-13.45875">
        <ele>160.8</ele>
        <time>2021-07-03 12:25:58</time>
      </trkpt>
      <trkpt lat="29.19751" lon="-13.45876">
        <ele>161.2</ele>
        <time>2021-07-03 12:25:59</time>
      </trkpt>
      <trkpt lat="29.1975" lon="-13.45878">
        <ele>161.2</ele>
        <time>2021-07-03 12:26:00</time>
      </trkpt>
      <trkpt lat="29.1975" lon="-13.4588">
        <ele>161.8</ele>
        <time>2021-07-03 12:26:01</time>
      </trkpt>
      <trkpt lat="29.1975" lon="-13.45882">
        <ele>162</ele>
        <time>2021-07-03 12:26:02</time>
      </trkpt>
      <trkpt lat="29.1975" lon="-13.45883">
        <ele>162.4</ele>
        <time>2021-07-03 12:26:03</time>
      </trkpt>
      <trkpt lat="29.1975" lon="-13.45885">
        <ele>162.4</ele>
        <time>2021-07-03 12:26:04</time>
      </trkpt>
      <trkpt lat="29.1975" lon="-13.45887">
        <ele>162.8</ele>
        <time>2021-07-03 12:26:05</time>
      </trkpt>
      <trkpt lat="29.1975" lon="-13.45888">
        <ele>163.2</ele>
        <time>2021-07-03 12:26:06</time>
      </trkpt>
      <trkpt lat="29.1975" lon="-13.4589">
        <ele>163.4</ele>
        <time>2021-07-03 12:26:07</time>
      </trkpt>
      <trkpt lat="29.1975" lon="-13.45892">
        <ele>164</ele>
        <time>2021-07-03 12:26:08</time>
      </trkpt>
      <trkpt lat="29.1975" lon="-13.45894">
        <ele>164</ele>
        <time>2021-07-03 12:26:09</time>
      </trkpt>
      <trkpt lat="29.1975" lon="-13.45895">
        <ele>164.4</ele>
        <time>2021-07-03 12:26:10</time>
      </trkpt>
      <trkpt lat="29.1975" lon="-13.45897">
        <ele>164.4</ele>
        <time>2021-07-03 12:26:11</time>
      </trkpt>
      <trkpt lat="29.19749" lon="-13.45898">
        <ele>165</ele>
        <time>2021-07-03 12:26:12</time>
      </trkpt>
      <trkpt lat="29.19749" lon="-13.459">
        <ele>165</ele>
        <time>2021-07-03 12:26:13</time>
      </trkpt>
      <trkpt lat="29.19749" lon="-13.45901">
        <ele>165.6</ele>
        <time>2021-07-03 12:26:14</time>
      </trkpt>
      <trkpt lat="29.19749" lon="-13.45903">
        <ele>165.6</ele>
        <time>2021-07-03 12:26:15</time>
      </trkpt>
      <trkpt lat="29.19749" lon="-13.45905">
        <ele>166.2</ele>
        <time>2021-07-03 12:26:16</time>
      </trkpt>
      <trkpt lat="29.19749" lon="-13.45906">
        <ele>166.2</ele>
        <time>2021-07-03 12:26:17</time>
      </trkpt>
      <trkpt lat="29.19749" lon="-13.45907">
        <ele>166.4</ele>
        <time>2021-07-03 12:26:18</time>
      </trkpt>
      <trkpt lat="29.19749" lon="-13.45909">
        <ele>166.8</ele>
        <time>2021-07-03 12:26:19</time>
      </trkpt>
      <trkpt lat="29.19749" lon="-13.4591">
        <ele>167.2</ele>
        <time>2021-07-03 12:26:20</time>
      </trkpt>
      <trkpt lat="29.19749" lon="-13.45912">
        <ele>167.2</ele>
        <time>2021-07-03 12:26:21</time>
      </trkpt>
      <trkpt lat="29.1975" lon="-13.45914">
        <ele>167.2</ele>
        <time>2021-07-03 12:26:22</time>
      </trkpt>
      <trkpt lat="29.1975" lon="-13.45915">
        <ele>167.4</ele>
        <time>2021-07-03 12:26:23</time>
      </trkpt>
      <trkpt lat="29.1975" lon="-13.45917">
        <ele>167.4</ele>
        <time>2021-07-03 12:26:24</time>
      </trkpt>
      <trkpt lat="29.19749" lon="-13.45918">
        <ele>167.4</ele>
        <time>2021-07-03 12:26:25</time>
      </trkpt>
      <trkpt lat="29.19749" lon="-13.4592">
        <ele>168</ele>
        <time>2021-07-03 12:26:26</time>
      </trkpt>
      <trkpt lat="29.1975" lon="-13.45921">
        <ele>168.2</ele>
        <time>2021-07-03 12:26:27</time>
      </trkpt>
      <trkpt lat="29.1975" lon="-13.45923">
        <ele>168.8</ele>
        <time>2021-07-03 12:26:28</time>
      </trkpt>
      <trkpt lat="29.19751" lon="-13.45924">
        <ele>169.2</ele>
        <time>2021-07-03 12:26:29</time>
      </trkpt>
      <trkpt lat="29.19752" lon="-13.45926">
        <ele>169.2</ele>
        <time>2021-07-03 12:26:30</time>
      </trkpt>
      <trkpt lat="29.19751" lon="-13.45928">
        <ele>169.4</ele>
        <time>2021-07-03 12:26:31</time>
      </trkpt>
      <trkpt lat="29.19751" lon="-13.45929">
        <ele>169.6</ele>
        <time>2021-07-03 12:26:32</time>
      </trkpt>
      <trkpt lat="29.19751" lon="-13.4593">
        <ele>169.6</ele>
        <time>2021-07-03 12:26:33</time>
      </trkpt>
      <trkpt lat="29.19751" lon="-13.45932">
        <ele>170</ele>
        <time>2021-07-03 12:26:34</time>
      </trkpt>
      <trkpt lat="29.19751" lon="-13.45933">
        <ele>170.2</ele>
        <time>2021-07-03 12:26:35</time>
      </trkpt>
      <trkpt lat="29.19751" lon="-13.45934">
        <ele>170.6</ele>
        <time>2021-07-03 12:26:36</time>
      </trkpt>
      <trkpt lat="29.19752" lon="-13.45936">
        <ele>171</ele>
        <time>2021-07-03 12:26:37</time>
      </trkpt>
      <trkpt lat="29.19753" lon="-13.45937">
        <ele>171</ele>
        <time>2021-07-03 12:26:38</time>
      </trkpt>
      <trkpt lat="29.19753" lon="-13.45939">
        <ele>171.4</ele>
        <time>2021-07-03 12:26:39</time>
      </trkpt>
      <trkpt lat="29.19753" lon="-13.4594">
        <ele>171.4</ele>
        <time>2021-07-03 12:26:40</time>
      </trkpt>
      <trkpt lat="29.19753" lon="-13.45942">
        <ele>171.8</ele>
        <time>2021-07-03 12:26:41</time>
      </trkpt>
      <trkpt lat="29.19754" lon="-13.45943">
        <ele>171.8</ele>
        <time>2021-07-03 12:26:42</time>
      </trkpt>
      <trkpt lat="29.19754" lon="-13.45944">
        <ele>171.8</ele>
        <time>2021-07-03 12:26:43</time>
      </trkpt>
      <trkpt lat="29.19755" lon="-13.45945">
        <ele>172.4</ele>
        <time>2021-07-03 12:26:44</time>
      </trkpt>
      <trkpt lat="29.19756" lon="-13.45947">
        <ele>172.6</ele>
        <time>2021-07-03 12:26:45</time>
      </trkpt>
      <trkpt lat="29.19756" lon="-13.45948">
        <ele>172.6</ele>
        <time>2021-07-03 12:26:46</time>
      </trkpt>
      <trkpt lat="29.19757" lon="-13.4595">
        <ele>173</ele>
        <time>2021-07-03 12:26:47</time>
      </trkpt>
      <trkpt lat="29.19757" lon="-13.45952">
        <ele>173.2</ele>
        <time>2021-07-03 12:26:48</time>
      </trkpt>
      <trkpt lat="29.19758" lon="-13.45953">
        <ele>173.4</ele>
        <time>2021-07-03 12:26:49</time>
      </trkpt>
      <trkpt lat="29.19758" lon="-13.45955">
        <ele>174</ele>
        <time>2021-07-03 12:26:50</time>
      </trkpt>
      <trkpt lat="29.19758" lon="-13.45956">
        <ele>174.6</ele>
        <time>2021-07-03 12:26:51</time>
      </trkpt>
      <trkpt lat="29.19758" lon="-13.45958">
        <ele>175</ele>
        <time>2021-07-03 12:26:52</time>
      </trkpt>
      <trkpt lat="29.19758" lon="-13.45959">
        <ele>175.4</ele>
        <time>2021-07-03 12:26:53</time>
      </trkpt>
      <trkpt lat="29.19758" lon="-13.45961">
        <ele>175.6</ele>
        <time>2021-07-03 12:26:54</time>
      </trkpt>
      <trkpt lat="29.19758" lon="-13.45963">
        <ele>175.6</ele>
        <time>2021-07-03 12:26:55</time>
      </trkpt>
      <trkpt lat="29.19758" lon="-13.45964">
        <ele>175.6</ele>
        <time>2021-07-03 12:26:56</time>
      </trkpt>
      <trkpt lat="29.19759" lon="-13.45965">
        <ele>175.8</ele>
        <time>2021-07-03 12:26:57</time>
      </trkpt>
      <trkpt lat="29.1976" lon="-13.45967">
        <ele>176.4</ele>
        <time>2021-07-03 12:26:58</time>
      </trkpt>
      <trkpt lat="29.1976" lon="-13.45968">
        <ele>176.4</ele>
        <time>2021-07-03 12:26:59</time>
      </trkpt>
      <trkpt lat="29.1976" lon="-13.4597">
        <ele>176.4</ele>
        <time>2021-07-03 12:27:00</time>
      </trkpt>
      <trkpt lat="29.1976" lon="-13.45972">
        <ele>176.8</ele>
        <time>2021-07-03 12:27:01</time>
      </trkpt>
      <trkpt lat="29.1976" lon="-13.45973">
        <ele>177</ele>
        <time>2021-07-03 12:27:02</time>
      </trkpt>
      <trkpt lat="29.1976" lon="-13.45975">
        <ele>177.2</ele>
        <time>2021-07-03 12:27:03</time>
      </trkpt>
      <trkpt lat="29.1976" lon="-13.45977">
        <ele>177.2</ele>
        <time>2021-07-03 12:27:04</time>
      </trkpt>
      <trkpt lat="29.19761" lon="-13.45978">
        <ele>177.8</ele>
        <time>2021-07-03 12:27:05</time>
      </trkpt>
      <trkpt lat="29.19762" lon="-13.4598">
        <ele>178</ele>
        <time>2021-07-03 12:27:06</time>
      </trkpt>
      <trkpt lat="29.19762" lon="-13.45981">
        <ele>178.4</ele>
        <time>2021-07-03 12:27:07</time>
      </trkpt>
      <trkpt lat="29.19762" lon="-13.45983">
        <ele>178.8</ele>
        <time>2021-07-03 12:27:08</time>
      </trkpt>
      <trkpt lat="29.19763" lon="-13.45985">
        <ele>178.8</ele>
        <time>2021-07-03 12:27:09</time>
      </trkpt>
      <trkpt lat="29.19763" lon="-13.45987">
        <ele>179.4</ele>
        <time>2021-07-03 12:27:10</time>
      </trkpt>
      <trkpt lat="29.19763" lon="-13.45989">
        <ele>179.4</ele>
        <time>2021-07-03 12:27:11</time>
      </trkpt>
      <trkpt lat="29.19763" lon="-13.4599">
        <ele>179.6</ele>
        <time>2021-07-03 12:27:12</time>
      </trkpt>
      <trkpt lat="29.19763" lon="-13.45992">
        <ele>180</ele>
        <time>2021-07-03 12:27:13</time>
      </trkpt>
      <trkpt lat="29.19763" lon="-13.45994">
        <ele>180</ele>
        <time>2021-07-03 12:27:14</time>
      </trkpt>
      <trkpt lat="29.19763" lon="-13.45996">
        <ele>180.6</ele>
        <time>2021-07-03 12:27:15</time>
      </trkpt>
      <trkpt lat="29.19763" lon="-13.45997">
        <ele>180.8</ele>
        <time>2021-07-03 12:27:16</time>
      </trkpt>
      <trkpt lat="29.19763" lon="-13.45999">
        <ele>181</ele>
        <time>2021-07-03 12:27:17</time>
      </trkpt>
      <trkpt lat="29.19763" lon="-13.46001">
        <ele>181.4</ele>
        <time>2021-07-03 12:27:18</time>
      </trkpt>
      <trkpt lat="29.19763" lon="-13.46003">
        <ele>181.4</ele>
        <time>2021-07-03 12:27:19</time>
      </trkpt>
      <trkpt lat="29.19762" lon="-13.46004">
        <ele>181.8</ele>
        <time>2021-07-03 12:27:20</time>
      </trkpt>
      <trkpt lat="29.19762" lon="-13.46006">
        <ele>181.8</ele>
        <time>2021-07-03 12:27:21</time>
      </trkpt>
      <trkpt lat="29.19761" lon="-13.46008">
        <ele>181.8</ele>
        <time>2021-07-03 12:27:22</time>
      </trkpt>
      <trkpt lat="29.19761" lon="-13.4601">
        <ele>182</ele>
        <time>2021-07-03 12:27:23</time>
      </trkpt>
      <trkpt lat="29.1976" lon="-13.46011">
        <ele>182.4</ele>
        <time>2021-07-03 12:27:24</time>
      </trkpt>
      <trkpt lat="29.1976" lon="-13.46013">
        <ele>182.6</ele>
        <time>2021-07-03 12:27:25</time>
      </trkpt>
      <trkpt lat="29.19759" lon="-13.46015">
        <ele>183</ele>
        <time>2021-07-03 12:27:26</time>
      </trkpt>
      <trkpt lat="29.19759" lon="-13.46017">
        <ele>183</ele>
        <time>2021-07-03 12:27:27</time>
      </trkpt>
      <trkpt lat="29.19759" lon="-13.46019">
        <ele>183.6</ele>
        <time>2021-07-03 12:27:28</time>
      </trkpt>
      <trkpt lat="29.19759" lon="-13.4602">
        <ele>183.6</ele>
        <time>2021-07-03 12:27:29</time>
      </trkpt>
      <trkpt lat="29.19758" lon="-13.46022">
        <ele>183.8</ele>
        <time>2021-07-03 12:27:30</time>
      </trkpt>
      <trkpt lat="29.19758" lon="-13.46023">
        <ele>184.2</ele>
        <time>2021-07-03 12:27:31</time>
      </trkpt>
      <trkpt lat="29.19757" lon="-13.46025">
        <ele>184.2</ele>
        <time>2021-07-03 12:27:32</time>
      </trkpt>
      <trkpt lat="29.19756" lon="-13.46027">
        <ele>184.2</ele>
        <time>2021-07-03 12:27:33</time>
      </trkpt>
      <trkpt lat="29.19756" lon="-13.46029">
        <ele>184.6</ele>
        <time>2021-07-03 12:27:34</time>
      </trkpt>
      <trkpt lat="29.19756" lon="-13.4603">
        <ele>184.8</ele>
        <time>2021-07-03 12:27:35</time>
      </trkpt>
      <trkpt lat="29.19755" lon="-13.46032">
        <ele>185.2</ele>
        <time>2021-07-03 12:27:36</time>
      </trkpt>
      <trkpt lat="29.19755" lon="-13.46034">
        <ele>185.6</ele>
        <time>2021-07-03 12:27:37</time>
      </trkpt>
      <trkpt lat="29.19756" lon="-13.46035">
        <ele>185.6</ele>
        <time>2021-07-03 12:27:38</time>
      </trkpt>
      <trkpt lat="29.19756" lon="-13.46037">
        <ele>186</ele>
        <time>2021-07-03 12:27:39</time>
      </trkpt>
      <trkpt lat="29.19756" lon="-13.46038">
        <ele>186.4</ele>
        <time>2021-07-03 12:27:40</time>
      </trkpt>
      <trkpt lat="29.19756" lon="-13.4604">
        <ele>186.4</ele>
        <time>2021-07-03 12:27:41</time>
      </trkpt>
      <trkpt lat="29.19755" lon="-13.46041">
        <ele>187.4</ele>
        <time>2021-07-03 12:27:42</time>
      </trkpt>
      <trkpt lat="29.19754" lon="-13.46043">
        <ele>187.4</ele>
        <time>2021-07-03 12:27:43</time>
      </trkpt>
      <trkpt lat="29.19754" lon="-13.46044">
        <ele>187.8</ele>
        <time>2021-07-03 12:27:44</time>
      </trkpt>
      <trkpt lat="29.19754" lon="-13.46046">
        <ele>187.8</ele>
        <time>2021-07-03 12:27:45</time>
      </trkpt>
      <trkpt lat="29.19754" lon="-13.46048">
        <ele>187.8</ele>
        <time>2021-07-03 12:27:46</time>
      </trkpt>
      <trkpt lat="29.19754" lon="-13.4605">
        <ele>187.8</ele>
        <time>2021-07-03 12:27:47</time>
      </trkpt>
      <trkpt lat="29.19754" lon="-13.46052">
        <ele>187.8</ele>
        <time>2021-07-03 12:27:48</time>
      </trkpt>
      <trkpt lat="29.19754" lon="-13.46054">
        <ele>187.8</ele>
        <time>2021-07-03 12:27:49</time>
      </trkpt>
      <trkpt lat="29.19754" lon="-13.46055">
        <ele>188</ele>
        <time>2021-07-03 12:27:50</time>
      </trkpt>
      <trkpt lat="29.19754" lon="-13.46057">
        <ele>188</ele>
        <time>2021-07-03 12:27:51</time>
      </trkpt>
      <trkpt lat="29.19754" lon="-13.46058">
        <ele>188.2</ele>
        <time>2021-07-03 12:27:52</time>
      </trkpt>
      <trkpt lat="29.19754" lon="-13.46058">
        <ele>188.2</ele>
        <time>2021-07-03 12:27:53</time>
      </trkpt>
      <trkpt lat="29.19754" lon="-13.46058">
        <ele>188.2</ele>
        <time>2021-07-03 12:27:54</time>
      </trkpt>
      <trkpt lat="29.19754" lon="-13.46057">
        <ele>188.2</ele>
        <time>2021-07-03 12:27:55</time>
      </trkpt>
      <trkpt lat="29.19755" lon="-13.46058">
        <ele>188</ele>
        <time>2021-07-03 12:27:56</time>
      </trkpt>
      <trkpt lat="29.19756" lon="-13.46061">
        <ele>189</ele>
        <time>2021-07-03 12:27:57</time>
      </trkpt>
      <trkpt lat="29.19757" lon="-13.46062">
        <ele>189.6</ele>
        <time>2021-07-03 12:27:58</time>
      </trkpt>
      <trkpt lat="29.19758" lon="-13.46064">
        <ele>189.4</ele>
        <time>2021-07-03 12:28:39</time>
      </trkpt>
      <trkpt lat="29.19758" lon="-13.46066">
        <ele>189.4</ele>
        <time>2021-07-03 12:28:40</time>
      </trkpt>
      <trkpt lat="29.19758" lon="-13.46068">
        <ele>189.8</ele>
        <time>2021-07-03 12:28:41</time>
      </trkpt>
      <trkpt lat="29.19758" lon="-13.4607">
        <ele>189.8</ele>
        <time>2021-07-03 12:28:42</time>
      </trkpt>
      <trkpt lat="29.19758" lon="-13.46072">
        <ele>189.8</ele>
        <time>2021-07-03 12:28:43</time>
      </trkpt>
      <trkpt lat="29.19758" lon="-13.46075">
        <ele>190.2</ele>
        <time>2021-07-03 12:28:44</time>
      </trkpt>
      <trkpt lat="29.19758" lon="-13.46077">
        <ele>190.4</ele>
        <time>2021-07-03 12:28:45</time>
      </trkpt>
      <trkpt lat="29.19759" lon="-13.46079">
        <ele>190.4</ele>
        <time>2021-07-03 12:28:46</time>
      </trkpt>
      <trkpt lat="29.19759" lon="-13.46082">
        <ele>190.8</ele>
        <time>2021-07-03 12:28:47</time>
      </trkpt>
      <trkpt lat="29.1976" lon="-13.46083">
        <ele>190.8</ele>
        <time>2021-07-03 12:28:48</time>
      </trkpt>
      <trkpt lat="29.1976" lon="-13.46085">
        <ele>191.2</ele>
        <time>2021-07-03 12:28:49</time>
      </trkpt>
      <trkpt lat="29.1976" lon="-13.46087">
        <ele>191.2</ele>
        <time>2021-07-03 12:28:50</time>
      </trkpt>
      <trkpt lat="29.19761" lon="-13.46089">
        <ele>191.2</ele>
        <time>2021-07-03 12:28:51</time>
      </trkpt>
      <trkpt lat="29.19761" lon="-13.46091">
        <ele>191.2</ele>
        <time>2021-07-03 12:28:52</time>
      </trkpt>
      <trkpt lat="29.19761" lon="-13.46094">
        <ele>191.2</ele>
        <time>2021-07-03 12:28:53</time>
      </trkpt>
      <trkpt lat="29.19761" lon="-13.46096">
        <ele>191.6</ele>
        <time>2021-07-03 12:28:54</time>
      </trkpt>
      <trkpt lat="29.19762" lon="-13.46098">
        <ele>191.6</ele>
        <time>2021-07-03 12:28:55</time>
      </trkpt>
      <trkpt lat="29.19762" lon="-13.461">
        <ele>191.6</ele>
        <time>2021-07-03 12:28:56</time>
      </trkpt>
      <trkpt lat="29.19762" lon="-13.46102">
        <ele>191.6</ele>
        <time>2021-07-03 12:28:57</time>
      </trkpt>
      <trkpt lat="29.19763" lon="-13.46105">
        <ele>191.6</ele>
        <time>2021-07-03 12:28:58</time>
      </trkpt>
      <trkpt lat="29.19763" lon="-13.46107">
        <ele>192</ele>
        <time>2021-07-03 12:28:59</time>
      </trkpt>
      <trkpt lat="29.19763" lon="-13.46109">
        <ele>192.2</ele>
        <time>2021-07-03 12:29:00</time>
      </trkpt>
      <trkpt lat="29.19764" lon="-13.46111">
        <ele>192.2</ele>
        <time>2021-07-03 12:29:01</time>
      </trkpt>
      <trkpt lat="29.19764" lon="-13.46113">
        <ele>192.2</ele>
        <time>2021-07-03 12:29:02</time>
      </trkpt>
      <trkpt lat="29.19765" lon="-13.46115">
        <ele>192.4</ele>
        <time>2021-07-03 12:29:03</time>
      </trkpt>
      <trkpt lat="29.19766" lon="-13.46118">
        <ele>192.8</ele>
        <time>2021-07-03 12:29:04</time>
      </trkpt>
      <trkpt lat="29.19766" lon="-13.4612">
        <ele>193</ele>
        <time>2021-07-03 12:29:05</time>
      </trkpt>
      <trkpt lat="29.19767" lon="-13.46122">
        <ele>193.2</ele>
        <time>2021-07-03 12:29:06</time>
      </trkpt>
      <trkpt lat="29.19767" lon="-13.46124">
        <ele>193.2</ele>
        <time>2021-07-03 12:29:07</time>
      </trkpt>
      <trkpt lat="29.19767" lon="-13.46125">
        <ele>193</ele>
        <time>2021-07-03 12:29:08</time>
      </trkpt>
      <trkpt lat="29.19767" lon="-13.46126">
        <ele>193</ele>
        <time>2021-07-03 12:29:09</time>
      </trkpt>
      <trkpt lat="29.19768" lon="-13.46128">
        <ele>192.6</ele>
        <time>2021-07-03 12:29:10</time>
      </trkpt>
      <trkpt lat="29.19769" lon="-13.46129">
        <ele>192.6</ele>
        <time>2021-07-03 12:29:11</time>
      </trkpt>
      <trkpt lat="29.1977" lon="-13.46131">
        <ele>192.6</ele>
        <time>2021-07-03 12:29:12</time>
      </trkpt>
      <trkpt lat="29.1977" lon="-13.46133">
        <ele>192.6</ele>
        <time>2021-07-03 12:29:13</time>
      </trkpt>
      <trkpt lat="29.19771" lon="-13.46135">
        <ele>193</ele>
        <time>2021-07-03 12:29:14</time>
      </trkpt>
      <trkpt lat="29.19772" lon="-13.46137">
        <ele>193</ele>
        <time>2021-07-03 12:29:15</time>
      </trkpt>
      <trkpt lat="29.19773" lon="-13.46138">
        <ele>193.6</ele>
        <time>2021-07-03 12:29:16</time>
      </trkpt>
      <trkpt lat="29.19773" lon="-13.4614">
        <ele>193.6</ele>
        <time>2021-07-03 12:29:17</time>
      </trkpt>
      <trkpt lat="29.19774" lon="-13.46142">
        <ele>194.2</ele>
        <time>2021-07-03 12:29:18</time>
      </trkpt>
      <trkpt lat="29.19775" lon="-13.46143">
        <ele>194.2</ele>
        <time>2021-07-03 12:29:19</time>
      </trkpt>
      <trkpt lat="29.19776" lon="-13.46145">
        <ele>194.4</ele>
        <time>2021-07-03 12:29:20</time>
      </trkpt>
      <trkpt lat="29.19777" lon="-13.46147">
        <ele>194.8</ele>
        <time>2021-07-03 12:29:21</time>
      </trkpt>
      <trkpt lat="29.19778" lon="-13.46149">
        <ele>195</ele>
        <time>2021-07-03 12:29:22</time>
      </trkpt>
      <trkpt lat="29.19779" lon="-13.46151">
        <ele>195</ele>
        <time>2021-07-03 12:29:23</time>
      </trkpt>
      <trkpt lat="29.1978" lon="-13.46153">
        <ele>195.4</ele>
        <time>2021-07-03 12:29:24</time>
      </trkpt>
      <trkpt lat="29.19782" lon="-13.46154">
        <ele>195.4</ele>
        <time>2021-07-03 12:29:25</time>
      </trkpt>
      <trkpt lat="29.19783" lon="-13.46156">
        <ele>195.8</ele>
        <time>2021-07-03 12:29:26</time>
      </trkpt>
      <trkpt lat="29.19783" lon="-13.46158">
        <ele>195.4</ele>
        <time>2021-07-03 12:29:27</time>
      </trkpt>
      <trkpt lat="29.19784" lon="-13.46159">
        <ele>195.4</ele>
        <time>2021-07-03 12:29:28</time>
      </trkpt>
      <trkpt lat="29.19785" lon="-13.46161">
        <ele>195.4</ele>
        <time>2021-07-03 12:29:29</time>
      </trkpt>
      <trkpt lat="29.19786" lon="-13.46162">
        <ele>195.6</ele>
        <time>2021-07-03 12:29:30</time>
      </trkpt>
      <trkpt lat="29.19787" lon="-13.46164">
        <ele>195.6</ele>
        <time>2021-07-03 12:29:31</time>
      </trkpt>
      <trkpt lat="29.19788" lon="-13.46166">
        <ele>195.6</ele>
        <time>2021-07-03 12:29:32</time>
      </trkpt>
      <trkpt lat="29.19789" lon="-13.46167">
        <ele>195.6</ele>
        <time>2021-07-03 12:29:33</time>
      </trkpt>
      <trkpt lat="29.1979" lon="-13.46169">
        <ele>195.6</ele>
        <time>2021-07-03 12:29:34</time>
      </trkpt>
      <trkpt lat="29.19791" lon="-13.46171">
        <ele>196</ele>
        <time>2021-07-03 12:29:35</time>
      </trkpt>
      <trkpt lat="29.19791" lon="-13.46173">
        <ele>196</ele>
        <time>2021-07-03 12:29:36</time>
      </trkpt>
      <trkpt lat="29.19792" lon="-13.46175">
        <ele>196.2</ele>
        <time>2021-07-03 12:29:37</time>
      </trkpt>
      <trkpt lat="29.19793" lon="-13.46177">
        <ele>196.2</ele>
        <time>2021-07-03 12:29:38</time>
      </trkpt>
      <trkpt lat="29.19794" lon="-13.46178">
        <ele>196.2</ele>
        <time>2021-07-03 12:29:39</time>
      </trkpt>
      <trkpt lat="29.19794" lon="-13.4618">
        <ele>196.8</ele>
        <time>2021-07-03 12:29:40</time>
      </trkpt>
      <trkpt lat="29.19795" lon="-13.46182">
        <ele>196.8</ele>
        <time>2021-07-03 12:29:41</time>
      </trkpt>
      <trkpt lat="29.19796" lon="-13.46183">
        <ele>197.2</ele>
        <time>2021-07-03 12:29:42</time>
      </trkpt>
      <trkpt lat="29.19797" lon="-13.46185">
        <ele>197.4</ele>
        <time>2021-07-03 12:29:43</time>
      </trkpt>
      <trkpt lat="29.19797" lon="-13.46187">
        <ele>197.4</ele>
        <time>2021-07-03 12:29:44</time>
      </trkpt>
      <trkpt lat="29.19798" lon="-13.46189">
        <ele>197.8</ele>
        <time>2021-07-03 12:29:45</time>
      </trkpt>
      <trkpt lat="29.19799" lon="-13.4619">
        <ele>197.8</ele>
        <time>2021-07-03 12:29:46</time>
      </trkpt>
      <trkpt lat="29.19799" lon="-13.46192">
        <ele>198.2</ele>
        <time>2021-07-03 12:29:47</time>
      </trkpt>
      <trkpt lat="29.198" lon="-13.46193">
        <ele>198.4</ele>
        <time>2021-07-03 12:29:48</time>
      </trkpt>
      <trkpt lat="29.198" lon="-13.46194">
        <ele>198.4</ele>
        <time>2021-07-03 12:29:49</time>
      </trkpt>
      <trkpt lat="29.19801" lon="-13.46196">
        <ele>198.8</ele>
        <time>2021-07-03 12:29:50</time>
      </trkpt>
      <trkpt lat="29.19801" lon="-13.46198">
        <ele>199.2</ele>
        <time>2021-07-03 12:29:51</time>
      </trkpt>
      <trkpt lat="29.19802" lon="-13.46199">
        <ele>199.4</ele>
        <time>2021-07-03 12:29:52</time>
      </trkpt>
      <trkpt lat="29.19802" lon="-13.46201">
        <ele>200.2</ele>
        <time>2021-07-03 12:29:53</time>
      </trkpt>
      <trkpt lat="29.19802" lon="-13.46203">
        <ele>200.2</ele>
        <time>2021-07-03 12:29:54</time>
      </trkpt>
      <trkpt lat="29.19802" lon="-13.46204">
        <ele>200.4</ele>
        <time>2021-07-03 12:29:55</time>
      </trkpt>
      <trkpt lat="29.19803" lon="-13.46206">
        <ele>200.4</ele>
        <time>2021-07-03 12:29:56</time>
      </trkpt>
      <trkpt lat="29.19803" lon="-13.46207">
        <ele>200.4</ele>
        <time>2021-07-03 12:29:57</time>
      </trkpt>
      <trkpt lat="29.19804" lon="-13.46208">
        <ele>200.4</ele>
        <time>2021-07-03 12:29:58</time>
      </trkpt>
      <trkpt lat="29.19805" lon="-13.4621">
        <ele>200.8</ele>
        <time>2021-07-03 12:29:59</time>
      </trkpt>
      <trkpt lat="29.19805" lon="-13.46212">
        <ele>201.2</ele>
        <time>2021-07-03 12:30:00</time>
      </trkpt>
      <trkpt lat="29.19806" lon="-13.46213">
        <ele>201.2</ele>
        <time>2021-07-03 12:30:01</time>
      </trkpt>
      <trkpt lat="29.19807" lon="-13.46215">
        <ele>202</ele>
        <time>2021-07-03 12:30:02</time>
      </trkpt>
      <trkpt lat="29.19808" lon="-13.46216">
        <ele>202.2</ele>
        <time>2021-07-03 12:30:03</time>
      </trkpt>
      <trkpt lat="29.19809" lon="-13.46218">
        <ele>202.4</ele>
        <time>2021-07-03 12:30:04</time>
      </trkpt>
      <trkpt lat="29.1981" lon="-13.46219">
        <ele>202.4</ele>
        <time>2021-07-03 12:30:05</time>
      </trkpt>
      <trkpt lat="29.19811" lon="-13.46221">
        <ele>203</ele>
        <time>2021-07-03 12:30:06</time>
      </trkpt>
      <trkpt lat="29.19812" lon="-13.46222">
        <ele>203</ele>
        <time>2021-07-03 12:30:07</time>
      </trkpt>
      <trkpt lat="29.19813" lon="-13.46224">
        <ele>203.6</ele>
        <time>2021-07-03 12:30:08</time>
      </trkpt>
      <trkpt lat="29.19814" lon="-13.46225">
        <ele>203.6</ele>
        <time>2021-07-03 12:30:09</time>
      </trkpt>
      <trkpt lat="29.19815" lon="-13.46227">
        <ele>203.6</ele>
        <time>2021-07-03 12:30:10</time>
      </trkpt>
      <trkpt lat="29.19816" lon="-13.46229">
        <ele>203.6</ele>
        <time>2021-07-03 12:30:11</time>
      </trkpt>
      <trkpt lat="29.19817" lon="-13.4623">
        <ele>204</ele>
        <time>2021-07-03 12:30:12</time>
      </trkpt>
      <trkpt lat="29.19818" lon="-13.46232">
        <ele>204</ele>
        <time>2021-07-03 12:30:13</time>
      </trkpt>
      <trkpt lat="29.19819" lon="-13.46234">
        <ele>204</ele>
        <time>2021-07-03 12:30:14</time>
      </trkpt>
      <trkpt lat="29.1982" lon="-13.46235">
        <ele>204.6</ele>
        <time>2021-07-03 12:30:15</time>
      </trkpt>
      <trkpt lat="29.19821" lon="-13.46237">
        <ele>205</ele>
        <time>2021-07-03 12:30:16</time>
      </trkpt>
      <trkpt lat="29.19822" lon="-13.46238">
        <ele>205</ele>
        <time>2021-07-03 12:30:17</time>
      </trkpt>
      <trkpt lat="29.19823" lon="-13.46239">
        <ele>205</ele>
        <time>2021-07-03 12:30:18</time>
      </trkpt>
      <trkpt lat="29.19823" lon="-13.46241">
        <ele>205.6</ele>
        <time>2021-07-03 12:30:19</time>
      </trkpt>
      <trkpt lat="29.19824" lon="-13.46242">
        <ele>205.6</ele>
        <time>2021-07-03 12:30:20</time>
      </trkpt>
      <trkpt lat="29.19825" lon="-13.46244">
        <ele>205.8</ele>
        <time>2021-07-03 12:30:21</time>
      </trkpt>
      <trkpt lat="29.19826" lon="-13.46245">
        <ele>206</ele>
        <time>2021-07-03 12:30:22</time>
      </trkpt>
      <trkpt lat="29.19827" lon="-13.46247">
        <ele>206</ele>
        <time>2021-07-03 12:30:23</time>
      </trkpt>
      <trkpt lat="29.19828" lon="-13.46248">
        <ele>206.4</ele>
        <time>2021-07-03 12:30:24</time>
      </trkpt>
      <trkpt lat="29.1983" lon="-13.4625">
        <ele>206.4</ele>
        <time>2021-07-03 12:30:25</time>
      </trkpt>
      <trkpt lat="29.19831" lon="-13.46251">
        <ele>206.4</ele>
        <time>2021-07-03 12:30:26</time>
      </trkpt>
      <trkpt lat="29.19832" lon="-13.46253">
        <ele>206.8</ele>
        <time>2021-07-03 12:30:27</time>
      </trkpt>
      <trkpt lat="29.19833" lon="-13.46254">
        <ele>206.8</ele>
        <time>2021-07-03 12:30:28</time>
      </trkpt>
      <trkpt lat="29.19834" lon="-13.46256">
        <ele>207</ele>
        <time>2021-07-03 12:30:29</time>
      </trkpt>
      <trkpt lat="29.19835" lon="-13.46257">
        <ele>207</ele>
        <time>2021-07-03 12:30:30</time>
      </trkpt>
      <trkpt lat="29.19837" lon="-13.46258">
        <ele>207.4</ele>
        <time>2021-07-03 12:30:31</time>
      </trkpt>
      <trkpt lat="29.19838" lon="-13.46259">
        <ele>207.4</ele>
        <time>2021-07-03 12:30:32</time>
      </trkpt>
      <trkpt lat="29.19839" lon="-13.46261">
        <ele>207.4</ele>
        <time>2021-07-03 12:30:33</time>
      </trkpt>
      <trkpt lat="29.19841" lon="-13.46262">
        <ele>207.8</ele>
        <time>2021-07-03 12:30:34</time>
      </trkpt>
      <trkpt lat="29.19842" lon="-13.46264">
        <ele>207.8</ele>
        <time>2021-07-03 12:30:35</time>
      </trkpt>
      <trkpt lat="29.19843" lon="-13.46265">
        <ele>208.2</ele>
        <time>2021-07-03 12:30:36</time>
      </trkpt>
      <trkpt lat="29.19844" lon="-13.46267">
        <ele>208.2</ele>
        <time>2021-07-03 12:30:37</time>
      </trkpt>
      <trkpt lat="29.19845" lon="-13.46268">
        <ele>208.6</ele>
        <time>2021-07-03 12:30:38</time>
      </trkpt>
      <trkpt lat="29.19847" lon="-13.46269">
        <ele>208.8</ele>
        <time>2021-07-03 12:30:39</time>
      </trkpt>
      <trkpt lat="29.19848" lon="-13.4627">
        <ele>208.8</ele>
        <time>2021-07-03 12:30:40</time>
      </trkpt>
      <trkpt lat="29.19849" lon="-13.46271">
        <ele>209.4</ele>
        <time>2021-07-03 12:30:41</time>
      </trkpt>
      <trkpt lat="29.1985" lon="-13.46273">
        <ele>209.6</ele>
        <time>2021-07-03 12:30:42</time>
      </trkpt>
      <trkpt lat="29.19851" lon="-13.46274">
        <ele>210</ele>
        <time>2021-07-03 12:30:43</time>
      </trkpt>
      <trkpt lat="29.19852" lon="-13.46275">
        <ele>210.4</ele>
        <time>2021-07-03 12:30:44</time>
      </trkpt>
      <trkpt lat="29.19854" lon="-13.46276">
        <ele>210.4</ele>
        <time>2021-07-03 12:30:45</time>
      </trkpt>
      <trkpt lat="29.19856" lon="-13.46276">
        <ele>210.4</ele>
        <time>2021-07-03 12:30:46</time>
      </trkpt>
      <trkpt lat="29.19857" lon="-13.46277">
        <ele>210.8</ele>
        <time>2021-07-03 12:30:47</time>
      </trkpt>
      <trkpt lat="29.19858" lon="-13.46279">
        <ele>210.8</ele>
        <time>2021-07-03 12:30:48</time>
      </trkpt>
      <trkpt lat="29.19858" lon="-13.4628">
        <ele>211.4</ele>
        <time>2021-07-03 12:30:49</time>
      </trkpt>
      <trkpt lat="29.19859" lon="-13.46282">
        <ele>211.8</ele>
        <time>2021-07-03 12:30:50</time>
      </trkpt>
      <trkpt lat="29.19859" lon="-13.46283">
        <ele>212.2</ele>
        <time>2021-07-03 12:30:51</time>
      </trkpt>
      <trkpt lat="29.1986" lon="-13.46285">
        <ele>212.2</ele>
        <time>2021-07-03 12:30:52</time>
      </trkpt>
      <trkpt lat="29.19861" lon="-13.46286">
        <ele>212.6</ele>
        <time>2021-07-03 12:30:53</time>
      </trkpt>
      <trkpt lat="29.19861" lon="-13.46288">
        <ele>212.8</ele>
        <time>2021-07-03 12:30:54</time>
      </trkpt>
      <trkpt lat="29.19862" lon="-13.46289">
        <ele>212.8</ele>
        <time>2021-07-03 12:30:55</time>
      </trkpt>
      <trkpt lat="29.19863" lon="-13.4629">
        <ele>213.4</ele>
        <time>2021-07-03 12:30:56</time>
      </trkpt>
      <trkpt lat="29.19864" lon="-13.46292">
        <ele>213.4</ele>
        <time>2021-07-03 12:30:57</time>
      </trkpt>
      <trkpt lat="29.19865" lon="-13.46294">
        <ele>213.8</ele>
        <time>2021-07-03 12:30:58</time>
      </trkpt>
      <trkpt lat="29.19865" lon="-13.46295">
        <ele>213.8</ele>
        <time>2021-07-03 12:30:59</time>
      </trkpt>
      <trkpt lat="29.19866" lon="-13.46297">
        <ele>214.2</ele>
        <time>2021-07-03 12:31:00</time>
      </trkpt>
      <trkpt lat="29.19867" lon="-13.46298">
        <ele>214.2</ele>
        <time>2021-07-03 12:31:01</time>
      </trkpt>
      <trkpt lat="29.19868" lon="-13.463">
        <ele>214.6</ele>
        <time>2021-07-03 12:31:02</time>
      </trkpt>
      <trkpt lat="29.19869" lon="-13.46301">
        <ele>214.8</ele>
        <time>2021-07-03 12:31:03</time>
      </trkpt>
      <trkpt lat="29.1987" lon="-13.46303">
        <ele>214.8</ele>
        <time>2021-07-03 12:31:04</time>
      </trkpt>
      <trkpt lat="29.1987" lon="-13.46304">
        <ele>215.4</ele>
        <time>2021-07-03 12:31:05</time>
      </trkpt>
      <trkpt lat="29.19871" lon="-13.46306">
        <ele>215.4</ele>
        <time>2021-07-03 12:31:06</time>
      </trkpt>
      <trkpt lat="29.19872" lon="-13.46308">
        <ele>215.8</ele>
        <time>2021-07-03 12:31:07</time>
      </trkpt>
      <trkpt lat="29.19873" lon="-13.46309">
        <ele>216.2</ele>
        <time>2021-07-03 12:31:08</time>
      </trkpt>
      <trkpt lat="29.19874" lon="-13.4631">
        <ele>216.4</ele>
        <time>2021-07-03 12:31:09</time>
      </trkpt>
      <trkpt lat="29.19875" lon="-13.46312">
        <ele>216.4</ele>
        <time>2021-07-03 12:31:10</time>
      </trkpt>
      <trkpt lat="29.19876" lon="-13.46313">
        <ele>216.8</ele>
        <time>2021-07-03 12:31:11</time>
      </trkpt>
      <trkpt lat="29.19876" lon="-13.46315">
        <ele>216.8</ele>
        <time>2021-07-03 12:31:12</time>
      </trkpt>
      <trkpt lat="29.19877" lon="-13.46316">
        <ele>216.8</ele>
        <time>2021-07-03 12:31:13</time>
      </trkpt>
      <trkpt lat="29.19878" lon="-13.46317">
        <ele>217.4</ele>
        <time>2021-07-03 12:31:14</time>
      </trkpt>
      <trkpt lat="29.19879" lon="-13.46319">
        <ele>217.4</ele>
        <time>2021-07-03 12:31:15</time>
      </trkpt>
      <trkpt lat="29.1988" lon="-13.4632">
        <ele>217.4</ele>
        <time>2021-07-03 12:31:16</time>
      </trkpt>
      <trkpt lat="29.19881" lon="-13.46321">
        <ele>217.8</ele>
        <time>2021-07-03 12:31:17</time>
      </trkpt>
      <trkpt lat="29.19882" lon="-13.46323">
        <ele>217.8</ele>
        <time>2021-07-03 12:31:18</time>
      </trkpt>
      <trkpt lat="29.19883" lon="-13.46324">
        <ele>218.2</ele>
        <time>2021-07-03 12:31:19</time>
      </trkpt>
      <trkpt lat="29.19884" lon="-13.46325">
        <ele>218.6</ele>
        <time>2021-07-03 12:31:20</time>
      </trkpt>
      <trkpt lat="29.19885" lon="-13.46327">
        <ele>218.6</ele>
        <time>2021-07-03 12:31:21</time>
      </trkpt>
      <trkpt lat="29.19886" lon="-13.46328">
        <ele>219.2</ele>
        <time>2021-07-03 12:31:22</time>
      </trkpt>
      <trkpt lat="29.19887" lon="-13.4633">
        <ele>219.2</ele>
        <time>2021-07-03 12:31:23</time>
      </trkpt>
      <trkpt lat="29.19887" lon="-13.46331">
        <ele>219.6</ele>
        <time>2021-07-03 12:31:24</time>
      </trkpt>
      <trkpt lat="29.19889" lon="-13.46332">
        <ele>219.6</ele>
        <time>2021-07-03 12:31:25</time>
      </trkpt>
      <trkpt lat="29.1989" lon="-13.46333">
        <ele>220</ele>
        <time>2021-07-03 12:31:26</time>
      </trkpt>
      <trkpt lat="29.19891" lon="-13.46334">
        <ele>220</ele>
        <time>2021-07-03 12:31:27</time>
      </trkpt>
      <trkpt lat="29.19892" lon="-13.46336">
        <ele>220.2</ele>
        <time>2021-07-03 12:31:28</time>
      </trkpt>
      <trkpt lat="29.19893" lon="-13.46337">
        <ele>220.2</ele>
        <time>2021-07-03 12:31:29</time>
      </trkpt>
      <trkpt lat="29.19895" lon="-13.46338">
        <ele>221</ele>
        <time>2021-07-03 12:31:30</time>
      </trkpt>
      <trkpt lat="29.19896" lon="-13.46339">
        <ele>221</ele>
        <time>2021-07-03 12:31:31</time>
      </trkpt>
      <trkpt lat="29.19897" lon="-13.4634">
        <ele>221</ele>
        <time>2021-07-03 12:31:32</time>
      </trkpt>
      <trkpt lat="29.19898" lon="-13.46341">
        <ele>221</ele>
        <time>2021-07-03 12:31:33</time>
      </trkpt>
      <trkpt lat="29.19899" lon="-13.46342">
        <ele>221</ele>
        <time>2021-07-03 12:31:34</time>
      </trkpt>
      <trkpt lat="29.19901" lon="-13.46343">
        <ele>221</ele>
        <time>2021-07-03 12:31:35</time>
      </trkpt>
      <trkpt lat="29.19902" lon="-13.46344">
        <ele>221.6</ele>
        <time>2021-07-03 12:31:36</time>
      </trkpt>
      <trkpt lat="29.19903" lon="-13.46345">
        <ele>221.8</ele>
        <time>2021-07-03 12:31:37</time>
      </trkpt>
      <trkpt lat="29.19905" lon="-13.46346">
        <ele>221.8</ele>
        <time>2021-07-03 12:31:38</time>
      </trkpt>
      <trkpt lat="29.19906" lon="-13.46347">
        <ele>221.6</ele>
        <time>2021-07-03 12:31:39</time>
      </trkpt>
      <trkpt lat="29.19907" lon="-13.46348">
        <ele>222</ele>
        <time>2021-07-03 12:31:40</time>
      </trkpt>
      <trkpt lat="29.19909" lon="-13.46349">
        <ele>222.2</ele>
        <time>2021-07-03 12:31:41</time>
      </trkpt>
      <trkpt lat="29.1991" lon="-13.46349">
        <ele>222.2</ele>
        <time>2021-07-03 12:31:42</time>
      </trkpt>
      <trkpt lat="29.19911" lon="-13.4635">
        <ele>222.2</ele>
        <time>2021-07-03 12:31:43</time>
      </trkpt>
      <trkpt lat="29.19913" lon="-13.46351">
        <ele>222.2</ele>
        <time>2021-07-03 12:31:44</time>
      </trkpt>
      <trkpt lat="29.19914" lon="-13.46351">
        <ele>222.2</ele>
        <time>2021-07-03 12:31:45</time>
      </trkpt>
      <trkpt lat="29.19915" lon="-13.46352">
        <ele>222.8</ele>
        <time>2021-07-03 12:31:46</time>
      </trkpt>
      <trkpt lat="29.19917" lon="-13.46352">
        <ele>223</ele>
        <time>2021-07-03 12:31:47</time>
      </trkpt>
      <trkpt lat="29.19918" lon="-13.46353">
        <ele>223.4</ele>
        <time>2021-07-03 12:31:48</time>
      </trkpt>
      <trkpt lat="29.19919" lon="-13.46354">
        <ele>223.4</ele>
        <time>2021-07-03 12:31:49</time>
      </trkpt>
      <trkpt lat="29.19921" lon="-13.46354">
        <ele>223.6</ele>
        <time>2021-07-03 12:31:50</time>
      </trkpt>
      <trkpt lat="29.19922" lon="-13.46354">
        <ele>224.2</ele>
        <time>2021-07-03 12:31:51</time>
      </trkpt>
      <trkpt lat="29.19924" lon="-13.46355">
        <ele>224.6</ele>
        <time>2021-07-03 12:31:52</time>
      </trkpt>
      <trkpt lat="29.19925" lon="-13.46355">
        <ele>224.8</ele>
        <time>2021-07-03 12:31:53</time>
      </trkpt>
      <trkpt lat="29.19926" lon="-13.46355">
        <ele>225.2</ele>
        <time>2021-07-03 12:31:54</time>
      </trkpt>
      <trkpt lat="29.19927" lon="-13.46355">
        <ele>225.4</ele>
        <time>2021-07-03 12:31:55</time>
      </trkpt>
      <trkpt lat="29.19929" lon="-13.46355">
        <ele>225.4</ele>
        <time>2021-07-03 12:31:56</time>
      </trkpt>
      <trkpt lat="29.1993" lon="-13.46356">
        <ele>225.4</ele>
        <time>2021-07-03 12:31:57</time>
      </trkpt>
      <trkpt lat="29.19931" lon="-13.46356">
        <ele>225.8</ele>
        <time>2021-07-03 12:31:58</time>
      </trkpt>
      <trkpt lat="29.19933" lon="-13.46355">
        <ele>225.8</ele>
        <time>2021-07-03 12:31:59</time>
      </trkpt>
      <trkpt lat="29.19934" lon="-13.46355">
        <ele>225.8</ele>
        <time>2021-07-03 12:32:00</time>
      </trkpt>
      <trkpt lat="29.19935" lon="-13.46355">
        <ele>225.8</ele>
        <time>2021-07-03 12:32:01</time>
      </trkpt>
      <trkpt lat="29.19936" lon="-13.46355">
        <ele>225.8</ele>
        <time>2021-07-03 12:32:02</time>
      </trkpt>
      <trkpt lat="29.19937" lon="-13.46355">
        <ele>226.4</ele>
        <time>2021-07-03 12:32:03</time>
      </trkpt>
      <trkpt lat="29.19939" lon="-13.46354">
        <ele>226.6</ele>
        <time>2021-07-03 12:32:04</time>
      </trkpt>
      <trkpt lat="29.1994" lon="-13.46353">
        <ele>227.2</ele>
        <time>2021-07-03 12:32:05</time>
      </trkpt>
      <trkpt lat="29.19941" lon="-13.46353">
        <ele>227.8</ele>
        <time>2021-07-03 12:32:06</time>
      </trkpt>
      <trkpt lat="29.19943" lon="-13.46352">
        <ele>228.2</ele>
        <time>2021-07-03 12:32:07</time>
      </trkpt>
      <trkpt lat="29.19944" lon="-13.46351">
        <ele>228.8</ele>
        <time>2021-07-03 12:32:08</time>
      </trkpt>
      <trkpt lat="29.19945" lon="-13.46351">
        <ele>228.8</ele>
        <time>2021-07-03 12:32:09</time>
      </trkpt>
      <trkpt lat="29.19947" lon="-13.46351">
        <ele>229</ele>
        <time>2021-07-03 12:32:10</time>
      </trkpt>
      <trkpt lat="29.19949" lon="-13.46351">
        <ele>229.6</ele>
        <time>2021-07-03 12:32:11</time>
      </trkpt>
      <trkpt lat="29.1995" lon="-13.4635">
        <ele>229.6</ele>
        <time>2021-07-03 12:32:12</time>
      </trkpt>
      <trkpt lat="29.19952" lon="-13.4635">
        <ele>229.8</ele>
        <time>2021-07-03 12:32:13</time>
      </trkpt>
      <trkpt lat="29.19953" lon="-13.46349">
        <ele>230.2</ele>
        <time>2021-07-03 12:32:14</time>
      </trkpt>
      <trkpt lat="29.19955" lon="-13.46349">
        <ele>230.6</ele>
        <time>2021-07-03 12:32:15</time>
      </trkpt>
      <trkpt lat="29.19957" lon="-13.46349">
        <ele>231</ele>
        <time>2021-07-03 12:32:16</time>
      </trkpt>
      <trkpt lat="29.19959" lon="-13.46349">
        <ele>231</ele>
        <time>2021-07-03 12:32:17</time>
      </trkpt>
      <trkpt lat="29.19961" lon="-13.4635">
        <ele>232</ele>
        <time>2021-07-03 12:32:18</time>
      </trkpt>
      <trkpt lat="29.19962" lon="-13.46351">
        <ele>232</ele>
        <time>2021-07-03 12:32:19</time>
      </trkpt>
      <trkpt lat="29.19964" lon="-13.46352">
        <ele>232.4</ele>
        <time>2021-07-03 12:32:20</time>
      </trkpt>
      <trkpt lat="29.19966" lon="-13.46353">
        <ele>232.4</ele>
        <time>2021-07-03 12:32:21</time>
      </trkpt>
      <trkpt lat="29.19967" lon="-13.46354">
        <ele>232.4</ele>
        <time>2021-07-03 12:32:22</time>
      </trkpt>
      <trkpt lat="29.19969" lon="-13.46355">
        <ele>232.4</ele>
        <time>2021-07-03 12:32:23</time>
      </trkpt>
      <trkpt lat="29.19971" lon="-13.46357">
        <ele>232.4</ele>
        <time>2021-07-03 12:32:24</time>
      </trkpt>
      <trkpt lat="29.19972" lon="-13.46358">
        <ele>232.4</ele>
        <time>2021-07-03 12:32:25</time>
      </trkpt>
      <trkpt lat="29.19974" lon="-13.4636">
        <ele>232.6</ele>
        <time>2021-07-03 12:32:26</time>
      </trkpt>
      <trkpt lat="29.19975" lon="-13.46362">
        <ele>232.6</ele>
        <time>2021-07-03 12:32:27</time>
      </trkpt>
      <trkpt lat="29.19976" lon="-13.46363">
        <ele>233</ele>
        <time>2021-07-03 12:32:28</time>
      </trkpt>
      <trkpt lat="29.19977" lon="-13.46365">
        <ele>233</ele>
        <time>2021-07-03 12:32:29</time>
      </trkpt>
      <trkpt lat="29.19979" lon="-13.46366">
        <ele>233.2</ele>
        <time>2021-07-03 12:32:30</time>
      </trkpt>
      <trkpt lat="29.1998" lon="-13.46367">
        <ele>233.2</ele>
        <time>2021-07-03 12:32:31</time>
      </trkpt>
      <trkpt lat="29.19982" lon="-13.46368">
        <ele>233.6</ele>
        <time>2021-07-03 12:32:32</time>
      </trkpt>
      <trkpt lat="29.19983" lon="-13.4637">
        <ele>233.6</ele>
        <time>2021-07-03 12:32:33</time>
      </trkpt>
      <trkpt lat="29.19984" lon="-13.46371">
        <ele>234.4</ele>
        <time>2021-07-03 12:32:34</time>
      </trkpt>
      <trkpt lat="29.19986" lon="-13.46373">
        <ele>234.4</ele>
        <time>2021-07-03 12:32:35</time>
      </trkpt>
      <trkpt lat="29.19988" lon="-13.46374">
        <ele>234.4</ele>
        <time>2021-07-03 12:32:36</time>
      </trkpt>
      <trkpt lat="29.19989" lon="-13.46376">
        <ele>234.4</ele>
        <time>2021-07-03 12:32:37</time>
      </trkpt>
      <trkpt lat="29.1999" lon="-13.46376">
        <ele>234.4</ele>
        <time>2021-07-03 12:32:38</time>
      </trkpt>
      <trkpt lat="29.1999" lon="-13.46377">
        <ele>234.4</ele>
        <time>2021-07-03 12:32:39</time>
      </trkpt>
      <trkpt lat="29.1999" lon="-13.46376">
        <ele>234</ele>
        <time>2021-07-03 12:32:40</time>
      </trkpt>
      <trkpt lat="29.1999" lon="-13.46376">
        <ele>233.8</ele>
        <time>2021-07-03 12:32:41</time>
      </trkpt>
      <trkpt lat="29.19991" lon="-13.46377">
        <ele>235</ele>
        <time>2021-07-03 12:32:42</time>
      </trkpt>
      <trkpt lat="29.19993" lon="-13.46377">
        <ele>235</ele>
        <time>2021-07-03 12:32:43</time>
      </trkpt>
      <trkpt lat="29.19994" lon="-13.46379">
        <ele>235.6</ele>
        <time>2021-07-03 12:33:01</time>
      </trkpt>
      <trkpt lat="29.19996" lon="-13.46381">
        <ele>235.6</ele>
        <time>2021-07-03 12:33:02</time>
      </trkpt>
      <trkpt lat="29.19997" lon="-13.46383">
        <ele>235.6</ele>
        <time>2021-07-03 12:33:03</time>
      </trkpt>
      <trkpt lat="29.19999" lon="-13.46384">
        <ele>235.6</ele>
        <time>2021-07-03 12:33:04</time>
      </trkpt>
      <trkpt lat="29.20001" lon="-13.46386">
        <ele>235.6</ele>
        <time>2021-07-03 12:33:05</time>
      </trkpt>
      <trkpt lat="29.20002" lon="-13.46388">
        <ele>235.6</ele>
        <time>2021-07-03 12:33:06</time>
      </trkpt>
      <trkpt lat="29.20004" lon="-13.46389">
        <ele>235.6</ele>
        <time>2021-07-03 12:33:07</time>
      </trkpt>
      <trkpt lat="29.20005" lon="-13.46391">
        <ele>236.6</ele>
        <time>2021-07-03 12:33:08</time>
      </trkpt>
      <trkpt lat="29.20007" lon="-13.46393">
        <ele>236.6</ele>
        <time>2021-07-03 12:33:09</time>
      </trkpt>
      <trkpt lat="29.20008" lon="-13.46394">
        <ele>236.2</ele>
        <time>2021-07-03 12:33:10</time>
      </trkpt>
      <trkpt lat="29.2001" lon="-13.46396">
        <ele>235.8</ele>
        <time>2021-07-03 12:33:11</time>
      </trkpt>
      <trkpt lat="29.20011" lon="-13.46398">
        <ele>235.4</ele>
        <time>2021-07-03 12:33:12</time>
      </trkpt>
      <trkpt lat="29.20012" lon="-13.464">
        <ele>235.4</ele>
        <time>2021-07-03 12:33:13</time>
      </trkpt>
      <trkpt lat="29.20013" lon="-13.46402">
        <ele>235.4</ele>
        <time>2021-07-03 12:33:14</time>
      </trkpt>
      <trkpt lat="29.20014" lon="-13.46404">
        <ele>235.6</ele>
        <time>2021-07-03 12:33:15</time>
      </trkpt>
      <trkpt lat="29.20014" lon="-13.46406">
        <ele>236.2</ele>
        <time>2021-07-03 12:33:16</time>
      </trkpt>
      <trkpt lat="29.20015" lon="-13.46408">
        <ele>236.2</ele>
        <time>2021-07-03 12:33:17</time>
      </trkpt>
      <trkpt lat="29.20016" lon="-13.4641">
        <ele>236.2</ele>
        <time>2021-07-03 12:33:18</time>
      </trkpt>
      <trkpt lat="29.20017" lon="-13.46411">
        <ele>236.4</ele>
        <time>2021-07-03 12:33:19</time>
      </trkpt>
      <trkpt lat="29.20018" lon="-13.46413">
        <ele>236.4</ele>
        <time>2021-07-03 12:33:20</time>
      </trkpt>
      <trkpt lat="29.20018" lon="-13.46415">
        <ele>236.4</ele>
        <time>2021-07-03 12:33:21</time>
      </trkpt>
      <trkpt lat="29.20019" lon="-13.46417">
        <ele>236.2</ele>
        <time>2021-07-03 12:33:22</time>
      </trkpt>
      <trkpt lat="29.2002" lon="-13.46419">
        <ele>236.4</ele>
        <time>2021-07-03 12:33:23</time>
      </trkpt>
      <trkpt lat="29.2002" lon="-13.46421">
        <ele>236.8</ele>
        <time>2021-07-03 12:33:24</time>
      </trkpt>
      <trkpt lat="29.20021" lon="-13.46422">
        <ele>237</ele>
        <time>2021-07-03 12:33:25</time>
      </trkpt>
      <trkpt lat="29.20021" lon="-13.46424">
        <ele>236.6</ele>
        <time>2021-07-03 12:33:26</time>
      </trkpt>
      <trkpt lat="29.20022" lon="-13.46425">
        <ele>236.6</ele>
        <time>2021-07-03 12:33:27</time>
      </trkpt>
      <trkpt lat="29.20022" lon="-13.46427">
        <ele>237.6</ele>
        <time>2021-07-03 12:33:28</time>
      </trkpt>
      <trkpt lat="29.20023" lon="-13.46428">
        <ele>237.8</ele>
        <time>2021-07-03 12:33:29</time>
      </trkpt>
      <trkpt lat="29.20024" lon="-13.46429">
        <ele>237.8</ele>
        <time>2021-07-03 12:33:30</time>
      </trkpt>
      <trkpt lat="29.20024" lon="-13.46431">
        <ele>237.8</ele>
        <time>2021-07-03 12:33:31</time>
      </trkpt>
      <trkpt lat="29.20025" lon="-13.46433">
        <ele>238.6</ele>
        <time>2021-07-03 12:33:32</time>
      </trkpt>
      <trkpt lat="29.20026" lon="-13.46434">
        <ele>238.6</ele>
        <time>2021-07-03 12:33:33</time>
      </trkpt>
      <trkpt lat="29.20026" lon="-13.46436">
        <ele>238.8</ele>
        <time>2021-07-03 12:33:34</time>
      </trkpt>
      <trkpt lat="29.20027" lon="-13.46437">
        <ele>239</ele>
        <time>2021-07-03 12:33:35</time>
      </trkpt>
      <trkpt lat="29.20028" lon="-13.46439">
        <ele>239</ele>
        <time>2021-07-03 12:33:36</time>
      </trkpt>
      <trkpt lat="29.20028" lon="-13.4644">
        <ele>239</ele>
        <time>2021-07-03 12:33:37</time>
      </trkpt>
      <trkpt lat="29.20029" lon="-13.46441">
        <ele>239.4</ele>
        <time>2021-07-03 12:33:38</time>
      </trkpt>
      <trkpt lat="29.2003" lon="-13.46443">
        <ele>240.4</ele>
        <time>2021-07-03 12:33:39</time>
      </trkpt>
      <trkpt lat="29.2003" lon="-13.46444">
        <ele>240.8</ele>
        <time>2021-07-03 12:33:40</time>
      </trkpt>
      <trkpt lat="29.20031" lon="-13.46446">
        <ele>241.2</ele>
        <time>2021-07-03 12:33:41</time>
      </trkpt>
      <trkpt lat="29.20032" lon="-13.46447">
        <ele>241.2</ele>
        <time>2021-07-03 12:33:42</time>
      </trkpt>
      <trkpt lat="29.20033" lon="-13.46449">
        <ele>241.8</ele>
        <time>2021-07-03 12:33:43</time>
      </trkpt>
      <trkpt lat="29.20034" lon="-13.4645">
        <ele>242.8</ele>
        <time>2021-07-03 12:33:44</time>
      </trkpt>
      <trkpt lat="29.20035" lon="-13.46452">
        <ele>242.8</ele>
        <time>2021-07-03 12:33:45</time>
      </trkpt>
      <trkpt lat="29.20036" lon="-13.46453">
        <ele>242.8</ele>
        <time>2021-07-03 12:33:46</time>
      </trkpt>
      <trkpt lat="29.20036" lon="-13.46454">
        <ele>243.4</ele>
        <time>2021-07-03 12:33:47</time>
      </trkpt>
      <trkpt lat="29.20037" lon="-13.46455">
        <ele>244.2</ele>
        <time>2021-07-03 12:33:48</time>
      </trkpt>
      <trkpt lat="29.20038" lon="-13.46456">
        <ele>244.2</ele>
        <time>2021-07-03 12:33:49</time>
      </trkpt>
      <trkpt lat="29.20038" lon="-13.46457">
        <ele>244.2</ele>
        <time>2021-07-03 12:33:50</time>
      </trkpt>
      <trkpt lat="29.20038" lon="-13.46458">
        <ele>244.2</ele>
        <time>2021-07-03 12:33:51</time>
      </trkpt>
      <trkpt lat="29.20039" lon="-13.46459">
        <ele>244.6</ele>
        <time>2021-07-03 12:33:52</time>
      </trkpt>
      <trkpt lat="29.2004" lon="-13.46461">
        <ele>244.8</ele>
        <time>2021-07-03 12:33:53</time>
      </trkpt>
      <trkpt lat="29.2004" lon="-13.46462">
        <ele>245.4</ele>
        <time>2021-07-03 12:33:54</time>
      </trkpt>
      <trkpt lat="29.2004" lon="-13.46463">
        <ele>245.8</ele>
        <time>2021-07-03 12:33:55</time>
      </trkpt>
      <trkpt lat="29.2004" lon="-13.46465">
        <ele>246</ele>
        <time>2021-07-03 12:33:56</time>
      </trkpt>
      <trkpt lat="29.2004" lon="-13.46466">
        <ele>246</ele>
        <time>2021-07-03 12:33:57</time>
      </trkpt>
      <trkpt lat="29.20041" lon="-13.46467">
        <ele>246.4</ele>
        <time>2021-07-03 12:33:58</time>
      </trkpt>
      <trkpt lat="29.20042" lon="-13.46468">
        <ele>246.8</ele>
        <time>2021-07-03 12:33:59</time>
      </trkpt>
      <trkpt lat="29.20042" lon="-13.46469">
        <ele>247</ele>
        <time>2021-07-03 12:34:00</time>
      </trkpt>
      <trkpt lat="29.20043" lon="-13.46469">
        <ele>247</ele>
        <time>2021-07-03 12:34:01</time>
      </trkpt>
      <trkpt lat="29.20044" lon="-13.4647">
        <ele>247.2</ele>
        <time>2021-07-03 12:34:02</time>
      </trkpt>
      <trkpt lat="29.20045" lon="-13.46471">
        <ele>247.2</ele>
        <time>2021-07-03 12:34:03</time>
      </trkpt>
      <trkpt lat="29.20045" lon="-13.46473">
        <ele>247.4</ele>
        <time>2021-07-03 12:34:04</time>
      </trkpt>
      <trkpt lat="29.20045" lon="-13.46475">
        <ele>247.8</ele>
        <time>2021-07-03 12:34:05</time>
      </trkpt>
      <trkpt lat="29.20045" lon="-13.46476">
        <ele>247.8</ele>
        <time>2021-07-03 12:34:06</time>
      </trkpt>
      <trkpt lat="29.20045" lon="-13.46477">
        <ele>248.2</ele>
        <time>2021-07-03 12:34:07</time>
      </trkpt>
      <trkpt lat="29.20046" lon="-13.46478">
        <ele>248.2</ele>
        <time>2021-07-03 12:34:08</time>
      </trkpt>
      <trkpt lat="29.20046" lon="-13.46479">
        <ele>248.4</ele>
        <time>2021-07-03 12:34:09</time>
      </trkpt>
      <trkpt lat="29.20046" lon="-13.46481">
        <ele>248.4</ele>
        <time>2021-07-03 12:34:10</time>
      </trkpt>
      <trkpt lat="29.20046" lon="-13.46483">
        <ele>248.8</ele>
        <time>2021-07-03 12:34:11</time>
      </trkpt>
      <trkpt lat="29.20047" lon="-13.46484">
        <ele>248.8</ele>
        <time>2021-07-03 12:34:12</time>
      </trkpt>
      <trkpt lat="29.20048" lon="-13.46485">
        <ele>249.2</ele>
        <time>2021-07-03 12:34:13</time>
      </trkpt>
      <trkpt lat="29.20049" lon="-13.46486">
        <ele>249.4</ele>
        <time>2021-07-03 12:34:14</time>
      </trkpt>
      <trkpt lat="29.20049" lon="-13.46488">
        <ele>249.8</ele>
        <time>2021-07-03 12:34:15</time>
      </trkpt>
      <trkpt lat="29.2005" lon="-13.46489">
        <ele>250.4</ele>
        <time>2021-07-03 12:34:16</time>
      </trkpt>
      <trkpt lat="29.2005" lon="-13.46491">
        <ele>250.4</ele>
        <time>2021-07-03 12:34:17</time>
      </trkpt>
      <trkpt lat="29.2005" lon="-13.46492">
        <ele>250.6</ele>
        <time>2021-07-03 12:34:18</time>
      </trkpt>
      <trkpt lat="29.2005" lon="-13.46494">
        <ele>250.8</ele>
        <time>2021-07-03 12:34:19</time>
      </trkpt>
      <trkpt lat="29.20051" lon="-13.46495">
        <ele>250.8</ele>
        <time>2021-07-03 12:34:20</time>
      </trkpt>
      <trkpt lat="29.20052" lon="-13.46497">
        <ele>251.2</ele>
        <time>2021-07-03 12:34:21</time>
      </trkpt>
      <trkpt lat="29.20053" lon="-13.46498">
        <ele>251.6</ele>
        <time>2021-07-03 12:34:22</time>
      </trkpt>
      <trkpt lat="29.20053" lon="-13.46499">
        <ele>252</ele>
        <time>2021-07-03 12:34:23</time>
      </trkpt>
      <trkpt lat="29.20054" lon="-13.46501">
        <ele>252.2</ele>
        <time>2021-07-03 12:34:24</time>
      </trkpt>
      <trkpt lat="29.20054" lon="-13.46502">
        <ele>252.6</ele>
        <time>2021-07-03 12:34:25</time>
      </trkpt>
      <trkpt lat="29.20055" lon="-13.46504">
        <ele>253</ele>
        <time>2021-07-03 12:34:26</time>
      </trkpt>
      <trkpt lat="29.20055" lon="-13.46505">
        <ele>253.8</ele>
        <time>2021-07-03 12:34:27</time>
      </trkpt>
      <trkpt lat="29.20057" lon="-13.46506">
        <ele>254</ele>
        <time>2021-07-03 12:34:28</time>
      </trkpt>
      <trkpt lat="29.20057" lon="-13.46508">
        <ele>254.2</ele>
        <time>2021-07-03 12:34:29</time>
      </trkpt>
      <trkpt lat="29.20058" lon="-13.46509">
        <ele>254.2</ele>
        <time>2021-07-03 12:34:30</time>
      </trkpt>
      <trkpt lat="29.20058" lon="-13.4651">
        <ele>254.2</ele>
        <time>2021-07-03 12:34:31</time>
      </trkpt>
      <trkpt lat="29.20059" lon="-13.46512">
        <ele>254.8</ele>
        <time>2021-07-03 12:34:32</time>
      </trkpt>
      <trkpt lat="29.20059" lon="-13.46513">
        <ele>254.8</ele>
        <time>2021-07-03 12:34:33</time>
      </trkpt>
      <trkpt lat="29.2006" lon="-13.46514">
        <ele>255.4</ele>
        <time>2021-07-03 12:34:34</time>
      </trkpt>
      <trkpt lat="29.2006" lon="-13.46516">
        <ele>255.8</ele>
        <time>2021-07-03 12:34:35</time>
      </trkpt>
      <trkpt lat="29.20061" lon="-13.46517">
        <ele>256.2</ele>
        <time>2021-07-03 12:34:36</time>
      </trkpt>
      <trkpt lat="29.20061" lon="-13.46519">
        <ele>256.2</ele>
        <time>2021-07-03 12:34:37</time>
      </trkpt>
      <trkpt lat="29.20062" lon="-13.4652">
        <ele>256.2</ele>
        <time>2021-07-03 12:34:38</time>
      </trkpt>
      <trkpt lat="29.20062" lon="-13.46521">
        <ele>256.2</ele>
        <time>2021-07-03 12:34:39</time>
      </trkpt>
      <trkpt lat="29.20063" lon="-13.46523">
        <ele>256.4</ele>
        <time>2021-07-03 12:34:40</time>
      </trkpt>
      <trkpt lat="29.20063" lon="-13.46524">
        <ele>256.4</ele>
        <time>2021-07-03 12:34:41</time>
      </trkpt>
      <trkpt lat="29.20064" lon="-13.46525">
        <ele>256.8</ele>
        <time>2021-07-03 12:34:42</time>
      </trkpt>
      <trkpt lat="29.20065" lon="-13.46526">
        <ele>257</ele>
        <time>2021-07-03 12:34:43</time>
      </trkpt>
      <trkpt lat="29.20066" lon="-13.46527">
        <ele>257.2</ele>
        <time>2021-07-03 12:34:44</time>
      </trkpt>
      <trkpt lat="29.20066" lon="-13.46529">
        <ele>257.6</ele>
        <time>2021-07-03 12:34:45</time>
      </trkpt>
      <trkpt lat="29.20067" lon="-13.4653">
        <ele>258</ele>
        <time>2021-07-03 12:34:46</time>
      </trkpt>
      <trkpt lat="29.20067" lon="-13.46531">
        <ele>258.4</ele>
        <time>2021-07-03 12:34:47</time>
      </trkpt>
      <trkpt lat="29.20068" lon="-13.46533">
        <ele>258.4</ele>
        <time>2021-07-03 12:34:48</time>
      </trkpt>
      <trkpt lat="29.20068" lon="-13.46534">
        <ele>259.2</ele>
        <time>2021-07-03 12:34:49</time>
      </trkpt>
      <trkpt lat="29.20069" lon="-13.46536">
        <ele>259.2</ele>
        <time>2021-07-03 12:34:50</time>
      </trkpt>
      <trkpt lat="29.20069" lon="-13.46537">
        <ele>259.2</ele>
        <time>2021-07-03 12:34:51</time>
      </trkpt>
      <trkpt lat="29.20069" lon="-13.46538">
        <ele>259.4</ele>
        <time>2021-07-03 12:34:52</time>
      </trkpt>
      <trkpt lat="29.2007" lon="-13.4654">
        <ele>259.8</ele>
        <time>2021-07-03 12:34:53</time>
      </trkpt>
      <trkpt lat="29.20071" lon="-13.46541">
        <ele>259.8</ele>
        <time>2021-07-03 12:34:54</time>
      </trkpt>
      <trkpt lat="29.20071" lon="-13.46542">
        <ele>259.8</ele>
        <time>2021-07-03 12:34:55</time>
      </trkpt>
      <trkpt lat="29.20072" lon="-13.46544">
        <ele>260.2</ele>
        <time>2021-07-03 12:34:56</time>
      </trkpt>
      <trkpt lat="29.20072" lon="-13.46545">
        <ele>260.6</ele>
        <time>2021-07-03 12:34:57</time>
      </trkpt>
      <trkpt lat="29.20073" lon="-13.46547">
        <ele>260.6</ele>
        <time>2021-07-03 12:34:58</time>
      </trkpt>
      <trkpt lat="29.20074" lon="-13.46548">
        <ele>260.6</ele>
        <time>2021-07-03 12:34:59</time>
      </trkpt>
      <trkpt lat="29.20074" lon="-13.4655">
        <ele>260.6</ele>
        <time>2021-07-03 12:35:00</time>
      </trkpt>
      <trkpt lat="29.20075" lon="-13.46551">
        <ele>260.8</ele>
        <time>2021-07-03 12:35:01</time>
      </trkpt>
      <trkpt lat="29.20075" lon="-13.46553">
        <ele>261.4</ele>
        <time>2021-07-03 12:35:02</time>
      </trkpt>
      <trkpt lat="29.20076" lon="-13.46554">
        <ele>261.4</ele>
        <time>2021-07-03 12:35:03</time>
      </trkpt>
      <trkpt lat="29.20077" lon="-13.46555">
        <ele>261.8</ele>
        <time>2021-07-03 12:35:04</time>
      </trkpt>
      <trkpt lat="29.20077" lon="-13.46556">
        <ele>261.8</ele>
        <time>2021-07-03 12:35:05</time>
      </trkpt>
      <trkpt lat="29.20078" lon="-13.46558">
        <ele>261.8</ele>
        <time>2021-07-03 12:35:06</time>
      </trkpt>
      <trkpt lat="29.20078" lon="-13.4656">
        <ele>262</ele>
        <time>2021-07-03 12:35:07</time>
      </trkpt>
      <trkpt lat="29.20078" lon="-13.46561">
        <ele>262</ele>
        <time>2021-07-03 12:35:08</time>
      </trkpt>
      <trkpt lat="29.20079" lon="-13.46562">
        <ele>262.6</ele>
        <time>2021-07-03 12:35:09</time>
      </trkpt>
      <trkpt lat="29.2008" lon="-13.46564">
        <ele>262.6</ele>
        <time>2021-07-03 12:35:10</time>
      </trkpt>
      <trkpt lat="29.2008" lon="-13.46565">
        <ele>263</ele>
        <time>2021-07-03 12:35:11</time>
      </trkpt>
      <trkpt lat="29.20081" lon="-13.46567">
        <ele>263</ele>
        <time>2021-07-03 12:35:12</time>
      </trkpt>
      <trkpt lat="29.20081" lon="-13.46568">
        <ele>263.2</ele>
        <time>2021-07-03 12:35:13</time>
      </trkpt>
      <trkpt lat="29.20082" lon="-13.46569">
        <ele>263.2</ele>
        <time>2021-07-03 12:35:14</time>
      </trkpt>
      <trkpt lat="29.20083" lon="-13.46571">
        <ele>263.2</ele>
        <time>2021-07-03 12:35:15</time>
      </trkpt>
      <trkpt lat="29.20084" lon="-13.46572">
        <ele>263.8</ele>
        <time>2021-07-03 12:35:16</time>
      </trkpt>
      <trkpt lat="29.20084" lon="-13.46574">
        <ele>264</ele>
        <time>2021-07-03 12:35:17</time>
      </trkpt>
      <trkpt lat="29.20085" lon="-13.46575">
        <ele>264.2</ele>
        <time>2021-07-03 12:35:18</time>
      </trkpt>
      <trkpt lat="29.20086" lon="-13.46577">
        <ele>264.2</ele>
        <time>2021-07-03 12:35:19</time>
      </trkpt>
      <trkpt lat="29.20086" lon="-13.46579">
        <ele>264.8</ele>
        <time>2021-07-03 12:35:20</time>
      </trkpt>
      <trkpt lat="29.20087" lon="-13.46581">
        <ele>264.8</ele>
        <time>2021-07-03 12:35:21</time>
      </trkpt>
      <trkpt lat="29.20087" lon="-13.46583">
        <ele>265</ele>
        <time>2021-07-03 12:35:22</time>
      </trkpt>
      <trkpt lat="29.20088" lon="-13.46584">
        <ele>265.8</ele>
        <time>2021-07-03 12:35:23</time>
      </trkpt>
      <trkpt lat="29.20088" lon="-13.46586">
        <ele>266.4</ele>
        <time>2021-07-03 12:35:24</time>
      </trkpt>
      <trkpt lat="29.20088" lon="-13.46588">
        <ele>266.4</ele>
        <time>2021-07-03 12:35:25</time>
      </trkpt>
      <trkpt lat="29.20089" lon="-13.46589">
        <ele>266.8</ele>
        <time>2021-07-03 12:35:26</time>
      </trkpt>
      <trkpt lat="29.20089" lon="-13.46591">
        <ele>266.8</ele>
        <time>2021-07-03 12:35:27</time>
      </trkpt>
      <trkpt lat="29.2009" lon="-13.46592">
        <ele>266.8</ele>
        <time>2021-07-03 12:35:28</time>
      </trkpt>
      <trkpt lat="29.2009" lon="-13.46594">
        <ele>267.2</ele>
        <time>2021-07-03 12:35:29</time>
      </trkpt>
      <trkpt lat="29.2009" lon="-13.46596">
        <ele>267.2</ele>
        <time>2021-07-03 12:35:30</time>
      </trkpt>
      <trkpt lat="29.20091" lon="-13.46597">
        <ele>267.6</ele>
        <time>2021-07-03 12:35:31</time>
      </trkpt>
      <trkpt lat="29.20092" lon="-13.466">
        <ele>267.6</ele>
        <time>2021-07-03 12:35:32</time>
      </trkpt>
      <trkpt lat="29.20093" lon="-13.46602">
        <ele>268.2</ele>
        <time>2021-07-03 12:35:33</time>
      </trkpt>
      <trkpt lat="29.20094" lon="-13.46603">
        <ele>268.4</ele>
        <time>2021-07-03 12:35:34</time>
      </trkpt>
      <trkpt lat="29.20095" lon="-13.46605">
        <ele>268.8</ele>
        <time>2021-07-03 12:35:35</time>
      </trkpt>
      <trkpt lat="29.20095" lon="-13.46607">
        <ele>268.8</ele>
        <time>2021-07-03 12:35:36</time>
      </trkpt>
      <trkpt lat="29.20096" lon="-13.46609">
        <ele>269</ele>
        <time>2021-07-03 12:35:37</time>
      </trkpt>
      <trkpt lat="29.20097" lon="-13.46611">
        <ele>269</ele>
        <time>2021-07-03 12:35:38</time>
      </trkpt>
      <trkpt lat="29.20098" lon="-13.46613">
        <ele>269.2</ele>
        <time>2021-07-03 12:35:39</time>
      </trkpt>
      <trkpt lat="29.20098" lon="-13.46615">
        <ele>269.2</ele>
        <time>2021-07-03 12:35:40</time>
      </trkpt>
      <trkpt lat="29.20099" lon="-13.46616">
        <ele>269.8</ele>
        <time>2021-07-03 12:35:41</time>
      </trkpt>
      <trkpt lat="29.201" lon="-13.46618">
        <ele>269.8</ele>
        <time>2021-07-03 12:35:42</time>
      </trkpt>
      <trkpt lat="29.20101" lon="-13.4662">
        <ele>269.8</ele>
        <time>2021-07-03 12:35:43</time>
      </trkpt>
      <trkpt lat="29.20101" lon="-13.46622">
        <ele>269.8</ele>
        <time>2021-07-03 12:35:44</time>
      </trkpt>
      <trkpt lat="29.20102" lon="-13.46624">
        <ele>270.2</ele>
        <time>2021-07-03 12:35:45</time>
      </trkpt>
      <trkpt lat="29.20103" lon="-13.46626">
        <ele>270.6</ele>
        <time>2021-07-03 12:35:46</time>
      </trkpt>
      <trkpt lat="29.20104" lon="-13.46628">
        <ele>270.6</ele>
        <time>2021-07-03 12:35:47</time>
      </trkpt>
      <trkpt lat="29.20105" lon="-13.46629">
        <ele>270.8</ele>
        <time>2021-07-03 12:35:48</time>
      </trkpt>
      <trkpt lat="29.20105" lon="-13.46631">
        <ele>270.8</ele>
        <time>2021-07-03 12:35:49</time>
      </trkpt>
      <trkpt lat="29.20106" lon="-13.46633">
        <ele>271</ele>
        <time>2021-07-03 12:35:50</time>
      </trkpt>
      <trkpt lat="29.20107" lon="-13.46635">
        <ele>271</ele>
        <time>2021-07-03 12:35:51</time>
      </trkpt>
      <trkpt lat="29.20108" lon="-13.46637">
        <ele>271</ele>
        <time>2021-07-03 12:35:52</time>
      </trkpt>
      <trkpt lat="29.20109" lon="-13.46639">
        <ele>271.2</ele>
        <time>2021-07-03 12:35:53</time>
      </trkpt>
      <trkpt lat="29.2011" lon="-13.4664">
        <ele>271.2</ele>
        <time>2021-07-03 12:35:54</time>
      </trkpt>
      <trkpt lat="29.20111" lon="-13.46642">
        <ele>271.2</ele>
        <time>2021-07-03 12:35:55</time>
      </trkpt>
      <trkpt lat="29.20111" lon="-13.46644">
        <ele>271.2</ele>
        <time>2021-07-03 12:35:56</time>
      </trkpt>
      <trkpt lat="29.20112" lon="-13.46647">
        <ele>271.6</ele>
        <time>2021-07-03 12:35:57</time>
      </trkpt>
      <trkpt lat="29.20113" lon="-13.46649">
        <ele>271.6</ele>
        <time>2021-07-03 12:35:58</time>
      </trkpt>
      <trkpt lat="29.20114" lon="-13.46651">
        <ele>271.8</ele>
        <time>2021-07-03 12:35:59</time>
      </trkpt>
      <trkpt lat="29.20115" lon="-13.46653">
        <ele>271.8</ele>
        <time>2021-07-03 12:36:00</time>
      </trkpt>
      <trkpt lat="29.20116" lon="-13.46655">
        <ele>272.2</ele>
        <time>2021-07-03 12:36:01</time>
      </trkpt>
      <trkpt lat="29.20117" lon="-13.46657">
        <ele>272.2</ele>
        <time>2021-07-03 12:36:02</time>
      </trkpt>
      <trkpt lat="29.20118" lon="-13.46659">
        <ele>272.6</ele>
        <time>2021-07-03 12:36:03</time>
      </trkpt>
      <trkpt lat="29.20119" lon="-13.46661">
        <ele>273</ele>
        <time>2021-07-03 12:36:04</time>
      </trkpt>
      <trkpt lat="29.2012" lon="-13.46663">
        <ele>273</ele>
        <time>2021-07-03 12:36:05</time>
      </trkpt>
      <trkpt lat="29.20121" lon="-13.46665">
        <ele>273.4</ele>
        <time>2021-07-03 12:36:06</time>
      </trkpt>
      <trkpt lat="29.20122" lon="-13.46668">
        <ele>273.4</ele>
        <time>2021-07-03 12:36:07</time>
      </trkpt>
      <trkpt lat="29.20123" lon="-13.4667">
        <ele>273.4</ele>
        <time>2021-07-03 12:36:08</time>
      </trkpt>
      <trkpt lat="29.20124" lon="-13.46672">
        <ele>273.6</ele>
        <time>2021-07-03 12:36:09</time>
      </trkpt>
      <trkpt lat="29.20125" lon="-13.46674">
        <ele>273.6</ele>
        <time>2021-07-03 12:36:10</time>
      </trkpt>
      <trkpt lat="29.20126" lon="-13.46676">
        <ele>274.2</ele>
        <time>2021-07-03 12:36:11</time>
      </trkpt>
      <trkpt lat="29.20127" lon="-13.46678">
        <ele>274.2</ele>
        <time>2021-07-03 12:36:12</time>
      </trkpt>
      <trkpt lat="29.20128" lon="-13.4668">
        <ele>274.2</ele>
        <time>2021-07-03 12:36:13</time>
      </trkpt>
      <trkpt lat="29.20129" lon="-13.46682">
        <ele>274.2</ele>
        <time>2021-07-03 12:36:14</time>
      </trkpt>
      <trkpt lat="29.20129" lon="-13.46684">
        <ele>276</ele>
        <time>2021-07-03 12:36:15</time>
      </trkpt>
      <trkpt lat="29.2013" lon="-13.46685">
        <ele>275.4</ele>
        <time>2021-07-03 12:36:16</time>
      </trkpt>
      <trkpt lat="29.2013" lon="-13.46687">
        <ele>275.4</ele>
        <time>2021-07-03 12:36:17</time>
      </trkpt>
      <trkpt lat="29.20131" lon="-13.46688">
        <ele>274.8</ele>
        <time>2021-07-03 12:36:18</time>
      </trkpt>
      <trkpt lat="29.20132" lon="-13.4669">
        <ele>274.8</ele>
        <time>2021-07-03 12:36:19</time>
      </trkpt>
      <trkpt lat="29.20132" lon="-13.46692">
        <ele>274.8</ele>
        <time>2021-07-03 12:36:20</time>
      </trkpt>
      <trkpt lat="29.20134" lon="-13.46694">
        <ele>274.8</ele>
        <time>2021-07-03 12:36:21</time>
      </trkpt>
      <trkpt lat="29.20135" lon="-13.46695">
        <ele>274.8</ele>
        <time>2021-07-03 12:36:22</time>
      </trkpt>
      <trkpt lat="29.20136" lon="-13.46697">
        <ele>274.6</ele>
        <time>2021-07-03 12:36:23</time>
      </trkpt>
      <trkpt lat="29.20137" lon="-13.46699">
        <ele>274.6</ele>
        <time>2021-07-03 12:36:24</time>
      </trkpt>
      <trkpt lat="29.20138" lon="-13.46701">
        <ele>274.6</ele>
        <time>2021-07-03 12:36:25</time>
      </trkpt>
      <trkpt lat="29.20139" lon="-13.46703">
        <ele>275</ele>
        <time>2021-07-03 12:36:26</time>
      </trkpt>
      <trkpt lat="29.20141" lon="-13.46705">
        <ele>275</ele>
        <time>2021-07-03 12:36:27</time>
      </trkpt>
      <trkpt lat="29.20142" lon="-13.46707">
        <ele>275.2</ele>
        <time>2021-07-03 12:36:28</time>
      </trkpt>
      <trkpt lat="29.20143" lon="-13.46709">
        <ele>275.2</ele>
        <time>2021-07-03 12:36:29</time>
      </trkpt>
      <trkpt lat="29.20145" lon="-13.46711">
        <ele>275.6</ele>
        <time>2021-07-03 12:36:30</time>
      </trkpt>
      <trkpt lat="29.20147" lon="-13.46713">
        <ele>275.8</ele>
        <time>2021-07-03 12:36:31</time>
      </trkpt>
      <trkpt lat="29.20148" lon="-13.46715">
        <ele>275.8</ele>
        <time>2021-07-03 12:36:32</time>
      </trkpt>
      <trkpt lat="29.2015" lon="-13.46717">
        <ele>275.8</ele>
        <time>2021-07-03 12:36:33</time>
      </trkpt>
      <trkpt lat="29.20152" lon="-13.46719">
        <ele>275.8</ele>
        <time>2021-07-03 12:36:34</time>
      </trkpt>
      <trkpt lat="29.20153" lon="-13.46721">
        <ele>275.8</ele>
        <time>2021-07-03 12:36:35</time>
      </trkpt>
      <trkpt lat="29.20155" lon="-13.46722">
        <ele>276.2</ele>
        <time>2021-07-03 12:36:36</time>
      </trkpt>
      <trkpt lat="29.20157" lon="-13.46724">
        <ele>276.2</ele>
        <time>2021-07-03 12:36:37</time>
      </trkpt>
      <trkpt lat="29.20158" lon="-13.46726">
        <ele>276.8</ele>
        <time>2021-07-03 12:36:38</time>
      </trkpt>
      <trkpt lat="29.2016" lon="-13.46727">
        <ele>276.8</ele>
        <time>2021-07-03 12:36:39</time>
      </trkpt>
      <trkpt lat="29.20161" lon="-13.46729">
        <ele>276.8</ele>
        <time>2021-07-03 12:36:40</time>
      </trkpt>
      <trkpt lat="29.20163" lon="-13.46731">
        <ele>276.8</ele>
        <time>2021-07-03 12:36:41</time>
      </trkpt>
      <trkpt lat="29.20165" lon="-13.46733">
        <ele>277</ele>
        <time>2021-07-03 12:36:42</time>
      </trkpt>
      <trkpt lat="29.20167" lon="-13.46735">
        <ele>277</ele>
        <time>2021-07-03 12:36:43</time>
      </trkpt>
      <trkpt lat="29.20169" lon="-13.46737">
        <ele>277</ele>
        <time>2021-07-03 12:36:44</time>
      </trkpt>
      <trkpt lat="29.2017" lon="-13.46738">
        <ele>277</ele>
        <time>2021-07-03 12:36:45</time>
      </trkpt>
      <trkpt lat="29.20172" lon="-13.4674">
        <ele>277.4</ele>
        <time>2021-07-03 12:36:46</time>
      </trkpt>
      <trkpt lat="29.20174" lon="-13.46742">
        <ele>277.4</ele>
        <time>2021-07-03 12:36:47</time>
      </trkpt>
      <trkpt lat="29.20176" lon="-13.46744">
        <ele>277.8</ele>
        <time>2021-07-03 12:36:48</time>
      </trkpt>
      <trkpt lat="29.20177" lon="-13.46746">
        <ele>277.8</ele>
        <time>2021-07-03 12:36:49</time>
      </trkpt>
      <trkpt lat="29.20178" lon="-13.46749">
        <ele>278.4</ele>
        <time>2021-07-03 12:36:50</time>
      </trkpt>
      <trkpt lat="29.20179" lon="-13.46751">
        <ele>278.6</ele>
        <time>2021-07-03 12:36:51</time>
      </trkpt>
      <trkpt lat="29.20181" lon="-13.46754">
        <ele>278.6</ele>
        <time>2021-07-03 12:36:52</time>
      </trkpt>
      <trkpt lat="29.20182" lon="-13.46756">
        <ele>278.8</ele>
        <time>2021-07-03 12:36:53</time>
      </trkpt>
      <trkpt lat="29.20183" lon="-13.46759">
        <ele>279</ele>
        <time>2021-07-03 12:36:54</time>
      </trkpt>
      <trkpt lat="29.20184" lon="-13.46762">
        <ele>279</ele>
        <time>2021-07-03 12:36:55</time>
      </trkpt>
      <trkpt lat="29.20184" lon="-13.46765">
        <ele>279.6</ele>
        <time>2021-07-03 12:36:56</time>
      </trkpt>
      <trkpt lat="29.20185" lon="-13.46768">
        <ele>279.8</ele>
        <time>2021-07-03 12:36:57</time>
      </trkpt>
      <trkpt lat="29.20186" lon="-13.46774">
        <ele>279.8</ele>
        <time>2021-07-03 12:36:58</time>
      </trkpt>
      <trkpt lat="29.20187" lon="-13.46776">
        <ele>279.8</ele>
        <time>2021-07-03 12:36:59</time>
      </trkpt>
      <trkpt lat="29.20187" lon="-13.46779">
        <ele>280</ele>
        <time>2021-07-03 12:37:00</time>
      </trkpt>
      <trkpt lat="29.20188" lon="-13.46782">
        <ele>280</ele>
        <time>2021-07-03 12:37:01</time>
      </trkpt>
      <trkpt lat="29.20188" lon="-13.46785">
        <ele>280</ele>
        <time>2021-07-03 12:37:02</time>
      </trkpt>
      <trkpt lat="29.20189" lon="-13.46788">
        <ele>280</ele>
        <time>2021-07-03 12:37:03</time>
      </trkpt>
      <trkpt lat="29.2019" lon="-13.46792">
        <ele>280.2</ele>
        <time>2021-07-03 12:37:04</time>
      </trkpt>
      <trkpt lat="29.20191" lon="-13.46795">
        <ele>280.2</ele>
        <time>2021-07-03 12:37:05</time>
      </trkpt>
      <trkpt lat="29.20191" lon="-13.46798">
        <ele>280.2</ele>
        <time>2021-07-03 12:37:06</time>
      </trkpt>
      <trkpt lat="29.20192" lon="-13.46801">
        <ele>280.4</ele>
        <time>2021-07-03 12:37:07</time>
      </trkpt>
      <trkpt lat="29.20192" lon="-13.46804">
        <ele>280.4</ele>
        <time>2021-07-03 12:37:08</time>
      </trkpt>
      <trkpt lat="29.20193" lon="-13.46807">
        <ele>280.4</ele>
        <time>2021-07-03 12:37:09</time>
      </trkpt>
      <trkpt lat="29.20194" lon="-13.46811">
        <ele>280.4</ele>
        <time>2021-07-03 12:37:10</time>
      </trkpt>
      <trkpt lat="29.20194" lon="-13.46814">
        <ele>280.4</ele>
        <time>2021-07-03 12:37:11</time>
      </trkpt>
      <trkpt lat="29.20195" lon="-13.46817">
        <ele>280.4</ele>
        <time>2021-07-03 12:37:12</time>
      </trkpt>
      <trkpt lat="29.20195" lon="-13.46821">
        <ele>280.4</ele>
        <time>2021-07-03 12:37:13</time>
      </trkpt>
      <trkpt lat="29.20196" lon="-13.46824">
        <ele>280.8</ele>
        <time>2021-07-03 12:37:14</time>
      </trkpt>
      <trkpt lat="29.20196" lon="-13.46828">
        <ele>280.8</ele>
        <time>2021-07-03 12:37:15</time>
      </trkpt>
      <trkpt lat="29.20197" lon="-13.46831">
        <ele>281.2</ele>
        <time>2021-07-03 12:37:16</time>
      </trkpt>
      <trkpt lat="29.20197" lon="-13.46835">
        <ele>281.2</ele>
        <time>2021-07-03 12:37:17</time>
      </trkpt>
      <trkpt lat="29.20198" lon="-13.46839">
        <ele>281.2</ele>
        <time>2021-07-03 12:37:18</time>
      </trkpt>
      <trkpt lat="29.20199" lon="-13.46843">
        <ele>281.2</ele>
        <time>2021-07-03 12:37:19</time>
      </trkpt>
      <trkpt lat="29.20199" lon="-13.46847">
        <ele>280.8</ele>
        <time>2021-07-03 12:37:20</time>
      </trkpt>
      <trkpt lat="29.202" lon="-13.46851">
        <ele>280.8</ele>
        <time>2021-07-03 12:37:21</time>
      </trkpt>
      <trkpt lat="29.20201" lon="-13.46854">
        <ele>280.8</ele>
        <time>2021-07-03 12:37:22</time>
      </trkpt>
      <trkpt lat="29.20201" lon="-13.46858">
        <ele>280.8</ele>
        <time>2021-07-03 12:37:23</time>
      </trkpt>
      <trkpt lat="29.20202" lon="-13.46862">
        <ele>280.8</ele>
        <time>2021-07-03 12:37:24</time>
      </trkpt>
      <trkpt lat="29.20203" lon="-13.46866">
        <ele>280.8</ele>
        <time>2021-07-03 12:37:25</time>
      </trkpt>
      <trkpt lat="29.20204" lon="-13.46871">
        <ele>280.8</ele>
        <time>2021-07-03 12:37:26</time>
      </trkpt>
      <trkpt lat="29.20204" lon="-13.46875">
        <ele>280.8</ele>
        <time>2021-07-03 12:37:27</time>
      </trkpt>
      <trkpt lat="29.20205" lon="-13.46879">
        <ele>280.8</ele>
        <time>2021-07-03 12:37:28</time>
      </trkpt>
      <trkpt lat="29.20206" lon="-13.46884">
        <ele>280.8</ele>
        <time>2021-07-03 12:37:29</time>
      </trkpt>
      <trkpt lat="29.20207" lon="-13.46888">
        <ele>280.8</ele>
        <time>2021-07-03 12:37:30</time>
      </trkpt>
      <trkpt lat="29.20208" lon="-13.46892">
        <ele>280.8</ele>
        <time>2021-07-03 12:37:31</time>
      </trkpt>
      <trkpt lat="29.20208" lon="-13.46896">
        <ele>280.8</ele>
        <time>2021-07-03 12:37:32</time>
      </trkpt>
      <trkpt lat="29.20209" lon="-13.469">
        <ele>280.8</ele>
        <time>2021-07-03 12:37:33</time>
      </trkpt>
      <trkpt lat="29.20209" lon="-13.46905">
        <ele>280.8</ele>
        <time>2021-07-03 12:37:34</time>
      </trkpt>
      <trkpt lat="29.20209" lon="-13.46911">
        <ele>280.8</ele>
        <time>2021-07-03 12:37:35</time>
      </trkpt>
      <trkpt lat="29.2021" lon="-13.46916">
        <ele>280.4</ele>
        <time>2021-07-03 12:37:36</time>
      </trkpt>
      <trkpt lat="29.2021" lon="-13.46922">
        <ele>280.2</ele>
        <time>2021-07-03 12:37:37</time>
      </trkpt>
      <trkpt lat="29.2021" lon="-13.46928">
        <ele>280.2</ele>
        <time>2021-07-03 12:37:38</time>
      </trkpt>
      <trkpt lat="29.20211" lon="-13.46933">
        <ele>280.4</ele>
        <time>2021-07-03 12:37:39</time>
      </trkpt>
      <trkpt lat="29.20213" lon="-13.46938">
        <ele>281.2</ele>
        <time>2021-07-03 12:37:40</time>
      </trkpt>
      <trkpt lat="29.20214" lon="-13.46944">
        <ele>280.2</ele>
        <time>2021-07-03 12:37:41</time>
      </trkpt>
      <trkpt lat="29.20216" lon="-13.46949">
        <ele>279.8</ele>
        <time>2021-07-03 12:37:42</time>
      </trkpt>
      <trkpt lat="29.20217" lon="-13.46955">
        <ele>279.2</ele>
        <time>2021-07-03 12:37:43</time>
      </trkpt>
      <trkpt lat="29.20218" lon="-13.46961">
        <ele>279</ele>
        <time>2021-07-03 12:37:44</time>
      </trkpt>
      <trkpt lat="29.20219" lon="-13.46968">
        <ele>279</ele>
        <time>2021-07-03 12:37:45</time>
      </trkpt>
      <trkpt lat="29.20219" lon="-13.46975">
        <ele>278.4</ele>
        <time>2021-07-03 12:37:46</time>
      </trkpt>
      <trkpt lat="29.20219" lon="-13.46982">
        <ele>277.8</ele>
        <time>2021-07-03 12:37:47</time>
      </trkpt>
      <trkpt lat="29.20219" lon="-13.4699">
        <ele>277.4</ele>
        <time>2021-07-03 12:37:48</time>
      </trkpt>
      <trkpt lat="29.20219" lon="-13.46997">
        <ele>277</ele>
        <time>2021-07-03 12:37:49</time>
      </trkpt>
      <trkpt lat="29.20218" lon="-13.47005">
        <ele>277</ele>
        <time>2021-07-03 12:37:50</time>
      </trkpt>
      <trkpt lat="29.20218" lon="-13.47013">
        <ele>276</ele>
        <time>2021-07-03 12:37:51</time>
      </trkpt>
      <trkpt lat="29.2022" lon="-13.4702">
        <ele>275.4</ele>
        <time>2021-07-03 12:37:52</time>
      </trkpt>
      <trkpt lat="29.20223" lon="-13.47027">
        <ele>275</ele>
        <time>2021-07-03 12:37:53</time>
      </trkpt>
      <trkpt lat="29.20226" lon="-13.47032">
        <ele>274.8</ele>
        <time>2021-07-03 12:37:54</time>
      </trkpt>
      <trkpt lat="29.20228" lon="-13.47038">
        <ele>274.4</ele>
        <time>2021-07-03 12:37:55</time>
      </trkpt>
      <trkpt lat="29.2023" lon="-13.47043">
        <ele>274.4</ele>
        <time>2021-07-03 12:37:56</time>
      </trkpt>
      <trkpt lat="29.20235" lon="-13.47052">
        <ele>273.8</ele>
        <time>2021-07-03 12:37:57</time>
      </trkpt>
      <trkpt lat="29.20236" lon="-13.47057">
        <ele>273.8</ele>
        <time>2021-07-03 12:37:58</time>
      </trkpt>
      <trkpt lat="29.20238" lon="-13.47061">
        <ele>273.8</ele>
        <time>2021-07-03 12:37:59</time>
      </trkpt>
      <trkpt lat="29.2024" lon="-13.47064">
        <ele>273.8</ele>
        <time>2021-07-03 12:38:00</time>
      </trkpt>
      <trkpt lat="29.20241" lon="-13.47069">
        <ele>273.6</ele>
        <time>2021-07-03 12:38:01</time>
      </trkpt>
      <trkpt lat="29.20243" lon="-13.47072">
        <ele>273.6</ele>
        <time>2021-07-03 12:38:02</time>
      </trkpt>
      <trkpt lat="29.20245" lon="-13.47076">
        <ele>273.6</ele>
        <time>2021-07-03 12:38:03</time>
      </trkpt>
      <trkpt lat="29.20247" lon="-13.4708">
        <ele>274</ele>
        <time>2021-07-03 12:38:04</time>
      </trkpt>
      <trkpt lat="29.20248" lon="-13.47084">
        <ele>274</ele>
        <time>2021-07-03 12:38:05</time>
      </trkpt>
      <trkpt lat="29.20249" lon="-13.47088">
        <ele>274</ele>
        <time>2021-07-03 12:38:06</time>
      </trkpt>
      <trkpt lat="29.2025" lon="-13.47092">
        <ele>274.4</ele>
        <time>2021-07-03 12:38:07</time>
      </trkpt>
      <trkpt lat="29.20251" lon="-13.47096">
        <ele>274.6</ele>
        <time>2021-07-03 12:38:08</time>
      </trkpt>
      <trkpt lat="29.20252" lon="-13.47099">
        <ele>274.6</ele>
        <time>2021-07-03 12:38:09</time>
      </trkpt>
      <trkpt lat="29.20253" lon="-13.47103">
        <ele>275.2</ele>
        <time>2021-07-03 12:38:10</time>
      </trkpt>
      <trkpt lat="29.20253" lon="-13.47106">
        <ele>275.6</ele>
        <time>2021-07-03 12:38:11</time>
      </trkpt>
      <trkpt lat="29.20253" lon="-13.4711">
        <ele>276</ele>
        <time>2021-07-03 12:38:12</time>
      </trkpt>
      <trkpt lat="29.20253" lon="-13.47114">
        <ele>276.4</ele>
        <time>2021-07-03 12:38:13</time>
      </trkpt>
      <trkpt lat="29.20254" lon="-13.47117">
        <ele>276.8</ele>
        <time>2021-07-03 12:38:14</time>
      </trkpt>
      <trkpt lat="29.20253" lon="-13.4712">
        <ele>276.8</ele>
        <time>2021-07-03 12:38:15</time>
      </trkpt>
      <trkpt lat="29.20253" lon="-13.47123">
        <ele>277</ele>
        <time>2021-07-03 12:38:16</time>
      </trkpt>
      <trkpt lat="29.20253" lon="-13.47126">
        <ele>277.2</ele>
        <time>2021-07-03 12:38:17</time>
      </trkpt>
      <trkpt lat="29.20253" lon="-13.47129">
        <ele>277.4</ele>
        <time>2021-07-03 12:38:18</time>
      </trkpt>
      <trkpt lat="29.20253" lon="-13.47132">
        <ele>277.4</ele>
        <time>2021-07-03 12:38:19</time>
      </trkpt>
      <trkpt lat="29.20252" lon="-13.47135">
        <ele>277.8</ele>
        <time>2021-07-03 12:38:20</time>
      </trkpt>
      <trkpt lat="29.20252" lon="-13.47138">
        <ele>278.2</ele>
        <time>2021-07-03 12:38:21</time>
      </trkpt>
      <trkpt lat="29.20251" lon="-13.47141">
        <ele>278.4</ele>
        <time>2021-07-03 12:38:22</time>
      </trkpt>
      <trkpt lat="29.20251" lon="-13.47144">
        <ele>278.4</ele>
        <time>2021-07-03 12:38:23</time>
      </trkpt>
      <trkpt lat="29.2025" lon="-13.47147">
        <ele>278.8</ele>
        <time>2021-07-03 12:38:24</time>
      </trkpt>
      <trkpt lat="29.2025" lon="-13.47152">
        <ele>278.8</ele>
        <time>2021-07-03 12:38:25</time>
      </trkpt>
      <trkpt lat="29.2025" lon="-13.47157">
        <ele>278.6</ele>
        <time>2021-07-03 12:38:26</time>
      </trkpt>
      <trkpt lat="29.20249" lon="-13.47161">
        <ele>278.6</ele>
        <time>2021-07-03 12:38:27</time>
      </trkpt>
      <trkpt lat="29.20249" lon="-13.47165">
        <ele>278.4</ele>
        <time>2021-07-03 12:38:28</time>
      </trkpt>
      <trkpt lat="29.20248" lon="-13.4717">
        <ele>278</ele>
        <time>2021-07-03 12:38:29</time>
      </trkpt>
      <trkpt lat="29.20248" lon="-13.47174">
        <ele>278</ele>
        <time>2021-07-03 12:38:30</time>
      </trkpt>
      <trkpt lat="29.20249" lon="-13.47178">
        <ele>278</ele>
        <time>2021-07-03 12:38:31</time>
      </trkpt>
      <trkpt lat="29.2025" lon="-13.47182">
        <ele>278.4</ele>
        <time>2021-07-03 12:38:32</time>
      </trkpt>
      <trkpt lat="29.2025" lon="-13.47186">
        <ele>278.4</ele>
        <time>2021-07-03 12:38:33</time>
      </trkpt>
      <trkpt lat="29.20251" lon="-13.4719">
        <ele>278.2</ele>
        <time>2021-07-03 12:38:34</time>
      </trkpt>
      <trkpt lat="29.20252" lon="-13.47193">
        <ele>278.2</ele>
        <time>2021-07-03 12:38:35</time>
      </trkpt>
      <trkpt lat="29.20253" lon="-13.47197">
        <ele>278.2</ele>
        <time>2021-07-03 12:38:36</time>
      </trkpt>
      <trkpt lat="29.20254" lon="-13.47201">
        <ele>278.2</ele>
        <time>2021-07-03 12:38:37</time>
      </trkpt>
      <trkpt lat="29.20255" lon="-13.47204">
        <ele>278.2</ele>
        <time>2021-07-03 12:38:38</time>
      </trkpt>
      <trkpt lat="29.20256" lon="-13.47208">
        <ele>278.2</ele>
        <time>2021-07-03 12:38:39</time>
      </trkpt>
      <trkpt lat="29.20257" lon="-13.47211">
        <ele>278.4</ele>
        <time>2021-07-03 12:38:40</time>
      </trkpt>
      <trkpt lat="29.20258" lon="-13.47215">
        <ele>278.4</ele>
        <time>2021-07-03 12:38:41</time>
      </trkpt>
      <trkpt lat="29.20258" lon="-13.47218">
        <ele>278.8</ele>
        <time>2021-07-03 12:38:42</time>
      </trkpt>
      <trkpt lat="29.20259" lon="-13.47222">
        <ele>279</ele>
        <time>2021-07-03 12:38:43</time>
      </trkpt>
      <trkpt lat="29.20259" lon="-13.47226">
        <ele>279</ele>
        <time>2021-07-03 12:38:44</time>
      </trkpt>
      <trkpt lat="29.20259" lon="-13.47231">
        <ele>279.4</ele>
        <time>2021-07-03 12:38:45</time>
      </trkpt>
      <trkpt lat="29.20259" lon="-13.47236">
        <ele>279.4</ele>
        <time>2021-07-03 12:38:46</time>
      </trkpt>
      <trkpt lat="29.20257" lon="-13.4724">
        <ele>279</ele>
        <time>2021-07-03 12:38:47</time>
      </trkpt>
      <trkpt lat="29.20255" lon="-13.47244">
        <ele>279</ele>
        <time>2021-07-03 12:38:48</time>
      </trkpt>
      <trkpt lat="29.20251" lon="-13.47247">
        <ele>278.8</ele>
        <time>2021-07-03 12:38:49</time>
      </trkpt>
      <trkpt lat="29.20247" lon="-13.47249">
        <ele>278.6</ele>
        <time>2021-07-03 12:38:50</time>
      </trkpt>
      <trkpt lat="29.20243" lon="-13.47251">
        <ele>278.2</ele>
        <time>2021-07-03 12:38:51</time>
      </trkpt>
      <trkpt lat="29.20238" lon="-13.47253">
        <ele>277.6</ele>
        <time>2021-07-03 12:38:52</time>
      </trkpt>
      <trkpt lat="29.20233" lon="-13.47254">
        <ele>277.4</ele>
        <time>2021-07-03 12:38:53</time>
      </trkpt>
      <trkpt lat="29.20227" lon="-13.47254">
        <ele>277.4</ele>
        <time>2021-07-03 12:38:54</time>
      </trkpt>
      <trkpt lat="29.20221" lon="-13.47256">
        <ele>277</ele>
        <time>2021-07-03 12:38:55</time>
      </trkpt>
      <trkpt lat="29.20215" lon="-13.47259">
        <ele>276.6</ele>
        <time>2021-07-03 12:38:56</time>
      </trkpt>
      <trkpt lat="29.2021" lon="-13.47262">
        <ele>276.6</ele>
        <time>2021-07-03 12:38:57</time>
      </trkpt>
      <trkpt lat="29.20205" lon="-13.47265">
        <ele>276</ele>
        <time>2021-07-03 12:38:58</time>
      </trkpt>
      <trkpt lat="29.202" lon="-13.4727">
        <ele>275.8</ele>
        <time>2021-07-03 12:38:59</time>
      </trkpt>
      <trkpt lat="29.20195" lon="-13.47273">
        <ele>275.4</ele>
        <time>2021-07-03 12:39:00</time>
      </trkpt>
      <trkpt lat="29.2019" lon="-13.47276">
        <ele>275.4</ele>
        <time>2021-07-03 12:39:01</time>
      </trkpt>
      <trkpt lat="29.20185" lon="-13.47279">
        <ele>275</ele>
        <time>2021-07-03 12:39:02</time>
      </trkpt>
      <trkpt lat="29.20179" lon="-13.47282">
        <ele>275</ele>
        <time>2021-07-03 12:39:03</time>
      </trkpt>
      <trkpt lat="29.20174" lon="-13.47284">
        <ele>274.8</ele>
        <time>2021-07-03 12:39:04</time>
      </trkpt>
      <trkpt lat="29.20169" lon="-13.47287">
        <ele>274.4</ele>
        <time>2021-07-03 12:39:05</time>
      </trkpt>
      <trkpt lat="29.20163" lon="-13.4729">
        <ele>274.4</ele>
        <time>2021-07-03 12:39:06</time>
      </trkpt>
      <trkpt lat="29.20158" lon="-13.47293">
        <ele>274.2</ele>
        <time>2021-07-03 12:39:07</time>
      </trkpt>
      <trkpt lat="29.20153" lon="-13.47296">
        <ele>274.2</ele>
        <time>2021-07-03 12:39:08</time>
      </trkpt>
      <trkpt lat="29.20148" lon="-13.47299">
        <ele>273.8</ele>
        <time>2021-07-03 12:39:09</time>
      </trkpt>
      <trkpt lat="29.20144" lon="-13.47302">
        <ele>273.4</ele>
        <time>2021-07-03 12:39:10</time>
      </trkpt>
      <trkpt lat="29.20139" lon="-13.47306">
        <ele>273.4</ele>
        <time>2021-07-03 12:39:11</time>
      </trkpt>
      <trkpt lat="29.20135" lon="-13.47308">
        <ele>273.4</ele>
        <time>2021-07-03 12:39:12</time>
      </trkpt>
      <trkpt lat="29.20131" lon="-13.47311">
        <ele>273.4</ele>
        <time>2021-07-03 12:39:13</time>
      </trkpt>
      <trkpt lat="29.20127" lon="-13.47313">
        <ele>273.2</ele>
        <time>2021-07-03 12:39:14</time>
      </trkpt>
      <trkpt lat="29.20123" lon="-13.47315">
        <ele>273.2</ele>
        <time>2021-07-03 12:39:15</time>
      </trkpt>
      <trkpt lat="29.20119" lon="-13.47316">
        <ele>273.2</ele>
        <time>2021-07-03 12:39:16</time>
      </trkpt>
      <trkpt lat="29.20115" lon="-13.47317">
        <ele>273</ele>
        <time>2021-07-03 12:39:17</time>
      </trkpt>
      <trkpt lat="29.20111" lon="-13.47318">
        <ele>272.6</ele>
        <time>2021-07-03 12:39:18</time>
      </trkpt>
      <trkpt lat="29.20106" lon="-13.47318">
        <ele>272.6</ele>
        <time>2021-07-03 12:39:19</time>
      </trkpt>
      <trkpt lat="29.20102" lon="-13.4732">
        <ele>272.6</ele>
        <time>2021-07-03 12:39:20</time>
      </trkpt>
      <trkpt lat="29.20098" lon="-13.47322">
        <ele>272.4</ele>
        <time>2021-07-03 12:39:21</time>
      </trkpt>
      <trkpt lat="29.20094" lon="-13.47324">
        <ele>272.4</ele>
        <time>2021-07-03 12:39:22</time>
      </trkpt>
      <trkpt lat="29.20091" lon="-13.47328">
        <ele>272.4</ele>
        <time>2021-07-03 12:39:23</time>
      </trkpt>
      <trkpt lat="29.20087" lon="-13.47331">
        <ele>272.4</ele>
        <time>2021-07-03 12:39:24</time>
      </trkpt>
      <trkpt lat="29.20084" lon="-13.47334">
        <ele>272.4</ele>
        <time>2021-07-03 12:39:25</time>
      </trkpt>
      <trkpt lat="29.2008" lon="-13.47338">
        <ele>272.4</ele>
        <time>2021-07-03 12:39:26</time>
      </trkpt>
      <trkpt lat="29.20077" lon="-13.47341">
        <ele>272.4</ele>
        <time>2021-07-03 12:39:27</time>
      </trkpt>
      <trkpt lat="29.20074" lon="-13.47343">
        <ele>272.4</ele>
        <time>2021-07-03 12:39:28</time>
      </trkpt>
      <trkpt lat="29.2007" lon="-13.47346">
        <ele>272.2</ele>
        <time>2021-07-03 12:39:29</time>
      </trkpt>
      <trkpt lat="29.20067" lon="-13.47348">
        <ele>272.2</ele>
        <time>2021-07-03 12:39:30</time>
      </trkpt>
      <trkpt lat="29.20063" lon="-13.47348">
        <ele>272.2</ele>
        <time>2021-07-03 12:39:31</time>
      </trkpt>
      <trkpt lat="29.2006" lon="-13.47349">
        <ele>272.6</ele>
        <time>2021-07-03 12:39:32</time>
      </trkpt>
      <trkpt lat="29.20057" lon="-13.47348">
        <ele>272.6</ele>
        <time>2021-07-03 12:39:33</time>
      </trkpt>
      <trkpt lat="29.20054" lon="-13.47347">
        <ele>272.8</ele>
        <time>2021-07-03 12:39:34</time>
      </trkpt>
      <trkpt lat="29.20051" lon="-13.47346">
        <ele>272.8</ele>
        <time>2021-07-03 12:39:35</time>
      </trkpt>
      <trkpt lat="29.20048" lon="-13.47345">
        <ele>273.2</ele>
        <time>2021-07-03 12:39:36</time>
      </trkpt>
      <trkpt lat="29.20046" lon="-13.47344">
        <ele>273.2</ele>
        <time>2021-07-03 12:39:37</time>
      </trkpt>
      <trkpt lat="29.20044" lon="-13.47344">
        <ele>273.2</ele>
        <time>2021-07-03 12:39:38</time>
      </trkpt>
      <trkpt lat="29.20042" lon="-13.47343">
        <ele>273.2</ele>
        <time>2021-07-03 12:39:39</time>
      </trkpt>
      <trkpt lat="29.2004" lon="-13.47343">
        <ele>273.4</ele>
        <time>2021-07-03 12:39:40</time>
      </trkpt>
      <trkpt lat="29.20038" lon="-13.47342">
        <ele>273.6</ele>
        <time>2021-07-03 12:39:41</time>
      </trkpt>
      <trkpt lat="29.20036" lon="-13.47341">
        <ele>273.4</ele>
        <time>2021-07-03 12:39:42</time>
      </trkpt>
      <trkpt lat="29.20034" lon="-13.47341">
        <ele>273.4</ele>
        <time>2021-07-03 12:39:43</time>
      </trkpt>
      <trkpt lat="29.20032" lon="-13.4734">
        <ele>273.4</ele>
        <time>2021-07-03 12:39:44</time>
      </trkpt>
      <trkpt lat="29.2003" lon="-13.47339">
        <ele>273.2</ele>
        <time>2021-07-03 12:39:45</time>
      </trkpt>
      <trkpt lat="29.20029" lon="-13.47338">
        <ele>273.2</ele>
        <time>2021-07-03 12:39:46</time>
      </trkpt>
      <trkpt lat="29.20027" lon="-13.47338">
        <ele>273.2</ele>
        <time>2021-07-03 12:39:47</time>
      </trkpt>
      <trkpt lat="29.20025" lon="-13.47337">
        <ele>273.2</ele>
        <time>2021-07-03 12:39:48</time>
      </trkpt>
      <trkpt lat="29.20024" lon="-13.47336">
        <ele>273.6</ele>
        <time>2021-07-03 12:39:49</time>
      </trkpt>
      <trkpt lat="29.20022" lon="-13.47336">
        <ele>274</ele>
        <time>2021-07-03 12:39:50</time>
      </trkpt>
      <trkpt lat="29.2002" lon="-13.47335">
        <ele>274.2</ele>
        <time>2021-07-03 12:39:51</time>
      </trkpt>
      <trkpt lat="29.20018" lon="-13.47335">
        <ele>274.2</ele>
        <time>2021-07-03 12:39:52</time>
      </trkpt>
      <trkpt lat="29.20017" lon="-13.47334">
        <ele>274.6</ele>
        <time>2021-07-03 12:39:53</time>
      </trkpt>
      <trkpt lat="29.20015" lon="-13.47333">
        <ele>274.8</ele>
        <time>2021-07-03 12:39:54</time>
      </trkpt>
      <trkpt lat="29.20013" lon="-13.47333">
        <ele>275</ele>
        <time>2021-07-03 12:39:55</time>
      </trkpt>
      <trkpt lat="29.20012" lon="-13.47332">
        <ele>275.4</ele>
        <time>2021-07-03 12:39:56</time>
      </trkpt>
      <trkpt lat="29.2001" lon="-13.47332">
        <ele>275.8</ele>
        <time>2021-07-03 12:39:57</time>
      </trkpt>
      <trkpt lat="29.20008" lon="-13.47331">
        <ele>276.2</ele>
        <time>2021-07-03 12:39:58</time>
      </trkpt>
      <trkpt lat="29.20006" lon="-13.4733">
        <ele>276.6</ele>
        <time>2021-07-03 12:39:59</time>
      </trkpt>
      <trkpt lat="29.20004" lon="-13.4733">
        <ele>277</ele>
        <time>2021-07-03 12:40:00</time>
      </trkpt>
      <trkpt lat="29.20002" lon="-13.47329">
        <ele>277.2</ele>
        <time>2021-07-03 12:40:01</time>
      </trkpt>
      <trkpt lat="29.2" lon="-13.47329">
        <ele>277.2</ele>
        <time>2021-07-03 12:40:02</time>
      </trkpt>
      <trkpt lat="29.19999" lon="-13.47329">
        <ele>277.2</ele>
        <time>2021-07-03 12:40:03</time>
      </trkpt>
      <trkpt lat="29.19997" lon="-13.47328">
        <ele>277.2</ele>
        <time>2021-07-03 12:40:04</time>
      </trkpt>
      <trkpt lat="29.19996" lon="-13.47328">
        <ele>277.8</ele>
        <time>2021-07-03 12:40:05</time>
      </trkpt>
      <trkpt lat="29.19994" lon="-13.47328">
        <ele>278</ele>
        <time>2021-07-03 12:40:06</time>
      </trkpt>
      <trkpt lat="29.19993" lon="-13.47327">
        <ele>278.6</ele>
        <time>2021-07-03 12:40:07</time>
      </trkpt>
      <trkpt lat="29.19991" lon="-13.47327">
        <ele>279.2</ele>
        <time>2021-07-03 12:40:08</time>
      </trkpt>
      <trkpt lat="29.19989" lon="-13.47327">
        <ele>279.6</ele>
        <time>2021-07-03 12:40:09</time>
      </trkpt>
      <trkpt lat="29.19988" lon="-13.47326">
        <ele>279.8</ele>
        <time>2021-07-03 12:40:10</time>
      </trkpt>
      <trkpt lat="29.19986" lon="-13.47326">
        <ele>280.4</ele>
        <time>2021-07-03 12:40:11</time>
      </trkpt>
      <trkpt lat="29.19985" lon="-13.47326">
        <ele>280.6</ele>
        <time>2021-07-03 12:40:12</time>
      </trkpt>
      <trkpt lat="29.19983" lon="-13.47325">
        <ele>281</ele>
        <time>2021-07-03 12:40:13</time>
      </trkpt>
      <trkpt lat="29.19982" lon="-13.47325">
        <ele>281.4</ele>
        <time>2021-07-03 12:40:14</time>
      </trkpt>
      <trkpt lat="29.1998" lon="-13.47325">
        <ele>282</ele>
        <time>2021-07-03 12:40:15</time>
      </trkpt>
      <trkpt lat="29.19979" lon="-13.47325">
        <ele>282.6</ele>
        <time>2021-07-03 12:40:16</time>
      </trkpt>
      <trkpt lat="29.19977" lon="-13.47326">
        <ele>283</ele>
        <time>2021-07-03 12:40:17</time>
      </trkpt>
      <trkpt lat="29.19976" lon="-13.47326">
        <ele>283</ele>
        <time>2021-07-03 12:40:18</time>
      </trkpt>
      <trkpt lat="29.19974" lon="-13.47326">
        <ele>283.4</ele>
        <time>2021-07-03 12:40:19</time>
      </trkpt>
      <trkpt lat="29.19973" lon="-13.47326">
        <ele>283.8</ele>
        <time>2021-07-03 12:40:20</time>
      </trkpt>
      <trkpt lat="29.19972" lon="-13.47325">
        <ele>284.2</ele>
        <time>2021-07-03 12:40:21</time>
      </trkpt>
      <trkpt lat="29.1997" lon="-13.47325">
        <ele>284.6</ele>
        <time>2021-07-03 12:40:22</time>
      </trkpt>
      <trkpt lat="29.19969" lon="-13.47325">
        <ele>285</ele>
        <time>2021-07-03 12:40:23</time>
      </trkpt>
      <trkpt lat="29.19968" lon="-13.47324">
        <ele>285</ele>
        <time>2021-07-03 12:40:24</time>
      </trkpt>
      <trkpt lat="29.19967" lon="-13.47324">
        <ele>285.4</ele>
        <time>2021-07-03 12:40:25</time>
      </trkpt>
      <trkpt lat="29.19965" lon="-13.47323">
        <ele>285.4</ele>
        <time>2021-07-03 12:40:26</time>
      </trkpt>
      <trkpt lat="29.19964" lon="-13.47323">
        <ele>286</ele>
        <time>2021-07-03 12:40:27</time>
      </trkpt>
      <trkpt lat="29.19963" lon="-13.47322">
        <ele>286.4</ele>
        <time>2021-07-03 12:40:28</time>
      </trkpt>
      <trkpt lat="29.19961" lon="-13.47322">
        <ele>286.6</ele>
        <time>2021-07-03 12:40:29</time>
      </trkpt>
      <trkpt lat="29.1996" lon="-13.47322">
        <ele>287</ele>
        <time>2021-07-03 12:40:30</time>
      </trkpt>
      <trkpt lat="29.19959" lon="-13.47321">
        <ele>287.4</ele>
        <time>2021-07-03 12:40:31</time>
      </trkpt>
      <trkpt lat="29.19957" lon="-13.47321">
        <ele>287.6</ele>
        <time>2021-07-03 12:40:32</time>
      </trkpt>
      <trkpt lat="29.19956" lon="-13.47321">
        <ele>288</ele>
        <time>2021-07-03 12:40:33</time>
      </trkpt>
      <trkpt lat="29.19955" lon="-13.4732">
        <ele>288.4</ele>
        <time>2021-07-03 12:40:34</time>
      </trkpt>
      <trkpt lat="29.19953" lon="-13.4732">
        <ele>288.8</ele>
        <time>2021-07-03 12:40:35</time>
      </trkpt>
      <trkpt lat="29.19952" lon="-13.4732">
        <ele>289.2</ele>
        <time>2021-07-03 12:40:36</time>
      </trkpt>
      <trkpt lat="29.1995" lon="-13.47319">
        <ele>289.6</ele>
        <time>2021-07-03 12:40:37</time>
      </trkpt>
      <trkpt lat="29.19949" lon="-13.47319">
        <ele>289.8</ele>
        <time>2021-07-03 12:40:38</time>
      </trkpt>
      <trkpt lat="29.19947" lon="-13.47318">
        <ele>290.2</ele>
        <time>2021-07-03 12:40:39</time>
      </trkpt>
      <trkpt lat="29.19946" lon="-13.47318">
        <ele>290.6</ele>
        <time>2021-07-03 12:40:40</time>
      </trkpt>
      <trkpt lat="29.19945" lon="-13.47317">
        <ele>290.8</ele>
        <time>2021-07-03 12:40:41</time>
      </trkpt>
      <trkpt lat="29.19943" lon="-13.47317">
        <ele>291.2</ele>
        <time>2021-07-03 12:40:42</time>
      </trkpt>
      <trkpt lat="29.19942" lon="-13.47317">
        <ele>291.6</ele>
        <time>2021-07-03 12:40:43</time>
      </trkpt>
      <trkpt lat="29.1994" lon="-13.47316">
        <ele>292</ele>
        <time>2021-07-03 12:40:44</time>
      </trkpt>
      <trkpt lat="29.19939" lon="-13.47316">
        <ele>292.2</ele>
        <time>2021-07-03 12:40:45</time>
      </trkpt>
      <trkpt lat="29.19937" lon="-13.47315">
        <ele>292.2</ele>
        <time>2021-07-03 12:40:46</time>
      </trkpt>
      <trkpt lat="29.19936" lon="-13.47315">
        <ele>292.6</ele>
        <time>2021-07-03 12:40:47</time>
      </trkpt>
      <trkpt lat="29.19934" lon="-13.47314">
        <ele>293</ele>
        <time>2021-07-03 12:40:48</time>
      </trkpt>
      <trkpt lat="29.19933" lon="-13.47314">
        <ele>293.6</ele>
        <time>2021-07-03 12:40:49</time>
      </trkpt>
      <trkpt lat="29.19931" lon="-13.47313">
        <ele>293.8</ele>
        <time>2021-07-03 12:40:50</time>
      </trkpt>
      <trkpt lat="29.1993" lon="-13.47312">
        <ele>294.2</ele>
        <time>2021-07-03 12:40:51</time>
      </trkpt>
      <trkpt lat="29.19929" lon="-13.47312">
        <ele>294.6</ele>
        <time>2021-07-03 12:40:52</time>
      </trkpt>
      <trkpt lat="29.19928" lon="-13.47311">
        <ele>295</ele>
        <time>2021-07-03 12:40:53</time>
      </trkpt>
      <trkpt lat="29.19926" lon="-13.47311">
        <ele>295.2</ele>
        <time>2021-07-03 12:40:54</time>
      </trkpt>
      <trkpt lat="29.19925" lon="-13.4731">
        <ele>295.8</ele>
        <time>2021-07-03 12:40:55</time>
      </trkpt>
      <trkpt lat="29.19924" lon="-13.4731">
        <ele>295.8</ele>
        <time>2021-07-03 12:40:56</time>
      </trkpt>
      <trkpt lat="29.19923" lon="-13.47309">
        <ele>295.8</ele>
        <time>2021-07-03 12:40:57</time>
      </trkpt>
      <trkpt lat="29.19921" lon="-13.47309">
        <ele>296.6</ele>
        <time>2021-07-03 12:40:58</time>
      </trkpt>
      <trkpt lat="29.1992" lon="-13.47309">
        <ele>296.6</ele>
        <time>2021-07-03 12:40:59</time>
      </trkpt>
      <trkpt lat="29.19919" lon="-13.47309">
        <ele>296.6</ele>
        <time>2021-07-03 12:41:00</time>
      </trkpt>
      <trkpt lat="29.19918" lon="-13.4731">
        <ele>296.6</ele>
        <time>2021-07-03 12:41:01</time>
      </trkpt>
      <trkpt lat="29.19917" lon="-13.47311">
        <ele>297</ele>
        <time>2021-07-03 12:41:02</time>
      </trkpt>
      <trkpt lat="29.19916" lon="-13.47312">
        <ele>297</ele>
        <time>2021-07-03 12:41:03</time>
      </trkpt>
      <trkpt lat="29.19915" lon="-13.47313">
        <ele>297</ele>
        <time>2021-07-03 12:41:04</time>
      </trkpt>
      <trkpt lat="29.19914" lon="-13.47314">
        <ele>297</ele>
        <time>2021-07-03 12:41:05</time>
      </trkpt>
      <trkpt lat="29.19913" lon="-13.47315">
        <ele>297.2</ele>
        <time>2021-07-03 12:41:06</time>
      </trkpt>
      <trkpt lat="29.19913" lon="-13.47317">
        <ele>297.2</ele>
        <time>2021-07-03 12:41:07</time>
      </trkpt>
      <trkpt lat="29.19913" lon="-13.47318">
        <ele>297.4</ele>
        <time>2021-07-03 12:41:08</time>
      </trkpt>
      <trkpt lat="29.19913" lon="-13.4732">
        <ele>298</ele>
        <time>2021-07-03 12:41:09</time>
      </trkpt>
      <trkpt lat="29.19913" lon="-13.47323">
        <ele>298.2</ele>
        <time>2021-07-03 12:41:10</time>
      </trkpt>
      <trkpt lat="29.19913" lon="-13.47325">
        <ele>298.6</ele>
        <time>2021-07-03 12:41:11</time>
      </trkpt>
      <trkpt lat="29.19913" lon="-13.47327">
        <ele>299</ele>
        <time>2021-07-03 12:41:12</time>
      </trkpt>
      <trkpt lat="29.19914" lon="-13.47329">
        <ele>299.4</ele>
        <time>2021-07-03 12:41:13</time>
      </trkpt>
      <trkpt lat="29.19914" lon="-13.47331">
        <ele>299.8</ele>
        <time>2021-07-03 12:41:14</time>
      </trkpt>
      <trkpt lat="29.19915" lon="-13.47333">
        <ele>300.2</ele>
        <time>2021-07-03 12:41:15</time>
      </trkpt>
      <trkpt lat="29.19915" lon="-13.47335">
        <ele>300.6</ele>
        <time>2021-07-03 12:41:16</time>
      </trkpt>
      <trkpt lat="29.19915" lon="-13.47337">
        <ele>300.8</ele>
        <time>2021-07-03 12:41:17</time>
      </trkpt>
      <trkpt lat="29.19915" lon="-13.4734">
        <ele>300.8</ele>
        <time>2021-07-03 12:41:18</time>
      </trkpt>
      <trkpt lat="29.19914" lon="-13.47342">
        <ele>301</ele>
        <time>2021-07-03 12:41:19</time>
      </trkpt>
      <trkpt lat="29.19914" lon="-13.47344">
        <ele>301</ele>
        <time>2021-07-03 12:41:20</time>
      </trkpt>
      <trkpt lat="29.19914" lon="-13.47345">
        <ele>301.4</ele>
        <time>2021-07-03 12:41:21</time>
      </trkpt>
      <trkpt lat="29.19914" lon="-13.47347">
        <ele>301.8</ele>
        <time>2021-07-03 12:41:22</time>
      </trkpt>
      <trkpt lat="29.19914" lon="-13.47349">
        <ele>302.2</ele>
        <time>2021-07-03 12:41:23</time>
      </trkpt>
      <trkpt lat="29.19914" lon="-13.47351">
        <ele>302.4</ele>
        <time>2021-07-03 12:41:24</time>
      </trkpt>
      <trkpt lat="29.19914" lon="-13.47353">
        <ele>302.8</ele>
        <time>2021-07-03 12:41:25</time>
      </trkpt>
      <trkpt lat="29.19915" lon="-13.47356">
        <ele>303</ele>
        <time>2021-07-03 12:41:26</time>
      </trkpt>
      <trkpt lat="29.19915" lon="-13.47358">
        <ele>303.4</ele>
        <time>2021-07-03 12:41:27</time>
      </trkpt>
      <trkpt lat="29.19915" lon="-13.47361">
        <ele>303.6</ele>
        <time>2021-07-03 12:41:28</time>
      </trkpt>
      <trkpt lat="29.19915" lon="-13.47363">
        <ele>304</ele>
        <time>2021-07-03 12:41:29</time>
      </trkpt>
      <trkpt lat="29.19916" lon="-13.47366">
        <ele>304.8</ele>
        <time>2021-07-03 12:41:30</time>
      </trkpt>
      <trkpt lat="29.19916" lon="-13.47368">
        <ele>304.8</ele>
        <time>2021-07-03 12:41:31</time>
      </trkpt>
      <trkpt lat="29.19917" lon="-13.47371">
        <ele>304.8</ele>
        <time>2021-07-03 12:41:32</time>
      </trkpt>
      <trkpt lat="29.19917" lon="-13.47373">
        <ele>304.8</ele>
        <time>2021-07-03 12:41:33</time>
      </trkpt>
      <trkpt lat="29.19918" lon="-13.47376">
        <ele>304.8</ele>
        <time>2021-07-03 12:41:34</time>
      </trkpt>
      <trkpt lat="29.19918" lon="-13.47379">
        <ele>304.8</ele>
        <time>2021-07-03 12:41:35</time>
      </trkpt>
      <trkpt lat="29.19918" lon="-13.47381">
        <ele>304.8</ele>
        <time>2021-07-03 12:41:36</time>
      </trkpt>
      <trkpt lat="29.19918" lon="-13.47384">
        <ele>304.8</ele>
        <time>2021-07-03 12:41:37</time>
      </trkpt>
      <trkpt lat="29.19919" lon="-13.47387">
        <ele>305</ele>
        <time>2021-07-03 12:41:38</time>
      </trkpt>
      <trkpt lat="29.19919" lon="-13.4739">
        <ele>305.2</ele>
        <time>2021-07-03 12:41:39</time>
      </trkpt>
      <trkpt lat="29.19919" lon="-13.47392">
        <ele>305.6</ele>
        <time>2021-07-03 12:41:40</time>
      </trkpt>
      <trkpt lat="29.1992" lon="-13.47395">
        <ele>305.6</ele>
        <time>2021-07-03 12:41:41</time>
      </trkpt>
      <trkpt lat="29.1992" lon="-13.47398">
        <ele>306.6</ele>
        <time>2021-07-03 12:41:42</time>
      </trkpt>
      <trkpt lat="29.1992" lon="-13.474">
        <ele>306.4</ele>
        <time>2021-07-03 12:41:43</time>
      </trkpt>
      <trkpt lat="29.19921" lon="-13.47403">
        <ele>306.4</ele>
        <time>2021-07-03 12:41:44</time>
      </trkpt>
      <trkpt lat="29.19921" lon="-13.47405">
        <ele>306.4</ele>
        <time>2021-07-03 12:41:45</time>
      </trkpt>
      <trkpt lat="29.19922" lon="-13.47407">
        <ele>306.2</ele>
        <time>2021-07-03 12:41:46</time>
      </trkpt>
      <trkpt lat="29.19923" lon="-13.4741">
        <ele>306.2</ele>
        <time>2021-07-03 12:41:47</time>
      </trkpt>
      <trkpt lat="29.19923" lon="-13.47413">
        <ele>306.4</ele>
        <time>2021-07-03 12:41:48</time>
      </trkpt>
      <trkpt lat="29.19923" lon="-13.47416">
        <ele>306.4</ele>
        <time>2021-07-03 12:41:49</time>
      </trkpt>
      <trkpt lat="29.19923" lon="-13.47418">
        <ele>306.4</ele>
        <time>2021-07-03 12:41:50</time>
      </trkpt>
      <trkpt lat="29.19923" lon="-13.47421">
        <ele>306.4</ele>
        <time>2021-07-03 12:41:51</time>
      </trkpt>
      <trkpt lat="29.19923" lon="-13.47424">
        <ele>306.4</ele>
        <time>2021-07-03 12:41:52</time>
      </trkpt>
      <trkpt lat="29.19923" lon="-13.47427">
        <ele>306.8</ele>
        <time>2021-07-03 12:41:53</time>
      </trkpt>
      <trkpt lat="29.19923" lon="-13.4743">
        <ele>307.4</ele>
        <time>2021-07-03 12:41:54</time>
      </trkpt>
      <trkpt lat="29.19924" lon="-13.47432">
        <ele>307.4</ele>
        <time>2021-07-03 12:41:55</time>
      </trkpt>
      <trkpt lat="29.19924" lon="-13.47435">
        <ele>307.4</ele>
        <time>2021-07-03 12:41:56</time>
      </trkpt>
      <trkpt lat="29.19924" lon="-13.47438">
        <ele>307.4</ele>
        <time>2021-07-03 12:41:57</time>
      </trkpt>
      <trkpt lat="29.19924" lon="-13.4744">
        <ele>307.4</ele>
        <time>2021-07-03 12:41:58</time>
      </trkpt>
      <trkpt lat="29.19924" lon="-13.47443">
        <ele>307.4</ele>
        <time>2021-07-03 12:41:59</time>
      </trkpt>
      <trkpt lat="29.19924" lon="-13.47445">
        <ele>307.4</ele>
        <time>2021-07-03 12:42:00</time>
      </trkpt>
      <trkpt lat="29.19924" lon="-13.47448">
        <ele>307.4</ele>
        <time>2021-07-03 12:42:01</time>
      </trkpt>
      <trkpt lat="29.19924" lon="-13.4745">
        <ele>307.6</ele>
        <time>2021-07-03 12:42:02</time>
      </trkpt>
      <trkpt lat="29.19924" lon="-13.47453">
        <ele>307.6</ele>
        <time>2021-07-03 12:42:03</time>
      </trkpt>
      <trkpt lat="29.19924" lon="-13.47455">
        <ele>307.6</ele>
        <time>2021-07-03 12:42:04</time>
      </trkpt>
      <trkpt lat="29.19923" lon="-13.47457">
        <ele>307.6</ele>
        <time>2021-07-03 12:42:05</time>
      </trkpt>
      <trkpt lat="29.19923" lon="-13.4746">
        <ele>307.6</ele>
        <time>2021-07-03 12:42:06</time>
      </trkpt>
      <trkpt lat="29.19922" lon="-13.47462">
        <ele>308</ele>
        <time>2021-07-03 12:42:07</time>
      </trkpt>
      <trkpt lat="29.19922" lon="-13.47465">
        <ele>308.6</ele>
        <time>2021-07-03 12:42:08</time>
      </trkpt>
      <trkpt lat="29.19921" lon="-13.47468">
        <ele>308.6</ele>
        <time>2021-07-03 12:42:09</time>
      </trkpt>
      <trkpt lat="29.19921" lon="-13.4747">
        <ele>309.2</ele>
        <time>2021-07-03 12:42:10</time>
      </trkpt>
      <trkpt lat="29.1992" lon="-13.47473">
        <ele>309.2</ele>
        <time>2021-07-03 12:42:11</time>
      </trkpt>
      <trkpt lat="29.19919" lon="-13.47475">
        <ele>309.2</ele>
        <time>2021-07-03 12:42:12</time>
      </trkpt>
      <trkpt lat="29.19918" lon="-13.47478">
        <ele>309.4</ele>
        <time>2021-07-03 12:42:13</time>
      </trkpt>
      <trkpt lat="29.19918" lon="-13.47481">
        <ele>309.8</ele>
        <time>2021-07-03 12:42:14</time>
      </trkpt>
      <trkpt lat="29.19917" lon="-13.47484">
        <ele>310.8</ele>
        <time>2021-07-03 12:42:15</time>
      </trkpt>
      <trkpt lat="29.19917" lon="-13.47487">
        <ele>310.4</ele>
        <time>2021-07-03 12:42:16</time>
      </trkpt>
      <trkpt lat="29.19916" lon="-13.4749">
        <ele>310.4</ele>
        <time>2021-07-03 12:42:17</time>
      </trkpt>
      <trkpt lat="29.19916" lon="-13.47493">
        <ele>310</ele>
        <time>2021-07-03 12:42:18</time>
      </trkpt>
      <trkpt lat="29.19915" lon="-13.47497">
        <ele>310</ele>
        <time>2021-07-03 12:42:19</time>
      </trkpt>
      <trkpt lat="29.19914" lon="-13.475">
        <ele>309.8</ele>
        <time>2021-07-03 12:42:20</time>
      </trkpt>
      <trkpt lat="29.19914" lon="-13.47503">
        <ele>309.8</ele>
        <time>2021-07-03 12:42:21</time>
      </trkpt>
      <trkpt lat="29.19913" lon="-13.47506">
        <ele>309.8</ele>
        <time>2021-07-03 12:42:22</time>
      </trkpt>
      <trkpt lat="29.19912" lon="-13.47509">
        <ele>309.8</ele>
        <time>2021-07-03 12:42:23</time>
      </trkpt>
      <trkpt lat="29.19911" lon="-13.47512">
        <ele>309.8</ele>
        <time>2021-07-03 12:42:24</time>
      </trkpt>
      <trkpt lat="29.19911" lon="-13.47516">
        <ele>309.8</ele>
        <time>2021-07-03 12:42:25</time>
      </trkpt>
      <trkpt lat="29.1991" lon="-13.47519">
        <ele>309.8</ele>
        <time>2021-07-03 12:42:26</time>
      </trkpt>
      <trkpt lat="29.19909" lon="-13.47522">
        <ele>309.8</ele>
        <time>2021-07-03 12:42:27</time>
      </trkpt>
      <trkpt lat="29.19908" lon="-13.47525">
        <ele>310.2</ele>
        <time>2021-07-03 12:42:28</time>
      </trkpt>
      <trkpt lat="29.19907" lon="-13.47528">
        <ele>310.2</ele>
        <time>2021-07-03 12:42:29</time>
      </trkpt>
      <trkpt lat="29.19905" lon="-13.47531">
        <ele>310.2</ele>
        <time>2021-07-03 12:42:30</time>
      </trkpt>
      <trkpt lat="29.19904" lon="-13.47534">
        <ele>310.2</ele>
        <time>2021-07-03 12:42:31</time>
      </trkpt>
      <trkpt lat="29.19902" lon="-13.47536">
        <ele>310.4</ele>
        <time>2021-07-03 12:42:32</time>
      </trkpt>
      <trkpt lat="29.19901" lon="-13.47538">
        <ele>310.8</ele>
        <time>2021-07-03 12:42:33</time>
      </trkpt>
      <trkpt lat="29.199" lon="-13.4754">
        <ele>310.8</ele>
        <time>2021-07-03 12:42:34</time>
      </trkpt>
      <trkpt lat="29.19899" lon="-13.47543">
        <ele>311</ele>
        <time>2021-07-03 12:42:35</time>
      </trkpt>
      <trkpt lat="29.19898" lon="-13.47545">
        <ele>311</ele>
        <time>2021-07-03 12:42:36</time>
      </trkpt>
      <trkpt lat="29.19896" lon="-13.47548">
        <ele>311.4</ele>
        <time>2021-07-03 12:42:37</time>
      </trkpt>
      <trkpt lat="29.19894" lon="-13.47551">
        <ele>311.6</ele>
        <time>2021-07-03 12:42:38</time>
      </trkpt>
      <trkpt lat="29.19892" lon="-13.47554">
        <ele>312</ele>
        <time>2021-07-03 12:42:39</time>
      </trkpt>
      <trkpt lat="29.1989" lon="-13.47557">
        <ele>313</ele>
        <time>2021-07-03 12:42:40</time>
      </trkpt>
      <trkpt lat="29.19888" lon="-13.47559">
        <ele>312.6</ele>
        <time>2021-07-03 12:42:41</time>
      </trkpt>
      <trkpt lat="29.19886" lon="-13.47561">
        <ele>312.8</ele>
        <time>2021-07-03 12:42:42</time>
      </trkpt>
      <trkpt lat="29.19883" lon="-13.47563">
        <ele>312.6</ele>
        <time>2021-07-03 12:42:43</time>
      </trkpt>
      <trkpt lat="29.19881" lon="-13.47565">
        <ele>312.6</ele>
        <time>2021-07-03 12:42:44</time>
      </trkpt>
      <trkpt lat="29.19878" lon="-13.47567">
        <ele>312.6</ele>
        <time>2021-07-03 12:42:45</time>
      </trkpt>
      <trkpt lat="29.19876" lon="-13.47569">
        <ele>312.6</ele>
        <time>2021-07-03 12:42:46</time>
      </trkpt>
      <trkpt lat="29.19873" lon="-13.47571">
        <ele>312.6</ele>
        <time>2021-07-03 12:42:47</time>
      </trkpt>
      <trkpt lat="29.1987" lon="-13.47573">
        <ele>312.6</ele>
        <time>2021-07-03 12:42:48</time>
      </trkpt>
      <trkpt lat="29.19867" lon="-13.47575">
        <ele>312.6</ele>
        <time>2021-07-03 12:42:49</time>
      </trkpt>
      <trkpt lat="29.19865" lon="-13.47576">
        <ele>312.6</ele>
        <time>2021-07-03 12:42:50</time>
      </trkpt>
      <trkpt lat="29.19862" lon="-13.47577">
        <ele>312.6</ele>
        <time>2021-07-03 12:42:51</time>
      </trkpt>
      <trkpt lat="29.19859" lon="-13.47579">
        <ele>312.8</ele>
        <time>2021-07-03 12:42:52</time>
      </trkpt>
      <trkpt lat="29.19857" lon="-13.47581">
        <ele>312.8</ele>
        <time>2021-07-03 12:42:53</time>
      </trkpt>
      <trkpt lat="29.19854" lon="-13.47582">
        <ele>312.8</ele>
        <time>2021-07-03 12:42:54</time>
      </trkpt>
      <trkpt lat="29.19851" lon="-13.47584">
        <ele>313.2</ele>
        <time>2021-07-03 12:42:55</time>
      </trkpt>
      <trkpt lat="29.19849" lon="-13.47585">
        <ele>313.8</ele>
        <time>2021-07-03 12:42:56</time>
      </trkpt>
      <trkpt lat="29.19846" lon="-13.47587">
        <ele>313.8</ele>
        <time>2021-07-03 12:42:57</time>
      </trkpt>
      <trkpt lat="29.19844" lon="-13.4759">
        <ele>313.4</ele>
        <time>2021-07-03 12:42:58</time>
      </trkpt>
      <trkpt lat="29.19841" lon="-13.47592">
        <ele>313.4</ele>
        <time>2021-07-03 12:42:59</time>
      </trkpt>
      <trkpt lat="29.19839" lon="-13.47594">
        <ele>313.4</ele>
        <time>2021-07-03 12:43:00</time>
      </trkpt>
      <trkpt lat="29.19836" lon="-13.47596">
        <ele>313.4</ele>
        <time>2021-07-03 12:43:01</time>
      </trkpt>
      <trkpt lat="29.19834" lon="-13.47598">
        <ele>313.4</ele>
        <time>2021-07-03 12:43:02</time>
      </trkpt>
      <trkpt lat="29.19832" lon="-13.47601">
        <ele>313.4</ele>
        <time>2021-07-03 12:43:03</time>
      </trkpt>
      <trkpt lat="29.1983" lon="-13.47603">
        <ele>313.6</ele>
        <time>2021-07-03 12:43:04</time>
      </trkpt>
      <trkpt lat="29.19828" lon="-13.47606">
        <ele>313.6</ele>
        <time>2021-07-03 12:43:05</time>
      </trkpt>
      <trkpt lat="29.19826" lon="-13.47608">
        <ele>313.8</ele>
        <time>2021-07-03 12:43:06</time>
      </trkpt>
      <trkpt lat="29.19824" lon="-13.47611">
        <ele>313.8</ele>
        <time>2021-07-03 12:43:07</time>
      </trkpt>
      <trkpt lat="29.19822" lon="-13.47613">
        <ele>313.8</ele>
        <time>2021-07-03 12:43:08</time>
      </trkpt>
      <trkpt lat="29.1982" lon="-13.47615">
        <ele>313.8</ele>
        <time>2021-07-03 12:43:09</time>
      </trkpt>
      <trkpt lat="29.19818" lon="-13.47618">
        <ele>314.2</ele>
        <time>2021-07-03 12:43:10</time>
      </trkpt>
      <trkpt lat="29.19816" lon="-13.4762">
        <ele>314.2</ele>
        <time>2021-07-03 12:43:11</time>
      </trkpt>
      <trkpt lat="29.19814" lon="-13.47623">
        <ele>314.2</ele>
        <time>2021-07-03 12:43:12</time>
      </trkpt>
      <trkpt lat="29.19813" lon="-13.47626">
        <ele>314.6</ele>
        <time>2021-07-03 12:43:13</time>
      </trkpt>
      <trkpt lat="29.19811" lon="-13.47628">
        <ele>314.6</ele>
        <time>2021-07-03 12:43:14</time>
      </trkpt>
      <trkpt lat="29.19809" lon="-13.4763">
        <ele>315</ele>
        <time>2021-07-03 12:43:15</time>
      </trkpt>
      <trkpt lat="29.19806" lon="-13.47632">
        <ele>315</ele>
        <time>2021-07-03 12:43:16</time>
      </trkpt>
      <trkpt lat="29.19804" lon="-13.47634">
        <ele>315.4</ele>
        <time>2021-07-03 12:43:17</time>
      </trkpt>
      <trkpt lat="29.19803" lon="-13.47636">
        <ele>315.4</ele>
        <time>2021-07-03 12:43:18</time>
      </trkpt>
      <trkpt lat="29.198" lon="-13.47638">
        <ele>315.4</ele>
        <time>2021-07-03 12:43:19</time>
      </trkpt>
      <trkpt lat="29.19798" lon="-13.47639">
        <ele>315.8</ele>
        <time>2021-07-03 12:43:20</time>
      </trkpt>
      <trkpt lat="29.19796" lon="-13.47641">
        <ele>315.8</ele>
        <time>2021-07-03 12:43:21</time>
      </trkpt>
      <trkpt lat="29.19794" lon="-13.47643">
        <ele>315.8</ele>
        <time>2021-07-03 12:43:22</time>
      </trkpt>
      <trkpt lat="29.19791" lon="-13.47644">
        <ele>315.8</ele>
        <time>2021-07-03 12:43:23</time>
      </trkpt>
      <trkpt lat="29.19789" lon="-13.47646">
        <ele>315.8</ele>
        <time>2021-07-03 12:43:24</time>
      </trkpt>
      <trkpt lat="29.19787" lon="-13.47647">
        <ele>315.8</ele>
        <time>2021-07-03 12:43:25</time>
      </trkpt>
      <trkpt lat="29.19785" lon="-13.47648">
        <ele>315.8</ele>
        <time>2021-07-03 12:43:26</time>
      </trkpt>
      <trkpt lat="29.19783" lon="-13.47649">
        <ele>315.8</ele>
        <time>2021-07-03 12:43:27</time>
      </trkpt>
      <trkpt lat="29.19782" lon="-13.4765">
        <ele>315.8</ele>
        <time>2021-07-03 12:43:28</time>
      </trkpt>
      <trkpt lat="29.1978" lon="-13.47651">
        <ele>315.8</ele>
        <time>2021-07-03 12:43:29</time>
      </trkpt>
      <trkpt lat="29.19779" lon="-13.47651">
        <ele>316.2</ele>
        <time>2021-07-03 12:43:30</time>
      </trkpt>
      <trkpt lat="29.19777" lon="-13.47652">
        <ele>316.4</ele>
        <time>2021-07-03 12:43:31</time>
      </trkpt>
      <trkpt lat="29.19775" lon="-13.47653">
        <ele>316.8</ele>
        <time>2021-07-03 12:43:32</time>
      </trkpt>
      <trkpt lat="29.19773" lon="-13.47654">
        <ele>317.2</ele>
        <time>2021-07-03 12:43:33</time>
      </trkpt>
      <trkpt lat="29.19771" lon="-13.47655">
        <ele>317.2</ele>
        <time>2021-07-03 12:43:34</time>
      </trkpt>
      <trkpt lat="29.19769" lon="-13.47657">
        <ele>317.2</ele>
        <time>2021-07-03 12:43:35</time>
      </trkpt>
      <trkpt lat="29.19767" lon="-13.47658">
        <ele>318.2</ele>
        <time>2021-07-03 12:43:36</time>
      </trkpt>
      <trkpt lat="29.19765" lon="-13.47659">
        <ele>317.8</ele>
        <time>2021-07-03 12:43:37</time>
      </trkpt>
      <trkpt lat="29.19763" lon="-13.4766">
        <ele>317.8</ele>
        <time>2021-07-03 12:43:38</time>
      </trkpt>
      <trkpt lat="29.19761" lon="-13.47661">
        <ele>317.8</ele>
        <time>2021-07-03 12:43:39</time>
      </trkpt>
      <trkpt lat="29.19759" lon="-13.47662">
        <ele>317.8</ele>
        <time>2021-07-03 12:43:40</time>
      </trkpt>
      <trkpt lat="29.19756" lon="-13.47663">
        <ele>317.8</ele>
        <time>2021-07-03 12:43:41</time>
      </trkpt>
      <trkpt lat="29.19754" lon="-13.47664">
        <ele>317.8</ele>
        <time>2021-07-03 12:43:42</time>
      </trkpt>
      <trkpt lat="29.19752" lon="-13.47665">
        <ele>317.8</ele>
        <time>2021-07-03 12:43:43</time>
      </trkpt>
      <trkpt lat="29.1975" lon="-13.47665">
        <ele>317.8</ele>
        <time>2021-07-03 12:43:44</time>
      </trkpt>
      <trkpt lat="29.19748" lon="-13.47666">
        <ele>318.2</ele>
        <time>2021-07-03 12:43:45</time>
      </trkpt>
      <trkpt lat="29.19746" lon="-13.47666">
        <ele>318.4</ele>
        <time>2021-07-03 12:43:46</time>
      </trkpt>
      <trkpt lat="29.19744" lon="-13.47667">
        <ele>318.8</ele>
        <time>2021-07-03 12:43:47</time>
      </trkpt>
      <trkpt lat="29.19743" lon="-13.47667">
        <ele>319.4</ele>
        <time>2021-07-03 12:43:48</time>
      </trkpt>
      <trkpt lat="29.19741" lon="-13.47668">
        <ele>319.4</ele>
        <time>2021-07-03 12:43:49</time>
      </trkpt>
      <trkpt lat="29.19739" lon="-13.47669">
        <ele>319.6</ele>
        <time>2021-07-03 12:43:50</time>
      </trkpt>
      <trkpt lat="29.19737" lon="-13.47669">
        <ele>319.6</ele>
        <time>2021-07-03 12:43:51</time>
      </trkpt>
      <trkpt lat="29.19735" lon="-13.4767">
        <ele>320</ele>
        <time>2021-07-03 12:43:52</time>
      </trkpt>
      <trkpt lat="29.19733" lon="-13.4767">
        <ele>320.4</ele>
        <time>2021-07-03 12:43:53</time>
      </trkpt>
      <trkpt lat="29.19732" lon="-13.4767">
        <ele>320.4</ele>
        <time>2021-07-03 12:43:54</time>
      </trkpt>
      <trkpt lat="29.1973" lon="-13.4767">
        <ele>321</ele>
        <time>2021-07-03 12:43:55</time>
      </trkpt>
      <trkpt lat="29.19728" lon="-13.4767">
        <ele>321.2</ele>
        <time>2021-07-03 12:43:56</time>
      </trkpt>
      <trkpt lat="29.19726" lon="-13.47671">
        <ele>321.6</ele>
        <time>2021-07-03 12:43:57</time>
      </trkpt>
      <trkpt lat="29.19724" lon="-13.47671">
        <ele>321.8</ele>
        <time>2021-07-03 12:43:58</time>
      </trkpt>
      <trkpt lat="29.19722" lon="-13.47671">
        <ele>322.2</ele>
        <time>2021-07-03 12:43:59</time>
      </trkpt>
      <trkpt lat="29.1972" lon="-13.47672">
        <ele>322.4</ele>
        <time>2021-07-03 12:44:00</time>
      </trkpt>
      <trkpt lat="29.19718" lon="-13.47672">
        <ele>322.4</ele>
        <time>2021-07-03 12:44:01</time>
      </trkpt>
      <trkpt lat="29.19716" lon="-13.47673">
        <ele>322.4</ele>
        <time>2021-07-03 12:44:02</time>
      </trkpt>
      <trkpt lat="29.19713" lon="-13.47674">
        <ele>322.8</ele>
        <time>2021-07-03 12:44:03</time>
      </trkpt>
      <trkpt lat="29.19711" lon="-13.47675">
        <ele>322.8</ele>
        <time>2021-07-03 12:44:04</time>
      </trkpt>
      <trkpt lat="29.19709" lon="-13.47676">
        <ele>322.8</ele>
        <time>2021-07-03 12:44:05</time>
      </trkpt>
      <trkpt lat="29.19707" lon="-13.47677">
        <ele>323.4</ele>
        <time>2021-07-03 12:44:06</time>
      </trkpt>
      <trkpt lat="29.19705" lon="-13.47679">
        <ele>323.4</ele>
        <time>2021-07-03 12:44:07</time>
      </trkpt>
      <trkpt lat="29.19703" lon="-13.4768">
        <ele>323.4</ele>
        <time>2021-07-03 12:44:08</time>
      </trkpt>
      <trkpt lat="29.19701" lon="-13.47681">
        <ele>323.8</ele>
        <time>2021-07-03 12:44:09</time>
      </trkpt>
      <trkpt lat="29.19699" lon="-13.47683">
        <ele>323.8</ele>
        <time>2021-07-03 12:44:10</time>
      </trkpt>
      <trkpt lat="29.19698" lon="-13.47684">
        <ele>324.2</ele>
        <time>2021-07-03 12:44:11</time>
      </trkpt>
      <trkpt lat="29.19696" lon="-13.47686">
        <ele>324.2</ele>
        <time>2021-07-03 12:44:12</time>
      </trkpt>
      <trkpt lat="29.19694" lon="-13.47688">
        <ele>324.2</ele>
        <time>2021-07-03 12:44:13</time>
      </trkpt>
      <trkpt lat="29.19693" lon="-13.4769">
        <ele>324.4</ele>
        <time>2021-07-03 12:44:14</time>
      </trkpt>
      <trkpt lat="29.19691" lon="-13.47692">
        <ele>324.8</ele>
        <time>2021-07-03 12:44:15</time>
      </trkpt>
      <trkpt lat="29.19689" lon="-13.47694">
        <ele>325</ele>
        <time>2021-07-03 12:44:16</time>
      </trkpt>
      <trkpt lat="29.19688" lon="-13.47695">
        <ele>325</ele>
        <time>2021-07-03 12:44:17</time>
      </trkpt>
      <trkpt lat="29.19687" lon="-13.47697">
        <ele>325</ele>
        <time>2021-07-03 12:44:18</time>
      </trkpt>
      <trkpt lat="29.19685" lon="-13.47699">
        <ele>325.4</ele>
        <time>2021-07-03 12:44:19</time>
      </trkpt>
      <trkpt lat="29.19683" lon="-13.47701">
        <ele>325.4</ele>
        <time>2021-07-03 12:44:20</time>
      </trkpt>
      <trkpt lat="29.19682" lon="-13.47702">
        <ele>325.6</ele>
        <time>2021-07-03 12:44:21</time>
      </trkpt>
      <trkpt lat="29.1968" lon="-13.47704">
        <ele>325.8</ele>
        <time>2021-07-03 12:44:22</time>
      </trkpt>
      <trkpt lat="29.19679" lon="-13.47706">
        <ele>326.2</ele>
        <time>2021-07-03 12:44:23</time>
      </trkpt>
      <trkpt lat="29.19678" lon="-13.47708">
        <ele>326.2</ele>
        <time>2021-07-03 12:44:24</time>
      </trkpt>
      <trkpt lat="29.19676" lon="-13.4771">
        <ele>326.6</ele>
        <time>2021-07-03 12:44:25</time>
      </trkpt>
      <trkpt lat="29.19675" lon="-13.47712">
        <ele>326.8</ele>
        <time>2021-07-03 12:44:26</time>
      </trkpt>
      <trkpt lat="29.19674" lon="-13.47714">
        <ele>326.8</ele>
        <time>2021-07-03 12:44:27</time>
      </trkpt>
      <trkpt lat="29.19672" lon="-13.47716">
        <ele>327.2</ele>
        <time>2021-07-03 12:44:28</time>
      </trkpt>
      <trkpt lat="29.19671" lon="-13.47717">
        <ele>327.6</ele>
        <time>2021-07-03 12:44:29</time>
      </trkpt>
      <trkpt lat="29.19669" lon="-13.47719">
        <ele>327.8</ele>
        <time>2021-07-03 12:44:30</time>
      </trkpt>
      <trkpt lat="29.19668" lon="-13.4772">
        <ele>327.8</ele>
        <time>2021-07-03 12:44:31</time>
      </trkpt>
      <trkpt lat="29.19666" lon="-13.47722">
        <ele>328.2</ele>
        <time>2021-07-03 12:44:32</time>
      </trkpt>
      <trkpt lat="29.19664" lon="-13.47723">
        <ele>328.2</ele>
        <time>2021-07-03 12:44:33</time>
      </trkpt>
      <trkpt lat="29.19663" lon="-13.47725">
        <ele>328.4</ele>
        <time>2021-07-03 12:44:34</time>
      </trkpt>
      <trkpt lat="29.19662" lon="-13.47727">
        <ele>329</ele>
        <time>2021-07-03 12:44:35</time>
      </trkpt>
      <trkpt lat="29.19661" lon="-13.47728">
        <ele>329</ele>
        <time>2021-07-03 12:44:36</time>
      </trkpt>
      <trkpt lat="29.19661" lon="-13.4773">
        <ele>329.4</ele>
        <time>2021-07-03 12:44:37</time>
      </trkpt>
      <trkpt lat="29.19661" lon="-13.47732">
        <ele>329.6</ele>
        <time>2021-07-03 12:44:38</time>
      </trkpt>
      <trkpt lat="29.19661" lon="-13.47735">
        <ele>330</ele>
        <time>2021-07-03 12:44:39</time>
      </trkpt>
      <trkpt lat="29.19661" lon="-13.47737">
        <ele>330.2</ele>
        <time>2021-07-03 12:44:40</time>
      </trkpt>
      <trkpt lat="29.19662" lon="-13.47739">
        <ele>330.8</ele>
        <time>2021-07-03 12:44:41</time>
      </trkpt>
      <trkpt lat="29.19663" lon="-13.47741">
        <ele>331</ele>
        <time>2021-07-03 12:44:42</time>
      </trkpt>
      <trkpt lat="29.19664" lon="-13.47742">
        <ele>331</ele>
        <time>2021-07-03 12:44:43</time>
      </trkpt>
      <trkpt lat="29.19664" lon="-13.47744">
        <ele>331.6</ele>
        <time>2021-07-03 12:44:44</time>
      </trkpt>
      <trkpt lat="29.19665" lon="-13.47745">
        <ele>332</ele>
        <time>2021-07-03 12:44:45</time>
      </trkpt>
      <trkpt lat="29.19666" lon="-13.47747">
        <ele>332.2</ele>
        <time>2021-07-03 12:44:46</time>
      </trkpt>
      <trkpt lat="29.19667" lon="-13.47749">
        <ele>332.6</ele>
        <time>2021-07-03 12:44:47</time>
      </trkpt>
      <trkpt lat="29.19668" lon="-13.47751">
        <ele>332.8</ele>
        <time>2021-07-03 12:44:48</time>
      </trkpt>
      <trkpt lat="29.19669" lon="-13.47753">
        <ele>333.2</ele>
        <time>2021-07-03 12:44:49</time>
      </trkpt>
      <trkpt lat="29.19669" lon="-13.47754">
        <ele>333.2</ele>
        <time>2021-07-03 12:44:50</time>
      </trkpt>
      <trkpt lat="29.1967" lon="-13.47756">
        <ele>333.6</ele>
        <time>2021-07-03 12:44:51</time>
      </trkpt>
      <trkpt lat="29.19671" lon="-13.47758">
        <ele>333.6</ele>
        <time>2021-07-03 12:44:52</time>
      </trkpt>
      <trkpt lat="29.19673" lon="-13.47759">
        <ele>333.8</ele>
        <time>2021-07-03 12:44:53</time>
      </trkpt>
      <trkpt lat="29.19674" lon="-13.47761">
        <ele>334.2</ele>
        <time>2021-07-03 12:44:54</time>
      </trkpt>
      <trkpt lat="29.19675" lon="-13.47763">
        <ele>334.4</ele>
        <time>2021-07-03 12:44:55</time>
      </trkpt>
      <trkpt lat="29.19676" lon="-13.47764">
        <ele>334.8</ele>
        <time>2021-07-03 12:44:56</time>
      </trkpt>
      <trkpt lat="29.19677" lon="-13.47766">
        <ele>335.2</ele>
        <time>2021-07-03 12:44:57</time>
      </trkpt>
      <trkpt lat="29.19679" lon="-13.47767">
        <ele>335.4</ele>
        <time>2021-07-03 12:44:58</time>
      </trkpt>
      <trkpt lat="29.1968" lon="-13.47769">
        <ele>335.4</ele>
        <time>2021-07-03 12:44:59</time>
      </trkpt>
      <trkpt lat="29.19682" lon="-13.47771">
        <ele>335.8</ele>
        <time>2021-07-03 12:45:00</time>
      </trkpt>
      <trkpt lat="29.19683" lon="-13.47772">
        <ele>335.8</ele>
        <time>2021-07-03 12:45:01</time>
      </trkpt>
      <trkpt lat="29.19684" lon="-13.47774">
        <ele>336</ele>
        <time>2021-07-03 12:45:02</time>
      </trkpt>
      <trkpt lat="29.19686" lon="-13.47775">
        <ele>336</ele>
        <time>2021-07-03 12:45:03</time>
      </trkpt>
      <trkpt lat="29.19687" lon="-13.47777">
        <ele>336.6</ele>
        <time>2021-07-03 12:45:04</time>
      </trkpt>
      <trkpt lat="29.19688" lon="-13.47778">
        <ele>336.8</ele>
        <time>2021-07-03 12:45:05</time>
      </trkpt>
      <trkpt lat="29.1969" lon="-13.4778">
        <ele>337</ele>
        <time>2021-07-03 12:45:06</time>
      </trkpt>
      <trkpt lat="29.19691" lon="-13.47782">
        <ele>337.4</ele>
        <time>2021-07-03 12:45:07</time>
      </trkpt>
      <trkpt lat="29.19693" lon="-13.47783">
        <ele>337.4</ele>
        <time>2021-07-03 12:45:08</time>
      </trkpt>
      <trkpt lat="29.19695" lon="-13.47784">
        <ele>337.8</ele>
        <time>2021-07-03 12:45:09</time>
      </trkpt>
      <trkpt lat="29.19697" lon="-13.47785">
        <ele>337.8</ele>
        <time>2021-07-03 12:45:10</time>
      </trkpt>
      <trkpt lat="29.19698" lon="-13.47786">
        <ele>338.2</ele>
        <time>2021-07-03 12:45:11</time>
      </trkpt>
      <trkpt lat="29.197" lon="-13.47787">
        <ele>338.4</ele>
        <time>2021-07-03 12:45:12</time>
      </trkpt>
      <trkpt lat="29.19702" lon="-13.47788">
        <ele>338.8</ele>
        <time>2021-07-03 12:45:13</time>
      </trkpt>
      <trkpt lat="29.19704" lon="-13.47788">
        <ele>339</ele>
        <time>2021-07-03 12:45:14</time>
      </trkpt>
      <trkpt lat="29.19706" lon="-13.47789">
        <ele>339.4</ele>
        <time>2021-07-03 12:45:15</time>
      </trkpt>
      <trkpt lat="29.19708" lon="-13.47789">
        <ele>339.4</ele>
        <time>2021-07-03 12:45:16</time>
      </trkpt>
      <trkpt lat="29.1971" lon="-13.4779">
        <ele>339.8</ele>
        <time>2021-07-03 12:45:17</time>
      </trkpt>
      <trkpt lat="29.19712" lon="-13.4779">
        <ele>339.8</ele>
        <time>2021-07-03 12:45:18</time>
      </trkpt>
      <trkpt lat="29.19714" lon="-13.47791">
        <ele>340.2</ele>
        <time>2021-07-03 12:45:19</time>
      </trkpt>
      <trkpt lat="29.19715" lon="-13.47792">
        <ele>340.2</ele>
        <time>2021-07-03 12:45:20</time>
      </trkpt>
      <trkpt lat="29.19717" lon="-13.47793">
        <ele>340.6</ele>
        <time>2021-07-03 12:45:21</time>
      </trkpt>
      <trkpt lat="29.19718" lon="-13.47795">
        <ele>341.4</ele>
        <time>2021-07-03 12:45:22</time>
      </trkpt>
      <trkpt lat="29.19719" lon="-13.47796">
        <ele>341.4</ele>
        <time>2021-07-03 12:45:23</time>
      </trkpt>
      <trkpt lat="29.1972" lon="-13.47798">
        <ele>341.8</ele>
        <time>2021-07-03 12:45:24</time>
      </trkpt>
      <trkpt lat="29.1972" lon="-13.478">
        <ele>341.8</ele>
        <time>2021-07-03 12:45:25</time>
      </trkpt>
      <trkpt lat="29.1972" lon="-13.47801">
        <ele>341.8</ele>
        <time>2021-07-03 12:45:26</time>
      </trkpt>
      <trkpt lat="29.19721" lon="-13.47803">
        <ele>342.2</ele>
        <time>2021-07-03 12:45:27</time>
      </trkpt>
      <trkpt lat="29.19721" lon="-13.47805">
        <ele>342.6</ele>
        <time>2021-07-03 12:45:28</time>
      </trkpt>
      <trkpt lat="29.1972" lon="-13.47806">
        <ele>342.6</ele>
        <time>2021-07-03 12:45:29</time>
      </trkpt>
      <trkpt lat="29.19719" lon="-13.47808">
        <ele>343</ele>
        <time>2021-07-03 12:45:30</time>
      </trkpt>
      <trkpt lat="29.19718" lon="-13.47808">
        <ele>343.8</ele>
        <time>2021-07-03 12:45:31</time>
      </trkpt>
      <trkpt lat="29.19716" lon="-13.47809">
        <ele>343.8</ele>
        <time>2021-07-03 12:45:32</time>
      </trkpt>
      <trkpt lat="29.19715" lon="-13.4781">
        <ele>343.8</ele>
        <time>2021-07-03 12:45:33</time>
      </trkpt>
      <trkpt lat="29.19714" lon="-13.47811">
        <ele>343.8</ele>
        <time>2021-07-03 12:45:34</time>
      </trkpt>
      <trkpt lat="29.19713" lon="-13.47811">
        <ele>344.2</ele>
        <time>2021-07-03 12:45:35</time>
      </trkpt>
      <trkpt lat="29.19711" lon="-13.47811">
        <ele>344.4</ele>
        <time>2021-07-03 12:45:36</time>
      </trkpt>
      <trkpt lat="29.19709" lon="-13.47811">
        <ele>344.8</ele>
        <time>2021-07-03 12:45:37</time>
      </trkpt>
      <trkpt lat="29.19708" lon="-13.47811">
        <ele>345</ele>
        <time>2021-07-03 12:45:38</time>
      </trkpt>
      <trkpt lat="29.19706" lon="-13.47812">
        <ele>345.2</ele>
        <time>2021-07-03 12:45:39</time>
      </trkpt>
      <trkpt lat="29.19705" lon="-13.47812">
        <ele>345.8</ele>
        <time>2021-07-03 12:45:40</time>
      </trkpt>
      <trkpt lat="29.19703" lon="-13.47812">
        <ele>345.8</ele>
        <time>2021-07-03 12:45:41</time>
      </trkpt>
      <trkpt lat="29.19701" lon="-13.47813">
        <ele>346.2</ele>
        <time>2021-07-03 12:45:42</time>
      </trkpt>
      <trkpt lat="29.197" lon="-13.47814">
        <ele>346.6</ele>
        <time>2021-07-03 12:45:43</time>
      </trkpt>
      <trkpt lat="29.19698" lon="-13.47815">
        <ele>346.8</ele>
        <time>2021-07-03 12:45:44</time>
      </trkpt>
      <trkpt lat="29.19697" lon="-13.47816">
        <ele>347.2</ele>
        <time>2021-07-03 12:45:45</time>
      </trkpt>
      <trkpt lat="29.19696" lon="-13.47817">
        <ele>347.6</ele>
        <time>2021-07-03 12:45:46</time>
      </trkpt>
      <trkpt lat="29.19695" lon="-13.47818">
        <ele>347.8</ele>
        <time>2021-07-03 12:45:47</time>
      </trkpt>
      <trkpt lat="29.19693" lon="-13.4782">
        <ele>347.8</ele>
        <time>2021-07-03 12:45:48</time>
      </trkpt>
      <trkpt lat="29.19692" lon="-13.47821">
        <ele>348.2</ele>
        <time>2021-07-03 12:45:49</time>
      </trkpt>
      <trkpt lat="29.19691" lon="-13.47823">
        <ele>348.4</ele>
        <time>2021-07-03 12:45:50</time>
      </trkpt>
      <trkpt lat="29.1969" lon="-13.47825">
        <ele>348.8</ele>
        <time>2021-07-03 12:45:51</time>
      </trkpt>
      <trkpt lat="29.19689" lon="-13.47827">
        <ele>349</ele>
        <time>2021-07-03 12:45:52</time>
      </trkpt>
      <trkpt lat="29.19687" lon="-13.47828">
        <ele>349.4</ele>
        <time>2021-07-03 12:45:53</time>
      </trkpt>
      <trkpt lat="29.19686" lon="-13.4783">
        <ele>349.6</ele>
        <time>2021-07-03 12:45:54</time>
      </trkpt>
      <trkpt lat="29.19685" lon="-13.47832">
        <ele>350</ele>
        <time>2021-07-03 12:45:55</time>
      </trkpt>
      <trkpt lat="29.19684" lon="-13.47834">
        <ele>350</ele>
        <time>2021-07-03 12:45:56</time>
      </trkpt>
      <trkpt lat="29.19683" lon="-13.47835">
        <ele>350.4</ele>
        <time>2021-07-03 12:45:57</time>
      </trkpt>
      <trkpt lat="29.19682" lon="-13.47837">
        <ele>351.4</ele>
        <time>2021-07-03 12:45:58</time>
      </trkpt>
      <trkpt lat="29.19681" lon="-13.47839">
        <ele>351.4</ele>
        <time>2021-07-03 12:45:59</time>
      </trkpt>
      <trkpt lat="29.19679" lon="-13.4784">
        <ele>351.4</ele>
        <time>2021-07-03 12:46:00</time>
      </trkpt>
      <trkpt lat="29.19678" lon="-13.47842">
        <ele>352.2</ele>
        <time>2021-07-03 12:46:01</time>
      </trkpt>
      <trkpt lat="29.19677" lon="-13.47844">
        <ele>352.2</ele>
        <time>2021-07-03 12:46:02</time>
      </trkpt>
      <trkpt lat="29.19676" lon="-13.47845">
        <ele>352.2</ele>
        <time>2021-07-03 12:46:03</time>
      </trkpt>
      <trkpt lat="29.19675" lon="-13.47846">
        <ele>352.6</ele>
        <time>2021-07-03 12:46:04</time>
      </trkpt>
      <trkpt lat="29.19674" lon="-13.47848">
        <ele>353</ele>
        <time>2021-07-03 12:46:05</time>
      </trkpt>
      <trkpt lat="29.19674" lon="-13.4785">
        <ele>353.6</ele>
        <time>2021-07-03 12:46:06</time>
      </trkpt>
      <trkpt lat="29.19674" lon="-13.47851">
        <ele>354</ele>
        <time>2021-07-03 12:46:07</time>
      </trkpt>
      <trkpt lat="29.19674" lon="-13.47851">
        <ele>354.4</ele>
        <time>2021-07-03 12:46:08</time>
      </trkpt>
      <trkpt lat="29.19674" lon="-13.47851">
        <ele>355</ele>
        <time>2021-07-03 12:46:09</time>
      </trkpt>
      <trkpt lat="29.19675" lon="-13.4785">
        <ele>355.4</ele>
        <time>2021-07-03 12:46:10</time>
      </trkpt>
      <trkpt lat="29.19674" lon="-13.47852">
        <ele>356.4</ele>
        <time>2021-07-03 12:46:11</time>
      </trkpt>
      <trkpt lat="29.19674" lon="-13.47852">
        <ele>356.4</ele>
        <time>2021-07-03 12:46:12</time>
      </trkpt>
      <trkpt lat="29.19674" lon="-13.47852">
        <ele>356.8</ele>
        <time>2021-07-03 12:46:13</time>
      </trkpt>
      <trkpt lat="29.19674" lon="-13.47852">
        <ele>356.8</ele>
        <time>2021-07-03 12:46:14</time>
      </trkpt>
      <trkpt lat="29.1967" lon="-13.4785">
        <ele>358.4</ele>
        <time>2021-07-03 12:46:20</time>
      </trkpt>
      <trkpt lat="29.19669" lon="-13.4785">
        <ele>358.2</ele>
        <time>2021-07-03 12:46:21</time>
      </trkpt>
      <trkpt lat="29.19669" lon="-13.47849">
        <ele>358.2</ele>
        <time>2021-07-03 12:46:22</time>
      </trkpt>
      <trkpt lat="29.19668" lon="-13.47849">
        <ele>358.2</ele>
        <time>2021-07-03 12:46:23</time>
      </trkpt>
      <trkpt lat="29.19667" lon="-13.47848">
        <ele>358.2</ele>
        <time>2021-07-03 12:46:51</time>
      </trkpt>
      <trkpt lat="29.19667" lon="-13.47848">
        <ele>358.2</ele>
        <time>2021-07-03 12:46:52</time>
      </trkpt>
      <trkpt lat="29.19667" lon="-13.47848">
        <ele>358.2</ele>
        <time>2021-07-03 12:46:53</time>
      </trkpt>
      <trkpt lat="29.19667" lon="-13.47848">
        <ele>358.2</ele>
        <time>2021-07-03 12:46:54</time>
      </trkpt>
      <trkpt lat="29.19668" lon="-13.47849">
        <ele>358.2</ele>
        <time>2021-07-03 12:46:55</time>
      </trkpt>
      <trkpt lat="29.19666" lon="-13.47851">
        <ele>358.4</ele>
        <time>2021-07-03 12:46:56</time>
      </trkpt>
      <trkpt lat="29.19665" lon="-13.47852">
        <ele>358.4</ele>
        <time>2021-07-03 12:46:57</time>
      </trkpt>
      <trkpt lat="29.19664" lon="-13.47853">
        <ele>358.4</ele>
        <time>2021-07-03 12:46:58</time>
      </trkpt>
      <trkpt lat="29.19662" lon="-13.47854">
        <ele>358.4</ele>
        <time>2021-07-03 12:46:59</time>
      </trkpt>
      <trkpt lat="29.19661" lon="-13.47854">
        <ele>358.4</ele>
        <time>2021-07-03 12:47:06</time>
      </trkpt>
      <trkpt lat="29.19659" lon="-13.47854">
        <ele>358</ele>
        <time>2021-07-03 12:47:07</time>
      </trkpt>
      <trkpt lat="29.19658" lon="-13.47853">
        <ele>358</ele>
        <time>2021-07-03 12:47:08</time>
      </trkpt>
      <trkpt lat="29.19657" lon="-13.47853">
        <ele>357.8</ele>
        <time>2021-07-03 12:47:09</time>
      </trkpt>
      <trkpt lat="29.19656" lon="-13.47853">
        <ele>357.8</ele>
        <time>2021-07-03 12:47:10</time>
      </trkpt>
      <trkpt lat="29.19655" lon="-13.47852">
        <ele>357.4</ele>
        <time>2021-07-03 12:47:11</time>
      </trkpt>
      <trkpt lat="29.19655" lon="-13.47852">
        <ele>357.4</ele>
        <time>2021-07-03 12:47:12</time>
      </trkpt>
      <trkpt lat="29.19655" lon="-13.47852">
        <ele>357</ele>
        <time>2021-07-03 12:47:13</time>
      </trkpt>
      <trkpt lat="29.19655" lon="-13.47851">
        <ele>357</ele>
        <time>2021-07-03 12:47:14</time>
      </trkpt>
      <trkpt lat="29.19655" lon="-13.47851">
        <ele>357</ele>
        <time>2021-07-03 12:47:15</time>
      </trkpt>
      <trkpt lat="29.19654" lon="-13.47851">
        <ele>357.2</ele>
        <time>2021-07-03 12:47:16</time>
      </trkpt>
      <trkpt lat="29.19653" lon="-13.47852">
        <ele>357.2</ele>
        <time>2021-07-03 12:47:17</time>
      </trkpt>
      <trkpt lat="29.19653" lon="-13.47852">
        <ele>357.2</ele>
        <time>2021-07-03 12:47:18</time>
      </trkpt>
      <trkpt lat="29.19653" lon="-13.47852">
        <ele>357.8</ele>
        <time>2021-07-03 12:47:19</time>
      </trkpt>
      <trkpt lat="29.19654" lon="-13.4785">
        <ele>357.8</ele>
        <time>2021-07-03 12:47:23</time>
      </trkpt>
      <trkpt lat="29.19654" lon="-13.47849">
        <ele>357.4</ele>
        <time>2021-07-03 12:47:24</time>
      </trkpt>
      <trkpt lat="29.19654" lon="-13.47849">
        <ele>357.4</ele>
        <time>2021-07-03 12:47:25</time>
      </trkpt>
      <trkpt lat="29.19654" lon="-13.47849">
        <ele>357.4</ele>
        <time>2021-07-03 12:47:26</time>
      </trkpt>
      <trkpt lat="29.19654" lon="-13.47849">
        <ele>357.4</ele>
        <time>2021-07-03 12:47:27</time>
      </trkpt>
      <trkpt lat="29.19655" lon="-13.4785">
        <ele>357.4</ele>
        <time>2021-07-03 12:47:28</time>
      </trkpt>
      <trkpt lat="29.19655" lon="-13.47849">
        <ele>357.4</ele>
        <time>2021-07-03 12:47:29</time>
      </trkpt>
      <trkpt lat="29.19655" lon="-13.47849">
        <ele>357.4</ele>
        <time>2021-07-03 12:47:30</time>
      </trkpt>
      <trkpt lat="29.19655" lon="-13.4785">
        <ele>357.2</ele>
        <time>2021-07-03 12:47:31</time>
      </trkpt>
      <trkpt lat="29.19655" lon="-13.47851">
        <ele>358.2</ele>
        <time>2021-07-03 12:47:59</time>
      </trkpt>
      <trkpt lat="29.19655" lon="-13.47851">
        <ele>358.4</ele>
        <time>2021-07-03 12:48:00</time>
      </trkpt>
      <trkpt lat="29.19655" lon="-13.47851">
        <ele>358.4</ele>
        <time>2021-07-03 12:48:01</time>
      </trkpt>
      <trkpt lat="29.19654" lon="-13.4785">
        <ele>357.4</ele>
        <time>2021-07-03 12:48:12</time>
      </trkpt>
      <trkpt lat="29.19655" lon="-13.47852">
        <ele>357.4</ele>
        <time>2021-07-03 12:48:13</time>
      </trkpt>
      <trkpt lat="29.19654" lon="-13.47853">
        <ele>357</ele>
        <time>2021-07-03 12:48:14</time>
      </trkpt>
      <trkpt lat="29.19654" lon="-13.47855">
        <ele>357</ele>
        <time>2021-07-03 12:48:15</time>
      </trkpt>
      <trkpt lat="29.19653" lon="-13.47856">
        <ele>357</ele>
        <time>2021-07-03 12:50:13</time>
      </trkpt>
      <trkpt lat="29.19653" lon="-13.47856">
        <ele>357.6</ele>
        <time>2021-07-03 12:50:14</time>
      </trkpt>
      <trkpt lat="29.19653" lon="-13.47856">
        <ele>357.6</ele>
        <time>2021-07-03 12:50:15</time>
      </trkpt>
      <trkpt lat="29.19653" lon="-13.47856">
        <ele>357.2</ele>
        <time>2021-07-03 12:50:16</time>
      </trkpt>
      <trkpt lat="29.19654" lon="-13.47856">
        <ele>357.2</ele>
        <time>2021-07-03 12:50:17</time>
      </trkpt>
      <trkpt lat="29.19654" lon="-13.47857">
        <ele>356.8</ele>
        <time>2021-07-03 12:50:18</time>
      </trkpt>
      <trkpt lat="29.19654" lon="-13.47856">
        <ele>356.8</ele>
        <time>2021-07-03 12:50:19</time>
      </trkpt>
      <trkpt lat="29.19654" lon="-13.47856">
        <ele>357.2</ele>
        <time>2021-07-03 12:50:20</time>
      </trkpt>
      <trkpt lat="29.19654" lon="-13.47856">
        <ele>357.2</ele>
        <time>2021-07-03 12:50:21</time>
      </trkpt>
      <trkpt lat="29.19653" lon="-13.47855">
        <ele>357.8</ele>
        <time>2021-07-03 13:00:09</time>
      </trkpt>
      <trkpt lat="29.19653" lon="-13.47855">
        <ele>357.8</ele>
        <time>2021-07-03 13:00:10</time>
      </trkpt>
      <trkpt lat="29.19653" lon="-13.47855">
        <ele>357.8</ele>
        <time>2021-07-03 13:00:11</time>
      </trkpt>
      <trkpt lat="29.19653" lon="-13.47855">
        <ele>357.8</ele>
        <time>2021-07-03 13:00:12</time>
      </trkpt>
      <trkpt lat="29.19653" lon="-13.47855">
        <ele>356.6</ele>
        <time>2021-07-03 13:00:15</time>
      </trkpt>
      <trkpt lat="29.19653" lon="-13.47855">
        <ele>356.6</ele>
        <time>2021-07-03 13:00:16</time>
      </trkpt>
      <trkpt lat="29.19653" lon="-13.47855">
        <ele>356.8</ele>
        <time>2021-07-03 13:00:17</time>
      </trkpt>
      <trkpt lat="29.19653" lon="-13.47855">
        <ele>357.2</ele>
        <time>2021-07-03 13:00:18</time>
      </trkpt>
      <trkpt lat="29.19651" lon="-13.47856">
        <ele>357.2</ele>
        <time>2021-07-03 13:01:00</time>
      </trkpt>
      <trkpt lat="29.1965" lon="-13.47856">
        <ele>357.4</ele>
        <time>2021-07-03 13:01:01</time>
      </trkpt>
      <trkpt lat="29.19649" lon="-13.47857">
        <ele>357.4</ele>
        <time>2021-07-03 13:01:02</time>
      </trkpt>
      <trkpt lat="29.19647" lon="-13.47857">
        <ele>357.8</ele>
        <time>2021-07-03 13:01:03</time>
      </trkpt>
      <trkpt lat="29.19645" lon="-13.47858">
        <ele>357.8</ele>
        <time>2021-07-03 13:01:04</time>
      </trkpt>
      <trkpt lat="29.19642" lon="-13.47858">
        <ele>357.8</ele>
        <time>2021-07-03 13:01:05</time>
      </trkpt>
      <trkpt lat="29.1964" lon="-13.47858">
        <ele>357.8</ele>
        <time>2021-07-03 13:01:06</time>
      </trkpt>
      <trkpt lat="29.19638" lon="-13.47858">
        <ele>357.8</ele>
        <time>2021-07-03 13:01:07</time>
      </trkpt>
      <trkpt lat="29.19636" lon="-13.47858">
        <ele>357.8</ele>
        <time>2021-07-03 13:01:08</time>
      </trkpt>
      <trkpt lat="29.19633" lon="-13.47859">
        <ele>358</ele>
        <time>2021-07-03 13:01:09</time>
      </trkpt>
      <trkpt lat="29.1963" lon="-13.47859">
        <ele>358</ele>
        <time>2021-07-03 13:01:10</time>
      </trkpt>
      <trkpt lat="29.19628" lon="-13.47861">
        <ele>358</ele>
        <time>2021-07-03 13:01:11</time>
      </trkpt>
      <trkpt lat="29.19625" lon="-13.47862">
        <ele>358</ele>
        <time>2021-07-03 13:01:12</time>
      </trkpt>
      <trkpt lat="29.19623" lon="-13.47864">
        <ele>358</ele>
        <time>2021-07-03 13:01:13</time>
      </trkpt>
      <trkpt lat="29.19621" lon="-13.47866">
        <ele>357.8</ele>
        <time>2021-07-03 13:01:14</time>
      </trkpt>
      <trkpt lat="29.19619" lon="-13.47868">
        <ele>357.8</ele>
        <time>2021-07-03 13:01:15</time>
      </trkpt>
      <trkpt lat="29.19618" lon="-13.4787">
        <ele>357.8</ele>
        <time>2021-07-03 13:01:16</time>
      </trkpt>
      <trkpt lat="29.19616" lon="-13.47873">
        <ele>357.8</ele>
        <time>2021-07-03 13:01:17</time>
      </trkpt>
      <trkpt lat="29.19615" lon="-13.47875">
        <ele>357.8</ele>
        <time>2021-07-03 13:01:18</time>
      </trkpt>
      <trkpt lat="29.19614" lon="-13.47878">
        <ele>357.8</ele>
        <time>2021-07-03 13:01:19</time>
      </trkpt>
      <trkpt lat="29.19613" lon="-13.47882">
        <ele>357.8</ele>
        <time>2021-07-03 13:01:20</time>
      </trkpt>
      <trkpt lat="29.19612" lon="-13.47885">
        <ele>358</ele>
        <time>2021-07-03 13:01:21</time>
      </trkpt>
      <trkpt lat="29.19611" lon="-13.47888">
        <ele>358</ele>
        <time>2021-07-03 13:01:22</time>
      </trkpt>
      <trkpt lat="29.19611" lon="-13.47892">
        <ele>358</ele>
        <time>2021-07-03 13:01:23</time>
      </trkpt>
      <trkpt lat="29.1961" lon="-13.47896">
        <ele>358</ele>
        <time>2021-07-03 13:01:24</time>
      </trkpt>
      <trkpt lat="29.1961" lon="-13.47899">
        <ele>358.2</ele>
        <time>2021-07-03 13:01:25</time>
      </trkpt>
      <trkpt lat="29.19609" lon="-13.47903">
        <ele>358.2</ele>
        <time>2021-07-03 13:01:26</time>
      </trkpt>
      <trkpt lat="29.19609" lon="-13.47906">
        <ele>358.4</ele>
        <time>2021-07-03 13:01:27</time>
      </trkpt>
      <trkpt lat="29.19609" lon="-13.47909">
        <ele>358.4</ele>
        <time>2021-07-03 13:01:28</time>
      </trkpt>
      <trkpt lat="29.19609" lon="-13.4791">
        <ele>358.4</ele>
        <time>2021-07-03 13:01:29</time>
      </trkpt>
      <trkpt lat="29.19609" lon="-13.4791">
        <ele>358.4</ele>
        <time>2021-07-03 13:01:30</time>
      </trkpt>
      <trkpt lat="29.19609" lon="-13.4791">
        <ele>358.4</ele>
        <time>2021-07-03 13:01:31</time>
      </trkpt>
      <trkpt lat="29.19609" lon="-13.4791">
        <ele>358.4</ele>
        <time>2021-07-03 13:01:32</time>
      </trkpt>
      <trkpt lat="29.19609" lon="-13.4791">
        <ele>358.4</ele>
        <time>2021-07-03 13:01:33</time>
      </trkpt>
      <trkpt lat="29.19608" lon="-13.47912">
        <ele>358.4</ele>
        <time>2021-07-03 13:01:34</time>
      </trkpt>
      <trkpt lat="29.19607" lon="-13.47915">
        <ele>358.4</ele>
        <time>2021-07-03 13:01:35</time>
      </trkpt>
      <trkpt lat="29.19606" lon="-13.47918">
        <ele>358.4</ele>
        <time>2021-07-03 13:01:36</time>
      </trkpt>
      <trkpt lat="29.19605" lon="-13.47922">
        <ele>358.4</ele>
        <time>2021-07-03 13:01:37</time>
      </trkpt>
      <trkpt lat="29.19603" lon="-13.47926">
        <ele>358.4</ele>
        <time>2021-07-03 13:01:40</time>
      </trkpt>
      <trkpt lat="29.19602" lon="-13.4793">
        <ele>358.4</ele>
        <time>2021-07-03 13:01:41</time>
      </trkpt>
      <trkpt lat="29.19602" lon="-13.47935">
        <ele>358.4</ele>
        <time>2021-07-03 13:01:42</time>
      </trkpt>
      <trkpt lat="29.19602" lon="-13.47939">
        <ele>358.4</ele>
        <time>2021-07-03 13:01:43</time>
      </trkpt>
      <trkpt lat="29.19602" lon="-13.47944">
        <ele>358.8</ele>
        <time>2021-07-03 13:01:44</time>
      </trkpt>
      <trkpt lat="29.19601" lon="-13.47949">
        <ele>358.8</ele>
        <time>2021-07-03 13:01:45</time>
      </trkpt>
      <trkpt lat="29.196" lon="-13.47954">
        <ele>358.8</ele>
        <time>2021-07-03 13:01:46</time>
      </trkpt>
      <trkpt lat="29.19599" lon="-13.47959">
        <ele>358.8</ele>
        <time>2021-07-03 13:01:47</time>
      </trkpt>
      <trkpt lat="29.19599" lon="-13.47964">
        <ele>358.8</ele>
        <time>2021-07-03 13:01:48</time>
      </trkpt>
      <trkpt lat="29.19598" lon="-13.4797">
        <ele>358.8</ele>
        <time>2021-07-03 13:01:49</time>
      </trkpt>
      <trkpt lat="29.19597" lon="-13.47975">
        <ele>358.8</ele>
        <time>2021-07-03 13:01:50</time>
      </trkpt>
      <trkpt lat="29.19597" lon="-13.4798">
        <ele>358.8</ele>
        <time>2021-07-03 13:01:51</time>
      </trkpt>
      <trkpt lat="29.19596" lon="-13.47986">
        <ele>358.6</ele>
        <time>2021-07-03 13:01:52</time>
      </trkpt>
      <trkpt lat="29.19595" lon="-13.47991">
        <ele>358.6</ele>
        <time>2021-07-03 13:01:53</time>
      </trkpt>
      <trkpt lat="29.19594" lon="-13.47996">
        <ele>358.2</ele>
        <time>2021-07-03 13:01:54</time>
      </trkpt>
      <trkpt lat="29.19594" lon="-13.48002">
        <ele>358.2</ele>
        <time>2021-07-03 13:01:55</time>
      </trkpt>
      <trkpt lat="29.19594" lon="-13.48007">
        <ele>358.2</ele>
        <time>2021-07-03 13:01:56</time>
      </trkpt>
      <trkpt lat="29.19592" lon="-13.48012">
        <ele>357.8</ele>
        <time>2021-07-03 13:01:57</time>
      </trkpt>
      <trkpt lat="29.19591" lon="-13.48017">
        <ele>357.8</ele>
        <time>2021-07-03 13:01:58</time>
      </trkpt>
      <trkpt lat="29.1959" lon="-13.48022">
        <ele>357.8</ele>
        <time>2021-07-03 13:01:59</time>
      </trkpt>
      <trkpt lat="29.19589" lon="-13.48028">
        <ele>357.8</ele>
        <time>2021-07-03 13:02:00</time>
      </trkpt>
      <trkpt lat="29.19589" lon="-13.48033">
        <ele>357.6</ele>
        <time>2021-07-03 13:02:01</time>
      </trkpt>
      <trkpt lat="29.19588" lon="-13.48039">
        <ele>357.6</ele>
        <time>2021-07-03 13:02:02</time>
      </trkpt>
      <trkpt lat="29.19587" lon="-13.48044">
        <ele>357.6</ele>
        <time>2021-07-03 13:02:03</time>
      </trkpt>
      <trkpt lat="29.19585" lon="-13.48049">
        <ele>357.6</ele>
        <time>2021-07-03 13:02:04</time>
      </trkpt>
      <trkpt lat="29.19584" lon="-13.48055">
        <ele>357.6</ele>
        <time>2021-07-03 13:02:05</time>
      </trkpt>
      <trkpt lat="29.19583" lon="-13.4806">
        <ele>357.6</ele>
        <time>2021-07-03 13:02:06</time>
      </trkpt>
      <trkpt lat="29.19583" lon="-13.48066">
        <ele>357.6</ele>
        <time>2021-07-03 13:02:07</time>
      </trkpt>
      <trkpt lat="29.19582" lon="-13.48072">
        <ele>357.2</ele>
        <time>2021-07-03 13:02:08</time>
      </trkpt>
      <trkpt lat="29.19581" lon="-13.48078">
        <ele>357.2</ele>
        <time>2021-07-03 13:02:09</time>
      </trkpt>
      <trkpt lat="29.19579" lon="-13.48083">
        <ele>357.2</ele>
        <time>2021-07-03 13:02:10</time>
      </trkpt>
      <trkpt lat="29.19578" lon="-13.4809">
        <ele>357.2</ele>
        <time>2021-07-03 13:02:11</time>
      </trkpt>
      <trkpt lat="29.19576" lon="-13.48095">
        <ele>357.2</ele>
        <time>2021-07-03 13:02:12</time>
      </trkpt>
      <trkpt lat="29.19575" lon="-13.48101">
        <ele>357.2</ele>
        <time>2021-07-03 13:02:13</time>
      </trkpt>
      <trkpt lat="29.19574" lon="-13.48106">
        <ele>357</ele>
        <time>2021-07-03 13:02:14</time>
      </trkpt>
      <trkpt lat="29.19573" lon="-13.48112">
        <ele>357</ele>
        <time>2021-07-03 13:02:15</time>
      </trkpt>
      <trkpt lat="29.19572" lon="-13.48117">
        <ele>357.2</ele>
        <time>2021-07-03 13:02:16</time>
      </trkpt>
      <trkpt lat="29.19571" lon="-13.48123">
        <ele>357.2</ele>
        <time>2021-07-03 13:02:17</time>
      </trkpt>
      <trkpt lat="29.1957" lon="-13.48128">
        <ele>357.2</ele>
        <time>2021-07-03 13:02:18</time>
      </trkpt>
      <trkpt lat="29.19569" lon="-13.48134">
        <ele>357</ele>
        <time>2021-07-03 13:02:19</time>
      </trkpt>
      <trkpt lat="29.19568" lon="-13.48139">
        <ele>357</ele>
        <time>2021-07-03 13:02:20</time>
      </trkpt>
      <trkpt lat="29.19567" lon="-13.48145">
        <ele>357</ele>
        <time>2021-07-03 13:02:21</time>
      </trkpt>
      <trkpt lat="29.19566" lon="-13.48151">
        <ele>357</ele>
        <time>2021-07-03 13:02:22</time>
      </trkpt>
      <trkpt lat="29.19566" lon="-13.48156">
        <ele>357</ele>
        <time>2021-07-03 13:02:23</time>
      </trkpt>
      <trkpt lat="29.19566" lon="-13.48162">
        <ele>357</ele>
        <time>2021-07-03 13:02:24</time>
      </trkpt>
      <trkpt lat="29.19566" lon="-13.48169">
        <ele>357</ele>
        <time>2021-07-03 13:02:25</time>
      </trkpt>
      <trkpt lat="29.19565" lon="-13.48175">
        <ele>357</ele>
        <time>2021-07-03 13:02:26</time>
      </trkpt>
      <trkpt lat="29.19565" lon="-13.48182">
        <ele>357</ele>
        <time>2021-07-03 13:02:27</time>
      </trkpt>
      <trkpt lat="29.19565" lon="-13.48188">
        <ele>357</ele>
        <time>2021-07-03 13:02:28</time>
      </trkpt>
      <trkpt lat="29.19564" lon="-13.48194">
        <ele>357</ele>
        <time>2021-07-03 13:02:29</time>
      </trkpt>
      <trkpt lat="29.19564" lon="-13.48201">
        <ele>357</ele>
        <time>2021-07-03 13:02:30</time>
      </trkpt>
      <trkpt lat="29.19564" lon="-13.48207">
        <ele>357.2</ele>
        <time>2021-07-03 13:02:31</time>
      </trkpt>
      <trkpt lat="29.19564" lon="-13.48213">
        <ele>357.2</ele>
        <time>2021-07-03 13:02:32</time>
      </trkpt>
      <trkpt lat="29.19563" lon="-13.4822">
        <ele>357.2</ele>
        <time>2021-07-03 13:02:33</time>
      </trkpt>
      <trkpt lat="29.19563" lon="-13.48226">
        <ele>357.6</ele>
        <time>2021-07-03 13:02:34</time>
      </trkpt>
      <trkpt lat="29.19563" lon="-13.48232">
        <ele>357.6</ele>
        <time>2021-07-03 13:02:35</time>
      </trkpt>
      <trkpt lat="29.19563" lon="-13.48238">
        <ele>357.8</ele>
        <time>2021-07-03 13:02:36</time>
      </trkpt>
      <trkpt lat="29.19562" lon="-13.48244">
        <ele>357.8</ele>
        <time>2021-07-03 13:02:37</time>
      </trkpt>
      <trkpt lat="29.19562" lon="-13.4825">
        <ele>357.8</ele>
        <time>2021-07-03 13:02:38</time>
      </trkpt>
      <trkpt lat="29.19562" lon="-13.48256">
        <ele>358</ele>
        <time>2021-07-03 13:02:39</time>
      </trkpt>
      <trkpt lat="29.19563" lon="-13.48261">
        <ele>358</ele>
        <time>2021-07-03 13:02:40</time>
      </trkpt>
      <trkpt lat="29.19562" lon="-13.48266">
        <ele>358.4</ele>
        <time>2021-07-03 13:02:41</time>
      </trkpt>
      <trkpt lat="29.19563" lon="-13.48271">
        <ele>358.6</ele>
        <time>2021-07-03 13:02:42</time>
      </trkpt>
      <trkpt lat="29.19563" lon="-13.48275">
        <ele>358.6</ele>
        <time>2021-07-03 13:02:43</time>
      </trkpt>
      <trkpt lat="29.19564" lon="-13.4828">
        <ele>359</ele>
        <time>2021-07-03 13:02:44</time>
      </trkpt>
      <trkpt lat="29.19564" lon="-13.48285">
        <ele>359</ele>
        <time>2021-07-03 13:02:45</time>
      </trkpt>
      <trkpt lat="29.19564" lon="-13.48289">
        <ele>359.2</ele>
        <time>2021-07-03 13:02:46</time>
      </trkpt>
      <trkpt lat="29.19565" lon="-13.48293">
        <ele>359.2</ele>
        <time>2021-07-03 13:02:47</time>
      </trkpt>
      <trkpt lat="29.19565" lon="-13.48298">
        <ele>359.2</ele>
        <time>2021-07-03 13:02:48</time>
      </trkpt>
      <trkpt lat="29.19566" lon="-13.48302">
        <ele>359.2</ele>
        <time>2021-07-03 13:02:49</time>
      </trkpt>
      <trkpt lat="29.19567" lon="-13.48306">
        <ele>359.2</ele>
        <time>2021-07-03 13:02:50</time>
      </trkpt>
      <trkpt lat="29.19568" lon="-13.48311">
        <ele>359.2</ele>
        <time>2021-07-03 13:02:51</time>
      </trkpt>
      <trkpt lat="29.19568" lon="-13.48315">
        <ele>359.6</ele>
        <time>2021-07-03 13:02:52</time>
      </trkpt>
      <trkpt lat="29.19568" lon="-13.48319">
        <ele>359.6</ele>
        <time>2021-07-03 13:02:53</time>
      </trkpt>
      <trkpt lat="29.19569" lon="-13.48323">
        <ele>359.6</ele>
        <time>2021-07-03 13:02:54</time>
      </trkpt>
      <trkpt lat="29.19569" lon="-13.48326">
        <ele>359.6</ele>
        <time>2021-07-03 13:02:55</time>
      </trkpt>
      <trkpt lat="29.19569" lon="-13.4833">
        <ele>359.8</ele>
        <time>2021-07-03 13:02:56</time>
      </trkpt>
      <trkpt lat="29.19569" lon="-13.48333">
        <ele>359.8</ele>
        <time>2021-07-03 13:02:57</time>
      </trkpt>
      <trkpt lat="29.1957" lon="-13.48336">
        <ele>359.8</ele>
        <time>2021-07-03 13:02:58</time>
      </trkpt>
      <trkpt lat="29.19571" lon="-13.48337">
        <ele>359.8</ele>
        <time>2021-07-03 13:02:59</time>
      </trkpt>
      <trkpt lat="29.19573" lon="-13.48338">
        <ele>359.6</ele>
        <time>2021-07-03 13:03:00</time>
      </trkpt>
      <trkpt lat="29.19576" lon="-13.48338">
        <ele>359.6</ele>
        <time>2021-07-03 13:03:01</time>
      </trkpt>
      <trkpt lat="29.19579" lon="-13.48337">
        <ele>359.6</ele>
        <time>2021-07-03 13:03:02</time>
      </trkpt>
      <trkpt lat="29.19581" lon="-13.48336">
        <ele>359.6</ele>
        <time>2021-07-03 13:03:03</time>
      </trkpt>
      <trkpt lat="29.19584" lon="-13.48335">
        <ele>359.2</ele>
        <time>2021-07-03 13:03:04</time>
      </trkpt>
      <trkpt lat="29.19587" lon="-13.48334">
        <ele>359.2</ele>
        <time>2021-07-03 13:03:05</time>
      </trkpt>
      <trkpt lat="29.1959" lon="-13.48333">
        <ele>359</ele>
        <time>2021-07-03 13:03:06</time>
      </trkpt>
      <trkpt lat="29.19594" lon="-13.48331">
        <ele>359</ele>
        <time>2021-07-03 13:03:07</time>
      </trkpt>
      <trkpt lat="29.19597" lon="-13.4833">
        <ele>359</ele>
        <time>2021-07-03 13:03:08</time>
      </trkpt>
      <trkpt lat="29.196" lon="-13.48329">
        <ele>359</ele>
        <time>2021-07-03 13:03:09</time>
      </trkpt>
      <trkpt lat="29.19604" lon="-13.48327">
        <ele>359</ele>
        <time>2021-07-03 13:03:10</time>
      </trkpt>
      <trkpt lat="29.19607" lon="-13.48326">
        <ele>359</ele>
        <time>2021-07-03 13:03:11</time>
      </trkpt>
      <trkpt lat="29.1961" lon="-13.48324">
        <ele>359</ele>
        <time>2021-07-03 13:03:12</time>
      </trkpt>
      <trkpt lat="29.19614" lon="-13.48323">
        <ele>359</ele>
        <time>2021-07-03 13:03:13</time>
      </trkpt>
      <trkpt lat="29.19617" lon="-13.48322">
        <ele>359.4</ele>
        <time>2021-07-03 13:03:14</time>
      </trkpt>
      <trkpt lat="29.1962" lon="-13.4832">
        <ele>359.8</ele>
        <time>2021-07-03 13:03:15</time>
      </trkpt>
      <trkpt lat="29.19623" lon="-13.48319">
        <ele>359.8</ele>
        <time>2021-07-03 13:03:16</time>
      </trkpt>
      <trkpt lat="29.19626" lon="-13.48317">
        <ele>359.8</ele>
        <time>2021-07-03 13:03:17</time>
      </trkpt>
      <trkpt lat="29.1963" lon="-13.48316">
        <ele>359.8</ele>
        <time>2021-07-03 13:03:18</time>
      </trkpt>
      <trkpt lat="29.19633" lon="-13.48316">
        <ele>359.8</ele>
        <time>2021-07-03 13:03:19</time>
      </trkpt>
      <trkpt lat="29.19636" lon="-13.48315">
        <ele>359.6</ele>
        <time>2021-07-03 13:03:20</time>
      </trkpt>
      <trkpt lat="29.19639" lon="-13.48316">
        <ele>359.6</ele>
        <time>2021-07-03 13:03:21</time>
      </trkpt>
      <trkpt lat="29.19641" lon="-13.48316">
        <ele>359.8</ele>
        <time>2021-07-03 13:03:22</time>
      </trkpt>
      <trkpt lat="29.19644" lon="-13.48316">
        <ele>359.8</ele>
        <time>2021-07-03 13:03:23</time>
      </trkpt>
      <trkpt lat="29.19646" lon="-13.48317">
        <ele>360</ele>
        <time>2021-07-03 13:03:24</time>
      </trkpt>
      <trkpt lat="29.19648" lon="-13.48318">
        <ele>360.6</ele>
        <time>2021-07-03 13:03:25</time>
      </trkpt>
      <trkpt lat="29.1965" lon="-13.48319">
        <ele>361</ele>
        <time>2021-07-03 13:03:26</time>
      </trkpt>
      <trkpt lat="29.19652" lon="-13.4832">
        <ele>361.4</ele>
        <time>2021-07-03 13:03:27</time>
      </trkpt>
      <trkpt lat="29.19654" lon="-13.48321">
        <ele>361.4</ele>
        <time>2021-07-03 13:03:28</time>
      </trkpt>
      <trkpt lat="29.19656" lon="-13.48322">
        <ele>361.6</ele>
        <time>2021-07-03 13:03:29</time>
      </trkpt>
      <trkpt lat="29.19658" lon="-13.48323">
        <ele>361.6</ele>
        <time>2021-07-03 13:03:30</time>
      </trkpt>
      <trkpt lat="29.1966" lon="-13.48324">
        <ele>361.6</ele>
        <time>2021-07-03 13:03:31</time>
      </trkpt>
      <trkpt lat="29.19661" lon="-13.48325">
        <ele>362.2</ele>
        <time>2021-07-03 13:03:32</time>
      </trkpt>
      <trkpt lat="29.19663" lon="-13.48326">
        <ele>362.4</ele>
        <time>2021-07-03 13:03:33</time>
      </trkpt>
      <trkpt lat="29.19665" lon="-13.48326">
        <ele>362.8</ele>
        <time>2021-07-03 13:03:34</time>
      </trkpt>
      <trkpt lat="29.19666" lon="-13.48327">
        <ele>363</ele>
        <time>2021-07-03 13:03:35</time>
      </trkpt>
      <trkpt lat="29.19668" lon="-13.48326">
        <ele>363.6</ele>
        <time>2021-07-03 13:03:36</time>
      </trkpt>
      <trkpt lat="29.1967" lon="-13.48326">
        <ele>364.4</ele>
        <time>2021-07-03 13:03:37</time>
      </trkpt>
      <trkpt lat="29.19671" lon="-13.48327">
        <ele>364.4</ele>
        <time>2021-07-03 13:03:38</time>
      </trkpt>
      <trkpt lat="29.19672" lon="-13.48329">
        <ele>364.8</ele>
        <time>2021-07-03 13:03:39</time>
      </trkpt>
      <trkpt lat="29.19672" lon="-13.48331">
        <ele>365</ele>
        <time>2021-07-03 13:03:40</time>
      </trkpt>
      <trkpt lat="29.19674" lon="-13.48332">
        <ele>365.2</ele>
        <time>2021-07-03 13:03:41</time>
      </trkpt>
      <trkpt lat="29.19675" lon="-13.48332">
        <ele>365.4</ele>
        <time>2021-07-03 13:03:42</time>
      </trkpt>
      <trkpt lat="29.19677" lon="-13.48332">
        <ele>365.6</ele>
        <time>2021-07-03 13:03:43</time>
      </trkpt>
      <trkpt lat="29.19678" lon="-13.48332">
        <ele>365.8</ele>
        <time>2021-07-03 13:03:44</time>
      </trkpt>
      <trkpt lat="29.1968" lon="-13.48333">
        <ele>366.2</ele>
        <time>2021-07-03 13:03:45</time>
      </trkpt>
      <trkpt lat="29.19681" lon="-13.48335">
        <ele>366.4</ele>
        <time>2021-07-03 13:03:46</time>
      </trkpt>
      <trkpt lat="29.19682" lon="-13.48336">
        <ele>366.4</ele>
        <time>2021-07-03 13:03:47</time>
      </trkpt>
      <trkpt lat="29.19684" lon="-13.48337">
        <ele>366.8</ele>
        <time>2021-07-03 13:03:48</time>
      </trkpt>
      <trkpt lat="29.19685" lon="-13.48338">
        <ele>367.2</ele>
        <time>2021-07-03 13:03:49</time>
      </trkpt>
      <trkpt lat="29.19687" lon="-13.48339">
        <ele>367.6</ele>
        <time>2021-07-03 13:03:50</time>
      </trkpt>
      <trkpt lat="29.19688" lon="-13.48339">
        <ele>367.8</ele>
        <time>2021-07-03 13:03:51</time>
      </trkpt>
      <trkpt lat="29.1969" lon="-13.48341">
        <ele>368.2</ele>
        <time>2021-07-03 13:03:52</time>
      </trkpt>
      <trkpt lat="29.19691" lon="-13.48342">
        <ele>368.2</ele>
        <time>2021-07-03 13:03:53</time>
      </trkpt>
      <trkpt lat="29.19693" lon="-13.48343">
        <ele>368.6</ele>
        <time>2021-07-03 13:03:54</time>
      </trkpt>
      <trkpt lat="29.19694" lon="-13.48344">
        <ele>368.8</ele>
        <time>2021-07-03 13:03:55</time>
      </trkpt>
      <trkpt lat="29.19696" lon="-13.48345">
        <ele>369</ele>
        <time>2021-07-03 13:03:56</time>
      </trkpt>
      <trkpt lat="29.19697" lon="-13.48347">
        <ele>369</ele>
        <time>2021-07-03 13:03:57</time>
      </trkpt>
      <trkpt lat="29.19698" lon="-13.48348">
        <ele>369.4</ele>
        <time>2021-07-03 13:03:58</time>
      </trkpt>
      <trkpt lat="29.19699" lon="-13.4835">
        <ele>369.8</ele>
        <time>2021-07-03 13:03:59</time>
      </trkpt>
      <trkpt lat="29.197" lon="-13.48352">
        <ele>370</ele>
        <time>2021-07-03 13:04:00</time>
      </trkpt>
      <trkpt lat="29.19702" lon="-13.48353">
        <ele>370.2</ele>
        <time>2021-07-03 13:04:01</time>
      </trkpt>
      <trkpt lat="29.19703" lon="-13.48354">
        <ele>370.6</ele>
        <time>2021-07-03 13:04:02</time>
      </trkpt>
      <trkpt lat="29.19705" lon="-13.48356">
        <ele>370.8</ele>
        <time>2021-07-03 13:04:03</time>
      </trkpt>
      <trkpt lat="29.19706" lon="-13.48357">
        <ele>371</ele>
        <time>2021-07-03 13:04:04</time>
      </trkpt>
      <trkpt lat="29.19708" lon="-13.48359">
        <ele>371</ele>
        <time>2021-07-03 13:04:05</time>
      </trkpt>
      <trkpt lat="29.19709" lon="-13.48361">
        <ele>371.4</ele>
        <time>2021-07-03 13:04:06</time>
      </trkpt>
      <trkpt lat="29.19711" lon="-13.48363">
        <ele>371.4</ele>
        <time>2021-07-03 13:04:07</time>
      </trkpt>
      <trkpt lat="29.19712" lon="-13.48364">
        <ele>371.8</ele>
        <time>2021-07-03 13:04:08</time>
      </trkpt>
      <trkpt lat="29.19713" lon="-13.48366">
        <ele>371.8</ele>
        <time>2021-07-03 13:04:09</time>
      </trkpt>
      <trkpt lat="29.19715" lon="-13.48368">
        <ele>372.2</ele>
        <time>2021-07-03 13:04:10</time>
      </trkpt>
      <trkpt lat="29.19717" lon="-13.4837">
        <ele>372.2</ele>
        <time>2021-07-03 13:04:11</time>
      </trkpt>
      <trkpt lat="29.19718" lon="-13.48372">
        <ele>372.6</ele>
        <time>2021-07-03 13:04:12</time>
      </trkpt>
      <trkpt lat="29.1972" lon="-13.48374">
        <ele>372.8</ele>
        <time>2021-07-03 13:04:13</time>
      </trkpt>
      <trkpt lat="29.19722" lon="-13.48375">
        <ele>373.2</ele>
        <time>2021-07-03 13:04:14</time>
      </trkpt>
      <trkpt lat="29.19724" lon="-13.48377">
        <ele>373.4</ele>
        <time>2021-07-03 13:04:15</time>
      </trkpt>
      <trkpt lat="29.19725" lon="-13.48379">
        <ele>373.6</ele>
        <time>2021-07-03 13:04:16</time>
      </trkpt>
      <trkpt lat="29.19727" lon="-13.48381">
        <ele>373.6</ele>
        <time>2021-07-03 13:04:17</time>
      </trkpt>
      <trkpt lat="29.19729" lon="-13.48382">
        <ele>373.6</ele>
        <time>2021-07-03 13:04:18</time>
      </trkpt>
      <trkpt lat="29.19731" lon="-13.48384">
        <ele>374</ele>
        <time>2021-07-03 13:04:19</time>
      </trkpt>
      <trkpt lat="29.19733" lon="-13.48386">
        <ele>374.2</ele>
        <time>2021-07-03 13:04:20</time>
      </trkpt>
      <trkpt lat="29.19735" lon="-13.48387">
        <ele>374.4</ele>
        <time>2021-07-03 13:04:21</time>
      </trkpt>
      <trkpt lat="29.19736" lon="-13.48389">
        <ele>374.6</ele>
        <time>2021-07-03 13:04:22</time>
      </trkpt>
      <trkpt lat="29.19738" lon="-13.4839">
        <ele>374.8</ele>
        <time>2021-07-03 13:04:23</time>
      </trkpt>
      <trkpt lat="29.19741" lon="-13.48391">
        <ele>375.2</ele>
        <time>2021-07-03 13:04:24</time>
      </trkpt>
      <trkpt lat="29.19743" lon="-13.48393">
        <ele>375.2</ele>
        <time>2021-07-03 13:04:25</time>
      </trkpt>
      <trkpt lat="29.19745" lon="-13.48394">
        <ele>375.6</ele>
        <time>2021-07-03 13:04:26</time>
      </trkpt>
      <trkpt lat="29.19747" lon="-13.48395">
        <ele>376</ele>
        <time>2021-07-03 13:04:27</time>
      </trkpt>
      <trkpt lat="29.19749" lon="-13.48396">
        <ele>376</ele>
        <time>2021-07-03 13:04:28</time>
      </trkpt>
      <trkpt lat="29.19751" lon="-13.48398">
        <ele>376.2</ele>
        <time>2021-07-03 13:04:29</time>
      </trkpt>
      <trkpt lat="29.19754" lon="-13.48399">
        <ele>376.2</ele>
        <time>2021-07-03 13:04:30</time>
      </trkpt>
      <trkpt lat="29.19756" lon="-13.484">
        <ele>376.4</ele>
        <time>2021-07-03 13:04:31</time>
      </trkpt>
      <trkpt lat="29.19758" lon="-13.48401">
        <ele>376.6</ele>
        <time>2021-07-03 13:04:32</time>
      </trkpt>
      <trkpt lat="29.1976" lon="-13.48401">
        <ele>376.8</ele>
        <time>2021-07-03 13:04:33</time>
      </trkpt>
      <trkpt lat="29.19763" lon="-13.48403">
        <ele>376.8</ele>
        <time>2021-07-03 13:04:34</time>
      </trkpt>
      <trkpt lat="29.19765" lon="-13.48404">
        <ele>377.2</ele>
        <time>2021-07-03 13:04:35</time>
      </trkpt>
      <trkpt lat="29.19768" lon="-13.48405">
        <ele>377.2</ele>
        <time>2021-07-03 13:04:36</time>
      </trkpt>
      <trkpt lat="29.1977" lon="-13.48406">
        <ele>377.6</ele>
        <time>2021-07-03 13:04:37</time>
      </trkpt>
      <trkpt lat="29.19772" lon="-13.48407">
        <ele>377.6</ele>
        <time>2021-07-03 13:04:38</time>
      </trkpt>
      <trkpt lat="29.19775" lon="-13.48408">
        <ele>378</ele>
        <time>2021-07-03 13:04:39</time>
      </trkpt>
      <trkpt lat="29.19777" lon="-13.48409">
        <ele>378</ele>
        <time>2021-07-03 13:04:40</time>
      </trkpt>
      <trkpt lat="29.1978" lon="-13.4841">
        <ele>378.4</ele>
        <time>2021-07-03 13:04:41</time>
      </trkpt>
      <trkpt lat="29.19782" lon="-13.48411">
        <ele>378.4</ele>
        <time>2021-07-03 13:04:42</time>
      </trkpt>
      <trkpt lat="29.19785" lon="-13.48412">
        <ele>378.4</ele>
        <time>2021-07-03 13:04:43</time>
      </trkpt>
      <trkpt lat="29.19787" lon="-13.48413">
        <ele>378.8</ele>
        <time>2021-07-03 13:04:44</time>
      </trkpt>
      <trkpt lat="29.1979" lon="-13.48414">
        <ele>379</ele>
        <time>2021-07-03 13:04:45</time>
      </trkpt>
      <trkpt lat="29.19793" lon="-13.48415">
        <ele>379</ele>
        <time>2021-07-03 13:04:46</time>
      </trkpt>
      <trkpt lat="29.19795" lon="-13.48416">
        <ele>379.2</ele>
        <time>2021-07-03 13:04:47</time>
      </trkpt>
      <trkpt lat="29.19798" lon="-13.48417">
        <ele>379.2</ele>
        <time>2021-07-03 13:04:48</time>
      </trkpt>
      <trkpt lat="29.19801" lon="-13.48418">
        <ele>379.6</ele>
        <time>2021-07-03 13:04:49</time>
      </trkpt>
      <trkpt lat="29.19804" lon="-13.48418">
        <ele>380</ele>
        <time>2021-07-03 13:04:50</time>
      </trkpt>
      <trkpt lat="29.19807" lon="-13.48418">
        <ele>380</ele>
        <time>2021-07-03 13:04:51</time>
      </trkpt>
      <trkpt lat="29.1981" lon="-13.48419">
        <ele>380.2</ele>
        <time>2021-07-03 13:04:52</time>
      </trkpt>
      <trkpt lat="29.19813" lon="-13.48419">
        <ele>380.2</ele>
        <time>2021-07-03 13:04:53</time>
      </trkpt>
      <trkpt lat="29.19816" lon="-13.4842">
        <ele>380.2</ele>
        <time>2021-07-03 13:04:54</time>
      </trkpt>
      <trkpt lat="29.19818" lon="-13.4842">
        <ele>380.4</ele>
        <time>2021-07-03 13:04:55</time>
      </trkpt>
      <trkpt lat="29.19821" lon="-13.48421">
        <ele>380.4</ele>
        <time>2021-07-03 13:04:56</time>
      </trkpt>
      <trkpt lat="29.19824" lon="-13.48421">
        <ele>380.6</ele>
        <time>2021-07-03 13:04:57</time>
      </trkpt>
      <trkpt lat="29.19827" lon="-13.48421">
        <ele>380.6</ele>
        <time>2021-07-03 13:04:58</time>
      </trkpt>
      <trkpt lat="29.1983" lon="-13.48421">
        <ele>381</ele>
        <time>2021-07-03 13:04:59</time>
      </trkpt>
      <trkpt lat="29.19833" lon="-13.48421">
        <ele>381</ele>
        <time>2021-07-03 13:05:00</time>
      </trkpt>
      <trkpt lat="29.19836" lon="-13.48422">
        <ele>381</ele>
        <time>2021-07-03 13:05:01</time>
      </trkpt>
      <trkpt lat="29.19839" lon="-13.48422">
        <ele>381.4</ele>
        <time>2021-07-03 13:05:02</time>
      </trkpt>
      <trkpt lat="29.19842" lon="-13.48423">
        <ele>381.6</ele>
        <time>2021-07-03 13:05:03</time>
      </trkpt>
      <trkpt lat="29.19845" lon="-13.48423">
        <ele>382</ele>
        <time>2021-07-03 13:05:04</time>
      </trkpt>
      <trkpt lat="29.19848" lon="-13.48423">
        <ele>382.2</ele>
        <time>2021-07-03 13:05:05</time>
      </trkpt>
      <trkpt lat="29.19851" lon="-13.48423">
        <ele>382.4</ele>
        <time>2021-07-03 13:05:06</time>
      </trkpt>
      <trkpt lat="29.19854" lon="-13.48423">
        <ele>382.8</ele>
        <time>2021-07-03 13:05:07</time>
      </trkpt>
      <trkpt lat="29.19857" lon="-13.48423">
        <ele>383</ele>
        <time>2021-07-03 13:05:08</time>
      </trkpt>
      <trkpt lat="29.1986" lon="-13.48423">
        <ele>383</ele>
        <time>2021-07-03 13:05:09</time>
      </trkpt>
      <trkpt lat="29.19863" lon="-13.48422">
        <ele>383.2</ele>
        <time>2021-07-03 13:05:10</time>
      </trkpt>
      <trkpt lat="29.19866" lon="-13.48422">
        <ele>383.2</ele>
        <time>2021-07-03 13:05:11</time>
      </trkpt>
      <trkpt lat="29.19869" lon="-13.48421">
        <ele>383.2</ele>
        <time>2021-07-03 13:05:12</time>
      </trkpt>
      <trkpt lat="29.19872" lon="-13.4842">
        <ele>383.4</ele>
        <time>2021-07-03 13:05:13</time>
      </trkpt>
      <trkpt lat="29.19875" lon="-13.4842">
        <ele>383.4</ele>
        <time>2021-07-03 13:05:14</time>
      </trkpt>
      <trkpt lat="29.19878" lon="-13.48419">
        <ele>383.8</ele>
        <time>2021-07-03 13:05:15</time>
      </trkpt>
      <trkpt lat="29.19881" lon="-13.48418">
        <ele>383.8</ele>
        <time>2021-07-03 13:05:16</time>
      </trkpt>
      <trkpt lat="29.19885" lon="-13.48417">
        <ele>383.8</ele>
        <time>2021-07-03 13:05:17</time>
      </trkpt>
      <trkpt lat="29.19888" lon="-13.48416">
        <ele>384</ele>
        <time>2021-07-03 13:05:18</time>
      </trkpt>
      <trkpt lat="29.19891" lon="-13.48415">
        <ele>384</ele>
        <time>2021-07-03 13:05:19</time>
      </trkpt>
      <trkpt lat="29.19894" lon="-13.48414">
        <ele>384</ele>
        <time>2021-07-03 13:05:20</time>
      </trkpt>
      <trkpt lat="29.19897" lon="-13.48413">
        <ele>384</ele>
        <time>2021-07-03 13:05:21</time>
      </trkpt>
      <trkpt lat="29.199" lon="-13.48413">
        <ele>384</ele>
        <time>2021-07-03 13:05:22</time>
      </trkpt>
      <trkpt lat="29.19903" lon="-13.48412">
        <ele>384</ele>
        <time>2021-07-03 13:05:23</time>
      </trkpt>
      <trkpt lat="29.19906" lon="-13.48411">
        <ele>384</ele>
        <time>2021-07-03 13:05:24</time>
      </trkpt>
      <trkpt lat="29.19909" lon="-13.4841">
        <ele>384</ele>
        <time>2021-07-03 13:05:25</time>
      </trkpt>
      <trkpt lat="29.19912" lon="-13.48408">
        <ele>384</ele>
        <time>2021-07-03 13:05:26</time>
      </trkpt>
      <trkpt lat="29.19916" lon="-13.48408">
        <ele>384</ele>
        <time>2021-07-03 13:05:27</time>
      </trkpt>
      <trkpt lat="29.19919" lon="-13.48407">
        <ele>384.6</ele>
        <time>2021-07-03 13:05:28</time>
      </trkpt>
      <trkpt lat="29.19922" lon="-13.48406">
        <ele>384.6</ele>
        <time>2021-07-03 13:05:29</time>
      </trkpt>
      <trkpt lat="29.19926" lon="-13.48405">
        <ele>384.6</ele>
        <time>2021-07-03 13:05:30</time>
      </trkpt>
      <trkpt lat="29.19929" lon="-13.48404">
        <ele>384.8</ele>
        <time>2021-07-03 13:05:31</time>
      </trkpt>
      <trkpt lat="29.19932" lon="-13.48403">
        <ele>384.8</ele>
        <time>2021-07-03 13:05:32</time>
      </trkpt>
      <trkpt lat="29.19936" lon="-13.48402">
        <ele>384.8</ele>
        <time>2021-07-03 13:05:33</time>
      </trkpt>
      <trkpt lat="29.19939" lon="-13.48402">
        <ele>385</ele>
        <time>2021-07-03 13:05:34</time>
      </trkpt>
      <trkpt lat="29.19942" lon="-13.48401">
        <ele>385.2</ele>
        <time>2021-07-03 13:05:35</time>
      </trkpt>
      <trkpt lat="29.19945" lon="-13.484">
        <ele>385.2</ele>
        <time>2021-07-03 13:05:36</time>
      </trkpt>
      <trkpt lat="29.19949" lon="-13.48399">
        <ele>385.2</ele>
        <time>2021-07-03 13:05:37</time>
      </trkpt>
      <trkpt lat="29.19952" lon="-13.48398">
        <ele>385.4</ele>
        <time>2021-07-03 13:05:38</time>
      </trkpt>
      <trkpt lat="29.19955" lon="-13.48397">
        <ele>385.4</ele>
        <time>2021-07-03 13:05:39</time>
      </trkpt>
      <trkpt lat="29.19958" lon="-13.48396">
        <ele>385.4</ele>
        <time>2021-07-03 13:05:40</time>
      </trkpt>
      <trkpt lat="29.19961" lon="-13.48395">
        <ele>385.2</ele>
        <time>2021-07-03 13:05:41</time>
      </trkpt>
      <trkpt lat="29.19965" lon="-13.48394">
        <ele>385.2</ele>
        <time>2021-07-03 13:05:42</time>
      </trkpt>
      <trkpt lat="29.19968" lon="-13.48393">
        <ele>385.2</ele>
        <time>2021-07-03 13:05:43</time>
      </trkpt>
      <trkpt lat="29.19971" lon="-13.48393">
        <ele>385.2</ele>
        <time>2021-07-03 13:05:44</time>
      </trkpt>
      <trkpt lat="29.19974" lon="-13.48392">
        <ele>385.2</ele>
        <time>2021-07-03 13:05:45</time>
      </trkpt>
      <trkpt lat="29.19977" lon="-13.4839">
        <ele>385.2</ele>
        <time>2021-07-03 13:05:46</time>
      </trkpt>
      <trkpt lat="29.1998" lon="-13.48389">
        <ele>385.4</ele>
        <time>2021-07-03 13:05:47</time>
      </trkpt>
      <trkpt lat="29.19983" lon="-13.48388">
        <ele>385.4</ele>
        <time>2021-07-03 13:05:48</time>
      </trkpt>
      <trkpt lat="29.19986" lon="-13.48387">
        <ele>385.4</ele>
        <time>2021-07-03 13:05:49</time>
      </trkpt>
      <trkpt lat="29.19989" lon="-13.48386">
        <ele>385.4</ele>
        <time>2021-07-03 13:05:50</time>
      </trkpt>
      <trkpt lat="29.19992" lon="-13.48385">
        <ele>386</ele>
        <time>2021-07-03 13:05:51</time>
      </trkpt>
      <trkpt lat="29.19995" lon="-13.48384">
        <ele>386.2</ele>
        <time>2021-07-03 13:05:52</time>
      </trkpt>
      <trkpt lat="29.19998" lon="-13.48383">
        <ele>386.2</ele>
        <time>2021-07-03 13:05:53</time>
      </trkpt>
      <trkpt lat="29.20001" lon="-13.48381">
        <ele>386.2</ele>
        <time>2021-07-03 13:05:54</time>
      </trkpt>
      <trkpt lat="29.20004" lon="-13.4838">
        <ele>386.2</ele>
        <time>2021-07-03 13:05:55</time>
      </trkpt>
      <trkpt lat="29.20007" lon="-13.48379">
        <ele>386.2</ele>
        <time>2021-07-03 13:05:56</time>
      </trkpt>
      <trkpt lat="29.2001" lon="-13.48378">
        <ele>386.2</ele>
        <time>2021-07-03 13:05:57</time>
      </trkpt>
      <trkpt lat="29.20013" lon="-13.48377">
        <ele>386.2</ele>
        <time>2021-07-03 13:05:58</time>
      </trkpt>
      <trkpt lat="29.20016" lon="-13.48376">
        <ele>386.2</ele>
        <time>2021-07-03 13:05:59</time>
      </trkpt>
      <trkpt lat="29.20019" lon="-13.48375">
        <ele>386.2</ele>
        <time>2021-07-03 13:06:00</time>
      </trkpt>
      <trkpt lat="29.20022" lon="-13.48374">
        <ele>386.2</ele>
        <time>2021-07-03 13:06:01</time>
      </trkpt>
      <trkpt lat="29.20025" lon="-13.48373">
        <ele>386.6</ele>
        <time>2021-07-03 13:06:02</time>
      </trkpt>
      <trkpt lat="29.20028" lon="-13.48372">
        <ele>386.6</ele>
        <time>2021-07-03 13:06:03</time>
      </trkpt>
      <trkpt lat="29.20031" lon="-13.48371">
        <ele>386.6</ele>
        <time>2021-07-03 13:06:04</time>
      </trkpt>
      <trkpt lat="29.20034" lon="-13.4837">
        <ele>386.6</ele>
        <time>2021-07-03 13:06:05</time>
      </trkpt>
      <trkpt lat="29.20037" lon="-13.48369">
        <ele>386.6</ele>
        <time>2021-07-03 13:06:06</time>
      </trkpt>
      <trkpt lat="29.2004" lon="-13.48368">
        <ele>386.8</ele>
        <time>2021-07-03 13:06:07</time>
      </trkpt>
      <trkpt lat="29.20043" lon="-13.48367">
        <ele>386.8</ele>
        <time>2021-07-03 13:06:08</time>
      </trkpt>
      <trkpt lat="29.20046" lon="-13.48366">
        <ele>386.8</ele>
        <time>2021-07-03 13:06:09</time>
      </trkpt>
      <trkpt lat="29.20049" lon="-13.48365">
        <ele>387.4</ele>
        <time>2021-07-03 13:06:10</time>
      </trkpt>
      <trkpt lat="29.20052" lon="-13.48364">
        <ele>387.2</ele>
        <time>2021-07-03 13:06:11</time>
      </trkpt>
      <trkpt lat="29.20055" lon="-13.48363">
        <ele>387.2</ele>
        <time>2021-07-03 13:06:12</time>
      </trkpt>
      <trkpt lat="29.20058" lon="-13.48362">
        <ele>387.2</ele>
        <time>2021-07-03 13:06:13</time>
      </trkpt>
      <trkpt lat="29.20061" lon="-13.48361">
        <ele>387.2</ele>
        <time>2021-07-03 13:06:14</time>
      </trkpt>
      <trkpt lat="29.20064" lon="-13.48359">
        <ele>387.4</ele>
        <time>2021-07-03 13:06:15</time>
      </trkpt>
      <trkpt lat="29.20067" lon="-13.48358">
        <ele>387.4</ele>
        <time>2021-07-03 13:06:16</time>
      </trkpt>
      <trkpt lat="29.20071" lon="-13.48358">
        <ele>387.4</ele>
        <time>2021-07-03 13:06:17</time>
      </trkpt>
      <trkpt lat="29.20073" lon="-13.48357">
        <ele>387.4</ele>
        <time>2021-07-03 13:06:18</time>
      </trkpt>
      <trkpt lat="29.20076" lon="-13.48357">
        <ele>387.4</ele>
        <time>2021-07-03 13:06:19</time>
      </trkpt>
      <trkpt lat="29.2008" lon="-13.48356">
        <ele>388</ele>
        <time>2021-07-03 13:06:20</time>
      </trkpt>
      <trkpt lat="29.20083" lon="-13.48355">
        <ele>388</ele>
        <time>2021-07-03 13:06:21</time>
      </trkpt>
      <trkpt lat="29.20086" lon="-13.48355">
        <ele>388</ele>
        <time>2021-07-03 13:06:22</time>
      </trkpt>
      <trkpt lat="29.20089" lon="-13.48354">
        <ele>388</ele>
        <time>2021-07-03 13:06:23</time>
      </trkpt>
      <trkpt lat="29.20092" lon="-13.48354">
        <ele>388</ele>
        <time>2021-07-03 13:06:24</time>
      </trkpt>
      <trkpt lat="29.20095" lon="-13.48353">
        <ele>388</ele>
        <time>2021-07-03 13:06:25</time>
      </trkpt>
      <trkpt lat="29.20098" lon="-13.48352">
        <ele>388</ele>
        <time>2021-07-03 13:06:26</time>
      </trkpt>
      <trkpt lat="29.20102" lon="-13.48352">
        <ele>388.4</ele>
        <time>2021-07-03 13:06:27</time>
      </trkpt>
      <trkpt lat="29.20104" lon="-13.48352">
        <ele>388.4</ele>
        <time>2021-07-03 13:06:28</time>
      </trkpt>
      <trkpt lat="29.20107" lon="-13.48351">
        <ele>388.4</ele>
        <time>2021-07-03 13:06:29</time>
      </trkpt>
      <trkpt lat="29.2011" lon="-13.48351">
        <ele>388.4</ele>
        <time>2021-07-03 13:06:30</time>
      </trkpt>
      <trkpt lat="29.20113" lon="-13.48351">
        <ele>388.4</ele>
        <time>2021-07-03 13:06:31</time>
      </trkpt>
      <trkpt lat="29.20116" lon="-13.48351">
        <ele>388.8</ele>
        <time>2021-07-03 13:06:32</time>
      </trkpt>
      <trkpt lat="29.20119" lon="-13.4835">
        <ele>388.8</ele>
        <time>2021-07-03 13:06:33</time>
      </trkpt>
      <trkpt lat="29.20122" lon="-13.4835">
        <ele>388.8</ele>
        <time>2021-07-03 13:06:34</time>
      </trkpt>
      <trkpt lat="29.20126" lon="-13.4835">
        <ele>388.8</ele>
        <time>2021-07-03 13:06:35</time>
      </trkpt>
      <trkpt lat="29.20128" lon="-13.4835">
        <ele>388.8</ele>
        <time>2021-07-03 13:06:36</time>
      </trkpt>
      <trkpt lat="29.20131" lon="-13.4835">
        <ele>389.2</ele>
        <time>2021-07-03 13:06:37</time>
      </trkpt>
      <trkpt lat="29.20134" lon="-13.4835">
        <ele>389.2</ele>
        <time>2021-07-03 13:06:38</time>
      </trkpt>
      <trkpt lat="29.20136" lon="-13.4835">
        <ele>389.4</ele>
        <time>2021-07-03 13:06:39</time>
      </trkpt>
      <trkpt lat="29.20139" lon="-13.4835">
        <ele>389.4</ele>
        <time>2021-07-03 13:06:40</time>
      </trkpt>
      <trkpt lat="29.20142" lon="-13.4835">
        <ele>389.4</ele>
        <time>2021-07-03 13:06:41</time>
      </trkpt>
      <trkpt lat="29.20145" lon="-13.4835">
        <ele>389.8</ele>
        <time>2021-07-03 13:06:42</time>
      </trkpt>
      <trkpt lat="29.20148" lon="-13.48349">
        <ele>389.8</ele>
        <time>2021-07-03 13:06:43</time>
      </trkpt>
      <trkpt lat="29.2015" lon="-13.48349">
        <ele>389.8</ele>
        <time>2021-07-03 13:06:44</time>
      </trkpt>
      <trkpt lat="29.20153" lon="-13.48349">
        <ele>389.8</ele>
        <time>2021-07-03 13:06:45</time>
      </trkpt>
      <trkpt lat="29.20156" lon="-13.48348">
        <ele>390.2</ele>
        <time>2021-07-03 13:06:46</time>
      </trkpt>
      <trkpt lat="29.20158" lon="-13.48348">
        <ele>390.4</ele>
        <time>2021-07-03 13:06:47</time>
      </trkpt>
      <trkpt lat="29.20161" lon="-13.48348">
        <ele>390.6</ele>
        <time>2021-07-03 13:06:48</time>
      </trkpt>
      <trkpt lat="29.20163" lon="-13.48348">
        <ele>390.6</ele>
        <time>2021-07-03 13:06:49</time>
      </trkpt>
      <trkpt lat="29.20166" lon="-13.48347">
        <ele>390.6</ele>
        <time>2021-07-03 13:06:50</time>
      </trkpt>
      <trkpt lat="29.20168" lon="-13.48347">
        <ele>390.6</ele>
        <time>2021-07-03 13:06:51</time>
      </trkpt>
      <trkpt lat="29.2017" lon="-13.48347">
        <ele>391</ele>
        <time>2021-07-03 13:06:52</time>
      </trkpt>
      <trkpt lat="29.20172" lon="-13.48346">
        <ele>391.2</ele>
        <time>2021-07-03 13:06:53</time>
      </trkpt>
      <trkpt lat="29.20175" lon="-13.48346">
        <ele>391.2</ele>
        <time>2021-07-03 13:06:54</time>
      </trkpt>
      <trkpt lat="29.20177" lon="-13.48346">
        <ele>391</ele>
        <time>2021-07-03 13:06:55</time>
      </trkpt>
      <trkpt lat="29.20179" lon="-13.48346">
        <ele>391.4</ele>
        <time>2021-07-03 13:06:56</time>
      </trkpt>
      <trkpt lat="29.20181" lon="-13.48345">
        <ele>391.4</ele>
        <time>2021-07-03 13:06:57</time>
      </trkpt>
      <trkpt lat="29.20183" lon="-13.48345">
        <ele>391.8</ele>
        <time>2021-07-03 13:06:58</time>
      </trkpt>
      <trkpt lat="29.20185" lon="-13.48344">
        <ele>392.4</ele>
        <time>2021-07-03 13:06:59</time>
      </trkpt>
      <trkpt lat="29.20187" lon="-13.48344">
        <ele>392.4</ele>
        <time>2021-07-03 13:07:00</time>
      </trkpt>
      <trkpt lat="29.20189" lon="-13.48343">
        <ele>392.4</ele>
        <time>2021-07-03 13:07:01</time>
      </trkpt>
      <trkpt lat="29.20191" lon="-13.48343">
        <ele>392.8</ele>
        <time>2021-07-03 13:07:02</time>
      </trkpt>
      <trkpt lat="29.20194" lon="-13.48343">
        <ele>392.6</ele>
        <time>2021-07-03 13:07:03</time>
      </trkpt>
      <trkpt lat="29.20196" lon="-13.48342">
        <ele>392.6</ele>
        <time>2021-07-03 13:07:04</time>
      </trkpt>
      <trkpt lat="29.20198" lon="-13.48342">
        <ele>392.6</ele>
        <time>2021-07-03 13:07:05</time>
      </trkpt>
      <trkpt lat="29.202" lon="-13.48341">
        <ele>392.6</ele>
        <time>2021-07-03 13:07:06</time>
      </trkpt>
      <trkpt lat="29.20203" lon="-13.4834">
        <ele>392.6</ele>
        <time>2021-07-03 13:07:07</time>
      </trkpt>
      <trkpt lat="29.20205" lon="-13.4834">
        <ele>392.6</ele>
        <time>2021-07-03 13:07:08</time>
      </trkpt>
      <trkpt lat="29.20207" lon="-13.48339">
        <ele>393</ele>
        <time>2021-07-03 13:07:09</time>
      </trkpt>
      <trkpt lat="29.20209" lon="-13.48337">
        <ele>393</ele>
        <time>2021-07-03 13:07:10</time>
      </trkpt>
      <trkpt lat="29.20211" lon="-13.48336">
        <ele>393</ele>
        <time>2021-07-03 13:07:11</time>
      </trkpt>
      <trkpt lat="29.20212" lon="-13.48335">
        <ele>393.2</ele>
        <time>2021-07-03 13:07:12</time>
      </trkpt>
      <trkpt lat="29.20214" lon="-13.48335">
        <ele>393.6</ele>
        <time>2021-07-03 13:07:13</time>
      </trkpt>
      <trkpt lat="29.20216" lon="-13.48334">
        <ele>393.6</ele>
        <time>2021-07-03 13:07:14</time>
      </trkpt>
      <trkpt lat="29.20218" lon="-13.48333">
        <ele>393.6</ele>
        <time>2021-07-03 13:07:15</time>
      </trkpt>
      <trkpt lat="29.20219" lon="-13.48332">
        <ele>394</ele>
        <time>2021-07-03 13:07:16</time>
      </trkpt>
      <trkpt lat="29.20221" lon="-13.48332">
        <ele>394</ele>
        <time>2021-07-03 13:07:17</time>
      </trkpt>
      <trkpt lat="29.20223" lon="-13.48331">
        <ele>394</ele>
        <time>2021-07-03 13:07:18</time>
      </trkpt>
      <trkpt lat="29.20224" lon="-13.48331">
        <ele>394</ele>
        <time>2021-07-03 13:07:19</time>
      </trkpt>
      <trkpt lat="29.20226" lon="-13.4833">
        <ele>394.4</ele>
        <time>2021-07-03 13:07:20</time>
      </trkpt>
      <trkpt lat="29.20228" lon="-13.4833">
        <ele>395</ele>
        <time>2021-07-03 13:07:21</time>
      </trkpt>
      <trkpt lat="29.2023" lon="-13.48328">
        <ele>395.8</ele>
        <time>2021-07-03 13:07:22</time>
      </trkpt>
      <trkpt lat="29.20232" lon="-13.48327">
        <ele>396.2</ele>
        <time>2021-07-03 13:07:23</time>
      </trkpt>
      <trkpt lat="29.20234" lon="-13.48326">
        <ele>396.2</ele>
        <time>2021-07-03 13:07:24</time>
      </trkpt>
      <trkpt lat="29.20236" lon="-13.48326">
        <ele>395.8</ele>
        <time>2021-07-03 13:07:25</time>
      </trkpt>
      <trkpt lat="29.20238" lon="-13.48325">
        <ele>395.8</ele>
        <time>2021-07-03 13:07:26</time>
      </trkpt>
      <trkpt lat="29.20241" lon="-13.48325">
        <ele>396.4</ele>
        <time>2021-07-03 13:07:27</time>
      </trkpt>
      <trkpt lat="29.20243" lon="-13.48324">
        <ele>396.2</ele>
        <time>2021-07-03 13:07:28</time>
      </trkpt>
      <trkpt lat="29.20245" lon="-13.48324">
        <ele>396.2</ele>
        <time>2021-07-03 13:07:29</time>
      </trkpt>
      <trkpt lat="29.20247" lon="-13.48324">
        <ele>396.2</ele>
        <time>2021-07-03 13:07:30</time>
      </trkpt>
      <trkpt lat="29.20249" lon="-13.48323">
        <ele>396.2</ele>
        <time>2021-07-03 13:07:31</time>
      </trkpt>
      <trkpt lat="29.20251" lon="-13.48323">
        <ele>396.2</ele>
        <time>2021-07-03 13:07:32</time>
      </trkpt>
      <trkpt lat="29.20254" lon="-13.48323">
        <ele>396.6</ele>
        <time>2021-07-03 13:07:33</time>
      </trkpt>
      <trkpt lat="29.20256" lon="-13.48323">
        <ele>396.6</ele>
        <time>2021-07-03 13:07:34</time>
      </trkpt>
      <trkpt lat="29.20258" lon="-13.48323">
        <ele>396.6</ele>
        <time>2021-07-03 13:07:35</time>
      </trkpt>
      <trkpt lat="29.2026" lon="-13.48322">
        <ele>396.6</ele>
        <time>2021-07-03 13:07:36</time>
      </trkpt>
      <trkpt lat="29.20262" lon="-13.48322">
        <ele>397</ele>
        <time>2021-07-03 13:07:37</time>
      </trkpt>
      <trkpt lat="29.20264" lon="-13.48322">
        <ele>397.2</ele>
        <time>2021-07-03 13:07:38</time>
      </trkpt>
      <trkpt lat="29.20267" lon="-13.48322">
        <ele>397.2</ele>
        <time>2021-07-03 13:07:39</time>
      </trkpt>
      <trkpt lat="29.20269" lon="-13.48322">
        <ele>398</ele>
        <time>2021-07-03 13:07:40</time>
      </trkpt>
      <trkpt lat="29.20271" lon="-13.48322">
        <ele>398</ele>
        <time>2021-07-03 13:07:41</time>
      </trkpt>
      <trkpt lat="29.20273" lon="-13.48323">
        <ele>398.2</ele>
        <time>2021-07-03 13:07:42</time>
      </trkpt>
      <trkpt lat="29.20275" lon="-13.48323">
        <ele>398.2</ele>
        <time>2021-07-03 13:07:43</time>
      </trkpt>
      <trkpt lat="29.20278" lon="-13.48324">
        <ele>398.2</ele>
        <time>2021-07-03 13:07:44</time>
      </trkpt>
      <trkpt lat="29.2028" lon="-13.48325">
        <ele>398.2</ele>
        <time>2021-07-03 13:07:45</time>
      </trkpt>
      <trkpt lat="29.20282" lon="-13.48325">
        <ele>398.2</ele>
        <time>2021-07-03 13:07:46</time>
      </trkpt>
      <trkpt lat="29.20285" lon="-13.48324">
        <ele>398.2</ele>
        <time>2021-07-03 13:07:47</time>
      </trkpt>
      <trkpt lat="29.20287" lon="-13.48324">
        <ele>398.2</ele>
        <time>2021-07-03 13:07:48</time>
      </trkpt>
      <trkpt lat="29.20289" lon="-13.48323">
        <ele>398.6</ele>
        <time>2021-07-03 13:07:49</time>
      </trkpt>
      <trkpt lat="29.20292" lon="-13.48323">
        <ele>398.6</ele>
        <time>2021-07-03 13:07:50</time>
      </trkpt>
      <trkpt lat="29.20294" lon="-13.48322">
        <ele>399</ele>
        <time>2021-07-03 13:07:51</time>
      </trkpt>
      <trkpt lat="29.20296" lon="-13.48322">
        <ele>399.2</ele>
        <time>2021-07-03 13:07:52</time>
      </trkpt>
      <trkpt lat="29.20299" lon="-13.48321">
        <ele>399.2</ele>
        <time>2021-07-03 13:07:53</time>
      </trkpt>
      <trkpt lat="29.20301" lon="-13.48321">
        <ele>399.6</ele>
        <time>2021-07-03 13:07:54</time>
      </trkpt>
      <trkpt lat="29.20304" lon="-13.48321">
        <ele>399.6</ele>
        <time>2021-07-03 13:07:55</time>
      </trkpt>
      <trkpt lat="29.20306" lon="-13.48321">
        <ele>399.6</ele>
        <time>2021-07-03 13:07:56</time>
      </trkpt>
      <trkpt lat="29.20309" lon="-13.48321">
        <ele>399.6</ele>
        <time>2021-07-03 13:07:57</time>
      </trkpt>
      <trkpt lat="29.20311" lon="-13.4832">
        <ele>400</ele>
        <time>2021-07-03 13:07:58</time>
      </trkpt>
      <trkpt lat="29.20313" lon="-13.4832">
        <ele>400</ele>
        <time>2021-07-03 13:07:59</time>
      </trkpt>
      <trkpt lat="29.20316" lon="-13.4832">
        <ele>400</ele>
        <time>2021-07-03 13:08:00</time>
      </trkpt>
      <trkpt lat="29.20319" lon="-13.48319">
        <ele>400</ele>
        <time>2021-07-03 13:08:01</time>
      </trkpt>
      <trkpt lat="29.20321" lon="-13.48319">
        <ele>400</ele>
        <time>2021-07-03 13:08:02</time>
      </trkpt>
      <trkpt lat="29.20324" lon="-13.48319">
        <ele>400.2</ele>
        <time>2021-07-03 13:08:03</time>
      </trkpt>
      <trkpt lat="29.20326" lon="-13.48318">
        <ele>400.2</ele>
        <time>2021-07-03 13:08:04</time>
      </trkpt>
      <trkpt lat="29.20329" lon="-13.48318">
        <ele>400.2</ele>
        <time>2021-07-03 13:08:05</time>
      </trkpt>
      <trkpt lat="29.20331" lon="-13.48318">
        <ele>400.8</ele>
        <time>2021-07-03 13:08:06</time>
      </trkpt>
      <trkpt lat="29.20333" lon="-13.48317">
        <ele>400.8</ele>
        <time>2021-07-03 13:08:07</time>
      </trkpt>
      <trkpt lat="29.20336" lon="-13.48317">
        <ele>400.8</ele>
        <time>2021-07-03 13:08:08</time>
      </trkpt>
      <trkpt lat="29.20338" lon="-13.48317">
        <ele>401</ele>
        <time>2021-07-03 13:08:09</time>
      </trkpt>
      <trkpt lat="29.20341" lon="-13.48317">
        <ele>401.4</ele>
        <time>2021-07-03 13:08:10</time>
      </trkpt>
      <trkpt lat="29.20343" lon="-13.48316">
        <ele>401.4</ele>
        <time>2021-07-03 13:08:11</time>
      </trkpt>
      <trkpt lat="29.20346" lon="-13.48316">
        <ele>401.6</ele>
        <time>2021-07-03 13:08:12</time>
      </trkpt>
      <trkpt lat="29.20348" lon="-13.48316">
        <ele>401.6</ele>
        <time>2021-07-03 13:08:13</time>
      </trkpt>
      <trkpt lat="29.2035" lon="-13.48315">
        <ele>402</ele>
        <time>2021-07-03 13:08:14</time>
      </trkpt>
      <trkpt lat="29.20353" lon="-13.48315">
        <ele>402</ele>
        <time>2021-07-03 13:08:15</time>
      </trkpt>
      <trkpt lat="29.20355" lon="-13.48315">
        <ele>402.4</ele>
        <time>2021-07-03 13:08:16</time>
      </trkpt>
      <trkpt lat="29.20358" lon="-13.48314">
        <ele>402.6</ele>
        <time>2021-07-03 13:08:17</time>
      </trkpt>
      <trkpt lat="29.2036" lon="-13.48314">
        <ele>402.6</ele>
        <time>2021-07-03 13:08:18</time>
      </trkpt>
      <trkpt lat="29.20363" lon="-13.48313">
        <ele>402.6</ele>
        <time>2021-07-03 13:08:19</time>
      </trkpt>
      <trkpt lat="29.20365" lon="-13.48313">
        <ele>402.6</ele>
        <time>2021-07-03 13:08:20</time>
      </trkpt>
      <trkpt lat="29.20367" lon="-13.48313">
        <ele>402.8</ele>
        <time>2021-07-03 13:08:21</time>
      </trkpt>
      <trkpt lat="29.2037" lon="-13.48312">
        <ele>403</ele>
        <time>2021-07-03 13:08:22</time>
      </trkpt>
      <trkpt lat="29.20372" lon="-13.48311">
        <ele>403</ele>
        <time>2021-07-03 13:08:23</time>
      </trkpt>
      <trkpt lat="29.20374" lon="-13.48311">
        <ele>403.4</ele>
        <time>2021-07-03 13:08:24</time>
      </trkpt>
      <trkpt lat="29.20376" lon="-13.4831">
        <ele>403.4</ele>
        <time>2021-07-03 13:08:25</time>
      </trkpt>
      <trkpt lat="29.20379" lon="-13.48309">
        <ele>403.4</ele>
        <time>2021-07-03 13:08:26</time>
      </trkpt>
      <trkpt lat="29.20381" lon="-13.48309">
        <ele>403.8</ele>
        <time>2021-07-03 13:08:27</time>
      </trkpt>
      <trkpt lat="29.20384" lon="-13.48308">
        <ele>403.8</ele>
        <time>2021-07-03 13:08:28</time>
      </trkpt>
      <trkpt lat="29.20386" lon="-13.48307">
        <ele>404.2</ele>
        <time>2021-07-03 13:08:29</time>
      </trkpt>
      <trkpt lat="29.20388" lon="-13.48307">
        <ele>404.2</ele>
        <time>2021-07-03 13:08:30</time>
      </trkpt>
      <trkpt lat="29.20391" lon="-13.48306">
        <ele>404.6</ele>
        <time>2021-07-03 13:08:31</time>
      </trkpt>
      <trkpt lat="29.20393" lon="-13.48305">
        <ele>404.6</ele>
        <time>2021-07-03 13:08:32</time>
      </trkpt>
      <trkpt lat="29.20395" lon="-13.48305">
        <ele>404.6</ele>
        <time>2021-07-03 13:08:33</time>
      </trkpt>
      <trkpt lat="29.20398" lon="-13.48304">
        <ele>405.2</ele>
        <time>2021-07-03 13:08:34</time>
      </trkpt>
      <trkpt lat="29.204" lon="-13.48303">
        <ele>405.2</ele>
        <time>2021-07-03 13:08:35</time>
      </trkpt>
      <trkpt lat="29.20403" lon="-13.48302">
        <ele>405.4</ele>
        <time>2021-07-03 13:08:36</time>
      </trkpt>
      <trkpt lat="29.20405" lon="-13.48301">
        <ele>405.4</ele>
        <time>2021-07-03 13:08:37</time>
      </trkpt>
      <trkpt lat="29.20407" lon="-13.48301">
        <ele>405.8</ele>
        <time>2021-07-03 13:08:38</time>
      </trkpt>
      <trkpt lat="29.2041" lon="-13.483">
        <ele>406</ele>
        <time>2021-07-03 13:08:39</time>
      </trkpt>
      <trkpt lat="29.20412" lon="-13.48299">
        <ele>406</ele>
        <time>2021-07-03 13:08:40</time>
      </trkpt>
      <trkpt lat="29.20415" lon="-13.48299">
        <ele>406.4</ele>
        <time>2021-07-03 13:08:41</time>
      </trkpt>
      <trkpt lat="29.20417" lon="-13.48298">
        <ele>406.4</ele>
        <time>2021-07-03 13:08:42</time>
      </trkpt>
      <trkpt lat="29.2042" lon="-13.48297">
        <ele>406.4</ele>
        <time>2021-07-03 13:08:43</time>
      </trkpt>
      <trkpt lat="29.20422" lon="-13.48296">
        <ele>406</ele>
        <time>2021-07-03 13:08:44</time>
      </trkpt>
      <trkpt lat="29.20425" lon="-13.48296">
        <ele>406.4</ele>
        <time>2021-07-03 13:08:45</time>
      </trkpt>
      <trkpt lat="29.20427" lon="-13.48295">
        <ele>406.4</ele>
        <time>2021-07-03 13:08:46</time>
      </trkpt>
      <trkpt lat="29.2043" lon="-13.48294">
        <ele>407</ele>
        <time>2021-07-03 13:08:47</time>
      </trkpt>
      <trkpt lat="29.20432" lon="-13.48293">
        <ele>407</ele>
        <time>2021-07-03 13:08:48</time>
      </trkpt>
      <trkpt lat="29.20435" lon="-13.48293">
        <ele>406.6</ele>
        <time>2021-07-03 13:08:49</time>
      </trkpt>
      <trkpt lat="29.20437" lon="-13.48292">
        <ele>406.6</ele>
        <time>2021-07-03 13:08:50</time>
      </trkpt>
      <trkpt lat="29.2044" lon="-13.48291">
        <ele>407</ele>
        <time>2021-07-03 13:08:51</time>
      </trkpt>
      <trkpt lat="29.20443" lon="-13.48291">
        <ele>407</ele>
        <time>2021-07-03 13:08:52</time>
      </trkpt>
      <trkpt lat="29.20445" lon="-13.4829">
        <ele>407</ele>
        <time>2021-07-03 13:08:53</time>
      </trkpt>
      <trkpt lat="29.20448" lon="-13.48289">
        <ele>407</ele>
        <time>2021-07-03 13:08:54</time>
      </trkpt>
      <trkpt lat="29.20451" lon="-13.48288">
        <ele>407</ele>
        <time>2021-07-03 13:08:55</time>
      </trkpt>
      <trkpt lat="29.20453" lon="-13.48288">
        <ele>407</ele>
        <time>2021-07-03 13:08:56</time>
      </trkpt>
      <trkpt lat="29.20456" lon="-13.48287">
        <ele>407.8</ele>
        <time>2021-07-03 13:08:57</time>
      </trkpt>
      <trkpt lat="29.20459" lon="-13.48287">
        <ele>407.4</ele>
        <time>2021-07-03 13:08:58</time>
      </trkpt>
      <trkpt lat="29.20461" lon="-13.48286">
        <ele>407.4</ele>
        <time>2021-07-03 13:08:59</time>
      </trkpt>
      <trkpt lat="29.20464" lon="-13.48286">
        <ele>407.2</ele>
        <time>2021-07-03 13:09:00</time>
      </trkpt>
      <trkpt lat="29.20467" lon="-13.48286">
        <ele>407.2</ele>
        <time>2021-07-03 13:09:01</time>
      </trkpt>
      <trkpt lat="29.2047" lon="-13.48286">
        <ele>407.2</ele>
        <time>2021-07-03 13:09:02</time>
      </trkpt>
      <trkpt lat="29.20472" lon="-13.48286">
        <ele>407.4</ele>
        <time>2021-07-03 13:09:03</time>
      </trkpt>
      <trkpt lat="29.20475" lon="-13.48285">
        <ele>407.4</ele>
        <time>2021-07-03 13:09:04</time>
      </trkpt>
      <trkpt lat="29.20478" lon="-13.48285">
        <ele>407.8</ele>
        <time>2021-07-03 13:09:05</time>
      </trkpt>
      <trkpt lat="29.20481" lon="-13.48284">
        <ele>408</ele>
        <time>2021-07-03 13:09:06</time>
      </trkpt>
      <trkpt lat="29.20483" lon="-13.48284">
        <ele>408.6</ele>
        <time>2021-07-03 13:09:07</time>
      </trkpt>
      <trkpt lat="29.20486" lon="-13.48284">
        <ele>408.6</ele>
        <time>2021-07-03 13:09:08</time>
      </trkpt>
      <trkpt lat="29.20489" lon="-13.48284">
        <ele>408.6</ele>
        <time>2021-07-03 13:09:09</time>
      </trkpt>
      <trkpt lat="29.20492" lon="-13.48284">
        <ele>408.8</ele>
        <time>2021-07-03 13:09:10</time>
      </trkpt>
      <trkpt lat="29.20494" lon="-13.48284">
        <ele>408.8</ele>
        <time>2021-07-03 13:09:11</time>
      </trkpt>
      <trkpt lat="29.20497" lon="-13.48283">
        <ele>409.4</ele>
        <time>2021-07-03 13:09:12</time>
      </trkpt>
      <trkpt lat="29.20499" lon="-13.48283">
        <ele>409.8</ele>
        <time>2021-07-03 13:09:13</time>
      </trkpt>
      <trkpt lat="29.20502" lon="-13.48283">
        <ele>409.8</ele>
        <time>2021-07-03 13:09:14</time>
      </trkpt>
      <trkpt lat="29.20504" lon="-13.48283">
        <ele>409.8</ele>
        <time>2021-07-03 13:09:15</time>
      </trkpt>
      <trkpt lat="29.20507" lon="-13.48283">
        <ele>410.2</ele>
        <time>2021-07-03 13:09:16</time>
      </trkpt>
      <trkpt lat="29.20509" lon="-13.48283">
        <ele>410.2</ele>
        <time>2021-07-03 13:09:17</time>
      </trkpt>
      <trkpt lat="29.20512" lon="-13.48282">
        <ele>410.2</ele>
        <time>2021-07-03 13:09:18</time>
      </trkpt>
      <trkpt lat="29.20514" lon="-13.48282">
        <ele>410.2</ele>
        <time>2021-07-03 13:09:19</time>
      </trkpt>
      <trkpt lat="29.20517" lon="-13.48281">
        <ele>410.4</ele>
        <time>2021-07-03 13:09:20</time>
      </trkpt>
      <trkpt lat="29.20519" lon="-13.48281">
        <ele>410.8</ele>
        <time>2021-07-03 13:09:21</time>
      </trkpt>
      <trkpt lat="29.20522" lon="-13.4828">
        <ele>410.8</ele>
        <time>2021-07-03 13:09:22</time>
      </trkpt>
      <trkpt lat="29.20524" lon="-13.4828">
        <ele>410.8</ele>
        <time>2021-07-03 13:09:23</time>
      </trkpt>
      <trkpt lat="29.20527" lon="-13.48279">
        <ele>410.8</ele>
        <time>2021-07-03 13:09:24</time>
      </trkpt>
      <trkpt lat="29.20529" lon="-13.48278">
        <ele>411.4</ele>
        <time>2021-07-03 13:09:25</time>
      </trkpt>
      <trkpt lat="29.20532" lon="-13.48276">
        <ele>411.6</ele>
        <time>2021-07-03 13:09:26</time>
      </trkpt>
      <trkpt lat="29.20534" lon="-13.48275">
        <ele>411.6</ele>
        <time>2021-07-03 13:09:27</time>
      </trkpt>
      <trkpt lat="29.20536" lon="-13.48273">
        <ele>412</ele>
        <time>2021-07-03 13:09:28</time>
      </trkpt>
      <trkpt lat="29.20539" lon="-13.48271">
        <ele>412</ele>
        <time>2021-07-03 13:09:29</time>
      </trkpt>
      <trkpt lat="29.20541" lon="-13.4827">
        <ele>412.4</ele>
        <time>2021-07-03 13:09:30</time>
      </trkpt>
      <trkpt lat="29.20544" lon="-13.48268">
        <ele>412.4</ele>
        <time>2021-07-03 13:09:31</time>
      </trkpt>
      <trkpt lat="29.20546" lon="-13.48267">
        <ele>412.6</ele>
        <time>2021-07-03 13:09:32</time>
      </trkpt>
      <trkpt lat="29.20549" lon="-13.48265">
        <ele>412.6</ele>
        <time>2021-07-03 13:09:33</time>
      </trkpt>
      <trkpt lat="29.20551" lon="-13.48263">
        <ele>412.6</ele>
        <time>2021-07-03 13:09:34</time>
      </trkpt>
      <trkpt lat="29.20554" lon="-13.48261">
        <ele>412.6</ele>
        <time>2021-07-03 13:09:35</time>
      </trkpt>
      <trkpt lat="29.20556" lon="-13.48259">
        <ele>413</ele>
        <time>2021-07-03 13:09:36</time>
      </trkpt>
      <trkpt lat="29.20559" lon="-13.48258">
        <ele>413</ele>
        <time>2021-07-03 13:09:37</time>
      </trkpt>
      <trkpt lat="29.20561" lon="-13.48256">
        <ele>413</ele>
        <time>2021-07-03 13:09:38</time>
      </trkpt>
      <trkpt lat="29.20564" lon="-13.48254">
        <ele>413</ele>
        <time>2021-07-03 13:09:39</time>
      </trkpt>
      <trkpt lat="29.20566" lon="-13.48253">
        <ele>413</ele>
        <time>2021-07-03 13:09:40</time>
      </trkpt>
      <trkpt lat="29.20569" lon="-13.48251">
        <ele>413</ele>
        <time>2021-07-03 13:09:41</time>
      </trkpt>
      <trkpt lat="29.20572" lon="-13.48249">
        <ele>413.4</ele>
        <time>2021-07-03 13:09:42</time>
      </trkpt>
      <trkpt lat="29.20574" lon="-13.48248">
        <ele>413.4</ele>
        <time>2021-07-03 13:09:43</time>
      </trkpt>
      <trkpt lat="29.20577" lon="-13.48246">
        <ele>413.4</ele>
        <time>2021-07-03 13:09:44</time>
      </trkpt>
      <trkpt lat="29.2058" lon="-13.48244">
        <ele>413.4</ele>
        <time>2021-07-03 13:09:45</time>
      </trkpt>
      <trkpt lat="29.20582" lon="-13.48243">
        <ele>413.6</ele>
        <time>2021-07-03 13:09:46</time>
      </trkpt>
      <trkpt lat="29.20585" lon="-13.48241">
        <ele>413.6</ele>
        <time>2021-07-03 13:09:47</time>
      </trkpt>
      <trkpt lat="29.20588" lon="-13.48239">
        <ele>413.6</ele>
        <time>2021-07-03 13:09:48</time>
      </trkpt>
      <trkpt lat="29.2059" lon="-13.48238">
        <ele>413.4</ele>
        <time>2021-07-03 13:09:49</time>
      </trkpt>
      <trkpt lat="29.20593" lon="-13.48237">
        <ele>413.4</ele>
        <time>2021-07-03 13:09:50</time>
      </trkpt>
      <trkpt lat="29.20596" lon="-13.48236">
        <ele>413.4</ele>
        <time>2021-07-03 13:09:51</time>
      </trkpt>
      <trkpt lat="29.20598" lon="-13.48234">
        <ele>413.4</ele>
        <time>2021-07-03 13:09:52</time>
      </trkpt>
      <trkpt lat="29.20601" lon="-13.48232">
        <ele>413.4</ele>
        <time>2021-07-03 13:09:53</time>
      </trkpt>
      <trkpt lat="29.20603" lon="-13.4823">
        <ele>413.4</ele>
        <time>2021-07-03 13:09:54</time>
      </trkpt>
      <trkpt lat="29.20606" lon="-13.48229">
        <ele>413.4</ele>
        <time>2021-07-03 13:09:55</time>
      </trkpt>
      <trkpt lat="29.20608" lon="-13.48227">
        <ele>413.4</ele>
        <time>2021-07-03 13:09:56</time>
      </trkpt>
      <trkpt lat="29.20611" lon="-13.48225">
        <ele>413.4</ele>
        <time>2021-07-03 13:09:57</time>
      </trkpt>
      <trkpt lat="29.20614" lon="-13.48223">
        <ele>413.4</ele>
        <time>2021-07-03 13:09:58</time>
      </trkpt>
      <trkpt lat="29.20617" lon="-13.48221">
        <ele>413.4</ele>
        <time>2021-07-03 13:09:59</time>
      </trkpt>
      <trkpt lat="29.2062" lon="-13.4822">
        <ele>413.4</ele>
        <time>2021-07-03 13:10:00</time>
      </trkpt>
      <trkpt lat="29.20623" lon="-13.48218">
        <ele>413.4</ele>
        <time>2021-07-03 13:10:01</time>
      </trkpt>
      <trkpt lat="29.20626" lon="-13.48217">
        <ele>413</ele>
        <time>2021-07-03 13:10:02</time>
      </trkpt>
      <trkpt lat="29.2063" lon="-13.48216">
        <ele>413</ele>
        <time>2021-07-03 13:10:03</time>
      </trkpt>
      <trkpt lat="29.20633" lon="-13.48214">
        <ele>413</ele>
        <time>2021-07-03 13:10:04</time>
      </trkpt>
      <trkpt lat="29.20637" lon="-13.48213">
        <ele>412.6</ele>
        <time>2021-07-03 13:10:05</time>
      </trkpt>
      <trkpt lat="29.2064" lon="-13.48211">
        <ele>412.4</ele>
        <time>2021-07-03 13:10:06</time>
      </trkpt>
      <trkpt lat="29.20644" lon="-13.4821">
        <ele>412</ele>
        <time>2021-07-03 13:10:07</time>
      </trkpt>
      <trkpt lat="29.20648" lon="-13.48208">
        <ele>412</ele>
        <time>2021-07-03 13:10:08</time>
      </trkpt>
      <trkpt lat="29.20651" lon="-13.48207">
        <ele>412</ele>
        <time>2021-07-03 13:10:09</time>
      </trkpt>
      <trkpt lat="29.20655" lon="-13.48205">
        <ele>411.6</ele>
        <time>2021-07-03 13:10:10</time>
      </trkpt>
      <trkpt lat="29.20659" lon="-13.48203">
        <ele>411.4</ele>
        <time>2021-07-03 13:10:11</time>
      </trkpt>
      <trkpt lat="29.20662" lon="-13.48201">
        <ele>411.4</ele>
        <time>2021-07-03 13:10:12</time>
      </trkpt>
      <trkpt lat="29.20665" lon="-13.48199">
        <ele>411</ele>
        <time>2021-07-03 13:10:13</time>
      </trkpt>
      <trkpt lat="29.20669" lon="-13.48198">
        <ele>411</ele>
        <time>2021-07-03 13:10:14</time>
      </trkpt>
      <trkpt lat="29.20672" lon="-13.48197">
        <ele>410.8</ele>
        <time>2021-07-03 13:10:15</time>
      </trkpt>
      <trkpt lat="29.20675" lon="-13.48196">
        <ele>410.8</ele>
        <time>2021-07-03 13:10:16</time>
      </trkpt>
      <trkpt lat="29.20678" lon="-13.48194">
        <ele>410.6</ele>
        <time>2021-07-03 13:10:17</time>
      </trkpt>
      <trkpt lat="29.20681" lon="-13.48192">
        <ele>410.6</ele>
        <time>2021-07-03 13:10:18</time>
      </trkpt>
      <trkpt lat="29.20684" lon="-13.4819">
        <ele>410.6</ele>
        <time>2021-07-03 13:10:19</time>
      </trkpt>
      <trkpt lat="29.20686" lon="-13.48188">
        <ele>411</ele>
        <time>2021-07-03 13:10:20</time>
      </trkpt>
      <trkpt lat="29.20689" lon="-13.48187">
        <ele>411</ele>
        <time>2021-07-03 13:10:21</time>
      </trkpt>
      <trkpt lat="29.20691" lon="-13.48186">
        <ele>411.4</ele>
        <time>2021-07-03 13:10:22</time>
      </trkpt>
      <trkpt lat="29.20693" lon="-13.48185">
        <ele>411.4</ele>
        <time>2021-07-03 13:10:23</time>
      </trkpt>
      <trkpt lat="29.20694" lon="-13.48185">
        <ele>411.4</ele>
        <time>2021-07-03 13:10:24</time>
      </trkpt>
      <trkpt lat="29.20696" lon="-13.48184">
        <ele>411.6</ele>
        <time>2021-07-03 13:10:25</time>
      </trkpt>
      <trkpt lat="29.20697" lon="-13.48183">
        <ele>411.6</ele>
        <time>2021-07-03 13:10:26</time>
      </trkpt>
      <trkpt lat="29.20697" lon="-13.48182">
        <ele>411.4</ele>
        <time>2021-07-03 13:10:27</time>
      </trkpt>
      <trkpt lat="29.20697" lon="-13.48182">
        <ele>411</ele>
        <time>2021-07-03 13:10:28</time>
      </trkpt>
      <trkpt lat="29.20697" lon="-13.48182">
        <ele>410.6</ele>
        <time>2021-07-03 13:10:29</time>
      </trkpt>
      <trkpt lat="29.20697" lon="-13.48182">
        <ele>410.6</ele>
        <time>2021-07-03 13:10:30</time>
      </trkpt>
      <trkpt lat="29.20698" lon="-13.4818">
        <ele>409.8</ele>
        <time>2021-07-03 13:10:31</time>
      </trkpt>
      <trkpt lat="29.207" lon="-13.48179">
        <ele>409.8</ele>
        <time>2021-07-03 13:10:32</time>
      </trkpt>
      <trkpt lat="29.20701" lon="-13.48178">
        <ele>409.8</ele>
        <time>2021-07-03 13:10:33</time>
      </trkpt>
      <trkpt lat="29.20702" lon="-13.48177">
        <ele>410</ele>
        <time>2021-07-03 13:10:34</time>
      </trkpt>
      <trkpt lat="29.20703" lon="-13.48176">
        <ele>410</ele>
        <time>2021-07-03 13:11:20</time>
      </trkpt>
      <trkpt lat="29.20704" lon="-13.48176">
        <ele>410</ele>
        <time>2021-07-03 13:11:21</time>
      </trkpt>
      <trkpt lat="29.20704" lon="-13.48175">
        <ele>410</ele>
        <time>2021-07-03 13:11:22</time>
      </trkpt>
      <trkpt lat="29.20703" lon="-13.48176">
        <ele>410</ele>
        <time>2021-07-03 13:11:23</time>
      </trkpt>
      <trkpt lat="29.20703" lon="-13.48176">
        <ele>409.6</ele>
        <time>2021-07-03 13:11:24</time>
      </trkpt>
      <trkpt lat="29.20703" lon="-13.48176">
        <ele>409.6</ele>
        <time>2021-07-03 13:11:25</time>
      </trkpt>
      <trkpt lat="29.20704" lon="-13.48174">
        <ele>409.4</ele>
        <time>2021-07-03 13:11:26</time>
      </trkpt>
      <trkpt lat="29.20707" lon="-13.48172">
        <ele>409.4</ele>
        <time>2021-07-03 13:11:27</time>
      </trkpt>
      <trkpt lat="29.2071" lon="-13.48172">
        <ele>409.4</ele>
        <time>2021-07-03 13:11:28</time>
      </trkpt>
      <trkpt lat="29.20713" lon="-13.48172">
        <ele>409.6</ele>
        <time>2021-07-03 13:11:29</time>
      </trkpt>
      <trkpt lat="29.20716" lon="-13.48173">
        <ele>409.6</ele>
        <time>2021-07-03 13:11:34</time>
      </trkpt>
      <trkpt lat="29.20718" lon="-13.48174">
        <ele>410</ele>
        <time>2021-07-03 13:11:35</time>
      </trkpt>
      <trkpt lat="29.2072" lon="-13.48173">
        <ele>410</ele>
        <time>2021-07-03 13:11:36</time>
      </trkpt>
      <trkpt lat="29.20722" lon="-13.48173">
        <ele>410.4</ele>
        <time>2021-07-03 13:11:37</time>
      </trkpt>
      <trkpt lat="29.20725" lon="-13.48171">
        <ele>410.4</ele>
        <time>2021-07-03 13:11:38</time>
      </trkpt>
      <trkpt lat="29.20728" lon="-13.48169">
        <ele>410.4</ele>
        <time>2021-07-03 13:11:39</time>
      </trkpt>
      <trkpt lat="29.20731" lon="-13.48167">
        <ele>410.4</ele>
        <time>2021-07-03 13:11:40</time>
      </trkpt>
      <trkpt lat="29.20735" lon="-13.48166">
        <ele>410.6</ele>
        <time>2021-07-03 13:11:41</time>
      </trkpt>
      <trkpt lat="29.20738" lon="-13.48164">
        <ele>410.6</ele>
        <time>2021-07-03 13:11:42</time>
      </trkpt>
      <trkpt lat="29.20741" lon="-13.48163">
        <ele>410.6</ele>
        <time>2021-07-03 13:11:43</time>
      </trkpt>
      <trkpt lat="29.20744" lon="-13.48162">
        <ele>410.6</ele>
        <time>2021-07-03 13:11:44</time>
      </trkpt>
      <trkpt lat="29.20747" lon="-13.4816">
        <ele>410.8</ele>
        <time>2021-07-03 13:11:45</time>
      </trkpt>
      <trkpt lat="29.2075" lon="-13.48159">
        <ele>411.4</ele>
        <time>2021-07-03 13:11:46</time>
      </trkpt>
      <trkpt lat="29.20753" lon="-13.48157">
        <ele>411</ele>
        <time>2021-07-03 13:11:47</time>
      </trkpt>
      <trkpt lat="29.20756" lon="-13.48156">
        <ele>411</ele>
        <time>2021-07-03 13:11:48</time>
      </trkpt>
      <trkpt lat="29.20759" lon="-13.48154">
        <ele>411</ele>
        <time>2021-07-03 13:11:49</time>
      </trkpt>
      <trkpt lat="29.20761" lon="-13.48152">
        <ele>411.6</ele>
        <time>2021-07-03 13:11:50</time>
      </trkpt>
      <trkpt lat="29.20764" lon="-13.48151">
        <ele>411.6</ele>
        <time>2021-07-03 13:11:51</time>
      </trkpt>
      <trkpt lat="29.20767" lon="-13.48149">
        <ele>411.8</ele>
        <time>2021-07-03 13:11:52</time>
      </trkpt>
      <trkpt lat="29.2077" lon="-13.48148">
        <ele>411.8</ele>
        <time>2021-07-03 13:11:53</time>
      </trkpt>
      <trkpt lat="29.20773" lon="-13.48146">
        <ele>411.8</ele>
        <time>2021-07-03 13:11:54</time>
      </trkpt>
      <trkpt lat="29.20776" lon="-13.48145">
        <ele>411.8</ele>
        <time>2021-07-03 13:11:55</time>
      </trkpt>
      <trkpt lat="29.20779" lon="-13.48144">
        <ele>412.2</ele>
        <time>2021-07-03 13:11:56</time>
      </trkpt>
      <trkpt lat="29.20782" lon="-13.48143">
        <ele>412.2</ele>
        <time>2021-07-03 13:11:57</time>
      </trkpt>
      <trkpt lat="29.20785" lon="-13.48142">
        <ele>412.2</ele>
        <time>2021-07-03 13:11:58</time>
      </trkpt>
      <trkpt lat="29.20788" lon="-13.48141">
        <ele>412.2</ele>
        <time>2021-07-03 13:11:59</time>
      </trkpt>
      <trkpt lat="29.20791" lon="-13.48139">
        <ele>411.8</ele>
        <time>2021-07-03 13:12:00</time>
      </trkpt>
      <trkpt lat="29.20795" lon="-13.48138">
        <ele>411.8</ele>
        <time>2021-07-03 13:12:01</time>
      </trkpt>
      <trkpt lat="29.20798" lon="-13.48136">
        <ele>411.8</ele>
        <time>2021-07-03 13:12:02</time>
      </trkpt>
      <trkpt lat="29.20801" lon="-13.48134">
        <ele>411.8</ele>
        <time>2021-07-03 13:12:03</time>
      </trkpt>
      <trkpt lat="29.20804" lon="-13.48132">
        <ele>411.8</ele>
        <time>2021-07-03 13:12:04</time>
      </trkpt>
      <trkpt lat="29.20807" lon="-13.48129">
        <ele>411.6</ele>
        <time>2021-07-03 13:12:05</time>
      </trkpt>
      <trkpt lat="29.20809" lon="-13.48125">
        <ele>411.4</ele>
        <time>2021-07-03 13:12:06</time>
      </trkpt>
      <trkpt lat="29.2081" lon="-13.48121">
        <ele>411.4</ele>
        <time>2021-07-03 13:12:07</time>
      </trkpt>
      <trkpt lat="29.20811" lon="-13.48117">
        <ele>411.2</ele>
        <time>2021-07-03 13:12:08</time>
      </trkpt>
      <trkpt lat="29.20811" lon="-13.48112">
        <ele>410.8</ele>
        <time>2021-07-03 13:12:09</time>
      </trkpt>
      <trkpt lat="29.2081" lon="-13.48107">
        <ele>410.8</ele>
        <time>2021-07-03 13:12:10</time>
      </trkpt>
      <trkpt lat="29.2081" lon="-13.48103">
        <ele>411.2</ele>
        <time>2021-07-03 13:12:11</time>
      </trkpt>
      <trkpt lat="29.20809" lon="-13.48098">
        <ele>411.2</ele>
        <time>2021-07-03 13:12:12</time>
      </trkpt>
      <trkpt lat="29.20809" lon="-13.48093">
        <ele>411.2</ele>
        <time>2021-07-03 13:12:13</time>
      </trkpt>
      <trkpt lat="29.20808" lon="-13.48089">
        <ele>411.6</ele>
        <time>2021-07-03 13:12:14</time>
      </trkpt>
      <trkpt lat="29.20808" lon="-13.48085">
        <ele>411.6</ele>
        <time>2021-07-03 13:12:15</time>
      </trkpt>
      <trkpt lat="29.20808" lon="-13.48081">
        <ele>412</ele>
        <time>2021-07-03 13:12:16</time>
      </trkpt>
      <trkpt lat="29.20809" lon="-13.48077">
        <ele>412.6</ele>
        <time>2021-07-03 13:12:17</time>
      </trkpt>
      <trkpt lat="29.2081" lon="-13.48075">
        <ele>412.8</ele>
        <time>2021-07-03 13:12:18</time>
      </trkpt>
      <trkpt lat="29.2081" lon="-13.48072">
        <ele>413</ele>
        <time>2021-07-03 13:12:19</time>
      </trkpt>
      <trkpt lat="29.20811" lon="-13.4807">
        <ele>413.4</ele>
        <time>2021-07-03 13:12:20</time>
      </trkpt>
      <trkpt lat="29.20813" lon="-13.48066">
        <ele>413.8</ele>
        <time>2021-07-03 13:12:21</time>
      </trkpt>
      <trkpt lat="29.20814" lon="-13.48064">
        <ele>414.2</ele>
        <time>2021-07-03 13:12:22</time>
      </trkpt>
      <trkpt lat="29.20816" lon="-13.48062">
        <ele>414.4</ele>
        <time>2021-07-03 13:12:23</time>
      </trkpt>
      <trkpt lat="29.20817" lon="-13.4806">
        <ele>414.8</ele>
        <time>2021-07-03 13:12:24</time>
      </trkpt>
      <trkpt lat="29.20818" lon="-13.48058">
        <ele>415</ele>
        <time>2021-07-03 13:12:25</time>
      </trkpt>
      <trkpt lat="29.20819" lon="-13.48056">
        <ele>415</ele>
        <time>2021-07-03 13:12:26</time>
      </trkpt>
      <trkpt lat="29.2082" lon="-13.48054">
        <ele>415.6</ele>
        <time>2021-07-03 13:12:27</time>
      </trkpt>
      <trkpt lat="29.20822" lon="-13.48052">
        <ele>415.8</ele>
        <time>2021-07-03 13:12:28</time>
      </trkpt>
      <trkpt lat="29.20823" lon="-13.4805">
        <ele>416.2</ele>
        <time>2021-07-03 13:12:29</time>
      </trkpt>
      <trkpt lat="29.20824" lon="-13.48048">
        <ele>416.4</ele>
        <time>2021-07-03 13:12:30</time>
      </trkpt>
      <trkpt lat="29.20826" lon="-13.48046">
        <ele>416.8</ele>
        <time>2021-07-03 13:12:31</time>
      </trkpt>
      <trkpt lat="29.20827" lon="-13.48044">
        <ele>417.2</ele>
        <time>2021-07-03 13:12:32</time>
      </trkpt>
      <trkpt lat="29.20829" lon="-13.48042">
        <ele>417.4</ele>
        <time>2021-07-03 13:12:33</time>
      </trkpt>
      <trkpt lat="29.20831" lon="-13.4804">
        <ele>417.4</ele>
        <time>2021-07-03 13:12:34</time>
      </trkpt>
      <trkpt lat="29.20833" lon="-13.48038">
        <ele>418</ele>
        <time>2021-07-03 13:12:35</time>
      </trkpt>
      <trkpt lat="29.20835" lon="-13.48036">
        <ele>418.2</ele>
        <time>2021-07-03 13:12:36</time>
      </trkpt>
      <trkpt lat="29.20836" lon="-13.48034">
        <ele>418.4</ele>
        <time>2021-07-03 13:12:37</time>
      </trkpt>
      <trkpt lat="29.20838" lon="-13.48032">
        <ele>418.4</ele>
        <time>2021-07-03 13:12:38</time>
      </trkpt>
      <trkpt lat="29.2084" lon="-13.4803">
        <ele>418.4</ele>
        <time>2021-07-03 13:12:39</time>
      </trkpt>
      <trkpt lat="29.20842" lon="-13.48028">
        <ele>418.4</ele>
        <time>2021-07-03 13:12:40</time>
      </trkpt>
      <trkpt lat="29.20844" lon="-13.48026">
        <ele>418.8</ele>
        <time>2021-07-03 13:12:41</time>
      </trkpt>
      <trkpt lat="29.20846" lon="-13.48024">
        <ele>418.8</ele>
        <time>2021-07-03 13:12:42</time>
      </trkpt>
      <trkpt lat="29.20849" lon="-13.48022">
        <ele>418.8</ele>
        <time>2021-07-03 13:12:43</time>
      </trkpt>
      <trkpt lat="29.20851" lon="-13.48021">
        <ele>419.2</ele>
        <time>2021-07-03 13:12:44</time>
      </trkpt>
      <trkpt lat="29.20853" lon="-13.48019">
        <ele>419.2</ele>
        <time>2021-07-03 13:12:45</time>
      </trkpt>
      <trkpt lat="29.20855" lon="-13.48017">
        <ele>419.2</ele>
        <time>2021-07-03 13:12:46</time>
      </trkpt>
      <trkpt lat="29.20858" lon="-13.48016">
        <ele>419.4</ele>
        <time>2021-07-03 13:12:47</time>
      </trkpt>
      <trkpt lat="29.2086" lon="-13.48014">
        <ele>419.4</ele>
        <time>2021-07-03 13:12:48</time>
      </trkpt>
      <trkpt lat="29.20862" lon="-13.48013">
        <ele>419.6</ele>
        <time>2021-07-03 13:12:49</time>
      </trkpt>
      <trkpt lat="29.20865" lon="-13.48011">
        <ele>422.8</ele>
        <time>2021-07-03 13:12:50</time>
      </trkpt>
      <trkpt lat="29.20867" lon="-13.4801">
        <ele>422</ele>
        <time>2021-07-03 13:12:51</time>
      </trkpt>
      <trkpt lat="29.20869" lon="-13.48008">
        <ele>421.4</ele>
        <time>2021-07-03 13:12:52</time>
      </trkpt>
      <trkpt lat="29.20871" lon="-13.48006">
        <ele>421</ele>
        <time>2021-07-03 13:12:53</time>
      </trkpt>
      <trkpt lat="29.20873" lon="-13.48004">
        <ele>421</ele>
        <time>2021-07-03 13:12:54</time>
      </trkpt>
      <trkpt lat="29.20875" lon="-13.48003">
        <ele>421</ele>
        <time>2021-07-03 13:12:55</time>
      </trkpt>
      <trkpt lat="29.20878" lon="-13.48001">
        <ele>420.8</ele>
        <time>2021-07-03 13:12:56</time>
      </trkpt>
      <trkpt lat="29.2088" lon="-13.48">
        <ele>420.8</ele>
        <time>2021-07-03 13:12:57</time>
      </trkpt>
      <trkpt lat="29.20882" lon="-13.47998">
        <ele>420.4</ele>
        <time>2021-07-03 13:12:58</time>
      </trkpt>
      <trkpt lat="29.20884" lon="-13.47996">
        <ele>420.4</ele>
        <time>2021-07-03 13:12:59</time>
      </trkpt>
      <trkpt lat="29.20886" lon="-13.47995">
        <ele>420.4</ele>
        <time>2021-07-03 13:13:00</time>
      </trkpt>
      <trkpt lat="29.20889" lon="-13.47993">
        <ele>420.8</ele>
        <time>2021-07-03 13:13:01</time>
      </trkpt>
      <trkpt lat="29.20891" lon="-13.47992">
        <ele>420.8</ele>
        <time>2021-07-03 13:13:02</time>
      </trkpt>
      <trkpt lat="29.20893" lon="-13.4799">
        <ele>421.2</ele>
        <time>2021-07-03 13:13:03</time>
      </trkpt>
      <trkpt lat="29.20895" lon="-13.47988">
        <ele>421.2</ele>
        <time>2021-07-03 13:13:04</time>
      </trkpt>
      <trkpt lat="29.20898" lon="-13.47986">
        <ele>421.4</ele>
        <time>2021-07-03 13:13:05</time>
      </trkpt>
      <trkpt lat="29.209" lon="-13.47985">
        <ele>421.4</ele>
        <time>2021-07-03 13:13:06</time>
      </trkpt>
      <trkpt lat="29.20902" lon="-13.47983">
        <ele>421.8</ele>
        <time>2021-07-03 13:13:07</time>
      </trkpt>
      <trkpt lat="29.20905" lon="-13.47982">
        <ele>422</ele>
        <time>2021-07-03 13:13:08</time>
      </trkpt>
      <trkpt lat="29.20907" lon="-13.4798">
        <ele>422</ele>
        <time>2021-07-03 13:13:09</time>
      </trkpt>
      <trkpt lat="29.2091" lon="-13.47978">
        <ele>422.2</ele>
        <time>2021-07-03 13:13:10</time>
      </trkpt>
      <trkpt lat="29.20912" lon="-13.47976">
        <ele>422.2</ele>
        <time>2021-07-03 13:13:11</time>
      </trkpt>
      <trkpt lat="29.20914" lon="-13.47975">
        <ele>422.2</ele>
        <time>2021-07-03 13:13:12</time>
      </trkpt>
      <trkpt lat="29.20917" lon="-13.47973">
        <ele>422.2</ele>
        <time>2021-07-03 13:13:13</time>
      </trkpt>
      <trkpt lat="29.20919" lon="-13.47972">
        <ele>422.2</ele>
        <time>2021-07-03 13:13:14</time>
      </trkpt>
      <trkpt lat="29.20921" lon="-13.4797">
        <ele>422.2</ele>
        <time>2021-07-03 13:13:15</time>
      </trkpt>
      <trkpt lat="29.20923" lon="-13.47969">
        <ele>422.2</ele>
        <time>2021-07-03 13:13:16</time>
      </trkpt>
      <trkpt lat="29.20926" lon="-13.47967">
        <ele>422.4</ele>
        <time>2021-07-03 13:13:17</time>
      </trkpt>
      <trkpt lat="29.20928" lon="-13.47965">
        <ele>422.4</ele>
        <time>2021-07-03 13:13:18</time>
      </trkpt>
      <trkpt lat="29.20931" lon="-13.47964">
        <ele>422.8</ele>
        <time>2021-07-03 13:13:19</time>
      </trkpt>
      <trkpt lat="29.20933" lon="-13.47962">
        <ele>423</ele>
        <time>2021-07-03 13:13:20</time>
      </trkpt>
      <trkpt lat="29.20936" lon="-13.47961">
        <ele>423.4</ele>
        <time>2021-07-03 13:13:21</time>
      </trkpt>
      <trkpt lat="29.20938" lon="-13.47959">
        <ele>423.4</ele>
        <time>2021-07-03 13:13:22</time>
      </trkpt>
      <trkpt lat="29.20941" lon="-13.47958">
        <ele>423.6</ele>
        <time>2021-07-03 13:13:23</time>
      </trkpt>
      <trkpt lat="29.20943" lon="-13.47956">
        <ele>423.6</ele>
        <time>2021-07-03 13:13:24</time>
      </trkpt>
      <trkpt lat="29.20946" lon="-13.47954">
        <ele>423.6</ele>
        <time>2021-07-03 13:13:25</time>
      </trkpt>
      <trkpt lat="29.20948" lon="-13.47953">
        <ele>423.8</ele>
        <time>2021-07-03 13:13:26</time>
      </trkpt>
      <trkpt lat="29.20951" lon="-13.47952">
        <ele>424.2</ele>
        <time>2021-07-03 13:13:27</time>
      </trkpt>
      <trkpt lat="29.20953" lon="-13.4795">
        <ele>424.2</ele>
        <time>2021-07-03 13:13:28</time>
      </trkpt>
      <trkpt lat="29.20956" lon="-13.47949">
        <ele>424.4</ele>
        <time>2021-07-03 13:13:29</time>
      </trkpt>
      <trkpt lat="29.20959" lon="-13.47947">
        <ele>424.4</ele>
        <time>2021-07-03 13:13:30</time>
      </trkpt>
      <trkpt lat="29.20961" lon="-13.47946">
        <ele>424.6</ele>
        <time>2021-07-03 13:13:31</time>
      </trkpt>
      <trkpt lat="29.20964" lon="-13.47945">
        <ele>424.6</ele>
        <time>2021-07-03 13:13:32</time>
      </trkpt>
      <trkpt lat="29.20966" lon="-13.47943">
        <ele>425</ele>
        <time>2021-07-03 13:13:33</time>
      </trkpt>
      <trkpt lat="29.20969" lon="-13.47942">
        <ele>425</ele>
        <time>2021-07-03 13:13:34</time>
      </trkpt>
      <trkpt lat="29.20971" lon="-13.47941">
        <ele>425.2</ele>
        <time>2021-07-03 13:13:35</time>
      </trkpt>
      <trkpt lat="29.20974" lon="-13.4794">
        <ele>425.2</ele>
        <time>2021-07-03 13:13:36</time>
      </trkpt>
      <trkpt lat="29.20977" lon="-13.47939">
        <ele>425.2</ele>
        <time>2021-07-03 13:13:37</time>
      </trkpt>
      <trkpt lat="29.2098" lon="-13.47938">
        <ele>425.2</ele>
        <time>2021-07-03 13:13:38</time>
      </trkpt>
      <trkpt lat="29.20983" lon="-13.47936">
        <ele>425.2</ele>
        <time>2021-07-03 13:13:39</time>
      </trkpt>
      <trkpt lat="29.20985" lon="-13.47935">
        <ele>425.2</ele>
        <time>2021-07-03 13:13:40</time>
      </trkpt>
      <trkpt lat="29.20988" lon="-13.47933">
        <ele>425.2</ele>
        <time>2021-07-03 13:13:41</time>
      </trkpt>
      <trkpt lat="29.2099" lon="-13.47932">
        <ele>426</ele>
        <time>2021-07-03 13:13:42</time>
      </trkpt>
      <trkpt lat="29.20993" lon="-13.47931">
        <ele>426</ele>
        <time>2021-07-03 13:13:43</time>
      </trkpt>
      <trkpt lat="29.20996" lon="-13.4793">
        <ele>426</ele>
        <time>2021-07-03 13:13:44</time>
      </trkpt>
      <trkpt lat="29.20998" lon="-13.47929">
        <ele>426</ele>
        <time>2021-07-03 13:13:45</time>
      </trkpt>
      <trkpt lat="29.21001" lon="-13.47928">
        <ele>426</ele>
        <time>2021-07-03 13:13:46</time>
      </trkpt>
      <trkpt lat="29.21004" lon="-13.47927">
        <ele>426</ele>
        <time>2021-07-03 13:13:47</time>
      </trkpt>
      <trkpt lat="29.21006" lon="-13.47926">
        <ele>426</ele>
        <time>2021-07-03 13:13:48</time>
      </trkpt>
      <trkpt lat="29.21009" lon="-13.47925">
        <ele>426</ele>
        <time>2021-07-03 13:13:49</time>
      </trkpt>
      <trkpt lat="29.21012" lon="-13.47924">
        <ele>426</ele>
        <time>2021-07-03 13:13:50</time>
      </trkpt>
      <trkpt lat="29.21015" lon="-13.47924">
        <ele>426</ele>
        <time>2021-07-03 13:13:51</time>
      </trkpt>
      <trkpt lat="29.21018" lon="-13.47923">
        <ele>426</ele>
        <time>2021-07-03 13:13:52</time>
      </trkpt>
      <trkpt lat="29.2102" lon="-13.47923">
        <ele>426</ele>
        <time>2021-07-03 13:13:53</time>
      </trkpt>
      <trkpt lat="29.21023" lon="-13.47922">
        <ele>426</ele>
        <time>2021-07-03 13:13:54</time>
      </trkpt>
      <trkpt lat="29.21026" lon="-13.47921">
        <ele>426</ele>
        <time>2021-07-03 13:13:55</time>
      </trkpt>
      <trkpt lat="29.21029" lon="-13.47921">
        <ele>426.2</ele>
        <time>2021-07-03 13:13:56</time>
      </trkpt>
      <trkpt lat="29.21033" lon="-13.47921">
        <ele>426.2</ele>
        <time>2021-07-03 13:13:57</time>
      </trkpt>
      <trkpt lat="29.21036" lon="-13.4792">
        <ele>426.2</ele>
        <time>2021-07-03 13:13:58</time>
      </trkpt>
      <trkpt lat="29.21039" lon="-13.4792">
        <ele>426.4</ele>
        <time>2021-07-03 13:13:59</time>
      </trkpt>
      <trkpt lat="29.21042" lon="-13.4792">
        <ele>426.4</ele>
        <time>2021-07-03 13:14:00</time>
      </trkpt>
      <trkpt lat="29.21045" lon="-13.4792">
        <ele>426.4</ele>
        <time>2021-07-03 13:14:01</time>
      </trkpt>
      <trkpt lat="29.21048" lon="-13.47919">
        <ele>426.4</ele>
        <time>2021-07-03 13:14:02</time>
      </trkpt>
      <trkpt lat="29.21051" lon="-13.47919">
        <ele>426.4</ele>
        <time>2021-07-03 13:14:03</time>
      </trkpt>
      <trkpt lat="29.21054" lon="-13.47918">
        <ele>426.8</ele>
        <time>2021-07-03 13:14:04</time>
      </trkpt>
      <trkpt lat="29.21057" lon="-13.47918">
        <ele>426.8</ele>
        <time>2021-07-03 13:14:05</time>
      </trkpt>
      <trkpt lat="29.2106" lon="-13.47918">
        <ele>426.8</ele>
        <time>2021-07-03 13:14:06</time>
      </trkpt>
      <trkpt lat="29.21063" lon="-13.47917">
        <ele>426.8</ele>
        <time>2021-07-03 13:14:07</time>
      </trkpt>
      <trkpt lat="29.21065" lon="-13.47917">
        <ele>426.8</ele>
        <time>2021-07-03 13:14:08</time>
      </trkpt>
      <trkpt lat="29.21068" lon="-13.47917">
        <ele>427.2</ele>
        <time>2021-07-03 13:14:09</time>
      </trkpt>
      <trkpt lat="29.21071" lon="-13.47917">
        <ele>427</ele>
        <time>2021-07-03 13:14:10</time>
      </trkpt>
      <trkpt lat="29.21073" lon="-13.47917">
        <ele>427</ele>
        <time>2021-07-03 13:14:11</time>
      </trkpt>
      <trkpt lat="29.21076" lon="-13.47917">
        <ele>427</ele>
        <time>2021-07-03 13:14:12</time>
      </trkpt>
      <trkpt lat="29.21079" lon="-13.47916">
        <ele>427.2</ele>
        <time>2021-07-03 13:14:13</time>
      </trkpt>
      <trkpt lat="29.21082" lon="-13.47915">
        <ele>427.2</ele>
        <time>2021-07-03 13:14:14</time>
      </trkpt>
      <trkpt lat="29.21085" lon="-13.47915">
        <ele>427.2</ele>
        <time>2021-07-03 13:14:15</time>
      </trkpt>
      <trkpt lat="29.21088" lon="-13.47915">
        <ele>427.2</ele>
        <time>2021-07-03 13:14:16</time>
      </trkpt>
      <trkpt lat="29.21091" lon="-13.47915">
        <ele>427.2</ele>
        <time>2021-07-03 13:14:17</time>
      </trkpt>
      <trkpt lat="29.21094" lon="-13.47916">
        <ele>427.2</ele>
        <time>2021-07-03 13:14:18</time>
      </trkpt>
      <trkpt lat="29.21097" lon="-13.47916">
        <ele>427.2</ele>
        <time>2021-07-03 13:14:19</time>
      </trkpt>
      <trkpt lat="29.211" lon="-13.47916">
        <ele>427.2</ele>
        <time>2021-07-03 13:14:20</time>
      </trkpt>
      <trkpt lat="29.21102" lon="-13.47916">
        <ele>427.2</ele>
        <time>2021-07-03 13:14:21</time>
      </trkpt>
      <trkpt lat="29.21105" lon="-13.47916">
        <ele>427.2</ele>
        <time>2021-07-03 13:14:22</time>
      </trkpt>
      <trkpt lat="29.21109" lon="-13.47915">
        <ele>427.4</ele>
        <time>2021-07-03 13:14:23</time>
      </trkpt>
      <trkpt lat="29.21112" lon="-13.47914">
        <ele>427.4</ele>
        <time>2021-07-03 13:14:24</time>
      </trkpt>
      <trkpt lat="29.21115" lon="-13.47913">
        <ele>427.8</ele>
        <time>2021-07-03 13:14:25</time>
      </trkpt>
      <trkpt lat="29.21117" lon="-13.47911">
        <ele>428</ele>
        <time>2021-07-03 13:14:26</time>
      </trkpt>
      <trkpt lat="29.2112" lon="-13.47909">
        <ele>428</ele>
        <time>2021-07-03 13:14:27</time>
      </trkpt>
      <trkpt lat="29.21122" lon="-13.47907">
        <ele>428</ele>
        <time>2021-07-03 13:14:28</time>
      </trkpt>
      <trkpt lat="29.21125" lon="-13.47905">
        <ele>428</ele>
        <time>2021-07-03 13:14:29</time>
      </trkpt>
      <trkpt lat="29.21127" lon="-13.47903">
        <ele>428.2</ele>
        <time>2021-07-03 13:14:30</time>
      </trkpt>
      <trkpt lat="29.2113" lon="-13.47901">
        <ele>428.2</ele>
        <time>2021-07-03 13:14:31</time>
      </trkpt>
      <trkpt lat="29.21133" lon="-13.47899">
        <ele>428.2</ele>
        <time>2021-07-03 13:14:32</time>
      </trkpt>
      <trkpt lat="29.21136" lon="-13.47897">
        <ele>428.2</ele>
        <time>2021-07-03 13:14:33</time>
      </trkpt>
      <trkpt lat="29.21138" lon="-13.47895">
        <ele>428.2</ele>
        <time>2021-07-03 13:14:34</time>
      </trkpt>
      <trkpt lat="29.21141" lon="-13.47893">
        <ele>428.2</ele>
        <time>2021-07-03 13:14:35</time>
      </trkpt>
      <trkpt lat="29.21144" lon="-13.47891">
        <ele>428.2</ele>
        <time>2021-07-03 13:14:36</time>
      </trkpt>
      <trkpt lat="29.21147" lon="-13.4789">
        <ele>428.2</ele>
        <time>2021-07-03 13:14:37</time>
      </trkpt>
      <trkpt lat="29.2115" lon="-13.47888">
        <ele>428</ele>
        <time>2021-07-03 13:14:38</time>
      </trkpt>
      <trkpt lat="29.21153" lon="-13.47886">
        <ele>427.6</ele>
        <time>2021-07-03 13:14:39</time>
      </trkpt>
      <trkpt lat="29.21156" lon="-13.47884">
        <ele>427.6</ele>
        <time>2021-07-03 13:14:40</time>
      </trkpt>
      <trkpt lat="29.21158" lon="-13.47882">
        <ele>427.6</ele>
        <time>2021-07-03 13:14:41</time>
      </trkpt>
      <trkpt lat="29.21161" lon="-13.4788">
        <ele>427.6</ele>
        <time>2021-07-03 13:14:42</time>
      </trkpt>
      <trkpt lat="29.21164" lon="-13.47879">
        <ele>427.6</ele>
        <time>2021-07-03 13:14:43</time>
      </trkpt>
      <trkpt lat="29.21167" lon="-13.47877">
        <ele>427.6</ele>
        <time>2021-07-03 13:14:44</time>
      </trkpt>
      <trkpt lat="29.21171" lon="-13.47875">
        <ele>428</ele>
        <time>2021-07-03 13:14:45</time>
      </trkpt>
      <trkpt lat="29.21174" lon="-13.47873">
        <ele>428.2</ele>
        <time>2021-07-03 13:14:46</time>
      </trkpt>
      <trkpt lat="29.21177" lon="-13.47871">
        <ele>428.2</ele>
        <time>2021-07-03 13:14:47</time>
      </trkpt>
      <trkpt lat="29.2118" lon="-13.47869">
        <ele>428.2</ele>
        <time>2021-07-03 13:14:48</time>
      </trkpt>
      <trkpt lat="29.21183" lon="-13.47867">
        <ele>428.6</ele>
        <time>2021-07-03 13:14:49</time>
      </trkpt>
      <trkpt lat="29.21186" lon="-13.47866">
        <ele>428.6</ele>
        <time>2021-07-03 13:14:50</time>
      </trkpt>
      <trkpt lat="29.21189" lon="-13.47864">
        <ele>428.6</ele>
        <time>2021-07-03 13:14:51</time>
      </trkpt>
      <trkpt lat="29.21192" lon="-13.47863">
        <ele>428.8</ele>
        <time>2021-07-03 13:14:52</time>
      </trkpt>
      <trkpt lat="29.21195" lon="-13.47862">
        <ele>428.8</ele>
        <time>2021-07-03 13:14:53</time>
      </trkpt>
      <trkpt lat="29.21198" lon="-13.47861">
        <ele>428.8</ele>
        <time>2021-07-03 13:14:54</time>
      </trkpt>
      <trkpt lat="29.21201" lon="-13.47861">
        <ele>428.8</ele>
        <time>2021-07-03 13:14:55</time>
      </trkpt>
      <trkpt lat="29.21205" lon="-13.4786">
        <ele>428.8</ele>
        <time>2021-07-03 13:14:56</time>
      </trkpt>
      <trkpt lat="29.21208" lon="-13.4786">
        <ele>428.8</ele>
        <time>2021-07-03 13:14:57</time>
      </trkpt>
      <trkpt lat="29.21211" lon="-13.47859">
        <ele>428.8</ele>
        <time>2021-07-03 13:14:58</time>
      </trkpt>
      <trkpt lat="29.21214" lon="-13.47859">
        <ele>428.8</ele>
        <time>2021-07-03 13:14:59</time>
      </trkpt>
      <trkpt lat="29.21217" lon="-13.47858">
        <ele>428.8</ele>
        <time>2021-07-03 13:15:00</time>
      </trkpt>
      <trkpt lat="29.2122" lon="-13.47858">
        <ele>429</ele>
        <time>2021-07-03 13:15:01</time>
      </trkpt>
      <trkpt lat="29.21223" lon="-13.47858">
        <ele>429.2</ele>
        <time>2021-07-03 13:15:02</time>
      </trkpt>
      <trkpt lat="29.21225" lon="-13.47858">
        <ele>429.6</ele>
        <time>2021-07-03 13:15:03</time>
      </trkpt>
      <trkpt lat="29.21227" lon="-13.47858">
        <ele>429.6</ele>
        <time>2021-07-03 13:15:04</time>
      </trkpt>
      <trkpt lat="29.21229" lon="-13.47858">
        <ele>429.8</ele>
        <time>2021-07-03 13:15:05</time>
      </trkpt>
      <trkpt lat="29.21231" lon="-13.47858">
        <ele>429.8</ele>
        <time>2021-07-03 13:15:06</time>
      </trkpt>
      <trkpt lat="29.21233" lon="-13.47858">
        <ele>429.8</ele>
        <time>2021-07-03 13:15:07</time>
      </trkpt>
      <trkpt lat="29.21235" lon="-13.47859">
        <ele>430.2</ele>
        <time>2021-07-03 13:15:08</time>
      </trkpt>
      <trkpt lat="29.21237" lon="-13.47859">
        <ele>430.2</ele>
        <time>2021-07-03 13:15:09</time>
      </trkpt>
      <trkpt lat="29.21239" lon="-13.4786">
        <ele>430.2</ele>
        <time>2021-07-03 13:15:10</time>
      </trkpt>
      <trkpt lat="29.21241" lon="-13.47861">
        <ele>430.2</ele>
        <time>2021-07-03 13:15:11</time>
      </trkpt>
      <trkpt lat="29.21243" lon="-13.47861">
        <ele>430.6</ele>
        <time>2021-07-03 13:15:12</time>
      </trkpt>
      <trkpt lat="29.21245" lon="-13.47862">
        <ele>430.6</ele>
        <time>2021-07-03 13:15:13</time>
      </trkpt>
      <trkpt lat="29.21248" lon="-13.47862">
        <ele>431</ele>
        <time>2021-07-03 13:15:14</time>
      </trkpt>
      <trkpt lat="29.2125" lon="-13.47862">
        <ele>431.4</ele>
        <time>2021-07-03 13:15:15</time>
      </trkpt>
      <trkpt lat="29.21252" lon="-13.47863">
        <ele>432</ele>
        <time>2021-07-03 13:15:16</time>
      </trkpt>
      <trkpt lat="29.21254" lon="-13.47863">
        <ele>432</ele>
        <time>2021-07-03 13:15:17</time>
      </trkpt>
      <trkpt lat="29.21256" lon="-13.47864">
        <ele>432</ele>
        <time>2021-07-03 13:15:18</time>
      </trkpt>
      <trkpt lat="29.21258" lon="-13.47865">
        <ele>432.8</ele>
        <time>2021-07-03 13:15:19</time>
      </trkpt>
      <trkpt lat="29.2126" lon="-13.47866">
        <ele>432.8</ele>
        <time>2021-07-03 13:15:20</time>
      </trkpt>
      <trkpt lat="29.21261" lon="-13.47866">
        <ele>432.8</ele>
        <time>2021-07-03 13:15:21</time>
      </trkpt>
      <trkpt lat="29.21264" lon="-13.47866">
        <ele>433.2</ele>
        <time>2021-07-03 13:15:22</time>
      </trkpt>
      <trkpt lat="29.21266" lon="-13.47867">
        <ele>433.6</ele>
        <time>2021-07-03 13:15:23</time>
      </trkpt>
      <trkpt lat="29.21268" lon="-13.47868">
        <ele>433.6</ele>
        <time>2021-07-03 13:15:24</time>
      </trkpt>
      <trkpt lat="29.2127" lon="-13.47868">
        <ele>434</ele>
        <time>2021-07-03 13:15:25</time>
      </trkpt>
      <trkpt lat="29.21272" lon="-13.47868">
        <ele>435</ele>
        <time>2021-07-03 13:15:26</time>
      </trkpt>
      <trkpt lat="29.21274" lon="-13.47869">
        <ele>435.2</ele>
        <time>2021-07-03 13:15:27</time>
      </trkpt>
      <trkpt lat="29.21276" lon="-13.4787">
        <ele>435.2</ele>
        <time>2021-07-03 13:15:28</time>
      </trkpt>
      <trkpt lat="29.21278" lon="-13.4787">
        <ele>435.6</ele>
        <time>2021-07-03 13:15:29</time>
      </trkpt>
      <trkpt lat="29.21279" lon="-13.47872">
        <ele>436</ele>
        <time>2021-07-03 13:15:30</time>
      </trkpt>
      <trkpt lat="29.21279" lon="-13.47874">
        <ele>436</ele>
        <time>2021-07-03 13:15:31</time>
      </trkpt>
      <trkpt lat="29.21277" lon="-13.47877">
        <ele>436</ele>
        <time>2021-07-03 13:15:32</time>
      </trkpt>
      <trkpt lat="29.21276" lon="-13.4788">
        <ele>436</ele>
        <time>2021-07-03 13:15:33</time>
      </trkpt>
      <trkpt lat="29.21274" lon="-13.47882">
        <ele>435.6</ele>
        <time>2021-07-03 13:15:34</time>
      </trkpt>
      <trkpt lat="29.21273" lon="-13.47885">
        <ele>435.6</ele>
        <time>2021-07-03 13:15:35</time>
      </trkpt>
      <trkpt lat="29.21272" lon="-13.47888">
        <ele>435.6</ele>
        <time>2021-07-03 13:15:36</time>
      </trkpt>
      <trkpt lat="29.21272" lon="-13.47892">
        <ele>436</ele>
        <time>2021-07-03 13:15:37</time>
      </trkpt>
      <trkpt lat="29.21271" lon="-13.47895">
        <ele>436.2</ele>
        <time>2021-07-03 13:15:38</time>
      </trkpt>
      <trkpt lat="29.21271" lon="-13.47898">
        <ele>436.2</ele>
        <time>2021-07-03 13:15:39</time>
      </trkpt>
      <trkpt lat="29.2127" lon="-13.47901">
        <ele>436.2</ele>
        <time>2021-07-03 13:15:40</time>
      </trkpt>
      <trkpt lat="29.21269" lon="-13.47905">
        <ele>436.2</ele>
        <time>2021-07-03 13:15:41</time>
      </trkpt>
      <trkpt lat="29.21268" lon="-13.47908">
        <ele>436.6</ele>
        <time>2021-07-03 13:15:42</time>
      </trkpt>
      <trkpt lat="29.21268" lon="-13.47912">
        <ele>436.8</ele>
        <time>2021-07-03 13:15:43</time>
      </trkpt>
      <trkpt lat="29.21268" lon="-13.47915">
        <ele>436.8</ele>
        <time>2021-07-03 13:15:44</time>
      </trkpt>
      <trkpt lat="29.21269" lon="-13.47918">
        <ele>436.8</ele>
        <time>2021-07-03 13:15:45</time>
      </trkpt>
      <trkpt lat="29.21269" lon="-13.47921">
        <ele>436.8</ele>
        <time>2021-07-03 13:15:46</time>
      </trkpt>
      <trkpt lat="29.2127" lon="-13.47925">
        <ele>436.8</ele>
        <time>2021-07-03 13:15:47</time>
      </trkpt>
      <trkpt lat="29.2127" lon="-13.47928">
        <ele>436.8</ele>
        <time>2021-07-03 13:15:48</time>
      </trkpt>
      <trkpt lat="29.21271" lon="-13.47931">
        <ele>437.2</ele>
        <time>2021-07-03 13:15:49</time>
      </trkpt>
      <trkpt lat="29.21271" lon="-13.47934">
        <ele>437.2</ele>
        <time>2021-07-03 13:15:50</time>
      </trkpt>
      <trkpt lat="29.21271" lon="-13.47938">
        <ele>437.4</ele>
        <time>2021-07-03 13:15:51</time>
      </trkpt>
      <trkpt lat="29.21272" lon="-13.47941">
        <ele>437.4</ele>
        <time>2021-07-03 13:15:52</time>
      </trkpt>
      <trkpt lat="29.21272" lon="-13.47945">
        <ele>437.4</ele>
        <time>2021-07-03 13:15:53</time>
      </trkpt>
      <trkpt lat="29.21272" lon="-13.47948">
        <ele>438</ele>
        <time>2021-07-03 13:15:54</time>
      </trkpt>
      <trkpt lat="29.21273" lon="-13.47952">
        <ele>438</ele>
        <time>2021-07-03 13:15:55</time>
      </trkpt>
      <trkpt lat="29.21273" lon="-13.47955">
        <ele>438.2</ele>
        <time>2021-07-03 13:15:56</time>
      </trkpt>
      <trkpt lat="29.21273" lon="-13.47959">
        <ele>438.2</ele>
        <time>2021-07-03 13:15:57</time>
      </trkpt>
      <trkpt lat="29.21273" lon="-13.47962">
        <ele>438.2</ele>
        <time>2021-07-03 13:15:58</time>
      </trkpt>
      <trkpt lat="29.21273" lon="-13.47965">
        <ele>438.2</ele>
        <time>2021-07-03 13:15:59</time>
      </trkpt>
      <trkpt lat="29.21273" lon="-13.47969">
        <ele>438.6</ele>
        <time>2021-07-03 13:16:00</time>
      </trkpt>
      <trkpt lat="29.21273" lon="-13.47972">
        <ele>438.6</ele>
        <time>2021-07-03 13:16:01</time>
      </trkpt>
      <trkpt lat="29.21273" lon="-13.47975">
        <ele>439</ele>
        <time>2021-07-03 13:16:02</time>
      </trkpt>
      <trkpt lat="29.21273" lon="-13.47989">
        <ele>439.6</ele>
        <time>2021-07-03 13:16:03</time>
      </trkpt>
      <trkpt lat="29.21273" lon="-13.47993">
        <ele>439.6</ele>
        <time>2021-07-03 13:16:04</time>
      </trkpt>
      <trkpt lat="29.21274" lon="-13.47996">
        <ele>440</ele>
        <time>2021-07-03 13:16:05</time>
      </trkpt>
      <trkpt lat="29.21274" lon="-13.48">
        <ele>440</ele>
        <time>2021-07-03 13:16:06</time>
      </trkpt>
      <trkpt lat="29.21275" lon="-13.48003">
        <ele>439.8</ele>
        <time>2021-07-03 13:16:07</time>
      </trkpt>
      <trkpt lat="29.21275" lon="-13.48007">
        <ele>439.8</ele>
        <time>2021-07-03 13:16:08</time>
      </trkpt>
      <trkpt lat="29.21275" lon="-13.4801">
        <ele>439.8</ele>
        <time>2021-07-03 13:16:09</time>
      </trkpt>
      <trkpt lat="29.21276" lon="-13.48014">
        <ele>439.8</ele>
        <time>2021-07-03 13:16:10</time>
      </trkpt>
      <trkpt lat="29.21276" lon="-13.48018">
        <ele>439.8</ele>
        <time>2021-07-03 13:16:11</time>
      </trkpt>
      <trkpt lat="29.21277" lon="-13.48022">
        <ele>439.8</ele>
        <time>2021-07-03 13:16:12</time>
      </trkpt>
      <trkpt lat="29.21277" lon="-13.48025">
        <ele>439.8</ele>
        <time>2021-07-03 13:16:13</time>
      </trkpt>
      <trkpt lat="29.21278" lon="-13.48029">
        <ele>439.8</ele>
        <time>2021-07-03 13:16:14</time>
      </trkpt>
      <trkpt lat="29.21279" lon="-13.48033">
        <ele>439.8</ele>
        <time>2021-07-03 13:16:15</time>
      </trkpt>
      <trkpt lat="29.2128" lon="-13.48036">
        <ele>440.2</ele>
        <time>2021-07-03 13:16:16</time>
      </trkpt>
      <trkpt lat="29.2128" lon="-13.48039">
        <ele>440.2</ele>
        <time>2021-07-03 13:16:17</time>
      </trkpt>
      <trkpt lat="29.21281" lon="-13.48043">
        <ele>440.4</ele>
        <time>2021-07-03 13:16:18</time>
      </trkpt>
      <trkpt lat="29.21283" lon="-13.48046">
        <ele>440.6</ele>
        <time>2021-07-03 13:16:19</time>
      </trkpt>
      <trkpt lat="29.21284" lon="-13.4805">
        <ele>440.6</ele>
        <time>2021-07-03 13:16:20</time>
      </trkpt>
      <trkpt lat="29.21286" lon="-13.48053">
        <ele>440.6</ele>
        <time>2021-07-03 13:16:21</time>
      </trkpt>
      <trkpt lat="29.21287" lon="-13.48056">
        <ele>440.6</ele>
        <time>2021-07-03 13:16:22</time>
      </trkpt>
      <trkpt lat="29.21288" lon="-13.48059">
        <ele>440.6</ele>
        <time>2021-07-03 13:16:23</time>
      </trkpt>
      <trkpt lat="29.2129" lon="-13.48066">
        <ele>441.4</ele>
        <time>2021-07-03 13:16:24</time>
      </trkpt>
      <trkpt lat="29.21291" lon="-13.48069">
        <ele>441.4</ele>
        <time>2021-07-03 13:16:25</time>
      </trkpt>
      <trkpt lat="29.21291" lon="-13.48072">
        <ele>441.4</ele>
        <time>2021-07-03 13:16:26</time>
      </trkpt>
      <trkpt lat="29.21292" lon="-13.48075">
        <ele>441.6</ele>
        <time>2021-07-03 13:16:27</time>
      </trkpt>
      <trkpt lat="29.21292" lon="-13.48077">
        <ele>441.8</ele>
        <time>2021-07-03 13:16:28</time>
      </trkpt>
      <trkpt lat="29.21293" lon="-13.48079">
        <ele>442.4</ele>
        <time>2021-07-03 13:16:29</time>
      </trkpt>
      <trkpt lat="29.21294" lon="-13.48081">
        <ele>442.6</ele>
        <time>2021-07-03 13:16:30</time>
      </trkpt>
      <trkpt lat="29.21295" lon="-13.48083">
        <ele>442.8</ele>
        <time>2021-07-03 13:16:31</time>
      </trkpt>
      <trkpt lat="29.21297" lon="-13.48085">
        <ele>443.2</ele>
        <time>2021-07-03 13:16:32</time>
      </trkpt>
      <trkpt lat="29.21298" lon="-13.48087">
        <ele>443.6</ele>
        <time>2021-07-03 13:16:33</time>
      </trkpt>
      <trkpt lat="29.21299" lon="-13.48088">
        <ele>444.2</ele>
        <time>2021-07-03 13:16:34</time>
      </trkpt>
      <trkpt lat="29.213" lon="-13.48091">
        <ele>444.2</ele>
        <time>2021-07-03 13:16:35</time>
      </trkpt>
      <trkpt lat="29.21301" lon="-13.48094">
        <ele>443.8</ele>
        <time>2021-07-03 13:16:36</time>
      </trkpt>
      <trkpt lat="29.21301" lon="-13.48096">
        <ele>443.8</ele>
        <time>2021-07-03 13:16:37</time>
      </trkpt>
      <trkpt lat="29.21302" lon="-13.48099">
        <ele>443.6</ele>
        <time>2021-07-03 13:16:38</time>
      </trkpt>
      <trkpt lat="29.21303" lon="-13.48101">
        <ele>443.6</ele>
        <time>2021-07-03 13:16:39</time>
      </trkpt>
      <trkpt lat="29.21304" lon="-13.48102">
        <ele>443.2</ele>
        <time>2021-07-03 13:16:40</time>
      </trkpt>
      <trkpt lat="29.21306" lon="-13.48103">
        <ele>443.2</ele>
        <time>2021-07-03 13:16:41</time>
      </trkpt>
      <trkpt lat="29.21307" lon="-13.48104">
        <ele>444.2</ele>
        <time>2021-07-03 13:16:42</time>
      </trkpt>
      <trkpt lat="29.21308" lon="-13.48106">
        <ele>444</ele>
        <time>2021-07-03 13:16:43</time>
      </trkpt>
      <trkpt lat="29.21308" lon="-13.48107">
        <ele>443.8</ele>
        <time>2021-07-03 13:16:44</time>
      </trkpt>
      <trkpt lat="29.21309" lon="-13.48108">
        <ele>443.8</ele>
        <time>2021-07-03 13:16:45</time>
      </trkpt>
      <trkpt lat="29.21309" lon="-13.48109">
        <ele>443.8</ele>
        <time>2021-07-03 13:16:46</time>
      </trkpt>
      <trkpt lat="29.21309" lon="-13.48109">
        <ele>443.6</ele>
        <time>2021-07-03 13:16:47</time>
      </trkpt>
      <trkpt lat="29.21309" lon="-13.48108">
        <ele>443.6</ele>
        <time>2021-07-03 13:16:48</time>
      </trkpt>
      <trkpt lat="29.21309" lon="-13.48108">
        <ele>443.6</ele>
        <time>2021-07-03 13:16:49</time>
      </trkpt>
      <trkpt lat="29.2131" lon="-13.48108">
        <ele>443.8</ele>
        <time>2021-07-03 13:16:50</time>
      </trkpt>
      <trkpt lat="29.21314" lon="-13.48109">
        <ele>444</ele>
        <time>2021-07-03 13:16:51</time>
      </trkpt>
      <trkpt lat="29.21315" lon="-13.48109">
        <ele>444</ele>
        <time>2021-07-03 13:16:52</time>
      </trkpt>
      <trkpt lat="29.21315" lon="-13.48109">
        <ele>444.4</ele>
        <time>2021-07-03 13:16:53</time>
      </trkpt>
      <trkpt lat="29.21315" lon="-13.4811">
        <ele>444.4</ele>
        <time>2021-07-03 13:16:54</time>
      </trkpt>
      <trkpt lat="29.21315" lon="-13.4811">
        <ele>444.6</ele>
        <time>2021-07-03 13:16:55</time>
      </trkpt>
      <trkpt lat="29.21315" lon="-13.48111">
        <ele>445</ele>
        <time>2021-07-03 13:16:56</time>
      </trkpt>
      <trkpt lat="29.21317" lon="-13.48112">
        <ele>445</ele>
        <time>2021-07-03 13:16:57</time>
      </trkpt>
      <trkpt lat="29.21318" lon="-13.48113">
        <ele>445.2</ele>
        <time>2021-07-03 13:16:58</time>
      </trkpt>
      <trkpt lat="29.2132" lon="-13.48114">
        <ele>445.2</ele>
        <time>2021-07-03 13:16:59</time>
      </trkpt>
      <trkpt lat="29.21322" lon="-13.48115">
        <ele>445.2</ele>
        <time>2021-07-03 13:17:02</time>
      </trkpt>
      <trkpt lat="29.21324" lon="-13.48116">
        <ele>445.2</ele>
        <time>2021-07-03 13:17:03</time>
      </trkpt>
      <trkpt lat="29.21326" lon="-13.48116">
        <ele>445.8</ele>
        <time>2021-07-03 13:17:04</time>
      </trkpt>
      <trkpt lat="29.21328" lon="-13.48117">
        <ele>445.8</ele>
        <time>2021-07-03 13:17:05</time>
      </trkpt>
      <trkpt lat="29.2133" lon="-13.48117">
        <ele>445.8</ele>
        <time>2021-07-03 13:17:06</time>
      </trkpt>
      <trkpt lat="29.21332" lon="-13.48117">
        <ele>445.8</ele>
        <time>2021-07-03 13:17:11</time>
      </trkpt>
      <trkpt lat="29.21334" lon="-13.48117">
        <ele>446.2</ele>
        <time>2021-07-03 13:17:12</time>
      </trkpt>
      <trkpt lat="29.21337" lon="-13.48117">
        <ele>446.2</ele>
        <time>2021-07-03 13:17:13</time>
      </trkpt>
      <trkpt lat="29.21339" lon="-13.48117">
        <ele>446.6</ele>
        <time>2021-07-03 13:17:14</time>
      </trkpt>
      <trkpt lat="29.21341" lon="-13.48117">
        <ele>447</ele>
        <time>2021-07-03 13:17:15</time>
      </trkpt>
      <trkpt lat="29.21343" lon="-13.48116">
        <ele>447</ele>
        <time>2021-07-03 13:17:16</time>
      </trkpt>
      <trkpt lat="29.21345" lon="-13.48116">
        <ele>447.4</ele>
        <time>2021-07-03 13:17:17</time>
      </trkpt>
      <trkpt lat="29.21347" lon="-13.48116">
        <ele>447.4</ele>
        <time>2021-07-03 13:17:18</time>
      </trkpt>
      <trkpt lat="29.21349" lon="-13.48115">
        <ele>448.2</ele>
        <time>2021-07-03 13:17:19</time>
      </trkpt>
      <trkpt lat="29.21351" lon="-13.48114">
        <ele>448.2</ele>
        <time>2021-07-03 13:17:20</time>
      </trkpt>
      <trkpt lat="29.21353" lon="-13.48114">
        <ele>449</ele>
        <time>2021-07-03 13:17:21</time>
      </trkpt>
      <trkpt lat="29.21355" lon="-13.48113">
        <ele>450</ele>
        <time>2021-07-03 13:17:22</time>
      </trkpt>
      <trkpt lat="29.21357" lon="-13.48113">
        <ele>450.8</ele>
        <time>2021-07-03 13:17:23</time>
      </trkpt>
      <trkpt lat="29.21358" lon="-13.48114">
        <ele>450.8</ele>
        <time>2021-07-03 13:17:24</time>
      </trkpt>
      <trkpt lat="29.2136" lon="-13.48115">
        <ele>450.8</ele>
        <time>2021-07-03 13:17:25</time>
      </trkpt>
      <trkpt lat="29.21361" lon="-13.48116">
        <ele>450.8</ele>
        <time>2021-07-03 13:17:26</time>
      </trkpt>
      <trkpt lat="29.21363" lon="-13.48116">
        <ele>450.8</ele>
        <time>2021-07-03 13:17:27</time>
      </trkpt>
      <trkpt lat="29.21365" lon="-13.48117">
        <ele>451</ele>
        <time>2021-07-03 13:17:28</time>
      </trkpt>
      <trkpt lat="29.21367" lon="-13.48117">
        <ele>451</ele>
        <time>2021-07-03 13:17:29</time>
      </trkpt>
      <trkpt lat="29.21368" lon="-13.48118">
        <ele>451</ele>
        <time>2021-07-03 13:17:30</time>
      </trkpt>
      <trkpt lat="29.2137" lon="-13.48119">
        <ele>451</ele>
        <time>2021-07-03 13:17:31</time>
      </trkpt>
      <trkpt lat="29.21372" lon="-13.4812">
        <ele>451.4</ele>
        <time>2021-07-03 13:17:32</time>
      </trkpt>
      <trkpt lat="29.21373" lon="-13.4812">
        <ele>451.4</ele>
        <time>2021-07-03 13:17:33</time>
      </trkpt>
      <trkpt lat="29.21375" lon="-13.4812">
        <ele>451.4</ele>
        <time>2021-07-03 13:17:34</time>
      </trkpt>
      <trkpt lat="29.21375" lon="-13.48121">
        <ele>452</ele>
        <time>2021-07-03 13:17:35</time>
      </trkpt>
      <trkpt lat="29.21375" lon="-13.48121">
        <ele>452</ele>
        <time>2021-07-03 13:17:36</time>
      </trkpt>
      <trkpt lat="29.21375" lon="-13.48121">
        <ele>452</ele>
        <time>2021-07-03 13:17:37</time>
      </trkpt>
      <trkpt lat="29.21375" lon="-13.48121">
        <ele>452.2</ele>
        <time>2021-07-03 13:17:38</time>
      </trkpt>
      <trkpt lat="29.21374" lon="-13.48121">
        <ele>453</ele>
        <time>2021-07-03 13:17:39</time>
      </trkpt>
      <trkpt lat="29.21374" lon="-13.4812">
        <ele>453</ele>
        <time>2021-07-03 13:17:40</time>
      </trkpt>
      <trkpt lat="29.21376" lon="-13.48115">
        <ele>452.4</ele>
        <time>2021-07-03 13:17:41</time>
      </trkpt>
      <trkpt lat="29.21376" lon="-13.48114">
        <ele>452.4</ele>
        <time>2021-07-03 13:17:42</time>
      </trkpt>
      <trkpt lat="29.21376" lon="-13.48114">
        <ele>452.4</ele>
        <time>2021-07-03 13:17:43</time>
      </trkpt>
      <trkpt lat="29.21376" lon="-13.48114">
        <ele>452.4</ele>
        <time>2021-07-03 13:17:44</time>
      </trkpt>
      <trkpt lat="29.21376" lon="-13.48114">
        <ele>453.2</ele>
        <time>2021-07-03 13:17:45</time>
      </trkpt>
      <trkpt lat="29.21375" lon="-13.48114">
        <ele>453.2</ele>
        <time>2021-07-03 13:17:46</time>
      </trkpt>
      <trkpt lat="29.21374" lon="-13.48114">
        <ele>453.6</ele>
        <time>2021-07-03 13:17:47</time>
      </trkpt>
      <trkpt lat="29.21374" lon="-13.48114">
        <ele>453.8</ele>
        <time>2021-07-03 13:28:06</time>
      </trkpt>
      <trkpt lat="29.21374" lon="-13.48114">
        <ele>453.8</ele>
        <time>2021-07-03 13:28:07</time>
      </trkpt>
      <trkpt lat="29.21374" lon="-13.48114">
        <ele>453.8</ele>
        <time>2021-07-03 13:28:08</time>
      </trkpt>
      <trkpt lat="29.21372" lon="-13.48113">
        <ele>454.4</ele>
        <time>2021-07-03 13:28:09</time>
      </trkpt>
      <trkpt lat="29.21371" lon="-13.48112">
        <ele>454.2</ele>
        <time>2021-07-03 13:28:10</time>
      </trkpt>
      <trkpt lat="29.21371" lon="-13.48112">
        <ele>454.2</ele>
        <time>2021-07-03 13:28:11</time>
      </trkpt>
      <trkpt lat="29.21371" lon="-13.48112">
        <ele>453.8</ele>
        <time>2021-07-03 13:28:12</time>
      </trkpt>
      <trkpt lat="29.21371" lon="-13.48112">
        <ele>453.6</ele>
        <time>2021-07-03 13:28:13</time>
      </trkpt>
      <trkpt lat="29.21369" lon="-13.48111">
        <ele>454.2</ele>
        <time>2021-07-03 13:28:14</time>
      </trkpt>
      <trkpt lat="29.21366" lon="-13.4811">
        <ele>454.2</ele>
        <time>2021-07-03 13:28:15</time>
      </trkpt>
      <trkpt lat="29.21364" lon="-13.48111">
        <ele>454.2</ele>
        <time>2021-07-03 13:28:49</time>
      </trkpt>
      <trkpt lat="29.21362" lon="-13.48111">
        <ele>454.2</ele>
        <time>2021-07-03 13:28:50</time>
      </trkpt>
      <trkpt lat="29.21359" lon="-13.48111">
        <ele>453.4</ele>
        <time>2021-07-03 13:28:51</time>
      </trkpt>
      <trkpt lat="29.21357" lon="-13.48111">
        <ele>453</ele>
        <time>2021-07-03 13:28:52</time>
      </trkpt>
      <trkpt lat="29.21354" lon="-13.48111">
        <ele>452.6</ele>
        <time>2021-07-03 13:28:53</time>
      </trkpt>
      <trkpt lat="29.21351" lon="-13.48111">
        <ele>452</ele>
        <time>2021-07-03 13:28:54</time>
      </trkpt>
      <trkpt lat="29.21348" lon="-13.48111">
        <ele>451.4</ele>
        <time>2021-07-03 13:29:41</time>
      </trkpt>
      <trkpt lat="29.21346" lon="-13.48111">
        <ele>451</ele>
        <time>2021-07-03 13:29:42</time>
      </trkpt>
      <trkpt lat="29.21344" lon="-13.48111">
        <ele>450.6</ele>
        <time>2021-07-03 13:29:43</time>
      </trkpt>
      <trkpt lat="29.21341" lon="-13.48112">
        <ele>450.6</ele>
        <time>2021-07-03 13:29:44</time>
      </trkpt>
      <trkpt lat="29.21339" lon="-13.48112">
        <ele>450</ele>
        <time>2021-07-03 13:29:45</time>
      </trkpt>
      <trkpt lat="29.21336" lon="-13.48112">
        <ele>449.8</ele>
        <time>2021-07-03 13:31:48</time>
      </trkpt>
      <trkpt lat="29.21334" lon="-13.48111">
        <ele>449.2</ele>
        <time>2021-07-03 13:31:49</time>
      </trkpt>
      <trkpt lat="29.21332" lon="-13.48111">
        <ele>450.8</ele>
        <time>2021-07-03 13:31:50</time>
      </trkpt>
      <trkpt lat="29.2133" lon="-13.4811">
        <ele>450</ele>
        <time>2021-07-03 13:31:51</time>
      </trkpt>
      <trkpt lat="29.21328" lon="-13.4811">
        <ele>449.2</ele>
        <time>2021-07-03 13:31:52</time>
      </trkpt>
      <trkpt lat="29.21325" lon="-13.4811">
        <ele>449</ele>
        <time>2021-07-03 13:31:53</time>
      </trkpt>
      <trkpt lat="29.21322" lon="-13.4811">
        <ele>448.2</ele>
        <time>2021-07-03 13:31:54</time>
      </trkpt>
      <trkpt lat="29.2132" lon="-13.48111">
        <ele>447.8</ele>
        <time>2021-07-03 13:31:55</time>
      </trkpt>
      <trkpt lat="29.21317" lon="-13.48111">
        <ele>447.2</ele>
        <time>2021-07-03 13:31:56</time>
      </trkpt>
      <trkpt lat="29.21316" lon="-13.48111">
        <ele>446.6</ele>
        <time>2021-07-03 13:31:57</time>
      </trkpt>
      <trkpt lat="29.21315" lon="-13.48111">
        <ele>446.2</ele>
        <time>2021-07-03 13:31:58</time>
      </trkpt>
      <trkpt lat="29.21315" lon="-13.48112">
        <ele>445.8</ele>
        <time>2021-07-03 13:31:59</time>
      </trkpt>
      <trkpt lat="29.21314" lon="-13.48112">
        <ele>445.6</ele>
        <time>2021-07-03 13:32:00</time>
      </trkpt>
      <trkpt lat="29.21313" lon="-13.48113">
        <ele>446</ele>
        <time>2021-07-03 13:32:01</time>
      </trkpt>
      <trkpt lat="29.21311" lon="-13.48113">
        <ele>445.4</ele>
        <time>2021-07-03 13:32:02</time>
      </trkpt>
      <trkpt lat="29.21308" lon="-13.48113">
        <ele>445</ele>
        <time>2021-07-03 13:32:03</time>
      </trkpt>
      <trkpt lat="29.21305" lon="-13.48113">
        <ele>444.4</ele>
        <time>2021-07-03 13:32:04</time>
      </trkpt>
      <trkpt lat="29.21303" lon="-13.48113">
        <ele>444</ele>
        <time>2021-07-03 13:32:05</time>
      </trkpt>
      <trkpt lat="29.21301" lon="-13.48113">
        <ele>443.8</ele>
        <time>2021-07-03 13:32:06</time>
      </trkpt>
      <trkpt lat="29.21299" lon="-13.48114">
        <ele>443.2</ele>
        <time>2021-07-03 13:32:07</time>
      </trkpt>
      <trkpt lat="29.21296" lon="-13.48114">
        <ele>443</ele>
        <time>2021-07-03 13:32:08</time>
      </trkpt>
      <trkpt lat="29.21294" lon="-13.48114">
        <ele>442.6</ele>
        <time>2021-07-03 13:32:09</time>
      </trkpt>
      <trkpt lat="29.21291" lon="-13.48114">
        <ele>442.2</ele>
        <time>2021-07-03 13:32:10</time>
      </trkpt>
      <trkpt lat="29.21288" lon="-13.48113">
        <ele>441.8</ele>
        <time>2021-07-03 13:32:11</time>
      </trkpt>
      <trkpt lat="29.21286" lon="-13.48113">
        <ele>441.6</ele>
        <time>2021-07-03 13:32:12</time>
      </trkpt>
      <trkpt lat="29.21284" lon="-13.48114">
        <ele>441.4</ele>
        <time>2021-07-03 13:32:13</time>
      </trkpt>
      <trkpt lat="29.21282" lon="-13.48114">
        <ele>441</ele>
        <time>2021-07-03 13:32:14</time>
      </trkpt>
      <trkpt lat="29.21281" lon="-13.48114">
        <ele>440.8</ele>
        <time>2021-07-03 13:32:15</time>
      </trkpt>
      <trkpt lat="29.21281" lon="-13.48114">
        <ele>440.8</ele>
        <time>2021-07-03 13:32:16</time>
      </trkpt>
      <trkpt lat="29.21282" lon="-13.48115">
        <ele>440.4</ele>
        <time>2021-07-03 13:32:17</time>
      </trkpt>
      <trkpt lat="29.21282" lon="-13.48115">
        <ele>440.4</ele>
        <time>2021-07-03 13:32:18</time>
      </trkpt>
      <trkpt lat="29.21282" lon="-13.48116">
        <ele>441.4</ele>
        <time>2021-07-03 13:32:19</time>
      </trkpt>
      <trkpt lat="29.21282" lon="-13.48117">
        <ele>441.2</ele>
        <time>2021-07-03 13:32:20</time>
      </trkpt>
      <trkpt lat="29.21282" lon="-13.48117">
        <ele>441.2</ele>
        <time>2021-07-03 13:32:21</time>
      </trkpt>
      <trkpt lat="29.21282" lon="-13.48116">
        <ele>441.2</ele>
        <time>2021-07-03 13:32:22</time>
      </trkpt>
      <trkpt lat="29.21282" lon="-13.48117">
        <ele>440.8</ele>
        <time>2021-07-03 13:32:23</time>
      </trkpt>
      <trkpt lat="29.21281" lon="-13.48117">
        <ele>441.6</ele>
        <time>2021-07-03 13:32:24</time>
      </trkpt>
      <trkpt lat="29.2128" lon="-13.48117">
        <ele>441.2</ele>
        <time>2021-07-03 13:32:25</time>
      </trkpt>
      <trkpt lat="29.2128" lon="-13.48117">
        <ele>441.2</ele>
        <time>2021-07-03 13:32:26</time>
      </trkpt>
      <trkpt lat="29.2128" lon="-13.48117">
        <ele>441.2</ele>
        <time>2021-07-03 13:32:27</time>
      </trkpt>
      <trkpt lat="29.21277" lon="-13.48114">
        <ele>441</ele>
        <time>2021-07-03 13:32:28</time>
      </trkpt>
      <trkpt lat="29.21275" lon="-13.48113">
        <ele>441</ele>
        <time>2021-07-03 13:32:29</time>
      </trkpt>
      <trkpt lat="29.21272" lon="-13.48112">
        <ele>440.8</ele>
        <time>2021-07-03 13:32:30</time>
      </trkpt>
      <trkpt lat="29.21269" lon="-13.48113">
        <ele>440.8</ele>
        <time>2021-07-03 13:32:31</time>
      </trkpt>
      <trkpt lat="29.21266" lon="-13.48114">
        <ele>440.4</ele>
        <time>2021-07-03 13:33:30</time>
      </trkpt>
      <trkpt lat="29.21263" lon="-13.48115">
        <ele>440.4</ele>
        <time>2021-07-03 13:33:31</time>
      </trkpt>
      <trkpt lat="29.21261" lon="-13.48116">
        <ele>440.4</ele>
        <time>2021-07-03 13:33:32</time>
      </trkpt>
      <trkpt lat="29.21259" lon="-13.48117">
        <ele>440</ele>
        <time>2021-07-03 13:33:33</time>
      </trkpt>
      <trkpt lat="29.21256" lon="-13.48116">
        <ele>439.8</ele>
        <time>2021-07-03 13:33:34</time>
      </trkpt>
      <trkpt lat="29.21254" lon="-13.48115">
        <ele>439.8</ele>
        <time>2021-07-03 13:34:06</time>
      </trkpt>
      <trkpt lat="29.21252" lon="-13.48113">
        <ele>439.8</ele>
        <time>2021-07-03 13:34:07</time>
      </trkpt>
      <trkpt lat="29.2125" lon="-13.48112">
        <ele>439.4</ele>
        <time>2021-07-03 13:34:08</time>
      </trkpt>
      <trkpt lat="29.21248" lon="-13.4811">
        <ele>439</ele>
        <time>2021-07-03 13:34:09</time>
      </trkpt>
      <trkpt lat="29.21247" lon="-13.48109">
        <ele>439</ele>
        <time>2021-07-03 13:34:13</time>
      </trkpt>
      <trkpt lat="29.21246" lon="-13.48109">
        <ele>438.6</ele>
        <time>2021-07-03 13:34:14</time>
      </trkpt>
      <trkpt lat="29.21246" lon="-13.48109">
        <ele>438.6</ele>
        <time>2021-07-03 13:34:15</time>
      </trkpt>
      <trkpt lat="29.21246" lon="-13.48108">
        <ele>438.4</ele>
        <time>2021-07-03 13:34:16</time>
      </trkpt>
      <trkpt lat="29.21246" lon="-13.48108">
        <ele>438.4</ele>
        <time>2021-07-03 13:34:17</time>
      </trkpt>
      <trkpt lat="29.21246" lon="-13.48108">
        <ele>438.4</ele>
        <time>2021-07-03 13:34:18</time>
      </trkpt>
      <trkpt lat="29.21244" lon="-13.4811">
        <ele>437.8</ele>
        <time>2021-07-03 13:34:19</time>
      </trkpt>
      <trkpt lat="29.21244" lon="-13.48111">
        <ele>437.8</ele>
        <time>2021-07-03 13:34:20</time>
      </trkpt>
      <trkpt lat="29.21243" lon="-13.48112">
        <ele>437.8</ele>
        <time>2021-07-03 13:34:21</time>
      </trkpt>
      <trkpt lat="29.21242" lon="-13.48113">
        <ele>437.8</ele>
        <time>2021-07-03 13:34:22</time>
      </trkpt>
      <trkpt lat="29.21241" lon="-13.48114">
        <ele>437.8</ele>
        <time>2021-07-03 13:34:23</time>
      </trkpt>
      <trkpt lat="29.2124" lon="-13.48115">
        <ele>437.8</ele>
        <time>2021-07-03 13:34:24</time>
      </trkpt>
      <trkpt lat="29.2124" lon="-13.48116">
        <ele>437.8</ele>
        <time>2021-07-03 13:34:25</time>
      </trkpt>
      <trkpt lat="29.21239" lon="-13.48117">
        <ele>437.8</ele>
        <time>2021-07-03 13:34:26</time>
      </trkpt>
      <trkpt lat="29.21239" lon="-13.48118">
        <ele>437.8</ele>
        <time>2021-07-03 13:34:27</time>
      </trkpt>
      <trkpt lat="29.21238" lon="-13.48118">
        <ele>437.8</ele>
        <time>2021-07-03 13:34:28</time>
      </trkpt>
      <trkpt lat="29.21238" lon="-13.48118">
        <ele>437.8</ele>
        <time>2021-07-03 13:34:29</time>
      </trkpt>
      <trkpt lat="29.21238" lon="-13.48118">
        <ele>437.8</ele>
        <time>2021-07-03 13:34:30</time>
      </trkpt>
      <trkpt lat="29.21238" lon="-13.48118">
        <ele>437.8</ele>
        <time>2021-07-03 13:34:31</time>
      </trkpt>
      <trkpt lat="29.21238" lon="-13.48118">
        <ele>437.6</ele>
        <time>2021-07-03 13:34:38</time>
      </trkpt>
      <trkpt lat="29.21235" lon="-13.48119">
        <ele>438.4</ele>
        <time>2021-07-03 13:34:39</time>
      </trkpt>
      <trkpt lat="29.21232" lon="-13.4812">
        <ele>438</ele>
        <time>2021-07-03 13:34:40</time>
      </trkpt>
      <trkpt lat="29.21229" lon="-13.48121">
        <ele>438</ele>
        <time>2021-07-03 13:34:41</time>
      </trkpt>
      <trkpt lat="29.21225" lon="-13.48122">
        <ele>437.6</ele>
        <time>2021-07-03 13:34:42</time>
      </trkpt>
      <trkpt lat="29.2122" lon="-13.48122">
        <ele>437.2</ele>
        <time>2021-07-03 13:34:43</time>
      </trkpt>
      <trkpt lat="29.21215" lon="-13.48121">
        <ele>437</ele>
        <time>2021-07-03 13:34:44</time>
      </trkpt>
      <trkpt lat="29.21209" lon="-13.48121">
        <ele>437</ele>
        <time>2021-07-03 13:34:45</time>
      </trkpt>
      <trkpt lat="29.21203" lon="-13.48121">
        <ele>436.6</ele>
        <time>2021-07-03 13:34:46</time>
      </trkpt>
      <trkpt lat="29.21196" lon="-13.4812">
        <ele>436.4</ele>
        <time>2021-07-03 13:34:47</time>
      </trkpt>
      <trkpt lat="29.21189" lon="-13.4812">
        <ele>436.4</ele>
        <time>2021-07-03 13:34:48</time>
      </trkpt>
      <trkpt lat="29.21182" lon="-13.4812">
        <ele>436</ele>
        <time>2021-07-03 13:34:49</time>
      </trkpt>
      <trkpt lat="29.21173" lon="-13.48121">
        <ele>435.8</ele>
        <time>2021-07-03 13:34:50</time>
      </trkpt>
      <trkpt lat="29.21165" lon="-13.48122">
        <ele>435.4</ele>
        <time>2021-07-03 13:34:51</time>
      </trkpt>
      <trkpt lat="29.21156" lon="-13.48123">
        <ele>435.2</ele>
        <time>2021-07-03 13:35:29</time>
      </trkpt>
      <trkpt lat="29.21147" lon="-13.48126">
        <ele>434.8</ele>
        <time>2021-07-03 13:35:30</time>
      </trkpt>
      <trkpt lat="29.21138" lon="-13.48128">
        <ele>434.6</ele>
        <time>2021-07-03 13:35:31</time>
      </trkpt>
      <trkpt lat="29.21129" lon="-13.48131">
        <ele>434.2</ele>
        <time>2021-07-03 13:35:32</time>
      </trkpt>
      <trkpt lat="29.21119" lon="-13.48134">
        <ele>433.8</ele>
        <time>2021-07-03 13:35:33</time>
      </trkpt>
      <trkpt lat="29.2111" lon="-13.48138">
        <ele>433.4</ele>
        <time>2021-07-03 13:35:34</time>
      </trkpt>
      <trkpt lat="29.211" lon="-13.48141">
        <ele>433.2</ele>
        <time>2021-07-03 13:35:35</time>
      </trkpt>
      <trkpt lat="29.21089" lon="-13.48145">
        <ele>432.8</ele>
        <time>2021-07-03 13:35:36</time>
      </trkpt>
      <trkpt lat="29.21079" lon="-13.48148">
        <ele>432.4</ele>
        <time>2021-07-03 13:35:37</time>
      </trkpt>
      <trkpt lat="29.21069" lon="-13.48152">
        <ele>432</ele>
        <time>2021-07-03 13:35:38</time>
      </trkpt>
      <trkpt lat="29.21058" lon="-13.48156">
        <ele>431.6</ele>
        <time>2021-07-03 13:35:39</time>
      </trkpt>
      <trkpt lat="29.21048" lon="-13.4816">
        <ele>431.2</ele>
        <time>2021-07-03 13:35:40</time>
      </trkpt>
      <trkpt lat="29.21037" lon="-13.48164">
        <ele>430.8</ele>
        <time>2021-07-03 13:35:41</time>
      </trkpt>
      <trkpt lat="29.21026" lon="-13.48168">
        <ele>430.2</ele>
        <time>2021-07-03 13:35:42</time>
      </trkpt>
      <trkpt lat="29.21015" lon="-13.48172">
        <ele>429.8</ele>
        <time>2021-07-03 13:35:43</time>
      </trkpt>
      <trkpt lat="29.21005" lon="-13.48176">
        <ele>429.4</ele>
        <time>2021-07-03 13:35:44</time>
      </trkpt>
      <trkpt lat="29.20995" lon="-13.4818">
        <ele>428.8</ele>
        <time>2021-07-03 13:35:45</time>
      </trkpt>
      <trkpt lat="29.20984" lon="-13.48184">
        <ele>428.4</ele>
        <time>2021-07-03 13:35:46</time>
      </trkpt>
      <trkpt lat="29.20973" lon="-13.48188">
        <ele>428</ele>
        <time>2021-07-03 13:35:47</time>
      </trkpt>
      <trkpt lat="29.20962" lon="-13.48192">
        <ele>427.4</ele>
        <time>2021-07-03 13:35:48</time>
      </trkpt>
      <trkpt lat="29.2095" lon="-13.48196">
        <ele>427</ele>
        <time>2021-07-03 13:35:49</time>
      </trkpt>
      <trkpt lat="29.20939" lon="-13.482">
        <ele>426.6</ele>
        <time>2021-07-03 13:35:50</time>
      </trkpt>
      <trkpt lat="29.20928" lon="-13.48203">
        <ele>426</ele>
        <time>2021-07-03 13:35:51</time>
      </trkpt>
      <trkpt lat="29.20916" lon="-13.48205">
        <ele>425.6</ele>
        <time>2021-07-03 13:35:52</time>
      </trkpt>
      <trkpt lat="29.20904" lon="-13.48208">
        <ele>425.2</ele>
        <time>2021-07-03 13:35:53</time>
      </trkpt>
      <trkpt lat="29.20893" lon="-13.48209">
        <ele>425</ele>
        <time>2021-07-03 13:35:54</time>
      </trkpt>
      <trkpt lat="29.20881" lon="-13.4821">
        <ele>424.6</ele>
        <time>2021-07-03 13:35:55</time>
      </trkpt>
      <trkpt lat="29.20869" lon="-13.48211">
        <ele>424.6</ele>
        <time>2021-07-03 13:35:56</time>
      </trkpt>
      <trkpt lat="29.20858" lon="-13.48211">
        <ele>424.2</ele>
        <time>2021-07-03 13:35:57</time>
      </trkpt>
      <trkpt lat="29.20847" lon="-13.4821">
        <ele>423.8</ele>
        <time>2021-07-03 13:35:58</time>
      </trkpt>
      <trkpt lat="29.20835" lon="-13.48208">
        <ele>423.6</ele>
        <time>2021-07-03 13:35:59</time>
      </trkpt>
      <trkpt lat="29.20824" lon="-13.48206">
        <ele>423.4</ele>
        <time>2021-07-03 13:36:00</time>
      </trkpt>
      <trkpt lat="29.20813" lon="-13.48204">
        <ele>423</ele>
        <time>2021-07-03 13:36:01</time>
      </trkpt>
      <trkpt lat="29.20802" lon="-13.48201">
        <ele>422.6</ele>
        <time>2021-07-03 13:36:02</time>
      </trkpt>
      <trkpt lat="29.2079" lon="-13.48198">
        <ele>422.2</ele>
        <time>2021-07-03 13:36:03</time>
      </trkpt>
      <trkpt lat="29.20779" lon="-13.48195">
        <ele>421.6</ele>
        <time>2021-07-03 13:36:04</time>
      </trkpt>
      <trkpt lat="29.20769" lon="-13.48192">
        <ele>421</ele>
        <time>2021-07-03 13:36:05</time>
      </trkpt>
      <trkpt lat="29.20758" lon="-13.48189">
        <ele>420.2</ele>
        <time>2021-07-03 13:36:06</time>
      </trkpt>
      <trkpt lat="29.20748" lon="-13.48186">
        <ele>419.6</ele>
        <time>2021-07-03 13:36:07</time>
      </trkpt>
      <trkpt lat="29.20739" lon="-13.48184">
        <ele>418.8</ele>
        <time>2021-07-03 13:36:08</time>
      </trkpt>
      <trkpt lat="29.2073" lon="-13.48181">
        <ele>417.8</ele>
        <time>2021-07-03 13:36:09</time>
      </trkpt>
      <trkpt lat="29.20722" lon="-13.4818">
        <ele>417</ele>
        <time>2021-07-03 13:36:10</time>
      </trkpt>
      <trkpt lat="29.20713" lon="-13.48181">
        <ele>416.2</ele>
        <time>2021-07-03 13:36:11</time>
      </trkpt>
      <trkpt lat="29.20704" lon="-13.48183">
        <ele>415.2</ele>
        <time>2021-07-03 13:36:12</time>
      </trkpt>
      <trkpt lat="29.20695" lon="-13.48187">
        <ele>414.6</ele>
        <time>2021-07-03 13:36:13</time>
      </trkpt>
      <trkpt lat="29.20687" lon="-13.48191">
        <ele>414</ele>
        <time>2021-07-03 13:36:14</time>
      </trkpt>
      <trkpt lat="29.20678" lon="-13.48194">
        <ele>413.4</ele>
        <time>2021-07-03 13:36:15</time>
      </trkpt>
      <trkpt lat="29.20669" lon="-13.48198">
        <ele>412.8</ele>
        <time>2021-07-03 13:36:16</time>
      </trkpt>
      <trkpt lat="29.20661" lon="-13.48201">
        <ele>412.4</ele>
        <time>2021-07-03 13:36:17</time>
      </trkpt>
      <trkpt lat="29.20653" lon="-13.48205">
        <ele>412.2</ele>
        <time>2021-07-03 13:36:18</time>
      </trkpt>
      <trkpt lat="29.20645" lon="-13.48209">
        <ele>411.8</ele>
        <time>2021-07-03 13:36:19</time>
      </trkpt>
      <trkpt lat="29.20637" lon="-13.48212">
        <ele>411.6</ele>
        <time>2021-07-03 13:36:20</time>
      </trkpt>
      <trkpt lat="29.2063" lon="-13.48215">
        <ele>411.8</ele>
        <time>2021-07-03 13:36:21</time>
      </trkpt>
      <trkpt lat="29.20624" lon="-13.48218">
        <ele>411.8</ele>
        <time>2021-07-03 13:36:22</time>
      </trkpt>
      <trkpt lat="29.20618" lon="-13.4822">
        <ele>411.8</ele>
        <time>2021-07-03 13:36:23</time>
      </trkpt>
      <trkpt lat="29.20613" lon="-13.48224">
        <ele>412</ele>
        <time>2021-07-03 13:36:24</time>
      </trkpt>
      <trkpt lat="29.20608" lon="-13.48227">
        <ele>412</ele>
        <time>2021-07-03 13:36:25</time>
      </trkpt>
      <trkpt lat="29.20603" lon="-13.48231">
        <ele>412</ele>
        <time>2021-07-03 13:36:26</time>
      </trkpt>
      <trkpt lat="29.20598" lon="-13.48234">
        <ele>412.4</ele>
        <time>2021-07-03 13:36:27</time>
      </trkpt>
      <trkpt lat="29.20593" lon="-13.48236">
        <ele>411.4</ele>
        <time>2021-07-03 13:36:28</time>
      </trkpt>
      <trkpt lat="29.20588" lon="-13.48239">
        <ele>411.4</ele>
        <time>2021-07-03 13:36:29</time>
      </trkpt>
      <trkpt lat="29.20583" lon="-13.48242">
        <ele>411.8</ele>
        <time>2021-07-03 13:36:30</time>
      </trkpt>
      <trkpt lat="29.20578" lon="-13.48245">
        <ele>411.8</ele>
        <time>2021-07-03 13:36:31</time>
      </trkpt>
      <trkpt lat="29.20574" lon="-13.48248">
        <ele>411.8</ele>
        <time>2021-07-03 13:36:32</time>
      </trkpt>
      <trkpt lat="29.20569" lon="-13.48251">
        <ele>411.6</ele>
        <time>2021-07-03 13:36:33</time>
      </trkpt>
      <trkpt lat="29.20565" lon="-13.48253">
        <ele>411.6</ele>
        <time>2021-07-03 13:36:34</time>
      </trkpt>
      <trkpt lat="29.20561" lon="-13.48256">
        <ele>411.6</ele>
        <time>2021-07-03 13:36:35</time>
      </trkpt>
      <trkpt lat="29.20556" lon="-13.48259">
        <ele>411.6</ele>
        <time>2021-07-03 13:36:36</time>
      </trkpt>
      <trkpt lat="29.20552" lon="-13.48261">
        <ele>411.4</ele>
        <time>2021-07-03 13:36:37</time>
      </trkpt>
      <trkpt lat="29.20547" lon="-13.48264">
        <ele>411.4</ele>
        <time>2021-07-03 13:36:38</time>
      </trkpt>
      <trkpt lat="29.20543" lon="-13.48268">
        <ele>411</ele>
        <time>2021-07-03 13:36:39</time>
      </trkpt>
      <trkpt lat="29.20538" lon="-13.48271">
        <ele>411</ele>
        <time>2021-07-03 13:36:40</time>
      </trkpt>
      <trkpt lat="29.20534" lon="-13.48275">
        <ele>411</ele>
        <time>2021-07-03 13:36:41</time>
      </trkpt>
      <trkpt lat="29.20528" lon="-13.48277">
        <ele>410.6</ele>
        <time>2021-07-03 13:36:42</time>
      </trkpt>
      <trkpt lat="29.20523" lon="-13.4828">
        <ele>410.6</ele>
        <time>2021-07-03 13:36:43</time>
      </trkpt>
      <trkpt lat="29.20517" lon="-13.48282">
        <ele>410.4</ele>
        <time>2021-07-03 13:36:44</time>
      </trkpt>
      <trkpt lat="29.20511" lon="-13.48283">
        <ele>410.2</ele>
        <time>2021-07-03 13:36:45</time>
      </trkpt>
      <trkpt lat="29.20505" lon="-13.48284">
        <ele>410.2</ele>
        <time>2021-07-03 13:36:46</time>
      </trkpt>
      <trkpt lat="29.20498" lon="-13.48285">
        <ele>409.8</ele>
        <time>2021-07-03 13:36:47</time>
      </trkpt>
      <trkpt lat="29.20491" lon="-13.48285">
        <ele>409.8</ele>
        <time>2021-07-03 13:36:48</time>
      </trkpt>
      <trkpt lat="29.20484" lon="-13.48284">
        <ele>409.6</ele>
        <time>2021-07-03 13:36:49</time>
      </trkpt>
      <trkpt lat="29.20477" lon="-13.48284">
        <ele>409.2</ele>
        <time>2021-07-03 13:36:50</time>
      </trkpt>
      <trkpt lat="29.20469" lon="-13.48285">
        <ele>408.8</ele>
        <time>2021-07-03 13:36:51</time>
      </trkpt>
      <trkpt lat="29.20462" lon="-13.48286">
        <ele>408.8</ele>
        <time>2021-07-03 13:36:52</time>
      </trkpt>
      <trkpt lat="29.20454" lon="-13.48287">
        <ele>408.2</ele>
        <time>2021-07-03 13:36:53</time>
      </trkpt>
      <trkpt lat="29.20447" lon="-13.48288">
        <ele>408</ele>
        <time>2021-07-03 13:36:54</time>
      </trkpt>
      <trkpt lat="29.2044" lon="-13.4829">
        <ele>407.6</ele>
        <time>2021-07-03 13:36:55</time>
      </trkpt>
      <trkpt lat="29.20433" lon="-13.48293">
        <ele>407.2</ele>
        <time>2021-07-03 13:36:56</time>
      </trkpt>
      <trkpt lat="29.20426" lon="-13.48295">
        <ele>406.8</ele>
        <time>2021-07-03 13:36:57</time>
      </trkpt>
      <trkpt lat="29.20419" lon="-13.48297">
        <ele>406.4</ele>
        <time>2021-07-03 13:36:58</time>
      </trkpt>
      <trkpt lat="29.20411" lon="-13.48299">
        <ele>406.2</ele>
        <time>2021-07-03 13:36:59</time>
      </trkpt>
      <trkpt lat="29.20404" lon="-13.48301">
        <ele>405.8</ele>
        <time>2021-07-03 13:37:00</time>
      </trkpt>
      <trkpt lat="29.20398" lon="-13.48303">
        <ele>405.4</ele>
        <time>2021-07-03 13:37:01</time>
      </trkpt>
      <trkpt lat="29.20391" lon="-13.48304">
        <ele>405</ele>
        <time>2021-07-03 13:37:02</time>
      </trkpt>
      <trkpt lat="29.20384" lon="-13.48306">
        <ele>404.8</ele>
        <time>2021-07-03 13:37:03</time>
      </trkpt>
      <trkpt lat="29.20377" lon="-13.48308">
        <ele>404.4</ele>
        <time>2021-07-03 13:37:04</time>
      </trkpt>
      <trkpt lat="29.2037" lon="-13.4831">
        <ele>404</ele>
        <time>2021-07-03 13:37:05</time>
      </trkpt>
      <trkpt lat="29.20363" lon="-13.48311">
        <ele>403.6</ele>
        <time>2021-07-03 13:37:06</time>
      </trkpt>
      <trkpt lat="29.20356" lon="-13.48312">
        <ele>403.6</ele>
        <time>2021-07-03 13:37:07</time>
      </trkpt>
      <trkpt lat="29.20349" lon="-13.48314">
        <ele>403.2</ele>
        <time>2021-07-03 13:37:08</time>
      </trkpt>
      <trkpt lat="29.20342" lon="-13.48315">
        <ele>403.2</ele>
        <time>2021-07-03 13:37:09</time>
      </trkpt>
      <trkpt lat="29.20335" lon="-13.48316">
        <ele>402.6</ele>
        <time>2021-07-03 13:37:10</time>
      </trkpt>
      <trkpt lat="29.20327" lon="-13.48317">
        <ele>402.2</ele>
        <time>2021-07-03 13:37:11</time>
      </trkpt>
      <trkpt lat="29.2032" lon="-13.48317">
        <ele>401.6</ele>
        <time>2021-07-03 13:37:12</time>
      </trkpt>
      <trkpt lat="29.20313" lon="-13.48318">
        <ele>401</ele>
        <time>2021-07-03 13:37:13</time>
      </trkpt>
      <trkpt lat="29.20306" lon="-13.48319">
        <ele>401</ele>
        <time>2021-07-03 13:37:14</time>
      </trkpt>
      <trkpt lat="29.20299" lon="-13.4832">
        <ele>400.8</ele>
        <time>2021-07-03 13:37:15</time>
      </trkpt>
      <trkpt lat="29.20292" lon="-13.4832">
        <ele>400.2</ele>
        <time>2021-07-03 13:37:16</time>
      </trkpt>
      <trkpt lat="29.20285" lon="-13.48321">
        <ele>400.2</ele>
        <time>2021-07-03 13:37:17</time>
      </trkpt>
      <trkpt lat="29.20277" lon="-13.48322">
        <ele>400</ele>
        <time>2021-07-03 13:37:18</time>
      </trkpt>
      <trkpt lat="29.2027" lon="-13.48323">
        <ele>399.6</ele>
        <time>2021-07-03 13:37:19</time>
      </trkpt>
      <trkpt lat="29.20262" lon="-13.48323">
        <ele>399</ele>
        <time>2021-07-03 13:37:20</time>
      </trkpt>
      <trkpt lat="29.20256" lon="-13.48324">
        <ele>399.4</ele>
        <time>2021-07-03 13:37:21</time>
      </trkpt>
      <trkpt lat="29.20249" lon="-13.48324">
        <ele>398.6</ele>
        <time>2021-07-03 13:37:22</time>
      </trkpt>
      <trkpt lat="29.20242" lon="-13.48326">
        <ele>397.8</ele>
        <time>2021-07-03 13:37:23</time>
      </trkpt>
      <trkpt lat="29.20236" lon="-13.48327">
        <ele>397.6</ele>
        <time>2021-07-03 13:37:24</time>
      </trkpt>
      <trkpt lat="29.20229" lon="-13.48329">
        <ele>397</ele>
        <time>2021-07-03 13:37:25</time>
      </trkpt>
      <trkpt lat="29.20223" lon="-13.4833">
        <ele>396.4</ele>
        <time>2021-07-03 13:37:26</time>
      </trkpt>
      <trkpt lat="29.20217" lon="-13.48332">
        <ele>395.6</ele>
        <time>2021-07-03 13:37:27</time>
      </trkpt>
      <trkpt lat="29.20211" lon="-13.48333">
        <ele>395</ele>
        <time>2021-07-03 13:37:28</time>
      </trkpt>
      <trkpt lat="29.20205" lon="-13.48335">
        <ele>394.6</ele>
        <time>2021-07-03 13:37:29</time>
      </trkpt>
      <trkpt lat="29.20199" lon="-13.48337">
        <ele>394</ele>
        <time>2021-07-03 13:37:30</time>
      </trkpt>
      <trkpt lat="29.20194" lon="-13.48339">
        <ele>393.8</ele>
        <time>2021-07-03 13:37:31</time>
      </trkpt>
      <trkpt lat="29.2019" lon="-13.4834">
        <ele>393.2</ele>
        <time>2021-07-03 13:37:32</time>
      </trkpt>
      <trkpt lat="29.20186" lon="-13.48341">
        <ele>392.6</ele>
        <time>2021-07-03 13:37:33</time>
      </trkpt>
      <trkpt lat="29.20182" lon="-13.48343">
        <ele>392</ele>
        <time>2021-07-03 13:37:34</time>
      </trkpt>
      <trkpt lat="29.20178" lon="-13.48345">
        <ele>391.8</ele>
        <time>2021-07-03 13:37:35</time>
      </trkpt>
      <trkpt lat="29.20173" lon="-13.48347">
        <ele>391.2</ele>
        <time>2021-07-03 13:37:36</time>
      </trkpt>
      <trkpt lat="29.20168" lon="-13.48348">
        <ele>391</ele>
        <time>2021-07-03 13:37:37</time>
      </trkpt>
      <trkpt lat="29.20162" lon="-13.48349">
        <ele>390.6</ele>
        <time>2021-07-03 13:37:38</time>
      </trkpt>
      <trkpt lat="29.20157" lon="-13.48349">
        <ele>390.4</ele>
        <time>2021-07-03 13:37:39</time>
      </trkpt>
      <trkpt lat="29.2015" lon="-13.48349">
        <ele>390</ele>
        <time>2021-07-03 13:37:40</time>
      </trkpt>
      <trkpt lat="29.20144" lon="-13.4835">
        <ele>390.6</ele>
        <time>2021-07-03 13:37:41</time>
      </trkpt>
      <trkpt lat="29.20138" lon="-13.4835">
        <ele>390.2</ele>
        <time>2021-07-03 13:37:42</time>
      </trkpt>
      <trkpt lat="29.20132" lon="-13.4835">
        <ele>389.8</ele>
        <time>2021-07-03 13:37:43</time>
      </trkpt>
      <trkpt lat="29.20125" lon="-13.4835">
        <ele>389.4</ele>
        <time>2021-07-03 13:37:44</time>
      </trkpt>
      <trkpt lat="29.20118" lon="-13.48351">
        <ele>389</ele>
        <time>2021-07-03 13:37:45</time>
      </trkpt>
      <trkpt lat="29.20111" lon="-13.48352">
        <ele>388.6</ele>
        <time>2021-07-03 13:37:46</time>
      </trkpt>
      <trkpt lat="29.20104" lon="-13.48353">
        <ele>388.2</ele>
        <time>2021-07-03 13:37:47</time>
      </trkpt>
      <trkpt lat="29.20097" lon="-13.48353">
        <ele>388</ele>
        <time>2021-07-03 13:37:48</time>
      </trkpt>
      <trkpt lat="29.2009" lon="-13.48354">
        <ele>387.6</ele>
        <time>2021-07-03 13:37:49</time>
      </trkpt>
      <trkpt lat="29.20083" lon="-13.48355">
        <ele>387.6</ele>
        <time>2021-07-03 13:37:50</time>
      </trkpt>
      <trkpt lat="29.20076" lon="-13.48357">
        <ele>387.2</ele>
        <time>2021-07-03 13:37:51</time>
      </trkpt>
      <trkpt lat="29.20068" lon="-13.48358">
        <ele>387</ele>
        <time>2021-07-03 13:37:52</time>
      </trkpt>
      <trkpt lat="29.20062" lon="-13.4836">
        <ele>386.6</ele>
        <time>2021-07-03 13:37:53</time>
      </trkpt>
      <trkpt lat="29.20055" lon="-13.48363">
        <ele>386.4</ele>
        <time>2021-07-03 13:37:54</time>
      </trkpt>
      <trkpt lat="29.20048" lon="-13.48366">
        <ele>386.4</ele>
        <time>2021-07-03 13:37:55</time>
      </trkpt>
      <trkpt lat="29.20042" lon="-13.48368">
        <ele>386.2</ele>
        <time>2021-07-03 13:37:56</time>
      </trkpt>
      <trkpt lat="29.20035" lon="-13.48371">
        <ele>385.8</ele>
        <time>2021-07-03 13:37:57</time>
      </trkpt>
      <trkpt lat="29.20028" lon="-13.48373">
        <ele>385.8</ele>
        <time>2021-07-03 13:37:58</time>
      </trkpt>
      <trkpt lat="29.20021" lon="-13.48376">
        <ele>385.6</ele>
        <time>2021-07-03 13:37:59</time>
      </trkpt>
      <trkpt lat="29.20014" lon="-13.48378">
        <ele>385.6</ele>
        <time>2021-07-03 13:38:00</time>
      </trkpt>
      <trkpt lat="29.20007" lon="-13.4838">
        <ele>385.4</ele>
        <time>2021-07-03 13:38:01</time>
      </trkpt>
      <trkpt lat="29.2" lon="-13.48382">
        <ele>385.4</ele>
        <time>2021-07-03 13:38:02</time>
      </trkpt>
      <trkpt lat="29.19993" lon="-13.48384">
        <ele>385.4</ele>
        <time>2021-07-03 13:38:03</time>
      </trkpt>
      <trkpt lat="29.19986" lon="-13.48387">
        <ele>384.8</ele>
        <time>2021-07-03 13:38:04</time>
      </trkpt>
      <trkpt lat="29.19979" lon="-13.48389">
        <ele>384.8</ele>
        <time>2021-07-03 13:38:05</time>
      </trkpt>
      <trkpt lat="29.19972" lon="-13.48391">
        <ele>384.8</ele>
        <time>2021-07-03 13:38:06</time>
      </trkpt>
      <trkpt lat="29.19964" lon="-13.48393">
        <ele>384.4</ele>
        <time>2021-07-03 13:38:07</time>
      </trkpt>
      <trkpt lat="29.19957" lon="-13.48395">
        <ele>384.4</ele>
        <time>2021-07-03 13:38:08</time>
      </trkpt>
      <trkpt lat="29.19951" lon="-13.48398">
        <ele>384.2</ele>
        <time>2021-07-03 13:38:09</time>
      </trkpt>
      <trkpt lat="29.19944" lon="-13.484">
        <ele>384.2</ele>
        <time>2021-07-03 13:38:10</time>
      </trkpt>
      <trkpt lat="29.19937" lon="-13.48402">
        <ele>383.8</ele>
        <time>2021-07-03 13:38:11</time>
      </trkpt>
      <trkpt lat="29.1993" lon="-13.48404">
        <ele>383.6</ele>
        <time>2021-07-03 13:38:12</time>
      </trkpt>
      <trkpt lat="29.19923" lon="-13.48406">
        <ele>383.6</ele>
        <time>2021-07-03 13:38:13</time>
      </trkpt>
      <trkpt lat="29.19917" lon="-13.48408">
        <ele>383.6</ele>
        <time>2021-07-03 13:38:14</time>
      </trkpt>
      <trkpt lat="29.1991" lon="-13.4841">
        <ele>383.2</ele>
        <time>2021-07-03 13:38:15</time>
      </trkpt>
      <trkpt lat="29.19903" lon="-13.48412">
        <ele>383.2</ele>
        <time>2021-07-03 13:38:16</time>
      </trkpt>
      <trkpt lat="29.19896" lon="-13.48415">
        <ele>382.8</ele>
        <time>2021-07-03 13:38:17</time>
      </trkpt>
      <trkpt lat="29.19889" lon="-13.48417">
        <ele>382.8</ele>
        <time>2021-07-03 13:38:18</time>
      </trkpt>
      <trkpt lat="29.19882" lon="-13.48419">
        <ele>382.8</ele>
        <time>2021-07-03 13:38:19</time>
      </trkpt>
      <trkpt lat="29.19875" lon="-13.48421">
        <ele>382.6</ele>
        <time>2021-07-03 13:38:20</time>
      </trkpt>
      <trkpt lat="29.19868" lon="-13.48422">
        <ele>382.6</ele>
        <time>2021-07-03 13:38:21</time>
      </trkpt>
      <trkpt lat="29.1986" lon="-13.48423">
        <ele>382.4</ele>
        <time>2021-07-03 13:38:22</time>
      </trkpt>
      <trkpt lat="29.19852" lon="-13.48423">
        <ele>382.4</ele>
        <time>2021-07-03 13:38:23</time>
      </trkpt>
      <trkpt lat="29.19844" lon="-13.48423">
        <ele>382</ele>
        <time>2021-07-03 13:38:24</time>
      </trkpt>
      <trkpt lat="29.19836" lon="-13.48422">
        <ele>381.8</ele>
        <time>2021-07-03 13:38:25</time>
      </trkpt>
      <trkpt lat="29.19827" lon="-13.48421">
        <ele>381.4</ele>
        <time>2021-07-03 13:38:26</time>
      </trkpt>
      <trkpt lat="29.1982" lon="-13.4842">
        <ele>381.2</ele>
        <time>2021-07-03 13:38:27</time>
      </trkpt>
      <trkpt lat="29.19812" lon="-13.48419">
        <ele>380.8</ele>
        <time>2021-07-03 13:38:28</time>
      </trkpt>
      <trkpt lat="29.19804" lon="-13.48417">
        <ele>380.8</ele>
        <time>2021-07-03 13:38:29</time>
      </trkpt>
      <trkpt lat="29.19795" lon="-13.48415">
        <ele>380.4</ele>
        <time>2021-07-03 13:38:30</time>
      </trkpt>
      <trkpt lat="29.19787" lon="-13.48413">
        <ele>380</ele>
        <time>2021-07-03 13:38:31</time>
      </trkpt>
      <trkpt lat="29.19779" lon="-13.4841">
        <ele>379.8</ele>
        <time>2021-07-03 13:38:32</time>
      </trkpt>
      <trkpt lat="29.19771" lon="-13.48406">
        <ele>379.4</ele>
        <time>2021-07-03 13:38:33</time>
      </trkpt>
      <trkpt lat="29.19764" lon="-13.48403">
        <ele>379.2</ele>
        <time>2021-07-03 13:38:34</time>
      </trkpt>
      <trkpt lat="29.19756" lon="-13.484">
        <ele>378.6</ele>
        <time>2021-07-03 13:38:35</time>
      </trkpt>
      <trkpt lat="29.19749" lon="-13.48397">
        <ele>378.2</ele>
        <time>2021-07-03 13:38:36</time>
      </trkpt>
      <trkpt lat="29.19742" lon="-13.48392">
        <ele>377.8</ele>
        <time>2021-07-03 13:38:37</time>
      </trkpt>
      <trkpt lat="29.19735" lon="-13.48387">
        <ele>377.2</ele>
        <time>2021-07-03 13:38:38</time>
      </trkpt>
      <trkpt lat="29.19728" lon="-13.48381">
        <ele>376.8</ele>
        <time>2021-07-03 13:38:39</time>
      </trkpt>
      <trkpt lat="29.19722" lon="-13.48375">
        <ele>376.4</ele>
        <time>2021-07-03 13:38:40</time>
      </trkpt>
      <trkpt lat="29.19716" lon="-13.48369">
        <ele>375.8</ele>
        <time>2021-07-03 13:38:41</time>
      </trkpt>
      <trkpt lat="29.19711" lon="-13.48363">
        <ele>375.2</ele>
        <time>2021-07-03 13:38:42</time>
      </trkpt>
      <trkpt lat="29.19707" lon="-13.48358">
        <ele>374.8</ele>
        <time>2021-07-03 13:38:43</time>
      </trkpt>
      <trkpt lat="29.19704" lon="-13.48354">
        <ele>374.2</ele>
        <time>2021-07-03 13:38:44</time>
      </trkpt>
      <trkpt lat="29.19701" lon="-13.48351">
        <ele>373.6</ele>
        <time>2021-07-03 13:38:45</time>
      </trkpt>
      <trkpt lat="29.19698" lon="-13.48347">
        <ele>373</ele>
        <time>2021-07-03 13:38:46</time>
      </trkpt>
      <trkpt lat="29.19695" lon="-13.48345">
        <ele>372.2</ele>
        <time>2021-07-03 13:38:47</time>
      </trkpt>
      <trkpt lat="29.19678" lon="-13.48335">
        <ele>368</ele>
        <time>2021-07-03 13:38:48</time>
      </trkpt>
      <trkpt lat="29.19674" lon="-13.48333">
        <ele>367.2</ele>
        <time>2021-07-03 13:38:49</time>
      </trkpt>
      <trkpt lat="29.1967" lon="-13.48331">
        <ele>366.4</ele>
        <time>2021-07-03 13:38:50</time>
      </trkpt>
      <trkpt lat="29.19666" lon="-13.48329">
        <ele>365.6</ele>
        <time>2021-07-03 13:38:51</time>
      </trkpt>
      <trkpt lat="29.19662" lon="-13.48326">
        <ele>364.8</ele>
        <time>2021-07-03 13:38:52</time>
      </trkpt>
      <trkpt lat="29.19658" lon="-13.48324">
        <ele>364</ele>
        <time>2021-07-03 13:38:53</time>
      </trkpt>
      <trkpt lat="29.19653" lon="-13.48321">
        <ele>363.4</ele>
        <time>2021-07-03 13:38:54</time>
      </trkpt>
      <trkpt lat="29.19648" lon="-13.4832">
        <ele>362.6</ele>
        <time>2021-07-03 13:38:55</time>
      </trkpt>
      <trkpt lat="29.19643" lon="-13.48318">
        <ele>362</ele>
        <time>2021-07-03 13:38:56</time>
      </trkpt>
      <trkpt lat="29.19638" lon="-13.48317">
        <ele>361.2</ele>
        <time>2021-07-03 13:38:57</time>
      </trkpt>
      <trkpt lat="29.19632" lon="-13.48317">
        <ele>360.6</ele>
        <time>2021-07-03 13:38:58</time>
      </trkpt>
      <trkpt lat="29.19627" lon="-13.48318">
        <ele>360</ele>
        <time>2021-07-03 13:38:59</time>
      </trkpt>
      <trkpt lat="29.19622" lon="-13.48318">
        <ele>359.4</ele>
        <time>2021-07-03 13:39:00</time>
      </trkpt>
      <trkpt lat="29.19616" lon="-13.48322">
        <ele>359</ele>
        <time>2021-07-03 13:39:01</time>
      </trkpt>
      <trkpt lat="29.19611" lon="-13.48324">
        <ele>358.4</ele>
        <time>2021-07-03 13:39:02</time>
      </trkpt>
      <trkpt lat="29.19605" lon="-13.48326">
        <ele>358</ele>
        <time>2021-07-03 13:39:03</time>
      </trkpt>
      <trkpt lat="29.196" lon="-13.48328">
        <ele>357.6</ele>
        <time>2021-07-03 13:39:04</time>
      </trkpt>
      <trkpt lat="29.19595" lon="-13.4833">
        <ele>357.2</ele>
        <time>2021-07-03 13:39:05</time>
      </trkpt>
      <trkpt lat="29.1959" lon="-13.48333">
        <ele>357</ele>
        <time>2021-07-03 13:39:06</time>
      </trkpt>
      <trkpt lat="29.19585" lon="-13.48335">
        <ele>357</ele>
        <time>2021-07-03 13:39:07</time>
      </trkpt>
      <trkpt lat="29.19575" lon="-13.48342">
        <ele>356.4</ele>
        <time>2021-07-03 13:39:08</time>
      </trkpt>
      <trkpt lat="29.19574" lon="-13.48346">
        <ele>356.2</ele>
        <time>2021-07-03 13:39:09</time>
      </trkpt>
      <trkpt lat="29.19573" lon="-13.4835">
        <ele>356.2</ele>
        <time>2021-07-03 13:39:10</time>
      </trkpt>
      <trkpt lat="29.19572" lon="-13.48355">
        <ele>356</ele>
        <time>2021-07-03 13:39:11</time>
      </trkpt>
      <trkpt lat="29.19572" lon="-13.48359">
        <ele>356</ele>
        <time>2021-07-03 13:39:12</time>
      </trkpt>
      <trkpt lat="29.19572" lon="-13.48364">
        <ele>356</ele>
        <time>2021-07-03 13:39:13</time>
      </trkpt>
      <trkpt lat="29.19572" lon="-13.48369">
        <ele>356</ele>
        <time>2021-07-03 13:39:14</time>
      </trkpt>
      <trkpt lat="29.19572" lon="-13.48375">
        <ele>356</ele>
        <time>2021-07-03 13:39:15</time>
      </trkpt>
      <trkpt lat="29.19572" lon="-13.48387">
        <ele>356.2</ele>
        <time>2021-07-03 13:39:16</time>
      </trkpt>
      <trkpt lat="29.19572" lon="-13.48393">
        <ele>356.2</ele>
        <time>2021-07-03 13:39:17</time>
      </trkpt>
      <trkpt lat="29.19572" lon="-13.484">
        <ele>356.2</ele>
        <time>2021-07-03 13:39:18</time>
      </trkpt>
      <trkpt lat="29.19572" lon="-13.48406">
        <ele>356.2</ele>
        <time>2021-07-03 13:39:19</time>
      </trkpt>
      <trkpt lat="29.19571" lon="-13.48413">
        <ele>356.2</ele>
        <time>2021-07-03 13:39:20</time>
      </trkpt>
      <trkpt lat="29.19571" lon="-13.4842">
        <ele>356.2</ele>
        <time>2021-07-03 13:39:21</time>
      </trkpt>
      <trkpt lat="29.19571" lon="-13.48428">
        <ele>356</ele>
        <time>2021-07-03 13:39:22</time>
      </trkpt>
      <trkpt lat="29.19571" lon="-13.48435">
        <ele>355.6</ele>
        <time>2021-07-03 13:39:23</time>
      </trkpt>
      <trkpt lat="29.1957" lon="-13.48442">
        <ele>355.6</ele>
        <time>2021-07-03 13:39:24</time>
      </trkpt>
      <trkpt lat="29.1957" lon="-13.48449">
        <ele>355.6</ele>
        <time>2021-07-03 13:39:25</time>
      </trkpt>
      <trkpt lat="29.19569" lon="-13.48456">
        <ele>355.4</ele>
        <time>2021-07-03 13:39:26</time>
      </trkpt>
      <trkpt lat="29.19568" lon="-13.48464">
        <ele>355.4</ele>
        <time>2021-07-03 13:39:27</time>
      </trkpt>
      <trkpt lat="29.19567" lon="-13.48471">
        <ele>355.4</ele>
        <time>2021-07-03 13:39:28</time>
      </trkpt>
      <trkpt lat="29.19566" lon="-13.48479">
        <ele>355.2</ele>
        <time>2021-07-03 13:39:29</time>
      </trkpt>
      <trkpt lat="29.19565" lon="-13.48486">
        <ele>355.2</ele>
        <time>2021-07-03 13:39:30</time>
      </trkpt>
      <trkpt lat="29.19564" lon="-13.48493">
        <ele>355.4</ele>
        <time>2021-07-03 13:39:31</time>
      </trkpt>
      <trkpt lat="29.19564" lon="-13.485">
        <ele>355.4</ele>
        <time>2021-07-03 13:39:32</time>
      </trkpt>
      <trkpt lat="29.19562" lon="-13.48507">
        <ele>355.4</ele>
        <time>2021-07-03 13:39:33</time>
      </trkpt>
      <trkpt lat="29.1956" lon="-13.48513">
        <ele>355</ele>
        <time>2021-07-03 13:39:34</time>
      </trkpt>
      <trkpt lat="29.19558" lon="-13.48521">
        <ele>355</ele>
        <time>2021-07-03 13:39:35</time>
      </trkpt>
      <trkpt lat="29.19557" lon="-13.48529">
        <ele>355</ele>
        <time>2021-07-03 13:39:36</time>
      </trkpt>
      <trkpt lat="29.19555" lon="-13.48536">
        <ele>354.8</ele>
        <time>2021-07-03 13:39:37</time>
      </trkpt>
      <trkpt lat="29.19553" lon="-13.48544">
        <ele>354.8</ele>
        <time>2021-07-03 13:39:38</time>
      </trkpt>
      <trkpt lat="29.19551" lon="-13.48551">
        <ele>354.8</ele>
        <time>2021-07-03 13:39:39</time>
      </trkpt>
      <trkpt lat="29.19549" lon="-13.48559">
        <ele>354.8</ele>
        <time>2021-07-03 13:39:40</time>
      </trkpt>
      <trkpt lat="29.19548" lon="-13.48567">
        <ele>354.8</ele>
        <time>2021-07-03 13:39:41</time>
      </trkpt>
      <trkpt lat="29.19546" lon="-13.48575">
        <ele>354.6</ele>
        <time>2021-07-03 13:39:42</time>
      </trkpt>
      <trkpt lat="29.19545" lon="-13.48583">
        <ele>354.6</ele>
        <time>2021-07-03 13:39:43</time>
      </trkpt>
      <trkpt lat="29.19543" lon="-13.4859">
        <ele>354.6</ele>
        <time>2021-07-03 13:39:44</time>
      </trkpt>
      <trkpt lat="29.19541" lon="-13.48597">
        <ele>354.8</ele>
        <time>2021-07-03 13:39:45</time>
      </trkpt>
      <trkpt lat="29.1954" lon="-13.48604">
        <ele>354.8</ele>
        <time>2021-07-03 13:39:46</time>
      </trkpt>
      <trkpt lat="29.19538" lon="-13.48611">
        <ele>355</ele>
        <time>2021-07-03 13:39:47</time>
      </trkpt>
      <trkpt lat="29.19536" lon="-13.48617">
        <ele>355</ele>
        <time>2021-07-03 13:39:48</time>
      </trkpt>
      <trkpt lat="29.19534" lon="-13.48624">
        <ele>355</ele>
        <time>2021-07-03 13:39:49</time>
      </trkpt>
      <trkpt lat="29.19532" lon="-13.48631">
        <ele>355</ele>
        <time>2021-07-03 13:39:50</time>
      </trkpt>
      <trkpt lat="29.1953" lon="-13.48637">
        <ele>355</ele>
        <time>2021-07-03 13:39:51</time>
      </trkpt>
      <trkpt lat="29.19527" lon="-13.48643">
        <ele>355</ele>
        <time>2021-07-03 13:39:52</time>
      </trkpt>
      <trkpt lat="29.19525" lon="-13.48649">
        <ele>355</ele>
        <time>2021-07-03 13:39:53</time>
      </trkpt>
      <trkpt lat="29.19522" lon="-13.48655">
        <ele>355</ele>
        <time>2021-07-03 13:39:54</time>
      </trkpt>
      <trkpt lat="29.1952" lon="-13.48661">
        <ele>355</ele>
        <time>2021-07-03 13:39:55</time>
      </trkpt>
      <trkpt lat="29.19516" lon="-13.48667">
        <ele>355</ele>
        <time>2021-07-03 13:39:56</time>
      </trkpt>
      <trkpt lat="29.19513" lon="-13.48672">
        <ele>355</ele>
        <time>2021-07-03 13:39:57</time>
      </trkpt>
      <trkpt lat="29.19509" lon="-13.48677">
        <ele>355</ele>
        <time>2021-07-03 13:39:58</time>
      </trkpt>
      <trkpt lat="29.19505" lon="-13.48682">
        <ele>355</ele>
        <time>2021-07-03 13:39:59</time>
      </trkpt>
      <trkpt lat="29.19501" lon="-13.48687">
        <ele>355</ele>
        <time>2021-07-03 13:40:00</time>
      </trkpt>
      <trkpt lat="29.19499" lon="-13.48691">
        <ele>355</ele>
        <time>2021-07-03 13:40:01</time>
      </trkpt>
      <trkpt lat="29.19495" lon="-13.48696">
        <ele>355</ele>
        <time>2021-07-03 13:40:02</time>
      </trkpt>
      <trkpt lat="29.19492" lon="-13.48701">
        <ele>355</ele>
        <time>2021-07-03 13:40:03</time>
      </trkpt>
      <trkpt lat="29.19489" lon="-13.48706">
        <ele>355.4</ele>
        <time>2021-07-03 13:40:04</time>
      </trkpt>
      <trkpt lat="29.19486" lon="-13.4871">
        <ele>355.4</ele>
        <time>2021-07-03 13:40:05</time>
      </trkpt>
      <trkpt lat="29.19483" lon="-13.48714">
        <ele>355.6</ele>
        <time>2021-07-03 13:40:06</time>
      </trkpt>
      <trkpt lat="29.1948" lon="-13.48718">
        <ele>355.6</ele>
        <time>2021-07-03 13:40:07</time>
      </trkpt>
      <trkpt lat="29.19477" lon="-13.48723">
        <ele>355.6</ele>
        <time>2021-07-03 13:40:08</time>
      </trkpt>
      <trkpt lat="29.19474" lon="-13.48727">
        <ele>355.8</ele>
        <time>2021-07-03 13:40:09</time>
      </trkpt>
      <trkpt lat="29.19471" lon="-13.48731">
        <ele>355.8</ele>
        <time>2021-07-03 13:40:10</time>
      </trkpt>
      <trkpt lat="29.19468" lon="-13.48735">
        <ele>356</ele>
        <time>2021-07-03 13:40:11</time>
      </trkpt>
      <trkpt lat="29.19465" lon="-13.48738">
        <ele>356</ele>
        <time>2021-07-03 13:40:12</time>
      </trkpt>
      <trkpt lat="29.19463" lon="-13.48742">
        <ele>356.4</ele>
        <time>2021-07-03 13:40:13</time>
      </trkpt>
      <trkpt lat="29.1946" lon="-13.48746">
        <ele>356.8</ele>
        <time>2021-07-03 13:40:14</time>
      </trkpt>
      <trkpt lat="29.19457" lon="-13.4875">
        <ele>357</ele>
        <time>2021-07-03 13:40:15</time>
      </trkpt>
      <trkpt lat="29.19455" lon="-13.48754">
        <ele>357</ele>
        <time>2021-07-03 13:40:16</time>
      </trkpt>
      <trkpt lat="29.19452" lon="-13.48758">
        <ele>357.4</ele>
        <time>2021-07-03 13:40:17</time>
      </trkpt>
      <trkpt lat="29.1945" lon="-13.48761">
        <ele>357.4</ele>
        <time>2021-07-03 13:40:18</time>
      </trkpt>
      <trkpt lat="29.19447" lon="-13.48765">
        <ele>357.8</ele>
        <time>2021-07-03 13:40:19</time>
      </trkpt>
      <trkpt lat="29.19444" lon="-13.48769">
        <ele>358</ele>
        <time>2021-07-03 13:40:20</time>
      </trkpt>
      <trkpt lat="29.19442" lon="-13.48772">
        <ele>358</ele>
        <time>2021-07-03 13:40:21</time>
      </trkpt>
      <trkpt lat="29.1944" lon="-13.48776">
        <ele>358.2</ele>
        <time>2021-07-03 13:40:22</time>
      </trkpt>
      <trkpt lat="29.19438" lon="-13.4878">
        <ele>358.6</ele>
        <time>2021-07-03 13:40:23</time>
      </trkpt>
      <trkpt lat="29.19435" lon="-13.48783">
        <ele>358.8</ele>
        <time>2021-07-03 13:40:24</time>
      </trkpt>
      <trkpt lat="29.19432" lon="-13.48786">
        <ele>359</ele>
        <time>2021-07-03 13:40:25</time>
      </trkpt>
      <trkpt lat="29.19429" lon="-13.48789">
        <ele>359</ele>
        <time>2021-07-03 13:40:26</time>
      </trkpt>
      <trkpt lat="29.19426" lon="-13.48792">
        <ele>359.4</ele>
        <time>2021-07-03 13:40:27</time>
      </trkpt>
      <trkpt lat="29.19423" lon="-13.48795">
        <ele>359.4</ele>
        <time>2021-07-03 13:40:28</time>
      </trkpt>
      <trkpt lat="29.1942" lon="-13.48798">
        <ele>359.6</ele>
        <time>2021-07-03 13:40:29</time>
      </trkpt>
      <trkpt lat="29.19417" lon="-13.488">
        <ele>359.6</ele>
        <time>2021-07-03 13:40:30</time>
      </trkpt>
      <trkpt lat="29.19414" lon="-13.48802">
        <ele>360</ele>
        <time>2021-07-03 13:40:31</time>
      </trkpt>
      <trkpt lat="29.1941" lon="-13.48804">
        <ele>360</ele>
        <time>2021-07-03 13:40:32</time>
      </trkpt>
      <trkpt lat="29.19406" lon="-13.48806">
        <ele>360</ele>
        <time>2021-07-03 13:40:33</time>
      </trkpt>
      <trkpt lat="29.19401" lon="-13.48806">
        <ele>360</ele>
        <time>2021-07-03 13:40:34</time>
      </trkpt>
      <trkpt lat="29.19397" lon="-13.48808">
        <ele>360</ele>
        <time>2021-07-03 13:40:35</time>
      </trkpt>
      <trkpt lat="29.19392" lon="-13.48809">
        <ele>360</ele>
        <time>2021-07-03 13:40:36</time>
      </trkpt>
      <trkpt lat="29.19387" lon="-13.4881">
        <ele>359.6</ele>
        <time>2021-07-03 13:40:37</time>
      </trkpt>
      <trkpt lat="29.19381" lon="-13.48811">
        <ele>359.6</ele>
        <time>2021-07-03 13:40:38</time>
      </trkpt>
      <trkpt lat="29.19376" lon="-13.48812">
        <ele>359.2</ele>
        <time>2021-07-03 13:40:39</time>
      </trkpt>
      <trkpt lat="29.1937" lon="-13.48813">
        <ele>359</ele>
        <time>2021-07-03 13:40:40</time>
      </trkpt>
      <trkpt lat="29.19365" lon="-13.48814">
        <ele>358.6</ele>
        <time>2021-07-03 13:40:41</time>
      </trkpt>
      <trkpt lat="29.19359" lon="-13.48815">
        <ele>358.4</ele>
        <time>2021-07-03 13:40:42</time>
      </trkpt>
      <trkpt lat="29.19353" lon="-13.48816">
        <ele>358.2</ele>
        <time>2021-07-03 13:40:43</time>
      </trkpt>
      <trkpt lat="29.19348" lon="-13.48817">
        <ele>357.8</ele>
        <time>2021-07-03 13:40:44</time>
      </trkpt>
      <trkpt lat="29.19342" lon="-13.48818">
        <ele>357.6</ele>
        <time>2021-07-03 13:40:45</time>
      </trkpt>
      <trkpt lat="29.19336" lon="-13.48819">
        <ele>357.4</ele>
        <time>2021-07-03 13:40:46</time>
      </trkpt>
      <trkpt lat="29.19331" lon="-13.4882">
        <ele>357.2</ele>
        <time>2021-07-03 13:40:47</time>
      </trkpt>
      <trkpt lat="29.19326" lon="-13.48822">
        <ele>357.2</ele>
        <time>2021-07-03 13:40:48</time>
      </trkpt>
      <trkpt lat="29.19321" lon="-13.48823">
        <ele>356.8</ele>
        <time>2021-07-03 13:40:49</time>
      </trkpt>
      <trkpt lat="29.19317" lon="-13.48824">
        <ele>356.8</ele>
        <time>2021-07-03 13:40:50</time>
      </trkpt>
      <trkpt lat="29.19314" lon="-13.48825">
        <ele>356.6</ele>
        <time>2021-07-03 13:40:51</time>
      </trkpt>
      <trkpt lat="29.1931" lon="-13.48825">
        <ele>356.6</ele>
        <time>2021-07-03 13:40:52</time>
      </trkpt>
      <trkpt lat="29.19307" lon="-13.48826">
        <ele>356.2</ele>
        <time>2021-07-03 13:40:53</time>
      </trkpt>
      <trkpt lat="29.19304" lon="-13.48827">
        <ele>356.2</ele>
        <time>2021-07-03 13:40:54</time>
      </trkpt>
      <trkpt lat="29.19302" lon="-13.48828">
        <ele>355.8</ele>
        <time>2021-07-03 13:40:55</time>
      </trkpt>
      <trkpt lat="29.19299" lon="-13.48829">
        <ele>355.8</ele>
        <time>2021-07-03 13:40:56</time>
      </trkpt>
      <trkpt lat="29.19297" lon="-13.4883">
        <ele>355.4</ele>
        <time>2021-07-03 13:40:57</time>
      </trkpt>
      <trkpt lat="29.19295" lon="-13.48831">
        <ele>355.4</ele>
        <time>2021-07-03 13:40:58</time>
      </trkpt>
      <trkpt lat="29.19293" lon="-13.48832">
        <ele>355.4</ele>
        <time>2021-07-03 13:40:59</time>
      </trkpt>
      <trkpt lat="29.19291" lon="-13.48833">
        <ele>355.2</ele>
        <time>2021-07-03 13:41:00</time>
      </trkpt>
      <trkpt lat="29.19289" lon="-13.48833">
        <ele>355.2</ele>
        <time>2021-07-03 13:41:01</time>
      </trkpt>
      <trkpt lat="29.19288" lon="-13.48834">
        <ele>355.2</ele>
        <time>2021-07-03 13:41:02</time>
      </trkpt>
      <trkpt lat="29.19288" lon="-13.48834">
        <ele>355.2</ele>
        <time>2021-07-03 13:41:03</time>
      </trkpt>
      <trkpt lat="29.19287" lon="-13.48834">
        <ele>355</ele>
        <time>2021-07-03 13:41:04</time>
      </trkpt>
      <trkpt lat="29.19288" lon="-13.48834">
        <ele>355</ele>
        <time>2021-07-03 13:41:05</time>
      </trkpt>
      <trkpt lat="29.19288" lon="-13.48834">
        <ele>355</ele>
        <time>2021-07-03 13:41:06</time>
      </trkpt>
      <trkpt lat="29.19286" lon="-13.48835">
        <ele>355.4</ele>
        <time>2021-07-03 13:41:07</time>
      </trkpt>
      <trkpt lat="29.19284" lon="-13.48834">
        <ele>355.4</ele>
        <time>2021-07-03 13:41:08</time>
      </trkpt>
      <trkpt lat="29.19282" lon="-13.48833">
        <ele>355</ele>
        <time>2021-07-03 13:41:09</time>
      </trkpt>
      <trkpt lat="29.19281" lon="-13.48831">
        <ele>354.8</ele>
        <time>2021-07-03 13:41:10</time>
      </trkpt>
      <trkpt lat="29.19281" lon="-13.48828">
        <ele>354.8</ele>
        <time>2021-07-03 13:41:11</time>
      </trkpt>
      <trkpt lat="29.19283" lon="-13.48826">
        <ele>354.8</ele>
        <time>2021-07-03 13:41:12</time>
      </trkpt>
      <trkpt lat="29.19285" lon="-13.48824">
        <ele>354.8</ele>
        <time>2021-07-03 13:41:13</time>
      </trkpt>
      <trkpt lat="29.19287" lon="-13.48824">
        <ele>354.6</ele>
        <time>2021-07-03 13:41:14</time>
      </trkpt>
      <trkpt lat="29.1929" lon="-13.48825">
        <ele>354.6</ele>
        <time>2021-07-03 13:41:15</time>
      </trkpt>
      <trkpt lat="29.19292" lon="-13.48825">
        <ele>354.6</ele>
        <time>2021-07-03 13:41:16</time>
      </trkpt>
      <trkpt lat="29.19295" lon="-13.48825">
        <ele>354.6</ele>
        <time>2021-07-03 13:41:17</time>
      </trkpt>
      <trkpt lat="29.19297" lon="-13.48825">
        <ele>354.6</ele>
        <time>2021-07-03 13:41:18</time>
      </trkpt>
      <trkpt lat="29.193" lon="-13.48825">
        <ele>354.6</ele>
        <time>2021-07-03 13:41:19</time>
      </trkpt>
      <trkpt lat="29.19303" lon="-13.48825">
        <ele>355</ele>
        <time>2021-07-03 13:41:20</time>
      </trkpt>
      <trkpt lat="29.19305" lon="-13.48825">
        <ele>355.2</ele>
        <time>2021-07-03 13:41:21</time>
      </trkpt>
      <trkpt lat="29.19308" lon="-13.48824">
        <ele>355.4</ele>
        <time>2021-07-03 13:41:22</time>
      </trkpt>
      <trkpt lat="29.19311" lon="-13.48824">
        <ele>355.8</ele>
        <time>2021-07-03 13:41:23</time>
      </trkpt>
      <trkpt lat="29.19314" lon="-13.48824">
        <ele>356</ele>
        <time>2021-07-03 13:41:24</time>
      </trkpt>
      <trkpt lat="29.19317" lon="-13.48823">
        <ele>356.2</ele>
        <time>2021-07-03 13:41:25</time>
      </trkpt>
      <trkpt lat="29.1932" lon="-13.48822">
        <ele>356.2</ele>
        <time>2021-07-03 13:41:26</time>
      </trkpt>
      <trkpt lat="29.19323" lon="-13.48822">
        <ele>356.6</ele>
        <time>2021-07-03 13:47:30</time>
      </trkpt>
      <trkpt lat="29.19327" lon="-13.48821">
        <ele>356.6</ele>
        <time>2021-07-03 13:47:31</time>
      </trkpt>
      <trkpt lat="29.1933" lon="-13.4882">
        <ele>356.6</ele>
        <time>2021-07-03 13:47:32</time>
      </trkpt>
      <trkpt lat="29.19333" lon="-13.48819">
        <ele>356.8</ele>
        <time>2021-07-03 13:47:33</time>
      </trkpt>
      <trkpt lat="29.19337" lon="-13.48818">
        <ele>356.8</ele>
        <time>2021-07-03 13:47:34</time>
      </trkpt>
      <trkpt lat="29.1934" lon="-13.48817">
        <ele>356.8</ele>
        <time>2021-07-03 13:47:35</time>
      </trkpt>
      <trkpt lat="29.19344" lon="-13.48817">
        <ele>357.2</ele>
        <time>2021-07-03 13:47:36</time>
      </trkpt>
      <trkpt lat="29.19347" lon="-13.48816">
        <ele>357.2</ele>
        <time>2021-07-03 13:47:37</time>
      </trkpt>
      <trkpt lat="29.1935" lon="-13.48816">
        <ele>357.2</ele>
        <time>2021-07-03 13:47:38</time>
      </trkpt>
      <trkpt lat="29.19354" lon="-13.48815">
        <ele>357.2</ele>
        <time>2021-07-03 13:47:39</time>
      </trkpt>
      <trkpt lat="29.19357" lon="-13.48815">
        <ele>357.2</ele>
        <time>2021-07-03 13:47:40</time>
      </trkpt>
      <trkpt lat="29.1936" lon="-13.48814">
        <ele>357.2</ele>
        <time>2021-07-03 13:47:41</time>
      </trkpt>
      <trkpt lat="29.19364" lon="-13.48814">
        <ele>357.4</ele>
        <time>2021-07-03 13:47:42</time>
      </trkpt>
      <trkpt lat="29.19367" lon="-13.48813">
        <ele>357.4</ele>
        <time>2021-07-03 13:47:43</time>
      </trkpt>
      <trkpt lat="29.1937" lon="-13.48812">
        <ele>357.6</ele>
        <time>2021-07-03 13:47:44</time>
      </trkpt>
      <trkpt lat="29.19373" lon="-13.48811">
        <ele>358</ele>
        <time>2021-07-03 13:47:45</time>
      </trkpt>
      <trkpt lat="29.19377" lon="-13.4881">
        <ele>358.2</ele>
        <time>2021-07-03 13:47:46</time>
      </trkpt>
      <trkpt lat="29.1938" lon="-13.4881">
        <ele>358.4</ele>
        <time>2021-07-03 13:47:47</time>
      </trkpt>
      <trkpt lat="29.19383" lon="-13.48809">
        <ele>358.4</ele>
        <time>2021-07-03 13:47:48</time>
      </trkpt>
      <trkpt lat="29.19387" lon="-13.48808">
        <ele>358.8</ele>
        <time>2021-07-03 13:47:49</time>
      </trkpt>
      <trkpt lat="29.1939" lon="-13.48807">
        <ele>358.8</ele>
        <time>2021-07-03 13:47:50</time>
      </trkpt>
      <trkpt lat="29.19393" lon="-13.48806">
        <ele>359</ele>
        <time>2021-07-03 13:47:51</time>
      </trkpt>
      <trkpt lat="29.19397" lon="-13.48805">
        <ele>359</ele>
        <time>2021-07-03 13:47:52</time>
      </trkpt>
      <trkpt lat="29.194" lon="-13.48804">
        <ele>359</ele>
        <time>2021-07-03 13:47:53</time>
      </trkpt>
      <trkpt lat="29.19403" lon="-13.48803">
        <ele>359.2</ele>
        <time>2021-07-03 13:47:54</time>
      </trkpt>
      <trkpt lat="29.19406" lon="-13.48802">
        <ele>359.6</ele>
        <time>2021-07-03 13:47:55</time>
      </trkpt>
      <trkpt lat="29.19409" lon="-13.48801">
        <ele>359.6</ele>
        <time>2021-07-03 13:47:56</time>
      </trkpt>
      <trkpt lat="29.19412" lon="-13.488">
        <ele>360</ele>
        <time>2021-07-03 13:47:57</time>
      </trkpt>
      <trkpt lat="29.19415" lon="-13.48798">
        <ele>360</ele>
        <time>2021-07-03 13:47:58</time>
      </trkpt>
      <trkpt lat="29.19418" lon="-13.48796">
        <ele>360.4</ele>
        <time>2021-07-03 13:47:59</time>
      </trkpt>
      <trkpt lat="29.19421" lon="-13.48794">
        <ele>360.6</ele>
        <time>2021-07-03 13:48:00</time>
      </trkpt>
      <trkpt lat="29.19424" lon="-13.48792">
        <ele>360.6</ele>
        <time>2021-07-03 13:48:01</time>
      </trkpt>
      <trkpt lat="29.19426" lon="-13.48789">
        <ele>360.8</ele>
        <time>2021-07-03 13:48:02</time>
      </trkpt>
      <trkpt lat="29.19429" lon="-13.48786">
        <ele>360.8</ele>
        <time>2021-07-03 13:48:03</time>
      </trkpt>
      <trkpt lat="29.19432" lon="-13.48783">
        <ele>361.2</ele>
        <time>2021-07-03 13:48:04</time>
      </trkpt>
      <trkpt lat="29.19434" lon="-13.4878">
        <ele>361.2</ele>
        <time>2021-07-03 13:48:05</time>
      </trkpt>
      <trkpt lat="29.19437" lon="-13.48777">
        <ele>361.2</ele>
        <time>2021-07-03 13:48:06</time>
      </trkpt>
      <trkpt lat="29.19439" lon="-13.48773">
        <ele>361.2</ele>
        <time>2021-07-03 13:48:07</time>
      </trkpt>
      <trkpt lat="29.19442" lon="-13.48769">
        <ele>361.2</ele>
        <time>2021-07-03 13:48:08</time>
      </trkpt>
      <trkpt lat="29.19445" lon="-13.48764">
        <ele>361</ele>
        <time>2021-07-03 13:48:09</time>
      </trkpt>
      <trkpt lat="29.19448" lon="-13.4876">
        <ele>360.8</ele>
        <time>2021-07-03 13:48:10</time>
      </trkpt>
      <trkpt lat="29.19452" lon="-13.48756">
        <ele>360.6</ele>
        <time>2021-07-03 13:48:11</time>
      </trkpt>
      <trkpt lat="29.19455" lon="-13.48751">
        <ele>360.2</ele>
        <time>2021-07-03 13:48:12</time>
      </trkpt>
      <trkpt lat="29.19458" lon="-13.48746">
        <ele>360</ele>
        <time>2021-07-03 13:48:13</time>
      </trkpt>
      <trkpt lat="29.19461" lon="-13.48742">
        <ele>360</ele>
        <time>2021-07-03 13:48:14</time>
      </trkpt>
      <trkpt lat="29.19464" lon="-13.48737">
        <ele>359.6</ele>
        <time>2021-07-03 13:48:15</time>
      </trkpt>
      <trkpt lat="29.19467" lon="-13.48732">
        <ele>358.4</ele>
        <time>2021-07-03 13:48:16</time>
      </trkpt>
      <trkpt lat="29.1947" lon="-13.48727">
        <ele>358.4</ele>
        <time>2021-07-03 13:48:17</time>
      </trkpt>
      <trkpt lat="29.19474" lon="-13.48722">
        <ele>358.4</ele>
        <time>2021-07-03 13:48:18</time>
      </trkpt>
      <trkpt lat="29.19478" lon="-13.48717">
        <ele>358</ele>
        <time>2021-07-03 13:48:19</time>
      </trkpt>
      <trkpt lat="29.19481" lon="-13.48712">
        <ele>357.8</ele>
        <time>2021-07-03 13:48:20</time>
      </trkpt>
      <trkpt lat="29.19485" lon="-13.48707">
        <ele>357.4</ele>
        <time>2021-07-03 13:48:21</time>
      </trkpt>
      <trkpt lat="29.19489" lon="-13.48702">
        <ele>357</ele>
        <time>2021-07-03 13:48:22</time>
      </trkpt>
      <trkpt lat="29.19493" lon="-13.48696">
        <ele>356.8</ele>
        <time>2021-07-03 13:48:23</time>
      </trkpt>
      <trkpt lat="29.19497" lon="-13.48691">
        <ele>356.6</ele>
        <time>2021-07-03 13:48:24</time>
      </trkpt>
      <trkpt lat="29.19501" lon="-13.48685">
        <ele>356.4</ele>
        <time>2021-07-03 13:48:25</time>
      </trkpt>
      <trkpt lat="29.19504" lon="-13.4868">
        <ele>356</ele>
        <time>2021-07-03 13:48:26</time>
      </trkpt>
      <trkpt lat="29.19508" lon="-13.48675">
        <ele>355.8</ele>
        <time>2021-07-03 13:48:27</time>
      </trkpt>
      <trkpt lat="29.19512" lon="-13.4867">
        <ele>355.8</ele>
        <time>2021-07-03 13:48:28</time>
      </trkpt>
      <trkpt lat="29.19515" lon="-13.48665">
        <ele>355.4</ele>
        <time>2021-07-03 13:48:29</time>
      </trkpt>
      <trkpt lat="29.19518" lon="-13.4866">
        <ele>355.4</ele>
        <time>2021-07-03 13:48:30</time>
      </trkpt>
      <trkpt lat="29.19522" lon="-13.48655">
        <ele>355</ele>
        <time>2021-07-03 13:48:31</time>
      </trkpt>
      <trkpt lat="29.19524" lon="-13.48649">
        <ele>354.8</ele>
        <time>2021-07-03 13:48:32</time>
      </trkpt>
      <trkpt lat="29.19526" lon="-13.48644">
        <ele>354.6</ele>
        <time>2021-07-03 13:48:33</time>
      </trkpt>
      <trkpt lat="29.19527" lon="-13.48639">
        <ele>354.6</ele>
        <time>2021-07-03 13:48:34</time>
      </trkpt>
      <trkpt lat="29.19529" lon="-13.48634">
        <ele>354.6</ele>
        <time>2021-07-03 13:48:35</time>
      </trkpt>
      <trkpt lat="29.19531" lon="-13.4863">
        <ele>354.6</ele>
        <time>2021-07-03 13:48:36</time>
      </trkpt>
      <trkpt lat="29.19533" lon="-13.48625">
        <ele>354.6</ele>
        <time>2021-07-03 13:48:37</time>
      </trkpt>
      <trkpt lat="29.19535" lon="-13.48619">
        <ele>354.6</ele>
        <time>2021-07-03 13:48:38</time>
      </trkpt>
      <trkpt lat="29.19537" lon="-13.48613">
        <ele>354.6</ele>
        <time>2021-07-03 13:48:39</time>
      </trkpt>
      <trkpt lat="29.19538" lon="-13.48607">
        <ele>354.6</ele>
        <time>2021-07-03 13:48:40</time>
      </trkpt>
      <trkpt lat="29.1954" lon="-13.48601">
        <ele>354.6</ele>
        <time>2021-07-03 13:48:41</time>
      </trkpt>
      <trkpt lat="29.19542" lon="-13.48595">
        <ele>354.6</ele>
        <time>2021-07-03 13:48:42</time>
      </trkpt>
      <trkpt lat="29.19543" lon="-13.48589">
        <ele>354.6</ele>
        <time>2021-07-03 13:48:43</time>
      </trkpt>
      <trkpt lat="29.19545" lon="-13.48583">
        <ele>354.6</ele>
        <time>2021-07-03 13:48:44</time>
      </trkpt>
      <trkpt lat="29.19546" lon="-13.48578">
        <ele>354.4</ele>
        <time>2021-07-03 13:48:45</time>
      </trkpt>
      <trkpt lat="29.19547" lon="-13.48572">
        <ele>354.4</ele>
        <time>2021-07-03 13:48:46</time>
      </trkpt>
      <trkpt lat="29.19548" lon="-13.48566">
        <ele>354.4</ele>
        <time>2021-07-03 13:48:47</time>
      </trkpt>
      <trkpt lat="29.19549" lon="-13.4856">
        <ele>354.4</ele>
        <time>2021-07-03 13:48:48</time>
      </trkpt>
      <trkpt lat="29.1955" lon="-13.48554">
        <ele>354.4</ele>
        <time>2021-07-03 13:48:49</time>
      </trkpt>
      <trkpt lat="29.19551" lon="-13.48548">
        <ele>354.4</ele>
        <time>2021-07-03 13:48:50</time>
      </trkpt>
      <trkpt lat="29.19552" lon="-13.48542">
        <ele>354.6</ele>
        <time>2021-07-03 13:48:51</time>
      </trkpt>
      <trkpt lat="29.19553" lon="-13.48536">
        <ele>354.6</ele>
        <time>2021-07-03 13:48:52</time>
      </trkpt>
      <trkpt lat="29.19555" lon="-13.4853">
        <ele>354.6</ele>
        <time>2021-07-03 13:48:53</time>
      </trkpt>
      <trkpt lat="29.19556" lon="-13.48525">
        <ele>354.6</ele>
        <time>2021-07-03 13:48:54</time>
      </trkpt>
      <trkpt lat="29.19557" lon="-13.48519">
        <ele>354.6</ele>
        <time>2021-07-03 13:48:55</time>
      </trkpt>
      <trkpt lat="29.19559" lon="-13.48513">
        <ele>354.6</ele>
        <time>2021-07-03 13:48:56</time>
      </trkpt>
      <trkpt lat="29.1956" lon="-13.48508">
        <ele>354.6</ele>
        <time>2021-07-03 13:48:57</time>
      </trkpt>
      <trkpt lat="29.1956" lon="-13.48503">
        <ele>354.6</ele>
        <time>2021-07-03 13:48:58</time>
      </trkpt>
      <trkpt lat="29.19561" lon="-13.48497">
        <ele>354.4</ele>
        <time>2021-07-03 13:48:59</time>
      </trkpt>
      <trkpt lat="29.19562" lon="-13.48492">
        <ele>354.4</ele>
        <time>2021-07-03 13:49:00</time>
      </trkpt>
      <trkpt lat="29.19563" lon="-13.48487">
        <ele>354.2</ele>
        <time>2021-07-03 13:49:01</time>
      </trkpt>
      <trkpt lat="29.19564" lon="-13.48482">
        <ele>354.2</ele>
        <time>2021-07-03 13:49:02</time>
      </trkpt>
      <trkpt lat="29.19565" lon="-13.48477">
        <ele>354.2</ele>
        <time>2021-07-03 13:49:03</time>
      </trkpt>
      <trkpt lat="29.19566" lon="-13.48471">
        <ele>354.2</ele>
        <time>2021-07-03 13:49:04</time>
      </trkpt>
      <trkpt lat="29.19566" lon="-13.48466">
        <ele>354.2</ele>
        <time>2021-07-03 13:49:05</time>
      </trkpt>
      <trkpt lat="29.19567" lon="-13.48461">
        <ele>354.2</ele>
        <time>2021-07-03 13:49:06</time>
      </trkpt>
      <trkpt lat="29.19568" lon="-13.48456">
        <ele>354.2</ele>
        <time>2021-07-03 13:49:07</time>
      </trkpt>
      <trkpt lat="29.19569" lon="-13.48436">
        <ele>354.8</ele>
        <time>2021-07-03 13:49:08</time>
      </trkpt>
      <trkpt lat="29.19569" lon="-13.48431">
        <ele>354.8</ele>
        <time>2021-07-03 13:49:09</time>
      </trkpt>
      <trkpt lat="29.19568" lon="-13.48426">
        <ele>355.2</ele>
        <time>2021-07-03 13:49:10</time>
      </trkpt>
      <trkpt lat="29.19568" lon="-13.48421">
        <ele>355.4</ele>
        <time>2021-07-03 13:49:11</time>
      </trkpt>
      <trkpt lat="29.19569" lon="-13.48417">
        <ele>355.6</ele>
        <time>2021-07-03 13:49:12</time>
      </trkpt>
      <trkpt lat="29.19569" lon="-13.48412">
        <ele>355.6</ele>
        <time>2021-07-03 13:49:13</time>
      </trkpt>
      <trkpt lat="29.19569" lon="-13.48407">
        <ele>356</ele>
        <time>2021-07-03 13:49:14</time>
      </trkpt>
      <trkpt lat="29.19569" lon="-13.48403">
        <ele>356.2</ele>
        <time>2021-07-03 13:49:15</time>
      </trkpt>
      <trkpt lat="29.19568" lon="-13.48398">
        <ele>356.2</ele>
        <time>2021-07-03 13:49:16</time>
      </trkpt>
      <trkpt lat="29.19569" lon="-13.48394">
        <ele>356.4</ele>
        <time>2021-07-03 13:49:17</time>
      </trkpt>
      <trkpt lat="29.19569" lon="-13.48389">
        <ele>356.4</ele>
        <time>2021-07-03 13:49:18</time>
      </trkpt>
      <trkpt lat="29.19569" lon="-13.48385">
        <ele>356.8</ele>
        <time>2021-07-03 13:49:19</time>
      </trkpt>
      <trkpt lat="29.19569" lon="-13.48381">
        <ele>357</ele>
        <time>2021-07-03 13:49:20</time>
      </trkpt>
      <trkpt lat="29.19569" lon="-13.48377">
        <ele>357</ele>
        <time>2021-07-03 13:49:21</time>
      </trkpt>
      <trkpt lat="29.19569" lon="-13.48372">
        <ele>357</ele>
        <time>2021-07-03 13:49:22</time>
      </trkpt>
      <trkpt lat="29.19569" lon="-13.48368">
        <ele>357</ele>
        <time>2021-07-03 13:49:23</time>
      </trkpt>
      <trkpt lat="29.19569" lon="-13.48364">
        <ele>357</ele>
        <time>2021-07-03 13:49:24</time>
      </trkpt>
      <trkpt lat="29.1957" lon="-13.48356">
        <ele>357</ele>
        <time>2021-07-03 13:49:25</time>
      </trkpt>
      <trkpt lat="29.1957" lon="-13.48351">
        <ele>357.4</ele>
        <time>2021-07-03 13:49:26</time>
      </trkpt>
      <trkpt lat="29.19571" lon="-13.48347">
        <ele>357.4</ele>
        <time>2021-07-03 13:49:27</time>
      </trkpt>
      <trkpt lat="29.19571" lon="-13.48344">
        <ele>357.6</ele>
        <time>2021-07-03 13:49:28</time>
      </trkpt>
      <trkpt lat="29.19571" lon="-13.4834">
        <ele>357.8</ele>
        <time>2021-07-03 13:49:29</time>
      </trkpt>
      <trkpt lat="29.19571" lon="-13.48337">
        <ele>358</ele>
        <time>2021-07-03 13:49:30</time>
      </trkpt>
      <trkpt lat="29.19571" lon="-13.48333">
        <ele>358</ele>
        <time>2021-07-03 13:49:31</time>
      </trkpt>
      <trkpt lat="29.19572" lon="-13.4833">
        <ele>358.2</ele>
        <time>2021-07-03 13:49:32</time>
      </trkpt>
      <trkpt lat="29.19572" lon="-13.48326">
        <ele>358.2</ele>
        <time>2021-07-03 13:49:33</time>
      </trkpt>
      <trkpt lat="29.19572" lon="-13.48322">
        <ele>358.2</ele>
        <time>2021-07-03 13:49:34</time>
      </trkpt>
      <trkpt lat="29.19572" lon="-13.48315">
        <ele>358.2</ele>
        <time>2021-07-03 13:49:35</time>
      </trkpt>
      <trkpt lat="29.19572" lon="-13.48311">
        <ele>358.2</ele>
        <time>2021-07-03 13:49:36</time>
      </trkpt>
      <trkpt lat="29.19571" lon="-13.48307">
        <ele>358.2</ele>
        <time>2021-07-03 13:49:37</time>
      </trkpt>
      <trkpt lat="29.19571" lon="-13.48303">
        <ele>358.2</ele>
        <time>2021-07-03 13:49:38</time>
      </trkpt>
      <trkpt lat="29.1957" lon="-13.48299">
        <ele>358.2</ele>
        <time>2021-07-03 13:49:39</time>
      </trkpt>
      <trkpt lat="29.19569" lon="-13.48294">
        <ele>358.2</ele>
        <time>2021-07-03 13:49:40</time>
      </trkpt>
      <trkpt lat="29.19568" lon="-13.48289">
        <ele>358.2</ele>
        <time>2021-07-03 13:49:41</time>
      </trkpt>
      <trkpt lat="29.19568" lon="-13.48285">
        <ele>358</ele>
        <time>2021-07-03 13:49:42</time>
      </trkpt>
      <trkpt lat="29.19567" lon="-13.4828">
        <ele>358</ele>
        <time>2021-07-03 13:49:43</time>
      </trkpt>
      <trkpt lat="29.19566" lon="-13.48275">
        <ele>357.6</ele>
        <time>2021-07-03 13:49:44</time>
      </trkpt>
      <trkpt lat="29.19565" lon="-13.4827">
        <ele>357.6</ele>
        <time>2021-07-03 13:49:45</time>
      </trkpt>
      <trkpt lat="29.19565" lon="-13.48264">
        <ele>357.4</ele>
        <time>2021-07-03 13:49:46</time>
      </trkpt>
      <trkpt lat="29.19565" lon="-13.48259">
        <ele>357.4</ele>
        <time>2021-07-03 13:49:47</time>
      </trkpt>
      <trkpt lat="29.19564" lon="-13.48253">
        <ele>357.4</ele>
        <time>2021-07-03 13:49:48</time>
      </trkpt>
      <trkpt lat="29.19564" lon="-13.48247">
        <ele>357</ele>
        <time>2021-07-03 13:49:49</time>
      </trkpt>
      <trkpt lat="29.19565" lon="-13.48241">
        <ele>357</ele>
        <time>2021-07-03 13:49:50</time>
      </trkpt>
      <trkpt lat="29.19565" lon="-13.48235">
        <ele>357</ele>
        <time>2021-07-03 13:49:51</time>
      </trkpt>
      <trkpt lat="29.19565" lon="-13.48229">
        <ele>356.8</ele>
        <time>2021-07-03 13:49:52</time>
      </trkpt>
      <trkpt lat="29.19565" lon="-13.48223">
        <ele>356.2</ele>
        <time>2021-07-03 13:49:53</time>
      </trkpt>
      <trkpt lat="29.19566" lon="-13.48218">
        <ele>356.2</ele>
        <time>2021-07-03 13:49:54</time>
      </trkpt>
      <trkpt lat="29.19566" lon="-13.48212">
        <ele>356.2</ele>
        <time>2021-07-03 13:49:55</time>
      </trkpt>
      <trkpt lat="29.19566" lon="-13.48206">
        <ele>356</ele>
        <time>2021-07-03 13:49:56</time>
      </trkpt>
      <trkpt lat="29.19567" lon="-13.482">
        <ele>355.6</ele>
        <time>2021-07-03 13:49:57</time>
      </trkpt>
      <trkpt lat="29.19567" lon="-13.48195">
        <ele>355.6</ele>
        <time>2021-07-03 13:49:58</time>
      </trkpt>
      <trkpt lat="29.19568" lon="-13.48189">
        <ele>355.4</ele>
        <time>2021-07-03 13:49:59</time>
      </trkpt>
      <trkpt lat="29.19567" lon="-13.48183">
        <ele>355.4</ele>
        <time>2021-07-03 13:50:00</time>
      </trkpt>
      <trkpt lat="29.19568" lon="-13.48178">
        <ele>355.2</ele>
        <time>2021-07-03 13:50:01</time>
      </trkpt>
      <trkpt lat="29.19569" lon="-13.48172">
        <ele>355.2</ele>
        <time>2021-07-03 13:50:02</time>
      </trkpt>
      <trkpt lat="29.19569" lon="-13.48167">
        <ele>355.2</ele>
        <time>2021-07-03 13:50:03</time>
      </trkpt>
      <trkpt lat="29.19569" lon="-13.48162">
        <ele>355.2</ele>
        <time>2021-07-03 13:50:04</time>
      </trkpt>
      <trkpt lat="29.19569" lon="-13.48157">
        <ele>355.2</ele>
        <time>2021-07-03 13:50:05</time>
      </trkpt>
      <trkpt lat="29.1957" lon="-13.48152">
        <ele>355.2</ele>
        <time>2021-07-03 13:50:06</time>
      </trkpt>
      <trkpt lat="29.1957" lon="-13.48147">
        <ele>355.4</ele>
        <time>2021-07-03 13:50:07</time>
      </trkpt>
      <trkpt lat="29.19571" lon="-13.48143">
        <ele>355.4</ele>
        <time>2021-07-03 13:50:08</time>
      </trkpt>
      <trkpt lat="29.19571" lon="-13.48139">
        <ele>355.6</ele>
        <time>2021-07-03 13:50:09</time>
      </trkpt>
      <trkpt lat="29.19572" lon="-13.48134">
        <ele>355.6</ele>
        <time>2021-07-03 13:50:10</time>
      </trkpt>
      <trkpt lat="29.19573" lon="-13.4813">
        <ele>356</ele>
        <time>2021-07-03 13:50:11</time>
      </trkpt>
      <trkpt lat="29.19574" lon="-13.48125">
        <ele>356</ele>
        <time>2021-07-03 13:50:12</time>
      </trkpt>
      <trkpt lat="29.19575" lon="-13.48121">
        <ele>356</ele>
        <time>2021-07-03 13:50:13</time>
      </trkpt>
      <trkpt lat="29.19576" lon="-13.48116">
        <ele>356</ele>
        <time>2021-07-03 13:50:14</time>
      </trkpt>
      <trkpt lat="29.19577" lon="-13.48112">
        <ele>355.6</ele>
        <time>2021-07-03 13:50:15</time>
      </trkpt>
      <trkpt lat="29.19578" lon="-13.48107">
        <ele>355.6</ele>
        <time>2021-07-03 13:50:16</time>
      </trkpt>
      <trkpt lat="29.19579" lon="-13.48103">
        <ele>355.4</ele>
        <time>2021-07-03 13:50:17</time>
      </trkpt>
      <trkpt lat="29.1958" lon="-13.48098">
        <ele>355.4</ele>
        <time>2021-07-03 13:50:18</time>
      </trkpt>
      <trkpt lat="29.19581" lon="-13.48094">
        <ele>355.4</ele>
        <time>2021-07-03 13:50:19</time>
      </trkpt>
      <trkpt lat="29.19582" lon="-13.48089">
        <ele>355.4</ele>
        <time>2021-07-03 13:50:20</time>
      </trkpt>
      <trkpt lat="29.19582" lon="-13.48084">
        <ele>355.4</ele>
        <time>2021-07-03 13:50:21</time>
      </trkpt>
      <trkpt lat="29.19583" lon="-13.4808">
        <ele>355.4</ele>
        <time>2021-07-03 13:50:22</time>
      </trkpt>
      <trkpt lat="29.19584" lon="-13.48075">
        <ele>355.4</ele>
        <time>2021-07-03 13:50:23</time>
      </trkpt>
      <trkpt lat="29.19585" lon="-13.48071">
        <ele>355.4</ele>
        <time>2021-07-03 13:50:24</time>
      </trkpt>
      <trkpt lat="29.19586" lon="-13.48066">
        <ele>355.4</ele>
        <time>2021-07-03 13:50:25</time>
      </trkpt>
      <trkpt lat="29.19587" lon="-13.48062">
        <ele>355.8</ele>
        <time>2021-07-03 13:50:26</time>
      </trkpt>
      <trkpt lat="29.19588" lon="-13.48058">
        <ele>355.8</ele>
        <time>2021-07-03 13:50:27</time>
      </trkpt>
      <trkpt lat="29.19588" lon="-13.48053">
        <ele>355.8</ele>
        <time>2021-07-03 13:50:28</time>
      </trkpt>
      <trkpt lat="29.19589" lon="-13.48048">
        <ele>355.8</ele>
        <time>2021-07-03 13:50:29</time>
      </trkpt>
      <trkpt lat="29.1959" lon="-13.48044">
        <ele>355.8</ele>
        <time>2021-07-03 13:50:30</time>
      </trkpt>
      <trkpt lat="29.19591" lon="-13.48039">
        <ele>355.8</ele>
        <time>2021-07-03 13:50:31</time>
      </trkpt>
      <trkpt lat="29.19591" lon="-13.48034">
        <ele>355.8</ele>
        <time>2021-07-03 13:50:32</time>
      </trkpt>
      <trkpt lat="29.19592" lon="-13.48029">
        <ele>355.8</ele>
        <time>2021-07-03 13:50:33</time>
      </trkpt>
      <trkpt lat="29.19592" lon="-13.48025">
        <ele>355.8</ele>
        <time>2021-07-03 13:50:34</time>
      </trkpt>
      <trkpt lat="29.19593" lon="-13.4802">
        <ele>356</ele>
        <time>2021-07-03 13:50:35</time>
      </trkpt>
      <trkpt lat="29.19594" lon="-13.48015">
        <ele>356</ele>
        <time>2021-07-03 13:50:36</time>
      </trkpt>
      <trkpt lat="29.19594" lon="-13.4801">
        <ele>356</ele>
        <time>2021-07-03 13:50:37</time>
      </trkpt>
      <trkpt lat="29.19595" lon="-13.48006">
        <ele>356</ele>
        <time>2021-07-03 13:50:38</time>
      </trkpt>
      <trkpt lat="29.19596" lon="-13.48001">
        <ele>356</ele>
        <time>2021-07-03 13:50:39</time>
      </trkpt>
      <trkpt lat="29.19596" lon="-13.47996">
        <ele>356</ele>
        <time>2021-07-03 13:50:40</time>
      </trkpt>
      <trkpt lat="29.19597" lon="-13.47991">
        <ele>356</ele>
        <time>2021-07-03 13:50:41</time>
      </trkpt>
      <trkpt lat="29.19597" lon="-13.47986">
        <ele>356</ele>
        <time>2021-07-03 13:50:42</time>
      </trkpt>
      <trkpt lat="29.19598" lon="-13.47981">
        <ele>356</ele>
        <time>2021-07-03 13:50:43</time>
      </trkpt>
      <trkpt lat="29.19598" lon="-13.47977">
        <ele>356</ele>
        <time>2021-07-03 13:50:44</time>
      </trkpt>
      <trkpt lat="29.19599" lon="-13.47972">
        <ele>356.2</ele>
        <time>2021-07-03 13:50:45</time>
      </trkpt>
      <trkpt lat="29.19599" lon="-13.47967">
        <ele>356.2</ele>
        <time>2021-07-03 13:50:46</time>
      </trkpt>
      <trkpt lat="29.196" lon="-13.47962">
        <ele>356.2</ele>
        <time>2021-07-03 13:50:47</time>
      </trkpt>
      <trkpt lat="29.19601" lon="-13.47957">
        <ele>356.2</ele>
        <time>2021-07-03 13:50:48</time>
      </trkpt>
      <trkpt lat="29.19602" lon="-13.47952">
        <ele>356.2</ele>
        <time>2021-07-03 13:50:49</time>
      </trkpt>
      <trkpt lat="29.19603" lon="-13.47947">
        <ele>356.2</ele>
        <time>2021-07-03 13:50:50</time>
      </trkpt>
      <trkpt lat="29.19603" lon="-13.47942">
        <ele>356.2</ele>
        <time>2021-07-03 13:50:51</time>
      </trkpt>
      <trkpt lat="29.19604" lon="-13.47937">
        <ele>356.4</ele>
        <time>2021-07-03 13:50:52</time>
      </trkpt>
      <trkpt lat="29.19604" lon="-13.47933">
        <ele>356.4</ele>
        <time>2021-07-03 13:50:53</time>
      </trkpt>
      <trkpt lat="29.19605" lon="-13.47928">
        <ele>356.8</ele>
        <time>2021-07-03 13:50:54</time>
      </trkpt>
      <trkpt lat="29.19606" lon="-13.47923">
        <ele>356.8</ele>
        <time>2021-07-03 13:50:55</time>
      </trkpt>
      <trkpt lat="29.19607" lon="-13.47918">
        <ele>356.8</ele>
        <time>2021-07-03 13:50:56</time>
      </trkpt>
      <trkpt lat="29.19607" lon="-13.47914">
        <ele>357</ele>
        <time>2021-07-03 13:50:57</time>
      </trkpt>
      <trkpt lat="29.19607" lon="-13.47909">
        <ele>357</ele>
        <time>2021-07-03 13:50:58</time>
      </trkpt>
      <trkpt lat="29.19608" lon="-13.47904">
        <ele>357.4</ele>
        <time>2021-07-03 13:50:59</time>
      </trkpt>
      <trkpt lat="29.19608" lon="-13.479">
        <ele>357.4</ele>
        <time>2021-07-03 13:51:00</time>
      </trkpt>
      <trkpt lat="29.19609" lon="-13.47895">
        <ele>357.6</ele>
        <time>2021-07-03 13:51:01</time>
      </trkpt>
      <trkpt lat="29.1961" lon="-13.47891">
        <ele>358</ele>
        <time>2021-07-03 13:51:02</time>
      </trkpt>
      <trkpt lat="29.1961" lon="-13.47887">
        <ele>358.2</ele>
        <time>2021-07-03 13:51:03</time>
      </trkpt>
      <trkpt lat="29.19611" lon="-13.47882">
        <ele>358.4</ele>
        <time>2021-07-03 13:51:04</time>
      </trkpt>
      <trkpt lat="29.19612" lon="-13.47879">
        <ele>358.6</ele>
        <time>2021-07-03 13:51:05</time>
      </trkpt>
      <trkpt lat="29.19612" lon="-13.47875">
        <ele>358.6</ele>
        <time>2021-07-03 13:51:06</time>
      </trkpt>
      <trkpt lat="29.19613" lon="-13.47871">
        <ele>358.8</ele>
        <time>2021-07-03 13:51:07</time>
      </trkpt>
      <trkpt lat="29.19613" lon="-13.47868">
        <ele>358.8</ele>
        <time>2021-07-03 13:51:08</time>
      </trkpt>
      <trkpt lat="29.19613" lon="-13.47866">
        <ele>358.8</ele>
        <time>2021-07-03 13:51:09</time>
      </trkpt>
      <trkpt lat="29.19612" lon="-13.47865">
        <ele>358.8</ele>
        <time>2021-07-03 13:51:10</time>
      </trkpt>
      <trkpt lat="29.19611" lon="-13.47864">
        <ele>358.8</ele>
        <time>2021-07-03 13:51:11</time>
      </trkpt>
      <trkpt lat="29.19609" lon="-13.47865">
        <ele>358.8</ele>
        <time>2021-07-03 13:51:12</time>
      </trkpt>
      <trkpt lat="29.19606" lon="-13.47865">
        <ele>358.6</ele>
        <time>2021-07-03 13:51:13</time>
      </trkpt>
      <trkpt lat="29.19604" lon="-13.47865">
        <ele>358.6</ele>
        <time>2021-07-03 13:51:14</time>
      </trkpt>
      <trkpt lat="29.19601" lon="-13.47865">
        <ele>358.6</ele>
        <time>2021-07-03 13:51:15</time>
      </trkpt>
      <trkpt lat="29.19599" lon="-13.47864">
        <ele>358.6</ele>
        <time>2021-07-03 13:51:16</time>
      </trkpt>
      <trkpt lat="29.19596" lon="-13.47863">
        <ele>358.8</ele>
        <time>2021-07-03 13:51:17</time>
      </trkpt>
      <trkpt lat="29.19594" lon="-13.47862">
        <ele>358.8</ele>
        <time>2021-07-03 13:51:18</time>
      </trkpt>
      <trkpt lat="29.19591" lon="-13.4786">
        <ele>359.2</ele>
        <time>2021-07-03 13:51:19</time>
      </trkpt>
      <trkpt lat="29.19589" lon="-13.47858">
        <ele>359.2</ele>
        <time>2021-07-03 13:51:20</time>
      </trkpt>
      <trkpt lat="29.19587" lon="-13.47857">
        <ele>359.4</ele>
        <time>2021-07-03 13:51:21</time>
      </trkpt>
      <trkpt lat="29.19585" lon="-13.47855">
        <ele>359.4</ele>
        <time>2021-07-03 13:51:22</time>
      </trkpt>
      <trkpt lat="29.19582" lon="-13.47853">
        <ele>359.4</ele>
        <time>2021-07-03 13:51:23</time>
      </trkpt>
      <trkpt lat="29.1958" lon="-13.47852">
        <ele>359.6</ele>
        <time>2021-07-03 13:51:24</time>
      </trkpt>
      <trkpt lat="29.19578" lon="-13.4785">
        <ele>359.6</ele>
        <time>2021-07-03 13:51:25</time>
      </trkpt>
      <trkpt lat="29.19576" lon="-13.47849">
        <ele>359.6</ele>
        <time>2021-07-03 13:51:26</time>
      </trkpt>
      <trkpt lat="29.19573" lon="-13.47848">
        <ele>359.6</ele>
        <time>2021-07-03 13:51:27</time>
      </trkpt>
      <trkpt lat="29.19571" lon="-13.47846">
        <ele>360</ele>
        <time>2021-07-03 13:51:28</time>
      </trkpt>
      <trkpt lat="29.19568" lon="-13.47845">
        <ele>360</ele>
        <time>2021-07-03 13:51:29</time>
      </trkpt>
      <trkpt lat="29.19566" lon="-13.47844">
        <ele>360</ele>
        <time>2021-07-03 13:51:30</time>
      </trkpt>
      <trkpt lat="29.19564" lon="-13.47842">
        <ele>360.2</ele>
        <time>2021-07-03 13:51:31</time>
      </trkpt>
      <trkpt lat="29.19562" lon="-13.47839">
        <ele>360.2</ele>
        <time>2021-07-03 13:51:32</time>
      </trkpt>
      <trkpt lat="29.19561" lon="-13.47837">
        <ele>360.4</ele>
        <time>2021-07-03 13:51:33</time>
      </trkpt>
      <trkpt lat="29.19559" lon="-13.47834">
        <ele>360.4</ele>
        <time>2021-07-03 13:51:34</time>
      </trkpt>
      <trkpt lat="29.19558" lon="-13.47832">
        <ele>360.8</ele>
        <time>2021-07-03 13:51:35</time>
      </trkpt>
      <trkpt lat="29.19556" lon="-13.47829">
        <ele>361</ele>
        <time>2021-07-03 13:51:36</time>
      </trkpt>
      <trkpt lat="29.19555" lon="-13.47827">
        <ele>361.4</ele>
        <time>2021-07-03 13:51:37</time>
      </trkpt>
      <trkpt lat="29.19553" lon="-13.47825">
        <ele>361.6</ele>
        <time>2021-07-03 13:51:38</time>
      </trkpt>
      <trkpt lat="29.19553" lon="-13.47823">
        <ele>361.8</ele>
        <time>2021-07-03 13:51:39</time>
      </trkpt>
      <trkpt lat="29.19553" lon="-13.4782">
        <ele>362</ele>
        <time>2021-07-03 13:51:40</time>
      </trkpt>
      <trkpt lat="29.19553" lon="-13.47816">
        <ele>362.2</ele>
        <time>2021-07-03 13:51:41</time>
      </trkpt>
      <trkpt lat="29.19553" lon="-13.47813">
        <ele>362.4</ele>
        <time>2021-07-03 13:51:42</time>
      </trkpt>
      <trkpt lat="29.19554" lon="-13.4781">
        <ele>362.4</ele>
        <time>2021-07-03 13:51:43</time>
      </trkpt>
      <trkpt lat="29.19555" lon="-13.47807">
        <ele>362.8</ele>
        <time>2021-07-03 13:51:44</time>
      </trkpt>
      <trkpt lat="29.19556" lon="-13.47803">
        <ele>362.8</ele>
        <time>2021-07-03 13:51:45</time>
      </trkpt>
      <trkpt lat="29.19556" lon="-13.47799">
        <ele>363</ele>
        <time>2021-07-03 13:51:46</time>
      </trkpt>
      <trkpt lat="29.19555" lon="-13.47796">
        <ele>363</ele>
        <time>2021-07-03 13:51:47</time>
      </trkpt>
      <trkpt lat="29.19555" lon="-13.47792">
        <ele>363</ele>
        <time>2021-07-03 13:51:48</time>
      </trkpt>
      <trkpt lat="29.19554" lon="-13.47789">
        <ele>363</ele>
        <time>2021-07-03 13:51:49</time>
      </trkpt>
      <trkpt lat="29.19552" lon="-13.47785">
        <ele>362.8</ele>
        <time>2021-07-03 13:51:50</time>
      </trkpt>
      <trkpt lat="29.1955" lon="-13.47782">
        <ele>362.6</ele>
        <time>2021-07-03 13:51:51</time>
      </trkpt>
      <trkpt lat="29.19549" lon="-13.47779">
        <ele>362.6</ele>
        <time>2021-07-03 13:51:52</time>
      </trkpt>
      <trkpt lat="29.19547" lon="-13.47776">
        <ele>362.4</ele>
        <time>2021-07-03 13:51:53</time>
      </trkpt>
      <trkpt lat="29.19546" lon="-13.47773">
        <ele>362.4</ele>
        <time>2021-07-03 13:51:54</time>
      </trkpt>
      <trkpt lat="29.19544" lon="-13.47771">
        <ele>362.4</ele>
        <time>2021-07-03 13:51:55</time>
      </trkpt>
      <trkpt lat="29.19543" lon="-13.47768">
        <ele>362.4</ele>
        <time>2021-07-03 13:51:56</time>
      </trkpt>
      <trkpt lat="29.19542" lon="-13.47766">
        <ele>362.4</ele>
        <time>2021-07-03 13:51:57</time>
      </trkpt>
      <trkpt lat="29.19541" lon="-13.47765">
        <ele>361.8</ele>
        <time>2021-07-03 13:51:58</time>
      </trkpt>
      <trkpt lat="29.1954" lon="-13.47762">
        <ele>362</ele>
        <time>2021-07-03 13:51:59</time>
      </trkpt>
      <trkpt lat="29.19539" lon="-13.47761">
        <ele>361.8</ele>
        <time>2021-07-03 13:52:00</time>
      </trkpt>
      <trkpt lat="29.19538" lon="-13.47759">
        <ele>362.2</ele>
        <time>2021-07-03 13:52:01</time>
      </trkpt>
      <trkpt lat="29.19537" lon="-13.47758">
        <ele>362.4</ele>
        <time>2021-07-03 13:52:02</time>
      </trkpt>
      <trkpt lat="29.19536" lon="-13.47757">
        <ele>362.6</ele>
        <time>2021-07-03 13:52:03</time>
      </trkpt>
      <trkpt lat="29.19535" lon="-13.47756">
        <ele>362.6</ele>
        <time>2021-07-03 13:52:04</time>
      </trkpt>
      <trkpt lat="29.19535" lon="-13.47755">
        <ele>363</ele>
        <time>2021-07-03 13:52:05</time>
      </trkpt>
      <trkpt lat="29.19534" lon="-13.47754">
        <ele>363</ele>
        <time>2021-07-03 13:52:06</time>
      </trkpt>
      <trkpt lat="29.19533" lon="-13.47753">
        <ele>363</ele>
        <time>2021-07-03 13:52:07</time>
      </trkpt>
      <trkpt lat="29.19531" lon="-13.47751">
        <ele>363.2</ele>
        <time>2021-07-03 13:52:08</time>
      </trkpt>
      <trkpt lat="29.1953" lon="-13.4775">
        <ele>363.2</ele>
        <time>2021-07-03 13:52:09</time>
      </trkpt>
      <trkpt lat="29.19528" lon="-13.47749">
        <ele>363.8</ele>
        <time>2021-07-03 13:52:10</time>
      </trkpt>
      <trkpt lat="29.19526" lon="-13.47748">
        <ele>364</ele>
        <time>2021-07-03 13:52:11</time>
      </trkpt>
      <trkpt lat="29.19524" lon="-13.47748">
        <ele>364.2</ele>
        <time>2021-07-03 13:52:12</time>
      </trkpt>
      <trkpt lat="29.19521" lon="-13.47747">
        <ele>364.4</ele>
        <time>2021-07-03 13:52:13</time>
      </trkpt>
      <trkpt lat="29.1952" lon="-13.47746">
        <ele>364.8</ele>
        <time>2021-07-03 13:52:14</time>
      </trkpt>
      <trkpt lat="29.19517" lon="-13.47746">
        <ele>364.8</ele>
        <time>2021-07-03 13:52:15</time>
      </trkpt>
      <trkpt lat="29.19515" lon="-13.47745">
        <ele>365.2</ele>
        <time>2021-07-03 13:52:16</time>
      </trkpt>
      <trkpt lat="29.19512" lon="-13.47745">
        <ele>365.4</ele>
        <time>2021-07-03 13:52:17</time>
      </trkpt>
      <trkpt lat="29.1951" lon="-13.47745">
        <ele>365.6</ele>
        <time>2021-07-03 13:52:18</time>
      </trkpt>
      <trkpt lat="29.19507" lon="-13.47745">
        <ele>365.8</ele>
        <time>2021-07-03 13:52:19</time>
      </trkpt>
      <trkpt lat="29.19505" lon="-13.47745">
        <ele>366.2</ele>
        <time>2021-07-03 13:52:20</time>
      </trkpt>
      <trkpt lat="29.19503" lon="-13.47745">
        <ele>366.4</ele>
        <time>2021-07-03 13:52:21</time>
      </trkpt>
      <trkpt lat="29.195" lon="-13.47744">
        <ele>366.8</ele>
        <time>2021-07-03 13:52:22</time>
      </trkpt>
      <trkpt lat="29.19498" lon="-13.47744">
        <ele>367.2</ele>
        <time>2021-07-03 13:52:23</time>
      </trkpt>
      <trkpt lat="29.19495" lon="-13.47743">
        <ele>367.8</ele>
        <time>2021-07-03 13:52:24</time>
      </trkpt>
      <trkpt lat="29.19493" lon="-13.47743">
        <ele>368.2</ele>
        <time>2021-07-03 13:52:25</time>
      </trkpt>
      <trkpt lat="29.1949" lon="-13.47742">
        <ele>368.8</ele>
        <time>2021-07-03 13:52:26</time>
      </trkpt>
      <trkpt lat="29.19488" lon="-13.47742">
        <ele>369.2</ele>
        <time>2021-07-03 13:52:27</time>
      </trkpt>
      <trkpt lat="29.19486" lon="-13.47742">
        <ele>369.8</ele>
        <time>2021-07-03 13:52:28</time>
      </trkpt>
      <trkpt lat="29.19483" lon="-13.47741">
        <ele>370.4</ele>
        <time>2021-07-03 13:52:29</time>
      </trkpt>
      <trkpt lat="29.19481" lon="-13.47741">
        <ele>370.8</ele>
        <time>2021-07-03 13:52:30</time>
      </trkpt>
      <trkpt lat="29.19479" lon="-13.47741">
        <ele>371.2</ele>
        <time>2021-07-03 13:52:31</time>
      </trkpt>
      <trkpt lat="29.19476" lon="-13.47741">
        <ele>371.6</ele>
        <time>2021-07-03 13:52:32</time>
      </trkpt>
      <trkpt lat="29.19474" lon="-13.47742">
        <ele>372</ele>
        <time>2021-07-03 13:52:33</time>
      </trkpt>
      <trkpt lat="29.19472" lon="-13.47742">
        <ele>372.2</ele>
        <time>2021-07-03 13:52:34</time>
      </trkpt>
      <trkpt lat="29.1947" lon="-13.47742">
        <ele>372.6</ele>
        <time>2021-07-03 13:52:35</time>
      </trkpt>
      <trkpt lat="29.19467" lon="-13.47742">
        <ele>372.6</ele>
        <time>2021-07-03 13:52:36</time>
      </trkpt>
      <trkpt lat="29.19464" lon="-13.47742">
        <ele>372.8</ele>
        <time>2021-07-03 13:52:37</time>
      </trkpt>
      <trkpt lat="29.19462" lon="-13.47743">
        <ele>372.8</ele>
        <time>2021-07-03 13:52:38</time>
      </trkpt>
      <trkpt lat="29.19459" lon="-13.47744">
        <ele>372.8</ele>
        <time>2021-07-03 13:52:39</time>
      </trkpt>
      <trkpt lat="29.19456" lon="-13.47746">
        <ele>372.8</ele>
        <time>2021-07-03 13:52:40</time>
      </trkpt>
      <trkpt lat="29.19454" lon="-13.47748">
        <ele>372.8</ele>
        <time>2021-07-03 13:52:41</time>
      </trkpt>
      <trkpt lat="29.19452" lon="-13.47751">
        <ele>372.8</ele>
        <time>2021-07-03 13:52:42</time>
      </trkpt>
      <trkpt lat="29.19449" lon="-13.47752">
        <ele>372.6</ele>
        <time>2021-07-03 13:52:43</time>
      </trkpt>
      <trkpt lat="29.19447" lon="-13.47753">
        <ele>372.6</ele>
        <time>2021-07-03 13:52:44</time>
      </trkpt>
      <trkpt lat="29.19444" lon="-13.47753">
        <ele>372.6</ele>
        <time>2021-07-03 13:52:45</time>
      </trkpt>
      <trkpt lat="29.19441" lon="-13.47754">
        <ele>372.6</ele>
        <time>2021-07-03 13:52:46</time>
      </trkpt>
      <trkpt lat="29.19437" lon="-13.47755">
        <ele>372.6</ele>
        <time>2021-07-03 13:52:47</time>
      </trkpt>
      <trkpt lat="29.19433" lon="-13.47756">
        <ele>372.6</ele>
        <time>2021-07-03 13:52:48</time>
      </trkpt>
      <trkpt lat="29.1943" lon="-13.47756">
        <ele>372.6</ele>
        <time>2021-07-03 13:52:49</time>
      </trkpt>
      <trkpt lat="29.19426" lon="-13.47757">
        <ele>372.6</ele>
        <time>2021-07-03 13:52:50</time>
      </trkpt>
      <trkpt lat="29.19422" lon="-13.47758">
        <ele>372.6</ele>
        <time>2021-07-03 13:52:51</time>
      </trkpt>
      <trkpt lat="29.19419" lon="-13.47759">
        <ele>372.6</ele>
        <time>2021-07-03 13:52:52</time>
      </trkpt>
      <trkpt lat="29.19415" lon="-13.47761">
        <ele>372.6</ele>
        <time>2021-07-03 13:52:53</time>
      </trkpt>
      <trkpt lat="29.19412" lon="-13.47763">
        <ele>372.6</ele>
        <time>2021-07-03 13:52:54</time>
      </trkpt>
      <trkpt lat="29.19409" lon="-13.47766">
        <ele>372.2</ele>
        <time>2021-07-03 13:52:55</time>
      </trkpt>
      <trkpt lat="29.19407" lon="-13.4777">
        <ele>372</ele>
        <time>2021-07-03 13:52:56</time>
      </trkpt>
      <trkpt lat="29.19405" lon="-13.47773">
        <ele>372</ele>
        <time>2021-07-03 13:52:57</time>
      </trkpt>
      <trkpt lat="29.19403" lon="-13.47777">
        <ele>372</ele>
        <time>2021-07-03 13:52:58</time>
      </trkpt>
      <trkpt lat="29.19401" lon="-13.4778">
        <ele>372</ele>
        <time>2021-07-03 13:52:59</time>
      </trkpt>
      <trkpt lat="29.19399" lon="-13.47783">
        <ele>372</ele>
        <time>2021-07-03 13:53:00</time>
      </trkpt>
      <trkpt lat="29.19397" lon="-13.47786">
        <ele>372</ele>
        <time>2021-07-03 13:53:01</time>
      </trkpt>
      <trkpt lat="29.19395" lon="-13.47789">
        <ele>372</ele>
        <time>2021-07-03 13:53:02</time>
      </trkpt>
      <trkpt lat="29.19393" lon="-13.47791">
        <ele>372</ele>
        <time>2021-07-03 13:53:03</time>
      </trkpt>
      <trkpt lat="29.19391" lon="-13.47793">
        <ele>372</ele>
        <time>2021-07-03 13:53:04</time>
      </trkpt>
      <trkpt lat="29.19388" lon="-13.47795">
        <ele>372</ele>
        <time>2021-07-03 13:53:05</time>
      </trkpt>
      <trkpt lat="29.19386" lon="-13.47797">
        <ele>372</ele>
        <time>2021-07-03 13:53:06</time>
      </trkpt>
      <trkpt lat="29.19384" lon="-13.47799">
        <ele>372.2</ele>
        <time>2021-07-03 13:53:07</time>
      </trkpt>
      <trkpt lat="29.19382" lon="-13.478">
        <ele>372.2</ele>
        <time>2021-07-03 13:53:08</time>
      </trkpt>
      <trkpt lat="29.1938" lon="-13.47802">
        <ele>372.2</ele>
        <time>2021-07-03 13:53:09</time>
      </trkpt>
      <trkpt lat="29.19379" lon="-13.47803">
        <ele>372.2</ele>
        <time>2021-07-03 13:53:10</time>
      </trkpt>
      <trkpt lat="29.1938" lon="-13.47805">
        <ele>372.2</ele>
        <time>2021-07-03 13:53:11</time>
      </trkpt>
      <trkpt lat="29.19382" lon="-13.47805">
        <ele>372.2</ele>
        <time>2021-07-03 13:53:12</time>
      </trkpt>
      <trkpt lat="29.19385" lon="-13.47803">
        <ele>372.2</ele>
        <time>2021-07-03 13:53:13</time>
      </trkpt>
      <trkpt lat="29.19386" lon="-13.47801">
        <ele>372</ele>
        <time>2021-07-03 13:53:14</time>
      </trkpt>
      <trkpt lat="29.19388" lon="-13.47798">
        <ele>372</ele>
        <time>2021-07-03 13:53:15</time>
      </trkpt>
      <trkpt lat="29.1939" lon="-13.47796">
        <ele>372</ele>
        <time>2021-07-03 13:53:16</time>
      </trkpt>
      <trkpt lat="29.19392" lon="-13.47795">
        <ele>372</ele>
        <time>2021-07-03 13:53:17</time>
      </trkpt>
      <trkpt lat="29.19394" lon="-13.47793">
        <ele>372</ele>
        <time>2021-07-03 13:53:18</time>
      </trkpt>
      <trkpt lat="29.19396" lon="-13.47791">
        <ele>372.4</ele>
        <time>2021-07-03 13:53:19</time>
      </trkpt>
      <trkpt lat="29.19398" lon="-13.4779">
        <ele>372.6</ele>
        <time>2021-07-03 13:53:20</time>
      </trkpt>
      <trkpt lat="29.19398" lon="-13.47789">
        <ele>372.8</ele>
        <time>2021-07-03 13:53:21</time>
      </trkpt>
      <trkpt lat="29.19398" lon="-13.47789">
        <ele>373.2</ele>
        <time>2021-07-03 13:53:22</time>
      </trkpt>
      <trkpt lat="29.19398" lon="-13.47789">
        <ele>373.2</ele>
        <time>2021-07-03 13:53:23</time>
      </trkpt>
      <trkpt lat="29.19398" lon="-13.47787">
        <ele>375.2</ele>
        <time>2021-07-03 13:53:24</time>
      </trkpt>
      <trkpt lat="29.19399" lon="-13.47786">
        <ele>375.2</ele>
        <time>2021-07-03 13:53:25</time>
      </trkpt>
      <trkpt lat="29.194" lon="-13.47784">
        <ele>375.2</ele>
        <time>2021-07-03 13:53:26</time>
      </trkpt>
      <trkpt lat="29.19402" lon="-13.47782">
        <ele>375</ele>
        <time>2021-07-03 13:53:27</time>
      </trkpt>
      <trkpt lat="29.19403" lon="-13.47779">
        <ele>375</ele>
        <time>2021-07-03 13:53:28</time>
      </trkpt>
      <trkpt lat="29.19405" lon="-13.47776">
        <ele>375</ele>
        <time>2021-07-03 13:53:29</time>
      </trkpt>
      <trkpt lat="29.19407" lon="-13.47773">
        <ele>375</ele>
        <time>2021-07-03 13:53:30</time>
      </trkpt>
      <trkpt lat="29.19409" lon="-13.4777">
        <ele>375</ele>
        <time>2021-07-03 13:53:31</time>
      </trkpt>
      <trkpt lat="29.19411" lon="-13.47767">
        <ele>375</ele>
        <time>2021-07-03 13:53:32</time>
      </trkpt>
      <trkpt lat="29.19414" lon="-13.47764">
        <ele>375</ele>
        <time>2021-07-03 13:53:33</time>
      </trkpt>
      <trkpt lat="29.19416" lon="-13.4776">
        <ele>374.8</ele>
        <time>2021-07-03 13:53:34</time>
      </trkpt>
      <trkpt lat="29.1942" lon="-13.47758">
        <ele>374.8</ele>
        <time>2021-07-03 13:53:35</time>
      </trkpt>
      <trkpt lat="29.19424" lon="-13.47756">
        <ele>374.8</ele>
        <time>2021-07-03 13:53:36</time>
      </trkpt>
      <trkpt lat="29.19428" lon="-13.47755">
        <ele>374.6</ele>
        <time>2021-07-03 13:53:37</time>
      </trkpt>
      <trkpt lat="29.19432" lon="-13.47754">
        <ele>374.6</ele>
        <time>2021-07-03 13:53:38</time>
      </trkpt>
      <trkpt lat="29.19435" lon="-13.47753">
        <ele>374.6</ele>
        <time>2021-07-03 13:53:39</time>
      </trkpt>
      <trkpt lat="29.19439" lon="-13.47752">
        <ele>374.6</ele>
        <time>2021-07-03 13:53:40</time>
      </trkpt>
      <trkpt lat="29.19442" lon="-13.47751">
        <ele>374.8</ele>
        <time>2021-07-03 13:53:41</time>
      </trkpt>
      <trkpt lat="29.19445" lon="-13.47751">
        <ele>374.8</ele>
        <time>2021-07-03 13:53:42</time>
      </trkpt>
      <trkpt lat="29.19449" lon="-13.47751">
        <ele>374.8</ele>
        <time>2021-07-03 13:53:43</time>
      </trkpt>
      <trkpt lat="29.19452" lon="-13.47753">
        <ele>374.8</ele>
        <time>2021-07-03 13:53:44</time>
      </trkpt>
      <trkpt lat="29.19454" lon="-13.47757">
        <ele>374.8</ele>
        <time>2021-07-03 13:53:45</time>
      </trkpt>
      <trkpt lat="29.19455" lon="-13.47762">
        <ele>374.8</ele>
        <time>2021-07-03 13:53:46</time>
      </trkpt>
      <trkpt lat="29.19454" lon="-13.47767">
        <ele>375.8</ele>
        <time>2021-07-03 13:53:47</time>
      </trkpt>
      <trkpt lat="29.19453" lon="-13.47771">
        <ele>375.8</ele>
        <time>2021-07-03 13:53:48</time>
      </trkpt>
      <trkpt lat="29.19452" lon="-13.47775">
        <ele>375.8</ele>
        <time>2021-07-03 13:56:53</time>
      </trkpt>
      <trkpt lat="29.19452" lon="-13.47779">
        <ele>375.8</ele>
        <time>2021-07-03 13:56:54</time>
      </trkpt>
      <trkpt lat="29.19451" lon="-13.47783">
        <ele>375.8</ele>
        <time>2021-07-03 13:56:55</time>
      </trkpt>
      <trkpt lat="29.19451" lon="-13.47788">
        <ele>375.8</ele>
        <time>2021-07-03 13:56:56</time>
      </trkpt>
      <trkpt lat="29.19451" lon="-13.47793">
        <ele>375.8</ele>
        <time>2021-07-03 13:56:57</time>
      </trkpt>
      <trkpt lat="29.1945" lon="-13.47798">
        <ele>375.8</ele>
        <time>2021-07-03 13:56:58</time>
      </trkpt>
      <trkpt lat="29.19449" lon="-13.47803">
        <ele>375.8</ele>
        <time>2021-07-03 13:56:59</time>
      </trkpt>
      <trkpt lat="29.19448" lon="-13.47808">
        <ele>375.8</ele>
        <time>2021-07-03 13:57:00</time>
      </trkpt>
      <trkpt lat="29.19447" lon="-13.47813">
        <ele>375.8</ele>
        <time>2021-07-03 13:57:01</time>
      </trkpt>
      <trkpt lat="29.19446" lon="-13.47818">
        <ele>375.8</ele>
        <time>2021-07-03 13:57:02</time>
      </trkpt>
      <trkpt lat="29.19445" lon="-13.47822">
        <ele>375.8</ele>
        <time>2021-07-03 13:57:03</time>
      </trkpt>
      <trkpt lat="29.19444" lon="-13.47827">
        <ele>375.8</ele>
        <time>2021-07-03 13:57:04</time>
      </trkpt>
      <trkpt lat="29.19443" lon="-13.47832">
        <ele>375.8</ele>
        <time>2021-07-03 13:57:05</time>
      </trkpt>
      <trkpt lat="29.19441" lon="-13.47836">
        <ele>375.8</ele>
        <time>2021-07-03 13:57:06</time>
      </trkpt>
      <trkpt lat="29.19439" lon="-13.47841">
        <ele>375.8</ele>
        <time>2021-07-03 13:57:07</time>
      </trkpt>
      <trkpt lat="29.19438" lon="-13.47845">
        <ele>375.8</ele>
        <time>2021-07-03 13:57:08</time>
      </trkpt>
      <trkpt lat="29.19436" lon="-13.4785">
        <ele>375.8</ele>
        <time>2021-07-03 13:57:09</time>
      </trkpt>
      <trkpt lat="29.19435" lon="-13.47854">
        <ele>375.8</ele>
        <time>2021-07-03 13:57:10</time>
      </trkpt>
      <trkpt lat="29.19433" lon="-13.47858">
        <ele>375.8</ele>
        <time>2021-07-03 13:57:11</time>
      </trkpt>
      <trkpt lat="29.19432" lon="-13.47863">
        <ele>376</ele>
        <time>2021-07-03 13:57:12</time>
      </trkpt>
      <trkpt lat="29.19431" lon="-13.47867">
        <ele>376</ele>
        <time>2021-07-03 13:57:13</time>
      </trkpt>
      <trkpt lat="29.1943" lon="-13.47872">
        <ele>376</ele>
        <time>2021-07-03 13:57:14</time>
      </trkpt>
      <trkpt lat="29.19428" lon="-13.47876">
        <ele>376.4</ele>
        <time>2021-07-03 13:57:15</time>
      </trkpt>
      <trkpt lat="29.19427" lon="-13.4788">
        <ele>376.6</ele>
        <time>2021-07-03 13:57:16</time>
      </trkpt>
      <trkpt lat="29.19426" lon="-13.47884">
        <ele>376.6</ele>
        <time>2021-07-03 13:57:17</time>
      </trkpt>
      <trkpt lat="29.19425" lon="-13.47888">
        <ele>377</ele>
        <time>2021-07-03 13:57:18</time>
      </trkpt>
      <trkpt lat="29.19424" lon="-13.47893">
        <ele>377</ele>
        <time>2021-07-03 13:57:19</time>
      </trkpt>
      <trkpt lat="29.19423" lon="-13.47897">
        <ele>377.2</ele>
        <time>2021-07-03 13:57:20</time>
      </trkpt>
      <trkpt lat="29.19423" lon="-13.47901">
        <ele>377.2</ele>
        <time>2021-07-03 13:57:21</time>
      </trkpt>
      <trkpt lat="29.19421" lon="-13.47905">
        <ele>377.2</ele>
        <time>2021-07-03 13:57:22</time>
      </trkpt>
      <trkpt lat="29.19421" lon="-13.47909">
        <ele>377.2</ele>
        <time>2021-07-03 13:57:23</time>
      </trkpt>
      <trkpt lat="29.1942" lon="-13.47913">
        <ele>377.2</ele>
        <time>2021-07-03 13:57:24</time>
      </trkpt>
      <trkpt lat="29.19419" lon="-13.47917">
        <ele>377.2</ele>
        <time>2021-07-03 13:57:25</time>
      </trkpt>
      <trkpt lat="29.19419" lon="-13.4792">
        <ele>377.2</ele>
        <time>2021-07-03 13:57:26</time>
      </trkpt>
      <trkpt lat="29.19419" lon="-13.47924">
        <ele>377.2</ele>
        <time>2021-07-03 13:57:27</time>
      </trkpt>
      <trkpt lat="29.19418" lon="-13.47928">
        <ele>377.2</ele>
        <time>2021-07-03 13:57:28</time>
      </trkpt>
      <trkpt lat="29.19418" lon="-13.47932">
        <ele>377.2</ele>
        <time>2021-07-03 13:57:29</time>
      </trkpt>
      <trkpt lat="29.19418" lon="-13.47936">
        <ele>377.2</ele>
        <time>2021-07-03 13:57:30</time>
      </trkpt>
      <trkpt lat="29.19418" lon="-13.4794">
        <ele>377.2</ele>
        <time>2021-07-03 13:57:31</time>
      </trkpt>
      <trkpt lat="29.19417" lon="-13.47944">
        <ele>377.6</ele>
        <time>2021-07-03 13:57:32</time>
      </trkpt>
      <trkpt lat="29.19418" lon="-13.47948">
        <ele>377.6</ele>
        <time>2021-07-03 13:57:33</time>
      </trkpt>
      <trkpt lat="29.19418" lon="-13.47951">
        <ele>378</ele>
        <time>2021-07-03 13:57:34</time>
      </trkpt>
      <trkpt lat="29.19418" lon="-13.47954">
        <ele>378</ele>
        <time>2021-07-03 13:57:35</time>
      </trkpt>
      <trkpt lat="29.19418" lon="-13.47957">
        <ele>378</ele>
        <time>2021-07-03 13:57:36</time>
      </trkpt>
      <trkpt lat="29.19418" lon="-13.47959">
        <ele>378</ele>
        <time>2021-07-03 13:57:37</time>
      </trkpt>
      <trkpt lat="29.19417" lon="-13.47962">
        <ele>377.8</ele>
        <time>2021-07-03 13:57:38</time>
      </trkpt>
      <trkpt lat="29.19416" lon="-13.47964">
        <ele>377.6</ele>
        <time>2021-07-03 13:57:39</time>
      </trkpt>
      <trkpt lat="29.19413" lon="-13.47964">
        <ele>377.2</ele>
        <time>2021-07-03 13:57:40</time>
      </trkpt>
      <trkpt lat="29.1941" lon="-13.47964">
        <ele>377</ele>
        <time>2021-07-03 13:57:41</time>
      </trkpt>
      <trkpt lat="29.19407" lon="-13.47963">
        <ele>376.8</ele>
        <time>2021-07-03 13:57:42</time>
      </trkpt>
      <trkpt lat="29.19404" lon="-13.47962">
        <ele>376.8</ele>
        <time>2021-07-03 13:57:43</time>
      </trkpt>
      <trkpt lat="29.194" lon="-13.47961">
        <ele>376.6</ele>
        <time>2021-07-03 13:57:44</time>
      </trkpt>
      <trkpt lat="29.19397" lon="-13.47961">
        <ele>376.6</ele>
        <time>2021-07-03 13:57:45</time>
      </trkpt>
      <trkpt lat="29.19394" lon="-13.4796">
        <ele>376.6</ele>
        <time>2021-07-03 13:57:46</time>
      </trkpt>
      <trkpt lat="29.19391" lon="-13.4796">
        <ele>376.6</ele>
        <time>2021-07-03 13:57:47</time>
      </trkpt>
      <trkpt lat="29.19388" lon="-13.47959">
        <ele>376.6</ele>
        <time>2021-07-03 13:57:48</time>
      </trkpt>
      <trkpt lat="29.19385" lon="-13.47958">
        <ele>376.6</ele>
        <time>2021-07-03 13:57:49</time>
      </trkpt>
      <trkpt lat="29.19382" lon="-13.47958">
        <ele>377</ele>
        <time>2021-07-03 13:57:50</time>
      </trkpt>
      <trkpt lat="29.19379" lon="-13.47957">
        <ele>377</ele>
        <time>2021-07-03 13:57:51</time>
      </trkpt>
      <trkpt lat="29.19376" lon="-13.47957">
        <ele>377.4</ele>
        <time>2021-07-03 13:57:52</time>
      </trkpt>
      <trkpt lat="29.19373" lon="-13.47957">
        <ele>377.4</ele>
        <time>2021-07-03 13:57:53</time>
      </trkpt>
      <trkpt lat="29.19369" lon="-13.47956">
        <ele>377.8</ele>
        <time>2021-07-03 13:57:54</time>
      </trkpt>
      <trkpt lat="29.19366" lon="-13.47956">
        <ele>377.8</ele>
        <time>2021-07-03 13:57:55</time>
      </trkpt>
      <trkpt lat="29.19363" lon="-13.47956">
        <ele>378</ele>
        <time>2021-07-03 13:57:56</time>
      </trkpt>
      <trkpt lat="29.1936" lon="-13.47956">
        <ele>378</ele>
        <time>2021-07-03 13:57:57</time>
      </trkpt>
      <trkpt lat="29.19357" lon="-13.47955">
        <ele>378</ele>
        <time>2021-07-03 13:57:58</time>
      </trkpt>
      <trkpt lat="29.19354" lon="-13.47955">
        <ele>378.2</ele>
        <time>2021-07-03 13:57:59</time>
      </trkpt>
      <trkpt lat="29.19351" lon="-13.47954">
        <ele>378.2</ele>
        <time>2021-07-03 13:58:00</time>
      </trkpt>
      <trkpt lat="29.19348" lon="-13.47954">
        <ele>378.4</ele>
        <time>2021-07-03 13:58:01</time>
      </trkpt>
      <trkpt lat="29.19345" lon="-13.47953">
        <ele>378.4</ele>
        <time>2021-07-03 13:58:02</time>
      </trkpt>
      <trkpt lat="29.19341" lon="-13.47952">
        <ele>378.8</ele>
        <time>2021-07-03 13:58:03</time>
      </trkpt>
      <trkpt lat="29.19338" lon="-13.47951">
        <ele>378.8</ele>
        <time>2021-07-03 13:58:04</time>
      </trkpt>
      <trkpt lat="29.19334" lon="-13.4795">
        <ele>378.8</ele>
        <time>2021-07-03 13:58:05</time>
      </trkpt>
      <trkpt lat="29.19331" lon="-13.47949">
        <ele>379</ele>
        <time>2021-07-03 13:58:06</time>
      </trkpt>
      <trkpt lat="29.19327" lon="-13.47949">
        <ele>379</ele>
        <time>2021-07-03 13:58:07</time>
      </trkpt>
      <trkpt lat="29.19324" lon="-13.47948">
        <ele>379</ele>
        <time>2021-07-03 13:58:08</time>
      </trkpt>
      <trkpt lat="29.1932" lon="-13.47947">
        <ele>379.4</ele>
        <time>2021-07-03 13:58:09</time>
      </trkpt>
      <trkpt lat="29.19317" lon="-13.47947">
        <ele>379.8</ele>
        <time>2021-07-03 13:58:10</time>
      </trkpt>
      <trkpt lat="29.19314" lon="-13.47946">
        <ele>380</ele>
        <time>2021-07-03 13:58:11</time>
      </trkpt>
      <trkpt lat="29.19311" lon="-13.47945">
        <ele>380</ele>
        <time>2021-07-03 13:58:12</time>
      </trkpt>
      <trkpt lat="29.19308" lon="-13.47945">
        <ele>380.4</ele>
        <time>2021-07-03 13:58:13</time>
      </trkpt>
      <trkpt lat="29.19305" lon="-13.47944">
        <ele>380.6</ele>
        <time>2021-07-03 13:58:14</time>
      </trkpt>
      <trkpt lat="29.19301" lon="-13.47943">
        <ele>380.6</ele>
        <time>2021-07-03 13:58:15</time>
      </trkpt>
      <trkpt lat="29.19298" lon="-13.47942">
        <ele>380.8</ele>
        <time>2021-07-03 13:58:16</time>
      </trkpt>
      <trkpt lat="29.19295" lon="-13.47942">
        <ele>380.8</ele>
        <time>2021-07-03 13:58:17</time>
      </trkpt>
      <trkpt lat="29.19293" lon="-13.47942">
        <ele>380.8</ele>
        <time>2021-07-03 13:58:18</time>
      </trkpt>
      <trkpt lat="29.1929" lon="-13.47942">
        <ele>381</ele>
        <time>2021-07-03 13:58:19</time>
      </trkpt>
      <trkpt lat="29.19288" lon="-13.47941">
        <ele>381</ele>
        <time>2021-07-03 13:58:20</time>
      </trkpt>
      <trkpt lat="29.19285" lon="-13.47941">
        <ele>381.2</ele>
        <time>2021-07-03 13:58:21</time>
      </trkpt>
      <trkpt lat="29.19282" lon="-13.4794">
        <ele>381.2</ele>
        <time>2021-07-03 13:58:22</time>
      </trkpt>
      <trkpt lat="29.19279" lon="-13.4794">
        <ele>381.6</ele>
        <time>2021-07-03 13:58:23</time>
      </trkpt>
      <trkpt lat="29.19276" lon="-13.47939">
        <ele>381.6</ele>
        <time>2021-07-03 13:58:24</time>
      </trkpt>
      <trkpt lat="29.19273" lon="-13.47939">
        <ele>381.6</ele>
        <time>2021-07-03 13:58:25</time>
      </trkpt>
      <trkpt lat="29.19271" lon="-13.47939">
        <ele>381.8</ele>
        <time>2021-07-03 13:58:26</time>
      </trkpt>
      <trkpt lat="29.19269" lon="-13.47938">
        <ele>381.8</ele>
        <time>2021-07-03 13:58:27</time>
      </trkpt>
      <trkpt lat="29.19266" lon="-13.47938">
        <ele>382</ele>
        <time>2021-07-03 13:58:28</time>
      </trkpt>
      <trkpt lat="29.19263" lon="-13.47938">
        <ele>382.2</ele>
        <time>2021-07-03 13:58:29</time>
      </trkpt>
      <trkpt lat="29.1926" lon="-13.4794">
        <ele>382.2</ele>
        <time>2021-07-03 13:58:30</time>
      </trkpt>
      <trkpt lat="29.19258" lon="-13.47942">
        <ele>382.8</ele>
        <time>2021-07-03 13:58:31</time>
      </trkpt>
      <trkpt lat="29.19256" lon="-13.47947">
        <ele>383</ele>
        <time>2021-07-03 13:58:32</time>
      </trkpt>
      <trkpt lat="29.19254" lon="-13.4795">
        <ele>383</ele>
        <time>2021-07-03 13:58:33</time>
      </trkpt>
      <trkpt lat="29.19252" lon="-13.47953">
        <ele>383.2</ele>
        <time>2021-07-03 13:58:34</time>
      </trkpt>
      <trkpt lat="29.19249" lon="-13.47955">
        <ele>383.2</ele>
        <time>2021-07-03 13:58:35</time>
      </trkpt>
      <trkpt lat="29.19246" lon="-13.47956">
        <ele>383.4</ele>
        <time>2021-07-03 13:58:36</time>
      </trkpt>
      <trkpt lat="29.19243" lon="-13.47957">
        <ele>383.4</ele>
        <time>2021-07-03 13:58:37</time>
      </trkpt>
      <trkpt lat="29.19239" lon="-13.47957">
        <ele>383.8</ele>
        <time>2021-07-03 13:58:38</time>
      </trkpt>
      <trkpt lat="29.19236" lon="-13.47958">
        <ele>383.8</ele>
        <time>2021-07-03 13:58:39</time>
      </trkpt>
      <trkpt lat="29.19234" lon="-13.47958">
        <ele>384</ele>
        <time>2021-07-03 13:58:40</time>
      </trkpt>
      <trkpt lat="29.19231" lon="-13.47957">
        <ele>384</ele>
        <time>2021-07-03 13:58:41</time>
      </trkpt>
      <trkpt lat="29.19228" lon="-13.47957">
        <ele>384</ele>
        <time>2021-07-03 13:58:42</time>
      </trkpt>
      <trkpt lat="29.19226" lon="-13.47957">
        <ele>384</ele>
        <time>2021-07-03 13:58:43</time>
      </trkpt>
      <trkpt lat="29.19223" lon="-13.47957">
        <ele>384.4</ele>
        <time>2021-07-03 13:58:44</time>
      </trkpt>
      <trkpt lat="29.1922" lon="-13.47957">
        <ele>384.4</ele>
        <time>2021-07-03 13:58:45</time>
      </trkpt>
      <trkpt lat="29.19218" lon="-13.47957">
        <ele>384.4</ele>
        <time>2021-07-03 13:58:46</time>
      </trkpt>
      <trkpt lat="29.19215" lon="-13.47957">
        <ele>384.4</ele>
        <time>2021-07-03 13:58:47</time>
      </trkpt>
      <trkpt lat="29.19212" lon="-13.47957">
        <ele>384.4</ele>
        <time>2021-07-03 13:58:48</time>
      </trkpt>
      <trkpt lat="29.1921" lon="-13.47956">
        <ele>384.6</ele>
        <time>2021-07-03 13:58:49</time>
      </trkpt>
      <trkpt lat="29.19207" lon="-13.47956">
        <ele>384.6</ele>
        <time>2021-07-03 13:58:50</time>
      </trkpt>
      <trkpt lat="29.19205" lon="-13.47957">
        <ele>384.6</ele>
        <time>2021-07-03 13:58:51</time>
      </trkpt>
      <trkpt lat="29.19202" lon="-13.47957">
        <ele>384.6</ele>
        <time>2021-07-03 13:58:52</time>
      </trkpt>
      <trkpt lat="29.19201" lon="-13.47958">
        <ele>384.6</ele>
        <time>2021-07-03 13:58:53</time>
      </trkpt>
      <trkpt lat="29.192" lon="-13.47958">
        <ele>385</ele>
        <time>2021-07-03 13:58:54</time>
      </trkpt>
      <trkpt lat="29.192" lon="-13.47958">
        <ele>385</ele>
        <time>2021-07-03 13:58:55</time>
      </trkpt>
      <trkpt lat="29.192" lon="-13.47958">
        <ele>385</ele>
        <time>2021-07-03 13:58:56</time>
      </trkpt>
      <trkpt lat="29.192" lon="-13.47958">
        <ele>385</ele>
        <time>2021-07-03 13:58:57</time>
      </trkpt>
      <trkpt lat="29.19199" lon="-13.47958">
        <ele>385.2</ele>
        <time>2021-07-03 13:58:58</time>
      </trkpt>
      <trkpt lat="29.192" lon="-13.47958">
        <ele>384.6</ele>
        <time>2021-07-03 13:58:59</time>
      </trkpt>
      <trkpt lat="29.192" lon="-13.47957">
        <ele>384.2</ele>
        <time>2021-07-03 13:59:00</time>
      </trkpt>
      <trkpt lat="29.19199" lon="-13.47957">
        <ele>384.2</ele>
        <time>2021-07-03 13:59:01</time>
      </trkpt>
      <trkpt lat="29.19198" lon="-13.47958">
        <ele>384.2</ele>
        <time>2021-07-03 13:59:02</time>
      </trkpt>
      <trkpt lat="29.19198" lon="-13.47958">
        <ele>384.2</ele>
        <time>2021-07-03 13:59:03</time>
      </trkpt>
      <trkpt lat="29.19198" lon="-13.47958">
        <ele>384.2</ele>
        <time>2021-07-03 13:59:04</time>
      </trkpt>
      <trkpt lat="29.19197" lon="-13.47958">
        <ele>384.2</ele>
        <time>2021-07-03 13:59:05</time>
      </trkpt>
      <trkpt lat="29.19196" lon="-13.47959">
        <ele>384.6</ele>
        <time>2021-07-03 13:59:06</time>
      </trkpt>
      <trkpt lat="29.19195" lon="-13.47959">
        <ele>384.6</ele>
        <time>2021-07-03 13:59:07</time>
      </trkpt>
      <trkpt lat="29.19194" lon="-13.47958">
        <ele>384.6</ele>
        <time>2021-07-03 13:59:08</time>
      </trkpt>
      <trkpt lat="29.19194" lon="-13.47957">
        <ele>384.6</ele>
        <time>2021-07-03 13:59:09</time>
      </trkpt>
      <trkpt lat="29.19193" lon="-13.47956">
        <ele>384.6</ele>
        <time>2021-07-03 13:59:10</time>
      </trkpt>
      <trkpt lat="29.19193" lon="-13.47955">
        <ele>384.8</ele>
        <time>2021-07-03 13:59:11</time>
      </trkpt>
      <trkpt lat="29.19193" lon="-13.47954">
        <ele>384.8</ele>
        <time>2021-07-03 13:59:12</time>
      </trkpt>
      <trkpt lat="29.19192" lon="-13.47953">
        <ele>384.8</ele>
        <time>2021-07-03 13:59:13</time>
      </trkpt>
      <trkpt lat="29.19191" lon="-13.47953">
        <ele>384.8</ele>
        <time>2021-07-03 13:59:14</time>
      </trkpt>
      <trkpt lat="29.1919" lon="-13.47952">
        <ele>384.8</ele>
        <time>2021-07-03 13:59:15</time>
      </trkpt>
      <trkpt lat="29.19189" lon="-13.47951">
        <ele>384.4</ele>
        <time>2021-07-03 13:59:16</time>
      </trkpt>
      <trkpt lat="29.19188" lon="-13.4795">
        <ele>384.4</ele>
        <time>2021-07-03 13:59:17</time>
      </trkpt>
      <trkpt lat="29.19188" lon="-13.47948">
        <ele>384.4</ele>
        <time>2021-07-03 13:59:18</time>
      </trkpt>
      <trkpt lat="29.19188" lon="-13.47947">
        <ele>384.4</ele>
        <time>2021-07-03 13:59:19</time>
      </trkpt>
      <trkpt lat="29.19188" lon="-13.47945">
        <ele>384.4</ele>
        <time>2021-07-03 13:59:20</time>
      </trkpt>
      <trkpt lat="29.19187" lon="-13.47944">
        <ele>384.4</ele>
        <time>2021-07-03 13:59:21</time>
      </trkpt>
      <trkpt lat="29.19187" lon="-13.47943">
        <ele>384.4</ele>
        <time>2021-07-03 13:59:22</time>
      </trkpt>
      <trkpt lat="29.19186" lon="-13.47942">
        <ele>384.4</ele>
        <time>2021-07-03 13:59:23</time>
      </trkpt>
      <trkpt lat="29.19185" lon="-13.47942">
        <ele>384.4</ele>
        <time>2021-07-03 13:59:24</time>
      </trkpt>
      <trkpt lat="29.19184" lon="-13.47942">
        <ele>384.8</ele>
        <time>2021-07-03 13:59:41</time>
      </trkpt>
      <trkpt lat="29.19183" lon="-13.47941">
        <ele>384.8</ele>
        <time>2021-07-03 13:59:42</time>
      </trkpt>
      <trkpt lat="29.19183" lon="-13.4794">
        <ele>384.8</ele>
        <time>2021-07-03 13:59:43</time>
      </trkpt>
      <trkpt lat="29.19183" lon="-13.47938">
        <ele>384.8</ele>
        <time>2021-07-03 13:59:44</time>
      </trkpt>
      <trkpt lat="29.19183" lon="-13.47937">
        <ele>384.8</ele>
        <time>2021-07-03 13:59:45</time>
      </trkpt>
      <trkpt lat="29.19183" lon="-13.47936">
        <ele>384.6</ele>
        <time>2021-07-03 13:59:46</time>
      </trkpt>
      <trkpt lat="29.19183" lon="-13.47935">
        <ele>384.6</ele>
        <time>2021-07-03 13:59:47</time>
      </trkpt>
      <trkpt lat="29.19182" lon="-13.47934">
        <ele>384.4</ele>
        <time>2021-07-03 13:59:48</time>
      </trkpt>
      <trkpt lat="29.19182" lon="-13.47933">
        <ele>384.4</ele>
        <time>2021-07-03 13:59:49</time>
      </trkpt>
      <trkpt lat="29.19181" lon="-13.47932">
        <ele>384.4</ele>
        <time>2021-07-03 13:59:50</time>
      </trkpt>
      <trkpt lat="29.19181" lon="-13.47931">
        <ele>384.4</ele>
        <time>2021-07-03 13:59:51</time>
      </trkpt>
      <trkpt lat="29.1918" lon="-13.4793">
        <ele>384.4</ele>
        <time>2021-07-03 13:59:52</time>
      </trkpt>
      <trkpt lat="29.19179" lon="-13.47923">
        <ele>384.8</ele>
        <time>2021-07-03 13:59:53</time>
      </trkpt>
      <trkpt lat="29.19179" lon="-13.47922">
        <ele>385.2</ele>
        <time>2021-07-03 13:59:54</time>
      </trkpt>
      <trkpt lat="29.19178" lon="-13.47921">
        <ele>385.2</ele>
        <time>2021-07-03 13:59:55</time>
      </trkpt>
      <trkpt lat="29.19178" lon="-13.47921">
        <ele>385.4</ele>
        <time>2021-07-03 13:59:56</time>
      </trkpt>
      <trkpt lat="29.19177" lon="-13.47921">
        <ele>385.4</ele>
        <time>2021-07-03 13:59:57</time>
      </trkpt>
      <trkpt lat="29.19177" lon="-13.47921">
        <ele>385.6</ele>
        <time>2021-07-03 13:59:58</time>
      </trkpt>
      <trkpt lat="29.19178" lon="-13.47921">
        <ele>385.6</ele>
        <time>2021-07-03 13:59:59</time>
      </trkpt>
      <trkpt lat="29.19176" lon="-13.47922">
        <ele>385.6</ele>
        <time>2021-07-03 14:00:00</time>
      </trkpt>
      <trkpt lat="29.19175" lon="-13.47922">
        <ele>385.4</ele>
        <time>2021-07-03 14:00:01</time>
      </trkpt>
      <trkpt lat="29.19173" lon="-13.47922">
        <ele>385.4</ele>
        <time>2021-07-03 14:00:02</time>
      </trkpt>
      <trkpt lat="29.19172" lon="-13.47921">
        <ele>385.2</ele>
        <time>2021-07-03 14:00:03</time>
      </trkpt>
      <trkpt lat="29.19169" lon="-13.47922">
        <ele>384.8</ele>
        <time>2021-07-03 14:00:04</time>
      </trkpt>
      <trkpt lat="29.19168" lon="-13.47923">
        <ele>384.8</ele>
        <time>2021-07-03 14:00:05</time>
      </trkpt>
      <trkpt lat="29.19167" lon="-13.47924">
        <ele>384.8</ele>
        <time>2021-07-03 14:00:06</time>
      </trkpt>
      <trkpt lat="29.19167" lon="-13.47925">
        <ele>384.6</ele>
        <time>2021-07-03 14:00:07</time>
      </trkpt>
      <trkpt lat="29.19166" lon="-13.47926">
        <ele>384.6</ele>
        <time>2021-07-03 14:00:08</time>
      </trkpt>
      <trkpt lat="29.19165" lon="-13.47926">
        <ele>384.6</ele>
        <time>2021-07-03 14:00:09</time>
      </trkpt>
      <trkpt lat="29.19165" lon="-13.47927">
        <ele>384.6</ele>
        <time>2021-07-03 14:00:10</time>
      </trkpt>
      <trkpt lat="29.19164" lon="-13.47927">
        <ele>385</ele>
        <time>2021-07-03 14:00:11</time>
      </trkpt>
      <trkpt lat="29.19164" lon="-13.47928">
        <ele>385</ele>
        <time>2021-07-03 14:00:12</time>
      </trkpt>
      <trkpt lat="29.19164" lon="-13.47928">
        <ele>385</ele>
        <time>2021-07-03 14:00:13</time>
      </trkpt>
      <trkpt lat="29.19163" lon="-13.47929">
        <ele>385.2</ele>
        <time>2021-07-03 14:00:14</time>
      </trkpt>
      <trkpt lat="29.19162" lon="-13.47929">
        <ele>385.2</ele>
        <time>2021-07-03 14:00:15</time>
      </trkpt>
      <trkpt lat="29.19161" lon="-13.4793">
        <ele>385</ele>
        <time>2021-07-03 14:00:16</time>
      </trkpt>
      <trkpt lat="29.1916" lon="-13.4793">
        <ele>385</ele>
        <time>2021-07-03 14:00:17</time>
      </trkpt>
      <trkpt lat="29.19158" lon="-13.47931">
        <ele>385</ele>
        <time>2021-07-03 14:00:18</time>
      </trkpt>
      <trkpt lat="29.19157" lon="-13.47931">
        <ele>384.8</ele>
        <time>2021-07-03 14:00:19</time>
      </trkpt>
      <trkpt lat="29.19156" lon="-13.47932">
        <ele>384.8</ele>
        <time>2021-07-03 14:00:20</time>
      </trkpt>
      <trkpt lat="29.19155" lon="-13.47933">
        <ele>384.8</ele>
        <time>2021-07-03 14:00:21</time>
      </trkpt>
      <trkpt lat="29.19154" lon="-13.47934">
        <ele>384.8</ele>
        <time>2021-07-03 14:00:22</time>
      </trkpt>
      <trkpt lat="29.19153" lon="-13.47934">
        <ele>384.6</ele>
        <time>2021-07-03 14:00:23</time>
      </trkpt>
      <trkpt lat="29.19151" lon="-13.47935">
        <ele>384.6</ele>
        <time>2021-07-03 14:00:24</time>
      </trkpt>
      <trkpt lat="29.1915" lon="-13.47936">
        <ele>384.6</ele>
        <time>2021-07-03 14:00:25</time>
      </trkpt>
      <trkpt lat="29.19148" lon="-13.47936">
        <ele>384.6</ele>
        <time>2021-07-03 14:00:26</time>
      </trkpt>
      <trkpt lat="29.19147" lon="-13.47937">
        <ele>384.6</ele>
        <time>2021-07-03 14:00:27</time>
      </trkpt>
      <trkpt lat="29.19145" lon="-13.47938">
        <ele>384.6</ele>
        <time>2021-07-03 14:00:28</time>
      </trkpt>
      <trkpt lat="29.19144" lon="-13.47939">
        <ele>384.6</ele>
        <time>2021-07-03 14:00:34</time>
      </trkpt>
      <trkpt lat="29.19143" lon="-13.47939">
        <ele>384.6</ele>
        <time>2021-07-03 14:00:35</time>
      </trkpt>
      <trkpt lat="29.19141" lon="-13.4794">
        <ele>384.6</ele>
        <time>2021-07-03 14:00:36</time>
      </trkpt>
      <trkpt lat="29.1914" lon="-13.4794">
        <ele>384.6</ele>
        <time>2021-07-03 14:00:37</time>
      </trkpt>
      <trkpt lat="29.19138" lon="-13.47941">
        <ele>384.6</ele>
        <time>2021-07-03 14:00:38</time>
      </trkpt>
      <trkpt lat="29.19137" lon="-13.47941">
        <ele>384.6</ele>
        <time>2021-07-03 14:00:39</time>
      </trkpt>
      <trkpt lat="29.19136" lon="-13.47941">
        <ele>384.6</ele>
        <time>2021-07-03 14:00:40</time>
      </trkpt>
      <trkpt lat="29.19134" lon="-13.47941">
        <ele>384.6</ele>
        <time>2021-07-03 14:00:41</time>
      </trkpt>
      <trkpt lat="29.19133" lon="-13.47941">
        <ele>384.6</ele>
        <time>2021-07-03 14:00:42</time>
      </trkpt>
      <trkpt lat="29.19132" lon="-13.47939">
        <ele>384.6</ele>
        <time>2021-07-03 14:00:43</time>
      </trkpt>
      <trkpt lat="29.19131" lon="-13.47938">
        <ele>384.8</ele>
        <time>2021-07-03 14:00:44</time>
      </trkpt>
      <trkpt lat="29.19131" lon="-13.47936">
        <ele>384.8</ele>
        <time>2021-07-03 14:00:45</time>
      </trkpt>
      <trkpt lat="29.1913" lon="-13.47935">
        <ele>384.8</ele>
        <time>2021-07-03 14:00:46</time>
      </trkpt>
      <trkpt lat="29.1913" lon="-13.47933">
        <ele>384.8</ele>
        <time>2021-07-03 14:00:47</time>
      </trkpt>
      <trkpt lat="29.19129" lon="-13.47931">
        <ele>384.8</ele>
        <time>2021-07-03 14:00:48</time>
      </trkpt>
      <trkpt lat="29.19129" lon="-13.4793">
        <ele>384.6</ele>
        <time>2021-07-03 14:00:49</time>
      </trkpt>
      <trkpt lat="29.19128" lon="-13.47928">
        <ele>384.6</ele>
        <time>2021-07-03 14:00:50</time>
      </trkpt>
      <trkpt lat="29.19128" lon="-13.47926">
        <ele>384.6</ele>
        <time>2021-07-03 14:00:51</time>
      </trkpt>
      <trkpt lat="29.19127" lon="-13.47924">
        <ele>384.8</ele>
        <time>2021-07-03 14:00:52</time>
      </trkpt>
      <trkpt lat="29.19127" lon="-13.47923">
        <ele>384.8</ele>
        <time>2021-07-03 14:00:53</time>
      </trkpt>
      <trkpt lat="29.19126" lon="-13.47922">
        <ele>385</ele>
        <time>2021-07-03 14:00:54</time>
      </trkpt>
      <trkpt lat="29.19126" lon="-13.4792">
        <ele>385.2</ele>
        <time>2021-07-03 14:00:55</time>
      </trkpt>
      <trkpt lat="29.19126" lon="-13.47919">
        <ele>385.2</ele>
        <time>2021-07-03 14:00:56</time>
      </trkpt>
      <trkpt lat="29.19125" lon="-13.47917">
        <ele>385.8</ele>
        <time>2021-07-03 14:00:57</time>
      </trkpt>
      <trkpt lat="29.19125" lon="-13.47916">
        <ele>385.8</ele>
        <time>2021-07-03 14:00:58</time>
      </trkpt>
      <trkpt lat="29.19125" lon="-13.47914">
        <ele>385.8</ele>
        <time>2021-07-03 14:00:59</time>
      </trkpt>
      <trkpt lat="29.19124" lon="-13.47912">
        <ele>386.2</ele>
        <time>2021-07-03 14:01:00</time>
      </trkpt>
      <trkpt lat="29.19124" lon="-13.47911">
        <ele>386.2</ele>
        <time>2021-07-03 14:01:01</time>
      </trkpt>
      <trkpt lat="29.19123" lon="-13.47909">
        <ele>386.2</ele>
        <time>2021-07-03 14:01:02</time>
      </trkpt>
      <trkpt lat="29.19123" lon="-13.47908">
        <ele>386.2</ele>
        <time>2021-07-03 14:01:03</time>
      </trkpt>
      <trkpt lat="29.19123" lon="-13.47906">
        <ele>386.4</ele>
        <time>2021-07-03 14:01:04</time>
      </trkpt>
      <trkpt lat="29.19122" lon="-13.47905">
        <ele>386.4</ele>
        <time>2021-07-03 14:01:05</time>
      </trkpt>
      <trkpt lat="29.19122" lon="-13.47903">
        <ele>386.4</ele>
        <time>2021-07-03 14:01:06</time>
      </trkpt>
      <trkpt lat="29.19122" lon="-13.47902">
        <ele>386.6</ele>
        <time>2021-07-03 14:01:07</time>
      </trkpt>
      <trkpt lat="29.19121" lon="-13.479">
        <ele>386.6</ele>
        <time>2021-07-03 14:01:08</time>
      </trkpt>
      <trkpt lat="29.19121" lon="-13.47899">
        <ele>387</ele>
        <time>2021-07-03 14:01:09</time>
      </trkpt>
      <trkpt lat="29.1912" lon="-13.47897">
        <ele>387</ele>
        <time>2021-07-03 14:01:10</time>
      </trkpt>
      <trkpt lat="29.1912" lon="-13.47895">
        <ele>387.2</ele>
        <time>2021-07-03 14:01:11</time>
      </trkpt>
      <trkpt lat="29.19119" lon="-13.47894">
        <ele>387.2</ele>
        <time>2021-07-03 14:01:12</time>
      </trkpt>
      <trkpt lat="29.19119" lon="-13.47892">
        <ele>387.2</ele>
        <time>2021-07-03 14:01:13</time>
      </trkpt>
      <trkpt lat="29.19119" lon="-13.47891">
        <ele>387.2</ele>
        <time>2021-07-03 14:01:14</time>
      </trkpt>
      <trkpt lat="29.19119" lon="-13.47891">
        <ele>387.4</ele>
        <time>2021-07-03 14:01:15</time>
      </trkpt>
      <trkpt lat="29.19119" lon="-13.4789">
        <ele>387.4</ele>
        <time>2021-07-03 14:01:16</time>
      </trkpt>
      <trkpt lat="29.19119" lon="-13.47891">
        <ele>387.4</ele>
        <time>2021-07-03 14:01:17</time>
      </trkpt>
      <trkpt lat="29.19118" lon="-13.47888">
        <ele>387.6</ele>
        <time>2021-07-03 14:01:18</time>
      </trkpt>
      <trkpt lat="29.19117" lon="-13.47886">
        <ele>387.8</ele>
        <time>2021-07-03 14:01:19</time>
      </trkpt>
      <trkpt lat="29.19117" lon="-13.47884">
        <ele>387.8</ele>
        <time>2021-07-03 14:01:20</time>
      </trkpt>
      <trkpt lat="29.19117" lon="-13.47883">
        <ele>387.8</ele>
        <time>2021-07-03 14:01:21</time>
      </trkpt>
      <trkpt lat="29.19117" lon="-13.47881">
        <ele>387.8</ele>
        <time>2021-07-03 14:01:22</time>
      </trkpt>
      <trkpt lat="29.19117" lon="-13.4788">
        <ele>387.8</ele>
        <time>2021-07-03 14:01:23</time>
      </trkpt>
      <trkpt lat="29.19116" lon="-13.47878">
        <ele>387.8</ele>
        <time>2021-07-03 14:01:24</time>
      </trkpt>
      <trkpt lat="29.19116" lon="-13.47876">
        <ele>387.8</ele>
        <time>2021-07-03 14:01:25</time>
      </trkpt>
      <trkpt lat="29.19116" lon="-13.47874">
        <ele>387.8</ele>
        <time>2021-07-03 14:01:26</time>
      </trkpt>
      <trkpt lat="29.19116" lon="-13.47873">
        <ele>387.6</ele>
        <time>2021-07-03 14:01:27</time>
      </trkpt>
      <trkpt lat="29.19116" lon="-13.47871">
        <ele>387.6</ele>
        <time>2021-07-03 14:01:28</time>
      </trkpt>
      <trkpt lat="29.19117" lon="-13.47869">
        <ele>387.6</ele>
        <time>2021-07-03 14:01:29</time>
      </trkpt>
      <trkpt lat="29.19117" lon="-13.47867">
        <ele>387.6</ele>
        <time>2021-07-03 14:01:30</time>
      </trkpt>
      <trkpt lat="29.19119" lon="-13.47866">
        <ele>387.6</ele>
        <time>2021-07-03 14:01:31</time>
      </trkpt>
      <trkpt lat="29.1912" lon="-13.47865">
        <ele>388</ele>
        <time>2021-07-03 14:01:32</time>
      </trkpt>
      <trkpt lat="29.19121" lon="-13.47864">
        <ele>388</ele>
        <time>2021-07-03 14:01:33</time>
      </trkpt>
      <trkpt lat="29.19122" lon="-13.47863">
        <ele>388.4</ele>
        <time>2021-07-03 14:01:34</time>
      </trkpt>
      <trkpt lat="29.19123" lon="-13.47862">
        <ele>388.4</ele>
        <time>2021-07-03 14:01:35</time>
      </trkpt>
      <trkpt lat="29.19124" lon="-13.47862">
        <ele>388.4</ele>
        <time>2021-07-03 14:01:36</time>
      </trkpt>
      <trkpt lat="29.19126" lon="-13.47861">
        <ele>388.4</ele>
        <time>2021-07-03 14:01:37</time>
      </trkpt>
      <trkpt lat="29.19127" lon="-13.4786">
        <ele>388.6</ele>
        <time>2021-07-03 14:01:38</time>
      </trkpt>
      <trkpt lat="29.19128" lon="-13.4786">
        <ele>388.6</ele>
        <time>2021-07-03 14:01:39</time>
      </trkpt>
      <trkpt lat="29.1913" lon="-13.47859">
        <ele>388.8</ele>
        <time>2021-07-03 14:01:40</time>
      </trkpt>
      <trkpt lat="29.19131" lon="-13.47858">
        <ele>388.8</ele>
        <time>2021-07-03 14:01:41</time>
      </trkpt>
      <trkpt lat="29.19132" lon="-13.47858">
        <ele>389.2</ele>
        <time>2021-07-03 14:01:42</time>
      </trkpt>
      <trkpt lat="29.19133" lon="-13.47857">
        <ele>389.4</ele>
        <time>2021-07-03 14:01:43</time>
      </trkpt>
      <trkpt lat="29.19135" lon="-13.47856">
        <ele>389.4</ele>
        <time>2021-07-03 14:01:44</time>
      </trkpt>
      <trkpt lat="29.19136" lon="-13.47856">
        <ele>389.8</ele>
        <time>2021-07-03 14:01:45</time>
      </trkpt>
      <trkpt lat="29.19137" lon="-13.47855">
        <ele>390.2</ele>
        <time>2021-07-03 14:01:46</time>
      </trkpt>
      <trkpt lat="29.19139" lon="-13.47854">
        <ele>390.2</ele>
        <time>2021-07-03 14:01:47</time>
      </trkpt>
      <trkpt lat="29.1914" lon="-13.47853">
        <ele>390.2</ele>
        <time>2021-07-03 14:01:48</time>
      </trkpt>
      <trkpt lat="29.19142" lon="-13.47852">
        <ele>390.2</ele>
        <time>2021-07-03 14:01:51</time>
      </trkpt>
      <trkpt lat="29.19143" lon="-13.47851">
        <ele>390.2</ele>
        <time>2021-07-03 14:01:52</time>
      </trkpt>
      <trkpt lat="29.19144" lon="-13.4785">
        <ele>390.2</ele>
        <time>2021-07-03 14:01:53</time>
      </trkpt>
      <trkpt lat="29.19146" lon="-13.47849">
        <ele>390.6</ele>
        <time>2021-07-03 14:01:54</time>
      </trkpt>
      <trkpt lat="29.19147" lon="-13.47848">
        <ele>390.6</ele>
        <time>2021-07-03 14:01:55</time>
      </trkpt>
      <trkpt lat="29.19148" lon="-13.47847">
        <ele>390.6</ele>
        <time>2021-07-03 14:01:56</time>
      </trkpt>
      <trkpt lat="29.1915" lon="-13.47846">
        <ele>390.8</ele>
        <time>2021-07-03 14:01:57</time>
      </trkpt>
      <trkpt lat="29.19151" lon="-13.47845">
        <ele>390.8</ele>
        <time>2021-07-03 14:01:58</time>
      </trkpt>
      <trkpt lat="29.19152" lon="-13.47844">
        <ele>390.8</ele>
        <time>2021-07-03 14:01:59</time>
      </trkpt>
      <trkpt lat="29.19153" lon="-13.47843">
        <ele>390.8</ele>
        <time>2021-07-03 14:02:00</time>
      </trkpt>
      <trkpt lat="29.19154" lon="-13.47842">
        <ele>390.8</ele>
        <time>2021-07-03 14:02:01</time>
      </trkpt>
      <trkpt lat="29.19155" lon="-13.47841">
        <ele>390.8</ele>
        <time>2021-07-03 14:02:02</time>
      </trkpt>
      <trkpt lat="29.19156" lon="-13.4784">
        <ele>390.8</ele>
        <time>2021-07-03 14:02:03</time>
      </trkpt>
      <trkpt lat="29.19157" lon="-13.4784">
        <ele>391</ele>
        <time>2021-07-03 14:02:04</time>
      </trkpt>
      <trkpt lat="29.19158" lon="-13.47839">
        <ele>391</ele>
        <time>2021-07-03 14:02:05</time>
      </trkpt>
      <trkpt lat="29.1916" lon="-13.47838">
        <ele>391.4</ele>
        <time>2021-07-03 14:02:06</time>
      </trkpt>
      <trkpt lat="29.19161" lon="-13.47837">
        <ele>391.4</ele>
        <time>2021-07-03 14:02:07</time>
      </trkpt>
      <trkpt lat="29.19162" lon="-13.47837">
        <ele>391.6</ele>
        <time>2021-07-03 14:02:08</time>
      </trkpt>
      <trkpt lat="29.19163" lon="-13.47835">
        <ele>391.6</ele>
        <time>2021-07-03 14:02:09</time>
      </trkpt>
      <trkpt lat="29.19163" lon="-13.47834">
        <ele>391.6</ele>
        <time>2021-07-03 14:02:10</time>
      </trkpt>
      <trkpt lat="29.19164" lon="-13.47833">
        <ele>391.8</ele>
        <time>2021-07-03 14:02:11</time>
      </trkpt>
      <trkpt lat="29.19164" lon="-13.47831">
        <ele>391.8</ele>
        <time>2021-07-03 14:02:12</time>
      </trkpt>
      <trkpt lat="29.19164" lon="-13.47829">
        <ele>391.8</ele>
        <time>2021-07-03 14:02:13</time>
      </trkpt>
      <trkpt lat="29.19164" lon="-13.47828">
        <ele>391.8</ele>
        <time>2021-07-03 14:02:14</time>
      </trkpt>
      <trkpt lat="29.19164" lon="-13.47827">
        <ele>391.8</ele>
        <time>2021-07-03 14:02:15</time>
      </trkpt>
      <trkpt lat="29.19164" lon="-13.47827">
        <ele>391.8</ele>
        <time>2021-07-03 14:02:16</time>
      </trkpt>
      <trkpt lat="29.19164" lon="-13.47827">
        <ele>392</ele>
        <time>2021-07-03 14:02:17</time>
      </trkpt>
      <trkpt lat="29.19164" lon="-13.47827">
        <ele>392</ele>
        <time>2021-07-03 14:02:18</time>
      </trkpt>
      <trkpt lat="29.19165" lon="-13.47824">
        <ele>391.8</ele>
        <time>2021-07-03 14:02:19</time>
      </trkpt>
      <trkpt lat="29.19165" lon="-13.47822">
        <ele>391.4</ele>
        <time>2021-07-03 14:02:20</time>
      </trkpt>
      <trkpt lat="29.19165" lon="-13.47819">
        <ele>391.2</ele>
        <time>2021-07-03 14:02:21</time>
      </trkpt>
      <trkpt lat="29.19164" lon="-13.47817">
        <ele>391.2</ele>
        <time>2021-07-03 14:02:22</time>
      </trkpt>
      <trkpt lat="29.19164" lon="-13.47815">
        <ele>390.8</ele>
        <time>2021-07-03 14:02:23</time>
      </trkpt>
      <trkpt lat="29.19163" lon="-13.47812">
        <ele>390.6</ele>
        <time>2021-07-03 14:02:24</time>
      </trkpt>
      <trkpt lat="29.19163" lon="-13.47809">
        <ele>390.6</ele>
        <time>2021-07-03 14:02:25</time>
      </trkpt>
      <trkpt lat="29.19162" lon="-13.47806">
        <ele>390.6</ele>
        <time>2021-07-03 14:02:26</time>
      </trkpt>
      <trkpt lat="29.19162" lon="-13.47803">
        <ele>390.6</ele>
        <time>2021-07-03 14:02:27</time>
      </trkpt>
      <trkpt lat="29.19161" lon="-13.478">
        <ele>390.6</ele>
        <time>2021-07-03 14:02:28</time>
      </trkpt>
      <trkpt lat="29.19161" lon="-13.47796">
        <ele>390.4</ele>
        <time>2021-07-03 14:02:29</time>
      </trkpt>
      <trkpt lat="29.1916" lon="-13.47793">
        <ele>390.4</ele>
        <time>2021-07-03 14:02:30</time>
      </trkpt>
      <trkpt lat="29.1916" lon="-13.47789">
        <ele>390.4</ele>
        <time>2021-07-03 14:02:31</time>
      </trkpt>
      <trkpt lat="29.1916" lon="-13.47786">
        <ele>390.6</ele>
        <time>2021-07-03 14:02:32</time>
      </trkpt>
      <trkpt lat="29.19159" lon="-13.47783">
        <ele>390.6</ele>
        <time>2021-07-03 14:02:33</time>
      </trkpt>
      <trkpt lat="29.19158" lon="-13.4778">
        <ele>390.8</ele>
        <time>2021-07-03 14:02:34</time>
      </trkpt>
      <trkpt lat="29.19158" lon="-13.47777">
        <ele>390.8</ele>
        <time>2021-07-03 14:02:35</time>
      </trkpt>
      <trkpt lat="29.19157" lon="-13.47773">
        <ele>390.8</ele>
        <time>2021-07-03 14:02:36</time>
      </trkpt>
      <trkpt lat="29.19157" lon="-13.4777">
        <ele>390.8</ele>
        <time>2021-07-03 14:02:37</time>
      </trkpt>
      <trkpt lat="29.19157" lon="-13.47766">
        <ele>390.8</ele>
        <time>2021-07-03 14:02:38</time>
      </trkpt>
      <trkpt lat="29.19156" lon="-13.47762">
        <ele>390.8</ele>
        <time>2021-07-03 14:02:39</time>
      </trkpt>
      <trkpt lat="29.19156" lon="-13.47759">
        <ele>390.8</ele>
        <time>2021-07-03 14:02:40</time>
      </trkpt>
      <trkpt lat="29.19156" lon="-13.47756">
        <ele>390.8</ele>
        <time>2021-07-03 14:02:41</time>
      </trkpt>
      <trkpt lat="29.19155" lon="-13.47753">
        <ele>391.2</ele>
        <time>2021-07-03 14:02:42</time>
      </trkpt>
      <trkpt lat="29.19155" lon="-13.47751">
        <ele>391.2</ele>
        <time>2021-07-03 14:02:43</time>
      </trkpt>
      <trkpt lat="29.19154" lon="-13.4775">
        <ele>391.2</ele>
        <time>2021-07-03 14:02:44</time>
      </trkpt>
      <trkpt lat="29.19154" lon="-13.4775">
        <ele>391.2</ele>
        <time>2021-07-03 14:02:45</time>
      </trkpt>
      <trkpt lat="29.19154" lon="-13.4775">
        <ele>391.4</ele>
        <time>2021-07-03 14:02:46</time>
      </trkpt>
      <trkpt lat="29.19154" lon="-13.4775">
        <ele>391.4</ele>
        <time>2021-07-03 14:02:47</time>
      </trkpt>
      <trkpt lat="29.19151" lon="-13.4775">
        <ele>391</ele>
        <time>2021-07-03 14:02:48</time>
      </trkpt>
      <trkpt lat="29.1915" lon="-13.4775">
        <ele>391.4</ele>
        <time>2021-07-03 14:02:49</time>
      </trkpt>
      <trkpt lat="29.19148" lon="-13.4775">
        <ele>391.4</ele>
        <time>2021-07-03 14:02:52</time>
      </trkpt>
      <trkpt lat="29.19146" lon="-13.47751">
        <ele>391.4</ele>
        <time>2021-07-03 14:02:53</time>
      </trkpt>
      <trkpt lat="29.19143" lon="-13.47752">
        <ele>391.4</ele>
        <time>2021-07-03 14:02:54</time>
      </trkpt>
      <trkpt lat="29.1914" lon="-13.47753">
        <ele>391.4</ele>
        <time>2021-07-03 14:02:55</time>
      </trkpt>
      <trkpt lat="29.19137" lon="-13.47753">
        <ele>391.6</ele>
        <time>2021-07-03 14:02:56</time>
      </trkpt>
      <trkpt lat="29.19134" lon="-13.47753">
        <ele>391.6</ele>
        <time>2021-07-03 14:02:57</time>
      </trkpt>
      <trkpt lat="29.19131" lon="-13.47753">
        <ele>391.6</ele>
        <time>2021-07-03 14:02:58</time>
      </trkpt>
      <trkpt lat="29.19128" lon="-13.47754">
        <ele>391.8</ele>
        <time>2021-07-03 14:02:59</time>
      </trkpt>
      <trkpt lat="29.19125" lon="-13.47754">
        <ele>391.8</ele>
        <time>2021-07-03 14:03:00</time>
      </trkpt>
      <trkpt lat="29.19122" lon="-13.47755">
        <ele>392</ele>
        <time>2021-07-03 14:03:01</time>
      </trkpt>
      <trkpt lat="29.19118" lon="-13.47755">
        <ele>392.4</ele>
        <time>2021-07-03 14:03:02</time>
      </trkpt>
      <trkpt lat="29.19115" lon="-13.47757">
        <ele>392.4</ele>
        <time>2021-07-03 14:03:03</time>
      </trkpt>
      <trkpt lat="29.19111" lon="-13.47758">
        <ele>392.4</ele>
        <time>2021-07-03 14:03:04</time>
      </trkpt>
      <trkpt lat="29.19108" lon="-13.4776">
        <ele>392.4</ele>
        <time>2021-07-03 14:03:05</time>
      </trkpt>
      <trkpt lat="29.19105" lon="-13.47763">
        <ele>392</ele>
        <time>2021-07-03 14:03:06</time>
      </trkpt>
      <trkpt lat="29.19103" lon="-13.47766">
        <ele>391.8</ele>
        <time>2021-07-03 14:03:07</time>
      </trkpt>
      <trkpt lat="29.191" lon="-13.47769">
        <ele>391.4</ele>
        <time>2021-07-03 14:03:08</time>
      </trkpt>
      <trkpt lat="29.19097" lon="-13.47771">
        <ele>391</ele>
        <time>2021-07-03 14:03:09</time>
      </trkpt>
      <trkpt lat="29.19095" lon="-13.47773">
        <ele>390.8</ele>
        <time>2021-07-03 14:03:10</time>
      </trkpt>
      <trkpt lat="29.19092" lon="-13.47775">
        <ele>390.8</ele>
        <time>2021-07-03 14:03:11</time>
      </trkpt>
      <trkpt lat="29.1909" lon="-13.47777">
        <ele>390.6</ele>
        <time>2021-07-03 14:03:12</time>
      </trkpt>
      <trkpt lat="29.19087" lon="-13.47778">
        <ele>390.6</ele>
        <time>2021-07-03 14:03:13</time>
      </trkpt>
      <trkpt lat="29.19085" lon="-13.4778">
        <ele>390.6</ele>
        <time>2021-07-03 14:03:14</time>
      </trkpt>
      <trkpt lat="29.19082" lon="-13.47782">
        <ele>390.2</ele>
        <time>2021-07-03 14:03:15</time>
      </trkpt>
      <trkpt lat="29.1908" lon="-13.47784">
        <ele>390.2</ele>
        <time>2021-07-03 14:03:16</time>
      </trkpt>
      <trkpt lat="29.19077" lon="-13.47785">
        <ele>390</ele>
        <time>2021-07-03 14:03:17</time>
      </trkpt>
      <trkpt lat="29.19075" lon="-13.47788">
        <ele>389.8</ele>
        <time>2021-07-03 14:03:18</time>
      </trkpt>
      <trkpt lat="29.19072" lon="-13.4779">
        <ele>389.4</ele>
        <time>2021-07-03 14:03:19</time>
      </trkpt>
      <trkpt lat="29.19069" lon="-13.47793">
        <ele>389.2</ele>
        <time>2021-07-03 14:03:20</time>
      </trkpt>
      <trkpt lat="29.19066" lon="-13.47796">
        <ele>390.4</ele>
        <time>2021-07-03 14:03:38</time>
      </trkpt>
      <trkpt lat="29.19064" lon="-13.47798">
        <ele>389.6</ele>
        <time>2021-07-03 14:03:39</time>
      </trkpt>
      <trkpt lat="29.19062" lon="-13.47801">
        <ele>389</ele>
        <time>2021-07-03 14:03:40</time>
      </trkpt>
      <trkpt lat="29.1906" lon="-13.47804">
        <ele>388.4</ele>
        <time>2021-07-03 14:03:41</time>
      </trkpt>
      <trkpt lat="29.19058" lon="-13.47807">
        <ele>388.2</ele>
        <time>2021-07-03 14:03:42</time>
      </trkpt>
      <trkpt lat="29.19056" lon="-13.47809">
        <ele>387.8</ele>
        <time>2021-07-03 14:03:43</time>
      </trkpt>
      <trkpt lat="29.19055" lon="-13.47812">
        <ele>387.4</ele>
        <time>2021-07-03 14:03:44</time>
      </trkpt>
      <trkpt lat="29.19053" lon="-13.47815">
        <ele>387.2</ele>
        <time>2021-07-03 14:03:45</time>
      </trkpt>
      <trkpt lat="29.1905" lon="-13.47818">
        <ele>387.8</ele>
        <time>2021-07-03 14:03:46</time>
      </trkpt>
      <trkpt lat="29.19048" lon="-13.47821">
        <ele>387.2</ele>
        <time>2021-07-03 14:03:47</time>
      </trkpt>
      <trkpt lat="29.19045" lon="-13.47824">
        <ele>387</ele>
        <time>2021-07-03 14:03:48</time>
      </trkpt>
      <trkpt lat="29.19043" lon="-13.47827">
        <ele>386.8</ele>
        <time>2021-07-03 14:03:49</time>
      </trkpt>
      <trkpt lat="29.19041" lon="-13.47829">
        <ele>386.4</ele>
        <time>2021-07-03 14:03:50</time>
      </trkpt>
      <trkpt lat="29.19038" lon="-13.47832">
        <ele>386</ele>
        <time>2021-07-03 14:03:51</time>
      </trkpt>
      <trkpt lat="29.19036" lon="-13.47834">
        <ele>385.8</ele>
        <time>2021-07-03 14:03:52</time>
      </trkpt>
      <trkpt lat="29.19034" lon="-13.47837">
        <ele>385.8</ele>
        <time>2021-07-03 14:03:53</time>
      </trkpt>
      <trkpt lat="29.19032" lon="-13.4784">
        <ele>385.4</ele>
        <time>2021-07-03 14:03:54</time>
      </trkpt>
      <trkpt lat="29.1903" lon="-13.47843">
        <ele>385.2</ele>
        <time>2021-07-03 14:03:55</time>
      </trkpt>
      <trkpt lat="29.19028" lon="-13.47846">
        <ele>384.8</ele>
        <time>2021-07-03 14:03:56</time>
      </trkpt>
      <trkpt lat="29.19026" lon="-13.47849">
        <ele>384.8</ele>
        <time>2021-07-03 14:03:57</time>
      </trkpt>
      <trkpt lat="29.19024" lon="-13.47852">
        <ele>384.8</ele>
        <time>2021-07-03 14:03:58</time>
      </trkpt>
      <trkpt lat="29.19022" lon="-13.47855">
        <ele>384.6</ele>
        <time>2021-07-03 14:03:59</time>
      </trkpt>
      <trkpt lat="29.1902" lon="-13.47858">
        <ele>384.4</ele>
        <time>2021-07-03 14:04:00</time>
      </trkpt>
      <trkpt lat="29.19018" lon="-13.4786">
        <ele>384</ele>
        <time>2021-07-03 14:04:01</time>
      </trkpt>
      <trkpt lat="29.19016" lon="-13.47862">
        <ele>384</ele>
        <time>2021-07-03 14:04:02</time>
      </trkpt>
      <trkpt lat="29.19015" lon="-13.47863">
        <ele>383.6</ele>
        <time>2021-07-03 14:04:03</time>
      </trkpt>
      <trkpt lat="29.19014" lon="-13.47863">
        <ele>383.4</ele>
        <time>2021-07-03 14:04:04</time>
      </trkpt>
      <trkpt lat="29.19014" lon="-13.47863">
        <ele>383</ele>
        <time>2021-07-03 14:04:05</time>
      </trkpt>
      <trkpt lat="29.19015" lon="-13.47863">
        <ele>383</ele>
        <time>2021-07-03 14:04:06</time>
      </trkpt>
      <trkpt lat="29.19015" lon="-13.47863">
        <ele>383</ele>
        <time>2021-07-03 14:04:07</time>
      </trkpt>
      <trkpt lat="29.19014" lon="-13.47863">
        <ele>383</ele>
        <time>2021-07-03 14:04:08</time>
      </trkpt>
      <trkpt lat="29.19013" lon="-13.47862">
        <ele>383</ele>
        <time>2021-07-03 14:04:09</time>
      </trkpt>
      <trkpt lat="29.19013" lon="-13.47862">
        <ele>383</ele>
        <time>2021-07-03 14:04:10</time>
      </trkpt>
      <trkpt lat="29.19014" lon="-13.47861">
        <ele>383</ele>
        <time>2021-07-03 14:04:11</time>
      </trkpt>
      <trkpt lat="29.19014" lon="-13.4786">
        <ele>383</ele>
        <time>2021-07-03 14:04:12</time>
      </trkpt>
      <trkpt lat="29.19014" lon="-13.4786">
        <ele>383</ele>
        <time>2021-07-03 14:04:13</time>
      </trkpt>
      <trkpt lat="29.19014" lon="-13.47859">
        <ele>383</ele>
        <time>2021-07-03 14:04:14</time>
      </trkpt>
      <trkpt lat="29.19014" lon="-13.47859">
        <ele>383</ele>
        <time>2021-07-03 14:04:15</time>
      </trkpt>
      <trkpt lat="29.19015" lon="-13.4786">
        <ele>382.8</ele>
        <time>2021-07-03 14:04:16</time>
      </trkpt>
      <trkpt lat="29.19016" lon="-13.4786">
        <ele>382.8</ele>
        <time>2021-07-03 14:04:17</time>
      </trkpt>
      <trkpt lat="29.19017" lon="-13.47859">
        <ele>382.8</ele>
        <time>2021-07-03 14:04:18</time>
      </trkpt>
      <trkpt lat="29.19017" lon="-13.47859">
        <ele>382.8</ele>
        <time>2021-07-03 14:04:19</time>
      </trkpt>
      <trkpt lat="29.19017" lon="-13.47859">
        <ele>382.6</ele>
        <time>2021-07-03 14:04:20</time>
      </trkpt>
      <trkpt lat="29.19017" lon="-13.47858">
        <ele>382.6</ele>
        <time>2021-07-03 14:04:21</time>
      </trkpt>
      <trkpt lat="29.1902" lon="-13.47856">
        <ele>382.6</ele>
        <time>2021-07-03 14:04:22</time>
      </trkpt>
      <trkpt lat="29.19022" lon="-13.47854">
        <ele>382.6</ele>
        <time>2021-07-03 14:04:23</time>
      </trkpt>
      <trkpt lat="29.19024" lon="-13.47852">
        <ele>382.6</ele>
        <time>2021-07-03 14:04:24</time>
      </trkpt>
      <trkpt lat="29.19026" lon="-13.47849">
        <ele>382.6</ele>
        <time>2021-07-03 14:04:25</time>
      </trkpt>
      <trkpt lat="29.19028" lon="-13.47846">
        <ele>383.2</ele>
        <time>2021-07-03 14:04:26</time>
      </trkpt>
      <trkpt lat="29.19029" lon="-13.47844">
        <ele>383.4</ele>
        <time>2021-07-03 14:04:27</time>
      </trkpt>
      <trkpt lat="29.19031" lon="-13.47841">
        <ele>383.4</ele>
        <time>2021-07-03 14:04:28</time>
      </trkpt>
      <trkpt lat="29.19033" lon="-13.47837">
        <ele>383.8</ele>
        <time>2021-07-03 14:04:29</time>
      </trkpt>
      <trkpt lat="29.19036" lon="-13.47834">
        <ele>384</ele>
        <time>2021-07-03 14:04:30</time>
      </trkpt>
      <trkpt lat="29.19038" lon="-13.47831">
        <ele>384.4</ele>
        <time>2021-07-03 14:04:31</time>
      </trkpt>
      <trkpt lat="29.1904" lon="-13.47828">
        <ele>384.4</ele>
        <time>2021-07-03 14:04:32</time>
      </trkpt>
      <trkpt lat="29.19042" lon="-13.47826">
        <ele>384.8</ele>
        <time>2021-07-03 14:04:33</time>
      </trkpt>
      <trkpt lat="29.19044" lon="-13.47823">
        <ele>385</ele>
        <time>2021-07-03 14:04:34</time>
      </trkpt>
      <trkpt lat="29.19046" lon="-13.47821">
        <ele>385.4</ele>
        <time>2021-07-03 14:04:35</time>
      </trkpt>
      <trkpt lat="29.19048" lon="-13.47818">
        <ele>385.4</ele>
        <time>2021-07-03 14:04:36</time>
      </trkpt>
      <trkpt lat="29.1905" lon="-13.47816">
        <ele>385.6</ele>
        <time>2021-07-03 14:04:37</time>
      </trkpt>
      <trkpt lat="29.19052" lon="-13.47814">
        <ele>385.6</ele>
        <time>2021-07-03 14:04:38</time>
      </trkpt>
      <trkpt lat="29.19053" lon="-13.47811">
        <ele>385.6</ele>
        <time>2021-07-03 14:04:41</time>
      </trkpt>
      <trkpt lat="29.19055" lon="-13.47809">
        <ele>385.6</ele>
        <time>2021-07-03 14:04:42</time>
      </trkpt>
      <trkpt lat="29.19057" lon="-13.47806">
        <ele>386</ele>
        <time>2021-07-03 14:04:43</time>
      </trkpt>
      <trkpt lat="29.19058" lon="-13.47804">
        <ele>386</ele>
        <time>2021-07-03 14:04:44</time>
      </trkpt>
      <trkpt lat="29.1906" lon="-13.47802">
        <ele>386.2</ele>
        <time>2021-07-03 14:04:45</time>
      </trkpt>
      <trkpt lat="29.19062" lon="-13.47799">
        <ele>386.6</ele>
        <time>2021-07-03 14:04:46</time>
      </trkpt>
      <trkpt lat="29.19064" lon="-13.47797">
        <ele>387</ele>
        <time>2021-07-03 14:04:47</time>
      </trkpt>
      <trkpt lat="29.19066" lon="-13.47795">
        <ele>387</ele>
        <time>2021-07-03 14:04:48</time>
      </trkpt>
      <trkpt lat="29.19067" lon="-13.47793">
        <ele>387</ele>
        <time>2021-07-03 14:07:04</time>
      </trkpt>
      <trkpt lat="29.19068" lon="-13.47792">
        <ele>387</ele>
        <time>2021-07-03 14:07:05</time>
      </trkpt>
      <trkpt lat="29.1907" lon="-13.4779">
        <ele>387.2</ele>
        <time>2021-07-03 14:07:06</time>
      </trkpt>
      <trkpt lat="29.19072" lon="-13.47788">
        <ele>387.6</ele>
        <time>2021-07-03 14:07:07</time>
      </trkpt>
      <trkpt lat="29.19074" lon="-13.47786">
        <ele>388</ele>
        <time>2021-07-03 14:07:08</time>
      </trkpt>
      <trkpt lat="29.19076" lon="-13.47784">
        <ele>388.4</ele>
        <time>2021-07-03 14:07:09</time>
      </trkpt>
      <trkpt lat="29.19078" lon="-13.47782">
        <ele>388.6</ele>
        <time>2021-07-03 14:07:12</time>
      </trkpt>
      <trkpt lat="29.19081" lon="-13.4778">
        <ele>389</ele>
        <time>2021-07-03 14:07:13</time>
      </trkpt>
      <trkpt lat="29.19083" lon="-13.47779">
        <ele>389.4</ele>
        <time>2021-07-03 14:07:14</time>
      </trkpt>
      <trkpt lat="29.19086" lon="-13.47778">
        <ele>389.6</ele>
        <time>2021-07-03 14:07:15</time>
      </trkpt>
      <trkpt lat="29.19088" lon="-13.47777">
        <ele>389.8</ele>
        <time>2021-07-03 14:07:16</time>
      </trkpt>
      <trkpt lat="29.1909" lon="-13.47775">
        <ele>390.2</ele>
        <time>2021-07-03 14:07:17</time>
      </trkpt>
      <trkpt lat="29.19093" lon="-13.47774">
        <ele>390.4</ele>
        <time>2021-07-03 14:07:18</time>
      </trkpt>
      <trkpt lat="29.19095" lon="-13.47772">
        <ele>390.6</ele>
        <time>2021-07-03 14:07:19</time>
      </trkpt>
      <trkpt lat="29.19098" lon="-13.4777">
        <ele>390.6</ele>
        <time>2021-07-03 14:07:20</time>
      </trkpt>
      <trkpt lat="29.191" lon="-13.47768">
        <ele>391</ele>
        <time>2021-07-03 14:07:21</time>
      </trkpt>
      <trkpt lat="29.19102" lon="-13.47767">
        <ele>391</ele>
        <time>2021-07-03 14:07:22</time>
      </trkpt>
      <trkpt lat="29.19104" lon="-13.47765">
        <ele>391</ele>
        <time>2021-07-03 14:07:23</time>
      </trkpt>
      <trkpt lat="29.19107" lon="-13.47763">
        <ele>391.2</ele>
        <time>2021-07-03 14:07:24</time>
      </trkpt>
      <trkpt lat="29.19109" lon="-13.47761">
        <ele>391.2</ele>
        <time>2021-07-03 14:07:25</time>
      </trkpt>
      <trkpt lat="29.19111" lon="-13.47759">
        <ele>391.6</ele>
        <time>2021-07-03 14:07:26</time>
      </trkpt>
      <trkpt lat="29.19113" lon="-13.47758">
        <ele>391.6</ele>
        <time>2021-07-03 14:07:27</time>
      </trkpt>
      <trkpt lat="29.19115" lon="-13.47756">
        <ele>391.8</ele>
        <time>2021-07-03 14:07:28</time>
      </trkpt>
      <trkpt lat="29.19118" lon="-13.47755">
        <ele>391.8</ele>
        <time>2021-07-03 14:07:29</time>
      </trkpt>
      <trkpt lat="29.19121" lon="-13.47754">
        <ele>391.8</ele>
        <time>2021-07-03 14:07:30</time>
      </trkpt>
      <trkpt lat="29.19124" lon="-13.47754">
        <ele>391.8</ele>
        <time>2021-07-03 14:07:31</time>
      </trkpt>
      <trkpt lat="29.19127" lon="-13.47753">
        <ele>391.8</ele>
        <time>2021-07-03 14:07:32</time>
      </trkpt>
      <trkpt lat="29.1913" lon="-13.47753">
        <ele>391.8</ele>
        <time>2021-07-03 14:07:33</time>
      </trkpt>
      <trkpt lat="29.19133" lon="-13.47753">
        <ele>391.8</ele>
        <time>2021-07-03 14:07:34</time>
      </trkpt>
      <trkpt lat="29.19137" lon="-13.47753">
        <ele>391.8</ele>
        <time>2021-07-03 14:07:35</time>
      </trkpt>
      <trkpt lat="29.1914" lon="-13.47753">
        <ele>391.8</ele>
        <time>2021-07-03 14:07:36</time>
      </trkpt>
      <trkpt lat="29.19143" lon="-13.47752">
        <ele>391.6</ele>
        <time>2021-07-03 14:07:37</time>
      </trkpt>
      <trkpt lat="29.19146" lon="-13.47752">
        <ele>391.6</ele>
        <time>2021-07-03 14:07:38</time>
      </trkpt>
      <trkpt lat="29.19149" lon="-13.47752">
        <ele>391.4</ele>
        <time>2021-07-03 14:07:39</time>
      </trkpt>
      <trkpt lat="29.19151" lon="-13.47751">
        <ele>391.4</ele>
        <time>2021-07-03 14:07:40</time>
      </trkpt>
      <trkpt lat="29.19153" lon="-13.47752">
        <ele>391.2</ele>
        <time>2021-07-03 14:07:41</time>
      </trkpt>
      <trkpt lat="29.19154" lon="-13.47752">
        <ele>391.2</ele>
        <time>2021-07-03 14:07:42</time>
      </trkpt>
      <trkpt lat="29.19155" lon="-13.47753">
        <ele>390.8</ele>
        <time>2021-07-03 14:07:43</time>
      </trkpt>
      <trkpt lat="29.19156" lon="-13.47753">
        <ele>390.8</ele>
        <time>2021-07-03 14:07:44</time>
      </trkpt>
      <trkpt lat="29.19155" lon="-13.47754">
        <ele>390.4</ele>
        <time>2021-07-03 14:07:45</time>
      </trkpt>
      <trkpt lat="29.19155" lon="-13.47754">
        <ele>390.2</ele>
        <time>2021-07-03 14:07:46</time>
      </trkpt>
      <trkpt lat="29.19155" lon="-13.47754">
        <ele>390.2</ele>
        <time>2021-07-03 14:07:47</time>
      </trkpt>
      <trkpt lat="29.19156" lon="-13.47751">
        <ele>390</ele>
        <time>2021-07-03 14:07:48</time>
      </trkpt>
      <trkpt lat="29.19156" lon="-13.47748">
        <ele>390</ele>
        <time>2021-07-03 14:07:49</time>
      </trkpt>
      <trkpt lat="29.19156" lon="-13.47746">
        <ele>390</ele>
        <time>2021-07-03 14:07:50</time>
      </trkpt>
      <trkpt lat="29.19156" lon="-13.47743">
        <ele>389.8</ele>
        <time>2021-07-03 14:07:51</time>
      </trkpt>
      <trkpt lat="29.19156" lon="-13.4774">
        <ele>389.8</ele>
        <time>2021-07-03 14:07:52</time>
      </trkpt>
      <trkpt lat="29.19156" lon="-13.47736">
        <ele>389.8</ele>
        <time>2021-07-03 14:07:53</time>
      </trkpt>
      <trkpt lat="29.19156" lon="-13.47733">
        <ele>390</ele>
        <time>2021-07-03 14:07:54</time>
      </trkpt>
      <trkpt lat="29.19156" lon="-13.47729">
        <ele>390</ele>
        <time>2021-07-03 14:07:55</time>
      </trkpt>
      <trkpt lat="29.19155" lon="-13.47726">
        <ele>390</ele>
        <time>2021-07-03 14:07:56</time>
      </trkpt>
      <trkpt lat="29.19155" lon="-13.47723">
        <ele>390</ele>
        <time>2021-07-03 14:07:57</time>
      </trkpt>
      <trkpt lat="29.19154" lon="-13.4772">
        <ele>390.4</ele>
        <time>2021-07-03 14:07:58</time>
      </trkpt>
      <trkpt lat="29.19153" lon="-13.47716">
        <ele>390.4</ele>
        <time>2021-07-03 14:07:59</time>
      </trkpt>
      <trkpt lat="29.19152" lon="-13.47712">
        <ele>390.4</ele>
        <time>2021-07-03 14:08:00</time>
      </trkpt>
      <trkpt lat="29.19152" lon="-13.47708">
        <ele>390.4</ele>
        <time>2021-07-03 14:08:01</time>
      </trkpt>
      <trkpt lat="29.19151" lon="-13.47704">
        <ele>390.4</ele>
        <time>2021-07-03 14:08:02</time>
      </trkpt>
      <trkpt lat="29.19151" lon="-13.47701">
        <ele>390.4</ele>
        <time>2021-07-03 14:08:03</time>
      </trkpt>
      <trkpt lat="29.1915" lon="-13.47698">
        <ele>390.4</ele>
        <time>2021-07-03 14:08:04</time>
      </trkpt>
      <trkpt lat="29.1915" lon="-13.47694">
        <ele>390</ele>
        <time>2021-07-03 14:08:05</time>
      </trkpt>
      <trkpt lat="29.19149" lon="-13.47689">
        <ele>390</ele>
        <time>2021-07-03 14:08:06</time>
      </trkpt>
      <trkpt lat="29.19148" lon="-13.47684">
        <ele>389.8</ele>
        <time>2021-07-03 14:08:07</time>
      </trkpt>
      <trkpt lat="29.19147" lon="-13.47678">
        <ele>389.6</ele>
        <time>2021-07-03 14:08:08</time>
      </trkpt>
      <trkpt lat="29.19147" lon="-13.47672">
        <ele>389.2</ele>
        <time>2021-07-03 14:08:09</time>
      </trkpt>
      <trkpt lat="29.19146" lon="-13.47667">
        <ele>389</ele>
        <time>2021-07-03 14:08:10</time>
      </trkpt>
      <trkpt lat="29.19146" lon="-13.47663">
        <ele>388.8</ele>
        <time>2021-07-03 14:08:11</time>
      </trkpt>
      <trkpt lat="29.19145" lon="-13.47658">
        <ele>388.8</ele>
        <time>2021-07-03 14:08:12</time>
      </trkpt>
      <trkpt lat="29.19144" lon="-13.47653">
        <ele>388.6</ele>
        <time>2021-07-03 14:08:13</time>
      </trkpt>
      <trkpt lat="29.19144" lon="-13.47648">
        <ele>388.2</ele>
        <time>2021-07-03 14:08:14</time>
      </trkpt>
      <trkpt lat="29.19143" lon="-13.47643">
        <ele>388</ele>
        <time>2021-07-03 14:08:15</time>
      </trkpt>
      <trkpt lat="29.19142" lon="-13.47639">
        <ele>388</ele>
        <time>2021-07-03 14:08:16</time>
      </trkpt>
      <trkpt lat="29.19142" lon="-13.47635">
        <ele>387.6</ele>
        <time>2021-07-03 14:08:17</time>
      </trkpt>
      <trkpt lat="29.19142" lon="-13.47631">
        <ele>387.6</ele>
        <time>2021-07-03 14:08:18</time>
      </trkpt>
      <trkpt lat="29.19143" lon="-13.47627">
        <ele>387.8</ele>
        <time>2021-07-03 14:08:26</time>
      </trkpt>
      <trkpt lat="29.19143" lon="-13.47624">
        <ele>387.4</ele>
        <time>2021-07-03 14:08:27</time>
      </trkpt>
      <trkpt lat="29.19144" lon="-13.47622">
        <ele>386.8</ele>
        <time>2021-07-03 14:08:28</time>
      </trkpt>
      <trkpt lat="29.19146" lon="-13.4762">
        <ele>386.4</ele>
        <time>2021-07-03 14:08:29</time>
      </trkpt>
      <trkpt lat="29.19146" lon="-13.47619">
        <ele>386.2</ele>
        <time>2021-07-03 14:08:30</time>
      </trkpt>
      <trkpt lat="29.19146" lon="-13.47618">
        <ele>385.8</ele>
        <time>2021-07-03 14:08:31</time>
      </trkpt>
      <trkpt lat="29.19146" lon="-13.47618">
        <ele>385.6</ele>
        <time>2021-07-03 14:08:32</time>
      </trkpt>
      <trkpt lat="29.19146" lon="-13.47618">
        <ele>385.6</ele>
        <time>2021-07-03 14:08:33</time>
      </trkpt>
      <trkpt lat="29.19146" lon="-13.47618">
        <ele>385.6</ele>
        <time>2021-07-03 14:08:34</time>
      </trkpt>
      <trkpt lat="29.19154" lon="-13.47615">
        <ele>385.2</ele>
        <time>2021-07-03 14:08:35</time>
      </trkpt>
      <trkpt lat="29.19158" lon="-13.47614">
        <ele>385.2</ele>
        <time>2021-07-03 14:08:36</time>
      </trkpt>
      <trkpt lat="29.19161" lon="-13.47613">
        <ele>385</ele>
        <time>2021-07-03 14:08:37</time>
      </trkpt>
      <trkpt lat="29.19164" lon="-13.47612">
        <ele>384.6</ele>
        <time>2021-07-03 14:08:38</time>
      </trkpt>
      <trkpt lat="29.19167" lon="-13.47611">
        <ele>384.4</ele>
        <time>2021-07-03 14:08:39</time>
      </trkpt>
      <trkpt lat="29.1917" lon="-13.4761">
        <ele>384.2</ele>
        <time>2021-07-03 14:08:40</time>
      </trkpt>
      <trkpt lat="29.19173" lon="-13.47609">
        <ele>384</ele>
        <time>2021-07-03 14:08:41</time>
      </trkpt>
      <trkpt lat="29.19176" lon="-13.47608">
        <ele>383.6</ele>
        <time>2021-07-03 14:08:42</time>
      </trkpt>
      <trkpt lat="29.19179" lon="-13.47607">
        <ele>383.6</ele>
        <time>2021-07-03 14:08:43</time>
      </trkpt>
      <trkpt lat="29.19183" lon="-13.47607">
        <ele>383</ele>
        <time>2021-07-03 14:08:44</time>
      </trkpt>
      <trkpt lat="29.19186" lon="-13.47606">
        <ele>382.8</ele>
        <time>2021-07-03 14:08:45</time>
      </trkpt>
      <trkpt lat="29.19189" lon="-13.47605">
        <ele>382.4</ele>
        <time>2021-07-03 14:08:46</time>
      </trkpt>
      <trkpt lat="29.19192" lon="-13.47604">
        <ele>382.2</ele>
        <time>2021-07-03 14:08:47</time>
      </trkpt>
      <trkpt lat="29.19195" lon="-13.47602">
        <ele>381.4</ele>
        <time>2021-07-03 14:08:48</time>
      </trkpt>
      <trkpt lat="29.19199" lon="-13.47601">
        <ele>380.8</ele>
        <time>2021-07-03 14:08:49</time>
      </trkpt>
      <trkpt lat="29.19201" lon="-13.47601">
        <ele>380.2</ele>
        <time>2021-07-03 14:08:50</time>
      </trkpt>
      <trkpt lat="29.19204" lon="-13.476">
        <ele>380.2</ele>
        <time>2021-07-03 14:08:51</time>
      </trkpt>
      <trkpt lat="29.19206" lon="-13.476">
        <ele>379.4</ele>
        <time>2021-07-03 14:08:52</time>
      </trkpt>
      <trkpt lat="29.19208" lon="-13.47599">
        <ele>379.2</ele>
        <time>2021-07-03 14:08:53</time>
      </trkpt>
      <trkpt lat="29.19211" lon="-13.47598">
        <ele>378.8</ele>
        <time>2021-07-03 14:08:54</time>
      </trkpt>
      <trkpt lat="29.19213" lon="-13.47598">
        <ele>378.8</ele>
        <time>2021-07-03 14:08:55</time>
      </trkpt>
      <trkpt lat="29.19215" lon="-13.47597">
        <ele>378.6</ele>
        <time>2021-07-03 14:08:56</time>
      </trkpt>
      <trkpt lat="29.19218" lon="-13.47596">
        <ele>378</ele>
        <time>2021-07-03 14:08:57</time>
      </trkpt>
      <trkpt lat="29.19221" lon="-13.47595">
        <ele>377.4</ele>
        <time>2021-07-03 14:08:58</time>
      </trkpt>
      <trkpt lat="29.19224" lon="-13.47594">
        <ele>377</ele>
        <time>2021-07-03 14:08:59</time>
      </trkpt>
      <trkpt lat="29.19226" lon="-13.47593">
        <ele>376.6</ele>
        <time>2021-07-03 14:09:00</time>
      </trkpt>
      <trkpt lat="29.19228" lon="-13.47593">
        <ele>376</ele>
        <time>2021-07-03 14:09:01</time>
      </trkpt>
      <trkpt lat="29.19231" lon="-13.47592">
        <ele>375.4</ele>
        <time>2021-07-03 14:09:02</time>
      </trkpt>
      <trkpt lat="29.19233" lon="-13.47591">
        <ele>375.2</ele>
        <time>2021-07-03 14:09:03</time>
      </trkpt>
      <trkpt lat="29.19235" lon="-13.4759">
        <ele>374.8</ele>
        <time>2021-07-03 14:09:04</time>
      </trkpt>
      <trkpt lat="29.19237" lon="-13.4759">
        <ele>374.4</ele>
        <time>2021-07-03 14:09:05</time>
      </trkpt>
      <trkpt lat="29.19239" lon="-13.47589">
        <ele>374.2</ele>
        <time>2021-07-03 14:09:08</time>
      </trkpt>
      <trkpt lat="29.19241" lon="-13.47588">
        <ele>373.8</ele>
        <time>2021-07-03 14:09:09</time>
      </trkpt>
      <trkpt lat="29.19243" lon="-13.47587">
        <ele>373.2</ele>
        <time>2021-07-03 14:09:10</time>
      </trkpt>
      <trkpt lat="29.19245" lon="-13.47585">
        <ele>372.8</ele>
        <time>2021-07-03 14:09:11</time>
      </trkpt>
      <trkpt lat="29.19245" lon="-13.47582">
        <ele>372.4</ele>
        <time>2021-07-03 14:09:12</time>
      </trkpt>
      <trkpt lat="29.19245" lon="-13.4758">
        <ele>372.2</ele>
        <time>2021-07-03 14:09:13</time>
      </trkpt>
      <trkpt lat="29.19245" lon="-13.47577">
        <ele>371.8</ele>
        <time>2021-07-03 14:09:14</time>
      </trkpt>
      <trkpt lat="29.19245" lon="-13.47576">
        <ele>371.8</ele>
        <time>2021-07-03 14:09:15</time>
      </trkpt>
      <trkpt lat="29.19245" lon="-13.47574">
        <ele>371.4</ele>
        <time>2021-07-03 14:09:16</time>
      </trkpt>
      <trkpt lat="29.19245" lon="-13.47572">
        <ele>371.2</ele>
        <time>2021-07-03 14:09:17</time>
      </trkpt>
      <trkpt lat="29.19246" lon="-13.4757">
        <ele>370.8</ele>
        <time>2021-07-03 14:09:18</time>
      </trkpt>
      <trkpt lat="29.19247" lon="-13.47569">
        <ele>370.8</ele>
        <time>2021-07-03 14:09:19</time>
      </trkpt>
      <trkpt lat="29.19247" lon="-13.47569">
        <ele>370.8</ele>
        <time>2021-07-03 14:09:20</time>
      </trkpt>
      <trkpt lat="29.19247" lon="-13.47569">
        <ele>370.8</ele>
        <time>2021-07-03 14:09:21</time>
      </trkpt>
      <trkpt lat="29.19247" lon="-13.47568">
        <ele>370.8</ele>
        <time>2021-07-03 14:09:22</time>
      </trkpt>
      <trkpt lat="29.19247" lon="-13.47568">
        <ele>370.6</ele>
        <time>2021-07-03 14:09:23</time>
      </trkpt>
      <trkpt lat="29.19247" lon="-13.47568">
        <ele>370.6</ele>
        <time>2021-07-03 14:09:24</time>
      </trkpt>
      <trkpt lat="29.19248" lon="-13.47567">
        <ele>370</ele>
        <time>2021-07-03 14:09:25</time>
      </trkpt>
      <trkpt lat="29.19249" lon="-13.47567">
        <ele>369.8</ele>
        <time>2021-07-03 14:09:26</time>
      </trkpt>
      <trkpt lat="29.1925" lon="-13.47566">
        <ele>369.6</ele>
        <time>2021-07-03 14:09:27</time>
      </trkpt>
      <trkpt lat="29.1925" lon="-13.47566">
        <ele>369.4</ele>
        <time>2021-07-03 14:09:28</time>
      </trkpt>
      <trkpt lat="29.1925" lon="-13.47566">
        <ele>369.4</ele>
        <time>2021-07-03 14:09:29</time>
      </trkpt>
      <trkpt lat="29.1925" lon="-13.47566">
        <ele>369</ele>
        <time>2021-07-03 14:09:30</time>
      </trkpt>
      <trkpt lat="29.19251" lon="-13.47565">
        <ele>369</ele>
        <time>2021-07-03 14:09:31</time>
      </trkpt>
      <trkpt lat="29.19252" lon="-13.47564">
        <ele>369</ele>
        <time>2021-07-03 14:09:32</time>
      </trkpt>
      <trkpt lat="29.19255" lon="-13.47563">
        <ele>369</ele>
        <time>2021-07-03 14:09:33</time>
      </trkpt>
      <trkpt lat="29.19257" lon="-13.47561">
        <ele>369</ele>
        <time>2021-07-03 14:09:34</time>
      </trkpt>
      <trkpt lat="29.1926" lon="-13.4756">
        <ele>369</ele>
        <time>2021-07-03 14:09:35</time>
      </trkpt>
      <trkpt lat="29.19263" lon="-13.47559">
        <ele>369</ele>
        <time>2021-07-03 14:09:36</time>
      </trkpt>
      <trkpt lat="29.19267" lon="-13.47559">
        <ele>369</ele>
        <time>2021-07-03 14:09:37</time>
      </trkpt>
      <trkpt lat="29.1927" lon="-13.47558">
        <ele>369</ele>
        <time>2021-07-03 14:09:38</time>
      </trkpt>
      <trkpt lat="29.19273" lon="-13.47558">
        <ele>369.2</ele>
        <time>2021-07-03 14:09:39</time>
      </trkpt>
      <trkpt lat="29.19276" lon="-13.47558">
        <ele>369.2</ele>
        <time>2021-07-03 14:09:40</time>
      </trkpt>
      <trkpt lat="29.19279" lon="-13.47558">
        <ele>369.2</ele>
        <time>2021-07-03 14:09:41</time>
      </trkpt>
      <trkpt lat="29.19282" lon="-13.47558">
        <ele>369.2</ele>
        <time>2021-07-03 14:09:42</time>
      </trkpt>
      <trkpt lat="29.19286" lon="-13.47557">
        <ele>368.8</ele>
        <time>2021-07-03 14:09:43</time>
      </trkpt>
      <trkpt lat="29.19289" lon="-13.47556">
        <ele>368.6</ele>
        <time>2021-07-03 14:09:44</time>
      </trkpt>
      <trkpt lat="29.19293" lon="-13.47554">
        <ele>368.2</ele>
        <time>2021-07-03 14:09:45</time>
      </trkpt>
      <trkpt lat="29.19296" lon="-13.47552">
        <ele>368</ele>
        <time>2021-07-03 14:09:46</time>
      </trkpt>
      <trkpt lat="29.19299" lon="-13.47549">
        <ele>367.6</ele>
        <time>2021-07-03 14:09:47</time>
      </trkpt>
      <trkpt lat="29.19301" lon="-13.47545">
        <ele>367.2</ele>
        <time>2021-07-03 14:09:48</time>
      </trkpt>
      <trkpt lat="29.19304" lon="-13.4754">
        <ele>367</ele>
        <time>2021-07-03 14:09:49</time>
      </trkpt>
      <trkpt lat="29.19306" lon="-13.47536">
        <ele>366.8</ele>
        <time>2021-07-03 14:09:50</time>
      </trkpt>
      <trkpt lat="29.19308" lon="-13.47531">
        <ele>366.4</ele>
        <time>2021-07-03 14:09:51</time>
      </trkpt>
      <trkpt lat="29.1931" lon="-13.47528">
        <ele>366.2</ele>
        <time>2021-07-03 14:09:52</time>
      </trkpt>
      <trkpt lat="29.19312" lon="-13.47524">
        <ele>365.8</ele>
        <time>2021-07-03 14:09:53</time>
      </trkpt>
      <trkpt lat="29.19314" lon="-13.4752">
        <ele>365.6</ele>
        <time>2021-07-03 14:09:54</time>
      </trkpt>
      <trkpt lat="29.19317" lon="-13.47517">
        <ele>365</ele>
        <time>2021-07-03 14:09:55</time>
      </trkpt>
      <trkpt lat="29.19321" lon="-13.47513">
        <ele>364.6</ele>
        <time>2021-07-03 14:09:59</time>
      </trkpt>
      <trkpt lat="29.19324" lon="-13.4751">
        <ele>364</ele>
        <time>2021-07-03 14:10:00</time>
      </trkpt>
      <trkpt lat="29.19327" lon="-13.47506">
        <ele>363.4</ele>
        <time>2021-07-03 14:10:01</time>
      </trkpt>
      <trkpt lat="29.19331" lon="-13.47501">
        <ele>363</ele>
        <time>2021-07-03 14:10:02</time>
      </trkpt>
      <trkpt lat="29.19334" lon="-13.47498">
        <ele>362.6</ele>
        <time>2021-07-03 14:10:03</time>
      </trkpt>
      <trkpt lat="29.19338" lon="-13.47494">
        <ele>362.2</ele>
        <time>2021-07-03 14:10:04</time>
      </trkpt>
      <trkpt lat="29.19341" lon="-13.47491">
        <ele>362.6</ele>
        <time>2021-07-03 14:10:05</time>
      </trkpt>
      <trkpt lat="29.19345" lon="-13.47487">
        <ele>362</ele>
        <time>2021-07-03 14:10:06</time>
      </trkpt>
      <trkpt lat="29.19348" lon="-13.47484">
        <ele>361.2</ele>
        <time>2021-07-03 14:10:07</time>
      </trkpt>
      <trkpt lat="29.19352" lon="-13.4748">
        <ele>360.8</ele>
        <time>2021-07-03 14:10:08</time>
      </trkpt>
      <trkpt lat="29.19355" lon="-13.47477">
        <ele>360.2</ele>
        <time>2021-07-03 14:10:09</time>
      </trkpt>
      <trkpt lat="29.19358" lon="-13.47474">
        <ele>359.8</ele>
        <time>2021-07-03 14:10:10</time>
      </trkpt>
      <trkpt lat="29.19361" lon="-13.47471">
        <ele>359.4</ele>
        <time>2021-07-03 14:10:11</time>
      </trkpt>
      <trkpt lat="29.19364" lon="-13.47468">
        <ele>359</ele>
        <time>2021-07-03 14:10:12</time>
      </trkpt>
      <trkpt lat="29.19366" lon="-13.47465">
        <ele>358.4</ele>
        <time>2021-07-03 14:10:13</time>
      </trkpt>
      <trkpt lat="29.19369" lon="-13.47464">
        <ele>357.6</ele>
        <time>2021-07-03 14:10:14</time>
      </trkpt>
      <trkpt lat="29.1937" lon="-13.47463">
        <ele>357.2</ele>
        <time>2021-07-03 14:10:15</time>
      </trkpt>
      <trkpt lat="29.19371" lon="-13.47461">
        <ele>356.8</ele>
        <time>2021-07-03 14:10:16</time>
      </trkpt>
      <trkpt lat="29.19372" lon="-13.4746">
        <ele>356.4</ele>
        <time>2021-07-03 14:10:17</time>
      </trkpt>
      <trkpt lat="29.19372" lon="-13.47458">
        <ele>356</ele>
        <time>2021-07-03 14:10:18</time>
      </trkpt>
      <trkpt lat="29.19372" lon="-13.47458">
        <ele>355.6</ele>
        <time>2021-07-03 14:10:19</time>
      </trkpt>
      <trkpt lat="29.19372" lon="-13.47459">
        <ele>355.6</ele>
        <time>2021-07-03 14:10:20</time>
      </trkpt>
      <trkpt lat="29.19372" lon="-13.47459">
        <ele>355.4</ele>
        <time>2021-07-03 14:10:21</time>
      </trkpt>
      <trkpt lat="29.19372" lon="-13.47459">
        <ele>355.4</ele>
        <time>2021-07-03 14:10:22</time>
      </trkpt>
      <trkpt lat="29.19373" lon="-13.47458">
        <ele>355.2</ele>
        <time>2021-07-03 14:10:23</time>
      </trkpt>
      <trkpt lat="29.19373" lon="-13.47457">
        <ele>355</ele>
        <time>2021-07-03 14:10:24</time>
      </trkpt>
      <trkpt lat="29.19374" lon="-13.47456">
        <ele>354.6</ele>
        <time>2021-07-03 14:10:25</time>
      </trkpt>
      <trkpt lat="29.19375" lon="-13.47455">
        <ele>354.4</ele>
        <time>2021-07-03 14:10:26</time>
      </trkpt>
      <trkpt lat="29.19375" lon="-13.47454">
        <ele>354.2</ele>
        <time>2021-07-03 14:10:27</time>
      </trkpt>
      <trkpt lat="29.19375" lon="-13.47453">
        <ele>354.2</ele>
        <time>2021-07-03 14:10:28</time>
      </trkpt>
      <trkpt lat="29.19375" lon="-13.47453">
        <ele>354.2</ele>
        <time>2021-07-03 14:10:29</time>
      </trkpt>
      <trkpt lat="29.19375" lon="-13.47453">
        <ele>354.2</ele>
        <time>2021-07-03 14:10:30</time>
      </trkpt>
      <trkpt lat="29.19378" lon="-13.47453">
        <ele>354.6</ele>
        <time>2021-07-03 14:10:31</time>
      </trkpt>
      <trkpt lat="29.19379" lon="-13.47452">
        <ele>354.6</ele>
        <time>2021-07-03 14:10:32</time>
      </trkpt>
      <trkpt lat="29.19381" lon="-13.47452">
        <ele>354.6</ele>
        <time>2021-07-03 14:10:33</time>
      </trkpt>
      <trkpt lat="29.19382" lon="-13.47452">
        <ele>354.6</ele>
        <time>2021-07-03 14:10:34</time>
      </trkpt>
      <trkpt lat="29.19383" lon="-13.47452">
        <ele>354.6</ele>
        <time>2021-07-03 14:10:35</time>
      </trkpt>
      <trkpt lat="29.19384" lon="-13.47452">
        <ele>354.4</ele>
        <time>2021-07-03 14:10:36</time>
      </trkpt>
      <trkpt lat="29.19385" lon="-13.47452">
        <ele>354.4</ele>
        <time>2021-07-03 14:10:37</time>
      </trkpt>
      <trkpt lat="29.19385" lon="-13.47452">
        <ele>354.4</ele>
        <time>2021-07-03 14:10:38</time>
      </trkpt>
      <trkpt lat="29.19385" lon="-13.47452">
        <ele>354.4</ele>
        <time>2021-07-03 14:10:39</time>
      </trkpt>
      <trkpt lat="29.19385" lon="-13.47452">
        <ele>354.2</ele>
        <time>2021-07-03 14:10:40</time>
      </trkpt>
      <trkpt lat="29.19387" lon="-13.47451">
        <ele>354.2</ele>
        <time>2021-07-03 14:10:41</time>
      </trkpt>
      <trkpt lat="29.19388" lon="-13.4745">
        <ele>354.2</ele>
        <time>2021-07-03 14:10:42</time>
      </trkpt>
      <trkpt lat="29.1939" lon="-13.47448">
        <ele>353.8</ele>
        <time>2021-07-03 14:10:43</time>
      </trkpt>
      <trkpt lat="29.19393" lon="-13.47446">
        <ele>353.8</ele>
        <time>2021-07-03 14:10:44</time>
      </trkpt>
      <trkpt lat="29.19396" lon="-13.47443">
        <ele>353.4</ele>
        <time>2021-07-03 14:10:45</time>
      </trkpt>
      <trkpt lat="29.194" lon="-13.4744">
        <ele>353.4</ele>
        <time>2021-07-03 14:10:46</time>
      </trkpt>
      <trkpt lat="29.19404" lon="-13.47438">
        <ele>353</ele>
        <time>2021-07-03 14:10:47</time>
      </trkpt>
      <trkpt lat="29.19408" lon="-13.47435">
        <ele>352.4</ele>
        <time>2021-07-03 14:10:48</time>
      </trkpt>
      <trkpt lat="29.19412" lon="-13.47432">
        <ele>352</ele>
        <time>2021-07-03 14:10:49</time>
      </trkpt>
      <trkpt lat="29.19416" lon="-13.47428">
        <ele>351.4</ele>
        <time>2021-07-03 14:10:50</time>
      </trkpt>
      <trkpt lat="29.1942" lon="-13.47425">
        <ele>350.8</ele>
        <time>2021-07-03 14:10:51</time>
      </trkpt>
      <trkpt lat="29.19424" lon="-13.47422">
        <ele>350.2</ele>
        <time>2021-07-03 14:10:52</time>
      </trkpt>
      <trkpt lat="29.19428" lon="-13.4742">
        <ele>349.8</ele>
        <time>2021-07-03 14:10:53</time>
      </trkpt>
      <trkpt lat="29.19431" lon="-13.47417">
        <ele>349</ele>
        <time>2021-07-03 14:10:57</time>
      </trkpt>
      <trkpt lat="29.19434" lon="-13.47415">
        <ele>348.4</ele>
        <time>2021-07-03 14:10:58</time>
      </trkpt>
      <trkpt lat="29.19436" lon="-13.47412">
        <ele>348</ele>
        <time>2021-07-03 14:10:59</time>
      </trkpt>
      <trkpt lat="29.19436" lon="-13.47409">
        <ele>347.2</ele>
        <time>2021-07-03 14:11:00</time>
      </trkpt>
      <trkpt lat="29.19437" lon="-13.47406">
        <ele>346.8</ele>
        <time>2021-07-03 14:11:01</time>
      </trkpt>
      <trkpt lat="29.19436" lon="-13.47402">
        <ele>346.4</ele>
        <time>2021-07-03 14:11:02</time>
      </trkpt>
      <trkpt lat="29.19435" lon="-13.47398">
        <ele>346.2</ele>
        <time>2021-07-03 14:11:03</time>
      </trkpt>
      <trkpt lat="29.19433" lon="-13.47394">
        <ele>345.8</ele>
        <time>2021-07-03 14:11:04</time>
      </trkpt>
      <trkpt lat="29.19431" lon="-13.4739">
        <ele>345.6</ele>
        <time>2021-07-03 14:12:16</time>
      </trkpt>
      <trkpt lat="29.19429" lon="-13.47386">
        <ele>345.4</ele>
        <time>2021-07-03 14:12:17</time>
      </trkpt>
      <trkpt lat="29.19427" lon="-13.47381">
        <ele>345</ele>
        <time>2021-07-03 14:12:18</time>
      </trkpt>
      <trkpt lat="29.19425" lon="-13.47376">
        <ele>344.6</ele>
        <time>2021-07-03 14:12:19</time>
      </trkpt>
      <trkpt lat="29.19422" lon="-13.47371">
        <ele>344.2</ele>
        <time>2021-07-03 14:12:20</time>
      </trkpt>
      <trkpt lat="29.1942" lon="-13.47367">
        <ele>343.6</ele>
        <time>2021-07-03 14:12:21</time>
      </trkpt>
      <trkpt lat="29.19418" lon="-13.47363">
        <ele>342.8</ele>
        <time>2021-07-03 14:12:22</time>
      </trkpt>
      <trkpt lat="29.19416" lon="-13.47359">
        <ele>342.2</ele>
        <time>2021-07-03 14:12:23</time>
      </trkpt>
      <trkpt lat="29.19414" lon="-13.47355">
        <ele>341.4</ele>
        <time>2021-07-03 14:12:24</time>
      </trkpt>
      <trkpt lat="29.19412" lon="-13.47352">
        <ele>340.8</ele>
        <time>2021-07-03 14:12:25</time>
      </trkpt>
      <trkpt lat="29.19411" lon="-13.47347">
        <ele>340.2</ele>
        <time>2021-07-03 14:12:44</time>
      </trkpt>
      <trkpt lat="29.19409" lon="-13.47344">
        <ele>339.4</ele>
        <time>2021-07-03 14:12:45</time>
      </trkpt>
      <trkpt lat="29.19406" lon="-13.4734">
        <ele>338.8</ele>
        <time>2021-07-03 14:12:46</time>
      </trkpt>
      <trkpt lat="29.19404" lon="-13.47335">
        <ele>338</ele>
        <time>2021-07-03 14:12:47</time>
      </trkpt>
      <trkpt lat="29.19402" lon="-13.47331">
        <ele>337.2</ele>
        <time>2021-07-03 14:12:48</time>
      </trkpt>
      <trkpt lat="29.19399" lon="-13.47327">
        <ele>336.6</ele>
        <time>2021-07-03 14:12:49</time>
      </trkpt>
      <trkpt lat="29.19397" lon="-13.47322">
        <ele>336</ele>
        <time>2021-07-03 14:12:50</time>
      </trkpt>
      <trkpt lat="29.19395" lon="-13.47318">
        <ele>335.2</ele>
        <time>2021-07-03 14:12:51</time>
      </trkpt>
      <trkpt lat="29.19393" lon="-13.47314">
        <ele>334.6</ele>
        <time>2021-07-03 14:12:52</time>
      </trkpt>
      <trkpt lat="29.19391" lon="-13.47309">
        <ele>334</ele>
        <time>2021-07-03 14:12:53</time>
      </trkpt>
      <trkpt lat="29.19389" lon="-13.47305">
        <ele>333.4</ele>
        <time>2021-07-03 14:12:54</time>
      </trkpt>
      <trkpt lat="29.19387" lon="-13.47302">
        <ele>332.8</ele>
        <time>2021-07-03 14:12:55</time>
      </trkpt>
      <trkpt lat="29.19384" lon="-13.47298">
        <ele>332.2</ele>
        <time>2021-07-03 14:12:56</time>
      </trkpt>
      <trkpt lat="29.19382" lon="-13.47294">
        <ele>331.4</ele>
        <time>2021-07-03 14:12:57</time>
      </trkpt>
      <trkpt lat="29.19379" lon="-13.47291">
        <ele>330.8</ele>
        <time>2021-07-03 14:12:58</time>
      </trkpt>
      <trkpt lat="29.19376" lon="-13.47287">
        <ele>330.2</ele>
        <time>2021-07-03 14:12:59</time>
      </trkpt>
      <trkpt lat="29.19373" lon="-13.47283">
        <ele>329.6</ele>
        <time>2021-07-03 14:13:00</time>
      </trkpt>
      <trkpt lat="29.19369" lon="-13.4728">
        <ele>328.8</ele>
        <time>2021-07-03 14:13:01</time>
      </trkpt>
      <trkpt lat="29.19365" lon="-13.47276">
        <ele>328.2</ele>
        <time>2021-07-03 14:13:02</time>
      </trkpt>
      <trkpt lat="29.19361" lon="-13.47272">
        <ele>327.4</ele>
        <time>2021-07-03 14:13:03</time>
      </trkpt>
      <trkpt lat="29.19357" lon="-13.47268">
        <ele>326.6</ele>
        <time>2021-07-03 14:13:04</time>
      </trkpt>
      <trkpt lat="29.19354" lon="-13.47265">
        <ele>326</ele>
        <time>2021-07-03 14:13:05</time>
      </trkpt>
      <trkpt lat="29.1935" lon="-13.47263">
        <ele>325.2</ele>
        <time>2021-07-03 14:13:06</time>
      </trkpt>
      <trkpt lat="29.19346" lon="-13.4726">
        <ele>324.6</ele>
        <time>2021-07-03 14:13:07</time>
      </trkpt>
      <trkpt lat="29.19341" lon="-13.47257">
        <ele>323.8</ele>
        <time>2021-07-03 14:13:08</time>
      </trkpt>
      <trkpt lat="29.19336" lon="-13.47254">
        <ele>323</ele>
        <time>2021-07-03 14:13:09</time>
      </trkpt>
      <trkpt lat="29.1933" lon="-13.47253">
        <ele>322.2</ele>
        <time>2021-07-03 14:13:10</time>
      </trkpt>
      <trkpt lat="29.19325" lon="-13.47251">
        <ele>321.4</ele>
        <time>2021-07-03 14:13:11</time>
      </trkpt>
      <trkpt lat="29.19319" lon="-13.47249">
        <ele>320.6</ele>
        <time>2021-07-03 14:13:12</time>
      </trkpt>
      <trkpt lat="29.19314" lon="-13.47247">
        <ele>319.6</ele>
        <time>2021-07-03 14:13:13</time>
      </trkpt>
      <trkpt lat="29.19309" lon="-13.47245">
        <ele>318.8</ele>
        <time>2021-07-03 14:13:14</time>
      </trkpt>
      <trkpt lat="29.19303" lon="-13.47243">
        <ele>317.8</ele>
        <time>2021-07-03 14:13:15</time>
      </trkpt>
      <trkpt lat="29.19299" lon="-13.4724">
        <ele>317</ele>
        <time>2021-07-03 14:13:16</time>
      </trkpt>
      <trkpt lat="29.19294" lon="-13.47238">
        <ele>316.2</ele>
        <time>2021-07-03 14:13:17</time>
      </trkpt>
      <trkpt lat="29.19289" lon="-13.47235">
        <ele>315.6</ele>
        <time>2021-07-03 14:13:18</time>
      </trkpt>
      <trkpt lat="29.19284" lon="-13.47233">
        <ele>314.8</ele>
        <time>2021-07-03 14:13:19</time>
      </trkpt>
      <trkpt lat="29.19261" lon="-13.47215">
        <ele>312</ele>
        <time>2021-07-03 14:13:20</time>
      </trkpt>
      <trkpt lat="29.19258" lon="-13.4721">
        <ele>311.4</ele>
        <time>2021-07-03 14:13:21</time>
      </trkpt>
      <trkpt lat="29.19255" lon="-13.47205">
        <ele>311</ele>
        <time>2021-07-03 14:13:22</time>
      </trkpt>
      <trkpt lat="29.19253" lon="-13.472">
        <ele>310.6</ele>
        <time>2021-07-03 14:13:23</time>
      </trkpt>
      <trkpt lat="29.1925" lon="-13.47194">
        <ele>309.8</ele>
        <time>2021-07-03 14:13:24</time>
      </trkpt>
      <trkpt lat="29.19247" lon="-13.47189">
        <ele>309</ele>
        <time>2021-07-03 14:13:25</time>
      </trkpt>
      <trkpt lat="29.19244" lon="-13.47182">
        <ele>308.4</ele>
        <time>2021-07-03 14:13:26</time>
      </trkpt>
      <trkpt lat="29.19241" lon="-13.47175">
        <ele>308</ele>
        <time>2021-07-03 14:13:27</time>
      </trkpt>
      <trkpt lat="29.19239" lon="-13.47168">
        <ele>307.6</ele>
        <time>2021-07-03 14:13:28</time>
      </trkpt>
      <trkpt lat="29.19237" lon="-13.47162">
        <ele>307.2</ele>
        <time>2021-07-03 14:13:29</time>
      </trkpt>
      <trkpt lat="29.19235" lon="-13.47156">
        <ele>307</ele>
        <time>2021-07-03 14:13:30</time>
      </trkpt>
      <trkpt lat="29.19232" lon="-13.47151">
        <ele>306.6</ele>
        <time>2021-07-03 14:13:31</time>
      </trkpt>
      <trkpt lat="29.1923" lon="-13.47146">
        <ele>306.4</ele>
        <time>2021-07-03 14:13:32</time>
      </trkpt>
      <trkpt lat="29.19227" lon="-13.47142">
        <ele>306</ele>
        <time>2021-07-03 14:13:33</time>
      </trkpt>
      <trkpt lat="29.19223" lon="-13.47138">
        <ele>305.4</ele>
        <time>2021-07-03 14:13:34</time>
      </trkpt>
      <trkpt lat="29.19221" lon="-13.47135">
        <ele>304.8</ele>
        <time>2021-07-03 14:13:35</time>
      </trkpt>
      <trkpt lat="29.19219" lon="-13.47132">
        <ele>304.2</ele>
        <time>2021-07-03 14:13:36</time>
      </trkpt>
      <trkpt lat="29.19217" lon="-13.4713">
        <ele>303.8</ele>
        <time>2021-07-03 14:13:37</time>
      </trkpt>
      <trkpt lat="29.19215" lon="-13.47127">
        <ele>303.2</ele>
        <time>2021-07-03 14:13:38</time>
      </trkpt>
      <trkpt lat="29.1921" lon="-13.47123">
        <ele>302.2</ele>
        <time>2021-07-03 14:13:39</time>
      </trkpt>
      <trkpt lat="29.19207" lon="-13.47121">
        <ele>301.8</ele>
        <time>2021-07-03 14:13:40</time>
      </trkpt>
      <trkpt lat="29.19203" lon="-13.47119">
        <ele>301.2</ele>
        <time>2021-07-03 14:13:41</time>
      </trkpt>
      <trkpt lat="29.192" lon="-13.47116">
        <ele>300.8</ele>
        <time>2021-07-03 14:13:42</time>
      </trkpt>
      <trkpt lat="29.19197" lon="-13.47113">
        <ele>300.2</ele>
        <time>2021-07-03 14:13:43</time>
      </trkpt>
      <trkpt lat="29.19194" lon="-13.4711">
        <ele>299.8</ele>
        <time>2021-07-03 14:13:44</time>
      </trkpt>
      <trkpt lat="29.19191" lon="-13.47107">
        <ele>299.2</ele>
        <time>2021-07-03 14:13:45</time>
      </trkpt>
      <trkpt lat="29.19189" lon="-13.47104">
        <ele>298.6</ele>
        <time>2021-07-03 14:13:46</time>
      </trkpt>
      <trkpt lat="29.19188" lon="-13.471">
        <ele>298.2</ele>
        <time>2021-07-03 14:13:47</time>
      </trkpt>
      <trkpt lat="29.19187" lon="-13.47096">
        <ele>297.6</ele>
        <time>2021-07-03 14:13:48</time>
      </trkpt>
      <trkpt lat="29.19186" lon="-13.47093">
        <ele>297.2</ele>
        <time>2021-07-03 14:13:49</time>
      </trkpt>
      <trkpt lat="29.19185" lon="-13.47091">
        <ele>296.6</ele>
        <time>2021-07-03 14:13:50</time>
      </trkpt>
      <trkpt lat="29.19183" lon="-13.4709">
        <ele>296.2</ele>
        <time>2021-07-03 14:13:51</time>
      </trkpt>
      <trkpt lat="29.19181" lon="-13.47089">
        <ele>295.8</ele>
        <time>2021-07-03 14:13:52</time>
      </trkpt>
      <trkpt lat="29.19181" lon="-13.47089">
        <ele>295.4</ele>
        <time>2021-07-03 14:13:53</time>
      </trkpt>
      <trkpt lat="29.19181" lon="-13.47089">
        <ele>295.4</ele>
        <time>2021-07-03 14:13:54</time>
      </trkpt>
      <trkpt lat="29.19181" lon="-13.4709">
        <ele>295.4</ele>
        <time>2021-07-03 14:13:55</time>
      </trkpt>
      <trkpt lat="29.1918" lon="-13.4709">
        <ele>294.6</ele>
        <time>2021-07-03 14:13:56</time>
      </trkpt>
      <trkpt lat="29.19178" lon="-13.4709">
        <ele>294.8</ele>
        <time>2021-07-03 14:13:57</time>
      </trkpt>
      <trkpt lat="29.19177" lon="-13.4709">
        <ele>294.8</ele>
        <time>2021-07-03 14:13:58</time>
      </trkpt>
      <trkpt lat="29.19175" lon="-13.4709">
        <ele>294.8</ele>
        <time>2021-07-03 14:13:59</time>
      </trkpt>
      <trkpt lat="29.19173" lon="-13.47091">
        <ele>294.8</ele>
        <time>2021-07-03 14:14:00</time>
      </trkpt>
      <trkpt lat="29.19172" lon="-13.47091">
        <ele>294.8</ele>
        <time>2021-07-03 14:14:01</time>
      </trkpt>
      <trkpt lat="29.19172" lon="-13.47091">
        <ele>295</ele>
        <time>2021-07-03 14:14:02</time>
      </trkpt>
      <trkpt lat="29.19172" lon="-13.4709">
        <ele>295</ele>
        <time>2021-07-03 14:14:03</time>
      </trkpt>
      <trkpt lat="29.19172" lon="-13.4709">
        <ele>295</ele>
        <time>2021-07-03 14:14:04</time>
      </trkpt>
      <trkpt lat="29.19167" lon="-13.4709">
        <ele>295</ele>
        <time>2021-07-03 14:14:05</time>
      </trkpt>
      <trkpt lat="29.19164" lon="-13.47091">
        <ele>294.8</ele>
        <time>2021-07-03 14:14:06</time>
      </trkpt>
      <trkpt lat="29.1916" lon="-13.47091">
        <ele>294.6</ele>
        <time>2021-07-03 14:14:07</time>
      </trkpt>
      <trkpt lat="29.19155" lon="-13.47092">
        <ele>294.4</ele>
        <time>2021-07-03 14:14:08</time>
      </trkpt>
      <trkpt lat="29.1915" lon="-13.47093">
        <ele>294.4</ele>
        <time>2021-07-03 14:14:09</time>
      </trkpt>
      <trkpt lat="29.19145" lon="-13.47094">
        <ele>293.8</ele>
        <time>2021-07-03 14:14:10</time>
      </trkpt>
      <trkpt lat="29.19139" lon="-13.47095">
        <ele>293.2</ele>
        <time>2021-07-03 14:14:11</time>
      </trkpt>
      <trkpt lat="29.19132" lon="-13.47096">
        <ele>292.8</ele>
        <time>2021-07-03 14:14:12</time>
      </trkpt>
      <trkpt lat="29.19124" lon="-13.47097">
        <ele>292.4</ele>
        <time>2021-07-03 14:14:13</time>
      </trkpt>
      <trkpt lat="29.19118" lon="-13.47098">
        <ele>292</ele>
        <time>2021-07-03 14:14:14</time>
      </trkpt>
      <trkpt lat="29.19112" lon="-13.47098">
        <ele>292</ele>
        <time>2021-07-03 14:14:15</time>
      </trkpt>
      <trkpt lat="29.19108" lon="-13.47098">
        <ele>291.8</ele>
        <time>2021-07-03 14:14:16</time>
      </trkpt>
      <trkpt lat="29.19104" lon="-13.47098">
        <ele>291.8</ele>
        <time>2021-07-03 14:14:17</time>
      </trkpt>
      <trkpt lat="29.191" lon="-13.47098">
        <ele>291.8</ele>
        <time>2021-07-03 14:14:18</time>
      </trkpt>
      <trkpt lat="29.19096" lon="-13.47098">
        <ele>291.8</ele>
        <time>2021-07-03 14:14:19</time>
      </trkpt>
      <trkpt lat="29.19092" lon="-13.47098">
        <ele>292</ele>
        <time>2021-07-03 14:14:20</time>
      </trkpt>
      <trkpt lat="29.19089" lon="-13.47097">
        <ele>292</ele>
        <time>2021-07-03 14:14:21</time>
      </trkpt>
      <trkpt lat="29.19086" lon="-13.47098">
        <ele>292.6</ele>
        <time>2021-07-03 14:14:22</time>
      </trkpt>
      <trkpt lat="29.19084" lon="-13.47098">
        <ele>293</ele>
        <time>2021-07-03 14:14:23</time>
      </trkpt>
      <trkpt lat="29.19081" lon="-13.47099">
        <ele>293.4</ele>
        <time>2021-07-03 14:14:24</time>
      </trkpt>
      <trkpt lat="29.19078" lon="-13.47099">
        <ele>293.8</ele>
        <time>2021-07-03 14:14:25</time>
      </trkpt>
      <trkpt lat="29.19076" lon="-13.47099">
        <ele>294.2</ele>
        <time>2021-07-03 14:14:26</time>
      </trkpt>
      <trkpt lat="29.19074" lon="-13.47098">
        <ele>294.4</ele>
        <time>2021-07-03 14:14:27</time>
      </trkpt>
      <trkpt lat="29.19071" lon="-13.47098">
        <ele>294.6</ele>
        <time>2021-07-03 14:14:28</time>
      </trkpt>
      <trkpt lat="29.19069" lon="-13.47098">
        <ele>294.6</ele>
        <time>2021-07-03 14:14:29</time>
      </trkpt>
      <trkpt lat="29.19067" lon="-13.47099">
        <ele>295</ele>
        <time>2021-07-03 14:14:30</time>
      </trkpt>
      <trkpt lat="29.19064" lon="-13.47099">
        <ele>295.2</ele>
        <time>2021-07-03 14:14:31</time>
      </trkpt>
      <trkpt lat="29.19061" lon="-13.47099">
        <ele>295.4</ele>
        <time>2021-07-03 14:14:54</time>
      </trkpt>
      <trkpt lat="29.19058" lon="-13.471">
        <ele>295.4</ele>
        <time>2021-07-03 14:14:55</time>
      </trkpt>
      <trkpt lat="29.19055" lon="-13.471">
        <ele>296</ele>
        <time>2021-07-03 14:14:56</time>
      </trkpt>
      <trkpt lat="29.19053" lon="-13.471">
        <ele>296.2</ele>
        <time>2021-07-03 14:14:57</time>
      </trkpt>
      <trkpt lat="29.1905" lon="-13.471">
        <ele>296.4</ele>
        <time>2021-07-03 14:14:58</time>
      </trkpt>
      <trkpt lat="29.19047" lon="-13.471">
        <ele>296.6</ele>
        <time>2021-07-03 14:14:59</time>
      </trkpt>
      <trkpt lat="29.19045" lon="-13.471">
        <ele>297</ele>
        <time>2021-07-03 14:15:00</time>
      </trkpt>
      <trkpt lat="29.19042" lon="-13.471">
        <ele>297.2</ele>
        <time>2021-07-03 14:15:01</time>
      </trkpt>
      <trkpt lat="29.1904" lon="-13.471">
        <ele>297.6</ele>
        <time>2021-07-03 14:15:02</time>
      </trkpt>
      <trkpt lat="29.19038" lon="-13.471">
        <ele>297.8</ele>
        <time>2021-07-03 14:16:57</time>
      </trkpt>
      <trkpt lat="29.19035" lon="-13.471">
        <ele>298.2</ele>
        <time>2021-07-03 14:16:58</time>
      </trkpt>
      <trkpt lat="29.19033" lon="-13.471">
        <ele>298.4</ele>
        <time>2021-07-03 14:16:59</time>
      </trkpt>
      <trkpt lat="29.19032" lon="-13.47099">
        <ele>298.6</ele>
        <time>2021-07-03 14:17:00</time>
      </trkpt>
      <trkpt lat="29.1903" lon="-13.47099">
        <ele>299</ele>
        <time>2021-07-03 14:17:01</time>
      </trkpt>
      <trkpt lat="29.19028" lon="-13.471">
        <ele>299.4</ele>
        <time>2021-07-03 14:17:02</time>
      </trkpt>
      <trkpt lat="29.19026" lon="-13.471">
        <ele>299.8</ele>
        <time>2021-07-03 14:17:03</time>
      </trkpt>
      <trkpt lat="29.19024" lon="-13.471">
        <ele>300.2</ele>
        <time>2021-07-03 14:17:04</time>
      </trkpt>
      <trkpt lat="29.19023" lon="-13.471">
        <ele>300.6</ele>
        <time>2021-07-03 14:17:05</time>
      </trkpt>
      <trkpt lat="29.19021" lon="-13.471">
        <ele>301</ele>
        <time>2021-07-03 14:17:06</time>
      </trkpt>
      <trkpt lat="29.19019" lon="-13.471">
        <ele>301.4</ele>
        <time>2021-07-03 14:17:07</time>
      </trkpt>
      <trkpt lat="29.19017" lon="-13.471">
        <ele>301.8</ele>
        <time>2021-07-03 14:17:08</time>
      </trkpt>
      <trkpt lat="29.19015" lon="-13.471">
        <ele>302.2</ele>
        <time>2021-07-03 14:17:09</time>
      </trkpt>
      <trkpt lat="29.19013" lon="-13.471">
        <ele>302.6</ele>
        <time>2021-07-03 14:17:10</time>
      </trkpt>
      <trkpt lat="29.1901" lon="-13.471">
        <ele>303</ele>
        <time>2021-07-03 14:17:11</time>
      </trkpt>
      <trkpt lat="29.19008" lon="-13.471">
        <ele>303.2</ele>
        <time>2021-07-03 14:17:12</time>
      </trkpt>
      <trkpt lat="29.19006" lon="-13.471">
        <ele>303.6</ele>
        <time>2021-07-03 14:17:13</time>
      </trkpt>
      <trkpt lat="29.19004" lon="-13.471">
        <ele>303.8</ele>
        <time>2021-07-03 14:17:14</time>
      </trkpt>
      <trkpt lat="29.19001" lon="-13.47101">
        <ele>304</ele>
        <time>2021-07-03 14:17:15</time>
      </trkpt>
      <trkpt lat="29.18999" lon="-13.47101">
        <ele>304</ele>
        <time>2021-07-03 14:17:16</time>
      </trkpt>
      <trkpt lat="29.18996" lon="-13.47101">
        <ele>304.4</ele>
        <time>2021-07-03 14:17:17</time>
      </trkpt>
      <trkpt lat="29.18994" lon="-13.47101">
        <ele>304.8</ele>
        <time>2021-07-03 14:17:18</time>
      </trkpt>
      <trkpt lat="29.18992" lon="-13.47101">
        <ele>305</ele>
        <time>2021-07-03 14:17:19</time>
      </trkpt>
      <trkpt lat="29.18989" lon="-13.47101">
        <ele>305</ele>
        <time>2021-07-03 14:17:20</time>
      </trkpt>
      <trkpt lat="29.18987" lon="-13.471">
        <ele>305.4</ele>
        <time>2021-07-03 14:17:21</time>
      </trkpt>
      <trkpt lat="29.18985" lon="-13.471">
        <ele>305.8</ele>
        <time>2021-07-03 14:17:22</time>
      </trkpt>
      <trkpt lat="29.18982" lon="-13.471">
        <ele>306</ele>
        <time>2021-07-03 14:17:23</time>
      </trkpt>
      <trkpt lat="29.1898" lon="-13.471">
        <ele>306.4</ele>
        <time>2021-07-03 14:17:24</time>
      </trkpt>
      <trkpt lat="29.18978" lon="-13.471">
        <ele>306.8</ele>
        <time>2021-07-03 14:17:25</time>
      </trkpt>
      <trkpt lat="29.18976" lon="-13.471">
        <ele>307</ele>
        <time>2021-07-03 14:17:26</time>
      </trkpt>
      <trkpt lat="29.18974" lon="-13.471">
        <ele>307.4</ele>
        <time>2021-07-03 14:17:27</time>
      </trkpt>
      <trkpt lat="29.18971" lon="-13.471">
        <ele>307.6</ele>
        <time>2021-07-03 14:17:28</time>
      </trkpt>
      <trkpt lat="29.18968" lon="-13.471">
        <ele>307.6</ele>
        <time>2021-07-03 14:17:29</time>
      </trkpt>
      <trkpt lat="29.18966" lon="-13.471">
        <ele>308</ele>
        <time>2021-07-03 14:17:30</time>
      </trkpt>
      <trkpt lat="29.18963" lon="-13.47099">
        <ele>308</ele>
        <time>2021-07-03 14:17:31</time>
      </trkpt>
      <trkpt lat="29.1896" lon="-13.47099">
        <ele>308.4</ele>
        <time>2021-07-03 14:17:32</time>
      </trkpt>
      <trkpt lat="29.18958" lon="-13.47099">
        <ele>308.6</ele>
        <time>2021-07-03 14:17:33</time>
      </trkpt>
      <trkpt lat="29.18955" lon="-13.47099">
        <ele>308.8</ele>
        <time>2021-07-03 14:17:34</time>
      </trkpt>
      <trkpt lat="29.18953" lon="-13.47099">
        <ele>309.2</ele>
        <time>2021-07-03 14:17:35</time>
      </trkpt>
      <trkpt lat="29.1895" lon="-13.471">
        <ele>309.4</ele>
        <time>2021-07-03 14:17:36</time>
      </trkpt>
      <trkpt lat="29.18948" lon="-13.471">
        <ele>309.8</ele>
        <time>2021-07-03 14:17:37</time>
      </trkpt>
      <trkpt lat="29.18946" lon="-13.471">
        <ele>310</ele>
        <time>2021-07-03 14:17:38</time>
      </trkpt>
      <trkpt lat="29.18943" lon="-13.471">
        <ele>310.2</ele>
        <time>2021-07-03 14:17:39</time>
      </trkpt>
      <trkpt lat="29.18941" lon="-13.471">
        <ele>310.2</ele>
        <time>2021-07-03 14:17:40</time>
      </trkpt>
      <trkpt lat="29.18938" lon="-13.471">
        <ele>310.6</ele>
        <time>2021-07-03 14:17:41</time>
      </trkpt>
      <trkpt lat="29.18936" lon="-13.471">
        <ele>311</ele>
        <time>2021-07-03 14:17:42</time>
      </trkpt>
      <trkpt lat="29.18933" lon="-13.471">
        <ele>311</ele>
        <time>2021-07-03 14:17:43</time>
      </trkpt>
      <trkpt lat="29.18931" lon="-13.471">
        <ele>311.2</ele>
        <time>2021-07-03 14:17:44</time>
      </trkpt>
      <trkpt lat="29.18928" lon="-13.471">
        <ele>311.2</ele>
        <time>2021-07-03 14:17:45</time>
      </trkpt>
      <trkpt lat="29.18925" lon="-13.471">
        <ele>311.6</ele>
        <time>2021-07-03 14:17:46</time>
      </trkpt>
      <trkpt lat="29.18922" lon="-13.47101">
        <ele>311.6</ele>
        <time>2021-07-03 14:17:47</time>
      </trkpt>
      <trkpt lat="29.18919" lon="-13.47101">
        <ele>311.8</ele>
        <time>2021-07-03 14:17:48</time>
      </trkpt>
      <trkpt lat="29.18916" lon="-13.47101">
        <ele>311.8</ele>
        <time>2021-07-03 14:17:49</time>
      </trkpt>
      <trkpt lat="29.18913" lon="-13.47101">
        <ele>312.2</ele>
        <time>2021-07-03 14:17:50</time>
      </trkpt>
      <trkpt lat="29.18909" lon="-13.47101">
        <ele>312.2</ele>
        <time>2021-07-03 14:17:51</time>
      </trkpt>
      <trkpt lat="29.18906" lon="-13.47101">
        <ele>312.2</ele>
        <time>2021-07-03 14:17:52</time>
      </trkpt>
      <trkpt lat="29.18903" lon="-13.47101">
        <ele>312.2</ele>
        <time>2021-07-03 14:17:53</time>
      </trkpt>
      <trkpt lat="29.189" lon="-13.47101">
        <ele>312.2</ele>
        <time>2021-07-03 14:17:54</time>
      </trkpt>
      <trkpt lat="29.18896" lon="-13.47101">
        <ele>312.4</ele>
        <time>2021-07-03 14:17:55</time>
      </trkpt>
      <trkpt lat="29.18892" lon="-13.47101">
        <ele>312.4</ele>
        <time>2021-07-03 14:17:56</time>
      </trkpt>
      <trkpt lat="29.18889" lon="-13.47101">
        <ele>312.4</ele>
        <time>2021-07-03 14:17:57</time>
      </trkpt>
      <trkpt lat="29.18885" lon="-13.47102">
        <ele>312.4</ele>
        <time>2021-07-03 14:17:58</time>
      </trkpt>
      <trkpt lat="29.18882" lon="-13.47102">
        <ele>312.6</ele>
        <time>2021-07-03 14:17:59</time>
      </trkpt>
      <trkpt lat="29.1888" lon="-13.47102">
        <ele>312.6</ele>
        <time>2021-07-03 14:18:00</time>
      </trkpt>
      <trkpt lat="29.18877" lon="-13.47102">
        <ele>313</ele>
        <time>2021-07-03 14:18:01</time>
      </trkpt>
      <trkpt lat="29.18874" lon="-13.47102">
        <ele>313.2</ele>
        <time>2021-07-03 14:18:02</time>
      </trkpt>
      <trkpt lat="29.18872" lon="-13.47102">
        <ele>313.6</ele>
        <time>2021-07-03 14:18:03</time>
      </trkpt>
      <trkpt lat="29.18869" lon="-13.47102">
        <ele>314</ele>
        <time>2021-07-03 14:18:04</time>
      </trkpt>
      <trkpt lat="29.18867" lon="-13.47102">
        <ele>314.4</ele>
        <time>2021-07-03 14:18:05</time>
      </trkpt>
      <trkpt lat="29.18865" lon="-13.47103">
        <ele>315</ele>
        <time>2021-07-03 14:18:06</time>
      </trkpt>
      <trkpt lat="29.18864" lon="-13.47103">
        <ele>315.4</ele>
        <time>2021-07-03 14:18:07</time>
      </trkpt>
      <trkpt lat="29.18863" lon="-13.47103">
        <ele>315.8</ele>
        <time>2021-07-03 14:18:08</time>
      </trkpt>
      <trkpt lat="29.18861" lon="-13.47103">
        <ele>316.2</ele>
        <time>2021-07-03 14:18:09</time>
      </trkpt>
      <trkpt lat="29.18861" lon="-13.47103">
        <ele>316.6</ele>
        <time>2021-07-03 14:18:10</time>
      </trkpt>
      <trkpt lat="29.1886" lon="-13.47103">
        <ele>316.8</ele>
        <time>2021-07-03 14:18:11</time>
      </trkpt>
      <trkpt lat="29.1886" lon="-13.47103">
        <ele>317.2</ele>
        <time>2021-07-03 14:18:12</time>
      </trkpt>
      <trkpt lat="29.1886" lon="-13.47103">
        <ele>317.4</ele>
        <time>2021-07-03 14:18:13</time>
      </trkpt>
      <trkpt lat="29.1886" lon="-13.47103">
        <ele>317.4</ele>
        <time>2021-07-03 14:18:14</time>
      </trkpt>
      <trkpt lat="29.1886" lon="-13.47103">
        <ele>317.8</ele>
        <time>2021-07-03 14:18:15</time>
      </trkpt>
      <trkpt lat="29.1886" lon="-13.47104">
        <ele>319.4</ele>
        <time>2021-07-03 14:18:16</time>
      </trkpt>
      <trkpt lat="29.1886" lon="-13.47104">
        <ele>319.4</ele>
        <time>2021-07-03 14:18:17</time>
      </trkpt>
      <trkpt lat="29.1886" lon="-13.47104">
        <ele>319.4</ele>
        <time>2021-07-03 14:18:18</time>
      </trkpt>
      <trkpt lat="29.1886" lon="-13.47104">
        <ele>319.4</ele>
        <time>2021-07-03 14:18:19</time>
      </trkpt>
      <trkpt lat="29.18859" lon="-13.47104">
        <ele>320.4</ele>
        <time>2021-07-03 14:18:20</time>
      </trkpt>
      <trkpt lat="29.18857" lon="-13.47106">
        <ele>320.4</ele>
        <time>2021-07-03 14:18:21</time>
      </trkpt>
      <trkpt lat="29.18854" lon="-13.47108">
        <ele>320.4</ele>
        <time>2021-07-03 14:18:22</time>
      </trkpt>
      <trkpt lat="29.18849" lon="-13.47109">
        <ele>320.2</ele>
        <time>2021-07-03 14:18:23</time>
      </trkpt>
      <trkpt lat="29.18844" lon="-13.47111">
        <ele>319.8</ele>
        <time>2021-07-03 14:18:24</time>
      </trkpt>
      <trkpt lat="29.18839" lon="-13.47113">
        <ele>319.6</ele>
        <time>2021-07-03 14:18:25</time>
      </trkpt>
      <trkpt lat="29.18833" lon="-13.47115">
        <ele>319.2</ele>
        <time>2021-07-03 14:18:26</time>
      </trkpt>
      <trkpt lat="29.18827" lon="-13.47118">
        <ele>319</ele>
        <time>2021-07-03 14:18:27</time>
      </trkpt>
      <trkpt lat="29.18821" lon="-13.47121">
        <ele>318.6</ele>
        <time>2021-07-03 14:18:28</time>
      </trkpt>
      <trkpt lat="29.18815" lon="-13.47125">
        <ele>318.4</ele>
        <time>2021-07-03 14:18:29</time>
      </trkpt>
      <trkpt lat="29.18808" lon="-13.47128">
        <ele>318.4</ele>
        <time>2021-07-03 14:18:30</time>
      </trkpt>
      <trkpt lat="29.18801" lon="-13.47131">
        <ele>318</ele>
        <time>2021-07-03 14:18:31</time>
      </trkpt>
      <trkpt lat="29.18794" lon="-13.47134">
        <ele>317.6</ele>
        <time>2021-07-03 14:18:32</time>
      </trkpt>
      <trkpt lat="29.18787" lon="-13.47138">
        <ele>317.6</ele>
        <time>2021-07-03 14:18:33</time>
      </trkpt>
      <trkpt lat="29.18779" lon="-13.47142">
        <ele>317.2</ele>
        <time>2021-07-03 14:18:34</time>
      </trkpt>
      <trkpt lat="29.18772" lon="-13.47146">
        <ele>317.2</ele>
        <time>2021-07-03 14:18:35</time>
      </trkpt>
      <trkpt lat="29.18765" lon="-13.47151">
        <ele>317.2</ele>
        <time>2021-07-03 14:18:36</time>
      </trkpt>
      <trkpt lat="29.18758" lon="-13.47156">
        <ele>316.8</ele>
        <time>2021-07-03 14:18:37</time>
      </trkpt>
      <trkpt lat="29.1875" lon="-13.47161">
        <ele>316.6</ele>
        <time>2021-07-03 14:18:38</time>
      </trkpt>
      <trkpt lat="29.18743" lon="-13.47168">
        <ele>316.6</ele>
        <time>2021-07-03 14:18:39</time>
      </trkpt>
      <trkpt lat="29.18734" lon="-13.47173">
        <ele>316.2</ele>
        <time>2021-07-03 14:18:40</time>
      </trkpt>
      <trkpt lat="29.18726" lon="-13.47179">
        <ele>316</ele>
        <time>2021-07-03 14:18:41</time>
      </trkpt>
      <trkpt lat="29.18717" lon="-13.47185">
        <ele>315.4</ele>
        <time>2021-07-03 14:18:42</time>
      </trkpt>
      <trkpt lat="29.18708" lon="-13.47192">
        <ele>315</ele>
        <time>2021-07-03 14:18:43</time>
      </trkpt>
      <trkpt lat="29.18698" lon="-13.47199">
        <ele>314.4</ele>
        <time>2021-07-03 14:18:44</time>
      </trkpt>
      <trkpt lat="29.18688" lon="-13.47206">
        <ele>313.8</ele>
        <time>2021-07-03 14:18:45</time>
      </trkpt>
      <trkpt lat="29.18679" lon="-13.47213">
        <ele>313.6</ele>
        <time>2021-07-03 14:18:46</time>
      </trkpt>
      <trkpt lat="29.18669" lon="-13.4722">
        <ele>313</ele>
        <time>2021-07-03 14:18:47</time>
      </trkpt>
      <trkpt lat="29.1866" lon="-13.47227">
        <ele>312.4</ele>
        <time>2021-07-03 14:18:48</time>
      </trkpt>
      <trkpt lat="29.1865" lon="-13.47234">
        <ele>312</ele>
        <time>2021-07-03 14:18:49</time>
      </trkpt>
      <trkpt lat="29.18641" lon="-13.47241">
        <ele>311.6</ele>
        <time>2021-07-03 14:18:50</time>
      </trkpt>
      <trkpt lat="29.18632" lon="-13.47248">
        <ele>311</ele>
        <time>2021-07-03 14:18:51</time>
      </trkpt>
      <trkpt lat="29.18624" lon="-13.47255">
        <ele>310.6</ele>
        <time>2021-07-03 14:19:07</time>
      </trkpt>
      <trkpt lat="29.18617" lon="-13.47261">
        <ele>310.2</ele>
        <time>2021-07-03 14:19:08</time>
      </trkpt>
      <trkpt lat="29.1861" lon="-13.47267">
        <ele>309.8</ele>
        <time>2021-07-03 14:19:09</time>
      </trkpt>
      <trkpt lat="29.18603" lon="-13.47273">
        <ele>309.4</ele>
        <time>2021-07-03 14:19:10</time>
      </trkpt>
      <trkpt lat="29.18596" lon="-13.47278">
        <ele>309</ele>
        <time>2021-07-03 14:19:44</time>
      </trkpt>
      <trkpt lat="29.18591" lon="-13.47282">
        <ele>308.6</ele>
        <time>2021-07-03 14:19:45</time>
      </trkpt>
      <trkpt lat="29.18585" lon="-13.47287">
        <ele>308.2</ele>
        <time>2021-07-03 14:19:46</time>
      </trkpt>
      <trkpt lat="29.1858" lon="-13.47292">
        <ele>307.8</ele>
        <time>2021-07-03 14:19:47</time>
      </trkpt>
      <trkpt lat="29.18574" lon="-13.47296">
        <ele>307.6</ele>
        <time>2021-07-03 14:19:48</time>
      </trkpt>
      <trkpt lat="29.18568" lon="-13.473">
        <ele>307.2</ele>
        <time>2021-07-03 14:19:49</time>
      </trkpt>
      <trkpt lat="29.18562" lon="-13.47305">
        <ele>307</ele>
        <time>2021-07-03 14:19:50</time>
      </trkpt>
      <trkpt lat="29.18556" lon="-13.47309">
        <ele>306.6</ele>
        <time>2021-07-03 14:19:51</time>
      </trkpt>
      <trkpt lat="29.1855" lon="-13.47314">
        <ele>306.2</ele>
        <time>2021-07-03 14:19:52</time>
      </trkpt>
      <trkpt lat="29.18544" lon="-13.47319">
        <ele>306</ele>
        <time>2021-07-03 14:19:53</time>
      </trkpt>
      <trkpt lat="29.18538" lon="-13.47324">
        <ele>305.6</ele>
        <time>2021-07-03 14:19:54</time>
      </trkpt>
      <trkpt lat="29.18532" lon="-13.47329">
        <ele>305.4</ele>
        <time>2021-07-03 14:19:55</time>
      </trkpt>
      <trkpt lat="29.18526" lon="-13.47333">
        <ele>305</ele>
        <time>2021-07-03 14:19:56</time>
      </trkpt>
      <trkpt lat="29.18521" lon="-13.47338">
        <ele>304.6</ele>
        <time>2021-07-03 14:19:57</time>
      </trkpt>
      <trkpt lat="29.18515" lon="-13.47343">
        <ele>304.2</ele>
        <time>2021-07-03 14:19:58</time>
      </trkpt>
      <trkpt lat="29.1851" lon="-13.47347">
        <ele>304</ele>
        <time>2021-07-03 14:19:59</time>
      </trkpt>
      <trkpt lat="29.18505" lon="-13.47351">
        <ele>303.6</ele>
        <time>2021-07-03 14:20:00</time>
      </trkpt>
      <trkpt lat="29.185" lon="-13.47354">
        <ele>303.4</ele>
        <time>2021-07-03 14:20:01</time>
      </trkpt>
      <trkpt lat="29.18495" lon="-13.47357">
        <ele>303</ele>
        <time>2021-07-03 14:20:02</time>
      </trkpt>
      <trkpt lat="29.18491" lon="-13.4736">
        <ele>302.6</ele>
        <time>2021-07-03 14:20:03</time>
      </trkpt>
      <trkpt lat="29.18487" lon="-13.47362">
        <ele>302.2</ele>
        <time>2021-07-03 14:20:04</time>
      </trkpt>
      <trkpt lat="29.18482" lon="-13.47364">
        <ele>301.8</ele>
        <time>2021-07-03 14:20:05</time>
      </trkpt>
      <trkpt lat="29.18478" lon="-13.47366">
        <ele>301.6</ele>
        <time>2021-07-03 14:20:06</time>
      </trkpt>
      <trkpt lat="29.18474" lon="-13.47369">
        <ele>301</ele>
        <time>2021-07-03 14:20:07</time>
      </trkpt>
      <trkpt lat="29.1847" lon="-13.47373">
        <ele>300.4</ele>
        <time>2021-07-03 14:20:08</time>
      </trkpt>
      <trkpt lat="29.18465" lon="-13.47377">
        <ele>299.8</ele>
        <time>2021-07-03 14:20:09</time>
      </trkpt>
      <trkpt lat="29.1846" lon="-13.4738">
        <ele>299.2</ele>
        <time>2021-07-03 14:20:10</time>
      </trkpt>
      <trkpt lat="29.18454" lon="-13.47384">
        <ele>298.8</ele>
        <time>2021-07-03 14:20:11</time>
      </trkpt>
      <trkpt lat="29.18449" lon="-13.47388">
        <ele>298.4</ele>
        <time>2021-07-03 14:20:12</time>
      </trkpt>
      <trkpt lat="29.18444" lon="-13.47392">
        <ele>298</ele>
        <time>2021-07-03 14:20:13</time>
      </trkpt>
      <trkpt lat="29.18439" lon="-13.47395">
        <ele>297.6</ele>
        <time>2021-07-03 14:20:14</time>
      </trkpt>
      <trkpt lat="29.18434" lon="-13.47399">
        <ele>297.4</ele>
        <time>2021-07-03 14:20:15</time>
      </trkpt>
      <trkpt lat="29.18428" lon="-13.47404">
        <ele>297</ele>
        <time>2021-07-03 14:20:16</time>
      </trkpt>
      <trkpt lat="29.18423" lon="-13.47408">
        <ele>296.6</ele>
        <time>2021-07-03 14:20:17</time>
      </trkpt>
      <trkpt lat="29.18418" lon="-13.47412">
        <ele>296.4</ele>
        <time>2021-07-03 14:20:18</time>
      </trkpt>
      <trkpt lat="29.18413" lon="-13.47415">
        <ele>296.4</ele>
        <time>2021-07-03 14:20:19</time>
      </trkpt>
      <trkpt lat="29.18409" lon="-13.47419">
        <ele>296.4</ele>
        <time>2021-07-03 14:20:20</time>
      </trkpt>
      <trkpt lat="29.18405" lon="-13.47422">
        <ele>296.6</ele>
        <time>2021-07-03 14:20:21</time>
      </trkpt>
      <trkpt lat="29.18402" lon="-13.47425">
        <ele>296.8</ele>
        <time>2021-07-03 14:20:22</time>
      </trkpt>
      <trkpt lat="29.18398" lon="-13.47428">
        <ele>297</ele>
        <time>2021-07-03 14:20:23</time>
      </trkpt>
      <trkpt lat="29.18395" lon="-13.47431">
        <ele>297.4</ele>
        <time>2021-07-03 14:20:24</time>
      </trkpt>
      <trkpt lat="29.18391" lon="-13.47434">
        <ele>297.4</ele>
        <time>2021-07-03 14:20:25</time>
      </trkpt>
      <trkpt lat="29.18387" lon="-13.47437">
        <ele>297.8</ele>
        <time>2021-07-03 14:20:26</time>
      </trkpt>
      <trkpt lat="29.18384" lon="-13.4744">
        <ele>298</ele>
        <time>2021-07-03 14:20:27</time>
      </trkpt>
      <trkpt lat="29.1838" lon="-13.47443">
        <ele>298.4</ele>
        <time>2021-07-03 14:20:28</time>
      </trkpt>
      <trkpt lat="29.18377" lon="-13.47445">
        <ele>298.6</ele>
        <time>2021-07-03 14:20:29</time>
      </trkpt>
      <trkpt lat="29.18374" lon="-13.47448">
        <ele>299.2</ele>
        <time>2021-07-03 14:20:30</time>
      </trkpt>
      <trkpt lat="29.18372" lon="-13.4745">
        <ele>299.2</ele>
        <time>2021-07-03 14:20:31</time>
      </trkpt>
      <trkpt lat="29.18369" lon="-13.47454">
        <ele>299.4</ele>
        <time>2021-07-03 14:20:32</time>
      </trkpt>
      <trkpt lat="29.18367" lon="-13.47458">
        <ele>299.4</ele>
        <time>2021-07-03 14:20:33</time>
      </trkpt>
      <trkpt lat="29.18366" lon="-13.47462">
        <ele>299.8</ele>
        <time>2021-07-03 14:20:34</time>
      </trkpt>
      <trkpt lat="29.18364" lon="-13.47465">
        <ele>299.8</ele>
        <time>2021-07-03 14:20:35</time>
      </trkpt>
      <trkpt lat="29.18361" lon="-13.47469">
        <ele>300.2</ele>
        <time>2021-07-03 14:20:36</time>
      </trkpt>
      <trkpt lat="29.18359" lon="-13.47473">
        <ele>300.6</ele>
        <time>2021-07-03 14:20:37</time>
      </trkpt>
      <trkpt lat="29.18357" lon="-13.47476">
        <ele>300.6</ele>
        <time>2021-07-03 14:20:38</time>
      </trkpt>
      <trkpt lat="29.18355" lon="-13.47479">
        <ele>300.8</ele>
        <time>2021-07-03 14:20:39</time>
      </trkpt>
      <trkpt lat="29.18352" lon="-13.47483">
        <ele>300.8</ele>
        <time>2021-07-03 14:20:40</time>
      </trkpt>
      <trkpt lat="29.1835" lon="-13.47486">
        <ele>301.2</ele>
        <time>2021-07-03 14:20:41</time>
      </trkpt>
      <trkpt lat="29.18347" lon="-13.4749">
        <ele>301.2</ele>
        <time>2021-07-03 14:20:42</time>
      </trkpt>
      <trkpt lat="29.18345" lon="-13.47493">
        <ele>301.6</ele>
        <time>2021-07-03 14:20:43</time>
      </trkpt>
      <trkpt lat="29.18342" lon="-13.47497">
        <ele>301.6</ele>
        <time>2021-07-03 14:20:44</time>
      </trkpt>
      <trkpt lat="29.1834" lon="-13.47501">
        <ele>301.6</ele>
        <time>2021-07-03 14:20:45</time>
      </trkpt>
      <trkpt lat="29.18337" lon="-13.47504">
        <ele>301.8</ele>
        <time>2021-07-03 14:20:46</time>
      </trkpt>
      <trkpt lat="29.18335" lon="-13.47507">
        <ele>301.8</ele>
        <time>2021-07-03 14:20:47</time>
      </trkpt>
      <trkpt lat="29.18332" lon="-13.4751">
        <ele>302.2</ele>
        <time>2021-07-03 14:20:48</time>
      </trkpt>
      <trkpt lat="29.18329" lon="-13.47514">
        <ele>302.2</ele>
        <time>2021-07-03 14:20:49</time>
      </trkpt>
      <trkpt lat="29.18327" lon="-13.47517">
        <ele>302.4</ele>
        <time>2021-07-03 14:20:50</time>
      </trkpt>
      <trkpt lat="29.18325" lon="-13.4752">
        <ele>302.4</ele>
        <time>2021-07-03 14:20:51</time>
      </trkpt>
      <trkpt lat="29.18322" lon="-13.47522">
        <ele>302.6</ele>
        <time>2021-07-03 14:20:52</time>
      </trkpt>
      <trkpt lat="29.18321" lon="-13.47525">
        <ele>302.6</ele>
        <time>2021-07-03 14:20:53</time>
      </trkpt>
      <trkpt lat="29.18319" lon="-13.47527">
        <ele>302.8</ele>
        <time>2021-07-03 14:20:54</time>
      </trkpt>
      <trkpt lat="29.18317" lon="-13.4753">
        <ele>302.8</ele>
        <time>2021-07-03 14:20:55</time>
      </trkpt>
      <trkpt lat="29.18315" lon="-13.47533">
        <ele>302.8</ele>
        <time>2021-07-03 14:20:56</time>
      </trkpt>
      <trkpt lat="29.18312" lon="-13.47536">
        <ele>302.8</ele>
        <time>2021-07-03 14:20:57</time>
      </trkpt>
      <trkpt lat="29.1831" lon="-13.47539">
        <ele>303</ele>
        <time>2021-07-03 14:20:58</time>
      </trkpt>
      <trkpt lat="29.18307" lon="-13.47543">
        <ele>303.4</ele>
        <time>2021-07-03 14:20:59</time>
      </trkpt>
      <trkpt lat="29.18305" lon="-13.47546">
        <ele>303.6</ele>
        <time>2021-07-03 14:21:00</time>
      </trkpt>
      <trkpt lat="29.18303" lon="-13.4755">
        <ele>303.6</ele>
        <time>2021-07-03 14:21:01</time>
      </trkpt>
      <trkpt lat="29.18301" lon="-13.47553">
        <ele>303.6</ele>
        <time>2021-07-03 14:21:02</time>
      </trkpt>
      <trkpt lat="29.18298" lon="-13.47557">
        <ele>303.6</ele>
        <time>2021-07-03 14:21:03</time>
      </trkpt>
      <trkpt lat="29.18296" lon="-13.47561">
        <ele>303.6</ele>
        <time>2021-07-03 14:21:04</time>
      </trkpt>
      <trkpt lat="29.18294" lon="-13.47565">
        <ele>303.8</ele>
        <time>2021-07-03 14:21:05</time>
      </trkpt>
      <trkpt lat="29.18292" lon="-13.47569">
        <ele>303.8</ele>
        <time>2021-07-03 14:21:06</time>
      </trkpt>
      <trkpt lat="29.1829" lon="-13.47572">
        <ele>303.8</ele>
        <time>2021-07-03 14:21:07</time>
      </trkpt>
      <trkpt lat="29.18288" lon="-13.47576">
        <ele>304</ele>
        <time>2021-07-03 14:21:08</time>
      </trkpt>
      <trkpt lat="29.18286" lon="-13.4758">
        <ele>304</ele>
        <time>2021-07-03 14:21:09</time>
      </trkpt>
      <trkpt lat="29.18284" lon="-13.47583">
        <ele>304.2</ele>
        <time>2021-07-03 14:21:10</time>
      </trkpt>
      <trkpt lat="29.18282" lon="-13.47587">
        <ele>304.6</ele>
        <time>2021-07-03 14:21:11</time>
      </trkpt>
      <trkpt lat="29.18281" lon="-13.4759">
        <ele>304.6</ele>
        <time>2021-07-03 14:21:12</time>
      </trkpt>
      <trkpt lat="29.18279" lon="-13.47594">
        <ele>305.2</ele>
        <time>2021-07-03 14:21:13</time>
      </trkpt>
      <trkpt lat="29.18278" lon="-13.47598">
        <ele>305.4</ele>
        <time>2021-07-03 14:21:14</time>
      </trkpt>
      <trkpt lat="29.18276" lon="-13.47602">
        <ele>305.6</ele>
        <time>2021-07-03 14:21:15</time>
      </trkpt>
      <trkpt lat="29.18275" lon="-13.47605">
        <ele>306</ele>
        <time>2021-07-03 14:21:16</time>
      </trkpt>
      <trkpt lat="29.18273" lon="-13.47609">
        <ele>306.2</ele>
        <time>2021-07-03 14:21:17</time>
      </trkpt>
      <trkpt lat="29.1827" lon="-13.47612">
        <ele>306.4</ele>
        <time>2021-07-03 14:21:18</time>
      </trkpt>
      <trkpt lat="29.18268" lon="-13.47615">
        <ele>306.8</ele>
        <time>2021-07-03 14:21:19</time>
      </trkpt>
      <trkpt lat="29.18265" lon="-13.47618">
        <ele>306.8</ele>
        <time>2021-07-03 14:21:20</time>
      </trkpt>
      <trkpt lat="29.18262" lon="-13.47621">
        <ele>307</ele>
        <time>2021-07-03 14:21:21</time>
      </trkpt>
      <trkpt lat="29.18259" lon="-13.47623">
        <ele>307</ele>
        <time>2021-07-03 14:21:22</time>
      </trkpt>
      <trkpt lat="29.18257" lon="-13.47626">
        <ele>307.4</ele>
        <time>2021-07-03 14:21:23</time>
      </trkpt>
      <trkpt lat="29.18254" lon="-13.47629">
        <ele>307.6</ele>
        <time>2021-07-03 14:21:24</time>
      </trkpt>
      <trkpt lat="29.18251" lon="-13.47632">
        <ele>308</ele>
        <time>2021-07-03 14:21:25</time>
      </trkpt>
      <trkpt lat="29.18249" lon="-13.47636">
        <ele>308.2</ele>
        <time>2021-07-03 14:21:26</time>
      </trkpt>
      <trkpt lat="29.18247" lon="-13.47639">
        <ele>308.4</ele>
        <time>2021-07-03 14:21:27</time>
      </trkpt>
      <trkpt lat="29.18244" lon="-13.47643">
        <ele>308.6</ele>
        <time>2021-07-03 14:21:28</time>
      </trkpt>
      <trkpt lat="29.18242" lon="-13.47646">
        <ele>309</ele>
        <time>2021-07-03 14:21:29</time>
      </trkpt>
      <trkpt lat="29.18239" lon="-13.47649">
        <ele>309</ele>
        <time>2021-07-03 14:21:30</time>
      </trkpt>
      <trkpt lat="29.18237" lon="-13.47652">
        <ele>309.4</ele>
        <time>2021-07-03 14:21:31</time>
      </trkpt>
      <trkpt lat="29.18234" lon="-13.47655">
        <ele>309.6</ele>
        <time>2021-07-03 14:21:32</time>
      </trkpt>
      <trkpt lat="29.18232" lon="-13.47658">
        <ele>309.8</ele>
        <time>2021-07-03 14:21:33</time>
      </trkpt>
      <trkpt lat="29.18229" lon="-13.47661">
        <ele>310.4</ele>
        <time>2021-07-03 14:21:34</time>
      </trkpt>
      <trkpt lat="29.18227" lon="-13.47664">
        <ele>310.4</ele>
        <time>2021-07-03 14:21:35</time>
      </trkpt>
      <trkpt lat="29.18224" lon="-13.47668">
        <ele>310.4</ele>
        <time>2021-07-03 14:21:36</time>
      </trkpt>
      <trkpt lat="29.18221" lon="-13.47671">
        <ele>310.4</ele>
        <time>2021-07-03 14:21:37</time>
      </trkpt>
      <trkpt lat="29.18218" lon="-13.47674">
        <ele>310.4</ele>
        <time>2021-07-03 14:21:38</time>
      </trkpt>
      <trkpt lat="29.18215" lon="-13.47677">
        <ele>310.4</ele>
        <time>2021-07-03 14:21:39</time>
      </trkpt>
      <trkpt lat="29.18212" lon="-13.4768">
        <ele>310.4</ele>
        <time>2021-07-03 14:21:40</time>
      </trkpt>
      <trkpt lat="29.18208" lon="-13.47683">
        <ele>310.4</ele>
        <time>2021-07-03 14:21:41</time>
      </trkpt>
      <trkpt lat="29.18204" lon="-13.47685">
        <ele>310.4</ele>
        <time>2021-07-03 14:21:42</time>
      </trkpt>
      <trkpt lat="29.182" lon="-13.47687">
        <ele>310.4</ele>
        <time>2021-07-03 14:21:43</time>
      </trkpt>
      <trkpt lat="29.18197" lon="-13.47689">
        <ele>310.4</ele>
        <time>2021-07-03 14:21:44</time>
      </trkpt>
      <trkpt lat="29.18194" lon="-13.47691">
        <ele>310.8</ele>
        <time>2021-07-03 14:21:45</time>
      </trkpt>
      <trkpt lat="29.18191" lon="-13.47693">
        <ele>311.2</ele>
        <time>2021-07-03 14:21:46</time>
      </trkpt>
      <trkpt lat="29.18188" lon="-13.47695">
        <ele>311.6</ele>
        <time>2021-07-03 14:21:47</time>
      </trkpt>
      <trkpt lat="29.18185" lon="-13.47697">
        <ele>311.8</ele>
        <time>2021-07-03 14:21:48</time>
      </trkpt>
      <trkpt lat="29.18182" lon="-13.47699">
        <ele>312</ele>
        <time>2021-07-03 14:21:49</time>
      </trkpt>
      <trkpt lat="29.1818" lon="-13.47701">
        <ele>312.4</ele>
        <time>2021-07-03 14:21:50</time>
      </trkpt>
      <trkpt lat="29.18177" lon="-13.47703">
        <ele>312.4</ele>
        <time>2021-07-03 14:21:51</time>
      </trkpt>
      <trkpt lat="29.18175" lon="-13.47706">
        <ele>312.8</ele>
        <time>2021-07-03 14:21:52</time>
      </trkpt>
      <trkpt lat="29.18173" lon="-13.47708">
        <ele>313.2</ele>
        <time>2021-07-03 14:21:53</time>
      </trkpt>
      <trkpt lat="29.18171" lon="-13.47711">
        <ele>313.4</ele>
        <time>2021-07-03 14:21:54</time>
      </trkpt>
      <trkpt lat="29.18169" lon="-13.47714">
        <ele>313.6</ele>
        <time>2021-07-03 14:21:55</time>
      </trkpt>
      <trkpt lat="29.18167" lon="-13.47716">
        <ele>313.6</ele>
        <time>2021-07-03 14:21:56</time>
      </trkpt>
      <trkpt lat="29.18166" lon="-13.47719">
        <ele>313.8</ele>
        <time>2021-07-03 14:21:57</time>
      </trkpt>
      <trkpt lat="29.18164" lon="-13.47723">
        <ele>313.8</ele>
        <time>2021-07-03 14:21:58</time>
      </trkpt>
      <trkpt lat="29.18162" lon="-13.47726">
        <ele>314.2</ele>
        <time>2021-07-03 14:21:59</time>
      </trkpt>
      <trkpt lat="29.18161" lon="-13.4773">
        <ele>314.6</ele>
        <time>2021-07-03 14:22:00</time>
      </trkpt>
      <trkpt lat="29.18159" lon="-13.47734">
        <ele>314.6</ele>
        <time>2021-07-03 14:22:01</time>
      </trkpt>
      <trkpt lat="29.18157" lon="-13.47738">
        <ele>314.2</ele>
        <time>2021-07-03 14:22:02</time>
      </trkpt>
      <trkpt lat="29.18156" lon="-13.47742">
        <ele>314.2</ele>
        <time>2021-07-03 14:22:03</time>
      </trkpt>
      <trkpt lat="29.18154" lon="-13.47746">
        <ele>314</ele>
        <time>2021-07-03 14:22:04</time>
      </trkpt>
      <trkpt lat="29.18152" lon="-13.4775">
        <ele>314</ele>
        <time>2021-07-03 14:22:05</time>
      </trkpt>
      <trkpt lat="29.1815" lon="-13.47754">
        <ele>313.6</ele>
        <time>2021-07-03 14:22:06</time>
      </trkpt>
      <trkpt lat="29.18148" lon="-13.47758">
        <ele>313.4</ele>
        <time>2021-07-03 14:22:07</time>
      </trkpt>
      <trkpt lat="29.18147" lon="-13.47762">
        <ele>313.4</ele>
        <time>2021-07-03 14:22:08</time>
      </trkpt>
      <trkpt lat="29.18145" lon="-13.47766">
        <ele>313.2</ele>
        <time>2021-07-03 14:22:09</time>
      </trkpt>
      <trkpt lat="29.18144" lon="-13.47771">
        <ele>313.2</ele>
        <time>2021-07-03 14:22:10</time>
      </trkpt>
      <trkpt lat="29.18142" lon="-13.47775">
        <ele>313.2</ele>
        <time>2021-07-03 14:22:11</time>
      </trkpt>
      <trkpt lat="29.18141" lon="-13.4778">
        <ele>312.8</ele>
        <time>2021-07-03 14:22:12</time>
      </trkpt>
      <trkpt lat="29.1814" lon="-13.47784">
        <ele>312.8</ele>
        <time>2021-07-03 14:22:13</time>
      </trkpt>
      <trkpt lat="29.1814" lon="-13.4779">
        <ele>312.8</ele>
        <time>2021-07-03 14:22:14</time>
      </trkpt>
      <trkpt lat="29.18138" lon="-13.47794">
        <ele>312.8</ele>
        <time>2021-07-03 14:22:15</time>
      </trkpt>
      <trkpt lat="29.18137" lon="-13.47799">
        <ele>312.8</ele>
        <time>2021-07-03 14:22:16</time>
      </trkpt>
      <trkpt lat="29.18135" lon="-13.47804">
        <ele>312.8</ele>
        <time>2021-07-03 14:22:17</time>
      </trkpt>
      <trkpt lat="29.18132" lon="-13.47808">
        <ele>313.2</ele>
        <time>2021-07-03 14:22:18</time>
      </trkpt>
      <trkpt lat="29.18129" lon="-13.47812">
        <ele>313</ele>
        <time>2021-07-03 14:22:19</time>
      </trkpt>
      <trkpt lat="29.18125" lon="-13.47814">
        <ele>313</ele>
        <time>2021-07-03 14:22:20</time>
      </trkpt>
      <trkpt lat="29.18121" lon="-13.47817">
        <ele>313</ele>
        <time>2021-07-03 14:22:21</time>
      </trkpt>
      <trkpt lat="29.18116" lon="-13.47819">
        <ele>312.8</ele>
        <time>2021-07-03 14:22:22</time>
      </trkpt>
      <trkpt lat="29.18112" lon="-13.47821">
        <ele>312.8</ele>
        <time>2021-07-03 14:22:23</time>
      </trkpt>
      <trkpt lat="29.18108" lon="-13.47823">
        <ele>312.8</ele>
        <time>2021-07-03 14:22:24</time>
      </trkpt>
      <trkpt lat="29.18103" lon="-13.47825">
        <ele>312.8</ele>
        <time>2021-07-03 14:22:25</time>
      </trkpt>
      <trkpt lat="29.18098" lon="-13.47826">
        <ele>312.4</ele>
        <time>2021-07-03 14:22:26</time>
      </trkpt>
      <trkpt lat="29.18094" lon="-13.47828">
        <ele>312.4</ele>
        <time>2021-07-03 14:22:27</time>
      </trkpt>
      <trkpt lat="29.18089" lon="-13.4783">
        <ele>312.4</ele>
        <time>2021-07-03 14:22:28</time>
      </trkpt>
      <trkpt lat="29.18085" lon="-13.47831">
        <ele>312.4</ele>
        <time>2021-07-03 14:22:29</time>
      </trkpt>
      <trkpt lat="29.1808" lon="-13.47833">
        <ele>312.4</ele>
        <time>2021-07-03 14:22:30</time>
      </trkpt>
      <trkpt lat="29.18076" lon="-13.47834">
        <ele>312.2</ele>
        <time>2021-07-03 14:22:31</time>
      </trkpt>
      <trkpt lat="29.18072" lon="-13.47836">
        <ele>312.2</ele>
        <time>2021-07-03 14:22:32</time>
      </trkpt>
      <trkpt lat="29.18068" lon="-13.47837">
        <ele>312.2</ele>
        <time>2021-07-03 14:22:33</time>
      </trkpt>
      <trkpt lat="29.18064" lon="-13.47839">
        <ele>312.2</ele>
        <time>2021-07-03 14:22:34</time>
      </trkpt>
      <trkpt lat="29.1806" lon="-13.4784">
        <ele>312.4</ele>
        <time>2021-07-03 14:22:35</time>
      </trkpt>
      <trkpt lat="29.18057" lon="-13.47843">
        <ele>312.6</ele>
        <time>2021-07-03 14:22:36</time>
      </trkpt>
      <trkpt lat="29.18055" lon="-13.47846">
        <ele>313</ele>
        <time>2021-07-03 14:22:37</time>
      </trkpt>
      <trkpt lat="29.18054" lon="-13.47849">
        <ele>313.2</ele>
        <time>2021-07-03 14:22:38</time>
      </trkpt>
      <trkpt lat="29.18054" lon="-13.47853">
        <ele>313.6</ele>
        <time>2021-07-03 14:22:39</time>
      </trkpt>
      <trkpt lat="29.18055" lon="-13.47857">
        <ele>314.2</ele>
        <time>2021-07-03 14:22:40</time>
      </trkpt>
      <trkpt lat="29.18057" lon="-13.47859">
        <ele>314.8</ele>
        <time>2021-07-03 14:22:41</time>
      </trkpt>
      <trkpt lat="29.18057" lon="-13.47862">
        <ele>315.2</ele>
        <time>2021-07-03 14:22:42</time>
      </trkpt>
      <trkpt lat="29.18057" lon="-13.47864">
        <ele>315.8</ele>
        <time>2021-07-03 14:22:43</time>
      </trkpt>
      <trkpt lat="29.18058" lon="-13.47867">
        <ele>316.2</ele>
        <time>2021-07-03 14:22:44</time>
      </trkpt>
      <trkpt lat="29.18058" lon="-13.47869">
        <ele>316.6</ele>
        <time>2021-07-03 14:22:45</time>
      </trkpt>
      <trkpt lat="29.18059" lon="-13.47871">
        <ele>317.4</ele>
        <time>2021-07-03 14:22:46</time>
      </trkpt>
      <trkpt lat="29.18059" lon="-13.47873">
        <ele>318</ele>
        <time>2021-07-03 14:22:47</time>
      </trkpt>
      <trkpt lat="29.1806" lon="-13.47874">
        <ele>318.6</ele>
        <time>2021-07-03 14:22:48</time>
      </trkpt>
      <trkpt lat="29.18061" lon="-13.47876">
        <ele>319</ele>
        <time>2021-07-03 14:22:49</time>
      </trkpt>
      <trkpt lat="29.18061" lon="-13.47878">
        <ele>319.2</ele>
        <time>2021-07-03 14:22:50</time>
      </trkpt>
      <trkpt lat="29.18061" lon="-13.4788">
        <ele>319.6</ele>
        <time>2021-07-03 14:22:51</time>
      </trkpt>
      <trkpt lat="29.18061" lon="-13.47881">
        <ele>319.8</ele>
        <time>2021-07-03 14:22:52</time>
      </trkpt>
      <trkpt lat="29.18061" lon="-13.47881">
        <ele>319.8</ele>
        <time>2021-07-03 14:22:53</time>
      </trkpt>
      <trkpt lat="29.18061" lon="-13.47881">
        <ele>320</ele>
        <time>2021-07-03 14:22:54</time>
      </trkpt>
      <trkpt lat="29.18061" lon="-13.47881">
        <ele>320</ele>
        <time>2021-07-03 14:22:55</time>
      </trkpt>
      <trkpt lat="29.18062" lon="-13.47885">
        <ele>320.4</ele>
        <time>2021-07-03 14:22:56</time>
      </trkpt>
      <trkpt lat="29.18062" lon="-13.47886">
        <ele>320.4</ele>
        <time>2021-07-03 14:22:57</time>
      </trkpt>
      <trkpt lat="29.18062" lon="-13.47887">
        <ele>320</ele>
        <time>2021-07-03 14:22:58</time>
      </trkpt>
      <trkpt lat="29.18062" lon="-13.47888">
        <ele>320</ele>
        <time>2021-07-03 14:22:59</time>
      </trkpt>
      <trkpt lat="29.18062" lon="-13.47889">
        <ele>320.4</ele>
        <time>2021-07-03 14:23:00</time>
      </trkpt>
      <trkpt lat="29.18062" lon="-13.4789">
        <ele>320.4</ele>
        <time>2021-07-03 14:23:01</time>
      </trkpt>
      <trkpt lat="29.18061" lon="-13.47891">
        <ele>320.6</ele>
        <time>2021-07-03 14:23:02</time>
      </trkpt>
      <trkpt lat="29.18061" lon="-13.47892">
        <ele>320.8</ele>
        <time>2021-07-03 14:23:03</time>
      </trkpt>
      <trkpt lat="29.18061" lon="-13.47894">
        <ele>320.8</ele>
        <time>2021-07-03 14:23:04</time>
      </trkpt>
      <trkpt lat="29.18061" lon="-13.47895">
        <ele>321</ele>
        <time>2021-07-03 14:23:05</time>
      </trkpt>
      <trkpt lat="29.1806" lon="-13.47896">
        <ele>321</ele>
        <time>2021-07-03 14:23:06</time>
      </trkpt>
      <trkpt lat="29.1806" lon="-13.47897">
        <ele>321</ele>
        <time>2021-07-03 14:23:07</time>
      </trkpt>
      <trkpt lat="29.1806" lon="-13.47899">
        <ele>321</ele>
        <time>2021-07-03 14:23:08</time>
      </trkpt>
      <trkpt lat="29.1806" lon="-13.479">
        <ele>321</ele>
        <time>2021-07-03 14:23:09</time>
      </trkpt>
      <trkpt lat="29.18059" lon="-13.47901">
        <ele>321</ele>
        <time>2021-07-03 14:23:10</time>
      </trkpt>
      <trkpt lat="29.18059" lon="-13.47902">
        <ele>321</ele>
        <time>2021-07-03 14:23:11</time>
      </trkpt>
      <trkpt lat="29.18058" lon="-13.47903">
        <ele>321</ele>
        <time>2021-07-03 14:23:12</time>
      </trkpt>
      <trkpt lat="29.18058" lon="-13.47904">
        <ele>321</ele>
        <time>2021-07-03 14:23:13</time>
      </trkpt>
      <trkpt lat="29.18058" lon="-13.47905">
        <ele>321.4</ele>
        <time>2021-07-03 14:23:14</time>
      </trkpt>
      <trkpt lat="29.18058" lon="-13.47907">
        <ele>321.4</ele>
        <time>2021-07-03 14:23:15</time>
      </trkpt>
      <trkpt lat="29.18058" lon="-13.47908">
        <ele>321.4</ele>
        <time>2021-07-03 14:23:16</time>
      </trkpt>
      <trkpt lat="29.18057" lon="-13.47909">
        <ele>321.4</ele>
        <time>2021-07-03 14:23:17</time>
      </trkpt>
      <trkpt lat="29.18057" lon="-13.4791">
        <ele>321.8</ele>
        <time>2021-07-03 14:23:18</time>
      </trkpt>
      <trkpt lat="29.18057" lon="-13.47911">
        <ele>322</ele>
        <time>2021-07-03 14:23:19</time>
      </trkpt>
      <trkpt lat="29.18057" lon="-13.47912">
        <ele>322</ele>
        <time>2021-07-03 14:23:20</time>
      </trkpt>
      <trkpt lat="29.18057" lon="-13.47914">
        <ele>322</ele>
        <time>2021-07-03 14:23:21</time>
      </trkpt>
      <trkpt lat="29.18057" lon="-13.47915">
        <ele>322.4</ele>
        <time>2021-07-03 14:23:22</time>
      </trkpt>
      <trkpt lat="29.18056" lon="-13.47916">
        <ele>322.4</ele>
        <time>2021-07-03 14:23:23</time>
      </trkpt>
      <trkpt lat="29.18056" lon="-13.47917">
        <ele>322.6</ele>
        <time>2021-07-03 14:23:24</time>
      </trkpt>
      <trkpt lat="29.18056" lon="-13.47917">
        <ele>322.6</ele>
        <time>2021-07-03 14:23:25</time>
      </trkpt>
      <trkpt lat="29.18056" lon="-13.47917">
        <ele>322.6</ele>
        <time>2021-07-03 14:23:26</time>
      </trkpt>
      <trkpt lat="29.18056" lon="-13.47917">
        <ele>322.8</ele>
        <time>2021-07-03 14:23:27</time>
      </trkpt>
      <trkpt lat="29.18055" lon="-13.47919">
        <ele>323.2</ele>
        <time>2021-07-03 14:23:28</time>
      </trkpt>
      <trkpt lat="29.18055" lon="-13.47921">
        <ele>323.2</ele>
        <time>2021-07-03 14:23:29</time>
      </trkpt>
      <trkpt lat="29.18054" lon="-13.47923">
        <ele>323.2</ele>
        <time>2021-07-03 14:23:30</time>
      </trkpt>
      <trkpt lat="29.18053" lon="-13.47924">
        <ele>323</ele>
        <time>2021-07-03 14:23:31</time>
      </trkpt>
      <trkpt lat="29.18053" lon="-13.47926">
        <ele>323</ele>
        <time>2021-07-03 14:23:34</time>
      </trkpt>
      <trkpt lat="29.18052" lon="-13.47928">
        <ele>323</ele>
        <time>2021-07-03 14:23:35</time>
      </trkpt>
      <trkpt lat="29.18052" lon="-13.4793">
        <ele>323</ele>
        <time>2021-07-03 14:23:36</time>
      </trkpt>
      <trkpt lat="29.18051" lon="-13.47932">
        <ele>323</ele>
        <time>2021-07-03 14:23:37</time>
      </trkpt>
      <trkpt lat="29.1805" lon="-13.47933">
        <ele>323</ele>
        <time>2021-07-03 14:23:38</time>
      </trkpt>
      <trkpt lat="29.1805" lon="-13.47935">
        <ele>323.2</ele>
        <time>2021-07-03 14:23:39</time>
      </trkpt>
      <trkpt lat="29.18049" lon="-13.47937">
        <ele>323.2</ele>
        <time>2021-07-03 14:23:40</time>
      </trkpt>
      <trkpt lat="29.18049" lon="-13.47939">
        <ele>323.2</ele>
        <time>2021-07-03 14:23:41</time>
      </trkpt>
      <trkpt lat="29.18048" lon="-13.4794">
        <ele>323.2</ele>
        <time>2021-07-03 14:23:42</time>
      </trkpt>
      <trkpt lat="29.18047" lon="-13.47942">
        <ele>323.6</ele>
        <time>2021-07-03 14:23:43</time>
      </trkpt>
      <trkpt lat="29.18046" lon="-13.47944">
        <ele>323.8</ele>
        <time>2021-07-03 14:23:44</time>
      </trkpt>
      <trkpt lat="29.18045" lon="-13.47946">
        <ele>324.2</ele>
        <time>2021-07-03 14:23:45</time>
      </trkpt>
      <trkpt lat="29.18044" lon="-13.47948">
        <ele>324.4</ele>
        <time>2021-07-03 14:23:46</time>
      </trkpt>
      <trkpt lat="29.18044" lon="-13.4795">
        <ele>324.6</ele>
        <time>2021-07-03 14:23:47</time>
      </trkpt>
      <trkpt lat="29.18043" lon="-13.47952">
        <ele>325</ele>
        <time>2021-07-03 14:23:48</time>
      </trkpt>
      <trkpt lat="29.18042" lon="-13.47954">
        <ele>325.2</ele>
        <time>2021-07-03 14:23:49</time>
      </trkpt>
      <trkpt lat="29.18041" lon="-13.47956">
        <ele>325.6</ele>
        <time>2021-07-03 14:23:50</time>
      </trkpt>
      <trkpt lat="29.1804" lon="-13.47958">
        <ele>325.6</ele>
        <time>2021-07-03 14:23:51</time>
      </trkpt>
      <trkpt lat="29.1804" lon="-13.4796">
        <ele>325.6</ele>
        <time>2021-07-03 14:23:52</time>
      </trkpt>
      <trkpt lat="29.18039" lon="-13.47962">
        <ele>325.8</ele>
        <time>2021-07-03 14:23:53</time>
      </trkpt>
      <trkpt lat="29.18038" lon="-13.47964">
        <ele>326</ele>
        <time>2021-07-03 14:23:54</time>
      </trkpt>
      <trkpt lat="29.18038" lon="-13.47966">
        <ele>326.4</ele>
        <time>2021-07-03 14:23:55</time>
      </trkpt>
      <trkpt lat="29.18037" lon="-13.47968">
        <ele>326.6</ele>
        <time>2021-07-03 14:23:56</time>
      </trkpt>
      <trkpt lat="29.18036" lon="-13.47969">
        <ele>326.8</ele>
        <time>2021-07-03 14:23:57</time>
      </trkpt>
      <trkpt lat="29.18035" lon="-13.47971">
        <ele>327.2</ele>
        <time>2021-07-03 14:23:58</time>
      </trkpt>
      <trkpt lat="29.18034" lon="-13.47974">
        <ele>327.4</ele>
        <time>2021-07-03 14:23:59</time>
      </trkpt>
      <trkpt lat="29.18033" lon="-13.47976">
        <ele>327.4</ele>
        <time>2021-07-03 14:24:00</time>
      </trkpt>
      <trkpt lat="29.18032" lon="-13.47978">
        <ele>327.8</ele>
        <time>2021-07-03 14:24:01</time>
      </trkpt>
      <trkpt lat="29.18031" lon="-13.4798">
        <ele>328</ele>
        <time>2021-07-03 14:24:02</time>
      </trkpt>
      <trkpt lat="29.1803" lon="-13.47982">
        <ele>328.2</ele>
        <time>2021-07-03 14:24:03</time>
      </trkpt>
      <trkpt lat="29.18029" lon="-13.47984">
        <ele>328.2</ele>
        <time>2021-07-03 14:24:04</time>
      </trkpt>
      <trkpt lat="29.18027" lon="-13.47986">
        <ele>328.6</ele>
        <time>2021-07-03 14:24:05</time>
      </trkpt>
      <trkpt lat="29.18026" lon="-13.47988">
        <ele>328.8</ele>
        <time>2021-07-03 14:24:09</time>
      </trkpt>
      <trkpt lat="29.18025" lon="-13.4799">
        <ele>329</ele>
        <time>2021-07-03 14:24:10</time>
      </trkpt>
      <trkpt lat="29.18023" lon="-13.47992">
        <ele>329</ele>
        <time>2021-07-03 14:24:11</time>
      </trkpt>
      <trkpt lat="29.18022" lon="-13.47994">
        <ele>329.4</ele>
        <time>2021-07-03 14:24:12</time>
      </trkpt>
      <trkpt lat="29.18021" lon="-13.47996">
        <ele>329.4</ele>
        <time>2021-07-03 14:24:13</time>
      </trkpt>
      <trkpt lat="29.1802" lon="-13.47998">
        <ele>329.8</ele>
        <time>2021-07-03 14:24:14</time>
      </trkpt>
      <trkpt lat="29.18018" lon="-13.48">
        <ele>329.8</ele>
        <time>2021-07-03 14:24:15</time>
      </trkpt>
      <trkpt lat="29.18017" lon="-13.48002">
        <ele>329.8</ele>
        <time>2021-07-03 14:24:16</time>
      </trkpt>
      <trkpt lat="29.18015" lon="-13.48004">
        <ele>329.8</ele>
        <time>2021-07-03 14:24:17</time>
      </trkpt>
      <trkpt lat="29.18014" lon="-13.48006">
        <ele>330</ele>
        <time>2021-07-03 14:24:18</time>
      </trkpt>
      <trkpt lat="29.18012" lon="-13.48008">
        <ele>330</ele>
        <time>2021-07-03 14:24:19</time>
      </trkpt>
      <trkpt lat="29.1801" lon="-13.4801">
        <ele>330</ele>
        <time>2021-07-03 14:24:20</time>
      </trkpt>
      <trkpt lat="29.18008" lon="-13.48012">
        <ele>330</ele>
        <time>2021-07-03 14:24:21</time>
      </trkpt>
      <trkpt lat="29.18006" lon="-13.48014">
        <ele>330.4</ele>
        <time>2021-07-03 14:24:22</time>
      </trkpt>
      <trkpt lat="29.18004" lon="-13.48017">
        <ele>330.4</ele>
        <time>2021-07-03 14:24:23</time>
      </trkpt>
      <trkpt lat="29.18003" lon="-13.48019">
        <ele>330.4</ele>
        <time>2021-07-03 14:24:24</time>
      </trkpt>
      <trkpt lat="29.18001" lon="-13.48021">
        <ele>330.4</ele>
        <time>2021-07-03 14:24:25</time>
      </trkpt>
      <trkpt lat="29.17999" lon="-13.48024">
        <ele>330.6</ele>
        <time>2021-07-03 14:24:26</time>
      </trkpt>
      <trkpt lat="29.17997" lon="-13.48026">
        <ele>330.6</ele>
        <time>2021-07-03 14:24:27</time>
      </trkpt>
      <trkpt lat="29.17995" lon="-13.48029">
        <ele>330.6</ele>
        <time>2021-07-03 14:24:28</time>
      </trkpt>
      <trkpt lat="29.17993" lon="-13.48031">
        <ele>330.6</ele>
        <time>2021-07-03 14:24:29</time>
      </trkpt>
      <trkpt lat="29.17991" lon="-13.48033">
        <ele>330.6</ele>
        <time>2021-07-03 14:24:30</time>
      </trkpt>
      <trkpt lat="29.17988" lon="-13.48036">
        <ele>330.2</ele>
        <time>2021-07-03 14:24:31</time>
      </trkpt>
      <trkpt lat="29.17986" lon="-13.48038">
        <ele>330.2</ele>
        <time>2021-07-03 14:24:32</time>
      </trkpt>
      <trkpt lat="29.17984" lon="-13.48041">
        <ele>330.2</ele>
        <time>2021-07-03 14:24:33</time>
      </trkpt>
      <trkpt lat="29.17982" lon="-13.48043">
        <ele>330.2</ele>
        <time>2021-07-03 14:24:34</time>
      </trkpt>
      <trkpt lat="29.1798" lon="-13.48046">
        <ele>330.2</ele>
        <time>2021-07-03 14:24:35</time>
      </trkpt>
      <trkpt lat="29.17978" lon="-13.48048">
        <ele>330.2</ele>
        <time>2021-07-03 14:24:36</time>
      </trkpt>
      <trkpt lat="29.17976" lon="-13.4805">
        <ele>330</ele>
        <time>2021-07-03 14:24:37</time>
      </trkpt>
      <trkpt lat="29.17974" lon="-13.48052">
        <ele>330</ele>
        <time>2021-07-03 14:24:38</time>
      </trkpt>
      <trkpt lat="29.17972" lon="-13.48054">
        <ele>330</ele>
        <time>2021-07-03 14:24:39</time>
      </trkpt>
      <trkpt lat="29.1797" lon="-13.48057">
        <ele>330</ele>
        <time>2021-07-03 14:24:40</time>
      </trkpt>
      <trkpt lat="29.17968" lon="-13.48059">
        <ele>330</ele>
        <time>2021-07-03 14:24:41</time>
      </trkpt>
      <trkpt lat="29.17966" lon="-13.4806">
        <ele>330.4</ele>
        <time>2021-07-03 14:24:42</time>
      </trkpt>
      <trkpt lat="29.17964" lon="-13.48062">
        <ele>330.4</ele>
        <time>2021-07-03 14:24:43</time>
      </trkpt>
      <trkpt lat="29.17962" lon="-13.48063">
        <ele>330.4</ele>
        <time>2021-07-03 14:24:44</time>
      </trkpt>
      <trkpt lat="29.1796" lon="-13.48064">
        <ele>330.6</ele>
        <time>2021-07-03 14:24:45</time>
      </trkpt>
      <trkpt lat="29.17959" lon="-13.48065">
        <ele>330.6</ele>
        <time>2021-07-03 14:24:46</time>
      </trkpt>
      <trkpt lat="29.17958" lon="-13.48066">
        <ele>330.6</ele>
        <time>2021-07-03 14:24:47</time>
      </trkpt>
      <trkpt lat="29.17956" lon="-13.48067">
        <ele>330.6</ele>
        <time>2021-07-03 14:24:48</time>
      </trkpt>
      <trkpt lat="29.17954" lon="-13.48068">
        <ele>330.6</ele>
        <time>2021-07-03 14:24:49</time>
      </trkpt>
      <trkpt lat="29.17952" lon="-13.48069">
        <ele>331</ele>
        <time>2021-07-03 14:24:50</time>
      </trkpt>
      <trkpt lat="29.1795" lon="-13.48069">
        <ele>331</ele>
        <time>2021-07-03 14:24:51</time>
      </trkpt>
      <trkpt lat="29.17948" lon="-13.4807">
        <ele>331</ele>
        <time>2021-07-03 14:24:52</time>
      </trkpt>
      <trkpt lat="29.17946" lon="-13.4807">
        <ele>331.2</ele>
        <time>2021-07-03 14:24:53</time>
      </trkpt>
      <trkpt lat="29.17944" lon="-13.48071">
        <ele>331.2</ele>
        <time>2021-07-03 14:24:54</time>
      </trkpt>
      <trkpt lat="29.17942" lon="-13.48071">
        <ele>331.6</ele>
        <time>2021-07-03 14:24:55</time>
      </trkpt>
      <trkpt lat="29.1794" lon="-13.48071">
        <ele>331.8</ele>
        <time>2021-07-03 14:24:56</time>
      </trkpt>
      <trkpt lat="29.17938" lon="-13.48072">
        <ele>332.2</ele>
        <time>2021-07-03 14:24:57</time>
      </trkpt>
      <trkpt lat="29.17936" lon="-13.48071">
        <ele>332.4</ele>
        <time>2021-07-03 14:24:58</time>
      </trkpt>
      <trkpt lat="29.17934" lon="-13.48071">
        <ele>333</ele>
        <time>2021-07-03 14:24:59</time>
      </trkpt>
      <trkpt lat="29.17932" lon="-13.48071">
        <ele>333.2</ele>
        <time>2021-07-03 14:25:00</time>
      </trkpt>
      <trkpt lat="29.17931" lon="-13.48071">
        <ele>333.6</ele>
        <time>2021-07-03 14:25:01</time>
      </trkpt>
      <trkpt lat="29.1793" lon="-13.48071">
        <ele>334</ele>
        <time>2021-07-03 14:25:02</time>
      </trkpt>
      <trkpt lat="29.17928" lon="-13.4807">
        <ele>334.4</ele>
        <time>2021-07-03 14:25:03</time>
      </trkpt>
      <trkpt lat="29.17926" lon="-13.4807">
        <ele>335</ele>
        <time>2021-07-03 14:25:04</time>
      </trkpt>
      <trkpt lat="29.17924" lon="-13.4807">
        <ele>335.4</ele>
        <time>2021-07-03 14:25:05</time>
      </trkpt>
      <trkpt lat="29.17923" lon="-13.48069">
        <ele>335.6</ele>
        <time>2021-07-03 14:25:06</time>
      </trkpt>
      <trkpt lat="29.17921" lon="-13.48069">
        <ele>335.6</ele>
        <time>2021-07-03 14:25:07</time>
      </trkpt>
      <trkpt lat="29.17919" lon="-13.4807">
        <ele>336</ele>
        <time>2021-07-03 14:25:08</time>
      </trkpt>
      <trkpt lat="29.17917" lon="-13.4807">
        <ele>336.2</ele>
        <time>2021-07-03 14:25:09</time>
      </trkpt>
      <trkpt lat="29.17916" lon="-13.4807">
        <ele>336.8</ele>
        <time>2021-07-03 14:25:10</time>
      </trkpt>
      <trkpt lat="29.17914" lon="-13.4807">
        <ele>336.8</ele>
        <time>2021-07-03 14:25:11</time>
      </trkpt>
      <trkpt lat="29.17912" lon="-13.48069">
        <ele>336.8</ele>
        <time>2021-07-03 14:25:12</time>
      </trkpt>
      <trkpt lat="29.1791" lon="-13.48069">
        <ele>337</ele>
        <time>2021-07-03 14:25:13</time>
      </trkpt>
      <trkpt lat="29.17908" lon="-13.48069">
        <ele>337</ele>
        <time>2021-07-03 14:25:14</time>
      </trkpt>
      <trkpt lat="29.17906" lon="-13.48069">
        <ele>337.2</ele>
        <time>2021-07-03 14:25:15</time>
      </trkpt>
      <trkpt lat="29.17904" lon="-13.48068">
        <ele>337.4</ele>
        <time>2021-07-03 14:25:16</time>
      </trkpt>
      <trkpt lat="29.17902" lon="-13.48068">
        <ele>337.4</ele>
        <time>2021-07-03 14:25:17</time>
      </trkpt>
      <trkpt lat="29.17901" lon="-13.48068">
        <ele>337.8</ele>
        <time>2021-07-03 14:25:18</time>
      </trkpt>
      <trkpt lat="29.17899" lon="-13.48067">
        <ele>338</ele>
        <time>2021-07-03 14:25:19</time>
      </trkpt>
      <trkpt lat="29.17897" lon="-13.48066">
        <ele>338.2</ele>
        <time>2021-07-03 14:25:20</time>
      </trkpt>
      <trkpt lat="29.17895" lon="-13.48066">
        <ele>338.4</ele>
        <time>2021-07-03 14:25:21</time>
      </trkpt>
      <trkpt lat="29.17894" lon="-13.48065">
        <ele>338.6</ele>
        <time>2021-07-03 14:25:22</time>
      </trkpt>
      <trkpt lat="29.17892" lon="-13.48065">
        <ele>339</ele>
        <time>2021-07-03 14:25:23</time>
      </trkpt>
      <trkpt lat="29.17891" lon="-13.48065">
        <ele>339.6</ele>
        <time>2021-07-03 14:25:24</time>
      </trkpt>
      <trkpt lat="29.17889" lon="-13.48065">
        <ele>339.6</ele>
        <time>2021-07-03 14:25:25</time>
      </trkpt>
      <trkpt lat="29.17887" lon="-13.48065">
        <ele>339.6</ele>
        <time>2021-07-03 14:25:26</time>
      </trkpt>
      <trkpt lat="29.17885" lon="-13.48065">
        <ele>339.6</ele>
        <time>2021-07-03 14:25:27</time>
      </trkpt>
      <trkpt lat="29.17884" lon="-13.48065">
        <ele>340</ele>
        <time>2021-07-03 14:25:28</time>
      </trkpt>
      <trkpt lat="29.17882" lon="-13.48065">
        <ele>340.2</ele>
        <time>2021-07-03 14:25:29</time>
      </trkpt>
      <trkpt lat="29.1788" lon="-13.48065">
        <ele>340.2</ele>
        <time>2021-07-03 14:25:30</time>
      </trkpt>
      <trkpt lat="29.17878" lon="-13.48065">
        <ele>340.6</ele>
        <time>2021-07-03 14:25:31</time>
      </trkpt>
      <trkpt lat="29.17877" lon="-13.48065">
        <ele>341</ele>
        <time>2021-07-03 14:25:32</time>
      </trkpt>
      <trkpt lat="29.17875" lon="-13.48065">
        <ele>341.2</ele>
        <time>2021-07-03 14:25:33</time>
      </trkpt>
      <trkpt lat="29.17873" lon="-13.48065">
        <ele>341.6</ele>
        <time>2021-07-03 14:25:34</time>
      </trkpt>
      <trkpt lat="29.17871" lon="-13.48065">
        <ele>342</ele>
        <time>2021-07-03 14:25:35</time>
      </trkpt>
      <trkpt lat="29.17869" lon="-13.48066">
        <ele>342.2</ele>
        <time>2021-07-03 14:25:36</time>
      </trkpt>
      <trkpt lat="29.17867" lon="-13.48067">
        <ele>342.6</ele>
        <time>2021-07-03 14:25:37</time>
      </trkpt>
      <trkpt lat="29.17866" lon="-13.48067">
        <ele>343</ele>
        <time>2021-07-03 14:25:38</time>
      </trkpt>
      <trkpt lat="29.17864" lon="-13.48068">
        <ele>343.4</ele>
        <time>2021-07-03 14:25:39</time>
      </trkpt>
      <trkpt lat="29.17863" lon="-13.48069">
        <ele>343.6</ele>
        <time>2021-07-03 14:25:40</time>
      </trkpt>
      <trkpt lat="29.17861" lon="-13.48069">
        <ele>344</ele>
        <time>2021-07-03 14:25:41</time>
      </trkpt>
      <trkpt lat="29.17859" lon="-13.4807">
        <ele>344.6</ele>
        <time>2021-07-03 14:25:42</time>
      </trkpt>
      <trkpt lat="29.17858" lon="-13.48071">
        <ele>344.8</ele>
        <time>2021-07-03 14:25:43</time>
      </trkpt>
      <trkpt lat="29.17856" lon="-13.48072">
        <ele>345.4</ele>
        <time>2021-07-03 14:25:44</time>
      </trkpt>
      <trkpt lat="29.17855" lon="-13.48073">
        <ele>345.8</ele>
        <time>2021-07-03 14:25:45</time>
      </trkpt>
      <trkpt lat="29.17853" lon="-13.48075">
        <ele>346.4</ele>
        <time>2021-07-03 14:25:46</time>
      </trkpt>
      <trkpt lat="29.17852" lon="-13.48077">
        <ele>346.6</ele>
        <time>2021-07-03 14:25:47</time>
      </trkpt>
      <trkpt lat="29.17851" lon="-13.48078">
        <ele>347</ele>
        <time>2021-07-03 14:25:48</time>
      </trkpt>
      <trkpt lat="29.1785" lon="-13.48079">
        <ele>347.4</ele>
        <time>2021-07-03 14:25:49</time>
      </trkpt>
      <trkpt lat="29.17848" lon="-13.48081">
        <ele>347.6</ele>
        <time>2021-07-03 14:25:50</time>
      </trkpt>
      <trkpt lat="29.17847" lon="-13.48082">
        <ele>348.2</ele>
        <time>2021-07-03 14:25:51</time>
      </trkpt>
      <trkpt lat="29.17846" lon="-13.48084">
        <ele>348.4</ele>
        <time>2021-07-03 14:25:52</time>
      </trkpt>
      <trkpt lat="29.17845" lon="-13.48086">
        <ele>348.8</ele>
        <time>2021-07-03 14:25:53</time>
      </trkpt>
      <trkpt lat="29.17845" lon="-13.48087">
        <ele>349</ele>
        <time>2021-07-03 14:25:54</time>
      </trkpt>
      <trkpt lat="29.17844" lon="-13.48089">
        <ele>349.4</ele>
        <time>2021-07-03 14:25:55</time>
      </trkpt>
      <trkpt lat="29.17843" lon="-13.4809">
        <ele>349.4</ele>
        <time>2021-07-03 14:25:56</time>
      </trkpt>
      <trkpt lat="29.17841" lon="-13.48092">
        <ele>349.4</ele>
        <time>2021-07-03 14:25:57</time>
      </trkpt>
      <trkpt lat="29.1784" lon="-13.48093">
        <ele>349.6</ele>
        <time>2021-07-03 14:25:58</time>
      </trkpt>
      <trkpt lat="29.17839" lon="-13.48094">
        <ele>349.6</ele>
        <time>2021-07-03 14:25:59</time>
      </trkpt>
      <trkpt lat="29.17837" lon="-13.48096">
        <ele>349.6</ele>
        <time>2021-07-03 14:26:00</time>
      </trkpt>
      <trkpt lat="29.17836" lon="-13.48098">
        <ele>349.6</ele>
        <time>2021-07-03 14:26:01</time>
      </trkpt>
      <trkpt lat="29.17834" lon="-13.481">
        <ele>350</ele>
        <time>2021-07-03 14:26:02</time>
      </trkpt>
      <trkpt lat="29.17833" lon="-13.48102">
        <ele>350</ele>
        <time>2021-07-03 14:26:03</time>
      </trkpt>
      <trkpt lat="29.17831" lon="-13.48104">
        <ele>350</ele>
        <time>2021-07-03 14:26:04</time>
      </trkpt>
      <trkpt lat="29.1783" lon="-13.48106">
        <ele>350</ele>
        <time>2021-07-03 14:26:05</time>
      </trkpt>
      <trkpt lat="29.17828" lon="-13.48107">
        <ele>350</ele>
        <time>2021-07-03 14:26:06</time>
      </trkpt>
      <trkpt lat="29.17826" lon="-13.48109">
        <ele>350</ele>
        <time>2021-07-03 14:26:07</time>
      </trkpt>
      <trkpt lat="29.17825" lon="-13.48111">
        <ele>350</ele>
        <time>2021-07-03 14:26:08</time>
      </trkpt>
      <trkpt lat="29.17823" lon="-13.48113">
        <ele>350.2</ele>
        <time>2021-07-03 14:26:09</time>
      </trkpt>
      <trkpt lat="29.17821" lon="-13.48115">
        <ele>350.2</ele>
        <time>2021-07-03 14:26:10</time>
      </trkpt>
      <trkpt lat="29.1782" lon="-13.48117">
        <ele>350.6</ele>
        <time>2021-07-03 14:26:11</time>
      </trkpt>
      <trkpt lat="29.17818" lon="-13.48119">
        <ele>350.6</ele>
        <time>2021-07-03 14:26:12</time>
      </trkpt>
      <trkpt lat="29.17817" lon="-13.48121">
        <ele>350.6</ele>
        <time>2021-07-03 14:26:13</time>
      </trkpt>
      <trkpt lat="29.17815" lon="-13.48123">
        <ele>351</ele>
        <time>2021-07-03 14:26:14</time>
      </trkpt>
      <trkpt lat="29.17814" lon="-13.48125">
        <ele>351</ele>
        <time>2021-07-03 14:26:15</time>
      </trkpt>
      <trkpt lat="29.17812" lon="-13.48127">
        <ele>351</ele>
        <time>2021-07-03 14:26:16</time>
      </trkpt>
      <trkpt lat="29.17811" lon="-13.48129">
        <ele>351.2</ele>
        <time>2021-07-03 14:26:17</time>
      </trkpt>
      <trkpt lat="29.17809" lon="-13.48131">
        <ele>351.2</ele>
        <time>2021-07-03 14:26:18</time>
      </trkpt>
      <trkpt lat="29.17808" lon="-13.48134">
        <ele>351.2</ele>
        <time>2021-07-03 14:26:19</time>
      </trkpt>
      <trkpt lat="29.17806" lon="-13.48136">
        <ele>351.2</ele>
        <time>2021-07-03 14:26:20</time>
      </trkpt>
      <trkpt lat="29.17805" lon="-13.48138">
        <ele>351.2</ele>
        <time>2021-07-03 14:26:21</time>
      </trkpt>
      <trkpt lat="29.17803" lon="-13.4814">
        <ele>351.4</ele>
        <time>2021-07-03 14:26:22</time>
      </trkpt>
      <trkpt lat="29.17801" lon="-13.48142">
        <ele>351.4</ele>
        <time>2021-07-03 14:26:23</time>
      </trkpt>
      <trkpt lat="29.178" lon="-13.48144">
        <ele>351.6</ele>
        <time>2021-07-03 14:26:24</time>
      </trkpt>
      <trkpt lat="29.17798" lon="-13.48147">
        <ele>351.6</ele>
        <time>2021-07-03 14:26:25</time>
      </trkpt>
      <trkpt lat="29.17796" lon="-13.48149">
        <ele>351.6</ele>
        <time>2021-07-03 14:26:26</time>
      </trkpt>
      <trkpt lat="29.17794" lon="-13.48152">
        <ele>352</ele>
        <time>2021-07-03 14:26:27</time>
      </trkpt>
      <trkpt lat="29.17792" lon="-13.48154">
        <ele>352</ele>
        <time>2021-07-03 14:26:28</time>
      </trkpt>
      <trkpt lat="29.1779" lon="-13.48157">
        <ele>352</ele>
        <time>2021-07-03 14:26:29</time>
      </trkpt>
      <trkpt lat="29.17788" lon="-13.4816">
        <ele>352.4</ele>
        <time>2021-07-03 14:26:30</time>
      </trkpt>
      <trkpt lat="29.17786" lon="-13.48163">
        <ele>352.4</ele>
        <time>2021-07-03 14:26:31</time>
      </trkpt>
      <trkpt lat="29.17784" lon="-13.48166">
        <ele>352.4</ele>
        <time>2021-07-03 14:26:32</time>
      </trkpt>
      <trkpt lat="29.17782" lon="-13.48169">
        <ele>352.4</ele>
        <time>2021-07-03 14:26:33</time>
      </trkpt>
      <trkpt lat="29.17781" lon="-13.48172">
        <ele>352.4</ele>
        <time>2021-07-03 14:26:34</time>
      </trkpt>
      <trkpt lat="29.17779" lon="-13.48176">
        <ele>352.4</ele>
        <time>2021-07-03 14:26:35</time>
      </trkpt>
      <trkpt lat="29.17777" lon="-13.48179">
        <ele>352.4</ele>
        <time>2021-07-03 14:26:36</time>
      </trkpt>
      <trkpt lat="29.17776" lon="-13.48183">
        <ele>352.4</ele>
        <time>2021-07-03 14:26:37</time>
      </trkpt>
      <trkpt lat="29.17774" lon="-13.48186">
        <ele>352.4</ele>
        <time>2021-07-03 14:26:38</time>
      </trkpt>
      <trkpt lat="29.17772" lon="-13.48189">
        <ele>352.6</ele>
        <time>2021-07-03 14:26:39</time>
      </trkpt>
      <trkpt lat="29.1777" lon="-13.48192">
        <ele>352.6</ele>
        <time>2021-07-03 14:26:40</time>
      </trkpt>
      <trkpt lat="29.17769" lon="-13.48196">
        <ele>352.6</ele>
        <time>2021-07-03 14:26:41</time>
      </trkpt>
      <trkpt lat="29.17766" lon="-13.48199">
        <ele>352.6</ele>
        <time>2021-07-03 14:26:42</time>
      </trkpt>
      <trkpt lat="29.17765" lon="-13.48202">
        <ele>352.6</ele>
        <time>2021-07-03 14:26:43</time>
      </trkpt>
      <trkpt lat="29.17763" lon="-13.48205">
        <ele>352.8</ele>
        <time>2021-07-03 14:26:44</time>
      </trkpt>
      <trkpt lat="29.17761" lon="-13.48208">
        <ele>352.8</ele>
        <time>2021-07-03 14:26:45</time>
      </trkpt>
      <trkpt lat="29.17759" lon="-13.48211">
        <ele>353</ele>
        <time>2021-07-03 14:26:46</time>
      </trkpt>
      <trkpt lat="29.17757" lon="-13.48214">
        <ele>353</ele>
        <time>2021-07-03 14:26:47</time>
      </trkpt>
      <trkpt lat="29.17755" lon="-13.48217">
        <ele>353.4</ele>
        <time>2021-07-03 14:26:48</time>
      </trkpt>
      <trkpt lat="29.17753" lon="-13.4822">
        <ele>353.6</ele>
        <time>2021-07-03 14:26:49</time>
      </trkpt>
      <trkpt lat="29.17751" lon="-13.48223">
        <ele>353.6</ele>
        <time>2021-07-03 14:26:50</time>
      </trkpt>
      <trkpt lat="29.17749" lon="-13.48226">
        <ele>353.6</ele>
        <time>2021-07-03 14:26:51</time>
      </trkpt>
      <trkpt lat="29.17746" lon="-13.48229">
        <ele>353.8</ele>
        <time>2021-07-03 14:26:52</time>
      </trkpt>
      <trkpt lat="29.17744" lon="-13.48232">
        <ele>353.8</ele>
        <time>2021-07-03 14:26:53</time>
      </trkpt>
      <trkpt lat="29.17742" lon="-13.48234">
        <ele>353.8</ele>
        <time>2021-07-03 14:26:54</time>
      </trkpt>
      <trkpt lat="29.1774" lon="-13.48237">
        <ele>353.8</ele>
        <time>2021-07-03 14:26:55</time>
      </trkpt>
      <trkpt lat="29.17738" lon="-13.4824">
        <ele>353.8</ele>
        <time>2021-07-03 14:26:56</time>
      </trkpt>
      <trkpt lat="29.17736" lon="-13.48242">
        <ele>353.8</ele>
        <time>2021-07-03 14:26:57</time>
      </trkpt>
      <trkpt lat="29.17734" lon="-13.48245">
        <ele>354</ele>
        <time>2021-07-03 14:26:58</time>
      </trkpt>
      <trkpt lat="29.17732" lon="-13.48248">
        <ele>354</ele>
        <time>2021-07-03 14:26:59</time>
      </trkpt>
      <trkpt lat="29.17729" lon="-13.4825">
        <ele>354</ele>
        <time>2021-07-03 14:27:00</time>
      </trkpt>
      <trkpt lat="29.17727" lon="-13.48253">
        <ele>354</ele>
        <time>2021-07-03 14:27:01</time>
      </trkpt>
      <trkpt lat="29.17724" lon="-13.48255">
        <ele>354</ele>
        <time>2021-07-03 14:27:02</time>
      </trkpt>
      <trkpt lat="29.17721" lon="-13.48258">
        <ele>354</ele>
        <time>2021-07-03 14:27:03</time>
      </trkpt>
      <trkpt lat="29.17719" lon="-13.4826">
        <ele>354</ele>
        <time>2021-07-03 14:27:04</time>
      </trkpt>
      <trkpt lat="29.17716" lon="-13.48262">
        <ele>354</ele>
        <time>2021-07-03 14:27:05</time>
      </trkpt>
      <trkpt lat="29.17713" lon="-13.48265">
        <ele>354</ele>
        <time>2021-07-03 14:27:06</time>
      </trkpt>
      <trkpt lat="29.1771" lon="-13.48267">
        <ele>354</ele>
        <time>2021-07-03 14:27:07</time>
      </trkpt>
      <trkpt lat="29.17706" lon="-13.48269">
        <ele>354</ele>
        <time>2021-07-03 14:27:08</time>
      </trkpt>
      <trkpt lat="29.17703" lon="-13.48271">
        <ele>353.8</ele>
        <time>2021-07-03 14:27:09</time>
      </trkpt>
      <trkpt lat="29.177" lon="-13.48274">
        <ele>353.8</ele>
        <time>2021-07-03 14:27:10</time>
      </trkpt>
      <trkpt lat="29.17697" lon="-13.48277">
        <ele>353.8</ele>
        <time>2021-07-03 14:27:11</time>
      </trkpt>
      <trkpt lat="29.17694" lon="-13.48279">
        <ele>353.6</ele>
        <time>2021-07-03 14:27:12</time>
      </trkpt>
      <trkpt lat="29.17691" lon="-13.48281">
        <ele>353.6</ele>
        <time>2021-07-03 14:27:13</time>
      </trkpt>
      <trkpt lat="29.17688" lon="-13.48284">
        <ele>353.6</ele>
        <time>2021-07-03 14:27:14</time>
      </trkpt>
      <trkpt lat="29.17685" lon="-13.48286">
        <ele>353.6</ele>
        <time>2021-07-03 14:27:15</time>
      </trkpt>
      <trkpt lat="29.17682" lon="-13.48288">
        <ele>353.6</ele>
        <time>2021-07-03 14:27:16</time>
      </trkpt>
      <trkpt lat="29.17679" lon="-13.48291">
        <ele>353.6</ele>
        <time>2021-07-03 14:27:17</time>
      </trkpt>
      <trkpt lat="29.17677" lon="-13.48294">
        <ele>353.6</ele>
        <time>2021-07-03 14:27:18</time>
      </trkpt>
      <trkpt lat="29.17674" lon="-13.48296">
        <ele>353.6</ele>
        <time>2021-07-03 14:27:19</time>
      </trkpt>
      <trkpt lat="29.17672" lon="-13.48299">
        <ele>353.6</ele>
        <time>2021-07-03 14:27:20</time>
      </trkpt>
      <trkpt lat="29.17669" lon="-13.48302">
        <ele>353.6</ele>
        <time>2021-07-03 14:27:21</time>
      </trkpt>
      <trkpt lat="29.17667" lon="-13.48305">
        <ele>353.6</ele>
        <time>2021-07-03 14:27:22</time>
      </trkpt>
      <trkpt lat="29.17664" lon="-13.48308">
        <ele>353.2</ele>
        <time>2021-07-03 14:27:23</time>
      </trkpt>
      <trkpt lat="29.17662" lon="-13.48311">
        <ele>353.2</ele>
        <time>2021-07-03 14:27:24</time>
      </trkpt>
      <trkpt lat="29.1766" lon="-13.48314">
        <ele>353.2</ele>
        <time>2021-07-03 14:27:25</time>
      </trkpt>
      <trkpt lat="29.17658" lon="-13.48317">
        <ele>353.2</ele>
        <time>2021-07-03 14:27:26</time>
      </trkpt>
      <trkpt lat="29.17656" lon="-13.4832">
        <ele>353.2</ele>
        <time>2021-07-03 14:27:27</time>
      </trkpt>
      <trkpt lat="29.17654" lon="-13.48324">
        <ele>353.6</ele>
        <time>2021-07-03 14:27:28</time>
      </trkpt>
      <trkpt lat="29.17653" lon="-13.48327">
        <ele>354</ele>
        <time>2021-07-03 14:27:29</time>
      </trkpt>
      <trkpt lat="29.17651" lon="-13.4833">
        <ele>354.4</ele>
        <time>2021-07-03 14:27:30</time>
      </trkpt>
      <trkpt lat="29.17649" lon="-13.48333">
        <ele>354.6</ele>
        <time>2021-07-03 14:27:31</time>
      </trkpt>
      <trkpt lat="29.17648" lon="-13.48336">
        <ele>354.6</ele>
        <time>2021-07-03 14:27:32</time>
      </trkpt>
      <trkpt lat="29.17647" lon="-13.48339">
        <ele>355.2</ele>
        <time>2021-07-03 14:27:33</time>
      </trkpt>
      <trkpt lat="29.17646" lon="-13.48341">
        <ele>355.8</ele>
        <time>2021-07-03 14:27:34</time>
      </trkpt>
      <trkpt lat="29.17646" lon="-13.48342">
        <ele>356.2</ele>
        <time>2021-07-03 14:27:35</time>
      </trkpt>
      <trkpt lat="29.17645" lon="-13.48343">
        <ele>356.4</ele>
        <time>2021-07-03 14:27:36</time>
      </trkpt>
      <trkpt lat="29.17645" lon="-13.48345">
        <ele>357</ele>
        <time>2021-07-03 14:27:37</time>
      </trkpt>
      <trkpt lat="29.17644" lon="-13.48346">
        <ele>357.4</ele>
        <time>2021-07-03 14:27:38</time>
      </trkpt>
      <trkpt lat="29.17644" lon="-13.48348">
        <ele>357.8</ele>
        <time>2021-07-03 14:27:39</time>
      </trkpt>
      <trkpt lat="29.17644" lon="-13.48349">
        <ele>358.2</ele>
        <time>2021-07-03 14:27:40</time>
      </trkpt>
      <trkpt lat="29.17643" lon="-13.4835">
        <ele>358.4</ele>
        <time>2021-07-03 14:27:41</time>
      </trkpt>
      <trkpt lat="29.17643" lon="-13.48351">
        <ele>358.4</ele>
        <time>2021-07-03 14:27:42</time>
      </trkpt>
      <trkpt lat="29.17643" lon="-13.4835">
        <ele>358.6</ele>
        <time>2021-07-03 14:27:43</time>
      </trkpt>
      <trkpt lat="29.17643" lon="-13.4835">
        <ele>358.8</ele>
        <time>2021-07-03 14:27:44</time>
      </trkpt>
      <trkpt lat="29.17643" lon="-13.4835">
        <ele>359.2</ele>
        <time>2021-07-03 14:27:45</time>
      </trkpt>
      <trkpt lat="29.17642" lon="-13.48353">
        <ele>359.6</ele>
        <time>2021-07-03 14:27:46</time>
      </trkpt>
      <trkpt lat="29.17641" lon="-13.48356">
        <ele>359.6</ele>
        <time>2021-07-03 14:27:47</time>
      </trkpt>
      <trkpt lat="29.1764" lon="-13.48359">
        <ele>359.6</ele>
        <time>2021-07-03 14:27:48</time>
      </trkpt>
      <trkpt lat="29.17639" lon="-13.48362">
        <ele>359.6</ele>
        <time>2021-07-03 14:27:49</time>
      </trkpt>
      <trkpt lat="29.17638" lon="-13.48366">
        <ele>359.6</ele>
        <time>2021-07-03 14:27:50</time>
      </trkpt>
      <trkpt lat="29.17638" lon="-13.48369">
        <ele>359.6</ele>
        <time>2021-07-03 14:27:51</time>
      </trkpt>
      <trkpt lat="29.17637" lon="-13.48373">
        <ele>359.4</ele>
        <time>2021-07-03 14:27:52</time>
      </trkpt>
      <trkpt lat="29.17636" lon="-13.48376">
        <ele>359.4</ele>
        <time>2021-07-03 14:27:53</time>
      </trkpt>
      <trkpt lat="29.17635" lon="-13.48379">
        <ele>359.4</ele>
        <time>2021-07-03 14:27:54</time>
      </trkpt>
      <trkpt lat="29.17633" lon="-13.48384">
        <ele>359</ele>
        <time>2021-07-03 14:27:55</time>
      </trkpt>
      <trkpt lat="29.17632" lon="-13.48388">
        <ele>359</ele>
        <time>2021-07-03 14:27:56</time>
      </trkpt>
      <trkpt lat="29.17631" lon="-13.48393">
        <ele>359</ele>
        <time>2021-07-03 14:27:57</time>
      </trkpt>
      <trkpt lat="29.17629" lon="-13.48397">
        <ele>359</ele>
        <time>2021-07-03 14:27:58</time>
      </trkpt>
      <trkpt lat="29.17627" lon="-13.48402">
        <ele>359</ele>
        <time>2021-07-03 14:27:59</time>
      </trkpt>
      <trkpt lat="29.17626" lon="-13.48406">
        <ele>358.8</ele>
        <time>2021-07-03 14:28:00</time>
      </trkpt>
      <trkpt lat="29.17625" lon="-13.48412">
        <ele>358.8</ele>
        <time>2021-07-03 14:28:01</time>
      </trkpt>
      <trkpt lat="29.17624" lon="-13.48418">
        <ele>358.4</ele>
        <time>2021-07-03 14:28:02</time>
      </trkpt>
      <trkpt lat="29.17623" lon="-13.48424">
        <ele>358</ele>
        <time>2021-07-03 14:28:03</time>
      </trkpt>
      <trkpt lat="29.17622" lon="-13.4843">
        <ele>357.8</ele>
        <time>2021-07-03 14:28:04</time>
      </trkpt>
      <trkpt lat="29.17621" lon="-13.48437">
        <ele>357.8</ele>
        <time>2021-07-03 14:28:05</time>
      </trkpt>
      <trkpt lat="29.1762" lon="-13.48445">
        <ele>357.8</ele>
        <time>2021-07-03 14:28:06</time>
      </trkpt>
      <trkpt lat="29.17619" lon="-13.48452">
        <ele>357.4</ele>
        <time>2021-07-03 14:28:07</time>
      </trkpt>
      <trkpt lat="29.17618" lon="-13.48459">
        <ele>357</ele>
        <time>2021-07-03 14:28:08</time>
      </trkpt>
      <trkpt lat="29.17616" lon="-13.48466">
        <ele>356.6</ele>
        <time>2021-07-03 14:28:09</time>
      </trkpt>
      <trkpt lat="29.17615" lon="-13.48473">
        <ele>356</ele>
        <time>2021-07-03 14:28:10</time>
      </trkpt>
      <trkpt lat="29.17615" lon="-13.4848">
        <ele>355.6</ele>
        <time>2021-07-03 14:28:11</time>
      </trkpt>
      <trkpt lat="29.17614" lon="-13.48487">
        <ele>355</ele>
        <time>2021-07-03 14:28:12</time>
      </trkpt>
      <trkpt lat="29.17612" lon="-13.48494">
        <ele>354.6</ele>
        <time>2021-07-03 14:28:13</time>
      </trkpt>
      <trkpt lat="29.17611" lon="-13.485">
        <ele>354</ele>
        <time>2021-07-03 14:28:14</time>
      </trkpt>
      <trkpt lat="29.17608" lon="-13.48506">
        <ele>353.6</ele>
        <time>2021-07-03 14:28:15</time>
      </trkpt>
      <trkpt lat="29.17606" lon="-13.48512">
        <ele>353.2</ele>
        <time>2021-07-03 14:28:16</time>
      </trkpt>
      <trkpt lat="29.17603" lon="-13.48517">
        <ele>352.6</ele>
        <time>2021-07-03 14:28:17</time>
      </trkpt>
      <trkpt lat="29.176" lon="-13.48524">
        <ele>352.2</ele>
        <time>2021-07-03 14:28:18</time>
      </trkpt>
      <trkpt lat="29.17596" lon="-13.48529">
        <ele>351.6</ele>
        <time>2021-07-03 14:28:19</time>
      </trkpt>
      <trkpt lat="29.17593" lon="-13.48534">
        <ele>351.2</ele>
        <time>2021-07-03 14:28:20</time>
      </trkpt>
      <trkpt lat="29.17589" lon="-13.48539">
        <ele>351</ele>
        <time>2021-07-03 14:28:21</time>
      </trkpt>
      <trkpt lat="29.17586" lon="-13.48545">
        <ele>350.6</ele>
        <time>2021-07-03 14:28:37</time>
      </trkpt>
      <trkpt lat="29.17582" lon="-13.4855">
        <ele>350.6</ele>
        <time>2021-07-03 14:28:38</time>
      </trkpt>
      <trkpt lat="29.17575" lon="-13.48561">
        <ele>350.2</ele>
        <time>2021-07-03 14:28:39</time>
      </trkpt>
      <trkpt lat="29.17556" lon="-13.48591">
        <ele>348.4</ele>
        <time>2021-07-03 14:28:40</time>
      </trkpt>
      <trkpt lat="29.17552" lon="-13.48597">
        <ele>348</ele>
        <time>2021-07-03 14:28:41</time>
      </trkpt>
      <trkpt lat="29.17548" lon="-13.48602">
        <ele>347.8</ele>
        <time>2021-07-03 14:28:42</time>
      </trkpt>
      <trkpt lat="29.17545" lon="-13.48609">
        <ele>347.4</ele>
        <time>2021-07-03 14:28:43</time>
      </trkpt>
      <trkpt lat="29.1754" lon="-13.48615">
        <ele>347</ele>
        <time>2021-07-03 14:28:44</time>
      </trkpt>
      <trkpt lat="29.17535" lon="-13.48622">
        <ele>346.6</ele>
        <time>2021-07-03 14:28:45</time>
      </trkpt>
      <trkpt lat="29.17531" lon="-13.48628">
        <ele>346.4</ele>
        <time>2021-07-03 14:28:46</time>
      </trkpt>
      <trkpt lat="29.17527" lon="-13.48633">
        <ele>346</ele>
        <time>2021-07-03 14:28:47</time>
      </trkpt>
      <trkpt lat="29.17523" lon="-13.48639">
        <ele>345.6</ele>
        <time>2021-07-03 14:28:48</time>
      </trkpt>
      <trkpt lat="29.17519" lon="-13.48646">
        <ele>345.2</ele>
        <time>2021-07-03 14:28:49</time>
      </trkpt>
      <trkpt lat="29.17516" lon="-13.48651">
        <ele>344.8</ele>
        <time>2021-07-03 14:28:50</time>
      </trkpt>
      <trkpt lat="29.17512" lon="-13.48657">
        <ele>344.2</ele>
        <time>2021-07-03 14:28:51</time>
      </trkpt>
      <trkpt lat="29.17509" lon="-13.48662">
        <ele>343.8</ele>
        <time>2021-07-03 14:28:52</time>
      </trkpt>
      <trkpt lat="29.17506" lon="-13.48667">
        <ele>343.4</ele>
        <time>2021-07-03 14:28:53</time>
      </trkpt>
      <trkpt lat="29.17503" lon="-13.48672">
        <ele>343.2</ele>
        <time>2021-07-03 14:28:54</time>
      </trkpt>
      <trkpt lat="29.175" lon="-13.48677">
        <ele>343</ele>
        <time>2021-07-03 14:28:55</time>
      </trkpt>
      <trkpt lat="29.17494" lon="-13.48686">
        <ele>341.8</ele>
        <time>2021-07-03 14:28:56</time>
      </trkpt>
      <trkpt lat="29.17491" lon="-13.48691">
        <ele>341.4</ele>
        <time>2021-07-03 14:28:57</time>
      </trkpt>
      <trkpt lat="29.17488" lon="-13.48695">
        <ele>340.8</ele>
        <time>2021-07-03 14:28:58</time>
      </trkpt>
      <trkpt lat="29.17485" lon="-13.48699">
        <ele>340.2</ele>
        <time>2021-07-03 14:28:59</time>
      </trkpt>
      <trkpt lat="29.17482" lon="-13.48704">
        <ele>339.8</ele>
        <time>2021-07-03 14:29:00</time>
      </trkpt>
      <trkpt lat="29.1748" lon="-13.48708">
        <ele>339.6</ele>
        <time>2021-07-03 14:29:01</time>
      </trkpt>
      <trkpt lat="29.17477" lon="-13.48711">
        <ele>339</ele>
        <time>2021-07-03 14:29:02</time>
      </trkpt>
      <trkpt lat="29.17474" lon="-13.48715">
        <ele>338.4</ele>
        <time>2021-07-03 14:29:03</time>
      </trkpt>
      <trkpt lat="29.17471" lon="-13.48719">
        <ele>338.2</ele>
        <time>2021-07-03 14:29:04</time>
      </trkpt>
      <trkpt lat="29.17468" lon="-13.48722">
        <ele>337.6</ele>
        <time>2021-07-03 14:29:05</time>
      </trkpt>
      <trkpt lat="29.17464" lon="-13.48726">
        <ele>337</ele>
        <time>2021-07-03 14:29:06</time>
      </trkpt>
      <trkpt lat="29.1746" lon="-13.4873">
        <ele>336.6</ele>
        <time>2021-07-03 14:29:07</time>
      </trkpt>
      <trkpt lat="29.17457" lon="-13.48734">
        <ele>336.2</ele>
        <time>2021-07-03 14:29:08</time>
      </trkpt>
      <trkpt lat="29.17452" lon="-13.48738">
        <ele>335.8</ele>
        <time>2021-07-03 14:29:09</time>
      </trkpt>
      <trkpt lat="29.17448" lon="-13.48743">
        <ele>335.4</ele>
        <time>2021-07-03 14:29:10</time>
      </trkpt>
      <trkpt lat="29.17443" lon="-13.48747">
        <ele>335</ele>
        <time>2021-07-03 14:29:11</time>
      </trkpt>
      <trkpt lat="29.17439" lon="-13.48751">
        <ele>334.8</ele>
        <time>2021-07-03 14:29:12</time>
      </trkpt>
      <trkpt lat="29.17434" lon="-13.48755">
        <ele>334.4</ele>
        <time>2021-07-03 14:29:13</time>
      </trkpt>
      <trkpt lat="29.17429" lon="-13.48759">
        <ele>334</ele>
        <time>2021-07-03 14:29:14</time>
      </trkpt>
      <trkpt lat="29.17425" lon="-13.48763">
        <ele>333.6</ele>
        <time>2021-07-03 14:29:15</time>
      </trkpt>
      <trkpt lat="29.17419" lon="-13.48768">
        <ele>333.2</ele>
        <time>2021-07-03 14:29:16</time>
      </trkpt>
      <trkpt lat="29.17414" lon="-13.48772">
        <ele>332.8</ele>
        <time>2021-07-03 14:29:17</time>
      </trkpt>
      <trkpt lat="29.17408" lon="-13.48776">
        <ele>332.2</ele>
        <time>2021-07-03 14:29:18</time>
      </trkpt>
      <trkpt lat="29.17402" lon="-13.4878">
        <ele>331.8</ele>
        <time>2021-07-03 14:29:19</time>
      </trkpt>
      <trkpt lat="29.17396" lon="-13.48784">
        <ele>331.8</ele>
        <time>2021-07-03 14:29:20</time>
      </trkpt>
      <trkpt lat="29.1739" lon="-13.48788">
        <ele>331.4</ele>
        <time>2021-07-03 14:29:21</time>
      </trkpt>
      <trkpt lat="29.17384" lon="-13.48793">
        <ele>331</ele>
        <time>2021-07-03 14:29:22</time>
      </trkpt>
      <trkpt lat="29.17378" lon="-13.48798">
        <ele>330.4</ele>
        <time>2021-07-03 14:29:23</time>
      </trkpt>
      <trkpt lat="29.17372" lon="-13.48802">
        <ele>330</ele>
        <time>2021-07-03 14:29:24</time>
      </trkpt>
      <trkpt lat="29.17366" lon="-13.48808">
        <ele>330</ele>
        <time>2021-07-03 14:29:25</time>
      </trkpt>
      <trkpt lat="29.1736" lon="-13.48812">
        <ele>329.2</ele>
        <time>2021-07-03 14:29:26</time>
      </trkpt>
      <trkpt lat="29.17354" lon="-13.48817">
        <ele>328.6</ele>
        <time>2021-07-03 14:29:27</time>
      </trkpt>
      <trkpt lat="29.17348" lon="-13.48823">
        <ele>328.2</ele>
        <time>2021-07-03 14:29:28</time>
      </trkpt>
      <trkpt lat="29.17343" lon="-13.48827">
        <ele>327.8</ele>
        <time>2021-07-03 14:29:29</time>
      </trkpt>
      <trkpt lat="29.17337" lon="-13.48832">
        <ele>327.4</ele>
        <time>2021-07-03 14:29:30</time>
      </trkpt>
      <trkpt lat="29.17331" lon="-13.48837">
        <ele>326.8</ele>
        <time>2021-07-03 14:29:31</time>
      </trkpt>
      <trkpt lat="29.17325" lon="-13.48842">
        <ele>326.4</ele>
        <time>2021-07-03 14:29:32</time>
      </trkpt>
      <trkpt lat="29.17319" lon="-13.48847">
        <ele>326</ele>
        <time>2021-07-03 14:29:33</time>
      </trkpt>
      <trkpt lat="29.17313" lon="-13.48851">
        <ele>325.6</ele>
        <time>2021-07-03 14:29:34</time>
      </trkpt>
      <trkpt lat="29.17306" lon="-13.48856">
        <ele>325.2</ele>
        <time>2021-07-03 14:29:35</time>
      </trkpt>
      <trkpt lat="29.173" lon="-13.48861">
        <ele>324.8</ele>
        <time>2021-07-03 14:29:36</time>
      </trkpt>
      <trkpt lat="29.17294" lon="-13.48865">
        <ele>324.6</ele>
        <time>2021-07-03 14:29:37</time>
      </trkpt>
      <trkpt lat="29.17288" lon="-13.4887">
        <ele>324.2</ele>
        <time>2021-07-03 14:29:38</time>
      </trkpt>
      <trkpt lat="29.17283" lon="-13.48874">
        <ele>323.8</ele>
        <time>2021-07-03 14:29:39</time>
      </trkpt>
      <trkpt lat="29.17277" lon="-13.48877">
        <ele>323.4</ele>
        <time>2021-07-03 14:29:40</time>
      </trkpt>
      <trkpt lat="29.17271" lon="-13.48881">
        <ele>323.4</ele>
        <time>2021-07-03 14:29:41</time>
      </trkpt>
      <trkpt lat="29.17266" lon="-13.48885">
        <ele>323</ele>
        <time>2021-07-03 14:29:42</time>
      </trkpt>
      <trkpt lat="29.17261" lon="-13.48889">
        <ele>322.6</ele>
        <time>2021-07-03 14:29:43</time>
      </trkpt>
      <trkpt lat="29.17257" lon="-13.48893">
        <ele>322.2</ele>
        <time>2021-07-03 14:29:44</time>
      </trkpt>
      <trkpt lat="29.17252" lon="-13.48896">
        <ele>321.8</ele>
        <time>2021-07-03 14:29:45</time>
      </trkpt>
      <trkpt lat="29.17248" lon="-13.489">
        <ele>321.6</ele>
        <time>2021-07-03 14:29:46</time>
      </trkpt>
      <trkpt lat="29.17243" lon="-13.48904">
        <ele>321.2</ele>
        <time>2021-07-03 14:29:47</time>
      </trkpt>
      <trkpt lat="29.17239" lon="-13.48908">
        <ele>321</ele>
        <time>2021-07-03 14:29:48</time>
      </trkpt>
      <trkpt lat="29.17234" lon="-13.48911">
        <ele>320.6</ele>
        <time>2021-07-03 14:29:49</time>
      </trkpt>
      <trkpt lat="29.17229" lon="-13.48915">
        <ele>320.2</ele>
        <time>2021-07-03 14:29:50</time>
      </trkpt>
      <trkpt lat="29.17224" lon="-13.48919">
        <ele>319.8</ele>
        <time>2021-07-03 14:29:51</time>
      </trkpt>
      <trkpt lat="29.17219" lon="-13.48924">
        <ele>319.4</ele>
        <time>2021-07-03 14:29:52</time>
      </trkpt>
      <trkpt lat="29.17213" lon="-13.48928">
        <ele>319.2</ele>
        <time>2021-07-03 14:29:53</time>
      </trkpt>
      <trkpt lat="29.17208" lon="-13.48933">
        <ele>318.8</ele>
        <time>2021-07-03 14:29:54</time>
      </trkpt>
      <trkpt lat="29.17202" lon="-13.48937">
        <ele>318.6</ele>
        <time>2021-07-03 14:29:55</time>
      </trkpt>
      <trkpt lat="29.17196" lon="-13.48942">
        <ele>318.2</ele>
        <time>2021-07-03 14:29:56</time>
      </trkpt>
      <trkpt lat="29.17189" lon="-13.48946">
        <ele>317.6</ele>
        <time>2021-07-03 14:29:57</time>
      </trkpt>
      <trkpt lat="29.17183" lon="-13.48951">
        <ele>317.2</ele>
        <time>2021-07-03 14:29:58</time>
      </trkpt>
      <trkpt lat="29.17176" lon="-13.48955">
        <ele>316.8</ele>
        <time>2021-07-03 14:29:59</time>
      </trkpt>
      <trkpt lat="29.1717" lon="-13.4896">
        <ele>316.2</ele>
        <time>2021-07-03 14:30:00</time>
      </trkpt>
      <trkpt lat="29.17163" lon="-13.48965">
        <ele>316</ele>
        <time>2021-07-03 14:30:01</time>
      </trkpt>
      <trkpt lat="29.17156" lon="-13.4897">
        <ele>315.4</ele>
        <time>2021-07-03 14:30:02</time>
      </trkpt>
      <trkpt lat="29.17149" lon="-13.48975">
        <ele>315</ele>
        <time>2021-07-03 14:30:03</time>
      </trkpt>
      <trkpt lat="29.17143" lon="-13.48979">
        <ele>314.6</ele>
        <time>2021-07-03 14:30:04</time>
      </trkpt>
      <trkpt lat="29.17136" lon="-13.48984">
        <ele>314</ele>
        <time>2021-07-03 14:30:05</time>
      </trkpt>
      <trkpt lat="29.17129" lon="-13.48989">
        <ele>313.6</ele>
        <time>2021-07-03 14:30:06</time>
      </trkpt>
      <trkpt lat="29.17123" lon="-13.48994">
        <ele>313.2</ele>
        <time>2021-07-03 14:30:07</time>
      </trkpt>
      <trkpt lat="29.17116" lon="-13.48999">
        <ele>312.8</ele>
        <time>2021-07-03 14:30:08</time>
      </trkpt>
      <trkpt lat="29.17109" lon="-13.49004">
        <ele>312.2</ele>
        <time>2021-07-03 14:30:09</time>
      </trkpt>
      <trkpt lat="29.17103" lon="-13.49009">
        <ele>311.6</ele>
        <time>2021-07-03 14:30:10</time>
      </trkpt>
      <trkpt lat="29.17096" lon="-13.49014">
        <ele>311.2</ele>
        <time>2021-07-03 14:30:11</time>
      </trkpt>
      <trkpt lat="29.17089" lon="-13.49019">
        <ele>310.8</ele>
        <time>2021-07-03 14:30:12</time>
      </trkpt>
      <trkpt lat="29.17082" lon="-13.49023">
        <ele>310.4</ele>
        <time>2021-07-03 14:30:13</time>
      </trkpt>
      <trkpt lat="29.17075" lon="-13.49028">
        <ele>310</ele>
        <time>2021-07-03 14:30:14</time>
      </trkpt>
      <trkpt lat="29.17068" lon="-13.49033">
        <ele>309.4</ele>
        <time>2021-07-03 14:30:15</time>
      </trkpt>
      <trkpt lat="29.17061" lon="-13.49038">
        <ele>309</ele>
        <time>2021-07-03 14:30:16</time>
      </trkpt>
      <trkpt lat="29.17054" lon="-13.49043">
        <ele>308.6</ele>
        <time>2021-07-03 14:30:17</time>
      </trkpt>
      <trkpt lat="29.17047" lon="-13.49048">
        <ele>308.2</ele>
        <time>2021-07-03 14:30:18</time>
      </trkpt>
      <trkpt lat="29.1704" lon="-13.49053">
        <ele>308</ele>
        <time>2021-07-03 14:30:19</time>
      </trkpt>
      <trkpt lat="29.17033" lon="-13.49058">
        <ele>307.6</ele>
        <time>2021-07-03 14:30:20</time>
      </trkpt>
      <trkpt lat="29.17027" lon="-13.49063">
        <ele>307.2</ele>
        <time>2021-07-03 14:30:21</time>
      </trkpt>
      <trkpt lat="29.1702" lon="-13.49068">
        <ele>306.8</ele>
        <time>2021-07-03 14:30:22</time>
      </trkpt>
      <trkpt lat="29.17013" lon="-13.49072">
        <ele>306.4</ele>
        <time>2021-07-03 14:30:23</time>
      </trkpt>
      <trkpt lat="29.17006" lon="-13.49077">
        <ele>306.2</ele>
        <time>2021-07-03 14:30:24</time>
      </trkpt>
      <trkpt lat="29.17" lon="-13.49082">
        <ele>305.8</ele>
        <time>2021-07-03 14:30:25</time>
      </trkpt>
      <trkpt lat="29.16993" lon="-13.49086">
        <ele>305.6</ele>
        <time>2021-07-03 14:30:26</time>
      </trkpt>
      <trkpt lat="29.16986" lon="-13.49091">
        <ele>305.2</ele>
        <time>2021-07-03 14:30:27</time>
      </trkpt>
      <trkpt lat="29.16979" lon="-13.49095">
        <ele>305.2</ele>
        <time>2021-07-03 14:30:28</time>
      </trkpt>
      <trkpt lat="29.16973" lon="-13.491">
        <ele>305</ele>
        <time>2021-07-03 14:30:29</time>
      </trkpt>
      <trkpt lat="29.16967" lon="-13.49104">
        <ele>304.6</ele>
        <time>2021-07-03 14:30:30</time>
      </trkpt>
      <trkpt lat="29.1696" lon="-13.49109">
        <ele>304.6</ele>
        <time>2021-07-03 14:30:31</time>
      </trkpt>
      <trkpt lat="29.16954" lon="-13.49113">
        <ele>304.4</ele>
        <time>2021-07-03 14:30:32</time>
      </trkpt>
      <trkpt lat="29.16949" lon="-13.49117">
        <ele>304.4</ele>
        <time>2021-07-03 14:30:33</time>
      </trkpt>
      <trkpt lat="29.16943" lon="-13.4912">
        <ele>304.4</ele>
        <time>2021-07-03 14:30:34</time>
      </trkpt>
      <trkpt lat="29.16938" lon="-13.49123">
        <ele>304.2</ele>
        <time>2021-07-03 14:30:35</time>
      </trkpt>
      <trkpt lat="29.16933" lon="-13.49126">
        <ele>304.2</ele>
        <time>2021-07-03 14:30:36</time>
      </trkpt>
      <trkpt lat="29.16929" lon="-13.4913">
        <ele>304.2</ele>
        <time>2021-07-03 14:30:37</time>
      </trkpt>
      <trkpt lat="29.16921" lon="-13.49135">
        <ele>304.8</ele>
        <time>2021-07-03 14:30:38</time>
      </trkpt>
      <trkpt lat="29.16918" lon="-13.49137">
        <ele>304.8</ele>
        <time>2021-07-03 14:30:39</time>
      </trkpt>
      <trkpt lat="29.16915" lon="-13.49139">
        <ele>304.6</ele>
        <time>2021-07-03 14:30:40</time>
      </trkpt>
      <trkpt lat="29.16912" lon="-13.49141">
        <ele>304.6</ele>
        <time>2021-07-03 14:30:41</time>
      </trkpt>
      <trkpt lat="29.16909" lon="-13.49144">
        <ele>304.6</ele>
        <time>2021-07-03 14:30:42</time>
      </trkpt>
      <trkpt lat="29.16906" lon="-13.49147">
        <ele>305</ele>
        <time>2021-07-03 14:30:43</time>
      </trkpt>
      <trkpt lat="29.16902" lon="-13.49149">
        <ele>304.6</ele>
        <time>2021-07-03 14:30:44</time>
      </trkpt>
      <trkpt lat="29.16899" lon="-13.49151">
        <ele>304.6</ele>
        <time>2021-07-03 14:30:45</time>
      </trkpt>
      <trkpt lat="29.16896" lon="-13.49153">
        <ele>304.4</ele>
        <time>2021-07-03 14:30:46</time>
      </trkpt>
      <trkpt lat="29.16892" lon="-13.49155">
        <ele>304.4</ele>
        <time>2021-07-03 14:30:47</time>
      </trkpt>
      <trkpt lat="29.16889" lon="-13.49158">
        <ele>304.4</ele>
        <time>2021-07-03 14:30:48</time>
      </trkpt>
      <trkpt lat="29.16886" lon="-13.4916">
        <ele>304.4</ele>
        <time>2021-07-03 14:30:49</time>
      </trkpt>
      <trkpt lat="29.16882" lon="-13.49162">
        <ele>304.6</ele>
        <time>2021-07-03 14:30:50</time>
      </trkpt>
      <trkpt lat="29.16879" lon="-13.49164">
        <ele>304.6</ele>
        <time>2021-07-03 14:30:51</time>
      </trkpt>
      <trkpt lat="29.16876" lon="-13.49166">
        <ele>304.6</ele>
        <time>2021-07-03 14:30:52</time>
      </trkpt>
      <trkpt lat="29.16872" lon="-13.49168">
        <ele>304.6</ele>
        <time>2021-07-03 14:30:53</time>
      </trkpt>
      <trkpt lat="29.16869" lon="-13.49171">
        <ele>304.6</ele>
        <time>2021-07-03 14:30:54</time>
      </trkpt>
      <trkpt lat="29.16865" lon="-13.49174">
        <ele>304.6</ele>
        <time>2021-07-03 14:30:55</time>
      </trkpt>
      <trkpt lat="29.16862" lon="-13.49176">
        <ele>304.8</ele>
        <time>2021-07-03 14:30:56</time>
      </trkpt>
      <trkpt lat="29.16859" lon="-13.49179">
        <ele>304.8</ele>
        <time>2021-07-03 14:30:57</time>
      </trkpt>
      <trkpt lat="29.16855" lon="-13.49182">
        <ele>304.8</ele>
        <time>2021-07-03 14:30:58</time>
      </trkpt>
      <trkpt lat="29.16852" lon="-13.49185">
        <ele>304.4</ele>
        <time>2021-07-03 14:30:59</time>
      </trkpt>
      <trkpt lat="29.16848" lon="-13.49188">
        <ele>304.2</ele>
        <time>2021-07-03 14:31:00</time>
      </trkpt>
      <trkpt lat="29.16844" lon="-13.49191">
        <ele>304</ele>
        <time>2021-07-03 14:31:01</time>
      </trkpt>
      <trkpt lat="29.1684" lon="-13.49194">
        <ele>304</ele>
        <time>2021-07-03 14:31:02</time>
      </trkpt>
      <trkpt lat="29.16836" lon="-13.49196">
        <ele>303.8</ele>
        <time>2021-07-03 14:31:03</time>
      </trkpt>
      <trkpt lat="29.16833" lon="-13.49199">
        <ele>303.4</ele>
        <time>2021-07-03 14:31:04</time>
      </trkpt>
      <trkpt lat="29.16829" lon="-13.49202">
        <ele>303.4</ele>
        <time>2021-07-03 14:31:05</time>
      </trkpt>
      <trkpt lat="29.16825" lon="-13.49206">
        <ele>303.4</ele>
        <time>2021-07-03 14:31:06</time>
      </trkpt>
      <trkpt lat="29.16822" lon="-13.49209">
        <ele>303.4</ele>
        <time>2021-07-03 14:31:07</time>
      </trkpt>
      <trkpt lat="29.16818" lon="-13.49211">
        <ele>303.4</ele>
        <time>2021-07-03 14:31:08</time>
      </trkpt>
      <trkpt lat="29.16815" lon="-13.49214">
        <ele>303.4</ele>
        <time>2021-07-03 14:31:09</time>
      </trkpt>
      <trkpt lat="29.16811" lon="-13.49217">
        <ele>303.4</ele>
        <time>2021-07-03 14:31:10</time>
      </trkpt>
      <trkpt lat="29.16808" lon="-13.49221">
        <ele>303.8</ele>
        <time>2021-07-03 14:31:11</time>
      </trkpt>
      <trkpt lat="29.16805" lon="-13.49224">
        <ele>303.8</ele>
        <time>2021-07-03 14:31:12</time>
      </trkpt>
      <trkpt lat="29.16801" lon="-13.49225">
        <ele>303.8</ele>
        <time>2021-07-03 14:31:13</time>
      </trkpt>
      <trkpt lat="29.16798" lon="-13.49228">
        <ele>304</ele>
        <time>2021-07-03 14:31:14</time>
      </trkpt>
      <trkpt lat="29.16795" lon="-13.4923">
        <ele>304</ele>
        <time>2021-07-03 14:31:15</time>
      </trkpt>
      <trkpt lat="29.16792" lon="-13.49233">
        <ele>304.4</ele>
        <time>2021-07-03 14:31:16</time>
      </trkpt>
      <trkpt lat="29.16789" lon="-13.49236">
        <ele>304.8</ele>
        <time>2021-07-03 14:31:17</time>
      </trkpt>
      <trkpt lat="29.16786" lon="-13.49238">
        <ele>305</ele>
        <time>2021-07-03 14:31:18</time>
      </trkpt>
      <trkpt lat="29.16783" lon="-13.49241">
        <ele>305</ele>
        <time>2021-07-03 14:31:19</time>
      </trkpt>
      <trkpt lat="29.1678" lon="-13.49243">
        <ele>305.6</ele>
        <time>2021-07-03 14:31:20</time>
      </trkpt>
      <trkpt lat="29.16778" lon="-13.49245">
        <ele>305.6</ele>
        <time>2021-07-03 14:31:21</time>
      </trkpt>
      <trkpt lat="29.16775" lon="-13.49247">
        <ele>306</ele>
        <time>2021-07-03 14:31:22</time>
      </trkpt>
      <trkpt lat="29.16773" lon="-13.49249">
        <ele>306</ele>
        <time>2021-07-03 14:31:23</time>
      </trkpt>
      <trkpt lat="29.1677" lon="-13.49251">
        <ele>306.6</ele>
        <time>2021-07-03 14:31:24</time>
      </trkpt>
      <trkpt lat="29.16768" lon="-13.49253">
        <ele>306.6</ele>
        <time>2021-07-03 14:31:25</time>
      </trkpt>
      <trkpt lat="29.16765" lon="-13.49255">
        <ele>306.8</ele>
        <time>2021-07-03 14:31:26</time>
      </trkpt>
      <trkpt lat="29.16763" lon="-13.49257">
        <ele>306.8</ele>
        <time>2021-07-03 14:31:27</time>
      </trkpt>
      <trkpt lat="29.16761" lon="-13.49259">
        <ele>307</ele>
        <time>2021-07-03 14:31:28</time>
      </trkpt>
      <trkpt lat="29.16759" lon="-13.49261">
        <ele>307</ele>
        <time>2021-07-03 14:31:29</time>
      </trkpt>
      <trkpt lat="29.16757" lon="-13.49263">
        <ele>307.2</ele>
        <time>2021-07-03 14:31:30</time>
      </trkpt>
      <trkpt lat="29.16754" lon="-13.49265">
        <ele>307.6</ele>
        <time>2021-07-03 14:31:31</time>
      </trkpt>
      <trkpt lat="29.16752" lon="-13.49267">
        <ele>307.8</ele>
        <time>2021-07-03 14:31:32</time>
      </trkpt>
      <trkpt lat="29.1675" lon="-13.49269">
        <ele>307.8</ele>
        <time>2021-07-03 14:31:33</time>
      </trkpt>
      <trkpt lat="29.16748" lon="-13.49272">
        <ele>308.2</ele>
        <time>2021-07-03 14:31:34</time>
      </trkpt>
      <trkpt lat="29.16745" lon="-13.49274">
        <ele>308.6</ele>
        <time>2021-07-03 14:31:35</time>
      </trkpt>
      <trkpt lat="29.16743" lon="-13.49277">
        <ele>308.8</ele>
        <time>2021-07-03 14:31:36</time>
      </trkpt>
      <trkpt lat="29.16741" lon="-13.4928">
        <ele>309</ele>
        <time>2021-07-03 14:31:37</time>
      </trkpt>
      <trkpt lat="29.16738" lon="-13.49282">
        <ele>309.2</ele>
        <time>2021-07-03 14:31:38</time>
      </trkpt>
      <trkpt lat="29.16736" lon="-13.49285">
        <ele>309.8</ele>
        <time>2021-07-03 14:31:39</time>
      </trkpt>
      <trkpt lat="29.16733" lon="-13.49287">
        <ele>310</ele>
        <time>2021-07-03 14:31:40</time>
      </trkpt>
      <trkpt lat="29.1673" lon="-13.49289">
        <ele>310.2</ele>
        <time>2021-07-03 14:31:41</time>
      </trkpt>
      <trkpt lat="29.16727" lon="-13.49291">
        <ele>310.2</ele>
        <time>2021-07-03 14:31:42</time>
      </trkpt>
      <trkpt lat="29.16724" lon="-13.49293">
        <ele>310.6</ele>
        <time>2021-07-03 14:31:43</time>
      </trkpt>
      <trkpt lat="29.16721" lon="-13.49294">
        <ele>310.6</ele>
        <time>2021-07-03 14:31:44</time>
      </trkpt>
      <trkpt lat="29.16718" lon="-13.49295">
        <ele>310.6</ele>
        <time>2021-07-03 14:31:45</time>
      </trkpt>
      <trkpt lat="29.16715" lon="-13.49296">
        <ele>310.8</ele>
        <time>2021-07-03 14:31:46</time>
      </trkpt>
      <trkpt lat="29.16713" lon="-13.49297">
        <ele>310.8</ele>
        <time>2021-07-03 14:31:47</time>
      </trkpt>
      <trkpt lat="29.1671" lon="-13.49298">
        <ele>310.8</ele>
        <time>2021-07-03 14:31:48</time>
      </trkpt>
      <trkpt lat="29.16707" lon="-13.49299">
        <ele>310.8</ele>
        <time>2021-07-03 14:31:49</time>
      </trkpt>
      <trkpt lat="29.16705" lon="-13.493">
        <ele>310.8</ele>
        <time>2021-07-03 14:31:50</time>
      </trkpt>
      <trkpt lat="29.16702" lon="-13.49301">
        <ele>310.8</ele>
        <time>2021-07-03 14:31:51</time>
      </trkpt>
      <trkpt lat="29.16698" lon="-13.49301">
        <ele>310.8</ele>
        <time>2021-07-03 14:31:52</time>
      </trkpt>
      <trkpt lat="29.16695" lon="-13.49302">
        <ele>310.4</ele>
        <time>2021-07-03 14:31:53</time>
      </trkpt>
      <trkpt lat="29.16692" lon="-13.49303">
        <ele>310.4</ele>
        <time>2021-07-03 14:31:54</time>
      </trkpt>
      <trkpt lat="29.1669" lon="-13.49304">
        <ele>310.4</ele>
        <time>2021-07-03 14:31:55</time>
      </trkpt>
      <trkpt lat="29.16687" lon="-13.49306">
        <ele>310.2</ele>
        <time>2021-07-03 14:31:56</time>
      </trkpt>
      <trkpt lat="29.16684" lon="-13.49307">
        <ele>310.2</ele>
        <time>2021-07-03 14:31:57</time>
      </trkpt>
      <trkpt lat="29.16681" lon="-13.49308">
        <ele>309.8</ele>
        <time>2021-07-03 14:31:58</time>
      </trkpt>
      <trkpt lat="29.16678" lon="-13.49309">
        <ele>309.8</ele>
        <time>2021-07-03 14:31:59</time>
      </trkpt>
      <trkpt lat="29.16677" lon="-13.49309">
        <ele>309.6</ele>
        <time>2021-07-03 14:32:00</time>
      </trkpt>
      <trkpt lat="29.16676" lon="-13.4931">
        <ele>309.6</ele>
        <time>2021-07-03 14:32:01</time>
      </trkpt>
      <trkpt lat="29.16677" lon="-13.4931">
        <ele>309.6</ele>
        <time>2021-07-03 14:32:02</time>
      </trkpt>
      <trkpt lat="29.16677" lon="-13.4931">
        <ele>309.6</ele>
        <time>2021-07-03 14:32:03</time>
      </trkpt>
      <trkpt lat="29.16677" lon="-13.4931">
        <ele>309.6</ele>
        <time>2021-07-03 14:32:04</time>
      </trkpt>
      <trkpt lat="29.16675" lon="-13.4931">
        <ele>309.6</ele>
        <time>2021-07-03 14:32:05</time>
      </trkpt>
      <trkpt lat="29.16673" lon="-13.4931">
        <ele>309.2</ele>
        <time>2021-07-03 14:32:06</time>
      </trkpt>
      <trkpt lat="29.1667" lon="-13.49311">
        <ele>309.2</ele>
        <time>2021-07-03 14:32:07</time>
      </trkpt>
      <trkpt lat="29.16667" lon="-13.49312">
        <ele>309</ele>
        <time>2021-07-03 14:32:08</time>
      </trkpt>
      <trkpt lat="29.16664" lon="-13.49313">
        <ele>309</ele>
        <time>2021-07-03 14:32:09</time>
      </trkpt>
      <trkpt lat="29.16663" lon="-13.49314">
        <ele>308.6</ele>
        <time>2021-07-03 14:32:10</time>
      </trkpt>
      <trkpt lat="29.16663" lon="-13.49314">
        <ele>308.6</ele>
        <time>2021-07-03 14:32:11</time>
      </trkpt>
      <trkpt lat="29.16663" lon="-13.49314">
        <ele>308.6</ele>
        <time>2021-07-03 14:32:12</time>
      </trkpt>
      <trkpt lat="29.16663" lon="-13.49314">
        <ele>308.6</ele>
        <time>2021-07-03 14:32:13</time>
      </trkpt>
      <trkpt lat="29.1666" lon="-13.49314">
        <ele>309</ele>
        <time>2021-07-03 14:32:14</time>
      </trkpt>
      <trkpt lat="29.16658" lon="-13.49315">
        <ele>308.6</ele>
        <time>2021-07-03 14:32:15</time>
      </trkpt>
      <trkpt lat="29.16655" lon="-13.49316">
        <ele>308.6</ele>
        <time>2021-07-03 14:32:16</time>
      </trkpt>
      <trkpt lat="29.16652" lon="-13.49317">
        <ele>308.6</ele>
        <time>2021-07-03 14:32:17</time>
      </trkpt>
      <trkpt lat="29.16649" lon="-13.49318">
        <ele>308.4</ele>
        <time>2021-07-03 14:32:18</time>
      </trkpt>
      <trkpt lat="29.16646" lon="-13.49319">
        <ele>308.4</ele>
        <time>2021-07-03 14:32:19</time>
      </trkpt>
      <trkpt lat="29.16642" lon="-13.4932">
        <ele>308.4</ele>
        <time>2021-07-03 14:32:20</time>
      </trkpt>
      <trkpt lat="29.16639" lon="-13.49321">
        <ele>308</ele>
        <time>2021-07-03 14:32:21</time>
      </trkpt>
      <trkpt lat="29.16635" lon="-13.49322">
        <ele>308</ele>
        <time>2021-07-03 14:32:22</time>
      </trkpt>
      <trkpt lat="29.16631" lon="-13.49323">
        <ele>307.8</ele>
        <time>2021-07-03 14:32:23</time>
      </trkpt>
      <trkpt lat="29.16627" lon="-13.49324">
        <ele>307.8</ele>
        <time>2021-07-03 14:32:24</time>
      </trkpt>
      <trkpt lat="29.16623" lon="-13.49325">
        <ele>307.4</ele>
        <time>2021-07-03 14:32:25</time>
      </trkpt>
      <trkpt lat="29.1662" lon="-13.49326">
        <ele>307.4</ele>
        <time>2021-07-03 14:32:26</time>
      </trkpt>
      <trkpt lat="29.16616" lon="-13.49327">
        <ele>307.2</ele>
        <time>2021-07-03 14:32:27</time>
      </trkpt>
      <trkpt lat="29.16613" lon="-13.49327">
        <ele>307.2</ele>
        <time>2021-07-03 14:32:28</time>
      </trkpt>
      <trkpt lat="29.1661" lon="-13.49328">
        <ele>306.8</ele>
        <time>2021-07-03 14:32:29</time>
      </trkpt>
      <trkpt lat="29.16608" lon="-13.49329">
        <ele>306.8</ele>
        <time>2021-07-03 14:32:30</time>
      </trkpt>
      <trkpt lat="29.16606" lon="-13.49329">
        <ele>306.6</ele>
        <time>2021-07-03 14:32:31</time>
      </trkpt>
      <trkpt lat="29.16604" lon="-13.49329">
        <ele>306.6</ele>
        <time>2021-07-03 14:32:32</time>
      </trkpt>
      <trkpt lat="29.16604" lon="-13.49329">
        <ele>306.2</ele>
        <time>2021-07-03 14:32:33</time>
      </trkpt>
      <trkpt lat="29.16603" lon="-13.4933">
        <ele>306.2</ele>
        <time>2021-07-03 14:32:34</time>
      </trkpt>
      <trkpt lat="29.16602" lon="-13.4933">
        <ele>305.8</ele>
        <time>2021-07-03 14:32:35</time>
      </trkpt>
      <trkpt lat="29.166" lon="-13.4933">
        <ele>305.8</ele>
        <time>2021-07-03 14:32:36</time>
      </trkpt>
      <trkpt lat="29.16598" lon="-13.4933">
        <ele>305.8</ele>
        <time>2021-07-03 14:32:37</time>
      </trkpt>
      <trkpt lat="29.16596" lon="-13.4933">
        <ele>305.6</ele>
        <time>2021-07-03 14:32:38</time>
      </trkpt>
      <trkpt lat="29.16593" lon="-13.49331">
        <ele>305.6</ele>
        <time>2021-07-03 14:32:39</time>
      </trkpt>
      <trkpt lat="29.1659" lon="-13.49331">
        <ele>305.6</ele>
        <time>2021-07-03 14:32:40</time>
      </trkpt>
      <trkpt lat="29.16587" lon="-13.49332">
        <ele>305.4</ele>
        <time>2021-07-03 14:32:41</time>
      </trkpt>
      <trkpt lat="29.16583" lon="-13.49333">
        <ele>305.4</ele>
        <time>2021-07-03 14:32:42</time>
      </trkpt>
      <trkpt lat="29.1658" lon="-13.49334">
        <ele>305</ele>
        <time>2021-07-03 14:32:43</time>
      </trkpt>
      <trkpt lat="29.16575" lon="-13.49334">
        <ele>305</ele>
        <time>2021-07-03 14:32:44</time>
      </trkpt>
      <trkpt lat="29.16571" lon="-13.49335">
        <ele>304.6</ele>
        <time>2021-07-03 14:32:45</time>
      </trkpt>
      <trkpt lat="29.16567" lon="-13.49335">
        <ele>304.4</ele>
        <time>2021-07-03 14:32:46</time>
      </trkpt>
      <trkpt lat="29.16562" lon="-13.49336">
        <ele>304.2</ele>
        <time>2021-07-03 14:32:47</time>
      </trkpt>
      <trkpt lat="29.16558" lon="-13.49336">
        <ele>304</ele>
        <time>2021-07-03 14:32:50</time>
      </trkpt>
      <trkpt lat="29.16553" lon="-13.49337">
        <ele>304</ele>
        <time>2021-07-03 14:32:51</time>
      </trkpt>
      <trkpt lat="29.16549" lon="-13.49337">
        <ele>303.6</ele>
        <time>2021-07-03 14:32:52</time>
      </trkpt>
      <trkpt lat="29.16545" lon="-13.49338">
        <ele>303.4</ele>
        <time>2021-07-03 14:32:53</time>
      </trkpt>
      <trkpt lat="29.1654" lon="-13.49339">
        <ele>303.2</ele>
        <time>2021-07-03 14:32:54</time>
      </trkpt>
      <trkpt lat="29.16535" lon="-13.49341">
        <ele>303.2</ele>
        <time>2021-07-03 14:32:55</time>
      </trkpt>
      <trkpt lat="29.1653" lon="-13.49342">
        <ele>302.6</ele>
        <time>2021-07-03 14:32:56</time>
      </trkpt>
      <trkpt lat="29.16524" lon="-13.49343">
        <ele>302.4</ele>
        <time>2021-07-03 14:32:57</time>
      </trkpt>
      <trkpt lat="29.16517" lon="-13.49344">
        <ele>302.2</ele>
        <time>2021-07-03 14:32:58</time>
      </trkpt>
      <trkpt lat="29.16511" lon="-13.49344">
        <ele>301.8</ele>
        <time>2021-07-03 14:33:03</time>
      </trkpt>
      <trkpt lat="29.16504" lon="-13.49344">
        <ele>301.6</ele>
        <time>2021-07-03 14:33:04</time>
      </trkpt>
      <trkpt lat="29.16497" lon="-13.49345">
        <ele>301.4</ele>
        <time>2021-07-03 14:33:05</time>
      </trkpt>
      <trkpt lat="29.16491" lon="-13.49345">
        <ele>301</ele>
        <time>2021-07-03 14:33:06</time>
      </trkpt>
      <trkpt lat="29.16484" lon="-13.49346">
        <ele>300.8</ele>
        <time>2021-07-03 14:33:07</time>
      </trkpt>
      <trkpt lat="29.16477" lon="-13.49346">
        <ele>300.4</ele>
        <time>2021-07-03 14:33:08</time>
      </trkpt>
      <trkpt lat="29.16471" lon="-13.49346">
        <ele>300</ele>
        <time>2021-07-03 14:33:09</time>
      </trkpt>
      <trkpt lat="29.16466" lon="-13.49346">
        <ele>299.6</ele>
        <time>2021-07-03 14:33:10</time>
      </trkpt>
      <trkpt lat="29.1646" lon="-13.49346">
        <ele>299</ele>
        <time>2021-07-03 14:33:11</time>
      </trkpt>
      <trkpt lat="29.16454" lon="-13.49346">
        <ele>298.4</ele>
        <time>2021-07-03 14:33:12</time>
      </trkpt>
      <trkpt lat="29.16448" lon="-13.49347">
        <ele>297.8</ele>
        <time>2021-07-03 14:33:13</time>
      </trkpt>
      <trkpt lat="29.16442" lon="-13.49346">
        <ele>297.4</ele>
        <time>2021-07-03 14:33:14</time>
      </trkpt>
      <trkpt lat="29.16435" lon="-13.49346">
        <ele>296.8</ele>
        <time>2021-07-03 14:33:15</time>
      </trkpt>
      <trkpt lat="29.16428" lon="-13.49346">
        <ele>296.2</ele>
        <time>2021-07-03 14:33:16</time>
      </trkpt>
      <trkpt lat="29.16421" lon="-13.49345">
        <ele>295.6</ele>
        <time>2021-07-03 14:33:17</time>
      </trkpt>
      <trkpt lat="29.16414" lon="-13.49345">
        <ele>295</ele>
        <time>2021-07-03 14:33:18</time>
      </trkpt>
      <trkpt lat="29.16406" lon="-13.49345">
        <ele>294.2</ele>
        <time>2021-07-03 14:33:19</time>
      </trkpt>
      <trkpt lat="29.16399" lon="-13.49344">
        <ele>293.4</ele>
        <time>2021-07-03 14:33:20</time>
      </trkpt>
      <trkpt lat="29.16391" lon="-13.49343">
        <ele>292.6</ele>
        <time>2021-07-03 14:33:21</time>
      </trkpt>
      <trkpt lat="29.16384" lon="-13.49343">
        <ele>291.8</ele>
        <time>2021-07-03 14:33:22</time>
      </trkpt>
      <trkpt lat="29.16377" lon="-13.49342">
        <ele>291.2</ele>
        <time>2021-07-03 14:33:23</time>
      </trkpt>
      <trkpt lat="29.16369" lon="-13.49341">
        <ele>290.4</ele>
        <time>2021-07-03 14:33:24</time>
      </trkpt>
      <trkpt lat="29.16362" lon="-13.49341">
        <ele>289.8</ele>
        <time>2021-07-03 14:33:25</time>
      </trkpt>
      <trkpt lat="29.16355" lon="-13.4934">
        <ele>289</ele>
        <time>2021-07-03 14:33:26</time>
      </trkpt>
      <trkpt lat="29.16348" lon="-13.4934">
        <ele>288.2</ele>
        <time>2021-07-03 14:33:27</time>
      </trkpt>
      <trkpt lat="29.16342" lon="-13.49339">
        <ele>287.4</ele>
        <time>2021-07-03 14:33:28</time>
      </trkpt>
      <trkpt lat="29.16336" lon="-13.4934">
        <ele>286.6</ele>
        <time>2021-07-03 14:33:29</time>
      </trkpt>
      <trkpt lat="29.1633" lon="-13.49339">
        <ele>285.6</ele>
        <time>2021-07-03 14:33:30</time>
      </trkpt>
      <trkpt lat="29.16324" lon="-13.49339">
        <ele>285</ele>
        <time>2021-07-03 14:33:31</time>
      </trkpt>
      <trkpt lat="29.16318" lon="-13.49338">
        <ele>284</ele>
        <time>2021-07-03 14:33:32</time>
      </trkpt>
      <trkpt lat="29.1631" lon="-13.49338">
        <ele>283.2</ele>
        <time>2021-07-03 14:33:33</time>
      </trkpt>
      <trkpt lat="29.16302" lon="-13.49337">
        <ele>282.2</ele>
        <time>2021-07-03 14:33:34</time>
      </trkpt>
      <trkpt lat="29.16294" lon="-13.49337">
        <ele>281.4</ele>
        <time>2021-07-03 14:33:35</time>
      </trkpt>
      <trkpt lat="29.16285" lon="-13.49336">
        <ele>280.6</ele>
        <time>2021-07-03 14:33:36</time>
      </trkpt>
      <trkpt lat="29.16277" lon="-13.49335">
        <ele>279.6</ele>
        <time>2021-07-03 14:33:37</time>
      </trkpt>
      <trkpt lat="29.16269" lon="-13.49334">
        <ele>278.6</ele>
        <time>2021-07-03 14:33:38</time>
      </trkpt>
      <trkpt lat="29.1626" lon="-13.49333">
        <ele>277.6</ele>
        <time>2021-07-03 14:33:39</time>
      </trkpt>
      <trkpt lat="29.16252" lon="-13.49332">
        <ele>276.6</ele>
        <time>2021-07-03 14:33:40</time>
      </trkpt>
      <trkpt lat="29.16242" lon="-13.49331">
        <ele>275.6</ele>
        <time>2021-07-03 14:33:41</time>
      </trkpt>
      <trkpt lat="29.16233" lon="-13.4933">
        <ele>274.8</ele>
        <time>2021-07-03 14:33:42</time>
      </trkpt>
      <trkpt lat="29.16224" lon="-13.49329">
        <ele>273.8</ele>
        <time>2021-07-03 14:33:43</time>
      </trkpt>
      <trkpt lat="29.16215" lon="-13.49328">
        <ele>272.8</ele>
        <time>2021-07-03 14:33:44</time>
      </trkpt>
      <trkpt lat="29.16206" lon="-13.49326">
        <ele>271.8</ele>
        <time>2021-07-03 14:33:45</time>
      </trkpt>
      <trkpt lat="29.16198" lon="-13.49325">
        <ele>270.8</ele>
        <time>2021-07-03 14:33:46</time>
      </trkpt>
      <trkpt lat="29.16189" lon="-13.49324">
        <ele>269.8</ele>
        <time>2021-07-03 14:33:47</time>
      </trkpt>
      <trkpt lat="29.16181" lon="-13.49322">
        <ele>269</ele>
        <time>2021-07-03 14:33:48</time>
      </trkpt>
      <trkpt lat="29.16173" lon="-13.49322">
        <ele>268.2</ele>
        <time>2021-07-03 14:33:49</time>
      </trkpt>
      <trkpt lat="29.16165" lon="-13.49321">
        <ele>267.2</ele>
        <time>2021-07-03 14:33:50</time>
      </trkpt>
      <trkpt lat="29.16157" lon="-13.4932">
        <ele>266.4</ele>
        <time>2021-07-03 14:33:51</time>
      </trkpt>
      <trkpt lat="29.16149" lon="-13.49319">
        <ele>265.6</ele>
        <time>2021-07-03 14:33:52</time>
      </trkpt>
      <trkpt lat="29.16141" lon="-13.49317">
        <ele>265</ele>
        <time>2021-07-03 14:33:53</time>
      </trkpt>
      <trkpt lat="29.16133" lon="-13.49316">
        <ele>264.4</ele>
        <time>2021-07-03 14:33:54</time>
      </trkpt>
      <trkpt lat="29.16125" lon="-13.49314">
        <ele>263.8</ele>
        <time>2021-07-03 14:33:55</time>
      </trkpt>
      <trkpt lat="29.16117" lon="-13.49312">
        <ele>263.2</ele>
        <time>2021-07-03 14:33:56</time>
      </trkpt>
      <trkpt lat="29.16108" lon="-13.49311">
        <ele>262.4</ele>
        <time>2021-07-03 14:33:57</time>
      </trkpt>
      <trkpt lat="29.161" lon="-13.49309">
        <ele>262</ele>
        <time>2021-07-03 14:33:58</time>
      </trkpt>
      <trkpt lat="29.16091" lon="-13.49307">
        <ele>261.4</ele>
        <time>2021-07-03 14:33:59</time>
      </trkpt>
      <trkpt lat="29.16082" lon="-13.49306">
        <ele>260.8</ele>
        <time>2021-07-03 14:34:00</time>
      </trkpt>
      <trkpt lat="29.16073" lon="-13.49305">
        <ele>260.2</ele>
        <time>2021-07-03 14:34:01</time>
      </trkpt>
      <trkpt lat="29.16065" lon="-13.49303">
        <ele>259.6</ele>
        <time>2021-07-03 14:34:02</time>
      </trkpt>
      <trkpt lat="29.16056" lon="-13.49302">
        <ele>259.2</ele>
        <time>2021-07-03 14:34:03</time>
      </trkpt>
      <trkpt lat="29.16048" lon="-13.49301">
        <ele>258.6</ele>
        <time>2021-07-03 14:34:04</time>
      </trkpt>
      <trkpt lat="29.16039" lon="-13.493">
        <ele>258.2</ele>
        <time>2021-07-03 14:34:05</time>
      </trkpt>
      <trkpt lat="29.16031" lon="-13.49298">
        <ele>257.6</ele>
        <time>2021-07-03 14:34:06</time>
      </trkpt>
      <trkpt lat="29.16023" lon="-13.49298">
        <ele>257</ele>
        <time>2021-07-03 14:34:07</time>
      </trkpt>
      <trkpt lat="29.16014" lon="-13.49297">
        <ele>256.4</ele>
        <time>2021-07-03 14:34:08</time>
      </trkpt>
      <trkpt lat="29.16006" lon="-13.49295">
        <ele>255.8</ele>
        <time>2021-07-03 14:34:09</time>
      </trkpt>
      <trkpt lat="29.15997" lon="-13.49295">
        <ele>255.4</ele>
        <time>2021-07-03 14:34:10</time>
      </trkpt>
      <trkpt lat="29.15989" lon="-13.49294">
        <ele>255</ele>
        <time>2021-07-03 14:34:11</time>
      </trkpt>
      <trkpt lat="29.15981" lon="-13.49294">
        <ele>254.6</ele>
        <time>2021-07-03 14:34:12</time>
      </trkpt>
      <trkpt lat="29.15973" lon="-13.49293">
        <ele>254.2</ele>
        <time>2021-07-03 14:34:13</time>
      </trkpt>
      <trkpt lat="29.15965" lon="-13.49292">
        <ele>253.8</ele>
        <time>2021-07-03 14:34:14</time>
      </trkpt>
      <trkpt lat="29.15957" lon="-13.49291">
        <ele>253.4</ele>
        <time>2021-07-03 14:34:15</time>
      </trkpt>
      <trkpt lat="29.15951" lon="-13.4929">
        <ele>253</ele>
        <time>2021-07-03 14:34:16</time>
      </trkpt>
      <trkpt lat="29.15946" lon="-13.4929">
        <ele>252.6</ele>
        <time>2021-07-03 14:34:17</time>
      </trkpt>
      <trkpt lat="29.15942" lon="-13.49289">
        <ele>252.4</ele>
        <time>2021-07-03 14:34:18</time>
      </trkpt>
      <trkpt lat="29.15938" lon="-13.49289">
        <ele>252</ele>
        <time>2021-07-03 14:34:19</time>
      </trkpt>
      <trkpt lat="29.15934" lon="-13.49288">
        <ele>251.8</ele>
        <time>2021-07-03 14:34:20</time>
      </trkpt>
      <trkpt lat="29.15929" lon="-13.49287">
        <ele>251.6</ele>
        <time>2021-07-03 14:34:21</time>
      </trkpt>
      <trkpt lat="29.15925" lon="-13.49287">
        <ele>251.4</ele>
        <time>2021-07-03 14:34:22</time>
      </trkpt>
      <trkpt lat="29.15921" lon="-13.49287">
        <ele>251.2</ele>
        <time>2021-07-03 14:34:23</time>
      </trkpt>
      <trkpt lat="29.15917" lon="-13.49285">
        <ele>251</ele>
        <time>2021-07-03 14:34:24</time>
      </trkpt>
      <trkpt lat="29.15913" lon="-13.49285">
        <ele>251</ele>
        <time>2021-07-03 14:34:25</time>
      </trkpt>
      <trkpt lat="29.15909" lon="-13.49284">
        <ele>250.6</ele>
        <time>2021-07-03 14:34:26</time>
      </trkpt>
      <trkpt lat="29.15904" lon="-13.49283">
        <ele>250.6</ele>
        <time>2021-07-03 14:34:27</time>
      </trkpt>
      <trkpt lat="29.159" lon="-13.49282">
        <ele>250.6</ele>
        <time>2021-07-03 14:34:28</time>
      </trkpt>
      <trkpt lat="29.15896" lon="-13.49281">
        <ele>250.6</ele>
        <time>2021-07-03 14:34:29</time>
      </trkpt>
      <trkpt lat="29.15893" lon="-13.4928">
        <ele>250.6</ele>
        <time>2021-07-03 14:34:30</time>
      </trkpt>
      <trkpt lat="29.1589" lon="-13.49279">
        <ele>250.6</ele>
        <time>2021-07-03 14:34:31</time>
      </trkpt>
      <trkpt lat="29.15887" lon="-13.49279">
        <ele>250.6</ele>
        <time>2021-07-03 14:34:32</time>
      </trkpt>
      <trkpt lat="29.15884" lon="-13.49281">
        <ele>250.8</ele>
        <time>2021-07-03 14:34:33</time>
      </trkpt>
      <trkpt lat="29.15882" lon="-13.49284">
        <ele>250.8</ele>
        <time>2021-07-03 14:34:34</time>
      </trkpt>
      <trkpt lat="29.15881" lon="-13.49289">
        <ele>251.2</ele>
        <time>2021-07-03 14:34:35</time>
      </trkpt>
      <trkpt lat="29.1588" lon="-13.49293">
        <ele>251.2</ele>
        <time>2021-07-03 14:34:36</time>
      </trkpt>
      <trkpt lat="29.15879" lon="-13.49298">
        <ele>251.2</ele>
        <time>2021-07-03 14:34:37</time>
      </trkpt>
      <trkpt lat="29.15878" lon="-13.49302">
        <ele>251.6</ele>
        <time>2021-07-03 14:34:38</time>
      </trkpt>
      <trkpt lat="29.15877" lon="-13.49306">
        <ele>251.6</ele>
        <time>2021-07-03 14:34:39</time>
      </trkpt>
      <trkpt lat="29.15875" lon="-13.4931">
        <ele>251.6</ele>
        <time>2021-07-03 14:34:40</time>
      </trkpt>
      <trkpt lat="29.15874" lon="-13.49314">
        <ele>251.6</ele>
        <time>2021-07-03 14:34:41</time>
      </trkpt>
      <trkpt lat="29.15872" lon="-13.49319">
        <ele>251.6</ele>
        <time>2021-07-03 14:34:42</time>
      </trkpt>
      <trkpt lat="29.15871" lon="-13.49323">
        <ele>251.6</ele>
        <time>2021-07-03 14:34:43</time>
      </trkpt>
      <trkpt lat="29.15869" lon="-13.49328">
        <ele>251.6</ele>
        <time>2021-07-03 14:34:44</time>
      </trkpt>
      <trkpt lat="29.15868" lon="-13.49333">
        <ele>251.8</ele>
        <time>2021-07-03 14:34:45</time>
      </trkpt>
      <trkpt lat="29.15867" lon="-13.49338">
        <ele>251.8</ele>
        <time>2021-07-03 14:34:46</time>
      </trkpt>
      <trkpt lat="29.15865" lon="-13.49343">
        <ele>251.8</ele>
        <time>2021-07-03 14:34:47</time>
      </trkpt>
      <trkpt lat="29.15862" lon="-13.49349">
        <ele>251.8</ele>
        <time>2021-07-03 14:34:48</time>
      </trkpt>
      <trkpt lat="29.15859" lon="-13.49355">
        <ele>251.8</ele>
        <time>2021-07-03 14:34:49</time>
      </trkpt>
      <trkpt lat="29.15856" lon="-13.49361">
        <ele>251.6</ele>
        <time>2021-07-03 14:34:50</time>
      </trkpt>
      <trkpt lat="29.15853" lon="-13.49367">
        <ele>251.6</ele>
        <time>2021-07-03 14:34:51</time>
      </trkpt>
      <trkpt lat="29.1585" lon="-13.49374">
        <ele>251.2</ele>
        <time>2021-07-03 14:34:52</time>
      </trkpt>
      <trkpt lat="29.15847" lon="-13.49381">
        <ele>251.2</ele>
        <time>2021-07-03 14:34:53</time>
      </trkpt>
      <trkpt lat="29.15844" lon="-13.49387">
        <ele>251</ele>
        <time>2021-07-03 14:34:54</time>
      </trkpt>
      <trkpt lat="29.15841" lon="-13.49393">
        <ele>250.6</ele>
        <time>2021-07-03 14:34:55</time>
      </trkpt>
      <trkpt lat="29.15838" lon="-13.49398">
        <ele>250.4</ele>
        <time>2021-07-03 14:34:56</time>
      </trkpt>
      <trkpt lat="29.15836" lon="-13.49403">
        <ele>250.4</ele>
        <time>2021-07-03 14:34:57</time>
      </trkpt>
      <trkpt lat="29.15833" lon="-13.49407">
        <ele>250.2</ele>
        <time>2021-07-03 14:34:58</time>
      </trkpt>
      <trkpt lat="29.15831" lon="-13.49411">
        <ele>249.8</ele>
        <time>2021-07-03 14:34:59</time>
      </trkpt>
      <trkpt lat="29.15828" lon="-13.49415">
        <ele>249.6</ele>
        <time>2021-07-03 14:35:00</time>
      </trkpt>
      <trkpt lat="29.15824" lon="-13.49417">
        <ele>249.2</ele>
        <time>2021-07-03 14:35:01</time>
      </trkpt>
      <trkpt lat="29.1582" lon="-13.49417">
        <ele>249</ele>
        <time>2021-07-03 14:35:02</time>
      </trkpt>
      <trkpt lat="29.15816" lon="-13.49418">
        <ele>248.8</ele>
        <time>2021-07-03 14:35:03</time>
      </trkpt>
      <trkpt lat="29.15811" lon="-13.49419">
        <ele>248.8</ele>
        <time>2021-07-03 14:35:04</time>
      </trkpt>
      <trkpt lat="29.15806" lon="-13.49421">
        <ele>248.6</ele>
        <time>2021-07-03 14:35:05</time>
      </trkpt>
      <trkpt lat="29.15801" lon="-13.49422">
        <ele>248.6</ele>
        <time>2021-07-03 14:35:06</time>
      </trkpt>
      <trkpt lat="29.15796" lon="-13.49424">
        <ele>248.2</ele>
        <time>2021-07-03 14:35:07</time>
      </trkpt>
      <trkpt lat="29.1579" lon="-13.49425">
        <ele>248.2</ele>
        <time>2021-07-03 14:35:08</time>
      </trkpt>
      <trkpt lat="29.15785" lon="-13.49427">
        <ele>248.2</ele>
        <time>2021-07-03 14:35:09</time>
      </trkpt>
      <trkpt lat="29.1578" lon="-13.49428">
        <ele>248</ele>
        <time>2021-07-03 14:35:10</time>
      </trkpt>
      <trkpt lat="29.15774" lon="-13.49429">
        <ele>248</ele>
        <time>2021-07-03 14:35:11</time>
      </trkpt>
      <trkpt lat="29.15768" lon="-13.4943">
        <ele>247.8</ele>
        <time>2021-07-03 14:35:12</time>
      </trkpt>
      <trkpt lat="29.15763" lon="-13.49432">
        <ele>247.8</ele>
        <time>2021-07-03 14:35:13</time>
      </trkpt>
      <trkpt lat="29.15758" lon="-13.49433">
        <ele>247.4</ele>
        <time>2021-07-03 14:35:14</time>
      </trkpt>
      <trkpt lat="29.15753" lon="-13.49435">
        <ele>247.4</ele>
        <time>2021-07-03 14:35:15</time>
      </trkpt>
      <trkpt lat="29.15748" lon="-13.49437">
        <ele>247.4</ele>
        <time>2021-07-03 14:35:16</time>
      </trkpt>
      <trkpt lat="29.15742" lon="-13.49439">
        <ele>247.4</ele>
        <time>2021-07-03 14:35:17</time>
      </trkpt>
      <trkpt lat="29.15737" lon="-13.4944">
        <ele>247.4</ele>
        <time>2021-07-03 14:35:18</time>
      </trkpt>
      <trkpt lat="29.15732" lon="-13.49441">
        <ele>247.4</ele>
        <time>2021-07-03 14:35:19</time>
      </trkpt>
      <trkpt lat="29.15727" lon="-13.49443">
        <ele>247.4</ele>
        <time>2021-07-03 14:35:20</time>
      </trkpt>
      <trkpt lat="29.15722" lon="-13.49445">
        <ele>247.4</ele>
        <time>2021-07-03 14:35:21</time>
      </trkpt>
      <trkpt lat="29.15717" lon="-13.49446">
        <ele>247.2</ele>
        <time>2021-07-03 14:35:22</time>
      </trkpt>
      <trkpt lat="29.15712" lon="-13.49447">
        <ele>247.2</ele>
        <time>2021-07-03 14:35:23</time>
      </trkpt>
      <trkpt lat="29.15707" lon="-13.49449">
        <ele>246.8</ele>
        <time>2021-07-03 14:35:24</time>
      </trkpt>
      <trkpt lat="29.15702" lon="-13.49451">
        <ele>246.8</ele>
        <time>2021-07-03 14:35:25</time>
      </trkpt>
      <trkpt lat="29.15697" lon="-13.49453">
        <ele>246.6</ele>
        <time>2021-07-03 14:35:26</time>
      </trkpt>
      <trkpt lat="29.15693" lon="-13.49455">
        <ele>246.6</ele>
        <time>2021-07-03 14:35:27</time>
      </trkpt>
      <trkpt lat="29.15689" lon="-13.49457">
        <ele>246.6</ele>
        <time>2021-07-03 14:35:28</time>
      </trkpt>
      <trkpt lat="29.15685" lon="-13.4946">
        <ele>246.6</ele>
        <time>2021-07-03 14:35:29</time>
      </trkpt>
      <trkpt lat="29.15681" lon="-13.49462">
        <ele>246.6</ele>
        <time>2021-07-03 14:35:30</time>
      </trkpt>
      <trkpt lat="29.15677" lon="-13.49464">
        <ele>246.6</ele>
        <time>2021-07-03 14:35:31</time>
      </trkpt>
      <trkpt lat="29.15675" lon="-13.49467">
        <ele>246.6</ele>
        <time>2021-07-03 14:35:32</time>
      </trkpt>
      <trkpt lat="29.15672" lon="-13.49468">
        <ele>246.6</ele>
        <time>2021-07-03 14:35:33</time>
      </trkpt>
      <trkpt lat="29.15671" lon="-13.4947">
        <ele>246.6</ele>
        <time>2021-07-03 14:35:34</time>
      </trkpt>
      <trkpt lat="29.1567" lon="-13.49471">
        <ele>246.6</ele>
        <time>2021-07-03 14:35:35</time>
      </trkpt>
      <trkpt lat="29.1567" lon="-13.4947">
        <ele>246.6</ele>
        <time>2021-07-03 14:35:36</time>
      </trkpt>
      <trkpt lat="29.15669" lon="-13.49471">
        <ele>246.6</ele>
        <time>2021-07-03 14:35:37</time>
      </trkpt>
      <trkpt lat="29.15669" lon="-13.4947">
        <ele>246.8</ele>
        <time>2021-07-03 14:35:38</time>
      </trkpt>
      <trkpt lat="29.15667" lon="-13.49469">
        <ele>246.8</ele>
        <time>2021-07-03 14:35:39</time>
      </trkpt>
      <trkpt lat="29.15666" lon="-13.49468">
        <ele>246.8</ele>
        <time>2021-07-03 14:35:40</time>
      </trkpt>
      <trkpt lat="29.15666" lon="-13.49465">
        <ele>246.8</ele>
        <time>2021-07-03 14:35:41</time>
      </trkpt>
      <trkpt lat="29.15667" lon="-13.49462">
        <ele>246.8</ele>
        <time>2021-07-03 14:35:42</time>
      </trkpt>
      <trkpt lat="29.1567" lon="-13.49459">
        <ele>247.2</ele>
        <time>2021-07-03 14:35:43</time>
      </trkpt>
      <trkpt lat="29.15674" lon="-13.49458">
        <ele>247.2</ele>
        <time>2021-07-03 14:35:44</time>
      </trkpt>
      <trkpt lat="29.15678" lon="-13.49457">
        <ele>247.2</ele>
        <time>2021-07-03 14:35:45</time>
      </trkpt>
      <trkpt lat="29.15682" lon="-13.49456">
        <ele>247.2</ele>
        <time>2021-07-03 14:35:46</time>
      </trkpt>
      <trkpt lat="29.15686" lon="-13.49455">
        <ele>247.2</ele>
        <time>2021-07-03 14:35:47</time>
      </trkpt>
      <trkpt lat="29.1569" lon="-13.49454">
        <ele>247.2</ele>
        <time>2021-07-03 14:35:48</time>
      </trkpt>
      <trkpt lat="29.15694" lon="-13.49452">
        <ele>247.2</ele>
        <time>2021-07-03 14:35:49</time>
      </trkpt>
      <trkpt lat="29.15698" lon="-13.49451">
        <ele>247.2</ele>
        <time>2021-07-03 14:35:50</time>
      </trkpt>
      <trkpt lat="29.15702" lon="-13.4945">
        <ele>247.2</ele>
        <time>2021-07-03 14:35:51</time>
      </trkpt>
      <trkpt lat="29.15706" lon="-13.49448">
        <ele>247.2</ele>
        <time>2021-07-03 14:35:52</time>
      </trkpt>
      <trkpt lat="29.1571" lon="-13.49447">
        <ele>247.4</ele>
        <time>2021-07-03 14:35:53</time>
      </trkpt>
      <trkpt lat="29.15714" lon="-13.49446">
        <ele>247.4</ele>
        <time>2021-07-03 14:35:54</time>
      </trkpt>
      <trkpt lat="29.15718" lon="-13.49445">
        <ele>247.4</ele>
        <time>2021-07-03 14:35:55</time>
      </trkpt>
      <trkpt lat="29.15721" lon="-13.49444">
        <ele>247.4</ele>
        <time>2021-07-03 14:35:56</time>
      </trkpt>
      <trkpt lat="29.15725" lon="-13.49443">
        <ele>247.4</ele>
        <time>2021-07-03 14:35:57</time>
      </trkpt>
      <trkpt lat="29.15729" lon="-13.49441">
        <ele>247.6</ele>
        <time>2021-07-03 14:35:58</time>
      </trkpt>
      <trkpt lat="29.15733" lon="-13.4944">
        <ele>247.6</ele>
        <time>2021-07-03 14:35:59</time>
      </trkpt>
      <trkpt lat="29.15737" lon="-13.49439">
        <ele>247.6</ele>
        <time>2021-07-03 14:36:00</time>
      </trkpt>
      <trkpt lat="29.15741" lon="-13.49438">
        <ele>248</ele>
        <time>2021-07-03 14:36:01</time>
      </trkpt>
      <trkpt lat="29.15745" lon="-13.49437">
        <ele>248</ele>
        <time>2021-07-03 14:36:02</time>
      </trkpt>
      <trkpt lat="29.15749" lon="-13.49436">
        <ele>248</ele>
        <time>2021-07-03 14:36:03</time>
      </trkpt>
      <trkpt lat="29.15753" lon="-13.49435">
        <ele>248</ele>
        <time>2021-07-03 14:36:04</time>
      </trkpt>
      <trkpt lat="29.15757" lon="-13.49433">
        <ele>248</ele>
        <time>2021-07-03 14:36:05</time>
      </trkpt>
      <trkpt lat="29.15761" lon="-13.49432">
        <ele>248.2</ele>
        <time>2021-07-03 14:36:06</time>
      </trkpt>
      <trkpt lat="29.15765" lon="-13.49431">
        <ele>248.2</ele>
        <time>2021-07-03 14:36:07</time>
      </trkpt>
      <trkpt lat="29.15769" lon="-13.49429">
        <ele>248.4</ele>
        <time>2021-07-03 14:36:08</time>
      </trkpt>
      <trkpt lat="29.15773" lon="-13.49428">
        <ele>248.4</ele>
        <time>2021-07-03 14:36:09</time>
      </trkpt>
      <trkpt lat="29.15777" lon="-13.49428">
        <ele>248.4</ele>
        <time>2021-07-03 14:36:10</time>
      </trkpt>
      <trkpt lat="29.15781" lon="-13.49427">
        <ele>248.8</ele>
        <time>2021-07-03 14:36:11</time>
      </trkpt>
      <trkpt lat="29.15785" lon="-13.49426">
        <ele>248.8</ele>
        <time>2021-07-03 14:36:12</time>
      </trkpt>
      <trkpt lat="29.1579" lon="-13.49425">
        <ele>248.8</ele>
        <time>2021-07-03 14:36:13</time>
      </trkpt>
      <trkpt lat="29.15794" lon="-13.49425">
        <ele>248.8</ele>
        <time>2021-07-03 14:36:14</time>
      </trkpt>
      <trkpt lat="29.15798" lon="-13.49423">
        <ele>248.8</ele>
        <time>2021-07-03 14:36:15</time>
      </trkpt>
      <trkpt lat="29.15802" lon="-13.49421">
        <ele>248.8</ele>
        <time>2021-07-03 14:36:16</time>
      </trkpt>
      <trkpt lat="29.15805" lon="-13.4942">
        <ele>248.8</ele>
        <time>2021-07-03 14:36:17</time>
      </trkpt>
      <trkpt lat="29.15809" lon="-13.49419">
        <ele>248.8</ele>
        <time>2021-07-03 14:36:18</time>
      </trkpt>
      <trkpt lat="29.15812" lon="-13.49418">
        <ele>248.8</ele>
        <time>2021-07-03 14:36:19</time>
      </trkpt>
      <trkpt lat="29.15816" lon="-13.49417">
        <ele>248.8</ele>
        <time>2021-07-03 14:36:20</time>
      </trkpt>
      <trkpt lat="29.15819" lon="-13.49416">
        <ele>248.8</ele>
        <time>2021-07-03 14:36:37</time>
      </trkpt>
      <trkpt lat="29.15822" lon="-13.49417">
        <ele>248.8</ele>
        <time>2021-07-03 14:36:38</time>
      </trkpt>
      <trkpt lat="29.15825" lon="-13.49417">
        <ele>248.8</ele>
        <time>2021-07-03 14:36:39</time>
      </trkpt>
      <trkpt lat="29.15827" lon="-13.4942">
        <ele>248.8</ele>
        <time>2021-07-03 14:36:40</time>
      </trkpt>
      <trkpt lat="29.15828" lon="-13.49423">
        <ele>248.8</ele>
        <time>2021-07-03 14:36:41</time>
      </trkpt>
      <trkpt lat="29.15829" lon="-13.49426">
        <ele>248.8</ele>
        <time>2021-07-03 14:36:42</time>
      </trkpt>
      <trkpt lat="29.15829" lon="-13.4943">
        <ele>248.8</ele>
        <time>2021-07-03 14:36:43</time>
      </trkpt>
      <trkpt lat="29.15828" lon="-13.49434">
        <ele>248.8</ele>
        <time>2021-07-03 14:36:44</time>
      </trkpt>
      <trkpt lat="29.15827" lon="-13.49438">
        <ele>248.8</ele>
        <time>2021-07-03 14:36:45</time>
      </trkpt>
      <trkpt lat="29.15826" lon="-13.49443">
        <ele>248.8</ele>
        <time>2021-07-03 14:36:46</time>
      </trkpt>
      <trkpt lat="29.15826" lon="-13.49447">
        <ele>248.8</ele>
        <time>2021-07-03 14:36:47</time>
      </trkpt>
      <trkpt lat="29.15825" lon="-13.49451">
        <ele>248.8</ele>
        <time>2021-07-03 14:36:48</time>
      </trkpt>
      <trkpt lat="29.15824" lon="-13.49456">
        <ele>248.8</ele>
        <time>2021-07-03 14:36:49</time>
      </trkpt>
      <trkpt lat="29.15824" lon="-13.4946">
        <ele>249</ele>
        <time>2021-07-03 14:36:50</time>
      </trkpt>
      <trkpt lat="29.15823" lon="-13.49465">
        <ele>249</ele>
        <time>2021-07-03 14:36:51</time>
      </trkpt>
      <trkpt lat="29.15822" lon="-13.4947">
        <ele>249</ele>
        <time>2021-07-03 14:36:52</time>
      </trkpt>
      <trkpt lat="29.15822" lon="-13.49475">
        <ele>249.2</ele>
        <time>2021-07-03 14:36:53</time>
      </trkpt>
      <trkpt lat="29.15821" lon="-13.49479">
        <ele>249.2</ele>
        <time>2021-07-03 14:36:54</time>
      </trkpt>
      <trkpt lat="29.15821" lon="-13.49484">
        <ele>249.4</ele>
        <time>2021-07-03 14:36:55</time>
      </trkpt>
      <trkpt lat="29.1582" lon="-13.49489">
        <ele>249.4</ele>
        <time>2021-07-03 14:36:56</time>
      </trkpt>
      <trkpt lat="29.15819" lon="-13.49494">
        <ele>249.4</ele>
        <time>2021-07-03 14:36:57</time>
      </trkpt>
      <trkpt lat="29.15818" lon="-13.49499">
        <ele>249.4</ele>
        <time>2021-07-03 14:36:58</time>
      </trkpt>
      <trkpt lat="29.15818" lon="-13.49504">
        <ele>249.4</ele>
        <time>2021-07-03 14:36:59</time>
      </trkpt>
      <trkpt lat="29.15817" lon="-13.49508">
        <ele>249.4</ele>
        <time>2021-07-03 14:37:00</time>
      </trkpt>
      <trkpt lat="29.15817" lon="-13.49513">
        <ele>249.4</ele>
        <time>2021-07-03 14:37:01</time>
      </trkpt>
      <trkpt lat="29.15817" lon="-13.49519">
        <ele>249.4</ele>
        <time>2021-07-03 14:37:02</time>
      </trkpt>
      <trkpt lat="29.15817" lon="-13.49524">
        <ele>249.4</ele>
        <time>2021-07-03 14:37:03</time>
      </trkpt>
      <trkpt lat="29.15817" lon="-13.49529">
        <ele>249.4</ele>
        <time>2021-07-03 14:37:04</time>
      </trkpt>
      <trkpt lat="29.15816" lon="-13.49534">
        <ele>249.4</ele>
        <time>2021-07-03 14:37:05</time>
      </trkpt>
      <trkpt lat="29.15816" lon="-13.49539">
        <ele>249.4</ele>
        <time>2021-07-03 14:37:06</time>
      </trkpt>
      <trkpt lat="29.15816" lon="-13.49544">
        <ele>249.4</ele>
        <time>2021-07-03 14:37:07</time>
      </trkpt>
      <trkpt lat="29.15816" lon="-13.49549">
        <ele>249.4</ele>
        <time>2021-07-03 14:37:08</time>
      </trkpt>
      <trkpt lat="29.15816" lon="-13.49554">
        <ele>249.6</ele>
        <time>2021-07-03 14:37:09</time>
      </trkpt>
      <trkpt lat="29.15816" lon="-13.49559">
        <ele>249.6</ele>
        <time>2021-07-03 14:37:10</time>
      </trkpt>
      <trkpt lat="29.15816" lon="-13.49564">
        <ele>249.8</ele>
        <time>2021-07-03 14:37:11</time>
      </trkpt>
      <trkpt lat="29.15816" lon="-13.49569">
        <ele>249.8</ele>
        <time>2021-07-03 14:37:12</time>
      </trkpt>
      <trkpt lat="29.15815" lon="-13.49574">
        <ele>250.2</ele>
        <time>2021-07-03 14:37:13</time>
      </trkpt>
      <trkpt lat="29.15815" lon="-13.49579">
        <ele>250.2</ele>
        <time>2021-07-03 14:37:14</time>
      </trkpt>
      <trkpt lat="29.15815" lon="-13.49584">
        <ele>250.6</ele>
        <time>2021-07-03 14:37:15</time>
      </trkpt>
      <trkpt lat="29.15815" lon="-13.4959">
        <ele>250.6</ele>
        <time>2021-07-03 14:37:16</time>
      </trkpt>
      <trkpt lat="29.15814" lon="-13.49595">
        <ele>250.8</ele>
        <time>2021-07-03 14:37:17</time>
      </trkpt>
      <trkpt lat="29.15814" lon="-13.496">
        <ele>250.8</ele>
        <time>2021-07-03 14:37:18</time>
      </trkpt>
      <trkpt lat="29.15814" lon="-13.49605">
        <ele>251</ele>
        <time>2021-07-03 14:37:19</time>
      </trkpt>
      <trkpt lat="29.15813" lon="-13.49609">
        <ele>251</ele>
        <time>2021-07-03 14:37:20</time>
      </trkpt>
      <trkpt lat="29.15813" lon="-13.49615">
        <ele>251</ele>
        <time>2021-07-03 14:37:21</time>
      </trkpt>
      <trkpt lat="29.15813" lon="-13.4962">
        <ele>251</ele>
        <time>2021-07-03 14:37:22</time>
      </trkpt>
      <trkpt lat="29.15813" lon="-13.49624">
        <ele>251</ele>
        <time>2021-07-03 14:37:23</time>
      </trkpt>
      <trkpt lat="29.15812" lon="-13.49629">
        <ele>251</ele>
        <time>2021-07-03 14:37:24</time>
      </trkpt>
      <trkpt lat="29.15812" lon="-13.49633">
        <ele>251</ele>
        <time>2021-07-03 14:37:25</time>
      </trkpt>
      <trkpt lat="29.15812" lon="-13.49637">
        <ele>251.4</ele>
        <time>2021-07-03 14:37:26</time>
      </trkpt>
      <trkpt lat="29.15812" lon="-13.4964">
        <ele>251.4</ele>
        <time>2021-07-03 14:37:27</time>
      </trkpt>
      <trkpt lat="29.15812" lon="-13.49643">
        <ele>251.6</ele>
        <time>2021-07-03 14:37:28</time>
      </trkpt>
      <trkpt lat="29.15812" lon="-13.49645">
        <ele>251.6</ele>
        <time>2021-07-03 14:37:29</time>
      </trkpt>
      <trkpt lat="29.15812" lon="-13.49646">
        <ele>251.8</ele>
        <time>2021-07-03 14:37:30</time>
      </trkpt>
      <trkpt lat="29.15812" lon="-13.49648">
        <ele>251.8</ele>
        <time>2021-07-03 14:37:31</time>
      </trkpt>
      <trkpt lat="29.15812" lon="-13.49649">
        <ele>251.8</ele>
        <time>2021-07-03 14:37:32</time>
      </trkpt>
      <trkpt lat="29.15812" lon="-13.4965">
        <ele>251.8</ele>
        <time>2021-07-03 14:37:33</time>
      </trkpt>
      <trkpt lat="29.15812" lon="-13.4965">
        <ele>251.8</ele>
        <time>2021-07-03 14:37:34</time>
      </trkpt>
      <trkpt lat="29.15812" lon="-13.4965">
        <ele>251.8</ele>
        <time>2021-07-03 14:37:35</time>
      </trkpt>
      <trkpt lat="29.15811" lon="-13.49652">
        <ele>250.4</ele>
        <time>2021-07-03 14:37:36</time>
      </trkpt>
      <trkpt lat="29.15812" lon="-13.49654">
        <ele>250.4</ele>
        <time>2021-07-03 14:37:37</time>
      </trkpt>
      <trkpt lat="29.15812" lon="-13.49656">
        <ele>250.4</ele>
        <time>2021-07-03 14:37:38</time>
      </trkpt>
      <trkpt lat="29.15813" lon="-13.49659">
        <ele>250.4</ele>
        <time>2021-07-03 14:37:39</time>
      </trkpt>
      <trkpt lat="29.15814" lon="-13.49661">
        <ele>250.4</ele>
        <time>2021-07-03 14:37:40</time>
      </trkpt>
      <trkpt lat="29.15814" lon="-13.49663">
        <ele>250.4</ele>
        <time>2021-07-03 14:37:41</time>
      </trkpt>
      <trkpt lat="29.15815" lon="-13.49665">
        <ele>250.8</ele>
        <time>2021-07-03 14:37:42</time>
      </trkpt>
      <trkpt lat="29.15816" lon="-13.49666">
        <ele>250.8</ele>
        <time>2021-07-03 14:37:43</time>
      </trkpt>
      <trkpt lat="29.15817" lon="-13.49666">
        <ele>251</ele>
        <time>2021-07-03 14:37:44</time>
      </trkpt>
      <trkpt lat="29.15818" lon="-13.49665">
        <ele>251</ele>
        <time>2021-07-03 14:37:45</time>
      </trkpt>
      <trkpt lat="29.15818" lon="-13.49663">
        <ele>251</ele>
        <time>2021-07-03 14:37:46</time>
      </trkpt>
      <trkpt lat="29.15818" lon="-13.49661">
        <ele>251</ele>
        <time>2021-07-03 14:37:47</time>
      </trkpt>
      <trkpt lat="29.15818" lon="-13.49659">
        <ele>250.8</ele>
        <time>2021-07-03 14:37:48</time>
      </trkpt>
      <trkpt lat="29.15818" lon="-13.49658">
        <ele>250.8</ele>
        <time>2021-07-03 14:37:49</time>
      </trkpt>
      <trkpt lat="29.15818" lon="-13.49658">
        <ele>250.8</ele>
        <time>2021-07-03 14:37:50</time>
      </trkpt>
      <trkpt lat="29.15818" lon="-13.49658">
        <ele>250.6</ele>
        <time>2021-07-03 14:37:51</time>
      </trkpt>
      <trkpt lat="29.15819" lon="-13.49658">
        <ele>250.6</ele>
        <time>2021-07-03 14:37:52</time>
      </trkpt>
      <trkpt lat="29.15819" lon="-13.49659">
        <ele>250.4</ele>
        <time>2021-07-03 14:37:53</time>
      </trkpt>
      <trkpt lat="29.1582" lon="-13.4966">
        <ele>250.4</ele>
        <time>2021-07-03 14:37:54</time>
      </trkpt>
      <trkpt lat="29.1582" lon="-13.4966">
        <ele>250.6</ele>
        <time>2021-07-03 14:37:55</time>
      </trkpt>
      <trkpt lat="29.1582" lon="-13.49661">
        <ele>250.6</ele>
        <time>2021-07-03 14:37:56</time>
      </trkpt>
      <trkpt lat="29.1582" lon="-13.49661">
        <ele>250.6</ele>
        <time>2021-07-03 14:37:57</time>
      </trkpt>
      <trkpt lat="29.15819" lon="-13.49661">
        <ele>250.6</ele>
        <time>2021-07-03 14:37:58</time>
      </trkpt>
      <trkpt lat="29.15819" lon="-13.49662">
        <ele>250.6</ele>
        <time>2021-07-03 14:37:59</time>
      </trkpt>
      <trkpt lat="29.15817" lon="-13.49663">
        <ele>250.6</ele>
        <time>2021-07-03 14:38:00</time>
      </trkpt>
      <trkpt lat="29.15816" lon="-13.49665">
        <ele>250.6</ele>
        <time>2021-07-03 14:38:01</time>
      </trkpt>
      <trkpt lat="29.15816" lon="-13.49668">
        <ele>250.6</ele>
        <time>2021-07-03 14:38:02</time>
      </trkpt>
      <trkpt lat="29.15816" lon="-13.4967">
        <ele>250.6</ele>
        <time>2021-07-03 14:38:03</time>
      </trkpt>
      <trkpt lat="29.15816" lon="-13.49674">
        <ele>251</ele>
        <time>2021-07-03 14:38:04</time>
      </trkpt>
      <trkpt lat="29.15816" lon="-13.49677">
        <ele>251.2</ele>
        <time>2021-07-03 14:38:05</time>
      </trkpt>
      <trkpt lat="29.15816" lon="-13.49681">
        <ele>251.2</ele>
        <time>2021-07-03 14:38:06</time>
      </trkpt>
      <trkpt lat="29.15817" lon="-13.49685">
        <ele>251.4</ele>
        <time>2021-07-03 14:38:07</time>
      </trkpt>
      <trkpt lat="29.15818" lon="-13.49689">
        <ele>251.4</ele>
        <time>2021-07-03 14:38:08</time>
      </trkpt>
      <trkpt lat="29.15818" lon="-13.49693">
        <ele>251.6</ele>
        <time>2021-07-03 14:38:09</time>
      </trkpt>
      <trkpt lat="29.15817" lon="-13.49697">
        <ele>251.6</ele>
        <time>2021-07-03 14:38:10</time>
      </trkpt>
      <trkpt lat="29.15817" lon="-13.49701">
        <ele>252</ele>
        <time>2021-07-03 14:38:11</time>
      </trkpt>
      <trkpt lat="29.15817" lon="-13.49705">
        <ele>252.2</ele>
        <time>2021-07-03 14:38:12</time>
      </trkpt>
      <trkpt lat="29.15818" lon="-13.4971">
        <ele>252.2</ele>
        <time>2021-07-03 14:38:13</time>
      </trkpt>
      <trkpt lat="29.15818" lon="-13.49714">
        <ele>252.2</ele>
        <time>2021-07-03 14:38:14</time>
      </trkpt>
      <trkpt lat="29.15818" lon="-13.49719">
        <ele>252.2</ele>
        <time>2021-07-03 14:38:15</time>
      </trkpt>
      <trkpt lat="29.15818" lon="-13.49723">
        <ele>252.6</ele>
        <time>2021-07-03 14:38:16</time>
      </trkpt>
      <trkpt lat="29.15818" lon="-13.49728">
        <ele>252.6</ele>
        <time>2021-07-03 14:38:17</time>
      </trkpt>
      <trkpt lat="29.15819" lon="-13.49732">
        <ele>252.8</ele>
        <time>2021-07-03 14:38:18</time>
      </trkpt>
      <trkpt lat="29.15819" lon="-13.49737">
        <ele>252.8</ele>
        <time>2021-07-03 14:38:39</time>
      </trkpt>
      <trkpt lat="29.15819" lon="-13.49741">
        <ele>253.2</ele>
        <time>2021-07-03 14:38:40</time>
      </trkpt>
      <trkpt lat="29.15819" lon="-13.49746">
        <ele>253.2</ele>
        <time>2021-07-03 14:38:41</time>
      </trkpt>
      <trkpt lat="29.15819" lon="-13.4975">
        <ele>253.4</ele>
        <time>2021-07-03 14:38:42</time>
      </trkpt>
      <trkpt lat="29.1582" lon="-13.49754">
        <ele>253.4</ele>
        <time>2021-07-03 14:38:43</time>
      </trkpt>
      <trkpt lat="29.1582" lon="-13.49759">
        <ele>253.4</ele>
        <time>2021-07-03 14:38:44</time>
      </trkpt>
      <trkpt lat="29.1582" lon="-13.49763">
        <ele>253.6</ele>
        <time>2021-07-03 14:38:45</time>
      </trkpt>
      <trkpt lat="29.1582" lon="-13.49767">
        <ele>253.8</ele>
        <time>2021-07-03 14:38:46</time>
      </trkpt>
      <trkpt lat="29.15821" lon="-13.49771">
        <ele>254</ele>
        <time>2021-07-03 14:38:47</time>
      </trkpt>
      <trkpt lat="29.15822" lon="-13.49776">
        <ele>254.4</ele>
        <time>2021-07-03 14:38:48</time>
      </trkpt>
      <trkpt lat="29.15822" lon="-13.4978">
        <ele>254.6</ele>
        <time>2021-07-03 14:38:49</time>
      </trkpt>
      <trkpt lat="29.15822" lon="-13.49784">
        <ele>254.8</ele>
        <time>2021-07-03 14:38:50</time>
      </trkpt>
      <trkpt lat="29.15823" lon="-13.49788">
        <ele>255</ele>
        <time>2021-07-03 14:38:51</time>
      </trkpt>
      <trkpt lat="29.15823" lon="-13.49792">
        <ele>255</ele>
        <time>2021-07-03 14:38:52</time>
      </trkpt>
      <trkpt lat="29.15823" lon="-13.49797">
        <ele>255.4</ele>
        <time>2021-07-03 14:38:53</time>
      </trkpt>
      <trkpt lat="29.15823" lon="-13.49801">
        <ele>255.4</ele>
        <time>2021-07-03 14:38:54</time>
      </trkpt>
      <trkpt lat="29.15823" lon="-13.49805">
        <ele>255.6</ele>
        <time>2021-07-03 14:38:55</time>
      </trkpt>
      <trkpt lat="29.15823" lon="-13.49809">
        <ele>255.6</ele>
        <time>2021-07-03 14:40:42</time>
      </trkpt>
      <trkpt lat="29.15823" lon="-13.49814">
        <ele>255.6</ele>
        <time>2021-07-03 14:40:43</time>
      </trkpt>
      <trkpt lat="29.15823" lon="-13.49818">
        <ele>256</ele>
        <time>2021-07-03 14:40:44</time>
      </trkpt>
      <trkpt lat="29.15823" lon="-13.49823">
        <ele>256</ele>
        <time>2021-07-03 14:40:45</time>
      </trkpt>
      <trkpt lat="29.15823" lon="-13.49827">
        <ele>256.2</ele>
        <time>2021-07-03 14:40:46</time>
      </trkpt>
      <trkpt lat="29.15823" lon="-13.49832">
        <ele>256.2</ele>
        <time>2021-07-03 14:40:47</time>
      </trkpt>
      <trkpt lat="29.15823" lon="-13.49836">
        <ele>256.6</ele>
        <time>2021-07-03 14:40:48</time>
      </trkpt>
      <trkpt lat="29.15823" lon="-13.4984">
        <ele>256.8</ele>
        <time>2021-07-03 14:40:49</time>
      </trkpt>
      <trkpt lat="29.15823" lon="-13.49845">
        <ele>256.8</ele>
        <time>2021-07-03 14:40:50</time>
      </trkpt>
      <trkpt lat="29.15823" lon="-13.49849">
        <ele>257</ele>
        <time>2021-07-03 14:40:51</time>
      </trkpt>
      <trkpt lat="29.15823" lon="-13.49853">
        <ele>257</ele>
        <time>2021-07-03 14:40:52</time>
      </trkpt>
      <trkpt lat="29.15823" lon="-13.49857">
        <ele>257</ele>
        <time>2021-07-03 14:40:53</time>
      </trkpt>
      <trkpt lat="29.15823" lon="-13.49862">
        <ele>257.4</ele>
        <time>2021-07-03 14:40:54</time>
      </trkpt>
      <trkpt lat="29.15823" lon="-13.49866">
        <ele>257.4</ele>
        <time>2021-07-03 14:40:55</time>
      </trkpt>
      <trkpt lat="29.15823" lon="-13.4987">
        <ele>257.4</ele>
        <time>2021-07-03 14:40:56</time>
      </trkpt>
      <trkpt lat="29.15823" lon="-13.49875">
        <ele>257.4</ele>
        <time>2021-07-03 14:40:57</time>
      </trkpt>
      <trkpt lat="29.15823" lon="-13.49879">
        <ele>257.6</ele>
        <time>2021-07-03 14:40:58</time>
      </trkpt>
      <trkpt lat="29.15823" lon="-13.49884">
        <ele>257.6</ele>
        <time>2021-07-03 14:40:59</time>
      </trkpt>
      <trkpt lat="29.15823" lon="-13.49888">
        <ele>257.6</ele>
        <time>2021-07-03 14:41:00</time>
      </trkpt>
      <trkpt lat="29.15824" lon="-13.49893">
        <ele>258</ele>
        <time>2021-07-03 14:41:01</time>
      </trkpt>
      <trkpt lat="29.15824" lon="-13.49897">
        <ele>258</ele>
        <time>2021-07-03 14:41:02</time>
      </trkpt>
      <trkpt lat="29.15824" lon="-13.49902">
        <ele>258.2</ele>
        <time>2021-07-03 14:41:03</time>
      </trkpt>
      <trkpt lat="29.15824" lon="-13.49907">
        <ele>258.2</ele>
        <time>2021-07-03 14:41:04</time>
      </trkpt>
      <trkpt lat="29.15824" lon="-13.49912">
        <ele>258.2</ele>
        <time>2021-07-03 14:41:05</time>
      </trkpt>
      <trkpt lat="29.15824" lon="-13.49917">
        <ele>258.6</ele>
        <time>2021-07-03 14:41:06</time>
      </trkpt>
      <trkpt lat="29.15824" lon="-13.49922">
        <ele>258.6</ele>
        <time>2021-07-03 14:41:07</time>
      </trkpt>
      <trkpt lat="29.15824" lon="-13.49927">
        <ele>258.6</ele>
        <time>2021-07-03 14:41:08</time>
      </trkpt>
      <trkpt lat="29.15824" lon="-13.49932">
        <ele>258.6</ele>
        <time>2021-07-03 14:41:09</time>
      </trkpt>
      <trkpt lat="29.15824" lon="-13.49936">
        <ele>258.6</ele>
        <time>2021-07-03 14:41:10</time>
      </trkpt>
      <trkpt lat="29.15824" lon="-13.49941">
        <ele>258.6</ele>
        <time>2021-07-03 14:41:11</time>
      </trkpt>
      <trkpt lat="29.15823" lon="-13.49945">
        <ele>258.6</ele>
        <time>2021-07-03 14:41:12</time>
      </trkpt>
      <trkpt lat="29.15822" lon="-13.49948">
        <ele>258.6</ele>
        <time>2021-07-03 14:41:13</time>
      </trkpt>
      <trkpt lat="29.1582" lon="-13.49951">
        <ele>258.4</ele>
        <time>2021-07-03 14:41:14</time>
      </trkpt>
      <trkpt lat="29.15818" lon="-13.49955">
        <ele>258.4</ele>
        <time>2021-07-03 14:41:15</time>
      </trkpt>
      <trkpt lat="29.15815" lon="-13.49958">
        <ele>258.2</ele>
        <time>2021-07-03 14:41:16</time>
      </trkpt>
      <trkpt lat="29.15813" lon="-13.49961">
        <ele>258.2</ele>
        <time>2021-07-03 14:41:17</time>
      </trkpt>
      <trkpt lat="29.15809" lon="-13.49964">
        <ele>258.2</ele>
        <time>2021-07-03 14:41:18</time>
      </trkpt>
      <trkpt lat="29.15806" lon="-13.49966">
        <ele>257.8</ele>
        <time>2021-07-03 14:41:19</time>
      </trkpt>
      <trkpt lat="29.15803" lon="-13.49969">
        <ele>257.8</ele>
        <time>2021-07-03 14:41:20</time>
      </trkpt>
      <trkpt lat="29.158" lon="-13.49972">
        <ele>257.8</ele>
        <time>2021-07-03 14:41:21</time>
      </trkpt>
      <trkpt lat="29.15797" lon="-13.49974">
        <ele>257.6</ele>
        <time>2021-07-03 14:41:22</time>
      </trkpt>
      <trkpt lat="29.15794" lon="-13.49977">
        <ele>257.6</ele>
        <time>2021-07-03 14:41:23</time>
      </trkpt>
      <trkpt lat="29.15791" lon="-13.4998">
        <ele>257.6</ele>
        <time>2021-07-03 14:41:24</time>
      </trkpt>
      <trkpt lat="29.15788" lon="-13.49983">
        <ele>257.6</ele>
        <time>2021-07-03 14:41:25</time>
      </trkpt>
      <trkpt lat="29.15785" lon="-13.49985">
        <ele>257.6</ele>
        <time>2021-07-03 14:41:26</time>
      </trkpt>
      <trkpt lat="29.15781" lon="-13.49988">
        <ele>257.6</ele>
        <time>2021-07-03 14:41:27</time>
      </trkpt>
      <trkpt lat="29.15778" lon="-13.49991">
        <ele>257.6</ele>
        <time>2021-07-03 14:41:28</time>
      </trkpt>
      <trkpt lat="29.15775" lon="-13.49994">
        <ele>257.6</ele>
        <time>2021-07-03 14:41:29</time>
      </trkpt>
      <trkpt lat="29.15772" lon="-13.49996">
        <ele>257.6</ele>
        <time>2021-07-03 14:41:30</time>
      </trkpt>
      <trkpt lat="29.15769" lon="-13.49999">
        <ele>257.6</ele>
        <time>2021-07-03 14:41:31</time>
      </trkpt>
      <trkpt lat="29.15766" lon="-13.50002">
        <ele>257.6</ele>
        <time>2021-07-03 14:41:32</time>
      </trkpt>
      <trkpt lat="29.15762" lon="-13.50005">
        <ele>257.6</ele>
        <time>2021-07-03 14:41:33</time>
      </trkpt>
      <trkpt lat="29.15759" lon="-13.50008">
        <ele>257.8</ele>
        <time>2021-07-03 14:41:34</time>
      </trkpt>
      <trkpt lat="29.15756" lon="-13.50011">
        <ele>257.8</ele>
        <time>2021-07-03 14:41:35</time>
      </trkpt>
      <trkpt lat="29.15753" lon="-13.50014">
        <ele>257.8</ele>
        <time>2021-07-03 14:41:36</time>
      </trkpt>
      <trkpt lat="29.15749" lon="-13.50017">
        <ele>258</ele>
        <time>2021-07-03 14:41:37</time>
      </trkpt>
      <trkpt lat="29.15746" lon="-13.5002">
        <ele>258.2</ele>
        <time>2021-07-03 14:41:38</time>
      </trkpt>
      <trkpt lat="29.15743" lon="-13.50022">
        <ele>258.2</ele>
        <time>2021-07-03 14:41:39</time>
      </trkpt>
      <trkpt lat="29.1574" lon="-13.50025">
        <ele>258.6</ele>
        <time>2021-07-03 14:41:40</time>
      </trkpt>
      <trkpt lat="29.15737" lon="-13.50028">
        <ele>258.6</ele>
        <time>2021-07-03 14:41:41</time>
      </trkpt>
      <trkpt lat="29.15733" lon="-13.50031">
        <ele>258.6</ele>
        <time>2021-07-03 14:41:42</time>
      </trkpt>
      <trkpt lat="29.1573" lon="-13.50033">
        <ele>258.8</ele>
        <time>2021-07-03 14:41:43</time>
      </trkpt>
      <trkpt lat="29.15726" lon="-13.50035">
        <ele>258.8</ele>
        <time>2021-07-03 14:41:44</time>
      </trkpt>
      <trkpt lat="29.15722" lon="-13.50037">
        <ele>258.8</ele>
        <time>2021-07-03 14:41:45</time>
      </trkpt>
      <trkpt lat="29.15719" lon="-13.50039">
        <ele>259</ele>
        <time>2021-07-03 14:41:46</time>
      </trkpt>
      <trkpt lat="29.15715" lon="-13.5004">
        <ele>259</ele>
        <time>2021-07-03 14:41:47</time>
      </trkpt>
      <trkpt lat="29.15712" lon="-13.50041">
        <ele>259</ele>
        <time>2021-07-03 14:41:48</time>
      </trkpt>
      <trkpt lat="29.15709" lon="-13.50041">
        <ele>259</ele>
        <time>2021-07-03 14:41:49</time>
      </trkpt>
      <trkpt lat="29.15705" lon="-13.50042">
        <ele>259</ele>
        <time>2021-07-03 14:41:50</time>
      </trkpt>
      <trkpt lat="29.15701" lon="-13.50042">
        <ele>259.2</ele>
        <time>2021-07-03 14:41:51</time>
      </trkpt>
      <trkpt lat="29.15698" lon="-13.50043">
        <ele>259.2</ele>
        <time>2021-07-03 14:41:52</time>
      </trkpt>
      <trkpt lat="29.15694" lon="-13.50043">
        <ele>259.2</ele>
        <time>2021-07-03 14:41:53</time>
      </trkpt>
      <trkpt lat="29.1569" lon="-13.50043">
        <ele>259.2</ele>
        <time>2021-07-03 14:41:54</time>
      </trkpt>
      <trkpt lat="29.15687" lon="-13.50043">
        <ele>259.2</ele>
        <time>2021-07-03 14:41:55</time>
      </trkpt>
      <trkpt lat="29.15683" lon="-13.50044">
        <ele>259.2</ele>
        <time>2021-07-03 14:41:56</time>
      </trkpt>
      <trkpt lat="29.15679" lon="-13.50045">
        <ele>259.2</ele>
        <time>2021-07-03 14:41:57</time>
      </trkpt>
      <trkpt lat="29.15675" lon="-13.50045">
        <ele>259.2</ele>
        <time>2021-07-03 14:41:58</time>
      </trkpt>
      <trkpt lat="29.15671" lon="-13.50046">
        <ele>259.2</ele>
        <time>2021-07-03 14:41:59</time>
      </trkpt>
      <trkpt lat="29.15667" lon="-13.50046">
        <ele>259.2</ele>
        <time>2021-07-03 14:42:00</time>
      </trkpt>
      <trkpt lat="29.15663" lon="-13.50047">
        <ele>259.2</ele>
        <time>2021-07-03 14:42:01</time>
      </trkpt>
      <trkpt lat="29.15659" lon="-13.50047">
        <ele>259.2</ele>
        <time>2021-07-03 14:42:02</time>
      </trkpt>
      <trkpt lat="29.15655" lon="-13.50048">
        <ele>259.2</ele>
        <time>2021-07-03 14:42:03</time>
      </trkpt>
      <trkpt lat="29.1565" lon="-13.50048">
        <ele>259.2</ele>
        <time>2021-07-03 14:42:04</time>
      </trkpt>
      <trkpt lat="29.15646" lon="-13.50049">
        <ele>259.4</ele>
        <time>2021-07-03 14:42:05</time>
      </trkpt>
      <trkpt lat="29.15642" lon="-13.50049">
        <ele>259.4</ele>
        <time>2021-07-03 14:42:06</time>
      </trkpt>
      <trkpt lat="29.15638" lon="-13.5005">
        <ele>259.4</ele>
        <time>2021-07-03 14:42:07</time>
      </trkpt>
      <trkpt lat="29.15634" lon="-13.50051">
        <ele>259.4</ele>
        <time>2021-07-03 14:42:08</time>
      </trkpt>
      <trkpt lat="29.1563" lon="-13.50053">
        <ele>259.6</ele>
        <time>2021-07-03 14:42:09</time>
      </trkpt>
      <trkpt lat="29.15626" lon="-13.50054">
        <ele>259.6</ele>
        <time>2021-07-03 14:42:10</time>
      </trkpt>
      <trkpt lat="29.15622" lon="-13.50055">
        <ele>259.6</ele>
        <time>2021-07-03 14:42:11</time>
      </trkpt>
      <trkpt lat="29.15618" lon="-13.50056">
        <ele>259.6</ele>
        <time>2021-07-03 14:42:12</time>
      </trkpt>
      <trkpt lat="29.15614" lon="-13.50057">
        <ele>259.6</ele>
        <time>2021-07-03 14:42:13</time>
      </trkpt>
      <trkpt lat="29.1561" lon="-13.50057">
        <ele>259.6</ele>
        <time>2021-07-03 14:42:14</time>
      </trkpt>
      <trkpt lat="29.15606" lon="-13.50058">
        <ele>259.6</ele>
        <time>2021-07-03 14:42:15</time>
      </trkpt>
      <trkpt lat="29.15602" lon="-13.50059">
        <ele>260</ele>
        <time>2021-07-03 14:42:16</time>
      </trkpt>
      <trkpt lat="29.15597" lon="-13.5006">
        <ele>260</ele>
        <time>2021-07-03 14:42:17</time>
      </trkpt>
      <trkpt lat="29.15593" lon="-13.50061">
        <ele>260</ele>
        <time>2021-07-03 14:42:18</time>
      </trkpt>
      <trkpt lat="29.15589" lon="-13.50062">
        <ele>260</ele>
        <time>2021-07-03 14:42:19</time>
      </trkpt>
      <trkpt lat="29.15585" lon="-13.50063">
        <ele>260</ele>
        <time>2021-07-03 14:42:20</time>
      </trkpt>
      <trkpt lat="29.15581" lon="-13.50064">
        <ele>260</ele>
        <time>2021-07-03 14:42:21</time>
      </trkpt>
      <trkpt lat="29.15577" lon="-13.50065">
        <ele>260</ele>
        <time>2021-07-03 14:42:22</time>
      </trkpt>
      <trkpt lat="29.15572" lon="-13.50066">
        <ele>260.2</ele>
        <time>2021-07-03 14:42:23</time>
      </trkpt>
      <trkpt lat="29.15568" lon="-13.50067">
        <ele>260.2</ele>
        <time>2021-07-03 14:42:24</time>
      </trkpt>
      <trkpt lat="29.15564" lon="-13.50068">
        <ele>260.2</ele>
        <time>2021-07-03 14:42:25</time>
      </trkpt>
      <trkpt lat="29.1556" lon="-13.50069">
        <ele>260.4</ele>
        <time>2021-07-03 14:42:26</time>
      </trkpt>
      <trkpt lat="29.15556" lon="-13.5007">
        <ele>260.4</ele>
        <time>2021-07-03 14:42:27</time>
      </trkpt>
      <trkpt lat="29.15551" lon="-13.50071">
        <ele>260.6</ele>
        <time>2021-07-03 14:42:28</time>
      </trkpt>
      <trkpt lat="29.15547" lon="-13.50072">
        <ele>260.6</ele>
        <time>2021-07-03 14:42:29</time>
      </trkpt>
      <trkpt lat="29.15543" lon="-13.50073">
        <ele>260.6</ele>
        <time>2021-07-03 14:42:30</time>
      </trkpt>
      <trkpt lat="29.15539" lon="-13.50074">
        <ele>260.6</ele>
        <time>2021-07-03 14:42:31</time>
      </trkpt>
      <trkpt lat="29.15535" lon="-13.50075">
        <ele>261</ele>
        <time>2021-07-03 14:42:32</time>
      </trkpt>
      <trkpt lat="29.15531" lon="-13.50077">
        <ele>261</ele>
        <time>2021-07-03 14:42:33</time>
      </trkpt>
      <trkpt lat="29.15527" lon="-13.50078">
        <ele>261</ele>
        <time>2021-07-03 14:42:34</time>
      </trkpt>
      <trkpt lat="29.15523" lon="-13.5008">
        <ele>261.2</ele>
        <time>2021-07-03 14:42:35</time>
      </trkpt>
      <trkpt lat="29.15518" lon="-13.50081">
        <ele>261.2</ele>
        <time>2021-07-03 14:42:36</time>
      </trkpt>
      <trkpt lat="29.15514" lon="-13.50082">
        <ele>261.2</ele>
        <time>2021-07-03 14:42:37</time>
      </trkpt>
      <trkpt lat="29.1551" lon="-13.50083">
        <ele>261.6</ele>
        <time>2021-07-03 14:42:38</time>
      </trkpt>
      <trkpt lat="29.15506" lon="-13.50085">
        <ele>261.6</ele>
        <time>2021-07-03 14:42:39</time>
      </trkpt>
      <trkpt lat="29.15503" lon="-13.50086">
        <ele>261.8</ele>
        <time>2021-07-03 14:42:40</time>
      </trkpt>
      <trkpt lat="29.15499" lon="-13.50087">
        <ele>261.8</ele>
        <time>2021-07-03 14:42:41</time>
      </trkpt>
      <trkpt lat="29.15495" lon="-13.50089">
        <ele>262.2</ele>
        <time>2021-07-03 14:42:42</time>
      </trkpt>
      <trkpt lat="29.15491" lon="-13.5009">
        <ele>262.2</ele>
        <time>2021-07-03 14:42:43</time>
      </trkpt>
      <trkpt lat="29.15488" lon="-13.50092">
        <ele>262.4</ele>
        <time>2021-07-03 14:42:44</time>
      </trkpt>
      <trkpt lat="29.15484" lon="-13.50093">
        <ele>262.6</ele>
        <time>2021-07-03 14:42:45</time>
      </trkpt>
      <trkpt lat="29.1548" lon="-13.50094">
        <ele>262.8</ele>
        <time>2021-07-03 14:42:46</time>
      </trkpt>
      <trkpt lat="29.15476" lon="-13.50096">
        <ele>262.8</ele>
        <time>2021-07-03 14:42:47</time>
      </trkpt>
      <trkpt lat="29.15473" lon="-13.50097">
        <ele>263.2</ele>
        <time>2021-07-03 14:42:48</time>
      </trkpt>
      <trkpt lat="29.15469" lon="-13.50098">
        <ele>263.2</ele>
        <time>2021-07-03 14:42:49</time>
      </trkpt>
      <trkpt lat="29.15466" lon="-13.50099">
        <ele>263.6</ele>
        <time>2021-07-03 14:42:50</time>
      </trkpt>
      <trkpt lat="29.15462" lon="-13.501">
        <ele>263.8</ele>
        <time>2021-07-03 14:42:51</time>
      </trkpt>
      <trkpt lat="29.15459" lon="-13.50101">
        <ele>263.8</ele>
        <time>2021-07-03 14:42:52</time>
      </trkpt>
      <trkpt lat="29.15455" lon="-13.50102">
        <ele>264</ele>
        <time>2021-07-03 14:42:53</time>
      </trkpt>
      <trkpt lat="29.15452" lon="-13.50104">
        <ele>264</ele>
        <time>2021-07-03 14:42:54</time>
      </trkpt>
      <trkpt lat="29.15448" lon="-13.50105">
        <ele>264</ele>
        <time>2021-07-03 14:42:55</time>
      </trkpt>
      <trkpt lat="29.15445" lon="-13.50106">
        <ele>264.4</ele>
        <time>2021-07-03 14:42:56</time>
      </trkpt>
      <trkpt lat="29.15442" lon="-13.50107">
        <ele>264.4</ele>
        <time>2021-07-03 14:42:57</time>
      </trkpt>
      <trkpt lat="29.15438" lon="-13.50108">
        <ele>264.8</ele>
        <time>2021-07-03 14:42:58</time>
      </trkpt>
      <trkpt lat="29.15435" lon="-13.50109">
        <ele>264.8</ele>
        <time>2021-07-03 14:42:59</time>
      </trkpt>
      <trkpt lat="29.15431" lon="-13.5011">
        <ele>265</ele>
        <time>2021-07-03 14:43:00</time>
      </trkpt>
      <trkpt lat="29.15428" lon="-13.50111">
        <ele>265</ele>
        <time>2021-07-03 14:43:01</time>
      </trkpt>
      <trkpt lat="29.15425" lon="-13.50112">
        <ele>265.2</ele>
        <time>2021-07-03 14:43:02</time>
      </trkpt>
      <trkpt lat="29.15422" lon="-13.50112">
        <ele>265.2</ele>
        <time>2021-07-03 14:43:03</time>
      </trkpt>
      <trkpt lat="29.15418" lon="-13.50114">
        <ele>265.6</ele>
        <time>2021-07-03 14:43:04</time>
      </trkpt>
      <trkpt lat="29.15415" lon="-13.50115">
        <ele>265.6</ele>
        <time>2021-07-03 14:43:05</time>
      </trkpt>
      <trkpt lat="29.15412" lon="-13.50116">
        <ele>265.8</ele>
        <time>2021-07-03 14:43:06</time>
      </trkpt>
      <trkpt lat="29.15409" lon="-13.50117">
        <ele>265.8</ele>
        <time>2021-07-03 14:43:07</time>
      </trkpt>
      <trkpt lat="29.15406" lon="-13.50118">
        <ele>266.2</ele>
        <time>2021-07-03 14:43:08</time>
      </trkpt>
      <trkpt lat="29.15403" lon="-13.50118">
        <ele>266.2</ele>
        <time>2021-07-03 14:43:09</time>
      </trkpt>
      <trkpt lat="29.15399" lon="-13.50119">
        <ele>266.2</ele>
        <time>2021-07-03 14:43:10</time>
      </trkpt>
      <trkpt lat="29.15396" lon="-13.5012">
        <ele>266.4</ele>
        <time>2021-07-03 14:43:11</time>
      </trkpt>
      <trkpt lat="29.15393" lon="-13.50121">
        <ele>266.4</ele>
        <time>2021-07-03 14:43:12</time>
      </trkpt>
      <trkpt lat="29.1539" lon="-13.50122">
        <ele>266.4</ele>
        <time>2021-07-03 14:43:13</time>
      </trkpt>
      <trkpt lat="29.15387" lon="-13.50123">
        <ele>266.8</ele>
        <time>2021-07-03 14:43:14</time>
      </trkpt>
      <trkpt lat="29.15384" lon="-13.50124">
        <ele>266.8</ele>
        <time>2021-07-03 14:43:15</time>
      </trkpt>
      <trkpt lat="29.15381" lon="-13.50125">
        <ele>267</ele>
        <time>2021-07-03 14:43:16</time>
      </trkpt>
      <trkpt lat="29.15378" lon="-13.50127">
        <ele>267</ele>
        <time>2021-07-03 14:43:17</time>
      </trkpt>
      <trkpt lat="29.15376" lon="-13.50129">
        <ele>267.2</ele>
        <time>2021-07-03 14:43:18</time>
      </trkpt>
      <trkpt lat="29.15373" lon="-13.50131">
        <ele>267.6</ele>
        <time>2021-07-03 14:43:19</time>
      </trkpt>
      <trkpt lat="29.15372" lon="-13.50134">
        <ele>267.6</ele>
        <time>2021-07-03 14:43:20</time>
      </trkpt>
      <trkpt lat="29.1537" lon="-13.50137">
        <ele>267.6</ele>
        <time>2021-07-03 14:43:21</time>
      </trkpt>
      <trkpt lat="29.15369" lon="-13.5014">
        <ele>267.8</ele>
        <time>2021-07-03 14:43:22</time>
      </trkpt>
      <trkpt lat="29.15367" lon="-13.50143">
        <ele>267.8</ele>
        <time>2021-07-03 14:43:23</time>
      </trkpt>
      <trkpt lat="29.15365" lon="-13.50146">
        <ele>268.2</ele>
        <time>2021-07-03 14:43:24</time>
      </trkpt>
      <trkpt lat="29.15364" lon="-13.50149">
        <ele>268.2</ele>
        <time>2021-07-03 14:43:25</time>
      </trkpt>
      <trkpt lat="29.15362" lon="-13.50151">
        <ele>268.4</ele>
        <time>2021-07-03 14:43:26</time>
      </trkpt>
      <trkpt lat="29.1536" lon="-13.50154">
        <ele>268.4</ele>
        <time>2021-07-03 14:43:27</time>
      </trkpt>
      <trkpt lat="29.15358" lon="-13.50157">
        <ele>268.8</ele>
        <time>2021-07-03 14:43:28</time>
      </trkpt>
      <trkpt lat="29.15356" lon="-13.5016">
        <ele>268.8</ele>
        <time>2021-07-03 14:43:29</time>
      </trkpt>
      <trkpt lat="29.15355" lon="-13.50163">
        <ele>269.2</ele>
        <time>2021-07-03 14:43:30</time>
      </trkpt>
      <trkpt lat="29.15353" lon="-13.50166">
        <ele>269.2</ele>
        <time>2021-07-03 14:43:31</time>
      </trkpt>
      <trkpt lat="29.15351" lon="-13.50169">
        <ele>269.4</ele>
        <time>2021-07-03 14:43:32</time>
      </trkpt>
      <trkpt lat="29.15349" lon="-13.50172">
        <ele>269.6</ele>
        <time>2021-07-03 14:43:33</time>
      </trkpt>
      <trkpt lat="29.15348" lon="-13.50175">
        <ele>269.6</ele>
        <time>2021-07-03 14:43:34</time>
      </trkpt>
      <trkpt lat="29.15347" lon="-13.50178">
        <ele>270</ele>
        <time>2021-07-03 14:43:35</time>
      </trkpt>
      <trkpt lat="29.15345" lon="-13.50182">
        <ele>270.2</ele>
        <time>2021-07-03 14:43:36</time>
      </trkpt>
      <trkpt lat="29.15344" lon="-13.50185">
        <ele>270.2</ele>
        <time>2021-07-03 14:43:37</time>
      </trkpt>
      <trkpt lat="29.15343" lon="-13.50188">
        <ele>270.6</ele>
        <time>2021-07-03 14:43:38</time>
      </trkpt>
      <trkpt lat="29.15341" lon="-13.50192">
        <ele>270.6</ele>
        <time>2021-07-03 14:43:39</time>
      </trkpt>
      <trkpt lat="29.1534" lon="-13.50195">
        <ele>270.8</ele>
        <time>2021-07-03 14:43:40</time>
      </trkpt>
      <trkpt lat="29.15339" lon="-13.50198">
        <ele>270.8</ele>
        <time>2021-07-03 14:43:41</time>
      </trkpt>
      <trkpt lat="29.15337" lon="-13.50202">
        <ele>271.2</ele>
        <time>2021-07-03 14:43:42</time>
      </trkpt>
      <trkpt lat="29.15336" lon="-13.50205">
        <ele>271.2</ele>
        <time>2021-07-03 14:43:43</time>
      </trkpt>
      <trkpt lat="29.15336" lon="-13.50208">
        <ele>271.6</ele>
        <time>2021-07-03 14:43:44</time>
      </trkpt>
      <trkpt lat="29.15335" lon="-13.50212">
        <ele>271.6</ele>
        <time>2021-07-03 14:43:45</time>
      </trkpt>
      <trkpt lat="29.15334" lon="-13.50215">
        <ele>271.8</ele>
        <time>2021-07-03 14:43:46</time>
      </trkpt>
      <trkpt lat="29.15334" lon="-13.50219">
        <ele>271.8</ele>
        <time>2021-07-03 14:43:47</time>
      </trkpt>
      <trkpt lat="29.15333" lon="-13.50223">
        <ele>271.8</ele>
        <time>2021-07-03 14:43:48</time>
      </trkpt>
      <trkpt lat="29.15333" lon="-13.50227">
        <ele>272</ele>
        <time>2021-07-03 14:43:49</time>
      </trkpt>
      <trkpt lat="29.15332" lon="-13.5023">
        <ele>272</ele>
        <time>2021-07-03 14:43:50</time>
      </trkpt>
      <trkpt lat="29.15331" lon="-13.50234">
        <ele>272</ele>
        <time>2021-07-03 14:43:51</time>
      </trkpt>
      <trkpt lat="29.15331" lon="-13.50237">
        <ele>272</ele>
        <time>2021-07-03 14:43:52</time>
      </trkpt>
      <trkpt lat="29.1533" lon="-13.5024">
        <ele>272.4</ele>
        <time>2021-07-03 14:43:53</time>
      </trkpt>
      <trkpt lat="29.15329" lon="-13.50244">
        <ele>272.4</ele>
        <time>2021-07-03 14:43:54</time>
      </trkpt>
      <trkpt lat="29.15328" lon="-13.50247">
        <ele>272.6</ele>
        <time>2021-07-03 14:43:55</time>
      </trkpt>
      <trkpt lat="29.15327" lon="-13.5025">
        <ele>272.6</ele>
        <time>2021-07-03 14:43:56</time>
      </trkpt>
      <trkpt lat="29.15324" lon="-13.5026">
        <ele>272.8</ele>
        <time>2021-07-03 14:43:57</time>
      </trkpt>
      <trkpt lat="29.15323" lon="-13.50264">
        <ele>273.2</ele>
        <time>2021-07-03 14:43:58</time>
      </trkpt>
      <trkpt lat="29.15322" lon="-13.50267">
        <ele>273.2</ele>
        <time>2021-07-03 14:43:59</time>
      </trkpt>
      <trkpt lat="29.15321" lon="-13.5027">
        <ele>273.2</ele>
        <time>2021-07-03 14:44:00</time>
      </trkpt>
      <trkpt lat="29.1532" lon="-13.50274">
        <ele>273.4</ele>
        <time>2021-07-03 14:44:01</time>
      </trkpt>
      <trkpt lat="29.15319" lon="-13.50277">
        <ele>273.4</ele>
        <time>2021-07-03 14:44:02</time>
      </trkpt>
      <trkpt lat="29.15318" lon="-13.5028">
        <ele>273.6</ele>
        <time>2021-07-03 14:44:03</time>
      </trkpt>
      <trkpt lat="29.15317" lon="-13.50284">
        <ele>273.6</ele>
        <time>2021-07-03 14:44:04</time>
      </trkpt>
      <trkpt lat="29.15316" lon="-13.50287">
        <ele>274</ele>
        <time>2021-07-03 14:44:05</time>
      </trkpt>
      <trkpt lat="29.15315" lon="-13.5029">
        <ele>274.2</ele>
        <time>2021-07-03 14:44:06</time>
      </trkpt>
      <trkpt lat="29.15313" lon="-13.50294">
        <ele>274.6</ele>
        <time>2021-07-03 14:44:07</time>
      </trkpt>
      <trkpt lat="29.15312" lon="-13.50297">
        <ele>274.6</ele>
        <time>2021-07-03 14:44:08</time>
      </trkpt>
      <trkpt lat="29.15311" lon="-13.503">
        <ele>275</ele>
        <time>2021-07-03 14:44:09</time>
      </trkpt>
      <trkpt lat="29.15309" lon="-13.50303">
        <ele>275</ele>
        <time>2021-07-03 14:44:10</time>
      </trkpt>
      <trkpt lat="29.15308" lon="-13.50306">
        <ele>275.4</ele>
        <time>2021-07-03 14:44:11</time>
      </trkpt>
      <trkpt lat="29.15307" lon="-13.50309">
        <ele>275.4</ele>
        <time>2021-07-03 14:44:12</time>
      </trkpt>
      <trkpt lat="29.15305" lon="-13.50313">
        <ele>275.6</ele>
        <time>2021-07-03 14:44:13</time>
      </trkpt>
      <trkpt lat="29.15304" lon="-13.50316">
        <ele>275.6</ele>
        <time>2021-07-03 14:44:14</time>
      </trkpt>
      <trkpt lat="29.15302" lon="-13.50319">
        <ele>275.6</ele>
        <time>2021-07-03 14:44:15</time>
      </trkpt>
      <trkpt lat="29.15301" lon="-13.50322">
        <ele>275.8</ele>
        <time>2021-07-03 14:44:16</time>
      </trkpt>
      <trkpt lat="29.153" lon="-13.50325">
        <ele>275.8</ele>
        <time>2021-07-03 14:44:17</time>
      </trkpt>
      <trkpt lat="29.15298" lon="-13.50328">
        <ele>275.8</ele>
        <time>2021-07-03 14:44:18</time>
      </trkpt>
      <trkpt lat="29.15297" lon="-13.50331">
        <ele>276.2</ele>
        <time>2021-07-03 14:44:19</time>
      </trkpt>
      <trkpt lat="29.15296" lon="-13.50335">
        <ele>276.2</ele>
        <time>2021-07-03 14:44:20</time>
      </trkpt>
      <trkpt lat="29.15295" lon="-13.50338">
        <ele>276.6</ele>
        <time>2021-07-03 14:44:21</time>
      </trkpt>
      <trkpt lat="29.15294" lon="-13.50341">
        <ele>276.6</ele>
        <time>2021-07-03 14:44:22</time>
      </trkpt>
      <trkpt lat="29.15293" lon="-13.50344">
        <ele>277</ele>
        <time>2021-07-03 14:44:23</time>
      </trkpt>
      <trkpt lat="29.15292" lon="-13.50348">
        <ele>277</ele>
        <time>2021-07-03 14:44:24</time>
      </trkpt>
      <trkpt lat="29.15291" lon="-13.50351">
        <ele>277</ele>
        <time>2021-07-03 14:44:25</time>
      </trkpt>
      <trkpt lat="29.1529" lon="-13.50354">
        <ele>277.2</ele>
        <time>2021-07-03 14:44:26</time>
      </trkpt>
      <trkpt lat="29.1529" lon="-13.50358">
        <ele>277.6</ele>
        <time>2021-07-03 14:44:27</time>
      </trkpt>
      <trkpt lat="29.15289" lon="-13.50361">
        <ele>277.8</ele>
        <time>2021-07-03 14:44:28</time>
      </trkpt>
      <trkpt lat="29.15288" lon="-13.50364">
        <ele>277.8</ele>
        <time>2021-07-03 14:44:29</time>
      </trkpt>
      <trkpt lat="29.15286" lon="-13.50367">
        <ele>278.2</ele>
        <time>2021-07-03 14:44:30</time>
      </trkpt>
      <trkpt lat="29.15284" lon="-13.50368">
        <ele>278.2</ele>
        <time>2021-07-03 14:44:31</time>
      </trkpt>
      <trkpt lat="29.15282" lon="-13.50369">
        <ele>278.4</ele>
        <time>2021-07-03 14:44:32</time>
      </trkpt>
      <trkpt lat="29.1528" lon="-13.50368">
        <ele>278.4</ele>
        <time>2021-07-03 14:44:33</time>
      </trkpt>
      <trkpt lat="29.15278" lon="-13.50367">
        <ele>278.8</ele>
        <time>2021-07-03 14:44:34</time>
      </trkpt>
      <trkpt lat="29.15276" lon="-13.50365">
        <ele>279</ele>
        <time>2021-07-03 14:44:35</time>
      </trkpt>
      <trkpt lat="29.15274" lon="-13.50364">
        <ele>279</ele>
        <time>2021-07-03 14:44:36</time>
      </trkpt>
      <trkpt lat="29.15272" lon="-13.50363">
        <ele>279.4</ele>
        <time>2021-07-03 14:44:37</time>
      </trkpt>
      <trkpt lat="29.1527" lon="-13.50361">
        <ele>279.4</ele>
        <time>2021-07-03 14:44:38</time>
      </trkpt>
      <trkpt lat="29.15268" lon="-13.5036">
        <ele>279.8</ele>
        <time>2021-07-03 14:44:39</time>
      </trkpt>
      <trkpt lat="29.15266" lon="-13.50358">
        <ele>279.8</ele>
        <time>2021-07-03 14:44:40</time>
      </trkpt>
      <trkpt lat="29.15263" lon="-13.50356">
        <ele>280</ele>
        <time>2021-07-03 14:44:41</time>
      </trkpt>
      <trkpt lat="29.15261" lon="-13.50355">
        <ele>280</ele>
        <time>2021-07-03 14:44:42</time>
      </trkpt>
      <trkpt lat="29.15259" lon="-13.50353">
        <ele>280</ele>
        <time>2021-07-03 14:44:43</time>
      </trkpt>
      <trkpt lat="29.15257" lon="-13.50351">
        <ele>280.4</ele>
        <time>2021-07-03 14:44:44</time>
      </trkpt>
      <trkpt lat="29.15254" lon="-13.5035">
        <ele>280.4</ele>
        <time>2021-07-03 14:44:45</time>
      </trkpt>
      <trkpt lat="29.15252" lon="-13.50348">
        <ele>280.8</ele>
        <time>2021-07-03 14:44:46</time>
      </trkpt>
      <trkpt lat="29.1525" lon="-13.50347">
        <ele>280.8</ele>
        <time>2021-07-03 14:44:47</time>
      </trkpt>
      <trkpt lat="29.15247" lon="-13.50345">
        <ele>281</ele>
        <time>2021-07-03 14:44:48</time>
      </trkpt>
      <trkpt lat="29.15245" lon="-13.50343">
        <ele>281</ele>
        <time>2021-07-03 14:44:49</time>
      </trkpt>
      <trkpt lat="29.15243" lon="-13.50341">
        <ele>281.2</ele>
        <time>2021-07-03 14:44:50</time>
      </trkpt>
      <trkpt lat="29.15241" lon="-13.50339">
        <ele>281.2</ele>
        <time>2021-07-03 14:44:51</time>
      </trkpt>
      <trkpt lat="29.15239" lon="-13.50337">
        <ele>281.6</ele>
        <time>2021-07-03 14:44:52</time>
      </trkpt>
      <trkpt lat="29.15237" lon="-13.50335">
        <ele>281.6</ele>
        <time>2021-07-03 14:44:53</time>
      </trkpt>
      <trkpt lat="29.15235" lon="-13.50333">
        <ele>281.8</ele>
        <time>2021-07-03 14:44:54</time>
      </trkpt>
      <trkpt lat="29.15232" lon="-13.50331">
        <ele>281.8</ele>
        <time>2021-07-03 14:44:55</time>
      </trkpt>
      <trkpt lat="29.1523" lon="-13.5033">
        <ele>282.2</ele>
        <time>2021-07-03 14:44:56</time>
      </trkpt>
      <trkpt lat="29.15228" lon="-13.50327">
        <ele>282.2</ele>
        <time>2021-07-03 14:44:57</time>
      </trkpt>
      <trkpt lat="29.15226" lon="-13.50325">
        <ele>282.6</ele>
        <time>2021-07-03 14:44:58</time>
      </trkpt>
      <trkpt lat="29.15224" lon="-13.50323">
        <ele>282.6</ele>
        <time>2021-07-03 14:44:59</time>
      </trkpt>
      <trkpt lat="29.15222" lon="-13.50321">
        <ele>282.8</ele>
        <time>2021-07-03 14:45:00</time>
      </trkpt>
      <trkpt lat="29.15219" lon="-13.50319">
        <ele>282.8</ele>
        <time>2021-07-03 14:45:01</time>
      </trkpt>
      <trkpt lat="29.15217" lon="-13.50317">
        <ele>282.8</ele>
        <time>2021-07-03 14:45:02</time>
      </trkpt>
      <trkpt lat="29.15215" lon="-13.50314">
        <ele>283</ele>
        <time>2021-07-03 14:45:03</time>
      </trkpt>
      <trkpt lat="29.15213" lon="-13.50312">
        <ele>283</ele>
        <time>2021-07-03 14:45:04</time>
      </trkpt>
      <trkpt lat="29.15211" lon="-13.5031">
        <ele>283</ele>
        <time>2021-07-03 14:45:05</time>
      </trkpt>
      <trkpt lat="29.15209" lon="-13.50307">
        <ele>283</ele>
        <time>2021-07-03 14:45:06</time>
      </trkpt>
      <trkpt lat="29.15207" lon="-13.50305">
        <ele>283.4</ele>
        <time>2021-07-03 14:45:07</time>
      </trkpt>
      <trkpt lat="29.15205" lon="-13.50302">
        <ele>283.4</ele>
        <time>2021-07-03 14:45:08</time>
      </trkpt>
      <trkpt lat="29.15203" lon="-13.50299">
        <ele>283.8</ele>
        <time>2021-07-03 14:45:09</time>
      </trkpt>
      <trkpt lat="29.15201" lon="-13.50297">
        <ele>284</ele>
        <time>2021-07-03 14:45:10</time>
      </trkpt>
      <trkpt lat="29.15199" lon="-13.50295">
        <ele>284.4</ele>
        <time>2021-07-03 14:45:11</time>
      </trkpt>
      <trkpt lat="29.15197" lon="-13.50293">
        <ele>284.6</ele>
        <time>2021-07-03 14:45:12</time>
      </trkpt>
      <trkpt lat="29.15195" lon="-13.50291">
        <ele>284.6</ele>
        <time>2021-07-03 14:45:13</time>
      </trkpt>
      <trkpt lat="29.15193" lon="-13.50289">
        <ele>285</ele>
        <time>2021-07-03 14:45:14</time>
      </trkpt>
      <trkpt lat="29.15191" lon="-13.50286">
        <ele>285</ele>
        <time>2021-07-03 14:45:15</time>
      </trkpt>
      <trkpt lat="29.15188" lon="-13.50284">
        <ele>285.2</ele>
        <time>2021-07-03 14:45:16</time>
      </trkpt>
      <trkpt lat="29.15186" lon="-13.50281">
        <ele>285.2</ele>
        <time>2021-07-03 14:45:17</time>
      </trkpt>
      <trkpt lat="29.15184" lon="-13.50279">
        <ele>285.6</ele>
        <time>2021-07-03 14:45:18</time>
      </trkpt>
      <trkpt lat="29.15182" lon="-13.50277">
        <ele>285.6</ele>
        <time>2021-07-03 14:45:19</time>
      </trkpt>
      <trkpt lat="29.1518" lon="-13.50275">
        <ele>285.8</ele>
        <time>2021-07-03 14:45:20</time>
      </trkpt>
      <trkpt lat="29.15178" lon="-13.50273">
        <ele>285.8</ele>
        <time>2021-07-03 14:45:21</time>
      </trkpt>
      <trkpt lat="29.15176" lon="-13.50271">
        <ele>286.2</ele>
        <time>2021-07-03 14:45:22</time>
      </trkpt>
      <trkpt lat="29.15174" lon="-13.50269">
        <ele>286.2</ele>
        <time>2021-07-03 14:45:23</time>
      </trkpt>
      <trkpt lat="29.15172" lon="-13.50267">
        <ele>286.4</ele>
        <time>2021-07-03 14:45:24</time>
      </trkpt>
      <trkpt lat="29.1517" lon="-13.50265">
        <ele>286.4</ele>
        <time>2021-07-03 14:45:25</time>
      </trkpt>
      <trkpt lat="29.15169" lon="-13.50263">
        <ele>286.8</ele>
        <time>2021-07-03 14:45:26</time>
      </trkpt>
      <trkpt lat="29.15168" lon="-13.5026">
        <ele>287</ele>
        <time>2021-07-03 14:45:27</time>
      </trkpt>
      <trkpt lat="29.15167" lon="-13.50258">
        <ele>287.2</ele>
        <time>2021-07-03 14:45:28</time>
      </trkpt>
      <trkpt lat="29.15166" lon="-13.50256">
        <ele>287.6</ele>
        <time>2021-07-03 14:45:29</time>
      </trkpt>
      <trkpt lat="29.15165" lon="-13.50254">
        <ele>288</ele>
        <time>2021-07-03 14:45:30</time>
      </trkpt>
      <trkpt lat="29.15163" lon="-13.50252">
        <ele>288.2</ele>
        <time>2021-07-03 14:45:31</time>
      </trkpt>
      <trkpt lat="29.15162" lon="-13.5025">
        <ele>288.4</ele>
        <time>2021-07-03 14:45:32</time>
      </trkpt>
      <trkpt lat="29.1516" lon="-13.50248">
        <ele>288.8</ele>
        <time>2021-07-03 14:45:33</time>
      </trkpt>
      <trkpt lat="29.15159" lon="-13.50246">
        <ele>289</ele>
        <time>2021-07-03 14:45:34</time>
      </trkpt>
      <trkpt lat="29.15158" lon="-13.50244">
        <ele>289.4</ele>
        <time>2021-07-03 14:45:35</time>
      </trkpt>
      <trkpt lat="29.15156" lon="-13.50242">
        <ele>289.8</ele>
        <time>2021-07-03 14:45:36</time>
      </trkpt>
      <trkpt lat="29.15155" lon="-13.5024">
        <ele>290</ele>
        <time>2021-07-03 14:45:37</time>
      </trkpt>
      <trkpt lat="29.15153" lon="-13.50238">
        <ele>290.2</ele>
        <time>2021-07-03 14:45:38</time>
      </trkpt>
      <trkpt lat="29.15152" lon="-13.50236">
        <ele>290.4</ele>
        <time>2021-07-03 14:45:39</time>
      </trkpt>
      <trkpt lat="29.15151" lon="-13.50234">
        <ele>290.4</ele>
        <time>2021-07-03 14:45:40</time>
      </trkpt>
      <trkpt lat="29.1515" lon="-13.50232">
        <ele>290.8</ele>
        <time>2021-07-03 14:45:41</time>
      </trkpt>
      <trkpt lat="29.15148" lon="-13.5023">
        <ele>291</ele>
        <time>2021-07-03 14:45:42</time>
      </trkpt>
      <trkpt lat="29.15147" lon="-13.50228">
        <ele>291</ele>
        <time>2021-07-03 14:45:43</time>
      </trkpt>
      <trkpt lat="29.15146" lon="-13.50226">
        <ele>291.6</ele>
        <time>2021-07-03 14:45:44</time>
      </trkpt>
      <trkpt lat="29.15144" lon="-13.50224">
        <ele>291.6</ele>
        <time>2021-07-03 14:45:45</time>
      </trkpt>
      <trkpt lat="29.15143" lon="-13.50221">
        <ele>292</ele>
        <time>2021-07-03 14:45:46</time>
      </trkpt>
      <trkpt lat="29.15141" lon="-13.50219">
        <ele>292.2</ele>
        <time>2021-07-03 14:45:47</time>
      </trkpt>
      <trkpt lat="29.1514" lon="-13.50217">
        <ele>292.2</ele>
        <time>2021-07-03 14:45:48</time>
      </trkpt>
      <trkpt lat="29.15139" lon="-13.50215">
        <ele>292.6</ele>
        <time>2021-07-03 14:45:49</time>
      </trkpt>
      <trkpt lat="29.15137" lon="-13.50213">
        <ele>292.8</ele>
        <time>2021-07-03 14:45:50</time>
      </trkpt>
      <trkpt lat="29.15136" lon="-13.50211">
        <ele>293</ele>
        <time>2021-07-03 14:45:51</time>
      </trkpt>
      <trkpt lat="29.15135" lon="-13.50209">
        <ele>293.2</ele>
        <time>2021-07-03 14:45:52</time>
      </trkpt>
      <trkpt lat="29.15134" lon="-13.50207">
        <ele>293.4</ele>
        <time>2021-07-03 14:45:53</time>
      </trkpt>
      <trkpt lat="29.15132" lon="-13.50204">
        <ele>293.8</ele>
        <time>2021-07-03 14:45:54</time>
      </trkpt>
      <trkpt lat="29.15131" lon="-13.50202">
        <ele>293.8</ele>
        <time>2021-07-03 14:45:55</time>
      </trkpt>
      <trkpt lat="29.1513" lon="-13.502">
        <ele>294</ele>
        <time>2021-07-03 14:45:56</time>
      </trkpt>
      <trkpt lat="29.15128" lon="-13.50198">
        <ele>294</ele>
        <time>2021-07-03 14:45:57</time>
      </trkpt>
      <trkpt lat="29.15127" lon="-13.50196">
        <ele>294.4</ele>
        <time>2021-07-03 14:45:58</time>
      </trkpt>
      <trkpt lat="29.15125" lon="-13.50194">
        <ele>294.6</ele>
        <time>2021-07-03 14:45:59</time>
      </trkpt>
      <trkpt lat="29.15124" lon="-13.50192">
        <ele>294.8</ele>
        <time>2021-07-03 14:46:00</time>
      </trkpt>
      <trkpt lat="29.15122" lon="-13.5019">
        <ele>295.2</ele>
        <time>2021-07-03 14:46:01</time>
      </trkpt>
      <trkpt lat="29.15121" lon="-13.50188">
        <ele>295.4</ele>
        <time>2021-07-03 14:46:02</time>
      </trkpt>
      <trkpt lat="29.1512" lon="-13.50186">
        <ele>295.6</ele>
        <time>2021-07-03 14:46:03</time>
      </trkpt>
      <trkpt lat="29.15118" lon="-13.50184">
        <ele>296</ele>
        <time>2021-07-03 14:46:04</time>
      </trkpt>
      <trkpt lat="29.15117" lon="-13.50182">
        <ele>296.2</ele>
        <time>2021-07-03 14:46:05</time>
      </trkpt>
      <trkpt lat="29.15116" lon="-13.5018">
        <ele>296.2</ele>
        <time>2021-07-03 14:46:06</time>
      </trkpt>
      <trkpt lat="29.15114" lon="-13.50178">
        <ele>296.4</ele>
        <time>2021-07-03 14:46:07</time>
      </trkpt>
      <trkpt lat="29.15113" lon="-13.50176">
        <ele>296.4</ele>
        <time>2021-07-03 14:46:08</time>
      </trkpt>
      <trkpt lat="29.15111" lon="-13.50174">
        <ele>297</ele>
        <time>2021-07-03 14:46:09</time>
      </trkpt>
      <trkpt lat="29.1511" lon="-13.50172">
        <ele>297.2</ele>
        <time>2021-07-03 14:46:10</time>
      </trkpt>
      <trkpt lat="29.15108" lon="-13.5017">
        <ele>297.4</ele>
        <time>2021-07-03 14:46:11</time>
      </trkpt>
      <trkpt lat="29.15107" lon="-13.50168">
        <ele>297.8</ele>
        <time>2021-07-03 14:46:12</time>
      </trkpt>
      <trkpt lat="29.15105" lon="-13.50166">
        <ele>298</ele>
        <time>2021-07-03 14:46:13</time>
      </trkpt>
      <trkpt lat="29.15104" lon="-13.50164">
        <ele>298.2</ele>
        <time>2021-07-03 14:46:14</time>
      </trkpt>
      <trkpt lat="29.15102" lon="-13.50162">
        <ele>298.6</ele>
        <time>2021-07-03 14:46:15</time>
      </trkpt>
      <trkpt lat="29.15101" lon="-13.5016">
        <ele>298.8</ele>
        <time>2021-07-03 14:46:16</time>
      </trkpt>
      <trkpt lat="29.15099" lon="-13.50158">
        <ele>299.2</ele>
        <time>2021-07-03 14:46:17</time>
      </trkpt>
      <trkpt lat="29.15098" lon="-13.50156">
        <ele>299.2</ele>
        <time>2021-07-03 14:46:18</time>
      </trkpt>
      <trkpt lat="29.15096" lon="-13.50154">
        <ele>299.6</ele>
        <time>2021-07-03 14:46:19</time>
      </trkpt>
      <trkpt lat="29.15095" lon="-13.50152">
        <ele>299.6</ele>
        <time>2021-07-03 14:46:20</time>
      </trkpt>
      <trkpt lat="29.15094" lon="-13.5015">
        <ele>299.8</ele>
        <time>2021-07-03 14:46:21</time>
      </trkpt>
      <trkpt lat="29.15093" lon="-13.50147">
        <ele>300</ele>
        <time>2021-07-03 14:46:22</time>
      </trkpt>
      <trkpt lat="29.15092" lon="-13.50145">
        <ele>300.4</ele>
        <time>2021-07-03 14:46:23</time>
      </trkpt>
      <trkpt lat="29.1509" lon="-13.50143">
        <ele>300.8</ele>
        <time>2021-07-03 14:46:24</time>
      </trkpt>
      <trkpt lat="29.15089" lon="-13.50141">
        <ele>301.2</ele>
        <time>2021-07-03 14:46:25</time>
      </trkpt>
      <trkpt lat="29.15088" lon="-13.50139">
        <ele>301.6</ele>
        <time>2021-07-03 14:46:26</time>
      </trkpt>
      <trkpt lat="29.15087" lon="-13.50137">
        <ele>302</ele>
        <time>2021-07-03 14:46:27</time>
      </trkpt>
      <trkpt lat="29.15086" lon="-13.50135">
        <ele>302.4</ele>
        <time>2021-07-03 14:46:28</time>
      </trkpt>
      <trkpt lat="29.15085" lon="-13.50133">
        <ele>302.8</ele>
        <time>2021-07-03 14:46:29</time>
      </trkpt>
      <trkpt lat="29.15083" lon="-13.50131">
        <ele>303.2</ele>
        <time>2021-07-03 14:46:30</time>
      </trkpt>
      <trkpt lat="29.15082" lon="-13.50129">
        <ele>303.6</ele>
        <time>2021-07-03 14:46:31</time>
      </trkpt>
      <trkpt lat="29.1508" lon="-13.50127">
        <ele>304</ele>
        <time>2021-07-03 14:46:32</time>
      </trkpt>
      <trkpt lat="29.15078" lon="-13.50124">
        <ele>304.2</ele>
        <time>2021-07-03 14:46:33</time>
      </trkpt>
      <trkpt lat="29.15077" lon="-13.50122">
        <ele>304.6</ele>
        <time>2021-07-03 14:46:34</time>
      </trkpt>
      <trkpt lat="29.15076" lon="-13.50119">
        <ele>304.8</ele>
        <time>2021-07-03 14:46:35</time>
      </trkpt>
      <trkpt lat="29.15075" lon="-13.50117">
        <ele>305</ele>
        <time>2021-07-03 14:46:36</time>
      </trkpt>
      <trkpt lat="29.15074" lon="-13.50114">
        <ele>305.2</ele>
        <time>2021-07-03 14:46:37</time>
      </trkpt>
      <trkpt lat="29.15073" lon="-13.50111">
        <ele>305.6</ele>
        <time>2021-07-03 14:46:38</time>
      </trkpt>
      <trkpt lat="29.15072" lon="-13.50109">
        <ele>305.6</ele>
        <time>2021-07-03 14:46:39</time>
      </trkpt>
      <trkpt lat="29.1507" lon="-13.50107">
        <ele>306</ele>
        <time>2021-07-03 14:46:40</time>
      </trkpt>
      <trkpt lat="29.15069" lon="-13.50105">
        <ele>306</ele>
        <time>2021-07-03 14:46:41</time>
      </trkpt>
      <trkpt lat="29.15067" lon="-13.50102">
        <ele>306.4</ele>
        <time>2021-07-03 14:46:42</time>
      </trkpt>
      <trkpt lat="29.15066" lon="-13.501">
        <ele>306.4</ele>
        <time>2021-07-03 14:46:43</time>
      </trkpt>
      <trkpt lat="29.15064" lon="-13.50098">
        <ele>306.6</ele>
        <time>2021-07-03 14:46:44</time>
      </trkpt>
      <trkpt lat="29.15062" lon="-13.50096">
        <ele>306.8</ele>
        <time>2021-07-03 14:46:45</time>
      </trkpt>
      <trkpt lat="29.15061" lon="-13.50095">
        <ele>306.8</ele>
        <time>2021-07-03 14:46:46</time>
      </trkpt>
      <trkpt lat="29.15059" lon="-13.50092">
        <ele>307.2</ele>
        <time>2021-07-03 14:46:47</time>
      </trkpt>
      <trkpt lat="29.15058" lon="-13.5009">
        <ele>307.4</ele>
        <time>2021-07-03 14:46:48</time>
      </trkpt>
      <trkpt lat="29.15056" lon="-13.50088">
        <ele>307.8</ele>
        <time>2021-07-03 14:46:49</time>
      </trkpt>
      <trkpt lat="29.15055" lon="-13.50086">
        <ele>308</ele>
        <time>2021-07-03 14:46:50</time>
      </trkpt>
      <trkpt lat="29.15053" lon="-13.50083">
        <ele>308.2</ele>
        <time>2021-07-03 14:46:51</time>
      </trkpt>
      <trkpt lat="29.15051" lon="-13.50082">
        <ele>308.4</ele>
        <time>2021-07-03 14:46:52</time>
      </trkpt>
      <trkpt lat="29.15049" lon="-13.5008">
        <ele>308.6</ele>
        <time>2021-07-03 14:46:53</time>
      </trkpt>
      <trkpt lat="29.15047" lon="-13.50078">
        <ele>308.6</ele>
        <time>2021-07-03 14:46:54</time>
      </trkpt>
      <trkpt lat="29.15044" lon="-13.50076">
        <ele>309</ele>
        <time>2021-07-03 14:46:55</time>
      </trkpt>
      <trkpt lat="29.15042" lon="-13.50074">
        <ele>309</ele>
        <time>2021-07-03 14:46:56</time>
      </trkpt>
      <trkpt lat="29.1504" lon="-13.50071">
        <ele>309.4</ele>
        <time>2021-07-03 14:46:57</time>
      </trkpt>
      <trkpt lat="29.15038" lon="-13.5007">
        <ele>309.4</ele>
        <time>2021-07-03 14:46:58</time>
      </trkpt>
      <trkpt lat="29.15036" lon="-13.50068">
        <ele>309.6</ele>
        <time>2021-07-03 14:46:59</time>
      </trkpt>
      <trkpt lat="29.15034" lon="-13.50066">
        <ele>309.6</ele>
        <time>2021-07-03 14:47:00</time>
      </trkpt>
      <trkpt lat="29.15032" lon="-13.50065">
        <ele>309.6</ele>
        <time>2021-07-03 14:47:01</time>
      </trkpt>
      <trkpt lat="29.1503" lon="-13.50064">
        <ele>309.6</ele>
        <time>2021-07-03 14:47:02</time>
      </trkpt>
      <trkpt lat="29.15028" lon="-13.50062">
        <ele>309.6</ele>
        <time>2021-07-03 14:47:03</time>
      </trkpt>
      <trkpt lat="29.15025" lon="-13.50061">
        <ele>309.6</ele>
        <time>2021-07-03 14:47:04</time>
      </trkpt>
      <trkpt lat="29.15023" lon="-13.5006">
        <ele>309.6</ele>
        <time>2021-07-03 14:47:05</time>
      </trkpt>
      <trkpt lat="29.15021" lon="-13.50059">
        <ele>309.6</ele>
        <time>2021-07-03 14:47:06</time>
      </trkpt>
      <trkpt lat="29.15019" lon="-13.50059">
        <ele>309.6</ele>
        <time>2021-07-03 14:47:07</time>
      </trkpt>
      <trkpt lat="29.15018" lon="-13.50058">
        <ele>309.6</ele>
        <time>2021-07-03 14:47:08</time>
      </trkpt>
      <trkpt lat="29.15017" lon="-13.50058">
        <ele>309.6</ele>
        <time>2021-07-03 14:47:09</time>
      </trkpt>
      <trkpt lat="29.15017" lon="-13.50058">
        <ele>309.6</ele>
        <time>2021-07-03 14:47:10</time>
      </trkpt>
      <trkpt lat="29.15017" lon="-13.50059">
        <ele>309.6</ele>
        <time>2021-07-03 14:47:11</time>
      </trkpt>
      <trkpt lat="29.15017" lon="-13.50058">
        <ele>308.8</ele>
        <time>2021-07-03 14:47:12</time>
      </trkpt>
      <trkpt lat="29.15016" lon="-13.50057">
        <ele>308.8</ele>
        <time>2021-07-03 14:47:13</time>
      </trkpt>
      <trkpt lat="29.15015" lon="-13.50056">
        <ele>308.8</ele>
        <time>2021-07-03 14:47:14</time>
      </trkpt>
      <trkpt lat="29.15014" lon="-13.50056">
        <ele>308.8</ele>
        <time>2021-07-03 14:47:15</time>
      </trkpt>
      <trkpt lat="29.15014" lon="-13.50056">
        <ele>308.8</ele>
        <time>2021-07-03 14:47:16</time>
      </trkpt>
      <trkpt lat="29.15014" lon="-13.50056">
        <ele>308.8</ele>
        <time>2021-07-03 14:47:17</time>
      </trkpt>
      <trkpt lat="29.15014" lon="-13.50056">
        <ele>308.8</ele>
        <time>2021-07-03 14:47:18</time>
      </trkpt>
      <trkpt lat="29.15012" lon="-13.50056">
        <ele>309.4</ele>
        <time>2021-07-03 14:47:19</time>
      </trkpt>
      <trkpt lat="29.1501" lon="-13.50056">
        <ele>309.4</ele>
        <time>2021-07-03 14:47:20</time>
      </trkpt>
      <trkpt lat="29.15007" lon="-13.50056">
        <ele>309.4</ele>
        <time>2021-07-03 14:47:21</time>
      </trkpt>
      <trkpt lat="29.15004" lon="-13.50056">
        <ele>309.4</ele>
        <time>2021-07-03 14:47:22</time>
      </trkpt>
      <trkpt lat="29.15001" lon="-13.50056">
        <ele>309.4</ele>
        <time>2021-07-03 14:47:23</time>
      </trkpt>
      <trkpt lat="29.14997" lon="-13.50056">
        <ele>309.4</ele>
        <time>2021-07-03 14:47:24</time>
      </trkpt>
      <trkpt lat="29.14994" lon="-13.50055">
        <ele>309.4</ele>
        <time>2021-07-03 14:47:25</time>
      </trkpt>
      <trkpt lat="29.1499" lon="-13.50055">
        <ele>309.2</ele>
        <time>2021-07-03 14:47:26</time>
      </trkpt>
      <trkpt lat="29.14986" lon="-13.50054">
        <ele>309.2</ele>
        <time>2021-07-03 14:47:27</time>
      </trkpt>
      <trkpt lat="29.14981" lon="-13.50054">
        <ele>309</ele>
        <time>2021-07-03 14:47:28</time>
      </trkpt>
      <trkpt lat="29.14978" lon="-13.50053">
        <ele>309</ele>
        <time>2021-07-03 14:47:29</time>
      </trkpt>
      <trkpt lat="29.14975" lon="-13.50053">
        <ele>309</ele>
        <time>2021-07-03 14:47:30</time>
      </trkpt>
      <trkpt lat="29.14972" lon="-13.50053">
        <ele>308.4</ele>
        <time>2021-07-03 14:47:31</time>
      </trkpt>
      <trkpt lat="29.14969" lon="-13.50053">
        <ele>308.2</ele>
        <time>2021-07-03 14:47:32</time>
      </trkpt>
      <trkpt lat="29.14966" lon="-13.50053">
        <ele>308</ele>
        <time>2021-07-03 14:47:33</time>
      </trkpt>
      <trkpt lat="29.14962" lon="-13.50053">
        <ele>308</ele>
        <time>2021-07-03 14:47:34</time>
      </trkpt>
      <trkpt lat="29.1496" lon="-13.50053">
        <ele>307.8</ele>
        <time>2021-07-03 14:47:35</time>
      </trkpt>
      <trkpt lat="29.14959" lon="-13.50053">
        <ele>307.8</ele>
        <time>2021-07-03 14:47:36</time>
      </trkpt>
      <trkpt lat="29.14958" lon="-13.50053">
        <ele>307.4</ele>
        <time>2021-07-03 14:47:37</time>
      </trkpt>
      <trkpt lat="29.14958" lon="-13.50053">
        <ele>307.4</ele>
        <time>2021-07-03 14:47:38</time>
      </trkpt>
      <trkpt lat="29.14959" lon="-13.50053">
        <ele>307.4</ele>
        <time>2021-07-03 14:47:39</time>
      </trkpt>
      <trkpt lat="29.14959" lon="-13.50053">
        <ele>307.4</ele>
        <time>2021-07-03 14:47:40</time>
      </trkpt>
      <trkpt lat="29.14956" lon="-13.50053">
        <ele>307</ele>
        <time>2021-07-03 14:47:41</time>
      </trkpt>
      <trkpt lat="29.14954" lon="-13.50054">
        <ele>307</ele>
        <time>2021-07-03 14:47:42</time>
      </trkpt>
      <trkpt lat="29.14951" lon="-13.50055">
        <ele>307</ele>
        <time>2021-07-03 14:47:43</time>
      </trkpt>
      <trkpt lat="29.14948" lon="-13.50056">
        <ele>307</ele>
        <time>2021-07-03 14:47:44</time>
      </trkpt>
      <trkpt lat="29.14945" lon="-13.50057">
        <ele>307</ele>
        <time>2021-07-03 14:47:45</time>
      </trkpt>
      <trkpt lat="29.14941" lon="-13.50057">
        <ele>307</ele>
        <time>2021-07-03 14:47:46</time>
      </trkpt>
      <trkpt lat="29.14938" lon="-13.50058">
        <ele>307</ele>
        <time>2021-07-03 14:47:47</time>
      </trkpt>
      <trkpt lat="29.14935" lon="-13.50059">
        <ele>307</ele>
        <time>2021-07-03 14:47:48</time>
      </trkpt>
      <trkpt lat="29.14931" lon="-13.5006">
        <ele>307</ele>
        <time>2021-07-03 14:47:49</time>
      </trkpt>
      <trkpt lat="29.14927" lon="-13.50061">
        <ele>307</ele>
        <time>2021-07-03 14:47:50</time>
      </trkpt>
      <trkpt lat="29.14923" lon="-13.50061">
        <ele>307</ele>
        <time>2021-07-03 14:47:51</time>
      </trkpt>
      <trkpt lat="29.14918" lon="-13.50063">
        <ele>307</ele>
        <time>2021-07-03 14:47:52</time>
      </trkpt>
      <trkpt lat="29.14913" lon="-13.50064">
        <ele>307</ele>
        <time>2021-07-03 14:47:53</time>
      </trkpt>
      <trkpt lat="29.14908" lon="-13.50065">
        <ele>306.8</ele>
        <time>2021-07-03 14:47:54</time>
      </trkpt>
      <trkpt lat="29.14903" lon="-13.50067">
        <ele>306.6</ele>
        <time>2021-07-03 14:47:55</time>
      </trkpt>
      <trkpt lat="29.14897" lon="-13.50069">
        <ele>306.6</ele>
        <time>2021-07-03 14:47:56</time>
      </trkpt>
      <trkpt lat="29.14892" lon="-13.5007">
        <ele>306.2</ele>
        <time>2021-07-03 14:48:16</time>
      </trkpt>
      <trkpt lat="29.14887" lon="-13.50072">
        <ele>306.2</ele>
        <time>2021-07-03 14:48:17</time>
      </trkpt>
      <trkpt lat="29.14882" lon="-13.50074">
        <ele>306</ele>
        <time>2021-07-03 14:48:18</time>
      </trkpt>
      <trkpt lat="29.14877" lon="-13.50076">
        <ele>305.6</ele>
        <time>2021-07-03 14:48:19</time>
      </trkpt>
      <trkpt lat="29.14873" lon="-13.50077">
        <ele>305.4</ele>
        <time>2021-07-03 14:48:20</time>
      </trkpt>
      <trkpt lat="29.14868" lon="-13.5008">
        <ele>305.4</ele>
        <time>2021-07-03 14:48:21</time>
      </trkpt>
      <trkpt lat="29.14864" lon="-13.50082">
        <ele>305</ele>
        <time>2021-07-03 14:48:22</time>
      </trkpt>
      <trkpt lat="29.1486" lon="-13.50083">
        <ele>304.6</ele>
        <time>2021-07-03 14:48:43</time>
      </trkpt>
      <trkpt lat="29.14856" lon="-13.50085">
        <ele>304.4</ele>
        <time>2021-07-03 14:48:44</time>
      </trkpt>
      <trkpt lat="29.14853" lon="-13.50086">
        <ele>305</ele>
        <time>2021-07-03 14:48:45</time>
      </trkpt>
      <trkpt lat="29.14851" lon="-13.50086">
        <ele>304.2</ele>
        <time>2021-07-03 14:48:46</time>
      </trkpt>
      <trkpt lat="29.14848" lon="-13.50087">
        <ele>303.6</ele>
        <time>2021-07-03 14:48:47</time>
      </trkpt>
      <trkpt lat="29.14844" lon="-13.50088">
        <ele>303</ele>
        <time>2021-07-03 14:48:48</time>
      </trkpt>
      <trkpt lat="29.14839" lon="-13.5009">
        <ele>302.6</ele>
        <time>2021-07-03 14:48:49</time>
      </trkpt>
      <trkpt lat="29.14834" lon="-13.50092">
        <ele>302.2</ele>
        <time>2021-07-03 14:48:50</time>
      </trkpt>
      <trkpt lat="29.14828" lon="-13.50094">
        <ele>301.8</ele>
        <time>2021-07-03 14:48:51</time>
      </trkpt>
      <trkpt lat="29.14821" lon="-13.50095">
        <ele>301.4</ele>
        <time>2021-07-03 14:48:52</time>
      </trkpt>
      <trkpt lat="29.14815" lon="-13.50096">
        <ele>301</ele>
        <time>2021-07-03 14:48:53</time>
      </trkpt>
      <trkpt lat="29.1481" lon="-13.50098">
        <ele>300.6</ele>
        <time>2021-07-03 14:48:54</time>
      </trkpt>
      <trkpt lat="29.14805" lon="-13.501">
        <ele>300.2</ele>
        <time>2021-07-03 14:48:55</time>
      </trkpt>
      <trkpt lat="29.148" lon="-13.50102">
        <ele>300</ele>
        <time>2021-07-03 14:48:56</time>
      </trkpt>
      <trkpt lat="29.14795" lon="-13.50103">
        <ele>299.6</ele>
        <time>2021-07-03 14:48:57</time>
      </trkpt>
      <trkpt lat="29.1479" lon="-13.50105">
        <ele>299.2</ele>
        <time>2021-07-03 14:48:58</time>
      </trkpt>
      <trkpt lat="29.14785" lon="-13.50106">
        <ele>299</ele>
        <time>2021-07-03 14:48:59</time>
      </trkpt>
      <trkpt lat="29.1478" lon="-13.50107">
        <ele>298.6</ele>
        <time>2021-07-03 14:49:00</time>
      </trkpt>
      <trkpt lat="29.14775" lon="-13.50108">
        <ele>298.2</ele>
        <time>2021-07-03 14:49:01</time>
      </trkpt>
      <trkpt lat="29.14771" lon="-13.5011">
        <ele>297.8</ele>
        <time>2021-07-03 14:49:02</time>
      </trkpt>
      <trkpt lat="29.14766" lon="-13.50111">
        <ele>297.6</ele>
        <time>2021-07-03 14:49:03</time>
      </trkpt>
      <trkpt lat="29.14762" lon="-13.50111">
        <ele>297.6</ele>
        <time>2021-07-03 14:49:04</time>
      </trkpt>
      <trkpt lat="29.14757" lon="-13.50112">
        <ele>297.2</ele>
        <time>2021-07-03 14:49:30</time>
      </trkpt>
      <trkpt lat="29.14753" lon="-13.50112">
        <ele>297</ele>
        <time>2021-07-03 14:49:31</time>
      </trkpt>
      <trkpt lat="29.14748" lon="-13.50113">
        <ele>296.8</ele>
        <time>2021-07-03 14:49:32</time>
      </trkpt>
      <trkpt lat="29.14743" lon="-13.50115">
        <ele>296.6</ele>
        <time>2021-07-03 14:49:33</time>
      </trkpt>
      <trkpt lat="29.14737" lon="-13.50116">
        <ele>296.2</ele>
        <time>2021-07-03 14:49:34</time>
      </trkpt>
      <trkpt lat="29.14731" lon="-13.50118">
        <ele>295.8</ele>
        <time>2021-07-03 14:49:35</time>
      </trkpt>
      <trkpt lat="29.14725" lon="-13.50119">
        <ele>295.4</ele>
        <time>2021-07-03 14:49:36</time>
      </trkpt>
      <trkpt lat="29.1472" lon="-13.5012">
        <ele>295</ele>
        <time>2021-07-03 14:49:37</time>
      </trkpt>
      <trkpt lat="29.14715" lon="-13.50122">
        <ele>294.4</ele>
        <time>2021-07-03 14:49:38</time>
      </trkpt>
      <trkpt lat="29.14709" lon="-13.50123">
        <ele>293.8</ele>
        <time>2021-07-03 14:49:39</time>
      </trkpt>
      <trkpt lat="29.14705" lon="-13.50124">
        <ele>293.6</ele>
        <time>2021-07-03 14:49:40</time>
      </trkpt>
      <trkpt lat="29.14702" lon="-13.50125">
        <ele>293</ele>
        <time>2021-07-03 14:49:41</time>
      </trkpt>
      <trkpt lat="29.14697" lon="-13.50126">
        <ele>292.6</ele>
        <time>2021-07-03 14:49:42</time>
      </trkpt>
      <trkpt lat="29.14693" lon="-13.50127">
        <ele>292.2</ele>
        <time>2021-07-03 14:49:43</time>
      </trkpt>
      <trkpt lat="29.14688" lon="-13.50128">
        <ele>291.6</ele>
        <time>2021-07-03 14:49:44</time>
      </trkpt>
      <trkpt lat="29.14682" lon="-13.5013">
        <ele>291.2</ele>
        <time>2021-07-03 14:49:45</time>
      </trkpt>
      <trkpt lat="29.14676" lon="-13.50131">
        <ele>290.8</ele>
        <time>2021-07-03 14:49:46</time>
      </trkpt>
      <trkpt lat="29.1467" lon="-13.50132">
        <ele>290.4</ele>
        <time>2021-07-03 14:49:47</time>
      </trkpt>
      <trkpt lat="29.14663" lon="-13.50133">
        <ele>290</ele>
        <time>2021-07-03 14:49:48</time>
      </trkpt>
      <trkpt lat="29.14657" lon="-13.50135">
        <ele>289.6</ele>
        <time>2021-07-03 14:49:49</time>
      </trkpt>
      <trkpt lat="29.1465" lon="-13.50136">
        <ele>289.4</ele>
        <time>2021-07-03 14:49:50</time>
      </trkpt>
      <trkpt lat="29.14643" lon="-13.50138">
        <ele>289</ele>
        <time>2021-07-03 14:49:51</time>
      </trkpt>
      <trkpt lat="29.14637" lon="-13.50139">
        <ele>288.4</ele>
        <time>2021-07-03 14:49:52</time>
      </trkpt>
      <trkpt lat="29.14631" lon="-13.5014">
        <ele>288</ele>
        <time>2021-07-03 14:49:53</time>
      </trkpt>
      <trkpt lat="29.14625" lon="-13.50141">
        <ele>287.6</ele>
        <time>2021-07-03 14:49:54</time>
      </trkpt>
      <trkpt lat="29.14619" lon="-13.50143">
        <ele>287.2</ele>
        <time>2021-07-03 14:49:55</time>
      </trkpt>
      <trkpt lat="29.14614" lon="-13.50145">
        <ele>286.8</ele>
        <time>2021-07-03 14:49:56</time>
      </trkpt>
      <trkpt lat="29.14608" lon="-13.50146">
        <ele>286.2</ele>
        <time>2021-07-03 14:49:57</time>
      </trkpt>
      <trkpt lat="29.14603" lon="-13.50147">
        <ele>285.8</ele>
        <time>2021-07-03 14:49:58</time>
      </trkpt>
      <trkpt lat="29.14598" lon="-13.50148">
        <ele>285.4</ele>
        <time>2021-07-03 14:49:59</time>
      </trkpt>
      <trkpt lat="29.14594" lon="-13.50149">
        <ele>284.8</ele>
        <time>2021-07-03 14:50:00</time>
      </trkpt>
      <trkpt lat="29.14591" lon="-13.5015">
        <ele>284.4</ele>
        <time>2021-07-03 14:50:01</time>
      </trkpt>
      <trkpt lat="29.14588" lon="-13.50151">
        <ele>283.8</ele>
        <time>2021-07-03 14:50:02</time>
      </trkpt>
      <trkpt lat="29.14586" lon="-13.50153">
        <ele>283.4</ele>
        <time>2021-07-03 14:50:03</time>
      </trkpt>
      <trkpt lat="29.14586" lon="-13.50157">
        <ele>283</ele>
        <time>2021-07-03 14:50:04</time>
      </trkpt>
      <trkpt lat="29.14584" lon="-13.5016">
        <ele>282.8</ele>
        <time>2021-07-03 14:50:05</time>
      </trkpt>
      <trkpt lat="29.14582" lon="-13.50164">
        <ele>282.6</ele>
        <time>2021-07-03 14:50:06</time>
      </trkpt>
      <trkpt lat="29.1458" lon="-13.50167">
        <ele>282.6</ele>
        <time>2021-07-03 14:50:07</time>
      </trkpt>
      <trkpt lat="29.14579" lon="-13.50171">
        <ele>282.6</ele>
        <time>2021-07-03 14:50:08</time>
      </trkpt>
      <trkpt lat="29.14578" lon="-13.50175">
        <ele>282.6</ele>
        <time>2021-07-03 14:50:09</time>
      </trkpt>
      <trkpt lat="29.14576" lon="-13.50179">
        <ele>282.6</ele>
        <time>2021-07-03 14:50:10</time>
      </trkpt>
      <trkpt lat="29.14575" lon="-13.50183">
        <ele>282.6</ele>
        <time>2021-07-03 14:50:11</time>
      </trkpt>
      <trkpt lat="29.14574" lon="-13.50187">
        <ele>282.8</ele>
        <time>2021-07-03 14:50:12</time>
      </trkpt>
      <trkpt lat="29.14572" lon="-13.50192">
        <ele>282.8</ele>
        <time>2021-07-03 14:50:13</time>
      </trkpt>
      <trkpt lat="29.14571" lon="-13.50196">
        <ele>283.2</ele>
        <time>2021-07-03 14:50:14</time>
      </trkpt>
      <trkpt lat="29.1457" lon="-13.50201">
        <ele>283.2</ele>
        <time>2021-07-03 14:50:15</time>
      </trkpt>
      <trkpt lat="29.14569" lon="-13.50205">
        <ele>283.2</ele>
        <time>2021-07-03 14:50:16</time>
      </trkpt>
      <trkpt lat="29.14568" lon="-13.5021">
        <ele>283.4</ele>
        <time>2021-07-03 14:50:17</time>
      </trkpt>
      <trkpt lat="29.14566" lon="-13.50214">
        <ele>283.4</ele>
        <time>2021-07-03 14:50:18</time>
      </trkpt>
      <trkpt lat="29.14565" lon="-13.50219">
        <ele>283.4</ele>
        <time>2021-07-03 14:50:19</time>
      </trkpt>
      <trkpt lat="29.14564" lon="-13.50223">
        <ele>283.4</ele>
        <time>2021-07-03 14:50:20</time>
      </trkpt>
      <trkpt lat="29.14563" lon="-13.50228">
        <ele>283.6</ele>
        <time>2021-07-03 14:50:21</time>
      </trkpt>
      <trkpt lat="29.14562" lon="-13.50232">
        <ele>283.6</ele>
        <time>2021-07-03 14:50:22</time>
      </trkpt>
      <trkpt lat="29.14561" lon="-13.50237">
        <ele>283.6</ele>
        <time>2021-07-03 14:50:23</time>
      </trkpt>
      <trkpt lat="29.1456" lon="-13.50242">
        <ele>283.8</ele>
        <time>2021-07-03 14:50:24</time>
      </trkpt>
      <trkpt lat="29.14559" lon="-13.50246">
        <ele>283.8</ele>
        <time>2021-07-03 14:50:25</time>
      </trkpt>
      <trkpt lat="29.14558" lon="-13.50251">
        <ele>283.8</ele>
        <time>2021-07-03 14:50:26</time>
      </trkpt>
      <trkpt lat="29.14557" lon="-13.50256">
        <ele>284.2</ele>
        <time>2021-07-03 14:50:27</time>
      </trkpt>
      <trkpt lat="29.14556" lon="-13.50261">
        <ele>284.2</ele>
        <time>2021-07-03 14:50:28</time>
      </trkpt>
      <trkpt lat="29.14555" lon="-13.50265">
        <ele>284.4</ele>
        <time>2021-07-03 14:50:29</time>
      </trkpt>
      <trkpt lat="29.14554" lon="-13.5027">
        <ele>284.4</ele>
        <time>2021-07-03 14:50:30</time>
      </trkpt>
      <trkpt lat="29.14552" lon="-13.50274">
        <ele>284.6</ele>
        <time>2021-07-03 14:50:31</time>
      </trkpt>
      <trkpt lat="29.1455" lon="-13.50278">
        <ele>284.6</ele>
        <time>2021-07-03 14:50:32</time>
      </trkpt>
      <trkpt lat="29.14548" lon="-13.50282">
        <ele>285</ele>
        <time>2021-07-03 14:50:33</time>
      </trkpt>
      <trkpt lat="29.14546" lon="-13.50286">
        <ele>285</ele>
        <time>2021-07-03 14:50:34</time>
      </trkpt>
      <trkpt lat="29.14543" lon="-13.5029">
        <ele>285.2</ele>
        <time>2021-07-03 14:50:35</time>
      </trkpt>
      <trkpt lat="29.14541" lon="-13.50294">
        <ele>285.2</ele>
        <time>2021-07-03 14:50:36</time>
      </trkpt>
      <trkpt lat="29.14539" lon="-13.50298">
        <ele>285.4</ele>
        <time>2021-07-03 14:50:37</time>
      </trkpt>
      <trkpt lat="29.14537" lon="-13.50302">
        <ele>285.4</ele>
        <time>2021-07-03 14:50:38</time>
      </trkpt>
      <trkpt lat="29.14534" lon="-13.50306">
        <ele>285.6</ele>
        <time>2021-07-03 14:50:39</time>
      </trkpt>
      <trkpt lat="29.14533" lon="-13.5031">
        <ele>285.6</ele>
        <time>2021-07-03 14:50:40</time>
      </trkpt>
      <trkpt lat="29.14531" lon="-13.50314">
        <ele>286</ele>
        <time>2021-07-03 14:50:41</time>
      </trkpt>
      <trkpt lat="29.14529" lon="-13.50318">
        <ele>286</ele>
        <time>2021-07-03 14:50:42</time>
      </trkpt>
      <trkpt lat="29.14528" lon="-13.50321">
        <ele>286.4</ele>
        <time>2021-07-03 14:50:43</time>
      </trkpt>
      <trkpt lat="29.14526" lon="-13.50325">
        <ele>286.6</ele>
        <time>2021-07-03 14:50:44</time>
      </trkpt>
      <trkpt lat="29.14524" lon="-13.50328">
        <ele>286.8</ele>
        <time>2021-07-03 14:50:45</time>
      </trkpt>
      <trkpt lat="29.14523" lon="-13.50331">
        <ele>286.8</ele>
        <time>2021-07-03 14:50:46</time>
      </trkpt>
      <trkpt lat="29.14521" lon="-13.50334">
        <ele>287.2</ele>
        <time>2021-07-03 14:50:47</time>
      </trkpt>
      <trkpt lat="29.14519" lon="-13.50338">
        <ele>287.4</ele>
        <time>2021-07-03 14:50:48</time>
      </trkpt>
      <trkpt lat="29.14517" lon="-13.50341">
        <ele>287.4</ele>
        <time>2021-07-03 14:50:49</time>
      </trkpt>
      <trkpt lat="29.14515" lon="-13.50345">
        <ele>287.8</ele>
        <time>2021-07-03 14:50:50</time>
      </trkpt>
      <trkpt lat="29.14514" lon="-13.50348">
        <ele>287.8</ele>
        <time>2021-07-03 14:50:51</time>
      </trkpt>
      <trkpt lat="29.14512" lon="-13.50352">
        <ele>288</ele>
        <time>2021-07-03 14:50:52</time>
      </trkpt>
      <trkpt lat="29.1451" lon="-13.50355">
        <ele>288</ele>
        <time>2021-07-03 14:50:53</time>
      </trkpt>
      <trkpt lat="29.14508" lon="-13.50359">
        <ele>288</ele>
        <time>2021-07-03 14:50:54</time>
      </trkpt>
      <trkpt lat="29.14506" lon="-13.50362">
        <ele>288</ele>
        <time>2021-07-03 14:50:55</time>
      </trkpt>
      <trkpt lat="29.14504" lon="-13.50366">
        <ele>288</ele>
        <time>2021-07-03 14:50:56</time>
      </trkpt>
      <trkpt lat="29.14502" lon="-13.50369">
        <ele>288.4</ele>
        <time>2021-07-03 14:50:57</time>
      </trkpt>
      <trkpt lat="29.14499" lon="-13.50372">
        <ele>288.4</ele>
        <time>2021-07-03 14:50:58</time>
      </trkpt>
      <trkpt lat="29.14496" lon="-13.50375">
        <ele>288.4</ele>
        <time>2021-07-03 14:50:59</time>
      </trkpt>
      <trkpt lat="29.14494" lon="-13.50378">
        <ele>288.4</ele>
        <time>2021-07-03 14:51:00</time>
      </trkpt>
      <trkpt lat="29.14492" lon="-13.50381">
        <ele>288.6</ele>
        <time>2021-07-03 14:51:01</time>
      </trkpt>
      <trkpt lat="29.14489" lon="-13.50385">
        <ele>288.6</ele>
        <time>2021-07-03 14:51:02</time>
      </trkpt>
      <trkpt lat="29.14487" lon="-13.50388">
        <ele>288.8</ele>
        <time>2021-07-03 14:51:03</time>
      </trkpt>
      <trkpt lat="29.14485" lon="-13.50391">
        <ele>288.8</ele>
        <time>2021-07-03 14:51:04</time>
      </trkpt>
      <trkpt lat="29.14483" lon="-13.50395">
        <ele>289.2</ele>
        <time>2021-07-03 14:51:05</time>
      </trkpt>
      <trkpt lat="29.14481" lon="-13.50398">
        <ele>289.2</ele>
        <time>2021-07-03 14:51:06</time>
      </trkpt>
      <trkpt lat="29.1448" lon="-13.504">
        <ele>289.6</ele>
        <time>2021-07-03 14:51:07</time>
      </trkpt>
      <trkpt lat="29.14478" lon="-13.50403">
        <ele>289.8</ele>
        <time>2021-07-03 14:51:08</time>
      </trkpt>
      <trkpt lat="29.14477" lon="-13.50406">
        <ele>289.8</ele>
        <time>2021-07-03 14:51:09</time>
      </trkpt>
      <trkpt lat="29.14476" lon="-13.50409">
        <ele>290</ele>
        <time>2021-07-03 14:51:10</time>
      </trkpt>
      <trkpt lat="29.14475" lon="-13.50412">
        <ele>290</ele>
        <time>2021-07-03 14:51:11</time>
      </trkpt>
      <trkpt lat="29.14473" lon="-13.50415">
        <ele>290.4</ele>
        <time>2021-07-03 14:51:12</time>
      </trkpt>
      <trkpt lat="29.14472" lon="-13.50418">
        <ele>290.4</ele>
        <time>2021-07-03 14:51:13</time>
      </trkpt>
      <trkpt lat="29.1447" lon="-13.50421">
        <ele>290.6</ele>
        <time>2021-07-03 14:51:14</time>
      </trkpt>
      <trkpt lat="29.14469" lon="-13.50424">
        <ele>290.6</ele>
        <time>2021-07-03 14:51:15</time>
      </trkpt>
      <trkpt lat="29.14468" lon="-13.50427">
        <ele>291.2</ele>
        <time>2021-07-03 14:51:16</time>
      </trkpt>
      <trkpt lat="29.14467" lon="-13.5043">
        <ele>291.4</ele>
        <time>2021-07-03 14:51:17</time>
      </trkpt>
      <trkpt lat="29.14466" lon="-13.50433">
        <ele>291.8</ele>
        <time>2021-07-03 14:51:18</time>
      </trkpt>
      <trkpt lat="29.14465" lon="-13.50436">
        <ele>292</ele>
        <time>2021-07-03 14:51:19</time>
      </trkpt>
      <trkpt lat="29.14464" lon="-13.50439">
        <ele>292.4</ele>
        <time>2021-07-03 14:51:20</time>
      </trkpt>
      <trkpt lat="29.14463" lon="-13.50442">
        <ele>292.6</ele>
        <time>2021-07-03 14:51:21</time>
      </trkpt>
      <trkpt lat="29.14462" lon="-13.50445">
        <ele>292.6</ele>
        <time>2021-07-03 14:51:22</time>
      </trkpt>
      <trkpt lat="29.14461" lon="-13.50448">
        <ele>293</ele>
        <time>2021-07-03 14:51:23</time>
      </trkpt>
      <trkpt lat="29.1446" lon="-13.50451">
        <ele>293.4</ele>
        <time>2021-07-03 14:51:24</time>
      </trkpt>
      <trkpt lat="29.14458" lon="-13.50454">
        <ele>293.4</ele>
        <time>2021-07-03 14:51:25</time>
      </trkpt>
      <trkpt lat="29.14457" lon="-13.50457">
        <ele>293.6</ele>
        <time>2021-07-03 14:51:26</time>
      </trkpt>
      <trkpt lat="29.14456" lon="-13.5046">
        <ele>293.6</ele>
        <time>2021-07-03 14:51:27</time>
      </trkpt>
      <trkpt lat="29.14454" lon="-13.50463">
        <ele>294</ele>
        <time>2021-07-03 14:51:28</time>
      </trkpt>
      <trkpt lat="29.14453" lon="-13.50466">
        <ele>294</ele>
        <time>2021-07-03 14:51:29</time>
      </trkpt>
      <trkpt lat="29.14452" lon="-13.50468">
        <ele>294.2</ele>
        <time>2021-07-03 14:51:30</time>
      </trkpt>
      <trkpt lat="29.1445" lon="-13.50471">
        <ele>294.4</ele>
        <time>2021-07-03 14:51:31</time>
      </trkpt>
      <trkpt lat="29.14449" lon="-13.50474">
        <ele>294.4</ele>
        <time>2021-07-03 14:51:32</time>
      </trkpt>
      <trkpt lat="29.14448" lon="-13.50477">
        <ele>294.6</ele>
        <time>2021-07-03 14:51:33</time>
      </trkpt>
      <trkpt lat="29.14447" lon="-13.5048">
        <ele>294.6</ele>
        <time>2021-07-03 14:51:34</time>
      </trkpt>
      <trkpt lat="29.14445" lon="-13.50483">
        <ele>294.8</ele>
        <time>2021-07-03 14:51:35</time>
      </trkpt>
      <trkpt lat="29.14444" lon="-13.50486">
        <ele>295.2</ele>
        <time>2021-07-03 14:51:36</time>
      </trkpt>
      <trkpt lat="29.14443" lon="-13.50489">
        <ele>295.2</ele>
        <time>2021-07-03 14:51:37</time>
      </trkpt>
      <trkpt lat="29.14441" lon="-13.50492">
        <ele>295.4</ele>
        <time>2021-07-03 14:51:38</time>
      </trkpt>
      <trkpt lat="29.1444" lon="-13.50495">
        <ele>295.4</ele>
        <time>2021-07-03 14:51:39</time>
      </trkpt>
      <trkpt lat="29.14439" lon="-13.50498">
        <ele>295.4</ele>
        <time>2021-07-03 14:51:40</time>
      </trkpt>
      <trkpt lat="29.14438" lon="-13.50501">
        <ele>295.4</ele>
        <time>2021-07-03 14:51:41</time>
      </trkpt>
      <trkpt lat="29.14436" lon="-13.50504">
        <ele>295.4</ele>
        <time>2021-07-03 14:51:42</time>
      </trkpt>
      <trkpt lat="29.14435" lon="-13.50507">
        <ele>295.4</ele>
        <time>2021-07-03 14:51:43</time>
      </trkpt>
      <trkpt lat="29.14434" lon="-13.50511">
        <ele>295.4</ele>
        <time>2021-07-03 14:51:44</time>
      </trkpt>
      <trkpt lat="29.14432" lon="-13.50515">
        <ele>295.4</ele>
        <time>2021-07-03 14:51:45</time>
      </trkpt>
      <trkpt lat="29.1443" lon="-13.50519">
        <ele>295.2</ele>
        <time>2021-07-03 14:51:46</time>
      </trkpt>
      <trkpt lat="29.14428" lon="-13.50523">
        <ele>295.2</ele>
        <time>2021-07-03 14:51:47</time>
      </trkpt>
      <trkpt lat="29.14426" lon="-13.50527">
        <ele>295</ele>
        <time>2021-07-03 14:51:48</time>
      </trkpt>
      <trkpt lat="29.14425" lon="-13.5053">
        <ele>294.8</ele>
        <time>2021-07-03 14:51:49</time>
      </trkpt>
      <trkpt lat="29.14423" lon="-13.50537">
        <ele>294.8</ele>
        <time>2021-07-03 14:51:50</time>
      </trkpt>
      <trkpt lat="29.14422" lon="-13.50542">
        <ele>294.4</ele>
        <time>2021-07-03 14:51:51</time>
      </trkpt>
      <trkpt lat="29.14421" lon="-13.50549">
        <ele>294.2</ele>
        <time>2021-07-03 14:51:52</time>
      </trkpt>
      <trkpt lat="29.14421" lon="-13.50555">
        <ele>294.2</ele>
        <time>2021-07-03 14:51:53</time>
      </trkpt>
      <trkpt lat="29.14424" lon="-13.50561">
        <ele>294.2</ele>
        <time>2021-07-03 14:51:54</time>
      </trkpt>
      <trkpt lat="29.14425" lon="-13.50565">
        <ele>293.8</ele>
        <time>2021-07-03 14:51:55</time>
      </trkpt>
      <trkpt lat="29.14426" lon="-13.50571">
        <ele>293.8</ele>
        <time>2021-07-03 14:51:56</time>
      </trkpt>
      <trkpt lat="29.14426" lon="-13.50575">
        <ele>293.8</ele>
        <time>2021-07-03 14:51:57</time>
      </trkpt>
      <trkpt lat="29.14425" lon="-13.50579">
        <ele>293.6</ele>
        <time>2021-07-03 14:51:58</time>
      </trkpt>
      <trkpt lat="29.14423" lon="-13.50583">
        <ele>293.6</ele>
        <time>2021-07-03 14:51:59</time>
      </trkpt>
      <trkpt lat="29.14422" lon="-13.50585">
        <ele>293.6</ele>
        <time>2021-07-03 14:52:00</time>
      </trkpt>
      <trkpt lat="29.14421" lon="-13.50587">
        <ele>293.6</ele>
        <time>2021-07-03 14:52:01</time>
      </trkpt>
      <trkpt lat="29.14419" lon="-13.50588">
        <ele>293.6</ele>
        <time>2021-07-03 14:52:02</time>
      </trkpt>
      <trkpt lat="29.14417" lon="-13.50589">
        <ele>293.6</ele>
        <time>2021-07-03 14:52:03</time>
      </trkpt>
      <trkpt lat="29.14416" lon="-13.50591">
        <ele>293.6</ele>
        <time>2021-07-03 14:52:04</time>
      </trkpt>
      <trkpt lat="29.14414" lon="-13.50593">
        <ele>294</ele>
        <time>2021-07-03 14:52:05</time>
      </trkpt>
      <trkpt lat="29.14412" lon="-13.50594">
        <ele>294</ele>
        <time>2021-07-03 14:52:06</time>
      </trkpt>
      <trkpt lat="29.1441" lon="-13.50595">
        <ele>294.2</ele>
        <time>2021-07-03 14:52:07</time>
      </trkpt>
      <trkpt lat="29.14408" lon="-13.50597">
        <ele>294.4</ele>
        <time>2021-07-03 14:52:08</time>
      </trkpt>
      <trkpt lat="29.14406" lon="-13.50597">
        <ele>294.4</ele>
        <time>2021-07-03 14:52:09</time>
      </trkpt>
      <trkpt lat="29.14404" lon="-13.50598">
        <ele>294.8</ele>
        <time>2021-07-03 14:52:10</time>
      </trkpt>
      <trkpt lat="29.14402" lon="-13.50598">
        <ele>294.8</ele>
        <time>2021-07-03 14:52:11</time>
      </trkpt>
      <trkpt lat="29.144" lon="-13.506">
        <ele>295.2</ele>
        <time>2021-07-03 14:52:12</time>
      </trkpt>
      <trkpt lat="29.14398" lon="-13.50601">
        <ele>295.2</ele>
        <time>2021-07-03 14:52:13</time>
      </trkpt>
      <trkpt lat="29.14396" lon="-13.50603">
        <ele>295.4</ele>
        <time>2021-07-03 14:52:14</time>
      </trkpt>
      <trkpt lat="29.14394" lon="-13.50606">
        <ele>295.4</ele>
        <time>2021-07-03 14:52:15</time>
      </trkpt>
      <trkpt lat="29.14392" lon="-13.50608">
        <ele>295.6</ele>
        <time>2021-07-03 14:52:16</time>
      </trkpt>
      <trkpt lat="29.1439" lon="-13.5061">
        <ele>295.6</ele>
        <time>2021-07-03 14:52:17</time>
      </trkpt>
      <trkpt lat="29.14388" lon="-13.50612">
        <ele>295.6</ele>
        <time>2021-07-03 14:52:18</time>
      </trkpt>
      <trkpt lat="29.14386" lon="-13.50615">
        <ele>295.6</ele>
        <time>2021-07-03 14:52:19</time>
      </trkpt>
      <trkpt lat="29.14385" lon="-13.50617">
        <ele>295.8</ele>
        <time>2021-07-03 14:52:20</time>
      </trkpt>
      <trkpt lat="29.14383" lon="-13.5062">
        <ele>295.8</ele>
        <time>2021-07-03 14:52:21</time>
      </trkpt>
      <trkpt lat="29.14382" lon="-13.50623">
        <ele>296.2</ele>
        <time>2021-07-03 14:52:22</time>
      </trkpt>
      <trkpt lat="29.1438" lon="-13.50625">
        <ele>296.2</ele>
        <time>2021-07-03 14:52:23</time>
      </trkpt>
      <trkpt lat="29.14379" lon="-13.50628">
        <ele>296.4</ele>
        <time>2021-07-03 14:52:24</time>
      </trkpt>
      <trkpt lat="29.14379" lon="-13.50631">
        <ele>296.4</ele>
        <time>2021-07-03 14:52:25</time>
      </trkpt>
      <trkpt lat="29.14378" lon="-13.50634">
        <ele>296.8</ele>
        <time>2021-07-03 14:52:26</time>
      </trkpt>
      <trkpt lat="29.14378" lon="-13.50638">
        <ele>296.8</ele>
        <time>2021-07-03 14:52:27</time>
      </trkpt>
      <trkpt lat="29.14378" lon="-13.50641">
        <ele>297</ele>
        <time>2021-07-03 14:52:28</time>
      </trkpt>
      <trkpt lat="29.14379" lon="-13.50644">
        <ele>297</ele>
        <time>2021-07-03 14:52:29</time>
      </trkpt>
      <trkpt lat="29.14379" lon="-13.50648">
        <ele>297</ele>
        <time>2021-07-03 14:52:30</time>
      </trkpt>
      <trkpt lat="29.1438" lon="-13.50651">
        <ele>297.2</ele>
        <time>2021-07-03 14:52:31</time>
      </trkpt>
      <trkpt lat="29.1438" lon="-13.50655">
        <ele>297.2</ele>
        <time>2021-07-03 14:52:32</time>
      </trkpt>
      <trkpt lat="29.14381" lon="-13.50658">
        <ele>297.2</ele>
        <time>2021-07-03 14:52:33</time>
      </trkpt>
      <trkpt lat="29.14382" lon="-13.50661">
        <ele>297.6</ele>
        <time>2021-07-03 14:52:34</time>
      </trkpt>
      <trkpt lat="29.14383" lon="-13.50665">
        <ele>297.6</ele>
        <time>2021-07-03 14:52:35</time>
      </trkpt>
      <trkpt lat="29.14383" lon="-13.50668">
        <ele>297.8</ele>
        <time>2021-07-03 14:52:36</time>
      </trkpt>
      <trkpt lat="29.14384" lon="-13.50671">
        <ele>297.8</ele>
        <time>2021-07-03 14:52:37</time>
      </trkpt>
      <trkpt lat="29.14384" lon="-13.50674">
        <ele>298.2</ele>
        <time>2021-07-03 14:52:38</time>
      </trkpt>
      <trkpt lat="29.14384" lon="-13.50677">
        <ele>298.4</ele>
        <time>2021-07-03 14:52:39</time>
      </trkpt>
      <trkpt lat="29.14384" lon="-13.50681">
        <ele>298.4</ele>
        <time>2021-07-03 14:52:40</time>
      </trkpt>
      <trkpt lat="29.14384" lon="-13.50684">
        <ele>298.8</ele>
        <time>2021-07-03 14:52:41</time>
      </trkpt>
      <trkpt lat="29.14383" lon="-13.50687">
        <ele>298.8</ele>
        <time>2021-07-03 14:52:42</time>
      </trkpt>
      <trkpt lat="29.14383" lon="-13.5069">
        <ele>299</ele>
        <time>2021-07-03 14:52:43</time>
      </trkpt>
      <trkpt lat="29.14382" lon="-13.50694">
        <ele>299</ele>
        <time>2021-07-03 14:52:44</time>
      </trkpt>
      <trkpt lat="29.14382" lon="-13.50697">
        <ele>299.4</ele>
        <time>2021-07-03 14:52:45</time>
      </trkpt>
      <trkpt lat="29.14381" lon="-13.507">
        <ele>299.4</ele>
        <time>2021-07-03 14:52:46</time>
      </trkpt>
      <trkpt lat="29.14381" lon="-13.50703">
        <ele>299.8</ele>
        <time>2021-07-03 14:52:47</time>
      </trkpt>
      <trkpt lat="29.1438" lon="-13.50706">
        <ele>299.8</ele>
        <time>2021-07-03 14:52:48</time>
      </trkpt>
      <trkpt lat="29.1438" lon="-13.50709">
        <ele>300</ele>
        <time>2021-07-03 14:52:49</time>
      </trkpt>
      <trkpt lat="29.14379" lon="-13.50713">
        <ele>300</ele>
        <time>2021-07-03 14:52:50</time>
      </trkpt>
      <trkpt lat="29.14379" lon="-13.50716">
        <ele>300.2</ele>
        <time>2021-07-03 14:52:51</time>
      </trkpt>
      <trkpt lat="29.14379" lon="-13.50719">
        <ele>300.2</ele>
        <time>2021-07-03 14:52:52</time>
      </trkpt>
      <trkpt lat="29.14378" lon="-13.50722">
        <ele>300.6</ele>
        <time>2021-07-03 14:52:53</time>
      </trkpt>
      <trkpt lat="29.14378" lon="-13.50725">
        <ele>300.6</ele>
        <time>2021-07-03 14:52:54</time>
      </trkpt>
      <trkpt lat="29.14377" lon="-13.50729">
        <ele>300.6</ele>
        <time>2021-07-03 14:52:55</time>
      </trkpt>
      <trkpt lat="29.14377" lon="-13.50732">
        <ele>300.8</ele>
        <time>2021-07-03 14:52:56</time>
      </trkpt>
      <trkpt lat="29.14377" lon="-13.50735">
        <ele>300.8</ele>
        <time>2021-07-03 14:52:57</time>
      </trkpt>
      <trkpt lat="29.14376" lon="-13.50739">
        <ele>301.2</ele>
        <time>2021-07-03 14:52:58</time>
      </trkpt>
      <trkpt lat="29.14376" lon="-13.50742">
        <ele>301.2</ele>
        <time>2021-07-03 14:52:59</time>
      </trkpt>
      <trkpt lat="29.14375" lon="-13.50745">
        <ele>301.4</ele>
        <time>2021-07-03 14:53:00</time>
      </trkpt>
      <trkpt lat="29.14375" lon="-13.50749">
        <ele>301.4</ele>
        <time>2021-07-03 14:53:01</time>
      </trkpt>
      <trkpt lat="29.14375" lon="-13.50752">
        <ele>301.4</ele>
        <time>2021-07-03 14:53:02</time>
      </trkpt>
      <trkpt lat="29.14374" lon="-13.50755">
        <ele>301.6</ele>
        <time>2021-07-03 14:53:03</time>
      </trkpt>
      <trkpt lat="29.14374" lon="-13.50758">
        <ele>301.6</ele>
        <time>2021-07-03 14:53:04</time>
      </trkpt>
      <trkpt lat="29.14374" lon="-13.50762">
        <ele>302</ele>
        <time>2021-07-03 14:53:05</time>
      </trkpt>
      <trkpt lat="29.14373" lon="-13.50765">
        <ele>302</ele>
        <time>2021-07-03 14:53:06</time>
      </trkpt>
      <trkpt lat="29.14373" lon="-13.50768">
        <ele>302.4</ele>
        <time>2021-07-03 14:53:07</time>
      </trkpt>
      <trkpt lat="29.14373" lon="-13.50772">
        <ele>302.6</ele>
        <time>2021-07-03 14:53:08</time>
      </trkpt>
      <trkpt lat="29.14372" lon="-13.50775">
        <ele>302.6</ele>
        <time>2021-07-03 14:53:09</time>
      </trkpt>
      <trkpt lat="29.14372" lon="-13.50779">
        <ele>303</ele>
        <time>2021-07-03 14:53:10</time>
      </trkpt>
      <trkpt lat="29.14371" lon="-13.50782">
        <ele>303</ele>
        <time>2021-07-03 14:53:11</time>
      </trkpt>
      <trkpt lat="29.14371" lon="-13.50786">
        <ele>303</ele>
        <time>2021-07-03 14:53:12</time>
      </trkpt>
      <trkpt lat="29.14371" lon="-13.50789">
        <ele>303</ele>
        <time>2021-07-03 14:53:13</time>
      </trkpt>
      <trkpt lat="29.14371" lon="-13.50793">
        <ele>303</ele>
        <time>2021-07-03 14:53:14</time>
      </trkpt>
      <trkpt lat="29.14371" lon="-13.50796">
        <ele>303</ele>
        <time>2021-07-03 14:53:15</time>
      </trkpt>
      <trkpt lat="29.14372" lon="-13.508">
        <ele>303</ele>
        <time>2021-07-03 14:53:16</time>
      </trkpt>
      <trkpt lat="29.14372" lon="-13.50804">
        <ele>303.2</ele>
        <time>2021-07-03 14:53:17</time>
      </trkpt>
      <trkpt lat="29.14372" lon="-13.50808">
        <ele>303.2</ele>
        <time>2021-07-03 14:53:18</time>
      </trkpt>
      <trkpt lat="29.14373" lon="-13.50812">
        <ele>303.4</ele>
        <time>2021-07-03 14:53:19</time>
      </trkpt>
      <trkpt lat="29.14373" lon="-13.50815">
        <ele>303.4</ele>
        <time>2021-07-03 14:53:20</time>
      </trkpt>
      <trkpt lat="29.14374" lon="-13.50819">
        <ele>303.4</ele>
        <time>2021-07-03 14:53:21</time>
      </trkpt>
      <trkpt lat="29.14374" lon="-13.50823">
        <ele>303.8</ele>
        <time>2021-07-03 14:53:22</time>
      </trkpt>
      <trkpt lat="29.14374" lon="-13.50826">
        <ele>303.8</ele>
        <time>2021-07-03 14:53:23</time>
      </trkpt>
      <trkpt lat="29.14374" lon="-13.5083">
        <ele>303.8</ele>
        <time>2021-07-03 14:53:24</time>
      </trkpt>
      <trkpt lat="29.14374" lon="-13.50834">
        <ele>303.8</ele>
        <time>2021-07-03 14:53:25</time>
      </trkpt>
      <trkpt lat="29.14375" lon="-13.50837">
        <ele>304</ele>
        <time>2021-07-03 14:53:26</time>
      </trkpt>
      <trkpt lat="29.14375" lon="-13.50841">
        <ele>304</ele>
        <time>2021-07-03 14:53:27</time>
      </trkpt>
      <trkpt lat="29.14375" lon="-13.50844">
        <ele>304</ele>
        <time>2021-07-03 14:53:28</time>
      </trkpt>
      <trkpt lat="29.14376" lon="-13.50847">
        <ele>304</ele>
        <time>2021-07-03 14:53:29</time>
      </trkpt>
      <trkpt lat="29.14376" lon="-13.5085">
        <ele>304.2</ele>
        <time>2021-07-03 14:53:30</time>
      </trkpt>
      <trkpt lat="29.14377" lon="-13.50853">
        <ele>304.6</ele>
        <time>2021-07-03 14:53:31</time>
      </trkpt>
      <trkpt lat="29.14378" lon="-13.50855">
        <ele>304.6</ele>
        <time>2021-07-03 14:53:32</time>
      </trkpt>
      <trkpt lat="29.14378" lon="-13.50857">
        <ele>305</ele>
        <time>2021-07-03 14:53:33</time>
      </trkpt>
      <trkpt lat="29.1438" lon="-13.5086">
        <ele>305.2</ele>
        <time>2021-07-03 14:53:34</time>
      </trkpt>
      <trkpt lat="29.14381" lon="-13.50862">
        <ele>305.2</ele>
        <time>2021-07-03 14:53:35</time>
      </trkpt>
      <trkpt lat="29.14382" lon="-13.50864">
        <ele>305.4</ele>
        <time>2021-07-03 14:53:36</time>
      </trkpt>
      <trkpt lat="29.14384" lon="-13.50867">
        <ele>305.4</ele>
        <time>2021-07-03 14:53:37</time>
      </trkpt>
      <trkpt lat="29.14385" lon="-13.50869">
        <ele>305.6</ele>
        <time>2021-07-03 14:53:38</time>
      </trkpt>
      <trkpt lat="29.14387" lon="-13.50872">
        <ele>305.6</ele>
        <time>2021-07-03 14:53:39</time>
      </trkpt>
      <trkpt lat="29.14388" lon="-13.50875">
        <ele>306</ele>
        <time>2021-07-03 14:53:40</time>
      </trkpt>
      <trkpt lat="29.1439" lon="-13.50877">
        <ele>306</ele>
        <time>2021-07-03 14:53:41</time>
      </trkpt>
      <trkpt lat="29.14391" lon="-13.5088">
        <ele>306.4</ele>
        <time>2021-07-03 14:53:42</time>
      </trkpt>
      <trkpt lat="29.14393" lon="-13.50882">
        <ele>306.6</ele>
        <time>2021-07-03 14:53:43</time>
      </trkpt>
      <trkpt lat="29.14394" lon="-13.50885">
        <ele>306.6</ele>
        <time>2021-07-03 14:53:44</time>
      </trkpt>
      <trkpt lat="29.14395" lon="-13.50888">
        <ele>306.8</ele>
        <time>2021-07-03 14:53:45</time>
      </trkpt>
      <trkpt lat="29.14396" lon="-13.5089">
        <ele>306.8</ele>
        <time>2021-07-03 14:53:46</time>
      </trkpt>
      <trkpt lat="29.14397" lon="-13.50893">
        <ele>307.2</ele>
        <time>2021-07-03 14:53:47</time>
      </trkpt>
      <trkpt lat="29.14399" lon="-13.50895">
        <ele>307.2</ele>
        <time>2021-07-03 14:53:48</time>
      </trkpt>
      <trkpt lat="29.144" lon="-13.50898">
        <ele>307.2</ele>
        <time>2021-07-03 14:53:49</time>
      </trkpt>
      <trkpt lat="29.14402" lon="-13.50901">
        <ele>307.4</ele>
        <time>2021-07-03 14:53:50</time>
      </trkpt>
      <trkpt lat="29.14403" lon="-13.50903">
        <ele>307.6</ele>
        <time>2021-07-03 14:53:51</time>
      </trkpt>
      <trkpt lat="29.14406" lon="-13.50906">
        <ele>307.6</ele>
        <time>2021-07-03 14:53:52</time>
      </trkpt>
      <trkpt lat="29.14407" lon="-13.50908">
        <ele>307.6</ele>
        <time>2021-07-03 14:53:53</time>
      </trkpt>
      <trkpt lat="29.14409" lon="-13.50911">
        <ele>308</ele>
        <time>2021-07-03 14:53:54</time>
      </trkpt>
      <trkpt lat="29.14411" lon="-13.50913">
        <ele>308</ele>
        <time>2021-07-03 14:53:55</time>
      </trkpt>
      <trkpt lat="29.14412" lon="-13.50916">
        <ele>308.2</ele>
        <time>2021-07-03 14:53:56</time>
      </trkpt>
      <trkpt lat="29.14414" lon="-13.50919">
        <ele>308.2</ele>
        <time>2021-07-03 14:53:57</time>
      </trkpt>
      <trkpt lat="29.14415" lon="-13.50921">
        <ele>308.6</ele>
        <time>2021-07-03 14:53:58</time>
      </trkpt>
      <trkpt lat="29.14416" lon="-13.50924">
        <ele>308.6</ele>
        <time>2021-07-03 14:53:59</time>
      </trkpt>
      <trkpt lat="29.14418" lon="-13.50927">
        <ele>309</ele>
        <time>2021-07-03 14:54:00</time>
      </trkpt>
      <trkpt lat="29.14418" lon="-13.5093">
        <ele>309</ele>
        <time>2021-07-03 14:54:01</time>
      </trkpt>
      <trkpt lat="29.14419" lon="-13.50933">
        <ele>309.4</ele>
        <time>2021-07-03 14:54:02</time>
      </trkpt>
      <trkpt lat="29.1442" lon="-13.50936">
        <ele>309.4</ele>
        <time>2021-07-03 14:54:03</time>
      </trkpt>
      <trkpt lat="29.1442" lon="-13.50939">
        <ele>309.6</ele>
        <time>2021-07-03 14:54:04</time>
      </trkpt>
      <trkpt lat="29.1442" lon="-13.50942">
        <ele>309.6</ele>
        <time>2021-07-03 14:54:05</time>
      </trkpt>
      <trkpt lat="29.14421" lon="-13.50945">
        <ele>310</ele>
        <time>2021-07-03 14:54:06</time>
      </trkpt>
      <trkpt lat="29.14421" lon="-13.50947">
        <ele>310</ele>
        <time>2021-07-03 14:54:07</time>
      </trkpt>
      <trkpt lat="29.14421" lon="-13.50951">
        <ele>310.2</ele>
        <time>2021-07-03 14:54:08</time>
      </trkpt>
      <trkpt lat="29.14422" lon="-13.50954">
        <ele>310.2</ele>
        <time>2021-07-03 14:54:09</time>
      </trkpt>
      <trkpt lat="29.14422" lon="-13.50957">
        <ele>310.4</ele>
        <time>2021-07-03 14:54:10</time>
      </trkpt>
      <trkpt lat="29.14423" lon="-13.5096">
        <ele>310.4</ele>
        <time>2021-07-03 14:54:11</time>
      </trkpt>
      <trkpt lat="29.14424" lon="-13.50963">
        <ele>310.6</ele>
        <time>2021-07-03 14:54:12</time>
      </trkpt>
      <trkpt lat="29.14424" lon="-13.50966">
        <ele>310.6</ele>
        <time>2021-07-03 14:54:13</time>
      </trkpt>
      <trkpt lat="29.14425" lon="-13.50968">
        <ele>310.6</ele>
        <time>2021-07-03 14:54:14</time>
      </trkpt>
      <trkpt lat="29.14426" lon="-13.50971">
        <ele>310.8</ele>
        <time>2021-07-03 14:54:15</time>
      </trkpt>
      <trkpt lat="29.14426" lon="-13.50974">
        <ele>310.8</ele>
        <time>2021-07-03 14:54:16</time>
      </trkpt>
      <trkpt lat="29.14427" lon="-13.50977">
        <ele>310.8</ele>
        <time>2021-07-03 14:54:17</time>
      </trkpt>
      <trkpt lat="29.14428" lon="-13.5098">
        <ele>311</ele>
        <time>2021-07-03 14:54:18</time>
      </trkpt>
      <trkpt lat="29.14428" lon="-13.50984">
        <ele>311</ele>
        <time>2021-07-03 14:54:19</time>
      </trkpt>
      <trkpt lat="29.14429" lon="-13.50987">
        <ele>311.4</ele>
        <time>2021-07-03 14:54:20</time>
      </trkpt>
      <trkpt lat="29.14429" lon="-13.5099">
        <ele>311.4</ele>
        <time>2021-07-03 14:54:21</time>
      </trkpt>
      <trkpt lat="29.1443" lon="-13.50993">
        <ele>311.4</ele>
        <time>2021-07-03 14:54:22</time>
      </trkpt>
      <trkpt lat="29.14431" lon="-13.50996">
        <ele>311.4</ele>
        <time>2021-07-03 14:54:23</time>
      </trkpt>
      <trkpt lat="29.14431" lon="-13.50999">
        <ele>311.6</ele>
        <time>2021-07-03 14:54:24</time>
      </trkpt>
      <trkpt lat="29.14432" lon="-13.51002">
        <ele>311.6</ele>
        <time>2021-07-03 14:54:25</time>
      </trkpt>
      <trkpt lat="29.14433" lon="-13.51004">
        <ele>311.8</ele>
        <time>2021-07-03 14:54:26</time>
      </trkpt>
      <trkpt lat="29.14434" lon="-13.51007">
        <ele>311.8</ele>
        <time>2021-07-03 14:54:27</time>
      </trkpt>
      <trkpt lat="29.14435" lon="-13.5101">
        <ele>312</ele>
        <time>2021-07-03 14:54:28</time>
      </trkpt>
      <trkpt lat="29.14436" lon="-13.51013">
        <ele>312.2</ele>
        <time>2021-07-03 14:54:29</time>
      </trkpt>
      <trkpt lat="29.14437" lon="-13.51016">
        <ele>312.2</ele>
        <time>2021-07-03 14:54:30</time>
      </trkpt>
      <trkpt lat="29.14438" lon="-13.51019">
        <ele>312.8</ele>
        <time>2021-07-03 14:54:31</time>
      </trkpt>
      <trkpt lat="29.14438" lon="-13.51022">
        <ele>312.8</ele>
        <time>2021-07-03 14:54:32</time>
      </trkpt>
      <trkpt lat="29.14439" lon="-13.51025">
        <ele>313.2</ele>
        <time>2021-07-03 14:54:33</time>
      </trkpt>
      <trkpt lat="29.1444" lon="-13.51028">
        <ele>313.2</ele>
        <time>2021-07-03 14:54:34</time>
      </trkpt>
      <trkpt lat="29.1444" lon="-13.51032">
        <ele>313.4</ele>
        <time>2021-07-03 14:54:35</time>
      </trkpt>
      <trkpt lat="29.14441" lon="-13.51035">
        <ele>313.4</ele>
        <time>2021-07-03 14:54:36</time>
      </trkpt>
      <trkpt lat="29.14443" lon="-13.51038">
        <ele>313.8</ele>
        <time>2021-07-03 14:54:37</time>
      </trkpt>
      <trkpt lat="29.14444" lon="-13.51041">
        <ele>313.8</ele>
        <time>2021-07-03 14:54:38</time>
      </trkpt>
      <trkpt lat="29.14446" lon="-13.51045">
        <ele>313.8</ele>
        <time>2021-07-03 14:54:39</time>
      </trkpt>
      <trkpt lat="29.14448" lon="-13.51048">
        <ele>314</ele>
        <time>2021-07-03 14:54:40</time>
      </trkpt>
      <trkpt lat="29.14449" lon="-13.51051">
        <ele>314</ele>
        <time>2021-07-03 14:54:41</time>
      </trkpt>
      <trkpt lat="29.14451" lon="-13.51054">
        <ele>314</ele>
        <time>2021-07-03 14:54:42</time>
      </trkpt>
      <trkpt lat="29.14452" lon="-13.51057">
        <ele>314</ele>
        <time>2021-07-03 14:54:43</time>
      </trkpt>
      <trkpt lat="29.14454" lon="-13.5106">
        <ele>314</ele>
        <time>2021-07-03 14:54:44</time>
      </trkpt>
      <trkpt lat="29.14455" lon="-13.51063">
        <ele>314.4</ele>
        <time>2021-07-03 14:54:45</time>
      </trkpt>
      <trkpt lat="29.14456" lon="-13.51067">
        <ele>314.4</ele>
        <time>2021-07-03 14:54:46</time>
      </trkpt>
      <trkpt lat="29.14458" lon="-13.5107">
        <ele>314.4</ele>
        <time>2021-07-03 14:54:47</time>
      </trkpt>
      <trkpt lat="29.14459" lon="-13.51073">
        <ele>314.6</ele>
        <time>2021-07-03 14:54:48</time>
      </trkpt>
      <trkpt lat="29.1446" lon="-13.51076">
        <ele>314.6</ele>
        <time>2021-07-03 14:54:49</time>
      </trkpt>
      <trkpt lat="29.14462" lon="-13.51079">
        <ele>314.6</ele>
        <time>2021-07-03 14:54:50</time>
      </trkpt>
      <trkpt lat="29.14463" lon="-13.51082">
        <ele>314.6</ele>
        <time>2021-07-03 14:54:51</time>
      </trkpt>
      <trkpt lat="29.14465" lon="-13.51085">
        <ele>314.6</ele>
        <time>2021-07-03 14:54:52</time>
      </trkpt>
      <trkpt lat="29.14466" lon="-13.51088">
        <ele>314.8</ele>
        <time>2021-07-03 14:54:53</time>
      </trkpt>
      <trkpt lat="29.14468" lon="-13.51091">
        <ele>314.8</ele>
        <time>2021-07-03 14:54:54</time>
      </trkpt>
      <trkpt lat="29.14469" lon="-13.51094">
        <ele>315</ele>
        <time>2021-07-03 14:54:55</time>
      </trkpt>
      <trkpt lat="29.1447" lon="-13.51097">
        <ele>315</ele>
        <time>2021-07-03 14:54:56</time>
      </trkpt>
      <trkpt lat="29.14472" lon="-13.511">
        <ele>315.4</ele>
        <time>2021-07-03 14:54:57</time>
      </trkpt>
      <trkpt lat="29.14473" lon="-13.51104">
        <ele>315.4</ele>
        <time>2021-07-03 14:54:58</time>
      </trkpt>
      <trkpt lat="29.14474" lon="-13.51107">
        <ele>315.4</ele>
        <time>2021-07-03 14:54:59</time>
      </trkpt>
      <trkpt lat="29.14476" lon="-13.5111">
        <ele>315.6</ele>
        <time>2021-07-03 14:55:00</time>
      </trkpt>
      <trkpt lat="29.14477" lon="-13.51113">
        <ele>315.6</ele>
        <time>2021-07-03 14:55:01</time>
      </trkpt>
      <trkpt lat="29.14478" lon="-13.51116">
        <ele>315.8</ele>
        <time>2021-07-03 14:55:02</time>
      </trkpt>
      <trkpt lat="29.1448" lon="-13.51119">
        <ele>315.8</ele>
        <time>2021-07-03 14:55:03</time>
      </trkpt>
      <trkpt lat="29.14481" lon="-13.51122">
        <ele>316</ele>
        <time>2021-07-03 14:55:04</time>
      </trkpt>
      <trkpt lat="29.14482" lon="-13.51124">
        <ele>316</ele>
        <time>2021-07-03 14:55:05</time>
      </trkpt>
      <trkpt lat="29.14482" lon="-13.51127">
        <ele>316</ele>
        <time>2021-07-03 14:55:06</time>
      </trkpt>
      <trkpt lat="29.14483" lon="-13.51131">
        <ele>316.4</ele>
        <time>2021-07-03 14:55:07</time>
      </trkpt>
      <trkpt lat="29.14484" lon="-13.51134">
        <ele>316.4</ele>
        <time>2021-07-03 14:55:08</time>
      </trkpt>
      <trkpt lat="29.14484" lon="-13.51137">
        <ele>316.6</ele>
        <time>2021-07-03 14:55:09</time>
      </trkpt>
      <trkpt lat="29.14485" lon="-13.5114">
        <ele>316.6</ele>
        <time>2021-07-03 14:55:10</time>
      </trkpt>
      <trkpt lat="29.14485" lon="-13.51143">
        <ele>317</ele>
        <time>2021-07-03 14:55:11</time>
      </trkpt>
      <trkpt lat="29.14485" lon="-13.51146">
        <ele>317.2</ele>
        <time>2021-07-03 14:55:12</time>
      </trkpt>
      <trkpt lat="29.14485" lon="-13.51149">
        <ele>317.2</ele>
        <time>2021-07-03 14:55:13</time>
      </trkpt>
      <trkpt lat="29.14485" lon="-13.51152">
        <ele>317.6</ele>
        <time>2021-07-03 14:55:14</time>
      </trkpt>
      <trkpt lat="29.14486" lon="-13.51155">
        <ele>317.8</ele>
        <time>2021-07-03 14:55:15</time>
      </trkpt>
      <trkpt lat="29.14486" lon="-13.51158">
        <ele>317.8</ele>
        <time>2021-07-03 14:55:16</time>
      </trkpt>
      <trkpt lat="29.14487" lon="-13.51161">
        <ele>318</ele>
        <time>2021-07-03 14:55:17</time>
      </trkpt>
      <trkpt lat="29.14488" lon="-13.51164">
        <ele>318</ele>
        <time>2021-07-03 14:55:18</time>
      </trkpt>
      <trkpt lat="29.14489" lon="-13.51167">
        <ele>318.2</ele>
        <time>2021-07-03 14:55:19</time>
      </trkpt>
      <trkpt lat="29.1449" lon="-13.5117">
        <ele>318.4</ele>
        <time>2021-07-03 14:55:20</time>
      </trkpt>
      <trkpt lat="29.14491" lon="-13.51173">
        <ele>318.4</ele>
        <time>2021-07-03 14:55:21</time>
      </trkpt>
      <trkpt lat="29.14492" lon="-13.51176">
        <ele>318.8</ele>
        <time>2021-07-03 14:55:22</time>
      </trkpt>
      <trkpt lat="29.14492" lon="-13.51179">
        <ele>319</ele>
        <time>2021-07-03 14:55:23</time>
      </trkpt>
      <trkpt lat="29.14493" lon="-13.51183">
        <ele>319</ele>
        <time>2021-07-03 14:55:24</time>
      </trkpt>
      <trkpt lat="29.14494" lon="-13.51186">
        <ele>319.4</ele>
        <time>2021-07-03 14:55:25</time>
      </trkpt>
      <trkpt lat="29.14495" lon="-13.51189">
        <ele>319.6</ele>
        <time>2021-07-03 14:55:26</time>
      </trkpt>
      <trkpt lat="29.14496" lon="-13.51191">
        <ele>319.6</ele>
        <time>2021-07-03 14:55:27</time>
      </trkpt>
      <trkpt lat="29.14497" lon="-13.51194">
        <ele>320</ele>
        <time>2021-07-03 14:55:28</time>
      </trkpt>
      <trkpt lat="29.14498" lon="-13.51197">
        <ele>320.2</ele>
        <time>2021-07-03 14:55:29</time>
      </trkpt>
      <trkpt lat="29.145" lon="-13.512">
        <ele>320.2</ele>
        <time>2021-07-03 14:55:30</time>
      </trkpt>
      <trkpt lat="29.14501" lon="-13.51202">
        <ele>320.4</ele>
        <time>2021-07-03 14:55:31</time>
      </trkpt>
      <trkpt lat="29.14502" lon="-13.51204">
        <ele>320.4</ele>
        <time>2021-07-03 14:55:32</time>
      </trkpt>
      <trkpt lat="29.14503" lon="-13.51206">
        <ele>320.8</ele>
        <time>2021-07-03 14:55:33</time>
      </trkpt>
      <trkpt lat="29.14504" lon="-13.51209">
        <ele>320.8</ele>
        <time>2021-07-03 14:55:34</time>
      </trkpt>
      <trkpt lat="29.14504" lon="-13.51211">
        <ele>321.2</ele>
        <time>2021-07-03 14:55:35</time>
      </trkpt>
      <trkpt lat="29.14505" lon="-13.51213">
        <ele>321.4</ele>
        <time>2021-07-03 14:55:36</time>
      </trkpt>
      <trkpt lat="29.14506" lon="-13.51215">
        <ele>321.6</ele>
        <time>2021-07-03 14:55:37</time>
      </trkpt>
      <trkpt lat="29.14507" lon="-13.51218">
        <ele>321.6</ele>
        <time>2021-07-03 14:55:38</time>
      </trkpt>
      <trkpt lat="29.14507" lon="-13.5122">
        <ele>322</ele>
        <time>2021-07-03 14:55:39</time>
      </trkpt>
      <trkpt lat="29.14508" lon="-13.51222">
        <ele>322</ele>
        <time>2021-07-03 14:55:40</time>
      </trkpt>
      <trkpt lat="29.14509" lon="-13.51224">
        <ele>322.4</ele>
        <time>2021-07-03 14:55:41</time>
      </trkpt>
      <trkpt lat="29.1451" lon="-13.51226">
        <ele>322.6</ele>
        <time>2021-07-03 14:55:42</time>
      </trkpt>
      <trkpt lat="29.1451" lon="-13.51228">
        <ele>322.8</ele>
        <time>2021-07-03 14:55:43</time>
      </trkpt>
      <trkpt lat="29.14511" lon="-13.51229">
        <ele>323.2</ele>
        <time>2021-07-03 14:55:44</time>
      </trkpt>
      <trkpt lat="29.14511" lon="-13.51231">
        <ele>323.4</ele>
        <time>2021-07-03 14:55:45</time>
      </trkpt>
      <trkpt lat="29.14512" lon="-13.51233">
        <ele>323.6</ele>
        <time>2021-07-03 14:55:46</time>
      </trkpt>
      <trkpt lat="29.14512" lon="-13.51235">
        <ele>324</ele>
        <time>2021-07-03 14:55:47</time>
      </trkpt>
      <trkpt lat="29.14513" lon="-13.51237">
        <ele>324.2</ele>
        <time>2021-07-03 14:55:48</time>
      </trkpt>
      <trkpt lat="29.14514" lon="-13.51239">
        <ele>324.4</ele>
        <time>2021-07-03 14:55:49</time>
      </trkpt>
      <trkpt lat="29.14514" lon="-13.5124">
        <ele>324.8</ele>
        <time>2021-07-03 14:55:50</time>
      </trkpt>
      <trkpt lat="29.14515" lon="-13.51242">
        <ele>325</ele>
        <time>2021-07-03 14:55:51</time>
      </trkpt>
      <trkpt lat="29.14515" lon="-13.51244">
        <ele>325.2</ele>
        <time>2021-07-03 14:55:52</time>
      </trkpt>
      <trkpt lat="29.14516" lon="-13.51246">
        <ele>325.4</ele>
        <time>2021-07-03 14:55:53</time>
      </trkpt>
      <trkpt lat="29.14517" lon="-13.51247">
        <ele>325.4</ele>
        <time>2021-07-03 14:55:54</time>
      </trkpt>
      <trkpt lat="29.14517" lon="-13.51249">
        <ele>325.8</ele>
        <time>2021-07-03 14:55:55</time>
      </trkpt>
      <trkpt lat="29.14518" lon="-13.51251">
        <ele>325.8</ele>
        <time>2021-07-03 14:55:56</time>
      </trkpt>
      <trkpt lat="29.14518" lon="-13.51252">
        <ele>326.2</ele>
        <time>2021-07-03 14:55:57</time>
      </trkpt>
      <trkpt lat="29.14518" lon="-13.51254">
        <ele>326.2</ele>
        <time>2021-07-03 14:55:58</time>
      </trkpt>
      <trkpt lat="29.14519" lon="-13.51256">
        <ele>326.6</ele>
        <time>2021-07-03 14:55:59</time>
      </trkpt>
      <trkpt lat="29.14519" lon="-13.51258">
        <ele>326.8</ele>
        <time>2021-07-03 14:56:00</time>
      </trkpt>
      <trkpt lat="29.1452" lon="-13.5126">
        <ele>326.8</ele>
        <time>2021-07-03 14:56:01</time>
      </trkpt>
      <trkpt lat="29.14521" lon="-13.51262">
        <ele>327.2</ele>
        <time>2021-07-03 14:56:02</time>
      </trkpt>
      <trkpt lat="29.14521" lon="-13.51264">
        <ele>327.4</ele>
        <time>2021-07-03 14:56:03</time>
      </trkpt>
      <trkpt lat="29.14522" lon="-13.51266">
        <ele>327.8</ele>
        <time>2021-07-03 14:56:04</time>
      </trkpt>
      <trkpt lat="29.14522" lon="-13.51268">
        <ele>328</ele>
        <time>2021-07-03 14:56:05</time>
      </trkpt>
      <trkpt lat="29.14523" lon="-13.5127">
        <ele>328.2</ele>
        <time>2021-07-03 14:56:06</time>
      </trkpt>
      <trkpt lat="29.14523" lon="-13.51272">
        <ele>328.2</ele>
        <time>2021-07-03 14:56:07</time>
      </trkpt>
      <trkpt lat="29.14524" lon="-13.51274">
        <ele>328.6</ele>
        <time>2021-07-03 14:56:08</time>
      </trkpt>
      <trkpt lat="29.14524" lon="-13.51276">
        <ele>328.8</ele>
        <time>2021-07-03 14:56:09</time>
      </trkpt>
      <trkpt lat="29.14524" lon="-13.51279">
        <ele>328.8</ele>
        <time>2021-07-03 14:56:10</time>
      </trkpt>
      <trkpt lat="29.14525" lon="-13.51281">
        <ele>329.2</ele>
        <time>2021-07-03 14:56:11</time>
      </trkpt>
      <trkpt lat="29.14525" lon="-13.51283">
        <ele>329.4</ele>
        <time>2021-07-03 14:56:12</time>
      </trkpt>
      <trkpt lat="29.14526" lon="-13.51285">
        <ele>329.6</ele>
        <time>2021-07-03 14:56:13</time>
      </trkpt>
      <trkpt lat="29.14526" lon="-13.51288">
        <ele>329.6</ele>
        <time>2021-07-03 14:56:14</time>
      </trkpt>
      <trkpt lat="29.14526" lon="-13.5129">
        <ele>330</ele>
        <time>2021-07-03 14:56:15</time>
      </trkpt>
      <trkpt lat="29.14527" lon="-13.51292">
        <ele>330.4</ele>
        <time>2021-07-03 14:56:16</time>
      </trkpt>
      <trkpt lat="29.14527" lon="-13.51294">
        <ele>330.6</ele>
        <time>2021-07-03 14:56:17</time>
      </trkpt>
      <trkpt lat="29.14528" lon="-13.51297">
        <ele>330.6</ele>
        <time>2021-07-03 14:56:18</time>
      </trkpt>
      <trkpt lat="29.14528" lon="-13.51299">
        <ele>331</ele>
        <time>2021-07-03 14:56:19</time>
      </trkpt>
      <trkpt lat="29.14529" lon="-13.51301">
        <ele>331.4</ele>
        <time>2021-07-03 14:56:20</time>
      </trkpt>
      <trkpt lat="29.1453" lon="-13.51303">
        <ele>331.6</ele>
        <time>2021-07-03 14:56:21</time>
      </trkpt>
      <trkpt lat="29.14531" lon="-13.51306">
        <ele>331.8</ele>
        <time>2021-07-03 14:56:22</time>
      </trkpt>
      <trkpt lat="29.14531" lon="-13.51307">
        <ele>332.2</ele>
        <time>2021-07-03 14:56:23</time>
      </trkpt>
      <trkpt lat="29.14532" lon="-13.51309">
        <ele>332.6</ele>
        <time>2021-07-03 14:56:24</time>
      </trkpt>
      <trkpt lat="29.14533" lon="-13.51311">
        <ele>332.8</ele>
        <time>2021-07-03 14:56:25</time>
      </trkpt>
      <trkpt lat="29.14533" lon="-13.51313">
        <ele>333</ele>
        <time>2021-07-03 14:56:26</time>
      </trkpt>
      <trkpt lat="29.14534" lon="-13.51315">
        <ele>333.2</ele>
        <time>2021-07-03 14:56:27</time>
      </trkpt>
      <trkpt lat="29.14534" lon="-13.51317">
        <ele>333.6</ele>
        <time>2021-07-03 14:56:28</time>
      </trkpt>
      <trkpt lat="29.14534" lon="-13.51319">
        <ele>333.8</ele>
        <time>2021-07-03 14:56:29</time>
      </trkpt>
      <trkpt lat="29.14535" lon="-13.51321">
        <ele>334</ele>
        <time>2021-07-03 14:56:30</time>
      </trkpt>
      <trkpt lat="29.14535" lon="-13.51324">
        <ele>334.2</ele>
        <time>2021-07-03 14:56:31</time>
      </trkpt>
      <trkpt lat="29.14536" lon="-13.51326">
        <ele>334.4</ele>
        <time>2021-07-03 14:56:32</time>
      </trkpt>
      <trkpt lat="29.14536" lon="-13.51328">
        <ele>334.8</ele>
        <time>2021-07-03 14:56:33</time>
      </trkpt>
      <trkpt lat="29.14537" lon="-13.51331">
        <ele>335.2</ele>
        <time>2021-07-03 14:56:34</time>
      </trkpt>
      <trkpt lat="29.14537" lon="-13.51333">
        <ele>335.4</ele>
        <time>2021-07-03 14:56:35</time>
      </trkpt>
      <trkpt lat="29.14538" lon="-13.51335">
        <ele>335.8</ele>
        <time>2021-07-03 14:56:36</time>
      </trkpt>
      <trkpt lat="29.14538" lon="-13.51338">
        <ele>336.2</ele>
        <time>2021-07-03 14:56:37</time>
      </trkpt>
      <trkpt lat="29.14539" lon="-13.5134">
        <ele>336.4</ele>
        <time>2021-07-03 14:56:38</time>
      </trkpt>
      <trkpt lat="29.14539" lon="-13.51343">
        <ele>336.4</ele>
        <time>2021-07-03 14:56:39</time>
      </trkpt>
      <trkpt lat="29.14539" lon="-13.51346">
        <ele>336.6</ele>
        <time>2021-07-03 14:56:40</time>
      </trkpt>
      <trkpt lat="29.1454" lon="-13.51348">
        <ele>336.6</ele>
        <time>2021-07-03 14:56:41</time>
      </trkpt>
      <trkpt lat="29.1454" lon="-13.51351">
        <ele>337</ele>
        <time>2021-07-03 14:56:42</time>
      </trkpt>
      <trkpt lat="29.1454" lon="-13.51354">
        <ele>337</ele>
        <time>2021-07-03 14:56:43</time>
      </trkpt>
      <trkpt lat="29.14541" lon="-13.51356">
        <ele>337.6</ele>
        <time>2021-07-03 14:56:44</time>
      </trkpt>
      <trkpt lat="29.14541" lon="-13.51358">
        <ele>338</ele>
        <time>2021-07-03 14:56:45</time>
      </trkpt>
      <trkpt lat="29.14541" lon="-13.51361">
        <ele>338.2</ele>
        <time>2021-07-03 14:56:46</time>
      </trkpt>
      <trkpt lat="29.14542" lon="-13.51364">
        <ele>338.4</ele>
        <time>2021-07-03 14:56:47</time>
      </trkpt>
      <trkpt lat="29.14542" lon="-13.51366">
        <ele>338.4</ele>
        <time>2021-07-03 14:56:48</time>
      </trkpt>
      <trkpt lat="29.14543" lon="-13.51369">
        <ele>338.6</ele>
        <time>2021-07-03 14:56:49</time>
      </trkpt>
      <trkpt lat="29.14543" lon="-13.51372">
        <ele>338.8</ele>
        <time>2021-07-03 14:56:50</time>
      </trkpt>
      <trkpt lat="29.14543" lon="-13.51374">
        <ele>338.8</ele>
        <time>2021-07-03 14:56:51</time>
      </trkpt>
      <trkpt lat="29.14544" lon="-13.51377">
        <ele>338.8</ele>
        <time>2021-07-03 14:56:52</time>
      </trkpt>
      <trkpt lat="29.14545" lon="-13.51379">
        <ele>338.8</ele>
        <time>2021-07-03 14:56:53</time>
      </trkpt>
      <trkpt lat="29.14545" lon="-13.51382">
        <ele>338.8</ele>
        <time>2021-07-03 14:56:54</time>
      </trkpt>
      <trkpt lat="29.14546" lon="-13.51385">
        <ele>339.2</ele>
        <time>2021-07-03 14:56:55</time>
      </trkpt>
      <trkpt lat="29.14547" lon="-13.51388">
        <ele>339.2</ele>
        <time>2021-07-03 14:56:56</time>
      </trkpt>
      <trkpt lat="29.14547" lon="-13.51391">
        <ele>339.2</ele>
        <time>2021-07-03 14:56:57</time>
      </trkpt>
      <trkpt lat="29.14548" lon="-13.51394">
        <ele>339.2</ele>
        <time>2021-07-03 14:56:58</time>
      </trkpt>
      <trkpt lat="29.14548" lon="-13.51397">
        <ele>339.2</ele>
        <time>2021-07-03 14:56:59</time>
      </trkpt>
      <trkpt lat="29.14548" lon="-13.514">
        <ele>339.2</ele>
        <time>2021-07-03 14:57:00</time>
      </trkpt>
      <trkpt lat="29.14549" lon="-13.51403">
        <ele>339.2</ele>
        <time>2021-07-03 14:57:01</time>
      </trkpt>
      <trkpt lat="29.14549" lon="-13.51406">
        <ele>339.4</ele>
        <time>2021-07-03 14:57:02</time>
      </trkpt>
      <trkpt lat="29.1455" lon="-13.51409">
        <ele>339.4</ele>
        <time>2021-07-03 14:57:03</time>
      </trkpt>
      <trkpt lat="29.1455" lon="-13.51412">
        <ele>339.4</ele>
        <time>2021-07-03 14:57:04</time>
      </trkpt>
      <trkpt lat="29.1455" lon="-13.51415">
        <ele>339.4</ele>
        <time>2021-07-03 14:57:05</time>
      </trkpt>
      <trkpt lat="29.14551" lon="-13.51418">
        <ele>339.6</ele>
        <time>2021-07-03 14:57:06</time>
      </trkpt>
      <trkpt lat="29.14551" lon="-13.51421">
        <ele>339.6</ele>
        <time>2021-07-03 14:57:07</time>
      </trkpt>
      <trkpt lat="29.14551" lon="-13.51425">
        <ele>339.6</ele>
        <time>2021-07-03 14:57:08</time>
      </trkpt>
      <trkpt lat="29.14551" lon="-13.51428">
        <ele>339.6</ele>
        <time>2021-07-03 14:57:09</time>
      </trkpt>
      <trkpt lat="29.14552" lon="-13.51431">
        <ele>339.8</ele>
        <time>2021-07-03 14:57:10</time>
      </trkpt>
      <trkpt lat="29.14552" lon="-13.51434">
        <ele>339.8</ele>
        <time>2021-07-03 14:57:11</time>
      </trkpt>
      <trkpt lat="29.14552" lon="-13.51437">
        <ele>339.8</ele>
        <time>2021-07-03 14:57:12</time>
      </trkpt>
      <trkpt lat="29.14553" lon="-13.5144">
        <ele>340.2</ele>
        <time>2021-07-03 14:57:13</time>
      </trkpt>
      <trkpt lat="29.14553" lon="-13.51443">
        <ele>340.2</ele>
        <time>2021-07-03 14:57:14</time>
      </trkpt>
      <trkpt lat="29.14553" lon="-13.51446">
        <ele>340.2</ele>
        <time>2021-07-03 14:57:15</time>
      </trkpt>
      <trkpt lat="29.14554" lon="-13.51449">
        <ele>340.4</ele>
        <time>2021-07-03 14:57:16</time>
      </trkpt>
      <trkpt lat="29.14554" lon="-13.51452">
        <ele>340.4</ele>
        <time>2021-07-03 14:57:17</time>
      </trkpt>
      <trkpt lat="29.14554" lon="-13.51455">
        <ele>340.4</ele>
        <time>2021-07-03 14:57:18</time>
      </trkpt>
      <trkpt lat="29.14555" lon="-13.51458">
        <ele>340.4</ele>
        <time>2021-07-03 14:57:19</time>
      </trkpt>
      <trkpt lat="29.14555" lon="-13.5146">
        <ele>340.4</ele>
        <time>2021-07-03 14:57:20</time>
      </trkpt>
      <trkpt lat="29.14556" lon="-13.51463">
        <ele>340.4</ele>
        <time>2021-07-03 14:57:21</time>
      </trkpt>
      <trkpt lat="29.14557" lon="-13.51466">
        <ele>340.8</ele>
        <time>2021-07-03 14:57:22</time>
      </trkpt>
      <trkpt lat="29.14557" lon="-13.51469">
        <ele>340.8</ele>
        <time>2021-07-03 14:57:23</time>
      </trkpt>
      <trkpt lat="29.14558" lon="-13.51472">
        <ele>341.2</ele>
        <time>2021-07-03 14:57:24</time>
      </trkpt>
      <trkpt lat="29.14558" lon="-13.51475">
        <ele>341.2</ele>
        <time>2021-07-03 14:57:25</time>
      </trkpt>
      <trkpt lat="29.14558" lon="-13.51477">
        <ele>341.4</ele>
        <time>2021-07-03 14:57:26</time>
      </trkpt>
      <trkpt lat="29.14559" lon="-13.5148">
        <ele>341.4</ele>
        <time>2021-07-03 14:57:27</time>
      </trkpt>
      <trkpt lat="29.14559" lon="-13.51482">
        <ele>341.8</ele>
        <time>2021-07-03 14:57:28</time>
      </trkpt>
      <trkpt lat="29.14559" lon="-13.51484">
        <ele>342</ele>
        <time>2021-07-03 14:57:29</time>
      </trkpt>
      <trkpt lat="29.14559" lon="-13.51487">
        <ele>342.2</ele>
        <time>2021-07-03 14:57:30</time>
      </trkpt>
      <trkpt lat="29.14559" lon="-13.5149">
        <ele>342.4</ele>
        <time>2021-07-03 14:57:31</time>
      </trkpt>
      <trkpt lat="29.14559" lon="-13.51492">
        <ele>342.6</ele>
        <time>2021-07-03 14:57:32</time>
      </trkpt>
      <trkpt lat="29.14559" lon="-13.51495">
        <ele>342.8</ele>
        <time>2021-07-03 14:57:33</time>
      </trkpt>
      <trkpt lat="29.14559" lon="-13.51497">
        <ele>343.2</ele>
        <time>2021-07-03 14:57:34</time>
      </trkpt>
      <trkpt lat="29.14559" lon="-13.515">
        <ele>343.4</ele>
        <time>2021-07-03 14:57:35</time>
      </trkpt>
      <trkpt lat="29.1456" lon="-13.51502">
        <ele>343.4</ele>
        <time>2021-07-03 14:57:36</time>
      </trkpt>
      <trkpt lat="29.1456" lon="-13.51505">
        <ele>343.8</ele>
        <time>2021-07-03 14:57:37</time>
      </trkpt>
      <trkpt lat="29.1456" lon="-13.51508">
        <ele>344</ele>
        <time>2021-07-03 14:57:38</time>
      </trkpt>
      <trkpt lat="29.1456" lon="-13.5151">
        <ele>344.2</ele>
        <time>2021-07-03 14:57:39</time>
      </trkpt>
      <trkpt lat="29.1456" lon="-13.51513">
        <ele>344.6</ele>
        <time>2021-07-03 14:57:40</time>
      </trkpt>
      <trkpt lat="29.1456" lon="-13.51515">
        <ele>344.8</ele>
        <time>2021-07-03 14:57:41</time>
      </trkpt>
      <trkpt lat="29.1456" lon="-13.51517">
        <ele>345.2</ele>
        <time>2021-07-03 14:57:42</time>
      </trkpt>
      <trkpt lat="29.1456" lon="-13.51518">
        <ele>345.4</ele>
        <time>2021-07-03 14:57:43</time>
      </trkpt>
      <trkpt lat="29.1456" lon="-13.51519">
        <ele>345.6</ele>
        <time>2021-07-03 14:57:44</time>
      </trkpt>
      <trkpt lat="29.1456" lon="-13.5152">
        <ele>345.6</ele>
        <time>2021-07-03 14:57:45</time>
      </trkpt>
      <trkpt lat="29.1456" lon="-13.51519">
        <ele>345.8</ele>
        <time>2021-07-03 14:57:46</time>
      </trkpt>
      <trkpt lat="29.1456" lon="-13.51519">
        <ele>345.8</ele>
        <time>2021-07-03 14:57:47</time>
      </trkpt>
      <trkpt lat="29.1456" lon="-13.51519">
        <ele>345.8</ele>
        <time>2021-07-03 14:57:48</time>
      </trkpt>
      <trkpt lat="29.14559" lon="-13.51522">
        <ele>345.8</ele>
        <time>2021-07-03 14:57:49</time>
      </trkpt>
      <trkpt lat="29.14559" lon="-13.51525">
        <ele>345.8</ele>
        <time>2021-07-03 14:57:50</time>
      </trkpt>
      <trkpt lat="29.14559" lon="-13.51528">
        <ele>345.8</ele>
        <time>2021-07-03 14:57:51</time>
      </trkpt>
      <trkpt lat="29.14559" lon="-13.51531">
        <ele>345.8</ele>
        <time>2021-07-03 14:57:52</time>
      </trkpt>
      <trkpt lat="29.14559" lon="-13.51534">
        <ele>345.8</ele>
        <time>2021-07-03 14:57:53</time>
      </trkpt>
      <trkpt lat="29.14559" lon="-13.51536">
        <ele>345.8</ele>
        <time>2021-07-03 14:57:54</time>
      </trkpt>
      <trkpt lat="29.14559" lon="-13.51539">
        <ele>346.2</ele>
        <time>2021-07-03 14:57:55</time>
      </trkpt>
      <trkpt lat="29.1456" lon="-13.51542">
        <ele>346.2</ele>
        <time>2021-07-03 14:57:56</time>
      </trkpt>
      <trkpt lat="29.1456" lon="-13.51544">
        <ele>346.4</ele>
        <time>2021-07-03 14:57:57</time>
      </trkpt>
      <trkpt lat="29.1456" lon="-13.51546">
        <ele>346.4</ele>
        <time>2021-07-03 14:57:58</time>
      </trkpt>
      <trkpt lat="29.1456" lon="-13.51549">
        <ele>346.8</ele>
        <time>2021-07-03 14:57:59</time>
      </trkpt>
      <trkpt lat="29.1456" lon="-13.51551">
        <ele>346.8</ele>
        <time>2021-07-03 14:58:00</time>
      </trkpt>
      <trkpt lat="29.1456" lon="-13.51554">
        <ele>347.2</ele>
        <time>2021-07-03 14:58:01</time>
      </trkpt>
      <trkpt lat="29.1456" lon="-13.51556">
        <ele>347.4</ele>
        <time>2021-07-03 14:58:02</time>
      </trkpt>
      <trkpt lat="29.1456" lon="-13.51558">
        <ele>347.8</ele>
        <time>2021-07-03 14:58:03</time>
      </trkpt>
      <trkpt lat="29.1456" lon="-13.51561">
        <ele>348</ele>
        <time>2021-07-03 14:58:04</time>
      </trkpt>
      <trkpt lat="29.14561" lon="-13.51563">
        <ele>348.2</ele>
        <time>2021-07-03 14:58:05</time>
      </trkpt>
      <trkpt lat="29.14561" lon="-13.51566">
        <ele>348.2</ele>
        <time>2021-07-03 14:58:06</time>
      </trkpt>
      <trkpt lat="29.14561" lon="-13.51568">
        <ele>348.6</ele>
        <time>2021-07-03 14:58:07</time>
      </trkpt>
      <trkpt lat="29.14561" lon="-13.5157">
        <ele>349</ele>
        <time>2021-07-03 14:58:08</time>
      </trkpt>
      <trkpt lat="29.14562" lon="-13.51573">
        <ele>349</ele>
        <time>2021-07-03 14:58:09</time>
      </trkpt>
      <trkpt lat="29.14562" lon="-13.51575">
        <ele>349.2</ele>
        <time>2021-07-03 14:58:10</time>
      </trkpt>
      <trkpt lat="29.14562" lon="-13.51578">
        <ele>349.2</ele>
        <time>2021-07-03 14:58:11</time>
      </trkpt>
      <trkpt lat="29.14562" lon="-13.5158">
        <ele>349.4</ele>
        <time>2021-07-03 14:58:12</time>
      </trkpt>
      <trkpt lat="29.14562" lon="-13.51582">
        <ele>349.4</ele>
        <time>2021-07-03 14:58:13</time>
      </trkpt>
      <trkpt lat="29.14562" lon="-13.51585">
        <ele>349.6</ele>
        <time>2021-07-03 14:58:14</time>
      </trkpt>
      <trkpt lat="29.14563" lon="-13.51587">
        <ele>349.6</ele>
        <time>2021-07-03 14:58:15</time>
      </trkpt>
      <trkpt lat="29.14563" lon="-13.51589">
        <ele>349.8</ele>
        <time>2021-07-03 14:58:16</time>
      </trkpt>
      <trkpt lat="29.14563" lon="-13.51592">
        <ele>349.8</ele>
        <time>2021-07-03 14:58:17</time>
      </trkpt>
      <trkpt lat="29.14563" lon="-13.51594">
        <ele>350</ele>
        <time>2021-07-03 14:58:18</time>
      </trkpt>
      <trkpt lat="29.14563" lon="-13.51597">
        <ele>350</ele>
        <time>2021-07-03 14:58:19</time>
      </trkpt>
      <trkpt lat="29.14563" lon="-13.51599">
        <ele>350</ele>
        <time>2021-07-03 14:58:20</time>
      </trkpt>
      <trkpt lat="29.14563" lon="-13.51602">
        <ele>350.4</ele>
        <time>2021-07-03 14:58:21</time>
      </trkpt>
      <trkpt lat="29.14562" lon="-13.51604">
        <ele>350.4</ele>
        <time>2021-07-03 14:58:22</time>
      </trkpt>
      <trkpt lat="29.14562" lon="-13.51606">
        <ele>350.6</ele>
        <time>2021-07-03 14:58:23</time>
      </trkpt>
      <trkpt lat="29.14562" lon="-13.51608">
        <ele>350.6</ele>
        <time>2021-07-03 14:58:24</time>
      </trkpt>
      <trkpt lat="29.14562" lon="-13.51611">
        <ele>350.6</ele>
        <time>2021-07-03 14:58:25</time>
      </trkpt>
      <trkpt lat="29.14562" lon="-13.51613">
        <ele>351</ele>
        <time>2021-07-03 14:58:26</time>
      </trkpt>
      <trkpt lat="29.14562" lon="-13.51615">
        <ele>351</ele>
        <time>2021-07-03 14:58:27</time>
      </trkpt>
      <trkpt lat="29.14562" lon="-13.51617">
        <ele>351.4</ele>
        <time>2021-07-03 14:58:28</time>
      </trkpt>
      <trkpt lat="29.14562" lon="-13.51619">
        <ele>351.4</ele>
        <time>2021-07-03 14:58:29</time>
      </trkpt>
      <trkpt lat="29.14562" lon="-13.51622">
        <ele>351.6</ele>
        <time>2021-07-03 14:58:30</time>
      </trkpt>
      <trkpt lat="29.14562" lon="-13.51624">
        <ele>351.6</ele>
        <time>2021-07-03 14:58:31</time>
      </trkpt>
      <trkpt lat="29.14562" lon="-13.51627">
        <ele>351.8</ele>
        <time>2021-07-03 14:58:32</time>
      </trkpt>
      <trkpt lat="29.14562" lon="-13.51629">
        <ele>351.8</ele>
        <time>2021-07-03 14:58:33</time>
      </trkpt>
      <trkpt lat="29.14562" lon="-13.51632">
        <ele>352.2</ele>
        <time>2021-07-03 14:58:44</time>
      </trkpt>
      <trkpt lat="29.14562" lon="-13.51634">
        <ele>352.2</ele>
        <time>2021-07-03 14:58:45</time>
      </trkpt>
      <trkpt lat="29.14562" lon="-13.51637">
        <ele>352.6</ele>
        <time>2021-07-03 14:58:46</time>
      </trkpt>
      <trkpt lat="29.14562" lon="-13.51639">
        <ele>352.6</ele>
        <time>2021-07-03 14:58:47</time>
      </trkpt>
      <trkpt lat="29.14562" lon="-13.51642">
        <ele>353</ele>
        <time>2021-07-03 14:58:48</time>
      </trkpt>
      <trkpt lat="29.14561" lon="-13.51645">
        <ele>353</ele>
        <time>2021-07-03 14:58:49</time>
      </trkpt>
      <trkpt lat="29.14561" lon="-13.51647">
        <ele>353</ele>
        <time>2021-07-03 14:58:50</time>
      </trkpt>
      <trkpt lat="29.14561" lon="-13.5165">
        <ele>353.4</ele>
        <time>2021-07-03 14:58:51</time>
      </trkpt>
      <trkpt lat="29.14562" lon="-13.51652">
        <ele>353.4</ele>
        <time>2021-07-03 14:58:52</time>
      </trkpt>
      <trkpt lat="29.14561" lon="-13.51654">
        <ele>353.6</ele>
        <time>2021-07-03 14:58:53</time>
      </trkpt>
      <trkpt lat="29.14561" lon="-13.51656">
        <ele>353.6</ele>
        <time>2021-07-03 14:58:54</time>
      </trkpt>
      <trkpt lat="29.14562" lon="-13.51659">
        <ele>354</ele>
        <time>2021-07-03 14:58:55</time>
      </trkpt>
      <trkpt lat="29.14562" lon="-13.51663">
        <ele>354.2</ele>
        <time>2021-07-03 14:58:56</time>
      </trkpt>
      <trkpt lat="29.14562" lon="-13.51665">
        <ele>354.4</ele>
        <time>2021-07-03 14:58:57</time>
      </trkpt>
      <trkpt lat="29.14562" lon="-13.51667">
        <ele>354.4</ele>
        <time>2021-07-03 14:58:58</time>
      </trkpt>
      <trkpt lat="29.14562" lon="-13.51669">
        <ele>354.8</ele>
        <time>2021-07-03 14:58:59</time>
      </trkpt>
      <trkpt lat="29.14561" lon="-13.51672">
        <ele>355</ele>
        <time>2021-07-03 14:59:00</time>
      </trkpt>
      <trkpt lat="29.14561" lon="-13.51674">
        <ele>355.4</ele>
        <time>2021-07-03 14:59:01</time>
      </trkpt>
      <trkpt lat="29.14561" lon="-13.51677">
        <ele>355.4</ele>
        <time>2021-07-03 14:59:02</time>
      </trkpt>
      <trkpt lat="29.14561" lon="-13.5168">
        <ele>355.6</ele>
        <time>2021-07-03 14:59:03</time>
      </trkpt>
      <trkpt lat="29.14561" lon="-13.51683">
        <ele>355.6</ele>
        <time>2021-07-03 14:59:04</time>
      </trkpt>
      <trkpt lat="29.14561" lon="-13.51688">
        <ele>356.2</ele>
        <time>2021-07-03 14:59:05</time>
      </trkpt>
      <trkpt lat="29.14561" lon="-13.5169">
        <ele>356.4</ele>
        <time>2021-07-03 14:59:06</time>
      </trkpt>
      <trkpt lat="29.14561" lon="-13.51693">
        <ele>356.4</ele>
        <time>2021-07-03 14:59:07</time>
      </trkpt>
      <trkpt lat="29.14561" lon="-13.51695">
        <ele>356.8</ele>
        <time>2021-07-03 14:59:08</time>
      </trkpt>
      <trkpt lat="29.14561" lon="-13.51698">
        <ele>356.8</ele>
        <time>2021-07-03 14:59:09</time>
      </trkpt>
      <trkpt lat="29.14561" lon="-13.51701">
        <ele>357.2</ele>
        <time>2021-07-03 14:59:10</time>
      </trkpt>
      <trkpt lat="29.14561" lon="-13.51703">
        <ele>357.2</ele>
        <time>2021-07-03 14:59:11</time>
      </trkpt>
      <trkpt lat="29.14561" lon="-13.51706">
        <ele>357.2</ele>
        <time>2021-07-03 14:59:12</time>
      </trkpt>
      <trkpt lat="29.14561" lon="-13.51709">
        <ele>357.4</ele>
        <time>2021-07-03 14:59:13</time>
      </trkpt>
      <trkpt lat="29.14561" lon="-13.51711">
        <ele>357.4</ele>
        <time>2021-07-03 14:59:14</time>
      </trkpt>
      <trkpt lat="29.14561" lon="-13.51714">
        <ele>357.8</ele>
        <time>2021-07-03 14:59:15</time>
      </trkpt>
      <trkpt lat="29.14561" lon="-13.51716">
        <ele>358</ele>
        <time>2021-07-03 14:59:16</time>
      </trkpt>
      <trkpt lat="29.14561" lon="-13.51718">
        <ele>358</ele>
        <time>2021-07-03 14:59:17</time>
      </trkpt>
      <trkpt lat="29.14561" lon="-13.51721">
        <ele>358.4</ele>
        <time>2021-07-03 14:59:18</time>
      </trkpt>
      <trkpt lat="29.14561" lon="-13.51723">
        <ele>358.4</ele>
        <time>2021-07-03 14:59:19</time>
      </trkpt>
      <trkpt lat="29.14561" lon="-13.51726">
        <ele>358.8</ele>
        <time>2021-07-03 14:59:20</time>
      </trkpt>
      <trkpt lat="29.14561" lon="-13.51728">
        <ele>359</ele>
        <time>2021-07-03 14:59:21</time>
      </trkpt>
      <trkpt lat="29.14562" lon="-13.5173">
        <ele>359</ele>
        <time>2021-07-03 14:59:22</time>
      </trkpt>
      <trkpt lat="29.14562" lon="-13.51733">
        <ele>359.4</ele>
        <time>2021-07-03 14:59:23</time>
      </trkpt>
      <trkpt lat="29.14562" lon="-13.51735">
        <ele>359.4</ele>
        <time>2021-07-03 14:59:24</time>
      </trkpt>
      <trkpt lat="29.14562" lon="-13.51738">
        <ele>359.6</ele>
        <time>2021-07-03 14:59:25</time>
      </trkpt>
      <trkpt lat="29.14562" lon="-13.5174">
        <ele>359.8</ele>
        <time>2021-07-03 14:59:26</time>
      </trkpt>
      <trkpt lat="29.14562" lon="-13.51742">
        <ele>359.8</ele>
        <time>2021-07-03 14:59:27</time>
      </trkpt>
      <trkpt lat="29.14561" lon="-13.51744">
        <ele>360.4</ele>
        <time>2021-07-03 14:59:28</time>
      </trkpt>
      <trkpt lat="29.14561" lon="-13.51747">
        <ele>360.6</ele>
        <time>2021-07-03 14:59:29</time>
      </trkpt>
      <trkpt lat="29.14561" lon="-13.5175">
        <ele>360.8</ele>
        <time>2021-07-03 14:59:30</time>
      </trkpt>
      <trkpt lat="29.14561" lon="-13.51752">
        <ele>361</ele>
        <time>2021-07-03 14:59:31</time>
      </trkpt>
      <trkpt lat="29.14561" lon="-13.51755">
        <ele>361.4</ele>
        <time>2021-07-03 14:59:32</time>
      </trkpt>
      <trkpt lat="29.14561" lon="-13.51757">
        <ele>361.6</ele>
        <time>2021-07-03 14:59:33</time>
      </trkpt>
      <trkpt lat="29.1456" lon="-13.5176">
        <ele>361.8</ele>
        <time>2021-07-03 14:59:34</time>
      </trkpt>
      <trkpt lat="29.1456" lon="-13.51762">
        <ele>362.2</ele>
        <time>2021-07-03 14:59:35</time>
      </trkpt>
      <trkpt lat="29.1456" lon="-13.51765">
        <ele>362.4</ele>
        <time>2021-07-03 14:59:36</time>
      </trkpt>
      <trkpt lat="29.1456" lon="-13.51767">
        <ele>362.6</ele>
        <time>2021-07-03 14:59:37</time>
      </trkpt>
      <trkpt lat="29.1456" lon="-13.5177">
        <ele>363</ele>
        <time>2021-07-03 14:59:38</time>
      </trkpt>
      <trkpt lat="29.1456" lon="-13.51772">
        <ele>363.2</ele>
        <time>2021-07-03 14:59:39</time>
      </trkpt>
      <trkpt lat="29.14559" lon="-13.51775">
        <ele>363.6</ele>
        <time>2021-07-03 14:59:40</time>
      </trkpt>
      <trkpt lat="29.14559" lon="-13.51777">
        <ele>363.6</ele>
        <time>2021-07-03 14:59:41</time>
      </trkpt>
      <trkpt lat="29.14558" lon="-13.5178">
        <ele>364</ele>
        <time>2021-07-03 14:59:42</time>
      </trkpt>
      <trkpt lat="29.14558" lon="-13.51782">
        <ele>364</ele>
        <time>2021-07-03 14:59:43</time>
      </trkpt>
      <trkpt lat="29.14558" lon="-13.51784">
        <ele>364.4</ele>
        <time>2021-07-03 14:59:44</time>
      </trkpt>
      <trkpt lat="29.14558" lon="-13.51787">
        <ele>364.8</ele>
        <time>2021-07-03 14:59:45</time>
      </trkpt>
      <trkpt lat="29.14558" lon="-13.51789">
        <ele>365</ele>
        <time>2021-07-03 14:59:46</time>
      </trkpt>
      <trkpt lat="29.14558" lon="-13.51791">
        <ele>365.2</ele>
        <time>2021-07-03 14:59:47</time>
      </trkpt>
      <trkpt lat="29.14558" lon="-13.51794">
        <ele>365.2</ele>
        <time>2021-07-03 14:59:48</time>
      </trkpt>
      <trkpt lat="29.14557" lon="-13.51796">
        <ele>365.6</ele>
        <time>2021-07-03 14:59:49</time>
      </trkpt>
      <trkpt lat="29.14557" lon="-13.51799">
        <ele>365.8</ele>
        <time>2021-07-03 14:59:50</time>
      </trkpt>
      <trkpt lat="29.14557" lon="-13.51801">
        <ele>366.2</ele>
        <time>2021-07-03 14:59:51</time>
      </trkpt>
      <trkpt lat="29.14557" lon="-13.51804">
        <ele>366.2</ele>
        <time>2021-07-03 14:59:52</time>
      </trkpt>
      <trkpt lat="29.14556" lon="-13.51806">
        <ele>366.4</ele>
        <time>2021-07-03 14:59:53</time>
      </trkpt>
      <trkpt lat="29.14556" lon="-13.51808">
        <ele>366.8</ele>
        <time>2021-07-03 14:59:54</time>
      </trkpt>
      <trkpt lat="29.14556" lon="-13.51811">
        <ele>367</ele>
        <time>2021-07-03 14:59:55</time>
      </trkpt>
      <trkpt lat="29.14555" lon="-13.51813">
        <ele>367.2</ele>
        <time>2021-07-03 14:59:56</time>
      </trkpt>
      <trkpt lat="29.14555" lon="-13.51815">
        <ele>367.4</ele>
        <time>2021-07-03 14:59:57</time>
      </trkpt>
      <trkpt lat="29.14554" lon="-13.51818">
        <ele>367.8</ele>
        <time>2021-07-03 14:59:58</time>
      </trkpt>
      <trkpt lat="29.14554" lon="-13.5182">
        <ele>367.8</ele>
        <time>2021-07-03 14:59:59</time>
      </trkpt>
      <trkpt lat="29.14554" lon="-13.51822">
        <ele>368</ele>
        <time>2021-07-03 15:00:00</time>
      </trkpt>
      <trkpt lat="29.14554" lon="-13.51825">
        <ele>368</ele>
        <time>2021-07-03 15:00:01</time>
      </trkpt>
      <trkpt lat="29.14554" lon="-13.51827">
        <ele>368.6</ele>
        <time>2021-07-03 15:00:02</time>
      </trkpt>
      <trkpt lat="29.14553" lon="-13.51829">
        <ele>368.8</ele>
        <time>2021-07-03 15:00:03</time>
      </trkpt>
      <trkpt lat="29.14553" lon="-13.51831">
        <ele>368.8</ele>
        <time>2021-07-03 15:00:04</time>
      </trkpt>
      <trkpt lat="29.14552" lon="-13.51834">
        <ele>369.2</ele>
        <time>2021-07-03 15:00:05</time>
      </trkpt>
      <trkpt lat="29.14551" lon="-13.51836">
        <ele>369.2</ele>
        <time>2021-07-03 15:00:06</time>
      </trkpt>
      <trkpt lat="29.14551" lon="-13.51839">
        <ele>369.6</ele>
        <time>2021-07-03 15:00:07</time>
      </trkpt>
      <trkpt lat="29.1455" lon="-13.51841">
        <ele>369.8</ele>
        <time>2021-07-03 15:00:08</time>
      </trkpt>
      <trkpt lat="29.1455" lon="-13.51844">
        <ele>369.8</ele>
        <time>2021-07-03 15:00:09</time>
      </trkpt>
      <trkpt lat="29.14549" lon="-13.51846">
        <ele>370.2</ele>
        <time>2021-07-03 15:00:10</time>
      </trkpt>
      <trkpt lat="29.14549" lon="-13.51848">
        <ele>370.6</ele>
        <time>2021-07-03 15:00:11</time>
      </trkpt>
      <trkpt lat="29.14548" lon="-13.51851">
        <ele>370.8</ele>
        <time>2021-07-03 15:00:12</time>
      </trkpt>
      <trkpt lat="29.14547" lon="-13.51853">
        <ele>371.2</ele>
        <time>2021-07-03 15:00:13</time>
      </trkpt>
      <trkpt lat="29.14547" lon="-13.51856">
        <ele>371.4</ele>
        <time>2021-07-03 15:00:14</time>
      </trkpt>
      <trkpt lat="29.14546" lon="-13.51858">
        <ele>371.6</ele>
        <time>2021-07-03 15:00:15</time>
      </trkpt>
      <trkpt lat="29.14545" lon="-13.5186">
        <ele>371.6</ele>
        <time>2021-07-03 15:00:16</time>
      </trkpt>
      <trkpt lat="29.14545" lon="-13.51862">
        <ele>372</ele>
        <time>2021-07-03 15:00:17</time>
      </trkpt>
      <trkpt lat="29.14544" lon="-13.51864">
        <ele>372.4</ele>
        <time>2021-07-03 15:00:18</time>
      </trkpt>
      <trkpt lat="29.14543" lon="-13.51865">
        <ele>372.4</ele>
        <time>2021-07-03 15:00:19</time>
      </trkpt>
      <trkpt lat="29.14543" lon="-13.51867">
        <ele>372.8</ele>
        <time>2021-07-03 15:00:20</time>
      </trkpt>
      <trkpt lat="29.14543" lon="-13.51869">
        <ele>372.8</ele>
        <time>2021-07-03 15:00:21</time>
      </trkpt>
      <trkpt lat="29.14543" lon="-13.51871">
        <ele>372.8</ele>
        <time>2021-07-03 15:00:22</time>
      </trkpt>
      <trkpt lat="29.14542" lon="-13.51873">
        <ele>373.2</ele>
        <time>2021-07-03 15:00:23</time>
      </trkpt>
      <trkpt lat="29.14541" lon="-13.51875">
        <ele>373.4</ele>
        <time>2021-07-03 15:00:24</time>
      </trkpt>
      <trkpt lat="29.14541" lon="-13.51877">
        <ele>373.4</ele>
        <time>2021-07-03 15:00:25</time>
      </trkpt>
      <trkpt lat="29.1454" lon="-13.51879">
        <ele>373.8</ele>
        <time>2021-07-03 15:00:26</time>
      </trkpt>
      <trkpt lat="29.14539" lon="-13.5188">
        <ele>373.8</ele>
        <time>2021-07-03 15:00:27</time>
      </trkpt>
      <trkpt lat="29.14538" lon="-13.51882">
        <ele>374</ele>
        <time>2021-07-03 15:00:28</time>
      </trkpt>
      <trkpt lat="29.14538" lon="-13.51885">
        <ele>374.2</ele>
        <time>2021-07-03 15:00:29</time>
      </trkpt>
      <trkpt lat="29.14538" lon="-13.51886">
        <ele>374.6</ele>
        <time>2021-07-03 15:00:30</time>
      </trkpt>
      <trkpt lat="29.14537" lon="-13.51888">
        <ele>374.8</ele>
        <time>2021-07-03 15:00:31</time>
      </trkpt>
      <trkpt lat="29.14536" lon="-13.5189">
        <ele>375</ele>
        <time>2021-07-03 15:00:32</time>
      </trkpt>
      <trkpt lat="29.14535" lon="-13.51892">
        <ele>375</ele>
        <time>2021-07-03 15:00:33</time>
      </trkpt>
      <trkpt lat="29.14534" lon="-13.51894">
        <ele>375.4</ele>
        <time>2021-07-03 15:00:34</time>
      </trkpt>
      <trkpt lat="29.14534" lon="-13.51896">
        <ele>375.6</ele>
        <time>2021-07-03 15:00:35</time>
      </trkpt>
      <trkpt lat="29.14533" lon="-13.51898">
        <ele>376</ele>
        <time>2021-07-03 15:00:36</time>
      </trkpt>
      <trkpt lat="29.14532" lon="-13.519">
        <ele>376.4</ele>
        <time>2021-07-03 15:00:37</time>
      </trkpt>
      <trkpt lat="29.14532" lon="-13.51901">
        <ele>376.8</ele>
        <time>2021-07-03 15:00:38</time>
      </trkpt>
      <trkpt lat="29.14531" lon="-13.51903">
        <ele>377.2</ele>
        <time>2021-07-03 15:00:39</time>
      </trkpt>
      <trkpt lat="29.14531" lon="-13.51905">
        <ele>377.6</ele>
        <time>2021-07-03 15:00:40</time>
      </trkpt>
      <trkpt lat="29.1453" lon="-13.51907">
        <ele>378</ele>
        <time>2021-07-03 15:00:41</time>
      </trkpt>
      <trkpt lat="29.14529" lon="-13.51909">
        <ele>378.4</ele>
        <time>2021-07-03 15:00:42</time>
      </trkpt>
      <trkpt lat="29.14528" lon="-13.51911">
        <ele>378.8</ele>
        <time>2021-07-03 15:00:43</time>
      </trkpt>
      <trkpt lat="29.14526" lon="-13.51913">
        <ele>379</ele>
        <time>2021-07-03 15:00:44</time>
      </trkpt>
      <trkpt lat="29.14525" lon="-13.51914">
        <ele>379</ele>
        <time>2021-07-03 15:00:45</time>
      </trkpt>
      <trkpt lat="29.14524" lon="-13.51916">
        <ele>379.4</ele>
        <time>2021-07-03 15:00:46</time>
      </trkpt>
      <trkpt lat="29.14522" lon="-13.51917">
        <ele>379.8</ele>
        <time>2021-07-03 15:00:47</time>
      </trkpt>
      <trkpt lat="29.14521" lon="-13.51918">
        <ele>380</ele>
        <time>2021-07-03 15:00:48</time>
      </trkpt>
      <trkpt lat="29.14519" lon="-13.51919">
        <ele>380.4</ele>
        <time>2021-07-03 15:00:49</time>
      </trkpt>
      <trkpt lat="29.14518" lon="-13.5192">
        <ele>380.6</ele>
        <time>2021-07-03 15:00:50</time>
      </trkpt>
      <trkpt lat="29.14516" lon="-13.51921">
        <ele>380.6</ele>
        <time>2021-07-03 15:00:51</time>
      </trkpt>
      <trkpt lat="29.14516" lon="-13.51922">
        <ele>381</ele>
        <time>2021-07-03 15:00:52</time>
      </trkpt>
      <trkpt lat="29.14515" lon="-13.51923">
        <ele>381.2</ele>
        <time>2021-07-03 15:00:53</time>
      </trkpt>
      <trkpt lat="29.14516" lon="-13.51925">
        <ele>381.2</ele>
        <time>2021-07-03 15:00:54</time>
      </trkpt>
      <trkpt lat="29.14516" lon="-13.51926">
        <ele>381.6</ele>
        <time>2021-07-03 15:00:55</time>
      </trkpt>
      <trkpt lat="29.14518" lon="-13.51927">
        <ele>381.6</ele>
        <time>2021-07-03 15:00:56</time>
      </trkpt>
      <trkpt lat="29.14519" lon="-13.51927">
        <ele>382</ele>
        <time>2021-07-03 15:00:57</time>
      </trkpt>
      <trkpt lat="29.1452" lon="-13.51928">
        <ele>382.2</ele>
        <time>2021-07-03 15:00:58</time>
      </trkpt>
      <trkpt lat="29.14521" lon="-13.51928">
        <ele>382.6</ele>
        <time>2021-07-03 15:00:59</time>
      </trkpt>
      <trkpt lat="29.14521" lon="-13.51928">
        <ele>383</ele>
        <time>2021-07-03 15:01:00</time>
      </trkpt>
      <trkpt lat="29.14521" lon="-13.51928">
        <ele>383</ele>
        <time>2021-07-03 15:01:01</time>
      </trkpt>
      <trkpt lat="29.14521" lon="-13.51928">
        <ele>383.4</ele>
        <time>2021-07-03 15:01:02</time>
      </trkpt>
      <trkpt lat="29.14521" lon="-13.51928">
        <ele>383.4</ele>
        <time>2021-07-03 15:01:03</time>
      </trkpt>
      <trkpt lat="29.1452" lon="-13.51931">
        <ele>384</ele>
        <time>2021-07-03 15:01:04</time>
      </trkpt>
      <trkpt lat="29.1452" lon="-13.51932">
        <ele>384</ele>
        <time>2021-07-03 15:01:05</time>
      </trkpt>
      <trkpt lat="29.1452" lon="-13.51933">
        <ele>384</ele>
        <time>2021-07-03 15:01:06</time>
      </trkpt>
      <trkpt lat="29.14519" lon="-13.51934">
        <ele>384</ele>
        <time>2021-07-03 15:01:07</time>
      </trkpt>
      <trkpt lat="29.14519" lon="-13.51934">
        <ele>384</ele>
        <time>2021-07-03 15:01:08</time>
      </trkpt>
      <trkpt lat="29.14519" lon="-13.51935">
        <ele>384</ele>
        <time>2021-07-03 15:01:09</time>
      </trkpt>
      <trkpt lat="29.14519" lon="-13.51934">
        <ele>384</ele>
        <time>2021-07-03 15:01:10</time>
      </trkpt>
      <trkpt lat="29.14518" lon="-13.51934">
        <ele>384</ele>
        <time>2021-07-03 15:01:11</time>
      </trkpt>
      <trkpt lat="29.1452" lon="-13.51933">
        <ele>385.4</ele>
        <time>2021-07-03 15:01:12</time>
      </trkpt>
      <trkpt lat="29.1452" lon="-13.51932">
        <ele>385.4</ele>
        <time>2021-07-03 15:01:13</time>
      </trkpt>
      <trkpt lat="29.14521" lon="-13.51931">
        <ele>385.4</ele>
        <time>2021-07-03 15:01:14</time>
      </trkpt>
      <trkpt lat="29.14521" lon="-13.51931">
        <ele>385.4</ele>
        <time>2021-07-03 15:01:15</time>
      </trkpt>
      <trkpt lat="29.14521" lon="-13.5193">
        <ele>385.4</ele>
        <time>2021-07-03 15:01:16</time>
      </trkpt>
      <trkpt lat="29.14521" lon="-13.5193">
        <ele>385.4</ele>
        <time>2021-07-03 15:01:17</time>
      </trkpt>
      <trkpt lat="29.14521" lon="-13.51929">
        <ele>385.2</ele>
        <time>2021-07-03 15:01:18</time>
      </trkpt>
      <trkpt lat="29.14521" lon="-13.51928">
        <ele>385.2</ele>
        <time>2021-07-03 15:01:19</time>
      </trkpt>
      <trkpt lat="29.14521" lon="-13.51927">
        <ele>385.2</ele>
        <time>2021-07-03 15:01:20</time>
      </trkpt>
      <trkpt lat="29.14521" lon="-13.51927">
        <ele>384.8</ele>
        <time>2021-07-03 15:01:21</time>
      </trkpt>
      <trkpt lat="29.1452" lon="-13.51926">
        <ele>384.8</ele>
        <time>2021-07-03 15:01:22</time>
      </trkpt>
      <trkpt lat="29.1452" lon="-13.51927">
        <ele>384.6</ele>
        <time>2021-07-03 15:01:23</time>
      </trkpt>
      <trkpt lat="29.1452" lon="-13.51927">
        <ele>384.6</ele>
        <time>2021-07-03 15:01:24</time>
      </trkpt>
      <trkpt lat="29.1452" lon="-13.51928">
        <ele>384.6</ele>
        <time>2021-07-03 15:01:25</time>
      </trkpt>
      <trkpt lat="29.14518" lon="-13.51927">
        <ele>385.4</ele>
        <time>2021-07-03 15:01:26</time>
      </trkpt>
      <trkpt lat="29.14516" lon="-13.51926">
        <ele>385.4</ele>
        <time>2021-07-03 15:01:27</time>
      </trkpt>
      <trkpt lat="29.14515" lon="-13.51925">
        <ele>385.4</ele>
        <time>2021-07-03 15:01:28</time>
      </trkpt>
      <trkpt lat="29.14514" lon="-13.51924">
        <ele>385.4</ele>
        <time>2021-07-03 15:01:29</time>
      </trkpt>
      <trkpt lat="29.14512" lon="-13.51923">
        <ele>385.4</ele>
        <time>2021-07-03 15:01:30</time>
      </trkpt>
      <trkpt lat="29.1451" lon="-13.51922">
        <ele>385.4</ele>
        <time>2021-07-03 15:01:31</time>
      </trkpt>
      <trkpt lat="29.14508" lon="-13.51921">
        <ele>385.2</ele>
        <time>2021-07-03 15:01:32</time>
      </trkpt>
      <trkpt lat="29.14507" lon="-13.51921">
        <ele>385.2</ele>
        <time>2021-07-03 15:01:33</time>
      </trkpt>
      <trkpt lat="29.14505" lon="-13.5192">
        <ele>385.2</ele>
        <time>2021-07-03 15:01:34</time>
      </trkpt>
      <trkpt lat="29.14503" lon="-13.51919">
        <ele>385.2</ele>
        <time>2021-07-03 15:01:35</time>
      </trkpt>
      <trkpt lat="29.14501" lon="-13.51919">
        <ele>385.2</ele>
        <time>2021-07-03 15:01:36</time>
      </trkpt>
      <trkpt lat="29.14499" lon="-13.51918">
        <ele>385.2</ele>
        <time>2021-07-03 15:01:37</time>
      </trkpt>
      <trkpt lat="29.14497" lon="-13.51917">
        <ele>385.2</ele>
        <time>2021-07-03 15:01:38</time>
      </trkpt>
      <trkpt lat="29.14495" lon="-13.51916">
        <ele>385.2</ele>
        <time>2021-07-03 15:01:39</time>
      </trkpt>
      <trkpt lat="29.14493" lon="-13.51915">
        <ele>385.4</ele>
        <time>2021-07-03 15:01:40</time>
      </trkpt>
      <trkpt lat="29.14491" lon="-13.51914">
        <ele>385.4</ele>
        <time>2021-07-03 15:01:41</time>
      </trkpt>
      <trkpt lat="29.14489" lon="-13.51913">
        <ele>385.4</ele>
        <time>2021-07-03 15:01:42</time>
      </trkpt>
      <trkpt lat="29.14487" lon="-13.51913">
        <ele>385.4</ele>
        <time>2021-07-03 15:01:43</time>
      </trkpt>
      <trkpt lat="29.14485" lon="-13.51912">
        <ele>385.4</ele>
        <time>2021-07-03 15:01:44</time>
      </trkpt>
      <trkpt lat="29.14483" lon="-13.51911">
        <ele>385.4</ele>
        <time>2021-07-03 15:01:45</time>
      </trkpt>
      <trkpt lat="29.14481" lon="-13.5191">
        <ele>385.6</ele>
        <time>2021-07-03 15:01:46</time>
      </trkpt>
      <trkpt lat="29.14479" lon="-13.51909">
        <ele>385.6</ele>
        <time>2021-07-03 15:01:47</time>
      </trkpt>
      <trkpt lat="29.14477" lon="-13.51908">
        <ele>386</ele>
        <time>2021-07-03 15:01:48</time>
      </trkpt>
      <trkpt lat="29.14475" lon="-13.51907">
        <ele>386</ele>
        <time>2021-07-03 15:01:49</time>
      </trkpt>
      <trkpt lat="29.14474" lon="-13.51906">
        <ele>386</ele>
        <time>2021-07-03 15:01:50</time>
      </trkpt>
      <trkpt lat="29.14472" lon="-13.51905">
        <ele>386.4</ele>
        <time>2021-07-03 15:01:53</time>
      </trkpt>
      <trkpt lat="29.14471" lon="-13.51903">
        <ele>386.6</ele>
        <time>2021-07-03 15:01:54</time>
      </trkpt>
      <trkpt lat="29.1447" lon="-13.51901">
        <ele>386.8</ele>
        <time>2021-07-03 15:01:55</time>
      </trkpt>
      <trkpt lat="29.14469" lon="-13.51899">
        <ele>387</ele>
        <time>2021-07-03 15:01:56</time>
      </trkpt>
      <trkpt lat="29.14468" lon="-13.51898">
        <ele>387</ele>
        <time>2021-07-03 15:01:57</time>
      </trkpt>
      <trkpt lat="29.14467" lon="-13.51896">
        <ele>387.4</ele>
        <time>2021-07-03 15:01:58</time>
      </trkpt>
      <trkpt lat="29.14466" lon="-13.51893">
        <ele>387.4</ele>
        <time>2021-07-03 15:01:59</time>
      </trkpt>
      <trkpt lat="29.14466" lon="-13.51891">
        <ele>387.8</ele>
        <time>2021-07-03 15:02:00</time>
      </trkpt>
      <trkpt lat="29.14465" lon="-13.5189">
        <ele>387.8</ele>
        <time>2021-07-03 15:06:01</time>
      </trkpt>
      <trkpt lat="29.14465" lon="-13.51888">
        <ele>388.2</ele>
        <time>2021-07-03 15:06:02</time>
      </trkpt>
      <trkpt lat="29.14465" lon="-13.51885">
        <ele>388.2</ele>
        <time>2021-07-03 15:06:03</time>
      </trkpt>
      <trkpt lat="29.14465" lon="-13.51883">
        <ele>388.2</ele>
        <time>2021-07-03 15:06:04</time>
      </trkpt>
      <trkpt lat="29.14465" lon="-13.51881">
        <ele>388.4</ele>
        <time>2021-07-03 15:06:05</time>
      </trkpt>
      <trkpt lat="29.14465" lon="-13.51878">
        <ele>388.4</ele>
        <time>2021-07-03 15:06:06</time>
      </trkpt>
      <trkpt lat="29.14465" lon="-13.51876">
        <ele>388.4</ele>
        <time>2021-07-03 15:06:07</time>
      </trkpt>
      <trkpt lat="29.14464" lon="-13.51874">
        <ele>388.4</ele>
        <time>2021-07-03 15:06:08</time>
      </trkpt>
      <trkpt lat="29.14464" lon="-13.51871">
        <ele>388.4</ele>
        <time>2021-07-03 15:06:09</time>
      </trkpt>
      <trkpt lat="29.14464" lon="-13.51869">
        <ele>388.8</ele>
        <time>2021-07-03 15:06:10</time>
      </trkpt>
      <trkpt lat="29.14463" lon="-13.51867">
        <ele>388.8</ele>
        <time>2021-07-03 15:06:11</time>
      </trkpt>
      <trkpt lat="29.14463" lon="-13.51864">
        <ele>388.8</ele>
        <time>2021-07-03 15:06:12</time>
      </trkpt>
      <trkpt lat="29.14463" lon="-13.51862">
        <ele>388.8</ele>
        <time>2021-07-03 15:06:13</time>
      </trkpt>
      <trkpt lat="29.14462" lon="-13.51859">
        <ele>388.8</ele>
        <time>2021-07-03 15:06:14</time>
      </trkpt>
      <trkpt lat="29.14462" lon="-13.51857">
        <ele>388.8</ele>
        <time>2021-07-03 15:06:45</time>
      </trkpt>
      <trkpt lat="29.14461" lon="-13.51855">
        <ele>388.8</ele>
        <time>2021-07-03 15:06:46</time>
      </trkpt>
      <trkpt lat="29.14461" lon="-13.51852">
        <ele>389</ele>
        <time>2021-07-03 15:06:47</time>
      </trkpt>
      <trkpt lat="29.1446" lon="-13.5185">
        <ele>389</ele>
        <time>2021-07-03 15:06:48</time>
      </trkpt>
      <trkpt lat="29.1446" lon="-13.51848">
        <ele>389</ele>
        <time>2021-07-03 15:06:49</time>
      </trkpt>
      <trkpt lat="29.14459" lon="-13.51845">
        <ele>389.2</ele>
        <time>2021-07-03 15:06:50</time>
      </trkpt>
      <trkpt lat="29.14458" lon="-13.51843">
        <ele>389.2</ele>
        <time>2021-07-03 15:06:51</time>
      </trkpt>
      <trkpt lat="29.14458" lon="-13.51841">
        <ele>389.2</ele>
        <time>2021-07-03 15:06:52</time>
      </trkpt>
      <trkpt lat="29.14457" lon="-13.51839">
        <ele>389.4</ele>
        <time>2021-07-03 15:06:53</time>
      </trkpt>
      <trkpt lat="29.14457" lon="-13.51836">
        <ele>389.4</ele>
        <time>2021-07-03 15:06:54</time>
      </trkpt>
      <trkpt lat="29.14456" lon="-13.51834">
        <ele>389.4</ele>
        <time>2021-07-03 15:06:55</time>
      </trkpt>
      <trkpt lat="29.14456" lon="-13.51832">
        <ele>389.4</ele>
        <time>2021-07-03 15:06:56</time>
      </trkpt>
      <trkpt lat="29.14455" lon="-13.51829">
        <ele>389.4</ele>
        <time>2021-07-03 15:06:57</time>
      </trkpt>
      <trkpt lat="29.14455" lon="-13.51827">
        <ele>389.4</ele>
        <time>2021-07-03 15:06:58</time>
      </trkpt>
      <trkpt lat="29.14454" lon="-13.51825">
        <ele>389.4</ele>
        <time>2021-07-03 15:06:59</time>
      </trkpt>
      <trkpt lat="29.14454" lon="-13.51823">
        <ele>389.4</ele>
        <time>2021-07-03 15:07:00</time>
      </trkpt>
      <trkpt lat="29.14453" lon="-13.51821">
        <ele>389.4</ele>
        <time>2021-07-03 15:07:01</time>
      </trkpt>
      <trkpt lat="29.14453" lon="-13.51818">
        <ele>389.4</ele>
        <time>2021-07-03 15:07:02</time>
      </trkpt>
      <trkpt lat="29.14452" lon="-13.51816">
        <ele>389.4</ele>
        <time>2021-07-03 15:07:03</time>
      </trkpt>
      <trkpt lat="29.14452" lon="-13.51813">
        <ele>389.4</ele>
        <time>2021-07-03 15:07:04</time>
      </trkpt>
      <trkpt lat="29.14451" lon="-13.51811">
        <ele>389.4</ele>
        <time>2021-07-03 15:07:05</time>
      </trkpt>
      <trkpt lat="29.1445" lon="-13.51808">
        <ele>389.2</ele>
        <time>2021-07-03 15:07:06</time>
      </trkpt>
      <trkpt lat="29.1445" lon="-13.51806">
        <ele>389.2</ele>
        <time>2021-07-03 15:07:07</time>
      </trkpt>
      <trkpt lat="29.14449" lon="-13.51804">
        <ele>389.2</ele>
        <time>2021-07-03 15:07:08</time>
      </trkpt>
      <trkpt lat="29.14449" lon="-13.51802">
        <ele>389.2</ele>
        <time>2021-07-03 15:07:09</time>
      </trkpt>
      <trkpt lat="29.14449" lon="-13.51801">
        <ele>389.2</ele>
        <time>2021-07-03 15:07:10</time>
      </trkpt>
      <trkpt lat="29.14448" lon="-13.51799">
        <ele>389.2</ele>
        <time>2021-07-03 15:07:11</time>
      </trkpt>
      <trkpt lat="29.14448" lon="-13.51797">
        <ele>389.2</ele>
        <time>2021-07-03 15:07:12</time>
      </trkpt>
      <trkpt lat="29.14447" lon="-13.51794">
        <ele>389.4</ele>
        <time>2021-07-03 15:07:13</time>
      </trkpt>
      <trkpt lat="29.14446" lon="-13.51792">
        <ele>389.4</ele>
        <time>2021-07-03 15:07:14</time>
      </trkpt>
      <trkpt lat="29.14446" lon="-13.5179">
        <ele>389.4</ele>
        <time>2021-07-03 15:07:15</time>
      </trkpt>
      <trkpt lat="29.14445" lon="-13.51788">
        <ele>389.6</ele>
        <time>2021-07-03 15:07:16</time>
      </trkpt>
      <trkpt lat="29.14444" lon="-13.51786">
        <ele>389.6</ele>
        <time>2021-07-03 15:07:17</time>
      </trkpt>
      <trkpt lat="29.14443" lon="-13.51783">
        <ele>389.6</ele>
        <time>2021-07-03 15:07:18</time>
      </trkpt>
      <trkpt lat="29.14443" lon="-13.51781">
        <ele>389.6</ele>
        <time>2021-07-03 15:07:19</time>
      </trkpt>
      <trkpt lat="29.14442" lon="-13.51779">
        <ele>390</ele>
        <time>2021-07-03 15:07:20</time>
      </trkpt>
      <trkpt lat="29.14442" lon="-13.51777">
        <ele>390.2</ele>
        <time>2021-07-03 15:07:21</time>
      </trkpt>
      <trkpt lat="29.14441" lon="-13.51774">
        <ele>390.2</ele>
        <time>2021-07-03 15:07:22</time>
      </trkpt>
      <trkpt lat="29.1444" lon="-13.51772">
        <ele>390.2</ele>
        <time>2021-07-03 15:07:23</time>
      </trkpt>
      <trkpt lat="29.14439" lon="-13.5177">
        <ele>390.2</ele>
        <time>2021-07-03 15:07:24</time>
      </trkpt>
      <trkpt lat="29.14439" lon="-13.51768">
        <ele>390.2</ele>
        <time>2021-07-03 15:07:25</time>
      </trkpt>
      <trkpt lat="29.14438" lon="-13.51766">
        <ele>390.4</ele>
        <time>2021-07-03 15:07:26</time>
      </trkpt>
      <trkpt lat="29.14437" lon="-13.51763">
        <ele>390.4</ele>
        <time>2021-07-03 15:07:27</time>
      </trkpt>
      <trkpt lat="29.14436" lon="-13.51761">
        <ele>390.6</ele>
        <time>2021-07-03 15:07:28</time>
      </trkpt>
      <trkpt lat="29.14435" lon="-13.51759">
        <ele>390.6</ele>
        <time>2021-07-03 15:07:29</time>
      </trkpt>
      <trkpt lat="29.14434" lon="-13.51756">
        <ele>391</ele>
        <time>2021-07-03 15:07:30</time>
      </trkpt>
      <trkpt lat="29.14433" lon="-13.51754">
        <ele>391</ele>
        <time>2021-07-03 15:07:31</time>
      </trkpt>
      <trkpt lat="29.14432" lon="-13.51752">
        <ele>391.4</ele>
        <time>2021-07-03 15:07:32</time>
      </trkpt>
      <trkpt lat="29.14431" lon="-13.51749">
        <ele>391.4</ele>
        <time>2021-07-03 15:07:33</time>
      </trkpt>
      <trkpt lat="29.1443" lon="-13.51747">
        <ele>391.6</ele>
        <time>2021-07-03 15:07:34</time>
      </trkpt>
      <trkpt lat="29.14429" lon="-13.51745">
        <ele>391.6</ele>
        <time>2021-07-03 15:07:35</time>
      </trkpt>
      <trkpt lat="29.14428" lon="-13.51743">
        <ele>391.8</ele>
        <time>2021-07-03 15:07:36</time>
      </trkpt>
      <trkpt lat="29.14427" lon="-13.5174">
        <ele>391.8</ele>
        <time>2021-07-03 15:07:37</time>
      </trkpt>
      <trkpt lat="29.14426" lon="-13.51738">
        <ele>391.8</ele>
        <time>2021-07-03 15:07:38</time>
      </trkpt>
      <trkpt lat="29.14425" lon="-13.51735">
        <ele>391.8</ele>
        <time>2021-07-03 15:07:39</time>
      </trkpt>
      <trkpt lat="29.14424" lon="-13.51733">
        <ele>391.8</ele>
        <time>2021-07-03 15:07:40</time>
      </trkpt>
      <trkpt lat="29.14422" lon="-13.5173">
        <ele>391.8</ele>
        <time>2021-07-03 15:07:41</time>
      </trkpt>
      <trkpt lat="29.14421" lon="-13.51728">
        <ele>392.2</ele>
        <time>2021-07-03 15:07:42</time>
      </trkpt>
      <trkpt lat="29.1442" lon="-13.51725">
        <ele>392.2</ele>
        <time>2021-07-03 15:07:43</time>
      </trkpt>
      <trkpt lat="29.14419" lon="-13.51722">
        <ele>392.2</ele>
        <time>2021-07-03 15:07:44</time>
      </trkpt>
      <trkpt lat="29.14418" lon="-13.5172">
        <ele>392.2</ele>
        <time>2021-07-03 15:07:45</time>
      </trkpt>
      <trkpt lat="29.14417" lon="-13.51717">
        <ele>392.4</ele>
        <time>2021-07-03 15:07:46</time>
      </trkpt>
      <trkpt lat="29.14416" lon="-13.51714">
        <ele>392.4</ele>
        <time>2021-07-03 15:07:47</time>
      </trkpt>
      <trkpt lat="29.14415" lon="-13.51712">
        <ele>392.6</ele>
        <time>2021-07-03 15:07:48</time>
      </trkpt>
      <trkpt lat="29.14414" lon="-13.5171">
        <ele>392.6</ele>
        <time>2021-07-03 15:07:49</time>
      </trkpt>
      <trkpt lat="29.14413" lon="-13.51707">
        <ele>392.8</ele>
        <time>2021-07-03 15:07:50</time>
      </trkpt>
      <trkpt lat="29.14411" lon="-13.51705">
        <ele>392.8</ele>
        <time>2021-07-03 15:07:51</time>
      </trkpt>
      <trkpt lat="29.1441" lon="-13.51703">
        <ele>393</ele>
        <time>2021-07-03 15:07:52</time>
      </trkpt>
      <trkpt lat="29.14409" lon="-13.517">
        <ele>393</ele>
        <time>2021-07-03 15:07:53</time>
      </trkpt>
      <trkpt lat="29.14408" lon="-13.51698">
        <ele>393.4</ele>
        <time>2021-07-03 15:07:54</time>
      </trkpt>
      <trkpt lat="29.14407" lon="-13.51696">
        <ele>393.4</ele>
        <time>2021-07-03 15:07:55</time>
      </trkpt>
      <trkpt lat="29.14405" lon="-13.51694">
        <ele>393.8</ele>
        <time>2021-07-03 15:07:56</time>
      </trkpt>
      <trkpt lat="29.14403" lon="-13.51692">
        <ele>393.8</ele>
        <time>2021-07-03 15:07:57</time>
      </trkpt>
      <trkpt lat="29.14402" lon="-13.5169">
        <ele>394</ele>
        <time>2021-07-03 15:07:58</time>
      </trkpt>
      <trkpt lat="29.144" lon="-13.51688">
        <ele>394</ele>
        <time>2021-07-03 15:07:59</time>
      </trkpt>
      <trkpt lat="29.14399" lon="-13.51686">
        <ele>394</ele>
        <time>2021-07-03 15:08:00</time>
      </trkpt>
      <trkpt lat="29.14397" lon="-13.51684">
        <ele>394</ele>
        <time>2021-07-03 15:08:01</time>
      </trkpt>
      <trkpt lat="29.14394" lon="-13.51682">
        <ele>394</ele>
        <time>2021-07-03 15:08:02</time>
      </trkpt>
      <trkpt lat="29.14392" lon="-13.51681">
        <ele>394.2</ele>
        <time>2021-07-03 15:08:03</time>
      </trkpt>
      <trkpt lat="29.14391" lon="-13.5168">
        <ele>394.2</ele>
        <time>2021-07-03 15:08:04</time>
      </trkpt>
      <trkpt lat="29.14389" lon="-13.51678">
        <ele>394.2</ele>
        <time>2021-07-03 15:08:05</time>
      </trkpt>
      <trkpt lat="29.14387" lon="-13.51677">
        <ele>394.2</ele>
        <time>2021-07-03 15:08:06</time>
      </trkpt>
      <trkpt lat="29.14385" lon="-13.51675">
        <ele>394.4</ele>
        <time>2021-07-03 15:08:07</time>
      </trkpt>
      <trkpt lat="29.14383" lon="-13.51673">
        <ele>394.4</ele>
        <time>2021-07-03 15:08:08</time>
      </trkpt>
      <trkpt lat="29.14382" lon="-13.51671">
        <ele>394.8</ele>
        <time>2021-07-03 15:08:09</time>
      </trkpt>
      <trkpt lat="29.1438" lon="-13.51669">
        <ele>394.8</ele>
        <time>2021-07-03 15:08:10</time>
      </trkpt>
      <trkpt lat="29.14379" lon="-13.51667">
        <ele>395</ele>
        <time>2021-07-03 15:08:11</time>
      </trkpt>
      <trkpt lat="29.14377" lon="-13.51665">
        <ele>395</ele>
        <time>2021-07-03 15:08:12</time>
      </trkpt>
      <trkpt lat="29.14376" lon="-13.51663">
        <ele>395.2</ele>
        <time>2021-07-03 15:08:13</time>
      </trkpt>
      <trkpt lat="29.14374" lon="-13.51661">
        <ele>395.2</ele>
        <time>2021-07-03 15:08:14</time>
      </trkpt>
      <trkpt lat="29.14373" lon="-13.51658">
        <ele>395.2</ele>
        <time>2021-07-03 15:08:15</time>
      </trkpt>
      <trkpt lat="29.14372" lon="-13.51656">
        <ele>395.2</ele>
        <time>2021-07-03 15:08:16</time>
      </trkpt>
      <trkpt lat="29.14371" lon="-13.51653">
        <ele>395.2</ele>
        <time>2021-07-03 15:08:17</time>
      </trkpt>
      <trkpt lat="29.14369" lon="-13.5165">
        <ele>395.2</ele>
        <time>2021-07-03 15:08:18</time>
      </trkpt>
      <trkpt lat="29.14368" lon="-13.51647">
        <ele>395.2</ele>
        <time>2021-07-03 15:08:19</time>
      </trkpt>
      <trkpt lat="29.14366" lon="-13.51644">
        <ele>395.2</ele>
        <time>2021-07-03 15:08:20</time>
      </trkpt>
      <trkpt lat="29.14365" lon="-13.51641">
        <ele>395.2</ele>
        <time>2021-07-03 15:08:21</time>
      </trkpt>
      <trkpt lat="29.14364" lon="-13.51638">
        <ele>395.2</ele>
        <time>2021-07-03 15:08:22</time>
      </trkpt>
      <trkpt lat="29.14362" lon="-13.51636">
        <ele>395.2</ele>
        <time>2021-07-03 15:08:23</time>
      </trkpt>
      <trkpt lat="29.14361" lon="-13.51633">
        <ele>395.2</ele>
        <time>2021-07-03 15:08:24</time>
      </trkpt>
      <trkpt lat="29.1436" lon="-13.5163">
        <ele>395.2</ele>
        <time>2021-07-03 15:08:25</time>
      </trkpt>
      <trkpt lat="29.14359" lon="-13.51628">
        <ele>395.2</ele>
        <time>2021-07-03 15:08:26</time>
      </trkpt>
      <trkpt lat="29.14358" lon="-13.51625">
        <ele>395</ele>
        <time>2021-07-03 15:08:27</time>
      </trkpt>
      <trkpt lat="29.14357" lon="-13.51622">
        <ele>395</ele>
        <time>2021-07-03 15:08:28</time>
      </trkpt>
      <trkpt lat="29.14356" lon="-13.51619">
        <ele>395</ele>
        <time>2021-07-03 15:08:29</time>
      </trkpt>
      <trkpt lat="29.14355" lon="-13.51616">
        <ele>395</ele>
        <time>2021-07-03 15:08:30</time>
      </trkpt>
      <trkpt lat="29.14354" lon="-13.51613">
        <ele>395</ele>
        <time>2021-07-03 15:08:31</time>
      </trkpt>
      <trkpt lat="29.14353" lon="-13.5161">
        <ele>394.8</ele>
        <time>2021-07-03 15:08:32</time>
      </trkpt>
      <trkpt lat="29.14352" lon="-13.51607">
        <ele>394.8</ele>
        <time>2021-07-03 15:08:33</time>
      </trkpt>
      <trkpt lat="29.14351" lon="-13.51603">
        <ele>394.8</ele>
        <time>2021-07-03 15:08:34</time>
      </trkpt>
      <trkpt lat="29.1435" lon="-13.516">
        <ele>394.8</ele>
        <time>2021-07-03 15:08:35</time>
      </trkpt>
      <trkpt lat="29.14349" lon="-13.51596">
        <ele>394.8</ele>
        <time>2021-07-03 15:08:36</time>
      </trkpt>
      <trkpt lat="29.14349" lon="-13.51593">
        <ele>394.8</ele>
        <time>2021-07-03 15:08:37</time>
      </trkpt>
      <trkpt lat="29.14347" lon="-13.51589">
        <ele>394.8</ele>
        <time>2021-07-03 15:08:38</time>
      </trkpt>
      <trkpt lat="29.14346" lon="-13.51586">
        <ele>394.8</ele>
        <time>2021-07-03 15:08:39</time>
      </trkpt>
      <trkpt lat="29.14345" lon="-13.51583">
        <ele>394.8</ele>
        <time>2021-07-03 15:08:40</time>
      </trkpt>
      <trkpt lat="29.14343" lon="-13.51579">
        <ele>394.8</ele>
        <time>2021-07-03 15:08:41</time>
      </trkpt>
      <trkpt lat="29.14342" lon="-13.51576">
        <ele>394.4</ele>
        <time>2021-07-03 15:08:42</time>
      </trkpt>
      <trkpt lat="29.14341" lon="-13.51574">
        <ele>394.4</ele>
        <time>2021-07-03 15:08:43</time>
      </trkpt>
      <trkpt lat="29.1434" lon="-13.51571">
        <ele>394.4</ele>
        <time>2021-07-03 15:08:44</time>
      </trkpt>
      <trkpt lat="29.14338" lon="-13.51568">
        <ele>394.4</ele>
        <time>2021-07-03 15:08:45</time>
      </trkpt>
      <trkpt lat="29.14336" lon="-13.51566">
        <ele>394.4</ele>
        <time>2021-07-03 15:08:46</time>
      </trkpt>
      <trkpt lat="29.14334" lon="-13.51562">
        <ele>394.4</ele>
        <time>2021-07-03 15:08:47</time>
      </trkpt>
      <trkpt lat="29.14333" lon="-13.5156">
        <ele>394.4</ele>
        <time>2021-07-03 15:08:48</time>
      </trkpt>
      <trkpt lat="29.14331" lon="-13.51557">
        <ele>394.4</ele>
        <time>2021-07-03 15:08:49</time>
      </trkpt>
      <trkpt lat="29.1433" lon="-13.51554">
        <ele>394.2</ele>
        <time>2021-07-03 15:08:50</time>
      </trkpt>
      <trkpt lat="29.14328" lon="-13.51551">
        <ele>394.2</ele>
        <time>2021-07-03 15:08:51</time>
      </trkpt>
      <trkpt lat="29.14326" lon="-13.51547">
        <ele>394</ele>
        <time>2021-07-03 15:08:52</time>
      </trkpt>
      <trkpt lat="29.14324" lon="-13.51543">
        <ele>394</ele>
        <time>2021-07-03 15:08:53</time>
      </trkpt>
      <trkpt lat="29.14322" lon="-13.51539">
        <ele>394</ele>
        <time>2021-07-03 15:08:54</time>
      </trkpt>
      <trkpt lat="29.1432" lon="-13.51535">
        <ele>394</ele>
        <time>2021-07-03 15:08:55</time>
      </trkpt>
      <trkpt lat="29.14318" lon="-13.51532">
        <ele>393.8</ele>
        <time>2021-07-03 15:08:56</time>
      </trkpt>
      <trkpt lat="29.14316" lon="-13.51529">
        <ele>393.8</ele>
        <time>2021-07-03 15:08:57</time>
      </trkpt>
      <trkpt lat="29.14313" lon="-13.51526">
        <ele>393.8</ele>
        <time>2021-07-03 15:08:58</time>
      </trkpt>
      <trkpt lat="29.14311" lon="-13.51523">
        <ele>393.8</ele>
        <time>2021-07-03 15:08:59</time>
      </trkpt>
      <trkpt lat="29.14308" lon="-13.5152">
        <ele>393.8</ele>
        <time>2021-07-03 15:09:00</time>
      </trkpt>
      <trkpt lat="29.14305" lon="-13.51518">
        <ele>393.8</ele>
        <time>2021-07-03 15:09:01</time>
      </trkpt>
      <trkpt lat="29.14302" lon="-13.51515">
        <ele>393.8</ele>
        <time>2021-07-03 15:09:02</time>
      </trkpt>
      <trkpt lat="29.14299" lon="-13.51512">
        <ele>393.8</ele>
        <time>2021-07-03 15:09:03</time>
      </trkpt>
      <trkpt lat="29.14297" lon="-13.5151">
        <ele>393.8</ele>
        <time>2021-07-03 15:09:04</time>
      </trkpt>
      <trkpt lat="29.14294" lon="-13.51507">
        <ele>393.8</ele>
        <time>2021-07-03 15:09:05</time>
      </trkpt>
      <trkpt lat="29.14291" lon="-13.51505">
        <ele>393.8</ele>
        <time>2021-07-03 15:09:06</time>
      </trkpt>
      <trkpt lat="29.14288" lon="-13.51503">
        <ele>394</ele>
        <time>2021-07-03 15:09:07</time>
      </trkpt>
      <trkpt lat="29.14286" lon="-13.51501">
        <ele>394</ele>
        <time>2021-07-03 15:09:08</time>
      </trkpt>
      <trkpt lat="29.14284" lon="-13.51499">
        <ele>394</ele>
        <time>2021-07-03 15:09:09</time>
      </trkpt>
      <trkpt lat="29.14281" lon="-13.51498">
        <ele>394.2</ele>
        <time>2021-07-03 15:09:10</time>
      </trkpt>
      <trkpt lat="29.14279" lon="-13.51496">
        <ele>394.2</ele>
        <time>2021-07-03 15:09:11</time>
      </trkpt>
      <trkpt lat="29.14277" lon="-13.51494">
        <ele>394.2</ele>
        <time>2021-07-03 15:09:12</time>
      </trkpt>
      <trkpt lat="29.14275" lon="-13.51492">
        <ele>394.2</ele>
        <time>2021-07-03 15:09:13</time>
      </trkpt>
      <trkpt lat="29.14273" lon="-13.51489">
        <ele>394.4</ele>
        <time>2021-07-03 15:09:14</time>
      </trkpt>
      <trkpt lat="29.14271" lon="-13.51486">
        <ele>394.4</ele>
        <time>2021-07-03 15:09:15</time>
      </trkpt>
      <trkpt lat="29.14268" lon="-13.51483">
        <ele>394.4</ele>
        <time>2021-07-03 15:09:16</time>
      </trkpt>
      <trkpt lat="29.14266" lon="-13.51479">
        <ele>394.4</ele>
        <time>2021-07-03 15:09:17</time>
      </trkpt>
      <trkpt lat="29.14263" lon="-13.51476">
        <ele>394.4</ele>
        <time>2021-07-03 15:09:18</time>
      </trkpt>
      <trkpt lat="29.1426" lon="-13.51473">
        <ele>394.4</ele>
        <time>2021-07-03 15:09:19</time>
      </trkpt>
      <trkpt lat="29.14258" lon="-13.5147">
        <ele>394.4</ele>
        <time>2021-07-03 15:09:20</time>
      </trkpt>
      <trkpt lat="29.14255" lon="-13.51467">
        <ele>394.4</ele>
        <time>2021-07-03 15:09:21</time>
      </trkpt>
      <trkpt lat="29.14253" lon="-13.51464">
        <ele>394.4</ele>
        <time>2021-07-03 15:09:22</time>
      </trkpt>
      <trkpt lat="29.1425" lon="-13.51461">
        <ele>394.4</ele>
        <time>2021-07-03 15:09:23</time>
      </trkpt>
      <trkpt lat="29.14247" lon="-13.51457">
        <ele>394.4</ele>
        <time>2021-07-03 15:09:24</time>
      </trkpt>
      <trkpt lat="29.14244" lon="-13.51454">
        <ele>394.4</ele>
        <time>2021-07-03 15:09:25</time>
      </trkpt>
      <trkpt lat="29.14241" lon="-13.5145">
        <ele>394.4</ele>
        <time>2021-07-03 15:09:26</time>
      </trkpt>
      <trkpt lat="29.14238" lon="-13.51446">
        <ele>394.4</ele>
        <time>2021-07-03 15:09:27</time>
      </trkpt>
      <trkpt lat="29.14236" lon="-13.51443">
        <ele>394.4</ele>
        <time>2021-07-03 15:09:28</time>
      </trkpt>
      <trkpt lat="29.14233" lon="-13.51439">
        <ele>394.4</ele>
        <time>2021-07-03 15:09:29</time>
      </trkpt>
      <trkpt lat="29.14229" lon="-13.51435">
        <ele>394.2</ele>
        <time>2021-07-03 15:09:30</time>
      </trkpt>
      <trkpt lat="29.14226" lon="-13.51431">
        <ele>394.2</ele>
        <time>2021-07-03 15:09:31</time>
      </trkpt>
      <trkpt lat="29.14223" lon="-13.51426">
        <ele>394.2</ele>
        <time>2021-07-03 15:09:32</time>
      </trkpt>
      <trkpt lat="29.1422" lon="-13.51421">
        <ele>394</ele>
        <time>2021-07-03 15:09:33</time>
      </trkpt>
      <trkpt lat="29.14217" lon="-13.51417">
        <ele>394</ele>
        <time>2021-07-03 15:09:34</time>
      </trkpt>
      <trkpt lat="29.14214" lon="-13.51413">
        <ele>394</ele>
        <time>2021-07-03 15:09:35</time>
      </trkpt>
      <trkpt lat="29.14211" lon="-13.51408">
        <ele>393.6</ele>
        <time>2021-07-03 15:09:36</time>
      </trkpt>
      <trkpt lat="29.14208" lon="-13.51402">
        <ele>393.6</ele>
        <time>2021-07-03 15:09:37</time>
      </trkpt>
      <trkpt lat="29.14205" lon="-13.51398">
        <ele>393.4</ele>
        <time>2021-07-03 15:09:38</time>
      </trkpt>
      <trkpt lat="29.14202" lon="-13.51392">
        <ele>393.4</ele>
        <time>2021-07-03 15:09:39</time>
      </trkpt>
      <trkpt lat="29.14198" lon="-13.51387">
        <ele>393.4</ele>
        <time>2021-07-03 15:09:40</time>
      </trkpt>
      <trkpt lat="29.14195" lon="-13.51382">
        <ele>393</ele>
        <time>2021-07-03 15:09:41</time>
      </trkpt>
      <trkpt lat="29.14192" lon="-13.51377">
        <ele>393</ele>
        <time>2021-07-03 15:09:42</time>
      </trkpt>
      <trkpt lat="29.14187" lon="-13.51373">
        <ele>392.8</ele>
        <time>2021-07-03 15:09:43</time>
      </trkpt>
      <trkpt lat="29.14184" lon="-13.51368">
        <ele>392.8</ele>
        <time>2021-07-03 15:09:44</time>
      </trkpt>
      <trkpt lat="29.14181" lon="-13.51363">
        <ele>392.6</ele>
        <time>2021-07-03 15:09:45</time>
      </trkpt>
      <trkpt lat="29.14178" lon="-13.51357">
        <ele>392.6</ele>
        <time>2021-07-03 15:09:46</time>
      </trkpt>
      <trkpt lat="29.14175" lon="-13.51352">
        <ele>392.6</ele>
        <time>2021-07-03 15:09:47</time>
      </trkpt>
      <trkpt lat="29.14172" lon="-13.51346">
        <ele>392.2</ele>
        <time>2021-07-03 15:09:48</time>
      </trkpt>
      <trkpt lat="29.14169" lon="-13.5134">
        <ele>392</ele>
        <time>2021-07-03 15:09:49</time>
      </trkpt>
      <trkpt lat="29.14164" lon="-13.51336">
        <ele>391.8</ele>
        <time>2021-07-03 15:09:50</time>
      </trkpt>
      <trkpt lat="29.14161" lon="-13.5133">
        <ele>391.4</ele>
        <time>2021-07-03 15:09:51</time>
      </trkpt>
      <trkpt lat="29.14156" lon="-13.51325">
        <ele>391.2</ele>
        <time>2021-07-03 15:09:52</time>
      </trkpt>
      <trkpt lat="29.14152" lon="-13.5132">
        <ele>391</ele>
        <time>2021-07-03 15:09:53</time>
      </trkpt>
      <trkpt lat="29.14148" lon="-13.51314">
        <ele>390.8</ele>
        <time>2021-07-03 15:09:54</time>
      </trkpt>
      <trkpt lat="29.14144" lon="-13.51309">
        <ele>390.4</ele>
        <time>2021-07-03 15:09:55</time>
      </trkpt>
      <trkpt lat="29.14139" lon="-13.51304">
        <ele>390.4</ele>
        <time>2021-07-03 15:09:56</time>
      </trkpt>
      <trkpt lat="29.14135" lon="-13.51298">
        <ele>390.2</ele>
        <time>2021-07-03 15:09:57</time>
      </trkpt>
      <trkpt lat="29.14131" lon="-13.51294">
        <ele>390.2</ele>
        <time>2021-07-03 15:09:58</time>
      </trkpt>
      <trkpt lat="29.14127" lon="-13.5129">
        <ele>390</ele>
        <time>2021-07-03 15:09:59</time>
      </trkpt>
      <trkpt lat="29.14123" lon="-13.51286">
        <ele>390</ele>
        <time>2021-07-03 15:10:00</time>
      </trkpt>
      <trkpt lat="29.14119" lon="-13.51282">
        <ele>390</ele>
        <time>2021-07-03 15:10:01</time>
      </trkpt>
      <trkpt lat="29.14116" lon="-13.51279">
        <ele>390</ele>
        <time>2021-07-03 15:10:02</time>
      </trkpt>
      <trkpt lat="29.14113" lon="-13.51276">
        <ele>390</ele>
        <time>2021-07-03 15:10:03</time>
      </trkpt>
      <trkpt lat="29.14111" lon="-13.51272">
        <ele>390</ele>
        <time>2021-07-03 15:10:04</time>
      </trkpt>
      <trkpt lat="29.14108" lon="-13.51269">
        <ele>390</ele>
        <time>2021-07-03 15:10:05</time>
      </trkpt>
      <trkpt lat="29.14105" lon="-13.51267">
        <ele>390.4</ele>
        <time>2021-07-03 15:10:06</time>
      </trkpt>
      <trkpt lat="29.14102" lon="-13.51264">
        <ele>390.6</ele>
        <time>2021-07-03 15:10:07</time>
      </trkpt>
      <trkpt lat="29.141" lon="-13.51262">
        <ele>390.8</ele>
        <time>2021-07-03 15:10:08</time>
      </trkpt>
      <trkpt lat="29.14097" lon="-13.51259">
        <ele>391</ele>
        <time>2021-07-03 15:10:09</time>
      </trkpt>
      <trkpt lat="29.14095" lon="-13.51257">
        <ele>391</ele>
        <time>2021-07-03 15:10:10</time>
      </trkpt>
      <trkpt lat="29.14092" lon="-13.51255">
        <ele>391.6</ele>
        <time>2021-07-03 15:10:11</time>
      </trkpt>
      <trkpt lat="29.14089" lon="-13.51252">
        <ele>391.8</ele>
        <time>2021-07-03 15:10:12</time>
      </trkpt>
      <trkpt lat="29.14087" lon="-13.5125">
        <ele>392</ele>
        <time>2021-07-03 15:10:13</time>
      </trkpt>
      <trkpt lat="29.14085" lon="-13.51248">
        <ele>392.4</ele>
        <time>2021-07-03 15:10:14</time>
      </trkpt>
      <trkpt lat="29.14083" lon="-13.51246">
        <ele>392.6</ele>
        <time>2021-07-03 15:10:15</time>
      </trkpt>
      <trkpt lat="29.14081" lon="-13.51244">
        <ele>392.8</ele>
        <time>2021-07-03 15:10:16</time>
      </trkpt>
      <trkpt lat="29.14079" lon="-13.51242">
        <ele>393</ele>
        <time>2021-07-03 15:10:17</time>
      </trkpt>
      <trkpt lat="29.14077" lon="-13.5124">
        <ele>393.4</ele>
        <time>2021-07-03 15:10:18</time>
      </trkpt>
      <trkpt lat="29.14075" lon="-13.51239">
        <ele>393.6</ele>
        <time>2021-07-03 15:10:19</time>
      </trkpt>
      <trkpt lat="29.14073" lon="-13.51237">
        <ele>394</ele>
        <time>2021-07-03 15:10:20</time>
      </trkpt>
      <trkpt lat="29.1407" lon="-13.51236">
        <ele>394.2</ele>
        <time>2021-07-03 15:10:21</time>
      </trkpt>
      <trkpt lat="29.14068" lon="-13.51234">
        <ele>394.6</ele>
        <time>2021-07-03 15:10:22</time>
      </trkpt>
      <trkpt lat="29.14066" lon="-13.51232">
        <ele>394.8</ele>
        <time>2021-07-03 15:10:23</time>
      </trkpt>
      <trkpt lat="29.14064" lon="-13.5123">
        <ele>394.8</ele>
        <time>2021-07-03 15:10:24</time>
      </trkpt>
      <trkpt lat="29.14061" lon="-13.51228">
        <ele>395.2</ele>
        <time>2021-07-03 15:10:25</time>
      </trkpt>
      <trkpt lat="29.14059" lon="-13.51226">
        <ele>395.4</ele>
        <time>2021-07-03 15:10:26</time>
      </trkpt>
      <trkpt lat="29.14056" lon="-13.51224">
        <ele>395.4</ele>
        <time>2021-07-03 15:10:27</time>
      </trkpt>
      <trkpt lat="29.14054" lon="-13.51223">
        <ele>395.8</ele>
        <time>2021-07-03 15:10:28</time>
      </trkpt>
      <trkpt lat="29.14051" lon="-13.51221">
        <ele>396</ele>
        <time>2021-07-03 15:10:29</time>
      </trkpt>
      <trkpt lat="29.14049" lon="-13.51219">
        <ele>396.2</ele>
        <time>2021-07-03 15:10:30</time>
      </trkpt>
      <trkpt lat="29.14047" lon="-13.51218">
        <ele>396.2</ele>
        <time>2021-07-03 15:10:31</time>
      </trkpt>
      <trkpt lat="29.14044" lon="-13.51216">
        <ele>396.6</ele>
        <time>2021-07-03 15:10:32</time>
      </trkpt>
      <trkpt lat="29.14042" lon="-13.51214">
        <ele>396.6</ele>
        <time>2021-07-03 15:10:33</time>
      </trkpt>
      <trkpt lat="29.14039" lon="-13.51212">
        <ele>396.6</ele>
        <time>2021-07-03 15:10:34</time>
      </trkpt>
      <trkpt lat="29.14036" lon="-13.51211">
        <ele>396.8</ele>
        <time>2021-07-03 15:10:35</time>
      </trkpt>
      <trkpt lat="29.14034" lon="-13.51209">
        <ele>396.8</ele>
        <time>2021-07-03 15:10:36</time>
      </trkpt>
      <trkpt lat="29.14032" lon="-13.51207">
        <ele>396.8</ele>
        <time>2021-07-03 15:10:37</time>
      </trkpt>
      <trkpt lat="29.1403" lon="-13.51206">
        <ele>396.8</ele>
        <time>2021-07-03 15:10:38</time>
      </trkpt>
      <trkpt lat="29.14027" lon="-13.51204">
        <ele>397</ele>
        <time>2021-07-03 15:10:39</time>
      </trkpt>
      <trkpt lat="29.14025" lon="-13.51202">
        <ele>397</ele>
        <time>2021-07-03 15:10:40</time>
      </trkpt>
      <trkpt lat="29.14023" lon="-13.512">
        <ele>397</ele>
        <time>2021-07-03 15:10:41</time>
      </trkpt>
      <trkpt lat="29.14021" lon="-13.51198">
        <ele>397.2</ele>
        <time>2021-07-03 15:10:42</time>
      </trkpt>
      <trkpt lat="29.14019" lon="-13.51196">
        <ele>397.2</ele>
        <time>2021-07-03 15:10:43</time>
      </trkpt>
      <trkpt lat="29.14017" lon="-13.51193">
        <ele>397.2</ele>
        <time>2021-07-03 15:10:44</time>
      </trkpt>
      <trkpt lat="29.14014" lon="-13.51191">
        <ele>397.6</ele>
        <time>2021-07-03 15:10:45</time>
      </trkpt>
      <trkpt lat="29.14012" lon="-13.51189">
        <ele>397.6</ele>
        <time>2021-07-03 15:10:46</time>
      </trkpt>
      <trkpt lat="29.14009" lon="-13.51188">
        <ele>397.8</ele>
        <time>2021-07-03 15:10:47</time>
      </trkpt>
      <trkpt lat="29.14006" lon="-13.51186">
        <ele>397.8</ele>
        <time>2021-07-03 15:10:48</time>
      </trkpt>
      <trkpt lat="29.14003" lon="-13.51185">
        <ele>398</ele>
        <time>2021-07-03 15:10:49</time>
      </trkpt>
      <trkpt lat="29.14" lon="-13.51184">
        <ele>398</ele>
        <time>2021-07-03 15:10:50</time>
      </trkpt>
      <trkpt lat="29.13996" lon="-13.51184">
        <ele>398.4</ele>
        <time>2021-07-03 15:10:51</time>
      </trkpt>
      <trkpt lat="29.13993" lon="-13.51184">
        <ele>398.4</ele>
        <time>2021-07-03 15:10:52</time>
      </trkpt>
      <trkpt lat="29.1399" lon="-13.51184">
        <ele>398.4</ele>
        <time>2021-07-03 15:10:53</time>
      </trkpt>
      <trkpt lat="29.13987" lon="-13.51185">
        <ele>398.6</ele>
        <time>2021-07-03 15:10:54</time>
      </trkpt>
      <trkpt lat="29.13984" lon="-13.51187">
        <ele>398.6</ele>
        <time>2021-07-03 15:10:55</time>
      </trkpt>
      <trkpt lat="29.13981" lon="-13.51188">
        <ele>398.6</ele>
        <time>2021-07-03 15:10:56</time>
      </trkpt>
      <trkpt lat="29.13978" lon="-13.51189">
        <ele>399</ele>
        <time>2021-07-03 15:10:57</time>
      </trkpt>
      <trkpt lat="29.13975" lon="-13.51191">
        <ele>399</ele>
        <time>2021-07-03 15:10:58</time>
      </trkpt>
      <trkpt lat="29.13973" lon="-13.51192">
        <ele>399</ele>
        <time>2021-07-03 15:10:59</time>
      </trkpt>
      <trkpt lat="29.1397" lon="-13.51193">
        <ele>399.2</ele>
        <time>2021-07-03 15:11:00</time>
      </trkpt>
      <trkpt lat="29.13968" lon="-13.51195">
        <ele>399.2</ele>
        <time>2021-07-03 15:11:01</time>
      </trkpt>
      <trkpt lat="29.13966" lon="-13.51197">
        <ele>399.6</ele>
        <time>2021-07-03 15:11:02</time>
      </trkpt>
      <trkpt lat="29.13964" lon="-13.51198">
        <ele>399.6</ele>
        <time>2021-07-03 15:11:03</time>
      </trkpt>
      <trkpt lat="29.13962" lon="-13.512">
        <ele>400</ele>
        <time>2021-07-03 15:11:04</time>
      </trkpt>
      <trkpt lat="29.1396" lon="-13.51202">
        <ele>400.2</ele>
        <time>2021-07-03 15:11:05</time>
      </trkpt>
      <trkpt lat="29.13958" lon="-13.51204">
        <ele>400.2</ele>
        <time>2021-07-03 15:11:06</time>
      </trkpt>
      <trkpt lat="29.13956" lon="-13.51206">
        <ele>400.6</ele>
        <time>2021-07-03 15:11:07</time>
      </trkpt>
      <trkpt lat="29.13954" lon="-13.51208">
        <ele>400.6</ele>
        <time>2021-07-03 15:11:08</time>
      </trkpt>
      <trkpt lat="29.13953" lon="-13.5121">
        <ele>401</ele>
        <time>2021-07-03 15:11:09</time>
      </trkpt>
      <trkpt lat="29.13951" lon="-13.51212">
        <ele>401.2</ele>
        <time>2021-07-03 15:11:10</time>
      </trkpt>
      <trkpt lat="29.13949" lon="-13.51214">
        <ele>401.4</ele>
        <time>2021-07-03 15:11:11</time>
      </trkpt>
      <trkpt lat="29.13948" lon="-13.51215">
        <ele>401.6</ele>
        <time>2021-07-03 15:11:12</time>
      </trkpt>
      <trkpt lat="29.13947" lon="-13.51217">
        <ele>401.6</ele>
        <time>2021-07-03 15:11:13</time>
      </trkpt>
      <trkpt lat="29.13945" lon="-13.51219">
        <ele>401.8</ele>
        <time>2021-07-03 15:11:14</time>
      </trkpt>
      <trkpt lat="29.13944" lon="-13.51221">
        <ele>401.8</ele>
        <time>2021-07-03 15:11:15</time>
      </trkpt>
      <trkpt lat="29.13943" lon="-13.51222">
        <ele>402.2</ele>
        <time>2021-07-03 15:11:16</time>
      </trkpt>
      <trkpt lat="29.13942" lon="-13.51224">
        <ele>402.4</ele>
        <time>2021-07-03 15:11:17</time>
      </trkpt>
      <trkpt lat="29.13941" lon="-13.51226">
        <ele>402.8</ele>
        <time>2021-07-03 15:11:18</time>
      </trkpt>
      <trkpt lat="29.13939" lon="-13.51228">
        <ele>403</ele>
        <time>2021-07-03 15:11:19</time>
      </trkpt>
      <trkpt lat="29.13938" lon="-13.5123">
        <ele>403.2</ele>
        <time>2021-07-03 15:11:20</time>
      </trkpt>
      <trkpt lat="29.13937" lon="-13.51232">
        <ele>403.6</ele>
        <time>2021-07-03 15:11:21</time>
      </trkpt>
      <trkpt lat="29.13936" lon="-13.51234">
        <ele>403.8</ele>
        <time>2021-07-03 15:11:22</time>
      </trkpt>
      <trkpt lat="29.13935" lon="-13.51236">
        <ele>403.8</ele>
        <time>2021-07-03 15:11:23</time>
      </trkpt>
      <trkpt lat="29.13933" lon="-13.51238">
        <ele>404.2</ele>
        <time>2021-07-03 15:11:24</time>
      </trkpt>
      <trkpt lat="29.13932" lon="-13.5124">
        <ele>404.6</ele>
        <time>2021-07-03 15:11:25</time>
      </trkpt>
      <trkpt lat="29.1393" lon="-13.51241">
        <ele>404.8</ele>
        <time>2021-07-03 15:11:26</time>
      </trkpt>
      <trkpt lat="29.13929" lon="-13.51244">
        <ele>404.8</ele>
        <time>2021-07-03 15:11:27</time>
      </trkpt>
      <trkpt lat="29.13928" lon="-13.51246">
        <ele>405</ele>
        <time>2021-07-03 15:11:28</time>
      </trkpt>
      <trkpt lat="29.13926" lon="-13.51248">
        <ele>405.4</ele>
        <time>2021-07-03 15:11:29</time>
      </trkpt>
      <trkpt lat="29.13925" lon="-13.5125">
        <ele>405.4</ele>
        <time>2021-07-03 15:11:30</time>
      </trkpt>
      <trkpt lat="29.13924" lon="-13.51252">
        <ele>405.6</ele>
        <time>2021-07-03 15:11:31</time>
      </trkpt>
      <trkpt lat="29.13922" lon="-13.51254">
        <ele>405.6</ele>
        <time>2021-07-03 15:11:32</time>
      </trkpt>
      <trkpt lat="29.1392" lon="-13.51256">
        <ele>405.8</ele>
        <time>2021-07-03 15:11:33</time>
      </trkpt>
      <trkpt lat="29.13919" lon="-13.51258">
        <ele>405.8</ele>
        <time>2021-07-03 15:11:34</time>
      </trkpt>
      <trkpt lat="29.13917" lon="-13.5126">
        <ele>405.8</ele>
        <time>2021-07-03 15:11:35</time>
      </trkpt>
      <trkpt lat="29.13916" lon="-13.51262">
        <ele>405.8</ele>
        <time>2021-07-03 15:11:36</time>
      </trkpt>
      <trkpt lat="29.13914" lon="-13.51264">
        <ele>405.8</ele>
        <time>2021-07-03 15:11:37</time>
      </trkpt>
      <trkpt lat="29.13912" lon="-13.51267">
        <ele>406.2</ele>
        <time>2021-07-03 15:11:38</time>
      </trkpt>
      <trkpt lat="29.13911" lon="-13.51269">
        <ele>406.2</ele>
        <time>2021-07-03 15:11:39</time>
      </trkpt>
      <trkpt lat="29.13909" lon="-13.51271">
        <ele>406.2</ele>
        <time>2021-07-03 15:11:40</time>
      </trkpt>
      <trkpt lat="29.13907" lon="-13.51274">
        <ele>406.2</ele>
        <time>2021-07-03 15:11:41</time>
      </trkpt>
      <trkpt lat="29.13905" lon="-13.51277">
        <ele>406.2</ele>
        <time>2021-07-03 15:11:42</time>
      </trkpt>
      <trkpt lat="29.13903" lon="-13.51279">
        <ele>406.2</ele>
        <time>2021-07-03 15:11:43</time>
      </trkpt>
      <trkpt lat="29.13901" lon="-13.51282">
        <ele>406.4</ele>
        <time>2021-07-03 15:11:44</time>
      </trkpt>
      <trkpt lat="29.13899" lon="-13.51284">
        <ele>406.4</ele>
        <time>2021-07-03 15:11:45</time>
      </trkpt>
      <trkpt lat="29.13897" lon="-13.51286">
        <ele>406.4</ele>
        <time>2021-07-03 15:11:46</time>
      </trkpt>
      <trkpt lat="29.13895" lon="-13.51289">
        <ele>406.4</ele>
        <time>2021-07-03 15:11:47</time>
      </trkpt>
      <trkpt lat="29.13893" lon="-13.51292">
        <ele>406.4</ele>
        <time>2021-07-03 15:11:48</time>
      </trkpt>
      <trkpt lat="29.13891" lon="-13.51295">
        <ele>406.4</ele>
        <time>2021-07-03 15:11:49</time>
      </trkpt>
      <trkpt lat="29.1389" lon="-13.51298">
        <ele>406.4</ele>
        <time>2021-07-03 15:11:50</time>
      </trkpt>
      <trkpt lat="29.13888" lon="-13.513">
        <ele>406.6</ele>
        <time>2021-07-03 15:11:51</time>
      </trkpt>
      <trkpt lat="29.13886" lon="-13.51303">
        <ele>406.6</ele>
        <time>2021-07-03 15:11:52</time>
      </trkpt>
      <trkpt lat="29.13884" lon="-13.51306">
        <ele>406.6</ele>
        <time>2021-07-03 15:11:53</time>
      </trkpt>
      <trkpt lat="29.13882" lon="-13.51309">
        <ele>406.6</ele>
        <time>2021-07-03 15:11:54</time>
      </trkpt>
      <trkpt lat="29.1388" lon="-13.51312">
        <ele>406.8</ele>
        <time>2021-07-03 15:11:55</time>
      </trkpt>
      <trkpt lat="29.13878" lon="-13.51315">
        <ele>406.8</ele>
        <time>2021-07-03 15:11:56</time>
      </trkpt>
      <trkpt lat="29.13876" lon="-13.51317">
        <ele>406.8</ele>
        <time>2021-07-03 15:11:57</time>
      </trkpt>
      <trkpt lat="29.13874" lon="-13.5132">
        <ele>406.8</ele>
        <time>2021-07-03 15:11:58</time>
      </trkpt>
      <trkpt lat="29.13873" lon="-13.51323">
        <ele>407.2</ele>
        <time>2021-07-03 15:11:59</time>
      </trkpt>
      <trkpt lat="29.13871" lon="-13.51326">
        <ele>407.2</ele>
        <time>2021-07-03 15:12:00</time>
      </trkpt>
      <trkpt lat="29.1387" lon="-13.51328">
        <ele>407.4</ele>
        <time>2021-07-03 15:12:01</time>
      </trkpt>
      <trkpt lat="29.13869" lon="-13.5133">
        <ele>407.4</ele>
        <time>2021-07-03 15:12:02</time>
      </trkpt>
      <trkpt lat="29.13868" lon="-13.51333">
        <ele>407.8</ele>
        <time>2021-07-03 15:12:03</time>
      </trkpt>
      <trkpt lat="29.13867" lon="-13.51336">
        <ele>408</ele>
        <time>2021-07-03 15:12:04</time>
      </trkpt>
      <trkpt lat="29.13865" lon="-13.51338">
        <ele>408.2</ele>
        <time>2021-07-03 15:12:05</time>
      </trkpt>
      <trkpt lat="29.13863" lon="-13.5134">
        <ele>408.4</ele>
        <time>2021-07-03 15:12:06</time>
      </trkpt>
      <trkpt lat="29.13861" lon="-13.51342">
        <ele>408.4</ele>
        <time>2021-07-03 15:12:07</time>
      </trkpt>
      <trkpt lat="29.13859" lon="-13.51344">
        <ele>408.8</ele>
        <time>2021-07-03 15:12:08</time>
      </trkpt>
      <trkpt lat="29.13856" lon="-13.51346">
        <ele>408.8</ele>
        <time>2021-07-03 15:12:09</time>
      </trkpt>
      <trkpt lat="29.13854" lon="-13.51347">
        <ele>409.2</ele>
        <time>2021-07-03 15:12:10</time>
      </trkpt>
      <trkpt lat="29.13851" lon="-13.51349">
        <ele>409.2</ele>
        <time>2021-07-03 15:12:11</time>
      </trkpt>
      <trkpt lat="29.13849" lon="-13.51351">
        <ele>409.4</ele>
        <time>2021-07-03 15:12:12</time>
      </trkpt>
      <trkpt lat="29.13846" lon="-13.51353">
        <ele>409.4</ele>
        <time>2021-07-03 15:12:13</time>
      </trkpt>
      <trkpt lat="29.13843" lon="-13.51354">
        <ele>409.6</ele>
        <time>2021-07-03 15:12:14</time>
      </trkpt>
      <trkpt lat="29.13841" lon="-13.51356">
        <ele>409.6</ele>
        <time>2021-07-03 15:12:15</time>
      </trkpt>
      <trkpt lat="29.13839" lon="-13.51359">
        <ele>409.6</ele>
        <time>2021-07-03 15:12:16</time>
      </trkpt>
      <trkpt lat="29.13836" lon="-13.51361">
        <ele>410</ele>
        <time>2021-07-03 15:12:17</time>
      </trkpt>
      <trkpt lat="29.13834" lon="-13.51364">
        <ele>410.2</ele>
        <time>2021-07-03 15:12:18</time>
      </trkpt>
      <trkpt lat="29.13832" lon="-13.51366">
        <ele>410.2</ele>
        <time>2021-07-03 15:12:19</time>
      </trkpt>
      <trkpt lat="29.13831" lon="-13.51369">
        <ele>410.2</ele>
        <time>2021-07-03 15:12:20</time>
      </trkpt>
      <trkpt lat="29.13829" lon="-13.51371">
        <ele>410.6</ele>
        <time>2021-07-03 15:12:21</time>
      </trkpt>
      <trkpt lat="29.13827" lon="-13.51374">
        <ele>410.6</ele>
        <time>2021-07-03 15:12:22</time>
      </trkpt>
      <trkpt lat="29.13826" lon="-13.51376">
        <ele>411</ele>
        <time>2021-07-03 15:12:23</time>
      </trkpt>
      <trkpt lat="29.13824" lon="-13.51379">
        <ele>411</ele>
        <time>2021-07-03 15:12:24</time>
      </trkpt>
      <trkpt lat="29.13822" lon="-13.51382">
        <ele>411.2</ele>
        <time>2021-07-03 15:12:25</time>
      </trkpt>
      <trkpt lat="29.13821" lon="-13.51385">
        <ele>411.2</ele>
        <time>2021-07-03 15:12:26</time>
      </trkpt>
      <trkpt lat="29.13819" lon="-13.51387">
        <ele>411.4</ele>
        <time>2021-07-03 15:12:27</time>
      </trkpt>
      <trkpt lat="29.13817" lon="-13.5139">
        <ele>411.4</ele>
        <time>2021-07-03 15:12:28</time>
      </trkpt>
      <trkpt lat="29.13815" lon="-13.51392">
        <ele>411.8</ele>
        <time>2021-07-03 15:12:29</time>
      </trkpt>
      <trkpt lat="29.13814" lon="-13.51394">
        <ele>411.8</ele>
        <time>2021-07-03 15:12:30</time>
      </trkpt>
      <trkpt lat="29.13812" lon="-13.51397">
        <ele>411.8</ele>
        <time>2021-07-03 15:12:31</time>
      </trkpt>
      <trkpt lat="29.1381" lon="-13.51399">
        <ele>412</ele>
        <time>2021-07-03 15:12:32</time>
      </trkpt>
      <trkpt lat="29.13808" lon="-13.51402">
        <ele>412</ele>
        <time>2021-07-03 15:12:33</time>
      </trkpt>
      <trkpt lat="29.13807" lon="-13.51404">
        <ele>412</ele>
        <time>2021-07-03 15:12:34</time>
      </trkpt>
      <trkpt lat="29.13805" lon="-13.51406">
        <ele>412.2</ele>
        <time>2021-07-03 15:12:35</time>
      </trkpt>
      <trkpt lat="29.13804" lon="-13.51407">
        <ele>412.2</ele>
        <time>2021-07-03 15:12:36</time>
      </trkpt>
      <trkpt lat="29.13802" lon="-13.51409">
        <ele>412.6</ele>
        <time>2021-07-03 15:12:37</time>
      </trkpt>
      <trkpt lat="29.138" lon="-13.51412">
        <ele>412.6</ele>
        <time>2021-07-03 15:12:38</time>
      </trkpt>
      <trkpt lat="29.13799" lon="-13.51414">
        <ele>412.8</ele>
        <time>2021-07-03 15:12:39</time>
      </trkpt>
      <trkpt lat="29.13797" lon="-13.51416">
        <ele>413.2</ele>
        <time>2021-07-03 15:12:40</time>
      </trkpt>
      <trkpt lat="29.13795" lon="-13.51418">
        <ele>413.2</ele>
        <time>2021-07-03 15:12:41</time>
      </trkpt>
      <trkpt lat="29.13794" lon="-13.5142">
        <ele>413.6</ele>
        <time>2021-07-03 15:12:42</time>
      </trkpt>
      <trkpt lat="29.13792" lon="-13.51422">
        <ele>413.8</ele>
        <time>2021-07-03 15:12:43</time>
      </trkpt>
      <trkpt lat="29.1379" lon="-13.51424">
        <ele>414.2</ele>
        <time>2021-07-03 15:12:44</time>
      </trkpt>
      <trkpt lat="29.13788" lon="-13.51425">
        <ele>414.4</ele>
        <time>2021-07-03 15:12:45</time>
      </trkpt>
      <trkpt lat="29.13786" lon="-13.51427">
        <ele>414.6</ele>
        <time>2021-07-03 15:12:46</time>
      </trkpt>
      <trkpt lat="29.13785" lon="-13.51429">
        <ele>415</ele>
        <time>2021-07-03 15:12:47</time>
      </trkpt>
      <trkpt lat="29.13783" lon="-13.51431">
        <ele>415.2</ele>
        <time>2021-07-03 15:12:48</time>
      </trkpt>
      <trkpt lat="29.13781" lon="-13.51433">
        <ele>415.6</ele>
        <time>2021-07-03 15:12:49</time>
      </trkpt>
      <trkpt lat="29.13779" lon="-13.51434">
        <ele>415.8</ele>
        <time>2021-07-03 15:12:50</time>
      </trkpt>
      <trkpt lat="29.13777" lon="-13.51436">
        <ele>416</ele>
        <time>2021-07-03 15:12:51</time>
      </trkpt>
      <trkpt lat="29.13775" lon="-13.51437">
        <ele>416</ele>
        <time>2021-07-03 15:12:52</time>
      </trkpt>
      <trkpt lat="29.13772" lon="-13.51439">
        <ele>416</ele>
        <time>2021-07-03 15:12:53</time>
      </trkpt>
      <trkpt lat="29.13771" lon="-13.5144">
        <ele>416.4</ele>
        <time>2021-07-03 15:12:54</time>
      </trkpt>
      <trkpt lat="29.13769" lon="-13.51442">
        <ele>416.4</ele>
        <time>2021-07-03 15:12:55</time>
      </trkpt>
      <trkpt lat="29.13766" lon="-13.51444">
        <ele>416.4</ele>
        <time>2021-07-03 15:12:56</time>
      </trkpt>
      <trkpt lat="29.13764" lon="-13.51445">
        <ele>416.8</ele>
        <time>2021-07-03 15:12:57</time>
      </trkpt>
      <trkpt lat="29.13762" lon="-13.51447">
        <ele>417</ele>
        <time>2021-07-03 15:12:58</time>
      </trkpt>
      <trkpt lat="29.1376" lon="-13.51449">
        <ele>417</ele>
        <time>2021-07-03 15:12:59</time>
      </trkpt>
      <trkpt lat="29.13758" lon="-13.51451">
        <ele>417</ele>
        <time>2021-07-03 15:13:00</time>
      </trkpt>
      <trkpt lat="29.13755" lon="-13.51453">
        <ele>417</ele>
        <time>2021-07-03 15:13:01</time>
      </trkpt>
      <trkpt lat="29.13752" lon="-13.51454">
        <ele>417.2</ele>
        <time>2021-07-03 15:13:02</time>
      </trkpt>
      <trkpt lat="29.1375" lon="-13.51456">
        <ele>417.2</ele>
        <time>2021-07-03 15:13:03</time>
      </trkpt>
      <trkpt lat="29.13748" lon="-13.51457">
        <ele>417.6</ele>
        <time>2021-07-03 15:13:04</time>
      </trkpt>
      <trkpt lat="29.13745" lon="-13.51459">
        <ele>418</ele>
        <time>2021-07-03 15:13:05</time>
      </trkpt>
      <trkpt lat="29.13743" lon="-13.5146">
        <ele>418.2</ele>
        <time>2021-07-03 15:13:06</time>
      </trkpt>
      <trkpt lat="29.13741" lon="-13.51461">
        <ele>418.4</ele>
        <time>2021-07-03 15:13:07</time>
      </trkpt>
      <trkpt lat="29.13739" lon="-13.51463">
        <ele>418.4</ele>
        <time>2021-07-03 15:13:08</time>
      </trkpt>
      <trkpt lat="29.13736" lon="-13.51465">
        <ele>418.8</ele>
        <time>2021-07-03 15:13:09</time>
      </trkpt>
      <trkpt lat="29.13734" lon="-13.51467">
        <ele>418.8</ele>
        <time>2021-07-03 15:13:10</time>
      </trkpt>
      <trkpt lat="29.13733" lon="-13.51468">
        <ele>419.2</ele>
        <time>2021-07-03 15:13:11</time>
      </trkpt>
      <trkpt lat="29.1373" lon="-13.5147">
        <ele>419.4</ele>
        <time>2021-07-03 15:13:12</time>
      </trkpt>
      <trkpt lat="29.13728" lon="-13.51472">
        <ele>419.6</ele>
        <time>2021-07-03 15:13:13</time>
      </trkpt>
      <trkpt lat="29.13726" lon="-13.51474">
        <ele>419.8</ele>
        <time>2021-07-03 15:13:14</time>
      </trkpt>
      <trkpt lat="29.13723" lon="-13.51475">
        <ele>419.8</ele>
        <time>2021-07-03 15:13:15</time>
      </trkpt>
      <trkpt lat="29.13721" lon="-13.51477">
        <ele>420.2</ele>
        <time>2021-07-03 15:13:16</time>
      </trkpt>
      <trkpt lat="29.13718" lon="-13.51479">
        <ele>420.2</ele>
        <time>2021-07-03 15:13:17</time>
      </trkpt>
      <trkpt lat="29.13715" lon="-13.5148">
        <ele>420.2</ele>
        <time>2021-07-03 15:13:18</time>
      </trkpt>
      <trkpt lat="29.13713" lon="-13.51482">
        <ele>420.4</ele>
        <time>2021-07-03 15:13:19</time>
      </trkpt>
      <trkpt lat="29.1371" lon="-13.51483">
        <ele>420.4</ele>
        <time>2021-07-03 15:13:20</time>
      </trkpt>
      <trkpt lat="29.13708" lon="-13.51485">
        <ele>420.4</ele>
        <time>2021-07-03 15:13:21</time>
      </trkpt>
      <trkpt lat="29.13705" lon="-13.51487">
        <ele>420.4</ele>
        <time>2021-07-03 15:13:22</time>
      </trkpt>
      <trkpt lat="29.13703" lon="-13.51488">
        <ele>420.6</ele>
        <time>2021-07-03 15:13:23</time>
      </trkpt>
      <trkpt lat="29.13701" lon="-13.5149">
        <ele>420.6</ele>
        <time>2021-07-03 15:13:24</time>
      </trkpt>
      <trkpt lat="29.13698" lon="-13.51492">
        <ele>420.6</ele>
        <time>2021-07-03 15:13:25</time>
      </trkpt>
      <trkpt lat="29.13696" lon="-13.51494">
        <ele>420.8</ele>
        <time>2021-07-03 15:13:26</time>
      </trkpt>
      <trkpt lat="29.13693" lon="-13.51496">
        <ele>420.8</ele>
        <time>2021-07-03 15:13:27</time>
      </trkpt>
      <trkpt lat="29.13691" lon="-13.51498">
        <ele>420.8</ele>
        <time>2021-07-03 15:13:28</time>
      </trkpt>
      <trkpt lat="29.13688" lon="-13.515">
        <ele>420.8</ele>
        <time>2021-07-03 15:13:29</time>
      </trkpt>
      <trkpt lat="29.13686" lon="-13.51502">
        <ele>420.8</ele>
        <time>2021-07-03 15:13:30</time>
      </trkpt>
      <trkpt lat="29.13683" lon="-13.51504">
        <ele>420.8</ele>
        <time>2021-07-03 15:13:31</time>
      </trkpt>
      <trkpt lat="29.1368" lon="-13.51506">
        <ele>420.8</ele>
        <time>2021-07-03 15:13:32</time>
      </trkpt>
      <trkpt lat="29.13678" lon="-13.51508">
        <ele>420.8</ele>
        <time>2021-07-03 15:13:33</time>
      </trkpt>
      <trkpt lat="29.13675" lon="-13.5151">
        <ele>420.8</ele>
        <time>2021-07-03 15:13:34</time>
      </trkpt>
      <trkpt lat="29.13672" lon="-13.51512">
        <ele>420.8</ele>
        <time>2021-07-03 15:13:35</time>
      </trkpt>
      <trkpt lat="29.13669" lon="-13.51515">
        <ele>420.8</ele>
        <time>2021-07-03 15:13:36</time>
      </trkpt>
      <trkpt lat="29.13666" lon="-13.51517">
        <ele>420.8</ele>
        <time>2021-07-03 15:13:37</time>
      </trkpt>
      <trkpt lat="29.13663" lon="-13.51519">
        <ele>420.8</ele>
        <time>2021-07-03 15:13:38</time>
      </trkpt>
      <trkpt lat="29.13661" lon="-13.51521">
        <ele>421.2</ele>
        <time>2021-07-03 15:13:39</time>
      </trkpt>
      <trkpt lat="29.13659" lon="-13.51524">
        <ele>421.2</ele>
        <time>2021-07-03 15:13:40</time>
      </trkpt>
      <trkpt lat="29.13657" lon="-13.51526">
        <ele>421.4</ele>
        <time>2021-07-03 15:13:41</time>
      </trkpt>
      <trkpt lat="29.13656" lon="-13.51527">
        <ele>421.6</ele>
        <time>2021-07-03 15:13:42</time>
      </trkpt>
      <trkpt lat="29.13654" lon="-13.51529">
        <ele>421.6</ele>
        <time>2021-07-03 15:13:43</time>
      </trkpt>
      <trkpt lat="29.13652" lon="-13.51531">
        <ele>421.8</ele>
        <time>2021-07-03 15:13:44</time>
      </trkpt>
      <trkpt lat="29.13649" lon="-13.51533">
        <ele>421.8</ele>
        <time>2021-07-03 15:13:45</time>
      </trkpt>
      <trkpt lat="29.13647" lon="-13.51536">
        <ele>421.8</ele>
        <time>2021-07-03 15:13:46</time>
      </trkpt>
      <trkpt lat="29.13644" lon="-13.51538">
        <ele>421.8</ele>
        <time>2021-07-03 15:13:47</time>
      </trkpt>
      <trkpt lat="29.13641" lon="-13.51541">
        <ele>421.8</ele>
        <time>2021-07-03 15:13:48</time>
      </trkpt>
      <trkpt lat="29.13638" lon="-13.51543">
        <ele>421.8</ele>
        <time>2021-07-03 15:13:49</time>
      </trkpt>
      <trkpt lat="29.13636" lon="-13.51545">
        <ele>422</ele>
        <time>2021-07-03 15:13:50</time>
      </trkpt>
      <trkpt lat="29.13633" lon="-13.51547">
        <ele>422</ele>
        <time>2021-07-03 15:13:51</time>
      </trkpt>
      <trkpt lat="29.13631" lon="-13.51549">
        <ele>422.4</ele>
        <time>2021-07-03 15:13:52</time>
      </trkpt>
      <trkpt lat="29.13629" lon="-13.51552">
        <ele>422.6</ele>
        <time>2021-07-03 15:13:53</time>
      </trkpt>
      <trkpt lat="29.13626" lon="-13.51554">
        <ele>423</ele>
        <time>2021-07-03 15:13:54</time>
      </trkpt>
      <trkpt lat="29.13622" lon="-13.51559">
        <ele>423.2</ele>
        <time>2021-07-03 15:13:55</time>
      </trkpt>
      <trkpt lat="29.13619" lon="-13.51561">
        <ele>423.4</ele>
        <time>2021-07-03 15:13:56</time>
      </trkpt>
      <trkpt lat="29.13617" lon="-13.51563">
        <ele>423.4</ele>
        <time>2021-07-03 15:13:57</time>
      </trkpt>
      <trkpt lat="29.13615" lon="-13.51565">
        <ele>423.8</ele>
        <time>2021-07-03 15:13:58</time>
      </trkpt>
      <trkpt lat="29.13612" lon="-13.51567">
        <ele>423.8</ele>
        <time>2021-07-03 15:13:59</time>
      </trkpt>
      <trkpt lat="29.1361" lon="-13.5157">
        <ele>424</ele>
        <time>2021-07-03 15:14:00</time>
      </trkpt>
      <trkpt lat="29.13607" lon="-13.51572">
        <ele>424</ele>
        <time>2021-07-03 15:14:01</time>
      </trkpt>
      <trkpt lat="29.13605" lon="-13.51574">
        <ele>424</ele>
        <time>2021-07-03 15:14:02</time>
      </trkpt>
      <trkpt lat="29.13602" lon="-13.51576">
        <ele>424</ele>
        <time>2021-07-03 15:14:03</time>
      </trkpt>
      <trkpt lat="29.13599" lon="-13.51578">
        <ele>424.2</ele>
        <time>2021-07-03 15:14:04</time>
      </trkpt>
      <trkpt lat="29.13597" lon="-13.5158">
        <ele>424.2</ele>
        <time>2021-07-03 15:14:05</time>
      </trkpt>
      <trkpt lat="29.13594" lon="-13.51583">
        <ele>424.2</ele>
        <time>2021-07-03 15:14:06</time>
      </trkpt>
      <trkpt lat="29.13592" lon="-13.51585">
        <ele>424.2</ele>
        <time>2021-07-03 15:14:07</time>
      </trkpt>
      <trkpt lat="29.13589" lon="-13.51587">
        <ele>424.2</ele>
        <time>2021-07-03 15:14:08</time>
      </trkpt>
      <trkpt lat="29.13586" lon="-13.51589">
        <ele>424.6</ele>
        <time>2021-07-03 15:14:09</time>
      </trkpt>
      <trkpt lat="29.13583" lon="-13.51591">
        <ele>424.6</ele>
        <time>2021-07-03 15:14:10</time>
      </trkpt>
      <trkpt lat="29.13581" lon="-13.51593">
        <ele>424.6</ele>
        <time>2021-07-03 15:14:11</time>
      </trkpt>
      <trkpt lat="29.13578" lon="-13.51596">
        <ele>424.6</ele>
        <time>2021-07-03 15:14:12</time>
      </trkpt>
      <trkpt lat="29.13574" lon="-13.51599">
        <ele>424.6</ele>
        <time>2021-07-03 15:14:13</time>
      </trkpt>
      <trkpt lat="29.13571" lon="-13.51603">
        <ele>424.8</ele>
        <time>2021-07-03 15:14:14</time>
      </trkpt>
      <trkpt lat="29.13567" lon="-13.51606">
        <ele>424.8</ele>
        <time>2021-07-03 15:14:15</time>
      </trkpt>
      <trkpt lat="29.13564" lon="-13.51609">
        <ele>424.8</ele>
        <time>2021-07-03 15:14:16</time>
      </trkpt>
      <trkpt lat="29.1356" lon="-13.51612">
        <ele>424.8</ele>
        <time>2021-07-03 15:14:17</time>
      </trkpt>
      <trkpt lat="29.13556" lon="-13.51615">
        <ele>424.8</ele>
        <time>2021-07-03 15:14:18</time>
      </trkpt>
      <trkpt lat="29.13553" lon="-13.51617">
        <ele>424.8</ele>
        <time>2021-07-03 15:14:19</time>
      </trkpt>
      <trkpt lat="29.13549" lon="-13.5162">
        <ele>424.8</ele>
        <time>2021-07-03 15:14:20</time>
      </trkpt>
      <trkpt lat="29.13545" lon="-13.51623">
        <ele>424.8</ele>
        <time>2021-07-03 15:14:21</time>
      </trkpt>
      <trkpt lat="29.13542" lon="-13.51627">
        <ele>425</ele>
        <time>2021-07-03 15:14:22</time>
      </trkpt>
      <trkpt lat="29.13539" lon="-13.5163">
        <ele>425</ele>
        <time>2021-07-03 15:14:23</time>
      </trkpt>
      <trkpt lat="29.13537" lon="-13.51633">
        <ele>425.2</ele>
        <time>2021-07-03 15:14:24</time>
      </trkpt>
      <trkpt lat="29.13534" lon="-13.51637">
        <ele>425.2</ele>
        <time>2021-07-03 15:14:25</time>
      </trkpt>
      <trkpt lat="29.13531" lon="-13.5164">
        <ele>425.4</ele>
        <time>2021-07-03 15:14:26</time>
      </trkpt>
      <trkpt lat="29.13528" lon="-13.51643">
        <ele>425.4</ele>
        <time>2021-07-03 15:14:27</time>
      </trkpt>
      <trkpt lat="29.13524" lon="-13.51646">
        <ele>425.4</ele>
        <time>2021-07-03 15:14:28</time>
      </trkpt>
      <trkpt lat="29.13521" lon="-13.51648">
        <ele>425.6</ele>
        <time>2021-07-03 15:14:29</time>
      </trkpt>
      <trkpt lat="29.13517" lon="-13.51651">
        <ele>425.6</ele>
        <time>2021-07-03 15:14:30</time>
      </trkpt>
      <trkpt lat="29.13514" lon="-13.51653">
        <ele>426</ele>
        <time>2021-07-03 15:14:31</time>
      </trkpt>
      <trkpt lat="29.13511" lon="-13.51656">
        <ele>426</ele>
        <time>2021-07-03 15:14:32</time>
      </trkpt>
      <trkpt lat="29.13509" lon="-13.51659">
        <ele>426.4</ele>
        <time>2021-07-03 15:14:33</time>
      </trkpt>
      <trkpt lat="29.13506" lon="-13.51662">
        <ele>426.6</ele>
        <time>2021-07-03 15:14:34</time>
      </trkpt>
      <trkpt lat="29.13504" lon="-13.51665">
        <ele>426.8</ele>
        <time>2021-07-03 15:14:35</time>
      </trkpt>
      <trkpt lat="29.13502" lon="-13.51668">
        <ele>426.8</ele>
        <time>2021-07-03 15:14:36</time>
      </trkpt>
      <trkpt lat="29.135" lon="-13.51671">
        <ele>427.2</ele>
        <time>2021-07-03 15:14:37</time>
      </trkpt>
      <trkpt lat="29.13498" lon="-13.51675">
        <ele>427.2</ele>
        <time>2021-07-03 15:14:38</time>
      </trkpt>
      <trkpt lat="29.13496" lon="-13.51678">
        <ele>427.4</ele>
        <time>2021-07-03 15:14:39</time>
      </trkpt>
      <trkpt lat="29.13493" lon="-13.51681">
        <ele>427.4</ele>
        <time>2021-07-03 15:14:40</time>
      </trkpt>
      <trkpt lat="29.13491" lon="-13.51685">
        <ele>427.6</ele>
        <time>2021-07-03 15:14:41</time>
      </trkpt>
      <trkpt lat="29.13489" lon="-13.51688">
        <ele>427.6</ele>
        <time>2021-07-03 15:14:42</time>
      </trkpt>
      <trkpt lat="29.13486" lon="-13.51692">
        <ele>427.8</ele>
        <time>2021-07-03 15:14:43</time>
      </trkpt>
      <trkpt lat="29.13484" lon="-13.51695">
        <ele>427.8</ele>
        <time>2021-07-03 15:14:44</time>
      </trkpt>
      <trkpt lat="29.13482" lon="-13.51698">
        <ele>427.8</ele>
        <time>2021-07-03 15:14:45</time>
      </trkpt>
      <trkpt lat="29.13479" lon="-13.51701">
        <ele>427.8</ele>
        <time>2021-07-03 15:14:46</time>
      </trkpt>
      <trkpt lat="29.13475" lon="-13.51703">
        <ele>428</ele>
        <time>2021-07-03 15:14:47</time>
      </trkpt>
      <trkpt lat="29.13472" lon="-13.51704">
        <ele>428</ele>
        <time>2021-07-03 15:14:48</time>
      </trkpt>
      <trkpt lat="29.13469" lon="-13.51705">
        <ele>428</ele>
        <time>2021-07-03 15:14:49</time>
      </trkpt>
      <trkpt lat="29.13465" lon="-13.51707">
        <ele>428.4</ele>
        <time>2021-07-03 15:14:50</time>
      </trkpt>
      <trkpt lat="29.13462" lon="-13.51709">
        <ele>428.4</ele>
        <time>2021-07-03 15:14:51</time>
      </trkpt>
      <trkpt lat="29.1346" lon="-13.51713">
        <ele>428.4</ele>
        <time>2021-07-03 15:14:52</time>
      </trkpt>
      <trkpt lat="29.13458" lon="-13.51717">
        <ele>428.4</ele>
        <time>2021-07-03 15:14:53</time>
      </trkpt>
      <trkpt lat="29.13456" lon="-13.51721">
        <ele>428.4</ele>
        <time>2021-07-03 15:14:54</time>
      </trkpt>
      <trkpt lat="29.13453" lon="-13.51725">
        <ele>428.4</ele>
        <time>2021-07-03 15:14:55</time>
      </trkpt>
      <trkpt lat="29.1345" lon="-13.51729">
        <ele>428.4</ele>
        <time>2021-07-03 15:14:56</time>
      </trkpt>
      <trkpt lat="29.13446" lon="-13.51733">
        <ele>428.4</ele>
        <time>2021-07-03 15:14:57</time>
      </trkpt>
      <trkpt lat="29.13443" lon="-13.51737">
        <ele>428</ele>
        <time>2021-07-03 15:14:58</time>
      </trkpt>
      <trkpt lat="29.13439" lon="-13.5174">
        <ele>428</ele>
        <time>2021-07-03 15:14:59</time>
      </trkpt>
      <trkpt lat="29.13437" lon="-13.51744">
        <ele>428</ele>
        <time>2021-07-03 15:15:00</time>
      </trkpt>
      <trkpt lat="29.13434" lon="-13.51748">
        <ele>428</ele>
        <time>2021-07-03 15:15:01</time>
      </trkpt>
      <trkpt lat="29.13431" lon="-13.51751">
        <ele>428</ele>
        <time>2021-07-03 15:15:02</time>
      </trkpt>
      <trkpt lat="29.13429" lon="-13.51753">
        <ele>428</ele>
        <time>2021-07-03 15:15:03</time>
      </trkpt>
      <trkpt lat="29.13425" lon="-13.51756">
        <ele>428</ele>
        <time>2021-07-03 15:15:04</time>
      </trkpt>
      <trkpt lat="29.13422" lon="-13.51759">
        <ele>428</ele>
        <time>2021-07-03 15:15:05</time>
      </trkpt>
      <trkpt lat="29.13419" lon="-13.51763">
        <ele>428.2</ele>
        <time>2021-07-03 15:15:06</time>
      </trkpt>
      <trkpt lat="29.13416" lon="-13.51765">
        <ele>428.2</ele>
        <time>2021-07-03 15:15:07</time>
      </trkpt>
      <trkpt lat="29.13413" lon="-13.51767">
        <ele>428.2</ele>
        <time>2021-07-03 15:15:08</time>
      </trkpt>
      <trkpt lat="29.13409" lon="-13.51769">
        <ele>428.2</ele>
        <time>2021-07-03 15:15:09</time>
      </trkpt>
      <trkpt lat="29.13406" lon="-13.51771">
        <ele>428.2</ele>
        <time>2021-07-03 15:15:10</time>
      </trkpt>
      <trkpt lat="29.13403" lon="-13.51773">
        <ele>428.6</ele>
        <time>2021-07-03 15:15:11</time>
      </trkpt>
      <trkpt lat="29.134" lon="-13.51774">
        <ele>428.6</ele>
        <time>2021-07-03 15:15:12</time>
      </trkpt>
      <trkpt lat="29.13396" lon="-13.51775">
        <ele>428.8</ele>
        <time>2021-07-03 15:15:13</time>
      </trkpt>
      <trkpt lat="29.13393" lon="-13.51776">
        <ele>428.8</ele>
        <time>2021-07-03 15:15:14</time>
      </trkpt>
      <trkpt lat="29.13389" lon="-13.51777">
        <ele>428.8</ele>
        <time>2021-07-03 15:15:15</time>
      </trkpt>
      <trkpt lat="29.13386" lon="-13.51777">
        <ele>429</ele>
        <time>2021-07-03 15:15:16</time>
      </trkpt>
      <trkpt lat="29.13383" lon="-13.51779">
        <ele>429</ele>
        <time>2021-07-03 15:15:17</time>
      </trkpt>
      <trkpt lat="29.1338" lon="-13.51781">
        <ele>429.4</ele>
        <time>2021-07-03 15:15:18</time>
      </trkpt>
      <trkpt lat="29.13377" lon="-13.51783">
        <ele>429.4</ele>
        <time>2021-07-03 15:15:19</time>
      </trkpt>
      <trkpt lat="29.13375" lon="-13.51786">
        <ele>429.4</ele>
        <time>2021-07-03 15:15:20</time>
      </trkpt>
      <trkpt lat="29.13372" lon="-13.51789">
        <ele>429.6</ele>
        <time>2021-07-03 15:15:21</time>
      </trkpt>
      <trkpt lat="29.1337" lon="-13.51791">
        <ele>429.6</ele>
        <time>2021-07-03 15:15:22</time>
      </trkpt>
      <trkpt lat="29.13367" lon="-13.51794">
        <ele>429.8</ele>
        <time>2021-07-03 15:15:23</time>
      </trkpt>
      <trkpt lat="29.13365" lon="-13.51797">
        <ele>429.8</ele>
        <time>2021-07-03 15:15:24</time>
      </trkpt>
      <trkpt lat="29.13363" lon="-13.518">
        <ele>429.8</ele>
        <time>2021-07-03 15:15:25</time>
      </trkpt>
      <trkpt lat="29.13361" lon="-13.51802">
        <ele>429.8</ele>
        <time>2021-07-03 15:15:26</time>
      </trkpt>
      <trkpt lat="29.13358" lon="-13.51804">
        <ele>430.2</ele>
        <time>2021-07-03 15:15:27</time>
      </trkpt>
      <trkpt lat="29.13356" lon="-13.51806">
        <ele>430.2</ele>
        <time>2021-07-03 15:15:28</time>
      </trkpt>
      <trkpt lat="29.13354" lon="-13.51807">
        <ele>430.6</ele>
        <time>2021-07-03 15:15:29</time>
      </trkpt>
      <trkpt lat="29.13351" lon="-13.51807">
        <ele>430.8</ele>
        <time>2021-07-03 15:15:30</time>
      </trkpt>
      <trkpt lat="29.13349" lon="-13.51807">
        <ele>430.8</ele>
        <time>2021-07-03 15:15:31</time>
      </trkpt>
      <trkpt lat="29.13346" lon="-13.51807">
        <ele>431.2</ele>
        <time>2021-07-03 15:15:32</time>
      </trkpt>
      <trkpt lat="29.13343" lon="-13.51807">
        <ele>431.2</ele>
        <time>2021-07-03 15:15:33</time>
      </trkpt>
      <trkpt lat="29.13341" lon="-13.51808">
        <ele>431.6</ele>
        <time>2021-07-03 15:15:34</time>
      </trkpt>
      <trkpt lat="29.13338" lon="-13.51809">
        <ele>431.8</ele>
        <time>2021-07-03 15:15:35</time>
      </trkpt>
      <trkpt lat="29.13336" lon="-13.5181">
        <ele>432</ele>
        <time>2021-07-03 15:15:36</time>
      </trkpt>
      <trkpt lat="29.13333" lon="-13.51811">
        <ele>432.4</ele>
        <time>2021-07-03 15:15:37</time>
      </trkpt>
      <trkpt lat="29.13331" lon="-13.51811">
        <ele>432.8</ele>
        <time>2021-07-03 15:15:38</time>
      </trkpt>
      <trkpt lat="29.13329" lon="-13.51812">
        <ele>433</ele>
        <time>2021-07-03 15:15:39</time>
      </trkpt>
      <trkpt lat="29.13326" lon="-13.51813">
        <ele>433.4</ele>
        <time>2021-07-03 15:15:40</time>
      </trkpt>
      <trkpt lat="29.13323" lon="-13.51814">
        <ele>433.6</ele>
        <time>2021-07-03 15:15:41</time>
      </trkpt>
      <trkpt lat="29.1332" lon="-13.51815">
        <ele>433.6</ele>
        <time>2021-07-03 15:15:42</time>
      </trkpt>
      <trkpt lat="29.13318" lon="-13.51816">
        <ele>434</ele>
        <time>2021-07-03 15:15:43</time>
      </trkpt>
      <trkpt lat="29.13315" lon="-13.51817">
        <ele>434</ele>
        <time>2021-07-03 15:15:44</time>
      </trkpt>
      <trkpt lat="29.13312" lon="-13.51818">
        <ele>434</ele>
        <time>2021-07-03 15:15:45</time>
      </trkpt>
      <trkpt lat="29.13309" lon="-13.51819">
        <ele>434.2</ele>
        <time>2021-07-03 15:15:46</time>
      </trkpt>
      <trkpt lat="29.13305" lon="-13.51821">
        <ele>434.2</ele>
        <time>2021-07-03 15:15:47</time>
      </trkpt>
      <trkpt lat="29.13302" lon="-13.51822">
        <ele>434.2</ele>
        <time>2021-07-03 15:15:48</time>
      </trkpt>
      <trkpt lat="29.13299" lon="-13.51824">
        <ele>434.2</ele>
        <time>2021-07-03 15:15:49</time>
      </trkpt>
      <trkpt lat="29.13296" lon="-13.51825">
        <ele>434.4</ele>
        <time>2021-07-03 15:15:50</time>
      </trkpt>
      <trkpt lat="29.13293" lon="-13.51826">
        <ele>434.4</ele>
        <time>2021-07-03 15:15:51</time>
      </trkpt>
      <trkpt lat="29.1329" lon="-13.51828">
        <ele>434.4</ele>
        <time>2021-07-03 15:15:52</time>
      </trkpt>
      <trkpt lat="29.13287" lon="-13.51829">
        <ele>434.4</ele>
        <time>2021-07-03 15:15:53</time>
      </trkpt>
      <trkpt lat="29.13285" lon="-13.5183">
        <ele>434.4</ele>
        <time>2021-07-03 15:15:54</time>
      </trkpt>
      <trkpt lat="29.13282" lon="-13.51833">
        <ele>434.4</ele>
        <time>2021-07-03 15:15:55</time>
      </trkpt>
      <trkpt lat="29.1328" lon="-13.51835">
        <ele>434.4</ele>
        <time>2021-07-03 15:15:56</time>
      </trkpt>
      <trkpt lat="29.13278" lon="-13.51838">
        <ele>434.4</ele>
        <time>2021-07-03 15:15:57</time>
      </trkpt>
      <trkpt lat="29.13275" lon="-13.5184">
        <ele>434.4</ele>
        <time>2021-07-03 15:15:58</time>
      </trkpt>
      <trkpt lat="29.13273" lon="-13.5184">
        <ele>434.4</ele>
        <time>2021-07-03 15:15:59</time>
      </trkpt>
      <trkpt lat="29.1327" lon="-13.5184">
        <ele>434.4</ele>
        <time>2021-07-03 15:16:00</time>
      </trkpt>
      <trkpt lat="29.13267" lon="-13.51839">
        <ele>434.4</ele>
        <time>2021-07-03 15:16:01</time>
      </trkpt>
      <trkpt lat="29.13263" lon="-13.51838">
        <ele>434.4</ele>
        <time>2021-07-03 15:16:02</time>
      </trkpt>
      <trkpt lat="29.1326" lon="-13.51835">
        <ele>434.4</ele>
        <time>2021-07-03 15:16:03</time>
      </trkpt>
      <trkpt lat="29.13258" lon="-13.51831">
        <ele>434.8</ele>
        <time>2021-07-03 15:16:04</time>
      </trkpt>
      <trkpt lat="29.13258" lon="-13.51827">
        <ele>434.8</ele>
        <time>2021-07-03 15:16:05</time>
      </trkpt>
      <trkpt lat="29.13259" lon="-13.51824">
        <ele>434.8</ele>
        <time>2021-07-03 15:16:06</time>
      </trkpt>
      <trkpt lat="29.1326" lon="-13.5182">
        <ele>435.2</ele>
        <time>2021-07-03 15:16:07</time>
      </trkpt>
      <trkpt lat="29.13261" lon="-13.51817">
        <ele>435.2</ele>
        <time>2021-07-03 15:16:08</time>
      </trkpt>
      <trkpt lat="29.13262" lon="-13.51814">
        <ele>435.2</ele>
        <time>2021-07-03 15:16:09</time>
      </trkpt>
      <trkpt lat="29.13263" lon="-13.5181">
        <ele>435.2</ele>
        <time>2021-07-03 15:16:10</time>
      </trkpt>
      <trkpt lat="29.13264" lon="-13.51807">
        <ele>435.4</ele>
        <time>2021-07-03 15:16:11</time>
      </trkpt>
      <trkpt lat="29.13265" lon="-13.51803">
        <ele>435.4</ele>
        <time>2021-07-03 15:16:12</time>
      </trkpt>
      <trkpt lat="29.13265" lon="-13.518">
        <ele>435.4</ele>
        <time>2021-07-03 15:16:13</time>
      </trkpt>
      <trkpt lat="29.13265" lon="-13.51796">
        <ele>435.4</ele>
        <time>2021-07-03 15:16:14</time>
      </trkpt>
      <trkpt lat="29.13265" lon="-13.51793">
        <ele>435.6</ele>
        <time>2021-07-03 15:16:15</time>
      </trkpt>
      <trkpt lat="29.13265" lon="-13.51789">
        <ele>435.6</ele>
        <time>2021-07-03 15:16:16</time>
      </trkpt>
      <trkpt lat="29.13265" lon="-13.51785">
        <ele>435.6</ele>
        <time>2021-07-03 15:16:17</time>
      </trkpt>
      <trkpt lat="29.13266" lon="-13.51782">
        <ele>435.8</ele>
        <time>2021-07-03 15:16:18</time>
      </trkpt>
      <trkpt lat="29.13265" lon="-13.51779">
        <ele>435.8</ele>
        <time>2021-07-03 15:16:19</time>
      </trkpt>
      <trkpt lat="29.13265" lon="-13.51776">
        <ele>436</ele>
        <time>2021-07-03 15:16:20</time>
      </trkpt>
      <trkpt lat="29.13265" lon="-13.51775">
        <ele>436</ele>
        <time>2021-07-03 15:16:21</time>
      </trkpt>
      <trkpt lat="29.13264" lon="-13.51774">
        <ele>436</ele>
        <time>2021-07-03 15:16:22</time>
      </trkpt>
      <trkpt lat="29.13264" lon="-13.51774">
        <ele>436</ele>
        <time>2021-07-03 15:16:23</time>
      </trkpt>
      <trkpt lat="29.13264" lon="-13.51775">
        <ele>436.2</ele>
        <time>2021-07-03 15:16:24</time>
      </trkpt>
      <trkpt lat="29.13264" lon="-13.51775">
        <ele>436.2</ele>
        <time>2021-07-03 15:16:25</time>
      </trkpt>
      <trkpt lat="29.13267" lon="-13.51775">
        <ele>436.2</ele>
        <time>2021-07-03 15:16:26</time>
      </trkpt>
      <trkpt lat="29.13268" lon="-13.51775">
        <ele>436.2</ele>
        <time>2021-07-03 15:16:27</time>
      </trkpt>
      <trkpt lat="29.13268" lon="-13.51777">
        <ele>436</ele>
        <time>2021-07-03 15:16:28</time>
      </trkpt>
      <trkpt lat="29.13267" lon="-13.51779">
        <ele>435.8</ele>
        <time>2021-07-03 15:16:29</time>
      </trkpt>
      <trkpt lat="29.13267" lon="-13.51781">
        <ele>435.4</ele>
        <time>2021-07-03 15:16:30</time>
      </trkpt>
      <trkpt lat="29.13266" lon="-13.51784">
        <ele>435.2</ele>
        <time>2021-07-03 15:16:31</time>
      </trkpt>
      <trkpt lat="29.13266" lon="-13.51787">
        <ele>435.2</ele>
        <time>2021-07-03 15:16:32</time>
      </trkpt>
      <trkpt lat="29.13266" lon="-13.5179">
        <ele>434.8</ele>
        <time>2021-07-03 15:16:33</time>
      </trkpt>
      <trkpt lat="29.13266" lon="-13.51793">
        <ele>434.8</ele>
        <time>2021-07-03 15:16:34</time>
      </trkpt>
      <trkpt lat="29.13266" lon="-13.51796">
        <ele>434.8</ele>
        <time>2021-07-03 15:16:35</time>
      </trkpt>
      <trkpt lat="29.13266" lon="-13.51799">
        <ele>434.8</ele>
        <time>2021-07-03 15:16:36</time>
      </trkpt>
      <trkpt lat="29.13266" lon="-13.51802">
        <ele>434.8</ele>
        <time>2021-07-03 15:16:37</time>
      </trkpt>
      <trkpt lat="29.13266" lon="-13.51805">
        <ele>434.8</ele>
        <time>2021-07-03 15:16:38</time>
      </trkpt>
      <trkpt lat="29.13265" lon="-13.51808">
        <ele>434.8</ele>
        <time>2021-07-03 15:16:39</time>
      </trkpt>
      <trkpt lat="29.13265" lon="-13.51811">
        <ele>434.8</ele>
        <time>2021-07-03 15:16:40</time>
      </trkpt>
      <trkpt lat="29.13264" lon="-13.51814">
        <ele>434.6</ele>
        <time>2021-07-03 15:16:41</time>
      </trkpt>
      <trkpt lat="29.13263" lon="-13.51816">
        <ele>434.6</ele>
        <time>2021-07-03 15:16:42</time>
      </trkpt>
      <trkpt lat="29.13262" lon="-13.51819">
        <ele>434.6</ele>
        <time>2021-07-03 15:16:43</time>
      </trkpt>
      <trkpt lat="29.13261" lon="-13.51822">
        <ele>434.4</ele>
        <time>2021-07-03 15:16:44</time>
      </trkpt>
      <trkpt lat="29.13261" lon="-13.51825">
        <ele>434.4</ele>
        <time>2021-07-03 15:16:45</time>
      </trkpt>
      <trkpt lat="29.1326" lon="-13.51829">
        <ele>434.2</ele>
        <time>2021-07-03 15:16:46</time>
      </trkpt>
      <trkpt lat="29.13258" lon="-13.51833">
        <ele>434.2</ele>
        <time>2021-07-03 15:16:47</time>
      </trkpt>
      <trkpt lat="29.13257" lon="-13.51836">
        <ele>433.8</ele>
        <time>2021-07-03 15:16:48</time>
      </trkpt>
      <trkpt lat="29.13257" lon="-13.51838">
        <ele>433.8</ele>
        <time>2021-07-03 15:16:49</time>
      </trkpt>
      <trkpt lat="29.13259" lon="-13.51839">
        <ele>433.4</ele>
        <time>2021-07-03 15:16:50</time>
      </trkpt>
      <trkpt lat="29.1326" lon="-13.51839">
        <ele>433.4</ele>
        <time>2021-07-03 15:16:51</time>
      </trkpt>
      <trkpt lat="29.13261" lon="-13.51837">
        <ele>433.4</ele>
        <time>2021-07-03 15:16:52</time>
      </trkpt>
      <trkpt lat="29.13261" lon="-13.51834">
        <ele>433.4</ele>
        <time>2021-07-03 15:16:53</time>
      </trkpt>
      <trkpt lat="29.13261" lon="-13.5183">
        <ele>433.4</ele>
        <time>2021-07-03 15:16:54</time>
      </trkpt>
      <trkpt lat="29.1326" lon="-13.51827">
        <ele>433.8</ele>
        <time>2021-07-03 15:16:55</time>
      </trkpt>
      <trkpt lat="29.13261" lon="-13.51824">
        <ele>434</ele>
        <time>2021-07-03 15:16:56</time>
      </trkpt>
      <trkpt lat="29.13261" lon="-13.51821">
        <ele>434.2</ele>
        <time>2021-07-03 15:16:57</time>
      </trkpt>
      <trkpt lat="29.13262" lon="-13.51819">
        <ele>434.2</ele>
        <time>2021-07-03 15:16:58</time>
      </trkpt>
      <trkpt lat="29.13262" lon="-13.51816">
        <ele>434.4</ele>
        <time>2021-07-03 15:16:59</time>
      </trkpt>
      <trkpt lat="29.13263" lon="-13.51814">
        <ele>434.4</ele>
        <time>2021-07-03 15:17:00</time>
      </trkpt>
      <trkpt lat="29.13263" lon="-13.51811">
        <ele>434.8</ele>
        <time>2021-07-03 15:17:01</time>
      </trkpt>
      <trkpt lat="29.13264" lon="-13.51809">
        <ele>434.8</ele>
        <time>2021-07-03 15:17:02</time>
      </trkpt>
      <trkpt lat="29.13264" lon="-13.51807">
        <ele>434.8</ele>
        <time>2021-07-03 15:17:03</time>
      </trkpt>
      <trkpt lat="29.13265" lon="-13.51804">
        <ele>434.8</ele>
        <time>2021-07-03 15:17:04</time>
      </trkpt>
      <trkpt lat="29.13265" lon="-13.51802">
        <ele>435.2</ele>
        <time>2021-07-03 15:17:05</time>
      </trkpt>
      <trkpt lat="29.13265" lon="-13.51799">
        <ele>435.2</ele>
        <time>2021-07-03 15:17:06</time>
      </trkpt>
      <trkpt lat="29.13265" lon="-13.51796">
        <ele>435.2</ele>
        <time>2021-07-03 15:17:07</time>
      </trkpt>
      <trkpt lat="29.13265" lon="-13.51793">
        <ele>435.4</ele>
        <time>2021-07-03 15:17:08</time>
      </trkpt>
      <trkpt lat="29.13265" lon="-13.5179">
        <ele>435.4</ele>
        <time>2021-07-03 15:17:09</time>
      </trkpt>
      <trkpt lat="29.13265" lon="-13.51787">
        <ele>435.4</ele>
        <time>2021-07-03 15:17:10</time>
      </trkpt>
      <trkpt lat="29.13265" lon="-13.51784">
        <ele>435.4</ele>
        <time>2021-07-03 15:17:11</time>
      </trkpt>
      <trkpt lat="29.13265" lon="-13.51781">
        <ele>435.4</ele>
        <time>2021-07-03 15:17:12</time>
      </trkpt>
      <trkpt lat="29.13265" lon="-13.51777">
        <ele>435.4</ele>
        <time>2021-07-03 15:17:13</time>
      </trkpt>
      <trkpt lat="29.13265" lon="-13.51774">
        <ele>435.4</ele>
        <time>2021-07-03 15:17:16</time>
      </trkpt>
      <trkpt lat="29.13265" lon="-13.51771">
        <ele>435.4</ele>
        <time>2021-07-03 15:17:17</time>
      </trkpt>
      <trkpt lat="29.13264" lon="-13.51768">
        <ele>435.4</ele>
        <time>2021-07-03 15:17:18</time>
      </trkpt>
      <trkpt lat="29.13264" lon="-13.51765">
        <ele>435.6</ele>
        <time>2021-07-03 15:17:19</time>
      </trkpt>
      <trkpt lat="29.13264" lon="-13.51761">
        <ele>435.6</ele>
        <time>2021-07-03 15:17:20</time>
      </trkpt>
      <trkpt lat="29.13264" lon="-13.51758">
        <ele>435.6</ele>
        <time>2021-07-03 15:17:21</time>
      </trkpt>
      <trkpt lat="29.13263" lon="-13.51754">
        <ele>435.6</ele>
        <time>2021-07-03 15:17:22</time>
      </trkpt>
      <trkpt lat="29.13263" lon="-13.51751">
        <ele>435.6</ele>
        <time>2021-07-03 15:17:23</time>
      </trkpt>
      <trkpt lat="29.13262" lon="-13.51747">
        <ele>435.6</ele>
        <time>2021-07-03 15:17:24</time>
      </trkpt>
      <trkpt lat="29.13262" lon="-13.51743">
        <ele>435.8</ele>
        <time>2021-07-03 15:17:25</time>
      </trkpt>
      <trkpt lat="29.13261" lon="-13.5174">
        <ele>435.8</ele>
        <time>2021-07-03 15:17:26</time>
      </trkpt>
      <trkpt lat="29.13261" lon="-13.51737">
        <ele>435.8</ele>
        <time>2021-07-03 15:17:27</time>
      </trkpt>
      <trkpt lat="29.1326" lon="-13.51733">
        <ele>436.2</ele>
        <time>2021-07-03 15:17:28</time>
      </trkpt>
      <trkpt lat="29.13259" lon="-13.5173">
        <ele>436.2</ele>
        <time>2021-07-03 15:17:29</time>
      </trkpt>
      <trkpt lat="29.13259" lon="-13.51727">
        <ele>436.4</ele>
        <time>2021-07-03 15:17:30</time>
      </trkpt>
      <trkpt lat="29.13258" lon="-13.51724">
        <ele>436.4</ele>
        <time>2021-07-03 15:17:31</time>
      </trkpt>
      <trkpt lat="29.13258" lon="-13.51722">
        <ele>436.8</ele>
        <time>2021-07-03 15:17:32</time>
      </trkpt>
      <trkpt lat="29.13257" lon="-13.5172">
        <ele>437</ele>
        <time>2021-07-03 15:17:33</time>
      </trkpt>
      <trkpt lat="29.13256" lon="-13.51718">
        <ele>437</ele>
        <time>2021-07-03 15:17:34</time>
      </trkpt>
      <trkpt lat="29.13256" lon="-13.51715">
        <ele>437.4</ele>
        <time>2021-07-03 15:17:35</time>
      </trkpt>
      <trkpt lat="29.13255" lon="-13.51713">
        <ele>437.4</ele>
        <time>2021-07-03 15:17:36</time>
      </trkpt>
      <trkpt lat="29.13255" lon="-13.51711">
        <ele>437.8</ele>
        <time>2021-07-03 15:17:37</time>
      </trkpt>
      <trkpt lat="29.13255" lon="-13.51708">
        <ele>437.8</ele>
        <time>2021-07-03 15:17:38</time>
      </trkpt>
      <trkpt lat="29.13255" lon="-13.51705">
        <ele>438.2</ele>
        <time>2021-07-03 15:17:39</time>
      </trkpt>
      <trkpt lat="29.13254" lon="-13.51701">
        <ele>438.2</ele>
        <time>2021-07-03 15:17:40</time>
      </trkpt>
      <trkpt lat="29.13254" lon="-13.51698">
        <ele>438.2</ele>
        <time>2021-07-03 15:17:41</time>
      </trkpt>
      <trkpt lat="29.13254" lon="-13.51695">
        <ele>438.2</ele>
        <time>2021-07-03 15:17:42</time>
      </trkpt>
      <trkpt lat="29.13254" lon="-13.51692">
        <ele>438.2</ele>
        <time>2021-07-03 15:17:43</time>
      </trkpt>
      <trkpt lat="29.13254" lon="-13.51689">
        <ele>438.2</ele>
        <time>2021-07-03 15:17:44</time>
      </trkpt>
      <trkpt lat="29.13254" lon="-13.51686">
        <ele>438.2</ele>
        <time>2021-07-03 15:17:45</time>
      </trkpt>
      <trkpt lat="29.13254" lon="-13.51683">
        <ele>438.2</ele>
        <time>2021-07-03 15:17:46</time>
      </trkpt>
      <trkpt lat="29.13254" lon="-13.5168">
        <ele>438</ele>
        <time>2021-07-03 15:17:47</time>
      </trkpt>
      <trkpt lat="29.13254" lon="-13.51677">
        <ele>438</ele>
        <time>2021-07-03 15:17:48</time>
      </trkpt>
      <trkpt lat="29.13254" lon="-13.51674">
        <ele>437.6</ele>
        <time>2021-07-03 15:17:49</time>
      </trkpt>
      <trkpt lat="29.13254" lon="-13.51671">
        <ele>437.6</ele>
        <time>2021-07-03 15:17:50</time>
      </trkpt>
      <trkpt lat="29.13255" lon="-13.51667">
        <ele>437.4</ele>
        <time>2021-07-03 15:17:51</time>
      </trkpt>
      <trkpt lat="29.13255" lon="-13.51664">
        <ele>437.4</ele>
        <time>2021-07-03 15:17:52</time>
      </trkpt>
      <trkpt lat="29.13256" lon="-13.5166">
        <ele>437.2</ele>
        <time>2021-07-03 15:17:53</time>
      </trkpt>
      <trkpt lat="29.13256" lon="-13.51656">
        <ele>437.2</ele>
        <time>2021-07-03 15:17:54</time>
      </trkpt>
      <trkpt lat="29.13257" lon="-13.51652">
        <ele>436.8</ele>
        <time>2021-07-03 15:17:55</time>
      </trkpt>
      <trkpt lat="29.13257" lon="-13.51647">
        <ele>436.8</ele>
        <time>2021-07-03 15:17:56</time>
      </trkpt>
      <trkpt lat="29.13257" lon="-13.51643">
        <ele>436.4</ele>
        <time>2021-07-03 15:17:57</time>
      </trkpt>
      <trkpt lat="29.13258" lon="-13.51639">
        <ele>436.2</ele>
        <time>2021-07-03 15:17:58</time>
      </trkpt>
      <trkpt lat="29.13258" lon="-13.51635">
        <ele>435.8</ele>
        <time>2021-07-03 15:17:59</time>
      </trkpt>
      <trkpt lat="29.13258" lon="-13.51632">
        <ele>435.6</ele>
        <time>2021-07-03 15:18:00</time>
      </trkpt>
      <trkpt lat="29.13258" lon="-13.51627">
        <ele>435.6</ele>
        <time>2021-07-03 15:18:01</time>
      </trkpt>
      <trkpt lat="29.13258" lon="-13.51623">
        <ele>435.2</ele>
        <time>2021-07-03 15:18:02</time>
      </trkpt>
      <trkpt lat="29.13259" lon="-13.51618">
        <ele>434.8</ele>
        <time>2021-07-03 15:18:03</time>
      </trkpt>
      <trkpt lat="29.13258" lon="-13.51613">
        <ele>434.4</ele>
        <time>2021-07-03 15:18:04</time>
      </trkpt>
      <trkpt lat="29.13259" lon="-13.51608">
        <ele>434</ele>
        <time>2021-07-03 15:18:05</time>
      </trkpt>
      <trkpt lat="29.13259" lon="-13.51602">
        <ele>433.6</ele>
        <time>2021-07-03 15:18:06</time>
      </trkpt>
      <trkpt lat="29.1326" lon="-13.51597">
        <ele>433</ele>
        <time>2021-07-03 15:18:07</time>
      </trkpt>
      <trkpt lat="29.13261" lon="-13.51592">
        <ele>432.6</ele>
        <time>2021-07-03 15:18:08</time>
      </trkpt>
      <trkpt lat="29.13262" lon="-13.51588">
        <ele>432</ele>
        <time>2021-07-03 15:18:09</time>
      </trkpt>
      <trkpt lat="29.13262" lon="-13.51583">
        <ele>431.6</ele>
        <time>2021-07-03 15:18:10</time>
      </trkpt>
      <trkpt lat="29.13263" lon="-13.51579">
        <ele>431.2</ele>
        <time>2021-07-03 15:18:11</time>
      </trkpt>
      <trkpt lat="29.13263" lon="-13.51574">
        <ele>430.8</ele>
        <time>2021-07-03 15:18:12</time>
      </trkpt>
      <trkpt lat="29.13264" lon="-13.5157">
        <ele>430.4</ele>
        <time>2021-07-03 15:18:13</time>
      </trkpt>
      <trkpt lat="29.13263" lon="-13.51567">
        <ele>430.2</ele>
        <time>2021-07-03 15:18:14</time>
      </trkpt>
      <trkpt lat="29.13264" lon="-13.51563">
        <ele>429.8</ele>
        <time>2021-07-03 15:18:15</time>
      </trkpt>
      <trkpt lat="29.13265" lon="-13.51559">
        <ele>429.4</ele>
        <time>2021-07-03 15:18:16</time>
      </trkpt>
      <trkpt lat="29.13265" lon="-13.51557">
        <ele>429.2</ele>
        <time>2021-07-03 15:18:17</time>
      </trkpt>
      <trkpt lat="29.13266" lon="-13.51556">
        <ele>428.8</ele>
        <time>2021-07-03 15:18:18</time>
      </trkpt>
      <trkpt lat="29.13266" lon="-13.51556">
        <ele>428.6</ele>
        <time>2021-07-03 15:18:19</time>
      </trkpt>
      <trkpt lat="29.13266" lon="-13.51556">
        <ele>428.6</ele>
        <time>2021-07-03 15:18:20</time>
      </trkpt>
      <trkpt lat="29.13266" lon="-13.51556">
        <ele>428.2</ele>
        <time>2021-07-03 15:18:21</time>
      </trkpt>
      <trkpt lat="29.13267" lon="-13.51551">
        <ele>426.4</ele>
        <time>2021-07-03 15:18:22</time>
      </trkpt>
      <trkpt lat="29.13267" lon="-13.51549">
        <ele>426.4</ele>
        <time>2021-07-03 15:18:23</time>
      </trkpt>
      <trkpt lat="29.13267" lon="-13.51547">
        <ele>426.4</ele>
        <time>2021-07-03 15:18:24</time>
      </trkpt>
      <trkpt lat="29.13267" lon="-13.51544">
        <ele>426.8</ele>
        <time>2021-07-03 15:18:25</time>
      </trkpt>
      <trkpt lat="29.13267" lon="-13.51541">
        <ele>426.8</ele>
        <time>2021-07-03 15:18:26</time>
      </trkpt>
      <trkpt lat="29.13267" lon="-13.51538">
        <ele>426.8</ele>
        <time>2021-07-03 15:18:27</time>
      </trkpt>
      <trkpt lat="29.13266" lon="-13.51535">
        <ele>426.8</ele>
        <time>2021-07-03 15:18:28</time>
      </trkpt>
      <trkpt lat="29.13266" lon="-13.51532">
        <ele>426.8</ele>
        <time>2021-07-03 15:18:29</time>
      </trkpt>
      <trkpt lat="29.13266" lon="-13.51529">
        <ele>426.8</ele>
        <time>2021-07-03 15:18:30</time>
      </trkpt>
      <trkpt lat="29.13266" lon="-13.51526">
        <ele>427</ele>
        <time>2021-07-03 15:18:31</time>
      </trkpt>
      <trkpt lat="29.13266" lon="-13.51524">
        <ele>427</ele>
        <time>2021-07-03 15:18:32</time>
      </trkpt>
      <trkpt lat="29.13266" lon="-13.51521">
        <ele>427.2</ele>
        <time>2021-07-03 15:18:33</time>
      </trkpt>
      <trkpt lat="29.13265" lon="-13.51518">
        <ele>427.2</ele>
        <time>2021-07-03 15:18:34</time>
      </trkpt>
      <trkpt lat="29.13265" lon="-13.51515">
        <ele>427.4</ele>
        <time>2021-07-03 15:18:35</time>
      </trkpt>
      <trkpt lat="29.13265" lon="-13.51512">
        <ele>427.4</ele>
        <time>2021-07-03 15:18:36</time>
      </trkpt>
      <trkpt lat="29.13265" lon="-13.51509">
        <ele>427.8</ele>
        <time>2021-07-03 15:18:37</time>
      </trkpt>
      <trkpt lat="29.13265" lon="-13.51505">
        <ele>427.8</ele>
        <time>2021-07-03 15:18:38</time>
      </trkpt>
      <trkpt lat="29.13265" lon="-13.51502">
        <ele>428</ele>
        <time>2021-07-03 15:18:39</time>
      </trkpt>
      <trkpt lat="29.13265" lon="-13.51499">
        <ele>428</ele>
        <time>2021-07-03 15:18:40</time>
      </trkpt>
      <trkpt lat="29.13265" lon="-13.51496">
        <ele>428</ele>
        <time>2021-07-03 15:18:41</time>
      </trkpt>
      <trkpt lat="29.13265" lon="-13.51493">
        <ele>428.4</ele>
        <time>2021-07-03 15:18:42</time>
      </trkpt>
      <trkpt lat="29.13265" lon="-13.5149">
        <ele>428.4</ele>
        <time>2021-07-03 15:18:43</time>
      </trkpt>
      <trkpt lat="29.13265" lon="-13.51487">
        <ele>428.6</ele>
        <time>2021-07-03 15:18:44</time>
      </trkpt>
      <trkpt lat="29.13265" lon="-13.51484">
        <ele>428.6</ele>
        <time>2021-07-03 15:18:45</time>
      </trkpt>
      <trkpt lat="29.13265" lon="-13.51481">
        <ele>428.8</ele>
        <time>2021-07-03 15:18:46</time>
      </trkpt>
      <trkpt lat="29.13265" lon="-13.51478">
        <ele>428.8</ele>
        <time>2021-07-03 15:18:47</time>
      </trkpt>
      <trkpt lat="29.13265" lon="-13.51474">
        <ele>429</ele>
        <time>2021-07-03 15:18:48</time>
      </trkpt>
      <trkpt lat="29.13265" lon="-13.51471">
        <ele>429</ele>
        <time>2021-07-03 15:18:49</time>
      </trkpt>
      <trkpt lat="29.13265" lon="-13.51467">
        <ele>429.4</ele>
        <time>2021-07-03 15:18:50</time>
      </trkpt>
      <trkpt lat="29.13265" lon="-13.51464">
        <ele>429.4</ele>
        <time>2021-07-03 15:18:51</time>
      </trkpt>
      <trkpt lat="29.13265" lon="-13.51461">
        <ele>429.8</ele>
        <time>2021-07-03 15:18:52</time>
      </trkpt>
      <trkpt lat="29.13265" lon="-13.51459">
        <ele>430</ele>
        <time>2021-07-03 15:18:53</time>
      </trkpt>
      <trkpt lat="29.13265" lon="-13.51457">
        <ele>430</ele>
        <time>2021-07-03 15:18:54</time>
      </trkpt>
      <trkpt lat="29.13265" lon="-13.51456">
        <ele>430.4</ele>
        <time>2021-07-03 15:18:55</time>
      </trkpt>
      <trkpt lat="29.13265" lon="-13.51454">
        <ele>430.4</ele>
        <time>2021-07-03 15:18:56</time>
      </trkpt>
      <trkpt lat="29.13266" lon="-13.51453">
        <ele>430.6</ele>
        <time>2021-07-03 15:18:57</time>
      </trkpt>
      <trkpt lat="29.13265" lon="-13.51452">
        <ele>430.6</ele>
        <time>2021-07-03 15:18:58</time>
      </trkpt>
      <trkpt lat="29.13265" lon="-13.51452">
        <ele>430.6</ele>
        <time>2021-07-03 15:18:59</time>
      </trkpt>
      <trkpt lat="29.13265" lon="-13.51452">
        <ele>430.6</ele>
        <time>2021-07-03 15:19:00</time>
      </trkpt>
      <trkpt lat="29.13266" lon="-13.51451">
        <ele>430.4</ele>
        <time>2021-07-03 15:19:01</time>
      </trkpt>
      <trkpt lat="29.13266" lon="-13.51449">
        <ele>430.4</ele>
        <time>2021-07-03 15:19:02</time>
      </trkpt>
      <trkpt lat="29.13267" lon="-13.51447">
        <ele>430.4</ele>
        <time>2021-07-03 15:19:03</time>
      </trkpt>
      <trkpt lat="29.13267" lon="-13.51445">
        <ele>430.4</ele>
        <time>2021-07-03 15:19:04</time>
      </trkpt>
      <trkpt lat="29.13267" lon="-13.51442">
        <ele>430.4</ele>
        <time>2021-07-03 15:19:05</time>
      </trkpt>
      <trkpt lat="29.13267" lon="-13.51439">
        <ele>430.6</ele>
        <time>2021-07-03 15:19:06</time>
      </trkpt>
      <trkpt lat="29.13267" lon="-13.51436">
        <ele>430.6</ele>
        <time>2021-07-03 15:19:07</time>
      </trkpt>
      <trkpt lat="29.13267" lon="-13.51433">
        <ele>430.6</ele>
        <time>2021-07-03 15:19:08</time>
      </trkpt>
      <trkpt lat="29.13267" lon="-13.51429">
        <ele>431</ele>
        <time>2021-07-03 15:19:09</time>
      </trkpt>
      <trkpt lat="29.13267" lon="-13.51426">
        <ele>431</ele>
        <time>2021-07-03 15:20:19</time>
      </trkpt>
      <trkpt lat="29.13267" lon="-13.51423">
        <ele>431.2</ele>
        <time>2021-07-03 15:20:20</time>
      </trkpt>
      <trkpt lat="29.13267" lon="-13.51419">
        <ele>431.2</ele>
        <time>2021-07-03 15:20:21</time>
      </trkpt>
      <trkpt lat="29.13267" lon="-13.51416">
        <ele>431.6</ele>
        <time>2021-07-03 15:20:22</time>
      </trkpt>
      <trkpt lat="29.13267" lon="-13.51413">
        <ele>431.6</ele>
        <time>2021-07-03 15:20:23</time>
      </trkpt>
      <trkpt lat="29.13267" lon="-13.5141">
        <ele>431.8</ele>
        <time>2021-07-03 15:20:24</time>
      </trkpt>
      <trkpt lat="29.13267" lon="-13.51408">
        <ele>431.8</ele>
        <time>2021-07-03 15:20:25</time>
      </trkpt>
      <trkpt lat="29.13267" lon="-13.51407">
        <ele>432.2</ele>
        <time>2021-07-03 15:20:26</time>
      </trkpt>
      <trkpt lat="29.13267" lon="-13.51406">
        <ele>432.2</ele>
        <time>2021-07-03 15:20:27</time>
      </trkpt>
      <trkpt lat="29.13267" lon="-13.51405">
        <ele>432.4</ele>
        <time>2021-07-03 15:20:28</time>
      </trkpt>
      <trkpt lat="29.13267" lon="-13.51405">
        <ele>432.4</ele>
        <time>2021-07-03 15:20:29</time>
      </trkpt>
      <trkpt lat="29.13267" lon="-13.51404">
        <ele>432.4</ele>
        <time>2021-07-03 15:20:30</time>
      </trkpt>
      <trkpt lat="29.13267" lon="-13.51403">
        <ele>433.2</ele>
        <time>2021-07-03 15:20:31</time>
      </trkpt>
      <trkpt lat="29.13268" lon="-13.51401">
        <ele>433.2</ele>
        <time>2021-07-03 15:20:32</time>
      </trkpt>
      <trkpt lat="29.13268" lon="-13.51399">
        <ele>433.2</ele>
        <time>2021-07-03 15:20:33</time>
      </trkpt>
      <trkpt lat="29.13268" lon="-13.51396">
        <ele>433.4</ele>
        <time>2021-07-03 15:20:34</time>
      </trkpt>
      <trkpt lat="29.13268" lon="-13.51393">
        <ele>433.4</ele>
        <time>2021-07-03 15:20:35</time>
      </trkpt>
      <trkpt lat="29.13269" lon="-13.5139">
        <ele>433.6</ele>
        <time>2021-07-03 15:20:36</time>
      </trkpt>
      <trkpt lat="29.13269" lon="-13.51387">
        <ele>433.6</ele>
        <time>2021-07-03 15:20:37</time>
      </trkpt>
      <trkpt lat="29.13269" lon="-13.51383">
        <ele>434.4</ele>
        <time>2021-07-03 15:20:38</time>
      </trkpt>
      <trkpt lat="29.13269" lon="-13.5138">
        <ele>434.8</ele>
        <time>2021-07-03 15:20:39</time>
      </trkpt>
      <trkpt lat="29.1327" lon="-13.51377">
        <ele>435</ele>
        <time>2021-07-03 15:20:40</time>
      </trkpt>
      <trkpt lat="29.1327" lon="-13.51373">
        <ele>435</ele>
        <time>2021-07-03 15:20:41</time>
      </trkpt>
      <trkpt lat="29.1327" lon="-13.5137">
        <ele>435.4</ele>
        <time>2021-07-03 15:20:42</time>
      </trkpt>
      <trkpt lat="29.1327" lon="-13.51366">
        <ele>435.4</ele>
        <time>2021-07-03 15:20:43</time>
      </trkpt>
      <trkpt lat="29.13271" lon="-13.51363">
        <ele>435.6</ele>
        <time>2021-07-03 15:20:44</time>
      </trkpt>
      <trkpt lat="29.13271" lon="-13.5136">
        <ele>435.6</ele>
        <time>2021-07-03 15:20:45</time>
      </trkpt>
      <trkpt lat="29.13272" lon="-13.51356">
        <ele>435.8</ele>
        <time>2021-07-03 15:20:46</time>
      </trkpt>
      <trkpt lat="29.13272" lon="-13.51353">
        <ele>435.8</ele>
        <time>2021-07-03 15:20:47</time>
      </trkpt>
      <trkpt lat="29.13272" lon="-13.5135">
        <ele>436</ele>
        <time>2021-07-03 15:20:48</time>
      </trkpt>
      <trkpt lat="29.13272" lon="-13.51346">
        <ele>436.4</ele>
        <time>2021-07-03 15:20:49</time>
      </trkpt>
      <trkpt lat="29.13272" lon="-13.51343">
        <ele>436.4</ele>
        <time>2021-07-03 15:20:50</time>
      </trkpt>
      <trkpt lat="29.13273" lon="-13.5134">
        <ele>436.6</ele>
        <time>2021-07-03 15:20:51</time>
      </trkpt>
      <trkpt lat="29.13273" lon="-13.51336">
        <ele>436.8</ele>
        <time>2021-07-03 15:20:52</time>
      </trkpt>
      <trkpt lat="29.13273" lon="-13.51333">
        <ele>436.8</ele>
        <time>2021-07-03 15:20:53</time>
      </trkpt>
      <trkpt lat="29.13273" lon="-13.5133">
        <ele>437.2</ele>
        <time>2021-07-03 15:20:54</time>
      </trkpt>
      <trkpt lat="29.13274" lon="-13.51329">
        <ele>437.2</ele>
        <time>2021-07-03 15:20:55</time>
      </trkpt>
      <trkpt lat="29.13274" lon="-13.51328">
        <ele>437.6</ele>
        <time>2021-07-03 15:20:56</time>
      </trkpt>
      <trkpt lat="29.13274" lon="-13.51328">
        <ele>437.6</ele>
        <time>2021-07-03 15:20:57</time>
      </trkpt>
      <trkpt lat="29.13274" lon="-13.51327">
        <ele>437.6</ele>
        <time>2021-07-03 15:21:08</time>
      </trkpt>
      <trkpt lat="29.13274" lon="-13.51327">
        <ele>437.6</ele>
        <time>2021-07-03 15:21:09</time>
      </trkpt>
      <trkpt lat="29.13273" lon="-13.51327">
        <ele>438</ele>
        <time>2021-07-03 15:21:10</time>
      </trkpt>
      <trkpt lat="29.13274" lon="-13.51325">
        <ele>438</ele>
        <time>2021-07-03 15:21:11</time>
      </trkpt>
      <trkpt lat="29.13274" lon="-13.51323">
        <ele>438</ele>
        <time>2021-07-03 15:21:12</time>
      </trkpt>
      <trkpt lat="29.13274" lon="-13.51321">
        <ele>438</ele>
        <time>2021-07-03 15:21:13</time>
      </trkpt>
      <trkpt lat="29.13275" lon="-13.51317">
        <ele>438.2</ele>
        <time>2021-07-03 15:21:14</time>
      </trkpt>
      <trkpt lat="29.13275" lon="-13.51314">
        <ele>438.2</ele>
        <time>2021-07-03 15:21:15</time>
      </trkpt>
      <trkpt lat="29.13275" lon="-13.51311">
        <ele>438.4</ele>
        <time>2021-07-03 15:21:16</time>
      </trkpt>
      <trkpt lat="29.13276" lon="-13.51307">
        <ele>438.4</ele>
        <time>2021-07-03 15:21:17</time>
      </trkpt>
      <trkpt lat="29.13276" lon="-13.51304">
        <ele>438.8</ele>
        <time>2021-07-03 15:21:18</time>
      </trkpt>
      <trkpt lat="29.13276" lon="-13.513">
        <ele>439</ele>
        <time>2021-07-03 15:21:19</time>
      </trkpt>
      <trkpt lat="29.13277" lon="-13.51297">
        <ele>439</ele>
        <time>2021-07-03 15:21:20</time>
      </trkpt>
      <trkpt lat="29.13277" lon="-13.51293">
        <ele>439.2</ele>
        <time>2021-07-03 15:21:21</time>
      </trkpt>
      <trkpt lat="29.13278" lon="-13.5129">
        <ele>439.2</ele>
        <time>2021-07-03 15:21:22</time>
      </trkpt>
      <trkpt lat="29.13278" lon="-13.51286">
        <ele>439.6</ele>
        <time>2021-07-03 15:21:23</time>
      </trkpt>
      <trkpt lat="29.13278" lon="-13.51282">
        <ele>439.6</ele>
        <time>2021-07-03 15:21:24</time>
      </trkpt>
      <trkpt lat="29.13279" lon="-13.51279">
        <ele>439.6</ele>
        <time>2021-07-03 15:21:25</time>
      </trkpt>
      <trkpt lat="29.13279" lon="-13.51275">
        <ele>440</ele>
        <time>2021-07-03 15:21:26</time>
      </trkpt>
      <trkpt lat="29.13279" lon="-13.51271">
        <ele>440</ele>
        <time>2021-07-03 15:21:27</time>
      </trkpt>
      <trkpt lat="29.1328" lon="-13.51268">
        <ele>440.4</ele>
        <time>2021-07-03 15:21:28</time>
      </trkpt>
      <trkpt lat="29.1328" lon="-13.51264">
        <ele>440.6</ele>
        <time>2021-07-03 15:21:53</time>
      </trkpt>
      <trkpt lat="29.13281" lon="-13.5126">
        <ele>440.6</ele>
        <time>2021-07-03 15:21:54</time>
      </trkpt>
      <trkpt lat="29.13282" lon="-13.51256">
        <ele>441.2</ele>
        <time>2021-07-03 15:21:55</time>
      </trkpt>
      <trkpt lat="29.13282" lon="-13.51253">
        <ele>441.4</ele>
        <time>2021-07-03 15:21:56</time>
      </trkpt>
      <trkpt lat="29.13283" lon="-13.51249">
        <ele>441.8</ele>
        <time>2021-07-03 15:21:57</time>
      </trkpt>
      <trkpt lat="29.13283" lon="-13.51245">
        <ele>442</ele>
        <time>2021-07-03 15:21:58</time>
      </trkpt>
      <trkpt lat="29.13284" lon="-13.51241">
        <ele>442.4</ele>
        <time>2021-07-03 15:21:59</time>
      </trkpt>
      <trkpt lat="29.13285" lon="-13.51238">
        <ele>442.8</ele>
        <time>2021-07-03 15:22:00</time>
      </trkpt>
      <trkpt lat="29.13285" lon="-13.51234">
        <ele>443</ele>
        <time>2021-07-03 15:22:01</time>
      </trkpt>
      <trkpt lat="29.13286" lon="-13.5123">
        <ele>443.2</ele>
        <time>2021-07-03 15:22:02</time>
      </trkpt>
      <trkpt lat="29.13287" lon="-13.51226">
        <ele>443.4</ele>
        <time>2021-07-03 15:22:03</time>
      </trkpt>
      <trkpt lat="29.13287" lon="-13.51223">
        <ele>443.8</ele>
        <time>2021-07-03 15:22:04</time>
      </trkpt>
      <trkpt lat="29.13288" lon="-13.51219">
        <ele>444</ele>
        <time>2021-07-03 15:22:05</time>
      </trkpt>
      <trkpt lat="29.13288" lon="-13.51215">
        <ele>444.2</ele>
        <time>2021-07-03 15:22:06</time>
      </trkpt>
      <trkpt lat="29.13289" lon="-13.51212">
        <ele>444.2</ele>
        <time>2021-07-03 15:22:07</time>
      </trkpt>
      <trkpt lat="29.13289" lon="-13.51208">
        <ele>444.8</ele>
        <time>2021-07-03 15:22:08</time>
      </trkpt>
      <trkpt lat="29.1329" lon="-13.51204">
        <ele>444.8</ele>
        <time>2021-07-03 15:22:09</time>
      </trkpt>
      <trkpt lat="29.13291" lon="-13.51201">
        <ele>445</ele>
        <time>2021-07-03 15:22:10</time>
      </trkpt>
      <trkpt lat="29.13291" lon="-13.51197">
        <ele>445</ele>
        <time>2021-07-03 15:22:11</time>
      </trkpt>
      <trkpt lat="29.13292" lon="-13.51193">
        <ele>445.4</ele>
        <time>2021-07-03 15:22:12</time>
      </trkpt>
      <trkpt lat="29.13292" lon="-13.5119">
        <ele>445.8</ele>
        <time>2021-07-03 15:22:13</time>
      </trkpt>
      <trkpt lat="29.13293" lon="-13.51187">
        <ele>446</ele>
        <time>2021-07-03 15:22:14</time>
      </trkpt>
      <trkpt lat="29.13294" lon="-13.51183">
        <ele>446.4</ele>
        <time>2021-07-03 15:22:15</time>
      </trkpt>
      <trkpt lat="29.13294" lon="-13.5118">
        <ele>446.8</ele>
        <time>2021-07-03 15:22:16</time>
      </trkpt>
      <trkpt lat="29.13295" lon="-13.51176">
        <ele>446.8</ele>
        <time>2021-07-03 15:22:17</time>
      </trkpt>
      <trkpt lat="29.13296" lon="-13.51173">
        <ele>447.2</ele>
        <time>2021-07-03 15:22:18</time>
      </trkpt>
      <trkpt lat="29.13297" lon="-13.5117">
        <ele>447.2</ele>
        <time>2021-07-03 15:22:19</time>
      </trkpt>
      <trkpt lat="29.13298" lon="-13.51166">
        <ele>447.6</ele>
        <time>2021-07-03 15:22:20</time>
      </trkpt>
      <trkpt lat="29.13298" lon="-13.51163">
        <ele>447.8</ele>
        <time>2021-07-03 15:22:21</time>
      </trkpt>
      <trkpt lat="29.13299" lon="-13.5116">
        <ele>447.8</ele>
        <time>2021-07-03 15:22:54</time>
      </trkpt>
      <trkpt lat="29.133" lon="-13.51157">
        <ele>448.4</ele>
        <time>2021-07-03 15:22:55</time>
      </trkpt>
      <trkpt lat="29.13301" lon="-13.51154">
        <ele>448.6</ele>
        <time>2021-07-03 15:22:56</time>
      </trkpt>
      <trkpt lat="29.13303" lon="-13.51151">
        <ele>448.8</ele>
        <time>2021-07-03 15:22:57</time>
      </trkpt>
      <trkpt lat="29.13304" lon="-13.51147">
        <ele>448.8</ele>
        <time>2021-07-03 15:22:58</time>
      </trkpt>
      <trkpt lat="29.13305" lon="-13.51144">
        <ele>449.2</ele>
        <time>2021-07-03 15:22:59</time>
      </trkpt>
      <trkpt lat="29.13306" lon="-13.51141">
        <ele>449.2</ele>
        <time>2021-07-03 15:23:00</time>
      </trkpt>
      <trkpt lat="29.13307" lon="-13.51138">
        <ele>449.6</ele>
        <time>2021-07-03 15:23:01</time>
      </trkpt>
      <trkpt lat="29.13308" lon="-13.51136">
        <ele>449.6</ele>
        <time>2021-07-03 15:23:02</time>
      </trkpt>
      <trkpt lat="29.13309" lon="-13.51133">
        <ele>450</ele>
        <time>2021-07-03 15:23:03</time>
      </trkpt>
      <trkpt lat="29.1331" lon="-13.5113">
        <ele>450</ele>
        <time>2021-07-03 15:23:04</time>
      </trkpt>
      <trkpt lat="29.1331" lon="-13.51128">
        <ele>450.2</ele>
        <time>2021-07-03 15:23:05</time>
      </trkpt>
      <trkpt lat="29.1331" lon="-13.51127">
        <ele>450.2</ele>
        <time>2021-07-03 15:23:06</time>
      </trkpt>
      <trkpt lat="29.1331" lon="-13.51127">
        <ele>450.4</ele>
        <time>2021-07-03 15:23:07</time>
      </trkpt>
      <trkpt lat="29.1331" lon="-13.51127">
        <ele>450.4</ele>
        <time>2021-07-03 15:23:08</time>
      </trkpt>
      <trkpt lat="29.13311" lon="-13.51123">
        <ele>451.4</ele>
        <time>2021-07-03 15:23:09</time>
      </trkpt>
      <trkpt lat="29.13312" lon="-13.51121">
        <ele>451.4</ele>
        <time>2021-07-03 15:23:10</time>
      </trkpt>
      <trkpt lat="29.13313" lon="-13.51119">
        <ele>451.6</ele>
        <time>2021-07-03 15:23:11</time>
      </trkpt>
      <trkpt lat="29.13314" lon="-13.51116">
        <ele>451.6</ele>
        <time>2021-07-03 15:23:12</time>
      </trkpt>
      <trkpt lat="29.13315" lon="-13.51114">
        <ele>451.6</ele>
        <time>2021-07-03 15:23:13</time>
      </trkpt>
      <trkpt lat="29.13315" lon="-13.51111">
        <ele>451.6</ele>
        <time>2021-07-03 15:23:14</time>
      </trkpt>
      <trkpt lat="29.13315" lon="-13.51109">
        <ele>451.8</ele>
        <time>2021-07-03 15:23:15</time>
      </trkpt>
      <trkpt lat="29.13315" lon="-13.51108">
        <ele>451.8</ele>
        <time>2021-07-03 15:23:16</time>
      </trkpt>
      <trkpt lat="29.13314" lon="-13.51107">
        <ele>451.8</ele>
        <time>2021-07-03 15:23:17</time>
      </trkpt>
      <trkpt lat="29.13314" lon="-13.51107">
        <ele>452</ele>
        <time>2021-07-03 15:23:18</time>
      </trkpt>
      <trkpt lat="29.13314" lon="-13.51107">
        <ele>452</ele>
        <time>2021-07-03 15:23:19</time>
      </trkpt>
      <trkpt lat="29.13314" lon="-13.51107">
        <ele>452</ele>
        <time>2021-07-03 15:23:20</time>
      </trkpt>
      <trkpt lat="29.13314" lon="-13.51107">
        <ele>452</ele>
        <time>2021-07-03 15:23:21</time>
      </trkpt>
      <trkpt lat="29.13314" lon="-13.51107">
        <ele>452.2</ele>
        <time>2021-07-03 15:23:22</time>
      </trkpt>
      <trkpt lat="29.13314" lon="-13.51105">
        <ele>452.6</ele>
        <time>2021-07-03 15:23:23</time>
      </trkpt>
      <trkpt lat="29.13314" lon="-13.51103">
        <ele>452.6</ele>
        <time>2021-07-03 15:23:24</time>
      </trkpt>
      <trkpt lat="29.13314" lon="-13.51101">
        <ele>452.6</ele>
        <time>2021-07-03 15:23:25</time>
      </trkpt>
      <trkpt lat="29.13314" lon="-13.51099">
        <ele>452.6</ele>
        <time>2021-07-03 15:23:26</time>
      </trkpt>
      <trkpt lat="29.13313" lon="-13.51096">
        <ele>452.8</ele>
        <time>2021-07-03 15:23:27</time>
      </trkpt>
      <trkpt lat="29.13312" lon="-13.51094">
        <ele>453</ele>
        <time>2021-07-03 15:23:28</time>
      </trkpt>
      <trkpt lat="29.1331" lon="-13.51092">
        <ele>453</ele>
        <time>2021-07-03 15:23:29</time>
      </trkpt>
      <trkpt lat="29.13307" lon="-13.51091">
        <ele>453</ele>
        <time>2021-07-03 15:23:30</time>
      </trkpt>
      <trkpt lat="29.13304" lon="-13.5109">
        <ele>453.2</ele>
        <time>2021-07-03 15:23:31</time>
      </trkpt>
      <trkpt lat="29.13301" lon="-13.51089">
        <ele>453.4</ele>
        <time>2021-07-03 15:23:32</time>
      </trkpt>
      <trkpt lat="29.13297" lon="-13.5109">
        <ele>453.4</ele>
        <time>2021-07-03 15:23:33</time>
      </trkpt>
      <trkpt lat="29.13293" lon="-13.51092">
        <ele>453.8</ele>
        <time>2021-07-03 15:23:34</time>
      </trkpt>
      <trkpt lat="29.1329" lon="-13.51095">
        <ele>454.2</ele>
        <time>2021-07-03 15:23:35</time>
      </trkpt>
      <trkpt lat="29.13288" lon="-13.51099">
        <ele>454.4</ele>
        <time>2021-07-03 15:23:36</time>
      </trkpt>
      <trkpt lat="29.13286" lon="-13.51102">
        <ele>454.8</ele>
        <time>2021-07-03 15:23:37</time>
      </trkpt>
      <trkpt lat="29.13284" lon="-13.51107">
        <ele>455</ele>
        <time>2021-07-03 15:23:38</time>
      </trkpt>
      <trkpt lat="29.13283" lon="-13.51111">
        <ele>455.4</ele>
        <time>2021-07-03 15:23:39</time>
      </trkpt>
      <trkpt lat="29.13283" lon="-13.51115">
        <ele>455.6</ele>
        <time>2021-07-03 15:23:40</time>
      </trkpt>
      <trkpt lat="29.13283" lon="-13.5112">
        <ele>456</ele>
        <time>2021-07-03 15:23:41</time>
      </trkpt>
      <trkpt lat="29.13283" lon="-13.51124">
        <ele>456.2</ele>
        <time>2021-07-03 15:23:42</time>
      </trkpt>
      <trkpt lat="29.13283" lon="-13.51129">
        <ele>456.2</ele>
        <time>2021-07-03 15:23:43</time>
      </trkpt>
      <trkpt lat="29.13282" lon="-13.51132">
        <ele>456.6</ele>
        <time>2021-07-03 15:23:44</time>
      </trkpt>
      <trkpt lat="29.13282" lon="-13.51136">
        <ele>456.8</ele>
        <time>2021-07-03 15:23:45</time>
      </trkpt>
      <trkpt lat="29.13282" lon="-13.5114">
        <ele>457</ele>
        <time>2021-07-03 15:23:46</time>
      </trkpt>
      <trkpt lat="29.13282" lon="-13.51143">
        <ele>457.2</ele>
        <time>2021-07-03 15:23:47</time>
      </trkpt>
      <trkpt lat="29.13282" lon="-13.51147">
        <ele>457.6</ele>
        <time>2021-07-03 15:23:48</time>
      </trkpt>
      <trkpt lat="29.13282" lon="-13.5115">
        <ele>457.8</ele>
        <time>2021-07-03 15:23:49</time>
      </trkpt>
      <trkpt lat="29.13281" lon="-13.51153">
        <ele>457.8</ele>
        <time>2021-07-03 15:23:50</time>
      </trkpt>
      <trkpt lat="29.13281" lon="-13.51156">
        <ele>458</ele>
        <time>2021-07-03 15:23:51</time>
      </trkpt>
      <trkpt lat="29.1328" lon="-13.51159">
        <ele>458</ele>
        <time>2021-07-03 15:23:52</time>
      </trkpt>
      <trkpt lat="29.1328" lon="-13.51162">
        <ele>458.4</ele>
        <time>2021-07-03 15:23:53</time>
      </trkpt>
      <trkpt lat="29.1328" lon="-13.51165">
        <ele>458.4</ele>
        <time>2021-07-03 15:23:54</time>
      </trkpt>
      <trkpt lat="29.1328" lon="-13.51168">
        <ele>458.8</ele>
        <time>2021-07-03 15:23:55</time>
      </trkpt>
      <trkpt lat="29.13279" lon="-13.51171">
        <ele>458.8</ele>
        <time>2021-07-03 15:23:56</time>
      </trkpt>
      <trkpt lat="29.13278" lon="-13.51174">
        <ele>459</ele>
        <time>2021-07-03 15:24:04</time>
      </trkpt>
      <trkpt lat="29.13278" lon="-13.51178">
        <ele>459</ele>
        <time>2021-07-03 15:24:05</time>
      </trkpt>
      <trkpt lat="29.13277" lon="-13.51181">
        <ele>459.4</ele>
        <time>2021-07-03 15:24:06</time>
      </trkpt>
      <trkpt lat="29.13277" lon="-13.51184">
        <ele>459.4</ele>
        <time>2021-07-03 15:24:07</time>
      </trkpt>
      <trkpt lat="29.13276" lon="-13.51187">
        <ele>459.6</ele>
        <time>2021-07-03 15:24:08</time>
      </trkpt>
      <trkpt lat="29.13276" lon="-13.5119">
        <ele>459.6</ele>
        <time>2021-07-03 15:24:09</time>
      </trkpt>
      <trkpt lat="29.13275" lon="-13.51192">
        <ele>460</ele>
        <time>2021-07-03 15:24:10</time>
      </trkpt>
      <trkpt lat="29.13275" lon="-13.51195">
        <ele>460</ele>
        <time>2021-07-03 15:24:11</time>
      </trkpt>
      <trkpt lat="29.13274" lon="-13.51197">
        <ele>460.2</ele>
        <time>2021-07-03 15:24:12</time>
      </trkpt>
      <trkpt lat="29.13274" lon="-13.51198">
        <ele>460.2</ele>
        <time>2021-07-03 15:24:13</time>
      </trkpt>
      <trkpt lat="29.13274" lon="-13.512">
        <ele>460.4</ele>
        <time>2021-07-03 15:24:14</time>
      </trkpt>
      <trkpt lat="29.13273" lon="-13.512">
        <ele>460.4</ele>
        <time>2021-07-03 15:24:15</time>
      </trkpt>
      <trkpt lat="29.13273" lon="-13.51201">
        <ele>460.4</ele>
        <time>2021-07-03 15:24:18</time>
      </trkpt>
      <trkpt lat="29.13273" lon="-13.51201">
        <ele>460.8</ele>
        <time>2021-07-03 15:24:19</time>
      </trkpt>
      <trkpt lat="29.13273" lon="-13.51201">
        <ele>460.8</ele>
        <time>2021-07-03 15:24:28</time>
      </trkpt>
      <trkpt lat="29.13272" lon="-13.51201">
        <ele>460.8</ele>
        <time>2021-07-03 15:24:29</time>
      </trkpt>
      <trkpt lat="29.13273" lon="-13.51202">
        <ele>460.4</ele>
        <time>2021-07-03 15:24:30</time>
      </trkpt>
      <trkpt lat="29.13273" lon="-13.51202">
        <ele>460.4</ele>
        <time>2021-07-03 15:24:31</time>
      </trkpt>
      <trkpt lat="29.13273" lon="-13.51202">
        <ele>460.4</ele>
        <time>2021-07-03 15:24:32</time>
      </trkpt>
      <trkpt lat="29.13272" lon="-13.51205">
        <ele>460.4</ele>
        <time>2021-07-03 15:24:33</time>
      </trkpt>
      <trkpt lat="29.13272" lon="-13.51207">
        <ele>460.4</ele>
        <time>2021-07-03 15:24:34</time>
      </trkpt>
      <trkpt lat="29.13271" lon="-13.5121">
        <ele>460.4</ele>
        <time>2021-07-03 15:24:35</time>
      </trkpt>
      <trkpt lat="29.1327" lon="-13.51212">
        <ele>460.4</ele>
        <time>2021-07-03 15:24:36</time>
      </trkpt>
      <trkpt lat="29.13269" lon="-13.51215">
        <ele>460.4</ele>
        <time>2021-07-03 15:24:37</time>
      </trkpt>
      <trkpt lat="29.13268" lon="-13.51218">
        <ele>460.4</ele>
        <time>2021-07-03 15:24:38</time>
      </trkpt>
      <trkpt lat="29.13267" lon="-13.51221">
        <ele>460.4</ele>
        <time>2021-07-03 15:24:39</time>
      </trkpt>
      <trkpt lat="29.13266" lon="-13.51224">
        <ele>460.6</ele>
        <time>2021-07-03 15:24:40</time>
      </trkpt>
      <trkpt lat="29.13265" lon="-13.51227">
        <ele>460.6</ele>
        <time>2021-07-03 15:24:41</time>
      </trkpt>
      <trkpt lat="29.13264" lon="-13.5123">
        <ele>460.6</ele>
        <time>2021-07-03 15:24:42</time>
      </trkpt>
      <trkpt lat="29.13263" lon="-13.51233">
        <ele>461</ele>
        <time>2021-07-03 15:24:43</time>
      </trkpt>
      <trkpt lat="29.13262" lon="-13.51236">
        <ele>461</ele>
        <time>2021-07-03 15:24:44</time>
      </trkpt>
      <trkpt lat="29.13261" lon="-13.51239">
        <ele>461</ele>
        <time>2021-07-03 15:24:45</time>
      </trkpt>
      <trkpt lat="29.1326" lon="-13.51242">
        <ele>461.2</ele>
        <time>2021-07-03 15:24:46</time>
      </trkpt>
      <trkpt lat="29.13259" lon="-13.51245">
        <ele>461.2</ele>
        <time>2021-07-03 15:24:47</time>
      </trkpt>
      <trkpt lat="29.13258" lon="-13.51248">
        <ele>461.2</ele>
        <time>2021-07-03 15:24:48</time>
      </trkpt>
      <trkpt lat="29.13257" lon="-13.51252">
        <ele>461.4</ele>
        <time>2021-07-03 15:24:49</time>
      </trkpt>
      <trkpt lat="29.13256" lon="-13.51255">
        <ele>461.4</ele>
        <time>2021-07-03 15:24:50</time>
      </trkpt>
      <trkpt lat="29.13255" lon="-13.51258">
        <ele>461.6</ele>
        <time>2021-07-03 15:24:51</time>
      </trkpt>
      <trkpt lat="29.13254" lon="-13.51261">
        <ele>461.6</ele>
        <time>2021-07-03 15:24:52</time>
      </trkpt>
      <trkpt lat="29.13253" lon="-13.51264">
        <ele>461.8</ele>
        <time>2021-07-03 15:24:53</time>
      </trkpt>
      <trkpt lat="29.13252" lon="-13.51267">
        <ele>461.8</ele>
        <time>2021-07-03 15:24:54</time>
      </trkpt>
      <trkpt lat="29.13251" lon="-13.5127">
        <ele>462.2</ele>
        <time>2021-07-03 15:24:55</time>
      </trkpt>
      <trkpt lat="29.13251" lon="-13.51272">
        <ele>462.2</ele>
        <time>2021-07-03 15:24:56</time>
      </trkpt>
      <trkpt lat="29.1325" lon="-13.51274">
        <ele>462.4</ele>
        <time>2021-07-03 15:24:57</time>
      </trkpt>
      <trkpt lat="29.1325" lon="-13.51275">
        <ele>462.4</ele>
        <time>2021-07-03 15:24:58</time>
      </trkpt>
      <trkpt lat="29.13249" lon="-13.51276">
        <ele>462.8</ele>
        <time>2021-07-03 15:24:59</time>
      </trkpt>
      <trkpt lat="29.13249" lon="-13.51277">
        <ele>462.8</ele>
        <time>2021-07-03 15:25:00</time>
      </trkpt>
      <trkpt lat="29.1325" lon="-13.51276">
        <ele>462.8</ele>
        <time>2021-07-03 15:25:01</time>
      </trkpt>
      <trkpt lat="29.1325" lon="-13.51276">
        <ele>463</ele>
        <time>2021-07-03 15:25:02</time>
      </trkpt>
      <trkpt lat="29.13248" lon="-13.51279">
        <ele>463.6</ele>
        <time>2021-07-03 15:25:03</time>
      </trkpt>
      <trkpt lat="29.13247" lon="-13.51282">
        <ele>463.6</ele>
        <time>2021-07-03 15:25:04</time>
      </trkpt>
      <trkpt lat="29.13246" lon="-13.51285">
        <ele>463.6</ele>
        <time>2021-07-03 15:25:05</time>
      </trkpt>
      <trkpt lat="29.13245" lon="-13.51287">
        <ele>463.6</ele>
        <time>2021-07-03 15:25:06</time>
      </trkpt>
      <trkpt lat="29.13244" lon="-13.5129">
        <ele>463.6</ele>
        <time>2021-07-03 15:25:07</time>
      </trkpt>
      <trkpt lat="29.13243" lon="-13.51292">
        <ele>463.6</ele>
        <time>2021-07-03 15:25:08</time>
      </trkpt>
      <trkpt lat="29.13242" lon="-13.51294">
        <ele>463.6</ele>
        <time>2021-07-03 15:25:09</time>
      </trkpt>
      <trkpt lat="29.13242" lon="-13.51295">
        <ele>463.6</ele>
        <time>2021-07-03 15:25:10</time>
      </trkpt>
      <trkpt lat="29.13242" lon="-13.51295">
        <ele>463.6</ele>
        <time>2021-07-03 15:25:11</time>
      </trkpt>
      <trkpt lat="29.13242" lon="-13.51295">
        <ele>463.6</ele>
        <time>2021-07-03 15:25:12</time>
      </trkpt>
      <trkpt lat="29.13242" lon="-13.51295">
        <ele>463.8</ele>
        <time>2021-07-03 15:25:13</time>
      </trkpt>
      <trkpt lat="29.13242" lon="-13.51295">
        <ele>463.8</ele>
        <time>2021-07-03 15:25:14</time>
      </trkpt>
      <trkpt lat="29.1324" lon="-13.51298">
        <ele>464.6</ele>
        <time>2021-07-03 15:25:15</time>
      </trkpt>
      <trkpt lat="29.13239" lon="-13.513">
        <ele>464.6</ele>
        <time>2021-07-03 15:25:16</time>
      </trkpt>
      <trkpt lat="29.13238" lon="-13.51303">
        <ele>464.6</ele>
        <time>2021-07-03 15:25:17</time>
      </trkpt>
      <trkpt lat="29.13237" lon="-13.51306">
        <ele>464.6</ele>
        <time>2021-07-03 15:26:20</time>
      </trkpt>
      <trkpt lat="29.13237" lon="-13.51308">
        <ele>464.8</ele>
        <time>2021-07-03 15:26:21</time>
      </trkpt>
      <trkpt lat="29.13236" lon="-13.51309">
        <ele>464.8</ele>
        <time>2021-07-03 15:26:22</time>
      </trkpt>
      <trkpt lat="29.13236" lon="-13.5131">
        <ele>464.8</ele>
        <time>2021-07-03 15:26:25</time>
      </trkpt>
      <trkpt lat="29.13236" lon="-13.51311">
        <ele>464.8</ele>
        <time>2021-07-03 15:26:26</time>
      </trkpt>
      <trkpt lat="29.13236" lon="-13.5131">
        <ele>464.8</ele>
        <time>2021-07-03 15:26:27</time>
      </trkpt>
      <trkpt lat="29.13237" lon="-13.5131">
        <ele>464.8</ele>
        <time>2021-07-03 15:26:28</time>
      </trkpt>
      <trkpt lat="29.13237" lon="-13.51311">
        <ele>464.8</ele>
        <time>2021-07-03 15:26:29</time>
      </trkpt>
      <trkpt lat="29.13234" lon="-13.51314">
        <ele>465.2</ele>
        <time>2021-07-03 15:26:30</time>
      </trkpt>
      <trkpt lat="29.13233" lon="-13.51316">
        <ele>465.2</ele>
        <time>2021-07-03 15:26:31</time>
      </trkpt>
      <trkpt lat="29.13232" lon="-13.51319">
        <ele>465.2</ele>
        <time>2021-07-03 15:26:32</time>
      </trkpt>
      <trkpt lat="29.13231" lon="-13.51322">
        <ele>465.2</ele>
        <time>2021-07-03 15:26:33</time>
      </trkpt>
      <trkpt lat="29.1323" lon="-13.51325">
        <ele>465.2</ele>
        <time>2021-07-03 15:26:34</time>
      </trkpt>
      <trkpt lat="29.13229" lon="-13.51328">
        <ele>465.4</ele>
        <time>2021-07-03 15:26:35</time>
      </trkpt>
      <trkpt lat="29.13228" lon="-13.51331">
        <ele>465.4</ele>
        <time>2021-07-03 15:26:36</time>
      </trkpt>
      <trkpt lat="29.13227" lon="-13.51334">
        <ele>465.6</ele>
        <time>2021-07-03 15:26:37</time>
      </trkpt>
      <trkpt lat="29.13226" lon="-13.51337">
        <ele>465.6</ele>
        <time>2021-07-03 15:26:38</time>
      </trkpt>
      <trkpt lat="29.13224" lon="-13.51341">
        <ele>466</ele>
        <time>2021-07-03 15:26:39</time>
      </trkpt>
      <trkpt lat="29.13223" lon="-13.51344">
        <ele>466</ele>
        <time>2021-07-03 15:26:40</time>
      </trkpt>
      <trkpt lat="29.13222" lon="-13.51347">
        <ele>466.4</ele>
        <time>2021-07-03 15:26:41</time>
      </trkpt>
      <trkpt lat="29.13221" lon="-13.5135">
        <ele>466.6</ele>
        <time>2021-07-03 15:26:42</time>
      </trkpt>
      <trkpt lat="29.1322" lon="-13.51353">
        <ele>467</ele>
        <time>2021-07-03 15:26:43</time>
      </trkpt>
      <trkpt lat="29.13218" lon="-13.51357">
        <ele>467.2</ele>
        <time>2021-07-03 15:26:44</time>
      </trkpt>
      <trkpt lat="29.13217" lon="-13.5136">
        <ele>467.4</ele>
        <time>2021-07-03 15:26:45</time>
      </trkpt>
      <trkpt lat="29.13216" lon="-13.51363">
        <ele>467.8</ele>
        <time>2021-07-03 15:26:46</time>
      </trkpt>
      <trkpt lat="29.13215" lon="-13.51366">
        <ele>468</ele>
        <time>2021-07-03 15:26:47</time>
      </trkpt>
      <trkpt lat="29.13214" lon="-13.51369">
        <ele>468.2</ele>
        <time>2021-07-03 15:26:48</time>
      </trkpt>
      <trkpt lat="29.13213" lon="-13.51372">
        <ele>468.2</ele>
        <time>2021-07-03 15:26:49</time>
      </trkpt>
      <trkpt lat="29.13212" lon="-13.51376">
        <ele>468.6</ele>
        <time>2021-07-03 15:26:50</time>
      </trkpt>
      <trkpt lat="29.1321" lon="-13.51379">
        <ele>468.8</ele>
        <time>2021-07-03 15:26:51</time>
      </trkpt>
      <trkpt lat="29.13209" lon="-13.51382">
        <ele>469</ele>
        <time>2021-07-03 15:26:52</time>
      </trkpt>
      <trkpt lat="29.13208" lon="-13.51385">
        <ele>469</ele>
        <time>2021-07-03 15:26:53</time>
      </trkpt>
      <trkpt lat="29.13207" lon="-13.51388">
        <ele>469.4</ele>
        <time>2021-07-03 15:26:54</time>
      </trkpt>
      <trkpt lat="29.13206" lon="-13.51391">
        <ele>469.4</ele>
        <time>2021-07-03 15:27:13</time>
      </trkpt>
      <trkpt lat="29.13204" lon="-13.51395">
        <ele>469.8</ele>
        <time>2021-07-03 15:27:14</time>
      </trkpt>
      <trkpt lat="29.13203" lon="-13.51398">
        <ele>469.8</ele>
        <time>2021-07-03 15:27:15</time>
      </trkpt>
      <trkpt lat="29.13202" lon="-13.51401">
        <ele>470</ele>
        <time>2021-07-03 15:27:16</time>
      </trkpt>
      <trkpt lat="29.132" lon="-13.51404">
        <ele>470</ele>
        <time>2021-07-03 15:27:17</time>
      </trkpt>
      <trkpt lat="29.13199" lon="-13.51407">
        <ele>470.4</ele>
        <time>2021-07-03 15:27:18</time>
      </trkpt>
      <trkpt lat="29.13197" lon="-13.5141">
        <ele>470.4</ele>
        <time>2021-07-03 15:27:19</time>
      </trkpt>
      <trkpt lat="29.13196" lon="-13.51414">
        <ele>470.6</ele>
        <time>2021-07-03 15:27:20</time>
      </trkpt>
      <trkpt lat="29.13194" lon="-13.51417">
        <ele>471</ele>
        <time>2021-07-03 15:27:21</time>
      </trkpt>
      <trkpt lat="29.13193" lon="-13.5142">
        <ele>471</ele>
        <time>2021-07-03 15:27:22</time>
      </trkpt>
      <trkpt lat="29.13191" lon="-13.51422">
        <ele>471.2</ele>
        <time>2021-07-03 15:27:23</time>
      </trkpt>
      <trkpt lat="29.1319" lon="-13.51425">
        <ele>471.2</ele>
        <time>2021-07-03 15:27:24</time>
      </trkpt>
      <trkpt lat="29.13189" lon="-13.51427">
        <ele>471.6</ele>
        <time>2021-07-03 15:27:35</time>
      </trkpt>
      <trkpt lat="29.13188" lon="-13.51429">
        <ele>471.6</ele>
        <time>2021-07-03 15:27:36</time>
      </trkpt>
      <trkpt lat="29.13187" lon="-13.51431">
        <ele>472</ele>
        <time>2021-07-03 15:27:37</time>
      </trkpt>
      <trkpt lat="29.13186" lon="-13.51433">
        <ele>472</ele>
        <time>2021-07-03 15:27:38</time>
      </trkpt>
      <trkpt lat="29.13186" lon="-13.51434">
        <ele>472.2</ele>
        <time>2021-07-03 15:27:39</time>
      </trkpt>
      <trkpt lat="29.13186" lon="-13.51435">
        <ele>472.2</ele>
        <time>2021-07-03 15:27:40</time>
      </trkpt>
      <trkpt lat="29.13186" lon="-13.51435">
        <ele>472.4</ele>
        <time>2021-07-03 15:27:41</time>
      </trkpt>
      <trkpt lat="29.13186" lon="-13.51434">
        <ele>472.4</ele>
        <time>2021-07-03 15:27:42</time>
      </trkpt>
      <trkpt lat="29.13186" lon="-13.51434">
        <ele>472.4</ele>
        <time>2021-07-03 15:27:43</time>
      </trkpt>
      <trkpt lat="29.13187" lon="-13.51435">
        <ele>472.8</ele>
        <time>2021-07-03 15:27:44</time>
      </trkpt>
      <trkpt lat="29.13186" lon="-13.51437">
        <ele>472.8</ele>
        <time>2021-07-03 15:27:45</time>
      </trkpt>
      <trkpt lat="29.13185" lon="-13.51439">
        <ele>472.8</ele>
        <time>2021-07-03 15:27:56</time>
      </trkpt>
      <trkpt lat="29.13184" lon="-13.51441">
        <ele>472.8</ele>
        <time>2021-07-03 15:27:57</time>
      </trkpt>
      <trkpt lat="29.13182" lon="-13.51444">
        <ele>472.8</ele>
        <time>2021-07-03 15:27:58</time>
      </trkpt>
      <trkpt lat="29.13181" lon="-13.51446">
        <ele>472.8</ele>
        <time>2021-07-03 15:27:59</time>
      </trkpt>
      <trkpt lat="29.1318" lon="-13.51449">
        <ele>472.8</ele>
        <time>2021-07-03 15:28:00</time>
      </trkpt>
      <trkpt lat="29.13179" lon="-13.51452">
        <ele>473.2</ele>
        <time>2021-07-03 15:28:01</time>
      </trkpt>
      <trkpt lat="29.13177" lon="-13.51455">
        <ele>473.2</ele>
        <time>2021-07-03 15:28:02</time>
      </trkpt>
      <trkpt lat="29.13176" lon="-13.51459">
        <ele>473.4</ele>
        <time>2021-07-03 15:28:03</time>
      </trkpt>
      <trkpt lat="29.13175" lon="-13.51462">
        <ele>473.4</ele>
        <time>2021-07-03 15:28:04</time>
      </trkpt>
      <trkpt lat="29.13174" lon="-13.51465">
        <ele>473.8</ele>
        <time>2021-07-03 15:28:05</time>
      </trkpt>
      <trkpt lat="29.13174" lon="-13.51469">
        <ele>473.8</ele>
        <time>2021-07-03 15:28:06</time>
      </trkpt>
      <trkpt lat="29.13174" lon="-13.51472">
        <ele>474</ele>
        <time>2021-07-03 15:28:07</time>
      </trkpt>
      <trkpt lat="29.13173" lon="-13.51476">
        <ele>474</ele>
        <time>2021-07-03 15:28:08</time>
      </trkpt>
      <trkpt lat="29.13173" lon="-13.51479">
        <ele>474.4</ele>
        <time>2021-07-03 15:28:09</time>
      </trkpt>
      <trkpt lat="29.13173" lon="-13.51483">
        <ele>474.6</ele>
        <time>2021-07-03 15:28:10</time>
      </trkpt>
      <trkpt lat="29.13173" lon="-13.51486">
        <ele>475</ele>
        <time>2021-07-03 15:28:11</time>
      </trkpt>
      <trkpt lat="29.13172" lon="-13.51489">
        <ele>475.2</ele>
        <time>2021-07-03 15:28:12</time>
      </trkpt>
      <trkpt lat="29.13172" lon="-13.51493">
        <ele>475.2</ele>
        <time>2021-07-03 15:28:13</time>
      </trkpt>
      <trkpt lat="29.13172" lon="-13.51496">
        <ele>475.6</ele>
        <time>2021-07-03 15:28:14</time>
      </trkpt>
      <trkpt lat="29.13172" lon="-13.51499">
        <ele>475.6</ele>
        <time>2021-07-03 15:28:15</time>
      </trkpt>
      <trkpt lat="29.13171" lon="-13.51503">
        <ele>475.8</ele>
        <time>2021-07-03 15:28:16</time>
      </trkpt>
      <trkpt lat="29.13171" lon="-13.51506">
        <ele>476</ele>
        <time>2021-07-03 15:28:17</time>
      </trkpt>
      <trkpt lat="29.1317" lon="-13.51509">
        <ele>476.4</ele>
        <time>2021-07-03 15:28:18</time>
      </trkpt>
      <trkpt lat="29.1317" lon="-13.51513">
        <ele>476.6</ele>
        <time>2021-07-03 15:28:19</time>
      </trkpt>
      <trkpt lat="29.13169" lon="-13.51516">
        <ele>476.6</ele>
        <time>2021-07-03 15:28:20</time>
      </trkpt>
      <trkpt lat="29.13169" lon="-13.5152">
        <ele>476.8</ele>
        <time>2021-07-03 15:28:21</time>
      </trkpt>
      <trkpt lat="29.13169" lon="-13.51523">
        <ele>476.8</ele>
        <time>2021-07-03 15:28:22</time>
      </trkpt>
      <trkpt lat="29.13168" lon="-13.51526">
        <ele>477.2</ele>
        <time>2021-07-03 15:28:23</time>
      </trkpt>
      <trkpt lat="29.13168" lon="-13.5153">
        <ele>477.4</ele>
        <time>2021-07-03 15:28:24</time>
      </trkpt>
      <trkpt lat="29.13168" lon="-13.51533">
        <ele>477.4</ele>
        <time>2021-07-03 15:28:25</time>
      </trkpt>
      <trkpt lat="29.13167" lon="-13.51536">
        <ele>477.8</ele>
        <time>2021-07-03 15:28:26</time>
      </trkpt>
      <trkpt lat="29.13167" lon="-13.5154">
        <ele>478</ele>
        <time>2021-07-03 15:28:27</time>
      </trkpt>
      <trkpt lat="29.13166" lon="-13.51543">
        <ele>478</ele>
        <time>2021-07-03 15:28:28</time>
      </trkpt>
      <trkpt lat="29.13166" lon="-13.51546">
        <ele>478.4</ele>
        <time>2021-07-03 15:28:29</time>
      </trkpt>
      <trkpt lat="29.13165" lon="-13.51549">
        <ele>478.6</ele>
        <time>2021-07-03 15:28:30</time>
      </trkpt>
      <trkpt lat="29.13164" lon="-13.51552">
        <ele>478.8</ele>
        <time>2021-07-03 15:28:31</time>
      </trkpt>
      <trkpt lat="29.13162" lon="-13.51555">
        <ele>479</ele>
        <time>2021-07-03 15:28:32</time>
      </trkpt>
      <trkpt lat="29.1316" lon="-13.51557">
        <ele>479.2</ele>
        <time>2021-07-03 15:28:33</time>
      </trkpt>
      <trkpt lat="29.13158" lon="-13.51559">
        <ele>479.4</ele>
        <time>2021-07-03 15:28:34</time>
      </trkpt>
      <trkpt lat="29.13155" lon="-13.51561">
        <ele>479.4</ele>
        <time>2021-07-03 15:28:35</time>
      </trkpt>
      <trkpt lat="29.1315" lon="-13.51563">
        <ele>480.2</ele>
        <time>2021-07-03 15:28:36</time>
      </trkpt>
      <trkpt lat="29.13148" lon="-13.51564">
        <ele>480.2</ele>
        <time>2021-07-03 15:28:37</time>
      </trkpt>
      <trkpt lat="29.13147" lon="-13.51564">
        <ele>480.6</ele>
        <time>2021-07-03 15:28:38</time>
      </trkpt>
      <trkpt lat="29.13147" lon="-13.51564">
        <ele>480.6</ele>
        <time>2021-07-03 15:28:39</time>
      </trkpt>
      <trkpt lat="29.13148" lon="-13.51563">
        <ele>481</ele>
        <time>2021-07-03 15:28:40</time>
      </trkpt>
      <trkpt lat="29.13147" lon="-13.51564">
        <ele>481.6</ele>
        <time>2021-07-03 15:28:41</time>
      </trkpt>
      <trkpt lat="29.13147" lon="-13.51564">
        <ele>481.6</ele>
        <time>2021-07-03 15:29:01</time>
      </trkpt>
      <trkpt lat="29.13147" lon="-13.51564">
        <ele>481.6</ele>
        <time>2021-07-03 15:29:02</time>
      </trkpt>
      <trkpt lat="29.13146" lon="-13.51563">
        <ele>482</ele>
        <time>2021-07-03 15:29:03</time>
      </trkpt>
      <trkpt lat="29.13144" lon="-13.51563">
        <ele>482</ele>
        <time>2021-07-03 15:29:04</time>
      </trkpt>
      <trkpt lat="29.13143" lon="-13.51562">
        <ele>482</ele>
        <time>2021-07-03 15:29:05</time>
      </trkpt>
      <trkpt lat="29.13141" lon="-13.51562">
        <ele>482</ele>
        <time>2021-07-03 15:29:06</time>
      </trkpt>
      <trkpt lat="29.1314" lon="-13.51561">
        <ele>482</ele>
        <time>2021-07-03 15:29:07</time>
      </trkpt>
      <trkpt lat="29.13138" lon="-13.51561">
        <ele>482.2</ele>
        <time>2021-07-03 15:29:08</time>
      </trkpt>
      <trkpt lat="29.13136" lon="-13.5156">
        <ele>482.2</ele>
        <time>2021-07-03 15:29:09</time>
      </trkpt>
      <trkpt lat="29.13135" lon="-13.51559">
        <ele>482.2</ele>
        <time>2021-07-03 15:29:10</time>
      </trkpt>
      <trkpt lat="29.13134" lon="-13.51557">
        <ele>482.2</ele>
        <time>2021-07-03 15:29:11</time>
      </trkpt>
      <trkpt lat="29.13133" lon="-13.51555">
        <ele>482.4</ele>
        <time>2021-07-03 15:29:12</time>
      </trkpt>
      <trkpt lat="29.13132" lon="-13.51554">
        <ele>482.4</ele>
        <time>2021-07-03 15:29:13</time>
      </trkpt>
      <trkpt lat="29.13131" lon="-13.51552">
        <ele>482.4</ele>
        <time>2021-07-03 15:29:14</time>
      </trkpt>
      <trkpt lat="29.1313" lon="-13.51551">
        <ele>482.8</ele>
        <time>2021-07-03 15:29:15</time>
      </trkpt>
      <trkpt lat="29.13129" lon="-13.51549">
        <ele>482.8</ele>
        <time>2021-07-03 15:29:16</time>
      </trkpt>
      <trkpt lat="29.13129" lon="-13.51548">
        <ele>482.8</ele>
        <time>2021-07-03 15:29:17</time>
      </trkpt>
      <trkpt lat="29.13129" lon="-13.51546">
        <ele>482.8</ele>
        <time>2021-07-03 15:29:18</time>
      </trkpt>
      <trkpt lat="29.13128" lon="-13.51544">
        <ele>483</ele>
        <time>2021-07-03 15:29:19</time>
      </trkpt>
      <trkpt lat="29.13128" lon="-13.51542">
        <ele>483</ele>
        <time>2021-07-03 15:29:20</time>
      </trkpt>
      <trkpt lat="29.13128" lon="-13.5154">
        <ele>483.2</ele>
        <time>2021-07-03 15:29:21</time>
      </trkpt>
      <trkpt lat="29.13129" lon="-13.51538">
        <ele>483.2</ele>
        <time>2021-07-03 15:29:22</time>
      </trkpt>
      <trkpt lat="29.1313" lon="-13.51536">
        <ele>483.2</ele>
        <time>2021-07-03 15:29:23</time>
      </trkpt>
      <trkpt lat="29.1313" lon="-13.51535">
        <ele>483.6</ele>
        <time>2021-07-03 15:29:24</time>
      </trkpt>
      <trkpt lat="29.13131" lon="-13.51533">
        <ele>483.8</ele>
        <time>2021-07-03 15:29:25</time>
      </trkpt>
      <trkpt lat="29.13132" lon="-13.51531">
        <ele>484</ele>
        <time>2021-07-03 15:29:26</time>
      </trkpt>
      <trkpt lat="29.13132" lon="-13.51528">
        <ele>484</ele>
        <time>2021-07-03 15:29:27</time>
      </trkpt>
      <trkpt lat="29.13133" lon="-13.51526">
        <ele>484.4</ele>
        <time>2021-07-03 15:29:28</time>
      </trkpt>
      <trkpt lat="29.13134" lon="-13.51524">
        <ele>484.4</ele>
        <time>2021-07-03 15:29:29</time>
      </trkpt>
      <trkpt lat="29.13135" lon="-13.51521">
        <ele>484.8</ele>
        <time>2021-07-03 15:29:30</time>
      </trkpt>
      <trkpt lat="29.13136" lon="-13.51518">
        <ele>484.8</ele>
        <time>2021-07-03 15:29:31</time>
      </trkpt>
      <trkpt lat="29.13136" lon="-13.51515">
        <ele>485.4</ele>
        <time>2021-07-03 15:29:32</time>
      </trkpt>
      <trkpt lat="29.13137" lon="-13.51512">
        <ele>485.6</ele>
        <time>2021-07-03 15:29:33</time>
      </trkpt>
      <trkpt lat="29.13138" lon="-13.51509">
        <ele>486</ele>
        <time>2021-07-03 15:29:34</time>
      </trkpt>
      <trkpt lat="29.13138" lon="-13.51506">
        <ele>486.4</ele>
        <time>2021-07-03 15:29:35</time>
      </trkpt>
      <trkpt lat="29.13139" lon="-13.51503">
        <ele>486.8</ele>
        <time>2021-07-03 15:29:36</time>
      </trkpt>
      <trkpt lat="29.1314" lon="-13.51499">
        <ele>487</ele>
        <time>2021-07-03 15:29:37</time>
      </trkpt>
      <trkpt lat="29.1314" lon="-13.51496">
        <ele>487</ele>
        <time>2021-07-03 15:29:38</time>
      </trkpt>
      <trkpt lat="29.13141" lon="-13.51493">
        <ele>487.4</ele>
        <time>2021-07-03 15:29:39</time>
      </trkpt>
      <trkpt lat="29.13142" lon="-13.5149">
        <ele>487.4</ele>
        <time>2021-07-03 15:29:40</time>
      </trkpt>
      <trkpt lat="29.13143" lon="-13.51487">
        <ele>487.4</ele>
        <time>2021-07-03 15:29:41</time>
      </trkpt>
      <trkpt lat="29.13143" lon="-13.51484">
        <ele>487.4</ele>
        <time>2021-07-03 15:29:42</time>
      </trkpt>
      <trkpt lat="29.13144" lon="-13.51481">
        <ele>487.6</ele>
        <time>2021-07-03 15:29:43</time>
      </trkpt>
      <trkpt lat="29.13145" lon="-13.51478">
        <ele>487.6</ele>
        <time>2021-07-03 15:29:44</time>
      </trkpt>
      <trkpt lat="29.13146" lon="-13.51474">
        <ele>488</ele>
        <time>2021-07-03 15:29:45</time>
      </trkpt>
      <trkpt lat="29.13146" lon="-13.51471">
        <ele>488</ele>
        <time>2021-07-03 15:29:46</time>
      </trkpt>
      <trkpt lat="29.13147" lon="-13.51468">
        <ele>488.2</ele>
        <time>2021-07-03 15:29:47</time>
      </trkpt>
      <trkpt lat="29.13148" lon="-13.51464">
        <ele>488.2</ele>
        <time>2021-07-03 15:29:48</time>
      </trkpt>
      <trkpt lat="29.13149" lon="-13.51461">
        <ele>488.6</ele>
        <time>2021-07-03 15:30:12</time>
      </trkpt>
      <trkpt lat="29.1315" lon="-13.51458">
        <ele>488.6</ele>
        <time>2021-07-03 15:30:13</time>
      </trkpt>
      <trkpt lat="29.13151" lon="-13.51454">
        <ele>488.8</ele>
        <time>2021-07-03 15:30:14</time>
      </trkpt>
      <trkpt lat="29.13152" lon="-13.51451">
        <ele>488.8</ele>
        <time>2021-07-03 15:30:26</time>
      </trkpt>
      <trkpt lat="29.13153" lon="-13.51448">
        <ele>489</ele>
        <time>2021-07-03 15:30:27</time>
      </trkpt>
      <trkpt lat="29.13154" lon="-13.51445">
        <ele>489</ele>
        <time>2021-07-03 15:30:28</time>
      </trkpt>
      <trkpt lat="29.13155" lon="-13.51441">
        <ele>489.4</ele>
        <time>2021-07-03 15:30:29</time>
      </trkpt>
      <trkpt lat="29.13156" lon="-13.51438">
        <ele>489.4</ele>
        <time>2021-07-03 15:30:30</time>
      </trkpt>
      <trkpt lat="29.13157" lon="-13.51435">
        <ele>489.6</ele>
        <time>2021-07-03 15:30:31</time>
      </trkpt>
      <trkpt lat="29.13158" lon="-13.51431">
        <ele>489.6</ele>
        <time>2021-07-03 15:30:32</time>
      </trkpt>
      <trkpt lat="29.1316" lon="-13.51428">
        <ele>490</ele>
        <time>2021-07-03 15:30:33</time>
      </trkpt>
      <trkpt lat="29.13162" lon="-13.51421">
        <ele>490.4</ele>
        <time>2021-07-03 15:30:34</time>
      </trkpt>
      <trkpt lat="29.13163" lon="-13.51418">
        <ele>490.8</ele>
        <time>2021-07-03 15:30:35</time>
      </trkpt>
      <trkpt lat="29.13164" lon="-13.51415">
        <ele>491</ele>
        <time>2021-07-03 15:30:36</time>
      </trkpt>
      <trkpt lat="29.13165" lon="-13.51413">
        <ele>491</ele>
        <time>2021-07-03 15:30:37</time>
      </trkpt>
      <trkpt lat="29.13166" lon="-13.51411">
        <ele>491.4</ele>
        <time>2021-07-03 15:30:38</time>
      </trkpt>
      <trkpt lat="29.13166" lon="-13.51409">
        <ele>491.4</ele>
        <time>2021-07-03 15:30:39</time>
      </trkpt>
      <trkpt lat="29.13166" lon="-13.51409">
        <ele>491.8</ele>
        <time>2021-07-03 15:30:40</time>
      </trkpt>
      <trkpt lat="29.13166" lon="-13.51409">
        <ele>491.8</ele>
        <time>2021-07-03 15:30:41</time>
      </trkpt>
      <trkpt lat="29.13166" lon="-13.51409">
        <ele>491.8</ele>
        <time>2021-07-03 15:30:42</time>
      </trkpt>
      <trkpt lat="29.13167" lon="-13.51408">
        <ele>489.8</ele>
        <time>2021-07-03 15:30:43</time>
      </trkpt>
      <trkpt lat="29.13168" lon="-13.51407">
        <ele>489.8</ele>
        <time>2021-07-03 15:30:44</time>
      </trkpt>
      <trkpt lat="29.13168" lon="-13.51405">
        <ele>489.8</ele>
        <time>2021-07-03 15:30:45</time>
      </trkpt>
      <trkpt lat="29.13169" lon="-13.51403">
        <ele>489.8</ele>
        <time>2021-07-03 15:30:46</time>
      </trkpt>
      <trkpt lat="29.1317" lon="-13.51401">
        <ele>489.8</ele>
        <time>2021-07-03 15:30:47</time>
      </trkpt>
      <trkpt lat="29.13171" lon="-13.51398">
        <ele>489.8</ele>
        <time>2021-07-03 15:30:48</time>
      </trkpt>
      <trkpt lat="29.13172" lon="-13.51395">
        <ele>489.8</ele>
        <time>2021-07-03 15:30:49</time>
      </trkpt>
      <trkpt lat="29.13173" lon="-13.51392">
        <ele>489.8</ele>
        <time>2021-07-03 15:30:50</time>
      </trkpt>
      <trkpt lat="29.13174" lon="-13.51389">
        <ele>489.8</ele>
        <time>2021-07-03 15:30:51</time>
      </trkpt>
      <trkpt lat="29.13174" lon="-13.51386">
        <ele>490.2</ele>
        <time>2021-07-03 15:30:52</time>
      </trkpt>
      <trkpt lat="29.13173" lon="-13.51382">
        <ele>490.2</ele>
        <time>2021-07-03 15:30:53</time>
      </trkpt>
      <trkpt lat="29.13172" lon="-13.51379">
        <ele>490.4</ele>
        <time>2021-07-03 15:30:54</time>
      </trkpt>
      <trkpt lat="29.13171" lon="-13.51376">
        <ele>490.4</ele>
        <time>2021-07-03 15:30:55</time>
      </trkpt>
      <trkpt lat="29.13168" lon="-13.51374">
        <ele>490.4</ele>
        <time>2021-07-03 15:30:56</time>
      </trkpt>
      <trkpt lat="29.13166" lon="-13.51372">
        <ele>490.6</ele>
        <time>2021-07-03 15:30:57</time>
      </trkpt>
      <trkpt lat="29.13163" lon="-13.5137">
        <ele>490.6</ele>
        <time>2021-07-03 15:30:58</time>
      </trkpt>
      <trkpt lat="29.13161" lon="-13.5137">
        <ele>491</ele>
        <time>2021-07-03 15:30:59</time>
      </trkpt>
      <trkpt lat="29.13158" lon="-13.5137">
        <ele>491</ele>
        <time>2021-07-03 15:31:00</time>
      </trkpt>
      <trkpt lat="29.13155" lon="-13.51371">
        <ele>491</ele>
        <time>2021-07-03 15:31:01</time>
      </trkpt>
      <trkpt lat="29.13152" lon="-13.51372">
        <ele>491</ele>
        <time>2021-07-03 15:31:02</time>
      </trkpt>
      <trkpt lat="29.1315" lon="-13.51375">
        <ele>491</ele>
        <time>2021-07-03 15:31:03</time>
      </trkpt>
      <trkpt lat="29.13147" lon="-13.51377">
        <ele>491.2</ele>
        <time>2021-07-03 15:31:04</time>
      </trkpt>
      <trkpt lat="29.13146" lon="-13.5138">
        <ele>491.2</ele>
        <time>2021-07-03 15:31:05</time>
      </trkpt>
      <trkpt lat="29.13144" lon="-13.51384">
        <ele>491.2</ele>
        <time>2021-07-03 15:31:06</time>
      </trkpt>
      <trkpt lat="29.13143" lon="-13.51387">
        <ele>491.4</ele>
        <time>2021-07-03 15:31:07</time>
      </trkpt>
      <trkpt lat="29.13142" lon="-13.5139">
        <ele>491.4</ele>
        <time>2021-07-03 15:31:08</time>
      </trkpt>
      <trkpt lat="29.13142" lon="-13.51393">
        <ele>491.6</ele>
        <time>2021-07-03 15:31:09</time>
      </trkpt>
      <trkpt lat="29.13142" lon="-13.51396">
        <ele>491.6</ele>
        <time>2021-07-03 15:31:10</time>
      </trkpt>
      <trkpt lat="29.13142" lon="-13.51399">
        <ele>492</ele>
        <time>2021-07-03 15:31:11</time>
      </trkpt>
      <trkpt lat="29.13142" lon="-13.51402">
        <ele>492.2</ele>
        <time>2021-07-03 15:31:12</time>
      </trkpt>
      <trkpt lat="29.13141" lon="-13.51405">
        <ele>492.2</ele>
        <time>2021-07-03 15:31:13</time>
      </trkpt>
      <trkpt lat="29.13141" lon="-13.51408">
        <ele>492.4</ele>
        <time>2021-07-03 15:31:14</time>
      </trkpt>
      <trkpt lat="29.13141" lon="-13.51411">
        <ele>492.4</ele>
        <time>2021-07-03 15:31:15</time>
      </trkpt>
      <trkpt lat="29.1314" lon="-13.51414">
        <ele>492.8</ele>
        <time>2021-07-03 15:31:16</time>
      </trkpt>
      <trkpt lat="29.1314" lon="-13.51417">
        <ele>492.8</ele>
        <time>2021-07-03 15:31:17</time>
      </trkpt>
      <trkpt lat="29.1314" lon="-13.5142">
        <ele>493</ele>
        <time>2021-07-03 15:31:18</time>
      </trkpt>
      <trkpt lat="29.13139" lon="-13.51423">
        <ele>493</ele>
        <time>2021-07-03 15:31:19</time>
      </trkpt>
      <trkpt lat="29.13139" lon="-13.51427">
        <ele>493.2</ele>
        <time>2021-07-03 15:31:20</time>
      </trkpt>
      <trkpt lat="29.13139" lon="-13.5143">
        <ele>493.2</ele>
        <time>2021-07-03 15:31:21</time>
      </trkpt>
      <trkpt lat="29.13138" lon="-13.51433">
        <ele>493.4</ele>
        <time>2021-07-03 15:31:22</time>
      </trkpt>
      <trkpt lat="29.13138" lon="-13.51436">
        <ele>493.4</ele>
        <time>2021-07-03 15:31:23</time>
      </trkpt>
      <trkpt lat="29.13137" lon="-13.51439">
        <ele>493.8</ele>
        <time>2021-07-03 15:31:24</time>
      </trkpt>
      <trkpt lat="29.13137" lon="-13.51442">
        <ele>493.8</ele>
        <time>2021-07-03 15:31:25</time>
      </trkpt>
      <trkpt lat="29.13136" lon="-13.51445">
        <ele>494</ele>
        <time>2021-07-03 15:31:26</time>
      </trkpt>
      <trkpt lat="29.13136" lon="-13.51448">
        <ele>494</ele>
        <time>2021-07-03 15:31:27</time>
      </trkpt>
      <trkpt lat="29.13136" lon="-13.51451">
        <ele>494.4</ele>
        <time>2021-07-03 15:31:28</time>
      </trkpt>
      <trkpt lat="29.13135" lon="-13.51454">
        <ele>494.4</ele>
        <time>2021-07-03 15:31:29</time>
      </trkpt>
      <trkpt lat="29.13135" lon="-13.51457">
        <ele>494.8</ele>
        <time>2021-07-03 15:31:30</time>
      </trkpt>
      <trkpt lat="29.13134" lon="-13.5146">
        <ele>495</ele>
        <time>2021-07-03 15:31:31</time>
      </trkpt>
      <trkpt lat="29.13134" lon="-13.51463">
        <ele>495.2</ele>
        <time>2021-07-03 15:31:32</time>
      </trkpt>
      <trkpt lat="29.13134" lon="-13.51466">
        <ele>495.4</ele>
        <time>2021-07-03 15:31:59</time>
      </trkpt>
      <trkpt lat="29.13133" lon="-13.51469">
        <ele>495.4</ele>
        <time>2021-07-03 15:32:00</time>
      </trkpt>
      <trkpt lat="29.13133" lon="-13.51472">
        <ele>495.8</ele>
        <time>2021-07-03 15:32:01</time>
      </trkpt>
      <trkpt lat="29.13133" lon="-13.51475">
        <ele>496</ele>
        <time>2021-07-03 15:32:02</time>
      </trkpt>
      <trkpt lat="29.13132" lon="-13.51478">
        <ele>496</ele>
        <time>2021-07-03 15:32:03</time>
      </trkpt>
      <trkpt lat="29.13132" lon="-13.51481">
        <ele>496.2</ele>
        <time>2021-07-03 15:32:04</time>
      </trkpt>
      <trkpt lat="29.13131" lon="-13.51484">
        <ele>496.2</ele>
        <time>2021-07-03 15:32:05</time>
      </trkpt>
      <trkpt lat="29.1313" lon="-13.51487">
        <ele>496.6</ele>
        <time>2021-07-03 15:32:06</time>
      </trkpt>
      <trkpt lat="29.1313" lon="-13.5149">
        <ele>496.6</ele>
        <time>2021-07-03 15:32:07</time>
      </trkpt>
      <trkpt lat="29.13128" lon="-13.51492">
        <ele>496.8</ele>
        <time>2021-07-03 15:32:08</time>
      </trkpt>
      <trkpt lat="29.13127" lon="-13.51495">
        <ele>496.8</ele>
        <time>2021-07-03 15:32:09</time>
      </trkpt>
      <trkpt lat="29.13126" lon="-13.51498">
        <ele>497.2</ele>
        <time>2021-07-03 15:32:10</time>
      </trkpt>
      <trkpt lat="29.13125" lon="-13.515">
        <ele>497.4</ele>
        <time>2021-07-03 15:32:11</time>
      </trkpt>
      <trkpt lat="29.13124" lon="-13.51503">
        <ele>497.4</ele>
        <time>2021-07-03 15:32:12</time>
      </trkpt>
      <trkpt lat="29.13123" lon="-13.51506">
        <ele>497.8</ele>
        <time>2021-07-03 15:32:13</time>
      </trkpt>
      <trkpt lat="29.13121" lon="-13.51508">
        <ele>497.8</ele>
        <time>2021-07-03 15:32:14</time>
      </trkpt>
      <trkpt lat="29.1312" lon="-13.5151">
        <ele>498</ele>
        <time>2021-07-03 15:32:15</time>
      </trkpt>
      <trkpt lat="29.13119" lon="-13.51513">
        <ele>498</ele>
        <time>2021-07-03 15:32:16</time>
      </trkpt>
      <trkpt lat="29.13118" lon="-13.51515">
        <ele>498.2</ele>
        <time>2021-07-03 15:32:17</time>
      </trkpt>
      <trkpt lat="29.13117" lon="-13.51518">
        <ele>498.2</ele>
        <time>2021-07-03 15:32:18</time>
      </trkpt>
      <trkpt lat="29.13117" lon="-13.5152">
        <ele>498.2</ele>
        <time>2021-07-03 15:32:19</time>
      </trkpt>
      <trkpt lat="29.13117" lon="-13.51522">
        <ele>498.4</ele>
        <time>2021-07-03 15:32:20</time>
      </trkpt>
      <trkpt lat="29.13117" lon="-13.51523">
        <ele>498.4</ele>
        <time>2021-07-03 15:32:21</time>
      </trkpt>
      <trkpt lat="29.13117" lon="-13.51523">
        <ele>498.6</ele>
        <time>2021-07-03 15:32:22</time>
      </trkpt>
      <trkpt lat="29.13117" lon="-13.51523">
        <ele>498.6</ele>
        <time>2021-07-03 15:32:23</time>
      </trkpt>
      <trkpt lat="29.13118" lon="-13.51524">
        <ele>498.6</ele>
        <time>2021-07-03 15:32:24</time>
      </trkpt>
      <trkpt lat="29.13117" lon="-13.51527">
        <ele>499.8</ele>
        <time>2021-07-03 15:32:25</time>
      </trkpt>
      <trkpt lat="29.13116" lon="-13.51529">
        <ele>499.8</ele>
        <time>2021-07-03 15:32:26</time>
      </trkpt>
      <trkpt lat="29.13116" lon="-13.51532">
        <ele>499.8</ele>
        <time>2021-07-03 15:32:27</time>
      </trkpt>
      <trkpt lat="29.13116" lon="-13.51535">
        <ele>499.8</ele>
        <time>2021-07-03 15:32:28</time>
      </trkpt>
      <trkpt lat="29.13115" lon="-13.51538">
        <ele>499.8</ele>
        <time>2021-07-03 15:32:29</time>
      </trkpt>
      <trkpt lat="29.13115" lon="-13.51541">
        <ele>499.8</ele>
        <time>2021-07-03 15:32:30</time>
      </trkpt>
      <trkpt lat="29.13115" lon="-13.51545">
        <ele>499.8</ele>
        <time>2021-07-03 15:32:31</time>
      </trkpt>
      <trkpt lat="29.13114" lon="-13.51548">
        <ele>499.8</ele>
        <time>2021-07-03 15:32:32</time>
      </trkpt>
      <trkpt lat="29.13114" lon="-13.51551">
        <ele>500.2</ele>
        <time>2021-07-03 15:32:33</time>
      </trkpt>
      <trkpt lat="29.13114" lon="-13.51554">
        <ele>500.2</ele>
        <time>2021-07-03 15:32:34</time>
      </trkpt>
      <trkpt lat="29.13114" lon="-13.51558">
        <ele>500.4</ele>
        <time>2021-07-03 15:32:35</time>
      </trkpt>
      <trkpt lat="29.13114" lon="-13.51561">
        <ele>500.4</ele>
        <time>2021-07-03 15:32:36</time>
      </trkpt>
      <trkpt lat="29.13114" lon="-13.51564">
        <ele>500.6</ele>
        <time>2021-07-03 15:32:37</time>
      </trkpt>
      <trkpt lat="29.13114" lon="-13.51568">
        <ele>500.6</ele>
        <time>2021-07-03 15:32:38</time>
      </trkpt>
      <trkpt lat="29.13115" lon="-13.51571">
        <ele>501</ele>
        <time>2021-07-03 15:32:39</time>
      </trkpt>
      <trkpt lat="29.13115" lon="-13.51575">
        <ele>501</ele>
        <time>2021-07-03 15:32:40</time>
      </trkpt>
      <trkpt lat="29.13116" lon="-13.51578">
        <ele>501.2</ele>
        <time>2021-07-03 15:32:41</time>
      </trkpt>
      <trkpt lat="29.13116" lon="-13.51581">
        <ele>501.2</ele>
        <time>2021-07-03 15:32:42</time>
      </trkpt>
      <trkpt lat="29.13117" lon="-13.51585">
        <ele>501.6</ele>
        <time>2021-07-03 15:32:43</time>
      </trkpt>
      <trkpt lat="29.13117" lon="-13.51588">
        <ele>501.8</ele>
        <time>2021-07-03 15:32:44</time>
      </trkpt>
      <trkpt lat="29.13117" lon="-13.51592">
        <ele>502.2</ele>
        <time>2021-07-03 15:32:45</time>
      </trkpt>
      <trkpt lat="29.13118" lon="-13.51595">
        <ele>502.4</ele>
        <time>2021-07-03 15:32:46</time>
      </trkpt>
      <trkpt lat="29.13118" lon="-13.51599">
        <ele>502.6</ele>
        <time>2021-07-03 15:32:47</time>
      </trkpt>
      <trkpt lat="29.13118" lon="-13.51602">
        <ele>502.8</ele>
        <time>2021-07-03 15:32:48</time>
      </trkpt>
      <trkpt lat="29.13118" lon="-13.51605">
        <ele>503</ele>
        <time>2021-07-03 15:32:49</time>
      </trkpt>
      <trkpt lat="29.13119" lon="-13.51609">
        <ele>503.4</ele>
        <time>2021-07-03 15:32:50</time>
      </trkpt>
      <trkpt lat="29.13119" lon="-13.51612">
        <ele>503.6</ele>
        <time>2021-07-03 15:32:51</time>
      </trkpt>
      <trkpt lat="29.1312" lon="-13.51615">
        <ele>503.8</ele>
        <time>2021-07-03 15:32:52</time>
      </trkpt>
      <trkpt lat="29.1312" lon="-13.51619">
        <ele>504</ele>
        <time>2021-07-03 15:32:53</time>
      </trkpt>
      <trkpt lat="29.1312" lon="-13.51622">
        <ele>504</ele>
        <time>2021-07-03 15:32:54</time>
      </trkpt>
      <trkpt lat="29.13121" lon="-13.51625">
        <ele>504.2</ele>
        <time>2021-07-03 15:32:55</time>
      </trkpt>
      <trkpt lat="29.13121" lon="-13.51629">
        <ele>504.2</ele>
        <time>2021-07-03 15:32:56</time>
      </trkpt>
      <trkpt lat="29.13121" lon="-13.51632">
        <ele>504.6</ele>
        <time>2021-07-03 15:32:57</time>
      </trkpt>
      <trkpt lat="29.13122" lon="-13.51636">
        <ele>504.8</ele>
        <time>2021-07-03 15:32:58</time>
      </trkpt>
      <trkpt lat="29.13122" lon="-13.51639">
        <ele>504.8</ele>
        <time>2021-07-03 15:32:59</time>
      </trkpt>
      <trkpt lat="29.13123" lon="-13.51643">
        <ele>505</ele>
        <time>2021-07-03 15:33:00</time>
      </trkpt>
      <trkpt lat="29.13124" lon="-13.51646">
        <ele>505.2</ele>
        <time>2021-07-03 15:33:01</time>
      </trkpt>
      <trkpt lat="29.13125" lon="-13.51649">
        <ele>505.6</ele>
        <time>2021-07-03 15:33:02</time>
      </trkpt>
      <trkpt lat="29.13127" lon="-13.51653">
        <ele>505.6</ele>
        <time>2021-07-03 15:33:03</time>
      </trkpt>
      <trkpt lat="29.13128" lon="-13.51656">
        <ele>505.8</ele>
        <time>2021-07-03 15:33:04</time>
      </trkpt>
      <trkpt lat="29.13129" lon="-13.51658">
        <ele>505.8</ele>
        <time>2021-07-03 15:33:05</time>
      </trkpt>
      <trkpt lat="29.1313" lon="-13.51659">
        <ele>505.8</ele>
        <time>2021-07-03 15:33:06</time>
      </trkpt>
      <trkpt lat="29.1313" lon="-13.51659">
        <ele>506</ele>
        <time>2021-07-03 15:33:07</time>
      </trkpt>
      <trkpt lat="29.13131" lon="-13.51659">
        <ele>506</ele>
        <time>2021-07-03 15:33:08</time>
      </trkpt>
      <trkpt lat="29.13131" lon="-13.51659">
        <ele>506.4</ele>
        <time>2021-07-03 15:33:09</time>
      </trkpt>
      <trkpt lat="29.1313" lon="-13.51662">
        <ele>507</ele>
        <time>2021-07-03 15:33:10</time>
      </trkpt>
      <trkpt lat="29.13131" lon="-13.51665">
        <ele>507</ele>
        <time>2021-07-03 15:33:11</time>
      </trkpt>
      <trkpt lat="29.13133" lon="-13.51667">
        <ele>507</ele>
        <time>2021-07-03 15:33:12</time>
      </trkpt>
      <trkpt lat="29.13134" lon="-13.5167">
        <ele>507</ele>
        <time>2021-07-03 15:33:13</time>
      </trkpt>
      <trkpt lat="29.13135" lon="-13.51673">
        <ele>507.2</ele>
        <time>2021-07-03 15:33:14</time>
      </trkpt>
      <trkpt lat="29.13137" lon="-13.51676">
        <ele>507.2</ele>
        <time>2021-07-03 15:33:57</time>
      </trkpt>
      <trkpt lat="29.13138" lon="-13.51679">
        <ele>507.2</ele>
        <time>2021-07-03 15:33:58</time>
      </trkpt>
      <trkpt lat="29.13139" lon="-13.51682">
        <ele>507.2</ele>
        <time>2021-07-03 15:33:59</time>
      </trkpt>
      <trkpt lat="29.1314" lon="-13.51685">
        <ele>507.6</ele>
        <time>2021-07-03 15:34:00</time>
      </trkpt>
      <trkpt lat="29.1314" lon="-13.51688">
        <ele>507.8</ele>
        <time>2021-07-03 15:34:01</time>
      </trkpt>
      <trkpt lat="29.1314" lon="-13.51692">
        <ele>507.8</ele>
        <time>2021-07-03 15:34:02</time>
      </trkpt>
      <trkpt lat="29.1314" lon="-13.51695">
        <ele>508</ele>
        <time>2021-07-03 15:34:03</time>
      </trkpt>
      <trkpt lat="29.13139" lon="-13.51698">
        <ele>508</ele>
        <time>2021-07-03 15:34:04</time>
      </trkpt>
      <trkpt lat="29.13138" lon="-13.51701">
        <ele>508.4</ele>
        <time>2021-07-03 15:34:05</time>
      </trkpt>
      <trkpt lat="29.13136" lon="-13.51704">
        <ele>508.6</ele>
        <time>2021-07-03 15:34:06</time>
      </trkpt>
      <trkpt lat="29.13134" lon="-13.51706">
        <ele>508.6</ele>
        <time>2021-07-03 15:34:07</time>
      </trkpt>
      <trkpt lat="29.13132" lon="-13.51708">
        <ele>508.8</ele>
        <time>2021-07-03 15:34:08</time>
      </trkpt>
      <trkpt lat="29.1313" lon="-13.51709">
        <ele>508.8</ele>
        <time>2021-07-03 15:34:09</time>
      </trkpt>
      <trkpt lat="29.13127" lon="-13.5171">
        <ele>509.2</ele>
        <time>2021-07-03 15:34:10</time>
      </trkpt>
      <trkpt lat="29.13125" lon="-13.5171">
        <ele>509.2</ele>
        <time>2021-07-03 15:34:11</time>
      </trkpt>
      <trkpt lat="29.13123" lon="-13.5171">
        <ele>509.6</ele>
        <time>2021-07-03 15:34:12</time>
      </trkpt>
      <trkpt lat="29.13122" lon="-13.5171">
        <ele>509.6</ele>
        <time>2021-07-03 15:34:13</time>
      </trkpt>
      <trkpt lat="29.13121" lon="-13.51709">
        <ele>509.8</ele>
        <time>2021-07-03 15:34:14</time>
      </trkpt>
      <trkpt lat="29.1312" lon="-13.51708">
        <ele>510.2</ele>
        <time>2021-07-03 15:34:15</time>
      </trkpt>
      <trkpt lat="29.13118" lon="-13.51707">
        <ele>510.4</ele>
        <time>2021-07-03 15:34:16</time>
      </trkpt>
      <trkpt lat="29.13117" lon="-13.51707">
        <ele>510.6</ele>
        <time>2021-07-03 15:34:17</time>
      </trkpt>
      <trkpt lat="29.13115" lon="-13.51706">
        <ele>510.8</ele>
        <time>2021-07-03 15:34:18</time>
      </trkpt>
      <trkpt lat="29.13114" lon="-13.51705">
        <ele>511</ele>
        <time>2021-07-03 15:34:19</time>
      </trkpt>
      <trkpt lat="29.13113" lon="-13.51704">
        <ele>511.2</ele>
        <time>2021-07-03 15:34:20</time>
      </trkpt>
      <trkpt lat="29.13112" lon="-13.51703">
        <ele>511.4</ele>
        <time>2021-07-03 15:34:21</time>
      </trkpt>
      <trkpt lat="29.13112" lon="-13.51701">
        <ele>511.4</ele>
        <time>2021-07-03 15:34:22</time>
      </trkpt>
      <trkpt lat="29.13111" lon="-13.517">
        <ele>511.8</ele>
        <time>2021-07-03 15:34:23</time>
      </trkpt>
      <trkpt lat="29.1311" lon="-13.51699">
        <ele>512.2</ele>
        <time>2021-07-03 15:34:24</time>
      </trkpt>
      <trkpt lat="29.13109" lon="-13.51697">
        <ele>512.2</ele>
        <time>2021-07-03 15:34:25</time>
      </trkpt>
      <trkpt lat="29.13108" lon="-13.51696">
        <ele>512.2</ele>
        <time>2021-07-03 15:34:26</time>
      </trkpt>
      <trkpt lat="29.13108" lon="-13.51694">
        <ele>512.4</ele>
        <time>2021-07-03 15:34:27</time>
      </trkpt>
      <trkpt lat="29.13107" lon="-13.51692">
        <ele>512.4</ele>
        <time>2021-07-03 15:34:28</time>
      </trkpt>
      <trkpt lat="29.13107" lon="-13.51691">
        <ele>512.8</ele>
        <time>2021-07-03 15:34:29</time>
      </trkpt>
      <trkpt lat="29.13106" lon="-13.51689">
        <ele>512.8</ele>
        <time>2021-07-03 15:34:30</time>
      </trkpt>
      <trkpt lat="29.13106" lon="-13.51687">
        <ele>513</ele>
        <time>2021-07-03 15:34:31</time>
      </trkpt>
      <trkpt lat="29.13106" lon="-13.51685">
        <ele>513</ele>
        <time>2021-07-03 15:34:32</time>
      </trkpt>
      <trkpt lat="29.13106" lon="-13.51684">
        <ele>513.2</ele>
        <time>2021-07-03 15:34:33</time>
      </trkpt>
      <trkpt lat="29.13106" lon="-13.51682">
        <ele>513.2</ele>
        <time>2021-07-03 15:34:34</time>
      </trkpt>
      <trkpt lat="29.13107" lon="-13.51682">
        <ele>513.6</ele>
        <time>2021-07-03 15:34:35</time>
      </trkpt>
      <trkpt lat="29.13107" lon="-13.51682">
        <ele>513.6</ele>
        <time>2021-07-03 15:34:36</time>
      </trkpt>
      <trkpt lat="29.13107" lon="-13.51682">
        <ele>513.6</ele>
        <time>2021-07-03 15:34:37</time>
      </trkpt>
      <trkpt lat="29.13107" lon="-13.51682">
        <ele>513.8</ele>
        <time>2021-07-03 15:34:38</time>
      </trkpt>
      <trkpt lat="29.13107" lon="-13.51678">
        <ele>513.8</ele>
        <time>2021-07-03 15:34:39</time>
      </trkpt>
      <trkpt lat="29.13108" lon="-13.51676">
        <ele>513.8</ele>
        <time>2021-07-03 15:34:40</time>
      </trkpt>
      <trkpt lat="29.13108" lon="-13.51675">
        <ele>513.8</ele>
        <time>2021-07-03 15:34:41</time>
      </trkpt>
      <trkpt lat="29.13108" lon="-13.51673">
        <ele>513.8</ele>
        <time>2021-07-03 15:35:23</time>
      </trkpt>
      <trkpt lat="29.13108" lon="-13.51672">
        <ele>513.8</ele>
        <time>2021-07-03 15:35:24</time>
      </trkpt>
      <trkpt lat="29.13108" lon="-13.5167">
        <ele>513.8</ele>
        <time>2021-07-03 15:35:25</time>
      </trkpt>
      <trkpt lat="29.13108" lon="-13.51669">
        <ele>513.8</ele>
        <time>2021-07-03 15:35:26</time>
      </trkpt>
      <trkpt lat="29.13108" lon="-13.51667">
        <ele>513.8</ele>
        <time>2021-07-03 15:35:27</time>
      </trkpt>
      <trkpt lat="29.13108" lon="-13.51666">
        <ele>513.8</ele>
        <time>2021-07-03 15:35:28</time>
      </trkpt>
      <trkpt lat="29.13108" lon="-13.51664">
        <ele>514</ele>
        <time>2021-07-03 15:35:29</time>
      </trkpt>
      <trkpt lat="29.13108" lon="-13.51663">
        <ele>514</ele>
        <time>2021-07-03 15:35:30</time>
      </trkpt>
      <trkpt lat="29.13108" lon="-13.51661">
        <ele>514</ele>
        <time>2021-07-03 15:35:31</time>
      </trkpt>
      <trkpt lat="29.13108" lon="-13.51661">
        <ele>514.4</ele>
        <time>2021-07-03 15:35:32</time>
      </trkpt>
      <trkpt lat="29.13108" lon="-13.51661">
        <ele>514.4</ele>
        <time>2021-07-03 15:35:33</time>
      </trkpt>
      <trkpt lat="29.13108" lon="-13.51661">
        <ele>514.8</ele>
        <time>2021-07-03 15:35:34</time>
      </trkpt>
      <trkpt lat="29.13108" lon="-13.5166">
        <ele>514.8</ele>
        <time>2021-07-03 15:35:35</time>
      </trkpt>
      <trkpt lat="29.13107" lon="-13.51656">
        <ele>515.4</ele>
        <time>2021-07-03 15:35:36</time>
      </trkpt>
      <trkpt lat="29.13107" lon="-13.51654">
        <ele>515.4</ele>
        <time>2021-07-03 15:35:37</time>
      </trkpt>
      <trkpt lat="29.13106" lon="-13.51651">
        <ele>515.4</ele>
        <time>2021-07-03 15:35:38</time>
      </trkpt>
      <trkpt lat="29.13105" lon="-13.51648">
        <ele>515.6</ele>
        <time>2021-07-03 15:35:39</time>
      </trkpt>
      <trkpt lat="29.13105" lon="-13.51644">
        <ele>515.6</ele>
        <time>2021-07-03 15:35:40</time>
      </trkpt>
      <trkpt lat="29.13104" lon="-13.51641">
        <ele>515.8</ele>
        <time>2021-07-03 15:35:41</time>
      </trkpt>
      <trkpt lat="29.13103" lon="-13.51638">
        <ele>515.8</ele>
        <time>2021-07-03 15:35:42</time>
      </trkpt>
      <trkpt lat="29.13102" lon="-13.51635">
        <ele>515.8</ele>
        <time>2021-07-03 15:35:43</time>
      </trkpt>
      <trkpt lat="29.13101" lon="-13.51632">
        <ele>516.2</ele>
        <time>2021-07-03 15:35:44</time>
      </trkpt>
      <trkpt lat="29.131" lon="-13.51629">
        <ele>516.2</ele>
        <time>2021-07-03 15:35:45</time>
      </trkpt>
      <trkpt lat="29.13099" lon="-13.51626">
        <ele>516.4</ele>
        <time>2021-07-03 15:35:46</time>
      </trkpt>
      <trkpt lat="29.13098" lon="-13.51623">
        <ele>516.4</ele>
        <time>2021-07-03 15:35:47</time>
      </trkpt>
      <trkpt lat="29.13097" lon="-13.51621">
        <ele>516.6</ele>
        <time>2021-07-03 15:35:48</time>
      </trkpt>
      <trkpt lat="29.13097" lon="-13.51621">
        <ele>516.6</ele>
        <time>2021-07-03 15:35:49</time>
      </trkpt>
      <trkpt lat="29.13097" lon="-13.51621">
        <ele>517</ele>
        <time>2021-07-03 15:35:50</time>
      </trkpt>
      <trkpt lat="29.13097" lon="-13.51621">
        <ele>517</ele>
        <time>2021-07-03 15:35:51</time>
      </trkpt>
      <trkpt lat="29.13097" lon="-13.51621">
        <ele>517</ele>
        <time>2021-07-03 15:35:52</time>
      </trkpt>
      <trkpt lat="29.13096" lon="-13.51618">
        <ele>517</ele>
        <time>2021-07-03 15:35:53</time>
      </trkpt>
      <trkpt lat="29.13096" lon="-13.51616">
        <ele>517</ele>
        <time>2021-07-03 15:35:54</time>
      </trkpt>
      <trkpt lat="29.13095" lon="-13.51613">
        <ele>517</ele>
        <time>2021-07-03 15:35:55</time>
      </trkpt>
      <trkpt lat="29.13094" lon="-13.51611">
        <ele>517</ele>
        <time>2021-07-03 15:35:56</time>
      </trkpt>
      <trkpt lat="29.13093" lon="-13.51609">
        <ele>517.2</ele>
        <time>2021-07-03 15:35:57</time>
      </trkpt>
      <trkpt lat="29.13093" lon="-13.51609">
        <ele>517.2</ele>
        <time>2021-07-03 15:35:58</time>
      </trkpt>
      <trkpt lat="29.13093" lon="-13.51609">
        <ele>517.2</ele>
        <time>2021-07-03 15:35:59</time>
      </trkpt>
      <trkpt lat="29.13093" lon="-13.51609">
        <ele>517.4</ele>
        <time>2021-07-03 15:36:00</time>
      </trkpt>
      <trkpt lat="29.13093" lon="-13.51609">
        <ele>517.4</ele>
        <time>2021-07-03 15:36:01</time>
      </trkpt>
      <trkpt lat="29.13093" lon="-13.51606">
        <ele>517.4</ele>
        <time>2021-07-03 15:36:02</time>
      </trkpt>
      <trkpt lat="29.13092" lon="-13.51603">
        <ele>517.4</ele>
        <time>2021-07-03 15:36:03</time>
      </trkpt>
      <trkpt lat="29.13092" lon="-13.516">
        <ele>517.8</ele>
        <time>2021-07-03 15:36:04</time>
      </trkpt>
      <trkpt lat="29.13091" lon="-13.51597">
        <ele>517.8</ele>
        <time>2021-07-03 15:36:05</time>
      </trkpt>
      <trkpt lat="29.1309" lon="-13.51594">
        <ele>518</ele>
        <time>2021-07-03 15:36:06</time>
      </trkpt>
      <trkpt lat="29.13089" lon="-13.51591">
        <ele>518</ele>
        <time>2021-07-03 15:36:07</time>
      </trkpt>
      <trkpt lat="29.13087" lon="-13.51588">
        <ele>518.4</ele>
        <time>2021-07-03 15:36:08</time>
      </trkpt>
      <trkpt lat="29.13087" lon="-13.51585">
        <ele>518.4</ele>
        <time>2021-07-03 15:36:09</time>
      </trkpt>
      <trkpt lat="29.13086" lon="-13.51582">
        <ele>518.6</ele>
        <time>2021-07-03 15:36:12</time>
      </trkpt>
      <trkpt lat="29.13085" lon="-13.51579">
        <ele>518.8</ele>
        <time>2021-07-03 15:36:13</time>
      </trkpt>
      <trkpt lat="29.13084" lon="-13.51576">
        <ele>518.8</ele>
        <time>2021-07-03 15:36:14</time>
      </trkpt>
      <trkpt lat="29.13083" lon="-13.51573">
        <ele>518.8</ele>
        <time>2021-07-03 15:36:15</time>
      </trkpt>
      <trkpt lat="29.13082" lon="-13.5157">
        <ele>519.2</ele>
        <time>2021-07-03 15:36:16</time>
      </trkpt>
      <trkpt lat="29.13082" lon="-13.51568">
        <ele>519.2</ele>
        <time>2021-07-03 15:36:17</time>
      </trkpt>
      <trkpt lat="29.13081" lon="-13.51565">
        <ele>519.4</ele>
        <time>2021-07-03 15:36:18</time>
      </trkpt>
      <trkpt lat="29.1308" lon="-13.51562">
        <ele>519.4</ele>
        <time>2021-07-03 15:36:19</time>
      </trkpt>
      <trkpt lat="29.1308" lon="-13.51559">
        <ele>519.8</ele>
        <time>2021-07-03 15:36:20</time>
      </trkpt>
      <trkpt lat="29.13079" lon="-13.51557">
        <ele>520</ele>
        <time>2021-07-03 15:36:21</time>
      </trkpt>
      <trkpt lat="29.13078" lon="-13.51554">
        <ele>520.2</ele>
        <time>2021-07-03 15:36:22</time>
      </trkpt>
      <trkpt lat="29.13078" lon="-13.51551">
        <ele>520.4</ele>
        <time>2021-07-03 15:36:23</time>
      </trkpt>
      <trkpt lat="29.13077" lon="-13.51549">
        <ele>520.4</ele>
        <time>2021-07-03 15:36:24</time>
      </trkpt>
      <trkpt lat="29.13076" lon="-13.51546">
        <ele>520.8</ele>
        <time>2021-07-03 15:36:25</time>
      </trkpt>
      <trkpt lat="29.13075" lon="-13.51544">
        <ele>520.8</ele>
        <time>2021-07-03 15:36:26</time>
      </trkpt>
      <trkpt lat="29.13074" lon="-13.51541">
        <ele>521</ele>
        <time>2021-07-03 15:36:27</time>
      </trkpt>
      <trkpt lat="29.13073" lon="-13.51539">
        <ele>521</ele>
        <time>2021-07-03 15:36:30</time>
      </trkpt>
      <trkpt lat="29.13072" lon="-13.51537">
        <ele>521.2</ele>
        <time>2021-07-03 15:36:31</time>
      </trkpt>
      <trkpt lat="29.1307" lon="-13.51534">
        <ele>521.2</ele>
        <time>2021-07-03 15:36:32</time>
      </trkpt>
      <trkpt lat="29.13068" lon="-13.51533">
        <ele>521.4</ele>
        <time>2021-07-03 15:36:33</time>
      </trkpt>
      <trkpt lat="29.13067" lon="-13.51531">
        <ele>521.4</ele>
        <time>2021-07-03 15:36:34</time>
      </trkpt>
      <trkpt lat="29.13065" lon="-13.51529">
        <ele>521.6</ele>
        <time>2021-07-03 15:36:35</time>
      </trkpt>
      <trkpt lat="29.13062" lon="-13.51528">
        <ele>521.6</ele>
        <time>2021-07-03 15:36:36</time>
      </trkpt>
      <trkpt lat="29.1306" lon="-13.51527">
        <ele>522</ele>
        <time>2021-07-03 15:36:37</time>
      </trkpt>
      <trkpt lat="29.13057" lon="-13.51526">
        <ele>522</ele>
        <time>2021-07-03 15:36:38</time>
      </trkpt>
      <trkpt lat="29.13055" lon="-13.51526">
        <ele>522.2</ele>
        <time>2021-07-03 15:36:39</time>
      </trkpt>
      <trkpt lat="29.13052" lon="-13.51526">
        <ele>522.2</ele>
        <time>2021-07-03 15:36:40</time>
      </trkpt>
      <trkpt lat="29.13049" lon="-13.51526">
        <ele>522.6</ele>
        <time>2021-07-03 15:36:41</time>
      </trkpt>
      <trkpt lat="29.13046" lon="-13.51527">
        <ele>522.8</ele>
        <time>2021-07-03 15:36:42</time>
      </trkpt>
      <trkpt lat="29.13043" lon="-13.51528">
        <ele>522.8</ele>
        <time>2021-07-03 15:36:43</time>
      </trkpt>
      <trkpt lat="29.1304" lon="-13.51528">
        <ele>523.2</ele>
        <time>2021-07-03 15:36:44</time>
      </trkpt>
      <trkpt lat="29.13038" lon="-13.51529">
        <ele>523.2</ele>
        <time>2021-07-03 15:36:45</time>
      </trkpt>
      <trkpt lat="29.13035" lon="-13.5153">
        <ele>523.6</ele>
        <time>2021-07-03 15:36:46</time>
      </trkpt>
      <trkpt lat="29.13032" lon="-13.5153">
        <ele>523.8</ele>
        <time>2021-07-03 15:36:53</time>
      </trkpt>
      <trkpt lat="29.13029" lon="-13.51531">
        <ele>524</ele>
        <time>2021-07-03 15:36:54</time>
      </trkpt>
      <trkpt lat="29.13027" lon="-13.51532">
        <ele>524.4</ele>
        <time>2021-07-03 15:36:55</time>
      </trkpt>
      <trkpt lat="29.13024" lon="-13.51532">
        <ele>524.6</ele>
        <time>2021-07-03 15:36:56</time>
      </trkpt>
      <trkpt lat="29.13022" lon="-13.51533">
        <ele>525</ele>
        <time>2021-07-03 15:36:57</time>
      </trkpt>
      <trkpt lat="29.13019" lon="-13.51533">
        <ele>525.2</ele>
        <time>2021-07-03 15:36:58</time>
      </trkpt>
      <trkpt lat="29.13017" lon="-13.51534">
        <ele>525.4</ele>
        <time>2021-07-03 15:36:59</time>
      </trkpt>
      <trkpt lat="29.13016" lon="-13.51534">
        <ele>525.8</ele>
        <time>2021-07-03 15:37:00</time>
      </trkpt>
      <trkpt lat="29.13015" lon="-13.51535">
        <ele>526.2</ele>
        <time>2021-07-03 15:37:01</time>
      </trkpt>
      <trkpt lat="29.13015" lon="-13.51535">
        <ele>526.2</ele>
        <time>2021-07-03 15:37:06</time>
      </trkpt>
      <trkpt lat="29.13015" lon="-13.51534">
        <ele>526.4</ele>
        <time>2021-07-03 15:37:07</time>
      </trkpt>
      <trkpt lat="29.13015" lon="-13.51534">
        <ele>526.4</ele>
        <time>2021-07-03 15:37:08</time>
      </trkpt>
      <trkpt lat="29.13015" lon="-13.51534">
        <ele>526.4</ele>
        <time>2021-07-03 15:37:09</time>
      </trkpt>
      <trkpt lat="29.13014" lon="-13.51533">
        <ele>529</ele>
        <time>2021-07-03 15:37:10</time>
      </trkpt>
      <trkpt lat="29.13012" lon="-13.51532">
        <ele>529.2</ele>
        <time>2021-07-03 15:37:11</time>
      </trkpt>
      <trkpt lat="29.1301" lon="-13.51532">
        <ele>529.2</ele>
        <time>2021-07-03 15:37:12</time>
      </trkpt>
      <trkpt lat="29.13008" lon="-13.51533">
        <ele>529.2</ele>
        <time>2021-07-03 15:37:13</time>
      </trkpt>
      <trkpt lat="29.13006" lon="-13.51533">
        <ele>529.2</ele>
        <time>2021-07-03 15:37:14</time>
      </trkpt>
      <trkpt lat="29.13004" lon="-13.51534">
        <ele>529.4</ele>
        <time>2021-07-03 15:37:15</time>
      </trkpt>
      <trkpt lat="29.13001" lon="-13.51535">
        <ele>529.4</ele>
        <time>2021-07-03 15:37:16</time>
      </trkpt>
      <trkpt lat="29.12998" lon="-13.51535">
        <ele>529.4</ele>
        <time>2021-07-03 15:37:17</time>
      </trkpt>
      <trkpt lat="29.12996" lon="-13.51536">
        <ele>529.8</ele>
        <time>2021-07-03 15:37:18</time>
      </trkpt>
      <trkpt lat="29.12993" lon="-13.51536">
        <ele>529.8</ele>
        <time>2021-07-03 15:37:19</time>
      </trkpt>
      <trkpt lat="29.1299" lon="-13.51535">
        <ele>530</ele>
        <time>2021-07-03 15:37:20</time>
      </trkpt>
      <trkpt lat="29.12987" lon="-13.51535">
        <ele>530.2</ele>
        <time>2021-07-03 15:37:21</time>
      </trkpt>
      <trkpt lat="29.12984" lon="-13.51535">
        <ele>530.6</ele>
        <time>2021-07-03 15:37:22</time>
      </trkpt>
      <trkpt lat="29.12981" lon="-13.51534">
        <ele>530.6</ele>
        <time>2021-07-03 15:37:23</time>
      </trkpt>
      <trkpt lat="29.12978" lon="-13.51534">
        <ele>531</ele>
        <time>2021-07-03 15:37:24</time>
      </trkpt>
      <trkpt lat="29.12976" lon="-13.51533">
        <ele>531.2</ele>
        <time>2021-07-03 15:37:25</time>
      </trkpt>
      <trkpt lat="29.12973" lon="-13.51533">
        <ele>531.4</ele>
        <time>2021-07-03 15:37:26</time>
      </trkpt>
      <trkpt lat="29.1297" lon="-13.51533">
        <ele>531.8</ele>
        <time>2021-07-03 15:37:27</time>
      </trkpt>
      <trkpt lat="29.12968" lon="-13.51532">
        <ele>532</ele>
        <time>2021-07-03 15:37:28</time>
      </trkpt>
      <trkpt lat="29.12965" lon="-13.51532">
        <ele>532.4</ele>
        <time>2021-07-03 15:37:29</time>
      </trkpt>
      <trkpt lat="29.12963" lon="-13.51533">
        <ele>532.8</ele>
        <time>2021-07-03 15:37:30</time>
      </trkpt>
      <trkpt lat="29.1296" lon="-13.51533">
        <ele>533.2</ele>
        <time>2021-07-03 15:37:31</time>
      </trkpt>
      <trkpt lat="29.12957" lon="-13.51534">
        <ele>533.6</ele>
        <time>2021-07-03 15:37:32</time>
      </trkpt>
      <trkpt lat="29.12955" lon="-13.51535">
        <ele>534</ele>
        <time>2021-07-03 15:37:33</time>
      </trkpt>
      <trkpt lat="29.12953" lon="-13.51536">
        <ele>534.2</ele>
        <time>2021-07-03 15:37:34</time>
      </trkpt>
      <trkpt lat="29.1295" lon="-13.51537">
        <ele>534.6</ele>
        <time>2021-07-03 15:37:35</time>
      </trkpt>
      <trkpt lat="29.12948" lon="-13.51538">
        <ele>534.8</ele>
        <time>2021-07-03 15:37:36</time>
      </trkpt>
      <trkpt lat="29.12945" lon="-13.51539">
        <ele>535.2</ele>
        <time>2021-07-03 15:37:37</time>
      </trkpt>
      <trkpt lat="29.12942" lon="-13.5154">
        <ele>535.8</ele>
        <time>2021-07-03 15:37:38</time>
      </trkpt>
      <trkpt lat="29.1294" lon="-13.51541">
        <ele>536.4</ele>
        <time>2021-07-03 15:37:39</time>
      </trkpt>
      <trkpt lat="29.12937" lon="-13.51542">
        <ele>536.6</ele>
        <time>2021-07-03 15:37:40</time>
      </trkpt>
      <trkpt lat="29.12934" lon="-13.51543">
        <ele>537</ele>
        <time>2021-07-03 15:37:41</time>
      </trkpt>
      <trkpt lat="29.12932" lon="-13.51544">
        <ele>537.2</ele>
        <time>2021-07-03 15:37:42</time>
      </trkpt>
      <trkpt lat="29.1293" lon="-13.51545">
        <ele>537.4</ele>
        <time>2021-07-03 15:37:43</time>
      </trkpt>
      <trkpt lat="29.12927" lon="-13.51546">
        <ele>537.4</ele>
        <time>2021-07-03 15:37:44</time>
      </trkpt>
      <trkpt lat="29.12925" lon="-13.51547">
        <ele>537.8</ele>
        <time>2021-07-03 15:37:45</time>
      </trkpt>
      <trkpt lat="29.12922" lon="-13.51548">
        <ele>538.2</ele>
        <time>2021-07-03 15:37:46</time>
      </trkpt>
      <trkpt lat="29.1292" lon="-13.51549">
        <ele>538.4</ele>
        <time>2021-07-03 15:37:47</time>
      </trkpt>
      <trkpt lat="29.12917" lon="-13.51549">
        <ele>538.6</ele>
        <time>2021-07-03 15:37:48</time>
      </trkpt>
      <trkpt lat="29.12915" lon="-13.5155">
        <ele>538.6</ele>
        <time>2021-07-03 15:37:49</time>
      </trkpt>
      <trkpt lat="29.12912" lon="-13.51551">
        <ele>539</ele>
        <time>2021-07-03 15:37:50</time>
      </trkpt>
      <trkpt lat="29.1291" lon="-13.51552">
        <ele>539</ele>
        <time>2021-07-03 15:37:51</time>
      </trkpt>
      <trkpt lat="29.12907" lon="-13.51553">
        <ele>539.2</ele>
        <time>2021-07-03 15:37:52</time>
      </trkpt>
      <trkpt lat="29.12904" lon="-13.51553">
        <ele>539.2</ele>
        <time>2021-07-03 15:37:53</time>
      </trkpt>
      <trkpt lat="29.12902" lon="-13.51554">
        <ele>539.4</ele>
        <time>2021-07-03 15:37:54</time>
      </trkpt>
      <trkpt lat="29.12899" lon="-13.51554">
        <ele>539.4</ele>
        <time>2021-07-03 15:37:55</time>
      </trkpt>
      <trkpt lat="29.12897" lon="-13.51555">
        <ele>539.6</ele>
        <time>2021-07-03 15:37:56</time>
      </trkpt>
      <trkpt lat="29.12895" lon="-13.51556">
        <ele>540</ele>
        <time>2021-07-03 15:37:57</time>
      </trkpt>
      <trkpt lat="29.12892" lon="-13.51556">
        <ele>540.2</ele>
        <time>2021-07-03 15:37:58</time>
      </trkpt>
      <trkpt lat="29.1289" lon="-13.51557">
        <ele>540.4</ele>
        <time>2021-07-03 15:37:59</time>
      </trkpt>
      <trkpt lat="29.12887" lon="-13.51558">
        <ele>540.8</ele>
        <time>2021-07-03 15:38:37</time>
      </trkpt>
      <trkpt lat="29.12885" lon="-13.51559">
        <ele>541.2</ele>
        <time>2021-07-03 15:38:38</time>
      </trkpt>
      <trkpt lat="29.12882" lon="-13.5156">
        <ele>541.4</ele>
        <time>2021-07-03 15:38:39</time>
      </trkpt>
      <trkpt lat="29.12879" lon="-13.51561">
        <ele>541.6</ele>
        <time>2021-07-03 15:38:40</time>
      </trkpt>
      <trkpt lat="29.12877" lon="-13.51561">
        <ele>541.8</ele>
        <time>2021-07-03 15:38:41</time>
      </trkpt>
      <trkpt lat="29.12874" lon="-13.51562">
        <ele>541.8</ele>
        <time>2021-07-03 15:38:42</time>
      </trkpt>
      <trkpt lat="29.12872" lon="-13.51563">
        <ele>542.2</ele>
        <time>2021-07-03 15:38:43</time>
      </trkpt>
      <trkpt lat="29.1287" lon="-13.51563">
        <ele>542.2</ele>
        <time>2021-07-03 15:38:44</time>
      </trkpt>
      <trkpt lat="29.12867" lon="-13.51563">
        <ele>542.4</ele>
        <time>2021-07-03 15:38:45</time>
      </trkpt>
      <trkpt lat="29.12864" lon="-13.51563">
        <ele>542.4</ele>
        <time>2021-07-03 15:38:46</time>
      </trkpt>
      <trkpt lat="29.12862" lon="-13.51563">
        <ele>542.4</ele>
        <time>2021-07-03 15:38:47</time>
      </trkpt>
      <trkpt lat="29.12859" lon="-13.51562">
        <ele>542.6</ele>
        <time>2021-07-03 15:38:48</time>
      </trkpt>
      <trkpt lat="29.12857" lon="-13.51562">
        <ele>542.6</ele>
        <time>2021-07-03 15:38:49</time>
      </trkpt>
      <trkpt lat="29.12854" lon="-13.51561">
        <ele>542.8</ele>
        <time>2021-07-03 15:38:50</time>
      </trkpt>
      <trkpt lat="29.12852" lon="-13.51561">
        <ele>542.8</ele>
        <time>2021-07-03 15:38:51</time>
      </trkpt>
      <trkpt lat="29.12849" lon="-13.5156">
        <ele>542.8</ele>
        <time>2021-07-03 15:38:52</time>
      </trkpt>
      <trkpt lat="29.12847" lon="-13.51559">
        <ele>543.2</ele>
        <time>2021-07-03 15:38:53</time>
      </trkpt>
      <trkpt lat="29.12845" lon="-13.51558">
        <ele>543.6</ele>
        <time>2021-07-03 15:38:54</time>
      </trkpt>
      <trkpt lat="29.12843" lon="-13.51557">
        <ele>543.8</ele>
        <time>2021-07-03 15:38:55</time>
      </trkpt>
      <trkpt lat="29.12841" lon="-13.51555">
        <ele>544.2</ele>
        <time>2021-07-03 15:38:56</time>
      </trkpt>
      <trkpt lat="29.12838" lon="-13.51554">
        <ele>544.4</ele>
        <time>2021-07-03 15:38:57</time>
      </trkpt>
      <trkpt lat="29.12836" lon="-13.51552">
        <ele>544.4</ele>
        <time>2021-07-03 15:38:58</time>
      </trkpt>
      <trkpt lat="29.12834" lon="-13.51551">
        <ele>544.8</ele>
        <time>2021-07-03 15:38:59</time>
      </trkpt>
      <trkpt lat="29.12832" lon="-13.51549">
        <ele>545.2</ele>
        <time>2021-07-03 15:39:00</time>
      </trkpt>
      <trkpt lat="29.1283" lon="-13.51548">
        <ele>545.4</ele>
        <time>2021-07-03 15:39:01</time>
      </trkpt>
      <trkpt lat="29.12828" lon="-13.51546">
        <ele>545.8</ele>
        <time>2021-07-03 15:39:02</time>
      </trkpt>
      <trkpt lat="29.12827" lon="-13.51544">
        <ele>546</ele>
        <time>2021-07-03 15:39:03</time>
      </trkpt>
      <trkpt lat="29.12824" lon="-13.51542">
        <ele>546.4</ele>
        <time>2021-07-03 15:39:04</time>
      </trkpt>
      <trkpt lat="29.12822" lon="-13.51541">
        <ele>546.8</ele>
        <time>2021-07-03 15:39:05</time>
      </trkpt>
      <trkpt lat="29.1282" lon="-13.51539">
        <ele>546.8</ele>
        <time>2021-07-03 15:39:06</time>
      </trkpt>
      <trkpt lat="29.12819" lon="-13.51537">
        <ele>547.2</ele>
        <time>2021-07-03 15:39:07</time>
      </trkpt>
      <trkpt lat="29.12817" lon="-13.51535">
        <ele>547.4</ele>
        <time>2021-07-03 15:39:08</time>
      </trkpt>
      <trkpt lat="29.12815" lon="-13.51533">
        <ele>547.6</ele>
        <time>2021-07-03 15:39:09</time>
      </trkpt>
      <trkpt lat="29.12813" lon="-13.51531">
        <ele>548</ele>
        <time>2021-07-03 15:39:10</time>
      </trkpt>
      <trkpt lat="29.12811" lon="-13.51529">
        <ele>548.6</ele>
        <time>2021-07-03 15:39:11</time>
      </trkpt>
      <trkpt lat="29.1281" lon="-13.51526">
        <ele>549</ele>
        <time>2021-07-03 15:39:12</time>
      </trkpt>
      <trkpt lat="29.12808" lon="-13.51524">
        <ele>549.4</ele>
        <time>2021-07-03 15:39:13</time>
      </trkpt>
      <trkpt lat="29.12807" lon="-13.51522">
        <ele>550</ele>
        <time>2021-07-03 15:39:14</time>
      </trkpt>
      <trkpt lat="29.12806" lon="-13.51519">
        <ele>550.2</ele>
        <time>2021-07-03 15:39:15</time>
      </trkpt>
      <trkpt lat="29.12805" lon="-13.51517">
        <ele>550.6</ele>
        <time>2021-07-03 15:39:16</time>
      </trkpt>
      <trkpt lat="29.12803" lon="-13.51514">
        <ele>550.8</ele>
        <time>2021-07-03 15:39:17</time>
      </trkpt>
      <trkpt lat="29.12802" lon="-13.51512">
        <ele>551.2</ele>
        <time>2021-07-03 15:39:18</time>
      </trkpt>
      <trkpt lat="29.12801" lon="-13.51509">
        <ele>551.4</ele>
        <time>2021-07-03 15:39:19</time>
      </trkpt>
      <trkpt lat="29.128" lon="-13.51507">
        <ele>552.2</ele>
        <time>2021-07-03 15:39:20</time>
      </trkpt>
      <trkpt lat="29.12799" lon="-13.51504">
        <ele>552.4</ele>
        <time>2021-07-03 15:39:21</time>
      </trkpt>
      <trkpt lat="29.12798" lon="-13.51502">
        <ele>552.4</ele>
        <time>2021-07-03 15:39:22</time>
      </trkpt>
      <trkpt lat="29.12797" lon="-13.515">
        <ele>552</ele>
        <time>2021-07-03 15:39:23</time>
      </trkpt>
      <trkpt lat="29.12796" lon="-13.51498">
        <ele>552</ele>
        <time>2021-07-03 15:39:24</time>
      </trkpt>
      <trkpt lat="29.12795" lon="-13.51495">
        <ele>552</ele>
        <time>2021-07-03 15:39:25</time>
      </trkpt>
      <trkpt lat="29.12794" lon="-13.51493">
        <ele>551.8</ele>
        <time>2021-07-03 15:39:26</time>
      </trkpt>
      <trkpt lat="29.12793" lon="-13.5149">
        <ele>551.8</ele>
        <time>2021-07-03 15:39:27</time>
      </trkpt>
      <trkpt lat="29.12792" lon="-13.51488">
        <ele>551.2</ele>
        <time>2021-07-03 15:39:28</time>
      </trkpt>
      <trkpt lat="29.12791" lon="-13.51485">
        <ele>551</ele>
        <time>2021-07-03 15:39:29</time>
      </trkpt>
      <trkpt lat="29.1279" lon="-13.51483">
        <ele>550.8</ele>
        <time>2021-07-03 15:39:30</time>
      </trkpt>
      <trkpt lat="29.12788" lon="-13.51481">
        <ele>550.6</ele>
        <time>2021-07-03 15:39:31</time>
      </trkpt>
      <trkpt lat="29.12787" lon="-13.51479">
        <ele>550.6</ele>
        <time>2021-07-03 15:39:32</time>
      </trkpt>
      <trkpt lat="29.12786" lon="-13.51477">
        <ele>550.2</ele>
        <time>2021-07-03 15:39:33</time>
      </trkpt>
      <trkpt lat="29.12784" lon="-13.51474">
        <ele>550.2</ele>
        <time>2021-07-03 15:39:34</time>
      </trkpt>
      <trkpt lat="29.12783" lon="-13.51472">
        <ele>550</ele>
        <time>2021-07-03 15:39:35</time>
      </trkpt>
      <trkpt lat="29.12782" lon="-13.5147">
        <ele>550</ele>
        <time>2021-07-03 15:39:36</time>
      </trkpt>
      <trkpt lat="29.1278" lon="-13.51468">
        <ele>550</ele>
        <time>2021-07-03 15:39:37</time>
      </trkpt>
      <trkpt lat="29.12778" lon="-13.51466">
        <ele>550</ele>
        <time>2021-07-03 15:39:38</time>
      </trkpt>
      <trkpt lat="29.12777" lon="-13.51464">
        <ele>550</ele>
        <time>2021-07-03 15:39:39</time>
      </trkpt>
      <trkpt lat="29.12775" lon="-13.51462">
        <ele>550</ele>
        <time>2021-07-03 15:39:40</time>
      </trkpt>
      <trkpt lat="29.12773" lon="-13.5146">
        <ele>550</ele>
        <time>2021-07-03 15:39:41</time>
      </trkpt>
      <trkpt lat="29.12771" lon="-13.51458">
        <ele>550.4</ele>
        <time>2021-07-03 15:39:42</time>
      </trkpt>
      <trkpt lat="29.12769" lon="-13.51456">
        <ele>550.6</ele>
        <time>2021-07-03 15:39:43</time>
      </trkpt>
      <trkpt lat="29.12768" lon="-13.51454">
        <ele>551</ele>
        <time>2021-07-03 15:39:44</time>
      </trkpt>
      <trkpt lat="29.12766" lon="-13.51452">
        <ele>551</ele>
        <time>2021-07-03 15:39:45</time>
      </trkpt>
      <trkpt lat="29.12764" lon="-13.5145">
        <ele>551</ele>
        <time>2021-07-03 15:39:46</time>
      </trkpt>
      <trkpt lat="29.12762" lon="-13.51448">
        <ele>551.2</ele>
        <time>2021-07-03 15:39:47</time>
      </trkpt>
      <trkpt lat="29.1276" lon="-13.51446">
        <ele>551.2</ele>
        <time>2021-07-03 15:39:48</time>
      </trkpt>
      <trkpt lat="29.12758" lon="-13.51444">
        <ele>551.6</ele>
        <time>2021-07-03 15:39:49</time>
      </trkpt>
      <trkpt lat="29.12756" lon="-13.51443">
        <ele>551.6</ele>
        <time>2021-07-03 15:39:50</time>
      </trkpt>
      <trkpt lat="29.12754" lon="-13.51441">
        <ele>551.6</ele>
        <time>2021-07-03 15:39:51</time>
      </trkpt>
      <trkpt lat="29.12752" lon="-13.5144">
        <ele>551.6</ele>
        <time>2021-07-03 15:39:52</time>
      </trkpt>
      <trkpt lat="29.1275" lon="-13.51439">
        <ele>551.8</ele>
        <time>2021-07-03 15:39:53</time>
      </trkpt>
      <trkpt lat="29.12747" lon="-13.51439">
        <ele>551.8</ele>
        <time>2021-07-03 15:39:54</time>
      </trkpt>
      <trkpt lat="29.12744" lon="-13.51438">
        <ele>552.2</ele>
        <time>2021-07-03 15:39:55</time>
      </trkpt>
      <trkpt lat="29.12742" lon="-13.51438">
        <ele>552.2</ele>
        <time>2021-07-03 15:39:56</time>
      </trkpt>
      <trkpt lat="29.12739" lon="-13.51438">
        <ele>552.6</ele>
        <time>2021-07-03 15:39:57</time>
      </trkpt>
      <trkpt lat="29.12737" lon="-13.51438">
        <ele>552.8</ele>
        <time>2021-07-03 15:39:58</time>
      </trkpt>
      <trkpt lat="29.12734" lon="-13.51439">
        <ele>553</ele>
        <time>2021-07-03 15:39:59</time>
      </trkpt>
      <trkpt lat="29.12731" lon="-13.51439">
        <ele>553</ele>
        <time>2021-07-03 15:40:00</time>
      </trkpt>
      <trkpt lat="29.12729" lon="-13.5144">
        <ele>553.2</ele>
        <time>2021-07-03 15:40:01</time>
      </trkpt>
      <trkpt lat="29.12726" lon="-13.5144">
        <ele>553.2</ele>
        <time>2021-07-03 15:40:02</time>
      </trkpt>
      <trkpt lat="29.12723" lon="-13.5144">
        <ele>553.4</ele>
        <time>2021-07-03 15:40:03</time>
      </trkpt>
      <trkpt lat="29.1272" lon="-13.51441">
        <ele>553.4</ele>
        <time>2021-07-03 15:40:04</time>
      </trkpt>
      <trkpt lat="29.12718" lon="-13.51441">
        <ele>553.4</ele>
        <time>2021-07-03 15:40:05</time>
      </trkpt>
      <trkpt lat="29.12715" lon="-13.51441">
        <ele>553.4</ele>
        <time>2021-07-03 15:40:06</time>
      </trkpt>
      <trkpt lat="29.12712" lon="-13.51442">
        <ele>553.8</ele>
        <time>2021-07-03 15:40:07</time>
      </trkpt>
      <trkpt lat="29.1271" lon="-13.51442">
        <ele>553.8</ele>
        <time>2021-07-03 15:40:08</time>
      </trkpt>
      <trkpt lat="29.12707" lon="-13.51443">
        <ele>553.8</ele>
        <time>2021-07-03 15:40:09</time>
      </trkpt>
      <trkpt lat="29.12704" lon="-13.51444">
        <ele>554.2</ele>
        <time>2021-07-03 15:40:10</time>
      </trkpt>
      <trkpt lat="29.12702" lon="-13.51445">
        <ele>554.2</ele>
        <time>2021-07-03 15:40:11</time>
      </trkpt>
      <trkpt lat="29.12699" lon="-13.51445">
        <ele>554.4</ele>
        <time>2021-07-03 15:40:12</time>
      </trkpt>
      <trkpt lat="29.12696" lon="-13.51446">
        <ele>554.4</ele>
        <time>2021-07-03 15:40:13</time>
      </trkpt>
      <trkpt lat="29.12694" lon="-13.51447">
        <ele>554.6</ele>
        <time>2021-07-03 15:40:14</time>
      </trkpt>
      <trkpt lat="29.12691" lon="-13.51447">
        <ele>554.6</ele>
        <time>2021-07-03 15:40:15</time>
      </trkpt>
      <trkpt lat="29.12688" lon="-13.51448">
        <ele>554.8</ele>
        <time>2021-07-03 15:40:16</time>
      </trkpt>
      <trkpt lat="29.12685" lon="-13.51448">
        <ele>554.8</ele>
        <time>2021-07-03 15:40:17</time>
      </trkpt>
      <trkpt lat="29.12683" lon="-13.51449">
        <ele>555.2</ele>
        <time>2021-07-03 15:40:18</time>
      </trkpt>
      <trkpt lat="29.1268" lon="-13.5145">
        <ele>555.2</ele>
        <time>2021-07-03 15:40:19</time>
      </trkpt>
      <trkpt lat="29.12677" lon="-13.5145">
        <ele>555.6</ele>
        <time>2021-07-03 15:40:20</time>
      </trkpt>
      <trkpt lat="29.12675" lon="-13.5145">
        <ele>556</ele>
        <time>2021-07-03 15:40:21</time>
      </trkpt>
      <trkpt lat="29.12672" lon="-13.51451">
        <ele>556</ele>
        <time>2021-07-03 15:40:22</time>
      </trkpt>
      <trkpt lat="29.12669" lon="-13.51452">
        <ele>556.2</ele>
        <time>2021-07-03 15:40:23</time>
      </trkpt>
      <trkpt lat="29.12667" lon="-13.51452">
        <ele>556.4</ele>
        <time>2021-07-03 15:40:24</time>
      </trkpt>
      <trkpt lat="29.12665" lon="-13.51453">
        <ele>556.4</ele>
        <time>2021-07-03 15:40:25</time>
      </trkpt>
      <trkpt lat="29.12662" lon="-13.51454">
        <ele>556.8</ele>
        <time>2021-07-03 15:40:26</time>
      </trkpt>
      <trkpt lat="29.12659" lon="-13.51455">
        <ele>557</ele>
        <time>2021-07-03 15:40:27</time>
      </trkpt>
      <trkpt lat="29.12657" lon="-13.51456">
        <ele>557</ele>
        <time>2021-07-03 15:40:28</time>
      </trkpt>
      <trkpt lat="29.12654" lon="-13.51456">
        <ele>557.4</ele>
        <time>2021-07-03 15:40:29</time>
      </trkpt>
      <trkpt lat="29.12652" lon="-13.51457">
        <ele>557.4</ele>
        <time>2021-07-03 15:40:30</time>
      </trkpt>
      <trkpt lat="29.12649" lon="-13.51458">
        <ele>557.8</ele>
        <time>2021-07-03 15:40:31</time>
      </trkpt>
      <trkpt lat="29.12646" lon="-13.51459">
        <ele>558</ele>
        <time>2021-07-03 15:40:32</time>
      </trkpt>
      <trkpt lat="29.12644" lon="-13.5146">
        <ele>558.2</ele>
        <time>2021-07-03 15:40:33</time>
      </trkpt>
      <trkpt lat="29.12641" lon="-13.51461">
        <ele>558.6</ele>
        <time>2021-07-03 15:40:34</time>
      </trkpt>
      <trkpt lat="29.12638" lon="-13.51463">
        <ele>558.8</ele>
        <time>2021-07-03 15:40:35</time>
      </trkpt>
      <trkpt lat="29.12636" lon="-13.51464">
        <ele>559</ele>
        <time>2021-07-03 15:40:36</time>
      </trkpt>
      <trkpt lat="29.12633" lon="-13.51466">
        <ele>559.2</ele>
        <time>2021-07-03 15:40:37</time>
      </trkpt>
      <trkpt lat="29.12631" lon="-13.51467">
        <ele>559.2</ele>
        <time>2021-07-03 15:40:38</time>
      </trkpt>
      <trkpt lat="29.12628" lon="-13.51469">
        <ele>559.6</ele>
        <time>2021-07-03 15:40:39</time>
      </trkpt>
      <trkpt lat="29.12626" lon="-13.51471">
        <ele>559.6</ele>
        <time>2021-07-03 15:40:40</time>
      </trkpt>
      <trkpt lat="29.12623" lon="-13.51473">
        <ele>559.8</ele>
        <time>2021-07-03 15:40:41</time>
      </trkpt>
      <trkpt lat="29.12621" lon="-13.51474">
        <ele>560</ele>
        <time>2021-07-03 15:40:42</time>
      </trkpt>
      <trkpt lat="29.12618" lon="-13.51475">
        <ele>560</ele>
        <time>2021-07-03 15:40:43</time>
      </trkpt>
      <trkpt lat="29.12616" lon="-13.51477">
        <ele>560</ele>
        <time>2021-07-03 15:40:44</time>
      </trkpt>
      <trkpt lat="29.12613" lon="-13.51479">
        <ele>560.4</ele>
        <time>2021-07-03 15:40:45</time>
      </trkpt>
      <trkpt lat="29.12611" lon="-13.51481">
        <ele>560.6</ele>
        <time>2021-07-03 15:40:46</time>
      </trkpt>
      <trkpt lat="29.12609" lon="-13.51483">
        <ele>560.8</ele>
        <time>2021-07-03 15:40:47</time>
      </trkpt>
      <trkpt lat="29.12606" lon="-13.51485">
        <ele>560.8</ele>
        <time>2021-07-03 15:40:48</time>
      </trkpt>
      <trkpt lat="29.12604" lon="-13.51487">
        <ele>561</ele>
        <time>2021-07-03 15:40:49</time>
      </trkpt>
      <trkpt lat="29.12601" lon="-13.51489">
        <ele>561.4</ele>
        <time>2021-07-03 15:40:50</time>
      </trkpt>
      <trkpt lat="29.12599" lon="-13.51491">
        <ele>561.4</ele>
        <time>2021-07-03 15:40:51</time>
      </trkpt>
      <trkpt lat="29.12596" lon="-13.51493">
        <ele>561.8</ele>
        <time>2021-07-03 15:40:52</time>
      </trkpt>
      <trkpt lat="29.12593" lon="-13.51494">
        <ele>561.8</ele>
        <time>2021-07-03 15:40:53</time>
      </trkpt>
      <trkpt lat="29.1259" lon="-13.51496">
        <ele>562</ele>
        <time>2021-07-03 15:40:54</time>
      </trkpt>
      <trkpt lat="29.12587" lon="-13.51497">
        <ele>562</ele>
        <time>2021-07-03 15:40:55</time>
      </trkpt>
      <trkpt lat="29.12585" lon="-13.51498">
        <ele>562.4</ele>
        <time>2021-07-03 15:40:56</time>
      </trkpt>
      <trkpt lat="29.12582" lon="-13.51499">
        <ele>562.6</ele>
        <time>2021-07-03 15:40:57</time>
      </trkpt>
      <trkpt lat="29.12579" lon="-13.515">
        <ele>562.6</ele>
        <time>2021-07-03 15:40:58</time>
      </trkpt>
      <trkpt lat="29.12577" lon="-13.51502">
        <ele>562.8</ele>
        <time>2021-07-03 15:40:59</time>
      </trkpt>
      <trkpt lat="29.12574" lon="-13.51503">
        <ele>562.8</ele>
        <time>2021-07-03 15:41:00</time>
      </trkpt>
      <trkpt lat="29.12572" lon="-13.51504">
        <ele>563</ele>
        <time>2021-07-03 15:41:01</time>
      </trkpt>
      <trkpt lat="29.1257" lon="-13.51505">
        <ele>563</ele>
        <time>2021-07-03 15:41:02</time>
      </trkpt>
      <trkpt lat="29.12567" lon="-13.51506">
        <ele>563.4</ele>
        <time>2021-07-03 15:41:03</time>
      </trkpt>
      <trkpt lat="29.12565" lon="-13.51506">
        <ele>563.4</ele>
        <time>2021-07-03 15:41:04</time>
      </trkpt>
      <trkpt lat="29.12562" lon="-13.51507">
        <ele>563.6</ele>
        <time>2021-07-03 15:41:05</time>
      </trkpt>
      <trkpt lat="29.1256" lon="-13.51507">
        <ele>563.6</ele>
        <time>2021-07-03 15:41:06</time>
      </trkpt>
      <trkpt lat="29.12558" lon="-13.51507">
        <ele>564</ele>
        <time>2021-07-03 15:41:07</time>
      </trkpt>
      <trkpt lat="29.12555" lon="-13.51508">
        <ele>564</ele>
        <time>2021-07-03 15:41:08</time>
      </trkpt>
      <trkpt lat="29.12553" lon="-13.51508">
        <ele>564.2</ele>
        <time>2021-07-03 15:41:09</time>
      </trkpt>
      <trkpt lat="29.12552" lon="-13.51508">
        <ele>564.2</ele>
        <time>2021-07-03 15:41:10</time>
      </trkpt>
      <trkpt lat="29.12552" lon="-13.51508">
        <ele>564.2</ele>
        <time>2021-07-03 15:41:11</time>
      </trkpt>
      <trkpt lat="29.12552" lon="-13.51508">
        <ele>564.4</ele>
        <time>2021-07-03 15:41:12</time>
      </trkpt>
      <trkpt lat="29.12552" lon="-13.51509">
        <ele>564.4</ele>
        <time>2021-07-03 15:41:13</time>
      </trkpt>
      <trkpt lat="29.12553" lon="-13.51509">
        <ele>564.4</ele>
        <time>2021-07-03 15:41:14</time>
      </trkpt>
      <trkpt lat="29.12553" lon="-13.51511">
        <ele>565.2</ele>
        <time>2021-07-03 15:41:15</time>
      </trkpt>
      <trkpt lat="29.12553" lon="-13.51512">
        <ele>565.2</ele>
        <time>2021-07-03 15:41:16</time>
      </trkpt>
      <trkpt lat="29.12553" lon="-13.51513">
        <ele>565.2</ele>
        <time>2021-07-03 15:41:17</time>
      </trkpt>
      <trkpt lat="29.12553" lon="-13.51513">
        <ele>565.2</ele>
        <time>2021-07-03 15:41:18</time>
      </trkpt>
      <trkpt lat="29.12553" lon="-13.51514">
        <ele>565.4</ele>
        <time>2021-07-03 15:41:19</time>
      </trkpt>
      <trkpt lat="29.12553" lon="-13.51515">
        <ele>565.4</ele>
        <time>2021-07-03 15:41:20</time>
      </trkpt>
      <trkpt lat="29.12554" lon="-13.51516">
        <ele>565.6</ele>
        <time>2021-07-03 15:41:21</time>
      </trkpt>
      <trkpt lat="29.12555" lon="-13.51517">
        <ele>565.6</ele>
        <time>2021-07-03 15:41:22</time>
      </trkpt>
      <trkpt lat="29.12556" lon="-13.51518">
        <ele>566</ele>
        <time>2021-07-03 15:41:23</time>
      </trkpt>
      <trkpt lat="29.12557" lon="-13.5152">
        <ele>566.6</ele>
        <time>2021-07-03 15:41:24</time>
      </trkpt>
      <trkpt lat="29.12558" lon="-13.51521">
        <ele>566.6</ele>
        <time>2021-07-03 15:41:25</time>
      </trkpt>
      <trkpt lat="29.12558" lon="-13.51522">
        <ele>566.6</ele>
        <time>2021-07-03 15:41:26</time>
      </trkpt>
      <trkpt lat="29.12559" lon="-13.51523">
        <ele>566.8</ele>
        <time>2021-07-03 15:41:27</time>
      </trkpt>
      <trkpt lat="29.12558" lon="-13.51525">
        <ele>566.8</ele>
        <time>2021-07-03 15:41:28</time>
      </trkpt>
      <trkpt lat="29.12556" lon="-13.51527">
        <ele>566.8</ele>
        <time>2021-07-03 15:41:29</time>
      </trkpt>
      <trkpt lat="29.12554" lon="-13.51528">
        <ele>566.8</ele>
        <time>2021-07-03 15:41:30</time>
      </trkpt>
      <trkpt lat="29.12552" lon="-13.51528">
        <ele>567.2</ele>
        <time>2021-07-03 15:41:31</time>
      </trkpt>
      <trkpt lat="29.1255" lon="-13.51529">
        <ele>567.2</ele>
        <time>2021-07-03 15:41:32</time>
      </trkpt>
      <trkpt lat="29.12547" lon="-13.5153">
        <ele>567.2</ele>
        <time>2021-07-03 15:41:33</time>
      </trkpt>
      <trkpt lat="29.12545" lon="-13.51531">
        <ele>567.4</ele>
        <time>2021-07-03 15:41:34</time>
      </trkpt>
      <trkpt lat="29.12543" lon="-13.51532">
        <ele>567.4</ele>
        <time>2021-07-03 15:41:35</time>
      </trkpt>
      <trkpt lat="29.12541" lon="-13.51533">
        <ele>567.6</ele>
        <time>2021-07-03 15:41:36</time>
      </trkpt>
      <trkpt lat="29.12539" lon="-13.51534">
        <ele>567.6</ele>
        <time>2021-07-03 15:41:37</time>
      </trkpt>
      <trkpt lat="29.12537" lon="-13.51535">
        <ele>568</ele>
        <time>2021-07-03 15:41:38</time>
      </trkpt>
      <trkpt lat="29.12535" lon="-13.51536">
        <ele>568.4</ele>
        <time>2021-07-03 15:41:39</time>
      </trkpt>
      <trkpt lat="29.12533" lon="-13.51537">
        <ele>568.6</ele>
        <time>2021-07-03 15:41:40</time>
      </trkpt>
      <trkpt lat="29.1253" lon="-13.51538">
        <ele>568.6</ele>
        <time>2021-07-03 15:41:41</time>
      </trkpt>
      <trkpt lat="29.12528" lon="-13.51538">
        <ele>568.8</ele>
        <time>2021-07-03 15:41:42</time>
      </trkpt>
      <trkpt lat="29.12526" lon="-13.51539">
        <ele>568.8</ele>
        <time>2021-07-03 15:41:43</time>
      </trkpt>
      <trkpt lat="29.12524" lon="-13.51539">
        <ele>569.2</ele>
        <time>2021-07-03 15:41:44</time>
      </trkpt>
      <trkpt lat="29.12522" lon="-13.5154">
        <ele>569.4</ele>
        <time>2021-07-03 15:41:45</time>
      </trkpt>
      <trkpt lat="29.1252" lon="-13.51541">
        <ele>569.6</ele>
        <time>2021-07-03 15:41:46</time>
      </trkpt>
      <trkpt lat="29.12518" lon="-13.51542">
        <ele>569.6</ele>
        <time>2021-07-03 15:41:47</time>
      </trkpt>
      <trkpt lat="29.12516" lon="-13.51543">
        <ele>570.2</ele>
        <time>2021-07-03 15:41:48</time>
      </trkpt>
      <trkpt lat="29.12514" lon="-13.51544">
        <ele>570.2</ele>
        <time>2021-07-03 15:41:49</time>
      </trkpt>
      <trkpt lat="29.12512" lon="-13.51545">
        <ele>570.8</ele>
        <time>2021-07-03 15:41:50</time>
      </trkpt>
      <trkpt lat="29.1251" lon="-13.51546">
        <ele>571.2</ele>
        <time>2021-07-03 15:41:51</time>
      </trkpt>
      <trkpt lat="29.12508" lon="-13.51547">
        <ele>571.6</ele>
        <time>2021-07-03 15:41:52</time>
      </trkpt>
      <trkpt lat="29.12506" lon="-13.51547">
        <ele>571.8</ele>
        <time>2021-07-03 15:41:53</time>
      </trkpt>
      <trkpt lat="29.12503" lon="-13.51548">
        <ele>572</ele>
        <time>2021-07-03 15:41:54</time>
      </trkpt>
      <trkpt lat="29.12501" lon="-13.51548">
        <ele>572.2</ele>
        <time>2021-07-03 15:41:55</time>
      </trkpt>
      <trkpt lat="29.12499" lon="-13.51549">
        <ele>572.6</ele>
        <time>2021-07-03 15:41:56</time>
      </trkpt>
      <trkpt lat="29.12497" lon="-13.51549">
        <ele>572.6</ele>
        <time>2021-07-03 15:41:57</time>
      </trkpt>
      <trkpt lat="29.12495" lon="-13.5155">
        <ele>573</ele>
        <time>2021-07-03 15:41:58</time>
      </trkpt>
      <trkpt lat="29.12493" lon="-13.51551">
        <ele>573.4</ele>
        <time>2021-07-03 15:41:59</time>
      </trkpt>
      <trkpt lat="29.12491" lon="-13.51552">
        <ele>573.4</ele>
        <time>2021-07-03 15:42:00</time>
      </trkpt>
      <trkpt lat="29.12489" lon="-13.51554">
        <ele>573.6</ele>
        <time>2021-07-03 15:42:01</time>
      </trkpt>
      <trkpt lat="29.12487" lon="-13.51555">
        <ele>573.6</ele>
        <time>2021-07-03 15:42:02</time>
      </trkpt>
      <trkpt lat="29.12485" lon="-13.51556">
        <ele>573.8</ele>
        <time>2021-07-03 15:42:03</time>
      </trkpt>
      <trkpt lat="29.12483" lon="-13.51557">
        <ele>574.2</ele>
        <time>2021-07-03 15:42:04</time>
      </trkpt>
      <trkpt lat="29.12481" lon="-13.51558">
        <ele>574.2</ele>
        <time>2021-07-03 15:42:09</time>
      </trkpt>
      <trkpt lat="29.12479" lon="-13.51559">
        <ele>574.4</ele>
        <time>2021-07-03 15:42:10</time>
      </trkpt>
      <trkpt lat="29.12477" lon="-13.5156">
        <ele>574.4</ele>
        <time>2021-07-03 15:42:11</time>
      </trkpt>
      <trkpt lat="29.12475" lon="-13.51561">
        <ele>574.8</ele>
        <time>2021-07-03 15:42:12</time>
      </trkpt>
      <trkpt lat="29.12473" lon="-13.51562">
        <ele>574.8</ele>
        <time>2021-07-03 15:42:13</time>
      </trkpt>
      <trkpt lat="29.12471" lon="-13.51563">
        <ele>575.2</ele>
        <time>2021-07-03 15:42:14</time>
      </trkpt>
      <trkpt lat="29.12469" lon="-13.51565">
        <ele>575.2</ele>
        <time>2021-07-03 15:42:15</time>
      </trkpt>
      <trkpt lat="29.12467" lon="-13.51566">
        <ele>575.4</ele>
        <time>2021-07-03 15:42:16</time>
      </trkpt>
      <trkpt lat="29.12466" lon="-13.51567">
        <ele>575.4</ele>
        <time>2021-07-03 15:42:17</time>
      </trkpt>
      <trkpt lat="29.12464" lon="-13.51568">
        <ele>575.8</ele>
        <time>2021-07-03 15:42:18</time>
      </trkpt>
      <trkpt lat="29.12462" lon="-13.5157">
        <ele>575.8</ele>
        <time>2021-07-03 15:42:19</time>
      </trkpt>
      <trkpt lat="29.1246" lon="-13.51571">
        <ele>576.2</ele>
        <time>2021-07-03 15:42:20</time>
      </trkpt>
      <trkpt lat="29.12458" lon="-13.51572">
        <ele>576.2</ele>
        <time>2021-07-03 15:42:21</time>
      </trkpt>
      <trkpt lat="29.12456" lon="-13.51574">
        <ele>576.6</ele>
        <time>2021-07-03 15:42:22</time>
      </trkpt>
      <trkpt lat="29.12454" lon="-13.51575">
        <ele>576.6</ele>
        <time>2021-07-03 15:42:23</time>
      </trkpt>
      <trkpt lat="29.12453" lon="-13.51575">
        <ele>577</ele>
        <time>2021-07-03 15:42:24</time>
      </trkpt>
      <trkpt lat="29.12451" lon="-13.51576">
        <ele>577.2</ele>
        <time>2021-07-03 15:42:25</time>
      </trkpt>
      <trkpt lat="29.12449" lon="-13.51577">
        <ele>577.4</ele>
        <time>2021-07-03 15:42:26</time>
      </trkpt>
      <trkpt lat="29.12447" lon="-13.51579">
        <ele>577.8</ele>
        <time>2021-07-03 15:42:27</time>
      </trkpt>
      <trkpt lat="29.12444" lon="-13.51579">
        <ele>577.8</ele>
        <time>2021-07-03 15:42:28</time>
      </trkpt>
      <trkpt lat="29.12442" lon="-13.5158">
        <ele>578</ele>
        <time>2021-07-03 15:42:29</time>
      </trkpt>
      <trkpt lat="29.1244" lon="-13.51581">
        <ele>578.4</ele>
        <time>2021-07-03 15:42:30</time>
      </trkpt>
      <trkpt lat="29.12438" lon="-13.51582">
        <ele>578.6</ele>
        <time>2021-07-03 15:42:31</time>
      </trkpt>
      <trkpt lat="29.12436" lon="-13.51582">
        <ele>578.6</ele>
        <time>2021-07-03 15:42:32</time>
      </trkpt>
      <trkpt lat="29.12434" lon="-13.51583">
        <ele>579</ele>
        <time>2021-07-03 15:42:33</time>
      </trkpt>
      <trkpt lat="29.12432" lon="-13.51583">
        <ele>579</ele>
        <time>2021-07-03 15:42:34</time>
      </trkpt>
      <trkpt lat="29.1243" lon="-13.51584">
        <ele>579.4</ele>
        <time>2021-07-03 15:42:35</time>
      </trkpt>
      <trkpt lat="29.12429" lon="-13.51584">
        <ele>579.4</ele>
        <time>2021-07-03 15:42:36</time>
      </trkpt>
      <trkpt lat="29.12427" lon="-13.51585">
        <ele>579.6</ele>
        <time>2021-07-03 15:42:37</time>
      </trkpt>
      <trkpt lat="29.12425" lon="-13.51585">
        <ele>579.6</ele>
        <time>2021-07-03 15:42:38</time>
      </trkpt>
      <trkpt lat="29.12423" lon="-13.51585">
        <ele>579.8</ele>
        <time>2021-07-03 15:42:39</time>
      </trkpt>
      <trkpt lat="29.12421" lon="-13.51586">
        <ele>579.8</ele>
        <time>2021-07-03 15:42:40</time>
      </trkpt>
      <trkpt lat="29.12418" lon="-13.51586">
        <ele>579.8</ele>
        <time>2021-07-03 15:42:41</time>
      </trkpt>
      <trkpt lat="29.12416" lon="-13.51587">
        <ele>580.2</ele>
        <time>2021-07-03 15:42:42</time>
      </trkpt>
      <trkpt lat="29.12414" lon="-13.51587">
        <ele>580.4</ele>
        <time>2021-07-03 15:42:43</time>
      </trkpt>
      <trkpt lat="29.12412" lon="-13.51588">
        <ele>580.6</ele>
        <time>2021-07-03 15:42:44</time>
      </trkpt>
      <trkpt lat="29.12409" lon="-13.51588">
        <ele>580.8</ele>
        <time>2021-07-03 15:42:45</time>
      </trkpt>
      <trkpt lat="29.12407" lon="-13.51589">
        <ele>580.8</ele>
        <time>2021-07-03 15:42:46</time>
      </trkpt>
      <trkpt lat="29.12405" lon="-13.51589">
        <ele>581.2</ele>
        <time>2021-07-03 15:42:47</time>
      </trkpt>
      <trkpt lat="29.12403" lon="-13.51589">
        <ele>581.6</ele>
        <time>2021-07-03 15:42:48</time>
      </trkpt>
      <trkpt lat="29.124" lon="-13.51589">
        <ele>581.6</ele>
        <time>2021-07-03 15:42:49</time>
      </trkpt>
      <trkpt lat="29.12398" lon="-13.51589">
        <ele>582</ele>
        <time>2021-07-03 15:42:50</time>
      </trkpt>
      <trkpt lat="29.12395" lon="-13.51589">
        <ele>582</ele>
        <time>2021-07-03 15:42:51</time>
      </trkpt>
      <trkpt lat="29.12393" lon="-13.51589">
        <ele>582.2</ele>
        <time>2021-07-03 15:42:52</time>
      </trkpt>
      <trkpt lat="29.1239" lon="-13.5159">
        <ele>582.2</ele>
        <time>2021-07-03 15:42:53</time>
      </trkpt>
      <trkpt lat="29.12388" lon="-13.5159">
        <ele>582.4</ele>
        <time>2021-07-03 15:42:54</time>
      </trkpt>
      <trkpt lat="29.12385" lon="-13.5159">
        <ele>582.4</ele>
        <time>2021-07-03 15:42:55</time>
      </trkpt>
      <trkpt lat="29.12383" lon="-13.5159">
        <ele>582.4</ele>
        <time>2021-07-03 15:42:56</time>
      </trkpt>
      <trkpt lat="29.1238" lon="-13.5159">
        <ele>582.8</ele>
        <time>2021-07-03 15:42:57</time>
      </trkpt>
      <trkpt lat="29.12377" lon="-13.5159">
        <ele>582.8</ele>
        <time>2021-07-03 15:42:58</time>
      </trkpt>
      <trkpt lat="29.12374" lon="-13.5159">
        <ele>583</ele>
        <time>2021-07-03 15:42:59</time>
      </trkpt>
      <trkpt lat="29.12371" lon="-13.51591">
        <ele>583</ele>
        <time>2021-07-03 15:43:00</time>
      </trkpt>
      <trkpt lat="29.12369" lon="-13.51591">
        <ele>583.2</ele>
        <time>2021-07-03 15:43:01</time>
      </trkpt>
      <trkpt lat="29.12366" lon="-13.51591">
        <ele>583.2</ele>
        <time>2021-07-03 15:43:02</time>
      </trkpt>
      <trkpt lat="29.12363" lon="-13.51592">
        <ele>583.6</ele>
        <time>2021-07-03 15:43:03</time>
      </trkpt>
      <trkpt lat="29.1236" lon="-13.51592">
        <ele>583.6</ele>
        <time>2021-07-03 15:43:04</time>
      </trkpt>
      <trkpt lat="29.12358" lon="-13.51593">
        <ele>583.8</ele>
        <time>2021-07-03 15:43:05</time>
      </trkpt>
      <trkpt lat="29.12355" lon="-13.51593">
        <ele>584</ele>
        <time>2021-07-03 15:43:06</time>
      </trkpt>
      <trkpt lat="29.12352" lon="-13.51594">
        <ele>584</ele>
        <time>2021-07-03 15:43:07</time>
      </trkpt>
      <trkpt lat="29.12349" lon="-13.51595">
        <ele>584.2</ele>
        <time>2021-07-03 15:43:08</time>
      </trkpt>
      <trkpt lat="29.12346" lon="-13.51596">
        <ele>584.4</ele>
        <time>2021-07-03 15:43:09</time>
      </trkpt>
      <trkpt lat="29.12344" lon="-13.51596">
        <ele>584.4</ele>
        <time>2021-07-03 15:43:10</time>
      </trkpt>
      <trkpt lat="29.12341" lon="-13.51597">
        <ele>584.8</ele>
        <time>2021-07-03 15:43:11</time>
      </trkpt>
      <trkpt lat="29.12338" lon="-13.51597">
        <ele>584.8</ele>
        <time>2021-07-03 15:43:12</time>
      </trkpt>
      <trkpt lat="29.12335" lon="-13.51598">
        <ele>585</ele>
        <time>2021-07-03 15:43:13</time>
      </trkpt>
      <trkpt lat="29.12333" lon="-13.51599">
        <ele>585</ele>
        <time>2021-07-03 15:43:14</time>
      </trkpt>
      <trkpt lat="29.1233" lon="-13.51599">
        <ele>585.4</ele>
        <time>2021-07-03 15:43:15</time>
      </trkpt>
      <trkpt lat="29.12327" lon="-13.51599">
        <ele>585.4</ele>
        <time>2021-07-03 15:43:16</time>
      </trkpt>
      <trkpt lat="29.12324" lon="-13.51599">
        <ele>585.6</ele>
        <time>2021-07-03 15:43:17</time>
      </trkpt>
      <trkpt lat="29.12321" lon="-13.51599">
        <ele>586</ele>
        <time>2021-07-03 15:43:18</time>
      </trkpt>
      <trkpt lat="29.12319" lon="-13.516">
        <ele>586.2</ele>
        <time>2021-07-03 15:43:19</time>
      </trkpt>
      <trkpt lat="29.12316" lon="-13.516">
        <ele>586.4</ele>
        <time>2021-07-03 15:43:20</time>
      </trkpt>
      <trkpt lat="29.12313" lon="-13.51601">
        <ele>586.4</ele>
        <time>2021-07-03 15:43:21</time>
      </trkpt>
      <trkpt lat="29.1231" lon="-13.51602">
        <ele>586.8</ele>
        <time>2021-07-03 15:43:22</time>
      </trkpt>
      <trkpt lat="29.12307" lon="-13.51602">
        <ele>587</ele>
        <time>2021-07-03 15:43:23</time>
      </trkpt>
      <trkpt lat="29.12304" lon="-13.51603">
        <ele>587</ele>
        <time>2021-07-03 15:43:24</time>
      </trkpt>
      <trkpt lat="29.12301" lon="-13.51603">
        <ele>587.4</ele>
        <time>2021-07-03 15:43:25</time>
      </trkpt>
      <trkpt lat="29.12298" lon="-13.51603">
        <ele>587.6</ele>
        <time>2021-07-03 15:43:26</time>
      </trkpt>
      <trkpt lat="29.12296" lon="-13.51604">
        <ele>587.6</ele>
        <time>2021-07-03 15:43:27</time>
      </trkpt>
      <trkpt lat="29.12293" lon="-13.51604">
        <ele>587.8</ele>
        <time>2021-07-03 15:43:28</time>
      </trkpt>
      <trkpt lat="29.12291" lon="-13.51604">
        <ele>587.8</ele>
        <time>2021-07-03 15:43:29</time>
      </trkpt>
      <trkpt lat="29.12289" lon="-13.51604">
        <ele>588.2</ele>
        <time>2021-07-03 15:43:30</time>
      </trkpt>
      <trkpt lat="29.12286" lon="-13.51604">
        <ele>588.2</ele>
        <time>2021-07-03 15:43:31</time>
      </trkpt>
      <trkpt lat="29.12283" lon="-13.51604">
        <ele>588.2</ele>
        <time>2021-07-03 15:43:32</time>
      </trkpt>
      <trkpt lat="29.1228" lon="-13.51605">
        <ele>588.2</ele>
        <time>2021-07-03 15:43:33</time>
      </trkpt>
      <trkpt lat="29.12278" lon="-13.51606">
        <ele>588.4</ele>
        <time>2021-07-03 15:43:34</time>
      </trkpt>
      <trkpt lat="29.12275" lon="-13.51606">
        <ele>588.4</ele>
        <time>2021-07-03 15:43:35</time>
      </trkpt>
      <trkpt lat="29.12273" lon="-13.51607">
        <ele>588.4</ele>
        <time>2021-07-03 15:43:36</time>
      </trkpt>
      <trkpt lat="29.1227" lon="-13.51608">
        <ele>588.4</ele>
        <time>2021-07-03 15:43:37</time>
      </trkpt>
      <trkpt lat="29.12267" lon="-13.51608">
        <ele>588.4</ele>
        <time>2021-07-03 15:43:38</time>
      </trkpt>
      <trkpt lat="29.12264" lon="-13.51608">
        <ele>588.6</ele>
        <time>2021-07-03 15:43:39</time>
      </trkpt>
      <trkpt lat="29.12262" lon="-13.51609">
        <ele>588.6</ele>
        <time>2021-07-03 15:43:40</time>
      </trkpt>
      <trkpt lat="29.12259" lon="-13.51609">
        <ele>589</ele>
        <time>2021-07-03 15:43:41</time>
      </trkpt>
      <trkpt lat="29.12257" lon="-13.51609">
        <ele>589</ele>
        <time>2021-07-03 15:43:42</time>
      </trkpt>
      <trkpt lat="29.12255" lon="-13.5161">
        <ele>589</ele>
        <time>2021-07-03 15:43:43</time>
      </trkpt>
      <trkpt lat="29.12252" lon="-13.5161">
        <ele>589.4</ele>
        <time>2021-07-03 15:43:44</time>
      </trkpt>
      <trkpt lat="29.12249" lon="-13.5161">
        <ele>589.6</ele>
        <time>2021-07-03 15:43:45</time>
      </trkpt>
      <trkpt lat="29.12246" lon="-13.5161">
        <ele>589.8</ele>
        <time>2021-07-03 15:43:46</time>
      </trkpt>
      <trkpt lat="29.12243" lon="-13.5161">
        <ele>589.8</ele>
        <time>2021-07-03 15:43:47</time>
      </trkpt>
      <trkpt lat="29.1224" lon="-13.5161">
        <ele>590.2</ele>
        <time>2021-07-03 15:43:48</time>
      </trkpt>
      <trkpt lat="29.12238" lon="-13.5161">
        <ele>590.2</ele>
        <time>2021-07-03 15:43:49</time>
      </trkpt>
      <trkpt lat="29.12235" lon="-13.51611">
        <ele>590.2</ele>
        <time>2021-07-03 15:43:50</time>
      </trkpt>
      <trkpt lat="29.12232" lon="-13.51611">
        <ele>590.6</ele>
        <time>2021-07-03 15:43:51</time>
      </trkpt>
      <trkpt lat="29.12229" lon="-13.51611">
        <ele>590.8</ele>
        <time>2021-07-03 15:43:52</time>
      </trkpt>
      <trkpt lat="29.12226" lon="-13.51611">
        <ele>591.2</ele>
        <time>2021-07-03 15:43:53</time>
      </trkpt>
      <trkpt lat="29.12219" lon="-13.51612">
        <ele>591.6</ele>
        <time>2021-07-03 15:43:54</time>
      </trkpt>
      <trkpt lat="29.12216" lon="-13.51612">
        <ele>591.6</ele>
        <time>2021-07-03 15:43:55</time>
      </trkpt>
      <trkpt lat="29.12213" lon="-13.51613">
        <ele>592</ele>
        <time>2021-07-03 15:43:56</time>
      </trkpt>
      <trkpt lat="29.12209" lon="-13.51613">
        <ele>592</ele>
        <time>2021-07-03 15:43:57</time>
      </trkpt>
      <trkpt lat="29.12206" lon="-13.51614">
        <ele>592</ele>
        <time>2021-07-03 15:43:58</time>
      </trkpt>
      <trkpt lat="29.12202" lon="-13.51614">
        <ele>592</ele>
        <time>2021-07-03 15:43:59</time>
      </trkpt>
      <trkpt lat="29.12199" lon="-13.51615">
        <ele>592</ele>
        <time>2021-07-03 15:44:00</time>
      </trkpt>
      <trkpt lat="29.12195" lon="-13.51615">
        <ele>592</ele>
        <time>2021-07-03 15:44:01</time>
      </trkpt>
      <trkpt lat="29.12192" lon="-13.51615">
        <ele>592</ele>
        <time>2021-07-03 15:44:02</time>
      </trkpt>
      <trkpt lat="29.12188" lon="-13.51615">
        <ele>592</ele>
        <time>2021-07-03 15:44:03</time>
      </trkpt>
      <trkpt lat="29.12185" lon="-13.51616">
        <ele>592</ele>
        <time>2021-07-03 15:44:04</time>
      </trkpt>
      <trkpt lat="29.12182" lon="-13.51617">
        <ele>592</ele>
        <time>2021-07-03 15:44:05</time>
      </trkpt>
      <trkpt lat="29.12178" lon="-13.51617">
        <ele>592</ele>
        <time>2021-07-03 15:44:06</time>
      </trkpt>
      <trkpt lat="29.12175" lon="-13.51618">
        <ele>592</ele>
        <time>2021-07-03 15:44:07</time>
      </trkpt>
      <trkpt lat="29.12172" lon="-13.51618">
        <ele>592.2</ele>
        <time>2021-07-03 15:44:08</time>
      </trkpt>
      <trkpt lat="29.12168" lon="-13.51618">
        <ele>592.2</ele>
        <time>2021-07-03 15:44:09</time>
      </trkpt>
      <trkpt lat="29.12165" lon="-13.51619">
        <ele>592.2</ele>
        <time>2021-07-03 15:44:10</time>
      </trkpt>
      <trkpt lat="29.12161" lon="-13.5162">
        <ele>592.6</ele>
        <time>2021-07-03 15:44:11</time>
      </trkpt>
      <trkpt lat="29.12158" lon="-13.51621">
        <ele>592.6</ele>
        <time>2021-07-03 15:44:12</time>
      </trkpt>
      <trkpt lat="29.12154" lon="-13.51622">
        <ele>593</ele>
        <time>2021-07-03 15:44:13</time>
      </trkpt>
      <trkpt lat="29.12151" lon="-13.51623">
        <ele>593</ele>
        <time>2021-07-03 15:44:14</time>
      </trkpt>
      <trkpt lat="29.12147" lon="-13.51624">
        <ele>593.2</ele>
        <time>2021-07-03 15:44:15</time>
      </trkpt>
      <trkpt lat="29.12144" lon="-13.51625">
        <ele>593.2</ele>
        <time>2021-07-03 15:44:16</time>
      </trkpt>
      <trkpt lat="29.12141" lon="-13.51626">
        <ele>593.2</ele>
        <time>2021-07-03 15:44:17</time>
      </trkpt>
      <trkpt lat="29.12138" lon="-13.51627">
        <ele>593.2</ele>
        <time>2021-07-03 15:44:18</time>
      </trkpt>
      <trkpt lat="29.12134" lon="-13.51629">
        <ele>593.2</ele>
        <time>2021-07-03 15:44:19</time>
      </trkpt>
      <trkpt lat="29.12131" lon="-13.5163">
        <ele>593.2</ele>
        <time>2021-07-03 15:44:20</time>
      </trkpt>
      <trkpt lat="29.12128" lon="-13.51631">
        <ele>593.4</ele>
        <time>2021-07-03 15:44:21</time>
      </trkpt>
      <trkpt lat="29.12125" lon="-13.51632">
        <ele>593.4</ele>
        <time>2021-07-03 15:44:22</time>
      </trkpt>
      <trkpt lat="29.12122" lon="-13.51634">
        <ele>593.4</ele>
        <time>2021-07-03 15:44:23</time>
      </trkpt>
      <trkpt lat="29.12118" lon="-13.51635">
        <ele>593.4</ele>
        <time>2021-07-03 15:44:24</time>
      </trkpt>
      <trkpt lat="29.12115" lon="-13.51637">
        <ele>593.4</ele>
        <time>2021-07-03 15:44:25</time>
      </trkpt>
      <trkpt lat="29.12112" lon="-13.51638">
        <ele>593.8</ele>
        <time>2021-07-03 15:44:26</time>
      </trkpt>
      <trkpt lat="29.12109" lon="-13.5164">
        <ele>593.8</ele>
        <time>2021-07-03 15:44:27</time>
      </trkpt>
      <trkpt lat="29.12106" lon="-13.51641">
        <ele>594</ele>
        <time>2021-07-03 15:44:28</time>
      </trkpt>
      <trkpt lat="29.12103" lon="-13.51643">
        <ele>594</ele>
        <time>2021-07-03 15:44:29</time>
      </trkpt>
      <trkpt lat="29.121" lon="-13.51645">
        <ele>594.2</ele>
        <time>2021-07-03 15:44:30</time>
      </trkpt>
      <trkpt lat="29.12097" lon="-13.51647">
        <ele>594.2</ele>
        <time>2021-07-03 15:44:31</time>
      </trkpt>
      <trkpt lat="29.12094" lon="-13.51648">
        <ele>594.6</ele>
        <time>2021-07-03 15:44:32</time>
      </trkpt>
      <trkpt lat="29.12091" lon="-13.5165">
        <ele>594.6</ele>
        <time>2021-07-03 15:44:33</time>
      </trkpt>
      <trkpt lat="29.12088" lon="-13.51652">
        <ele>594.8</ele>
        <time>2021-07-03 15:44:34</time>
      </trkpt>
      <trkpt lat="29.12085" lon="-13.51653">
        <ele>594.8</ele>
        <time>2021-07-03 15:44:35</time>
      </trkpt>
      <trkpt lat="29.12082" lon="-13.51655">
        <ele>594.8</ele>
        <time>2021-07-03 15:44:36</time>
      </trkpt>
      <trkpt lat="29.12079" lon="-13.51657">
        <ele>594.8</ele>
        <time>2021-07-03 15:44:37</time>
      </trkpt>
      <trkpt lat="29.12077" lon="-13.51658">
        <ele>595</ele>
        <time>2021-07-03 15:44:38</time>
      </trkpt>
      <trkpt lat="29.12075" lon="-13.51659">
        <ele>595</ele>
        <time>2021-07-03 15:44:39</time>
      </trkpt>
      <trkpt lat="29.12073" lon="-13.51661">
        <ele>595.2</ele>
        <time>2021-07-03 15:44:40</time>
      </trkpt>
      <trkpt lat="29.1207" lon="-13.51662">
        <ele>595.2</ele>
        <time>2021-07-03 15:44:41</time>
      </trkpt>
      <trkpt lat="29.12067" lon="-13.51664">
        <ele>595.2</ele>
        <time>2021-07-03 15:44:42</time>
      </trkpt>
      <trkpt lat="29.12064" lon="-13.51665">
        <ele>595.2</ele>
        <time>2021-07-03 15:44:43</time>
      </trkpt>
      <trkpt lat="29.12061" lon="-13.51667">
        <ele>595</ele>
        <time>2021-07-03 15:44:44</time>
      </trkpt>
      <trkpt lat="29.12058" lon="-13.51669">
        <ele>595</ele>
        <time>2021-07-03 15:44:45</time>
      </trkpt>
      <trkpt lat="29.12055" lon="-13.51671">
        <ele>595</ele>
        <time>2021-07-03 15:44:46</time>
      </trkpt>
      <trkpt lat="29.12052" lon="-13.51673">
        <ele>595.4</ele>
        <time>2021-07-03 15:44:47</time>
      </trkpt>
      <trkpt lat="29.12049" lon="-13.51675">
        <ele>595.4</ele>
        <time>2021-07-03 15:44:48</time>
      </trkpt>
      <trkpt lat="29.12046" lon="-13.51677">
        <ele>595.4</ele>
        <time>2021-07-03 15:44:49</time>
      </trkpt>
      <trkpt lat="29.12043" lon="-13.51679">
        <ele>595.6</ele>
        <time>2021-07-03 15:44:50</time>
      </trkpt>
      <trkpt lat="29.1204" lon="-13.51681">
        <ele>595.6</ele>
        <time>2021-07-03 15:44:51</time>
      </trkpt>
      <trkpt lat="29.12037" lon="-13.51684">
        <ele>596</ele>
        <time>2021-07-03 15:44:52</time>
      </trkpt>
      <trkpt lat="29.12034" lon="-13.51685">
        <ele>596</ele>
        <time>2021-07-03 15:44:53</time>
      </trkpt>
      <trkpt lat="29.12031" lon="-13.51687">
        <ele>596.4</ele>
        <time>2021-07-03 15:44:54</time>
      </trkpt>
      <trkpt lat="29.12028" lon="-13.51689">
        <ele>596.6</ele>
        <time>2021-07-03 15:44:55</time>
      </trkpt>
      <trkpt lat="29.12025" lon="-13.51691">
        <ele>596.6</ele>
        <time>2021-07-03 15:44:56</time>
      </trkpt>
      <trkpt lat="29.12022" lon="-13.51692">
        <ele>597</ele>
        <time>2021-07-03 15:44:57</time>
      </trkpt>
      <trkpt lat="29.12019" lon="-13.51694">
        <ele>597</ele>
        <time>2021-07-03 15:44:58</time>
      </trkpt>
      <trkpt lat="29.12016" lon="-13.51696">
        <ele>597.2</ele>
        <time>2021-07-03 15:44:59</time>
      </trkpt>
      <trkpt lat="29.12013" lon="-13.51698">
        <ele>597.2</ele>
        <time>2021-07-03 15:45:00</time>
      </trkpt>
      <trkpt lat="29.1201" lon="-13.517">
        <ele>597.6</ele>
        <time>2021-07-03 15:45:01</time>
      </trkpt>
      <trkpt lat="29.12007" lon="-13.51702">
        <ele>597.6</ele>
        <time>2021-07-03 15:45:02</time>
      </trkpt>
      <trkpt lat="29.12004" lon="-13.51704">
        <ele>597.6</ele>
        <time>2021-07-03 15:45:03</time>
      </trkpt>
      <trkpt lat="29.12" lon="-13.51706">
        <ele>597.8</ele>
        <time>2021-07-03 15:45:04</time>
      </trkpt>
      <trkpt lat="29.11998" lon="-13.51708">
        <ele>597.8</ele>
        <time>2021-07-03 15:45:05</time>
      </trkpt>
      <trkpt lat="29.11996" lon="-13.51709">
        <ele>597.8</ele>
        <time>2021-07-03 15:45:06</time>
      </trkpt>
      <trkpt lat="29.11994" lon="-13.51711">
        <ele>597.8</ele>
        <time>2021-07-03 15:45:07</time>
      </trkpt>
      <trkpt lat="29.11991" lon="-13.51712">
        <ele>597.8</ele>
        <time>2021-07-03 15:45:08</time>
      </trkpt>
      <trkpt lat="29.11989" lon="-13.51712">
        <ele>597.8</ele>
        <time>2021-07-03 15:45:09</time>
      </trkpt>
      <trkpt lat="29.11987" lon="-13.51713">
        <ele>598</ele>
        <time>2021-07-03 15:45:10</time>
      </trkpt>
      <trkpt lat="29.11985" lon="-13.51714">
        <ele>598</ele>
        <time>2021-07-03 15:45:11</time>
      </trkpt>
      <trkpt lat="29.11983" lon="-13.51715">
        <ele>598</ele>
        <time>2021-07-03 15:45:12</time>
      </trkpt>
      <trkpt lat="29.11982" lon="-13.51716">
        <ele>598.2</ele>
        <time>2021-07-03 15:45:13</time>
      </trkpt>
      <trkpt lat="29.1198" lon="-13.51717">
        <ele>598.2</ele>
        <time>2021-07-03 15:45:14</time>
      </trkpt>
      <trkpt lat="29.11978" lon="-13.51719">
        <ele>598.2</ele>
        <time>2021-07-03 15:45:15</time>
      </trkpt>
      <trkpt lat="29.11976" lon="-13.51719">
        <ele>598.6</ele>
        <time>2021-07-03 15:45:16</time>
      </trkpt>
      <trkpt lat="29.11973" lon="-13.5172">
        <ele>598.6</ele>
        <time>2021-07-03 15:45:17</time>
      </trkpt>
      <trkpt lat="29.11971" lon="-13.51721">
        <ele>598.6</ele>
        <time>2021-07-03 15:45:18</time>
      </trkpt>
      <trkpt lat="29.11969" lon="-13.51722">
        <ele>599</ele>
        <time>2021-07-03 15:45:19</time>
      </trkpt>
      <trkpt lat="29.11966" lon="-13.51724">
        <ele>599.2</ele>
        <time>2021-07-03 15:45:20</time>
      </trkpt>
      <trkpt lat="29.11964" lon="-13.51725">
        <ele>599.2</ele>
        <time>2021-07-03 15:45:21</time>
      </trkpt>
      <trkpt lat="29.11962" lon="-13.51727">
        <ele>599.6</ele>
        <time>2021-07-03 15:45:22</time>
      </trkpt>
      <trkpt lat="29.11959" lon="-13.51729">
        <ele>599.6</ele>
        <time>2021-07-03 15:45:23</time>
      </trkpt>
      <trkpt lat="29.11957" lon="-13.5173">
        <ele>599.6</ele>
        <time>2021-07-03 15:45:24</time>
      </trkpt>
      <trkpt lat="29.11954" lon="-13.51732">
        <ele>600</ele>
        <time>2021-07-03 15:45:25</time>
      </trkpt>
      <trkpt lat="29.11952" lon="-13.51734">
        <ele>600.2</ele>
        <time>2021-07-03 15:45:26</time>
      </trkpt>
      <trkpt lat="29.1195" lon="-13.51735">
        <ele>600.6</ele>
        <time>2021-07-03 15:45:27</time>
      </trkpt>
      <trkpt lat="29.11947" lon="-13.51737">
        <ele>600.8</ele>
        <time>2021-07-03 15:45:28</time>
      </trkpt>
      <trkpt lat="29.11945" lon="-13.51739">
        <ele>601</ele>
        <time>2021-07-03 15:45:29</time>
      </trkpt>
      <trkpt lat="29.11943" lon="-13.51741">
        <ele>601.4</ele>
        <time>2021-07-03 15:45:30</time>
      </trkpt>
      <trkpt lat="29.11942" lon="-13.51743">
        <ele>601.6</ele>
        <time>2021-07-03 15:45:31</time>
      </trkpt>
      <trkpt lat="29.1194" lon="-13.51745">
        <ele>601.8</ele>
        <time>2021-07-03 15:45:32</time>
      </trkpt>
      <trkpt lat="29.11937" lon="-13.5175">
        <ele>602</ele>
        <time>2021-07-03 15:45:33</time>
      </trkpt>
      <trkpt lat="29.11935" lon="-13.51752">
        <ele>602.2</ele>
        <time>2021-07-03 15:45:34</time>
      </trkpt>
      <trkpt lat="29.11934" lon="-13.51755">
        <ele>602.2</ele>
        <time>2021-07-03 15:45:35</time>
      </trkpt>
      <trkpt lat="29.11932" lon="-13.51757">
        <ele>602.2</ele>
        <time>2021-07-03 15:45:36</time>
      </trkpt>
      <trkpt lat="29.1193" lon="-13.51759">
        <ele>602.4</ele>
        <time>2021-07-03 15:45:37</time>
      </trkpt>
      <trkpt lat="29.11928" lon="-13.51761">
        <ele>602.4</ele>
        <time>2021-07-03 15:45:38</time>
      </trkpt>
      <trkpt lat="29.11926" lon="-13.51762">
        <ele>602.4</ele>
        <time>2021-07-03 15:45:39</time>
      </trkpt>
      <trkpt lat="29.11924" lon="-13.51764">
        <ele>602.4</ele>
        <time>2021-07-03 15:45:40</time>
      </trkpt>
      <trkpt lat="29.11922" lon="-13.51765">
        <ele>602.4</ele>
        <time>2021-07-03 15:45:41</time>
      </trkpt>
      <trkpt lat="29.11922" lon="-13.51765">
        <ele>602.4</ele>
        <time>2021-07-03 15:45:42</time>
      </trkpt>
      <trkpt lat="29.11921" lon="-13.51765">
        <ele>602.4</ele>
        <time>2021-07-03 15:45:43</time>
      </trkpt>
      <trkpt lat="29.11922" lon="-13.51765">
        <ele>602.4</ele>
        <time>2021-07-03 15:45:44</time>
      </trkpt>
      <trkpt lat="29.11922" lon="-13.51765">
        <ele>602.8</ele>
        <time>2021-07-03 15:45:45</time>
      </trkpt>
      <trkpt lat="29.11921" lon="-13.51765">
        <ele>603.2</ele>
        <time>2021-07-03 15:45:46</time>
      </trkpt>
      <trkpt lat="29.11919" lon="-13.51766">
        <ele>603.2</ele>
        <time>2021-07-03 15:45:47</time>
      </trkpt>
      <trkpt lat="29.11918" lon="-13.51767">
        <ele>603.2</ele>
        <time>2021-07-03 15:45:48</time>
      </trkpt>
      <trkpt lat="29.11917" lon="-13.51768">
        <ele>603.2</ele>
        <time>2021-07-03 15:45:49</time>
      </trkpt>
      <trkpt lat="29.11915" lon="-13.5177">
        <ele>603.2</ele>
        <time>2021-07-03 15:45:50</time>
      </trkpt>
      <trkpt lat="29.11913" lon="-13.51771">
        <ele>603.2</ele>
        <time>2021-07-03 15:45:51</time>
      </trkpt>
      <trkpt lat="29.11911" lon="-13.51773">
        <ele>603.4</ele>
        <time>2021-07-03 15:45:52</time>
      </trkpt>
      <trkpt lat="29.11909" lon="-13.51774">
        <ele>603.4</ele>
        <time>2021-07-03 15:45:53</time>
      </trkpt>
      <trkpt lat="29.11906" lon="-13.51776">
        <ele>603.4</ele>
        <time>2021-07-03 15:45:54</time>
      </trkpt>
      <trkpt lat="29.11904" lon="-13.51777">
        <ele>603.4</ele>
        <time>2021-07-03 15:45:55</time>
      </trkpt>
      <trkpt lat="29.11901" lon="-13.51778">
        <ele>603.4</ele>
        <time>2021-07-03 15:45:56</time>
      </trkpt>
      <trkpt lat="29.11899" lon="-13.5178">
        <ele>603.4</ele>
        <time>2021-07-03 15:45:57</time>
      </trkpt>
      <trkpt lat="29.11896" lon="-13.51782">
        <ele>603.4</ele>
        <time>2021-07-03 15:45:58</time>
      </trkpt>
      <trkpt lat="29.11894" lon="-13.51783">
        <ele>603.4</ele>
        <time>2021-07-03 15:45:59</time>
      </trkpt>
      <trkpt lat="29.11891" lon="-13.51785">
        <ele>603.4</ele>
        <time>2021-07-03 15:46:00</time>
      </trkpt>
      <trkpt lat="29.11889" lon="-13.51786">
        <ele>603.4</ele>
        <time>2021-07-03 15:46:01</time>
      </trkpt>
      <trkpt lat="29.11886" lon="-13.51788">
        <ele>603.4</ele>
        <time>2021-07-03 15:46:02</time>
      </trkpt>
      <trkpt lat="29.11884" lon="-13.5179">
        <ele>603.8</ele>
        <time>2021-07-03 15:46:03</time>
      </trkpt>
      <trkpt lat="29.11881" lon="-13.51792">
        <ele>603.8</ele>
        <time>2021-07-03 15:46:04</time>
      </trkpt>
      <trkpt lat="29.11879" lon="-13.51793">
        <ele>604</ele>
        <time>2021-07-03 15:46:05</time>
      </trkpt>
      <trkpt lat="29.11876" lon="-13.51794">
        <ele>604</ele>
        <time>2021-07-03 15:46:06</time>
      </trkpt>
      <trkpt lat="29.11873" lon="-13.51796">
        <ele>604.4</ele>
        <time>2021-07-03 15:46:07</time>
      </trkpt>
      <trkpt lat="29.11871" lon="-13.51799">
        <ele>604.4</ele>
        <time>2021-07-03 15:46:08</time>
      </trkpt>
      <trkpt lat="29.11868" lon="-13.51801">
        <ele>604.6</ele>
        <time>2021-07-03 15:46:09</time>
      </trkpt>
      <trkpt lat="29.11866" lon="-13.51804">
        <ele>604.6</ele>
        <time>2021-07-03 15:46:10</time>
      </trkpt>
      <trkpt lat="29.11864" lon="-13.51807">
        <ele>604.6</ele>
        <time>2021-07-03 15:46:11</time>
      </trkpt>
      <trkpt lat="29.11861" lon="-13.5181">
        <ele>604.6</ele>
        <time>2021-07-03 15:46:12</time>
      </trkpt>
      <trkpt lat="29.11859" lon="-13.51813">
        <ele>605</ele>
        <time>2021-07-03 15:46:13</time>
      </trkpt>
      <trkpt lat="29.11856" lon="-13.51816">
        <ele>605</ele>
        <time>2021-07-03 15:46:14</time>
      </trkpt>
      <trkpt lat="29.11853" lon="-13.51818">
        <ele>605</ele>
        <time>2021-07-03 15:46:15</time>
      </trkpt>
      <trkpt lat="29.1185" lon="-13.51821">
        <ele>605</ele>
        <time>2021-07-03 15:46:16</time>
      </trkpt>
      <trkpt lat="29.11847" lon="-13.51823">
        <ele>605</ele>
        <time>2021-07-03 15:46:17</time>
      </trkpt>
      <trkpt lat="29.11844" lon="-13.51826">
        <ele>605</ele>
        <time>2021-07-03 15:46:18</time>
      </trkpt>
      <trkpt lat="29.11841" lon="-13.51828">
        <ele>605</ele>
        <time>2021-07-03 15:46:19</time>
      </trkpt>
      <trkpt lat="29.11838" lon="-13.5183">
        <ele>605</ele>
        <time>2021-07-03 15:46:20</time>
      </trkpt>
      <trkpt lat="29.11835" lon="-13.51832">
        <ele>605</ele>
        <time>2021-07-03 15:46:21</time>
      </trkpt>
      <trkpt lat="29.11831" lon="-13.51834">
        <ele>605</ele>
        <time>2021-07-03 15:46:22</time>
      </trkpt>
      <trkpt lat="29.11828" lon="-13.51836">
        <ele>605</ele>
        <time>2021-07-03 15:46:23</time>
      </trkpt>
      <trkpt lat="29.11824" lon="-13.51838">
        <ele>605.2</ele>
        <time>2021-07-03 15:46:24</time>
      </trkpt>
      <trkpt lat="29.11821" lon="-13.5184">
        <ele>605.2</ele>
        <time>2021-07-03 15:46:25</time>
      </trkpt>
      <trkpt lat="29.11817" lon="-13.51842">
        <ele>605.2</ele>
        <time>2021-07-03 15:46:26</time>
      </trkpt>
      <trkpt lat="29.11814" lon="-13.51844">
        <ele>605.2</ele>
        <time>2021-07-03 15:46:27</time>
      </trkpt>
      <trkpt lat="29.1181" lon="-13.51846">
        <ele>605.2</ele>
        <time>2021-07-03 15:46:28</time>
      </trkpt>
      <trkpt lat="29.11807" lon="-13.51848">
        <ele>605.2</ele>
        <time>2021-07-03 15:46:29</time>
      </trkpt>
      <trkpt lat="29.11804" lon="-13.5185">
        <ele>605.2</ele>
        <time>2021-07-03 15:46:30</time>
      </trkpt>
      <trkpt lat="29.118" lon="-13.51852">
        <ele>605.2</ele>
        <time>2021-07-03 15:46:31</time>
      </trkpt>
      <trkpt lat="29.11796" lon="-13.51854">
        <ele>605.2</ele>
        <time>2021-07-03 15:46:32</time>
      </trkpt>
      <trkpt lat="29.11792" lon="-13.51856">
        <ele>605.2</ele>
        <time>2021-07-03 15:46:33</time>
      </trkpt>
      <trkpt lat="29.11789" lon="-13.51858">
        <ele>605.2</ele>
        <time>2021-07-03 15:46:34</time>
      </trkpt>
      <trkpt lat="29.11785" lon="-13.51859">
        <ele>605.2</ele>
        <time>2021-07-03 15:46:35</time>
      </trkpt>
      <trkpt lat="29.11781" lon="-13.51861">
        <ele>605</ele>
        <time>2021-07-03 15:46:36</time>
      </trkpt>
      <trkpt lat="29.11778" lon="-13.51863">
        <ele>605</ele>
        <time>2021-07-03 15:46:37</time>
      </trkpt>
      <trkpt lat="29.11774" lon="-13.51865">
        <ele>605</ele>
        <time>2021-07-03 15:46:48</time>
      </trkpt>
      <trkpt lat="29.11771" lon="-13.51867">
        <ele>605</ele>
        <time>2021-07-03 15:46:49</time>
      </trkpt>
      <trkpt lat="29.11768" lon="-13.5187">
        <ele>605</ele>
        <time>2021-07-03 15:46:50</time>
      </trkpt>
      <trkpt lat="29.11764" lon="-13.51872">
        <ele>604.6</ele>
        <time>2021-07-03 15:46:51</time>
      </trkpt>
      <trkpt lat="29.11761" lon="-13.51874">
        <ele>604.6</ele>
        <time>2021-07-03 15:46:52</time>
      </trkpt>
      <trkpt lat="29.11757" lon="-13.51875">
        <ele>604.6</ele>
        <time>2021-07-03 15:46:53</time>
      </trkpt>
      <trkpt lat="29.11754" lon="-13.51877">
        <ele>604.6</ele>
        <time>2021-07-03 15:46:54</time>
      </trkpt>
      <trkpt lat="29.11737" lon="-13.51885">
        <ele>604.6</ele>
        <time>2021-07-03 15:46:55</time>
      </trkpt>
      <trkpt lat="29.11734" lon="-13.51886">
        <ele>604.8</ele>
        <time>2021-07-03 15:46:56</time>
      </trkpt>
      <trkpt lat="29.1173" lon="-13.51888">
        <ele>604.8</ele>
        <time>2021-07-03 15:46:57</time>
      </trkpt>
      <trkpt lat="29.11727" lon="-13.51889">
        <ele>604.8</ele>
        <time>2021-07-03 15:46:58</time>
      </trkpt>
      <trkpt lat="29.11723" lon="-13.51891">
        <ele>605.2</ele>
        <time>2021-07-03 15:46:59</time>
      </trkpt>
      <trkpt lat="29.11719" lon="-13.51893">
        <ele>605.6</ele>
        <time>2021-07-03 15:47:00</time>
      </trkpt>
      <trkpt lat="29.11716" lon="-13.51894">
        <ele>605.8</ele>
        <time>2021-07-03 15:47:01</time>
      </trkpt>
      <trkpt lat="29.11713" lon="-13.51896">
        <ele>606.2</ele>
        <time>2021-07-03 15:47:02</time>
      </trkpt>
      <trkpt lat="29.1171" lon="-13.51898">
        <ele>606.6</ele>
        <time>2021-07-03 15:47:03</time>
      </trkpt>
      <trkpt lat="29.11707" lon="-13.51899">
        <ele>606.8</ele>
        <time>2021-07-03 15:47:04</time>
      </trkpt>
      <trkpt lat="29.11704" lon="-13.519">
        <ele>606.8</ele>
        <time>2021-07-03 15:47:05</time>
      </trkpt>
      <trkpt lat="29.117" lon="-13.51901">
        <ele>606.8</ele>
        <time>2021-07-03 15:47:06</time>
      </trkpt>
      <trkpt lat="29.11696" lon="-13.51902">
        <ele>606.8</ele>
        <time>2021-07-03 15:47:07</time>
      </trkpt>
      <trkpt lat="29.11692" lon="-13.51904">
        <ele>606.8</ele>
        <time>2021-07-03 15:47:08</time>
      </trkpt>
      <trkpt lat="29.11689" lon="-13.51906">
        <ele>606.8</ele>
        <time>2021-07-03 15:47:09</time>
      </trkpt>
      <trkpt lat="29.11685" lon="-13.51907">
        <ele>606.8</ele>
        <time>2021-07-03 15:47:10</time>
      </trkpt>
      <trkpt lat="29.11677" lon="-13.51911">
        <ele>606.6</ele>
        <time>2021-07-03 15:47:11</time>
      </trkpt>
      <trkpt lat="29.11674" lon="-13.51913">
        <ele>606.4</ele>
        <time>2021-07-03 15:47:12</time>
      </trkpt>
      <trkpt lat="29.11669" lon="-13.51916">
        <ele>606.4</ele>
        <time>2021-07-03 15:47:13</time>
      </trkpt>
      <trkpt lat="29.11666" lon="-13.51918">
        <ele>606.4</ele>
        <time>2021-07-03 15:47:14</time>
      </trkpt>
      <trkpt lat="29.11663" lon="-13.51921">
        <ele>606.2</ele>
        <time>2021-07-03 15:47:15</time>
      </trkpt>
      <trkpt lat="29.11659" lon="-13.51923">
        <ele>606.2</ele>
        <time>2021-07-03 15:47:16</time>
      </trkpt>
      <trkpt lat="29.11655" lon="-13.51926">
        <ele>606.2</ele>
        <time>2021-07-03 15:47:17</time>
      </trkpt>
      <trkpt lat="29.11653" lon="-13.5193">
        <ele>606.2</ele>
        <time>2021-07-03 15:47:18</time>
      </trkpt>
      <trkpt lat="29.1165" lon="-13.51932">
        <ele>606</ele>
        <time>2021-07-03 15:47:19</time>
      </trkpt>
      <trkpt lat="29.11646" lon="-13.51935">
        <ele>606</ele>
        <time>2021-07-03 15:47:20</time>
      </trkpt>
      <trkpt lat="29.11643" lon="-13.51938">
        <ele>606</ele>
        <time>2021-07-03 15:47:21</time>
      </trkpt>
      <trkpt lat="29.1164" lon="-13.51941">
        <ele>605.6</ele>
        <time>2021-07-03 15:47:22</time>
      </trkpt>
      <trkpt lat="29.11638" lon="-13.51943">
        <ele>605.6</ele>
        <time>2021-07-03 15:47:23</time>
      </trkpt>
      <trkpt lat="29.11635" lon="-13.51946">
        <ele>605.6</ele>
        <time>2021-07-03 15:47:24</time>
      </trkpt>
      <trkpt lat="29.11632" lon="-13.51949">
        <ele>605.6</ele>
        <time>2021-07-03 15:47:25</time>
      </trkpt>
      <trkpt lat="29.11629" lon="-13.51951">
        <ele>605.6</ele>
        <time>2021-07-03 15:47:26</time>
      </trkpt>
      <trkpt lat="29.11626" lon="-13.51954">
        <ele>605.6</ele>
        <time>2021-07-03 15:47:27</time>
      </trkpt>
      <trkpt lat="29.11623" lon="-13.51957">
        <ele>605.6</ele>
        <time>2021-07-03 15:47:28</time>
      </trkpt>
      <trkpt lat="29.1162" lon="-13.5196">
        <ele>605.6</ele>
        <time>2021-07-03 15:47:29</time>
      </trkpt>
      <trkpt lat="29.11617" lon="-13.51962">
        <ele>605.6</ele>
        <time>2021-07-03 15:47:30</time>
      </trkpt>
      <trkpt lat="29.11614" lon="-13.51965">
        <ele>605.4</ele>
        <time>2021-07-03 15:47:31</time>
      </trkpt>
      <trkpt lat="29.11611" lon="-13.51968">
        <ele>605.4</ele>
        <time>2021-07-03 15:47:32</time>
      </trkpt>
      <trkpt lat="29.11608" lon="-13.51971">
        <ele>605.2</ele>
        <time>2021-07-03 15:47:33</time>
      </trkpt>
      <trkpt lat="29.11604" lon="-13.51973">
        <ele>605.2</ele>
        <time>2021-07-03 15:47:34</time>
      </trkpt>
      <trkpt lat="29.11601" lon="-13.51976">
        <ele>604.8</ele>
        <time>2021-07-03 15:47:35</time>
      </trkpt>
      <trkpt lat="29.11597" lon="-13.51978">
        <ele>604.6</ele>
        <time>2021-07-03 15:47:36</time>
      </trkpt>
      <trkpt lat="29.11592" lon="-13.5198">
        <ele>604.6</ele>
        <time>2021-07-03 15:47:37</time>
      </trkpt>
      <trkpt lat="29.11588" lon="-13.51983">
        <ele>604.4</ele>
        <time>2021-07-03 15:47:38</time>
      </trkpt>
      <trkpt lat="29.11584" lon="-13.51986">
        <ele>604.4</ele>
        <time>2021-07-03 15:47:39</time>
      </trkpt>
      <trkpt lat="29.1158" lon="-13.51988">
        <ele>604</ele>
        <time>2021-07-03 15:47:40</time>
      </trkpt>
      <trkpt lat="29.11576" lon="-13.51991">
        <ele>604</ele>
        <time>2021-07-03 15:47:41</time>
      </trkpt>
      <trkpt lat="29.11571" lon="-13.51994">
        <ele>603.6</ele>
        <time>2021-07-03 15:47:42</time>
      </trkpt>
      <trkpt lat="29.11567" lon="-13.51997">
        <ele>603.6</ele>
        <time>2021-07-03 15:47:43</time>
      </trkpt>
      <trkpt lat="29.11562" lon="-13.52">
        <ele>603.4</ele>
        <time>2021-07-03 15:47:44</time>
      </trkpt>
      <trkpt lat="29.11558" lon="-13.52003">
        <ele>603.4</ele>
        <time>2021-07-03 15:47:45</time>
      </trkpt>
      <trkpt lat="29.11554" lon="-13.52006">
        <ele>603.4</ele>
        <time>2021-07-03 15:47:46</time>
      </trkpt>
      <trkpt lat="29.1155" lon="-13.52008">
        <ele>603</ele>
        <time>2021-07-03 15:47:47</time>
      </trkpt>
      <trkpt lat="29.11546" lon="-13.52011">
        <ele>603</ele>
        <time>2021-07-03 15:47:48</time>
      </trkpt>
      <trkpt lat="29.11542" lon="-13.52014">
        <ele>602.8</ele>
        <time>2021-07-03 15:47:49</time>
      </trkpt>
      <trkpt lat="29.11538" lon="-13.52017">
        <ele>602.8</ele>
        <time>2021-07-03 15:47:50</time>
      </trkpt>
      <trkpt lat="29.11535" lon="-13.52021">
        <ele>602.8</ele>
        <time>2021-07-03 15:47:51</time>
      </trkpt>
      <trkpt lat="29.11531" lon="-13.52024">
        <ele>602.8</ele>
        <time>2021-07-03 15:47:52</time>
      </trkpt>
      <trkpt lat="29.11527" lon="-13.52028">
        <ele>602.4</ele>
        <time>2021-07-03 15:47:53</time>
      </trkpt>
      <trkpt lat="29.11524" lon="-13.52032">
        <ele>602.4</ele>
        <time>2021-07-03 15:47:54</time>
      </trkpt>
      <trkpt lat="29.1152" lon="-13.52036">
        <ele>602.2</ele>
        <time>2021-07-03 15:47:55</time>
      </trkpt>
      <trkpt lat="29.11515" lon="-13.5204">
        <ele>602</ele>
        <time>2021-07-03 15:47:56</time>
      </trkpt>
      <trkpt lat="29.11511" lon="-13.52045">
        <ele>602</ele>
        <time>2021-07-03 15:47:57</time>
      </trkpt>
      <trkpt lat="29.11506" lon="-13.52049">
        <ele>601.4</ele>
        <time>2021-07-03 15:47:58</time>
      </trkpt>
      <trkpt lat="29.11501" lon="-13.52053">
        <ele>601.2</ele>
        <time>2021-07-03 15:47:59</time>
      </trkpt>
      <trkpt lat="29.11495" lon="-13.52058">
        <ele>600.8</ele>
        <time>2021-07-03 15:48:00</time>
      </trkpt>
      <trkpt lat="29.1149" lon="-13.52061">
        <ele>600.6</ele>
        <time>2021-07-03 15:48:01</time>
      </trkpt>
      <trkpt lat="29.11484" lon="-13.52065">
        <ele>600.4</ele>
        <time>2021-07-03 15:48:02</time>
      </trkpt>
      <trkpt lat="29.11478" lon="-13.52068">
        <ele>600</ele>
        <time>2021-07-03 15:48:03</time>
      </trkpt>
      <trkpt lat="29.11473" lon="-13.52071">
        <ele>599.8</ele>
        <time>2021-07-03 15:48:04</time>
      </trkpt>
      <trkpt lat="29.11467" lon="-13.52075">
        <ele>599.6</ele>
        <time>2021-07-03 15:48:05</time>
      </trkpt>
      <trkpt lat="29.11462" lon="-13.52078">
        <ele>599.4</ele>
        <time>2021-07-03 15:48:06</time>
      </trkpt>
      <trkpt lat="29.11456" lon="-13.52081">
        <ele>599</ele>
        <time>2021-07-03 15:48:07</time>
      </trkpt>
      <trkpt lat="29.11451" lon="-13.52085">
        <ele>598.8</ele>
        <time>2021-07-03 15:48:08</time>
      </trkpt>
      <trkpt lat="29.11445" lon="-13.52088">
        <ele>598.8</ele>
        <time>2021-07-03 15:48:09</time>
      </trkpt>
      <trkpt lat="29.11439" lon="-13.52091">
        <ele>598.4</ele>
        <time>2021-07-03 15:48:10</time>
      </trkpt>
      <trkpt lat="29.11433" lon="-13.52094">
        <ele>598.4</ele>
        <time>2021-07-03 15:48:11</time>
      </trkpt>
      <trkpt lat="29.11427" lon="-13.52098">
        <ele>598</ele>
        <time>2021-07-03 15:48:12</time>
      </trkpt>
      <trkpt lat="29.11421" lon="-13.52101">
        <ele>597.8</ele>
        <time>2021-07-03 15:48:13</time>
      </trkpt>
      <trkpt lat="29.11415" lon="-13.52104">
        <ele>597.6</ele>
        <time>2021-07-03 15:48:14</time>
      </trkpt>
      <trkpt lat="29.1141" lon="-13.52107">
        <ele>597.6</ele>
        <time>2021-07-03 15:48:15</time>
      </trkpt>
      <trkpt lat="29.11404" lon="-13.5211">
        <ele>597.2</ele>
        <time>2021-07-03 15:48:16</time>
      </trkpt>
      <trkpt lat="29.11398" lon="-13.52113">
        <ele>597.2</ele>
        <time>2021-07-03 15:48:17</time>
      </trkpt>
      <trkpt lat="29.11393" lon="-13.52117">
        <ele>596.8</ele>
        <time>2021-07-03 15:48:18</time>
      </trkpt>
      <trkpt lat="29.11387" lon="-13.52121">
        <ele>596.4</ele>
        <time>2021-07-03 15:48:19</time>
      </trkpt>
      <trkpt lat="29.11381" lon="-13.52125">
        <ele>596.2</ele>
        <time>2021-07-03 15:48:20</time>
      </trkpt>
      <trkpt lat="29.11375" lon="-13.52129">
        <ele>595.8</ele>
        <time>2021-07-03 15:48:21</time>
      </trkpt>
      <trkpt lat="29.11369" lon="-13.52133">
        <ele>595.6</ele>
        <time>2021-07-03 15:48:22</time>
      </trkpt>
      <trkpt lat="29.11363" lon="-13.52137">
        <ele>595.2</ele>
        <time>2021-07-03 15:48:23</time>
      </trkpt>
      <trkpt lat="29.11358" lon="-13.52142">
        <ele>595.2</ele>
        <time>2021-07-03 15:48:24</time>
      </trkpt>
      <trkpt lat="29.11352" lon="-13.52147">
        <ele>594.8</ele>
        <time>2021-07-03 15:48:25</time>
      </trkpt>
      <trkpt lat="29.11347" lon="-13.52152">
        <ele>594.4</ele>
        <time>2021-07-03 15:48:26</time>
      </trkpt>
      <trkpt lat="29.11342" lon="-13.52157">
        <ele>594.2</ele>
        <time>2021-07-03 15:48:27</time>
      </trkpt>
      <trkpt lat="29.11336" lon="-13.52163">
        <ele>594</ele>
        <time>2021-07-03 15:48:28</time>
      </trkpt>
      <trkpt lat="29.11331" lon="-13.52169">
        <ele>593.6</ele>
        <time>2021-07-03 15:48:29</time>
      </trkpt>
      <trkpt lat="29.11325" lon="-13.52175">
        <ele>593.2</ele>
        <time>2021-07-03 15:48:30</time>
      </trkpt>
      <trkpt lat="29.11319" lon="-13.52181">
        <ele>592.8</ele>
        <time>2021-07-03 15:48:31</time>
      </trkpt>
      <trkpt lat="29.11313" lon="-13.52187">
        <ele>592.2</ele>
        <time>2021-07-03 15:48:32</time>
      </trkpt>
      <trkpt lat="29.11308" lon="-13.52193">
        <ele>591.6</ele>
        <time>2021-07-03 15:48:33</time>
      </trkpt>
      <trkpt lat="29.11302" lon="-13.52199">
        <ele>590.8</ele>
        <time>2021-07-03 15:48:34</time>
      </trkpt>
      <trkpt lat="29.11296" lon="-13.52205">
        <ele>590.4</ele>
        <time>2021-07-03 15:48:35</time>
      </trkpt>
      <trkpt lat="29.1129" lon="-13.5221">
        <ele>590.2</ele>
        <time>2021-07-03 15:48:36</time>
      </trkpt>
      <trkpt lat="29.11285" lon="-13.52216">
        <ele>589.8</ele>
        <time>2021-07-03 15:48:37</time>
      </trkpt>
      <trkpt lat="29.11279" lon="-13.52222">
        <ele>589.6</ele>
        <time>2021-07-03 15:48:38</time>
      </trkpt>
      <trkpt lat="29.11272" lon="-13.52227">
        <ele>589.2</ele>
        <time>2021-07-03 15:48:39</time>
      </trkpt>
      <trkpt lat="29.11265" lon="-13.52233">
        <ele>589</ele>
        <time>2021-07-03 15:48:40</time>
      </trkpt>
      <trkpt lat="29.11259" lon="-13.52238">
        <ele>589</ele>
        <time>2021-07-03 15:48:41</time>
      </trkpt>
      <trkpt lat="29.11252" lon="-13.52243">
        <ele>588.6</ele>
        <time>2021-07-03 15:48:42</time>
      </trkpt>
      <trkpt lat="29.11245" lon="-13.52249">
        <ele>588.6</ele>
        <time>2021-07-03 15:48:43</time>
      </trkpt>
      <trkpt lat="29.11239" lon="-13.52254">
        <ele>588.4</ele>
        <time>2021-07-03 15:48:44</time>
      </trkpt>
      <trkpt lat="29.11231" lon="-13.5226">
        <ele>588.2</ele>
        <time>2021-07-03 15:48:45</time>
      </trkpt>
      <trkpt lat="29.11224" lon="-13.52265">
        <ele>588.2</ele>
        <time>2021-07-03 15:48:46</time>
      </trkpt>
      <trkpt lat="29.11217" lon="-13.5227">
        <ele>588.2</ele>
        <time>2021-07-03 15:48:47</time>
      </trkpt>
      <trkpt lat="29.11209" lon="-13.52276">
        <ele>587.8</ele>
        <time>2021-07-03 15:48:48</time>
      </trkpt>
      <trkpt lat="29.11202" lon="-13.52282">
        <ele>587.6</ele>
        <time>2021-07-03 15:48:49</time>
      </trkpt>
      <trkpt lat="29.11196" lon="-13.52287">
        <ele>587.6</ele>
        <time>2021-07-03 15:48:50</time>
      </trkpt>
      <trkpt lat="29.11189" lon="-13.52293">
        <ele>587.4</ele>
        <time>2021-07-03 15:48:51</time>
      </trkpt>
      <trkpt lat="29.11183" lon="-13.52298">
        <ele>587.4</ele>
        <time>2021-07-03 15:48:52</time>
      </trkpt>
      <trkpt lat="29.11177" lon="-13.52304">
        <ele>587.2</ele>
        <time>2021-07-03 15:48:53</time>
      </trkpt>
      <trkpt lat="29.11171" lon="-13.5231">
        <ele>587.2</ele>
        <time>2021-07-03 15:48:54</time>
      </trkpt>
      <trkpt lat="29.11165" lon="-13.52316">
        <ele>587</ele>
        <time>2021-07-03 15:48:55</time>
      </trkpt>
      <trkpt lat="29.11159" lon="-13.52322">
        <ele>587</ele>
        <time>2021-07-03 15:48:56</time>
      </trkpt>
      <trkpt lat="29.11153" lon="-13.52329">
        <ele>586.6</ele>
        <time>2021-07-03 15:48:57</time>
      </trkpt>
      <trkpt lat="29.11148" lon="-13.52335">
        <ele>586.6</ele>
        <time>2021-07-03 15:48:58</time>
      </trkpt>
      <trkpt lat="29.11143" lon="-13.52342">
        <ele>586.4</ele>
        <time>2021-07-03 15:48:59</time>
      </trkpt>
      <trkpt lat="29.11138" lon="-13.52349">
        <ele>586.4</ele>
        <time>2021-07-03 15:49:00</time>
      </trkpt>
      <trkpt lat="29.11134" lon="-13.52356">
        <ele>585.8</ele>
        <time>2021-07-03 15:49:01</time>
      </trkpt>
      <trkpt lat="29.11129" lon="-13.52363">
        <ele>585.6</ele>
        <time>2021-07-03 15:49:02</time>
      </trkpt>
      <trkpt lat="29.11125" lon="-13.5237">
        <ele>585.2</ele>
        <time>2021-07-03 15:49:03</time>
      </trkpt>
      <trkpt lat="29.1112" lon="-13.52378">
        <ele>584.8</ele>
        <time>2021-07-03 15:49:04</time>
      </trkpt>
      <trkpt lat="29.11115" lon="-13.52386">
        <ele>584.2</ele>
        <time>2021-07-03 15:49:05</time>
      </trkpt>
      <trkpt lat="29.11109" lon="-13.52395">
        <ele>584</ele>
        <time>2021-07-03 15:49:06</time>
      </trkpt>
      <trkpt lat="29.11104" lon="-13.52403">
        <ele>583.4</ele>
        <time>2021-07-03 15:49:07</time>
      </trkpt>
      <trkpt lat="29.11098" lon="-13.52411">
        <ele>582.8</ele>
        <time>2021-07-03 15:49:08</time>
      </trkpt>
      <trkpt lat="29.11092" lon="-13.52419">
        <ele>582.2</ele>
        <time>2021-07-03 15:49:09</time>
      </trkpt>
      <trkpt lat="29.11086" lon="-13.52427">
        <ele>581.6</ele>
        <time>2021-07-03 15:49:10</time>
      </trkpt>
      <trkpt lat="29.1108" lon="-13.52435">
        <ele>581</ele>
        <time>2021-07-03 15:49:11</time>
      </trkpt>
      <trkpt lat="29.11074" lon="-13.52442">
        <ele>580.4</ele>
        <time>2021-07-03 15:49:12</time>
      </trkpt>
      <trkpt lat="29.11068" lon="-13.52449">
        <ele>580</ele>
        <time>2021-07-03 15:49:13</time>
      </trkpt>
      <trkpt lat="29.11062" lon="-13.52456">
        <ele>579.6</ele>
        <time>2021-07-03 15:49:14</time>
      </trkpt>
      <trkpt lat="29.11057" lon="-13.52464">
        <ele>579.4</ele>
        <time>2021-07-03 15:49:15</time>
      </trkpt>
      <trkpt lat="29.11053" lon="-13.52472">
        <ele>579</ele>
        <time>2021-07-03 15:49:16</time>
      </trkpt>
      <trkpt lat="29.11048" lon="-13.52481">
        <ele>578.8</ele>
        <time>2021-07-03 15:49:17</time>
      </trkpt>
      <trkpt lat="29.11045" lon="-13.52489">
        <ele>578.6</ele>
        <time>2021-07-03 15:49:18</time>
      </trkpt>
      <trkpt lat="29.11041" lon="-13.52497">
        <ele>578.6</ele>
        <time>2021-07-03 15:49:19</time>
      </trkpt>
      <trkpt lat="29.11037" lon="-13.52506">
        <ele>578.6</ele>
        <time>2021-07-03 15:49:20</time>
      </trkpt>
      <trkpt lat="29.11034" lon="-13.52514">
        <ele>578.6</ele>
        <time>2021-07-03 15:49:21</time>
      </trkpt>
      <trkpt lat="29.1103" lon="-13.52522">
        <ele>578.6</ele>
        <time>2021-07-03 15:49:22</time>
      </trkpt>
      <trkpt lat="29.11024" lon="-13.52529">
        <ele>578.6</ele>
        <time>2021-07-03 15:49:23</time>
      </trkpt>
      <trkpt lat="29.11019" lon="-13.52536">
        <ele>578.6</ele>
        <time>2021-07-03 15:49:24</time>
      </trkpt>
      <trkpt lat="29.11015" lon="-13.52543">
        <ele>578.4</ele>
        <time>2021-07-03 15:49:25</time>
      </trkpt>
      <trkpt lat="29.1101" lon="-13.52549">
        <ele>578.4</ele>
        <time>2021-07-03 15:49:26</time>
      </trkpt>
      <trkpt lat="29.11005" lon="-13.52556">
        <ele>578.4</ele>
        <time>2021-07-03 15:49:27</time>
      </trkpt>
      <trkpt lat="29.10999" lon="-13.52561">
        <ele>578.4</ele>
        <time>2021-07-03 15:49:28</time>
      </trkpt>
      <trkpt lat="29.10993" lon="-13.52565">
        <ele>578.4</ele>
        <time>2021-07-03 15:49:29</time>
      </trkpt>
      <trkpt lat="29.10988" lon="-13.52569">
        <ele>578.4</ele>
        <time>2021-07-03 15:49:30</time>
      </trkpt>
      <trkpt lat="29.10982" lon="-13.52572">
        <ele>578.2</ele>
        <time>2021-07-03 15:49:31</time>
      </trkpt>
      <trkpt lat="29.10977" lon="-13.52574">
        <ele>577.8</ele>
        <time>2021-07-03 15:49:32</time>
      </trkpt>
      <trkpt lat="29.10972" lon="-13.52577">
        <ele>577.4</ele>
        <time>2021-07-03 15:49:33</time>
      </trkpt>
      <trkpt lat="29.10966" lon="-13.52578">
        <ele>577</ele>
        <time>2021-07-03 15:49:34</time>
      </trkpt>
      <trkpt lat="29.1096" lon="-13.5258">
        <ele>576.6</ele>
        <time>2021-07-03 15:49:35</time>
      </trkpt>
      <trkpt lat="29.10954" lon="-13.52582">
        <ele>576.2</ele>
        <time>2021-07-03 15:49:36</time>
      </trkpt>
      <trkpt lat="29.10949" lon="-13.52584">
        <ele>576</ele>
        <time>2021-07-03 15:49:37</time>
      </trkpt>
      <trkpt lat="29.10944" lon="-13.52586">
        <ele>576</ele>
        <time>2021-07-03 15:49:38</time>
      </trkpt>
      <trkpt lat="29.10939" lon="-13.52588">
        <ele>575.8</ele>
        <time>2021-07-03 15:49:39</time>
      </trkpt>
      <trkpt lat="29.10934" lon="-13.5259">
        <ele>575.8</ele>
        <time>2021-07-03 15:49:40</time>
      </trkpt>
      <trkpt lat="29.1093" lon="-13.52593">
        <ele>575.8</ele>
        <time>2021-07-03 15:49:41</time>
      </trkpt>
      <trkpt lat="29.10926" lon="-13.52595">
        <ele>575.8</ele>
        <time>2021-07-03 15:49:42</time>
      </trkpt>
      <trkpt lat="29.10922" lon="-13.52597">
        <ele>575.8</ele>
        <time>2021-07-03 15:49:43</time>
      </trkpt>
      <trkpt lat="29.10918" lon="-13.526">
        <ele>575.8</ele>
        <time>2021-07-03 15:49:44</time>
      </trkpt>
      <trkpt lat="29.10915" lon="-13.52603">
        <ele>576</ele>
        <time>2021-07-03 15:49:45</time>
      </trkpt>
      <trkpt lat="29.10911" lon="-13.52606">
        <ele>576</ele>
        <time>2021-07-03 15:49:46</time>
      </trkpt>
      <trkpt lat="29.10907" lon="-13.5261">
        <ele>576</ele>
        <time>2021-07-03 15:49:47</time>
      </trkpt>
      <trkpt lat="29.10904" lon="-13.52612">
        <ele>576.2</ele>
        <time>2021-07-03 15:49:48</time>
      </trkpt>
      <trkpt lat="29.10902" lon="-13.52615">
        <ele>576.2</ele>
        <time>2021-07-03 15:49:49</time>
      </trkpt>
      <trkpt lat="29.10899" lon="-13.52617">
        <ele>576.2</ele>
        <time>2021-07-03 15:49:50</time>
      </trkpt>
      <trkpt lat="29.10897" lon="-13.52619">
        <ele>576.6</ele>
        <time>2021-07-03 15:49:51</time>
      </trkpt>
      <trkpt lat="29.10895" lon="-13.52621">
        <ele>576.8</ele>
        <time>2021-07-03 15:49:52</time>
      </trkpt>
      <trkpt lat="29.10894" lon="-13.52624">
        <ele>576.8</ele>
        <time>2021-07-03 15:49:53</time>
      </trkpt>
      <trkpt lat="29.10895" lon="-13.52625">
        <ele>576.8</ele>
        <time>2021-07-03 15:49:54</time>
      </trkpt>
      <trkpt lat="29.10895" lon="-13.52627">
        <ele>576.8</ele>
        <time>2021-07-03 15:49:55</time>
      </trkpt>
      <trkpt lat="29.10896" lon="-13.52628">
        <ele>576.8</ele>
        <time>2021-07-03 15:49:56</time>
      </trkpt>
      <trkpt lat="29.10898" lon="-13.52629">
        <ele>576.8</ele>
        <time>2021-07-03 15:49:57</time>
      </trkpt>
      <trkpt lat="29.10899" lon="-13.5263">
        <ele>576.6</ele>
        <time>2021-07-03 15:49:58</time>
      </trkpt>
      <trkpt lat="29.109" lon="-13.52632">
        <ele>576.6</ele>
        <time>2021-07-03 15:49:59</time>
      </trkpt>
      <trkpt lat="29.109" lon="-13.52632">
        <ele>576.2</ele>
        <time>2021-07-03 15:50:00</time>
      </trkpt>
      <trkpt lat="29.10901" lon="-13.52633">
        <ele>575.8</ele>
        <time>2021-07-03 15:50:01</time>
      </trkpt>
      <trkpt lat="29.10902" lon="-13.52634">
        <ele>575.2</ele>
        <time>2021-07-03 15:50:02</time>
      </trkpt>
      <trkpt lat="29.10902" lon="-13.52635">
        <ele>574.8</ele>
        <time>2021-07-03 15:50:03</time>
      </trkpt>
      <trkpt lat="29.10902" lon="-13.52636">
        <ele>574.4</ele>
        <time>2021-07-03 15:50:04</time>
      </trkpt>
      <trkpt lat="29.10901" lon="-13.52636">
        <ele>574</ele>
        <time>2021-07-03 15:50:05</time>
      </trkpt>
      <trkpt lat="29.10902" lon="-13.52636">
        <ele>573.8</ele>
        <time>2021-07-03 15:50:06</time>
      </trkpt>
      <trkpt lat="29.10902" lon="-13.52638">
        <ele>575.4</ele>
        <time>2021-07-03 15:50:07</time>
      </trkpt>
      <trkpt lat="29.10903" lon="-13.52639">
        <ele>575.2</ele>
        <time>2021-07-03 15:50:08</time>
      </trkpt>
      <trkpt lat="29.10903" lon="-13.52641">
        <ele>574.6</ele>
        <time>2021-07-03 15:50:09</time>
      </trkpt>
      <trkpt lat="29.10903" lon="-13.52643">
        <ele>574.2</ele>
        <time>2021-07-03 15:50:10</time>
      </trkpt>
      <trkpt lat="29.10902" lon="-13.52644">
        <ele>574</ele>
        <time>2021-07-03 15:50:11</time>
      </trkpt>
      <trkpt lat="29.10901" lon="-13.52645">
        <ele>573.8</ele>
        <time>2021-07-03 15:50:12</time>
      </trkpt>
      <trkpt lat="29.10901" lon="-13.52646">
        <ele>573.8</ele>
        <time>2021-07-03 15:50:13</time>
      </trkpt>
      <trkpt lat="29.109" lon="-13.52646">
        <ele>573.8</ele>
        <time>2021-07-03 15:50:14</time>
      </trkpt>
      <trkpt lat="29.10899" lon="-13.52646">
        <ele>573.4</ele>
        <time>2021-07-03 15:50:15</time>
      </trkpt>
      <trkpt lat="29.10897" lon="-13.52647">
        <ele>573.4</ele>
        <time>2021-07-03 15:50:16</time>
      </trkpt>
      <trkpt lat="29.10897" lon="-13.52647">
        <ele>573.4</ele>
        <time>2021-07-03 15:50:17</time>
      </trkpt>
      <trkpt lat="29.10897" lon="-13.52647">
        <ele>573.4</ele>
        <time>2021-07-03 15:50:18</time>
      </trkpt>
      <trkpt lat="29.10897" lon="-13.52647">
        <ele>573.8</ele>
        <time>2021-07-03 15:50:19</time>
      </trkpt>
      <trkpt lat="29.10896" lon="-13.52647">
        <ele>576.4</ele>
        <time>2021-07-03 15:50:20</time>
      </trkpt>
      <trkpt lat="29.10895" lon="-13.52647">
        <ele>576.6</ele>
        <time>2021-07-03 15:50:21</time>
      </trkpt>
      <trkpt lat="29.10893" lon="-13.52647">
        <ele>576.6</ele>
        <time>2021-07-03 15:50:22</time>
      </trkpt>
      <trkpt lat="29.10891" lon="-13.52648">
        <ele>576.6</ele>
        <time>2021-07-03 15:50:23</time>
      </trkpt>
      <trkpt lat="29.10889" lon="-13.52649">
        <ele>576.6</ele>
        <time>2021-07-03 15:50:24</time>
      </trkpt>
      <trkpt lat="29.10887" lon="-13.5265">
        <ele>577</ele>
        <time>2021-07-03 15:50:25</time>
      </trkpt>
      <trkpt lat="29.10885" lon="-13.52651">
        <ele>577</ele>
        <time>2021-07-03 15:50:26</time>
      </trkpt>
      <trkpt lat="29.10884" lon="-13.52652">
        <ele>577</ele>
        <time>2021-07-03 15:50:27</time>
      </trkpt>
      <trkpt lat="29.10882" lon="-13.52653">
        <ele>577</ele>
        <time>2021-07-03 15:50:28</time>
      </trkpt>
      <trkpt lat="29.1088" lon="-13.52655">
        <ele>577.2</ele>
        <time>2021-07-03 15:50:29</time>
      </trkpt>
      <trkpt lat="29.10877" lon="-13.52657">
        <ele>577.2</ele>
        <time>2021-07-03 15:50:30</time>
      </trkpt>
      <trkpt lat="29.10875" lon="-13.52658">
        <ele>577.2</ele>
        <time>2021-07-03 15:50:31</time>
      </trkpt>
      <trkpt lat="29.10873" lon="-13.5266">
        <ele>577.2</ele>
        <time>2021-07-03 15:50:32</time>
      </trkpt>
      <trkpt lat="29.10871" lon="-13.52661">
        <ele>577.2</ele>
        <time>2021-07-03 15:50:33</time>
      </trkpt>
      <trkpt lat="29.10869" lon="-13.52663">
        <ele>577</ele>
        <time>2021-07-03 15:50:34</time>
      </trkpt>
      <trkpt lat="29.10867" lon="-13.52664">
        <ele>577</ele>
        <time>2021-07-03 15:50:35</time>
      </trkpt>
      <trkpt lat="29.10865" lon="-13.52665">
        <ele>577</ele>
        <time>2021-07-03 15:50:36</time>
      </trkpt>
      <trkpt lat="29.10863" lon="-13.52666">
        <ele>577</ele>
        <time>2021-07-03 15:50:37</time>
      </trkpt>
      <trkpt lat="29.10862" lon="-13.52667">
        <ele>577</ele>
        <time>2021-07-03 15:50:38</time>
      </trkpt>
      <trkpt lat="29.10861" lon="-13.52668">
        <ele>577</ele>
        <time>2021-07-03 15:50:39</time>
      </trkpt>
      <trkpt lat="29.10859" lon="-13.52669">
        <ele>577</ele>
        <time>2021-07-03 15:50:40</time>
      </trkpt>
      <trkpt lat="29.10858" lon="-13.5267">
        <ele>577</ele>
        <time>2021-07-03 15:50:41</time>
      </trkpt>
      <trkpt lat="29.10857" lon="-13.52672">
        <ele>577</ele>
        <time>2021-07-03 15:50:42</time>
      </trkpt>
      <trkpt lat="29.10856" lon="-13.52674">
        <ele>577</ele>
        <time>2021-07-03 15:50:43</time>
      </trkpt>
      <trkpt lat="29.10854" lon="-13.52676">
        <ele>577</ele>
        <time>2021-07-03 15:50:44</time>
      </trkpt>
      <trkpt lat="29.10853" lon="-13.52677">
        <ele>577</ele>
        <time>2021-07-03 15:50:45</time>
      </trkpt>
      <trkpt lat="29.10851" lon="-13.52679">
        <ele>577</ele>
        <time>2021-07-03 15:50:46</time>
      </trkpt>
      <trkpt lat="29.1085" lon="-13.52681">
        <ele>577</ele>
        <time>2021-07-03 15:50:47</time>
      </trkpt>
      <trkpt lat="29.10848" lon="-13.52682">
        <ele>577.2</ele>
        <time>2021-07-03 15:50:48</time>
      </trkpt>
      <trkpt lat="29.10846" lon="-13.52684">
        <ele>577.2</ele>
        <time>2021-07-03 15:50:49</time>
      </trkpt>
      <trkpt lat="29.10844" lon="-13.52685">
        <ele>577.2</ele>
        <time>2021-07-03 15:50:50</time>
      </trkpt>
      <trkpt lat="29.10842" lon="-13.52686">
        <ele>577.4</ele>
        <time>2021-07-03 15:50:51</time>
      </trkpt>
      <trkpt lat="29.1084" lon="-13.52688">
        <ele>577.4</ele>
        <time>2021-07-03 15:50:52</time>
      </trkpt>
      <trkpt lat="29.10838" lon="-13.52689">
        <ele>577.4</ele>
        <time>2021-07-03 15:50:53</time>
      </trkpt>
      <trkpt lat="29.10836" lon="-13.5269">
        <ele>577.4</ele>
        <time>2021-07-03 15:50:54</time>
      </trkpt>
      <trkpt lat="29.10834" lon="-13.52691">
        <ele>577.4</ele>
        <time>2021-07-03 15:50:55</time>
      </trkpt>
      <trkpt lat="29.10833" lon="-13.52692">
        <ele>577.4</ele>
        <time>2021-07-03 15:50:56</time>
      </trkpt>
      <trkpt lat="29.10831" lon="-13.52692">
        <ele>577.4</ele>
        <time>2021-07-03 15:50:57</time>
      </trkpt>
      <trkpt lat="29.10829" lon="-13.52691">
        <ele>577.4</ele>
        <time>2021-07-03 15:50:58</time>
      </trkpt>
      <trkpt lat="29.10828" lon="-13.52691">
        <ele>577.4</ele>
        <time>2021-07-03 15:50:59</time>
      </trkpt>
      <trkpt lat="29.10827" lon="-13.5269">
        <ele>577.6</ele>
        <time>2021-07-03 15:51:00</time>
      </trkpt>
      <trkpt lat="29.10825" lon="-13.52688">
        <ele>577.6</ele>
        <time>2021-07-03 15:51:01</time>
      </trkpt>
      <trkpt lat="29.10824" lon="-13.52686">
        <ele>577.6</ele>
        <time>2021-07-03 15:51:02</time>
      </trkpt>
      <trkpt lat="29.10824" lon="-13.52684">
        <ele>577.6</ele>
        <time>2021-07-03 15:51:03</time>
      </trkpt>
      <trkpt lat="29.10823" lon="-13.52681">
        <ele>577.6</ele>
        <time>2021-07-03 15:51:20</time>
      </trkpt>
      <trkpt lat="29.10822" lon="-13.52679">
        <ele>577.6</ele>
        <time>2021-07-03 15:51:21</time>
      </trkpt>
      <trkpt lat="29.10821" lon="-13.52678">
        <ele>577.6</ele>
        <time>2021-07-03 15:51:22</time>
      </trkpt>
      <trkpt lat="29.1082" lon="-13.52676">
        <ele>577.6</ele>
        <time>2021-07-03 15:51:23</time>
      </trkpt>
      <trkpt lat="29.10818" lon="-13.52675">
        <ele>578</ele>
        <time>2021-07-03 15:51:24</time>
      </trkpt>
      <trkpt lat="29.10816" lon="-13.52675">
        <ele>578</ele>
        <time>2021-07-03 15:51:25</time>
      </trkpt>
      <trkpt lat="29.10814" lon="-13.52675">
        <ele>578.4</ele>
        <time>2021-07-03 15:51:26</time>
      </trkpt>
      <trkpt lat="29.10812" lon="-13.52676">
        <ele>578.4</ele>
        <time>2021-07-03 15:51:27</time>
      </trkpt>
      <trkpt lat="29.1081" lon="-13.52677">
        <ele>578.4</ele>
        <time>2021-07-03 15:51:28</time>
      </trkpt>
      <trkpt lat="29.10808" lon="-13.52678">
        <ele>578.4</ele>
        <time>2021-07-03 15:51:29</time>
      </trkpt>
      <trkpt lat="29.10806" lon="-13.5268">
        <ele>578.4</ele>
        <time>2021-07-03 15:51:30</time>
      </trkpt>
      <trkpt lat="29.10803" lon="-13.52681">
        <ele>578</ele>
        <time>2021-07-03 15:51:31</time>
      </trkpt>
      <trkpt lat="29.10801" lon="-13.52682">
        <ele>578</ele>
        <time>2021-07-03 15:51:32</time>
      </trkpt>
      <trkpt lat="29.10798" lon="-13.52683">
        <ele>577.8</ele>
        <time>2021-07-03 15:52:17</time>
      </trkpt>
      <trkpt lat="29.10796" lon="-13.52684">
        <ele>577.8</ele>
        <time>2021-07-03 15:52:18</time>
      </trkpt>
      <trkpt lat="29.10794" lon="-13.52685">
        <ele>578.4</ele>
        <time>2021-07-03 15:52:19</time>
      </trkpt>
      <trkpt lat="29.10791" lon="-13.52686">
        <ele>578.4</ele>
        <time>2021-07-03 15:52:20</time>
      </trkpt>
      <trkpt lat="29.10789" lon="-13.52688">
        <ele>578.4</ele>
        <time>2021-07-03 15:52:21</time>
      </trkpt>
      <trkpt lat="29.10786" lon="-13.52688">
        <ele>578</ele>
        <time>2021-07-03 15:52:22</time>
      </trkpt>
      <trkpt lat="29.10784" lon="-13.52689">
        <ele>577.6</ele>
        <time>2021-07-03 15:52:23</time>
      </trkpt>
      <trkpt lat="29.10781" lon="-13.52689">
        <ele>577.6</ele>
        <time>2021-07-03 15:52:24</time>
      </trkpt>
      <trkpt lat="29.10779" lon="-13.52689">
        <ele>577.2</ele>
        <time>2021-07-03 15:52:25</time>
      </trkpt>
      <trkpt lat="29.10776" lon="-13.5269">
        <ele>577.2</ele>
        <time>2021-07-03 15:52:26</time>
      </trkpt>
      <trkpt lat="29.10774" lon="-13.5269">
        <ele>576.8</ele>
        <time>2021-07-03 15:52:27</time>
      </trkpt>
      <trkpt lat="29.10772" lon="-13.5269">
        <ele>576.8</ele>
        <time>2021-07-03 15:52:28</time>
      </trkpt>
      <trkpt lat="29.1077" lon="-13.5269">
        <ele>576.8</ele>
        <time>2021-07-03 15:52:29</time>
      </trkpt>
      <trkpt lat="29.10768" lon="-13.52691">
        <ele>576.8</ele>
        <time>2021-07-03 15:52:30</time>
      </trkpt>
      <trkpt lat="29.10765" lon="-13.52691">
        <ele>576.8</ele>
        <time>2021-07-03 15:52:31</time>
      </trkpt>
      <trkpt lat="29.10763" lon="-13.52692">
        <ele>576.8</ele>
        <time>2021-07-03 15:52:32</time>
      </trkpt>
      <trkpt lat="29.10761" lon="-13.52693">
        <ele>576.8</ele>
        <time>2021-07-03 15:52:33</time>
      </trkpt>
      <trkpt lat="29.10758" lon="-13.52694">
        <ele>576.8</ele>
        <time>2021-07-03 15:52:34</time>
      </trkpt>
      <trkpt lat="29.10756" lon="-13.52694">
        <ele>576.8</ele>
        <time>2021-07-03 15:52:35</time>
      </trkpt>
      <trkpt lat="29.10754" lon="-13.52694">
        <ele>576.8</ele>
        <time>2021-07-03 15:52:36</time>
      </trkpt>
      <trkpt lat="29.10751" lon="-13.52694">
        <ele>576.8</ele>
        <time>2021-07-03 15:52:37</time>
      </trkpt>
      <trkpt lat="29.10749" lon="-13.52694">
        <ele>576.8</ele>
        <time>2021-07-03 15:52:38</time>
      </trkpt>
      <trkpt lat="29.10747" lon="-13.52694">
        <ele>576.8</ele>
        <time>2021-07-03 15:52:39</time>
      </trkpt>
      <trkpt lat="29.10744" lon="-13.52695">
        <ele>576.8</ele>
        <time>2021-07-03 15:52:40</time>
      </trkpt>
      <trkpt lat="29.10742" lon="-13.52695">
        <ele>577.2</ele>
        <time>2021-07-03 15:52:41</time>
      </trkpt>
      <trkpt lat="29.1074" lon="-13.52695">
        <ele>577.2</ele>
        <time>2021-07-03 15:52:42</time>
      </trkpt>
      <trkpt lat="29.10737" lon="-13.52696">
        <ele>577.4</ele>
        <time>2021-07-03 15:52:43</time>
      </trkpt>
      <trkpt lat="29.10735" lon="-13.52696">
        <ele>577.6</ele>
        <time>2021-07-03 15:52:44</time>
      </trkpt>
      <trkpt lat="29.10733" lon="-13.52697">
        <ele>577.6</ele>
        <time>2021-07-03 15:52:45</time>
      </trkpt>
      <trkpt lat="29.1073" lon="-13.52698">
        <ele>578</ele>
        <time>2021-07-03 15:52:46</time>
      </trkpt>
      <trkpt lat="29.10728" lon="-13.52698">
        <ele>578</ele>
        <time>2021-07-03 15:52:47</time>
      </trkpt>
      <trkpt lat="29.10726" lon="-13.52699">
        <ele>578.2</ele>
        <time>2021-07-03 15:52:48</time>
      </trkpt>
      <trkpt lat="29.10723" lon="-13.52699">
        <ele>578.2</ele>
        <time>2021-07-03 15:52:49</time>
      </trkpt>
      <trkpt lat="29.10721" lon="-13.527">
        <ele>578.2</ele>
        <time>2021-07-03 15:52:50</time>
      </trkpt>
      <trkpt lat="29.10719" lon="-13.52701">
        <ele>578.2</ele>
        <time>2021-07-03 15:52:51</time>
      </trkpt>
      <trkpt lat="29.10717" lon="-13.52702">
        <ele>578.6</ele>
        <time>2021-07-03 15:52:52</time>
      </trkpt>
      <trkpt lat="29.10714" lon="-13.52703">
        <ele>578.8</ele>
        <time>2021-07-03 15:52:53</time>
      </trkpt>
      <trkpt lat="29.10712" lon="-13.52704">
        <ele>578.8</ele>
        <time>2021-07-03 15:52:54</time>
      </trkpt>
      <trkpt lat="29.1071" lon="-13.52706">
        <ele>579.2</ele>
        <time>2021-07-03 15:52:55</time>
      </trkpt>
      <trkpt lat="29.10708" lon="-13.52707">
        <ele>579.6</ele>
        <time>2021-07-03 15:52:56</time>
      </trkpt>
      <trkpt lat="29.10706" lon="-13.52709">
        <ele>580</ele>
        <time>2021-07-03 15:52:57</time>
      </trkpt>
      <trkpt lat="29.10704" lon="-13.5271">
        <ele>580.2</ele>
        <time>2021-07-03 15:52:58</time>
      </trkpt>
      <trkpt lat="29.10702" lon="-13.52712">
        <ele>580.2</ele>
        <time>2021-07-03 15:52:59</time>
      </trkpt>
      <trkpt lat="29.107" lon="-13.52713">
        <ele>580.6</ele>
        <time>2021-07-03 15:53:00</time>
      </trkpt>
      <trkpt lat="29.10697" lon="-13.52715">
        <ele>580.8</ele>
        <time>2021-07-03 15:53:01</time>
      </trkpt>
      <trkpt lat="29.10695" lon="-13.52716">
        <ele>580.8</ele>
        <time>2021-07-03 15:53:02</time>
      </trkpt>
      <trkpt lat="29.10693" lon="-13.52718">
        <ele>581.4</ele>
        <time>2021-07-03 15:53:03</time>
      </trkpt>
      <trkpt lat="29.10691" lon="-13.52719">
        <ele>581.6</ele>
        <time>2021-07-03 15:53:04</time>
      </trkpt>
      <trkpt lat="29.10689" lon="-13.52721">
        <ele>581.8</ele>
        <time>2021-07-03 15:53:05</time>
      </trkpt>
      <trkpt lat="29.10687" lon="-13.52723">
        <ele>581.8</ele>
        <time>2021-07-03 15:53:06</time>
      </trkpt>
      <trkpt lat="29.10686" lon="-13.52724">
        <ele>581.8</ele>
        <time>2021-07-03 15:53:07</time>
      </trkpt>
      <trkpt lat="29.10684" lon="-13.52726">
        <ele>582.4</ele>
        <time>2021-07-03 15:53:08</time>
      </trkpt>
      <trkpt lat="29.10682" lon="-13.52728">
        <ele>582.4</ele>
        <time>2021-07-03 15:53:09</time>
      </trkpt>
      <trkpt lat="29.1068" lon="-13.52729">
        <ele>582.6</ele>
        <time>2021-07-03 15:53:10</time>
      </trkpt>
      <trkpt lat="29.10679" lon="-13.52731">
        <ele>582.6</ele>
        <time>2021-07-03 15:53:11</time>
      </trkpt>
      <trkpt lat="29.10677" lon="-13.52732">
        <ele>582.8</ele>
        <time>2021-07-03 15:53:12</time>
      </trkpt>
      <trkpt lat="29.10675" lon="-13.52733">
        <ele>582.8</ele>
        <time>2021-07-03 15:53:13</time>
      </trkpt>
      <trkpt lat="29.10673" lon="-13.52734">
        <ele>583.2</ele>
        <time>2021-07-03 15:53:14</time>
      </trkpt>
      <trkpt lat="29.10671" lon="-13.52736">
        <ele>583.4</ele>
        <time>2021-07-03 15:53:15</time>
      </trkpt>
      <trkpt lat="29.10669" lon="-13.52737">
        <ele>583.4</ele>
        <time>2021-07-03 15:53:16</time>
      </trkpt>
      <trkpt lat="29.10667" lon="-13.52739">
        <ele>583.8</ele>
        <time>2021-07-03 15:53:17</time>
      </trkpt>
      <trkpt lat="29.10665" lon="-13.5274">
        <ele>583.8</ele>
        <time>2021-07-03 15:53:18</time>
      </trkpt>
      <trkpt lat="29.10663" lon="-13.52742">
        <ele>583.8</ele>
        <time>2021-07-03 15:53:19</time>
      </trkpt>
      <trkpt lat="29.10661" lon="-13.52743">
        <ele>583.8</ele>
        <time>2021-07-03 15:53:20</time>
      </trkpt>
      <trkpt lat="29.10659" lon="-13.52745">
        <ele>583.8</ele>
        <time>2021-07-03 15:53:21</time>
      </trkpt>
      <trkpt lat="29.10656" lon="-13.52746">
        <ele>584.2</ele>
        <time>2021-07-03 15:53:22</time>
      </trkpt>
      <trkpt lat="29.10654" lon="-13.52747">
        <ele>584.4</ele>
        <time>2021-07-03 15:53:23</time>
      </trkpt>
      <trkpt lat="29.10652" lon="-13.52749">
        <ele>584.6</ele>
        <time>2021-07-03 15:53:24</time>
      </trkpt>
      <trkpt lat="29.1065" lon="-13.5275">
        <ele>584.6</ele>
        <time>2021-07-03 15:53:25</time>
      </trkpt>
      <trkpt lat="29.10647" lon="-13.52751">
        <ele>585</ele>
        <time>2021-07-03 15:53:26</time>
      </trkpt>
      <trkpt lat="29.10645" lon="-13.52752">
        <ele>585.4</ele>
        <time>2021-07-03 15:53:27</time>
      </trkpt>
      <trkpt lat="29.10643" lon="-13.52755">
        <ele>585.6</ele>
        <time>2021-07-03 15:53:28</time>
      </trkpt>
      <trkpt lat="29.10642" lon="-13.52757">
        <ele>585.8</ele>
        <time>2021-07-03 15:53:29</time>
      </trkpt>
      <trkpt lat="29.1064" lon="-13.52759">
        <ele>585.8</ele>
        <time>2021-07-03 15:53:30</time>
      </trkpt>
      <trkpt lat="29.10638" lon="-13.52761">
        <ele>585.8</ele>
        <time>2021-07-03 15:53:31</time>
      </trkpt>
      <trkpt lat="29.10637" lon="-13.52763">
        <ele>586.2</ele>
        <time>2021-07-03 15:53:32</time>
      </trkpt>
      <trkpt lat="29.10635" lon="-13.52765">
        <ele>586.2</ele>
        <time>2021-07-03 15:53:33</time>
      </trkpt>
      <trkpt lat="29.10634" lon="-13.52768">
        <ele>586.4</ele>
        <time>2021-07-03 15:53:34</time>
      </trkpt>
      <trkpt lat="29.10633" lon="-13.5277">
        <ele>586.4</ele>
        <time>2021-07-03 15:53:35</time>
      </trkpt>
      <trkpt lat="29.10632" lon="-13.52772">
        <ele>586.4</ele>
        <time>2021-07-03 15:53:36</time>
      </trkpt>
      <trkpt lat="29.10632" lon="-13.52774">
        <ele>586.8</ele>
        <time>2021-07-03 15:53:37</time>
      </trkpt>
      <trkpt lat="29.10631" lon="-13.52777">
        <ele>586.8</ele>
        <time>2021-07-03 15:53:38</time>
      </trkpt>
      <trkpt lat="29.1063" lon="-13.52779">
        <ele>586.8</ele>
        <time>2021-07-03 15:53:39</time>
      </trkpt>
      <trkpt lat="29.10629" lon="-13.52781">
        <ele>586.8</ele>
        <time>2021-07-03 15:53:40</time>
      </trkpt>
      <trkpt lat="29.10628" lon="-13.52783">
        <ele>586.8</ele>
        <time>2021-07-03 15:53:41</time>
      </trkpt>
      <trkpt lat="29.10627" lon="-13.52786">
        <ele>586.8</ele>
        <time>2021-07-03 15:53:42</time>
      </trkpt>
      <trkpt lat="29.10627" lon="-13.52788">
        <ele>586.8</ele>
        <time>2021-07-03 15:53:43</time>
      </trkpt>
      <trkpt lat="29.10626" lon="-13.5279">
        <ele>586.8</ele>
        <time>2021-07-03 15:53:44</time>
      </trkpt>
      <trkpt lat="29.10625" lon="-13.52792">
        <ele>586.8</ele>
        <time>2021-07-03 15:53:45</time>
      </trkpt>
      <trkpt lat="29.10625" lon="-13.52795">
        <ele>586.8</ele>
        <time>2021-07-03 15:53:46</time>
      </trkpt>
      <trkpt lat="29.10625" lon="-13.52798">
        <ele>586.8</ele>
        <time>2021-07-03 15:53:47</time>
      </trkpt>
      <trkpt lat="29.10624" lon="-13.52801">
        <ele>586.8</ele>
        <time>2021-07-03 15:53:48</time>
      </trkpt>
      <trkpt lat="29.10624" lon="-13.52804">
        <ele>586.8</ele>
        <time>2021-07-03 15:53:49</time>
      </trkpt>
      <trkpt lat="29.10624" lon="-13.52808">
        <ele>586.8</ele>
        <time>2021-07-03 15:53:50</time>
      </trkpt>
      <trkpt lat="29.10624" lon="-13.52811">
        <ele>586.8</ele>
        <time>2021-07-03 15:53:51</time>
      </trkpt>
      <trkpt lat="29.10623" lon="-13.52814">
        <ele>586.8</ele>
        <time>2021-07-03 15:53:52</time>
      </trkpt>
      <trkpt lat="29.10623" lon="-13.52817">
        <ele>586.8</ele>
        <time>2021-07-03 15:53:53</time>
      </trkpt>
      <trkpt lat="29.10622" lon="-13.52819">
        <ele>587</ele>
        <time>2021-07-03 15:53:54</time>
      </trkpt>
      <trkpt lat="29.10621" lon="-13.52822">
        <ele>587</ele>
        <time>2021-07-03 15:53:55</time>
      </trkpt>
      <trkpt lat="29.10621" lon="-13.52825">
        <ele>587</ele>
        <time>2021-07-03 15:53:56</time>
      </trkpt>
      <trkpt lat="29.10621" lon="-13.52827">
        <ele>587</ele>
        <time>2021-07-03 15:53:57</time>
      </trkpt>
      <trkpt lat="29.10622" lon="-13.52828">
        <ele>587</ele>
        <time>2021-07-03 15:53:58</time>
      </trkpt>
      <trkpt lat="29.10623" lon="-13.52829">
        <ele>587</ele>
        <time>2021-07-03 15:53:59</time>
      </trkpt>
      <trkpt lat="29.10625" lon="-13.5283">
        <ele>587.4</ele>
        <time>2021-07-03 15:54:00</time>
      </trkpt>
      <trkpt lat="29.10626" lon="-13.5283">
        <ele>587.4</ele>
        <time>2021-07-03 15:54:01</time>
      </trkpt>
      <trkpt lat="29.10628" lon="-13.5283">
        <ele>587.4</ele>
        <time>2021-07-03 15:54:02</time>
      </trkpt>
      <trkpt lat="29.10629" lon="-13.52829">
        <ele>587.4</ele>
        <time>2021-07-03 15:54:03</time>
      </trkpt>
      <trkpt lat="29.10631" lon="-13.52828">
        <ele>587.4</ele>
        <time>2021-07-03 15:54:04</time>
      </trkpt>
      <trkpt lat="29.10632" lon="-13.52827">
        <ele>587.4</ele>
        <time>2021-07-03 15:54:05</time>
      </trkpt>
      <trkpt lat="29.10633" lon="-13.52825">
        <ele>587.4</ele>
        <time>2021-07-03 15:54:06</time>
      </trkpt>
      <trkpt lat="29.10633" lon="-13.52824">
        <ele>587.4</ele>
        <time>2021-07-03 15:54:07</time>
      </trkpt>
      <trkpt lat="29.10633" lon="-13.52823">
        <ele>587.2</ele>
        <time>2021-07-03 15:54:08</time>
      </trkpt>
      <trkpt lat="29.10633" lon="-13.52823">
        <ele>587.2</ele>
        <time>2021-07-03 15:54:09</time>
      </trkpt>
      <trkpt lat="29.10633" lon="-13.52823">
        <ele>588</ele>
        <time>2021-07-03 15:54:10</time>
      </trkpt>
      <trkpt lat="29.10634" lon="-13.52823">
        <ele>588</ele>
        <time>2021-07-03 15:54:11</time>
      </trkpt>
      <trkpt lat="29.10634" lon="-13.52823">
        <ele>588</ele>
        <time>2021-07-03 15:54:12</time>
      </trkpt>
      <trkpt lat="29.10634" lon="-13.52822">
        <ele>588</ele>
        <time>2021-07-03 15:54:13</time>
      </trkpt>
      <trkpt lat="29.10634" lon="-13.52822">
        <ele>588</ele>
        <time>2021-07-03 15:54:14</time>
      </trkpt>
      <trkpt lat="29.10634" lon="-13.52822">
        <ele>588</ele>
        <time>2021-07-03 15:54:15</time>
      </trkpt>
      <trkpt lat="29.10632" lon="-13.52822">
        <ele>587.6</ele>
        <time>2021-07-03 15:54:16</time>
      </trkpt>
      <trkpt lat="29.10632" lon="-13.52821">
        <ele>586.2</ele>
        <time>2021-07-03 15:54:17</time>
      </trkpt>
      <trkpt lat="29.10632" lon="-13.52821">
        <ele>585.8</ele>
        <time>2021-07-03 15:54:18</time>
      </trkpt>
      <trkpt lat="29.10632" lon="-13.5282">
        <ele>587</ele>
        <time>2021-07-03 15:54:19</time>
      </trkpt>
      <trkpt lat="29.1063" lon="-13.52819">
        <ele>587</ele>
        <time>2021-07-03 15:54:20</time>
      </trkpt>
      <trkpt lat="29.10628" lon="-13.52817">
        <ele>586.8</ele>
        <time>2021-07-03 15:54:21</time>
      </trkpt>
      <trkpt lat="29.10626" lon="-13.52815">
        <ele>587.4</ele>
        <time>2021-07-03 15:54:22</time>
      </trkpt>
      <trkpt lat="29.10618" lon="-13.52811">
        <ele>586</ele>
        <time>2021-07-03 15:54:23</time>
      </trkpt>
      <trkpt lat="29.10615" lon="-13.5281">
        <ele>585.6</ele>
        <time>2021-07-03 15:54:24</time>
      </trkpt>
      <trkpt lat="29.10612" lon="-13.52811">
        <ele>585.6</ele>
        <time>2021-07-03 15:54:25</time>
      </trkpt>
      <trkpt lat="29.10609" lon="-13.52812">
        <ele>585.6</ele>
        <time>2021-07-03 15:54:26</time>
      </trkpt>
      <trkpt lat="29.10607" lon="-13.52814">
        <ele>585.6</ele>
        <time>2021-07-03 15:54:27</time>
      </trkpt>
      <trkpt lat="29.10605" lon="-13.52816">
        <ele>585.4</ele>
        <time>2021-07-03 15:54:28</time>
      </trkpt>
      <trkpt lat="29.10604" lon="-13.52817">
        <ele>585.4</ele>
        <time>2021-07-03 15:54:29</time>
      </trkpt>
      <trkpt lat="29.10603" lon="-13.52819">
        <ele>585.4</ele>
        <time>2021-07-03 15:54:30</time>
      </trkpt>
      <trkpt lat="29.10602" lon="-13.5282">
        <ele>585.4</ele>
        <time>2021-07-03 15:54:31</time>
      </trkpt>
      <trkpt lat="29.10601" lon="-13.52821">
        <ele>585.8</ele>
        <time>2021-07-03 15:54:32</time>
      </trkpt>
      <trkpt lat="29.106" lon="-13.52822">
        <ele>585.8</ele>
        <time>2021-07-03 15:54:33</time>
      </trkpt>
      <trkpt lat="29.10599" lon="-13.52824">
        <ele>585.8</ele>
        <time>2021-07-03 15:54:34</time>
      </trkpt>
      <trkpt lat="29.10598" lon="-13.52825">
        <ele>585.8</ele>
        <time>2021-07-03 15:54:35</time>
      </trkpt>
      <trkpt lat="29.10597" lon="-13.52827">
        <ele>585.8</ele>
        <time>2021-07-03 15:54:36</time>
      </trkpt>
      <trkpt lat="29.10595" lon="-13.52828">
        <ele>585.4</ele>
        <time>2021-07-03 15:54:37</time>
      </trkpt>
      <trkpt lat="29.10593" lon="-13.5283">
        <ele>585.4</ele>
        <time>2021-07-03 15:54:38</time>
      </trkpt>
      <trkpt lat="29.1059" lon="-13.52832">
        <ele>585.2</ele>
        <time>2021-07-03 15:54:39</time>
      </trkpt>
      <trkpt lat="29.10588" lon="-13.52834">
        <ele>585.2</ele>
        <time>2021-07-03 15:54:40</time>
      </trkpt>
      <trkpt lat="29.10586" lon="-13.52836">
        <ele>585.2</ele>
        <time>2021-07-03 15:54:41</time>
      </trkpt>
      <trkpt lat="29.10583" lon="-13.52838">
        <ele>585</ele>
        <time>2021-07-03 15:54:42</time>
      </trkpt>
      <trkpt lat="29.1058" lon="-13.5284">
        <ele>585</ele>
        <time>2021-07-03 15:54:43</time>
      </trkpt>
      <trkpt lat="29.10578" lon="-13.52842">
        <ele>584.8</ele>
        <time>2021-07-03 15:54:44</time>
      </trkpt>
      <trkpt lat="29.10575" lon="-13.52844">
        <ele>584.8</ele>
        <time>2021-07-03 15:54:45</time>
      </trkpt>
      <trkpt lat="29.10571" lon="-13.52846">
        <ele>584.4</ele>
        <time>2021-07-03 15:54:46</time>
      </trkpt>
      <trkpt lat="29.10568" lon="-13.52849">
        <ele>584</ele>
        <time>2021-07-03 15:54:47</time>
      </trkpt>
      <trkpt lat="29.10565" lon="-13.52852">
        <ele>583.6</ele>
        <time>2021-07-03 15:54:48</time>
      </trkpt>
      <trkpt lat="29.10562" lon="-13.52854">
        <ele>583.2</ele>
        <time>2021-07-03 15:54:49</time>
      </trkpt>
      <trkpt lat="29.10559" lon="-13.52858">
        <ele>582.4</ele>
        <time>2021-07-03 15:54:50</time>
      </trkpt>
      <trkpt lat="29.10557" lon="-13.52861">
        <ele>582.4</ele>
        <time>2021-07-03 15:54:51</time>
      </trkpt>
      <trkpt lat="29.10554" lon="-13.52864">
        <ele>581.4</ele>
        <time>2021-07-03 15:54:52</time>
      </trkpt>
      <trkpt lat="29.10552" lon="-13.52868">
        <ele>580.8</ele>
        <time>2021-07-03 15:54:53</time>
      </trkpt>
      <trkpt lat="29.1055" lon="-13.52872">
        <ele>580.6</ele>
        <time>2021-07-03 15:54:54</time>
      </trkpt>
      <trkpt lat="29.10548" lon="-13.52875">
        <ele>580.2</ele>
        <time>2021-07-03 15:54:55</time>
      </trkpt>
      <trkpt lat="29.10545" lon="-13.52879">
        <ele>579.8</ele>
        <time>2021-07-03 15:54:56</time>
      </trkpt>
      <trkpt lat="29.10542" lon="-13.52882">
        <ele>579.8</ele>
        <time>2021-07-03 15:54:57</time>
      </trkpt>
      <trkpt lat="29.10538" lon="-13.52886">
        <ele>579.4</ele>
        <time>2021-07-03 15:54:58</time>
      </trkpt>
      <trkpt lat="29.10535" lon="-13.52889">
        <ele>579</ele>
        <time>2021-07-03 15:54:59</time>
      </trkpt>
      <trkpt lat="29.10532" lon="-13.52893">
        <ele>579</ele>
        <time>2021-07-03 15:55:00</time>
      </trkpt>
      <trkpt lat="29.10529" lon="-13.52897">
        <ele>578.6</ele>
        <time>2021-07-03 15:55:01</time>
      </trkpt>
      <trkpt lat="29.10527" lon="-13.529">
        <ele>578.6</ele>
        <time>2021-07-03 15:55:02</time>
      </trkpt>
      <trkpt lat="29.10524" lon="-13.52903">
        <ele>578.2</ele>
        <time>2021-07-03 15:55:03</time>
      </trkpt>
      <trkpt lat="29.10521" lon="-13.52906">
        <ele>578.2</ele>
        <time>2021-07-03 15:55:04</time>
      </trkpt>
      <trkpt lat="29.10518" lon="-13.52909">
        <ele>578.2</ele>
        <time>2021-07-03 15:55:05</time>
      </trkpt>
      <trkpt lat="29.10516" lon="-13.52912">
        <ele>577.8</ele>
        <time>2021-07-03 15:55:06</time>
      </trkpt>
      <trkpt lat="29.10514" lon="-13.52915">
        <ele>577.8</ele>
        <time>2021-07-03 15:55:35</time>
      </trkpt>
      <trkpt lat="29.10511" lon="-13.52918">
        <ele>577.8</ele>
        <time>2021-07-03 15:55:36</time>
      </trkpt>
      <trkpt lat="29.10509" lon="-13.52921">
        <ele>577.8</ele>
        <time>2021-07-03 15:55:37</time>
      </trkpt>
      <trkpt lat="29.10507" lon="-13.52924">
        <ele>577.8</ele>
        <time>2021-07-03 15:55:38</time>
      </trkpt>
      <trkpt lat="29.10506" lon="-13.52927">
        <ele>578</ele>
        <time>2021-07-03 15:55:39</time>
      </trkpt>
      <trkpt lat="29.10505" lon="-13.5293">
        <ele>577.6</ele>
        <time>2021-07-03 15:55:40</time>
      </trkpt>
      <trkpt lat="29.10504" lon="-13.52933">
        <ele>577.2</ele>
        <time>2021-07-03 16:07:45</time>
      </trkpt>
      <trkpt lat="29.10502" lon="-13.52937">
        <ele>576.8</ele>
        <time>2021-07-03 16:07:46</time>
      </trkpt>
      <trkpt lat="29.10501" lon="-13.5294">
        <ele>576.4</ele>
        <time>2021-07-03 16:07:47</time>
      </trkpt>
      <trkpt lat="29.10501" lon="-13.52944">
        <ele>576.8</ele>
        <time>2021-07-03 16:07:48</time>
      </trkpt>
      <trkpt lat="29.105" lon="-13.52948">
        <ele>576.4</ele>
        <time>2021-07-03 16:07:49</time>
      </trkpt>
      <trkpt lat="29.10499" lon="-13.52952">
        <ele>575.8</ele>
        <time>2021-07-03 16:07:50</time>
      </trkpt>
      <trkpt lat="29.10498" lon="-13.52956">
        <ele>575.4</ele>
        <time>2021-07-03 16:07:51</time>
      </trkpt>
      <trkpt lat="29.10497" lon="-13.52961">
        <ele>575</ele>
        <time>2021-07-03 16:08:02</time>
      </trkpt>
      <trkpt lat="29.10496" lon="-13.52966">
        <ele>575</ele>
        <time>2021-07-03 16:08:03</time>
      </trkpt>
      <trkpt lat="29.10495" lon="-13.52971">
        <ele>574.6</ele>
        <time>2021-07-03 16:08:04</time>
      </trkpt>
      <trkpt lat="29.10493" lon="-13.52976">
        <ele>574.4</ele>
        <time>2021-07-03 16:08:05</time>
      </trkpt>
      <trkpt lat="29.10491" lon="-13.5298">
        <ele>574.4</ele>
        <time>2021-07-03 16:08:06</time>
      </trkpt>
      <trkpt lat="29.10489" lon="-13.52984">
        <ele>574</ele>
        <time>2021-07-03 16:08:07</time>
      </trkpt>
      <trkpt lat="29.10486" lon="-13.52988">
        <ele>573.8</ele>
        <time>2021-07-03 16:08:08</time>
      </trkpt>
      <trkpt lat="29.10483" lon="-13.52992">
        <ele>574.2</ele>
        <time>2021-07-03 16:08:09</time>
      </trkpt>
      <trkpt lat="29.10479" lon="-13.52995">
        <ele>573.6</ele>
        <time>2021-07-03 16:08:10</time>
      </trkpt>
      <trkpt lat="29.10475" lon="-13.52998">
        <ele>573</ele>
        <time>2021-07-03 16:08:11</time>
      </trkpt>
      <trkpt lat="29.1047" lon="-13.53">
        <ele>572.6</ele>
        <time>2021-07-03 16:08:12</time>
      </trkpt>
      <trkpt lat="29.10466" lon="-13.53001">
        <ele>572</ele>
        <time>2021-07-03 16:08:13</time>
      </trkpt>
      <trkpt lat="29.1046" lon="-13.53002">
        <ele>571.6</ele>
        <time>2021-07-03 16:08:14</time>
      </trkpt>
      <trkpt lat="29.10455" lon="-13.53003">
        <ele>571</ele>
        <time>2021-07-03 16:08:15</time>
      </trkpt>
      <trkpt lat="29.10449" lon="-13.53004">
        <ele>570.2</ele>
        <time>2021-07-03 16:08:16</time>
      </trkpt>
      <trkpt lat="29.10443" lon="-13.53006">
        <ele>569.4</ele>
        <time>2021-07-03 16:08:17</time>
      </trkpt>
      <trkpt lat="29.10437" lon="-13.53007">
        <ele>568.8</ele>
        <time>2021-07-03 16:08:18</time>
      </trkpt>
      <trkpt lat="29.10432" lon="-13.53009">
        <ele>567.8</ele>
        <time>2021-07-03 16:08:19</time>
      </trkpt>
      <trkpt lat="29.10426" lon="-13.53011">
        <ele>567</ele>
        <time>2021-07-03 16:08:20</time>
      </trkpt>
      <trkpt lat="29.1042" lon="-13.53012">
        <ele>566.4</ele>
        <time>2021-07-03 16:08:21</time>
      </trkpt>
      <trkpt lat="29.10414" lon="-13.53013">
        <ele>565.6</ele>
        <time>2021-07-03 16:08:22</time>
      </trkpt>
      <trkpt lat="29.10408" lon="-13.53015">
        <ele>565</ele>
        <time>2021-07-03 16:08:23</time>
      </trkpt>
      <trkpt lat="29.10401" lon="-13.53016">
        <ele>564.2</ele>
        <time>2021-07-03 16:08:24</time>
      </trkpt>
      <trkpt lat="29.10395" lon="-13.53017">
        <ele>563.6</ele>
        <time>2021-07-03 16:08:25</time>
      </trkpt>
      <trkpt lat="29.10389" lon="-13.53019">
        <ele>563</ele>
        <time>2021-07-03 16:08:26</time>
      </trkpt>
      <trkpt lat="29.10382" lon="-13.53021">
        <ele>563</ele>
        <time>2021-07-03 16:08:27</time>
      </trkpt>
      <trkpt lat="29.10376" lon="-13.53023">
        <ele>562.6</ele>
        <time>2021-07-03 16:08:28</time>
      </trkpt>
      <trkpt lat="29.1037" lon="-13.53024">
        <ele>562</ele>
        <time>2021-07-03 16:08:29</time>
      </trkpt>
      <trkpt lat="29.10364" lon="-13.53026">
        <ele>561.4</ele>
        <time>2021-07-03 16:08:30</time>
      </trkpt>
      <trkpt lat="29.10357" lon="-13.53027">
        <ele>560.8</ele>
        <time>2021-07-03 16:08:31</time>
      </trkpt>
      <trkpt lat="29.10351" lon="-13.53029">
        <ele>560.2</ele>
        <time>2021-07-03 16:08:32</time>
      </trkpt>
      <trkpt lat="29.10344" lon="-13.5303">
        <ele>560.2</ele>
        <time>2021-07-03 16:08:33</time>
      </trkpt>
      <trkpt lat="29.10338" lon="-13.53032">
        <ele>559.6</ele>
        <time>2021-07-03 16:08:34</time>
      </trkpt>
      <trkpt lat="29.10331" lon="-13.53034">
        <ele>559.2</ele>
        <time>2021-07-03 16:08:35</time>
      </trkpt>
      <trkpt lat="29.10325" lon="-13.53036">
        <ele>558.4</ele>
        <time>2021-07-03 16:08:36</time>
      </trkpt>
      <trkpt lat="29.10319" lon="-13.53037">
        <ele>557.8</ele>
        <time>2021-07-03 16:08:37</time>
      </trkpt>
      <trkpt lat="29.10312" lon="-13.53039">
        <ele>557.8</ele>
        <time>2021-07-03 16:08:38</time>
      </trkpt>
      <trkpt lat="29.10305" lon="-13.5304">
        <ele>557</ele>
        <time>2021-07-03 16:08:39</time>
      </trkpt>
      <trkpt lat="29.10298" lon="-13.53042">
        <ele>556.8</ele>
        <time>2021-07-03 16:08:40</time>
      </trkpt>
      <trkpt lat="29.1029" lon="-13.53043">
        <ele>556.4</ele>
        <time>2021-07-03 16:08:41</time>
      </trkpt>
      <trkpt lat="29.10283" lon="-13.53046">
        <ele>556</ele>
        <time>2021-07-03 16:08:42</time>
      </trkpt>
      <trkpt lat="29.10276" lon="-13.53048">
        <ele>555.6</ele>
        <time>2021-07-03 16:08:43</time>
      </trkpt>
      <trkpt lat="29.10268" lon="-13.53049">
        <ele>555.2</ele>
        <time>2021-07-03 16:08:44</time>
      </trkpt>
      <trkpt lat="29.1026" lon="-13.5305">
        <ele>554.8</ele>
        <time>2021-07-03 16:08:45</time>
      </trkpt>
      <trkpt lat="29.10252" lon="-13.53052">
        <ele>554.4</ele>
        <time>2021-07-03 16:08:46</time>
      </trkpt>
      <trkpt lat="29.10244" lon="-13.53053">
        <ele>554.4</ele>
        <time>2021-07-03 16:08:47</time>
      </trkpt>
      <trkpt lat="29.10236" lon="-13.53054">
        <ele>553.8</ele>
        <time>2021-07-03 16:08:48</time>
      </trkpt>
      <trkpt lat="29.10229" lon="-13.53056">
        <ele>553.4</ele>
        <time>2021-07-03 16:08:49</time>
      </trkpt>
      <trkpt lat="29.10222" lon="-13.53057">
        <ele>552.6</ele>
        <time>2021-07-03 16:08:50</time>
      </trkpt>
      <trkpt lat="29.10216" lon="-13.53059">
        <ele>552.2</ele>
        <time>2021-07-03 16:08:51</time>
      </trkpt>
      <trkpt lat="29.1021" lon="-13.5306">
        <ele>551.8</ele>
        <time>2021-07-03 16:08:52</time>
      </trkpt>
      <trkpt lat="29.10204" lon="-13.53061">
        <ele>551.8</ele>
        <time>2021-07-03 16:08:53</time>
      </trkpt>
      <trkpt lat="29.10198" lon="-13.53063">
        <ele>551.4</ele>
        <time>2021-07-03 16:08:54</time>
      </trkpt>
      <trkpt lat="29.10193" lon="-13.53064">
        <ele>551</ele>
        <time>2021-07-03 16:08:55</time>
      </trkpt>
      <trkpt lat="29.10187" lon="-13.53065">
        <ele>550.6</ele>
        <time>2021-07-03 16:08:56</time>
      </trkpt>
      <trkpt lat="29.10182" lon="-13.53067">
        <ele>550.4</ele>
        <time>2021-07-03 16:08:57</time>
      </trkpt>
      <trkpt lat="29.10176" lon="-13.53069">
        <ele>550.4</ele>
        <time>2021-07-03 16:08:58</time>
      </trkpt>
      <trkpt lat="29.10171" lon="-13.53071">
        <ele>550</ele>
        <time>2021-07-03 16:08:59</time>
      </trkpt>
      <trkpt lat="29.10165" lon="-13.53073">
        <ele>550</ele>
        <time>2021-07-03 16:09:00</time>
      </trkpt>
      <trkpt lat="29.10159" lon="-13.53075">
        <ele>549.6</ele>
        <time>2021-07-03 16:09:01</time>
      </trkpt>
      <trkpt lat="29.10153" lon="-13.53078">
        <ele>549.6</ele>
        <time>2021-07-03 16:09:02</time>
      </trkpt>
      <trkpt lat="29.10148" lon="-13.5308">
        <ele>550</ele>
        <time>2021-07-03 16:09:03</time>
      </trkpt>
      <trkpt lat="29.10142" lon="-13.53081">
        <ele>549.6</ele>
        <time>2021-07-03 16:09:04</time>
      </trkpt>
      <trkpt lat="29.10137" lon="-13.53084">
        <ele>549.2</ele>
        <time>2021-07-03 16:09:05</time>
      </trkpt>
      <trkpt lat="29.10132" lon="-13.53087">
        <ele>548.8</ele>
        <time>2021-07-03 16:09:06</time>
      </trkpt>
      <trkpt lat="29.10126" lon="-13.53089">
        <ele>548.2</ele>
        <time>2021-07-03 16:09:07</time>
      </trkpt>
      <trkpt lat="29.10121" lon="-13.53092">
        <ele>548</ele>
        <time>2021-07-03 16:09:08</time>
      </trkpt>
      <trkpt lat="29.10115" lon="-13.53095">
        <ele>547.6</ele>
        <time>2021-07-03 16:09:09</time>
      </trkpt>
      <trkpt lat="29.1011" lon="-13.53097">
        <ele>547</ele>
        <time>2021-07-03 16:09:10</time>
      </trkpt>
      <trkpt lat="29.10105" lon="-13.531">
        <ele>546.4</ele>
        <time>2021-07-03 16:09:11</time>
      </trkpt>
      <trkpt lat="29.101" lon="-13.53103">
        <ele>546.2</ele>
        <time>2021-07-03 16:09:12</time>
      </trkpt>
      <trkpt lat="29.10095" lon="-13.53106">
        <ele>545.6</ele>
        <time>2021-07-03 16:09:13</time>
      </trkpt>
      <trkpt lat="29.1009" lon="-13.53109">
        <ele>545</ele>
        <time>2021-07-03 16:09:14</time>
      </trkpt>
      <trkpt lat="29.10086" lon="-13.53112">
        <ele>545</ele>
        <time>2021-07-03 16:09:15</time>
      </trkpt>
      <trkpt lat="29.10083" lon="-13.53116">
        <ele>544</ele>
        <time>2021-07-03 16:09:16</time>
      </trkpt>
      <trkpt lat="29.10079" lon="-13.53119">
        <ele>543.4</ele>
        <time>2021-07-03 16:09:17</time>
      </trkpt>
      <trkpt lat="29.10076" lon="-13.53122">
        <ele>542.8</ele>
        <time>2021-07-03 16:09:18</time>
      </trkpt>
      <trkpt lat="29.10072" lon="-13.53125">
        <ele>542</ele>
        <time>2021-07-03 16:09:19</time>
      </trkpt>
      <trkpt lat="29.10069" lon="-13.53127">
        <ele>541.2</ele>
        <time>2021-07-03 16:09:20</time>
      </trkpt>
      <trkpt lat="29.10066" lon="-13.53129">
        <ele>540.6</ele>
        <time>2021-07-03 16:09:21</time>
      </trkpt>
      <trkpt lat="29.10063" lon="-13.53131">
        <ele>540</ele>
        <time>2021-07-03 16:09:22</time>
      </trkpt>
      <trkpt lat="29.1006" lon="-13.53134">
        <ele>539.6</ele>
        <time>2021-07-03 16:09:23</time>
      </trkpt>
      <trkpt lat="29.10057" lon="-13.53136">
        <ele>538.6</ele>
        <time>2021-07-03 16:09:24</time>
      </trkpt>
      <trkpt lat="29.10055" lon="-13.53138">
        <ele>537.8</ele>
        <time>2021-07-03 16:09:25</time>
      </trkpt>
      <trkpt lat="29.10053" lon="-13.53141">
        <ele>537.4</ele>
        <time>2021-07-03 16:09:26</time>
      </trkpt>
      <trkpt lat="29.10051" lon="-13.53143">
        <ele>536.6</ele>
        <time>2021-07-03 16:09:27</time>
      </trkpt>
      <trkpt lat="29.10049" lon="-13.53146">
        <ele>536</ele>
        <time>2021-07-03 16:09:28</time>
      </trkpt>
      <trkpt lat="29.10047" lon="-13.53148">
        <ele>536</ele>
        <time>2021-07-03 16:09:29</time>
      </trkpt>
      <trkpt lat="29.10045" lon="-13.53151">
        <ele>535.4</ele>
        <time>2021-07-03 16:09:30</time>
      </trkpt>
      <trkpt lat="29.10042" lon="-13.53154">
        <ele>535</ele>
        <time>2021-07-03 16:09:31</time>
      </trkpt>
      <trkpt lat="29.10038" lon="-13.53157">
        <ele>534.4</ele>
        <time>2021-07-03 16:09:32</time>
      </trkpt>
      <trkpt lat="29.10034" lon="-13.5316">
        <ele>534</ele>
        <time>2021-07-03 16:09:33</time>
      </trkpt>
      <trkpt lat="29.1003" lon="-13.53162">
        <ele>533.4</ele>
        <time>2021-07-03 16:09:34</time>
      </trkpt>
      <trkpt lat="29.10026" lon="-13.53165">
        <ele>533</ele>
        <time>2021-07-03 16:09:35</time>
      </trkpt>
      <trkpt lat="29.10022" lon="-13.53168">
        <ele>532.4</ele>
        <time>2021-07-03 16:09:36</time>
      </trkpt>
      <trkpt lat="29.10017" lon="-13.5317">
        <ele>532</ele>
        <time>2021-07-03 16:09:37</time>
      </trkpt>
      <trkpt lat="29.10012" lon="-13.53172">
        <ele>531.4</ele>
        <time>2021-07-03 16:09:38</time>
      </trkpt>
      <trkpt lat="29.10008" lon="-13.53176">
        <ele>530.8</ele>
        <time>2021-07-03 16:09:39</time>
      </trkpt>
      <trkpt lat="29.10004" lon="-13.53179">
        <ele>530.4</ele>
        <time>2021-07-03 16:09:40</time>
      </trkpt>
      <trkpt lat="29.09999" lon="-13.53182">
        <ele>529.8</ele>
        <time>2021-07-03 16:09:41</time>
      </trkpt>
      <trkpt lat="29.09994" lon="-13.53185">
        <ele>529.2</ele>
        <time>2021-07-03 16:09:42</time>
      </trkpt>
      <trkpt lat="29.09989" lon="-13.53188">
        <ele>528.6</ele>
        <time>2021-07-03 16:09:43</time>
      </trkpt>
      <trkpt lat="29.09984" lon="-13.53191">
        <ele>528</ele>
        <time>2021-07-03 16:09:44</time>
      </trkpt>
      <trkpt lat="29.09979" lon="-13.53194">
        <ele>527.6</ele>
        <time>2021-07-03 16:09:45</time>
      </trkpt>
      <trkpt lat="29.09974" lon="-13.53196">
        <ele>527</ele>
        <time>2021-07-03 16:09:46</time>
      </trkpt>
      <trkpt lat="29.09969" lon="-13.53198">
        <ele>526.6</ele>
        <time>2021-07-03 16:09:47</time>
      </trkpt>
      <trkpt lat="29.09964" lon="-13.532">
        <ele>526.2</ele>
        <time>2021-07-03 16:09:48</time>
      </trkpt>
      <trkpt lat="29.09958" lon="-13.53201">
        <ele>525.6</ele>
        <time>2021-07-03 16:09:49</time>
      </trkpt>
      <trkpt lat="29.09951" lon="-13.53204">
        <ele>525.2</ele>
        <time>2021-07-03 16:09:50</time>
      </trkpt>
      <trkpt lat="29.09945" lon="-13.53204">
        <ele>524.6</ele>
        <time>2021-07-03 16:09:51</time>
      </trkpt>
      <trkpt lat="29.09937" lon="-13.53206">
        <ele>524.2</ele>
        <time>2021-07-03 16:09:52</time>
      </trkpt>
      <trkpt lat="29.09929" lon="-13.53206">
        <ele>523.6</ele>
        <time>2021-07-03 16:09:53</time>
      </trkpt>
      <trkpt lat="29.0992" lon="-13.53205">
        <ele>523</ele>
        <time>2021-07-03 16:09:54</time>
      </trkpt>
      <trkpt lat="29.09912" lon="-13.53205">
        <ele>522.4</ele>
        <time>2021-07-03 16:09:55</time>
      </trkpt>
      <trkpt lat="29.09904" lon="-13.53203">
        <ele>521.8</ele>
        <time>2021-07-03 16:09:56</time>
      </trkpt>
      <trkpt lat="29.09897" lon="-13.53201">
        <ele>521.2</ele>
        <time>2021-07-03 16:09:57</time>
      </trkpt>
      <trkpt lat="29.09889" lon="-13.53199">
        <ele>520.6</ele>
        <time>2021-07-03 16:09:58</time>
      </trkpt>
      <trkpt lat="29.09882" lon="-13.53197">
        <ele>520</ele>
        <time>2021-07-03 16:09:59</time>
      </trkpt>
      <trkpt lat="29.09875" lon="-13.53194">
        <ele>519.4</ele>
        <time>2021-07-03 16:10:00</time>
      </trkpt>
      <trkpt lat="29.09867" lon="-13.53191">
        <ele>518.8</ele>
        <time>2021-07-03 16:10:01</time>
      </trkpt>
      <trkpt lat="29.0986" lon="-13.53189">
        <ele>518</ele>
        <time>2021-07-03 16:10:02</time>
      </trkpt>
      <trkpt lat="29.09856" lon="-13.53188">
        <ele>517.6</ele>
        <time>2021-07-03 16:10:03</time>
      </trkpt>
      <trkpt lat="29.09852" lon="-13.53187">
        <ele>517.2</ele>
        <time>2021-07-03 16:10:04</time>
      </trkpt>
      <trkpt lat="29.09851" lon="-13.53187">
        <ele>516.8</ele>
        <time>2021-07-03 16:10:05</time>
      </trkpt>
      <trkpt lat="29.09851" lon="-13.53186">
        <ele>516.6</ele>
        <time>2021-07-03 16:10:06</time>
      </trkpt>
      <trkpt lat="29.09851" lon="-13.53185">
        <ele>516.6</ele>
        <time>2021-07-03 16:10:07</time>
      </trkpt>
      <trkpt lat="29.09851" lon="-13.53185">
        <ele>516.4</ele>
        <time>2021-07-03 16:10:08</time>
      </trkpt>
      <trkpt lat="29.09852" lon="-13.53185">
        <ele>516.4</ele>
        <time>2021-07-03 16:10:09</time>
      </trkpt>
      <trkpt lat="29.09852" lon="-13.53185">
        <ele>516.4</ele>
        <time>2021-07-03 16:10:10</time>
      </trkpt>
      <trkpt lat="29.09851" lon="-13.53184">
        <ele>515.2</ele>
        <time>2021-07-03 16:10:11</time>
      </trkpt>
      <trkpt lat="29.09849" lon="-13.53184">
        <ele>515.2</ele>
        <time>2021-07-03 16:10:12</time>
      </trkpt>
      <trkpt lat="29.09846" lon="-13.53183">
        <ele>515.2</ele>
        <time>2021-07-03 16:10:13</time>
      </trkpt>
      <trkpt lat="29.09843" lon="-13.53182">
        <ele>515</ele>
        <time>2021-07-03 16:10:14</time>
      </trkpt>
      <trkpt lat="29.0984" lon="-13.53182">
        <ele>514.6</ele>
        <time>2021-07-03 16:10:15</time>
      </trkpt>
      <trkpt lat="29.09837" lon="-13.53181">
        <ele>514.4</ele>
        <time>2021-07-03 16:10:16</time>
      </trkpt>
      <trkpt lat="29.09833" lon="-13.53181">
        <ele>514</ele>
        <time>2021-07-03 16:10:17</time>
      </trkpt>
      <trkpt lat="29.09829" lon="-13.5318">
        <ele>513.8</ele>
        <time>2021-07-03 16:10:18</time>
      </trkpt>
      <trkpt lat="29.09824" lon="-13.5318">
        <ele>513.8</ele>
        <time>2021-07-03 16:10:19</time>
      </trkpt>
      <trkpt lat="29.09819" lon="-13.53179">
        <ele>513.4</ele>
        <time>2021-07-03 16:10:20</time>
      </trkpt>
      <trkpt lat="29.09814" lon="-13.53178">
        <ele>513.4</ele>
        <time>2021-07-03 16:10:21</time>
      </trkpt>
      <trkpt lat="29.09809" lon="-13.53177">
        <ele>513</ele>
        <time>2021-07-03 16:10:22</time>
      </trkpt>
      <trkpt lat="29.09803" lon="-13.53177">
        <ele>512.8</ele>
        <time>2021-07-03 16:10:23</time>
      </trkpt>
      <trkpt lat="29.09796" lon="-13.53176">
        <ele>512.4</ele>
        <time>2021-07-03 16:10:24</time>
      </trkpt>
      <trkpt lat="29.09791" lon="-13.53176">
        <ele>512</ele>
        <time>2021-07-03 16:10:25</time>
      </trkpt>
      <trkpt lat="29.09785" lon="-13.53176">
        <ele>511.6</ele>
        <time>2021-07-03 16:10:26</time>
      </trkpt>
      <trkpt lat="29.0978" lon="-13.53176">
        <ele>511.2</ele>
        <time>2021-07-03 16:10:27</time>
      </trkpt>
      <trkpt lat="29.09774" lon="-13.53177">
        <ele>510.8</ele>
        <time>2021-07-03 16:10:28</time>
      </trkpt>
      <trkpt lat="29.09769" lon="-13.53178">
        <ele>510.2</ele>
        <time>2021-07-03 16:10:29</time>
      </trkpt>
      <trkpt lat="29.09764" lon="-13.5318">
        <ele>509.8</ele>
        <time>2021-07-03 16:10:30</time>
      </trkpt>
      <trkpt lat="29.09759" lon="-13.53181">
        <ele>509.4</ele>
        <time>2021-07-03 16:10:31</time>
      </trkpt>
      <trkpt lat="29.09754" lon="-13.53184">
        <ele>509</ele>
        <time>2021-07-03 16:10:32</time>
      </trkpt>
      <trkpt lat="29.09749" lon="-13.53187">
        <ele>508.6</ele>
        <time>2021-07-03 16:10:33</time>
      </trkpt>
      <trkpt lat="29.09743" lon="-13.5319">
        <ele>508.2</ele>
        <time>2021-07-03 16:10:34</time>
      </trkpt>
      <trkpt lat="29.09737" lon="-13.53191">
        <ele>507.6</ele>
        <time>2021-07-03 16:10:35</time>
      </trkpt>
      <trkpt lat="29.09732" lon="-13.53193">
        <ele>507.2</ele>
        <time>2021-07-03 16:10:36</time>
      </trkpt>
      <trkpt lat="29.09727" lon="-13.53195">
        <ele>506.6</ele>
        <time>2021-07-03 16:10:37</time>
      </trkpt>
      <trkpt lat="29.09721" lon="-13.53196">
        <ele>506.2</ele>
        <time>2021-07-03 16:10:38</time>
      </trkpt>
      <trkpt lat="29.09715" lon="-13.53198">
        <ele>505.6</ele>
        <time>2021-07-03 16:10:39</time>
      </trkpt>
      <trkpt lat="29.09709" lon="-13.532">
        <ele>505.2</ele>
        <time>2021-07-03 16:10:40</time>
      </trkpt>
      <trkpt lat="29.09702" lon="-13.53202">
        <ele>504.6</ele>
        <time>2021-07-03 16:10:41</time>
      </trkpt>
      <trkpt lat="29.09696" lon="-13.53204">
        <ele>504.2</ele>
        <time>2021-07-03 16:10:42</time>
      </trkpt>
      <trkpt lat="29.09689" lon="-13.53205">
        <ele>503.8</ele>
        <time>2021-07-03 16:10:43</time>
      </trkpt>
      <trkpt lat="29.09682" lon="-13.53207">
        <ele>503.4</ele>
        <time>2021-07-03 16:10:44</time>
      </trkpt>
      <trkpt lat="29.09676" lon="-13.53209">
        <ele>502.8</ele>
        <time>2021-07-03 16:10:45</time>
      </trkpt>
      <trkpt lat="29.09671" lon="-13.53211">
        <ele>502.4</ele>
        <time>2021-07-03 16:10:46</time>
      </trkpt>
      <trkpt lat="29.09665" lon="-13.53214">
        <ele>502</ele>
        <time>2021-07-03 16:10:47</time>
      </trkpt>
      <trkpt lat="29.09659" lon="-13.53216">
        <ele>501.6</ele>
        <time>2021-07-03 16:10:48</time>
      </trkpt>
      <trkpt lat="29.09653" lon="-13.53218">
        <ele>501.2</ele>
        <time>2021-07-03 16:10:49</time>
      </trkpt>
      <trkpt lat="29.09647" lon="-13.53222">
        <ele>500.8</ele>
        <time>2021-07-03 16:10:50</time>
      </trkpt>
      <trkpt lat="29.09642" lon="-13.53225">
        <ele>500.4</ele>
        <time>2021-07-03 16:10:51</time>
      </trkpt>
      <trkpt lat="29.09637" lon="-13.53228">
        <ele>500</ele>
        <time>2021-07-03 16:10:52</time>
      </trkpt>
      <trkpt lat="29.09631" lon="-13.53232">
        <ele>499.6</ele>
        <time>2021-07-03 16:10:53</time>
      </trkpt>
      <trkpt lat="29.09626" lon="-13.53236">
        <ele>499.2</ele>
        <time>2021-07-03 16:10:54</time>
      </trkpt>
      <trkpt lat="29.09621" lon="-13.5324">
        <ele>498.8</ele>
        <time>2021-07-03 16:10:55</time>
      </trkpt>
      <trkpt lat="29.09616" lon="-13.53243">
        <ele>498.4</ele>
        <time>2021-07-03 16:10:56</time>
      </trkpt>
      <trkpt lat="29.09612" lon="-13.53247">
        <ele>497.8</ele>
        <time>2021-07-03 16:10:57</time>
      </trkpt>
      <trkpt lat="29.09607" lon="-13.5325">
        <ele>497.4</ele>
        <time>2021-07-03 16:10:58</time>
      </trkpt>
      <trkpt lat="29.09602" lon="-13.53254">
        <ele>496.8</ele>
        <time>2021-07-03 16:10:59</time>
      </trkpt>
      <trkpt lat="29.09597" lon="-13.53257">
        <ele>496.4</ele>
        <time>2021-07-03 16:11:00</time>
      </trkpt>
      <trkpt lat="29.09592" lon="-13.53261">
        <ele>495.8</ele>
        <time>2021-07-03 16:11:01</time>
      </trkpt>
      <trkpt lat="29.09588" lon="-13.53264">
        <ele>495.2</ele>
        <time>2021-07-03 16:11:02</time>
      </trkpt>
      <trkpt lat="29.09584" lon="-13.53267">
        <ele>494.6</ele>
        <time>2021-07-03 16:11:03</time>
      </trkpt>
      <trkpt lat="29.0958" lon="-13.53271">
        <ele>494.2</ele>
        <time>2021-07-03 16:11:04</time>
      </trkpt>
      <trkpt lat="29.09575" lon="-13.53275">
        <ele>493.6</ele>
        <time>2021-07-03 16:11:05</time>
      </trkpt>
      <trkpt lat="29.0957" lon="-13.53279">
        <ele>493</ele>
        <time>2021-07-03 16:11:06</time>
      </trkpt>
      <trkpt lat="29.09565" lon="-13.53283">
        <ele>492.6</ele>
        <time>2021-07-03 16:11:07</time>
      </trkpt>
      <trkpt lat="29.09561" lon="-13.53287">
        <ele>492</ele>
        <time>2021-07-03 16:11:08</time>
      </trkpt>
      <trkpt lat="29.09556" lon="-13.5329">
        <ele>491.4</ele>
        <time>2021-07-03 16:11:09</time>
      </trkpt>
      <trkpt lat="29.09551" lon="-13.53294">
        <ele>491</ele>
        <time>2021-07-03 16:11:10</time>
      </trkpt>
      <trkpt lat="29.09546" lon="-13.53297">
        <ele>490.2</ele>
        <time>2021-07-03 16:11:11</time>
      </trkpt>
      <trkpt lat="29.09542" lon="-13.533">
        <ele>489.8</ele>
        <time>2021-07-03 16:11:12</time>
      </trkpt>
      <trkpt lat="29.09537" lon="-13.53302">
        <ele>489.4</ele>
        <time>2021-07-03 16:11:13</time>
      </trkpt>
      <trkpt lat="29.09533" lon="-13.53306">
        <ele>489</ele>
        <time>2021-07-03 16:11:55</time>
      </trkpt>
      <trkpt lat="29.09528" lon="-13.53309">
        <ele>488.4</ele>
        <time>2021-07-03 16:11:56</time>
      </trkpt>
      <trkpt lat="29.09525" lon="-13.53312">
        <ele>488</ele>
        <time>2021-07-03 16:11:57</time>
      </trkpt>
      <trkpt lat="29.09522" lon="-13.53315">
        <ele>487.4</ele>
        <time>2021-07-03 16:11:58</time>
      </trkpt>
      <trkpt lat="29.09519" lon="-13.53318">
        <ele>487</ele>
        <time>2021-07-03 16:11:59</time>
      </trkpt>
      <trkpt lat="29.09515" lon="-13.53322">
        <ele>486.6</ele>
        <time>2021-07-03 16:12:00</time>
      </trkpt>
      <trkpt lat="29.09511" lon="-13.53326">
        <ele>486.2</ele>
        <time>2021-07-03 16:12:01</time>
      </trkpt>
      <trkpt lat="29.09506" lon="-13.5333">
        <ele>485.6</ele>
        <time>2021-07-03 16:12:02</time>
      </trkpt>
      <trkpt lat="29.09502" lon="-13.53334">
        <ele>485</ele>
        <time>2021-07-03 16:12:03</time>
      </trkpt>
      <trkpt lat="29.09498" lon="-13.53339">
        <ele>484.4</ele>
        <time>2021-07-03 16:12:04</time>
      </trkpt>
      <trkpt lat="29.09494" lon="-13.53344">
        <ele>483.8</ele>
        <time>2021-07-03 16:12:05</time>
      </trkpt>
      <trkpt lat="29.0949" lon="-13.53349">
        <ele>483.2</ele>
        <time>2021-07-03 16:12:06</time>
      </trkpt>
      <trkpt lat="29.09487" lon="-13.53354">
        <ele>482.6</ele>
        <time>2021-07-03 16:12:07</time>
      </trkpt>
      <trkpt lat="29.09483" lon="-13.53358">
        <ele>481.8</ele>
        <time>2021-07-03 16:12:08</time>
      </trkpt>
      <trkpt lat="29.09479" lon="-13.53363">
        <ele>481.2</ele>
        <time>2021-07-03 16:12:09</time>
      </trkpt>
      <trkpt lat="29.09476" lon="-13.53367">
        <ele>480.6</ele>
        <time>2021-07-03 16:12:10</time>
      </trkpt>
      <trkpt lat="29.09473" lon="-13.53372">
        <ele>480</ele>
        <time>2021-07-03 16:12:11</time>
      </trkpt>
      <trkpt lat="29.09469" lon="-13.53377">
        <ele>479.6</ele>
        <time>2021-07-03 16:12:12</time>
      </trkpt>
      <trkpt lat="29.09465" lon="-13.53382">
        <ele>479.2</ele>
        <time>2021-07-03 16:12:13</time>
      </trkpt>
      <trkpt lat="29.09462" lon="-13.53387">
        <ele>478.6</ele>
        <time>2021-07-03 16:12:14</time>
      </trkpt>
      <trkpt lat="29.09458" lon="-13.5339">
        <ele>478.2</ele>
        <time>2021-07-03 16:12:15</time>
      </trkpt>
      <trkpt lat="29.09455" lon="-13.53395">
        <ele>477.8</ele>
        <time>2021-07-03 16:12:16</time>
      </trkpt>
      <trkpt lat="29.09451" lon="-13.534">
        <ele>477.4</ele>
        <time>2021-07-03 16:12:17</time>
      </trkpt>
      <trkpt lat="29.09448" lon="-13.53405">
        <ele>476.8</ele>
        <time>2021-07-03 16:12:18</time>
      </trkpt>
      <trkpt lat="29.09446" lon="-13.5341">
        <ele>476.2</ele>
        <time>2021-07-03 16:12:19</time>
      </trkpt>
      <trkpt lat="29.09444" lon="-13.53414">
        <ele>475.8</ele>
        <time>2021-07-03 16:12:20</time>
      </trkpt>
      <trkpt lat="29.09441" lon="-13.53418">
        <ele>475.4</ele>
        <time>2021-07-03 16:12:21</time>
      </trkpt>
      <trkpt lat="29.09439" lon="-13.53423">
        <ele>474.8</ele>
        <time>2021-07-03 16:12:22</time>
      </trkpt>
      <trkpt lat="29.09436" lon="-13.53427">
        <ele>474.2</ele>
        <time>2021-07-03 16:12:23</time>
      </trkpt>
      <trkpt lat="29.09434" lon="-13.53432">
        <ele>473.6</ele>
        <time>2021-07-03 16:12:24</time>
      </trkpt>
      <trkpt lat="29.09432" lon="-13.53435">
        <ele>473</ele>
        <time>2021-07-03 16:12:25</time>
      </trkpt>
      <trkpt lat="29.09429" lon="-13.53439">
        <ele>472.4</ele>
        <time>2021-07-03 16:12:26</time>
      </trkpt>
      <trkpt lat="29.09426" lon="-13.53442">
        <ele>471.8</ele>
        <time>2021-07-03 16:12:27</time>
      </trkpt>
      <trkpt lat="29.09424" lon="-13.53446">
        <ele>471.4</ele>
        <time>2021-07-03 16:12:28</time>
      </trkpt>
      <trkpt lat="29.09421" lon="-13.53449">
        <ele>470.8</ele>
        <time>2021-07-03 16:12:29</time>
      </trkpt>
      <trkpt lat="29.09419" lon="-13.53453">
        <ele>470.2</ele>
        <time>2021-07-03 16:12:30</time>
      </trkpt>
      <trkpt lat="29.09415" lon="-13.53457">
        <ele>469.8</ele>
        <time>2021-07-03 16:12:31</time>
      </trkpt>
      <trkpt lat="29.09412" lon="-13.53462">
        <ele>469.2</ele>
        <time>2021-07-03 16:12:32</time>
      </trkpt>
      <trkpt lat="29.09409" lon="-13.53467">
        <ele>469</ele>
        <time>2021-07-03 16:12:33</time>
      </trkpt>
      <trkpt lat="29.09406" lon="-13.53471">
        <ele>468.8</ele>
        <time>2021-07-03 16:12:34</time>
      </trkpt>
      <trkpt lat="29.09403" lon="-13.53475">
        <ele>468.4</ele>
        <time>2021-07-03 16:12:35</time>
      </trkpt>
      <trkpt lat="29.09401" lon="-13.53479">
        <ele>468.2</ele>
        <time>2021-07-03 16:12:36</time>
      </trkpt>
      <trkpt lat="29.09398" lon="-13.53483">
        <ele>467.8</ele>
        <time>2021-07-03 16:12:37</time>
      </trkpt>
      <trkpt lat="29.09395" lon="-13.53488">
        <ele>467.6</ele>
        <time>2021-07-03 16:12:38</time>
      </trkpt>
      <trkpt lat="29.09392" lon="-13.53493">
        <ele>467</ele>
        <time>2021-07-03 16:12:39</time>
      </trkpt>
      <trkpt lat="29.09389" lon="-13.53499">
        <ele>466.6</ele>
        <time>2021-07-03 16:12:40</time>
      </trkpt>
      <trkpt lat="29.09385" lon="-13.53504">
        <ele>466</ele>
        <time>2021-07-03 16:12:41</time>
      </trkpt>
      <trkpt lat="29.09383" lon="-13.53509">
        <ele>465.4</ele>
        <time>2021-07-03 16:12:42</time>
      </trkpt>
      <trkpt lat="29.09379" lon="-13.53514">
        <ele>464.8</ele>
        <time>2021-07-03 16:12:43</time>
      </trkpt>
      <trkpt lat="29.09376" lon="-13.53519">
        <ele>464.4</ele>
        <time>2021-07-03 16:12:44</time>
      </trkpt>
      <trkpt lat="29.09373" lon="-13.53524">
        <ele>464</ele>
        <time>2021-07-03 16:12:45</time>
      </trkpt>
      <trkpt lat="29.0937" lon="-13.53529">
        <ele>463.4</ele>
        <time>2021-07-03 16:12:46</time>
      </trkpt>
      <trkpt lat="29.09366" lon="-13.53534">
        <ele>462.8</ele>
        <time>2021-07-03 16:12:47</time>
      </trkpt>
      <trkpt lat="29.09363" lon="-13.53539">
        <ele>462.2</ele>
        <time>2021-07-03 16:12:48</time>
      </trkpt>
      <trkpt lat="29.09359" lon="-13.53544">
        <ele>461.8</ele>
        <time>2021-07-03 16:12:49</time>
      </trkpt>
      <trkpt lat="29.09356" lon="-13.53549">
        <ele>461.4</ele>
        <time>2021-07-03 16:12:50</time>
      </trkpt>
      <trkpt lat="29.09353" lon="-13.53552">
        <ele>460.8</ele>
        <time>2021-07-03 16:12:51</time>
      </trkpt>
      <trkpt lat="29.09351" lon="-13.53555">
        <ele>460.4</ele>
        <time>2021-07-03 16:12:52</time>
      </trkpt>
      <trkpt lat="29.09351" lon="-13.53555">
        <ele>460</ele>
        <time>2021-07-03 16:12:53</time>
      </trkpt>
      <trkpt lat="29.0935" lon="-13.53555">
        <ele>459.6</ele>
        <time>2021-07-03 16:12:54</time>
      </trkpt>
      <trkpt lat="29.0935" lon="-13.53555">
        <ele>459.2</ele>
        <time>2021-07-03 16:12:55</time>
      </trkpt>
      <trkpt lat="29.0935" lon="-13.53555">
        <ele>459</ele>
        <time>2021-07-03 16:12:56</time>
      </trkpt>
      <trkpt lat="29.09349" lon="-13.53558">
        <ele>456.8</ele>
        <time>2021-07-03 16:12:57</time>
      </trkpt>
      <trkpt lat="29.09347" lon="-13.5356">
        <ele>456.8</ele>
        <time>2021-07-03 16:12:58</time>
      </trkpt>
      <trkpt lat="29.09345" lon="-13.53562">
        <ele>456.8</ele>
        <time>2021-07-03 16:12:59</time>
      </trkpt>
      <trkpt lat="29.09343" lon="-13.53566">
        <ele>456.8</ele>
        <time>2021-07-03 16:13:00</time>
      </trkpt>
      <trkpt lat="29.0934" lon="-13.5357">
        <ele>456.8</ele>
        <time>2021-07-03 16:13:01</time>
      </trkpt>
      <trkpt lat="29.09337" lon="-13.53574">
        <ele>456.6</ele>
        <time>2021-07-03 16:13:02</time>
      </trkpt>
      <trkpt lat="29.09335" lon="-13.53579">
        <ele>456.6</ele>
        <time>2021-07-03 16:13:03</time>
      </trkpt>
      <trkpt lat="29.09332" lon="-13.53584">
        <ele>456.2</ele>
        <time>2021-07-03 16:13:04</time>
      </trkpt>
      <trkpt lat="29.09329" lon="-13.53589">
        <ele>456.2</ele>
        <time>2021-07-03 16:13:05</time>
      </trkpt>
      <trkpt lat="29.09326" lon="-13.53593">
        <ele>456</ele>
        <time>2021-07-03 16:13:06</time>
      </trkpt>
      <trkpt lat="29.09323" lon="-13.53598">
        <ele>456</ele>
        <time>2021-07-03 16:13:07</time>
      </trkpt>
      <trkpt lat="29.09319" lon="-13.53603">
        <ele>455.6</ele>
        <time>2021-07-03 16:13:08</time>
      </trkpt>
      <trkpt lat="29.09316" lon="-13.53608">
        <ele>455.6</ele>
        <time>2021-07-03 16:13:09</time>
      </trkpt>
      <trkpt lat="29.09313" lon="-13.53613">
        <ele>455</ele>
        <time>2021-07-03 16:13:10</time>
      </trkpt>
      <trkpt lat="29.0931" lon="-13.53619">
        <ele>454.8</ele>
        <time>2021-07-03 16:13:11</time>
      </trkpt>
      <trkpt lat="29.09306" lon="-13.53623">
        <ele>454.4</ele>
        <time>2021-07-03 16:13:12</time>
      </trkpt>
      <trkpt lat="29.09303" lon="-13.53628">
        <ele>453.8</ele>
        <time>2021-07-03 16:13:13</time>
      </trkpt>
      <trkpt lat="29.09299" lon="-13.53634">
        <ele>453.4</ele>
        <time>2021-07-03 16:13:14</time>
      </trkpt>
      <trkpt lat="29.09296" lon="-13.53639">
        <ele>453</ele>
        <time>2021-07-03 16:13:15</time>
      </trkpt>
      <trkpt lat="29.09293" lon="-13.53644">
        <ele>452.4</ele>
        <time>2021-07-03 16:13:16</time>
      </trkpt>
      <trkpt lat="29.09289" lon="-13.53648">
        <ele>452.2</ele>
        <time>2021-07-03 16:13:17</time>
      </trkpt>
      <trkpt lat="29.09286" lon="-13.53654">
        <ele>451.6</ele>
        <time>2021-07-03 16:13:18</time>
      </trkpt>
      <trkpt lat="29.09283" lon="-13.53659">
        <ele>451</ele>
        <time>2021-07-03 16:13:19</time>
      </trkpt>
      <trkpt lat="29.0928" lon="-13.53664">
        <ele>450.6</ele>
        <time>2021-07-03 16:13:20</time>
      </trkpt>
      <trkpt lat="29.09276" lon="-13.53669">
        <ele>450.2</ele>
        <time>2021-07-03 16:13:21</time>
      </trkpt>
      <trkpt lat="29.09273" lon="-13.53675">
        <ele>449.8</ele>
        <time>2021-07-03 16:13:22</time>
      </trkpt>
      <trkpt lat="29.09269" lon="-13.53681">
        <ele>449.6</ele>
        <time>2021-07-03 16:13:23</time>
      </trkpt>
      <trkpt lat="29.09265" lon="-13.53687">
        <ele>449.2</ele>
        <time>2021-07-03 16:13:24</time>
      </trkpt>
      <trkpt lat="29.09261" lon="-13.53693">
        <ele>448.8</ele>
        <time>2021-07-03 16:13:25</time>
      </trkpt>
      <trkpt lat="29.09257" lon="-13.53699">
        <ele>448.4</ele>
        <time>2021-07-03 16:13:26</time>
      </trkpt>
      <trkpt lat="29.09253" lon="-13.53705">
        <ele>448.2</ele>
        <time>2021-07-03 16:13:27</time>
      </trkpt>
      <trkpt lat="29.09249" lon="-13.53712">
        <ele>447.6</ele>
        <time>2021-07-03 16:13:28</time>
      </trkpt>
      <trkpt lat="29.09246" lon="-13.53717">
        <ele>447.2</ele>
        <time>2021-07-03 16:13:29</time>
      </trkpt>
      <trkpt lat="29.09243" lon="-13.53723">
        <ele>446.8</ele>
        <time>2021-07-03 16:13:30</time>
      </trkpt>
      <trkpt lat="29.09239" lon="-13.53728">
        <ele>446.4</ele>
        <time>2021-07-03 16:13:31</time>
      </trkpt>
      <trkpt lat="29.09236" lon="-13.53732">
        <ele>446</ele>
        <time>2021-07-03 16:13:32</time>
      </trkpt>
      <trkpt lat="29.09233" lon="-13.53737">
        <ele>445.6</ele>
        <time>2021-07-03 16:13:33</time>
      </trkpt>
      <trkpt lat="29.0923" lon="-13.53741">
        <ele>445.2</ele>
        <time>2021-07-03 16:13:34</time>
      </trkpt>
      <trkpt lat="29.09227" lon="-13.53746">
        <ele>444.8</ele>
        <time>2021-07-03 16:13:35</time>
      </trkpt>
      <trkpt lat="29.09224" lon="-13.53751">
        <ele>444.4</ele>
        <time>2021-07-03 16:13:36</time>
      </trkpt>
      <trkpt lat="29.09221" lon="-13.53756">
        <ele>444.2</ele>
        <time>2021-07-03 16:13:37</time>
      </trkpt>
      <trkpt lat="29.09217" lon="-13.53762">
        <ele>444</ele>
        <time>2021-07-03 16:13:38</time>
      </trkpt>
      <trkpt lat="29.09214" lon="-13.53767">
        <ele>444</ele>
        <time>2021-07-03 16:13:39</time>
      </trkpt>
      <trkpt lat="29.09211" lon="-13.53772">
        <ele>443.8</ele>
        <time>2021-07-03 16:13:40</time>
      </trkpt>
      <trkpt lat="29.09207" lon="-13.53777">
        <ele>443.8</ele>
        <time>2021-07-03 16:13:41</time>
      </trkpt>
      <trkpt lat="29.09204" lon="-13.53782">
        <ele>443.4</ele>
        <time>2021-07-03 16:13:42</time>
      </trkpt>
      <trkpt lat="29.09201" lon="-13.53786">
        <ele>443.4</ele>
        <time>2021-07-03 16:13:43</time>
      </trkpt>
      <trkpt lat="29.09197" lon="-13.5379">
        <ele>443.4</ele>
        <time>2021-07-03 16:13:44</time>
      </trkpt>
      <trkpt lat="29.09194" lon="-13.53795">
        <ele>443.4</ele>
        <time>2021-07-03 16:13:45</time>
      </trkpt>
      <trkpt lat="29.0919" lon="-13.53799">
        <ele>443</ele>
        <time>2021-07-03 16:13:46</time>
      </trkpt>
      <trkpt lat="29.09187" lon="-13.53804">
        <ele>443</ele>
        <time>2021-07-03 16:13:47</time>
      </trkpt>
      <trkpt lat="29.09183" lon="-13.53808">
        <ele>442.6</ele>
        <time>2021-07-03 16:13:48</time>
      </trkpt>
      <trkpt lat="29.0918" lon="-13.53812">
        <ele>442.2</ele>
        <time>2021-07-03 16:13:49</time>
      </trkpt>
      <trkpt lat="29.09176" lon="-13.53816">
        <ele>442</ele>
        <time>2021-07-03 16:13:50</time>
      </trkpt>
      <trkpt lat="29.09172" lon="-13.5382">
        <ele>441.6</ele>
        <time>2021-07-03 16:13:51</time>
      </trkpt>
      <trkpt lat="29.09169" lon="-13.53825">
        <ele>441.4</ele>
        <time>2021-07-03 16:13:52</time>
      </trkpt>
      <trkpt lat="29.09166" lon="-13.53829">
        <ele>441.2</ele>
        <time>2021-07-03 16:13:53</time>
      </trkpt>
      <trkpt lat="29.09163" lon="-13.53833">
        <ele>440.8</ele>
        <time>2021-07-03 16:13:54</time>
      </trkpt>
      <trkpt lat="29.0916" lon="-13.53837">
        <ele>440.6</ele>
        <time>2021-07-03 16:13:55</time>
      </trkpt>
      <trkpt lat="29.09157" lon="-13.5384">
        <ele>440.4</ele>
        <time>2021-07-03 16:13:56</time>
      </trkpt>
      <trkpt lat="29.09153" lon="-13.53844">
        <ele>440</ele>
        <time>2021-07-03 16:13:57</time>
      </trkpt>
      <trkpt lat="29.0915" lon="-13.53848">
        <ele>439.6</ele>
        <time>2021-07-03 16:13:58</time>
      </trkpt>
      <trkpt lat="29.09146" lon="-13.53851">
        <ele>439.2</ele>
        <time>2021-07-03 16:13:59</time>
      </trkpt>
      <trkpt lat="29.09142" lon="-13.53855">
        <ele>439</ele>
        <time>2021-07-03 16:14:13</time>
      </trkpt>
      <trkpt lat="29.09137" lon="-13.53859">
        <ele>438.6</ele>
        <time>2021-07-03 16:14:14</time>
      </trkpt>
      <trkpt lat="29.09132" lon="-13.53863">
        <ele>438.2</ele>
        <time>2021-07-03 16:14:15</time>
      </trkpt>
      <trkpt lat="29.09128" lon="-13.53867">
        <ele>438</ele>
        <time>2021-07-03 16:14:16</time>
      </trkpt>
      <trkpt lat="29.09124" lon="-13.5387">
        <ele>437.6</ele>
        <time>2021-07-03 16:14:17</time>
      </trkpt>
      <trkpt lat="29.09119" lon="-13.53873">
        <ele>437.2</ele>
        <time>2021-07-03 16:14:18</time>
      </trkpt>
      <trkpt lat="29.09114" lon="-13.53876">
        <ele>436.6</ele>
        <time>2021-07-03 16:14:19</time>
      </trkpt>
      <trkpt lat="29.09109" lon="-13.53878">
        <ele>436.2</ele>
        <time>2021-07-03 16:14:20</time>
      </trkpt>
      <trkpt lat="29.09104" lon="-13.53883">
        <ele>436</ele>
        <time>2021-07-03 16:14:21</time>
      </trkpt>
      <trkpt lat="29.09101" lon="-13.53887">
        <ele>435.6</ele>
        <time>2021-07-03 16:14:22</time>
      </trkpt>
      <trkpt lat="29.09098" lon="-13.53891">
        <ele>435.4</ele>
        <time>2021-07-03 16:14:23</time>
      </trkpt>
      <trkpt lat="29.09095" lon="-13.53894">
        <ele>435.2</ele>
        <time>2021-07-03 16:14:24</time>
      </trkpt>
      <trkpt lat="29.09093" lon="-13.53896">
        <ele>435</ele>
        <time>2021-07-03 16:14:25</time>
      </trkpt>
      <trkpt lat="29.0909" lon="-13.53899">
        <ele>434.8</ele>
        <time>2021-07-03 16:14:26</time>
      </trkpt>
      <trkpt lat="29.09088" lon="-13.53902">
        <ele>434.4</ele>
        <time>2021-07-03 16:14:27</time>
      </trkpt>
      <trkpt lat="29.09085" lon="-13.53905">
        <ele>434.2</ele>
        <time>2021-07-03 16:14:28</time>
      </trkpt>
      <trkpt lat="29.09083" lon="-13.53908">
        <ele>433.8</ele>
        <time>2021-07-03 16:14:29</time>
      </trkpt>
      <trkpt lat="29.0908" lon="-13.53911">
        <ele>433.6</ele>
        <time>2021-07-03 16:14:30</time>
      </trkpt>
      <trkpt lat="29.09077" lon="-13.53915">
        <ele>433.2</ele>
        <time>2021-07-03 16:14:31</time>
      </trkpt>
      <trkpt lat="29.09073" lon="-13.5392">
        <ele>432.8</ele>
        <time>2021-07-03 16:14:32</time>
      </trkpt>
      <trkpt lat="29.0907" lon="-13.53923">
        <ele>432.4</ele>
        <time>2021-07-03 16:14:33</time>
      </trkpt>
      <trkpt lat="29.09066" lon="-13.53927">
        <ele>432</ele>
        <time>2021-07-03 16:14:34</time>
      </trkpt>
      <trkpt lat="29.09063" lon="-13.53932">
        <ele>431.6</ele>
        <time>2021-07-03 16:14:35</time>
      </trkpt>
      <trkpt lat="29.09059" lon="-13.53936">
        <ele>431.2</ele>
        <time>2021-07-03 16:14:36</time>
      </trkpt>
      <trkpt lat="29.09055" lon="-13.5394">
        <ele>430.8</ele>
        <time>2021-07-03 16:14:37</time>
      </trkpt>
      <trkpt lat="29.0905" lon="-13.53943">
        <ele>430.6</ele>
        <time>2021-07-03 16:14:38</time>
      </trkpt>
      <trkpt lat="29.09044" lon="-13.53947">
        <ele>430.2</ele>
        <time>2021-07-03 16:14:39</time>
      </trkpt>
      <trkpt lat="29.09039" lon="-13.53951">
        <ele>429.6</ele>
        <time>2021-07-03 16:14:40</time>
      </trkpt>
      <trkpt lat="29.09033" lon="-13.53953">
        <ele>429.2</ele>
        <time>2021-07-03 16:14:41</time>
      </trkpt>
      <trkpt lat="29.09027" lon="-13.53957">
        <ele>428.6</ele>
        <time>2021-07-03 16:14:42</time>
      </trkpt>
      <trkpt lat="29.0902" lon="-13.53959">
        <ele>428.4</ele>
        <time>2021-07-03 16:14:43</time>
      </trkpt>
      <trkpt lat="29.09013" lon="-13.53961">
        <ele>428</ele>
        <time>2021-07-03 16:14:44</time>
      </trkpt>
      <trkpt lat="29.09006" lon="-13.53963">
        <ele>427.4</ele>
        <time>2021-07-03 16:14:45</time>
      </trkpt>
      <trkpt lat="29.08998" lon="-13.53966">
        <ele>427</ele>
        <time>2021-07-03 16:14:46</time>
      </trkpt>
      <trkpt lat="29.0899" lon="-13.53968">
        <ele>426.6</ele>
        <time>2021-07-03 16:14:47</time>
      </trkpt>
      <trkpt lat="29.08982" lon="-13.53969">
        <ele>426.2</ele>
        <time>2021-07-03 16:14:48</time>
      </trkpt>
      <trkpt lat="29.08973" lon="-13.53971">
        <ele>425.6</ele>
        <time>2021-07-03 16:14:49</time>
      </trkpt>
      <trkpt lat="29.08964" lon="-13.53973">
        <ele>425.2</ele>
        <time>2021-07-03 16:14:50</time>
      </trkpt>
      <trkpt lat="29.08955" lon="-13.53975">
        <ele>424.6</ele>
        <time>2021-07-03 16:14:51</time>
      </trkpt>
      <trkpt lat="29.08946" lon="-13.53978">
        <ele>424</ele>
        <time>2021-07-03 16:14:52</time>
      </trkpt>
      <trkpt lat="29.08937" lon="-13.5398">
        <ele>423.4</ele>
        <time>2021-07-03 16:14:53</time>
      </trkpt>
      <trkpt lat="29.08927" lon="-13.53982">
        <ele>423</ele>
        <time>2021-07-03 16:14:54</time>
      </trkpt>
      <trkpt lat="29.08918" lon="-13.53984">
        <ele>422.6</ele>
        <time>2021-07-03 16:14:55</time>
      </trkpt>
      <trkpt lat="29.08909" lon="-13.53987">
        <ele>422.2</ele>
        <time>2021-07-03 16:14:56</time>
      </trkpt>
      <trkpt lat="29.08899" lon="-13.53989">
        <ele>421.8</ele>
        <time>2021-07-03 16:14:57</time>
      </trkpt>
      <trkpt lat="29.0889" lon="-13.53992">
        <ele>421.6</ele>
        <time>2021-07-03 16:14:58</time>
      </trkpt>
      <trkpt lat="29.08881" lon="-13.53994">
        <ele>421.2</ele>
        <time>2021-07-03 16:14:59</time>
      </trkpt>
      <trkpt lat="29.08872" lon="-13.53997">
        <ele>421</ele>
        <time>2021-07-03 16:15:00</time>
      </trkpt>
      <trkpt lat="29.08863" lon="-13.53999">
        <ele>420.8</ele>
        <time>2021-07-03 16:15:01</time>
      </trkpt>
      <trkpt lat="29.08854" lon="-13.54001">
        <ele>420.4</ele>
        <time>2021-07-03 16:15:02</time>
      </trkpt>
      <trkpt lat="29.08845" lon="-13.54002">
        <ele>420.2</ele>
        <time>2021-07-03 16:15:03</time>
      </trkpt>
      <trkpt lat="29.08836" lon="-13.54004">
        <ele>419.8</ele>
        <time>2021-07-03 16:15:04</time>
      </trkpt>
      <trkpt lat="29.08828" lon="-13.54006">
        <ele>419.6</ele>
        <time>2021-07-03 16:15:05</time>
      </trkpt>
      <trkpt lat="29.0882" lon="-13.54008">
        <ele>419.6</ele>
        <time>2021-07-03 16:15:06</time>
      </trkpt>
      <trkpt lat="29.08812" lon="-13.5401">
        <ele>419.2</ele>
        <time>2021-07-03 16:15:07</time>
      </trkpt>
      <trkpt lat="29.08804" lon="-13.54012">
        <ele>418.8</ele>
        <time>2021-07-03 16:15:08</time>
      </trkpt>
      <trkpt lat="29.08797" lon="-13.54013">
        <ele>418.8</ele>
        <time>2021-07-03 16:15:09</time>
      </trkpt>
      <trkpt lat="29.0879" lon="-13.54015">
        <ele>418.8</ele>
        <time>2021-07-03 16:15:10</time>
      </trkpt>
      <trkpt lat="29.08783" lon="-13.54017">
        <ele>418.4</ele>
        <time>2021-07-03 16:15:11</time>
      </trkpt>
      <trkpt lat="29.08776" lon="-13.5402">
        <ele>418.4</ele>
        <time>2021-07-03 16:15:12</time>
      </trkpt>
      <trkpt lat="29.08769" lon="-13.54023">
        <ele>418.4</ele>
        <time>2021-07-03 16:15:13</time>
      </trkpt>
      <trkpt lat="29.08763" lon="-13.54025">
        <ele>418.2</ele>
        <time>2021-07-03 16:15:14</time>
      </trkpt>
      <trkpt lat="29.08756" lon="-13.54028">
        <ele>418.2</ele>
        <time>2021-07-03 16:15:15</time>
      </trkpt>
      <trkpt lat="29.08749" lon="-13.54031">
        <ele>417.8</ele>
        <time>2021-07-03 16:15:16</time>
      </trkpt>
      <trkpt lat="29.08743" lon="-13.54032">
        <ele>417.8</ele>
        <time>2021-07-03 16:15:17</time>
      </trkpt>
      <trkpt lat="29.08737" lon="-13.54035">
        <ele>417.2</ele>
        <time>2021-07-03 16:15:18</time>
      </trkpt>
      <trkpt lat="29.0873" lon="-13.54038">
        <ele>417</ele>
        <time>2021-07-03 16:15:19</time>
      </trkpt>
      <trkpt lat="29.08724" lon="-13.5404">
        <ele>416.6</ele>
        <time>2021-07-03 16:15:20</time>
      </trkpt>
      <trkpt lat="29.08718" lon="-13.54043">
        <ele>416.4</ele>
        <time>2021-07-03 16:15:21</time>
      </trkpt>
      <trkpt lat="29.08713" lon="-13.54047">
        <ele>416.2</ele>
        <time>2021-07-03 16:15:22</time>
      </trkpt>
      <trkpt lat="29.08708" lon="-13.5405">
        <ele>416.2</ele>
        <time>2021-07-03 16:15:23</time>
      </trkpt>
      <trkpt lat="29.08703" lon="-13.54053">
        <ele>415.8</ele>
        <time>2021-07-03 16:15:24</time>
      </trkpt>
      <trkpt lat="29.08697" lon="-13.54055">
        <ele>415.8</ele>
        <time>2021-07-03 16:15:25</time>
      </trkpt>
      <trkpt lat="29.08691" lon="-13.54057">
        <ele>415.8</ele>
        <time>2021-07-03 16:15:26</time>
      </trkpt>
      <trkpt lat="29.08685" lon="-13.54059">
        <ele>415.4</ele>
        <time>2021-07-03 16:15:27</time>
      </trkpt>
      <trkpt lat="29.08678" lon="-13.54062">
        <ele>415.4</ele>
        <time>2021-07-03 16:15:28</time>
      </trkpt>
      <trkpt lat="29.08672" lon="-13.54064">
        <ele>415.2</ele>
        <time>2021-07-03 16:15:29</time>
      </trkpt>
      <trkpt lat="29.08665" lon="-13.54066">
        <ele>415</ele>
        <time>2021-07-03 16:15:30</time>
      </trkpt>
      <trkpt lat="29.08658" lon="-13.54068">
        <ele>415</ele>
        <time>2021-07-03 16:15:31</time>
      </trkpt>
      <trkpt lat="29.08652" lon="-13.5407">
        <ele>414.6</ele>
        <time>2021-07-03 16:15:32</time>
      </trkpt>
      <trkpt lat="29.08645" lon="-13.54073">
        <ele>414.6</ele>
        <time>2021-07-03 16:15:33</time>
      </trkpt>
      <trkpt lat="29.08639" lon="-13.54075">
        <ele>414.4</ele>
        <time>2021-07-03 16:15:34</time>
      </trkpt>
      <trkpt lat="29.08632" lon="-13.54078">
        <ele>414.4</ele>
        <time>2021-07-03 16:15:35</time>
      </trkpt>
      <trkpt lat="29.08626" lon="-13.5408">
        <ele>414</ele>
        <time>2021-07-03 16:15:36</time>
      </trkpt>
      <trkpt lat="29.08619" lon="-13.54082">
        <ele>414</ele>
        <time>2021-07-03 16:15:37</time>
      </trkpt>
      <trkpt lat="29.08612" lon="-13.54084">
        <ele>413.8</ele>
        <time>2021-07-03 16:15:38</time>
      </trkpt>
      <trkpt lat="29.08605" lon="-13.54086">
        <ele>413.8</ele>
        <time>2021-07-03 16:15:39</time>
      </trkpt>
      <trkpt lat="29.08598" lon="-13.54089">
        <ele>413.8</ele>
        <time>2021-07-03 16:15:40</time>
      </trkpt>
      <trkpt lat="29.08592" lon="-13.54091">
        <ele>413.6</ele>
        <time>2021-07-03 16:15:41</time>
      </trkpt>
      <trkpt lat="29.08585" lon="-13.54093">
        <ele>413.6</ele>
        <time>2021-07-03 16:15:42</time>
      </trkpt>
      <trkpt lat="29.08578" lon="-13.54096">
        <ele>413.2</ele>
        <time>2021-07-03 16:15:43</time>
      </trkpt>
      <trkpt lat="29.08572" lon="-13.54098">
        <ele>413</ele>
        <time>2021-07-03 16:15:44</time>
      </trkpt>
      <trkpt lat="29.08565" lon="-13.541">
        <ele>413</ele>
        <time>2021-07-03 16:15:45</time>
      </trkpt>
      <trkpt lat="29.08559" lon="-13.54102">
        <ele>412.6</ele>
        <time>2021-07-03 16:15:46</time>
      </trkpt>
      <trkpt lat="29.08552" lon="-13.54104">
        <ele>412.4</ele>
        <time>2021-07-03 16:15:47</time>
      </trkpt>
      <trkpt lat="29.08546" lon="-13.54106">
        <ele>412.4</ele>
        <time>2021-07-03 16:15:48</time>
      </trkpt>
      <trkpt lat="29.08539" lon="-13.54107">
        <ele>412.2</ele>
        <time>2021-07-03 16:15:49</time>
      </trkpt>
      <trkpt lat="29.08533" lon="-13.54109">
        <ele>412</ele>
        <time>2021-07-03 16:15:50</time>
      </trkpt>
      <trkpt lat="29.08526" lon="-13.54111">
        <ele>411.4</ele>
        <time>2021-07-03 16:15:51</time>
      </trkpt>
      <trkpt lat="29.0852" lon="-13.54113">
        <ele>411.4</ele>
        <time>2021-07-03 16:15:52</time>
      </trkpt>
      <trkpt lat="29.08513" lon="-13.54115">
        <ele>411.4</ele>
        <time>2021-07-03 16:15:53</time>
      </trkpt>
      <trkpt lat="29.08507" lon="-13.54117">
        <ele>411.2</ele>
        <time>2021-07-03 16:15:54</time>
      </trkpt>
      <trkpt lat="29.08501" lon="-13.54119">
        <ele>411.2</ele>
        <time>2021-07-03 16:15:55</time>
      </trkpt>
      <trkpt lat="29.08494" lon="-13.54121">
        <ele>411</ele>
        <time>2021-07-03 16:15:56</time>
      </trkpt>
      <trkpt lat="29.08488" lon="-13.54123">
        <ele>411</ele>
        <time>2021-07-03 16:15:57</time>
      </trkpt>
      <trkpt lat="29.08482" lon="-13.54125">
        <ele>411</ele>
        <time>2021-07-03 16:15:58</time>
      </trkpt>
      <trkpt lat="29.08477" lon="-13.54127">
        <ele>411</ele>
        <time>2021-07-03 16:15:59</time>
      </trkpt>
      <trkpt lat="29.08471" lon="-13.54129">
        <ele>411</ele>
        <time>2021-07-03 16:16:00</time>
      </trkpt>
      <trkpt lat="29.08465" lon="-13.54131">
        <ele>410.8</ele>
        <time>2021-07-03 16:16:01</time>
      </trkpt>
      <trkpt lat="29.08459" lon="-13.54134">
        <ele>410.8</ele>
        <time>2021-07-03 16:16:02</time>
      </trkpt>
      <trkpt lat="29.08453" lon="-13.54136">
        <ele>410.8</ele>
        <time>2021-07-03 16:16:03</time>
      </trkpt>
      <trkpt lat="29.08447" lon="-13.54138">
        <ele>410.4</ele>
        <time>2021-07-03 16:16:04</time>
      </trkpt>
      <trkpt lat="29.08441" lon="-13.5414">
        <ele>410.4</ele>
        <time>2021-07-03 16:16:05</time>
      </trkpt>
      <trkpt lat="29.08435" lon="-13.54142">
        <ele>410.4</ele>
        <time>2021-07-03 16:16:06</time>
      </trkpt>
      <trkpt lat="29.0843" lon="-13.54144">
        <ele>410.2</ele>
        <time>2021-07-03 16:16:07</time>
      </trkpt>
      <trkpt lat="29.08424" lon="-13.54147">
        <ele>410.2</ele>
        <time>2021-07-03 16:16:08</time>
      </trkpt>
      <trkpt lat="29.08418" lon="-13.54149">
        <ele>409.8</ele>
        <time>2021-07-03 16:16:09</time>
      </trkpt>
      <trkpt lat="29.08412" lon="-13.54151">
        <ele>409.6</ele>
        <time>2021-07-03 16:16:10</time>
      </trkpt>
      <trkpt lat="29.08406" lon="-13.54153">
        <ele>409.6</ele>
        <time>2021-07-03 16:16:11</time>
      </trkpt>
      <trkpt lat="29.084" lon="-13.54155">
        <ele>409.6</ele>
        <time>2021-07-03 16:16:12</time>
      </trkpt>
      <trkpt lat="29.08394" lon="-13.54157">
        <ele>409.4</ele>
        <time>2021-07-03 16:16:13</time>
      </trkpt>
      <trkpt lat="29.08388" lon="-13.54159">
        <ele>409.4</ele>
        <time>2021-07-03 16:16:14</time>
      </trkpt>
      <trkpt lat="29.08382" lon="-13.54161">
        <ele>409.4</ele>
        <time>2021-07-03 16:16:15</time>
      </trkpt>
      <trkpt lat="29.08377" lon="-13.54163">
        <ele>409.2</ele>
        <time>2021-07-03 16:16:16</time>
      </trkpt>
      <trkpt lat="29.08371" lon="-13.54166">
        <ele>409.2</ele>
        <time>2021-07-03 16:16:17</time>
      </trkpt>
      <trkpt lat="29.08365" lon="-13.54168">
        <ele>409.2</ele>
        <time>2021-07-03 16:16:18</time>
      </trkpt>
      <trkpt lat="29.08359" lon="-13.5417">
        <ele>408.8</ele>
        <time>2021-07-03 16:16:19</time>
      </trkpt>
      <trkpt lat="29.08354" lon="-13.54173">
        <ele>408.8</ele>
        <time>2021-07-03 16:16:20</time>
      </trkpt>
      <trkpt lat="29.08348" lon="-13.54177">
        <ele>408.6</ele>
        <time>2021-07-03 16:16:21</time>
      </trkpt>
      <trkpt lat="29.08342" lon="-13.5418">
        <ele>408.4</ele>
        <time>2021-07-03 16:16:22</time>
      </trkpt>
      <trkpt lat="29.08337" lon="-13.54183">
        <ele>408.4</ele>
        <time>2021-07-03 16:16:23</time>
      </trkpt>
      <trkpt lat="29.0833" lon="-13.54186">
        <ele>408.2</ele>
        <time>2021-07-03 16:16:24</time>
      </trkpt>
      <trkpt lat="29.08324" lon="-13.54189">
        <ele>408.2</ele>
        <time>2021-07-03 16:16:25</time>
      </trkpt>
      <trkpt lat="29.08318" lon="-13.54192">
        <ele>407.8</ele>
        <time>2021-07-03 16:16:26</time>
      </trkpt>
      <trkpt lat="29.08311" lon="-13.54194">
        <ele>407.8</ele>
        <time>2021-07-03 16:16:27</time>
      </trkpt>
      <trkpt lat="29.08305" lon="-13.54197">
        <ele>407.4</ele>
        <time>2021-07-03 16:16:28</time>
      </trkpt>
      <trkpt lat="29.08298" lon="-13.542">
        <ele>407.2</ele>
        <time>2021-07-03 16:16:29</time>
      </trkpt>
      <trkpt lat="29.08291" lon="-13.54203">
        <ele>407</ele>
        <time>2021-07-03 16:16:30</time>
      </trkpt>
      <trkpt lat="29.08284" lon="-13.54205">
        <ele>406.8</ele>
        <time>2021-07-03 16:16:31</time>
      </trkpt>
      <trkpt lat="29.08278" lon="-13.54207">
        <ele>406.4</ele>
        <time>2021-07-03 16:16:32</time>
      </trkpt>
      <trkpt lat="29.08271" lon="-13.54209">
        <ele>406.2</ele>
        <time>2021-07-03 16:16:33</time>
      </trkpt>
      <trkpt lat="29.08265" lon="-13.54211">
        <ele>406</ele>
        <time>2021-07-03 16:16:34</time>
      </trkpt>
      <trkpt lat="29.08259" lon="-13.54214">
        <ele>405.6</ele>
        <time>2021-07-03 16:16:35</time>
      </trkpt>
      <trkpt lat="29.08253" lon="-13.54216">
        <ele>405.4</ele>
        <time>2021-07-03 16:16:36</time>
      </trkpt>
      <trkpt lat="29.08246" lon="-13.54219">
        <ele>405.2</ele>
        <time>2021-07-03 16:16:37</time>
      </trkpt>
      <trkpt lat="29.08238" lon="-13.54221">
        <ele>405</ele>
        <time>2021-07-03 16:16:38</time>
      </trkpt>
      <trkpt lat="29.08231" lon="-13.54222">
        <ele>404.6</ele>
        <time>2021-07-03 16:16:39</time>
      </trkpt>
      <trkpt lat="29.08223" lon="-13.54224">
        <ele>404.4</ele>
        <time>2021-07-03 16:16:40</time>
      </trkpt>
      <trkpt lat="29.08216" lon="-13.54227">
        <ele>404</ele>
        <time>2021-07-03 16:16:41</time>
      </trkpt>
      <trkpt lat="29.08208" lon="-13.54229">
        <ele>403.6</ele>
        <time>2021-07-03 16:16:42</time>
      </trkpt>
      <trkpt lat="29.08201" lon="-13.54231">
        <ele>403.2</ele>
        <time>2021-07-03 16:16:43</time>
      </trkpt>
      <trkpt lat="29.08194" lon="-13.54235">
        <ele>403</ele>
        <time>2021-07-03 16:16:44</time>
      </trkpt>
      <trkpt lat="29.08186" lon="-13.54237">
        <ele>403</ele>
        <time>2021-07-03 16:16:45</time>
      </trkpt>
      <trkpt lat="29.0818" lon="-13.54239">
        <ele>402.6</ele>
        <time>2021-07-03 16:16:46</time>
      </trkpt>
      <trkpt lat="29.08173" lon="-13.5424">
        <ele>402.2</ele>
        <time>2021-07-03 16:16:47</time>
      </trkpt>
      <trkpt lat="29.08167" lon="-13.54241">
        <ele>401.8</ele>
        <time>2021-07-03 16:16:48</time>
      </trkpt>
      <trkpt lat="29.08162" lon="-13.54242">
        <ele>401.6</ele>
        <time>2021-07-03 16:16:49</time>
      </trkpt>
      <trkpt lat="29.08156" lon="-13.54241">
        <ele>401.2</ele>
        <time>2021-07-03 16:16:50</time>
      </trkpt>
      <trkpt lat="29.0815" lon="-13.54241">
        <ele>401</ele>
        <time>2021-07-03 16:16:51</time>
      </trkpt>
      <trkpt lat="29.08145" lon="-13.5424">
        <ele>400.8</ele>
        <time>2021-07-03 16:16:52</time>
      </trkpt>
      <trkpt lat="29.0814" lon="-13.54239">
        <ele>400.4</ele>
        <time>2021-07-03 16:16:53</time>
      </trkpt>
      <trkpt lat="29.08135" lon="-13.54239">
        <ele>400</ele>
        <time>2021-07-03 16:16:54</time>
      </trkpt>
      <trkpt lat="29.0813" lon="-13.54239">
        <ele>399.6</ele>
        <time>2021-07-03 16:16:55</time>
      </trkpt>
      <trkpt lat="29.08124" lon="-13.54238">
        <ele>399.2</ele>
        <time>2021-07-03 16:16:56</time>
      </trkpt>
      <trkpt lat="29.08119" lon="-13.54237">
        <ele>399</ele>
        <time>2021-07-03 16:16:57</time>
      </trkpt>
      <trkpt lat="29.08113" lon="-13.54236">
        <ele>398.6</ele>
        <time>2021-07-03 16:16:58</time>
      </trkpt>
      <trkpt lat="29.08108" lon="-13.54235">
        <ele>398.4</ele>
        <time>2021-07-03 16:16:59</time>
      </trkpt>
      <trkpt lat="29.08104" lon="-13.54234">
        <ele>398</ele>
        <time>2021-07-03 16:17:00</time>
      </trkpt>
      <trkpt lat="29.08101" lon="-13.54234">
        <ele>397.8</ele>
        <time>2021-07-03 16:17:01</time>
      </trkpt>
      <trkpt lat="29.08099" lon="-13.54233">
        <ele>397.4</ele>
        <time>2021-07-03 16:17:02</time>
      </trkpt>
      <trkpt lat="29.08098" lon="-13.54233">
        <ele>397.2</ele>
        <time>2021-07-03 16:17:03</time>
      </trkpt>
      <trkpt lat="29.08098" lon="-13.54233">
        <ele>397.2</ele>
        <time>2021-07-03 16:17:04</time>
      </trkpt>
      <trkpt lat="29.08098" lon="-13.54232">
        <ele>397.2</ele>
        <time>2021-07-03 16:17:05</time>
      </trkpt>
      <trkpt lat="29.08097" lon="-13.54232">
        <ele>397</ele>
        <time>2021-07-03 16:17:06</time>
      </trkpt>
      <trkpt lat="29.08095" lon="-13.54232">
        <ele>396</ele>
        <time>2021-07-03 16:17:07</time>
      </trkpt>
      <trkpt lat="29.08093" lon="-13.54232">
        <ele>395.6</ele>
        <time>2021-07-03 16:17:08</time>
      </trkpt>
      <trkpt lat="29.0809" lon="-13.54231">
        <ele>395.6</ele>
        <time>2021-07-03 16:17:09</time>
      </trkpt>
      <trkpt lat="29.08086" lon="-13.5423">
        <ele>395.2</ele>
        <time>2021-07-03 16:17:10</time>
      </trkpt>
      <trkpt lat="29.08082" lon="-13.54229">
        <ele>395</ele>
        <time>2021-07-03 16:17:11</time>
      </trkpt>
      <trkpt lat="29.08077" lon="-13.54228">
        <ele>394.6</ele>
        <time>2021-07-03 16:17:12</time>
      </trkpt>
      <trkpt lat="29.08073" lon="-13.54227">
        <ele>394.4</ele>
        <time>2021-07-03 16:17:13</time>
      </trkpt>
      <trkpt lat="29.08068" lon="-13.54226">
        <ele>394.2</ele>
        <time>2021-07-03 16:17:14</time>
      </trkpt>
      <trkpt lat="29.08062" lon="-13.54224">
        <ele>393.8</ele>
        <time>2021-07-03 16:17:15</time>
      </trkpt>
      <trkpt lat="29.08056" lon="-13.54223">
        <ele>393.4</ele>
        <time>2021-07-03 16:17:16</time>
      </trkpt>
      <trkpt lat="29.0805" lon="-13.54221">
        <ele>393.2</ele>
        <time>2021-07-03 16:17:17</time>
      </trkpt>
      <trkpt lat="29.08042" lon="-13.5422">
        <ele>392.6</ele>
        <time>2021-07-03 16:17:18</time>
      </trkpt>
      <trkpt lat="29.08035" lon="-13.54218">
        <ele>392</ele>
        <time>2021-07-03 16:17:19</time>
      </trkpt>
      <trkpt lat="29.08027" lon="-13.54216">
        <ele>391.4</ele>
        <time>2021-07-03 16:17:20</time>
      </trkpt>
      <trkpt lat="29.08019" lon="-13.54214">
        <ele>391</ele>
        <time>2021-07-03 16:17:21</time>
      </trkpt>
      <trkpt lat="29.08011" lon="-13.54211">
        <ele>390.4</ele>
        <time>2021-07-03 16:17:22</time>
      </trkpt>
      <trkpt lat="29.08002" lon="-13.5421">
        <ele>389.8</ele>
        <time>2021-07-03 16:17:23</time>
      </trkpt>
      <trkpt lat="29.07994" lon="-13.54208">
        <ele>389.4</ele>
        <time>2021-07-03 16:17:24</time>
      </trkpt>
      <trkpt lat="29.07986" lon="-13.54206">
        <ele>388.6</ele>
        <time>2021-07-03 16:17:25</time>
      </trkpt>
      <trkpt lat="29.07978" lon="-13.54204">
        <ele>388</ele>
        <time>2021-07-03 16:17:26</time>
      </trkpt>
      <trkpt lat="29.0797" lon="-13.54202">
        <ele>387.4</ele>
        <time>2021-07-03 16:17:27</time>
      </trkpt>
      <trkpt lat="29.07962" lon="-13.54201">
        <ele>386.8</ele>
        <time>2021-07-03 16:17:28</time>
      </trkpt>
      <trkpt lat="29.07953" lon="-13.54198">
        <ele>386</ele>
        <time>2021-07-03 16:17:29</time>
      </trkpt>
      <trkpt lat="29.07944" lon="-13.54196">
        <ele>385.2</ele>
        <time>2021-07-03 16:17:30</time>
      </trkpt>
      <trkpt lat="29.07936" lon="-13.54194">
        <ele>384.6</ele>
        <time>2021-07-03 16:17:31</time>
      </trkpt>
      <trkpt lat="29.07926" lon="-13.54192">
        <ele>383.8</ele>
        <time>2021-07-03 16:17:32</time>
      </trkpt>
      <trkpt lat="29.07917" lon="-13.54189">
        <ele>382.8</ele>
        <time>2021-07-03 16:17:33</time>
      </trkpt>
      <trkpt lat="29.07907" lon="-13.54186">
        <ele>382.2</ele>
        <time>2021-07-03 16:17:34</time>
      </trkpt>
      <trkpt lat="29.07898" lon="-13.54184">
        <ele>381.6</ele>
        <time>2021-07-03 16:17:35</time>
      </trkpt>
      <trkpt lat="29.07888" lon="-13.54182">
        <ele>381.2</ele>
        <time>2021-07-03 16:17:36</time>
      </trkpt>
      <trkpt lat="29.07878" lon="-13.54179">
        <ele>380.8</ele>
        <time>2021-07-03 16:17:37</time>
      </trkpt>
      <trkpt lat="29.07868" lon="-13.54176">
        <ele>380.2</ele>
        <time>2021-07-03 16:17:38</time>
      </trkpt>
      <trkpt lat="29.07858" lon="-13.54173">
        <ele>379.8</ele>
        <time>2021-07-03 16:17:39</time>
      </trkpt>
      <trkpt lat="29.07848" lon="-13.54171">
        <ele>379.2</ele>
        <time>2021-07-03 16:17:40</time>
      </trkpt>
      <trkpt lat="29.07838" lon="-13.54169">
        <ele>378.8</ele>
        <time>2021-07-03 16:17:41</time>
      </trkpt>
      <trkpt lat="29.07828" lon="-13.54166">
        <ele>378.4</ele>
        <time>2021-07-03 16:17:42</time>
      </trkpt>
      <trkpt lat="29.07818" lon="-13.54165">
        <ele>378</ele>
        <time>2021-07-03 16:17:43</time>
      </trkpt>
      <trkpt lat="29.07808" lon="-13.54162">
        <ele>377.6</ele>
        <time>2021-07-03 16:17:44</time>
      </trkpt>
      <trkpt lat="29.07798" lon="-13.5416">
        <ele>377.4</ele>
        <time>2021-07-03 16:17:45</time>
      </trkpt>
      <trkpt lat="29.07788" lon="-13.54158">
        <ele>377.4</ele>
        <time>2021-07-03 16:17:46</time>
      </trkpt>
      <trkpt lat="29.07778" lon="-13.54156">
        <ele>377</ele>
        <time>2021-07-03 16:17:47</time>
      </trkpt>
      <trkpt lat="29.07768" lon="-13.54154">
        <ele>376.8</ele>
        <time>2021-07-03 16:17:48</time>
      </trkpt>
      <trkpt lat="29.07758" lon="-13.54152">
        <ele>376.8</ele>
        <time>2021-07-03 16:17:49</time>
      </trkpt>
      <trkpt lat="29.07749" lon="-13.5415">
        <ele>376.4</ele>
        <time>2021-07-03 16:17:50</time>
      </trkpt>
      <trkpt lat="29.07739" lon="-13.54147">
        <ele>376.4</ele>
        <time>2021-07-03 16:17:51</time>
      </trkpt>
      <trkpt lat="29.07729" lon="-13.54145">
        <ele>376</ele>
        <time>2021-07-03 16:17:52</time>
      </trkpt>
      <trkpt lat="29.0772" lon="-13.54143">
        <ele>376</ele>
        <time>2021-07-03 16:17:53</time>
      </trkpt>
      <trkpt lat="29.07711" lon="-13.54141">
        <ele>376</ele>
        <time>2021-07-03 16:17:54</time>
      </trkpt>
      <trkpt lat="29.07702" lon="-13.54139">
        <ele>375.8</ele>
        <time>2021-07-03 16:17:55</time>
      </trkpt>
      <trkpt lat="29.07693" lon="-13.54137">
        <ele>375.8</ele>
        <time>2021-07-03 16:17:56</time>
      </trkpt>
      <trkpt lat="29.07684" lon="-13.54135">
        <ele>375.6</ele>
        <time>2021-07-03 16:17:57</time>
      </trkpt>
      <trkpt lat="29.07675" lon="-13.54133">
        <ele>375.6</ele>
        <time>2021-07-03 16:17:58</time>
      </trkpt>
      <trkpt lat="29.07667" lon="-13.54131">
        <ele>375.6</ele>
        <time>2021-07-03 16:17:59</time>
      </trkpt>
      <trkpt lat="29.07659" lon="-13.5413">
        <ele>375.6</ele>
        <time>2021-07-03 16:18:00</time>
      </trkpt>
      <trkpt lat="29.07651" lon="-13.54128">
        <ele>375.6</ele>
        <time>2021-07-03 16:18:01</time>
      </trkpt>
      <trkpt lat="29.07643" lon="-13.54126">
        <ele>375.6</ele>
        <time>2021-07-03 16:18:02</time>
      </trkpt>
      <trkpt lat="29.07635" lon="-13.54125">
        <ele>375.6</ele>
        <time>2021-07-03 16:18:03</time>
      </trkpt>
      <trkpt lat="29.07628" lon="-13.54123">
        <ele>375.6</ele>
        <time>2021-07-03 16:18:04</time>
      </trkpt>
      <trkpt lat="29.07621" lon="-13.54122">
        <ele>375.6</ele>
        <time>2021-07-03 16:18:05</time>
      </trkpt>
      <trkpt lat="29.07615" lon="-13.5412">
        <ele>375.6</ele>
        <time>2021-07-03 16:18:06</time>
      </trkpt>
      <trkpt lat="29.07608" lon="-13.54119">
        <ele>375.6</ele>
        <time>2021-07-03 16:18:07</time>
      </trkpt>
      <trkpt lat="29.07603" lon="-13.54118">
        <ele>375.8</ele>
        <time>2021-07-03 16:18:08</time>
      </trkpt>
      <trkpt lat="29.07598" lon="-13.54117">
        <ele>375.8</ele>
        <time>2021-07-03 16:18:09</time>
      </trkpt>
      <trkpt lat="29.07593" lon="-13.54116">
        <ele>376.2</ele>
        <time>2021-07-03 16:18:38</time>
      </trkpt>
      <trkpt lat="29.07589" lon="-13.54115">
        <ele>376.2</ele>
        <time>2021-07-03 16:18:39</time>
      </trkpt>
      <trkpt lat="29.07585" lon="-13.54114">
        <ele>376.4</ele>
        <time>2021-07-03 16:18:40</time>
      </trkpt>
      <trkpt lat="29.07581" lon="-13.54113">
        <ele>376.8</ele>
        <time>2021-07-03 16:18:41</time>
      </trkpt>
      <trkpt lat="29.07577" lon="-13.54112">
        <ele>377</ele>
        <time>2021-07-03 16:18:42</time>
      </trkpt>
      <trkpt lat="29.07573" lon="-13.54111">
        <ele>377.2</ele>
        <time>2021-07-03 16:18:43</time>
      </trkpt>
      <trkpt lat="29.0757" lon="-13.5411">
        <ele>377.8</ele>
        <time>2021-07-03 16:18:44</time>
      </trkpt>
      <trkpt lat="29.07566" lon="-13.54109">
        <ele>378.2</ele>
        <time>2021-07-03 16:18:45</time>
      </trkpt>
      <trkpt lat="29.07562" lon="-13.54108">
        <ele>378.6</ele>
        <time>2021-07-03 16:18:46</time>
      </trkpt>
      <trkpt lat="29.07558" lon="-13.54107">
        <ele>378.8</ele>
        <time>2021-07-03 16:18:47</time>
      </trkpt>
      <trkpt lat="29.07554" lon="-13.54106">
        <ele>379</ele>
        <time>2021-07-03 16:18:48</time>
      </trkpt>
      <trkpt lat="29.0755" lon="-13.54105">
        <ele>379.4</ele>
        <time>2021-07-03 16:18:49</time>
      </trkpt>
      <trkpt lat="29.07546" lon="-13.54104">
        <ele>379.6</ele>
        <time>2021-07-03 16:18:50</time>
      </trkpt>
      <trkpt lat="29.07542" lon="-13.54103">
        <ele>379.6</ele>
        <time>2021-07-03 16:18:51</time>
      </trkpt>
      <trkpt lat="29.07538" lon="-13.54103">
        <ele>379.8</ele>
        <time>2021-07-03 16:18:52</time>
      </trkpt>
      <trkpt lat="29.07533" lon="-13.54102">
        <ele>379.8</ele>
        <time>2021-07-03 16:18:53</time>
      </trkpt>
      <trkpt lat="29.07528" lon="-13.54101">
        <ele>380.2</ele>
        <time>2021-07-03 16:18:54</time>
      </trkpt>
      <trkpt lat="29.07523" lon="-13.541">
        <ele>380.2</ele>
        <time>2021-07-03 16:18:55</time>
      </trkpt>
      <trkpt lat="29.07518" lon="-13.54099">
        <ele>380.2</ele>
        <time>2021-07-03 16:18:56</time>
      </trkpt>
      <trkpt lat="29.07513" lon="-13.54098">
        <ele>380.2</ele>
        <time>2021-07-03 16:18:57</time>
      </trkpt>
      <trkpt lat="29.07508" lon="-13.54097">
        <ele>380.2</ele>
        <time>2021-07-03 16:18:58</time>
      </trkpt>
      <trkpt lat="29.07503" lon="-13.54096">
        <ele>380.2</ele>
        <time>2021-07-03 16:18:59</time>
      </trkpt>
      <trkpt lat="29.07498" lon="-13.54095">
        <ele>380.4</ele>
        <time>2021-07-03 16:19:00</time>
      </trkpt>
      <trkpt lat="29.07493" lon="-13.54093">
        <ele>380.4</ele>
        <time>2021-07-03 16:19:01</time>
      </trkpt>
      <trkpt lat="29.07488" lon="-13.54093">
        <ele>380.4</ele>
        <time>2021-07-03 16:19:02</time>
      </trkpt>
      <trkpt lat="29.07484" lon="-13.54092">
        <ele>380.4</ele>
        <time>2021-07-03 16:19:03</time>
      </trkpt>
      <trkpt lat="29.07478" lon="-13.5409">
        <ele>380.2</ele>
        <time>2021-07-03 16:19:04</time>
      </trkpt>
      <trkpt lat="29.07473" lon="-13.54089">
        <ele>380.2</ele>
        <time>2021-07-03 16:19:05</time>
      </trkpt>
      <trkpt lat="29.07468" lon="-13.54088">
        <ele>380.2</ele>
        <time>2021-07-03 16:19:06</time>
      </trkpt>
      <trkpt lat="29.07462" lon="-13.54087">
        <ele>380</ele>
        <time>2021-07-03 16:19:07</time>
      </trkpt>
      <trkpt lat="29.07457" lon="-13.54086">
        <ele>380</ele>
        <time>2021-07-03 16:19:08</time>
      </trkpt>
      <trkpt lat="29.07451" lon="-13.54084">
        <ele>379.6</ele>
        <time>2021-07-03 16:19:09</time>
      </trkpt>
      <trkpt lat="29.07446" lon="-13.54083">
        <ele>379.6</ele>
        <time>2021-07-03 16:19:10</time>
      </trkpt>
      <trkpt lat="29.0744" lon="-13.54083">
        <ele>379.4</ele>
        <time>2021-07-03 16:19:11</time>
      </trkpt>
      <trkpt lat="29.07435" lon="-13.54081">
        <ele>379.4</ele>
        <time>2021-07-03 16:19:12</time>
      </trkpt>
      <trkpt lat="29.0743" lon="-13.5408">
        <ele>379.2</ele>
        <time>2021-07-03 16:19:13</time>
      </trkpt>
      <trkpt lat="29.07424" lon="-13.54078">
        <ele>379.2</ele>
        <time>2021-07-03 16:19:14</time>
      </trkpt>
      <trkpt lat="29.07419" lon="-13.54077">
        <ele>379.2</ele>
        <time>2021-07-03 16:19:15</time>
      </trkpt>
      <trkpt lat="29.07414" lon="-13.54076">
        <ele>379.2</ele>
        <time>2021-07-03 16:19:16</time>
      </trkpt>
      <trkpt lat="29.07408" lon="-13.54075">
        <ele>379</ele>
        <time>2021-07-03 16:19:17</time>
      </trkpt>
      <trkpt lat="29.07403" lon="-13.54073">
        <ele>379</ele>
        <time>2021-07-03 16:19:18</time>
      </trkpt>
      <trkpt lat="29.07398" lon="-13.54072">
        <ele>379</ele>
        <time>2021-07-03 16:19:19</time>
      </trkpt>
      <trkpt lat="29.07392" lon="-13.54071">
        <ele>378.6</ele>
        <time>2021-07-03 16:19:20</time>
      </trkpt>
      <trkpt lat="29.07387" lon="-13.5407">
        <ele>378.6</ele>
        <time>2021-07-03 16:19:21</time>
      </trkpt>
      <trkpt lat="29.07382" lon="-13.54069">
        <ele>378.6</ele>
        <time>2021-07-03 16:19:22</time>
      </trkpt>
      <trkpt lat="29.07376" lon="-13.54069">
        <ele>378.4</ele>
        <time>2021-07-03 16:19:23</time>
      </trkpt>
      <trkpt lat="29.07371" lon="-13.54069">
        <ele>378.4</ele>
        <time>2021-07-03 16:19:24</time>
      </trkpt>
      <trkpt lat="29.07366" lon="-13.5407">
        <ele>378.4</ele>
        <time>2021-07-03 16:19:25</time>
      </trkpt>
      <trkpt lat="29.0736" lon="-13.54071">
        <ele>378</ele>
        <time>2021-07-03 16:19:26</time>
      </trkpt>
      <trkpt lat="29.07355" lon="-13.54075">
        <ele>378</ele>
        <time>2021-07-03 16:19:27</time>
      </trkpt>
      <trkpt lat="29.0735" lon="-13.54077">
        <ele>378</ele>
        <time>2021-07-03 16:19:28</time>
      </trkpt>
      <trkpt lat="29.07344" lon="-13.54079">
        <ele>378</ele>
        <time>2021-07-03 16:19:29</time>
      </trkpt>
      <trkpt lat="29.07338" lon="-13.54081">
        <ele>377.8</ele>
        <time>2021-07-03 16:19:30</time>
      </trkpt>
      <trkpt lat="29.07332" lon="-13.54085">
        <ele>377.8</ele>
        <time>2021-07-03 16:19:31</time>
      </trkpt>
      <trkpt lat="29.07326" lon="-13.54089">
        <ele>377.8</ele>
        <time>2021-07-03 16:19:32</time>
      </trkpt>
      <trkpt lat="29.07319" lon="-13.54093">
        <ele>377.8</ele>
        <time>2021-07-03 16:19:33</time>
      </trkpt>
      <trkpt lat="29.07312" lon="-13.54097">
        <ele>377.8</ele>
        <time>2021-07-03 16:19:34</time>
      </trkpt>
      <trkpt lat="29.07305" lon="-13.54101">
        <ele>377.8</ele>
        <time>2021-07-03 16:19:35</time>
      </trkpt>
      <trkpt lat="29.07298" lon="-13.54104">
        <ele>377.4</ele>
        <time>2021-07-03 16:19:36</time>
      </trkpt>
      <trkpt lat="29.0729" lon="-13.54106">
        <ele>377.4</ele>
        <time>2021-07-03 16:19:37</time>
      </trkpt>
      <trkpt lat="29.07281" lon="-13.54108">
        <ele>377.4</ele>
        <time>2021-07-03 16:19:38</time>
      </trkpt>
      <trkpt lat="29.07273" lon="-13.54108">
        <ele>377.4</ele>
        <time>2021-07-03 16:19:39</time>
      </trkpt>
      <trkpt lat="29.07265" lon="-13.54107">
        <ele>377.2</ele>
        <time>2021-07-03 16:19:40</time>
      </trkpt>
      <trkpt lat="29.07258" lon="-13.54105">
        <ele>376.8</ele>
        <time>2021-07-03 16:19:41</time>
      </trkpt>
      <trkpt lat="29.07251" lon="-13.54103">
        <ele>376.4</ele>
        <time>2021-07-03 16:19:42</time>
      </trkpt>
      <trkpt lat="29.07244" lon="-13.541">
        <ele>375.8</ele>
        <time>2021-07-03 16:19:43</time>
      </trkpt>
      <trkpt lat="29.07238" lon="-13.54097">
        <ele>375.2</ele>
        <time>2021-07-03 16:19:44</time>
      </trkpt>
      <trkpt lat="29.07232" lon="-13.54093">
        <ele>374.6</ele>
        <time>2021-07-03 16:19:45</time>
      </trkpt>
      <trkpt lat="29.07225" lon="-13.54089">
        <ele>374.2</ele>
        <time>2021-07-03 16:19:46</time>
      </trkpt>
      <trkpt lat="29.07219" lon="-13.54085">
        <ele>373.4</ele>
        <time>2021-07-03 16:19:47</time>
      </trkpt>
      <trkpt lat="29.07212" lon="-13.54081">
        <ele>372.8</ele>
        <time>2021-07-03 16:19:48</time>
      </trkpt>
      <trkpt lat="29.07207" lon="-13.54077">
        <ele>372.2</ele>
        <time>2021-07-03 16:19:49</time>
      </trkpt>
      <trkpt lat="29.072" lon="-13.54073">
        <ele>371.4</ele>
        <time>2021-07-03 16:19:50</time>
      </trkpt>
      <trkpt lat="29.07194" lon="-13.54069">
        <ele>370.6</ele>
        <time>2021-07-03 16:19:51</time>
      </trkpt>
      <trkpt lat="29.07187" lon="-13.54064">
        <ele>369.8</ele>
        <time>2021-07-03 16:19:52</time>
      </trkpt>
      <trkpt lat="29.07181" lon="-13.54059">
        <ele>369</ele>
        <time>2021-07-03 16:19:53</time>
      </trkpt>
      <trkpt lat="29.07174" lon="-13.54054">
        <ele>368.6</ele>
        <time>2021-07-03 16:19:54</time>
      </trkpt>
      <trkpt lat="29.07167" lon="-13.54049">
        <ele>368</ele>
        <time>2021-07-03 16:19:55</time>
      </trkpt>
      <trkpt lat="29.07161" lon="-13.54044">
        <ele>367.2</ele>
        <time>2021-07-03 16:19:56</time>
      </trkpt>
      <trkpt lat="29.07156" lon="-13.54038">
        <ele>366.4</ele>
        <time>2021-07-03 16:19:57</time>
      </trkpt>
      <trkpt lat="29.0715" lon="-13.54033">
        <ele>365.8</ele>
        <time>2021-07-03 16:19:58</time>
      </trkpt>
      <trkpt lat="29.07143" lon="-13.54029">
        <ele>365.2</ele>
        <time>2021-07-03 16:19:59</time>
      </trkpt>
      <trkpt lat="29.07136" lon="-13.54024">
        <ele>364.4</ele>
        <time>2021-07-03 16:20:00</time>
      </trkpt>
      <trkpt lat="29.0713" lon="-13.5402">
        <ele>363.8</ele>
        <time>2021-07-03 16:20:01</time>
      </trkpt>
      <trkpt lat="29.07124" lon="-13.54016">
        <ele>363</ele>
        <time>2021-07-03 16:20:02</time>
      </trkpt>
      <trkpt lat="29.07117" lon="-13.54012">
        <ele>362.2</ele>
        <time>2021-07-03 16:20:03</time>
      </trkpt>
      <trkpt lat="29.07111" lon="-13.54007">
        <ele>361.8</ele>
        <time>2021-07-03 16:20:04</time>
      </trkpt>
      <trkpt lat="29.07105" lon="-13.54004">
        <ele>361</ele>
        <time>2021-07-03 16:20:05</time>
      </trkpt>
      <trkpt lat="29.07099" lon="-13.53999">
        <ele>360.4</ele>
        <time>2021-07-03 16:20:06</time>
      </trkpt>
      <trkpt lat="29.07093" lon="-13.53993">
        <ele>359.8</ele>
        <time>2021-07-03 16:20:07</time>
      </trkpt>
      <trkpt lat="29.07088" lon="-13.53988">
        <ele>359.2</ele>
        <time>2021-07-03 16:20:08</time>
      </trkpt>
      <trkpt lat="29.07082" lon="-13.53981">
        <ele>358.2</ele>
        <time>2021-07-03 16:20:09</time>
      </trkpt>
      <trkpt lat="29.07077" lon="-13.53974">
        <ele>357.6</ele>
        <time>2021-07-03 16:20:10</time>
      </trkpt>
      <trkpt lat="29.07071" lon="-13.53966">
        <ele>356.8</ele>
        <time>2021-07-03 16:20:11</time>
      </trkpt>
      <trkpt lat="29.07066" lon="-13.53959">
        <ele>356</ele>
        <time>2021-07-03 16:20:12</time>
      </trkpt>
      <trkpt lat="29.07061" lon="-13.5395">
        <ele>355.4</ele>
        <time>2021-07-03 16:20:13</time>
      </trkpt>
      <trkpt lat="29.07056" lon="-13.53942">
        <ele>354.6</ele>
        <time>2021-07-03 16:20:14</time>
      </trkpt>
      <trkpt lat="29.07052" lon="-13.53933">
        <ele>354</ele>
        <time>2021-07-03 16:20:15</time>
      </trkpt>
      <trkpt lat="29.07048" lon="-13.53925">
        <ele>353.4</ele>
        <time>2021-07-03 16:20:16</time>
      </trkpt>
      <trkpt lat="29.07045" lon="-13.53917">
        <ele>352.8</ele>
        <time>2021-07-03 16:20:17</time>
      </trkpt>
      <trkpt lat="29.07042" lon="-13.53909">
        <ele>352</ele>
        <time>2021-07-03 16:20:18</time>
      </trkpt>
      <trkpt lat="29.07039" lon="-13.53902">
        <ele>351.6</ele>
        <time>2021-07-03 16:20:19</time>
      </trkpt>
      <trkpt lat="29.07037" lon="-13.53895">
        <ele>351</ele>
        <time>2021-07-03 16:20:20</time>
      </trkpt>
      <trkpt lat="29.07036" lon="-13.53888">
        <ele>350.6</ele>
        <time>2021-07-03 16:20:21</time>
      </trkpt>
      <trkpt lat="29.07036" lon="-13.53881">
        <ele>350</ele>
        <time>2021-07-03 16:20:22</time>
      </trkpt>
      <trkpt lat="29.07036" lon="-13.53874">
        <ele>349.6</ele>
        <time>2021-07-03 16:20:23</time>
      </trkpt>
      <trkpt lat="29.07034" lon="-13.53867">
        <ele>349.2</ele>
        <time>2021-07-03 16:20:24</time>
      </trkpt>
      <trkpt lat="29.07033" lon="-13.5386">
        <ele>348.8</ele>
        <time>2021-07-03 16:20:25</time>
      </trkpt>
      <trkpt lat="29.07031" lon="-13.53853">
        <ele>348.4</ele>
        <time>2021-07-03 16:20:26</time>
      </trkpt>
      <trkpt lat="29.07029" lon="-13.53847">
        <ele>348</ele>
        <time>2021-07-03 16:20:27</time>
      </trkpt>
      <trkpt lat="29.07026" lon="-13.53841">
        <ele>347.6</ele>
        <time>2021-07-03 16:20:28</time>
      </trkpt>
      <trkpt lat="29.07022" lon="-13.53837">
        <ele>347.2</ele>
        <time>2021-07-03 16:20:29</time>
      </trkpt>
      <trkpt lat="29.07017" lon="-13.53834">
        <ele>346.6</ele>
        <time>2021-07-03 16:20:30</time>
      </trkpt>
      <trkpt lat="29.07011" lon="-13.53833">
        <ele>346.2</ele>
        <time>2021-07-03 16:20:31</time>
      </trkpt>
      <trkpt lat="29.07004" lon="-13.53833">
        <ele>345.6</ele>
        <time>2021-07-03 16:20:32</time>
      </trkpt>
      <trkpt lat="29.06998" lon="-13.53835">
        <ele>345</ele>
        <time>2021-07-03 16:20:33</time>
      </trkpt>
      <trkpt lat="29.06991" lon="-13.53837">
        <ele>344.6</ele>
        <time>2021-07-03 16:20:34</time>
      </trkpt>
      <trkpt lat="29.06985" lon="-13.53842">
        <ele>344</ele>
        <time>2021-07-03 16:20:35</time>
      </trkpt>
      <trkpt lat="29.06979" lon="-13.53847">
        <ele>343.6</ele>
        <time>2021-07-03 16:20:36</time>
      </trkpt>
      <trkpt lat="29.06973" lon="-13.53852">
        <ele>343.2</ele>
        <time>2021-07-03 16:20:37</time>
      </trkpt>
      <trkpt lat="29.06966" lon="-13.53856">
        <ele>342.6</ele>
        <time>2021-07-03 16:20:38</time>
      </trkpt>
      <trkpt lat="29.0696" lon="-13.53861">
        <ele>342</ele>
        <time>2021-07-03 16:20:39</time>
      </trkpt>
      <trkpt lat="29.06953" lon="-13.53866">
        <ele>341.4</ele>
        <time>2021-07-03 16:20:40</time>
      </trkpt>
      <trkpt lat="29.06947" lon="-13.53871">
        <ele>340.8</ele>
        <time>2021-07-03 16:20:41</time>
      </trkpt>
      <trkpt lat="29.06941" lon="-13.53875">
        <ele>340.2</ele>
        <time>2021-07-03 16:20:42</time>
      </trkpt>
      <trkpt lat="29.06935" lon="-13.5388">
        <ele>339.6</ele>
        <time>2021-07-03 16:20:43</time>
      </trkpt>
      <trkpt lat="29.06929" lon="-13.53886">
        <ele>339</ele>
        <time>2021-07-03 16:20:44</time>
      </trkpt>
      <trkpt lat="29.06924" lon="-13.5389">
        <ele>338.6</ele>
        <time>2021-07-03 16:20:45</time>
      </trkpt>
      <trkpt lat="29.0692" lon="-13.53896">
        <ele>338</ele>
        <time>2021-07-03 16:20:46</time>
      </trkpt>
      <trkpt lat="29.06916" lon="-13.53902">
        <ele>337.6</ele>
        <time>2021-07-03 16:20:47</time>
      </trkpt>
      <trkpt lat="29.06912" lon="-13.53909">
        <ele>336.8</ele>
        <time>2021-07-03 16:20:48</time>
      </trkpt>
      <trkpt lat="29.06908" lon="-13.53917">
        <ele>336.2</ele>
        <time>2021-07-03 16:20:49</time>
      </trkpt>
      <trkpt lat="29.06905" lon="-13.53925">
        <ele>335.4</ele>
        <time>2021-07-03 16:20:50</time>
      </trkpt>
      <trkpt lat="29.06903" lon="-13.53934">
        <ele>334.6</ele>
        <time>2021-07-03 16:20:51</time>
      </trkpt>
      <trkpt lat="29.069" lon="-13.53943">
        <ele>333.6</ele>
        <time>2021-07-03 16:20:52</time>
      </trkpt>
      <trkpt lat="29.06899" lon="-13.53951">
        <ele>333</ele>
        <time>2021-07-03 16:20:53</time>
      </trkpt>
      <trkpt lat="29.06897" lon="-13.53959">
        <ele>332.4</ele>
        <time>2021-07-03 16:20:54</time>
      </trkpt>
      <trkpt lat="29.06896" lon="-13.53966">
        <ele>331.8</ele>
        <time>2021-07-03 16:20:55</time>
      </trkpt>
      <trkpt lat="29.06895" lon="-13.53974">
        <ele>331.2</ele>
        <time>2021-07-03 16:20:56</time>
      </trkpt>
      <trkpt lat="29.06895" lon="-13.53981">
        <ele>330.6</ele>
        <time>2021-07-03 16:20:57</time>
      </trkpt>
      <trkpt lat="29.06895" lon="-13.5399">
        <ele>330</ele>
        <time>2021-07-03 16:20:58</time>
      </trkpt>
      <trkpt lat="29.06894" lon="-13.53997">
        <ele>329.6</ele>
        <time>2021-07-03 16:20:59</time>
      </trkpt>
      <trkpt lat="29.06894" lon="-13.54005">
        <ele>329</ele>
        <time>2021-07-03 16:21:00</time>
      </trkpt>
      <trkpt lat="29.06893" lon="-13.54013">
        <ele>328.6</ele>
        <time>2021-07-03 16:21:01</time>
      </trkpt>
      <trkpt lat="29.06893" lon="-13.54021">
        <ele>327.8</ele>
        <time>2021-07-03 16:21:02</time>
      </trkpt>
      <trkpt lat="29.06893" lon="-13.54028">
        <ele>327.4</ele>
        <time>2021-07-03 16:21:03</time>
      </trkpt>
      <trkpt lat="29.06892" lon="-13.54036">
        <ele>326.8</ele>
        <time>2021-07-03 16:21:04</time>
      </trkpt>
      <trkpt lat="29.06892" lon="-13.54043">
        <ele>326.2</ele>
        <time>2021-07-03 16:21:05</time>
      </trkpt>
      <trkpt lat="29.06891" lon="-13.5405">
        <ele>325.6</ele>
        <time>2021-07-03 16:21:06</time>
      </trkpt>
      <trkpt lat="29.06889" lon="-13.54058">
        <ele>325.2</ele>
        <time>2021-07-03 16:21:07</time>
      </trkpt>
      <trkpt lat="29.06887" lon="-13.54065">
        <ele>324.8</ele>
        <time>2021-07-03 16:21:08</time>
      </trkpt>
      <trkpt lat="29.06885" lon="-13.54073">
        <ele>324.8</ele>
        <time>2021-07-03 16:21:09</time>
      </trkpt>
      <trkpt lat="29.06882" lon="-13.54078">
        <ele>324.2</ele>
        <time>2021-07-03 16:21:10</time>
      </trkpt>
      <trkpt lat="29.0688" lon="-13.54085">
        <ele>323.6</ele>
        <time>2021-07-03 16:21:11</time>
      </trkpt>
      <trkpt lat="29.06878" lon="-13.54091">
        <ele>323</ele>
        <time>2021-07-03 16:21:12</time>
      </trkpt>
      <trkpt lat="29.06877" lon="-13.54097">
        <ele>322.4</ele>
        <time>2021-07-03 16:21:13</time>
      </trkpt>
      <trkpt lat="29.06875" lon="-13.54104">
        <ele>322</ele>
        <time>2021-07-03 16:21:14</time>
      </trkpt>
      <trkpt lat="29.06873" lon="-13.5411">
        <ele>321.6</ele>
        <time>2021-07-03 16:21:15</time>
      </trkpt>
      <trkpt lat="29.06872" lon="-13.54117">
        <ele>321.2</ele>
        <time>2021-07-03 16:21:16</time>
      </trkpt>
      <trkpt lat="29.06872" lon="-13.54124">
        <ele>321.2</ele>
        <time>2021-07-03 16:21:17</time>
      </trkpt>
      <trkpt lat="29.06871" lon="-13.54131">
        <ele>321.2</ele>
        <time>2021-07-03 16:21:18</time>
      </trkpt>
      <trkpt lat="29.06869" lon="-13.54137">
        <ele>321.2</ele>
        <time>2021-07-03 16:21:19</time>
      </trkpt>
      <trkpt lat="29.06867" lon="-13.54143">
        <ele>321.2</ele>
        <time>2021-07-03 16:21:20</time>
      </trkpt>
      <trkpt lat="29.06866" lon="-13.54149">
        <ele>321.2</ele>
        <time>2021-07-03 16:21:21</time>
      </trkpt>
      <trkpt lat="29.06864" lon="-13.54154">
        <ele>321.2</ele>
        <time>2021-07-03 16:21:22</time>
      </trkpt>
      <trkpt lat="29.06862" lon="-13.54159">
        <ele>321.2</ele>
        <time>2021-07-03 16:21:23</time>
      </trkpt>
      <trkpt lat="29.06861" lon="-13.54165">
        <ele>321.2</ele>
        <time>2021-07-03 16:21:24</time>
      </trkpt>
      <trkpt lat="29.06859" lon="-13.54169">
        <ele>321.2</ele>
        <time>2021-07-03 16:21:25</time>
      </trkpt>
      <trkpt lat="29.06857" lon="-13.54174">
        <ele>321.2</ele>
        <time>2021-07-03 16:21:26</time>
      </trkpt>
      <trkpt lat="29.06855" lon="-13.54179">
        <ele>321</ele>
        <time>2021-07-03 16:21:27</time>
      </trkpt>
      <trkpt lat="29.06853" lon="-13.54185">
        <ele>320.6</ele>
        <time>2021-07-03 16:21:28</time>
      </trkpt>
      <trkpt lat="29.06851" lon="-13.54191">
        <ele>320.2</ele>
        <time>2021-07-03 16:21:29</time>
      </trkpt>
      <trkpt lat="29.06849" lon="-13.54197">
        <ele>319.8</ele>
        <time>2021-07-03 16:21:30</time>
      </trkpt>
      <trkpt lat="29.06846" lon="-13.54204">
        <ele>319</ele>
        <time>2021-07-03 16:21:31</time>
      </trkpt>
      <trkpt lat="29.06844" lon="-13.54212">
        <ele>318.4</ele>
        <time>2021-07-03 16:21:32</time>
      </trkpt>
      <trkpt lat="29.06842" lon="-13.54219">
        <ele>317.8</ele>
        <time>2021-07-03 16:21:33</time>
      </trkpt>
      <trkpt lat="29.06839" lon="-13.54226">
        <ele>317.2</ele>
        <time>2021-07-03 16:21:34</time>
      </trkpt>
      <trkpt lat="29.06835" lon="-13.54234">
        <ele>316.4</ele>
        <time>2021-07-03 16:21:35</time>
      </trkpt>
      <trkpt lat="29.06832" lon="-13.54242">
        <ele>315.6</ele>
        <time>2021-07-03 16:21:36</time>
      </trkpt>
      <trkpt lat="29.06829" lon="-13.54249">
        <ele>315.2</ele>
        <time>2021-07-03 16:21:37</time>
      </trkpt>
      <trkpt lat="29.06826" lon="-13.54255">
        <ele>314.6</ele>
        <time>2021-07-03 16:21:38</time>
      </trkpt>
      <trkpt lat="29.06824" lon="-13.54261">
        <ele>314</ele>
        <time>2021-07-03 16:21:39</time>
      </trkpt>
      <trkpt lat="29.06821" lon="-13.54267">
        <ele>313.6</ele>
        <time>2021-07-03 16:21:40</time>
      </trkpt>
      <trkpt lat="29.06818" lon="-13.54272">
        <ele>313.2</ele>
        <time>2021-07-03 16:21:41</time>
      </trkpt>
      <trkpt lat="29.06815" lon="-13.54276">
        <ele>312.8</ele>
        <time>2021-07-03 16:21:42</time>
      </trkpt>
      <trkpt lat="29.06813" lon="-13.5428">
        <ele>312.6</ele>
        <time>2021-07-03 16:21:43</time>
      </trkpt>
      <trkpt lat="29.06811" lon="-13.54285">
        <ele>312.4</ele>
        <time>2021-07-03 16:21:44</time>
      </trkpt>
      <trkpt lat="29.0681" lon="-13.54288">
        <ele>312.4</ele>
        <time>2021-07-03 16:21:45</time>
      </trkpt>
      <trkpt lat="29.06809" lon="-13.5429">
        <ele>312.2</ele>
        <time>2021-07-03 16:21:46</time>
      </trkpt>
      <trkpt lat="29.06807" lon="-13.54293">
        <ele>312.2</ele>
        <time>2021-07-03 16:21:47</time>
      </trkpt>
      <trkpt lat="29.06807" lon="-13.54296">
        <ele>312.2</ele>
        <time>2021-07-03 16:21:48</time>
      </trkpt>
      <trkpt lat="29.06805" lon="-13.543">
        <ele>311.8</ele>
        <time>2021-07-03 16:21:49</time>
      </trkpt>
      <trkpt lat="29.06804" lon="-13.54303">
        <ele>311.8</ele>
        <time>2021-07-03 16:21:50</time>
      </trkpt>
      <trkpt lat="29.06804" lon="-13.54307">
        <ele>311.6</ele>
        <time>2021-07-03 16:21:51</time>
      </trkpt>
      <trkpt lat="29.06803" lon="-13.5431">
        <ele>311.6</ele>
        <time>2021-07-03 16:21:52</time>
      </trkpt>
      <trkpt lat="29.06801" lon="-13.54314">
        <ele>311.6</ele>
        <time>2021-07-03 16:21:53</time>
      </trkpt>
      <trkpt lat="29.068" lon="-13.54317">
        <ele>311.6</ele>
        <time>2021-07-03 16:21:54</time>
      </trkpt>
      <trkpt lat="29.06799" lon="-13.54321">
        <ele>311.6</ele>
        <time>2021-07-03 16:21:55</time>
      </trkpt>
      <trkpt lat="29.06798" lon="-13.54324">
        <ele>311.6</ele>
        <time>2021-07-03 16:21:56</time>
      </trkpt>
      <trkpt lat="29.06797" lon="-13.54328">
        <ele>311.8</ele>
        <time>2021-07-03 16:21:57</time>
      </trkpt>
      <trkpt lat="29.06795" lon="-13.54331">
        <ele>311.8</ele>
        <time>2021-07-03 16:21:58</time>
      </trkpt>
      <trkpt lat="29.06794" lon="-13.54335">
        <ele>311.6</ele>
        <time>2021-07-03 16:21:59</time>
      </trkpt>
      <trkpt lat="29.06793" lon="-13.54338">
        <ele>311.2</ele>
        <time>2021-07-03 16:22:00</time>
      </trkpt>
      <trkpt lat="29.06791" lon="-13.54342">
        <ele>311</ele>
        <time>2021-07-03 16:22:01</time>
      </trkpt>
      <trkpt lat="29.0679" lon="-13.54347">
        <ele>310.6</ele>
        <time>2021-07-03 16:22:02</time>
      </trkpt>
      <trkpt lat="29.06788" lon="-13.54351">
        <ele>310.4</ele>
        <time>2021-07-03 16:22:03</time>
      </trkpt>
      <trkpt lat="29.06786" lon="-13.54355">
        <ele>310.4</ele>
        <time>2021-07-03 16:22:04</time>
      </trkpt>
      <trkpt lat="29.06783" lon="-13.5436">
        <ele>310.4</ele>
        <time>2021-07-03 16:22:05</time>
      </trkpt>
      <trkpt lat="29.06781" lon="-13.54365">
        <ele>310.4</ele>
        <time>2021-07-03 16:22:06</time>
      </trkpt>
      <trkpt lat="29.06778" lon="-13.54369">
        <ele>310.4</ele>
        <time>2021-07-03 16:22:07</time>
      </trkpt>
      <trkpt lat="29.06775" lon="-13.54373">
        <ele>310.2</ele>
        <time>2021-07-03 16:22:08</time>
      </trkpt>
      <trkpt lat="29.06772" lon="-13.54378">
        <ele>310.2</ele>
        <time>2021-07-03 16:22:09</time>
      </trkpt>
      <trkpt lat="29.06769" lon="-13.54382">
        <ele>310.2</ele>
        <time>2021-07-03 16:22:10</time>
      </trkpt>
      <trkpt lat="29.06767" lon="-13.54386">
        <ele>310</ele>
        <time>2021-07-03 16:22:11</time>
      </trkpt>
      <trkpt lat="29.06764" lon="-13.54391">
        <ele>310</ele>
        <time>2021-07-03 16:22:12</time>
      </trkpt>
      <trkpt lat="29.06761" lon="-13.54395">
        <ele>310</ele>
        <time>2021-07-03 16:22:13</time>
      </trkpt>
      <trkpt lat="29.06759" lon="-13.544">
        <ele>310</ele>
        <time>2021-07-03 16:22:14</time>
      </trkpt>
      <trkpt lat="29.06755" lon="-13.54404">
        <ele>310</ele>
        <time>2021-07-03 16:22:15</time>
      </trkpt>
      <trkpt lat="29.06753" lon="-13.54409">
        <ele>310</ele>
        <time>2021-07-03 16:22:16</time>
      </trkpt>
      <trkpt lat="29.06751" lon="-13.54414">
        <ele>310</ele>
        <time>2021-07-03 16:22:17</time>
      </trkpt>
      <trkpt lat="29.06748" lon="-13.54418">
        <ele>310</ele>
        <time>2021-07-03 16:22:18</time>
      </trkpt>
      <trkpt lat="29.06745" lon="-13.54422">
        <ele>310</ele>
        <time>2021-07-03 16:22:19</time>
      </trkpt>
      <trkpt lat="29.06742" lon="-13.54427">
        <ele>310</ele>
        <time>2021-07-03 16:22:20</time>
      </trkpt>
      <trkpt lat="29.0674" lon="-13.54431">
        <ele>310</ele>
        <time>2021-07-03 16:22:21</time>
      </trkpt>
      <trkpt lat="29.06738" lon="-13.54436">
        <ele>310</ele>
        <time>2021-07-03 16:22:22</time>
      </trkpt>
      <trkpt lat="29.06736" lon="-13.54441">
        <ele>310.2</ele>
        <time>2021-07-03 16:22:23</time>
      </trkpt>
      <trkpt lat="29.06734" lon="-13.54445">
        <ele>310.2</ele>
        <time>2021-07-03 16:22:24</time>
      </trkpt>
      <trkpt lat="29.06731" lon="-13.5445">
        <ele>310.2</ele>
        <time>2021-07-03 16:22:25</time>
      </trkpt>
      <trkpt lat="29.0673" lon="-13.54455">
        <ele>310.2</ele>
        <time>2021-07-03 16:22:26</time>
      </trkpt>
      <trkpt lat="29.06727" lon="-13.5446">
        <ele>310.2</ele>
        <time>2021-07-03 16:22:27</time>
      </trkpt>
      <trkpt lat="29.06725" lon="-13.54465">
        <ele>310.2</ele>
        <time>2021-07-03 16:22:28</time>
      </trkpt>
      <trkpt lat="29.06723" lon="-13.5447">
        <ele>310</ele>
        <time>2021-07-03 16:22:29</time>
      </trkpt>
      <trkpt lat="29.06721" lon="-13.54475">
        <ele>310</ele>
        <time>2021-07-03 16:22:30</time>
      </trkpt>
      <trkpt lat="29.06719" lon="-13.5448">
        <ele>310</ele>
        <time>2021-07-03 16:22:31</time>
      </trkpt>
      <trkpt lat="29.06717" lon="-13.54485">
        <ele>310</ele>
        <time>2021-07-03 16:22:32</time>
      </trkpt>
      <trkpt lat="29.06715" lon="-13.5449">
        <ele>310</ele>
        <time>2021-07-03 16:22:33</time>
      </trkpt>
      <trkpt lat="29.06713" lon="-13.54495">
        <ele>310</ele>
        <time>2021-07-03 16:22:34</time>
      </trkpt>
      <trkpt lat="29.06712" lon="-13.54501">
        <ele>310</ele>
        <time>2021-07-03 16:22:35</time>
      </trkpt>
      <trkpt lat="29.0671" lon="-13.54505">
        <ele>310</ele>
        <time>2021-07-03 16:22:36</time>
      </trkpt>
      <trkpt lat="29.06709" lon="-13.5451">
        <ele>310.2</ele>
        <time>2021-07-03 16:22:37</time>
      </trkpt>
      <trkpt lat="29.06708" lon="-13.54515">
        <ele>310.2</ele>
        <time>2021-07-03 16:22:38</time>
      </trkpt>
      <trkpt lat="29.06706" lon="-13.5452">
        <ele>310.6</ele>
        <time>2021-07-03 16:22:39</time>
      </trkpt>
      <trkpt lat="29.06705" lon="-13.54525">
        <ele>310.6</ele>
        <time>2021-07-03 16:22:40</time>
      </trkpt>
      <trkpt lat="29.06703" lon="-13.5453">
        <ele>310.8</ele>
        <time>2021-07-03 16:22:41</time>
      </trkpt>
      <trkpt lat="29.06702" lon="-13.54534">
        <ele>310.8</ele>
        <time>2021-07-03 16:22:42</time>
      </trkpt>
      <trkpt lat="29.067" lon="-13.54539">
        <ele>311.2</ele>
        <time>2021-07-03 16:22:43</time>
      </trkpt>
      <trkpt lat="29.06699" lon="-13.54544">
        <ele>311.2</ele>
        <time>2021-07-03 16:22:44</time>
      </trkpt>
      <trkpt lat="29.06697" lon="-13.54549">
        <ele>311.4</ele>
        <time>2021-07-03 16:22:45</time>
      </trkpt>
      <trkpt lat="29.06696" lon="-13.54553">
        <ele>311.4</ele>
        <time>2021-07-03 16:22:46</time>
      </trkpt>
      <trkpt lat="29.06695" lon="-13.54558">
        <ele>311.6</ele>
        <time>2021-07-03 16:22:47</time>
      </trkpt>
      <trkpt lat="29.06694" lon="-13.54563">
        <ele>311.6</ele>
        <time>2021-07-03 16:22:48</time>
      </trkpt>
      <trkpt lat="29.06693" lon="-13.54568">
        <ele>312</ele>
        <time>2021-07-03 16:22:49</time>
      </trkpt>
      <trkpt lat="29.06692" lon="-13.54572">
        <ele>312</ele>
        <time>2021-07-03 16:22:50</time>
      </trkpt>
      <trkpt lat="29.06692" lon="-13.54576">
        <ele>312</ele>
        <time>2021-07-03 16:22:51</time>
      </trkpt>
      <trkpt lat="29.06691" lon="-13.5458">
        <ele>312</ele>
        <time>2021-07-03 16:22:52</time>
      </trkpt>
      <trkpt lat="29.0669" lon="-13.54584">
        <ele>312</ele>
        <time>2021-07-03 16:22:53</time>
      </trkpt>
      <trkpt lat="29.06689" lon="-13.54589">
        <ele>312.2</ele>
        <time>2021-07-03 16:22:54</time>
      </trkpt>
      <trkpt lat="29.06688" lon="-13.54594">
        <ele>312.2</ele>
        <time>2021-07-03 16:22:55</time>
      </trkpt>
      <trkpt lat="29.06688" lon="-13.54598">
        <ele>312.2</ele>
        <time>2021-07-03 16:22:56</time>
      </trkpt>
      <trkpt lat="29.06687" lon="-13.54602">
        <ele>312.4</ele>
        <time>2021-07-03 16:22:57</time>
      </trkpt>
      <trkpt lat="29.06686" lon="-13.54606">
        <ele>312.4</ele>
        <time>2021-07-03 16:22:58</time>
      </trkpt>
      <trkpt lat="29.06686" lon="-13.54609">
        <ele>312.4</ele>
        <time>2021-07-03 16:22:59</time>
      </trkpt>
      <trkpt lat="29.06685" lon="-13.54613">
        <ele>312.6</ele>
        <time>2021-07-03 16:23:00</time>
      </trkpt>
      <trkpt lat="29.06685" lon="-13.54617">
        <ele>312.6</ele>
        <time>2021-07-03 16:23:01</time>
      </trkpt>
      <trkpt lat="29.06684" lon="-13.54621">
        <ele>312.8</ele>
        <time>2021-07-03 16:23:02</time>
      </trkpt>
      <trkpt lat="29.06683" lon="-13.54626">
        <ele>312.8</ele>
        <time>2021-07-03 16:23:03</time>
      </trkpt>
      <trkpt lat="29.06683" lon="-13.5463">
        <ele>313</ele>
        <time>2021-07-03 16:23:04</time>
      </trkpt>
      <trkpt lat="29.06682" lon="-13.54635">
        <ele>313</ele>
        <time>2021-07-03 16:23:05</time>
      </trkpt>
      <trkpt lat="29.06681" lon="-13.54639">
        <ele>313</ele>
        <time>2021-07-03 16:23:06</time>
      </trkpt>
      <trkpt lat="29.0668" lon="-13.54643">
        <ele>313.4</ele>
        <time>2021-07-03 16:23:07</time>
      </trkpt>
      <trkpt lat="29.06679" lon="-13.54647">
        <ele>313.4</ele>
        <time>2021-07-03 16:23:08</time>
      </trkpt>
      <trkpt lat="29.06678" lon="-13.54652">
        <ele>313.4</ele>
        <time>2021-07-03 16:23:09</time>
      </trkpt>
      <trkpt lat="29.06677" lon="-13.54656">
        <ele>313.4</ele>
        <time>2021-07-03 16:23:10</time>
      </trkpt>
      <trkpt lat="29.06675" lon="-13.54661">
        <ele>313.4</ele>
        <time>2021-07-03 16:23:11</time>
      </trkpt>
      <trkpt lat="29.06674" lon="-13.54665">
        <ele>313.4</ele>
        <time>2021-07-03 16:23:12</time>
      </trkpt>
      <trkpt lat="29.06673" lon="-13.5467">
        <ele>313.4</ele>
        <time>2021-07-03 16:23:13</time>
      </trkpt>
      <trkpt lat="29.06672" lon="-13.54675">
        <ele>313.4</ele>
        <time>2021-07-03 16:23:14</time>
      </trkpt>
      <trkpt lat="29.0667" lon="-13.54679">
        <ele>313.4</ele>
        <time>2021-07-03 16:23:15</time>
      </trkpt>
      <trkpt lat="29.06669" lon="-13.54684">
        <ele>313.4</ele>
        <time>2021-07-03 16:23:16</time>
      </trkpt>
      <trkpt lat="29.06667" lon="-13.54688">
        <ele>313.4</ele>
        <time>2021-07-03 16:23:17</time>
      </trkpt>
      <trkpt lat="29.06666" lon="-13.54693">
        <ele>313.4</ele>
        <time>2021-07-03 16:23:18</time>
      </trkpt>
      <trkpt lat="29.06665" lon="-13.54697">
        <ele>313.4</ele>
        <time>2021-07-03 16:23:19</time>
      </trkpt>
      <trkpt lat="29.06664" lon="-13.54702">
        <ele>313.4</ele>
        <time>2021-07-03 16:23:20</time>
      </trkpt>
      <trkpt lat="29.06663" lon="-13.54706">
        <ele>313.4</ele>
        <time>2021-07-03 16:23:21</time>
      </trkpt>
      <trkpt lat="29.06662" lon="-13.54711">
        <ele>313.2</ele>
        <time>2021-07-03 16:23:22</time>
      </trkpt>
      <trkpt lat="29.06661" lon="-13.54715">
        <ele>313.2</ele>
        <time>2021-07-03 16:23:23</time>
      </trkpt>
      <trkpt lat="29.0666" lon="-13.5472">
        <ele>313.2</ele>
        <time>2021-07-03 16:23:24</time>
      </trkpt>
      <trkpt lat="29.06658" lon="-13.54725">
        <ele>313.2</ele>
        <time>2021-07-03 16:23:25</time>
      </trkpt>
      <trkpt lat="29.06657" lon="-13.54729">
        <ele>313</ele>
        <time>2021-07-03 16:23:26</time>
      </trkpt>
      <trkpt lat="29.06656" lon="-13.54734">
        <ele>313</ele>
        <time>2021-07-03 16:23:27</time>
      </trkpt>
      <trkpt lat="29.06655" lon="-13.54739">
        <ele>313</ele>
        <time>2021-07-03 16:23:28</time>
      </trkpt>
      <trkpt lat="29.06653" lon="-13.54744">
        <ele>312.8</ele>
        <time>2021-07-03 16:23:29</time>
      </trkpt>
      <trkpt lat="29.06652" lon="-13.54748">
        <ele>312.8</ele>
        <time>2021-07-03 16:23:30</time>
      </trkpt>
      <trkpt lat="29.0665" lon="-13.54753">
        <ele>312.8</ele>
        <time>2021-07-03 16:23:31</time>
      </trkpt>
      <trkpt lat="29.06649" lon="-13.54757">
        <ele>312.8</ele>
        <time>2021-07-03 16:23:32</time>
      </trkpt>
      <trkpt lat="29.06648" lon="-13.54762">
        <ele>312.8</ele>
        <time>2021-07-03 16:23:33</time>
      </trkpt>
      <trkpt lat="29.06648" lon="-13.54767">
        <ele>312.8</ele>
        <time>2021-07-03 16:23:34</time>
      </trkpt>
      <trkpt lat="29.06648" lon="-13.54771">
        <ele>312.8</ele>
        <time>2021-07-03 16:23:35</time>
      </trkpt>
      <trkpt lat="29.06647" lon="-13.54776">
        <ele>312.8</ele>
        <time>2021-07-03 16:23:36</time>
      </trkpt>
      <trkpt lat="29.06647" lon="-13.54781">
        <ele>313</ele>
        <time>2021-07-03 16:23:37</time>
      </trkpt>
      <trkpt lat="29.06646" lon="-13.54786">
        <ele>313</ele>
        <time>2021-07-03 16:23:38</time>
      </trkpt>
      <trkpt lat="29.06646" lon="-13.5479">
        <ele>313</ele>
        <time>2021-07-03 16:23:39</time>
      </trkpt>
      <trkpt lat="29.06645" lon="-13.54794">
        <ele>313</ele>
        <time>2021-07-03 16:23:40</time>
      </trkpt>
      <trkpt lat="29.06645" lon="-13.54799">
        <ele>313</ele>
        <time>2021-07-03 16:23:41</time>
      </trkpt>
      <trkpt lat="29.06645" lon="-13.54803">
        <ele>313</ele>
        <time>2021-07-03 16:23:42</time>
      </trkpt>
      <trkpt lat="29.06645" lon="-13.54807">
        <ele>313</ele>
        <time>2021-07-03 16:23:43</time>
      </trkpt>
      <trkpt lat="29.06644" lon="-13.54812">
        <ele>313</ele>
        <time>2021-07-03 16:23:44</time>
      </trkpt>
      <trkpt lat="29.06644" lon="-13.54816">
        <ele>313</ele>
        <time>2021-07-03 16:23:45</time>
      </trkpt>
      <trkpt lat="29.06643" lon="-13.5482">
        <ele>313</ele>
        <time>2021-07-03 16:23:46</time>
      </trkpt>
      <trkpt lat="29.06643" lon="-13.54825">
        <ele>313</ele>
        <time>2021-07-03 16:23:47</time>
      </trkpt>
      <trkpt lat="29.06642" lon="-13.54829">
        <ele>313.2</ele>
        <time>2021-07-03 16:23:48</time>
      </trkpt>
      <trkpt lat="29.06641" lon="-13.54832">
        <ele>313.2</ele>
        <time>2021-07-03 16:23:49</time>
      </trkpt>
      <trkpt lat="29.06641" lon="-13.54836">
        <ele>313.2</ele>
        <time>2021-07-03 16:23:50</time>
      </trkpt>
      <trkpt lat="29.0664" lon="-13.5484">
        <ele>313.2</ele>
        <time>2021-07-03 16:23:51</time>
      </trkpt>
      <trkpt lat="29.06639" lon="-13.54844">
        <ele>313.4</ele>
        <time>2021-07-03 16:23:52</time>
      </trkpt>
      <trkpt lat="29.06638" lon="-13.54848">
        <ele>313.4</ele>
        <time>2021-07-03 16:23:53</time>
      </trkpt>
      <trkpt lat="29.06637" lon="-13.54853">
        <ele>313.4</ele>
        <time>2021-07-03 16:23:54</time>
      </trkpt>
      <trkpt lat="29.06637" lon="-13.54857">
        <ele>313.4</ele>
        <time>2021-07-03 16:23:55</time>
      </trkpt>
      <trkpt lat="29.06636" lon="-13.54862">
        <ele>313.4</ele>
        <time>2021-07-03 16:23:56</time>
      </trkpt>
      <trkpt lat="29.06635" lon="-13.54866">
        <ele>313.8</ele>
        <time>2021-07-03 16:23:57</time>
      </trkpt>
      <trkpt lat="29.06635" lon="-13.54871">
        <ele>313.8</ele>
        <time>2021-07-03 16:23:58</time>
      </trkpt>
      <trkpt lat="29.06634" lon="-13.54876">
        <ele>313.8</ele>
        <time>2021-07-03 16:23:59</time>
      </trkpt>
      <trkpt lat="29.06633" lon="-13.54882">
        <ele>314</ele>
        <time>2021-07-03 16:24:00</time>
      </trkpt>
      <trkpt lat="29.06632" lon="-13.54886">
        <ele>314</ele>
        <time>2021-07-03 16:24:01</time>
      </trkpt>
      <trkpt lat="29.06632" lon="-13.5489">
        <ele>314</ele>
        <time>2021-07-03 16:24:02</time>
      </trkpt>
      <trkpt lat="29.06631" lon="-13.54895">
        <ele>314</ele>
        <time>2021-07-03 16:24:03</time>
      </trkpt>
      <trkpt lat="29.0663" lon="-13.54899">
        <ele>314</ele>
        <time>2021-07-03 16:24:04</time>
      </trkpt>
      <trkpt lat="29.0663" lon="-13.54904">
        <ele>314</ele>
        <time>2021-07-03 16:24:05</time>
      </trkpt>
      <trkpt lat="29.06629" lon="-13.54908">
        <ele>314</ele>
        <time>2021-07-03 16:24:06</time>
      </trkpt>
      <trkpt lat="29.06629" lon="-13.54913">
        <ele>314.2</ele>
        <time>2021-07-03 16:24:07</time>
      </trkpt>
      <trkpt lat="29.06629" lon="-13.54917">
        <ele>314.2</ele>
        <time>2021-07-03 16:24:08</time>
      </trkpt>
      <trkpt lat="29.06629" lon="-13.54922">
        <ele>314.4</ele>
        <time>2021-07-03 16:24:09</time>
      </trkpt>
      <trkpt lat="29.06628" lon="-13.54926">
        <ele>314.4</ele>
        <time>2021-07-03 16:24:10</time>
      </trkpt>
      <trkpt lat="29.06628" lon="-13.5493">
        <ele>314.6</ele>
        <time>2021-07-03 16:24:11</time>
      </trkpt>
      <trkpt lat="29.06627" lon="-13.54935">
        <ele>314.6</ele>
        <time>2021-07-03 16:24:12</time>
      </trkpt>
      <trkpt lat="29.06626" lon="-13.54939">
        <ele>314.6</ele>
        <time>2021-07-03 16:24:13</time>
      </trkpt>
      <trkpt lat="29.06626" lon="-13.54944">
        <ele>314.8</ele>
        <time>2021-07-03 16:24:14</time>
      </trkpt>
      <trkpt lat="29.06625" lon="-13.54948">
        <ele>315</ele>
        <time>2021-07-03 16:24:15</time>
      </trkpt>
      <trkpt lat="29.06624" lon="-13.54953">
        <ele>315</ele>
        <time>2021-07-03 16:24:16</time>
      </trkpt>
      <trkpt lat="29.06623" lon="-13.54957">
        <ele>315</ele>
        <time>2021-07-03 16:24:17</time>
      </trkpt>
      <trkpt lat="29.06622" lon="-13.54961">
        <ele>315.4</ele>
        <time>2021-07-03 16:24:18</time>
      </trkpt>
      <trkpt lat="29.06621" lon="-13.54965">
        <ele>315.4</ele>
        <time>2021-07-03 16:24:19</time>
      </trkpt>
      <trkpt lat="29.0662" lon="-13.5497">
        <ele>315.4</ele>
        <time>2021-07-03 16:24:20</time>
      </trkpt>
      <trkpt lat="29.06618" lon="-13.54974">
        <ele>315.4</ele>
        <time>2021-07-03 16:24:21</time>
      </trkpt>
      <trkpt lat="29.06617" lon="-13.54978">
        <ele>315.4</ele>
        <time>2021-07-03 16:24:22</time>
      </trkpt>
      <trkpt lat="29.06616" lon="-13.54983">
        <ele>315.4</ele>
        <time>2021-07-03 16:24:23</time>
      </trkpt>
      <trkpt lat="29.06615" lon="-13.54987">
        <ele>315.4</ele>
        <time>2021-07-03 16:24:24</time>
      </trkpt>
      <trkpt lat="29.06613" lon="-13.54992">
        <ele>315.4</ele>
        <time>2021-07-03 16:24:25</time>
      </trkpt>
      <trkpt lat="29.06612" lon="-13.54997">
        <ele>315.6</ele>
        <time>2021-07-03 16:24:26</time>
      </trkpt>
      <trkpt lat="29.06611" lon="-13.55001">
        <ele>315.6</ele>
        <time>2021-07-03 16:24:27</time>
      </trkpt>
      <trkpt lat="29.0661" lon="-13.55006">
        <ele>315.6</ele>
        <time>2021-07-03 16:24:28</time>
      </trkpt>
      <trkpt lat="29.06609" lon="-13.55011">
        <ele>315.6</ele>
        <time>2021-07-03 16:24:29</time>
      </trkpt>
      <trkpt lat="29.06608" lon="-13.55015">
        <ele>315.6</ele>
        <time>2021-07-03 16:24:30</time>
      </trkpt>
      <trkpt lat="29.06607" lon="-13.5502">
        <ele>315.6</ele>
        <time>2021-07-03 16:24:31</time>
      </trkpt>
      <trkpt lat="29.06606" lon="-13.55025">
        <ele>315.6</ele>
        <time>2021-07-03 16:24:32</time>
      </trkpt>
      <trkpt lat="29.06605" lon="-13.5503">
        <ele>315.6</ele>
        <time>2021-07-03 16:24:33</time>
      </trkpt>
      <trkpt lat="29.06604" lon="-13.55034">
        <ele>315.8</ele>
        <time>2021-07-03 16:24:34</time>
      </trkpt>
      <trkpt lat="29.06603" lon="-13.55039">
        <ele>315.8</ele>
        <time>2021-07-03 16:24:35</time>
      </trkpt>
      <trkpt lat="29.06602" lon="-13.55043">
        <ele>315.8</ele>
        <time>2021-07-03 16:24:36</time>
      </trkpt>
      <trkpt lat="29.06601" lon="-13.55048">
        <ele>315.8</ele>
        <time>2021-07-03 16:24:37</time>
      </trkpt>
      <trkpt lat="29.066" lon="-13.55053">
        <ele>315.8</ele>
        <time>2021-07-03 16:24:38</time>
      </trkpt>
      <trkpt lat="29.06599" lon="-13.55057">
        <ele>316</ele>
        <time>2021-07-03 16:24:39</time>
      </trkpt>
      <trkpt lat="29.06598" lon="-13.55062">
        <ele>316</ele>
        <time>2021-07-03 16:24:40</time>
      </trkpt>
      <trkpt lat="29.06596" lon="-13.55067">
        <ele>316.2</ele>
        <time>2021-07-03 16:24:41</time>
      </trkpt>
      <trkpt lat="29.06595" lon="-13.55071">
        <ele>316.2</ele>
        <time>2021-07-03 16:24:42</time>
      </trkpt>
      <trkpt lat="29.06593" lon="-13.55076">
        <ele>316.2</ele>
        <time>2021-07-03 16:24:43</time>
      </trkpt>
      <trkpt lat="29.06592" lon="-13.5508">
        <ele>316.2</ele>
        <time>2021-07-03 16:24:44</time>
      </trkpt>
      <trkpt lat="29.0659" lon="-13.55085">
        <ele>316.4</ele>
        <time>2021-07-03 16:24:45</time>
      </trkpt>
      <trkpt lat="29.06588" lon="-13.55089">
        <ele>316.4</ele>
        <time>2021-07-03 16:24:46</time>
      </trkpt>
      <trkpt lat="29.06587" lon="-13.55093">
        <ele>316.4</ele>
        <time>2021-07-03 16:24:47</time>
      </trkpt>
      <trkpt lat="29.06585" lon="-13.55098">
        <ele>316.4</ele>
        <time>2021-07-03 16:24:48</time>
      </trkpt>
      <trkpt lat="29.06583" lon="-13.55102">
        <ele>316.6</ele>
        <time>2021-07-03 16:24:49</time>
      </trkpt>
      <trkpt lat="29.06581" lon="-13.55106">
        <ele>316.6</ele>
        <time>2021-07-03 16:24:50</time>
      </trkpt>
      <trkpt lat="29.06579" lon="-13.5511">
        <ele>316.6</ele>
        <time>2021-07-03 16:24:51</time>
      </trkpt>
      <trkpt lat="29.06577" lon="-13.55114">
        <ele>316.8</ele>
        <time>2021-07-03 16:24:52</time>
      </trkpt>
      <trkpt lat="29.06575" lon="-13.55117">
        <ele>316.8</ele>
        <time>2021-07-03 16:24:53</time>
      </trkpt>
      <trkpt lat="29.06572" lon="-13.55121">
        <ele>316.8</ele>
        <time>2021-07-03 16:24:54</time>
      </trkpt>
      <trkpt lat="29.0657" lon="-13.55125">
        <ele>316.8</ele>
        <time>2021-07-03 16:24:55</time>
      </trkpt>
      <trkpt lat="29.06568" lon="-13.55128">
        <ele>317.2</ele>
        <time>2021-07-03 16:24:56</time>
      </trkpt>
      <trkpt lat="29.06566" lon="-13.55132">
        <ele>317.2</ele>
        <time>2021-07-03 16:24:57</time>
      </trkpt>
      <trkpt lat="29.06565" lon="-13.55136">
        <ele>317.4</ele>
        <time>2021-07-03 16:24:58</time>
      </trkpt>
      <trkpt lat="29.06563" lon="-13.55139">
        <ele>317.4</ele>
        <time>2021-07-03 16:24:59</time>
      </trkpt>
      <trkpt lat="29.06561" lon="-13.55143">
        <ele>317.8</ele>
        <time>2021-07-03 16:25:00</time>
      </trkpt>
      <trkpt lat="29.06559" lon="-13.55146">
        <ele>317.8</ele>
        <time>2021-07-03 16:25:01</time>
      </trkpt>
      <trkpt lat="29.06558" lon="-13.5515">
        <ele>317.8</ele>
        <time>2021-07-03 16:25:02</time>
      </trkpt>
      <trkpt lat="29.06556" lon="-13.55154">
        <ele>317.8</ele>
        <time>2021-07-03 16:25:03</time>
      </trkpt>
      <trkpt lat="29.06555" lon="-13.55158">
        <ele>318</ele>
        <time>2021-07-03 16:25:04</time>
      </trkpt>
      <trkpt lat="29.06553" lon="-13.55162">
        <ele>318</ele>
        <time>2021-07-03 16:25:05</time>
      </trkpt>
      <trkpt lat="29.06551" lon="-13.55165">
        <ele>318</ele>
        <time>2021-07-03 16:25:06</time>
      </trkpt>
      <trkpt lat="29.0655" lon="-13.55169">
        <ele>318</ele>
        <time>2021-07-03 16:25:07</time>
      </trkpt>
      <trkpt lat="29.06549" lon="-13.55173">
        <ele>318.4</ele>
        <time>2021-07-03 16:25:08</time>
      </trkpt>
      <trkpt lat="29.06547" lon="-13.55176">
        <ele>318.6</ele>
        <time>2021-07-03 16:25:09</time>
      </trkpt>
      <trkpt lat="29.06546" lon="-13.5518">
        <ele>318.6</ele>
        <time>2021-07-03 16:25:10</time>
      </trkpt>
      <trkpt lat="29.06545" lon="-13.55183">
        <ele>318.6</ele>
        <time>2021-07-03 16:25:11</time>
      </trkpt>
      <trkpt lat="29.06543" lon="-13.55186">
        <ele>318.8</ele>
        <time>2021-07-03 16:25:12</time>
      </trkpt>
      <trkpt lat="29.06542" lon="-13.5519">
        <ele>319</ele>
        <time>2021-07-03 16:25:13</time>
      </trkpt>
      <trkpt lat="29.06541" lon="-13.55194">
        <ele>319</ele>
        <time>2021-07-03 16:25:14</time>
      </trkpt>
      <trkpt lat="29.06539" lon="-13.55197">
        <ele>319.4</ele>
        <time>2021-07-03 16:25:15</time>
      </trkpt>
      <trkpt lat="29.06537" lon="-13.552">
        <ele>319.4</ele>
        <time>2021-07-03 16:25:16</time>
      </trkpt>
      <trkpt lat="29.06535" lon="-13.55204">
        <ele>319.6</ele>
        <time>2021-07-03 16:25:17</time>
      </trkpt>
      <trkpt lat="29.06533" lon="-13.55207">
        <ele>319.6</ele>
        <time>2021-07-03 16:25:18</time>
      </trkpt>
      <trkpt lat="29.06532" lon="-13.55211">
        <ele>319.6</ele>
        <time>2021-07-03 16:25:19</time>
      </trkpt>
      <trkpt lat="29.0653" lon="-13.55214">
        <ele>319.6</ele>
        <time>2021-07-03 16:25:20</time>
      </trkpt>
      <trkpt lat="29.06528" lon="-13.55218">
        <ele>319.8</ele>
        <time>2021-07-03 16:25:21</time>
      </trkpt>
      <trkpt lat="29.06527" lon="-13.55221">
        <ele>319.8</ele>
        <time>2021-07-03 16:25:22</time>
      </trkpt>
      <trkpt lat="29.06526" lon="-13.55225">
        <ele>320</ele>
        <time>2021-07-03 16:25:23</time>
      </trkpt>
      <trkpt lat="29.06525" lon="-13.55229">
        <ele>320</ele>
        <time>2021-07-03 16:25:24</time>
      </trkpt>
      <trkpt lat="29.06523" lon="-13.55233">
        <ele>320</ele>
        <time>2021-07-03 16:25:25</time>
      </trkpt>
      <trkpt lat="29.06522" lon="-13.55237">
        <ele>320.4</ele>
        <time>2021-07-03 16:25:26</time>
      </trkpt>
      <trkpt lat="29.06521" lon="-13.55241">
        <ele>320.4</ele>
        <time>2021-07-03 16:25:27</time>
      </trkpt>
      <trkpt lat="29.0652" lon="-13.55245">
        <ele>320.6</ele>
        <time>2021-07-03 16:25:28</time>
      </trkpt>
      <trkpt lat="29.06519" lon="-13.55249">
        <ele>320.6</ele>
        <time>2021-07-03 16:25:29</time>
      </trkpt>
      <trkpt lat="29.06518" lon="-13.55252">
        <ele>320.8</ele>
        <time>2021-07-03 16:25:30</time>
      </trkpt>
      <trkpt lat="29.06518" lon="-13.55256">
        <ele>320.8</ele>
        <time>2021-07-03 16:25:31</time>
      </trkpt>
      <trkpt lat="29.06517" lon="-13.55261">
        <ele>321</ele>
        <time>2021-07-03 16:25:32</time>
      </trkpt>
      <trkpt lat="29.06516" lon="-13.55265">
        <ele>321</ele>
        <time>2021-07-03 16:25:33</time>
      </trkpt>
      <trkpt lat="29.06515" lon="-13.55269">
        <ele>321.2</ele>
        <time>2021-07-03 16:25:34</time>
      </trkpt>
      <trkpt lat="29.06514" lon="-13.55273">
        <ele>321.2</ele>
        <time>2021-07-03 16:25:35</time>
      </trkpt>
      <trkpt lat="29.06514" lon="-13.55277">
        <ele>321.2</ele>
        <time>2021-07-03 16:25:36</time>
      </trkpt>
      <trkpt lat="29.06513" lon="-13.55281">
        <ele>321.2</ele>
        <time>2021-07-03 16:25:37</time>
      </trkpt>
      <trkpt lat="29.06512" lon="-13.55285">
        <ele>321.6</ele>
        <time>2021-07-03 16:25:38</time>
      </trkpt>
      <trkpt lat="29.06511" lon="-13.5529">
        <ele>321.6</ele>
        <time>2021-07-03 16:25:39</time>
      </trkpt>
      <trkpt lat="29.0651" lon="-13.55294">
        <ele>321.6</ele>
        <time>2021-07-03 16:25:40</time>
      </trkpt>
      <trkpt lat="29.06509" lon="-13.55298">
        <ele>321.6</ele>
        <time>2021-07-03 16:25:41</time>
      </trkpt>
      <trkpt lat="29.06508" lon="-13.55301">
        <ele>321.8</ele>
        <time>2021-07-03 16:25:42</time>
      </trkpt>
      <trkpt lat="29.06507" lon="-13.55305">
        <ele>321.8</ele>
        <time>2021-07-03 16:25:43</time>
      </trkpt>
      <trkpt lat="29.06506" lon="-13.55308">
        <ele>321.8</ele>
        <time>2021-07-03 16:25:44</time>
      </trkpt>
      <trkpt lat="29.06505" lon="-13.55311">
        <ele>322.2</ele>
        <time>2021-07-03 16:25:45</time>
      </trkpt>
      <trkpt lat="29.06504" lon="-13.55315">
        <ele>322.2</ele>
        <time>2021-07-03 16:25:46</time>
      </trkpt>
      <trkpt lat="29.06503" lon="-13.55318">
        <ele>322.6</ele>
        <time>2021-07-03 16:25:47</time>
      </trkpt>
      <trkpt lat="29.06501" lon="-13.55322">
        <ele>322.6</ele>
        <time>2021-07-03 16:25:48</time>
      </trkpt>
      <trkpt lat="29.065" lon="-13.55326">
        <ele>322.6</ele>
        <time>2021-07-03 16:25:49</time>
      </trkpt>
      <trkpt lat="29.06498" lon="-13.55329">
        <ele>322.8</ele>
        <time>2021-07-03 16:25:50</time>
      </trkpt>
      <trkpt lat="29.06496" lon="-13.55332">
        <ele>322.8</ele>
        <time>2021-07-03 16:25:51</time>
      </trkpt>
      <trkpt lat="29.06495" lon="-13.55335">
        <ele>322.8</ele>
        <time>2021-07-03 16:25:52</time>
      </trkpt>
      <trkpt lat="29.06494" lon="-13.55338">
        <ele>322.8</ele>
        <time>2021-07-03 16:25:53</time>
      </trkpt>
      <trkpt lat="29.06493" lon="-13.55341">
        <ele>322.8</ele>
        <time>2021-07-03 16:25:54</time>
      </trkpt>
      <trkpt lat="29.06491" lon="-13.55345">
        <ele>322.8</ele>
        <time>2021-07-03 16:25:55</time>
      </trkpt>
      <trkpt lat="29.06489" lon="-13.55348">
        <ele>322.8</ele>
        <time>2021-07-03 16:25:56</time>
      </trkpt>
      <trkpt lat="29.06487" lon="-13.55351">
        <ele>322.8</ele>
        <time>2021-07-03 16:25:57</time>
      </trkpt>
      <trkpt lat="29.06485" lon="-13.55354">
        <ele>322.4</ele>
        <time>2021-07-03 16:25:58</time>
      </trkpt>
      <trkpt lat="29.06483" lon="-13.55357">
        <ele>322.2</ele>
        <time>2021-07-03 16:25:59</time>
      </trkpt>
      <trkpt lat="29.06482" lon="-13.55361">
        <ele>322</ele>
        <time>2021-07-03 16:26:00</time>
      </trkpt>
      <trkpt lat="29.0648" lon="-13.55364">
        <ele>322</ele>
        <time>2021-07-03 16:26:01</time>
      </trkpt>
      <trkpt lat="29.06478" lon="-13.55367">
        <ele>321.6</ele>
        <time>2021-07-03 16:26:02</time>
      </trkpt>
      <trkpt lat="29.06477" lon="-13.5537">
        <ele>321.6</ele>
        <time>2021-07-03 16:26:03</time>
      </trkpt>
      <trkpt lat="29.06475" lon="-13.55374">
        <ele>321.6</ele>
        <time>2021-07-03 16:26:04</time>
      </trkpt>
      <trkpt lat="29.06473" lon="-13.55377">
        <ele>321.6</ele>
        <time>2021-07-03 16:26:05</time>
      </trkpt>
      <trkpt lat="29.06471" lon="-13.5538">
        <ele>321.6</ele>
        <time>2021-07-03 16:26:06</time>
      </trkpt>
      <trkpt lat="29.0647" lon="-13.55383">
        <ele>321.6</ele>
        <time>2021-07-03 16:26:07</time>
      </trkpt>
      <trkpt lat="29.06468" lon="-13.55387">
        <ele>321.4</ele>
        <time>2021-07-03 16:26:08</time>
      </trkpt>
      <trkpt lat="29.06466" lon="-13.55391">
        <ele>321.4</ele>
        <time>2021-07-03 16:26:09</time>
      </trkpt>
      <trkpt lat="29.06464" lon="-13.55395">
        <ele>321.4</ele>
        <time>2021-07-03 16:26:10</time>
      </trkpt>
      <trkpt lat="29.06462" lon="-13.55398">
        <ele>321.2</ele>
        <time>2021-07-03 16:26:11</time>
      </trkpt>
      <trkpt lat="29.0646" lon="-13.55402">
        <ele>321.2</ele>
        <time>2021-07-03 16:26:12</time>
      </trkpt>
      <trkpt lat="29.06458" lon="-13.55405">
        <ele>321.2</ele>
        <time>2021-07-03 16:26:13</time>
      </trkpt>
      <trkpt lat="29.06455" lon="-13.55409">
        <ele>321.2</ele>
        <time>2021-07-03 16:26:14</time>
      </trkpt>
      <trkpt lat="29.06453" lon="-13.55412">
        <ele>321.2</ele>
        <time>2021-07-03 16:26:15</time>
      </trkpt>
      <trkpt lat="29.06451" lon="-13.55416">
        <ele>321.2</ele>
        <time>2021-07-03 16:26:16</time>
      </trkpt>
      <trkpt lat="29.06448" lon="-13.55419">
        <ele>321.2</ele>
        <time>2021-07-03 16:26:17</time>
      </trkpt>
      <trkpt lat="29.06446" lon="-13.55423">
        <ele>321.2</ele>
        <time>2021-07-03 16:26:18</time>
      </trkpt>
      <trkpt lat="29.06444" lon="-13.55426">
        <ele>321.2</ele>
        <time>2021-07-03 16:26:19</time>
      </trkpt>
      <trkpt lat="29.06442" lon="-13.5543">
        <ele>320.8</ele>
        <time>2021-07-03 16:26:20</time>
      </trkpt>
      <trkpt lat="29.0644" lon="-13.55433">
        <ele>320.8</ele>
        <time>2021-07-03 16:26:21</time>
      </trkpt>
      <trkpt lat="29.06438" lon="-13.55437">
        <ele>320.8</ele>
        <time>2021-07-03 16:26:22</time>
      </trkpt>
      <trkpt lat="29.06436" lon="-13.5544">
        <ele>320.8</ele>
        <time>2021-07-03 16:26:23</time>
      </trkpt>
      <trkpt lat="29.06434" lon="-13.55443">
        <ele>320.8</ele>
        <time>2021-07-03 16:26:24</time>
      </trkpt>
      <trkpt lat="29.06431" lon="-13.55445">
        <ele>320.8</ele>
        <time>2021-07-03 16:26:25</time>
      </trkpt>
      <trkpt lat="29.06428" lon="-13.55448">
        <ele>320.8</ele>
        <time>2021-07-03 16:26:26</time>
      </trkpt>
      <trkpt lat="29.06425" lon="-13.55451">
        <ele>320.8</ele>
        <time>2021-07-03 16:26:27</time>
      </trkpt>
      <trkpt lat="29.06422" lon="-13.55454">
        <ele>320.8</ele>
        <time>2021-07-03 16:26:28</time>
      </trkpt>
      <trkpt lat="29.06419" lon="-13.55458">
        <ele>320.8</ele>
        <time>2021-07-03 16:26:29</time>
      </trkpt>
      <trkpt lat="29.06415" lon="-13.55461">
        <ele>320.8</ele>
        <time>2021-07-03 16:26:30</time>
      </trkpt>
      <trkpt lat="29.06412" lon="-13.55464">
        <ele>320.8</ele>
        <time>2021-07-03 16:26:31</time>
      </trkpt>
      <trkpt lat="29.06409" lon="-13.55468">
        <ele>320.8</ele>
        <time>2021-07-03 16:26:32</time>
      </trkpt>
      <trkpt lat="29.06405" lon="-13.55471">
        <ele>320.8</ele>
        <time>2021-07-03 16:26:33</time>
      </trkpt>
      <trkpt lat="29.06402" lon="-13.55475">
        <ele>320.8</ele>
        <time>2021-07-03 16:26:34</time>
      </trkpt>
      <trkpt lat="29.06399" lon="-13.55479">
        <ele>320.8</ele>
        <time>2021-07-03 16:26:35</time>
      </trkpt>
      <trkpt lat="29.06395" lon="-13.55483">
        <ele>320.8</ele>
        <time>2021-07-03 16:26:36</time>
      </trkpt>
      <trkpt lat="29.06391" lon="-13.55486">
        <ele>321.2</ele>
        <time>2021-07-03 16:26:37</time>
      </trkpt>
      <trkpt lat="29.06388" lon="-13.55489">
        <ele>321.2</ele>
        <time>2021-07-03 16:26:38</time>
      </trkpt>
      <trkpt lat="29.06384" lon="-13.55492">
        <ele>321.4</ele>
        <time>2021-07-03 16:26:39</time>
      </trkpt>
      <trkpt lat="29.06381" lon="-13.55494">
        <ele>321.4</ele>
        <time>2021-07-03 16:26:40</time>
      </trkpt>
      <trkpt lat="29.06377" lon="-13.55497">
        <ele>321.6</ele>
        <time>2021-07-03 16:26:41</time>
      </trkpt>
      <trkpt lat="29.06373" lon="-13.555">
        <ele>321.6</ele>
        <time>2021-07-03 16:26:42</time>
      </trkpt>
      <trkpt lat="29.0637" lon="-13.55502">
        <ele>321.8</ele>
        <time>2021-07-03 16:26:43</time>
      </trkpt>
      <trkpt lat="29.06366" lon="-13.55506">
        <ele>321.8</ele>
        <time>2021-07-03 16:26:44</time>
      </trkpt>
      <trkpt lat="29.06362" lon="-13.55508">
        <ele>322.2</ele>
        <time>2021-07-03 16:26:45</time>
      </trkpt>
      <trkpt lat="29.06358" lon="-13.55511">
        <ele>322.2</ele>
        <time>2021-07-03 16:26:46</time>
      </trkpt>
      <trkpt lat="29.06354" lon="-13.55513">
        <ele>322.4</ele>
        <time>2021-07-03 16:26:47</time>
      </trkpt>
      <trkpt lat="29.06349" lon="-13.55516">
        <ele>322.4</ele>
        <time>2021-07-03 16:26:48</time>
      </trkpt>
      <trkpt lat="29.06345" lon="-13.55518">
        <ele>322.4</ele>
        <time>2021-07-03 16:26:49</time>
      </trkpt>
      <trkpt lat="29.0634" lon="-13.55521">
        <ele>322.6</ele>
        <time>2021-07-03 16:26:50</time>
      </trkpt>
      <trkpt lat="29.06335" lon="-13.55524">
        <ele>322.6</ele>
        <time>2021-07-03 16:26:51</time>
      </trkpt>
      <trkpt lat="29.06329" lon="-13.55525">
        <ele>322.4</ele>
        <time>2021-07-03 16:26:52</time>
      </trkpt>
      <trkpt lat="29.06324" lon="-13.55528">
        <ele>322.6</ele>
        <time>2021-07-03 16:26:53</time>
      </trkpt>
      <trkpt lat="29.06319" lon="-13.55532">
        <ele>322.6</ele>
        <time>2021-07-03 16:26:54</time>
      </trkpt>
      <trkpt lat="29.06313" lon="-13.55536">
        <ele>322.6</ele>
        <time>2021-07-03 16:26:55</time>
      </trkpt>
      <trkpt lat="29.06308" lon="-13.55539">
        <ele>322.6</ele>
        <time>2021-07-03 16:26:56</time>
      </trkpt>
      <trkpt lat="29.06302" lon="-13.55542">
        <ele>322.6</ele>
        <time>2021-07-03 16:26:57</time>
      </trkpt>
      <trkpt lat="29.06297" lon="-13.55547">
        <ele>322.4</ele>
        <time>2021-07-03 16:26:58</time>
      </trkpt>
      <trkpt lat="29.06292" lon="-13.55551">
        <ele>322.4</ele>
        <time>2021-07-03 16:26:59</time>
      </trkpt>
      <trkpt lat="29.06288" lon="-13.55555">
        <ele>322</ele>
        <time>2021-07-03 16:27:00</time>
      </trkpt>
      <trkpt lat="29.06284" lon="-13.5556">
        <ele>322</ele>
        <time>2021-07-03 16:27:01</time>
      </trkpt>
      <trkpt lat="29.0628" lon="-13.55566">
        <ele>321.6</ele>
        <time>2021-07-03 16:27:02</time>
      </trkpt>
      <trkpt lat="29.06276" lon="-13.55571">
        <ele>321.6</ele>
        <time>2021-07-03 16:27:03</time>
      </trkpt>
      <trkpt lat="29.06272" lon="-13.55577">
        <ele>321.4</ele>
        <time>2021-07-03 16:27:04</time>
      </trkpt>
      <trkpt lat="29.06269" lon="-13.55583">
        <ele>321.4</ele>
        <time>2021-07-03 16:27:05</time>
      </trkpt>
      <trkpt lat="29.06265" lon="-13.55589">
        <ele>321.4</ele>
        <time>2021-07-03 16:27:06</time>
      </trkpt>
      <trkpt lat="29.0626" lon="-13.55595">
        <ele>321</ele>
        <time>2021-07-03 16:27:07</time>
      </trkpt>
      <trkpt lat="29.06256" lon="-13.556">
        <ele>321</ele>
        <time>2021-07-03 16:27:08</time>
      </trkpt>
      <trkpt lat="29.06251" lon="-13.55606">
        <ele>320.6</ele>
        <time>2021-07-03 16:27:09</time>
      </trkpt>
      <trkpt lat="29.06246" lon="-13.55611">
        <ele>320.6</ele>
        <time>2021-07-03 16:27:10</time>
      </trkpt>
      <trkpt lat="29.06241" lon="-13.55617">
        <ele>320.4</ele>
        <time>2021-07-03 16:27:11</time>
      </trkpt>
      <trkpt lat="29.06236" lon="-13.55622">
        <ele>320.4</ele>
        <time>2021-07-03 16:27:12</time>
      </trkpt>
      <trkpt lat="29.06231" lon="-13.55628">
        <ele>320.4</ele>
        <time>2021-07-03 16:27:13</time>
      </trkpt>
      <trkpt lat="29.06226" lon="-13.55634">
        <ele>320.2</ele>
        <time>2021-07-03 16:27:14</time>
      </trkpt>
      <trkpt lat="29.06221" lon="-13.5564">
        <ele>320.2</ele>
        <time>2021-07-03 16:27:15</time>
      </trkpt>
      <trkpt lat="29.06217" lon="-13.55644">
        <ele>320</ele>
        <time>2021-07-03 16:27:16</time>
      </trkpt>
      <trkpt lat="29.06212" lon="-13.55649">
        <ele>320</ele>
        <time>2021-07-03 16:27:17</time>
      </trkpt>
      <trkpt lat="29.06208" lon="-13.55652">
        <ele>319.6</ele>
        <time>2021-07-03 16:27:18</time>
      </trkpt>
      <trkpt lat="29.06203" lon="-13.55654">
        <ele>319.6</ele>
        <time>2021-07-03 16:27:19</time>
      </trkpt>
      <trkpt lat="29.06199" lon="-13.55655">
        <ele>319.2</ele>
        <time>2021-07-03 16:27:20</time>
      </trkpt>
      <trkpt lat="29.06195" lon="-13.55654">
        <ele>319.2</ele>
        <time>2021-07-03 16:27:21</time>
      </trkpt>
      <trkpt lat="29.06192" lon="-13.55653">
        <ele>319</ele>
        <time>2021-07-03 16:27:22</time>
      </trkpt>
      <trkpt lat="29.06188" lon="-13.5565">
        <ele>319</ele>
        <time>2021-07-03 16:27:23</time>
      </trkpt>
      <trkpt lat="29.06184" lon="-13.55648">
        <ele>318.8</ele>
        <time>2021-07-03 16:27:24</time>
      </trkpt>
      <trkpt lat="29.06181" lon="-13.55645">
        <ele>318.8</ele>
        <time>2021-07-03 16:27:25</time>
      </trkpt>
      <trkpt lat="29.06177" lon="-13.55642">
        <ele>318.4</ele>
        <time>2021-07-03 16:27:26</time>
      </trkpt>
      <trkpt lat="29.06174" lon="-13.55639">
        <ele>318.4</ele>
        <time>2021-07-03 16:27:27</time>
      </trkpt>
      <trkpt lat="29.06171" lon="-13.55635">
        <ele>318.2</ele>
        <time>2021-07-03 16:27:28</time>
      </trkpt>
      <trkpt lat="29.06168" lon="-13.55632">
        <ele>318.2</ele>
        <time>2021-07-03 16:27:29</time>
      </trkpt>
      <trkpt lat="29.06164" lon="-13.55629">
        <ele>318.2</ele>
        <time>2021-07-03 16:27:30</time>
      </trkpt>
      <trkpt lat="29.06161" lon="-13.55626">
        <ele>318</ele>
        <time>2021-07-03 16:27:31</time>
      </trkpt>
      <trkpt lat="29.06158" lon="-13.55623">
        <ele>318</ele>
        <time>2021-07-03 16:27:32</time>
      </trkpt>
      <trkpt lat="29.06155" lon="-13.5562">
        <ele>317.8</ele>
        <time>2021-07-03 16:27:33</time>
      </trkpt>
      <trkpt lat="29.06151" lon="-13.55619">
        <ele>317.4</ele>
        <time>2021-07-03 16:27:34</time>
      </trkpt>
      <trkpt lat="29.06148" lon="-13.55619">
        <ele>317.4</ele>
        <time>2021-07-03 16:27:35</time>
      </trkpt>
      <trkpt lat="29.06145" lon="-13.5562">
        <ele>317.4</ele>
        <time>2021-07-03 16:27:36</time>
      </trkpt>
      <trkpt lat="29.06143" lon="-13.55622">
        <ele>317.4</ele>
        <time>2021-07-03 16:27:37</time>
      </trkpt>
      <trkpt lat="29.06142" lon="-13.55625">
        <ele>317.4</ele>
        <time>2021-07-03 16:27:38</time>
      </trkpt>
      <trkpt lat="29.06143" lon="-13.55627">
        <ele>317.4</ele>
        <time>2021-07-03 16:27:39</time>
      </trkpt>
      <trkpt lat="29.06143" lon="-13.55628">
        <ele>317.8</ele>
        <time>2021-07-03 16:27:40</time>
      </trkpt>
      <trkpt lat="29.06143" lon="-13.55628">
        <ele>317.8</ele>
        <time>2021-07-03 16:27:41</time>
      </trkpt>
      <trkpt lat="29.06143" lon="-13.55628">
        <ele>318.2</ele>
        <time>2021-07-03 16:27:42</time>
      </trkpt>
      <trkpt lat="29.06143" lon="-13.55628">
        <ele>318.2</ele>
        <time>2021-07-03 16:27:43</time>
      </trkpt>
      <trkpt lat="29.06143" lon="-13.55628">
        <ele>318.4</ele>
        <time>2021-07-03 16:27:44</time>
      </trkpt>
      <trkpt lat="29.06143" lon="-13.55627">
        <ele>318.4</ele>
        <time>2021-07-03 16:27:45</time>
      </trkpt>
      <trkpt lat="29.06144" lon="-13.55626">
        <ele>318.4</ele>
        <time>2021-07-03 16:27:46</time>
      </trkpt>
      <trkpt lat="29.06145" lon="-13.55625">
        <ele>318.4</ele>
        <time>2021-07-03 16:27:47</time>
      </trkpt>
      <trkpt lat="29.06146" lon="-13.55624">
        <ele>318.4</ele>
        <time>2021-07-03 16:27:48</time>
      </trkpt>
      <trkpt lat="29.06147" lon="-13.55624">
        <ele>318.6</ele>
        <time>2021-07-03 16:27:49</time>
      </trkpt>
      <trkpt lat="29.06147" lon="-13.55624">
        <ele>318.6</ele>
        <time>2021-07-03 16:27:50</time>
      </trkpt>
      <trkpt lat="29.06147" lon="-13.55624">
        <ele>319</ele>
        <time>2021-07-03 16:27:51</time>
      </trkpt>
      <trkpt lat="29.06147" lon="-13.55624">
        <ele>319</ele>
        <time>2021-07-03 16:27:52</time>
      </trkpt>
      <trkpt lat="29.06147" lon="-13.55624">
        <ele>319.2</ele>
        <time>2021-07-03 16:27:53</time>
      </trkpt>
      <trkpt lat="29.06147" lon="-13.55624">
        <ele>319.2</ele>
        <time>2021-07-03 16:27:54</time>
      </trkpt>
      <trkpt lat="29.06148" lon="-13.55628">
        <ele>319</ele>
        <time>2021-07-03 16:27:55</time>
      </trkpt>
      <trkpt lat="29.06148" lon="-13.55628">
        <ele>319</ele>
        <time>2021-07-03 16:27:56</time>
      </trkpt>
      <trkpt lat="29.06148" lon="-13.55627">
        <ele>318.8</ele>
        <time>2021-07-03 16:27:57</time>
      </trkpt>
      <trkpt lat="29.06148" lon="-13.55627">
        <ele>318.8</ele>
        <time>2021-07-03 16:27:58</time>
      </trkpt>
      <trkpt lat="29.06148" lon="-13.55627">
        <ele>318.8</ele>
        <time>2021-07-03 16:27:59</time>
      </trkpt>
      <trkpt lat="29.06148" lon="-13.55627">
        <ele>318.8</ele>
        <time>2021-07-03 16:28:00</time>
      </trkpt>
      <trkpt lat="29.06144" lon="-13.55623">
        <ele>317.4</ele>
        <time>2021-07-03 16:28:01</time>
      </trkpt>
      <trkpt lat="29.06143" lon="-13.55624">
        <ele>317.4</ele>
        <time>2021-07-03 16:28:02</time>
      </trkpt>
      <trkpt lat="29.06141" lon="-13.55625">
        <ele>317.2</ele>
        <time>2021-07-03 16:28:03</time>
      </trkpt>
      <trkpt lat="29.0614" lon="-13.55625">
        <ele>317.2</ele>
        <time>2021-07-03 16:28:04</time>
      </trkpt>
      <trkpt lat="29.06138" lon="-13.55625">
        <ele>317.2</ele>
        <time>2021-07-03 16:28:05</time>
      </trkpt>
      <trkpt lat="29.06136" lon="-13.55624">
        <ele>317.2</ele>
        <time>2021-07-03 16:28:06</time>
      </trkpt>
      <trkpt lat="29.06135" lon="-13.55622">
        <ele>316.8</ele>
        <time>2021-07-03 16:28:07</time>
      </trkpt>
      <trkpt lat="29.06134" lon="-13.55621">
        <ele>316.8</ele>
        <time>2021-07-03 16:28:08</time>
      </trkpt>
      <trkpt lat="29.06134" lon="-13.55619">
        <ele>316.8</ele>
        <time>2021-07-03 16:28:09</time>
      </trkpt>
      <trkpt lat="29.06133" lon="-13.55617">
        <ele>316.8</ele>
        <time>2021-07-03 16:28:10</time>
      </trkpt>
      <trkpt lat="29.06132" lon="-13.55616">
        <ele>316.6</ele>
        <time>2021-07-03 16:28:11</time>
      </trkpt>
      <trkpt lat="29.06131" lon="-13.55614">
        <ele>316.6</ele>
        <time>2021-07-03 16:28:12</time>
      </trkpt>
      <trkpt lat="29.06131" lon="-13.55613">
        <ele>316.6</ele>
        <time>2021-07-03 16:28:13</time>
      </trkpt>
      <trkpt lat="29.06131" lon="-13.55611">
        <ele>316.6</ele>
        <time>2021-07-03 16:28:14</time>
      </trkpt>
      <trkpt lat="29.06132" lon="-13.55609">
        <ele>316.6</ele>
        <time>2021-07-03 16:28:15</time>
      </trkpt>
      <trkpt lat="29.06133" lon="-13.55608">
        <ele>316.6</ele>
        <time>2021-07-03 16:28:16</time>
      </trkpt>
      <trkpt lat="29.06134" lon="-13.55608">
        <ele>316.6</ele>
        <time>2021-07-03 16:28:17</time>
      </trkpt>
      <trkpt lat="29.06135" lon="-13.55608">
        <ele>316.6</ele>
        <time>2021-07-03 16:28:18</time>
      </trkpt>
      <trkpt lat="29.06137" lon="-13.55609">
        <ele>316.6</ele>
        <time>2021-07-03 16:28:19</time>
      </trkpt>
      <trkpt lat="29.06137" lon="-13.5561">
        <ele>316.6</ele>
        <time>2021-07-03 16:28:20</time>
      </trkpt>
      <trkpt lat="29.06138" lon="-13.55612">
        <ele>317</ele>
        <time>2021-07-03 16:28:21</time>
      </trkpt>
      <trkpt lat="29.06138" lon="-13.55614">
        <ele>317</ele>
        <time>2021-07-03 16:28:22</time>
      </trkpt>
      <trkpt lat="29.06138" lon="-13.55616">
        <ele>317.2</ele>
        <time>2021-07-03 16:28:23</time>
      </trkpt>
      <trkpt lat="29.06138" lon="-13.55619">
        <ele>317.2</ele>
        <time>2021-07-03 16:28:24</time>
      </trkpt>
      <trkpt lat="29.06138" lon="-13.55622">
        <ele>317.6</ele>
        <time>2021-07-03 16:28:25</time>
      </trkpt>
      <trkpt lat="29.06138" lon="-13.55625">
        <ele>317.8</ele>
        <time>2021-07-03 16:28:26</time>
      </trkpt>
      <trkpt lat="29.0614" lon="-13.55627">
        <ele>318</ele>
        <time>2021-07-03 16:28:27</time>
      </trkpt>
      <trkpt lat="29.06142" lon="-13.55628">
        <ele>318</ele>
        <time>2021-07-03 16:28:28</time>
      </trkpt>
      <trkpt lat="29.06144" lon="-13.55626">
        <ele>318.2</ele>
        <time>2021-07-03 16:28:29</time>
      </trkpt>
      <trkpt lat="29.06145" lon="-13.55624">
        <ele>318.6</ele>
        <time>2021-07-03 16:28:30</time>
      </trkpt>
      <trkpt lat="29.06144" lon="-13.55622">
        <ele>318.6</ele>
        <time>2021-07-03 16:28:31</time>
      </trkpt>
      <trkpt lat="29.06143" lon="-13.55621">
        <ele>318.8</ele>
        <time>2021-07-03 16:28:32</time>
      </trkpt>
      <trkpt lat="29.06142" lon="-13.55621">
        <ele>318.8</ele>
        <time>2021-07-03 16:28:33</time>
      </trkpt>
      <trkpt lat="29.0614" lon="-13.55621">
        <ele>318.8</ele>
        <time>2021-07-03 16:28:34</time>
      </trkpt>
      <trkpt lat="29.06139" lon="-13.55622">
        <ele>318.8</ele>
        <time>2021-07-03 16:28:35</time>
      </trkpt>
      <trkpt lat="29.06137" lon="-13.55624">
        <ele>318.4</ele>
        <time>2021-07-03 16:28:36</time>
      </trkpt>
      <trkpt lat="29.06135" lon="-13.55626">
        <ele>318.4</ele>
        <time>2021-07-03 16:28:37</time>
      </trkpt>
      <trkpt lat="29.06134" lon="-13.55628">
        <ele>318.2</ele>
        <time>2021-07-03 16:28:38</time>
      </trkpt>
      <trkpt lat="29.06133" lon="-13.55631">
        <ele>318.2</ele>
        <time>2021-07-03 16:28:39</time>
      </trkpt>
      <trkpt lat="29.06131" lon="-13.55633">
        <ele>318.2</ele>
        <time>2021-07-03 16:28:40</time>
      </trkpt>
      <trkpt lat="29.0613" lon="-13.55636">
        <ele>318.2</ele>
        <time>2021-07-03 16:28:41</time>
      </trkpt>
      <trkpt lat="29.06129" lon="-13.55639">
        <ele>318.2</ele>
        <time>2021-07-03 16:28:42</time>
      </trkpt>
      <trkpt lat="29.06128" lon="-13.55642">
        <ele>318.2</ele>
        <time>2021-07-03 16:28:43</time>
      </trkpt>
      <trkpt lat="29.06126" lon="-13.55646">
        <ele>318</ele>
        <time>2021-07-03 16:28:44</time>
      </trkpt>
      <trkpt lat="29.06125" lon="-13.55651">
        <ele>317.6</ele>
        <time>2021-07-03 16:28:45</time>
      </trkpt>
      <trkpt lat="29.06124" lon="-13.55656">
        <ele>317.4</ele>
        <time>2021-07-03 16:28:46</time>
      </trkpt>
      <trkpt lat="29.06124" lon="-13.55661">
        <ele>317</ele>
        <time>2021-07-03 16:28:47</time>
      </trkpt>
      <trkpt lat="29.06123" lon="-13.55666">
        <ele>316.8</ele>
        <time>2021-07-03 16:29:12</time>
      </trkpt>
      <trkpt lat="29.06122" lon="-13.55671">
        <ele>316.8</ele>
        <time>2021-07-03 16:29:13</time>
      </trkpt>
      <trkpt lat="29.06121" lon="-13.55678">
        <ele>316.2</ele>
        <time>2021-07-03 16:29:14</time>
      </trkpt>
      <trkpt lat="29.06119" lon="-13.55684">
        <ele>315.8</ele>
        <time>2021-07-03 16:29:15</time>
      </trkpt>
      <trkpt lat="29.06117" lon="-13.5569">
        <ele>315.4</ele>
        <time>2021-07-03 16:29:16</time>
      </trkpt>
      <trkpt lat="29.06116" lon="-13.55696">
        <ele>315</ele>
        <time>2021-07-03 16:29:17</time>
      </trkpt>
      <trkpt lat="29.06115" lon="-13.55702">
        <ele>314.8</ele>
        <time>2021-07-03 16:29:18</time>
      </trkpt>
      <trkpt lat="29.06113" lon="-13.55708">
        <ele>314.4</ele>
        <time>2021-07-03 16:29:19</time>
      </trkpt>
      <trkpt lat="29.06112" lon="-13.55713">
        <ele>314</ele>
        <time>2021-07-03 16:29:20</time>
      </trkpt>
      <trkpt lat="29.06111" lon="-13.55719">
        <ele>313.8</ele>
        <time>2021-07-03 16:29:21</time>
      </trkpt>
      <trkpt lat="29.06109" lon="-13.55725">
        <ele>313.6</ele>
        <time>2021-07-03 17:03:24</time>
      </trkpt>
      <trkpt lat="29.06108" lon="-13.5573">
        <ele>313.4</ele>
        <time>2021-07-03 17:03:25</time>
      </trkpt>
      <trkpt lat="29.06107" lon="-13.55738">
        <ele>313.2</ele>
        <time>2021-07-03 17:03:26</time>
      </trkpt>
      <trkpt lat="29.06106" lon="-13.55743">
        <ele>312.8</ele>
        <time>2021-07-03 17:03:27</time>
      </trkpt>
      <trkpt lat="29.06104" lon="-13.55748">
        <ele>312.6</ele>
        <time>2021-07-03 17:03:28</time>
      </trkpt>
      <trkpt lat="29.06102" lon="-13.55753">
        <ele>312.6</ele>
        <time>2021-07-03 17:03:29</time>
      </trkpt>
      <trkpt lat="29.061" lon="-13.55758">
        <ele>312.2</ele>
        <time>2021-07-03 17:04:02</time>
      </trkpt>
      <trkpt lat="29.06097" lon="-13.55762">
        <ele>312</ele>
        <time>2021-07-03 17:04:03</time>
      </trkpt>
      <trkpt lat="29.06092" lon="-13.55765">
        <ele>311.8</ele>
        <time>2021-07-03 17:04:04</time>
      </trkpt>
      <trkpt lat="29.06088" lon="-13.55767">
        <ele>311.8</ele>
        <time>2021-07-03 17:04:05</time>
      </trkpt>
      <trkpt lat="29.06083" lon="-13.55768">
        <ele>311.4</ele>
        <time>2021-07-03 17:04:06</time>
      </trkpt>
      <trkpt lat="29.06079" lon="-13.5577">
        <ele>311.4</ele>
        <time>2021-07-03 17:04:07</time>
      </trkpt>
      <trkpt lat="29.06075" lon="-13.55771">
        <ele>311.2</ele>
        <time>2021-07-03 17:04:08</time>
      </trkpt>
      <trkpt lat="29.0607" lon="-13.55773">
        <ele>311.2</ele>
        <time>2021-07-03 17:04:09</time>
      </trkpt>
      <trkpt lat="29.06066" lon="-13.55776">
        <ele>311.2</ele>
        <time>2021-07-03 17:04:10</time>
      </trkpt>
      <trkpt lat="29.06062" lon="-13.55779">
        <ele>311.2</ele>
        <time>2021-07-03 17:04:11</time>
      </trkpt>
      <trkpt lat="29.06058" lon="-13.5578">
        <ele>311.2</ele>
        <time>2021-07-03 17:04:12</time>
      </trkpt>
      <trkpt lat="29.06054" lon="-13.55782">
        <ele>311</ele>
        <time>2021-07-03 17:04:13</time>
      </trkpt>
      <trkpt lat="29.0605" lon="-13.55784">
        <ele>311</ele>
        <time>2021-07-03 17:04:14</time>
      </trkpt>
      <trkpt lat="29.06046" lon="-13.55787">
        <ele>311</ele>
        <time>2021-07-03 17:04:15</time>
      </trkpt>
      <trkpt lat="29.06043" lon="-13.55789">
        <ele>310.8</ele>
        <time>2021-07-03 17:04:16</time>
      </trkpt>
      <trkpt lat="29.06039" lon="-13.5579">
        <ele>310.8</ele>
        <time>2021-07-03 17:04:17</time>
      </trkpt>
      <trkpt lat="29.06035" lon="-13.55791">
        <ele>310.8</ele>
        <time>2021-07-03 17:04:18</time>
      </trkpt>
      <trkpt lat="29.06031" lon="-13.55792">
        <ele>310.6</ele>
        <time>2021-07-03 17:04:19</time>
      </trkpt>
      <trkpt lat="29.06027" lon="-13.55793">
        <ele>310.6</ele>
        <time>2021-07-03 17:04:20</time>
      </trkpt>
      <trkpt lat="29.06023" lon="-13.55794">
        <ele>310.6</ele>
        <time>2021-07-03 17:04:21</time>
      </trkpt>
      <trkpt lat="29.06019" lon="-13.55795">
        <ele>310.6</ele>
        <time>2021-07-03 17:04:22</time>
      </trkpt>
      <trkpt lat="29.06015" lon="-13.55796">
        <ele>310.8</ele>
        <time>2021-07-03 17:04:23</time>
      </trkpt>
      <trkpt lat="29.06011" lon="-13.55796">
        <ele>310.8</ele>
        <time>2021-07-03 17:04:24</time>
      </trkpt>
      <trkpt lat="29.06007" lon="-13.55797">
        <ele>310.8</ele>
        <time>2021-07-03 17:04:25</time>
      </trkpt>
      <trkpt lat="29.06004" lon="-13.55797">
        <ele>310.8</ele>
        <time>2021-07-03 17:04:26</time>
      </trkpt>
      <trkpt lat="29.06" lon="-13.55798">
        <ele>310.8</ele>
        <time>2021-07-03 17:04:27</time>
      </trkpt>
      <trkpt lat="29.05996" lon="-13.55798">
        <ele>310.8</ele>
        <time>2021-07-03 17:04:28</time>
      </trkpt>
      <trkpt lat="29.05993" lon="-13.55799">
        <ele>310.8</ele>
        <time>2021-07-03 17:04:29</time>
      </trkpt>
      <trkpt lat="29.05989" lon="-13.55801">
        <ele>310.8</ele>
        <time>2021-07-03 17:04:30</time>
      </trkpt>
      <trkpt lat="29.05989" lon="-13.55807">
        <ele>310.8</ele>
        <time>2021-07-03 17:04:31</time>
      </trkpt>
      <trkpt lat="29.05987" lon="-13.55812">
        <ele>310.8</ele>
        <time>2021-07-03 17:04:32</time>
      </trkpt>
      <trkpt lat="29.05986" lon="-13.55817">
        <ele>310.8</ele>
        <time>2021-07-03 17:04:33</time>
      </trkpt>
      <trkpt lat="29.05985" lon="-13.55823">
        <ele>310.6</ele>
        <time>2021-07-03 17:04:34</time>
      </trkpt>
      <trkpt lat="29.05984" lon="-13.55829">
        <ele>310.6</ele>
        <time>2021-07-03 17:04:35</time>
      </trkpt>
      <trkpt lat="29.05983" lon="-13.55835">
        <ele>310.6</ele>
        <time>2021-07-03 17:04:36</time>
      </trkpt>
      <trkpt lat="29.05982" lon="-13.5584">
        <ele>310.6</ele>
        <time>2021-07-03 17:04:37</time>
      </trkpt>
      <trkpt lat="29.05981" lon="-13.55847">
        <ele>310.6</ele>
        <time>2021-07-03 17:04:38</time>
      </trkpt>
      <trkpt lat="29.05979" lon="-13.55853">
        <ele>310.2</ele>
        <time>2021-07-03 17:04:39</time>
      </trkpt>
      <trkpt lat="29.05977" lon="-13.55859">
        <ele>310</ele>
        <time>2021-07-03 17:04:40</time>
      </trkpt>
      <trkpt lat="29.05975" lon="-13.55865">
        <ele>309.8</ele>
        <time>2021-07-03 17:04:41</time>
      </trkpt>
      <trkpt lat="29.05972" lon="-13.55869">
        <ele>309.4</ele>
        <time>2021-07-03 17:04:42</time>
      </trkpt>
      <trkpt lat="29.05967" lon="-13.55873">
        <ele>309</ele>
        <time>2021-07-03 17:04:43</time>
      </trkpt>
      <trkpt lat="29.05964" lon="-13.55876">
        <ele>308.6</ele>
        <time>2021-07-03 17:04:44</time>
      </trkpt>
      <trkpt lat="29.05961" lon="-13.55879">
        <ele>308.2</ele>
        <time>2021-07-03 17:04:45</time>
      </trkpt>
      <trkpt lat="29.05959" lon="-13.55883">
        <ele>307.6</ele>
        <time>2021-07-03 17:04:46</time>
      </trkpt>
      <trkpt lat="29.05959" lon="-13.55885">
        <ele>307.2</ele>
        <time>2021-07-03 17:04:47</time>
      </trkpt>
      <trkpt lat="29.05959" lon="-13.55889">
        <ele>306.8</ele>
        <time>2021-07-03 17:04:48</time>
      </trkpt>
      <trkpt lat="29.05959" lon="-13.55893">
        <ele>306.4</ele>
        <time>2021-07-03 17:04:49</time>
      </trkpt>
      <trkpt lat="29.0596" lon="-13.55897">
        <ele>306.2</ele>
        <time>2021-07-03 17:04:50</time>
      </trkpt>
      <trkpt lat="29.05961" lon="-13.55901">
        <ele>306.2</ele>
        <time>2021-07-03 17:04:51</time>
      </trkpt>
      <trkpt lat="29.05963" lon="-13.55905">
        <ele>305.8</ele>
        <time>2021-07-03 17:04:52</time>
      </trkpt>
      <trkpt lat="29.05963" lon="-13.5591">
        <ele>305.8</ele>
        <time>2021-07-03 17:04:53</time>
      </trkpt>
      <trkpt lat="29.05961" lon="-13.55915">
        <ele>305.6</ele>
        <time>2021-07-03 17:04:54</time>
      </trkpt>
      <trkpt lat="29.05962" lon="-13.55919">
        <ele>305.6</ele>
        <time>2021-07-03 17:04:55</time>
      </trkpt>
      <trkpt lat="29.05962" lon="-13.55924">
        <ele>305.2</ele>
        <time>2021-07-03 17:04:56</time>
      </trkpt>
      <trkpt lat="29.05964" lon="-13.55931">
        <ele>305</ele>
        <time>2021-07-03 17:04:57</time>
      </trkpt>
      <trkpt lat="29.05965" lon="-13.55937">
        <ele>304.8</ele>
        <time>2021-07-03 17:04:58</time>
      </trkpt>
      <trkpt lat="29.05967" lon="-13.55942">
        <ele>304.6</ele>
        <time>2021-07-03 17:04:59</time>
      </trkpt>
      <trkpt lat="29.05969" lon="-13.55946">
        <ele>304.6</ele>
        <time>2021-07-03 17:05:00</time>
      </trkpt>
      <trkpt lat="29.0597" lon="-13.5595">
        <ele>304.2</ele>
        <time>2021-07-03 17:05:01</time>
      </trkpt>
      <trkpt lat="29.05971" lon="-13.55954">
        <ele>304.2</ele>
        <time>2021-07-03 17:05:02</time>
      </trkpt>
      <trkpt lat="29.05972" lon="-13.55956">
        <ele>303.6</ele>
        <time>2021-07-03 17:05:03</time>
      </trkpt>
      <trkpt lat="29.05972" lon="-13.55958">
        <ele>303.6</ele>
        <time>2021-07-03 17:05:04</time>
      </trkpt>
      <trkpt lat="29.05971" lon="-13.55959">
        <ele>303.4</ele>
        <time>2021-07-03 17:05:05</time>
      </trkpt>
      <trkpt lat="29.05972" lon="-13.55961">
        <ele>303.4</ele>
        <time>2021-07-03 17:05:06</time>
      </trkpt>
      <trkpt lat="29.05972" lon="-13.55962">
        <ele>303.4</ele>
        <time>2021-07-03 17:05:07</time>
      </trkpt>
      <trkpt lat="29.05972" lon="-13.55964">
        <ele>303.2</ele>
        <time>2021-07-03 17:05:08</time>
      </trkpt>
      <trkpt lat="29.05972" lon="-13.55965">
        <ele>303.2</ele>
        <time>2021-07-03 17:05:09</time>
      </trkpt>
      <trkpt lat="29.05972" lon="-13.55967">
        <ele>302.8</ele>
        <time>2021-07-03 17:05:10</time>
      </trkpt>
      <trkpt lat="29.05972" lon="-13.55968">
        <ele>302.8</ele>
        <time>2021-07-03 17:05:11</time>
      </trkpt>
      <trkpt lat="29.05973" lon="-13.5597">
        <ele>302.8</ele>
        <time>2021-07-03 17:05:12</time>
      </trkpt>
      <trkpt lat="29.05974" lon="-13.55972">
        <ele>302.6</ele>
        <time>2021-07-03 17:05:13</time>
      </trkpt>
      <trkpt lat="29.05975" lon="-13.55974">
        <ele>302.6</ele>
        <time>2021-07-03 17:05:14</time>
      </trkpt>
      <trkpt lat="29.05976" lon="-13.55975">
        <ele>302.6</ele>
        <time>2021-07-03 17:05:15</time>
      </trkpt>
      <trkpt lat="29.05978" lon="-13.55977">
        <ele>302.6</ele>
        <time>2021-07-03 17:05:16</time>
      </trkpt>
      <trkpt lat="29.05981" lon="-13.55978">
        <ele>302.6</ele>
        <time>2021-07-03 17:05:17</time>
      </trkpt>
      <trkpt lat="29.05983" lon="-13.55979">
        <ele>302.4</ele>
        <time>2021-07-03 17:05:18</time>
      </trkpt>
      <trkpt lat="29.05986" lon="-13.55978">
        <ele>302.2</ele>
        <time>2021-07-03 17:05:19</time>
      </trkpt>
      <trkpt lat="29.05989" lon="-13.55977">
        <ele>302</ele>
        <time>2021-07-03 17:05:20</time>
      </trkpt>
      <trkpt lat="29.05992" lon="-13.55977">
        <ele>302</ele>
        <time>2021-07-03 17:05:21</time>
      </trkpt>
      <trkpt lat="29.05995" lon="-13.55976">
        <ele>301.6</ele>
        <time>2021-07-03 17:05:22</time>
      </trkpt>
      <trkpt lat="29.05998" lon="-13.55977">
        <ele>301.6</ele>
        <time>2021-07-03 17:05:23</time>
      </trkpt>
      <trkpt lat="29.06" lon="-13.5598">
        <ele>301.6</ele>
        <time>2021-07-03 17:05:24</time>
      </trkpt>
      <trkpt lat="29.06002" lon="-13.55984">
        <ele>301.6</ele>
        <time>2021-07-03 17:05:25</time>
      </trkpt>
      <trkpt lat="29.06003" lon="-13.55988">
        <ele>301.6</ele>
        <time>2021-07-03 17:05:26</time>
      </trkpt>
      <trkpt lat="29.06004" lon="-13.55992">
        <ele>301.6</ele>
        <time>2021-07-03 17:05:27</time>
      </trkpt>
      <trkpt lat="29.06006" lon="-13.55996">
        <ele>302</ele>
        <time>2021-07-03 17:05:28</time>
      </trkpt>
      <trkpt lat="29.06007" lon="-13.55999">
        <ele>302</ele>
        <time>2021-07-03 17:05:29</time>
      </trkpt>
      <trkpt lat="29.0601" lon="-13.56002">
        <ele>302.2</ele>
        <time>2021-07-03 17:05:30</time>
      </trkpt>
      <trkpt lat="29.06012" lon="-13.56004">
        <ele>302.2</ele>
        <time>2021-07-03 17:05:31</time>
      </trkpt>
      <trkpt lat="29.06014" lon="-13.56007">
        <ele>302.2</ele>
        <time>2021-07-03 17:05:32</time>
      </trkpt>
      <trkpt lat="29.06016" lon="-13.56009">
        <ele>302.2</ele>
        <time>2021-07-03 17:05:33</time>
      </trkpt>
      <trkpt lat="29.06019" lon="-13.56011">
        <ele>302.2</ele>
        <time>2021-07-03 17:05:34</time>
      </trkpt>
      <trkpt lat="29.06021" lon="-13.56013">
        <ele>302.2</ele>
        <time>2021-07-03 17:05:35</time>
      </trkpt>
      <trkpt lat="29.06023" lon="-13.56016">
        <ele>302.2</ele>
        <time>2021-07-03 17:05:36</time>
      </trkpt>
      <trkpt lat="29.06025" lon="-13.56018">
        <ele>301.8</ele>
        <time>2021-07-03 17:05:37</time>
      </trkpt>
      <trkpt lat="29.06028" lon="-13.56021">
        <ele>301.8</ele>
        <time>2021-07-03 17:05:38</time>
      </trkpt>
      <trkpt lat="29.0603" lon="-13.56023">
        <ele>301.6</ele>
        <time>2021-07-03 17:05:39</time>
      </trkpt>
      <trkpt lat="29.06033" lon="-13.56025">
        <ele>301.6</ele>
        <time>2021-07-03 17:05:40</time>
      </trkpt>
      <trkpt lat="29.06036" lon="-13.56028">
        <ele>301.2</ele>
        <time>2021-07-03 17:05:41</time>
      </trkpt>
      <trkpt lat="29.06039" lon="-13.5603">
        <ele>301.2</ele>
        <time>2021-07-03 17:05:42</time>
      </trkpt>
      <trkpt lat="29.06041" lon="-13.56033">
        <ele>301.2</ele>
        <time>2021-07-03 17:05:43</time>
      </trkpt>
      <trkpt lat="29.06043" lon="-13.56035">
        <ele>301</ele>
        <time>2021-07-03 17:05:44</time>
      </trkpt>
      <trkpt lat="29.06045" lon="-13.56035">
        <ele>301</ele>
        <time>2021-07-03 17:05:45</time>
      </trkpt>
      <trkpt lat="29.06045" lon="-13.56035">
        <ele>300.8</ele>
        <time>2021-07-03 17:05:46</time>
      </trkpt>
      <trkpt lat="29.06046" lon="-13.56035">
        <ele>300.8</ele>
        <time>2021-07-03 17:05:47</time>
      </trkpt>
      <trkpt lat="29.06045" lon="-13.56034">
        <ele>300.6</ele>
        <time>2021-07-03 17:05:48</time>
      </trkpt>
      <trkpt lat="29.06045" lon="-13.56035">
        <ele>300.6</ele>
        <time>2021-07-03 17:05:49</time>
      </trkpt>
      <trkpt lat="29.06046" lon="-13.56035">
        <ele>300.6</ele>
        <time>2021-07-03 17:05:50</time>
      </trkpt>
      <trkpt lat="29.06047" lon="-13.56037">
        <ele>300.4</ele>
        <time>2021-07-03 17:05:51</time>
      </trkpt>
      <trkpt lat="29.06047" lon="-13.56039">
        <ele>300.4</ele>
        <time>2021-07-03 17:05:52</time>
      </trkpt>
      <trkpt lat="29.06047" lon="-13.56041">
        <ele>300.2</ele>
        <time>2021-07-03 17:05:53</time>
      </trkpt>
      <trkpt lat="29.06046" lon="-13.56044">
        <ele>300.2</ele>
        <time>2021-07-03 17:05:54</time>
      </trkpt>
      <trkpt lat="29.06044" lon="-13.56046">
        <ele>299.8</ele>
        <time>2021-07-03 17:05:55</time>
      </trkpt>
      <trkpt lat="29.06043" lon="-13.5605">
        <ele>299.4</ele>
        <time>2021-07-03 17:05:56</time>
      </trkpt>
      <trkpt lat="29.06044" lon="-13.56054">
        <ele>299.2</ele>
        <time>2021-07-03 17:05:57</time>
      </trkpt>
      <trkpt lat="29.06045" lon="-13.56058">
        <ele>299</ele>
        <time>2021-07-03 17:05:58</time>
      </trkpt>
      <trkpt lat="29.06048" lon="-13.56061">
        <ele>298.8</ele>
        <time>2021-07-03 17:05:59</time>
      </trkpt>
      <trkpt lat="29.06051" lon="-13.56064">
        <ele>298.4</ele>
        <time>2021-07-03 17:06:00</time>
      </trkpt>
      <trkpt lat="29.06055" lon="-13.56067">
        <ele>298.4</ele>
        <time>2021-07-03 17:06:01</time>
      </trkpt>
      <trkpt lat="29.06059" lon="-13.56069">
        <ele>298.2</ele>
        <time>2021-07-03 17:06:02</time>
      </trkpt>
      <trkpt lat="29.06065" lon="-13.56071">
        <ele>298.2</ele>
        <time>2021-07-03 17:06:03</time>
      </trkpt>
      <trkpt lat="29.06069" lon="-13.56073">
        <ele>298.2</ele>
        <time>2021-07-03 17:06:04</time>
      </trkpt>
      <trkpt lat="29.06074" lon="-13.56076">
        <ele>297.8</ele>
        <time>2021-07-03 17:06:05</time>
      </trkpt>
      <trkpt lat="29.06078" lon="-13.56078">
        <ele>297.8</ele>
        <time>2021-07-03 17:06:06</time>
      </trkpt>
      <trkpt lat="29.06082" lon="-13.56081">
        <ele>297.8</ele>
        <time>2021-07-03 17:06:07</time>
      </trkpt>
      <trkpt lat="29.06086" lon="-13.56084">
        <ele>297.8</ele>
        <time>2021-07-03 17:06:08</time>
      </trkpt>
      <trkpt lat="29.0609" lon="-13.56087">
        <ele>297.8</ele>
        <time>2021-07-03 17:06:09</time>
      </trkpt>
      <trkpt lat="29.06094" lon="-13.5609">
        <ele>297.8</ele>
        <time>2021-07-03 17:06:10</time>
      </trkpt>
      <trkpt lat="29.06098" lon="-13.56093">
        <ele>297.8</ele>
        <time>2021-07-03 17:06:11</time>
      </trkpt>
      <trkpt lat="29.06101" lon="-13.56096">
        <ele>297.6</ele>
        <time>2021-07-03 17:06:12</time>
      </trkpt>
      <trkpt lat="29.06104" lon="-13.56099">
        <ele>297.6</ele>
        <time>2021-07-03 17:06:13</time>
      </trkpt>
      <trkpt lat="29.06105" lon="-13.56103">
        <ele>297.4</ele>
        <time>2021-07-03 17:06:14</time>
      </trkpt>
      <trkpt lat="29.06107" lon="-13.56104">
        <ele>297.4</ele>
        <time>2021-07-03 17:06:15</time>
      </trkpt>
      <trkpt lat="29.06108" lon="-13.56104">
        <ele>297</ele>
        <time>2021-07-03 17:06:16</time>
      </trkpt>
      <trkpt lat="29.0611" lon="-13.56104">
        <ele>297</ele>
        <time>2021-07-03 17:06:17</time>
      </trkpt>
      <trkpt lat="29.06109" lon="-13.56104">
        <ele>296.6</ele>
        <time>2021-07-03 17:06:18</time>
      </trkpt>
      <trkpt lat="29.06109" lon="-13.56104">
        <ele>296.6</ele>
        <time>2021-07-03 17:06:19</time>
      </trkpt>
      <trkpt lat="29.06109" lon="-13.56104">
        <ele>296.4</ele>
        <time>2021-07-03 17:06:20</time>
      </trkpt>
      <trkpt lat="29.0611" lon="-13.56103">
        <ele>296.4</ele>
        <time>2021-07-03 17:06:21</time>
      </trkpt>
      <trkpt lat="29.06109" lon="-13.56103">
        <ele>296.4</ele>
        <time>2021-07-03 17:06:22</time>
      </trkpt>
      <trkpt lat="29.06109" lon="-13.56103">
        <ele>296.4</ele>
        <time>2021-07-03 17:06:23</time>
      </trkpt>
      <trkpt lat="29.06111" lon="-13.56104">
        <ele>296</ele>
        <time>2021-07-03 17:06:24</time>
      </trkpt>
      <trkpt lat="29.06112" lon="-13.56105">
        <ele>296</ele>
        <time>2021-07-03 17:06:25</time>
      </trkpt>
      <trkpt lat="29.06113" lon="-13.56107">
        <ele>296</ele>
        <time>2021-07-03 17:06:26</time>
      </trkpt>
      <trkpt lat="29.06113" lon="-13.56109">
        <ele>296</ele>
        <time>2021-07-03 17:06:27</time>
      </trkpt>
      <trkpt lat="29.06113" lon="-13.56112">
        <ele>296</ele>
        <time>2021-07-03 17:06:28</time>
      </trkpt>
      <trkpt lat="29.06112" lon="-13.56114">
        <ele>296</ele>
        <time>2021-07-03 17:06:29</time>
      </trkpt>
      <trkpt lat="29.06112" lon="-13.56118">
        <ele>296</ele>
        <time>2021-07-03 17:06:30</time>
      </trkpt>
      <trkpt lat="29.06111" lon="-13.56121">
        <ele>296</ele>
        <time>2021-07-03 17:06:31</time>
      </trkpt>
      <trkpt lat="29.06111" lon="-13.56124">
        <ele>296</ele>
        <time>2021-07-03 17:06:32</time>
      </trkpt>
      <trkpt lat="29.0611" lon="-13.56127">
        <ele>296</ele>
        <time>2021-07-03 17:06:33</time>
      </trkpt>
      <trkpt lat="29.06109" lon="-13.5613">
        <ele>296</ele>
        <time>2021-07-03 17:06:34</time>
      </trkpt>
      <trkpt lat="29.06108" lon="-13.56134">
        <ele>296</ele>
        <time>2021-07-03 17:06:35</time>
      </trkpt>
      <trkpt lat="29.06108" lon="-13.56137">
        <ele>296</ele>
        <time>2021-07-03 17:06:36</time>
      </trkpt>
      <trkpt lat="29.06107" lon="-13.5614">
        <ele>295.6</ele>
        <time>2021-07-03 17:06:37</time>
      </trkpt>
      <trkpt lat="29.06106" lon="-13.56145">
        <ele>295.4</ele>
        <time>2021-07-03 17:06:38</time>
      </trkpt>
      <trkpt lat="29.06104" lon="-13.56149">
        <ele>295.4</ele>
        <time>2021-07-03 17:06:39</time>
      </trkpt>
      <trkpt lat="29.06102" lon="-13.56154">
        <ele>294.8</ele>
        <time>2021-07-03 17:06:40</time>
      </trkpt>
      <trkpt lat="29.06102" lon="-13.56159">
        <ele>294.4</ele>
        <time>2021-07-03 17:06:41</time>
      </trkpt>
      <trkpt lat="29.06102" lon="-13.56164">
        <ele>294.2</ele>
        <time>2021-07-03 17:06:42</time>
      </trkpt>
      <trkpt lat="29.06102" lon="-13.56168">
        <ele>293.8</ele>
        <time>2021-07-03 17:06:43</time>
      </trkpt>
      <trkpt lat="29.06105" lon="-13.56172">
        <ele>293.8</ele>
        <time>2021-07-03 17:06:44</time>
      </trkpt>
      <trkpt lat="29.06108" lon="-13.56175">
        <ele>293.8</ele>
        <time>2021-07-03 17:06:45</time>
      </trkpt>
      <trkpt lat="29.0611" lon="-13.56178">
        <ele>293.8</ele>
        <time>2021-07-03 17:06:46</time>
      </trkpt>
      <trkpt lat="29.06112" lon="-13.56181">
        <ele>293.8</ele>
        <time>2021-07-03 17:06:47</time>
      </trkpt>
      <trkpt lat="29.06114" lon="-13.56185">
        <ele>293.8</ele>
        <time>2021-07-03 17:06:48</time>
      </trkpt>
      <trkpt lat="29.06117" lon="-13.56188">
        <ele>294</ele>
        <time>2021-07-03 17:06:49</time>
      </trkpt>
      <trkpt lat="29.06118" lon="-13.56191">
        <ele>294</ele>
        <time>2021-07-03 17:06:50</time>
      </trkpt>
      <trkpt lat="29.0612" lon="-13.56194">
        <ele>294.4</ele>
        <time>2021-07-03 17:06:51</time>
      </trkpt>
      <trkpt lat="29.06123" lon="-13.56195">
        <ele>294.4</ele>
        <time>2021-07-03 17:06:52</time>
      </trkpt>
      <trkpt lat="29.06126" lon="-13.56196">
        <ele>294.4</ele>
        <time>2021-07-03 17:06:53</time>
      </trkpt>
      <trkpt lat="29.06129" lon="-13.56196">
        <ele>294.6</ele>
        <time>2021-07-03 17:06:54</time>
      </trkpt>
      <trkpt lat="29.06132" lon="-13.56195">
        <ele>294.6</ele>
        <time>2021-07-03 17:06:55</time>
      </trkpt>
      <trkpt lat="29.06135" lon="-13.56194">
        <ele>294.6</ele>
        <time>2021-07-03 17:06:56</time>
      </trkpt>
      <trkpt lat="29.06138" lon="-13.56192">
        <ele>294.6</ele>
        <time>2021-07-03 17:06:57</time>
      </trkpt>
      <trkpt lat="29.0614" lon="-13.5619">
        <ele>294.6</ele>
        <time>2021-07-03 17:06:58</time>
      </trkpt>
      <trkpt lat="29.06143" lon="-13.56188">
        <ele>294.6</ele>
        <time>2021-07-03 17:06:59</time>
      </trkpt>
      <trkpt lat="29.06145" lon="-13.56186">
        <ele>294.8</ele>
        <time>2021-07-03 17:07:00</time>
      </trkpt>
      <trkpt lat="29.06147" lon="-13.56184">
        <ele>294.8</ele>
        <time>2021-07-03 17:07:01</time>
      </trkpt>
      <trkpt lat="29.06149" lon="-13.56182">
        <ele>294.8</ele>
        <time>2021-07-03 17:07:02</time>
      </trkpt>
      <trkpt lat="29.06151" lon="-13.5618">
        <ele>294.8</ele>
        <time>2021-07-03 17:07:03</time>
      </trkpt>
      <trkpt lat="29.06153" lon="-13.56179">
        <ele>295</ele>
        <time>2021-07-03 17:07:04</time>
      </trkpt>
      <trkpt lat="29.06155" lon="-13.56177">
        <ele>295</ele>
        <time>2021-07-03 17:07:05</time>
      </trkpt>
      <trkpt lat="29.06157" lon="-13.56175">
        <ele>295</ele>
        <time>2021-07-03 17:07:06</time>
      </trkpt>
      <trkpt lat="29.06159" lon="-13.56173">
        <ele>295</ele>
        <time>2021-07-03 17:07:07</time>
      </trkpt>
      <trkpt lat="29.06162" lon="-13.56172">
        <ele>295</ele>
        <time>2021-07-03 17:07:08</time>
      </trkpt>
      <trkpt lat="29.06163" lon="-13.5617">
        <ele>295</ele>
        <time>2021-07-03 17:07:09</time>
      </trkpt>
      <trkpt lat="29.06166" lon="-13.56169">
        <ele>295.4</ele>
        <time>2021-07-03 17:07:10</time>
      </trkpt>
      <trkpt lat="29.06168" lon="-13.56168">
        <ele>295.6</ele>
        <time>2021-07-03 17:07:11</time>
      </trkpt>
      <trkpt lat="29.0617" lon="-13.56167">
        <ele>295.6</ele>
        <time>2021-07-03 17:07:12</time>
      </trkpt>
      <trkpt lat="29.06172" lon="-13.56166">
        <ele>296</ele>
        <time>2021-07-03 17:07:13</time>
      </trkpt>
      <trkpt lat="29.06174" lon="-13.56164">
        <ele>296</ele>
        <time>2021-07-03 17:07:14</time>
      </trkpt>
      <trkpt lat="29.06176" lon="-13.56162">
        <ele>296.2</ele>
        <time>2021-07-03 17:07:15</time>
      </trkpt>
      <trkpt lat="29.06178" lon="-13.56161">
        <ele>296.2</ele>
        <time>2021-07-03 17:07:16</time>
      </trkpt>
      <trkpt lat="29.0618" lon="-13.56159">
        <ele>296.2</ele>
        <time>2021-07-03 17:07:17</time>
      </trkpt>
      <trkpt lat="29.06182" lon="-13.56157">
        <ele>296.6</ele>
        <time>2021-07-03 17:07:18</time>
      </trkpt>
      <trkpt lat="29.06184" lon="-13.56155">
        <ele>296.6</ele>
        <time>2021-07-03 17:07:19</time>
      </trkpt>
      <trkpt lat="29.06186" lon="-13.56153">
        <ele>297</ele>
        <time>2021-07-03 17:07:20</time>
      </trkpt>
      <trkpt lat="29.06189" lon="-13.56151">
        <ele>297.2</ele>
        <time>2021-07-03 17:07:21</time>
      </trkpt>
      <trkpt lat="29.06191" lon="-13.56149">
        <ele>297.2</ele>
        <time>2021-07-03 17:07:22</time>
      </trkpt>
      <trkpt lat="29.06192" lon="-13.56147">
        <ele>297.2</ele>
        <time>2021-07-03 17:07:23</time>
      </trkpt>
      <trkpt lat="29.06194" lon="-13.56144">
        <ele>297.2</ele>
        <time>2021-07-03 17:07:24</time>
      </trkpt>
      <trkpt lat="29.06195" lon="-13.56142">
        <ele>297.4</ele>
        <time>2021-07-03 17:07:27</time>
      </trkpt>
      <trkpt lat="29.06196" lon="-13.56139">
        <ele>297.4</ele>
        <time>2021-07-03 17:07:28</time>
      </trkpt>
      <trkpt lat="29.06197" lon="-13.56136">
        <ele>297.8</ele>
        <time>2021-07-03 17:08:23</time>
      </trkpt>
      <trkpt lat="29.06197" lon="-13.56134">
        <ele>297.8</ele>
        <time>2021-07-03 17:08:24</time>
      </trkpt>
      <trkpt lat="29.06197" lon="-13.56132">
        <ele>298</ele>
        <time>2021-07-03 17:08:25</time>
      </trkpt>
      <trkpt lat="29.06197" lon="-13.56131">
        <ele>298</ele>
        <time>2021-07-03 17:08:26</time>
      </trkpt>
      <trkpt lat="29.06197" lon="-13.5613">
        <ele>298</ele>
        <time>2021-07-03 17:08:27</time>
      </trkpt>
      <trkpt lat="29.06198" lon="-13.56129">
        <ele>298</ele>
        <time>2021-07-03 17:08:28</time>
      </trkpt>
      <trkpt lat="29.06199" lon="-13.5613">
        <ele>298</ele>
        <time>2021-07-03 17:08:29</time>
      </trkpt>
      <trkpt lat="29.062" lon="-13.56132">
        <ele>298</ele>
        <time>2021-07-03 17:08:30</time>
      </trkpt>
      <trkpt lat="29.06199" lon="-13.56135">
        <ele>298</ele>
        <time>2021-07-03 17:08:31</time>
      </trkpt>
      <trkpt lat="29.06198" lon="-13.56138">
        <ele>298</ele>
        <time>2021-07-03 17:08:32</time>
      </trkpt>
      <trkpt lat="29.06197" lon="-13.56142">
        <ele>298</ele>
        <time>2021-07-03 17:08:33</time>
      </trkpt>
      <trkpt lat="29.06196" lon="-13.56146">
        <ele>298</ele>
        <time>2021-07-03 17:08:34</time>
      </trkpt>
      <trkpt lat="29.06196" lon="-13.56151">
        <ele>297.8</ele>
        <time>2021-07-03 17:08:35</time>
      </trkpt>
      <trkpt lat="29.06198" lon="-13.56156">
        <ele>297.8</ele>
        <time>2021-07-03 17:08:36</time>
      </trkpt>
      <trkpt lat="29.062" lon="-13.56158">
        <ele>297.8</ele>
        <time>2021-07-03 17:08:37</time>
      </trkpt>
      <trkpt lat="29.06203" lon="-13.5616">
        <ele>297.8</ele>
        <time>2021-07-03 17:08:38</time>
      </trkpt>
      <trkpt lat="29.06206" lon="-13.56162">
        <ele>297.8</ele>
        <time>2021-07-03 17:08:39</time>
      </trkpt>
      <trkpt lat="29.0621" lon="-13.56163">
        <ele>298</ele>
        <time>2021-07-03 17:08:40</time>
      </trkpt>
      <trkpt lat="29.06214" lon="-13.56164">
        <ele>298</ele>
        <time>2021-07-03 17:08:41</time>
      </trkpt>
      <trkpt lat="29.06217" lon="-13.56165">
        <ele>298</ele>
        <time>2021-07-03 17:08:42</time>
      </trkpt>
      <trkpt lat="29.06221" lon="-13.56166">
        <ele>298</ele>
        <time>2021-07-03 17:08:43</time>
      </trkpt>
      <trkpt lat="29.06225" lon="-13.56166">
        <ele>298.4</ele>
        <time>2021-07-03 17:08:44</time>
      </trkpt>
      <trkpt lat="29.06229" lon="-13.56167">
        <ele>298.4</ele>
        <time>2021-07-03 17:08:45</time>
      </trkpt>
      <trkpt lat="29.06232" lon="-13.56168">
        <ele>298.4</ele>
        <time>2021-07-03 17:08:46</time>
      </trkpt>
      <trkpt lat="29.06236" lon="-13.56168">
        <ele>298.4</ele>
        <time>2021-07-03 17:08:47</time>
      </trkpt>
      <trkpt lat="29.0624" lon="-13.56168">
        <ele>298.4</ele>
        <time>2021-07-03 17:08:48</time>
      </trkpt>
      <trkpt lat="29.06244" lon="-13.56168">
        <ele>298.4</ele>
        <time>2021-07-03 17:08:49</time>
      </trkpt>
      <trkpt lat="29.06248" lon="-13.56168">
        <ele>298.4</ele>
        <time>2021-07-03 17:08:50</time>
      </trkpt>
      <trkpt lat="29.06252" lon="-13.56168">
        <ele>298.4</ele>
        <time>2021-07-03 17:08:51</time>
      </trkpt>
      <trkpt lat="29.06256" lon="-13.56168">
        <ele>298.4</ele>
        <time>2021-07-03 17:08:52</time>
      </trkpt>
      <trkpt lat="29.0626" lon="-13.56168">
        <ele>298.4</ele>
        <time>2021-07-03 17:08:53</time>
      </trkpt>
      <trkpt lat="29.06263" lon="-13.56168">
        <ele>298.4</ele>
        <time>2021-07-03 17:08:54</time>
      </trkpt>
      <trkpt lat="29.06267" lon="-13.56168">
        <ele>298.4</ele>
        <time>2021-07-03 17:08:55</time>
      </trkpt>
      <trkpt lat="29.06271" lon="-13.56168">
        <ele>298.4</ele>
        <time>2021-07-03 17:08:56</time>
      </trkpt>
      <trkpt lat="29.0628" lon="-13.56169">
        <ele>298.4</ele>
        <time>2021-07-03 17:08:57</time>
      </trkpt>
      <trkpt lat="29.06284" lon="-13.5617">
        <ele>298.4</ele>
        <time>2021-07-03 17:08:58</time>
      </trkpt>
      <trkpt lat="29.06288" lon="-13.56171">
        <ele>298.4</ele>
        <time>2021-07-03 17:08:59</time>
      </trkpt>
      <trkpt lat="29.06292" lon="-13.56172">
        <ele>298.2</ele>
        <time>2021-07-03 17:09:00</time>
      </trkpt>
      <trkpt lat="29.06296" lon="-13.56173">
        <ele>298.2</ele>
        <time>2021-07-03 17:09:01</time>
      </trkpt>
      <trkpt lat="29.063" lon="-13.56174">
        <ele>298.2</ele>
        <time>2021-07-03 17:09:02</time>
      </trkpt>
      <trkpt lat="29.06303" lon="-13.56176">
        <ele>298.4</ele>
        <time>2021-07-03 17:09:03</time>
      </trkpt>
      <trkpt lat="29.06307" lon="-13.56178">
        <ele>298.4</ele>
        <time>2021-07-03 17:09:04</time>
      </trkpt>
      <trkpt lat="29.06311" lon="-13.56181">
        <ele>298.4</ele>
        <time>2021-07-03 17:09:05</time>
      </trkpt>
      <trkpt lat="29.06314" lon="-13.56184">
        <ele>298.4</ele>
        <time>2021-07-03 17:09:06</time>
      </trkpt>
      <trkpt lat="29.06318" lon="-13.56186">
        <ele>298.4</ele>
        <time>2021-07-03 17:09:07</time>
      </trkpt>
      <trkpt lat="29.06336" lon="-13.56198">
        <ele>299.2</ele>
        <time>2021-07-03 17:09:08</time>
      </trkpt>
      <trkpt lat="29.06339" lon="-13.562">
        <ele>299.2</ele>
        <time>2021-07-03 17:09:09</time>
      </trkpt>
      <trkpt lat="29.06343" lon="-13.56203">
        <ele>299.6</ele>
        <time>2021-07-03 17:09:10</time>
      </trkpt>
      <trkpt lat="29.06346" lon="-13.56206">
        <ele>299.6</ele>
        <time>2021-07-03 17:09:11</time>
      </trkpt>
      <trkpt lat="29.06349" lon="-13.56209">
        <ele>299.8</ele>
        <time>2021-07-03 17:09:12</time>
      </trkpt>
      <trkpt lat="29.06352" lon="-13.56211">
        <ele>299.8</ele>
        <time>2021-07-03 17:09:13</time>
      </trkpt>
      <trkpt lat="29.06355" lon="-13.56214">
        <ele>300.2</ele>
        <time>2021-07-03 17:09:14</time>
      </trkpt>
      <trkpt lat="29.06357" lon="-13.56217">
        <ele>300.2</ele>
        <time>2021-07-03 17:09:15</time>
      </trkpt>
      <trkpt lat="29.06359" lon="-13.5622">
        <ele>300.4</ele>
        <time>2021-07-03 17:09:16</time>
      </trkpt>
      <trkpt lat="29.06361" lon="-13.56223">
        <ele>300.4</ele>
        <time>2021-07-03 17:09:17</time>
      </trkpt>
      <trkpt lat="29.06363" lon="-13.56227">
        <ele>300.4</ele>
        <time>2021-07-03 17:09:18</time>
      </trkpt>
      <trkpt lat="29.06365" lon="-13.5623">
        <ele>300.4</ele>
        <time>2021-07-03 17:09:19</time>
      </trkpt>
      <trkpt lat="29.06367" lon="-13.56234">
        <ele>300.2</ele>
        <time>2021-07-03 17:09:20</time>
      </trkpt>
      <trkpt lat="29.0637" lon="-13.56237">
        <ele>300.2</ele>
        <time>2021-07-03 17:09:21</time>
      </trkpt>
      <trkpt lat="29.06372" lon="-13.5624">
        <ele>300.2</ele>
        <time>2021-07-03 17:09:22</time>
      </trkpt>
      <trkpt lat="29.06374" lon="-13.56243">
        <ele>300</ele>
        <time>2021-07-03 17:09:23</time>
      </trkpt>
      <trkpt lat="29.06381" lon="-13.56253">
        <ele>300</ele>
        <time>2021-07-03 17:09:24</time>
      </trkpt>
      <trkpt lat="29.06383" lon="-13.56257">
        <ele>300.2</ele>
        <time>2021-07-03 17:09:25</time>
      </trkpt>
      <trkpt lat="29.06385" lon="-13.5626">
        <ele>300.2</ele>
        <time>2021-07-03 17:09:26</time>
      </trkpt>
      <trkpt lat="29.06387" lon="-13.56263">
        <ele>300.4</ele>
        <time>2021-07-03 17:09:27</time>
      </trkpt>
      <trkpt lat="29.06389" lon="-13.56266">
        <ele>300.4</ele>
        <time>2021-07-03 17:09:28</time>
      </trkpt>
      <trkpt lat="29.0639" lon="-13.56269">
        <ele>300.8</ele>
        <time>2021-07-03 17:09:29</time>
      </trkpt>
      <trkpt lat="29.06392" lon="-13.56272">
        <ele>300.8</ele>
        <time>2021-07-03 17:09:30</time>
      </trkpt>
      <trkpt lat="29.06394" lon="-13.56275">
        <ele>301.2</ele>
        <time>2021-07-03 17:09:31</time>
      </trkpt>
      <trkpt lat="29.06396" lon="-13.56278">
        <ele>301.2</ele>
        <time>2021-07-03 17:09:32</time>
      </trkpt>
      <trkpt lat="29.06398" lon="-13.5628">
        <ele>301.4</ele>
        <time>2021-07-03 17:09:33</time>
      </trkpt>
      <trkpt lat="29.064" lon="-13.56283">
        <ele>301.4</ele>
        <time>2021-07-03 17:09:34</time>
      </trkpt>
      <trkpt lat="29.06402" lon="-13.56286">
        <ele>301.8</ele>
        <time>2021-07-03 17:09:35</time>
      </trkpt>
      <trkpt lat="29.06404" lon="-13.56289">
        <ele>302</ele>
        <time>2021-07-03 17:09:36</time>
      </trkpt>
      <trkpt lat="29.06406" lon="-13.56292">
        <ele>302</ele>
        <time>2021-07-03 17:09:37</time>
      </trkpt>
      <trkpt lat="29.06408" lon="-13.56295">
        <ele>302.4</ele>
        <time>2021-07-03 17:09:38</time>
      </trkpt>
      <trkpt lat="29.06411" lon="-13.56298">
        <ele>302.4</ele>
        <time>2021-07-03 17:09:39</time>
      </trkpt>
      <trkpt lat="29.06413" lon="-13.563">
        <ele>302.6</ele>
        <time>2021-07-03 17:09:40</time>
      </trkpt>
      <trkpt lat="29.06415" lon="-13.56303">
        <ele>302.6</ele>
        <time>2021-07-03 17:09:41</time>
      </trkpt>
      <trkpt lat="29.06417" lon="-13.56306">
        <ele>303</ele>
        <time>2021-07-03 17:09:42</time>
      </trkpt>
      <trkpt lat="29.06419" lon="-13.56309">
        <ele>303</ele>
        <time>2021-07-03 17:09:43</time>
      </trkpt>
      <trkpt lat="29.06422" lon="-13.56311">
        <ele>303.2</ele>
        <time>2021-07-03 17:09:44</time>
      </trkpt>
      <trkpt lat="29.06424" lon="-13.56314">
        <ele>303.2</ele>
        <time>2021-07-03 17:09:45</time>
      </trkpt>
      <trkpt lat="29.06426" lon="-13.56317">
        <ele>303.2</ele>
        <time>2021-07-03 17:09:46</time>
      </trkpt>
      <trkpt lat="29.06428" lon="-13.5632">
        <ele>303.2</ele>
        <time>2021-07-03 17:09:47</time>
      </trkpt>
      <trkpt lat="29.0643" lon="-13.56322">
        <ele>303.2</ele>
        <time>2021-07-03 17:09:48</time>
      </trkpt>
      <trkpt lat="29.06432" lon="-13.56325">
        <ele>303.2</ele>
        <time>2021-07-03 17:09:49</time>
      </trkpt>
      <trkpt lat="29.06435" lon="-13.56328">
        <ele>303.2</ele>
        <time>2021-07-03 17:09:50</time>
      </trkpt>
      <trkpt lat="29.06437" lon="-13.5633">
        <ele>303.4</ele>
        <time>2021-07-03 17:09:51</time>
      </trkpt>
      <trkpt lat="29.0644" lon="-13.56332">
        <ele>303.4</ele>
        <time>2021-07-03 17:09:52</time>
      </trkpt>
      <trkpt lat="29.06442" lon="-13.56335">
        <ele>303.4</ele>
        <time>2021-07-03 17:09:53</time>
      </trkpt>
      <trkpt lat="29.06445" lon="-13.56337">
        <ele>303.8</ele>
        <time>2021-07-03 17:09:54</time>
      </trkpt>
      <trkpt lat="29.06448" lon="-13.56339">
        <ele>303.8</ele>
        <time>2021-07-03 17:09:55</time>
      </trkpt>
      <trkpt lat="29.06451" lon="-13.56342">
        <ele>303.8</ele>
        <time>2021-07-03 17:09:56</time>
      </trkpt>
      <trkpt lat="29.06454" lon="-13.56344">
        <ele>303.8</ele>
        <time>2021-07-03 17:09:57</time>
      </trkpt>
      <trkpt lat="29.06458" lon="-13.56346">
        <ele>303.8</ele>
        <time>2021-07-03 17:09:58</time>
      </trkpt>
      <trkpt lat="29.06461" lon="-13.56348">
        <ele>304</ele>
        <time>2021-07-03 17:09:59</time>
      </trkpt>
      <trkpt lat="29.06465" lon="-13.56349">
        <ele>304</ele>
        <time>2021-07-03 17:10:00</time>
      </trkpt>
      <trkpt lat="29.06469" lon="-13.56351">
        <ele>304</ele>
        <time>2021-07-03 17:10:01</time>
      </trkpt>
      <trkpt lat="29.06472" lon="-13.56353">
        <ele>304</ele>
        <time>2021-07-03 17:10:02</time>
      </trkpt>
      <trkpt lat="29.06476" lon="-13.56355">
        <ele>304</ele>
        <time>2021-07-03 17:10:03</time>
      </trkpt>
      <trkpt lat="29.06479" lon="-13.56357">
        <ele>304</ele>
        <time>2021-07-03 17:10:04</time>
      </trkpt>
      <trkpt lat="29.06483" lon="-13.56359">
        <ele>304</ele>
        <time>2021-07-03 17:10:05</time>
      </trkpt>
      <trkpt lat="29.06486" lon="-13.56362">
        <ele>304</ele>
        <time>2021-07-03 17:10:06</time>
      </trkpt>
      <trkpt lat="29.06489" lon="-13.56364">
        <ele>304</ele>
        <time>2021-07-03 17:10:07</time>
      </trkpt>
      <trkpt lat="29.06491" lon="-13.56367">
        <ele>304</ele>
        <time>2021-07-03 17:10:08</time>
      </trkpt>
      <trkpt lat="29.06494" lon="-13.56371">
        <ele>304</ele>
        <time>2021-07-03 17:10:09</time>
      </trkpt>
      <trkpt lat="29.06496" lon="-13.56374">
        <ele>304</ele>
        <time>2021-07-03 17:10:10</time>
      </trkpt>
      <trkpt lat="29.06499" lon="-13.56377">
        <ele>304</ele>
        <time>2021-07-03 17:10:11</time>
      </trkpt>
      <trkpt lat="29.06501" lon="-13.56381">
        <ele>304</ele>
        <time>2021-07-03 17:10:12</time>
      </trkpt>
      <trkpt lat="29.06502" lon="-13.56384">
        <ele>304</ele>
        <time>2021-07-03 17:10:13</time>
      </trkpt>
      <trkpt lat="29.06504" lon="-13.56388">
        <ele>304</ele>
        <time>2021-07-03 17:10:14</time>
      </trkpt>
      <trkpt lat="29.06506" lon="-13.56392">
        <ele>304</ele>
        <time>2021-07-03 17:10:15</time>
      </trkpt>
      <trkpt lat="29.06507" lon="-13.56396">
        <ele>304</ele>
        <time>2021-07-03 17:10:16</time>
      </trkpt>
      <trkpt lat="29.06508" lon="-13.564">
        <ele>304</ele>
        <time>2021-07-03 17:10:17</time>
      </trkpt>
      <trkpt lat="29.0651" lon="-13.56404">
        <ele>304</ele>
        <time>2021-07-03 17:10:18</time>
      </trkpt>
      <trkpt lat="29.06511" lon="-13.56408">
        <ele>304</ele>
        <time>2021-07-03 17:10:19</time>
      </trkpt>
      <trkpt lat="29.06513" lon="-13.56412">
        <ele>304</ele>
        <time>2021-07-03 17:10:20</time>
      </trkpt>
      <trkpt lat="29.06514" lon="-13.56416">
        <ele>304</ele>
        <time>2021-07-03 17:10:21</time>
      </trkpt>
      <trkpt lat="29.06515" lon="-13.56419">
        <ele>304.2</ele>
        <time>2021-07-03 17:10:22</time>
      </trkpt>
      <trkpt lat="29.06517" lon="-13.56423">
        <ele>304.2</ele>
        <time>2021-07-03 17:10:23</time>
      </trkpt>
      <trkpt lat="29.06518" lon="-13.56426">
        <ele>304.2</ele>
        <time>2021-07-03 17:10:24</time>
      </trkpt>
      <trkpt lat="29.0652" lon="-13.5643">
        <ele>304.6</ele>
        <time>2021-07-03 17:10:25</time>
      </trkpt>
      <trkpt lat="29.06522" lon="-13.56433">
        <ele>304.6</ele>
        <time>2021-07-03 17:10:26</time>
      </trkpt>
      <trkpt lat="29.06524" lon="-13.56437">
        <ele>304.6</ele>
        <time>2021-07-03 17:10:27</time>
      </trkpt>
      <trkpt lat="29.06525" lon="-13.56441">
        <ele>304.6</ele>
        <time>2021-07-03 17:10:28</time>
      </trkpt>
      <trkpt lat="29.06527" lon="-13.56445">
        <ele>304.8</ele>
        <time>2021-07-03 17:10:29</time>
      </trkpt>
      <trkpt lat="29.06529" lon="-13.56449">
        <ele>304.8</ele>
        <time>2021-07-03 17:10:30</time>
      </trkpt>
      <trkpt lat="29.06531" lon="-13.56453">
        <ele>304.8</ele>
        <time>2021-07-03 17:10:31</time>
      </trkpt>
      <trkpt lat="29.06532" lon="-13.56457">
        <ele>304.8</ele>
        <time>2021-07-03 17:10:32</time>
      </trkpt>
      <trkpt lat="29.06534" lon="-13.56461">
        <ele>304.8</ele>
        <time>2021-07-03 17:10:33</time>
      </trkpt>
      <trkpt lat="29.06536" lon="-13.56465">
        <ele>304.8</ele>
        <time>2021-07-03 17:10:34</time>
      </trkpt>
      <trkpt lat="29.06538" lon="-13.5647">
        <ele>305</ele>
        <time>2021-07-03 17:10:35</time>
      </trkpt>
      <trkpt lat="29.06539" lon="-13.56474">
        <ele>305</ele>
        <time>2021-07-03 17:10:36</time>
      </trkpt>
      <trkpt lat="29.06541" lon="-13.56478">
        <ele>305</ele>
        <time>2021-07-03 17:10:37</time>
      </trkpt>
      <trkpt lat="29.06543" lon="-13.56482">
        <ele>305</ele>
        <time>2021-07-03 17:10:38</time>
      </trkpt>
      <trkpt lat="29.06545" lon="-13.56486">
        <ele>305</ele>
        <time>2021-07-03 17:10:39</time>
      </trkpt>
      <trkpt lat="29.06546" lon="-13.5649">
        <ele>305</ele>
        <time>2021-07-03 17:10:40</time>
      </trkpt>
      <trkpt lat="29.06548" lon="-13.56494">
        <ele>305</ele>
        <time>2021-07-03 17:10:41</time>
      </trkpt>
      <trkpt lat="29.06549" lon="-13.56498">
        <ele>305</ele>
        <time>2021-07-03 17:10:42</time>
      </trkpt>
      <trkpt lat="29.06551" lon="-13.56502">
        <ele>305</ele>
        <time>2021-07-03 17:10:43</time>
      </trkpt>
      <trkpt lat="29.06552" lon="-13.56506">
        <ele>305</ele>
        <time>2021-07-03 17:10:44</time>
      </trkpt>
      <trkpt lat="29.06554" lon="-13.56511">
        <ele>305</ele>
        <time>2021-07-03 17:10:45</time>
      </trkpt>
      <trkpt lat="29.06555" lon="-13.56515">
        <ele>305</ele>
        <time>2021-07-03 17:10:46</time>
      </trkpt>
      <trkpt lat="29.06557" lon="-13.56519">
        <ele>305</ele>
        <time>2021-07-03 17:10:47</time>
      </trkpt>
      <trkpt lat="29.06559" lon="-13.56523">
        <ele>305</ele>
        <time>2021-07-03 17:10:48</time>
      </trkpt>
      <trkpt lat="29.0656" lon="-13.56527">
        <ele>305</ele>
        <time>2021-07-03 17:10:49</time>
      </trkpt>
      <trkpt lat="29.06562" lon="-13.56531">
        <ele>305</ele>
        <time>2021-07-03 17:10:50</time>
      </trkpt>
      <trkpt lat="29.06564" lon="-13.56536">
        <ele>305</ele>
        <time>2021-07-03 17:10:51</time>
      </trkpt>
      <trkpt lat="29.06565" lon="-13.5654">
        <ele>305</ele>
        <time>2021-07-03 17:10:52</time>
      </trkpt>
      <trkpt lat="29.06567" lon="-13.56544">
        <ele>305</ele>
        <time>2021-07-03 17:10:53</time>
      </trkpt>
      <trkpt lat="29.06569" lon="-13.56548">
        <ele>305</ele>
        <time>2021-07-03 17:10:54</time>
      </trkpt>
      <trkpt lat="29.06571" lon="-13.56552">
        <ele>305</ele>
        <time>2021-07-03 17:10:55</time>
      </trkpt>
      <trkpt lat="29.06572" lon="-13.56557">
        <ele>305</ele>
        <time>2021-07-03 17:10:56</time>
      </trkpt>
      <trkpt lat="29.06574" lon="-13.56561">
        <ele>305</ele>
        <time>2021-07-03 17:10:57</time>
      </trkpt>
      <trkpt lat="29.06576" lon="-13.56565">
        <ele>305</ele>
        <time>2021-07-03 17:10:58</time>
      </trkpt>
      <trkpt lat="29.06577" lon="-13.56569">
        <ele>305</ele>
        <time>2021-07-03 17:10:59</time>
      </trkpt>
      <trkpt lat="29.06579" lon="-13.56573">
        <ele>305.2</ele>
        <time>2021-07-03 17:11:00</time>
      </trkpt>
      <trkpt lat="29.06581" lon="-13.56577">
        <ele>305.2</ele>
        <time>2021-07-03 17:11:01</time>
      </trkpt>
      <trkpt lat="29.06583" lon="-13.56581">
        <ele>305.2</ele>
        <time>2021-07-03 17:11:02</time>
      </trkpt>
      <trkpt lat="29.06585" lon="-13.56586">
        <ele>305.2</ele>
        <time>2021-07-03 17:11:03</time>
      </trkpt>
      <trkpt lat="29.06587" lon="-13.5659">
        <ele>305</ele>
        <time>2021-07-03 17:11:04</time>
      </trkpt>
      <trkpt lat="29.06589" lon="-13.56594">
        <ele>305</ele>
        <time>2021-07-03 17:11:05</time>
      </trkpt>
      <trkpt lat="29.06591" lon="-13.56598">
        <ele>305</ele>
        <time>2021-07-03 17:11:06</time>
      </trkpt>
      <trkpt lat="29.06593" lon="-13.56601">
        <ele>305</ele>
        <time>2021-07-03 17:11:07</time>
      </trkpt>
      <trkpt lat="29.06595" lon="-13.56605">
        <ele>305</ele>
        <time>2021-07-03 17:11:08</time>
      </trkpt>
      <trkpt lat="29.06597" lon="-13.56609">
        <ele>305</ele>
        <time>2021-07-03 17:11:09</time>
      </trkpt>
      <trkpt lat="29.06599" lon="-13.56613">
        <ele>305</ele>
        <time>2021-07-03 17:11:10</time>
      </trkpt>
      <trkpt lat="29.06601" lon="-13.56616">
        <ele>305</ele>
        <time>2021-07-03 17:11:11</time>
      </trkpt>
      <trkpt lat="29.06603" lon="-13.5662">
        <ele>305</ele>
        <time>2021-07-03 17:11:12</time>
      </trkpt>
      <trkpt lat="29.06605" lon="-13.56624">
        <ele>304.6</ele>
        <time>2021-07-03 17:11:13</time>
      </trkpt>
      <trkpt lat="29.06607" lon="-13.56628">
        <ele>304.6</ele>
        <time>2021-07-03 17:11:14</time>
      </trkpt>
      <trkpt lat="29.06609" lon="-13.56632">
        <ele>304.4</ele>
        <time>2021-07-03 17:11:15</time>
      </trkpt>
      <trkpt lat="29.06611" lon="-13.56636">
        <ele>304.4</ele>
        <time>2021-07-03 17:11:16</time>
      </trkpt>
      <trkpt lat="29.06612" lon="-13.5664">
        <ele>304</ele>
        <time>2021-07-03 17:11:17</time>
      </trkpt>
      <trkpt lat="29.06614" lon="-13.56644">
        <ele>304</ele>
        <time>2021-07-03 17:11:18</time>
      </trkpt>
      <trkpt lat="29.06616" lon="-13.56648">
        <ele>302.8</ele>
        <time>2021-07-03 17:11:19</time>
      </trkpt>
      <trkpt lat="29.06617" lon="-13.56652">
        <ele>303</ele>
        <time>2021-07-03 17:11:20</time>
      </trkpt>
      <trkpt lat="29.06619" lon="-13.56655">
        <ele>303</ele>
        <time>2021-07-03 17:11:21</time>
      </trkpt>
      <trkpt lat="29.06621" lon="-13.56659">
        <ele>303</ele>
        <time>2021-07-03 17:11:22</time>
      </trkpt>
      <trkpt lat="29.06622" lon="-13.56662">
        <ele>303</ele>
        <time>2021-07-03 17:11:23</time>
      </trkpt>
      <trkpt lat="29.06624" lon="-13.56666">
        <ele>302.8</ele>
        <time>2021-07-03 17:11:24</time>
      </trkpt>
      <trkpt lat="29.06625" lon="-13.5667">
        <ele>302.8</ele>
        <time>2021-07-03 17:11:25</time>
      </trkpt>
      <trkpt lat="29.06626" lon="-13.56674">
        <ele>302.4</ele>
        <time>2021-07-03 17:11:26</time>
      </trkpt>
      <trkpt lat="29.06628" lon="-13.56678">
        <ele>302.4</ele>
        <time>2021-07-03 17:11:27</time>
      </trkpt>
      <trkpt lat="29.0663" lon="-13.56682">
        <ele>302</ele>
        <time>2021-07-03 17:11:28</time>
      </trkpt>
      <trkpt lat="29.06633" lon="-13.56685">
        <ele>302</ele>
        <time>2021-07-03 17:11:29</time>
      </trkpt>
      <trkpt lat="29.06635" lon="-13.5669">
        <ele>302</ele>
        <time>2021-07-03 17:11:30</time>
      </trkpt>
      <trkpt lat="29.06636" lon="-13.56694">
        <ele>302</ele>
        <time>2021-07-03 17:11:31</time>
      </trkpt>
      <trkpt lat="29.06637" lon="-13.56699">
        <ele>302</ele>
        <time>2021-07-03 17:11:32</time>
      </trkpt>
      <trkpt lat="29.06638" lon="-13.56703">
        <ele>302</ele>
        <time>2021-07-03 17:11:33</time>
      </trkpt>
      <trkpt lat="29.0664" lon="-13.56708">
        <ele>302</ele>
        <time>2021-07-03 17:11:34</time>
      </trkpt>
      <trkpt lat="29.06642" lon="-13.56712">
        <ele>301.8</ele>
        <time>2021-07-03 17:11:35</time>
      </trkpt>
      <trkpt lat="29.06645" lon="-13.56716">
        <ele>301.8</ele>
        <time>2021-07-03 17:11:36</time>
      </trkpt>
      <trkpt lat="29.06647" lon="-13.5672">
        <ele>301.4</ele>
        <time>2021-07-03 17:11:37</time>
      </trkpt>
      <trkpt lat="29.06649" lon="-13.56724">
        <ele>301.4</ele>
        <time>2021-07-03 17:11:38</time>
      </trkpt>
      <trkpt lat="29.06651" lon="-13.56728">
        <ele>301.2</ele>
        <time>2021-07-03 17:11:39</time>
      </trkpt>
      <trkpt lat="29.06654" lon="-13.56732">
        <ele>301.2</ele>
        <time>2021-07-03 17:11:40</time>
      </trkpt>
      <trkpt lat="29.06656" lon="-13.56736">
        <ele>300.8</ele>
        <time>2021-07-03 17:11:41</time>
      </trkpt>
      <trkpt lat="29.06658" lon="-13.5674">
        <ele>300.8</ele>
        <time>2021-07-03 17:11:42</time>
      </trkpt>
      <trkpt lat="29.06661" lon="-13.56745">
        <ele>300.6</ele>
        <time>2021-07-03 17:11:43</time>
      </trkpt>
      <trkpt lat="29.06663" lon="-13.56749">
        <ele>300.6</ele>
        <time>2021-07-03 17:11:44</time>
      </trkpt>
      <trkpt lat="29.06665" lon="-13.56754">
        <ele>300.4</ele>
        <time>2021-07-03 17:11:45</time>
      </trkpt>
      <trkpt lat="29.06667" lon="-13.56758">
        <ele>300.4</ele>
        <time>2021-07-03 17:11:46</time>
      </trkpt>
      <trkpt lat="29.06669" lon="-13.56763">
        <ele>300</ele>
        <time>2021-07-03 17:11:47</time>
      </trkpt>
      <trkpt lat="29.06672" lon="-13.56767">
        <ele>300</ele>
        <time>2021-07-03 17:11:48</time>
      </trkpt>
      <trkpt lat="29.06674" lon="-13.56772">
        <ele>299.6</ele>
        <time>2021-07-03 17:11:49</time>
      </trkpt>
      <trkpt lat="29.06676" lon="-13.56776">
        <ele>299.6</ele>
        <time>2021-07-03 17:11:50</time>
      </trkpt>
      <trkpt lat="29.06678" lon="-13.56781">
        <ele>299.2</ele>
        <time>2021-07-03 17:11:51</time>
      </trkpt>
      <trkpt lat="29.06681" lon="-13.56785">
        <ele>299</ele>
        <time>2021-07-03 17:11:52</time>
      </trkpt>
      <trkpt lat="29.06683" lon="-13.5679">
        <ele>299</ele>
        <time>2021-07-03 17:11:53</time>
      </trkpt>
      <trkpt lat="29.06685" lon="-13.56794">
        <ele>298.6</ele>
        <time>2021-07-03 17:11:54</time>
      </trkpt>
      <trkpt lat="29.06687" lon="-13.56799">
        <ele>298.4</ele>
        <time>2021-07-03 17:11:55</time>
      </trkpt>
      <trkpt lat="29.0669" lon="-13.56804">
        <ele>298.2</ele>
        <time>2021-07-03 17:11:56</time>
      </trkpt>
      <trkpt lat="29.06692" lon="-13.56808">
        <ele>298</ele>
        <time>2021-07-03 17:11:57</time>
      </trkpt>
      <trkpt lat="29.06695" lon="-13.56813">
        <ele>297.8</ele>
        <time>2021-07-03 17:11:58</time>
      </trkpt>
      <trkpt lat="29.06697" lon="-13.56818">
        <ele>297.8</ele>
        <time>2021-07-03 17:11:59</time>
      </trkpt>
      <trkpt lat="29.067" lon="-13.56823">
        <ele>297.4</ele>
        <time>2021-07-03 17:12:00</time>
      </trkpt>
      <trkpt lat="29.06702" lon="-13.56828">
        <ele>297.4</ele>
        <time>2021-07-03 17:12:01</time>
      </trkpt>
      <trkpt lat="29.06705" lon="-13.56832">
        <ele>297</ele>
        <time>2021-07-03 17:12:02</time>
      </trkpt>
      <trkpt lat="29.06708" lon="-13.56837">
        <ele>297</ele>
        <time>2021-07-03 17:12:03</time>
      </trkpt>
      <trkpt lat="29.0671" lon="-13.56843">
        <ele>296.8</ele>
        <time>2021-07-03 17:12:04</time>
      </trkpt>
      <trkpt lat="29.06713" lon="-13.56847">
        <ele>296.8</ele>
        <time>2021-07-03 17:12:05</time>
      </trkpt>
      <trkpt lat="29.06716" lon="-13.56852">
        <ele>296.4</ele>
        <time>2021-07-03 17:12:06</time>
      </trkpt>
      <trkpt lat="29.06718" lon="-13.56857">
        <ele>296.4</ele>
        <time>2021-07-03 17:12:07</time>
      </trkpt>
      <trkpt lat="29.06721" lon="-13.56863">
        <ele>296</ele>
        <time>2021-07-03 17:12:08</time>
      </trkpt>
      <trkpt lat="29.06723" lon="-13.56868">
        <ele>296</ele>
        <time>2021-07-03 17:12:09</time>
      </trkpt>
      <trkpt lat="29.06726" lon="-13.56873">
        <ele>295.6</ele>
        <time>2021-07-03 17:12:10</time>
      </trkpt>
      <trkpt lat="29.06729" lon="-13.56878">
        <ele>295.2</ele>
        <time>2021-07-03 17:12:11</time>
      </trkpt>
      <trkpt lat="29.06731" lon="-13.56883">
        <ele>295</ele>
        <time>2021-07-03 17:12:12</time>
      </trkpt>
      <trkpt lat="29.06734" lon="-13.56887">
        <ele>294.8</ele>
        <time>2021-07-03 17:12:13</time>
      </trkpt>
      <trkpt lat="29.06737" lon="-13.56892">
        <ele>294.4</ele>
        <time>2021-07-03 17:12:14</time>
      </trkpt>
      <trkpt lat="29.06739" lon="-13.56896">
        <ele>294.2</ele>
        <time>2021-07-03 17:12:15</time>
      </trkpt>
      <trkpt lat="29.06742" lon="-13.56901">
        <ele>294.2</ele>
        <time>2021-07-03 17:12:16</time>
      </trkpt>
      <trkpt lat="29.06743" lon="-13.56906">
        <ele>293.8</ele>
        <time>2021-07-03 17:12:17</time>
      </trkpt>
      <trkpt lat="29.06746" lon="-13.56911">
        <ele>293.4</ele>
        <time>2021-07-03 17:12:18</time>
      </trkpt>
      <trkpt lat="29.06748" lon="-13.56916">
        <ele>293.2</ele>
        <time>2021-07-03 17:12:19</time>
      </trkpt>
      <trkpt lat="29.06751" lon="-13.56921">
        <ele>292.8</ele>
        <time>2021-07-03 17:12:20</time>
      </trkpt>
      <trkpt lat="29.06752" lon="-13.56925">
        <ele>292.6</ele>
        <time>2021-07-03 17:12:21</time>
      </trkpt>
      <trkpt lat="29.06754" lon="-13.56929">
        <ele>292.6</ele>
        <time>2021-07-03 17:12:22</time>
      </trkpt>
      <trkpt lat="29.06756" lon="-13.56933">
        <ele>292.2</ele>
        <time>2021-07-03 17:12:23</time>
      </trkpt>
      <trkpt lat="29.06757" lon="-13.56937">
        <ele>292.2</ele>
        <time>2021-07-03 17:12:24</time>
      </trkpt>
      <trkpt lat="29.0676" lon="-13.56941">
        <ele>291.8</ele>
        <time>2021-07-03 17:12:25</time>
      </trkpt>
      <trkpt lat="29.06762" lon="-13.56944">
        <ele>291.6</ele>
        <time>2021-07-03 17:12:26</time>
      </trkpt>
      <trkpt lat="29.06764" lon="-13.56948">
        <ele>291</ele>
        <time>2021-07-03 17:12:27</time>
      </trkpt>
      <trkpt lat="29.06766" lon="-13.56951">
        <ele>290.8</ele>
        <time>2021-07-03 17:12:28</time>
      </trkpt>
      <trkpt lat="29.06768" lon="-13.56955">
        <ele>290.8</ele>
        <time>2021-07-03 17:12:29</time>
      </trkpt>
      <trkpt lat="29.0677" lon="-13.5696">
        <ele>290.6</ele>
        <time>2021-07-03 17:12:30</time>
      </trkpt>
      <trkpt lat="29.06772" lon="-13.56964">
        <ele>290.4</ele>
        <time>2021-07-03 17:12:31</time>
      </trkpt>
      <trkpt lat="29.06775" lon="-13.56967">
        <ele>290</ele>
        <time>2021-07-03 17:12:32</time>
      </trkpt>
      <trkpt lat="29.06779" lon="-13.5697">
        <ele>289.8</ele>
        <time>2021-07-03 17:12:33</time>
      </trkpt>
      <trkpt lat="29.06782" lon="-13.56972">
        <ele>289.6</ele>
        <time>2021-07-03 17:12:34</time>
      </trkpt>
      <trkpt lat="29.06786" lon="-13.56973">
        <ele>289.2</ele>
        <time>2021-07-03 17:12:35</time>
      </trkpt>
      <trkpt lat="29.06789" lon="-13.56973">
        <ele>289</ele>
        <time>2021-07-03 17:12:36</time>
      </trkpt>
      <trkpt lat="29.06792" lon="-13.56972">
        <ele>289</ele>
        <time>2021-07-03 17:12:37</time>
      </trkpt>
      <trkpt lat="29.06795" lon="-13.56971">
        <ele>288.6</ele>
        <time>2021-07-03 17:12:38</time>
      </trkpt>
      <trkpt lat="29.06798" lon="-13.5697">
        <ele>288.6</ele>
        <time>2021-07-03 17:12:39</time>
      </trkpt>
      <trkpt lat="29.06799" lon="-13.56969">
        <ele>288.6</ele>
        <time>2021-07-03 17:12:40</time>
      </trkpt>
      <trkpt lat="29.068" lon="-13.56968">
        <ele>288.4</ele>
        <time>2021-07-03 17:12:41</time>
      </trkpt>
      <trkpt lat="29.06801" lon="-13.56968">
        <ele>288.2</ele>
        <time>2021-07-03 17:12:42</time>
      </trkpt>
      <trkpt lat="29.06801" lon="-13.56968">
        <ele>288.2</ele>
        <time>2021-07-03 17:12:43</time>
      </trkpt>
      <trkpt lat="29.06803" lon="-13.56967">
        <ele>286.4</ele>
        <time>2021-07-03 17:12:44</time>
      </trkpt>
      <trkpt lat="29.06804" lon="-13.56966">
        <ele>286.8</ele>
        <time>2021-07-03 17:12:45</time>
      </trkpt>
      <trkpt lat="29.06807" lon="-13.56964">
        <ele>286.8</ele>
        <time>2021-07-03 17:12:46</time>
      </trkpt>
      <trkpt lat="29.0681" lon="-13.56962">
        <ele>287</ele>
        <time>2021-07-03 17:12:47</time>
      </trkpt>
      <trkpt lat="29.06813" lon="-13.5696">
        <ele>287</ele>
        <time>2021-07-03 17:12:48</time>
      </trkpt>
      <trkpt lat="29.06817" lon="-13.56957">
        <ele>287</ele>
        <time>2021-07-03 17:12:49</time>
      </trkpt>
      <trkpt lat="29.0682" lon="-13.56954">
        <ele>286.6</ele>
        <time>2021-07-03 17:12:50</time>
      </trkpt>
      <trkpt lat="29.06825" lon="-13.56951">
        <ele>286.4</ele>
        <time>2021-07-03 17:12:51</time>
      </trkpt>
      <trkpt lat="29.06829" lon="-13.56949">
        <ele>286</ele>
        <time>2021-07-03 17:12:52</time>
      </trkpt>
      <trkpt lat="29.06833" lon="-13.56947">
        <ele>285.6</ele>
        <time>2021-07-03 17:12:53</time>
      </trkpt>
      <trkpt lat="29.06838" lon="-13.56943">
        <ele>285</ele>
        <time>2021-07-03 17:12:54</time>
      </trkpt>
      <trkpt lat="29.06843" lon="-13.56941">
        <ele>284.4</ele>
        <time>2021-07-03 17:12:55</time>
      </trkpt>
      <trkpt lat="29.06848" lon="-13.56937">
        <ele>283.8</ele>
        <time>2021-07-03 17:12:56</time>
      </trkpt>
      <trkpt lat="29.06854" lon="-13.56934">
        <ele>283.2</ele>
        <time>2021-07-03 17:12:57</time>
      </trkpt>
      <trkpt lat="29.0686" lon="-13.5693">
        <ele>282.2</ele>
        <time>2021-07-03 17:12:58</time>
      </trkpt>
      <trkpt lat="29.06866" lon="-13.56926">
        <ele>281.6</ele>
        <time>2021-07-03 17:12:59</time>
      </trkpt>
      <trkpt lat="29.06872" lon="-13.56922">
        <ele>280.8</ele>
        <time>2021-07-03 17:13:00</time>
      </trkpt>
      <trkpt lat="29.06879" lon="-13.56918">
        <ele>280.2</ele>
        <time>2021-07-03 17:13:01</time>
      </trkpt>
      <trkpt lat="29.06885" lon="-13.56914">
        <ele>279.8</ele>
        <time>2021-07-03 17:13:02</time>
      </trkpt>
      <trkpt lat="29.06892" lon="-13.5691">
        <ele>279.2</ele>
        <time>2021-07-03 17:13:03</time>
      </trkpt>
      <trkpt lat="29.06898" lon="-13.56907">
        <ele>278.6</ele>
        <time>2021-07-03 17:13:04</time>
      </trkpt>
      <trkpt lat="29.06905" lon="-13.56903">
        <ele>278</ele>
        <time>2021-07-03 17:13:05</time>
      </trkpt>
      <trkpt lat="29.06911" lon="-13.56899">
        <ele>277.4</ele>
        <time>2021-07-03 17:13:06</time>
      </trkpt>
      <trkpt lat="29.06918" lon="-13.56895">
        <ele>276.8</ele>
        <time>2021-07-03 17:13:07</time>
      </trkpt>
      <trkpt lat="29.06925" lon="-13.56892">
        <ele>276.2</ele>
        <time>2021-07-03 17:13:08</time>
      </trkpt>
      <trkpt lat="29.06932" lon="-13.56888">
        <ele>275.6</ele>
        <time>2021-07-03 17:13:09</time>
      </trkpt>
      <trkpt lat="29.06939" lon="-13.56884">
        <ele>274.8</ele>
        <time>2021-07-03 17:13:10</time>
      </trkpt>
      <trkpt lat="29.06947" lon="-13.5688">
        <ele>274.4</ele>
        <time>2021-07-03 17:13:11</time>
      </trkpt>
      <trkpt lat="29.06954" lon="-13.56876">
        <ele>273.8</ele>
        <time>2021-07-03 17:13:12</time>
      </trkpt>
      <trkpt lat="29.06961" lon="-13.56872">
        <ele>273.2</ele>
        <time>2021-07-03 17:13:13</time>
      </trkpt>
      <trkpt lat="29.06968" lon="-13.56869">
        <ele>272.8</ele>
        <time>2021-07-03 17:13:14</time>
      </trkpt>
      <trkpt lat="29.06975" lon="-13.56864">
        <ele>272</ele>
        <time>2021-07-03 17:13:15</time>
      </trkpt>
      <trkpt lat="29.06983" lon="-13.56861">
        <ele>271.4</ele>
        <time>2021-07-03 17:13:16</time>
      </trkpt>
      <trkpt lat="29.0699" lon="-13.56857">
        <ele>270.8</ele>
        <time>2021-07-03 17:13:17</time>
      </trkpt>
      <trkpt lat="29.06998" lon="-13.56854">
        <ele>270</ele>
        <time>2021-07-03 17:13:18</time>
      </trkpt>
      <trkpt lat="29.07005" lon="-13.56851">
        <ele>269.4</ele>
        <time>2021-07-03 17:13:19</time>
      </trkpt>
      <trkpt lat="29.07012" lon="-13.56847">
        <ele>268.8</ele>
        <time>2021-07-03 17:13:20</time>
      </trkpt>
      <trkpt lat="29.07019" lon="-13.56844">
        <ele>268</ele>
        <time>2021-07-03 17:13:21</time>
      </trkpt>
      <trkpt lat="29.07025" lon="-13.56841">
        <ele>267.4</ele>
        <time>2021-07-03 17:13:22</time>
      </trkpt>
      <trkpt lat="29.07032" lon="-13.56837">
        <ele>266.8</ele>
        <time>2021-07-03 17:13:23</time>
      </trkpt>
      <trkpt lat="29.07039" lon="-13.56835">
        <ele>266</ele>
        <time>2021-07-03 17:13:24</time>
      </trkpt>
      <trkpt lat="29.07045" lon="-13.56831">
        <ele>265.4</ele>
        <time>2021-07-03 17:13:25</time>
      </trkpt>
      <trkpt lat="29.07052" lon="-13.56828">
        <ele>264.8</ele>
        <time>2021-07-03 17:13:26</time>
      </trkpt>
      <trkpt lat="29.07058" lon="-13.56826">
        <ele>264.2</ele>
        <time>2021-07-03 17:13:27</time>
      </trkpt>
      <trkpt lat="29.07065" lon="-13.56823">
        <ele>263.6</ele>
        <time>2021-07-03 17:13:28</time>
      </trkpt>
      <trkpt lat="29.07071" lon="-13.5682">
        <ele>263</ele>
        <time>2021-07-03 17:13:29</time>
      </trkpt>
      <trkpt lat="29.07078" lon="-13.56818">
        <ele>262.4</ele>
        <time>2021-07-03 17:13:30</time>
      </trkpt>
      <trkpt lat="29.07085" lon="-13.56816">
        <ele>261.8</ele>
        <time>2021-07-03 17:13:31</time>
      </trkpt>
      <trkpt lat="29.07092" lon="-13.56813">
        <ele>261.2</ele>
        <time>2021-07-03 17:13:32</time>
      </trkpt>
      <trkpt lat="29.07099" lon="-13.56811">
        <ele>260.6</ele>
        <time>2021-07-03 17:13:33</time>
      </trkpt>
      <trkpt lat="29.07105" lon="-13.56809">
        <ele>260</ele>
        <time>2021-07-03 17:13:34</time>
      </trkpt>
      <trkpt lat="29.07111" lon="-13.56807">
        <ele>259.4</ele>
        <time>2021-07-03 17:13:35</time>
      </trkpt>
      <trkpt lat="29.07118" lon="-13.56805">
        <ele>258.8</ele>
        <time>2021-07-03 17:13:36</time>
      </trkpt>
      <trkpt lat="29.07124" lon="-13.56803">
        <ele>258.4</ele>
        <time>2021-07-03 17:13:37</time>
      </trkpt>
      <trkpt lat="29.0713" lon="-13.56802">
        <ele>257.8</ele>
        <time>2021-07-03 17:13:38</time>
      </trkpt>
      <trkpt lat="29.07137" lon="-13.56802">
        <ele>257.2</ele>
        <time>2021-07-03 17:13:39</time>
      </trkpt>
      <trkpt lat="29.07142" lon="-13.568">
        <ele>256.6</ele>
        <time>2021-07-03 17:13:40</time>
      </trkpt>
      <trkpt lat="29.07149" lon="-13.56799">
        <ele>256</ele>
        <time>2021-07-03 17:13:41</time>
      </trkpt>
      <trkpt lat="29.07155" lon="-13.56798">
        <ele>255.4</ele>
        <time>2021-07-03 17:13:42</time>
      </trkpt>
      <trkpt lat="29.07161" lon="-13.56796">
        <ele>254.8</ele>
        <time>2021-07-03 17:13:43</time>
      </trkpt>
      <trkpt lat="29.07167" lon="-13.56794">
        <ele>254.2</ele>
        <time>2021-07-03 17:13:44</time>
      </trkpt>
      <trkpt lat="29.07174" lon="-13.56792">
        <ele>253.6</ele>
        <time>2021-07-03 17:13:45</time>
      </trkpt>
      <trkpt lat="29.07181" lon="-13.5679">
        <ele>253</ele>
        <time>2021-07-03 17:13:46</time>
      </trkpt>
      <trkpt lat="29.07188" lon="-13.56788">
        <ele>252.2</ele>
        <time>2021-07-03 17:13:47</time>
      </trkpt>
      <trkpt lat="29.07195" lon="-13.56786">
        <ele>251.8</ele>
        <time>2021-07-03 17:13:48</time>
      </trkpt>
      <trkpt lat="29.07202" lon="-13.56784">
        <ele>251</ele>
        <time>2021-07-03 17:13:49</time>
      </trkpt>
      <trkpt lat="29.07208" lon="-13.56784">
        <ele>250.4</ele>
        <time>2021-07-03 17:13:50</time>
      </trkpt>
      <trkpt lat="29.07215" lon="-13.56783">
        <ele>249.8</ele>
        <time>2021-07-03 17:13:51</time>
      </trkpt>
      <trkpt lat="29.07221" lon="-13.56783">
        <ele>249.2</ele>
        <time>2021-07-03 17:13:52</time>
      </trkpt>
      <trkpt lat="29.07227" lon="-13.56783">
        <ele>248.6</ele>
        <time>2021-07-03 17:13:53</time>
      </trkpt>
      <trkpt lat="29.07232" lon="-13.56783">
        <ele>248</ele>
        <time>2021-07-03 17:14:27</time>
      </trkpt>
      <trkpt lat="29.07238" lon="-13.56783">
        <ele>247.6</ele>
        <time>2021-07-03 17:14:28</time>
      </trkpt>
      <trkpt lat="29.07244" lon="-13.56783">
        <ele>246.8</ele>
        <time>2021-07-03 17:14:29</time>
      </trkpt>
      <trkpt lat="29.07249" lon="-13.56784">
        <ele>246.4</ele>
        <time>2021-07-03 17:14:30</time>
      </trkpt>
      <trkpt lat="29.07254" lon="-13.56783">
        <ele>245.8</ele>
        <time>2021-07-03 17:14:31</time>
      </trkpt>
      <trkpt lat="29.07259" lon="-13.56783">
        <ele>245.4</ele>
        <time>2021-07-03 17:14:32</time>
      </trkpt>
      <trkpt lat="29.07263" lon="-13.56782">
        <ele>245.2</ele>
        <time>2021-07-03 17:14:33</time>
      </trkpt>
      <trkpt lat="29.07268" lon="-13.56782">
        <ele>244.8</ele>
        <time>2021-07-03 17:14:34</time>
      </trkpt>
      <trkpt lat="29.07273" lon="-13.56782">
        <ele>244.2</ele>
        <time>2021-07-03 17:14:35</time>
      </trkpt>
      <trkpt lat="29.07278" lon="-13.56782">
        <ele>243.8</ele>
        <time>2021-07-03 17:14:36</time>
      </trkpt>
      <trkpt lat="29.07284" lon="-13.56783">
        <ele>243.2</ele>
        <time>2021-07-03 17:14:37</time>
      </trkpt>
      <trkpt lat="29.0729" lon="-13.56783">
        <ele>242.8</ele>
        <time>2021-07-03 17:14:38</time>
      </trkpt>
      <trkpt lat="29.07295" lon="-13.56782">
        <ele>242.4</ele>
        <time>2021-07-03 17:14:39</time>
      </trkpt>
      <trkpt lat="29.07301" lon="-13.56783">
        <ele>241.8</ele>
        <time>2021-07-03 17:14:40</time>
      </trkpt>
      <trkpt lat="29.07308" lon="-13.56784">
        <ele>241.4</ele>
        <time>2021-07-03 17:14:41</time>
      </trkpt>
      <trkpt lat="29.07314" lon="-13.56784">
        <ele>241</ele>
        <time>2021-07-03 17:14:42</time>
      </trkpt>
      <trkpt lat="29.0732" lon="-13.56786">
        <ele>240.4</ele>
        <time>2021-07-03 17:14:43</time>
      </trkpt>
      <trkpt lat="29.07326" lon="-13.56786">
        <ele>239.8</ele>
        <time>2021-07-03 17:14:44</time>
      </trkpt>
      <trkpt lat="29.07332" lon="-13.56787">
        <ele>239.4</ele>
        <time>2021-07-03 17:14:45</time>
      </trkpt>
      <trkpt lat="29.07338" lon="-13.56789">
        <ele>238.8</ele>
        <time>2021-07-03 17:14:46</time>
      </trkpt>
      <trkpt lat="29.07343" lon="-13.56791">
        <ele>238.6</ele>
        <time>2021-07-03 17:14:47</time>
      </trkpt>
      <trkpt lat="29.07349" lon="-13.56792">
        <ele>237.8</ele>
        <time>2021-07-03 17:14:48</time>
      </trkpt>
      <trkpt lat="29.07354" lon="-13.56793">
        <ele>237.4</ele>
        <time>2021-07-03 17:14:49</time>
      </trkpt>
      <trkpt lat="29.07358" lon="-13.56793">
        <ele>236.8</ele>
        <time>2021-07-03 17:14:50</time>
      </trkpt>
      <trkpt lat="29.07362" lon="-13.56793">
        <ele>236.2</ele>
        <time>2021-07-03 17:14:51</time>
      </trkpt>
      <trkpt lat="29.07366" lon="-13.56793">
        <ele>235.6</ele>
        <time>2021-07-03 17:14:52</time>
      </trkpt>
      <trkpt lat="29.07369" lon="-13.56793">
        <ele>235.2</ele>
        <time>2021-07-03 17:14:53</time>
      </trkpt>
      <trkpt lat="29.07372" lon="-13.56793">
        <ele>235</ele>
        <time>2021-07-03 17:14:54</time>
      </trkpt>
      <trkpt lat="29.07375" lon="-13.56793">
        <ele>234.6</ele>
        <time>2021-07-03 17:14:55</time>
      </trkpt>
      <trkpt lat="29.07379" lon="-13.56792">
        <ele>234.4</ele>
        <time>2021-07-03 17:14:56</time>
      </trkpt>
      <trkpt lat="29.07383" lon="-13.56792">
        <ele>234</ele>
        <time>2021-07-03 17:14:57</time>
      </trkpt>
      <trkpt lat="29.07387" lon="-13.5679">
        <ele>233.6</ele>
        <time>2021-07-03 17:14:58</time>
      </trkpt>
      <trkpt lat="29.07391" lon="-13.56789">
        <ele>233.4</ele>
        <time>2021-07-03 17:14:59</time>
      </trkpt>
      <trkpt lat="29.07395" lon="-13.56788">
        <ele>233</ele>
        <time>2021-07-03 17:15:00</time>
      </trkpt>
      <trkpt lat="29.07399" lon="-13.56787">
        <ele>232.8</ele>
        <time>2021-07-03 17:15:01</time>
      </trkpt>
      <trkpt lat="29.07403" lon="-13.56785">
        <ele>232.4</ele>
        <time>2021-07-03 17:15:02</time>
      </trkpt>
      <trkpt lat="29.07406" lon="-13.56783">
        <ele>232</ele>
        <time>2021-07-03 17:15:03</time>
      </trkpt>
      <trkpt lat="29.0741" lon="-13.56781">
        <ele>231.6</ele>
        <time>2021-07-03 17:15:04</time>
      </trkpt>
      <trkpt lat="29.07413" lon="-13.5678">
        <ele>231.4</ele>
        <time>2021-07-03 17:15:05</time>
      </trkpt>
      <trkpt lat="29.07416" lon="-13.56778">
        <ele>231.4</ele>
        <time>2021-07-03 17:15:06</time>
      </trkpt>
      <trkpt lat="29.07418" lon="-13.56777">
        <ele>231</ele>
        <time>2021-07-03 17:15:07</time>
      </trkpt>
      <trkpt lat="29.07419" lon="-13.56777">
        <ele>231</ele>
        <time>2021-07-03 17:15:08</time>
      </trkpt>
      <trkpt lat="29.07419" lon="-13.56777">
        <ele>230.8</ele>
        <time>2021-07-03 17:15:09</time>
      </trkpt>
      <trkpt lat="29.07419" lon="-13.56777">
        <ele>230.4</ele>
        <time>2021-07-03 17:15:10</time>
      </trkpt>
      <trkpt lat="29.07419" lon="-13.56776">
        <ele>227.6</ele>
        <time>2021-07-03 17:15:11</time>
      </trkpt>
      <trkpt lat="29.07421" lon="-13.56774">
        <ele>227.6</ele>
        <time>2021-07-03 17:15:12</time>
      </trkpt>
      <trkpt lat="29.07423" lon="-13.56773">
        <ele>227.6</ele>
        <time>2021-07-03 17:15:13</time>
      </trkpt>
      <trkpt lat="29.07426" lon="-13.56771">
        <ele>227.6</ele>
        <time>2021-07-03 17:15:14</time>
      </trkpt>
      <trkpt lat="29.07429" lon="-13.56769">
        <ele>227.6</ele>
        <time>2021-07-03 17:15:15</time>
      </trkpt>
      <trkpt lat="29.07432" lon="-13.56767">
        <ele>227.4</ele>
        <time>2021-07-03 17:15:16</time>
      </trkpt>
      <trkpt lat="29.07436" lon="-13.56764">
        <ele>227.2</ele>
        <time>2021-07-03 17:15:17</time>
      </trkpt>
      <trkpt lat="29.0744" lon="-13.56762">
        <ele>226.8</ele>
        <time>2021-07-03 17:15:18</time>
      </trkpt>
      <trkpt lat="29.07443" lon="-13.56759">
        <ele>226.8</ele>
        <time>2021-07-03 17:15:19</time>
      </trkpt>
      <trkpt lat="29.07448" lon="-13.56757">
        <ele>226.4</ele>
        <time>2021-07-03 17:15:20</time>
      </trkpt>
      <trkpt lat="29.07453" lon="-13.56756">
        <ele>226</ele>
        <time>2021-07-03 17:15:21</time>
      </trkpt>
      <trkpt lat="29.07457" lon="-13.56758">
        <ele>225.8</ele>
        <time>2021-07-03 17:15:22</time>
      </trkpt>
      <trkpt lat="29.07461" lon="-13.56761">
        <ele>225.8</ele>
        <time>2021-07-03 17:15:23</time>
      </trkpt>
      <trkpt lat="29.07464" lon="-13.56766">
        <ele>225.8</ele>
        <time>2021-07-03 17:15:24</time>
      </trkpt>
      <trkpt lat="29.07464" lon="-13.56772">
        <ele>225.8</ele>
        <time>2021-07-03 17:15:25</time>
      </trkpt>
      <trkpt lat="29.07462" lon="-13.56777">
        <ele>225.4</ele>
        <time>2021-07-03 17:15:26</time>
      </trkpt>
      <trkpt lat="29.0746" lon="-13.56782">
        <ele>225</ele>
        <time>2021-07-03 17:15:27</time>
      </trkpt>
      <trkpt lat="29.07457" lon="-13.56787">
        <ele>224.6</ele>
        <time>2021-07-03 17:15:28</time>
      </trkpt>
      <trkpt lat="29.07453" lon="-13.56792">
        <ele>224</ele>
        <time>2021-07-03 17:15:29</time>
      </trkpt>
      <trkpt lat="29.07449" lon="-13.56796">
        <ele>223.4</ele>
        <time>2021-07-03 17:15:30</time>
      </trkpt>
      <trkpt lat="29.07445" lon="-13.56801">
        <ele>222.8</ele>
        <time>2021-07-03 17:15:31</time>
      </trkpt>
      <trkpt lat="29.07441" lon="-13.56805">
        <ele>222.2</ele>
        <time>2021-07-03 17:15:32</time>
      </trkpt>
      <trkpt lat="29.07438" lon="-13.56809">
        <ele>221.6</ele>
        <time>2021-07-03 17:15:33</time>
      </trkpt>
      <trkpt lat="29.07434" lon="-13.56812">
        <ele>221</ele>
        <time>2021-07-03 17:15:34</time>
      </trkpt>
      <trkpt lat="29.0743" lon="-13.56815">
        <ele>220.4</ele>
        <time>2021-07-03 17:15:35</time>
      </trkpt>
      <trkpt lat="29.07427" lon="-13.56818">
        <ele>219.8</ele>
        <time>2021-07-03 17:15:36</time>
      </trkpt>
      <trkpt lat="29.07425" lon="-13.56822">
        <ele>219.4</ele>
        <time>2021-07-03 17:15:37</time>
      </trkpt>
      <trkpt lat="29.07421" lon="-13.56825">
        <ele>218.8</ele>
        <time>2021-07-03 17:15:38</time>
      </trkpt>
      <trkpt lat="29.07417" lon="-13.56829">
        <ele>218.2</ele>
        <time>2021-07-03 17:15:39</time>
      </trkpt>
      <trkpt lat="29.07413" lon="-13.56834">
        <ele>217.6</ele>
        <time>2021-07-03 17:15:40</time>
      </trkpt>
      <trkpt lat="29.07409" lon="-13.56838">
        <ele>217.2</ele>
        <time>2021-07-03 17:15:41</time>
      </trkpt>
      <trkpt lat="29.07405" lon="-13.56841">
        <ele>216.8</ele>
        <time>2021-07-03 17:15:42</time>
      </trkpt>
      <trkpt lat="29.07401" lon="-13.56845">
        <ele>216.4</ele>
        <time>2021-07-03 17:15:43</time>
      </trkpt>
      <trkpt lat="29.07398" lon="-13.56848">
        <ele>216</ele>
        <time>2021-07-03 17:15:44</time>
      </trkpt>
      <trkpt lat="29.07395" lon="-13.56851">
        <ele>215.6</ele>
        <time>2021-07-03 17:15:45</time>
      </trkpt>
      <trkpt lat="29.07391" lon="-13.56853">
        <ele>215</ele>
        <time>2021-07-03 17:15:46</time>
      </trkpt>
      <trkpt lat="29.07387" lon="-13.56855">
        <ele>214.6</ele>
        <time>2021-07-03 17:15:47</time>
      </trkpt>
      <trkpt lat="29.07384" lon="-13.56858">
        <ele>214</ele>
        <time>2021-07-03 17:15:48</time>
      </trkpt>
      <trkpt lat="29.0738" lon="-13.5686">
        <ele>213.6</ele>
        <time>2021-07-03 17:15:49</time>
      </trkpt>
      <trkpt lat="29.07377" lon="-13.56863">
        <ele>213.2</ele>
        <time>2021-07-03 17:15:50</time>
      </trkpt>
      <trkpt lat="29.07374" lon="-13.56866">
        <ele>212.8</ele>
        <time>2021-07-03 17:15:51</time>
      </trkpt>
      <trkpt lat="29.07372" lon="-13.56869">
        <ele>212.4</ele>
        <time>2021-07-03 17:15:52</time>
      </trkpt>
      <trkpt lat="29.0737" lon="-13.56874">
        <ele>212</ele>
        <time>2021-07-03 17:15:53</time>
      </trkpt>
      <trkpt lat="29.0737" lon="-13.56878">
        <ele>211.6</ele>
        <time>2021-07-03 17:15:54</time>
      </trkpt>
      <trkpt lat="29.07369" lon="-13.56883">
        <ele>211.2</ele>
        <time>2021-07-03 17:15:55</time>
      </trkpt>
      <trkpt lat="29.07372" lon="-13.56887">
        <ele>210.8</ele>
        <time>2021-07-03 17:15:56</time>
      </trkpt>
      <trkpt lat="29.07375" lon="-13.56891">
        <ele>210.6</ele>
        <time>2021-07-03 17:15:57</time>
      </trkpt>
      <trkpt lat="29.07379" lon="-13.56893">
        <ele>210.6</ele>
        <time>2021-07-03 17:15:58</time>
      </trkpt>
      <trkpt lat="29.07383" lon="-13.56894">
        <ele>210.6</ele>
        <time>2021-07-03 17:15:59</time>
      </trkpt>
      <trkpt lat="29.07388" lon="-13.56892">
        <ele>210.6</ele>
        <time>2021-07-03 17:16:00</time>
      </trkpt>
      <trkpt lat="29.07393" lon="-13.56891">
        <ele>210.6</ele>
        <time>2021-07-03 17:16:01</time>
      </trkpt>
      <trkpt lat="29.07398" lon="-13.56888">
        <ele>210.4</ele>
        <time>2021-07-03 17:16:02</time>
      </trkpt>
      <trkpt lat="29.07403" lon="-13.56885">
        <ele>210.2</ele>
        <time>2021-07-03 17:16:03</time>
      </trkpt>
      <trkpt lat="29.07408" lon="-13.56883">
        <ele>209.8</ele>
        <time>2021-07-03 17:16:04</time>
      </trkpt>
      <trkpt lat="29.07412" lon="-13.5688">
        <ele>209.6</ele>
        <time>2021-07-03 17:16:05</time>
      </trkpt>
      <trkpt lat="29.07417" lon="-13.56878">
        <ele>209.2</ele>
        <time>2021-07-03 17:16:06</time>
      </trkpt>
      <trkpt lat="29.07423" lon="-13.56875">
        <ele>208.8</ele>
        <time>2021-07-03 17:16:07</time>
      </trkpt>
      <trkpt lat="29.07427" lon="-13.56872">
        <ele>208.4</ele>
        <time>2021-07-03 17:16:08</time>
      </trkpt>
      <trkpt lat="29.07433" lon="-13.56869">
        <ele>208</ele>
        <time>2021-07-03 17:16:09</time>
      </trkpt>
      <trkpt lat="29.07439" lon="-13.56867">
        <ele>207.6</ele>
        <time>2021-07-03 17:16:10</time>
      </trkpt>
      <trkpt lat="29.07445" lon="-13.56864">
        <ele>207</ele>
        <time>2021-07-03 17:16:11</time>
      </trkpt>
      <trkpt lat="29.07451" lon="-13.56862">
        <ele>206.6</ele>
        <time>2021-07-03 17:16:12</time>
      </trkpt>
      <trkpt lat="29.07458" lon="-13.5686">
        <ele>206</ele>
        <time>2021-07-03 17:16:13</time>
      </trkpt>
      <trkpt lat="29.07464" lon="-13.56858">
        <ele>205.4</ele>
        <time>2021-07-03 17:16:14</time>
      </trkpt>
      <trkpt lat="29.07471" lon="-13.56855">
        <ele>205</ele>
        <time>2021-07-03 17:16:15</time>
      </trkpt>
      <trkpt lat="29.07477" lon="-13.56853">
        <ele>204.4</ele>
        <time>2021-07-03 17:16:16</time>
      </trkpt>
      <trkpt lat="29.07484" lon="-13.56849">
        <ele>204</ele>
        <time>2021-07-03 17:16:17</time>
      </trkpt>
      <trkpt lat="29.0749" lon="-13.56846">
        <ele>203.4</ele>
        <time>2021-07-03 17:16:18</time>
      </trkpt>
      <trkpt lat="29.07496" lon="-13.56842">
        <ele>203</ele>
        <time>2021-07-03 17:16:19</time>
      </trkpt>
      <trkpt lat="29.07503" lon="-13.56838">
        <ele>202.4</ele>
        <time>2021-07-03 17:16:20</time>
      </trkpt>
      <trkpt lat="29.07509" lon="-13.56834">
        <ele>201.8</ele>
        <time>2021-07-03 17:16:52</time>
      </trkpt>
      <trkpt lat="29.07515" lon="-13.56829">
        <ele>201.2</ele>
        <time>2021-07-03 17:16:53</time>
      </trkpt>
      <trkpt lat="29.07521" lon="-13.56826">
        <ele>200.6</ele>
        <time>2021-07-03 17:16:54</time>
      </trkpt>
      <trkpt lat="29.07527" lon="-13.56823">
        <ele>200.2</ele>
        <time>2021-07-03 17:16:55</time>
      </trkpt>
      <trkpt lat="29.07532" lon="-13.56819">
        <ele>199.6</ele>
        <time>2021-07-03 17:16:56</time>
      </trkpt>
      <trkpt lat="29.07537" lon="-13.56815">
        <ele>199</ele>
        <time>2021-07-03 17:16:57</time>
      </trkpt>
      <trkpt lat="29.07543" lon="-13.56812">
        <ele>198.6</ele>
        <time>2021-07-03 17:16:58</time>
      </trkpt>
      <trkpt lat="29.07548" lon="-13.56808">
        <ele>198.2</ele>
        <time>2021-07-03 17:16:59</time>
      </trkpt>
      <trkpt lat="29.07552" lon="-13.56805">
        <ele>197.8</ele>
        <time>2021-07-03 17:17:00</time>
      </trkpt>
      <trkpt lat="29.07555" lon="-13.568">
        <ele>197.6</ele>
        <time>2021-07-03 17:17:01</time>
      </trkpt>
      <trkpt lat="29.07558" lon="-13.56795">
        <ele>197.4</ele>
        <time>2021-07-03 17:17:02</time>
      </trkpt>
      <trkpt lat="29.07559" lon="-13.5679">
        <ele>197.4</ele>
        <time>2021-07-03 17:17:03</time>
      </trkpt>
      <trkpt lat="29.07559" lon="-13.56784">
        <ele>197.4</ele>
        <time>2021-07-03 17:17:04</time>
      </trkpt>
      <trkpt lat="29.07558" lon="-13.56779">
        <ele>197.4</ele>
        <time>2021-07-03 17:17:05</time>
      </trkpt>
      <trkpt lat="29.07555" lon="-13.56775">
        <ele>197</ele>
        <time>2021-07-03 17:17:06</time>
      </trkpt>
      <trkpt lat="29.07552" lon="-13.56771">
        <ele>197</ele>
        <time>2021-07-03 17:17:07</time>
      </trkpt>
      <trkpt lat="29.07549" lon="-13.56767">
        <ele>196.8</ele>
        <time>2021-07-03 17:17:08</time>
      </trkpt>
      <trkpt lat="29.07547" lon="-13.56763">
        <ele>196.6</ele>
        <time>2021-07-03 17:17:09</time>
      </trkpt>
      <trkpt lat="29.07545" lon="-13.56758">
        <ele>196.4</ele>
        <time>2021-07-03 17:17:10</time>
      </trkpt>
      <trkpt lat="29.07543" lon="-13.56754">
        <ele>196</ele>
        <time>2021-07-03 17:17:11</time>
      </trkpt>
      <trkpt lat="29.07541" lon="-13.56749">
        <ele>195.8</ele>
        <time>2021-07-03 17:17:12</time>
      </trkpt>
      <trkpt lat="29.07539" lon="-13.56745">
        <ele>195.6</ele>
        <time>2021-07-03 17:17:13</time>
      </trkpt>
      <trkpt lat="29.07537" lon="-13.5674">
        <ele>195.2</ele>
        <time>2021-07-03 17:17:14</time>
      </trkpt>
      <trkpt lat="29.07535" lon="-13.56736">
        <ele>195</ele>
        <time>2021-07-03 17:17:15</time>
      </trkpt>
      <trkpt lat="29.07533" lon="-13.56731">
        <ele>194.6</ele>
        <time>2021-07-03 17:17:16</time>
      </trkpt>
      <trkpt lat="29.07532" lon="-13.56727">
        <ele>194.2</ele>
        <time>2021-07-03 17:17:17</time>
      </trkpt>
      <trkpt lat="29.0753" lon="-13.56722">
        <ele>194</ele>
        <time>2021-07-03 17:17:18</time>
      </trkpt>
      <trkpt lat="29.07528" lon="-13.56717">
        <ele>193.6</ele>
        <time>2021-07-03 17:17:19</time>
      </trkpt>
      <trkpt lat="29.07528" lon="-13.56712">
        <ele>193.4</ele>
        <time>2021-07-03 17:17:20</time>
      </trkpt>
      <trkpt lat="29.07527" lon="-13.56707">
        <ele>193.2</ele>
        <time>2021-07-03 17:17:21</time>
      </trkpt>
      <trkpt lat="29.07526" lon="-13.56702">
        <ele>193</ele>
        <time>2021-07-03 17:17:22</time>
      </trkpt>
      <trkpt lat="29.07526" lon="-13.56696">
        <ele>193</ele>
        <time>2021-07-03 17:17:23</time>
      </trkpt>
      <trkpt lat="29.07526" lon="-13.56691">
        <ele>192.6</ele>
        <time>2021-07-03 17:17:24</time>
      </trkpt>
      <trkpt lat="29.07526" lon="-13.56685">
        <ele>192.4</ele>
        <time>2021-07-03 17:17:25</time>
      </trkpt>
      <trkpt lat="29.07526" lon="-13.5668">
        <ele>192.2</ele>
        <time>2021-07-03 17:17:26</time>
      </trkpt>
      <trkpt lat="29.07526" lon="-13.56674">
        <ele>191.8</ele>
        <time>2021-07-03 17:17:27</time>
      </trkpt>
      <trkpt lat="29.07525" lon="-13.56669">
        <ele>191.6</ele>
        <time>2021-07-03 17:17:28</time>
      </trkpt>
      <trkpt lat="29.07526" lon="-13.56664">
        <ele>191.4</ele>
        <time>2021-07-03 17:17:29</time>
      </trkpt>
      <trkpt lat="29.07525" lon="-13.56658">
        <ele>191.4</ele>
        <time>2021-07-03 17:17:30</time>
      </trkpt>
      <trkpt lat="29.07525" lon="-13.56653">
        <ele>191</ele>
        <time>2021-07-03 17:17:31</time>
      </trkpt>
      <trkpt lat="29.07524" lon="-13.56647">
        <ele>190.8</ele>
        <time>2021-07-03 17:17:32</time>
      </trkpt>
      <trkpt lat="29.07523" lon="-13.56643">
        <ele>190.8</ele>
        <time>2021-07-03 17:17:33</time>
      </trkpt>
      <trkpt lat="29.07523" lon="-13.56638">
        <ele>190.8</ele>
        <time>2021-07-03 17:17:34</time>
      </trkpt>
      <trkpt lat="29.07522" lon="-13.56633">
        <ele>190.6</ele>
        <time>2021-07-03 17:17:35</time>
      </trkpt>
      <trkpt lat="29.07521" lon="-13.56628">
        <ele>190.6</ele>
        <time>2021-07-03 17:17:36</time>
      </trkpt>
      <trkpt lat="29.0752" lon="-13.56623">
        <ele>190.6</ele>
        <time>2021-07-03 17:17:37</time>
      </trkpt>
      <trkpt lat="29.07519" lon="-13.56618">
        <ele>190.6</ele>
        <time>2021-07-03 17:17:38</time>
      </trkpt>
      <trkpt lat="29.07519" lon="-13.56613">
        <ele>190.4</ele>
        <time>2021-07-03 17:17:39</time>
      </trkpt>
      <trkpt lat="29.07517" lon="-13.56608">
        <ele>190.4</ele>
        <time>2021-07-03 17:17:40</time>
      </trkpt>
      <trkpt lat="29.07517" lon="-13.56603">
        <ele>190.4</ele>
        <time>2021-07-03 17:17:41</time>
      </trkpt>
      <trkpt lat="29.07518" lon="-13.56599">
        <ele>190.4</ele>
        <time>2021-07-03 17:17:42</time>
      </trkpt>
      <trkpt lat="29.07517" lon="-13.56594">
        <ele>190.4</ele>
        <time>2021-07-03 17:17:43</time>
      </trkpt>
      <trkpt lat="29.07517" lon="-13.56589">
        <ele>190</ele>
        <time>2021-07-03 17:17:44</time>
      </trkpt>
      <trkpt lat="29.07518" lon="-13.56584">
        <ele>190</ele>
        <time>2021-07-03 17:17:45</time>
      </trkpt>
      <trkpt lat="29.0752" lon="-13.56579">
        <ele>189.6</ele>
        <time>2021-07-03 17:17:46</time>
      </trkpt>
      <trkpt lat="29.07522" lon="-13.56574">
        <ele>189.6</ele>
        <time>2021-07-03 17:17:47</time>
      </trkpt>
      <trkpt lat="29.07525" lon="-13.5657">
        <ele>189.4</ele>
        <time>2021-07-03 17:17:48</time>
      </trkpt>
      <trkpt lat="29.07529" lon="-13.56567">
        <ele>189.2</ele>
        <time>2021-07-03 17:17:49</time>
      </trkpt>
      <trkpt lat="29.07534" lon="-13.56566">
        <ele>188.8</ele>
        <time>2021-07-03 17:17:50</time>
      </trkpt>
      <trkpt lat="29.07539" lon="-13.56565">
        <ele>188.4</ele>
        <time>2021-07-03 17:17:51</time>
      </trkpt>
      <trkpt lat="29.07545" lon="-13.56568">
        <ele>188</ele>
        <time>2021-07-03 17:17:52</time>
      </trkpt>
      <trkpt lat="29.0755" lon="-13.5657">
        <ele>187.4</ele>
        <time>2021-07-03 17:17:53</time>
      </trkpt>
      <trkpt lat="29.07554" lon="-13.56575">
        <ele>187</ele>
        <time>2021-07-03 17:17:54</time>
      </trkpt>
      <trkpt lat="29.07558" lon="-13.5658">
        <ele>186.6</ele>
        <time>2021-07-03 17:17:55</time>
      </trkpt>
      <trkpt lat="29.07561" lon="-13.56586">
        <ele>186</ele>
        <time>2021-07-03 17:17:56</time>
      </trkpt>
      <trkpt lat="29.07564" lon="-13.56591">
        <ele>185.6</ele>
        <time>2021-07-03 17:17:57</time>
      </trkpt>
      <trkpt lat="29.07567" lon="-13.56597">
        <ele>185.2</ele>
        <time>2021-07-03 17:17:58</time>
      </trkpt>
      <trkpt lat="29.07569" lon="-13.56603">
        <ele>184.6</ele>
        <time>2021-07-03 17:17:59</time>
      </trkpt>
      <trkpt lat="29.07572" lon="-13.56608">
        <ele>184.2</ele>
        <time>2021-07-03 17:18:00</time>
      </trkpt>
      <trkpt lat="29.07575" lon="-13.56612">
        <ele>183.8</ele>
        <time>2021-07-03 17:18:01</time>
      </trkpt>
      <trkpt lat="29.07576" lon="-13.56615">
        <ele>183.4</ele>
        <time>2021-07-03 17:18:02</time>
      </trkpt>
      <trkpt lat="29.07577" lon="-13.56617">
        <ele>183</ele>
        <time>2021-07-03 17:18:03</time>
      </trkpt>
      <trkpt lat="29.07577" lon="-13.56617">
        <ele>182.8</ele>
        <time>2021-07-03 17:18:04</time>
      </trkpt>
      <trkpt lat="29.07578" lon="-13.56617">
        <ele>182.4</ele>
        <time>2021-07-03 17:18:05</time>
      </trkpt>
      <trkpt lat="29.07578" lon="-13.56617">
        <ele>182.2</ele>
        <time>2021-07-03 17:18:06</time>
      </trkpt>
      <trkpt lat="29.07578" lon="-13.56618">
        <ele>182</ele>
        <time>2021-07-03 17:18:07</time>
      </trkpt>
      <trkpt lat="29.0758" lon="-13.56617">
        <ele>180.4</ele>
        <time>2021-07-03 17:18:08</time>
      </trkpt>
      <trkpt lat="29.07582" lon="-13.56618">
        <ele>180.4</ele>
        <time>2021-07-03 17:18:09</time>
      </trkpt>
      <trkpt lat="29.07584" lon="-13.56621">
        <ele>180.2</ele>
        <time>2021-07-03 17:18:10</time>
      </trkpt>
      <trkpt lat="29.07586" lon="-13.56624">
        <ele>180.2</ele>
        <time>2021-07-03 17:18:11</time>
      </trkpt>
      <trkpt lat="29.07588" lon="-13.56626">
        <ele>179.8</ele>
        <time>2021-07-03 17:18:12</time>
      </trkpt>
      <trkpt lat="29.07591" lon="-13.56629">
        <ele>179.4</ele>
        <time>2021-07-03 17:18:13</time>
      </trkpt>
      <trkpt lat="29.07594" lon="-13.56632">
        <ele>179.2</ele>
        <time>2021-07-03 17:18:14</time>
      </trkpt>
      <trkpt lat="29.07598" lon="-13.56635">
        <ele>179</ele>
        <time>2021-07-03 17:18:15</time>
      </trkpt>
      <trkpt lat="29.07602" lon="-13.56637">
        <ele>178.6</ele>
        <time>2021-07-03 17:18:16</time>
      </trkpt>
      <trkpt lat="29.07606" lon="-13.56639">
        <ele>178.6</ele>
        <time>2021-07-03 17:18:17</time>
      </trkpt>
      <trkpt lat="29.0761" lon="-13.56641">
        <ele>178.6</ele>
        <time>2021-07-03 17:18:18</time>
      </trkpt>
      <trkpt lat="29.07615" lon="-13.56645">
        <ele>178.4</ele>
        <time>2021-07-03 17:18:19</time>
      </trkpt>
      <trkpt lat="29.0762" lon="-13.56647">
        <ele>178.4</ele>
        <time>2021-07-03 17:18:20</time>
      </trkpt>
      <trkpt lat="29.07624" lon="-13.5665">
        <ele>178</ele>
        <time>2021-07-03 17:18:21</time>
      </trkpt>
      <trkpt lat="29.07629" lon="-13.56653">
        <ele>177.8</ele>
        <time>2021-07-03 17:18:22</time>
      </trkpt>
      <trkpt lat="29.07634" lon="-13.56655">
        <ele>177.8</ele>
        <time>2021-07-03 17:18:23</time>
      </trkpt>
      <trkpt lat="29.0764" lon="-13.56657">
        <ele>177.2</ele>
        <time>2021-07-03 17:18:24</time>
      </trkpt>
      <trkpt lat="29.07645" lon="-13.5666">
        <ele>177</ele>
        <time>2021-07-03 17:18:25</time>
      </trkpt>
      <trkpt lat="29.0765" lon="-13.56662">
        <ele>176.6</ele>
        <time>2021-07-03 17:18:26</time>
      </trkpt>
      <trkpt lat="29.07656" lon="-13.56664">
        <ele>176.4</ele>
        <time>2021-07-03 17:18:27</time>
      </trkpt>
      <trkpt lat="29.07661" lon="-13.56667">
        <ele>176</ele>
        <time>2021-07-03 17:18:28</time>
      </trkpt>
      <trkpt lat="29.07666" lon="-13.56668">
        <ele>175.4</ele>
        <time>2021-07-03 17:18:29</time>
      </trkpt>
      <trkpt lat="29.07672" lon="-13.56669">
        <ele>175</ele>
        <time>2021-07-03 17:18:30</time>
      </trkpt>
      <trkpt lat="29.07678" lon="-13.5667">
        <ele>174.6</ele>
        <time>2021-07-03 17:18:31</time>
      </trkpt>
      <trkpt lat="29.07684" lon="-13.5667">
        <ele>174.2</ele>
        <time>2021-07-03 17:18:32</time>
      </trkpt>
      <trkpt lat="29.0769" lon="-13.56671">
        <ele>173.8</ele>
        <time>2021-07-03 17:18:33</time>
      </trkpt>
      <trkpt lat="29.07696" lon="-13.56671">
        <ele>173.4</ele>
        <time>2021-07-03 17:18:34</time>
      </trkpt>
      <trkpt lat="29.07702" lon="-13.56672">
        <ele>173</ele>
        <time>2021-07-03 17:18:35</time>
      </trkpt>
      <trkpt lat="29.07708" lon="-13.56673">
        <ele>172.6</ele>
        <time>2021-07-03 17:18:36</time>
      </trkpt>
      <trkpt lat="29.07713" lon="-13.56674">
        <ele>172.2</ele>
        <time>2021-07-03 17:18:37</time>
      </trkpt>
      <trkpt lat="29.07719" lon="-13.56674">
        <ele>171.8</ele>
        <time>2021-07-03 17:18:38</time>
      </trkpt>
      <trkpt lat="29.07724" lon="-13.56675">
        <ele>171.4</ele>
        <time>2021-07-03 17:18:39</time>
      </trkpt>
      <trkpt lat="29.0773" lon="-13.56675">
        <ele>170.8</ele>
        <time>2021-07-03 17:18:40</time>
      </trkpt>
      <trkpt lat="29.07734" lon="-13.56675">
        <ele>170.4</ele>
        <time>2021-07-03 17:18:41</time>
      </trkpt>
      <trkpt lat="29.07739" lon="-13.56676">
        <ele>170.2</ele>
        <time>2021-07-03 17:18:42</time>
      </trkpt>
      <trkpt lat="29.07744" lon="-13.56675">
        <ele>170</ele>
        <time>2021-07-03 17:18:43</time>
      </trkpt>
      <trkpt lat="29.07749" lon="-13.56675">
        <ele>169.6</ele>
        <time>2021-07-03 17:18:44</time>
      </trkpt>
      <trkpt lat="29.07753" lon="-13.56674">
        <ele>169.4</ele>
        <time>2021-07-03 17:18:45</time>
      </trkpt>
      <trkpt lat="29.07757" lon="-13.56674">
        <ele>169.2</ele>
        <time>2021-07-03 17:18:46</time>
      </trkpt>
      <trkpt lat="29.07762" lon="-13.56671">
        <ele>168.8</ele>
        <time>2021-07-03 17:18:47</time>
      </trkpt>
      <trkpt lat="29.07783" lon="-13.56657">
        <ele>166.6</ele>
        <time>2021-07-03 17:18:48</time>
      </trkpt>
      <trkpt lat="29.07786" lon="-13.56654">
        <ele>166</ele>
        <time>2021-07-03 17:18:49</time>
      </trkpt>
      <trkpt lat="29.07792" lon="-13.56653">
        <ele>165.6</ele>
        <time>2021-07-03 17:18:50</time>
      </trkpt>
      <trkpt lat="29.07796" lon="-13.56652">
        <ele>165.2</ele>
        <time>2021-07-03 17:18:51</time>
      </trkpt>
      <trkpt lat="29.07801" lon="-13.56652">
        <ele>164.6</ele>
        <time>2021-07-03 17:18:52</time>
      </trkpt>
      <trkpt lat="29.07806" lon="-13.56652">
        <ele>164.2</ele>
        <time>2021-07-03 17:18:53</time>
      </trkpt>
      <trkpt lat="29.07811" lon="-13.56654">
        <ele>163.8</ele>
        <time>2021-07-03 17:18:54</time>
      </trkpt>
      <trkpt lat="29.07816" lon="-13.56656">
        <ele>163.4</ele>
        <time>2021-07-03 17:18:55</time>
      </trkpt>
      <trkpt lat="29.0782" lon="-13.56657">
        <ele>163</ele>
        <time>2021-07-03 17:18:56</time>
      </trkpt>
      <trkpt lat="29.07825" lon="-13.56659">
        <ele>162.8</ele>
        <time>2021-07-03 17:18:57</time>
      </trkpt>
      <trkpt lat="29.0783" lon="-13.5666">
        <ele>162.6</ele>
        <time>2021-07-03 17:18:58</time>
      </trkpt>
      <trkpt lat="29.07835" lon="-13.56661">
        <ele>162.4</ele>
        <time>2021-07-03 17:18:59</time>
      </trkpt>
      <trkpt lat="29.07841" lon="-13.5666">
        <ele>162.4</ele>
        <time>2021-07-03 17:19:00</time>
      </trkpt>
      <trkpt lat="29.07846" lon="-13.5666">
        <ele>162</ele>
        <time>2021-07-03 17:19:01</time>
      </trkpt>
      <trkpt lat="29.07851" lon="-13.56658">
        <ele>162</ele>
        <time>2021-07-03 17:19:02</time>
      </trkpt>
      <trkpt lat="29.07856" lon="-13.56655">
        <ele>161.8</ele>
        <time>2021-07-03 17:19:03</time>
      </trkpt>
      <trkpt lat="29.07861" lon="-13.56653">
        <ele>161.8</ele>
        <time>2021-07-03 17:19:04</time>
      </trkpt>
      <trkpt lat="29.07871" lon="-13.56647">
        <ele>161</ele>
        <time>2021-07-03 17:19:05</time>
      </trkpt>
      <trkpt lat="29.07876" lon="-13.56643">
        <ele>160.8</ele>
        <time>2021-07-03 17:19:06</time>
      </trkpt>
      <trkpt lat="29.07881" lon="-13.5664">
        <ele>160.4</ele>
        <time>2021-07-03 17:19:07</time>
      </trkpt>
      <trkpt lat="29.07886" lon="-13.56638">
        <ele>160</ele>
        <time>2021-07-03 17:19:08</time>
      </trkpt>
      <trkpt lat="29.07892" lon="-13.56636">
        <ele>159.8</ele>
        <time>2021-07-03 17:19:09</time>
      </trkpt>
      <trkpt lat="29.07897" lon="-13.56635">
        <ele>159.4</ele>
        <time>2021-07-03 17:19:10</time>
      </trkpt>
      <trkpt lat="29.07903" lon="-13.56635">
        <ele>159.2</ele>
        <time>2021-07-03 17:19:11</time>
      </trkpt>
      <trkpt lat="29.0791" lon="-13.56635">
        <ele>158.8</ele>
        <time>2021-07-03 17:19:12</time>
      </trkpt>
      <trkpt lat="29.07915" lon="-13.56636">
        <ele>158.4</ele>
        <time>2021-07-03 17:19:13</time>
      </trkpt>
      <trkpt lat="29.0792" lon="-13.56637">
        <ele>158</ele>
        <time>2021-07-03 17:19:14</time>
      </trkpt>
      <trkpt lat="29.07925" lon="-13.56639">
        <ele>157.6</ele>
        <time>2021-07-03 17:19:15</time>
      </trkpt>
      <trkpt lat="29.07931" lon="-13.56641">
        <ele>157.2</ele>
        <time>2021-07-03 17:19:16</time>
      </trkpt>
      <trkpt lat="29.07935" lon="-13.56642">
        <ele>156.6</ele>
        <time>2021-07-03 17:19:17</time>
      </trkpt>
      <trkpt lat="29.0794" lon="-13.56645">
        <ele>156.2</ele>
        <time>2021-07-03 17:20:05</time>
      </trkpt>
      <trkpt lat="29.07946" lon="-13.56647">
        <ele>155.8</ele>
        <time>2021-07-03 17:20:06</time>
      </trkpt>
      <trkpt lat="29.07951" lon="-13.56649">
        <ele>155.2</ele>
        <time>2021-07-03 17:20:07</time>
      </trkpt>
      <trkpt lat="29.07956" lon="-13.56651">
        <ele>154.8</ele>
        <time>2021-07-03 17:20:08</time>
      </trkpt>
      <trkpt lat="29.07961" lon="-13.56653">
        <ele>154.4</ele>
        <time>2021-07-03 17:20:09</time>
      </trkpt>
      <trkpt lat="29.07967" lon="-13.56655">
        <ele>154</ele>
        <time>2021-07-03 17:20:10</time>
      </trkpt>
      <trkpt lat="29.07973" lon="-13.56656">
        <ele>153.6</ele>
        <time>2021-07-03 17:20:11</time>
      </trkpt>
      <trkpt lat="29.07979" lon="-13.56657">
        <ele>153.2</ele>
        <time>2021-07-03 17:20:12</time>
      </trkpt>
      <trkpt lat="29.07984" lon="-13.56658">
        <ele>153</ele>
        <time>2021-07-03 17:20:13</time>
      </trkpt>
      <trkpt lat="29.07989" lon="-13.56658">
        <ele>152.8</ele>
        <time>2021-07-03 17:20:14</time>
      </trkpt>
      <trkpt lat="29.07994" lon="-13.56656">
        <ele>152.8</ele>
        <time>2021-07-03 17:20:15</time>
      </trkpt>
      <trkpt lat="29.07998" lon="-13.56655">
        <ele>152.6</ele>
        <time>2021-07-03 17:20:16</time>
      </trkpt>
      <trkpt lat="29.08002" lon="-13.56653">
        <ele>152.6</ele>
        <time>2021-07-03 17:20:17</time>
      </trkpt>
      <trkpt lat="29.08006" lon="-13.56651">
        <ele>152.4</ele>
        <time>2021-07-03 17:20:18</time>
      </trkpt>
      <trkpt lat="29.0801" lon="-13.56648">
        <ele>152.4</ele>
        <time>2021-07-03 17:20:19</time>
      </trkpt>
      <trkpt lat="29.08013" lon="-13.56645">
        <ele>152.4</ele>
        <time>2021-07-03 17:20:20</time>
      </trkpt>
      <trkpt lat="29.08017" lon="-13.56642">
        <ele>152.4</ele>
        <time>2021-07-03 17:20:21</time>
      </trkpt>
      <trkpt lat="29.08021" lon="-13.56639">
        <ele>152</ele>
        <time>2021-07-03 17:20:22</time>
      </trkpt>
      <trkpt lat="29.08026" lon="-13.56635">
        <ele>152</ele>
        <time>2021-07-03 17:20:23</time>
      </trkpt>
      <trkpt lat="29.0803" lon="-13.56633">
        <ele>151.8</ele>
        <time>2021-07-03 17:20:24</time>
      </trkpt>
      <trkpt lat="29.08034" lon="-13.56629">
        <ele>151.6</ele>
        <time>2021-07-03 17:20:25</time>
      </trkpt>
      <trkpt lat="29.08038" lon="-13.56627">
        <ele>151.6</ele>
        <time>2021-07-03 17:20:26</time>
      </trkpt>
      <trkpt lat="29.08042" lon="-13.56623">
        <ele>151.2</ele>
        <time>2021-07-03 17:20:27</time>
      </trkpt>
      <trkpt lat="29.08046" lon="-13.5662">
        <ele>151.2</ele>
        <time>2021-07-03 17:20:28</time>
      </trkpt>
      <trkpt lat="29.0805" lon="-13.56617">
        <ele>151</ele>
        <time>2021-07-03 17:20:29</time>
      </trkpt>
      <trkpt lat="29.08054" lon="-13.56614">
        <ele>151</ele>
        <time>2021-07-03 17:20:30</time>
      </trkpt>
      <trkpt lat="29.08058" lon="-13.56611">
        <ele>151</ele>
        <time>2021-07-03 17:20:31</time>
      </trkpt>
      <trkpt lat="29.08062" lon="-13.56608">
        <ele>150.6</ele>
        <time>2021-07-03 17:20:32</time>
      </trkpt>
      <trkpt lat="29.08066" lon="-13.56605">
        <ele>150.4</ele>
        <time>2021-07-03 17:20:33</time>
      </trkpt>
      <trkpt lat="29.0807" lon="-13.56602">
        <ele>150.2</ele>
        <time>2021-07-03 17:20:34</time>
      </trkpt>
      <trkpt lat="29.08074" lon="-13.56599">
        <ele>150</ele>
        <time>2021-07-03 17:20:35</time>
      </trkpt>
      <trkpt lat="29.08078" lon="-13.56596">
        <ele>150</ele>
        <time>2021-07-03 17:20:36</time>
      </trkpt>
      <trkpt lat="29.08082" lon="-13.56594">
        <ele>149.6</ele>
        <time>2021-07-03 17:20:37</time>
      </trkpt>
      <trkpt lat="29.08086" lon="-13.56591">
        <ele>149.6</ele>
        <time>2021-07-03 17:20:38</time>
      </trkpt>
      <trkpt lat="29.0809" lon="-13.56588">
        <ele>149.2</ele>
        <time>2021-07-03 17:20:39</time>
      </trkpt>
      <trkpt lat="29.08095" lon="-13.56585">
        <ele>149</ele>
        <time>2021-07-03 17:20:40</time>
      </trkpt>
      <trkpt lat="29.081" lon="-13.56582">
        <ele>148.6</ele>
        <time>2021-07-03 17:20:41</time>
      </trkpt>
      <trkpt lat="29.08105" lon="-13.56578">
        <ele>148.4</ele>
        <time>2021-07-03 17:20:42</time>
      </trkpt>
      <trkpt lat="29.0811" lon="-13.56575">
        <ele>148</ele>
        <time>2021-07-03 17:20:43</time>
      </trkpt>
      <trkpt lat="29.08115" lon="-13.56571">
        <ele>147.8</ele>
        <time>2021-07-03 17:20:44</time>
      </trkpt>
      <trkpt lat="29.08121" lon="-13.56568">
        <ele>147.6</ele>
        <time>2021-07-03 17:20:45</time>
      </trkpt>
      <trkpt lat="29.08127" lon="-13.56564">
        <ele>147.2</ele>
        <time>2021-07-03 17:20:46</time>
      </trkpt>
      <trkpt lat="29.08133" lon="-13.5656">
        <ele>146.8</ele>
        <time>2021-07-03 17:20:47</time>
      </trkpt>
      <trkpt lat="29.08139" lon="-13.56556">
        <ele>146.2</ele>
        <time>2021-07-03 17:20:48</time>
      </trkpt>
      <trkpt lat="29.08145" lon="-13.56552">
        <ele>145.8</ele>
        <time>2021-07-03 17:20:49</time>
      </trkpt>
      <trkpt lat="29.08151" lon="-13.56549">
        <ele>145.4</ele>
        <time>2021-07-03 17:20:50</time>
      </trkpt>
      <trkpt lat="29.08156" lon="-13.56544">
        <ele>145</ele>
        <time>2021-07-03 17:20:51</time>
      </trkpt>
      <trkpt lat="29.08161" lon="-13.56541">
        <ele>144.4</ele>
        <time>2021-07-03 17:20:52</time>
      </trkpt>
      <trkpt lat="29.08166" lon="-13.56537">
        <ele>144</ele>
        <time>2021-07-03 17:20:53</time>
      </trkpt>
      <trkpt lat="29.08171" lon="-13.56534">
        <ele>143.6</ele>
        <time>2021-07-03 17:20:54</time>
      </trkpt>
      <trkpt lat="29.08177" lon="-13.5653">
        <ele>143.2</ele>
        <time>2021-07-03 17:20:55</time>
      </trkpt>
      <trkpt lat="29.08182" lon="-13.56527">
        <ele>142.6</ele>
        <time>2021-07-03 17:20:56</time>
      </trkpt>
      <trkpt lat="29.08187" lon="-13.56524">
        <ele>142.4</ele>
        <time>2021-07-03 17:20:57</time>
      </trkpt>
      <trkpt lat="29.08192" lon="-13.56521">
        <ele>142</ele>
        <time>2021-07-03 17:20:58</time>
      </trkpt>
      <trkpt lat="29.08197" lon="-13.56517">
        <ele>141.6</ele>
        <time>2021-07-03 17:20:59</time>
      </trkpt>
      <trkpt lat="29.08202" lon="-13.56514">
        <ele>141.4</ele>
        <time>2021-07-03 17:21:00</time>
      </trkpt>
      <trkpt lat="29.08208" lon="-13.56511">
        <ele>141.2</ele>
        <time>2021-07-03 17:21:01</time>
      </trkpt>
      <trkpt lat="29.08213" lon="-13.56507">
        <ele>140.8</ele>
        <time>2021-07-03 17:21:02</time>
      </trkpt>
      <trkpt lat="29.08218" lon="-13.56504">
        <ele>140.6</ele>
        <time>2021-07-03 17:21:03</time>
      </trkpt>
      <trkpt lat="29.08223" lon="-13.565">
        <ele>140.6</ele>
        <time>2021-07-03 17:21:04</time>
      </trkpt>
      <trkpt lat="29.08228" lon="-13.56497">
        <ele>140.2</ele>
        <time>2021-07-03 17:21:05</time>
      </trkpt>
      <trkpt lat="29.08233" lon="-13.56493">
        <ele>140</ele>
        <time>2021-07-03 17:21:06</time>
      </trkpt>
      <trkpt lat="29.08238" lon="-13.5649">
        <ele>140</ele>
        <time>2021-07-03 17:21:07</time>
      </trkpt>
      <trkpt lat="29.08243" lon="-13.56486">
        <ele>139.6</ele>
        <time>2021-07-03 17:21:08</time>
      </trkpt>
      <trkpt lat="29.08248" lon="-13.56483">
        <ele>139.4</ele>
        <time>2021-07-03 17:21:09</time>
      </trkpt>
      <trkpt lat="29.08253" lon="-13.56479">
        <ele>139.2</ele>
        <time>2021-07-03 17:21:10</time>
      </trkpt>
      <trkpt lat="29.08258" lon="-13.56475">
        <ele>139.2</ele>
        <time>2021-07-03 17:21:11</time>
      </trkpt>
      <trkpt lat="29.08263" lon="-13.56471">
        <ele>139</ele>
        <time>2021-07-03 17:21:12</time>
      </trkpt>
      <trkpt lat="29.08268" lon="-13.56467">
        <ele>139</ele>
        <time>2021-07-03 17:21:13</time>
      </trkpt>
      <trkpt lat="29.08272" lon="-13.56463">
        <ele>138.6</ele>
        <time>2021-07-03 17:21:14</time>
      </trkpt>
      <trkpt lat="29.08277" lon="-13.5646">
        <ele>138.4</ele>
        <time>2021-07-03 17:21:15</time>
      </trkpt>
      <trkpt lat="29.08281" lon="-13.56456">
        <ele>138</ele>
        <time>2021-07-03 17:21:16</time>
      </trkpt>
      <trkpt lat="29.08285" lon="-13.56452">
        <ele>137.8</ele>
        <time>2021-07-03 17:21:17</time>
      </trkpt>
      <trkpt lat="29.0829" lon="-13.56448">
        <ele>137.4</ele>
        <time>2021-07-03 17:21:18</time>
      </trkpt>
      <trkpt lat="29.08294" lon="-13.56445">
        <ele>137.2</ele>
        <time>2021-07-03 17:21:19</time>
      </trkpt>
      <trkpt lat="29.08298" lon="-13.56441">
        <ele>136.8</ele>
        <time>2021-07-03 17:21:20</time>
      </trkpt>
      <trkpt lat="29.08302" lon="-13.56438">
        <ele>136.6</ele>
        <time>2021-07-03 17:21:21</time>
      </trkpt>
      <trkpt lat="29.08306" lon="-13.56435">
        <ele>136.4</ele>
        <time>2021-07-03 17:21:22</time>
      </trkpt>
      <trkpt lat="29.0831" lon="-13.56431">
        <ele>136.2</ele>
        <time>2021-07-03 17:21:23</time>
      </trkpt>
      <trkpt lat="29.08314" lon="-13.56428">
        <ele>136</ele>
        <time>2021-07-03 17:21:24</time>
      </trkpt>
      <trkpt lat="29.08319" lon="-13.56424">
        <ele>136</ele>
        <time>2021-07-03 17:21:25</time>
      </trkpt>
      <trkpt lat="29.08323" lon="-13.5642">
        <ele>135.6</ele>
        <time>2021-07-03 17:21:26</time>
      </trkpt>
      <trkpt lat="29.08327" lon="-13.56417">
        <ele>135.6</ele>
        <time>2021-07-03 17:21:27</time>
      </trkpt>
      <trkpt lat="29.08332" lon="-13.56413">
        <ele>135.4</ele>
        <time>2021-07-03 17:21:28</time>
      </trkpt>
      <trkpt lat="29.08337" lon="-13.56408">
        <ele>135</ele>
        <time>2021-07-03 17:21:29</time>
      </trkpt>
      <trkpt lat="29.08342" lon="-13.56403">
        <ele>134.6</ele>
        <time>2021-07-03 17:21:30</time>
      </trkpt>
      <trkpt lat="29.08347" lon="-13.56399">
        <ele>134.4</ele>
        <time>2021-07-03 17:21:31</time>
      </trkpt>
      <trkpt lat="29.08353" lon="-13.56394">
        <ele>134</ele>
        <time>2021-07-03 17:21:32</time>
      </trkpt>
      <trkpt lat="29.08358" lon="-13.5639">
        <ele>133.4</ele>
        <time>2021-07-03 17:21:33</time>
      </trkpt>
      <trkpt lat="29.08364" lon="-13.56387">
        <ele>133</ele>
        <time>2021-07-03 17:21:34</time>
      </trkpt>
      <trkpt lat="29.0837" lon="-13.56384">
        <ele>132.6</ele>
        <time>2021-07-03 17:21:35</time>
      </trkpt>
      <trkpt lat="29.08377" lon="-13.56383">
        <ele>132.4</ele>
        <time>2021-07-03 17:21:36</time>
      </trkpt>
      <trkpt lat="29.08383" lon="-13.56382">
        <ele>132</ele>
        <time>2021-07-03 17:21:37</time>
      </trkpt>
      <trkpt lat="29.08389" lon="-13.56382">
        <ele>131.6</ele>
        <time>2021-07-03 17:21:38</time>
      </trkpt>
      <trkpt lat="29.08395" lon="-13.56381">
        <ele>131.4</ele>
        <time>2021-07-03 17:21:39</time>
      </trkpt>
      <trkpt lat="29.08401" lon="-13.56381">
        <ele>131</ele>
        <time>2021-07-03 17:21:40</time>
      </trkpt>
      <trkpt lat="29.08407" lon="-13.56381">
        <ele>130.8</ele>
        <time>2021-07-03 17:21:41</time>
      </trkpt>
      <trkpt lat="29.08412" lon="-13.56381">
        <ele>130.4</ele>
        <time>2021-07-03 17:21:42</time>
      </trkpt>
      <trkpt lat="29.08417" lon="-13.56381">
        <ele>130</ele>
        <time>2021-07-03 17:21:43</time>
      </trkpt>
      <trkpt lat="29.08422" lon="-13.56382">
        <ele>129.8</ele>
        <time>2021-07-03 17:21:44</time>
      </trkpt>
      <trkpt lat="29.08428" lon="-13.56382">
        <ele>129.6</ele>
        <time>2021-07-03 17:21:45</time>
      </trkpt>
      <trkpt lat="29.08432" lon="-13.56382">
        <ele>129.4</ele>
        <time>2021-07-03 17:21:46</time>
      </trkpt>
      <trkpt lat="29.08437" lon="-13.56382">
        <ele>129</ele>
        <time>2021-07-03 17:21:47</time>
      </trkpt>
      <trkpt lat="29.08443" lon="-13.56383">
        <ele>128.8</ele>
        <time>2021-07-03 17:21:48</time>
      </trkpt>
      <trkpt lat="29.08448" lon="-13.56384">
        <ele>128.6</ele>
        <time>2021-07-03 17:21:49</time>
      </trkpt>
      <trkpt lat="29.08454" lon="-13.56385">
        <ele>128.4</ele>
        <time>2021-07-03 17:21:50</time>
      </trkpt>
      <trkpt lat="29.0846" lon="-13.56385">
        <ele>128</ele>
        <time>2021-07-03 17:21:51</time>
      </trkpt>
      <trkpt lat="29.08466" lon="-13.56386">
        <ele>127.6</ele>
        <time>2021-07-03 17:21:52</time>
      </trkpt>
      <trkpt lat="29.08472" lon="-13.56387">
        <ele>127.4</ele>
        <time>2021-07-03 17:21:53</time>
      </trkpt>
      <trkpt lat="29.08479" lon="-13.56388">
        <ele>126.8</ele>
        <time>2021-07-03 17:21:54</time>
      </trkpt>
      <trkpt lat="29.08485" lon="-13.56389">
        <ele>126.4</ele>
        <time>2021-07-03 17:21:55</time>
      </trkpt>
      <trkpt lat="29.08492" lon="-13.56391">
        <ele>126</ele>
        <time>2021-07-03 17:21:56</time>
      </trkpt>
      <trkpt lat="29.08499" lon="-13.56393">
        <ele>125.4</ele>
        <time>2021-07-03 17:21:57</time>
      </trkpt>
      <trkpt lat="29.08506" lon="-13.56392">
        <ele>124.8</ele>
        <time>2021-07-03 17:21:58</time>
      </trkpt>
      <trkpt lat="29.08513" lon="-13.56391">
        <ele>124.4</ele>
        <time>2021-07-03 17:21:59</time>
      </trkpt>
      <trkpt lat="29.08519" lon="-13.5639">
        <ele>124</ele>
        <time>2021-07-03 17:22:00</time>
      </trkpt>
      <trkpt lat="29.08526" lon="-13.56388">
        <ele>123.6</ele>
        <time>2021-07-03 17:22:01</time>
      </trkpt>
      <trkpt lat="29.08533" lon="-13.56384">
        <ele>123.2</ele>
        <time>2021-07-03 17:22:02</time>
      </trkpt>
      <trkpt lat="29.08539" lon="-13.56381">
        <ele>122.8</ele>
        <time>2021-07-03 17:22:03</time>
      </trkpt>
      <trkpt lat="29.08545" lon="-13.56376">
        <ele>122</ele>
        <time>2021-07-03 17:22:04</time>
      </trkpt>
      <trkpt lat="29.08551" lon="-13.56371">
        <ele>121.2</ele>
        <time>2021-07-03 17:22:05</time>
      </trkpt>
      <trkpt lat="29.08557" lon="-13.56366">
        <ele>120.6</ele>
        <time>2021-07-03 17:22:06</time>
      </trkpt>
      <trkpt lat="29.08564" lon="-13.56361">
        <ele>120</ele>
        <time>2021-07-03 17:22:07</time>
      </trkpt>
      <trkpt lat="29.08571" lon="-13.56356">
        <ele>119.4</ele>
        <time>2021-07-03 17:22:08</time>
      </trkpt>
      <trkpt lat="29.08577" lon="-13.56351">
        <ele>118.8</ele>
        <time>2021-07-03 17:22:09</time>
      </trkpt>
      <trkpt lat="29.08584" lon="-13.56346">
        <ele>118.4</ele>
        <time>2021-07-03 17:22:10</time>
      </trkpt>
      <trkpt lat="29.08591" lon="-13.56341">
        <ele>117.6</ele>
        <time>2021-07-03 17:22:11</time>
      </trkpt>
      <trkpt lat="29.08597" lon="-13.56337">
        <ele>117</ele>
        <time>2021-07-03 17:22:12</time>
      </trkpt>
      <trkpt lat="29.08604" lon="-13.56333">
        <ele>116.2</ele>
        <time>2021-07-03 17:22:13</time>
      </trkpt>
      <trkpt lat="29.08609" lon="-13.5633">
        <ele>115.8</ele>
        <time>2021-07-03 17:22:14</time>
      </trkpt>
      <trkpt lat="29.08615" lon="-13.56327">
        <ele>115.4</ele>
        <time>2021-07-03 17:22:15</time>
      </trkpt>
      <trkpt lat="29.0862" lon="-13.56323">
        <ele>115</ele>
        <time>2021-07-03 17:22:16</time>
      </trkpt>
      <trkpt lat="29.08624" lon="-13.5632">
        <ele>114.8</ele>
        <time>2021-07-03 17:22:17</time>
      </trkpt>
      <trkpt lat="29.08629" lon="-13.56318">
        <ele>114.4</ele>
        <time>2021-07-03 17:22:18</time>
      </trkpt>
      <trkpt lat="29.08634" lon="-13.56315">
        <ele>114.4</ele>
        <time>2021-07-03 17:22:19</time>
      </trkpt>
      <trkpt lat="29.08638" lon="-13.56312">
        <ele>114.4</ele>
        <time>2021-07-03 17:22:20</time>
      </trkpt>
      <trkpt lat="29.08641" lon="-13.5631">
        <ele>114.4</ele>
        <time>2021-07-03 17:22:21</time>
      </trkpt>
      <trkpt lat="29.08645" lon="-13.56307">
        <ele>114.4</ele>
        <time>2021-07-03 17:22:22</time>
      </trkpt>
      <trkpt lat="29.08648" lon="-13.56305">
        <ele>114.4</ele>
        <time>2021-07-03 17:22:23</time>
      </trkpt>
      <trkpt lat="29.08651" lon="-13.56302">
        <ele>114.4</ele>
        <time>2021-07-03 17:22:24</time>
      </trkpt>
      <trkpt lat="29.08655" lon="-13.56299">
        <ele>114.4</ele>
        <time>2021-07-03 17:22:25</time>
      </trkpt>
      <trkpt lat="29.08659" lon="-13.56298">
        <ele>114.4</ele>
        <time>2021-07-03 17:22:26</time>
      </trkpt>
      <trkpt lat="29.08663" lon="-13.56296">
        <ele>114.4</ele>
        <time>2021-07-03 17:22:27</time>
      </trkpt>
      <trkpt lat="29.08667" lon="-13.56292">
        <ele>114.4</ele>
        <time>2021-07-03 17:22:28</time>
      </trkpt>
      <trkpt lat="29.08671" lon="-13.5629">
        <ele>114.4</ele>
        <time>2021-07-03 17:22:29</time>
      </trkpt>
      <trkpt lat="29.08675" lon="-13.56287">
        <ele>114.2</ele>
        <time>2021-07-03 17:22:30</time>
      </trkpt>
      <trkpt lat="29.0868" lon="-13.56285">
        <ele>114.2</ele>
        <time>2021-07-03 17:22:31</time>
      </trkpt>
      <trkpt lat="29.08684" lon="-13.56281">
        <ele>114</ele>
        <time>2021-07-03 17:22:32</time>
      </trkpt>
      <trkpt lat="29.08689" lon="-13.56278">
        <ele>113.6</ele>
        <time>2021-07-03 17:22:33</time>
      </trkpt>
      <trkpt lat="29.08694" lon="-13.56275">
        <ele>113.6</ele>
        <time>2021-07-03 17:22:34</time>
      </trkpt>
      <trkpt lat="29.08699" lon="-13.56272">
        <ele>113</ele>
        <time>2021-07-03 17:22:35</time>
      </trkpt>
      <trkpt lat="29.08704" lon="-13.56268">
        <ele>112.8</ele>
        <time>2021-07-03 17:22:36</time>
      </trkpt>
      <trkpt lat="29.08709" lon="-13.56265">
        <ele>112.4</ele>
        <time>2021-07-03 17:22:37</time>
      </trkpt>
      <trkpt lat="29.08715" lon="-13.56261">
        <ele>112</ele>
        <time>2021-07-03 17:22:38</time>
      </trkpt>
      <trkpt lat="29.0872" lon="-13.56258">
        <ele>111.6</ele>
        <time>2021-07-03 17:22:39</time>
      </trkpt>
      <trkpt lat="29.08726" lon="-13.56255">
        <ele>111.2</ele>
        <time>2021-07-03 17:22:40</time>
      </trkpt>
      <trkpt lat="29.08731" lon="-13.56251">
        <ele>110.6</ele>
        <time>2021-07-03 17:22:41</time>
      </trkpt>
      <trkpt lat="29.08737" lon="-13.56247">
        <ele>110.2</ele>
        <time>2021-07-03 17:22:42</time>
      </trkpt>
      <trkpt lat="29.08743" lon="-13.56243">
        <ele>109.8</ele>
        <time>2021-07-03 17:22:43</time>
      </trkpt>
      <trkpt lat="29.08749" lon="-13.56239">
        <ele>109.4</ele>
        <time>2021-07-03 17:22:44</time>
      </trkpt>
      <trkpt lat="29.08755" lon="-13.56235">
        <ele>109</ele>
        <time>2021-07-03 17:22:45</time>
      </trkpt>
      <trkpt lat="29.08762" lon="-13.56231">
        <ele>108.2</ele>
        <time>2021-07-03 17:22:46</time>
      </trkpt>
      <trkpt lat="29.08768" lon="-13.56227">
        <ele>107.8</ele>
        <time>2021-07-03 17:22:47</time>
      </trkpt>
      <trkpt lat="29.08774" lon="-13.56223">
        <ele>107.2</ele>
        <time>2021-07-03 17:22:48</time>
      </trkpt>
      <trkpt lat="29.08781" lon="-13.56219">
        <ele>106.6</ele>
        <time>2021-07-03 17:22:49</time>
      </trkpt>
      <trkpt lat="29.08787" lon="-13.56216">
        <ele>106.2</ele>
        <time>2021-07-03 17:22:50</time>
      </trkpt>
      <trkpt lat="29.08793" lon="-13.56212">
        <ele>105.8</ele>
        <time>2021-07-03 17:22:51</time>
      </trkpt>
      <trkpt lat="29.08799" lon="-13.56207">
        <ele>105.2</ele>
        <time>2021-07-03 17:22:52</time>
      </trkpt>
      <trkpt lat="29.08805" lon="-13.56204">
        <ele>104.8</ele>
        <time>2021-07-03 17:22:53</time>
      </trkpt>
      <trkpt lat="29.08811" lon="-13.562">
        <ele>104.4</ele>
        <time>2021-07-03 17:22:54</time>
      </trkpt>
      <trkpt lat="29.08817" lon="-13.56196">
        <ele>104</ele>
        <time>2021-07-03 17:22:55</time>
      </trkpt>
      <trkpt lat="29.08823" lon="-13.56191">
        <ele>103.6</ele>
        <time>2021-07-03 17:22:56</time>
      </trkpt>
      <trkpt lat="29.08828" lon="-13.56187">
        <ele>103.2</ele>
        <time>2021-07-03 17:22:57</time>
      </trkpt>
      <trkpt lat="29.08834" lon="-13.56183">
        <ele>102.8</ele>
        <time>2021-07-03 17:22:58</time>
      </trkpt>
      <trkpt lat="29.0884" lon="-13.5618">
        <ele>102.4</ele>
        <time>2021-07-03 17:22:59</time>
      </trkpt>
      <trkpt lat="29.08845" lon="-13.56176">
        <ele>102</ele>
        <time>2021-07-03 17:23:00</time>
      </trkpt>
      <trkpt lat="29.08851" lon="-13.56173">
        <ele>101.4</ele>
        <time>2021-07-03 17:23:01</time>
      </trkpt>
      <trkpt lat="29.08856" lon="-13.56169">
        <ele>101</ele>
        <time>2021-07-03 17:23:02</time>
      </trkpt>
      <trkpt lat="29.08862" lon="-13.56165">
        <ele>100.6</ele>
        <time>2021-07-03 17:23:03</time>
      </trkpt>
      <trkpt lat="29.08867" lon="-13.56162">
        <ele>100.4</ele>
        <time>2021-07-03 17:23:04</time>
      </trkpt>
      <trkpt lat="29.08872" lon="-13.56158">
        <ele>100</ele>
        <time>2021-07-03 17:23:05</time>
      </trkpt>
      <trkpt lat="29.08877" lon="-13.56155">
        <ele>99.8</ele>
        <time>2021-07-03 17:23:06</time>
      </trkpt>
      <trkpt lat="29.08882" lon="-13.56151">
        <ele>99.6</ele>
        <time>2021-07-03 17:23:07</time>
      </trkpt>
      <trkpt lat="29.08888" lon="-13.56148">
        <ele>99.4</ele>
        <time>2021-07-03 17:23:08</time>
      </trkpt>
      <trkpt lat="29.08892" lon="-13.56144">
        <ele>99</ele>
        <time>2021-07-03 17:23:09</time>
      </trkpt>
      <trkpt lat="29.08897" lon="-13.56141">
        <ele>98.8</ele>
        <time>2021-07-03 17:23:10</time>
      </trkpt>
      <trkpt lat="29.08903" lon="-13.56137">
        <ele>98.6</ele>
        <time>2021-07-03 17:23:11</time>
      </trkpt>
      <trkpt lat="29.08908" lon="-13.56134">
        <ele>98.2</ele>
        <time>2021-07-03 17:23:12</time>
      </trkpt>
      <trkpt lat="29.08913" lon="-13.56131">
        <ele>97.8</ele>
        <time>2021-07-03 17:23:13</time>
      </trkpt>
      <trkpt lat="29.08918" lon="-13.56129">
        <ele>97.8</ele>
        <time>2021-07-03 17:23:14</time>
      </trkpt>
      <trkpt lat="29.08923" lon="-13.56125">
        <ele>97.4</ele>
        <time>2021-07-03 17:23:15</time>
      </trkpt>
      <trkpt lat="29.08928" lon="-13.56122">
        <ele>97</ele>
        <time>2021-07-03 17:23:16</time>
      </trkpt>
      <trkpt lat="29.08933" lon="-13.56117">
        <ele>96.8</ele>
        <time>2021-07-03 17:23:17</time>
      </trkpt>
      <trkpt lat="29.08938" lon="-13.56113">
        <ele>96.6</ele>
        <time>2021-07-03 17:23:18</time>
      </trkpt>
      <trkpt lat="29.08943" lon="-13.56108">
        <ele>96.6</ele>
        <time>2021-07-03 17:23:19</time>
      </trkpt>
      <trkpt lat="29.08949" lon="-13.56103">
        <ele>96.2</ele>
        <time>2021-07-03 17:23:20</time>
      </trkpt>
      <trkpt lat="29.08954" lon="-13.56097">
        <ele>95.8</ele>
        <time>2021-07-03 17:23:21</time>
      </trkpt>
      <trkpt lat="29.08959" lon="-13.56092">
        <ele>95.6</ele>
        <time>2021-07-03 17:23:22</time>
      </trkpt>
      <trkpt lat="29.08964" lon="-13.56086">
        <ele>95.2</ele>
        <time>2021-07-03 17:23:23</time>
      </trkpt>
      <trkpt lat="29.08969" lon="-13.56081">
        <ele>94.8</ele>
        <time>2021-07-03 17:23:24</time>
      </trkpt>
      <trkpt lat="29.08974" lon="-13.56076">
        <ele>94.4</ele>
        <time>2021-07-03 17:23:25</time>
      </trkpt>
      <trkpt lat="29.0898" lon="-13.5607">
        <ele>94</ele>
        <time>2021-07-03 17:23:26</time>
      </trkpt>
      <trkpt lat="29.08984" lon="-13.56065">
        <ele>93.6</ele>
        <time>2021-07-03 17:23:27</time>
      </trkpt>
      <trkpt lat="29.08989" lon="-13.56059">
        <ele>93.2</ele>
        <time>2021-07-03 17:23:28</time>
      </trkpt>
      <trkpt lat="29.08995" lon="-13.56054">
        <ele>92.8</ele>
        <time>2021-07-03 17:23:29</time>
      </trkpt>
      <trkpt lat="29.09" lon="-13.56048">
        <ele>92.6</ele>
        <time>2021-07-03 17:23:30</time>
      </trkpt>
      <trkpt lat="29.09004" lon="-13.56042">
        <ele>92.4</ele>
        <time>2021-07-03 17:23:31</time>
      </trkpt>
      <trkpt lat="29.09008" lon="-13.56036">
        <ele>92.2</ele>
        <time>2021-07-03 17:23:32</time>
      </trkpt>
      <trkpt lat="29.09012" lon="-13.5603">
        <ele>92</ele>
        <time>2021-07-03 17:23:33</time>
      </trkpt>
      <trkpt lat="29.09016" lon="-13.56023">
        <ele>91.8</ele>
        <time>2021-07-03 17:23:34</time>
      </trkpt>
      <trkpt lat="29.0902" lon="-13.56016">
        <ele>91.4</ele>
        <time>2021-07-03 17:23:35</time>
      </trkpt>
      <trkpt lat="29.09023" lon="-13.5601">
        <ele>91.2</ele>
        <time>2021-07-03 17:23:36</time>
      </trkpt>
      <trkpt lat="29.09026" lon="-13.56002">
        <ele>91</ele>
        <time>2021-07-03 17:23:37</time>
      </trkpt>
      <trkpt lat="29.09028" lon="-13.55995">
        <ele>90.6</ele>
        <time>2021-07-03 17:23:38</time>
      </trkpt>
      <trkpt lat="29.0903" lon="-13.55988">
        <ele>90.4</ele>
        <time>2021-07-03 17:23:39</time>
      </trkpt>
      <trkpt lat="29.09031" lon="-13.5598">
        <ele>90</ele>
        <time>2021-07-03 17:23:40</time>
      </trkpt>
      <trkpt lat="29.09033" lon="-13.55973">
        <ele>89.8</ele>
        <time>2021-07-03 17:23:41</time>
      </trkpt>
      <trkpt lat="29.09034" lon="-13.55965">
        <ele>89.6</ele>
        <time>2021-07-03 17:23:42</time>
      </trkpt>
      <trkpt lat="29.09036" lon="-13.55958">
        <ele>89.4</ele>
        <time>2021-07-03 17:23:43</time>
      </trkpt>
      <trkpt lat="29.09039" lon="-13.5595">
        <ele>89.2</ele>
        <time>2021-07-03 17:23:44</time>
      </trkpt>
      <trkpt lat="29.09042" lon="-13.55943">
        <ele>88.8</ele>
        <time>2021-07-03 17:23:45</time>
      </trkpt>
      <trkpt lat="29.09046" lon="-13.55938">
        <ele>88.6</ele>
        <time>2021-07-03 17:23:46</time>
      </trkpt>
      <trkpt lat="29.09051" lon="-13.55933">
        <ele>88.6</ele>
        <time>2021-07-03 17:23:47</time>
      </trkpt>
      <trkpt lat="29.09057" lon="-13.5593">
        <ele>88.2</ele>
        <time>2021-07-03 17:23:48</time>
      </trkpt>
      <trkpt lat="29.09062" lon="-13.55928">
        <ele>88</ele>
        <time>2021-07-03 17:23:49</time>
      </trkpt>
      <trkpt lat="29.09068" lon="-13.55925">
        <ele>87.8</ele>
        <time>2021-07-03 17:23:50</time>
      </trkpt>
      <trkpt lat="29.09072" lon="-13.55923">
        <ele>87.4</ele>
        <time>2021-07-03 17:23:51</time>
      </trkpt>
      <trkpt lat="29.09078" lon="-13.55922">
        <ele>87.2</ele>
        <time>2021-07-03 17:23:52</time>
      </trkpt>
      <trkpt lat="29.09083" lon="-13.55921">
        <ele>87</ele>
        <time>2021-07-03 17:23:53</time>
      </trkpt>
      <trkpt lat="29.09088" lon="-13.55919">
        <ele>86.8</ele>
        <time>2021-07-03 17:23:54</time>
      </trkpt>
      <trkpt lat="29.09094" lon="-13.55918">
        <ele>86.6</ele>
        <time>2021-07-03 17:23:55</time>
      </trkpt>
      <trkpt lat="29.09099" lon="-13.55916">
        <ele>86.2</ele>
        <time>2021-07-03 17:23:56</time>
      </trkpt>
      <trkpt lat="29.09104" lon="-13.55915">
        <ele>86.2</ele>
        <time>2021-07-03 17:23:57</time>
      </trkpt>
      <trkpt lat="29.09109" lon="-13.55912">
        <ele>85.8</ele>
        <time>2021-07-03 17:23:58</time>
      </trkpt>
      <trkpt lat="29.09113" lon="-13.55909">
        <ele>85.8</ele>
        <time>2021-07-03 17:23:59</time>
      </trkpt>
      <trkpt lat="29.09118" lon="-13.55906">
        <ele>85.8</ele>
        <time>2021-07-03 17:24:00</time>
      </trkpt>
      <trkpt lat="29.09122" lon="-13.55903">
        <ele>85.6</ele>
        <time>2021-07-03 17:24:01</time>
      </trkpt>
      <trkpt lat="29.09127" lon="-13.55899">
        <ele>85.6</ele>
        <time>2021-07-03 17:24:02</time>
      </trkpt>
      <trkpt lat="29.0913" lon="-13.55895">
        <ele>85.2</ele>
        <time>2021-07-03 17:24:03</time>
      </trkpt>
      <trkpt lat="29.09133" lon="-13.55891">
        <ele>85.2</ele>
        <time>2021-07-03 17:24:04</time>
      </trkpt>
      <trkpt lat="29.09135" lon="-13.55889">
        <ele>85.2</ele>
        <time>2021-07-03 17:24:05</time>
      </trkpt>
      <trkpt lat="29.09136" lon="-13.55888">
        <ele>85</ele>
        <time>2021-07-03 17:24:06</time>
      </trkpt>
      <trkpt lat="29.09136" lon="-13.55887">
        <ele>85</ele>
        <time>2021-07-03 17:24:07</time>
      </trkpt>
      <trkpt lat="29.09136" lon="-13.55887">
        <ele>84.6</ele>
        <time>2021-07-03 17:24:08</time>
      </trkpt>
      <trkpt lat="29.09138" lon="-13.55885">
        <ele>83</ele>
        <time>2021-07-03 17:24:09</time>
      </trkpt>
      <trkpt lat="29.0914" lon="-13.55882">
        <ele>83</ele>
        <time>2021-07-03 17:24:10</time>
      </trkpt>
      <trkpt lat="29.09141" lon="-13.5588">
        <ele>83</ele>
        <time>2021-07-03 17:24:11</time>
      </trkpt>
      <trkpt lat="29.09143" lon="-13.55878">
        <ele>83</ele>
        <time>2021-07-03 17:24:12</time>
      </trkpt>
      <trkpt lat="29.09145" lon="-13.55875">
        <ele>83</ele>
        <time>2021-07-03 17:24:13</time>
      </trkpt>
      <trkpt lat="29.09147" lon="-13.55871">
        <ele>83</ele>
        <time>2021-07-03 17:24:14</time>
      </trkpt>
      <trkpt lat="29.0915" lon="-13.55868">
        <ele>83</ele>
        <time>2021-07-03 17:24:15</time>
      </trkpt>
      <trkpt lat="29.09153" lon="-13.55865">
        <ele>83</ele>
        <time>2021-07-03 17:24:16</time>
      </trkpt>
      <trkpt lat="29.09155" lon="-13.55861">
        <ele>83</ele>
        <time>2021-07-03 17:24:17</time>
      </trkpt>
      <trkpt lat="29.09158" lon="-13.55857">
        <ele>83.2</ele>
        <time>2021-07-03 17:24:18</time>
      </trkpt>
      <trkpt lat="29.09161" lon="-13.55854">
        <ele>83.2</ele>
        <time>2021-07-03 17:24:19</time>
      </trkpt>
      <trkpt lat="29.09164" lon="-13.5585">
        <ele>83.2</ele>
        <time>2021-07-03 17:24:20</time>
      </trkpt>
      <trkpt lat="29.09168" lon="-13.55847">
        <ele>83.2</ele>
        <time>2021-07-03 17:24:21</time>
      </trkpt>
      <trkpt lat="29.09172" lon="-13.55845">
        <ele>83.2</ele>
        <time>2021-07-03 17:24:22</time>
      </trkpt>
      <trkpt lat="29.09177" lon="-13.55844">
        <ele>83.2</ele>
        <time>2021-07-03 17:24:23</time>
      </trkpt>
      <trkpt lat="29.09181" lon="-13.55842">
        <ele>83.2</ele>
        <time>2021-07-03 17:24:24</time>
      </trkpt>
      <trkpt lat="29.09186" lon="-13.55841">
        <ele>83.2</ele>
        <time>2021-07-03 17:24:25</time>
      </trkpt>
      <trkpt lat="29.09191" lon="-13.55842">
        <ele>83</ele>
        <time>2021-07-03 17:24:26</time>
      </trkpt>
      <trkpt lat="29.09196" lon="-13.55843">
        <ele>83</ele>
        <time>2021-07-03 17:24:27</time>
      </trkpt>
      <trkpt lat="29.09201" lon="-13.55844">
        <ele>83</ele>
        <time>2021-07-03 17:24:28</time>
      </trkpt>
      <trkpt lat="29.09206" lon="-13.55845">
        <ele>83</ele>
        <time>2021-07-03 17:24:29</time>
      </trkpt>
      <trkpt lat="29.0921" lon="-13.55847">
        <ele>83</ele>
        <time>2021-07-03 17:24:30</time>
      </trkpt>
      <trkpt lat="29.09214" lon="-13.55848">
        <ele>83</ele>
        <time>2021-07-03 17:24:31</time>
      </trkpt>
      <trkpt lat="29.09216" lon="-13.5585">
        <ele>83</ele>
        <time>2021-07-03 17:24:32</time>
      </trkpt>
      <trkpt lat="29.09217" lon="-13.5585">
        <ele>83</ele>
        <time>2021-07-03 17:24:33</time>
      </trkpt>
      <trkpt lat="29.09217" lon="-13.55851">
        <ele>81.6</ele>
        <time>2021-07-03 17:24:34</time>
      </trkpt>
      <trkpt lat="29.09217" lon="-13.55851">
        <ele>81.4</ele>
        <time>2021-07-03 17:24:35</time>
      </trkpt>
      <trkpt lat="29.09217" lon="-13.55851">
        <ele>77.4</ele>
        <time>2021-07-03 17:24:36</time>
      </trkpt>
      <trkpt lat="29.09218" lon="-13.5585">
        <ele>84</ele>
        <time>2021-07-03 17:24:37</time>
      </trkpt>
      <trkpt lat="29.0922" lon="-13.5585">
        <ele>84</ele>
        <time>2021-07-03 17:24:38</time>
      </trkpt>
      <trkpt lat="29.09222" lon="-13.5585">
        <ele>84</ele>
        <time>2021-07-03 17:24:39</time>
      </trkpt>
      <trkpt lat="29.09225" lon="-13.55851">
        <ele>83.6</ele>
        <time>2021-07-03 17:24:40</time>
      </trkpt>
      <trkpt lat="29.09228" lon="-13.55851">
        <ele>83.4</ele>
        <time>2021-07-03 17:24:41</time>
      </trkpt>
      <trkpt lat="29.09232" lon="-13.55852">
        <ele>83</ele>
        <time>2021-07-03 17:24:42</time>
      </trkpt>
      <trkpt lat="29.09236" lon="-13.55853">
        <ele>83</ele>
        <time>2021-07-03 17:24:43</time>
      </trkpt>
      <trkpt lat="29.0924" lon="-13.55854">
        <ele>83</ele>
        <time>2021-07-03 17:24:44</time>
      </trkpt>
      <trkpt lat="29.09244" lon="-13.55855">
        <ele>83</ele>
        <time>2021-07-03 17:24:45</time>
      </trkpt>
      <trkpt lat="29.09249" lon="-13.55854">
        <ele>83</ele>
        <time>2021-07-03 17:24:46</time>
      </trkpt>
      <trkpt lat="29.09253" lon="-13.55853">
        <ele>83</ele>
        <time>2021-07-03 17:24:47</time>
      </trkpt>
      <trkpt lat="29.09258" lon="-13.55852">
        <ele>83</ele>
        <time>2021-07-03 17:24:48</time>
      </trkpt>
      <trkpt lat="29.09262" lon="-13.55851">
        <ele>83</ele>
        <time>2021-07-03 17:24:49</time>
      </trkpt>
      <trkpt lat="29.09267" lon="-13.55849">
        <ele>83</ele>
        <time>2021-07-03 17:24:50</time>
      </trkpt>
      <trkpt lat="29.09271" lon="-13.55848">
        <ele>83</ele>
        <time>2021-07-03 17:24:51</time>
      </trkpt>
      <trkpt lat="29.09276" lon="-13.55846">
        <ele>83</ele>
        <time>2021-07-03 17:24:52</time>
      </trkpt>
      <trkpt lat="29.0928" lon="-13.55844">
        <ele>83</ele>
        <time>2021-07-03 17:24:53</time>
      </trkpt>
      <trkpt lat="29.09286" lon="-13.55843">
        <ele>83</ele>
        <time>2021-07-03 17:24:54</time>
      </trkpt>
      <trkpt lat="29.0929" lon="-13.55841">
        <ele>83</ele>
        <time>2021-07-03 17:24:55</time>
      </trkpt>
      <trkpt lat="29.09294" lon="-13.55839">
        <ele>83</ele>
        <time>2021-07-03 17:24:56</time>
      </trkpt>
      <trkpt lat="29.09299" lon="-13.55837">
        <ele>83</ele>
        <time>2021-07-03 17:24:57</time>
      </trkpt>
      <trkpt lat="29.09304" lon="-13.55835">
        <ele>83</ele>
        <time>2021-07-03 17:24:58</time>
      </trkpt>
      <trkpt lat="29.09309" lon="-13.55832">
        <ele>83</ele>
        <time>2021-07-03 17:24:59</time>
      </trkpt>
      <trkpt lat="29.09314" lon="-13.5583">
        <ele>82.8</ele>
        <time>2021-07-03 17:25:00</time>
      </trkpt>
      <trkpt lat="29.09318" lon="-13.55826">
        <ele>82.8</ele>
        <time>2021-07-03 17:25:01</time>
      </trkpt>
      <trkpt lat="29.09322" lon="-13.55822">
        <ele>82.4</ele>
        <time>2021-07-03 17:25:02</time>
      </trkpt>
      <trkpt lat="29.09326" lon="-13.55819">
        <ele>82.4</ele>
        <time>2021-07-03 17:25:03</time>
      </trkpt>
      <trkpt lat="29.0933" lon="-13.55815">
        <ele>82</ele>
        <time>2021-07-03 17:25:04</time>
      </trkpt>
      <trkpt lat="29.09334" lon="-13.5581">
        <ele>82</ele>
        <time>2021-07-03 17:25:05</time>
      </trkpt>
      <trkpt lat="29.09338" lon="-13.55805">
        <ele>81.6</ele>
        <time>2021-07-03 17:25:06</time>
      </trkpt>
      <trkpt lat="29.09342" lon="-13.558">
        <ele>81.4</ele>
        <time>2021-07-03 17:25:07</time>
      </trkpt>
      <trkpt lat="29.09346" lon="-13.55795">
        <ele>81.4</ele>
        <time>2021-07-03 17:25:08</time>
      </trkpt>
      <trkpt lat="29.0935" lon="-13.5579">
        <ele>81</ele>
        <time>2021-07-03 17:25:09</time>
      </trkpt>
      <trkpt lat="29.09354" lon="-13.55784">
        <ele>80.8</ele>
        <time>2021-07-03 17:25:10</time>
      </trkpt>
      <trkpt lat="29.09358" lon="-13.55779">
        <ele>80.6</ele>
        <time>2021-07-03 17:25:11</time>
      </trkpt>
      <trkpt lat="29.09362" lon="-13.55774">
        <ele>80.4</ele>
        <time>2021-07-03 17:25:12</time>
      </trkpt>
      <trkpt lat="29.09366" lon="-13.55768">
        <ele>80.4</ele>
        <time>2021-07-03 17:25:13</time>
      </trkpt>
      <trkpt lat="29.09371" lon="-13.55762">
        <ele>80.2</ele>
        <time>2021-07-03 17:25:14</time>
      </trkpt>
      <trkpt lat="29.09374" lon="-13.55757">
        <ele>80.2</ele>
        <time>2021-07-03 17:25:15</time>
      </trkpt>
      <trkpt lat="29.09379" lon="-13.55752">
        <ele>79.6</ele>
        <time>2021-07-03 17:25:16</time>
      </trkpt>
      <trkpt lat="29.09383" lon="-13.55746">
        <ele>79.4</ele>
        <time>2021-07-03 17:25:17</time>
      </trkpt>
      <trkpt lat="29.09387" lon="-13.5574">
        <ele>79.2</ele>
        <time>2021-07-03 17:25:18</time>
      </trkpt>
      <trkpt lat="29.09392" lon="-13.55735">
        <ele>79.2</ele>
        <time>2021-07-03 17:25:19</time>
      </trkpt>
      <trkpt lat="29.09396" lon="-13.5573">
        <ele>79</ele>
        <time>2021-07-03 17:25:20</time>
      </trkpt>
      <trkpt lat="29.09401" lon="-13.55725">
        <ele>79</ele>
        <time>2021-07-03 17:25:21</time>
      </trkpt>
      <trkpt lat="29.09405" lon="-13.5572">
        <ele>79</ele>
        <time>2021-07-03 17:25:22</time>
      </trkpt>
      <trkpt lat="29.09409" lon="-13.55714">
        <ele>79</ele>
        <time>2021-07-03 17:25:23</time>
      </trkpt>
      <trkpt lat="29.09413" lon="-13.55709">
        <ele>79</ele>
        <time>2021-07-03 17:25:52</time>
      </trkpt>
      <trkpt lat="29.09417" lon="-13.55704">
        <ele>78.6</ele>
        <time>2021-07-03 17:25:53</time>
      </trkpt>
      <trkpt lat="29.09421" lon="-13.557">
        <ele>78.6</ele>
        <time>2021-07-03 17:25:54</time>
      </trkpt>
      <trkpt lat="29.09425" lon="-13.55695">
        <ele>78.6</ele>
        <time>2021-07-03 17:25:55</time>
      </trkpt>
      <trkpt lat="29.09429" lon="-13.55691">
        <ele>78.6</ele>
        <time>2021-07-03 17:25:56</time>
      </trkpt>
      <trkpt lat="29.09433" lon="-13.55687">
        <ele>78.6</ele>
        <time>2021-07-03 17:25:57</time>
      </trkpt>
      <trkpt lat="29.09437" lon="-13.55684">
        <ele>78.6</ele>
        <time>2021-07-03 17:25:58</time>
      </trkpt>
      <trkpt lat="29.09441" lon="-13.55681">
        <ele>78.6</ele>
        <time>2021-07-03 17:25:59</time>
      </trkpt>
      <trkpt lat="29.09445" lon="-13.55677">
        <ele>78.6</ele>
        <time>2021-07-03 17:26:00</time>
      </trkpt>
      <trkpt lat="29.09449" lon="-13.55674">
        <ele>78.6</ele>
        <time>2021-07-03 17:26:01</time>
      </trkpt>
      <trkpt lat="29.09453" lon="-13.55671">
        <ele>78.4</ele>
        <time>2021-07-03 17:26:02</time>
      </trkpt>
      <trkpt lat="29.09457" lon="-13.55667">
        <ele>78.4</ele>
        <time>2021-07-03 17:26:03</time>
      </trkpt>
      <trkpt lat="29.0946" lon="-13.55664">
        <ele>78.4</ele>
        <time>2021-07-03 17:26:04</time>
      </trkpt>
      <trkpt lat="29.09464" lon="-13.5566">
        <ele>78.4</ele>
        <time>2021-07-03 17:26:05</time>
      </trkpt>
      <trkpt lat="29.09468" lon="-13.55657">
        <ele>78.2</ele>
        <time>2021-07-03 17:26:06</time>
      </trkpt>
      <trkpt lat="29.09471" lon="-13.55654">
        <ele>78.2</ele>
        <time>2021-07-03 17:26:07</time>
      </trkpt>
      <trkpt lat="29.09475" lon="-13.55651">
        <ele>78.2</ele>
        <time>2021-07-03 17:26:08</time>
      </trkpt>
      <trkpt lat="29.09479" lon="-13.55649">
        <ele>78.2</ele>
        <time>2021-07-03 17:26:09</time>
      </trkpt>
      <trkpt lat="29.09483" lon="-13.55646">
        <ele>78.2</ele>
        <time>2021-07-03 17:26:10</time>
      </trkpt>
      <trkpt lat="29.09487" lon="-13.55643">
        <ele>77.8</ele>
        <time>2021-07-03 17:26:11</time>
      </trkpt>
      <trkpt lat="29.0949" lon="-13.5564">
        <ele>77.8</ele>
        <time>2021-07-03 17:26:12</time>
      </trkpt>
      <trkpt lat="29.09494" lon="-13.55637">
        <ele>77.8</ele>
        <time>2021-07-03 17:26:13</time>
      </trkpt>
      <trkpt lat="29.09498" lon="-13.55635">
        <ele>76.8</ele>
        <time>2021-07-03 17:26:14</time>
      </trkpt>
      <trkpt lat="29.09502" lon="-13.55633">
        <ele>76.8</ele>
        <time>2021-07-03 17:26:15</time>
      </trkpt>
      <trkpt lat="29.09506" lon="-13.5563">
        <ele>76.8</ele>
        <time>2021-07-03 17:26:16</time>
      </trkpt>
      <trkpt lat="29.0951" lon="-13.55628">
        <ele>76.8</ele>
        <time>2021-07-03 17:26:17</time>
      </trkpt>
      <trkpt lat="29.09513" lon="-13.55627">
        <ele>76.4</ele>
        <time>2021-07-03 17:26:18</time>
      </trkpt>
      <trkpt lat="29.09517" lon="-13.55625">
        <ele>76.2</ele>
        <time>2021-07-03 17:26:19</time>
      </trkpt>
      <trkpt lat="29.09521" lon="-13.55623">
        <ele>76</ele>
        <time>2021-07-03 17:27:09</time>
      </trkpt>
      <trkpt lat="29.09524" lon="-13.55622">
        <ele>75.6</ele>
        <time>2021-07-03 17:27:10</time>
      </trkpt>
      <trkpt lat="29.09527" lon="-13.55621">
        <ele>75.6</ele>
        <time>2021-07-03 17:27:11</time>
      </trkpt>
      <trkpt lat="29.09529" lon="-13.55619">
        <ele>75.4</ele>
        <time>2021-07-03 17:27:12</time>
      </trkpt>
      <trkpt lat="29.09531" lon="-13.55618">
        <ele>75.4</ele>
        <time>2021-07-03 17:27:13</time>
      </trkpt>
      <trkpt lat="29.09532" lon="-13.55617">
        <ele>75.4</ele>
        <time>2021-07-03 17:27:14</time>
      </trkpt>
      <trkpt lat="29.09532" lon="-13.55617">
        <ele>75.4</ele>
        <time>2021-07-03 17:27:15</time>
      </trkpt>
      <trkpt lat="29.09532" lon="-13.55617">
        <ele>75.4</ele>
        <time>2021-07-03 17:27:16</time>
      </trkpt>
      <trkpt lat="29.09532" lon="-13.55617">
        <ele>75.4</ele>
        <time>2021-07-03 17:27:17</time>
      </trkpt>
      <trkpt lat="29.09532" lon="-13.55617">
        <ele>75.8</ele>
        <time>2021-07-03 17:27:18</time>
      </trkpt>
      <trkpt lat="29.09533" lon="-13.55616">
        <ele>76.2</ele>
        <time>2021-07-03 17:27:19</time>
      </trkpt>
      <trkpt lat="29.09543" lon="-13.55613">
        <ele>75.2</ele>
        <time>2021-07-03 17:27:20</time>
      </trkpt>
      <trkpt lat="29.09546" lon="-13.55613">
        <ele>75.2</ele>
        <time>2021-07-03 17:27:21</time>
      </trkpt>
      <trkpt lat="29.09548" lon="-13.55612">
        <ele>75.2</ele>
        <time>2021-07-03 17:27:22</time>
      </trkpt>
      <trkpt lat="29.09551" lon="-13.55611">
        <ele>75.2</ele>
        <time>2021-07-03 17:27:23</time>
      </trkpt>
      <trkpt lat="29.09553" lon="-13.55609">
        <ele>75.2</ele>
        <time>2021-07-03 17:27:24</time>
      </trkpt>
      <trkpt lat="29.09555" lon="-13.55608">
        <ele>75.2</ele>
        <time>2021-07-03 17:27:25</time>
      </trkpt>
      <trkpt lat="29.09557" lon="-13.55606">
        <ele>75.2</ele>
        <time>2021-07-03 17:27:26</time>
      </trkpt>
      <trkpt lat="29.09558" lon="-13.55603">
        <ele>75.2</ele>
        <time>2021-07-03 17:27:27</time>
      </trkpt>
      <trkpt lat="29.09559" lon="-13.55601">
        <ele>75.2</ele>
        <time>2021-07-03 17:27:28</time>
      </trkpt>
      <trkpt lat="29.0956" lon="-13.556">
        <ele>75.2</ele>
        <time>2021-07-03 17:27:29</time>
      </trkpt>
      <trkpt lat="29.0956" lon="-13.55599">
        <ele>75.4</ele>
        <time>2021-07-03 17:27:30</time>
      </trkpt>
      <trkpt lat="29.0956" lon="-13.55598">
        <ele>75.4</ele>
        <time>2021-07-03 17:27:31</time>
      </trkpt>
      <trkpt lat="29.0956" lon="-13.55598">
        <ele>75.4</ele>
        <time>2021-07-03 17:27:32</time>
      </trkpt>
      <trkpt lat="29.0956" lon="-13.55598">
        <ele>75.4</ele>
        <time>2021-07-03 17:27:33</time>
      </trkpt>
      <trkpt lat="29.0956" lon="-13.55598">
        <ele>75.4</ele>
        <time>2021-07-03 17:27:34</time>
      </trkpt>
      <trkpt lat="29.09561" lon="-13.55596">
        <ele>75</ele>
        <time>2021-07-03 17:27:35</time>
      </trkpt>
      <trkpt lat="29.09562" lon="-13.55595">
        <ele>75.2</ele>
        <time>2021-07-03 17:27:36</time>
      </trkpt>
      <trkpt lat="29.09564" lon="-13.55593">
        <ele>75.2</ele>
        <time>2021-07-03 17:27:37</time>
      </trkpt>
      <trkpt lat="29.09565" lon="-13.55591">
        <ele>75</ele>
        <time>2021-07-03 17:27:38</time>
      </trkpt>
      <trkpt lat="29.09567" lon="-13.55589">
        <ele>74.8</ele>
        <time>2021-07-03 17:27:39</time>
      </trkpt>
      <trkpt lat="29.09569" lon="-13.55587">
        <ele>74.8</ele>
        <time>2021-07-03 17:27:40</time>
      </trkpt>
      <trkpt lat="29.09571" lon="-13.55585">
        <ele>74.6</ele>
        <time>2021-07-03 17:27:41</time>
      </trkpt>
      <trkpt lat="29.09573" lon="-13.55582">
        <ele>74.6</ele>
        <time>2021-07-03 17:27:42</time>
      </trkpt>
      <trkpt lat="29.09576" lon="-13.55579">
        <ele>74.6</ele>
        <time>2021-07-03 17:27:43</time>
      </trkpt>
      <trkpt lat="29.09578" lon="-13.55576">
        <ele>74.6</ele>
        <time>2021-07-03 17:27:44</time>
      </trkpt>
      <trkpt lat="29.09581" lon="-13.55573">
        <ele>74.6</ele>
        <time>2021-07-03 17:27:45</time>
      </trkpt>
      <trkpt lat="29.09583" lon="-13.5557">
        <ele>74.6</ele>
        <time>2021-07-03 17:27:46</time>
      </trkpt>
      <trkpt lat="29.09586" lon="-13.55567">
        <ele>74.6</ele>
        <time>2021-07-03 17:27:47</time>
      </trkpt>
      <trkpt lat="29.09589" lon="-13.55564">
        <ele>74.8</ele>
        <time>2021-07-03 17:27:48</time>
      </trkpt>
      <trkpt lat="29.09592" lon="-13.55561">
        <ele>74.8</ele>
        <time>2021-07-03 17:27:49</time>
      </trkpt>
      <trkpt lat="29.09595" lon="-13.55558">
        <ele>74.8</ele>
        <time>2021-07-03 17:27:50</time>
      </trkpt>
      <trkpt lat="29.09599" lon="-13.55555">
        <ele>74.8</ele>
        <time>2021-07-03 17:27:51</time>
      </trkpt>
      <trkpt lat="29.09603" lon="-13.55551">
        <ele>74.6</ele>
        <time>2021-07-03 17:27:52</time>
      </trkpt>
      <trkpt lat="29.09607" lon="-13.55548">
        <ele>74.6</ele>
        <time>2021-07-03 17:27:53</time>
      </trkpt>
      <trkpt lat="29.09611" lon="-13.55544">
        <ele>74.6</ele>
        <time>2021-07-03 17:27:54</time>
      </trkpt>
      <trkpt lat="29.09615" lon="-13.5554">
        <ele>74.6</ele>
        <time>2021-07-03 17:27:55</time>
      </trkpt>
      <trkpt lat="29.09619" lon="-13.55536">
        <ele>74.6</ele>
        <time>2021-07-03 17:27:56</time>
      </trkpt>
      <trkpt lat="29.09623" lon="-13.55532">
        <ele>74.2</ele>
        <time>2021-07-03 17:27:57</time>
      </trkpt>
      <trkpt lat="29.09628" lon="-13.55527">
        <ele>74.2</ele>
        <time>2021-07-03 17:27:58</time>
      </trkpt>
      <trkpt lat="29.09633" lon="-13.55523">
        <ele>73.8</ele>
        <time>2021-07-03 17:27:59</time>
      </trkpt>
      <trkpt lat="29.09637" lon="-13.55519">
        <ele>73.8</ele>
        <time>2021-07-03 17:28:00</time>
      </trkpt>
      <trkpt lat="29.09641" lon="-13.55514">
        <ele>73.6</ele>
        <time>2021-07-03 17:28:01</time>
      </trkpt>
      <trkpt lat="29.09645" lon="-13.5551">
        <ele>73.6</ele>
        <time>2021-07-03 17:28:02</time>
      </trkpt>
      <trkpt lat="29.0965" lon="-13.55505">
        <ele>73.2</ele>
        <time>2021-07-03 17:28:03</time>
      </trkpt>
      <trkpt lat="29.09654" lon="-13.55501">
        <ele>73</ele>
        <time>2021-07-03 17:28:04</time>
      </trkpt>
      <trkpt lat="29.09658" lon="-13.55497">
        <ele>72.8</ele>
        <time>2021-07-03 17:28:05</time>
      </trkpt>
      <trkpt lat="29.09662" lon="-13.55492">
        <ele>72.4</ele>
        <time>2021-07-03 17:28:06</time>
      </trkpt>
      <trkpt lat="29.09666" lon="-13.55488">
        <ele>72.4</ele>
        <time>2021-07-03 17:28:07</time>
      </trkpt>
      <trkpt lat="29.0967" lon="-13.55484">
        <ele>72.2</ele>
        <time>2021-07-03 17:28:08</time>
      </trkpt>
      <trkpt lat="29.09672" lon="-13.55482">
        <ele>72.2</ele>
        <time>2021-07-03 17:28:09</time>
      </trkpt>
      <trkpt lat="29.09675" lon="-13.55479">
        <ele>72</ele>
        <time>2021-07-03 17:28:10</time>
      </trkpt>
      <trkpt lat="29.09677" lon="-13.55477">
        <ele>72</ele>
        <time>2021-07-03 17:28:11</time>
      </trkpt>
      <trkpt lat="29.09679" lon="-13.55475">
        <ele>72</ele>
        <time>2021-07-03 17:28:12</time>
      </trkpt>
      <trkpt lat="29.09681" lon="-13.55473">
        <ele>72</ele>
        <time>2021-07-03 17:28:13</time>
      </trkpt>
      <trkpt lat="29.09682" lon="-13.55471">
        <ele>71.8</ele>
        <time>2021-07-03 17:28:14</time>
      </trkpt>
      <trkpt lat="29.09684" lon="-13.5547">
        <ele>71.8</ele>
        <time>2021-07-03 17:28:15</time>
      </trkpt>
      <trkpt lat="29.09686" lon="-13.55468">
        <ele>71.8</ele>
        <time>2021-07-03 17:28:16</time>
      </trkpt>
      <trkpt lat="29.09687" lon="-13.55466">
        <ele>71.8</ele>
        <time>2021-07-03 17:28:17</time>
      </trkpt>
      <trkpt lat="29.0969" lon="-13.55464">
        <ele>71.8</ele>
        <time>2021-07-03 17:28:18</time>
      </trkpt>
      <trkpt lat="29.09691" lon="-13.55463">
        <ele>71.8</ele>
        <time>2021-07-03 17:28:19</time>
      </trkpt>
      <trkpt lat="29.09693" lon="-13.55461">
        <ele>72</ele>
        <time>2021-07-03 17:28:20</time>
      </trkpt>
      <trkpt lat="29.09694" lon="-13.5546">
        <ele>72</ele>
        <time>2021-07-03 17:28:21</time>
      </trkpt>
      <trkpt lat="29.09696" lon="-13.55459">
        <ele>72.2</ele>
        <time>2021-07-03 17:28:22</time>
      </trkpt>
      <trkpt lat="29.09697" lon="-13.55457">
        <ele>72.2</ele>
        <time>2021-07-03 17:28:23</time>
      </trkpt>
      <trkpt lat="29.09698" lon="-13.55456">
        <ele>72.6</ele>
        <time>2021-07-03 17:28:24</time>
      </trkpt>
      <trkpt lat="29.097" lon="-13.55455">
        <ele>72.6</ele>
        <time>2021-07-03 17:28:25</time>
      </trkpt>
      <trkpt lat="29.09701" lon="-13.55454">
        <ele>72.8</ele>
        <time>2021-07-03 17:28:26</time>
      </trkpt>
      <trkpt lat="29.09703" lon="-13.55452">
        <ele>72.8</ele>
        <time>2021-07-03 17:28:27</time>
      </trkpt>
      <trkpt lat="29.09705" lon="-13.55451">
        <ele>73</ele>
        <time>2021-07-03 17:28:28</time>
      </trkpt>
      <trkpt lat="29.09707" lon="-13.5545">
        <ele>73</ele>
        <time>2021-07-03 17:28:29</time>
      </trkpt>
      <trkpt lat="29.0971" lon="-13.5545">
        <ele>73.4</ele>
        <time>2021-07-03 17:28:30</time>
      </trkpt>
      <trkpt lat="29.09712" lon="-13.55449">
        <ele>73.4</ele>
        <time>2021-07-03 17:28:31</time>
      </trkpt>
      <trkpt lat="29.09715" lon="-13.55448">
        <ele>73.6</ele>
        <time>2021-07-03 17:28:32</time>
      </trkpt>
      <trkpt lat="29.09717" lon="-13.55448">
        <ele>73.6</ele>
        <time>2021-07-03 17:28:33</time>
      </trkpt>
      <trkpt lat="29.0972" lon="-13.55446">
        <ele>73.6</ele>
        <time>2021-07-03 17:31:12</time>
      </trkpt>
      <trkpt lat="29.09722" lon="-13.55445">
        <ele>74</ele>
        <time>2021-07-03 17:31:13</time>
      </trkpt>
      <trkpt lat="29.09724" lon="-13.55444">
        <ele>74</ele>
        <time>2021-07-03 17:31:14</time>
      </trkpt>
      <trkpt lat="29.09726" lon="-13.55443">
        <ele>74.2</ele>
        <time>2021-07-03 17:31:15</time>
      </trkpt>
      <trkpt lat="29.09728" lon="-13.55442">
        <ele>74.2</ele>
        <time>2021-07-03 17:31:16</time>
      </trkpt>
      <trkpt lat="29.0973" lon="-13.55441">
        <ele>74.6</ele>
        <time>2021-07-03 17:31:17</time>
      </trkpt>
      <trkpt lat="29.09732" lon="-13.55439">
        <ele>74.8</ele>
        <time>2021-07-03 17:31:18</time>
      </trkpt>
      <trkpt lat="29.09734" lon="-13.55438">
        <ele>74.8</ele>
        <time>2021-07-03 17:31:19</time>
      </trkpt>
      <trkpt lat="29.09736" lon="-13.55437">
        <ele>75</ele>
        <time>2021-07-03 17:31:20</time>
      </trkpt>
      <trkpt lat="29.09738" lon="-13.55436">
        <ele>75</ele>
        <time>2021-07-03 17:31:21</time>
      </trkpt>
      <trkpt lat="29.0974" lon="-13.55435">
        <ele>75.4</ele>
        <time>2021-07-03 17:31:22</time>
      </trkpt>
      <trkpt lat="29.09741" lon="-13.55433">
        <ele>75.4</ele>
        <time>2021-07-03 17:31:23</time>
      </trkpt>
      <trkpt lat="29.09743" lon="-13.55432">
        <ele>75.4</ele>
        <time>2021-07-03 17:31:24</time>
      </trkpt>
      <trkpt lat="29.09745" lon="-13.5543">
        <ele>75.4</ele>
        <time>2021-07-03 17:31:25</time>
      </trkpt>
      <trkpt lat="29.09746" lon="-13.55429">
        <ele>75.4</ele>
        <time>2021-07-03 17:31:26</time>
      </trkpt>
      <trkpt lat="29.09748" lon="-13.55428">
        <ele>75.4</ele>
        <time>2021-07-03 17:31:27</time>
      </trkpt>
      <trkpt lat="29.0975" lon="-13.55427">
        <ele>75.4</ele>
        <time>2021-07-03 17:31:28</time>
      </trkpt>
      <trkpt lat="29.09751" lon="-13.55426">
        <ele>75.6</ele>
        <time>2021-07-03 17:31:29</time>
      </trkpt>
      <trkpt lat="29.09753" lon="-13.55424">
        <ele>75.6</ele>
        <time>2021-07-03 17:31:30</time>
      </trkpt>
      <trkpt lat="29.09755" lon="-13.55423">
        <ele>75.6</ele>
        <time>2021-07-03 17:31:31</time>
      </trkpt>
      <trkpt lat="29.09756" lon="-13.55422">
        <ele>75.6</ele>
        <time>2021-07-03 17:32:30</time>
      </trkpt>
      <trkpt lat="29.09758" lon="-13.55421">
        <ele>75.6</ele>
        <time>2021-07-03 17:32:31</time>
      </trkpt>
      <trkpt lat="29.09759" lon="-13.5542">
        <ele>75.8</ele>
        <time>2021-07-03 17:32:32</time>
      </trkpt>
      <trkpt lat="29.09761" lon="-13.55418">
        <ele>75.8</ele>
        <time>2021-07-03 17:32:33</time>
      </trkpt>
      <trkpt lat="29.09763" lon="-13.55416">
        <ele>76</ele>
        <time>2021-07-03 17:32:34</time>
      </trkpt>
      <trkpt lat="29.09764" lon="-13.55415">
        <ele>76</ele>
        <time>2021-07-03 17:32:35</time>
      </trkpt>
      <trkpt lat="29.09765" lon="-13.55413">
        <ele>76</ele>
        <time>2021-07-03 17:32:36</time>
      </trkpt>
      <trkpt lat="29.09767" lon="-13.55412">
        <ele>76</ele>
        <time>2021-07-03 17:32:37</time>
      </trkpt>
      <trkpt lat="29.09768" lon="-13.5541">
        <ele>76</ele>
        <time>2021-07-03 17:32:38</time>
      </trkpt>
      <trkpt lat="29.09769" lon="-13.55409">
        <ele>76</ele>
        <time>2021-07-03 17:32:39</time>
      </trkpt>
      <trkpt lat="29.09771" lon="-13.55408">
        <ele>76</ele>
        <time>2021-07-03 17:32:40</time>
      </trkpt>
      <trkpt lat="29.09773" lon="-13.55407">
        <ele>76</ele>
        <time>2021-07-03 17:32:41</time>
      </trkpt>
      <trkpt lat="29.09775" lon="-13.55406">
        <ele>76</ele>
        <time>2021-07-03 17:32:42</time>
      </trkpt>
      <trkpt lat="29.09777" lon="-13.55404">
        <ele>76.2</ele>
        <time>2021-07-03 17:32:43</time>
      </trkpt>
      <trkpt lat="29.09779" lon="-13.55402">
        <ele>76.2</ele>
        <time>2021-07-03 17:32:44</time>
      </trkpt>
      <trkpt lat="29.09782" lon="-13.554">
        <ele>76.2</ele>
        <time>2021-07-03 17:32:45</time>
      </trkpt>
      <trkpt lat="29.09784" lon="-13.55397">
        <ele>76.6</ele>
        <time>2021-07-03 17:32:46</time>
      </trkpt>
      <trkpt lat="29.09787" lon="-13.55395">
        <ele>76.6</ele>
        <time>2021-07-03 17:32:47</time>
      </trkpt>
      <trkpt lat="29.09789" lon="-13.55392">
        <ele>76.6</ele>
        <time>2021-07-03 17:32:48</time>
      </trkpt>
      <trkpt lat="29.09792" lon="-13.5539">
        <ele>76.6</ele>
        <time>2021-07-03 17:32:49</time>
      </trkpt>
      <trkpt lat="29.09794" lon="-13.55388">
        <ele>76.8</ele>
        <time>2021-07-03 17:32:50</time>
      </trkpt>
      <trkpt lat="29.09797" lon="-13.55385">
        <ele>76.8</ele>
        <time>2021-07-03 17:32:51</time>
      </trkpt>
      <trkpt lat="29.09799" lon="-13.55383">
        <ele>76.8</ele>
        <time>2021-07-03 17:32:52</time>
      </trkpt>
      <trkpt lat="29.09802" lon="-13.55381">
        <ele>76.8</ele>
        <time>2021-07-03 17:32:53</time>
      </trkpt>
      <trkpt lat="29.09804" lon="-13.55379">
        <ele>76.8</ele>
        <time>2021-07-03 17:32:54</time>
      </trkpt>
      <trkpt lat="29.09807" lon="-13.55376">
        <ele>76.8</ele>
        <time>2021-07-03 17:32:55</time>
      </trkpt>
      <trkpt lat="29.0981" lon="-13.55374">
        <ele>76.8</ele>
        <time>2021-07-03 17:32:56</time>
      </trkpt>
      <trkpt lat="29.09813" lon="-13.55371">
        <ele>76.8</ele>
        <time>2021-07-03 17:32:57</time>
      </trkpt>
      <trkpt lat="29.09816" lon="-13.55369">
        <ele>76.8</ele>
        <time>2021-07-03 17:32:58</time>
      </trkpt>
      <trkpt lat="29.09819" lon="-13.55367">
        <ele>76.8</ele>
        <time>2021-07-03 17:32:59</time>
      </trkpt>
      <trkpt lat="29.09821" lon="-13.55364">
        <ele>76.8</ele>
        <time>2021-07-03 17:33:00</time>
      </trkpt>
      <trkpt lat="29.09825" lon="-13.55362">
        <ele>76.8</ele>
        <time>2021-07-03 17:33:01</time>
      </trkpt>
      <trkpt lat="29.09828" lon="-13.5536">
        <ele>76.8</ele>
        <time>2021-07-03 17:33:02</time>
      </trkpt>
      <trkpt lat="29.09831" lon="-13.55358">
        <ele>76.8</ele>
        <time>2021-07-03 17:33:03</time>
      </trkpt>
      <trkpt lat="29.09834" lon="-13.55356">
        <ele>76.8</ele>
        <time>2021-07-03 17:33:04</time>
      </trkpt>
      <trkpt lat="29.09837" lon="-13.55354">
        <ele>76.4</ele>
        <time>2021-07-03 17:33:05</time>
      </trkpt>
      <trkpt lat="29.0984" lon="-13.55352">
        <ele>76.4</ele>
        <time>2021-07-03 17:33:06</time>
      </trkpt>
      <trkpt lat="29.09843" lon="-13.5535">
        <ele>76.4</ele>
        <time>2021-07-03 17:33:07</time>
      </trkpt>
      <trkpt lat="29.09845" lon="-13.55348">
        <ele>76.4</ele>
        <time>2021-07-03 17:33:08</time>
      </trkpt>
      <trkpt lat="29.09848" lon="-13.55347">
        <ele>76.4</ele>
        <time>2021-07-03 17:33:09</time>
      </trkpt>
      <trkpt lat="29.09851" lon="-13.55345">
        <ele>76.4</ele>
        <time>2021-07-03 17:33:10</time>
      </trkpt>
      <trkpt lat="29.09853" lon="-13.55344">
        <ele>76.6</ele>
        <time>2021-07-03 17:33:11</time>
      </trkpt>
      <trkpt lat="29.09856" lon="-13.55342">
        <ele>76.6</ele>
        <time>2021-07-03 17:33:12</time>
      </trkpt>
      <trkpt lat="29.09858" lon="-13.55341">
        <ele>76.6</ele>
        <time>2021-07-03 17:33:13</time>
      </trkpt>
      <trkpt lat="29.09861" lon="-13.5534">
        <ele>76.6</ele>
        <time>2021-07-03 17:33:14</time>
      </trkpt>
      <trkpt lat="29.09863" lon="-13.55339">
        <ele>76.8</ele>
        <time>2021-07-03 17:33:15</time>
      </trkpt>
      <trkpt lat="29.09865" lon="-13.55338">
        <ele>76.8</ele>
        <time>2021-07-03 17:33:16</time>
      </trkpt>
      <trkpt lat="29.09867" lon="-13.55337">
        <ele>76.8</ele>
        <time>2021-07-03 17:33:17</time>
      </trkpt>
      <trkpt lat="29.09869" lon="-13.55337">
        <ele>76.8</ele>
        <time>2021-07-03 17:33:18</time>
      </trkpt>
      <trkpt lat="29.09871" lon="-13.55337">
        <ele>76.8</ele>
        <time>2021-07-03 17:33:19</time>
      </trkpt>
      <trkpt lat="29.09874" lon="-13.55337">
        <ele>77.2</ele>
        <time>2021-07-03 17:33:20</time>
      </trkpt>
      <trkpt lat="29.09876" lon="-13.55336">
        <ele>77.2</ele>
        <time>2021-07-03 17:33:21</time>
      </trkpt>
      <trkpt lat="29.09878" lon="-13.55335">
        <ele>77.2</ele>
        <time>2021-07-03 17:33:22</time>
      </trkpt>
      <trkpt lat="29.0988" lon="-13.55334">
        <ele>77.4</ele>
        <time>2021-07-03 17:33:23</time>
      </trkpt>
      <trkpt lat="29.09882" lon="-13.55332">
        <ele>77.4</ele>
        <time>2021-07-03 17:33:24</time>
      </trkpt>
      <trkpt lat="29.09884" lon="-13.55331">
        <ele>77.8</ele>
        <time>2021-07-03 17:33:25</time>
      </trkpt>
      <trkpt lat="29.09886" lon="-13.55331">
        <ele>78</ele>
        <time>2021-07-03 17:33:26</time>
      </trkpt>
      <trkpt lat="29.09888" lon="-13.5533">
        <ele>78</ele>
        <time>2021-07-03 17:33:27</time>
      </trkpt>
      <trkpt lat="29.0989" lon="-13.55329">
        <ele>78.4</ele>
        <time>2021-07-03 17:33:28</time>
      </trkpt>
      <trkpt lat="29.09892" lon="-13.55328">
        <ele>78.4</ele>
        <time>2021-07-03 17:33:29</time>
      </trkpt>
      <trkpt lat="29.09894" lon="-13.55327">
        <ele>78.6</ele>
        <time>2021-07-03 17:33:30</time>
      </trkpt>
      <trkpt lat="29.09897" lon="-13.55326">
        <ele>78.6</ele>
        <time>2021-07-03 17:33:31</time>
      </trkpt>
      <trkpt lat="29.09899" lon="-13.55325">
        <ele>78.8</ele>
        <time>2021-07-03 17:33:32</time>
      </trkpt>
      <trkpt lat="29.09901" lon="-13.55324">
        <ele>78.8</ele>
        <time>2021-07-03 17:33:33</time>
      </trkpt>
      <trkpt lat="29.09903" lon="-13.55322">
        <ele>79.2</ele>
        <time>2021-07-03 17:33:34</time>
      </trkpt>
      <trkpt lat="29.09905" lon="-13.55321">
        <ele>79.2</ele>
        <time>2021-07-03 17:33:35</time>
      </trkpt>
      <trkpt lat="29.09907" lon="-13.55319">
        <ele>79.4</ele>
        <time>2021-07-03 17:33:36</time>
      </trkpt>
      <trkpt lat="29.09909" lon="-13.55318">
        <ele>79.4</ele>
        <time>2021-07-03 17:33:37</time>
      </trkpt>
      <trkpt lat="29.09912" lon="-13.55317">
        <ele>79.6</ele>
        <time>2021-07-03 17:33:38</time>
      </trkpt>
      <trkpt lat="29.09914" lon="-13.55316">
        <ele>79.8</ele>
        <time>2021-07-03 17:33:39</time>
      </trkpt>
      <trkpt lat="29.09916" lon="-13.55315">
        <ele>79.8</ele>
        <time>2021-07-03 17:33:40</time>
      </trkpt>
      <trkpt lat="29.09918" lon="-13.55313">
        <ele>80.2</ele>
        <time>2021-07-03 17:33:41</time>
      </trkpt>
      <trkpt lat="29.0992" lon="-13.55312">
        <ele>80.2</ele>
        <time>2021-07-03 17:33:42</time>
      </trkpt>
      <trkpt lat="29.09922" lon="-13.5531">
        <ele>80.4</ele>
        <time>2021-07-03 17:33:43</time>
      </trkpt>
      <trkpt lat="29.09924" lon="-13.55309">
        <ele>80.4</ele>
        <time>2021-07-03 17:33:44</time>
      </trkpt>
      <trkpt lat="29.09927" lon="-13.55307">
        <ele>80.8</ele>
        <time>2021-07-03 17:33:45</time>
      </trkpt>
      <trkpt lat="29.09929" lon="-13.55306">
        <ele>81</ele>
        <time>2021-07-03 17:33:46</time>
      </trkpt>
      <trkpt lat="29.09932" lon="-13.55304">
        <ele>81</ele>
        <time>2021-07-03 17:33:47</time>
      </trkpt>
      <trkpt lat="29.09934" lon="-13.55303">
        <ele>81.2</ele>
        <time>2021-07-03 17:33:48</time>
      </trkpt>
      <trkpt lat="29.09937" lon="-13.55301">
        <ele>81.2</ele>
        <time>2021-07-03 17:33:49</time>
      </trkpt>
      <trkpt lat="29.09939" lon="-13.553">
        <ele>81.2</ele>
        <time>2021-07-03 17:33:50</time>
      </trkpt>
      <trkpt lat="29.09941" lon="-13.55298">
        <ele>81.2</ele>
        <time>2021-07-03 17:33:51</time>
      </trkpt>
      <trkpt lat="29.09943" lon="-13.55296">
        <ele>81.2</ele>
        <time>2021-07-03 17:33:52</time>
      </trkpt>
      <trkpt lat="29.09945" lon="-13.55294">
        <ele>81.2</ele>
        <time>2021-07-03 17:33:53</time>
      </trkpt>
      <trkpt lat="29.09947" lon="-13.55293">
        <ele>81.2</ele>
        <time>2021-07-03 17:33:54</time>
      </trkpt>
      <trkpt lat="29.0995" lon="-13.55292">
        <ele>81.2</ele>
        <time>2021-07-03 17:33:55</time>
      </trkpt>
      <trkpt lat="29.09952" lon="-13.55291">
        <ele>81.4</ele>
        <time>2021-07-03 17:33:56</time>
      </trkpt>
      <trkpt lat="29.09954" lon="-13.5529">
        <ele>81.4</ele>
        <time>2021-07-03 17:33:57</time>
      </trkpt>
      <trkpt lat="29.09955" lon="-13.55289">
        <ele>81.4</ele>
        <time>2021-07-03 17:33:58</time>
      </trkpt>
      <trkpt lat="29.09958" lon="-13.55288">
        <ele>81.4</ele>
        <time>2021-07-03 17:33:59</time>
      </trkpt>
      <trkpt lat="29.0996" lon="-13.55287">
        <ele>81.8</ele>
        <time>2021-07-03 17:34:00</time>
      </trkpt>
      <trkpt lat="29.09962" lon="-13.55287">
        <ele>81.8</ele>
        <time>2021-07-03 17:34:01</time>
      </trkpt>
      <trkpt lat="29.09965" lon="-13.55287">
        <ele>82.2</ele>
        <time>2021-07-03 17:34:02</time>
      </trkpt>
      <trkpt lat="29.09967" lon="-13.55287">
        <ele>82.2</ele>
        <time>2021-07-03 17:34:03</time>
      </trkpt>
      <trkpt lat="29.0997" lon="-13.55286">
        <ele>82.2</ele>
        <time>2021-07-03 17:34:04</time>
      </trkpt>
      <trkpt lat="29.09972" lon="-13.55285">
        <ele>82.4</ele>
        <time>2021-07-03 17:34:05</time>
      </trkpt>
      <trkpt lat="29.09974" lon="-13.55284">
        <ele>82.4</ele>
        <time>2021-07-03 17:34:06</time>
      </trkpt>
      <trkpt lat="29.09977" lon="-13.55283">
        <ele>82.8</ele>
        <time>2021-07-03 17:34:07</time>
      </trkpt>
      <trkpt lat="29.09979" lon="-13.55282">
        <ele>82.8</ele>
        <time>2021-07-03 17:34:08</time>
      </trkpt>
      <trkpt lat="29.09981" lon="-13.55281">
        <ele>82.8</ele>
        <time>2021-07-03 17:34:09</time>
      </trkpt>
      <trkpt lat="29.09983" lon="-13.55279">
        <ele>83</ele>
        <time>2021-07-03 17:34:10</time>
      </trkpt>
      <trkpt lat="29.09984" lon="-13.55277">
        <ele>83</ele>
        <time>2021-07-03 17:34:11</time>
      </trkpt>
      <trkpt lat="29.09986" lon="-13.55276">
        <ele>83.4</ele>
        <time>2021-07-03 17:34:12</time>
      </trkpt>
      <trkpt lat="29.09988" lon="-13.55275">
        <ele>83.4</ele>
        <time>2021-07-03 17:34:13</time>
      </trkpt>
      <trkpt lat="29.09991" lon="-13.55274">
        <ele>83.6</ele>
        <time>2021-07-03 17:34:14</time>
      </trkpt>
      <trkpt lat="29.09993" lon="-13.55274">
        <ele>83.6</ele>
        <time>2021-07-03 17:34:15</time>
      </trkpt>
      <trkpt lat="29.09996" lon="-13.55273">
        <ele>83.8</ele>
        <time>2021-07-03 17:34:16</time>
      </trkpt>
      <trkpt lat="29.09998" lon="-13.55272">
        <ele>83.8</ele>
        <time>2021-07-03 17:34:17</time>
      </trkpt>
      <trkpt lat="29.10001" lon="-13.55271">
        <ele>83.8</ele>
        <time>2021-07-03 17:34:18</time>
      </trkpt>
      <trkpt lat="29.10004" lon="-13.5527">
        <ele>84</ele>
        <time>2021-07-03 17:34:19</time>
      </trkpt>
      <trkpt lat="29.10006" lon="-13.5527">
        <ele>84</ele>
        <time>2021-07-03 17:34:20</time>
      </trkpt>
      <trkpt lat="29.10009" lon="-13.55269">
        <ele>84.2</ele>
        <time>2021-07-03 17:34:21</time>
      </trkpt>
      <trkpt lat="29.10012" lon="-13.55268">
        <ele>84.4</ele>
        <time>2021-07-03 17:34:22</time>
      </trkpt>
      <trkpt lat="29.10015" lon="-13.55267">
        <ele>84.4</ele>
        <time>2021-07-03 17:34:23</time>
      </trkpt>
      <trkpt lat="29.10017" lon="-13.55265">
        <ele>84.4</ele>
        <time>2021-07-03 17:34:24</time>
      </trkpt>
      <trkpt lat="29.1002" lon="-13.55264">
        <ele>84.4</ele>
        <time>2021-07-03 17:34:25</time>
      </trkpt>
      <trkpt lat="29.10023" lon="-13.55264">
        <ele>84.4</ele>
        <time>2021-07-03 17:34:26</time>
      </trkpt>
      <trkpt lat="29.10026" lon="-13.55263">
        <ele>84.4</ele>
        <time>2021-07-03 17:34:27</time>
      </trkpt>
      <trkpt lat="29.10029" lon="-13.55262">
        <ele>84.8</ele>
        <time>2021-07-03 17:34:28</time>
      </trkpt>
      <trkpt lat="29.10032" lon="-13.5526">
        <ele>84.8</ele>
        <time>2021-07-03 17:34:29</time>
      </trkpt>
      <trkpt lat="29.10035" lon="-13.55259">
        <ele>84.8</ele>
        <time>2021-07-03 17:34:30</time>
      </trkpt>
      <trkpt lat="29.10038" lon="-13.55258">
        <ele>84.8</ele>
        <time>2021-07-03 17:34:31</time>
      </trkpt>
      <trkpt lat="29.10041" lon="-13.55257">
        <ele>84.8</ele>
        <time>2021-07-03 17:34:32</time>
      </trkpt>
      <trkpt lat="29.10044" lon="-13.55257">
        <ele>84.8</ele>
        <time>2021-07-03 17:34:33</time>
      </trkpt>
      <trkpt lat="29.10047" lon="-13.55255">
        <ele>84.8</ele>
        <time>2021-07-03 17:34:34</time>
      </trkpt>
      <trkpt lat="29.1005" lon="-13.55254">
        <ele>84.8</ele>
        <time>2021-07-03 17:34:35</time>
      </trkpt>
      <trkpt lat="29.10054" lon="-13.55253">
        <ele>84.8</ele>
        <time>2021-07-03 17:34:36</time>
      </trkpt>
      <trkpt lat="29.10057" lon="-13.55252">
        <ele>84.8</ele>
        <time>2021-07-03 17:34:37</time>
      </trkpt>
      <trkpt lat="29.1006" lon="-13.5525">
        <ele>84.8</ele>
        <time>2021-07-03 17:34:38</time>
      </trkpt>
      <trkpt lat="29.10063" lon="-13.55249">
        <ele>84.8</ele>
        <time>2021-07-03 17:34:39</time>
      </trkpt>
      <trkpt lat="29.10066" lon="-13.55248">
        <ele>84.8</ele>
        <time>2021-07-03 17:34:40</time>
      </trkpt>
      <trkpt lat="29.10069" lon="-13.55247">
        <ele>84.8</ele>
        <time>2021-07-03 17:34:41</time>
      </trkpt>
      <trkpt lat="29.10072" lon="-13.55246">
        <ele>84.8</ele>
        <time>2021-07-03 17:34:42</time>
      </trkpt>
      <trkpt lat="29.10075" lon="-13.55245">
        <ele>84.8</ele>
        <time>2021-07-03 17:34:43</time>
      </trkpt>
      <trkpt lat="29.10079" lon="-13.55243">
        <ele>84.8</ele>
        <time>2021-07-03 17:34:44</time>
      </trkpt>
      <trkpt lat="29.10082" lon="-13.55242">
        <ele>84.8</ele>
        <time>2021-07-03 17:34:45</time>
      </trkpt>
      <trkpt lat="29.10085" lon="-13.55241">
        <ele>84.8</ele>
        <time>2021-07-03 17:34:46</time>
      </trkpt>
      <trkpt lat="29.10088" lon="-13.55239">
        <ele>84.8</ele>
        <time>2021-07-03 17:34:47</time>
      </trkpt>
      <trkpt lat="29.10091" lon="-13.55238">
        <ele>85</ele>
        <time>2021-07-03 17:34:48</time>
      </trkpt>
      <trkpt lat="29.10095" lon="-13.55237">
        <ele>85</ele>
        <time>2021-07-03 17:34:49</time>
      </trkpt>
      <trkpt lat="29.10098" lon="-13.55236">
        <ele>85</ele>
        <time>2021-07-03 17:34:50</time>
      </trkpt>
      <trkpt lat="29.10101" lon="-13.55235">
        <ele>85</ele>
        <time>2021-07-03 17:34:51</time>
      </trkpt>
      <trkpt lat="29.10104" lon="-13.55234">
        <ele>85</ele>
        <time>2021-07-03 17:34:52</time>
      </trkpt>
      <trkpt lat="29.10108" lon="-13.55232">
        <ele>85</ele>
        <time>2021-07-03 17:34:53</time>
      </trkpt>
      <trkpt lat="29.10111" lon="-13.55231">
        <ele>85</ele>
        <time>2021-07-03 17:34:54</time>
      </trkpt>
      <trkpt lat="29.10114" lon="-13.5523">
        <ele>85</ele>
        <time>2021-07-03 17:34:55</time>
      </trkpt>
      <trkpt lat="29.10117" lon="-13.55228">
        <ele>85</ele>
        <time>2021-07-03 17:34:56</time>
      </trkpt>
      <trkpt lat="29.1012" lon="-13.55226">
        <ele>85</ele>
        <time>2021-07-03 17:34:57</time>
      </trkpt>
      <trkpt lat="29.10123" lon="-13.55225">
        <ele>85</ele>
        <time>2021-07-03 17:34:58</time>
      </trkpt>
      <trkpt lat="29.10126" lon="-13.55223">
        <ele>85</ele>
        <time>2021-07-03 17:34:59</time>
      </trkpt>
      <trkpt lat="29.1013" lon="-13.55222">
        <ele>85</ele>
        <time>2021-07-03 17:35:00</time>
      </trkpt>
      <trkpt lat="29.10133" lon="-13.55221">
        <ele>85</ele>
        <time>2021-07-03 17:35:01</time>
      </trkpt>
      <trkpt lat="29.10136" lon="-13.55219">
        <ele>85</ele>
        <time>2021-07-03 17:35:02</time>
      </trkpt>
      <trkpt lat="29.10139" lon="-13.55217">
        <ele>85</ele>
        <time>2021-07-03 17:35:03</time>
      </trkpt>
      <trkpt lat="29.10143" lon="-13.55216">
        <ele>85</ele>
        <time>2021-07-03 17:35:04</time>
      </trkpt>
      <trkpt lat="29.10146" lon="-13.55214">
        <ele>85</ele>
        <time>2021-07-03 17:35:05</time>
      </trkpt>
      <trkpt lat="29.10149" lon="-13.55212">
        <ele>84.8</ele>
        <time>2021-07-03 17:35:06</time>
      </trkpt>
      <trkpt lat="29.10152" lon="-13.5521">
        <ele>84.8</ele>
        <time>2021-07-03 17:35:07</time>
      </trkpt>
      <trkpt lat="29.10156" lon="-13.55209">
        <ele>84.8</ele>
        <time>2021-07-03 17:35:08</time>
      </trkpt>
      <trkpt lat="29.10159" lon="-13.55206">
        <ele>84.4</ele>
        <time>2021-07-03 17:35:09</time>
      </trkpt>
      <trkpt lat="29.10162" lon="-13.55204">
        <ele>84.4</ele>
        <time>2021-07-03 17:35:10</time>
      </trkpt>
      <trkpt lat="29.10165" lon="-13.55202">
        <ele>84.4</ele>
        <time>2021-07-03 17:35:11</time>
      </trkpt>
      <trkpt lat="29.10168" lon="-13.552">
        <ele>84.2</ele>
        <time>2021-07-03 17:35:12</time>
      </trkpt>
      <trkpt lat="29.10172" lon="-13.55198">
        <ele>84.2</ele>
        <time>2021-07-03 17:35:13</time>
      </trkpt>
      <trkpt lat="29.10175" lon="-13.55196">
        <ele>84.2</ele>
        <time>2021-07-03 17:35:14</time>
      </trkpt>
      <trkpt lat="29.10179" lon="-13.55194">
        <ele>84.2</ele>
        <time>2021-07-03 17:35:15</time>
      </trkpt>
      <trkpt lat="29.10182" lon="-13.55192">
        <ele>84.2</ele>
        <time>2021-07-03 17:35:16</time>
      </trkpt>
      <trkpt lat="29.10185" lon="-13.5519">
        <ele>84.2</ele>
        <time>2021-07-03 17:35:17</time>
      </trkpt>
      <trkpt lat="29.10189" lon="-13.55188">
        <ele>84.2</ele>
        <time>2021-07-03 17:35:18</time>
      </trkpt>
      <trkpt lat="29.10192" lon="-13.55185">
        <ele>84</ele>
        <time>2021-07-03 17:35:19</time>
      </trkpt>
      <trkpt lat="29.10195" lon="-13.55183">
        <ele>84</ele>
        <time>2021-07-03 17:35:20</time>
      </trkpt>
      <trkpt lat="29.10199" lon="-13.55181">
        <ele>84</ele>
        <time>2021-07-03 17:35:21</time>
      </trkpt>
      <trkpt lat="29.10202" lon="-13.55179">
        <ele>84</ele>
        <time>2021-07-03 17:35:22</time>
      </trkpt>
      <trkpt lat="29.10205" lon="-13.55176">
        <ele>83.6</ele>
        <time>2021-07-03 17:35:23</time>
      </trkpt>
      <trkpt lat="29.10209" lon="-13.55174">
        <ele>83.6</ele>
        <time>2021-07-03 17:35:24</time>
      </trkpt>
      <trkpt lat="29.10212" lon="-13.55171">
        <ele>83.4</ele>
        <time>2021-07-03 17:35:25</time>
      </trkpt>
      <trkpt lat="29.10215" lon="-13.55168">
        <ele>83.2</ele>
        <time>2021-07-03 17:35:26</time>
      </trkpt>
      <trkpt lat="29.10219" lon="-13.55166">
        <ele>83.2</ele>
        <time>2021-07-03 17:35:27</time>
      </trkpt>
      <trkpt lat="29.10222" lon="-13.55163">
        <ele>82.8</ele>
        <time>2021-07-03 17:35:28</time>
      </trkpt>
      <trkpt lat="29.10225" lon="-13.55161">
        <ele>82.8</ele>
        <time>2021-07-03 17:35:29</time>
      </trkpt>
      <trkpt lat="29.10228" lon="-13.55158">
        <ele>82.8</ele>
        <time>2021-07-03 17:35:30</time>
      </trkpt>
      <trkpt lat="29.10231" lon="-13.55156">
        <ele>82.8</ele>
        <time>2021-07-03 17:35:31</time>
      </trkpt>
      <trkpt lat="29.10234" lon="-13.55153">
        <ele>82.8</ele>
        <time>2021-07-03 17:35:32</time>
      </trkpt>
      <trkpt lat="29.10238" lon="-13.55151">
        <ele>82.8</ele>
        <time>2021-07-03 17:35:33</time>
      </trkpt>
      <trkpt lat="29.10241" lon="-13.55148">
        <ele>82.6</ele>
        <time>2021-07-03 17:35:34</time>
      </trkpt>
      <trkpt lat="29.10244" lon="-13.55146">
        <ele>82.6</ele>
        <time>2021-07-03 17:35:35</time>
      </trkpt>
      <trkpt lat="29.10247" lon="-13.55143">
        <ele>82.6</ele>
        <time>2021-07-03 17:35:36</time>
      </trkpt>
      <trkpt lat="29.1025" lon="-13.55141">
        <ele>82.6</ele>
        <time>2021-07-03 17:35:37</time>
      </trkpt>
      <trkpt lat="29.10252" lon="-13.55138">
        <ele>82.6</ele>
        <time>2021-07-03 17:35:38</time>
      </trkpt>
      <trkpt lat="29.10256" lon="-13.55135">
        <ele>82.6</ele>
        <time>2021-07-03 17:35:39</time>
      </trkpt>
      <trkpt lat="29.10258" lon="-13.55132">
        <ele>82.6</ele>
        <time>2021-07-03 17:35:40</time>
      </trkpt>
      <trkpt lat="29.10262" lon="-13.5513">
        <ele>82.6</ele>
        <time>2021-07-03 17:35:41</time>
      </trkpt>
      <trkpt lat="29.10265" lon="-13.55127">
        <ele>82.2</ele>
        <time>2021-07-03 17:35:42</time>
      </trkpt>
      <trkpt lat="29.10268" lon="-13.55125">
        <ele>82.2</ele>
        <time>2021-07-03 17:35:43</time>
      </trkpt>
      <trkpt lat="29.10271" lon="-13.55122">
        <ele>82.2</ele>
        <time>2021-07-03 17:35:44</time>
      </trkpt>
      <trkpt lat="29.10274" lon="-13.5512">
        <ele>82</ele>
        <time>2021-07-03 17:35:45</time>
      </trkpt>
      <trkpt lat="29.10277" lon="-13.55116">
        <ele>82</ele>
        <time>2021-07-03 17:35:46</time>
      </trkpt>
      <trkpt lat="29.1028" lon="-13.55114">
        <ele>81.6</ele>
        <time>2021-07-03 17:35:47</time>
      </trkpt>
      <trkpt lat="29.10283" lon="-13.55111">
        <ele>81.6</ele>
        <time>2021-07-03 17:35:48</time>
      </trkpt>
      <trkpt lat="29.10286" lon="-13.55108">
        <ele>81.4</ele>
        <time>2021-07-03 17:35:49</time>
      </trkpt>
      <trkpt lat="29.1029" lon="-13.55105">
        <ele>81.4</ele>
        <time>2021-07-03 17:35:50</time>
      </trkpt>
      <trkpt lat="29.10293" lon="-13.55102">
        <ele>81.2</ele>
        <time>2021-07-03 17:35:51</time>
      </trkpt>
      <trkpt lat="29.10297" lon="-13.55099">
        <ele>81.2</ele>
        <time>2021-07-03 17:35:52</time>
      </trkpt>
      <trkpt lat="29.103" lon="-13.55096">
        <ele>80.8</ele>
        <time>2021-07-03 17:35:53</time>
      </trkpt>
      <trkpt lat="29.10304" lon="-13.55093">
        <ele>80.8</ele>
        <time>2021-07-03 17:35:54</time>
      </trkpt>
      <trkpt lat="29.10308" lon="-13.5509">
        <ele>80.6</ele>
        <time>2021-07-03 17:35:55</time>
      </trkpt>
      <trkpt lat="29.10311" lon="-13.55087">
        <ele>80.6</ele>
        <time>2021-07-03 17:35:56</time>
      </trkpt>
      <trkpt lat="29.10315" lon="-13.55084">
        <ele>80.6</ele>
        <time>2021-07-03 17:35:57</time>
      </trkpt>
      <trkpt lat="29.10319" lon="-13.55081">
        <ele>80.4</ele>
        <time>2021-07-03 17:35:58</time>
      </trkpt>
      <trkpt lat="29.10323" lon="-13.55078">
        <ele>80.2</ele>
        <time>2021-07-03 17:35:59</time>
      </trkpt>
      <trkpt lat="29.10326" lon="-13.55075">
        <ele>80.2</ele>
        <time>2021-07-03 17:36:00</time>
      </trkpt>
      <trkpt lat="29.1033" lon="-13.55071">
        <ele>80</ele>
        <time>2021-07-03 17:36:01</time>
      </trkpt>
      <trkpt lat="29.10334" lon="-13.55068">
        <ele>79.8</ele>
        <time>2021-07-03 17:36:02</time>
      </trkpt>
      <trkpt lat="29.10337" lon="-13.55065">
        <ele>79.4</ele>
        <time>2021-07-03 17:36:03</time>
      </trkpt>
      <trkpt lat="29.10341" lon="-13.55062">
        <ele>79.4</ele>
        <time>2021-07-03 17:36:04</time>
      </trkpt>
      <trkpt lat="29.10344" lon="-13.5506">
        <ele>79.2</ele>
        <time>2021-07-03 17:36:05</time>
      </trkpt>
      <trkpt lat="29.10348" lon="-13.55056">
        <ele>79.2</ele>
        <time>2021-07-03 17:36:06</time>
      </trkpt>
      <trkpt lat="29.10351" lon="-13.55053">
        <ele>79.2</ele>
        <time>2021-07-03 17:36:07</time>
      </trkpt>
      <trkpt lat="29.10355" lon="-13.5505">
        <ele>79.2</ele>
        <time>2021-07-03 17:36:08</time>
      </trkpt>
      <trkpt lat="29.10359" lon="-13.55047">
        <ele>79</ele>
        <time>2021-07-03 17:36:09</time>
      </trkpt>
      <trkpt lat="29.10362" lon="-13.55044">
        <ele>79</ele>
        <time>2021-07-03 17:36:10</time>
      </trkpt>
      <trkpt lat="29.10365" lon="-13.55041">
        <ele>79</ele>
        <time>2021-07-03 17:36:11</time>
      </trkpt>
      <trkpt lat="29.10369" lon="-13.55039">
        <ele>79</ele>
        <time>2021-07-03 17:36:12</time>
      </trkpt>
      <trkpt lat="29.10372" lon="-13.55036">
        <ele>79</ele>
        <time>2021-07-03 17:36:13</time>
      </trkpt>
      <trkpt lat="29.10376" lon="-13.55034">
        <ele>79</ele>
        <time>2021-07-03 17:36:14</time>
      </trkpt>
      <trkpt lat="29.10379" lon="-13.55032">
        <ele>79</ele>
        <time>2021-07-03 17:36:15</time>
      </trkpt>
      <trkpt lat="29.10381" lon="-13.55029">
        <ele>79</ele>
        <time>2021-07-03 17:36:16</time>
      </trkpt>
      <trkpt lat="29.10384" lon="-13.55027">
        <ele>79</ele>
        <time>2021-07-03 17:36:17</time>
      </trkpt>
      <trkpt lat="29.10387" lon="-13.55024">
        <ele>79</ele>
        <time>2021-07-03 17:36:18</time>
      </trkpt>
      <trkpt lat="29.1039" lon="-13.55022">
        <ele>79</ele>
        <time>2021-07-03 17:36:19</time>
      </trkpt>
      <trkpt lat="29.10393" lon="-13.55019">
        <ele>79</ele>
        <time>2021-07-03 17:36:20</time>
      </trkpt>
      <trkpt lat="29.10396" lon="-13.55017">
        <ele>79</ele>
        <time>2021-07-03 17:36:21</time>
      </trkpt>
      <trkpt lat="29.10398" lon="-13.55015">
        <ele>79</ele>
        <time>2021-07-03 17:36:22</time>
      </trkpt>
      <trkpt lat="29.10401" lon="-13.55013">
        <ele>79</ele>
        <time>2021-07-03 17:36:23</time>
      </trkpt>
      <trkpt lat="29.10403" lon="-13.55011">
        <ele>79</ele>
        <time>2021-07-03 17:36:24</time>
      </trkpt>
      <trkpt lat="29.10405" lon="-13.55009">
        <ele>79</ele>
        <time>2021-07-03 17:36:25</time>
      </trkpt>
      <trkpt lat="29.10408" lon="-13.55007">
        <ele>79</ele>
        <time>2021-07-03 17:36:26</time>
      </trkpt>
      <trkpt lat="29.10411" lon="-13.55004">
        <ele>79</ele>
        <time>2021-07-03 17:36:27</time>
      </trkpt>
      <trkpt lat="29.10413" lon="-13.55002">
        <ele>78.8</ele>
        <time>2021-07-03 17:36:28</time>
      </trkpt>
      <trkpt lat="29.10416" lon="-13.55">
        <ele>78.8</ele>
        <time>2021-07-03 17:36:29</time>
      </trkpt>
      <trkpt lat="29.10419" lon="-13.54997">
        <ele>78.8</ele>
        <time>2021-07-03 17:36:30</time>
      </trkpt>
      <trkpt lat="29.10421" lon="-13.54995">
        <ele>78.8</ele>
        <time>2021-07-03 17:36:31</time>
      </trkpt>
      <trkpt lat="29.10424" lon="-13.54993">
        <ele>78.8</ele>
        <time>2021-07-03 17:36:32</time>
      </trkpt>
      <trkpt lat="29.10427" lon="-13.54991">
        <ele>78.8</ele>
        <time>2021-07-03 17:36:33</time>
      </trkpt>
      <trkpt lat="29.10429" lon="-13.54989">
        <ele>78.8</ele>
        <time>2021-07-03 17:36:34</time>
      </trkpt>
      <trkpt lat="29.10432" lon="-13.54987">
        <ele>79</ele>
        <time>2021-07-03 17:36:35</time>
      </trkpt>
      <trkpt lat="29.10434" lon="-13.54985">
        <ele>79</ele>
        <time>2021-07-03 17:36:36</time>
      </trkpt>
      <trkpt lat="29.10437" lon="-13.54983">
        <ele>79</ele>
        <time>2021-07-03 17:36:37</time>
      </trkpt>
      <trkpt lat="29.10439" lon="-13.54982">
        <ele>79.2</ele>
        <time>2021-07-03 17:36:38</time>
      </trkpt>
      <trkpt lat="29.10442" lon="-13.54979">
        <ele>79.2</ele>
        <time>2021-07-03 17:36:39</time>
      </trkpt>
      <trkpt lat="29.10444" lon="-13.54977">
        <ele>79.4</ele>
        <time>2021-07-03 17:36:40</time>
      </trkpt>
      <trkpt lat="29.10447" lon="-13.54975">
        <ele>79.4</ele>
        <time>2021-07-03 17:36:41</time>
      </trkpt>
      <trkpt lat="29.1045" lon="-13.54973">
        <ele>79.6</ele>
        <time>2021-07-03 17:36:42</time>
      </trkpt>
      <trkpt lat="29.10452" lon="-13.5497">
        <ele>79.6</ele>
        <time>2021-07-03 17:36:43</time>
      </trkpt>
      <trkpt lat="29.10455" lon="-13.54968">
        <ele>79.6</ele>
        <time>2021-07-03 17:36:44</time>
      </trkpt>
      <trkpt lat="29.10458" lon="-13.54966">
        <ele>79.6</ele>
        <time>2021-07-03 17:36:45</time>
      </trkpt>
      <trkpt lat="29.10461" lon="-13.54963">
        <ele>79.8</ele>
        <time>2021-07-03 17:36:46</time>
      </trkpt>
      <trkpt lat="29.10463" lon="-13.54961">
        <ele>79.8</ele>
        <time>2021-07-03 17:36:47</time>
      </trkpt>
      <trkpt lat="29.10466" lon="-13.54958">
        <ele>79.8</ele>
        <time>2021-07-03 17:36:48</time>
      </trkpt>
      <trkpt lat="29.10469" lon="-13.54956">
        <ele>79.8</ele>
        <time>2021-07-03 17:36:49</time>
      </trkpt>
      <trkpt lat="29.10473" lon="-13.54953">
        <ele>79.8</ele>
        <time>2021-07-03 17:36:50</time>
      </trkpt>
      <trkpt lat="29.10475" lon="-13.5495">
        <ele>79.8</ele>
        <time>2021-07-03 17:36:51</time>
      </trkpt>
      <trkpt lat="29.10478" lon="-13.54948">
        <ele>79.8</ele>
        <time>2021-07-03 17:36:52</time>
      </trkpt>
      <trkpt lat="29.10481" lon="-13.54945">
        <ele>79.6</ele>
        <time>2021-07-03 17:36:53</time>
      </trkpt>
      <trkpt lat="29.10484" lon="-13.54942">
        <ele>79.6</ele>
        <time>2021-07-03 17:36:54</time>
      </trkpt>
      <trkpt lat="29.10486" lon="-13.5494">
        <ele>79.4</ele>
        <time>2021-07-03 17:36:55</time>
      </trkpt>
      <trkpt lat="29.10489" lon="-13.54937">
        <ele>79.4</ele>
        <time>2021-07-03 17:36:56</time>
      </trkpt>
      <trkpt lat="29.10492" lon="-13.54935">
        <ele>79.2</ele>
        <time>2021-07-03 17:36:57</time>
      </trkpt>
      <trkpt lat="29.10495" lon="-13.54932">
        <ele>79.2</ele>
        <time>2021-07-03 17:36:58</time>
      </trkpt>
      <trkpt lat="29.10498" lon="-13.5493">
        <ele>78.8</ele>
        <time>2021-07-03 17:36:59</time>
      </trkpt>
      <trkpt lat="29.10501" lon="-13.54928">
        <ele>78.8</ele>
        <time>2021-07-03 17:37:00</time>
      </trkpt>
      <trkpt lat="29.10504" lon="-13.54926">
        <ele>78.6</ele>
        <time>2021-07-03 17:37:01</time>
      </trkpt>
      <trkpt lat="29.10506" lon="-13.54924">
        <ele>78.6</ele>
        <time>2021-07-03 17:37:02</time>
      </trkpt>
      <trkpt lat="29.10509" lon="-13.54922">
        <ele>78.6</ele>
        <time>2021-07-03 17:37:03</time>
      </trkpt>
      <trkpt lat="29.10511" lon="-13.54921">
        <ele>78.6</ele>
        <time>2021-07-03 17:37:04</time>
      </trkpt>
      <trkpt lat="29.10514" lon="-13.54919">
        <ele>78.6</ele>
        <time>2021-07-03 17:37:05</time>
      </trkpt>
      <trkpt lat="29.10516" lon="-13.54918">
        <ele>78.6</ele>
        <time>2021-07-03 17:37:06</time>
      </trkpt>
      <trkpt lat="29.10518" lon="-13.54916">
        <ele>78.8</ele>
        <time>2021-07-03 17:37:07</time>
      </trkpt>
      <trkpt lat="29.1052" lon="-13.54915">
        <ele>78.8</ele>
        <time>2021-07-03 17:37:08</time>
      </trkpt>
      <trkpt lat="29.10522" lon="-13.54913">
        <ele>78.8</ele>
        <time>2021-07-03 17:37:09</time>
      </trkpt>
      <trkpt lat="29.10524" lon="-13.54912">
        <ele>78.8</ele>
        <time>2021-07-03 17:37:10</time>
      </trkpt>
      <trkpt lat="29.10526" lon="-13.5491">
        <ele>79.2</ele>
        <time>2021-07-03 17:37:11</time>
      </trkpt>
      <trkpt lat="29.10529" lon="-13.54909">
        <ele>79.2</ele>
        <time>2021-07-03 17:37:12</time>
      </trkpt>
      <trkpt lat="29.10531" lon="-13.54907">
        <ele>79.6</ele>
        <time>2021-07-03 17:37:13</time>
      </trkpt>
      <trkpt lat="29.10534" lon="-13.54905">
        <ele>79.6</ele>
        <time>2021-07-03 17:37:14</time>
      </trkpt>
      <trkpt lat="29.10536" lon="-13.54904">
        <ele>79.8</ele>
        <time>2021-07-03 17:37:15</time>
      </trkpt>
      <trkpt lat="29.10539" lon="-13.54902">
        <ele>79.8</ele>
        <time>2021-07-03 17:37:16</time>
      </trkpt>
      <trkpt lat="29.10541" lon="-13.549">
        <ele>80.2</ele>
        <time>2021-07-03 17:37:17</time>
      </trkpt>
      <trkpt lat="29.10544" lon="-13.54898">
        <ele>80.2</ele>
        <time>2021-07-03 17:37:18</time>
      </trkpt>
      <trkpt lat="29.10548" lon="-13.54896">
        <ele>80.2</ele>
        <time>2021-07-03 17:37:19</time>
      </trkpt>
      <trkpt lat="29.10551" lon="-13.54894">
        <ele>80.2</ele>
        <time>2021-07-03 17:37:20</time>
      </trkpt>
      <trkpt lat="29.10554" lon="-13.54892">
        <ele>80.2</ele>
        <time>2021-07-03 17:37:21</time>
      </trkpt>
      <trkpt lat="29.10558" lon="-13.54891">
        <ele>80.2</ele>
        <time>2021-07-03 17:37:22</time>
      </trkpt>
      <trkpt lat="29.10561" lon="-13.54889">
        <ele>79.6</ele>
        <time>2021-07-03 17:37:23</time>
      </trkpt>
      <trkpt lat="29.10563" lon="-13.54887">
        <ele>79.6</ele>
        <time>2021-07-03 17:37:24</time>
      </trkpt>
      <trkpt lat="29.10566" lon="-13.54886">
        <ele>79.6</ele>
        <time>2021-07-03 17:37:25</time>
      </trkpt>
      <trkpt lat="29.10569" lon="-13.54885">
        <ele>79</ele>
        <time>2021-07-03 17:37:26</time>
      </trkpt>
      <trkpt lat="29.10572" lon="-13.54883">
        <ele>79</ele>
        <time>2021-07-03 17:37:27</time>
      </trkpt>
      <trkpt lat="29.10575" lon="-13.54881">
        <ele>79</ele>
        <time>2021-07-03 17:37:28</time>
      </trkpt>
      <trkpt lat="29.10578" lon="-13.54879">
        <ele>79</ele>
        <time>2021-07-03 17:37:29</time>
      </trkpt>
      <trkpt lat="29.10582" lon="-13.54877">
        <ele>79</ele>
        <time>2021-07-03 17:37:30</time>
      </trkpt>
      <trkpt lat="29.10585" lon="-13.54876">
        <ele>79</ele>
        <time>2021-07-03 17:37:31</time>
      </trkpt>
      <trkpt lat="29.10589" lon="-13.54874">
        <ele>79</ele>
        <time>2021-07-03 17:37:32</time>
      </trkpt>
      <trkpt lat="29.10592" lon="-13.54872">
        <ele>79</ele>
        <time>2021-07-03 17:37:33</time>
      </trkpt>
      <trkpt lat="29.10595" lon="-13.5487">
        <ele>79</ele>
        <time>2021-07-03 17:37:34</time>
      </trkpt>
      <trkpt lat="29.10598" lon="-13.54868">
        <ele>79</ele>
        <time>2021-07-03 17:37:35</time>
      </trkpt>
      <trkpt lat="29.10602" lon="-13.54866">
        <ele>78.8</ele>
        <time>2021-07-03 17:37:36</time>
      </trkpt>
      <trkpt lat="29.10605" lon="-13.54865">
        <ele>78.8</ele>
        <time>2021-07-03 17:37:37</time>
      </trkpt>
      <trkpt lat="29.10609" lon="-13.54863">
        <ele>78.8</ele>
        <time>2021-07-03 17:37:38</time>
      </trkpt>
      <trkpt lat="29.10612" lon="-13.54861">
        <ele>78.8</ele>
        <time>2021-07-03 17:37:39</time>
      </trkpt>
      <trkpt lat="29.10616" lon="-13.54859">
        <ele>78.8</ele>
        <time>2021-07-03 17:37:40</time>
      </trkpt>
      <trkpt lat="29.10619" lon="-13.54857">
        <ele>78.4</ele>
        <time>2021-07-03 17:37:41</time>
      </trkpt>
      <trkpt lat="29.10623" lon="-13.54855">
        <ele>78.4</ele>
        <time>2021-07-03 17:37:42</time>
      </trkpt>
      <trkpt lat="29.10626" lon="-13.54853">
        <ele>78.4</ele>
        <time>2021-07-03 17:37:43</time>
      </trkpt>
      <trkpt lat="29.10629" lon="-13.54851">
        <ele>78.4</ele>
        <time>2021-07-03 17:37:44</time>
      </trkpt>
      <trkpt lat="29.10633" lon="-13.5485">
        <ele>78.4</ele>
        <time>2021-07-03 17:37:45</time>
      </trkpt>
      <trkpt lat="29.10636" lon="-13.54848">
        <ele>78.4</ele>
        <time>2021-07-03 17:37:46</time>
      </trkpt>
      <trkpt lat="29.10639" lon="-13.54846">
        <ele>78.4</ele>
        <time>2021-07-03 17:37:47</time>
      </trkpt>
      <trkpt lat="29.10643" lon="-13.54844">
        <ele>78.4</ele>
        <time>2021-07-03 17:37:48</time>
      </trkpt>
      <trkpt lat="29.10646" lon="-13.54843">
        <ele>78.4</ele>
        <time>2021-07-03 17:37:49</time>
      </trkpt>
      <trkpt lat="29.10649" lon="-13.54841">
        <ele>78.4</ele>
        <time>2021-07-03 17:37:50</time>
      </trkpt>
      <trkpt lat="29.10653" lon="-13.5484">
        <ele>78.4</ele>
        <time>2021-07-03 17:37:51</time>
      </trkpt>
      <trkpt lat="29.10656" lon="-13.54838">
        <ele>78.4</ele>
        <time>2021-07-03 17:37:52</time>
      </trkpt>
      <trkpt lat="29.10659" lon="-13.54836">
        <ele>78.4</ele>
        <time>2021-07-03 17:37:53</time>
      </trkpt>
      <trkpt lat="29.10662" lon="-13.54834">
        <ele>78.4</ele>
        <time>2021-07-03 17:37:54</time>
      </trkpt>
      <trkpt lat="29.10665" lon="-13.54832">
        <ele>78.4</ele>
        <time>2021-07-03 17:37:55</time>
      </trkpt>
      <trkpt lat="29.10669" lon="-13.5483">
        <ele>78.2</ele>
        <time>2021-07-03 17:37:56</time>
      </trkpt>
      <trkpt lat="29.10672" lon="-13.54828">
        <ele>78</ele>
        <time>2021-07-03 17:37:57</time>
      </trkpt>
      <trkpt lat="29.10676" lon="-13.54826">
        <ele>78</ele>
        <time>2021-07-03 17:37:58</time>
      </trkpt>
      <trkpt lat="29.10681" lon="-13.54824">
        <ele>77.6</ele>
        <time>2021-07-03 17:37:59</time>
      </trkpt>
      <trkpt lat="29.10685" lon="-13.54822">
        <ele>77.6</ele>
        <time>2021-07-03 17:38:00</time>
      </trkpt>
      <trkpt lat="29.1069" lon="-13.54821">
        <ele>77.2</ele>
        <time>2021-07-03 17:38:01</time>
      </trkpt>
      <trkpt lat="29.10694" lon="-13.54819">
        <ele>76.8</ele>
        <time>2021-07-03 17:38:02</time>
      </trkpt>
      <trkpt lat="29.10698" lon="-13.54817">
        <ele>76.6</ele>
        <time>2021-07-03 17:38:03</time>
      </trkpt>
      <trkpt lat="29.10701" lon="-13.54815">
        <ele>76.6</ele>
        <time>2021-07-03 17:38:04</time>
      </trkpt>
      <trkpt lat="29.10705" lon="-13.54813">
        <ele>76.6</ele>
        <time>2021-07-03 17:38:05</time>
      </trkpt>
      <trkpt lat="29.10708" lon="-13.54812">
        <ele>76.6</ele>
        <time>2021-07-03 17:38:06</time>
      </trkpt>
      <trkpt lat="29.10711" lon="-13.5481">
        <ele>76.6</ele>
        <time>2021-07-03 17:38:07</time>
      </trkpt>
      <trkpt lat="29.10714" lon="-13.54808">
        <ele>76.6</ele>
        <time>2021-07-03 17:38:08</time>
      </trkpt>
      <trkpt lat="29.10718" lon="-13.54806">
        <ele>76.6</ele>
        <time>2021-07-03 17:38:09</time>
      </trkpt>
      <trkpt lat="29.10721" lon="-13.54805">
        <ele>77</ele>
        <time>2021-07-03 17:38:10</time>
      </trkpt>
      <trkpt lat="29.10724" lon="-13.54803">
        <ele>77</ele>
        <time>2021-07-03 17:38:11</time>
      </trkpt>
      <trkpt lat="29.10727" lon="-13.54801">
        <ele>77.2</ele>
        <time>2021-07-03 17:38:12</time>
      </trkpt>
      <trkpt lat="29.1073" lon="-13.54799">
        <ele>77.2</ele>
        <time>2021-07-03 17:38:13</time>
      </trkpt>
      <trkpt lat="29.10734" lon="-13.54797">
        <ele>77.4</ele>
        <time>2021-07-03 17:38:14</time>
      </trkpt>
      <trkpt lat="29.10737" lon="-13.54795">
        <ele>77.4</ele>
        <time>2021-07-03 17:38:15</time>
      </trkpt>
      <trkpt lat="29.10741" lon="-13.54793">
        <ele>77.4</ele>
        <time>2021-07-03 17:38:16</time>
      </trkpt>
      <trkpt lat="29.10745" lon="-13.54791">
        <ele>77.4</ele>
        <time>2021-07-03 17:38:17</time>
      </trkpt>
      <trkpt lat="29.10749" lon="-13.54789">
        <ele>77.4</ele>
        <time>2021-07-03 17:38:18</time>
      </trkpt>
      <trkpt lat="29.10753" lon="-13.54786">
        <ele>77.2</ele>
        <time>2021-07-03 17:38:19</time>
      </trkpt>
      <trkpt lat="29.10757" lon="-13.54784">
        <ele>77.2</ele>
        <time>2021-07-03 17:38:20</time>
      </trkpt>
      <trkpt lat="29.10762" lon="-13.54782">
        <ele>77</ele>
        <time>2021-07-03 17:38:21</time>
      </trkpt>
      <trkpt lat="29.10766" lon="-13.5478">
        <ele>76.6</ele>
        <time>2021-07-03 17:38:22</time>
      </trkpt>
      <trkpt lat="29.1077" lon="-13.54778">
        <ele>76.6</ele>
        <time>2021-07-03 17:38:23</time>
      </trkpt>
      <trkpt lat="29.10774" lon="-13.54776">
        <ele>76.2</ele>
        <time>2021-07-03 17:38:24</time>
      </trkpt>
      <trkpt lat="29.10777" lon="-13.54774">
        <ele>76.2</ele>
        <time>2021-07-03 17:38:25</time>
      </trkpt>
      <trkpt lat="29.10781" lon="-13.54772">
        <ele>76.2</ele>
        <time>2021-07-03 17:38:26</time>
      </trkpt>
      <trkpt lat="29.10785" lon="-13.5477">
        <ele>76.2</ele>
        <time>2021-07-03 17:38:27</time>
      </trkpt>
      <trkpt lat="29.10788" lon="-13.54768">
        <ele>76.2</ele>
        <time>2021-07-03 17:38:28</time>
      </trkpt>
      <trkpt lat="29.10791" lon="-13.54766">
        <ele>76</ele>
        <time>2021-07-03 17:38:29</time>
      </trkpt>
      <trkpt lat="29.10795" lon="-13.54765">
        <ele>76</ele>
        <time>2021-07-03 17:38:30</time>
      </trkpt>
      <trkpt lat="29.10798" lon="-13.54763">
        <ele>76</ele>
        <time>2021-07-03 17:38:31</time>
      </trkpt>
      <trkpt lat="29.10801" lon="-13.54761">
        <ele>76</ele>
        <time>2021-07-03 17:38:32</time>
      </trkpt>
      <trkpt lat="29.10804" lon="-13.54758">
        <ele>76</ele>
        <time>2021-07-03 17:38:33</time>
      </trkpt>
      <trkpt lat="29.10807" lon="-13.54756">
        <ele>76</ele>
        <time>2021-07-03 17:38:34</time>
      </trkpt>
      <trkpt lat="29.1081" lon="-13.54754">
        <ele>76</ele>
        <time>2021-07-03 17:38:35</time>
      </trkpt>
      <trkpt lat="29.10813" lon="-13.54752">
        <ele>76</ele>
        <time>2021-07-03 17:38:36</time>
      </trkpt>
      <trkpt lat="29.10816" lon="-13.5475">
        <ele>76</ele>
        <time>2021-07-03 17:38:37</time>
      </trkpt>
      <trkpt lat="29.10819" lon="-13.54748">
        <ele>76</ele>
        <time>2021-07-03 17:38:38</time>
      </trkpt>
      <trkpt lat="29.10823" lon="-13.54747">
        <ele>76</ele>
        <time>2021-07-03 17:38:39</time>
      </trkpt>
      <trkpt lat="29.10826" lon="-13.54746">
        <ele>76</ele>
        <time>2021-07-03 17:38:40</time>
      </trkpt>
      <trkpt lat="29.10827" lon="-13.54746">
        <ele>76</ele>
        <time>2021-07-03 17:38:41</time>
      </trkpt>
      <trkpt lat="29.1083" lon="-13.54745">
        <ele>76</ele>
        <time>2021-07-03 17:38:42</time>
      </trkpt>
      <trkpt lat="29.10833" lon="-13.54744">
        <ele>76</ele>
        <time>2021-07-03 17:38:43</time>
      </trkpt>
      <trkpt lat="29.10836" lon="-13.54743">
        <ele>76</ele>
        <time>2021-07-03 17:38:44</time>
      </trkpt>
      <trkpt lat="29.10839" lon="-13.54743">
        <ele>76</ele>
        <time>2021-07-03 17:38:45</time>
      </trkpt>
      <trkpt lat="29.10841" lon="-13.54742">
        <ele>76</ele>
        <time>2021-07-03 17:38:46</time>
      </trkpt>
      <trkpt lat="29.10844" lon="-13.54741">
        <ele>76</ele>
        <time>2021-07-03 17:38:47</time>
      </trkpt>
      <trkpt lat="29.10847" lon="-13.5474">
        <ele>76</ele>
        <time>2021-07-03 17:38:48</time>
      </trkpt>
      <trkpt lat="29.1085" lon="-13.54739">
        <ele>75.8</ele>
        <time>2021-07-03 17:38:49</time>
      </trkpt>
      <trkpt lat="29.10853" lon="-13.54739">
        <ele>75.8</ele>
        <time>2021-07-03 17:38:50</time>
      </trkpt>
      <trkpt lat="29.10856" lon="-13.54739">
        <ele>75.6</ele>
        <time>2021-07-03 17:38:51</time>
      </trkpt>
      <trkpt lat="29.10859" lon="-13.54738">
        <ele>75.6</ele>
        <time>2021-07-03 17:38:52</time>
      </trkpt>
      <trkpt lat="29.10863" lon="-13.54736">
        <ele>75.2</ele>
        <time>2021-07-03 17:38:53</time>
      </trkpt>
      <trkpt lat="29.10866" lon="-13.54734">
        <ele>75.2</ele>
        <time>2021-07-03 17:38:54</time>
      </trkpt>
      <trkpt lat="29.1087" lon="-13.54732">
        <ele>75</ele>
        <time>2021-07-03 17:38:55</time>
      </trkpt>
      <trkpt lat="29.10873" lon="-13.5473">
        <ele>75</ele>
        <time>2021-07-03 17:38:56</time>
      </trkpt>
      <trkpt lat="29.10877" lon="-13.54728">
        <ele>74.6</ele>
        <time>2021-07-03 17:38:57</time>
      </trkpt>
      <trkpt lat="29.1088" lon="-13.54726">
        <ele>74.6</ele>
        <time>2021-07-03 17:38:58</time>
      </trkpt>
      <trkpt lat="29.10884" lon="-13.54724">
        <ele>74.4</ele>
        <time>2021-07-03 17:38:59</time>
      </trkpt>
      <trkpt lat="29.10887" lon="-13.54721">
        <ele>74.4</ele>
        <time>2021-07-03 17:39:00</time>
      </trkpt>
      <trkpt lat="29.10889" lon="-13.54719">
        <ele>74.2</ele>
        <time>2021-07-03 17:39:01</time>
      </trkpt>
      <trkpt lat="29.10892" lon="-13.54716">
        <ele>74.2</ele>
        <time>2021-07-03 17:39:02</time>
      </trkpt>
      <trkpt lat="29.10893" lon="-13.54712">
        <ele>73.8</ele>
        <time>2021-07-03 17:39:03</time>
      </trkpt>
      <trkpt lat="29.10894" lon="-13.54709">
        <ele>73.8</ele>
        <time>2021-07-03 17:39:04</time>
      </trkpt>
      <trkpt lat="29.10896" lon="-13.54705">
        <ele>73.4</ele>
        <time>2021-07-03 17:39:05</time>
      </trkpt>
      <trkpt lat="29.10898" lon="-13.54703">
        <ele>73.2</ele>
        <time>2021-07-03 17:39:06</time>
      </trkpt>
      <trkpt lat="29.109" lon="-13.547">
        <ele>73.2</ele>
        <time>2021-07-03 17:39:07</time>
      </trkpt>
      <trkpt lat="29.10902" lon="-13.54697">
        <ele>72.8</ele>
        <time>2021-07-03 17:39:08</time>
      </trkpt>
      <trkpt lat="29.10905" lon="-13.54694">
        <ele>72.4</ele>
        <time>2021-07-03 17:39:09</time>
      </trkpt>
      <trkpt lat="29.10908" lon="-13.54692">
        <ele>72.4</ele>
        <time>2021-07-03 17:39:10</time>
      </trkpt>
      <trkpt lat="29.10911" lon="-13.54689">
        <ele>72</ele>
        <time>2021-07-03 17:39:11</time>
      </trkpt>
      <trkpt lat="29.10914" lon="-13.54687">
        <ele>72</ele>
        <time>2021-07-03 17:39:12</time>
      </trkpt>
      <trkpt lat="29.10918" lon="-13.54685">
        <ele>71.8</ele>
        <time>2021-07-03 17:39:13</time>
      </trkpt>
      <trkpt lat="29.10921" lon="-13.54683">
        <ele>71.8</ele>
        <time>2021-07-03 17:39:14</time>
      </trkpt>
      <trkpt lat="29.10925" lon="-13.54681">
        <ele>71.8</ele>
        <time>2021-07-03 17:39:15</time>
      </trkpt>
      <trkpt lat="29.10929" lon="-13.54679">
        <ele>71.4</ele>
        <time>2021-07-03 17:39:16</time>
      </trkpt>
      <trkpt lat="29.10933" lon="-13.54679">
        <ele>71.2</ele>
        <time>2021-07-03 17:39:17</time>
      </trkpt>
      <trkpt lat="29.10937" lon="-13.54677">
        <ele>70.8</ele>
        <time>2021-07-03 17:39:18</time>
      </trkpt>
      <trkpt lat="29.10942" lon="-13.54675">
        <ele>70.6</ele>
        <time>2021-07-03 17:39:19</time>
      </trkpt>
      <trkpt lat="29.10946" lon="-13.54673">
        <ele>70.2</ele>
        <time>2021-07-03 17:39:20</time>
      </trkpt>
      <trkpt lat="29.10949" lon="-13.54672">
        <ele>69.8</ele>
        <time>2021-07-03 17:39:21</time>
      </trkpt>
      <trkpt lat="29.10952" lon="-13.5467">
        <ele>69.6</ele>
        <time>2021-07-03 17:39:22</time>
      </trkpt>
      <trkpt lat="29.10955" lon="-13.54669">
        <ele>69.2</ele>
        <time>2021-07-03 17:39:23</time>
      </trkpt>
      <trkpt lat="29.10958" lon="-13.54667">
        <ele>69</ele>
        <time>2021-07-03 17:39:24</time>
      </trkpt>
      <trkpt lat="29.10961" lon="-13.54665">
        <ele>68.4</ele>
        <time>2021-07-03 17:39:25</time>
      </trkpt>
      <trkpt lat="29.10964" lon="-13.54662">
        <ele>68</ele>
        <time>2021-07-03 17:39:26</time>
      </trkpt>
      <trkpt lat="29.10966" lon="-13.5466">
        <ele>67.6</ele>
        <time>2021-07-03 17:39:27</time>
      </trkpt>
      <trkpt lat="29.10969" lon="-13.54658">
        <ele>67.2</ele>
        <time>2021-07-03 17:39:28</time>
      </trkpt>
      <trkpt lat="29.10971" lon="-13.54656">
        <ele>66.8</ele>
        <time>2021-07-03 17:39:29</time>
      </trkpt>
      <trkpt lat="29.10972" lon="-13.54652">
        <ele>66.4</ele>
        <time>2021-07-03 17:39:30</time>
      </trkpt>
      <trkpt lat="29.10972" lon="-13.54647">
        <ele>66.4</ele>
        <time>2021-07-03 17:39:31</time>
      </trkpt>
      <trkpt lat="29.10973" lon="-13.54643">
        <ele>66.2</ele>
        <time>2021-07-03 17:39:32</time>
      </trkpt>
      <trkpt lat="29.10973" lon="-13.54638">
        <ele>66</ele>
        <time>2021-07-03 17:39:33</time>
      </trkpt>
      <trkpt lat="29.10972" lon="-13.54634">
        <ele>65.6</ele>
        <time>2021-07-03 17:39:34</time>
      </trkpt>
      <trkpt lat="29.10973" lon="-13.54629">
        <ele>65.4</ele>
        <time>2021-07-03 17:39:35</time>
      </trkpt>
      <trkpt lat="29.10974" lon="-13.54625">
        <ele>65.4</ele>
        <time>2021-07-03 17:39:36</time>
      </trkpt>
      <trkpt lat="29.10976" lon="-13.5462">
        <ele>65</ele>
        <time>2021-07-03 17:39:37</time>
      </trkpt>
      <trkpt lat="29.10979" lon="-13.54617">
        <ele>65</ele>
        <time>2021-07-03 17:39:38</time>
      </trkpt>
      <trkpt lat="29.10983" lon="-13.54615">
        <ele>64.6</ele>
        <time>2021-07-03 17:39:39</time>
      </trkpt>
      <trkpt lat="29.10988" lon="-13.54614">
        <ele>64.6</ele>
        <time>2021-07-03 17:39:40</time>
      </trkpt>
      <trkpt lat="29.10993" lon="-13.54611">
        <ele>64</ele>
        <time>2021-07-03 17:39:41</time>
      </trkpt>
      <trkpt lat="29.10999" lon="-13.5461">
        <ele>63.8</ele>
        <time>2021-07-03 17:39:42</time>
      </trkpt>
      <trkpt lat="29.11004" lon="-13.54609">
        <ele>63.4</ele>
        <time>2021-07-03 17:39:43</time>
      </trkpt>
      <trkpt lat="29.11009" lon="-13.54606">
        <ele>63</ele>
        <time>2021-07-03 17:39:44</time>
      </trkpt>
      <trkpt lat="29.11013" lon="-13.54604">
        <ele>62.6</ele>
        <time>2021-07-03 17:39:45</time>
      </trkpt>
      <trkpt lat="29.11017" lon="-13.54601">
        <ele>62.2</ele>
        <time>2021-07-03 17:39:46</time>
      </trkpt>
      <trkpt lat="29.11021" lon="-13.54598">
        <ele>61.8</ele>
        <time>2021-07-03 17:39:47</time>
      </trkpt>
      <trkpt lat="29.11024" lon="-13.54595">
        <ele>61.4</ele>
        <time>2021-07-03 17:39:48</time>
      </trkpt>
      <trkpt lat="29.11028" lon="-13.54592">
        <ele>61</ele>
        <time>2021-07-03 17:39:49</time>
      </trkpt>
      <trkpt lat="29.11031" lon="-13.54589">
        <ele>60.8</ele>
        <time>2021-07-03 17:39:50</time>
      </trkpt>
      <trkpt lat="29.11035" lon="-13.54586">
        <ele>60.8</ele>
        <time>2021-07-03 17:39:51</time>
      </trkpt>
      <trkpt lat="29.11037" lon="-13.54582">
        <ele>60.4</ele>
        <time>2021-07-03 17:39:52</time>
      </trkpt>
      <trkpt lat="29.1104" lon="-13.54579">
        <ele>60.4</ele>
        <time>2021-07-03 17:39:53</time>
      </trkpt>
      <trkpt lat="29.11043" lon="-13.54576">
        <ele>60.4</ele>
        <time>2021-07-03 17:39:54</time>
      </trkpt>
      <trkpt lat="29.11044" lon="-13.54573">
        <ele>60.2</ele>
        <time>2021-07-03 17:39:55</time>
      </trkpt>
      <trkpt lat="29.11046" lon="-13.5457">
        <ele>60.2</ele>
        <time>2021-07-03 17:39:56</time>
      </trkpt>
      <trkpt lat="29.11048" lon="-13.54567">
        <ele>60.2</ele>
        <time>2021-07-03 17:39:57</time>
      </trkpt>
      <trkpt lat="29.1105" lon="-13.54564">
        <ele>60.2</ele>
        <time>2021-07-03 17:39:58</time>
      </trkpt>
      <trkpt lat="29.11051" lon="-13.54563">
        <ele>60.2</ele>
        <time>2021-07-03 17:39:59</time>
      </trkpt>
      <trkpt lat="29.11051" lon="-13.54563">
        <ele>60.2</ele>
        <time>2021-07-03 17:40:00</time>
      </trkpt>
      <trkpt lat="29.11051" lon="-13.54563">
        <ele>60.2</ele>
        <time>2021-07-03 17:40:01</time>
      </trkpt>
      <trkpt lat="29.11051" lon="-13.54563">
        <ele>60.2</ele>
        <time>2021-07-03 17:40:02</time>
      </trkpt>
      <trkpt lat="29.11051" lon="-13.54563">
        <ele>60.2</ele>
        <time>2021-07-03 17:40:03</time>
      </trkpt>
      <trkpt lat="29.11052" lon="-13.54561">
        <ele>60.4</ele>
        <time>2021-07-03 17:40:04</time>
      </trkpt>
      <trkpt lat="29.11052" lon="-13.54559">
        <ele>60.4</ele>
        <time>2021-07-03 17:40:05</time>
      </trkpt>
      <trkpt lat="29.11053" lon="-13.54557">
        <ele>60.4</ele>
        <time>2021-07-03 17:40:06</time>
      </trkpt>
      <trkpt lat="29.11055" lon="-13.54555">
        <ele>60.4</ele>
        <time>2021-07-03 17:40:07</time>
      </trkpt>
      <trkpt lat="29.11056" lon="-13.54553">
        <ele>60.4</ele>
        <time>2021-07-03 17:40:08</time>
      </trkpt>
      <trkpt lat="29.11058" lon="-13.5455">
        <ele>60.4</ele>
        <time>2021-07-03 17:40:09</time>
      </trkpt>
      <trkpt lat="29.11059" lon="-13.54548">
        <ele>60.4</ele>
        <time>2021-07-03 17:40:10</time>
      </trkpt>
      <trkpt lat="29.11061" lon="-13.54546">
        <ele>60.2</ele>
        <time>2021-07-03 17:40:11</time>
      </trkpt>
      <trkpt lat="29.11064" lon="-13.54544">
        <ele>59.8</ele>
        <time>2021-07-03 17:40:12</time>
      </trkpt>
      <trkpt lat="29.11068" lon="-13.54542">
        <ele>59.6</ele>
        <time>2021-07-03 17:40:13</time>
      </trkpt>
      <trkpt lat="29.11075" lon="-13.54544">
        <ele>59.2</ele>
        <time>2021-07-03 17:40:14</time>
      </trkpt>
      <trkpt lat="29.1108" lon="-13.54543">
        <ele>59</ele>
        <time>2021-07-03 17:40:15</time>
      </trkpt>
      <trkpt lat="29.11086" lon="-13.54544">
        <ele>58.4</ele>
        <time>2021-07-03 17:40:16</time>
      </trkpt>
      <trkpt lat="29.11092" lon="-13.54545">
        <ele>58</ele>
        <time>2021-07-03 17:40:17</time>
      </trkpt>
      <trkpt lat="29.11099" lon="-13.54545">
        <ele>57.6</ele>
        <time>2021-07-03 17:40:18</time>
      </trkpt>
      <trkpt lat="29.11105" lon="-13.54546">
        <ele>57.4</ele>
        <time>2021-07-03 17:40:19</time>
      </trkpt>
      <trkpt lat="29.11111" lon="-13.54546">
        <ele>57</ele>
        <time>2021-07-03 17:40:20</time>
      </trkpt>
      <trkpt lat="29.11117" lon="-13.54546">
        <ele>56.8</ele>
        <time>2021-07-03 17:40:21</time>
      </trkpt>
      <trkpt lat="29.11122" lon="-13.54547">
        <ele>56.6</ele>
        <time>2021-07-03 17:40:22</time>
      </trkpt>
      <trkpt lat="29.11126" lon="-13.54549">
        <ele>56.4</ele>
        <time>2021-07-03 17:40:23</time>
      </trkpt>
      <trkpt lat="29.1113" lon="-13.54551">
        <ele>56.4</ele>
        <time>2021-07-03 17:40:24</time>
      </trkpt>
      <trkpt lat="29.11133" lon="-13.54554">
        <ele>56</ele>
        <time>2021-07-03 17:40:25</time>
      </trkpt>
      <trkpt lat="29.11135" lon="-13.54558">
        <ele>55.8</ele>
        <time>2021-07-03 17:40:26</time>
      </trkpt>
      <trkpt lat="29.11138" lon="-13.54562">
        <ele>55.4</ele>
        <time>2021-07-03 17:40:27</time>
      </trkpt>
      <trkpt lat="29.1114" lon="-13.54566">
        <ele>54.8</ele>
        <time>2021-07-03 17:40:28</time>
      </trkpt>
      <trkpt lat="29.11142" lon="-13.54571">
        <ele>54.2</ele>
        <time>2021-07-03 17:40:29</time>
      </trkpt>
      <trkpt lat="29.11145" lon="-13.54577">
        <ele>53.4</ele>
        <time>2021-07-03 17:40:30</time>
      </trkpt>
      <trkpt lat="29.11149" lon="-13.54584">
        <ele>53.2</ele>
        <time>2021-07-03 17:40:31</time>
      </trkpt>
      <trkpt lat="29.11152" lon="-13.54591">
        <ele>52.8</ele>
        <time>2021-07-03 17:40:32</time>
      </trkpt>
      <trkpt lat="29.11156" lon="-13.54598">
        <ele>52.4</ele>
        <time>2021-07-03 17:40:33</time>
      </trkpt>
      <trkpt lat="29.1116" lon="-13.54606">
        <ele>51.8</ele>
        <time>2021-07-03 17:40:34</time>
      </trkpt>
      <trkpt lat="29.11164" lon="-13.54615">
        <ele>51.4</ele>
        <time>2021-07-03 17:40:35</time>
      </trkpt>
      <trkpt lat="29.11167" lon="-13.54623">
        <ele>50.8</ele>
        <time>2021-07-03 17:40:36</time>
      </trkpt>
      <trkpt lat="29.11172" lon="-13.54631">
        <ele>50</ele>
        <time>2021-07-03 17:40:37</time>
      </trkpt>
      <trkpt lat="29.11176" lon="-13.5464">
        <ele>49.6</ele>
        <time>2021-07-03 17:40:38</time>
      </trkpt>
      <trkpt lat="29.1118" lon="-13.54649">
        <ele>49</ele>
        <time>2021-07-03 17:40:39</time>
      </trkpt>
      <trkpt lat="29.11184" lon="-13.54657">
        <ele>48.2</ele>
        <time>2021-07-03 17:40:40</time>
      </trkpt>
      <trkpt lat="29.11188" lon="-13.54666">
        <ele>47.6</ele>
        <time>2021-07-03 17:40:41</time>
      </trkpt>
      <trkpt lat="29.11193" lon="-13.54674">
        <ele>46.8</ele>
        <time>2021-07-03 17:40:42</time>
      </trkpt>
      <trkpt lat="29.11197" lon="-13.54682">
        <ele>46</ele>
        <time>2021-07-03 17:40:43</time>
      </trkpt>
      <trkpt lat="29.11201" lon="-13.54691">
        <ele>45.2</ele>
        <time>2021-07-03 17:40:44</time>
      </trkpt>
      <trkpt lat="29.11205" lon="-13.54699">
        <ele>44.6</ele>
        <time>2021-07-03 17:40:45</time>
      </trkpt>
      <trkpt lat="29.11209" lon="-13.54707">
        <ele>43.8</ele>
        <time>2021-07-03 17:40:46</time>
      </trkpt>
      <trkpt lat="29.11213" lon="-13.54714">
        <ele>43</ele>
        <time>2021-07-03 17:40:47</time>
      </trkpt>
      <trkpt lat="29.11217" lon="-13.54722">
        <ele>42.2</ele>
        <time>2021-07-03 17:40:48</time>
      </trkpt>
      <trkpt lat="29.11221" lon="-13.5473">
        <ele>41.6</ele>
        <time>2021-07-03 17:40:49</time>
      </trkpt>
      <trkpt lat="29.11224" lon="-13.54738">
        <ele>41</ele>
        <time>2021-07-03 17:40:50</time>
      </trkpt>
      <trkpt lat="29.11228" lon="-13.54747">
        <ele>40.4</ele>
        <time>2021-07-03 17:40:51</time>
      </trkpt>
      <trkpt lat="29.11232" lon="-13.54756">
        <ele>39.8</ele>
        <time>2021-07-03 17:40:52</time>
      </trkpt>
      <trkpt lat="29.11237" lon="-13.54765">
        <ele>39.2</ele>
        <time>2021-07-03 17:40:53</time>
      </trkpt>
      <trkpt lat="29.11241" lon="-13.54774">
        <ele>38.6</ele>
        <time>2021-07-03 17:40:54</time>
      </trkpt>
      <trkpt lat="29.11246" lon="-13.54784">
        <ele>38.2</ele>
        <time>2021-07-03 17:40:55</time>
      </trkpt>
      <trkpt lat="29.1125" lon="-13.54793">
        <ele>37.6</ele>
        <time>2021-07-03 17:40:56</time>
      </trkpt>
      <trkpt lat="29.11255" lon="-13.54803">
        <ele>37</ele>
        <time>2021-07-03 17:40:57</time>
      </trkpt>
      <trkpt lat="29.1126" lon="-13.54813">
        <ele>36.6</ele>
        <time>2021-07-03 17:40:58</time>
      </trkpt>
      <trkpt lat="29.11264" lon="-13.54822">
        <ele>36.2</ele>
        <time>2021-07-03 17:40:59</time>
      </trkpt>
      <trkpt lat="29.11269" lon="-13.54831">
        <ele>35.8</ele>
        <time>2021-07-03 17:41:00</time>
      </trkpt>
      <trkpt lat="29.11273" lon="-13.5484">
        <ele>35.4</ele>
        <time>2021-07-03 17:41:01</time>
      </trkpt>
      <trkpt lat="29.11278" lon="-13.54849">
        <ele>34.8</ele>
        <time>2021-07-03 17:41:02</time>
      </trkpt>
      <trkpt lat="29.11282" lon="-13.54858">
        <ele>34.6</ele>
        <time>2021-07-03 17:41:03</time>
      </trkpt>
      <trkpt lat="29.11286" lon="-13.54867">
        <ele>34.2</ele>
        <time>2021-07-03 17:41:04</time>
      </trkpt>
      <trkpt lat="29.11291" lon="-13.54876">
        <ele>33.6</ele>
        <time>2021-07-03 17:41:05</time>
      </trkpt>
      <trkpt lat="29.11295" lon="-13.54884">
        <ele>33.2</ele>
        <time>2021-07-03 17:41:06</time>
      </trkpt>
      <trkpt lat="29.113" lon="-13.54893">
        <ele>33</ele>
        <time>2021-07-03 17:41:07</time>
      </trkpt>
      <trkpt lat="29.1132" lon="-13.54936">
        <ele>31.2</ele>
        <time>2021-07-03 17:41:08</time>
      </trkpt>
      <trkpt lat="29.11325" lon="-13.54945">
        <ele>31</ele>
        <time>2021-07-03 17:41:09</time>
      </trkpt>
      <trkpt lat="29.11329" lon="-13.54954">
        <ele>30.6</ele>
        <time>2021-07-03 17:41:10</time>
      </trkpt>
      <trkpt lat="29.11333" lon="-13.54963">
        <ele>30.4</ele>
        <time>2021-07-03 17:41:11</time>
      </trkpt>
      <trkpt lat="29.11338" lon="-13.54972">
        <ele>30</ele>
        <time>2021-07-03 17:41:12</time>
      </trkpt>
      <trkpt lat="29.11342" lon="-13.54981">
        <ele>29.6</ele>
        <time>2021-07-03 17:41:13</time>
      </trkpt>
      <trkpt lat="29.11346" lon="-13.5499">
        <ele>29.2</ele>
        <time>2021-07-03 17:41:14</time>
      </trkpt>
      <trkpt lat="29.11351" lon="-13.54999">
        <ele>28.8</ele>
        <time>2021-07-03 17:41:15</time>
      </trkpt>
      <trkpt lat="29.11355" lon="-13.55008">
        <ele>28.4</ele>
        <time>2021-07-03 17:41:16</time>
      </trkpt>
      <trkpt lat="29.1136" lon="-13.55018">
        <ele>28</ele>
        <time>2021-07-03 17:41:17</time>
      </trkpt>
      <trkpt lat="29.11365" lon="-13.55027">
        <ele>27.6</ele>
        <time>2021-07-03 17:41:18</time>
      </trkpt>
      <trkpt lat="29.11369" lon="-13.55036">
        <ele>27</ele>
        <time>2021-07-03 17:41:19</time>
      </trkpt>
      <trkpt lat="29.11374" lon="-13.55046">
        <ele>26.4</ele>
        <time>2021-07-03 17:41:20</time>
      </trkpt>
      <trkpt lat="29.11379" lon="-13.55055">
        <ele>25.8</ele>
        <time>2021-07-03 17:41:21</time>
      </trkpt>
      <trkpt lat="29.11384" lon="-13.55064">
        <ele>25.2</ele>
        <time>2021-07-03 17:41:22</time>
      </trkpt>
      <trkpt lat="29.11388" lon="-13.55074">
        <ele>24.6</ele>
        <time>2021-07-03 17:42:05</time>
      </trkpt>
      <trkpt lat="29.11402" lon="-13.55103">
        <ele>23</ele>
        <time>2021-07-03 17:42:06</time>
      </trkpt>
      <trkpt lat="29.11407" lon="-13.55112">
        <ele>22.6</ele>
        <time>2021-07-03 17:42:07</time>
      </trkpt>
      <trkpt lat="29.11411" lon="-13.55121">
        <ele>22.2</ele>
        <time>2021-07-03 17:42:08</time>
      </trkpt>
      <trkpt lat="29.11415" lon="-13.5513">
        <ele>21.8</ele>
        <time>2021-07-03 17:42:09</time>
      </trkpt>
      <trkpt lat="29.11419" lon="-13.55139">
        <ele>21.2</ele>
        <time>2021-07-03 17:42:10</time>
      </trkpt>
      <trkpt lat="29.11423" lon="-13.55148">
        <ele>20.6</ele>
        <time>2021-07-03 17:42:11</time>
      </trkpt>
      <trkpt lat="29.11428" lon="-13.55157">
        <ele>20.2</ele>
        <time>2021-07-03 17:42:12</time>
      </trkpt>
      <trkpt lat="29.11432" lon="-13.55166">
        <ele>19.8</ele>
        <time>2021-07-03 17:42:13</time>
      </trkpt>
      <trkpt lat="29.11437" lon="-13.55175">
        <ele>19.4</ele>
        <time>2021-07-03 17:42:14</time>
      </trkpt>
      <trkpt lat="29.11441" lon="-13.55184">
        <ele>19</ele>
        <time>2021-07-03 17:42:15</time>
      </trkpt>
      <trkpt lat="29.11445" lon="-13.55192">
        <ele>18.6</ele>
        <time>2021-07-03 17:42:16</time>
      </trkpt>
      <trkpt lat="29.11449" lon="-13.55201">
        <ele>18.2</ele>
        <time>2021-07-03 17:42:17</time>
      </trkpt>
      <trkpt lat="29.11453" lon="-13.5521">
        <ele>17.8</ele>
        <time>2021-07-03 17:42:18</time>
      </trkpt>
      <trkpt lat="29.11457" lon="-13.55218">
        <ele>17.6</ele>
        <time>2021-07-03 17:42:19</time>
      </trkpt>
      <trkpt lat="29.11461" lon="-13.55226">
        <ele>17.2</ele>
        <time>2021-07-03 17:42:20</time>
      </trkpt>
      <trkpt lat="29.11465" lon="-13.55234">
        <ele>16.8</ele>
        <time>2021-07-03 17:42:21</time>
      </trkpt>
      <trkpt lat="29.11468" lon="-13.55242">
        <ele>16.6</ele>
        <time>2021-07-03 17:42:22</time>
      </trkpt>
      <trkpt lat="29.11472" lon="-13.5525">
        <ele>16.2</ele>
        <time>2021-07-03 17:42:23</time>
      </trkpt>
      <trkpt lat="29.11476" lon="-13.55258">
        <ele>16</ele>
        <time>2021-07-03 17:42:24</time>
      </trkpt>
      <trkpt lat="29.11479" lon="-13.55266">
        <ele>15.6</ele>
        <time>2021-07-03 17:42:25</time>
      </trkpt>
      <trkpt lat="29.11483" lon="-13.55274">
        <ele>15.2</ele>
        <time>2021-07-03 17:42:26</time>
      </trkpt>
      <trkpt lat="29.11487" lon="-13.55282">
        <ele>15</ele>
        <time>2021-07-03 17:42:27</time>
      </trkpt>
      <trkpt lat="29.11492" lon="-13.5529">
        <ele>14.8</ele>
        <time>2021-07-03 17:42:28</time>
      </trkpt>
      <trkpt lat="29.11495" lon="-13.55298">
        <ele>14.6</ele>
        <time>2021-07-03 17:42:29</time>
      </trkpt>
      <trkpt lat="29.11499" lon="-13.55305">
        <ele>14.2</ele>
        <time>2021-07-03 17:42:30</time>
      </trkpt>
      <trkpt lat="29.11502" lon="-13.55313">
        <ele>13.8</ele>
        <time>2021-07-03 17:42:31</time>
      </trkpt>
      <trkpt lat="29.11507" lon="-13.5532">
        <ele>13.6</ele>
        <time>2021-07-03 17:42:32</time>
      </trkpt>
      <trkpt lat="29.11511" lon="-13.55326">
        <ele>13.2</ele>
        <time>2021-07-03 17:42:33</time>
      </trkpt>
      <trkpt lat="29.11515" lon="-13.55331">
        <ele>13.2</ele>
        <time>2021-07-03 17:42:34</time>
      </trkpt>
      <trkpt lat="29.11518" lon="-13.55337">
        <ele>12.8</ele>
        <time>2021-07-03 17:42:35</time>
      </trkpt>
      <trkpt lat="29.1152" lon="-13.55343">
        <ele>12.6</ele>
        <time>2021-07-03 17:42:36</time>
      </trkpt>
      <trkpt lat="29.11522" lon="-13.55349">
        <ele>12.6</ele>
        <time>2021-07-03 17:42:37</time>
      </trkpt>
      <trkpt lat="29.11523" lon="-13.55354">
        <ele>12.4</ele>
        <time>2021-07-03 17:42:38</time>
      </trkpt>
      <trkpt lat="29.11523" lon="-13.55359">
        <ele>12.4</ele>
        <time>2021-07-03 17:42:39</time>
      </trkpt>
      <trkpt lat="29.11523" lon="-13.55364">
        <ele>12.4</ele>
        <time>2021-07-03 17:42:40</time>
      </trkpt>
      <trkpt lat="29.11524" lon="-13.55368">
        <ele>12.4</ele>
        <time>2021-07-03 17:42:41</time>
      </trkpt>
      <trkpt lat="29.11523" lon="-13.55373">
        <ele>12.4</ele>
        <time>2021-07-03 17:42:42</time>
      </trkpt>
      <trkpt lat="29.11523" lon="-13.55378">
        <ele>12.4</ele>
        <time>2021-07-03 17:42:43</time>
      </trkpt>
      <trkpt lat="29.11522" lon="-13.55383">
        <ele>12.4</ele>
        <time>2021-07-03 17:42:44</time>
      </trkpt>
      <trkpt lat="29.11521" lon="-13.55387">
        <ele>12.4</ele>
        <time>2021-07-03 17:42:45</time>
      </trkpt>
      <trkpt lat="29.11521" lon="-13.55392">
        <ele>12.4</ele>
        <time>2021-07-03 17:42:46</time>
      </trkpt>
      <trkpt lat="29.1152" lon="-13.55397">
        <ele>12.4</ele>
        <time>2021-07-03 17:42:47</time>
      </trkpt>
      <trkpt lat="29.11519" lon="-13.55401">
        <ele>12.4</ele>
        <time>2021-07-03 17:42:48</time>
      </trkpt>
      <trkpt lat="29.11519" lon="-13.55406">
        <ele>12.4</ele>
        <time>2021-07-03 17:42:49</time>
      </trkpt>
      <trkpt lat="29.11518" lon="-13.55411">
        <ele>12.2</ele>
        <time>2021-07-03 17:42:50</time>
      </trkpt>
      <trkpt lat="29.11517" lon="-13.55415">
        <ele>12.2</ele>
        <time>2021-07-03 17:42:51</time>
      </trkpt>
      <trkpt lat="29.11517" lon="-13.55419">
        <ele>12.2</ele>
        <time>2021-07-03 17:42:52</time>
      </trkpt>
      <trkpt lat="29.11516" lon="-13.55424">
        <ele>12.2</ele>
        <time>2021-07-03 17:42:53</time>
      </trkpt>
      <trkpt lat="29.11516" lon="-13.55428">
        <ele>12.2</ele>
        <time>2021-07-03 17:42:54</time>
      </trkpt>
      <trkpt lat="29.11515" lon="-13.55433">
        <ele>12.2</ele>
        <time>2021-07-03 17:42:55</time>
      </trkpt>
      <trkpt lat="29.11515" lon="-13.55437">
        <ele>12.2</ele>
        <time>2021-07-03 17:42:56</time>
      </trkpt>
      <trkpt lat="29.11514" lon="-13.55441">
        <ele>12.2</ele>
        <time>2021-07-03 17:42:57</time>
      </trkpt>
      <trkpt lat="29.11514" lon="-13.55446">
        <ele>12</ele>
        <time>2021-07-03 17:42:58</time>
      </trkpt>
      <trkpt lat="29.11513" lon="-13.5545">
        <ele>12</ele>
        <time>2021-07-03 17:42:59</time>
      </trkpt>
      <trkpt lat="29.11512" lon="-13.55454">
        <ele>12</ele>
        <time>2021-07-03 17:43:00</time>
      </trkpt>
      <trkpt lat="29.11512" lon="-13.55458">
        <ele>11.8</ele>
        <time>2021-07-03 17:43:01</time>
      </trkpt>
      <trkpt lat="29.11511" lon="-13.55463">
        <ele>11.8</ele>
        <time>2021-07-03 17:43:02</time>
      </trkpt>
      <trkpt lat="29.11511" lon="-13.55467">
        <ele>11.8</ele>
        <time>2021-07-03 17:43:03</time>
      </trkpt>
      <trkpt lat="29.11511" lon="-13.55472">
        <ele>11.4</ele>
        <time>2021-07-03 17:43:04</time>
      </trkpt>
      <trkpt lat="29.11511" lon="-13.55476">
        <ele>11.4</ele>
        <time>2021-07-03 17:43:05</time>
      </trkpt>
      <trkpt lat="29.1151" lon="-13.5548">
        <ele>11.4</ele>
        <time>2021-07-03 17:43:06</time>
      </trkpt>
      <trkpt lat="29.11509" lon="-13.55485">
        <ele>11.4</ele>
        <time>2021-07-03 17:43:07</time>
      </trkpt>
      <trkpt lat="29.11509" lon="-13.55489">
        <ele>11.4</ele>
        <time>2021-07-03 17:43:08</time>
      </trkpt>
      <trkpt lat="29.11508" lon="-13.55492">
        <ele>11.4</ele>
        <time>2021-07-03 17:43:09</time>
      </trkpt>
      <trkpt lat="29.11508" lon="-13.55496">
        <ele>11.4</ele>
        <time>2021-07-03 17:43:10</time>
      </trkpt>
      <trkpt lat="29.11508" lon="-13.555">
        <ele>11.4</ele>
        <time>2021-07-03 17:43:11</time>
      </trkpt>
      <trkpt lat="29.11507" lon="-13.55504">
        <ele>11.4</ele>
        <time>2021-07-03 17:43:12</time>
      </trkpt>
      <trkpt lat="29.11506" lon="-13.55509">
        <ele>11.4</ele>
        <time>2021-07-03 17:43:13</time>
      </trkpt>
      <trkpt lat="29.11506" lon="-13.55513">
        <ele>11.4</ele>
        <time>2021-07-03 17:43:14</time>
      </trkpt>
      <trkpt lat="29.11505" lon="-13.55517">
        <ele>11.4</ele>
        <time>2021-07-03 17:43:15</time>
      </trkpt>
      <trkpt lat="29.11505" lon="-13.55522">
        <ele>11.4</ele>
        <time>2021-07-03 17:43:16</time>
      </trkpt>
      <trkpt lat="29.11504" lon="-13.55526">
        <ele>11.6</ele>
        <time>2021-07-03 17:43:17</time>
      </trkpt>
      <trkpt lat="29.11504" lon="-13.5553">
        <ele>11.6</ele>
        <time>2021-07-03 17:43:18</time>
      </trkpt>
      <trkpt lat="29.11503" lon="-13.55535">
        <ele>11.6</ele>
        <time>2021-07-03 17:43:19</time>
      </trkpt>
      <trkpt lat="29.11503" lon="-13.55539">
        <ele>11.6</ele>
        <time>2021-07-03 17:43:20</time>
      </trkpt>
      <trkpt lat="29.11502" lon="-13.55543">
        <ele>11.6</ele>
        <time>2021-07-03 17:43:21</time>
      </trkpt>
      <trkpt lat="29.11502" lon="-13.55548">
        <ele>11.6</ele>
        <time>2021-07-03 17:43:22</time>
      </trkpt>
      <trkpt lat="29.11501" lon="-13.55552">
        <ele>11.4</ele>
        <time>2021-07-03 17:43:23</time>
      </trkpt>
      <trkpt lat="29.11501" lon="-13.55557">
        <ele>11.4</ele>
        <time>2021-07-03 17:43:24</time>
      </trkpt>
      <trkpt lat="29.115" lon="-13.55561">
        <ele>11.4</ele>
        <time>2021-07-03 17:43:25</time>
      </trkpt>
      <trkpt lat="29.11499" lon="-13.55565">
        <ele>11.2</ele>
        <time>2021-07-03 17:43:26</time>
      </trkpt>
      <trkpt lat="29.11499" lon="-13.55569">
        <ele>11.2</ele>
        <time>2021-07-03 17:43:27</time>
      </trkpt>
      <trkpt lat="29.11498" lon="-13.55573">
        <ele>11.2</ele>
        <time>2021-07-03 17:43:28</time>
      </trkpt>
      <trkpt lat="29.11498" lon="-13.55578">
        <ele>11.2</ele>
        <time>2021-07-03 17:43:29</time>
      </trkpt>
      <trkpt lat="29.11497" lon="-13.55582">
        <ele>11.2</ele>
        <time>2021-07-03 17:43:30</time>
      </trkpt>
      <trkpt lat="29.11497" lon="-13.55586">
        <ele>11.2</ele>
        <time>2021-07-03 17:43:31</time>
      </trkpt>
      <trkpt lat="29.11496" lon="-13.55591">
        <ele>11.2</ele>
        <time>2021-07-03 17:43:32</time>
      </trkpt>
      <trkpt lat="29.11496" lon="-13.55595">
        <ele>11.2</ele>
        <time>2021-07-03 17:43:33</time>
      </trkpt>
      <trkpt lat="29.11495" lon="-13.556">
        <ele>11.2</ele>
        <time>2021-07-03 17:43:34</time>
      </trkpt>
      <trkpt lat="29.11495" lon="-13.55604">
        <ele>11.4</ele>
        <time>2021-07-03 17:43:35</time>
      </trkpt>
      <trkpt lat="29.11495" lon="-13.55609">
        <ele>11.4</ele>
        <time>2021-07-03 17:43:36</time>
      </trkpt>
      <trkpt lat="29.11494" lon="-13.55613">
        <ele>11.4</ele>
        <time>2021-07-03 17:43:37</time>
      </trkpt>
      <trkpt lat="29.11494" lon="-13.55618">
        <ele>11.4</ele>
        <time>2021-07-03 17:43:38</time>
      </trkpt>
      <trkpt lat="29.11493" lon="-13.55623">
        <ele>11.4</ele>
        <time>2021-07-03 17:43:39</time>
      </trkpt>
      <trkpt lat="29.11492" lon="-13.55627">
        <ele>11.4</ele>
        <time>2021-07-03 17:43:40</time>
      </trkpt>
      <trkpt lat="29.11492" lon="-13.55632">
        <ele>11.4</ele>
        <time>2021-07-03 17:43:41</time>
      </trkpt>
      <trkpt lat="29.11491" lon="-13.55637">
        <ele>11.4</ele>
        <time>2021-07-03 17:43:42</time>
      </trkpt>
      <trkpt lat="29.11491" lon="-13.55642">
        <ele>11.4</ele>
        <time>2021-07-03 17:43:43</time>
      </trkpt>
      <trkpt lat="29.1149" lon="-13.55647">
        <ele>11</ele>
        <time>2021-07-03 17:43:44</time>
      </trkpt>
      <trkpt lat="29.1149" lon="-13.55652">
        <ele>10.8</ele>
        <time>2021-07-03 17:43:45</time>
      </trkpt>
      <trkpt lat="29.1149" lon="-13.55657">
        <ele>10.8</ele>
        <time>2021-07-03 17:43:46</time>
      </trkpt>
      <trkpt lat="29.11489" lon="-13.55662">
        <ele>10.4</ele>
        <time>2021-07-03 17:43:47</time>
      </trkpt>
      <trkpt lat="29.11489" lon="-13.55667">
        <ele>10.4</ele>
        <time>2021-07-03 17:43:48</time>
      </trkpt>
      <trkpt lat="29.11488" lon="-13.55671">
        <ele>10.4</ele>
        <time>2021-07-03 17:43:49</time>
      </trkpt>
      <trkpt lat="29.11488" lon="-13.55676">
        <ele>10.4</ele>
        <time>2021-07-03 17:43:50</time>
      </trkpt>
      <trkpt lat="29.11488" lon="-13.55681">
        <ele>10.4</ele>
        <time>2021-07-03 17:43:51</time>
      </trkpt>
      <trkpt lat="29.11487" lon="-13.55686">
        <ele>10.4</ele>
        <time>2021-07-03 17:43:52</time>
      </trkpt>
      <trkpt lat="29.11487" lon="-13.5569">
        <ele>10.4</ele>
        <time>2021-07-03 17:43:53</time>
      </trkpt>
      <trkpt lat="29.11488" lon="-13.55695">
        <ele>10.4</ele>
        <time>2021-07-03 17:43:54</time>
      </trkpt>
      <trkpt lat="29.11488" lon="-13.557">
        <ele>10.4</ele>
        <time>2021-07-03 17:43:55</time>
      </trkpt>
      <trkpt lat="29.11487" lon="-13.55705">
        <ele>10.4</ele>
        <time>2021-07-03 17:43:56</time>
      </trkpt>
      <trkpt lat="29.11487" lon="-13.55709">
        <ele>10.4</ele>
        <time>2021-07-03 17:43:57</time>
      </trkpt>
      <trkpt lat="29.11487" lon="-13.55714">
        <ele>10.4</ele>
        <time>2021-07-03 17:43:58</time>
      </trkpt>
      <trkpt lat="29.11487" lon="-13.55718">
        <ele>10.4</ele>
        <time>2021-07-03 17:43:59</time>
      </trkpt>
      <trkpt lat="29.11487" lon="-13.55723">
        <ele>10.4</ele>
        <time>2021-07-03 17:44:00</time>
      </trkpt>
      <trkpt lat="29.11487" lon="-13.55727">
        <ele>10.2</ele>
        <time>2021-07-03 17:44:01</time>
      </trkpt>
      <trkpt lat="29.11487" lon="-13.55731">
        <ele>10.2</ele>
        <time>2021-07-03 17:44:02</time>
      </trkpt>
      <trkpt lat="29.11486" lon="-13.55736">
        <ele>10.2</ele>
        <time>2021-07-03 17:44:03</time>
      </trkpt>
      <trkpt lat="29.11486" lon="-13.5574">
        <ele>10.4</ele>
        <time>2021-07-03 17:44:04</time>
      </trkpt>
      <trkpt lat="29.11486" lon="-13.55744">
        <ele>10.4</ele>
        <time>2021-07-03 17:44:05</time>
      </trkpt>
      <trkpt lat="29.11486" lon="-13.55749">
        <ele>10</ele>
        <time>2021-07-03 17:44:06</time>
      </trkpt>
      <trkpt lat="29.11486" lon="-13.55753">
        <ele>10</ele>
        <time>2021-07-03 17:44:07</time>
      </trkpt>
      <trkpt lat="29.11486" lon="-13.55758">
        <ele>9.6</ele>
        <time>2021-07-03 17:44:08</time>
      </trkpt>
      <trkpt lat="29.11487" lon="-13.55762">
        <ele>9.6</ele>
        <time>2021-07-03 17:44:09</time>
      </trkpt>
      <trkpt lat="29.11486" lon="-13.55766">
        <ele>9.4</ele>
        <time>2021-07-03 17:44:10</time>
      </trkpt>
      <trkpt lat="29.11486" lon="-13.5577">
        <ele>9.4</ele>
        <time>2021-07-03 17:44:11</time>
      </trkpt>
      <trkpt lat="29.11486" lon="-13.55774">
        <ele>9.4</ele>
        <time>2021-07-03 17:44:12</time>
      </trkpt>
      <trkpt lat="29.11486" lon="-13.55777">
        <ele>9.4</ele>
        <time>2021-07-03 17:44:13</time>
      </trkpt>
      <trkpt lat="29.11486" lon="-13.55781">
        <ele>9.4</ele>
        <time>2021-07-03 17:44:14</time>
      </trkpt>
      <trkpt lat="29.11486" lon="-13.55784">
        <ele>9.4</ele>
        <time>2021-07-03 17:44:15</time>
      </trkpt>
      <trkpt lat="29.11485" lon="-13.55787">
        <ele>9.4</ele>
        <time>2021-07-03 17:44:16</time>
      </trkpt>
      <trkpt lat="29.11485" lon="-13.5579">
        <ele>9.4</ele>
        <time>2021-07-03 17:44:17</time>
      </trkpt>
      <trkpt lat="29.11485" lon="-13.55793">
        <ele>9.4</ele>
        <time>2021-07-03 17:44:18</time>
      </trkpt>
      <trkpt lat="29.11485" lon="-13.55796">
        <ele>9.4</ele>
        <time>2021-07-03 17:44:19</time>
      </trkpt>
      <trkpt lat="29.11485" lon="-13.55799">
        <ele>9.4</ele>
        <time>2021-07-03 17:44:20</time>
      </trkpt>
      <trkpt lat="29.11485" lon="-13.55802">
        <ele>9.8</ele>
        <time>2021-07-03 17:44:21</time>
      </trkpt>
      <trkpt lat="29.11485" lon="-13.55806">
        <ele>9.8</ele>
        <time>2021-07-03 17:44:22</time>
      </trkpt>
      <trkpt lat="29.11485" lon="-13.55809">
        <ele>10.2</ele>
        <time>2021-07-03 17:44:23</time>
      </trkpt>
      <trkpt lat="29.11486" lon="-13.55812">
        <ele>10.2</ele>
        <time>2021-07-03 17:44:24</time>
      </trkpt>
      <trkpt lat="29.11486" lon="-13.55816">
        <ele>10.2</ele>
        <time>2021-07-03 17:44:25</time>
      </trkpt>
      <trkpt lat="29.11487" lon="-13.55819">
        <ele>10.4</ele>
        <time>2021-07-03 17:44:26</time>
      </trkpt>
      <trkpt lat="29.11486" lon="-13.55822">
        <ele>10.4</ele>
        <time>2021-07-03 17:44:27</time>
      </trkpt>
      <trkpt lat="29.11485" lon="-13.55826">
        <ele>10.4</ele>
        <time>2021-07-03 17:44:28</time>
      </trkpt>
      <trkpt lat="29.11485" lon="-13.55829">
        <ele>10.4</ele>
        <time>2021-07-03 17:44:29</time>
      </trkpt>
      <trkpt lat="29.11485" lon="-13.55833">
        <ele>10.4</ele>
        <time>2021-07-03 17:44:30</time>
      </trkpt>
      <trkpt lat="29.11485" lon="-13.55837">
        <ele>10.4</ele>
        <time>2021-07-03 17:44:31</time>
      </trkpt>
      <trkpt lat="29.11485" lon="-13.55841">
        <ele>10.4</ele>
        <time>2021-07-03 17:44:32</time>
      </trkpt>
      <trkpt lat="29.11485" lon="-13.55844">
        <ele>10.4</ele>
        <time>2021-07-03 17:44:33</time>
      </trkpt>
      <trkpt lat="29.11485" lon="-13.55847">
        <ele>10.2</ele>
        <time>2021-07-03 17:44:34</time>
      </trkpt>
      <trkpt lat="29.11484" lon="-13.55851">
        <ele>10.2</ele>
        <time>2021-07-03 17:44:35</time>
      </trkpt>
      <trkpt lat="29.11484" lon="-13.55855">
        <ele>10.2</ele>
        <time>2021-07-03 17:44:36</time>
      </trkpt>
      <trkpt lat="29.11485" lon="-13.55859">
        <ele>10.2</ele>
        <time>2021-07-03 17:44:37</time>
      </trkpt>
      <trkpt lat="29.11485" lon="-13.55863">
        <ele>10.2</ele>
        <time>2021-07-03 17:44:38</time>
      </trkpt>
      <trkpt lat="29.11484" lon="-13.55866">
        <ele>10.2</ele>
        <time>2021-07-03 17:44:39</time>
      </trkpt>
      <trkpt lat="29.11484" lon="-13.5587">
        <ele>10.2</ele>
        <time>2021-07-03 17:44:40</time>
      </trkpt>
      <trkpt lat="29.11484" lon="-13.55874">
        <ele>10.2</ele>
        <time>2021-07-03 17:44:41</time>
      </trkpt>
      <trkpt lat="29.11484" lon="-13.55878">
        <ele>10</ele>
        <time>2021-07-03 17:44:42</time>
      </trkpt>
      <trkpt lat="29.11483" lon="-13.55882">
        <ele>10</ele>
        <time>2021-07-03 17:44:43</time>
      </trkpt>
      <trkpt lat="29.11483" lon="-13.55885">
        <ele>10</ele>
        <time>2021-07-03 17:44:44</time>
      </trkpt>
      <trkpt lat="29.11482" lon="-13.55888">
        <ele>10</ele>
        <time>2021-07-03 17:44:45</time>
      </trkpt>
      <trkpt lat="29.11482" lon="-13.55891">
        <ele>10</ele>
        <time>2021-07-03 17:44:46</time>
      </trkpt>
      <trkpt lat="29.11482" lon="-13.55894">
        <ele>10</ele>
        <time>2021-07-03 17:44:47</time>
      </trkpt>
      <trkpt lat="29.11482" lon="-13.55897">
        <ele>10</ele>
        <time>2021-07-03 17:44:48</time>
      </trkpt>
      <trkpt lat="29.11481" lon="-13.55901">
        <ele>10</ele>
        <time>2021-07-03 17:44:49</time>
      </trkpt>
      <trkpt lat="29.11481" lon="-13.55904">
        <ele>10</ele>
        <time>2021-07-03 17:44:50</time>
      </trkpt>
      <trkpt lat="29.11481" lon="-13.55907">
        <ele>10.2</ele>
        <time>2021-07-03 17:44:51</time>
      </trkpt>
      <trkpt lat="29.11481" lon="-13.55911">
        <ele>10.2</ele>
        <time>2021-07-03 17:44:52</time>
      </trkpt>
      <trkpt lat="29.11482" lon="-13.55915">
        <ele>10.6</ele>
        <time>2021-07-03 17:44:53</time>
      </trkpt>
      <trkpt lat="29.11482" lon="-13.55919">
        <ele>10.6</ele>
        <time>2021-07-03 17:44:54</time>
      </trkpt>
      <trkpt lat="29.11482" lon="-13.55922">
        <ele>11</ele>
        <time>2021-07-03 17:44:55</time>
      </trkpt>
      <trkpt lat="29.11483" lon="-13.55926">
        <ele>11.2</ele>
        <time>2021-07-03 17:44:56</time>
      </trkpt>
      <trkpt lat="29.11484" lon="-13.55929">
        <ele>11.2</ele>
        <time>2021-07-03 17:44:57</time>
      </trkpt>
      <trkpt lat="29.11485" lon="-13.55932">
        <ele>11.2</ele>
        <time>2021-07-03 17:44:58</time>
      </trkpt>
      <trkpt lat="29.11485" lon="-13.55936">
        <ele>11.2</ele>
        <time>2021-07-03 17:44:59</time>
      </trkpt>
      <trkpt lat="29.11486" lon="-13.5594">
        <ele>11.2</ele>
        <time>2021-07-03 17:45:00</time>
      </trkpt>
      <trkpt lat="29.11487" lon="-13.55943">
        <ele>10.8</ele>
        <time>2021-07-03 17:45:01</time>
      </trkpt>
      <trkpt lat="29.11487" lon="-13.55947">
        <ele>10.8</ele>
        <time>2021-07-03 17:45:02</time>
      </trkpt>
      <trkpt lat="29.11487" lon="-13.55951">
        <ele>10.6</ele>
        <time>2021-07-03 17:45:03</time>
      </trkpt>
      <trkpt lat="29.11488" lon="-13.55955">
        <ele>10.6</ele>
        <time>2021-07-03 17:45:04</time>
      </trkpt>
      <trkpt lat="29.11489" lon="-13.55959">
        <ele>10.6</ele>
        <time>2021-07-03 17:45:05</time>
      </trkpt>
      <trkpt lat="29.1149" lon="-13.55962">
        <ele>10.6</ele>
        <time>2021-07-03 17:45:06</time>
      </trkpt>
      <trkpt lat="29.11491" lon="-13.55966">
        <ele>10.6</ele>
        <time>2021-07-03 17:45:07</time>
      </trkpt>
      <trkpt lat="29.11491" lon="-13.5597">
        <ele>10.6</ele>
        <time>2021-07-03 17:45:08</time>
      </trkpt>
      <trkpt lat="29.11492" lon="-13.55974">
        <ele>10.8</ele>
        <time>2021-07-03 17:45:09</time>
      </trkpt>
      <trkpt lat="29.11493" lon="-13.55978">
        <ele>10.8</ele>
        <time>2021-07-03 17:45:10</time>
      </trkpt>
      <trkpt lat="29.11493" lon="-13.55982">
        <ele>11.2</ele>
        <time>2021-07-03 17:45:11</time>
      </trkpt>
      <trkpt lat="29.11494" lon="-13.55985">
        <ele>11.2</ele>
        <time>2021-07-03 17:45:12</time>
      </trkpt>
      <trkpt lat="29.11494" lon="-13.55989">
        <ele>11.2</ele>
        <time>2021-07-03 17:45:13</time>
      </trkpt>
      <trkpt lat="29.11495" lon="-13.55993">
        <ele>11.2</ele>
        <time>2021-07-03 17:45:14</time>
      </trkpt>
      <trkpt lat="29.11495" lon="-13.55996">
        <ele>11.2</ele>
        <time>2021-07-03 17:45:15</time>
      </trkpt>
      <trkpt lat="29.11496" lon="-13.56">
        <ele>11.2</ele>
        <time>2021-07-03 17:45:16</time>
      </trkpt>
      <trkpt lat="29.11497" lon="-13.56003">
        <ele>11.2</ele>
        <time>2021-07-03 17:45:17</time>
      </trkpt>
      <trkpt lat="29.11497" lon="-13.56006">
        <ele>11.2</ele>
        <time>2021-07-03 17:45:18</time>
      </trkpt>
      <trkpt lat="29.11497" lon="-13.56009">
        <ele>11.2</ele>
        <time>2021-07-03 17:45:19</time>
      </trkpt>
      <trkpt lat="29.11498" lon="-13.56012">
        <ele>10.8</ele>
        <time>2021-07-03 17:45:20</time>
      </trkpt>
      <trkpt lat="29.11498" lon="-13.56015">
        <ele>10.8</ele>
        <time>2021-07-03 17:45:21</time>
      </trkpt>
      <trkpt lat="29.11499" lon="-13.56018">
        <ele>10.6</ele>
        <time>2021-07-03 17:45:22</time>
      </trkpt>
      <trkpt lat="29.11499" lon="-13.5602">
        <ele>10.6</ele>
        <time>2021-07-03 17:45:23</time>
      </trkpt>
      <trkpt lat="29.11499" lon="-13.56022">
        <ele>10.6</ele>
        <time>2021-07-03 17:45:24</time>
      </trkpt>
      <trkpt lat="29.115" lon="-13.56022">
        <ele>10.2</ele>
        <time>2021-07-03 17:45:25</time>
      </trkpt>
      <trkpt lat="29.115" lon="-13.56022">
        <ele>10</ele>
        <time>2021-07-03 17:45:26</time>
      </trkpt>
      <trkpt lat="29.115" lon="-13.56022">
        <ele>10</ele>
        <time>2021-07-03 17:45:27</time>
      </trkpt>
      <trkpt lat="29.115" lon="-13.56021">
        <ele>10</ele>
        <time>2021-07-03 17:45:28</time>
      </trkpt>
      <trkpt lat="29.115" lon="-13.56023">
        <ele>9</ele>
        <time>2021-07-03 17:45:29</time>
      </trkpt>
      <trkpt lat="29.115" lon="-13.56024">
        <ele>9</ele>
        <time>2021-07-03 17:45:30</time>
      </trkpt>
      <trkpt lat="29.115" lon="-13.56024">
        <ele>9</ele>
        <time>2021-07-03 17:45:31</time>
      </trkpt>
      <trkpt lat="29.115" lon="-13.56024">
        <ele>9</ele>
        <time>2021-07-03 17:45:32</time>
      </trkpt>
      <trkpt lat="29.115" lon="-13.56024">
        <ele>9</ele>
        <time>2021-07-03 17:45:33</time>
      </trkpt>
      <trkpt lat="29.11501" lon="-13.56028">
        <ele>9.4</ele>
        <time>2021-07-03 17:45:34</time>
      </trkpt>
      <trkpt lat="29.11502" lon="-13.5603">
        <ele>9.4</ele>
        <time>2021-07-03 17:45:35</time>
      </trkpt>
      <trkpt lat="29.11502" lon="-13.56033">
        <ele>9.6</ele>
        <time>2021-07-03 17:45:36</time>
      </trkpt>
      <trkpt lat="29.11503" lon="-13.56036">
        <ele>9.6</ele>
        <time>2021-07-03 17:45:37</time>
      </trkpt>
      <trkpt lat="29.11503" lon="-13.56038">
        <ele>9.6</ele>
        <time>2021-07-03 17:45:38</time>
      </trkpt>
      <trkpt lat="29.11503" lon="-13.56041">
        <ele>9.6</ele>
        <time>2021-07-03 17:45:39</time>
      </trkpt>
      <trkpt lat="29.11504" lon="-13.56044">
        <ele>9.8</ele>
        <time>2021-07-03 17:45:40</time>
      </trkpt>
      <trkpt lat="29.11504" lon="-13.56046">
        <ele>9.8</ele>
        <time>2021-07-03 17:45:41</time>
      </trkpt>
      <trkpt lat="29.11505" lon="-13.56049">
        <ele>9.8</ele>
        <time>2021-07-03 17:45:42</time>
      </trkpt>
      <trkpt lat="29.11506" lon="-13.56052">
        <ele>9.8</ele>
        <time>2021-07-03 17:45:43</time>
      </trkpt>
      <trkpt lat="29.11506" lon="-13.56055">
        <ele>9.8</ele>
        <time>2021-07-03 17:45:44</time>
      </trkpt>
      <trkpt lat="29.11506" lon="-13.56057">
        <ele>9.8</ele>
        <time>2021-07-03 17:45:45</time>
      </trkpt>
      <trkpt lat="29.11507" lon="-13.56061">
        <ele>9.8</ele>
        <time>2021-07-03 17:45:46</time>
      </trkpt>
      <trkpt lat="29.11507" lon="-13.56065">
        <ele>9.8</ele>
        <time>2021-07-03 17:45:47</time>
      </trkpt>
      <trkpt lat="29.11508" lon="-13.56069">
        <ele>9.8</ele>
        <time>2021-07-03 17:45:48</time>
      </trkpt>
      <trkpt lat="29.11508" lon="-13.56073">
        <ele>9.8</ele>
        <time>2021-07-03 17:45:49</time>
      </trkpt>
      <trkpt lat="29.11509" lon="-13.56077">
        <ele>9.8</ele>
        <time>2021-07-03 17:45:50</time>
      </trkpt>
      <trkpt lat="29.1151" lon="-13.56081">
        <ele>9.8</ele>
        <time>2021-07-03 17:45:51</time>
      </trkpt>
      <trkpt lat="29.11511" lon="-13.56085">
        <ele>9.8</ele>
        <time>2021-07-03 17:45:52</time>
      </trkpt>
      <trkpt lat="29.11511" lon="-13.56089">
        <ele>9.8</ele>
        <time>2021-07-03 17:45:53</time>
      </trkpt>
      <trkpt lat="29.11512" lon="-13.56094">
        <ele>10</ele>
        <time>2021-07-03 17:45:54</time>
      </trkpt>
      <trkpt lat="29.11513" lon="-13.56098">
        <ele>10</ele>
        <time>2021-07-03 17:45:55</time>
      </trkpt>
      <trkpt lat="29.11513" lon="-13.56102">
        <ele>10</ele>
        <time>2021-07-03 17:45:56</time>
      </trkpt>
      <trkpt lat="29.11514" lon="-13.56107">
        <ele>10</ele>
        <time>2021-07-03 17:45:57</time>
      </trkpt>
      <trkpt lat="29.11515" lon="-13.56112">
        <ele>10</ele>
        <time>2021-07-03 17:45:58</time>
      </trkpt>
      <trkpt lat="29.11516" lon="-13.56116">
        <ele>9.8</ele>
        <time>2021-07-03 17:45:59</time>
      </trkpt>
      <trkpt lat="29.11516" lon="-13.56121">
        <ele>9.8</ele>
        <time>2021-07-03 17:46:00</time>
      </trkpt>
      <trkpt lat="29.11517" lon="-13.56126">
        <ele>9.8</ele>
        <time>2021-07-03 17:46:01</time>
      </trkpt>
      <trkpt lat="29.11518" lon="-13.5613">
        <ele>9.8</ele>
        <time>2021-07-03 17:46:02</time>
      </trkpt>
      <trkpt lat="29.11519" lon="-13.56135">
        <ele>9.8</ele>
        <time>2021-07-03 17:46:03</time>
      </trkpt>
      <trkpt lat="29.1152" lon="-13.5614">
        <ele>9.8</ele>
        <time>2021-07-03 17:46:04</time>
      </trkpt>
      <trkpt lat="29.11521" lon="-13.56145">
        <ele>9.8</ele>
        <time>2021-07-03 17:46:05</time>
      </trkpt>
      <trkpt lat="29.11522" lon="-13.56149">
        <ele>9.8</ele>
        <time>2021-07-03 17:46:06</time>
      </trkpt>
      <trkpt lat="29.11522" lon="-13.56154">
        <ele>9.8</ele>
        <time>2021-07-03 17:46:07</time>
      </trkpt>
      <trkpt lat="29.11523" lon="-13.56159">
        <ele>9.8</ele>
        <time>2021-07-03 17:46:08</time>
      </trkpt>
      <trkpt lat="29.11524" lon="-13.56164">
        <ele>9.8</ele>
        <time>2021-07-03 17:46:09</time>
      </trkpt>
      <trkpt lat="29.11525" lon="-13.56169">
        <ele>9.8</ele>
        <time>2021-07-03 17:46:10</time>
      </trkpt>
      <trkpt lat="29.11526" lon="-13.56174">
        <ele>9.8</ele>
        <time>2021-07-03 17:46:11</time>
      </trkpt>
      <trkpt lat="29.11527" lon="-13.56178">
        <ele>9.8</ele>
        <time>2021-07-03 17:46:12</time>
      </trkpt>
      <trkpt lat="29.11527" lon="-13.56183">
        <ele>9.8</ele>
        <time>2021-07-03 17:46:13</time>
      </trkpt>
      <trkpt lat="29.11528" lon="-13.56188">
        <ele>9.8</ele>
        <time>2021-07-03 17:46:14</time>
      </trkpt>
      <trkpt lat="29.11529" lon="-13.56193">
        <ele>9.8</ele>
        <time>2021-07-03 17:46:15</time>
      </trkpt>
      <trkpt lat="29.11531" lon="-13.56198">
        <ele>9.8</ele>
        <time>2021-07-03 17:46:16</time>
      </trkpt>
      <trkpt lat="29.11531" lon="-13.56203">
        <ele>9.8</ele>
        <time>2021-07-03 17:46:17</time>
      </trkpt>
      <trkpt lat="29.11532" lon="-13.56208">
        <ele>9.8</ele>
        <time>2021-07-03 17:46:18</time>
      </trkpt>
      <trkpt lat="29.11533" lon="-13.56213">
        <ele>9.8</ele>
        <time>2021-07-03 17:46:19</time>
      </trkpt>
      <trkpt lat="29.11534" lon="-13.56217">
        <ele>9.8</ele>
        <time>2021-07-03 17:46:20</time>
      </trkpt>
      <trkpt lat="29.11535" lon="-13.56222">
        <ele>9.8</ele>
        <time>2021-07-03 17:46:21</time>
      </trkpt>
      <trkpt lat="29.11537" lon="-13.56226">
        <ele>10</ele>
        <time>2021-07-03 17:46:22</time>
      </trkpt>
      <trkpt lat="29.11538" lon="-13.5623">
        <ele>10</ele>
        <time>2021-07-03 17:46:23</time>
      </trkpt>
      <trkpt lat="29.11539" lon="-13.56235">
        <ele>10</ele>
        <time>2021-07-03 17:46:24</time>
      </trkpt>
      <trkpt lat="29.11541" lon="-13.56239">
        <ele>10</ele>
        <time>2021-07-03 17:46:25</time>
      </trkpt>
      <trkpt lat="29.11542" lon="-13.56243">
        <ele>10</ele>
        <time>2021-07-03 17:46:26</time>
      </trkpt>
      <trkpt lat="29.11544" lon="-13.56248">
        <ele>10</ele>
        <time>2021-07-03 17:46:27</time>
      </trkpt>
      <trkpt lat="29.11546" lon="-13.56252">
        <ele>10</ele>
        <time>2021-07-03 17:46:28</time>
      </trkpt>
      <trkpt lat="29.11547" lon="-13.56256">
        <ele>9.8</ele>
        <time>2021-07-03 17:46:29</time>
      </trkpt>
      <trkpt lat="29.11549" lon="-13.56261">
        <ele>9.8</ele>
        <time>2021-07-03 17:46:30</time>
      </trkpt>
      <trkpt lat="29.11551" lon="-13.56265">
        <ele>9.8</ele>
        <time>2021-07-03 17:46:31</time>
      </trkpt>
      <trkpt lat="29.11553" lon="-13.56269">
        <ele>9.8</ele>
        <time>2021-07-03 17:46:32</time>
      </trkpt>
      <trkpt lat="29.11555" lon="-13.56273">
        <ele>9.8</ele>
        <time>2021-07-03 17:46:33</time>
      </trkpt>
      <trkpt lat="29.11557" lon="-13.56276">
        <ele>9.8</ele>
        <time>2021-07-03 17:46:34</time>
      </trkpt>
      <trkpt lat="29.11559" lon="-13.5628">
        <ele>10</ele>
        <time>2021-07-03 17:46:35</time>
      </trkpt>
      <trkpt lat="29.11562" lon="-13.56284">
        <ele>10</ele>
        <time>2021-07-03 17:46:36</time>
      </trkpt>
      <trkpt lat="29.11564" lon="-13.56287">
        <ele>10</ele>
        <time>2021-07-03 17:46:37</time>
      </trkpt>
      <trkpt lat="29.11567" lon="-13.5629">
        <ele>10</ele>
        <time>2021-07-03 17:46:38</time>
      </trkpt>
      <trkpt lat="29.1157" lon="-13.56293">
        <ele>10</ele>
        <time>2021-07-03 17:46:39</time>
      </trkpt>
      <trkpt lat="29.11573" lon="-13.56296">
        <ele>10.2</ele>
        <time>2021-07-03 17:46:40</time>
      </trkpt>
      <trkpt lat="29.11576" lon="-13.56299">
        <ele>10.2</ele>
        <time>2021-07-03 17:46:41</time>
      </trkpt>
      <trkpt lat="29.11578" lon="-13.56303">
        <ele>10.2</ele>
        <time>2021-07-03 17:46:42</time>
      </trkpt>
      <trkpt lat="29.11581" lon="-13.56306">
        <ele>10.2</ele>
        <time>2021-07-03 17:46:43</time>
      </trkpt>
      <trkpt lat="29.11584" lon="-13.5631">
        <ele>10.6</ele>
        <time>2021-07-03 17:46:44</time>
      </trkpt>
      <trkpt lat="29.11587" lon="-13.56313">
        <ele>10.6</ele>
        <time>2021-07-03 17:46:45</time>
      </trkpt>
      <trkpt lat="29.1159" lon="-13.56316">
        <ele>10.6</ele>
        <time>2021-07-03 17:46:46</time>
      </trkpt>
      <trkpt lat="29.11593" lon="-13.5632">
        <ele>10.6</ele>
        <time>2021-07-03 17:46:47</time>
      </trkpt>
      <trkpt lat="29.11596" lon="-13.56323">
        <ele>10.6</ele>
        <time>2021-07-03 17:46:48</time>
      </trkpt>
      <trkpt lat="29.11599" lon="-13.56326">
        <ele>10.6</ele>
        <time>2021-07-03 17:46:49</time>
      </trkpt>
      <trkpt lat="29.11602" lon="-13.5633">
        <ele>10.6</ele>
        <time>2021-07-03 17:46:50</time>
      </trkpt>
      <trkpt lat="29.11605" lon="-13.56333">
        <ele>10.6</ele>
        <time>2021-07-03 17:46:51</time>
      </trkpt>
      <trkpt lat="29.11608" lon="-13.56336">
        <ele>10.6</ele>
        <time>2021-07-03 17:46:52</time>
      </trkpt>
      <trkpt lat="29.11611" lon="-13.56339">
        <ele>10.6</ele>
        <time>2021-07-03 17:46:53</time>
      </trkpt>
      <trkpt lat="29.11615" lon="-13.56342">
        <ele>10.6</ele>
        <time>2021-07-03 17:47:00</time>
      </trkpt>
      <trkpt lat="29.11618" lon="-13.56345">
        <ele>10.6</ele>
        <time>2021-07-03 17:47:01</time>
      </trkpt>
      <trkpt lat="29.11621" lon="-13.56348">
        <ele>10.6</ele>
        <time>2021-07-03 17:47:02</time>
      </trkpt>
      <trkpt lat="29.11624" lon="-13.56351">
        <ele>10.6</ele>
        <time>2021-07-03 17:47:03</time>
      </trkpt>
      <trkpt lat="29.11627" lon="-13.56354">
        <ele>10.6</ele>
        <time>2021-07-03 17:47:04</time>
      </trkpt>
      <trkpt lat="29.11631" lon="-13.56358">
        <ele>10.6</ele>
        <time>2021-07-03 17:47:11</time>
      </trkpt>
      <trkpt lat="29.11634" lon="-13.56361">
        <ele>10.2</ele>
        <time>2021-07-03 17:47:12</time>
      </trkpt>
      <trkpt lat="29.11637" lon="-13.56364">
        <ele>10.2</ele>
        <time>2021-07-03 17:47:13</time>
      </trkpt>
      <trkpt lat="29.11641" lon="-13.56367">
        <ele>10.2</ele>
        <time>2021-07-03 17:47:14</time>
      </trkpt>
      <trkpt lat="29.11644" lon="-13.5637">
        <ele>10</ele>
        <time>2021-07-03 17:47:15</time>
      </trkpt>
      <trkpt lat="29.11647" lon="-13.56373">
        <ele>10</ele>
        <time>2021-07-03 17:47:16</time>
      </trkpt>
      <trkpt lat="29.1165" lon="-13.56376">
        <ele>10</ele>
        <time>2021-07-03 17:47:17</time>
      </trkpt>
      <trkpt lat="29.11653" lon="-13.56379">
        <ele>10</ele>
        <time>2021-07-03 17:47:18</time>
      </trkpt>
      <trkpt lat="29.11655" lon="-13.56382">
        <ele>10</ele>
        <time>2021-07-03 17:47:19</time>
      </trkpt>
      <trkpt lat="29.11659" lon="-13.56385">
        <ele>10</ele>
        <time>2021-07-03 17:47:20</time>
      </trkpt>
      <trkpt lat="29.11661" lon="-13.56388">
        <ele>10</ele>
        <time>2021-07-03 17:47:21</time>
      </trkpt>
      <trkpt lat="29.11664" lon="-13.56391">
        <ele>10</ele>
        <time>2021-07-03 17:47:22</time>
      </trkpt>
      <trkpt lat="29.11667" lon="-13.56393">
        <ele>10</ele>
        <time>2021-07-03 17:47:23</time>
      </trkpt>
      <trkpt lat="29.1167" lon="-13.56396">
        <ele>10</ele>
        <time>2021-07-03 17:47:24</time>
      </trkpt>
      <trkpt lat="29.11673" lon="-13.56399">
        <ele>10</ele>
        <time>2021-07-03 17:47:25</time>
      </trkpt>
      <trkpt lat="29.11675" lon="-13.56402">
        <ele>10</ele>
        <time>2021-07-03 17:47:26</time>
      </trkpt>
      <trkpt lat="29.11678" lon="-13.56405">
        <ele>10</ele>
        <time>2021-07-03 17:47:27</time>
      </trkpt>
      <trkpt lat="29.11681" lon="-13.56407">
        <ele>10</ele>
        <time>2021-07-03 17:47:28</time>
      </trkpt>
      <trkpt lat="29.11683" lon="-13.5641">
        <ele>10</ele>
        <time>2021-07-03 17:47:29</time>
      </trkpt>
      <trkpt lat="29.11685" lon="-13.56412">
        <ele>10</ele>
        <time>2021-07-03 17:47:30</time>
      </trkpt>
      <trkpt lat="29.11688" lon="-13.56414">
        <ele>10</ele>
        <time>2021-07-03 17:47:31</time>
      </trkpt>
      <trkpt lat="29.1169" lon="-13.56416">
        <ele>10</ele>
        <time>2021-07-03 17:47:32</time>
      </trkpt>
      <trkpt lat="29.11693" lon="-13.56419">
        <ele>10</ele>
        <time>2021-07-03 17:47:33</time>
      </trkpt>
      <trkpt lat="29.11695" lon="-13.56421">
        <ele>9.8</ele>
        <time>2021-07-03 17:47:34</time>
      </trkpt>
      <trkpt lat="29.11698" lon="-13.56424">
        <ele>9.8</ele>
        <time>2021-07-03 17:47:35</time>
      </trkpt>
      <trkpt lat="29.117" lon="-13.56426">
        <ele>9.8</ele>
        <time>2021-07-03 17:47:36</time>
      </trkpt>
      <trkpt lat="29.11703" lon="-13.56428">
        <ele>9.8</ele>
        <time>2021-07-03 17:47:37</time>
      </trkpt>
      <trkpt lat="29.11706" lon="-13.5643">
        <ele>9.8</ele>
        <time>2021-07-03 17:47:38</time>
      </trkpt>
      <trkpt lat="29.11709" lon="-13.56433">
        <ele>9.8</ele>
        <time>2021-07-03 17:47:39</time>
      </trkpt>
      <trkpt lat="29.11712" lon="-13.56435">
        <ele>9.8</ele>
        <time>2021-07-03 17:47:40</time>
      </trkpt>
      <trkpt lat="29.11714" lon="-13.56438">
        <ele>9.8</ele>
        <time>2021-07-03 17:47:41</time>
      </trkpt>
      <trkpt lat="29.11717" lon="-13.5644">
        <ele>9.6</ele>
        <time>2021-07-03 17:47:42</time>
      </trkpt>
      <trkpt lat="29.11719" lon="-13.56443">
        <ele>9.6</ele>
        <time>2021-07-03 17:47:43</time>
      </trkpt>
      <trkpt lat="29.11722" lon="-13.56446">
        <ele>9.6</ele>
        <time>2021-07-03 17:47:44</time>
      </trkpt>
      <trkpt lat="29.11725" lon="-13.56449">
        <ele>9.6</ele>
        <time>2021-07-03 17:47:45</time>
      </trkpt>
      <trkpt lat="29.11727" lon="-13.56451">
        <ele>9.6</ele>
        <time>2021-07-03 17:47:46</time>
      </trkpt>
      <trkpt lat="29.1173" lon="-13.56454">
        <ele>9.4</ele>
        <time>2021-07-03 17:47:47</time>
      </trkpt>
      <trkpt lat="29.11733" lon="-13.56456">
        <ele>9.4</ele>
        <time>2021-07-03 17:47:48</time>
      </trkpt>
      <trkpt lat="29.11735" lon="-13.56459">
        <ele>9.4</ele>
        <time>2021-07-03 17:47:49</time>
      </trkpt>
      <trkpt lat="29.11738" lon="-13.56461">
        <ele>9.4</ele>
        <time>2021-07-03 17:47:50</time>
      </trkpt>
      <trkpt lat="29.11741" lon="-13.56463">
        <ele>9.4</ele>
        <time>2021-07-03 17:47:51</time>
      </trkpt>
      <trkpt lat="29.11743" lon="-13.56465">
        <ele>9.4</ele>
        <time>2021-07-03 17:47:52</time>
      </trkpt>
      <trkpt lat="29.11746" lon="-13.56468">
        <ele>9.4</ele>
        <time>2021-07-03 17:47:53</time>
      </trkpt>
      <trkpt lat="29.11748" lon="-13.5647">
        <ele>9.4</ele>
        <time>2021-07-03 17:47:54</time>
      </trkpt>
      <trkpt lat="29.11751" lon="-13.56473">
        <ele>9.4</ele>
        <time>2021-07-03 17:47:55</time>
      </trkpt>
      <trkpt lat="29.11753" lon="-13.56475">
        <ele>9.4</ele>
        <time>2021-07-03 17:47:56</time>
      </trkpt>
      <trkpt lat="29.11755" lon="-13.56478">
        <ele>9.4</ele>
        <time>2021-07-03 17:47:57</time>
      </trkpt>
      <trkpt lat="29.11757" lon="-13.56481">
        <ele>9.4</ele>
        <time>2021-07-03 17:47:58</time>
      </trkpt>
      <trkpt lat="29.11759" lon="-13.56483">
        <ele>9.6</ele>
        <time>2021-07-03 17:47:59</time>
      </trkpt>
      <trkpt lat="29.11762" lon="-13.56486">
        <ele>9.6</ele>
        <time>2021-07-03 17:48:00</time>
      </trkpt>
      <trkpt lat="29.11764" lon="-13.56489">
        <ele>9.6</ele>
        <time>2021-07-03 17:48:01</time>
      </trkpt>
      <trkpt lat="29.11766" lon="-13.56491">
        <ele>9.6</ele>
        <time>2021-07-03 17:48:02</time>
      </trkpt>
      <trkpt lat="29.11768" lon="-13.56494">
        <ele>10</ele>
        <time>2021-07-03 17:48:03</time>
      </trkpt>
      <trkpt lat="29.11771" lon="-13.56497">
        <ele>10</ele>
        <time>2021-07-03 17:48:04</time>
      </trkpt>
      <trkpt lat="29.11773" lon="-13.56499">
        <ele>10</ele>
        <time>2021-07-03 17:48:05</time>
      </trkpt>
      <trkpt lat="29.11775" lon="-13.56502">
        <ele>10</ele>
        <time>2021-07-03 17:48:06</time>
      </trkpt>
      <trkpt lat="29.11777" lon="-13.56505">
        <ele>10</ele>
        <time>2021-07-03 17:48:07</time>
      </trkpt>
      <trkpt lat="29.1178" lon="-13.56508">
        <ele>10</ele>
        <time>2021-07-03 17:48:08</time>
      </trkpt>
      <trkpt lat="29.11782" lon="-13.56511">
        <ele>10</ele>
        <time>2021-07-03 17:48:09</time>
      </trkpt>
      <trkpt lat="29.11784" lon="-13.56515">
        <ele>10</ele>
        <time>2021-07-03 17:48:10</time>
      </trkpt>
      <trkpt lat="29.11786" lon="-13.56518">
        <ele>10</ele>
        <time>2021-07-03 17:48:11</time>
      </trkpt>
      <trkpt lat="29.11789" lon="-13.56522">
        <ele>10</ele>
        <time>2021-07-03 17:48:12</time>
      </trkpt>
      <trkpt lat="29.11791" lon="-13.56525">
        <ele>10.2</ele>
        <time>2021-07-03 17:48:13</time>
      </trkpt>
      <trkpt lat="29.11793" lon="-13.56529">
        <ele>10.2</ele>
        <time>2021-07-03 17:48:14</time>
      </trkpt>
      <trkpt lat="29.11795" lon="-13.56532">
        <ele>10.2</ele>
        <time>2021-07-03 17:48:15</time>
      </trkpt>
      <trkpt lat="29.11798" lon="-13.56535">
        <ele>10.2</ele>
        <time>2021-07-03 17:48:16</time>
      </trkpt>
      <trkpt lat="29.118" lon="-13.56539">
        <ele>10.2</ele>
        <time>2021-07-03 17:48:17</time>
      </trkpt>
      <trkpt lat="29.11802" lon="-13.56542">
        <ele>10.2</ele>
        <time>2021-07-03 17:48:18</time>
      </trkpt>
      <trkpt lat="29.11805" lon="-13.56546">
        <ele>10.2</ele>
        <time>2021-07-03 17:48:19</time>
      </trkpt>
      <trkpt lat="29.11807" lon="-13.5655">
        <ele>10.2</ele>
        <time>2021-07-03 17:48:20</time>
      </trkpt>
      <trkpt lat="29.11809" lon="-13.56553">
        <ele>10.2</ele>
        <time>2021-07-03 17:48:21</time>
      </trkpt>
      <trkpt lat="29.11811" lon="-13.56557">
        <ele>10.2</ele>
        <time>2021-07-03 17:48:22</time>
      </trkpt>
      <trkpt lat="29.11814" lon="-13.5656">
        <ele>10.4</ele>
        <time>2021-07-03 17:48:23</time>
      </trkpt>
      <trkpt lat="29.11816" lon="-13.56564">
        <ele>10.4</ele>
        <time>2021-07-03 17:48:24</time>
      </trkpt>
      <trkpt lat="29.11818" lon="-13.56567">
        <ele>10.4</ele>
        <time>2021-07-03 17:48:25</time>
      </trkpt>
      <trkpt lat="29.1182" lon="-13.56571">
        <ele>10.4</ele>
        <time>2021-07-03 17:48:26</time>
      </trkpt>
      <trkpt lat="29.11823" lon="-13.56574">
        <ele>10.4</ele>
        <time>2021-07-03 17:48:27</time>
      </trkpt>
      <trkpt lat="29.11825" lon="-13.56578">
        <ele>10.4</ele>
        <time>2021-07-03 17:48:28</time>
      </trkpt>
      <trkpt lat="29.11827" lon="-13.56582">
        <ele>10.4</ele>
        <time>2021-07-03 17:48:29</time>
      </trkpt>
      <trkpt lat="29.1183" lon="-13.56586">
        <ele>10.4</ele>
        <time>2021-07-03 17:48:30</time>
      </trkpt>
      <trkpt lat="29.11832" lon="-13.56589">
        <ele>10.4</ele>
        <time>2021-07-03 17:48:31</time>
      </trkpt>
      <trkpt lat="29.11834" lon="-13.56593">
        <ele>10.4</ele>
        <time>2021-07-03 17:48:32</time>
      </trkpt>
      <trkpt lat="29.11836" lon="-13.56597">
        <ele>10.4</ele>
        <time>2021-07-03 17:48:33</time>
      </trkpt>
      <trkpt lat="29.11839" lon="-13.56601">
        <ele>10.4</ele>
        <time>2021-07-03 17:48:34</time>
      </trkpt>
      <trkpt lat="29.11841" lon="-13.56605">
        <ele>10.4</ele>
        <time>2021-07-03 17:48:35</time>
      </trkpt>
      <trkpt lat="29.11844" lon="-13.56609">
        <ele>10.4</ele>
        <time>2021-07-03 17:48:36</time>
      </trkpt>
      <trkpt lat="29.11846" lon="-13.56613">
        <ele>10.4</ele>
        <time>2021-07-03 17:48:37</time>
      </trkpt>
      <trkpt lat="29.11849" lon="-13.56618">
        <ele>10.4</ele>
        <time>2021-07-03 17:48:38</time>
      </trkpt>
      <trkpt lat="29.11851" lon="-13.56622">
        <ele>10.4</ele>
        <time>2021-07-03 17:48:39</time>
      </trkpt>
      <trkpt lat="29.11854" lon="-13.56625">
        <ele>10.4</ele>
        <time>2021-07-03 17:48:40</time>
      </trkpt>
      <trkpt lat="29.11856" lon="-13.5663">
        <ele>10.4</ele>
        <time>2021-07-03 17:48:41</time>
      </trkpt>
      <trkpt lat="29.11857" lon="-13.56633">
        <ele>10</ele>
        <time>2021-07-03 17:48:42</time>
      </trkpt>
      <trkpt lat="29.1186" lon="-13.56637">
        <ele>9.8</ele>
        <time>2021-07-03 17:48:43</time>
      </trkpt>
      <trkpt lat="29.11862" lon="-13.56641">
        <ele>9.6</ele>
        <time>2021-07-03 17:48:44</time>
      </trkpt>
      <trkpt lat="29.11865" lon="-13.56645">
        <ele>9.4</ele>
        <time>2021-07-03 17:48:45</time>
      </trkpt>
      <trkpt lat="29.11867" lon="-13.56649">
        <ele>9.2</ele>
        <time>2021-07-03 17:48:46</time>
      </trkpt>
      <trkpt lat="29.11869" lon="-13.56653">
        <ele>9.2</ele>
        <time>2021-07-03 17:48:47</time>
      </trkpt>
      <trkpt lat="29.11871" lon="-13.56657">
        <ele>8.8</ele>
        <time>2021-07-03 17:48:48</time>
      </trkpt>
      <trkpt lat="29.11874" lon="-13.56661">
        <ele>8.8</ele>
        <time>2021-07-03 17:48:49</time>
      </trkpt>
      <trkpt lat="29.11876" lon="-13.56666">
        <ele>8.8</ele>
        <time>2021-07-03 17:48:50</time>
      </trkpt>
      <trkpt lat="29.11878" lon="-13.5667">
        <ele>8.6</ele>
        <time>2021-07-03 17:48:51</time>
      </trkpt>
      <trkpt lat="29.1188" lon="-13.56674">
        <ele>8.6</ele>
        <time>2021-07-03 17:48:52</time>
      </trkpt>
      <trkpt lat="29.11882" lon="-13.56678">
        <ele>8.6</ele>
        <time>2021-07-03 17:48:53</time>
      </trkpt>
      <trkpt lat="29.11884" lon="-13.56682">
        <ele>8.6</ele>
        <time>2021-07-03 17:48:54</time>
      </trkpt>
      <trkpt lat="29.11885" lon="-13.56687">
        <ele>8.6</ele>
        <time>2021-07-03 17:48:55</time>
      </trkpt>
      <trkpt lat="29.11887" lon="-13.56692">
        <ele>8.6</ele>
        <time>2021-07-03 17:48:56</time>
      </trkpt>
      <trkpt lat="29.11888" lon="-13.56697">
        <ele>9</ele>
        <time>2021-07-03 17:48:57</time>
      </trkpt>
      <trkpt lat="29.11889" lon="-13.56702">
        <ele>9</ele>
        <time>2021-07-03 17:48:58</time>
      </trkpt>
      <trkpt lat="29.1189" lon="-13.56707">
        <ele>9</ele>
        <time>2021-07-03 17:48:59</time>
      </trkpt>
      <trkpt lat="29.11891" lon="-13.56712">
        <ele>9.2</ele>
        <time>2021-07-03 17:49:00</time>
      </trkpt>
      <trkpt lat="29.11892" lon="-13.56716">
        <ele>9.2</ele>
        <time>2021-07-03 17:49:01</time>
      </trkpt>
      <trkpt lat="29.11893" lon="-13.56721">
        <ele>9.2</ele>
        <time>2021-07-03 17:49:02</time>
      </trkpt>
      <trkpt lat="29.11893" lon="-13.56726">
        <ele>9.2</ele>
        <time>2021-07-03 17:49:03</time>
      </trkpt>
      <trkpt lat="29.11894" lon="-13.56731">
        <ele>9.2</ele>
        <time>2021-07-03 17:49:04</time>
      </trkpt>
      <trkpt lat="29.11895" lon="-13.56735">
        <ele>9.2</ele>
        <time>2021-07-03 17:49:05</time>
      </trkpt>
      <trkpt lat="29.11896" lon="-13.5674">
        <ele>9.2</ele>
        <time>2021-07-03 17:49:06</time>
      </trkpt>
      <trkpt lat="29.11897" lon="-13.56745">
        <ele>9.4</ele>
        <time>2021-07-03 17:49:07</time>
      </trkpt>
      <trkpt lat="29.11897" lon="-13.5675">
        <ele>9.4</ele>
        <time>2021-07-03 17:49:08</time>
      </trkpt>
      <trkpt lat="29.11898" lon="-13.56754">
        <ele>9.4</ele>
        <time>2021-07-03 17:49:09</time>
      </trkpt>
      <trkpt lat="29.11899" lon="-13.56759">
        <ele>9.6</ele>
        <time>2021-07-03 17:49:10</time>
      </trkpt>
      <trkpt lat="29.119" lon="-13.56764">
        <ele>9.6</ele>
        <time>2021-07-03 17:49:11</time>
      </trkpt>
      <trkpt lat="29.11901" lon="-13.56769">
        <ele>10</ele>
        <time>2021-07-03 17:49:12</time>
      </trkpt>
      <trkpt lat="29.11902" lon="-13.56773">
        <ele>10</ele>
        <time>2021-07-03 17:49:13</time>
      </trkpt>
      <trkpt lat="29.11903" lon="-13.56778">
        <ele>10</ele>
        <time>2021-07-03 17:49:14</time>
      </trkpt>
      <trkpt lat="29.11903" lon="-13.56783">
        <ele>10.2</ele>
        <time>2021-07-03 17:49:15</time>
      </trkpt>
      <trkpt lat="29.11904" lon="-13.56788">
        <ele>10.2</ele>
        <time>2021-07-03 17:49:16</time>
      </trkpt>
      <trkpt lat="29.11904" lon="-13.56792">
        <ele>10.2</ele>
        <time>2021-07-03 17:49:17</time>
      </trkpt>
      <trkpt lat="29.11905" lon="-13.56797">
        <ele>10.4</ele>
        <time>2021-07-03 17:49:18</time>
      </trkpt>
      <trkpt lat="29.11906" lon="-13.56802">
        <ele>10.4</ele>
        <time>2021-07-03 17:49:19</time>
      </trkpt>
      <trkpt lat="29.11907" lon="-13.56806">
        <ele>10.4</ele>
        <time>2021-07-03 17:49:20</time>
      </trkpt>
      <trkpt lat="29.11907" lon="-13.56811">
        <ele>10.4</ele>
        <time>2021-07-03 17:49:21</time>
      </trkpt>
      <trkpt lat="29.11908" lon="-13.56816">
        <ele>10.6</ele>
        <time>2021-07-03 17:49:22</time>
      </trkpt>
      <trkpt lat="29.11909" lon="-13.5682">
        <ele>10.6</ele>
        <time>2021-07-03 17:49:23</time>
      </trkpt>
      <trkpt lat="29.1191" lon="-13.56825">
        <ele>10.6</ele>
        <time>2021-07-03 17:49:24</time>
      </trkpt>
      <trkpt lat="29.1191" lon="-13.5683">
        <ele>11</ele>
        <time>2021-07-03 17:49:25</time>
      </trkpt>
      <trkpt lat="29.11911" lon="-13.56835">
        <ele>11</ele>
        <time>2021-07-03 17:49:26</time>
      </trkpt>
      <trkpt lat="29.11912" lon="-13.56839">
        <ele>11.2</ele>
        <time>2021-07-03 17:49:27</time>
      </trkpt>
      <trkpt lat="29.11913" lon="-13.56844">
        <ele>11.2</ele>
        <time>2021-07-03 17:49:28</time>
      </trkpt>
      <trkpt lat="29.11914" lon="-13.56849">
        <ele>11.6</ele>
        <time>2021-07-03 17:49:29</time>
      </trkpt>
      <trkpt lat="29.11914" lon="-13.56854">
        <ele>11.6</ele>
        <time>2021-07-03 17:49:30</time>
      </trkpt>
      <trkpt lat="29.11915" lon="-13.56858">
        <ele>11.8</ele>
        <time>2021-07-03 17:49:31</time>
      </trkpt>
      <trkpt lat="29.11916" lon="-13.56863">
        <ele>11.8</ele>
        <time>2021-07-03 17:49:32</time>
      </trkpt>
      <trkpt lat="29.11917" lon="-13.56868">
        <ele>12.2</ele>
        <time>2021-07-03 17:49:33</time>
      </trkpt>
      <trkpt lat="29.11917" lon="-13.56873">
        <ele>12.2</ele>
        <time>2021-07-03 17:49:34</time>
      </trkpt>
      <trkpt lat="29.11918" lon="-13.56878">
        <ele>12.2</ele>
        <time>2021-07-03 17:49:35</time>
      </trkpt>
      <trkpt lat="29.11919" lon="-13.56883">
        <ele>12.6</ele>
        <time>2021-07-03 17:49:36</time>
      </trkpt>
      <trkpt lat="29.1192" lon="-13.56888">
        <ele>12.6</ele>
        <time>2021-07-03 17:49:37</time>
      </trkpt>
      <trkpt lat="29.1192" lon="-13.56893">
        <ele>12.8</ele>
        <time>2021-07-03 17:49:38</time>
      </trkpt>
      <trkpt lat="29.11921" lon="-13.56898">
        <ele>12.8</ele>
        <time>2021-07-03 17:49:39</time>
      </trkpt>
      <trkpt lat="29.11922" lon="-13.56903">
        <ele>13</ele>
        <time>2021-07-03 17:49:40</time>
      </trkpt>
      <trkpt lat="29.11923" lon="-13.56908">
        <ele>13</ele>
        <time>2021-07-03 17:49:41</time>
      </trkpt>
      <trkpt lat="29.11923" lon="-13.56913">
        <ele>13.4</ele>
        <time>2021-07-03 17:49:42</time>
      </trkpt>
      <trkpt lat="29.11924" lon="-13.56918">
        <ele>13.4</ele>
        <time>2021-07-03 17:49:43</time>
      </trkpt>
      <trkpt lat="29.11924" lon="-13.56923">
        <ele>13.4</ele>
        <time>2021-07-03 17:49:44</time>
      </trkpt>
      <trkpt lat="29.11925" lon="-13.56928">
        <ele>13.4</ele>
        <time>2021-07-03 17:49:45</time>
      </trkpt>
      <trkpt lat="29.11926" lon="-13.56933">
        <ele>13.4</ele>
        <time>2021-07-03 17:49:46</time>
      </trkpt>
      <trkpt lat="29.11927" lon="-13.56938">
        <ele>13.6</ele>
        <time>2021-07-03 17:49:47</time>
      </trkpt>
      <trkpt lat="29.11927" lon="-13.56943">
        <ele>13.6</ele>
        <time>2021-07-03 17:49:48</time>
      </trkpt>
      <trkpt lat="29.11928" lon="-13.56947">
        <ele>14</ele>
        <time>2021-07-03 17:49:49</time>
      </trkpt>
      <trkpt lat="29.11929" lon="-13.56952">
        <ele>14</ele>
        <time>2021-07-03 17:49:50</time>
      </trkpt>
      <trkpt lat="29.1193" lon="-13.56957">
        <ele>14.4</ele>
        <time>2021-07-03 17:49:51</time>
      </trkpt>
      <trkpt lat="29.11931" lon="-13.56962">
        <ele>14.4</ele>
        <time>2021-07-03 17:49:52</time>
      </trkpt>
      <trkpt lat="29.11932" lon="-13.56967">
        <ele>14.6</ele>
        <time>2021-07-03 17:49:53</time>
      </trkpt>
      <trkpt lat="29.11933" lon="-13.56972">
        <ele>14.6</ele>
        <time>2021-07-03 17:49:54</time>
      </trkpt>
      <trkpt lat="29.11934" lon="-13.56977">
        <ele>14.6</ele>
        <time>2021-07-03 17:49:55</time>
      </trkpt>
      <trkpt lat="29.11934" lon="-13.56981">
        <ele>14.6</ele>
        <time>2021-07-03 17:49:56</time>
      </trkpt>
      <trkpt lat="29.11935" lon="-13.56986">
        <ele>14.8</ele>
        <time>2021-07-03 17:49:57</time>
      </trkpt>
      <trkpt lat="29.11936" lon="-13.5699">
        <ele>14.8</ele>
        <time>2021-07-03 17:49:58</time>
      </trkpt>
      <trkpt lat="29.11937" lon="-13.56995">
        <ele>14.8</ele>
        <time>2021-07-03 17:49:59</time>
      </trkpt>
      <trkpt lat="29.11937" lon="-13.57">
        <ele>14.8</ele>
        <time>2021-07-03 17:50:00</time>
      </trkpt>
      <trkpt lat="29.11938" lon="-13.57004">
        <ele>14.6</ele>
        <time>2021-07-03 17:50:01</time>
      </trkpt>
      <trkpt lat="29.11938" lon="-13.57009">
        <ele>14.6</ele>
        <time>2021-07-03 17:50:02</time>
      </trkpt>
      <trkpt lat="29.11939" lon="-13.57014">
        <ele>14.6</ele>
        <time>2021-07-03 17:50:03</time>
      </trkpt>
      <trkpt lat="29.1194" lon="-13.57018">
        <ele>14.6</ele>
        <time>2021-07-03 17:50:04</time>
      </trkpt>
      <trkpt lat="29.11941" lon="-13.57023">
        <ele>14.6</ele>
        <time>2021-07-03 17:50:05</time>
      </trkpt>
      <trkpt lat="29.11942" lon="-13.57027">
        <ele>14.6</ele>
        <time>2021-07-03 17:50:06</time>
      </trkpt>
      <trkpt lat="29.11942" lon="-13.57032">
        <ele>14.6</ele>
        <time>2021-07-03 17:50:07</time>
      </trkpt>
      <trkpt lat="29.11943" lon="-13.57036">
        <ele>14.6</ele>
        <time>2021-07-03 17:50:08</time>
      </trkpt>
      <trkpt lat="29.11944" lon="-13.5704">
        <ele>14.6</ele>
        <time>2021-07-03 17:50:09</time>
      </trkpt>
      <trkpt lat="29.11944" lon="-13.57044">
        <ele>14.6</ele>
        <time>2021-07-03 17:50:10</time>
      </trkpt>
      <trkpt lat="29.11945" lon="-13.57047">
        <ele>14.6</ele>
        <time>2021-07-03 17:50:11</time>
      </trkpt>
      <trkpt lat="29.11945" lon="-13.5705">
        <ele>14.6</ele>
        <time>2021-07-03 17:50:12</time>
      </trkpt>
      <trkpt lat="29.11945" lon="-13.57054">
        <ele>14.6</ele>
        <time>2021-07-03 17:50:13</time>
      </trkpt>
      <trkpt lat="29.11946" lon="-13.57058">
        <ele>14.6</ele>
        <time>2021-07-03 17:50:14</time>
      </trkpt>
      <trkpt lat="29.11946" lon="-13.57061">
        <ele>14.4</ele>
        <time>2021-07-03 17:50:15</time>
      </trkpt>
      <trkpt lat="29.11946" lon="-13.57064">
        <ele>14.4</ele>
        <time>2021-07-03 17:50:16</time>
      </trkpt>
      <trkpt lat="29.11947" lon="-13.57068">
        <ele>14.4</ele>
        <time>2021-07-03 17:50:17</time>
      </trkpt>
      <trkpt lat="29.11947" lon="-13.57071">
        <ele>14.4</ele>
        <time>2021-07-03 17:50:18</time>
      </trkpt>
      <trkpt lat="29.11948" lon="-13.57075">
        <ele>14.4</ele>
        <time>2021-07-03 17:50:19</time>
      </trkpt>
      <trkpt lat="29.11949" lon="-13.5708">
        <ele>14.8</ele>
        <time>2021-07-03 17:50:20</time>
      </trkpt>
      <trkpt lat="29.11949" lon="-13.57084">
        <ele>15</ele>
        <time>2021-07-03 17:50:21</time>
      </trkpt>
      <trkpt lat="29.1195" lon="-13.57088">
        <ele>15</ele>
        <time>2021-07-03 17:50:22</time>
      </trkpt>
      <trkpt lat="29.11951" lon="-13.57093">
        <ele>15</ele>
        <time>2021-07-03 17:50:23</time>
      </trkpt>
      <trkpt lat="29.11952" lon="-13.57098">
        <ele>15</ele>
        <time>2021-07-03 17:50:24</time>
      </trkpt>
      <trkpt lat="29.11953" lon="-13.57102">
        <ele>15</ele>
        <time>2021-07-03 17:50:25</time>
      </trkpt>
      <trkpt lat="29.11954" lon="-13.57107">
        <ele>15</ele>
        <time>2021-07-03 17:50:26</time>
      </trkpt>
      <trkpt lat="29.11955" lon="-13.57112">
        <ele>15</ele>
        <time>2021-07-03 17:50:27</time>
      </trkpt>
      <trkpt lat="29.11956" lon="-13.57117">
        <ele>15</ele>
        <time>2021-07-03 17:50:28</time>
      </trkpt>
      <trkpt lat="29.11957" lon="-13.57122">
        <ele>14.8</ele>
        <time>2021-07-03 17:50:29</time>
      </trkpt>
      <trkpt lat="29.11957" lon="-13.57127">
        <ele>14.8</ele>
        <time>2021-07-03 17:50:30</time>
      </trkpt>
      <trkpt lat="29.11957" lon="-13.57132">
        <ele>14.8</ele>
        <time>2021-07-03 17:50:31</time>
      </trkpt>
      <trkpt lat="29.11957" lon="-13.57137">
        <ele>14.8</ele>
        <time>2021-07-03 17:50:32</time>
      </trkpt>
      <trkpt lat="29.11958" lon="-13.57142">
        <ele>14.8</ele>
        <time>2021-07-03 17:50:33</time>
      </trkpt>
      <trkpt lat="29.11959" lon="-13.57147">
        <ele>14.8</ele>
        <time>2021-07-03 17:50:34</time>
      </trkpt>
      <trkpt lat="29.11959" lon="-13.57152">
        <ele>14.8</ele>
        <time>2021-07-03 17:50:35</time>
      </trkpt>
      <trkpt lat="29.1196" lon="-13.57158">
        <ele>14.8</ele>
        <time>2021-07-03 17:50:36</time>
      </trkpt>
      <trkpt lat="29.11961" lon="-13.57163">
        <ele>14.8</ele>
        <time>2021-07-03 17:50:37</time>
      </trkpt>
      <trkpt lat="29.11962" lon="-13.57168">
        <ele>14.8</ele>
        <time>2021-07-03 17:50:38</time>
      </trkpt>
      <trkpt lat="29.11962" lon="-13.57174">
        <ele>14.8</ele>
        <time>2021-07-03 17:50:39</time>
      </trkpt>
      <trkpt lat="29.11963" lon="-13.57179">
        <ele>14.8</ele>
        <time>2021-07-03 17:50:40</time>
      </trkpt>
      <trkpt lat="29.11964" lon="-13.57184">
        <ele>14.8</ele>
        <time>2021-07-03 17:50:41</time>
      </trkpt>
      <trkpt lat="29.11965" lon="-13.5719">
        <ele>14.8</ele>
        <time>2021-07-03 17:50:42</time>
      </trkpt>
      <trkpt lat="29.11966" lon="-13.57195">
        <ele>14.8</ele>
        <time>2021-07-03 17:50:43</time>
      </trkpt>
      <trkpt lat="29.11967" lon="-13.57201">
        <ele>14.8</ele>
        <time>2021-07-03 17:50:44</time>
      </trkpt>
      <trkpt lat="29.11967" lon="-13.57206">
        <ele>14.8</ele>
        <time>2021-07-03 17:50:45</time>
      </trkpt>
      <trkpt lat="29.11968" lon="-13.57211">
        <ele>14.8</ele>
        <time>2021-07-03 17:50:46</time>
      </trkpt>
      <trkpt lat="29.11969" lon="-13.57216">
        <ele>14.6</ele>
        <time>2021-07-03 17:50:47</time>
      </trkpt>
      <trkpt lat="29.1197" lon="-13.57222">
        <ele>14.6</ele>
        <time>2021-07-03 17:50:48</time>
      </trkpt>
      <trkpt lat="29.11971" lon="-13.57227">
        <ele>14.6</ele>
        <time>2021-07-03 17:50:49</time>
      </trkpt>
      <trkpt lat="29.11971" lon="-13.57232">
        <ele>14.2</ele>
        <time>2021-07-03 17:50:50</time>
      </trkpt>
      <trkpt lat="29.11972" lon="-13.57238">
        <ele>14.2</ele>
        <time>2021-07-03 17:50:51</time>
      </trkpt>
      <trkpt lat="29.11973" lon="-13.57243">
        <ele>14</ele>
        <time>2021-07-03 17:50:52</time>
      </trkpt>
      <trkpt lat="29.11974" lon="-13.57249">
        <ele>14</ele>
        <time>2021-07-03 17:50:53</time>
      </trkpt>
      <trkpt lat="29.11975" lon="-13.57254">
        <ele>13.8</ele>
        <time>2021-07-03 17:50:54</time>
      </trkpt>
      <trkpt lat="29.11977" lon="-13.57259">
        <ele>13.4</ele>
        <time>2021-07-03 17:50:55</time>
      </trkpt>
      <trkpt lat="29.1198" lon="-13.57265">
        <ele>13.4</ele>
        <time>2021-07-03 17:50:56</time>
      </trkpt>
      <trkpt lat="29.11981" lon="-13.5727">
        <ele>13.2</ele>
        <time>2021-07-03 17:50:57</time>
      </trkpt>
      <trkpt lat="29.11982" lon="-13.57277">
        <ele>13.2</ele>
        <time>2021-07-03 17:50:58</time>
      </trkpt>
      <trkpt lat="29.11983" lon="-13.57283">
        <ele>12.8</ele>
        <time>2021-07-03 17:50:59</time>
      </trkpt>
      <trkpt lat="29.11984" lon="-13.5729">
        <ele>12.6</ele>
        <time>2021-07-03 17:51:00</time>
      </trkpt>
      <trkpt lat="29.11985" lon="-13.57297">
        <ele>12.6</ele>
        <time>2021-07-03 17:51:01</time>
      </trkpt>
      <trkpt lat="29.11986" lon="-13.57304">
        <ele>12.2</ele>
        <time>2021-07-03 17:51:02</time>
      </trkpt>
      <trkpt lat="29.11987" lon="-13.5731">
        <ele>12.2</ele>
        <time>2021-07-03 17:51:03</time>
      </trkpt>
      <trkpt lat="29.11988" lon="-13.57317">
        <ele>12</ele>
        <time>2021-07-03 17:51:04</time>
      </trkpt>
      <trkpt lat="29.1199" lon="-13.57323">
        <ele>12</ele>
        <time>2021-07-03 17:51:05</time>
      </trkpt>
      <trkpt lat="29.11991" lon="-13.5733">
        <ele>12</ele>
        <time>2021-07-03 17:51:06</time>
      </trkpt>
      <trkpt lat="29.11993" lon="-13.57337">
        <ele>11.6</ele>
        <time>2021-07-03 17:51:07</time>
      </trkpt>
      <trkpt lat="29.11995" lon="-13.57344">
        <ele>11.6</ele>
        <time>2021-07-03 17:51:08</time>
      </trkpt>
      <trkpt lat="29.11997" lon="-13.5735">
        <ele>11.4</ele>
        <time>2021-07-03 17:51:09</time>
      </trkpt>
      <trkpt lat="29.11998" lon="-13.57356">
        <ele>11.4</ele>
        <time>2021-07-03 17:51:10</time>
      </trkpt>
      <trkpt lat="29.12" lon="-13.57363">
        <ele>11.2</ele>
        <time>2021-07-03 17:51:11</time>
      </trkpt>
      <trkpt lat="29.12002" lon="-13.57369">
        <ele>11.2</ele>
        <time>2021-07-03 17:51:12</time>
      </trkpt>
      <trkpt lat="29.12004" lon="-13.57375">
        <ele>11.2</ele>
        <time>2021-07-03 17:51:13</time>
      </trkpt>
      <trkpt lat="29.12006" lon="-13.57381">
        <ele>10.8</ele>
        <time>2021-07-03 17:51:14</time>
      </trkpt>
      <trkpt lat="29.12008" lon="-13.57387">
        <ele>10.8</ele>
        <time>2021-07-03 17:51:15</time>
      </trkpt>
      <trkpt lat="29.12009" lon="-13.57393">
        <ele>10.8</ele>
        <time>2021-07-03 17:51:16</time>
      </trkpt>
      <trkpt lat="29.12011" lon="-13.57399">
        <ele>10.8</ele>
        <time>2021-07-03 17:51:17</time>
      </trkpt>
      <trkpt lat="29.12013" lon="-13.57405">
        <ele>10.8</ele>
        <time>2021-07-03 17:51:18</time>
      </trkpt>
      <trkpt lat="29.12015" lon="-13.57411">
        <ele>10.8</ele>
        <time>2021-07-03 17:51:19</time>
      </trkpt>
      <trkpt lat="29.12016" lon="-13.57417">
        <ele>10.6</ele>
        <time>2021-07-03 17:51:20</time>
      </trkpt>
      <trkpt lat="29.12018" lon="-13.57423">
        <ele>10.6</ele>
        <time>2021-07-03 17:51:21</time>
      </trkpt>
      <trkpt lat="29.1202" lon="-13.57428">
        <ele>10.6</ele>
        <time>2021-07-03 17:51:22</time>
      </trkpt>
      <trkpt lat="29.12022" lon="-13.57433">
        <ele>10.6</ele>
        <time>2021-07-03 17:51:23</time>
      </trkpt>
      <trkpt lat="29.12024" lon="-13.57438">
        <ele>10.6</ele>
        <time>2021-07-03 17:51:24</time>
      </trkpt>
      <trkpt lat="29.12026" lon="-13.57443">
        <ele>10.6</ele>
        <time>2021-07-03 17:51:25</time>
      </trkpt>
      <trkpt lat="29.12028" lon="-13.57448">
        <ele>10.6</ele>
        <time>2021-07-03 17:51:26</time>
      </trkpt>
      <trkpt lat="29.12031" lon="-13.57453">
        <ele>10.6</ele>
        <time>2021-07-03 17:51:27</time>
      </trkpt>
      <trkpt lat="29.12034" lon="-13.57458">
        <ele>10.6</ele>
        <time>2021-07-03 17:51:28</time>
      </trkpt>
      <trkpt lat="29.12037" lon="-13.57463">
        <ele>10.6</ele>
        <time>2021-07-03 17:51:29</time>
      </trkpt>
      <trkpt lat="29.1204" lon="-13.57468">
        <ele>10.6</ele>
        <time>2021-07-03 17:51:30</time>
      </trkpt>
      <trkpt lat="29.12043" lon="-13.57473">
        <ele>10.6</ele>
        <time>2021-07-03 17:51:31</time>
      </trkpt>
      <trkpt lat="29.12046" lon="-13.57478">
        <ele>10.6</ele>
        <time>2021-07-03 17:51:32</time>
      </trkpt>
      <trkpt lat="29.12049" lon="-13.57483">
        <ele>10.6</ele>
        <time>2021-07-03 17:51:33</time>
      </trkpt>
      <trkpt lat="29.12052" lon="-13.57487">
        <ele>10.6</ele>
        <time>2021-07-03 17:51:34</time>
      </trkpt>
      <trkpt lat="29.12055" lon="-13.57492">
        <ele>10.6</ele>
        <time>2021-07-03 17:51:35</time>
      </trkpt>
      <trkpt lat="29.12058" lon="-13.57496">
        <ele>10.6</ele>
        <time>2021-07-03 17:51:36</time>
      </trkpt>
      <trkpt lat="29.12061" lon="-13.575">
        <ele>10.6</ele>
        <time>2021-07-03 17:51:37</time>
      </trkpt>
      <trkpt lat="29.12064" lon="-13.57503">
        <ele>10.6</ele>
        <time>2021-07-03 17:51:38</time>
      </trkpt>
      <trkpt lat="29.12067" lon="-13.57507">
        <ele>10.6</ele>
        <time>2021-07-03 17:51:39</time>
      </trkpt>
      <trkpt lat="29.1207" lon="-13.57511">
        <ele>11</ele>
        <time>2021-07-03 17:51:40</time>
      </trkpt>
      <trkpt lat="29.12073" lon="-13.57515">
        <ele>11</ele>
        <time>2021-07-03 17:51:41</time>
      </trkpt>
      <trkpt lat="29.12076" lon="-13.57519">
        <ele>11</ele>
        <time>2021-07-03 17:51:42</time>
      </trkpt>
      <trkpt lat="29.12079" lon="-13.57522">
        <ele>11.2</ele>
        <time>2021-07-03 17:51:43</time>
      </trkpt>
      <trkpt lat="29.12082" lon="-13.57525">
        <ele>11.2</ele>
        <time>2021-07-03 17:51:44</time>
      </trkpt>
      <trkpt lat="29.12085" lon="-13.57529">
        <ele>11.2</ele>
        <time>2021-07-03 17:51:45</time>
      </trkpt>
      <trkpt lat="29.12088" lon="-13.57532">
        <ele>11.2</ele>
        <time>2021-07-03 17:51:46</time>
      </trkpt>
      <trkpt lat="29.12091" lon="-13.57535">
        <ele>11.2</ele>
        <time>2021-07-03 17:51:47</time>
      </trkpt>
      <trkpt lat="29.12094" lon="-13.57539">
        <ele>11.6</ele>
        <time>2021-07-03 17:51:48</time>
      </trkpt>
      <trkpt lat="29.12098" lon="-13.57542">
        <ele>11.6</ele>
        <time>2021-07-03 17:51:49</time>
      </trkpt>
      <trkpt lat="29.12101" lon="-13.57545">
        <ele>11.8</ele>
        <time>2021-07-03 17:51:50</time>
      </trkpt>
      <trkpt lat="29.12104" lon="-13.57548">
        <ele>11.8</ele>
        <time>2021-07-03 17:51:51</time>
      </trkpt>
      <trkpt lat="29.12107" lon="-13.57551">
        <ele>11.8</ele>
        <time>2021-07-03 17:51:52</time>
      </trkpt>
      <trkpt lat="29.1211" lon="-13.57554">
        <ele>12</ele>
        <time>2021-07-03 17:51:53</time>
      </trkpt>
      <trkpt lat="29.12113" lon="-13.57557">
        <ele>12</ele>
        <time>2021-07-03 17:51:54</time>
      </trkpt>
      <trkpt lat="29.12116" lon="-13.5756">
        <ele>12</ele>
        <time>2021-07-03 17:51:55</time>
      </trkpt>
      <trkpt lat="29.12119" lon="-13.57562">
        <ele>12.2</ele>
        <time>2021-07-03 17:51:56</time>
      </trkpt>
      <trkpt lat="29.12122" lon="-13.57565">
        <ele>12.2</ele>
        <time>2021-07-03 17:51:57</time>
      </trkpt>
      <trkpt lat="29.12126" lon="-13.57567">
        <ele>12.2</ele>
        <time>2021-07-03 17:51:58</time>
      </trkpt>
      <trkpt lat="29.12129" lon="-13.57569">
        <ele>12.2</ele>
        <time>2021-07-03 17:51:59</time>
      </trkpt>
      <trkpt lat="29.12132" lon="-13.57571">
        <ele>12.4</ele>
        <time>2021-07-03 17:52:00</time>
      </trkpt>
      <trkpt lat="29.12134" lon="-13.57572">
        <ele>12.4</ele>
        <time>2021-07-03 17:52:01</time>
      </trkpt>
      <trkpt lat="29.12137" lon="-13.57574">
        <ele>12.8</ele>
        <time>2021-07-03 17:52:02</time>
      </trkpt>
      <trkpt lat="29.12141" lon="-13.57575">
        <ele>12.8</ele>
        <time>2021-07-03 17:52:03</time>
      </trkpt>
      <trkpt lat="29.12144" lon="-13.57576">
        <ele>13</ele>
        <time>2021-07-03 17:52:04</time>
      </trkpt>
      <trkpt lat="29.12148" lon="-13.57576">
        <ele>13</ele>
        <time>2021-07-03 17:52:05</time>
      </trkpt>
      <trkpt lat="29.12152" lon="-13.57577">
        <ele>13</ele>
        <time>2021-07-03 17:52:06</time>
      </trkpt>
      <trkpt lat="29.12156" lon="-13.57577">
        <ele>13.2</ele>
        <time>2021-07-03 17:52:07</time>
      </trkpt>
      <trkpt lat="29.1216" lon="-13.57577">
        <ele>13.2</ele>
        <time>2021-07-03 17:52:08</time>
      </trkpt>
      <trkpt lat="29.12179" lon="-13.5758">
        <ele>11.8</ele>
        <time>2021-07-03 17:52:09</time>
      </trkpt>
      <trkpt lat="29.12183" lon="-13.57581">
        <ele>12</ele>
        <time>2021-07-03 17:52:10</time>
      </trkpt>
      <trkpt lat="29.12187" lon="-13.57581">
        <ele>12.2</ele>
        <time>2021-07-03 17:52:11</time>
      </trkpt>
      <trkpt lat="29.12191" lon="-13.57582">
        <ele>12.4</ele>
        <time>2021-07-03 17:52:12</time>
      </trkpt>
      <trkpt lat="29.12195" lon="-13.57583">
        <ele>12.4</ele>
        <time>2021-07-03 17:52:13</time>
      </trkpt>
      <trkpt lat="29.12198" lon="-13.57584">
        <ele>12.6</ele>
        <time>2021-07-03 17:52:14</time>
      </trkpt>
      <trkpt lat="29.12202" lon="-13.57584">
        <ele>12.6</ele>
        <time>2021-07-03 17:52:15</time>
      </trkpt>
      <trkpt lat="29.12205" lon="-13.57585">
        <ele>12.6</ele>
        <time>2021-07-03 17:52:16</time>
      </trkpt>
      <trkpt lat="29.12209" lon="-13.57586">
        <ele>12.6</ele>
        <time>2021-07-03 17:52:17</time>
      </trkpt>
      <trkpt lat="29.12212" lon="-13.57586">
        <ele>12.6</ele>
        <time>2021-07-03 17:52:18</time>
      </trkpt>
      <trkpt lat="29.12216" lon="-13.57587">
        <ele>12.6</ele>
        <time>2021-07-03 17:52:19</time>
      </trkpt>
      <trkpt lat="29.12219" lon="-13.57588">
        <ele>12.6</ele>
        <time>2021-07-03 17:52:20</time>
      </trkpt>
      <trkpt lat="29.12222" lon="-13.57589">
        <ele>12.6</ele>
        <time>2021-07-03 17:52:21</time>
      </trkpt>
      <trkpt lat="29.12226" lon="-13.57589">
        <ele>12.4</ele>
        <time>2021-07-03 17:52:22</time>
      </trkpt>
      <trkpt lat="29.12229" lon="-13.5759">
        <ele>12.8</ele>
        <time>2021-07-03 17:52:23</time>
      </trkpt>
      <trkpt lat="29.12233" lon="-13.5759">
        <ele>12.8</ele>
        <time>2021-07-03 17:52:24</time>
      </trkpt>
      <trkpt lat="29.12237" lon="-13.57591">
        <ele>13</ele>
        <time>2021-07-03 17:52:25</time>
      </trkpt>
      <trkpt lat="29.1224" lon="-13.57592">
        <ele>13</ele>
        <time>2021-07-03 17:52:26</time>
      </trkpt>
      <trkpt lat="29.12244" lon="-13.57592">
        <ele>13</ele>
        <time>2021-07-03 17:52:27</time>
      </trkpt>
      <trkpt lat="29.12251" lon="-13.57594">
        <ele>13</ele>
        <time>2021-07-03 17:52:28</time>
      </trkpt>
      <trkpt lat="29.12255" lon="-13.57595">
        <ele>13</ele>
        <time>2021-07-03 17:52:29</time>
      </trkpt>
      <trkpt lat="29.12258" lon="-13.57596">
        <ele>13</ele>
        <time>2021-07-03 17:52:30</time>
      </trkpt>
      <trkpt lat="29.12262" lon="-13.57596">
        <ele>13</ele>
        <time>2021-07-03 17:52:31</time>
      </trkpt>
      <trkpt lat="29.12265" lon="-13.57597">
        <ele>13</ele>
        <time>2021-07-03 17:52:32</time>
      </trkpt>
      <trkpt lat="29.12269" lon="-13.57597">
        <ele>13</ele>
        <time>2021-07-03 17:52:33</time>
      </trkpt>
      <trkpt lat="29.12272" lon="-13.57598">
        <ele>13</ele>
        <time>2021-07-03 17:52:34</time>
      </trkpt>
      <trkpt lat="29.12276" lon="-13.57598">
        <ele>13</ele>
        <time>2021-07-03 17:52:35</time>
      </trkpt>
      <trkpt lat="29.1228" lon="-13.57599">
        <ele>12.8</ele>
        <time>2021-07-03 17:52:36</time>
      </trkpt>
      <trkpt lat="29.12288" lon="-13.57601">
        <ele>12.8</ele>
        <time>2021-07-03 17:52:37</time>
      </trkpt>
      <trkpt lat="29.12292" lon="-13.57602">
        <ele>12.8</ele>
        <time>2021-07-03 17:52:38</time>
      </trkpt>
      <trkpt lat="29.12297" lon="-13.57603">
        <ele>12.8</ele>
        <time>2021-07-03 17:52:39</time>
      </trkpt>
      <trkpt lat="29.12301" lon="-13.57604">
        <ele>12.8</ele>
        <time>2021-07-03 17:52:40</time>
      </trkpt>
      <trkpt lat="29.12305" lon="-13.57604">
        <ele>12.8</ele>
        <time>2021-07-03 17:52:41</time>
      </trkpt>
      <trkpt lat="29.12309" lon="-13.57605">
        <ele>12.8</ele>
        <time>2021-07-03 17:52:42</time>
      </trkpt>
      <trkpt lat="29.12314" lon="-13.57606">
        <ele>12.8</ele>
        <time>2021-07-03 17:52:43</time>
      </trkpt>
      <trkpt lat="29.12318" lon="-13.57607">
        <ele>12.6</ele>
        <time>2021-07-03 17:52:44</time>
      </trkpt>
      <trkpt lat="29.12323" lon="-13.57608">
        <ele>12.6</ele>
        <time>2021-07-03 17:52:45</time>
      </trkpt>
      <trkpt lat="29.12328" lon="-13.57608">
        <ele>12.4</ele>
        <time>2021-07-03 17:52:46</time>
      </trkpt>
      <trkpt lat="29.12332" lon="-13.57609">
        <ele>12.4</ele>
        <time>2021-07-03 17:52:47</time>
      </trkpt>
      <trkpt lat="29.12337" lon="-13.5761">
        <ele>12</ele>
        <time>2021-07-03 17:52:48</time>
      </trkpt>
      <trkpt lat="29.12342" lon="-13.57611">
        <ele>12</ele>
        <time>2021-07-03 17:52:49</time>
      </trkpt>
      <trkpt lat="29.12347" lon="-13.57612">
        <ele>12</ele>
        <time>2021-07-03 17:52:50</time>
      </trkpt>
      <trkpt lat="29.12351" lon="-13.57613">
        <ele>12</ele>
        <time>2021-07-03 17:52:51</time>
      </trkpt>
      <trkpt lat="29.12356" lon="-13.57614">
        <ele>11.8</ele>
        <time>2021-07-03 17:52:52</time>
      </trkpt>
      <trkpt lat="29.12361" lon="-13.57615">
        <ele>11.8</ele>
        <time>2021-07-03 17:52:53</time>
      </trkpt>
      <trkpt lat="29.12365" lon="-13.57616">
        <ele>11.8</ele>
        <time>2021-07-03 17:52:54</time>
      </trkpt>
      <trkpt lat="29.12369" lon="-13.57617">
        <ele>11.6</ele>
        <time>2021-07-03 17:52:55</time>
      </trkpt>
      <trkpt lat="29.12374" lon="-13.57618">
        <ele>11.6</ele>
        <time>2021-07-03 17:52:56</time>
      </trkpt>
      <trkpt lat="29.12378" lon="-13.57619">
        <ele>11.2</ele>
        <time>2021-07-03 17:52:57</time>
      </trkpt>
      <trkpt lat="29.12382" lon="-13.5762">
        <ele>11</ele>
        <time>2021-07-03 17:52:58</time>
      </trkpt>
      <trkpt lat="29.12387" lon="-13.57622">
        <ele>11</ele>
        <time>2021-07-03 17:52:59</time>
      </trkpt>
      <trkpt lat="29.1239" lon="-13.57622">
        <ele>10.8</ele>
        <time>2021-07-03 17:53:00</time>
      </trkpt>
      <trkpt lat="29.12393" lon="-13.57623">
        <ele>10.8</ele>
        <time>2021-07-03 17:53:01</time>
      </trkpt>
      <trkpt lat="29.12397" lon="-13.57623">
        <ele>10.8</ele>
        <time>2021-07-03 17:53:02</time>
      </trkpt>
      <trkpt lat="29.124" lon="-13.57624">
        <ele>10.8</ele>
        <time>2021-07-03 17:53:03</time>
      </trkpt>
      <trkpt lat="29.12403" lon="-13.57625">
        <ele>10.8</ele>
        <time>2021-07-03 17:53:04</time>
      </trkpt>
      <trkpt lat="29.12407" lon="-13.57628">
        <ele>10.8</ele>
        <time>2021-07-03 17:53:05</time>
      </trkpt>
      <trkpt lat="29.12409" lon="-13.57632">
        <ele>10.8</ele>
        <time>2021-07-03 17:53:06</time>
      </trkpt>
      <trkpt lat="29.12412" lon="-13.57636">
        <ele>10.8</ele>
        <time>2021-07-03 17:53:07</time>
      </trkpt>
      <trkpt lat="29.12411" lon="-13.57641">
        <ele>10.8</ele>
        <time>2021-07-03 17:53:08</time>
      </trkpt>
      <trkpt lat="29.1241" lon="-13.57645">
        <ele>10.6</ele>
        <time>2021-07-03 17:53:09</time>
      </trkpt>
      <trkpt lat="29.12408" lon="-13.5765">
        <ele>10.6</ele>
        <time>2021-07-03 17:53:10</time>
      </trkpt>
      <trkpt lat="29.12407" lon="-13.57654">
        <ele>10.4</ele>
        <time>2021-07-03 17:53:11</time>
      </trkpt>
      <trkpt lat="29.12404" lon="-13.57658">
        <ele>10.4</ele>
        <time>2021-07-03 17:53:12</time>
      </trkpt>
      <trkpt lat="29.12402" lon="-13.57662">
        <ele>10.4</ele>
        <time>2021-07-03 17:53:13</time>
      </trkpt>
      <trkpt lat="29.124" lon="-13.57667">
        <ele>10.4</ele>
        <time>2021-07-03 17:53:14</time>
      </trkpt>
      <trkpt lat="29.12399" lon="-13.57671">
        <ele>10.4</ele>
        <time>2021-07-03 17:53:15</time>
      </trkpt>
      <trkpt lat="29.12398" lon="-13.57675">
        <ele>10.4</ele>
        <time>2021-07-03 17:53:16</time>
      </trkpt>
      <trkpt lat="29.12398" lon="-13.5768">
        <ele>10.4</ele>
        <time>2021-07-03 17:53:17</time>
      </trkpt>
      <trkpt lat="29.12398" lon="-13.57684">
        <ele>10.6</ele>
        <time>2021-07-03 17:53:18</time>
      </trkpt>
      <trkpt lat="29.12398" lon="-13.57689">
        <ele>10.6</ele>
        <time>2021-07-03 17:53:19</time>
      </trkpt>
      <trkpt lat="29.12399" lon="-13.57693">
        <ele>10.8</ele>
        <time>2021-07-03 17:53:20</time>
      </trkpt>
      <trkpt lat="29.124" lon="-13.57698">
        <ele>10.8</ele>
        <time>2021-07-03 17:53:21</time>
      </trkpt>
      <trkpt lat="29.12402" lon="-13.57702">
        <ele>10.8</ele>
        <time>2021-07-03 17:53:22</time>
      </trkpt>
      <trkpt lat="29.12405" lon="-13.57706">
        <ele>11</ele>
        <time>2021-07-03 17:53:23</time>
      </trkpt>
      <trkpt lat="29.12407" lon="-13.57711">
        <ele>11</ele>
        <time>2021-07-03 17:53:24</time>
      </trkpt>
      <trkpt lat="29.1241" lon="-13.57715">
        <ele>11.2</ele>
        <time>2021-07-03 17:53:25</time>
      </trkpt>
      <trkpt lat="29.12413" lon="-13.57719">
        <ele>11.2</ele>
        <time>2021-07-03 17:53:26</time>
      </trkpt>
      <trkpt lat="29.12415" lon="-13.57723">
        <ele>11.2</ele>
        <time>2021-07-03 17:53:27</time>
      </trkpt>
      <trkpt lat="29.12418" lon="-13.57728">
        <ele>11.4</ele>
        <time>2021-07-03 17:53:28</time>
      </trkpt>
      <trkpt lat="29.1242" lon="-13.57732">
        <ele>11.4</ele>
        <time>2021-07-03 17:53:29</time>
      </trkpt>
      <trkpt lat="29.12423" lon="-13.57736">
        <ele>11.4</ele>
        <time>2021-07-03 17:53:30</time>
      </trkpt>
      <trkpt lat="29.12425" lon="-13.57741">
        <ele>11.4</ele>
        <time>2021-07-03 17:53:31</time>
      </trkpt>
      <trkpt lat="29.12428" lon="-13.57745">
        <ele>11.8</ele>
        <time>2021-07-03 17:53:32</time>
      </trkpt>
      <trkpt lat="29.12431" lon="-13.57749">
        <ele>11.8</ele>
        <time>2021-07-03 17:53:33</time>
      </trkpt>
      <trkpt lat="29.12433" lon="-13.57753">
        <ele>11.8</ele>
        <time>2021-07-03 17:53:34</time>
      </trkpt>
      <trkpt lat="29.12435" lon="-13.57757">
        <ele>12</ele>
        <time>2021-07-03 17:53:35</time>
      </trkpt>
      <trkpt lat="29.12438" lon="-13.57761">
        <ele>12</ele>
        <time>2021-07-03 17:53:36</time>
      </trkpt>
      <trkpt lat="29.12441" lon="-13.57766">
        <ele>12</ele>
        <time>2021-07-03 17:53:37</time>
      </trkpt>
      <trkpt lat="29.12443" lon="-13.57769">
        <ele>12</ele>
        <time>2021-07-03 17:53:38</time>
      </trkpt>
      <trkpt lat="29.12445" lon="-13.57774">
        <ele>12.2</ele>
        <time>2021-07-03 17:53:39</time>
      </trkpt>
      <trkpt lat="29.12448" lon="-13.57778">
        <ele>12.2</ele>
        <time>2021-07-03 17:53:40</time>
      </trkpt>
      <trkpt lat="29.1245" lon="-13.57782">
        <ele>12.4</ele>
        <time>2021-07-03 17:53:41</time>
      </trkpt>
      <trkpt lat="29.12452" lon="-13.57785">
        <ele>12.4</ele>
        <time>2021-07-03 17:53:42</time>
      </trkpt>
      <trkpt lat="29.12454" lon="-13.57789">
        <ele>12.6</ele>
        <time>2021-07-03 17:53:43</time>
      </trkpt>
      <trkpt lat="29.12456" lon="-13.57793">
        <ele>12.6</ele>
        <time>2021-07-03 17:53:44</time>
      </trkpt>
      <trkpt lat="29.12459" lon="-13.57796">
        <ele>12.6</ele>
        <time>2021-07-03 17:53:45</time>
      </trkpt>
      <trkpt lat="29.12461" lon="-13.578">
        <ele>12.8</ele>
        <time>2021-07-03 17:53:46</time>
      </trkpt>
      <trkpt lat="29.12463" lon="-13.57804">
        <ele>12.8</ele>
        <time>2021-07-03 17:53:47</time>
      </trkpt>
      <trkpt lat="29.12466" lon="-13.57808">
        <ele>12.8</ele>
        <time>2021-07-03 17:53:48</time>
      </trkpt>
      <trkpt lat="29.12468" lon="-13.57811">
        <ele>13.2</ele>
        <time>2021-07-03 17:53:49</time>
      </trkpt>
      <trkpt lat="29.1247" lon="-13.57815">
        <ele>13.2</ele>
        <time>2021-07-03 17:53:50</time>
      </trkpt>
      <trkpt lat="29.12473" lon="-13.57818">
        <ele>13.2</ele>
        <time>2021-07-03 17:53:51</time>
      </trkpt>
      <trkpt lat="29.12475" lon="-13.57822">
        <ele>13.4</ele>
        <time>2021-07-03 17:53:52</time>
      </trkpt>
      <trkpt lat="29.12477" lon="-13.57826">
        <ele>13.4</ele>
        <time>2021-07-03 17:53:53</time>
      </trkpt>
      <trkpt lat="29.1248" lon="-13.57829">
        <ele>13.6</ele>
        <time>2021-07-03 17:53:54</time>
      </trkpt>
      <trkpt lat="29.12482" lon="-13.57833">
        <ele>13.6</ele>
        <time>2021-07-03 17:53:55</time>
      </trkpt>
      <trkpt lat="29.12484" lon="-13.57836">
        <ele>13.6</ele>
        <time>2021-07-03 17:53:56</time>
      </trkpt>
      <trkpt lat="29.12486" lon="-13.57839">
        <ele>13.4</ele>
        <time>2021-07-03 17:53:57</time>
      </trkpt>
      <trkpt lat="29.12488" lon="-13.57843">
        <ele>13.4</ele>
        <time>2021-07-03 17:53:58</time>
      </trkpt>
      <trkpt lat="29.1249" lon="-13.57846">
        <ele>13.4</ele>
        <time>2021-07-03 17:53:59</time>
      </trkpt>
      <trkpt lat="29.12492" lon="-13.57849">
        <ele>13.2</ele>
        <time>2021-07-03 17:54:00</time>
      </trkpt>
      <trkpt lat="29.12493" lon="-13.57852">
        <ele>13.2</ele>
        <time>2021-07-03 17:54:01</time>
      </trkpt>
      <trkpt lat="29.12495" lon="-13.57855">
        <ele>13.2</ele>
        <time>2021-07-03 17:54:02</time>
      </trkpt>
      <trkpt lat="29.12497" lon="-13.57859">
        <ele>13.2</ele>
        <time>2021-07-03 17:54:03</time>
      </trkpt>
      <trkpt lat="29.12499" lon="-13.57862">
        <ele>13.4</ele>
        <time>2021-07-03 17:54:04</time>
      </trkpt>
      <trkpt lat="29.12501" lon="-13.57865">
        <ele>13.4</ele>
        <time>2021-07-03 17:54:05</time>
      </trkpt>
      <trkpt lat="29.12503" lon="-13.57869">
        <ele>13.6</ele>
        <time>2021-07-03 17:54:06</time>
      </trkpt>
      <trkpt lat="29.12505" lon="-13.57872">
        <ele>13.6</ele>
        <time>2021-07-03 17:54:07</time>
      </trkpt>
      <trkpt lat="29.12507" lon="-13.57876">
        <ele>13.6</ele>
        <time>2021-07-03 17:54:08</time>
      </trkpt>
      <trkpt lat="29.1251" lon="-13.57879">
        <ele>13.8</ele>
        <time>2021-07-03 17:54:09</time>
      </trkpt>
      <trkpt lat="29.12512" lon="-13.57883">
        <ele>13.8</ele>
        <time>2021-07-03 17:54:10</time>
      </trkpt>
      <trkpt lat="29.12514" lon="-13.57886">
        <ele>13.8</ele>
        <time>2021-07-03 17:54:11</time>
      </trkpt>
      <trkpt lat="29.12516" lon="-13.5789">
        <ele>14.2</ele>
        <time>2021-07-03 17:54:12</time>
      </trkpt>
      <trkpt lat="29.12518" lon="-13.57893">
        <ele>14.2</ele>
        <time>2021-07-03 17:54:13</time>
      </trkpt>
      <trkpt lat="29.1252" lon="-13.57896">
        <ele>14.2</ele>
        <time>2021-07-03 17:54:14</time>
      </trkpt>
      <trkpt lat="29.12522" lon="-13.57899">
        <ele>14.4</ele>
        <time>2021-07-03 17:54:15</time>
      </trkpt>
      <trkpt lat="29.12524" lon="-13.57903">
        <ele>14.4</ele>
        <time>2021-07-03 17:54:16</time>
      </trkpt>
      <trkpt lat="29.12526" lon="-13.57906">
        <ele>14.4</ele>
        <time>2021-07-03 17:54:17</time>
      </trkpt>
      <trkpt lat="29.12528" lon="-13.5791">
        <ele>14.6</ele>
        <time>2021-07-03 17:54:18</time>
      </trkpt>
      <trkpt lat="29.1253" lon="-13.57913">
        <ele>14.6</ele>
        <time>2021-07-03 17:54:19</time>
      </trkpt>
      <trkpt lat="29.12533" lon="-13.57917">
        <ele>14.6</ele>
        <time>2021-07-03 17:54:20</time>
      </trkpt>
      <trkpt lat="29.12535" lon="-13.5792">
        <ele>14.6</ele>
        <time>2021-07-03 17:54:21</time>
      </trkpt>
      <trkpt lat="29.12537" lon="-13.57924">
        <ele>14.6</ele>
        <time>2021-07-03 17:54:22</time>
      </trkpt>
      <trkpt lat="29.12539" lon="-13.57927">
        <ele>14.6</ele>
        <time>2021-07-03 17:54:23</time>
      </trkpt>
      <trkpt lat="29.12542" lon="-13.57931">
        <ele>14.6</ele>
        <time>2021-07-03 17:54:24</time>
      </trkpt>
      <trkpt lat="29.12544" lon="-13.57935">
        <ele>14.6</ele>
        <time>2021-07-03 17:54:25</time>
      </trkpt>
      <trkpt lat="29.12546" lon="-13.57939">
        <ele>14.6</ele>
        <time>2021-07-03 17:54:26</time>
      </trkpt>
      <trkpt lat="29.12548" lon="-13.57942">
        <ele>14.6</ele>
        <time>2021-07-03 17:54:27</time>
      </trkpt>
      <trkpt lat="29.12551" lon="-13.57946">
        <ele>14.6</ele>
        <time>2021-07-03 17:54:28</time>
      </trkpt>
      <trkpt lat="29.12553" lon="-13.5795">
        <ele>14.6</ele>
        <time>2021-07-03 17:54:29</time>
      </trkpt>
      <trkpt lat="29.12555" lon="-13.57953">
        <ele>14.6</ele>
        <time>2021-07-03 17:54:30</time>
      </trkpt>
      <trkpt lat="29.12558" lon="-13.57957">
        <ele>14.6</ele>
        <time>2021-07-03 17:54:31</time>
      </trkpt>
      <trkpt lat="29.1256" lon="-13.5796">
        <ele>14.6</ele>
        <time>2021-07-03 17:54:32</time>
      </trkpt>
      <trkpt lat="29.12562" lon="-13.57964">
        <ele>14.6</ele>
        <time>2021-07-03 17:54:33</time>
      </trkpt>
      <trkpt lat="29.12565" lon="-13.57967">
        <ele>14.6</ele>
        <time>2021-07-03 17:54:34</time>
      </trkpt>
      <trkpt lat="29.12568" lon="-13.5797">
        <ele>14.6</ele>
        <time>2021-07-03 17:54:35</time>
      </trkpt>
      <trkpt lat="29.12571" lon="-13.57972">
        <ele>14.8</ele>
        <time>2021-07-03 17:54:36</time>
      </trkpt>
      <trkpt lat="29.12574" lon="-13.57974">
        <ele>14.8</ele>
        <time>2021-07-03 17:54:37</time>
      </trkpt>
      <trkpt lat="29.12577" lon="-13.57976">
        <ele>14.8</ele>
        <time>2021-07-03 17:54:38</time>
      </trkpt>
      <trkpt lat="29.1258" lon="-13.57979">
        <ele>14.8</ele>
        <time>2021-07-03 17:54:39</time>
      </trkpt>
      <trkpt lat="29.12583" lon="-13.57983">
        <ele>14.8</ele>
        <time>2021-07-03 17:54:40</time>
      </trkpt>
      <trkpt lat="29.12585" lon="-13.57986">
        <ele>14.8</ele>
        <time>2021-07-03 17:54:41</time>
      </trkpt>
      <trkpt lat="29.12587" lon="-13.5799">
        <ele>14.8</ele>
        <time>2021-07-03 17:54:42</time>
      </trkpt>
      <trkpt lat="29.12589" lon="-13.57994">
        <ele>14.8</ele>
        <time>2021-07-03 17:54:43</time>
      </trkpt>
      <trkpt lat="29.12591" lon="-13.57997">
        <ele>14.8</ele>
        <time>2021-07-03 17:54:44</time>
      </trkpt>
      <trkpt lat="29.12593" lon="-13.58">
        <ele>15.2</ele>
        <time>2021-07-03 17:54:45</time>
      </trkpt>
      <trkpt lat="29.12595" lon="-13.58004">
        <ele>15.2</ele>
        <time>2021-07-03 17:54:46</time>
      </trkpt>
      <trkpt lat="29.12597" lon="-13.58008">
        <ele>15.4</ele>
        <time>2021-07-03 17:54:47</time>
      </trkpt>
      <trkpt lat="29.12599" lon="-13.58011">
        <ele>15.4</ele>
        <time>2021-07-03 17:54:48</time>
      </trkpt>
      <trkpt lat="29.12602" lon="-13.58015">
        <ele>15.4</ele>
        <time>2021-07-03 17:54:49</time>
      </trkpt>
      <trkpt lat="29.12604" lon="-13.58019">
        <ele>15.6</ele>
        <time>2021-07-03 17:54:50</time>
      </trkpt>
      <trkpt lat="29.12606" lon="-13.58023">
        <ele>15.6</ele>
        <time>2021-07-03 17:54:51</time>
      </trkpt>
      <trkpt lat="29.12608" lon="-13.58026">
        <ele>15.6</ele>
        <time>2021-07-03 17:54:52</time>
      </trkpt>
      <trkpt lat="29.1261" lon="-13.5803">
        <ele>16</ele>
        <time>2021-07-03 17:54:53</time>
      </trkpt>
      <trkpt lat="29.12612" lon="-13.58034">
        <ele>16</ele>
        <time>2021-07-03 17:54:54</time>
      </trkpt>
      <trkpt lat="29.12614" lon="-13.58037">
        <ele>16</ele>
        <time>2021-07-03 17:54:55</time>
      </trkpt>
      <trkpt lat="29.12616" lon="-13.58041">
        <ele>16</ele>
        <time>2021-07-03 17:54:56</time>
      </trkpt>
      <trkpt lat="29.12619" lon="-13.58045">
        <ele>16</ele>
        <time>2021-07-03 17:54:57</time>
      </trkpt>
      <trkpt lat="29.12621" lon="-13.58049">
        <ele>16</ele>
        <time>2021-07-03 17:54:58</time>
      </trkpt>
      <trkpt lat="29.12623" lon="-13.58052">
        <ele>16</ele>
        <time>2021-07-03 17:54:59</time>
      </trkpt>
      <trkpt lat="29.12625" lon="-13.58056">
        <ele>16</ele>
        <time>2021-07-03 17:55:00</time>
      </trkpt>
      <trkpt lat="29.12628" lon="-13.5806">
        <ele>16</ele>
        <time>2021-07-03 17:55:01</time>
      </trkpt>
      <trkpt lat="29.1263" lon="-13.58064">
        <ele>16</ele>
        <time>2021-07-03 17:55:02</time>
      </trkpt>
      <trkpt lat="29.12632" lon="-13.58068">
        <ele>16</ele>
        <time>2021-07-03 17:55:03</time>
      </trkpt>
      <trkpt lat="29.12634" lon="-13.58071">
        <ele>16</ele>
        <time>2021-07-03 17:55:04</time>
      </trkpt>
      <trkpt lat="29.12637" lon="-13.58075">
        <ele>16</ele>
        <time>2021-07-03 17:55:05</time>
      </trkpt>
      <trkpt lat="29.12639" lon="-13.58079">
        <ele>16.2</ele>
        <time>2021-07-03 17:55:06</time>
      </trkpt>
      <trkpt lat="29.12641" lon="-13.58083">
        <ele>16.2</ele>
        <time>2021-07-03 17:55:07</time>
      </trkpt>
      <trkpt lat="29.12643" lon="-13.58086">
        <ele>16.4</ele>
        <time>2021-07-03 17:55:08</time>
      </trkpt>
      <trkpt lat="29.12646" lon="-13.5809">
        <ele>16.4</ele>
        <time>2021-07-03 17:55:09</time>
      </trkpt>
      <trkpt lat="29.12648" lon="-13.58094">
        <ele>16.6</ele>
        <time>2021-07-03 17:55:10</time>
      </trkpt>
      <trkpt lat="29.12651" lon="-13.58097">
        <ele>16.6</ele>
        <time>2021-07-03 17:55:11</time>
      </trkpt>
      <trkpt lat="29.12653" lon="-13.58101">
        <ele>16.6</ele>
        <time>2021-07-03 17:55:12</time>
      </trkpt>
      <trkpt lat="29.12655" lon="-13.58105">
        <ele>16.6</ele>
        <time>2021-07-03 17:55:13</time>
      </trkpt>
      <trkpt lat="29.12657" lon="-13.58109">
        <ele>16.6</ele>
        <time>2021-07-03 17:55:14</time>
      </trkpt>
      <trkpt lat="29.1266" lon="-13.58112">
        <ele>16.8</ele>
        <time>2021-07-03 17:55:15</time>
      </trkpt>
      <trkpt lat="29.12662" lon="-13.58116">
        <ele>16.8</ele>
        <time>2021-07-03 17:55:16</time>
      </trkpt>
      <trkpt lat="29.12664" lon="-13.5812">
        <ele>16.8</ele>
        <time>2021-07-03 17:55:17</time>
      </trkpt>
      <trkpt lat="29.12666" lon="-13.58123">
        <ele>17</ele>
        <time>2021-07-03 17:55:18</time>
      </trkpt>
      <trkpt lat="29.12668" lon="-13.58127">
        <ele>17</ele>
        <time>2021-07-03 17:55:19</time>
      </trkpt>
      <trkpt lat="29.12671" lon="-13.5813">
        <ele>17</ele>
        <time>2021-07-03 17:55:20</time>
      </trkpt>
      <trkpt lat="29.12673" lon="-13.58134">
        <ele>17</ele>
        <time>2021-07-03 17:55:21</time>
      </trkpt>
      <trkpt lat="29.12675" lon="-13.58137">
        <ele>17</ele>
        <time>2021-07-03 17:55:22</time>
      </trkpt>
      <trkpt lat="29.12677" lon="-13.58141">
        <ele>17</ele>
        <time>2021-07-03 17:55:23</time>
      </trkpt>
      <trkpt lat="29.12679" lon="-13.58144">
        <ele>17</ele>
        <time>2021-07-03 17:55:24</time>
      </trkpt>
      <trkpt lat="29.12681" lon="-13.58147">
        <ele>17</ele>
        <time>2021-07-03 17:55:25</time>
      </trkpt>
      <trkpt lat="29.12683" lon="-13.5815">
        <ele>17</ele>
        <time>2021-07-03 17:55:26</time>
      </trkpt>
      <trkpt lat="29.12686" lon="-13.58154">
        <ele>17</ele>
        <time>2021-07-03 17:55:27</time>
      </trkpt>
      <trkpt lat="29.12688" lon="-13.58157">
        <ele>17</ele>
        <time>2021-07-03 17:55:28</time>
      </trkpt>
      <trkpt lat="29.1269" lon="-13.5816">
        <ele>17</ele>
        <time>2021-07-03 17:55:29</time>
      </trkpt>
      <trkpt lat="29.12692" lon="-13.58164">
        <ele>17</ele>
        <time>2021-07-03 17:55:30</time>
      </trkpt>
      <trkpt lat="29.12694" lon="-13.58167">
        <ele>17</ele>
        <time>2021-07-03 17:55:31</time>
      </trkpt>
      <trkpt lat="29.12697" lon="-13.5817">
        <ele>17</ele>
        <time>2021-07-03 17:55:32</time>
      </trkpt>
      <trkpt lat="29.12699" lon="-13.58174">
        <ele>17</ele>
        <time>2021-07-03 17:55:33</time>
      </trkpt>
      <trkpt lat="29.12701" lon="-13.58177">
        <ele>17</ele>
        <time>2021-07-03 17:55:34</time>
      </trkpt>
      <trkpt lat="29.12703" lon="-13.58181">
        <ele>17.4</ele>
        <time>2021-07-03 17:55:35</time>
      </trkpt>
      <trkpt lat="29.12705" lon="-13.58184">
        <ele>17.4</ele>
        <time>2021-07-03 17:55:36</time>
      </trkpt>
      <trkpt lat="29.12707" lon="-13.58188">
        <ele>17.4</ele>
        <time>2021-07-03 17:55:37</time>
      </trkpt>
      <trkpt lat="29.12709" lon="-13.58191">
        <ele>17.4</ele>
        <time>2021-07-03 17:55:38</time>
      </trkpt>
      <trkpt lat="29.12712" lon="-13.58195">
        <ele>17.6</ele>
        <time>2021-07-03 17:55:39</time>
      </trkpt>
      <trkpt lat="29.12714" lon="-13.58198">
        <ele>17.6</ele>
        <time>2021-07-03 17:55:40</time>
      </trkpt>
      <trkpt lat="29.12716" lon="-13.58202">
        <ele>18</ele>
        <time>2021-07-03 17:55:41</time>
      </trkpt>
      <trkpt lat="29.12718" lon="-13.58206">
        <ele>18.2</ele>
        <time>2021-07-03 17:55:42</time>
      </trkpt>
      <trkpt lat="29.1272" lon="-13.58209">
        <ele>18.2</ele>
        <time>2021-07-03 17:55:43</time>
      </trkpt>
      <trkpt lat="29.12722" lon="-13.58213">
        <ele>18.6</ele>
        <time>2021-07-03 17:55:44</time>
      </trkpt>
      <trkpt lat="29.12724" lon="-13.58217">
        <ele>18.6</ele>
        <time>2021-07-03 17:55:45</time>
      </trkpt>
      <trkpt lat="29.12726" lon="-13.58221">
        <ele>19</ele>
        <time>2021-07-03 17:55:46</time>
      </trkpt>
      <trkpt lat="29.12727" lon="-13.58225">
        <ele>19</ele>
        <time>2021-07-03 17:55:47</time>
      </trkpt>
      <trkpt lat="29.12728" lon="-13.5823">
        <ele>19.2</ele>
        <time>2021-07-03 17:55:48</time>
      </trkpt>
      <trkpt lat="29.12729" lon="-13.58234">
        <ele>19.2</ele>
        <time>2021-07-03 17:55:49</time>
      </trkpt>
      <trkpt lat="29.12729" lon="-13.58239">
        <ele>19.2</ele>
        <time>2021-07-03 17:55:50</time>
      </trkpt>
      <trkpt lat="29.1273" lon="-13.58243">
        <ele>19.2</ele>
        <time>2021-07-03 17:55:51</time>
      </trkpt>
      <trkpt lat="29.12732" lon="-13.58247">
        <ele>19.6</ele>
        <time>2021-07-03 17:55:52</time>
      </trkpt>
      <trkpt lat="29.12734" lon="-13.58251">
        <ele>19.6</ele>
        <time>2021-07-03 17:55:53</time>
      </trkpt>
      <trkpt lat="29.12736" lon="-13.58254">
        <ele>19.6</ele>
        <time>2021-07-03 17:55:54</time>
      </trkpt>
      <trkpt lat="29.12739" lon="-13.58258">
        <ele>19.6</ele>
        <time>2021-07-03 17:55:55</time>
      </trkpt>
      <trkpt lat="29.12741" lon="-13.58261">
        <ele>19.6</ele>
        <time>2021-07-03 17:55:56</time>
      </trkpt>
      <trkpt lat="29.12743" lon="-13.58265">
        <ele>19.8</ele>
        <time>2021-07-03 17:55:57</time>
      </trkpt>
      <trkpt lat="29.12746" lon="-13.58269">
        <ele>19.8</ele>
        <time>2021-07-03 17:55:58</time>
      </trkpt>
      <trkpt lat="29.12748" lon="-13.58272">
        <ele>19.8</ele>
        <time>2021-07-03 17:55:59</time>
      </trkpt>
      <trkpt lat="29.1275" lon="-13.58276">
        <ele>19.8</ele>
        <time>2021-07-03 17:56:00</time>
      </trkpt>
      <trkpt lat="29.12752" lon="-13.5828">
        <ele>20.2</ele>
        <time>2021-07-03 17:56:01</time>
      </trkpt>
      <trkpt lat="29.12753" lon="-13.58285">
        <ele>20.2</ele>
        <time>2021-07-03 17:56:02</time>
      </trkpt>
      <trkpt lat="29.12754" lon="-13.58289">
        <ele>20.2</ele>
        <time>2021-07-03 17:56:03</time>
      </trkpt>
      <trkpt lat="29.12755" lon="-13.58294">
        <ele>20.6</ele>
        <time>2021-07-03 17:56:04</time>
      </trkpt>
      <trkpt lat="29.12756" lon="-13.58298">
        <ele>20.6</ele>
        <time>2021-07-03 17:56:05</time>
      </trkpt>
      <trkpt lat="29.12757" lon="-13.58302">
        <ele>20.8</ele>
        <time>2021-07-03 17:56:06</time>
      </trkpt>
      <trkpt lat="29.12759" lon="-13.58306">
        <ele>20.8</ele>
        <time>2021-07-03 17:56:07</time>
      </trkpt>
      <trkpt lat="29.1276" lon="-13.5831">
        <ele>20.8</ele>
        <time>2021-07-03 17:56:08</time>
      </trkpt>
      <trkpt lat="29.12762" lon="-13.58313">
        <ele>20.8</ele>
        <time>2021-07-03 17:56:09</time>
      </trkpt>
      <trkpt lat="29.12764" lon="-13.58317">
        <ele>21</ele>
        <time>2021-07-03 17:56:10</time>
      </trkpt>
      <trkpt lat="29.12765" lon="-13.58322">
        <ele>21</ele>
        <time>2021-07-03 17:56:11</time>
      </trkpt>
      <trkpt lat="29.12766" lon="-13.58327">
        <ele>21</ele>
        <time>2021-07-03 17:56:12</time>
      </trkpt>
      <trkpt lat="29.12767" lon="-13.58332">
        <ele>21</ele>
        <time>2021-07-03 17:56:13</time>
      </trkpt>
      <trkpt lat="29.12768" lon="-13.58336">
        <ele>21</ele>
        <time>2021-07-03 17:56:14</time>
      </trkpt>
      <trkpt lat="29.12769" lon="-13.58341">
        <ele>21.2</ele>
        <time>2021-07-03 17:56:15</time>
      </trkpt>
      <trkpt lat="29.12771" lon="-13.58346">
        <ele>21.2</ele>
        <time>2021-07-03 17:56:16</time>
      </trkpt>
      <trkpt lat="29.12773" lon="-13.5835">
        <ele>21.2</ele>
        <time>2021-07-03 17:56:17</time>
      </trkpt>
      <trkpt lat="29.12776" lon="-13.58354">
        <ele>21.2</ele>
        <time>2021-07-03 17:56:18</time>
      </trkpt>
      <trkpt lat="29.12779" lon="-13.58357">
        <ele>21.2</ele>
        <time>2021-07-03 17:56:19</time>
      </trkpt>
      <trkpt lat="29.12783" lon="-13.5836">
        <ele>21.2</ele>
        <time>2021-07-03 17:56:20</time>
      </trkpt>
      <trkpt lat="29.12787" lon="-13.58362">
        <ele>21.2</ele>
        <time>2021-07-03 17:56:21</time>
      </trkpt>
      <trkpt lat="29.1279" lon="-13.58364">
        <ele>21.2</ele>
        <time>2021-07-03 17:56:22</time>
      </trkpt>
      <trkpt lat="29.12794" lon="-13.58367">
        <ele>21.2</ele>
        <time>2021-07-03 17:56:23</time>
      </trkpt>
      <trkpt lat="29.12797" lon="-13.5837">
        <ele>21.2</ele>
        <time>2021-07-03 17:56:24</time>
      </trkpt>
      <trkpt lat="29.128" lon="-13.58374">
        <ele>21</ele>
        <time>2021-07-03 17:56:25</time>
      </trkpt>
      <trkpt lat="29.12803" lon="-13.58378">
        <ele>21</ele>
        <time>2021-07-03 17:56:26</time>
      </trkpt>
      <trkpt lat="29.12805" lon="-13.58381">
        <ele>21</ele>
        <time>2021-07-03 17:56:27</time>
      </trkpt>
      <trkpt lat="29.12807" lon="-13.58385">
        <ele>21</ele>
        <time>2021-07-03 17:56:28</time>
      </trkpt>
      <trkpt lat="29.12809" lon="-13.58389">
        <ele>21</ele>
        <time>2021-07-03 17:56:29</time>
      </trkpt>
      <trkpt lat="29.12812" lon="-13.58392">
        <ele>21</ele>
        <time>2021-07-03 17:56:30</time>
      </trkpt>
      <trkpt lat="29.12815" lon="-13.58395">
        <ele>21</ele>
        <time>2021-07-03 17:56:31</time>
      </trkpt>
      <trkpt lat="29.12818" lon="-13.58397">
        <ele>21</ele>
        <time>2021-07-03 17:56:32</time>
      </trkpt>
      <trkpt lat="29.12822" lon="-13.58398">
        <ele>21</ele>
        <time>2021-07-03 17:56:33</time>
      </trkpt>
      <trkpt lat="29.12825" lon="-13.58401">
        <ele>20.6</ele>
        <time>2021-07-03 17:56:34</time>
      </trkpt>
      <trkpt lat="29.12827" lon="-13.58404">
        <ele>20.6</ele>
        <time>2021-07-03 17:56:35</time>
      </trkpt>
      <trkpt lat="29.12829" lon="-13.58407">
        <ele>20.4</ele>
        <time>2021-07-03 17:56:36</time>
      </trkpt>
      <trkpt lat="29.1283" lon="-13.5841">
        <ele>20.4</ele>
        <time>2021-07-03 17:56:37</time>
      </trkpt>
      <trkpt lat="29.12832" lon="-13.58413">
        <ele>20.4</ele>
        <time>2021-07-03 17:56:38</time>
      </trkpt>
      <trkpt lat="29.12834" lon="-13.58416">
        <ele>20.2</ele>
        <time>2021-07-03 17:56:39</time>
      </trkpt>
      <trkpt lat="29.12836" lon="-13.5842">
        <ele>20.2</ele>
        <time>2021-07-03 17:56:40</time>
      </trkpt>
      <trkpt lat="29.12838" lon="-13.58423">
        <ele>20.2</ele>
        <time>2021-07-03 17:56:41</time>
      </trkpt>
      <trkpt lat="29.12841" lon="-13.58427">
        <ele>19.8</ele>
        <time>2021-07-03 17:56:42</time>
      </trkpt>
      <trkpt lat="29.12844" lon="-13.5843">
        <ele>19.8</ele>
        <time>2021-07-03 17:56:43</time>
      </trkpt>
      <trkpt lat="29.12846" lon="-13.58434">
        <ele>19.6</ele>
        <time>2021-07-03 17:56:44</time>
      </trkpt>
      <trkpt lat="29.12849" lon="-13.58437">
        <ele>19.6</ele>
        <time>2021-07-03 17:56:45</time>
      </trkpt>
      <trkpt lat="29.12852" lon="-13.58441">
        <ele>19.6</ele>
        <time>2021-07-03 17:56:46</time>
      </trkpt>
      <trkpt lat="29.12854" lon="-13.58444">
        <ele>19.2</ele>
        <time>2021-07-03 17:56:47</time>
      </trkpt>
      <trkpt lat="29.12857" lon="-13.58448">
        <ele>19.2</ele>
        <time>2021-07-03 17:56:48</time>
      </trkpt>
      <trkpt lat="29.12859" lon="-13.58451">
        <ele>19</ele>
        <time>2021-07-03 17:56:49</time>
      </trkpt>
      <trkpt lat="29.12861" lon="-13.58454">
        <ele>19</ele>
        <time>2021-07-03 17:56:50</time>
      </trkpt>
      <trkpt lat="29.12862" lon="-13.58457">
        <ele>18.6</ele>
        <time>2021-07-03 17:56:51</time>
      </trkpt>
      <trkpt lat="29.12863" lon="-13.58461">
        <ele>18.6</ele>
        <time>2021-07-03 17:56:52</time>
      </trkpt>
      <trkpt lat="29.12865" lon="-13.58464">
        <ele>18.6</ele>
        <time>2021-07-03 17:56:53</time>
      </trkpt>
      <trkpt lat="29.12866" lon="-13.58468">
        <ele>18.6</ele>
        <time>2021-07-03 17:56:54</time>
      </trkpt>
      <trkpt lat="29.12867" lon="-13.58472">
        <ele>18.4</ele>
        <time>2021-07-03 17:56:55</time>
      </trkpt>
      <trkpt lat="29.12866" lon="-13.58476">
        <ele>18.4</ele>
        <time>2021-07-03 17:56:56</time>
      </trkpt>
      <trkpt lat="29.12865" lon="-13.58479">
        <ele>18.4</ele>
        <time>2021-07-03 17:56:57</time>
      </trkpt>
      <trkpt lat="29.12863" lon="-13.58482">
        <ele>18.4</ele>
        <time>2021-07-03 17:56:58</time>
      </trkpt>
      <trkpt lat="29.12861" lon="-13.58485">
        <ele>18.4</ele>
        <time>2021-07-03 17:56:59</time>
      </trkpt>
      <trkpt lat="29.12859" lon="-13.58488">
        <ele>18.4</ele>
        <time>2021-07-03 17:57:00</time>
      </trkpt>
      <trkpt lat="29.12858" lon="-13.58491">
        <ele>18.4</ele>
        <time>2021-07-03 17:57:01</time>
      </trkpt>
      <trkpt lat="29.12857" lon="-13.58495">
        <ele>18.6</ele>
        <time>2021-07-03 17:57:02</time>
      </trkpt>
      <trkpt lat="29.12856" lon="-13.58498">
        <ele>18.6</ele>
        <time>2021-07-03 17:57:03</time>
      </trkpt>
      <trkpt lat="29.12855" lon="-13.58502">
        <ele>18.8</ele>
        <time>2021-07-03 17:57:04</time>
      </trkpt>
      <trkpt lat="29.12854" lon="-13.58505">
        <ele>18.8</ele>
        <time>2021-07-03 17:57:05</time>
      </trkpt>
      <trkpt lat="29.12853" lon="-13.58509">
        <ele>18.8</ele>
        <time>2021-07-03 17:57:06</time>
      </trkpt>
      <trkpt lat="29.12852" lon="-13.58513">
        <ele>19.2</ele>
        <time>2021-07-03 17:57:07</time>
      </trkpt>
      <trkpt lat="29.12851" lon="-13.58516">
        <ele>19.2</ele>
        <time>2021-07-03 17:57:08</time>
      </trkpt>
      <trkpt lat="29.1285" lon="-13.58517">
        <ele>19.2</ele>
        <time>2021-07-03 17:57:09</time>
      </trkpt>
      <trkpt lat="29.1285" lon="-13.58518">
        <ele>19.4</ele>
        <time>2021-07-03 17:57:10</time>
      </trkpt>
      <trkpt lat="29.1285" lon="-13.58518">
        <ele>19.4</ele>
        <time>2021-07-03 17:57:11</time>
      </trkpt>
      <trkpt lat="29.1285" lon="-13.58518">
        <ele>19.4</ele>
        <time>2021-07-03 17:57:12</time>
      </trkpt>
      <trkpt lat="29.1285" lon="-13.58518">
        <ele>19.4</ele>
        <time>2021-07-03 17:57:13</time>
      </trkpt>
      <trkpt lat="29.12849" lon="-13.58521">
        <ele>19.4</ele>
        <time>2021-07-03 17:57:14</time>
      </trkpt>
      <trkpt lat="29.12849" lon="-13.58523">
        <ele>19.4</ele>
        <time>2021-07-03 17:57:15</time>
      </trkpt>
      <trkpt lat="29.12848" lon="-13.58524">
        <ele>19.4</ele>
        <time>2021-07-03 17:57:16</time>
      </trkpt>
      <trkpt lat="29.12848" lon="-13.58526">
        <ele>19.4</ele>
        <time>2021-07-03 17:57:17</time>
      </trkpt>
      <trkpt lat="29.12847" lon="-13.58528">
        <ele>19.4</ele>
        <time>2021-07-03 17:57:18</time>
      </trkpt>
      <trkpt lat="29.12847" lon="-13.5853">
        <ele>19.4</ele>
        <time>2021-07-03 17:57:19</time>
      </trkpt>
      <trkpt lat="29.12846" lon="-13.58531">
        <ele>19.4</ele>
        <time>2021-07-03 17:57:20</time>
      </trkpt>
      <trkpt lat="29.12846" lon="-13.58534">
        <ele>19.4</ele>
        <time>2021-07-03 17:57:21</time>
      </trkpt>
      <trkpt lat="29.12845" lon="-13.58536">
        <ele>19.4</ele>
        <time>2021-07-03 17:57:22</time>
      </trkpt>
      <trkpt lat="29.12845" lon="-13.58539">
        <ele>19.6</ele>
        <time>2021-07-03 17:57:23</time>
      </trkpt>
      <trkpt lat="29.12844" lon="-13.58541">
        <ele>19.6</ele>
        <time>2021-07-03 17:57:24</time>
      </trkpt>
      <trkpt lat="29.12843" lon="-13.58544">
        <ele>19.6</ele>
        <time>2021-07-03 17:57:25</time>
      </trkpt>
      <trkpt lat="29.12843" lon="-13.58547">
        <ele>19.8</ele>
        <time>2021-07-03 17:57:26</time>
      </trkpt>
      <trkpt lat="29.12842" lon="-13.5855">
        <ele>19.8</ele>
        <time>2021-07-03 17:57:27</time>
      </trkpt>
      <trkpt lat="29.12841" lon="-13.58553">
        <ele>19.8</ele>
        <time>2021-07-03 17:57:28</time>
      </trkpt>
      <trkpt lat="29.12841" lon="-13.58556">
        <ele>20.2</ele>
        <time>2021-07-03 17:57:29</time>
      </trkpt>
      <trkpt lat="29.1284" lon="-13.5856">
        <ele>20.2</ele>
        <time>2021-07-03 17:57:30</time>
      </trkpt>
      <trkpt lat="29.1284" lon="-13.58563">
        <ele>20.4</ele>
        <time>2021-07-03 17:57:31</time>
      </trkpt>
      <trkpt lat="29.12839" lon="-13.58566">
        <ele>20.4</ele>
        <time>2021-07-03 17:57:32</time>
      </trkpt>
      <trkpt lat="29.12839" lon="-13.58569">
        <ele>20.4</ele>
        <time>2021-07-03 17:57:33</time>
      </trkpt>
      <trkpt lat="29.12838" lon="-13.58572">
        <ele>20.6</ele>
        <time>2021-07-03 17:57:34</time>
      </trkpt>
      <trkpt lat="29.12838" lon="-13.58573">
        <ele>20.6</ele>
        <time>2021-07-03 17:57:35</time>
      </trkpt>
      <trkpt lat="29.12838" lon="-13.58574">
        <ele>20.6</ele>
        <time>2021-07-03 17:57:36</time>
      </trkpt>
      <trkpt lat="29.12838" lon="-13.58574">
        <ele>20.6</ele>
        <time>2021-07-03 17:57:37</time>
      </trkpt>
      <trkpt lat="29.12838" lon="-13.58574">
        <ele>20.6</ele>
        <time>2021-07-03 17:57:38</time>
      </trkpt>
      <trkpt lat="29.12839" lon="-13.58573">
        <ele>20.6</ele>
        <time>2021-07-03 17:57:39</time>
      </trkpt>
      <trkpt lat="29.12837" lon="-13.58576">
        <ele>20.8</ele>
        <time>2021-07-03 17:57:40</time>
      </trkpt>
      <trkpt lat="29.12836" lon="-13.58578">
        <ele>21.2</ele>
        <time>2021-07-03 17:57:41</time>
      </trkpt>
      <trkpt lat="29.12836" lon="-13.58581">
        <ele>21.2</ele>
        <time>2021-07-03 17:57:42</time>
      </trkpt>
      <trkpt lat="29.12835" lon="-13.58584">
        <ele>21.2</ele>
        <time>2021-07-03 17:57:43</time>
      </trkpt>
      <trkpt lat="29.12834" lon="-13.58588">
        <ele>21.2</ele>
        <time>2021-07-03 17:57:44</time>
      </trkpt>
      <trkpt lat="29.12833" lon="-13.58592">
        <ele>21.2</ele>
        <time>2021-07-03 17:57:45</time>
      </trkpt>
      <trkpt lat="29.12833" lon="-13.58596">
        <ele>21.2</ele>
        <time>2021-07-03 17:57:46</time>
      </trkpt>
      <trkpt lat="29.12832" lon="-13.58599">
        <ele>21.2</ele>
        <time>2021-07-03 17:57:47</time>
      </trkpt>
      <trkpt lat="29.12831" lon="-13.58603">
        <ele>21.2</ele>
        <time>2021-07-03 17:57:48</time>
      </trkpt>
      <trkpt lat="29.1283" lon="-13.58607">
        <ele>21.2</ele>
        <time>2021-07-03 17:57:49</time>
      </trkpt>
      <trkpt lat="29.1283" lon="-13.58611">
        <ele>21.4</ele>
        <time>2021-07-03 17:57:50</time>
      </trkpt>
      <trkpt lat="29.12829" lon="-13.58615">
        <ele>21.4</ele>
        <time>2021-07-03 17:57:51</time>
      </trkpt>
      <trkpt lat="29.12828" lon="-13.58619">
        <ele>21.6</ele>
        <time>2021-07-03 17:57:52</time>
      </trkpt>
      <trkpt lat="29.12827" lon="-13.58623">
        <ele>22</ele>
        <time>2021-07-03 17:57:53</time>
      </trkpt>
      <trkpt lat="29.12826" lon="-13.58627">
        <ele>22</ele>
        <time>2021-07-03 17:57:54</time>
      </trkpt>
      <trkpt lat="29.12825" lon="-13.58631">
        <ele>22.2</ele>
        <time>2021-07-03 17:57:55</time>
      </trkpt>
      <trkpt lat="29.12825" lon="-13.58635">
        <ele>22.2</ele>
        <time>2021-07-03 17:57:56</time>
      </trkpt>
      <trkpt lat="29.12824" lon="-13.58639">
        <ele>22.2</ele>
        <time>2021-07-03 17:57:57</time>
      </trkpt>
      <trkpt lat="29.12823" lon="-13.58644">
        <ele>22.6</ele>
        <time>2021-07-03 17:57:58</time>
      </trkpt>
      <trkpt lat="29.12822" lon="-13.58648">
        <ele>22.6</ele>
        <time>2021-07-03 17:57:59</time>
      </trkpt>
      <trkpt lat="29.12821" lon="-13.58652">
        <ele>22.8</ele>
        <time>2021-07-03 17:58:00</time>
      </trkpt>
      <trkpt lat="29.1282" lon="-13.58656">
        <ele>22.8</ele>
        <time>2021-07-03 17:58:01</time>
      </trkpt>
      <trkpt lat="29.12819" lon="-13.5866">
        <ele>23</ele>
        <time>2021-07-03 17:58:02</time>
      </trkpt>
      <trkpt lat="29.12818" lon="-13.58665">
        <ele>23</ele>
        <time>2021-07-03 17:58:03</time>
      </trkpt>
      <trkpt lat="29.12818" lon="-13.58669">
        <ele>23.4</ele>
        <time>2021-07-03 17:58:04</time>
      </trkpt>
      <trkpt lat="29.12817" lon="-13.58673">
        <ele>23.4</ele>
        <time>2021-07-03 17:58:05</time>
      </trkpt>
      <trkpt lat="29.12816" lon="-13.58677">
        <ele>23.6</ele>
        <time>2021-07-03 17:58:06</time>
      </trkpt>
      <trkpt lat="29.12816" lon="-13.5868">
        <ele>23.6</ele>
        <time>2021-07-03 17:58:07</time>
      </trkpt>
      <trkpt lat="29.12816" lon="-13.58682">
        <ele>23.6</ele>
        <time>2021-07-03 17:58:08</time>
      </trkpt>
      <trkpt lat="29.12815" lon="-13.58685">
        <ele>23.8</ele>
        <time>2021-07-03 17:58:09</time>
      </trkpt>
      <trkpt lat="29.12815" lon="-13.58687">
        <ele>23.8</ele>
        <time>2021-07-03 17:58:10</time>
      </trkpt>
      <trkpt lat="29.12814" lon="-13.5869">
        <ele>23.8</ele>
        <time>2021-07-03 17:58:11</time>
      </trkpt>
      <trkpt lat="29.12813" lon="-13.58693">
        <ele>24</ele>
        <time>2021-07-03 17:58:12</time>
      </trkpt>
      <trkpt lat="29.12812" lon="-13.58697">
        <ele>24</ele>
        <time>2021-07-03 17:58:13</time>
      </trkpt>
      <trkpt lat="29.12812" lon="-13.587">
        <ele>24.2</ele>
        <time>2021-07-03 17:58:14</time>
      </trkpt>
      <trkpt lat="29.12811" lon="-13.58704">
        <ele>24.2</ele>
        <time>2021-07-03 17:58:15</time>
      </trkpt>
      <trkpt lat="29.1281" lon="-13.58707">
        <ele>24.6</ele>
        <time>2021-07-03 17:58:16</time>
      </trkpt>
      <trkpt lat="29.12809" lon="-13.58711">
        <ele>24.6</ele>
        <time>2021-07-03 17:58:17</time>
      </trkpt>
      <trkpt lat="29.12809" lon="-13.58714">
        <ele>25</ele>
        <time>2021-07-03 17:58:18</time>
      </trkpt>
      <trkpt lat="29.12808" lon="-13.58718">
        <ele>25</ele>
        <time>2021-07-03 17:58:19</time>
      </trkpt>
      <trkpt lat="29.12807" lon="-13.58721">
        <ele>25.2</ele>
        <time>2021-07-03 17:58:20</time>
      </trkpt>
      <trkpt lat="29.12806" lon="-13.58725">
        <ele>25.2</ele>
        <time>2021-07-03 17:58:21</time>
      </trkpt>
      <trkpt lat="29.12806" lon="-13.58727">
        <ele>25.4</ele>
        <time>2021-07-03 17:58:22</time>
      </trkpt>
      <trkpt lat="29.12806" lon="-13.5873">
        <ele>25.4</ele>
        <time>2021-07-03 17:58:23</time>
      </trkpt>
      <trkpt lat="29.12805" lon="-13.58732">
        <ele>25.4</ele>
        <time>2021-07-03 17:58:24</time>
      </trkpt>
      <trkpt lat="29.12805" lon="-13.58736">
        <ele>25.6</ele>
        <time>2021-07-03 17:58:25</time>
      </trkpt>
      <trkpt lat="29.12805" lon="-13.58739">
        <ele>25.6</ele>
        <time>2021-07-03 17:58:26</time>
      </trkpt>
      <trkpt lat="29.12805" lon="-13.58743">
        <ele>26</ele>
        <time>2021-07-03 17:58:27</time>
      </trkpt>
      <trkpt lat="29.12806" lon="-13.58747">
        <ele>26</ele>
        <time>2021-07-03 17:58:28</time>
      </trkpt>
      <trkpt lat="29.12806" lon="-13.5875">
        <ele>26.2</ele>
        <time>2021-07-03 17:58:29</time>
      </trkpt>
      <trkpt lat="29.12806" lon="-13.58753">
        <ele>26.2</ele>
        <time>2021-07-03 17:58:30</time>
      </trkpt>
      <trkpt lat="29.12806" lon="-13.58756">
        <ele>26.2</ele>
        <time>2021-07-03 17:58:31</time>
      </trkpt>
      <trkpt lat="29.12805" lon="-13.5876">
        <ele>26.6</ele>
        <time>2021-07-03 17:58:32</time>
      </trkpt>
      <trkpt lat="29.12805" lon="-13.58763">
        <ele>26.6</ele>
        <time>2021-07-03 17:58:33</time>
      </trkpt>
      <trkpt lat="29.12805" lon="-13.58766">
        <ele>26.6</ele>
        <time>2021-07-03 17:58:34</time>
      </trkpt>
      <trkpt lat="29.12805" lon="-13.58769">
        <ele>26.6</ele>
        <time>2021-07-03 17:58:35</time>
      </trkpt>
      <trkpt lat="29.12804" lon="-13.58773">
        <ele>26.6</ele>
        <time>2021-07-03 17:58:36</time>
      </trkpt>
      <trkpt lat="29.12804" lon="-13.58777">
        <ele>26.6</ele>
        <time>2021-07-03 17:58:37</time>
      </trkpt>
      <trkpt lat="29.12803" lon="-13.5878">
        <ele>26.8</ele>
        <time>2021-07-03 17:58:38</time>
      </trkpt>
      <trkpt lat="29.12803" lon="-13.58784">
        <ele>26.8</ele>
        <time>2021-07-03 17:58:39</time>
      </trkpt>
      <trkpt lat="29.12803" lon="-13.58788">
        <ele>26.8</ele>
        <time>2021-07-03 17:58:40</time>
      </trkpt>
      <trkpt lat="29.12803" lon="-13.58792">
        <ele>27.2</ele>
        <time>2021-07-03 17:58:41</time>
      </trkpt>
      <trkpt lat="29.12803" lon="-13.58796">
        <ele>27.2</ele>
        <time>2021-07-03 17:58:42</time>
      </trkpt>
      <trkpt lat="29.12803" lon="-13.588">
        <ele>27.4</ele>
        <time>2021-07-03 17:58:43</time>
      </trkpt>
      <trkpt lat="29.12802" lon="-13.58804">
        <ele>27.4</ele>
        <time>2021-07-03 17:58:44</time>
      </trkpt>
      <trkpt lat="29.12802" lon="-13.58808">
        <ele>27.8</ele>
        <time>2021-07-03 17:59:05</time>
      </trkpt>
      <trkpt lat="29.12802" lon="-13.58812">
        <ele>27.8</ele>
        <time>2021-07-03 17:59:06</time>
      </trkpt>
      <trkpt lat="29.12802" lon="-13.58817">
        <ele>27.8</ele>
        <time>2021-07-03 17:59:07</time>
      </trkpt>
      <trkpt lat="29.12802" lon="-13.58821">
        <ele>28</ele>
        <time>2021-07-03 17:59:08</time>
      </trkpt>
      <trkpt lat="29.12802" lon="-13.58825">
        <ele>28</ele>
        <time>2021-07-03 17:59:09</time>
      </trkpt>
      <trkpt lat="29.12802" lon="-13.58829">
        <ele>28</ele>
        <time>2021-07-03 17:59:10</time>
      </trkpt>
      <trkpt lat="29.12802" lon="-13.58834">
        <ele>28.4</ele>
        <time>2021-07-03 17:59:11</time>
      </trkpt>
      <trkpt lat="29.12802" lon="-13.58838">
        <ele>28.4</ele>
        <time>2021-07-03 17:59:12</time>
      </trkpt>
      <trkpt lat="29.12802" lon="-13.58842">
        <ele>28.4</ele>
        <time>2021-07-03 17:59:13</time>
      </trkpt>
      <trkpt lat="29.12803" lon="-13.58847">
        <ele>28.4</ele>
        <time>2021-07-03 17:59:14</time>
      </trkpt>
      <trkpt lat="29.12803" lon="-13.58852">
        <ele>28.4</ele>
        <time>2021-07-03 17:59:15</time>
      </trkpt>
      <trkpt lat="29.12802" lon="-13.58856">
        <ele>28.6</ele>
        <time>2021-07-03 17:59:16</time>
      </trkpt>
      <trkpt lat="29.12802" lon="-13.58861">
        <ele>28.6</ele>
        <time>2021-07-03 17:59:17</time>
      </trkpt>
      <trkpt lat="29.12802" lon="-13.58865">
        <ele>28.8</ele>
        <time>2021-07-03 17:59:18</time>
      </trkpt>
      <trkpt lat="29.12802" lon="-13.5887">
        <ele>28.8</ele>
        <time>2021-07-03 17:59:19</time>
      </trkpt>
      <trkpt lat="29.12801" lon="-13.58875">
        <ele>28.8</ele>
        <time>2021-07-03 17:59:20</time>
      </trkpt>
      <trkpt lat="29.12801" lon="-13.58879">
        <ele>29.2</ele>
        <time>2021-07-03 17:59:21</time>
      </trkpt>
      <trkpt lat="29.128" lon="-13.58883">
        <ele>29.2</ele>
        <time>2021-07-03 17:59:22</time>
      </trkpt>
      <trkpt lat="29.128" lon="-13.58888">
        <ele>29.2</ele>
        <time>2021-07-03 17:59:23</time>
      </trkpt>
      <trkpt lat="29.12799" lon="-13.58892">
        <ele>29.2</ele>
        <time>2021-07-03 17:59:24</time>
      </trkpt>
      <trkpt lat="29.12798" lon="-13.58896">
        <ele>29.2</ele>
        <time>2021-07-03 17:59:25</time>
      </trkpt>
      <trkpt lat="29.12798" lon="-13.589">
        <ele>29.2</ele>
        <time>2021-07-03 17:59:26</time>
      </trkpt>
      <trkpt lat="29.12797" lon="-13.58905">
        <ele>29.2</ele>
        <time>2021-07-03 17:59:27</time>
      </trkpt>
      <trkpt lat="29.12797" lon="-13.58909">
        <ele>29.2</ele>
        <time>2021-07-03 17:59:28</time>
      </trkpt>
      <trkpt lat="29.12797" lon="-13.58913">
        <ele>29.2</ele>
        <time>2021-07-03 17:59:29</time>
      </trkpt>
      <trkpt lat="29.12797" lon="-13.58918">
        <ele>29.4</ele>
        <time>2021-07-03 17:59:30</time>
      </trkpt>
      <trkpt lat="29.12797" lon="-13.58922">
        <ele>29.4</ele>
        <time>2021-07-03 18:00:18</time>
      </trkpt>
      <trkpt lat="29.12797" lon="-13.58926">
        <ele>29.4</ele>
        <time>2021-07-03 18:00:19</time>
      </trkpt>
      <trkpt lat="29.12797" lon="-13.5893">
        <ele>29.4</ele>
        <time>2021-07-03 18:00:20</time>
      </trkpt>
      <trkpt lat="29.12797" lon="-13.58934">
        <ele>29.4</ele>
        <time>2021-07-03 18:00:21</time>
      </trkpt>
      <trkpt lat="29.12796" lon="-13.58938">
        <ele>29.4</ele>
        <time>2021-07-03 18:00:22</time>
      </trkpt>
      <trkpt lat="29.12795" lon="-13.58943">
        <ele>29.4</ele>
        <time>2021-07-03 18:00:23</time>
      </trkpt>
      <trkpt lat="29.12795" lon="-13.58947">
        <ele>29.4</ele>
        <time>2021-07-03 18:00:24</time>
      </trkpt>
      <trkpt lat="29.12794" lon="-13.58952">
        <ele>29.2</ele>
        <time>2021-07-03 18:00:25</time>
      </trkpt>
      <trkpt lat="29.12794" lon="-13.58957">
        <ele>29.2</ele>
        <time>2021-07-03 18:00:26</time>
      </trkpt>
      <trkpt lat="29.12793" lon="-13.58962">
        <ele>29</ele>
        <time>2021-07-03 18:00:27</time>
      </trkpt>
      <trkpt lat="29.12794" lon="-13.58966">
        <ele>29</ele>
        <time>2021-07-03 18:00:28</time>
      </trkpt>
      <trkpt lat="29.12794" lon="-13.5897">
        <ele>29</ele>
        <time>2021-07-03 18:00:29</time>
      </trkpt>
      <trkpt lat="29.12794" lon="-13.58974">
        <ele>29</ele>
        <time>2021-07-03 18:00:30</time>
      </trkpt>
      <trkpt lat="29.12794" lon="-13.58977">
        <ele>29</ele>
        <time>2021-07-03 18:00:31</time>
      </trkpt>
      <trkpt lat="29.12794" lon="-13.58982">
        <ele>29</ele>
        <time>2021-07-03 18:00:32</time>
      </trkpt>
      <trkpt lat="29.12794" lon="-13.58986">
        <ele>29</ele>
        <time>2021-07-03 18:00:33</time>
      </trkpt>
      <trkpt lat="29.12793" lon="-13.5899">
        <ele>28.6</ele>
        <time>2021-07-03 18:00:34</time>
      </trkpt>
      <trkpt lat="29.12792" lon="-13.58995">
        <ele>28.6</ele>
        <time>2021-07-03 18:00:35</time>
      </trkpt>
      <trkpt lat="29.12791" lon="-13.58999">
        <ele>28.6</ele>
        <time>2021-07-03 18:00:36</time>
      </trkpt>
      <trkpt lat="29.1279" lon="-13.59004">
        <ele>28.4</ele>
        <time>2021-07-03 18:00:37</time>
      </trkpt>
      <trkpt lat="29.12789" lon="-13.59009">
        <ele>28.4</ele>
        <time>2021-07-03 18:00:38</time>
      </trkpt>
      <trkpt lat="29.12789" lon="-13.59013">
        <ele>28.2</ele>
        <time>2021-07-03 18:00:39</time>
      </trkpt>
      <trkpt lat="29.12788" lon="-13.59018">
        <ele>28.2</ele>
        <time>2021-07-03 18:00:40</time>
      </trkpt>
      <trkpt lat="29.12787" lon="-13.59022">
        <ele>28.2</ele>
        <time>2021-07-03 18:00:41</time>
      </trkpt>
      <trkpt lat="29.12787" lon="-13.59027">
        <ele>28</ele>
        <time>2021-07-03 18:00:42</time>
      </trkpt>
      <trkpt lat="29.12786" lon="-13.59031">
        <ele>28</ele>
        <time>2021-07-03 18:00:43</time>
      </trkpt>
      <trkpt lat="29.12787" lon="-13.59036">
        <ele>27.6</ele>
        <time>2021-07-03 18:00:44</time>
      </trkpt>
      <trkpt lat="29.12786" lon="-13.59041">
        <ele>27.6</ele>
        <time>2021-07-03 18:00:45</time>
      </trkpt>
      <trkpt lat="29.12786" lon="-13.59046">
        <ele>27.6</ele>
        <time>2021-07-03 18:00:46</time>
      </trkpt>
      <trkpt lat="29.12786" lon="-13.59051">
        <ele>27.6</ele>
        <time>2021-07-03 18:00:47</time>
      </trkpt>
      <trkpt lat="29.12785" lon="-13.59055">
        <ele>27.4</ele>
        <time>2021-07-03 18:00:48</time>
      </trkpt>
      <trkpt lat="29.12785" lon="-13.5906">
        <ele>27.4</ele>
        <time>2021-07-03 18:00:49</time>
      </trkpt>
      <trkpt lat="29.12784" lon="-13.59066">
        <ele>27.2</ele>
        <time>2021-07-03 18:00:50</time>
      </trkpt>
      <trkpt lat="29.12783" lon="-13.59071">
        <ele>27.2</ele>
        <time>2021-07-03 18:00:51</time>
      </trkpt>
      <trkpt lat="29.12783" lon="-13.59076">
        <ele>27.2</ele>
        <time>2021-07-03 18:00:52</time>
      </trkpt>
      <trkpt lat="29.12783" lon="-13.59081">
        <ele>26.8</ele>
        <time>2021-07-03 18:00:53</time>
      </trkpt>
      <trkpt lat="29.12782" lon="-13.59087">
        <ele>26.8</ele>
        <time>2021-07-03 18:00:54</time>
      </trkpt>
      <trkpt lat="29.12782" lon="-13.59092">
        <ele>26.8</ele>
        <time>2021-07-03 18:00:55</time>
      </trkpt>
      <trkpt lat="29.12782" lon="-13.59096">
        <ele>26.8</ele>
        <time>2021-07-03 18:00:56</time>
      </trkpt>
      <trkpt lat="29.12781" lon="-13.59101">
        <ele>26.8</ele>
        <time>2021-07-03 18:00:57</time>
      </trkpt>
      <trkpt lat="29.12781" lon="-13.59106">
        <ele>26.8</ele>
        <time>2021-07-03 18:00:58</time>
      </trkpt>
      <trkpt lat="29.1278" lon="-13.59111">
        <ele>26.8</ele>
        <time>2021-07-03 18:00:59</time>
      </trkpt>
      <trkpt lat="29.1278" lon="-13.59115">
        <ele>26.8</ele>
        <time>2021-07-03 18:01:00</time>
      </trkpt>
      <trkpt lat="29.12779" lon="-13.5912">
        <ele>26.6</ele>
        <time>2021-07-03 18:01:01</time>
      </trkpt>
      <trkpt lat="29.12779" lon="-13.59125">
        <ele>26.6</ele>
        <time>2021-07-03 18:01:02</time>
      </trkpt>
      <trkpt lat="29.12778" lon="-13.5913">
        <ele>26.6</ele>
        <time>2021-07-03 18:01:03</time>
      </trkpt>
      <trkpt lat="29.12778" lon="-13.59135">
        <ele>26.4</ele>
        <time>2021-07-03 18:01:04</time>
      </trkpt>
      <trkpt lat="29.12777" lon="-13.5914">
        <ele>26.4</ele>
        <time>2021-07-03 18:01:05</time>
      </trkpt>
      <trkpt lat="29.12777" lon="-13.59146">
        <ele>26.4</ele>
        <time>2021-07-03 18:01:06</time>
      </trkpt>
      <trkpt lat="29.12776" lon="-13.5915">
        <ele>26.4</ele>
        <time>2021-07-03 18:01:07</time>
      </trkpt>
      <trkpt lat="29.12775" lon="-13.59155">
        <ele>26.2</ele>
        <time>2021-07-03 18:01:08</time>
      </trkpt>
      <trkpt lat="29.12775" lon="-13.5916">
        <ele>26.2</ele>
        <time>2021-07-03 18:01:09</time>
      </trkpt>
      <trkpt lat="29.12774" lon="-13.59165">
        <ele>25.8</ele>
        <time>2021-07-03 18:01:10</time>
      </trkpt>
      <trkpt lat="29.12774" lon="-13.5917">
        <ele>25.8</ele>
        <time>2021-07-03 18:01:11</time>
      </trkpt>
      <trkpt lat="29.12773" lon="-13.59174">
        <ele>25.6</ele>
        <time>2021-07-03 18:01:12</time>
      </trkpt>
      <trkpt lat="29.12773" lon="-13.59179">
        <ele>25.6</ele>
        <time>2021-07-03 18:01:13</time>
      </trkpt>
      <trkpt lat="29.12773" lon="-13.59183">
        <ele>25.6</ele>
        <time>2021-07-03 18:01:14</time>
      </trkpt>
      <trkpt lat="29.12773" lon="-13.59188">
        <ele>25.6</ele>
        <time>2021-07-03 18:01:15</time>
      </trkpt>
      <trkpt lat="29.12773" lon="-13.59193">
        <ele>25.6</ele>
        <time>2021-07-03 18:01:16</time>
      </trkpt>
      <trkpt lat="29.12772" lon="-13.59198">
        <ele>25.6</ele>
        <time>2021-07-03 18:01:17</time>
      </trkpt>
      <trkpt lat="29.12772" lon="-13.59203">
        <ele>25.6</ele>
        <time>2021-07-03 18:01:18</time>
      </trkpt>
      <trkpt lat="29.12771" lon="-13.59208">
        <ele>25.6</ele>
        <time>2021-07-03 18:01:19</time>
      </trkpt>
      <trkpt lat="29.1277" lon="-13.59213">
        <ele>25.6</ele>
        <time>2021-07-03 18:01:20</time>
      </trkpt>
      <trkpt lat="29.12769" lon="-13.59218">
        <ele>25.6</ele>
        <time>2021-07-03 18:01:21</time>
      </trkpt>
      <trkpt lat="29.12768" lon="-13.59222">
        <ele>25.6</ele>
        <time>2021-07-03 18:01:22</time>
      </trkpt>
      <trkpt lat="29.12768" lon="-13.59227">
        <ele>24.6</ele>
        <time>2021-07-03 18:01:23</time>
      </trkpt>
      <trkpt lat="29.12768" lon="-13.59232">
        <ele>24.8</ele>
        <time>2021-07-03 18:01:24</time>
      </trkpt>
      <trkpt lat="29.12767" lon="-13.59237">
        <ele>24.8</ele>
        <time>2021-07-03 18:01:25</time>
      </trkpt>
      <trkpt lat="29.12766" lon="-13.5924">
        <ele>24.8</ele>
        <time>2021-07-03 18:01:26</time>
      </trkpt>
      <trkpt lat="29.12765" lon="-13.59244">
        <ele>24.8</ele>
        <time>2021-07-03 18:01:27</time>
      </trkpt>
      <trkpt lat="29.12764" lon="-13.59247">
        <ele>24.8</ele>
        <time>2021-07-03 18:01:28</time>
      </trkpt>
      <trkpt lat="29.12764" lon="-13.59251">
        <ele>24.8</ele>
        <time>2021-07-03 18:01:29</time>
      </trkpt>
      <trkpt lat="29.12764" lon="-13.59255">
        <ele>24.8</ele>
        <time>2021-07-03 18:01:30</time>
      </trkpt>
      <trkpt lat="29.12764" lon="-13.59259">
        <ele>24.8</ele>
        <time>2021-07-03 18:01:31</time>
      </trkpt>
      <trkpt lat="29.12763" lon="-13.59263">
        <ele>24.8</ele>
        <time>2021-07-03 18:01:32</time>
      </trkpt>
      <trkpt lat="29.12763" lon="-13.59267">
        <ele>25</ele>
        <time>2021-07-03 18:01:33</time>
      </trkpt>
      <trkpt lat="29.12763" lon="-13.59272">
        <ele>25</ele>
        <time>2021-07-03 18:01:34</time>
      </trkpt>
      <trkpt lat="29.12763" lon="-13.59277">
        <ele>25.4</ele>
        <time>2021-07-03 18:01:35</time>
      </trkpt>
      <trkpt lat="29.12763" lon="-13.59282">
        <ele>25.4</ele>
        <time>2021-07-03 18:01:36</time>
      </trkpt>
      <trkpt lat="29.12763" lon="-13.59286">
        <ele>25.4</ele>
        <time>2021-07-03 18:01:37</time>
      </trkpt>
      <trkpt lat="29.12762" lon="-13.59291">
        <ele>25.4</ele>
        <time>2021-07-03 18:01:38</time>
      </trkpt>
      <trkpt lat="29.12761" lon="-13.59296">
        <ele>25.6</ele>
        <time>2021-07-03 18:01:39</time>
      </trkpt>
      <trkpt lat="29.1276" lon="-13.59301">
        <ele>25.6</ele>
        <time>2021-07-03 18:01:40</time>
      </trkpt>
      <trkpt lat="29.1276" lon="-13.59305">
        <ele>25.6</ele>
        <time>2021-07-03 18:01:41</time>
      </trkpt>
      <trkpt lat="29.12759" lon="-13.5931">
        <ele>25.6</ele>
        <time>2021-07-03 18:01:42</time>
      </trkpt>
      <trkpt lat="29.12758" lon="-13.59314">
        <ele>25.6</ele>
        <time>2021-07-03 18:01:43</time>
      </trkpt>
      <trkpt lat="29.12758" lon="-13.59319">
        <ele>25.6</ele>
        <time>2021-07-03 18:01:44</time>
      </trkpt>
      <trkpt lat="29.12758" lon="-13.59323">
        <ele>25.6</ele>
        <time>2021-07-03 18:01:45</time>
      </trkpt>
      <trkpt lat="29.12757" lon="-13.59328">
        <ele>25.6</ele>
        <time>2021-07-03 18:01:46</time>
      </trkpt>
      <trkpt lat="29.12757" lon="-13.59332">
        <ele>25.6</ele>
        <time>2021-07-03 18:01:47</time>
      </trkpt>
      <trkpt lat="29.12757" lon="-13.59337">
        <ele>25.8</ele>
        <time>2021-07-03 18:01:48</time>
      </trkpt>
      <trkpt lat="29.12757" lon="-13.59342">
        <ele>25.8</ele>
        <time>2021-07-03 18:01:49</time>
      </trkpt>
      <trkpt lat="29.12757" lon="-13.59347">
        <ele>25.8</ele>
        <time>2021-07-03 18:01:50</time>
      </trkpt>
      <trkpt lat="29.12756" lon="-13.59351">
        <ele>25.8</ele>
        <time>2021-07-03 18:01:51</time>
      </trkpt>
      <trkpt lat="29.12755" lon="-13.59356">
        <ele>25.8</ele>
        <time>2021-07-03 18:01:52</time>
      </trkpt>
      <trkpt lat="29.12755" lon="-13.59361">
        <ele>25.8</ele>
        <time>2021-07-03 18:01:53</time>
      </trkpt>
      <trkpt lat="29.12754" lon="-13.59366">
        <ele>25.8</ele>
        <time>2021-07-03 18:01:54</time>
      </trkpt>
      <trkpt lat="29.12753" lon="-13.59371">
        <ele>25.8</ele>
        <time>2021-07-03 18:01:55</time>
      </trkpt>
      <trkpt lat="29.12752" lon="-13.59376">
        <ele>25.8</ele>
        <time>2021-07-03 18:01:56</time>
      </trkpt>
      <trkpt lat="29.12751" lon="-13.59381">
        <ele>25.8</ele>
        <time>2021-07-03 18:01:57</time>
      </trkpt>
      <trkpt lat="29.1275" lon="-13.59386">
        <ele>25.8</ele>
        <time>2021-07-03 18:01:58</time>
      </trkpt>
      <trkpt lat="29.12749" lon="-13.59391">
        <ele>25.8</ele>
        <time>2021-07-03 18:01:59</time>
      </trkpt>
      <trkpt lat="29.12748" lon="-13.59396">
        <ele>26</ele>
        <time>2021-07-03 18:02:00</time>
      </trkpt>
      <trkpt lat="29.12747" lon="-13.59401">
        <ele>26</ele>
        <time>2021-07-03 18:02:01</time>
      </trkpt>
      <trkpt lat="29.12746" lon="-13.59405">
        <ele>26</ele>
        <time>2021-07-03 18:02:02</time>
      </trkpt>
      <trkpt lat="29.12746" lon="-13.5941">
        <ele>25.8</ele>
        <time>2021-07-03 18:02:03</time>
      </trkpt>
      <trkpt lat="29.12745" lon="-13.59415">
        <ele>25.8</ele>
        <time>2021-07-03 18:02:04</time>
      </trkpt>
      <trkpt lat="29.12744" lon="-13.59419">
        <ele>25.8</ele>
        <time>2021-07-03 18:02:05</time>
      </trkpt>
      <trkpt lat="29.12743" lon="-13.59423">
        <ele>25.8</ele>
        <time>2021-07-03 18:02:06</time>
      </trkpt>
      <trkpt lat="29.12742" lon="-13.59427">
        <ele>25.8</ele>
        <time>2021-07-03 18:02:07</time>
      </trkpt>
      <trkpt lat="29.12741" lon="-13.59431">
        <ele>26</ele>
        <time>2021-07-03 18:02:08</time>
      </trkpt>
      <trkpt lat="29.1274" lon="-13.59436">
        <ele>26</ele>
        <time>2021-07-03 18:02:09</time>
      </trkpt>
      <trkpt lat="29.1274" lon="-13.5944">
        <ele>26.4</ele>
        <time>2021-07-03 18:02:10</time>
      </trkpt>
      <trkpt lat="29.12739" lon="-13.59445">
        <ele>26.4</ele>
        <time>2021-07-03 18:02:11</time>
      </trkpt>
      <trkpt lat="29.12738" lon="-13.59449">
        <ele>26.6</ele>
        <time>2021-07-03 18:02:12</time>
      </trkpt>
      <trkpt lat="29.12738" lon="-13.59453">
        <ele>26.6</ele>
        <time>2021-07-03 18:02:13</time>
      </trkpt>
      <trkpt lat="29.12737" lon="-13.59457">
        <ele>27</ele>
        <time>2021-07-03 18:02:14</time>
      </trkpt>
      <trkpt lat="29.12737" lon="-13.59462">
        <ele>27</ele>
        <time>2021-07-03 18:02:15</time>
      </trkpt>
      <trkpt lat="29.12736" lon="-13.59466">
        <ele>27.2</ele>
        <time>2021-07-03 18:02:16</time>
      </trkpt>
      <trkpt lat="29.12735" lon="-13.5947">
        <ele>27.2</ele>
        <time>2021-07-03 18:02:17</time>
      </trkpt>
      <trkpt lat="29.12735" lon="-13.59475">
        <ele>27.2</ele>
        <time>2021-07-03 18:02:18</time>
      </trkpt>
      <trkpt lat="29.12734" lon="-13.59479">
        <ele>27.4</ele>
        <time>2021-07-03 18:02:19</time>
      </trkpt>
      <trkpt lat="29.12734" lon="-13.59484">
        <ele>27.4</ele>
        <time>2021-07-03 18:02:20</time>
      </trkpt>
      <trkpt lat="29.12733" lon="-13.59488">
        <ele>27.4</ele>
        <time>2021-07-03 18:02:21</time>
      </trkpt>
      <trkpt lat="29.12733" lon="-13.59492">
        <ele>27.8</ele>
        <time>2021-07-03 18:02:22</time>
      </trkpt>
      <trkpt lat="29.12732" lon="-13.59497">
        <ele>27.8</ele>
        <time>2021-07-03 18:02:23</time>
      </trkpt>
      <trkpt lat="29.12731" lon="-13.59501">
        <ele>27.8</ele>
        <time>2021-07-03 18:02:24</time>
      </trkpt>
      <trkpt lat="29.1273" lon="-13.59505">
        <ele>27.8</ele>
        <time>2021-07-03 18:02:25</time>
      </trkpt>
      <trkpt lat="29.12728" lon="-13.59509">
        <ele>27.8</ele>
        <time>2021-07-03 18:02:26</time>
      </trkpt>
      <trkpt lat="29.12727" lon="-13.59513">
        <ele>27.8</ele>
        <time>2021-07-03 18:02:27</time>
      </trkpt>
      <trkpt lat="29.12724" lon="-13.59533">
        <ele>27.6</ele>
        <time>2021-07-03 18:02:28</time>
      </trkpt>
      <trkpt lat="29.12723" lon="-13.59537">
        <ele>27.6</ele>
        <time>2021-07-03 18:02:29</time>
      </trkpt>
      <trkpt lat="29.12722" lon="-13.59541">
        <ele>27.6</ele>
        <time>2021-07-03 18:02:30</time>
      </trkpt>
      <trkpt lat="29.12721" lon="-13.59545">
        <ele>27.2</ele>
        <time>2021-07-03 18:02:31</time>
      </trkpt>
      <trkpt lat="29.1272" lon="-13.59548">
        <ele>27.2</ele>
        <time>2021-07-03 18:02:32</time>
      </trkpt>
      <trkpt lat="29.1272" lon="-13.59552">
        <ele>27.4</ele>
        <time>2021-07-03 18:02:33</time>
      </trkpt>
      <trkpt lat="29.12719" lon="-13.59555">
        <ele>27.4</ele>
        <time>2021-07-03 18:02:34</time>
      </trkpt>
      <trkpt lat="29.12719" lon="-13.59558">
        <ele>27.4</ele>
        <time>2021-07-03 18:02:35</time>
      </trkpt>
      <trkpt lat="29.12718" lon="-13.59562">
        <ele>27.8</ele>
        <time>2021-07-03 18:02:36</time>
      </trkpt>
      <trkpt lat="29.12717" lon="-13.59565">
        <ele>27.8</ele>
        <time>2021-07-03 18:02:37</time>
      </trkpt>
      <trkpt lat="29.12716" lon="-13.59568">
        <ele>28</ele>
        <time>2021-07-03 18:02:38</time>
      </trkpt>
      <trkpt lat="29.12715" lon="-13.59572">
        <ele>28</ele>
        <time>2021-07-03 18:02:39</time>
      </trkpt>
      <trkpt lat="29.12715" lon="-13.59575">
        <ele>28.4</ele>
        <time>2021-07-03 18:02:40</time>
      </trkpt>
      <trkpt lat="29.12714" lon="-13.59579">
        <ele>28.4</ele>
        <time>2021-07-03 18:02:41</time>
      </trkpt>
      <trkpt lat="29.12713" lon="-13.59582">
        <ele>28.6</ele>
        <time>2021-07-03 18:02:42</time>
      </trkpt>
      <trkpt lat="29.12712" lon="-13.59586">
        <ele>28.6</ele>
        <time>2021-07-03 18:02:43</time>
      </trkpt>
      <trkpt lat="29.12711" lon="-13.5959">
        <ele>29</ele>
        <time>2021-07-03 18:02:44</time>
      </trkpt>
      <trkpt lat="29.1271" lon="-13.59594">
        <ele>29</ele>
        <time>2021-07-03 18:02:45</time>
      </trkpt>
      <trkpt lat="29.12708" lon="-13.59601">
        <ele>29.2</ele>
        <time>2021-07-03 18:02:46</time>
      </trkpt>
      <trkpt lat="29.12707" lon="-13.59606">
        <ele>29.2</ele>
        <time>2021-07-03 18:02:47</time>
      </trkpt>
      <trkpt lat="29.12706" lon="-13.5961">
        <ele>29.2</ele>
        <time>2021-07-03 18:02:48</time>
      </trkpt>
      <trkpt lat="29.12705" lon="-13.59614">
        <ele>29.4</ele>
        <time>2021-07-03 18:02:49</time>
      </trkpt>
      <trkpt lat="29.12704" lon="-13.59618">
        <ele>29.4</ele>
        <time>2021-07-03 18:02:50</time>
      </trkpt>
      <trkpt lat="29.12703" lon="-13.59622">
        <ele>29.6</ele>
        <time>2021-07-03 18:02:51</time>
      </trkpt>
      <trkpt lat="29.12703" lon="-13.59626">
        <ele>29.6</ele>
        <time>2021-07-03 18:02:52</time>
      </trkpt>
      <trkpt lat="29.12702" lon="-13.5963">
        <ele>30</ele>
        <time>2021-07-03 18:02:53</time>
      </trkpt>
      <trkpt lat="29.12701" lon="-13.59634">
        <ele>30</ele>
        <time>2021-07-03 18:02:54</time>
      </trkpt>
      <trkpt lat="29.12699" lon="-13.59638">
        <ele>30.2</ele>
        <time>2021-07-03 18:02:55</time>
      </trkpt>
      <trkpt lat="29.12698" lon="-13.59641">
        <ele>30.2</ele>
        <time>2021-07-03 18:02:56</time>
      </trkpt>
      <trkpt lat="29.12697" lon="-13.59645">
        <ele>30.4</ele>
        <time>2021-07-03 18:02:57</time>
      </trkpt>
      <trkpt lat="29.12696" lon="-13.59649">
        <ele>30.4</ele>
        <time>2021-07-03 18:02:58</time>
      </trkpt>
      <trkpt lat="29.12695" lon="-13.59652">
        <ele>30.6</ele>
        <time>2021-07-03 18:02:59</time>
      </trkpt>
      <trkpt lat="29.12694" lon="-13.59656">
        <ele>30.6</ele>
        <time>2021-07-03 18:03:00</time>
      </trkpt>
      <trkpt lat="29.12693" lon="-13.5966">
        <ele>31</ele>
        <time>2021-07-03 18:03:01</time>
      </trkpt>
      <trkpt lat="29.12691" lon="-13.59664">
        <ele>31</ele>
        <time>2021-07-03 18:03:02</time>
      </trkpt>
      <trkpt lat="29.1269" lon="-13.59667">
        <ele>31.2</ele>
        <time>2021-07-03 18:03:03</time>
      </trkpt>
      <trkpt lat="29.1269" lon="-13.59671">
        <ele>31.2</ele>
        <time>2021-07-03 18:03:04</time>
      </trkpt>
      <trkpt lat="29.12689" lon="-13.59674">
        <ele>31.4</ele>
        <time>2021-07-03 18:03:05</time>
      </trkpt>
      <trkpt lat="29.12688" lon="-13.59678">
        <ele>31.4</ele>
        <time>2021-07-03 18:03:06</time>
      </trkpt>
      <trkpt lat="29.12688" lon="-13.59681">
        <ele>31.8</ele>
        <time>2021-07-03 18:03:07</time>
      </trkpt>
      <trkpt lat="29.12687" lon="-13.59685">
        <ele>31.8</ele>
        <time>2021-07-03 18:03:08</time>
      </trkpt>
      <trkpt lat="29.12687" lon="-13.59688">
        <ele>32</ele>
        <time>2021-07-03 18:03:09</time>
      </trkpt>
      <trkpt lat="29.12686" lon="-13.59691">
        <ele>32.2</ele>
        <time>2021-07-03 18:03:10</time>
      </trkpt>
      <trkpt lat="29.12686" lon="-13.59694">
        <ele>32.2</ele>
        <time>2021-07-03 18:03:11</time>
      </trkpt>
      <trkpt lat="29.12685" lon="-13.59697">
        <ele>32.6</ele>
        <time>2021-07-03 18:03:12</time>
      </trkpt>
      <trkpt lat="29.12685" lon="-13.597">
        <ele>33</ele>
        <time>2021-07-03 18:03:13</time>
      </trkpt>
      <trkpt lat="29.12684" lon="-13.59703">
        <ele>33.4</ele>
        <time>2021-07-03 18:03:14</time>
      </trkpt>
      <trkpt lat="29.12684" lon="-13.59706">
        <ele>33.6</ele>
        <time>2021-07-03 18:03:15</time>
      </trkpt>
      <trkpt lat="29.12683" lon="-13.59709">
        <ele>33.8</ele>
        <time>2021-07-03 18:03:16</time>
      </trkpt>
      <trkpt lat="29.12683" lon="-13.59713">
        <ele>34</ele>
        <time>2021-07-03 18:03:17</time>
      </trkpt>
      <trkpt lat="29.12683" lon="-13.59716">
        <ele>34.2</ele>
        <time>2021-07-03 18:03:18</time>
      </trkpt>
      <trkpt lat="29.12683" lon="-13.59719">
        <ele>34.2</ele>
        <time>2021-07-03 18:03:19</time>
      </trkpt>
      <trkpt lat="29.12683" lon="-13.59722">
        <ele>34.2</ele>
        <time>2021-07-03 18:03:20</time>
      </trkpt>
      <trkpt lat="29.12683" lon="-13.59725">
        <ele>34.6</ele>
        <time>2021-07-03 18:03:21</time>
      </trkpt>
      <trkpt lat="29.12683" lon="-13.59728">
        <ele>34.6</ele>
        <time>2021-07-03 18:03:22</time>
      </trkpt>
      <trkpt lat="29.12683" lon="-13.59731">
        <ele>34.8</ele>
        <time>2021-07-03 18:03:23</time>
      </trkpt>
      <trkpt lat="29.12683" lon="-13.59734">
        <ele>34.8</ele>
        <time>2021-07-03 18:03:24</time>
      </trkpt>
      <trkpt lat="29.12683" lon="-13.59736">
        <ele>34.8</ele>
        <time>2021-07-03 18:03:25</time>
      </trkpt>
      <trkpt lat="29.12683" lon="-13.59739">
        <ele>34.8</ele>
        <time>2021-07-03 18:03:26</time>
      </trkpt>
      <trkpt lat="29.12683" lon="-13.59742">
        <ele>34.8</ele>
        <time>2021-07-03 18:03:27</time>
      </trkpt>
      <trkpt lat="29.12683" lon="-13.59745">
        <ele>35.2</ele>
        <time>2021-07-03 18:03:28</time>
      </trkpt>
      <trkpt lat="29.12683" lon="-13.59747">
        <ele>35.4</ele>
        <time>2021-07-03 18:03:29</time>
      </trkpt>
      <trkpt lat="29.12682" lon="-13.5975">
        <ele>35.6</ele>
        <time>2021-07-03 18:03:30</time>
      </trkpt>
      <trkpt lat="29.12683" lon="-13.59753">
        <ele>35.8</ele>
        <time>2021-07-03 18:03:31</time>
      </trkpt>
      <trkpt lat="29.12683" lon="-13.59756">
        <ele>36.2</ele>
        <time>2021-07-03 18:03:32</time>
      </trkpt>
      <trkpt lat="29.12682" lon="-13.59759">
        <ele>36.2</ele>
        <time>2021-07-03 18:03:33</time>
      </trkpt>
      <trkpt lat="29.12682" lon="-13.59762">
        <ele>36.6</ele>
        <time>2021-07-03 18:03:34</time>
      </trkpt>
      <trkpt lat="29.12682" lon="-13.59765">
        <ele>36.8</ele>
        <time>2021-07-03 18:03:35</time>
      </trkpt>
      <trkpt lat="29.12682" lon="-13.59768">
        <ele>36.8</ele>
        <time>2021-07-03 18:03:36</time>
      </trkpt>
      <trkpt lat="29.12682" lon="-13.59771">
        <ele>37.2</ele>
        <time>2021-07-03 18:03:37</time>
      </trkpt>
      <trkpt lat="29.12682" lon="-13.59774">
        <ele>37.2</ele>
        <time>2021-07-03 18:03:38</time>
      </trkpt>
      <trkpt lat="29.12682" lon="-13.59777">
        <ele>37.6</ele>
        <time>2021-07-03 18:03:39</time>
      </trkpt>
      <trkpt lat="29.12682" lon="-13.5978">
        <ele>37.8</ele>
        <time>2021-07-03 18:03:40</time>
      </trkpt>
      <trkpt lat="29.12682" lon="-13.59783">
        <ele>37.8</ele>
        <time>2021-07-03 18:03:41</time>
      </trkpt>
      <trkpt lat="29.12682" lon="-13.59786">
        <ele>38</ele>
        <time>2021-07-03 18:03:42</time>
      </trkpt>
      <trkpt lat="29.12682" lon="-13.59789">
        <ele>38</ele>
        <time>2021-07-03 18:03:43</time>
      </trkpt>
      <trkpt lat="29.12681" lon="-13.59792">
        <ele>38.4</ele>
        <time>2021-07-03 18:03:44</time>
      </trkpt>
      <trkpt lat="29.12681" lon="-13.59795">
        <ele>38.4</ele>
        <time>2021-07-03 18:03:45</time>
      </trkpt>
      <trkpt lat="29.12681" lon="-13.59799">
        <ele>38.6</ele>
        <time>2021-07-03 18:03:46</time>
      </trkpt>
      <trkpt lat="29.12681" lon="-13.59802">
        <ele>38.6</ele>
        <time>2021-07-03 18:03:47</time>
      </trkpt>
      <trkpt lat="29.12681" lon="-13.59805">
        <ele>39</ele>
        <time>2021-07-03 18:03:48</time>
      </trkpt>
      <trkpt lat="29.12681" lon="-13.59808">
        <ele>39</ele>
        <time>2021-07-03 18:03:49</time>
      </trkpt>
      <trkpt lat="29.12681" lon="-13.59811">
        <ele>39.2</ele>
        <time>2021-07-03 18:03:50</time>
      </trkpt>
      <trkpt lat="29.12681" lon="-13.59814">
        <ele>39.2</ele>
        <time>2021-07-03 18:03:51</time>
      </trkpt>
      <trkpt lat="29.12682" lon="-13.59818">
        <ele>39.2</ele>
        <time>2021-07-03 18:03:52</time>
      </trkpt>
      <trkpt lat="29.12682" lon="-13.59821">
        <ele>39.4</ele>
        <time>2021-07-03 18:03:53</time>
      </trkpt>
      <trkpt lat="29.12682" lon="-13.59825">
        <ele>39.4</ele>
        <time>2021-07-03 18:03:54</time>
      </trkpt>
      <trkpt lat="29.12682" lon="-13.59828">
        <ele>39.4</ele>
        <time>2021-07-03 18:03:55</time>
      </trkpt>
      <trkpt lat="29.12682" lon="-13.59831">
        <ele>39.6</ele>
        <time>2021-07-03 18:03:56</time>
      </trkpt>
      <trkpt lat="29.12682" lon="-13.59835">
        <ele>39.6</ele>
        <time>2021-07-03 18:03:57</time>
      </trkpt>
      <trkpt lat="29.12683" lon="-13.59839">
        <ele>39.6</ele>
        <time>2021-07-03 18:03:58</time>
      </trkpt>
      <trkpt lat="29.12683" lon="-13.59843">
        <ele>40</ele>
        <time>2021-07-03 18:03:59</time>
      </trkpt>
      <trkpt lat="29.12683" lon="-13.59846">
        <ele>40</ele>
        <time>2021-07-03 18:04:00</time>
      </trkpt>
      <trkpt lat="29.12683" lon="-13.5985">
        <ele>40.2</ele>
        <time>2021-07-03 18:04:01</time>
      </trkpt>
      <trkpt lat="29.12683" lon="-13.59854">
        <ele>40.2</ele>
        <time>2021-07-03 18:04:02</time>
      </trkpt>
      <trkpt lat="29.12683" lon="-13.59857">
        <ele>40.2</ele>
        <time>2021-07-03 18:04:03</time>
      </trkpt>
      <trkpt lat="29.12683" lon="-13.59861">
        <ele>40.4</ele>
        <time>2021-07-03 18:04:04</time>
      </trkpt>
      <trkpt lat="29.12683" lon="-13.59865">
        <ele>40.4</ele>
        <time>2021-07-03 18:04:05</time>
      </trkpt>
      <trkpt lat="29.12683" lon="-13.59869">
        <ele>40.6</ele>
        <time>2021-07-03 18:04:06</time>
      </trkpt>
      <trkpt lat="29.12683" lon="-13.59872">
        <ele>40.6</ele>
        <time>2021-07-03 18:04:07</time>
      </trkpt>
      <trkpt lat="29.12683" lon="-13.59876">
        <ele>41</ele>
        <time>2021-07-03 18:04:08</time>
      </trkpt>
      <trkpt lat="29.12683" lon="-13.59879">
        <ele>41</ele>
        <time>2021-07-03 18:04:09</time>
      </trkpt>
      <trkpt lat="29.12683" lon="-13.59883">
        <ele>41.4</ele>
        <time>2021-07-03 18:04:10</time>
      </trkpt>
      <trkpt lat="29.12683" lon="-13.59886">
        <ele>41.4</ele>
        <time>2021-07-03 18:04:11</time>
      </trkpt>
      <trkpt lat="29.12683" lon="-13.5989">
        <ele>41.6</ele>
        <time>2021-07-03 18:04:12</time>
      </trkpt>
      <trkpt lat="29.12683" lon="-13.59893">
        <ele>41.6</ele>
        <time>2021-07-03 18:04:13</time>
      </trkpt>
      <trkpt lat="29.12683" lon="-13.59897">
        <ele>41.8</ele>
        <time>2021-07-03 18:04:14</time>
      </trkpt>
      <trkpt lat="29.12683" lon="-13.59901">
        <ele>41.8</ele>
        <time>2021-07-03 18:04:15</time>
      </trkpt>
      <trkpt lat="29.12684" lon="-13.59904">
        <ele>42.2</ele>
        <time>2021-07-03 18:04:16</time>
      </trkpt>
      <trkpt lat="29.12684" lon="-13.59908">
        <ele>42.2</ele>
        <time>2021-07-03 18:04:17</time>
      </trkpt>
      <trkpt lat="29.12684" lon="-13.59912">
        <ele>42.4</ele>
        <time>2021-07-03 18:04:18</time>
      </trkpt>
      <trkpt lat="29.12684" lon="-13.59915">
        <ele>42.4</ele>
        <time>2021-07-03 18:04:19</time>
      </trkpt>
      <trkpt lat="29.12684" lon="-13.59919">
        <ele>42.8</ele>
        <time>2021-07-03 18:04:20</time>
      </trkpt>
      <trkpt lat="29.12684" lon="-13.59923">
        <ele>42.8</ele>
        <time>2021-07-03 18:04:21</time>
      </trkpt>
      <trkpt lat="29.12684" lon="-13.59927">
        <ele>43</ele>
        <time>2021-07-03 18:04:22</time>
      </trkpt>
      <trkpt lat="29.12683" lon="-13.59931">
        <ele>43</ele>
        <time>2021-07-03 18:04:23</time>
      </trkpt>
      <trkpt lat="29.12683" lon="-13.59934">
        <ele>43</ele>
        <time>2021-07-03 18:04:24</time>
      </trkpt>
      <trkpt lat="29.12682" lon="-13.59937">
        <ele>43</ele>
        <time>2021-07-03 18:04:25</time>
      </trkpt>
      <trkpt lat="29.12682" lon="-13.5994">
        <ele>43</ele>
        <time>2021-07-03 18:04:26</time>
      </trkpt>
      <trkpt lat="29.12683" lon="-13.59943">
        <ele>43</ele>
        <time>2021-07-03 18:04:27</time>
      </trkpt>
      <trkpt lat="29.12683" lon="-13.59947">
        <ele>43</ele>
        <time>2021-07-03 18:04:28</time>
      </trkpt>
      <trkpt lat="29.12683" lon="-13.59952">
        <ele>43</ele>
        <time>2021-07-03 18:04:29</time>
      </trkpt>
      <trkpt lat="29.12683" lon="-13.59956">
        <ele>43.4</ele>
        <time>2021-07-03 18:04:30</time>
      </trkpt>
      <trkpt lat="29.12684" lon="-13.5996">
        <ele>43.4</ele>
        <time>2021-07-03 18:04:31</time>
      </trkpt>
      <trkpt lat="29.12684" lon="-13.59965">
        <ele>43.4</ele>
        <time>2021-07-03 18:04:32</time>
      </trkpt>
      <trkpt lat="29.12684" lon="-13.59969">
        <ele>43.4</ele>
        <time>2021-07-03 18:04:33</time>
      </trkpt>
      <trkpt lat="29.12684" lon="-13.59973">
        <ele>43.4</ele>
        <time>2021-07-03 18:04:34</time>
      </trkpt>
      <trkpt lat="29.12684" lon="-13.59977">
        <ele>43.4</ele>
        <time>2021-07-03 18:04:35</time>
      </trkpt>
      <trkpt lat="29.12684" lon="-13.59982">
        <ele>43</ele>
        <time>2021-07-03 18:04:36</time>
      </trkpt>
      <trkpt lat="29.12685" lon="-13.59986">
        <ele>43</ele>
        <time>2021-07-03 18:04:37</time>
      </trkpt>
      <trkpt lat="29.12685" lon="-13.5999">
        <ele>43</ele>
        <time>2021-07-03 18:04:38</time>
      </trkpt>
      <trkpt lat="29.12685" lon="-13.59995">
        <ele>43.2</ele>
        <time>2021-07-03 18:04:39</time>
      </trkpt>
      <trkpt lat="29.12686" lon="-13.59999">
        <ele>43.2</ele>
        <time>2021-07-03 18:04:40</time>
      </trkpt>
      <trkpt lat="29.12686" lon="-13.60004">
        <ele>43.2</ele>
        <time>2021-07-03 18:04:41</time>
      </trkpt>
      <trkpt lat="29.12686" lon="-13.60009">
        <ele>43.2</ele>
        <time>2021-07-03 18:04:42</time>
      </trkpt>
      <trkpt lat="29.12686" lon="-13.60013">
        <ele>43.2</ele>
        <time>2021-07-03 18:04:43</time>
      </trkpt>
      <trkpt lat="29.12686" lon="-13.60018">
        <ele>43.2</ele>
        <time>2021-07-03 18:04:44</time>
      </trkpt>
      <trkpt lat="29.12686" lon="-13.60023">
        <ele>43.2</ele>
        <time>2021-07-03 18:04:45</time>
      </trkpt>
      <trkpt lat="29.12687" lon="-13.60028">
        <ele>43.2</ele>
        <time>2021-07-03 18:04:46</time>
      </trkpt>
      <trkpt lat="29.12687" lon="-13.60032">
        <ele>43.2</ele>
        <time>2021-07-03 18:04:47</time>
      </trkpt>
      <trkpt lat="29.12687" lon="-13.60037">
        <ele>43.2</ele>
        <time>2021-07-03 18:04:48</time>
      </trkpt>
      <trkpt lat="29.12687" lon="-13.60042">
        <ele>43.2</ele>
        <time>2021-07-03 18:04:49</time>
      </trkpt>
      <trkpt lat="29.12687" lon="-13.60046">
        <ele>43.2</ele>
        <time>2021-07-03 18:04:50</time>
      </trkpt>
      <trkpt lat="29.12688" lon="-13.60051">
        <ele>43</ele>
        <time>2021-07-03 18:04:51</time>
      </trkpt>
      <trkpt lat="29.12688" lon="-13.60056">
        <ele>43</ele>
        <time>2021-07-03 18:04:52</time>
      </trkpt>
      <trkpt lat="29.12688" lon="-13.60061">
        <ele>43</ele>
        <time>2021-07-03 18:04:53</time>
      </trkpt>
      <trkpt lat="29.12688" lon="-13.60066">
        <ele>43</ele>
        <time>2021-07-03 18:04:54</time>
      </trkpt>
      <trkpt lat="29.12688" lon="-13.60071">
        <ele>43</ele>
        <time>2021-07-03 18:04:55</time>
      </trkpt>
      <trkpt lat="29.12688" lon="-13.60076">
        <ele>43</ele>
        <time>2021-07-03 18:04:56</time>
      </trkpt>
      <trkpt lat="29.12688" lon="-13.60081">
        <ele>43</ele>
        <time>2021-07-03 18:04:57</time>
      </trkpt>
      <trkpt lat="29.12688" lon="-13.60086">
        <ele>43.4</ele>
        <time>2021-07-03 18:04:58</time>
      </trkpt>
      <trkpt lat="29.12688" lon="-13.60091">
        <ele>43.4</ele>
        <time>2021-07-03 18:04:59</time>
      </trkpt>
      <trkpt lat="29.12689" lon="-13.60095">
        <ele>43.4</ele>
        <time>2021-07-03 18:05:00</time>
      </trkpt>
      <trkpt lat="29.12689" lon="-13.601">
        <ele>43.4</ele>
        <time>2021-07-03 18:05:01</time>
      </trkpt>
      <trkpt lat="29.12689" lon="-13.60105">
        <ele>43.4</ele>
        <time>2021-07-03 18:05:02</time>
      </trkpt>
      <trkpt lat="29.1269" lon="-13.6011">
        <ele>43.6</ele>
        <time>2021-07-03 18:05:03</time>
      </trkpt>
      <trkpt lat="29.1269" lon="-13.60115">
        <ele>43.6</ele>
        <time>2021-07-03 18:05:04</time>
      </trkpt>
      <trkpt lat="29.12691" lon="-13.60119">
        <ele>43.8</ele>
        <time>2021-07-03 18:05:05</time>
      </trkpt>
      <trkpt lat="29.12692" lon="-13.60124">
        <ele>43.8</ele>
        <time>2021-07-03 18:05:06</time>
      </trkpt>
      <trkpt lat="29.12692" lon="-13.60128">
        <ele>43.8</ele>
        <time>2021-07-03 18:05:07</time>
      </trkpt>
      <trkpt lat="29.12693" lon="-13.60132">
        <ele>43.8</ele>
        <time>2021-07-03 18:05:08</time>
      </trkpt>
      <trkpt lat="29.12693" lon="-13.60136">
        <ele>44</ele>
        <time>2021-07-03 18:05:09</time>
      </trkpt>
      <trkpt lat="29.12694" lon="-13.6014">
        <ele>44</ele>
        <time>2021-07-03 18:05:10</time>
      </trkpt>
      <trkpt lat="29.12694" lon="-13.60144">
        <ele>44</ele>
        <time>2021-07-03 18:05:11</time>
      </trkpt>
      <trkpt lat="29.12695" lon="-13.60148">
        <ele>44.4</ele>
        <time>2021-07-03 18:05:12</time>
      </trkpt>
      <trkpt lat="29.12695" lon="-13.60152">
        <ele>44.4</ele>
        <time>2021-07-03 18:05:13</time>
      </trkpt>
      <trkpt lat="29.12695" lon="-13.60156">
        <ele>44.6</ele>
        <time>2021-07-03 18:05:14</time>
      </trkpt>
      <trkpt lat="29.12694" lon="-13.6016">
        <ele>44.6</ele>
        <time>2021-07-03 18:05:15</time>
      </trkpt>
      <trkpt lat="29.12694" lon="-13.60164">
        <ele>44.8</ele>
        <time>2021-07-03 18:05:16</time>
      </trkpt>
      <trkpt lat="29.12694" lon="-13.60167">
        <ele>44.8</ele>
        <time>2021-07-03 18:05:17</time>
      </trkpt>
      <trkpt lat="29.12693" lon="-13.60171">
        <ele>45.2</ele>
        <time>2021-07-03 18:05:18</time>
      </trkpt>
      <trkpt lat="29.12693" lon="-13.60174">
        <ele>45.2</ele>
        <time>2021-07-03 18:05:19</time>
      </trkpt>
      <trkpt lat="29.12692" lon="-13.60177">
        <ele>45.2</ele>
        <time>2021-07-03 18:05:20</time>
      </trkpt>
      <trkpt lat="29.12691" lon="-13.60181">
        <ele>45.6</ele>
        <time>2021-07-03 18:05:21</time>
      </trkpt>
      <trkpt lat="29.1269" lon="-13.60185">
        <ele>45.6</ele>
        <time>2021-07-03 18:05:22</time>
      </trkpt>
      <trkpt lat="29.1269" lon="-13.60188">
        <ele>45.8</ele>
        <time>2021-07-03 18:05:23</time>
      </trkpt>
      <trkpt lat="29.12689" lon="-13.60192">
        <ele>45.8</ele>
        <time>2021-07-03 18:05:24</time>
      </trkpt>
      <trkpt lat="29.12688" lon="-13.60195">
        <ele>45.8</ele>
        <time>2021-07-03 18:05:25</time>
      </trkpt>
      <trkpt lat="29.12687" lon="-13.602">
        <ele>45.8</ele>
        <time>2021-07-03 18:05:26</time>
      </trkpt>
      <trkpt lat="29.12686" lon="-13.60204">
        <ele>46</ele>
        <time>2021-07-03 18:05:27</time>
      </trkpt>
      <trkpt lat="29.12685" lon="-13.60208">
        <ele>46</ele>
        <time>2021-07-03 18:05:28</time>
      </trkpt>
      <trkpt lat="29.12685" lon="-13.60212">
        <ele>46</ele>
        <time>2021-07-03 18:05:29</time>
      </trkpt>
      <trkpt lat="29.12684" lon="-13.60216">
        <ele>46</ele>
        <time>2021-07-03 18:05:30</time>
      </trkpt>
      <trkpt lat="29.12683" lon="-13.60219">
        <ele>46.4</ele>
        <time>2021-07-03 18:05:31</time>
      </trkpt>
      <trkpt lat="29.12682" lon="-13.60223">
        <ele>46.4</ele>
        <time>2021-07-03 18:05:32</time>
      </trkpt>
      <trkpt lat="29.12681" lon="-13.60227">
        <ele>46.4</ele>
        <time>2021-07-03 18:05:33</time>
      </trkpt>
      <trkpt lat="29.12681" lon="-13.60231">
        <ele>46.6</ele>
        <time>2021-07-03 18:05:34</time>
      </trkpt>
      <trkpt lat="29.1268" lon="-13.60235">
        <ele>46.6</ele>
        <time>2021-07-03 18:05:35</time>
      </trkpt>
      <trkpt lat="29.1268" lon="-13.60238">
        <ele>46.8</ele>
        <time>2021-07-03 18:05:36</time>
      </trkpt>
      <trkpt lat="29.12679" lon="-13.60241">
        <ele>46.8</ele>
        <time>2021-07-03 18:05:37</time>
      </trkpt>
      <trkpt lat="29.12678" lon="-13.60245">
        <ele>46.8</ele>
        <time>2021-07-03 18:05:38</time>
      </trkpt>
      <trkpt lat="29.12678" lon="-13.60248">
        <ele>47</ele>
        <time>2021-07-03 18:05:39</time>
      </trkpt>
      <trkpt lat="29.12677" lon="-13.60251">
        <ele>47</ele>
        <time>2021-07-03 18:05:40</time>
      </trkpt>
      <trkpt lat="29.12677" lon="-13.60255">
        <ele>47.2</ele>
        <time>2021-07-03 18:05:41</time>
      </trkpt>
      <trkpt lat="29.12676" lon="-13.60259">
        <ele>47.2</ele>
        <time>2021-07-03 18:05:42</time>
      </trkpt>
      <trkpt lat="29.12675" lon="-13.60262">
        <ele>47.6</ele>
        <time>2021-07-03 18:05:43</time>
      </trkpt>
      <trkpt lat="29.12674" lon="-13.60266">
        <ele>47.6</ele>
        <time>2021-07-03 18:05:44</time>
      </trkpt>
      <trkpt lat="29.12673" lon="-13.60269">
        <ele>47.8</ele>
        <time>2021-07-03 18:05:45</time>
      </trkpt>
      <trkpt lat="29.12672" lon="-13.60273">
        <ele>47.8</ele>
        <time>2021-07-03 18:05:46</time>
      </trkpt>
      <trkpt lat="29.12671" lon="-13.60277">
        <ele>48</ele>
        <time>2021-07-03 18:05:47</time>
      </trkpt>
      <trkpt lat="29.1267" lon="-13.6028">
        <ele>48</ele>
        <time>2021-07-03 18:05:48</time>
      </trkpt>
      <trkpt lat="29.12669" lon="-13.60284">
        <ele>48.2</ele>
        <time>2021-07-03 18:05:49</time>
      </trkpt>
      <trkpt lat="29.12668" lon="-13.60288">
        <ele>48.2</ele>
        <time>2021-07-03 18:05:50</time>
      </trkpt>
      <trkpt lat="29.12667" lon="-13.60292">
        <ele>48.4</ele>
        <time>2021-07-03 18:05:51</time>
      </trkpt>
      <trkpt lat="29.12666" lon="-13.60295">
        <ele>48.4</ele>
        <time>2021-07-03 18:05:52</time>
      </trkpt>
      <trkpt lat="29.12665" lon="-13.60299">
        <ele>48.8</ele>
        <time>2021-07-03 18:05:53</time>
      </trkpt>
      <trkpt lat="29.12664" lon="-13.60303">
        <ele>48.8</ele>
        <time>2021-07-03 18:05:54</time>
      </trkpt>
      <trkpt lat="29.12663" lon="-13.60307">
        <ele>48.8</ele>
        <time>2021-07-03 18:05:55</time>
      </trkpt>
      <trkpt lat="29.12662" lon="-13.6031">
        <ele>49.2</ele>
        <time>2021-07-03 18:05:56</time>
      </trkpt>
      <trkpt lat="29.1266" lon="-13.60313">
        <ele>49.2</ele>
        <time>2021-07-03 18:05:57</time>
      </trkpt>
      <trkpt lat="29.12658" lon="-13.60317">
        <ele>49.4</ele>
        <time>2021-07-03 18:05:58</time>
      </trkpt>
      <trkpt lat="29.12657" lon="-13.6032">
        <ele>49.4</ele>
        <time>2021-07-03 18:05:59</time>
      </trkpt>
      <trkpt lat="29.12656" lon="-13.60323">
        <ele>49.4</ele>
        <time>2021-07-03 18:06:00</time>
      </trkpt>
      <trkpt lat="29.12654" lon="-13.60327">
        <ele>49.4</ele>
        <time>2021-07-03 18:06:01</time>
      </trkpt>
      <trkpt lat="29.12653" lon="-13.6033">
        <ele>49.6</ele>
        <time>2021-07-03 18:06:02</time>
      </trkpt>
      <trkpt lat="29.12651" lon="-13.60333">
        <ele>49.6</ele>
        <time>2021-07-03 18:06:03</time>
      </trkpt>
      <trkpt lat="29.12649" lon="-13.60337">
        <ele>49.6</ele>
        <time>2021-07-03 18:06:04</time>
      </trkpt>
      <trkpt lat="29.12648" lon="-13.6034">
        <ele>49.8</ele>
        <time>2021-07-03 18:06:05</time>
      </trkpt>
      <trkpt lat="29.12646" lon="-13.60343">
        <ele>49.8</ele>
        <time>2021-07-03 18:06:06</time>
      </trkpt>
      <trkpt lat="29.12644" lon="-13.60347">
        <ele>49.8</ele>
        <time>2021-07-03 18:06:07</time>
      </trkpt>
      <trkpt lat="29.12641" lon="-13.60349">
        <ele>50.2</ele>
        <time>2021-07-03 18:06:08</time>
      </trkpt>
      <trkpt lat="29.12639" lon="-13.60352">
        <ele>50.2</ele>
        <time>2021-07-03 18:06:09</time>
      </trkpt>
      <trkpt lat="29.12636" lon="-13.60355">
        <ele>50.2</ele>
        <time>2021-07-03 18:06:10</time>
      </trkpt>
      <trkpt lat="29.12633" lon="-13.60357">
        <ele>50.6</ele>
        <time>2021-07-03 18:06:11</time>
      </trkpt>
      <trkpt lat="29.12631" lon="-13.6036">
        <ele>50.6</ele>
        <time>2021-07-03 18:06:12</time>
      </trkpt>
      <trkpt lat="29.12628" lon="-13.60362">
        <ele>50.6</ele>
        <time>2021-07-03 18:06:13</time>
      </trkpt>
      <trkpt lat="29.12626" lon="-13.60364">
        <ele>50.8</ele>
        <time>2021-07-03 18:06:14</time>
      </trkpt>
      <trkpt lat="29.12623" lon="-13.60367">
        <ele>50.8</ele>
        <time>2021-07-03 18:06:15</time>
      </trkpt>
      <trkpt lat="29.1262" lon="-13.60369">
        <ele>50.8</ele>
        <time>2021-07-03 18:06:16</time>
      </trkpt>
      <trkpt lat="29.12618" lon="-13.60372">
        <ele>51</ele>
        <time>2021-07-03 18:06:17</time>
      </trkpt>
      <trkpt lat="29.12616" lon="-13.60376">
        <ele>51</ele>
        <time>2021-07-03 18:06:18</time>
      </trkpt>
      <trkpt lat="29.12613" lon="-13.60379">
        <ele>51</ele>
        <time>2021-07-03 18:06:19</time>
      </trkpt>
      <trkpt lat="29.12611" lon="-13.60382">
        <ele>51.4</ele>
        <time>2021-07-03 18:06:20</time>
      </trkpt>
      <trkpt lat="29.12608" lon="-13.60385">
        <ele>51.4</ele>
        <time>2021-07-03 18:06:21</time>
      </trkpt>
      <trkpt lat="29.12606" lon="-13.60388">
        <ele>51.4</ele>
        <time>2021-07-03 18:06:22</time>
      </trkpt>
      <trkpt lat="29.12603" lon="-13.6039">
        <ele>51.4</ele>
        <time>2021-07-03 18:06:23</time>
      </trkpt>
      <trkpt lat="29.126" lon="-13.60392">
        <ele>51.4</ele>
        <time>2021-07-03 18:06:24</time>
      </trkpt>
      <trkpt lat="29.12598" lon="-13.60395">
        <ele>51.4</ele>
        <time>2021-07-03 18:06:25</time>
      </trkpt>
      <trkpt lat="29.12595" lon="-13.60398">
        <ele>51.4</ele>
        <time>2021-07-03 18:06:26</time>
      </trkpt>
      <trkpt lat="29.12593" lon="-13.60401">
        <ele>51.4</ele>
        <time>2021-07-03 18:06:27</time>
      </trkpt>
      <trkpt lat="29.1259" lon="-13.60404">
        <ele>51.4</ele>
        <time>2021-07-03 18:06:28</time>
      </trkpt>
      <trkpt lat="29.12587" lon="-13.60407">
        <ele>51.4</ele>
        <time>2021-07-03 18:06:29</time>
      </trkpt>
      <trkpt lat="29.12585" lon="-13.60409">
        <ele>51.4</ele>
        <time>2021-07-03 18:06:30</time>
      </trkpt>
      <trkpt lat="29.12582" lon="-13.60412">
        <ele>51.4</ele>
        <time>2021-07-03 18:06:31</time>
      </trkpt>
      <trkpt lat="29.12579" lon="-13.60415">
        <ele>51.4</ele>
        <time>2021-07-03 18:06:32</time>
      </trkpt>
      <trkpt lat="29.12576" lon="-13.60418">
        <ele>51.4</ele>
        <time>2021-07-03 18:06:33</time>
      </trkpt>
      <trkpt lat="29.12573" lon="-13.6042">
        <ele>51.6</ele>
        <time>2021-07-03 18:06:34</time>
      </trkpt>
      <trkpt lat="29.1257" lon="-13.60423">
        <ele>51.6</ele>
        <time>2021-07-03 18:06:35</time>
      </trkpt>
      <trkpt lat="29.12567" lon="-13.60426">
        <ele>51.6</ele>
        <time>2021-07-03 18:06:36</time>
      </trkpt>
      <trkpt lat="29.12564" lon="-13.60428">
        <ele>51.8</ele>
        <time>2021-07-03 18:06:37</time>
      </trkpt>
      <trkpt lat="29.12562" lon="-13.60431">
        <ele>51.8</ele>
        <time>2021-07-03 18:06:38</time>
      </trkpt>
      <trkpt lat="29.12559" lon="-13.60434">
        <ele>52.2</ele>
        <time>2021-07-03 18:06:39</time>
      </trkpt>
      <trkpt lat="29.12557" lon="-13.60436">
        <ele>52.2</ele>
        <time>2021-07-03 18:06:40</time>
      </trkpt>
      <trkpt lat="29.12555" lon="-13.60439">
        <ele>52.2</ele>
        <time>2021-07-03 18:06:41</time>
      </trkpt>
      <trkpt lat="29.12552" lon="-13.60442">
        <ele>52.4</ele>
        <time>2021-07-03 18:06:42</time>
      </trkpt>
      <trkpt lat="29.1255" lon="-13.60445">
        <ele>52.4</ele>
        <time>2021-07-03 18:06:43</time>
      </trkpt>
      <trkpt lat="29.12548" lon="-13.60448">
        <ele>52.4</ele>
        <time>2021-07-03 18:06:44</time>
      </trkpt>
      <trkpt lat="29.12545" lon="-13.60451">
        <ele>52.4</ele>
        <time>2021-07-03 18:06:45</time>
      </trkpt>
      <trkpt lat="29.12543" lon="-13.60453">
        <ele>52.4</ele>
        <time>2021-07-03 18:06:46</time>
      </trkpt>
      <trkpt lat="29.12541" lon="-13.60455">
        <ele>52.6</ele>
        <time>2021-07-03 18:06:47</time>
      </trkpt>
      <trkpt lat="29.12539" lon="-13.60457">
        <ele>52.6</ele>
        <time>2021-07-03 18:06:48</time>
      </trkpt>
      <trkpt lat="29.12538" lon="-13.60459">
        <ele>52.8</ele>
        <time>2021-07-03 18:06:49</time>
      </trkpt>
      <trkpt lat="29.12535" lon="-13.60461">
        <ele>52.8</ele>
        <time>2021-07-03 18:06:50</time>
      </trkpt>
      <trkpt lat="29.12533" lon="-13.60464">
        <ele>53</ele>
        <time>2021-07-03 18:06:51</time>
      </trkpt>
      <trkpt lat="29.1253" lon="-13.60467">
        <ele>53</ele>
        <time>2021-07-03 18:06:52</time>
      </trkpt>
      <trkpt lat="29.12528" lon="-13.60469">
        <ele>53</ele>
        <time>2021-07-03 18:06:53</time>
      </trkpt>
      <trkpt lat="29.12526" lon="-13.60472">
        <ele>53</ele>
        <time>2021-07-03 18:06:54</time>
      </trkpt>
      <trkpt lat="29.12524" lon="-13.60474">
        <ele>53.4</ele>
        <time>2021-07-03 18:06:55</time>
      </trkpt>
      <trkpt lat="29.12521" lon="-13.60476">
        <ele>53.4</ele>
        <time>2021-07-03 18:06:56</time>
      </trkpt>
      <trkpt lat="29.12519" lon="-13.60479">
        <ele>53.4</ele>
        <time>2021-07-03 18:06:57</time>
      </trkpt>
      <trkpt lat="29.12516" lon="-13.60482">
        <ele>53.6</ele>
        <time>2021-07-03 18:06:58</time>
      </trkpt>
      <trkpt lat="29.12514" lon="-13.60485">
        <ele>53.6</ele>
        <time>2021-07-03 18:06:59</time>
      </trkpt>
      <trkpt lat="29.12512" lon="-13.60488">
        <ele>53.8</ele>
        <time>2021-07-03 18:07:00</time>
      </trkpt>
      <trkpt lat="29.1251" lon="-13.60492">
        <ele>53.8</ele>
        <time>2021-07-03 18:07:01</time>
      </trkpt>
      <trkpt lat="29.12508" lon="-13.60495">
        <ele>54.2</ele>
        <time>2021-07-03 18:07:02</time>
      </trkpt>
      <trkpt lat="29.12506" lon="-13.60499">
        <ele>54.4</ele>
        <time>2021-07-03 18:07:03</time>
      </trkpt>
      <trkpt lat="29.12504" lon="-13.60503">
        <ele>54.4</ele>
        <time>2021-07-03 18:07:04</time>
      </trkpt>
      <trkpt lat="29.12503" lon="-13.60507">
        <ele>54.4</ele>
        <time>2021-07-03 18:07:05</time>
      </trkpt>
      <trkpt lat="29.12501" lon="-13.60511">
        <ele>54.8</ele>
        <time>2021-07-03 18:07:06</time>
      </trkpt>
      <trkpt lat="29.12499" lon="-13.60515">
        <ele>54.8</ele>
        <time>2021-07-03 18:07:07</time>
      </trkpt>
      <trkpt lat="29.12498" lon="-13.60518">
        <ele>54.8</ele>
        <time>2021-07-03 18:07:08</time>
      </trkpt>
      <trkpt lat="29.12497" lon="-13.60522">
        <ele>55</ele>
        <time>2021-07-03 18:07:09</time>
      </trkpt>
      <trkpt lat="29.12495" lon="-13.60526">
        <ele>55</ele>
        <time>2021-07-03 18:07:10</time>
      </trkpt>
      <trkpt lat="29.12495" lon="-13.6053">
        <ele>55</ele>
        <time>2021-07-03 18:07:11</time>
      </trkpt>
      <trkpt lat="29.12495" lon="-13.60533">
        <ele>55.4</ele>
        <time>2021-07-03 18:07:12</time>
      </trkpt>
      <trkpt lat="29.12494" lon="-13.60537">
        <ele>55.4</ele>
        <time>2021-07-03 18:07:13</time>
      </trkpt>
      <trkpt lat="29.12494" lon="-13.60539">
        <ele>55.4</ele>
        <time>2021-07-03 18:07:14</time>
      </trkpt>
      <trkpt lat="29.12494" lon="-13.6054">
        <ele>55.4</ele>
        <time>2021-07-03 18:07:15</time>
      </trkpt>
      <trkpt lat="29.12494" lon="-13.6054">
        <ele>55.4</ele>
        <time>2021-07-03 18:07:16</time>
      </trkpt>
      <trkpt lat="29.12494" lon="-13.6054">
        <ele>55.4</ele>
        <time>2021-07-03 18:07:17</time>
      </trkpt>
      <trkpt lat="29.12494" lon="-13.60539">
        <ele>55.4</ele>
        <time>2021-07-03 18:07:18</time>
      </trkpt>
      <trkpt lat="29.12493" lon="-13.6054">
        <ele>55.4</ele>
        <time>2021-07-03 18:07:19</time>
      </trkpt>
      <trkpt lat="29.12493" lon="-13.60541">
        <ele>55.4</ele>
        <time>2021-07-03 18:07:20</time>
      </trkpt>
      <trkpt lat="29.12492" lon="-13.60544">
        <ele>55.4</ele>
        <time>2021-07-03 18:07:21</time>
      </trkpt>
      <trkpt lat="29.12491" lon="-13.60546">
        <ele>55.4</ele>
        <time>2021-07-03 18:07:22</time>
      </trkpt>
      <trkpt lat="29.1249" lon="-13.60549">
        <ele>55.2</ele>
        <time>2021-07-03 18:07:23</time>
      </trkpt>
      <trkpt lat="29.12489" lon="-13.60553">
        <ele>55</ele>
        <time>2021-07-03 18:07:24</time>
      </trkpt>
      <trkpt lat="29.12488" lon="-13.60556">
        <ele>55</ele>
        <time>2021-07-03 18:07:25</time>
      </trkpt>
      <trkpt lat="29.12488" lon="-13.60559">
        <ele>54.8</ele>
        <time>2021-07-03 18:07:26</time>
      </trkpt>
      <trkpt lat="29.12486" lon="-13.60562">
        <ele>54.8</ele>
        <time>2021-07-03 18:07:27</time>
      </trkpt>
      <trkpt lat="29.12485" lon="-13.60565">
        <ele>54.8</ele>
        <time>2021-07-03 18:07:28</time>
      </trkpt>
      <trkpt lat="29.12485" lon="-13.60569">
        <ele>54.8</ele>
        <time>2021-07-03 18:07:29</time>
      </trkpt>
      <trkpt lat="29.12484" lon="-13.60573">
        <ele>54.8</ele>
        <time>2021-07-03 18:07:30</time>
      </trkpt>
      <trkpt lat="29.12483" lon="-13.60576">
        <ele>54.8</ele>
        <time>2021-07-03 18:07:31</time>
      </trkpt>
      <trkpt lat="29.12481" lon="-13.6058">
        <ele>54.8</ele>
        <time>2021-07-03 18:07:32</time>
      </trkpt>
      <trkpt lat="29.1248" lon="-13.60584">
        <ele>54.8</ele>
        <time>2021-07-03 18:07:33</time>
      </trkpt>
      <trkpt lat="29.12479" lon="-13.60587">
        <ele>54.6</ele>
        <time>2021-07-03 18:07:34</time>
      </trkpt>
      <trkpt lat="29.12478" lon="-13.60591">
        <ele>54.6</ele>
        <time>2021-07-03 18:07:35</time>
      </trkpt>
      <trkpt lat="29.12477" lon="-13.60596">
        <ele>54.6</ele>
        <time>2021-07-03 18:07:36</time>
      </trkpt>
      <trkpt lat="29.12476" lon="-13.606">
        <ele>54.4</ele>
        <time>2021-07-03 18:07:37</time>
      </trkpt>
      <trkpt lat="29.12475" lon="-13.60604">
        <ele>54.4</ele>
        <time>2021-07-03 18:07:38</time>
      </trkpt>
      <trkpt lat="29.12474" lon="-13.60608">
        <ele>54.4</ele>
        <time>2021-07-03 18:07:39</time>
      </trkpt>
      <trkpt lat="29.12473" lon="-13.60613">
        <ele>54</ele>
        <time>2021-07-03 18:07:40</time>
      </trkpt>
      <trkpt lat="29.12471" lon="-13.60618">
        <ele>54</ele>
        <time>2021-07-03 18:07:41</time>
      </trkpt>
      <trkpt lat="29.1247" lon="-13.60622">
        <ele>54</ele>
        <time>2021-07-03 18:07:42</time>
      </trkpt>
      <trkpt lat="29.12468" lon="-13.60628">
        <ele>53.8</ele>
        <time>2021-07-03 18:07:43</time>
      </trkpt>
      <trkpt lat="29.12467" lon="-13.60633">
        <ele>53.8</ele>
        <time>2021-07-03 18:07:44</time>
      </trkpt>
      <trkpt lat="29.12466" lon="-13.60638">
        <ele>53.4</ele>
        <time>2021-07-03 18:07:45</time>
      </trkpt>
      <trkpt lat="29.12464" lon="-13.60643">
        <ele>53.4</ele>
        <time>2021-07-03 18:07:46</time>
      </trkpt>
      <trkpt lat="29.12462" lon="-13.60648">
        <ele>53.2</ele>
        <time>2021-07-03 18:07:47</time>
      </trkpt>
      <trkpt lat="29.12461" lon="-13.60653">
        <ele>53.2</ele>
        <time>2021-07-03 18:07:48</time>
      </trkpt>
      <trkpt lat="29.1246" lon="-13.60658">
        <ele>53</ele>
        <time>2021-07-03 18:07:49</time>
      </trkpt>
      <trkpt lat="29.12458" lon="-13.60662">
        <ele>53</ele>
        <time>2021-07-03 18:07:50</time>
      </trkpt>
      <trkpt lat="29.12457" lon="-13.60667">
        <ele>52.6</ele>
        <time>2021-07-03 18:07:51</time>
      </trkpt>
      <trkpt lat="29.12456" lon="-13.60671">
        <ele>52.6</ele>
        <time>2021-07-03 18:07:52</time>
      </trkpt>
      <trkpt lat="29.12455" lon="-13.60676">
        <ele>52.4</ele>
        <time>2021-07-03 18:07:53</time>
      </trkpt>
      <trkpt lat="29.12453" lon="-13.6068">
        <ele>52.4</ele>
        <time>2021-07-03 18:07:54</time>
      </trkpt>
      <trkpt lat="29.12452" lon="-13.60684">
        <ele>52.4</ele>
        <time>2021-07-03 18:07:55</time>
      </trkpt>
      <trkpt lat="29.12451" lon="-13.60689">
        <ele>52.4</ele>
        <time>2021-07-03 18:07:56</time>
      </trkpt>
      <trkpt lat="29.1245" lon="-13.60694">
        <ele>52.4</ele>
        <time>2021-07-03 18:07:57</time>
      </trkpt>
      <trkpt lat="29.12448" lon="-13.60699">
        <ele>52.4</ele>
        <time>2021-07-03 18:07:58</time>
      </trkpt>
      <trkpt lat="29.12447" lon="-13.60705">
        <ele>52.4</ele>
        <time>2021-07-03 18:07:59</time>
      </trkpt>
      <trkpt lat="29.12446" lon="-13.6071">
        <ele>52.4</ele>
        <time>2021-07-03 18:08:00</time>
      </trkpt>
      <trkpt lat="29.12444" lon="-13.60715">
        <ele>52.4</ele>
        <time>2021-07-03 18:08:01</time>
      </trkpt>
      <trkpt lat="29.12443" lon="-13.6072">
        <ele>52.4</ele>
        <time>2021-07-03 18:08:02</time>
      </trkpt>
      <trkpt lat="29.12441" lon="-13.60726">
        <ele>52.4</ele>
        <time>2021-07-03 18:08:03</time>
      </trkpt>
      <trkpt lat="29.12439" lon="-13.60732">
        <ele>52.4</ele>
        <time>2021-07-03 18:08:04</time>
      </trkpt>
      <trkpt lat="29.12438" lon="-13.60737">
        <ele>52.4</ele>
        <time>2021-07-03 18:08:05</time>
      </trkpt>
      <trkpt lat="29.12437" lon="-13.60743">
        <ele>52.4</ele>
        <time>2021-07-03 18:08:06</time>
      </trkpt>
      <trkpt lat="29.12435" lon="-13.60749">
        <ele>52.4</ele>
        <time>2021-07-03 18:08:07</time>
      </trkpt>
      <trkpt lat="29.12434" lon="-13.60755">
        <ele>52.2</ele>
        <time>2021-07-03 18:08:08</time>
      </trkpt>
      <trkpt lat="29.12432" lon="-13.60761">
        <ele>52.2</ele>
        <time>2021-07-03 18:08:09</time>
      </trkpt>
      <trkpt lat="29.12431" lon="-13.60766">
        <ele>52.2</ele>
        <time>2021-07-03 18:08:10</time>
      </trkpt>
      <trkpt lat="29.1243" lon="-13.60771">
        <ele>51.8</ele>
        <time>2021-07-03 18:08:11</time>
      </trkpt>
      <trkpt lat="29.12428" lon="-13.60777">
        <ele>51.8</ele>
        <time>2021-07-03 18:08:12</time>
      </trkpt>
      <trkpt lat="29.12427" lon="-13.60783">
        <ele>51.8</ele>
        <time>2021-07-03 18:08:13</time>
      </trkpt>
      <trkpt lat="29.12426" lon="-13.60788">
        <ele>51.6</ele>
        <time>2021-07-03 18:08:14</time>
      </trkpt>
      <trkpt lat="29.12424" lon="-13.60794">
        <ele>51.6</ele>
        <time>2021-07-03 18:08:15</time>
      </trkpt>
      <trkpt lat="29.12423" lon="-13.60799">
        <ele>51.4</ele>
        <time>2021-07-03 18:08:16</time>
      </trkpt>
      <trkpt lat="29.12422" lon="-13.60805">
        <ele>51.2</ele>
        <time>2021-07-03 18:08:17</time>
      </trkpt>
      <trkpt lat="29.1242" lon="-13.6081">
        <ele>51</ele>
        <time>2021-07-03 18:08:18</time>
      </trkpt>
      <trkpt lat="29.12419" lon="-13.60816">
        <ele>50.8</ele>
        <time>2021-07-03 18:08:19</time>
      </trkpt>
      <trkpt lat="29.12418" lon="-13.60822">
        <ele>50.8</ele>
        <time>2021-07-03 18:08:20</time>
      </trkpt>
      <trkpt lat="29.12416" lon="-13.60827">
        <ele>50.6</ele>
        <time>2021-07-03 18:08:21</time>
      </trkpt>
      <trkpt lat="29.12415" lon="-13.60832">
        <ele>50.6</ele>
        <time>2021-07-03 18:08:22</time>
      </trkpt>
      <trkpt lat="29.12414" lon="-13.60837">
        <ele>50.2</ele>
        <time>2021-07-03 18:08:23</time>
      </trkpt>
      <trkpt lat="29.12414" lon="-13.60843">
        <ele>50.2</ele>
        <time>2021-07-03 18:08:24</time>
      </trkpt>
      <trkpt lat="29.12412" lon="-13.60848">
        <ele>50</ele>
        <time>2021-07-03 18:08:25</time>
      </trkpt>
      <trkpt lat="29.12411" lon="-13.60853">
        <ele>50</ele>
        <time>2021-07-03 18:08:26</time>
      </trkpt>
      <trkpt lat="29.12409" lon="-13.60858">
        <ele>49.8</ele>
        <time>2021-07-03 18:08:27</time>
      </trkpt>
      <trkpt lat="29.12407" lon="-13.60863">
        <ele>49.8</ele>
        <time>2021-07-03 18:08:28</time>
      </trkpt>
      <trkpt lat="29.12406" lon="-13.60868">
        <ele>49.4</ele>
        <time>2021-07-03 18:08:29</time>
      </trkpt>
      <trkpt lat="29.12405" lon="-13.60873">
        <ele>49.4</ele>
        <time>2021-07-03 18:08:30</time>
      </trkpt>
      <trkpt lat="29.12403" lon="-13.60877">
        <ele>49.4</ele>
        <time>2021-07-03 18:08:31</time>
      </trkpt>
      <trkpt lat="29.12402" lon="-13.60882">
        <ele>49</ele>
        <time>2021-07-03 18:08:32</time>
      </trkpt>
      <trkpt lat="29.124" lon="-13.60886">
        <ele>49</ele>
        <time>2021-07-03 18:08:33</time>
      </trkpt>
      <trkpt lat="29.12399" lon="-13.60892">
        <ele>48.8</ele>
        <time>2021-07-03 18:08:34</time>
      </trkpt>
      <trkpt lat="29.12397" lon="-13.60896">
        <ele>48.8</ele>
        <time>2021-07-03 18:08:35</time>
      </trkpt>
      <trkpt lat="29.12395" lon="-13.60901">
        <ele>48.6</ele>
        <time>2021-07-03 18:08:36</time>
      </trkpt>
      <trkpt lat="29.12394" lon="-13.60905">
        <ele>48.6</ele>
        <time>2021-07-03 18:08:37</time>
      </trkpt>
      <trkpt lat="29.12392" lon="-13.60908">
        <ele>48.4</ele>
        <time>2021-07-03 18:08:38</time>
      </trkpt>
      <trkpt lat="29.1239" lon="-13.60912">
        <ele>48.4</ele>
        <time>2021-07-03 18:08:39</time>
      </trkpt>
      <trkpt lat="29.12388" lon="-13.60915">
        <ele>47.8</ele>
        <time>2021-07-03 18:08:40</time>
      </trkpt>
      <trkpt lat="29.12386" lon="-13.60919">
        <ele>47.8</ele>
        <time>2021-07-03 18:08:41</time>
      </trkpt>
      <trkpt lat="29.12384" lon="-13.60924">
        <ele>47.6</ele>
        <time>2021-07-03 18:08:42</time>
      </trkpt>
      <trkpt lat="29.12382" lon="-13.60929">
        <ele>47.6</ele>
        <time>2021-07-03 18:08:43</time>
      </trkpt>
      <trkpt lat="29.12379" lon="-13.60933">
        <ele>47.6</ele>
        <time>2021-07-03 18:08:44</time>
      </trkpt>
      <trkpt lat="29.12377" lon="-13.60937">
        <ele>47.2</ele>
        <time>2021-07-03 18:08:45</time>
      </trkpt>
      <trkpt lat="29.12375" lon="-13.60942">
        <ele>47.2</ele>
        <time>2021-07-03 18:08:46</time>
      </trkpt>
      <trkpt lat="29.12373" lon="-13.60946">
        <ele>46.8</ele>
        <time>2021-07-03 18:08:47</time>
      </trkpt>
      <trkpt lat="29.12371" lon="-13.6095">
        <ele>46.8</ele>
        <time>2021-07-03 18:08:48</time>
      </trkpt>
      <trkpt lat="29.12369" lon="-13.60955">
        <ele>46.6</ele>
        <time>2021-07-03 18:08:49</time>
      </trkpt>
      <trkpt lat="29.12366" lon="-13.60959">
        <ele>46.6</ele>
        <time>2021-07-03 18:08:50</time>
      </trkpt>
      <trkpt lat="29.12364" lon="-13.60964">
        <ele>46.6</ele>
        <time>2021-07-03 18:08:51</time>
      </trkpt>
      <trkpt lat="29.12362" lon="-13.60969">
        <ele>46.4</ele>
        <time>2021-07-03 18:08:52</time>
      </trkpt>
      <trkpt lat="29.12359" lon="-13.60974">
        <ele>46.4</ele>
        <time>2021-07-03 18:08:53</time>
      </trkpt>
      <trkpt lat="29.12357" lon="-13.60979">
        <ele>46.4</ele>
        <time>2021-07-03 18:08:54</time>
      </trkpt>
      <trkpt lat="29.12355" lon="-13.60984">
        <ele>46.2</ele>
        <time>2021-07-03 18:09:39</time>
      </trkpt>
      <trkpt lat="29.12352" lon="-13.60989">
        <ele>46.2</ele>
        <time>2021-07-03 18:09:40</time>
      </trkpt>
      <trkpt lat="29.12351" lon="-13.60994">
        <ele>46.2</ele>
        <time>2021-07-03 18:09:41</time>
      </trkpt>
      <trkpt lat="29.12348" lon="-13.60999">
        <ele>46.2</ele>
        <time>2021-07-03 18:09:42</time>
      </trkpt>
      <trkpt lat="29.12346" lon="-13.61003">
        <ele>46.2</ele>
        <time>2021-07-03 18:09:43</time>
      </trkpt>
      <trkpt lat="29.12344" lon="-13.61007">
        <ele>45.6</ele>
        <time>2021-07-03 18:09:44</time>
      </trkpt>
      <trkpt lat="29.12341" lon="-13.61011">
        <ele>45.4</ele>
        <time>2021-07-03 18:09:45</time>
      </trkpt>
      <trkpt lat="29.12339" lon="-13.61015">
        <ele>45</ele>
        <time>2021-07-03 18:09:46</time>
      </trkpt>
      <trkpt lat="29.12337" lon="-13.61019">
        <ele>44.8</ele>
        <time>2021-07-03 18:09:47</time>
      </trkpt>
      <trkpt lat="29.12335" lon="-13.61022">
        <ele>44.8</ele>
        <time>2021-07-03 18:09:48</time>
      </trkpt>
      <trkpt lat="29.12333" lon="-13.61026">
        <ele>44.8</ele>
        <time>2021-07-03 18:09:49</time>
      </trkpt>
      <trkpt lat="29.12332" lon="-13.61029">
        <ele>44.6</ele>
        <time>2021-07-03 18:09:50</time>
      </trkpt>
      <trkpt lat="29.12332" lon="-13.61032">
        <ele>44.6</ele>
        <time>2021-07-03 18:09:51</time>
      </trkpt>
      <trkpt lat="29.12331" lon="-13.61036">
        <ele>44.6</ele>
        <time>2021-07-03 18:09:52</time>
      </trkpt>
      <trkpt lat="29.12331" lon="-13.6104">
        <ele>44.6</ele>
        <time>2021-07-03 18:09:53</time>
      </trkpt>
      <trkpt lat="29.1233" lon="-13.61045">
        <ele>44.4</ele>
        <time>2021-07-03 18:09:54</time>
      </trkpt>
      <trkpt lat="29.1233" lon="-13.61049">
        <ele>44.2</ele>
        <time>2021-07-03 18:09:55</time>
      </trkpt>
      <trkpt lat="29.12331" lon="-13.61054">
        <ele>43.8</ele>
        <time>2021-07-03 18:09:56</time>
      </trkpt>
      <trkpt lat="29.12331" lon="-13.61059">
        <ele>43.8</ele>
        <time>2021-07-03 18:09:57</time>
      </trkpt>
      <trkpt lat="29.12332" lon="-13.61063">
        <ele>43.6</ele>
        <time>2021-07-03 18:09:58</time>
      </trkpt>
      <trkpt lat="29.12333" lon="-13.61068">
        <ele>43.6</ele>
        <time>2021-07-03 18:09:59</time>
      </trkpt>
      <trkpt lat="29.12333" lon="-13.61072">
        <ele>43.2</ele>
        <time>2021-07-03 18:10:00</time>
      </trkpt>
      <trkpt lat="29.12334" lon="-13.61077">
        <ele>43.2</ele>
        <time>2021-07-03 18:10:01</time>
      </trkpt>
      <trkpt lat="29.12335" lon="-13.61081">
        <ele>42.8</ele>
        <time>2021-07-03 18:10:02</time>
      </trkpt>
      <trkpt lat="29.12335" lon="-13.61086">
        <ele>42.8</ele>
        <time>2021-07-03 18:10:03</time>
      </trkpt>
      <trkpt lat="29.12336" lon="-13.6109">
        <ele>42.6</ele>
        <time>2021-07-03 18:10:04</time>
      </trkpt>
      <trkpt lat="29.12337" lon="-13.61093">
        <ele>42.6</ele>
        <time>2021-07-03 18:10:05</time>
      </trkpt>
      <trkpt lat="29.12337" lon="-13.61097">
        <ele>42.2</ele>
        <time>2021-07-03 18:10:06</time>
      </trkpt>
      <trkpt lat="29.12338" lon="-13.611">
        <ele>42.2</ele>
        <time>2021-07-03 18:10:07</time>
      </trkpt>
      <trkpt lat="29.12338" lon="-13.61103">
        <ele>42</ele>
        <time>2021-07-03 18:10:08</time>
      </trkpt>
      <trkpt lat="29.12339" lon="-13.61107">
        <ele>42</ele>
        <time>2021-07-03 18:10:09</time>
      </trkpt>
      <trkpt lat="29.12339" lon="-13.61111">
        <ele>42</ele>
        <time>2021-07-03 18:10:10</time>
      </trkpt>
      <trkpt lat="29.1234" lon="-13.61115">
        <ele>42</ele>
        <time>2021-07-03 18:10:11</time>
      </trkpt>
      <trkpt lat="29.12341" lon="-13.61119">
        <ele>41.6</ele>
        <time>2021-07-03 18:10:12</time>
      </trkpt>
      <trkpt lat="29.12342" lon="-13.61123">
        <ele>41.6</ele>
        <time>2021-07-03 18:10:13</time>
      </trkpt>
      <trkpt lat="29.12342" lon="-13.61126">
        <ele>41.2</ele>
        <time>2021-07-03 18:10:14</time>
      </trkpt>
      <trkpt lat="29.12343" lon="-13.61129">
        <ele>41.2</ele>
        <time>2021-07-03 18:10:15</time>
      </trkpt>
      <trkpt lat="29.12343" lon="-13.61133">
        <ele>41</ele>
        <time>2021-07-03 18:10:16</time>
      </trkpt>
      <trkpt lat="29.12343" lon="-13.61137">
        <ele>41</ele>
        <time>2021-07-03 18:10:17</time>
      </trkpt>
      <trkpt lat="29.12344" lon="-13.61142">
        <ele>40.8</ele>
        <time>2021-07-03 18:10:18</time>
      </trkpt>
      <trkpt lat="29.12344" lon="-13.61146">
        <ele>40.8</ele>
        <time>2021-07-03 18:10:19</time>
      </trkpt>
      <trkpt lat="29.12344" lon="-13.6115">
        <ele>40.8</ele>
        <time>2021-07-03 18:10:20</time>
      </trkpt>
      <trkpt lat="29.12345" lon="-13.61153">
        <ele>40.8</ele>
        <time>2021-07-03 18:10:21</time>
      </trkpt>
      <trkpt lat="29.12345" lon="-13.61156">
        <ele>40.4</ele>
        <time>2021-07-03 18:10:22</time>
      </trkpt>
      <trkpt lat="29.12346" lon="-13.61159">
        <ele>40.4</ele>
        <time>2021-07-03 18:10:23</time>
      </trkpt>
      <trkpt lat="29.12346" lon="-13.6116">
        <ele>40.2</ele>
        <time>2021-07-03 18:10:24</time>
      </trkpt>
      <trkpt lat="29.12346" lon="-13.6116">
        <ele>40.2</ele>
        <time>2021-07-03 18:10:25</time>
      </trkpt>
      <trkpt lat="29.12346" lon="-13.6116">
        <ele>40</ele>
        <time>2021-07-03 18:10:26</time>
      </trkpt>
      <trkpt lat="29.12346" lon="-13.61159">
        <ele>40</ele>
        <time>2021-07-03 18:10:27</time>
      </trkpt>
      <trkpt lat="29.12346" lon="-13.61161">
        <ele>38.4</ele>
        <time>2021-07-03 18:10:28</time>
      </trkpt>
      <trkpt lat="29.12346" lon="-13.61163">
        <ele>38.8</ele>
        <time>2021-07-03 18:10:29</time>
      </trkpt>
      <trkpt lat="29.12346" lon="-13.61164">
        <ele>38.8</ele>
        <time>2021-07-03 18:10:30</time>
      </trkpt>
      <trkpt lat="29.12346" lon="-13.61164">
        <ele>38.8</ele>
        <time>2021-07-03 18:10:31</time>
      </trkpt>
      <trkpt lat="29.12346" lon="-13.61164">
        <ele>38.8</ele>
        <time>2021-07-03 18:10:32</time>
      </trkpt>
      <trkpt lat="29.12347" lon="-13.61164">
        <ele>38.8</ele>
        <time>2021-07-03 18:10:33</time>
      </trkpt>
      <trkpt lat="29.12348" lon="-13.61164">
        <ele>38.8</ele>
        <time>2021-07-03 18:10:34</time>
      </trkpt>
      <trkpt lat="29.12348" lon="-13.61167">
        <ele>38.8</ele>
        <time>2021-07-03 18:10:35</time>
      </trkpt>
      <trkpt lat="29.12349" lon="-13.6117">
        <ele>38.8</ele>
        <time>2021-07-03 18:10:36</time>
      </trkpt>
      <trkpt lat="29.12349" lon="-13.61174">
        <ele>38.8</ele>
        <time>2021-07-03 18:10:37</time>
      </trkpt>
      <trkpt lat="29.1235" lon="-13.61179">
        <ele>38.8</ele>
        <time>2021-07-03 18:10:38</time>
      </trkpt>
      <trkpt lat="29.12352" lon="-13.61183">
        <ele>38.8</ele>
        <time>2021-07-03 18:10:39</time>
      </trkpt>
      <trkpt lat="29.12353" lon="-13.61188">
        <ele>39</ele>
        <time>2021-07-03 18:10:40</time>
      </trkpt>
      <trkpt lat="29.12354" lon="-13.61194">
        <ele>39</ele>
        <time>2021-07-03 18:10:41</time>
      </trkpt>
      <trkpt lat="29.12355" lon="-13.61199">
        <ele>39</ele>
        <time>2021-07-03 18:10:42</time>
      </trkpt>
      <trkpt lat="29.12357" lon="-13.61204">
        <ele>39</ele>
        <time>2021-07-03 18:10:43</time>
      </trkpt>
      <trkpt lat="29.12357" lon="-13.6121">
        <ele>39</ele>
        <time>2021-07-03 18:10:44</time>
      </trkpt>
      <trkpt lat="29.12358" lon="-13.61215">
        <ele>39</ele>
        <time>2021-07-03 18:10:45</time>
      </trkpt>
      <trkpt lat="29.1236" lon="-13.6122">
        <ele>39</ele>
        <time>2021-07-03 18:10:46</time>
      </trkpt>
      <trkpt lat="29.12361" lon="-13.61224">
        <ele>39</ele>
        <time>2021-07-03 18:10:47</time>
      </trkpt>
      <trkpt lat="29.12361" lon="-13.61229">
        <ele>39</ele>
        <time>2021-07-03 18:10:48</time>
      </trkpt>
      <trkpt lat="29.12362" lon="-13.61233">
        <ele>38.8</ele>
        <time>2021-07-03 18:10:49</time>
      </trkpt>
      <trkpt lat="29.12363" lon="-13.61237">
        <ele>38.8</ele>
        <time>2021-07-03 18:10:50</time>
      </trkpt>
      <trkpt lat="29.12364" lon="-13.61242">
        <ele>38.8</ele>
        <time>2021-07-03 18:10:51</time>
      </trkpt>
      <trkpt lat="29.12365" lon="-13.61246">
        <ele>38.8</ele>
        <time>2021-07-03 18:10:52</time>
      </trkpt>
      <trkpt lat="29.12366" lon="-13.61251">
        <ele>38.8</ele>
        <time>2021-07-03 18:10:53</time>
      </trkpt>
      <trkpt lat="29.12367" lon="-13.61256">
        <ele>38.8</ele>
        <time>2021-07-03 18:10:54</time>
      </trkpt>
      <trkpt lat="29.12369" lon="-13.61261">
        <ele>38.8</ele>
        <time>2021-07-03 18:10:55</time>
      </trkpt>
      <trkpt lat="29.1237" lon="-13.61266">
        <ele>38.8</ele>
        <time>2021-07-03 18:10:56</time>
      </trkpt>
      <trkpt lat="29.12371" lon="-13.61271">
        <ele>38.8</ele>
        <time>2021-07-03 18:10:57</time>
      </trkpt>
      <trkpt lat="29.12372" lon="-13.61276">
        <ele>38.8</ele>
        <time>2021-07-03 18:10:58</time>
      </trkpt>
      <trkpt lat="29.12373" lon="-13.61281">
        <ele>38.4</ele>
        <time>2021-07-03 18:10:59</time>
      </trkpt>
      <trkpt lat="29.12374" lon="-13.61286">
        <ele>38.4</ele>
        <time>2021-07-03 18:11:00</time>
      </trkpt>
      <trkpt lat="29.12375" lon="-13.61291">
        <ele>38.4</ele>
        <time>2021-07-03 18:11:01</time>
      </trkpt>
      <trkpt lat="29.12376" lon="-13.61296">
        <ele>38.4</ele>
        <time>2021-07-03 18:11:02</time>
      </trkpt>
      <trkpt lat="29.12377" lon="-13.61301">
        <ele>38.4</ele>
        <time>2021-07-03 18:11:03</time>
      </trkpt>
      <trkpt lat="29.12378" lon="-13.61306">
        <ele>38.4</ele>
        <time>2021-07-03 18:11:04</time>
      </trkpt>
      <trkpt lat="29.12378" lon="-13.61311">
        <ele>38.4</ele>
        <time>2021-07-03 18:11:05</time>
      </trkpt>
      <trkpt lat="29.12379" lon="-13.61315">
        <ele>38.4</ele>
        <time>2021-07-03 18:11:06</time>
      </trkpt>
      <trkpt lat="29.12379" lon="-13.6132">
        <ele>38.4</ele>
        <time>2021-07-03 18:11:07</time>
      </trkpt>
      <trkpt lat="29.1238" lon="-13.61325">
        <ele>38.4</ele>
        <time>2021-07-03 18:11:08</time>
      </trkpt>
      <trkpt lat="29.1238" lon="-13.6133">
        <ele>38.4</ele>
        <time>2021-07-03 18:11:09</time>
      </trkpt>
      <trkpt lat="29.12381" lon="-13.61335">
        <ele>38.2</ele>
        <time>2021-07-03 18:11:10</time>
      </trkpt>
      <trkpt lat="29.12381" lon="-13.6134">
        <ele>38.2</ele>
        <time>2021-07-03 18:11:11</time>
      </trkpt>
      <trkpt lat="29.12382" lon="-13.61344">
        <ele>38.2</ele>
        <time>2021-07-03 18:11:12</time>
      </trkpt>
      <trkpt lat="29.12382" lon="-13.61349">
        <ele>38.2</ele>
        <time>2021-07-03 18:11:13</time>
      </trkpt>
      <trkpt lat="29.12382" lon="-13.61354">
        <ele>38.2</ele>
        <time>2021-07-03 18:11:14</time>
      </trkpt>
      <trkpt lat="29.12383" lon="-13.61359">
        <ele>38.2</ele>
        <time>2021-07-03 18:11:15</time>
      </trkpt>
      <trkpt lat="29.12383" lon="-13.61364">
        <ele>38.2</ele>
        <time>2021-07-03 18:11:16</time>
      </trkpt>
      <trkpt lat="29.12383" lon="-13.61369">
        <ele>38.2</ele>
        <time>2021-07-03 18:11:17</time>
      </trkpt>
      <trkpt lat="29.12384" lon="-13.61373">
        <ele>38.2</ele>
        <time>2021-07-03 18:11:18</time>
      </trkpt>
      <trkpt lat="29.12385" lon="-13.61379">
        <ele>38</ele>
        <time>2021-07-03 18:11:19</time>
      </trkpt>
      <trkpt lat="29.12385" lon="-13.61384">
        <ele>38</ele>
        <time>2021-07-03 18:11:20</time>
      </trkpt>
      <trkpt lat="29.12385" lon="-13.61389">
        <ele>37.6</ele>
        <time>2021-07-03 18:11:21</time>
      </trkpt>
      <trkpt lat="29.12384" lon="-13.61393">
        <ele>37.6</ele>
        <time>2021-07-03 18:11:22</time>
      </trkpt>
      <trkpt lat="29.12382" lon="-13.61396">
        <ele>37.2</ele>
        <time>2021-07-03 18:11:23</time>
      </trkpt>
      <trkpt lat="29.12381" lon="-13.614">
        <ele>36.8</ele>
        <time>2021-07-03 18:11:24</time>
      </trkpt>
      <trkpt lat="29.12378" lon="-13.61404">
        <ele>36.4</ele>
        <time>2021-07-03 18:11:25</time>
      </trkpt>
      <trkpt lat="29.12376" lon="-13.61408">
        <ele>36.2</ele>
        <time>2021-07-03 18:11:26</time>
      </trkpt>
      <trkpt lat="29.12374" lon="-13.61413">
        <ele>36</ele>
        <time>2021-07-03 18:11:27</time>
      </trkpt>
      <trkpt lat="29.12373" lon="-13.61415">
        <ele>36</ele>
        <time>2021-07-03 18:11:28</time>
      </trkpt>
      <trkpt lat="29.12371" lon="-13.61418">
        <ele>35.8</ele>
        <time>2021-07-03 18:11:29</time>
      </trkpt>
      <trkpt lat="29.12369" lon="-13.6142">
        <ele>35.8</ele>
        <time>2021-07-03 18:11:30</time>
      </trkpt>
      <trkpt lat="29.12367" lon="-13.61423">
        <ele>35.8</ele>
        <time>2021-07-03 18:11:31</time>
      </trkpt>
      <trkpt lat="29.12365" lon="-13.61424">
        <ele>35.4</ele>
        <time>2021-07-03 18:11:32</time>
      </trkpt>
      <trkpt lat="29.12364" lon="-13.61426">
        <ele>35.4</ele>
        <time>2021-07-03 18:11:33</time>
      </trkpt>
      <trkpt lat="29.12362" lon="-13.61427">
        <ele>35.4</ele>
        <time>2021-07-03 18:11:34</time>
      </trkpt>
      <trkpt lat="29.1236" lon="-13.61428">
        <ele>35.4</ele>
        <time>2021-07-03 18:11:35</time>
      </trkpt>
      <trkpt lat="29.12358" lon="-13.61429">
        <ele>35.4</ele>
        <time>2021-07-03 18:11:36</time>
      </trkpt>
      <trkpt lat="29.12355" lon="-13.61429">
        <ele>35.4</ele>
        <time>2021-07-03 18:11:37</time>
      </trkpt>
      <trkpt lat="29.12352" lon="-13.61429">
        <ele>35.4</ele>
        <time>2021-07-03 18:11:38</time>
      </trkpt>
      <trkpt lat="29.1235" lon="-13.6143">
        <ele>35.4</ele>
        <time>2021-07-03 18:11:39</time>
      </trkpt>
      <trkpt lat="29.12347" lon="-13.61431">
        <ele>35.2</ele>
        <time>2021-07-03 18:11:40</time>
      </trkpt>
      <trkpt lat="29.12345" lon="-13.61432">
        <ele>35.2</ele>
        <time>2021-07-03 18:11:41</time>
      </trkpt>
      <trkpt lat="29.12343" lon="-13.61433">
        <ele>35.2</ele>
        <time>2021-07-03 18:11:42</time>
      </trkpt>
      <trkpt lat="29.1234" lon="-13.61434">
        <ele>35.2</ele>
        <time>2021-07-03 18:11:43</time>
      </trkpt>
      <trkpt lat="29.12337" lon="-13.61436">
        <ele>35.2</ele>
        <time>2021-07-03 18:11:44</time>
      </trkpt>
      <trkpt lat="29.12335" lon="-13.61437">
        <ele>35.2</ele>
        <time>2021-07-03 18:11:45</time>
      </trkpt>
      <trkpt lat="29.12332" lon="-13.61437">
        <ele>35.2</ele>
        <time>2021-07-03 18:11:46</time>
      </trkpt>
      <trkpt lat="29.12329" lon="-13.61438">
        <ele>35.4</ele>
        <time>2021-07-03 18:11:47</time>
      </trkpt>
      <trkpt lat="29.12326" lon="-13.61438">
        <ele>35.4</ele>
        <time>2021-07-03 18:11:48</time>
      </trkpt>
      <trkpt lat="29.12322" lon="-13.61439">
        <ele>35.4</ele>
        <time>2021-07-03 18:11:49</time>
      </trkpt>
      <trkpt lat="29.12319" lon="-13.61439">
        <ele>35.4</ele>
        <time>2021-07-03 18:11:50</time>
      </trkpt>
      <trkpt lat="29.12316" lon="-13.6144">
        <ele>35.6</ele>
        <time>2021-07-03 18:11:51</time>
      </trkpt>
      <trkpt lat="29.12312" lon="-13.61441">
        <ele>35.6</ele>
        <time>2021-07-03 18:11:52</time>
      </trkpt>
      <trkpt lat="29.12308" lon="-13.61443">
        <ele>35.6</ele>
        <time>2021-07-03 18:11:53</time>
      </trkpt>
      <trkpt lat="29.12305" lon="-13.61445">
        <ele>35.6</ele>
        <time>2021-07-03 18:11:54</time>
      </trkpt>
      <trkpt lat="29.12303" lon="-13.61446">
        <ele>35.6</ele>
        <time>2021-07-03 18:11:55</time>
      </trkpt>
      <trkpt lat="29.123" lon="-13.61448">
        <ele>36</ele>
        <time>2021-07-03 18:11:56</time>
      </trkpt>
      <trkpt lat="29.12297" lon="-13.6145">
        <ele>36</ele>
        <time>2021-07-03 18:11:57</time>
      </trkpt>
      <trkpt lat="29.12294" lon="-13.61452">
        <ele>36.2</ele>
        <time>2021-07-03 18:11:58</time>
      </trkpt>
      <trkpt lat="29.12291" lon="-13.61455">
        <ele>36.2</ele>
        <time>2021-07-03 18:11:59</time>
      </trkpt>
      <trkpt lat="29.12289" lon="-13.61458">
        <ele>36.4</ele>
        <time>2021-07-03 18:12:00</time>
      </trkpt>
      <trkpt lat="29.12287" lon="-13.6146">
        <ele>36.4</ele>
        <time>2021-07-03 18:12:01</time>
      </trkpt>
      <trkpt lat="29.12285" lon="-13.61463">
        <ele>36.4</ele>
        <time>2021-07-03 18:12:02</time>
      </trkpt>
      <trkpt lat="29.12283" lon="-13.61466">
        <ele>36.8</ele>
        <time>2021-07-03 18:12:03</time>
      </trkpt>
      <trkpt lat="29.12281" lon="-13.61469">
        <ele>36.8</ele>
        <time>2021-07-03 18:12:18</time>
      </trkpt>
      <trkpt lat="29.12279" lon="-13.61472">
        <ele>37.2</ele>
        <time>2021-07-03 18:12:19</time>
      </trkpt>
      <trkpt lat="29.12277" lon="-13.61476">
        <ele>37.2</ele>
        <time>2021-07-03 18:12:20</time>
      </trkpt>
      <trkpt lat="29.12275" lon="-13.61479">
        <ele>37.4</ele>
        <time>2021-07-03 18:12:21</time>
      </trkpt>
      <trkpt lat="29.12273" lon="-13.61482">
        <ele>37.4</ele>
        <time>2021-07-03 18:12:22</time>
      </trkpt>
      <trkpt lat="29.12272" lon="-13.61486">
        <ele>37.6</ele>
        <time>2021-07-03 18:12:23</time>
      </trkpt>
      <trkpt lat="29.1227" lon="-13.61489">
        <ele>37.6</ele>
        <time>2021-07-03 18:12:39</time>
      </trkpt>
      <trkpt lat="29.12268" lon="-13.61492">
        <ele>37.8</ele>
        <time>2021-07-03 18:12:40</time>
      </trkpt>
      <trkpt lat="29.12266" lon="-13.61496">
        <ele>37.8</ele>
        <time>2021-07-03 18:12:41</time>
      </trkpt>
      <trkpt lat="29.12263" lon="-13.61499">
        <ele>38.2</ele>
        <time>2021-07-03 18:12:42</time>
      </trkpt>
      <trkpt lat="29.12261" lon="-13.61502">
        <ele>38.2</ele>
        <time>2021-07-03 18:12:43</time>
      </trkpt>
      <trkpt lat="29.12259" lon="-13.61505">
        <ele>38.6</ele>
        <time>2021-07-03 18:12:44</time>
      </trkpt>
      <trkpt lat="29.12257" lon="-13.61508">
        <ele>38.6</ele>
        <time>2021-07-03 18:12:45</time>
      </trkpt>
      <trkpt lat="29.12255" lon="-13.61511">
        <ele>38.6</ele>
        <time>2021-07-03 18:12:46</time>
      </trkpt>
      <trkpt lat="29.12253" lon="-13.61515">
        <ele>38.8</ele>
        <time>2021-07-03 18:12:47</time>
      </trkpt>
      <trkpt lat="29.12251" lon="-13.61518">
        <ele>38.8</ele>
        <time>2021-07-03 18:12:48</time>
      </trkpt>
      <trkpt lat="29.12248" lon="-13.61521">
        <ele>39.2</ele>
        <time>2021-07-03 18:12:49</time>
      </trkpt>
      <trkpt lat="29.12246" lon="-13.61524">
        <ele>39.2</ele>
        <time>2021-07-03 18:12:50</time>
      </trkpt>
      <trkpt lat="29.12243" lon="-13.61527">
        <ele>39.4</ele>
        <time>2021-07-03 18:12:51</time>
      </trkpt>
      <trkpt lat="29.1224" lon="-13.6153">
        <ele>39.4</ele>
        <time>2021-07-03 18:12:52</time>
      </trkpt>
      <trkpt lat="29.12237" lon="-13.61532">
        <ele>39.4</ele>
        <time>2021-07-03 18:12:53</time>
      </trkpt>
      <trkpt lat="29.12234" lon="-13.61535">
        <ele>39.8</ele>
        <time>2021-07-03 18:12:54</time>
      </trkpt>
      <trkpt lat="29.1223" lon="-13.61537">
        <ele>39.8</ele>
        <time>2021-07-03 18:12:55</time>
      </trkpt>
      <trkpt lat="29.12227" lon="-13.61539">
        <ele>39.8</ele>
        <time>2021-07-03 18:12:56</time>
      </trkpt>
      <trkpt lat="29.12224" lon="-13.61542">
        <ele>39.8</ele>
        <time>2021-07-03 18:12:57</time>
      </trkpt>
      <trkpt lat="29.1222" lon="-13.61544">
        <ele>40</ele>
        <time>2021-07-03 18:12:58</time>
      </trkpt>
      <trkpt lat="29.12217" lon="-13.61546">
        <ele>40</ele>
        <time>2021-07-03 18:12:59</time>
      </trkpt>
      <trkpt lat="29.12214" lon="-13.61549">
        <ele>40</ele>
        <time>2021-07-03 18:13:00</time>
      </trkpt>
      <trkpt lat="29.12211" lon="-13.61551">
        <ele>40</ele>
        <time>2021-07-03 18:13:01</time>
      </trkpt>
      <trkpt lat="29.12208" lon="-13.61554">
        <ele>40</ele>
        <time>2021-07-03 18:13:02</time>
      </trkpt>
      <trkpt lat="29.12205" lon="-13.61557">
        <ele>40</ele>
        <time>2021-07-03 18:13:03</time>
      </trkpt>
      <trkpt lat="29.12201" lon="-13.61559">
        <ele>40</ele>
        <time>2021-07-03 18:13:04</time>
      </trkpt>
      <trkpt lat="29.12198" lon="-13.61562">
        <ele>40</ele>
        <time>2021-07-03 18:13:05</time>
      </trkpt>
      <trkpt lat="29.12195" lon="-13.61564">
        <ele>39.8</ele>
        <time>2021-07-03 18:13:06</time>
      </trkpt>
      <trkpt lat="29.12193" lon="-13.61566">
        <ele>39.8</ele>
        <time>2021-07-03 18:13:07</time>
      </trkpt>
      <trkpt lat="29.12191" lon="-13.61568">
        <ele>39.8</ele>
        <time>2021-07-03 18:13:08</time>
      </trkpt>
      <trkpt lat="29.12189" lon="-13.6157">
        <ele>39.8</ele>
        <time>2021-07-03 18:13:09</time>
      </trkpt>
      <trkpt lat="29.12187" lon="-13.61571">
        <ele>40</ele>
        <time>2021-07-03 18:13:10</time>
      </trkpt>
      <trkpt lat="29.12184" lon="-13.61573">
        <ele>40</ele>
        <time>2021-07-03 18:13:11</time>
      </trkpt>
      <trkpt lat="29.12182" lon="-13.61574">
        <ele>40.4</ele>
        <time>2021-07-03 18:13:12</time>
      </trkpt>
      <trkpt lat="29.12179" lon="-13.61576">
        <ele>40.4</ele>
        <time>2021-07-03 18:13:13</time>
      </trkpt>
      <trkpt lat="29.12177" lon="-13.61578">
        <ele>40.6</ele>
        <time>2021-07-03 18:13:14</time>
      </trkpt>
      <trkpt lat="29.12174" lon="-13.6158">
        <ele>40.6</ele>
        <time>2021-07-03 18:13:15</time>
      </trkpt>
      <trkpt lat="29.12171" lon="-13.61583">
        <ele>40.8</ele>
        <time>2021-07-03 18:13:16</time>
      </trkpt>
      <trkpt lat="29.12168" lon="-13.61585">
        <ele>40.8</ele>
        <time>2021-07-03 18:13:17</time>
      </trkpt>
      <trkpt lat="29.12166" lon="-13.61587">
        <ele>41</ele>
        <time>2021-07-03 18:13:18</time>
      </trkpt>
      <trkpt lat="29.12163" lon="-13.6159">
        <ele>41</ele>
        <time>2021-07-03 18:13:19</time>
      </trkpt>
      <trkpt lat="29.1216" lon="-13.61592">
        <ele>41.4</ele>
        <time>2021-07-03 18:13:20</time>
      </trkpt>
      <trkpt lat="29.12157" lon="-13.61593">
        <ele>41.6</ele>
        <time>2021-07-03 18:13:21</time>
      </trkpt>
      <trkpt lat="29.12155" lon="-13.61595">
        <ele>41.6</ele>
        <time>2021-07-03 18:13:22</time>
      </trkpt>
      <trkpt lat="29.12152" lon="-13.61598">
        <ele>41.8</ele>
        <time>2021-07-03 18:13:23</time>
      </trkpt>
      <trkpt lat="29.12149" lon="-13.616">
        <ele>41.8</ele>
        <time>2021-07-03 18:13:24</time>
      </trkpt>
      <trkpt lat="29.12146" lon="-13.61603">
        <ele>42.2</ele>
        <time>2021-07-03 18:13:25</time>
      </trkpt>
      <trkpt lat="29.12143" lon="-13.61606">
        <ele>42.2</ele>
        <time>2021-07-03 18:13:26</time>
      </trkpt>
      <trkpt lat="29.1214" lon="-13.61609">
        <ele>42.4</ele>
        <time>2021-07-03 18:13:27</time>
      </trkpt>
      <trkpt lat="29.12137" lon="-13.61612">
        <ele>42.4</ele>
        <time>2021-07-03 18:13:28</time>
      </trkpt>
      <trkpt lat="29.12135" lon="-13.61615">
        <ele>42.6</ele>
        <time>2021-07-03 18:13:29</time>
      </trkpt>
      <trkpt lat="29.12132" lon="-13.61619">
        <ele>42.6</ele>
        <time>2021-07-03 18:13:30</time>
      </trkpt>
      <trkpt lat="29.1213" lon="-13.61622">
        <ele>43</ele>
        <time>2021-07-03 18:13:31</time>
      </trkpt>
      <trkpt lat="29.12127" lon="-13.61625">
        <ele>43.2</ele>
        <time>2021-07-03 18:13:32</time>
      </trkpt>
      <trkpt lat="29.12125" lon="-13.61628">
        <ele>43.2</ele>
        <time>2021-07-03 18:13:33</time>
      </trkpt>
      <trkpt lat="29.12122" lon="-13.61632">
        <ele>43.4</ele>
        <time>2021-07-03 18:13:34</time>
      </trkpt>
      <trkpt lat="29.1212" lon="-13.61635">
        <ele>43.4</ele>
        <time>2021-07-03 18:13:35</time>
      </trkpt>
      <trkpt lat="29.12117" lon="-13.61638">
        <ele>43.6</ele>
        <time>2021-07-03 18:13:36</time>
      </trkpt>
      <trkpt lat="29.12115" lon="-13.61641">
        <ele>43.6</ele>
        <time>2021-07-03 18:13:37</time>
      </trkpt>
      <trkpt lat="29.12112" lon="-13.61644">
        <ele>44</ele>
        <time>2021-07-03 18:13:38</time>
      </trkpt>
      <trkpt lat="29.12109" lon="-13.61647">
        <ele>44</ele>
        <time>2021-07-03 18:13:39</time>
      </trkpt>
      <trkpt lat="29.12106" lon="-13.6165">
        <ele>44</ele>
        <time>2021-07-03 18:13:40</time>
      </trkpt>
      <trkpt lat="29.12103" lon="-13.61653">
        <ele>44.2</ele>
        <time>2021-07-03 18:13:41</time>
      </trkpt>
      <trkpt lat="29.121" lon="-13.61656">
        <ele>44.2</ele>
        <time>2021-07-03 18:13:42</time>
      </trkpt>
      <trkpt lat="29.12097" lon="-13.61659">
        <ele>44.4</ele>
        <time>2021-07-03 18:13:43</time>
      </trkpt>
      <trkpt lat="29.12094" lon="-13.61662">
        <ele>44.4</ele>
        <time>2021-07-03 18:13:44</time>
      </trkpt>
      <trkpt lat="29.12092" lon="-13.61665">
        <ele>44.4</ele>
        <time>2021-07-03 18:13:45</time>
      </trkpt>
      <trkpt lat="29.12089" lon="-13.61668">
        <ele>44.6</ele>
        <time>2021-07-03 18:13:46</time>
      </trkpt>
      <trkpt lat="29.12086" lon="-13.6167">
        <ele>44.6</ele>
        <time>2021-07-03 18:13:47</time>
      </trkpt>
      <trkpt lat="29.12083" lon="-13.61673">
        <ele>44.8</ele>
        <time>2021-07-03 18:13:48</time>
      </trkpt>
      <trkpt lat="29.1208" lon="-13.61676">
        <ele>44.8</ele>
        <time>2021-07-03 18:13:49</time>
      </trkpt>
      <trkpt lat="29.12077" lon="-13.61679">
        <ele>45.2</ele>
        <time>2021-07-03 18:13:50</time>
      </trkpt>
      <trkpt lat="29.12074" lon="-13.61682">
        <ele>45.2</ele>
        <time>2021-07-03 18:13:51</time>
      </trkpt>
      <trkpt lat="29.12071" lon="-13.61686">
        <ele>45.4</ele>
        <time>2021-07-03 18:13:52</time>
      </trkpt>
      <trkpt lat="29.12069" lon="-13.61689">
        <ele>45.4</ele>
        <time>2021-07-03 18:13:53</time>
      </trkpt>
      <trkpt lat="29.12066" lon="-13.61692">
        <ele>45.4</ele>
        <time>2021-07-03 18:13:54</time>
      </trkpt>
      <trkpt lat="29.12064" lon="-13.61696">
        <ele>45.8</ele>
        <time>2021-07-03 18:13:55</time>
      </trkpt>
      <trkpt lat="29.12061" lon="-13.617">
        <ele>45.8</ele>
        <time>2021-07-03 18:13:56</time>
      </trkpt>
      <trkpt lat="29.12059" lon="-13.61703">
        <ele>46</ele>
        <time>2021-07-03 18:13:57</time>
      </trkpt>
      <trkpt lat="29.12056" lon="-13.61707">
        <ele>46</ele>
        <time>2021-07-03 18:13:58</time>
      </trkpt>
      <trkpt lat="29.12054" lon="-13.61711">
        <ele>46.2</ele>
        <time>2021-07-03 18:13:59</time>
      </trkpt>
      <trkpt lat="29.12052" lon="-13.61715">
        <ele>46.2</ele>
        <time>2021-07-03 18:14:00</time>
      </trkpt>
      <trkpt lat="29.12049" lon="-13.61719">
        <ele>46.6</ele>
        <time>2021-07-03 18:14:01</time>
      </trkpt>
      <trkpt lat="29.12047" lon="-13.61723">
        <ele>46.6</ele>
        <time>2021-07-03 18:14:02</time>
      </trkpt>
      <trkpt lat="29.12045" lon="-13.61728">
        <ele>46.8</ele>
        <time>2021-07-03 18:14:03</time>
      </trkpt>
      <trkpt lat="29.12043" lon="-13.61732">
        <ele>46.8</ele>
        <time>2021-07-03 18:14:04</time>
      </trkpt>
      <trkpt lat="29.12041" lon="-13.61735">
        <ele>47</ele>
        <time>2021-07-03 18:14:05</time>
      </trkpt>
      <trkpt lat="29.12039" lon="-13.61739">
        <ele>47</ele>
        <time>2021-07-03 18:14:06</time>
      </trkpt>
      <trkpt lat="29.12037" lon="-13.61743">
        <ele>47</ele>
        <time>2021-07-03 18:14:07</time>
      </trkpt>
      <trkpt lat="29.12036" lon="-13.61746">
        <ele>47.2</ele>
        <time>2021-07-03 18:14:08</time>
      </trkpt>
      <trkpt lat="29.12034" lon="-13.61749">
        <ele>47.2</ele>
        <time>2021-07-03 18:14:09</time>
      </trkpt>
      <trkpt lat="29.12033" lon="-13.61752">
        <ele>47.2</ele>
        <time>2021-07-03 18:14:10</time>
      </trkpt>
      <trkpt lat="29.12031" lon="-13.61756">
        <ele>47.2</ele>
        <time>2021-07-03 18:14:11</time>
      </trkpt>
      <trkpt lat="29.12029" lon="-13.6176">
        <ele>47.2</ele>
        <time>2021-07-03 18:14:12</time>
      </trkpt>
      <trkpt lat="29.12028" lon="-13.61763">
        <ele>47.2</ele>
        <time>2021-07-03 18:14:13</time>
      </trkpt>
      <trkpt lat="29.12026" lon="-13.61767">
        <ele>47.6</ele>
        <time>2021-07-03 18:14:14</time>
      </trkpt>
      <trkpt lat="29.12025" lon="-13.61771">
        <ele>47.6</ele>
        <time>2021-07-03 18:14:15</time>
      </trkpt>
      <trkpt lat="29.12023" lon="-13.61775">
        <ele>47.8</ele>
        <time>2021-07-03 18:14:16</time>
      </trkpt>
      <trkpt lat="29.12021" lon="-13.61778">
        <ele>47.8</ele>
        <time>2021-07-03 18:14:17</time>
      </trkpt>
      <trkpt lat="29.1202" lon="-13.61782">
        <ele>47.8</ele>
        <time>2021-07-03 18:14:18</time>
      </trkpt>
      <trkpt lat="29.12019" lon="-13.61786">
        <ele>48</ele>
        <time>2021-07-03 18:14:19</time>
      </trkpt>
      <trkpt lat="29.12018" lon="-13.61789">
        <ele>48</ele>
        <time>2021-07-03 18:14:20</time>
      </trkpt>
      <trkpt lat="29.12016" lon="-13.61793">
        <ele>48</ele>
        <time>2021-07-03 18:14:21</time>
      </trkpt>
      <trkpt lat="29.12014" lon="-13.61796">
        <ele>48</ele>
        <time>2021-07-03 18:14:22</time>
      </trkpt>
      <trkpt lat="29.12012" lon="-13.618">
        <ele>48</ele>
        <time>2021-07-03 18:14:23</time>
      </trkpt>
      <trkpt lat="29.1201" lon="-13.61803">
        <ele>48</ele>
        <time>2021-07-03 18:14:24</time>
      </trkpt>
      <trkpt lat="29.12009" lon="-13.61805">
        <ele>48</ele>
        <time>2021-07-03 18:14:25</time>
      </trkpt>
      <trkpt lat="29.12008" lon="-13.61807">
        <ele>48</ele>
        <time>2021-07-03 18:14:26</time>
      </trkpt>
      <trkpt lat="29.12007" lon="-13.6181">
        <ele>48</ele>
        <time>2021-07-03 18:14:27</time>
      </trkpt>
      <trkpt lat="29.12006" lon="-13.61813">
        <ele>48</ele>
        <time>2021-07-03 18:14:28</time>
      </trkpt>
      <trkpt lat="29.12004" lon="-13.61817">
        <ele>48</ele>
        <time>2021-07-03 18:14:29</time>
      </trkpt>
      <trkpt lat="29.12003" lon="-13.61821">
        <ele>48</ele>
        <time>2021-07-03 18:14:30</time>
      </trkpt>
      <trkpt lat="29.12002" lon="-13.61825">
        <ele>48</ele>
        <time>2021-07-03 18:14:31</time>
      </trkpt>
      <trkpt lat="29.12001" lon="-13.6183">
        <ele>48</ele>
        <time>2021-07-03 18:14:32</time>
      </trkpt>
      <trkpt lat="29.12" lon="-13.61835">
        <ele>48</ele>
        <time>2021-07-03 18:14:33</time>
      </trkpt>
      <trkpt lat="29.11999" lon="-13.61839">
        <ele>48</ele>
        <time>2021-07-03 18:14:34</time>
      </trkpt>
      <trkpt lat="29.11997" lon="-13.61844">
        <ele>48</ele>
        <time>2021-07-03 18:14:35</time>
      </trkpt>
      <trkpt lat="29.11996" lon="-13.61849">
        <ele>48</ele>
        <time>2021-07-03 18:14:36</time>
      </trkpt>
      <trkpt lat="29.11995" lon="-13.61854">
        <ele>48</ele>
        <time>2021-07-03 18:14:37</time>
      </trkpt>
      <trkpt lat="29.11994" lon="-13.61858">
        <ele>48</ele>
        <time>2021-07-03 18:14:38</time>
      </trkpt>
      <trkpt lat="29.11993" lon="-13.61863">
        <ele>48</ele>
        <time>2021-07-03 18:14:39</time>
      </trkpt>
      <trkpt lat="29.11992" lon="-13.61867">
        <ele>48.4</ele>
        <time>2021-07-03 18:14:40</time>
      </trkpt>
      <trkpt lat="29.11991" lon="-13.61871">
        <ele>48.4</ele>
        <time>2021-07-03 18:14:41</time>
      </trkpt>
      <trkpt lat="29.1199" lon="-13.61875">
        <ele>48.6</ele>
        <time>2021-07-03 18:14:42</time>
      </trkpt>
      <trkpt lat="29.11989" lon="-13.6188">
        <ele>48.6</ele>
        <time>2021-07-03 18:14:43</time>
      </trkpt>
      <trkpt lat="29.11988" lon="-13.61884">
        <ele>48.6</ele>
        <time>2021-07-03 18:14:44</time>
      </trkpt>
      <trkpt lat="29.11987" lon="-13.61888">
        <ele>48.8</ele>
        <time>2021-07-03 18:14:45</time>
      </trkpt>
      <trkpt lat="29.11986" lon="-13.61893">
        <ele>48.8</ele>
        <time>2021-07-03 18:14:46</time>
      </trkpt>
      <trkpt lat="29.11985" lon="-13.61897">
        <ele>48.8</ele>
        <time>2021-07-03 18:14:47</time>
      </trkpt>
      <trkpt lat="29.11985" lon="-13.61902">
        <ele>48.8</ele>
        <time>2021-07-03 18:14:48</time>
      </trkpt>
      <trkpt lat="29.11984" lon="-13.61907">
        <ele>48.8</ele>
        <time>2021-07-03 18:14:49</time>
      </trkpt>
      <trkpt lat="29.11984" lon="-13.61912">
        <ele>48.8</ele>
        <time>2021-07-03 18:14:50</time>
      </trkpt>
      <trkpt lat="29.11983" lon="-13.61916">
        <ele>48.8</ele>
        <time>2021-07-03 18:14:51</time>
      </trkpt>
      <trkpt lat="29.11982" lon="-13.61921">
        <ele>48.8</ele>
        <time>2021-07-03 18:14:52</time>
      </trkpt>
      <trkpt lat="29.11981" lon="-13.61926">
        <ele>48.6</ele>
        <time>2021-07-03 18:14:53</time>
      </trkpt>
      <trkpt lat="29.11979" lon="-13.6193">
        <ele>48.6</ele>
        <time>2021-07-03 18:14:54</time>
      </trkpt>
      <trkpt lat="29.11977" lon="-13.61933">
        <ele>48.2</ele>
        <time>2021-07-03 18:14:55</time>
      </trkpt>
      <trkpt lat="29.11975" lon="-13.61937">
        <ele>48.2</ele>
        <time>2021-07-03 18:14:56</time>
      </trkpt>
      <trkpt lat="29.11973" lon="-13.6194">
        <ele>47.8</ele>
        <time>2021-07-03 18:14:57</time>
      </trkpt>
      <trkpt lat="29.1197" lon="-13.61943">
        <ele>47.6</ele>
        <time>2021-07-03 18:14:58</time>
      </trkpt>
      <trkpt lat="29.11967" lon="-13.61945">
        <ele>47.4</ele>
        <time>2021-07-03 18:14:59</time>
      </trkpt>
      <trkpt lat="29.11965" lon="-13.61947">
        <ele>47.4</ele>
        <time>2021-07-03 18:15:00</time>
      </trkpt>
      <trkpt lat="29.11961" lon="-13.6195">
        <ele>47</ele>
        <time>2021-07-03 18:15:01</time>
      </trkpt>
      <trkpt lat="29.11958" lon="-13.61952">
        <ele>46.8</ele>
        <time>2021-07-03 18:15:02</time>
      </trkpt>
      <trkpt lat="29.11956" lon="-13.61956">
        <ele>46.8</ele>
        <time>2021-07-03 18:15:03</time>
      </trkpt>
      <trkpt lat="29.11955" lon="-13.61959">
        <ele>46.4</ele>
        <time>2021-07-03 18:15:04</time>
      </trkpt>
      <trkpt lat="29.11955" lon="-13.61962">
        <ele>46.4</ele>
        <time>2021-07-03 18:15:05</time>
      </trkpt>
      <trkpt lat="29.11955" lon="-13.61965">
        <ele>46.2</ele>
        <time>2021-07-03 18:15:06</time>
      </trkpt>
      <trkpt lat="29.11955" lon="-13.61968">
        <ele>46.2</ele>
        <time>2021-07-03 18:15:07</time>
      </trkpt>
      <trkpt lat="29.11956" lon="-13.61972">
        <ele>46.2</ele>
        <time>2021-07-03 18:15:08</time>
      </trkpt>
      <trkpt lat="29.11957" lon="-13.61976">
        <ele>46.2</ele>
        <time>2021-07-03 18:15:09</time>
      </trkpt>
      <trkpt lat="29.11957" lon="-13.6198">
        <ele>46.2</ele>
        <time>2021-07-03 18:15:10</time>
      </trkpt>
      <trkpt lat="29.11957" lon="-13.61984">
        <ele>46.2</ele>
        <time>2021-07-03 18:15:11</time>
      </trkpt>
      <trkpt lat="29.11957" lon="-13.61988">
        <ele>46.2</ele>
        <time>2021-07-03 18:15:12</time>
      </trkpt>
      <trkpt lat="29.11956" lon="-13.61991">
        <ele>46.4</ele>
        <time>2021-07-03 18:15:13</time>
      </trkpt>
      <trkpt lat="29.11956" lon="-13.61995">
        <ele>46.4</ele>
        <time>2021-07-03 18:15:14</time>
      </trkpt>
      <trkpt lat="29.11955" lon="-13.61998">
        <ele>46.4</ele>
        <time>2021-07-03 18:15:15</time>
      </trkpt>
      <trkpt lat="29.11954" lon="-13.62002">
        <ele>46.4</ele>
        <time>2021-07-03 18:15:16</time>
      </trkpt>
      <trkpt lat="29.11953" lon="-13.62006">
        <ele>46.4</ele>
        <time>2021-07-03 18:15:17</time>
      </trkpt>
      <trkpt lat="29.11952" lon="-13.6201">
        <ele>46.2</ele>
        <time>2021-07-03 18:15:18</time>
      </trkpt>
      <trkpt lat="29.11951" lon="-13.62015">
        <ele>46.2</ele>
        <time>2021-07-03 18:15:19</time>
      </trkpt>
      <trkpt lat="29.1195" lon="-13.62019">
        <ele>46</ele>
        <time>2021-07-03 18:15:20</time>
      </trkpt>
      <trkpt lat="29.11949" lon="-13.62023">
        <ele>46</ele>
        <time>2021-07-03 18:15:21</time>
      </trkpt>
      <trkpt lat="29.11947" lon="-13.62027">
        <ele>46</ele>
        <time>2021-07-03 18:15:22</time>
      </trkpt>
      <trkpt lat="29.11946" lon="-13.62031">
        <ele>45.8</ele>
        <time>2021-07-03 18:15:23</time>
      </trkpt>
      <trkpt lat="29.11945" lon="-13.62035">
        <ele>45.8</ele>
        <time>2021-07-03 18:15:24</time>
      </trkpt>
      <trkpt lat="29.11944" lon="-13.6204">
        <ele>45.8</ele>
        <time>2021-07-03 18:15:25</time>
      </trkpt>
      <trkpt lat="29.11943" lon="-13.62044">
        <ele>45.4</ele>
        <time>2021-07-03 18:15:26</time>
      </trkpt>
      <trkpt lat="29.11942" lon="-13.62049">
        <ele>45.4</ele>
        <time>2021-07-03 18:15:27</time>
      </trkpt>
      <trkpt lat="29.11943" lon="-13.62054">
        <ele>45.2</ele>
        <time>2021-07-03 18:15:28</time>
      </trkpt>
      <trkpt lat="29.11943" lon="-13.62059">
        <ele>45.2</ele>
        <time>2021-07-03 18:15:29</time>
      </trkpt>
      <trkpt lat="29.11943" lon="-13.62065">
        <ele>45</ele>
        <time>2021-07-03 18:15:30</time>
      </trkpt>
      <trkpt lat="29.11944" lon="-13.62071">
        <ele>45</ele>
        <time>2021-07-03 18:15:31</time>
      </trkpt>
      <trkpt lat="29.11944" lon="-13.62077">
        <ele>45</ele>
        <time>2021-07-03 18:15:32</time>
      </trkpt>
      <trkpt lat="29.11945" lon="-13.62082">
        <ele>45</ele>
        <time>2021-07-03 18:15:33</time>
      </trkpt>
      <trkpt lat="29.11945" lon="-13.62088">
        <ele>44.6</ele>
        <time>2021-07-03 18:15:34</time>
      </trkpt>
      <trkpt lat="29.11945" lon="-13.62093">
        <ele>44.6</ele>
        <time>2021-07-03 18:15:35</time>
      </trkpt>
      <trkpt lat="29.11945" lon="-13.62099">
        <ele>44.6</ele>
        <time>2021-07-03 18:15:36</time>
      </trkpt>
      <trkpt lat="29.11945" lon="-13.62104">
        <ele>44.4</ele>
        <time>2021-07-03 18:15:37</time>
      </trkpt>
      <trkpt lat="29.11945" lon="-13.62128">
        <ele>42.8</ele>
        <time>2021-07-03 18:15:38</time>
      </trkpt>
      <trkpt lat="29.11944" lon="-13.62133">
        <ele>42.4</ele>
        <time>2021-07-03 18:15:39</time>
      </trkpt>
      <trkpt lat="29.11944" lon="-13.62138">
        <ele>42.2</ele>
        <time>2021-07-03 18:15:40</time>
      </trkpt>
      <trkpt lat="29.11944" lon="-13.62144">
        <ele>42</ele>
        <time>2021-07-03 18:15:41</time>
      </trkpt>
      <trkpt lat="29.11943" lon="-13.62149">
        <ele>42</ele>
        <time>2021-07-03 18:15:42</time>
      </trkpt>
      <trkpt lat="29.11942" lon="-13.62154">
        <ele>41.6</ele>
        <time>2021-07-03 18:15:43</time>
      </trkpt>
      <trkpt lat="29.11942" lon="-13.6216">
        <ele>41.6</ele>
        <time>2021-07-03 18:15:44</time>
      </trkpt>
      <trkpt lat="29.11942" lon="-13.62165">
        <ele>41.6</ele>
        <time>2021-07-03 18:15:45</time>
      </trkpt>
      <trkpt lat="29.11942" lon="-13.62171">
        <ele>41.6</ele>
        <time>2021-07-03 18:15:46</time>
      </trkpt>
      <trkpt lat="29.11942" lon="-13.62176">
        <ele>41.6</ele>
        <time>2021-07-03 18:15:47</time>
      </trkpt>
      <trkpt lat="29.11941" lon="-13.62181">
        <ele>41.4</ele>
        <time>2021-07-03 18:15:48</time>
      </trkpt>
      <trkpt lat="29.1194" lon="-13.62186">
        <ele>41.4</ele>
        <time>2021-07-03 18:15:49</time>
      </trkpt>
      <trkpt lat="29.1194" lon="-13.62192">
        <ele>41.2</ele>
        <time>2021-07-03 18:15:50</time>
      </trkpt>
      <trkpt lat="29.11939" lon="-13.62198">
        <ele>41.2</ele>
        <time>2021-07-03 18:15:51</time>
      </trkpt>
      <trkpt lat="29.11938" lon="-13.62203">
        <ele>40.8</ele>
        <time>2021-07-03 18:15:52</time>
      </trkpt>
      <trkpt lat="29.11937" lon="-13.62209">
        <ele>40.8</ele>
        <time>2021-07-03 18:15:53</time>
      </trkpt>
      <trkpt lat="29.11936" lon="-13.62215">
        <ele>40.6</ele>
        <time>2021-07-03 18:15:54</time>
      </trkpt>
      <trkpt lat="29.11935" lon="-13.6222">
        <ele>40.6</ele>
        <time>2021-07-03 18:15:55</time>
      </trkpt>
      <trkpt lat="29.11934" lon="-13.62229">
        <ele>40.2</ele>
        <time>2021-07-03 18:15:56</time>
      </trkpt>
      <trkpt lat="29.11934" lon="-13.62233">
        <ele>40.2</ele>
        <time>2021-07-03 18:15:57</time>
      </trkpt>
      <trkpt lat="29.11933" lon="-13.62236">
        <ele>40.2</ele>
        <time>2021-07-03 18:15:58</time>
      </trkpt>
      <trkpt lat="29.11932" lon="-13.6224">
        <ele>40</ele>
        <time>2021-07-03 18:15:59</time>
      </trkpt>
      <trkpt lat="29.11931" lon="-13.62243">
        <ele>40</ele>
        <time>2021-07-03 18:16:00</time>
      </trkpt>
      <trkpt lat="29.11931" lon="-13.62246">
        <ele>40</ele>
        <time>2021-07-03 18:16:01</time>
      </trkpt>
      <trkpt lat="29.11931" lon="-13.62249">
        <ele>40</ele>
        <time>2021-07-03 18:16:02</time>
      </trkpt>
      <trkpt lat="29.1193" lon="-13.62253">
        <ele>40</ele>
        <time>2021-07-03 18:16:03</time>
      </trkpt>
      <trkpt lat="29.1193" lon="-13.62256">
        <ele>40</ele>
        <time>2021-07-03 18:16:04</time>
      </trkpt>
      <trkpt lat="29.11929" lon="-13.62258">
        <ele>39.8</ele>
        <time>2021-07-03 18:16:05</time>
      </trkpt>
      <trkpt lat="29.11929" lon="-13.62262">
        <ele>39.8</ele>
        <time>2021-07-03 18:16:06</time>
      </trkpt>
      <trkpt lat="29.11928" lon="-13.62265">
        <ele>39.8</ele>
        <time>2021-07-03 18:16:07</time>
      </trkpt>
      <trkpt lat="29.11928" lon="-13.62268">
        <ele>39.8</ele>
        <time>2021-07-03 18:16:08</time>
      </trkpt>
      <trkpt lat="29.11927" lon="-13.62271">
        <ele>39.8</ele>
        <time>2021-07-03 18:16:09</time>
      </trkpt>
      <trkpt lat="29.11926" lon="-13.62274">
        <ele>39.4</ele>
        <time>2021-07-03 18:16:10</time>
      </trkpt>
      <trkpt lat="29.11926" lon="-13.62277">
        <ele>39.4</ele>
        <time>2021-07-03 18:16:11</time>
      </trkpt>
      <trkpt lat="29.11925" lon="-13.6228">
        <ele>39.4</ele>
        <time>2021-07-03 18:16:12</time>
      </trkpt>
      <trkpt lat="29.11925" lon="-13.62284">
        <ele>39.4</ele>
        <time>2021-07-03 18:16:13</time>
      </trkpt>
      <trkpt lat="29.11924" lon="-13.62288">
        <ele>39.2</ele>
        <time>2021-07-03 18:16:14</time>
      </trkpt>
      <trkpt lat="29.11922" lon="-13.62293">
        <ele>39</ele>
        <time>2021-07-03 18:16:15</time>
      </trkpt>
      <trkpt lat="29.11921" lon="-13.62298">
        <ele>38.8</ele>
        <time>2021-07-03 18:16:16</time>
      </trkpt>
      <trkpt lat="29.1192" lon="-13.62304">
        <ele>38.6</ele>
        <time>2021-07-03 18:16:17</time>
      </trkpt>
      <trkpt lat="29.1192" lon="-13.6231">
        <ele>38.4</ele>
        <time>2021-07-03 18:16:18</time>
      </trkpt>
      <trkpt lat="29.1192" lon="-13.62316">
        <ele>38</ele>
        <time>2021-07-03 18:16:19</time>
      </trkpt>
      <trkpt lat="29.11921" lon="-13.62321">
        <ele>38</ele>
        <time>2021-07-03 18:16:20</time>
      </trkpt>
      <trkpt lat="29.11923" lon="-13.62326">
        <ele>37.6</ele>
        <time>2021-07-03 18:16:21</time>
      </trkpt>
      <trkpt lat="29.11925" lon="-13.62331">
        <ele>37.4</ele>
        <time>2021-07-03 18:16:22</time>
      </trkpt>
      <trkpt lat="29.11927" lon="-13.62336">
        <ele>37</ele>
        <time>2021-07-03 18:16:23</time>
      </trkpt>
      <trkpt lat="29.11929" lon="-13.62342">
        <ele>36.8</ele>
        <time>2021-07-03 18:16:24</time>
      </trkpt>
      <trkpt lat="29.1193" lon="-13.62348">
        <ele>36.6</ele>
        <time>2021-07-03 18:16:25</time>
      </trkpt>
      <trkpt lat="29.11931" lon="-13.62353">
        <ele>36.4</ele>
        <time>2021-07-03 18:16:26</time>
      </trkpt>
      <trkpt lat="29.11931" lon="-13.62358">
        <ele>36.4</ele>
        <time>2021-07-03 18:16:27</time>
      </trkpt>
      <trkpt lat="29.11931" lon="-13.62363">
        <ele>36</ele>
        <time>2021-07-03 18:16:28</time>
      </trkpt>
      <trkpt lat="29.11931" lon="-13.62369">
        <ele>35.6</ele>
        <time>2021-07-03 18:16:29</time>
      </trkpt>
      <trkpt lat="29.11931" lon="-13.62374">
        <ele>35.4</ele>
        <time>2021-07-03 18:16:30</time>
      </trkpt>
      <trkpt lat="29.11932" lon="-13.62379">
        <ele>35</ele>
        <time>2021-07-03 18:16:31</time>
      </trkpt>
      <trkpt lat="29.11932" lon="-13.62384">
        <ele>34.8</ele>
        <time>2021-07-03 18:16:32</time>
      </trkpt>
      <trkpt lat="29.11932" lon="-13.6239">
        <ele>34.8</ele>
        <time>2021-07-03 18:16:33</time>
      </trkpt>
      <trkpt lat="29.11931" lon="-13.62395">
        <ele>34.2</ele>
        <time>2021-07-03 18:16:34</time>
      </trkpt>
      <trkpt lat="29.11932" lon="-13.62401">
        <ele>34</ele>
        <time>2021-07-03 18:16:35</time>
      </trkpt>
      <trkpt lat="29.11931" lon="-13.62406">
        <ele>33.8</ele>
        <time>2021-07-03 18:16:36</time>
      </trkpt>
      <trkpt lat="29.1193" lon="-13.62411">
        <ele>33.4</ele>
        <time>2021-07-03 18:16:37</time>
      </trkpt>
      <trkpt lat="29.11929" lon="-13.62416">
        <ele>33.2</ele>
        <time>2021-07-03 18:16:38</time>
      </trkpt>
      <trkpt lat="29.11928" lon="-13.62421">
        <ele>32.8</ele>
        <time>2021-07-03 18:16:39</time>
      </trkpt>
      <trkpt lat="29.11927" lon="-13.62427">
        <ele>32.6</ele>
        <time>2021-07-03 18:16:40</time>
      </trkpt>
      <trkpt lat="29.11926" lon="-13.62432">
        <ele>32.4</ele>
        <time>2021-07-03 18:16:41</time>
      </trkpt>
      <trkpt lat="29.11925" lon="-13.62438">
        <ele>32.4</ele>
        <time>2021-07-03 18:16:42</time>
      </trkpt>
      <trkpt lat="29.11924" lon="-13.62443">
        <ele>32</ele>
        <time>2021-07-03 18:16:43</time>
      </trkpt>
      <trkpt lat="29.11923" lon="-13.62448">
        <ele>32</ele>
        <time>2021-07-03 18:16:44</time>
      </trkpt>
      <trkpt lat="29.11922" lon="-13.62453">
        <ele>32</ele>
        <time>2021-07-03 18:16:45</time>
      </trkpt>
      <trkpt lat="29.1192" lon="-13.62458">
        <ele>31.6</ele>
        <time>2021-07-03 18:16:46</time>
      </trkpt>
      <trkpt lat="29.11919" lon="-13.62463">
        <ele>31.6</ele>
        <time>2021-07-03 18:16:47</time>
      </trkpt>
      <trkpt lat="29.11918" lon="-13.62468">
        <ele>31.4</ele>
        <time>2021-07-03 18:16:48</time>
      </trkpt>
      <trkpt lat="29.11917" lon="-13.62472">
        <ele>31.4</ele>
        <time>2021-07-03 18:16:49</time>
      </trkpt>
      <trkpt lat="29.11916" lon="-13.62476">
        <ele>31.2</ele>
        <time>2021-07-03 18:16:50</time>
      </trkpt>
      <trkpt lat="29.11915" lon="-13.6248">
        <ele>31.2</ele>
        <time>2021-07-03 18:16:51</time>
      </trkpt>
      <trkpt lat="29.11914" lon="-13.62484">
        <ele>31.2</ele>
        <time>2021-07-03 18:16:52</time>
      </trkpt>
      <trkpt lat="29.11912" lon="-13.62488">
        <ele>30.8</ele>
        <time>2021-07-03 18:16:53</time>
      </trkpt>
      <trkpt lat="29.11911" lon="-13.62492">
        <ele>30.8</ele>
        <time>2021-07-03 18:16:54</time>
      </trkpt>
      <trkpt lat="29.1191" lon="-13.62495">
        <ele>30.8</ele>
        <time>2021-07-03 18:16:55</time>
      </trkpt>
      <trkpt lat="29.11909" lon="-13.62499">
        <ele>30.8</ele>
        <time>2021-07-03 18:16:56</time>
      </trkpt>
      <trkpt lat="29.11907" lon="-13.62503">
        <ele>30.6</ele>
        <time>2021-07-03 18:16:57</time>
      </trkpt>
      <trkpt lat="29.11906" lon="-13.62508">
        <ele>30.6</ele>
        <time>2021-07-03 18:16:58</time>
      </trkpt>
      <trkpt lat="29.11904" lon="-13.62512">
        <ele>30.6</ele>
        <time>2021-07-03 18:16:59</time>
      </trkpt>
      <trkpt lat="29.11903" lon="-13.62516">
        <ele>30.6</ele>
        <time>2021-07-03 18:17:00</time>
      </trkpt>
      <trkpt lat="29.11902" lon="-13.62519">
        <ele>30.2</ele>
        <time>2021-07-03 18:17:01</time>
      </trkpt>
      <trkpt lat="29.11901" lon="-13.62522">
        <ele>30</ele>
        <time>2021-07-03 18:17:02</time>
      </trkpt>
      <trkpt lat="29.11901" lon="-13.62523">
        <ele>30</ele>
        <time>2021-07-03 18:17:03</time>
      </trkpt>
      <trkpt lat="29.11901" lon="-13.62525">
        <ele>30</ele>
        <time>2021-07-03 18:17:04</time>
      </trkpt>
      <trkpt lat="29.11901" lon="-13.62528">
        <ele>29.6</ele>
        <time>2021-07-03 18:17:05</time>
      </trkpt>
      <trkpt lat="29.11901" lon="-13.62531">
        <ele>29.6</ele>
        <time>2021-07-03 18:17:06</time>
      </trkpt>
      <trkpt lat="29.119" lon="-13.62534">
        <ele>29.4</ele>
        <time>2021-07-03 18:17:07</time>
      </trkpt>
      <trkpt lat="29.11899" lon="-13.62537">
        <ele>29</ele>
        <time>2021-07-03 18:17:08</time>
      </trkpt>
      <trkpt lat="29.11898" lon="-13.62541">
        <ele>28.8</ele>
        <time>2021-07-03 18:17:09</time>
      </trkpt>
      <trkpt lat="29.11897" lon="-13.62546">
        <ele>28.6</ele>
        <time>2021-07-03 18:17:10</time>
      </trkpt>
      <trkpt lat="29.11896" lon="-13.62551">
        <ele>28.2</ele>
        <time>2021-07-03 18:17:11</time>
      </trkpt>
      <trkpt lat="29.11895" lon="-13.62556">
        <ele>28</ele>
        <time>2021-07-03 18:17:12</time>
      </trkpt>
      <trkpt lat="29.11893" lon="-13.62561">
        <ele>27.8</ele>
        <time>2021-07-03 18:17:13</time>
      </trkpt>
      <trkpt lat="29.1189" lon="-13.62565">
        <ele>27.4</ele>
        <time>2021-07-03 18:17:14</time>
      </trkpt>
      <trkpt lat="29.11888" lon="-13.62569">
        <ele>27.4</ele>
        <time>2021-07-03 18:17:15</time>
      </trkpt>
      <trkpt lat="29.11886" lon="-13.62574">
        <ele>27.2</ele>
        <time>2021-07-03 18:17:16</time>
      </trkpt>
      <trkpt lat="29.11884" lon="-13.62577">
        <ele>27.2</ele>
        <time>2021-07-03 18:17:17</time>
      </trkpt>
      <trkpt lat="29.11881" lon="-13.6258">
        <ele>26.8</ele>
        <time>2021-07-03 18:17:18</time>
      </trkpt>
      <trkpt lat="29.1188" lon="-13.62584">
        <ele>26.8</ele>
        <time>2021-07-03 18:17:19</time>
      </trkpt>
      <trkpt lat="29.11878" lon="-13.62588">
        <ele>26.6</ele>
        <time>2021-07-03 18:17:20</time>
      </trkpt>
      <trkpt lat="29.11875" lon="-13.62591">
        <ele>26.6</ele>
        <time>2021-07-03 18:17:21</time>
      </trkpt>
      <trkpt lat="29.11873" lon="-13.62594">
        <ele>26.6</ele>
        <time>2021-07-03 18:17:22</time>
      </trkpt>
      <trkpt lat="29.11871" lon="-13.62596">
        <ele>26.6</ele>
        <time>2021-07-03 18:17:23</time>
      </trkpt>
      <trkpt lat="29.11869" lon="-13.62599">
        <ele>26.6</ele>
        <time>2021-07-03 18:17:24</time>
      </trkpt>
      <trkpt lat="29.11867" lon="-13.62602">
        <ele>26.4</ele>
        <time>2021-07-03 18:17:25</time>
      </trkpt>
      <trkpt lat="29.11865" lon="-13.62605">
        <ele>26.4</ele>
        <time>2021-07-03 18:17:26</time>
      </trkpt>
      <trkpt lat="29.11863" lon="-13.62608">
        <ele>26.4</ele>
        <time>2021-07-03 18:17:27</time>
      </trkpt>
      <trkpt lat="29.11862" lon="-13.62612">
        <ele>26</ele>
        <time>2021-07-03 18:17:28</time>
      </trkpt>
      <trkpt lat="29.1186" lon="-13.62615">
        <ele>25.8</ele>
        <time>2021-07-03 18:17:29</time>
      </trkpt>
      <trkpt lat="29.11859" lon="-13.62619">
        <ele>25.4</ele>
        <time>2021-07-03 18:17:30</time>
      </trkpt>
      <trkpt lat="29.11856" lon="-13.62623">
        <ele>25.2</ele>
        <time>2021-07-03 18:17:31</time>
      </trkpt>
      <trkpt lat="29.11854" lon="-13.62627">
        <ele>25</ele>
        <time>2021-07-03 18:17:32</time>
      </trkpt>
      <trkpt lat="29.11851" lon="-13.62629">
        <ele>24.8</ele>
        <time>2021-07-03 18:17:33</time>
      </trkpt>
      <trkpt lat="29.11848" lon="-13.62631">
        <ele>24.4</ele>
        <time>2021-07-03 18:17:34</time>
      </trkpt>
      <trkpt lat="29.11845" lon="-13.62632">
        <ele>24.2</ele>
        <time>2021-07-03 18:17:35</time>
      </trkpt>
      <trkpt lat="29.11841" lon="-13.62633">
        <ele>24</ele>
        <time>2021-07-03 18:17:36</time>
      </trkpt>
      <trkpt lat="29.11837" lon="-13.62633">
        <ele>23.6</ele>
        <time>2021-07-03 18:17:37</time>
      </trkpt>
      <trkpt lat="29.11832" lon="-13.62634">
        <ele>23.4</ele>
        <time>2021-07-03 18:17:38</time>
      </trkpt>
      <trkpt lat="29.11828" lon="-13.62635">
        <ele>23.4</ele>
        <time>2021-07-03 18:17:39</time>
      </trkpt>
      <trkpt lat="29.11825" lon="-13.62636">
        <ele>23.2</ele>
        <time>2021-07-03 18:17:40</time>
      </trkpt>
      <trkpt lat="29.11821" lon="-13.62637">
        <ele>23.2</ele>
        <time>2021-07-03 18:17:41</time>
      </trkpt>
      <trkpt lat="29.11817" lon="-13.62639">
        <ele>23.2</ele>
        <time>2021-07-03 18:17:42</time>
      </trkpt>
      <trkpt lat="29.11814" lon="-13.6264">
        <ele>23.2</ele>
        <time>2021-07-03 18:17:43</time>
      </trkpt>
      <trkpt lat="29.1181" lon="-13.62642">
        <ele>23</ele>
        <time>2021-07-03 18:17:44</time>
      </trkpt>
      <trkpt lat="29.11807" lon="-13.62643">
        <ele>23</ele>
        <time>2021-07-03 18:17:45</time>
      </trkpt>
      <trkpt lat="29.11803" lon="-13.62644">
        <ele>23</ele>
        <time>2021-07-03 18:17:46</time>
      </trkpt>
      <trkpt lat="29.11799" lon="-13.62645">
        <ele>23</ele>
        <time>2021-07-03 18:17:47</time>
      </trkpt>
      <trkpt lat="29.11795" lon="-13.62645">
        <ele>23</ele>
        <time>2021-07-03 18:17:48</time>
      </trkpt>
      <trkpt lat="29.11791" lon="-13.62644">
        <ele>23</ele>
        <time>2021-07-03 18:17:49</time>
      </trkpt>
      <trkpt lat="29.11788" lon="-13.62643">
        <ele>23</ele>
        <time>2021-07-03 18:17:50</time>
      </trkpt>
      <trkpt lat="29.11786" lon="-13.62641">
        <ele>23</ele>
        <time>2021-07-03 18:17:51</time>
      </trkpt>
      <trkpt lat="29.11783" lon="-13.62638">
        <ele>22.8</ele>
        <time>2021-07-03 18:17:52</time>
      </trkpt>
      <trkpt lat="29.1178" lon="-13.62636">
        <ele>22.8</ele>
        <time>2021-07-03 18:17:53</time>
      </trkpt>
      <trkpt lat="29.11778" lon="-13.62635">
        <ele>22.8</ele>
        <time>2021-07-03 18:17:54</time>
      </trkpt>
      <trkpt lat="29.11775" lon="-13.62635">
        <ele>22.8</ele>
        <time>2021-07-03 18:17:55</time>
      </trkpt>
      <trkpt lat="29.11773" lon="-13.62635">
        <ele>22.4</ele>
        <time>2021-07-03 18:17:56</time>
      </trkpt>
      <trkpt lat="29.11771" lon="-13.62636">
        <ele>22.4</ele>
        <time>2021-07-03 18:17:57</time>
      </trkpt>
      <trkpt lat="29.11769" lon="-13.62638">
        <ele>22.4</ele>
        <time>2021-07-03 18:17:58</time>
      </trkpt>
      <trkpt lat="29.11766" lon="-13.6264">
        <ele>22.4</ele>
        <time>2021-07-03 18:17:59</time>
      </trkpt>
      <trkpt lat="29.11764" lon="-13.62642">
        <ele>22.4</ele>
        <time>2021-07-03 18:18:00</time>
      </trkpt>
      <trkpt lat="29.11763" lon="-13.62644">
        <ele>22.4</ele>
        <time>2021-07-03 18:18:01</time>
      </trkpt>
      <trkpt lat="29.11761" lon="-13.62646">
        <ele>22.8</ele>
        <time>2021-07-03 18:18:02</time>
      </trkpt>
      <trkpt lat="29.11759" lon="-13.62647">
        <ele>22.8</ele>
        <time>2021-07-03 18:18:03</time>
      </trkpt>
      <trkpt lat="29.11757" lon="-13.62648">
        <ele>23</ele>
        <time>2021-07-03 18:18:04</time>
      </trkpt>
      <trkpt lat="29.11755" lon="-13.62648">
        <ele>23</ele>
        <time>2021-07-03 18:18:05</time>
      </trkpt>
      <trkpt lat="29.11752" lon="-13.62648">
        <ele>23.2</ele>
        <time>2021-07-03 18:18:06</time>
      </trkpt>
      <trkpt lat="29.1175" lon="-13.62647">
        <ele>23.2</ele>
        <time>2021-07-03 18:18:07</time>
      </trkpt>
      <trkpt lat="29.11749" lon="-13.62646">
        <ele>23.6</ele>
        <time>2021-07-03 18:18:08</time>
      </trkpt>
      <trkpt lat="29.11747" lon="-13.62645">
        <ele>23.6</ele>
        <time>2021-07-03 18:18:09</time>
      </trkpt>
      <trkpt lat="29.11745" lon="-13.62644">
        <ele>23.8</ele>
        <time>2021-07-03 18:18:10</time>
      </trkpt>
      <trkpt lat="29.11744" lon="-13.62643">
        <ele>23.8</ele>
        <time>2021-07-03 18:18:11</time>
      </trkpt>
      <trkpt lat="29.11742" lon="-13.62641">
        <ele>24</ele>
        <time>2021-07-03 18:18:12</time>
      </trkpt>
      <trkpt lat="29.11741" lon="-13.6264">
        <ele>24.2</ele>
        <time>2021-07-03 18:18:13</time>
      </trkpt>
      <trkpt lat="29.11739" lon="-13.62638">
        <ele>24.4</ele>
        <time>2021-07-03 18:18:14</time>
      </trkpt>
      <trkpt lat="29.11737" lon="-13.62637">
        <ele>24.4</ele>
        <time>2021-07-03 18:18:15</time>
      </trkpt>
      <trkpt lat="29.11735" lon="-13.62636">
        <ele>24.8</ele>
        <time>2021-07-03 18:18:16</time>
      </trkpt>
      <trkpt lat="29.11733" lon="-13.62634">
        <ele>24.8</ele>
        <time>2021-07-03 18:18:17</time>
      </trkpt>
      <trkpt lat="29.11731" lon="-13.62632">
        <ele>25</ele>
        <time>2021-07-03 18:18:18</time>
      </trkpt>
      <trkpt lat="29.11729" lon="-13.6263">
        <ele>25</ele>
        <time>2021-07-03 18:18:19</time>
      </trkpt>
      <trkpt lat="29.11727" lon="-13.62629">
        <ele>25.4</ele>
        <time>2021-07-03 18:18:20</time>
      </trkpt>
      <trkpt lat="29.11725" lon="-13.62627">
        <ele>25.4</ele>
        <time>2021-07-03 18:18:21</time>
      </trkpt>
      <trkpt lat="29.11722" lon="-13.62625">
        <ele>25.4</ele>
        <time>2021-07-03 18:18:22</time>
      </trkpt>
      <trkpt lat="29.1172" lon="-13.62623">
        <ele>25.6</ele>
        <time>2021-07-03 18:18:23</time>
      </trkpt>
      <trkpt lat="29.11717" lon="-13.62622">
        <ele>25.6</ele>
        <time>2021-07-03 18:18:24</time>
      </trkpt>
      <trkpt lat="29.11715" lon="-13.6262">
        <ele>25.6</ele>
        <time>2021-07-03 18:18:25</time>
      </trkpt>
      <trkpt lat="29.11712" lon="-13.62618">
        <ele>25.8</ele>
        <time>2021-07-03 18:18:26</time>
      </trkpt>
      <trkpt lat="29.11709" lon="-13.62617">
        <ele>25.8</ele>
        <time>2021-07-03 18:18:27</time>
      </trkpt>
      <trkpt lat="29.11707" lon="-13.62615">
        <ele>25.8</ele>
        <time>2021-07-03 18:18:28</time>
      </trkpt>
      <trkpt lat="29.11704" lon="-13.62614">
        <ele>26</ele>
        <time>2021-07-03 18:18:29</time>
      </trkpt>
      <trkpt lat="29.11701" lon="-13.62612">
        <ele>26</ele>
        <time>2021-07-03 18:18:30</time>
      </trkpt>
      <trkpt lat="29.11699" lon="-13.62611">
        <ele>26.4</ele>
        <time>2021-07-03 18:18:31</time>
      </trkpt>
      <trkpt lat="29.11696" lon="-13.62609">
        <ele>26.4</ele>
        <time>2021-07-03 18:18:32</time>
      </trkpt>
      <trkpt lat="29.11694" lon="-13.62608">
        <ele>26.6</ele>
        <time>2021-07-03 18:18:33</time>
      </trkpt>
      <trkpt lat="29.11692" lon="-13.62606">
        <ele>26.8</ele>
        <time>2021-07-03 18:18:34</time>
      </trkpt>
      <trkpt lat="29.11689" lon="-13.62605">
        <ele>26.8</ele>
        <time>2021-07-03 18:18:35</time>
      </trkpt>
      <trkpt lat="29.11687" lon="-13.62604">
        <ele>26.8</ele>
        <time>2021-07-03 18:18:36</time>
      </trkpt>
      <trkpt lat="29.11684" lon="-13.62602">
        <ele>26.8</ele>
        <time>2021-07-03 18:18:37</time>
      </trkpt>
      <trkpt lat="29.11681" lon="-13.62601">
        <ele>27</ele>
        <time>2021-07-03 18:18:38</time>
      </trkpt>
      <trkpt lat="29.11679" lon="-13.626">
        <ele>27</ele>
        <time>2021-07-03 18:18:39</time>
      </trkpt>
      <trkpt lat="29.11676" lon="-13.62599">
        <ele>27</ele>
        <time>2021-07-03 18:18:40</time>
      </trkpt>
      <trkpt lat="29.11673" lon="-13.62599">
        <ele>27.2</ele>
        <time>2021-07-03 18:18:41</time>
      </trkpt>
      <trkpt lat="29.1167" lon="-13.62598">
        <ele>27.2</ele>
        <time>2021-07-03 18:18:42</time>
      </trkpt>
      <trkpt lat="29.11667" lon="-13.62598">
        <ele>27.2</ele>
        <time>2021-07-03 18:18:43</time>
      </trkpt>
      <trkpt lat="29.11664" lon="-13.62598">
        <ele>27.2</ele>
        <time>2021-07-03 18:18:44</time>
      </trkpt>
      <trkpt lat="29.11661" lon="-13.62598">
        <ele>27.6</ele>
        <time>2021-07-03 18:18:45</time>
      </trkpt>
      <trkpt lat="29.11658" lon="-13.62599">
        <ele>27.6</ele>
        <time>2021-07-03 18:18:46</time>
      </trkpt>
      <trkpt lat="29.11655" lon="-13.62599">
        <ele>27.6</ele>
        <time>2021-07-03 18:18:47</time>
      </trkpt>
      <trkpt lat="29.11653" lon="-13.626">
        <ele>27.8</ele>
        <time>2021-07-03 18:18:48</time>
      </trkpt>
      <trkpt lat="29.11651" lon="-13.62601">
        <ele>27.8</ele>
        <time>2021-07-03 18:18:49</time>
      </trkpt>
      <trkpt lat="29.1165" lon="-13.62601">
        <ele>28</ele>
        <time>2021-07-03 18:18:50</time>
      </trkpt>
      <trkpt lat="29.11648" lon="-13.62602">
        <ele>28</ele>
        <time>2021-07-03 18:18:51</time>
      </trkpt>
      <trkpt lat="29.11646" lon="-13.62603">
        <ele>28.2</ele>
        <time>2021-07-03 18:18:52</time>
      </trkpt>
      <trkpt lat="29.11644" lon="-13.62605">
        <ele>28.2</ele>
        <time>2021-07-03 18:18:53</time>
      </trkpt>
      <trkpt lat="29.11641" lon="-13.62607">
        <ele>28.2</ele>
        <time>2021-07-03 18:18:54</time>
      </trkpt>
      <trkpt lat="29.11639" lon="-13.6261">
        <ele>28.2</ele>
        <time>2021-07-03 18:18:55</time>
      </trkpt>
      <trkpt lat="29.11636" lon="-13.62613">
        <ele>28.2</ele>
        <time>2021-07-03 18:18:56</time>
      </trkpt>
      <trkpt lat="29.11633" lon="-13.62616">
        <ele>28.2</ele>
        <time>2021-07-03 18:18:57</time>
      </trkpt>
      <trkpt lat="29.1163" lon="-13.62619">
        <ele>28.2</ele>
        <time>2021-07-03 18:18:58</time>
      </trkpt>
      <trkpt lat="29.11628" lon="-13.62622">
        <ele>28.2</ele>
        <time>2021-07-03 18:18:59</time>
      </trkpt>
      <trkpt lat="29.11628" lon="-13.62624">
        <ele>28.2</ele>
        <time>2021-07-03 18:19:00</time>
      </trkpt>
      <trkpt lat="29.11628" lon="-13.62624">
        <ele>28.2</ele>
        <time>2021-07-03 18:19:01</time>
      </trkpt>
      <trkpt lat="29.11628" lon="-13.62626">
        <ele>28.2</ele>
        <time>2021-07-03 18:19:02</time>
      </trkpt>
      <trkpt lat="29.11628" lon="-13.62627">
        <ele>28.2</ele>
        <time>2021-07-03 18:19:03</time>
      </trkpt>
      <trkpt lat="29.11628" lon="-13.62629">
        <ele>27.8</ele>
        <time>2021-07-03 18:19:04</time>
      </trkpt>
      <trkpt lat="29.11627" lon="-13.62631">
        <ele>27.8</ele>
        <time>2021-07-03 18:19:05</time>
      </trkpt>
      <trkpt lat="29.11627" lon="-13.62634">
        <ele>27.8</ele>
        <time>2021-07-03 18:19:06</time>
      </trkpt>
      <trkpt lat="29.11627" lon="-13.62637">
        <ele>27.8</ele>
        <time>2021-07-03 18:19:07</time>
      </trkpt>
      <trkpt lat="29.11627" lon="-13.6264">
        <ele>27.6</ele>
        <time>2021-07-03 18:19:08</time>
      </trkpt>
      <trkpt lat="29.11627" lon="-13.62643">
        <ele>27.6</ele>
        <time>2021-07-03 18:19:09</time>
      </trkpt>
      <trkpt lat="29.11627" lon="-13.62645">
        <ele>27.6</ele>
        <time>2021-07-03 18:19:10</time>
      </trkpt>
      <trkpt lat="29.11627" lon="-13.62646">
        <ele>27.6</ele>
        <time>2021-07-03 18:19:11</time>
      </trkpt>
      <trkpt lat="29.11627" lon="-13.62647">
        <ele>27.4</ele>
        <time>2021-07-03 18:19:12</time>
      </trkpt>
      <trkpt lat="29.11627" lon="-13.62648">
        <ele>27.4</ele>
        <time>2021-07-03 18:19:13</time>
      </trkpt>
      <trkpt lat="29.11627" lon="-13.6265">
        <ele>27.4</ele>
        <time>2021-07-03 18:19:14</time>
      </trkpt>
      <trkpt lat="29.11627" lon="-13.62651">
        <ele>27.2</ele>
        <time>2021-07-03 18:19:15</time>
      </trkpt>
      <trkpt lat="29.11627" lon="-13.62651">
        <ele>27.2</ele>
        <time>2021-07-03 18:19:16</time>
      </trkpt>
      <trkpt lat="29.11627" lon="-13.62651">
        <ele>27.2</ele>
        <time>2021-07-03 18:19:17</time>
      </trkpt>
      <trkpt lat="29.11627" lon="-13.62651">
        <ele>27.2</ele>
        <time>2021-07-03 18:19:18</time>
      </trkpt>
      <trkpt lat="29.11626" lon="-13.62654">
        <ele>27</ele>
        <time>2021-07-03 18:19:19</time>
      </trkpt>
      <trkpt lat="29.11626" lon="-13.62655">
        <ele>27</ele>
        <time>2021-07-03 18:19:20</time>
      </trkpt>
      <trkpt lat="29.11625" lon="-13.62656">
        <ele>26.6</ele>
        <time>2021-07-03 18:19:21</time>
      </trkpt>
      <trkpt lat="29.11625" lon="-13.62657">
        <ele>26.4</ele>
        <time>2021-07-03 18:19:22</time>
      </trkpt>
      <trkpt lat="29.11625" lon="-13.62657">
        <ele>26.4</ele>
        <time>2021-07-03 18:19:23</time>
      </trkpt>
      <trkpt lat="29.11624" lon="-13.62658">
        <ele>26</ele>
        <time>2021-07-03 18:19:24</time>
      </trkpt>
      <trkpt lat="29.11624" lon="-13.62659">
        <ele>26</ele>
        <time>2021-07-03 18:19:25</time>
      </trkpt>
      <trkpt lat="29.11624" lon="-13.62659">
        <ele>26</ele>
        <time>2021-07-03 18:19:26</time>
      </trkpt>
      <trkpt lat="29.11624" lon="-13.6266">
        <ele>26</ele>
        <time>2021-07-03 18:19:27</time>
      </trkpt>
      <trkpt lat="29.11624" lon="-13.62661">
        <ele>26</ele>
        <time>2021-07-03 18:19:28</time>
      </trkpt>
      <trkpt lat="29.11624" lon="-13.62661">
        <ele>26</ele>
        <time>2021-07-03 18:19:29</time>
      </trkpt>
      <trkpt lat="29.11623" lon="-13.62662">
        <ele>26</ele>
        <time>2021-07-03 18:19:30</time>
      </trkpt>
      <trkpt lat="29.11623" lon="-13.62663">
        <ele>26</ele>
        <time>2021-07-03 18:19:31</time>
      </trkpt>
      <trkpt lat="29.11623" lon="-13.62664">
        <ele>26</ele>
        <time>2021-07-03 18:19:32</time>
      </trkpt>
      <trkpt lat="29.11622" lon="-13.62665">
        <ele>26</ele>
        <time>2021-07-03 18:19:33</time>
      </trkpt>
      <trkpt lat="29.11622" lon="-13.62666">
        <ele>26</ele>
        <time>2021-07-03 18:19:34</time>
      </trkpt>
      <trkpt lat="29.11622" lon="-13.62666">
        <ele>26</ele>
        <time>2021-07-03 18:19:35</time>
      </trkpt>
      <trkpt lat="29.11622" lon="-13.62666">
        <ele>26</ele>
        <time>2021-07-03 18:19:36</time>
      </trkpt>
      <trkpt lat="29.11622" lon="-13.62667">
        <ele>26</ele>
        <time>2021-07-03 18:19:37</time>
      </trkpt>
      <trkpt lat="29.11622" lon="-13.62669">
        <ele>26</ele>
        <time>2021-07-03 18:19:38</time>
      </trkpt>
      <trkpt lat="29.11622" lon="-13.62671">
        <ele>26</ele>
        <time>2021-07-03 18:19:39</time>
      </trkpt>
      <trkpt lat="29.11621" lon="-13.62673">
        <ele>26</ele>
        <time>2021-07-03 18:19:40</time>
      </trkpt>
      <trkpt lat="29.11621" lon="-13.62676">
        <ele>26</ele>
        <time>2021-07-03 18:19:41</time>
      </trkpt>
      <trkpt lat="29.11621" lon="-13.62678">
        <ele>26</ele>
        <time>2021-07-03 18:19:42</time>
      </trkpt>
      <trkpt lat="29.1162" lon="-13.62681">
        <ele>26</ele>
        <time>2021-07-03 18:19:43</time>
      </trkpt>
      <trkpt lat="29.1162" lon="-13.62685">
        <ele>26</ele>
        <time>2021-07-03 18:19:44</time>
      </trkpt>
      <trkpt lat="29.11619" lon="-13.62688">
        <ele>26</ele>
        <time>2021-07-03 18:19:45</time>
      </trkpt>
      <trkpt lat="29.11618" lon="-13.62693">
        <ele>26</ele>
        <time>2021-07-03 18:19:46</time>
      </trkpt>
      <trkpt lat="29.11618" lon="-13.62697">
        <ele>26</ele>
        <time>2021-07-03 18:19:47</time>
      </trkpt>
      <trkpt lat="29.11618" lon="-13.627">
        <ele>26</ele>
        <time>2021-07-03 18:19:48</time>
      </trkpt>
      <trkpt lat="29.11618" lon="-13.62704">
        <ele>26</ele>
        <time>2021-07-03 18:19:49</time>
      </trkpt>
      <trkpt lat="29.11619" lon="-13.62708">
        <ele>26</ele>
        <time>2021-07-03 18:19:50</time>
      </trkpt>
      <trkpt lat="29.11619" lon="-13.62711">
        <ele>26</ele>
        <time>2021-07-03 18:19:51</time>
      </trkpt>
      <trkpt lat="29.11618" lon="-13.62716">
        <ele>26</ele>
        <time>2021-07-03 18:19:52</time>
      </trkpt>
      <trkpt lat="29.11617" lon="-13.6272">
        <ele>26</ele>
        <time>2021-07-03 18:19:53</time>
      </trkpt>
      <trkpt lat="29.11615" lon="-13.62724">
        <ele>26</ele>
        <time>2021-07-03 18:19:54</time>
      </trkpt>
      <trkpt lat="29.11614" lon="-13.62729">
        <ele>26</ele>
        <time>2021-07-03 18:19:55</time>
      </trkpt>
      <trkpt lat="29.11613" lon="-13.62732">
        <ele>26</ele>
        <time>2021-07-03 18:19:56</time>
      </trkpt>
      <trkpt lat="29.11613" lon="-13.62736">
        <ele>26</ele>
        <time>2021-07-03 18:19:57</time>
      </trkpt>
      <trkpt lat="29.11612" lon="-13.62739">
        <ele>26</ele>
        <time>2021-07-03 18:19:58</time>
      </trkpt>
      <trkpt lat="29.11612" lon="-13.62743">
        <ele>26</ele>
        <time>2021-07-03 18:19:59</time>
      </trkpt>
      <trkpt lat="29.11611" lon="-13.62747">
        <ele>26</ele>
        <time>2021-07-03 18:20:00</time>
      </trkpt>
      <trkpt lat="29.11611" lon="-13.62751">
        <ele>25.8</ele>
        <time>2021-07-03 18:20:01</time>
      </trkpt>
      <trkpt lat="29.1161" lon="-13.62755">
        <ele>25.8</ele>
        <time>2021-07-03 18:20:02</time>
      </trkpt>
      <trkpt lat="29.1161" lon="-13.6276">
        <ele>25.8</ele>
        <time>2021-07-03 18:20:03</time>
      </trkpt>
      <trkpt lat="29.1161" lon="-13.62763">
        <ele>25.8</ele>
        <time>2021-07-03 18:20:04</time>
      </trkpt>
      <trkpt lat="29.1161" lon="-13.62766">
        <ele>25.8</ele>
        <time>2021-07-03 18:20:05</time>
      </trkpt>
      <trkpt lat="29.1161" lon="-13.62768">
        <ele>25.8</ele>
        <time>2021-07-03 18:20:06</time>
      </trkpt>
      <trkpt lat="29.1161" lon="-13.62769">
        <ele>25.6</ele>
        <time>2021-07-03 18:20:07</time>
      </trkpt>
      <trkpt lat="29.11609" lon="-13.62771">
        <ele>25.6</ele>
        <time>2021-07-03 18:20:08</time>
      </trkpt>
      <trkpt lat="29.11609" lon="-13.62773">
        <ele>25.6</ele>
        <time>2021-07-03 18:20:09</time>
      </trkpt>
      <trkpt lat="29.11609" lon="-13.62775">
        <ele>25.6</ele>
        <time>2021-07-03 18:20:10</time>
      </trkpt>
      <trkpt lat="29.11608" lon="-13.62776">
        <ele>25.6</ele>
        <time>2021-07-03 18:20:11</time>
      </trkpt>
      <trkpt lat="29.11607" lon="-13.62778">
        <ele>25.6</ele>
        <time>2021-07-03 18:20:12</time>
      </trkpt>
      <trkpt lat="29.11605" lon="-13.6278">
        <ele>25.4</ele>
        <time>2021-07-03 18:20:13</time>
      </trkpt>
      <trkpt lat="29.11602" lon="-13.62782">
        <ele>25.4</ele>
        <time>2021-07-03 18:20:14</time>
      </trkpt>
      <trkpt lat="29.116" lon="-13.62785">
        <ele>25.4</ele>
        <time>2021-07-03 18:20:15</time>
      </trkpt>
      <trkpt lat="29.11599" lon="-13.62786">
        <ele>25.2</ele>
        <time>2021-07-03 18:20:16</time>
      </trkpt>
      <trkpt lat="29.11597" lon="-13.62788">
        <ele>25.2</ele>
        <time>2021-07-03 18:20:17</time>
      </trkpt>
      <trkpt lat="29.11596" lon="-13.6279">
        <ele>25.2</ele>
        <time>2021-07-03 18:20:18</time>
      </trkpt>
      <trkpt lat="29.11596" lon="-13.62793">
        <ele>25.2</ele>
        <time>2021-07-03 18:20:19</time>
      </trkpt>
      <trkpt lat="29.11597" lon="-13.62796">
        <ele>25.2</ele>
        <time>2021-07-03 18:20:20</time>
      </trkpt>
      <trkpt lat="29.11598" lon="-13.62798">
        <ele>25.2</ele>
        <time>2021-07-03 18:20:21</time>
      </trkpt>
      <trkpt lat="29.11599" lon="-13.62801">
        <ele>25.4</ele>
        <time>2021-07-03 18:20:22</time>
      </trkpt>
      <trkpt lat="29.11601" lon="-13.62803">
        <ele>25.4</ele>
        <time>2021-07-03 18:20:23</time>
      </trkpt>
      <trkpt lat="29.11603" lon="-13.62806">
        <ele>25.4</ele>
        <time>2021-07-03 18:20:24</time>
      </trkpt>
      <trkpt lat="29.11605" lon="-13.62808">
        <ele>25.4</ele>
        <time>2021-07-03 18:20:25</time>
      </trkpt>
      <trkpt lat="29.11607" lon="-13.62811">
        <ele>25.4</ele>
        <time>2021-07-03 18:20:26</time>
      </trkpt>
      <trkpt lat="29.11609" lon="-13.62814">
        <ele>25.4</ele>
        <time>2021-07-03 18:20:27</time>
      </trkpt>
      <trkpt lat="29.11611" lon="-13.62818">
        <ele>25.4</ele>
        <time>2021-07-03 18:20:28</time>
      </trkpt>
      <trkpt lat="29.11612" lon="-13.62823">
        <ele>25.2</ele>
        <time>2021-07-03 18:20:29</time>
      </trkpt>
      <trkpt lat="29.11614" lon="-13.62828">
        <ele>25.2</ele>
        <time>2021-07-03 18:20:30</time>
      </trkpt>
      <trkpt lat="29.11615" lon="-13.62834">
        <ele>24.8</ele>
        <time>2021-07-03 18:20:31</time>
      </trkpt>
      <trkpt lat="29.11616" lon="-13.62839">
        <ele>24.6</ele>
        <time>2021-07-03 18:20:32</time>
      </trkpt>
      <trkpt lat="29.11616" lon="-13.62845">
        <ele>24.2</ele>
        <time>2021-07-03 18:20:33</time>
      </trkpt>
      <trkpt lat="29.11616" lon="-13.6285">
        <ele>24</ele>
        <time>2021-07-03 18:20:34</time>
      </trkpt>
      <trkpt lat="29.11616" lon="-13.62854">
        <ele>23.6</ele>
        <time>2021-07-03 18:20:35</time>
      </trkpt>
      <trkpt lat="29.11615" lon="-13.62859">
        <ele>23.2</ele>
        <time>2021-07-03 18:20:36</time>
      </trkpt>
      <trkpt lat="29.11615" lon="-13.62863">
        <ele>22.8</ele>
        <time>2021-07-03 18:20:37</time>
      </trkpt>
      <trkpt lat="29.11614" lon="-13.62866">
        <ele>22.4</ele>
        <time>2021-07-03 18:20:38</time>
      </trkpt>
      <trkpt lat="29.11614" lon="-13.6287">
        <ele>21.8</ele>
        <time>2021-07-03 18:20:39</time>
      </trkpt>
      <trkpt lat="29.11614" lon="-13.62872">
        <ele>21.6</ele>
        <time>2021-07-03 18:20:40</time>
      </trkpt>
      <trkpt lat="29.11614" lon="-13.62875">
        <ele>21.2</ele>
        <time>2021-07-03 18:20:41</time>
      </trkpt>
      <trkpt lat="29.11613" lon="-13.62878">
        <ele>20.8</ele>
        <time>2021-07-03 18:20:42</time>
      </trkpt>
      <trkpt lat="29.11613" lon="-13.62882">
        <ele>20.6</ele>
        <time>2021-07-03 18:20:43</time>
      </trkpt>
      <trkpt lat="29.11612" lon="-13.62886">
        <ele>20.4</ele>
        <time>2021-07-03 18:20:44</time>
      </trkpt>
      <trkpt lat="29.11612" lon="-13.62891">
        <ele>20</ele>
        <time>2021-07-03 18:20:45</time>
      </trkpt>
      <trkpt lat="29.11612" lon="-13.62895">
        <ele>20</ele>
        <time>2021-07-03 18:20:46</time>
      </trkpt>
      <trkpt lat="29.11611" lon="-13.629">
        <ele>19.6</ele>
        <time>2021-07-03 18:20:47</time>
      </trkpt>
      <trkpt lat="29.11611" lon="-13.62904">
        <ele>19.4</ele>
        <time>2021-07-03 18:20:48</time>
      </trkpt>
      <trkpt lat="29.11611" lon="-13.62908">
        <ele>19.4</ele>
        <time>2021-07-03 18:20:49</time>
      </trkpt>
      <trkpt lat="29.1161" lon="-13.62911">
        <ele>18.8</ele>
        <time>2021-07-03 18:20:50</time>
      </trkpt>
      <trkpt lat="29.1161" lon="-13.62914">
        <ele>18.8</ele>
        <time>2021-07-03 18:20:51</time>
      </trkpt>
      <trkpt lat="29.1161" lon="-13.62917">
        <ele>18.4</ele>
        <time>2021-07-03 18:20:52</time>
      </trkpt>
      <trkpt lat="29.1161" lon="-13.62921">
        <ele>18.4</ele>
        <time>2021-07-03 18:20:53</time>
      </trkpt>
      <trkpt lat="29.1161" lon="-13.62925">
        <ele>18</ele>
        <time>2021-07-03 18:20:54</time>
      </trkpt>
      <trkpt lat="29.1161" lon="-13.62929">
        <ele>17.8</ele>
        <time>2021-07-03 18:20:55</time>
      </trkpt>
      <trkpt lat="29.1161" lon="-13.62932">
        <ele>17.8</ele>
        <time>2021-07-03 18:20:56</time>
      </trkpt>
      <trkpt lat="29.1161" lon="-13.62936">
        <ele>17.4</ele>
        <time>2021-07-03 18:20:57</time>
      </trkpt>
      <trkpt lat="29.1161" lon="-13.62939">
        <ele>17.2</ele>
        <time>2021-07-03 18:20:58</time>
      </trkpt>
      <trkpt lat="29.1161" lon="-13.62942">
        <ele>17.2</ele>
        <time>2021-07-03 18:20:59</time>
      </trkpt>
      <trkpt lat="29.1161" lon="-13.62945">
        <ele>17</ele>
        <time>2021-07-03 18:21:02</time>
      </trkpt>
      <trkpt lat="29.1161" lon="-13.62949">
        <ele>17</ele>
        <time>2021-07-03 18:21:03</time>
      </trkpt>
      <trkpt lat="29.1161" lon="-13.62953">
        <ele>16.8</ele>
        <time>2021-07-03 18:21:04</time>
      </trkpt>
      <trkpt lat="29.1161" lon="-13.62958">
        <ele>16.8</ele>
        <time>2021-07-03 18:21:05</time>
      </trkpt>
      <trkpt lat="29.1161" lon="-13.62962">
        <ele>16.8</ele>
        <time>2021-07-03 18:21:06</time>
      </trkpt>
      <trkpt lat="29.1161" lon="-13.62966">
        <ele>16.8</ele>
        <time>2021-07-03 18:21:07</time>
      </trkpt>
      <trkpt lat="29.11611" lon="-13.62969">
        <ele>16.8</ele>
        <time>2021-07-03 18:21:08</time>
      </trkpt>
      <trkpt lat="29.11611" lon="-13.62974">
        <ele>16.8</ele>
        <time>2021-07-03 18:21:09</time>
      </trkpt>
      <trkpt lat="29.11611" lon="-13.62979">
        <ele>16.4</ele>
        <time>2021-07-03 18:21:10</time>
      </trkpt>
      <trkpt lat="29.11611" lon="-13.62984">
        <ele>16.2</ele>
        <time>2021-07-03 18:21:11</time>
      </trkpt>
      <trkpt lat="29.11611" lon="-13.62989">
        <ele>16</ele>
        <time>2021-07-03 18:21:12</time>
      </trkpt>
      <trkpt lat="29.11611" lon="-13.62994">
        <ele>15.6</ele>
        <time>2021-07-03 18:21:13</time>
      </trkpt>
      <trkpt lat="29.11611" lon="-13.62999">
        <ele>15.4</ele>
        <time>2021-07-03 18:21:14</time>
      </trkpt>
      <trkpt lat="29.11611" lon="-13.63004">
        <ele>15.4</ele>
        <time>2021-07-03 18:21:15</time>
      </trkpt>
      <trkpt lat="29.11611" lon="-13.63008">
        <ele>15</ele>
        <time>2021-07-03 18:21:16</time>
      </trkpt>
      <trkpt lat="29.11612" lon="-13.63012">
        <ele>15</ele>
        <time>2021-07-03 18:21:17</time>
      </trkpt>
      <trkpt lat="29.11612" lon="-13.63017">
        <ele>14.6</ele>
        <time>2021-07-03 18:21:18</time>
      </trkpt>
      <trkpt lat="29.11612" lon="-13.63021">
        <ele>14.6</ele>
        <time>2021-07-03 18:21:19</time>
      </trkpt>
      <trkpt lat="29.11612" lon="-13.63025">
        <ele>14.6</ele>
        <time>2021-07-03 18:21:20</time>
      </trkpt>
      <trkpt lat="29.11612" lon="-13.63027">
        <ele>14.6</ele>
        <time>2021-07-03 18:21:21</time>
      </trkpt>
      <trkpt lat="29.11612" lon="-13.6303">
        <ele>14.4</ele>
        <time>2021-07-03 18:21:22</time>
      </trkpt>
      <trkpt lat="29.11612" lon="-13.63033">
        <ele>14.4</ele>
        <time>2021-07-03 18:21:23</time>
      </trkpt>
      <trkpt lat="29.11611" lon="-13.63036">
        <ele>14.4</ele>
        <time>2021-07-03 18:21:24</time>
      </trkpt>
      <trkpt lat="29.11611" lon="-13.63038">
        <ele>14.2</ele>
        <time>2021-07-03 18:21:25</time>
      </trkpt>
      <trkpt lat="29.11611" lon="-13.63041">
        <ele>14.2</ele>
        <time>2021-07-03 18:21:26</time>
      </trkpt>
      <trkpt lat="29.1161" lon="-13.63044">
        <ele>14.2</ele>
        <time>2021-07-03 18:21:27</time>
      </trkpt>
      <trkpt lat="29.1161" lon="-13.63048">
        <ele>14</ele>
        <time>2021-07-03 18:21:28</time>
      </trkpt>
      <trkpt lat="29.1161" lon="-13.63053">
        <ele>14</ele>
        <time>2021-07-03 18:21:29</time>
      </trkpt>
      <trkpt lat="29.11611" lon="-13.63057">
        <ele>14</ele>
        <time>2021-07-03 18:21:30</time>
      </trkpt>
      <trkpt lat="29.11612" lon="-13.63063">
        <ele>13.8</ele>
        <time>2021-07-03 18:21:31</time>
      </trkpt>
      <trkpt lat="29.11613" lon="-13.63068">
        <ele>13.8</ele>
        <time>2021-07-03 18:21:32</time>
      </trkpt>
      <trkpt lat="29.11613" lon="-13.63072">
        <ele>13.4</ele>
        <time>2021-07-03 18:21:33</time>
      </trkpt>
      <trkpt lat="29.11614" lon="-13.63075">
        <ele>13.4</ele>
        <time>2021-07-03 18:21:34</time>
      </trkpt>
      <trkpt lat="29.11616" lon="-13.63078">
        <ele>13.4</ele>
        <time>2021-07-03 18:21:35</time>
      </trkpt>
      <trkpt lat="29.11617" lon="-13.63082">
        <ele>13.4</ele>
        <time>2021-07-03 18:21:36</time>
      </trkpt>
      <trkpt lat="29.11618" lon="-13.63085">
        <ele>13.4</ele>
        <time>2021-07-03 18:21:37</time>
      </trkpt>
      <trkpt lat="29.1162" lon="-13.63088">
        <ele>13.4</ele>
        <time>2021-07-03 18:21:38</time>
      </trkpt>
      <trkpt lat="29.11621" lon="-13.63092">
        <ele>13.4</ele>
        <time>2021-07-03 18:21:39</time>
      </trkpt>
      <trkpt lat="29.11621" lon="-13.63095">
        <ele>13.4</ele>
        <time>2021-07-03 18:21:40</time>
      </trkpt>
      <trkpt lat="29.11622" lon="-13.63098">
        <ele>13.4</ele>
        <time>2021-07-03 18:21:41</time>
      </trkpt>
      <trkpt lat="29.11622" lon="-13.63102">
        <ele>13.4</ele>
        <time>2021-07-03 18:21:42</time>
      </trkpt>
      <trkpt lat="29.11623" lon="-13.63105">
        <ele>13.4</ele>
        <time>2021-07-03 18:21:43</time>
      </trkpt>
      <trkpt lat="29.11623" lon="-13.63106">
        <ele>13.4</ele>
        <time>2021-07-03 18:21:44</time>
      </trkpt>
      <trkpt lat="29.11623" lon="-13.63109">
        <ele>13.4</ele>
        <time>2021-07-03 18:21:45</time>
      </trkpt>
      <trkpt lat="29.11623" lon="-13.63111">
        <ele>13.4</ele>
        <time>2021-07-03 18:21:46</time>
      </trkpt>
      <trkpt lat="29.11623" lon="-13.63114">
        <ele>13.4</ele>
        <time>2021-07-03 18:21:47</time>
      </trkpt>
      <trkpt lat="29.11623" lon="-13.63117">
        <ele>13.4</ele>
        <time>2021-07-03 18:21:48</time>
      </trkpt>
      <trkpt lat="29.11624" lon="-13.63121">
        <ele>13.4</ele>
        <time>2021-07-03 18:21:49</time>
      </trkpt>
      <trkpt lat="29.11625" lon="-13.63125">
        <ele>13.4</ele>
        <time>2021-07-03 18:21:50</time>
      </trkpt>
      <trkpt lat="29.11625" lon="-13.63129">
        <ele>13.4</ele>
        <time>2021-07-03 18:21:51</time>
      </trkpt>
      <trkpt lat="29.11624" lon="-13.63133">
        <ele>13.4</ele>
        <time>2021-07-03 18:21:52</time>
      </trkpt>
      <trkpt lat="29.11622" lon="-13.63136">
        <ele>13.4</ele>
        <time>2021-07-03 18:21:53</time>
      </trkpt>
      <trkpt lat="29.1162" lon="-13.63139">
        <ele>13.4</ele>
        <time>2021-07-03 18:21:54</time>
      </trkpt>
      <trkpt lat="29.11617" lon="-13.63142">
        <ele>13.4</ele>
        <time>2021-07-03 18:21:55</time>
      </trkpt>
      <trkpt lat="29.11614" lon="-13.63144">
        <ele>13.4</ele>
        <time>2021-07-03 18:21:56</time>
      </trkpt>
      <trkpt lat="29.11611" lon="-13.63147">
        <ele>13.4</ele>
        <time>2021-07-03 18:21:57</time>
      </trkpt>
      <trkpt lat="29.11608" lon="-13.63149">
        <ele>13.4</ele>
        <time>2021-07-03 18:21:58</time>
      </trkpt>
      <trkpt lat="29.11606" lon="-13.63152">
        <ele>13.4</ele>
        <time>2021-07-03 18:21:59</time>
      </trkpt>
      <trkpt lat="29.11604" lon="-13.63156">
        <ele>13.4</ele>
        <time>2021-07-03 18:22:00</time>
      </trkpt>
      <trkpt lat="29.11603" lon="-13.6316">
        <ele>13.8</ele>
        <time>2021-07-03 18:22:01</time>
      </trkpt>
      <trkpt lat="29.11603" lon="-13.63163">
        <ele>13.8</ele>
        <time>2021-07-03 18:22:02</time>
      </trkpt>
      <trkpt lat="29.11603" lon="-13.63168">
        <ele>13.8</ele>
        <time>2021-07-03 18:22:03</time>
      </trkpt>
      <trkpt lat="29.11604" lon="-13.63172">
        <ele>14.2</ele>
        <time>2021-07-03 18:22:04</time>
      </trkpt>
      <trkpt lat="29.11604" lon="-13.63177">
        <ele>14.2</ele>
        <time>2021-07-03 18:22:05</time>
      </trkpt>
      <trkpt lat="29.11605" lon="-13.63182">
        <ele>14.6</ele>
        <time>2021-07-03 18:22:06</time>
      </trkpt>
      <trkpt lat="29.11605" lon="-13.63187">
        <ele>14.6</ele>
        <time>2021-07-03 18:22:07</time>
      </trkpt>
      <trkpt lat="29.11604" lon="-13.63191">
        <ele>14.6</ele>
        <time>2021-07-03 18:22:08</time>
      </trkpt>
      <trkpt lat="29.11604" lon="-13.63196">
        <ele>14.6</ele>
        <time>2021-07-03 18:22:09</time>
      </trkpt>
      <trkpt lat="29.11602" lon="-13.632">
        <ele>14.6</ele>
        <time>2021-07-03 18:22:10</time>
      </trkpt>
      <trkpt lat="29.11601" lon="-13.63204">
        <ele>14.6</ele>
        <time>2021-07-03 18:22:11</time>
      </trkpt>
      <trkpt lat="29.11598" lon="-13.63208">
        <ele>14.4</ele>
        <time>2021-07-03 18:22:12</time>
      </trkpt>
      <trkpt lat="29.11595" lon="-13.6321">
        <ele>14.4</ele>
        <time>2021-07-03 18:22:13</time>
      </trkpt>
      <trkpt lat="29.11592" lon="-13.63211">
        <ele>14.4</ele>
        <time>2021-07-03 18:22:14</time>
      </trkpt>
      <trkpt lat="29.11589" lon="-13.63213">
        <ele>14.4</ele>
        <time>2021-07-03 18:22:15</time>
      </trkpt>
      <trkpt lat="29.11585" lon="-13.63216">
        <ele>14.2</ele>
        <time>2021-07-03 18:22:16</time>
      </trkpt>
      <trkpt lat="29.11582" lon="-13.63219">
        <ele>14.2</ele>
        <time>2021-07-03 18:22:17</time>
      </trkpt>
      <trkpt lat="29.11578" lon="-13.63223">
        <ele>14.2</ele>
        <time>2021-07-03 18:22:18</time>
      </trkpt>
      <trkpt lat="29.11576" lon="-13.63226">
        <ele>14.2</ele>
        <time>2021-07-03 18:22:19</time>
      </trkpt>
      <trkpt lat="29.11573" lon="-13.63229">
        <ele>14.2</ele>
        <time>2021-07-03 18:22:20</time>
      </trkpt>
      <trkpt lat="29.1157" lon="-13.63232">
        <ele>14.2</ele>
        <time>2021-07-03 18:22:21</time>
      </trkpt>
      <trkpt lat="29.11568" lon="-13.63235">
        <ele>14.2</ele>
        <time>2021-07-03 18:22:22</time>
      </trkpt>
      <trkpt lat="29.11565" lon="-13.63238">
        <ele>13.8</ele>
        <time>2021-07-03 18:22:23</time>
      </trkpt>
      <trkpt lat="29.11563" lon="-13.63241">
        <ele>13.8</ele>
        <time>2021-07-03 18:22:24</time>
      </trkpt>
      <trkpt lat="29.1156" lon="-13.63244">
        <ele>13.8</ele>
        <time>2021-07-03 18:22:25</time>
      </trkpt>
      <trkpt lat="29.11557" lon="-13.63247">
        <ele>13.6</ele>
        <time>2021-07-03 18:22:26</time>
      </trkpt>
      <trkpt lat="29.11555" lon="-13.63251">
        <ele>13.6</ele>
        <time>2021-07-03 18:22:27</time>
      </trkpt>
      <trkpt lat="29.11553" lon="-13.63254">
        <ele>13.4</ele>
        <time>2021-07-03 18:22:28</time>
      </trkpt>
      <trkpt lat="29.1155" lon="-13.63258">
        <ele>13.4</ele>
        <time>2021-07-03 18:22:29</time>
      </trkpt>
      <trkpt lat="29.11549" lon="-13.63262">
        <ele>13.4</ele>
        <time>2021-07-03 18:22:30</time>
      </trkpt>
      <trkpt lat="29.11547" lon="-13.63265">
        <ele>13</ele>
        <time>2021-07-03 18:22:31</time>
      </trkpt>
      <trkpt lat="29.11546" lon="-13.63268">
        <ele>13</ele>
        <time>2021-07-03 18:22:32</time>
      </trkpt>
      <trkpt lat="29.11544" lon="-13.6327">
        <ele>13</ele>
        <time>2021-07-03 18:22:33</time>
      </trkpt>
      <trkpt lat="29.11542" lon="-13.63272">
        <ele>12.8</ele>
        <time>2021-07-03 18:22:34</time>
      </trkpt>
      <trkpt lat="29.1154" lon="-13.63274">
        <ele>12.8</ele>
        <time>2021-07-03 18:22:35</time>
      </trkpt>
      <trkpt lat="29.11538" lon="-13.63277">
        <ele>12.6</ele>
        <time>2021-07-03 18:22:36</time>
      </trkpt>
      <trkpt lat="29.11536" lon="-13.63279">
        <ele>12.6</ele>
        <time>2021-07-03 18:22:37</time>
      </trkpt>
      <trkpt lat="29.11534" lon="-13.63282">
        <ele>12.2</ele>
        <time>2021-07-03 18:22:38</time>
      </trkpt>
      <trkpt lat="29.11534" lon="-13.63286">
        <ele>12.2</ele>
        <time>2021-07-03 18:22:39</time>
      </trkpt>
      <trkpt lat="29.11534" lon="-13.6329">
        <ele>12</ele>
        <time>2021-07-03 18:22:40</time>
      </trkpt>
      <trkpt lat="29.11536" lon="-13.63293">
        <ele>12</ele>
        <time>2021-07-03 18:22:41</time>
      </trkpt>
      <trkpt lat="29.11537" lon="-13.63296">
        <ele>12</ele>
        <time>2021-07-03 18:22:42</time>
      </trkpt>
      <trkpt lat="29.11539" lon="-13.633">
        <ele>11.6</ele>
        <time>2021-07-03 18:22:43</time>
      </trkpt>
      <trkpt lat="29.11541" lon="-13.63303">
        <ele>11.6</ele>
        <time>2021-07-03 18:22:44</time>
      </trkpt>
      <trkpt lat="29.11543" lon="-13.63306">
        <ele>11.4</ele>
        <time>2021-07-03 18:22:45</time>
      </trkpt>
      <trkpt lat="29.11544" lon="-13.63309">
        <ele>11.2</ele>
        <time>2021-07-03 18:22:46</time>
      </trkpt>
      <trkpt lat="29.11544" lon="-13.63312">
        <ele>11.2</ele>
        <time>2021-07-03 18:22:47</time>
      </trkpt>
      <trkpt lat="29.11544" lon="-13.63315">
        <ele>11</ele>
        <time>2021-07-03 18:22:48</time>
      </trkpt>
      <trkpt lat="29.11544" lon="-13.63316">
        <ele>11</ele>
        <time>2021-07-03 18:22:49</time>
      </trkpt>
      <trkpt lat="29.11543" lon="-13.63318">
        <ele>11</ele>
        <time>2021-07-03 18:22:50</time>
      </trkpt>
      <trkpt lat="29.11542" lon="-13.6332">
        <ele>11</ele>
        <time>2021-07-03 18:22:51</time>
      </trkpt>
      <trkpt lat="29.11541" lon="-13.63322">
        <ele>11</ele>
        <time>2021-07-03 18:22:52</time>
      </trkpt>
      <trkpt lat="29.11539" lon="-13.63326">
        <ele>10.6</ele>
        <time>2021-07-03 18:22:53</time>
      </trkpt>
      <trkpt lat="29.11538" lon="-13.63329">
        <ele>10.6</ele>
        <time>2021-07-03 18:22:54</time>
      </trkpt>
      <trkpt lat="29.11536" lon="-13.63331">
        <ele>10.2</ele>
        <time>2021-07-03 18:22:55</time>
      </trkpt>
      <trkpt lat="29.11534" lon="-13.63334">
        <ele>10</ele>
        <time>2021-07-03 18:22:56</time>
      </trkpt>
      <trkpt lat="29.11533" lon="-13.63337">
        <ele>9.8</ele>
        <time>2021-07-03 18:22:57</time>
      </trkpt>
      <trkpt lat="29.11532" lon="-13.63342">
        <ele>9.6</ele>
        <time>2021-07-03 18:22:58</time>
      </trkpt>
      <trkpt lat="29.11532" lon="-13.63347">
        <ele>9.6</ele>
        <time>2021-07-03 18:22:59</time>
      </trkpt>
      <trkpt lat="29.11532" lon="-13.63351">
        <ele>9.2</ele>
        <time>2021-07-03 18:23:00</time>
      </trkpt>
      <trkpt lat="29.11532" lon="-13.63356">
        <ele>9.2</ele>
        <time>2021-07-03 18:23:01</time>
      </trkpt>
      <trkpt lat="29.11531" lon="-13.63359">
        <ele>9</ele>
        <time>2021-07-03 18:23:02</time>
      </trkpt>
      <trkpt lat="29.11531" lon="-13.63363">
        <ele>9</ele>
        <time>2021-07-03 18:23:03</time>
      </trkpt>
      <trkpt lat="29.11532" lon="-13.63367">
        <ele>8.8</ele>
        <time>2021-07-03 18:23:04</time>
      </trkpt>
      <trkpt lat="29.11533" lon="-13.6337">
        <ele>8.8</ele>
        <time>2021-07-03 18:23:05</time>
      </trkpt>
      <trkpt lat="29.11535" lon="-13.63372">
        <ele>8.8</ele>
        <time>2021-07-03 18:23:06</time>
      </trkpt>
      <trkpt lat="29.11536" lon="-13.63373">
        <ele>8.8</ele>
        <time>2021-07-03 18:23:07</time>
      </trkpt>
      <trkpt lat="29.11538" lon="-13.63375">
        <ele>8.6</ele>
        <time>2021-07-03 18:23:08</time>
      </trkpt>
      <trkpt lat="29.11539" lon="-13.63375">
        <ele>8.6</ele>
        <time>2021-07-03 18:23:09</time>
      </trkpt>
      <trkpt lat="29.11539" lon="-13.63376">
        <ele>8.6</ele>
        <time>2021-07-03 18:23:10</time>
      </trkpt>
      <trkpt lat="29.11541" lon="-13.63376">
        <ele>8.4</ele>
        <time>2021-07-03 18:23:11</time>
      </trkpt>
      <trkpt lat="29.11542" lon="-13.63378">
        <ele>8.4</ele>
        <time>2021-07-03 18:23:12</time>
      </trkpt>
      <trkpt lat="29.11543" lon="-13.6338">
        <ele>8.4</ele>
        <time>2021-07-03 18:23:13</time>
      </trkpt>
      <trkpt lat="29.11544" lon="-13.63382">
        <ele>8.2</ele>
        <time>2021-07-03 18:23:14</time>
      </trkpt>
      <trkpt lat="29.11544" lon="-13.63384">
        <ele>8.2</ele>
        <time>2021-07-03 18:23:15</time>
      </trkpt>
      <trkpt lat="29.11545" lon="-13.63388">
        <ele>8.2</ele>
        <time>2021-07-03 18:23:16</time>
      </trkpt>
      <trkpt lat="29.11546" lon="-13.63391">
        <ele>8.2</ele>
        <time>2021-07-03 18:23:17</time>
      </trkpt>
      <trkpt lat="29.11547" lon="-13.63395">
        <ele>7.8</ele>
        <time>2021-07-03 18:23:18</time>
      </trkpt>
      <trkpt lat="29.11548" lon="-13.63398">
        <ele>7.8</ele>
        <time>2021-07-03 18:23:19</time>
      </trkpt>
      <trkpt lat="29.11548" lon="-13.63402">
        <ele>7.6</ele>
        <time>2021-07-03 18:23:20</time>
      </trkpt>
      <trkpt lat="29.11549" lon="-13.63406">
        <ele>7.6</ele>
        <time>2021-07-03 18:23:21</time>
      </trkpt>
      <trkpt lat="29.11549" lon="-13.6341">
        <ele>7.6</ele>
        <time>2021-07-03 18:23:22</time>
      </trkpt>
      <trkpt lat="29.11548" lon="-13.63413">
        <ele>7.2</ele>
        <time>2021-07-03 18:23:23</time>
      </trkpt>
      <trkpt lat="29.11548" lon="-13.63416">
        <ele>7.2</ele>
        <time>2021-07-03 18:23:24</time>
      </trkpt>
      <trkpt lat="29.11549" lon="-13.63419">
        <ele>7</ele>
        <time>2021-07-03 18:23:25</time>
      </trkpt>
      <trkpt lat="29.1155" lon="-13.6342">
        <ele>6.8</ele>
        <time>2021-07-03 18:23:26</time>
      </trkpt>
      <trkpt lat="29.11552" lon="-13.63424">
        <ele>6.8</ele>
        <time>2021-07-03 18:23:27</time>
      </trkpt>
      <trkpt lat="29.11553" lon="-13.63427">
        <ele>6.4</ele>
        <time>2021-07-03 18:23:28</time>
      </trkpt>
      <trkpt lat="29.11553" lon="-13.63429">
        <ele>6.4</ele>
        <time>2021-07-03 18:23:29</time>
      </trkpt>
      <trkpt lat="29.11554" lon="-13.6343">
        <ele>6.4</ele>
        <time>2021-07-03 18:23:30</time>
      </trkpt>
      <trkpt lat="29.11554" lon="-13.6343">
        <ele>6.4</ele>
        <time>2021-07-03 18:23:31</time>
      </trkpt>
      <trkpt lat="29.11554" lon="-13.6343">
        <ele>6.4</ele>
        <time>2021-07-03 18:23:32</time>
      </trkpt>
      <trkpt lat="29.11554" lon="-13.6343">
        <ele>6.4</ele>
        <time>2021-07-03 18:23:33</time>
      </trkpt>
      <trkpt lat="29.11554" lon="-13.63431">
        <ele>6.4</ele>
        <time>2021-07-03 18:23:34</time>
      </trkpt>
      <trkpt lat="29.11555" lon="-13.63433">
        <ele>6.4</ele>
        <time>2021-07-03 18:23:35</time>
      </trkpt>
      <trkpt lat="29.11555" lon="-13.63434">
        <ele>6.4</ele>
        <time>2021-07-03 18:23:36</time>
      </trkpt>
      <trkpt lat="29.11555" lon="-13.63435">
        <ele>6.4</ele>
        <time>2021-07-03 18:23:37</time>
      </trkpt>
      <trkpt lat="29.11555" lon="-13.63436">
        <ele>6.4</ele>
        <time>2021-07-03 18:23:38</time>
      </trkpt>
      <trkpt lat="29.11555" lon="-13.63438">
        <ele>6.4</ele>
        <time>2021-07-03 18:23:39</time>
      </trkpt>
      <trkpt lat="29.11555" lon="-13.6344">
        <ele>6.2</ele>
        <time>2021-07-03 18:23:40</time>
      </trkpt>
      <trkpt lat="29.11556" lon="-13.63442">
        <ele>6.2</ele>
        <time>2021-07-03 18:23:41</time>
      </trkpt>
      <trkpt lat="29.11556" lon="-13.63443">
        <ele>6.2</ele>
        <time>2021-07-03 18:23:42</time>
      </trkpt>
      <trkpt lat="29.11556" lon="-13.63443">
        <ele>6.2</ele>
        <time>2021-07-03 18:23:43</time>
      </trkpt>
      <trkpt lat="29.11556" lon="-13.63443">
        <ele>6.2</ele>
        <time>2021-07-03 18:23:44</time>
      </trkpt>
      <trkpt lat="29.11556" lon="-13.63443">
        <ele>6.2</ele>
        <time>2021-07-03 18:23:45</time>
      </trkpt>
      <trkpt lat="29.11556" lon="-13.63446">
        <ele>6.4</ele>
        <time>2021-07-03 18:23:46</time>
      </trkpt>
      <trkpt lat="29.11556" lon="-13.63447">
        <ele>6.4</ele>
        <time>2021-07-03 18:23:47</time>
      </trkpt>
      <trkpt lat="29.11556" lon="-13.63447">
        <ele>6.4</ele>
        <time>2021-07-03 18:23:48</time>
      </trkpt>
      <trkpt lat="29.11556" lon="-13.63446">
        <ele>6.4</ele>
        <time>2021-07-03 18:23:49</time>
      </trkpt>
      <trkpt lat="29.11556" lon="-13.63445">
        <ele>6.4</ele>
        <time>2021-07-03 18:23:50</time>
      </trkpt>
      <trkpt lat="29.11556" lon="-13.63445">
        <ele>6.4</ele>
        <time>2021-07-03 18:23:51</time>
      </trkpt>
      <trkpt lat="29.11556" lon="-13.63444">
        <ele>6.4</ele>
        <time>2021-07-03 18:23:52</time>
      </trkpt>
      <trkpt lat="29.11556" lon="-13.63444">
        <ele>6.2</ele>
        <time>2021-07-03 18:23:53</time>
      </trkpt>
      <trkpt lat="29.11556" lon="-13.63444">
        <ele>6.2</ele>
        <time>2021-07-03 18:23:54</time>
      </trkpt>
      <trkpt lat="29.11556" lon="-13.63444">
        <ele>6.2</ele>
        <time>2021-07-03 18:23:55</time>
      </trkpt>
      <trkpt lat="29.11557" lon="-13.63446">
        <ele>5.8</ele>
        <time>2021-07-03 18:23:56</time>
      </trkpt>
      <trkpt lat="29.11557" lon="-13.63447">
        <ele>6</ele>
        <time>2021-07-03 18:23:57</time>
      </trkpt>
      <trkpt lat="29.11557" lon="-13.63448">
        <ele>6</ele>
        <time>2021-07-03 18:23:58</time>
      </trkpt>
      <trkpt lat="29.11557" lon="-13.63448">
        <ele>6.2</ele>
        <time>2021-07-03 18:23:59</time>
      </trkpt>
      <trkpt lat="29.11557" lon="-13.63448">
        <ele>6.2</ele>
        <time>2021-07-03 18:24:00</time>
      </trkpt>
      <trkpt lat="29.11557" lon="-13.63449">
        <ele>6.2</ele>
        <time>2021-07-03 18:24:01</time>
      </trkpt>
      <trkpt lat="29.11558" lon="-13.6345">
        <ele>6.2</ele>
        <time>2021-07-03 18:24:02</time>
      </trkpt>
      <trkpt lat="29.11558" lon="-13.63451">
        <ele>6.2</ele>
        <time>2021-07-03 18:24:03</time>
      </trkpt>
      <trkpt lat="29.11558" lon="-13.63452">
        <ele>6.2</ele>
        <time>2021-07-03 18:24:04</time>
      </trkpt>
      <trkpt lat="29.11558" lon="-13.63453">
        <ele>6.4</ele>
        <time>2021-07-03 18:24:05</time>
      </trkpt>
      <trkpt lat="29.11558" lon="-13.63453">
        <ele>6.4</ele>
        <time>2021-07-03 18:24:06</time>
      </trkpt>
      <trkpt lat="29.11558" lon="-13.63453">
        <ele>6.4</ele>
        <time>2021-07-03 18:24:07</time>
      </trkpt>
      <trkpt lat="29.11558" lon="-13.63453">
        <ele>6.4</ele>
        <time>2021-07-03 18:24:08</time>
      </trkpt>
      <trkpt lat="29.11559" lon="-13.63455">
        <ele>6.6</ele>
        <time>2021-07-03 18:24:09</time>
      </trkpt>
      <trkpt lat="29.11559" lon="-13.63458">
        <ele>6.6</ele>
        <time>2021-07-03 18:24:10</time>
      </trkpt>
      <trkpt lat="29.1156" lon="-13.6346">
        <ele>6.6</ele>
        <time>2021-07-03 18:24:11</time>
      </trkpt>
      <trkpt lat="29.11561" lon="-13.63462">
        <ele>6.6</ele>
        <time>2021-07-03 18:24:12</time>
      </trkpt>
      <trkpt lat="29.11561" lon="-13.63465">
        <ele>6.6</ele>
        <time>2021-07-03 18:24:13</time>
      </trkpt>
      <trkpt lat="29.11562" lon="-13.63468">
        <ele>6.6</ele>
        <time>2021-07-03 18:24:14</time>
      </trkpt>
      <trkpt lat="29.11562" lon="-13.63471">
        <ele>7</ele>
        <time>2021-07-03 18:24:15</time>
      </trkpt>
      <trkpt lat="29.11562" lon="-13.63473">
        <ele>7</ele>
        <time>2021-07-03 18:24:16</time>
      </trkpt>
      <trkpt lat="29.11561" lon="-13.63475">
        <ele>7.4</ele>
        <time>2021-07-03 18:24:17</time>
      </trkpt>
      <trkpt lat="29.1156" lon="-13.63477">
        <ele>7.4</ele>
        <time>2021-07-03 18:24:18</time>
      </trkpt>
      <trkpt lat="29.11559" lon="-13.63479">
        <ele>7.6</ele>
        <time>2021-07-03 18:24:19</time>
      </trkpt>
      <trkpt lat="29.11557" lon="-13.6348">
        <ele>7.6</ele>
        <time>2021-07-03 18:24:20</time>
      </trkpt>
      <trkpt lat="29.11555" lon="-13.63481">
        <ele>8</ele>
        <time>2021-07-03 18:24:21</time>
      </trkpt>
      <trkpt lat="29.11553" lon="-13.63482">
        <ele>8</ele>
        <time>2021-07-03 18:24:22</time>
      </trkpt>
      <trkpt lat="29.1155" lon="-13.63482">
        <ele>8.2</ele>
        <time>2021-07-03 18:24:23</time>
      </trkpt>
      <trkpt lat="29.11548" lon="-13.63482">
        <ele>8.2</ele>
        <time>2021-07-03 18:24:24</time>
      </trkpt>
      <trkpt lat="29.11546" lon="-13.63482">
        <ele>8.6</ele>
        <time>2021-07-03 18:24:25</time>
      </trkpt>
      <trkpt lat="29.11545" lon="-13.63481">
        <ele>8.6</ele>
        <time>2021-07-03 18:24:26</time>
      </trkpt>
      <trkpt lat="29.11543" lon="-13.63481">
        <ele>8.8</ele>
        <time>2021-07-03 18:24:27</time>
      </trkpt>
      <trkpt lat="29.11542" lon="-13.63481">
        <ele>9</ele>
        <time>2021-07-03 18:24:28</time>
      </trkpt>
      <trkpt lat="29.1154" lon="-13.63482">
        <ele>9</ele>
        <time>2021-07-03 18:24:29</time>
      </trkpt>
      <trkpt lat="29.11539" lon="-13.63482">
        <ele>9.4</ele>
        <time>2021-07-03 18:24:30</time>
      </trkpt>
      <trkpt lat="29.11537" lon="-13.63483">
        <ele>9.6</ele>
        <time>2021-07-03 18:24:31</time>
      </trkpt>
      <trkpt lat="29.11536" lon="-13.63485">
        <ele>9.6</ele>
        <time>2021-07-03 18:24:32</time>
      </trkpt>
      <trkpt lat="29.11534" lon="-13.63486">
        <ele>10</ele>
        <time>2021-07-03 18:24:33</time>
      </trkpt>
      <trkpt lat="29.11532" lon="-13.63487">
        <ele>10</ele>
        <time>2021-07-03 18:24:34</time>
      </trkpt>
      <trkpt lat="29.11531" lon="-13.63489">
        <ele>10</ele>
        <time>2021-07-03 18:24:35</time>
      </trkpt>
      <trkpt lat="29.11529" lon="-13.63491">
        <ele>10</ele>
        <time>2021-07-03 18:24:36</time>
      </trkpt>
      <trkpt lat="29.11527" lon="-13.63492">
        <ele>10</ele>
        <time>2021-07-03 18:24:37</time>
      </trkpt>
      <trkpt lat="29.11525" lon="-13.63494">
        <ele>10.2</ele>
        <time>2021-07-03 18:24:38</time>
      </trkpt>
      <trkpt lat="29.11522" lon="-13.63496">
        <ele>10.2</ele>
        <time>2021-07-03 18:24:39</time>
      </trkpt>
      <trkpt lat="29.1152" lon="-13.63498">
        <ele>10.2</ele>
        <time>2021-07-03 18:24:40</time>
      </trkpt>
      <trkpt lat="29.11518" lon="-13.63499">
        <ele>10.2</ele>
        <time>2021-07-03 18:24:41</time>
      </trkpt>
      <trkpt lat="29.11516" lon="-13.63501">
        <ele>10.2</ele>
        <time>2021-07-03 18:24:42</time>
      </trkpt>
      <trkpt lat="29.11514" lon="-13.63502">
        <ele>10.2</ele>
        <time>2021-07-03 18:24:43</time>
      </trkpt>
      <trkpt lat="29.11513" lon="-13.63503">
        <ele>10.2</ele>
        <time>2021-07-03 18:24:44</time>
      </trkpt>
      <trkpt lat="29.11504" lon="-13.63512">
        <ele>10.2</ele>
        <time>2021-07-03 18:24:45</time>
      </trkpt>
      <trkpt lat="29.11502" lon="-13.63514">
        <ele>10.2</ele>
        <time>2021-07-03 18:24:46</time>
      </trkpt>
      <trkpt lat="29.115" lon="-13.63516">
        <ele>10.2</ele>
        <time>2021-07-03 18:24:47</time>
      </trkpt>
      <trkpt lat="29.11498" lon="-13.63518">
        <ele>10.4</ele>
        <time>2021-07-03 18:24:48</time>
      </trkpt>
      <trkpt lat="29.11496" lon="-13.63521">
        <ele>10.4</ele>
        <time>2021-07-03 18:24:49</time>
      </trkpt>
      <trkpt lat="29.11494" lon="-13.63524">
        <ele>10.8</ele>
        <time>2021-07-03 18:24:50</time>
      </trkpt>
      <trkpt lat="29.11492" lon="-13.63526">
        <ele>10.8</ele>
        <time>2021-07-03 18:24:51</time>
      </trkpt>
      <trkpt lat="29.11491" lon="-13.63529">
        <ele>11</ele>
        <time>2021-07-03 18:24:52</time>
      </trkpt>
      <trkpt lat="29.1149" lon="-13.63531">
        <ele>11.2</ele>
        <time>2021-07-03 18:24:53</time>
      </trkpt>
      <trkpt lat="29.11489" lon="-13.63533">
        <ele>11.2</ele>
        <time>2021-07-03 18:24:54</time>
      </trkpt>
      <trkpt lat="29.11488" lon="-13.63535">
        <ele>11.6</ele>
        <time>2021-07-03 18:24:55</time>
      </trkpt>
      <trkpt lat="29.11487" lon="-13.63537">
        <ele>11.6</ele>
        <time>2021-07-03 18:24:56</time>
      </trkpt>
      <trkpt lat="29.11487" lon="-13.6354">
        <ele>12</ele>
        <time>2021-07-03 18:24:57</time>
      </trkpt>
      <trkpt lat="29.11486" lon="-13.63542">
        <ele>12.2</ele>
        <time>2021-07-03 18:24:58</time>
      </trkpt>
      <trkpt lat="29.11486" lon="-13.63545">
        <ele>12.4</ele>
        <time>2021-07-03 18:24:59</time>
      </trkpt>
      <trkpt lat="29.11487" lon="-13.63547">
        <ele>12.6</ele>
        <time>2021-07-03 18:25:00</time>
      </trkpt>
      <trkpt lat="29.11488" lon="-13.63554">
        <ele>13.2</ele>
        <time>2021-07-03 18:25:01</time>
      </trkpt>
      <trkpt lat="29.11489" lon="-13.63556">
        <ele>13.6</ele>
        <time>2021-07-03 18:25:02</time>
      </trkpt>
      <trkpt lat="29.1149" lon="-13.63559">
        <ele>13.8</ele>
        <time>2021-07-03 18:25:03</time>
      </trkpt>
      <trkpt lat="29.11491" lon="-13.63561">
        <ele>13.8</ele>
        <time>2021-07-03 18:25:04</time>
      </trkpt>
      <trkpt lat="29.11492" lon="-13.63563">
        <ele>14</ele>
        <time>2021-07-03 18:25:05</time>
      </trkpt>
      <trkpt lat="29.11493" lon="-13.63566">
        <ele>14</ele>
        <time>2021-07-03 18:25:06</time>
      </trkpt>
      <trkpt lat="29.11494" lon="-13.63568">
        <ele>14.4</ele>
        <time>2021-07-03 18:25:07</time>
      </trkpt>
      <trkpt lat="29.11495" lon="-13.63571">
        <ele>14.4</ele>
        <time>2021-07-03 18:25:08</time>
      </trkpt>
      <trkpt lat="29.11495" lon="-13.63574">
        <ele>14.6</ele>
        <time>2021-07-03 18:25:09</time>
      </trkpt>
      <trkpt lat="29.11495" lon="-13.63577">
        <ele>14.6</ele>
        <time>2021-07-03 18:25:10</time>
      </trkpt>
      <trkpt lat="29.11495" lon="-13.63579">
        <ele>15</ele>
        <time>2021-07-03 18:25:11</time>
      </trkpt>
      <trkpt lat="29.11495" lon="-13.63581">
        <ele>15</ele>
        <time>2021-07-03 18:25:12</time>
      </trkpt>
      <trkpt lat="29.11494" lon="-13.63583">
        <ele>15</ele>
        <time>2021-07-03 18:25:13</time>
      </trkpt>
      <trkpt lat="29.11494" lon="-13.63585">
        <ele>15</ele>
        <time>2021-07-03 18:25:14</time>
      </trkpt>
      <trkpt lat="29.11493" lon="-13.63587">
        <ele>15.2</ele>
        <time>2021-07-03 18:25:15</time>
      </trkpt>
      <trkpt lat="29.11493" lon="-13.63589">
        <ele>15.2</ele>
        <time>2021-07-03 18:25:16</time>
      </trkpt>
      <trkpt lat="29.11492" lon="-13.63591">
        <ele>15.2</ele>
        <time>2021-07-03 18:25:17</time>
      </trkpt>
      <trkpt lat="29.11492" lon="-13.63593">
        <ele>15.2</ele>
        <time>2021-07-03 18:25:18</time>
      </trkpt>
      <trkpt lat="29.11491" lon="-13.63595">
        <ele>15.2</ele>
        <time>2021-07-03 18:25:19</time>
      </trkpt>
      <trkpt lat="29.1149" lon="-13.63598">
        <ele>15.2</ele>
        <time>2021-07-03 18:25:20</time>
      </trkpt>
      <trkpt lat="29.11488" lon="-13.636">
        <ele>15.4</ele>
        <time>2021-07-03 18:25:21</time>
      </trkpt>
      <trkpt lat="29.11486" lon="-13.63602">
        <ele>15.4</ele>
        <time>2021-07-03 18:25:22</time>
      </trkpt>
      <trkpt lat="29.11484" lon="-13.63604">
        <ele>15.4</ele>
        <time>2021-07-03 18:25:23</time>
      </trkpt>
      <trkpt lat="29.11483" lon="-13.63607">
        <ele>15.4</ele>
        <time>2021-07-03 18:25:24</time>
      </trkpt>
      <trkpt lat="29.11483" lon="-13.63611">
        <ele>15.4</ele>
        <time>2021-07-03 18:25:25</time>
      </trkpt>
      <trkpt lat="29.11483" lon="-13.63614">
        <ele>15.4</ele>
        <time>2021-07-03 18:25:26</time>
      </trkpt>
      <trkpt lat="29.11485" lon="-13.63618">
        <ele>15.6</ele>
        <time>2021-07-03 18:25:37</time>
      </trkpt>
      <trkpt lat="29.11486" lon="-13.63622">
        <ele>15.6</ele>
        <time>2021-07-03 18:25:38</time>
      </trkpt>
      <trkpt lat="29.11488" lon="-13.63625">
        <ele>16</ele>
        <time>2021-07-03 18:25:39</time>
      </trkpt>
      <trkpt lat="29.11489" lon="-13.63629">
        <ele>16</ele>
        <time>2021-07-03 18:25:40</time>
      </trkpt>
      <trkpt lat="29.1149" lon="-13.63632">
        <ele>16</ele>
        <time>2021-07-03 18:25:41</time>
      </trkpt>
      <trkpt lat="29.11489" lon="-13.63635">
        <ele>16</ele>
        <time>2021-07-03 18:25:42</time>
      </trkpt>
      <trkpt lat="29.11487" lon="-13.63638">
        <ele>16</ele>
        <time>2021-07-03 18:25:43</time>
      </trkpt>
      <trkpt lat="29.11486" lon="-13.63642">
        <ele>16</ele>
        <time>2021-07-03 18:25:44</time>
      </trkpt>
      <trkpt lat="29.11484" lon="-13.63645">
        <ele>16</ele>
        <time>2021-07-03 18:25:45</time>
      </trkpt>
      <trkpt lat="29.11483" lon="-13.63649">
        <ele>16</ele>
        <time>2021-07-03 18:25:46</time>
      </trkpt>
      <trkpt lat="29.11482" lon="-13.63652">
        <ele>16</ele>
        <time>2021-07-03 18:26:17</time>
      </trkpt>
      <trkpt lat="29.11481" lon="-13.63655">
        <ele>16</ele>
        <time>2021-07-03 18:26:18</time>
      </trkpt>
      <trkpt lat="29.1148" lon="-13.63658">
        <ele>16</ele>
        <time>2021-07-03 18:26:19</time>
      </trkpt>
      <trkpt lat="29.11479" lon="-13.63661">
        <ele>16</ele>
        <time>2021-07-03 18:26:20</time>
      </trkpt>
      <trkpt lat="29.11478" lon="-13.63665">
        <ele>16</ele>
        <time>2021-07-03 18:26:21</time>
      </trkpt>
      <trkpt lat="29.11477" lon="-13.63668">
        <ele>16.4</ele>
        <time>2021-07-03 18:26:22</time>
      </trkpt>
      <trkpt lat="29.11477" lon="-13.63671">
        <ele>16.4</ele>
        <time>2021-07-03 18:26:23</time>
      </trkpt>
      <trkpt lat="29.11477" lon="-13.63674">
        <ele>16.6</ele>
        <time>2021-07-03 18:26:24</time>
      </trkpt>
      <trkpt lat="29.11477" lon="-13.63675">
        <ele>16.8</ele>
        <time>2021-07-03 18:26:25</time>
      </trkpt>
      <trkpt lat="29.11478" lon="-13.63677">
        <ele>16.8</ele>
        <time>2021-07-03 18:26:26</time>
      </trkpt>
      <trkpt lat="29.11478" lon="-13.63679">
        <ele>17</ele>
        <time>2021-07-03 18:26:27</time>
      </trkpt>
      <trkpt lat="29.11478" lon="-13.63682">
        <ele>17</ele>
        <time>2021-07-03 18:26:28</time>
      </trkpt>
      <trkpt lat="29.11479" lon="-13.63685">
        <ele>17</ele>
        <time>2021-07-03 18:26:29</time>
      </trkpt>
      <trkpt lat="29.11479" lon="-13.63689">
        <ele>17</ele>
        <time>2021-07-03 18:27:11</time>
      </trkpt>
      <trkpt lat="29.1148" lon="-13.63692">
        <ele>17.2</ele>
        <time>2021-07-03 18:27:12</time>
      </trkpt>
      <trkpt lat="29.11481" lon="-13.63695">
        <ele>17.2</ele>
        <time>2021-07-03 18:27:13</time>
      </trkpt>
      <trkpt lat="29.11482" lon="-13.63699">
        <ele>17.2</ele>
        <time>2021-07-03 18:27:14</time>
      </trkpt>
      <trkpt lat="29.11483" lon="-13.63702">
        <ele>17.2</ele>
        <time>2021-07-03 18:27:15</time>
      </trkpt>
      <trkpt lat="29.11484" lon="-13.63705">
        <ele>17.6</ele>
        <time>2021-07-03 18:27:16</time>
      </trkpt>
      <trkpt lat="29.11484" lon="-13.63707">
        <ele>17.6</ele>
        <time>2021-07-03 18:27:17</time>
      </trkpt>
      <trkpt lat="29.11485" lon="-13.6371">
        <ele>17.8</ele>
        <time>2021-07-03 18:27:18</time>
      </trkpt>
      <trkpt lat="29.11486" lon="-13.63714">
        <ele>17.8</ele>
        <time>2021-07-03 18:27:19</time>
      </trkpt>
      <trkpt lat="29.11487" lon="-13.63717">
        <ele>17.8</ele>
        <time>2021-07-03 18:27:20</time>
      </trkpt>
      <trkpt lat="29.11488" lon="-13.6372">
        <ele>17.8</ele>
        <time>2021-07-03 18:27:21</time>
      </trkpt>
      <trkpt lat="29.11488" lon="-13.63723">
        <ele>17.8</ele>
        <time>2021-07-03 18:27:22</time>
      </trkpt>
      <trkpt lat="29.11489" lon="-13.63726">
        <ele>17.8</ele>
        <time>2021-07-03 18:27:23</time>
      </trkpt>
      <trkpt lat="29.1149" lon="-13.6373">
        <ele>17.8</ele>
        <time>2021-07-03 18:27:24</time>
      </trkpt>
      <trkpt lat="29.1149" lon="-13.63733">
        <ele>18</ele>
        <time>2021-07-03 18:27:25</time>
      </trkpt>
      <trkpt lat="29.11491" lon="-13.63736">
        <ele>18</ele>
        <time>2021-07-03 18:27:26</time>
      </trkpt>
      <trkpt lat="29.11491" lon="-13.63739">
        <ele>18</ele>
        <time>2021-07-03 18:27:27</time>
      </trkpt>
      <trkpt lat="29.11492" lon="-13.63742">
        <ele>18</ele>
        <time>2021-07-03 18:27:28</time>
      </trkpt>
      <trkpt lat="29.11493" lon="-13.63745">
        <ele>18.2</ele>
        <time>2021-07-03 18:27:29</time>
      </trkpt>
      <trkpt lat="29.11494" lon="-13.63749">
        <ele>18.2</ele>
        <time>2021-07-03 18:27:30</time>
      </trkpt>
      <trkpt lat="29.11495" lon="-13.63752">
        <ele>18.2</ele>
        <time>2021-07-03 18:27:31</time>
      </trkpt>
      <trkpt lat="29.11496" lon="-13.63755">
        <ele>18.2</ele>
        <time>2021-07-03 18:27:32</time>
      </trkpt>
      <trkpt lat="29.11497" lon="-13.63759">
        <ele>18.2</ele>
        <time>2021-07-03 18:27:33</time>
      </trkpt>
      <trkpt lat="29.11498" lon="-13.63762">
        <ele>18.2</ele>
        <time>2021-07-03 18:27:34</time>
      </trkpt>
      <trkpt lat="29.11499" lon="-13.63765">
        <ele>18.2</ele>
        <time>2021-07-03 18:27:35</time>
      </trkpt>
      <trkpt lat="29.11499" lon="-13.63768">
        <ele>18.2</ele>
        <time>2021-07-03 18:27:36</time>
      </trkpt>
      <trkpt lat="29.115" lon="-13.63771">
        <ele>18.2</ele>
        <time>2021-07-03 18:27:37</time>
      </trkpt>
      <trkpt lat="29.11501" lon="-13.63774">
        <ele>18.2</ele>
        <time>2021-07-03 18:27:38</time>
      </trkpt>
      <trkpt lat="29.11501" lon="-13.63777">
        <ele>18.2</ele>
        <time>2021-07-03 18:27:39</time>
      </trkpt>
      <trkpt lat="29.11502" lon="-13.63781">
        <ele>18.2</ele>
        <time>2021-07-03 18:27:40</time>
      </trkpt>
      <trkpt lat="29.11503" lon="-13.63785">
        <ele>18.2</ele>
        <time>2021-07-03 18:27:41</time>
      </trkpt>
      <trkpt lat="29.11505" lon="-13.63788">
        <ele>18.2</ele>
        <time>2021-07-03 18:27:42</time>
      </trkpt>
      <trkpt lat="29.11506" lon="-13.63791">
        <ele>18.2</ele>
        <time>2021-07-03 18:27:43</time>
      </trkpt>
      <trkpt lat="29.11507" lon="-13.63794">
        <ele>18.2</ele>
        <time>2021-07-03 18:27:44</time>
      </trkpt>
      <trkpt lat="29.11508" lon="-13.63796">
        <ele>18.2</ele>
        <time>2021-07-03 18:27:45</time>
      </trkpt>
      <trkpt lat="29.11509" lon="-13.63798">
        <ele>18.2</ele>
        <time>2021-07-03 18:27:46</time>
      </trkpt>
      <trkpt lat="29.1151" lon="-13.63799">
        <ele>18.2</ele>
        <time>2021-07-03 18:27:47</time>
      </trkpt>
      <trkpt lat="29.1151" lon="-13.638">
        <ele>17.4</ele>
        <time>2021-07-03 18:27:48</time>
      </trkpt>
      <trkpt lat="29.1151" lon="-13.638">
        <ele>17.4</ele>
        <time>2021-07-03 18:27:49</time>
      </trkpt>
      <trkpt lat="29.1151" lon="-13.63799">
        <ele>17.4</ele>
        <time>2021-07-03 18:27:50</time>
      </trkpt>
      <trkpt lat="29.1151" lon="-13.63802">
        <ele>17</ele>
        <time>2021-07-03 18:27:51</time>
      </trkpt>
      <trkpt lat="29.1151" lon="-13.63804">
        <ele>17</ele>
        <time>2021-07-03 18:27:52</time>
      </trkpt>
      <trkpt lat="29.1151" lon="-13.63807">
        <ele>16.8</ele>
        <time>2021-07-03 18:27:53</time>
      </trkpt>
      <trkpt lat="29.1151" lon="-13.6381">
        <ele>16.8</ele>
        <time>2021-07-03 18:27:54</time>
      </trkpt>
      <trkpt lat="29.1151" lon="-13.63813">
        <ele>16.8</ele>
        <time>2021-07-03 18:27:55</time>
      </trkpt>
      <trkpt lat="29.1151" lon="-13.63816">
        <ele>16.8</ele>
        <time>2021-07-03 18:27:56</time>
      </trkpt>
      <trkpt lat="29.11509" lon="-13.63819">
        <ele>16.8</ele>
        <time>2021-07-03 18:27:57</time>
      </trkpt>
      <trkpt lat="29.11509" lon="-13.63822">
        <ele>16.8</ele>
        <time>2021-07-03 18:27:58</time>
      </trkpt>
      <trkpt lat="29.11509" lon="-13.63824">
        <ele>16.8</ele>
        <time>2021-07-03 18:27:59</time>
      </trkpt>
      <trkpt lat="29.11508" lon="-13.63827">
        <ele>16.8</ele>
        <time>2021-07-03 18:28:00</time>
      </trkpt>
      <trkpt lat="29.11508" lon="-13.63829">
        <ele>16.8</ele>
        <time>2021-07-03 18:28:01</time>
      </trkpt>
      <trkpt lat="29.11507" lon="-13.63832">
        <ele>16.8</ele>
        <time>2021-07-03 18:28:02</time>
      </trkpt>
      <trkpt lat="29.11506" lon="-13.63836">
        <ele>16.8</ele>
        <time>2021-07-03 18:28:03</time>
      </trkpt>
      <trkpt lat="29.11506" lon="-13.63839">
        <ele>16.8</ele>
        <time>2021-07-03 18:28:04</time>
      </trkpt>
      <trkpt lat="29.11504" lon="-13.63842">
        <ele>16.8</ele>
        <time>2021-07-03 18:28:05</time>
      </trkpt>
      <trkpt lat="29.11503" lon="-13.63845">
        <ele>16.8</ele>
        <time>2021-07-03 18:28:06</time>
      </trkpt>
      <trkpt lat="29.11502" lon="-13.63848">
        <ele>16.8</ele>
        <time>2021-07-03 18:28:07</time>
      </trkpt>
      <trkpt lat="29.11501" lon="-13.63851">
        <ele>16.6</ele>
        <time>2021-07-03 18:28:08</time>
      </trkpt>
      <trkpt lat="29.115" lon="-13.63855">
        <ele>16.6</ele>
        <time>2021-07-03 18:28:09</time>
      </trkpt>
      <trkpt lat="29.115" lon="-13.63858">
        <ele>16.6</ele>
        <time>2021-07-03 18:28:10</time>
      </trkpt>
      <trkpt lat="29.11499" lon="-13.63861">
        <ele>16.8</ele>
        <time>2021-07-03 18:28:11</time>
      </trkpt>
      <trkpt lat="29.11497" lon="-13.63864">
        <ele>16.8</ele>
        <time>2021-07-03 18:28:12</time>
      </trkpt>
      <trkpt lat="29.11497" lon="-13.63867">
        <ele>17.2</ele>
        <time>2021-07-03 18:28:13</time>
      </trkpt>
      <trkpt lat="29.11496" lon="-13.63871">
        <ele>17.4</ele>
        <time>2021-07-03 18:28:14</time>
      </trkpt>
      <trkpt lat="29.11495" lon="-13.63874">
        <ele>17.4</ele>
        <time>2021-07-03 18:28:15</time>
      </trkpt>
      <trkpt lat="29.11495" lon="-13.63877">
        <ele>17.6</ele>
        <time>2021-07-03 18:28:16</time>
      </trkpt>
      <trkpt lat="29.11494" lon="-13.6388">
        <ele>17.8</ele>
        <time>2021-07-03 18:28:17</time>
      </trkpt>
      <trkpt lat="29.11493" lon="-13.63884">
        <ele>17.8</ele>
        <time>2021-07-03 18:28:18</time>
      </trkpt>
      <trkpt lat="29.11492" lon="-13.63887">
        <ele>17.8</ele>
        <time>2021-07-03 18:28:19</time>
      </trkpt>
      <trkpt lat="29.11491" lon="-13.63891">
        <ele>17.8</ele>
        <time>2021-07-03 18:28:20</time>
      </trkpt>
      <trkpt lat="29.11491" lon="-13.63895">
        <ele>17.6</ele>
        <time>2021-07-03 18:28:21</time>
      </trkpt>
      <trkpt lat="29.11491" lon="-13.63898">
        <ele>17.6</ele>
        <time>2021-07-03 18:28:22</time>
      </trkpt>
      <trkpt lat="29.1149" lon="-13.63901">
        <ele>17.6</ele>
        <time>2021-07-03 18:28:23</time>
      </trkpt>
      <trkpt lat="29.1149" lon="-13.63903">
        <ele>17.6</ele>
        <time>2021-07-03 18:28:24</time>
      </trkpt>
      <trkpt lat="29.11489" lon="-13.63906">
        <ele>17.6</ele>
        <time>2021-07-03 18:28:25</time>
      </trkpt>
      <trkpt lat="29.11488" lon="-13.63909">
        <ele>17.6</ele>
        <time>2021-07-03 18:28:26</time>
      </trkpt>
      <trkpt lat="29.11488" lon="-13.63912">
        <ele>17.6</ele>
        <time>2021-07-03 18:28:27</time>
      </trkpt>
      <trkpt lat="29.11487" lon="-13.63915">
        <ele>17.6</ele>
        <time>2021-07-03 18:28:28</time>
      </trkpt>
      <trkpt lat="29.11487" lon="-13.63919">
        <ele>17.6</ele>
        <time>2021-07-03 18:28:29</time>
      </trkpt>
      <trkpt lat="29.11487" lon="-13.63922">
        <ele>17.6</ele>
        <time>2021-07-03 18:28:30</time>
      </trkpt>
      <trkpt lat="29.11487" lon="-13.63926">
        <ele>17.6</ele>
        <time>2021-07-03 18:28:31</time>
      </trkpt>
      <trkpt lat="29.11487" lon="-13.63929">
        <ele>17.6</ele>
        <time>2021-07-03 18:28:32</time>
      </trkpt>
      <trkpt lat="29.11487" lon="-13.63932">
        <ele>18</ele>
        <time>2021-07-03 18:28:33</time>
      </trkpt>
      <trkpt lat="29.11487" lon="-13.63934">
        <ele>18</ele>
        <time>2021-07-03 18:28:34</time>
      </trkpt>
      <trkpt lat="29.11487" lon="-13.63936">
        <ele>18.2</ele>
        <time>2021-07-03 18:28:35</time>
      </trkpt>
      <trkpt lat="29.11488" lon="-13.63938">
        <ele>18.2</ele>
        <time>2021-07-03 18:28:36</time>
      </trkpt>
      <trkpt lat="29.11489" lon="-13.63939">
        <ele>18.2</ele>
        <time>2021-07-03 18:28:37</time>
      </trkpt>
      <trkpt lat="29.11491" lon="-13.6394">
        <ele>18.2</ele>
        <time>2021-07-03 18:28:38</time>
      </trkpt>
      <trkpt lat="29.11492" lon="-13.63942">
        <ele>18.2</ele>
        <time>2021-07-03 18:28:39</time>
      </trkpt>
      <trkpt lat="29.11494" lon="-13.63943">
        <ele>18.2</ele>
        <time>2021-07-03 18:28:40</time>
      </trkpt>
      <trkpt lat="29.11496" lon="-13.63945">
        <ele>18.2</ele>
        <time>2021-07-03 18:28:41</time>
      </trkpt>
      <trkpt lat="29.11498" lon="-13.63948">
        <ele>17.8</ele>
        <time>2021-07-03 18:28:42</time>
      </trkpt>
      <trkpt lat="29.11499" lon="-13.63951">
        <ele>17.8</ele>
        <time>2021-07-03 18:28:43</time>
      </trkpt>
      <trkpt lat="29.11499" lon="-13.63954">
        <ele>17.8</ele>
        <time>2021-07-03 18:28:44</time>
      </trkpt>
      <trkpt lat="29.11499" lon="-13.63958">
        <ele>17.8</ele>
        <time>2021-07-03 18:28:45</time>
      </trkpt>
      <trkpt lat="29.115" lon="-13.63961">
        <ele>17.8</ele>
        <time>2021-07-03 18:28:46</time>
      </trkpt>
      <trkpt lat="29.11501" lon="-13.63964">
        <ele>17.8</ele>
        <time>2021-07-03 18:28:47</time>
      </trkpt>
      <trkpt lat="29.11502" lon="-13.63967">
        <ele>18.2</ele>
        <time>2021-07-03 18:28:48</time>
      </trkpt>
      <trkpt lat="29.11503" lon="-13.63969">
        <ele>18.2</ele>
        <time>2021-07-03 18:28:49</time>
      </trkpt>
      <trkpt lat="29.11505" lon="-13.63971">
        <ele>18.4</ele>
        <time>2021-07-03 18:28:50</time>
      </trkpt>
      <trkpt lat="29.11506" lon="-13.63974">
        <ele>18.4</ele>
        <time>2021-07-03 18:28:51</time>
      </trkpt>
      <trkpt lat="29.11508" lon="-13.63978">
        <ele>18.4</ele>
        <time>2021-07-03 18:28:52</time>
      </trkpt>
      <trkpt lat="29.11509" lon="-13.63981">
        <ele>18.4</ele>
        <time>2021-07-03 18:28:53</time>
      </trkpt>
      <trkpt lat="29.11511" lon="-13.63984">
        <ele>18.4</ele>
        <time>2021-07-03 18:28:54</time>
      </trkpt>
      <trkpt lat="29.11512" lon="-13.63987">
        <ele>18.4</ele>
        <time>2021-07-03 18:28:55</time>
      </trkpt>
      <trkpt lat="29.11513" lon="-13.6399">
        <ele>18.4</ele>
        <time>2021-07-03 18:28:56</time>
      </trkpt>
      <trkpt lat="29.11514" lon="-13.63994">
        <ele>18.4</ele>
        <time>2021-07-03 18:28:57</time>
      </trkpt>
      <trkpt lat="29.11515" lon="-13.63997">
        <ele>18.4</ele>
        <time>2021-07-03 18:28:58</time>
      </trkpt>
      <trkpt lat="29.11517" lon="-13.64">
        <ele>18.4</ele>
        <time>2021-07-03 18:28:59</time>
      </trkpt>
      <trkpt lat="29.11518" lon="-13.64003">
        <ele>18.4</ele>
        <time>2021-07-03 18:29:00</time>
      </trkpt>
      <trkpt lat="29.11519" lon="-13.64006">
        <ele>18.4</ele>
        <time>2021-07-03 18:29:01</time>
      </trkpt>
      <trkpt lat="29.11521" lon="-13.64009">
        <ele>18.4</ele>
        <time>2021-07-03 18:29:02</time>
      </trkpt>
      <trkpt lat="29.11522" lon="-13.64012">
        <ele>18.6</ele>
        <time>2021-07-03 18:29:03</time>
      </trkpt>
      <trkpt lat="29.11524" lon="-13.64015">
        <ele>18.6</ele>
        <time>2021-07-03 18:29:04</time>
      </trkpt>
      <trkpt lat="29.11525" lon="-13.64019">
        <ele>18.6</ele>
        <time>2021-07-03 18:29:05</time>
      </trkpt>
      <trkpt lat="29.11527" lon="-13.64022">
        <ele>18.6</ele>
        <time>2021-07-03 18:29:06</time>
      </trkpt>
      <trkpt lat="29.11528" lon="-13.64026">
        <ele>18.6</ele>
        <time>2021-07-03 18:29:07</time>
      </trkpt>
      <trkpt lat="29.11529" lon="-13.64029">
        <ele>18.6</ele>
        <time>2021-07-03 18:29:08</time>
      </trkpt>
      <trkpt lat="29.11531" lon="-13.64033">
        <ele>18.4</ele>
        <time>2021-07-03 18:29:09</time>
      </trkpt>
      <trkpt lat="29.11534" lon="-13.64038">
        <ele>18.4</ele>
        <time>2021-07-03 18:29:10</time>
      </trkpt>
      <trkpt lat="29.11536" lon="-13.64043">
        <ele>18.2</ele>
        <time>2021-07-03 18:29:11</time>
      </trkpt>
      <trkpt lat="29.11538" lon="-13.64048">
        <ele>18.2</ele>
        <time>2021-07-03 18:29:12</time>
      </trkpt>
      <trkpt lat="29.11541" lon="-13.64053">
        <ele>18</ele>
        <time>2021-07-03 18:29:13</time>
      </trkpt>
      <trkpt lat="29.11543" lon="-13.64059">
        <ele>18</ele>
        <time>2021-07-03 18:29:14</time>
      </trkpt>
      <trkpt lat="29.11545" lon="-13.64064">
        <ele>17.6</ele>
        <time>2021-07-03 18:29:15</time>
      </trkpt>
      <trkpt lat="29.11548" lon="-13.64069">
        <ele>17.6</ele>
        <time>2021-07-03 18:29:16</time>
      </trkpt>
      <trkpt lat="29.1155" lon="-13.64074">
        <ele>17.6</ele>
        <time>2021-07-03 18:29:17</time>
      </trkpt>
      <trkpt lat="29.11552" lon="-13.64079">
        <ele>17.4</ele>
        <time>2021-07-03 18:29:18</time>
      </trkpt>
      <trkpt lat="29.11554" lon="-13.64084">
        <ele>17.4</ele>
        <time>2021-07-03 18:29:19</time>
      </trkpt>
      <trkpt lat="29.11556" lon="-13.64089">
        <ele>17.4</ele>
        <time>2021-07-03 18:29:20</time>
      </trkpt>
      <trkpt lat="29.11558" lon="-13.64094">
        <ele>17.4</ele>
        <time>2021-07-03 18:29:21</time>
      </trkpt>
      <trkpt lat="29.11561" lon="-13.64099">
        <ele>17.4</ele>
        <time>2021-07-03 18:29:22</time>
      </trkpt>
      <trkpt lat="29.11563" lon="-13.64105">
        <ele>17.4</ele>
        <time>2021-07-03 18:29:23</time>
      </trkpt>
      <trkpt lat="29.11565" lon="-13.6411">
        <ele>17.4</ele>
        <time>2021-07-03 18:29:24</time>
      </trkpt>
      <trkpt lat="29.11568" lon="-13.64115">
        <ele>17.4</ele>
        <time>2021-07-03 18:29:25</time>
      </trkpt>
      <trkpt lat="29.1157" lon="-13.6412">
        <ele>17.6</ele>
        <time>2021-07-03 18:29:26</time>
      </trkpt>
      <trkpt lat="29.11572" lon="-13.64126">
        <ele>17.6</ele>
        <time>2021-07-03 18:29:27</time>
      </trkpt>
      <trkpt lat="29.11575" lon="-13.64131">
        <ele>17.6</ele>
        <time>2021-07-03 18:29:28</time>
      </trkpt>
      <trkpt lat="29.11577" lon="-13.64136">
        <ele>17.6</ele>
        <time>2021-07-03 18:29:29</time>
      </trkpt>
      <trkpt lat="29.11579" lon="-13.64141">
        <ele>17.6</ele>
        <time>2021-07-03 18:29:30</time>
      </trkpt>
      <trkpt lat="29.11582" lon="-13.64146">
        <ele>18</ele>
        <time>2021-07-03 18:29:31</time>
      </trkpt>
      <trkpt lat="29.11584" lon="-13.64151">
        <ele>18</ele>
        <time>2021-07-03 18:29:32</time>
      </trkpt>
      <trkpt lat="29.11587" lon="-13.64156">
        <ele>18</ele>
        <time>2021-07-03 18:29:33</time>
      </trkpt>
      <trkpt lat="29.11589" lon="-13.64161">
        <ele>18.2</ele>
        <time>2021-07-03 18:29:34</time>
      </trkpt>
      <trkpt lat="29.11591" lon="-13.64165">
        <ele>18.2</ele>
        <time>2021-07-03 18:29:35</time>
      </trkpt>
      <trkpt lat="29.11593" lon="-13.6417">
        <ele>18.2</ele>
        <time>2021-07-03 18:29:36</time>
      </trkpt>
      <trkpt lat="29.11596" lon="-13.64175">
        <ele>18.2</ele>
        <time>2021-07-03 18:29:37</time>
      </trkpt>
      <trkpt lat="29.11598" lon="-13.6418">
        <ele>18.2</ele>
        <time>2021-07-03 18:29:41</time>
      </trkpt>
      <trkpt lat="29.116" lon="-13.64185">
        <ele>18.2</ele>
        <time>2021-07-03 18:29:42</time>
      </trkpt>
      <trkpt lat="29.11603" lon="-13.6419">
        <ele>18.2</ele>
        <time>2021-07-03 18:29:43</time>
      </trkpt>
      <trkpt lat="29.11605" lon="-13.64195">
        <ele>18.2</ele>
        <time>2021-07-03 18:29:44</time>
      </trkpt>
      <trkpt lat="29.11608" lon="-13.642">
        <ele>18.2</ele>
        <time>2021-07-03 18:29:45</time>
      </trkpt>
      <trkpt lat="29.1161" lon="-13.64205">
        <ele>18.2</ele>
        <time>2021-07-03 18:29:46</time>
      </trkpt>
      <trkpt lat="29.11612" lon="-13.6421">
        <ele>18.2</ele>
        <time>2021-07-03 18:29:47</time>
      </trkpt>
      <trkpt lat="29.11614" lon="-13.64214">
        <ele>18.2</ele>
        <time>2021-07-03 18:29:48</time>
      </trkpt>
      <trkpt lat="29.11616" lon="-13.64219">
        <ele>18.2</ele>
        <time>2021-07-03 18:29:49</time>
      </trkpt>
      <trkpt lat="29.11618" lon="-13.64224">
        <ele>18.2</ele>
        <time>2021-07-03 18:29:50</time>
      </trkpt>
      <trkpt lat="29.1162" lon="-13.64229">
        <ele>18.2</ele>
        <time>2021-07-03 18:29:51</time>
      </trkpt>
      <trkpt lat="29.11622" lon="-13.64234">
        <ele>18.6</ele>
        <time>2021-07-03 18:29:52</time>
      </trkpt>
      <trkpt lat="29.11625" lon="-13.64239">
        <ele>18.6</ele>
        <time>2021-07-03 18:29:53</time>
      </trkpt>
      <trkpt lat="29.11627" lon="-13.64245">
        <ele>18.6</ele>
        <time>2021-07-03 18:29:54</time>
      </trkpt>
      <trkpt lat="29.11629" lon="-13.6425">
        <ele>18.6</ele>
        <time>2021-07-03 18:29:55</time>
      </trkpt>
      <trkpt lat="29.11632" lon="-13.64255">
        <ele>18.6</ele>
        <time>2021-07-03 18:29:56</time>
      </trkpt>
      <trkpt lat="29.11634" lon="-13.64261">
        <ele>18.6</ele>
        <time>2021-07-03 18:29:57</time>
      </trkpt>
      <trkpt lat="29.11636" lon="-13.64266">
        <ele>18.8</ele>
        <time>2021-07-03 18:29:58</time>
      </trkpt>
      <trkpt lat="29.11637" lon="-13.64272">
        <ele>18.8</ele>
        <time>2021-07-03 18:29:59</time>
      </trkpt>
      <trkpt lat="29.11639" lon="-13.64277">
        <ele>18.8</ele>
        <time>2021-07-03 18:30:00</time>
      </trkpt>
      <trkpt lat="29.11641" lon="-13.64283">
        <ele>18.8</ele>
        <time>2021-07-03 18:30:01</time>
      </trkpt>
      <trkpt lat="29.11643" lon="-13.64288">
        <ele>18.8</ele>
        <time>2021-07-03 18:30:02</time>
      </trkpt>
      <trkpt lat="29.11644" lon="-13.64294">
        <ele>18.8</ele>
        <time>2021-07-03 18:30:03</time>
      </trkpt>
      <trkpt lat="29.11645" lon="-13.643">
        <ele>18.8</ele>
        <time>2021-07-03 18:30:04</time>
      </trkpt>
      <trkpt lat="29.11646" lon="-13.64306">
        <ele>18.8</ele>
        <time>2021-07-03 18:30:05</time>
      </trkpt>
      <trkpt lat="29.11646" lon="-13.64311">
        <ele>18.4</ele>
        <time>2021-07-03 18:30:06</time>
      </trkpt>
      <trkpt lat="29.11646" lon="-13.64317">
        <ele>18.4</ele>
        <time>2021-07-03 18:30:07</time>
      </trkpt>
      <trkpt lat="29.11646" lon="-13.64323">
        <ele>18.2</ele>
        <time>2021-07-03 18:30:08</time>
      </trkpt>
      <trkpt lat="29.11645" lon="-13.64329">
        <ele>18.2</ele>
        <time>2021-07-03 18:30:09</time>
      </trkpt>
      <trkpt lat="29.11643" lon="-13.64335">
        <ele>18</ele>
        <time>2021-07-03 18:30:10</time>
      </trkpt>
      <trkpt lat="29.11642" lon="-13.64341">
        <ele>18</ele>
        <time>2021-07-03 18:30:11</time>
      </trkpt>
      <trkpt lat="29.1164" lon="-13.64347">
        <ele>18</ele>
        <time>2021-07-03 18:30:12</time>
      </trkpt>
      <trkpt lat="29.11637" lon="-13.64352">
        <ele>17.6</ele>
        <time>2021-07-03 18:30:13</time>
      </trkpt>
      <trkpt lat="29.11635" lon="-13.64358">
        <ele>17.6</ele>
        <time>2021-07-03 18:30:14</time>
      </trkpt>
      <trkpt lat="29.11632" lon="-13.64364">
        <ele>17.2</ele>
        <time>2021-07-03 18:30:15</time>
      </trkpt>
      <trkpt lat="29.1163" lon="-13.64369">
        <ele>17.2</ele>
        <time>2021-07-03 18:30:16</time>
      </trkpt>
      <trkpt lat="29.11627" lon="-13.64375">
        <ele>17.2</ele>
        <time>2021-07-03 18:30:17</time>
      </trkpt>
      <trkpt lat="29.11624" lon="-13.6438">
        <ele>17</ele>
        <time>2021-07-03 18:30:18</time>
      </trkpt>
      <trkpt lat="29.1162" lon="-13.64386">
        <ele>17</ele>
        <time>2021-07-03 18:30:19</time>
      </trkpt>
      <trkpt lat="29.11617" lon="-13.64391">
        <ele>17</ele>
        <time>2021-07-03 18:30:20</time>
      </trkpt>
      <trkpt lat="29.11613" lon="-13.64397">
        <ele>16.8</ele>
        <time>2021-07-03 18:30:21</time>
      </trkpt>
      <trkpt lat="29.11609" lon="-13.64401">
        <ele>16.8</ele>
        <time>2021-07-03 18:30:22</time>
      </trkpt>
      <trkpt lat="29.11605" lon="-13.64406">
        <ele>16.8</ele>
        <time>2021-07-03 18:30:23</time>
      </trkpt>
      <trkpt lat="29.11601" lon="-13.6441">
        <ele>16.6</ele>
        <time>2021-07-03 18:30:24</time>
      </trkpt>
      <trkpt lat="29.11597" lon="-13.64414">
        <ele>16.6</ele>
        <time>2021-07-03 18:30:25</time>
      </trkpt>
      <trkpt lat="29.11593" lon="-13.64417">
        <ele>16.6</ele>
        <time>2021-07-03 18:30:26</time>
      </trkpt>
      <trkpt lat="29.11588" lon="-13.6442">
        <ele>16.6</ele>
        <time>2021-07-03 18:30:27</time>
      </trkpt>
      <trkpt lat="29.11584" lon="-13.64424">
        <ele>16.6</ele>
        <time>2021-07-03 18:30:28</time>
      </trkpt>
      <trkpt lat="29.1158" lon="-13.64428">
        <ele>16.6</ele>
        <time>2021-07-03 18:30:29</time>
      </trkpt>
      <trkpt lat="29.11576" lon="-13.64432">
        <ele>16.4</ele>
        <time>2021-07-03 18:30:30</time>
      </trkpt>
      <trkpt lat="29.11571" lon="-13.64436">
        <ele>16.4</ele>
        <time>2021-07-03 18:30:31</time>
      </trkpt>
      <trkpt lat="29.11567" lon="-13.6444">
        <ele>16.4</ele>
        <time>2021-07-03 18:30:32</time>
      </trkpt>
      <trkpt lat="29.11563" lon="-13.64444">
        <ele>16.4</ele>
        <time>2021-07-03 18:30:33</time>
      </trkpt>
      <trkpt lat="29.11559" lon="-13.64449">
        <ele>16.4</ele>
        <time>2021-07-03 18:30:34</time>
      </trkpt>
      <trkpt lat="29.11554" lon="-13.64453">
        <ele>16.4</ele>
        <time>2021-07-03 18:30:35</time>
      </trkpt>
      <trkpt lat="29.1155" lon="-13.64457">
        <ele>16.4</ele>
        <time>2021-07-03 18:30:36</time>
      </trkpt>
      <trkpt lat="29.11546" lon="-13.64461">
        <ele>16.6</ele>
        <time>2021-07-03 18:30:37</time>
      </trkpt>
      <trkpt lat="29.11542" lon="-13.64465">
        <ele>16.6</ele>
        <time>2021-07-03 18:30:38</time>
      </trkpt>
      <trkpt lat="29.11538" lon="-13.6447">
        <ele>16.6</ele>
        <time>2021-07-03 18:30:39</time>
      </trkpt>
      <trkpt lat="29.11534" lon="-13.64474">
        <ele>16.6</ele>
        <time>2021-07-03 18:30:40</time>
      </trkpt>
      <trkpt lat="29.1153" lon="-13.64479">
        <ele>16.6</ele>
        <time>2021-07-03 18:30:41</time>
      </trkpt>
      <trkpt lat="29.11526" lon="-13.64484">
        <ele>17</ele>
        <time>2021-07-03 18:30:42</time>
      </trkpt>
      <trkpt lat="29.11522" lon="-13.64489">
        <ele>17</ele>
        <time>2021-07-03 18:30:43</time>
      </trkpt>
      <trkpt lat="29.11518" lon="-13.64493">
        <ele>17</ele>
        <time>2021-07-03 18:30:44</time>
      </trkpt>
      <trkpt lat="29.11514" lon="-13.64498">
        <ele>17</ele>
        <time>2021-07-03 18:30:45</time>
      </trkpt>
      <trkpt lat="29.1151" lon="-13.64503">
        <ele>17</ele>
        <time>2021-07-03 18:30:46</time>
      </trkpt>
      <trkpt lat="29.11506" lon="-13.64507">
        <ele>17.2</ele>
        <time>2021-07-03 18:30:47</time>
      </trkpt>
      <trkpt lat="29.11502" lon="-13.64511">
        <ele>17.2</ele>
        <time>2021-07-03 18:30:48</time>
      </trkpt>
      <trkpt lat="29.11499" lon="-13.64515">
        <ele>17.2</ele>
        <time>2021-07-03 18:30:49</time>
      </trkpt>
      <trkpt lat="29.11495" lon="-13.6452">
        <ele>17.4</ele>
        <time>2021-07-03 18:30:50</time>
      </trkpt>
      <trkpt lat="29.11491" lon="-13.64525">
        <ele>17.4</ele>
        <time>2021-07-03 18:30:51</time>
      </trkpt>
      <trkpt lat="29.11488" lon="-13.6453">
        <ele>17.4</ele>
        <time>2021-07-03 18:30:52</time>
      </trkpt>
      <trkpt lat="29.11484" lon="-13.64535">
        <ele>17.4</ele>
        <time>2021-07-03 18:30:53</time>
      </trkpt>
      <trkpt lat="29.11481" lon="-13.64539">
        <ele>17.4</ele>
        <time>2021-07-03 18:30:54</time>
      </trkpt>
      <trkpt lat="29.11477" lon="-13.64544">
        <ele>17.6</ele>
        <time>2021-07-03 18:30:55</time>
      </trkpt>
      <trkpt lat="29.11473" lon="-13.64549">
        <ele>17.6</ele>
        <time>2021-07-03 18:30:56</time>
      </trkpt>
      <trkpt lat="29.1147" lon="-13.64554">
        <ele>17.6</ele>
        <time>2021-07-03 18:30:57</time>
      </trkpt>
      <trkpt lat="29.11466" lon="-13.64559">
        <ele>17.8</ele>
        <time>2021-07-03 18:30:58</time>
      </trkpt>
      <trkpt lat="29.11462" lon="-13.64564">
        <ele>17.8</ele>
        <time>2021-07-03 18:30:59</time>
      </trkpt>
      <trkpt lat="29.11458" lon="-13.6457">
        <ele>17.8</ele>
        <time>2021-07-03 18:31:00</time>
      </trkpt>
      <trkpt lat="29.11455" lon="-13.64575">
        <ele>17.8</ele>
        <time>2021-07-03 18:31:01</time>
      </trkpt>
      <trkpt lat="29.11451" lon="-13.6458">
        <ele>17.8</ele>
        <time>2021-07-03 18:31:02</time>
      </trkpt>
      <trkpt lat="29.11447" lon="-13.64585">
        <ele>18.2</ele>
        <time>2021-07-03 18:31:03</time>
      </trkpt>
      <trkpt lat="29.11443" lon="-13.6459">
        <ele>18.2</ele>
        <time>2021-07-03 18:31:04</time>
      </trkpt>
      <trkpt lat="29.11439" lon="-13.64595">
        <ele>18.2</ele>
        <time>2021-07-03 18:31:05</time>
      </trkpt>
      <trkpt lat="29.11435" lon="-13.646">
        <ele>18.4</ele>
        <time>2021-07-03 18:31:06</time>
      </trkpt>
      <trkpt lat="29.11432" lon="-13.64606">
        <ele>18.4</ele>
        <time>2021-07-03 18:31:07</time>
      </trkpt>
      <trkpt lat="29.11428" lon="-13.64611">
        <ele>18.4</ele>
        <time>2021-07-03 18:31:08</time>
      </trkpt>
      <trkpt lat="29.11424" lon="-13.64616">
        <ele>18.6</ele>
        <time>2021-07-03 18:31:09</time>
      </trkpt>
      <trkpt lat="29.11421" lon="-13.64622">
        <ele>18.6</ele>
        <time>2021-07-03 18:31:10</time>
      </trkpt>
      <trkpt lat="29.11418" lon="-13.64627">
        <ele>18.8</ele>
        <time>2021-07-03 18:31:11</time>
      </trkpt>
      <trkpt lat="29.11415" lon="-13.64632">
        <ele>19</ele>
        <time>2021-07-03 18:31:12</time>
      </trkpt>
      <trkpt lat="29.11413" lon="-13.64638">
        <ele>19</ele>
        <time>2021-07-03 18:31:13</time>
      </trkpt>
      <trkpt lat="29.1141" lon="-13.64643">
        <ele>19</ele>
        <time>2021-07-03 18:31:14</time>
      </trkpt>
      <trkpt lat="29.11408" lon="-13.64649">
        <ele>19.2</ele>
        <time>2021-07-03 18:31:15</time>
      </trkpt>
      <trkpt lat="29.11407" lon="-13.64655">
        <ele>19.2</ele>
        <time>2021-07-03 18:31:16</time>
      </trkpt>
      <trkpt lat="29.11406" lon="-13.64661">
        <ele>19.2</ele>
        <time>2021-07-03 18:31:17</time>
      </trkpt>
      <trkpt lat="29.11405" lon="-13.64667">
        <ele>19.2</ele>
        <time>2021-07-03 18:31:18</time>
      </trkpt>
      <trkpt lat="29.11404" lon="-13.64674">
        <ele>19.2</ele>
        <time>2021-07-03 18:31:19</time>
      </trkpt>
      <trkpt lat="29.11403" lon="-13.64681">
        <ele>19.2</ele>
        <time>2021-07-03 18:31:20</time>
      </trkpt>
      <trkpt lat="29.11403" lon="-13.64687">
        <ele>19.4</ele>
        <time>2021-07-03 18:31:21</time>
      </trkpt>
      <trkpt lat="29.11403" lon="-13.64694">
        <ele>19.4</ele>
        <time>2021-07-03 18:31:22</time>
      </trkpt>
      <trkpt lat="29.11403" lon="-13.64701">
        <ele>19.4</ele>
        <time>2021-07-03 18:31:23</time>
      </trkpt>
      <trkpt lat="29.11404" lon="-13.64708">
        <ele>19.4</ele>
        <time>2021-07-03 18:31:24</time>
      </trkpt>
      <trkpt lat="29.11403" lon="-13.64715">
        <ele>19.4</ele>
        <time>2021-07-03 18:31:25</time>
      </trkpt>
      <trkpt lat="29.11404" lon="-13.64722">
        <ele>19.4</ele>
        <time>2021-07-03 18:31:26</time>
      </trkpt>
      <trkpt lat="29.11404" lon="-13.64729">
        <ele>19.4</ele>
        <time>2021-07-03 18:31:27</time>
      </trkpt>
      <trkpt lat="29.11404" lon="-13.64736">
        <ele>19.4</ele>
        <time>2021-07-03 18:31:28</time>
      </trkpt>
      <trkpt lat="29.11405" lon="-13.64742">
        <ele>19.6</ele>
        <time>2021-07-03 18:31:29</time>
      </trkpt>
      <trkpt lat="29.11406" lon="-13.64749">
        <ele>19.6</ele>
        <time>2021-07-03 18:31:30</time>
      </trkpt>
      <trkpt lat="29.11408" lon="-13.64756">
        <ele>19.6</ele>
        <time>2021-07-03 18:31:31</time>
      </trkpt>
      <trkpt lat="29.1141" lon="-13.64762">
        <ele>19.4</ele>
        <time>2021-07-03 18:31:32</time>
      </trkpt>
      <trkpt lat="29.11411" lon="-13.64768">
        <ele>19.4</ele>
        <time>2021-07-03 18:31:33</time>
      </trkpt>
      <trkpt lat="29.11413" lon="-13.64774">
        <ele>19.2</ele>
        <time>2021-07-03 18:31:34</time>
      </trkpt>
      <trkpt lat="29.11416" lon="-13.6478">
        <ele>19</ele>
        <time>2021-07-03 18:31:35</time>
      </trkpt>
      <trkpt lat="29.11418" lon="-13.64786">
        <ele>19</ele>
        <time>2021-07-03 18:31:36</time>
      </trkpt>
      <trkpt lat="29.11421" lon="-13.64791">
        <ele>18.6</ele>
        <time>2021-07-03 18:31:37</time>
      </trkpt>
      <trkpt lat="29.11423" lon="-13.64797">
        <ele>18.6</ele>
        <time>2021-07-03 18:31:38</time>
      </trkpt>
      <trkpt lat="29.11425" lon="-13.64803">
        <ele>18.6</ele>
        <time>2021-07-03 18:31:39</time>
      </trkpt>
      <trkpt lat="29.11428" lon="-13.64808">
        <ele>18.6</ele>
        <time>2021-07-03 18:31:40</time>
      </trkpt>
      <trkpt lat="29.11432" lon="-13.64812">
        <ele>18.6</ele>
        <time>2021-07-03 18:31:41</time>
      </trkpt>
      <trkpt lat="29.11435" lon="-13.64817">
        <ele>18.4</ele>
        <time>2021-07-03 18:31:42</time>
      </trkpt>
      <trkpt lat="29.11439" lon="-13.64821">
        <ele>18.4</ele>
        <time>2021-07-03 18:31:43</time>
      </trkpt>
      <trkpt lat="29.11443" lon="-13.64825">
        <ele>18.4</ele>
        <time>2021-07-03 18:31:44</time>
      </trkpt>
      <trkpt lat="29.11447" lon="-13.64828">
        <ele>18.4</ele>
        <time>2021-07-03 18:31:45</time>
      </trkpt>
      <trkpt lat="29.11452" lon="-13.6483">
        <ele>18.4</ele>
        <time>2021-07-03 18:31:46</time>
      </trkpt>
      <trkpt lat="29.11456" lon="-13.64832">
        <ele>18.4</ele>
        <time>2021-07-03 18:31:47</time>
      </trkpt>
      <trkpt lat="29.11461" lon="-13.64835">
        <ele>18.4</ele>
        <time>2021-07-03 18:31:48</time>
      </trkpt>
      <trkpt lat="29.11465" lon="-13.64837">
        <ele>18.4</ele>
        <time>2021-07-03 18:31:49</time>
      </trkpt>
      <trkpt lat="29.1147" lon="-13.64839">
        <ele>18.4</ele>
        <time>2021-07-03 18:31:50</time>
      </trkpt>
      <trkpt lat="29.11474" lon="-13.64842">
        <ele>18.4</ele>
        <time>2021-07-03 18:31:51</time>
      </trkpt>
      <trkpt lat="29.11479" lon="-13.64845">
        <ele>18.4</ele>
        <time>2021-07-03 18:31:52</time>
      </trkpt>
      <trkpt lat="29.11483" lon="-13.64848">
        <ele>18.4</ele>
        <time>2021-07-03 18:31:53</time>
      </trkpt>
      <trkpt lat="29.11487" lon="-13.6485">
        <ele>18.4</ele>
        <time>2021-07-03 18:31:54</time>
      </trkpt>
      <trkpt lat="29.11491" lon="-13.64853">
        <ele>18.4</ele>
        <time>2021-07-03 18:31:55</time>
      </trkpt>
      <trkpt lat="29.11495" lon="-13.64856">
        <ele>18.4</ele>
        <time>2021-07-03 18:31:56</time>
      </trkpt>
      <trkpt lat="29.11499" lon="-13.64859">
        <ele>18.4</ele>
        <time>2021-07-03 18:31:57</time>
      </trkpt>
      <trkpt lat="29.11503" lon="-13.64862">
        <ele>18.4</ele>
        <time>2021-07-03 18:31:58</time>
      </trkpt>
      <trkpt lat="29.11506" lon="-13.64865">
        <ele>18.4</ele>
        <time>2021-07-03 18:31:59</time>
      </trkpt>
      <trkpt lat="29.11511" lon="-13.64869">
        <ele>18.4</ele>
        <time>2021-07-03 18:32:00</time>
      </trkpt>
      <trkpt lat="29.11515" lon="-13.64872">
        <ele>18.4</ele>
        <time>2021-07-03 18:32:01</time>
      </trkpt>
      <trkpt lat="29.11519" lon="-13.64874">
        <ele>18.4</ele>
        <time>2021-07-03 18:32:02</time>
      </trkpt>
      <trkpt lat="29.11524" lon="-13.64876">
        <ele>18.4</ele>
        <time>2021-07-03 18:32:03</time>
      </trkpt>
      <trkpt lat="29.11528" lon="-13.64879">
        <ele>18.4</ele>
        <time>2021-07-03 18:32:04</time>
      </trkpt>
      <trkpt lat="29.11531" lon="-13.64884">
        <ele>18.4</ele>
        <time>2021-07-03 18:32:05</time>
      </trkpt>
      <trkpt lat="29.11533" lon="-13.6489">
        <ele>18.4</ele>
        <time>2021-07-03 18:32:06</time>
      </trkpt>
      <trkpt lat="29.11534" lon="-13.64895">
        <ele>18.2</ele>
        <time>2021-07-03 18:32:07</time>
      </trkpt>
      <trkpt lat="29.11533" lon="-13.64901">
        <ele>18.2</ele>
        <time>2021-07-03 18:32:08</time>
      </trkpt>
      <trkpt lat="29.1153" lon="-13.64906">
        <ele>18.2</ele>
        <time>2021-07-03 18:32:09</time>
      </trkpt>
      <trkpt lat="29.11526" lon="-13.6491">
        <ele>17.8</ele>
        <time>2021-07-03 18:32:10</time>
      </trkpt>
      <trkpt lat="29.11521" lon="-13.64913">
        <ele>17.8</ele>
        <time>2021-07-03 18:32:11</time>
      </trkpt>
      <trkpt lat="29.11516" lon="-13.64915">
        <ele>17.6</ele>
        <time>2021-07-03 18:32:12</time>
      </trkpt>
      <trkpt lat="29.11511" lon="-13.64917">
        <ele>17.6</ele>
        <time>2021-07-03 18:32:13</time>
      </trkpt>
      <trkpt lat="29.11505" lon="-13.64918">
        <ele>17.2</ele>
        <time>2021-07-03 18:32:14</time>
      </trkpt>
      <trkpt lat="29.11499" lon="-13.64919">
        <ele>17.2</ele>
        <time>2021-07-03 18:32:15</time>
      </trkpt>
      <trkpt lat="29.11493" lon="-13.64921">
        <ele>16.8</ele>
        <time>2021-07-03 18:32:16</time>
      </trkpt>
      <trkpt lat="29.11486" lon="-13.64922">
        <ele>16.8</ele>
        <time>2021-07-03 18:32:17</time>
      </trkpt>
      <trkpt lat="29.11479" lon="-13.64924">
        <ele>16.6</ele>
        <time>2021-07-03 18:32:18</time>
      </trkpt>
      <trkpt lat="29.11473" lon="-13.64925">
        <ele>16.6</ele>
        <time>2021-07-03 18:32:19</time>
      </trkpt>
      <trkpt lat="29.11466" lon="-13.64927">
        <ele>16.2</ele>
        <time>2021-07-03 18:32:20</time>
      </trkpt>
      <trkpt lat="29.11459" lon="-13.64929">
        <ele>16</ele>
        <time>2021-07-03 18:32:21</time>
      </trkpt>
      <trkpt lat="29.11452" lon="-13.64933">
        <ele>15.8</ele>
        <time>2021-07-03 18:32:22</time>
      </trkpt>
      <trkpt lat="29.11446" lon="-13.64938">
        <ele>15.4</ele>
        <time>2021-07-03 18:32:23</time>
      </trkpt>
      <trkpt lat="29.1144" lon="-13.64943">
        <ele>15.2</ele>
        <time>2021-07-03 18:32:24</time>
      </trkpt>
      <trkpt lat="29.11436" lon="-13.64951">
        <ele>15</ele>
        <time>2021-07-03 18:32:25</time>
      </trkpt>
      <trkpt lat="29.11432" lon="-13.64959">
        <ele>15</ele>
        <time>2021-07-03 18:32:26</time>
      </trkpt>
      <trkpt lat="29.11429" lon="-13.64968">
        <ele>14.6</ele>
        <time>2021-07-03 18:32:27</time>
      </trkpt>
      <trkpt lat="29.11425" lon="-13.64977">
        <ele>14.4</ele>
        <time>2021-07-03 18:32:28</time>
      </trkpt>
      <trkpt lat="29.11423" lon="-13.64986">
        <ele>14</ele>
        <time>2021-07-03 18:32:29</time>
      </trkpt>
      <trkpt lat="29.11419" lon="-13.64996">
        <ele>13.8</ele>
        <time>2021-07-03 18:32:30</time>
      </trkpt>
      <trkpt lat="29.11416" lon="-13.65006">
        <ele>13.4</ele>
        <time>2021-07-03 18:32:31</time>
      </trkpt>
      <trkpt lat="29.11413" lon="-13.65015">
        <ele>13.2</ele>
        <time>2021-07-03 18:32:32</time>
      </trkpt>
      <trkpt lat="29.11409" lon="-13.65025">
        <ele>12.8</ele>
        <time>2021-07-03 18:32:33</time>
      </trkpt>
      <trkpt lat="29.11406" lon="-13.65035">
        <ele>12.4</ele>
        <time>2021-07-03 18:32:34</time>
      </trkpt>
      <trkpt lat="29.11402" lon="-13.65046">
        <ele>12.2</ele>
        <time>2021-07-03 18:32:35</time>
      </trkpt>
      <trkpt lat="29.11399" lon="-13.65056">
        <ele>11.8</ele>
        <time>2021-07-03 18:32:36</time>
      </trkpt>
      <trkpt lat="29.11395" lon="-13.65066">
        <ele>11.6</ele>
        <time>2021-07-03 18:32:37</time>
      </trkpt>
      <trkpt lat="29.11392" lon="-13.65077">
        <ele>11.2</ele>
        <time>2021-07-03 18:32:38</time>
      </trkpt>
      <trkpt lat="29.11388" lon="-13.65087">
        <ele>11</ele>
        <time>2021-07-03 18:32:39</time>
      </trkpt>
      <trkpt lat="29.11385" lon="-13.65097">
        <ele>10.6</ele>
        <time>2021-07-03 18:32:40</time>
      </trkpt>
      <trkpt lat="29.11381" lon="-13.65107">
        <ele>10.4</ele>
        <time>2021-07-03 18:32:41</time>
      </trkpt>
      <trkpt lat="29.11378" lon="-13.65116">
        <ele>10.4</ele>
        <time>2021-07-03 18:32:42</time>
      </trkpt>
      <trkpt lat="29.11375" lon="-13.65126">
        <ele>10.2</ele>
        <time>2021-07-03 18:32:43</time>
      </trkpt>
      <trkpt lat="29.11372" lon="-13.65135">
        <ele>10.2</ele>
        <time>2021-07-03 18:32:44</time>
      </trkpt>
      <trkpt lat="29.11369" lon="-13.65145">
        <ele>10.2</ele>
        <time>2021-07-03 18:32:45</time>
      </trkpt>
      <trkpt lat="29.11366" lon="-13.65154">
        <ele>10.2</ele>
        <time>2021-07-03 18:32:46</time>
      </trkpt>
      <trkpt lat="29.11362" lon="-13.65161">
        <ele>10</ele>
        <time>2021-07-03 18:32:47</time>
      </trkpt>
      <trkpt lat="29.11359" lon="-13.6517">
        <ele>10</ele>
        <time>2021-07-03 18:32:48</time>
      </trkpt>
      <trkpt lat="29.11355" lon="-13.65178">
        <ele>10</ele>
        <time>2021-07-03 18:32:49</time>
      </trkpt>
      <trkpt lat="29.11351" lon="-13.65186">
        <ele>10</ele>
        <time>2021-07-03 18:32:50</time>
      </trkpt>
      <trkpt lat="29.11347" lon="-13.65194">
        <ele>10</ele>
        <time>2021-07-03 18:32:51</time>
      </trkpt>
      <trkpt lat="29.11343" lon="-13.65201">
        <ele>9.6</ele>
        <time>2021-07-03 18:32:52</time>
      </trkpt>
      <trkpt lat="29.11339" lon="-13.65209">
        <ele>9.6</ele>
        <time>2021-07-03 18:32:53</time>
      </trkpt>
      <trkpt lat="29.11335" lon="-13.65216">
        <ele>9.6</ele>
        <time>2021-07-03 18:32:54</time>
      </trkpt>
      <trkpt lat="29.11331" lon="-13.65224">
        <ele>9.4</ele>
        <time>2021-07-03 18:32:55</time>
      </trkpt>
      <trkpt lat="29.11326" lon="-13.65232">
        <ele>9.4</ele>
        <time>2021-07-03 18:32:56</time>
      </trkpt>
      <trkpt lat="29.11322" lon="-13.65239">
        <ele>9.4</ele>
        <time>2021-07-03 18:32:57</time>
      </trkpt>
      <trkpt lat="29.11318" lon="-13.65247">
        <ele>9.4</ele>
        <time>2021-07-03 18:32:58</time>
      </trkpt>
      <trkpt lat="29.11314" lon="-13.65255">
        <ele>9.4</ele>
        <time>2021-07-03 18:32:59</time>
      </trkpt>
      <trkpt lat="29.1131" lon="-13.65262">
        <ele>9.4</ele>
        <time>2021-07-03 18:33:00</time>
      </trkpt>
      <trkpt lat="29.11306" lon="-13.65269">
        <ele>9.4</ele>
        <time>2021-07-03 18:33:01</time>
      </trkpt>
      <trkpt lat="29.11302" lon="-13.65276">
        <ele>9.2</ele>
        <time>2021-07-03 18:33:02</time>
      </trkpt>
      <trkpt lat="29.11298" lon="-13.65284">
        <ele>9.2</ele>
        <time>2021-07-03 18:33:03</time>
      </trkpt>
      <trkpt lat="29.11294" lon="-13.65292">
        <ele>9</ele>
        <time>2021-07-03 18:33:04</time>
      </trkpt>
      <trkpt lat="29.1129" lon="-13.65299">
        <ele>9</ele>
        <time>2021-07-03 18:33:05</time>
      </trkpt>
      <trkpt lat="29.11286" lon="-13.65306">
        <ele>8.8</ele>
        <time>2021-07-03 18:33:06</time>
      </trkpt>
      <trkpt lat="29.11282" lon="-13.65313">
        <ele>8.8</ele>
        <time>2021-07-03 18:33:07</time>
      </trkpt>
      <trkpt lat="29.11278" lon="-13.6532">
        <ele>8.8</ele>
        <time>2021-07-03 18:33:08</time>
      </trkpt>
      <trkpt lat="29.11274" lon="-13.65327">
        <ele>8.8</ele>
        <time>2021-07-03 18:33:09</time>
      </trkpt>
      <trkpt lat="29.1127" lon="-13.65333">
        <ele>8.4</ele>
        <time>2021-07-03 18:33:10</time>
      </trkpt>
      <trkpt lat="29.11266" lon="-13.6534">
        <ele>8.4</ele>
        <time>2021-07-03 18:33:11</time>
      </trkpt>
      <trkpt lat="29.11263" lon="-13.65347">
        <ele>8.4</ele>
        <time>2021-07-03 18:33:12</time>
      </trkpt>
      <trkpt lat="29.11259" lon="-13.65354">
        <ele>8.4</ele>
        <time>2021-07-03 18:33:13</time>
      </trkpt>
      <trkpt lat="29.11256" lon="-13.65361">
        <ele>8.4</ele>
        <time>2021-07-03 18:33:14</time>
      </trkpt>
      <trkpt lat="29.11252" lon="-13.65368">
        <ele>8.4</ele>
        <time>2021-07-03 18:33:15</time>
      </trkpt>
      <trkpt lat="29.11248" lon="-13.65374">
        <ele>8.4</ele>
        <time>2021-07-03 18:33:16</time>
      </trkpt>
      <trkpt lat="29.11244" lon="-13.65381">
        <ele>8.4</ele>
        <time>2021-07-03 18:33:17</time>
      </trkpt>
      <trkpt lat="29.11241" lon="-13.65388">
        <ele>8.4</ele>
        <time>2021-07-03 18:33:18</time>
      </trkpt>
      <trkpt lat="29.11237" lon="-13.65395">
        <ele>8.4</ele>
        <time>2021-07-03 18:33:19</time>
      </trkpt>
      <trkpt lat="29.11233" lon="-13.65401">
        <ele>8.4</ele>
        <time>2021-07-03 18:33:20</time>
      </trkpt>
      <trkpt lat="29.11229" lon="-13.65408">
        <ele>8.4</ele>
        <time>2021-07-03 18:33:21</time>
      </trkpt>
      <trkpt lat="29.11225" lon="-13.65415">
        <ele>8.4</ele>
        <time>2021-07-03 18:33:22</time>
      </trkpt>
      <trkpt lat="29.11222" lon="-13.65421">
        <ele>8.4</ele>
        <time>2021-07-03 18:33:23</time>
      </trkpt>
      <trkpt lat="29.11218" lon="-13.65428">
        <ele>8.4</ele>
        <time>2021-07-03 18:33:24</time>
      </trkpt>
      <trkpt lat="29.11215" lon="-13.65434">
        <ele>8.4</ele>
        <time>2021-07-03 18:33:25</time>
      </trkpt>
      <trkpt lat="29.11212" lon="-13.6544">
        <ele>8.2</ele>
        <time>2021-07-03 18:33:26</time>
      </trkpt>
      <trkpt lat="29.11209" lon="-13.65446">
        <ele>8.2</ele>
        <time>2021-07-03 18:33:27</time>
      </trkpt>
      <trkpt lat="29.11206" lon="-13.65451">
        <ele>8.2</ele>
        <time>2021-07-03 18:33:28</time>
      </trkpt>
      <trkpt lat="29.11203" lon="-13.65456">
        <ele>8.2</ele>
        <time>2021-07-03 18:33:29</time>
      </trkpt>
      <trkpt lat="29.112" lon="-13.65463">
        <ele>8.2</ele>
        <time>2021-07-03 18:33:30</time>
      </trkpt>
      <trkpt lat="29.11197" lon="-13.65469">
        <ele>8.2</ele>
        <time>2021-07-03 18:33:31</time>
      </trkpt>
      <trkpt lat="29.11194" lon="-13.65474">
        <ele>8.2</ele>
        <time>2021-07-03 18:33:32</time>
      </trkpt>
      <trkpt lat="29.1119" lon="-13.65481">
        <ele>8.2</ele>
        <time>2021-07-03 18:33:33</time>
      </trkpt>
      <trkpt lat="29.11187" lon="-13.65488">
        <ele>8.2</ele>
        <time>2021-07-03 18:33:34</time>
      </trkpt>
      <trkpt lat="29.11183" lon="-13.65494">
        <ele>8.2</ele>
        <time>2021-07-03 18:33:35</time>
      </trkpt>
      <trkpt lat="29.1118" lon="-13.65501">
        <ele>8.2</ele>
        <time>2021-07-03 18:33:36</time>
      </trkpt>
      <trkpt lat="29.11176" lon="-13.65508">
        <ele>8.2</ele>
        <time>2021-07-03 18:33:37</time>
      </trkpt>
      <trkpt lat="29.11172" lon="-13.65514">
        <ele>8.2</ele>
        <time>2021-07-03 18:33:38</time>
      </trkpt>
      <trkpt lat="29.11169" lon="-13.6552">
        <ele>8.2</ele>
        <time>2021-07-03 18:33:39</time>
      </trkpt>
      <trkpt lat="29.11165" lon="-13.65526">
        <ele>8.2</ele>
        <time>2021-07-03 18:33:40</time>
      </trkpt>
      <trkpt lat="29.11162" lon="-13.65533">
        <ele>8.2</ele>
        <time>2021-07-03 18:33:41</time>
      </trkpt>
      <trkpt lat="29.11158" lon="-13.65539">
        <ele>8.2</ele>
        <time>2021-07-03 18:33:42</time>
      </trkpt>
      <trkpt lat="29.11154" lon="-13.65546">
        <ele>8.2</ele>
        <time>2021-07-03 18:33:43</time>
      </trkpt>
      <trkpt lat="29.11151" lon="-13.65552">
        <ele>8.2</ele>
        <time>2021-07-03 18:33:44</time>
      </trkpt>
      <trkpt lat="29.11147" lon="-13.65559">
        <ele>8.2</ele>
        <time>2021-07-03 18:33:45</time>
      </trkpt>
      <trkpt lat="29.11144" lon="-13.65566">
        <ele>8.2</ele>
        <time>2021-07-03 18:33:46</time>
      </trkpt>
      <trkpt lat="29.1114" lon="-13.65572">
        <ele>8.4</ele>
        <time>2021-07-03 18:33:47</time>
      </trkpt>
      <trkpt lat="29.11136" lon="-13.65579">
        <ele>8.4</ele>
        <time>2021-07-03 18:33:48</time>
      </trkpt>
      <trkpt lat="29.11132" lon="-13.65585">
        <ele>8.4</ele>
        <time>2021-07-03 18:33:49</time>
      </trkpt>
      <trkpt lat="29.11129" lon="-13.65592">
        <ele>8.4</ele>
        <time>2021-07-03 18:33:50</time>
      </trkpt>
      <trkpt lat="29.11125" lon="-13.65599">
        <ele>8.4</ele>
        <time>2021-07-03 18:33:51</time>
      </trkpt>
      <trkpt lat="29.11121" lon="-13.65606">
        <ele>8.4</ele>
        <time>2021-07-03 18:33:52</time>
      </trkpt>
      <trkpt lat="29.11117" lon="-13.65613">
        <ele>8.4</ele>
        <time>2021-07-03 18:33:53</time>
      </trkpt>
      <trkpt lat="29.11114" lon="-13.6562">
        <ele>8.8</ele>
        <time>2021-07-03 18:33:54</time>
      </trkpt>
      <trkpt lat="29.1111" lon="-13.65626">
        <ele>8.8</ele>
        <time>2021-07-03 18:33:55</time>
      </trkpt>
      <trkpt lat="29.11106" lon="-13.65633">
        <ele>8.8</ele>
        <time>2021-07-03 18:33:56</time>
      </trkpt>
      <trkpt lat="29.11102" lon="-13.6564">
        <ele>8.8</ele>
        <time>2021-07-03 18:33:57</time>
      </trkpt>
      <trkpt lat="29.11098" lon="-13.65647">
        <ele>8.8</ele>
        <time>2021-07-03 18:33:58</time>
      </trkpt>
      <trkpt lat="29.11094" lon="-13.65654">
        <ele>8.8</ele>
        <time>2021-07-03 18:33:59</time>
      </trkpt>
      <trkpt lat="29.11091" lon="-13.65661">
        <ele>8.8</ele>
        <time>2021-07-03 18:34:00</time>
      </trkpt>
      <trkpt lat="29.11087" lon="-13.65668">
        <ele>8.8</ele>
        <time>2021-07-03 18:34:01</time>
      </trkpt>
      <trkpt lat="29.11083" lon="-13.65675">
        <ele>8.8</ele>
        <time>2021-07-03 18:34:02</time>
      </trkpt>
      <trkpt lat="29.11079" lon="-13.65682">
        <ele>8.8</ele>
        <time>2021-07-03 18:34:03</time>
      </trkpt>
      <trkpt lat="29.11076" lon="-13.65689">
        <ele>8.8</ele>
        <time>2021-07-03 18:34:04</time>
      </trkpt>
      <trkpt lat="29.11072" lon="-13.65696">
        <ele>8.8</ele>
        <time>2021-07-03 18:34:05</time>
      </trkpt>
      <trkpt lat="29.11068" lon="-13.65702">
        <ele>8.8</ele>
        <time>2021-07-03 18:34:06</time>
      </trkpt>
      <trkpt lat="29.11064" lon="-13.65709">
        <ele>8.8</ele>
        <time>2021-07-03 18:34:07</time>
      </trkpt>
      <trkpt lat="29.1106" lon="-13.65716">
        <ele>8.8</ele>
        <time>2021-07-03 18:34:08</time>
      </trkpt>
      <trkpt lat="29.11056" lon="-13.65723">
        <ele>8.8</ele>
        <time>2021-07-03 18:34:09</time>
      </trkpt>
      <trkpt lat="29.11053" lon="-13.6573">
        <ele>8.8</ele>
        <time>2021-07-03 18:34:10</time>
      </trkpt>
      <trkpt lat="29.11049" lon="-13.65736">
        <ele>8.8</ele>
        <time>2021-07-03 18:34:11</time>
      </trkpt>
      <trkpt lat="29.11046" lon="-13.65743">
        <ele>8.8</ele>
        <time>2021-07-03 18:34:12</time>
      </trkpt>
      <trkpt lat="29.11042" lon="-13.6575">
        <ele>9</ele>
        <time>2021-07-03 18:34:13</time>
      </trkpt>
      <trkpt lat="29.11039" lon="-13.65757">
        <ele>9</ele>
        <time>2021-07-03 18:34:14</time>
      </trkpt>
      <trkpt lat="29.11036" lon="-13.65765">
        <ele>9</ele>
        <time>2021-07-03 18:34:15</time>
      </trkpt>
      <trkpt lat="29.11034" lon="-13.65773">
        <ele>9</ele>
        <time>2021-07-03 18:34:16</time>
      </trkpt>
      <trkpt lat="29.11032" lon="-13.65781">
        <ele>9.2</ele>
        <time>2021-07-03 18:34:17</time>
      </trkpt>
      <trkpt lat="29.1103" lon="-13.65788">
        <ele>9.2</ele>
        <time>2021-07-03 18:34:18</time>
      </trkpt>
      <trkpt lat="29.11029" lon="-13.65796">
        <ele>9.2</ele>
        <time>2021-07-03 18:34:19</time>
      </trkpt>
      <trkpt lat="29.11027" lon="-13.65804">
        <ele>9.2</ele>
        <time>2021-07-03 18:34:20</time>
      </trkpt>
      <trkpt lat="29.11026" lon="-13.65812">
        <ele>9.6</ele>
        <time>2021-07-03 18:34:21</time>
      </trkpt>
      <trkpt lat="29.11026" lon="-13.65819">
        <ele>9.6</ele>
        <time>2021-07-03 18:34:22</time>
      </trkpt>
      <trkpt lat="29.11025" lon="-13.65827">
        <ele>9.8</ele>
        <time>2021-07-03 18:34:23</time>
      </trkpt>
      <trkpt lat="29.11025" lon="-13.65834">
        <ele>9.8</ele>
        <time>2021-07-03 18:34:24</time>
      </trkpt>
      <trkpt lat="29.11025" lon="-13.65841">
        <ele>10.2</ele>
        <time>2021-07-03 18:34:25</time>
      </trkpt>
      <trkpt lat="29.11025" lon="-13.65848">
        <ele>10.2</ele>
        <time>2021-07-03 18:34:26</time>
      </trkpt>
      <trkpt lat="29.11026" lon="-13.65855">
        <ele>10.2</ele>
        <time>2021-07-03 18:34:27</time>
      </trkpt>
      <trkpt lat="29.11026" lon="-13.65862">
        <ele>10.4</ele>
        <time>2021-07-03 18:34:28</time>
      </trkpt>
      <trkpt lat="29.11026" lon="-13.65869">
        <ele>10.4</ele>
        <time>2021-07-03 18:34:29</time>
      </trkpt>
      <trkpt lat="29.11027" lon="-13.65876">
        <ele>10.6</ele>
        <time>2021-07-03 18:34:30</time>
      </trkpt>
      <trkpt lat="29.11028" lon="-13.65883">
        <ele>10.6</ele>
        <time>2021-07-03 18:34:31</time>
      </trkpt>
      <trkpt lat="29.11028" lon="-13.6589">
        <ele>11</ele>
        <time>2021-07-03 18:34:32</time>
      </trkpt>
      <trkpt lat="29.11029" lon="-13.65896">
        <ele>11</ele>
        <time>2021-07-03 18:34:33</time>
      </trkpt>
      <trkpt lat="29.1103" lon="-13.65903">
        <ele>11.2</ele>
        <time>2021-07-03 18:34:34</time>
      </trkpt>
      <trkpt lat="29.1103" lon="-13.6591">
        <ele>11.2</ele>
        <time>2021-07-03 18:34:35</time>
      </trkpt>
      <trkpt lat="29.11031" lon="-13.65917">
        <ele>11.2</ele>
        <time>2021-07-03 18:34:36</time>
      </trkpt>
      <trkpt lat="29.11031" lon="-13.65923">
        <ele>11.6</ele>
        <time>2021-07-03 18:34:37</time>
      </trkpt>
      <trkpt lat="29.11032" lon="-13.65929">
        <ele>11.6</ele>
        <time>2021-07-03 18:34:38</time>
      </trkpt>
      <trkpt lat="29.11033" lon="-13.65935">
        <ele>12</ele>
        <time>2021-07-03 18:34:39</time>
      </trkpt>
      <trkpt lat="29.11034" lon="-13.65942">
        <ele>12</ele>
        <time>2021-07-03 18:34:40</time>
      </trkpt>
      <trkpt lat="29.11034" lon="-13.65948">
        <ele>12.2</ele>
        <time>2021-07-03 18:34:41</time>
      </trkpt>
      <trkpt lat="29.11035" lon="-13.65954">
        <ele>12.2</ele>
        <time>2021-07-03 18:34:42</time>
      </trkpt>
      <trkpt lat="29.11035" lon="-13.6596">
        <ele>12.6</ele>
        <time>2021-07-03 18:34:43</time>
      </trkpt>
      <trkpt lat="29.11036" lon="-13.65966">
        <ele>12.6</ele>
        <time>2021-07-03 18:34:44</time>
      </trkpt>
      <trkpt lat="29.11037" lon="-13.65972">
        <ele>12.8</ele>
        <time>2021-07-03 18:34:45</time>
      </trkpt>
      <trkpt lat="29.11037" lon="-13.65978">
        <ele>12.8</ele>
        <time>2021-07-03 18:34:46</time>
      </trkpt>
      <trkpt lat="29.11038" lon="-13.65984">
        <ele>13.2</ele>
        <time>2021-07-03 18:34:47</time>
      </trkpt>
      <trkpt lat="29.11039" lon="-13.6599">
        <ele>13.2</ele>
        <time>2021-07-03 18:34:48</time>
      </trkpt>
      <trkpt lat="29.1104" lon="-13.65996">
        <ele>13.4</ele>
        <time>2021-07-03 18:34:49</time>
      </trkpt>
      <trkpt lat="29.1104" lon="-13.66001">
        <ele>13.4</ele>
        <time>2021-07-03 18:34:50</time>
      </trkpt>
      <trkpt lat="29.11041" lon="-13.66007">
        <ele>13.8</ele>
        <time>2021-07-03 18:34:51</time>
      </trkpt>
      <trkpt lat="29.11042" lon="-13.66013">
        <ele>13.8</ele>
        <time>2021-07-03 18:34:52</time>
      </trkpt>
      <trkpt lat="29.11042" lon="-13.66019">
        <ele>14</ele>
        <time>2021-07-03 18:34:53</time>
      </trkpt>
      <trkpt lat="29.11043" lon="-13.66025">
        <ele>14</ele>
        <time>2021-07-03 18:34:54</time>
      </trkpt>
      <trkpt lat="29.11044" lon="-13.66031">
        <ele>14</ele>
        <time>2021-07-03 18:34:55</time>
      </trkpt>
      <trkpt lat="29.11044" lon="-13.66037">
        <ele>14</ele>
        <time>2021-07-03 18:34:56</time>
      </trkpt>
      <trkpt lat="29.11044" lon="-13.66043">
        <ele>14</ele>
        <time>2021-07-03 18:34:57</time>
      </trkpt>
      <trkpt lat="29.11045" lon="-13.66049">
        <ele>14.2</ele>
        <time>2021-07-03 18:34:58</time>
      </trkpt>
      <trkpt lat="29.11046" lon="-13.66055">
        <ele>14.2</ele>
        <time>2021-07-03 18:34:59</time>
      </trkpt>
      <trkpt lat="29.11046" lon="-13.66061">
        <ele>14.2</ele>
        <time>2021-07-03 18:35:00</time>
      </trkpt>
      <trkpt lat="29.11046" lon="-13.66067">
        <ele>14.2</ele>
        <time>2021-07-03 18:35:01</time>
      </trkpt>
      <trkpt lat="29.11047" lon="-13.66072">
        <ele>14.2</ele>
        <time>2021-07-03 18:35:02</time>
      </trkpt>
      <trkpt lat="29.11048" lon="-13.66078">
        <ele>14.6</ele>
        <time>2021-07-03 18:35:03</time>
      </trkpt>
      <trkpt lat="29.11048" lon="-13.66084">
        <ele>14.6</ele>
        <time>2021-07-03 18:35:04</time>
      </trkpt>
      <trkpt lat="29.11048" lon="-13.6609">
        <ele>14.6</ele>
        <time>2021-07-03 18:35:05</time>
      </trkpt>
      <trkpt lat="29.11049" lon="-13.66096">
        <ele>14.6</ele>
        <time>2021-07-03 18:35:06</time>
      </trkpt>
      <trkpt lat="29.11049" lon="-13.66102">
        <ele>14.6</ele>
        <time>2021-07-03 18:35:07</time>
      </trkpt>
      <trkpt lat="29.1105" lon="-13.66108">
        <ele>14.6</ele>
        <time>2021-07-03 18:35:08</time>
      </trkpt>
      <trkpt lat="29.11051" lon="-13.66114">
        <ele>14.6</ele>
        <time>2021-07-03 18:35:09</time>
      </trkpt>
      <trkpt lat="29.11051" lon="-13.6612">
        <ele>14.6</ele>
        <time>2021-07-03 18:35:10</time>
      </trkpt>
      <trkpt lat="29.11052" lon="-13.66126">
        <ele>14.8</ele>
        <time>2021-07-03 18:35:11</time>
      </trkpt>
      <trkpt lat="29.11052" lon="-13.66132">
        <ele>14.8</ele>
        <time>2021-07-03 18:35:12</time>
      </trkpt>
      <trkpt lat="29.11053" lon="-13.66138">
        <ele>14.8</ele>
        <time>2021-07-03 18:35:13</time>
      </trkpt>
      <trkpt lat="29.11053" lon="-13.66144">
        <ele>15</ele>
        <time>2021-07-03 18:35:14</time>
      </trkpt>
      <trkpt lat="29.11054" lon="-13.6615">
        <ele>15</ele>
        <time>2021-07-03 18:35:15</time>
      </trkpt>
      <trkpt lat="29.11054" lon="-13.66156">
        <ele>15</ele>
        <time>2021-07-03 18:35:16</time>
      </trkpt>
      <trkpt lat="29.11054" lon="-13.66162">
        <ele>15</ele>
        <time>2021-07-03 18:35:17</time>
      </trkpt>
      <trkpt lat="29.11055" lon="-13.66168">
        <ele>15</ele>
        <time>2021-07-03 18:35:18</time>
      </trkpt>
      <trkpt lat="29.11055" lon="-13.66175">
        <ele>15</ele>
        <time>2021-07-03 18:35:19</time>
      </trkpt>
      <trkpt lat="29.11055" lon="-13.66181">
        <ele>15</ele>
        <time>2021-07-03 18:35:20</time>
      </trkpt>
      <trkpt lat="29.11055" lon="-13.66187">
        <ele>15</ele>
        <time>2021-07-03 18:35:21</time>
      </trkpt>
      <trkpt lat="29.11055" lon="-13.66194">
        <ele>15</ele>
        <time>2021-07-03 18:35:22</time>
      </trkpt>
      <trkpt lat="29.11055" lon="-13.662">
        <ele>15</ele>
        <time>2021-07-03 18:35:23</time>
      </trkpt>
      <trkpt lat="29.11054" lon="-13.66206">
        <ele>15</ele>
        <time>2021-07-03 18:35:24</time>
      </trkpt>
      <trkpt lat="29.11054" lon="-13.66212">
        <ele>14.8</ele>
        <time>2021-07-03 18:35:25</time>
      </trkpt>
      <trkpt lat="29.11053" lon="-13.66218">
        <ele>14.8</ele>
        <time>2021-07-03 18:35:26</time>
      </trkpt>
      <trkpt lat="29.11053" lon="-13.66223">
        <ele>14.8</ele>
        <time>2021-07-03 18:35:27</time>
      </trkpt>
      <trkpt lat="29.11052" lon="-13.66229">
        <ele>14.6</ele>
        <time>2021-07-03 18:35:28</time>
      </trkpt>
      <trkpt lat="29.11051" lon="-13.66234">
        <ele>14.6</ele>
        <time>2021-07-03 18:35:29</time>
      </trkpt>
      <trkpt lat="29.1105" lon="-13.66241">
        <ele>14.6</ele>
        <time>2021-07-03 18:35:30</time>
      </trkpt>
      <trkpt lat="29.11049" lon="-13.66246">
        <ele>14.6</ele>
        <time>2021-07-03 18:35:31</time>
      </trkpt>
      <trkpt lat="29.11048" lon="-13.66252">
        <ele>14.6</ele>
        <time>2021-07-03 18:35:32</time>
      </trkpt>
      <trkpt lat="29.11047" lon="-13.66258">
        <ele>14.6</ele>
        <time>2021-07-03 18:35:33</time>
      </trkpt>
      <trkpt lat="29.11045" lon="-13.66263">
        <ele>14.2</ele>
        <time>2021-07-03 18:35:34</time>
      </trkpt>
      <trkpt lat="29.11043" lon="-13.66269">
        <ele>14.2</ele>
        <time>2021-07-03 18:35:35</time>
      </trkpt>
      <trkpt lat="29.11041" lon="-13.66275">
        <ele>14.2</ele>
        <time>2021-07-03 18:35:36</time>
      </trkpt>
      <trkpt lat="29.11039" lon="-13.66281">
        <ele>13.8</ele>
        <time>2021-07-03 18:35:37</time>
      </trkpt>
      <trkpt lat="29.11037" lon="-13.66287">
        <ele>13.8</ele>
        <time>2021-07-03 18:35:38</time>
      </trkpt>
      <trkpt lat="29.11035" lon="-13.66292">
        <ele>13.8</ele>
        <time>2021-07-03 18:35:39</time>
      </trkpt>
      <trkpt lat="29.11033" lon="-13.66299">
        <ele>13.8</ele>
        <time>2021-07-03 18:35:40</time>
      </trkpt>
      <trkpt lat="29.1103" lon="-13.66305">
        <ele>13.8</ele>
        <time>2021-07-03 18:35:41</time>
      </trkpt>
      <trkpt lat="29.11027" lon="-13.66311">
        <ele>13.8</ele>
        <time>2021-07-03 18:35:42</time>
      </trkpt>
      <trkpt lat="29.11025" lon="-13.66317">
        <ele>13.8</ele>
        <time>2021-07-03 18:35:43</time>
      </trkpt>
      <trkpt lat="29.11022" lon="-13.66323">
        <ele>13.8</ele>
        <time>2021-07-03 18:35:44</time>
      </trkpt>
      <trkpt lat="29.11018" lon="-13.66329">
        <ele>13.8</ele>
        <time>2021-07-03 18:35:45</time>
      </trkpt>
      <trkpt lat="29.11015" lon="-13.66335">
        <ele>13.8</ele>
        <time>2021-07-03 18:35:46</time>
      </trkpt>
      <trkpt lat="29.11012" lon="-13.66341">
        <ele>13.8</ele>
        <time>2021-07-03 18:35:47</time>
      </trkpt>
      <trkpt lat="29.11008" lon="-13.66346">
        <ele>13.8</ele>
        <time>2021-07-03 18:35:48</time>
      </trkpt>
      <trkpt lat="29.11005" lon="-13.66352">
        <ele>13.6</ele>
        <time>2021-07-03 18:35:49</time>
      </trkpt>
      <trkpt lat="29.11002" lon="-13.66358">
        <ele>13.6</ele>
        <time>2021-07-03 18:35:50</time>
      </trkpt>
      <trkpt lat="29.10998" lon="-13.66363">
        <ele>13.4</ele>
        <time>2021-07-03 18:35:51</time>
      </trkpt>
      <trkpt lat="29.10994" lon="-13.66368">
        <ele>13.4</ele>
        <time>2021-07-03 18:35:52</time>
      </trkpt>
      <trkpt lat="29.10991" lon="-13.66374">
        <ele>13.4</ele>
        <time>2021-07-03 18:35:53</time>
      </trkpt>
      <trkpt lat="29.10988" lon="-13.66379">
        <ele>13</ele>
        <time>2021-07-03 18:35:54</time>
      </trkpt>
      <trkpt lat="29.10984" lon="-13.66384">
        <ele>13</ele>
        <time>2021-07-03 18:35:55</time>
      </trkpt>
      <trkpt lat="29.1098" lon="-13.66388">
        <ele>12.8</ele>
        <time>2021-07-03 18:35:56</time>
      </trkpt>
      <trkpt lat="29.10977" lon="-13.66393">
        <ele>12.8</ele>
        <time>2021-07-03 18:35:57</time>
      </trkpt>
      <trkpt lat="29.10973" lon="-13.66399">
        <ele>12.6</ele>
        <time>2021-07-03 18:35:58</time>
      </trkpt>
      <trkpt lat="29.1097" lon="-13.66404">
        <ele>12.6</ele>
        <time>2021-07-03 18:35:59</time>
      </trkpt>
      <trkpt lat="29.10966" lon="-13.66408">
        <ele>12.6</ele>
        <time>2021-07-03 18:36:00</time>
      </trkpt>
      <trkpt lat="29.10963" lon="-13.66414">
        <ele>12.6</ele>
        <time>2021-07-03 18:36:01</time>
      </trkpt>
      <trkpt lat="29.10959" lon="-13.66418">
        <ele>12.2</ele>
        <time>2021-07-03 18:36:02</time>
      </trkpt>
      <trkpt lat="29.10956" lon="-13.66423">
        <ele>12.2</ele>
        <time>2021-07-03 18:36:03</time>
      </trkpt>
      <trkpt lat="29.10952" lon="-13.66428">
        <ele>12.2</ele>
        <time>2021-07-03 18:36:04</time>
      </trkpt>
      <trkpt lat="29.10949" lon="-13.66433">
        <ele>11.8</ele>
        <time>2021-07-03 18:36:05</time>
      </trkpt>
      <trkpt lat="29.10945" lon="-13.66437">
        <ele>11.8</ele>
        <time>2021-07-03 18:36:06</time>
      </trkpt>
      <trkpt lat="29.10941" lon="-13.66442">
        <ele>11.8</ele>
        <time>2021-07-03 18:36:07</time>
      </trkpt>
      <trkpt lat="29.10938" lon="-13.66446">
        <ele>11.6</ele>
        <time>2021-07-03 18:36:08</time>
      </trkpt>
      <trkpt lat="29.10935" lon="-13.6645">
        <ele>11.6</ele>
        <time>2021-07-03 18:36:09</time>
      </trkpt>
      <trkpt lat="29.10931" lon="-13.66455">
        <ele>11.6</ele>
        <time>2021-07-03 18:36:10</time>
      </trkpt>
      <trkpt lat="29.10928" lon="-13.66459">
        <ele>11.4</ele>
        <time>2021-07-03 18:36:11</time>
      </trkpt>
      <trkpt lat="29.10925" lon="-13.66463">
        <ele>11.4</ele>
        <time>2021-07-03 18:36:12</time>
      </trkpt>
      <trkpt lat="29.10922" lon="-13.66468">
        <ele>11.4</ele>
        <time>2021-07-03 18:36:13</time>
      </trkpt>
      <trkpt lat="29.10919" lon="-13.66473">
        <ele>11.4</ele>
        <time>2021-07-03 18:36:14</time>
      </trkpt>
      <trkpt lat="29.10916" lon="-13.66477">
        <ele>11.4</ele>
        <time>2021-07-03 18:36:15</time>
      </trkpt>
      <trkpt lat="29.10912" lon="-13.66482">
        <ele>11.4</ele>
        <time>2021-07-03 18:36:16</time>
      </trkpt>
      <trkpt lat="29.10909" lon="-13.66487">
        <ele>11.4</ele>
        <time>2021-07-03 18:36:17</time>
      </trkpt>
      <trkpt lat="29.10905" lon="-13.66491">
        <ele>11.4</ele>
        <time>2021-07-03 18:36:18</time>
      </trkpt>
      <trkpt lat="29.10902" lon="-13.66497">
        <ele>11.4</ele>
        <time>2021-07-03 18:36:19</time>
      </trkpt>
      <trkpt lat="29.10898" lon="-13.66502">
        <ele>11.4</ele>
        <time>2021-07-03 18:36:20</time>
      </trkpt>
      <trkpt lat="29.10895" lon="-13.66506">
        <ele>11.4</ele>
        <time>2021-07-03 18:36:21</time>
      </trkpt>
      <trkpt lat="29.10891" lon="-13.66511">
        <ele>11.4</ele>
        <time>2021-07-03 18:36:22</time>
      </trkpt>
      <trkpt lat="29.10888" lon="-13.66516">
        <ele>11.4</ele>
        <time>2021-07-03 18:36:23</time>
      </trkpt>
      <trkpt lat="29.10884" lon="-13.66521">
        <ele>11.4</ele>
        <time>2021-07-03 18:36:24</time>
      </trkpt>
      <trkpt lat="29.10881" lon="-13.66527">
        <ele>11.4</ele>
        <time>2021-07-03 18:36:25</time>
      </trkpt>
      <trkpt lat="29.10878" lon="-13.66532">
        <ele>11.4</ele>
        <time>2021-07-03 18:36:26</time>
      </trkpt>
      <trkpt lat="29.10874" lon="-13.66536">
        <ele>11.4</ele>
        <time>2021-07-03 18:36:27</time>
      </trkpt>
      <trkpt lat="29.10871" lon="-13.66541">
        <ele>11.4</ele>
        <time>2021-07-03 18:36:28</time>
      </trkpt>
      <trkpt lat="29.10867" lon="-13.66545">
        <ele>11.6</ele>
        <time>2021-07-03 18:36:29</time>
      </trkpt>
      <trkpt lat="29.10864" lon="-13.66549">
        <ele>11.6</ele>
        <time>2021-07-03 18:36:30</time>
      </trkpt>
      <trkpt lat="29.10861" lon="-13.66554">
        <ele>11.8</ele>
        <time>2021-07-03 18:36:31</time>
      </trkpt>
      <trkpt lat="29.10858" lon="-13.66557">
        <ele>11.8</ele>
        <time>2021-07-03 18:36:32</time>
      </trkpt>
      <trkpt lat="29.10854" lon="-13.66561">
        <ele>12</ele>
        <time>2021-07-03 18:36:33</time>
      </trkpt>
      <trkpt lat="29.10851" lon="-13.66565">
        <ele>12</ele>
        <time>2021-07-03 18:36:34</time>
      </trkpt>
      <trkpt lat="29.10848" lon="-13.66569">
        <ele>12</ele>
        <time>2021-07-03 18:36:35</time>
      </trkpt>
      <trkpt lat="29.10845" lon="-13.66573">
        <ele>12.4</ele>
        <time>2021-07-03 18:36:36</time>
      </trkpt>
      <trkpt lat="29.10842" lon="-13.66576">
        <ele>12.4</ele>
        <time>2021-07-03 18:36:37</time>
      </trkpt>
      <trkpt lat="29.10838" lon="-13.6658">
        <ele>12.6</ele>
        <time>2021-07-03 18:36:38</time>
      </trkpt>
      <trkpt lat="29.10835" lon="-13.66583">
        <ele>12.6</ele>
        <time>2021-07-03 18:36:39</time>
      </trkpt>
      <trkpt lat="29.10832" lon="-13.66587">
        <ele>12.8</ele>
        <time>2021-07-03 18:36:40</time>
      </trkpt>
      <trkpt lat="29.10828" lon="-13.6659">
        <ele>12.8</ele>
        <time>2021-07-03 18:36:41</time>
      </trkpt>
      <trkpt lat="29.10825" lon="-13.66593">
        <ele>12.8</ele>
        <time>2021-07-03 18:36:42</time>
      </trkpt>
      <trkpt lat="29.10821" lon="-13.66596">
        <ele>13</ele>
        <time>2021-07-03 18:36:43</time>
      </trkpt>
      <trkpt lat="29.10818" lon="-13.66599">
        <ele>13</ele>
        <time>2021-07-03 18:36:44</time>
      </trkpt>
      <trkpt lat="29.10814" lon="-13.66602">
        <ele>13</ele>
        <time>2021-07-03 18:36:45</time>
      </trkpt>
      <trkpt lat="29.1081" lon="-13.66605">
        <ele>13</ele>
        <time>2021-07-03 18:36:46</time>
      </trkpt>
      <trkpt lat="29.10806" lon="-13.66607">
        <ele>13.4</ele>
        <time>2021-07-03 18:36:47</time>
      </trkpt>
      <trkpt lat="29.10802" lon="-13.6661">
        <ele>13.4</ele>
        <time>2021-07-03 18:36:48</time>
      </trkpt>
      <trkpt lat="29.10798" lon="-13.66613">
        <ele>13.4</ele>
        <time>2021-07-03 18:36:49</time>
      </trkpt>
      <trkpt lat="29.10794" lon="-13.66616">
        <ele>13.6</ele>
        <time>2021-07-03 18:36:50</time>
      </trkpt>
      <trkpt lat="29.10789" lon="-13.66618">
        <ele>13.6</ele>
        <time>2021-07-03 18:36:51</time>
      </trkpt>
      <trkpt lat="29.10785" lon="-13.6662">
        <ele>13.6</ele>
        <time>2021-07-03 18:36:52</time>
      </trkpt>
      <trkpt lat="29.10781" lon="-13.66622">
        <ele>13.8</ele>
        <time>2021-07-03 18:36:53</time>
      </trkpt>
      <trkpt lat="29.10776" lon="-13.66624">
        <ele>13.8</ele>
        <time>2021-07-03 18:36:54</time>
      </trkpt>
      <trkpt lat="29.10771" lon="-13.66626">
        <ele>13.8</ele>
        <time>2021-07-03 18:36:55</time>
      </trkpt>
      <trkpt lat="29.10766" lon="-13.66627">
        <ele>13.8</ele>
        <time>2021-07-03 18:36:56</time>
      </trkpt>
      <trkpt lat="29.10761" lon="-13.6663">
        <ele>13.8</ele>
        <time>2021-07-03 18:36:57</time>
      </trkpt>
      <trkpt lat="29.10757" lon="-13.66631">
        <ele>13.8</ele>
        <time>2021-07-03 18:36:58</time>
      </trkpt>
      <trkpt lat="29.10752" lon="-13.66633">
        <ele>13.8</ele>
        <time>2021-07-03 18:36:59</time>
      </trkpt>
      <trkpt lat="29.10747" lon="-13.66635">
        <ele>14</ele>
        <time>2021-07-03 18:37:00</time>
      </trkpt>
      <trkpt lat="29.10743" lon="-13.66637">
        <ele>14</ele>
        <time>2021-07-03 18:37:01</time>
      </trkpt>
      <trkpt lat="29.10738" lon="-13.66639">
        <ele>14.2</ele>
        <time>2021-07-03 18:37:02</time>
      </trkpt>
      <trkpt lat="29.10734" lon="-13.66641">
        <ele>14.2</ele>
        <time>2021-07-03 18:37:03</time>
      </trkpt>
      <trkpt lat="29.10729" lon="-13.66643">
        <ele>14.2</ele>
        <time>2021-07-03 18:37:04</time>
      </trkpt>
      <trkpt lat="29.10725" lon="-13.66644">
        <ele>14.6</ele>
        <time>2021-07-03 18:37:05</time>
      </trkpt>
      <trkpt lat="29.10721" lon="-13.66646">
        <ele>14.6</ele>
        <time>2021-07-03 18:37:06</time>
      </trkpt>
      <trkpt lat="29.10717" lon="-13.66647">
        <ele>14.8</ele>
        <time>2021-07-03 18:37:07</time>
      </trkpt>
      <trkpt lat="29.10713" lon="-13.66648">
        <ele>14.8</ele>
        <time>2021-07-03 18:37:08</time>
      </trkpt>
      <trkpt lat="29.10709" lon="-13.6665">
        <ele>15</ele>
        <time>2021-07-03 18:37:09</time>
      </trkpt>
      <trkpt lat="29.10705" lon="-13.66651">
        <ele>15</ele>
        <time>2021-07-03 18:37:10</time>
      </trkpt>
      <trkpt lat="29.10701" lon="-13.66652">
        <ele>15.2</ele>
        <time>2021-07-03 18:37:11</time>
      </trkpt>
      <trkpt lat="29.10697" lon="-13.66653">
        <ele>15.2</ele>
        <time>2021-07-03 18:37:12</time>
      </trkpt>
      <trkpt lat="29.10693" lon="-13.66655">
        <ele>15.6</ele>
        <time>2021-07-03 18:37:13</time>
      </trkpt>
      <trkpt lat="29.10689" lon="-13.66656">
        <ele>15.8</ele>
        <time>2021-07-03 18:37:14</time>
      </trkpt>
      <trkpt lat="29.10685" lon="-13.66657">
        <ele>16.2</ele>
        <time>2021-07-03 18:37:15</time>
      </trkpt>
      <trkpt lat="29.10681" lon="-13.66659">
        <ele>16.4</ele>
        <time>2021-07-03 18:37:16</time>
      </trkpt>
      <trkpt lat="29.10677" lon="-13.6666">
        <ele>16.6</ele>
        <time>2021-07-03 18:37:17</time>
      </trkpt>
      <trkpt lat="29.10673" lon="-13.66661">
        <ele>16.6</ele>
        <time>2021-07-03 18:37:18</time>
      </trkpt>
      <trkpt lat="29.10669" lon="-13.66663">
        <ele>17</ele>
        <time>2021-07-03 18:37:19</time>
      </trkpt>
      <trkpt lat="29.10665" lon="-13.66664">
        <ele>17.2</ele>
        <time>2021-07-03 18:37:20</time>
      </trkpt>
      <trkpt lat="29.10661" lon="-13.66665">
        <ele>17.4</ele>
        <time>2021-07-03 18:37:21</time>
      </trkpt>
      <trkpt lat="29.10658" lon="-13.66667">
        <ele>17.4</ele>
        <time>2021-07-03 18:37:22</time>
      </trkpt>
      <trkpt lat="29.10653" lon="-13.66668">
        <ele>17.8</ele>
        <time>2021-07-03 18:37:23</time>
      </trkpt>
      <trkpt lat="29.10649" lon="-13.66669">
        <ele>17.8</ele>
        <time>2021-07-03 18:37:24</time>
      </trkpt>
      <trkpt lat="29.10645" lon="-13.66671">
        <ele>17.8</ele>
        <time>2021-07-03 18:37:25</time>
      </trkpt>
      <trkpt lat="29.10641" lon="-13.66672">
        <ele>18</ele>
        <time>2021-07-03 18:37:26</time>
      </trkpt>
      <trkpt lat="29.10637" lon="-13.66674">
        <ele>18</ele>
        <time>2021-07-03 18:37:27</time>
      </trkpt>
      <trkpt lat="29.10633" lon="-13.66675">
        <ele>18.4</ele>
        <time>2021-07-03 18:37:28</time>
      </trkpt>
      <trkpt lat="29.10629" lon="-13.66677">
        <ele>18.4</ele>
        <time>2021-07-03 18:37:29</time>
      </trkpt>
      <trkpt lat="29.10625" lon="-13.66679">
        <ele>18.6</ele>
        <time>2021-07-03 18:37:30</time>
      </trkpt>
      <trkpt lat="29.10621" lon="-13.6668">
        <ele>18.6</ele>
        <time>2021-07-03 18:37:31</time>
      </trkpt>
      <trkpt lat="29.106" lon="-13.66688">
        <ele>18.4</ele>
        <time>2021-07-03 18:37:32</time>
      </trkpt>
      <trkpt lat="29.10595" lon="-13.66689">
        <ele>18.2</ele>
        <time>2021-07-03 18:37:33</time>
      </trkpt>
      <trkpt lat="29.10591" lon="-13.66692">
        <ele>18.2</ele>
        <time>2021-07-03 18:37:34</time>
      </trkpt>
      <trkpt lat="29.10587" lon="-13.66693">
        <ele>18.2</ele>
        <time>2021-07-03 18:37:35</time>
      </trkpt>
      <trkpt lat="29.10583" lon="-13.66695">
        <ele>18.2</ele>
        <time>2021-07-03 18:37:36</time>
      </trkpt>
      <trkpt lat="29.10578" lon="-13.66696">
        <ele>18.4</ele>
        <time>2021-07-03 18:37:37</time>
      </trkpt>
      <trkpt lat="29.10575" lon="-13.66698">
        <ele>18.4</ele>
        <time>2021-07-03 18:37:38</time>
      </trkpt>
      <trkpt lat="29.10571" lon="-13.667">
        <ele>18.6</ele>
        <time>2021-07-03 18:37:39</time>
      </trkpt>
      <trkpt lat="29.10566" lon="-13.66701">
        <ele>18.6</ele>
        <time>2021-07-03 18:37:40</time>
      </trkpt>
      <trkpt lat="29.10562" lon="-13.66702">
        <ele>19</ele>
        <time>2021-07-03 18:37:41</time>
      </trkpt>
      <trkpt lat="29.10558" lon="-13.66703">
        <ele>19</ele>
        <time>2021-07-03 18:37:42</time>
      </trkpt>
      <trkpt lat="29.10553" lon="-13.66705">
        <ele>19.4</ele>
        <time>2021-07-03 18:37:43</time>
      </trkpt>
      <trkpt lat="29.10549" lon="-13.66706">
        <ele>19.4</ele>
        <time>2021-07-03 18:37:44</time>
      </trkpt>
      <trkpt lat="29.10545" lon="-13.66708">
        <ele>19.6</ele>
        <time>2021-07-03 18:37:45</time>
      </trkpt>
      <trkpt lat="29.10541" lon="-13.66709">
        <ele>19.6</ele>
        <time>2021-07-03 18:37:46</time>
      </trkpt>
      <trkpt lat="29.10538" lon="-13.6671">
        <ele>20</ele>
        <time>2021-07-03 18:37:47</time>
      </trkpt>
      <trkpt lat="29.10529" lon="-13.66714">
        <ele>20.4</ele>
        <time>2021-07-03 18:37:48</time>
      </trkpt>
      <trkpt lat="29.10526" lon="-13.66716">
        <ele>20.6</ele>
        <time>2021-07-03 18:37:49</time>
      </trkpt>
      <trkpt lat="29.10523" lon="-13.66717">
        <ele>20.6</ele>
        <time>2021-07-03 18:37:50</time>
      </trkpt>
      <trkpt lat="29.1052" lon="-13.66717">
        <ele>21</ele>
        <time>2021-07-03 18:37:51</time>
      </trkpt>
      <trkpt lat="29.10517" lon="-13.66718">
        <ele>21</ele>
        <time>2021-07-03 18:37:52</time>
      </trkpt>
      <trkpt lat="29.10514" lon="-13.66719">
        <ele>21.2</ele>
        <time>2021-07-03 18:37:53</time>
      </trkpt>
      <trkpt lat="29.1051" lon="-13.6672">
        <ele>21.2</ele>
        <time>2021-07-03 18:37:54</time>
      </trkpt>
      <trkpt lat="29.10508" lon="-13.66721">
        <ele>21.6</ele>
        <time>2021-07-03 18:37:55</time>
      </trkpt>
      <trkpt lat="29.10502" lon="-13.66722">
        <ele>21.6</ele>
        <time>2021-07-03 18:37:56</time>
      </trkpt>
      <trkpt lat="29.105" lon="-13.66723">
        <ele>21.8</ele>
        <time>2021-07-03 18:37:57</time>
      </trkpt>
      <trkpt lat="29.10499" lon="-13.66723">
        <ele>22</ele>
        <time>2021-07-03 18:37:58</time>
      </trkpt>
      <trkpt lat="29.10497" lon="-13.66724">
        <ele>22.4</ele>
        <time>2021-07-03 18:37:59</time>
      </trkpt>
      <trkpt lat="29.10495" lon="-13.66724">
        <ele>22.4</ele>
        <time>2021-07-03 18:38:00</time>
      </trkpt>
      <trkpt lat="29.10493" lon="-13.66725">
        <ele>22.6</ele>
        <time>2021-07-03 18:38:01</time>
      </trkpt>
      <trkpt lat="29.10491" lon="-13.66727">
        <ele>22.6</ele>
        <time>2021-07-03 18:38:02</time>
      </trkpt>
      <trkpt lat="29.1049" lon="-13.66729">
        <ele>22.6</ele>
        <time>2021-07-03 18:38:03</time>
      </trkpt>
      <trkpt lat="29.10489" lon="-13.6673">
        <ele>22.8</ele>
        <time>2021-07-03 18:38:04</time>
      </trkpt>
      <trkpt lat="29.10488" lon="-13.66731">
        <ele>22.8</ele>
        <time>2021-07-03 18:38:05</time>
      </trkpt>
      <trkpt lat="29.10488" lon="-13.66732">
        <ele>22.8</ele>
        <time>2021-07-03 18:38:06</time>
      </trkpt>
      <trkpt lat="29.10488" lon="-13.66731">
        <ele>23.2</ele>
        <time>2021-07-03 18:38:07</time>
      </trkpt>
      <trkpt lat="29.10488" lon="-13.66731">
        <ele>23.2</ele>
        <time>2021-07-03 18:38:08</time>
      </trkpt>
      <trkpt lat="29.10489" lon="-13.66731">
        <ele>23.2</ele>
        <time>2021-07-03 18:38:09</time>
      </trkpt>
      <trkpt lat="29.10488" lon="-13.66733">
        <ele>24.6</ele>
        <time>2021-07-03 18:38:10</time>
      </trkpt>
      <trkpt lat="29.10488" lon="-13.66733">
        <ele>24.6</ele>
        <time>2021-07-03 18:38:11</time>
      </trkpt>
      <trkpt lat="29.10488" lon="-13.66733">
        <ele>24.4</ele>
        <time>2021-07-03 18:38:12</time>
      </trkpt>
      <trkpt lat="29.10488" lon="-13.66733">
        <ele>24.4</ele>
        <time>2021-07-03 18:38:13</time>
      </trkpt>
      <trkpt lat="29.10489" lon="-13.66733">
        <ele>24</ele>
        <time>2021-07-03 18:38:14</time>
      </trkpt>
      <trkpt lat="29.10488" lon="-13.66736">
        <ele>25</ele>
        <time>2021-07-03 18:38:15</time>
      </trkpt>
      <trkpt lat="29.10487" lon="-13.66738">
        <ele>24.8</ele>
        <time>2021-07-03 18:38:16</time>
      </trkpt>
      <trkpt lat="29.10487" lon="-13.6674">
        <ele>24.8</ele>
        <time>2021-07-03 18:38:17</time>
      </trkpt>
      <trkpt lat="29.10486" lon="-13.66743">
        <ele>24.4</ele>
        <time>2021-07-03 18:38:18</time>
      </trkpt>
      <trkpt lat="29.10487" lon="-13.66746">
        <ele>24.2</ele>
        <time>2021-07-03 18:38:19</time>
      </trkpt>
      <trkpt lat="29.10487" lon="-13.66749">
        <ele>24</ele>
        <time>2021-07-03 18:38:20</time>
      </trkpt>
      <trkpt lat="29.10488" lon="-13.66752">
        <ele>23.6</ele>
        <time>2021-07-03 18:38:21</time>
      </trkpt>
      <trkpt lat="29.10488" lon="-13.66756">
        <ele>23.6</ele>
        <time>2021-07-03 18:38:22</time>
      </trkpt>
      <trkpt lat="29.10489" lon="-13.6676">
        <ele>23.6</ele>
        <time>2021-07-03 18:38:23</time>
      </trkpt>
      <trkpt lat="29.1049" lon="-13.66764">
        <ele>23.6</ele>
        <time>2021-07-03 18:38:24</time>
      </trkpt>
      <trkpt lat="29.10491" lon="-13.66768">
        <ele>23.4</ele>
        <time>2021-07-03 18:38:25</time>
      </trkpt>
      <trkpt lat="29.10492" lon="-13.66773">
        <ele>23.4</ele>
        <time>2021-07-03 18:38:26</time>
      </trkpt>
      <trkpt lat="29.10492" lon="-13.66778">
        <ele>23.4</ele>
        <time>2021-07-03 18:38:27</time>
      </trkpt>
      <trkpt lat="29.10493" lon="-13.66782">
        <ele>23.4</ele>
        <time>2021-07-03 18:38:28</time>
      </trkpt>
      <trkpt lat="29.10494" lon="-13.66787">
        <ele>23.4</ele>
        <time>2021-07-03 18:38:29</time>
      </trkpt>
      <trkpt lat="29.10494" lon="-13.66792">
        <ele>23.4</ele>
        <time>2021-07-03 18:38:30</time>
      </trkpt>
      <trkpt lat="29.10495" lon="-13.66797">
        <ele>23.2</ele>
        <time>2021-07-03 18:38:31</time>
      </trkpt>
      <trkpt lat="29.10496" lon="-13.66801">
        <ele>23.2</ele>
        <time>2021-07-03 18:38:32</time>
      </trkpt>
      <trkpt lat="29.10497" lon="-13.66806">
        <ele>23.2</ele>
        <time>2021-07-03 18:38:33</time>
      </trkpt>
      <trkpt lat="29.10498" lon="-13.66811">
        <ele>23.2</ele>
        <time>2021-07-03 18:38:34</time>
      </trkpt>
      <trkpt lat="29.10499" lon="-13.66816">
        <ele>23.2</ele>
        <time>2021-07-03 18:38:35</time>
      </trkpt>
      <trkpt lat="29.105" lon="-13.66821">
        <ele>23.2</ele>
        <time>2021-07-03 18:38:36</time>
      </trkpt>
      <trkpt lat="29.10501" lon="-13.66826">
        <ele>23.2</ele>
        <time>2021-07-03 18:38:37</time>
      </trkpt>
      <trkpt lat="29.10501" lon="-13.66831">
        <ele>23</ele>
        <time>2021-07-03 18:38:38</time>
      </trkpt>
      <trkpt lat="29.10502" lon="-13.66836">
        <ele>23</ele>
        <time>2021-07-03 18:38:39</time>
      </trkpt>
      <trkpt lat="29.10503" lon="-13.66841">
        <ele>23</ele>
        <time>2021-07-03 18:38:40</time>
      </trkpt>
      <trkpt lat="29.10504" lon="-13.66846">
        <ele>22.8</ele>
        <time>2021-07-03 18:38:41</time>
      </trkpt>
      <trkpt lat="29.10505" lon="-13.66852">
        <ele>22.8</ele>
        <time>2021-07-03 18:38:42</time>
      </trkpt>
      <trkpt lat="29.10505" lon="-13.66857">
        <ele>22.4</ele>
        <time>2021-07-03 18:38:43</time>
      </trkpt>
      <trkpt lat="29.10506" lon="-13.66862">
        <ele>22.2</ele>
        <time>2021-07-03 18:38:44</time>
      </trkpt>
      <trkpt lat="29.10507" lon="-13.66867">
        <ele>22.2</ele>
        <time>2021-07-03 18:38:45</time>
      </trkpt>
      <trkpt lat="29.10508" lon="-13.66872">
        <ele>21.8</ele>
        <time>2021-07-03 18:38:46</time>
      </trkpt>
      <trkpt lat="29.10509" lon="-13.66878">
        <ele>21.8</ele>
        <time>2021-07-03 18:38:47</time>
      </trkpt>
      <trkpt lat="29.1051" lon="-13.66883">
        <ele>21.8</ele>
        <time>2021-07-03 18:38:48</time>
      </trkpt>
      <trkpt lat="29.10511" lon="-13.66888">
        <ele>21.6</ele>
        <time>2021-07-03 18:38:49</time>
      </trkpt>
      <trkpt lat="29.10512" lon="-13.66892">
        <ele>21.6</ele>
        <time>2021-07-03 18:38:50</time>
      </trkpt>
      <trkpt lat="29.10513" lon="-13.66897">
        <ele>21.6</ele>
        <time>2021-07-03 18:38:51</time>
      </trkpt>
      <trkpt lat="29.10514" lon="-13.66903">
        <ele>21.6</ele>
        <time>2021-07-03 18:38:52</time>
      </trkpt>
      <trkpt lat="29.10515" lon="-13.66907">
        <ele>21.6</ele>
        <time>2021-07-03 18:38:53</time>
      </trkpt>
      <trkpt lat="29.10515" lon="-13.66912">
        <ele>21.6</ele>
        <time>2021-07-03 18:38:54</time>
      </trkpt>
      <trkpt lat="29.10516" lon="-13.66917">
        <ele>21.6</ele>
        <time>2021-07-03 18:38:55</time>
      </trkpt>
      <trkpt lat="29.10517" lon="-13.66922">
        <ele>21.6</ele>
        <time>2021-07-03 18:38:56</time>
      </trkpt>
      <trkpt lat="29.10518" lon="-13.66926">
        <ele>21.6</ele>
        <time>2021-07-03 18:38:57</time>
      </trkpt>
      <trkpt lat="29.10519" lon="-13.66931">
        <ele>21.6</ele>
        <time>2021-07-03 18:38:58</time>
      </trkpt>
      <trkpt lat="29.1052" lon="-13.66935">
        <ele>21.4</ele>
        <time>2021-07-03 18:38:59</time>
      </trkpt>
      <trkpt lat="29.10522" lon="-13.6694">
        <ele>21.4</ele>
        <time>2021-07-03 18:39:00</time>
      </trkpt>
      <trkpt lat="29.10523" lon="-13.66945">
        <ele>21.4</ele>
        <time>2021-07-03 18:39:01</time>
      </trkpt>
      <trkpt lat="29.10524" lon="-13.6695">
        <ele>21.4</ele>
        <time>2021-07-03 18:39:02</time>
      </trkpt>
      <trkpt lat="29.10525" lon="-13.66955">
        <ele>21.4</ele>
        <time>2021-07-03 18:39:03</time>
      </trkpt>
      <trkpt lat="29.10525" lon="-13.66959">
        <ele>21.4</ele>
        <time>2021-07-03 18:39:04</time>
      </trkpt>
      <trkpt lat="29.10526" lon="-13.66964">
        <ele>21.4</ele>
        <time>2021-07-03 18:39:05</time>
      </trkpt>
      <trkpt lat="29.10527" lon="-13.66969">
        <ele>21.4</ele>
        <time>2021-07-03 18:39:06</time>
      </trkpt>
      <trkpt lat="29.10528" lon="-13.66973">
        <ele>21.4</ele>
        <time>2021-07-03 18:39:07</time>
      </trkpt>
      <trkpt lat="29.10529" lon="-13.66978">
        <ele>21.4</ele>
        <time>2021-07-03 18:39:08</time>
      </trkpt>
      <trkpt lat="29.1053" lon="-13.66983">
        <ele>21.4</ele>
        <time>2021-07-03 18:39:09</time>
      </trkpt>
      <trkpt lat="29.10531" lon="-13.66988">
        <ele>21.4</ele>
        <time>2021-07-03 18:39:10</time>
      </trkpt>
      <trkpt lat="29.10532" lon="-13.66993">
        <ele>21.2</ele>
        <time>2021-07-03 18:39:11</time>
      </trkpt>
      <trkpt lat="29.10533" lon="-13.66998">
        <ele>21.2</ele>
        <time>2021-07-03 18:39:12</time>
      </trkpt>
      <trkpt lat="29.10534" lon="-13.67003">
        <ele>21.2</ele>
        <time>2021-07-03 18:39:13</time>
      </trkpt>
      <trkpt lat="29.10534" lon="-13.67008">
        <ele>21</ele>
        <time>2021-07-03 18:39:14</time>
      </trkpt>
      <trkpt lat="29.10534" lon="-13.67013">
        <ele>20.6</ele>
        <time>2021-07-03 18:39:15</time>
      </trkpt>
      <trkpt lat="29.10535" lon="-13.67018">
        <ele>20.6</ele>
        <time>2021-07-03 18:39:16</time>
      </trkpt>
      <trkpt lat="29.10536" lon="-13.67023">
        <ele>20.6</ele>
        <time>2021-07-03 18:39:17</time>
      </trkpt>
      <trkpt lat="29.10537" lon="-13.67028">
        <ele>20.6</ele>
        <time>2021-07-03 18:39:18</time>
      </trkpt>
      <trkpt lat="29.10538" lon="-13.67033">
        <ele>20.4</ele>
        <time>2021-07-03 18:39:19</time>
      </trkpt>
      <trkpt lat="29.10539" lon="-13.67037">
        <ele>20.4</ele>
        <time>2021-07-03 18:39:20</time>
      </trkpt>
      <trkpt lat="29.1054" lon="-13.67042">
        <ele>20.4</ele>
        <time>2021-07-03 18:39:21</time>
      </trkpt>
      <trkpt lat="29.10541" lon="-13.67046">
        <ele>20.4</ele>
        <time>2021-07-03 18:39:22</time>
      </trkpt>
      <trkpt lat="29.10541" lon="-13.67051">
        <ele>20.4</ele>
        <time>2021-07-03 18:39:23</time>
      </trkpt>
      <trkpt lat="29.10542" lon="-13.67055">
        <ele>20</ele>
        <time>2021-07-03 18:39:24</time>
      </trkpt>
      <trkpt lat="29.10542" lon="-13.67059">
        <ele>20</ele>
        <time>2021-07-03 18:39:25</time>
      </trkpt>
      <trkpt lat="29.10542" lon="-13.67063">
        <ele>20</ele>
        <time>2021-07-03 18:39:26</time>
      </trkpt>
      <trkpt lat="29.10543" lon="-13.67067">
        <ele>19.8</ele>
        <time>2021-07-03 18:39:27</time>
      </trkpt>
      <trkpt lat="29.10544" lon="-13.67071">
        <ele>19.8</ele>
        <time>2021-07-03 18:39:28</time>
      </trkpt>
      <trkpt lat="29.10545" lon="-13.67075">
        <ele>19.6</ele>
        <time>2021-07-03 18:39:29</time>
      </trkpt>
      <trkpt lat="29.10546" lon="-13.6708">
        <ele>19.6</ele>
        <time>2021-07-03 18:39:30</time>
      </trkpt>
      <trkpt lat="29.10546" lon="-13.67084">
        <ele>19.4</ele>
        <time>2021-07-03 18:39:31</time>
      </trkpt>
      <trkpt lat="29.10547" lon="-13.67088">
        <ele>19.4</ele>
        <time>2021-07-03 18:39:32</time>
      </trkpt>
      <trkpt lat="29.10548" lon="-13.67092">
        <ele>19.4</ele>
        <time>2021-07-03 18:39:33</time>
      </trkpt>
      <trkpt lat="29.10549" lon="-13.67096">
        <ele>19.4</ele>
        <time>2021-07-03 18:39:34</time>
      </trkpt>
      <trkpt lat="29.1055" lon="-13.671">
        <ele>19.4</ele>
        <time>2021-07-03 18:39:35</time>
      </trkpt>
      <trkpt lat="29.1055" lon="-13.67104">
        <ele>19.4</ele>
        <time>2021-07-03 18:39:36</time>
      </trkpt>
      <trkpt lat="29.10551" lon="-13.67108">
        <ele>19.4</ele>
        <time>2021-07-03 18:39:37</time>
      </trkpt>
      <trkpt lat="29.10553" lon="-13.67112">
        <ele>19.4</ele>
        <time>2021-07-03 18:39:38</time>
      </trkpt>
      <trkpt lat="29.10554" lon="-13.67116">
        <ele>19.4</ele>
        <time>2021-07-03 18:39:39</time>
      </trkpt>
      <trkpt lat="29.10555" lon="-13.6712">
        <ele>19.4</ele>
        <time>2021-07-03 18:39:40</time>
      </trkpt>
      <trkpt lat="29.10555" lon="-13.67124">
        <ele>19.4</ele>
        <time>2021-07-03 18:39:41</time>
      </trkpt>
      <trkpt lat="29.10556" lon="-13.67128">
        <ele>19.2</ele>
        <time>2021-07-03 18:39:42</time>
      </trkpt>
      <trkpt lat="29.10558" lon="-13.67132">
        <ele>19.2</ele>
        <time>2021-07-03 18:39:43</time>
      </trkpt>
      <trkpt lat="29.10559" lon="-13.67137">
        <ele>19.2</ele>
        <time>2021-07-03 18:39:44</time>
      </trkpt>
      <trkpt lat="29.1056" lon="-13.67141">
        <ele>19.2</ele>
        <time>2021-07-03 18:39:45</time>
      </trkpt>
      <trkpt lat="29.10562" lon="-13.67145">
        <ele>18.8</ele>
        <time>2021-07-03 18:39:46</time>
      </trkpt>
      <trkpt lat="29.10563" lon="-13.6715">
        <ele>18.8</ele>
        <time>2021-07-03 18:39:47</time>
      </trkpt>
      <trkpt lat="29.10565" lon="-13.67154">
        <ele>18.6</ele>
        <time>2021-07-03 18:39:48</time>
      </trkpt>
      <trkpt lat="29.10567" lon="-13.67159">
        <ele>18.6</ele>
        <time>2021-07-03 18:39:49</time>
      </trkpt>
      <trkpt lat="29.10569" lon="-13.67164">
        <ele>18.2</ele>
        <time>2021-07-03 18:39:50</time>
      </trkpt>
      <trkpt lat="29.10572" lon="-13.67168">
        <ele>18.2</ele>
        <time>2021-07-03 18:39:51</time>
      </trkpt>
      <trkpt lat="29.10574" lon="-13.67173">
        <ele>18</ele>
        <time>2021-07-03 18:39:52</time>
      </trkpt>
      <trkpt lat="29.10577" lon="-13.67177">
        <ele>18</ele>
        <time>2021-07-03 18:39:53</time>
      </trkpt>
      <trkpt lat="29.10589" lon="-13.67201">
        <ele>17.6</ele>
        <time>2021-07-03 18:39:54</time>
      </trkpt>
      <trkpt lat="29.1059" lon="-13.67207">
        <ele>17.4</ele>
        <time>2021-07-03 18:39:55</time>
      </trkpt>
      <trkpt lat="29.10591" lon="-13.67213">
        <ele>17.4</ele>
        <time>2021-07-03 18:39:56</time>
      </trkpt>
      <trkpt lat="29.10591" lon="-13.6722">
        <ele>17</ele>
        <time>2021-07-03 18:39:57</time>
      </trkpt>
      <trkpt lat="29.1059" lon="-13.67226">
        <ele>17</ele>
        <time>2021-07-03 18:39:58</time>
      </trkpt>
      <trkpt lat="29.10589" lon="-13.67232">
        <ele>16.6</ele>
        <time>2021-07-03 18:39:59</time>
      </trkpt>
      <trkpt lat="29.10586" lon="-13.67238">
        <ele>16.6</ele>
        <time>2021-07-03 18:40:00</time>
      </trkpt>
      <trkpt lat="29.10583" lon="-13.67243">
        <ele>16.4</ele>
        <time>2021-07-03 18:40:01</time>
      </trkpt>
      <trkpt lat="29.10579" lon="-13.67249">
        <ele>16</ele>
        <time>2021-07-03 18:40:02</time>
      </trkpt>
      <trkpt lat="29.10575" lon="-13.67254">
        <ele>15.8</ele>
        <time>2021-07-03 18:40:03</time>
      </trkpt>
      <trkpt lat="29.10571" lon="-13.67259">
        <ele>15.8</ele>
        <time>2021-07-03 18:45:28</time>
      </trkpt>
      <trkpt lat="29.10566" lon="-13.67263">
        <ele>15.4</ele>
        <time>2021-07-03 18:45:29</time>
      </trkpt>
      <trkpt lat="29.10561" lon="-13.67268">
        <ele>15</ele>
        <time>2021-07-03 18:45:30</time>
      </trkpt>
      <trkpt lat="29.10554" lon="-13.67271">
        <ele>14.8</ele>
        <time>2021-07-03 18:45:31</time>
      </trkpt>
      <trkpt lat="29.10548" lon="-13.67274">
        <ele>14.4</ele>
        <time>2021-07-03 18:45:32</time>
      </trkpt>
      <trkpt lat="29.10541" lon="-13.67277">
        <ele>14.2</ele>
        <time>2021-07-03 18:48:14</time>
      </trkpt>
      <trkpt lat="29.10525" lon="-13.67288">
        <ele>12.8</ele>
        <time>2021-07-03 18:48:15</time>
      </trkpt>
      <trkpt lat="29.1052" lon="-13.67292">
        <ele>12.6</ele>
        <time>2021-07-03 18:48:16</time>
      </trkpt>
      <trkpt lat="29.10517" lon="-13.67297">
        <ele>12.2</ele>
        <time>2021-07-03 18:48:17</time>
      </trkpt>
      <trkpt lat="29.10514" lon="-13.67302">
        <ele>12.2</ele>
        <time>2021-07-03 18:48:18</time>
      </trkpt>
      <trkpt lat="29.10512" lon="-13.67307">
        <ele>12</ele>
        <time>2021-07-03 18:48:19</time>
      </trkpt>
      <trkpt lat="29.1051" lon="-13.67312">
        <ele>12</ele>
        <time>2021-07-03 18:48:20</time>
      </trkpt>
      <trkpt lat="29.10509" lon="-13.67317">
        <ele>12</ele>
        <time>2021-07-03 18:48:21</time>
      </trkpt>
      <trkpt lat="29.10508" lon="-13.67323">
        <ele>12</ele>
        <time>2021-07-03 18:48:22</time>
      </trkpt>
      <trkpt lat="29.10507" lon="-13.67329">
        <ele>12.2</ele>
        <time>2021-07-03 18:48:23</time>
      </trkpt>
      <trkpt lat="29.10507" lon="-13.67335">
        <ele>12.2</ele>
        <time>2021-07-03 18:48:24</time>
      </trkpt>
      <trkpt lat="29.10506" lon="-13.67342">
        <ele>12.6</ele>
        <time>2021-07-03 18:48:25</time>
      </trkpt>
      <trkpt lat="29.10506" lon="-13.67348">
        <ele>12.6</ele>
        <time>2021-07-03 18:48:26</time>
      </trkpt>
      <trkpt lat="29.10506" lon="-13.67354">
        <ele>12.8</ele>
        <time>2021-07-03 18:48:27</time>
      </trkpt>
      <trkpt lat="29.10506" lon="-13.67359">
        <ele>12.8</ele>
        <time>2021-07-03 18:48:28</time>
      </trkpt>
      <trkpt lat="29.10506" lon="-13.67365">
        <ele>13.2</ele>
        <time>2021-07-03 18:48:29</time>
      </trkpt>
      <trkpt lat="29.10506" lon="-13.6737">
        <ele>13.2</ele>
        <time>2021-07-03 18:48:30</time>
      </trkpt>
      <trkpt lat="29.10506" lon="-13.67376">
        <ele>13.2</ele>
        <time>2021-07-03 18:48:31</time>
      </trkpt>
      <trkpt lat="29.10507" lon="-13.6738">
        <ele>13.2</ele>
        <time>2021-07-03 18:48:32</time>
      </trkpt>
      <trkpt lat="29.10508" lon="-13.67385">
        <ele>13.2</ele>
        <time>2021-07-03 18:48:33</time>
      </trkpt>
      <trkpt lat="29.10509" lon="-13.67389">
        <ele>13.2</ele>
        <time>2021-07-03 18:48:34</time>
      </trkpt>
      <trkpt lat="29.10511" lon="-13.67393">
        <ele>13.2</ele>
        <time>2021-07-03 18:48:35</time>
      </trkpt>
      <trkpt lat="29.10512" lon="-13.67398">
        <ele>13.2</ele>
        <time>2021-07-03 18:48:36</time>
      </trkpt>
      <trkpt lat="29.10514" lon="-13.67403">
        <ele>13.2</ele>
        <time>2021-07-03 18:48:37</time>
      </trkpt>
      <trkpt lat="29.10515" lon="-13.67407">
        <ele>13.4</ele>
        <time>2021-07-03 18:48:38</time>
      </trkpt>
      <trkpt lat="29.10515" lon="-13.67412">
        <ele>13.4</ele>
        <time>2021-07-03 18:48:39</time>
      </trkpt>
      <trkpt lat="29.10514" lon="-13.67416">
        <ele>13.8</ele>
        <time>2021-07-03 18:48:40</time>
      </trkpt>
      <trkpt lat="29.10513" lon="-13.6742">
        <ele>13.8</ele>
        <time>2021-07-03 18:48:41</time>
      </trkpt>
      <trkpt lat="29.10511" lon="-13.67424">
        <ele>13.8</ele>
        <time>2021-07-03 18:48:42</time>
      </trkpt>
      <trkpt lat="29.10509" lon="-13.67428">
        <ele>13.8</ele>
        <time>2021-07-03 18:48:43</time>
      </trkpt>
      <trkpt lat="29.10507" lon="-13.67431">
        <ele>13.8</ele>
        <time>2021-07-03 18:48:44</time>
      </trkpt>
      <trkpt lat="29.10504" lon="-13.67435">
        <ele>13.8</ele>
        <time>2021-07-03 18:48:45</time>
      </trkpt>
      <trkpt lat="29.10502" lon="-13.67438">
        <ele>13.8</ele>
        <time>2021-07-03 18:48:46</time>
      </trkpt>
      <trkpt lat="29.10499" lon="-13.67441">
        <ele>13.8</ele>
        <time>2021-07-03 18:48:47</time>
      </trkpt>
      <trkpt lat="29.10497" lon="-13.67444">
        <ele>13.8</ele>
        <time>2021-07-03 18:48:48</time>
      </trkpt>
      <trkpt lat="29.10495" lon="-13.67446">
        <ele>14</ele>
        <time>2021-07-03 18:48:49</time>
      </trkpt>
      <trkpt lat="29.10494" lon="-13.67448">
        <ele>14</ele>
        <time>2021-07-03 18:48:50</time>
      </trkpt>
      <trkpt lat="29.10492" lon="-13.6745">
        <ele>14.4</ele>
        <time>2021-07-03 18:48:51</time>
      </trkpt>
      <trkpt lat="29.10491" lon="-13.6745">
        <ele>14.8</ele>
        <time>2021-07-03 18:48:52</time>
      </trkpt>
      <trkpt lat="29.1049" lon="-13.67452">
        <ele>15.2</ele>
        <time>2021-07-03 18:48:53</time>
      </trkpt>
      <trkpt lat="29.10489" lon="-13.67453">
        <ele>15.4</ele>
        <time>2021-07-03 18:48:54</time>
      </trkpt>
      <trkpt lat="29.10489" lon="-13.67455">
        <ele>15.8</ele>
        <time>2021-07-03 18:48:55</time>
      </trkpt>
      <trkpt lat="29.10488" lon="-13.67456">
        <ele>16.2</ele>
        <time>2021-07-03 18:48:56</time>
      </trkpt>
      <trkpt lat="29.10487" lon="-13.67457">
        <ele>16.6</ele>
        <time>2021-07-03 18:48:57</time>
      </trkpt>
      <trkpt lat="29.10486" lon="-13.67458">
        <ele>17</ele>
        <time>2021-07-03 18:48:58</time>
      </trkpt>
      <trkpt lat="29.10484" lon="-13.6746">
        <ele>17.2</ele>
        <time>2021-07-03 18:48:59</time>
      </trkpt>
      <trkpt lat="29.10483" lon="-13.67461">
        <ele>17.4</ele>
        <time>2021-07-03 18:49:00</time>
      </trkpt>
      <trkpt lat="29.10481" lon="-13.67463">
        <ele>17.6</ele>
        <time>2021-07-03 18:49:01</time>
      </trkpt>
      <trkpt lat="29.1048" lon="-13.67464">
        <ele>18</ele>
        <time>2021-07-03 18:49:02</time>
      </trkpt>
      <trkpt lat="29.10478" lon="-13.67466">
        <ele>18.2</ele>
        <time>2021-07-03 18:49:03</time>
      </trkpt>
      <trkpt lat="29.10477" lon="-13.67468">
        <ele>18.4</ele>
        <time>2021-07-03 18:49:04</time>
      </trkpt>
      <trkpt lat="29.10475" lon="-13.6747">
        <ele>18.4</ele>
        <time>2021-07-03 18:49:05</time>
      </trkpt>
      <trkpt lat="29.10474" lon="-13.67472">
        <ele>18.8</ele>
        <time>2021-07-03 18:49:06</time>
      </trkpt>
      <trkpt lat="29.10472" lon="-13.67474">
        <ele>18.8</ele>
        <time>2021-07-03 18:49:07</time>
      </trkpt>
      <trkpt lat="29.10471" lon="-13.67476">
        <ele>19.2</ele>
        <time>2021-07-03 18:49:08</time>
      </trkpt>
      <trkpt lat="29.1047" lon="-13.67477">
        <ele>19.4</ele>
        <time>2021-07-03 18:49:09</time>
      </trkpt>
      <trkpt lat="29.10468" lon="-13.67479">
        <ele>19.6</ele>
        <time>2021-07-03 18:49:10</time>
      </trkpt>
      <trkpt lat="29.10467" lon="-13.67481">
        <ele>19.8</ele>
        <time>2021-07-03 18:49:11</time>
      </trkpt>
      <trkpt lat="29.10465" lon="-13.67483">
        <ele>19.8</ele>
        <time>2021-07-03 18:49:12</time>
      </trkpt>
      <trkpt lat="29.10464" lon="-13.67484">
        <ele>20.2</ele>
        <time>2021-07-03 18:49:13</time>
      </trkpt>
      <trkpt lat="29.10462" lon="-13.67485">
        <ele>20.2</ele>
        <time>2021-07-03 18:49:14</time>
      </trkpt>
      <trkpt lat="29.1046" lon="-13.67486">
        <ele>20.4</ele>
        <time>2021-07-03 18:49:15</time>
      </trkpt>
      <trkpt lat="29.10457" lon="-13.67488">
        <ele>20.4</ele>
        <time>2021-07-03 18:49:16</time>
      </trkpt>
      <trkpt lat="29.10455" lon="-13.6749">
        <ele>20.4</ele>
        <time>2021-07-03 18:49:17</time>
      </trkpt>
      <trkpt lat="29.10453" lon="-13.67491">
        <ele>20.6</ele>
        <time>2021-07-03 18:49:18</time>
      </trkpt>
      <trkpt lat="29.10451" lon="-13.67493">
        <ele>20.6</ele>
        <time>2021-07-03 18:49:19</time>
      </trkpt>
      <trkpt lat="29.1045" lon="-13.67493">
        <ele>20.6</ele>
        <time>2021-07-03 18:49:20</time>
      </trkpt>
      <trkpt lat="29.1045" lon="-13.67493">
        <ele>20.6</ele>
        <time>2021-07-03 18:49:21</time>
      </trkpt>
      <trkpt lat="29.1045" lon="-13.67494">
        <ele>20.6</ele>
        <time>2021-07-03 18:49:22</time>
      </trkpt>
      <trkpt lat="29.1045" lon="-13.67494">
        <ele>20.8</ele>
        <time>2021-07-03 18:49:23</time>
      </trkpt>
      <trkpt lat="29.10448" lon="-13.67497">
        <ele>20.6</ele>
        <time>2021-07-03 18:49:24</time>
      </trkpt>
      <trkpt lat="29.10446" lon="-13.67499">
        <ele>20.4</ele>
        <time>2021-07-03 18:49:25</time>
      </trkpt>
      <trkpt lat="29.10443" lon="-13.67501">
        <ele>20.4</ele>
        <time>2021-07-03 18:49:26</time>
      </trkpt>
      <trkpt lat="29.1044" lon="-13.67503">
        <ele>20.4</ele>
        <time>2021-07-03 18:49:27</time>
      </trkpt>
      <trkpt lat="29.10438" lon="-13.67506">
        <ele>20.4</ele>
        <time>2021-07-03 18:49:28</time>
      </trkpt>
      <trkpt lat="29.10435" lon="-13.67509">
        <ele>20.4</ele>
        <time>2021-07-03 18:49:29</time>
      </trkpt>
      <trkpt lat="29.10432" lon="-13.67511">
        <ele>20.4</ele>
        <time>2021-07-03 18:49:30</time>
      </trkpt>
      <trkpt lat="29.10428" lon="-13.67514">
        <ele>20.4</ele>
        <time>2021-07-03 18:49:31</time>
      </trkpt>
      <trkpt lat="29.10425" lon="-13.67517">
        <ele>20.6</ele>
        <time>2021-07-03 18:49:32</time>
      </trkpt>
      <trkpt lat="29.10422" lon="-13.6752">
        <ele>20.6</ele>
        <time>2021-07-03 18:49:33</time>
      </trkpt>
      <trkpt lat="29.10419" lon="-13.67522">
        <ele>21</ele>
        <time>2021-07-03 18:49:34</time>
      </trkpt>
      <trkpt lat="29.10418" lon="-13.67524">
        <ele>21.4</ele>
        <time>2021-07-03 18:49:35</time>
      </trkpt>
      <trkpt lat="29.10417" lon="-13.67524">
        <ele>21.8</ele>
        <time>2021-07-03 18:49:36</time>
      </trkpt>
      <trkpt lat="29.10417" lon="-13.67525">
        <ele>22</ele>
        <time>2021-07-03 18:49:37</time>
      </trkpt>
      <trkpt lat="29.10417" lon="-13.67525">
        <ele>22.4</ele>
        <time>2021-07-03 18:49:38</time>
      </trkpt>
      <trkpt lat="29.10417" lon="-13.67525">
        <ele>22.4</ele>
        <time>2021-07-03 18:49:39</time>
      </trkpt>
      <trkpt lat="29.10417" lon="-13.67525">
        <ele>22.6</ele>
        <time>2021-07-03 18:49:40</time>
      </trkpt>
      <trkpt lat="29.10415" lon="-13.67527">
        <ele>23.4</ele>
        <time>2021-07-03 18:49:41</time>
      </trkpt>
      <trkpt lat="29.10414" lon="-13.67528">
        <ele>23.4</ele>
        <time>2021-07-03 18:49:42</time>
      </trkpt>
      <trkpt lat="29.10414" lon="-13.67529">
        <ele>23.4</ele>
        <time>2021-07-03 18:49:43</time>
      </trkpt>
      <trkpt lat="29.10413" lon="-13.6753">
        <ele>23.4</ele>
        <time>2021-07-03 18:49:44</time>
      </trkpt>
      <trkpt lat="29.10413" lon="-13.67531">
        <ele>23.4</ele>
        <time>2021-07-03 18:49:45</time>
      </trkpt>
      <trkpt lat="29.10413" lon="-13.67533">
        <ele>23.4</ele>
        <time>2021-07-03 18:49:46</time>
      </trkpt>
      <trkpt lat="29.10413" lon="-13.67535">
        <ele>23.4</ele>
        <time>2021-07-03 18:49:47</time>
      </trkpt>
      <trkpt lat="29.10413" lon="-13.67537">
        <ele>23.4</ele>
        <time>2021-07-03 18:49:48</time>
      </trkpt>
      <trkpt lat="29.10412" lon="-13.67538">
        <ele>23.4</ele>
        <time>2021-07-03 18:49:49</time>
      </trkpt>
      <trkpt lat="29.10412" lon="-13.67538">
        <ele>23.4</ele>
        <time>2021-07-03 18:49:50</time>
      </trkpt>
      <trkpt lat="29.10412" lon="-13.67538">
        <ele>23.4</ele>
        <time>2021-07-03 18:49:51</time>
      </trkpt>
      <trkpt lat="29.10412" lon="-13.67537">
        <ele>23.4</ele>
        <time>2021-07-03 18:49:52</time>
      </trkpt>
      <trkpt lat="29.10412" lon="-13.67537">
        <ele>23.4</ele>
        <time>2021-07-03 18:49:53</time>
      </trkpt>
      <trkpt lat="29.1041" lon="-13.67536">
        <ele>23.4</ele>
        <time>2021-07-03 18:49:54</time>
      </trkpt>
      <trkpt lat="29.10409" lon="-13.67536">
        <ele>23.4</ele>
        <time>2021-07-03 18:49:55</time>
      </trkpt>
      <trkpt lat="29.10407" lon="-13.67537">
        <ele>23.2</ele>
        <time>2021-07-03 18:49:56</time>
      </trkpt>
      <trkpt lat="29.10404" lon="-13.67539">
        <ele>23.2</ele>
        <time>2021-07-03 18:49:57</time>
      </trkpt>
      <trkpt lat="29.10402" lon="-13.67541">
        <ele>22.8</ele>
        <time>2021-07-03 18:49:58</time>
      </trkpt>
      <trkpt lat="29.104" lon="-13.67544">
        <ele>22.8</ele>
        <time>2021-07-03 18:49:59</time>
      </trkpt>
      <trkpt lat="29.10399" lon="-13.67545">
        <ele>22.8</ele>
        <time>2021-07-03 18:50:00</time>
      </trkpt>
      <trkpt lat="29.10399" lon="-13.67546">
        <ele>22.4</ele>
        <time>2021-07-03 18:50:01</time>
      </trkpt>
      <trkpt lat="29.104" lon="-13.67546">
        <ele>22.4</ele>
        <time>2021-07-03 18:50:02</time>
      </trkpt>
      <trkpt lat="29.104" lon="-13.67547">
        <ele>22.6</ele>
        <time>2021-07-03 18:50:03</time>
      </trkpt>
      <trkpt lat="29.10399" lon="-13.67549">
        <ele>22.6</ele>
        <time>2021-07-03 18:50:04</time>
      </trkpt>
      <trkpt lat="29.10399" lon="-13.67551">
        <ele>22.6</ele>
        <time>2021-07-03 18:50:05</time>
      </trkpt>
      <trkpt lat="29.10398" lon="-13.67553">
        <ele>22.6</ele>
        <time>2021-07-03 18:50:06</time>
      </trkpt>
      <trkpt lat="29.10397" lon="-13.67555">
        <ele>22.6</ele>
        <time>2021-07-03 18:50:07</time>
      </trkpt>
      <trkpt lat="29.10395" lon="-13.67558">
        <ele>22.6</ele>
        <time>2021-07-03 18:50:08</time>
      </trkpt>
      <trkpt lat="29.10393" lon="-13.67561">
        <ele>22.4</ele>
        <time>2021-07-03 18:50:09</time>
      </trkpt>
      <trkpt lat="29.10391" lon="-13.67565">
        <ele>22</ele>
        <time>2021-07-03 18:50:10</time>
      </trkpt>
      <trkpt lat="29.10388" lon="-13.6757">
        <ele>21.8</ele>
        <time>2021-07-03 18:50:11</time>
      </trkpt>
      <trkpt lat="29.10385" lon="-13.67575">
        <ele>21.4</ele>
        <time>2021-07-03 18:50:12</time>
      </trkpt>
      <trkpt lat="29.10383" lon="-13.67581">
        <ele>21</ele>
        <time>2021-07-03 18:50:13</time>
      </trkpt>
      <trkpt lat="29.10379" lon="-13.67585">
        <ele>20.6</ele>
        <time>2021-07-03 18:50:14</time>
      </trkpt>
      <trkpt lat="29.10374" lon="-13.67589">
        <ele>20.2</ele>
        <time>2021-07-03 18:50:15</time>
      </trkpt>
      <trkpt lat="29.10369" lon="-13.67593">
        <ele>19.8</ele>
        <time>2021-07-03 18:50:16</time>
      </trkpt>
      <trkpt lat="29.10362" lon="-13.67596">
        <ele>19.2</ele>
        <time>2021-07-03 18:50:17</time>
      </trkpt>
      <trkpt lat="29.10356" lon="-13.67598">
        <ele>18.8</ele>
        <time>2021-07-03 18:50:18</time>
      </trkpt>
      <trkpt lat="29.1035" lon="-13.67602">
        <ele>18.4</ele>
        <time>2021-07-03 18:50:19</time>
      </trkpt>
      <trkpt lat="29.10344" lon="-13.67604">
        <ele>18</ele>
        <time>2021-07-03 18:50:20</time>
      </trkpt>
      <trkpt lat="29.10338" lon="-13.67606">
        <ele>17.6</ele>
        <time>2021-07-03 18:50:21</time>
      </trkpt>
      <trkpt lat="29.10331" lon="-13.67606">
        <ele>17.4</ele>
        <time>2021-07-03 18:50:22</time>
      </trkpt>
      <trkpt lat="29.10325" lon="-13.67607">
        <ele>17</ele>
        <time>2021-07-03 18:50:23</time>
      </trkpt>
      <trkpt lat="29.1032" lon="-13.67606">
        <ele>16.8</ele>
        <time>2021-07-03 18:50:24</time>
      </trkpt>
      <trkpt lat="29.10314" lon="-13.67606">
        <ele>16.8</ele>
        <time>2021-07-03 18:50:25</time>
      </trkpt>
      <trkpt lat="29.10309" lon="-13.67605">
        <ele>16.4</ele>
        <time>2021-07-03 18:50:26</time>
      </trkpt>
      <trkpt lat="29.10304" lon="-13.67607">
        <ele>16.4</ele>
        <time>2021-07-03 18:50:27</time>
      </trkpt>
      <trkpt lat="29.10299" lon="-13.67608">
        <ele>16.4</ele>
        <time>2021-07-03 18:50:28</time>
      </trkpt>
      <trkpt lat="29.10294" lon="-13.67609">
        <ele>16.4</ele>
        <time>2021-07-03 18:50:29</time>
      </trkpt>
      <trkpt lat="29.10289" lon="-13.6761">
        <ele>16.4</ele>
        <time>2021-07-03 18:50:30</time>
      </trkpt>
      <trkpt lat="29.10284" lon="-13.67611">
        <ele>16.4</ele>
        <time>2021-07-03 18:50:31</time>
      </trkpt>
      <trkpt lat="29.1028" lon="-13.67611">
        <ele>16.4</ele>
        <time>2021-07-03 18:50:32</time>
      </trkpt>
      <trkpt lat="29.10276" lon="-13.67611">
        <ele>16.4</ele>
        <time>2021-07-03 18:50:33</time>
      </trkpt>
      <trkpt lat="29.10271" lon="-13.6761">
        <ele>16.6</ele>
        <time>2021-07-03 18:50:34</time>
      </trkpt>
      <trkpt lat="29.10267" lon="-13.6761">
        <ele>16.6</ele>
        <time>2021-07-03 18:50:35</time>
      </trkpt>
      <trkpt lat="29.10263" lon="-13.67609">
        <ele>16.6</ele>
        <time>2021-07-03 18:50:36</time>
      </trkpt>
      <trkpt lat="29.10258" lon="-13.67609">
        <ele>16.6</ele>
        <time>2021-07-03 18:50:37</time>
      </trkpt>
      <trkpt lat="29.10254" lon="-13.67608">
        <ele>16.6</ele>
        <time>2021-07-03 18:50:38</time>
      </trkpt>
      <trkpt lat="29.1025" lon="-13.67607">
        <ele>16.8</ele>
        <time>2021-07-03 18:50:39</time>
      </trkpt>
      <trkpt lat="29.10246" lon="-13.67606">
        <ele>16.8</ele>
        <time>2021-07-03 18:50:40</time>
      </trkpt>
      <trkpt lat="29.10242" lon="-13.67604">
        <ele>17.2</ele>
        <time>2021-07-03 18:50:41</time>
      </trkpt>
      <trkpt lat="29.10239" lon="-13.67603">
        <ele>17.2</ele>
        <time>2021-07-03 18:50:42</time>
      </trkpt>
      <trkpt lat="29.10236" lon="-13.67601">
        <ele>17.6</ele>
        <time>2021-07-03 18:50:43</time>
      </trkpt>
      <trkpt lat="29.10233" lon="-13.67599">
        <ele>17.6</ele>
        <time>2021-07-03 18:50:44</time>
      </trkpt>
      <trkpt lat="29.10231" lon="-13.67597">
        <ele>18</ele>
        <time>2021-07-03 18:50:45</time>
      </trkpt>
      <trkpt lat="29.10228" lon="-13.67595">
        <ele>18</ele>
        <time>2021-07-03 18:50:46</time>
      </trkpt>
      <trkpt lat="29.10225" lon="-13.67592">
        <ele>18.4</ele>
        <time>2021-07-03 18:50:47</time>
      </trkpt>
      <trkpt lat="29.10223" lon="-13.6759">
        <ele>18.4</ele>
        <time>2021-07-03 18:50:48</time>
      </trkpt>
      <trkpt lat="29.10219" lon="-13.67588">
        <ele>18.6</ele>
        <time>2021-07-03 18:50:49</time>
      </trkpt>
      <trkpt lat="29.10216" lon="-13.67587">
        <ele>18.6</ele>
        <time>2021-07-03 18:50:50</time>
      </trkpt>
      <trkpt lat="29.10212" lon="-13.67586">
        <ele>18.6</ele>
        <time>2021-07-03 18:50:51</time>
      </trkpt>
      <trkpt lat="29.10208" lon="-13.67586">
        <ele>18.6</ele>
        <time>2021-07-03 18:50:52</time>
      </trkpt>
      <trkpt lat="29.10204" lon="-13.67587">
        <ele>18.6</ele>
        <time>2021-07-03 18:50:53</time>
      </trkpt>
      <trkpt lat="29.102" lon="-13.67589">
        <ele>18.6</ele>
        <time>2021-07-03 18:50:54</time>
      </trkpt>
      <trkpt lat="29.10197" lon="-13.67591">
        <ele>18.8</ele>
        <time>2021-07-03 18:50:55</time>
      </trkpt>
      <trkpt lat="29.10194" lon="-13.67593">
        <ele>18.8</ele>
        <time>2021-07-03 18:50:56</time>
      </trkpt>
      <trkpt lat="29.10191" lon="-13.67595">
        <ele>18.8</ele>
        <time>2021-07-03 18:50:57</time>
      </trkpt>
      <trkpt lat="29.10187" lon="-13.67596">
        <ele>18.8</ele>
        <time>2021-07-03 18:50:58</time>
      </trkpt>
      <trkpt lat="29.10183" lon="-13.67597">
        <ele>19</ele>
        <time>2021-07-03 18:50:59</time>
      </trkpt>
      <trkpt lat="29.10179" lon="-13.67598">
        <ele>19</ele>
        <time>2021-07-03 18:51:00</time>
      </trkpt>
      <trkpt lat="29.10175" lon="-13.67598">
        <ele>19</ele>
        <time>2021-07-03 18:51:01</time>
      </trkpt>
      <trkpt lat="29.10172" lon="-13.67598">
        <ele>19.2</ele>
        <time>2021-07-03 18:51:02</time>
      </trkpt>
      <trkpt lat="29.10168" lon="-13.67599">
        <ele>19.2</ele>
        <time>2021-07-03 18:51:03</time>
      </trkpt>
      <trkpt lat="29.10164" lon="-13.67599">
        <ele>19.2</ele>
        <time>2021-07-03 18:51:04</time>
      </trkpt>
      <trkpt lat="29.1016" lon="-13.676">
        <ele>19.4</ele>
        <time>2021-07-03 18:51:05</time>
      </trkpt>
      <trkpt lat="29.10156" lon="-13.67601">
        <ele>19.4</ele>
        <time>2021-07-03 18:51:06</time>
      </trkpt>
      <trkpt lat="29.10152" lon="-13.67602">
        <ele>19.4</ele>
        <time>2021-07-03 18:51:07</time>
      </trkpt>
      <trkpt lat="29.10148" lon="-13.67603">
        <ele>19.4</ele>
        <time>2021-07-03 18:51:08</time>
      </trkpt>
      <trkpt lat="29.10144" lon="-13.67604">
        <ele>19.4</ele>
        <time>2021-07-03 18:51:09</time>
      </trkpt>
      <trkpt lat="29.1014" lon="-13.67604">
        <ele>19.4</ele>
        <time>2021-07-03 18:51:10</time>
      </trkpt>
      <trkpt lat="29.10136" lon="-13.67604">
        <ele>19.6</ele>
        <time>2021-07-03 18:51:11</time>
      </trkpt>
      <trkpt lat="29.10132" lon="-13.67605">
        <ele>19.6</ele>
        <time>2021-07-03 18:51:12</time>
      </trkpt>
      <trkpt lat="29.10128" lon="-13.67605">
        <ele>19.6</ele>
        <time>2021-07-03 18:51:13</time>
      </trkpt>
      <trkpt lat="29.10124" lon="-13.67604">
        <ele>19.6</ele>
        <time>2021-07-03 18:51:14</time>
      </trkpt>
      <trkpt lat="29.10121" lon="-13.67604">
        <ele>19.8</ele>
        <time>2021-07-03 18:51:15</time>
      </trkpt>
      <trkpt lat="29.10117" lon="-13.67605">
        <ele>19.8</ele>
        <time>2021-07-03 18:51:16</time>
      </trkpt>
      <trkpt lat="29.10113" lon="-13.67605">
        <ele>19.8</ele>
        <time>2021-07-03 18:51:17</time>
      </trkpt>
      <trkpt lat="29.1011" lon="-13.67606">
        <ele>20</ele>
        <time>2021-07-03 18:51:18</time>
      </trkpt>
      <trkpt lat="29.10107" lon="-13.67607">
        <ele>20</ele>
        <time>2021-07-03 18:51:19</time>
      </trkpt>
      <trkpt lat="29.10103" lon="-13.67608">
        <ele>20.4</ele>
        <time>2021-07-03 18:51:20</time>
      </trkpt>
      <trkpt lat="29.10101" lon="-13.67609">
        <ele>20.6</ele>
        <time>2021-07-03 18:51:21</time>
      </trkpt>
      <trkpt lat="29.10098" lon="-13.67609">
        <ele>20.8</ele>
        <time>2021-07-03 18:51:22</time>
      </trkpt>
      <trkpt lat="29.10095" lon="-13.67609">
        <ele>20.8</ele>
        <time>2021-07-03 18:51:23</time>
      </trkpt>
      <trkpt lat="29.10092" lon="-13.67609">
        <ele>21.2</ele>
        <time>2021-07-03 18:52:01</time>
      </trkpt>
      <trkpt lat="29.10088" lon="-13.67608">
        <ele>21.2</ele>
        <time>2021-07-03 18:52:02</time>
      </trkpt>
      <trkpt lat="29.10085" lon="-13.67608">
        <ele>21.6</ele>
        <time>2021-07-03 18:52:03</time>
      </trkpt>
      <trkpt lat="29.10082" lon="-13.67608">
        <ele>21.6</ele>
        <time>2021-07-03 18:52:04</time>
      </trkpt>
      <trkpt lat="29.10078" lon="-13.67607">
        <ele>21.8</ele>
        <time>2021-07-03 18:52:05</time>
      </trkpt>
      <trkpt lat="29.10075" lon="-13.67607">
        <ele>21.8</ele>
        <time>2021-07-03 18:52:06</time>
      </trkpt>
      <trkpt lat="29.10071" lon="-13.67608">
        <ele>21.8</ele>
        <time>2021-07-03 18:52:07</time>
      </trkpt>
      <trkpt lat="29.10068" lon="-13.67608">
        <ele>22</ele>
        <time>2021-07-03 18:52:08</time>
      </trkpt>
      <trkpt lat="29.10065" lon="-13.67609">
        <ele>22</ele>
        <time>2021-07-03 18:52:09</time>
      </trkpt>
      <trkpt lat="29.10062" lon="-13.67611">
        <ele>22.2</ele>
        <time>2021-07-03 18:52:10</time>
      </trkpt>
      <trkpt lat="29.10059" lon="-13.67613">
        <ele>22.2</ele>
        <time>2021-07-03 18:52:11</time>
      </trkpt>
      <trkpt lat="29.10056" lon="-13.67614">
        <ele>22.6</ele>
        <time>2021-07-03 18:52:12</time>
      </trkpt>
      <trkpt lat="29.10053" lon="-13.67617">
        <ele>22.6</ele>
        <time>2021-07-03 18:52:13</time>
      </trkpt>
      <trkpt lat="29.10051" lon="-13.67619">
        <ele>23</ele>
        <time>2021-07-03 18:52:14</time>
      </trkpt>
      <trkpt lat="29.10049" lon="-13.67622">
        <ele>23</ele>
        <time>2021-07-03 18:52:15</time>
      </trkpt>
      <trkpt lat="29.10046" lon="-13.67625">
        <ele>23.4</ele>
        <time>2021-07-03 18:52:16</time>
      </trkpt>
      <trkpt lat="29.10045" lon="-13.67628">
        <ele>23.4</ele>
        <time>2021-07-03 18:52:17</time>
      </trkpt>
      <trkpt lat="29.10043" lon="-13.67631">
        <ele>23.8</ele>
        <time>2021-07-03 18:52:32</time>
      </trkpt>
      <trkpt lat="29.10042" lon="-13.67635">
        <ele>23.8</ele>
        <time>2021-07-03 18:52:33</time>
      </trkpt>
      <trkpt lat="29.1004" lon="-13.67638">
        <ele>24.2</ele>
        <time>2021-07-03 18:52:34</time>
      </trkpt>
      <trkpt lat="29.10039" lon="-13.67642">
        <ele>24.2</ele>
        <time>2021-07-03 18:52:35</time>
      </trkpt>
      <trkpt lat="29.10037" lon="-13.67645">
        <ele>24.4</ele>
        <time>2021-07-03 18:52:36</time>
      </trkpt>
      <trkpt lat="29.10036" lon="-13.67649">
        <ele>24.4</ele>
        <time>2021-07-03 18:52:37</time>
      </trkpt>
      <trkpt lat="29.10036" lon="-13.67653">
        <ele>24.8</ele>
        <time>2021-07-03 18:52:38</time>
      </trkpt>
      <trkpt lat="29.10035" lon="-13.67657">
        <ele>24.8</ele>
        <time>2021-07-03 18:52:39</time>
      </trkpt>
      <trkpt lat="29.10033" lon="-13.67661">
        <ele>25</ele>
        <time>2021-07-03 18:52:40</time>
      </trkpt>
      <trkpt lat="29.10032" lon="-13.67664">
        <ele>25</ele>
        <time>2021-07-03 18:52:41</time>
      </trkpt>
      <trkpt lat="29.10031" lon="-13.67668">
        <ele>25.2</ele>
        <time>2021-07-03 18:52:42</time>
      </trkpt>
      <trkpt lat="29.1003" lon="-13.67672">
        <ele>25.2</ele>
        <time>2021-07-03 18:52:43</time>
      </trkpt>
      <trkpt lat="29.10029" lon="-13.67676">
        <ele>25.6</ele>
        <time>2021-07-03 18:52:44</time>
      </trkpt>
      <trkpt lat="29.10028" lon="-13.6768">
        <ele>25.6</ele>
        <time>2021-07-03 18:53:19</time>
      </trkpt>
      <trkpt lat="29.10027" lon="-13.67684">
        <ele>25.8</ele>
        <time>2021-07-03 18:53:20</time>
      </trkpt>
      <trkpt lat="29.10025" lon="-13.67688">
        <ele>25.8</ele>
        <time>2021-07-03 18:53:21</time>
      </trkpt>
      <trkpt lat="29.10023" lon="-13.67691">
        <ele>26</ele>
        <time>2021-07-03 18:53:22</time>
      </trkpt>
      <trkpt lat="29.10021" lon="-13.67694">
        <ele>26</ele>
        <time>2021-07-03 18:53:23</time>
      </trkpt>
      <trkpt lat="29.10018" lon="-13.67696">
        <ele>26.4</ele>
        <time>2021-07-03 18:53:24</time>
      </trkpt>
      <trkpt lat="29.10016" lon="-13.67698">
        <ele>26.4</ele>
        <time>2021-07-03 18:53:25</time>
      </trkpt>
      <trkpt lat="29.10012" lon="-13.677">
        <ele>26.4</ele>
        <time>2021-07-03 18:53:26</time>
      </trkpt>
      <trkpt lat="29.10008" lon="-13.677">
        <ele>26.6</ele>
        <time>2021-07-03 18:53:27</time>
      </trkpt>
      <trkpt lat="29.10005" lon="-13.677">
        <ele>26.6</ele>
        <time>2021-07-03 18:53:33</time>
      </trkpt>
      <trkpt lat="29.10001" lon="-13.67699">
        <ele>26.6</ele>
        <time>2021-07-03 18:53:34</time>
      </trkpt>
      <trkpt lat="29.09997" lon="-13.67698">
        <ele>26.6</ele>
        <time>2021-07-03 18:53:35</time>
      </trkpt>
      <trkpt lat="29.09994" lon="-13.67695">
        <ele>27</ele>
        <time>2021-07-03 18:53:36</time>
      </trkpt>
      <trkpt lat="29.09991" lon="-13.67693">
        <ele>27</ele>
        <time>2021-07-03 18:53:37</time>
      </trkpt>
      <trkpt lat="29.09989" lon="-13.67691">
        <ele>27</ele>
        <time>2021-07-03 18:53:38</time>
      </trkpt>
      <trkpt lat="29.09986" lon="-13.67689">
        <ele>27.4</ele>
        <time>2021-07-03 18:53:39</time>
      </trkpt>
      <trkpt lat="29.09983" lon="-13.67687">
        <ele>27.6</ele>
        <time>2021-07-03 18:53:40</time>
      </trkpt>
      <trkpt lat="29.0998" lon="-13.67686">
        <ele>27.8</ele>
        <time>2021-07-03 18:53:41</time>
      </trkpt>
      <trkpt lat="29.09977" lon="-13.67685">
        <ele>27.8</ele>
        <time>2021-07-03 18:53:42</time>
      </trkpt>
      <trkpt lat="29.09974" lon="-13.67684">
        <ele>28.2</ele>
        <time>2021-07-03 18:53:43</time>
      </trkpt>
      <trkpt lat="29.09971" lon="-13.67684">
        <ele>28.4</ele>
        <time>2021-07-03 18:53:44</time>
      </trkpt>
      <trkpt lat="29.09968" lon="-13.67684">
        <ele>28.6</ele>
        <time>2021-07-03 18:53:45</time>
      </trkpt>
      <trkpt lat="29.09966" lon="-13.67684">
        <ele>28.6</ele>
        <time>2021-07-03 18:53:46</time>
      </trkpt>
      <trkpt lat="29.09963" lon="-13.67684">
        <ele>29</ele>
        <time>2021-07-03 18:53:47</time>
      </trkpt>
      <trkpt lat="29.0996" lon="-13.67685">
        <ele>29.2</ele>
        <time>2021-07-03 18:53:48</time>
      </trkpt>
      <trkpt lat="29.09958" lon="-13.67685">
        <ele>29.6</ele>
        <time>2021-07-03 18:53:49</time>
      </trkpt>
      <trkpt lat="29.09955" lon="-13.67686">
        <ele>29.6</ele>
        <time>2021-07-03 18:53:50</time>
      </trkpt>
      <trkpt lat="29.09953" lon="-13.67688">
        <ele>29.8</ele>
        <time>2021-07-03 18:53:51</time>
      </trkpt>
      <trkpt lat="29.0995" lon="-13.67689">
        <ele>29.8</ele>
        <time>2021-07-03 18:53:52</time>
      </trkpt>
      <trkpt lat="29.09947" lon="-13.67691">
        <ele>30</ele>
        <time>2021-07-03 18:53:53</time>
      </trkpt>
      <trkpt lat="29.09944" lon="-13.67693">
        <ele>30</ele>
        <time>2021-07-03 18:53:54</time>
      </trkpt>
      <trkpt lat="29.09942" lon="-13.67695">
        <ele>30.4</ele>
        <time>2021-07-03 18:53:55</time>
      </trkpt>
      <trkpt lat="29.09939" lon="-13.67698">
        <ele>30.4</ele>
        <time>2021-07-03 18:53:56</time>
      </trkpt>
      <trkpt lat="29.09937" lon="-13.677">
        <ele>30.4</ele>
        <time>2021-07-03 18:53:57</time>
      </trkpt>
      <trkpt lat="29.09934" lon="-13.67703">
        <ele>30.6</ele>
        <time>2021-07-03 18:53:58</time>
      </trkpt>
      <trkpt lat="29.09932" lon="-13.67706">
        <ele>30.6</ele>
        <time>2021-07-03 18:53:59</time>
      </trkpt>
      <trkpt lat="29.0993" lon="-13.67708">
        <ele>30.6</ele>
        <time>2021-07-03 18:54:00</time>
      </trkpt>
      <trkpt lat="29.09927" lon="-13.6771">
        <ele>30.6</ele>
        <time>2021-07-03 18:54:01</time>
      </trkpt>
      <trkpt lat="29.09924" lon="-13.67712">
        <ele>30.8</ele>
        <time>2021-07-03 18:54:02</time>
      </trkpt>
      <trkpt lat="29.09921" lon="-13.67714">
        <ele>30.8</ele>
        <time>2021-07-03 18:54:03</time>
      </trkpt>
      <trkpt lat="29.09918" lon="-13.67715">
        <ele>30.8</ele>
        <time>2021-07-03 18:54:04</time>
      </trkpt>
      <trkpt lat="29.09915" lon="-13.67716">
        <ele>30.8</ele>
        <time>2021-07-03 18:54:05</time>
      </trkpt>
      <trkpt lat="29.09912" lon="-13.67717">
        <ele>30.8</ele>
        <time>2021-07-03 18:54:06</time>
      </trkpt>
      <trkpt lat="29.09909" lon="-13.67718">
        <ele>30.8</ele>
        <time>2021-07-03 18:54:07</time>
      </trkpt>
      <trkpt lat="29.09906" lon="-13.67719">
        <ele>30.8</ele>
        <time>2021-07-03 18:54:08</time>
      </trkpt>
      <trkpt lat="29.09903" lon="-13.6772">
        <ele>30.6</ele>
        <time>2021-07-03 18:54:09</time>
      </trkpt>
      <trkpt lat="29.09899" lon="-13.6772">
        <ele>30.2</ele>
        <time>2021-07-03 18:54:10</time>
      </trkpt>
      <trkpt lat="29.09896" lon="-13.67721">
        <ele>30.2</ele>
        <time>2021-07-03 18:54:11</time>
      </trkpt>
      <trkpt lat="29.09892" lon="-13.67721">
        <ele>30</ele>
        <time>2021-07-03 18:54:12</time>
      </trkpt>
      <trkpt lat="29.09889" lon="-13.67722">
        <ele>30</ele>
        <time>2021-07-03 18:54:13</time>
      </trkpt>
      <trkpt lat="29.09886" lon="-13.67722">
        <ele>30</ele>
        <time>2021-07-03 18:54:14</time>
      </trkpt>
      <trkpt lat="29.09882" lon="-13.67723">
        <ele>29.8</ele>
        <time>2021-07-03 18:54:15</time>
      </trkpt>
      <trkpt lat="29.09878" lon="-13.67725">
        <ele>29.8</ele>
        <time>2021-07-03 18:54:16</time>
      </trkpt>
      <trkpt lat="29.09874" lon="-13.67727">
        <ele>29.6</ele>
        <time>2021-07-03 18:54:17</time>
      </trkpt>
      <trkpt lat="29.09869" lon="-13.6773">
        <ele>29.4</ele>
        <time>2021-07-03 18:54:18</time>
      </trkpt>
      <trkpt lat="29.09865" lon="-13.67734">
        <ele>29.4</ele>
        <time>2021-07-03 18:54:19</time>
      </trkpt>
      <trkpt lat="29.0986" lon="-13.67737">
        <ele>28.8</ele>
        <time>2021-07-03 18:54:20</time>
      </trkpt>
      <trkpt lat="29.09855" lon="-13.67739">
        <ele>28.8</ele>
        <time>2021-07-03 18:54:21</time>
      </trkpt>
      <trkpt lat="29.0985" lon="-13.67742">
        <ele>28.6</ele>
        <time>2021-07-03 18:54:22</time>
      </trkpt>
      <trkpt lat="29.09846" lon="-13.67744">
        <ele>28.6</ele>
        <time>2021-07-03 18:54:23</time>
      </trkpt>
      <trkpt lat="29.09841" lon="-13.67745">
        <ele>28.4</ele>
        <time>2021-07-03 18:54:24</time>
      </trkpt>
      <trkpt lat="29.09836" lon="-13.67745">
        <ele>28.4</ele>
        <time>2021-07-03 18:54:25</time>
      </trkpt>
      <trkpt lat="29.09831" lon="-13.67746">
        <ele>28.4</ele>
        <time>2021-07-03 18:54:26</time>
      </trkpt>
      <trkpt lat="29.09826" lon="-13.67747">
        <ele>28.4</ele>
        <time>2021-07-03 18:54:27</time>
      </trkpt>
      <trkpt lat="29.09821" lon="-13.67748">
        <ele>28.4</ele>
        <time>2021-07-03 18:54:28</time>
      </trkpt>
      <trkpt lat="29.09816" lon="-13.67749">
        <ele>28.4</ele>
        <time>2021-07-03 18:54:29</time>
      </trkpt>
      <trkpt lat="29.09811" lon="-13.67752">
        <ele>28.4</ele>
        <time>2021-07-03 18:54:30</time>
      </trkpt>
      <trkpt lat="29.09806" lon="-13.67754">
        <ele>28.4</ele>
        <time>2021-07-03 18:54:31</time>
      </trkpt>
      <trkpt lat="29.09801" lon="-13.67755">
        <ele>28.4</ele>
        <time>2021-07-03 18:54:32</time>
      </trkpt>
      <trkpt lat="29.09796" lon="-13.67757">
        <ele>28.4</ele>
        <time>2021-07-03 18:54:33</time>
      </trkpt>
      <trkpt lat="29.09793" lon="-13.67759">
        <ele>28.4</ele>
        <time>2021-07-03 18:54:34</time>
      </trkpt>
      <trkpt lat="29.09789" lon="-13.67761">
        <ele>28.6</ele>
        <time>2021-07-03 18:54:35</time>
      </trkpt>
      <trkpt lat="29.09785" lon="-13.67762">
        <ele>28.6</ele>
        <time>2021-07-03 18:54:36</time>
      </trkpt>
      <trkpt lat="29.09782" lon="-13.67764">
        <ele>28.8</ele>
        <time>2021-07-03 18:54:37</time>
      </trkpt>
      <trkpt lat="29.09778" lon="-13.67766">
        <ele>28.8</ele>
        <time>2021-07-03 18:54:38</time>
      </trkpt>
      <trkpt lat="29.09775" lon="-13.67767">
        <ele>29</ele>
        <time>2021-07-03 18:54:39</time>
      </trkpt>
      <trkpt lat="29.09773" lon="-13.6777">
        <ele>29</ele>
        <time>2021-07-03 18:54:40</time>
      </trkpt>
      <trkpt lat="29.0977" lon="-13.67772">
        <ele>29</ele>
        <time>2021-07-03 18:54:41</time>
      </trkpt>
      <trkpt lat="29.09767" lon="-13.67774">
        <ele>29.2</ele>
        <time>2021-07-03 18:54:42</time>
      </trkpt>
      <trkpt lat="29.09765" lon="-13.67777">
        <ele>29.2</ele>
        <time>2021-07-03 18:54:43</time>
      </trkpt>
      <trkpt lat="29.09762" lon="-13.67781">
        <ele>29.2</ele>
        <time>2021-07-03 18:54:44</time>
      </trkpt>
      <trkpt lat="29.0976" lon="-13.67785">
        <ele>29.2</ele>
        <time>2021-07-03 18:54:45</time>
      </trkpt>
      <trkpt lat="29.09758" lon="-13.67789">
        <ele>29.2</ele>
        <time>2021-07-03 18:54:46</time>
      </trkpt>
      <trkpt lat="29.09755" lon="-13.67793">
        <ele>29.2</ele>
        <time>2021-07-03 18:54:47</time>
      </trkpt>
      <trkpt lat="29.09753" lon="-13.67798">
        <ele>29</ele>
        <time>2021-07-03 18:54:48</time>
      </trkpt>
      <trkpt lat="29.0975" lon="-13.67803">
        <ele>29</ele>
        <time>2021-07-03 18:54:49</time>
      </trkpt>
      <trkpt lat="29.09747" lon="-13.67807">
        <ele>29</ele>
        <time>2021-07-03 18:54:50</time>
      </trkpt>
      <trkpt lat="29.09744" lon="-13.67812">
        <ele>29</ele>
        <time>2021-07-03 18:54:51</time>
      </trkpt>
      <trkpt lat="29.09742" lon="-13.67817">
        <ele>28.6</ele>
        <time>2021-07-03 18:54:52</time>
      </trkpt>
      <trkpt lat="29.09739" lon="-13.67822">
        <ele>28.6</ele>
        <time>2021-07-03 18:54:53</time>
      </trkpt>
      <trkpt lat="29.09738" lon="-13.67828">
        <ele>28.2</ele>
        <time>2021-07-03 18:54:54</time>
      </trkpt>
      <trkpt lat="29.09737" lon="-13.67833">
        <ele>28.2</ele>
        <time>2021-07-03 18:54:55</time>
      </trkpt>
      <trkpt lat="29.09737" lon="-13.67838">
        <ele>28.2</ele>
        <time>2021-07-03 18:54:56</time>
      </trkpt>
      <trkpt lat="29.09738" lon="-13.67843">
        <ele>28.2</ele>
        <time>2021-07-03 18:54:57</time>
      </trkpt>
      <trkpt lat="29.09739" lon="-13.67848">
        <ele>28.6</ele>
        <time>2021-07-03 18:54:58</time>
      </trkpt>
      <trkpt lat="29.0974" lon="-13.67853">
        <ele>28.6</ele>
        <time>2021-07-03 18:54:59</time>
      </trkpt>
      <trkpt lat="29.09741" lon="-13.67858">
        <ele>28.6</ele>
        <time>2021-07-03 18:55:00</time>
      </trkpt>
      <trkpt lat="29.0974" lon="-13.67864">
        <ele>28.6</ele>
        <time>2021-07-03 18:55:01</time>
      </trkpt>
      <trkpt lat="29.09739" lon="-13.67869">
        <ele>28.6</ele>
        <time>2021-07-03 18:55:02</time>
      </trkpt>
      <trkpt lat="29.09739" lon="-13.67874">
        <ele>28.6</ele>
        <time>2021-07-03 18:55:03</time>
      </trkpt>
      <trkpt lat="29.09737" lon="-13.67879">
        <ele>28.8</ele>
        <time>2021-07-03 18:55:04</time>
      </trkpt>
      <trkpt lat="29.09735" lon="-13.67885">
        <ele>28.8</ele>
        <time>2021-07-03 18:55:05</time>
      </trkpt>
      <trkpt lat="29.09732" lon="-13.67889">
        <ele>28.8</ele>
        <time>2021-07-03 18:55:06</time>
      </trkpt>
      <trkpt lat="29.09729" lon="-13.67894">
        <ele>28.8</ele>
        <time>2021-07-03 18:55:07</time>
      </trkpt>
      <trkpt lat="29.09727" lon="-13.67897">
        <ele>29</ele>
        <time>2021-07-03 18:55:08</time>
      </trkpt>
      <trkpt lat="29.09723" lon="-13.67901">
        <ele>29</ele>
        <time>2021-07-03 18:55:09</time>
      </trkpt>
      <trkpt lat="29.09721" lon="-13.67905">
        <ele>28.4</ele>
        <time>2021-07-03 18:55:10</time>
      </trkpt>
      <trkpt lat="29.09718" lon="-13.67909">
        <ele>28.6</ele>
        <time>2021-07-03 18:55:11</time>
      </trkpt>
      <trkpt lat="29.09714" lon="-13.67912">
        <ele>28.8</ele>
        <time>2021-07-03 18:55:12</time>
      </trkpt>
      <trkpt lat="29.09711" lon="-13.67915">
        <ele>28.8</ele>
        <time>2021-07-03 18:55:13</time>
      </trkpt>
      <trkpt lat="29.09708" lon="-13.67918">
        <ele>28.8</ele>
        <time>2021-07-03 18:55:14</time>
      </trkpt>
      <trkpt lat="29.09705" lon="-13.67921">
        <ele>28.8</ele>
        <time>2021-07-03 18:55:15</time>
      </trkpt>
      <trkpt lat="29.09702" lon="-13.67925">
        <ele>28.8</ele>
        <time>2021-07-03 18:55:16</time>
      </trkpt>
      <trkpt lat="29.09698" lon="-13.67928">
        <ele>28.8</ele>
        <time>2021-07-03 18:55:17</time>
      </trkpt>
      <trkpt lat="29.09695" lon="-13.67932">
        <ele>28.8</ele>
        <time>2021-07-03 18:55:18</time>
      </trkpt>
      <trkpt lat="29.09692" lon="-13.67937">
        <ele>28.8</ele>
        <time>2021-07-03 18:55:19</time>
      </trkpt>
      <trkpt lat="29.09689" lon="-13.67941">
        <ele>28.8</ele>
        <time>2021-07-03 18:55:20</time>
      </trkpt>
      <trkpt lat="29.09685" lon="-13.67945">
        <ele>28.8</ele>
        <time>2021-07-03 18:55:21</time>
      </trkpt>
      <trkpt lat="29.09682" lon="-13.6795">
        <ele>28.8</ele>
        <time>2021-07-03 18:55:22</time>
      </trkpt>
      <trkpt lat="29.09679" lon="-13.67954">
        <ele>28.8</ele>
        <time>2021-07-03 18:55:23</time>
      </trkpt>
      <trkpt lat="29.09676" lon="-13.67958">
        <ele>28.8</ele>
        <time>2021-07-03 18:55:24</time>
      </trkpt>
      <trkpt lat="29.09674" lon="-13.67963">
        <ele>28.8</ele>
        <time>2021-07-03 18:55:25</time>
      </trkpt>
      <trkpt lat="29.09672" lon="-13.67968">
        <ele>28.6</ele>
        <time>2021-07-03 18:55:26</time>
      </trkpt>
      <trkpt lat="29.0967" lon="-13.67974">
        <ele>28.6</ele>
        <time>2021-07-03 18:55:27</time>
      </trkpt>
      <trkpt lat="29.09668" lon="-13.67979">
        <ele>28.6</ele>
        <time>2021-07-03 18:55:28</time>
      </trkpt>
      <trkpt lat="29.09667" lon="-13.67984">
        <ele>28.6</ele>
        <time>2021-07-03 18:55:29</time>
      </trkpt>
      <trkpt lat="29.09666" lon="-13.67989">
        <ele>28.6</ele>
        <time>2021-07-03 18:55:30</time>
      </trkpt>
      <trkpt lat="29.09664" lon="-13.67993">
        <ele>28.6</ele>
        <time>2021-07-03 18:55:31</time>
      </trkpt>
      <trkpt lat="29.09662" lon="-13.67998">
        <ele>28.6</ele>
        <time>2021-07-03 18:55:32</time>
      </trkpt>
      <trkpt lat="29.09661" lon="-13.68002">
        <ele>28.6</ele>
        <time>2021-07-03 18:55:33</time>
      </trkpt>
      <trkpt lat="29.09659" lon="-13.68005">
        <ele>28.6</ele>
        <time>2021-07-03 18:55:34</time>
      </trkpt>
      <trkpt lat="29.09656" lon="-13.68009">
        <ele>28.8</ele>
        <time>2021-07-03 18:55:35</time>
      </trkpt>
      <trkpt lat="29.09653" lon="-13.68012">
        <ele>28.8</ele>
        <time>2021-07-03 18:55:36</time>
      </trkpt>
      <trkpt lat="29.0965" lon="-13.68015">
        <ele>28.8</ele>
        <time>2021-07-03 18:55:37</time>
      </trkpt>
      <trkpt lat="29.09647" lon="-13.68018">
        <ele>29</ele>
        <time>2021-07-03 18:55:38</time>
      </trkpt>
      <trkpt lat="29.09643" lon="-13.6802">
        <ele>29</ele>
        <time>2021-07-03 18:55:39</time>
      </trkpt>
      <trkpt lat="29.09639" lon="-13.68022">
        <ele>29</ele>
        <time>2021-07-03 18:55:40</time>
      </trkpt>
      <trkpt lat="29.09635" lon="-13.68024">
        <ele>29</ele>
        <time>2021-07-03 18:55:41</time>
      </trkpt>
      <trkpt lat="29.09631" lon="-13.68026">
        <ele>29</ele>
        <time>2021-07-03 18:55:42</time>
      </trkpt>
      <trkpt lat="29.09627" lon="-13.68027">
        <ele>29</ele>
        <time>2021-07-03 18:55:43</time>
      </trkpt>
      <trkpt lat="29.09623" lon="-13.68029">
        <ele>29</ele>
        <time>2021-07-03 18:55:44</time>
      </trkpt>
      <trkpt lat="29.09619" lon="-13.68031">
        <ele>29</ele>
        <time>2021-07-03 18:55:45</time>
      </trkpt>
      <trkpt lat="29.09614" lon="-13.68032">
        <ele>29</ele>
        <time>2021-07-03 18:55:46</time>
      </trkpt>
      <trkpt lat="29.0961" lon="-13.68034">
        <ele>29</ele>
        <time>2021-07-03 18:55:47</time>
      </trkpt>
      <trkpt lat="29.09606" lon="-13.68037">
        <ele>29</ele>
        <time>2021-07-03 18:55:48</time>
      </trkpt>
      <trkpt lat="29.09602" lon="-13.68039">
        <ele>29</ele>
        <time>2021-07-03 18:55:49</time>
      </trkpt>
      <trkpt lat="29.09598" lon="-13.68042">
        <ele>29.2</ele>
        <time>2021-07-03 18:55:50</time>
      </trkpt>
      <trkpt lat="29.09594" lon="-13.68045">
        <ele>29.2</ele>
        <time>2021-07-03 18:55:51</time>
      </trkpt>
      <trkpt lat="29.09591" lon="-13.68048">
        <ele>29.2</ele>
        <time>2021-07-03 18:55:52</time>
      </trkpt>
      <trkpt lat="29.09587" lon="-13.68051">
        <ele>29.2</ele>
        <time>2021-07-03 18:55:53</time>
      </trkpt>
      <trkpt lat="29.09583" lon="-13.68054">
        <ele>29.2</ele>
        <time>2021-07-03 18:55:54</time>
      </trkpt>
      <trkpt lat="29.0958" lon="-13.68057">
        <ele>29.2</ele>
        <time>2021-07-03 18:55:55</time>
      </trkpt>
      <trkpt lat="29.09576" lon="-13.6806">
        <ele>29.6</ele>
        <time>2021-07-03 18:55:56</time>
      </trkpt>
      <trkpt lat="29.09573" lon="-13.68064">
        <ele>29.6</ele>
        <time>2021-07-03 18:55:57</time>
      </trkpt>
      <trkpt lat="29.0957" lon="-13.68067">
        <ele>29.6</ele>
        <time>2021-07-03 18:55:58</time>
      </trkpt>
      <trkpt lat="29.09566" lon="-13.6807">
        <ele>29.6</ele>
        <time>2021-07-03 18:55:59</time>
      </trkpt>
      <trkpt lat="29.09563" lon="-13.68074">
        <ele>29.6</ele>
        <time>2021-07-03 18:56:00</time>
      </trkpt>
      <trkpt lat="29.0956" lon="-13.68077">
        <ele>29.6</ele>
        <time>2021-07-03 18:56:01</time>
      </trkpt>
      <trkpt lat="29.09557" lon="-13.68082">
        <ele>29.6</ele>
        <time>2021-07-03 18:56:02</time>
      </trkpt>
      <trkpt lat="29.09555" lon="-13.68088">
        <ele>29.6</ele>
        <time>2021-07-03 18:56:03</time>
      </trkpt>
      <trkpt lat="29.09552" lon="-13.68093">
        <ele>29.2</ele>
        <time>2021-07-03 18:56:04</time>
      </trkpt>
      <trkpt lat="29.09549" lon="-13.68098">
        <ele>29.2</ele>
        <time>2021-07-03 18:56:05</time>
      </trkpt>
      <trkpt lat="29.09544" lon="-13.68103">
        <ele>28.8</ele>
        <time>2021-07-03 18:56:06</time>
      </trkpt>
      <trkpt lat="29.09538" lon="-13.68108">
        <ele>28.4</ele>
        <time>2021-07-03 18:56:07</time>
      </trkpt>
      <trkpt lat="29.09531" lon="-13.68113">
        <ele>28</ele>
        <time>2021-07-03 18:56:08</time>
      </trkpt>
      <trkpt lat="29.09524" lon="-13.68117">
        <ele>27.6</ele>
        <time>2021-07-03 18:56:09</time>
      </trkpt>
      <trkpt lat="29.09516" lon="-13.68121">
        <ele>27.2</ele>
        <time>2021-07-03 18:56:10</time>
      </trkpt>
      <trkpt lat="29.0951" lon="-13.68124">
        <ele>27.2</ele>
        <time>2021-07-03 18:56:11</time>
      </trkpt>
      <trkpt lat="29.09504" lon="-13.68125">
        <ele>27</ele>
        <time>2021-07-03 18:56:12</time>
      </trkpt>
      <trkpt lat="29.095" lon="-13.68125">
        <ele>27</ele>
        <time>2021-07-03 18:56:13</time>
      </trkpt>
      <trkpt lat="29.09495" lon="-13.68125">
        <ele>27</ele>
        <time>2021-07-03 18:56:14</time>
      </trkpt>
      <trkpt lat="29.09492" lon="-13.68123">
        <ele>27.2</ele>
        <time>2021-07-03 18:56:15</time>
      </trkpt>
      <trkpt lat="29.09488" lon="-13.68122">
        <ele>27.2</ele>
        <time>2021-07-03 18:56:16</time>
      </trkpt>
      <trkpt lat="29.09484" lon="-13.68121">
        <ele>27.6</ele>
        <time>2021-07-03 18:56:17</time>
      </trkpt>
      <trkpt lat="29.09481" lon="-13.6812">
        <ele>27.6</ele>
        <time>2021-07-03 18:56:18</time>
      </trkpt>
      <trkpt lat="29.09478" lon="-13.6812">
        <ele>28</ele>
        <time>2021-07-03 18:56:19</time>
      </trkpt>
      <trkpt lat="29.09475" lon="-13.68119">
        <ele>28.2</ele>
        <time>2021-07-03 18:56:20</time>
      </trkpt>
      <trkpt lat="29.09473" lon="-13.68118">
        <ele>28.2</ele>
        <time>2021-07-03 18:56:21</time>
      </trkpt>
      <trkpt lat="29.0947" lon="-13.68117">
        <ele>28.6</ele>
        <time>2021-07-03 18:56:22</time>
      </trkpt>
      <trkpt lat="29.09467" lon="-13.68115">
        <ele>28.6</ele>
        <time>2021-07-03 18:56:23</time>
      </trkpt>
      <trkpt lat="29.09464" lon="-13.68113">
        <ele>28.8</ele>
        <time>2021-07-03 18:56:24</time>
      </trkpt>
      <trkpt lat="29.09461" lon="-13.68112">
        <ele>28.8</ele>
        <time>2021-07-03 18:56:25</time>
      </trkpt>
      <trkpt lat="29.09459" lon="-13.68111">
        <ele>29.2</ele>
        <time>2021-07-03 18:56:26</time>
      </trkpt>
      <trkpt lat="29.09456" lon="-13.6811">
        <ele>29.4</ele>
        <time>2021-07-03 18:56:27</time>
      </trkpt>
      <trkpt lat="29.09453" lon="-13.6811">
        <ele>29.4</ele>
        <time>2021-07-03 18:56:28</time>
      </trkpt>
      <trkpt lat="29.0945" lon="-13.6811">
        <ele>29.6</ele>
        <time>2021-07-03 18:56:29</time>
      </trkpt>
      <trkpt lat="29.09446" lon="-13.6811">
        <ele>29.6</ele>
        <time>2021-07-03 18:56:30</time>
      </trkpt>
      <trkpt lat="29.09443" lon="-13.68111">
        <ele>29.6</ele>
        <time>2021-07-03 18:56:31</time>
      </trkpt>
      <trkpt lat="29.0944" lon="-13.68112">
        <ele>30</ele>
        <time>2021-07-03 18:56:32</time>
      </trkpt>
      <trkpt lat="29.09436" lon="-13.68113">
        <ele>30</ele>
        <time>2021-07-03 18:56:33</time>
      </trkpt>
      <trkpt lat="29.09434" lon="-13.68114">
        <ele>30.2</ele>
        <time>2021-07-03 18:56:34</time>
      </trkpt>
      <trkpt lat="29.09431" lon="-13.68116">
        <ele>30.2</ele>
        <time>2021-07-03 18:56:35</time>
      </trkpt>
      <trkpt lat="29.09428" lon="-13.68118">
        <ele>30.4</ele>
        <time>2021-07-03 18:56:36</time>
      </trkpt>
      <trkpt lat="29.09426" lon="-13.6812">
        <ele>30.4</ele>
        <time>2021-07-03 18:56:37</time>
      </trkpt>
      <trkpt lat="29.09423" lon="-13.68122">
        <ele>30.8</ele>
        <time>2021-07-03 18:56:38</time>
      </trkpt>
      <trkpt lat="29.09421" lon="-13.68125">
        <ele>31</ele>
        <time>2021-07-03 18:56:39</time>
      </trkpt>
      <trkpt lat="29.09419" lon="-13.68128">
        <ele>31.2</ele>
        <time>2021-07-03 18:56:40</time>
      </trkpt>
      <trkpt lat="29.09417" lon="-13.68131">
        <ele>31.2</ele>
        <time>2021-07-03 18:56:41</time>
      </trkpt>
      <trkpt lat="29.09416" lon="-13.68134">
        <ele>31.6</ele>
        <time>2021-07-03 18:56:42</time>
      </trkpt>
      <trkpt lat="29.09414" lon="-13.68137">
        <ele>31.6</ele>
        <time>2021-07-03 18:56:43</time>
      </trkpt>
      <trkpt lat="29.09413" lon="-13.6814">
        <ele>31.8</ele>
        <time>2021-07-03 18:56:44</time>
      </trkpt>
      <trkpt lat="29.09411" lon="-13.68143">
        <ele>31.8</ele>
        <time>2021-07-03 18:56:45</time>
      </trkpt>
      <trkpt lat="29.09409" lon="-13.68146">
        <ele>32.2</ele>
        <time>2021-07-03 18:56:46</time>
      </trkpt>
      <trkpt lat="29.09407" lon="-13.68149">
        <ele>32.2</ele>
        <time>2021-07-03 18:56:47</time>
      </trkpt>
      <trkpt lat="29.09405" lon="-13.68152">
        <ele>32.4</ele>
        <time>2021-07-03 18:56:48</time>
      </trkpt>
      <trkpt lat="29.09403" lon="-13.68154">
        <ele>32.4</ele>
        <time>2021-07-03 18:56:49</time>
      </trkpt>
      <trkpt lat="29.094" lon="-13.68157">
        <ele>32.6</ele>
        <time>2021-07-03 18:56:50</time>
      </trkpt>
      <trkpt lat="29.09397" lon="-13.68159">
        <ele>32.6</ele>
        <time>2021-07-03 18:56:51</time>
      </trkpt>
      <trkpt lat="29.09395" lon="-13.68162">
        <ele>32.6</ele>
        <time>2021-07-03 18:56:52</time>
      </trkpt>
      <trkpt lat="29.09392" lon="-13.68165">
        <ele>32.6</ele>
        <time>2021-07-03 18:56:53</time>
      </trkpt>
      <trkpt lat="29.0939" lon="-13.68167">
        <ele>33</ele>
        <time>2021-07-03 18:56:54</time>
      </trkpt>
      <trkpt lat="29.09387" lon="-13.6817">
        <ele>33</ele>
        <time>2021-07-03 18:56:55</time>
      </trkpt>
      <trkpt lat="29.09384" lon="-13.68172">
        <ele>33</ele>
        <time>2021-07-03 18:56:56</time>
      </trkpt>
      <trkpt lat="29.09381" lon="-13.68176">
        <ele>33</ele>
        <time>2021-07-03 18:56:57</time>
      </trkpt>
      <trkpt lat="29.09379" lon="-13.68179">
        <ele>33.2</ele>
        <time>2021-07-03 18:56:58</time>
      </trkpt>
      <trkpt lat="29.09376" lon="-13.68182">
        <ele>33.2</ele>
        <time>2021-07-03 18:56:59</time>
      </trkpt>
      <trkpt lat="29.09374" lon="-13.68185">
        <ele>33.2</ele>
        <time>2021-07-03 18:57:00</time>
      </trkpt>
      <trkpt lat="29.09371" lon="-13.68188">
        <ele>33.2</ele>
        <time>2021-07-03 18:57:01</time>
      </trkpt>
      <trkpt lat="29.09369" lon="-13.68191">
        <ele>33.2</ele>
        <time>2021-07-03 18:57:02</time>
      </trkpt>
      <trkpt lat="29.09367" lon="-13.68194">
        <ele>33.2</ele>
        <time>2021-07-03 18:57:03</time>
      </trkpt>
      <trkpt lat="29.09364" lon="-13.68197">
        <ele>33.2</ele>
        <time>2021-07-03 18:57:04</time>
      </trkpt>
      <trkpt lat="29.09362" lon="-13.68199">
        <ele>33.4</ele>
        <time>2021-07-03 18:57:05</time>
      </trkpt>
      <trkpt lat="29.09361" lon="-13.68202">
        <ele>33.4</ele>
        <time>2021-07-03 18:57:06</time>
      </trkpt>
      <trkpt lat="29.09359" lon="-13.68205">
        <ele>33.8</ele>
        <time>2021-07-03 18:57:07</time>
      </trkpt>
      <trkpt lat="29.09357" lon="-13.68207">
        <ele>34.2</ele>
        <time>2021-07-03 18:57:08</time>
      </trkpt>
      <trkpt lat="29.09356" lon="-13.6821">
        <ele>34.2</ele>
        <time>2021-07-03 18:57:09</time>
      </trkpt>
      <trkpt lat="29.09354" lon="-13.68213">
        <ele>34.6</ele>
        <time>2021-07-03 18:57:10</time>
      </trkpt>
      <trkpt lat="29.09353" lon="-13.68215">
        <ele>35</ele>
        <time>2021-07-03 18:57:11</time>
      </trkpt>
      <trkpt lat="29.09352" lon="-13.68217">
        <ele>35.2</ele>
        <time>2021-07-03 18:57:12</time>
      </trkpt>
      <trkpt lat="29.09351" lon="-13.68219">
        <ele>35.2</ele>
        <time>2021-07-03 18:57:13</time>
      </trkpt>
      <trkpt lat="29.09349" lon="-13.68222">
        <ele>35.4</ele>
        <time>2021-07-03 18:57:14</time>
      </trkpt>
      <trkpt lat="29.09348" lon="-13.68225">
        <ele>35.4</ele>
        <time>2021-07-03 18:57:15</time>
      </trkpt>
      <trkpt lat="29.09346" lon="-13.68228">
        <ele>35.4</ele>
        <time>2021-07-03 18:57:16</time>
      </trkpt>
      <trkpt lat="29.09344" lon="-13.68232">
        <ele>35.8</ele>
        <time>2021-07-03 18:57:17</time>
      </trkpt>
      <trkpt lat="29.09342" lon="-13.68235">
        <ele>35.8</ele>
        <time>2021-07-03 18:57:18</time>
      </trkpt>
      <trkpt lat="29.09339" lon="-13.68238">
        <ele>35.8</ele>
        <time>2021-07-03 18:57:19</time>
      </trkpt>
      <trkpt lat="29.09338" lon="-13.68242">
        <ele>35.8</ele>
        <time>2021-07-03 18:57:20</time>
      </trkpt>
      <trkpt lat="29.09336" lon="-13.68248">
        <ele>35.4</ele>
        <time>2021-07-03 18:57:21</time>
      </trkpt>
      <trkpt lat="29.09334" lon="-13.68253">
        <ele>35.4</ele>
        <time>2021-07-03 18:57:22</time>
      </trkpt>
      <trkpt lat="29.09332" lon="-13.68259">
        <ele>35.2</ele>
        <time>2021-07-03 18:57:23</time>
      </trkpt>
      <trkpt lat="29.09331" lon="-13.68264">
        <ele>35.2</ele>
        <time>2021-07-03 18:57:24</time>
      </trkpt>
      <trkpt lat="29.09329" lon="-13.68268">
        <ele>35.2</ele>
        <time>2021-07-03 18:57:25</time>
      </trkpt>
      <trkpt lat="29.09328" lon="-13.68272">
        <ele>35.2</ele>
        <time>2021-07-03 18:57:26</time>
      </trkpt>
      <trkpt lat="29.09327" lon="-13.68277">
        <ele>35.2</ele>
        <time>2021-07-03 18:57:27</time>
      </trkpt>
      <trkpt lat="29.09325" lon="-13.68281">
        <ele>35.2</ele>
        <time>2021-07-03 18:57:28</time>
      </trkpt>
      <trkpt lat="29.09325" lon="-13.68285">
        <ele>35.2</ele>
        <time>2021-07-03 18:57:29</time>
      </trkpt>
      <trkpt lat="29.09325" lon="-13.68288">
        <ele>35.4</ele>
        <time>2021-07-03 18:57:30</time>
      </trkpt>
      <trkpt lat="29.09325" lon="-13.68291">
        <ele>35.4</ele>
        <time>2021-07-03 18:57:31</time>
      </trkpt>
      <trkpt lat="29.09324" lon="-13.68294">
        <ele>35.4</ele>
        <time>2021-07-03 18:57:32</time>
      </trkpt>
      <trkpt lat="29.09324" lon="-13.68298">
        <ele>35.4</ele>
        <time>2021-07-03 18:57:33</time>
      </trkpt>
      <trkpt lat="29.09324" lon="-13.68303">
        <ele>35.6</ele>
        <time>2021-07-03 18:57:34</time>
      </trkpt>
      <trkpt lat="29.09325" lon="-13.68309">
        <ele>35.6</ele>
        <time>2021-07-03 18:57:35</time>
      </trkpt>
      <trkpt lat="29.09326" lon="-13.68316">
        <ele>35.2</ele>
        <time>2021-07-03 18:57:36</time>
      </trkpt>
      <trkpt lat="29.09326" lon="-13.68323">
        <ele>35</ele>
        <time>2021-07-03 18:57:37</time>
      </trkpt>
      <trkpt lat="29.09325" lon="-13.68332">
        <ele>34.6</ele>
        <time>2021-07-03 18:57:38</time>
      </trkpt>
      <trkpt lat="29.09324" lon="-13.6834">
        <ele>34.4</ele>
        <time>2021-07-03 18:57:39</time>
      </trkpt>
      <trkpt lat="29.09322" lon="-13.68346">
        <ele>34.2</ele>
        <time>2021-07-03 18:57:40</time>
      </trkpt>
      <trkpt lat="29.0932" lon="-13.68352">
        <ele>34.2</ele>
        <time>2021-07-03 18:57:41</time>
      </trkpt>
      <trkpt lat="29.09318" lon="-13.68358">
        <ele>34</ele>
        <time>2021-07-03 18:57:42</time>
      </trkpt>
      <trkpt lat="29.09316" lon="-13.68363">
        <ele>34</ele>
        <time>2021-07-03 18:57:43</time>
      </trkpt>
      <trkpt lat="29.09314" lon="-13.68368">
        <ele>34</ele>
        <time>2021-07-03 18:57:44</time>
      </trkpt>
      <trkpt lat="29.09311" lon="-13.68372">
        <ele>34</ele>
        <time>2021-07-03 18:57:45</time>
      </trkpt>
      <trkpt lat="29.09309" lon="-13.68377">
        <ele>34</ele>
        <time>2021-07-03 18:57:46</time>
      </trkpt>
      <trkpt lat="29.09307" lon="-13.68382">
        <ele>34</ele>
        <time>2021-07-03 18:57:47</time>
      </trkpt>
      <trkpt lat="29.09305" lon="-13.68386">
        <ele>34</ele>
        <time>2021-07-03 18:57:48</time>
      </trkpt>
      <trkpt lat="29.09302" lon="-13.6839">
        <ele>34</ele>
        <time>2021-07-03 18:57:49</time>
      </trkpt>
      <trkpt lat="29.09299" lon="-13.68395">
        <ele>34</ele>
        <time>2021-07-03 18:57:50</time>
      </trkpt>
      <trkpt lat="29.09298" lon="-13.68399">
        <ele>34</ele>
        <time>2021-07-03 18:57:51</time>
      </trkpt>
      <trkpt lat="29.09296" lon="-13.68403">
        <ele>34</ele>
        <time>2021-07-03 18:57:52</time>
      </trkpt>
      <trkpt lat="29.09295" lon="-13.68409">
        <ele>33.8</ele>
        <time>2021-07-03 18:57:53</time>
      </trkpt>
      <trkpt lat="29.09294" lon="-13.68415">
        <ele>33.8</ele>
        <time>2021-07-03 18:57:54</time>
      </trkpt>
      <trkpt lat="29.09293" lon="-13.6842">
        <ele>33.8</ele>
        <time>2021-07-03 18:57:55</time>
      </trkpt>
      <trkpt lat="29.09293" lon="-13.68425">
        <ele>33.8</ele>
        <time>2021-07-03 18:57:56</time>
      </trkpt>
      <trkpt lat="29.09292" lon="-13.6843">
        <ele>34</ele>
        <time>2021-07-03 18:57:57</time>
      </trkpt>
      <trkpt lat="29.09292" lon="-13.68434">
        <ele>34</ele>
        <time>2021-07-03 18:57:58</time>
      </trkpt>
      <trkpt lat="29.09293" lon="-13.68439">
        <ele>34.4</ele>
        <time>2021-07-03 18:57:59</time>
      </trkpt>
      <trkpt lat="29.09295" lon="-13.68443">
        <ele>34.4</ele>
        <time>2021-07-03 18:58:00</time>
      </trkpt>
      <trkpt lat="29.09296" lon="-13.68447">
        <ele>34.6</ele>
        <time>2021-07-03 18:58:01</time>
      </trkpt>
      <trkpt lat="29.09298" lon="-13.68452">
        <ele>34.6</ele>
        <time>2021-07-03 18:58:02</time>
      </trkpt>
      <trkpt lat="29.09301" lon="-13.68455">
        <ele>34.8</ele>
        <time>2021-07-03 18:58:03</time>
      </trkpt>
      <trkpt lat="29.09302" lon="-13.68458">
        <ele>35.2</ele>
        <time>2021-07-03 18:58:04</time>
      </trkpt>
      <trkpt lat="29.09302" lon="-13.6846">
        <ele>35.2</ele>
        <time>2021-07-03 18:58:05</time>
      </trkpt>
      <trkpt lat="29.09301" lon="-13.68464">
        <ele>35.2</ele>
        <time>2021-07-03 18:58:06</time>
      </trkpt>
      <trkpt lat="29.093" lon="-13.68468">
        <ele>35.2</ele>
        <time>2021-07-03 18:58:07</time>
      </trkpt>
      <trkpt lat="29.09297" lon="-13.68472">
        <ele>35.2</ele>
        <time>2021-07-03 18:58:08</time>
      </trkpt>
      <trkpt lat="29.09294" lon="-13.68474">
        <ele>35.2</ele>
        <time>2021-07-03 18:58:09</time>
      </trkpt>
      <trkpt lat="29.0929" lon="-13.68475">
        <ele>35.2</ele>
        <time>2021-07-03 18:58:10</time>
      </trkpt>
      <trkpt lat="29.09287" lon="-13.68475">
        <ele>35.2</ele>
        <time>2021-07-03 18:58:11</time>
      </trkpt>
      <trkpt lat="29.09284" lon="-13.68475">
        <ele>35.4</ele>
        <time>2021-07-03 18:58:12</time>
      </trkpt>
      <trkpt lat="29.09281" lon="-13.68476">
        <ele>35.4</ele>
        <time>2021-07-03 18:58:13</time>
      </trkpt>
      <trkpt lat="29.09278" lon="-13.68475">
        <ele>35.4</ele>
        <time>2021-07-03 18:58:14</time>
      </trkpt>
      <trkpt lat="29.09275" lon="-13.68474">
        <ele>35.4</ele>
        <time>2021-07-03 18:58:15</time>
      </trkpt>
      <trkpt lat="29.09273" lon="-13.68473">
        <ele>34.8</ele>
        <time>2021-07-03 18:58:16</time>
      </trkpt>
      <trkpt lat="29.09271" lon="-13.68474">
        <ele>34.8</ele>
        <time>2021-07-03 18:58:17</time>
      </trkpt>
      <trkpt lat="29.09268" lon="-13.68474">
        <ele>34.8</ele>
        <time>2021-07-03 18:58:18</time>
      </trkpt>
      <trkpt lat="29.09266" lon="-13.68475">
        <ele>35.4</ele>
        <time>2021-07-03 18:58:19</time>
      </trkpt>
      <trkpt lat="29.09264" lon="-13.68475">
        <ele>35.6</ele>
        <time>2021-07-03 18:58:20</time>
      </trkpt>
      <trkpt lat="29.09261" lon="-13.68476">
        <ele>36</ele>
        <time>2021-07-03 18:58:21</time>
      </trkpt>
      <trkpt lat="29.09259" lon="-13.68477">
        <ele>36.2</ele>
        <time>2021-07-03 18:58:22</time>
      </trkpt>
      <trkpt lat="29.09256" lon="-13.68479">
        <ele>36.2</ele>
        <time>2021-07-03 18:58:23</time>
      </trkpt>
      <trkpt lat="29.09253" lon="-13.68482">
        <ele>36.4</ele>
        <time>2021-07-03 18:58:24</time>
      </trkpt>
      <trkpt lat="29.09251" lon="-13.68485">
        <ele>36.4</ele>
        <time>2021-07-03 18:58:25</time>
      </trkpt>
      <trkpt lat="29.09248" lon="-13.68488">
        <ele>36.4</ele>
        <time>2021-07-03 18:58:26</time>
      </trkpt>
      <trkpt lat="29.09246" lon="-13.68491">
        <ele>36.6</ele>
        <time>2021-07-03 18:58:27</time>
      </trkpt>
      <trkpt lat="29.09243" lon="-13.68494">
        <ele>36.6</ele>
        <time>2021-07-03 18:58:28</time>
      </trkpt>
      <trkpt lat="29.09242" lon="-13.685">
        <ele>36.6</ele>
        <time>2021-07-03 18:58:29</time>
      </trkpt>
      <trkpt lat="29.09242" lon="-13.68505">
        <ele>36.6</ele>
        <time>2021-07-03 18:58:30</time>
      </trkpt>
      <trkpt lat="29.09241" lon="-13.68509">
        <ele>36.6</ele>
        <time>2021-07-03 18:58:31</time>
      </trkpt>
      <trkpt lat="29.09241" lon="-13.68514">
        <ele>36.6</ele>
        <time>2021-07-03 18:58:32</time>
      </trkpt>
      <trkpt lat="29.09241" lon="-13.68519">
        <ele>37</ele>
        <time>2021-07-03 18:58:33</time>
      </trkpt>
      <trkpt lat="29.09239" lon="-13.68524">
        <ele>37</ele>
        <time>2021-07-03 18:58:34</time>
      </trkpt>
      <trkpt lat="29.09238" lon="-13.68528">
        <ele>37.2</ele>
        <time>2021-07-03 18:58:35</time>
      </trkpt>
      <trkpt lat="29.09236" lon="-13.68533">
        <ele>37.2</ele>
        <time>2021-07-03 18:58:36</time>
      </trkpt>
      <trkpt lat="29.09234" lon="-13.68537">
        <ele>37.2</ele>
        <time>2021-07-03 18:58:37</time>
      </trkpt>
      <trkpt lat="29.09232" lon="-13.68541">
        <ele>37.2</ele>
        <time>2021-07-03 18:58:38</time>
      </trkpt>
      <trkpt lat="29.0923" lon="-13.68545">
        <ele>37.2</ele>
        <time>2021-07-03 18:58:39</time>
      </trkpt>
      <trkpt lat="29.09229" lon="-13.6855">
        <ele>37.2</ele>
        <time>2021-07-03 18:58:40</time>
      </trkpt>
      <trkpt lat="29.09229" lon="-13.68555">
        <ele>37.6</ele>
        <time>2021-07-03 18:58:41</time>
      </trkpt>
      <trkpt lat="29.09229" lon="-13.6856">
        <ele>37.6</ele>
        <time>2021-07-03 18:58:42</time>
      </trkpt>
      <trkpt lat="29.09227" lon="-13.68565">
        <ele>37.6</ele>
        <time>2021-07-03 18:58:43</time>
      </trkpt>
      <trkpt lat="29.09226" lon="-13.68569">
        <ele>37.8</ele>
        <time>2021-07-03 18:58:44</time>
      </trkpt>
      <trkpt lat="29.09227" lon="-13.68574">
        <ele>37.8</ele>
        <time>2021-07-03 18:58:45</time>
      </trkpt>
      <trkpt lat="29.09226" lon="-13.6858">
        <ele>37.8</ele>
        <time>2021-07-03 18:58:46</time>
      </trkpt>
      <trkpt lat="29.09227" lon="-13.68585">
        <ele>37.8</ele>
        <time>2021-07-03 18:58:47</time>
      </trkpt>
      <trkpt lat="29.09229" lon="-13.68589">
        <ele>37.8</ele>
        <time>2021-07-03 18:58:48</time>
      </trkpt>
      <trkpt lat="29.09231" lon="-13.68594">
        <ele>37.8</ele>
        <time>2021-07-03 18:58:49</time>
      </trkpt>
      <trkpt lat="29.09231" lon="-13.68599">
        <ele>37.8</ele>
        <time>2021-07-03 18:58:50</time>
      </trkpt>
      <trkpt lat="29.09232" lon="-13.68604">
        <ele>37.8</ele>
        <time>2021-07-03 18:58:51</time>
      </trkpt>
      <trkpt lat="29.0923" lon="-13.68609">
        <ele>37.8</ele>
        <time>2021-07-03 18:58:52</time>
      </trkpt>
      <trkpt lat="29.09228" lon="-13.68613">
        <ele>37.8</ele>
        <time>2021-07-03 18:58:53</time>
      </trkpt>
      <trkpt lat="29.09224" lon="-13.68614">
        <ele>37.4</ele>
        <time>2021-07-03 18:58:54</time>
      </trkpt>
      <trkpt lat="29.09219" lon="-13.68616">
        <ele>37.2</ele>
        <time>2021-07-03 18:58:55</time>
      </trkpt>
      <trkpt lat="29.09215" lon="-13.68614">
        <ele>37.2</ele>
        <time>2021-07-03 18:58:56</time>
      </trkpt>
      <trkpt lat="29.09211" lon="-13.68613">
        <ele>37</ele>
        <time>2021-07-03 18:58:57</time>
      </trkpt>
      <trkpt lat="29.09207" lon="-13.68613">
        <ele>37</ele>
        <time>2021-07-03 18:58:58</time>
      </trkpt>
      <trkpt lat="29.09202" lon="-13.68612">
        <ele>36.6</ele>
        <time>2021-07-03 18:58:59</time>
      </trkpt>
      <trkpt lat="29.09197" lon="-13.68612">
        <ele>36.6</ele>
        <time>2021-07-03 18:59:00</time>
      </trkpt>
      <trkpt lat="29.09194" lon="-13.68612">
        <ele>36.6</ele>
        <time>2021-07-03 18:59:01</time>
      </trkpt>
      <trkpt lat="29.09191" lon="-13.68611">
        <ele>36.6</ele>
        <time>2021-07-03 18:59:02</time>
      </trkpt>
      <trkpt lat="29.09188" lon="-13.68611">
        <ele>36.6</ele>
        <time>2021-07-03 18:59:03</time>
      </trkpt>
      <trkpt lat="29.09186" lon="-13.68611">
        <ele>37</ele>
        <time>2021-07-03 18:59:04</time>
      </trkpt>
      <trkpt lat="29.09184" lon="-13.6861">
        <ele>37</ele>
        <time>2021-07-03 18:59:05</time>
      </trkpt>
      <trkpt lat="29.09182" lon="-13.6861">
        <ele>37.4</ele>
        <time>2021-07-03 18:59:06</time>
      </trkpt>
      <trkpt lat="29.0918" lon="-13.6861">
        <ele>37.6</ele>
        <time>2021-07-03 18:59:07</time>
      </trkpt>
      <trkpt lat="29.09178" lon="-13.68609">
        <ele>38</ele>
        <time>2021-07-03 18:59:08</time>
      </trkpt>
      <trkpt lat="29.09176" lon="-13.68609">
        <ele>38.4</ele>
        <time>2021-07-03 18:59:09</time>
      </trkpt>
      <trkpt lat="29.09174" lon="-13.68609">
        <ele>38.6</ele>
        <time>2021-07-03 18:59:10</time>
      </trkpt>
      <trkpt lat="29.09172" lon="-13.68609">
        <ele>39</ele>
        <time>2021-07-03 18:59:11</time>
      </trkpt>
      <trkpt lat="29.0917" lon="-13.68609">
        <ele>39.2</ele>
        <time>2021-07-03 18:59:12</time>
      </trkpt>
      <trkpt lat="29.09168" lon="-13.68609">
        <ele>39.6</ele>
        <time>2021-07-03 18:59:13</time>
      </trkpt>
      <trkpt lat="29.09166" lon="-13.68609">
        <ele>40</ele>
        <time>2021-07-03 18:59:14</time>
      </trkpt>
      <trkpt lat="29.09164" lon="-13.68608">
        <ele>40.2</ele>
        <time>2021-07-03 18:59:15</time>
      </trkpt>
      <trkpt lat="29.09162" lon="-13.68608">
        <ele>40.6</ele>
        <time>2021-07-03 18:59:16</time>
      </trkpt>
      <trkpt lat="29.0916" lon="-13.68608">
        <ele>40.8</ele>
        <time>2021-07-03 18:59:17</time>
      </trkpt>
      <trkpt lat="29.09157" lon="-13.68608">
        <ele>41.2</ele>
        <time>2021-07-03 18:59:18</time>
      </trkpt>
      <trkpt lat="29.09155" lon="-13.68607">
        <ele>41.4</ele>
        <time>2021-07-03 18:59:19</time>
      </trkpt>
      <trkpt lat="29.09153" lon="-13.68607">
        <ele>41.8</ele>
        <time>2021-07-03 18:59:20</time>
      </trkpt>
      <trkpt lat="29.0915" lon="-13.68607">
        <ele>42.2</ele>
        <time>2021-07-03 18:59:21</time>
      </trkpt>
      <trkpt lat="29.09148" lon="-13.68607">
        <ele>42.4</ele>
        <time>2021-07-03 18:59:22</time>
      </trkpt>
      <trkpt lat="29.09145" lon="-13.68606">
        <ele>42.6</ele>
        <time>2021-07-03 18:59:23</time>
      </trkpt>
      <trkpt lat="29.09143" lon="-13.68606">
        <ele>43</ele>
        <time>2021-07-03 18:59:24</time>
      </trkpt>
      <trkpt lat="29.09141" lon="-13.68605">
        <ele>43.2</ele>
        <time>2021-07-03 18:59:25</time>
      </trkpt>
      <trkpt lat="29.09138" lon="-13.68605">
        <ele>43.4</ele>
        <time>2021-07-03 18:59:26</time>
      </trkpt>
      <trkpt lat="29.09136" lon="-13.68605">
        <ele>43.4</ele>
        <time>2021-07-03 18:59:27</time>
      </trkpt>
      <trkpt lat="29.09134" lon="-13.68605">
        <ele>43.8</ele>
        <time>2021-07-03 18:59:28</time>
      </trkpt>
      <trkpt lat="29.09131" lon="-13.68605">
        <ele>43.8</ele>
        <time>2021-07-03 18:59:29</time>
      </trkpt>
      <trkpt lat="29.09129" lon="-13.68604">
        <ele>44.2</ele>
        <time>2021-07-03 18:59:30</time>
      </trkpt>
      <trkpt lat="29.09127" lon="-13.68604">
        <ele>44.2</ele>
        <time>2021-07-03 18:59:31</time>
      </trkpt>
      <trkpt lat="29.09124" lon="-13.68603">
        <ele>44.4</ele>
        <time>2021-07-03 18:59:32</time>
      </trkpt>
      <trkpt lat="29.09121" lon="-13.68602">
        <ele>44.4</ele>
        <time>2021-07-03 18:59:33</time>
      </trkpt>
      <trkpt lat="29.09118" lon="-13.68601">
        <ele>44.4</ele>
        <time>2021-07-03 18:59:34</time>
      </trkpt>
      <trkpt lat="29.09115" lon="-13.68601">
        <ele>44.6</ele>
        <time>2021-07-03 18:59:35</time>
      </trkpt>
      <trkpt lat="29.09112" lon="-13.68601">
        <ele>44.6</ele>
        <time>2021-07-03 18:59:36</time>
      </trkpt>
      <trkpt lat="29.0911" lon="-13.68601">
        <ele>44.6</ele>
        <time>2021-07-03 18:59:37</time>
      </trkpt>
      <trkpt lat="29.09107" lon="-13.686">
        <ele>44.8</ele>
        <time>2021-07-03 18:59:38</time>
      </trkpt>
      <trkpt lat="29.09104" lon="-13.686">
        <ele>44.8</ele>
        <time>2021-07-03 18:59:39</time>
      </trkpt>
      <trkpt lat="29.09101" lon="-13.686">
        <ele>45.2</ele>
        <time>2021-07-03 18:59:40</time>
      </trkpt>
      <trkpt lat="29.09098" lon="-13.686">
        <ele>45.2</ele>
        <time>2021-07-03 18:59:41</time>
      </trkpt>
      <trkpt lat="29.09096" lon="-13.68599">
        <ele>45.4</ele>
        <time>2021-07-03 18:59:42</time>
      </trkpt>
      <trkpt lat="29.09093" lon="-13.68599">
        <ele>45.4</ele>
        <time>2021-07-03 18:59:43</time>
      </trkpt>
      <trkpt lat="29.0909" lon="-13.68598">
        <ele>45.8</ele>
        <time>2021-07-03 18:59:44</time>
      </trkpt>
      <trkpt lat="29.09088" lon="-13.68598">
        <ele>45.8</ele>
        <time>2021-07-03 18:59:45</time>
      </trkpt>
      <trkpt lat="29.09085" lon="-13.68598">
        <ele>46.2</ele>
        <time>2021-07-03 18:59:46</time>
      </trkpt>
      <trkpt lat="29.09082" lon="-13.68597">
        <ele>46.4</ele>
        <time>2021-07-03 18:59:47</time>
      </trkpt>
      <trkpt lat="29.09079" lon="-13.68597">
        <ele>46.6</ele>
        <time>2021-07-03 18:59:48</time>
      </trkpt>
      <trkpt lat="29.09077" lon="-13.68597">
        <ele>46.6</ele>
        <time>2021-07-03 18:59:49</time>
      </trkpt>
      <trkpt lat="29.09074" lon="-13.68597">
        <ele>47</ele>
        <time>2021-07-03 18:59:50</time>
      </trkpt>
      <trkpt lat="29.09071" lon="-13.68596">
        <ele>47.2</ele>
        <time>2021-07-03 18:59:51</time>
      </trkpt>
      <trkpt lat="29.09069" lon="-13.68596">
        <ele>47.4</ele>
        <time>2021-07-03 18:59:52</time>
      </trkpt>
      <trkpt lat="29.09066" lon="-13.68595">
        <ele>47.6</ele>
        <time>2021-07-03 18:59:53</time>
      </trkpt>
      <trkpt lat="29.09064" lon="-13.68595">
        <ele>47.6</ele>
        <time>2021-07-03 18:59:54</time>
      </trkpt>
      <trkpt lat="29.09061" lon="-13.68594">
        <ele>48</ele>
        <time>2021-07-03 18:59:55</time>
      </trkpt>
      <trkpt lat="29.09058" lon="-13.68594">
        <ele>48</ele>
        <time>2021-07-03 18:59:56</time>
      </trkpt>
      <trkpt lat="29.09056" lon="-13.68593">
        <ele>48.4</ele>
        <time>2021-07-03 18:59:57</time>
      </trkpt>
      <trkpt lat="29.09053" lon="-13.68592">
        <ele>48.4</ele>
        <time>2021-07-03 18:59:58</time>
      </trkpt>
      <trkpt lat="29.0905" lon="-13.68592">
        <ele>48.8</ele>
        <time>2021-07-03 18:59:59</time>
      </trkpt>
      <trkpt lat="29.09047" lon="-13.68592">
        <ele>48.8</ele>
        <time>2021-07-03 19:00:00</time>
      </trkpt>
      <trkpt lat="29.09045" lon="-13.68591">
        <ele>49.2</ele>
        <time>2021-07-03 19:00:01</time>
      </trkpt>
      <trkpt lat="29.09042" lon="-13.68591">
        <ele>49.2</ele>
        <time>2021-07-03 19:00:02</time>
      </trkpt>
      <trkpt lat="29.09039" lon="-13.6859">
        <ele>49.4</ele>
        <time>2021-07-03 19:00:03</time>
      </trkpt>
      <trkpt lat="29.09037" lon="-13.6859">
        <ele>49.4</ele>
        <time>2021-07-03 19:00:04</time>
      </trkpt>
      <trkpt lat="29.09034" lon="-13.68589">
        <ele>49.8</ele>
        <time>2021-07-03 19:00:05</time>
      </trkpt>
      <trkpt lat="29.09031" lon="-13.68589">
        <ele>49.8</ele>
        <time>2021-07-03 19:00:06</time>
      </trkpt>
      <trkpt lat="29.09028" lon="-13.68589">
        <ele>49.8</ele>
        <time>2021-07-03 19:00:07</time>
      </trkpt>
      <trkpt lat="29.09025" lon="-13.68588">
        <ele>50</ele>
        <time>2021-07-03 19:00:08</time>
      </trkpt>
      <trkpt lat="29.09022" lon="-13.68588">
        <ele>50</ele>
        <time>2021-07-03 19:00:09</time>
      </trkpt>
      <trkpt lat="29.0902" lon="-13.68588">
        <ele>50</ele>
        <time>2021-07-03 19:00:10</time>
      </trkpt>
      <trkpt lat="29.09017" lon="-13.68588">
        <ele>50.2</ele>
        <time>2021-07-03 19:00:11</time>
      </trkpt>
      <trkpt lat="29.09014" lon="-13.68587">
        <ele>50.2</ele>
        <time>2021-07-03 19:00:12</time>
      </trkpt>
      <trkpt lat="29.09011" lon="-13.68586">
        <ele>50.4</ele>
        <time>2021-07-03 19:00:13</time>
      </trkpt>
      <trkpt lat="29.09008" lon="-13.68586">
        <ele>50.4</ele>
        <time>2021-07-03 19:00:14</time>
      </trkpt>
      <trkpt lat="29.09005" lon="-13.68586">
        <ele>50.4</ele>
        <time>2021-07-03 19:00:15</time>
      </trkpt>
      <trkpt lat="29.09003" lon="-13.68585">
        <ele>50.6</ele>
        <time>2021-07-03 19:00:16</time>
      </trkpt>
      <trkpt lat="29.09" lon="-13.68585">
        <ele>50.6</ele>
        <time>2021-07-03 19:00:17</time>
      </trkpt>
      <trkpt lat="29.08996" lon="-13.68585">
        <ele>50.6</ele>
        <time>2021-07-03 19:00:18</time>
      </trkpt>
      <trkpt lat="29.08993" lon="-13.68584">
        <ele>50.8</ele>
        <time>2021-07-03 19:00:19</time>
      </trkpt>
      <trkpt lat="29.0899" lon="-13.68584">
        <ele>50.8</ele>
        <time>2021-07-03 19:00:20</time>
      </trkpt>
      <trkpt lat="29.08988" lon="-13.68583">
        <ele>51.2</ele>
        <time>2021-07-03 19:00:21</time>
      </trkpt>
      <trkpt lat="29.08985" lon="-13.68582">
        <ele>51.2</ele>
        <time>2021-07-03 19:00:22</time>
      </trkpt>
      <trkpt lat="29.08982" lon="-13.68581">
        <ele>51.4</ele>
        <time>2021-07-03 19:00:23</time>
      </trkpt>
      <trkpt lat="29.08979" lon="-13.68581">
        <ele>51.4</ele>
        <time>2021-07-03 19:00:24</time>
      </trkpt>
      <trkpt lat="29.08977" lon="-13.68581">
        <ele>51.6</ele>
        <time>2021-07-03 19:00:25</time>
      </trkpt>
      <trkpt lat="29.08974" lon="-13.6858">
        <ele>51.6</ele>
        <time>2021-07-03 19:00:26</time>
      </trkpt>
      <trkpt lat="29.08972" lon="-13.6858">
        <ele>52</ele>
        <time>2021-07-03 19:00:27</time>
      </trkpt>
      <trkpt lat="29.0897" lon="-13.6858">
        <ele>52</ele>
        <time>2021-07-03 19:00:28</time>
      </trkpt>
      <trkpt lat="29.08968" lon="-13.68579">
        <ele>52.4</ele>
        <time>2021-07-03 19:00:29</time>
      </trkpt>
      <trkpt lat="29.08966" lon="-13.68579">
        <ele>52.8</ele>
        <time>2021-07-03 19:00:30</time>
      </trkpt>
      <trkpt lat="29.08964" lon="-13.68579">
        <ele>53.2</ele>
        <time>2021-07-03 19:00:31</time>
      </trkpt>
      <trkpt lat="29.08962" lon="-13.68579">
        <ele>53.4</ele>
        <time>2021-07-03 19:00:32</time>
      </trkpt>
      <trkpt lat="29.0896" lon="-13.6858">
        <ele>53.8</ele>
        <time>2021-07-03 19:00:33</time>
      </trkpt>
      <trkpt lat="29.08959" lon="-13.6858">
        <ele>54.2</ele>
        <time>2021-07-03 19:00:34</time>
      </trkpt>
      <trkpt lat="29.08957" lon="-13.6858">
        <ele>54.6</ele>
        <time>2021-07-03 19:00:35</time>
      </trkpt>
      <trkpt lat="29.08956" lon="-13.6858">
        <ele>55.2</ele>
        <time>2021-07-03 19:00:36</time>
      </trkpt>
      <trkpt lat="29.08954" lon="-13.68579">
        <ele>55.6</ele>
        <time>2021-07-03 19:00:37</time>
      </trkpt>
      <trkpt lat="29.08952" lon="-13.68579">
        <ele>55.8</ele>
        <time>2021-07-03 19:00:38</time>
      </trkpt>
      <trkpt lat="29.0895" lon="-13.68579">
        <ele>56.2</ele>
        <time>2021-07-03 19:00:39</time>
      </trkpt>
      <trkpt lat="29.08948" lon="-13.68579">
        <ele>56.4</ele>
        <time>2021-07-03 19:00:40</time>
      </trkpt>
      <trkpt lat="29.08945" lon="-13.68579">
        <ele>56.8</ele>
        <time>2021-07-03 19:00:41</time>
      </trkpt>
      <trkpt lat="29.08943" lon="-13.68579">
        <ele>57</ele>
        <time>2021-07-03 19:00:42</time>
      </trkpt>
      <trkpt lat="29.08941" lon="-13.68578">
        <ele>57.4</ele>
        <time>2021-07-03 19:00:43</time>
      </trkpt>
      <trkpt lat="29.08939" lon="-13.68578">
        <ele>57.4</ele>
        <time>2021-07-03 19:00:44</time>
      </trkpt>
      <trkpt lat="29.08936" lon="-13.68578">
        <ele>57.6</ele>
        <time>2021-07-03 19:00:45</time>
      </trkpt>
      <trkpt lat="29.08934" lon="-13.68579">
        <ele>58</ele>
        <time>2021-07-03 19:00:46</time>
      </trkpt>
      <trkpt lat="29.08931" lon="-13.68579">
        <ele>58</ele>
        <time>2021-07-03 19:00:47</time>
      </trkpt>
      <trkpt lat="29.08929" lon="-13.68579">
        <ele>58.4</ele>
        <time>2021-07-03 19:00:48</time>
      </trkpt>
      <trkpt lat="29.08927" lon="-13.68579">
        <ele>58.4</ele>
        <time>2021-07-03 19:00:49</time>
      </trkpt>
      <trkpt lat="29.08924" lon="-13.68578">
        <ele>58.6</ele>
        <time>2021-07-03 19:00:50</time>
      </trkpt>
      <trkpt lat="29.08922" lon="-13.68578">
        <ele>59</ele>
        <time>2021-07-03 19:00:51</time>
      </trkpt>
      <trkpt lat="29.08919" lon="-13.68577">
        <ele>59</ele>
        <time>2021-07-03 19:00:52</time>
      </trkpt>
      <trkpt lat="29.08916" lon="-13.68577">
        <ele>59.2</ele>
        <time>2021-07-03 19:00:53</time>
      </trkpt>
      <trkpt lat="29.08913" lon="-13.68577">
        <ele>59.2</ele>
        <time>2021-07-03 19:00:54</time>
      </trkpt>
      <trkpt lat="29.0891" lon="-13.68577">
        <ele>59.2</ele>
        <time>2021-07-03 19:00:55</time>
      </trkpt>
      <trkpt lat="29.08907" lon="-13.68577">
        <ele>59.2</ele>
        <time>2021-07-03 19:00:56</time>
      </trkpt>
      <trkpt lat="29.08903" lon="-13.68577">
        <ele>59.4</ele>
        <time>2021-07-03 19:00:57</time>
      </trkpt>
      <trkpt lat="29.089" lon="-13.68576">
        <ele>59.4</ele>
        <time>2021-07-03 19:00:58</time>
      </trkpt>
      <trkpt lat="29.08896" lon="-13.68576">
        <ele>59.4</ele>
        <time>2021-07-03 19:00:59</time>
      </trkpt>
      <trkpt lat="29.08893" lon="-13.68576">
        <ele>59.4</ele>
        <time>2021-07-03 19:01:00</time>
      </trkpt>
      <trkpt lat="29.08889" lon="-13.68575">
        <ele>59.4</ele>
        <time>2021-07-03 19:01:01</time>
      </trkpt>
      <trkpt lat="29.08885" lon="-13.68575">
        <ele>59.4</ele>
        <time>2021-07-03 19:01:02</time>
      </trkpt>
      <trkpt lat="29.08882" lon="-13.68576">
        <ele>59.4</ele>
        <time>2021-07-03 19:01:03</time>
      </trkpt>
      <trkpt lat="29.08878" lon="-13.68576">
        <ele>59.4</ele>
        <time>2021-07-03 19:01:04</time>
      </trkpt>
      <trkpt lat="29.08875" lon="-13.68576">
        <ele>59.4</ele>
        <time>2021-07-03 19:01:05</time>
      </trkpt>
      <trkpt lat="29.08872" lon="-13.68576">
        <ele>59.4</ele>
        <time>2021-07-03 19:01:06</time>
      </trkpt>
      <trkpt lat="29.08869" lon="-13.68576">
        <ele>59.4</ele>
        <time>2021-07-03 19:01:07</time>
      </trkpt>
      <trkpt lat="29.08866" lon="-13.68576">
        <ele>59.4</ele>
        <time>2021-07-03 19:01:08</time>
      </trkpt>
      <trkpt lat="29.08863" lon="-13.68577">
        <ele>59.4</ele>
        <time>2021-07-03 19:01:09</time>
      </trkpt>
      <trkpt lat="29.08859" lon="-13.68577">
        <ele>59.4</ele>
        <time>2021-07-03 19:01:10</time>
      </trkpt>
      <trkpt lat="29.08856" lon="-13.68577">
        <ele>59.4</ele>
        <time>2021-07-03 19:01:11</time>
      </trkpt>
      <trkpt lat="29.08853" lon="-13.68578">
        <ele>59.4</ele>
        <time>2021-07-03 19:01:12</time>
      </trkpt>
      <trkpt lat="29.0885" lon="-13.68578">
        <ele>59.4</ele>
        <time>2021-07-03 19:01:13</time>
      </trkpt>
      <trkpt lat="29.08846" lon="-13.68578">
        <ele>59.4</ele>
        <time>2021-07-03 19:01:14</time>
      </trkpt>
      <trkpt lat="29.08843" lon="-13.68578">
        <ele>59.4</ele>
        <time>2021-07-03 19:01:15</time>
      </trkpt>
      <trkpt lat="29.08839" lon="-13.68579">
        <ele>59.6</ele>
        <time>2021-07-03 19:01:16</time>
      </trkpt>
      <trkpt lat="29.08836" lon="-13.68579">
        <ele>59.6</ele>
        <time>2021-07-03 19:01:17</time>
      </trkpt>
      <trkpt lat="29.08832" lon="-13.68579">
        <ele>59.8</ele>
        <time>2021-07-03 19:01:18</time>
      </trkpt>
      <trkpt lat="29.08829" lon="-13.68579">
        <ele>59.8</ele>
        <time>2021-07-03 19:01:19</time>
      </trkpt>
      <trkpt lat="29.08826" lon="-13.6858">
        <ele>60</ele>
        <time>2021-07-03 19:01:20</time>
      </trkpt>
      <trkpt lat="29.08822" lon="-13.6858">
        <ele>60</ele>
        <time>2021-07-03 19:01:21</time>
      </trkpt>
      <trkpt lat="29.08819" lon="-13.6858">
        <ele>60.4</ele>
        <time>2021-07-03 19:01:22</time>
      </trkpt>
      <trkpt lat="29.08816" lon="-13.6858">
        <ele>60.8</ele>
        <time>2021-07-03 19:01:23</time>
      </trkpt>
      <trkpt lat="29.08813" lon="-13.6858">
        <ele>61</ele>
        <time>2021-07-03 19:01:24</time>
      </trkpt>
      <trkpt lat="29.0881" lon="-13.6858">
        <ele>61.2</ele>
        <time>2021-07-03 19:01:25</time>
      </trkpt>
      <trkpt lat="29.08808" lon="-13.68579">
        <ele>61.6</ele>
        <time>2021-07-03 19:01:26</time>
      </trkpt>
      <trkpt lat="29.08806" lon="-13.68578">
        <ele>61.8</ele>
        <time>2021-07-03 19:01:27</time>
      </trkpt>
      <trkpt lat="29.08803" lon="-13.68578">
        <ele>62.2</ele>
        <time>2021-07-03 19:01:28</time>
      </trkpt>
      <trkpt lat="29.08801" lon="-13.68578">
        <ele>62.4</ele>
        <time>2021-07-03 19:01:29</time>
      </trkpt>
      <trkpt lat="29.08799" lon="-13.68578">
        <ele>62.6</ele>
        <time>2021-07-03 19:01:30</time>
      </trkpt>
      <trkpt lat="29.08797" lon="-13.68578">
        <ele>63</ele>
        <time>2021-07-03 19:01:31</time>
      </trkpt>
      <trkpt lat="29.08794" lon="-13.68578">
        <ele>63.2</ele>
        <time>2021-07-03 19:01:32</time>
      </trkpt>
      <trkpt lat="29.08791" lon="-13.68579">
        <ele>63.2</ele>
        <time>2021-07-03 19:01:33</time>
      </trkpt>
      <trkpt lat="29.08789" lon="-13.68579">
        <ele>63.6</ele>
        <time>2021-07-03 19:01:34</time>
      </trkpt>
      <trkpt lat="29.08786" lon="-13.6858">
        <ele>63.6</ele>
        <time>2021-07-03 19:01:35</time>
      </trkpt>
      <trkpt lat="29.08783" lon="-13.68581">
        <ele>63.8</ele>
        <time>2021-07-03 19:01:36</time>
      </trkpt>
      <trkpt lat="29.0878" lon="-13.68582">
        <ele>63.8</ele>
        <time>2021-07-03 19:01:37</time>
      </trkpt>
      <trkpt lat="29.08778" lon="-13.68584">
        <ele>64.2</ele>
        <time>2021-07-03 19:01:38</time>
      </trkpt>
      <trkpt lat="29.08776" lon="-13.68587">
        <ele>64.2</ele>
        <time>2021-07-03 19:01:39</time>
      </trkpt>
      <trkpt lat="29.08774" lon="-13.6859">
        <ele>64.2</ele>
        <time>2021-07-03 19:01:40</time>
      </trkpt>
      <trkpt lat="29.08773" lon="-13.68594">
        <ele>64.4</ele>
        <time>2021-07-03 19:01:41</time>
      </trkpt>
      <trkpt lat="29.08773" lon="-13.68598">
        <ele>64.4</ele>
        <time>2021-07-03 19:01:42</time>
      </trkpt>
      <trkpt lat="29.08773" lon="-13.68602">
        <ele>64.4</ele>
        <time>2021-07-03 19:01:43</time>
      </trkpt>
      <trkpt lat="29.08774" lon="-13.68606">
        <ele>64.6</ele>
        <time>2021-07-03 19:01:44</time>
      </trkpt>
      <trkpt lat="29.08776" lon="-13.6861">
        <ele>64.6</ele>
        <time>2021-07-03 19:01:45</time>
      </trkpt>
      <trkpt lat="29.08778" lon="-13.68616">
        <ele>64.8</ele>
        <time>2021-07-03 19:01:46</time>
      </trkpt>
      <trkpt lat="29.08779" lon="-13.68621">
        <ele>64.8</ele>
        <time>2021-07-03 19:01:47</time>
      </trkpt>
      <trkpt lat="29.0878" lon="-13.68627">
        <ele>64.8</ele>
        <time>2021-07-03 19:01:48</time>
      </trkpt>
      <trkpt lat="29.0878" lon="-13.68633">
        <ele>64.8</ele>
        <time>2021-07-03 19:01:49</time>
      </trkpt>
      <trkpt lat="29.08781" lon="-13.68639">
        <ele>64.8</ele>
        <time>2021-07-03 19:01:50</time>
      </trkpt>
      <trkpt lat="29.08781" lon="-13.68644">
        <ele>64.8</ele>
        <time>2021-07-03 19:01:51</time>
      </trkpt>
      <trkpt lat="29.08781" lon="-13.6865">
        <ele>64.8</ele>
        <time>2021-07-03 19:01:52</time>
      </trkpt>
      <trkpt lat="29.08781" lon="-13.68654">
        <ele>64.8</ele>
        <time>2021-07-03 19:01:53</time>
      </trkpt>
      <trkpt lat="29.08782" lon="-13.68659">
        <ele>64.8</ele>
        <time>2021-07-03 19:01:54</time>
      </trkpt>
      <trkpt lat="29.08782" lon="-13.68663">
        <ele>64.8</ele>
        <time>2021-07-03 19:01:55</time>
      </trkpt>
      <trkpt lat="29.08782" lon="-13.68668">
        <ele>64.6</ele>
        <time>2021-07-03 19:01:56</time>
      </trkpt>
      <trkpt lat="29.08783" lon="-13.68672">
        <ele>64.6</ele>
        <time>2021-07-03 19:01:57</time>
      </trkpt>
      <trkpt lat="29.08783" lon="-13.68677">
        <ele>64.6</ele>
        <time>2021-07-03 19:01:58</time>
      </trkpt>
      <trkpt lat="29.08784" lon="-13.68682">
        <ele>64.6</ele>
        <time>2021-07-03 19:01:59</time>
      </trkpt>
      <trkpt lat="29.08785" lon="-13.68686">
        <ele>64.6</ele>
        <time>2021-07-03 19:02:00</time>
      </trkpt>
      <trkpt lat="29.08785" lon="-13.6869">
        <ele>64.8</ele>
        <time>2021-07-03 19:02:01</time>
      </trkpt>
      <trkpt lat="29.08786" lon="-13.68695">
        <ele>64.8</ele>
        <time>2021-07-03 19:02:02</time>
      </trkpt>
      <trkpt lat="29.08786" lon="-13.68699">
        <ele>64.8</ele>
        <time>2021-07-03 19:02:03</time>
      </trkpt>
      <trkpt lat="29.08787" lon="-13.68703">
        <ele>64.8</ele>
        <time>2021-07-03 19:02:04</time>
      </trkpt>
      <trkpt lat="29.08787" lon="-13.68708">
        <ele>65.2</ele>
        <time>2021-07-03 19:02:05</time>
      </trkpt>
      <trkpt lat="29.08787" lon="-13.68712">
        <ele>65.2</ele>
        <time>2021-07-03 19:02:06</time>
      </trkpt>
      <trkpt lat="29.08787" lon="-13.68717">
        <ele>65.2</ele>
        <time>2021-07-03 19:02:07</time>
      </trkpt>
      <trkpt lat="29.08786" lon="-13.68721">
        <ele>65.2</ele>
        <time>2021-07-03 19:02:08</time>
      </trkpt>
      <trkpt lat="29.08785" lon="-13.68724">
        <ele>65.4</ele>
        <time>2021-07-03 19:02:09</time>
      </trkpt>
      <trkpt lat="29.08783" lon="-13.68727">
        <ele>65.4</ele>
        <time>2021-07-03 19:02:10</time>
      </trkpt>
      <trkpt lat="29.0878" lon="-13.68729">
        <ele>65.4</ele>
        <time>2021-07-03 19:02:11</time>
      </trkpt>
      <trkpt lat="29.08777" lon="-13.68731">
        <ele>65.6</ele>
        <time>2021-07-03 19:02:12</time>
      </trkpt>
      <trkpt lat="29.08774" lon="-13.68732">
        <ele>65.6</ele>
        <time>2021-07-03 19:02:13</time>
      </trkpt>
      <trkpt lat="29.08772" lon="-13.68732">
        <ele>66</ele>
        <time>2021-07-03 19:02:14</time>
      </trkpt>
      <trkpt lat="29.08769" lon="-13.68733">
        <ele>66</ele>
        <time>2021-07-03 19:02:15</time>
      </trkpt>
      <trkpt lat="29.08767" lon="-13.68735">
        <ele>66.2</ele>
        <time>2021-07-03 19:02:16</time>
      </trkpt>
      <trkpt lat="29.08764" lon="-13.68737">
        <ele>66.2</ele>
        <time>2021-07-03 19:02:17</time>
      </trkpt>
      <trkpt lat="29.08761" lon="-13.68738">
        <ele>66.4</ele>
        <time>2021-07-03 19:02:18</time>
      </trkpt>
      <trkpt lat="29.08759" lon="-13.68739">
        <ele>66.4</ele>
        <time>2021-07-03 19:02:19</time>
      </trkpt>
      <trkpt lat="29.08756" lon="-13.68741">
        <ele>66.8</ele>
        <time>2021-07-03 19:02:20</time>
      </trkpt>
      <trkpt lat="29.08754" lon="-13.68742">
        <ele>67</ele>
        <time>2021-07-03 19:02:21</time>
      </trkpt>
      <trkpt lat="29.08751" lon="-13.68743">
        <ele>67.2</ele>
        <time>2021-07-03 19:02:22</time>
      </trkpt>
      <trkpt lat="29.08749" lon="-13.68745">
        <ele>67.6</ele>
        <time>2021-07-03 19:02:23</time>
      </trkpt>
      <trkpt lat="29.08747" lon="-13.68747">
        <ele>67.8</ele>
        <time>2021-07-03 19:02:24</time>
      </trkpt>
      <trkpt lat="29.08745" lon="-13.68748">
        <ele>68.2</ele>
        <time>2021-07-03 19:02:25</time>
      </trkpt>
      <trkpt lat="29.08742" lon="-13.6875">
        <ele>68.4</ele>
        <time>2021-07-03 19:02:26</time>
      </trkpt>
      <trkpt lat="29.08741" lon="-13.68751">
        <ele>68.8</ele>
        <time>2021-07-03 19:02:27</time>
      </trkpt>
      <trkpt lat="29.08739" lon="-13.68752">
        <ele>69</ele>
        <time>2021-07-03 19:02:28</time>
      </trkpt>
      <trkpt lat="29.08737" lon="-13.68753">
        <ele>69.2</ele>
        <time>2021-07-03 19:02:29</time>
      </trkpt>
      <trkpt lat="29.08736" lon="-13.68755">
        <ele>69.6</ele>
        <time>2021-07-03 19:02:30</time>
      </trkpt>
      <trkpt lat="29.08735" lon="-13.68757">
        <ele>69.8</ele>
        <time>2021-07-03 19:02:31</time>
      </trkpt>
      <trkpt lat="29.08734" lon="-13.68759">
        <ele>70</ele>
        <time>2021-07-03 19:02:32</time>
      </trkpt>
      <trkpt lat="29.08732" lon="-13.68762">
        <ele>70.2</ele>
        <time>2021-07-03 19:02:33</time>
      </trkpt>
      <trkpt lat="29.0873" lon="-13.68764">
        <ele>70.4</ele>
        <time>2021-07-03 19:02:34</time>
      </trkpt>
      <trkpt lat="29.08729" lon="-13.68767">
        <ele>70.8</ele>
        <time>2021-07-03 19:02:35</time>
      </trkpt>
      <trkpt lat="29.08728" lon="-13.68769">
        <ele>70.8</ele>
        <time>2021-07-03 19:02:36</time>
      </trkpt>
      <trkpt lat="29.08727" lon="-13.68771">
        <ele>71</ele>
        <time>2021-07-03 19:02:37</time>
      </trkpt>
      <trkpt lat="29.08725" lon="-13.68774">
        <ele>71</ele>
        <time>2021-07-03 19:02:38</time>
      </trkpt>
      <trkpt lat="29.08724" lon="-13.68776">
        <ele>71</ele>
        <time>2021-07-03 19:02:39</time>
      </trkpt>
      <trkpt lat="29.08723" lon="-13.68779">
        <ele>71.4</ele>
        <time>2021-07-03 19:02:40</time>
      </trkpt>
      <trkpt lat="29.08722" lon="-13.68783">
        <ele>71.4</ele>
        <time>2021-07-03 19:02:41</time>
      </trkpt>
      <trkpt lat="29.08721" lon="-13.68786">
        <ele>71.8</ele>
        <time>2021-07-03 19:02:42</time>
      </trkpt>
      <trkpt lat="29.0872" lon="-13.68788">
        <ele>71.8</ele>
        <time>2021-07-03 19:02:43</time>
      </trkpt>
      <trkpt lat="29.0872" lon="-13.6879">
        <ele>72.2</ele>
        <time>2021-07-03 19:02:44</time>
      </trkpt>
      <trkpt lat="29.08718" lon="-13.68792">
        <ele>72.2</ele>
        <time>2021-07-03 19:02:45</time>
      </trkpt>
      <trkpt lat="29.08717" lon="-13.68794">
        <ele>72.4</ele>
        <time>2021-07-03 19:02:46</time>
      </trkpt>
      <trkpt lat="29.08716" lon="-13.68795">
        <ele>72.4</ele>
        <time>2021-07-03 19:02:47</time>
      </trkpt>
      <trkpt lat="29.08714" lon="-13.68796">
        <ele>72.6</ele>
        <time>2021-07-03 19:02:48</time>
      </trkpt>
      <trkpt lat="29.08713" lon="-13.68797">
        <ele>72.6</ele>
        <time>2021-07-03 19:02:49</time>
      </trkpt>
      <trkpt lat="29.08712" lon="-13.68799">
        <ele>73</ele>
        <time>2021-07-03 19:02:50</time>
      </trkpt>
      <trkpt lat="29.08711" lon="-13.688">
        <ele>73</ele>
        <time>2021-07-03 19:02:51</time>
      </trkpt>
      <trkpt lat="29.08709" lon="-13.68802">
        <ele>73.2</ele>
        <time>2021-07-03 19:02:52</time>
      </trkpt>
      <trkpt lat="29.08708" lon="-13.68803">
        <ele>73.2</ele>
        <time>2021-07-03 19:02:53</time>
      </trkpt>
      <trkpt lat="29.08706" lon="-13.68805">
        <ele>73.4</ele>
        <time>2021-07-03 19:02:54</time>
      </trkpt>
      <trkpt lat="29.08705" lon="-13.68806">
        <ele>73.4</ele>
        <time>2021-07-03 19:02:55</time>
      </trkpt>
      <trkpt lat="29.08703" lon="-13.68808">
        <ele>73.6</ele>
        <time>2021-07-03 19:02:56</time>
      </trkpt>
      <trkpt lat="29.08701" lon="-13.68809">
        <ele>73.6</ele>
        <time>2021-07-03 19:02:57</time>
      </trkpt>
      <trkpt lat="29.08699" lon="-13.68811">
        <ele>73.6</ele>
        <time>2021-07-03 19:02:58</time>
      </trkpt>
      <trkpt lat="29.08698" lon="-13.68813">
        <ele>73.6</ele>
        <time>2021-07-03 19:02:59</time>
      </trkpt>
      <trkpt lat="29.08696" lon="-13.68814">
        <ele>73.6</ele>
        <time>2021-07-03 19:03:00</time>
      </trkpt>
      <trkpt lat="29.08694" lon="-13.68816">
        <ele>73.6</ele>
        <time>2021-07-03 19:03:01</time>
      </trkpt>
      <trkpt lat="29.08693" lon="-13.68819">
        <ele>73.6</ele>
        <time>2021-07-03 19:03:02</time>
      </trkpt>
      <trkpt lat="29.08692" lon="-13.68821">
        <ele>73.6</ele>
        <time>2021-07-03 19:03:03</time>
      </trkpt>
      <trkpt lat="29.08691" lon="-13.68824">
        <ele>73.8</ele>
        <time>2021-07-03 19:03:04</time>
      </trkpt>
      <trkpt lat="29.0869" lon="-13.68825">
        <ele>74.2</ele>
        <time>2021-07-03 19:03:05</time>
      </trkpt>
      <trkpt lat="29.08689" lon="-13.68826">
        <ele>74.2</ele>
        <time>2021-07-03 19:03:06</time>
      </trkpt>
      <trkpt lat="29.08688" lon="-13.68827">
        <ele>74.2</ele>
        <time>2021-07-03 19:03:07</time>
      </trkpt>
      <trkpt lat="29.08686" lon="-13.68828">
        <ele>74.2</ele>
        <time>2021-07-03 19:03:08</time>
      </trkpt>
      <trkpt lat="29.08685" lon="-13.68829">
        <ele>74.4</ele>
        <time>2021-07-03 19:03:09</time>
      </trkpt>
      <trkpt lat="29.08684" lon="-13.6883">
        <ele>74.4</ele>
        <time>2021-07-03 19:03:10</time>
      </trkpt>
      <trkpt lat="29.08683" lon="-13.68832">
        <ele>74.4</ele>
        <time>2021-07-03 19:03:11</time>
      </trkpt>
      <trkpt lat="29.08682" lon="-13.68833">
        <ele>74.6</ele>
        <time>2021-07-03 19:03:12</time>
      </trkpt>
      <trkpt lat="29.08681" lon="-13.68835">
        <ele>74.6</ele>
        <time>2021-07-03 19:03:13</time>
      </trkpt>
      <trkpt lat="29.08679" lon="-13.6884">
        <ele>74.6</ele>
        <time>2021-07-03 19:03:14</time>
      </trkpt>
      <trkpt lat="29.08678" lon="-13.68843">
        <ele>74.8</ele>
        <time>2021-07-03 19:03:15</time>
      </trkpt>
      <trkpt lat="29.08678" lon="-13.68846">
        <ele>74.8</ele>
        <time>2021-07-03 19:03:16</time>
      </trkpt>
      <trkpt lat="29.08678" lon="-13.68849">
        <ele>74.8</ele>
        <time>2021-07-03 19:03:17</time>
      </trkpt>
      <trkpt lat="29.08678" lon="-13.68852">
        <ele>75.2</ele>
        <time>2021-07-03 19:03:18</time>
      </trkpt>
      <trkpt lat="29.08678" lon="-13.68855">
        <ele>75.2</ele>
        <time>2021-07-03 19:03:19</time>
      </trkpt>
      <trkpt lat="29.08678" lon="-13.68859">
        <ele>75.4</ele>
        <time>2021-07-03 19:03:20</time>
      </trkpt>
      <trkpt lat="29.08678" lon="-13.68862">
        <ele>75.4</ele>
        <time>2021-07-03 19:03:21</time>
      </trkpt>
      <trkpt lat="29.08677" lon="-13.68865">
        <ele>75.8</ele>
        <time>2021-07-03 19:03:22</time>
      </trkpt>
      <trkpt lat="29.08677" lon="-13.68868">
        <ele>75.8</ele>
        <time>2021-07-03 19:03:23</time>
      </trkpt>
      <trkpt lat="29.08677" lon="-13.6887">
        <ele>76</ele>
        <time>2021-07-03 19:03:24</time>
      </trkpt>
      <trkpt lat="29.08677" lon="-13.68873">
        <ele>76</ele>
        <time>2021-07-03 19:03:25</time>
      </trkpt>
      <trkpt lat="29.08676" lon="-13.68876">
        <ele>76.2</ele>
        <time>2021-07-03 19:03:26</time>
      </trkpt>
      <trkpt lat="29.08676" lon="-13.68879">
        <ele>76.2</ele>
        <time>2021-07-03 19:03:27</time>
      </trkpt>
      <trkpt lat="29.08676" lon="-13.68882">
        <ele>76.8</ele>
        <time>2021-07-03 19:03:28</time>
      </trkpt>
      <trkpt lat="29.08675" lon="-13.68885">
        <ele>76.8</ele>
        <time>2021-07-03 19:03:29</time>
      </trkpt>
      <trkpt lat="29.08675" lon="-13.68888">
        <ele>76.8</ele>
        <time>2021-07-03 19:03:30</time>
      </trkpt>
      <trkpt lat="29.08675" lon="-13.68891">
        <ele>77</ele>
        <time>2021-07-03 19:03:31</time>
      </trkpt>
      <trkpt lat="29.08674" lon="-13.68894">
        <ele>77</ele>
        <time>2021-07-03 19:03:32</time>
      </trkpt>
      <trkpt lat="29.08674" lon="-13.68897">
        <ele>77.4</ele>
        <time>2021-07-03 19:03:33</time>
      </trkpt>
      <trkpt lat="29.08674" lon="-13.689">
        <ele>77.4</ele>
        <time>2021-07-03 19:03:34</time>
      </trkpt>
      <trkpt lat="29.08673" lon="-13.68904">
        <ele>77.6</ele>
        <time>2021-07-03 19:03:35</time>
      </trkpt>
      <trkpt lat="29.08672" lon="-13.68907">
        <ele>77.6</ele>
        <time>2021-07-03 19:03:36</time>
      </trkpt>
      <trkpt lat="29.08672" lon="-13.6891">
        <ele>77.6</ele>
        <time>2021-07-03 19:03:37</time>
      </trkpt>
      <trkpt lat="29.08671" lon="-13.68913">
        <ele>78</ele>
        <time>2021-07-03 19:03:38</time>
      </trkpt>
      <trkpt lat="29.08671" lon="-13.68917">
        <ele>78</ele>
        <time>2021-07-03 19:03:39</time>
      </trkpt>
      <trkpt lat="29.08671" lon="-13.6892">
        <ele>78</ele>
        <time>2021-07-03 19:03:40</time>
      </trkpt>
      <trkpt lat="29.0867" lon="-13.68923">
        <ele>78.2</ele>
        <time>2021-07-03 19:03:41</time>
      </trkpt>
      <trkpt lat="29.0867" lon="-13.68926">
        <ele>78.2</ele>
        <time>2021-07-03 19:03:42</time>
      </trkpt>
      <trkpt lat="29.08669" lon="-13.68929">
        <ele>78.2</ele>
        <time>2021-07-03 19:03:43</time>
      </trkpt>
      <trkpt lat="29.08668" lon="-13.68933">
        <ele>78.6</ele>
        <time>2021-07-03 19:03:44</time>
      </trkpt>
      <trkpt lat="29.08668" lon="-13.68936">
        <ele>78.6</ele>
        <time>2021-07-03 19:03:45</time>
      </trkpt>
      <trkpt lat="29.08667" lon="-13.68939">
        <ele>78.8</ele>
        <time>2021-07-03 19:03:46</time>
      </trkpt>
      <trkpt lat="29.08666" lon="-13.68942">
        <ele>78.8</ele>
        <time>2021-07-03 19:03:47</time>
      </trkpt>
      <trkpt lat="29.08664" lon="-13.68945">
        <ele>78.8</ele>
        <time>2021-07-03 19:03:48</time>
      </trkpt>
      <trkpt lat="29.08663" lon="-13.68948">
        <ele>79</ele>
        <time>2021-07-03 19:03:49</time>
      </trkpt>
      <trkpt lat="29.08662" lon="-13.68951">
        <ele>79</ele>
        <time>2021-07-03 19:03:50</time>
      </trkpt>
      <trkpt lat="29.08661" lon="-13.68954">
        <ele>79.4</ele>
        <time>2021-07-03 19:03:51</time>
      </trkpt>
      <trkpt lat="29.08661" lon="-13.68957">
        <ele>79.4</ele>
        <time>2021-07-03 19:03:52</time>
      </trkpt>
      <trkpt lat="29.0866" lon="-13.6896">
        <ele>79.6</ele>
        <time>2021-07-03 19:03:53</time>
      </trkpt>
      <trkpt lat="29.08658" lon="-13.68963">
        <ele>79.6</ele>
        <time>2021-07-03 19:03:54</time>
      </trkpt>
      <trkpt lat="29.08657" lon="-13.68965">
        <ele>80</ele>
        <time>2021-07-03 19:03:55</time>
      </trkpt>
      <trkpt lat="29.08656" lon="-13.68968">
        <ele>80</ele>
        <time>2021-07-03 19:03:56</time>
      </trkpt>
      <trkpt lat="29.08655" lon="-13.68971">
        <ele>80.2</ele>
        <time>2021-07-03 19:03:57</time>
      </trkpt>
      <trkpt lat="29.08653" lon="-13.68973">
        <ele>80.2</ele>
        <time>2021-07-03 19:03:58</time>
      </trkpt>
      <trkpt lat="29.08653" lon="-13.68975">
        <ele>80.6</ele>
        <time>2021-07-03 19:03:59</time>
      </trkpt>
      <trkpt lat="29.08652" lon="-13.68977">
        <ele>80.6</ele>
        <time>2021-07-03 19:04:00</time>
      </trkpt>
      <trkpt lat="29.08652" lon="-13.68979">
        <ele>80.8</ele>
        <time>2021-07-03 19:04:01</time>
      </trkpt>
      <trkpt lat="29.08652" lon="-13.68981">
        <ele>81</ele>
        <time>2021-07-03 19:04:02</time>
      </trkpt>
      <trkpt lat="29.08651" lon="-13.68984">
        <ele>81.2</ele>
        <time>2021-07-03 19:04:03</time>
      </trkpt>
      <trkpt lat="29.08651" lon="-13.68986">
        <ele>81.6</ele>
        <time>2021-07-03 19:04:04</time>
      </trkpt>
      <trkpt lat="29.08651" lon="-13.68988">
        <ele>81.6</ele>
        <time>2021-07-03 19:04:05</time>
      </trkpt>
      <trkpt lat="29.0865" lon="-13.68991">
        <ele>81.8</ele>
        <time>2021-07-03 19:04:06</time>
      </trkpt>
      <trkpt lat="29.0865" lon="-13.68993">
        <ele>81.8</ele>
        <time>2021-07-03 19:04:07</time>
      </trkpt>
      <trkpt lat="29.0865" lon="-13.68995">
        <ele>82.2</ele>
        <time>2021-07-03 19:04:08</time>
      </trkpt>
      <trkpt lat="29.0865" lon="-13.68997">
        <ele>82.4</ele>
        <time>2021-07-03 19:04:09</time>
      </trkpt>
      <trkpt lat="29.0865" lon="-13.69">
        <ele>82.8</ele>
        <time>2021-07-03 19:04:10</time>
      </trkpt>
      <trkpt lat="29.0865" lon="-13.69002">
        <ele>83</ele>
        <time>2021-07-03 19:04:11</time>
      </trkpt>
      <trkpt lat="29.0865" lon="-13.69004">
        <ele>83.2</ele>
        <time>2021-07-03 19:04:12</time>
      </trkpt>
      <trkpt lat="29.0865" lon="-13.69007">
        <ele>83.4</ele>
        <time>2021-07-03 19:04:13</time>
      </trkpt>
      <trkpt lat="29.0865" lon="-13.69009">
        <ele>83.6</ele>
        <time>2021-07-03 19:04:14</time>
      </trkpt>
      <trkpt lat="29.0865" lon="-13.69012">
        <ele>83.6</ele>
        <time>2021-07-03 19:04:15</time>
      </trkpt>
      <trkpt lat="29.08651" lon="-13.69014">
        <ele>84</ele>
        <time>2021-07-03 19:04:16</time>
      </trkpt>
      <trkpt lat="29.08651" lon="-13.69016">
        <ele>84.2</ele>
        <time>2021-07-03 19:04:17</time>
      </trkpt>
      <trkpt lat="29.08652" lon="-13.69018">
        <ele>84.2</ele>
        <time>2021-07-03 19:04:18</time>
      </trkpt>
      <trkpt lat="29.08652" lon="-13.6902">
        <ele>84.6</ele>
        <time>2021-07-03 19:04:19</time>
      </trkpt>
      <trkpt lat="29.08652" lon="-13.69022">
        <ele>84.8</ele>
        <time>2021-07-03 19:04:20</time>
      </trkpt>
      <trkpt lat="29.08652" lon="-13.69025">
        <ele>85</ele>
        <time>2021-07-03 19:04:21</time>
      </trkpt>
      <trkpt lat="29.08652" lon="-13.69027">
        <ele>85</ele>
        <time>2021-07-03 19:04:22</time>
      </trkpt>
      <trkpt lat="29.08652" lon="-13.69029">
        <ele>85.4</ele>
        <time>2021-07-03 19:04:23</time>
      </trkpt>
      <trkpt lat="29.08652" lon="-13.69031">
        <ele>85.4</ele>
        <time>2021-07-03 19:04:24</time>
      </trkpt>
      <trkpt lat="29.08652" lon="-13.69033">
        <ele>85.8</ele>
        <time>2021-07-03 19:04:25</time>
      </trkpt>
      <trkpt lat="29.08651" lon="-13.69036">
        <ele>85.8</ele>
        <time>2021-07-03 19:04:26</time>
      </trkpt>
      <trkpt lat="29.08652" lon="-13.69038">
        <ele>86.2</ele>
        <time>2021-07-03 19:04:27</time>
      </trkpt>
      <trkpt lat="29.08652" lon="-13.6904">
        <ele>86.2</ele>
        <time>2021-07-03 19:04:28</time>
      </trkpt>
      <trkpt lat="29.08652" lon="-13.69042">
        <ele>86.6</ele>
        <time>2021-07-03 19:04:29</time>
      </trkpt>
      <trkpt lat="29.08652" lon="-13.69044">
        <ele>86.8</ele>
        <time>2021-07-03 19:04:30</time>
      </trkpt>
      <trkpt lat="29.08653" lon="-13.69047">
        <ele>87.2</ele>
        <time>2021-07-03 19:04:31</time>
      </trkpt>
      <trkpt lat="29.08653" lon="-13.69049">
        <ele>87.4</ele>
        <time>2021-07-03 19:04:32</time>
      </trkpt>
      <trkpt lat="29.08652" lon="-13.69051">
        <ele>87.6</ele>
        <time>2021-07-03 19:04:33</time>
      </trkpt>
      <trkpt lat="29.08652" lon="-13.69054">
        <ele>87.8</ele>
        <time>2021-07-03 19:04:34</time>
      </trkpt>
      <trkpt lat="29.08651" lon="-13.69056">
        <ele>88.2</ele>
        <time>2021-07-03 19:04:35</time>
      </trkpt>
      <trkpt lat="29.08651" lon="-13.69058">
        <ele>88.2</ele>
        <time>2021-07-03 19:04:36</time>
      </trkpt>
      <trkpt lat="29.0865" lon="-13.6906">
        <ele>88.6</ele>
        <time>2021-07-03 19:04:37</time>
      </trkpt>
      <trkpt lat="29.08649" lon="-13.69063">
        <ele>88.6</ele>
        <time>2021-07-03 19:04:38</time>
      </trkpt>
      <trkpt lat="29.08647" lon="-13.69065">
        <ele>88.8</ele>
        <time>2021-07-03 19:04:39</time>
      </trkpt>
      <trkpt lat="29.08646" lon="-13.69067">
        <ele>88.8</ele>
        <time>2021-07-03 19:04:40</time>
      </trkpt>
      <trkpt lat="29.08645" lon="-13.6907">
        <ele>88.8</ele>
        <time>2021-07-03 19:04:41</time>
      </trkpt>
      <trkpt lat="29.08643" lon="-13.69072">
        <ele>89</ele>
        <time>2021-07-03 19:04:42</time>
      </trkpt>
      <trkpt lat="29.08641" lon="-13.69074">
        <ele>89</ele>
        <time>2021-07-03 19:04:43</time>
      </trkpt>
      <trkpt lat="29.08639" lon="-13.69075">
        <ele>89</ele>
        <time>2021-07-03 19:04:44</time>
      </trkpt>
      <trkpt lat="29.08636" lon="-13.69077">
        <ele>89.4</ele>
        <time>2021-07-03 19:04:45</time>
      </trkpt>
      <trkpt lat="29.08634" lon="-13.69078">
        <ele>89.4</ele>
        <time>2021-07-03 19:04:46</time>
      </trkpt>
      <trkpt lat="29.08631" lon="-13.69079">
        <ele>89.4</ele>
        <time>2021-07-03 19:04:47</time>
      </trkpt>
      <trkpt lat="29.08629" lon="-13.6908">
        <ele>89.4</ele>
        <time>2021-07-03 19:04:48</time>
      </trkpt>
      <trkpt lat="29.08627" lon="-13.69081">
        <ele>89.6</ele>
        <time>2021-07-03 19:04:49</time>
      </trkpt>
      <trkpt lat="29.08625" lon="-13.69082">
        <ele>89.6</ele>
        <time>2021-07-03 19:04:50</time>
      </trkpt>
      <trkpt lat="29.08623" lon="-13.69084">
        <ele>89.6</ele>
        <time>2021-07-03 19:04:51</time>
      </trkpt>
      <trkpt lat="29.0862" lon="-13.69086">
        <ele>89.8</ele>
        <time>2021-07-03 19:04:52</time>
      </trkpt>
      <trkpt lat="29.08616" lon="-13.6909">
        <ele>89.8</ele>
        <time>2021-07-03 19:04:53</time>
      </trkpt>
      <trkpt lat="29.08614" lon="-13.69092">
        <ele>90</ele>
        <time>2021-07-03 19:04:54</time>
      </trkpt>
      <trkpt lat="29.08612" lon="-13.69093">
        <ele>90</ele>
        <time>2021-07-03 19:04:55</time>
      </trkpt>
      <trkpt lat="29.0861" lon="-13.69095">
        <ele>90</ele>
        <time>2021-07-03 19:04:56</time>
      </trkpt>
      <trkpt lat="29.08608" lon="-13.69097">
        <ele>90.2</ele>
        <time>2021-07-03 19:04:57</time>
      </trkpt>
      <trkpt lat="29.08606" lon="-13.69099">
        <ele>90.2</ele>
        <time>2021-07-03 19:04:58</time>
      </trkpt>
      <trkpt lat="29.08604" lon="-13.691">
        <ele>90.6</ele>
        <time>2021-07-03 19:04:59</time>
      </trkpt>
      <trkpt lat="29.08602" lon="-13.69102">
        <ele>90.6</ele>
        <time>2021-07-03 19:05:00</time>
      </trkpt>
      <trkpt lat="29.08601" lon="-13.69104">
        <ele>90.8</ele>
        <time>2021-07-03 19:05:01</time>
      </trkpt>
      <trkpt lat="29.08599" lon="-13.69105">
        <ele>90.8</ele>
        <time>2021-07-03 19:05:02</time>
      </trkpt>
      <trkpt lat="29.08598" lon="-13.69107">
        <ele>91.2</ele>
        <time>2021-07-03 19:05:03</time>
      </trkpt>
      <trkpt lat="29.08596" lon="-13.69108">
        <ele>91.4</ele>
        <time>2021-07-03 19:05:04</time>
      </trkpt>
      <trkpt lat="29.08594" lon="-13.6911">
        <ele>91.4</ele>
        <time>2021-07-03 19:05:05</time>
      </trkpt>
      <trkpt lat="29.08592" lon="-13.69111">
        <ele>91.6</ele>
        <time>2021-07-03 19:05:06</time>
      </trkpt>
      <trkpt lat="29.0859" lon="-13.69112">
        <ele>92</ele>
        <time>2021-07-03 19:05:07</time>
      </trkpt>
      <trkpt lat="29.08588" lon="-13.69114">
        <ele>92.2</ele>
        <time>2021-07-03 19:05:08</time>
      </trkpt>
      <trkpt lat="29.08587" lon="-13.69116">
        <ele>92.4</ele>
        <time>2021-07-03 19:05:09</time>
      </trkpt>
      <trkpt lat="29.08585" lon="-13.69118">
        <ele>92.4</ele>
        <time>2021-07-03 19:05:10</time>
      </trkpt>
      <trkpt lat="29.08583" lon="-13.69119">
        <ele>92.8</ele>
        <time>2021-07-03 19:05:11</time>
      </trkpt>
      <trkpt lat="29.08581" lon="-13.69121">
        <ele>93.2</ele>
        <time>2021-07-03 19:05:12</time>
      </trkpt>
      <trkpt lat="29.0858" lon="-13.69123">
        <ele>93.4</ele>
        <time>2021-07-03 19:05:13</time>
      </trkpt>
      <trkpt lat="29.08578" lon="-13.69124">
        <ele>93.6</ele>
        <time>2021-07-03 19:05:14</time>
      </trkpt>
      <trkpt lat="29.08576" lon="-13.69126">
        <ele>93.8</ele>
        <time>2021-07-03 19:05:15</time>
      </trkpt>
      <trkpt lat="29.08575" lon="-13.69128">
        <ele>93.8</ele>
        <time>2021-07-03 19:05:16</time>
      </trkpt>
      <trkpt lat="29.08573" lon="-13.69129">
        <ele>94.2</ele>
        <time>2021-07-03 19:05:17</time>
      </trkpt>
      <trkpt lat="29.08571" lon="-13.69131">
        <ele>94.4</ele>
        <time>2021-07-03 19:05:18</time>
      </trkpt>
      <trkpt lat="29.08569" lon="-13.69132">
        <ele>94.4</ele>
        <time>2021-07-03 19:05:19</time>
      </trkpt>
      <trkpt lat="29.08568" lon="-13.69134">
        <ele>94.8</ele>
        <time>2021-07-03 19:05:20</time>
      </trkpt>
      <trkpt lat="29.08566" lon="-13.69136">
        <ele>95</ele>
        <time>2021-07-03 19:05:21</time>
      </trkpt>
      <trkpt lat="29.08564" lon="-13.69137">
        <ele>95</ele>
        <time>2021-07-03 19:05:22</time>
      </trkpt>
      <trkpt lat="29.08562" lon="-13.69139">
        <ele>95.4</ele>
        <time>2021-07-03 19:05:23</time>
      </trkpt>
      <trkpt lat="29.0856" lon="-13.69141">
        <ele>95.4</ele>
        <time>2021-07-03 19:05:24</time>
      </trkpt>
      <trkpt lat="29.08558" lon="-13.69143">
        <ele>95.6</ele>
        <time>2021-07-03 19:05:25</time>
      </trkpt>
      <trkpt lat="29.08556" lon="-13.69145">
        <ele>95.6</ele>
        <time>2021-07-03 19:05:26</time>
      </trkpt>
      <trkpt lat="29.08554" lon="-13.69147">
        <ele>95.8</ele>
        <time>2021-07-03 19:05:27</time>
      </trkpt>
      <trkpt lat="29.08552" lon="-13.69149">
        <ele>95.8</ele>
        <time>2021-07-03 19:05:28</time>
      </trkpt>
      <trkpt lat="29.08551" lon="-13.69151">
        <ele>96.2</ele>
        <time>2021-07-03 19:05:29</time>
      </trkpt>
      <trkpt lat="29.08549" lon="-13.69153">
        <ele>96.2</ele>
        <time>2021-07-03 19:05:30</time>
      </trkpt>
      <trkpt lat="29.08547" lon="-13.69155">
        <ele>96.4</ele>
        <time>2021-07-03 19:05:31</time>
      </trkpt>
      <trkpt lat="29.08546" lon="-13.69158">
        <ele>96.4</ele>
        <time>2021-07-03 19:05:32</time>
      </trkpt>
      <trkpt lat="29.08544" lon="-13.69161">
        <ele>96.6</ele>
        <time>2021-07-03 19:05:33</time>
      </trkpt>
      <trkpt lat="29.08543" lon="-13.69164">
        <ele>96.6</ele>
        <time>2021-07-03 19:05:34</time>
      </trkpt>
      <trkpt lat="29.08541" lon="-13.69167">
        <ele>96.6</ele>
        <time>2021-07-03 19:05:35</time>
      </trkpt>
      <trkpt lat="29.0854" lon="-13.6917">
        <ele>97</ele>
        <time>2021-07-03 19:05:36</time>
      </trkpt>
      <trkpt lat="29.08538" lon="-13.69173">
        <ele>97</ele>
        <time>2021-07-03 19:05:37</time>
      </trkpt>
      <trkpt lat="29.08537" lon="-13.69177">
        <ele>97</ele>
        <time>2021-07-03 19:05:38</time>
      </trkpt>
      <trkpt lat="29.08535" lon="-13.6918">
        <ele>97.2</ele>
        <time>2021-07-03 19:05:39</time>
      </trkpt>
      <trkpt lat="29.08533" lon="-13.69184">
        <ele>97.2</ele>
        <time>2021-07-03 19:05:40</time>
      </trkpt>
      <trkpt lat="29.08531" lon="-13.69187">
        <ele>97.2</ele>
        <time>2021-07-03 19:05:41</time>
      </trkpt>
      <trkpt lat="29.08529" lon="-13.6919">
        <ele>97.2</ele>
        <time>2021-07-03 19:05:42</time>
      </trkpt>
      <trkpt lat="29.08527" lon="-13.69194">
        <ele>97.2</ele>
        <time>2021-07-03 19:05:43</time>
      </trkpt>
      <trkpt lat="29.08524" lon="-13.69197">
        <ele>97.2</ele>
        <time>2021-07-03 19:05:44</time>
      </trkpt>
      <trkpt lat="29.08522" lon="-13.692">
        <ele>97.2</ele>
        <time>2021-07-03 19:05:45</time>
      </trkpt>
      <trkpt lat="29.0852" lon="-13.69203">
        <ele>97.6</ele>
        <time>2021-07-03 19:05:46</time>
      </trkpt>
      <trkpt lat="29.08517" lon="-13.69206">
        <ele>97.6</ele>
        <time>2021-07-03 19:05:47</time>
      </trkpt>
      <trkpt lat="29.08515" lon="-13.69209">
        <ele>97.6</ele>
        <time>2021-07-03 19:05:48</time>
      </trkpt>
      <trkpt lat="29.08512" lon="-13.69212">
        <ele>97.6</ele>
        <time>2021-07-03 19:05:49</time>
      </trkpt>
      <trkpt lat="29.0851" lon="-13.69215">
        <ele>97.8</ele>
        <time>2021-07-03 19:05:50</time>
      </trkpt>
      <trkpt lat="29.08508" lon="-13.69218">
        <ele>97.8</ele>
        <time>2021-07-03 19:05:51</time>
      </trkpt>
      <trkpt lat="29.08506" lon="-13.6922">
        <ele>98.2</ele>
        <time>2021-07-03 19:05:52</time>
      </trkpt>
      <trkpt lat="29.08504" lon="-13.69222">
        <ele>98.2</ele>
        <time>2021-07-03 19:05:53</time>
      </trkpt>
      <trkpt lat="29.08502" lon="-13.69225">
        <ele>98.4</ele>
        <time>2021-07-03 19:05:54</time>
      </trkpt>
      <trkpt lat="29.085" lon="-13.69227">
        <ele>98.4</ele>
        <time>2021-07-03 19:05:55</time>
      </trkpt>
      <trkpt lat="29.08498" lon="-13.69229">
        <ele>98.8</ele>
        <time>2021-07-03 19:05:56</time>
      </trkpt>
      <trkpt lat="29.08497" lon="-13.6923">
        <ele>99</ele>
        <time>2021-07-03 19:05:57</time>
      </trkpt>
      <trkpt lat="29.08495" lon="-13.69232">
        <ele>99</ele>
        <time>2021-07-03 19:05:58</time>
      </trkpt>
      <trkpt lat="29.08494" lon="-13.69234">
        <ele>99.4</ele>
        <time>2021-07-03 19:05:59</time>
      </trkpt>
      <trkpt lat="29.08492" lon="-13.69237">
        <ele>99.4</ele>
        <time>2021-07-03 19:06:00</time>
      </trkpt>
      <trkpt lat="29.08491" lon="-13.69239">
        <ele>99.8</ele>
        <time>2021-07-03 19:06:01</time>
      </trkpt>
      <trkpt lat="29.0849" lon="-13.69241">
        <ele>99.8</ele>
        <time>2021-07-03 19:06:02</time>
      </trkpt>
      <trkpt lat="29.08488" lon="-13.69244">
        <ele>100.2</ele>
        <time>2021-07-03 19:06:03</time>
      </trkpt>
      <trkpt lat="29.08487" lon="-13.69246">
        <ele>100.2</ele>
        <time>2021-07-03 19:06:04</time>
      </trkpt>
      <trkpt lat="29.08486" lon="-13.69248">
        <ele>100.6</ele>
        <time>2021-07-03 19:06:05</time>
      </trkpt>
      <trkpt lat="29.08484" lon="-13.6925">
        <ele>100.8</ele>
        <time>2021-07-03 19:06:06</time>
      </trkpt>
      <trkpt lat="29.08483" lon="-13.69252">
        <ele>100.8</ele>
        <time>2021-07-03 19:06:07</time>
      </trkpt>
      <trkpt lat="29.08482" lon="-13.69255">
        <ele>101</ele>
        <time>2021-07-03 19:06:08</time>
      </trkpt>
      <trkpt lat="29.0848" lon="-13.69257">
        <ele>101.2</ele>
        <time>2021-07-03 19:06:09</time>
      </trkpt>
      <trkpt lat="29.08479" lon="-13.69259">
        <ele>101.4</ele>
        <time>2021-07-03 19:06:10</time>
      </trkpt>
      <trkpt lat="29.08478" lon="-13.69262">
        <ele>101.4</ele>
        <time>2021-07-03 19:06:11</time>
      </trkpt>
      <trkpt lat="29.08476" lon="-13.69264">
        <ele>102</ele>
        <time>2021-07-03 19:06:12</time>
      </trkpt>
      <trkpt lat="29.08475" lon="-13.69267">
        <ele>102.2</ele>
        <time>2021-07-03 19:06:13</time>
      </trkpt>
      <trkpt lat="29.08473" lon="-13.69269">
        <ele>102.4</ele>
        <time>2021-07-03 19:06:14</time>
      </trkpt>
      <trkpt lat="29.08472" lon="-13.69272">
        <ele>102.6</ele>
        <time>2021-07-03 19:06:15</time>
      </trkpt>
      <trkpt lat="29.08471" lon="-13.69274">
        <ele>102.6</ele>
        <time>2021-07-03 19:06:16</time>
      </trkpt>
      <trkpt lat="29.08469" lon="-13.69277">
        <ele>103</ele>
        <time>2021-07-03 19:06:17</time>
      </trkpt>
      <trkpt lat="29.08468" lon="-13.69279">
        <ele>103.2</ele>
        <time>2021-07-03 19:06:18</time>
      </trkpt>
      <trkpt lat="29.08467" lon="-13.69282">
        <ele>103.4</ele>
        <time>2021-07-03 19:06:19</time>
      </trkpt>
      <trkpt lat="29.08465" lon="-13.69284">
        <ele>103.6</ele>
        <time>2021-07-03 19:06:20</time>
      </trkpt>
      <trkpt lat="29.08464" lon="-13.69286">
        <ele>103.6</ele>
        <time>2021-07-03 19:06:21</time>
      </trkpt>
      <trkpt lat="29.08462" lon="-13.69288">
        <ele>104</ele>
        <time>2021-07-03 19:06:22</time>
      </trkpt>
      <trkpt lat="29.08461" lon="-13.6929">
        <ele>104.2</ele>
        <time>2021-07-03 19:06:23</time>
      </trkpt>
      <trkpt lat="29.0846" lon="-13.69292">
        <ele>104.6</ele>
        <time>2021-07-03 19:06:24</time>
      </trkpt>
      <trkpt lat="29.08458" lon="-13.69295">
        <ele>104.6</ele>
        <time>2021-07-03 19:06:25</time>
      </trkpt>
      <trkpt lat="29.08457" lon="-13.69297">
        <ele>105</ele>
        <time>2021-07-03 19:06:26</time>
      </trkpt>
      <trkpt lat="29.08456" lon="-13.693">
        <ele>105.2</ele>
        <time>2021-07-03 19:06:27</time>
      </trkpt>
      <trkpt lat="29.08454" lon="-13.69302">
        <ele>105.4</ele>
        <time>2021-07-03 19:06:28</time>
      </trkpt>
      <trkpt lat="29.08453" lon="-13.69305">
        <ele>105.6</ele>
        <time>2021-07-03 19:06:29</time>
      </trkpt>
      <trkpt lat="29.08452" lon="-13.69307">
        <ele>105.8</ele>
        <time>2021-07-03 19:06:30</time>
      </trkpt>
      <trkpt lat="29.0845" lon="-13.6931">
        <ele>106</ele>
        <time>2021-07-03 19:06:31</time>
      </trkpt>
      <trkpt lat="29.08449" lon="-13.69312">
        <ele>106</ele>
        <time>2021-07-03 19:06:32</time>
      </trkpt>
      <trkpt lat="29.08448" lon="-13.69315">
        <ele>106.4</ele>
        <time>2021-07-03 19:06:33</time>
      </trkpt>
      <trkpt lat="29.08447" lon="-13.69318">
        <ele>106.8</ele>
        <time>2021-07-03 19:06:34</time>
      </trkpt>
      <trkpt lat="29.08446" lon="-13.6932">
        <ele>107</ele>
        <time>2021-07-03 19:06:35</time>
      </trkpt>
      <trkpt lat="29.08445" lon="-13.69323">
        <ele>107.2</ele>
        <time>2021-07-03 19:06:36</time>
      </trkpt>
      <trkpt lat="29.08444" lon="-13.69326">
        <ele>107.4</ele>
        <time>2021-07-03 19:06:37</time>
      </trkpt>
      <trkpt lat="29.08443" lon="-13.69329">
        <ele>107.4</ele>
        <time>2021-07-03 19:06:38</time>
      </trkpt>
      <trkpt lat="29.08441" lon="-13.69332">
        <ele>107.8</ele>
        <time>2021-07-03 19:06:39</time>
      </trkpt>
      <trkpt lat="29.0844" lon="-13.69335">
        <ele>108</ele>
        <time>2021-07-03 19:06:40</time>
      </trkpt>
      <trkpt lat="29.08439" lon="-13.69339">
        <ele>108.2</ele>
        <time>2021-07-03 19:06:41</time>
      </trkpt>
      <trkpt lat="29.08439" lon="-13.69342">
        <ele>108.2</ele>
        <time>2021-07-03 19:06:42</time>
      </trkpt>
      <trkpt lat="29.08438" lon="-13.69346">
        <ele>108.6</ele>
        <time>2021-07-03 19:06:43</time>
      </trkpt>
      <trkpt lat="29.08437" lon="-13.69349">
        <ele>108.6</ele>
        <time>2021-07-03 19:06:44</time>
      </trkpt>
      <trkpt lat="29.08436" lon="-13.69353">
        <ele>108.8</ele>
        <time>2021-07-03 19:06:45</time>
      </trkpt>
      <trkpt lat="29.08435" lon="-13.69356">
        <ele>108.8</ele>
        <time>2021-07-03 19:06:46</time>
      </trkpt>
      <trkpt lat="29.08434" lon="-13.69359">
        <ele>109</ele>
        <time>2021-07-03 19:06:47</time>
      </trkpt>
      <trkpt lat="29.08433" lon="-13.69363">
        <ele>109</ele>
        <time>2021-07-03 19:06:48</time>
      </trkpt>
      <trkpt lat="29.08432" lon="-13.69367">
        <ele>109</ele>
        <time>2021-07-03 19:06:49</time>
      </trkpt>
      <trkpt lat="29.08431" lon="-13.6937">
        <ele>109.4</ele>
        <time>2021-07-03 19:06:50</time>
      </trkpt>
      <trkpt lat="29.0843" lon="-13.69374">
        <ele>109.4</ele>
        <time>2021-07-03 19:06:51</time>
      </trkpt>
      <trkpt lat="29.0843" lon="-13.69378">
        <ele>109.4</ele>
        <time>2021-07-03 19:06:52</time>
      </trkpt>
      <trkpt lat="29.08429" lon="-13.69382">
        <ele>109.4</ele>
        <time>2021-07-03 19:06:53</time>
      </trkpt>
      <trkpt lat="29.08428" lon="-13.69386">
        <ele>109.4</ele>
        <time>2021-07-03 19:06:54</time>
      </trkpt>
      <trkpt lat="29.08427" lon="-13.6939">
        <ele>109.4</ele>
        <time>2021-07-03 19:06:55</time>
      </trkpt>
      <trkpt lat="29.08426" lon="-13.69394">
        <ele>109</ele>
        <time>2021-07-03 19:06:56</time>
      </trkpt>
      <trkpt lat="29.08425" lon="-13.69399">
        <ele>109</ele>
        <time>2021-07-03 19:06:57</time>
      </trkpt>
      <trkpt lat="29.08425" lon="-13.69403">
        <ele>108.8</ele>
        <time>2021-07-03 19:06:58</time>
      </trkpt>
      <trkpt lat="29.08424" lon="-13.69408">
        <ele>108.8</ele>
        <time>2021-07-03 19:06:59</time>
      </trkpt>
      <trkpt lat="29.08424" lon="-13.69413">
        <ele>108.8</ele>
        <time>2021-07-03 19:07:00</time>
      </trkpt>
      <trkpt lat="29.08422" lon="-13.69418">
        <ele>108.4</ele>
        <time>2021-07-03 19:07:01</time>
      </trkpt>
      <trkpt lat="29.0842" lon="-13.69424">
        <ele>108.4</ele>
        <time>2021-07-03 19:07:02</time>
      </trkpt>
      <trkpt lat="29.08419" lon="-13.69429">
        <ele>108.4</ele>
        <time>2021-07-03 19:07:03</time>
      </trkpt>
      <trkpt lat="29.08417" lon="-13.69435">
        <ele>108.2</ele>
        <time>2021-07-03 19:07:04</time>
      </trkpt>
      <trkpt lat="29.08415" lon="-13.6944">
        <ele>108.2</ele>
        <time>2021-07-03 19:07:05</time>
      </trkpt>
      <trkpt lat="29.08414" lon="-13.69446">
        <ele>108.2</ele>
        <time>2021-07-03 19:07:06</time>
      </trkpt>
      <trkpt lat="29.08412" lon="-13.69452">
        <ele>108</ele>
        <time>2021-07-03 19:07:07</time>
      </trkpt>
      <trkpt lat="29.08411" lon="-13.69458">
        <ele>108</ele>
        <time>2021-07-03 19:07:08</time>
      </trkpt>
      <trkpt lat="29.08409" lon="-13.69464">
        <ele>108</ele>
        <time>2021-07-03 19:07:09</time>
      </trkpt>
      <trkpt lat="29.08408" lon="-13.69469">
        <ele>108</ele>
        <time>2021-07-03 19:07:10</time>
      </trkpt>
      <trkpt lat="29.08406" lon="-13.69476">
        <ele>108</ele>
        <time>2021-07-03 19:07:11</time>
      </trkpt>
      <trkpt lat="29.08404" lon="-13.69482">
        <ele>108</ele>
        <time>2021-07-03 19:07:12</time>
      </trkpt>
      <trkpt lat="29.08402" lon="-13.69488">
        <ele>108</ele>
        <time>2021-07-03 19:07:13</time>
      </trkpt>
      <trkpt lat="29.084" lon="-13.69494">
        <ele>108</ele>
        <time>2021-07-03 19:07:14</time>
      </trkpt>
      <trkpt lat="29.08399" lon="-13.695">
        <ele>108</ele>
        <time>2021-07-03 19:07:15</time>
      </trkpt>
      <trkpt lat="29.08397" lon="-13.69505">
        <ele>108</ele>
        <time>2021-07-03 19:07:16</time>
      </trkpt>
      <trkpt lat="29.08396" lon="-13.69509">
        <ele>108</ele>
        <time>2021-07-03 19:07:17</time>
      </trkpt>
      <trkpt lat="29.08395" lon="-13.69514">
        <ele>108.2</ele>
        <time>2021-07-03 19:07:18</time>
      </trkpt>
      <trkpt lat="29.08394" lon="-13.69519">
        <ele>108.2</ele>
        <time>2021-07-03 19:07:19</time>
      </trkpt>
      <trkpt lat="29.08392" lon="-13.69524">
        <ele>108.2</ele>
        <time>2021-07-03 19:07:20</time>
      </trkpt>
      <trkpt lat="29.0839" lon="-13.69529">
        <ele>108.4</ele>
        <time>2021-07-03 19:07:21</time>
      </trkpt>
      <trkpt lat="29.08388" lon="-13.69533">
        <ele>108.4</ele>
        <time>2021-07-03 19:07:22</time>
      </trkpt>
      <trkpt lat="29.08387" lon="-13.69537">
        <ele>108.8</ele>
        <time>2021-07-03 19:07:23</time>
      </trkpt>
      <trkpt lat="29.08385" lon="-13.6954">
        <ele>109</ele>
        <time>2021-07-03 19:07:24</time>
      </trkpt>
      <trkpt lat="29.08383" lon="-13.69543">
        <ele>109</ele>
        <time>2021-07-03 19:07:25</time>
      </trkpt>
      <trkpt lat="29.08382" lon="-13.69546">
        <ele>109.4</ele>
        <time>2021-07-03 19:07:26</time>
      </trkpt>
      <trkpt lat="29.0838" lon="-13.69549">
        <ele>109.4</ele>
        <time>2021-07-03 19:07:27</time>
      </trkpt>
      <trkpt lat="29.08378" lon="-13.69552">
        <ele>109.4</ele>
        <time>2021-07-03 19:07:28</time>
      </trkpt>
      <trkpt lat="29.08375" lon="-13.69555">
        <ele>109.6</ele>
        <time>2021-07-03 19:07:29</time>
      </trkpt>
      <trkpt lat="29.08372" lon="-13.69558">
        <ele>109.6</ele>
        <time>2021-07-03 19:07:30</time>
      </trkpt>
      <trkpt lat="29.08369" lon="-13.69561">
        <ele>109.4</ele>
        <time>2021-07-03 19:07:31</time>
      </trkpt>
      <trkpt lat="29.08365" lon="-13.69563">
        <ele>109.4</ele>
        <time>2021-07-03 19:07:32</time>
      </trkpt>
      <trkpt lat="29.08361" lon="-13.69566">
        <ele>109</ele>
        <time>2021-07-03 19:07:33</time>
      </trkpt>
      <trkpt lat="29.08358" lon="-13.69568">
        <ele>108.8</ele>
        <time>2021-07-03 19:07:34</time>
      </trkpt>
      <trkpt lat="29.08353" lon="-13.69568">
        <ele>108.6</ele>
        <time>2021-07-03 19:07:35</time>
      </trkpt>
      <trkpt lat="29.08348" lon="-13.69569">
        <ele>108.2</ele>
        <time>2021-07-03 19:07:36</time>
      </trkpt>
      <trkpt lat="29.08343" lon="-13.69568">
        <ele>108</ele>
        <time>2021-07-03 19:07:37</time>
      </trkpt>
      <trkpt lat="29.08338" lon="-13.69568">
        <ele>108</ele>
        <time>2021-07-03 19:07:38</time>
      </trkpt>
      <trkpt lat="29.08334" lon="-13.69568">
        <ele>107.6</ele>
        <time>2021-07-03 19:07:39</time>
      </trkpt>
      <trkpt lat="29.08328" lon="-13.69568">
        <ele>107.4</ele>
        <time>2021-07-03 19:07:40</time>
      </trkpt>
      <trkpt lat="29.08322" lon="-13.69568">
        <ele>107</ele>
        <time>2021-07-03 19:07:41</time>
      </trkpt>
      <trkpt lat="29.08316" lon="-13.69568">
        <ele>106.8</ele>
        <time>2021-07-03 19:07:42</time>
      </trkpt>
      <trkpt lat="29.08311" lon="-13.69568">
        <ele>106.6</ele>
        <time>2021-07-03 19:07:43</time>
      </trkpt>
      <trkpt lat="29.08305" lon="-13.69568">
        <ele>106.6</ele>
        <time>2021-07-03 19:07:44</time>
      </trkpt>
      <trkpt lat="29.08299" lon="-13.69568">
        <ele>106.4</ele>
        <time>2021-07-03 19:07:45</time>
      </trkpt>
      <trkpt lat="29.08294" lon="-13.69568">
        <ele>106.4</ele>
        <time>2021-07-03 19:07:46</time>
      </trkpt>
      <trkpt lat="29.08289" lon="-13.69568">
        <ele>106.4</ele>
        <time>2021-07-03 19:07:47</time>
      </trkpt>
      <trkpt lat="29.08284" lon="-13.69568">
        <ele>106.2</ele>
        <time>2021-07-03 19:07:48</time>
      </trkpt>
      <trkpt lat="29.08279" lon="-13.69569">
        <ele>106.2</ele>
        <time>2021-07-03 19:07:49</time>
      </trkpt>
      <trkpt lat="29.08274" lon="-13.69569">
        <ele>106.2</ele>
        <time>2021-07-03 19:07:50</time>
      </trkpt>
      <trkpt lat="29.08268" lon="-13.69569">
        <ele>106.2</ele>
        <time>2021-07-03 19:07:51</time>
      </trkpt>
      <trkpt lat="29.08264" lon="-13.69569">
        <ele>105.8</ele>
        <time>2021-07-03 19:07:52</time>
      </trkpt>
      <trkpt lat="29.0826" lon="-13.69569">
        <ele>105.8</ele>
        <time>2021-07-03 19:07:53</time>
      </trkpt>
      <trkpt lat="29.08255" lon="-13.69568">
        <ele>105.8</ele>
        <time>2021-07-03 19:07:54</time>
      </trkpt>
      <trkpt lat="29.08251" lon="-13.69569">
        <ele>105.8</ele>
        <time>2021-07-03 19:07:55</time>
      </trkpt>
      <trkpt lat="29.08247" lon="-13.69569">
        <ele>105.8</ele>
        <time>2021-07-03 19:07:56</time>
      </trkpt>
      <trkpt lat="29.08243" lon="-13.6957">
        <ele>105.8</ele>
        <time>2021-07-03 19:07:57</time>
      </trkpt>
      <trkpt lat="29.08239" lon="-13.69572">
        <ele>105.6</ele>
        <time>2021-07-03 19:07:58</time>
      </trkpt>
      <trkpt lat="29.08235" lon="-13.69574">
        <ele>105.6</ele>
        <time>2021-07-03 19:07:59</time>
      </trkpt>
      <trkpt lat="29.08233" lon="-13.69577">
        <ele>105.6</ele>
        <time>2021-07-03 19:08:00</time>
      </trkpt>
      <trkpt lat="29.0823" lon="-13.69579">
        <ele>105.6</ele>
        <time>2021-07-03 19:08:01</time>
      </trkpt>
      <trkpt lat="29.08227" lon="-13.69582">
        <ele>105.6</ele>
        <time>2021-07-03 19:08:02</time>
      </trkpt>
      <trkpt lat="29.08225" lon="-13.69587">
        <ele>105.6</ele>
        <time>2021-07-03 19:08:03</time>
      </trkpt>
      <trkpt lat="29.08223" lon="-13.6959">
        <ele>105.8</ele>
        <time>2021-07-03 19:08:04</time>
      </trkpt>
      <trkpt lat="29.08221" lon="-13.69594">
        <ele>105.8</ele>
        <time>2021-07-03 19:08:05</time>
      </trkpt>
      <trkpt lat="29.08219" lon="-13.69598">
        <ele>106.2</ele>
        <time>2021-07-03 19:08:06</time>
      </trkpt>
      <trkpt lat="29.08217" lon="-13.69603">
        <ele>106.2</ele>
        <time>2021-07-03 19:08:07</time>
      </trkpt>
      <trkpt lat="29.08214" lon="-13.69607">
        <ele>106.2</ele>
        <time>2021-07-03 19:08:08</time>
      </trkpt>
      <trkpt lat="29.08213" lon="-13.69611">
        <ele>106.2</ele>
        <time>2021-07-03 19:08:09</time>
      </trkpt>
      <trkpt lat="29.08211" lon="-13.69616">
        <ele>106.2</ele>
        <time>2021-07-03 19:08:10</time>
      </trkpt>
      <trkpt lat="29.08209" lon="-13.6962">
        <ele>106.2</ele>
        <time>2021-07-03 19:08:11</time>
      </trkpt>
      <trkpt lat="29.08207" lon="-13.69624">
        <ele>106.2</ele>
        <time>2021-07-03 19:08:12</time>
      </trkpt>
      <trkpt lat="29.08205" lon="-13.69628">
        <ele>106.2</ele>
        <time>2021-07-03 19:08:13</time>
      </trkpt>
      <trkpt lat="29.08204" lon="-13.69631">
        <ele>106.2</ele>
        <time>2021-07-03 19:08:14</time>
      </trkpt>
      <trkpt lat="29.08202" lon="-13.69635">
        <ele>106.4</ele>
        <time>2021-07-03 19:08:15</time>
      </trkpt>
      <trkpt lat="29.08201" lon="-13.69639">
        <ele>106.4</ele>
        <time>2021-07-03 19:08:16</time>
      </trkpt>
      <trkpt lat="29.08199" lon="-13.69643">
        <ele>106.4</ele>
        <time>2021-07-03 19:08:17</time>
      </trkpt>
      <trkpt lat="29.08197" lon="-13.69646">
        <ele>106.8</ele>
        <time>2021-07-03 19:08:18</time>
      </trkpt>
      <trkpt lat="29.08195" lon="-13.6965">
        <ele>107</ele>
        <time>2021-07-03 19:08:19</time>
      </trkpt>
      <trkpt lat="29.08193" lon="-13.69653">
        <ele>107</ele>
        <time>2021-07-03 19:08:20</time>
      </trkpt>
      <trkpt lat="29.08192" lon="-13.69656">
        <ele>107.4</ele>
        <time>2021-07-03 19:08:21</time>
      </trkpt>
      <trkpt lat="29.0819" lon="-13.69659">
        <ele>107.8</ele>
        <time>2021-07-03 19:08:22</time>
      </trkpt>
      <trkpt lat="29.08189" lon="-13.69661">
        <ele>108</ele>
        <time>2021-07-03 19:08:23</time>
      </trkpt>
      <trkpt lat="29.08187" lon="-13.69664">
        <ele>108.2</ele>
        <time>2021-07-03 19:08:24</time>
      </trkpt>
      <trkpt lat="29.08185" lon="-13.69666">
        <ele>108.6</ele>
        <time>2021-07-03 19:08:25</time>
      </trkpt>
      <trkpt lat="29.08183" lon="-13.69669">
        <ele>108.8</ele>
        <time>2021-07-03 19:08:26</time>
      </trkpt>
      <trkpt lat="29.08181" lon="-13.69671">
        <ele>109</ele>
        <time>2021-07-03 19:08:27</time>
      </trkpt>
      <trkpt lat="29.08179" lon="-13.69673">
        <ele>109</ele>
        <time>2021-07-03 19:08:28</time>
      </trkpt>
      <trkpt lat="29.08177" lon="-13.69676">
        <ele>109.2</ele>
        <time>2021-07-03 19:08:29</time>
      </trkpt>
      <trkpt lat="29.08174" lon="-13.69678">
        <ele>109.2</ele>
        <time>2021-07-03 19:08:30</time>
      </trkpt>
      <trkpt lat="29.08172" lon="-13.6968">
        <ele>109.6</ele>
        <time>2021-07-03 19:08:31</time>
      </trkpt>
      <trkpt lat="29.08169" lon="-13.69682">
        <ele>109.6</ele>
        <time>2021-07-03 19:08:32</time>
      </trkpt>
      <trkpt lat="29.08166" lon="-13.69683">
        <ele>110</ele>
        <time>2021-07-03 19:08:33</time>
      </trkpt>
      <trkpt lat="29.08164" lon="-13.69684">
        <ele>110.2</ele>
        <time>2021-07-03 19:08:34</time>
      </trkpt>
      <trkpt lat="29.08162" lon="-13.69685">
        <ele>110.4</ele>
        <time>2021-07-03 19:08:35</time>
      </trkpt>
      <trkpt lat="29.08161" lon="-13.69686">
        <ele>110.4</ele>
        <time>2021-07-03 19:08:36</time>
      </trkpt>
      <trkpt lat="29.08159" lon="-13.69686">
        <ele>110.8</ele>
        <time>2021-07-03 19:08:37</time>
      </trkpt>
      <trkpt lat="29.08158" lon="-13.69686">
        <ele>110.8</ele>
        <time>2021-07-03 19:08:38</time>
      </trkpt>
      <trkpt lat="29.08156" lon="-13.69686">
        <ele>111</ele>
        <time>2021-07-03 19:08:39</time>
      </trkpt>
      <trkpt lat="29.08154" lon="-13.69687">
        <ele>111</ele>
        <time>2021-07-03 19:08:40</time>
      </trkpt>
      <trkpt lat="29.08152" lon="-13.69688">
        <ele>111.4</ele>
        <time>2021-07-03 19:08:41</time>
      </trkpt>
      <trkpt lat="29.0815" lon="-13.69688">
        <ele>111.6</ele>
        <time>2021-07-03 19:08:42</time>
      </trkpt>
      <trkpt lat="29.08149" lon="-13.69689">
        <ele>111.6</ele>
        <time>2021-07-03 19:08:43</time>
      </trkpt>
      <trkpt lat="29.08147" lon="-13.6969">
        <ele>112</ele>
        <time>2021-07-03 19:08:44</time>
      </trkpt>
      <trkpt lat="29.08146" lon="-13.69691">
        <ele>112</ele>
        <time>2021-07-03 19:08:45</time>
      </trkpt>
      <trkpt lat="29.08144" lon="-13.69692">
        <ele>112</ele>
        <time>2021-07-03 19:08:46</time>
      </trkpt>
      <trkpt lat="29.08143" lon="-13.69693">
        <ele>112.4</ele>
        <time>2021-07-03 19:08:47</time>
      </trkpt>
      <trkpt lat="29.08142" lon="-13.69693">
        <ele>112.4</ele>
        <time>2021-07-03 19:08:48</time>
      </trkpt>
      <trkpt lat="29.08141" lon="-13.69694">
        <ele>112.6</ele>
        <time>2021-07-03 19:08:49</time>
      </trkpt>
      <trkpt lat="29.0814" lon="-13.69694">
        <ele>112.6</ele>
        <time>2021-07-03 19:08:50</time>
      </trkpt>
      <trkpt lat="29.08139" lon="-13.69694">
        <ele>112.6</ele>
        <time>2021-07-03 19:08:51</time>
      </trkpt>
      <trkpt lat="29.08138" lon="-13.69694">
        <ele>112.6</ele>
        <time>2021-07-03 19:08:52</time>
      </trkpt>
      <trkpt lat="29.08138" lon="-13.69694">
        <ele>112.6</ele>
        <time>2021-07-03 19:08:53</time>
      </trkpt>
      <trkpt lat="29.08138" lon="-13.69694">
        <ele>112.6</ele>
        <time>2021-07-03 19:08:54</time>
      </trkpt>
      <trkpt lat="29.08139" lon="-13.69695">
        <ele>114.2</ele>
        <time>2021-07-03 19:08:55</time>
      </trkpt>
      <trkpt lat="29.08138" lon="-13.69695">
        <ele>114.2</ele>
        <time>2021-07-03 19:08:56</time>
      </trkpt>
      <trkpt lat="29.08137" lon="-13.69695">
        <ele>114.2</ele>
        <time>2021-07-03 19:08:57</time>
      </trkpt>
      <trkpt lat="29.08136" lon="-13.69695">
        <ele>114.2</ele>
        <time>2021-07-03 19:08:58</time>
      </trkpt>
      <trkpt lat="29.08134" lon="-13.69696">
        <ele>114.2</ele>
        <time>2021-07-03 19:08:59</time>
      </trkpt>
      <trkpt lat="29.08132" lon="-13.69697">
        <ele>114.2</ele>
        <time>2021-07-03 19:09:00</time>
      </trkpt>
      <trkpt lat="29.0813" lon="-13.69698">
        <ele>114.2</ele>
        <time>2021-07-03 19:09:01</time>
      </trkpt>
      <trkpt lat="29.08128" lon="-13.69698">
        <ele>114.2</ele>
        <time>2021-07-03 19:09:02</time>
      </trkpt>
      <trkpt lat="29.08125" lon="-13.69699">
        <ele>114.2</ele>
        <time>2021-07-03 19:09:03</time>
      </trkpt>
      <trkpt lat="29.08123" lon="-13.69699">
        <ele>114.4</ele>
        <time>2021-07-03 19:09:04</time>
      </trkpt>
      <trkpt lat="29.0812" lon="-13.69701">
        <ele>114.4</ele>
        <time>2021-07-03 19:09:05</time>
      </trkpt>
      <trkpt lat="29.08118" lon="-13.69702">
        <ele>114.4</ele>
        <time>2021-07-03 19:09:06</time>
      </trkpt>
      <trkpt lat="29.08115" lon="-13.69703">
        <ele>114.4</ele>
        <time>2021-07-03 19:09:07</time>
      </trkpt>
      <trkpt lat="29.08113" lon="-13.69705">
        <ele>114.4</ele>
        <time>2021-07-03 19:09:08</time>
      </trkpt>
      <trkpt lat="29.0811" lon="-13.69706">
        <ele>114.6</ele>
        <time>2021-07-03 19:09:09</time>
      </trkpt>
      <trkpt lat="29.08108" lon="-13.69707">
        <ele>114.6</ele>
        <time>2021-07-03 19:09:10</time>
      </trkpt>
      <trkpt lat="29.08105" lon="-13.69708">
        <ele>114.6</ele>
        <time>2021-07-03 19:09:11</time>
      </trkpt>
      <trkpt lat="29.08103" lon="-13.6971">
        <ele>114.8</ele>
        <time>2021-07-03 19:09:12</time>
      </trkpt>
      <trkpt lat="29.08101" lon="-13.69711">
        <ele>114.8</ele>
        <time>2021-07-03 19:09:13</time>
      </trkpt>
      <trkpt lat="29.08099" lon="-13.69713">
        <ele>115.2</ele>
        <time>2021-07-03 19:09:14</time>
      </trkpt>
      <trkpt lat="29.08097" lon="-13.69714">
        <ele>115.4</ele>
        <time>2021-07-03 19:09:15</time>
      </trkpt>
      <trkpt lat="29.08095" lon="-13.69716">
        <ele>115.8</ele>
        <time>2021-07-03 19:09:16</time>
      </trkpt>
      <trkpt lat="29.08093" lon="-13.69717">
        <ele>116</ele>
        <time>2021-07-03 19:09:17</time>
      </trkpt>
      <trkpt lat="29.08092" lon="-13.69719">
        <ele>116.2</ele>
        <time>2021-07-03 19:09:18</time>
      </trkpt>
      <trkpt lat="29.0809" lon="-13.69721">
        <ele>116.6</ele>
        <time>2021-07-03 19:09:19</time>
      </trkpt>
      <trkpt lat="29.08088" lon="-13.69722">
        <ele>116.8</ele>
        <time>2021-07-03 19:09:20</time>
      </trkpt>
      <trkpt lat="29.08086" lon="-13.69724">
        <ele>116.8</ele>
        <time>2021-07-03 19:09:21</time>
      </trkpt>
      <trkpt lat="29.08085" lon="-13.69725">
        <ele>117.2</ele>
        <time>2021-07-03 19:09:22</time>
      </trkpt>
      <trkpt lat="29.08083" lon="-13.69727">
        <ele>117.4</ele>
        <time>2021-07-03 19:09:23</time>
      </trkpt>
      <trkpt lat="29.08082" lon="-13.69729">
        <ele>117.6</ele>
        <time>2021-07-03 19:09:24</time>
      </trkpt>
      <trkpt lat="29.0808" lon="-13.69731">
        <ele>117.6</ele>
        <time>2021-07-03 19:09:25</time>
      </trkpt>
      <trkpt lat="29.08079" lon="-13.69734">
        <ele>118</ele>
        <time>2021-07-03 19:09:26</time>
      </trkpt>
      <trkpt lat="29.08078" lon="-13.69736">
        <ele>118</ele>
        <time>2021-07-03 19:09:27</time>
      </trkpt>
      <trkpt lat="29.08076" lon="-13.69739">
        <ele>118</ele>
        <time>2021-07-03 19:09:28</time>
      </trkpt>
      <trkpt lat="29.08075" lon="-13.69742">
        <ele>118.2</ele>
        <time>2021-07-03 19:09:29</time>
      </trkpt>
      <trkpt lat="29.08074" lon="-13.69745">
        <ele>118.2</ele>
        <time>2021-07-03 19:09:30</time>
      </trkpt>
      <trkpt lat="29.08073" lon="-13.69748">
        <ele>118.2</ele>
        <time>2021-07-03 19:09:31</time>
      </trkpt>
      <trkpt lat="29.08072" lon="-13.69751">
        <ele>118.2</ele>
        <time>2021-07-03 19:09:32</time>
      </trkpt>
      <trkpt lat="29.08071" lon="-13.69755">
        <ele>118.6</ele>
        <time>2021-07-03 19:09:33</time>
      </trkpt>
      <trkpt lat="29.08071" lon="-13.69758">
        <ele>118.6</ele>
        <time>2021-07-03 19:09:34</time>
      </trkpt>
      <trkpt lat="29.0807" lon="-13.69761">
        <ele>118.6</ele>
        <time>2021-07-03 19:09:35</time>
      </trkpt>
      <trkpt lat="29.08069" lon="-13.69765">
        <ele>118.6</ele>
        <time>2021-07-03 19:09:36</time>
      </trkpt>
      <trkpt lat="29.08068" lon="-13.69769">
        <ele>118.8</ele>
        <time>2021-07-03 19:09:37</time>
      </trkpt>
      <trkpt lat="29.08067" lon="-13.69772">
        <ele>118.8</ele>
        <time>2021-07-03 19:09:38</time>
      </trkpt>
      <trkpt lat="29.08067" lon="-13.69776">
        <ele>119.2</ele>
        <time>2021-07-03 19:09:39</time>
      </trkpt>
      <trkpt lat="29.08066" lon="-13.69779">
        <ele>119.2</ele>
        <time>2021-07-03 19:09:40</time>
      </trkpt>
      <trkpt lat="29.08065" lon="-13.69783">
        <ele>119.4</ele>
        <time>2021-07-03 19:09:41</time>
      </trkpt>
      <trkpt lat="29.08065" lon="-13.69786">
        <ele>119.4</ele>
        <time>2021-07-03 19:09:42</time>
      </trkpt>
      <trkpt lat="29.08064" lon="-13.69789">
        <ele>119.8</ele>
        <time>2021-07-03 19:09:43</time>
      </trkpt>
      <trkpt lat="29.08064" lon="-13.69791">
        <ele>119.8</ele>
        <time>2021-07-03 19:09:44</time>
      </trkpt>
      <trkpt lat="29.08063" lon="-13.69794">
        <ele>120.2</ele>
        <time>2021-07-03 19:09:45</time>
      </trkpt>
      <trkpt lat="29.08063" lon="-13.69796">
        <ele>120.2</ele>
        <time>2021-07-03 19:09:46</time>
      </trkpt>
      <trkpt lat="29.08062" lon="-13.69799">
        <ele>120.6</ele>
        <time>2021-07-03 19:09:47</time>
      </trkpt>
      <trkpt lat="29.08061" lon="-13.69801">
        <ele>120.8</ele>
        <time>2021-07-03 19:09:48</time>
      </trkpt>
      <trkpt lat="29.08061" lon="-13.69803">
        <ele>121.2</ele>
        <time>2021-07-03 19:09:49</time>
      </trkpt>
      <trkpt lat="29.08061" lon="-13.69806">
        <ele>121.4</ele>
        <time>2021-07-03 19:09:50</time>
      </trkpt>
      <trkpt lat="29.08061" lon="-13.69808">
        <ele>121.6</ele>
        <time>2021-07-03 19:09:51</time>
      </trkpt>
      <trkpt lat="29.08061" lon="-13.6981">
        <ele>121.6</ele>
        <time>2021-07-03 19:09:52</time>
      </trkpt>
      <trkpt lat="29.0806" lon="-13.69813">
        <ele>122</ele>
        <time>2021-07-03 19:09:53</time>
      </trkpt>
      <trkpt lat="29.0806" lon="-13.69815">
        <ele>122.2</ele>
        <time>2021-07-03 19:09:54</time>
      </trkpt>
      <trkpt lat="29.08061" lon="-13.69818">
        <ele>122.6</ele>
        <time>2021-07-03 19:09:55</time>
      </trkpt>
      <trkpt lat="29.08061" lon="-13.6982">
        <ele>122.8</ele>
        <time>2021-07-03 19:09:56</time>
      </trkpt>
      <trkpt lat="29.0806" lon="-13.69823">
        <ele>123</ele>
        <time>2021-07-03 19:09:57</time>
      </trkpt>
      <trkpt lat="29.0806" lon="-13.69825">
        <ele>123.4</ele>
        <time>2021-07-03 19:09:58</time>
      </trkpt>
      <trkpt lat="29.08059" lon="-13.69827">
        <ele>123.8</ele>
        <time>2021-07-03 19:09:59</time>
      </trkpt>
      <trkpt lat="29.08059" lon="-13.69829">
        <ele>123.8</ele>
        <time>2021-07-03 19:10:00</time>
      </trkpt>
      <trkpt lat="29.08058" lon="-13.69831">
        <ele>124</ele>
        <time>2021-07-03 19:10:01</time>
      </trkpt>
      <trkpt lat="29.08057" lon="-13.69834">
        <ele>124</ele>
        <time>2021-07-03 19:10:02</time>
      </trkpt>
      <trkpt lat="29.08056" lon="-13.69836">
        <ele>124.2</ele>
        <time>2021-07-03 19:10:03</time>
      </trkpt>
      <trkpt lat="29.08055" lon="-13.69838">
        <ele>124.6</ele>
        <time>2021-07-03 19:10:04</time>
      </trkpt>
      <trkpt lat="29.08054" lon="-13.6984">
        <ele>124.6</ele>
        <time>2021-07-03 19:10:05</time>
      </trkpt>
      <trkpt lat="29.08053" lon="-13.69842">
        <ele>124.8</ele>
        <time>2021-07-03 19:10:06</time>
      </trkpt>
      <trkpt lat="29.08052" lon="-13.69844">
        <ele>124.8</ele>
        <time>2021-07-03 19:10:07</time>
      </trkpt>
      <trkpt lat="29.0805" lon="-13.69846">
        <ele>125.2</ele>
        <time>2021-07-03 19:10:08</time>
      </trkpt>
      <trkpt lat="29.08048" lon="-13.69848">
        <ele>125.2</ele>
        <time>2021-07-03 19:10:09</time>
      </trkpt>
      <trkpt lat="29.08046" lon="-13.6985">
        <ele>125.4</ele>
        <time>2021-07-03 19:10:10</time>
      </trkpt>
      <trkpt lat="29.08044" lon="-13.69851">
        <ele>125.4</ele>
        <time>2021-07-03 19:10:11</time>
      </trkpt>
      <trkpt lat="29.08042" lon="-13.69852">
        <ele>125.8</ele>
        <time>2021-07-03 19:10:12</time>
      </trkpt>
      <trkpt lat="29.0804" lon="-13.69853">
        <ele>125.8</ele>
        <time>2021-07-03 19:10:13</time>
      </trkpt>
      <trkpt lat="29.08038" lon="-13.69855">
        <ele>125.8</ele>
        <time>2021-07-03 19:10:14</time>
      </trkpt>
      <trkpt lat="29.08035" lon="-13.69856">
        <ele>126</ele>
        <time>2021-07-03 19:10:15</time>
      </trkpt>
      <trkpt lat="29.08033" lon="-13.69856">
        <ele>126</ele>
        <time>2021-07-03 19:10:16</time>
      </trkpt>
      <trkpt lat="29.0803" lon="-13.69857">
        <ele>126</ele>
        <time>2021-07-03 19:10:17</time>
      </trkpt>
      <trkpt lat="29.08027" lon="-13.69857">
        <ele>126</ele>
        <time>2021-07-03 19:10:18</time>
      </trkpt>
      <trkpt lat="29.08025" lon="-13.69857">
        <ele>126</ele>
        <time>2021-07-03 19:10:19</time>
      </trkpt>
      <trkpt lat="29.08022" lon="-13.69857">
        <ele>126</ele>
        <time>2021-07-03 19:10:20</time>
      </trkpt>
      <trkpt lat="29.08019" lon="-13.69857">
        <ele>126</ele>
        <time>2021-07-03 19:10:21</time>
      </trkpt>
      <trkpt lat="29.08017" lon="-13.69857">
        <ele>126.2</ele>
        <time>2021-07-03 19:10:22</time>
      </trkpt>
      <trkpt lat="29.08014" lon="-13.69856">
        <ele>126.2</ele>
        <time>2021-07-03 19:10:23</time>
      </trkpt>
      <trkpt lat="29.08012" lon="-13.69855">
        <ele>126.6</ele>
        <time>2021-07-03 19:10:24</time>
      </trkpt>
      <trkpt lat="29.08009" lon="-13.69854">
        <ele>126.6</ele>
        <time>2021-07-03 19:10:25</time>
      </trkpt>
      <trkpt lat="29.08007" lon="-13.69854">
        <ele>127</ele>
        <time>2021-07-03 19:10:26</time>
      </trkpt>
      <trkpt lat="29.08004" lon="-13.69853">
        <ele>127</ele>
        <time>2021-07-03 19:10:27</time>
      </trkpt>
      <trkpt lat="29.08002" lon="-13.69852">
        <ele>127.2</ele>
        <time>2021-07-03 19:10:28</time>
      </trkpt>
      <trkpt lat="29.08" lon="-13.69851">
        <ele>127.4</ele>
        <time>2021-07-03 19:10:29</time>
      </trkpt>
      <trkpt lat="29.07997" lon="-13.69851">
        <ele>127.4</ele>
        <time>2021-07-03 19:10:30</time>
      </trkpt>
      <trkpt lat="29.07994" lon="-13.6985">
        <ele>127.8</ele>
        <time>2021-07-03 19:10:31</time>
      </trkpt>
      <trkpt lat="29.07992" lon="-13.6985">
        <ele>127.8</ele>
        <time>2021-07-03 19:10:32</time>
      </trkpt>
      <trkpt lat="29.07989" lon="-13.6985">
        <ele>128</ele>
        <time>2021-07-03 19:10:33</time>
      </trkpt>
      <trkpt lat="29.07987" lon="-13.6985">
        <ele>128</ele>
        <time>2021-07-03 19:10:34</time>
      </trkpt>
      <trkpt lat="29.07984" lon="-13.69849">
        <ele>128</ele>
        <time>2021-07-03 19:10:35</time>
      </trkpt>
      <trkpt lat="29.07981" lon="-13.69849">
        <ele>128.2</ele>
        <time>2021-07-03 19:10:36</time>
      </trkpt>
      <trkpt lat="29.07978" lon="-13.69849">
        <ele>128.2</ele>
        <time>2021-07-03 19:10:37</time>
      </trkpt>
      <trkpt lat="29.07976" lon="-13.69849">
        <ele>128.2</ele>
        <time>2021-07-03 19:10:38</time>
      </trkpt>
      <trkpt lat="29.07973" lon="-13.69849">
        <ele>128.4</ele>
        <time>2021-07-03 19:10:39</time>
      </trkpt>
      <trkpt lat="29.0797" lon="-13.69849">
        <ele>128.4</ele>
        <time>2021-07-03 19:10:40</time>
      </trkpt>
      <trkpt lat="29.07967" lon="-13.69848">
        <ele>128.6</ele>
        <time>2021-07-03 19:10:41</time>
      </trkpt>
      <trkpt lat="29.07965" lon="-13.69848">
        <ele>128.6</ele>
        <time>2021-07-03 19:10:42</time>
      </trkpt>
      <trkpt lat="29.07962" lon="-13.69847">
        <ele>129</ele>
        <time>2021-07-03 19:10:43</time>
      </trkpt>
      <trkpt lat="29.07959" lon="-13.69847">
        <ele>129</ele>
        <time>2021-07-03 19:10:44</time>
      </trkpt>
      <trkpt lat="29.07956" lon="-13.69846">
        <ele>129</ele>
        <time>2021-07-03 19:10:45</time>
      </trkpt>
      <trkpt lat="29.07953" lon="-13.69846">
        <ele>129.2</ele>
        <time>2021-07-03 19:10:46</time>
      </trkpt>
      <trkpt lat="29.0795" lon="-13.69845">
        <ele>129.2</ele>
        <time>2021-07-03 19:10:47</time>
      </trkpt>
      <trkpt lat="29.07947" lon="-13.69845">
        <ele>129.4</ele>
        <time>2021-07-03 19:10:48</time>
      </trkpt>
      <trkpt lat="29.07944" lon="-13.69845">
        <ele>129.4</ele>
        <time>2021-07-03 19:10:49</time>
      </trkpt>
      <trkpt lat="29.07941" lon="-13.69845">
        <ele>129.6</ele>
        <time>2021-07-03 19:10:50</time>
      </trkpt>
      <trkpt lat="29.07938" lon="-13.69844">
        <ele>129.6</ele>
        <time>2021-07-03 19:10:51</time>
      </trkpt>
      <trkpt lat="29.07935" lon="-13.69844">
        <ele>129.6</ele>
        <time>2021-07-03 19:10:52</time>
      </trkpt>
      <trkpt lat="29.07932" lon="-13.69843">
        <ele>130</ele>
        <time>2021-07-03 19:10:53</time>
      </trkpt>
      <trkpt lat="29.07929" lon="-13.69843">
        <ele>130</ele>
        <time>2021-07-03 19:10:54</time>
      </trkpt>
      <trkpt lat="29.07925" lon="-13.69842">
        <ele>130.2</ele>
        <time>2021-07-03 19:10:55</time>
      </trkpt>
      <trkpt lat="29.07922" lon="-13.69842">
        <ele>130.2</ele>
        <time>2021-07-03 19:10:56</time>
      </trkpt>
      <trkpt lat="29.07919" lon="-13.69841">
        <ele>130.4</ele>
        <time>2021-07-03 19:22:55</time>
      </trkpt>
      <trkpt lat="29.07916" lon="-13.69841">
        <ele>130.4</ele>
        <time>2021-07-03 19:22:56</time>
      </trkpt>
      <trkpt lat="29.07913" lon="-13.6984">
        <ele>130.4</ele>
        <time>2021-07-03 19:22:57</time>
      </trkpt>
      <trkpt lat="29.07909" lon="-13.6984">
        <ele>130.6</ele>
        <time>2021-07-03 19:22:58</time>
      </trkpt>
      <trkpt lat="29.07906" lon="-13.69839">
        <ele>130.6</ele>
        <time>2021-07-03 19:22:59</time>
      </trkpt>
      <trkpt lat="29.07903" lon="-13.69839">
        <ele>130.8</ele>
        <time>2021-07-03 19:23:00</time>
      </trkpt>
      <trkpt lat="29.07899" lon="-13.69838">
        <ele>130.8</ele>
        <time>2021-07-03 19:23:01</time>
      </trkpt>
      <trkpt lat="29.07896" lon="-13.69838">
        <ele>130.8</ele>
        <time>2021-07-03 19:23:02</time>
      </trkpt>
      <trkpt lat="29.07893" lon="-13.69837">
        <ele>131</ele>
        <time>2021-07-03 19:23:03</time>
      </trkpt>
      <trkpt lat="29.07889" lon="-13.69837">
        <ele>131</ele>
        <time>2021-07-03 19:23:04</time>
      </trkpt>
      <trkpt lat="29.07886" lon="-13.69836">
        <ele>131.4</ele>
        <time>2021-07-03 19:23:05</time>
      </trkpt>
      <trkpt lat="29.07883" lon="-13.69836">
        <ele>131.4</ele>
        <time>2021-07-03 19:23:06</time>
      </trkpt>
      <trkpt lat="29.07879" lon="-13.69835">
        <ele>131.6</ele>
        <time>2021-07-03 19:23:07</time>
      </trkpt>
      <trkpt lat="29.07876" lon="-13.69835">
        <ele>131.6</ele>
        <time>2021-07-03 19:23:08</time>
      </trkpt>
      <trkpt lat="29.07873" lon="-13.69835">
        <ele>131.8</ele>
        <time>2021-07-03 19:23:09</time>
      </trkpt>
      <trkpt lat="29.0787" lon="-13.69834">
        <ele>131.8</ele>
        <time>2021-07-03 19:23:10</time>
      </trkpt>
      <trkpt lat="29.07867" lon="-13.69834">
        <ele>132.2</ele>
        <time>2021-07-03 19:23:11</time>
      </trkpt>
      <trkpt lat="29.07864" lon="-13.69833">
        <ele>132.2</ele>
        <time>2021-07-03 19:23:12</time>
      </trkpt>
      <trkpt lat="29.07861" lon="-13.69832">
        <ele>131.4</ele>
        <time>2021-07-03 19:23:13</time>
      </trkpt>
      <trkpt lat="29.07859" lon="-13.69832">
        <ele>132</ele>
        <time>2021-07-03 19:23:14</time>
      </trkpt>
      <trkpt lat="29.07856" lon="-13.69831">
        <ele>132.4</ele>
        <time>2021-07-03 19:23:15</time>
      </trkpt>
      <trkpt lat="29.07854" lon="-13.69831">
        <ele>132.8</ele>
        <time>2021-07-03 19:23:16</time>
      </trkpt>
      <trkpt lat="29.07851" lon="-13.69831">
        <ele>132.2</ele>
        <time>2021-07-03 19:23:17</time>
      </trkpt>
      <trkpt lat="29.07849" lon="-13.69831">
        <ele>132.6</ele>
        <time>2021-07-03 19:23:18</time>
      </trkpt>
      <trkpt lat="29.07846" lon="-13.6983">
        <ele>132.2</ele>
        <time>2021-07-03 19:23:19</time>
      </trkpt>
      <trkpt lat="29.07843" lon="-13.6983">
        <ele>132.6</ele>
        <time>2021-07-03 19:23:20</time>
      </trkpt>
      <trkpt lat="29.0784" lon="-13.69829">
        <ele>133</ele>
        <time>2021-07-03 19:23:21</time>
      </trkpt>
      <trkpt lat="29.07837" lon="-13.69829">
        <ele>133.2</ele>
        <time>2021-07-03 19:23:22</time>
      </trkpt>
      <trkpt lat="29.07834" lon="-13.69828">
        <ele>133.2</ele>
        <time>2021-07-03 19:23:23</time>
      </trkpt>
      <trkpt lat="29.07831" lon="-13.69828">
        <ele>133.6</ele>
        <time>2021-07-03 19:23:24</time>
      </trkpt>
      <trkpt lat="29.07828" lon="-13.69828">
        <ele>133.6</ele>
        <time>2021-07-03 19:23:25</time>
      </trkpt>
      <trkpt lat="29.07825" lon="-13.69827">
        <ele>133.8</ele>
        <time>2021-07-03 19:23:26</time>
      </trkpt>
      <trkpt lat="29.07823" lon="-13.69827">
        <ele>133.8</ele>
        <time>2021-07-03 19:23:27</time>
      </trkpt>
      <trkpt lat="29.07819" lon="-13.69826">
        <ele>134</ele>
        <time>2021-07-03 19:23:28</time>
      </trkpt>
      <trkpt lat="29.07816" lon="-13.69826">
        <ele>134</ele>
        <time>2021-07-03 19:23:29</time>
      </trkpt>
      <trkpt lat="29.07813" lon="-13.69825">
        <ele>134.2</ele>
        <time>2021-07-03 19:23:30</time>
      </trkpt>
      <trkpt lat="29.0781" lon="-13.69825">
        <ele>134.2</ele>
        <time>2021-07-03 19:23:31</time>
      </trkpt>
      <trkpt lat="29.07807" lon="-13.69824">
        <ele>134.2</ele>
        <time>2021-07-03 19:23:32</time>
      </trkpt>
      <trkpt lat="29.07804" lon="-13.69824">
        <ele>134.6</ele>
        <time>2021-07-03 19:23:33</time>
      </trkpt>
      <trkpt lat="29.07801" lon="-13.69824">
        <ele>134.6</ele>
        <time>2021-07-03 19:23:34</time>
      </trkpt>
      <trkpt lat="29.07798" lon="-13.69823">
        <ele>134.8</ele>
        <time>2021-07-03 19:23:35</time>
      </trkpt>
      <trkpt lat="29.07795" lon="-13.69823">
        <ele>134.8</ele>
        <time>2021-07-03 19:23:36</time>
      </trkpt>
      <trkpt lat="29.07792" lon="-13.69822">
        <ele>135</ele>
        <time>2021-07-03 19:23:37</time>
      </trkpt>
      <trkpt lat="29.07789" lon="-13.69822">
        <ele>135</ele>
        <time>2021-07-03 19:23:38</time>
      </trkpt>
      <trkpt lat="29.07786" lon="-13.69821">
        <ele>135.4</ele>
        <time>2021-07-03 19:23:39</time>
      </trkpt>
      <trkpt lat="29.07783" lon="-13.69821">
        <ele>135.4</ele>
        <time>2021-07-03 19:23:40</time>
      </trkpt>
      <trkpt lat="29.0778" lon="-13.6982">
        <ele>135.6</ele>
        <time>2021-07-03 19:23:41</time>
      </trkpt>
      <trkpt lat="29.07777" lon="-13.69819">
        <ele>135.6</ele>
        <time>2021-07-03 19:23:42</time>
      </trkpt>
      <trkpt lat="29.07774" lon="-13.69819">
        <ele>136</ele>
        <time>2021-07-03 19:23:43</time>
      </trkpt>
      <trkpt lat="29.07771" lon="-13.69818">
        <ele>136</ele>
        <time>2021-07-03 19:23:44</time>
      </trkpt>
      <trkpt lat="29.07769" lon="-13.69818">
        <ele>136</ele>
        <time>2021-07-03 19:23:45</time>
      </trkpt>
      <trkpt lat="29.07766" lon="-13.69817">
        <ele>136.2</ele>
        <time>2021-07-03 19:23:46</time>
      </trkpt>
      <trkpt lat="29.07763" lon="-13.69817">
        <ele>136.2</ele>
        <time>2021-07-03 19:23:47</time>
      </trkpt>
      <trkpt lat="29.0776" lon="-13.69816">
        <ele>136.4</ele>
        <time>2021-07-03 19:23:48</time>
      </trkpt>
      <trkpt lat="29.07757" lon="-13.69816">
        <ele>136.4</ele>
        <time>2021-07-03 19:23:49</time>
      </trkpt>
      <trkpt lat="29.07753" lon="-13.69815">
        <ele>136.4</ele>
        <time>2021-07-03 19:23:50</time>
      </trkpt>
      <trkpt lat="29.0775" lon="-13.69814">
        <ele>136.8</ele>
        <time>2021-07-03 19:23:51</time>
      </trkpt>
      <trkpt lat="29.07747" lon="-13.69812">
        <ele>136.8</ele>
        <time>2021-07-03 19:23:52</time>
      </trkpt>
      <trkpt lat="29.07744" lon="-13.69811">
        <ele>136.8</ele>
        <time>2021-07-03 19:23:53</time>
      </trkpt>
      <trkpt lat="29.07741" lon="-13.69811">
        <ele>137</ele>
        <time>2021-07-03 19:23:54</time>
      </trkpt>
      <trkpt lat="29.07738" lon="-13.6981">
        <ele>137</ele>
        <time>2021-07-03 19:23:55</time>
      </trkpt>
      <trkpt lat="29.07734" lon="-13.6981">
        <ele>137</ele>
        <time>2021-07-03 19:23:56</time>
      </trkpt>
      <trkpt lat="29.07731" lon="-13.6981">
        <ele>137</ele>
        <time>2021-07-03 19:23:57</time>
      </trkpt>
      <trkpt lat="29.07727" lon="-13.69809">
        <ele>137</ele>
        <time>2021-07-03 19:23:58</time>
      </trkpt>
      <trkpt lat="29.07724" lon="-13.69809">
        <ele>137</ele>
        <time>2021-07-03 19:23:59</time>
      </trkpt>
      <trkpt lat="29.07721" lon="-13.69808">
        <ele>137</ele>
        <time>2021-07-03 19:24:00</time>
      </trkpt>
      <trkpt lat="29.07717" lon="-13.69807">
        <ele>137</ele>
        <time>2021-07-03 19:24:01</time>
      </trkpt>
      <trkpt lat="29.07714" lon="-13.69807">
        <ele>137</ele>
        <time>2021-07-03 19:24:02</time>
      </trkpt>
      <trkpt lat="29.07711" lon="-13.69806">
        <ele>137.2</ele>
        <time>2021-07-03 19:24:03</time>
      </trkpt>
      <trkpt lat="29.07707" lon="-13.69806">
        <ele>137.2</ele>
        <time>2021-07-03 19:24:04</time>
      </trkpt>
      <trkpt lat="29.07704" lon="-13.69805">
        <ele>137.2</ele>
        <time>2021-07-03 19:24:05</time>
      </trkpt>
      <trkpt lat="29.07701" lon="-13.69805">
        <ele>137.2</ele>
        <time>2021-07-03 19:24:06</time>
      </trkpt>
      <trkpt lat="29.07697" lon="-13.69804">
        <ele>137.2</ele>
        <time>2021-07-03 19:24:07</time>
      </trkpt>
      <trkpt lat="29.07694" lon="-13.69803">
        <ele>137.2</ele>
        <time>2021-07-03 19:24:08</time>
      </trkpt>
      <trkpt lat="29.07691" lon="-13.69803">
        <ele>137.2</ele>
        <time>2021-07-03 19:24:09</time>
      </trkpt>
      <trkpt lat="29.07687" lon="-13.69802">
        <ele>137.4</ele>
        <time>2021-07-03 19:24:10</time>
      </trkpt>
      <trkpt lat="29.07684" lon="-13.69802">
        <ele>137.4</ele>
        <time>2021-07-03 19:24:11</time>
      </trkpt>
      <trkpt lat="29.07681" lon="-13.69801">
        <ele>137.4</ele>
        <time>2021-07-03 19:24:12</time>
      </trkpt>
      <trkpt lat="29.07677" lon="-13.69801">
        <ele>137.6</ele>
        <time>2021-07-03 19:24:13</time>
      </trkpt>
      <trkpt lat="29.07674" lon="-13.698">
        <ele>137.6</ele>
        <time>2021-07-03 19:24:14</time>
      </trkpt>
      <trkpt lat="29.07671" lon="-13.698">
        <ele>137.6</ele>
        <time>2021-07-03 19:24:15</time>
      </trkpt>
      <trkpt lat="29.07668" lon="-13.69799">
        <ele>137.6</ele>
        <time>2021-07-03 19:24:16</time>
      </trkpt>
      <trkpt lat="29.07665" lon="-13.69799">
        <ele>138</ele>
        <time>2021-07-03 19:24:17</time>
      </trkpt>
      <trkpt lat="29.07662" lon="-13.69799">
        <ele>138</ele>
        <time>2021-07-03 19:24:18</time>
      </trkpt>
      <trkpt lat="29.0766" lon="-13.69798">
        <ele>138.2</ele>
        <time>2021-07-03 19:24:19</time>
      </trkpt>
      <trkpt lat="29.07657" lon="-13.69798">
        <ele>138.2</ele>
        <time>2021-07-03 19:24:20</time>
      </trkpt>
      <trkpt lat="29.07655" lon="-13.69797">
        <ele>138.6</ele>
        <time>2021-07-03 19:24:21</time>
      </trkpt>
      <trkpt lat="29.07653" lon="-13.69797">
        <ele>138.8</ele>
        <time>2021-07-03 19:24:22</time>
      </trkpt>
      <trkpt lat="29.0765" lon="-13.69796">
        <ele>138.8</ele>
        <time>2021-07-03 19:24:23</time>
      </trkpt>
      <trkpt lat="29.07648" lon="-13.69796">
        <ele>139.2</ele>
        <time>2021-07-03 19:24:24</time>
      </trkpt>
      <trkpt lat="29.07646" lon="-13.69796">
        <ele>139.6</ele>
        <time>2021-07-03 19:24:25</time>
      </trkpt>
      <trkpt lat="29.07643" lon="-13.69796">
        <ele>139.8</ele>
        <time>2021-07-03 19:24:26</time>
      </trkpt>
      <trkpt lat="29.07641" lon="-13.69795">
        <ele>140</ele>
        <time>2021-07-03 19:24:27</time>
      </trkpt>
      <trkpt lat="29.07639" lon="-13.69795">
        <ele>140.4</ele>
        <time>2021-07-03 19:24:28</time>
      </trkpt>
      <trkpt lat="29.07637" lon="-13.69794">
        <ele>140.6</ele>
        <time>2021-07-03 19:24:29</time>
      </trkpt>
      <trkpt lat="29.07635" lon="-13.69794">
        <ele>141</ele>
        <time>2021-07-03 19:24:30</time>
      </trkpt>
      <trkpt lat="29.07633" lon="-13.69793">
        <ele>141.2</ele>
        <time>2021-07-03 19:24:31</time>
      </trkpt>
      <trkpt lat="29.07631" lon="-13.69793">
        <ele>141.6</ele>
        <time>2021-07-03 19:24:32</time>
      </trkpt>
      <trkpt lat="29.07628" lon="-13.69793">
        <ele>142</ele>
        <time>2021-07-03 19:24:33</time>
      </trkpt>
      <trkpt lat="29.07626" lon="-13.69792">
        <ele>142.2</ele>
        <time>2021-07-03 19:24:34</time>
      </trkpt>
      <trkpt lat="29.07624" lon="-13.69792">
        <ele>142.6</ele>
        <time>2021-07-03 19:24:35</time>
      </trkpt>
      <trkpt lat="29.07622" lon="-13.69792">
        <ele>142.8</ele>
        <time>2021-07-03 19:24:36</time>
      </trkpt>
      <trkpt lat="29.07619" lon="-13.69791">
        <ele>143</ele>
        <time>2021-07-03 19:24:37</time>
      </trkpt>
      <trkpt lat="29.07617" lon="-13.69791">
        <ele>143.4</ele>
        <time>2021-07-03 19:24:38</time>
      </trkpt>
      <trkpt lat="29.07614" lon="-13.69791">
        <ele>143.6</ele>
        <time>2021-07-03 19:24:39</time>
      </trkpt>
      <trkpt lat="29.07612" lon="-13.69791">
        <ele>144</ele>
        <time>2021-07-03 19:24:40</time>
      </trkpt>
      <trkpt lat="29.07609" lon="-13.6979">
        <ele>144.2</ele>
        <time>2021-07-03 19:24:41</time>
      </trkpt>
      <trkpt lat="29.07607" lon="-13.6979">
        <ele>144.2</ele>
        <time>2021-07-03 19:24:42</time>
      </trkpt>
      <trkpt lat="29.07604" lon="-13.69789">
        <ele>144.6</ele>
        <time>2021-07-03 19:24:43</time>
      </trkpt>
      <trkpt lat="29.07601" lon="-13.69789">
        <ele>144.6</ele>
        <time>2021-07-03 19:24:44</time>
      </trkpt>
      <trkpt lat="29.07599" lon="-13.69788">
        <ele>144.8</ele>
        <time>2021-07-03 19:24:45</time>
      </trkpt>
      <trkpt lat="29.07596" lon="-13.69787">
        <ele>144.8</ele>
        <time>2021-07-03 19:24:46</time>
      </trkpt>
      <trkpt lat="29.07593" lon="-13.69787">
        <ele>144.8</ele>
        <time>2021-07-03 19:24:47</time>
      </trkpt>
      <trkpt lat="29.0759" lon="-13.69786">
        <ele>144.8</ele>
        <time>2021-07-03 19:24:48</time>
      </trkpt>
      <trkpt lat="29.07588" lon="-13.69786">
        <ele>145</ele>
        <time>2021-07-03 19:24:49</time>
      </trkpt>
      <trkpt lat="29.07585" lon="-13.69785">
        <ele>145</ele>
        <time>2021-07-03 19:24:50</time>
      </trkpt>
      <trkpt lat="29.07582" lon="-13.69785">
        <ele>145.4</ele>
        <time>2021-07-03 19:24:51</time>
      </trkpt>
      <trkpt lat="29.07579" lon="-13.69785">
        <ele>145.4</ele>
        <time>2021-07-03 19:24:52</time>
      </trkpt>
      <trkpt lat="29.07577" lon="-13.69784">
        <ele>145.6</ele>
        <time>2021-07-03 19:24:53</time>
      </trkpt>
      <trkpt lat="29.07574" lon="-13.69784">
        <ele>145.6</ele>
        <time>2021-07-03 19:24:54</time>
      </trkpt>
      <trkpt lat="29.07571" lon="-13.69783">
        <ele>146</ele>
        <time>2021-07-03 19:24:55</time>
      </trkpt>
      <trkpt lat="29.07569" lon="-13.69783">
        <ele>146</ele>
        <time>2021-07-03 19:24:56</time>
      </trkpt>
      <trkpt lat="29.07566" lon="-13.69782">
        <ele>146</ele>
        <time>2021-07-03 19:24:57</time>
      </trkpt>
      <trkpt lat="29.07563" lon="-13.69782">
        <ele>146.2</ele>
        <time>2021-07-03 19:24:58</time>
      </trkpt>
      <trkpt lat="29.0756" lon="-13.69781">
        <ele>146.2</ele>
        <time>2021-07-03 19:24:59</time>
      </trkpt>
      <trkpt lat="29.07557" lon="-13.69781">
        <ele>146.4</ele>
        <time>2021-07-03 19:25:00</time>
      </trkpt>
      <trkpt lat="29.07554" lon="-13.6978">
        <ele>146.4</ele>
        <time>2021-07-03 19:25:01</time>
      </trkpt>
      <trkpt lat="29.07551" lon="-13.69779">
        <ele>146.4</ele>
        <time>2021-07-03 19:25:02</time>
      </trkpt>
      <trkpt lat="29.07548" lon="-13.69779">
        <ele>146.6</ele>
        <time>2021-07-03 19:25:03</time>
      </trkpt>
      <trkpt lat="29.07545" lon="-13.69778">
        <ele>146.6</ele>
        <time>2021-07-03 19:25:04</time>
      </trkpt>
      <trkpt lat="29.07542" lon="-13.69778">
        <ele>147</ele>
        <time>2021-07-03 19:25:05</time>
      </trkpt>
      <trkpt lat="29.07539" lon="-13.69778">
        <ele>147</ele>
        <time>2021-07-03 19:25:06</time>
      </trkpt>
      <trkpt lat="29.07536" lon="-13.69777">
        <ele>147.2</ele>
        <time>2021-07-03 19:25:07</time>
      </trkpt>
      <trkpt lat="29.07534" lon="-13.69777">
        <ele>147.2</ele>
        <time>2021-07-03 19:25:08</time>
      </trkpt>
      <trkpt lat="29.07531" lon="-13.69776">
        <ele>147.2</ele>
        <time>2021-07-03 19:25:09</time>
      </trkpt>
      <trkpt lat="29.07528" lon="-13.69776">
        <ele>147.6</ele>
        <time>2021-07-03 19:25:10</time>
      </trkpt>
      <trkpt lat="29.07525" lon="-13.69775">
        <ele>147.6</ele>
        <time>2021-07-03 19:25:11</time>
      </trkpt>
      <trkpt lat="29.07523" lon="-13.69775">
        <ele>147.8</ele>
        <time>2021-07-03 19:25:12</time>
      </trkpt>
      <trkpt lat="29.0752" lon="-13.69775">
        <ele>147.8</ele>
        <time>2021-07-03 19:25:13</time>
      </trkpt>
      <trkpt lat="29.07518" lon="-13.69775">
        <ele>148.2</ele>
        <time>2021-07-03 19:25:14</time>
      </trkpt>
      <trkpt lat="29.07515" lon="-13.69775">
        <ele>148.2</ele>
        <time>2021-07-03 19:25:15</time>
      </trkpt>
      <trkpt lat="29.07512" lon="-13.69774">
        <ele>148.4</ele>
        <time>2021-07-03 19:25:16</time>
      </trkpt>
      <trkpt lat="29.07509" lon="-13.69774">
        <ele>148.4</ele>
        <time>2021-07-03 19:25:17</time>
      </trkpt>
      <trkpt lat="29.07507" lon="-13.69773">
        <ele>148.6</ele>
        <time>2021-07-03 19:25:18</time>
      </trkpt>
      <trkpt lat="29.07504" lon="-13.69773">
        <ele>148.6</ele>
        <time>2021-07-03 19:25:19</time>
      </trkpt>
      <trkpt lat="29.07501" lon="-13.69772">
        <ele>148.8</ele>
        <time>2021-07-03 19:25:20</time>
      </trkpt>
      <trkpt lat="29.07498" lon="-13.69771">
        <ele>148.8</ele>
        <time>2021-07-03 19:25:21</time>
      </trkpt>
      <trkpt lat="29.07495" lon="-13.69771">
        <ele>149.2</ele>
        <time>2021-07-03 19:25:22</time>
      </trkpt>
      <trkpt lat="29.07492" lon="-13.6977">
        <ele>149.2</ele>
        <time>2021-07-03 19:25:23</time>
      </trkpt>
      <trkpt lat="29.0749" lon="-13.69769">
        <ele>149.4</ele>
        <time>2021-07-03 19:25:24</time>
      </trkpt>
      <trkpt lat="29.07487" lon="-13.69769">
        <ele>149.4</ele>
        <time>2021-07-03 19:25:25</time>
      </trkpt>
      <trkpt lat="29.07484" lon="-13.69769">
        <ele>149.6</ele>
        <time>2021-07-03 19:25:26</time>
      </trkpt>
      <trkpt lat="29.07482" lon="-13.69768">
        <ele>149.6</ele>
        <time>2021-07-03 19:25:27</time>
      </trkpt>
      <trkpt lat="29.07479" lon="-13.69768">
        <ele>149.8</ele>
        <time>2021-07-03 19:25:28</time>
      </trkpt>
      <trkpt lat="29.07476" lon="-13.69768">
        <ele>150.2</ele>
        <time>2021-07-03 19:25:29</time>
      </trkpt>
      <trkpt lat="29.07473" lon="-13.69768">
        <ele>150.2</ele>
        <time>2021-07-03 19:25:30</time>
      </trkpt>
      <trkpt lat="29.07471" lon="-13.69767">
        <ele>150.4</ele>
        <time>2021-07-03 19:25:31</time>
      </trkpt>
      <trkpt lat="29.07468" lon="-13.69767">
        <ele>150.4</ele>
        <time>2021-07-03 19:25:32</time>
      </trkpt>
      <trkpt lat="29.07465" lon="-13.69767">
        <ele>150.6</ele>
        <time>2021-07-03 19:25:33</time>
      </trkpt>
      <trkpt lat="29.07462" lon="-13.69766">
        <ele>150.6</ele>
        <time>2021-07-03 19:25:34</time>
      </trkpt>
      <trkpt lat="29.07459" lon="-13.69766">
        <ele>150.8</ele>
        <time>2021-07-03 19:25:35</time>
      </trkpt>
      <trkpt lat="29.07456" lon="-13.69766">
        <ele>150.8</ele>
        <time>2021-07-03 19:25:36</time>
      </trkpt>
      <trkpt lat="29.07453" lon="-13.69766">
        <ele>150.8</ele>
        <time>2021-07-03 19:25:37</time>
      </trkpt>
      <trkpt lat="29.0745" lon="-13.69766">
        <ele>151.2</ele>
        <time>2021-07-03 19:25:38</time>
      </trkpt>
      <trkpt lat="29.07447" lon="-13.69766">
        <ele>151.2</ele>
        <time>2021-07-03 19:25:39</time>
      </trkpt>
      <trkpt lat="29.07444" lon="-13.69766">
        <ele>151.2</ele>
        <time>2021-07-03 19:25:40</time>
      </trkpt>
      <trkpt lat="29.07441" lon="-13.69765">
        <ele>151.4</ele>
        <time>2021-07-03 19:25:41</time>
      </trkpt>
      <trkpt lat="29.07439" lon="-13.69764">
        <ele>151.4</ele>
        <time>2021-07-03 19:25:42</time>
      </trkpt>
      <trkpt lat="29.07436" lon="-13.69764">
        <ele>151.4</ele>
        <time>2021-07-03 19:25:43</time>
      </trkpt>
      <trkpt lat="29.07434" lon="-13.69763">
        <ele>151.8</ele>
        <time>2021-07-03 19:25:44</time>
      </trkpt>
      <trkpt lat="29.07432" lon="-13.69762">
        <ele>151.8</ele>
        <time>2021-07-03 19:25:45</time>
      </trkpt>
      <trkpt lat="29.07429" lon="-13.69762">
        <ele>151.8</ele>
        <time>2021-07-03 19:25:46</time>
      </trkpt>
      <trkpt lat="29.07426" lon="-13.69761">
        <ele>151.8</ele>
        <time>2021-07-03 19:25:47</time>
      </trkpt>
      <trkpt lat="29.07424" lon="-13.69761">
        <ele>151.8</ele>
        <time>2021-07-03 19:25:48</time>
      </trkpt>
      <trkpt lat="29.07421" lon="-13.69759">
        <ele>151.8</ele>
        <time>2021-07-03 19:25:49</time>
      </trkpt>
      <trkpt lat="29.07419" lon="-13.69758">
        <ele>152</ele>
        <time>2021-07-03 19:25:50</time>
      </trkpt>
      <trkpt lat="29.07416" lon="-13.69756">
        <ele>152</ele>
        <time>2021-07-03 19:25:51</time>
      </trkpt>
      <trkpt lat="29.07413" lon="-13.69755">
        <ele>152.2</ele>
        <time>2021-07-03 19:25:52</time>
      </trkpt>
      <trkpt lat="29.0741" lon="-13.69754">
        <ele>152.2</ele>
        <time>2021-07-03 19:25:53</time>
      </trkpt>
      <trkpt lat="29.07407" lon="-13.69753">
        <ele>152.2</ele>
        <time>2021-07-03 19:25:54</time>
      </trkpt>
      <trkpt lat="29.07405" lon="-13.69751">
        <ele>152.4</ele>
        <time>2021-07-03 19:25:55</time>
      </trkpt>
      <trkpt lat="29.07402" lon="-13.6975">
        <ele>152.4</ele>
        <time>2021-07-03 19:25:56</time>
      </trkpt>
      <trkpt lat="29.07399" lon="-13.69749">
        <ele>152.4</ele>
        <time>2021-07-03 19:25:57</time>
      </trkpt>
      <trkpt lat="29.07397" lon="-13.69747">
        <ele>152.8</ele>
        <time>2021-07-03 19:25:58</time>
      </trkpt>
      <trkpt lat="29.07394" lon="-13.69745">
        <ele>152.8</ele>
        <time>2021-07-03 19:25:59</time>
      </trkpt>
      <trkpt lat="29.07391" lon="-13.69743">
        <ele>153</ele>
        <time>2021-07-03 19:26:00</time>
      </trkpt>
      <trkpt lat="29.07389" lon="-13.69742">
        <ele>153</ele>
        <time>2021-07-03 19:26:01</time>
      </trkpt>
      <trkpt lat="29.07386" lon="-13.6974">
        <ele>153.4</ele>
        <time>2021-07-03 19:26:02</time>
      </trkpt>
      <trkpt lat="29.07383" lon="-13.69739">
        <ele>153.4</ele>
        <time>2021-07-03 19:26:03</time>
      </trkpt>
      <trkpt lat="29.07381" lon="-13.69737">
        <ele>153.8</ele>
        <time>2021-07-03 19:26:04</time>
      </trkpt>
      <trkpt lat="29.07379" lon="-13.69735">
        <ele>153.8</ele>
        <time>2021-07-03 19:26:05</time>
      </trkpt>
      <trkpt lat="29.07377" lon="-13.69732">
        <ele>154.2</ele>
        <time>2021-07-03 19:26:06</time>
      </trkpt>
      <trkpt lat="29.07375" lon="-13.6973">
        <ele>154.4</ele>
        <time>2021-07-03 19:26:07</time>
      </trkpt>
      <trkpt lat="29.07373" lon="-13.69729">
        <ele>154.4</ele>
        <time>2021-07-03 19:26:08</time>
      </trkpt>
      <trkpt lat="29.07371" lon="-13.69727">
        <ele>154.8</ele>
        <time>2021-07-03 19:26:09</time>
      </trkpt>
      <trkpt lat="29.07368" lon="-13.69726">
        <ele>154.8</ele>
        <time>2021-07-03 19:26:10</time>
      </trkpt>
      <trkpt lat="29.07366" lon="-13.69725">
        <ele>155</ele>
        <time>2021-07-03 19:26:11</time>
      </trkpt>
      <trkpt lat="29.07363" lon="-13.69723">
        <ele>155</ele>
        <time>2021-07-03 19:26:12</time>
      </trkpt>
      <trkpt lat="29.07361" lon="-13.69722">
        <ele>155.4</ele>
        <time>2021-07-03 19:26:13</time>
      </trkpt>
      <trkpt lat="29.07358" lon="-13.69721">
        <ele>155.4</ele>
        <time>2021-07-03 19:26:14</time>
      </trkpt>
      <trkpt lat="29.07356" lon="-13.6972">
        <ele>155.6</ele>
        <time>2021-07-03 19:26:15</time>
      </trkpt>
      <trkpt lat="29.07353" lon="-13.69719">
        <ele>155.6</ele>
        <time>2021-07-03 19:26:16</time>
      </trkpt>
      <trkpt lat="29.07351" lon="-13.69718">
        <ele>156</ele>
        <time>2021-07-03 19:26:17</time>
      </trkpt>
      <trkpt lat="29.07348" lon="-13.69718">
        <ele>156</ele>
        <time>2021-07-03 19:26:18</time>
      </trkpt>
      <trkpt lat="29.07345" lon="-13.69717">
        <ele>156</ele>
        <time>2021-07-03 19:26:19</time>
      </trkpt>
      <trkpt lat="29.07342" lon="-13.69717">
        <ele>156.2</ele>
        <time>2021-07-03 19:26:20</time>
      </trkpt>
      <trkpt lat="29.07339" lon="-13.69716">
        <ele>156.2</ele>
        <time>2021-07-03 19:26:21</time>
      </trkpt>
      <trkpt lat="29.07336" lon="-13.69715">
        <ele>156.4</ele>
        <time>2021-07-03 19:26:22</time>
      </trkpt>
      <trkpt lat="29.07333" lon="-13.69714">
        <ele>156.4</ele>
        <time>2021-07-03 19:26:23</time>
      </trkpt>
      <trkpt lat="29.0733" lon="-13.69714">
        <ele>156.8</ele>
        <time>2021-07-03 19:26:24</time>
      </trkpt>
      <trkpt lat="29.07327" lon="-13.69713">
        <ele>157</ele>
        <time>2021-07-03 19:26:25</time>
      </trkpt>
      <trkpt lat="29.07325" lon="-13.69712">
        <ele>157</ele>
        <time>2021-07-03 19:26:26</time>
      </trkpt>
      <trkpt lat="29.07322" lon="-13.69712">
        <ele>157</ele>
        <time>2021-07-03 19:26:27</time>
      </trkpt>
      <trkpt lat="29.07319" lon="-13.69712">
        <ele>157.2</ele>
        <time>2021-07-03 19:26:28</time>
      </trkpt>
      <trkpt lat="29.07316" lon="-13.69711">
        <ele>157.2</ele>
        <time>2021-07-03 19:26:29</time>
      </trkpt>
      <trkpt lat="29.07313" lon="-13.69711">
        <ele>157.2</ele>
        <time>2021-07-03 19:26:30</time>
      </trkpt>
      <trkpt lat="29.0731" lon="-13.6971">
        <ele>157.2</ele>
        <time>2021-07-03 19:26:31</time>
      </trkpt>
      <trkpt lat="29.07307" lon="-13.69709">
        <ele>157.2</ele>
        <time>2021-07-03 19:26:32</time>
      </trkpt>
      <trkpt lat="29.07303" lon="-13.69708">
        <ele>157.2</ele>
        <time>2021-07-03 19:26:33</time>
      </trkpt>
      <trkpt lat="29.073" lon="-13.69707">
        <ele>157.2</ele>
        <time>2021-07-03 19:26:34</time>
      </trkpt>
      <trkpt lat="29.07297" lon="-13.69707">
        <ele>157.2</ele>
        <time>2021-07-03 19:26:35</time>
      </trkpt>
      <trkpt lat="29.07294" lon="-13.69706">
        <ele>157.4</ele>
        <time>2021-07-03 19:26:36</time>
      </trkpt>
      <trkpt lat="29.07293" lon="-13.69706">
        <ele>157.4</ele>
        <time>2021-07-03 19:26:37</time>
      </trkpt>
      <trkpt lat="29.07291" lon="-13.69706">
        <ele>157.4</ele>
        <time>2021-07-03 19:26:38</time>
      </trkpt>
      <trkpt lat="29.0729" lon="-13.69704">
        <ele>157.4</ele>
        <time>2021-07-03 19:26:39</time>
      </trkpt>
      <trkpt lat="29.07289" lon="-13.69703">
        <ele>157.4</ele>
        <time>2021-07-03 19:26:40</time>
      </trkpt>
      <trkpt lat="29.07288" lon="-13.69703">
        <ele>157.4</ele>
        <time>2021-07-03 19:26:41</time>
      </trkpt>
      <trkpt lat="29.07287" lon="-13.69702">
        <ele>157.4</ele>
        <time>2021-07-03 19:26:42</time>
      </trkpt>
      <trkpt lat="29.07286" lon="-13.69701">
        <ele>157.4</ele>
        <time>2021-07-03 19:26:43</time>
      </trkpt>
      <trkpt lat="29.07286" lon="-13.69698">
        <ele>157.8</ele>
        <time>2021-07-03 19:26:44</time>
      </trkpt>
      <trkpt lat="29.07285" lon="-13.69695">
        <ele>157.8</ele>
        <time>2021-07-03 19:26:45</time>
      </trkpt>
      <trkpt lat="29.07285" lon="-13.69691">
        <ele>157.8</ele>
        <time>2021-07-03 19:26:46</time>
      </trkpt>
      <trkpt lat="29.07284" lon="-13.69688">
        <ele>157.8</ele>
        <time>2021-07-03 19:26:47</time>
      </trkpt>
      <trkpt lat="29.07284" lon="-13.69684">
        <ele>157.8</ele>
        <time>2021-07-03 19:26:48</time>
      </trkpt>
      <trkpt lat="29.07284" lon="-13.6968">
        <ele>158</ele>
        <time>2021-07-03 19:26:49</time>
      </trkpt>
      <trkpt lat="29.07284" lon="-13.69676">
        <ele>158</ele>
        <time>2021-07-03 19:26:50</time>
      </trkpt>
      <trkpt lat="29.07285" lon="-13.69673">
        <ele>158.2</ele>
        <time>2021-07-03 19:26:51</time>
      </trkpt>
      <trkpt lat="29.07285" lon="-13.69669">
        <ele>158.2</ele>
        <time>2021-07-03 19:26:52</time>
      </trkpt>
      <trkpt lat="29.07286" lon="-13.69666">
        <ele>158.6</ele>
        <time>2021-07-03 19:26:53</time>
      </trkpt>
      <trkpt lat="29.07286" lon="-13.69662">
        <ele>158.6</ele>
        <time>2021-07-03 19:26:54</time>
      </trkpt>
      <trkpt lat="29.07286" lon="-13.69658">
        <ele>159</ele>
        <time>2021-07-03 19:26:55</time>
      </trkpt>
      <trkpt lat="29.07287" lon="-13.69655">
        <ele>159.2</ele>
        <time>2021-07-03 19:26:56</time>
      </trkpt>
      <trkpt lat="29.07287" lon="-13.69652">
        <ele>159.6</ele>
        <time>2021-07-03 19:26:57</time>
      </trkpt>
      <trkpt lat="29.07288" lon="-13.69649">
        <ele>159.8</ele>
        <time>2021-07-03 19:26:58</time>
      </trkpt>
      <trkpt lat="29.07288" lon="-13.69645">
        <ele>160</ele>
        <time>2021-07-03 19:26:59</time>
      </trkpt>
      <trkpt lat="29.07288" lon="-13.69642">
        <ele>160.2</ele>
        <time>2021-07-03 19:27:00</time>
      </trkpt>
      <trkpt lat="29.07288" lon="-13.69639">
        <ele>160.2</ele>
        <time>2021-07-03 19:27:01</time>
      </trkpt>
      <trkpt lat="29.07288" lon="-13.69635">
        <ele>160.6</ele>
        <time>2021-07-03 19:27:02</time>
      </trkpt>
      <trkpt lat="29.07288" lon="-13.69631">
        <ele>160.6</ele>
        <time>2021-07-03 19:27:03</time>
      </trkpt>
      <trkpt lat="29.07288" lon="-13.69627">
        <ele>161</ele>
        <time>2021-07-03 19:27:04</time>
      </trkpt>
      <trkpt lat="29.07289" lon="-13.69623">
        <ele>161</ele>
        <time>2021-07-03 19:27:05</time>
      </trkpt>
      <trkpt lat="29.0729" lon="-13.69618">
        <ele>161</ele>
        <time>2021-07-03 19:27:06</time>
      </trkpt>
      <trkpt lat="29.07291" lon="-13.69613">
        <ele>161</ele>
        <time>2021-07-03 19:27:07</time>
      </trkpt>
      <trkpt lat="29.07291" lon="-13.69609">
        <ele>161</ele>
        <time>2021-07-03 19:27:08</time>
      </trkpt>
      <trkpt lat="29.07292" lon="-13.69604">
        <ele>161</ele>
        <time>2021-07-03 19:27:09</time>
      </trkpt>
      <trkpt lat="29.07293" lon="-13.696">
        <ele>161</ele>
        <time>2021-07-03 19:27:10</time>
      </trkpt>
      <trkpt lat="29.07293" lon="-13.69596">
        <ele>161</ele>
        <time>2021-07-03 19:27:11</time>
      </trkpt>
      <trkpt lat="29.07294" lon="-13.69591">
        <ele>161</ele>
        <time>2021-07-03 19:27:12</time>
      </trkpt>
      <trkpt lat="29.07294" lon="-13.69587">
        <ele>161</ele>
        <time>2021-07-03 19:27:13</time>
      </trkpt>
      <trkpt lat="29.07294" lon="-13.69582">
        <ele>161</ele>
        <time>2021-07-03 19:27:14</time>
      </trkpt>
      <trkpt lat="29.07294" lon="-13.69577">
        <ele>161</ele>
        <time>2021-07-03 19:27:15</time>
      </trkpt>
      <trkpt lat="29.07293" lon="-13.69572">
        <ele>161</ele>
        <time>2021-07-03 19:27:16</time>
      </trkpt>
      <trkpt lat="29.07293" lon="-13.69568">
        <ele>161</ele>
        <time>2021-07-03 19:27:17</time>
      </trkpt>
      <trkpt lat="29.07293" lon="-13.69564">
        <ele>161</ele>
        <time>2021-07-03 19:27:18</time>
      </trkpt>
      <trkpt lat="29.07293" lon="-13.69559">
        <ele>161</ele>
        <time>2021-07-03 19:27:19</time>
      </trkpt>
      <trkpt lat="29.07293" lon="-13.69555">
        <ele>161.2</ele>
        <time>2021-07-03 19:27:20</time>
      </trkpt>
      <trkpt lat="29.07293" lon="-13.69551">
        <ele>161.2</ele>
        <time>2021-07-03 19:27:21</time>
      </trkpt>
      <trkpt lat="29.07293" lon="-13.69546">
        <ele>161.2</ele>
        <time>2021-07-03 19:27:22</time>
      </trkpt>
      <trkpt lat="29.07293" lon="-13.69542">
        <ele>161.4</ele>
        <time>2021-07-03 19:27:23</time>
      </trkpt>
      <trkpt lat="29.07292" lon="-13.69537">
        <ele>161.4</ele>
        <time>2021-07-03 19:27:24</time>
      </trkpt>
      <trkpt lat="29.07292" lon="-13.69532">
        <ele>161.6</ele>
        <time>2021-07-03 19:27:25</time>
      </trkpt>
      <trkpt lat="29.07291" lon="-13.69528">
        <ele>161.6</ele>
        <time>2021-07-03 19:27:26</time>
      </trkpt>
      <trkpt lat="29.07291" lon="-13.69524">
        <ele>161.8</ele>
        <time>2021-07-03 19:27:27</time>
      </trkpt>
      <trkpt lat="29.07292" lon="-13.6952">
        <ele>161.8</ele>
        <time>2021-07-03 19:27:28</time>
      </trkpt>
      <trkpt lat="29.07292" lon="-13.69516">
        <ele>161.8</ele>
        <time>2021-07-03 19:27:29</time>
      </trkpt>
      <trkpt lat="29.07293" lon="-13.69513">
        <ele>162.2</ele>
        <time>2021-07-03 19:27:30</time>
      </trkpt>
      <trkpt lat="29.07295" lon="-13.6951">
        <ele>162.2</ele>
        <time>2021-07-03 19:27:31</time>
      </trkpt>
      <trkpt lat="29.07296" lon="-13.69506">
        <ele>162.4</ele>
        <time>2021-07-03 19:27:32</time>
      </trkpt>
      <trkpt lat="29.07298" lon="-13.69503">
        <ele>162.4</ele>
        <time>2021-07-03 19:27:33</time>
      </trkpt>
      <trkpt lat="29.07299" lon="-13.695">
        <ele>162.8</ele>
        <time>2021-07-03 19:27:34</time>
      </trkpt>
      <trkpt lat="29.073" lon="-13.69497">
        <ele>162.8</ele>
        <time>2021-07-03 19:27:35</time>
      </trkpt>
      <trkpt lat="29.07301" lon="-13.69495">
        <ele>163.2</ele>
        <time>2021-07-03 19:27:36</time>
      </trkpt>
      <trkpt lat="29.07303" lon="-13.69492">
        <ele>163.4</ele>
        <time>2021-07-03 19:27:37</time>
      </trkpt>
      <trkpt lat="29.07304" lon="-13.6949">
        <ele>163.6</ele>
        <time>2021-07-03 19:27:38</time>
      </trkpt>
      <trkpt lat="29.07305" lon="-13.69487">
        <ele>164</ele>
        <time>2021-07-03 19:27:39</time>
      </trkpt>
      <trkpt lat="29.07306" lon="-13.69484">
        <ele>164</ele>
        <time>2021-07-03 19:27:40</time>
      </trkpt>
      <trkpt lat="29.07306" lon="-13.69481">
        <ele>164.4</ele>
        <time>2021-07-03 19:27:41</time>
      </trkpt>
      <trkpt lat="29.07307" lon="-13.69478">
        <ele>164.4</ele>
        <time>2021-07-03 19:27:42</time>
      </trkpt>
      <trkpt lat="29.07307" lon="-13.69475">
        <ele>164.6</ele>
        <time>2021-07-03 19:27:43</time>
      </trkpt>
      <trkpt lat="29.07307" lon="-13.69472">
        <ele>164.6</ele>
        <time>2021-07-03 19:27:44</time>
      </trkpt>
      <trkpt lat="29.07306" lon="-13.69468">
        <ele>164.8</ele>
        <time>2021-07-03 19:27:45</time>
      </trkpt>
      <trkpt lat="29.07306" lon="-13.69464">
        <ele>164.8</ele>
        <time>2021-07-03 19:27:46</time>
      </trkpt>
      <trkpt lat="29.07305" lon="-13.6946">
        <ele>164.8</ele>
        <time>2021-07-03 19:27:47</time>
      </trkpt>
      <trkpt lat="29.07304" lon="-13.69457">
        <ele>164.8</ele>
        <time>2021-07-03 19:27:48</time>
      </trkpt>
      <trkpt lat="29.07303" lon="-13.69453">
        <ele>164.8</ele>
        <time>2021-07-03 19:27:49</time>
      </trkpt>
      <trkpt lat="29.07303" lon="-13.69449">
        <ele>164.8</ele>
        <time>2021-07-03 19:27:50</time>
      </trkpt>
      <trkpt lat="29.07303" lon="-13.69446">
        <ele>164.8</ele>
        <time>2021-07-03 19:27:51</time>
      </trkpt>
      <trkpt lat="29.07303" lon="-13.69444">
        <ele>165</ele>
        <time>2021-07-03 19:27:52</time>
      </trkpt>
      <trkpt lat="29.07303" lon="-13.6944">
        <ele>165</ele>
        <time>2021-07-03 19:27:53</time>
      </trkpt>
      <trkpt lat="29.07303" lon="-13.69437">
        <ele>165</ele>
        <time>2021-07-03 19:27:54</time>
      </trkpt>
      <trkpt lat="29.07302" lon="-13.69433">
        <ele>165</ele>
        <time>2021-07-03 19:27:55</time>
      </trkpt>
      <trkpt lat="29.073" lon="-13.69428">
        <ele>164.6</ele>
        <time>2021-07-03 19:27:56</time>
      </trkpt>
      <trkpt lat="29.07298" lon="-13.69422">
        <ele>164.4</ele>
        <time>2021-07-03 19:27:57</time>
      </trkpt>
      <trkpt lat="29.07297" lon="-13.69416">
        <ele>164.2</ele>
        <time>2021-07-03 19:27:58</time>
      </trkpt>
      <trkpt lat="29.07297" lon="-13.6941">
        <ele>164</ele>
        <time>2021-07-03 19:27:59</time>
      </trkpt>
      <trkpt lat="29.07298" lon="-13.69404">
        <ele>163.6</ele>
        <time>2021-07-03 19:28:00</time>
      </trkpt>
      <trkpt lat="29.07299" lon="-13.694">
        <ele>163.6</ele>
        <time>2021-07-03 19:28:01</time>
      </trkpt>
      <trkpt lat="29.07301" lon="-13.69396">
        <ele>163.6</ele>
        <time>2021-07-03 19:28:02</time>
      </trkpt>
      <trkpt lat="29.07301" lon="-13.69392">
        <ele>163.4</ele>
        <time>2021-07-03 19:28:03</time>
      </trkpt>
      <trkpt lat="29.07302" lon="-13.69389">
        <ele>163.4</ele>
        <time>2021-07-03 19:28:04</time>
      </trkpt>
      <trkpt lat="29.07303" lon="-13.69385">
        <ele>163.4</ele>
        <time>2021-07-03 19:28:05</time>
      </trkpt>
      <trkpt lat="29.07303" lon="-13.69382">
        <ele>163.4</ele>
        <time>2021-07-03 19:28:06</time>
      </trkpt>
      <trkpt lat="29.07302" lon="-13.69379">
        <ele>163.4</ele>
        <time>2021-07-03 19:28:07</time>
      </trkpt>
      <trkpt lat="29.07302" lon="-13.69375">
        <ele>163.4</ele>
        <time>2021-07-03 19:28:08</time>
      </trkpt>
      <trkpt lat="29.07302" lon="-13.69371">
        <ele>163.6</ele>
        <time>2021-07-03 19:28:09</time>
      </trkpt>
      <trkpt lat="29.07301" lon="-13.69368">
        <ele>163.6</ele>
        <time>2021-07-03 19:28:10</time>
      </trkpt>
      <trkpt lat="29.07301" lon="-13.69363">
        <ele>163.6</ele>
        <time>2021-07-03 19:28:11</time>
      </trkpt>
      <trkpt lat="29.073" lon="-13.69359">
        <ele>163.6</ele>
        <time>2021-07-03 19:28:12</time>
      </trkpt>
      <trkpt lat="29.07299" lon="-13.69355">
        <ele>163.6</ele>
        <time>2021-07-03 19:28:13</time>
      </trkpt>
      <trkpt lat="29.07298" lon="-13.69351">
        <ele>163.4</ele>
        <time>2021-07-03 19:28:14</time>
      </trkpt>
      <trkpt lat="29.07296" lon="-13.69347">
        <ele>163.4</ele>
        <time>2021-07-03 19:28:15</time>
      </trkpt>
      <trkpt lat="29.07293" lon="-13.69345">
        <ele>163.2</ele>
        <time>2021-07-03 19:28:16</time>
      </trkpt>
      <trkpt lat="29.0729" lon="-13.69343">
        <ele>163.2</ele>
        <time>2021-07-03 19:28:17</time>
      </trkpt>
      <trkpt lat="29.07286" lon="-13.69342">
        <ele>163.2</ele>
        <time>2021-07-03 19:28:18</time>
      </trkpt>
      <trkpt lat="29.07283" lon="-13.69341">
        <ele>163.2</ele>
        <time>2021-07-03 19:28:19</time>
      </trkpt>
      <trkpt lat="29.0728" lon="-13.69341">
        <ele>163.2</ele>
        <time>2021-07-03 19:28:20</time>
      </trkpt>
      <trkpt lat="29.07277" lon="-13.69341">
        <ele>163.2</ele>
        <time>2021-07-03 19:28:21</time>
      </trkpt>
      <trkpt lat="29.07274" lon="-13.69341">
        <ele>163.4</ele>
        <time>2021-07-03 19:28:22</time>
      </trkpt>
      <trkpt lat="29.07272" lon="-13.69341">
        <ele>163.4</ele>
        <time>2021-07-03 19:28:23</time>
      </trkpt>
      <trkpt lat="29.07269" lon="-13.6934">
        <ele>163.8</ele>
        <time>2021-07-03 19:28:24</time>
      </trkpt>
      <trkpt lat="29.07266" lon="-13.6934">
        <ele>164.2</ele>
        <time>2021-07-03 19:28:25</time>
      </trkpt>
      <trkpt lat="29.07264" lon="-13.69339">
        <ele>164.4</ele>
        <time>2021-07-03 19:28:26</time>
      </trkpt>
      <trkpt lat="29.07261" lon="-13.69339">
        <ele>164.6</ele>
        <time>2021-07-03 19:28:27</time>
      </trkpt>
      <trkpt lat="29.07258" lon="-13.69339">
        <ele>165</ele>
        <time>2021-07-03 19:28:28</time>
      </trkpt>
      <trkpt lat="29.07255" lon="-13.69338">
        <ele>165</ele>
        <time>2021-07-03 19:28:29</time>
      </trkpt>
      <trkpt lat="29.07252" lon="-13.69337">
        <ele>165.2</ele>
        <time>2021-07-03 19:28:30</time>
      </trkpt>
      <trkpt lat="29.07249" lon="-13.69337">
        <ele>165.2</ele>
        <time>2021-07-03 19:28:31</time>
      </trkpt>
      <trkpt lat="29.07246" lon="-13.69336">
        <ele>165.4</ele>
        <time>2021-07-03 19:28:32</time>
      </trkpt>
      <trkpt lat="29.07243" lon="-13.69335">
        <ele>165.4</ele>
        <time>2021-07-03 19:28:33</time>
      </trkpt>
      <trkpt lat="29.0724" lon="-13.69334">
        <ele>165.8</ele>
        <time>2021-07-03 19:28:34</time>
      </trkpt>
      <trkpt lat="29.07237" lon="-13.69332">
        <ele>165.8</ele>
        <time>2021-07-03 19:28:35</time>
      </trkpt>
      <trkpt lat="29.07234" lon="-13.6933">
        <ele>166</ele>
        <time>2021-07-03 19:28:36</time>
      </trkpt>
      <trkpt lat="29.07231" lon="-13.69328">
        <ele>166</ele>
        <time>2021-07-03 19:28:37</time>
      </trkpt>
      <trkpt lat="29.07229" lon="-13.69326">
        <ele>166.4</ele>
        <time>2021-07-03 19:28:38</time>
      </trkpt>
      <trkpt lat="29.07227" lon="-13.69324">
        <ele>166.8</ele>
        <time>2021-07-03 19:28:39</time>
      </trkpt>
      <trkpt lat="29.07224" lon="-13.69321">
        <ele>167</ele>
        <time>2021-07-03 19:28:40</time>
      </trkpt>
      <trkpt lat="29.07222" lon="-13.69319">
        <ele>167.4</ele>
        <time>2021-07-03 19:28:41</time>
      </trkpt>
      <trkpt lat="29.0722" lon="-13.69317">
        <ele>167.6</ele>
        <time>2021-07-03 19:28:42</time>
      </trkpt>
      <trkpt lat="29.07218" lon="-13.69315">
        <ele>168</ele>
        <time>2021-07-03 19:28:43</time>
      </trkpt>
      <trkpt lat="29.07216" lon="-13.69313">
        <ele>168.2</ele>
        <time>2021-07-03 19:28:44</time>
      </trkpt>
      <trkpt lat="29.07214" lon="-13.69311">
        <ele>168.2</ele>
        <time>2021-07-03 19:28:45</time>
      </trkpt>
      <trkpt lat="29.07212" lon="-13.69308">
        <ele>168.6</ele>
        <time>2021-07-03 19:28:46</time>
      </trkpt>
      <trkpt lat="29.0721" lon="-13.69306">
        <ele>168.8</ele>
        <time>2021-07-03 19:28:47</time>
      </trkpt>
      <trkpt lat="29.07208" lon="-13.69304">
        <ele>168.8</ele>
        <time>2021-07-03 19:28:48</time>
      </trkpt>
      <trkpt lat="29.07206" lon="-13.69301">
        <ele>169.2</ele>
        <time>2021-07-03 19:28:49</time>
      </trkpt>
      <trkpt lat="29.07203" lon="-13.69299">
        <ele>169.2</ele>
        <time>2021-07-03 19:28:50</time>
      </trkpt>
      <trkpt lat="29.07201" lon="-13.69296">
        <ele>169.6</ele>
        <time>2021-07-03 19:28:51</time>
      </trkpt>
      <trkpt lat="29.07199" lon="-13.69294">
        <ele>169.6</ele>
        <time>2021-07-03 19:28:52</time>
      </trkpt>
      <trkpt lat="29.07197" lon="-13.69291">
        <ele>170</ele>
        <time>2021-07-03 19:28:53</time>
      </trkpt>
      <trkpt lat="29.07195" lon="-13.69288">
        <ele>170</ele>
        <time>2021-07-03 19:28:54</time>
      </trkpt>
      <trkpt lat="29.07193" lon="-13.69285">
        <ele>170</ele>
        <time>2021-07-03 19:28:55</time>
      </trkpt>
      <trkpt lat="29.0719" lon="-13.69281">
        <ele>170</ele>
        <time>2021-07-03 19:28:56</time>
      </trkpt>
      <trkpt lat="29.07187" lon="-13.69278">
        <ele>170</ele>
        <time>2021-07-03 19:28:57</time>
      </trkpt>
      <trkpt lat="29.07184" lon="-13.69275">
        <ele>170.2</ele>
        <time>2021-07-03 19:28:58</time>
      </trkpt>
      <trkpt lat="29.07182" lon="-13.69272">
        <ele>170.4</ele>
        <time>2021-07-03 19:28:59</time>
      </trkpt>
      <trkpt lat="29.07179" lon="-13.69269">
        <ele>170.4</ele>
        <time>2021-07-03 19:29:00</time>
      </trkpt>
      <trkpt lat="29.07177" lon="-13.69267">
        <ele>170.8</ele>
        <time>2021-07-03 19:29:01</time>
      </trkpt>
      <trkpt lat="29.07175" lon="-13.69264">
        <ele>170.8</ele>
        <time>2021-07-03 19:29:02</time>
      </trkpt>
      <trkpt lat="29.07172" lon="-13.69262">
        <ele>170.8</ele>
        <time>2021-07-03 19:29:03</time>
      </trkpt>
      <trkpt lat="29.0717" lon="-13.69259">
        <ele>171</ele>
        <time>2021-07-03 19:29:04</time>
      </trkpt>
      <trkpt lat="29.07168" lon="-13.69257">
        <ele>171</ele>
        <time>2021-07-03 19:29:05</time>
      </trkpt>
      <trkpt lat="29.07166" lon="-13.69254">
        <ele>171.4</ele>
        <time>2021-07-03 19:29:06</time>
      </trkpt>
      <trkpt lat="29.07164" lon="-13.69252">
        <ele>171.6</ele>
        <time>2021-07-03 19:29:07</time>
      </trkpt>
      <trkpt lat="29.07163" lon="-13.6925">
        <ele>171.8</ele>
        <time>2021-07-03 19:29:08</time>
      </trkpt>
      <trkpt lat="29.07161" lon="-13.69249">
        <ele>171.8</ele>
        <time>2021-07-03 19:29:09</time>
      </trkpt>
      <trkpt lat="29.0716" lon="-13.69248">
        <ele>172.2</ele>
        <time>2021-07-03 19:29:10</time>
      </trkpt>
      <trkpt lat="29.07158" lon="-13.69248">
        <ele>172.2</ele>
        <time>2021-07-03 19:29:11</time>
      </trkpt>
      <trkpt lat="29.07156" lon="-13.69247">
        <ele>172.6</ele>
        <time>2021-07-03 19:29:12</time>
      </trkpt>
      <trkpt lat="29.07154" lon="-13.69245">
        <ele>172.8</ele>
        <time>2021-07-03 19:29:13</time>
      </trkpt>
      <trkpt lat="29.07152" lon="-13.69243">
        <ele>173.2</ele>
        <time>2021-07-03 19:29:14</time>
      </trkpt>
      <trkpt lat="29.0715" lon="-13.69241">
        <ele>173.4</ele>
        <time>2021-07-03 19:29:15</time>
      </trkpt>
      <trkpt lat="29.07149" lon="-13.69239">
        <ele>173.6</ele>
        <time>2021-07-03 19:29:16</time>
      </trkpt>
      <trkpt lat="29.07147" lon="-13.69238">
        <ele>173.8</ele>
        <time>2021-07-03 19:29:17</time>
      </trkpt>
      <trkpt lat="29.07145" lon="-13.69236">
        <ele>173.8</ele>
        <time>2021-07-03 19:29:18</time>
      </trkpt>
      <trkpt lat="29.07143" lon="-13.69234">
        <ele>174.2</ele>
        <time>2021-07-03 19:29:19</time>
      </trkpt>
      <trkpt lat="29.07141" lon="-13.69232">
        <ele>174.4</ele>
        <time>2021-07-03 19:29:20</time>
      </trkpt>
      <trkpt lat="29.07139" lon="-13.6923">
        <ele>174.4</ele>
        <time>2021-07-03 19:29:21</time>
      </trkpt>
      <trkpt lat="29.07137" lon="-13.69228">
        <ele>174.8</ele>
        <time>2021-07-03 19:29:22</time>
      </trkpt>
      <trkpt lat="29.07136" lon="-13.69227">
        <ele>174.8</ele>
        <time>2021-07-03 19:29:23</time>
      </trkpt>
      <trkpt lat="29.07134" lon="-13.69225">
        <ele>175</ele>
        <time>2021-07-03 19:29:24</time>
      </trkpt>
      <trkpt lat="29.07132" lon="-13.69223">
        <ele>175</ele>
        <time>2021-07-03 19:29:25</time>
      </trkpt>
      <trkpt lat="29.0713" lon="-13.69221">
        <ele>175.4</ele>
        <time>2021-07-03 19:29:26</time>
      </trkpt>
      <trkpt lat="29.07128" lon="-13.69219">
        <ele>175.4</ele>
        <time>2021-07-03 19:29:27</time>
      </trkpt>
      <trkpt lat="29.07127" lon="-13.69217">
        <ele>175.4</ele>
        <time>2021-07-03 19:29:28</time>
      </trkpt>
      <trkpt lat="29.07125" lon="-13.69216">
        <ele>175.8</ele>
        <time>2021-07-03 19:29:29</time>
      </trkpt>
      <trkpt lat="29.07124" lon="-13.69214">
        <ele>175.8</ele>
        <time>2021-07-03 19:29:30</time>
      </trkpt>
      <trkpt lat="29.07122" lon="-13.69212">
        <ele>176</ele>
        <time>2021-07-03 19:29:31</time>
      </trkpt>
      <trkpt lat="29.0712" lon="-13.6921">
        <ele>176</ele>
        <time>2021-07-03 19:29:32</time>
      </trkpt>
      <trkpt lat="29.07119" lon="-13.69209">
        <ele>176.4</ele>
        <time>2021-07-03 19:29:33</time>
      </trkpt>
      <trkpt lat="29.07117" lon="-13.69207">
        <ele>176.4</ele>
        <time>2021-07-03 19:29:34</time>
      </trkpt>
      <trkpt lat="29.07116" lon="-13.69206">
        <ele>176.6</ele>
        <time>2021-07-03 19:29:35</time>
      </trkpt>
      <trkpt lat="29.07115" lon="-13.69204">
        <ele>176.6</ele>
        <time>2021-07-03 19:29:36</time>
      </trkpt>
      <trkpt lat="29.07113" lon="-13.69202">
        <ele>177</ele>
        <time>2021-07-03 19:29:37</time>
      </trkpt>
      <trkpt lat="29.07111" lon="-13.69201">
        <ele>177</ele>
        <time>2021-07-03 19:29:38</time>
      </trkpt>
      <trkpt lat="29.0711" lon="-13.69199">
        <ele>177</ele>
        <time>2021-07-03 19:29:39</time>
      </trkpt>
      <trkpt lat="29.07108" lon="-13.69197">
        <ele>177.2</ele>
        <time>2021-07-03 19:29:40</time>
      </trkpt>
      <trkpt lat="29.07107" lon="-13.69195">
        <ele>177.2</ele>
        <time>2021-07-03 19:29:41</time>
      </trkpt>
      <trkpt lat="29.07105" lon="-13.69194">
        <ele>177.4</ele>
        <time>2021-07-03 19:29:42</time>
      </trkpt>
      <trkpt lat="29.07103" lon="-13.69192">
        <ele>177.4</ele>
        <time>2021-07-03 19:29:43</time>
      </trkpt>
      <trkpt lat="29.07102" lon="-13.6919">
        <ele>177.8</ele>
        <time>2021-07-03 19:29:44</time>
      </trkpt>
      <trkpt lat="29.071" lon="-13.69188">
        <ele>177.8</ele>
        <time>2021-07-03 19:29:45</time>
      </trkpt>
      <trkpt lat="29.07098" lon="-13.69186">
        <ele>178.2</ele>
        <time>2021-07-03 19:29:46</time>
      </trkpt>
      <trkpt lat="29.07097" lon="-13.69184">
        <ele>178.2</ele>
        <time>2021-07-03 19:29:47</time>
      </trkpt>
      <trkpt lat="29.07095" lon="-13.69181">
        <ele>178.4</ele>
        <time>2021-07-03 19:29:48</time>
      </trkpt>
      <trkpt lat="29.07094" lon="-13.69177">
        <ele>178.4</ele>
        <time>2021-07-03 19:29:49</time>
      </trkpt>
      <trkpt lat="29.07093" lon="-13.69173">
        <ele>178.4</ele>
        <time>2021-07-03 19:29:50</time>
      </trkpt>
      <trkpt lat="29.07092" lon="-13.69169">
        <ele>178.4</ele>
        <time>2021-07-03 19:29:51</time>
      </trkpt>
      <trkpt lat="29.07092" lon="-13.69163">
        <ele>178.4</ele>
        <time>2021-07-03 19:29:52</time>
      </trkpt>
      <trkpt lat="29.0709" lon="-13.69158">
        <ele>178.4</ele>
        <time>2021-07-03 19:29:53</time>
      </trkpt>
      <trkpt lat="29.07086" lon="-13.69153">
        <ele>177.8</ele>
        <time>2021-07-03 19:29:54</time>
      </trkpt>
      <trkpt lat="29.07082" lon="-13.69147">
        <ele>177.4</ele>
        <time>2021-07-03 19:29:55</time>
      </trkpt>
      <trkpt lat="29.07076" lon="-13.69144">
        <ele>177</ele>
        <time>2021-07-03 19:29:56</time>
      </trkpt>
      <trkpt lat="29.07069" lon="-13.69141">
        <ele>176.6</ele>
        <time>2021-07-03 19:29:57</time>
      </trkpt>
      <trkpt lat="29.07062" lon="-13.6914">
        <ele>176.2</ele>
        <time>2021-07-03 19:29:58</time>
      </trkpt>
      <trkpt lat="29.07055" lon="-13.6914">
        <ele>175.6</ele>
        <time>2021-07-03 19:29:59</time>
      </trkpt>
      <trkpt lat="29.07048" lon="-13.69141">
        <ele>175.2</ele>
        <time>2021-07-03 19:30:00</time>
      </trkpt>
      <trkpt lat="29.07041" lon="-13.69141">
        <ele>175</ele>
        <time>2021-07-03 19:30:01</time>
      </trkpt>
      <trkpt lat="29.07035" lon="-13.69142">
        <ele>174.6</ele>
        <time>2021-07-03 19:30:02</time>
      </trkpt>
      <trkpt lat="29.07029" lon="-13.69142">
        <ele>174.6</ele>
        <time>2021-07-03 19:30:03</time>
      </trkpt>
      <trkpt lat="29.07024" lon="-13.69142">
        <ele>174.6</ele>
        <time>2021-07-03 19:30:04</time>
      </trkpt>
      <trkpt lat="29.0702" lon="-13.69142">
        <ele>174.6</ele>
        <time>2021-07-03 19:30:05</time>
      </trkpt>
      <trkpt lat="29.07015" lon="-13.69141">
        <ele>174.6</ele>
        <time>2021-07-03 19:30:06</time>
      </trkpt>
      <trkpt lat="29.0701" lon="-13.69141">
        <ele>174.6</ele>
        <time>2021-07-03 19:30:07</time>
      </trkpt>
      <trkpt lat="29.07005" lon="-13.69141">
        <ele>174.6</ele>
        <time>2021-07-03 19:30:08</time>
      </trkpt>
      <trkpt lat="29.07002" lon="-13.69141">
        <ele>175</ele>
        <time>2021-07-03 19:30:09</time>
      </trkpt>
      <trkpt lat="29.06998" lon="-13.69141">
        <ele>175</ele>
        <time>2021-07-03 19:30:10</time>
      </trkpt>
      <trkpt lat="29.06995" lon="-13.69141">
        <ele>175.4</ele>
        <time>2021-07-03 19:30:11</time>
      </trkpt>
      <trkpt lat="29.06991" lon="-13.69141">
        <ele>175.4</ele>
        <time>2021-07-03 19:30:12</time>
      </trkpt>
      <trkpt lat="29.06987" lon="-13.69141">
        <ele>175.8</ele>
        <time>2021-07-03 19:30:13</time>
      </trkpt>
      <trkpt lat="29.06984" lon="-13.69141">
        <ele>175.8</ele>
        <time>2021-07-03 19:30:14</time>
      </trkpt>
      <trkpt lat="29.06979" lon="-13.69141">
        <ele>175.8</ele>
        <time>2021-07-03 19:30:15</time>
      </trkpt>
      <trkpt lat="29.06975" lon="-13.6914">
        <ele>176</ele>
        <time>2021-07-03 19:30:16</time>
      </trkpt>
      <trkpt lat="29.0697" lon="-13.6914">
        <ele>176</ele>
        <time>2021-07-03 19:30:17</time>
      </trkpt>
      <trkpt lat="29.06965" lon="-13.6914">
        <ele>176</ele>
        <time>2021-07-03 19:30:18</time>
      </trkpt>
      <trkpt lat="29.06959" lon="-13.6914">
        <ele>175.6</ele>
        <time>2021-07-03 19:30:19</time>
      </trkpt>
      <trkpt lat="29.06953" lon="-13.69139">
        <ele>175.6</ele>
        <time>2021-07-03 19:30:20</time>
      </trkpt>
      <trkpt lat="29.06948" lon="-13.69139">
        <ele>175.4</ele>
        <time>2021-07-03 19:30:21</time>
      </trkpt>
      <trkpt lat="29.06943" lon="-13.69139">
        <ele>175.4</ele>
        <time>2021-07-03 19:30:22</time>
      </trkpt>
      <trkpt lat="29.06938" lon="-13.69139">
        <ele>175.4</ele>
        <time>2021-07-03 19:30:23</time>
      </trkpt>
      <trkpt lat="29.06933" lon="-13.69139">
        <ele>175.4</ele>
        <time>2021-07-03 19:30:24</time>
      </trkpt>
      <trkpt lat="29.06928" lon="-13.69138">
        <ele>175.2</ele>
        <time>2021-07-03 19:30:25</time>
      </trkpt>
      <trkpt lat="29.06924" lon="-13.69138">
        <ele>175.2</ele>
        <time>2021-07-03 19:30:26</time>
      </trkpt>
      <trkpt lat="29.06919" lon="-13.69138">
        <ele>175.2</ele>
        <time>2021-07-03 19:30:27</time>
      </trkpt>
      <trkpt lat="29.06915" lon="-13.69138">
        <ele>175.2</ele>
        <time>2021-07-03 19:30:28</time>
      </trkpt>
      <trkpt lat="29.06911" lon="-13.69138">
        <ele>175.2</ele>
        <time>2021-07-03 19:30:29</time>
      </trkpt>
      <trkpt lat="29.06907" lon="-13.69137">
        <ele>175.6</ele>
        <time>2021-07-03 19:30:30</time>
      </trkpt>
      <trkpt lat="29.06904" lon="-13.69137">
        <ele>175.6</ele>
        <time>2021-07-03 19:30:31</time>
      </trkpt>
      <trkpt lat="29.06901" lon="-13.69137">
        <ele>176</ele>
        <time>2021-07-03 19:30:32</time>
      </trkpt>
      <trkpt lat="29.06898" lon="-13.69137">
        <ele>176.2</ele>
        <time>2021-07-03 19:30:33</time>
      </trkpt>
      <trkpt lat="29.06896" lon="-13.69137">
        <ele>176.6</ele>
        <time>2021-07-03 19:30:34</time>
      </trkpt>
      <trkpt lat="29.06893" lon="-13.69137">
        <ele>176.8</ele>
        <time>2021-07-03 19:30:35</time>
      </trkpt>
      <trkpt lat="29.0689" lon="-13.69137">
        <ele>177.2</ele>
        <time>2021-07-03 19:30:36</time>
      </trkpt>
      <trkpt lat="29.06887" lon="-13.69136">
        <ele>177.4</ele>
        <time>2021-07-03 19:30:37</time>
      </trkpt>
      <trkpt lat="29.06885" lon="-13.69137">
        <ele>177.8</ele>
        <time>2021-07-03 19:30:38</time>
      </trkpt>
      <trkpt lat="29.06882" lon="-13.69137">
        <ele>178</ele>
        <time>2021-07-03 19:30:39</time>
      </trkpt>
      <trkpt lat="29.0688" lon="-13.69137">
        <ele>178.4</ele>
        <time>2021-07-03 19:30:40</time>
      </trkpt>
      <trkpt lat="29.06877" lon="-13.69138">
        <ele>178.6</ele>
        <time>2021-07-03 19:30:41</time>
      </trkpt>
      <trkpt lat="29.06874" lon="-13.69138">
        <ele>178.8</ele>
        <time>2021-07-03 19:30:42</time>
      </trkpt>
      <trkpt lat="29.06871" lon="-13.69138">
        <ele>179</ele>
        <time>2021-07-03 19:30:43</time>
      </trkpt>
      <trkpt lat="29.06869" lon="-13.69137">
        <ele>179.4</ele>
        <time>2021-07-03 19:30:44</time>
      </trkpt>
      <trkpt lat="29.06866" lon="-13.69137">
        <ele>179.4</ele>
        <time>2021-07-03 19:30:45</time>
      </trkpt>
      <trkpt lat="29.06863" lon="-13.69137">
        <ele>179.8</ele>
        <time>2021-07-03 19:30:46</time>
      </trkpt>
      <trkpt lat="29.0686" lon="-13.69136">
        <ele>179.8</ele>
        <time>2021-07-03 19:30:47</time>
      </trkpt>
      <trkpt lat="29.06857" lon="-13.69136">
        <ele>180</ele>
        <time>2021-07-03 19:30:48</time>
      </trkpt>
      <trkpt lat="29.06854" lon="-13.69135">
        <ele>180</ele>
        <time>2021-07-03 19:30:49</time>
      </trkpt>
      <trkpt lat="29.06851" lon="-13.69134">
        <ele>180.4</ele>
        <time>2021-07-03 19:30:50</time>
      </trkpt>
      <trkpt lat="29.06848" lon="-13.69132">
        <ele>180.6</ele>
        <time>2021-07-03 19:30:51</time>
      </trkpt>
      <trkpt lat="29.06846" lon="-13.69129">
        <ele>180.6</ele>
        <time>2021-07-03 19:30:52</time>
      </trkpt>
      <trkpt lat="29.06844" lon="-13.69126">
        <ele>181</ele>
        <time>2021-07-03 19:30:53</time>
      </trkpt>
      <trkpt lat="29.06842" lon="-13.69122">
        <ele>181</ele>
        <time>2021-07-03 19:30:54</time>
      </trkpt>
      <trkpt lat="29.0684" lon="-13.69118">
        <ele>181.2</ele>
        <time>2021-07-03 19:30:55</time>
      </trkpt>
      <trkpt lat="29.06839" lon="-13.69114">
        <ele>181.2</ele>
        <time>2021-07-03 19:30:56</time>
      </trkpt>
      <trkpt lat="29.06837" lon="-13.69111">
        <ele>181.6</ele>
        <time>2021-07-03 19:30:57</time>
      </trkpt>
      <trkpt lat="29.06836" lon="-13.69107">
        <ele>181.6</ele>
        <time>2021-07-03 19:30:58</time>
      </trkpt>
      <trkpt lat="29.06834" lon="-13.69103">
        <ele>181.8</ele>
        <time>2021-07-03 19:30:59</time>
      </trkpt>
      <trkpt lat="29.06833" lon="-13.69099">
        <ele>181.8</ele>
        <time>2021-07-03 19:31:00</time>
      </trkpt>
      <trkpt lat="29.06831" lon="-13.69095">
        <ele>182</ele>
        <time>2021-07-03 19:31:01</time>
      </trkpt>
      <trkpt lat="29.0683" lon="-13.69092">
        <ele>182</ele>
        <time>2021-07-03 19:31:02</time>
      </trkpt>
      <trkpt lat="29.06828" lon="-13.69088">
        <ele>182.4</ele>
        <time>2021-07-03 19:31:03</time>
      </trkpt>
      <trkpt lat="29.06826" lon="-13.69084">
        <ele>182.4</ele>
        <time>2021-07-03 19:31:04</time>
      </trkpt>
      <trkpt lat="29.06824" lon="-13.69081">
        <ele>182.4</ele>
        <time>2021-07-03 19:31:05</time>
      </trkpt>
      <trkpt lat="29.06821" lon="-13.69079">
        <ele>182.4</ele>
        <time>2021-07-03 19:31:06</time>
      </trkpt>
      <trkpt lat="29.06818" lon="-13.69077">
        <ele>182.4</ele>
        <time>2021-07-03 19:31:07</time>
      </trkpt>
      <trkpt lat="29.06815" lon="-13.69076">
        <ele>182.4</ele>
        <time>2021-07-03 19:31:08</time>
      </trkpt>
      <trkpt lat="29.06812" lon="-13.69075">
        <ele>182.4</ele>
        <time>2021-07-03 19:31:09</time>
      </trkpt>
      <trkpt lat="29.06808" lon="-13.69075">
        <ele>182.4</ele>
        <time>2021-07-03 19:31:10</time>
      </trkpt>
      <trkpt lat="29.06804" lon="-13.69075">
        <ele>182.4</ele>
        <time>2021-07-03 19:31:11</time>
      </trkpt>
      <trkpt lat="29.06801" lon="-13.69076">
        <ele>182.4</ele>
        <time>2021-07-03 19:31:12</time>
      </trkpt>
      <trkpt lat="29.06797" lon="-13.69075">
        <ele>182.4</ele>
        <time>2021-07-03 19:31:13</time>
      </trkpt>
      <trkpt lat="29.06794" lon="-13.69075">
        <ele>182.4</ele>
        <time>2021-07-03 19:31:14</time>
      </trkpt>
      <trkpt lat="29.0679" lon="-13.69075">
        <ele>182.4</ele>
        <time>2021-07-03 19:31:15</time>
      </trkpt>
      <trkpt lat="29.06786" lon="-13.69075">
        <ele>182.4</ele>
        <time>2021-07-03 19:31:16</time>
      </trkpt>
      <trkpt lat="29.06783" lon="-13.69075">
        <ele>182.4</ele>
        <time>2021-07-03 19:31:17</time>
      </trkpt>
      <trkpt lat="29.06779" lon="-13.69075">
        <ele>182.4</ele>
        <time>2021-07-03 19:31:18</time>
      </trkpt>
      <trkpt lat="29.06775" lon="-13.69075">
        <ele>182.4</ele>
        <time>2021-07-03 19:31:19</time>
      </trkpt>
      <trkpt lat="29.06772" lon="-13.69075">
        <ele>182.4</ele>
        <time>2021-07-03 19:31:20</time>
      </trkpt>
      <trkpt lat="29.06768" lon="-13.69075">
        <ele>182.4</ele>
        <time>2021-07-03 19:31:21</time>
      </trkpt>
      <trkpt lat="29.06765" lon="-13.69075">
        <ele>182.4</ele>
        <time>2021-07-03 19:31:22</time>
      </trkpt>
      <trkpt lat="29.06761" lon="-13.69074">
        <ele>182.4</ele>
        <time>2021-07-03 19:31:23</time>
      </trkpt>
      <trkpt lat="29.06758" lon="-13.69074">
        <ele>182.4</ele>
        <time>2021-07-03 19:31:24</time>
      </trkpt>
      <trkpt lat="29.06754" lon="-13.69074">
        <ele>182.6</ele>
        <time>2021-07-03 19:31:25</time>
      </trkpt>
      <trkpt lat="29.0675" lon="-13.69074">
        <ele>182.6</ele>
        <time>2021-07-03 19:31:26</time>
      </trkpt>
      <trkpt lat="29.06747" lon="-13.69074">
        <ele>182.8</ele>
        <time>2021-07-03 19:31:27</time>
      </trkpt>
      <trkpt lat="29.06743" lon="-13.69074">
        <ele>182.8</ele>
        <time>2021-07-03 19:31:28</time>
      </trkpt>
      <trkpt lat="29.0674" lon="-13.69073">
        <ele>182.8</ele>
        <time>2021-07-03 19:31:29</time>
      </trkpt>
      <trkpt lat="29.06736" lon="-13.69073">
        <ele>183.2</ele>
        <time>2021-07-03 19:31:30</time>
      </trkpt>
      <trkpt lat="29.06733" lon="-13.69073">
        <ele>183.2</ele>
        <time>2021-07-03 19:31:31</time>
      </trkpt>
      <trkpt lat="29.0673" lon="-13.69073">
        <ele>183.2</ele>
        <time>2021-07-03 19:31:32</time>
      </trkpt>
      <trkpt lat="29.06726" lon="-13.69073">
        <ele>183.4</ele>
        <time>2021-07-03 19:31:33</time>
      </trkpt>
      <trkpt lat="29.06723" lon="-13.69073">
        <ele>183.4</ele>
        <time>2021-07-03 19:31:34</time>
      </trkpt>
      <trkpt lat="29.0672" lon="-13.69073">
        <ele>183.8</ele>
        <time>2021-07-03 19:31:35</time>
      </trkpt>
      <trkpt lat="29.06717" lon="-13.69073">
        <ele>184</ele>
        <time>2021-07-03 19:31:36</time>
      </trkpt>
      <trkpt lat="29.06714" lon="-13.69072">
        <ele>184.4</ele>
        <time>2021-07-03 19:31:37</time>
      </trkpt>
      <trkpt lat="29.06711" lon="-13.69072">
        <ele>184.4</ele>
        <time>2021-07-03 19:31:38</time>
      </trkpt>
      <trkpt lat="29.06708" lon="-13.69072">
        <ele>184.8</ele>
        <time>2021-07-03 19:31:39</time>
      </trkpt>
      <trkpt lat="29.06705" lon="-13.69072">
        <ele>185</ele>
        <time>2021-07-03 19:31:40</time>
      </trkpt>
      <trkpt lat="29.06702" lon="-13.69072">
        <ele>185.4</ele>
        <time>2021-07-03 19:31:41</time>
      </trkpt>
      <trkpt lat="29.067" lon="-13.69072">
        <ele>185.6</ele>
        <time>2021-07-03 19:31:42</time>
      </trkpt>
      <trkpt lat="29.06697" lon="-13.69071">
        <ele>186</ele>
        <time>2021-07-03 19:31:43</time>
      </trkpt>
      <trkpt lat="29.06694" lon="-13.69071">
        <ele>186.2</ele>
        <time>2021-07-03 19:31:44</time>
      </trkpt>
      <trkpt lat="29.06691" lon="-13.69071">
        <ele>186.4</ele>
        <time>2021-07-03 19:31:45</time>
      </trkpt>
      <trkpt lat="29.06689" lon="-13.69071">
        <ele>186.8</ele>
        <time>2021-07-03 19:31:46</time>
      </trkpt>
      <trkpt lat="29.06686" lon="-13.69071">
        <ele>187</ele>
        <time>2021-07-03 19:31:47</time>
      </trkpt>
      <trkpt lat="29.06684" lon="-13.69071">
        <ele>187.4</ele>
        <time>2021-07-03 19:31:48</time>
      </trkpt>
      <trkpt lat="29.06681" lon="-13.69071">
        <ele>187.6</ele>
        <time>2021-07-03 19:31:49</time>
      </trkpt>
      <trkpt lat="29.06679" lon="-13.69071">
        <ele>188</ele>
        <time>2021-07-03 19:31:50</time>
      </trkpt>
      <trkpt lat="29.06676" lon="-13.69071">
        <ele>188.4</ele>
        <time>2021-07-03 19:31:51</time>
      </trkpt>
      <trkpt lat="29.06674" lon="-13.6907">
        <ele>188.8</ele>
        <time>2021-07-03 19:31:52</time>
      </trkpt>
      <trkpt lat="29.06671" lon="-13.6907">
        <ele>189.2</ele>
        <time>2021-07-03 19:31:53</time>
      </trkpt>
      <trkpt lat="29.06669" lon="-13.6907">
        <ele>189.6</ele>
        <time>2021-07-03 19:31:54</time>
      </trkpt>
      <trkpt lat="29.06667" lon="-13.6907">
        <ele>189.8</ele>
        <time>2021-07-03 19:31:55</time>
      </trkpt>
      <trkpt lat="29.06665" lon="-13.69069">
        <ele>189.8</ele>
        <time>2021-07-03 19:31:56</time>
      </trkpt>
      <trkpt lat="29.06663" lon="-13.69069">
        <ele>190</ele>
        <time>2021-07-03 19:31:57</time>
      </trkpt>
      <trkpt lat="29.0666" lon="-13.69069">
        <ele>190</ele>
        <time>2021-07-03 19:31:58</time>
      </trkpt>
      <trkpt lat="29.06657" lon="-13.69068">
        <ele>190</ele>
        <time>2021-07-03 19:31:59</time>
      </trkpt>
      <trkpt lat="29.06655" lon="-13.69068">
        <ele>190.4</ele>
        <time>2021-07-03 19:32:00</time>
      </trkpt>
      <trkpt lat="29.06652" lon="-13.69067">
        <ele>190.4</ele>
        <time>2021-07-03 19:32:01</time>
      </trkpt>
      <trkpt lat="29.06649" lon="-13.69067">
        <ele>190.4</ele>
        <time>2021-07-03 19:32:02</time>
      </trkpt>
      <trkpt lat="29.06646" lon="-13.69066">
        <ele>190.6</ele>
        <time>2021-07-03 19:32:03</time>
      </trkpt>
      <trkpt lat="29.06644" lon="-13.69066">
        <ele>190.6</ele>
        <time>2021-07-03 19:32:04</time>
      </trkpt>
      <trkpt lat="29.06641" lon="-13.69066">
        <ele>190.6</ele>
        <time>2021-07-03 19:32:05</time>
      </trkpt>
      <trkpt lat="29.06639" lon="-13.69066">
        <ele>190.8</ele>
        <time>2021-07-03 19:32:06</time>
      </trkpt>
      <trkpt lat="29.06638" lon="-13.69065">
        <ele>190.8</ele>
        <time>2021-07-03 19:32:07</time>
      </trkpt>
      <trkpt lat="29.06636" lon="-13.69064">
        <ele>190.8</ele>
        <time>2021-07-03 19:32:08</time>
      </trkpt>
      <trkpt lat="29.06634" lon="-13.69062">
        <ele>191</ele>
        <time>2021-07-03 19:32:09</time>
      </trkpt>
      <trkpt lat="29.06633" lon="-13.6906">
        <ele>191</ele>
        <time>2021-07-03 19:32:10</time>
      </trkpt>
      <trkpt lat="29.06632" lon="-13.69056">
        <ele>191.4</ele>
        <time>2021-07-03 19:32:11</time>
      </trkpt>
      <trkpt lat="29.06631" lon="-13.69053">
        <ele>191.4</ele>
        <time>2021-07-03 19:32:12</time>
      </trkpt>
      <trkpt lat="29.06631" lon="-13.69049">
        <ele>191.4</ele>
        <time>2021-07-03 19:32:13</time>
      </trkpt>
      <trkpt lat="29.06631" lon="-13.69045">
        <ele>191.4</ele>
        <time>2021-07-03 19:32:14</time>
      </trkpt>
      <trkpt lat="29.06631" lon="-13.69041">
        <ele>191.6</ele>
        <time>2021-07-03 19:32:15</time>
      </trkpt>
      <trkpt lat="29.06631" lon="-13.69037">
        <ele>191.6</ele>
        <time>2021-07-03 19:32:16</time>
      </trkpt>
      <trkpt lat="29.0663" lon="-13.69032">
        <ele>191.6</ele>
        <time>2021-07-03 19:32:17</time>
      </trkpt>
      <trkpt lat="29.0663" lon="-13.69028">
        <ele>191.8</ele>
        <time>2021-07-03 19:32:18</time>
      </trkpt>
      <trkpt lat="29.0663" lon="-13.69023">
        <ele>191.8</ele>
        <time>2021-07-03 19:32:19</time>
      </trkpt>
      <trkpt lat="29.0663" lon="-13.69019">
        <ele>191.8</ele>
        <time>2021-07-03 19:32:20</time>
      </trkpt>
      <trkpt lat="29.0663" lon="-13.69015">
        <ele>192</ele>
        <time>2021-07-03 19:32:21</time>
      </trkpt>
      <trkpt lat="29.0663" lon="-13.6901">
        <ele>192</ele>
        <time>2021-07-03 19:32:22</time>
      </trkpt>
      <trkpt lat="29.0663" lon="-13.69006">
        <ele>192</ele>
        <time>2021-07-03 19:32:23</time>
      </trkpt>
      <trkpt lat="29.0663" lon="-13.69001">
        <ele>192.2</ele>
        <time>2021-07-03 19:32:24</time>
      </trkpt>
      <trkpt lat="29.0663" lon="-13.68997">
        <ele>192.2</ele>
        <time>2021-07-03 19:32:25</time>
      </trkpt>
      <trkpt lat="29.06629" lon="-13.68993">
        <ele>192.2</ele>
        <time>2021-07-03 19:32:26</time>
      </trkpt>
      <trkpt lat="29.06629" lon="-13.68988">
        <ele>192.2</ele>
        <time>2021-07-03 19:32:27</time>
      </trkpt>
      <trkpt lat="29.06629" lon="-13.68984">
        <ele>192.4</ele>
        <time>2021-07-03 19:32:28</time>
      </trkpt>
      <trkpt lat="29.06629" lon="-13.68979">
        <ele>192.4</ele>
        <time>2021-07-03 19:32:29</time>
      </trkpt>
      <trkpt lat="29.06628" lon="-13.68975">
        <ele>192.4</ele>
        <time>2021-07-03 19:32:30</time>
      </trkpt>
      <trkpt lat="29.06628" lon="-13.6897">
        <ele>192.6</ele>
        <time>2021-07-03 19:32:31</time>
      </trkpt>
      <trkpt lat="29.06628" lon="-13.68966">
        <ele>192.6</ele>
        <time>2021-07-03 19:32:32</time>
      </trkpt>
      <trkpt lat="29.06628" lon="-13.68962">
        <ele>192.6</ele>
        <time>2021-07-03 19:32:33</time>
      </trkpt>
      <trkpt lat="29.06627" lon="-13.68958">
        <ele>193</ele>
        <time>2021-07-03 19:32:34</time>
      </trkpt>
      <trkpt lat="29.06627" lon="-13.68954">
        <ele>193</ele>
        <time>2021-07-03 19:32:35</time>
      </trkpt>
      <trkpt lat="29.06627" lon="-13.68951">
        <ele>193.4</ele>
        <time>2021-07-03 19:32:36</time>
      </trkpt>
      <trkpt lat="29.06627" lon="-13.68948">
        <ele>193.6</ele>
        <time>2021-07-03 19:32:37</time>
      </trkpt>
      <trkpt lat="29.06627" lon="-13.68945">
        <ele>193.8</ele>
        <time>2021-07-03 19:32:38</time>
      </trkpt>
      <trkpt lat="29.06627" lon="-13.68943">
        <ele>193.8</ele>
        <time>2021-07-03 19:32:39</time>
      </trkpt>
      <trkpt lat="29.06626" lon="-13.6894">
        <ele>194.4</ele>
        <time>2021-07-03 19:32:40</time>
      </trkpt>
      <trkpt lat="29.06626" lon="-13.68937">
        <ele>194.6</ele>
        <time>2021-07-03 19:32:41</time>
      </trkpt>
      <trkpt lat="29.06626" lon="-13.68934">
        <ele>195</ele>
        <time>2021-07-03 19:32:42</time>
      </trkpt>
      <trkpt lat="29.06626" lon="-13.68932">
        <ele>195.2</ele>
        <time>2021-07-03 19:32:43</time>
      </trkpt>
      <trkpt lat="29.06626" lon="-13.68929">
        <ele>195.6</ele>
        <time>2021-07-03 19:32:44</time>
      </trkpt>
      <trkpt lat="29.06626" lon="-13.68927">
        <ele>196</ele>
        <time>2021-07-03 19:32:45</time>
      </trkpt>
      <trkpt lat="29.06626" lon="-13.68924">
        <ele>196.2</ele>
        <time>2021-07-03 19:32:46</time>
      </trkpt>
      <trkpt lat="29.06626" lon="-13.68921">
        <ele>196.6</ele>
        <time>2021-07-03 19:32:47</time>
      </trkpt>
      <trkpt lat="29.06626" lon="-13.68919">
        <ele>196.8</ele>
        <time>2021-07-03 19:32:48</time>
      </trkpt>
      <trkpt lat="29.06626" lon="-13.68917">
        <ele>197</ele>
        <time>2021-07-03 19:32:49</time>
      </trkpt>
      <trkpt lat="29.06626" lon="-13.68915">
        <ele>197</ele>
        <time>2021-07-03 19:32:50</time>
      </trkpt>
      <trkpt lat="29.06625" lon="-13.68912">
        <ele>197.4</ele>
        <time>2021-07-03 19:32:51</time>
      </trkpt>
      <trkpt lat="29.06625" lon="-13.6891">
        <ele>197.6</ele>
        <time>2021-07-03 19:32:52</time>
      </trkpt>
      <trkpt lat="29.06624" lon="-13.68908">
        <ele>197.8</ele>
        <time>2021-07-03 19:32:53</time>
      </trkpt>
      <trkpt lat="29.06623" lon="-13.68905">
        <ele>198.2</ele>
        <time>2021-07-03 19:32:54</time>
      </trkpt>
      <trkpt lat="29.06621" lon="-13.68903">
        <ele>198.4</ele>
        <time>2021-07-03 19:32:55</time>
      </trkpt>
      <trkpt lat="29.06619" lon="-13.68902">
        <ele>198.8</ele>
        <time>2021-07-03 19:32:56</time>
      </trkpt>
      <trkpt lat="29.06616" lon="-13.68903">
        <ele>199</ele>
        <time>2021-07-03 19:32:57</time>
      </trkpt>
      <trkpt lat="29.0661" lon="-13.68906">
        <ele>199.2</ele>
        <time>2021-07-03 19:32:58</time>
      </trkpt>
      <trkpt lat="29.06608" lon="-13.68908">
        <ele>199.2</ele>
        <time>2021-07-03 19:32:59</time>
      </trkpt>
      <trkpt lat="29.06605" lon="-13.68911">
        <ele>199.2</ele>
        <time>2021-07-03 19:33:00</time>
      </trkpt>
      <trkpt lat="29.06601" lon="-13.68913">
        <ele>199.2</ele>
        <time>2021-07-03 19:33:01</time>
      </trkpt>
      <trkpt lat="29.06598" lon="-13.68914">
        <ele>199.4</ele>
        <time>2021-07-03 19:33:02</time>
      </trkpt>
      <trkpt lat="29.06595" lon="-13.68916">
        <ele>199.4</ele>
        <time>2021-07-03 19:33:03</time>
      </trkpt>
      <trkpt lat="29.06591" lon="-13.68918">
        <ele>199.4</ele>
        <time>2021-07-03 19:33:04</time>
      </trkpt>
      <trkpt lat="29.06588" lon="-13.6892">
        <ele>199.6</ele>
        <time>2021-07-03 19:33:05</time>
      </trkpt>
      <trkpt lat="29.06585" lon="-13.68922">
        <ele>199.6</ele>
        <time>2021-07-03 19:33:06</time>
      </trkpt>
      <trkpt lat="29.06582" lon="-13.68924">
        <ele>199.6</ele>
        <time>2021-07-03 19:33:07</time>
      </trkpt>
      <trkpt lat="29.06578" lon="-13.68925">
        <ele>200</ele>
        <time>2021-07-03 19:33:08</time>
      </trkpt>
      <trkpt lat="29.06575" lon="-13.68927">
        <ele>200</ele>
        <time>2021-07-03 19:33:09</time>
      </trkpt>
      <trkpt lat="29.06572" lon="-13.68928">
        <ele>200.2</ele>
        <time>2021-07-03 19:33:10</time>
      </trkpt>
      <trkpt lat="29.06569" lon="-13.6893">
        <ele>200.4</ele>
        <time>2021-07-03 19:33:11</time>
      </trkpt>
      <trkpt lat="29.06566" lon="-13.68931">
        <ele>200.6</ele>
        <time>2021-07-03 19:33:12</time>
      </trkpt>
      <trkpt lat="29.06562" lon="-13.68932">
        <ele>200.6</ele>
        <time>2021-07-03 19:33:13</time>
      </trkpt>
      <trkpt lat="29.06559" lon="-13.68932">
        <ele>200.8</ele>
        <time>2021-07-03 19:33:14</time>
      </trkpt>
      <trkpt lat="29.06556" lon="-13.68933">
        <ele>200.8</ele>
        <time>2021-07-03 19:33:15</time>
      </trkpt>
      <trkpt lat="29.06552" lon="-13.68934">
        <ele>200.8</ele>
        <time>2021-07-03 19:33:16</time>
      </trkpt>
      <trkpt lat="29.06548" lon="-13.68934">
        <ele>200.8</ele>
        <time>2021-07-03 19:33:17</time>
      </trkpt>
      <trkpt lat="29.06544" lon="-13.68934">
        <ele>201</ele>
        <time>2021-07-03 19:33:18</time>
      </trkpt>
      <trkpt lat="29.0654" lon="-13.68934">
        <ele>201</ele>
        <time>2021-07-03 19:33:19</time>
      </trkpt>
      <trkpt lat="29.06537" lon="-13.68934">
        <ele>201</ele>
        <time>2021-07-03 19:33:20</time>
      </trkpt>
      <trkpt lat="29.06533" lon="-13.68934">
        <ele>201</ele>
        <time>2021-07-03 19:33:21</time>
      </trkpt>
      <trkpt lat="29.06529" lon="-13.68933">
        <ele>201</ele>
        <time>2021-07-03 19:33:22</time>
      </trkpt>
      <trkpt lat="29.06525" lon="-13.68934">
        <ele>201</ele>
        <time>2021-07-03 19:33:23</time>
      </trkpt>
      <trkpt lat="29.06521" lon="-13.68934">
        <ele>201</ele>
        <time>2021-07-03 19:33:24</time>
      </trkpt>
      <trkpt lat="29.06517" lon="-13.68934">
        <ele>201</ele>
        <time>2021-07-03 19:33:25</time>
      </trkpt>
      <trkpt lat="29.06514" lon="-13.68935">
        <ele>201</ele>
        <time>2021-07-03 19:33:26</time>
      </trkpt>
      <trkpt lat="29.0651" lon="-13.68935">
        <ele>201.4</ele>
        <time>2021-07-03 19:33:27</time>
      </trkpt>
      <trkpt lat="29.06507" lon="-13.68936">
        <ele>201.4</ele>
        <time>2021-07-03 19:33:28</time>
      </trkpt>
      <trkpt lat="29.06503" lon="-13.68937">
        <ele>201.6</ele>
        <time>2021-07-03 19:33:29</time>
      </trkpt>
      <trkpt lat="29.06499" lon="-13.68938">
        <ele>201.6</ele>
        <time>2021-07-03 19:33:30</time>
      </trkpt>
      <trkpt lat="29.06495" lon="-13.68939">
        <ele>201.6</ele>
        <time>2021-07-03 19:33:31</time>
      </trkpt>
      <trkpt lat="29.06491" lon="-13.68939">
        <ele>201.6</ele>
        <time>2021-07-03 19:33:32</time>
      </trkpt>
      <trkpt lat="29.06486" lon="-13.68939">
        <ele>201.6</ele>
        <time>2021-07-03 19:33:33</time>
      </trkpt>
      <trkpt lat="29.06482" lon="-13.68939">
        <ele>201.4</ele>
        <time>2021-07-03 19:33:34</time>
      </trkpt>
      <trkpt lat="29.06477" lon="-13.68938">
        <ele>201.4</ele>
        <time>2021-07-03 19:33:35</time>
      </trkpt>
      <trkpt lat="29.06474" lon="-13.68938">
        <ele>201.4</ele>
        <time>2021-07-03 19:33:36</time>
      </trkpt>
      <trkpt lat="29.0647" lon="-13.68937">
        <ele>201.4</ele>
        <time>2021-07-03 19:33:37</time>
      </trkpt>
      <trkpt lat="29.06466" lon="-13.68935">
        <ele>201.4</ele>
        <time>2021-07-03 19:33:38</time>
      </trkpt>
      <trkpt lat="29.06462" lon="-13.68934">
        <ele>201.4</ele>
        <time>2021-07-03 19:33:39</time>
      </trkpt>
      <trkpt lat="29.06459" lon="-13.68932">
        <ele>201.4</ele>
        <time>2021-07-03 19:33:40</time>
      </trkpt>
      <trkpt lat="29.06455" lon="-13.68931">
        <ele>201.4</ele>
        <time>2021-07-03 19:33:41</time>
      </trkpt>
      <trkpt lat="29.06451" lon="-13.6893">
        <ele>201.8</ele>
        <time>2021-07-03 19:33:42</time>
      </trkpt>
      <trkpt lat="29.06448" lon="-13.68929">
        <ele>201.8</ele>
        <time>2021-07-03 19:33:43</time>
      </trkpt>
      <trkpt lat="29.06445" lon="-13.68929">
        <ele>202</ele>
        <time>2021-07-03 19:33:44</time>
      </trkpt>
      <trkpt lat="29.06442" lon="-13.68928">
        <ele>202</ele>
        <time>2021-07-03 19:33:45</time>
      </trkpt>
      <trkpt lat="29.06438" lon="-13.68927">
        <ele>202.4</ele>
        <time>2021-07-03 19:33:46</time>
      </trkpt>
      <trkpt lat="29.06435" lon="-13.68927">
        <ele>202.6</ele>
        <time>2021-07-03 19:33:47</time>
      </trkpt>
      <trkpt lat="29.06432" lon="-13.68926">
        <ele>202.6</ele>
        <time>2021-07-03 19:33:48</time>
      </trkpt>
      <trkpt lat="29.06429" lon="-13.68926">
        <ele>203</ele>
        <time>2021-07-03 19:33:49</time>
      </trkpt>
      <trkpt lat="29.06425" lon="-13.68926">
        <ele>203</ele>
        <time>2021-07-03 19:33:50</time>
      </trkpt>
      <trkpt lat="29.06422" lon="-13.68926">
        <ele>203.4</ele>
        <time>2021-07-03 19:33:51</time>
      </trkpt>
      <trkpt lat="29.06418" lon="-13.68927">
        <ele>203.4</ele>
        <time>2021-07-03 19:33:52</time>
      </trkpt>
      <trkpt lat="29.06414" lon="-13.68926">
        <ele>203.8</ele>
        <time>2021-07-03 19:33:53</time>
      </trkpt>
      <trkpt lat="29.06411" lon="-13.68926">
        <ele>203.8</ele>
        <time>2021-07-03 19:33:54</time>
      </trkpt>
      <trkpt lat="29.06407" lon="-13.68926">
        <ele>204.2</ele>
        <time>2021-07-03 19:33:55</time>
      </trkpt>
      <trkpt lat="29.06404" lon="-13.68926">
        <ele>204.4</ele>
        <time>2021-07-03 19:33:56</time>
      </trkpt>
      <trkpt lat="29.06401" lon="-13.68926">
        <ele>204.6</ele>
        <time>2021-07-03 19:33:57</time>
      </trkpt>
      <trkpt lat="29.06398" lon="-13.68926">
        <ele>204.8</ele>
        <time>2021-07-03 19:33:58</time>
      </trkpt>
      <trkpt lat="29.06395" lon="-13.68926">
        <ele>205</ele>
        <time>2021-07-03 19:33:59</time>
      </trkpt>
      <trkpt lat="29.06392" lon="-13.68925">
        <ele>205.4</ele>
        <time>2021-07-03 19:34:00</time>
      </trkpt>
      <trkpt lat="29.06389" lon="-13.68924">
        <ele>205.6</ele>
        <time>2021-07-03 19:34:01</time>
      </trkpt>
      <trkpt lat="29.06385" lon="-13.68924">
        <ele>205.6</ele>
        <time>2021-07-03 19:34:02</time>
      </trkpt>
      <trkpt lat="29.06382" lon="-13.68924">
        <ele>206</ele>
        <time>2021-07-03 19:34:03</time>
      </trkpt>
      <trkpt lat="29.06379" lon="-13.68923">
        <ele>206.4</ele>
        <time>2021-07-03 19:34:04</time>
      </trkpt>
      <trkpt lat="29.06376" lon="-13.68922">
        <ele>206.4</ele>
        <time>2021-07-03 19:34:05</time>
      </trkpt>
      <trkpt lat="29.06373" lon="-13.68921">
        <ele>206.6</ele>
        <time>2021-07-03 19:34:06</time>
      </trkpt>
      <trkpt lat="29.06369" lon="-13.6892">
        <ele>206.6</ele>
        <time>2021-07-03 19:34:07</time>
      </trkpt>
      <trkpt lat="29.06366" lon="-13.68919">
        <ele>206.6</ele>
        <time>2021-07-03 19:34:08</time>
      </trkpt>
      <trkpt lat="29.06362" lon="-13.68919">
        <ele>206.6</ele>
        <time>2021-07-03 19:34:09</time>
      </trkpt>
      <trkpt lat="29.06359" lon="-13.68919">
        <ele>206.6</ele>
        <time>2021-07-03 19:34:10</time>
      </trkpt>
      <trkpt lat="29.06355" lon="-13.68919">
        <ele>206.6</ele>
        <time>2021-07-03 19:34:11</time>
      </trkpt>
      <trkpt lat="29.06352" lon="-13.6892">
        <ele>206.6</ele>
        <time>2021-07-03 19:34:12</time>
      </trkpt>
      <trkpt lat="29.06348" lon="-13.68922">
        <ele>206.2</ele>
        <time>2021-07-03 19:34:13</time>
      </trkpt>
      <trkpt lat="29.06345" lon="-13.68925">
        <ele>206.2</ele>
        <time>2021-07-03 19:34:14</time>
      </trkpt>
      <trkpt lat="29.06343" lon="-13.68931">
        <ele>206.2</ele>
        <time>2021-07-03 19:34:15</time>
      </trkpt>
      <trkpt lat="29.0634" lon="-13.68934">
        <ele>206.2</ele>
        <time>2021-07-03 19:34:16</time>
      </trkpt>
      <trkpt lat="29.06336" lon="-13.68937">
        <ele>206</ele>
        <time>2021-07-03 19:34:17</time>
      </trkpt>
      <trkpt lat="29.06333" lon="-13.6894">
        <ele>206</ele>
        <time>2021-07-03 19:34:18</time>
      </trkpt>
      <trkpt lat="29.06329" lon="-13.68942">
        <ele>206</ele>
        <time>2021-07-03 19:34:19</time>
      </trkpt>
      <trkpt lat="29.06326" lon="-13.68945">
        <ele>206</ele>
        <time>2021-07-03 19:34:20</time>
      </trkpt>
      <trkpt lat="29.06322" lon="-13.68947">
        <ele>206</ele>
        <time>2021-07-03 19:34:21</time>
      </trkpt>
      <trkpt lat="29.06319" lon="-13.68948">
        <ele>206</ele>
        <time>2021-07-03 19:34:22</time>
      </trkpt>
      <trkpt lat="29.06316" lon="-13.6895">
        <ele>206.2</ele>
        <time>2021-07-03 19:34:23</time>
      </trkpt>
      <trkpt lat="29.06314" lon="-13.68952">
        <ele>206.2</ele>
        <time>2021-07-03 19:34:24</time>
      </trkpt>
      <trkpt lat="29.06312" lon="-13.68954">
        <ele>206.6</ele>
        <time>2021-07-03 19:34:25</time>
      </trkpt>
      <trkpt lat="29.0631" lon="-13.68956">
        <ele>206.6</ele>
        <time>2021-07-03 19:34:26</time>
      </trkpt>
      <trkpt lat="29.06307" lon="-13.68958">
        <ele>207</ele>
        <time>2021-07-03 19:34:27</time>
      </trkpt>
      <trkpt lat="29.06305" lon="-13.68961">
        <ele>207</ele>
        <time>2021-07-03 19:34:28</time>
      </trkpt>
      <trkpt lat="29.06302" lon="-13.68963">
        <ele>207.2</ele>
        <time>2021-07-03 19:34:29</time>
      </trkpt>
      <trkpt lat="29.06299" lon="-13.68966">
        <ele>207.2</ele>
        <time>2021-07-03 19:34:30</time>
      </trkpt>
      <trkpt lat="29.06296" lon="-13.68968">
        <ele>207.6</ele>
        <time>2021-07-03 19:34:31</time>
      </trkpt>
      <trkpt lat="29.06294" lon="-13.6897">
        <ele>207.8</ele>
        <time>2021-07-03 19:34:32</time>
      </trkpt>
      <trkpt lat="29.06291" lon="-13.68972">
        <ele>207.8</ele>
        <time>2021-07-03 19:34:33</time>
      </trkpt>
      <trkpt lat="29.06288" lon="-13.68974">
        <ele>208.2</ele>
        <time>2021-07-03 19:34:34</time>
      </trkpt>
      <trkpt lat="29.06285" lon="-13.68975">
        <ele>208.4</ele>
        <time>2021-07-03 19:34:35</time>
      </trkpt>
      <trkpt lat="29.06282" lon="-13.68977">
        <ele>208.6</ele>
        <time>2021-07-03 19:34:36</time>
      </trkpt>
      <trkpt lat="29.06279" lon="-13.68978">
        <ele>208.8</ele>
        <time>2021-07-03 19:34:37</time>
      </trkpt>
      <trkpt lat="29.06275" lon="-13.68979">
        <ele>208.8</ele>
        <time>2021-07-03 19:34:38</time>
      </trkpt>
      <trkpt lat="29.06272" lon="-13.68981">
        <ele>209.2</ele>
        <time>2021-07-03 19:34:39</time>
      </trkpt>
      <trkpt lat="29.06269" lon="-13.68981">
        <ele>209.2</ele>
        <time>2021-07-03 19:34:40</time>
      </trkpt>
      <trkpt lat="29.06266" lon="-13.68983">
        <ele>209.4</ele>
        <time>2021-07-03 19:34:41</time>
      </trkpt>
      <trkpt lat="29.06262" lon="-13.68984">
        <ele>209.4</ele>
        <time>2021-07-03 19:34:42</time>
      </trkpt>
      <trkpt lat="29.06259" lon="-13.68985">
        <ele>209.4</ele>
        <time>2021-07-03 19:34:43</time>
      </trkpt>
      <trkpt lat="29.06256" lon="-13.68986">
        <ele>209.8</ele>
        <time>2021-07-03 19:34:44</time>
      </trkpt>
      <trkpt lat="29.06252" lon="-13.68987">
        <ele>210</ele>
        <time>2021-07-03 19:34:45</time>
      </trkpt>
      <trkpt lat="29.06249" lon="-13.68988">
        <ele>210</ele>
        <time>2021-07-03 19:34:46</time>
      </trkpt>
      <trkpt lat="29.06245" lon="-13.68989">
        <ele>210.2</ele>
        <time>2021-07-03 19:34:47</time>
      </trkpt>
      <trkpt lat="29.06242" lon="-13.6899">
        <ele>210.2</ele>
        <time>2021-07-03 19:34:48</time>
      </trkpt>
      <trkpt lat="29.06238" lon="-13.6899">
        <ele>210.6</ele>
        <time>2021-07-03 19:34:49</time>
      </trkpt>
      <trkpt lat="29.06235" lon="-13.6899">
        <ele>210.6</ele>
        <time>2021-07-03 19:34:50</time>
      </trkpt>
      <trkpt lat="29.06232" lon="-13.68989">
        <ele>210.8</ele>
        <time>2021-07-03 19:34:51</time>
      </trkpt>
      <trkpt lat="29.06228" lon="-13.68988">
        <ele>210.8</ele>
        <time>2021-07-03 19:34:52</time>
      </trkpt>
      <trkpt lat="29.06225" lon="-13.68985">
        <ele>211</ele>
        <time>2021-07-03 19:34:53</time>
      </trkpt>
      <trkpt lat="29.06222" lon="-13.68982">
        <ele>211</ele>
        <time>2021-07-03 19:34:54</time>
      </trkpt>
      <trkpt lat="29.0622" lon="-13.68979">
        <ele>211.4</ele>
        <time>2021-07-03 19:34:55</time>
      </trkpt>
      <trkpt lat="29.06218" lon="-13.68976">
        <ele>211.4</ele>
        <time>2021-07-03 19:34:56</time>
      </trkpt>
      <trkpt lat="29.06215" lon="-13.68972">
        <ele>211.4</ele>
        <time>2021-07-03 19:34:57</time>
      </trkpt>
      <trkpt lat="29.06212" lon="-13.68969">
        <ele>211.6</ele>
        <time>2021-07-03 19:34:58</time>
      </trkpt>
      <trkpt lat="29.06208" lon="-13.68967">
        <ele>211.6</ele>
        <time>2021-07-03 19:34:59</time>
      </trkpt>
      <trkpt lat="29.06204" lon="-13.68966">
        <ele>212</ele>
        <time>2021-07-03 19:35:00</time>
      </trkpt>
      <trkpt lat="29.06201" lon="-13.68966">
        <ele>212</ele>
        <time>2021-07-03 19:35:01</time>
      </trkpt>
      <trkpt lat="29.06197" lon="-13.68966">
        <ele>212.2</ele>
        <time>2021-07-03 19:35:02</time>
      </trkpt>
      <trkpt lat="29.06193" lon="-13.68966">
        <ele>212.2</ele>
        <time>2021-07-03 19:35:03</time>
      </trkpt>
      <trkpt lat="29.06189" lon="-13.68966">
        <ele>212.2</ele>
        <time>2021-07-03 19:35:04</time>
      </trkpt>
      <trkpt lat="29.06185" lon="-13.68966">
        <ele>212.4</ele>
        <time>2021-07-03 19:35:05</time>
      </trkpt>
      <trkpt lat="29.06181" lon="-13.68966">
        <ele>212.4</ele>
        <time>2021-07-03 19:35:06</time>
      </trkpt>
      <trkpt lat="29.06177" lon="-13.68966">
        <ele>212.6</ele>
        <time>2021-07-03 19:35:07</time>
      </trkpt>
      <trkpt lat="29.06173" lon="-13.68966">
        <ele>212.6</ele>
        <time>2021-07-03 19:35:08</time>
      </trkpt>
      <trkpt lat="29.0617" lon="-13.68966">
        <ele>212.6</ele>
        <time>2021-07-03 19:35:09</time>
      </trkpt>
      <trkpt lat="29.0615" lon="-13.68966">
        <ele>212.8</ele>
        <time>2021-07-03 19:35:10</time>
      </trkpt>
      <trkpt lat="29.06145" lon="-13.68966">
        <ele>212.8</ele>
        <time>2021-07-03 19:35:11</time>
      </trkpt>
      <trkpt lat="29.06141" lon="-13.68965">
        <ele>212.8</ele>
        <time>2021-07-03 19:35:12</time>
      </trkpt>
      <trkpt lat="29.06137" lon="-13.68965">
        <ele>213</ele>
        <time>2021-07-03 19:35:13</time>
      </trkpt>
      <trkpt lat="29.06132" lon="-13.68965">
        <ele>213</ele>
        <time>2021-07-03 19:35:14</time>
      </trkpt>
      <trkpt lat="29.06128" lon="-13.68965">
        <ele>213</ele>
        <time>2021-07-03 19:35:15</time>
      </trkpt>
      <trkpt lat="29.06124" lon="-13.68964">
        <ele>213</ele>
        <time>2021-07-03 19:35:16</time>
      </trkpt>
      <trkpt lat="29.06119" lon="-13.68964">
        <ele>213</ele>
        <time>2021-07-03 19:35:17</time>
      </trkpt>
      <trkpt lat="29.06114" lon="-13.68963">
        <ele>213</ele>
        <time>2021-07-03 19:35:18</time>
      </trkpt>
      <trkpt lat="29.06109" lon="-13.68963">
        <ele>213.2</ele>
        <time>2021-07-03 19:35:19</time>
      </trkpt>
      <trkpt lat="29.06104" lon="-13.68963">
        <ele>213.2</ele>
        <time>2021-07-03 19:35:20</time>
      </trkpt>
      <trkpt lat="29.06099" lon="-13.68963">
        <ele>213.2</ele>
        <time>2021-07-03 19:35:21</time>
      </trkpt>
      <trkpt lat="29.06094" lon="-13.68964">
        <ele>213.2</ele>
        <time>2021-07-03 19:35:22</time>
      </trkpt>
      <trkpt lat="29.0609" lon="-13.68964">
        <ele>213.2</ele>
        <time>2021-07-03 19:35:23</time>
      </trkpt>
      <trkpt lat="29.06086" lon="-13.68965">
        <ele>213.2</ele>
        <time>2021-07-03 19:35:24</time>
      </trkpt>
      <trkpt lat="29.06082" lon="-13.68967">
        <ele>213.2</ele>
        <time>2021-07-03 19:35:25</time>
      </trkpt>
      <trkpt lat="29.06074" lon="-13.68968">
        <ele>213.2</ele>
        <time>2021-07-03 19:35:26</time>
      </trkpt>
      <trkpt lat="29.0607" lon="-13.68969">
        <ele>213.6</ele>
        <time>2021-07-03 19:35:27</time>
      </trkpt>
      <trkpt lat="29.06066" lon="-13.6897">
        <ele>213.6</ele>
        <time>2021-07-03 19:35:28</time>
      </trkpt>
      <trkpt lat="29.06062" lon="-13.68971">
        <ele>213.6</ele>
        <time>2021-07-03 19:35:29</time>
      </trkpt>
      <trkpt lat="29.06058" lon="-13.68971">
        <ele>213.8</ele>
        <time>2021-07-03 19:35:30</time>
      </trkpt>
      <trkpt lat="29.06055" lon="-13.68972">
        <ele>214.2</ele>
        <time>2021-07-03 19:35:31</time>
      </trkpt>
      <trkpt lat="29.06052" lon="-13.68973">
        <ele>214.4</ele>
        <time>2021-07-03 19:35:32</time>
      </trkpt>
      <trkpt lat="29.06048" lon="-13.68974">
        <ele>214.6</ele>
        <time>2021-07-03 19:35:33</time>
      </trkpt>
      <trkpt lat="29.06045" lon="-13.68975">
        <ele>215</ele>
        <time>2021-07-03 19:35:34</time>
      </trkpt>
      <trkpt lat="29.06042" lon="-13.68976">
        <ele>215.2</ele>
        <time>2021-07-03 19:35:35</time>
      </trkpt>
      <trkpt lat="29.06039" lon="-13.68977">
        <ele>215.6</ele>
        <time>2021-07-03 19:35:36</time>
      </trkpt>
      <trkpt lat="29.06036" lon="-13.68977">
        <ele>215.8</ele>
        <time>2021-07-03 19:35:37</time>
      </trkpt>
      <trkpt lat="29.0603" lon="-13.68979">
        <ele>216.4</ele>
        <time>2021-07-03 19:35:38</time>
      </trkpt>
      <trkpt lat="29.06028" lon="-13.6898">
        <ele>216.8</ele>
        <time>2021-07-03 19:35:39</time>
      </trkpt>
      <trkpt lat="29.06026" lon="-13.6898">
        <ele>217.2</ele>
        <time>2021-07-03 19:35:40</time>
      </trkpt>
      <trkpt lat="29.06024" lon="-13.6898">
        <ele>217.6</ele>
        <time>2021-07-03 19:35:41</time>
      </trkpt>
      <trkpt lat="29.06022" lon="-13.68981">
        <ele>217.4</ele>
        <time>2021-07-03 19:35:42</time>
      </trkpt>
      <trkpt lat="29.06019" lon="-13.68982">
        <ele>217.8</ele>
        <time>2021-07-03 19:35:43</time>
      </trkpt>
      <trkpt lat="29.06016" lon="-13.68982">
        <ele>217.8</ele>
        <time>2021-07-03 19:35:44</time>
      </trkpt>
      <trkpt lat="29.06013" lon="-13.68983">
        <ele>217.8</ele>
        <time>2021-07-03 19:35:45</time>
      </trkpt>
      <trkpt lat="29.06009" lon="-13.68984">
        <ele>217.8</ele>
        <time>2021-07-03 19:35:46</time>
      </trkpt>
      <trkpt lat="29.06005" lon="-13.68985">
        <ele>217.4</ele>
        <time>2021-07-03 19:35:47</time>
      </trkpt>
      <trkpt lat="29.06001" lon="-13.68986">
        <ele>217</ele>
        <time>2021-07-03 19:35:48</time>
      </trkpt>
      <trkpt lat="29.05996" lon="-13.68987">
        <ele>216.8</ele>
        <time>2021-07-03 19:35:49</time>
      </trkpt>
      <trkpt lat="29.05992" lon="-13.68987">
        <ele>216.8</ele>
        <time>2021-07-03 19:35:50</time>
      </trkpt>
      <trkpt lat="29.05987" lon="-13.68988">
        <ele>216.6</ele>
        <time>2021-07-03 19:35:51</time>
      </trkpt>
      <trkpt lat="29.05983" lon="-13.6899">
        <ele>216.6</ele>
        <time>2021-07-03 19:35:52</time>
      </trkpt>
      <trkpt lat="29.05979" lon="-13.68992">
        <ele>216.6</ele>
        <time>2021-07-03 19:35:53</time>
      </trkpt>
      <trkpt lat="29.05975" lon="-13.68994">
        <ele>216.4</ele>
        <time>2021-07-03 19:35:54</time>
      </trkpt>
      <trkpt lat="29.05972" lon="-13.68997">
        <ele>216.4</ele>
        <time>2021-07-03 19:35:55</time>
      </trkpt>
      <trkpt lat="29.05969" lon="-13.69001">
        <ele>216.4</ele>
        <time>2021-07-03 19:35:56</time>
      </trkpt>
      <trkpt lat="29.05967" lon="-13.69005">
        <ele>216.4</ele>
        <time>2021-07-03 19:35:57</time>
      </trkpt>
      <trkpt lat="29.05966" lon="-13.69009">
        <ele>216.4</ele>
        <time>2021-07-03 19:35:58</time>
      </trkpt>
      <trkpt lat="29.05965" lon="-13.69014">
        <ele>216.6</ele>
        <time>2021-07-03 19:35:59</time>
      </trkpt>
      <trkpt lat="29.05964" lon="-13.69019">
        <ele>216.6</ele>
        <time>2021-07-03 19:36:00</time>
      </trkpt>
      <trkpt lat="29.05961" lon="-13.69024">
        <ele>216.6</ele>
        <time>2021-07-03 19:36:01</time>
      </trkpt>
      <trkpt lat="29.0596" lon="-13.69028">
        <ele>216.6</ele>
        <time>2021-07-03 19:36:02</time>
      </trkpt>
      <trkpt lat="29.05958" lon="-13.69033">
        <ele>216.6</ele>
        <time>2021-07-03 19:36:03</time>
      </trkpt>
      <trkpt lat="29.05956" lon="-13.69038">
        <ele>216.6</ele>
        <time>2021-07-03 19:36:04</time>
      </trkpt>
      <trkpt lat="29.05954" lon="-13.69043">
        <ele>216.6</ele>
        <time>2021-07-03 19:36:05</time>
      </trkpt>
      <trkpt lat="29.05952" lon="-13.69047">
        <ele>216.8</ele>
        <time>2021-07-03 19:36:06</time>
      </trkpt>
      <trkpt lat="29.0595" lon="-13.69051">
        <ele>216.8</ele>
        <time>2021-07-03 19:36:07</time>
      </trkpt>
      <trkpt lat="29.05946" lon="-13.69054">
        <ele>217.2</ele>
        <time>2021-07-03 19:36:08</time>
      </trkpt>
      <trkpt lat="29.05943" lon="-13.69057">
        <ele>217.2</ele>
        <time>2021-07-03 19:36:09</time>
      </trkpt>
      <trkpt lat="29.05939" lon="-13.69058">
        <ele>217.4</ele>
        <time>2021-07-03 19:36:10</time>
      </trkpt>
      <trkpt lat="29.05934" lon="-13.6906">
        <ele>217.4</ele>
        <time>2021-07-03 19:36:11</time>
      </trkpt>
      <trkpt lat="29.0593" lon="-13.6906">
        <ele>217.4</ele>
        <time>2021-07-03 19:36:12</time>
      </trkpt>
      <trkpt lat="29.05925" lon="-13.6906">
        <ele>217.4</ele>
        <time>2021-07-03 19:36:13</time>
      </trkpt>
      <trkpt lat="29.05921" lon="-13.69059">
        <ele>217.6</ele>
        <time>2021-07-03 19:36:14</time>
      </trkpt>
      <trkpt lat="29.05916" lon="-13.6906">
        <ele>217.6</ele>
        <time>2021-07-03 19:36:15</time>
      </trkpt>
      <trkpt lat="29.05911" lon="-13.6906">
        <ele>217.6</ele>
        <time>2021-07-03 19:36:16</time>
      </trkpt>
      <trkpt lat="29.05907" lon="-13.6906">
        <ele>217.6</ele>
        <time>2021-07-03 19:36:17</time>
      </trkpt>
      <trkpt lat="29.05903" lon="-13.6906">
        <ele>217.6</ele>
        <time>2021-07-03 19:36:18</time>
      </trkpt>
      <trkpt lat="29.05899" lon="-13.69058">
        <ele>217.6</ele>
        <time>2021-07-03 19:36:19</time>
      </trkpt>
      <trkpt lat="29.05896" lon="-13.69055">
        <ele>217.6</ele>
        <time>2021-07-03 19:36:20</time>
      </trkpt>
      <trkpt lat="29.05894" lon="-13.69051">
        <ele>217.6</ele>
        <time>2021-07-03 19:36:21</time>
      </trkpt>
      <trkpt lat="29.05893" lon="-13.69046">
        <ele>218</ele>
        <time>2021-07-03 19:36:22</time>
      </trkpt>
      <trkpt lat="29.05892" lon="-13.69042">
        <ele>218</ele>
        <time>2021-07-03 19:36:23</time>
      </trkpt>
      <trkpt lat="29.05891" lon="-13.69037">
        <ele>218.4</ele>
        <time>2021-07-03 19:36:24</time>
      </trkpt>
      <trkpt lat="29.05891" lon="-13.69032">
        <ele>218.6</ele>
        <time>2021-07-03 19:36:25</time>
      </trkpt>
      <trkpt lat="29.0589" lon="-13.69027">
        <ele>218.8</ele>
        <time>2021-07-03 19:36:26</time>
      </trkpt>
      <trkpt lat="29.0589" lon="-13.69023">
        <ele>219</ele>
        <time>2021-07-03 19:36:27</time>
      </trkpt>
      <trkpt lat="29.05889" lon="-13.69018">
        <ele>219.2</ele>
        <time>2021-07-03 19:36:28</time>
      </trkpt>
      <trkpt lat="29.05887" lon="-13.69013">
        <ele>219.2</ele>
        <time>2021-07-03 19:36:29</time>
      </trkpt>
      <trkpt lat="29.05883" lon="-13.69011">
        <ele>219.6</ele>
        <time>2021-07-03 19:36:30</time>
      </trkpt>
      <trkpt lat="29.05879" lon="-13.69009">
        <ele>219.6</ele>
        <time>2021-07-03 19:36:31</time>
      </trkpt>
      <trkpt lat="29.05874" lon="-13.69008">
        <ele>219.6</ele>
        <time>2021-07-03 19:36:32</time>
      </trkpt>
      <trkpt lat="29.05869" lon="-13.6901">
        <ele>219.6</ele>
        <time>2021-07-03 19:36:33</time>
      </trkpt>
      <trkpt lat="29.05865" lon="-13.69012">
        <ele>219.6</ele>
        <time>2021-07-03 19:36:34</time>
      </trkpt>
      <trkpt lat="29.0586" lon="-13.69014">
        <ele>219.6</ele>
        <time>2021-07-03 19:36:35</time>
      </trkpt>
      <trkpt lat="29.05855" lon="-13.69016">
        <ele>219.6</ele>
        <time>2021-07-03 19:36:36</time>
      </trkpt>
      <trkpt lat="29.05851" lon="-13.69019">
        <ele>219.6</ele>
        <time>2021-07-03 19:36:37</time>
      </trkpt>
      <trkpt lat="29.05847" lon="-13.69021">
        <ele>219.6</ele>
        <time>2021-07-03 19:36:38</time>
      </trkpt>
      <trkpt lat="29.05842" lon="-13.69024">
        <ele>219.6</ele>
        <time>2021-07-03 19:36:39</time>
      </trkpt>
      <trkpt lat="29.05838" lon="-13.69026">
        <ele>219.6</ele>
        <time>2021-07-03 19:36:40</time>
      </trkpt>
      <trkpt lat="29.05835" lon="-13.69028">
        <ele>219.6</ele>
        <time>2021-07-03 19:36:41</time>
      </trkpt>
      <trkpt lat="29.0583" lon="-13.69031">
        <ele>219.6</ele>
        <time>2021-07-03 19:36:42</time>
      </trkpt>
      <trkpt lat="29.05826" lon="-13.69032">
        <ele>219.6</ele>
        <time>2021-07-03 19:36:43</time>
      </trkpt>
      <trkpt lat="29.05823" lon="-13.69033">
        <ele>219.6</ele>
        <time>2021-07-03 19:36:44</time>
      </trkpt>
      <trkpt lat="29.05819" lon="-13.69034">
        <ele>219.6</ele>
        <time>2021-07-03 19:36:45</time>
      </trkpt>
      <trkpt lat="29.05814" lon="-13.69035">
        <ele>219.6</ele>
        <time>2021-07-03 19:36:46</time>
      </trkpt>
      <trkpt lat="29.0581" lon="-13.69036">
        <ele>219.6</ele>
        <time>2021-07-03 19:36:47</time>
      </trkpt>
      <trkpt lat="29.05805" lon="-13.69035">
        <ele>219.6</ele>
        <time>2021-07-03 19:36:48</time>
      </trkpt>
      <trkpt lat="29.05801" lon="-13.69036">
        <ele>219.6</ele>
        <time>2021-07-03 19:36:49</time>
      </trkpt>
      <trkpt lat="29.05797" lon="-13.69037">
        <ele>219.6</ele>
        <time>2021-07-03 19:36:50</time>
      </trkpt>
      <trkpt lat="29.05793" lon="-13.69039">
        <ele>219.6</ele>
        <time>2021-07-03 19:36:51</time>
      </trkpt>
      <trkpt lat="29.05789" lon="-13.6904">
        <ele>219.6</ele>
        <time>2021-07-03 19:36:52</time>
      </trkpt>
      <trkpt lat="29.05785" lon="-13.69042">
        <ele>219.6</ele>
        <time>2021-07-03 19:36:53</time>
      </trkpt>
      <trkpt lat="29.0578" lon="-13.69045">
        <ele>219.6</ele>
        <time>2021-07-03 19:36:54</time>
      </trkpt>
      <trkpt lat="29.05776" lon="-13.69048">
        <ele>219.6</ele>
        <time>2021-07-03 19:36:55</time>
      </trkpt>
      <trkpt lat="29.05771" lon="-13.6905">
        <ele>219.4</ele>
        <time>2021-07-03 19:36:56</time>
      </trkpt>
      <trkpt lat="29.05767" lon="-13.69052">
        <ele>219.4</ele>
        <time>2021-07-03 19:36:57</time>
      </trkpt>
      <trkpt lat="29.05762" lon="-13.69054">
        <ele>219</ele>
        <time>2021-07-03 19:36:58</time>
      </trkpt>
      <trkpt lat="29.05758" lon="-13.69056">
        <ele>219</ele>
        <time>2021-07-03 19:36:59</time>
      </trkpt>
      <trkpt lat="29.05754" lon="-13.69057">
        <ele>219</ele>
        <time>2021-07-03 19:37:00</time>
      </trkpt>
      <trkpt lat="29.0575" lon="-13.69059">
        <ele>219</ele>
        <time>2021-07-03 19:37:01</time>
      </trkpt>
      <trkpt lat="29.05746" lon="-13.6906">
        <ele>218</ele>
        <time>2021-07-03 19:37:02</time>
      </trkpt>
      <trkpt lat="29.05742" lon="-13.69062">
        <ele>218.6</ele>
        <time>2021-07-03 19:37:03</time>
      </trkpt>
      <trkpt lat="29.05738" lon="-13.69063">
        <ele>218.8</ele>
        <time>2021-07-03 19:37:04</time>
      </trkpt>
      <trkpt lat="29.05734" lon="-13.69064">
        <ele>218.8</ele>
        <time>2021-07-03 19:37:05</time>
      </trkpt>
      <trkpt lat="29.05731" lon="-13.69065">
        <ele>219.2</ele>
        <time>2021-07-03 19:37:06</time>
      </trkpt>
      <trkpt lat="29.05728" lon="-13.69066">
        <ele>219.2</ele>
        <time>2021-07-03 19:37:07</time>
      </trkpt>
      <trkpt lat="29.05724" lon="-13.69067">
        <ele>219.4</ele>
        <time>2021-07-03 19:37:08</time>
      </trkpt>
      <trkpt lat="29.0572" lon="-13.69068">
        <ele>219.4</ele>
        <time>2021-07-03 19:37:09</time>
      </trkpt>
      <trkpt lat="29.05716" lon="-13.69069">
        <ele>219.6</ele>
        <time>2021-07-03 19:37:10</time>
      </trkpt>
      <trkpt lat="29.05712" lon="-13.6907">
        <ele>219.6</ele>
        <time>2021-07-03 19:37:11</time>
      </trkpt>
      <trkpt lat="29.05707" lon="-13.69071">
        <ele>219.6</ele>
        <time>2021-07-03 19:37:12</time>
      </trkpt>
      <trkpt lat="29.05702" lon="-13.69072">
        <ele>219.6</ele>
        <time>2021-07-03 19:37:13</time>
      </trkpt>
      <trkpt lat="29.05696" lon="-13.69073">
        <ele>219.6</ele>
        <time>2021-07-03 19:37:14</time>
      </trkpt>
      <trkpt lat="29.0569" lon="-13.69074">
        <ele>219.2</ele>
        <time>2021-07-03 19:37:15</time>
      </trkpt>
      <trkpt lat="29.05684" lon="-13.69076">
        <ele>219</ele>
        <time>2021-07-03 19:37:16</time>
      </trkpt>
      <trkpt lat="29.05677" lon="-13.69077">
        <ele>218.8</ele>
        <time>2021-07-03 19:37:17</time>
      </trkpt>
      <trkpt lat="29.05671" lon="-13.69078">
        <ele>218.6</ele>
        <time>2021-07-03 19:37:18</time>
      </trkpt>
      <trkpt lat="29.05664" lon="-13.6908">
        <ele>218.2</ele>
        <time>2021-07-03 19:37:19</time>
      </trkpt>
      <trkpt lat="29.05658" lon="-13.69081">
        <ele>218</ele>
        <time>2021-07-03 19:37:20</time>
      </trkpt>
      <trkpt lat="29.05652" lon="-13.69083">
        <ele>218</ele>
        <time>2021-07-03 19:37:21</time>
      </trkpt>
      <trkpt lat="29.05646" lon="-13.69085">
        <ele>218</ele>
        <time>2021-07-03 19:37:22</time>
      </trkpt>
      <trkpt lat="29.05641" lon="-13.69087">
        <ele>218</ele>
        <time>2021-07-03 19:37:23</time>
      </trkpt>
      <trkpt lat="29.05636" lon="-13.69089">
        <ele>218</ele>
        <time>2021-07-03 19:37:24</time>
      </trkpt>
      <trkpt lat="29.05632" lon="-13.69091">
        <ele>218</ele>
        <time>2021-07-03 19:37:25</time>
      </trkpt>
      <trkpt lat="29.05628" lon="-13.69093">
        <ele>218.4</ele>
        <time>2021-07-03 19:37:26</time>
      </trkpt>
      <trkpt lat="29.05625" lon="-13.69095">
        <ele>218.6</ele>
        <time>2021-07-03 19:37:27</time>
      </trkpt>
      <trkpt lat="29.05621" lon="-13.69098">
        <ele>218.8</ele>
        <time>2021-07-03 19:37:28</time>
      </trkpt>
      <trkpt lat="29.05618" lon="-13.69099">
        <ele>219.2</ele>
        <time>2021-07-03 19:37:29</time>
      </trkpt>
      <trkpt lat="29.05615" lon="-13.69101">
        <ele>219.4</ele>
        <time>2021-07-03 19:37:30</time>
      </trkpt>
      <trkpt lat="29.05612" lon="-13.69103">
        <ele>219.6</ele>
        <time>2021-07-03 19:37:31</time>
      </trkpt>
      <trkpt lat="29.05608" lon="-13.69104">
        <ele>220</ele>
        <time>2021-07-03 19:37:32</time>
      </trkpt>
      <trkpt lat="29.05606" lon="-13.69106">
        <ele>220.4</ele>
        <time>2021-07-03 19:37:33</time>
      </trkpt>
      <trkpt lat="29.05602" lon="-13.69108">
        <ele>220.6</ele>
        <time>2021-07-03 19:37:34</time>
      </trkpt>
      <trkpt lat="29.056" lon="-13.69109">
        <ele>221</ele>
        <time>2021-07-03 19:37:35</time>
      </trkpt>
      <trkpt lat="29.05597" lon="-13.69111">
        <ele>221.4</ele>
        <time>2021-07-03 19:37:36</time>
      </trkpt>
      <trkpt lat="29.05595" lon="-13.69113">
        <ele>221.8</ele>
        <time>2021-07-03 19:37:37</time>
      </trkpt>
      <trkpt lat="29.05592" lon="-13.69114">
        <ele>222.2</ele>
        <time>2021-07-03 19:37:38</time>
      </trkpt>
      <trkpt lat="29.0559" lon="-13.69116">
        <ele>222.4</ele>
        <time>2021-07-03 19:37:39</time>
      </trkpt>
      <trkpt lat="29.05588" lon="-13.69117">
        <ele>222.8</ele>
        <time>2021-07-03 19:37:40</time>
      </trkpt>
      <trkpt lat="29.05586" lon="-13.69119">
        <ele>223.2</ele>
        <time>2021-07-03 19:37:41</time>
      </trkpt>
      <trkpt lat="29.05584" lon="-13.6912">
        <ele>223.4</ele>
        <time>2021-07-03 19:37:42</time>
      </trkpt>
      <trkpt lat="29.05582" lon="-13.69121">
        <ele>223.8</ele>
        <time>2021-07-03 19:37:43</time>
      </trkpt>
      <trkpt lat="29.0558" lon="-13.69123">
        <ele>224.2</ele>
        <time>2021-07-03 19:37:44</time>
      </trkpt>
      <trkpt lat="29.05578" lon="-13.69124">
        <ele>224.4</ele>
        <time>2021-07-03 19:37:45</time>
      </trkpt>
      <trkpt lat="29.05575" lon="-13.69126">
        <ele>224.4</ele>
        <time>2021-07-03 19:37:46</time>
      </trkpt>
      <trkpt lat="29.05574" lon="-13.69128">
        <ele>224.4</ele>
        <time>2021-07-03 19:37:47</time>
      </trkpt>
      <trkpt lat="29.05572" lon="-13.6913">
        <ele>224.6</ele>
        <time>2021-07-03 19:37:48</time>
      </trkpt>
      <trkpt lat="29.0557" lon="-13.69132">
        <ele>224.6</ele>
        <time>2021-07-03 19:37:49</time>
      </trkpt>
      <trkpt lat="29.05569" lon="-13.69135">
        <ele>224.8</ele>
        <time>2021-07-03 19:37:50</time>
      </trkpt>
      <trkpt lat="29.05568" lon="-13.69138">
        <ele>224.8</ele>
        <time>2021-07-03 19:37:51</time>
      </trkpt>
      <trkpt lat="29.05567" lon="-13.6914">
        <ele>225.2</ele>
        <time>2021-07-03 19:37:52</time>
      </trkpt>
      <trkpt lat="29.05566" lon="-13.69143">
        <ele>225.2</ele>
        <time>2021-07-03 19:37:53</time>
      </trkpt>
      <trkpt lat="29.05565" lon="-13.69146">
        <ele>225.6</ele>
        <time>2021-07-03 19:37:54</time>
      </trkpt>
      <trkpt lat="29.05564" lon="-13.69149">
        <ele>225.6</ele>
        <time>2021-07-03 19:37:55</time>
      </trkpt>
      <trkpt lat="29.05564" lon="-13.69152">
        <ele>226</ele>
        <time>2021-07-03 19:37:56</time>
      </trkpt>
      <trkpt lat="29.05563" lon="-13.69155">
        <ele>226</ele>
        <time>2021-07-03 19:37:57</time>
      </trkpt>
      <trkpt lat="29.05562" lon="-13.69158">
        <ele>226.2</ele>
        <time>2021-07-03 19:37:58</time>
      </trkpt>
      <trkpt lat="29.05561" lon="-13.69161">
        <ele>226.2</ele>
        <time>2021-07-03 19:37:59</time>
      </trkpt>
      <trkpt lat="29.0556" lon="-13.69164">
        <ele>226.8</ele>
        <time>2021-07-03 19:38:00</time>
      </trkpt>
      <trkpt lat="29.05559" lon="-13.69167">
        <ele>227</ele>
        <time>2021-07-03 19:38:01</time>
      </trkpt>
      <trkpt lat="29.05558" lon="-13.6917">
        <ele>227.4</ele>
        <time>2021-07-03 19:38:02</time>
      </trkpt>
      <trkpt lat="29.05558" lon="-13.69173">
        <ele>227.6</ele>
        <time>2021-07-03 19:38:03</time>
      </trkpt>
      <trkpt lat="29.05557" lon="-13.69176">
        <ele>227.6</ele>
        <time>2021-07-03 19:38:04</time>
      </trkpt>
      <trkpt lat="29.05556" lon="-13.69179">
        <ele>228</ele>
        <time>2021-07-03 19:38:05</time>
      </trkpt>
      <trkpt lat="29.05555" lon="-13.69182">
        <ele>228</ele>
        <time>2021-07-03 19:38:06</time>
      </trkpt>
      <trkpt lat="29.05553" lon="-13.69185">
        <ele>228.4</ele>
        <time>2021-07-03 19:38:07</time>
      </trkpt>
      <trkpt lat="29.05552" lon="-13.69188">
        <ele>228.4</ele>
        <time>2021-07-03 19:38:08</time>
      </trkpt>
      <trkpt lat="29.05551" lon="-13.69191">
        <ele>228.6</ele>
        <time>2021-07-03 19:38:09</time>
      </trkpt>
      <trkpt lat="29.05549" lon="-13.69194">
        <ele>228.6</ele>
        <time>2021-07-03 19:38:10</time>
      </trkpt>
      <trkpt lat="29.05547" lon="-13.69197">
        <ele>229</ele>
        <time>2021-07-03 19:38:11</time>
      </trkpt>
      <trkpt lat="29.05545" lon="-13.69199">
        <ele>229</ele>
        <time>2021-07-03 19:38:12</time>
      </trkpt>
      <trkpt lat="29.05542" lon="-13.69201">
        <ele>229</ele>
        <time>2021-07-03 19:38:13</time>
      </trkpt>
      <trkpt lat="29.0554" lon="-13.69203">
        <ele>229.2</ele>
        <time>2021-07-03 19:38:14</time>
      </trkpt>
      <trkpt lat="29.05537" lon="-13.69204">
        <ele>229.2</ele>
        <time>2021-07-03 19:38:15</time>
      </trkpt>
      <trkpt lat="29.05533" lon="-13.69205">
        <ele>229.2</ele>
        <time>2021-07-03 19:38:16</time>
      </trkpt>
      <trkpt lat="29.0553" lon="-13.69206">
        <ele>229.2</ele>
        <time>2021-07-03 19:38:17</time>
      </trkpt>
      <trkpt lat="29.05527" lon="-13.69206">
        <ele>229.4</ele>
        <time>2021-07-03 19:38:18</time>
      </trkpt>
      <trkpt lat="29.05523" lon="-13.69207">
        <ele>229.4</ele>
        <time>2021-07-03 19:38:19</time>
      </trkpt>
      <trkpt lat="29.0552" lon="-13.69207">
        <ele>229.4</ele>
        <time>2021-07-03 19:38:20</time>
      </trkpt>
      <trkpt lat="29.05517" lon="-13.69208">
        <ele>229.4</ele>
        <time>2021-07-03 19:38:21</time>
      </trkpt>
      <trkpt lat="29.05513" lon="-13.69209">
        <ele>229.6</ele>
        <time>2021-07-03 19:38:22</time>
      </trkpt>
      <trkpt lat="29.05509" lon="-13.69209">
        <ele>229.6</ele>
        <time>2021-07-03 19:38:23</time>
      </trkpt>
      <trkpt lat="29.05506" lon="-13.6921">
        <ele>229.6</ele>
        <time>2021-07-03 19:38:24</time>
      </trkpt>
      <trkpt lat="29.05502" lon="-13.69211">
        <ele>229.6</ele>
        <time>2021-07-03 19:38:25</time>
      </trkpt>
      <trkpt lat="29.05498" lon="-13.69211">
        <ele>229.6</ele>
        <time>2021-07-03 19:38:26</time>
      </trkpt>
      <trkpt lat="29.05494" lon="-13.69212">
        <ele>229.6</ele>
        <time>2021-07-03 19:38:27</time>
      </trkpt>
      <trkpt lat="29.0549" lon="-13.69212">
        <ele>229.6</ele>
        <time>2021-07-03 19:38:28</time>
      </trkpt>
      <trkpt lat="29.05486" lon="-13.69213">
        <ele>229.6</ele>
        <time>2021-07-03 19:38:29</time>
      </trkpt>
      <trkpt lat="29.05482" lon="-13.69213">
        <ele>229.6</ele>
        <time>2021-07-03 19:38:30</time>
      </trkpt>
      <trkpt lat="29.05478" lon="-13.69214">
        <ele>230</ele>
        <time>2021-07-03 19:38:31</time>
      </trkpt>
      <trkpt lat="29.05474" lon="-13.69214">
        <ele>230</ele>
        <time>2021-07-03 19:38:32</time>
      </trkpt>
      <trkpt lat="29.0547" lon="-13.69214">
        <ele>230</ele>
        <time>2021-07-03 19:38:33</time>
      </trkpt>
      <trkpt lat="29.05466" lon="-13.69215">
        <ele>230</ele>
        <time>2021-07-03 19:38:34</time>
      </trkpt>
      <trkpt lat="29.05462" lon="-13.69215">
        <ele>230</ele>
        <time>2021-07-03 19:38:35</time>
      </trkpt>
      <trkpt lat="29.05458" lon="-13.69215">
        <ele>230</ele>
        <time>2021-07-03 19:38:36</time>
      </trkpt>
      <trkpt lat="29.05455" lon="-13.69215">
        <ele>230</ele>
        <time>2021-07-03 19:38:37</time>
      </trkpt>
      <trkpt lat="29.05451" lon="-13.69215">
        <ele>230</ele>
        <time>2021-07-03 19:38:38</time>
      </trkpt>
      <trkpt lat="29.05447" lon="-13.69215">
        <ele>230</ele>
        <time>2021-07-03 19:38:39</time>
      </trkpt>
      <trkpt lat="29.05443" lon="-13.69215">
        <ele>230</ele>
        <time>2021-07-03 19:38:40</time>
      </trkpt>
      <trkpt lat="29.0544" lon="-13.69215">
        <ele>230.2</ele>
        <time>2021-07-03 19:38:41</time>
      </trkpt>
      <trkpt lat="29.05436" lon="-13.69216">
        <ele>230.2</ele>
        <time>2021-07-03 19:38:42</time>
      </trkpt>
      <trkpt lat="29.05432" lon="-13.69216">
        <ele>230.2</ele>
        <time>2021-07-03 19:38:43</time>
      </trkpt>
      <trkpt lat="29.05428" lon="-13.69216">
        <ele>230.2</ele>
        <time>2021-07-03 19:38:44</time>
      </trkpt>
      <trkpt lat="29.05424" lon="-13.69216">
        <ele>230.2</ele>
        <time>2021-07-03 19:38:45</time>
      </trkpt>
      <trkpt lat="29.05421" lon="-13.69216">
        <ele>230.2</ele>
        <time>2021-07-03 19:38:46</time>
      </trkpt>
      <trkpt lat="29.05417" lon="-13.69216">
        <ele>230.4</ele>
        <time>2021-07-03 19:38:47</time>
      </trkpt>
      <trkpt lat="29.05415" lon="-13.69216">
        <ele>230.4</ele>
        <time>2021-07-03 19:38:48</time>
      </trkpt>
      <trkpt lat="29.05413" lon="-13.69216">
        <ele>230.4</ele>
        <time>2021-07-03 19:38:49</time>
      </trkpt>
      <trkpt lat="29.05413" lon="-13.69216">
        <ele>230.4</ele>
        <time>2021-07-03 19:38:50</time>
      </trkpt>
      <trkpt lat="29.05413" lon="-13.69216">
        <ele>230.4</ele>
        <time>2021-07-03 19:38:51</time>
      </trkpt>
      <trkpt lat="29.05413" lon="-13.69216">
        <ele>230.6</ele>
        <time>2021-07-03 19:38:52</time>
      </trkpt>
      <trkpt lat="29.05413" lon="-13.69217">
        <ele>230.8</ele>
        <time>2021-07-03 19:38:53</time>
      </trkpt>
      <trkpt lat="29.05413" lon="-13.69217">
        <ele>230.8</ele>
        <time>2021-07-03 19:38:54</time>
      </trkpt>
      <trkpt lat="29.05413" lon="-13.69218">
        <ele>230.8</ele>
        <time>2021-07-03 19:38:55</time>
      </trkpt>
      <trkpt lat="29.05414" lon="-13.69218">
        <ele>230.8</ele>
        <time>2021-07-03 19:38:56</time>
      </trkpt>
      <trkpt lat="29.05415" lon="-13.69218">
        <ele>230.8</ele>
        <time>2021-07-03 19:38:57</time>
      </trkpt>
      <trkpt lat="29.05415" lon="-13.69218">
        <ele>230.8</ele>
        <time>2021-07-03 19:38:58</time>
      </trkpt>
      <trkpt lat="29.05416" lon="-13.69217">
        <ele>230.8</ele>
        <time>2021-07-03 19:38:59</time>
      </trkpt>
      <trkpt lat="29.05418" lon="-13.69217">
        <ele>230.6</ele>
        <time>2021-07-03 19:39:00</time>
      </trkpt>
      <trkpt lat="29.05421" lon="-13.69217">
        <ele>230.6</ele>
        <time>2021-07-03 19:39:01</time>
      </trkpt>
      <trkpt lat="29.05423" lon="-13.69217">
        <ele>230.4</ele>
        <time>2021-07-03 19:39:02</time>
      </trkpt>
      <trkpt lat="29.05426" lon="-13.69217">
        <ele>230.4</ele>
        <time>2021-07-03 19:39:03</time>
      </trkpt>
      <trkpt lat="29.05429" lon="-13.69218">
        <ele>230.4</ele>
        <time>2021-07-03 19:39:04</time>
      </trkpt>
      <trkpt lat="29.05432" lon="-13.69217">
        <ele>230.4</ele>
        <time>2021-07-03 19:39:05</time>
      </trkpt>
      <trkpt lat="29.05435" lon="-13.69217">
        <ele>230.4</ele>
        <time>2021-07-03 19:39:06</time>
      </trkpt>
      <trkpt lat="29.05436" lon="-13.69217">
        <ele>230.8</ele>
        <time>2021-07-03 19:39:07</time>
      </trkpt>
      <trkpt lat="29.05437" lon="-13.69216">
        <ele>231</ele>
        <time>2021-07-03 19:39:08</time>
      </trkpt>
      <trkpt lat="29.05437" lon="-13.69215">
        <ele>231</ele>
        <time>2021-07-03 19:39:09</time>
      </trkpt>
      <trkpt lat="29.05436" lon="-13.69214">
        <ele>231</ele>
        <time>2021-07-03 19:39:10</time>
      </trkpt>
      <trkpt lat="29.05434" lon="-13.69214">
        <ele>231.2</ele>
        <time>2021-07-03 19:39:11</time>
      </trkpt>
      <trkpt lat="29.05432" lon="-13.69215">
        <ele>231.2</ele>
        <time>2021-07-03 19:39:12</time>
      </trkpt>
      <trkpt lat="29.0543" lon="-13.69216">
        <ele>231.2</ele>
        <time>2021-07-03 19:39:13</time>
      </trkpt>
      <trkpt lat="29.05427" lon="-13.69216">
        <ele>231.2</ele>
        <time>2021-07-03 19:39:14</time>
      </trkpt>
      <trkpt lat="29.05425" lon="-13.69216">
        <ele>231.4</ele>
        <time>2021-07-03 19:39:15</time>
      </trkpt>
      <trkpt lat="29.05422" lon="-13.69215">
        <ele>231.4</ele>
        <time>2021-07-03 19:39:16</time>
      </trkpt>
      <trkpt lat="29.0542" lon="-13.69215">
        <ele>231.4</ele>
        <time>2021-07-03 19:39:17</time>
      </trkpt>
      <trkpt lat="29.05418" lon="-13.69215">
        <ele>231.4</ele>
        <time>2021-07-03 19:39:18</time>
      </trkpt>
      <trkpt lat="29.05416" lon="-13.69215">
        <ele>231.4</ele>
        <time>2021-07-03 19:39:19</time>
      </trkpt>
      <trkpt lat="29.05415" lon="-13.69216">
        <ele>231.6</ele>
        <time>2021-07-03 19:39:20</time>
      </trkpt>
      <trkpt lat="29.05413" lon="-13.69216">
        <ele>231.6</ele>
        <time>2021-07-03 19:39:21</time>
      </trkpt>
      <trkpt lat="29.05412" lon="-13.69216">
        <ele>231.6</ele>
        <time>2021-07-03 19:39:22</time>
      </trkpt>
      <trkpt lat="29.0541" lon="-13.69216">
        <ele>231.6</ele>
        <time>2021-07-03 19:39:23</time>
      </trkpt>
      <trkpt lat="29.05408" lon="-13.69216">
        <ele>231.6</ele>
        <time>2021-07-03 19:39:24</time>
      </trkpt>
      <trkpt lat="29.05406" lon="-13.69217">
        <ele>231.6</ele>
        <time>2021-07-03 19:39:25</time>
      </trkpt>
      <trkpt lat="29.05404" lon="-13.69217">
        <ele>231.6</ele>
        <time>2021-07-03 19:39:26</time>
      </trkpt>
      <trkpt lat="29.05402" lon="-13.69217">
        <ele>231.6</ele>
        <time>2021-07-03 19:39:27</time>
      </trkpt>
      <trkpt lat="29.05399" lon="-13.69218">
        <ele>231.6</ele>
        <time>2021-07-03 19:39:28</time>
      </trkpt>
      <trkpt lat="29.05397" lon="-13.69218">
        <ele>232</ele>
        <time>2021-07-03 19:39:29</time>
      </trkpt>
      <trkpt lat="29.05394" lon="-13.69218">
        <ele>232</ele>
        <time>2021-07-03 19:39:30</time>
      </trkpt>
      <trkpt lat="29.05391" lon="-13.69218">
        <ele>232</ele>
        <time>2021-07-03 19:39:31</time>
      </trkpt>
      <trkpt lat="29.05388" lon="-13.69218">
        <ele>232</ele>
        <time>2021-07-03 19:39:32</time>
      </trkpt>
      <trkpt lat="29.05385" lon="-13.69218">
        <ele>232</ele>
        <time>2021-07-03 19:39:33</time>
      </trkpt>
      <trkpt lat="29.05382" lon="-13.69218">
        <ele>232</ele>
        <time>2021-07-03 19:39:34</time>
      </trkpt>
      <trkpt lat="29.05379" lon="-13.69219">
        <ele>232</ele>
        <time>2021-07-03 19:39:35</time>
      </trkpt>
      <trkpt lat="29.05377" lon="-13.69219">
        <ele>232</ele>
        <time>2021-07-03 19:39:36</time>
      </trkpt>
      <trkpt lat="29.05374" lon="-13.69219">
        <ele>232</ele>
        <time>2021-07-03 19:39:37</time>
      </trkpt>
      <trkpt lat="29.05371" lon="-13.69219">
        <ele>232</ele>
        <time>2021-07-03 19:39:38</time>
      </trkpt>
      <trkpt lat="29.05368" lon="-13.6922">
        <ele>232.2</ele>
        <time>2021-07-03 19:39:39</time>
      </trkpt>
      <trkpt lat="29.05365" lon="-13.6922">
        <ele>232.2</ele>
        <time>2021-07-03 19:39:40</time>
      </trkpt>
      <trkpt lat="29.05362" lon="-13.6922">
        <ele>232.2</ele>
        <time>2021-07-03 19:39:41</time>
      </trkpt>
      <trkpt lat="29.05359" lon="-13.6922">
        <ele>232.2</ele>
        <time>2021-07-03 19:39:42</time>
      </trkpt>
      <trkpt lat="29.05356" lon="-13.6922">
        <ele>232.2</ele>
        <time>2021-07-03 19:39:43</time>
      </trkpt>
      <trkpt lat="29.05353" lon="-13.6922">
        <ele>232.4</ele>
        <time>2021-07-03 19:39:44</time>
      </trkpt>
      <trkpt lat="29.0535" lon="-13.6922">
        <ele>232.4</ele>
        <time>2021-07-03 19:39:45</time>
      </trkpt>
      <trkpt lat="29.05348" lon="-13.69221">
        <ele>232.4</ele>
        <time>2021-07-03 19:39:46</time>
      </trkpt>
      <trkpt lat="29.05345" lon="-13.69222">
        <ele>232.4</ele>
        <time>2021-07-03 19:39:47</time>
      </trkpt>
      <trkpt lat="29.05344" lon="-13.69223">
        <ele>232.4</ele>
        <time>2021-07-03 19:39:48</time>
      </trkpt>
      <trkpt lat="29.05344" lon="-13.69223">
        <ele>232.4</ele>
        <time>2021-07-03 19:39:49</time>
      </trkpt>
      <trkpt lat="29.05345" lon="-13.69223">
        <ele>232.6</ele>
        <time>2021-07-03 19:39:50</time>
      </trkpt>
      <trkpt lat="29.05344" lon="-13.69221">
        <ele>233.6</ele>
        <time>2021-07-03 19:39:51</time>
      </trkpt>
      <trkpt lat="29.05343" lon="-13.69221">
        <ele>233.6</ele>
        <time>2021-07-03 19:39:52</time>
      </trkpt>
      <trkpt lat="29.05341" lon="-13.6922">
        <ele>233.6</ele>
        <time>2021-07-03 19:39:53</time>
      </trkpt>
      <trkpt lat="29.05338" lon="-13.6922">
        <ele>233.6</ele>
        <time>2021-07-03 19:39:54</time>
      </trkpt>
      <trkpt lat="29.05335" lon="-13.6922">
        <ele>233.6</ele>
        <time>2021-07-03 19:39:55</time>
      </trkpt>
      <trkpt lat="29.0533" lon="-13.6922">
        <ele>233.6</ele>
        <time>2021-07-03 19:39:56</time>
      </trkpt>
      <trkpt lat="29.05326" lon="-13.69221">
        <ele>233.6</ele>
        <time>2021-07-03 19:39:57</time>
      </trkpt>
      <trkpt lat="29.0532" lon="-13.69221">
        <ele>233.6</ele>
        <time>2021-07-03 19:39:58</time>
      </trkpt>
      <trkpt lat="29.05315" lon="-13.69221">
        <ele>233.4</ele>
        <time>2021-07-03 19:39:59</time>
      </trkpt>
      <trkpt lat="29.0531" lon="-13.69221">
        <ele>233.4</ele>
        <time>2021-07-03 19:40:00</time>
      </trkpt>
      <trkpt lat="29.05305" lon="-13.69221">
        <ele>233.4</ele>
        <time>2021-07-03 19:40:01</time>
      </trkpt>
      <trkpt lat="29.053" lon="-13.69221">
        <ele>233.4</ele>
        <time>2021-07-03 19:40:02</time>
      </trkpt>
      <trkpt lat="29.05295" lon="-13.69222">
        <ele>233.4</ele>
        <time>2021-07-03 19:40:03</time>
      </trkpt>
      <trkpt lat="29.05289" lon="-13.69222">
        <ele>233.4</ele>
        <time>2021-07-03 19:40:04</time>
      </trkpt>
      <trkpt lat="29.05284" lon="-13.69223">
        <ele>233.4</ele>
        <time>2021-07-03 19:40:05</time>
      </trkpt>
      <trkpt lat="29.05279" lon="-13.69223">
        <ele>233.4</ele>
        <time>2021-07-03 19:40:06</time>
      </trkpt>
      <trkpt lat="29.05274" lon="-13.69223">
        <ele>233.4</ele>
        <time>2021-07-03 19:40:07</time>
      </trkpt>
      <trkpt lat="29.05268" lon="-13.69224">
        <ele>233.4</ele>
        <time>2021-07-03 19:40:08</time>
      </trkpt>
      <trkpt lat="29.05262" lon="-13.69224">
        <ele>233.4</ele>
        <time>2021-07-03 19:40:09</time>
      </trkpt>
      <trkpt lat="29.05257" lon="-13.69224">
        <ele>233.4</ele>
        <time>2021-07-03 19:40:10</time>
      </trkpt>
      <trkpt lat="29.05251" lon="-13.69225">
        <ele>233.6</ele>
        <time>2021-07-03 19:40:11</time>
      </trkpt>
      <trkpt lat="29.05246" lon="-13.69225">
        <ele>233.6</ele>
        <time>2021-07-03 19:40:12</time>
      </trkpt>
      <trkpt lat="29.0524" lon="-13.69225">
        <ele>233.8</ele>
        <time>2021-07-03 19:40:13</time>
      </trkpt>
      <trkpt lat="29.05235" lon="-13.69226">
        <ele>233.8</ele>
        <time>2021-07-03 19:40:14</time>
      </trkpt>
      <trkpt lat="29.05229" lon="-13.69226">
        <ele>234</ele>
        <time>2021-07-03 19:40:15</time>
      </trkpt>
      <trkpt lat="29.05224" lon="-13.69227">
        <ele>234</ele>
        <time>2021-07-03 19:40:16</time>
      </trkpt>
      <trkpt lat="29.05218" lon="-13.69227">
        <ele>234</ele>
        <time>2021-07-03 19:40:17</time>
      </trkpt>
      <trkpt lat="29.05213" lon="-13.69226">
        <ele>234</ele>
        <time>2021-07-03 19:40:18</time>
      </trkpt>
      <trkpt lat="29.05207" lon="-13.69225">
        <ele>234.4</ele>
        <time>2021-07-03 19:40:19</time>
      </trkpt>
      <trkpt lat="29.05202" lon="-13.69224">
        <ele>234.4</ele>
        <time>2021-07-03 19:40:20</time>
      </trkpt>
      <trkpt lat="29.05196" lon="-13.69222">
        <ele>234.4</ele>
        <time>2021-07-03 19:40:21</time>
      </trkpt>
      <trkpt lat="29.05191" lon="-13.6922">
        <ele>234.6</ele>
        <time>2021-07-03 19:40:22</time>
      </trkpt>
      <trkpt lat="29.05186" lon="-13.69217">
        <ele>234.6</ele>
        <time>2021-07-03 19:40:23</time>
      </trkpt>
      <trkpt lat="29.05181" lon="-13.69215">
        <ele>235</ele>
        <time>2021-07-03 19:40:24</time>
      </trkpt>
      <trkpt lat="29.05176" lon="-13.69214">
        <ele>235</ele>
        <time>2021-07-03 19:40:25</time>
      </trkpt>
      <trkpt lat="29.05171" lon="-13.69211">
        <ele>235.2</ele>
        <time>2021-07-03 19:40:26</time>
      </trkpt>
      <trkpt lat="29.05166" lon="-13.69209">
        <ele>235.6</ele>
        <time>2021-07-03 19:40:27</time>
      </trkpt>
      <trkpt lat="29.05162" lon="-13.69207">
        <ele>235.6</ele>
        <time>2021-07-03 19:40:28</time>
      </trkpt>
      <trkpt lat="29.05158" lon="-13.69206">
        <ele>235.6</ele>
        <time>2021-07-03 19:40:29</time>
      </trkpt>
      <trkpt lat="29.05154" lon="-13.69204">
        <ele>235.6</ele>
        <time>2021-07-03 19:40:30</time>
      </trkpt>
      <trkpt lat="29.05151" lon="-13.69202">
        <ele>235.8</ele>
        <time>2021-07-03 19:40:31</time>
      </trkpt>
      <trkpt lat="29.05147" lon="-13.69201">
        <ele>235.8</ele>
        <time>2021-07-03 19:40:32</time>
      </trkpt>
      <trkpt lat="29.05144" lon="-13.69199">
        <ele>236</ele>
        <time>2021-07-03 19:40:33</time>
      </trkpt>
      <trkpt lat="29.0514" lon="-13.69198">
        <ele>236</ele>
        <time>2021-07-03 19:40:34</time>
      </trkpt>
      <trkpt lat="29.05137" lon="-13.69196">
        <ele>236</ele>
        <time>2021-07-03 19:40:35</time>
      </trkpt>
      <trkpt lat="29.05134" lon="-13.69195">
        <ele>236.2</ele>
        <time>2021-07-03 19:40:36</time>
      </trkpt>
      <trkpt lat="29.05131" lon="-13.69194">
        <ele>236.2</ele>
        <time>2021-07-03 19:40:37</time>
      </trkpt>
      <trkpt lat="29.05128" lon="-13.69192">
        <ele>236.2</ele>
        <time>2021-07-03 19:40:38</time>
      </trkpt>
      <trkpt lat="29.05125" lon="-13.69191">
        <ele>236.2</ele>
        <time>2021-07-03 19:40:39</time>
      </trkpt>
      <trkpt lat="29.05122" lon="-13.6919">
        <ele>236.6</ele>
        <time>2021-07-03 19:40:40</time>
      </trkpt>
      <trkpt lat="29.05119" lon="-13.69189">
        <ele>236.6</ele>
        <time>2021-07-03 19:40:41</time>
      </trkpt>
      <trkpt lat="29.05117" lon="-13.69188">
        <ele>237</ele>
        <time>2021-07-03 19:40:42</time>
      </trkpt>
      <trkpt lat="29.05114" lon="-13.69187">
        <ele>237</ele>
        <time>2021-07-03 19:40:43</time>
      </trkpt>
      <trkpt lat="29.05112" lon="-13.69186">
        <ele>237.2</ele>
        <time>2021-07-03 19:40:44</time>
      </trkpt>
      <trkpt lat="29.05109" lon="-13.69185">
        <ele>237.2</ele>
        <time>2021-07-03 19:40:45</time>
      </trkpt>
      <trkpt lat="29.05107" lon="-13.69184">
        <ele>237.2</ele>
        <time>2021-07-03 19:40:46</time>
      </trkpt>
      <trkpt lat="29.05105" lon="-13.69183">
        <ele>237.4</ele>
        <time>2021-07-03 19:40:47</time>
      </trkpt>
      <trkpt lat="29.05103" lon="-13.69183">
        <ele>237.4</ele>
        <time>2021-07-03 19:40:48</time>
      </trkpt>
      <trkpt lat="29.05101" lon="-13.69182">
        <ele>237.4</ele>
        <time>2021-07-03 19:40:49</time>
      </trkpt>
      <trkpt lat="29.051" lon="-13.69182">
        <ele>237.6</ele>
        <time>2021-07-03 19:40:50</time>
      </trkpt>
      <trkpt lat="29.05098" lon="-13.69182">
        <ele>237.6</ele>
        <time>2021-07-03 19:40:51</time>
      </trkpt>
      <trkpt lat="29.05097" lon="-13.69182">
        <ele>237.6</ele>
        <time>2021-07-03 19:40:52</time>
      </trkpt>
      <trkpt lat="29.05097" lon="-13.69182">
        <ele>237.6</ele>
        <time>2021-07-03 19:40:53</time>
      </trkpt>
      <trkpt lat="29.05098" lon="-13.69182">
        <ele>237.8</ele>
        <time>2021-07-03 19:40:54</time>
      </trkpt>
      <trkpt lat="29.05098" lon="-13.69182">
        <ele>237.8</ele>
        <time>2021-07-03 19:40:55</time>
      </trkpt>
      <trkpt lat="29.05097" lon="-13.69182">
        <ele>238.4</ele>
        <time>2021-07-03 19:40:56</time>
      </trkpt>
      <trkpt lat="29.05095" lon="-13.69181">
        <ele>238.4</ele>
        <time>2021-07-03 19:40:57</time>
      </trkpt>
      <trkpt lat="29.05093" lon="-13.6918">
        <ele>238.4</ele>
        <time>2021-07-03 19:40:58</time>
      </trkpt>
      <trkpt lat="29.05091" lon="-13.69178">
        <ele>238.4</ele>
        <time>2021-07-03 19:40:59</time>
      </trkpt>
      <trkpt lat="29.05089" lon="-13.69176">
        <ele>238.4</ele>
        <time>2021-07-03 19:41:00</time>
      </trkpt>
      <trkpt lat="29.05086" lon="-13.69174">
        <ele>238.4</ele>
        <time>2021-07-03 19:41:01</time>
      </trkpt>
      <trkpt lat="29.05082" lon="-13.69173">
        <ele>238.4</ele>
        <time>2021-07-03 19:41:09</time>
      </trkpt>
      <trkpt lat="29.05079" lon="-13.69172">
        <ele>238.4</ele>
        <time>2021-07-03 19:41:10</time>
      </trkpt>
      <trkpt lat="29.05076" lon="-13.69172">
        <ele>238.4</ele>
        <time>2021-07-03 19:41:11</time>
      </trkpt>
      <trkpt lat="29.05073" lon="-13.69171">
        <ele>238.4</ele>
        <time>2021-07-03 19:41:12</time>
      </trkpt>
      <trkpt lat="29.05069" lon="-13.69172">
        <ele>238.4</ele>
        <time>2021-07-03 19:41:13</time>
      </trkpt>
      <trkpt lat="29.05066" lon="-13.69172">
        <ele>238.4</ele>
        <time>2021-07-03 19:41:14</time>
      </trkpt>
      <trkpt lat="29.05063" lon="-13.69173">
        <ele>238.6</ele>
        <time>2021-07-03 19:41:15</time>
      </trkpt>
      <trkpt lat="29.05059" lon="-13.69173">
        <ele>238.6</ele>
        <time>2021-07-03 19:41:16</time>
      </trkpt>
      <trkpt lat="29.05056" lon="-13.69174">
        <ele>238.6</ele>
        <time>2021-07-03 19:41:17</time>
      </trkpt>
      <trkpt lat="29.05052" lon="-13.69175">
        <ele>238.6</ele>
        <time>2021-07-03 19:41:18</time>
      </trkpt>
      <trkpt lat="29.05049" lon="-13.69176">
        <ele>238.6</ele>
        <time>2021-07-03 19:41:19</time>
      </trkpt>
      <trkpt lat="29.05045" lon="-13.69176">
        <ele>238.6</ele>
        <time>2021-07-03 19:41:20</time>
      </trkpt>
      <trkpt lat="29.05041" lon="-13.69177">
        <ele>238.8</ele>
        <time>2021-07-03 19:41:21</time>
      </trkpt>
      <trkpt lat="29.05037" lon="-13.69178">
        <ele>238.8</ele>
        <time>2021-07-03 19:41:22</time>
      </trkpt>
      <trkpt lat="29.05034" lon="-13.69179">
        <ele>238.8</ele>
        <time>2021-07-03 19:41:23</time>
      </trkpt>
      <trkpt lat="29.0503" lon="-13.6918">
        <ele>238.8</ele>
        <time>2021-07-03 19:41:24</time>
      </trkpt>
      <trkpt lat="29.05026" lon="-13.69181">
        <ele>239</ele>
        <time>2021-07-03 19:41:25</time>
      </trkpt>
      <trkpt lat="29.05022" lon="-13.69181">
        <ele>239</ele>
        <time>2021-07-03 19:41:26</time>
      </trkpt>
      <trkpt lat="29.05019" lon="-13.69182">
        <ele>239.2</ele>
        <time>2021-07-03 19:41:27</time>
      </trkpt>
      <trkpt lat="29.05015" lon="-13.69182">
        <ele>239.2</ele>
        <time>2021-07-03 19:41:28</time>
      </trkpt>
      <trkpt lat="29.05011" lon="-13.69183">
        <ele>239.2</ele>
        <time>2021-07-03 19:41:29</time>
      </trkpt>
      <trkpt lat="29.05008" lon="-13.69184">
        <ele>239.4</ele>
        <time>2021-07-03 19:41:30</time>
      </trkpt>
      <trkpt lat="29.05004" lon="-13.69185">
        <ele>239.4</ele>
        <time>2021-07-03 19:41:31</time>
      </trkpt>
      <trkpt lat="29.05001" lon="-13.69185">
        <ele>239.4</ele>
        <time>2021-07-03 19:41:32</time>
      </trkpt>
      <trkpt lat="29.04999" lon="-13.69185">
        <ele>239.8</ele>
        <time>2021-07-03 19:41:33</time>
      </trkpt>
      <trkpt lat="29.04996" lon="-13.69183">
        <ele>239.8</ele>
        <time>2021-07-03 19:41:34</time>
      </trkpt>
      <trkpt lat="29.04993" lon="-13.69181">
        <ele>240</ele>
        <time>2021-07-03 19:41:35</time>
      </trkpt>
      <trkpt lat="29.0499" lon="-13.69178">
        <ele>240</ele>
        <time>2021-07-03 19:41:36</time>
      </trkpt>
      <trkpt lat="29.04988" lon="-13.69174">
        <ele>240</ele>
        <time>2021-07-03 19:41:37</time>
      </trkpt>
      <trkpt lat="29.04987" lon="-13.6917">
        <ele>240</ele>
        <time>2021-07-03 19:41:38</time>
      </trkpt>
      <trkpt lat="29.04986" lon="-13.69166">
        <ele>240.4</ele>
        <time>2021-07-03 19:41:39</time>
      </trkpt>
      <trkpt lat="29.04984" lon="-13.69162">
        <ele>240.4</ele>
        <time>2021-07-03 19:41:40</time>
      </trkpt>
      <trkpt lat="29.04983" lon="-13.69158">
        <ele>240.6</ele>
        <time>2021-07-03 19:41:41</time>
      </trkpt>
      <trkpt lat="29.04982" lon="-13.69155">
        <ele>240.6</ele>
        <time>2021-07-03 19:41:42</time>
      </trkpt>
      <trkpt lat="29.04981" lon="-13.69151">
        <ele>241</ele>
        <time>2021-07-03 19:41:43</time>
      </trkpt>
      <trkpt lat="29.04979" lon="-13.69147">
        <ele>241</ele>
        <time>2021-07-03 19:41:44</time>
      </trkpt>
      <trkpt lat="29.04977" lon="-13.69144">
        <ele>241.2</ele>
        <time>2021-07-03 19:41:45</time>
      </trkpt>
      <trkpt lat="29.04976" lon="-13.6914">
        <ele>241.2</ele>
        <time>2021-07-03 19:41:46</time>
      </trkpt>
      <trkpt lat="29.04974" lon="-13.69137">
        <ele>241.4</ele>
        <time>2021-07-03 19:41:47</time>
      </trkpt>
      <trkpt lat="29.04972" lon="-13.69135">
        <ele>241.4</ele>
        <time>2021-07-03 19:41:48</time>
      </trkpt>
      <trkpt lat="29.0497" lon="-13.69133">
        <ele>241.8</ele>
        <time>2021-07-03 19:41:49</time>
      </trkpt>
      <trkpt lat="29.04967" lon="-13.69132">
        <ele>242</ele>
        <time>2021-07-03 19:41:50</time>
      </trkpt>
      <trkpt lat="29.04963" lon="-13.69131">
        <ele>242</ele>
        <time>2021-07-03 19:41:51</time>
      </trkpt>
      <trkpt lat="29.0496" lon="-13.69131">
        <ele>242.2</ele>
        <time>2021-07-03 19:41:52</time>
      </trkpt>
      <trkpt lat="29.04956" lon="-13.69132">
        <ele>242.2</ele>
        <time>2021-07-03 19:41:53</time>
      </trkpt>
      <trkpt lat="29.04952" lon="-13.69133">
        <ele>242.2</ele>
        <time>2021-07-03 19:41:54</time>
      </trkpt>
      <trkpt lat="29.04948" lon="-13.69135">
        <ele>242.2</ele>
        <time>2021-07-03 19:41:55</time>
      </trkpt>
      <trkpt lat="29.04944" lon="-13.69137">
        <ele>242.2</ele>
        <time>2021-07-03 19:41:56</time>
      </trkpt>
      <trkpt lat="29.0494" lon="-13.69139">
        <ele>242</ele>
        <time>2021-07-03 19:41:57</time>
      </trkpt>
      <trkpt lat="29.04936" lon="-13.69141">
        <ele>242</ele>
        <time>2021-07-03 19:41:58</time>
      </trkpt>
      <trkpt lat="29.04932" lon="-13.69142">
        <ele>242</ele>
        <time>2021-07-03 19:41:59</time>
      </trkpt>
      <trkpt lat="29.04928" lon="-13.69144">
        <ele>241.8</ele>
        <time>2021-07-03 19:42:00</time>
      </trkpt>
      <trkpt lat="29.04924" lon="-13.69146">
        <ele>241.8</ele>
        <time>2021-07-03 19:42:01</time>
      </trkpt>
      <trkpt lat="29.0492" lon="-13.69146">
        <ele>241.8</ele>
        <time>2021-07-03 19:42:02</time>
      </trkpt>
      <trkpt lat="29.04918" lon="-13.69146">
        <ele>241.4</ele>
        <time>2021-07-03 19:42:03</time>
      </trkpt>
      <trkpt lat="29.04917" lon="-13.69144">
        <ele>241.4</ele>
        <time>2021-07-03 19:42:04</time>
      </trkpt>
      <trkpt lat="29.04918" lon="-13.69142">
        <ele>241.2</ele>
        <time>2021-07-03 19:42:05</time>
      </trkpt>
      <trkpt lat="29.04921" lon="-13.6914">
        <ele>241.2</ele>
        <time>2021-07-03 19:42:06</time>
      </trkpt>
      <trkpt lat="29.04924" lon="-13.6914">
        <ele>241.2</ele>
        <time>2021-07-03 19:43:00</time>
      </trkpt>
      <trkpt lat="29.04928" lon="-13.6914">
        <ele>241.2</ele>
        <time>2021-07-03 19:43:01</time>
      </trkpt>
      <trkpt lat="29.04931" lon="-13.6914">
        <ele>241</ele>
        <time>2021-07-03 19:43:02</time>
      </trkpt>
      <trkpt lat="29.04934" lon="-13.69139">
        <ele>241</ele>
        <time>2021-07-03 19:43:03</time>
      </trkpt>
      <trkpt lat="29.04937" lon="-13.69139">
        <ele>241</ele>
        <time>2021-07-03 19:43:04</time>
      </trkpt>
      <trkpt lat="29.04939" lon="-13.6914">
        <ele>241</ele>
        <time>2021-07-03 19:43:05</time>
      </trkpt>
      <trkpt lat="29.0494" lon="-13.69141">
        <ele>241.2</ele>
        <time>2021-07-03 19:43:06</time>
      </trkpt>
      <trkpt lat="29.0494" lon="-13.69141">
        <ele>241.2</ele>
        <time>2021-07-03 19:43:07</time>
      </trkpt>
      <trkpt lat="29.0494" lon="-13.69142">
        <ele>241.2</ele>
        <time>2021-07-03 19:43:08</time>
      </trkpt>
      <trkpt lat="29.0494" lon="-13.69142">
        <ele>241.2</ele>
        <time>2021-07-03 19:43:09</time>
      </trkpt>
      <trkpt lat="29.04941" lon="-13.69142">
        <ele>241.4</ele>
        <time>2021-07-03 19:43:10</time>
      </trkpt>
      <trkpt lat="29.04941" lon="-13.69142">
        <ele>241.4</ele>
        <time>2021-07-03 19:43:11</time>
      </trkpt>
      <trkpt lat="29.04941" lon="-13.69142">
        <ele>241.4</ele>
        <time>2021-07-03 19:43:12</time>
      </trkpt>
      <trkpt lat="29.04941" lon="-13.69142">
        <ele>241.4</ele>
        <time>2021-07-03 19:43:13</time>
      </trkpt>
      <trkpt lat="29.04941" lon="-13.69142">
        <ele>241.4</ele>
        <time>2021-07-03 19:43:14</time>
      </trkpt>
      <trkpt lat="29.0494" lon="-13.69141">
        <ele>241.8</ele>
        <time>2021-07-03 19:43:15</time>
      </trkpt>
      <trkpt lat="29.0494" lon="-13.6914">
        <ele>241.8</ele>
        <time>2021-07-03 19:43:16</time>
      </trkpt>
      <trkpt lat="29.0494" lon="-13.6914">
        <ele>241.8</ele>
        <time>2021-07-03 19:43:17</time>
      </trkpt>
      <trkpt lat="29.04939" lon="-13.69139">
        <ele>241.8</ele>
        <time>2021-07-03 19:43:18</time>
      </trkpt>
      <trkpt lat="29.04939" lon="-13.69139">
        <ele>241.8</ele>
        <time>2021-07-03 19:43:19</time>
      </trkpt>
      <trkpt lat="29.04939" lon="-13.6914">
        <ele>242</ele>
        <time>2021-07-03 19:43:20</time>
      </trkpt>
      <trkpt lat="29.04938" lon="-13.6914">
        <ele>242</ele>
        <time>2021-07-03 19:43:21</time>
      </trkpt>
      <trkpt lat="29.04937" lon="-13.6914">
        <ele>242</ele>
        <time>2021-07-03 19:43:22</time>
      </trkpt>
      <trkpt lat="29.04936" lon="-13.69141">
        <ele>242</ele>
        <time>2021-07-03 19:43:23</time>
      </trkpt>
      <trkpt lat="29.04935" lon="-13.69142">
        <ele>242</ele>
        <time>2021-07-03 19:43:24</time>
      </trkpt>
      <trkpt lat="29.04932" lon="-13.69143">
        <ele>242</ele>
        <time>2021-07-03 19:43:25</time>
      </trkpt>
      <trkpt lat="29.0493" lon="-13.69145">
        <ele>242</ele>
        <time>2021-07-03 19:43:26</time>
      </trkpt>
      <trkpt lat="29.04927" lon="-13.69146">
        <ele>242</ele>
        <time>2021-07-03 19:43:27</time>
      </trkpt>
      <trkpt lat="29.04925" lon="-13.69147">
        <ele>242</ele>
        <time>2021-07-03 19:43:28</time>
      </trkpt>
      <trkpt lat="29.04922" lon="-13.69148">
        <ele>242</ele>
        <time>2021-07-03 19:43:29</time>
      </trkpt>
      <trkpt lat="29.04919" lon="-13.69149">
        <ele>242</ele>
        <time>2021-07-03 19:43:30</time>
      </trkpt>
      <trkpt lat="29.04916" lon="-13.69149">
        <ele>242</ele>
        <time>2021-07-03 19:43:31</time>
      </trkpt>
      <trkpt lat="29.04913" lon="-13.69149">
        <ele>242</ele>
        <time>2021-07-03 19:43:32</time>
      </trkpt>
      <trkpt lat="29.0491" lon="-13.69147">
        <ele>242</ele>
        <time>2021-07-03 19:43:33</time>
      </trkpt>
      <trkpt lat="29.04908" lon="-13.69145">
        <ele>241.6</ele>
        <time>2021-07-03 19:43:34</time>
      </trkpt>
      <trkpt lat="29.04905" lon="-13.69143">
        <ele>241.6</ele>
        <time>2021-07-03 19:43:35</time>
      </trkpt>
      <trkpt lat="29.04903" lon="-13.6914">
        <ele>241.6</ele>
        <time>2021-07-03 19:43:36</time>
      </trkpt>
      <trkpt lat="29.04901" lon="-13.69137">
        <ele>241.6</ele>
        <time>2021-07-03 19:43:37</time>
      </trkpt>
      <trkpt lat="29.04899" lon="-13.69133">
        <ele>241.6</ele>
        <time>2021-07-03 19:43:38</time>
      </trkpt>
      <trkpt lat="29.04897" lon="-13.6913">
        <ele>241.6</ele>
        <time>2021-07-03 19:43:39</time>
      </trkpt>
      <trkpt lat="29.04896" lon="-13.69126">
        <ele>241.6</ele>
        <time>2021-07-03 19:43:40</time>
      </trkpt>
      <trkpt lat="29.04894" lon="-13.69123">
        <ele>241.6</ele>
        <time>2021-07-03 19:43:41</time>
      </trkpt>
      <trkpt lat="29.04892" lon="-13.6912">
        <ele>241.6</ele>
        <time>2021-07-03 19:43:42</time>
      </trkpt>
      <trkpt lat="29.0489" lon="-13.69116">
        <ele>242</ele>
        <time>2021-07-03 19:43:43</time>
      </trkpt>
      <trkpt lat="29.04888" lon="-13.69113">
        <ele>242</ele>
        <time>2021-07-03 19:43:44</time>
      </trkpt>
      <trkpt lat="29.04887" lon="-13.69109">
        <ele>242</ele>
        <time>2021-07-03 19:43:45</time>
      </trkpt>
      <trkpt lat="29.04885" lon="-13.69106">
        <ele>242</ele>
        <time>2021-07-03 19:43:46</time>
      </trkpt>
      <trkpt lat="29.04883" lon="-13.69103">
        <ele>242</ele>
        <time>2021-07-03 19:43:47</time>
      </trkpt>
      <trkpt lat="29.04881" lon="-13.691">
        <ele>242.2</ele>
        <time>2021-07-03 19:43:48</time>
      </trkpt>
      <trkpt lat="29.04879" lon="-13.69097">
        <ele>242.2</ele>
        <time>2021-07-03 19:43:49</time>
      </trkpt>
      <trkpt lat="29.04878" lon="-13.69093">
        <ele>242.4</ele>
        <time>2021-07-03 19:43:50</time>
      </trkpt>
      <trkpt lat="29.04876" lon="-13.6909">
        <ele>242.4</ele>
        <time>2021-07-03 19:43:51</time>
      </trkpt>
      <trkpt lat="29.04874" lon="-13.69087">
        <ele>242.4</ele>
        <time>2021-07-03 19:43:52</time>
      </trkpt>
      <trkpt lat="29.04872" lon="-13.69083">
        <ele>242.4</ele>
        <time>2021-07-03 19:43:53</time>
      </trkpt>
      <trkpt lat="29.0487" lon="-13.6908">
        <ele>242.6</ele>
        <time>2021-07-03 19:43:54</time>
      </trkpt>
      <trkpt lat="29.04868" lon="-13.69077">
        <ele>242.6</ele>
        <time>2021-07-03 19:43:55</time>
      </trkpt>
      <trkpt lat="29.04866" lon="-13.69073">
        <ele>242.6</ele>
        <time>2021-07-03 19:43:56</time>
      </trkpt>
      <trkpt lat="29.04864" lon="-13.6907">
        <ele>242.8</ele>
        <time>2021-07-03 19:43:57</time>
      </trkpt>
      <trkpt lat="29.04862" lon="-13.69067">
        <ele>242.8</ele>
        <time>2021-07-03 19:43:58</time>
      </trkpt>
      <trkpt lat="29.04859" lon="-13.69064">
        <ele>242.8</ele>
        <time>2021-07-03 19:43:59</time>
      </trkpt>
      <trkpt lat="29.04858" lon="-13.69061">
        <ele>243</ele>
        <time>2021-07-03 19:44:00</time>
      </trkpt>
      <trkpt lat="29.04856" lon="-13.69058">
        <ele>243</ele>
        <time>2021-07-03 19:44:01</time>
      </trkpt>
      <trkpt lat="29.04854" lon="-13.69055">
        <ele>243</ele>
        <time>2021-07-03 19:44:02</time>
      </trkpt>
      <trkpt lat="29.04853" lon="-13.69053">
        <ele>243</ele>
        <time>2021-07-03 19:44:03</time>
      </trkpt>
      <trkpt lat="29.04851" lon="-13.69051">
        <ele>243.4</ele>
        <time>2021-07-03 19:44:04</time>
      </trkpt>
      <trkpt lat="29.0485" lon="-13.69049">
        <ele>243.4</ele>
        <time>2021-07-03 19:44:58</time>
      </trkpt>
      <trkpt lat="29.04848" lon="-13.69047">
        <ele>243.4</ele>
        <time>2021-07-03 19:44:59</time>
      </trkpt>
      <trkpt lat="29.04846" lon="-13.69045">
        <ele>243.4</ele>
        <time>2021-07-03 19:45:00</time>
      </trkpt>
      <trkpt lat="29.04845" lon="-13.69043">
        <ele>243.4</ele>
        <time>2021-07-03 19:45:01</time>
      </trkpt>
      <trkpt lat="29.04844" lon="-13.69041">
        <ele>243.4</ele>
        <time>2021-07-03 19:45:02</time>
      </trkpt>
      <trkpt lat="29.04842" lon="-13.69039">
        <ele>243.4</ele>
        <time>2021-07-03 19:45:03</time>
      </trkpt>
      <trkpt lat="29.04839" lon="-13.69038">
        <ele>243.4</ele>
        <time>2021-07-03 19:45:04</time>
      </trkpt>
      <trkpt lat="29.04837" lon="-13.69038">
        <ele>243.4</ele>
        <time>2021-07-03 19:45:05</time>
      </trkpt>
      <trkpt lat="29.04834" lon="-13.69039">
        <ele>243.4</ele>
        <time>2021-07-03 19:45:06</time>
      </trkpt>
      <trkpt lat="29.04832" lon="-13.69039">
        <ele>243.4</ele>
        <time>2021-07-03 19:45:07</time>
      </trkpt>
      <trkpt lat="29.0483" lon="-13.69041">
        <ele>243.4</ele>
        <time>2021-07-03 19:45:08</time>
      </trkpt>
      <trkpt lat="29.04828" lon="-13.69042">
        <ele>243.4</ele>
        <time>2021-07-03 19:45:09</time>
      </trkpt>
      <trkpt lat="29.04825" lon="-13.69045">
        <ele>243.4</ele>
        <time>2021-07-03 19:45:10</time>
      </trkpt>
      <trkpt lat="29.04823" lon="-13.69047">
        <ele>243.4</ele>
        <time>2021-07-03 19:45:11</time>
      </trkpt>
      <trkpt lat="29.0482" lon="-13.6905">
        <ele>243.4</ele>
        <time>2021-07-03 19:45:12</time>
      </trkpt>
      <trkpt lat="29.04818" lon="-13.69052">
        <ele>243.4</ele>
        <time>2021-07-03 19:45:13</time>
      </trkpt>
      <trkpt lat="29.04815" lon="-13.69054">
        <ele>243.6</ele>
        <time>2021-07-03 19:45:14</time>
      </trkpt>
      <trkpt lat="29.04812" lon="-13.69057">
        <ele>243.6</ele>
        <time>2021-07-03 19:45:15</time>
      </trkpt>
      <trkpt lat="29.04809" lon="-13.69059">
        <ele>243.8</ele>
        <time>2021-07-03 19:45:16</time>
      </trkpt>
      <trkpt lat="29.04805" lon="-13.69061">
        <ele>243.8</ele>
        <time>2021-07-03 19:45:17</time>
      </trkpt>
      <trkpt lat="29.04802" lon="-13.69062">
        <ele>243.8</ele>
        <time>2021-07-03 19:45:18</time>
      </trkpt>
      <trkpt lat="29.04798" lon="-13.69065">
        <ele>243.8</ele>
        <time>2021-07-03 19:45:19</time>
      </trkpt>
      <trkpt lat="29.04795" lon="-13.69067">
        <ele>243.8</ele>
        <time>2021-07-03 19:45:20</time>
      </trkpt>
      <trkpt lat="29.04792" lon="-13.6907">
        <ele>243.8</ele>
        <time>2021-07-03 19:45:21</time>
      </trkpt>
      <trkpt lat="29.04789" lon="-13.69073">
        <ele>243.8</ele>
        <time>2021-07-03 19:45:22</time>
      </trkpt>
      <trkpt lat="29.04786" lon="-13.69076">
        <ele>243.8</ele>
        <time>2021-07-03 19:45:23</time>
      </trkpt>
      <trkpt lat="29.04783" lon="-13.69079">
        <ele>243.6</ele>
        <time>2021-07-03 19:45:24</time>
      </trkpt>
      <trkpt lat="29.0478" lon="-13.69082">
        <ele>243.6</ele>
        <time>2021-07-03 19:45:25</time>
      </trkpt>
      <trkpt lat="29.04777" lon="-13.69086">
        <ele>243.6</ele>
        <time>2021-07-03 19:45:26</time>
      </trkpt>
      <trkpt lat="29.04774" lon="-13.69089">
        <ele>243.6</ele>
        <time>2021-07-03 19:45:27</time>
      </trkpt>
      <trkpt lat="29.04771" lon="-13.69092">
        <ele>243.6</ele>
        <time>2021-07-03 19:45:28</time>
      </trkpt>
      <trkpt lat="29.04768" lon="-13.69096">
        <ele>243.6</ele>
        <time>2021-07-03 19:45:29</time>
      </trkpt>
      <trkpt lat="29.04764" lon="-13.69101">
        <ele>243.6</ele>
        <time>2021-07-03 19:45:30</time>
      </trkpt>
      <trkpt lat="29.04761" lon="-13.69105">
        <ele>243.8</ele>
        <time>2021-07-03 19:45:31</time>
      </trkpt>
      <trkpt lat="29.04758" lon="-13.69108">
        <ele>243.8</ele>
        <time>2021-07-03 19:45:32</time>
      </trkpt>
      <trkpt lat="29.04755" lon="-13.69112">
        <ele>243.6</ele>
        <time>2021-07-03 19:45:33</time>
      </trkpt>
      <trkpt lat="29.04752" lon="-13.69115">
        <ele>244</ele>
        <time>2021-07-03 19:45:34</time>
      </trkpt>
      <trkpt lat="29.04749" lon="-13.69119">
        <ele>244.2</ele>
        <time>2021-07-03 19:45:35</time>
      </trkpt>
      <trkpt lat="29.04746" lon="-13.69122">
        <ele>244.2</ele>
        <time>2021-07-03 19:45:36</time>
      </trkpt>
      <trkpt lat="29.04744" lon="-13.69125">
        <ele>244.2</ele>
        <time>2021-07-03 19:45:37</time>
      </trkpt>
      <trkpt lat="29.04741" lon="-13.69129">
        <ele>244.6</ele>
        <time>2021-07-03 19:45:38</time>
      </trkpt>
      <trkpt lat="29.04738" lon="-13.69132">
        <ele>244.6</ele>
        <time>2021-07-03 19:45:39</time>
      </trkpt>
      <trkpt lat="29.04736" lon="-13.69135">
        <ele>244.2</ele>
        <time>2021-07-03 19:45:40</time>
      </trkpt>
      <trkpt lat="29.04733" lon="-13.69139">
        <ele>244.6</ele>
        <time>2021-07-03 19:45:41</time>
      </trkpt>
      <trkpt lat="29.0473" lon="-13.69142">
        <ele>244.8</ele>
        <time>2021-07-03 19:45:42</time>
      </trkpt>
      <trkpt lat="29.04728" lon="-13.69146">
        <ele>244.8</ele>
        <time>2021-07-03 19:45:43</time>
      </trkpt>
      <trkpt lat="29.04725" lon="-13.69149">
        <ele>245</ele>
        <time>2021-07-03 19:45:44</time>
      </trkpt>
      <trkpt lat="29.04722" lon="-13.69153">
        <ele>245</ele>
        <time>2021-07-03 19:45:45</time>
      </trkpt>
      <trkpt lat="29.04719" lon="-13.69156">
        <ele>245</ele>
        <time>2021-07-03 19:45:46</time>
      </trkpt>
      <trkpt lat="29.04716" lon="-13.6916">
        <ele>245.2</ele>
        <time>2021-07-03 19:45:47</time>
      </trkpt>
      <trkpt lat="29.04713" lon="-13.69163">
        <ele>245.2</ele>
        <time>2021-07-03 19:45:48</time>
      </trkpt>
      <trkpt lat="29.0471" lon="-13.69167">
        <ele>245.2</ele>
        <time>2021-07-03 19:45:49</time>
      </trkpt>
      <trkpt lat="29.04708" lon="-13.69171">
        <ele>245.2</ele>
        <time>2021-07-03 19:45:50</time>
      </trkpt>
      <trkpt lat="29.04706" lon="-13.69174">
        <ele>245.4</ele>
        <time>2021-07-03 19:45:51</time>
      </trkpt>
      <trkpt lat="29.04703" lon="-13.69178">
        <ele>245.4</ele>
        <time>2021-07-03 19:45:52</time>
      </trkpt>
      <trkpt lat="29.04701" lon="-13.69182">
        <ele>245.4</ele>
        <time>2021-07-03 19:45:53</time>
      </trkpt>
      <trkpt lat="29.04699" lon="-13.69186">
        <ele>245.4</ele>
        <time>2021-07-03 19:45:54</time>
      </trkpt>
      <trkpt lat="29.04696" lon="-13.6919">
        <ele>245.4</ele>
        <time>2021-07-03 19:45:55</time>
      </trkpt>
      <trkpt lat="29.04692" lon="-13.69193">
        <ele>245.2</ele>
        <time>2021-07-03 19:45:56</time>
      </trkpt>
      <trkpt lat="29.04686" lon="-13.69197">
        <ele>244.8</ele>
        <time>2021-07-03 19:45:57</time>
      </trkpt>
      <trkpt lat="29.0468" lon="-13.692">
        <ele>244.4</ele>
        <time>2021-07-03 19:45:58</time>
      </trkpt>
      <trkpt lat="29.04674" lon="-13.69204">
        <ele>243.8</ele>
        <time>2021-07-03 19:45:59</time>
      </trkpt>
      <trkpt lat="29.04667" lon="-13.69207">
        <ele>243.4</ele>
        <time>2021-07-03 19:46:00</time>
      </trkpt>
      <trkpt lat="29.04661" lon="-13.69211">
        <ele>242.8</ele>
        <time>2021-07-03 19:46:01</time>
      </trkpt>
      <trkpt lat="29.04656" lon="-13.69217">
        <ele>242.2</ele>
        <time>2021-07-03 19:46:02</time>
      </trkpt>
      <trkpt lat="29.04653" lon="-13.69223">
        <ele>241.8</ele>
        <time>2021-07-03 19:46:03</time>
      </trkpt>
      <trkpt lat="29.0465" lon="-13.6923">
        <ele>241</ele>
        <time>2021-07-03 19:46:04</time>
      </trkpt>
      <trkpt lat="29.04646" lon="-13.69238">
        <ele>240.4</ele>
        <time>2021-07-03 19:46:05</time>
      </trkpt>
      <trkpt lat="29.0464" lon="-13.69246">
        <ele>239.4</ele>
        <time>2021-07-03 19:46:06</time>
      </trkpt>
      <trkpt lat="29.04634" lon="-13.69252">
        <ele>238.6</ele>
        <time>2021-07-03 19:46:07</time>
      </trkpt>
      <trkpt lat="29.04627" lon="-13.69258">
        <ele>238</ele>
        <time>2021-07-03 19:46:08</time>
      </trkpt>
      <trkpt lat="29.0462" lon="-13.69264">
        <ele>237.2</ele>
        <time>2021-07-03 19:46:09</time>
      </trkpt>
      <trkpt lat="29.04613" lon="-13.69269">
        <ele>236.8</ele>
        <time>2021-07-03 19:46:10</time>
      </trkpt>
      <trkpt lat="29.04606" lon="-13.69275">
        <ele>236.4</ele>
        <time>2021-07-03 19:46:11</time>
      </trkpt>
      <trkpt lat="29.046" lon="-13.6928">
        <ele>236.2</ele>
        <time>2021-07-03 19:46:12</time>
      </trkpt>
      <trkpt lat="29.04594" lon="-13.69285">
        <ele>236</ele>
        <time>2021-07-03 19:46:13</time>
      </trkpt>
      <trkpt lat="29.04587" lon="-13.6929">
        <ele>236</ele>
        <time>2021-07-03 19:46:14</time>
      </trkpt>
      <trkpt lat="29.04581" lon="-13.69294">
        <ele>236</ele>
        <time>2021-07-03 19:46:15</time>
      </trkpt>
      <trkpt lat="29.04575" lon="-13.69298">
        <ele>236</ele>
        <time>2021-07-03 19:46:16</time>
      </trkpt>
      <trkpt lat="29.0457" lon="-13.69302">
        <ele>236</ele>
        <time>2021-07-03 19:48:39</time>
      </trkpt>
      <trkpt lat="29.04565" lon="-13.69306">
        <ele>236</ele>
        <time>2021-07-03 19:48:40</time>
      </trkpt>
      <trkpt lat="29.0456" lon="-13.6931">
        <ele>236.2</ele>
        <time>2021-07-03 19:48:41</time>
      </trkpt>
      <trkpt lat="29.04555" lon="-13.69313">
        <ele>236.4</ele>
        <time>2021-07-03 19:48:42</time>
      </trkpt>
      <trkpt lat="29.0455" lon="-13.69317">
        <ele>236.4</ele>
        <time>2021-07-03 19:48:43</time>
      </trkpt>
      <trkpt lat="29.04546" lon="-13.6932">
        <ele>236.8</ele>
        <time>2021-07-03 19:48:44</time>
      </trkpt>
      <trkpt lat="29.04541" lon="-13.69324">
        <ele>236.8</ele>
        <time>2021-07-03 19:48:45</time>
      </trkpt>
      <trkpt lat="29.04536" lon="-13.69327">
        <ele>237.2</ele>
        <time>2021-07-03 19:48:46</time>
      </trkpt>
      <trkpt lat="29.04532" lon="-13.6933">
        <ele>237.2</ele>
        <time>2021-07-03 19:48:47</time>
      </trkpt>
      <trkpt lat="29.04528" lon="-13.69333">
        <ele>237.4</ele>
        <time>2021-07-03 19:48:48</time>
      </trkpt>
      <trkpt lat="29.04523" lon="-13.69336">
        <ele>237.4</ele>
        <time>2021-07-03 19:48:49</time>
      </trkpt>
      <trkpt lat="29.04518" lon="-13.69339">
        <ele>237.6</ele>
        <time>2021-07-03 19:48:50</time>
      </trkpt>
      <trkpt lat="29.04514" lon="-13.69343">
        <ele>237.6</ele>
        <time>2021-07-03 19:48:51</time>
      </trkpt>
      <trkpt lat="29.04509" lon="-13.69345">
        <ele>238</ele>
        <time>2021-07-03 19:48:52</time>
      </trkpt>
      <trkpt lat="29.04504" lon="-13.69348">
        <ele>238</ele>
        <time>2021-07-03 19:48:53</time>
      </trkpt>
      <trkpt lat="29.04499" lon="-13.69351">
        <ele>238</ele>
        <time>2021-07-03 19:48:54</time>
      </trkpt>
      <trkpt lat="29.04495" lon="-13.69355">
        <ele>238.2</ele>
        <time>2021-07-03 19:48:55</time>
      </trkpt>
      <trkpt lat="29.0449" lon="-13.69357">
        <ele>238.2</ele>
        <time>2021-07-03 19:48:56</time>
      </trkpt>
      <trkpt lat="29.04485" lon="-13.6936">
        <ele>238.2</ele>
        <time>2021-07-03 19:48:57</time>
      </trkpt>
      <trkpt lat="29.0448" lon="-13.69363">
        <ele>238.4</ele>
        <time>2021-07-03 19:48:58</time>
      </trkpt>
      <trkpt lat="29.04475" lon="-13.69365">
        <ele>238.4</ele>
        <time>2021-07-03 19:48:59</time>
      </trkpt>
      <trkpt lat="29.0447" lon="-13.69368">
        <ele>238.6</ele>
        <time>2021-07-03 19:49:00</time>
      </trkpt>
      <trkpt lat="29.04465" lon="-13.69371">
        <ele>238.6</ele>
        <time>2021-07-03 19:49:01</time>
      </trkpt>
      <trkpt lat="29.0446" lon="-13.69374">
        <ele>239</ele>
        <time>2021-07-03 19:49:02</time>
      </trkpt>
      <trkpt lat="29.04455" lon="-13.69377">
        <ele>239</ele>
        <time>2021-07-03 19:49:03</time>
      </trkpt>
      <trkpt lat="29.04449" lon="-13.69379">
        <ele>239.2</ele>
        <time>2021-07-03 19:49:04</time>
      </trkpt>
      <trkpt lat="29.04444" lon="-13.69383">
        <ele>239.2</ele>
        <time>2021-07-03 19:49:05</time>
      </trkpt>
      <trkpt lat="29.04439" lon="-13.69385">
        <ele>239.4</ele>
        <time>2021-07-03 19:49:06</time>
      </trkpt>
      <trkpt lat="29.04433" lon="-13.69387">
        <ele>239.4</ele>
        <time>2021-07-03 19:49:07</time>
      </trkpt>
      <trkpt lat="29.04428" lon="-13.69389">
        <ele>239.8</ele>
        <time>2021-07-03 19:49:08</time>
      </trkpt>
      <trkpt lat="29.04423" lon="-13.69392">
        <ele>239.8</ele>
        <time>2021-07-03 19:49:09</time>
      </trkpt>
      <trkpt lat="29.04418" lon="-13.69394">
        <ele>240</ele>
        <time>2021-07-03 19:49:10</time>
      </trkpt>
      <trkpt lat="29.04414" lon="-13.69397">
        <ele>240</ele>
        <time>2021-07-03 19:49:11</time>
      </trkpt>
      <trkpt lat="29.04408" lon="-13.69399">
        <ele>240</ele>
        <time>2021-07-03 19:49:12</time>
      </trkpt>
      <trkpt lat="29.04403" lon="-13.69401">
        <ele>240.4</ele>
        <time>2021-07-03 19:49:13</time>
      </trkpt>
      <trkpt lat="29.04398" lon="-13.69404">
        <ele>240.4</ele>
        <time>2021-07-03 19:49:14</time>
      </trkpt>
      <trkpt lat="29.04393" lon="-13.69406">
        <ele>240.6</ele>
        <time>2021-07-03 19:49:15</time>
      </trkpt>
      <trkpt lat="29.04388" lon="-13.69409">
        <ele>240.6</ele>
        <time>2021-07-03 19:49:16</time>
      </trkpt>
      <trkpt lat="29.04383" lon="-13.69411">
        <ele>240.6</ele>
        <time>2021-07-03 19:49:17</time>
      </trkpt>
      <trkpt lat="29.04378" lon="-13.69414">
        <ele>240.8</ele>
        <time>2021-07-03 19:49:18</time>
      </trkpt>
      <trkpt lat="29.04374" lon="-13.69416">
        <ele>240.8</ele>
        <time>2021-07-03 19:49:19</time>
      </trkpt>
      <trkpt lat="29.04369" lon="-13.69418">
        <ele>241.2</ele>
        <time>2021-07-03 19:49:20</time>
      </trkpt>
      <trkpt lat="29.04365" lon="-13.6942">
        <ele>241.2</ele>
        <time>2021-07-03 19:49:21</time>
      </trkpt>
      <trkpt lat="29.04361" lon="-13.69421">
        <ele>241.4</ele>
        <time>2021-07-03 19:49:22</time>
      </trkpt>
      <trkpt lat="29.04357" lon="-13.69423">
        <ele>241.4</ele>
        <time>2021-07-03 19:49:23</time>
      </trkpt>
      <trkpt lat="29.04354" lon="-13.69425">
        <ele>241.4</ele>
        <time>2021-07-03 19:49:24</time>
      </trkpt>
      <trkpt lat="29.04351" lon="-13.69427">
        <ele>241.4</ele>
        <time>2021-07-03 19:49:25</time>
      </trkpt>
      <trkpt lat="29.04348" lon="-13.69429">
        <ele>241.8</ele>
        <time>2021-07-03 19:49:26</time>
      </trkpt>
      <trkpt lat="29.04346" lon="-13.69432">
        <ele>241.8</ele>
        <time>2021-07-03 19:49:27</time>
      </trkpt>
      <trkpt lat="29.04343" lon="-13.69434">
        <ele>241.8</ele>
        <time>2021-07-03 19:49:28</time>
      </trkpt>
      <trkpt lat="29.04339" lon="-13.69437">
        <ele>242</ele>
        <time>2021-07-03 19:49:29</time>
      </trkpt>
      <trkpt lat="29.04336" lon="-13.6944">
        <ele>242</ele>
        <time>2021-07-03 19:49:30</time>
      </trkpt>
      <trkpt lat="29.04333" lon="-13.69443">
        <ele>242</ele>
        <time>2021-07-03 19:49:31</time>
      </trkpt>
      <trkpt lat="29.0433" lon="-13.69445">
        <ele>242.4</ele>
        <time>2021-07-03 19:49:32</time>
      </trkpt>
      <trkpt lat="29.04327" lon="-13.69448">
        <ele>242.4</ele>
        <time>2021-07-03 19:49:33</time>
      </trkpt>
      <trkpt lat="29.04324" lon="-13.6945">
        <ele>242.8</ele>
        <time>2021-07-03 19:49:34</time>
      </trkpt>
      <trkpt lat="29.0432" lon="-13.69453">
        <ele>242.8</ele>
        <time>2021-07-03 19:49:35</time>
      </trkpt>
      <trkpt lat="29.04317" lon="-13.69456">
        <ele>242.8</ele>
        <time>2021-07-03 19:49:36</time>
      </trkpt>
      <trkpt lat="29.04314" lon="-13.69458">
        <ele>243</ele>
        <time>2021-07-03 19:49:37</time>
      </trkpt>
      <trkpt lat="29.0431" lon="-13.69461">
        <ele>243</ele>
        <time>2021-07-03 19:49:38</time>
      </trkpt>
      <trkpt lat="29.04307" lon="-13.69463">
        <ele>243</ele>
        <time>2021-07-03 19:49:39</time>
      </trkpt>
      <trkpt lat="29.04304" lon="-13.69466">
        <ele>243</ele>
        <time>2021-07-03 19:49:40</time>
      </trkpt>
      <trkpt lat="29.043" lon="-13.69469">
        <ele>243</ele>
        <time>2021-07-03 19:49:41</time>
      </trkpt>
      <trkpt lat="29.04297" lon="-13.69472">
        <ele>243</ele>
        <time>2021-07-03 19:49:42</time>
      </trkpt>
      <trkpt lat="29.04294" lon="-13.69475">
        <ele>243.2</ele>
        <time>2021-07-03 19:49:43</time>
      </trkpt>
      <trkpt lat="29.0429" lon="-13.69477">
        <ele>243.2</ele>
        <time>2021-07-03 19:49:44</time>
      </trkpt>
      <trkpt lat="29.04287" lon="-13.6948">
        <ele>243.6</ele>
        <time>2021-07-03 19:49:45</time>
      </trkpt>
      <trkpt lat="29.04284" lon="-13.69482">
        <ele>243.6</ele>
        <time>2021-07-03 19:49:46</time>
      </trkpt>
      <trkpt lat="29.04281" lon="-13.69484">
        <ele>243.8</ele>
        <time>2021-07-03 19:49:47</time>
      </trkpt>
      <trkpt lat="29.04277" lon="-13.69486">
        <ele>243.8</ele>
        <time>2021-07-03 19:49:48</time>
      </trkpt>
      <trkpt lat="29.04273" lon="-13.69485">
        <ele>243.8</ele>
        <time>2021-07-03 19:49:49</time>
      </trkpt>
      <trkpt lat="29.04268" lon="-13.69485">
        <ele>243.8</ele>
        <time>2021-07-03 19:49:50</time>
      </trkpt>
      <trkpt lat="29.04263" lon="-13.69485">
        <ele>243.8</ele>
        <time>2021-07-03 19:49:51</time>
      </trkpt>
      <trkpt lat="29.04259" lon="-13.69484">
        <ele>243.8</ele>
        <time>2021-07-03 19:49:52</time>
      </trkpt>
      <trkpt lat="29.04254" lon="-13.69483">
        <ele>243.8</ele>
        <time>2021-07-03 19:49:53</time>
      </trkpt>
      <trkpt lat="29.0425" lon="-13.69481">
        <ele>244</ele>
        <time>2021-07-03 19:49:54</time>
      </trkpt>
      <trkpt lat="29.04246" lon="-13.69479">
        <ele>244</ele>
        <time>2021-07-03 19:49:55</time>
      </trkpt>
      <trkpt lat="29.04243" lon="-13.69477">
        <ele>244</ele>
        <time>2021-07-03 19:49:56</time>
      </trkpt>
      <trkpt lat="29.04238" lon="-13.69476">
        <ele>244.2</ele>
        <time>2021-07-03 19:49:57</time>
      </trkpt>
      <trkpt lat="29.04234" lon="-13.69473">
        <ele>244.2</ele>
        <time>2021-07-03 19:49:58</time>
      </trkpt>
      <trkpt lat="29.04231" lon="-13.69471">
        <ele>244.6</ele>
        <time>2021-07-03 19:49:59</time>
      </trkpt>
      <trkpt lat="29.04227" lon="-13.69469">
        <ele>244.6</ele>
        <time>2021-07-03 19:50:00</time>
      </trkpt>
      <trkpt lat="29.04223" lon="-13.69468">
        <ele>244.8</ele>
        <time>2021-07-03 19:50:01</time>
      </trkpt>
      <trkpt lat="29.04219" lon="-13.69466">
        <ele>244.8</ele>
        <time>2021-07-03 19:50:02</time>
      </trkpt>
      <trkpt lat="29.04215" lon="-13.69464">
        <ele>245</ele>
        <time>2021-07-03 19:50:03</time>
      </trkpt>
      <trkpt lat="29.0421" lon="-13.69463">
        <ele>245</ele>
        <time>2021-07-03 19:50:04</time>
      </trkpt>
      <trkpt lat="29.04206" lon="-13.69461">
        <ele>245.4</ele>
        <time>2021-07-03 19:50:05</time>
      </trkpt>
      <trkpt lat="29.04202" lon="-13.69459">
        <ele>245.4</ele>
        <time>2021-07-03 19:50:06</time>
      </trkpt>
      <trkpt lat="29.04198" lon="-13.69457">
        <ele>245.6</ele>
        <time>2021-07-03 19:50:07</time>
      </trkpt>
      <trkpt lat="29.04194" lon="-13.69456">
        <ele>245.6</ele>
        <time>2021-07-03 19:50:08</time>
      </trkpt>
      <trkpt lat="29.0419" lon="-13.69454">
        <ele>245.8</ele>
        <time>2021-07-03 19:50:09</time>
      </trkpt>
      <trkpt lat="29.04186" lon="-13.69452">
        <ele>245.8</ele>
        <time>2021-07-03 19:50:10</time>
      </trkpt>
      <trkpt lat="29.04182" lon="-13.69451">
        <ele>245.8</ele>
        <time>2021-07-03 19:50:11</time>
      </trkpt>
      <trkpt lat="29.04178" lon="-13.69449">
        <ele>246</ele>
        <time>2021-07-03 19:50:12</time>
      </trkpt>
      <trkpt lat="29.04174" lon="-13.69447">
        <ele>246</ele>
        <time>2021-07-03 19:50:13</time>
      </trkpt>
      <trkpt lat="29.0417" lon="-13.69446">
        <ele>246.4</ele>
        <time>2021-07-03 19:50:14</time>
      </trkpt>
      <trkpt lat="29.04166" lon="-13.69444">
        <ele>246.4</ele>
        <time>2021-07-03 19:50:15</time>
      </trkpt>
      <trkpt lat="29.04162" lon="-13.69443">
        <ele>246.6</ele>
        <time>2021-07-03 19:50:16</time>
      </trkpt>
      <trkpt lat="29.04159" lon="-13.69441">
        <ele>246.6</ele>
        <time>2021-07-03 19:50:17</time>
      </trkpt>
      <trkpt lat="29.04155" lon="-13.69439">
        <ele>247</ele>
        <time>2021-07-03 19:50:18</time>
      </trkpt>
      <trkpt lat="29.04151" lon="-13.69438">
        <ele>247.2</ele>
        <time>2021-07-03 19:50:19</time>
      </trkpt>
      <trkpt lat="29.04148" lon="-13.69436">
        <ele>247.6</ele>
        <time>2021-07-03 19:50:20</time>
      </trkpt>
      <trkpt lat="29.04144" lon="-13.69434">
        <ele>248</ele>
        <time>2021-07-03 19:50:21</time>
      </trkpt>
      <trkpt lat="29.04141" lon="-13.69433">
        <ele>248.2</ele>
        <time>2021-07-03 19:50:22</time>
      </trkpt>
      <trkpt lat="29.04138" lon="-13.69432">
        <ele>248.2</ele>
        <time>2021-07-03 19:50:23</time>
      </trkpt>
      <trkpt lat="29.04134" lon="-13.69431">
        <ele>248.6</ele>
        <time>2021-07-03 19:50:24</time>
      </trkpt>
      <trkpt lat="29.04131" lon="-13.6943">
        <ele>248.6</ele>
        <time>2021-07-03 19:50:25</time>
      </trkpt>
      <trkpt lat="29.04127" lon="-13.69428">
        <ele>248.6</ele>
        <time>2021-07-03 19:50:26</time>
      </trkpt>
      <trkpt lat="29.04124" lon="-13.69426">
        <ele>248.8</ele>
        <time>2021-07-03 19:50:27</time>
      </trkpt>
      <trkpt lat="29.04116" lon="-13.69424">
        <ele>248.8</ele>
        <time>2021-07-03 19:50:28</time>
      </trkpt>
      <trkpt lat="29.04113" lon="-13.69422">
        <ele>248.8</ele>
        <time>2021-07-03 19:50:29</time>
      </trkpt>
      <trkpt lat="29.04109" lon="-13.69421">
        <ele>248.8</ele>
        <time>2021-07-03 19:50:30</time>
      </trkpt>
      <trkpt lat="29.04105" lon="-13.69419">
        <ele>248.8</ele>
        <time>2021-07-03 19:50:31</time>
      </trkpt>
      <trkpt lat="29.04101" lon="-13.69418">
        <ele>248.8</ele>
        <time>2021-07-03 19:50:32</time>
      </trkpt>
      <trkpt lat="29.04097" lon="-13.69417">
        <ele>248.8</ele>
        <time>2021-07-03 19:50:33</time>
      </trkpt>
      <trkpt lat="29.04093" lon="-13.69415">
        <ele>249</ele>
        <time>2021-07-03 19:50:34</time>
      </trkpt>
      <trkpt lat="29.04089" lon="-13.69413">
        <ele>249</ele>
        <time>2021-07-03 19:50:35</time>
      </trkpt>
      <trkpt lat="29.04085" lon="-13.69411">
        <ele>249</ele>
        <time>2021-07-03 19:50:36</time>
      </trkpt>
      <trkpt lat="29.04081" lon="-13.69409">
        <ele>249.4</ele>
        <time>2021-07-03 19:50:37</time>
      </trkpt>
      <trkpt lat="29.04078" lon="-13.69406">
        <ele>249.4</ele>
        <time>2021-07-03 19:50:38</time>
      </trkpt>
      <trkpt lat="29.04074" lon="-13.69404">
        <ele>249.4</ele>
        <time>2021-07-03 19:50:39</time>
      </trkpt>
      <trkpt lat="29.04071" lon="-13.69402">
        <ele>249.6</ele>
        <time>2021-07-03 19:50:40</time>
      </trkpt>
      <trkpt lat="29.04067" lon="-13.694">
        <ele>249.6</ele>
        <time>2021-07-03 19:50:41</time>
      </trkpt>
      <trkpt lat="29.04063" lon="-13.69399">
        <ele>249.6</ele>
        <time>2021-07-03 19:50:42</time>
      </trkpt>
      <trkpt lat="29.04059" lon="-13.69397">
        <ele>250</ele>
        <time>2021-07-03 19:50:43</time>
      </trkpt>
      <trkpt lat="29.04056" lon="-13.69396">
        <ele>250</ele>
        <time>2021-07-03 19:50:44</time>
      </trkpt>
      <trkpt lat="29.04052" lon="-13.69394">
        <ele>250.2</ele>
        <time>2021-07-03 19:50:45</time>
      </trkpt>
      <trkpt lat="29.04048" lon="-13.69393">
        <ele>250.2</ele>
        <time>2021-07-03 19:50:46</time>
      </trkpt>
      <trkpt lat="29.04044" lon="-13.69392">
        <ele>250.6</ele>
        <time>2021-07-03 19:50:47</time>
      </trkpt>
      <trkpt lat="29.0404" lon="-13.69391">
        <ele>250.6</ele>
        <time>2021-07-03 19:50:48</time>
      </trkpt>
      <trkpt lat="29.04036" lon="-13.6939">
        <ele>250.8</ele>
        <time>2021-07-03 19:50:49</time>
      </trkpt>
      <trkpt lat="29.04032" lon="-13.69389">
        <ele>250.8</ele>
        <time>2021-07-03 19:50:50</time>
      </trkpt>
      <trkpt lat="29.04028" lon="-13.69388">
        <ele>251</ele>
        <time>2021-07-03 19:50:51</time>
      </trkpt>
      <trkpt lat="29.04024" lon="-13.69387">
        <ele>251</ele>
        <time>2021-07-03 19:50:52</time>
      </trkpt>
      <trkpt lat="29.04021" lon="-13.69386">
        <ele>251.4</ele>
        <time>2021-07-03 19:50:53</time>
      </trkpt>
      <trkpt lat="29.04017" lon="-13.69386">
        <ele>251.4</ele>
        <time>2021-07-03 19:50:54</time>
      </trkpt>
      <trkpt lat="29.04013" lon="-13.69385">
        <ele>251.6</ele>
        <time>2021-07-03 19:50:55</time>
      </trkpt>
      <trkpt lat="29.0401" lon="-13.69384">
        <ele>251.6</ele>
        <time>2021-07-03 19:50:56</time>
      </trkpt>
      <trkpt lat="29.04007" lon="-13.69384">
        <ele>252</ele>
        <time>2021-07-03 19:50:57</time>
      </trkpt>
      <trkpt lat="29.04004" lon="-13.69383">
        <ele>252</ele>
        <time>2021-07-03 19:50:58</time>
      </trkpt>
      <trkpt lat="29.04001" lon="-13.69382">
        <ele>252.4</ele>
        <time>2021-07-03 19:50:59</time>
      </trkpt>
      <trkpt lat="29.03998" lon="-13.69382">
        <ele>252.4</ele>
        <time>2021-07-03 19:51:00</time>
      </trkpt>
      <trkpt lat="29.03995" lon="-13.69382">
        <ele>252.4</ele>
        <time>2021-07-03 19:51:01</time>
      </trkpt>
      <trkpt lat="29.03992" lon="-13.69381">
        <ele>252.8</ele>
        <time>2021-07-03 19:51:02</time>
      </trkpt>
      <trkpt lat="29.0399" lon="-13.69381">
        <ele>252.8</ele>
        <time>2021-07-03 19:51:03</time>
      </trkpt>
      <trkpt lat="29.03987" lon="-13.6938">
        <ele>253</ele>
        <time>2021-07-03 19:51:04</time>
      </trkpt>
      <trkpt lat="29.03984" lon="-13.69379">
        <ele>253.4</ele>
        <time>2021-07-03 19:51:05</time>
      </trkpt>
      <trkpt lat="29.03981" lon="-13.69378">
        <ele>253.4</ele>
        <time>2021-07-03 19:51:06</time>
      </trkpt>
      <trkpt lat="29.03979" lon="-13.69377">
        <ele>253.8</ele>
        <time>2021-07-03 19:51:07</time>
      </trkpt>
      <trkpt lat="29.03976" lon="-13.69376">
        <ele>253.8</ele>
        <time>2021-07-03 19:51:08</time>
      </trkpt>
      <trkpt lat="29.03972" lon="-13.69375">
        <ele>254</ele>
        <time>2021-07-03 19:51:09</time>
      </trkpt>
      <trkpt lat="29.03969" lon="-13.69374">
        <ele>254.2</ele>
        <time>2021-07-03 19:51:10</time>
      </trkpt>
      <trkpt lat="29.03966" lon="-13.69374">
        <ele>254.2</ele>
        <time>2021-07-03 19:51:11</time>
      </trkpt>
      <trkpt lat="29.03963" lon="-13.69373">
        <ele>254.4</ele>
        <time>2021-07-03 19:51:12</time>
      </trkpt>
      <trkpt lat="29.0396" lon="-13.69371">
        <ele>254.4</ele>
        <time>2021-07-03 19:51:13</time>
      </trkpt>
      <trkpt lat="29.03957" lon="-13.6937">
        <ele>254.8</ele>
        <time>2021-07-03 19:51:14</time>
      </trkpt>
      <trkpt lat="29.03955" lon="-13.69369">
        <ele>254.8</ele>
        <time>2021-07-03 19:51:15</time>
      </trkpt>
      <trkpt lat="29.03953" lon="-13.69367">
        <ele>255</ele>
        <time>2021-07-03 19:51:16</time>
      </trkpt>
      <trkpt lat="29.0395" lon="-13.69366">
        <ele>255</ele>
        <time>2021-07-03 19:51:17</time>
      </trkpt>
      <trkpt lat="29.03947" lon="-13.69365">
        <ele>255.4</ele>
        <time>2021-07-03 19:51:18</time>
      </trkpt>
      <trkpt lat="29.03944" lon="-13.69364">
        <ele>255.4</ele>
        <time>2021-07-03 19:51:19</time>
      </trkpt>
      <trkpt lat="29.03941" lon="-13.69363">
        <ele>255.8</ele>
        <time>2021-07-03 19:51:20</time>
      </trkpt>
      <trkpt lat="29.03938" lon="-13.69362">
        <ele>256</ele>
        <time>2021-07-03 19:51:21</time>
      </trkpt>
      <trkpt lat="29.03935" lon="-13.69361">
        <ele>256</ele>
        <time>2021-07-03 19:51:22</time>
      </trkpt>
      <trkpt lat="29.03932" lon="-13.6936">
        <ele>256.2</ele>
        <time>2021-07-03 19:51:23</time>
      </trkpt>
      <trkpt lat="29.03929" lon="-13.69359">
        <ele>256.2</ele>
        <time>2021-07-03 19:51:24</time>
      </trkpt>
      <trkpt lat="29.03926" lon="-13.69358">
        <ele>256.4</ele>
        <time>2021-07-03 19:51:25</time>
      </trkpt>
      <trkpt lat="29.03923" lon="-13.69357">
        <ele>256.4</ele>
        <time>2021-07-03 19:51:26</time>
      </trkpt>
      <trkpt lat="29.0392" lon="-13.69356">
        <ele>256.8</ele>
        <time>2021-07-03 19:51:27</time>
      </trkpt>
      <trkpt lat="29.03916" lon="-13.69355">
        <ele>256.8</ele>
        <time>2021-07-03 19:51:28</time>
      </trkpt>
      <trkpt lat="29.03913" lon="-13.69354">
        <ele>257</ele>
        <time>2021-07-03 19:51:29</time>
      </trkpt>
      <trkpt lat="29.0391" lon="-13.69353">
        <ele>257</ele>
        <time>2021-07-03 19:51:30</time>
      </trkpt>
      <trkpt lat="29.03907" lon="-13.69352">
        <ele>257.2</ele>
        <time>2021-07-03 19:51:31</time>
      </trkpt>
      <trkpt lat="29.03903" lon="-13.69351">
        <ele>257.2</ele>
        <time>2021-07-03 19:51:32</time>
      </trkpt>
      <trkpt lat="29.039" lon="-13.6935">
        <ele>257.2</ele>
        <time>2021-07-03 19:51:33</time>
      </trkpt>
      <trkpt lat="29.03897" lon="-13.69349">
        <ele>257.4</ele>
        <time>2021-07-03 19:51:34</time>
      </trkpt>
      <trkpt lat="29.03894" lon="-13.69348">
        <ele>257.4</ele>
        <time>2021-07-03 19:51:35</time>
      </trkpt>
      <trkpt lat="29.0389" lon="-13.69348">
        <ele>257.8</ele>
        <time>2021-07-03 19:51:36</time>
      </trkpt>
      <trkpt lat="29.03887" lon="-13.69347">
        <ele>257.8</ele>
        <time>2021-07-03 19:51:37</time>
      </trkpt>
      <trkpt lat="29.03884" lon="-13.69346">
        <ele>258</ele>
        <time>2021-07-03 19:51:38</time>
      </trkpt>
      <trkpt lat="29.0388" lon="-13.69345">
        <ele>258</ele>
        <time>2021-07-03 19:51:39</time>
      </trkpt>
      <trkpt lat="29.03877" lon="-13.69344">
        <ele>258</ele>
        <time>2021-07-03 19:51:40</time>
      </trkpt>
      <trkpt lat="29.03873" lon="-13.69343">
        <ele>258</ele>
        <time>2021-07-03 19:51:41</time>
      </trkpt>
      <trkpt lat="29.0387" lon="-13.69342">
        <ele>258.2</ele>
        <time>2021-07-03 19:51:42</time>
      </trkpt>
      <trkpt lat="29.03866" lon="-13.69341">
        <ele>258.2</ele>
        <time>2021-07-03 19:51:43</time>
      </trkpt>
      <trkpt lat="29.03863" lon="-13.6934">
        <ele>258.2</ele>
        <time>2021-07-03 19:51:44</time>
      </trkpt>
      <trkpt lat="29.0386" lon="-13.69339">
        <ele>258.4</ele>
        <time>2021-07-03 19:51:45</time>
      </trkpt>
      <trkpt lat="29.03856" lon="-13.69338">
        <ele>258.4</ele>
        <time>2021-07-03 19:51:46</time>
      </trkpt>
      <trkpt lat="29.03853" lon="-13.69337">
        <ele>258.4</ele>
        <time>2021-07-03 19:51:47</time>
      </trkpt>
      <trkpt lat="29.0385" lon="-13.69336">
        <ele>258.4</ele>
        <time>2021-07-03 19:51:48</time>
      </trkpt>
      <trkpt lat="29.03847" lon="-13.69335">
        <ele>258.4</ele>
        <time>2021-07-03 19:51:49</time>
      </trkpt>
      <trkpt lat="29.03843" lon="-13.69335">
        <ele>258.4</ele>
        <time>2021-07-03 19:51:50</time>
      </trkpt>
      <trkpt lat="29.0384" lon="-13.69333">
        <ele>258.4</ele>
        <time>2021-07-03 19:51:51</time>
      </trkpt>
      <trkpt lat="29.03837" lon="-13.69332">
        <ele>258.6</ele>
        <time>2021-07-03 19:51:52</time>
      </trkpt>
      <trkpt lat="29.03833" lon="-13.69331">
        <ele>258.6</ele>
        <time>2021-07-03 19:51:53</time>
      </trkpt>
      <trkpt lat="29.0383" lon="-13.69331">
        <ele>258.6</ele>
        <time>2021-07-03 19:51:54</time>
      </trkpt>
      <trkpt lat="29.03826" lon="-13.6933">
        <ele>258.6</ele>
        <time>2021-07-03 19:51:55</time>
      </trkpt>
      <trkpt lat="29.03823" lon="-13.69328">
        <ele>258.6</ele>
        <time>2021-07-03 19:51:56</time>
      </trkpt>
      <trkpt lat="29.03819" lon="-13.69327">
        <ele>258.8</ele>
        <time>2021-07-03 19:51:57</time>
      </trkpt>
      <trkpt lat="29.03816" lon="-13.69327">
        <ele>258.8</ele>
        <time>2021-07-03 19:51:58</time>
      </trkpt>
      <trkpt lat="29.03813" lon="-13.69326">
        <ele>259.2</ele>
        <time>2021-07-03 19:51:59</time>
      </trkpt>
      <trkpt lat="29.0381" lon="-13.69325">
        <ele>259.2</ele>
        <time>2021-07-03 19:52:00</time>
      </trkpt>
      <trkpt lat="29.03806" lon="-13.69324">
        <ele>259.4</ele>
        <time>2021-07-03 19:52:01</time>
      </trkpt>
      <trkpt lat="29.03803" lon="-13.69322">
        <ele>259.4</ele>
        <time>2021-07-03 19:52:02</time>
      </trkpt>
      <trkpt lat="29.038" lon="-13.69321">
        <ele>259.6</ele>
        <time>2021-07-03 19:52:03</time>
      </trkpt>
      <trkpt lat="29.03796" lon="-13.6932">
        <ele>259.6</ele>
        <time>2021-07-03 19:52:04</time>
      </trkpt>
      <trkpt lat="29.03793" lon="-13.6932">
        <ele>260</ele>
        <time>2021-07-03 19:52:05</time>
      </trkpt>
      <trkpt lat="29.0379" lon="-13.69319">
        <ele>260</ele>
        <time>2021-07-03 19:52:06</time>
      </trkpt>
      <trkpt lat="29.03786" lon="-13.69318">
        <ele>260</ele>
        <time>2021-07-03 19:52:07</time>
      </trkpt>
      <trkpt lat="29.03783" lon="-13.69317">
        <ele>260</ele>
        <time>2021-07-03 19:52:08</time>
      </trkpt>
      <trkpt lat="29.03779" lon="-13.69316">
        <ele>260.2</ele>
        <time>2021-07-03 19:52:09</time>
      </trkpt>
      <trkpt lat="29.03776" lon="-13.69315">
        <ele>260.2</ele>
        <time>2021-07-03 19:52:10</time>
      </trkpt>
      <trkpt lat="29.03772" lon="-13.69315">
        <ele>260.2</ele>
        <time>2021-07-03 19:52:11</time>
      </trkpt>
      <trkpt lat="29.03769" lon="-13.69314">
        <ele>260.2</ele>
        <time>2021-07-03 19:52:12</time>
      </trkpt>
      <trkpt lat="29.03766" lon="-13.69313">
        <ele>260.2</ele>
        <time>2021-07-03 19:52:13</time>
      </trkpt>
      <trkpt lat="29.03763" lon="-13.69312">
        <ele>260.2</ele>
        <time>2021-07-03 19:52:14</time>
      </trkpt>
      <trkpt lat="29.0376" lon="-13.6931">
        <ele>260.6</ele>
        <time>2021-07-03 19:52:15</time>
      </trkpt>
      <trkpt lat="29.03756" lon="-13.6931">
        <ele>260.6</ele>
        <time>2021-07-03 19:52:16</time>
      </trkpt>
      <trkpt lat="29.03753" lon="-13.69308">
        <ele>260.6</ele>
        <time>2021-07-03 19:52:17</time>
      </trkpt>
      <trkpt lat="29.03749" lon="-13.69307">
        <ele>260.6</ele>
        <time>2021-07-03 19:52:18</time>
      </trkpt>
      <trkpt lat="29.03746" lon="-13.69306">
        <ele>260.6</ele>
        <time>2021-07-03 19:52:19</time>
      </trkpt>
      <trkpt lat="29.03743" lon="-13.69305">
        <ele>260.8</ele>
        <time>2021-07-03 19:52:20</time>
      </trkpt>
      <trkpt lat="29.03739" lon="-13.69304">
        <ele>260.8</ele>
        <time>2021-07-03 19:52:21</time>
      </trkpt>
      <trkpt lat="29.03735" lon="-13.69303">
        <ele>260.8</ele>
        <time>2021-07-03 19:52:22</time>
      </trkpt>
      <trkpt lat="29.03732" lon="-13.69302">
        <ele>260.8</ele>
        <time>2021-07-03 19:52:23</time>
      </trkpt>
      <trkpt lat="29.03728" lon="-13.69301">
        <ele>261</ele>
        <time>2021-07-03 19:52:24</time>
      </trkpt>
      <trkpt lat="29.03725" lon="-13.693">
        <ele>261</ele>
        <time>2021-07-03 19:52:25</time>
      </trkpt>
      <trkpt lat="29.03721" lon="-13.69299">
        <ele>261.2</ele>
        <time>2021-07-03 19:52:26</time>
      </trkpt>
      <trkpt lat="29.03717" lon="-13.69298">
        <ele>261.2</ele>
        <time>2021-07-03 19:52:27</time>
      </trkpt>
      <trkpt lat="29.03713" lon="-13.69297">
        <ele>261.2</ele>
        <time>2021-07-03 19:52:28</time>
      </trkpt>
      <trkpt lat="29.03709" lon="-13.69296">
        <ele>261.2</ele>
        <time>2021-07-03 19:52:29</time>
      </trkpt>
      <trkpt lat="29.03705" lon="-13.69296">
        <ele>261.4</ele>
        <time>2021-07-03 19:52:30</time>
      </trkpt>
      <trkpt lat="29.03701" lon="-13.69295">
        <ele>261.4</ele>
        <time>2021-07-03 19:52:31</time>
      </trkpt>
      <trkpt lat="29.03697" lon="-13.69294">
        <ele>261.4</ele>
        <time>2021-07-03 19:52:32</time>
      </trkpt>
      <trkpt lat="29.03693" lon="-13.69292">
        <ele>261.4</ele>
        <time>2021-07-03 19:52:33</time>
      </trkpt>
      <trkpt lat="29.03689" lon="-13.69291">
        <ele>261.8</ele>
        <time>2021-07-03 19:52:34</time>
      </trkpt>
      <trkpt lat="29.03685" lon="-13.6929">
        <ele>261.8</ele>
        <time>2021-07-03 19:52:35</time>
      </trkpt>
      <trkpt lat="29.03681" lon="-13.69288">
        <ele>261.8</ele>
        <time>2021-07-03 19:52:36</time>
      </trkpt>
      <trkpt lat="29.03676" lon="-13.69287">
        <ele>262</ele>
        <time>2021-07-03 19:52:37</time>
      </trkpt>
      <trkpt lat="29.03672" lon="-13.69286">
        <ele>262</ele>
        <time>2021-07-03 19:52:38</time>
      </trkpt>
      <trkpt lat="29.03668" lon="-13.69285">
        <ele>262</ele>
        <time>2021-07-03 19:52:39</time>
      </trkpt>
      <trkpt lat="29.03664" lon="-13.69284">
        <ele>262.2</ele>
        <time>2021-07-03 19:52:40</time>
      </trkpt>
      <trkpt lat="29.0366" lon="-13.69283">
        <ele>262.2</ele>
        <time>2021-07-03 19:52:41</time>
      </trkpt>
      <trkpt lat="29.03656" lon="-13.69282">
        <ele>262.2</ele>
        <time>2021-07-03 19:52:42</time>
      </trkpt>
      <trkpt lat="29.03652" lon="-13.69281">
        <ele>262.4</ele>
        <time>2021-07-03 19:52:43</time>
      </trkpt>
      <trkpt lat="29.03648" lon="-13.6928">
        <ele>262.4</ele>
        <time>2021-07-03 19:52:44</time>
      </trkpt>
      <trkpt lat="29.03644" lon="-13.69279">
        <ele>262.4</ele>
        <time>2021-07-03 19:52:45</time>
      </trkpt>
      <trkpt lat="29.0364" lon="-13.69278">
        <ele>262.8</ele>
        <time>2021-07-03 19:52:46</time>
      </trkpt>
      <trkpt lat="29.03637" lon="-13.69277">
        <ele>262.8</ele>
        <time>2021-07-03 19:52:47</time>
      </trkpt>
      <trkpt lat="29.03633" lon="-13.69276">
        <ele>263</ele>
        <time>2021-07-03 19:52:48</time>
      </trkpt>
      <trkpt lat="29.03629" lon="-13.69275">
        <ele>263.2</ele>
        <time>2021-07-03 19:52:49</time>
      </trkpt>
      <trkpt lat="29.03626" lon="-13.69274">
        <ele>263.2</ele>
        <time>2021-07-03 19:52:50</time>
      </trkpt>
      <trkpt lat="29.03623" lon="-13.69273">
        <ele>263.6</ele>
        <time>2021-07-03 19:52:51</time>
      </trkpt>
      <trkpt lat="29.0362" lon="-13.69272">
        <ele>263.8</ele>
        <time>2021-07-03 19:52:52</time>
      </trkpt>
      <trkpt lat="29.03617" lon="-13.69271">
        <ele>264</ele>
        <time>2021-07-03 19:52:53</time>
      </trkpt>
      <trkpt lat="29.03614" lon="-13.6927">
        <ele>264.4</ele>
        <time>2021-07-03 19:52:54</time>
      </trkpt>
      <trkpt lat="29.03611" lon="-13.69269">
        <ele>264.4</ele>
        <time>2021-07-03 19:52:55</time>
      </trkpt>
      <trkpt lat="29.03608" lon="-13.69269">
        <ele>264.8</ele>
        <time>2021-07-03 19:52:56</time>
      </trkpt>
      <trkpt lat="29.03605" lon="-13.69268">
        <ele>265</ele>
        <time>2021-07-03 19:52:57</time>
      </trkpt>
      <trkpt lat="29.03602" lon="-13.69267">
        <ele>265</ele>
        <time>2021-07-03 19:52:58</time>
      </trkpt>
      <trkpt lat="29.03598" lon="-13.69266">
        <ele>265.4</ele>
        <time>2021-07-03 19:52:59</time>
      </trkpt>
      <trkpt lat="29.03595" lon="-13.69265">
        <ele>265.4</ele>
        <time>2021-07-03 19:53:00</time>
      </trkpt>
      <trkpt lat="29.03592" lon="-13.69264">
        <ele>265.6</ele>
        <time>2021-07-03 19:53:01</time>
      </trkpt>
      <trkpt lat="29.03588" lon="-13.69263">
        <ele>265.8</ele>
        <time>2021-07-03 19:53:02</time>
      </trkpt>
      <trkpt lat="29.03585" lon="-13.69262">
        <ele>265.8</ele>
        <time>2021-07-03 19:53:03</time>
      </trkpt>
      <trkpt lat="29.03581" lon="-13.69261">
        <ele>266.2</ele>
        <time>2021-07-03 19:53:04</time>
      </trkpt>
      <trkpt lat="29.03578" lon="-13.6926">
        <ele>266.2</ele>
        <time>2021-07-03 19:53:05</time>
      </trkpt>
      <trkpt lat="29.03574" lon="-13.69259">
        <ele>266.6</ele>
        <time>2021-07-03 19:53:06</time>
      </trkpt>
      <trkpt lat="29.03571" lon="-13.69258">
        <ele>266.4</ele>
        <time>2021-07-03 19:53:07</time>
      </trkpt>
      <trkpt lat="29.03567" lon="-13.69258">
        <ele>266</ele>
        <time>2021-07-03 19:53:08</time>
      </trkpt>
      <trkpt lat="29.03564" lon="-13.69257">
        <ele>266</ele>
        <time>2021-07-03 19:53:09</time>
      </trkpt>
      <trkpt lat="29.03561" lon="-13.69256">
        <ele>264.8</ele>
        <time>2021-07-03 19:53:10</time>
      </trkpt>
      <trkpt lat="29.03558" lon="-13.69256">
        <ele>265.8</ele>
        <time>2021-07-03 19:53:11</time>
      </trkpt>
      <trkpt lat="29.03554" lon="-13.69255">
        <ele>266.4</ele>
        <time>2021-07-03 19:53:12</time>
      </trkpt>
      <trkpt lat="29.03551" lon="-13.69254">
        <ele>266.6</ele>
        <time>2021-07-03 19:53:13</time>
      </trkpt>
      <trkpt lat="29.03548" lon="-13.69253">
        <ele>266.6</ele>
        <time>2021-07-03 19:53:14</time>
      </trkpt>
      <trkpt lat="29.03545" lon="-13.69252">
        <ele>267</ele>
        <time>2021-07-03 19:53:15</time>
      </trkpt>
      <trkpt lat="29.03542" lon="-13.69251">
        <ele>267</ele>
        <time>2021-07-03 19:53:16</time>
      </trkpt>
      <trkpt lat="29.03539" lon="-13.69251">
        <ele>267.2</ele>
        <time>2021-07-03 19:53:17</time>
      </trkpt>
      <trkpt lat="29.03536" lon="-13.6925">
        <ele>267.2</ele>
        <time>2021-07-03 19:53:18</time>
      </trkpt>
      <trkpt lat="29.03534" lon="-13.69249">
        <ele>267.2</ele>
        <time>2021-07-03 19:53:19</time>
      </trkpt>
      <trkpt lat="29.03531" lon="-13.69248">
        <ele>267.4</ele>
        <time>2021-07-03 19:53:20</time>
      </trkpt>
      <trkpt lat="29.03528" lon="-13.69247">
        <ele>267.4</ele>
        <time>2021-07-03 19:53:21</time>
      </trkpt>
      <trkpt lat="29.03525" lon="-13.69246">
        <ele>267.6</ele>
        <time>2021-07-03 19:53:22</time>
      </trkpt>
      <trkpt lat="29.03522" lon="-13.69245">
        <ele>267.6</ele>
        <time>2021-07-03 19:53:23</time>
      </trkpt>
      <trkpt lat="29.03519" lon="-13.69245">
        <ele>268</ele>
        <time>2021-07-03 19:53:24</time>
      </trkpt>
      <trkpt lat="29.03516" lon="-13.69244">
        <ele>268</ele>
        <time>2021-07-03 19:53:25</time>
      </trkpt>
      <trkpt lat="29.03513" lon="-13.69243">
        <ele>268.4</ele>
        <time>2021-07-03 19:53:26</time>
      </trkpt>
      <trkpt lat="29.0351" lon="-13.69242">
        <ele>268.4</ele>
        <time>2021-07-03 19:53:27</time>
      </trkpt>
      <trkpt lat="29.03507" lon="-13.69241">
        <ele>268.6</ele>
        <time>2021-07-03 19:53:28</time>
      </trkpt>
      <trkpt lat="29.03504" lon="-13.6924">
        <ele>268.6</ele>
        <time>2021-07-03 19:53:29</time>
      </trkpt>
      <trkpt lat="29.03501" lon="-13.69239">
        <ele>269</ele>
        <time>2021-07-03 19:53:30</time>
      </trkpt>
      <trkpt lat="29.03498" lon="-13.69238">
        <ele>269</ele>
        <time>2021-07-03 19:53:31</time>
      </trkpt>
      <trkpt lat="29.03495" lon="-13.69237">
        <ele>269.4</ele>
        <time>2021-07-03 19:53:32</time>
      </trkpt>
      <trkpt lat="29.03492" lon="-13.69236">
        <ele>269.4</ele>
        <time>2021-07-03 19:53:33</time>
      </trkpt>
      <trkpt lat="29.03489" lon="-13.69234">
        <ele>269.6</ele>
        <time>2021-07-03 19:53:34</time>
      </trkpt>
      <trkpt lat="29.03487" lon="-13.69233">
        <ele>269.6</ele>
        <time>2021-07-03 19:53:35</time>
      </trkpt>
      <trkpt lat="29.03484" lon="-13.69231">
        <ele>270</ele>
        <time>2021-07-03 19:53:36</time>
      </trkpt>
      <trkpt lat="29.03481" lon="-13.69229">
        <ele>270</ele>
        <time>2021-07-03 19:53:37</time>
      </trkpt>
      <trkpt lat="29.03478" lon="-13.69228">
        <ele>270.2</ele>
        <time>2021-07-03 19:53:38</time>
      </trkpt>
      <trkpt lat="29.03476" lon="-13.69226">
        <ele>270.2</ele>
        <time>2021-07-03 19:53:39</time>
      </trkpt>
      <trkpt lat="29.03473" lon="-13.69224">
        <ele>270.6</ele>
        <time>2021-07-03 19:53:40</time>
      </trkpt>
      <trkpt lat="29.03471" lon="-13.69222">
        <ele>270.8</ele>
        <time>2021-07-03 19:53:41</time>
      </trkpt>
      <trkpt lat="29.03468" lon="-13.69219">
        <ele>270.8</ele>
        <time>2021-07-03 19:53:42</time>
      </trkpt>
      <trkpt lat="29.03465" lon="-13.69217">
        <ele>271.2</ele>
        <time>2021-07-03 19:53:43</time>
      </trkpt>
      <trkpt lat="29.03463" lon="-13.69214">
        <ele>271.2</ele>
        <time>2021-07-03 19:53:44</time>
      </trkpt>
      <trkpt lat="29.0346" lon="-13.69212">
        <ele>271.2</ele>
        <time>2021-07-03 19:53:45</time>
      </trkpt>
      <trkpt lat="29.03457" lon="-13.69209">
        <ele>271.4</ele>
        <time>2021-07-03 19:53:46</time>
      </trkpt>
      <trkpt lat="29.03454" lon="-13.69206">
        <ele>271.4</ele>
        <time>2021-07-03 19:53:47</time>
      </trkpt>
      <trkpt lat="29.03451" lon="-13.69204">
        <ele>271.4</ele>
        <time>2021-07-03 19:53:48</time>
      </trkpt>
      <trkpt lat="29.03449" lon="-13.69201">
        <ele>271.8</ele>
        <time>2021-07-03 19:53:49</time>
      </trkpt>
      <trkpt lat="29.03446" lon="-13.69199">
        <ele>271.8</ele>
        <time>2021-07-03 19:53:50</time>
      </trkpt>
      <trkpt lat="29.03443" lon="-13.69197">
        <ele>271.8</ele>
        <time>2021-07-03 19:53:51</time>
      </trkpt>
      <trkpt lat="29.03441" lon="-13.69195">
        <ele>272.2</ele>
        <time>2021-07-03 19:53:52</time>
      </trkpt>
      <trkpt lat="29.03438" lon="-13.69192">
        <ele>272.2</ele>
        <time>2021-07-03 19:53:53</time>
      </trkpt>
      <trkpt lat="29.03435" lon="-13.6919">
        <ele>272.4</ele>
        <time>2021-07-03 19:53:54</time>
      </trkpt>
      <trkpt lat="29.03433" lon="-13.69187">
        <ele>272.4</ele>
        <time>2021-07-03 19:53:55</time>
      </trkpt>
      <trkpt lat="29.0343" lon="-13.69185">
        <ele>272.6</ele>
        <time>2021-07-03 19:53:56</time>
      </trkpt>
      <trkpt lat="29.03427" lon="-13.69182">
        <ele>272.6</ele>
        <time>2021-07-03 19:53:57</time>
      </trkpt>
      <trkpt lat="29.03425" lon="-13.69179">
        <ele>272.8</ele>
        <time>2021-07-03 19:53:58</time>
      </trkpt>
      <trkpt lat="29.03422" lon="-13.69177">
        <ele>272.8</ele>
        <time>2021-07-03 19:53:59</time>
      </trkpt>
      <trkpt lat="29.03419" lon="-13.69174">
        <ele>273</ele>
        <time>2021-07-03 19:54:00</time>
      </trkpt>
      <trkpt lat="29.03417" lon="-13.69172">
        <ele>273</ele>
        <time>2021-07-03 19:54:01</time>
      </trkpt>
      <trkpt lat="29.03414" lon="-13.6917">
        <ele>273.4</ele>
        <time>2021-07-03 19:54:02</time>
      </trkpt>
      <trkpt lat="29.03412" lon="-13.69169">
        <ele>273.4</ele>
        <time>2021-07-03 19:54:03</time>
      </trkpt>
      <trkpt lat="29.0341" lon="-13.69167">
        <ele>273.6</ele>
        <time>2021-07-03 19:54:04</time>
      </trkpt>
      <trkpt lat="29.03408" lon="-13.69165">
        <ele>273.6</ele>
        <time>2021-07-03 19:54:05</time>
      </trkpt>
      <trkpt lat="29.03405" lon="-13.69163">
        <ele>274</ele>
        <time>2021-07-03 19:54:06</time>
      </trkpt>
      <trkpt lat="29.03403" lon="-13.69161">
        <ele>274</ele>
        <time>2021-07-03 19:54:07</time>
      </trkpt>
      <trkpt lat="29.03401" lon="-13.69158">
        <ele>274.2</ele>
        <time>2021-07-03 19:54:08</time>
      </trkpt>
      <trkpt lat="29.03398" lon="-13.69156">
        <ele>274.2</ele>
        <time>2021-07-03 19:54:09</time>
      </trkpt>
      <trkpt lat="29.03396" lon="-13.69154">
        <ele>274.6</ele>
        <time>2021-07-03 19:54:10</time>
      </trkpt>
      <trkpt lat="29.03394" lon="-13.69151">
        <ele>274.6</ele>
        <time>2021-07-03 19:54:11</time>
      </trkpt>
      <trkpt lat="29.03391" lon="-13.69148">
        <ele>274.8</ele>
        <time>2021-07-03 19:54:12</time>
      </trkpt>
      <trkpt lat="29.03389" lon="-13.69146">
        <ele>274.8</ele>
        <time>2021-07-03 19:54:13</time>
      </trkpt>
      <trkpt lat="29.03387" lon="-13.69144">
        <ele>274.8</ele>
        <time>2021-07-03 19:54:14</time>
      </trkpt>
      <trkpt lat="29.03384" lon="-13.69141">
        <ele>275</ele>
        <time>2021-07-03 19:54:15</time>
      </trkpt>
      <trkpt lat="29.03382" lon="-13.69139">
        <ele>275</ele>
        <time>2021-07-03 19:54:16</time>
      </trkpt>
      <trkpt lat="29.03379" lon="-13.69136">
        <ele>275.4</ele>
        <time>2021-07-03 19:54:17</time>
      </trkpt>
      <trkpt lat="29.03376" lon="-13.69134">
        <ele>275.6</ele>
        <time>2021-07-03 19:54:18</time>
      </trkpt>
      <trkpt lat="29.03374" lon="-13.69132">
        <ele>275.8</ele>
        <time>2021-07-03 19:54:19</time>
      </trkpt>
      <trkpt lat="29.03371" lon="-13.6913">
        <ele>276</ele>
        <time>2021-07-03 19:54:20</time>
      </trkpt>
      <trkpt lat="29.03368" lon="-13.69127">
        <ele>276</ele>
        <time>2021-07-03 19:54:21</time>
      </trkpt>
      <trkpt lat="29.03366" lon="-13.69125">
        <ele>276.4</ele>
        <time>2021-07-03 19:54:22</time>
      </trkpt>
      <trkpt lat="29.03363" lon="-13.69123">
        <ele>276.6</ele>
        <time>2021-07-03 19:54:23</time>
      </trkpt>
      <trkpt lat="29.03361" lon="-13.6912">
        <ele>276.8</ele>
        <time>2021-07-03 19:54:24</time>
      </trkpt>
      <trkpt lat="29.03358" lon="-13.69118">
        <ele>277</ele>
        <time>2021-07-03 19:54:25</time>
      </trkpt>
      <trkpt lat="29.03356" lon="-13.69116">
        <ele>277.2</ele>
        <time>2021-07-03 19:54:26</time>
      </trkpt>
      <trkpt lat="29.03353" lon="-13.69114">
        <ele>277.6</ele>
        <time>2021-07-03 19:54:27</time>
      </trkpt>
      <trkpt lat="29.03351" lon="-13.69112">
        <ele>277.8</ele>
        <time>2021-07-03 19:54:28</time>
      </trkpt>
      <trkpt lat="29.03349" lon="-13.6911">
        <ele>278</ele>
        <time>2021-07-03 19:54:29</time>
      </trkpt>
      <trkpt lat="29.03346" lon="-13.69108">
        <ele>278</ele>
        <time>2021-07-03 19:54:30</time>
      </trkpt>
      <trkpt lat="29.03344" lon="-13.69105">
        <ele>278.4</ele>
        <time>2021-07-03 19:54:31</time>
      </trkpt>
      <trkpt lat="29.03342" lon="-13.69103">
        <ele>278.4</ele>
        <time>2021-07-03 19:54:32</time>
      </trkpt>
      <trkpt lat="29.0334" lon="-13.69101">
        <ele>278.8</ele>
        <time>2021-07-03 19:54:33</time>
      </trkpt>
      <trkpt lat="29.03338" lon="-13.69099">
        <ele>278.8</ele>
        <time>2021-07-03 19:54:34</time>
      </trkpt>
      <trkpt lat="29.03336" lon="-13.69096">
        <ele>279.2</ele>
        <time>2021-07-03 19:54:35</time>
      </trkpt>
      <trkpt lat="29.03334" lon="-13.69093">
        <ele>279.4</ele>
        <time>2021-07-03 19:54:36</time>
      </trkpt>
      <trkpt lat="29.03332" lon="-13.69091">
        <ele>279.4</ele>
        <time>2021-07-03 19:54:37</time>
      </trkpt>
      <trkpt lat="29.03331" lon="-13.69088">
        <ele>279.8</ele>
        <time>2021-07-03 19:54:38</time>
      </trkpt>
      <trkpt lat="29.03329" lon="-13.69085">
        <ele>279.8</ele>
        <time>2021-07-03 19:54:39</time>
      </trkpt>
      <trkpt lat="29.03328" lon="-13.69082">
        <ele>280</ele>
        <time>2021-07-03 19:54:40</time>
      </trkpt>
      <trkpt lat="29.03326" lon="-13.69079">
        <ele>280</ele>
        <time>2021-07-03 19:54:41</time>
      </trkpt>
      <trkpt lat="29.03324" lon="-13.69076">
        <ele>280.4</ele>
        <time>2021-07-03 19:54:42</time>
      </trkpt>
      <trkpt lat="29.03323" lon="-13.69073">
        <ele>280.6</ele>
        <time>2021-07-03 19:54:43</time>
      </trkpt>
      <trkpt lat="29.03321" lon="-13.6907">
        <ele>280.6</ele>
        <time>2021-07-03 19:54:44</time>
      </trkpt>
      <trkpt lat="29.0332" lon="-13.69067">
        <ele>280.8</ele>
        <time>2021-07-03 19:54:45</time>
      </trkpt>
      <trkpt lat="29.03318" lon="-13.69063">
        <ele>280.8</ele>
        <time>2021-07-03 19:54:46</time>
      </trkpt>
      <trkpt lat="29.03317" lon="-13.6906">
        <ele>281.2</ele>
        <time>2021-07-03 19:54:47</time>
      </trkpt>
      <trkpt lat="29.03315" lon="-13.69057">
        <ele>281.2</ele>
        <time>2021-07-03 19:54:48</time>
      </trkpt>
      <trkpt lat="29.03314" lon="-13.69054">
        <ele>281.6</ele>
        <time>2021-07-03 19:54:49</time>
      </trkpt>
      <trkpt lat="29.03313" lon="-13.69051">
        <ele>281.8</ele>
        <time>2021-07-03 19:54:50</time>
      </trkpt>
      <trkpt lat="29.03311" lon="-13.69048">
        <ele>281.8</ele>
        <time>2021-07-03 19:54:51</time>
      </trkpt>
      <trkpt lat="29.0331" lon="-13.69045">
        <ele>282.2</ele>
        <time>2021-07-03 19:54:52</time>
      </trkpt>
      <trkpt lat="29.03309" lon="-13.69042">
        <ele>282.2</ele>
        <time>2021-07-03 19:54:53</time>
      </trkpt>
      <trkpt lat="29.03308" lon="-13.69039">
        <ele>282.6</ele>
        <time>2021-07-03 19:54:54</time>
      </trkpt>
      <trkpt lat="29.03307" lon="-13.69036">
        <ele>282.6</ele>
        <time>2021-07-03 19:54:55</time>
      </trkpt>
      <trkpt lat="29.03306" lon="-13.69033">
        <ele>283</ele>
        <time>2021-07-03 19:54:56</time>
      </trkpt>
      <trkpt lat="29.03305" lon="-13.69029">
        <ele>283.2</ele>
        <time>2021-07-03 19:54:57</time>
      </trkpt>
      <trkpt lat="29.03304" lon="-13.69026">
        <ele>283.2</ele>
        <time>2021-07-03 19:54:58</time>
      </trkpt>
      <trkpt lat="29.03302" lon="-13.69023">
        <ele>283.6</ele>
        <time>2021-07-03 19:54:59</time>
      </trkpt>
      <trkpt lat="29.03301" lon="-13.6902">
        <ele>283.6</ele>
        <time>2021-07-03 19:55:00</time>
      </trkpt>
      <trkpt lat="29.033" lon="-13.69017">
        <ele>284</ele>
        <time>2021-07-03 19:55:01</time>
      </trkpt>
      <trkpt lat="29.03299" lon="-13.69015">
        <ele>284</ele>
        <time>2021-07-03 19:55:02</time>
      </trkpt>
      <trkpt lat="29.03298" lon="-13.69012">
        <ele>284.2</ele>
        <time>2021-07-03 19:55:03</time>
      </trkpt>
      <trkpt lat="29.03297" lon="-13.69009">
        <ele>284.2</ele>
        <time>2021-07-03 19:55:04</time>
      </trkpt>
      <trkpt lat="29.03296" lon="-13.69006">
        <ele>284.6</ele>
        <time>2021-07-03 19:55:05</time>
      </trkpt>
      <trkpt lat="29.03296" lon="-13.69003">
        <ele>284.6</ele>
        <time>2021-07-03 19:55:06</time>
      </trkpt>
      <trkpt lat="29.03295" lon="-13.69">
        <ele>285</ele>
        <time>2021-07-03 19:55:07</time>
      </trkpt>
      <trkpt lat="29.03294" lon="-13.68997">
        <ele>285</ele>
        <time>2021-07-03 19:55:08</time>
      </trkpt>
      <trkpt lat="29.03294" lon="-13.68994">
        <ele>285.4</ele>
        <time>2021-07-03 19:55:09</time>
      </trkpt>
      <trkpt lat="29.03293" lon="-13.68992">
        <ele>285.4</ele>
        <time>2021-07-03 19:55:10</time>
      </trkpt>
      <trkpt lat="29.03292" lon="-13.68989">
        <ele>285.6</ele>
        <time>2021-07-03 19:55:11</time>
      </trkpt>
      <trkpt lat="29.03292" lon="-13.68986">
        <ele>285.6</ele>
        <time>2021-07-03 19:55:12</time>
      </trkpt>
      <trkpt lat="29.03291" lon="-13.68983">
        <ele>286</ele>
        <time>2021-07-03 19:55:13</time>
      </trkpt>
      <trkpt lat="29.0329" lon="-13.6898">
        <ele>286.4</ele>
        <time>2021-07-03 19:55:14</time>
      </trkpt>
      <trkpt lat="29.03289" lon="-13.68976">
        <ele>286.6</ele>
        <time>2021-07-03 19:55:15</time>
      </trkpt>
      <trkpt lat="29.03289" lon="-13.68973">
        <ele>286.6</ele>
        <time>2021-07-03 19:55:16</time>
      </trkpt>
      <trkpt lat="29.03288" lon="-13.6897">
        <ele>287</ele>
        <time>2021-07-03 19:55:17</time>
      </trkpt>
      <trkpt lat="29.03288" lon="-13.68966">
        <ele>287.2</ele>
        <time>2021-07-03 19:55:18</time>
      </trkpt>
      <trkpt lat="29.03287" lon="-13.68963">
        <ele>287.4</ele>
        <time>2021-07-03 19:55:19</time>
      </trkpt>
      <trkpt lat="29.03286" lon="-13.6896">
        <ele>287.8</ele>
        <time>2021-07-03 19:55:20</time>
      </trkpt>
      <trkpt lat="29.03285" lon="-13.68956">
        <ele>288</ele>
        <time>2021-07-03 19:55:21</time>
      </trkpt>
      <trkpt lat="29.03285" lon="-13.68953">
        <ele>288.2</ele>
        <time>2021-07-03 19:55:22</time>
      </trkpt>
      <trkpt lat="29.03284" lon="-13.68949">
        <ele>288.4</ele>
        <time>2021-07-03 19:55:23</time>
      </trkpt>
      <trkpt lat="29.03283" lon="-13.68946">
        <ele>288.4</ele>
        <time>2021-07-03 19:55:24</time>
      </trkpt>
      <trkpt lat="29.03282" lon="-13.68942">
        <ele>288.8</ele>
        <time>2021-07-03 19:55:25</time>
      </trkpt>
      <trkpt lat="29.0328" lon="-13.68938">
        <ele>288.8</ele>
        <time>2021-07-03 19:55:26</time>
      </trkpt>
      <trkpt lat="29.03279" lon="-13.68935">
        <ele>289</ele>
        <time>2021-07-03 19:55:27</time>
      </trkpt>
      <trkpt lat="29.03278" lon="-13.68931">
        <ele>289</ele>
        <time>2021-07-03 19:55:28</time>
      </trkpt>
      <trkpt lat="29.03277" lon="-13.68928">
        <ele>289</ele>
        <time>2021-07-03 19:55:29</time>
      </trkpt>
      <trkpt lat="29.03276" lon="-13.68924">
        <ele>289.4</ele>
        <time>2021-07-03 19:55:30</time>
      </trkpt>
      <trkpt lat="29.03275" lon="-13.6892">
        <ele>289.4</ele>
        <time>2021-07-03 19:55:31</time>
      </trkpt>
      <trkpt lat="29.03274" lon="-13.68916">
        <ele>289.4</ele>
        <time>2021-07-03 19:55:32</time>
      </trkpt>
      <trkpt lat="29.03273" lon="-13.68912">
        <ele>289.4</ele>
        <time>2021-07-03 19:55:33</time>
      </trkpt>
      <trkpt lat="29.03272" lon="-13.68908">
        <ele>289.6</ele>
        <time>2021-07-03 19:55:34</time>
      </trkpt>
      <trkpt lat="29.03271" lon="-13.68904">
        <ele>289.6</ele>
        <time>2021-07-03 19:55:35</time>
      </trkpt>
      <trkpt lat="29.0327" lon="-13.689">
        <ele>289.8</ele>
        <time>2021-07-03 19:55:36</time>
      </trkpt>
      <trkpt lat="29.03269" lon="-13.68896">
        <ele>289.8</ele>
        <time>2021-07-03 19:55:37</time>
      </trkpt>
      <trkpt lat="29.03268" lon="-13.68892">
        <ele>289.8</ele>
        <time>2021-07-03 19:55:38</time>
      </trkpt>
      <trkpt lat="29.03267" lon="-13.68887">
        <ele>289.8</ele>
        <time>2021-07-03 19:55:39</time>
      </trkpt>
      <trkpt lat="29.03266" lon="-13.68883">
        <ele>290.2</ele>
        <time>2021-07-03 19:55:40</time>
      </trkpt>
      <trkpt lat="29.03265" lon="-13.68879">
        <ele>290.2</ele>
        <time>2021-07-03 19:55:41</time>
      </trkpt>
      <trkpt lat="29.03264" lon="-13.68875">
        <ele>290.2</ele>
        <time>2021-07-03 19:55:42</time>
      </trkpt>
      <trkpt lat="29.03262" lon="-13.68871">
        <ele>290.4</ele>
        <time>2021-07-03 19:55:43</time>
      </trkpt>
      <trkpt lat="29.03262" lon="-13.68867">
        <ele>290.4</ele>
        <time>2021-07-03 19:55:44</time>
      </trkpt>
      <trkpt lat="29.03261" lon="-13.68863">
        <ele>290.6</ele>
        <time>2021-07-03 19:55:45</time>
      </trkpt>
      <trkpt lat="29.03261" lon="-13.68859">
        <ele>290.6</ele>
        <time>2021-07-03 19:55:46</time>
      </trkpt>
      <trkpt lat="29.03261" lon="-13.68855">
        <ele>290.8</ele>
        <time>2021-07-03 19:55:47</time>
      </trkpt>
      <trkpt lat="29.0326" lon="-13.68851">
        <ele>290.8</ele>
        <time>2021-07-03 19:55:48</time>
      </trkpt>
      <trkpt lat="29.03259" lon="-13.68847">
        <ele>291.2</ele>
        <time>2021-07-03 19:55:49</time>
      </trkpt>
      <trkpt lat="29.03258" lon="-13.68843">
        <ele>291.2</ele>
        <time>2021-07-03 19:55:50</time>
      </trkpt>
      <trkpt lat="29.03257" lon="-13.68839">
        <ele>291.6</ele>
        <time>2021-07-03 19:55:51</time>
      </trkpt>
      <trkpt lat="29.03256" lon="-13.68836">
        <ele>291.6</ele>
        <time>2021-07-03 19:55:52</time>
      </trkpt>
      <trkpt lat="29.03255" lon="-13.68832">
        <ele>291.8</ele>
        <time>2021-07-03 19:55:53</time>
      </trkpt>
      <trkpt lat="29.03254" lon="-13.68829">
        <ele>291.8</ele>
        <time>2021-07-03 19:55:54</time>
      </trkpt>
      <trkpt lat="29.03253" lon="-13.68825">
        <ele>292.2</ele>
        <time>2021-07-03 19:55:55</time>
      </trkpt>
      <trkpt lat="29.03252" lon="-13.68822">
        <ele>292.2</ele>
        <time>2021-07-03 19:55:56</time>
      </trkpt>
      <trkpt lat="29.03251" lon="-13.68819">
        <ele>292.6</ele>
        <time>2021-07-03 19:55:57</time>
      </trkpt>
      <trkpt lat="29.0325" lon="-13.68815">
        <ele>292.8</ele>
        <time>2021-07-03 19:55:58</time>
      </trkpt>
      <trkpt lat="29.03249" lon="-13.68812">
        <ele>293</ele>
        <time>2021-07-03 19:55:59</time>
      </trkpt>
      <trkpt lat="29.03248" lon="-13.68809">
        <ele>293.4</ele>
        <time>2021-07-03 19:56:00</time>
      </trkpt>
      <trkpt lat="29.03247" lon="-13.68806">
        <ele>293.6</ele>
        <time>2021-07-03 19:56:01</time>
      </trkpt>
      <trkpt lat="29.03247" lon="-13.68803">
        <ele>293.6</ele>
        <time>2021-07-03 19:56:02</time>
      </trkpt>
      <trkpt lat="29.03246" lon="-13.688">
        <ele>294</ele>
        <time>2021-07-03 19:56:03</time>
      </trkpt>
      <trkpt lat="29.03246" lon="-13.68797">
        <ele>294</ele>
        <time>2021-07-03 19:56:04</time>
      </trkpt>
      <trkpt lat="29.03245" lon="-13.68794">
        <ele>294.2</ele>
        <time>2021-07-03 19:56:05</time>
      </trkpt>
      <trkpt lat="29.03244" lon="-13.68791">
        <ele>294.2</ele>
        <time>2021-07-03 19:56:06</time>
      </trkpt>
      <trkpt lat="29.03243" lon="-13.68788">
        <ele>294.6</ele>
        <time>2021-07-03 19:56:07</time>
      </trkpt>
      <trkpt lat="29.03242" lon="-13.68784">
        <ele>294.8</ele>
        <time>2021-07-03 19:56:08</time>
      </trkpt>
      <trkpt lat="29.03241" lon="-13.68781">
        <ele>294.8</ele>
        <time>2021-07-03 19:56:09</time>
      </trkpt>
      <trkpt lat="29.03241" lon="-13.68777">
        <ele>295.2</ele>
        <time>2021-07-03 19:56:10</time>
      </trkpt>
      <trkpt lat="29.0324" lon="-13.68774">
        <ele>295.4</ele>
        <time>2021-07-03 19:56:11</time>
      </trkpt>
      <trkpt lat="29.03239" lon="-13.68771">
        <ele>295.4</ele>
        <time>2021-07-03 19:56:12</time>
      </trkpt>
      <trkpt lat="29.03238" lon="-13.68768">
        <ele>295.8</ele>
        <time>2021-07-03 19:56:13</time>
      </trkpt>
      <trkpt lat="29.03237" lon="-13.68764">
        <ele>295.8</ele>
        <time>2021-07-03 19:56:14</time>
      </trkpt>
      <trkpt lat="29.03236" lon="-13.68761">
        <ele>296.2</ele>
        <time>2021-07-03 19:56:15</time>
      </trkpt>
      <trkpt lat="29.03235" lon="-13.68757">
        <ele>296.2</ele>
        <time>2021-07-03 19:56:16</time>
      </trkpt>
      <trkpt lat="29.03234" lon="-13.68754">
        <ele>296.6</ele>
        <time>2021-07-03 19:56:17</time>
      </trkpt>
      <trkpt lat="29.03233" lon="-13.68751">
        <ele>296.6</ele>
        <time>2021-07-03 19:56:18</time>
      </trkpt>
      <trkpt lat="29.03231" lon="-13.68748">
        <ele>296.8</ele>
        <time>2021-07-03 19:56:19</time>
      </trkpt>
      <trkpt lat="29.03229" lon="-13.68744">
        <ele>296.8</ele>
        <time>2021-07-03 19:56:20</time>
      </trkpt>
      <trkpt lat="29.03227" lon="-13.68741">
        <ele>296.8</ele>
        <time>2021-07-03 19:56:21</time>
      </trkpt>
      <trkpt lat="29.03225" lon="-13.68738">
        <ele>297</ele>
        <time>2021-07-03 19:56:22</time>
      </trkpt>
      <trkpt lat="29.03223" lon="-13.68735">
        <ele>297</ele>
        <time>2021-07-03 19:56:23</time>
      </trkpt>
      <trkpt lat="29.03221" lon="-13.68732">
        <ele>297</ele>
        <time>2021-07-03 19:56:24</time>
      </trkpt>
      <trkpt lat="29.03219" lon="-13.68729">
        <ele>297.2</ele>
        <time>2021-07-03 19:56:25</time>
      </trkpt>
      <trkpt lat="29.03217" lon="-13.68726">
        <ele>297.2</ele>
        <time>2021-07-03 19:56:26</time>
      </trkpt>
      <trkpt lat="29.03215" lon="-13.68724">
        <ele>297.2</ele>
        <time>2021-07-03 19:56:27</time>
      </trkpt>
      <trkpt lat="29.03213" lon="-13.68721">
        <ele>297.6</ele>
        <time>2021-07-03 19:56:28</time>
      </trkpt>
      <trkpt lat="29.03211" lon="-13.68718">
        <ele>297.6</ele>
        <time>2021-07-03 19:56:29</time>
      </trkpt>
      <trkpt lat="29.03209" lon="-13.68715">
        <ele>297.8</ele>
        <time>2021-07-03 19:56:30</time>
      </trkpt>
      <trkpt lat="29.03207" lon="-13.68712">
        <ele>297.8</ele>
        <time>2021-07-03 19:56:31</time>
      </trkpt>
      <trkpt lat="29.03205" lon="-13.68709">
        <ele>298.2</ele>
        <time>2021-07-03 19:56:32</time>
      </trkpt>
      <trkpt lat="29.03203" lon="-13.68706">
        <ele>298.2</ele>
        <time>2021-07-03 19:56:33</time>
      </trkpt>
      <trkpt lat="29.03201" lon="-13.68703">
        <ele>298.6</ele>
        <time>2021-07-03 19:56:34</time>
      </trkpt>
      <trkpt lat="29.03198" lon="-13.68701">
        <ele>298.6</ele>
        <time>2021-07-03 19:56:35</time>
      </trkpt>
      <trkpt lat="29.03196" lon="-13.68698">
        <ele>299</ele>
        <time>2021-07-03 19:56:36</time>
      </trkpt>
      <trkpt lat="29.03193" lon="-13.68695">
        <ele>299</ele>
        <time>2021-07-03 19:56:37</time>
      </trkpt>
      <trkpt lat="29.03189" lon="-13.68693">
        <ele>299.2</ele>
        <time>2021-07-03 19:56:38</time>
      </trkpt>
      <trkpt lat="29.03186" lon="-13.68691">
        <ele>299.2</ele>
        <time>2021-07-03 19:56:39</time>
      </trkpt>
      <trkpt lat="29.03183" lon="-13.68689">
        <ele>299.6</ele>
        <time>2021-07-03 19:56:40</time>
      </trkpt>
      <trkpt lat="29.03179" lon="-13.68687">
        <ele>299.6</ele>
        <time>2021-07-03 19:56:41</time>
      </trkpt>
      <trkpt lat="29.03176" lon="-13.68685">
        <ele>299.8</ele>
        <time>2021-07-03 19:56:42</time>
      </trkpt>
      <trkpt lat="29.03172" lon="-13.68683">
        <ele>299.8</ele>
        <time>2021-07-03 19:56:43</time>
      </trkpt>
      <trkpt lat="29.03169" lon="-13.68681">
        <ele>300</ele>
        <time>2021-07-03 19:56:44</time>
      </trkpt>
      <trkpt lat="29.03166" lon="-13.68678">
        <ele>300</ele>
        <time>2021-07-03 19:56:45</time>
      </trkpt>
      <trkpt lat="29.03162" lon="-13.68676">
        <ele>300.4</ele>
        <time>2021-07-03 19:56:46</time>
      </trkpt>
      <trkpt lat="29.03159" lon="-13.68674">
        <ele>300.4</ele>
        <time>2021-07-03 19:56:47</time>
      </trkpt>
      <trkpt lat="29.03155" lon="-13.68672">
        <ele>300.4</ele>
        <time>2021-07-03 19:56:48</time>
      </trkpt>
      <trkpt lat="29.03152" lon="-13.6867">
        <ele>300.6</ele>
        <time>2021-07-03 19:56:49</time>
      </trkpt>
      <trkpt lat="29.03149" lon="-13.68667">
        <ele>300.6</ele>
        <time>2021-07-03 19:56:50</time>
      </trkpt>
      <trkpt lat="29.03145" lon="-13.68665">
        <ele>300.8</ele>
        <time>2021-07-03 19:56:51</time>
      </trkpt>
      <trkpt lat="29.03142" lon="-13.68663">
        <ele>300.8</ele>
        <time>2021-07-03 19:56:52</time>
      </trkpt>
      <trkpt lat="29.03139" lon="-13.68661">
        <ele>301</ele>
        <time>2021-07-03 19:56:53</time>
      </trkpt>
      <trkpt lat="29.03136" lon="-13.68658">
        <ele>301</ele>
        <time>2021-07-03 19:56:54</time>
      </trkpt>
      <trkpt lat="29.03132" lon="-13.68655">
        <ele>301.4</ele>
        <time>2021-07-03 19:56:55</time>
      </trkpt>
      <trkpt lat="29.03129" lon="-13.68653">
        <ele>301.4</ele>
        <time>2021-07-03 19:56:56</time>
      </trkpt>
      <trkpt lat="29.03126" lon="-13.68651">
        <ele>301.6</ele>
        <time>2021-07-03 19:56:57</time>
      </trkpt>
      <trkpt lat="29.03123" lon="-13.68648">
        <ele>301.6</ele>
        <time>2021-07-03 19:56:58</time>
      </trkpt>
      <trkpt lat="29.0312" lon="-13.68646">
        <ele>301.6</ele>
        <time>2021-07-03 19:56:59</time>
      </trkpt>
      <trkpt lat="29.03117" lon="-13.68644">
        <ele>301.8</ele>
        <time>2021-07-03 19:57:00</time>
      </trkpt>
      <trkpt lat="29.03114" lon="-13.68642">
        <ele>301.8</ele>
        <time>2021-07-03 19:57:01</time>
      </trkpt>
      <trkpt lat="29.03112" lon="-13.68639">
        <ele>301.8</ele>
        <time>2021-07-03 19:57:02</time>
      </trkpt>
      <trkpt lat="29.03109" lon="-13.68637">
        <ele>301.8</ele>
        <time>2021-07-03 19:57:03</time>
      </trkpt>
      <trkpt lat="29.03107" lon="-13.68633">
        <ele>301.8</ele>
        <time>2021-07-03 19:57:04</time>
      </trkpt>
      <trkpt lat="29.03106" lon="-13.68629">
        <ele>301.8</ele>
        <time>2021-07-03 19:57:05</time>
      </trkpt>
      <trkpt lat="29.03106" lon="-13.68625">
        <ele>301.8</ele>
        <time>2021-07-03 19:57:06</time>
      </trkpt>
      <trkpt lat="29.03107" lon="-13.68621">
        <ele>301.8</ele>
        <time>2021-07-03 19:57:07</time>
      </trkpt>
      <trkpt lat="29.03109" lon="-13.68617">
        <ele>302</ele>
        <time>2021-07-03 19:57:08</time>
      </trkpt>
      <trkpt lat="29.03112" lon="-13.68614">
        <ele>302</ele>
        <time>2021-07-03 19:57:09</time>
      </trkpt>
      <trkpt lat="29.03114" lon="-13.68611">
        <ele>302.4</ele>
        <time>2021-07-03 19:57:10</time>
      </trkpt>
      <trkpt lat="29.03117" lon="-13.68609">
        <ele>302.4</ele>
        <time>2021-07-03 19:57:11</time>
      </trkpt>
      <trkpt lat="29.03118" lon="-13.68606">
        <ele>302.6</ele>
        <time>2021-07-03 19:57:12</time>
      </trkpt>
      <trkpt lat="29.0312" lon="-13.68604">
        <ele>302.6</ele>
        <time>2021-07-03 19:57:13</time>
      </trkpt>
      <trkpt lat="29.03121" lon="-13.68603">
        <ele>302.6</ele>
        <time>2021-07-03 19:57:14</time>
      </trkpt>
      <trkpt lat="29.03121" lon="-13.68602">
        <ele>303</ele>
        <time>2021-07-03 19:57:15</time>
      </trkpt>
      <trkpt lat="29.03121" lon="-13.68601">
        <ele>303</ele>
        <time>2021-07-03 19:57:16</time>
      </trkpt>
      <trkpt lat="29.0312" lon="-13.68599">
        <ele>303</ele>
        <time>2021-07-03 19:57:17</time>
      </trkpt>
      <trkpt lat="29.03118" lon="-13.68597">
        <ele>303.2</ele>
        <time>2021-07-03 19:57:18</time>
      </trkpt>
      <trkpt lat="29.03115" lon="-13.68596">
        <ele>303.2</ele>
        <time>2021-07-03 19:57:19</time>
      </trkpt>
      <trkpt lat="29.03111" lon="-13.68594">
        <ele>303.2</ele>
        <time>2021-07-03 19:57:20</time>
      </trkpt>
      <trkpt lat="29.03107" lon="-13.68593">
        <ele>303.2</ele>
        <time>2021-07-03 19:57:21</time>
      </trkpt>
      <trkpt lat="29.03103" lon="-13.68592">
        <ele>303.2</ele>
        <time>2021-07-03 19:57:22</time>
      </trkpt>
      <trkpt lat="29.03098" lon="-13.6859">
        <ele>303.2</ele>
        <time>2021-07-03 19:57:23</time>
      </trkpt>
      <trkpt lat="29.03094" lon="-13.68588">
        <ele>303.2</ele>
        <time>2021-07-03 19:57:24</time>
      </trkpt>
      <trkpt lat="29.03089" lon="-13.68587">
        <ele>303.2</ele>
        <time>2021-07-03 19:57:25</time>
      </trkpt>
      <trkpt lat="29.03085" lon="-13.68585">
        <ele>303.2</ele>
        <time>2021-07-03 19:57:26</time>
      </trkpt>
      <trkpt lat="29.0308" lon="-13.68584">
        <ele>303.2</ele>
        <time>2021-07-03 19:57:27</time>
      </trkpt>
      <trkpt lat="29.03075" lon="-13.68583">
        <ele>303.2</ele>
        <time>2021-07-03 19:57:28</time>
      </trkpt>
      <trkpt lat="29.0307" lon="-13.68581">
        <ele>303.2</ele>
        <time>2021-07-03 19:57:29</time>
      </trkpt>
      <trkpt lat="29.03065" lon="-13.6858">
        <ele>303.2</ele>
        <time>2021-07-03 19:57:30</time>
      </trkpt>
      <trkpt lat="29.0306" lon="-13.68579">
        <ele>303.2</ele>
        <time>2021-07-03 19:57:31</time>
      </trkpt>
      <trkpt lat="29.03054" lon="-13.68578">
        <ele>303.2</ele>
        <time>2021-07-03 19:57:32</time>
      </trkpt>
      <trkpt lat="29.03049" lon="-13.68576">
        <ele>303.2</ele>
        <time>2021-07-03 19:57:33</time>
      </trkpt>
      <trkpt lat="29.03044" lon="-13.68575">
        <ele>303.2</ele>
        <time>2021-07-03 19:57:34</time>
      </trkpt>
      <trkpt lat="29.03039" lon="-13.68574">
        <ele>303.2</ele>
        <time>2021-07-03 19:57:35</time>
      </trkpt>
      <trkpt lat="29.03033" lon="-13.68573">
        <ele>303.2</ele>
        <time>2021-07-03 19:57:36</time>
      </trkpt>
      <trkpt lat="29.03028" lon="-13.68573">
        <ele>303.2</ele>
        <time>2021-07-03 19:57:37</time>
      </trkpt>
      <trkpt lat="29.03023" lon="-13.68572">
        <ele>303.2</ele>
        <time>2021-07-03 19:57:38</time>
      </trkpt>
      <trkpt lat="29.03018" lon="-13.68571">
        <ele>303.2</ele>
        <time>2021-07-03 19:57:39</time>
      </trkpt>
      <trkpt lat="29.03012" lon="-13.68571">
        <ele>303.2</ele>
        <time>2021-07-03 19:57:40</time>
      </trkpt>
      <trkpt lat="29.03007" lon="-13.6857">
        <ele>303.6</ele>
        <time>2021-07-03 19:57:41</time>
      </trkpt>
      <trkpt lat="29.03002" lon="-13.6857">
        <ele>303.6</ele>
        <time>2021-07-03 19:57:42</time>
      </trkpt>
      <trkpt lat="29.02996" lon="-13.68569">
        <ele>303.6</ele>
        <time>2021-07-03 19:57:43</time>
      </trkpt>
      <trkpt lat="29.02993" lon="-13.68566">
        <ele>303.6</ele>
        <time>2021-07-03 19:57:44</time>
      </trkpt>
      <trkpt lat="29.0299" lon="-13.68562">
        <ele>303.6</ele>
        <time>2021-07-03 19:57:45</time>
      </trkpt>
      <trkpt lat="29.02986" lon="-13.68559">
        <ele>303.6</ele>
        <time>2021-07-03 19:57:46</time>
      </trkpt>
      <trkpt lat="29.02982" lon="-13.68556">
        <ele>303.8</ele>
        <time>2021-07-03 19:57:47</time>
      </trkpt>
      <trkpt lat="29.02979" lon="-13.68552">
        <ele>303.8</ele>
        <time>2021-07-03 19:57:48</time>
      </trkpt>
      <trkpt lat="29.02975" lon="-13.68548">
        <ele>303.8</ele>
        <time>2021-07-03 19:57:49</time>
      </trkpt>
      <trkpt lat="29.02971" lon="-13.68545">
        <ele>303.8</ele>
        <time>2021-07-03 19:57:50</time>
      </trkpt>
      <trkpt lat="29.02967" lon="-13.68542">
        <ele>304</ele>
        <time>2021-07-03 19:57:51</time>
      </trkpt>
      <trkpt lat="29.02962" lon="-13.6854">
        <ele>304</ele>
        <time>2021-07-03 19:57:52</time>
      </trkpt>
      <trkpt lat="29.02958" lon="-13.68537">
        <ele>304</ele>
        <time>2021-07-03 19:57:53</time>
      </trkpt>
      <trkpt lat="29.02953" lon="-13.68535">
        <ele>304</ele>
        <time>2021-07-03 19:57:54</time>
      </trkpt>
      <trkpt lat="29.02949" lon="-13.68532">
        <ele>304.2</ele>
        <time>2021-07-03 19:57:55</time>
      </trkpt>
      <trkpt lat="29.02945" lon="-13.68529">
        <ele>304.2</ele>
        <time>2021-07-03 19:57:56</time>
      </trkpt>
      <trkpt lat="29.02941" lon="-13.68527">
        <ele>304.2</ele>
        <time>2021-07-03 19:57:57</time>
      </trkpt>
      <trkpt lat="29.02937" lon="-13.68524">
        <ele>304.4</ele>
        <time>2021-07-03 19:57:58</time>
      </trkpt>
      <trkpt lat="29.02933" lon="-13.68522">
        <ele>304.4</ele>
        <time>2021-07-03 19:57:59</time>
      </trkpt>
      <trkpt lat="29.02929" lon="-13.68519">
        <ele>304.4</ele>
        <time>2021-07-03 19:58:00</time>
      </trkpt>
      <trkpt lat="29.02926" lon="-13.68517">
        <ele>304.4</ele>
        <time>2021-07-03 19:58:01</time>
      </trkpt>
      <trkpt lat="29.02922" lon="-13.68515">
        <ele>304.4</ele>
        <time>2021-07-03 19:58:02</time>
      </trkpt>
      <trkpt lat="29.02919" lon="-13.68513">
        <ele>304.6</ele>
        <time>2021-07-03 19:58:03</time>
      </trkpt>
      <trkpt lat="29.02915" lon="-13.68511">
        <ele>304.6</ele>
        <time>2021-07-03 19:58:04</time>
      </trkpt>
      <trkpt lat="29.02912" lon="-13.68509">
        <ele>304.6</ele>
        <time>2021-07-03 19:58:05</time>
      </trkpt>
      <trkpt lat="29.02908" lon="-13.68506">
        <ele>304.6</ele>
        <time>2021-07-03 19:58:06</time>
      </trkpt>
      <trkpt lat="29.02904" lon="-13.68504">
        <ele>304.6</ele>
        <time>2021-07-03 19:58:07</time>
      </trkpt>
      <trkpt lat="29.02901" lon="-13.68502">
        <ele>304.6</ele>
        <time>2021-07-03 19:58:08</time>
      </trkpt>
      <trkpt lat="29.02897" lon="-13.68499">
        <ele>304.6</ele>
        <time>2021-07-03 19:58:09</time>
      </trkpt>
      <trkpt lat="29.02894" lon="-13.68497">
        <ele>304.6</ele>
        <time>2021-07-03 19:58:10</time>
      </trkpt>
      <trkpt lat="29.0289" lon="-13.68494">
        <ele>304.6</ele>
        <time>2021-07-03 19:58:11</time>
      </trkpt>
      <trkpt lat="29.02887" lon="-13.68492">
        <ele>304.6</ele>
        <time>2021-07-03 19:58:12</time>
      </trkpt>
      <trkpt lat="29.02883" lon="-13.68489">
        <ele>304.6</ele>
        <time>2021-07-03 19:58:13</time>
      </trkpt>
      <trkpt lat="29.02881" lon="-13.68487">
        <ele>304.6</ele>
        <time>2021-07-03 19:58:14</time>
      </trkpt>
      <trkpt lat="29.02878" lon="-13.68484">
        <ele>304.6</ele>
        <time>2021-07-03 19:58:15</time>
      </trkpt>
      <trkpt lat="29.02875" lon="-13.68482">
        <ele>304.6</ele>
        <time>2021-07-03 19:58:16</time>
      </trkpt>
      <trkpt lat="29.02874" lon="-13.68481">
        <ele>304.6</ele>
        <time>2021-07-03 19:58:17</time>
      </trkpt>
      <trkpt lat="29.02873" lon="-13.68481">
        <ele>304.8</ele>
        <time>2021-07-03 19:58:18</time>
      </trkpt>
      <trkpt lat="29.02869" lon="-13.6848">
        <ele>304.6</ele>
        <time>2021-07-03 19:58:19</time>
      </trkpt>
      <trkpt lat="29.02866" lon="-13.68478">
        <ele>304.6</ele>
        <time>2021-07-03 19:58:20</time>
      </trkpt>
      <trkpt lat="29.02863" lon="-13.68476">
        <ele>304.6</ele>
        <time>2021-07-03 19:58:21</time>
      </trkpt>
      <trkpt lat="29.02855" lon="-13.68471">
        <ele>304.4</ele>
        <time>2021-07-03 19:58:22</time>
      </trkpt>
      <trkpt lat="29.02851" lon="-13.68468">
        <ele>304.4</ele>
        <time>2021-07-03 19:58:23</time>
      </trkpt>
      <trkpt lat="29.02847" lon="-13.68466">
        <ele>304.4</ele>
        <time>2021-07-03 19:58:24</time>
      </trkpt>
      <trkpt lat="29.02843" lon="-13.68463">
        <ele>304.4</ele>
        <time>2021-07-03 19:58:25</time>
      </trkpt>
      <trkpt lat="29.02839" lon="-13.6846">
        <ele>304.4</ele>
        <time>2021-07-03 19:58:26</time>
      </trkpt>
      <trkpt lat="29.02834" lon="-13.68457">
        <ele>304.4</ele>
        <time>2021-07-03 19:58:27</time>
      </trkpt>
      <trkpt lat="29.02828" lon="-13.68453">
        <ele>304.4</ele>
        <time>2021-07-03 19:58:28</time>
      </trkpt>
      <trkpt lat="29.02823" lon="-13.6845">
        <ele>304.4</ele>
        <time>2021-07-03 19:58:29</time>
      </trkpt>
      <trkpt lat="29.02818" lon="-13.68446">
        <ele>304.4</ele>
        <time>2021-07-03 19:58:30</time>
      </trkpt>
      <trkpt lat="29.02813" lon="-13.68443">
        <ele>304.4</ele>
        <time>2021-07-03 19:58:31</time>
      </trkpt>
      <trkpt lat="29.02807" lon="-13.68439">
        <ele>304.4</ele>
        <time>2021-07-03 19:58:32</time>
      </trkpt>
      <trkpt lat="29.02802" lon="-13.68437">
        <ele>304.4</ele>
        <time>2021-07-03 19:58:33</time>
      </trkpt>
      <trkpt lat="29.02798" lon="-13.68433">
        <ele>304.4</ele>
        <time>2021-07-03 19:58:34</time>
      </trkpt>
      <trkpt lat="29.02793" lon="-13.6843">
        <ele>304.4</ele>
        <time>2021-07-03 19:58:35</time>
      </trkpt>
      <trkpt lat="29.02788" lon="-13.68427">
        <ele>304.6</ele>
        <time>2021-07-03 19:58:36</time>
      </trkpt>
      <trkpt lat="29.02784" lon="-13.68424">
        <ele>304.6</ele>
        <time>2021-07-03 19:58:37</time>
      </trkpt>
      <trkpt lat="29.02779" lon="-13.6842">
        <ele>304.6</ele>
        <time>2021-07-03 19:58:38</time>
      </trkpt>
      <trkpt lat="29.02775" lon="-13.68417">
        <ele>304.4</ele>
        <time>2021-07-03 19:58:39</time>
      </trkpt>
      <trkpt lat="29.02771" lon="-13.68414">
        <ele>304.4</ele>
        <time>2021-07-03 19:58:40</time>
      </trkpt>
      <trkpt lat="29.02767" lon="-13.68412">
        <ele>304.4</ele>
        <time>2021-07-03 19:58:41</time>
      </trkpt>
      <trkpt lat="29.02763" lon="-13.6841">
        <ele>304.6</ele>
        <time>2021-07-03 19:58:42</time>
      </trkpt>
      <trkpt lat="29.0276" lon="-13.68408">
        <ele>304.6</ele>
        <time>2021-07-03 19:58:43</time>
      </trkpt>
      <trkpt lat="29.02756" lon="-13.68406">
        <ele>304.6</ele>
        <time>2021-07-03 19:58:44</time>
      </trkpt>
      <trkpt lat="29.02753" lon="-13.68404">
        <ele>304.6</ele>
        <time>2021-07-03 19:58:45</time>
      </trkpt>
      <trkpt lat="29.02749" lon="-13.68402">
        <ele>304.6</ele>
        <time>2021-07-03 19:58:46</time>
      </trkpt>
      <trkpt lat="29.02745" lon="-13.68399">
        <ele>304.8</ele>
        <time>2021-07-03 19:58:47</time>
      </trkpt>
      <trkpt lat="29.02741" lon="-13.68397">
        <ele>304.8</ele>
        <time>2021-07-03 19:58:48</time>
      </trkpt>
      <trkpt lat="29.02738" lon="-13.68394">
        <ele>305.2</ele>
        <time>2021-07-03 19:58:49</time>
      </trkpt>
      <trkpt lat="29.02734" lon="-13.68392">
        <ele>305.2</ele>
        <time>2021-07-03 19:58:50</time>
      </trkpt>
      <trkpt lat="29.02729" lon="-13.68389">
        <ele>305.2</ele>
        <time>2021-07-03 19:58:51</time>
      </trkpt>
      <trkpt lat="29.02725" lon="-13.68386">
        <ele>305.2</ele>
        <time>2021-07-03 19:58:52</time>
      </trkpt>
      <trkpt lat="29.02721" lon="-13.68383">
        <ele>305.2</ele>
        <time>2021-07-03 19:58:53</time>
      </trkpt>
      <trkpt lat="29.02717" lon="-13.68381">
        <ele>305.2</ele>
        <time>2021-07-03 19:58:54</time>
      </trkpt>
      <trkpt lat="29.02713" lon="-13.68378">
        <ele>305.2</ele>
        <time>2021-07-03 19:58:55</time>
      </trkpt>
      <trkpt lat="29.02708" lon="-13.68375">
        <ele>305.2</ele>
        <time>2021-07-03 19:58:56</time>
      </trkpt>
      <trkpt lat="29.02704" lon="-13.68372">
        <ele>305.2</ele>
        <time>2021-07-03 19:58:57</time>
      </trkpt>
      <trkpt lat="29.02699" lon="-13.68369">
        <ele>305.2</ele>
        <time>2021-07-03 19:58:58</time>
      </trkpt>
      <trkpt lat="29.02695" lon="-13.68367">
        <ele>305.2</ele>
        <time>2021-07-03 19:58:59</time>
      </trkpt>
      <trkpt lat="29.02691" lon="-13.68364">
        <ele>305.2</ele>
        <time>2021-07-03 19:59:00</time>
      </trkpt>
      <trkpt lat="29.02686" lon="-13.68362">
        <ele>305.2</ele>
        <time>2021-07-03 19:59:01</time>
      </trkpt>
      <trkpt lat="29.02682" lon="-13.68359">
        <ele>305.2</ele>
        <time>2021-07-03 19:59:02</time>
      </trkpt>
      <trkpt lat="29.02678" lon="-13.68357">
        <ele>305.2</ele>
        <time>2021-07-03 19:59:03</time>
      </trkpt>
      <trkpt lat="29.02675" lon="-13.68354">
        <ele>305.2</ele>
        <time>2021-07-03 19:59:04</time>
      </trkpt>
      <trkpt lat="29.0267" lon="-13.68352">
        <ele>305.4</ele>
        <time>2021-07-03 19:59:05</time>
      </trkpt>
      <trkpt lat="29.02666" lon="-13.68349">
        <ele>305.4</ele>
        <time>2021-07-03 19:59:06</time>
      </trkpt>
      <trkpt lat="29.02662" lon="-13.68346">
        <ele>305.4</ele>
        <time>2021-07-03 19:59:07</time>
      </trkpt>
      <trkpt lat="29.02657" lon="-13.68343">
        <ele>305.4</ele>
        <time>2021-07-03 19:59:08</time>
      </trkpt>
      <trkpt lat="29.02653" lon="-13.6834">
        <ele>305.4</ele>
        <time>2021-07-03 19:59:09</time>
      </trkpt>
      <trkpt lat="29.02648" lon="-13.68337">
        <ele>305.4</ele>
        <time>2021-07-03 19:59:10</time>
      </trkpt>
      <trkpt lat="29.02643" lon="-13.68334">
        <ele>305.4</ele>
        <time>2021-07-03 19:59:11</time>
      </trkpt>
      <trkpt lat="29.02639" lon="-13.68331">
        <ele>305.4</ele>
        <time>2021-07-03 19:59:12</time>
      </trkpt>
      <trkpt lat="29.02634" lon="-13.68328">
        <ele>305.4</ele>
        <time>2021-07-03 19:59:13</time>
      </trkpt>
      <trkpt lat="29.02629" lon="-13.68324">
        <ele>305.4</ele>
        <time>2021-07-03 19:59:14</time>
      </trkpt>
      <trkpt lat="29.02625" lon="-13.6832">
        <ele>305.4</ele>
        <time>2021-07-03 19:59:15</time>
      </trkpt>
      <trkpt lat="29.0262" lon="-13.68317">
        <ele>305.4</ele>
        <time>2021-07-03 19:59:16</time>
      </trkpt>
      <trkpt lat="29.02614" lon="-13.68314">
        <ele>305.4</ele>
        <time>2021-07-03 19:59:17</time>
      </trkpt>
      <trkpt lat="29.02609" lon="-13.68311">
        <ele>305.4</ele>
        <time>2021-07-03 19:59:18</time>
      </trkpt>
      <trkpt lat="29.02605" lon="-13.68307">
        <ele>305.4</ele>
        <time>2021-07-03 19:59:19</time>
      </trkpt>
      <trkpt lat="29.026" lon="-13.68305">
        <ele>305.4</ele>
        <time>2021-07-03 19:59:20</time>
      </trkpt>
      <trkpt lat="29.02596" lon="-13.68302">
        <ele>305.4</ele>
        <time>2021-07-03 19:59:21</time>
      </trkpt>
      <trkpt lat="29.02592" lon="-13.68299">
        <ele>305.4</ele>
        <time>2021-07-03 19:59:22</time>
      </trkpt>
      <trkpt lat="29.02588" lon="-13.68296">
        <ele>305.4</ele>
        <time>2021-07-03 19:59:23</time>
      </trkpt>
      <trkpt lat="29.02583" lon="-13.68294">
        <ele>305.4</ele>
        <time>2021-07-03 19:59:24</time>
      </trkpt>
      <trkpt lat="29.02579" lon="-13.6829">
        <ele>305.4</ele>
        <time>2021-07-03 19:59:25</time>
      </trkpt>
      <trkpt lat="29.02575" lon="-13.68288">
        <ele>305.4</ele>
        <time>2021-07-03 19:59:26</time>
      </trkpt>
      <trkpt lat="29.0257" lon="-13.68285">
        <ele>305.4</ele>
        <time>2021-07-03 19:59:27</time>
      </trkpt>
      <trkpt lat="29.02566" lon="-13.68282">
        <ele>305.6</ele>
        <time>2021-07-03 19:59:28</time>
      </trkpt>
      <trkpt lat="29.02561" lon="-13.68279">
        <ele>305.6</ele>
        <time>2021-07-03 19:59:29</time>
      </trkpt>
      <trkpt lat="29.02558" lon="-13.68275">
        <ele>305.6</ele>
        <time>2021-07-03 19:59:30</time>
      </trkpt>
      <trkpt lat="29.02554" lon="-13.68271">
        <ele>305.6</ele>
        <time>2021-07-03 19:59:31</time>
      </trkpt>
      <trkpt lat="29.0255" lon="-13.68267">
        <ele>305.6</ele>
        <time>2021-07-03 19:59:32</time>
      </trkpt>
      <trkpt lat="29.02545" lon="-13.68264">
        <ele>305.6</ele>
        <time>2021-07-03 19:59:33</time>
      </trkpt>
      <trkpt lat="29.02541" lon="-13.68263">
        <ele>305.6</ele>
        <time>2021-07-03 19:59:34</time>
      </trkpt>
      <trkpt lat="29.02537" lon="-13.68262">
        <ele>305.6</ele>
        <time>2021-07-03 19:59:35</time>
      </trkpt>
      <trkpt lat="29.02534" lon="-13.68261">
        <ele>305.6</ele>
        <time>2021-07-03 19:59:36</time>
      </trkpt>
      <trkpt lat="29.02532" lon="-13.6826">
        <ele>305.6</ele>
        <time>2021-07-03 19:59:37</time>
      </trkpt>
      <trkpt lat="29.02532" lon="-13.6826">
        <ele>305.6</ele>
        <time>2021-07-03 19:59:38</time>
      </trkpt>
      <trkpt lat="29.02532" lon="-13.6826">
        <ele>305.6</ele>
        <time>2021-07-03 19:59:39</time>
      </trkpt>
      <trkpt lat="29.02532" lon="-13.6826">
        <ele>305.6</ele>
        <time>2021-07-03 19:59:40</time>
      </trkpt>
      <trkpt lat="29.02532" lon="-13.6826">
        <ele>305.6</ele>
        <time>2021-07-03 19:59:41</time>
      </trkpt>
      <trkpt lat="29.0253" lon="-13.68259">
        <ele>304.4</ele>
        <time>2021-07-03 19:59:42</time>
      </trkpt>
      <trkpt lat="29.02527" lon="-13.68258">
        <ele>304.4</ele>
        <time>2021-07-03 19:59:43</time>
      </trkpt>
      <trkpt lat="29.02525" lon="-13.68257">
        <ele>304.4</ele>
        <time>2021-07-03 19:59:44</time>
      </trkpt>
      <trkpt lat="29.02522" lon="-13.68257">
        <ele>304.4</ele>
        <time>2021-07-03 19:59:45</time>
      </trkpt>
      <trkpt lat="29.02519" lon="-13.68256">
        <ele>304</ele>
        <time>2021-07-03 19:59:46</time>
      </trkpt>
      <trkpt lat="29.02516" lon="-13.68255">
        <ele>303.8</ele>
        <time>2021-07-03 19:59:47</time>
      </trkpt>
      <trkpt lat="29.02513" lon="-13.68253">
        <ele>303.8</ele>
        <time>2021-07-03 19:59:48</time>
      </trkpt>
      <trkpt lat="29.02511" lon="-13.68252">
        <ele>303.6</ele>
        <time>2021-07-03 19:59:49</time>
      </trkpt>
      <trkpt lat="29.02509" lon="-13.68251">
        <ele>303.6</ele>
        <time>2021-07-03 19:59:50</time>
      </trkpt>
      <trkpt lat="29.02509" lon="-13.68251">
        <ele>303.6</ele>
        <time>2021-07-03 19:59:51</time>
      </trkpt>
      <trkpt lat="29.02509" lon="-13.68251">
        <ele>303.6</ele>
        <time>2021-07-03 19:59:52</time>
      </trkpt>
      <trkpt lat="29.02509" lon="-13.68251">
        <ele>303.6</ele>
        <time>2021-07-03 19:59:53</time>
      </trkpt>
      <trkpt lat="29.02509" lon="-13.68251">
        <ele>303.6</ele>
        <time>2021-07-03 19:59:54</time>
      </trkpt>
      <trkpt lat="29.02507" lon="-13.6825">
        <ele>304.4</ele>
        <time>2021-07-03 19:59:55</time>
      </trkpt>
      <trkpt lat="29.02505" lon="-13.68249">
        <ele>304.8</ele>
        <time>2021-07-03 19:59:56</time>
      </trkpt>
      <trkpt lat="29.02503" lon="-13.68248">
        <ele>304.8</ele>
        <time>2021-07-03 19:59:57</time>
      </trkpt>
      <trkpt lat="29.02501" lon="-13.68247">
        <ele>304.4</ele>
        <time>2021-07-03 19:59:58</time>
      </trkpt>
      <trkpt lat="29.02499" lon="-13.68247">
        <ele>304.2</ele>
        <time>2021-07-03 19:59:59</time>
      </trkpt>
      <trkpt lat="29.02498" lon="-13.68246">
        <ele>304.2</ele>
        <time>2021-07-03 20:00:00</time>
      </trkpt>
      <trkpt lat="29.02498" lon="-13.68247">
        <ele>304</ele>
        <time>2021-07-03 20:00:01</time>
      </trkpt>
      <trkpt lat="29.02498" lon="-13.68247">
        <ele>304</ele>
        <time>2021-07-03 20:00:02</time>
      </trkpt>
      <trkpt lat="29.02498" lon="-13.68247">
        <ele>304</ele>
        <time>2021-07-03 20:00:03</time>
      </trkpt>
      <trkpt lat="29.02498" lon="-13.68247">
        <ele>304</ele>
        <time>2021-07-03 20:00:04</time>
      </trkpt>
      <trkpt lat="29.02496" lon="-13.68246">
        <ele>304.6</ele>
        <time>2021-07-03 20:00:05</time>
      </trkpt>
      <trkpt lat="29.02495" lon="-13.68245">
        <ele>304.6</ele>
        <time>2021-07-03 20:00:06</time>
      </trkpt>
      <trkpt lat="29.02493" lon="-13.68245">
        <ele>304.6</ele>
        <time>2021-07-03 20:00:07</time>
      </trkpt>
      <trkpt lat="29.02491" lon="-13.68244">
        <ele>304.6</ele>
        <time>2021-07-03 20:00:08</time>
      </trkpt>
      <trkpt lat="29.02489" lon="-13.68243">
        <ele>304.6</ele>
        <time>2021-07-03 20:00:09</time>
      </trkpt>
      <trkpt lat="29.02487" lon="-13.68242">
        <ele>304.6</ele>
        <time>2021-07-03 20:00:10</time>
      </trkpt>
      <trkpt lat="29.02485" lon="-13.68241">
        <ele>304.6</ele>
        <time>2021-07-03 20:00:11</time>
      </trkpt>
      <trkpt lat="29.02483" lon="-13.6824">
        <ele>304.6</ele>
        <time>2021-07-03 20:00:12</time>
      </trkpt>
      <trkpt lat="29.02481" lon="-13.6824">
        <ele>304.6</ele>
        <time>2021-07-03 20:00:13</time>
      </trkpt>
      <trkpt lat="29.0248" lon="-13.68239">
        <ele>304.4</ele>
        <time>2021-07-03 20:00:14</time>
      </trkpt>
      <trkpt lat="29.02478" lon="-13.68239">
        <ele>304.4</ele>
        <time>2021-07-03 20:00:15</time>
      </trkpt>
      <trkpt lat="29.02476" lon="-13.68238">
        <ele>304.4</ele>
        <time>2021-07-03 20:00:16</time>
      </trkpt>
      <trkpt lat="29.02475" lon="-13.68237">
        <ele>304.4</ele>
        <time>2021-07-03 20:00:17</time>
      </trkpt>
      <trkpt lat="29.02473" lon="-13.68237">
        <ele>304</ele>
        <time>2021-07-03 20:00:18</time>
      </trkpt>
      <trkpt lat="29.02471" lon="-13.68236">
        <ele>304</ele>
        <time>2021-07-03 20:00:19</time>
      </trkpt>
      <trkpt lat="29.0247" lon="-13.68235">
        <ele>304</ele>
        <time>2021-07-03 20:00:20</time>
      </trkpt>
      <trkpt lat="29.02468" lon="-13.68235">
        <ele>304</ele>
        <time>2021-07-03 20:00:21</time>
      </trkpt>
      <trkpt lat="29.02466" lon="-13.68234">
        <ele>304</ele>
        <time>2021-07-03 20:00:22</time>
      </trkpt>
      <trkpt lat="29.02464" lon="-13.68233">
        <ele>304</ele>
        <time>2021-07-03 20:00:23</time>
      </trkpt>
      <trkpt lat="29.02462" lon="-13.68233">
        <ele>304</ele>
        <time>2021-07-03 20:00:24</time>
      </trkpt>
      <trkpt lat="29.0246" lon="-13.68232">
        <ele>304</ele>
        <time>2021-07-03 20:00:25</time>
      </trkpt>
      <trkpt lat="29.02459" lon="-13.68232">
        <ele>303.8</ele>
        <time>2021-07-03 20:00:26</time>
      </trkpt>
      <trkpt lat="29.02457" lon="-13.68231">
        <ele>303.8</ele>
        <time>2021-07-03 20:00:27</time>
      </trkpt>
      <trkpt lat="29.02455" lon="-13.68231">
        <ele>303.8</ele>
        <time>2021-07-03 20:00:28</time>
      </trkpt>
      <trkpt lat="29.02454" lon="-13.6823">
        <ele>303.8</ele>
        <time>2021-07-03 20:00:29</time>
      </trkpt>
      <trkpt lat="29.02453" lon="-13.6823">
        <ele>303.8</ele>
        <time>2021-07-03 20:00:30</time>
      </trkpt>
      <trkpt lat="29.02451" lon="-13.68229">
        <ele>303.8</ele>
        <time>2021-07-03 20:00:31</time>
      </trkpt>
      <trkpt lat="29.02449" lon="-13.68228">
        <ele>303.8</ele>
        <time>2021-07-03 20:00:46</time>
      </trkpt>
      <trkpt lat="29.02447" lon="-13.68227">
        <ele>303.8</ele>
        <time>2021-07-03 20:00:47</time>
      </trkpt>
      <trkpt lat="29.02445" lon="-13.68226">
        <ele>303.8</ele>
        <time>2021-07-03 20:00:48</time>
      </trkpt>
      <trkpt lat="29.02444" lon="-13.68226">
        <ele>303.8</ele>
        <time>2021-07-03 20:00:49</time>
      </trkpt>
      <trkpt lat="29.02442" lon="-13.68225">
        <ele>303.6</ele>
        <time>2021-07-03 20:00:50</time>
      </trkpt>
      <trkpt lat="29.0244" lon="-13.68224">
        <ele>303.6</ele>
        <time>2021-07-03 20:00:51</time>
      </trkpt>
      <trkpt lat="29.02438" lon="-13.68224">
        <ele>303.4</ele>
        <time>2021-07-03 20:00:52</time>
      </trkpt>
      <trkpt lat="29.02435" lon="-13.68223">
        <ele>303.4</ele>
        <time>2021-07-03 20:00:53</time>
      </trkpt>
      <trkpt lat="29.02433" lon="-13.68222">
        <ele>303.4</ele>
        <time>2021-07-03 20:00:54</time>
      </trkpt>
      <trkpt lat="29.02431" lon="-13.68221">
        <ele>303.4</ele>
        <time>2021-07-03 20:00:55</time>
      </trkpt>
      <trkpt lat="29.02428" lon="-13.6822">
        <ele>303.4</ele>
        <time>2021-07-03 20:00:56</time>
      </trkpt>
      <trkpt lat="29.02424" lon="-13.68219">
        <ele>303.4</ele>
        <time>2021-07-03 20:00:57</time>
      </trkpt>
      <trkpt lat="29.02421" lon="-13.68218">
        <ele>303.4</ele>
        <time>2021-07-03 20:00:58</time>
      </trkpt>
      <trkpt lat="29.02417" lon="-13.68216">
        <ele>303.4</ele>
        <time>2021-07-03 20:00:59</time>
      </trkpt>
      <trkpt lat="29.02413" lon="-13.68215">
        <ele>303.4</ele>
        <time>2021-07-03 20:01:00</time>
      </trkpt>
      <trkpt lat="29.02409" lon="-13.68213">
        <ele>303.4</ele>
        <time>2021-07-03 20:01:01</time>
      </trkpt>
      <trkpt lat="29.02406" lon="-13.68211">
        <ele>303.4</ele>
        <time>2021-07-03 20:01:02</time>
      </trkpt>
      <trkpt lat="29.02402" lon="-13.6821">
        <ele>303.4</ele>
        <time>2021-07-03 20:01:03</time>
      </trkpt>
      <trkpt lat="29.02397" lon="-13.68209">
        <ele>303.4</ele>
        <time>2021-07-03 20:01:04</time>
      </trkpt>
      <trkpt lat="29.02393" lon="-13.68207">
        <ele>303.4</ele>
        <time>2021-07-03 20:01:05</time>
      </trkpt>
      <trkpt lat="29.0239" lon="-13.68206">
        <ele>303.4</ele>
        <time>2021-07-03 20:01:06</time>
      </trkpt>
      <trkpt lat="29.02385" lon="-13.68204">
        <ele>303.4</ele>
        <time>2021-07-03 20:01:07</time>
      </trkpt>
      <trkpt lat="29.02381" lon="-13.68203">
        <ele>303.4</ele>
        <time>2021-07-03 20:01:08</time>
      </trkpt>
      <trkpt lat="29.02377" lon="-13.68201">
        <ele>303.4</ele>
        <time>2021-07-03 20:01:09</time>
      </trkpt>
      <trkpt lat="29.02373" lon="-13.682">
        <ele>303.4</ele>
        <time>2021-07-03 20:01:10</time>
      </trkpt>
      <trkpt lat="29.02369" lon="-13.68199">
        <ele>303.4</ele>
        <time>2021-07-03 20:01:11</time>
      </trkpt>
      <trkpt lat="29.02365" lon="-13.68197">
        <ele>303.4</ele>
        <time>2021-07-03 20:01:12</time>
      </trkpt>
      <trkpt lat="29.02362" lon="-13.68196">
        <ele>303.4</ele>
        <time>2021-07-03 20:01:13</time>
      </trkpt>
      <trkpt lat="29.02358" lon="-13.68194">
        <ele>303.2</ele>
        <time>2021-07-03 20:01:14</time>
      </trkpt>
      <trkpt lat="29.02354" lon="-13.68193">
        <ele>303.2</ele>
        <time>2021-07-03 20:01:15</time>
      </trkpt>
      <trkpt lat="29.0235" lon="-13.68191">
        <ele>303.2</ele>
        <time>2021-07-03 20:01:16</time>
      </trkpt>
      <trkpt lat="29.02346" lon="-13.6819">
        <ele>303.2</ele>
        <time>2021-07-03 20:01:17</time>
      </trkpt>
      <trkpt lat="29.02342" lon="-13.68189">
        <ele>303.2</ele>
        <time>2021-07-03 20:01:18</time>
      </trkpt>
      <trkpt lat="29.02339" lon="-13.68187">
        <ele>303.2</ele>
        <time>2021-07-03 20:01:19</time>
      </trkpt>
      <trkpt lat="29.02335" lon="-13.68186">
        <ele>302.8</ele>
        <time>2021-07-03 20:01:20</time>
      </trkpt>
      <trkpt lat="29.02331" lon="-13.68185">
        <ele>302.8</ele>
        <time>2021-07-03 20:01:21</time>
      </trkpt>
      <trkpt lat="29.02326" lon="-13.68183">
        <ele>302.8</ele>
        <time>2021-07-03 20:01:22</time>
      </trkpt>
      <trkpt lat="29.02322" lon="-13.68181">
        <ele>302.8</ele>
        <time>2021-07-03 20:01:23</time>
      </trkpt>
      <trkpt lat="29.02318" lon="-13.68179">
        <ele>302.8</ele>
        <time>2021-07-03 20:01:24</time>
      </trkpt>
      <trkpt lat="29.02314" lon="-13.68177">
        <ele>302.8</ele>
        <time>2021-07-03 20:01:25</time>
      </trkpt>
      <trkpt lat="29.02311" lon="-13.68174">
        <ele>302.8</ele>
        <time>2021-07-03 20:01:26</time>
      </trkpt>
      <trkpt lat="29.02308" lon="-13.68171">
        <ele>302.8</ele>
        <time>2021-07-03 20:01:27</time>
      </trkpt>
      <trkpt lat="29.02304" lon="-13.68168">
        <ele>302.8</ele>
        <time>2021-07-03 20:01:28</time>
      </trkpt>
      <trkpt lat="29.02301" lon="-13.68165">
        <ele>302.8</ele>
        <time>2021-07-03 20:01:29</time>
      </trkpt>
      <trkpt lat="29.02299" lon="-13.68162">
        <ele>302.8</ele>
        <time>2021-07-03 20:01:30</time>
      </trkpt>
      <trkpt lat="29.02296" lon="-13.68158">
        <ele>302.6</ele>
        <time>2021-07-03 20:01:31</time>
      </trkpt>
      <trkpt lat="29.02293" lon="-13.68154">
        <ele>302.6</ele>
        <time>2021-07-03 20:01:32</time>
      </trkpt>
      <trkpt lat="29.0229" lon="-13.68149">
        <ele>302.6</ele>
        <time>2021-07-03 20:01:33</time>
      </trkpt>
      <trkpt lat="29.02288" lon="-13.68144">
        <ele>302.6</ele>
        <time>2021-07-03 20:01:34</time>
      </trkpt>
      <trkpt lat="29.02287" lon="-13.6814">
        <ele>302.6</ele>
        <time>2021-07-03 20:01:35</time>
      </trkpt>
      <trkpt lat="29.02284" lon="-13.68135">
        <ele>302.4</ele>
        <time>2021-07-03 20:01:36</time>
      </trkpt>
      <trkpt lat="29.02283" lon="-13.68131">
        <ele>302.4</ele>
        <time>2021-07-03 20:01:37</time>
      </trkpt>
      <trkpt lat="29.02281" lon="-13.68126">
        <ele>302.4</ele>
        <time>2021-07-03 20:01:38</time>
      </trkpt>
      <trkpt lat="29.02279" lon="-13.68121">
        <ele>302.4</ele>
        <time>2021-07-03 20:01:39</time>
      </trkpt>
      <trkpt lat="29.02278" lon="-13.68115">
        <ele>302.4</ele>
        <time>2021-07-03 20:01:40</time>
      </trkpt>
      <trkpt lat="29.02276" lon="-13.68111">
        <ele>302.2</ele>
        <time>2021-07-03 20:01:41</time>
      </trkpt>
      <trkpt lat="29.02275" lon="-13.68106">
        <ele>302.2</ele>
        <time>2021-07-03 20:01:42</time>
      </trkpt>
      <trkpt lat="29.02273" lon="-13.68101">
        <ele>302.2</ele>
        <time>2021-07-03 20:01:43</time>
      </trkpt>
      <trkpt lat="29.02272" lon="-13.68096">
        <ele>302.2</ele>
        <time>2021-07-03 20:01:44</time>
      </trkpt>
      <trkpt lat="29.0227" lon="-13.68091">
        <ele>302.2</ele>
        <time>2021-07-03 20:01:45</time>
      </trkpt>
      <trkpt lat="29.02269" lon="-13.68087">
        <ele>302.2</ele>
        <time>2021-07-03 20:01:46</time>
      </trkpt>
      <trkpt lat="29.02267" lon="-13.68082">
        <ele>302.4</ele>
        <time>2021-07-03 20:01:47</time>
      </trkpt>
      <trkpt lat="29.02265" lon="-13.68077">
        <ele>302.4</ele>
        <time>2021-07-03 20:01:48</time>
      </trkpt>
      <trkpt lat="29.02264" lon="-13.68071">
        <ele>302.6</ele>
        <time>2021-07-03 20:01:49</time>
      </trkpt>
      <trkpt lat="29.02262" lon="-13.68067">
        <ele>302.6</ele>
        <time>2021-07-03 20:01:50</time>
      </trkpt>
      <trkpt lat="29.0226" lon="-13.68063">
        <ele>302.6</ele>
        <time>2021-07-03 20:01:51</time>
      </trkpt>
      <trkpt lat="29.02259" lon="-13.68058">
        <ele>302.6</ele>
        <time>2021-07-03 20:01:52</time>
      </trkpt>
      <trkpt lat="29.02257" lon="-13.68054">
        <ele>302.6</ele>
        <time>2021-07-03 20:01:53</time>
      </trkpt>
      <trkpt lat="29.02255" lon="-13.6805">
        <ele>302.6</ele>
        <time>2021-07-03 20:01:54</time>
      </trkpt>
      <trkpt lat="29.02253" lon="-13.68046">
        <ele>302.6</ele>
        <time>2021-07-03 20:01:55</time>
      </trkpt>
      <trkpt lat="29.02252" lon="-13.68042">
        <ele>302.6</ele>
        <time>2021-07-03 20:01:56</time>
      </trkpt>
      <trkpt lat="29.02251" lon="-13.68038">
        <ele>302.6</ele>
        <time>2021-07-03 20:01:57</time>
      </trkpt>
      <trkpt lat="29.0225" lon="-13.68035">
        <ele>302.6</ele>
        <time>2021-07-03 20:01:58</time>
      </trkpt>
      <trkpt lat="29.02248" lon="-13.68031">
        <ele>302.6</ele>
        <time>2021-07-03 20:01:59</time>
      </trkpt>
      <trkpt lat="29.02247" lon="-13.68027">
        <ele>302.6</ele>
        <time>2021-07-03 20:02:00</time>
      </trkpt>
      <trkpt lat="29.02246" lon="-13.68023">
        <ele>302.6</ele>
        <time>2021-07-03 20:02:01</time>
      </trkpt>
      <trkpt lat="29.02245" lon="-13.6802">
        <ele>302.6</ele>
        <time>2021-07-03 20:02:02</time>
      </trkpt>
      <trkpt lat="29.02244" lon="-13.68016">
        <ele>302.6</ele>
        <time>2021-07-03 20:02:03</time>
      </trkpt>
      <trkpt lat="29.02242" lon="-13.68012">
        <ele>302.6</ele>
        <time>2021-07-03 20:02:04</time>
      </trkpt>
      <trkpt lat="29.0224" lon="-13.68007">
        <ele>302.6</ele>
        <time>2021-07-03 20:02:05</time>
      </trkpt>
      <trkpt lat="29.02239" lon="-13.68003">
        <ele>302.6</ele>
        <time>2021-07-03 20:02:06</time>
      </trkpt>
      <trkpt lat="29.02237" lon="-13.68">
        <ele>302.6</ele>
        <time>2021-07-03 20:02:07</time>
      </trkpt>
      <trkpt lat="29.02234" lon="-13.67996">
        <ele>302.6</ele>
        <time>2021-07-03 20:02:08</time>
      </trkpt>
      <trkpt lat="29.02232" lon="-13.67993">
        <ele>302.6</ele>
        <time>2021-07-03 20:02:09</time>
      </trkpt>
      <trkpt lat="29.02229" lon="-13.6799">
        <ele>302.6</ele>
        <time>2021-07-03 20:02:54</time>
      </trkpt>
      <trkpt lat="29.02225" lon="-13.67987">
        <ele>302.6</ele>
        <time>2021-07-03 20:02:55</time>
      </trkpt>
      <trkpt lat="29.02222" lon="-13.67983">
        <ele>302.6</ele>
        <time>2021-07-03 20:02:56</time>
      </trkpt>
      <trkpt lat="29.02219" lon="-13.6798">
        <ele>302.6</ele>
        <time>2021-07-03 20:02:57</time>
      </trkpt>
      <trkpt lat="29.02216" lon="-13.67976">
        <ele>302.6</ele>
        <time>2021-07-03 20:02:58</time>
      </trkpt>
      <trkpt lat="29.02212" lon="-13.67973">
        <ele>302.6</ele>
        <time>2021-07-03 20:02:59</time>
      </trkpt>
      <trkpt lat="29.02209" lon="-13.67969">
        <ele>302.6</ele>
        <time>2021-07-03 20:03:00</time>
      </trkpt>
      <trkpt lat="29.02206" lon="-13.67965">
        <ele>302.6</ele>
        <time>2021-07-03 20:03:01</time>
      </trkpt>
      <trkpt lat="29.02203" lon="-13.67962">
        <ele>302.6</ele>
        <time>2021-07-03 20:03:02</time>
      </trkpt>
      <trkpt lat="29.022" lon="-13.67958">
        <ele>302.6</ele>
        <time>2021-07-03 20:03:03</time>
      </trkpt>
      <trkpt lat="29.02197" lon="-13.67955">
        <ele>302.6</ele>
        <time>2021-07-03 20:03:04</time>
      </trkpt>
      <trkpt lat="29.02193" lon="-13.67951">
        <ele>302.6</ele>
        <time>2021-07-03 20:03:05</time>
      </trkpt>
      <trkpt lat="29.0219" lon="-13.67948">
        <ele>302.6</ele>
        <time>2021-07-03 20:03:06</time>
      </trkpt>
      <trkpt lat="29.02188" lon="-13.67946">
        <ele>303</ele>
        <time>2021-07-03 20:03:50</time>
      </trkpt>
      <trkpt lat="29.02185" lon="-13.67943">
        <ele>303</ele>
        <time>2021-07-03 20:03:51</time>
      </trkpt>
      <trkpt lat="29.02183" lon="-13.6794">
        <ele>303</ele>
        <time>2021-07-03 20:03:52</time>
      </trkpt>
      <trkpt lat="29.02181" lon="-13.67938">
        <ele>303</ele>
        <time>2021-07-03 20:03:53</time>
      </trkpt>
      <trkpt lat="29.02179" lon="-13.67936">
        <ele>303</ele>
        <time>2021-07-03 20:03:54</time>
      </trkpt>
      <trkpt lat="29.02178" lon="-13.67933">
        <ele>303</ele>
        <time>2021-07-03 20:03:55</time>
      </trkpt>
      <trkpt lat="29.02176" lon="-13.67931">
        <ele>303.2</ele>
        <time>2021-07-03 20:03:56</time>
      </trkpt>
      <trkpt lat="29.02174" lon="-13.67929">
        <ele>303.2</ele>
        <time>2021-07-03 20:03:57</time>
      </trkpt>
      <trkpt lat="29.02172" lon="-13.67927">
        <ele>303.2</ele>
        <time>2021-07-03 20:03:58</time>
      </trkpt>
      <trkpt lat="29.02171" lon="-13.67926">
        <ele>303.2</ele>
        <time>2021-07-03 20:03:59</time>
      </trkpt>
      <trkpt lat="29.02171" lon="-13.67925">
        <ele>303.2</ele>
        <time>2021-07-03 20:04:33</time>
      </trkpt>
      <trkpt lat="29.02171" lon="-13.67925">
        <ele>303.2</ele>
        <time>2021-07-03 20:04:34</time>
      </trkpt>
      <trkpt lat="29.02171" lon="-13.67925">
        <ele>303.2</ele>
        <time>2021-07-03 20:04:35</time>
      </trkpt>
      <trkpt lat="29.02171" lon="-13.67925">
        <ele>303.2</ele>
        <time>2021-07-03 20:04:36</time>
      </trkpt>
      <trkpt lat="29.0217" lon="-13.67924">
        <ele>303.2</ele>
        <time>2021-07-03 20:04:37</time>
      </trkpt>
      <trkpt lat="29.0217" lon="-13.67923">
        <ele>302.8</ele>
        <time>2021-07-03 20:04:38</time>
      </trkpt>
      <trkpt lat="29.02169" lon="-13.67923">
        <ele>302.6</ele>
        <time>2021-07-03 20:04:39</time>
      </trkpt>
      <trkpt lat="29.02169" lon="-13.67923">
        <ele>302.4</ele>
        <time>2021-07-03 20:04:40</time>
      </trkpt>
      <trkpt lat="29.02169" lon="-13.67924">
        <ele>302.4</ele>
        <time>2021-07-03 20:04:41</time>
      </trkpt>
      <trkpt lat="29.02169" lon="-13.67924">
        <ele>302.4</ele>
        <time>2021-07-03 20:04:42</time>
      </trkpt>
      <trkpt lat="29.02167" lon="-13.67923">
        <ele>302.4</ele>
        <time>2021-07-03 20:04:43</time>
      </trkpt>
      <trkpt lat="29.02166" lon="-13.67922">
        <ele>302.4</ele>
        <time>2021-07-03 20:04:44</time>
      </trkpt>
      <trkpt lat="29.02165" lon="-13.67921">
        <ele>302.4</ele>
        <time>2021-07-03 20:04:45</time>
      </trkpt>
      <trkpt lat="29.02165" lon="-13.6792">
        <ele>302.4</ele>
        <time>2021-07-03 20:04:46</time>
      </trkpt>
      <trkpt lat="29.02164" lon="-13.6792">
        <ele>302.2</ele>
        <time>2021-07-03 20:04:47</time>
      </trkpt>
      <trkpt lat="29.02164" lon="-13.6792">
        <ele>302.2</ele>
        <time>2021-07-03 20:04:48</time>
      </trkpt>
      <trkpt lat="29.02164" lon="-13.6792">
        <ele>302.2</ele>
        <time>2021-07-03 20:04:49</time>
      </trkpt>
      <trkpt lat="29.02164" lon="-13.6792">
        <ele>302.2</ele>
        <time>2021-07-03 20:04:50</time>
      </trkpt>
      <trkpt lat="29.02164" lon="-13.6792">
        <ele>302.2</ele>
        <time>2021-07-03 20:04:51</time>
      </trkpt>
      <trkpt lat="29.02162" lon="-13.67917">
        <ele>302.4</ele>
        <time>2021-07-03 20:04:52</time>
      </trkpt>
      <trkpt lat="29.02161" lon="-13.67916">
        <ele>302.4</ele>
        <time>2021-07-03 20:04:53</time>
      </trkpt>
      <trkpt lat="29.0216" lon="-13.67914">
        <ele>302.4</ele>
        <time>2021-07-03 20:04:54</time>
      </trkpt>
      <trkpt lat="29.02159" lon="-13.67911">
        <ele>302.4</ele>
        <time>2021-07-03 20:04:55</time>
      </trkpt>
      <trkpt lat="29.02158" lon="-13.67909">
        <ele>302.4</ele>
        <time>2021-07-03 20:04:56</time>
      </trkpt>
      <trkpt lat="29.02156" lon="-13.67907">
        <ele>302.4</ele>
        <time>2021-07-03 20:04:57</time>
      </trkpt>
      <trkpt lat="29.02154" lon="-13.67905">
        <ele>302.4</ele>
        <time>2021-07-03 20:04:58</time>
      </trkpt>
      <trkpt lat="29.02152" lon="-13.67903">
        <ele>302.6</ele>
        <time>2021-07-03 20:04:59</time>
      </trkpt>
      <trkpt lat="29.0215" lon="-13.67901">
        <ele>302.6</ele>
        <time>2021-07-03 20:05:00</time>
      </trkpt>
      <trkpt lat="29.02148" lon="-13.67899">
        <ele>302.6</ele>
        <time>2021-07-03 20:05:01</time>
      </trkpt>
      <trkpt lat="29.02146" lon="-13.67897">
        <ele>302.6</ele>
        <time>2021-07-03 20:05:02</time>
      </trkpt>
      <trkpt lat="29.02144" lon="-13.67895">
        <ele>302.8</ele>
        <time>2021-07-03 20:05:03</time>
      </trkpt>
      <trkpt lat="29.02141" lon="-13.67892">
        <ele>302.8</ele>
        <time>2021-07-03 20:05:04</time>
      </trkpt>
      <trkpt lat="29.02139" lon="-13.6789">
        <ele>302.8</ele>
        <time>2021-07-03 20:05:05</time>
      </trkpt>
      <trkpt lat="29.02138" lon="-13.67888">
        <ele>302.8</ele>
        <time>2021-07-03 20:05:06</time>
      </trkpt>
      <trkpt lat="29.02136" lon="-13.67885">
        <ele>302.8</ele>
        <time>2021-07-03 20:05:07</time>
      </trkpt>
      <trkpt lat="29.02134" lon="-13.67882">
        <ele>302.8</ele>
        <time>2021-07-03 20:05:08</time>
      </trkpt>
      <trkpt lat="29.02133" lon="-13.67879">
        <ele>302.8</ele>
        <time>2021-07-03 20:05:09</time>
      </trkpt>
      <trkpt lat="29.02131" lon="-13.67876">
        <ele>303.2</ele>
        <time>2021-07-03 20:05:10</time>
      </trkpt>
      <trkpt lat="29.02129" lon="-13.67873">
        <ele>303.2</ele>
        <time>2021-07-03 20:05:11</time>
      </trkpt>
      <trkpt lat="29.02126" lon="-13.6787">
        <ele>303.2</ele>
        <time>2021-07-03 20:05:12</time>
      </trkpt>
      <trkpt lat="29.02122" lon="-13.67867">
        <ele>303.2</ele>
        <time>2021-07-03 20:05:13</time>
      </trkpt>
      <trkpt lat="29.0212" lon="-13.67864">
        <ele>303.2</ele>
        <time>2021-07-03 20:05:14</time>
      </trkpt>
      <trkpt lat="29.02116" lon="-13.6786">
        <ele>303.4</ele>
        <time>2021-07-03 20:05:15</time>
      </trkpt>
      <trkpt lat="29.02113" lon="-13.67857">
        <ele>303.4</ele>
        <time>2021-07-03 20:05:16</time>
      </trkpt>
      <trkpt lat="29.0211" lon="-13.67854">
        <ele>303.4</ele>
        <time>2021-07-03 20:05:17</time>
      </trkpt>
      <trkpt lat="29.02108" lon="-13.67851">
        <ele>303.4</ele>
        <time>2021-07-03 20:05:18</time>
      </trkpt>
      <trkpt lat="29.02105" lon="-13.67848">
        <ele>303.4</ele>
        <time>2021-07-03 20:05:19</time>
      </trkpt>
      <trkpt lat="29.02103" lon="-13.67845">
        <ele>303.6</ele>
        <time>2021-07-03 20:05:20</time>
      </trkpt>
      <trkpt lat="29.021" lon="-13.67842">
        <ele>303.6</ele>
        <time>2021-07-03 20:05:21</time>
      </trkpt>
      <trkpt lat="29.02097" lon="-13.67839">
        <ele>303.6</ele>
        <time>2021-07-03 20:05:22</time>
      </trkpt>
      <trkpt lat="29.02094" lon="-13.67835">
        <ele>303.6</ele>
        <time>2021-07-03 20:05:23</time>
      </trkpt>
      <trkpt lat="29.02091" lon="-13.67832">
        <ele>304</ele>
        <time>2021-07-03 20:05:24</time>
      </trkpt>
      <trkpt lat="29.02088" lon="-13.67828">
        <ele>304</ele>
        <time>2021-07-03 20:05:25</time>
      </trkpt>
      <trkpt lat="29.02085" lon="-13.67825">
        <ele>304</ele>
        <time>2021-07-03 20:05:26</time>
      </trkpt>
      <trkpt lat="29.02082" lon="-13.67821">
        <ele>304.2</ele>
        <time>2021-07-03 20:05:27</time>
      </trkpt>
      <trkpt lat="29.02078" lon="-13.67817">
        <ele>304.2</ele>
        <time>2021-07-03 20:05:28</time>
      </trkpt>
      <trkpt lat="29.02074" lon="-13.67814">
        <ele>304.2</ele>
        <time>2021-07-03 20:05:29</time>
      </trkpt>
      <trkpt lat="29.02071" lon="-13.67811">
        <ele>304.2</ele>
        <time>2021-07-03 20:05:30</time>
      </trkpt>
      <trkpt lat="29.02067" lon="-13.67809">
        <ele>304.4</ele>
        <time>2021-07-03 20:05:31</time>
      </trkpt>
      <trkpt lat="29.02064" lon="-13.67806">
        <ele>304.4</ele>
        <time>2021-07-03 20:05:32</time>
      </trkpt>
      <trkpt lat="29.02061" lon="-13.67804">
        <ele>304.6</ele>
        <time>2021-07-03 20:05:33</time>
      </trkpt>
      <trkpt lat="29.02059" lon="-13.67801">
        <ele>304.6</ele>
        <time>2021-07-03 20:05:34</time>
      </trkpt>
      <trkpt lat="29.02057" lon="-13.67797">
        <ele>304.6</ele>
        <time>2021-07-03 20:05:35</time>
      </trkpt>
      <trkpt lat="29.02056" lon="-13.67793">
        <ele>305</ele>
        <time>2021-07-03 20:05:36</time>
      </trkpt>
      <trkpt lat="29.02056" lon="-13.67789">
        <ele>305</ele>
        <time>2021-07-03 20:05:37</time>
      </trkpt>
      <trkpt lat="29.02055" lon="-13.67785">
        <ele>305.2</ele>
        <time>2021-07-03 20:05:38</time>
      </trkpt>
      <trkpt lat="29.02053" lon="-13.67781">
        <ele>305.2</ele>
        <time>2021-07-03 20:05:39</time>
      </trkpt>
      <trkpt lat="29.02051" lon="-13.67778">
        <ele>305.4</ele>
        <time>2021-07-03 20:05:40</time>
      </trkpt>
      <trkpt lat="29.0205" lon="-13.67775">
        <ele>305.4</ele>
        <time>2021-07-03 20:05:41</time>
      </trkpt>
      <trkpt lat="29.02048" lon="-13.67772">
        <ele>305.8</ele>
        <time>2021-07-03 20:05:42</time>
      </trkpt>
      <trkpt lat="29.02047" lon="-13.67768">
        <ele>305.8</ele>
        <time>2021-07-03 20:05:43</time>
      </trkpt>
      <trkpt lat="29.02046" lon="-13.67764">
        <ele>306</ele>
        <time>2021-07-03 20:05:44</time>
      </trkpt>
      <trkpt lat="29.02045" lon="-13.67761">
        <ele>306</ele>
        <time>2021-07-03 20:05:45</time>
      </trkpt>
      <trkpt lat="29.02044" lon="-13.67759">
        <ele>306.2</ele>
        <time>2021-07-03 20:05:46</time>
      </trkpt>
      <trkpt lat="29.02043" lon="-13.67755">
        <ele>306.2</ele>
        <time>2021-07-03 20:05:47</time>
      </trkpt>
      <trkpt lat="29.02043" lon="-13.67751">
        <ele>306.4</ele>
        <time>2021-07-03 20:05:48</time>
      </trkpt>
      <trkpt lat="29.02042" lon="-13.67748">
        <ele>306.4</ele>
        <time>2021-07-03 20:05:49</time>
      </trkpt>
      <trkpt lat="29.02041" lon="-13.67745">
        <ele>306.8</ele>
        <time>2021-07-03 20:05:50</time>
      </trkpt>
      <trkpt lat="29.02039" lon="-13.67741">
        <ele>306.8</ele>
        <time>2021-07-03 20:05:51</time>
      </trkpt>
      <trkpt lat="29.02038" lon="-13.67738">
        <ele>307</ele>
        <time>2021-07-03 20:05:52</time>
      </trkpt>
      <trkpt lat="29.02037" lon="-13.67735">
        <ele>307</ele>
        <time>2021-07-03 20:05:53</time>
      </trkpt>
      <trkpt lat="29.02036" lon="-13.67732">
        <ele>307</ele>
        <time>2021-07-03 20:05:54</time>
      </trkpt>
      <trkpt lat="29.02034" lon="-13.67729">
        <ele>307</ele>
        <time>2021-07-03 20:05:55</time>
      </trkpt>
      <trkpt lat="29.02033" lon="-13.67726">
        <ele>307.2</ele>
        <time>2021-07-03 20:05:56</time>
      </trkpt>
      <trkpt lat="29.02032" lon="-13.67722">
        <ele>307.2</ele>
        <time>2021-07-03 20:05:57</time>
      </trkpt>
      <trkpt lat="29.0203" lon="-13.67719">
        <ele>307.2</ele>
        <time>2021-07-03 20:05:58</time>
      </trkpt>
      <trkpt lat="29.02028" lon="-13.67716">
        <ele>307.6</ele>
        <time>2021-07-03 20:05:59</time>
      </trkpt>
      <trkpt lat="29.02027" lon="-13.67712">
        <ele>307.6</ele>
        <time>2021-07-03 20:06:00</time>
      </trkpt>
      <trkpt lat="29.02025" lon="-13.67709">
        <ele>307.8</ele>
        <time>2021-07-03 20:06:01</time>
      </trkpt>
      <trkpt lat="29.02023" lon="-13.67706">
        <ele>307.8</ele>
        <time>2021-07-03 20:06:02</time>
      </trkpt>
      <trkpt lat="29.02021" lon="-13.67702">
        <ele>307.8</ele>
        <time>2021-07-03 20:06:03</time>
      </trkpt>
      <trkpt lat="29.02019" lon="-13.67698">
        <ele>308.2</ele>
        <time>2021-07-03 20:06:04</time>
      </trkpt>
      <trkpt lat="29.02018" lon="-13.67695">
        <ele>308.2</ele>
        <time>2021-07-03 20:06:05</time>
      </trkpt>
      <trkpt lat="29.02016" lon="-13.67691">
        <ele>308.4</ele>
        <time>2021-07-03 20:06:06</time>
      </trkpt>
      <trkpt lat="29.02014" lon="-13.67688">
        <ele>308.4</ele>
        <time>2021-07-03 20:06:07</time>
      </trkpt>
      <trkpt lat="29.02012" lon="-13.67685">
        <ele>308.8</ele>
        <time>2021-07-03 20:06:08</time>
      </trkpt>
      <trkpt lat="29.0201" lon="-13.67682">
        <ele>309</ele>
        <time>2021-07-03 20:06:09</time>
      </trkpt>
      <trkpt lat="29.02008" lon="-13.67679">
        <ele>309</ele>
        <time>2021-07-03 20:06:10</time>
      </trkpt>
      <trkpt lat="29.02006" lon="-13.67676">
        <ele>309.4</ele>
        <time>2021-07-03 20:06:11</time>
      </trkpt>
      <trkpt lat="29.02004" lon="-13.67673">
        <ele>309.6</ele>
        <time>2021-07-03 20:06:12</time>
      </trkpt>
      <trkpt lat="29.02002" lon="-13.6767">
        <ele>309.6</ele>
        <time>2021-07-03 20:06:13</time>
      </trkpt>
      <trkpt lat="29.02" lon="-13.67667">
        <ele>309.8</ele>
        <time>2021-07-03 20:06:14</time>
      </trkpt>
      <trkpt lat="29.01998" lon="-13.67664">
        <ele>310</ele>
        <time>2021-07-03 20:06:15</time>
      </trkpt>
      <trkpt lat="29.01995" lon="-13.67661">
        <ele>310.2</ele>
        <time>2021-07-03 20:06:16</time>
      </trkpt>
      <trkpt lat="29.01993" lon="-13.67659">
        <ele>310.2</ele>
        <time>2021-07-03 20:06:17</time>
      </trkpt>
      <trkpt lat="29.0199" lon="-13.67657">
        <ele>310.6</ele>
        <time>2021-07-03 20:06:18</time>
      </trkpt>
      <trkpt lat="29.01987" lon="-13.67655">
        <ele>310.8</ele>
        <time>2021-07-03 20:06:19</time>
      </trkpt>
      <trkpt lat="29.01985" lon="-13.67653">
        <ele>310.8</ele>
        <time>2021-07-03 20:06:20</time>
      </trkpt>
      <trkpt lat="29.01982" lon="-13.67651">
        <ele>311.2</ele>
        <time>2021-07-03 20:06:21</time>
      </trkpt>
      <trkpt lat="29.01979" lon="-13.6765">
        <ele>311.2</ele>
        <time>2021-07-03 20:06:22</time>
      </trkpt>
      <trkpt lat="29.01976" lon="-13.67648">
        <ele>311.6</ele>
        <time>2021-07-03 20:06:23</time>
      </trkpt>
      <trkpt lat="29.01974" lon="-13.67646">
        <ele>311.6</ele>
        <time>2021-07-03 20:06:24</time>
      </trkpt>
      <trkpt lat="29.01972" lon="-13.67645">
        <ele>312</ele>
        <time>2021-07-03 20:06:25</time>
      </trkpt>
      <trkpt lat="29.0197" lon="-13.67643">
        <ele>312.2</ele>
        <time>2021-07-03 20:06:26</time>
      </trkpt>
      <trkpt lat="29.01968" lon="-13.67641">
        <ele>312.4</ele>
        <time>2021-07-03 20:06:27</time>
      </trkpt>
      <trkpt lat="29.01966" lon="-13.67639">
        <ele>312.8</ele>
        <time>2021-07-03 20:06:28</time>
      </trkpt>
      <trkpt lat="29.01964" lon="-13.67638">
        <ele>313</ele>
        <time>2021-07-03 20:06:29</time>
      </trkpt>
      <trkpt lat="29.01962" lon="-13.67636">
        <ele>313.4</ele>
        <time>2021-07-03 20:06:30</time>
      </trkpt>
      <trkpt lat="29.0196" lon="-13.67635">
        <ele>313.6</ele>
        <time>2021-07-03 20:06:31</time>
      </trkpt>
      <trkpt lat="29.01959" lon="-13.67633">
        <ele>313.8</ele>
        <time>2021-07-03 20:06:32</time>
      </trkpt>
      <trkpt lat="29.01957" lon="-13.67631">
        <ele>313.8</ele>
        <time>2021-07-03 20:06:33</time>
      </trkpt>
      <trkpt lat="29.01956" lon="-13.67629">
        <ele>314.2</ele>
        <time>2021-07-03 20:06:34</time>
      </trkpt>
      <trkpt lat="29.01954" lon="-13.67627">
        <ele>314.2</ele>
        <time>2021-07-03 20:06:35</time>
      </trkpt>
      <trkpt lat="29.01953" lon="-13.67624">
        <ele>314.6</ele>
        <time>2021-07-03 20:06:36</time>
      </trkpt>
      <trkpt lat="29.01952" lon="-13.67622">
        <ele>314.8</ele>
        <time>2021-07-03 20:06:37</time>
      </trkpt>
      <trkpt lat="29.0195" lon="-13.6762">
        <ele>315</ele>
        <time>2021-07-03 20:06:38</time>
      </trkpt>
      <trkpt lat="29.01948" lon="-13.67618">
        <ele>315.2</ele>
        <time>2021-07-03 20:06:39</time>
      </trkpt>
      <trkpt lat="29.01946" lon="-13.67616">
        <ele>315.2</ele>
        <time>2021-07-03 20:06:40</time>
      </trkpt>
      <trkpt lat="29.01944" lon="-13.67615">
        <ele>315.6</ele>
        <time>2021-07-03 20:06:41</time>
      </trkpt>
      <trkpt lat="29.01942" lon="-13.67613">
        <ele>315.6</ele>
        <time>2021-07-03 20:06:42</time>
      </trkpt>
      <trkpt lat="29.0194" lon="-13.67611">
        <ele>316</ele>
        <time>2021-07-03 20:06:43</time>
      </trkpt>
      <trkpt lat="29.01938" lon="-13.67609">
        <ele>316.2</ele>
        <time>2021-07-03 20:06:44</time>
      </trkpt>
      <trkpt lat="29.01936" lon="-13.67608">
        <ele>316.2</ele>
        <time>2021-07-03 20:06:45</time>
      </trkpt>
      <trkpt lat="29.01934" lon="-13.67606">
        <ele>316.4</ele>
        <time>2021-07-03 20:06:46</time>
      </trkpt>
      <trkpt lat="29.01931" lon="-13.67605">
        <ele>316.4</ele>
        <time>2021-07-03 20:06:47</time>
      </trkpt>
      <trkpt lat="29.0193" lon="-13.67604">
        <ele>316.8</ele>
        <time>2021-07-03 20:06:48</time>
      </trkpt>
      <trkpt lat="29.01928" lon="-13.67602">
        <ele>316.8</ele>
        <time>2021-07-03 20:06:49</time>
      </trkpt>
      <trkpt lat="29.01926" lon="-13.67601">
        <ele>317.2</ele>
        <time>2021-07-03 20:06:50</time>
      </trkpt>
      <trkpt lat="29.01924" lon="-13.67599">
        <ele>317.2</ele>
        <time>2021-07-03 20:06:54</time>
      </trkpt>
      <trkpt lat="29.01922" lon="-13.67598">
        <ele>317.2</ele>
        <time>2021-07-03 20:06:55</time>
      </trkpt>
      <trkpt lat="29.01919" lon="-13.67596">
        <ele>317.6</ele>
        <time>2021-07-03 20:06:56</time>
      </trkpt>
      <trkpt lat="29.01917" lon="-13.67594">
        <ele>317.6</ele>
        <time>2021-07-03 20:06:57</time>
      </trkpt>
      <trkpt lat="29.01915" lon="-13.67593">
        <ele>317.8</ele>
        <time>2021-07-03 20:06:58</time>
      </trkpt>
      <trkpt lat="29.01913" lon="-13.67591">
        <ele>318.2</ele>
        <time>2021-07-03 20:06:59</time>
      </trkpt>
      <trkpt lat="29.0191" lon="-13.67589">
        <ele>318.2</ele>
        <time>2021-07-03 20:07:36</time>
      </trkpt>
      <trkpt lat="29.01908" lon="-13.67587">
        <ele>318.6</ele>
        <time>2021-07-03 20:07:37</time>
      </trkpt>
      <trkpt lat="29.01905" lon="-13.67585">
        <ele>318.8</ele>
        <time>2021-07-03 20:07:38</time>
      </trkpt>
      <trkpt lat="29.01903" lon="-13.67583">
        <ele>318.8</ele>
        <time>2021-07-03 20:07:39</time>
      </trkpt>
      <trkpt lat="29.019" lon="-13.67581">
        <ele>319.2</ele>
        <time>2021-07-03 20:07:40</time>
      </trkpt>
      <trkpt lat="29.01898" lon="-13.67579">
        <ele>319.2</ele>
        <time>2021-07-03 20:07:41</time>
      </trkpt>
      <trkpt lat="29.01895" lon="-13.67578">
        <ele>319.2</ele>
        <time>2021-07-03 20:07:42</time>
      </trkpt>
      <trkpt lat="29.01893" lon="-13.67576">
        <ele>319.2</ele>
        <time>2021-07-03 20:07:43</time>
      </trkpt>
      <trkpt lat="29.0189" lon="-13.67574">
        <ele>319.2</ele>
        <time>2021-07-03 20:07:44</time>
      </trkpt>
      <trkpt lat="29.01888" lon="-13.67572">
        <ele>319.8</ele>
        <time>2021-07-03 20:08:01</time>
      </trkpt>
      <trkpt lat="29.01885" lon="-13.6757">
        <ele>320</ele>
        <time>2021-07-03 20:08:02</time>
      </trkpt>
      <trkpt lat="29.01883" lon="-13.67568">
        <ele>320</ele>
        <time>2021-07-03 20:08:03</time>
      </trkpt>
      <trkpt lat="29.01881" lon="-13.67567">
        <ele>320</ele>
        <time>2021-07-03 20:08:04</time>
      </trkpt>
      <trkpt lat="29.01878" lon="-13.67565">
        <ele>320</ele>
        <time>2021-07-03 20:08:05</time>
      </trkpt>
      <trkpt lat="29.01876" lon="-13.67563">
        <ele>320</ele>
        <time>2021-07-03 20:08:06</time>
      </trkpt>
      <trkpt lat="29.01874" lon="-13.67561">
        <ele>320</ele>
        <time>2021-07-03 20:08:07</time>
      </trkpt>
      <trkpt lat="29.01871" lon="-13.67559">
        <ele>320</ele>
        <time>2021-07-03 20:08:08</time>
      </trkpt>
      <trkpt lat="29.01869" lon="-13.67557">
        <ele>320</ele>
        <time>2021-07-03 20:08:09</time>
      </trkpt>
      <trkpt lat="29.01866" lon="-13.67555">
        <ele>320.4</ele>
        <time>2021-07-03 20:08:10</time>
      </trkpt>
      <trkpt lat="29.01864" lon="-13.67554">
        <ele>320.4</ele>
        <time>2021-07-03 20:08:11</time>
      </trkpt>
      <trkpt lat="29.01861" lon="-13.67552">
        <ele>320.6</ele>
        <time>2021-07-03 20:08:12</time>
      </trkpt>
      <trkpt lat="29.01859" lon="-13.6755">
        <ele>320.6</ele>
        <time>2021-07-03 20:08:13</time>
      </trkpt>
      <trkpt lat="29.01858" lon="-13.67548">
        <ele>320.6</ele>
        <time>2021-07-03 20:08:14</time>
      </trkpt>
      <trkpt lat="29.01856" lon="-13.67545">
        <ele>320.6</ele>
        <time>2021-07-03 20:08:15</time>
      </trkpt>
      <trkpt lat="29.01856" lon="-13.67539">
        <ele>320.6</ele>
        <time>2021-07-03 20:08:16</time>
      </trkpt>
      <trkpt lat="29.01854" lon="-13.67533">
        <ele>320.6</ele>
        <time>2021-07-03 20:08:17</time>
      </trkpt>
      <trkpt lat="29.01852" lon="-13.67528">
        <ele>320.4</ele>
        <time>2021-07-03 20:08:18</time>
      </trkpt>
      <trkpt lat="29.01849" lon="-13.67522">
        <ele>320.4</ele>
        <time>2021-07-03 20:08:19</time>
      </trkpt>
      <trkpt lat="29.01846" lon="-13.67517">
        <ele>320</ele>
        <time>2021-07-03 20:08:20</time>
      </trkpt>
      <trkpt lat="29.01843" lon="-13.67512">
        <ele>320</ele>
        <time>2021-07-03 20:08:21</time>
      </trkpt>
      <trkpt lat="29.0184" lon="-13.67507">
        <ele>319.8</ele>
        <time>2021-07-03 20:08:22</time>
      </trkpt>
      <trkpt lat="29.01837" lon="-13.67503">
        <ele>319.8</ele>
        <time>2021-07-03 20:08:23</time>
      </trkpt>
      <trkpt lat="29.01834" lon="-13.67497">
        <ele>319.4</ele>
        <time>2021-07-03 20:08:24</time>
      </trkpt>
      <trkpt lat="29.01831" lon="-13.67492">
        <ele>319.2</ele>
        <time>2021-07-03 20:08:25</time>
      </trkpt>
      <trkpt lat="29.01829" lon="-13.67488">
        <ele>319.2</ele>
        <time>2021-07-03 20:08:26</time>
      </trkpt>
      <trkpt lat="29.01827" lon="-13.67483">
        <ele>319.2</ele>
        <time>2021-07-03 20:08:27</time>
      </trkpt>
      <trkpt lat="29.01826" lon="-13.67479">
        <ele>319</ele>
        <time>2021-07-03 20:08:28</time>
      </trkpt>
      <trkpt lat="29.01825" lon="-13.67474">
        <ele>319</ele>
        <time>2021-07-03 20:08:29</time>
      </trkpt>
      <trkpt lat="29.01824" lon="-13.67471">
        <ele>319</ele>
        <time>2021-07-03 20:08:30</time>
      </trkpt>
      <trkpt lat="29.01822" lon="-13.67468">
        <ele>319.2</ele>
        <time>2021-07-03 20:08:31</time>
      </trkpt>
      <trkpt lat="29.0182" lon="-13.67465">
        <ele>319.2</ele>
        <time>2021-07-03 20:08:32</time>
      </trkpt>
      <trkpt lat="29.01818" lon="-13.67463">
        <ele>319.4</ele>
        <time>2021-07-03 20:08:33</time>
      </trkpt>
      <trkpt lat="29.01817" lon="-13.6746">
        <ele>319.4</ele>
        <time>2021-07-03 20:08:34</time>
      </trkpt>
      <trkpt lat="29.01815" lon="-13.67459">
        <ele>319.8</ele>
        <time>2021-07-03 20:08:35</time>
      </trkpt>
      <trkpt lat="29.01814" lon="-13.67457">
        <ele>319.8</ele>
        <time>2021-07-03 20:08:36</time>
      </trkpt>
      <trkpt lat="29.01813" lon="-13.67454">
        <ele>320</ele>
        <time>2021-07-03 20:08:37</time>
      </trkpt>
      <trkpt lat="29.01811" lon="-13.6745">
        <ele>320</ele>
        <time>2021-07-03 20:08:38</time>
      </trkpt>
      <trkpt lat="29.0181" lon="-13.67447">
        <ele>320.4</ele>
        <time>2021-07-03 20:08:39</time>
      </trkpt>
      <trkpt lat="29.01809" lon="-13.67444">
        <ele>320.4</ele>
        <time>2021-07-03 20:08:40</time>
      </trkpt>
      <trkpt lat="29.01807" lon="-13.6744">
        <ele>320.4</ele>
        <time>2021-07-03 20:08:41</time>
      </trkpt>
      <trkpt lat="29.01806" lon="-13.67436">
        <ele>320.6</ele>
        <time>2021-07-03 20:08:42</time>
      </trkpt>
      <trkpt lat="29.01804" lon="-13.67432">
        <ele>320.6</ele>
        <time>2021-07-03 20:08:43</time>
      </trkpt>
      <trkpt lat="29.01803" lon="-13.67428">
        <ele>320.6</ele>
        <time>2021-07-03 20:08:44</time>
      </trkpt>
      <trkpt lat="29.01803" lon="-13.67423">
        <ele>320.6</ele>
        <time>2021-07-03 20:08:45</time>
      </trkpt>
      <trkpt lat="29.01802" lon="-13.67419">
        <ele>320.6</ele>
        <time>2021-07-03 20:08:46</time>
      </trkpt>
      <trkpt lat="29.01802" lon="-13.67415">
        <ele>320.6</ele>
        <time>2021-07-03 20:08:47</time>
      </trkpt>
      <trkpt lat="29.01802" lon="-13.6741">
        <ele>320.6</ele>
        <time>2021-07-03 20:08:48</time>
      </trkpt>
      <trkpt lat="29.01802" lon="-13.67406">
        <ele>320.6</ele>
        <time>2021-07-03 20:08:49</time>
      </trkpt>
      <trkpt lat="29.01801" lon="-13.67403">
        <ele>320.6</ele>
        <time>2021-07-03 20:08:50</time>
      </trkpt>
      <trkpt lat="29.01801" lon="-13.674">
        <ele>320.6</ele>
        <time>2021-07-03 20:08:51</time>
      </trkpt>
      <trkpt lat="29.01801" lon="-13.67396">
        <ele>320.6</ele>
        <time>2021-07-03 20:08:52</time>
      </trkpt>
      <trkpt lat="29.01801" lon="-13.67393">
        <ele>320.6</ele>
        <time>2021-07-03 20:08:53</time>
      </trkpt>
      <trkpt lat="29.01801" lon="-13.67389">
        <ele>320.6</ele>
        <time>2021-07-03 20:08:54</time>
      </trkpt>
      <trkpt lat="29.01802" lon="-13.67386">
        <ele>320.6</ele>
        <time>2021-07-03 20:08:55</time>
      </trkpt>
      <trkpt lat="29.01802" lon="-13.67382">
        <ele>320.8</ele>
        <time>2021-07-03 20:08:56</time>
      </trkpt>
      <trkpt lat="29.01802" lon="-13.67378">
        <ele>320.8</ele>
        <time>2021-07-03 20:08:57</time>
      </trkpt>
      <trkpt lat="29.01802" lon="-13.67373">
        <ele>320.8</ele>
        <time>2021-07-03 20:08:58</time>
      </trkpt>
      <trkpt lat="29.01802" lon="-13.67369">
        <ele>320.8</ele>
        <time>2021-07-03 20:08:59</time>
      </trkpt>
      <trkpt lat="29.01802" lon="-13.67365">
        <ele>320.8</ele>
        <time>2021-07-03 20:09:00</time>
      </trkpt>
      <trkpt lat="29.01801" lon="-13.67361">
        <ele>321</ele>
        <time>2021-07-03 20:09:01</time>
      </trkpt>
      <trkpt lat="29.01801" lon="-13.67357">
        <ele>321</ele>
        <time>2021-07-03 20:09:02</time>
      </trkpt>
      <trkpt lat="29.01799" lon="-13.67353">
        <ele>321</ele>
        <time>2021-07-03 20:09:03</time>
      </trkpt>
      <trkpt lat="29.01798" lon="-13.6735">
        <ele>321.4</ele>
        <time>2021-07-03 20:09:04</time>
      </trkpt>
      <trkpt lat="29.01796" lon="-13.67347">
        <ele>321.4</ele>
        <time>2021-07-03 20:09:05</time>
      </trkpt>
      <trkpt lat="29.01794" lon="-13.67344">
        <ele>321.4</ele>
        <time>2021-07-03 20:09:06</time>
      </trkpt>
      <trkpt lat="29.01792" lon="-13.6734">
        <ele>321.4</ele>
        <time>2021-07-03 20:09:07</time>
      </trkpt>
      <trkpt lat="29.0179" lon="-13.67337">
        <ele>321.4</ele>
        <time>2021-07-03 20:09:08</time>
      </trkpt>
      <trkpt lat="29.01787" lon="-13.67334">
        <ele>321.4</ele>
        <time>2021-07-03 20:09:09</time>
      </trkpt>
      <trkpt lat="29.01784" lon="-13.67332">
        <ele>321</ele>
        <time>2021-07-03 20:09:10</time>
      </trkpt>
      <trkpt lat="29.01781" lon="-13.6733">
        <ele>321</ele>
        <time>2021-07-03 20:09:11</time>
      </trkpt>
      <trkpt lat="29.01778" lon="-13.67328">
        <ele>320.8</ele>
        <time>2021-07-03 20:09:12</time>
      </trkpt>
      <trkpt lat="29.01775" lon="-13.67327">
        <ele>320.8</ele>
        <time>2021-07-03 20:09:13</time>
      </trkpt>
      <trkpt lat="29.01771" lon="-13.67325">
        <ele>320.6</ele>
        <time>2021-07-03 20:09:14</time>
      </trkpt>
      <trkpt lat="29.01767" lon="-13.67325">
        <ele>320.4</ele>
        <time>2021-07-03 20:09:15</time>
      </trkpt>
      <trkpt lat="29.01763" lon="-13.67323">
        <ele>320.4</ele>
        <time>2021-07-03 20:09:16</time>
      </trkpt>
      <trkpt lat="29.01758" lon="-13.6732">
        <ele>319.8</ele>
        <time>2021-07-03 20:09:17</time>
      </trkpt>
      <trkpt lat="29.01754" lon="-13.67317">
        <ele>319.6</ele>
        <time>2021-07-03 20:09:18</time>
      </trkpt>
      <trkpt lat="29.01751" lon="-13.67314">
        <ele>319.6</ele>
        <time>2021-07-03 20:09:19</time>
      </trkpt>
      <trkpt lat="29.01748" lon="-13.67311">
        <ele>319.2</ele>
        <time>2021-07-03 20:09:20</time>
      </trkpt>
      <trkpt lat="29.01745" lon="-13.67309">
        <ele>319</ele>
        <time>2021-07-03 20:09:21</time>
      </trkpt>
      <trkpt lat="29.01744" lon="-13.67307">
        <ele>319</ele>
        <time>2021-07-03 20:09:22</time>
      </trkpt>
      <trkpt lat="29.01743" lon="-13.67306">
        <ele>319</ele>
        <time>2021-07-03 20:09:23</time>
      </trkpt>
      <trkpt lat="29.01743" lon="-13.67307">
        <ele>318.8</ele>
        <time>2021-07-03 20:09:24</time>
      </trkpt>
      <trkpt lat="29.01743" lon="-13.67307">
        <ele>318.8</ele>
        <time>2021-07-03 20:09:25</time>
      </trkpt>
      <trkpt lat="29.01741" lon="-13.67307">
        <ele>318</ele>
        <time>2021-07-03 20:09:26</time>
      </trkpt>
      <trkpt lat="29.0174" lon="-13.67307">
        <ele>318</ele>
        <time>2021-07-03 20:09:27</time>
      </trkpt>
      <trkpt lat="29.01739" lon="-13.67307">
        <ele>318</ele>
        <time>2021-07-03 20:09:28</time>
      </trkpt>
      <trkpt lat="29.01738" lon="-13.67308">
        <ele>318.2</ele>
        <time>2021-07-03 20:09:29</time>
      </trkpt>
      <trkpt lat="29.01737" lon="-13.67308">
        <ele>318.2</ele>
        <time>2021-07-03 20:09:30</time>
      </trkpt>
      <trkpt lat="29.01736" lon="-13.67309">
        <ele>318.2</ele>
        <time>2021-07-03 20:09:31</time>
      </trkpt>
      <trkpt lat="29.01735" lon="-13.67309">
        <ele>318.2</ele>
        <time>2021-07-03 20:09:32</time>
      </trkpt>
      <trkpt lat="29.01734" lon="-13.67309">
        <ele>318.4</ele>
        <time>2021-07-03 20:09:33</time>
      </trkpt>
      <trkpt lat="29.01733" lon="-13.67309">
        <ele>318.4</ele>
        <time>2021-07-03 20:09:34</time>
      </trkpt>
      <trkpt lat="29.01731" lon="-13.67309">
        <ele>318.8</ele>
        <time>2021-07-03 20:09:35</time>
      </trkpt>
      <trkpt lat="29.0173" lon="-13.67309">
        <ele>318.8</ele>
        <time>2021-07-03 20:09:36</time>
      </trkpt>
      <trkpt lat="29.01729" lon="-13.6731">
        <ele>319</ele>
        <time>2021-07-03 20:09:37</time>
      </trkpt>
      <trkpt lat="29.01728" lon="-13.6731">
        <ele>319</ele>
        <time>2021-07-03 20:09:38</time>
      </trkpt>
      <trkpt lat="29.01727" lon="-13.67311">
        <ele>319.2</ele>
        <time>2021-07-03 20:09:39</time>
      </trkpt>
      <trkpt lat="29.01726" lon="-13.67311">
        <ele>319.2</ele>
        <time>2021-07-03 20:09:40</time>
      </trkpt>
      <trkpt lat="29.01725" lon="-13.67312">
        <ele>319.4</ele>
        <time>2021-07-03 20:09:41</time>
      </trkpt>
      <trkpt lat="29.01724" lon="-13.67313">
        <ele>319.4</ele>
        <time>2021-07-03 20:09:42</time>
      </trkpt>
      <trkpt lat="29.01724" lon="-13.67313">
        <ele>319.8</ele>
        <time>2021-07-03 20:09:43</time>
      </trkpt>
      <trkpt lat="29.01723" lon="-13.67314">
        <ele>319.8</ele>
        <time>2021-07-03 20:09:44</time>
      </trkpt>
      <trkpt lat="29.01722" lon="-13.67315">
        <ele>320</ele>
        <time>2021-07-03 20:09:45</time>
      </trkpt>
      <trkpt lat="29.01721" lon="-13.67316">
        <ele>320</ele>
        <time>2021-07-03 20:09:46</time>
      </trkpt>
      <trkpt lat="29.0172" lon="-13.67317">
        <ele>320.4</ele>
        <time>2021-07-03 20:09:47</time>
      </trkpt>
      <trkpt lat="29.0172" lon="-13.67317">
        <ele>320.4</ele>
        <time>2021-07-03 20:09:48</time>
      </trkpt>
      <trkpt lat="29.01719" lon="-13.67318">
        <ele>320.8</ele>
        <time>2021-07-03 20:09:49</time>
      </trkpt>
      <trkpt lat="29.01718" lon="-13.67318">
        <ele>321</ele>
        <time>2021-07-03 20:09:50</time>
      </trkpt>
      <trkpt lat="29.01717" lon="-13.67319">
        <ele>321.4</ele>
        <time>2021-07-03 20:09:51</time>
      </trkpt>
      <trkpt lat="29.01716" lon="-13.67319">
        <ele>321.6</ele>
        <time>2021-07-03 20:09:52</time>
      </trkpt>
      <trkpt lat="29.01716" lon="-13.6732">
        <ele>321.8</ele>
        <time>2021-07-03 20:09:53</time>
      </trkpt>
      <trkpt lat="29.01715" lon="-13.6732">
        <ele>322</ele>
        <time>2021-07-03 20:09:54</time>
      </trkpt>
      <trkpt lat="29.01714" lon="-13.6732">
        <ele>322.4</ele>
        <time>2021-07-03 20:09:55</time>
      </trkpt>
      <trkpt lat="29.01714" lon="-13.67321">
        <ele>322.6</ele>
        <time>2021-07-03 20:09:56</time>
      </trkpt>
      <trkpt lat="29.01713" lon="-13.67321">
        <ele>322.6</ele>
        <time>2021-07-03 20:09:57</time>
      </trkpt>
      <trkpt lat="29.01713" lon="-13.67321">
        <ele>322.8</ele>
        <time>2021-07-03 20:09:58</time>
      </trkpt>
      <trkpt lat="29.01713" lon="-13.67321">
        <ele>322.8</ele>
        <time>2021-07-03 20:09:59</time>
      </trkpt>
      <trkpt lat="29.01713" lon="-13.67321">
        <ele>323.2</ele>
        <time>2021-07-03 20:10:00</time>
      </trkpt>
      <trkpt lat="29.01711" lon="-13.67322">
        <ele>323.2</ele>
        <time>2021-07-03 20:10:01</time>
      </trkpt>
      <trkpt lat="29.01709" lon="-13.67322">
        <ele>323.2</ele>
        <time>2021-07-03 20:10:02</time>
      </trkpt>
      <trkpt lat="29.01708" lon="-13.67322">
        <ele>323.2</ele>
        <time>2021-07-03 20:10:03</time>
      </trkpt>
      <trkpt lat="29.01706" lon="-13.67322">
        <ele>323.2</ele>
        <time>2021-07-03 20:10:04</time>
      </trkpt>
      <trkpt lat="29.01705" lon="-13.67322">
        <ele>322.8</ele>
        <time>2021-07-03 20:10:05</time>
      </trkpt>
      <trkpt lat="29.01703" lon="-13.67322">
        <ele>322.8</ele>
        <time>2021-07-03 20:10:06</time>
      </trkpt>
      <trkpt lat="29.01701" lon="-13.67321">
        <ele>322.4</ele>
        <time>2021-07-03 20:10:07</time>
      </trkpt>
      <trkpt lat="29.017" lon="-13.67321">
        <ele>322.2</ele>
        <time>2021-07-03 20:10:08</time>
      </trkpt>
      <trkpt lat="29.01697" lon="-13.67321">
        <ele>321.8</ele>
        <time>2021-07-03 20:10:09</time>
      </trkpt>
      <trkpt lat="29.01694" lon="-13.6732">
        <ele>321.6</ele>
        <time>2021-07-03 20:10:10</time>
      </trkpt>
      <trkpt lat="29.01692" lon="-13.67319">
        <ele>321.4</ele>
        <time>2021-07-03 20:10:11</time>
      </trkpt>
      <trkpt lat="29.0169" lon="-13.67317">
        <ele>321</ele>
        <time>2021-07-03 20:10:12</time>
      </trkpt>
      <trkpt lat="29.01688" lon="-13.67316">
        <ele>321</ele>
        <time>2021-07-03 20:10:13</time>
      </trkpt>
      <trkpt lat="29.01686" lon="-13.67314">
        <ele>320.8</ele>
        <time>2021-07-03 20:10:14</time>
      </trkpt>
      <trkpt lat="29.01683" lon="-13.67313">
        <ele>320.8</ele>
        <time>2021-07-03 20:10:15</time>
      </trkpt>
      <trkpt lat="29.01681" lon="-13.67311">
        <ele>320.8</ele>
        <time>2021-07-03 20:10:16</time>
      </trkpt>
      <trkpt lat="29.01678" lon="-13.67309">
        <ele>320.8</ele>
        <time>2021-07-03 20:10:17</time>
      </trkpt>
      <trkpt lat="29.01676" lon="-13.67307">
        <ele>320.8</ele>
        <time>2021-07-03 20:10:18</time>
      </trkpt>
      <trkpt lat="29.01674" lon="-13.67305">
        <ele>320.8</ele>
        <time>2021-07-03 20:10:19</time>
      </trkpt>
      <trkpt lat="29.01672" lon="-13.67303">
        <ele>320.8</ele>
        <time>2021-07-03 20:10:20</time>
      </trkpt>
      <trkpt lat="29.01671" lon="-13.67302">
        <ele>320.8</ele>
        <time>2021-07-03 20:10:21</time>
      </trkpt>
      <trkpt lat="29.01669" lon="-13.67301">
        <ele>320.8</ele>
        <time>2021-07-03 20:10:22</time>
      </trkpt>
      <trkpt lat="29.01666" lon="-13.673">
        <ele>320.8</ele>
        <time>2021-07-03 20:10:23</time>
      </trkpt>
      <trkpt lat="29.01663" lon="-13.67299">
        <ele>320.8</ele>
        <time>2021-07-03 20:10:24</time>
      </trkpt>
      <trkpt lat="29.01661" lon="-13.67299">
        <ele>320.8</ele>
        <time>2021-07-03 20:10:25</time>
      </trkpt>
      <trkpt lat="29.01658" lon="-13.67298">
        <ele>320.8</ele>
        <time>2021-07-03 20:10:26</time>
      </trkpt>
      <trkpt lat="29.01655" lon="-13.67298">
        <ele>320.8</ele>
        <time>2021-07-03 20:10:27</time>
      </trkpt>
      <trkpt lat="29.01653" lon="-13.67299">
        <ele>320.8</ele>
        <time>2021-07-03 20:10:28</time>
      </trkpt>
      <trkpt lat="29.01651" lon="-13.673">
        <ele>320.8</ele>
        <time>2021-07-03 20:10:29</time>
      </trkpt>
      <trkpt lat="29.01648" lon="-13.67302">
        <ele>320.8</ele>
        <time>2021-07-03 20:10:30</time>
      </trkpt>
      <trkpt lat="29.01646" lon="-13.67304">
        <ele>321</ele>
        <time>2021-07-03 20:10:31</time>
      </trkpt>
      <trkpt lat="29.01645" lon="-13.67306">
        <ele>321</ele>
        <time>2021-07-03 20:10:32</time>
      </trkpt>
      <trkpt lat="29.01643" lon="-13.67307">
        <ele>321</ele>
        <time>2021-07-03 20:10:33</time>
      </trkpt>
      <trkpt lat="29.01643" lon="-13.67309">
        <ele>321.2</ele>
        <time>2021-07-03 20:10:34</time>
      </trkpt>
      <trkpt lat="29.01642" lon="-13.67311">
        <ele>321.2</ele>
        <time>2021-07-03 20:10:35</time>
      </trkpt>
      <trkpt lat="29.01642" lon="-13.67312">
        <ele>321.2</ele>
        <time>2021-07-03 20:10:36</time>
      </trkpt>
      <trkpt lat="29.01633" lon="-13.67323">
        <ele>321.4</ele>
        <time>2021-07-03 20:10:37</time>
      </trkpt>
      <trkpt lat="29.0163" lon="-13.67325">
        <ele>321.4</ele>
        <time>2021-07-03 20:10:38</time>
      </trkpt>
      <trkpt lat="29.01627" lon="-13.67327">
        <ele>321.4</ele>
        <time>2021-07-03 20:10:39</time>
      </trkpt>
      <trkpt lat="29.01625" lon="-13.67329">
        <ele>321.4</ele>
        <time>2021-07-03 20:10:40</time>
      </trkpt>
      <trkpt lat="29.01623" lon="-13.67331">
        <ele>321.4</ele>
        <time>2021-07-03 20:10:41</time>
      </trkpt>
      <trkpt lat="29.01621" lon="-13.67332">
        <ele>321.4</ele>
        <time>2021-07-03 20:10:42</time>
      </trkpt>
      <trkpt lat="29.0162" lon="-13.67334">
        <ele>321.4</ele>
        <time>2021-07-03 20:10:43</time>
      </trkpt>
      <trkpt lat="29.01618" lon="-13.67336">
        <ele>321.4</ele>
        <time>2021-07-03 20:10:44</time>
      </trkpt>
      <trkpt lat="29.01617" lon="-13.67337">
        <ele>321.4</ele>
        <time>2021-07-03 20:10:45</time>
      </trkpt>
      <trkpt lat="29.01615" lon="-13.67339">
        <ele>321.4</ele>
        <time>2021-07-03 20:10:46</time>
      </trkpt>
      <trkpt lat="29.01613" lon="-13.67341">
        <ele>321.2</ele>
        <time>2021-07-03 20:10:47</time>
      </trkpt>
      <trkpt lat="29.01611" lon="-13.67343">
        <ele>321.2</ele>
        <time>2021-07-03 20:10:48</time>
      </trkpt>
      <trkpt lat="29.01609" lon="-13.67345">
        <ele>321.2</ele>
        <time>2021-07-03 20:10:49</time>
      </trkpt>
      <trkpt lat="29.01607" lon="-13.67347">
        <ele>321</ele>
        <time>2021-07-03 20:10:50</time>
      </trkpt>
      <trkpt lat="29.01605" lon="-13.67349">
        <ele>320.6</ele>
        <time>2021-07-03 20:10:51</time>
      </trkpt>
      <trkpt lat="29.01603" lon="-13.67351">
        <ele>320.6</ele>
        <time>2021-07-03 20:10:52</time>
      </trkpt>
      <trkpt lat="29.01601" lon="-13.67353">
        <ele>320.2</ele>
        <time>2021-07-03 20:10:53</time>
      </trkpt>
      <trkpt lat="29.01598" lon="-13.67355">
        <ele>320.2</ele>
        <time>2021-07-03 20:10:54</time>
      </trkpt>
      <trkpt lat="29.01596" lon="-13.67356">
        <ele>320</ele>
        <time>2021-07-03 20:10:55</time>
      </trkpt>
      <trkpt lat="29.01587" lon="-13.67358">
        <ele>320</ele>
        <time>2021-07-03 20:10:56</time>
      </trkpt>
      <trkpt lat="29.01584" lon="-13.67359">
        <ele>320</ele>
        <time>2021-07-03 20:10:57</time>
      </trkpt>
      <trkpt lat="29.01582" lon="-13.67359">
        <ele>320</ele>
        <time>2021-07-03 20:10:58</time>
      </trkpt>
      <trkpt lat="29.01579" lon="-13.67361">
        <ele>320</ele>
        <time>2021-07-03 20:10:59</time>
      </trkpt>
      <trkpt lat="29.01578" lon="-13.67363">
        <ele>320</ele>
        <time>2021-07-03 20:11:00</time>
      </trkpt>
      <trkpt lat="29.01576" lon="-13.67366">
        <ele>320</ele>
        <time>2021-07-03 20:11:01</time>
      </trkpt>
      <trkpt lat="29.01575" lon="-13.67368">
        <ele>320</ele>
        <time>2021-07-03 20:11:02</time>
      </trkpt>
      <trkpt lat="29.01574" lon="-13.67371">
        <ele>320</ele>
        <time>2021-07-03 20:11:03</time>
      </trkpt>
      <trkpt lat="29.01573" lon="-13.67373">
        <ele>320</ele>
        <time>2021-07-03 20:11:04</time>
      </trkpt>
      <trkpt lat="29.01571" lon="-13.67374">
        <ele>320</ele>
        <time>2021-07-03 20:11:05</time>
      </trkpt>
      <trkpt lat="29.01569" lon="-13.67374">
        <ele>319.6</ele>
        <time>2021-07-03 20:11:06</time>
      </trkpt>
      <trkpt lat="29.01567" lon="-13.67375">
        <ele>319.6</ele>
        <time>2021-07-03 20:11:07</time>
      </trkpt>
      <trkpt lat="29.01565" lon="-13.67376">
        <ele>319.6</ele>
        <time>2021-07-03 20:11:08</time>
      </trkpt>
      <trkpt lat="29.01564" lon="-13.67376">
        <ele>319.6</ele>
        <time>2021-07-03 20:11:09</time>
      </trkpt>
      <trkpt lat="29.01563" lon="-13.67377">
        <ele>319.6</ele>
        <time>2021-07-03 20:11:10</time>
      </trkpt>
      <trkpt lat="29.01561" lon="-13.67379">
        <ele>319.6</ele>
        <time>2021-07-03 20:11:11</time>
      </trkpt>
      <trkpt lat="29.0156" lon="-13.67382">
        <ele>319.6</ele>
        <time>2021-07-03 20:11:12</time>
      </trkpt>
      <trkpt lat="29.01559" lon="-13.67384">
        <ele>319.6</ele>
        <time>2021-07-03 20:11:13</time>
      </trkpt>
      <trkpt lat="29.01558" lon="-13.67386">
        <ele>319.6</ele>
        <time>2021-07-03 20:11:14</time>
      </trkpt>
      <trkpt lat="29.01557" lon="-13.67389">
        <ele>319.6</ele>
        <time>2021-07-03 20:11:15</time>
      </trkpt>
      <trkpt lat="29.01556" lon="-13.6739">
        <ele>319.6</ele>
        <time>2021-07-03 20:11:16</time>
      </trkpt>
      <trkpt lat="29.01555" lon="-13.67391">
        <ele>319.6</ele>
        <time>2021-07-03 20:11:17</time>
      </trkpt>
      <trkpt lat="29.01553" lon="-13.67392">
        <ele>319.6</ele>
        <time>2021-07-03 20:11:18</time>
      </trkpt>
      <trkpt lat="29.01551" lon="-13.67393">
        <ele>319.6</ele>
        <time>2021-07-03 20:11:19</time>
      </trkpt>
      <trkpt lat="29.01548" lon="-13.67394">
        <ele>319.6</ele>
        <time>2021-07-03 20:11:20</time>
      </trkpt>
      <trkpt lat="29.01546" lon="-13.67397">
        <ele>319.6</ele>
        <time>2021-07-03 20:11:21</time>
      </trkpt>
      <trkpt lat="29.01545" lon="-13.67399">
        <ele>319.6</ele>
        <time>2021-07-03 20:11:22</time>
      </trkpt>
      <trkpt lat="29.01543" lon="-13.67401">
        <ele>319.6</ele>
        <time>2021-07-03 20:11:23</time>
      </trkpt>
      <trkpt lat="29.01541" lon="-13.67403">
        <ele>319.6</ele>
        <time>2021-07-03 20:11:24</time>
      </trkpt>
      <trkpt lat="29.01539" lon="-13.67404">
        <ele>319.8</ele>
        <time>2021-07-03 20:11:25</time>
      </trkpt>
      <trkpt lat="29.01537" lon="-13.67404">
        <ele>319.8</ele>
        <time>2021-07-03 20:11:26</time>
      </trkpt>
      <trkpt lat="29.01535" lon="-13.67403">
        <ele>319.8</ele>
        <time>2021-07-03 20:11:27</time>
      </trkpt>
      <trkpt lat="29.01532" lon="-13.67403">
        <ele>319.8</ele>
        <time>2021-07-03 20:11:28</time>
      </trkpt>
      <trkpt lat="29.0153" lon="-13.67404">
        <ele>320</ele>
        <time>2021-07-03 20:11:29</time>
      </trkpt>
      <trkpt lat="29.01528" lon="-13.67405">
        <ele>320</ele>
        <time>2021-07-03 20:11:30</time>
      </trkpt>
      <trkpt lat="29.01526" lon="-13.67407">
        <ele>320</ele>
        <time>2021-07-03 20:11:31</time>
      </trkpt>
      <trkpt lat="29.01525" lon="-13.67408">
        <ele>320</ele>
        <time>2021-07-03 20:11:32</time>
      </trkpt>
      <trkpt lat="29.01523" lon="-13.6741">
        <ele>320.4</ele>
        <time>2021-07-03 20:11:33</time>
      </trkpt>
      <trkpt lat="29.01522" lon="-13.67411">
        <ele>320.4</ele>
        <time>2021-07-03 20:11:34</time>
      </trkpt>
      <trkpt lat="29.01519" lon="-13.67412">
        <ele>320.4</ele>
        <time>2021-07-03 20:11:35</time>
      </trkpt>
      <trkpt lat="29.01517" lon="-13.67412">
        <ele>320.4</ele>
        <time>2021-07-03 20:11:36</time>
      </trkpt>
      <trkpt lat="29.01514" lon="-13.67411">
        <ele>320.4</ele>
        <time>2021-07-03 20:11:37</time>
      </trkpt>
      <trkpt lat="29.01512" lon="-13.67409">
        <ele>320.4</ele>
        <time>2021-07-03 20:11:38</time>
      </trkpt>
      <trkpt lat="29.0151" lon="-13.67407">
        <ele>320.6</ele>
        <time>2021-07-03 20:11:39</time>
      </trkpt>
      <trkpt lat="29.01508" lon="-13.67406">
        <ele>320.6</ele>
        <time>2021-07-03 20:11:51</time>
      </trkpt>
      <trkpt lat="29.01506" lon="-13.67404">
        <ele>320.6</ele>
        <time>2021-07-03 20:11:52</time>
      </trkpt>
      <trkpt lat="29.01503" lon="-13.67403">
        <ele>320.6</ele>
        <time>2021-07-03 20:11:53</time>
      </trkpt>
      <trkpt lat="29.015" lon="-13.67402">
        <ele>320.6</ele>
        <time>2021-07-03 20:11:54</time>
      </trkpt>
      <trkpt lat="29.01496" lon="-13.67401">
        <ele>320.6</ele>
        <time>2021-07-03 20:11:55</time>
      </trkpt>
      <trkpt lat="29.01493" lon="-13.67401">
        <ele>320.6</ele>
        <time>2021-07-03 20:11:56</time>
      </trkpt>
      <trkpt lat="29.0149" lon="-13.674">
        <ele>320.6</ele>
        <time>2021-07-03 20:11:57</time>
      </trkpt>
      <trkpt lat="29.01487" lon="-13.674">
        <ele>320.6</ele>
        <time>2021-07-03 20:11:58</time>
      </trkpt>
      <trkpt lat="29.01485" lon="-13.674">
        <ele>320.6</ele>
        <time>2021-07-03 20:11:59</time>
      </trkpt>
      <trkpt lat="29.01483" lon="-13.674">
        <ele>320.8</ele>
        <time>2021-07-03 20:12:00</time>
      </trkpt>
      <trkpt lat="29.0148" lon="-13.67401">
        <ele>320.8</ele>
        <time>2021-07-03 20:12:01</time>
      </trkpt>
      <trkpt lat="29.01478" lon="-13.67402">
        <ele>320.8</ele>
        <time>2021-07-03 20:12:02</time>
      </trkpt>
      <trkpt lat="29.01475" lon="-13.67403">
        <ele>320.8</ele>
        <time>2021-07-03 20:12:03</time>
      </trkpt>
      <trkpt lat="29.01471" lon="-13.67405">
        <ele>320.8</ele>
        <time>2021-07-03 20:12:04</time>
      </trkpt>
      <trkpt lat="29.01468" lon="-13.67408">
        <ele>320.8</ele>
        <time>2021-07-03 20:12:05</time>
      </trkpt>
      <trkpt lat="29.01465" lon="-13.6741">
        <ele>320.8</ele>
        <time>2021-07-03 20:12:06</time>
      </trkpt>
      <trkpt lat="29.01463" lon="-13.67413">
        <ele>320.8</ele>
        <time>2021-07-03 20:12:07</time>
      </trkpt>
      <trkpt lat="29.01461" lon="-13.67415">
        <ele>320.8</ele>
        <time>2021-07-03 20:12:08</time>
      </trkpt>
      <trkpt lat="29.0146" lon="-13.67418">
        <ele>320.8</ele>
        <time>2021-07-03 20:12:09</time>
      </trkpt>
      <trkpt lat="29.01458" lon="-13.67421">
        <ele>320.8</ele>
        <time>2021-07-03 20:12:10</time>
      </trkpt>
      <trkpt lat="29.01457" lon="-13.67424">
        <ele>320.8</ele>
        <time>2021-07-03 20:12:11</time>
      </trkpt>
      <trkpt lat="29.01455" lon="-13.67427">
        <ele>320.8</ele>
        <time>2021-07-03 20:12:12</time>
      </trkpt>
      <trkpt lat="29.01453" lon="-13.67429">
        <ele>321</ele>
        <time>2021-07-03 20:12:13</time>
      </trkpt>
      <trkpt lat="29.01451" lon="-13.67432">
        <ele>321</ele>
        <time>2021-07-03 20:12:14</time>
      </trkpt>
      <trkpt lat="29.01449" lon="-13.67434">
        <ele>321</ele>
        <time>2021-07-03 20:12:15</time>
      </trkpt>
      <trkpt lat="29.01447" lon="-13.67437">
        <ele>321.2</ele>
        <time>2021-07-03 20:12:16</time>
      </trkpt>
      <trkpt lat="29.01445" lon="-13.67439">
        <ele>321.2</ele>
        <time>2021-07-03 20:12:17</time>
      </trkpt>
      <trkpt lat="29.01443" lon="-13.67442">
        <ele>321.2</ele>
        <time>2021-07-03 20:12:18</time>
      </trkpt>
      <trkpt lat="29.01441" lon="-13.67444">
        <ele>321.2</ele>
        <time>2021-07-03 20:12:19</time>
      </trkpt>
      <trkpt lat="29.01439" lon="-13.67447">
        <ele>321.2</ele>
        <time>2021-07-03 20:12:20</time>
      </trkpt>
      <trkpt lat="29.01436" lon="-13.6745">
        <ele>321.2</ele>
        <time>2021-07-03 20:12:21</time>
      </trkpt>
      <trkpt lat="29.01435" lon="-13.67453">
        <ele>321.2</ele>
        <time>2021-07-03 20:12:22</time>
      </trkpt>
      <trkpt lat="29.01434" lon="-13.67456">
        <ele>321.2</ele>
        <time>2021-07-03 20:12:23</time>
      </trkpt>
      <trkpt lat="29.01434" lon="-13.6746">
        <ele>321.2</ele>
        <time>2021-07-03 20:12:24</time>
      </trkpt>
      <trkpt lat="29.01433" lon="-13.67463">
        <ele>321.2</ele>
        <time>2021-07-03 20:12:28</time>
      </trkpt>
      <trkpt lat="29.01433" lon="-13.67466">
        <ele>321.2</ele>
        <time>2021-07-03 20:12:29</time>
      </trkpt>
      <trkpt lat="29.01432" lon="-13.67468">
        <ele>321.4</ele>
        <time>2021-07-03 20:12:30</time>
      </trkpt>
      <trkpt lat="29.01431" lon="-13.6747">
        <ele>321.4</ele>
        <time>2021-07-03 20:12:31</time>
      </trkpt>
      <trkpt lat="29.0143" lon="-13.67473">
        <ele>321.4</ele>
        <time>2021-07-03 20:12:32</time>
      </trkpt>
      <trkpt lat="29.01429" lon="-13.67475">
        <ele>321.4</ele>
        <time>2021-07-03 20:12:33</time>
      </trkpt>
      <trkpt lat="29.01427" lon="-13.67477">
        <ele>321.4</ele>
        <time>2021-07-03 20:12:34</time>
      </trkpt>
      <trkpt lat="29.01426" lon="-13.67479">
        <ele>321.4</ele>
        <time>2021-07-03 20:12:35</time>
      </trkpt>
      <trkpt lat="29.01424" lon="-13.6748">
        <ele>321.4</ele>
        <time>2021-07-03 20:12:36</time>
      </trkpt>
      <trkpt lat="29.01422" lon="-13.67481">
        <ele>321.4</ele>
        <time>2021-07-03 20:12:37</time>
      </trkpt>
      <trkpt lat="29.0142" lon="-13.67483">
        <ele>321.4</ele>
        <time>2021-07-03 20:12:38</time>
      </trkpt>
      <trkpt lat="29.01417" lon="-13.67485">
        <ele>321.4</ele>
        <time>2021-07-03 20:12:39</time>
      </trkpt>
      <trkpt lat="29.01416" lon="-13.67488">
        <ele>321.4</ele>
        <time>2021-07-03 20:12:40</time>
      </trkpt>
      <trkpt lat="29.01414" lon="-13.67492">
        <ele>321.4</ele>
        <time>2021-07-03 20:12:41</time>
      </trkpt>
      <trkpt lat="29.01414" lon="-13.67495">
        <ele>321.4</ele>
        <time>2021-07-03 20:12:42</time>
      </trkpt>
      <trkpt lat="29.01412" lon="-13.67498">
        <ele>321.4</ele>
        <time>2021-07-03 20:12:43</time>
      </trkpt>
      <trkpt lat="29.0141" lon="-13.67501">
        <ele>321.4</ele>
        <time>2021-07-03 20:12:44</time>
      </trkpt>
      <trkpt lat="29.01408" lon="-13.67503">
        <ele>321.4</ele>
        <time>2021-07-03 20:12:45</time>
      </trkpt>
      <trkpt lat="29.01405" lon="-13.67504">
        <ele>321.4</ele>
        <time>2021-07-03 20:12:46</time>
      </trkpt>
      <trkpt lat="29.01401" lon="-13.67504">
        <ele>321.4</ele>
        <time>2021-07-03 20:12:47</time>
      </trkpt>
      <trkpt lat="29.01399" lon="-13.67504">
        <ele>321.4</ele>
        <time>2021-07-03 20:12:48</time>
      </trkpt>
      <trkpt lat="29.01396" lon="-13.67503">
        <ele>321.2</ele>
        <time>2021-07-03 20:12:49</time>
      </trkpt>
      <trkpt lat="29.01394" lon="-13.67502">
        <ele>321.2</ele>
        <time>2021-07-03 20:12:50</time>
      </trkpt>
      <trkpt lat="29.01393" lon="-13.67499">
        <ele>321.2</ele>
        <time>2021-07-03 20:12:51</time>
      </trkpt>
      <trkpt lat="29.01391" lon="-13.67496">
        <ele>321.4</ele>
        <time>2021-07-03 20:12:52</time>
      </trkpt>
      <trkpt lat="29.0139" lon="-13.67494">
        <ele>321.6</ele>
        <time>2021-07-03 20:12:53</time>
      </trkpt>
      <trkpt lat="29.01389" lon="-13.67491">
        <ele>321.6</ele>
        <time>2021-07-03 20:12:54</time>
      </trkpt>
      <trkpt lat="29.01388" lon="-13.67489">
        <ele>322.2</ele>
        <time>2021-07-03 20:12:55</time>
      </trkpt>
      <trkpt lat="29.01387" lon="-13.67487">
        <ele>322.4</ele>
        <time>2021-07-03 20:12:56</time>
      </trkpt>
      <trkpt lat="29.01386" lon="-13.67485">
        <ele>322.6</ele>
        <time>2021-07-03 20:12:57</time>
      </trkpt>
      <trkpt lat="29.01386" lon="-13.67483">
        <ele>322.8</ele>
        <time>2021-07-03 20:12:58</time>
      </trkpt>
      <trkpt lat="29.01385" lon="-13.67481">
        <ele>322.8</ele>
        <time>2021-07-03 20:12:59</time>
      </trkpt>
      <trkpt lat="29.01385" lon="-13.6748">
        <ele>323.2</ele>
        <time>2021-07-03 20:13:00</time>
      </trkpt>
      <trkpt lat="29.01384" lon="-13.67479">
        <ele>323.2</ele>
        <time>2021-07-03 20:13:01</time>
      </trkpt>
      <trkpt lat="29.01383" lon="-13.67478">
        <ele>323.2</ele>
        <time>2021-07-03 20:13:02</time>
      </trkpt>
      <trkpt lat="29.01382" lon="-13.67477">
        <ele>323.4</ele>
        <time>2021-07-03 20:13:03</time>
      </trkpt>
      <trkpt lat="29.01382" lon="-13.67477">
        <ele>323.4</ele>
        <time>2021-07-03 20:13:04</time>
      </trkpt>
      <trkpt lat="29.01382" lon="-13.67477">
        <ele>323.4</ele>
        <time>2021-07-03 20:13:05</time>
      </trkpt>
      <trkpt lat="29.01382" lon="-13.67477">
        <ele>323.8</ele>
        <time>2021-07-03 20:13:06</time>
      </trkpt>
      <trkpt lat="29.01381" lon="-13.67477">
        <ele>324.4</ele>
        <time>2021-07-03 20:13:07</time>
      </trkpt>
      <trkpt lat="29.0138" lon="-13.67476">
        <ele>324.4</ele>
        <time>2021-07-03 20:13:08</time>
      </trkpt>
      <trkpt lat="29.01379" lon="-13.67475">
        <ele>324.4</ele>
        <time>2021-07-03 20:13:09</time>
      </trkpt>
      <trkpt lat="29.01378" lon="-13.67473">
        <ele>324.4</ele>
        <time>2021-07-03 20:13:10</time>
      </trkpt>
      <trkpt lat="29.01377" lon="-13.67472">
        <ele>324.4</ele>
        <time>2021-07-03 20:13:11</time>
      </trkpt>
      <trkpt lat="29.01376" lon="-13.67471">
        <ele>324.4</ele>
        <time>2021-07-03 20:13:12</time>
      </trkpt>
      <trkpt lat="29.01374" lon="-13.67469">
        <ele>324.4</ele>
        <time>2021-07-03 20:13:13</time>
      </trkpt>
      <trkpt lat="29.01372" lon="-13.67468">
        <ele>324.4</ele>
        <time>2021-07-03 20:13:14</time>
      </trkpt>
      <trkpt lat="29.01371" lon="-13.67466">
        <ele>324.4</ele>
        <time>2021-07-03 20:13:15</time>
      </trkpt>
      <trkpt lat="29.01369" lon="-13.67464">
        <ele>324.6</ele>
        <time>2021-07-03 20:13:16</time>
      </trkpt>
      <trkpt lat="29.01367" lon="-13.67463">
        <ele>324.6</ele>
        <time>2021-07-03 20:13:17</time>
      </trkpt>
      <trkpt lat="29.01365" lon="-13.67461">
        <ele>324.6</ele>
        <time>2021-07-03 20:13:18</time>
      </trkpt>
      <trkpt lat="29.01363" lon="-13.67459">
        <ele>324.6</ele>
        <time>2021-07-03 20:13:19</time>
      </trkpt>
      <trkpt lat="29.01361" lon="-13.67458">
        <ele>324.6</ele>
        <time>2021-07-03 20:13:20</time>
      </trkpt>
      <trkpt lat="29.01358" lon="-13.67456">
        <ele>324.6</ele>
        <time>2021-07-03 20:13:21</time>
      </trkpt>
      <trkpt lat="29.01356" lon="-13.67454">
        <ele>324.6</ele>
        <time>2021-07-03 20:13:22</time>
      </trkpt>
      <trkpt lat="29.01353" lon="-13.67452">
        <ele>324.6</ele>
        <time>2021-07-03 20:13:23</time>
      </trkpt>
      <trkpt lat="29.0135" lon="-13.6745">
        <ele>324.6</ele>
        <time>2021-07-03 20:13:24</time>
      </trkpt>
      <trkpt lat="29.01348" lon="-13.67449">
        <ele>324.6</ele>
        <time>2021-07-03 20:13:25</time>
      </trkpt>
      <trkpt lat="29.01345" lon="-13.67448">
        <ele>324.6</ele>
        <time>2021-07-03 20:13:26</time>
      </trkpt>
      <trkpt lat="29.01343" lon="-13.67448">
        <ele>324.6</ele>
        <time>2021-07-03 20:13:27</time>
      </trkpt>
      <trkpt lat="29.0134" lon="-13.67449">
        <ele>324.6</ele>
        <time>2021-07-03 20:13:28</time>
      </trkpt>
      <trkpt lat="29.01338" lon="-13.67449">
        <ele>324.6</ele>
        <time>2021-07-03 20:13:29</time>
      </trkpt>
      <trkpt lat="29.01335" lon="-13.6745">
        <ele>324.6</ele>
        <time>2021-07-03 20:13:30</time>
      </trkpt>
      <trkpt lat="29.01333" lon="-13.67452">
        <ele>324.8</ele>
        <time>2021-07-03 20:13:31</time>
      </trkpt>
      <trkpt lat="29.01331" lon="-13.67454">
        <ele>324.8</ele>
        <time>2021-07-03 20:13:32</time>
      </trkpt>
      <trkpt lat="29.01329" lon="-13.67456">
        <ele>324.8</ele>
        <time>2021-07-03 20:13:33</time>
      </trkpt>
      <trkpt lat="29.01327" lon="-13.67458">
        <ele>324.8</ele>
        <time>2021-07-03 20:13:34</time>
      </trkpt>
      <trkpt lat="29.01325" lon="-13.6746">
        <ele>325</ele>
        <time>2021-07-03 20:13:35</time>
      </trkpt>
      <trkpt lat="29.01323" lon="-13.67463">
        <ele>325</ele>
        <time>2021-07-03 20:13:36</time>
      </trkpt>
      <trkpt lat="29.01321" lon="-13.67466">
        <ele>325</ele>
        <time>2021-07-03 20:13:37</time>
      </trkpt>
      <trkpt lat="29.01319" lon="-13.67469">
        <ele>325</ele>
        <time>2021-07-03 20:13:38</time>
      </trkpt>
      <trkpt lat="29.01317" lon="-13.67472">
        <ele>325</ele>
        <time>2021-07-03 20:13:39</time>
      </trkpt>
      <trkpt lat="29.01315" lon="-13.67475">
        <ele>325</ele>
        <time>2021-07-03 20:13:40</time>
      </trkpt>
      <trkpt lat="29.01313" lon="-13.67478">
        <ele>325</ele>
        <time>2021-07-03 20:13:41</time>
      </trkpt>
      <trkpt lat="29.01311" lon="-13.67481">
        <ele>325</ele>
        <time>2021-07-03 20:13:42</time>
      </trkpt>
      <trkpt lat="29.01309" lon="-13.67484">
        <ele>325.4</ele>
        <time>2021-07-03 20:13:43</time>
      </trkpt>
      <trkpt lat="29.01306" lon="-13.67486">
        <ele>325.4</ele>
        <time>2021-07-03 20:13:44</time>
      </trkpt>
      <trkpt lat="29.01304" lon="-13.67488">
        <ele>325.6</ele>
        <time>2021-07-03 20:13:45</time>
      </trkpt>
      <trkpt lat="29.01301" lon="-13.6749">
        <ele>325.6</ele>
        <time>2021-07-03 20:13:46</time>
      </trkpt>
      <trkpt lat="29.01299" lon="-13.67492">
        <ele>326</ele>
        <time>2021-07-03 20:13:47</time>
      </trkpt>
      <trkpt lat="29.01296" lon="-13.67493">
        <ele>326</ele>
        <time>2021-07-03 20:13:48</time>
      </trkpt>
      <trkpt lat="29.01294" lon="-13.67494">
        <ele>326.4</ele>
        <time>2021-07-03 20:13:49</time>
      </trkpt>
      <trkpt lat="29.01291" lon="-13.67495">
        <ele>326.4</ele>
        <time>2021-07-03 20:13:50</time>
      </trkpt>
      <trkpt lat="29.01287" lon="-13.67497">
        <ele>326.6</ele>
        <time>2021-07-03 20:13:51</time>
      </trkpt>
      <trkpt lat="29.01284" lon="-13.67498">
        <ele>326.6</ele>
        <time>2021-07-03 20:13:52</time>
      </trkpt>
      <trkpt lat="29.01281" lon="-13.675">
        <ele>327</ele>
        <time>2021-07-03 20:13:53</time>
      </trkpt>
      <trkpt lat="29.01277" lon="-13.67501">
        <ele>327</ele>
        <time>2021-07-03 20:13:54</time>
      </trkpt>
      <trkpt lat="29.01273" lon="-13.67503">
        <ele>327</ele>
        <time>2021-07-03 20:13:55</time>
      </trkpt>
      <trkpt lat="29.01269" lon="-13.67505">
        <ele>327</ele>
        <time>2021-07-03 20:13:56</time>
      </trkpt>
      <trkpt lat="29.01264" lon="-13.67507">
        <ele>327</ele>
        <time>2021-07-03 20:13:57</time>
      </trkpt>
      <trkpt lat="29.0126" lon="-13.67509">
        <ele>327</ele>
        <time>2021-07-03 20:13:58</time>
      </trkpt>
      <trkpt lat="29.01255" lon="-13.67512">
        <ele>327</ele>
        <time>2021-07-03 20:13:59</time>
      </trkpt>
      <trkpt lat="29.0125" lon="-13.67514">
        <ele>327.2</ele>
        <time>2021-07-03 20:14:00</time>
      </trkpt>
      <trkpt lat="29.01246" lon="-13.67517">
        <ele>327.4</ele>
        <time>2021-07-03 20:14:01</time>
      </trkpt>
      <trkpt lat="29.01244" lon="-13.67518">
        <ele>327.8</ele>
        <time>2021-07-03 20:14:02</time>
      </trkpt>
      <trkpt lat="29.01242" lon="-13.6752">
        <ele>328</ele>
        <time>2021-07-03 20:14:03</time>
      </trkpt>
      <trkpt lat="29.01241" lon="-13.67521">
        <ele>328.4</ele>
        <time>2021-07-03 20:14:04</time>
      </trkpt>
      <trkpt lat="29.01241" lon="-13.6752">
        <ele>328.8</ele>
        <time>2021-07-03 20:14:05</time>
      </trkpt>
      <trkpt lat="29.01241" lon="-13.6752">
        <ele>329</ele>
        <time>2021-07-03 20:14:06</time>
      </trkpt>
      <trkpt lat="29.0124" lon="-13.67522">
        <ele>330.8</ele>
        <time>2021-07-03 20:14:07</time>
      </trkpt>
      <trkpt lat="29.01239" lon="-13.67524">
        <ele>330.8</ele>
        <time>2021-07-03 20:14:08</time>
      </trkpt>
      <trkpt lat="29.01237" lon="-13.67525">
        <ele>330.8</ele>
        <time>2021-07-03 20:14:09</time>
      </trkpt>
      <trkpt lat="29.01236" lon="-13.67526">
        <ele>330.8</ele>
        <time>2021-07-03 20:14:10</time>
      </trkpt>
      <trkpt lat="29.01234" lon="-13.67528">
        <ele>330.8</ele>
        <time>2021-07-03 20:14:11</time>
      </trkpt>
      <trkpt lat="29.01233" lon="-13.67531">
        <ele>330.8</ele>
        <time>2021-07-03 20:14:12</time>
      </trkpt>
      <trkpt lat="29.0123" lon="-13.67534">
        <ele>330.8</ele>
        <time>2021-07-03 20:14:13</time>
      </trkpt>
      <trkpt lat="29.01228" lon="-13.67537">
        <ele>330.8</ele>
        <time>2021-07-03 20:14:14</time>
      </trkpt>
      <trkpt lat="29.01225" lon="-13.67541">
        <ele>330.8</ele>
        <time>2021-07-03 20:14:15</time>
      </trkpt>
      <trkpt lat="29.01223" lon="-13.67545">
        <ele>330.8</ele>
        <time>2021-07-03 20:14:16</time>
      </trkpt>
      <trkpt lat="29.01221" lon="-13.67548">
        <ele>330.8</ele>
        <time>2021-07-03 20:14:17</time>
      </trkpt>
      <trkpt lat="29.0122" lon="-13.6755">
        <ele>330.8</ele>
        <time>2021-07-03 20:14:18</time>
      </trkpt>
      <trkpt lat="29.01218" lon="-13.67552">
        <ele>331</ele>
        <time>2021-07-03 20:14:19</time>
      </trkpt>
      <trkpt lat="29.01216" lon="-13.67554">
        <ele>331.2</ele>
        <time>2021-07-03 20:14:20</time>
      </trkpt>
      <trkpt lat="29.01213" lon="-13.67556">
        <ele>331.2</ele>
        <time>2021-07-03 20:14:21</time>
      </trkpt>
      <trkpt lat="29.01211" lon="-13.67557">
        <ele>331.6</ele>
        <time>2021-07-03 20:14:22</time>
      </trkpt>
      <trkpt lat="29.01208" lon="-13.67559">
        <ele>331.6</ele>
        <time>2021-07-03 20:14:23</time>
      </trkpt>
      <trkpt lat="29.01204" lon="-13.67561">
        <ele>331.6</ele>
        <time>2021-07-03 20:14:24</time>
      </trkpt>
      <trkpt lat="29.01201" lon="-13.67562">
        <ele>331.6</ele>
        <time>2021-07-03 20:14:25</time>
      </trkpt>
      <trkpt lat="29.01199" lon="-13.67563">
        <ele>331.6</ele>
        <time>2021-07-03 20:14:26</time>
      </trkpt>
      <trkpt lat="29.01199" lon="-13.67563">
        <ele>331.6</ele>
        <time>2021-07-03 20:14:27</time>
      </trkpt>
      <trkpt lat="29.01199" lon="-13.67564">
        <ele>331.6</ele>
        <time>2021-07-03 20:14:28</time>
      </trkpt>
      <trkpt lat="29.01199" lon="-13.67564">
        <ele>331.6</ele>
        <time>2021-07-03 20:14:29</time>
      </trkpt>
      <trkpt lat="29.01199" lon="-13.67564">
        <ele>331.6</ele>
        <time>2021-07-03 20:14:30</time>
      </trkpt>
      <trkpt lat="29.01196" lon="-13.67565">
        <ele>331.8</ele>
        <time>2021-07-03 20:14:31</time>
      </trkpt>
      <trkpt lat="29.01194" lon="-13.67567">
        <ele>331.8</ele>
        <time>2021-07-03 20:14:32</time>
      </trkpt>
      <trkpt lat="29.0119" lon="-13.67568">
        <ele>331.6</ele>
        <time>2021-07-03 20:14:33</time>
      </trkpt>
      <trkpt lat="29.01186" lon="-13.67571">
        <ele>331.6</ele>
        <time>2021-07-03 20:14:34</time>
      </trkpt>
      <trkpt lat="29.01181" lon="-13.67573">
        <ele>331.6</ele>
        <time>2021-07-03 20:14:35</time>
      </trkpt>
      <trkpt lat="29.01177" lon="-13.67573">
        <ele>331.6</ele>
        <time>2021-07-03 20:14:36</time>
      </trkpt>
      <trkpt lat="29.01172" lon="-13.67574">
        <ele>331.2</ele>
        <time>2021-07-03 20:14:37</time>
      </trkpt>
      <trkpt lat="29.01167" lon="-13.67575">
        <ele>331.2</ele>
        <time>2021-07-03 20:14:38</time>
      </trkpt>
      <trkpt lat="29.01162" lon="-13.67575">
        <ele>331.6</ele>
        <time>2021-07-03 20:14:39</time>
      </trkpt>
      <trkpt lat="29.01158" lon="-13.67575">
        <ele>331.6</ele>
        <time>2021-07-03 20:14:40</time>
      </trkpt>
      <trkpt lat="29.01153" lon="-13.67574">
        <ele>332</ele>
        <time>2021-07-03 20:14:41</time>
      </trkpt>
      <trkpt lat="29.01148" lon="-13.67573">
        <ele>332.2</ele>
        <time>2021-07-03 20:14:42</time>
      </trkpt>
      <trkpt lat="29.01144" lon="-13.67572">
        <ele>332.4</ele>
        <time>2021-07-03 20:14:43</time>
      </trkpt>
      <trkpt lat="29.01139" lon="-13.67572">
        <ele>332.6</ele>
        <time>2021-07-03 20:14:44</time>
      </trkpt>
      <trkpt lat="29.01134" lon="-13.67573">
        <ele>332.6</ele>
        <time>2021-07-03 20:14:45</time>
      </trkpt>
      <trkpt lat="29.0113" lon="-13.67574">
        <ele>333</ele>
        <time>2021-07-03 20:14:46</time>
      </trkpt>
      <trkpt lat="29.01126" lon="-13.67576">
        <ele>333</ele>
        <time>2021-07-03 20:14:47</time>
      </trkpt>
      <trkpt lat="29.01122" lon="-13.67578">
        <ele>333.4</ele>
        <time>2021-07-03 20:14:48</time>
      </trkpt>
      <trkpt lat="29.01119" lon="-13.67581">
        <ele>333.8</ele>
        <time>2021-07-03 20:14:49</time>
      </trkpt>
      <trkpt lat="29.01117" lon="-13.67582">
        <ele>333.8</ele>
        <time>2021-07-03 20:14:50</time>
      </trkpt>
      <trkpt lat="29.01114" lon="-13.67585">
        <ele>334</ele>
        <time>2021-07-03 20:14:51</time>
      </trkpt>
      <trkpt lat="29.01112" lon="-13.67587">
        <ele>334.4</ele>
        <time>2021-07-03 20:14:52</time>
      </trkpt>
      <trkpt lat="29.0111" lon="-13.67589">
        <ele>334.6</ele>
        <time>2021-07-03 20:14:53</time>
      </trkpt>
      <trkpt lat="29.01107" lon="-13.67591">
        <ele>335</ele>
        <time>2021-07-03 20:14:54</time>
      </trkpt>
      <trkpt lat="29.01105" lon="-13.67591">
        <ele>335.2</ele>
        <time>2021-07-03 20:14:55</time>
      </trkpt>
      <trkpt lat="29.01105" lon="-13.67591">
        <ele>335.6</ele>
        <time>2021-07-03 20:14:56</time>
      </trkpt>
      <trkpt lat="29.01104" lon="-13.67591">
        <ele>335.8</ele>
        <time>2021-07-03 20:14:57</time>
      </trkpt>
      <trkpt lat="29.01103" lon="-13.67592">
        <ele>336.2</ele>
        <time>2021-07-03 20:14:58</time>
      </trkpt>
      <trkpt lat="29.01102" lon="-13.67594">
        <ele>336.6</ele>
        <time>2021-07-03 20:14:59</time>
      </trkpt>
      <trkpt lat="29.01101" lon="-13.67595">
        <ele>337</ele>
        <time>2021-07-03 20:15:00</time>
      </trkpt>
      <trkpt lat="29.01099" lon="-13.67596">
        <ele>337.2</ele>
        <time>2021-07-03 20:15:01</time>
      </trkpt>
      <trkpt lat="29.01098" lon="-13.67597">
        <ele>337.4</ele>
        <time>2021-07-03 20:15:02</time>
      </trkpt>
      <trkpt lat="29.01097" lon="-13.67599">
        <ele>337.6</ele>
        <time>2021-07-03 20:15:03</time>
      </trkpt>
      <trkpt lat="29.01096" lon="-13.67602">
        <ele>337.6</ele>
        <time>2021-07-03 20:15:04</time>
      </trkpt>
      <trkpt lat="29.01094" lon="-13.67604">
        <ele>337.6</ele>
        <time>2021-07-03 20:15:05</time>
      </trkpt>
      <trkpt lat="29.01093" lon="-13.67608">
        <ele>337.6</ele>
        <time>2021-07-03 20:15:06</time>
      </trkpt>
      <trkpt lat="29.01092" lon="-13.67611">
        <ele>338</ele>
        <time>2021-07-03 20:15:07</time>
      </trkpt>
      <trkpt lat="29.01091" lon="-13.67615">
        <ele>338</ele>
        <time>2021-07-03 20:15:08</time>
      </trkpt>
      <trkpt lat="29.0109" lon="-13.67618">
        <ele>338</ele>
        <time>2021-07-03 20:15:09</time>
      </trkpt>
      <trkpt lat="29.01088" lon="-13.67622">
        <ele>338</ele>
        <time>2021-07-03 20:15:10</time>
      </trkpt>
      <trkpt lat="29.01087" lon="-13.67626">
        <ele>338.2</ele>
        <time>2021-07-03 20:15:11</time>
      </trkpt>
      <trkpt lat="29.01085" lon="-13.6763">
        <ele>338.2</ele>
        <time>2021-07-03 20:15:12</time>
      </trkpt>
      <trkpt lat="29.01084" lon="-13.67633">
        <ele>338.2</ele>
        <time>2021-07-03 20:15:13</time>
      </trkpt>
      <trkpt lat="29.01082" lon="-13.67637">
        <ele>338.2</ele>
        <time>2021-07-03 20:15:14</time>
      </trkpt>
      <trkpt lat="29.01081" lon="-13.67641">
        <ele>338.2</ele>
        <time>2021-07-03 20:15:15</time>
      </trkpt>
      <trkpt lat="29.0108" lon="-13.67644">
        <ele>338.2</ele>
        <time>2021-07-03 20:15:16</time>
      </trkpt>
      <trkpt lat="29.01078" lon="-13.67649">
        <ele>338.2</ele>
        <time>2021-07-03 20:15:17</time>
      </trkpt>
      <trkpt lat="29.01078" lon="-13.67653">
        <ele>338.2</ele>
        <time>2021-07-03 20:15:18</time>
      </trkpt>
      <trkpt lat="29.01077" lon="-13.67657">
        <ele>338.2</ele>
        <time>2021-07-03 20:15:19</time>
      </trkpt>
      <trkpt lat="29.01077" lon="-13.67661">
        <ele>338.2</ele>
        <time>2021-07-03 20:15:20</time>
      </trkpt>
      <trkpt lat="29.01078" lon="-13.67665">
        <ele>338.4</ele>
        <time>2021-07-03 20:15:21</time>
      </trkpt>
      <trkpt lat="29.01079" lon="-13.67669">
        <ele>338.4</ele>
        <time>2021-07-03 20:15:22</time>
      </trkpt>
      <trkpt lat="29.01079" lon="-13.67673">
        <ele>338.6</ele>
        <time>2021-07-03 20:15:23</time>
      </trkpt>
      <trkpt lat="29.0108" lon="-13.67677">
        <ele>338.6</ele>
        <time>2021-07-03 20:15:24</time>
      </trkpt>
      <trkpt lat="29.0108" lon="-13.6768">
        <ele>339</ele>
        <time>2021-07-03 20:15:25</time>
      </trkpt>
      <trkpt lat="29.01079" lon="-13.67683">
        <ele>339</ele>
        <time>2021-07-03 20:15:26</time>
      </trkpt>
      <trkpt lat="29.01078" lon="-13.67686">
        <ele>339.2</ele>
        <time>2021-07-03 20:15:43</time>
      </trkpt>
      <trkpt lat="29.01076" lon="-13.67689">
        <ele>339.2</ele>
        <time>2021-07-03 20:15:44</time>
      </trkpt>
      <trkpt lat="29.01074" lon="-13.67692">
        <ele>339.4</ele>
        <time>2021-07-03 20:15:45</time>
      </trkpt>
      <trkpt lat="29.01071" lon="-13.67695">
        <ele>339.4</ele>
        <time>2021-07-03 20:15:46</time>
      </trkpt>
      <trkpt lat="29.01067" lon="-13.67697">
        <ele>339.4</ele>
        <time>2021-07-03 20:15:47</time>
      </trkpt>
      <trkpt lat="29.01064" lon="-13.67699">
        <ele>339.4</ele>
        <time>2021-07-03 20:15:48</time>
      </trkpt>
      <trkpt lat="29.01061" lon="-13.67701">
        <ele>339.4</ele>
        <time>2021-07-03 20:15:49</time>
      </trkpt>
      <trkpt lat="29.01057" lon="-13.67703">
        <ele>339.4</ele>
        <time>2021-07-03 20:15:50</time>
      </trkpt>
      <trkpt lat="29.01054" lon="-13.67705">
        <ele>339.8</ele>
        <time>2021-07-03 20:15:51</time>
      </trkpt>
      <trkpt lat="29.01052" lon="-13.67708">
        <ele>339.8</ele>
        <time>2021-07-03 20:15:52</time>
      </trkpt>
      <trkpt lat="29.01049" lon="-13.6771">
        <ele>339.8</ele>
        <time>2021-07-03 20:15:53</time>
      </trkpt>
      <trkpt lat="29.01047" lon="-13.67713">
        <ele>340</ele>
        <time>2021-07-03 20:15:54</time>
      </trkpt>
      <trkpt lat="29.01045" lon="-13.67715">
        <ele>340</ele>
        <time>2021-07-03 20:15:55</time>
      </trkpt>
      <trkpt lat="29.01043" lon="-13.67718">
        <ele>340.2</ele>
        <time>2021-07-03 20:15:56</time>
      </trkpt>
      <trkpt lat="29.01041" lon="-13.6772">
        <ele>340.2</ele>
        <time>2021-07-03 20:15:57</time>
      </trkpt>
      <trkpt lat="29.01039" lon="-13.67722">
        <ele>340.6</ele>
        <time>2021-07-03 20:15:58</time>
      </trkpt>
      <trkpt lat="29.01037" lon="-13.67724">
        <ele>340.8</ele>
        <time>2021-07-03 20:15:59</time>
      </trkpt>
      <trkpt lat="29.01036" lon="-13.67726">
        <ele>340.8</ele>
        <time>2021-07-03 20:16:00</time>
      </trkpt>
      <trkpt lat="29.01034" lon="-13.67728">
        <ele>341</ele>
        <time>2021-07-03 20:16:01</time>
      </trkpt>
      <trkpt lat="29.01032" lon="-13.6773">
        <ele>341</ele>
        <time>2021-07-03 20:16:02</time>
      </trkpt>
      <trkpt lat="29.01031" lon="-13.67732">
        <ele>341</ele>
        <time>2021-07-03 20:16:03</time>
      </trkpt>
      <trkpt lat="29.01028" lon="-13.67734">
        <ele>341</ele>
        <time>2021-07-03 20:16:04</time>
      </trkpt>
      <trkpt lat="29.01026" lon="-13.67736">
        <ele>341</ele>
        <time>2021-07-03 20:16:05</time>
      </trkpt>
      <trkpt lat="29.01024" lon="-13.67737">
        <ele>341</ele>
        <time>2021-07-03 20:16:06</time>
      </trkpt>
      <trkpt lat="29.01022" lon="-13.67739">
        <ele>341</ele>
        <time>2021-07-03 20:16:07</time>
      </trkpt>
      <trkpt lat="29.01019" lon="-13.6774">
        <ele>341</ele>
        <time>2021-07-03 20:16:08</time>
      </trkpt>
      <trkpt lat="29.01017" lon="-13.67742">
        <ele>341</ele>
        <time>2021-07-03 20:16:09</time>
      </trkpt>
      <trkpt lat="29.01015" lon="-13.67743">
        <ele>341</ele>
        <time>2021-07-03 20:16:10</time>
      </trkpt>
      <trkpt lat="29.01013" lon="-13.67743">
        <ele>341</ele>
        <time>2021-07-03 20:16:11</time>
      </trkpt>
      <trkpt lat="29.01011" lon="-13.67744">
        <ele>341</ele>
        <time>2021-07-03 20:16:12</time>
      </trkpt>
      <trkpt lat="29.01009" lon="-13.67745">
        <ele>341.2</ele>
        <time>2021-07-03 20:16:13</time>
      </trkpt>
      <trkpt lat="29.01007" lon="-13.67746">
        <ele>341.2</ele>
        <time>2021-07-03 20:16:14</time>
      </trkpt>
      <trkpt lat="29.01005" lon="-13.67747">
        <ele>341.2</ele>
        <time>2021-07-03 20:16:15</time>
      </trkpt>
      <trkpt lat="29.01003" lon="-13.67748">
        <ele>341.6</ele>
        <time>2021-07-03 20:16:16</time>
      </trkpt>
      <trkpt lat="29.01001" lon="-13.6775">
        <ele>341.6</ele>
        <time>2021-07-03 20:16:17</time>
      </trkpt>
      <trkpt lat="29.00999" lon="-13.67751">
        <ele>341.8</ele>
        <time>2021-07-03 20:16:18</time>
      </trkpt>
      <trkpt lat="29.00997" lon="-13.67753">
        <ele>341.8</ele>
        <time>2021-07-03 20:16:19</time>
      </trkpt>
      <trkpt lat="29.00996" lon="-13.67755">
        <ele>342.2</ele>
        <time>2021-07-03 20:16:20</time>
      </trkpt>
      <trkpt lat="29.00995" lon="-13.67756">
        <ele>342.2</ele>
        <time>2021-07-03 20:16:21</time>
      </trkpt>
      <trkpt lat="29.00993" lon="-13.67758">
        <ele>342.4</ele>
        <time>2021-07-03 20:16:22</time>
      </trkpt>
      <trkpt lat="29.00991" lon="-13.6776">
        <ele>342.4</ele>
        <time>2021-07-03 20:16:23</time>
      </trkpt>
      <trkpt lat="29.00988" lon="-13.67761">
        <ele>342.4</ele>
        <time>2021-07-03 20:16:24</time>
      </trkpt>
      <trkpt lat="29.00985" lon="-13.67761">
        <ele>342.2</ele>
        <time>2021-07-03 20:16:25</time>
      </trkpt>
      <trkpt lat="29.00981" lon="-13.67761">
        <ele>342</ele>
        <time>2021-07-03 20:16:26</time>
      </trkpt>
      <trkpt lat="29.00976" lon="-13.67761">
        <ele>341.8</ele>
        <time>2021-07-03 20:16:27</time>
      </trkpt>
      <trkpt lat="29.00972" lon="-13.6776">
        <ele>341.6</ele>
        <time>2021-07-03 20:16:28</time>
      </trkpt>
      <trkpt lat="29.00969" lon="-13.6776">
        <ele>341.6</ele>
        <time>2021-07-03 20:16:29</time>
      </trkpt>
      <trkpt lat="29.00966" lon="-13.6776">
        <ele>341.6</ele>
        <time>2021-07-03 20:16:30</time>
      </trkpt>
      <trkpt lat="29.00963" lon="-13.67758">
        <ele>341.2</ele>
        <time>2021-07-03 20:16:31</time>
      </trkpt>
      <trkpt lat="29.0096" lon="-13.67756">
        <ele>341.2</ele>
        <time>2021-07-03 20:16:32</time>
      </trkpt>
      <trkpt lat="29.00958" lon="-13.67754">
        <ele>341.2</ele>
        <time>2021-07-03 20:16:33</time>
      </trkpt>
      <trkpt lat="29.00956" lon="-13.67751">
        <ele>341.2</ele>
        <time>2021-07-03 20:16:34</time>
      </trkpt>
      <trkpt lat="29.00954" lon="-13.67749">
        <ele>341.2</ele>
        <time>2021-07-03 20:16:35</time>
      </trkpt>
      <trkpt lat="29.00952" lon="-13.67747">
        <ele>341.2</ele>
        <time>2021-07-03 20:16:36</time>
      </trkpt>
      <trkpt lat="29.0095" lon="-13.67744">
        <ele>341.2</ele>
        <time>2021-07-03 20:16:37</time>
      </trkpt>
      <trkpt lat="29.00948" lon="-13.67741">
        <ele>341.2</ele>
        <time>2021-07-03 20:16:38</time>
      </trkpt>
      <trkpt lat="29.00946" lon="-13.67738">
        <ele>341.4</ele>
        <time>2021-07-03 20:16:39</time>
      </trkpt>
      <trkpt lat="29.00944" lon="-13.67735">
        <ele>341.4</ele>
        <time>2021-07-03 20:16:40</time>
      </trkpt>
      <trkpt lat="29.00942" lon="-13.67732">
        <ele>341.4</ele>
        <time>2021-07-03 20:16:41</time>
      </trkpt>
      <trkpt lat="29.0094" lon="-13.6773">
        <ele>341.4</ele>
        <time>2021-07-03 20:16:42</time>
      </trkpt>
      <trkpt lat="29.00938" lon="-13.67727">
        <ele>341.4</ele>
        <time>2021-07-03 20:17:24</time>
      </trkpt>
      <trkpt lat="29.00936" lon="-13.67725">
        <ele>341.8</ele>
        <time>2021-07-03 20:17:25</time>
      </trkpt>
      <trkpt lat="29.00934" lon="-13.67723">
        <ele>341.8</ele>
        <time>2021-07-03 20:17:26</time>
      </trkpt>
      <trkpt lat="29.00933" lon="-13.67721">
        <ele>342</ele>
        <time>2021-07-03 20:17:27</time>
      </trkpt>
      <trkpt lat="29.00931" lon="-13.6772">
        <ele>342</ele>
        <time>2021-07-03 20:17:28</time>
      </trkpt>
      <trkpt lat="29.0093" lon="-13.6772">
        <ele>342.4</ele>
        <time>2021-07-03 20:17:29</time>
      </trkpt>
      <trkpt lat="29.00929" lon="-13.67718">
        <ele>342.4</ele>
        <time>2021-07-03 20:17:30</time>
      </trkpt>
      <trkpt lat="29.00928" lon="-13.67717">
        <ele>342.8</ele>
        <time>2021-07-03 20:17:31</time>
      </trkpt>
      <trkpt lat="29.00928" lon="-13.67715">
        <ele>342.8</ele>
        <time>2021-07-03 20:17:32</time>
      </trkpt>
      <trkpt lat="29.00927" lon="-13.67714">
        <ele>343</ele>
        <time>2021-07-03 20:17:33</time>
      </trkpt>
      <trkpt lat="29.00925" lon="-13.67712">
        <ele>343.2</ele>
        <time>2021-07-03 20:17:34</time>
      </trkpt>
      <trkpt lat="29.00924" lon="-13.67709">
        <ele>343.2</ele>
        <time>2021-07-03 20:17:35</time>
      </trkpt>
      <trkpt lat="29.00923" lon="-13.67706">
        <ele>343.2</ele>
        <time>2021-07-03 20:17:36</time>
      </trkpt>
      <trkpt lat="29.00923" lon="-13.67703">
        <ele>343.2</ele>
        <time>2021-07-03 20:17:37</time>
      </trkpt>
      <trkpt lat="29.00922" lon="-13.67699">
        <ele>343.2</ele>
        <time>2021-07-03 20:17:38</time>
      </trkpt>
      <trkpt lat="29.00922" lon="-13.67694">
        <ele>343.2</ele>
        <time>2021-07-03 20:17:39</time>
      </trkpt>
      <trkpt lat="29.00922" lon="-13.67691">
        <ele>343.2</ele>
        <time>2021-07-03 20:17:40</time>
      </trkpt>
      <trkpt lat="29.0092" lon="-13.67689">
        <ele>343.2</ele>
        <time>2021-07-03 20:17:41</time>
      </trkpt>
      <trkpt lat="29.00918" lon="-13.67688">
        <ele>343.2</ele>
        <time>2021-07-03 20:17:42</time>
      </trkpt>
      <trkpt lat="29.00916" lon="-13.67687">
        <ele>343.2</ele>
        <time>2021-07-03 20:17:43</time>
      </trkpt>
      <trkpt lat="29.00914" lon="-13.67687">
        <ele>343.2</ele>
        <time>2021-07-03 20:17:44</time>
      </trkpt>
      <trkpt lat="29.00911" lon="-13.67686">
        <ele>343.2</ele>
        <time>2021-07-03 20:17:45</time>
      </trkpt>
      <trkpt lat="29.00908" lon="-13.67686">
        <ele>343.2</ele>
        <time>2021-07-03 20:17:46</time>
      </trkpt>
      <trkpt lat="29.00905" lon="-13.67685">
        <ele>343.6</ele>
        <time>2021-07-03 20:17:47</time>
      </trkpt>
      <trkpt lat="29.00903" lon="-13.67685">
        <ele>343.6</ele>
        <time>2021-07-03 20:17:57</time>
      </trkpt>
      <trkpt lat="29.00901" lon="-13.67684">
        <ele>343.8</ele>
        <time>2021-07-03 20:17:58</time>
      </trkpt>
      <trkpt lat="29.00899" lon="-13.67684">
        <ele>343.8</ele>
        <time>2021-07-03 20:17:59</time>
      </trkpt>
      <trkpt lat="29.00897" lon="-13.67683">
        <ele>344</ele>
        <time>2021-07-03 20:18:00</time>
      </trkpt>
      <trkpt lat="29.00896" lon="-13.67682">
        <ele>344</ele>
        <time>2021-07-03 20:18:01</time>
      </trkpt>
      <trkpt lat="29.00894" lon="-13.6768">
        <ele>344.4</ele>
        <time>2021-07-03 20:18:02</time>
      </trkpt>
      <trkpt lat="29.00892" lon="-13.67679">
        <ele>344.4</ele>
        <time>2021-07-03 20:18:03</time>
      </trkpt>
      <trkpt lat="29.00891" lon="-13.67677">
        <ele>344.4</ele>
        <time>2021-07-03 20:18:04</time>
      </trkpt>
      <trkpt lat="29.00889" lon="-13.67676">
        <ele>344.6</ele>
        <time>2021-07-03 20:18:05</time>
      </trkpt>
      <trkpt lat="29.00887" lon="-13.67674">
        <ele>344.6</ele>
        <time>2021-07-03 20:18:06</time>
      </trkpt>
      <trkpt lat="29.00886" lon="-13.67672">
        <ele>344.8</ele>
        <time>2021-07-03 20:18:07</time>
      </trkpt>
      <trkpt lat="29.00885" lon="-13.6767">
        <ele>344.8</ele>
        <time>2021-07-03 20:18:08</time>
      </trkpt>
      <trkpt lat="29.00884" lon="-13.67668">
        <ele>345</ele>
        <time>2021-07-03 20:18:09</time>
      </trkpt>
      <trkpt lat="29.00882" lon="-13.67666">
        <ele>345</ele>
        <time>2021-07-03 20:18:10</time>
      </trkpt>
      <trkpt lat="29.00881" lon="-13.67664">
        <ele>345.4</ele>
        <time>2021-07-03 20:18:11</time>
      </trkpt>
      <trkpt lat="29.0088" lon="-13.67662">
        <ele>345.4</ele>
        <time>2021-07-03 20:18:12</time>
      </trkpt>
      <trkpt lat="29.00879" lon="-13.67659">
        <ele>345.6</ele>
        <time>2021-07-03 20:18:13</time>
      </trkpt>
      <trkpt lat="29.00877" lon="-13.67657">
        <ele>345.6</ele>
        <time>2021-07-03 20:18:14</time>
      </trkpt>
      <trkpt lat="29.00876" lon="-13.67654">
        <ele>345.8</ele>
        <time>2021-07-03 20:18:15</time>
      </trkpt>
      <trkpt lat="29.00874" lon="-13.67651">
        <ele>345.8</ele>
        <time>2021-07-03 20:18:16</time>
      </trkpt>
      <trkpt lat="29.00873" lon="-13.67649">
        <ele>346</ele>
        <time>2021-07-03 20:18:17</time>
      </trkpt>
      <trkpt lat="29.00871" lon="-13.67646">
        <ele>346</ele>
        <time>2021-07-03 20:18:18</time>
      </trkpt>
      <trkpt lat="29.0087" lon="-13.67643">
        <ele>346.2</ele>
        <time>2021-07-03 20:18:19</time>
      </trkpt>
      <trkpt lat="29.00868" lon="-13.67642">
        <ele>346.2</ele>
        <time>2021-07-03 20:18:20</time>
      </trkpt>
      <trkpt lat="29.00868" lon="-13.67641">
        <ele>346.6</ele>
        <time>2021-07-03 20:18:21</time>
      </trkpt>
      <trkpt lat="29.00868" lon="-13.67641">
        <ele>346.6</ele>
        <time>2021-07-03 20:18:22</time>
      </trkpt>
      <trkpt lat="29.00868" lon="-13.67642">
        <ele>346.6</ele>
        <time>2021-07-03 20:18:23</time>
      </trkpt>
      <trkpt lat="29.00868" lon="-13.67642">
        <ele>346.8</ele>
        <time>2021-07-03 20:18:24</time>
      </trkpt>
      <trkpt lat="29.00865" lon="-13.67639">
        <ele>346.8</ele>
        <time>2021-07-03 20:18:25</time>
      </trkpt>
      <trkpt lat="29.00862" lon="-13.67635">
        <ele>346.8</ele>
        <time>2021-07-03 20:18:26</time>
      </trkpt>
      <trkpt lat="29.00859" lon="-13.67632">
        <ele>346.6</ele>
        <time>2021-07-03 20:18:27</time>
      </trkpt>
      <trkpt lat="29.00856" lon="-13.67628">
        <ele>346.6</ele>
        <time>2021-07-03 20:18:28</time>
      </trkpt>
      <trkpt lat="29.00853" lon="-13.67624">
        <ele>346.6</ele>
        <time>2021-07-03 20:18:29</time>
      </trkpt>
      <trkpt lat="29.00849" lon="-13.6762">
        <ele>346.6</ele>
        <time>2021-07-03 20:18:30</time>
      </trkpt>
      <trkpt lat="29.00846" lon="-13.67617">
        <ele>346.2</ele>
        <time>2021-07-03 20:18:31</time>
      </trkpt>
      <trkpt lat="29.00842" lon="-13.67613">
        <ele>346.2</ele>
        <time>2021-07-03 20:18:32</time>
      </trkpt>
      <trkpt lat="29.00839" lon="-13.67609">
        <ele>346.2</ele>
        <time>2021-07-03 20:18:33</time>
      </trkpt>
      <trkpt lat="29.00836" lon="-13.67606">
        <ele>346.2</ele>
        <time>2021-07-03 20:18:34</time>
      </trkpt>
      <trkpt lat="29.00834" lon="-13.67604">
        <ele>346</ele>
        <time>2021-07-03 20:18:35</time>
      </trkpt>
      <trkpt lat="29.00832" lon="-13.67602">
        <ele>346</ele>
        <time>2021-07-03 20:18:36</time>
      </trkpt>
      <trkpt lat="29.0083" lon="-13.676">
        <ele>346</ele>
        <time>2021-07-03 20:18:37</time>
      </trkpt>
      <trkpt lat="29.00827" lon="-13.67597">
        <ele>346</ele>
        <time>2021-07-03 20:18:38</time>
      </trkpt>
      <trkpt lat="29.00824" lon="-13.67594">
        <ele>346</ele>
        <time>2021-07-03 20:18:39</time>
      </trkpt>
      <trkpt lat="29.00821" lon="-13.67592">
        <ele>346.2</ele>
        <time>2021-07-03 20:18:40</time>
      </trkpt>
      <trkpt lat="29.00818" lon="-13.6759">
        <ele>346.2</ele>
        <time>2021-07-03 20:18:41</time>
      </trkpt>
      <trkpt lat="29.00815" lon="-13.67588">
        <ele>346.2</ele>
        <time>2021-07-03 20:18:42</time>
      </trkpt>
      <trkpt lat="29.00811" lon="-13.67587">
        <ele>346.2</ele>
        <time>2021-07-03 20:18:43</time>
      </trkpt>
      <trkpt lat="29.00807" lon="-13.67586">
        <ele>346.2</ele>
        <time>2021-07-03 20:18:44</time>
      </trkpt>
      <trkpt lat="29.00803" lon="-13.67585">
        <ele>346.2</ele>
        <time>2021-07-03 20:18:45</time>
      </trkpt>
      <trkpt lat="29.00799" lon="-13.67585">
        <ele>346.2</ele>
        <time>2021-07-03 20:18:46</time>
      </trkpt>
      <trkpt lat="29.00794" lon="-13.67584">
        <ele>346.2</ele>
        <time>2021-07-03 20:18:47</time>
      </trkpt>
      <trkpt lat="29.00789" lon="-13.67584">
        <ele>346</ele>
        <time>2021-07-03 20:18:48</time>
      </trkpt>
      <trkpt lat="29.00785" lon="-13.67583">
        <ele>346</ele>
        <time>2021-07-03 20:18:49</time>
      </trkpt>
      <trkpt lat="29.00781" lon="-13.67583">
        <ele>346</ele>
        <time>2021-07-03 20:18:50</time>
      </trkpt>
      <trkpt lat="29.00778" lon="-13.67583">
        <ele>346</ele>
        <time>2021-07-03 20:18:51</time>
      </trkpt>
      <trkpt lat="29.00774" lon="-13.67582">
        <ele>346</ele>
        <time>2021-07-03 20:18:52</time>
      </trkpt>
      <trkpt lat="29.00771" lon="-13.6758">
        <ele>346.4</ele>
        <time>2021-07-03 20:18:53</time>
      </trkpt>
      <trkpt lat="29.00768" lon="-13.6758">
        <ele>346.4</ele>
        <time>2021-07-03 20:18:54</time>
      </trkpt>
      <trkpt lat="29.00764" lon="-13.67578">
        <ele>346.8</ele>
        <time>2021-07-03 20:18:55</time>
      </trkpt>
      <trkpt lat="29.0076" lon="-13.67577">
        <ele>346.8</ele>
        <time>2021-07-03 20:18:56</time>
      </trkpt>
      <trkpt lat="29.00757" lon="-13.67576">
        <ele>347</ele>
        <time>2021-07-03 20:18:57</time>
      </trkpt>
      <trkpt lat="29.00753" lon="-13.67575">
        <ele>347</ele>
        <time>2021-07-03 20:18:58</time>
      </trkpt>
      <trkpt lat="29.0075" lon="-13.67574">
        <ele>347.2</ele>
        <time>2021-07-03 20:18:59</time>
      </trkpt>
      <trkpt lat="29.00748" lon="-13.67573">
        <ele>347.2</ele>
        <time>2021-07-03 20:19:00</time>
      </trkpt>
      <trkpt lat="29.00745" lon="-13.67572">
        <ele>347.2</ele>
        <time>2021-07-03 20:19:01</time>
      </trkpt>
      <trkpt lat="29.00742" lon="-13.6757">
        <ele>347.2</ele>
        <time>2021-07-03 20:19:02</time>
      </trkpt>
      <trkpt lat="29.00738" lon="-13.67569">
        <ele>347.2</ele>
        <time>2021-07-03 20:19:03</time>
      </trkpt>
      <trkpt lat="29.00734" lon="-13.67567">
        <ele>347.2</ele>
        <time>2021-07-03 20:19:04</time>
      </trkpt>
      <trkpt lat="29.0073" lon="-13.67566">
        <ele>346.8</ele>
        <time>2021-07-03 20:19:05</time>
      </trkpt>
      <trkpt lat="29.00726" lon="-13.67564">
        <ele>346.8</ele>
        <time>2021-07-03 20:19:06</time>
      </trkpt>
      <trkpt lat="29.00722" lon="-13.67562">
        <ele>346.4</ele>
        <time>2021-07-03 20:19:07</time>
      </trkpt>
      <trkpt lat="29.00719" lon="-13.67561">
        <ele>346.4</ele>
        <time>2021-07-03 20:19:08</time>
      </trkpt>
      <trkpt lat="29.00716" lon="-13.6756">
        <ele>346.4</ele>
        <time>2021-07-03 20:19:09</time>
      </trkpt>
      <trkpt lat="29.00713" lon="-13.67559">
        <ele>346.4</ele>
        <time>2021-07-03 20:19:10</time>
      </trkpt>
      <trkpt lat="29.00711" lon="-13.67559">
        <ele>346.6</ele>
        <time>2021-07-03 20:19:11</time>
      </trkpt>
      <trkpt lat="29.00709" lon="-13.67559">
        <ele>347</ele>
        <time>2021-07-03 20:19:12</time>
      </trkpt>
      <trkpt lat="29.00707" lon="-13.67559">
        <ele>347.2</ele>
        <time>2021-07-03 20:19:13</time>
      </trkpt>
      <trkpt lat="29.00706" lon="-13.67558">
        <ele>347.4</ele>
        <time>2021-07-03 20:19:14</time>
      </trkpt>
      <trkpt lat="29.00706" lon="-13.67559">
        <ele>347.8</ele>
        <time>2021-07-03 20:19:15</time>
      </trkpt>
      <trkpt lat="29.00706" lon="-13.67559">
        <ele>348.2</ele>
        <time>2021-07-03 20:19:16</time>
      </trkpt>
      <trkpt lat="29.00706" lon="-13.67559">
        <ele>348.4</ele>
        <time>2021-07-03 20:19:17</time>
      </trkpt>
      <trkpt lat="29.00704" lon="-13.67558">
        <ele>348.4</ele>
        <time>2021-07-03 20:19:18</time>
      </trkpt>
      <trkpt lat="29.00701" lon="-13.67557">
        <ele>348.4</ele>
        <time>2021-07-03 20:19:19</time>
      </trkpt>
      <trkpt lat="29.00697" lon="-13.67557">
        <ele>348.2</ele>
        <time>2021-07-03 20:19:20</time>
      </trkpt>
      <trkpt lat="29.00693" lon="-13.67557">
        <ele>348.2</ele>
        <time>2021-07-03 20:19:21</time>
      </trkpt>
      <trkpt lat="29.00688" lon="-13.67557">
        <ele>347.6</ele>
        <time>2021-07-03 20:19:22</time>
      </trkpt>
      <trkpt lat="29.00682" lon="-13.67559">
        <ele>347.4</ele>
        <time>2021-07-03 20:19:23</time>
      </trkpt>
      <trkpt lat="29.00677" lon="-13.67561">
        <ele>347.4</ele>
        <time>2021-07-03 20:19:24</time>
      </trkpt>
      <trkpt lat="29.00672" lon="-13.67563">
        <ele>347</ele>
        <time>2021-07-03 20:19:25</time>
      </trkpt>
      <trkpt lat="29.00666" lon="-13.67564">
        <ele>347</ele>
        <time>2021-07-03 20:19:26</time>
      </trkpt>
      <trkpt lat="29.00661" lon="-13.67566">
        <ele>346.8</ele>
        <time>2021-07-03 20:19:27</time>
      </trkpt>
      <trkpt lat="29.00655" lon="-13.67566">
        <ele>346.8</ele>
        <time>2021-07-03 20:19:28</time>
      </trkpt>
      <trkpt lat="29.00649" lon="-13.67567">
        <ele>346.8</ele>
        <time>2021-07-03 20:19:29</time>
      </trkpt>
      <trkpt lat="29.00643" lon="-13.67566">
        <ele>346.8</ele>
        <time>2021-07-03 20:19:30</time>
      </trkpt>
      <trkpt lat="29.00638" lon="-13.67565">
        <ele>346.8</ele>
        <time>2021-07-03 20:19:31</time>
      </trkpt>
      <trkpt lat="29.00633" lon="-13.67564">
        <ele>346.8</ele>
        <time>2021-07-03 20:19:32</time>
      </trkpt>
      <trkpt lat="29.00629" lon="-13.67564">
        <ele>347.2</ele>
        <time>2021-07-03 20:19:33</time>
      </trkpt>
      <trkpt lat="29.00626" lon="-13.67563">
        <ele>347.4</ele>
        <time>2021-07-03 20:19:34</time>
      </trkpt>
      <trkpt lat="29.00622" lon="-13.67563">
        <ele>347.6</ele>
        <time>2021-07-03 20:19:35</time>
      </trkpt>
      <trkpt lat="29.00619" lon="-13.67562">
        <ele>348</ele>
        <time>2021-07-03 20:19:36</time>
      </trkpt>
      <trkpt lat="29.00616" lon="-13.67563">
        <ele>348.4</ele>
        <time>2021-07-03 20:19:37</time>
      </trkpt>
      <trkpt lat="29.00613" lon="-13.67563">
        <ele>348.8</ele>
        <time>2021-07-03 20:19:38</time>
      </trkpt>
      <trkpt lat="29.0061" lon="-13.67564">
        <ele>349.2</ele>
        <time>2021-07-03 20:19:39</time>
      </trkpt>
      <trkpt lat="29.00608" lon="-13.67565">
        <ele>349.6</ele>
        <time>2021-07-03 20:19:40</time>
      </trkpt>
      <trkpt lat="29.00605" lon="-13.67565">
        <ele>350</ele>
        <time>2021-07-03 20:19:41</time>
      </trkpt>
      <trkpt lat="29.00603" lon="-13.67566">
        <ele>350.2</ele>
        <time>2021-07-03 20:19:42</time>
      </trkpt>
      <trkpt lat="29.00601" lon="-13.67567">
        <ele>350.6</ele>
        <time>2021-07-03 20:19:43</time>
      </trkpt>
      <trkpt lat="29.00598" lon="-13.67568">
        <ele>350.8</ele>
        <time>2021-07-03 20:19:44</time>
      </trkpt>
      <trkpt lat="29.00596" lon="-13.67569">
        <ele>351</ele>
        <time>2021-07-03 20:19:45</time>
      </trkpt>
      <trkpt lat="29.00594" lon="-13.6757">
        <ele>351</ele>
        <time>2021-07-03 20:19:46</time>
      </trkpt>
      <trkpt lat="29.00592" lon="-13.67571">
        <ele>351.4</ele>
        <time>2021-07-03 20:19:47</time>
      </trkpt>
      <trkpt lat="29.0059" lon="-13.67572">
        <ele>351.8</ele>
        <time>2021-07-03 20:19:48</time>
      </trkpt>
      <trkpt lat="29.00588" lon="-13.67573">
        <ele>351.8</ele>
        <time>2021-07-03 20:19:49</time>
      </trkpt>
      <trkpt lat="29.00586" lon="-13.67574">
        <ele>352</ele>
        <time>2021-07-03 20:19:50</time>
      </trkpt>
      <trkpt lat="29.00584" lon="-13.67574">
        <ele>352</ele>
        <time>2021-07-03 20:19:51</time>
      </trkpt>
      <trkpt lat="29.00582" lon="-13.67575">
        <ele>352.2</ele>
        <time>2021-07-03 20:19:52</time>
      </trkpt>
      <trkpt lat="29.00581" lon="-13.67575">
        <ele>352.2</ele>
        <time>2021-07-03 20:19:53</time>
      </trkpt>
      <trkpt lat="29.0058" lon="-13.67576">
        <ele>352.6</ele>
        <time>2021-07-03 20:19:54</time>
      </trkpt>
      <trkpt lat="29.00578" lon="-13.67576">
        <ele>352.6</ele>
        <time>2021-07-03 20:19:55</time>
      </trkpt>
      <trkpt lat="29.00576" lon="-13.67577">
        <ele>353</ele>
        <time>2021-07-03 20:19:56</time>
      </trkpt>
      <trkpt lat="29.00574" lon="-13.67578">
        <ele>353.2</ele>
        <time>2021-07-03 20:19:57</time>
      </trkpt>
      <trkpt lat="29.00572" lon="-13.67579">
        <ele>353.4</ele>
        <time>2021-07-03 20:19:58</time>
      </trkpt>
      <trkpt lat="29.0057" lon="-13.6758">
        <ele>353.8</ele>
        <time>2021-07-03 20:19:59</time>
      </trkpt>
      <trkpt lat="29.00567" lon="-13.67581">
        <ele>354</ele>
        <time>2021-07-03 20:20:00</time>
      </trkpt>
      <trkpt lat="29.00565" lon="-13.67583">
        <ele>354.2</ele>
        <time>2021-07-03 20:20:01</time>
      </trkpt>
      <trkpt lat="29.00563" lon="-13.67585">
        <ele>354.6</ele>
        <time>2021-07-03 20:20:02</time>
      </trkpt>
      <trkpt lat="29.00561" lon="-13.67587">
        <ele>354.8</ele>
        <time>2021-07-03 20:20:03</time>
      </trkpt>
      <trkpt lat="29.00559" lon="-13.67588">
        <ele>354.8</ele>
        <time>2021-07-03 20:20:04</time>
      </trkpt>
      <trkpt lat="29.00557" lon="-13.6759">
        <ele>355</ele>
        <time>2021-07-03 20:20:05</time>
      </trkpt>
      <trkpt lat="29.00554" lon="-13.67591">
        <ele>355</ele>
        <time>2021-07-03 20:20:06</time>
      </trkpt>
      <trkpt lat="29.00552" lon="-13.67592">
        <ele>355.2</ele>
        <time>2021-07-03 20:20:07</time>
      </trkpt>
      <trkpt lat="29.00549" lon="-13.67593">
        <ele>355.2</ele>
        <time>2021-07-03 20:20:08</time>
      </trkpt>
      <trkpt lat="29.00547" lon="-13.67593">
        <ele>355.6</ele>
        <time>2021-07-03 20:20:09</time>
      </trkpt>
      <trkpt lat="29.00545" lon="-13.67593">
        <ele>355.6</ele>
        <time>2021-07-03 20:20:10</time>
      </trkpt>
      <trkpt lat="29.00542" lon="-13.67594">
        <ele>355.8</ele>
        <time>2021-07-03 20:20:11</time>
      </trkpt>
      <trkpt lat="29.0054" lon="-13.67594">
        <ele>355.8</ele>
        <time>2021-07-03 20:20:12</time>
      </trkpt>
      <trkpt lat="29.00537" lon="-13.67594">
        <ele>356.2</ele>
        <time>2021-07-03 20:20:13</time>
      </trkpt>
      <trkpt lat="29.00535" lon="-13.67594">
        <ele>356.2</ele>
        <time>2021-07-03 20:20:14</time>
      </trkpt>
      <trkpt lat="29.00532" lon="-13.67594">
        <ele>356.6</ele>
        <time>2021-07-03 20:20:15</time>
      </trkpt>
      <trkpt lat="29.0053" lon="-13.67594">
        <ele>356.8</ele>
        <time>2021-07-03 20:20:16</time>
      </trkpt>
      <trkpt lat="29.00527" lon="-13.67594">
        <ele>357</ele>
        <time>2021-07-03 20:20:17</time>
      </trkpt>
      <trkpt lat="29.00525" lon="-13.67594">
        <ele>357.4</ele>
        <time>2021-07-03 20:20:18</time>
      </trkpt>
      <trkpt lat="29.00522" lon="-13.67594">
        <ele>357</ele>
        <time>2021-07-03 20:20:19</time>
      </trkpt>
      <trkpt lat="29.00509" lon="-13.67595">
        <ele>357.2</ele>
        <time>2021-07-03 20:20:20</time>
      </trkpt>
      <trkpt lat="29.00506" lon="-13.67596">
        <ele>357</ele>
        <time>2021-07-03 20:20:21</time>
      </trkpt>
      <trkpt lat="29.00502" lon="-13.67597">
        <ele>357</ele>
        <time>2021-07-03 20:20:22</time>
      </trkpt>
      <trkpt lat="29.00499" lon="-13.67598">
        <ele>356.6</ele>
        <time>2021-07-03 20:20:23</time>
      </trkpt>
      <trkpt lat="29.00495" lon="-13.67599">
        <ele>356.6</ele>
        <time>2021-07-03 20:20:24</time>
      </trkpt>
      <trkpt lat="29.00491" lon="-13.676">
        <ele>356.4</ele>
        <time>2021-07-03 20:20:25</time>
      </trkpt>
      <trkpt lat="29.00487" lon="-13.67603">
        <ele>356.4</ele>
        <time>2021-07-03 20:20:26</time>
      </trkpt>
      <trkpt lat="29.00483" lon="-13.67605">
        <ele>355.8</ele>
        <time>2021-07-03 20:20:27</time>
      </trkpt>
      <trkpt lat="29.00479" lon="-13.67608">
        <ele>355.6</ele>
        <time>2021-07-03 20:20:28</time>
      </trkpt>
      <trkpt lat="29.00476" lon="-13.67611">
        <ele>355.4</ele>
        <time>2021-07-03 20:20:29</time>
      </trkpt>
      <trkpt lat="29.00471" lon="-13.67613">
        <ele>355</ele>
        <time>2021-07-03 20:20:30</time>
      </trkpt>
      <trkpt lat="29.00468" lon="-13.67617">
        <ele>354.8</ele>
        <time>2021-07-03 20:20:31</time>
      </trkpt>
      <trkpt lat="29.00463" lon="-13.6762">
        <ele>354.6</ele>
        <time>2021-07-03 20:20:32</time>
      </trkpt>
      <trkpt lat="29.00459" lon="-13.67624">
        <ele>354.2</ele>
        <time>2021-07-03 20:20:33</time>
      </trkpt>
      <trkpt lat="29.00455" lon="-13.67628">
        <ele>354</ele>
        <time>2021-07-03 20:20:34</time>
      </trkpt>
      <trkpt lat="29.00451" lon="-13.67632">
        <ele>353.8</ele>
        <time>2021-07-03 20:20:35</time>
      </trkpt>
      <trkpt lat="29.00447" lon="-13.67636">
        <ele>353.4</ele>
        <time>2021-07-03 20:20:36</time>
      </trkpt>
      <trkpt lat="29.00442" lon="-13.6764">
        <ele>353.4</ele>
        <time>2021-07-03 20:20:37</time>
      </trkpt>
      <trkpt lat="29.00433" lon="-13.67647">
        <ele>352.8</ele>
        <time>2021-07-03 20:20:38</time>
      </trkpt>
      <trkpt lat="29.00428" lon="-13.67651">
        <ele>352.8</ele>
        <time>2021-07-03 20:20:39</time>
      </trkpt>
      <trkpt lat="29.00423" lon="-13.67654">
        <ele>352.6</ele>
        <time>2021-07-03 20:20:40</time>
      </trkpt>
      <trkpt lat="29.00419" lon="-13.67657">
        <ele>352.6</ele>
        <time>2021-07-03 20:20:41</time>
      </trkpt>
      <trkpt lat="29.00414" lon="-13.67659">
        <ele>352.4</ele>
        <time>2021-07-03 20:20:42</time>
      </trkpt>
      <trkpt lat="29.0041" lon="-13.67662">
        <ele>352.4</ele>
        <time>2021-07-03 20:20:43</time>
      </trkpt>
      <trkpt lat="29.00407" lon="-13.67663">
        <ele>352.4</ele>
        <time>2021-07-03 20:20:44</time>
      </trkpt>
      <trkpt lat="29.00405" lon="-13.67664">
        <ele>352.4</ele>
        <time>2021-07-03 20:20:56</time>
      </trkpt>
      <trkpt lat="29.00404" lon="-13.67665">
        <ele>352.4</ele>
        <time>2021-07-03 20:20:57</time>
      </trkpt>
      <trkpt lat="29.00404" lon="-13.67665">
        <ele>352.4</ele>
        <time>2021-07-03 20:20:58</time>
      </trkpt>
      <trkpt lat="29.00404" lon="-13.67665">
        <ele>352.2</ele>
        <time>2021-07-03 20:20:59</time>
      </trkpt>
      <trkpt lat="29.00404" lon="-13.67665">
        <ele>352.2</ele>
        <time>2021-07-03 20:21:00</time>
      </trkpt>
      <trkpt lat="29.00404" lon="-13.67665">
        <ele>352.2</ele>
        <time>2021-07-03 20:21:01</time>
      </trkpt>
      <trkpt lat="29.004" lon="-13.67667">
        <ele>352.2</ele>
        <time>2021-07-03 20:21:02</time>
      </trkpt>
      <trkpt lat="29.00398" lon="-13.67668">
        <ele>352.2</ele>
        <time>2021-07-03 20:21:03</time>
      </trkpt>
      <trkpt lat="29.00395" lon="-13.67669">
        <ele>352</ele>
        <time>2021-07-03 20:21:04</time>
      </trkpt>
      <trkpt lat="29.00391" lon="-13.6767">
        <ele>352</ele>
        <time>2021-07-03 20:21:05</time>
      </trkpt>
      <trkpt lat="29.00388" lon="-13.6767">
        <ele>352</ele>
        <time>2021-07-03 20:21:06</time>
      </trkpt>
      <trkpt lat="29.00384" lon="-13.67671">
        <ele>352</ele>
        <time>2021-07-03 20:21:07</time>
      </trkpt>
      <trkpt lat="29.00381" lon="-13.67672">
        <ele>352</ele>
        <time>2021-07-03 20:21:08</time>
      </trkpt>
      <trkpt lat="29.00378" lon="-13.67673">
        <ele>352</ele>
        <time>2021-07-03 20:21:09</time>
      </trkpt>
      <trkpt lat="29.00376" lon="-13.67674">
        <ele>352</ele>
        <time>2021-07-03 20:21:10</time>
      </trkpt>
      <trkpt lat="29.00375" lon="-13.67675">
        <ele>352.2</ele>
        <time>2021-07-03 20:21:11</time>
      </trkpt>
      <trkpt lat="29.00374" lon="-13.67676">
        <ele>352.2</ele>
        <time>2021-07-03 20:21:12</time>
      </trkpt>
      <trkpt lat="29.00373" lon="-13.67676">
        <ele>352.2</ele>
        <time>2021-07-03 20:21:13</time>
      </trkpt>
      <trkpt lat="29.00374" lon="-13.67676">
        <ele>352.2</ele>
        <time>2021-07-03 20:21:14</time>
      </trkpt>
      <trkpt lat="29.00374" lon="-13.67676">
        <ele>352.2</ele>
        <time>2021-07-03 20:21:15</time>
      </trkpt>
      <trkpt lat="29.00374" lon="-13.67676">
        <ele>352.2</ele>
        <time>2021-07-03 20:21:16</time>
      </trkpt>
      <trkpt lat="29.00372" lon="-13.67677">
        <ele>352</ele>
        <time>2021-07-03 20:21:17</time>
      </trkpt>
      <trkpt lat="29.0037" lon="-13.67678">
        <ele>352</ele>
        <time>2021-07-03 20:21:18</time>
      </trkpt>
      <trkpt lat="29.00368" lon="-13.6768">
        <ele>352</ele>
        <time>2021-07-03 20:21:19</time>
      </trkpt>
      <trkpt lat="29.00367" lon="-13.67682">
        <ele>352.2</ele>
        <time>2021-07-03 20:21:20</time>
      </trkpt>
      <trkpt lat="29.00364" lon="-13.67685">
        <ele>352.2</ele>
        <time>2021-07-03 20:21:21</time>
      </trkpt>
      <trkpt lat="29.00362" lon="-13.67688">
        <ele>352.2</ele>
        <time>2021-07-03 20:21:22</time>
      </trkpt>
      <trkpt lat="29.0036" lon="-13.67691">
        <ele>352.2</ele>
        <time>2021-07-03 20:21:23</time>
      </trkpt>
      <trkpt lat="29.00358" lon="-13.67695">
        <ele>352.4</ele>
        <time>2021-07-03 20:21:24</time>
      </trkpt>
      <trkpt lat="29.00357" lon="-13.677">
        <ele>352.4</ele>
        <time>2021-07-03 20:21:25</time>
      </trkpt>
      <trkpt lat="29.00356" lon="-13.67704">
        <ele>352.8</ele>
        <time>2021-07-03 20:21:26</time>
      </trkpt>
      <trkpt lat="29.00356" lon="-13.6771">
        <ele>352.8</ele>
        <time>2021-07-03 20:21:27</time>
      </trkpt>
      <trkpt lat="29.00354" lon="-13.67715">
        <ele>352.8</ele>
        <time>2021-07-03 20:21:28</time>
      </trkpt>
      <trkpt lat="29.00352" lon="-13.6772">
        <ele>352.8</ele>
        <time>2021-07-03 20:21:29</time>
      </trkpt>
      <trkpt lat="29.00351" lon="-13.67725">
        <ele>352.8</ele>
        <time>2021-07-03 20:21:30</time>
      </trkpt>
      <trkpt lat="29.00349" lon="-13.67729">
        <ele>352.8</ele>
        <time>2021-07-03 20:21:31</time>
      </trkpt>
      <trkpt lat="29.00348" lon="-13.67733">
        <ele>352.8</ele>
        <time>2021-07-03 20:21:32</time>
      </trkpt>
      <trkpt lat="29.00347" lon="-13.67737">
        <ele>353</ele>
        <time>2021-07-03 20:21:33</time>
      </trkpt>
      <trkpt lat="29.00346" lon="-13.67741">
        <ele>353</ele>
        <time>2021-07-03 20:21:34</time>
      </trkpt>
      <trkpt lat="29.00345" lon="-13.67745">
        <ele>353</ele>
        <time>2021-07-03 20:21:35</time>
      </trkpt>
      <trkpt lat="29.00343" lon="-13.6775">
        <ele>352.8</ele>
        <time>2021-07-03 20:21:36</time>
      </trkpt>
      <trkpt lat="29.00342" lon="-13.67755">
        <ele>352.8</ele>
        <time>2021-07-03 20:21:37</time>
      </trkpt>
      <trkpt lat="29.0034" lon="-13.67759">
        <ele>352.8</ele>
        <time>2021-07-03 20:21:38</time>
      </trkpt>
      <trkpt lat="29.00339" lon="-13.67764">
        <ele>352.8</ele>
        <time>2021-07-03 20:21:39</time>
      </trkpt>
      <trkpt lat="29.00338" lon="-13.67769">
        <ele>352.8</ele>
        <time>2021-07-03 20:21:40</time>
      </trkpt>
      <trkpt lat="29.00336" lon="-13.67774">
        <ele>352.8</ele>
        <time>2021-07-03 20:21:41</time>
      </trkpt>
      <trkpt lat="29.00334" lon="-13.67779">
        <ele>352.8</ele>
        <time>2021-07-03 20:21:42</time>
      </trkpt>
      <trkpt lat="29.00333" lon="-13.67783">
        <ele>352.8</ele>
        <time>2021-07-03 20:21:43</time>
      </trkpt>
      <trkpt lat="29.00332" lon="-13.67787">
        <ele>352.8</ele>
        <time>2021-07-03 20:21:44</time>
      </trkpt>
      <trkpt lat="29.0033" lon="-13.67792">
        <ele>352.8</ele>
        <time>2021-07-03 20:21:45</time>
      </trkpt>
      <trkpt lat="29.00328" lon="-13.67796">
        <ele>352.8</ele>
        <time>2021-07-03 20:21:46</time>
      </trkpt>
      <trkpt lat="29.00326" lon="-13.67801">
        <ele>352.8</ele>
        <time>2021-07-03 20:21:47</time>
      </trkpt>
      <trkpt lat="29.00324" lon="-13.67805">
        <ele>352.8</ele>
        <time>2021-07-03 20:21:48</time>
      </trkpt>
      <trkpt lat="29.00323" lon="-13.6781">
        <ele>353</ele>
        <time>2021-07-03 20:22:03</time>
      </trkpt>
      <trkpt lat="29.00321" lon="-13.67814">
        <ele>353</ele>
        <time>2021-07-03 20:22:04</time>
      </trkpt>
      <trkpt lat="29.00319" lon="-13.67817">
        <ele>353</ele>
        <time>2021-07-03 20:22:05</time>
      </trkpt>
      <trkpt lat="29.00317" lon="-13.67821">
        <ele>353.2</ele>
        <time>2021-07-03 20:22:06</time>
      </trkpt>
      <trkpt lat="29.00316" lon="-13.67825">
        <ele>353.2</ele>
        <time>2021-07-03 20:22:07</time>
      </trkpt>
      <trkpt lat="29.00314" lon="-13.67829">
        <ele>353.2</ele>
        <time>2021-07-03 20:22:08</time>
      </trkpt>
      <trkpt lat="29.00312" lon="-13.67834">
        <ele>353.6</ele>
        <time>2021-07-03 20:22:09</time>
      </trkpt>
      <trkpt lat="29.00311" lon="-13.67839">
        <ele>353.6</ele>
        <time>2021-07-03 20:22:10</time>
      </trkpt>
      <trkpt lat="29.00308" lon="-13.67843">
        <ele>353.8</ele>
        <time>2021-07-03 20:22:11</time>
      </trkpt>
      <trkpt lat="29.00307" lon="-13.67847">
        <ele>354.2</ele>
        <time>2021-07-03 20:22:12</time>
      </trkpt>
      <trkpt lat="29.00307" lon="-13.6785">
        <ele>354.4</ele>
        <time>2021-07-03 20:22:13</time>
      </trkpt>
      <trkpt lat="29.00306" lon="-13.67854">
        <ele>354.4</ele>
        <time>2021-07-03 20:22:14</time>
      </trkpt>
      <trkpt lat="29.00304" lon="-13.67858">
        <ele>354.6</ele>
        <time>2021-07-03 20:22:15</time>
      </trkpt>
      <trkpt lat="29.00303" lon="-13.67861">
        <ele>354.6</ele>
        <time>2021-07-03 20:22:16</time>
      </trkpt>
      <trkpt lat="29.00303" lon="-13.67864">
        <ele>354.6</ele>
        <time>2021-07-03 20:22:17</time>
      </trkpt>
      <trkpt lat="29.00302" lon="-13.67868">
        <ele>354.6</ele>
        <time>2021-07-03 20:22:18</time>
      </trkpt>
      <trkpt lat="29.00301" lon="-13.67871">
        <ele>354.6</ele>
        <time>2021-07-03 20:22:19</time>
      </trkpt>
      <trkpt lat="29.003" lon="-13.67875">
        <ele>354.6</ele>
        <time>2021-07-03 20:22:20</time>
      </trkpt>
      <trkpt lat="29.00299" lon="-13.67879">
        <ele>354.6</ele>
        <time>2021-07-03 20:22:21</time>
      </trkpt>
      <trkpt lat="29.00298" lon="-13.67883">
        <ele>354.6</ele>
        <time>2021-07-03 20:22:22</time>
      </trkpt>
      <trkpt lat="29.00297" lon="-13.67887">
        <ele>354.8</ele>
        <time>2021-07-03 20:22:23</time>
      </trkpt>
      <trkpt lat="29.00296" lon="-13.67892">
        <ele>354.8</ele>
        <time>2021-07-03 20:22:24</time>
      </trkpt>
      <trkpt lat="29.00296" lon="-13.67896">
        <ele>354.8</ele>
        <time>2021-07-03 20:22:25</time>
      </trkpt>
      <trkpt lat="29.00295" lon="-13.67901">
        <ele>355.2</ele>
        <time>2021-07-03 20:22:26</time>
      </trkpt>
      <trkpt lat="29.00294" lon="-13.67905">
        <ele>355.2</ele>
        <time>2021-07-03 20:22:27</time>
      </trkpt>
      <trkpt lat="29.00294" lon="-13.6791">
        <ele>355.4</ele>
        <time>2021-07-03 20:22:28</time>
      </trkpt>
      <trkpt lat="29.00293" lon="-13.67915">
        <ele>355.4</ele>
        <time>2021-07-03 20:22:29</time>
      </trkpt>
      <trkpt lat="29.00293" lon="-13.67919">
        <ele>355.8</ele>
        <time>2021-07-03 20:22:30</time>
      </trkpt>
      <trkpt lat="29.00292" lon="-13.67923">
        <ele>355.8</ele>
        <time>2021-07-03 20:22:31</time>
      </trkpt>
      <trkpt lat="29.00292" lon="-13.67928">
        <ele>355.8</ele>
        <time>2021-07-03 20:22:32</time>
      </trkpt>
      <trkpt lat="29.00292" lon="-13.67931">
        <ele>356</ele>
        <time>2021-07-03 20:22:33</time>
      </trkpt>
      <trkpt lat="29.00291" lon="-13.67935">
        <ele>356</ele>
        <time>2021-07-03 20:22:34</time>
      </trkpt>
      <trkpt lat="29.00291" lon="-13.67939">
        <ele>356</ele>
        <time>2021-07-03 20:22:35</time>
      </trkpt>
      <trkpt lat="29.0029" lon="-13.67943">
        <ele>356</ele>
        <time>2021-07-03 20:22:36</time>
      </trkpt>
      <trkpt lat="29.00289" lon="-13.67947">
        <ele>356</ele>
        <time>2021-07-03 20:22:37</time>
      </trkpt>
      <trkpt lat="29.00288" lon="-13.67951">
        <ele>356</ele>
        <time>2021-07-03 20:22:38</time>
      </trkpt>
      <trkpt lat="29.00287" lon="-13.67956">
        <ele>356</ele>
        <time>2021-07-03 20:22:39</time>
      </trkpt>
      <trkpt lat="29.00287" lon="-13.67959">
        <ele>356</ele>
        <time>2021-07-03 20:22:40</time>
      </trkpt>
      <trkpt lat="29.00286" lon="-13.67963">
        <ele>356</ele>
        <time>2021-07-03 20:22:41</time>
      </trkpt>
      <trkpt lat="29.00286" lon="-13.67966">
        <ele>355.6</ele>
        <time>2021-07-03 20:22:42</time>
      </trkpt>
      <trkpt lat="29.00285" lon="-13.67969">
        <ele>355.6</ele>
        <time>2021-07-03 20:22:43</time>
      </trkpt>
      <trkpt lat="29.00285" lon="-13.67972">
        <ele>355.6</ele>
        <time>2021-07-03 20:22:44</time>
      </trkpt>
      <trkpt lat="29.00284" lon="-13.67976">
        <ele>355.4</ele>
        <time>2021-07-03 20:22:45</time>
      </trkpt>
      <trkpt lat="29.00284" lon="-13.6798">
        <ele>355.4</ele>
        <time>2021-07-03 20:22:46</time>
      </trkpt>
      <trkpt lat="29.00284" lon="-13.67984">
        <ele>355.4</ele>
        <time>2021-07-03 20:22:47</time>
      </trkpt>
      <trkpt lat="29.00284" lon="-13.67988">
        <ele>355.2</ele>
        <time>2021-07-03 20:22:48</time>
      </trkpt>
      <trkpt lat="29.00284" lon="-13.67992">
        <ele>355.2</ele>
        <time>2021-07-03 20:22:49</time>
      </trkpt>
      <trkpt lat="29.00285" lon="-13.67996">
        <ele>355.2</ele>
        <time>2021-07-03 20:22:50</time>
      </trkpt>
      <trkpt lat="29.00284" lon="-13.68">
        <ele>355.2</ele>
        <time>2021-07-03 20:22:51</time>
      </trkpt>
      <trkpt lat="29.00284" lon="-13.68005">
        <ele>354.8</ele>
        <time>2021-07-03 20:22:52</time>
      </trkpt>
      <trkpt lat="29.00284" lon="-13.68009">
        <ele>354.8</ele>
        <time>2021-07-03 20:22:53</time>
      </trkpt>
      <trkpt lat="29.00284" lon="-13.68013">
        <ele>354.8</ele>
        <time>2021-07-03 20:22:54</time>
      </trkpt>
      <trkpt lat="29.00284" lon="-13.68017">
        <ele>354.8</ele>
        <time>2021-07-03 20:22:55</time>
      </trkpt>
      <trkpt lat="29.00283" lon="-13.6802">
        <ele>354.6</ele>
        <time>2021-07-03 20:22:56</time>
      </trkpt>
      <trkpt lat="29.00282" lon="-13.68022">
        <ele>354.6</ele>
        <time>2021-07-03 20:22:57</time>
      </trkpt>
      <trkpt lat="29.00281" lon="-13.68024">
        <ele>354.6</ele>
        <time>2021-07-03 20:22:58</time>
      </trkpt>
      <trkpt lat="29.00279" lon="-13.68026">
        <ele>354.6</ele>
        <time>2021-07-03 20:22:59</time>
      </trkpt>
      <trkpt lat="29.00276" lon="-13.68028">
        <ele>354.6</ele>
        <time>2021-07-03 20:23:00</time>
      </trkpt>
      <trkpt lat="29.00273" lon="-13.6803">
        <ele>354.6</ele>
        <time>2021-07-03 20:23:01</time>
      </trkpt>
      <trkpt lat="29.00269" lon="-13.68033">
        <ele>354.4</ele>
        <time>2021-07-03 20:23:02</time>
      </trkpt>
      <trkpt lat="29.00265" lon="-13.68035">
        <ele>354.4</ele>
        <time>2021-07-03 20:23:03</time>
      </trkpt>
      <trkpt lat="29.00261" lon="-13.68037">
        <ele>354.4</ele>
        <time>2021-07-03 20:23:04</time>
      </trkpt>
      <trkpt lat="29.00257" lon="-13.6804">
        <ele>354.2</ele>
        <time>2021-07-03 20:23:05</time>
      </trkpt>
      <trkpt lat="29.00253" lon="-13.68042">
        <ele>354</ele>
        <time>2021-07-03 20:23:06</time>
      </trkpt>
      <trkpt lat="29.00249" lon="-13.68045">
        <ele>354</ele>
        <time>2021-07-03 20:23:07</time>
      </trkpt>
      <trkpt lat="29.00245" lon="-13.68047">
        <ele>353.6</ele>
        <time>2021-07-03 20:23:08</time>
      </trkpt>
      <trkpt lat="29.0024" lon="-13.6805">
        <ele>353.4</ele>
        <time>2021-07-03 20:23:09</time>
      </trkpt>
      <trkpt lat="29.00236" lon="-13.68052">
        <ele>353.4</ele>
        <time>2021-07-03 20:23:10</time>
      </trkpt>
      <trkpt lat="29.00231" lon="-13.68055">
        <ele>353</ele>
        <time>2021-07-03 20:23:11</time>
      </trkpt>
      <trkpt lat="29.00228" lon="-13.68058">
        <ele>353</ele>
        <time>2021-07-03 20:23:12</time>
      </trkpt>
      <trkpt lat="29.00224" lon="-13.68062">
        <ele>352.8</ele>
        <time>2021-07-03 20:23:13</time>
      </trkpt>
      <trkpt lat="29.00219" lon="-13.68063">
        <ele>352.8</ele>
        <time>2021-07-03 20:23:14</time>
      </trkpt>
      <trkpt lat="29.00215" lon="-13.68067">
        <ele>352.6</ele>
        <time>2021-07-03 20:23:15</time>
      </trkpt>
      <trkpt lat="29.00211" lon="-13.68069">
        <ele>352.6</ele>
        <time>2021-07-03 20:23:16</time>
      </trkpt>
      <trkpt lat="29.00207" lon="-13.68072">
        <ele>352.2</ele>
        <time>2021-07-03 20:23:17</time>
      </trkpt>
      <trkpt lat="29.00203" lon="-13.68074">
        <ele>352.2</ele>
        <time>2021-07-03 20:23:18</time>
      </trkpt>
      <trkpt lat="29.00199" lon="-13.68075">
        <ele>351.8</ele>
        <time>2021-07-03 20:23:19</time>
      </trkpt>
      <trkpt lat="29.00195" lon="-13.68078">
        <ele>351.8</ele>
        <time>2021-07-03 20:23:20</time>
      </trkpt>
      <trkpt lat="29.00192" lon="-13.68081">
        <ele>351.6</ele>
        <time>2021-07-03 20:23:21</time>
      </trkpt>
      <trkpt lat="29.00189" lon="-13.68085">
        <ele>351.6</ele>
        <time>2021-07-03 20:23:22</time>
      </trkpt>
      <trkpt lat="29.00185" lon="-13.68088">
        <ele>351.4</ele>
        <time>2021-07-03 20:23:23</time>
      </trkpt>
      <trkpt lat="29.00181" lon="-13.6809">
        <ele>351.4</ele>
        <time>2021-07-03 20:23:24</time>
      </trkpt>
      <trkpt lat="29.00177" lon="-13.68092">
        <ele>351.4</ele>
        <time>2021-07-03 20:23:25</time>
      </trkpt>
      <trkpt lat="29.00174" lon="-13.68096">
        <ele>351</ele>
        <time>2021-07-03 20:23:26</time>
      </trkpt>
      <trkpt lat="29.0017" lon="-13.68098">
        <ele>351</ele>
        <time>2021-07-03 20:23:27</time>
      </trkpt>
      <trkpt lat="29.00166" lon="-13.68102">
        <ele>351</ele>
        <time>2021-07-03 20:23:28</time>
      </trkpt>
      <trkpt lat="29.00163" lon="-13.68105">
        <ele>350.8</ele>
        <time>2021-07-03 20:23:29</time>
      </trkpt>
      <trkpt lat="29.00161" lon="-13.68108">
        <ele>350.8</ele>
        <time>2021-07-03 20:23:30</time>
      </trkpt>
      <trkpt lat="29.00158" lon="-13.68112">
        <ele>350.8</ele>
        <time>2021-07-03 20:23:31</time>
      </trkpt>
      <trkpt lat="29.00155" lon="-13.68114">
        <ele>350.8</ele>
        <time>2021-07-03 20:23:32</time>
      </trkpt>
      <trkpt lat="29.00152" lon="-13.68117">
        <ele>350.8</ele>
        <time>2021-07-03 20:23:33</time>
      </trkpt>
      <trkpt lat="29.00148" lon="-13.6812">
        <ele>350.8</ele>
        <time>2021-07-03 20:23:34</time>
      </trkpt>
      <trkpt lat="29.00145" lon="-13.68123">
        <ele>350.8</ele>
        <time>2021-07-03 20:23:35</time>
      </trkpt>
      <trkpt lat="29.00142" lon="-13.68126">
        <ele>350.8</ele>
        <time>2021-07-03 20:23:36</time>
      </trkpt>
      <trkpt lat="29.00138" lon="-13.6813">
        <ele>350.8</ele>
        <time>2021-07-03 20:23:37</time>
      </trkpt>
      <trkpt lat="29.00134" lon="-13.68134">
        <ele>350.8</ele>
        <time>2021-07-03 20:23:38</time>
      </trkpt>
      <trkpt lat="29.00131" lon="-13.68138">
        <ele>350.4</ele>
        <time>2021-07-03 20:23:39</time>
      </trkpt>
      <trkpt lat="29.00126" lon="-13.68143">
        <ele>350.2</ele>
        <time>2021-07-03 20:23:40</time>
      </trkpt>
      <trkpt lat="29.00122" lon="-13.68147">
        <ele>350</ele>
        <time>2021-07-03 20:23:44</time>
      </trkpt>
      <trkpt lat="29.00118" lon="-13.6815">
        <ele>349.6</ele>
        <time>2021-07-03 20:23:45</time>
      </trkpt>
      <trkpt lat="29.00114" lon="-13.68153">
        <ele>349.4</ele>
        <time>2021-07-03 20:23:46</time>
      </trkpt>
      <trkpt lat="29.00111" lon="-13.68155">
        <ele>349.2</ele>
        <time>2021-07-03 20:23:47</time>
      </trkpt>
      <trkpt lat="29.00107" lon="-13.68156">
        <ele>348.8</ele>
        <time>2021-07-03 20:23:48</time>
      </trkpt>
      <trkpt lat="29.00104" lon="-13.68158">
        <ele>348.6</ele>
        <time>2021-07-03 20:23:49</time>
      </trkpt>
      <trkpt lat="29.001" lon="-13.6816">
        <ele>348.4</ele>
        <time>2021-07-03 20:23:50</time>
      </trkpt>
      <trkpt lat="29.00096" lon="-13.68161">
        <ele>348.4</ele>
        <time>2021-07-03 20:23:51</time>
      </trkpt>
      <trkpt lat="29.00091" lon="-13.68162">
        <ele>348</ele>
        <time>2021-07-03 20:23:52</time>
      </trkpt>
      <trkpt lat="29.00086" lon="-13.68163">
        <ele>347.8</ele>
        <time>2021-07-03 20:23:53</time>
      </trkpt>
      <trkpt lat="29.0008" lon="-13.68163">
        <ele>347.6</ele>
        <time>2021-07-03 20:23:54</time>
      </trkpt>
      <trkpt lat="29.00076" lon="-13.68162">
        <ele>347.6</ele>
        <time>2021-07-03 20:23:55</time>
      </trkpt>
      <trkpt lat="29.00071" lon="-13.68161">
        <ele>347.6</ele>
        <time>2021-07-03 20:23:56</time>
      </trkpt>
      <trkpt lat="29.00068" lon="-13.68159">
        <ele>347.6</ele>
        <time>2021-07-03 20:23:57</time>
      </trkpt>
      <trkpt lat="29.00064" lon="-13.68159">
        <ele>347.4</ele>
        <time>2021-07-03 20:23:58</time>
      </trkpt>
      <trkpt lat="29.00061" lon="-13.68158">
        <ele>347.4</ele>
        <time>2021-07-03 20:24:11</time>
      </trkpt>
      <trkpt lat="29.00057" lon="-13.68157">
        <ele>347.4</ele>
        <time>2021-07-03 20:24:12</time>
      </trkpt>
      <trkpt lat="29.00052" lon="-13.68157">
        <ele>347.4</ele>
        <time>2021-07-03 20:24:13</time>
      </trkpt>
      <trkpt lat="29.00048" lon="-13.68159">
        <ele>347.4</ele>
        <time>2021-07-03 20:24:14</time>
      </trkpt>
      <trkpt lat="29.00045" lon="-13.68161">
        <ele>347.4</ele>
        <time>2021-07-03 20:24:15</time>
      </trkpt>
      <trkpt lat="29.00042" lon="-13.68164">
        <ele>347.4</ele>
        <time>2021-07-03 20:24:16</time>
      </trkpt>
      <trkpt lat="29.00039" lon="-13.68168">
        <ele>347.4</ele>
        <time>2021-07-03 20:24:17</time>
      </trkpt>
      <trkpt lat="29.00036" lon="-13.68171">
        <ele>347.4</ele>
        <time>2021-07-03 20:24:18</time>
      </trkpt>
      <trkpt lat="29.00033" lon="-13.68174">
        <ele>347.4</ele>
        <time>2021-07-03 20:24:19</time>
      </trkpt>
      <trkpt lat="29.00029" lon="-13.68177">
        <ele>347.4</ele>
        <time>2021-07-03 20:24:20</time>
      </trkpt>
      <trkpt lat="29.00026" lon="-13.6818">
        <ele>347</ele>
        <time>2021-07-03 20:24:21</time>
      </trkpt>
      <trkpt lat="29.00022" lon="-13.68183">
        <ele>347</ele>
        <time>2021-07-03 20:24:22</time>
      </trkpt>
      <trkpt lat="29.00018" lon="-13.68186">
        <ele>347</ele>
        <time>2021-07-03 20:24:23</time>
      </trkpt>
      <trkpt lat="29.00014" lon="-13.68189">
        <ele>346.8</ele>
        <time>2021-07-03 20:24:24</time>
      </trkpt>
      <trkpt lat="29.00009" lon="-13.68193">
        <ele>346.8</ele>
        <time>2021-07-03 20:24:25</time>
      </trkpt>
      <trkpt lat="29.00005" lon="-13.68198">
        <ele>346.4</ele>
        <time>2021-07-03 20:24:26</time>
      </trkpt>
      <trkpt lat="29.00001" lon="-13.68202">
        <ele>346</ele>
        <time>2021-07-03 20:24:27</time>
      </trkpt>
      <trkpt lat="28.99996" lon="-13.68207">
        <ele>345.8</ele>
        <time>2021-07-03 20:24:28</time>
      </trkpt>
      <trkpt lat="28.99992" lon="-13.68212">
        <ele>345.4</ele>
        <time>2021-07-03 20:24:29</time>
      </trkpt>
      <trkpt lat="28.99987" lon="-13.68217">
        <ele>345.2</ele>
        <time>2021-07-03 20:24:30</time>
      </trkpt>
      <trkpt lat="28.99984" lon="-13.68222">
        <ele>345.2</ele>
        <time>2021-07-03 20:24:31</time>
      </trkpt>
      <trkpt lat="28.9998" lon="-13.68226">
        <ele>344.8</ele>
        <time>2021-07-03 20:24:32</time>
      </trkpt>
      <trkpt lat="28.99977" lon="-13.6823">
        <ele>344.8</ele>
        <time>2021-07-03 20:24:33</time>
      </trkpt>
      <trkpt lat="28.99974" lon="-13.68234">
        <ele>344.4</ele>
        <time>2021-07-03 20:24:34</time>
      </trkpt>
      <trkpt lat="28.99971" lon="-13.68238">
        <ele>344.2</ele>
        <time>2021-07-03 20:24:35</time>
      </trkpt>
      <trkpt lat="28.99967" lon="-13.68242">
        <ele>344</ele>
        <time>2021-07-03 20:24:36</time>
      </trkpt>
      <trkpt lat="28.99965" lon="-13.68245">
        <ele>343.6</ele>
        <time>2021-07-03 20:24:37</time>
      </trkpt>
      <trkpt lat="28.99964" lon="-13.68248">
        <ele>343.4</ele>
        <time>2021-07-03 20:24:38</time>
      </trkpt>
      <trkpt lat="28.99963" lon="-13.68252">
        <ele>343</ele>
        <time>2021-07-03 20:24:39</time>
      </trkpt>
      <trkpt lat="28.99964" lon="-13.68256">
        <ele>343</ele>
        <time>2021-07-03 20:24:40</time>
      </trkpt>
      <trkpt lat="28.99963" lon="-13.6826">
        <ele>343</ele>
        <time>2021-07-03 20:24:41</time>
      </trkpt>
      <trkpt lat="28.99963" lon="-13.68264">
        <ele>343</ele>
        <time>2021-07-03 20:24:42</time>
      </trkpt>
      <trkpt lat="28.99961" lon="-13.68269">
        <ele>343</ele>
        <time>2021-07-03 20:24:43</time>
      </trkpt>
      <trkpt lat="28.99959" lon="-13.68274">
        <ele>343</ele>
        <time>2021-07-03 20:24:44</time>
      </trkpt>
      <trkpt lat="28.99958" lon="-13.68278">
        <ele>343.4</ele>
        <time>2021-07-03 20:24:45</time>
      </trkpt>
      <trkpt lat="28.99956" lon="-13.68282">
        <ele>343.4</ele>
        <time>2021-07-03 20:24:46</time>
      </trkpt>
      <trkpt lat="28.99954" lon="-13.68286">
        <ele>343.6</ele>
        <time>2021-07-03 20:24:47</time>
      </trkpt>
      <trkpt lat="28.99952" lon="-13.68289">
        <ele>343.6</ele>
        <time>2021-07-03 20:24:48</time>
      </trkpt>
      <trkpt lat="28.9995" lon="-13.68292">
        <ele>343.6</ele>
        <time>2021-07-03 20:24:49</time>
      </trkpt>
      <trkpt lat="28.99949" lon="-13.68295">
        <ele>343.8</ele>
        <time>2021-07-03 20:24:50</time>
      </trkpt>
      <trkpt lat="28.99947" lon="-13.68298">
        <ele>343.8</ele>
        <time>2021-07-03 20:24:51</time>
      </trkpt>
      <trkpt lat="28.99945" lon="-13.68301">
        <ele>343.8</ele>
        <time>2021-07-03 20:24:52</time>
      </trkpt>
      <trkpt lat="28.99943" lon="-13.68304">
        <ele>343.8</ele>
        <time>2021-07-03 20:24:53</time>
      </trkpt>
      <trkpt lat="28.99941" lon="-13.68307">
        <ele>343.8</ele>
        <time>2021-07-03 20:24:54</time>
      </trkpt>
      <trkpt lat="28.99939" lon="-13.68311">
        <ele>343.6</ele>
        <time>2021-07-03 20:24:55</time>
      </trkpt>
      <trkpt lat="28.99938" lon="-13.68314">
        <ele>343.6</ele>
        <time>2021-07-03 20:24:56</time>
      </trkpt>
      <trkpt lat="28.99936" lon="-13.68317">
        <ele>343.4</ele>
        <time>2021-07-03 20:24:57</time>
      </trkpt>
      <trkpt lat="28.99934" lon="-13.68319">
        <ele>343.2</ele>
        <time>2021-07-03 20:24:58</time>
      </trkpt>
      <trkpt lat="28.99931" lon="-13.68323">
        <ele>342.8</ele>
        <time>2021-07-03 20:24:59</time>
      </trkpt>
      <trkpt lat="28.99928" lon="-13.68326">
        <ele>342.6</ele>
        <time>2021-07-03 20:25:00</time>
      </trkpt>
      <trkpt lat="28.99925" lon="-13.68331">
        <ele>342.2</ele>
        <time>2021-07-03 20:25:01</time>
      </trkpt>
      <trkpt lat="28.99922" lon="-13.68335">
        <ele>341.8</ele>
        <time>2021-07-03 20:25:02</time>
      </trkpt>
      <trkpt lat="28.9992" lon="-13.68338">
        <ele>341.6</ele>
        <time>2021-07-03 20:25:03</time>
      </trkpt>
      <trkpt lat="28.99918" lon="-13.68342">
        <ele>341.6</ele>
        <time>2021-07-03 20:25:04</time>
      </trkpt>
      <trkpt lat="28.99916" lon="-13.68346">
        <ele>341.6</ele>
        <time>2021-07-03 20:25:05</time>
      </trkpt>
      <trkpt lat="28.99914" lon="-13.6835">
        <ele>341.6</ele>
        <time>2021-07-03 20:25:06</time>
      </trkpt>
      <trkpt lat="28.99912" lon="-13.68354">
        <ele>341.6</ele>
        <time>2021-07-03 20:25:07</time>
      </trkpt>
      <trkpt lat="28.9991" lon="-13.68358">
        <ele>341.4</ele>
        <time>2021-07-03 20:25:08</time>
      </trkpt>
      <trkpt lat="28.99908" lon="-13.68362">
        <ele>341.4</ele>
        <time>2021-07-03 20:25:09</time>
      </trkpt>
      <trkpt lat="28.99907" lon="-13.68366">
        <ele>341</ele>
        <time>2021-07-03 20:25:10</time>
      </trkpt>
      <trkpt lat="28.99907" lon="-13.68371">
        <ele>341</ele>
        <time>2021-07-03 20:25:11</time>
      </trkpt>
      <trkpt lat="28.99907" lon="-13.68375">
        <ele>341</ele>
        <time>2021-07-03 20:25:12</time>
      </trkpt>
      <trkpt lat="28.99908" lon="-13.68379">
        <ele>340.8</ele>
        <time>2021-07-03 20:25:13</time>
      </trkpt>
      <trkpt lat="28.9991" lon="-13.68382">
        <ele>340.8</ele>
        <time>2021-07-03 20:25:14</time>
      </trkpt>
      <trkpt lat="28.99912" lon="-13.68385">
        <ele>340.6</ele>
        <time>2021-07-03 20:25:15</time>
      </trkpt>
      <trkpt lat="28.99914" lon="-13.68388">
        <ele>340.6</ele>
        <time>2021-07-03 20:25:16</time>
      </trkpt>
      <trkpt lat="28.99917" lon="-13.68391">
        <ele>340.6</ele>
        <time>2021-07-03 20:25:17</time>
      </trkpt>
      <trkpt lat="28.99919" lon="-13.68394">
        <ele>340.6</ele>
        <time>2021-07-03 20:25:18</time>
      </trkpt>
      <trkpt lat="28.99921" lon="-13.68396">
        <ele>341</ele>
        <time>2021-07-03 20:25:19</time>
      </trkpt>
      <trkpt lat="28.99922" lon="-13.68399">
        <ele>341.4</ele>
        <time>2021-07-03 20:25:20</time>
      </trkpt>
      <trkpt lat="28.99922" lon="-13.68401">
        <ele>341.6</ele>
        <time>2021-07-03 20:25:21</time>
      </trkpt>
      <trkpt lat="28.99921" lon="-13.68402">
        <ele>342</ele>
        <time>2021-07-03 20:25:22</time>
      </trkpt>
      <trkpt lat="28.99921" lon="-13.68404">
        <ele>342.2</ele>
        <time>2021-07-03 20:25:23</time>
      </trkpt>
      <trkpt lat="28.9992" lon="-13.68403">
        <ele>342.4</ele>
        <time>2021-07-03 20:25:24</time>
      </trkpt>
      <trkpt lat="28.9992" lon="-13.68404">
        <ele>342.4</ele>
        <time>2021-07-03 20:25:25</time>
      </trkpt>
      <trkpt lat="28.99919" lon="-13.68404">
        <ele>342.8</ele>
        <time>2021-07-03 20:25:26</time>
      </trkpt>
      <trkpt lat="28.99918" lon="-13.68405">
        <ele>342.8</ele>
        <time>2021-07-03 20:25:27</time>
      </trkpt>
      <trkpt lat="28.99917" lon="-13.68406">
        <ele>342.8</ele>
        <time>2021-07-03 20:25:28</time>
      </trkpt>
      <trkpt lat="28.99916" lon="-13.68407">
        <ele>342.4</ele>
        <time>2021-07-03 20:25:29</time>
      </trkpt>
      <trkpt lat="28.99916" lon="-13.68408">
        <ele>342.4</ele>
        <time>2021-07-03 20:25:30</time>
      </trkpt>
      <trkpt lat="28.99915" lon="-13.68409">
        <ele>342.2</ele>
        <time>2021-07-03 20:25:31</time>
      </trkpt>
      <trkpt lat="28.99915" lon="-13.6841">
        <ele>342.2</ele>
        <time>2021-07-03 20:25:32</time>
      </trkpt>
      <trkpt lat="28.99915" lon="-13.6841">
        <ele>342</ele>
        <time>2021-07-03 20:25:33</time>
      </trkpt>
      <trkpt lat="28.99915" lon="-13.6841">
        <ele>342</ele>
        <time>2021-07-03 20:25:34</time>
      </trkpt>
      <trkpt lat="28.99915" lon="-13.6841">
        <ele>341.6</ele>
        <time>2021-07-03 20:25:35</time>
      </trkpt>
      <trkpt lat="28.99914" lon="-13.6841">
        <ele>341.4</ele>
        <time>2021-07-03 20:25:36</time>
      </trkpt>
      <trkpt lat="28.99914" lon="-13.68409">
        <ele>341.4</ele>
        <time>2021-07-03 20:25:37</time>
      </trkpt>
      <trkpt lat="28.99913" lon="-13.68409">
        <ele>341.4</ele>
        <time>2021-07-03 20:25:38</time>
      </trkpt>
      <trkpt lat="28.99912" lon="-13.68411">
        <ele>341.4</ele>
        <time>2021-07-03 20:25:39</time>
      </trkpt>
      <trkpt lat="28.99912" lon="-13.68411">
        <ele>341.4</ele>
        <time>2021-07-03 20:25:40</time>
      </trkpt>
      <trkpt lat="28.99912" lon="-13.68412">
        <ele>341.4</ele>
        <time>2021-07-03 20:25:41</time>
      </trkpt>
      <trkpt lat="28.99912" lon="-13.68412">
        <ele>341.4</ele>
        <time>2021-07-03 20:25:42</time>
      </trkpt>
      <trkpt lat="28.99911" lon="-13.68413">
        <ele>341.4</ele>
        <time>2021-07-03 20:25:43</time>
      </trkpt>
      <trkpt lat="28.99909" lon="-13.68415">
        <ele>341.2</ele>
        <time>2021-07-03 20:25:44</time>
      </trkpt>
      <trkpt lat="28.99906" lon="-13.68417">
        <ele>341.2</ele>
        <time>2021-07-03 20:25:45</time>
      </trkpt>
      <trkpt lat="28.99902" lon="-13.68419">
        <ele>341</ele>
        <time>2021-07-03 20:25:46</time>
      </trkpt>
      <trkpt lat="28.99897" lon="-13.68418">
        <ele>341</ele>
        <time>2021-07-03 20:25:47</time>
      </trkpt>
      <trkpt lat="28.99892" lon="-13.68419">
        <ele>340.6</ele>
        <time>2021-07-03 20:25:48</time>
      </trkpt>
      <trkpt lat="28.99887" lon="-13.6842">
        <ele>340.6</ele>
        <time>2021-07-03 20:25:49</time>
      </trkpt>
      <trkpt lat="28.99881" lon="-13.68421">
        <ele>340.2</ele>
        <time>2021-07-03 20:25:50</time>
      </trkpt>
      <trkpt lat="28.99875" lon="-13.68422">
        <ele>340.2</ele>
        <time>2021-07-03 20:25:51</time>
      </trkpt>
      <trkpt lat="28.99869" lon="-13.68423">
        <ele>339.8</ele>
        <time>2021-07-03 20:25:52</time>
      </trkpt>
      <trkpt lat="28.99862" lon="-13.68424">
        <ele>339.8</ele>
        <time>2021-07-03 20:25:53</time>
      </trkpt>
      <trkpt lat="28.99855" lon="-13.68425">
        <ele>339.4</ele>
        <time>2021-07-03 20:25:54</time>
      </trkpt>
      <trkpt lat="28.99848" lon="-13.68425">
        <ele>339.2</ele>
        <time>2021-07-03 20:25:55</time>
      </trkpt>
      <trkpt lat="28.99841" lon="-13.68426">
        <ele>339.2</ele>
        <time>2021-07-03 20:25:56</time>
      </trkpt>
      <trkpt lat="28.99834" lon="-13.68427">
        <ele>339</ele>
        <time>2021-07-03 20:25:57</time>
      </trkpt>
      <trkpt lat="28.99826" lon="-13.68428">
        <ele>338.8</ele>
        <time>2021-07-03 20:25:58</time>
      </trkpt>
      <trkpt lat="28.99819" lon="-13.68429">
        <ele>338.6</ele>
        <time>2021-07-03 20:25:59</time>
      </trkpt>
      <trkpt lat="28.99811" lon="-13.68431">
        <ele>338.4</ele>
        <time>2021-07-03 20:26:00</time>
      </trkpt>
      <trkpt lat="28.99803" lon="-13.68431">
        <ele>338.4</ele>
        <time>2021-07-03 20:26:01</time>
      </trkpt>
      <trkpt lat="28.99794" lon="-13.68432">
        <ele>338</ele>
        <time>2021-07-03 20:26:02</time>
      </trkpt>
      <trkpt lat="28.99786" lon="-13.68433">
        <ele>337.8</ele>
        <time>2021-07-03 20:26:03</time>
      </trkpt>
      <trkpt lat="28.99778" lon="-13.68434">
        <ele>337.6</ele>
        <time>2021-07-03 20:26:04</time>
      </trkpt>
      <trkpt lat="28.99769" lon="-13.68435">
        <ele>337.4</ele>
        <time>2021-07-03 20:26:05</time>
      </trkpt>
      <trkpt lat="28.99761" lon="-13.68436">
        <ele>337</ele>
        <time>2021-07-03 20:26:06</time>
      </trkpt>
      <trkpt lat="28.99752" lon="-13.68437">
        <ele>336.8</ele>
        <time>2021-07-03 20:26:07</time>
      </trkpt>
      <trkpt lat="28.99743" lon="-13.68439">
        <ele>336.8</ele>
        <time>2021-07-03 20:26:08</time>
      </trkpt>
      <trkpt lat="28.99734" lon="-13.6844">
        <ele>336.4</ele>
        <time>2021-07-03 20:26:09</time>
      </trkpt>
      <trkpt lat="28.99725" lon="-13.68441">
        <ele>336.2</ele>
        <time>2021-07-03 20:26:10</time>
      </trkpt>
      <trkpt lat="28.99717" lon="-13.68442">
        <ele>335.8</ele>
        <time>2021-07-03 20:26:11</time>
      </trkpt>
      <trkpt lat="28.99709" lon="-13.68443">
        <ele>335.6</ele>
        <time>2021-07-03 20:26:12</time>
      </trkpt>
      <trkpt lat="28.99701" lon="-13.68444">
        <ele>335.4</ele>
        <time>2021-07-03 20:26:13</time>
      </trkpt>
      <trkpt lat="28.99694" lon="-13.68445">
        <ele>335</ele>
        <time>2021-07-03 20:26:14</time>
      </trkpt>
      <trkpt lat="28.99687" lon="-13.68446">
        <ele>335</ele>
        <time>2021-07-03 20:26:15</time>
      </trkpt>
      <trkpt lat="28.99681" lon="-13.68447">
        <ele>334.8</ele>
        <time>2021-07-03 20:26:16</time>
      </trkpt>
      <trkpt lat="28.99676" lon="-13.68448">
        <ele>334.8</ele>
        <time>2021-07-03 20:26:17</time>
      </trkpt>
      <trkpt lat="28.99672" lon="-13.68449">
        <ele>334.8</ele>
        <time>2021-07-03 20:26:18</time>
      </trkpt>
      <trkpt lat="28.99669" lon="-13.68451">
        <ele>334.4</ele>
        <time>2021-07-03 20:26:19</time>
      </trkpt>
      <trkpt lat="28.99666" lon="-13.68454">
        <ele>334.4</ele>
        <time>2021-07-03 20:26:20</time>
      </trkpt>
      <trkpt lat="28.99664" lon="-13.68456">
        <ele>334.4</ele>
        <time>2021-07-03 20:26:21</time>
      </trkpt>
      <trkpt lat="28.99662" lon="-13.68459">
        <ele>334.4</ele>
        <time>2021-07-03 20:26:22</time>
      </trkpt>
      <trkpt lat="28.9966" lon="-13.68461">
        <ele>334.8</ele>
        <time>2021-07-03 20:26:23</time>
      </trkpt>
      <trkpt lat="28.99659" lon="-13.68464">
        <ele>334.8</ele>
        <time>2021-07-03 20:26:24</time>
      </trkpt>
      <trkpt lat="28.99659" lon="-13.68467">
        <ele>334.8</ele>
        <time>2021-07-03 20:26:25</time>
      </trkpt>
      <trkpt lat="28.9966" lon="-13.6847">
        <ele>334.8</ele>
        <time>2021-07-03 20:26:26</time>
      </trkpt>
      <trkpt lat="28.9966" lon="-13.68472">
        <ele>334.8</ele>
        <time>2021-07-03 20:26:27</time>
      </trkpt>
      <trkpt lat="28.9966" lon="-13.68473">
        <ele>334.8</ele>
        <time>2021-07-03 20:26:28</time>
      </trkpt>
      <trkpt lat="28.9966" lon="-13.68473">
        <ele>334.8</ele>
        <time>2021-07-03 20:26:29</time>
      </trkpt>
      <trkpt lat="28.9966" lon="-13.68473">
        <ele>334.8</ele>
        <time>2021-07-03 20:26:30</time>
      </trkpt>
      <trkpt lat="28.9966" lon="-13.68473">
        <ele>334.8</ele>
        <time>2021-07-03 20:26:31</time>
      </trkpt>
      <trkpt lat="28.99661" lon="-13.68474">
        <ele>334.2</ele>
        <time>2021-07-03 20:26:32</time>
      </trkpt>
      <trkpt lat="28.99661" lon="-13.68474">
        <ele>334</ele>
        <time>2021-07-03 20:26:33</time>
      </trkpt>
      <trkpt lat="28.99661" lon="-13.68474">
        <ele>333.6</ele>
        <time>2021-07-03 20:26:34</time>
      </trkpt>
      <trkpt lat="28.99662" lon="-13.68472">
        <ele>333</ele>
        <time>2021-07-03 20:26:35</time>
      </trkpt>
      <trkpt lat="28.99662" lon="-13.68472">
        <ele>333.4</ele>
        <time>2021-07-03 20:26:36</time>
      </trkpt>
      <trkpt lat="28.99662" lon="-13.68471">
        <ele>333.4</ele>
        <time>2021-07-03 20:26:37</time>
      </trkpt>
      <trkpt lat="28.99662" lon="-13.6847">
        <ele>333.4</ele>
        <time>2021-07-03 20:26:38</time>
      </trkpt>
      <trkpt lat="28.99662" lon="-13.6847">
        <ele>333.4</ele>
        <time>2021-07-03 20:26:39</time>
      </trkpt>
      <trkpt lat="28.99662" lon="-13.6847">
        <ele>333.4</ele>
        <time>2021-07-03 20:26:40</time>
      </trkpt>
      <trkpt lat="28.99662" lon="-13.6847">
        <ele>333.4</ele>
        <time>2021-07-03 20:26:41</time>
      </trkpt>
      <trkpt lat="28.99662" lon="-13.68469">
        <ele>333.6</ele>
        <time>2021-07-03 20:26:42</time>
      </trkpt>
      <trkpt lat="28.99661" lon="-13.68469">
        <ele>333.6</ele>
        <time>2021-07-03 20:26:43</time>
      </trkpt>
      <trkpt lat="28.99661" lon="-13.68469">
        <ele>333.6</ele>
        <time>2021-07-03 20:26:44</time>
      </trkpt>
      <trkpt lat="28.99661" lon="-13.68468">
        <ele>334</ele>
        <time>2021-07-03 20:26:45</time>
      </trkpt>
      <trkpt lat="28.9966" lon="-13.68468">
        <ele>334</ele>
        <time>2021-07-03 20:26:46</time>
      </trkpt>
      <trkpt lat="28.9966" lon="-13.68468">
        <ele>334</ele>
        <time>2021-07-03 20:26:47</time>
      </trkpt>
      <trkpt lat="28.9966" lon="-13.68468">
        <ele>334</ele>
        <time>2021-07-03 20:26:48</time>
      </trkpt>
      <trkpt lat="28.99659" lon="-13.68468">
        <ele>334</ele>
        <time>2021-07-03 20:26:49</time>
      </trkpt>
      <trkpt lat="28.99658" lon="-13.68468">
        <ele>334</ele>
        <time>2021-07-03 20:26:50</time>
      </trkpt>
      <trkpt lat="28.99656" lon="-13.68467">
        <ele>334</ele>
        <time>2021-07-03 20:26:51</time>
      </trkpt>
      <trkpt lat="28.99655" lon="-13.68466">
        <ele>334</ele>
        <time>2021-07-03 20:26:52</time>
      </trkpt>
      <trkpt lat="28.99652" lon="-13.68464">
        <ele>334</ele>
        <time>2021-07-03 20:26:53</time>
      </trkpt>
      <trkpt lat="28.9965" lon="-13.68463">
        <ele>334</ele>
        <time>2021-07-03 20:26:54</time>
      </trkpt>
      <trkpt lat="28.99648" lon="-13.68462">
        <ele>334</ele>
        <time>2021-07-03 20:26:55</time>
      </trkpt>
      <trkpt lat="28.99645" lon="-13.68461">
        <ele>334</ele>
        <time>2021-07-03 20:26:56</time>
      </trkpt>
      <trkpt lat="28.99642" lon="-13.6846">
        <ele>334</ele>
        <time>2021-07-03 20:26:57</time>
      </trkpt>
      <trkpt lat="28.9964" lon="-13.6846">
        <ele>334</ele>
        <time>2021-07-03 20:26:58</time>
      </trkpt>
      <trkpt lat="28.99637" lon="-13.68459">
        <ele>334</ele>
        <time>2021-07-03 20:26:59</time>
      </trkpt>
      <trkpt lat="28.99635" lon="-13.68459">
        <ele>334</ele>
        <time>2021-07-03 20:27:00</time>
      </trkpt>
      <trkpt lat="28.99633" lon="-13.68458">
        <ele>334</ele>
        <time>2021-07-03 20:27:01</time>
      </trkpt>
      <trkpt lat="28.99631" lon="-13.68458">
        <ele>333.6</ele>
        <time>2021-07-03 20:27:02</time>
      </trkpt>
      <trkpt lat="28.99629" lon="-13.68458">
        <ele>333.6</ele>
        <time>2021-07-03 20:27:03</time>
      </trkpt>
      <trkpt lat="28.99627" lon="-13.68457">
        <ele>333.6</ele>
        <time>2021-07-03 20:27:04</time>
      </trkpt>
      <trkpt lat="28.99625" lon="-13.68457">
        <ele>333.6</ele>
        <time>2021-07-03 20:27:05</time>
      </trkpt>
      <trkpt lat="28.99622" lon="-13.68456">
        <ele>333.6</ele>
        <time>2021-07-03 20:27:06</time>
      </trkpt>
      <trkpt lat="28.99619" lon="-13.68455">
        <ele>333.6</ele>
        <time>2021-07-03 20:27:07</time>
      </trkpt>
      <trkpt lat="28.99615" lon="-13.68455">
        <ele>333.6</ele>
        <time>2021-07-03 20:27:08</time>
      </trkpt>
      <trkpt lat="28.99611" lon="-13.68456">
        <ele>333.4</ele>
        <time>2021-07-03 20:27:09</time>
      </trkpt>
      <trkpt lat="28.99607" lon="-13.68457">
        <ele>333.4</ele>
        <time>2021-07-03 20:27:10</time>
      </trkpt>
      <trkpt lat="28.99602" lon="-13.68457">
        <ele>333.4</ele>
        <time>2021-07-03 20:27:11</time>
      </trkpt>
      <trkpt lat="28.99597" lon="-13.68457">
        <ele>333.2</ele>
        <time>2021-07-03 20:27:12</time>
      </trkpt>
      <trkpt lat="28.99592" lon="-13.68458">
        <ele>333.2</ele>
        <time>2021-07-03 20:27:13</time>
      </trkpt>
      <trkpt lat="28.99587" lon="-13.68459">
        <ele>333</ele>
        <time>2021-07-03 20:27:14</time>
      </trkpt>
      <trkpt lat="28.99582" lon="-13.6846">
        <ele>333</ele>
        <time>2021-07-03 20:27:15</time>
      </trkpt>
      <trkpt lat="28.99577" lon="-13.6846">
        <ele>333</ele>
        <time>2021-07-03 20:27:16</time>
      </trkpt>
      <trkpt lat="28.99572" lon="-13.68461">
        <ele>333</ele>
        <time>2021-07-03 20:27:17</time>
      </trkpt>
      <trkpt lat="28.99566" lon="-13.68462">
        <ele>332.8</ele>
        <time>2021-07-03 20:27:18</time>
      </trkpt>
      <trkpt lat="28.9956" lon="-13.68462">
        <ele>332.8</ele>
        <time>2021-07-03 20:27:19</time>
      </trkpt>
      <trkpt lat="28.99554" lon="-13.68463">
        <ele>332.4</ele>
        <time>2021-07-03 20:27:20</time>
      </trkpt>
      <trkpt lat="28.99548" lon="-13.68464">
        <ele>332.4</ele>
        <time>2021-07-03 20:27:21</time>
      </trkpt>
      <trkpt lat="28.99541" lon="-13.68464">
        <ele>332.4</ele>
        <time>2021-07-03 20:27:22</time>
      </trkpt>
      <trkpt lat="28.99534" lon="-13.68466">
        <ele>332.4</ele>
        <time>2021-07-03 20:27:23</time>
      </trkpt>
      <trkpt lat="28.99527" lon="-13.68466">
        <ele>332.4</ele>
        <time>2021-07-03 20:27:24</time>
      </trkpt>
      <trkpt lat="28.99519" lon="-13.68467">
        <ele>332.2</ele>
        <time>2021-07-03 20:27:25</time>
      </trkpt>
      <trkpt lat="28.99482" lon="-13.68471">
        <ele>331.6</ele>
        <time>2021-07-03 20:27:26</time>
      </trkpt>
      <trkpt lat="28.99474" lon="-13.68472">
        <ele>331.6</ele>
        <time>2021-07-03 20:27:27</time>
      </trkpt>
      <trkpt lat="28.99467" lon="-13.68473">
        <ele>331.6</ele>
        <time>2021-07-03 20:27:28</time>
      </trkpt>
      <trkpt lat="28.99459" lon="-13.68474">
        <ele>331.6</ele>
        <time>2021-07-03 20:27:29</time>
      </trkpt>
      <trkpt lat="28.99452" lon="-13.68475">
        <ele>331.6</ele>
        <time>2021-07-03 20:27:30</time>
      </trkpt>
      <trkpt lat="28.99445" lon="-13.68476">
        <ele>331.6</ele>
        <time>2021-07-03 20:27:31</time>
      </trkpt>
      <trkpt lat="28.99437" lon="-13.68477">
        <ele>331.6</ele>
        <time>2021-07-03 20:27:32</time>
      </trkpt>
      <trkpt lat="28.9943" lon="-13.68478">
        <ele>331.6</ele>
        <time>2021-07-03 20:27:33</time>
      </trkpt>
      <trkpt lat="28.99422" lon="-13.68479">
        <ele>331.6</ele>
        <time>2021-07-03 20:27:34</time>
      </trkpt>
      <trkpt lat="28.99415" lon="-13.68479">
        <ele>331.6</ele>
        <time>2021-07-03 20:27:35</time>
      </trkpt>
      <trkpt lat="28.99407" lon="-13.6848">
        <ele>331.6</ele>
        <time>2021-07-03 20:27:36</time>
      </trkpt>
      <trkpt lat="28.994" lon="-13.68482">
        <ele>331.6</ele>
        <time>2021-07-03 20:27:37</time>
      </trkpt>
      <trkpt lat="28.99392" lon="-13.68483">
        <ele>331.6</ele>
        <time>2021-07-03 20:27:38</time>
      </trkpt>
      <trkpt lat="28.99384" lon="-13.68484">
        <ele>331.4</ele>
        <time>2021-07-03 20:27:39</time>
      </trkpt>
      <trkpt lat="28.99375" lon="-13.68485">
        <ele>331.4</ele>
        <time>2021-07-03 20:27:40</time>
      </trkpt>
      <trkpt lat="28.99367" lon="-13.68485">
        <ele>331.2</ele>
        <time>2021-07-03 20:27:41</time>
      </trkpt>
      <trkpt lat="28.99341" lon="-13.68488">
        <ele>330.8</ele>
        <time>2021-07-03 20:27:42</time>
      </trkpt>
      <trkpt lat="28.99332" lon="-13.68489">
        <ele>330.4</ele>
        <time>2021-07-03 20:27:43</time>
      </trkpt>
      <trkpt lat="28.99323" lon="-13.6849">
        <ele>330.4</ele>
        <time>2021-07-03 20:27:44</time>
      </trkpt>
      <trkpt lat="28.99314" lon="-13.68491">
        <ele>330.2</ele>
        <time>2021-07-03 20:27:45</time>
      </trkpt>
      <trkpt lat="28.99304" lon="-13.68492">
        <ele>330.2</ele>
        <time>2021-07-03 20:27:46</time>
      </trkpt>
      <trkpt lat="28.99295" lon="-13.68494">
        <ele>330</ele>
        <time>2021-07-03 20:27:47</time>
      </trkpt>
      <trkpt lat="28.99286" lon="-13.68495">
        <ele>330</ele>
        <time>2021-07-03 20:27:48</time>
      </trkpt>
      <trkpt lat="28.99277" lon="-13.68496">
        <ele>330</ele>
        <time>2021-07-03 20:27:49</time>
      </trkpt>
      <trkpt lat="28.99267" lon="-13.68497">
        <ele>330</ele>
        <time>2021-07-03 20:27:50</time>
      </trkpt>
      <trkpt lat="28.99249" lon="-13.68498">
        <ele>329.6</ele>
        <time>2021-07-03 20:27:51</time>
      </trkpt>
      <trkpt lat="28.99239" lon="-13.68498">
        <ele>329.6</ele>
        <time>2021-07-03 20:27:52</time>
      </trkpt>
      <trkpt lat="28.99229" lon="-13.68498">
        <ele>329.4</ele>
        <time>2021-07-03 20:27:53</time>
      </trkpt>
      <trkpt lat="28.99219" lon="-13.68498">
        <ele>329.4</ele>
        <time>2021-07-03 20:27:54</time>
      </trkpt>
      <trkpt lat="28.99209" lon="-13.68497">
        <ele>329</ele>
        <time>2021-07-03 20:27:55</time>
      </trkpt>
      <trkpt lat="28.99199" lon="-13.68495">
        <ele>328.6</ele>
        <time>2021-07-03 20:27:56</time>
      </trkpt>
      <trkpt lat="28.99188" lon="-13.68495">
        <ele>328.2</ele>
        <time>2021-07-03 20:27:57</time>
      </trkpt>
      <trkpt lat="28.99178" lon="-13.68494">
        <ele>328</ele>
        <time>2021-07-03 20:27:58</time>
      </trkpt>
      <trkpt lat="28.99167" lon="-13.68493">
        <ele>327.6</ele>
        <time>2021-07-03 20:27:59</time>
      </trkpt>
      <trkpt lat="28.99156" lon="-13.68492">
        <ele>327.2</ele>
        <time>2021-07-03 20:28:00</time>
      </trkpt>
      <trkpt lat="28.99146" lon="-13.68491">
        <ele>327.2</ele>
        <time>2021-07-03 20:28:33</time>
      </trkpt>
      <trkpt lat="28.99135" lon="-13.6849">
        <ele>326.8</ele>
        <time>2021-07-03 20:28:34</time>
      </trkpt>
      <trkpt lat="28.99124" lon="-13.68489">
        <ele>326.8</ele>
        <time>2021-07-03 20:28:35</time>
      </trkpt>
      <trkpt lat="28.99114" lon="-13.68488">
        <ele>326.6</ele>
        <time>2021-07-03 20:28:53</time>
      </trkpt>
      <trkpt lat="28.99104" lon="-13.68487">
        <ele>326.6</ele>
        <time>2021-07-03 20:28:54</time>
      </trkpt>
      <trkpt lat="28.99094" lon="-13.68486">
        <ele>326.6</ele>
        <time>2021-07-03 20:28:55</time>
      </trkpt>
      <trkpt lat="28.99084" lon="-13.68485">
        <ele>326.6</ele>
        <time>2021-07-03 20:28:56</time>
      </trkpt>
      <trkpt lat="28.99074" lon="-13.68484">
        <ele>326.6</ele>
        <time>2021-07-03 20:28:57</time>
      </trkpt>
      <trkpt lat="28.99064" lon="-13.68483">
        <ele>326.6</ele>
        <time>2021-07-03 20:28:58</time>
      </trkpt>
      <trkpt lat="28.99054" lon="-13.68482">
        <ele>326.6</ele>
        <time>2021-07-03 20:28:59</time>
      </trkpt>
      <trkpt lat="28.99045" lon="-13.68481">
        <ele>326.6</ele>
        <time>2021-07-03 20:29:00</time>
      </trkpt>
      <trkpt lat="28.99035" lon="-13.6848">
        <ele>326.8</ele>
        <time>2021-07-03 20:29:01</time>
      </trkpt>
      <trkpt lat="28.99025" lon="-13.68478">
        <ele>326.8</ele>
        <time>2021-07-03 20:29:02</time>
      </trkpt>
      <trkpt lat="28.99016" lon="-13.68477">
        <ele>326.8</ele>
        <time>2021-07-03 20:29:03</time>
      </trkpt>
      <trkpt lat="28.99006" lon="-13.68476">
        <ele>326.8</ele>
        <time>2021-07-03 20:29:04</time>
      </trkpt>
      <trkpt lat="28.98996" lon="-13.68475">
        <ele>326.8</ele>
        <time>2021-07-03 20:29:05</time>
      </trkpt>
      <trkpt lat="28.98987" lon="-13.68474">
        <ele>326.8</ele>
        <time>2021-07-03 20:29:06</time>
      </trkpt>
      <trkpt lat="28.98978" lon="-13.68473">
        <ele>327</ele>
        <time>2021-07-03 20:29:07</time>
      </trkpt>
      <trkpt lat="28.98968" lon="-13.68472">
        <ele>327</ele>
        <time>2021-07-03 20:29:08</time>
      </trkpt>
      <trkpt lat="28.9896" lon="-13.68471">
        <ele>327.2</ele>
        <time>2021-07-03 20:29:09</time>
      </trkpt>
      <trkpt lat="28.98951" lon="-13.6847">
        <ele>327.2</ele>
        <time>2021-07-03 20:29:10</time>
      </trkpt>
      <trkpt lat="28.98942" lon="-13.68469">
        <ele>327.8</ele>
        <time>2021-07-03 20:29:11</time>
      </trkpt>
      <trkpt lat="28.98934" lon="-13.68468">
        <ele>328</ele>
        <time>2021-07-03 20:29:12</time>
      </trkpt>
      <trkpt lat="28.98926" lon="-13.68467">
        <ele>328.2</ele>
        <time>2021-07-03 20:29:13</time>
      </trkpt>
      <trkpt lat="28.98918" lon="-13.68466">
        <ele>328.2</ele>
        <time>2021-07-03 20:29:14</time>
      </trkpt>
      <trkpt lat="28.9891" lon="-13.68466">
        <ele>328.6</ele>
        <time>2021-07-03 20:29:15</time>
      </trkpt>
      <trkpt lat="28.98902" lon="-13.68464">
        <ele>328.8</ele>
        <time>2021-07-03 20:29:16</time>
      </trkpt>
      <trkpt lat="28.98895" lon="-13.68464">
        <ele>329.2</ele>
        <time>2021-07-03 20:29:17</time>
      </trkpt>
      <trkpt lat="28.98888" lon="-13.68463">
        <ele>329.4</ele>
        <time>2021-07-03 20:29:18</time>
      </trkpt>
      <trkpt lat="28.98881" lon="-13.68462">
        <ele>329.6</ele>
        <time>2021-07-03 20:29:19</time>
      </trkpt>
      <trkpt lat="28.98873" lon="-13.68461">
        <ele>330</ele>
        <time>2021-07-03 20:29:20</time>
      </trkpt>
      <trkpt lat="28.98867" lon="-13.68461">
        <ele>330.2</ele>
        <time>2021-07-03 20:29:21</time>
      </trkpt>
      <trkpt lat="28.9886" lon="-13.6846">
        <ele>330.2</ele>
        <time>2021-07-03 20:29:22</time>
      </trkpt>
      <trkpt lat="28.98853" lon="-13.68459">
        <ele>330.6</ele>
        <time>2021-07-03 20:29:23</time>
      </trkpt>
      <trkpt lat="28.98845" lon="-13.68458">
        <ele>330.6</ele>
        <time>2021-07-03 20:29:24</time>
      </trkpt>
      <trkpt lat="28.98838" lon="-13.68457">
        <ele>330.8</ele>
        <time>2021-07-03 20:29:25</time>
      </trkpt>
      <trkpt lat="28.9883" lon="-13.68457">
        <ele>330.8</ele>
        <time>2021-07-03 20:29:26</time>
      </trkpt>
      <trkpt lat="28.98823" lon="-13.68456">
        <ele>331</ele>
        <time>2021-07-03 20:29:27</time>
      </trkpt>
      <trkpt lat="28.98816" lon="-13.68455">
        <ele>331</ele>
        <time>2021-07-03 20:29:28</time>
      </trkpt>
      <trkpt lat="28.98808" lon="-13.68455">
        <ele>331</ele>
        <time>2021-07-03 20:29:29</time>
      </trkpt>
      <trkpt lat="28.98801" lon="-13.68454">
        <ele>331.2</ele>
        <time>2021-07-03 20:29:30</time>
      </trkpt>
      <trkpt lat="28.98793" lon="-13.68453">
        <ele>331.2</ele>
        <time>2021-07-03 20:29:31</time>
      </trkpt>
      <trkpt lat="28.98786" lon="-13.68453">
        <ele>331.2</ele>
        <time>2021-07-03 20:29:32</time>
      </trkpt>
      <trkpt lat="28.98778" lon="-13.68452">
        <ele>331.2</ele>
        <time>2021-07-03 20:29:33</time>
      </trkpt>
      <trkpt lat="28.98771" lon="-13.68451">
        <ele>331.2</ele>
        <time>2021-07-03 20:29:34</time>
      </trkpt>
      <trkpt lat="28.98764" lon="-13.6845">
        <ele>331.2</ele>
        <time>2021-07-03 20:29:35</time>
      </trkpt>
      <trkpt lat="28.98757" lon="-13.68449">
        <ele>331.2</ele>
        <time>2021-07-03 20:29:36</time>
      </trkpt>
      <trkpt lat="28.9875" lon="-13.68448">
        <ele>331</ele>
        <time>2021-07-03 20:29:37</time>
      </trkpt>
      <trkpt lat="28.98743" lon="-13.68447">
        <ele>330.6</ele>
        <time>2021-07-03 20:29:38</time>
      </trkpt>
      <trkpt lat="28.98736" lon="-13.68447">
        <ele>330.6</ele>
        <time>2021-07-03 20:29:39</time>
      </trkpt>
      <trkpt lat="28.98729" lon="-13.68446">
        <ele>330.6</ele>
        <time>2021-07-03 20:29:40</time>
      </trkpt>
      <trkpt lat="28.98723" lon="-13.68445">
        <ele>330.6</ele>
        <time>2021-07-03 20:29:41</time>
      </trkpt>
      <trkpt lat="28.98716" lon="-13.68444">
        <ele>330.8</ele>
        <time>2021-07-03 20:29:42</time>
      </trkpt>
      <trkpt lat="28.98709" lon="-13.68444">
        <ele>330.8</ele>
        <time>2021-07-03 20:29:43</time>
      </trkpt>
      <trkpt lat="28.98702" lon="-13.68443">
        <ele>331</ele>
        <time>2021-07-03 20:29:44</time>
      </trkpt>
      <trkpt lat="28.98695" lon="-13.68443">
        <ele>331</ele>
        <time>2021-07-03 20:29:45</time>
      </trkpt>
      <trkpt lat="28.98687" lon="-13.68442">
        <ele>331</ele>
        <time>2021-07-03 20:29:48</time>
      </trkpt>
      <trkpt lat="28.9868" lon="-13.68441">
        <ele>331</ele>
        <time>2021-07-03 20:29:49</time>
      </trkpt>
      <trkpt lat="28.98672" lon="-13.6844">
        <ele>331</ele>
        <time>2021-07-03 20:29:50</time>
      </trkpt>
      <trkpt lat="28.98664" lon="-13.68439">
        <ele>331</ele>
        <time>2021-07-03 20:32:10</time>
      </trkpt>
      <trkpt lat="28.98656" lon="-13.68438">
        <ele>331</ele>
        <time>2021-07-03 20:32:11</time>
      </trkpt>
      <trkpt lat="28.98649" lon="-13.68437">
        <ele>331</ele>
        <time>2021-07-03 20:32:12</time>
      </trkpt>
      <trkpt lat="28.98641" lon="-13.68436">
        <ele>331</ele>
        <time>2021-07-03 20:32:13</time>
      </trkpt>
      <trkpt lat="28.98633" lon="-13.68435">
        <ele>331.4</ele>
        <time>2021-07-03 20:32:14</time>
      </trkpt>
      <trkpt lat="28.98625" lon="-13.68434">
        <ele>331.4</ele>
        <time>2021-07-03 20:32:15</time>
      </trkpt>
      <trkpt lat="28.98617" lon="-13.68432">
        <ele>331.4</ele>
        <time>2021-07-03 20:32:23</time>
      </trkpt>
      <trkpt lat="28.98609" lon="-13.68431">
        <ele>331.6</ele>
        <time>2021-07-03 20:32:24</time>
      </trkpt>
      <trkpt lat="28.98601" lon="-13.68429">
        <ele>331.6</ele>
        <time>2021-07-03 20:32:25</time>
      </trkpt>
      <trkpt lat="28.98593" lon="-13.68428">
        <ele>331.6</ele>
        <time>2021-07-03 20:32:26</time>
      </trkpt>
      <trkpt lat="28.98585" lon="-13.68426">
        <ele>331.6</ele>
        <time>2021-07-03 20:32:27</time>
      </trkpt>
      <trkpt lat="28.98577" lon="-13.68424">
        <ele>331.6</ele>
        <time>2021-07-03 20:32:28</time>
      </trkpt>
      <trkpt lat="28.9857" lon="-13.68423">
        <ele>331.8</ele>
        <time>2021-07-03 20:32:29</time>
      </trkpt>
      <trkpt lat="28.98562" lon="-13.6842">
        <ele>331.8</ele>
        <time>2021-07-03 20:32:30</time>
      </trkpt>
      <trkpt lat="28.98554" lon="-13.68418">
        <ele>331.8</ele>
        <time>2021-07-03 20:32:33</time>
      </trkpt>
      <trkpt lat="28.98546" lon="-13.68416">
        <ele>331.8</ele>
        <time>2021-07-03 20:32:34</time>
      </trkpt>
      <trkpt lat="28.98538" lon="-13.68414">
        <ele>331.8</ele>
        <time>2021-07-03 20:32:35</time>
      </trkpt>
      <trkpt lat="28.9853" lon="-13.68412">
        <ele>331.8</ele>
        <time>2021-07-03 20:32:36</time>
      </trkpt>
      <trkpt lat="28.98522" lon="-13.6841">
        <ele>332</ele>
        <time>2021-07-03 20:32:37</time>
      </trkpt>
      <trkpt lat="28.98514" lon="-13.68408">
        <ele>332</ele>
        <time>2021-07-03 20:32:38</time>
      </trkpt>
      <trkpt lat="28.98506" lon="-13.68406">
        <ele>332</ele>
        <time>2021-07-03 20:32:39</time>
      </trkpt>
      <trkpt lat="28.98498" lon="-13.68404">
        <ele>332.2</ele>
        <time>2021-07-03 20:32:40</time>
      </trkpt>
      <trkpt lat="28.9849" lon="-13.68402">
        <ele>332.2</ele>
        <time>2021-07-03 20:32:41</time>
      </trkpt>
      <trkpt lat="28.98482" lon="-13.684">
        <ele>332.2</ele>
        <time>2021-07-03 20:32:42</time>
      </trkpt>
      <trkpt lat="28.98473" lon="-13.68398">
        <ele>332.2</ele>
        <time>2021-07-03 20:32:43</time>
      </trkpt>
      <trkpt lat="28.98465" lon="-13.68396">
        <ele>332.2</ele>
        <time>2021-07-03 20:32:44</time>
      </trkpt>
      <trkpt lat="28.98457" lon="-13.68394">
        <ele>332.2</ele>
        <time>2021-07-03 20:32:45</time>
      </trkpt>
      <trkpt lat="28.98449" lon="-13.68392">
        <ele>332.2</ele>
        <time>2021-07-03 20:32:46</time>
      </trkpt>
      <trkpt lat="28.98441" lon="-13.6839">
        <ele>332.2</ele>
        <time>2021-07-03 20:32:47</time>
      </trkpt>
      <trkpt lat="28.98433" lon="-13.68388">
        <ele>332.2</ele>
        <time>2021-07-03 20:32:48</time>
      </trkpt>
      <trkpt lat="28.98425" lon="-13.68386">
        <ele>332</ele>
        <time>2021-07-03 20:32:49</time>
      </trkpt>
      <trkpt lat="28.98417" lon="-13.68384">
        <ele>332</ele>
        <time>2021-07-03 20:32:50</time>
      </trkpt>
      <trkpt lat="28.98408" lon="-13.68382">
        <ele>331.6</ele>
        <time>2021-07-03 20:32:51</time>
      </trkpt>
      <trkpt lat="28.984" lon="-13.6838">
        <ele>331.6</ele>
        <time>2021-07-03 20:32:52</time>
      </trkpt>
      <trkpt lat="28.98391" lon="-13.68378">
        <ele>331.2</ele>
        <time>2021-07-03 20:32:53</time>
      </trkpt>
      <trkpt lat="28.98383" lon="-13.68377">
        <ele>331.2</ele>
        <time>2021-07-03 20:32:54</time>
      </trkpt>
      <trkpt lat="28.98375" lon="-13.68374">
        <ele>331</ele>
        <time>2021-07-03 20:32:55</time>
      </trkpt>
      <trkpt lat="28.98367" lon="-13.68372">
        <ele>331</ele>
        <time>2021-07-03 20:32:56</time>
      </trkpt>
      <trkpt lat="28.98359" lon="-13.6837">
        <ele>331</ele>
        <time>2021-07-03 20:32:57</time>
      </trkpt>
      <trkpt lat="28.98351" lon="-13.68368">
        <ele>331</ele>
        <time>2021-07-03 20:32:58</time>
      </trkpt>
      <trkpt lat="28.98343" lon="-13.68365">
        <ele>331</ele>
        <time>2021-07-03 20:32:59</time>
      </trkpt>
      <trkpt lat="28.98335" lon="-13.68363">
        <ele>331</ele>
        <time>2021-07-03 20:33:00</time>
      </trkpt>
      <trkpt lat="28.98327" lon="-13.68361">
        <ele>331</ele>
        <time>2021-07-03 20:33:01</time>
      </trkpt>
      <trkpt lat="28.98319" lon="-13.68359">
        <ele>331</ele>
        <time>2021-07-03 20:33:02</time>
      </trkpt>
      <trkpt lat="28.98312" lon="-13.68358">
        <ele>331</ele>
        <time>2021-07-03 20:33:03</time>
      </trkpt>
      <trkpt lat="28.98306" lon="-13.68356">
        <ele>331</ele>
        <time>2021-07-03 20:33:04</time>
      </trkpt>
      <trkpt lat="28.983" lon="-13.68355">
        <ele>331</ele>
        <time>2021-07-03 20:33:05</time>
      </trkpt>
      <trkpt lat="28.98295" lon="-13.68354">
        <ele>331</ele>
        <time>2021-07-03 20:33:06</time>
      </trkpt>
      <trkpt lat="28.98291" lon="-13.68356">
        <ele>331</ele>
        <time>2021-07-03 20:33:07</time>
      </trkpt>
      <trkpt lat="28.98288" lon="-13.68359">
        <ele>331</ele>
        <time>2021-07-03 20:33:08</time>
      </trkpt>
      <trkpt lat="28.98285" lon="-13.68363">
        <ele>331</ele>
        <time>2021-07-03 20:33:09</time>
      </trkpt>
      <trkpt lat="28.98282" lon="-13.68368">
        <ele>330.8</ele>
        <time>2021-07-03 20:33:10</time>
      </trkpt>
      <trkpt lat="28.9828" lon="-13.68374">
        <ele>330.8</ele>
        <time>2021-07-03 20:33:11</time>
      </trkpt>
      <trkpt lat="28.98277" lon="-13.68381">
        <ele>330.6</ele>
        <time>2021-07-03 20:33:12</time>
      </trkpt>
      <trkpt lat="28.98274" lon="-13.68389">
        <ele>330.6</ele>
        <time>2021-07-03 20:33:13</time>
      </trkpt>
      <trkpt lat="28.98271" lon="-13.68397">
        <ele>330.6</ele>
        <time>2021-07-03 20:33:14</time>
      </trkpt>
      <trkpt lat="28.98268" lon="-13.68405">
        <ele>330.4</ele>
        <time>2021-07-03 20:33:15</time>
      </trkpt>
      <trkpt lat="28.98265" lon="-13.68412">
        <ele>330.4</ele>
        <time>2021-07-03 20:33:16</time>
      </trkpt>
      <trkpt lat="28.98262" lon="-13.6842">
        <ele>330</ele>
        <time>2021-07-03 20:33:17</time>
      </trkpt>
      <trkpt lat="28.98259" lon="-13.68429">
        <ele>329.8</ele>
        <time>2021-07-03 20:33:18</time>
      </trkpt>
      <trkpt lat="28.98256" lon="-13.68437">
        <ele>329.2</ele>
        <time>2021-07-03 20:33:19</time>
      </trkpt>
      <trkpt lat="28.98253" lon="-13.68446">
        <ele>328.8</ele>
        <time>2021-07-03 20:33:20</time>
      </trkpt>
      <trkpt lat="28.9825" lon="-13.68455">
        <ele>328.4</ele>
        <time>2021-07-03 20:33:21</time>
      </trkpt>
      <trkpt lat="28.98246" lon="-13.68464">
        <ele>328.2</ele>
        <time>2021-07-03 20:33:22</time>
      </trkpt>
      <trkpt lat="28.98242" lon="-13.68473">
        <ele>328.2</ele>
        <time>2021-07-03 20:33:23</time>
      </trkpt>
      <trkpt lat="28.98238" lon="-13.68482">
        <ele>328</ele>
        <time>2021-07-03 20:33:24</time>
      </trkpt>
      <trkpt lat="28.98234" lon="-13.6849">
        <ele>327.6</ele>
        <time>2021-07-03 20:33:25</time>
      </trkpt>
      <trkpt lat="28.98229" lon="-13.68499">
        <ele>327.4</ele>
        <time>2021-07-03 20:33:26</time>
      </trkpt>
      <trkpt lat="28.98224" lon="-13.68508">
        <ele>327</ele>
        <time>2021-07-03 20:33:27</time>
      </trkpt>
      <trkpt lat="28.98219" lon="-13.68516">
        <ele>326.8</ele>
        <time>2021-07-03 20:33:28</time>
      </trkpt>
      <trkpt lat="28.98213" lon="-13.68524">
        <ele>326.4</ele>
        <time>2021-07-03 20:33:29</time>
      </trkpt>
      <trkpt lat="28.98208" lon="-13.68532">
        <ele>325.8</ele>
        <time>2021-07-03 20:33:30</time>
      </trkpt>
      <trkpt lat="28.98202" lon="-13.6854">
        <ele>325.2</ele>
        <time>2021-07-03 20:33:31</time>
      </trkpt>
      <trkpt lat="28.98196" lon="-13.68548">
        <ele>324.6</ele>
        <time>2021-07-03 20:33:32</time>
      </trkpt>
      <trkpt lat="28.9819" lon="-13.68555">
        <ele>323.8</ele>
        <time>2021-07-03 20:33:33</time>
      </trkpt>
      <trkpt lat="28.98184" lon="-13.68562">
        <ele>323</ele>
        <time>2021-07-03 20:33:34</time>
      </trkpt>
      <trkpt lat="28.98178" lon="-13.68569">
        <ele>322.4</ele>
        <time>2021-07-03 20:33:35</time>
      </trkpt>
      <trkpt lat="28.98171" lon="-13.68577">
        <ele>322</ele>
        <time>2021-07-03 20:33:36</time>
      </trkpt>
      <trkpt lat="28.98166" lon="-13.68585">
        <ele>321.6</ele>
        <time>2021-07-03 20:33:37</time>
      </trkpt>
      <trkpt lat="28.98159" lon="-13.68593">
        <ele>321.2</ele>
        <time>2021-07-03 20:33:38</time>
      </trkpt>
      <trkpt lat="28.98153" lon="-13.68602">
        <ele>320.6</ele>
        <time>2021-07-03 20:33:39</time>
      </trkpt>
      <trkpt lat="28.98147" lon="-13.6861">
        <ele>320</ele>
        <time>2021-07-03 20:33:40</time>
      </trkpt>
      <trkpt lat="28.98141" lon="-13.68619">
        <ele>319.6</ele>
        <time>2021-07-03 20:33:41</time>
      </trkpt>
      <trkpt lat="28.98135" lon="-13.68628">
        <ele>319</ele>
        <time>2021-07-03 20:33:42</time>
      </trkpt>
      <trkpt lat="28.9813" lon="-13.68638">
        <ele>318.4</ele>
        <time>2021-07-03 20:33:43</time>
      </trkpt>
      <trkpt lat="28.98126" lon="-13.68648">
        <ele>318</ele>
        <time>2021-07-03 20:33:44</time>
      </trkpt>
      <trkpt lat="28.98122" lon="-13.68658">
        <ele>317.6</ele>
        <time>2021-07-03 20:33:45</time>
      </trkpt>
      <trkpt lat="28.98118" lon="-13.68668">
        <ele>317.2</ele>
        <time>2021-07-03 20:33:46</time>
      </trkpt>
      <trkpt lat="28.98115" lon="-13.68679">
        <ele>317.2</ele>
        <time>2021-07-03 20:33:47</time>
      </trkpt>
      <trkpt lat="28.98112" lon="-13.68689">
        <ele>317</ele>
        <time>2021-07-03 20:33:48</time>
      </trkpt>
      <trkpt lat="28.98109" lon="-13.687">
        <ele>317</ele>
        <time>2021-07-03 20:33:49</time>
      </trkpt>
      <trkpt lat="28.98106" lon="-13.6871">
        <ele>317</ele>
        <time>2021-07-03 20:33:50</time>
      </trkpt>
      <trkpt lat="28.98103" lon="-13.68719">
        <ele>316.2</ele>
        <time>2021-07-03 20:33:51</time>
      </trkpt>
      <trkpt lat="28.98101" lon="-13.68728">
        <ele>315.6</ele>
        <time>2021-07-03 20:33:52</time>
      </trkpt>
      <trkpt lat="28.98098" lon="-13.68738">
        <ele>315</ele>
        <time>2021-07-03 20:33:53</time>
      </trkpt>
      <trkpt lat="28.98096" lon="-13.68748">
        <ele>314.2</ele>
        <time>2021-07-03 20:33:54</time>
      </trkpt>
      <trkpt lat="28.98094" lon="-13.68757">
        <ele>313.8</ele>
        <time>2021-07-03 20:33:55</time>
      </trkpt>
      <trkpt lat="28.98091" lon="-13.68766">
        <ele>313.2</ele>
        <time>2021-07-03 20:33:56</time>
      </trkpt>
      <trkpt lat="28.98089" lon="-13.68775">
        <ele>313</ele>
        <time>2021-07-03 20:33:57</time>
      </trkpt>
      <trkpt lat="28.98087" lon="-13.68784">
        <ele>313</ele>
        <time>2021-07-03 20:33:58</time>
      </trkpt>
      <trkpt lat="28.98084" lon="-13.68792">
        <ele>313</ele>
        <time>2021-07-03 20:33:59</time>
      </trkpt>
      <trkpt lat="28.98083" lon="-13.68801">
        <ele>313</ele>
        <time>2021-07-03 20:34:00</time>
      </trkpt>
      <trkpt lat="28.98081" lon="-13.68809">
        <ele>313</ele>
        <time>2021-07-03 20:34:01</time>
      </trkpt>
      <trkpt lat="28.98079" lon="-13.68816">
        <ele>313</ele>
        <time>2021-07-03 20:34:02</time>
      </trkpt>
      <trkpt lat="28.98077" lon="-13.68824">
        <ele>313</ele>
        <time>2021-07-03 20:34:03</time>
      </trkpt>
      <trkpt lat="28.98075" lon="-13.68831">
        <ele>313</ele>
        <time>2021-07-03 20:34:04</time>
      </trkpt>
      <trkpt lat="28.98073" lon="-13.68838">
        <ele>313</ele>
        <time>2021-07-03 20:34:05</time>
      </trkpt>
      <trkpt lat="28.98071" lon="-13.68845">
        <ele>313</ele>
        <time>2021-07-03 20:34:06</time>
      </trkpt>
      <trkpt lat="28.98069" lon="-13.68851">
        <ele>313</ele>
        <time>2021-07-03 20:34:07</time>
      </trkpt>
      <trkpt lat="28.98067" lon="-13.68858">
        <ele>313</ele>
        <time>2021-07-03 20:34:08</time>
      </trkpt>
      <trkpt lat="28.98066" lon="-13.68864">
        <ele>313</ele>
        <time>2021-07-03 20:34:09</time>
      </trkpt>
      <trkpt lat="28.98064" lon="-13.6887">
        <ele>313</ele>
        <time>2021-07-03 20:34:10</time>
      </trkpt>
      <trkpt lat="28.98062" lon="-13.68875">
        <ele>312.8</ele>
        <time>2021-07-03 20:34:11</time>
      </trkpt>
      <trkpt lat="28.9806" lon="-13.68878">
        <ele>312.8</ele>
        <time>2021-07-03 20:34:12</time>
      </trkpt>
      <trkpt lat="28.98057" lon="-13.68879">
        <ele>312.4</ele>
        <time>2021-07-03 20:34:13</time>
      </trkpt>
      <trkpt lat="28.98054" lon="-13.68879">
        <ele>312</ele>
        <time>2021-07-03 20:34:14</time>
      </trkpt>
      <trkpt lat="28.98051" lon="-13.68878">
        <ele>311.6</ele>
        <time>2021-07-03 20:34:15</time>
      </trkpt>
      <trkpt lat="28.98048" lon="-13.68876">
        <ele>311.2</ele>
        <time>2021-07-03 20:34:16</time>
      </trkpt>
      <trkpt lat="28.98046" lon="-13.68875">
        <ele>311</ele>
        <time>2021-07-03 20:34:17</time>
      </trkpt>
      <trkpt lat="28.98044" lon="-13.68874">
        <ele>310.8</ele>
        <time>2021-07-03 20:34:18</time>
      </trkpt>
      <trkpt lat="28.98043" lon="-13.68874">
        <ele>310.6</ele>
        <time>2021-07-03 20:34:19</time>
      </trkpt>
      <trkpt lat="28.98043" lon="-13.68874">
        <ele>310.2</ele>
        <time>2021-07-03 20:34:20</time>
      </trkpt>
      <trkpt lat="28.98043" lon="-13.68873">
        <ele>310.2</ele>
        <time>2021-07-03 20:34:21</time>
      </trkpt>
      <trkpt lat="28.98043" lon="-13.68873">
        <ele>310</ele>
        <time>2021-07-03 20:34:22</time>
      </trkpt>
      <trkpt lat="28.98043" lon="-13.68876">
        <ele>310</ele>
        <time>2021-07-03 20:34:23</time>
      </trkpt>
      <trkpt lat="28.98043" lon="-13.68876">
        <ele>310</ele>
        <time>2021-07-03 20:34:24</time>
      </trkpt>
      <trkpt lat="28.98043" lon="-13.68877">
        <ele>310</ele>
        <time>2021-07-03 20:34:25</time>
      </trkpt>
      <trkpt lat="28.98044" lon="-13.68878">
        <ele>310</ele>
        <time>2021-07-03 20:34:26</time>
      </trkpt>
      <trkpt lat="28.98044" lon="-13.68878">
        <ele>310</ele>
        <time>2021-07-03 20:34:27</time>
      </trkpt>
      <trkpt lat="28.98045" lon="-13.68879">
        <ele>310</ele>
        <time>2021-07-03 20:34:28</time>
      </trkpt>
      <trkpt lat="28.98045" lon="-13.68879">
        <ele>310.4</ele>
        <time>2021-07-03 20:34:29</time>
      </trkpt>
      <trkpt lat="28.98046" lon="-13.68879">
        <ele>310.4</ele>
        <time>2021-07-03 20:34:30</time>
      </trkpt>
      <trkpt lat="28.98047" lon="-13.6888">
        <ele>310.6</ele>
        <time>2021-07-03 20:34:31</time>
      </trkpt>
      <trkpt lat="28.98047" lon="-13.6888">
        <ele>310.6</ele>
        <time>2021-07-03 20:34:32</time>
      </trkpt>
      <trkpt lat="28.98048" lon="-13.68881">
        <ele>310.6</ele>
        <time>2021-07-03 20:34:33</time>
      </trkpt>
      <trkpt lat="28.98049" lon="-13.68881">
        <ele>310.6</ele>
        <time>2021-07-03 20:34:34</time>
      </trkpt>
      <trkpt lat="28.9805" lon="-13.68881">
        <ele>310.6</ele>
        <time>2021-07-03 20:34:35</time>
      </trkpt>
      <trkpt lat="28.98051" lon="-13.68881">
        <ele>310.6</ele>
        <time>2021-07-03 20:34:36</time>
      </trkpt>
      <trkpt lat="28.98052" lon="-13.68882">
        <ele>310.2</ele>
        <time>2021-07-03 20:34:37</time>
      </trkpt>
      <trkpt lat="28.98053" lon="-13.68883">
        <ele>310.2</ele>
        <time>2021-07-03 20:34:38</time>
      </trkpt>
      <trkpt lat="28.98054" lon="-13.68883">
        <ele>310.2</ele>
        <time>2021-07-03 20:34:39</time>
      </trkpt>
      <trkpt lat="28.98054" lon="-13.68883">
        <ele>310.2</ele>
        <time>2021-07-03 20:34:40</time>
      </trkpt>
      <trkpt lat="28.98055" lon="-13.68884">
        <ele>310.2</ele>
        <time>2021-07-03 20:34:41</time>
      </trkpt>
      <trkpt lat="28.98054" lon="-13.68883">
        <ele>310.4</ele>
        <time>2021-07-03 20:34:42</time>
      </trkpt>
      <trkpt lat="28.98054" lon="-13.68883">
        <ele>310.4</ele>
        <time>2021-07-03 20:34:43</time>
      </trkpt>
      <trkpt lat="28.98054" lon="-13.68883">
        <ele>310.4</ele>
        <time>2021-07-03 20:34:44</time>
      </trkpt>
      <trkpt lat="28.98057" lon="-13.68886">
        <ele>311</ele>
        <time>2021-07-03 20:34:45</time>
      </trkpt>
      <trkpt lat="28.98059" lon="-13.68887">
        <ele>311</ele>
        <time>2021-07-03 20:34:46</time>
      </trkpt>
      <trkpt lat="28.98061" lon="-13.68889">
        <ele>311</ele>
        <time>2021-07-03 20:34:47</time>
      </trkpt>
      <trkpt lat="28.98062" lon="-13.68894">
        <ele>311</ele>
        <time>2021-07-03 20:34:48</time>
      </trkpt>
      <trkpt lat="28.98062" lon="-13.68898">
        <ele>311</ele>
        <time>2021-07-03 20:34:49</time>
      </trkpt>
      <trkpt lat="28.98061" lon="-13.68902">
        <ele>311.4</ele>
        <time>2021-07-03 20:34:50</time>
      </trkpt>
      <trkpt lat="28.98061" lon="-13.68906">
        <ele>311.6</ele>
        <time>2021-07-03 20:34:51</time>
      </trkpt>
      <trkpt lat="28.9806" lon="-13.68911">
        <ele>311.6</ele>
        <time>2021-07-03 20:34:52</time>
      </trkpt>
      <trkpt lat="28.98059" lon="-13.68915">
        <ele>312</ele>
        <time>2021-07-03 20:34:53</time>
      </trkpt>
      <trkpt lat="28.98058" lon="-13.6892">
        <ele>312.2</ele>
        <time>2021-07-03 20:34:54</time>
      </trkpt>
      <trkpt lat="28.98057" lon="-13.68925">
        <ele>312.4</ele>
        <time>2021-07-03 20:34:55</time>
      </trkpt>
      <trkpt lat="28.98057" lon="-13.68929">
        <ele>312.8</ele>
        <time>2021-07-03 20:34:56</time>
      </trkpt>
      <trkpt lat="28.98056" lon="-13.68934">
        <ele>312.8</ele>
        <time>2021-07-03 20:34:57</time>
      </trkpt>
      <trkpt lat="28.98056" lon="-13.68939">
        <ele>313</ele>
        <time>2021-07-03 20:34:58</time>
      </trkpt>
      <trkpt lat="28.98056" lon="-13.68945">
        <ele>313</ele>
        <time>2021-07-03 20:34:59</time>
      </trkpt>
      <trkpt lat="28.98055" lon="-13.6895">
        <ele>313.4</ele>
        <time>2021-07-03 20:35:00</time>
      </trkpt>
      <trkpt lat="28.98055" lon="-13.68955">
        <ele>313.4</ele>
        <time>2021-07-03 20:35:01</time>
      </trkpt>
      <trkpt lat="28.98055" lon="-13.6896">
        <ele>313.4</ele>
        <time>2021-07-03 20:35:02</time>
      </trkpt>
      <trkpt lat="28.98055" lon="-13.68966">
        <ele>313.4</ele>
        <time>2021-07-03 20:35:03</time>
      </trkpt>
      <trkpt lat="28.98055" lon="-13.68971">
        <ele>313.4</ele>
        <time>2021-07-03 20:35:04</time>
      </trkpt>
      <trkpt lat="28.98055" lon="-13.68977">
        <ele>313</ele>
        <time>2021-07-03 20:35:05</time>
      </trkpt>
      <trkpt lat="28.98054" lon="-13.68983">
        <ele>313</ele>
        <time>2021-07-03 20:35:06</time>
      </trkpt>
      <trkpt lat="28.98053" lon="-13.68989">
        <ele>312.6</ele>
        <time>2021-07-03 20:35:07</time>
      </trkpt>
      <trkpt lat="28.98053" lon="-13.68996">
        <ele>312.2</ele>
        <time>2021-07-03 20:35:08</time>
      </trkpt>
      <trkpt lat="28.98052" lon="-13.69003">
        <ele>312</ele>
        <time>2021-07-03 20:35:09</time>
      </trkpt>
      <trkpt lat="28.98052" lon="-13.69009">
        <ele>312</ele>
        <time>2021-07-03 20:35:10</time>
      </trkpt>
      <trkpt lat="28.98052" lon="-13.69016">
        <ele>311.6</ele>
        <time>2021-07-03 20:35:11</time>
      </trkpt>
      <trkpt lat="28.98052" lon="-13.69022">
        <ele>311.6</ele>
        <time>2021-07-03 20:35:12</time>
      </trkpt>
      <trkpt lat="28.98052" lon="-13.6903">
        <ele>311.2</ele>
        <time>2021-07-03 20:35:13</time>
      </trkpt>
      <trkpt lat="28.98051" lon="-13.69037">
        <ele>311.2</ele>
        <time>2021-07-03 20:35:14</time>
      </trkpt>
      <trkpt lat="28.98051" lon="-13.69044">
        <ele>311</ele>
        <time>2021-07-03 20:35:15</time>
      </trkpt>
      <trkpt lat="28.9805" lon="-13.69051">
        <ele>311</ele>
        <time>2021-07-03 20:35:16</time>
      </trkpt>
      <trkpt lat="28.9805" lon="-13.69058">
        <ele>311</ele>
        <time>2021-07-03 20:35:17</time>
      </trkpt>
      <trkpt lat="28.9805" lon="-13.69065">
        <ele>311</ele>
        <time>2021-07-03 20:35:18</time>
      </trkpt>
      <trkpt lat="28.9805" lon="-13.69072">
        <ele>311.4</ele>
        <time>2021-07-03 20:35:19</time>
      </trkpt>
      <trkpt lat="28.9805" lon="-13.69079">
        <ele>311.4</ele>
        <time>2021-07-03 20:35:20</time>
      </trkpt>
      <trkpt lat="28.9805" lon="-13.69085">
        <ele>311.8</ele>
        <time>2021-07-03 20:35:21</time>
      </trkpt>
      <trkpt lat="28.98049" lon="-13.69092">
        <ele>312</ele>
        <time>2021-07-03 20:35:22</time>
      </trkpt>
      <trkpt lat="28.98049" lon="-13.69098">
        <ele>312</ele>
        <time>2021-07-03 20:35:23</time>
      </trkpt>
      <trkpt lat="28.98049" lon="-13.69104">
        <ele>312.4</ele>
        <time>2021-07-03 20:35:24</time>
      </trkpt>
      <trkpt lat="28.98048" lon="-13.6911">
        <ele>312.4</ele>
        <time>2021-07-03 20:35:25</time>
      </trkpt>
      <trkpt lat="28.98048" lon="-13.69116">
        <ele>312.6</ele>
        <time>2021-07-03 20:35:26</time>
      </trkpt>
      <trkpt lat="28.98047" lon="-13.69122">
        <ele>312.6</ele>
        <time>2021-07-03 20:35:27</time>
      </trkpt>
      <trkpt lat="28.98047" lon="-13.69127">
        <ele>313</ele>
        <time>2021-07-03 20:35:28</time>
      </trkpt>
      <trkpt lat="28.98046" lon="-13.69133">
        <ele>313.2</ele>
        <time>2021-07-03 20:35:29</time>
      </trkpt>
      <trkpt lat="28.98046" lon="-13.69138">
        <ele>313.2</ele>
        <time>2021-07-03 20:35:30</time>
      </trkpt>
      <trkpt lat="28.98046" lon="-13.69144">
        <ele>313.6</ele>
        <time>2021-07-03 20:35:31</time>
      </trkpt>
      <trkpt lat="28.98045" lon="-13.69148">
        <ele>313.6</ele>
        <time>2021-07-03 20:35:32</time>
      </trkpt>
      <trkpt lat="28.98044" lon="-13.69152">
        <ele>313.8</ele>
        <time>2021-07-03 20:35:33</time>
      </trkpt>
      <trkpt lat="28.98043" lon="-13.69156">
        <ele>313.8</ele>
        <time>2021-07-03 20:35:34</time>
      </trkpt>
      <trkpt lat="28.98041" lon="-13.69159">
        <ele>314.2</ele>
        <time>2021-07-03 20:35:35</time>
      </trkpt>
      <trkpt lat="28.98038" lon="-13.69163">
        <ele>314.2</ele>
        <time>2021-07-03 20:35:36</time>
      </trkpt>
      <trkpt lat="28.98036" lon="-13.69164">
        <ele>314.2</ele>
        <time>2021-07-03 20:35:37</time>
      </trkpt>
      <trkpt lat="28.98033" lon="-13.69165">
        <ele>313.8</ele>
        <time>2021-07-03 20:35:38</time>
      </trkpt>
      <trkpt lat="28.9803" lon="-13.69165">
        <ele>313.8</ele>
        <time>2021-07-03 20:35:39</time>
      </trkpt>
      <trkpt lat="28.98027" lon="-13.69165">
        <ele>313.4</ele>
        <time>2021-07-03 20:35:40</time>
      </trkpt>
      <trkpt lat="28.98025" lon="-13.69166">
        <ele>313.2</ele>
        <time>2021-07-03 20:35:41</time>
      </trkpt>
      <trkpt lat="28.98023" lon="-13.69166">
        <ele>313.2</ele>
        <time>2021-07-03 20:35:42</time>
      </trkpt>
      <trkpt lat="28.9802" lon="-13.69167">
        <ele>313</ele>
        <time>2021-07-03 20:35:43</time>
      </trkpt>
      <trkpt lat="28.98016" lon="-13.69167">
        <ele>313</ele>
        <time>2021-07-03 20:35:44</time>
      </trkpt>
      <trkpt lat="28.98013" lon="-13.69167">
        <ele>313</ele>
        <time>2021-07-03 20:35:45</time>
      </trkpt>
      <trkpt lat="28.9801" lon="-13.69167">
        <ele>313</ele>
        <time>2021-07-03 20:35:46</time>
      </trkpt>
      <trkpt lat="28.98006" lon="-13.69167">
        <ele>313</ele>
        <time>2021-07-03 20:35:47</time>
      </trkpt>
      <trkpt lat="28.98003" lon="-13.69166">
        <ele>313</ele>
        <time>2021-07-03 20:35:48</time>
      </trkpt>
      <trkpt lat="28.97999" lon="-13.69167">
        <ele>313</ele>
        <time>2021-07-03 20:35:49</time>
      </trkpt>
      <trkpt lat="28.97995" lon="-13.69167">
        <ele>313</ele>
        <time>2021-07-03 20:35:50</time>
      </trkpt>
      <trkpt lat="28.97991" lon="-13.69166">
        <ele>313</ele>
        <time>2021-07-03 20:35:51</time>
      </trkpt>
      <trkpt lat="28.97987" lon="-13.69166">
        <ele>313</ele>
        <time>2021-07-03 20:35:52</time>
      </trkpt>
      <trkpt lat="28.97983" lon="-13.69166">
        <ele>313</ele>
        <time>2021-07-03 20:35:53</time>
      </trkpt>
      <trkpt lat="28.97978" lon="-13.69166">
        <ele>313</ele>
        <time>2021-07-03 20:35:54</time>
      </trkpt>
      <trkpt lat="28.97974" lon="-13.69166">
        <ele>313</ele>
        <time>2021-07-03 20:35:55</time>
      </trkpt>
      <trkpt lat="28.97969" lon="-13.69166">
        <ele>313</ele>
        <time>2021-07-03 20:35:56</time>
      </trkpt>
      <trkpt lat="28.97965" lon="-13.69166">
        <ele>313</ele>
        <time>2021-07-03 20:35:57</time>
      </trkpt>
      <trkpt lat="28.9796" lon="-13.69166">
        <ele>313.2</ele>
        <time>2021-07-03 20:35:58</time>
      </trkpt>
      <trkpt lat="28.97955" lon="-13.69167">
        <ele>313.2</ele>
        <time>2021-07-03 20:35:59</time>
      </trkpt>
      <trkpt lat="28.9795" lon="-13.69167">
        <ele>313.2</ele>
        <time>2021-07-03 20:36:00</time>
      </trkpt>
      <trkpt lat="28.97945" lon="-13.69168">
        <ele>313.4</ele>
        <time>2021-07-03 20:36:01</time>
      </trkpt>
      <trkpt lat="28.9794" lon="-13.69169">
        <ele>313.4</ele>
        <time>2021-07-03 20:36:02</time>
      </trkpt>
      <trkpt lat="28.97935" lon="-13.6917">
        <ele>313.8</ele>
        <time>2021-07-03 20:36:03</time>
      </trkpt>
      <trkpt lat="28.97929" lon="-13.6917">
        <ele>313.8</ele>
        <time>2021-07-03 20:36:04</time>
      </trkpt>
      <trkpt lat="28.97924" lon="-13.69171">
        <ele>314</ele>
        <time>2021-07-03 20:36:05</time>
      </trkpt>
      <trkpt lat="28.97919" lon="-13.69172">
        <ele>314</ele>
        <time>2021-07-03 20:36:06</time>
      </trkpt>
      <trkpt lat="28.97915" lon="-13.69173">
        <ele>314.4</ele>
        <time>2021-07-03 20:36:07</time>
      </trkpt>
      <trkpt lat="28.9791" lon="-13.69174">
        <ele>314.4</ele>
        <time>2021-07-03 20:36:08</time>
      </trkpt>
      <trkpt lat="28.97907" lon="-13.69174">
        <ele>314.8</ele>
        <time>2021-07-03 20:36:09</time>
      </trkpt>
      <trkpt lat="28.97903" lon="-13.69175">
        <ele>314.8</ele>
        <time>2021-07-03 20:36:10</time>
      </trkpt>
      <trkpt lat="28.97899" lon="-13.69175">
        <ele>315.2</ele>
        <time>2021-07-03 20:36:11</time>
      </trkpt>
      <trkpt lat="28.97894" lon="-13.69176">
        <ele>315.2</ele>
        <time>2021-07-03 20:36:12</time>
      </trkpt>
      <trkpt lat="28.9789" lon="-13.69178">
        <ele>315.6</ele>
        <time>2021-07-03 20:36:13</time>
      </trkpt>
      <trkpt lat="28.97886" lon="-13.69179">
        <ele>315.8</ele>
        <time>2021-07-03 20:36:14</time>
      </trkpt>
      <trkpt lat="28.97882" lon="-13.6918">
        <ele>315.8</ele>
        <time>2021-07-03 20:36:15</time>
      </trkpt>
      <trkpt lat="28.97878" lon="-13.69181">
        <ele>316</ele>
        <time>2021-07-03 20:36:16</time>
      </trkpt>
      <trkpt lat="28.97874" lon="-13.69181">
        <ele>316</ele>
        <time>2021-07-03 20:36:17</time>
      </trkpt>
      <trkpt lat="28.97869" lon="-13.69182">
        <ele>316.2</ele>
        <time>2021-07-03 20:36:18</time>
      </trkpt>
      <trkpt lat="28.97865" lon="-13.69182">
        <ele>316.2</ele>
        <time>2021-07-03 20:36:19</time>
      </trkpt>
      <trkpt lat="28.97861" lon="-13.69183">
        <ele>316.2</ele>
        <time>2021-07-03 20:36:20</time>
      </trkpt>
      <trkpt lat="28.97856" lon="-13.69184">
        <ele>316.4</ele>
        <time>2021-07-03 20:36:21</time>
      </trkpt>
      <trkpt lat="28.97852" lon="-13.69185">
        <ele>316.4</ele>
        <time>2021-07-03 20:36:22</time>
      </trkpt>
      <trkpt lat="28.97847" lon="-13.69185">
        <ele>316.4</ele>
        <time>2021-07-03 20:36:23</time>
      </trkpt>
      <trkpt lat="28.97843" lon="-13.69186">
        <ele>316.8</ele>
        <time>2021-07-03 20:36:24</time>
      </trkpt>
      <trkpt lat="28.97839" lon="-13.69187">
        <ele>316.8</ele>
        <time>2021-07-03 20:36:25</time>
      </trkpt>
      <trkpt lat="28.97834" lon="-13.69188">
        <ele>316.8</ele>
        <time>2021-07-03 20:36:26</time>
      </trkpt>
      <trkpt lat="28.9783" lon="-13.69189">
        <ele>317</ele>
        <time>2021-07-03 20:36:27</time>
      </trkpt>
      <trkpt lat="28.97825" lon="-13.69189">
        <ele>317</ele>
        <time>2021-07-03 20:36:28</time>
      </trkpt>
      <trkpt lat="28.97821" lon="-13.69189">
        <ele>317</ele>
        <time>2021-07-03 20:36:29</time>
      </trkpt>
      <trkpt lat="28.97816" lon="-13.6919">
        <ele>317.2</ele>
        <time>2021-07-03 20:36:30</time>
      </trkpt>
      <trkpt lat="28.97812" lon="-13.6919">
        <ele>317.2</ele>
        <time>2021-07-03 20:36:31</time>
      </trkpt>
      <trkpt lat="28.97807" lon="-13.6919">
        <ele>317.6</ele>
        <time>2021-07-03 20:36:32</time>
      </trkpt>
      <trkpt lat="28.97803" lon="-13.69189">
        <ele>317.8</ele>
        <time>2021-07-03 20:36:33</time>
      </trkpt>
      <trkpt lat="28.97799" lon="-13.69189">
        <ele>317.8</ele>
        <time>2021-07-03 20:36:34</time>
      </trkpt>
      <trkpt lat="28.97794" lon="-13.69188">
        <ele>317.8</ele>
        <time>2021-07-03 20:36:35</time>
      </trkpt>
      <trkpt lat="28.9779" lon="-13.69187">
        <ele>318</ele>
        <time>2021-07-03 20:36:36</time>
      </trkpt>
      <trkpt lat="28.97785" lon="-13.69185">
        <ele>318</ele>
        <time>2021-07-03 20:36:37</time>
      </trkpt>
      <trkpt lat="28.9778" lon="-13.69184">
        <ele>318</ele>
        <time>2021-07-03 20:36:38</time>
      </trkpt>
      <trkpt lat="28.97776" lon="-13.69181">
        <ele>318.2</ele>
        <time>2021-07-03 20:36:39</time>
      </trkpt>
      <trkpt lat="28.97772" lon="-13.69179">
        <ele>318.2</ele>
        <time>2021-07-03 20:36:40</time>
      </trkpt>
      <trkpt lat="28.97767" lon="-13.69177">
        <ele>318.6</ele>
        <time>2021-07-03 20:36:41</time>
      </trkpt>
      <trkpt lat="28.97763" lon="-13.69175">
        <ele>318.6</ele>
        <time>2021-07-03 20:36:42</time>
      </trkpt>
      <trkpt lat="28.97759" lon="-13.69173">
        <ele>318.8</ele>
        <time>2021-07-03 20:36:43</time>
      </trkpt>
      <trkpt lat="28.97754" lon="-13.69171">
        <ele>318.8</ele>
        <time>2021-07-03 20:36:44</time>
      </trkpt>
      <trkpt lat="28.9775" lon="-13.69169">
        <ele>319</ele>
        <time>2021-07-03 20:36:45</time>
      </trkpt>
      <trkpt lat="28.97745" lon="-13.69167">
        <ele>319</ele>
        <time>2021-07-03 20:36:46</time>
      </trkpt>
      <trkpt lat="28.97741" lon="-13.69164">
        <ele>319</ele>
        <time>2021-07-03 20:36:47</time>
      </trkpt>
      <trkpt lat="28.97737" lon="-13.69162">
        <ele>319.4</ele>
        <time>2021-07-03 20:36:48</time>
      </trkpt>
      <trkpt lat="28.97732" lon="-13.69159">
        <ele>319.4</ele>
        <time>2021-07-03 20:36:49</time>
      </trkpt>
      <trkpt lat="28.97728" lon="-13.69157">
        <ele>319.6</ele>
        <time>2021-07-03 20:36:50</time>
      </trkpt>
      <trkpt lat="28.97723" lon="-13.69154">
        <ele>319.6</ele>
        <time>2021-07-03 20:36:51</time>
      </trkpt>
      <trkpt lat="28.97719" lon="-13.69151">
        <ele>319.6</ele>
        <time>2021-07-03 20:36:52</time>
      </trkpt>
      <trkpt lat="28.97714" lon="-13.69148">
        <ele>319.8</ele>
        <time>2021-07-03 20:36:53</time>
      </trkpt>
      <trkpt lat="28.9771" lon="-13.69146">
        <ele>319.8</ele>
        <time>2021-07-03 20:36:54</time>
      </trkpt>
      <trkpt lat="28.97706" lon="-13.69143">
        <ele>319.8</ele>
        <time>2021-07-03 20:36:58</time>
      </trkpt>
      <trkpt lat="28.97701" lon="-13.69141">
        <ele>320</ele>
        <time>2021-07-03 20:36:59</time>
      </trkpt>
      <trkpt lat="28.97697" lon="-13.69139">
        <ele>320</ele>
        <time>2021-07-03 20:37:00</time>
      </trkpt>
      <trkpt lat="28.97692" lon="-13.69136">
        <ele>320</ele>
        <time>2021-07-03 20:37:01</time>
      </trkpt>
      <trkpt lat="28.97688" lon="-13.69134">
        <ele>320.4</ele>
        <time>2021-07-03 20:37:02</time>
      </trkpt>
      <trkpt lat="28.97683" lon="-13.69131">
        <ele>320.4</ele>
        <time>2021-07-03 20:37:03</time>
      </trkpt>
      <trkpt lat="28.97679" lon="-13.69128">
        <ele>320.6</ele>
        <time>2021-07-03 20:37:04</time>
      </trkpt>
      <trkpt lat="28.97675" lon="-13.69125">
        <ele>320.8</ele>
        <time>2021-07-03 20:37:05</time>
      </trkpt>
      <trkpt lat="28.9767" lon="-13.69123">
        <ele>320.8</ele>
        <time>2021-07-03 20:37:06</time>
      </trkpt>
      <trkpt lat="28.97665" lon="-13.69121">
        <ele>321</ele>
        <time>2021-07-03 20:37:07</time>
      </trkpt>
      <trkpt lat="28.9766" lon="-13.69118">
        <ele>321</ele>
        <time>2021-07-03 20:37:08</time>
      </trkpt>
      <trkpt lat="28.97656" lon="-13.69116">
        <ele>321.2</ele>
        <time>2021-07-03 20:37:09</time>
      </trkpt>
      <trkpt lat="28.97651" lon="-13.69113">
        <ele>321.2</ele>
        <time>2021-07-03 20:37:10</time>
      </trkpt>
      <trkpt lat="28.97647" lon="-13.6911">
        <ele>321.4</ele>
        <time>2021-07-03 20:37:11</time>
      </trkpt>
      <trkpt lat="28.97642" lon="-13.69107">
        <ele>321.4</ele>
        <time>2021-07-03 20:37:12</time>
      </trkpt>
      <trkpt lat="28.97637" lon="-13.69105">
        <ele>321.4</ele>
        <time>2021-07-03 20:37:13</time>
      </trkpt>
      <trkpt lat="28.97632" lon="-13.69102">
        <ele>321.4</ele>
        <time>2021-07-03 20:37:14</time>
      </trkpt>
      <trkpt lat="28.97628" lon="-13.691">
        <ele>321.6</ele>
        <time>2021-07-03 20:37:15</time>
      </trkpt>
      <trkpt lat="28.97623" lon="-13.69097">
        <ele>321.6</ele>
        <time>2021-07-03 20:37:16</time>
      </trkpt>
      <trkpt lat="28.97617" lon="-13.69094">
        <ele>322</ele>
        <time>2021-07-03 20:37:17</time>
      </trkpt>
      <trkpt lat="28.97612" lon="-13.69092">
        <ele>322</ele>
        <time>2021-07-03 20:37:18</time>
      </trkpt>
      <trkpt lat="28.97607" lon="-13.69091">
        <ele>322</ele>
        <time>2021-07-03 20:37:19</time>
      </trkpt>
      <trkpt lat="28.97602" lon="-13.69089">
        <ele>322.2</ele>
        <time>2021-07-03 20:37:27</time>
      </trkpt>
      <trkpt lat="28.97597" lon="-13.69088">
        <ele>322.2</ele>
        <time>2021-07-03 20:37:28</time>
      </trkpt>
      <trkpt lat="28.97592" lon="-13.69087">
        <ele>322.2</ele>
        <time>2021-07-03 20:37:29</time>
      </trkpt>
      <trkpt lat="28.97587" lon="-13.69086">
        <ele>322.4</ele>
        <time>2021-07-03 20:37:30</time>
      </trkpt>
      <trkpt lat="28.97582" lon="-13.69085">
        <ele>322.4</ele>
        <time>2021-07-03 20:37:31</time>
      </trkpt>
      <trkpt lat="28.97577" lon="-13.69085">
        <ele>322.8</ele>
        <time>2021-07-03 20:37:32</time>
      </trkpt>
      <trkpt lat="28.97573" lon="-13.69086">
        <ele>323</ele>
        <time>2021-07-03 20:37:33</time>
      </trkpt>
      <trkpt lat="28.97568" lon="-13.69086">
        <ele>323</ele>
        <time>2021-07-03 20:37:34</time>
      </trkpt>
      <trkpt lat="28.97564" lon="-13.69087">
        <ele>323.4</ele>
        <time>2021-07-03 20:37:35</time>
      </trkpt>
      <trkpt lat="28.9756" lon="-13.69088">
        <ele>323.4</ele>
        <time>2021-07-03 20:37:36</time>
      </trkpt>
      <trkpt lat="28.97555" lon="-13.69088">
        <ele>323.6</ele>
        <time>2021-07-03 20:37:37</time>
      </trkpt>
      <trkpt lat="28.97551" lon="-13.69089">
        <ele>324</ele>
        <time>2021-07-03 20:37:38</time>
      </trkpt>
      <trkpt lat="28.97547" lon="-13.6909">
        <ele>324.4</ele>
        <time>2021-07-03 20:37:39</time>
      </trkpt>
      <trkpt lat="28.97544" lon="-13.6909">
        <ele>324.6</ele>
        <time>2021-07-03 20:37:40</time>
      </trkpt>
      <trkpt lat="28.9754" lon="-13.69091">
        <ele>325</ele>
        <time>2021-07-03 20:37:41</time>
      </trkpt>
      <trkpt lat="28.97536" lon="-13.69091">
        <ele>325.2</ele>
        <time>2021-07-03 20:37:42</time>
      </trkpt>
      <trkpt lat="28.97533" lon="-13.69091">
        <ele>325.2</ele>
        <time>2021-07-03 20:37:43</time>
      </trkpt>
      <trkpt lat="28.97529" lon="-13.69092">
        <ele>325.6</ele>
        <time>2021-07-03 20:37:44</time>
      </trkpt>
      <trkpt lat="28.97525" lon="-13.69093">
        <ele>325.6</ele>
        <time>2021-07-03 20:37:45</time>
      </trkpt>
      <trkpt lat="28.97521" lon="-13.69093">
        <ele>325.8</ele>
        <time>2021-07-03 20:37:46</time>
      </trkpt>
      <trkpt lat="28.97517" lon="-13.69094">
        <ele>325.8</ele>
        <time>2021-07-03 20:37:47</time>
      </trkpt>
      <trkpt lat="28.97514" lon="-13.69094">
        <ele>326.2</ele>
        <time>2021-07-03 20:37:48</time>
      </trkpt>
      <trkpt lat="28.9751" lon="-13.69095">
        <ele>326.2</ele>
        <time>2021-07-03 20:37:49</time>
      </trkpt>
      <trkpt lat="28.97507" lon="-13.69096">
        <ele>326.6</ele>
        <time>2021-07-03 20:37:50</time>
      </trkpt>
      <trkpt lat="28.97503" lon="-13.69097">
        <ele>327</ele>
        <time>2021-07-03 20:37:51</time>
      </trkpt>
      <trkpt lat="28.97499" lon="-13.69097">
        <ele>327.2</ele>
        <time>2021-07-03 20:37:52</time>
      </trkpt>
      <trkpt lat="28.97496" lon="-13.69098">
        <ele>327.4</ele>
        <time>2021-07-03 20:37:53</time>
      </trkpt>
      <trkpt lat="28.97493" lon="-13.69099">
        <ele>327.8</ele>
        <time>2021-07-03 20:37:54</time>
      </trkpt>
      <trkpt lat="28.9749" lon="-13.69099">
        <ele>328</ele>
        <time>2021-07-03 20:37:55</time>
      </trkpt>
      <trkpt lat="28.97486" lon="-13.691">
        <ele>328.2</ele>
        <time>2021-07-03 20:37:56</time>
      </trkpt>
      <trkpt lat="28.97483" lon="-13.691">
        <ele>328.2</ele>
        <time>2021-07-03 20:37:57</time>
      </trkpt>
      <trkpt lat="28.9748" lon="-13.69101">
        <ele>328.6</ele>
        <time>2021-07-03 20:37:58</time>
      </trkpt>
      <trkpt lat="28.97477" lon="-13.69101">
        <ele>328.8</ele>
        <time>2021-07-03 20:37:59</time>
      </trkpt>
      <trkpt lat="28.97475" lon="-13.69102">
        <ele>329.2</ele>
        <time>2021-07-03 20:38:00</time>
      </trkpt>
      <trkpt lat="28.97472" lon="-13.69102">
        <ele>329.4</ele>
        <time>2021-07-03 20:38:01</time>
      </trkpt>
      <trkpt lat="28.97469" lon="-13.69103">
        <ele>329.6</ele>
        <time>2021-07-03 20:38:02</time>
      </trkpt>
      <trkpt lat="28.97466" lon="-13.69103">
        <ele>329.8</ele>
        <time>2021-07-03 20:38:03</time>
      </trkpt>
      <trkpt lat="28.97463" lon="-13.69104">
        <ele>330.2</ele>
        <time>2021-07-03 20:38:04</time>
      </trkpt>
      <trkpt lat="28.9746" lon="-13.69104">
        <ele>330.4</ele>
        <time>2021-07-03 20:38:05</time>
      </trkpt>
      <trkpt lat="28.97458" lon="-13.69105">
        <ele>330.8</ele>
        <time>2021-07-03 20:38:06</time>
      </trkpt>
      <trkpt lat="28.97455" lon="-13.69105">
        <ele>331</ele>
        <time>2021-07-03 20:38:07</time>
      </trkpt>
      <trkpt lat="28.97452" lon="-13.69106">
        <ele>331</ele>
        <time>2021-07-03 20:38:08</time>
      </trkpt>
      <trkpt lat="28.9745" lon="-13.69106">
        <ele>331.4</ele>
        <time>2021-07-03 20:38:09</time>
      </trkpt>
      <trkpt lat="28.97447" lon="-13.69106">
        <ele>331.6</ele>
        <time>2021-07-03 20:38:10</time>
      </trkpt>
      <trkpt lat="28.97444" lon="-13.69107">
        <ele>331.8</ele>
        <time>2021-07-03 20:38:11</time>
      </trkpt>
      <trkpt lat="28.97441" lon="-13.69107">
        <ele>331.8</ele>
        <time>2021-07-03 20:38:12</time>
      </trkpt>
      <trkpt lat="28.97438" lon="-13.69107">
        <ele>332.2</ele>
        <time>2021-07-03 20:38:13</time>
      </trkpt>
      <trkpt lat="28.97435" lon="-13.69107">
        <ele>332.6</ele>
        <time>2021-07-03 20:38:14</time>
      </trkpt>
      <trkpt lat="28.97432" lon="-13.69107">
        <ele>332.8</ele>
        <time>2021-07-03 20:38:15</time>
      </trkpt>
      <trkpt lat="28.97429" lon="-13.69107">
        <ele>333</ele>
        <time>2021-07-03 20:38:16</time>
      </trkpt>
      <trkpt lat="28.97426" lon="-13.69107">
        <ele>333.2</ele>
        <time>2021-07-03 20:38:17</time>
      </trkpt>
      <trkpt lat="28.97424" lon="-13.69107">
        <ele>333.6</ele>
        <time>2021-07-03 20:38:18</time>
      </trkpt>
      <trkpt lat="28.97421" lon="-13.69107">
        <ele>333.8</ele>
        <time>2021-07-03 20:38:19</time>
      </trkpt>
      <trkpt lat="28.97418" lon="-13.69107">
        <ele>334</ele>
        <time>2021-07-03 20:38:20</time>
      </trkpt>
      <trkpt lat="28.97415" lon="-13.69107">
        <ele>334.2</ele>
        <time>2021-07-03 20:38:21</time>
      </trkpt>
      <trkpt lat="28.97412" lon="-13.69107">
        <ele>334.2</ele>
        <time>2021-07-03 20:38:22</time>
      </trkpt>
      <trkpt lat="28.9741" lon="-13.69106">
        <ele>334.6</ele>
        <time>2021-07-03 20:38:23</time>
      </trkpt>
      <trkpt lat="28.97407" lon="-13.69106">
        <ele>334.6</ele>
        <time>2021-07-03 20:38:24</time>
      </trkpt>
      <trkpt lat="28.97404" lon="-13.69106">
        <ele>335</ele>
        <time>2021-07-03 20:38:25</time>
      </trkpt>
      <trkpt lat="28.97401" lon="-13.69106">
        <ele>335.2</ele>
        <time>2021-07-03 20:38:26</time>
      </trkpt>
      <trkpt lat="28.97399" lon="-13.69106">
        <ele>335.2</ele>
        <time>2021-07-03 20:38:27</time>
      </trkpt>
      <trkpt lat="28.97396" lon="-13.69105">
        <ele>335.6</ele>
        <time>2021-07-03 20:38:28</time>
      </trkpt>
      <trkpt lat="28.97393" lon="-13.69105">
        <ele>335.6</ele>
        <time>2021-07-03 20:38:29</time>
      </trkpt>
      <trkpt lat="28.9739" lon="-13.69104">
        <ele>335.8</ele>
        <time>2021-07-03 20:38:30</time>
      </trkpt>
      <trkpt lat="28.97387" lon="-13.69103">
        <ele>336.2</ele>
        <time>2021-07-03 20:38:31</time>
      </trkpt>
      <trkpt lat="28.97385" lon="-13.69102">
        <ele>336.4</ele>
        <time>2021-07-03 20:38:32</time>
      </trkpt>
      <trkpt lat="28.97382" lon="-13.69101">
        <ele>336.6</ele>
        <time>2021-07-03 20:38:33</time>
      </trkpt>
      <trkpt lat="28.9738" lon="-13.691">
        <ele>336.6</ele>
        <time>2021-07-03 20:38:34</time>
      </trkpt>
      <trkpt lat="28.97377" lon="-13.69099">
        <ele>337</ele>
        <time>2021-07-03 20:38:35</time>
      </trkpt>
      <trkpt lat="28.97374" lon="-13.69098">
        <ele>337</ele>
        <time>2021-07-03 20:38:36</time>
      </trkpt>
      <trkpt lat="28.97372" lon="-13.69097">
        <ele>337.4</ele>
        <time>2021-07-03 20:38:37</time>
      </trkpt>
      <trkpt lat="28.97369" lon="-13.69096">
        <ele>337.6</ele>
        <time>2021-07-03 20:38:38</time>
      </trkpt>
      <trkpt lat="28.97367" lon="-13.69095">
        <ele>337.6</ele>
        <time>2021-07-03 20:38:39</time>
      </trkpt>
      <trkpt lat="28.97364" lon="-13.69093">
        <ele>338</ele>
        <time>2021-07-03 20:38:40</time>
      </trkpt>
      <trkpt lat="28.97362" lon="-13.69092">
        <ele>338.2</ele>
        <time>2021-07-03 20:38:41</time>
      </trkpt>
      <trkpt lat="28.97359" lon="-13.6909">
        <ele>338.4</ele>
        <time>2021-07-03 20:38:42</time>
      </trkpt>
      <trkpt lat="28.97357" lon="-13.69088">
        <ele>338.4</ele>
        <time>2021-07-03 20:38:43</time>
      </trkpt>
      <trkpt lat="28.97354" lon="-13.69086">
        <ele>338.8</ele>
        <time>2021-07-03 20:38:44</time>
      </trkpt>
      <trkpt lat="28.97352" lon="-13.69084">
        <ele>338.8</ele>
        <time>2021-07-03 20:38:45</time>
      </trkpt>
      <trkpt lat="28.9735" lon="-13.69082">
        <ele>339.2</ele>
        <time>2021-07-03 20:38:46</time>
      </trkpt>
      <trkpt lat="28.97347" lon="-13.6908">
        <ele>339.2</ele>
        <time>2021-07-03 20:38:47</time>
      </trkpt>
      <trkpt lat="28.97345" lon="-13.69078">
        <ele>339.4</ele>
        <time>2021-07-03 20:38:48</time>
      </trkpt>
      <trkpt lat="28.97342" lon="-13.69076">
        <ele>339.4</ele>
        <time>2021-07-03 20:38:49</time>
      </trkpt>
      <trkpt lat="28.9734" lon="-13.69074">
        <ele>340</ele>
        <time>2021-07-03 20:38:50</time>
      </trkpt>
      <trkpt lat="28.97338" lon="-13.69071">
        <ele>340.2</ele>
        <time>2021-07-03 20:38:51</time>
      </trkpt>
      <trkpt lat="28.97336" lon="-13.69068">
        <ele>340.4</ele>
        <time>2021-07-03 20:38:52</time>
      </trkpt>
      <trkpt lat="28.97334" lon="-13.69065">
        <ele>340.6</ele>
        <time>2021-07-03 20:38:53</time>
      </trkpt>
      <trkpt lat="28.97332" lon="-13.69062">
        <ele>340.8</ele>
        <time>2021-07-03 20:38:54</time>
      </trkpt>
      <trkpt lat="28.9733" lon="-13.69059">
        <ele>340.8</ele>
        <time>2021-07-03 20:38:55</time>
      </trkpt>
      <trkpt lat="28.97328" lon="-13.69056">
        <ele>341.2</ele>
        <time>2021-07-03 20:38:56</time>
      </trkpt>
      <trkpt lat="28.97326" lon="-13.69052">
        <ele>341.2</ele>
        <time>2021-07-03 20:38:57</time>
      </trkpt>
      <trkpt lat="28.97324" lon="-13.69049">
        <ele>341.6</ele>
        <time>2021-07-03 20:38:58</time>
      </trkpt>
      <trkpt lat="28.97323" lon="-13.69045">
        <ele>341.6</ele>
        <time>2021-07-03 20:38:59</time>
      </trkpt>
      <trkpt lat="28.97322" lon="-13.69041">
        <ele>341.6</ele>
        <time>2021-07-03 20:39:00</time>
      </trkpt>
      <trkpt lat="28.9732" lon="-13.69037">
        <ele>341.8</ele>
        <time>2021-07-03 20:39:01</time>
      </trkpt>
      <trkpt lat="28.97319" lon="-13.69033">
        <ele>341.8</ele>
        <time>2021-07-03 20:39:02</time>
      </trkpt>
      <trkpt lat="28.97317" lon="-13.69029">
        <ele>341.8</ele>
        <time>2021-07-03 20:39:03</time>
      </trkpt>
      <trkpt lat="28.97315" lon="-13.69025">
        <ele>341.8</ele>
        <time>2021-07-03 20:39:04</time>
      </trkpt>
      <trkpt lat="28.97313" lon="-13.69021">
        <ele>341.8</ele>
        <time>2021-07-03 20:39:05</time>
      </trkpt>
      <trkpt lat="28.97311" lon="-13.69017">
        <ele>342</ele>
        <time>2021-07-03 20:39:06</time>
      </trkpt>
      <trkpt lat="28.97308" lon="-13.69014">
        <ele>342</ele>
        <time>2021-07-03 20:39:07</time>
      </trkpt>
      <trkpt lat="28.97305" lon="-13.69011">
        <ele>342</ele>
        <time>2021-07-03 20:39:08</time>
      </trkpt>
      <trkpt lat="28.97301" lon="-13.69009">
        <ele>342</ele>
        <time>2021-07-03 20:39:09</time>
      </trkpt>
      <trkpt lat="28.97297" lon="-13.69008">
        <ele>342</ele>
        <time>2021-07-03 20:39:10</time>
      </trkpt>
      <trkpt lat="28.97293" lon="-13.69008">
        <ele>342</ele>
        <time>2021-07-03 20:39:11</time>
      </trkpt>
      <trkpt lat="28.97288" lon="-13.69008">
        <ele>342.4</ele>
        <time>2021-07-03 20:39:12</time>
      </trkpt>
      <trkpt lat="28.97284" lon="-13.69008">
        <ele>342.4</ele>
        <time>2021-07-03 20:39:13</time>
      </trkpt>
      <trkpt lat="28.9728" lon="-13.69007">
        <ele>342.6</ele>
        <time>2021-07-03 20:39:14</time>
      </trkpt>
      <trkpt lat="28.97277" lon="-13.69007">
        <ele>342.6</ele>
        <time>2021-07-03 20:39:15</time>
      </trkpt>
      <trkpt lat="28.97273" lon="-13.69006">
        <ele>343</ele>
        <time>2021-07-03 20:39:16</time>
      </trkpt>
      <trkpt lat="28.97269" lon="-13.69006">
        <ele>343</ele>
        <time>2021-07-03 20:39:17</time>
      </trkpt>
      <trkpt lat="28.97265" lon="-13.69007">
        <ele>343.2</ele>
        <time>2021-07-03 20:39:18</time>
      </trkpt>
      <trkpt lat="28.97261" lon="-13.69007">
        <ele>343.2</ele>
        <time>2021-07-03 20:39:19</time>
      </trkpt>
      <trkpt lat="28.97258" lon="-13.69008">
        <ele>343.2</ele>
        <time>2021-07-03 20:39:20</time>
      </trkpt>
      <trkpt lat="28.97254" lon="-13.69007">
        <ele>343.4</ele>
        <time>2021-07-03 20:39:21</time>
      </trkpt>
      <trkpt lat="28.97251" lon="-13.69007">
        <ele>343.4</ele>
        <time>2021-07-03 20:39:22</time>
      </trkpt>
      <trkpt lat="28.97248" lon="-13.69007">
        <ele>343.8</ele>
        <time>2021-07-03 20:39:23</time>
      </trkpt>
      <trkpt lat="28.97244" lon="-13.69007">
        <ele>343.8</ele>
        <time>2021-07-03 20:39:24</time>
      </trkpt>
      <trkpt lat="28.97241" lon="-13.69007">
        <ele>344</ele>
        <time>2021-07-03 20:39:25</time>
      </trkpt>
      <trkpt lat="28.97238" lon="-13.69006">
        <ele>344</ele>
        <time>2021-07-03 20:39:26</time>
      </trkpt>
      <trkpt lat="28.97234" lon="-13.69006">
        <ele>344.4</ele>
        <time>2021-07-03 20:39:27</time>
      </trkpt>
      <trkpt lat="28.97231" lon="-13.69005">
        <ele>344.4</ele>
        <time>2021-07-03 20:39:28</time>
      </trkpt>
      <trkpt lat="28.97227" lon="-13.69005">
        <ele>344.6</ele>
        <time>2021-07-03 20:39:29</time>
      </trkpt>
      <trkpt lat="28.97224" lon="-13.69004">
        <ele>344.6</ele>
        <time>2021-07-03 20:39:30</time>
      </trkpt>
      <trkpt lat="28.97221" lon="-13.69003">
        <ele>345</ele>
        <time>2021-07-03 20:39:31</time>
      </trkpt>
      <trkpt lat="28.97218" lon="-13.69002">
        <ele>345</ele>
        <time>2021-07-03 20:39:32</time>
      </trkpt>
      <trkpt lat="28.97215" lon="-13.69001">
        <ele>345.2</ele>
        <time>2021-07-03 20:39:33</time>
      </trkpt>
      <trkpt lat="28.97211" lon="-13.68999">
        <ele>345.2</ele>
        <time>2021-07-03 20:39:34</time>
      </trkpt>
      <trkpt lat="28.97208" lon="-13.68998">
        <ele>345.6</ele>
        <time>2021-07-03 20:39:35</time>
      </trkpt>
      <trkpt lat="28.97205" lon="-13.68997">
        <ele>345.8</ele>
        <time>2021-07-03 20:39:36</time>
      </trkpt>
      <trkpt lat="28.97202" lon="-13.68996">
        <ele>346</ele>
        <time>2021-07-03 20:39:37</time>
      </trkpt>
      <trkpt lat="28.97199" lon="-13.68995">
        <ele>346</ele>
        <time>2021-07-03 20:39:38</time>
      </trkpt>
      <trkpt lat="28.97196" lon="-13.68994">
        <ele>346.4</ele>
        <time>2021-07-03 20:39:39</time>
      </trkpt>
      <trkpt lat="28.97193" lon="-13.68993">
        <ele>346.6</ele>
        <time>2021-07-03 20:39:40</time>
      </trkpt>
      <trkpt lat="28.9719" lon="-13.68991">
        <ele>346.6</ele>
        <time>2021-07-03 20:39:41</time>
      </trkpt>
      <trkpt lat="28.97186" lon="-13.6899">
        <ele>347</ele>
        <time>2021-07-03 20:39:42</time>
      </trkpt>
      <trkpt lat="28.97183" lon="-13.68989">
        <ele>347</ele>
        <time>2021-07-03 20:39:43</time>
      </trkpt>
      <trkpt lat="28.9718" lon="-13.68988">
        <ele>347.4</ele>
        <time>2021-07-03 20:39:44</time>
      </trkpt>
      <trkpt lat="28.97177" lon="-13.68987">
        <ele>347.4</ele>
        <time>2021-07-03 20:39:45</time>
      </trkpt>
      <trkpt lat="28.97174" lon="-13.68985">
        <ele>347.6</ele>
        <time>2021-07-03 20:39:46</time>
      </trkpt>
      <trkpt lat="28.97171" lon="-13.68984">
        <ele>347.6</ele>
        <time>2021-07-03 20:39:47</time>
      </trkpt>
      <trkpt lat="28.97168" lon="-13.68983">
        <ele>348</ele>
        <time>2021-07-03 20:39:48</time>
      </trkpt>
      <trkpt lat="28.97164" lon="-13.68981">
        <ele>348.4</ele>
        <time>2021-07-03 20:39:49</time>
      </trkpt>
      <trkpt lat="28.97161" lon="-13.68979">
        <ele>348.6</ele>
        <time>2021-07-03 20:39:50</time>
      </trkpt>
      <trkpt lat="28.97158" lon="-13.68978">
        <ele>348.8</ele>
        <time>2021-07-03 20:39:51</time>
      </trkpt>
      <trkpt lat="28.97155" lon="-13.68977">
        <ele>349</ele>
        <time>2021-07-03 20:39:52</time>
      </trkpt>
      <trkpt lat="28.97152" lon="-13.68975">
        <ele>349.2</ele>
        <time>2021-07-03 20:39:53</time>
      </trkpt>
      <trkpt lat="28.97148" lon="-13.68974">
        <ele>349.4</ele>
        <time>2021-07-03 20:39:54</time>
      </trkpt>
      <trkpt lat="28.97145" lon="-13.68972">
        <ele>349.8</ele>
        <time>2021-07-03 20:39:55</time>
      </trkpt>
      <trkpt lat="28.97142" lon="-13.68971">
        <ele>350</ele>
        <time>2021-07-03 20:39:56</time>
      </trkpt>
      <trkpt lat="28.97139" lon="-13.6897">
        <ele>350.4</ele>
        <time>2021-07-03 20:39:57</time>
      </trkpt>
      <trkpt lat="28.97135" lon="-13.68969">
        <ele>350.6</ele>
        <time>2021-07-03 20:39:58</time>
      </trkpt>
      <trkpt lat="28.97132" lon="-13.68967">
        <ele>350.8</ele>
        <time>2021-07-03 20:39:59</time>
      </trkpt>
      <trkpt lat="28.97129" lon="-13.68966">
        <ele>351</ele>
        <time>2021-07-03 20:40:00</time>
      </trkpt>
      <trkpt lat="28.97126" lon="-13.68964">
        <ele>351</ele>
        <time>2021-07-03 20:40:01</time>
      </trkpt>
      <trkpt lat="28.97123" lon="-13.68963">
        <ele>351.4</ele>
        <time>2021-07-03 20:40:02</time>
      </trkpt>
      <trkpt lat="28.97119" lon="-13.68961">
        <ele>351.4</ele>
        <time>2021-07-03 20:40:03</time>
      </trkpt>
      <trkpt lat="28.97116" lon="-13.6896">
        <ele>351.8</ele>
        <time>2021-07-03 20:40:04</time>
      </trkpt>
      <trkpt lat="28.97113" lon="-13.68959">
        <ele>351.8</ele>
        <time>2021-07-03 20:40:05</time>
      </trkpt>
      <trkpt lat="28.9711" lon="-13.68957">
        <ele>352.2</ele>
        <time>2021-07-03 20:40:06</time>
      </trkpt>
      <trkpt lat="28.97106" lon="-13.68956">
        <ele>352.4</ele>
        <time>2021-07-03 20:40:07</time>
      </trkpt>
      <trkpt lat="28.97103" lon="-13.68955">
        <ele>352.4</ele>
        <time>2021-07-03 20:40:08</time>
      </trkpt>
      <trkpt lat="28.971" lon="-13.68953">
        <ele>352.8</ele>
        <time>2021-07-03 20:40:09</time>
      </trkpt>
      <trkpt lat="28.97097" lon="-13.68952">
        <ele>352.8</ele>
        <time>2021-07-03 20:40:10</time>
      </trkpt>
      <trkpt lat="28.97094" lon="-13.68951">
        <ele>353.2</ele>
        <time>2021-07-03 20:40:11</time>
      </trkpt>
      <trkpt lat="28.9709" lon="-13.68949">
        <ele>353.4</ele>
        <time>2021-07-03 20:40:12</time>
      </trkpt>
      <trkpt lat="28.97087" lon="-13.68948">
        <ele>353.8</ele>
        <time>2021-07-03 20:40:13</time>
      </trkpt>
      <trkpt lat="28.97084" lon="-13.68947">
        <ele>354</ele>
        <time>2021-07-03 20:40:14</time>
      </trkpt>
      <trkpt lat="28.97081" lon="-13.68946">
        <ele>354.4</ele>
        <time>2021-07-03 20:40:15</time>
      </trkpt>
      <trkpt lat="28.97078" lon="-13.68945">
        <ele>354.6</ele>
        <time>2021-07-03 20:40:16</time>
      </trkpt>
      <trkpt lat="28.97074" lon="-13.68943">
        <ele>355</ele>
        <time>2021-07-03 20:40:17</time>
      </trkpt>
      <trkpt lat="28.97071" lon="-13.68942">
        <ele>355.2</ele>
        <time>2021-07-03 20:40:18</time>
      </trkpt>
      <trkpt lat="28.97068" lon="-13.6894">
        <ele>355.4</ele>
        <time>2021-07-03 20:40:19</time>
      </trkpt>
      <trkpt lat="28.97065" lon="-13.68939">
        <ele>355.6</ele>
        <time>2021-07-03 20:40:20</time>
      </trkpt>
      <trkpt lat="28.97062" lon="-13.68938">
        <ele>356</ele>
        <time>2021-07-03 20:40:21</time>
      </trkpt>
      <trkpt lat="28.97059" lon="-13.68937">
        <ele>356.2</ele>
        <time>2021-07-03 20:40:22</time>
      </trkpt>
      <trkpt lat="28.97056" lon="-13.68936">
        <ele>356.6</ele>
        <time>2021-07-03 20:40:23</time>
      </trkpt>
      <trkpt lat="28.97053" lon="-13.68934">
        <ele>357</ele>
        <time>2021-07-03 20:40:24</time>
      </trkpt>
      <trkpt lat="28.9705" lon="-13.68933">
        <ele>357.2</ele>
        <time>2021-07-03 20:40:25</time>
      </trkpt>
      <trkpt lat="28.97047" lon="-13.68932">
        <ele>357.4</ele>
        <time>2021-07-03 20:40:26</time>
      </trkpt>
      <trkpt lat="28.97044" lon="-13.68931">
        <ele>357.6</ele>
        <time>2021-07-03 20:40:27</time>
      </trkpt>
      <trkpt lat="28.97041" lon="-13.68929">
        <ele>357.8</ele>
        <time>2021-07-03 20:40:28</time>
      </trkpt>
      <trkpt lat="28.97038" lon="-13.68928">
        <ele>357.8</ele>
        <time>2021-07-03 20:40:29</time>
      </trkpt>
      <trkpt lat="28.97036" lon="-13.68927">
        <ele>358.2</ele>
        <time>2021-07-03 20:40:30</time>
      </trkpt>
      <trkpt lat="28.97033" lon="-13.68926">
        <ele>358.2</ele>
        <time>2021-07-03 20:40:31</time>
      </trkpt>
      <trkpt lat="28.9703" lon="-13.68925">
        <ele>358.6</ele>
        <time>2021-07-03 20:40:32</time>
      </trkpt>
      <trkpt lat="28.97028" lon="-13.68924">
        <ele>358.2</ele>
        <time>2021-07-03 20:40:33</time>
      </trkpt>
      <trkpt lat="28.97025" lon="-13.68923">
        <ele>358.4</ele>
        <time>2021-07-03 20:40:34</time>
      </trkpt>
      <trkpt lat="28.97022" lon="-13.68922">
        <ele>359</ele>
        <time>2021-07-03 20:40:35</time>
      </trkpt>
      <trkpt lat="28.9702" lon="-13.68921">
        <ele>350.6</ele>
        <time>2021-07-03 20:40:36</time>
      </trkpt>
      <trkpt lat="28.97017" lon="-13.6892">
        <ele>353.2</ele>
        <time>2021-07-03 20:40:37</time>
      </trkpt>
      <trkpt lat="28.97014" lon="-13.68919">
        <ele>355.4</ele>
        <time>2021-07-03 20:40:38</time>
      </trkpt>
      <trkpt lat="28.97012" lon="-13.68918">
        <ele>356.6</ele>
        <time>2021-07-03 20:40:39</time>
      </trkpt>
      <trkpt lat="28.97009" lon="-13.68917">
        <ele>357.8</ele>
        <time>2021-07-03 20:40:40</time>
      </trkpt>
      <trkpt lat="28.97006" lon="-13.68916">
        <ele>358.4</ele>
        <time>2021-07-03 20:40:41</time>
      </trkpt>
      <trkpt lat="28.97004" lon="-13.68915">
        <ele>359.2</ele>
        <time>2021-07-03 20:40:42</time>
      </trkpt>
      <trkpt lat="28.97001" lon="-13.68914">
        <ele>359.8</ele>
        <time>2021-07-03 20:40:43</time>
      </trkpt>
      <trkpt lat="28.96999" lon="-13.68913">
        <ele>360.4</ele>
        <time>2021-07-03 20:40:44</time>
      </trkpt>
      <trkpt lat="28.96996" lon="-13.68913">
        <ele>361</ele>
        <time>2021-07-03 20:40:45</time>
      </trkpt>
      <trkpt lat="28.96993" lon="-13.68912">
        <ele>361.4</ele>
        <time>2021-07-03 20:40:46</time>
      </trkpt>
      <trkpt lat="28.96991" lon="-13.68911">
        <ele>361.6</ele>
        <time>2021-07-03 20:40:47</time>
      </trkpt>
      <trkpt lat="28.96987" lon="-13.68911">
        <ele>361.8</ele>
        <time>2021-07-03 20:40:48</time>
      </trkpt>
      <trkpt lat="28.96984" lon="-13.6891">
        <ele>362.2</ele>
        <time>2021-07-03 20:40:49</time>
      </trkpt>
      <trkpt lat="28.96981" lon="-13.68909">
        <ele>362.4</ele>
        <time>2021-07-03 20:40:50</time>
      </trkpt>
      <trkpt lat="28.96977" lon="-13.68908">
        <ele>362.4</ele>
        <time>2021-07-03 20:40:51</time>
      </trkpt>
      <trkpt lat="28.96974" lon="-13.68907">
        <ele>362.8</ele>
        <time>2021-07-03 20:40:52</time>
      </trkpt>
      <trkpt lat="28.96971" lon="-13.68906">
        <ele>362.8</ele>
        <time>2021-07-03 20:40:53</time>
      </trkpt>
      <trkpt lat="28.96968" lon="-13.68906">
        <ele>362.4</ele>
        <time>2021-07-03 20:40:54</time>
      </trkpt>
      <trkpt lat="28.96965" lon="-13.68905">
        <ele>362.6</ele>
        <time>2021-07-03 20:40:55</time>
      </trkpt>
      <trkpt lat="28.96962" lon="-13.68904">
        <ele>363</ele>
        <time>2021-07-03 20:40:56</time>
      </trkpt>
      <trkpt lat="28.96959" lon="-13.68903">
        <ele>363.2</ele>
        <time>2021-07-03 20:40:57</time>
      </trkpt>
      <trkpt lat="28.96955" lon="-13.68903">
        <ele>363.4</ele>
        <time>2021-07-03 20:40:58</time>
      </trkpt>
      <trkpt lat="28.96952" lon="-13.68903">
        <ele>363.4</ele>
        <time>2021-07-03 20:40:59</time>
      </trkpt>
      <trkpt lat="28.96948" lon="-13.68902">
        <ele>363.6</ele>
        <time>2021-07-03 20:41:00</time>
      </trkpt>
      <trkpt lat="28.96944" lon="-13.68901">
        <ele>363.6</ele>
        <time>2021-07-03 20:41:01</time>
      </trkpt>
      <trkpt lat="28.96941" lon="-13.68901">
        <ele>363.8</ele>
        <time>2021-07-03 20:41:02</time>
      </trkpt>
      <trkpt lat="28.96937" lon="-13.689">
        <ele>363.8</ele>
        <time>2021-07-03 20:41:03</time>
      </trkpt>
      <trkpt lat="28.96933" lon="-13.68899">
        <ele>364.2</ele>
        <time>2021-07-03 20:41:04</time>
      </trkpt>
      <trkpt lat="28.96929" lon="-13.68898">
        <ele>364.2</ele>
        <time>2021-07-03 20:41:05</time>
      </trkpt>
      <trkpt lat="28.96926" lon="-13.68897">
        <ele>364.4</ele>
        <time>2021-07-03 20:41:06</time>
      </trkpt>
      <trkpt lat="28.96922" lon="-13.68897">
        <ele>364.8</ele>
        <time>2021-07-03 20:41:07</time>
      </trkpt>
      <trkpt lat="28.96918" lon="-13.68896">
        <ele>364.8</ele>
        <time>2021-07-03 20:41:08</time>
      </trkpt>
      <trkpt lat="28.96914" lon="-13.68895">
        <ele>365</ele>
        <time>2021-07-03 20:41:09</time>
      </trkpt>
      <trkpt lat="28.9691" lon="-13.68894">
        <ele>365</ele>
        <time>2021-07-03 20:41:10</time>
      </trkpt>
      <trkpt lat="28.96906" lon="-13.68893">
        <ele>365.4</ele>
        <time>2021-07-03 20:41:11</time>
      </trkpt>
      <trkpt lat="28.96903" lon="-13.68892">
        <ele>365.4</ele>
        <time>2021-07-03 20:41:12</time>
      </trkpt>
      <trkpt lat="28.96899" lon="-13.68891">
        <ele>365.6</ele>
        <time>2021-07-03 20:41:13</time>
      </trkpt>
      <trkpt lat="28.96895" lon="-13.6889">
        <ele>365.6</ele>
        <time>2021-07-03 20:41:14</time>
      </trkpt>
      <trkpt lat="28.96891" lon="-13.68889">
        <ele>366</ele>
        <time>2021-07-03 20:41:15</time>
      </trkpt>
      <trkpt lat="28.96887" lon="-13.68889">
        <ele>366</ele>
        <time>2021-07-03 20:41:16</time>
      </trkpt>
      <trkpt lat="28.96884" lon="-13.68888">
        <ele>366</ele>
        <time>2021-07-03 20:41:17</time>
      </trkpt>
      <trkpt lat="28.9688" lon="-13.68887">
        <ele>366.2</ele>
        <time>2021-07-03 20:41:18</time>
      </trkpt>
      <trkpt lat="28.96877" lon="-13.68885">
        <ele>366.2</ele>
        <time>2021-07-03 20:41:19</time>
      </trkpt>
      <trkpt lat="28.96873" lon="-13.68884">
        <ele>366.6</ele>
        <time>2021-07-03 20:41:20</time>
      </trkpt>
      <trkpt lat="28.9687" lon="-13.68883">
        <ele>366.6</ele>
        <time>2021-07-03 20:41:21</time>
      </trkpt>
      <trkpt lat="28.96866" lon="-13.68882">
        <ele>366.8</ele>
        <time>2021-07-03 20:41:22</time>
      </trkpt>
      <trkpt lat="28.96862" lon="-13.6888">
        <ele>366.8</ele>
        <time>2021-07-03 20:41:23</time>
      </trkpt>
      <trkpt lat="28.96858" lon="-13.68879">
        <ele>367.2</ele>
        <time>2021-07-03 20:41:24</time>
      </trkpt>
      <trkpt lat="28.96855" lon="-13.68877">
        <ele>367.2</ele>
        <time>2021-07-03 20:41:25</time>
      </trkpt>
      <trkpt lat="28.96851" lon="-13.68875">
        <ele>367.2</ele>
        <time>2021-07-03 20:41:26</time>
      </trkpt>
      <trkpt lat="28.96847" lon="-13.68873">
        <ele>367.6</ele>
        <time>2021-07-03 20:41:27</time>
      </trkpt>
      <trkpt lat="28.96843" lon="-13.68872">
        <ele>367.6</ele>
        <time>2021-07-03 20:41:28</time>
      </trkpt>
      <trkpt lat="28.96819" lon="-13.68862">
        <ele>367.8</ele>
        <time>2021-07-03 20:41:29</time>
      </trkpt>
      <trkpt lat="28.96814" lon="-13.68861">
        <ele>367.8</ele>
        <time>2021-07-03 20:41:30</time>
      </trkpt>
      <trkpt lat="28.96808" lon="-13.68859">
        <ele>367.6</ele>
        <time>2021-07-03 20:41:31</time>
      </trkpt>
      <trkpt lat="28.96801" lon="-13.68857">
        <ele>367.6</ele>
        <time>2021-07-03 20:41:32</time>
      </trkpt>
      <trkpt lat="28.96794" lon="-13.68855">
        <ele>367.2</ele>
        <time>2021-07-03 20:41:33</time>
      </trkpt>
      <trkpt lat="28.96786" lon="-13.68853">
        <ele>367</ele>
        <time>2021-07-03 20:41:34</time>
      </trkpt>
      <trkpt lat="28.96778" lon="-13.68852">
        <ele>366.6</ele>
        <time>2021-07-03 20:41:35</time>
      </trkpt>
      <trkpt lat="28.96769" lon="-13.68851">
        <ele>366</ele>
        <time>2021-07-03 20:41:36</time>
      </trkpt>
      <trkpt lat="28.9676" lon="-13.6885">
        <ele>365.4</ele>
        <time>2021-07-03 20:41:37</time>
      </trkpt>
      <trkpt lat="28.96749" lon="-13.6885">
        <ele>364.8</ele>
        <time>2021-07-03 20:41:38</time>
      </trkpt>
      <trkpt lat="28.96739" lon="-13.6885">
        <ele>364.2</ele>
        <time>2021-07-03 20:41:39</time>
      </trkpt>
      <trkpt lat="28.96728" lon="-13.68852">
        <ele>363.4</ele>
        <time>2021-07-03 20:41:40</time>
      </trkpt>
      <trkpt lat="28.96718" lon="-13.68855">
        <ele>362.8</ele>
        <time>2021-07-03 20:41:41</time>
      </trkpt>
      <trkpt lat="28.96707" lon="-13.68859">
        <ele>362</ele>
        <time>2021-07-03 20:41:42</time>
      </trkpt>
      <trkpt lat="28.96697" lon="-13.68864">
        <ele>361.6</ele>
        <time>2021-07-03 20:41:43</time>
      </trkpt>
      <trkpt lat="28.96687" lon="-13.68869">
        <ele>361</ele>
        <time>2021-07-03 20:41:44</time>
      </trkpt>
      <trkpt lat="28.96677" lon="-13.68875">
        <ele>360.4</ele>
        <time>2021-07-03 20:41:45</time>
      </trkpt>
      <trkpt lat="28.96658" lon="-13.68887">
        <ele>359.4</ele>
        <time>2021-07-03 20:41:46</time>
      </trkpt>
      <trkpt lat="28.96648" lon="-13.68893">
        <ele>358.8</ele>
        <time>2021-07-03 20:41:47</time>
      </trkpt>
      <trkpt lat="28.96639" lon="-13.68899">
        <ele>358.4</ele>
        <time>2021-07-03 20:41:48</time>
      </trkpt>
      <trkpt lat="28.96629" lon="-13.68905">
        <ele>357.8</ele>
        <time>2021-07-03 20:41:49</time>
      </trkpt>
      <trkpt lat="28.9662" lon="-13.68911">
        <ele>357.4</ele>
        <time>2021-07-03 20:41:50</time>
      </trkpt>
      <trkpt lat="28.96611" lon="-13.68916">
        <ele>357</ele>
        <time>2021-07-03 20:41:51</time>
      </trkpt>
      <trkpt lat="28.96602" lon="-13.68922">
        <ele>356.6</ele>
        <time>2021-07-03 20:41:52</time>
      </trkpt>
      <trkpt lat="28.96593" lon="-13.68927">
        <ele>356.2</ele>
        <time>2021-07-03 20:41:53</time>
      </trkpt>
      <trkpt lat="28.96584" lon="-13.68933">
        <ele>355.8</ele>
        <time>2021-07-03 20:41:54</time>
      </trkpt>
      <trkpt lat="28.96575" lon="-13.68939">
        <ele>355.4</ele>
        <time>2021-07-03 20:41:55</time>
      </trkpt>
      <trkpt lat="28.96566" lon="-13.68944">
        <ele>354.8</ele>
        <time>2021-07-03 20:41:56</time>
      </trkpt>
      <trkpt lat="28.96558" lon="-13.6895">
        <ele>354.2</ele>
        <time>2021-07-03 20:41:57</time>
      </trkpt>
      <trkpt lat="28.96549" lon="-13.68955">
        <ele>353.6</ele>
        <time>2021-07-03 20:41:58</time>
      </trkpt>
      <trkpt lat="28.96539" lon="-13.68961">
        <ele>353.4</ele>
        <time>2021-07-03 20:41:59</time>
      </trkpt>
      <trkpt lat="28.9653" lon="-13.68966">
        <ele>353.2</ele>
        <time>2021-07-03 20:42:00</time>
      </trkpt>
      <trkpt lat="28.96521" lon="-13.68971">
        <ele>352.6</ele>
        <time>2021-07-03 20:42:01</time>
      </trkpt>
      <trkpt lat="28.96513" lon="-13.68975">
        <ele>352.2</ele>
        <time>2021-07-03 20:42:02</time>
      </trkpt>
      <trkpt lat="28.96503" lon="-13.6898">
        <ele>351.8</ele>
        <time>2021-07-03 20:42:03</time>
      </trkpt>
      <trkpt lat="28.96494" lon="-13.68984">
        <ele>351.2</ele>
        <time>2021-07-03 20:42:04</time>
      </trkpt>
      <trkpt lat="28.96485" lon="-13.68988">
        <ele>350.6</ele>
        <time>2021-07-03 20:42:05</time>
      </trkpt>
      <trkpt lat="28.96475" lon="-13.68993">
        <ele>350</ele>
        <time>2021-07-03 20:42:06</time>
      </trkpt>
      <trkpt lat="28.96466" lon="-13.68997">
        <ele>349.4</ele>
        <time>2021-07-03 20:42:07</time>
      </trkpt>
      <trkpt lat="28.96456" lon="-13.69002">
        <ele>348.8</ele>
        <time>2021-07-03 20:42:08</time>
      </trkpt>
      <trkpt lat="28.96446" lon="-13.69006">
        <ele>348.2</ele>
        <time>2021-07-03 20:42:09</time>
      </trkpt>
      <trkpt lat="28.96436" lon="-13.69011">
        <ele>347.6</ele>
        <time>2021-07-03 20:42:10</time>
      </trkpt>
      <trkpt lat="28.96427" lon="-13.69016">
        <ele>347</ele>
        <time>2021-07-03 20:42:11</time>
      </trkpt>
      <trkpt lat="28.96417" lon="-13.6902">
        <ele>346.6</ele>
        <time>2021-07-03 20:42:12</time>
      </trkpt>
      <trkpt lat="28.96408" lon="-13.69025">
        <ele>346.2</ele>
        <time>2021-07-03 20:42:13</time>
      </trkpt>
      <trkpt lat="28.96398" lon="-13.69029">
        <ele>345.8</ele>
        <time>2021-07-03 20:42:14</time>
      </trkpt>
      <trkpt lat="28.96389" lon="-13.69033">
        <ele>345.2</ele>
        <time>2021-07-03 20:42:15</time>
      </trkpt>
      <trkpt lat="28.96379" lon="-13.69037">
        <ele>344.8</ele>
        <time>2021-07-03 20:42:16</time>
      </trkpt>
      <trkpt lat="28.9637" lon="-13.69041">
        <ele>344.4</ele>
        <time>2021-07-03 20:42:17</time>
      </trkpt>
      <trkpt lat="28.96362" lon="-13.69046">
        <ele>344</ele>
        <time>2021-07-03 20:42:18</time>
      </trkpt>
      <trkpt lat="28.96353" lon="-13.69049">
        <ele>343.4</ele>
        <time>2021-07-03 20:42:19</time>
      </trkpt>
      <trkpt lat="28.96343" lon="-13.69053">
        <ele>342.8</ele>
        <time>2021-07-03 20:42:20</time>
      </trkpt>
      <trkpt lat="28.96334" lon="-13.69057">
        <ele>342.2</ele>
        <time>2021-07-03 20:42:21</time>
      </trkpt>
      <trkpt lat="28.96325" lon="-13.6906">
        <ele>341.4</ele>
        <time>2021-07-03 20:42:22</time>
      </trkpt>
      <trkpt lat="28.96316" lon="-13.69063">
        <ele>340.8</ele>
        <time>2021-07-03 20:42:23</time>
      </trkpt>
      <trkpt lat="28.96307" lon="-13.69067">
        <ele>340</ele>
        <time>2021-07-03 20:42:24</time>
      </trkpt>
      <trkpt lat="28.96298" lon="-13.6907">
        <ele>339.4</ele>
        <time>2021-07-03 20:42:25</time>
      </trkpt>
      <trkpt lat="28.96289" lon="-13.69075">
        <ele>338.8</ele>
        <time>2021-07-03 20:42:26</time>
      </trkpt>
      <trkpt lat="28.96281" lon="-13.6908">
        <ele>338</ele>
        <time>2021-07-03 20:42:27</time>
      </trkpt>
      <trkpt lat="28.96272" lon="-13.69086">
        <ele>337.2</ele>
        <time>2021-07-03 20:42:28</time>
      </trkpt>
      <trkpt lat="28.96264" lon="-13.69092">
        <ele>336.4</ele>
        <time>2021-07-03 20:42:29</time>
      </trkpt>
      <trkpt lat="28.96257" lon="-13.69099">
        <ele>335.6</ele>
        <time>2021-07-03 20:42:30</time>
      </trkpt>
      <trkpt lat="28.96249" lon="-13.69107">
        <ele>334.6</ele>
        <time>2021-07-03 20:42:31</time>
      </trkpt>
      <trkpt lat="28.96241" lon="-13.69114">
        <ele>333.8</ele>
        <time>2021-07-03 20:42:32</time>
      </trkpt>
      <trkpt lat="28.96233" lon="-13.69121">
        <ele>333</ele>
        <time>2021-07-03 20:42:33</time>
      </trkpt>
      <trkpt lat="28.96225" lon="-13.69129">
        <ele>332.2</ele>
        <time>2021-07-03 20:42:34</time>
      </trkpt>
      <trkpt lat="28.96217" lon="-13.69136">
        <ele>331.4</ele>
        <time>2021-07-03 20:42:35</time>
      </trkpt>
      <trkpt lat="28.9621" lon="-13.69143">
        <ele>330.8</ele>
        <time>2021-07-03 20:42:36</time>
      </trkpt>
      <trkpt lat="28.96202" lon="-13.6915">
        <ele>330.2</ele>
        <time>2021-07-03 20:42:37</time>
      </trkpt>
      <trkpt lat="28.96194" lon="-13.69156">
        <ele>329.6</ele>
        <time>2021-07-03 20:42:38</time>
      </trkpt>
      <trkpt lat="28.96187" lon="-13.69161">
        <ele>329</ele>
        <time>2021-07-03 20:42:39</time>
      </trkpt>
      <trkpt lat="28.96181" lon="-13.69166">
        <ele>328.4</ele>
        <time>2021-07-03 20:42:40</time>
      </trkpt>
      <trkpt lat="28.96175" lon="-13.69171">
        <ele>327.6</ele>
        <time>2021-07-03 20:42:41</time>
      </trkpt>
      <trkpt lat="28.96169" lon="-13.69175">
        <ele>326.8</ele>
        <time>2021-07-03 20:42:42</time>
      </trkpt>
      <trkpt lat="28.96164" lon="-13.69178">
        <ele>326.2</ele>
        <time>2021-07-03 20:42:43</time>
      </trkpt>
      <trkpt lat="28.96161" lon="-13.6918">
        <ele>325.6</ele>
        <time>2021-07-03 20:42:44</time>
      </trkpt>
      <trkpt lat="28.96157" lon="-13.69183">
        <ele>325</ele>
        <time>2021-07-03 20:42:45</time>
      </trkpt>
      <trkpt lat="28.96155" lon="-13.69185">
        <ele>324.6</ele>
        <time>2021-07-03 20:42:46</time>
      </trkpt>
      <trkpt lat="28.96153" lon="-13.69186">
        <ele>324.6</ele>
        <time>2021-07-03 20:42:47</time>
      </trkpt>
      <trkpt lat="28.96152" lon="-13.69186">
        <ele>324.2</ele>
        <time>2021-07-03 20:42:48</time>
      </trkpt>
      <trkpt lat="28.96151" lon="-13.69188">
        <ele>324.2</ele>
        <time>2021-07-03 20:42:49</time>
      </trkpt>
      <trkpt lat="28.9615" lon="-13.69187">
        <ele>324.2</ele>
        <time>2021-07-03 20:42:50</time>
      </trkpt>
      <trkpt lat="28.9615" lon="-13.69187">
        <ele>324</ele>
        <time>2021-07-03 20:42:51</time>
      </trkpt>
      <trkpt lat="28.9615" lon="-13.69186">
        <ele>324</ele>
        <time>2021-07-03 20:42:52</time>
      </trkpt>
      <trkpt lat="28.9615" lon="-13.69186">
        <ele>323.8</ele>
        <time>2021-07-03 20:42:53</time>
      </trkpt>
      <trkpt lat="28.96147" lon="-13.69187">
        <ele>323.6</ele>
        <time>2021-07-03 20:42:54</time>
      </trkpt>
      <trkpt lat="28.96145" lon="-13.69188">
        <ele>323.6</ele>
        <time>2021-07-03 20:42:55</time>
      </trkpt>
      <trkpt lat="28.96142" lon="-13.6919">
        <ele>323.6</ele>
        <time>2021-07-03 20:42:56</time>
      </trkpt>
      <trkpt lat="28.9614" lon="-13.69192">
        <ele>323.4</ele>
        <time>2021-07-03 20:42:57</time>
      </trkpt>
      <trkpt lat="28.96136" lon="-13.69195">
        <ele>323</ele>
        <time>2021-07-03 20:42:58</time>
      </trkpt>
      <trkpt lat="28.96133" lon="-13.69197">
        <ele>322.8</ele>
        <time>2021-07-03 20:42:59</time>
      </trkpt>
      <trkpt lat="28.96129" lon="-13.692">
        <ele>322.6</ele>
        <time>2021-07-03 20:43:00</time>
      </trkpt>
      <trkpt lat="28.96125" lon="-13.69203">
        <ele>322.2</ele>
        <time>2021-07-03 20:43:01</time>
      </trkpt>
      <trkpt lat="28.96121" lon="-13.69206">
        <ele>322</ele>
        <time>2021-07-03 20:43:02</time>
      </trkpt>
      <trkpt lat="28.96118" lon="-13.69209">
        <ele>321.6</ele>
        <time>2021-07-03 20:43:03</time>
      </trkpt>
      <trkpt lat="28.96114" lon="-13.69212">
        <ele>321.2</ele>
        <time>2021-07-03 20:43:04</time>
      </trkpt>
      <trkpt lat="28.96111" lon="-13.69216">
        <ele>320.8</ele>
        <time>2021-07-03 20:43:05</time>
      </trkpt>
      <trkpt lat="28.9611" lon="-13.6922">
        <ele>320.6</ele>
        <time>2021-07-03 20:43:06</time>
      </trkpt>
      <trkpt lat="28.9611" lon="-13.69226">
        <ele>320.2</ele>
        <time>2021-07-03 20:43:07</time>
      </trkpt>
      <trkpt lat="28.96111" lon="-13.6923">
        <ele>319.8</ele>
        <time>2021-07-03 20:43:08</time>
      </trkpt>
      <trkpt lat="28.96113" lon="-13.69235">
        <ele>319.6</ele>
        <time>2021-07-03 20:43:09</time>
      </trkpt>
      <trkpt lat="28.96115" lon="-13.69238">
        <ele>319.2</ele>
        <time>2021-07-03 20:43:10</time>
      </trkpt>
      <trkpt lat="28.96117" lon="-13.69242">
        <ele>319</ele>
        <time>2021-07-03 20:43:11</time>
      </trkpt>
      <trkpt lat="28.96118" lon="-13.69246">
        <ele>319</ele>
        <time>2021-07-03 20:43:12</time>
      </trkpt>
      <trkpt lat="28.9612" lon="-13.69249">
        <ele>318.4</ele>
        <time>2021-07-03 20:43:13</time>
      </trkpt>
      <trkpt lat="28.96121" lon="-13.69252">
        <ele>318.4</ele>
        <time>2021-07-03 20:43:14</time>
      </trkpt>
      <trkpt lat="28.96123" lon="-13.69255">
        <ele>318.4</ele>
        <time>2021-07-03 20:43:15</time>
      </trkpt>
      <trkpt lat="28.96124" lon="-13.69257">
        <ele>318.4</ele>
        <time>2021-07-03 20:43:16</time>
      </trkpt>
      <trkpt lat="28.96125" lon="-13.69261">
        <ele>318.6</ele>
        <time>2021-07-03 20:43:17</time>
      </trkpt>
      <trkpt lat="28.96125" lon="-13.69264">
        <ele>318.8</ele>
        <time>2021-07-03 20:43:18</time>
      </trkpt>
      <trkpt lat="28.96125" lon="-13.69267">
        <ele>319</ele>
        <time>2021-07-03 20:43:19</time>
      </trkpt>
      <trkpt lat="28.96125" lon="-13.6927">
        <ele>319</ele>
        <time>2021-07-03 20:43:20</time>
      </trkpt>
      <trkpt lat="28.96125" lon="-13.69274">
        <ele>319.4</ele>
        <time>2021-07-03 20:43:21</time>
      </trkpt>
      <trkpt lat="28.96126" lon="-13.69277">
        <ele>319.4</ele>
        <time>2021-07-03 20:43:22</time>
      </trkpt>
      <trkpt lat="28.96127" lon="-13.6928">
        <ele>319.8</ele>
        <time>2021-07-03 20:43:23</time>
      </trkpt>
      <trkpt lat="28.96127" lon="-13.69283">
        <ele>319.8</ele>
        <time>2021-07-03 20:43:24</time>
      </trkpt>
      <trkpt lat="28.96128" lon="-13.69285">
        <ele>320</ele>
        <time>2021-07-03 20:43:25</time>
      </trkpt>
      <trkpt lat="28.96128" lon="-13.69288">
        <ele>320</ele>
        <time>2021-07-03 20:43:26</time>
      </trkpt>
      <trkpt lat="28.96129" lon="-13.69291">
        <ele>320.4</ele>
        <time>2021-07-03 20:43:27</time>
      </trkpt>
      <trkpt lat="28.96129" lon="-13.69294">
        <ele>320.8</ele>
        <time>2021-07-03 20:43:28</time>
      </trkpt>
      <trkpt lat="28.96129" lon="-13.69297">
        <ele>321.2</ele>
        <time>2021-07-03 20:43:29</time>
      </trkpt>
      <trkpt lat="28.96128" lon="-13.69299">
        <ele>321.8</ele>
        <time>2021-07-03 20:43:30</time>
      </trkpt>
      <trkpt lat="28.96128" lon="-13.69301">
        <ele>322.2</ele>
        <time>2021-07-03 20:43:31</time>
      </trkpt>
      <trkpt lat="28.96128" lon="-13.69304">
        <ele>322.6</ele>
        <time>2021-07-03 20:43:32</time>
      </trkpt>
      <trkpt lat="28.96128" lon="-13.69306">
        <ele>322.8</ele>
        <time>2021-07-03 20:43:33</time>
      </trkpt>
      <trkpt lat="28.96128" lon="-13.69308">
        <ele>322.8</ele>
        <time>2021-07-03 20:43:34</time>
      </trkpt>
      <trkpt lat="28.96128" lon="-13.6931">
        <ele>323.2</ele>
        <time>2021-07-03 20:43:35</time>
      </trkpt>
      <trkpt lat="28.96128" lon="-13.69313">
        <ele>323.4</ele>
        <time>2021-07-03 20:43:36</time>
      </trkpt>
      <trkpt lat="28.96128" lon="-13.69315">
        <ele>323.6</ele>
        <time>2021-07-03 20:43:37</time>
      </trkpt>
      <trkpt lat="28.96129" lon="-13.69317">
        <ele>323.8</ele>
        <time>2021-07-03 20:43:38</time>
      </trkpt>
      <trkpt lat="28.96129" lon="-13.69319">
        <ele>324.2</ele>
        <time>2021-07-03 20:43:39</time>
      </trkpt>
      <trkpt lat="28.96129" lon="-13.69321">
        <ele>324.4</ele>
        <time>2021-07-03 20:43:40</time>
      </trkpt>
      <trkpt lat="28.96129" lon="-13.69323">
        <ele>324.8</ele>
        <time>2021-07-03 20:43:41</time>
      </trkpt>
      <trkpt lat="28.96129" lon="-13.69325">
        <ele>324.8</ele>
        <time>2021-07-03 20:43:42</time>
      </trkpt>
      <trkpt lat="28.96129" lon="-13.69327">
        <ele>325</ele>
        <time>2021-07-03 20:43:43</time>
      </trkpt>
      <trkpt lat="28.9613" lon="-13.69329">
        <ele>325.4</ele>
        <time>2021-07-03 20:43:44</time>
      </trkpt>
      <trkpt lat="28.9613" lon="-13.69331">
        <ele>325.4</ele>
        <time>2021-07-03 20:43:45</time>
      </trkpt>
      <trkpt lat="28.96131" lon="-13.69333">
        <ele>325.4</ele>
        <time>2021-07-03 20:43:46</time>
      </trkpt>
      <trkpt lat="28.96131" lon="-13.69334">
        <ele>325.4</ele>
        <time>2021-07-03 20:43:47</time>
      </trkpt>
      <trkpt lat="28.96132" lon="-13.69336">
        <ele>325.6</ele>
        <time>2021-07-03 20:43:48</time>
      </trkpt>
      <trkpt lat="28.96132" lon="-13.69339">
        <ele>326</ele>
        <time>2021-07-03 20:43:49</time>
      </trkpt>
      <trkpt lat="28.96132" lon="-13.69341">
        <ele>326</ele>
        <time>2021-07-03 20:43:50</time>
      </trkpt>
      <trkpt lat="28.96131" lon="-13.69343">
        <ele>326</ele>
        <time>2021-07-03 20:43:51</time>
      </trkpt>
      <trkpt lat="28.96132" lon="-13.69344">
        <ele>326</ele>
        <time>2021-07-03 20:43:52</time>
      </trkpt>
      <trkpt lat="28.96132" lon="-13.69346">
        <ele>326.2</ele>
        <time>2021-07-03 20:43:53</time>
      </trkpt>
      <trkpt lat="28.96133" lon="-13.69348">
        <ele>326.2</ele>
        <time>2021-07-03 20:43:54</time>
      </trkpt>
      <trkpt lat="28.96133" lon="-13.6935">
        <ele>326.6</ele>
        <time>2021-07-03 20:43:55</time>
      </trkpt>
      <trkpt lat="28.96133" lon="-13.69352">
        <ele>326.6</ele>
        <time>2021-07-03 20:43:56</time>
      </trkpt>
      <trkpt lat="28.96133" lon="-13.69354">
        <ele>327</ele>
        <time>2021-07-03 20:43:57</time>
      </trkpt>
      <trkpt lat="28.96133" lon="-13.69356">
        <ele>327</ele>
        <time>2021-07-03 20:43:58</time>
      </trkpt>
      <trkpt lat="28.96133" lon="-13.69359">
        <ele>327</ele>
        <time>2021-07-03 20:43:59</time>
      </trkpt>
      <trkpt lat="28.96133" lon="-13.69361">
        <ele>327</ele>
        <time>2021-07-03 20:44:00</time>
      </trkpt>
      <trkpt lat="28.96134" lon="-13.69363">
        <ele>327</ele>
        <time>2021-07-03 20:44:01</time>
      </trkpt>
      <trkpt lat="28.96134" lon="-13.69365">
        <ele>327</ele>
        <time>2021-07-03 20:44:02</time>
      </trkpt>
      <trkpt lat="28.96134" lon="-13.69367">
        <ele>327.2</ele>
        <time>2021-07-03 20:44:03</time>
      </trkpt>
      <trkpt lat="28.96134" lon="-13.69369">
        <ele>327.2</ele>
        <time>2021-07-03 20:44:04</time>
      </trkpt>
      <trkpt lat="28.96134" lon="-13.69371">
        <ele>327.6</ele>
        <time>2021-07-03 20:44:05</time>
      </trkpt>
      <trkpt lat="28.96134" lon="-13.69373">
        <ele>327.8</ele>
        <time>2021-07-03 20:44:06</time>
      </trkpt>
      <trkpt lat="28.96134" lon="-13.69375">
        <ele>328</ele>
        <time>2021-07-03 20:44:07</time>
      </trkpt>
      <trkpt lat="28.96134" lon="-13.69377">
        <ele>328.2</ele>
        <time>2021-07-03 20:44:08</time>
      </trkpt>
      <trkpt lat="28.96135" lon="-13.69379">
        <ele>328.6</ele>
        <time>2021-07-03 20:44:09</time>
      </trkpt>
      <trkpt lat="28.96135" lon="-13.6938">
        <ele>328.8</ele>
        <time>2021-07-03 20:44:10</time>
      </trkpt>
      <trkpt lat="28.96135" lon="-13.69382">
        <ele>328.8</ele>
        <time>2021-07-03 20:44:11</time>
      </trkpt>
      <trkpt lat="28.96135" lon="-13.69384">
        <ele>329.2</ele>
        <time>2021-07-03 20:44:12</time>
      </trkpt>
      <trkpt lat="28.96135" lon="-13.69386">
        <ele>329.2</ele>
        <time>2021-07-03 20:44:13</time>
      </trkpt>
      <trkpt lat="28.96135" lon="-13.69388">
        <ele>329.4</ele>
        <time>2021-07-03 20:44:14</time>
      </trkpt>
      <trkpt lat="28.96135" lon="-13.6939">
        <ele>329.4</ele>
        <time>2021-07-03 20:44:15</time>
      </trkpt>
      <trkpt lat="28.96135" lon="-13.69392">
        <ele>329.8</ele>
        <time>2021-07-03 20:44:16</time>
      </trkpt>
      <trkpt lat="28.96135" lon="-13.69393">
        <ele>329.8</ele>
        <time>2021-07-03 20:44:17</time>
      </trkpt>
      <trkpt lat="28.96136" lon="-13.69395">
        <ele>330.4</ele>
        <time>2021-07-03 20:44:18</time>
      </trkpt>
      <trkpt lat="28.96136" lon="-13.69397">
        <ele>330.8</ele>
        <time>2021-07-03 20:44:19</time>
      </trkpt>
      <trkpt lat="28.96135" lon="-13.69399">
        <ele>331.2</ele>
        <time>2021-07-03 20:44:20</time>
      </trkpt>
      <trkpt lat="28.96134" lon="-13.69401">
        <ele>331.2</ele>
        <time>2021-07-03 20:44:21</time>
      </trkpt>
      <trkpt lat="28.96134" lon="-13.69403">
        <ele>331.2</ele>
        <time>2021-07-03 20:44:22</time>
      </trkpt>
      <trkpt lat="28.96135" lon="-13.69404">
        <ele>331.2</ele>
        <time>2021-07-03 20:44:23</time>
      </trkpt>
      <trkpt lat="28.96136" lon="-13.69406">
        <ele>331.2</ele>
        <time>2021-07-03 20:44:24</time>
      </trkpt>
      <trkpt lat="28.96137" lon="-13.69408">
        <ele>331.2</ele>
        <time>2021-07-03 20:44:25</time>
      </trkpt>
      <trkpt lat="28.96136" lon="-13.6941">
        <ele>331.2</ele>
        <time>2021-07-03 20:44:26</time>
      </trkpt>
      <trkpt lat="28.96135" lon="-13.69412">
        <ele>331.2</ele>
        <time>2021-07-03 20:44:27</time>
      </trkpt>
      <trkpt lat="28.96135" lon="-13.69414">
        <ele>331.4</ele>
        <time>2021-07-03 20:44:28</time>
      </trkpt>
      <trkpt lat="28.96134" lon="-13.69416">
        <ele>331.6</ele>
        <time>2021-07-03 20:44:29</time>
      </trkpt>
      <trkpt lat="28.96133" lon="-13.69418">
        <ele>331.8</ele>
        <time>2021-07-03 20:44:30</time>
      </trkpt>
      <trkpt lat="28.96132" lon="-13.6942">
        <ele>332.2</ele>
        <time>2021-07-03 20:44:31</time>
      </trkpt>
      <trkpt lat="28.96132" lon="-13.69421">
        <ele>332.6</ele>
        <time>2021-07-03 20:44:32</time>
      </trkpt>
      <trkpt lat="28.96131" lon="-13.69423">
        <ele>332.8</ele>
        <time>2021-07-03 20:44:33</time>
      </trkpt>
      <trkpt lat="28.9613" lon="-13.69425">
        <ele>333</ele>
        <time>2021-07-03 20:44:34</time>
      </trkpt>
      <trkpt lat="28.96129" lon="-13.69427">
        <ele>333.4</ele>
        <time>2021-07-03 20:44:35</time>
      </trkpt>
      <trkpt lat="28.96129" lon="-13.69429">
        <ele>333.6</ele>
        <time>2021-07-03 20:44:36</time>
      </trkpt>
      <trkpt lat="28.96129" lon="-13.69431">
        <ele>333.8</ele>
        <time>2021-07-03 20:44:37</time>
      </trkpt>
      <trkpt lat="28.96128" lon="-13.69433">
        <ele>333.8</ele>
        <time>2021-07-03 20:44:38</time>
      </trkpt>
      <trkpt lat="28.96128" lon="-13.69435">
        <ele>334.2</ele>
        <time>2021-07-03 20:44:39</time>
      </trkpt>
      <trkpt lat="28.96127" lon="-13.69437">
        <ele>334.2</ele>
        <time>2021-07-03 20:44:40</time>
      </trkpt>
      <trkpt lat="28.96126" lon="-13.69439">
        <ele>334.6</ele>
        <time>2021-07-03 20:44:41</time>
      </trkpt>
      <trkpt lat="28.96125" lon="-13.69441">
        <ele>334.8</ele>
        <time>2021-07-03 20:44:42</time>
      </trkpt>
      <trkpt lat="28.96125" lon="-13.69443">
        <ele>335.2</ele>
        <time>2021-07-03 20:44:43</time>
      </trkpt>
      <trkpt lat="28.96124" lon="-13.69445">
        <ele>335.4</ele>
        <time>2021-07-03 20:44:44</time>
      </trkpt>
      <trkpt lat="28.96123" lon="-13.69448">
        <ele>335.8</ele>
        <time>2021-07-03 20:44:45</time>
      </trkpt>
      <trkpt lat="28.96122" lon="-13.6945">
        <ele>335.8</ele>
        <time>2021-07-03 20:44:46</time>
      </trkpt>
      <trkpt lat="28.96121" lon="-13.69452">
        <ele>336.2</ele>
        <time>2021-07-03 20:44:47</time>
      </trkpt>
      <trkpt lat="28.96121" lon="-13.69455">
        <ele>336.6</ele>
        <time>2021-07-03 20:44:48</time>
      </trkpt>
      <trkpt lat="28.96121" lon="-13.69457">
        <ele>336.8</ele>
        <time>2021-07-03 20:44:49</time>
      </trkpt>
      <trkpt lat="28.9612" lon="-13.6946">
        <ele>337.2</ele>
        <time>2021-07-03 20:44:50</time>
      </trkpt>
      <trkpt lat="28.96119" lon="-13.69462">
        <ele>337.2</ele>
        <time>2021-07-03 20:44:51</time>
      </trkpt>
      <trkpt lat="28.96118" lon="-13.69464">
        <ele>337.4</ele>
        <time>2021-07-03 20:44:52</time>
      </trkpt>
      <trkpt lat="28.96117" lon="-13.69465">
        <ele>337.4</ele>
        <time>2021-07-03 20:44:53</time>
      </trkpt>
      <trkpt lat="28.96115" lon="-13.69467">
        <ele>337.8</ele>
        <time>2021-07-03 20:44:54</time>
      </trkpt>
      <trkpt lat="28.96114" lon="-13.69468">
        <ele>338</ele>
        <time>2021-07-03 20:44:55</time>
      </trkpt>
      <trkpt lat="28.96113" lon="-13.6947">
        <ele>338.2</ele>
        <time>2021-07-03 20:44:56</time>
      </trkpt>
      <trkpt lat="28.96111" lon="-13.69472">
        <ele>338.4</ele>
        <time>2021-07-03 20:44:57</time>
      </trkpt>
      <trkpt lat="28.9611" lon="-13.69475">
        <ele>338.8</ele>
        <time>2021-07-03 20:44:58</time>
      </trkpt>
      <trkpt lat="28.96109" lon="-13.69477">
        <ele>338.8</ele>
        <time>2021-07-03 20:44:59</time>
      </trkpt>
      <trkpt lat="28.96107" lon="-13.69479">
        <ele>339</ele>
        <time>2021-07-03 20:45:00</time>
      </trkpt>
      <trkpt lat="28.96105" lon="-13.69481">
        <ele>338.4</ele>
        <time>2021-07-03 20:45:01</time>
      </trkpt>
      <trkpt lat="28.96104" lon="-13.69484">
        <ele>338.6</ele>
        <time>2021-07-03 20:45:02</time>
      </trkpt>
      <trkpt lat="28.96102" lon="-13.69486">
        <ele>338.6</ele>
        <time>2021-07-03 20:45:03</time>
      </trkpt>
      <trkpt lat="28.96101" lon="-13.69488">
        <ele>338.8</ele>
        <time>2021-07-03 20:45:04</time>
      </trkpt>
      <trkpt lat="28.961" lon="-13.6949">
        <ele>338.8</ele>
        <time>2021-07-03 20:45:05</time>
      </trkpt>
      <trkpt lat="28.96098" lon="-13.69492">
        <ele>338.8</ele>
        <time>2021-07-03 20:45:06</time>
      </trkpt>
      <trkpt lat="28.96096" lon="-13.69495">
        <ele>338.8</ele>
        <time>2021-07-03 20:45:07</time>
      </trkpt>
      <trkpt lat="28.96095" lon="-13.69497">
        <ele>338.8</ele>
        <time>2021-07-03 20:45:08</time>
      </trkpt>
      <trkpt lat="28.96093" lon="-13.695">
        <ele>338.8</ele>
        <time>2021-07-03 20:45:09</time>
      </trkpt>
      <trkpt lat="28.96091" lon="-13.69502">
        <ele>339</ele>
        <time>2021-07-03 20:45:10</time>
      </trkpt>
      <trkpt lat="28.9609" lon="-13.69505">
        <ele>339</ele>
        <time>2021-07-03 20:45:11</time>
      </trkpt>
      <trkpt lat="28.96088" lon="-13.69507">
        <ele>339.2</ele>
        <time>2021-07-03 20:45:12</time>
      </trkpt>
      <trkpt lat="28.96087" lon="-13.6951">
        <ele>339.2</ele>
        <time>2021-07-03 20:45:13</time>
      </trkpt>
      <trkpt lat="28.96085" lon="-13.69512">
        <ele>339.6</ele>
        <time>2021-07-03 20:45:14</time>
      </trkpt>
      <trkpt lat="28.96084" lon="-13.69515">
        <ele>339.8</ele>
        <time>2021-07-03 20:45:15</time>
      </trkpt>
      <trkpt lat="28.96082" lon="-13.69518">
        <ele>340.2</ele>
        <time>2021-07-03 20:45:16</time>
      </trkpt>
      <trkpt lat="28.96081" lon="-13.6952">
        <ele>340.4</ele>
        <time>2021-07-03 20:45:17</time>
      </trkpt>
      <trkpt lat="28.96079" lon="-13.69523">
        <ele>340.4</ele>
        <time>2021-07-03 20:45:18</time>
      </trkpt>
      <trkpt lat="28.96078" lon="-13.69525">
        <ele>340.8</ele>
        <time>2021-07-03 20:45:19</time>
      </trkpt>
      <trkpt lat="28.96076" lon="-13.69528">
        <ele>341.2</ele>
        <time>2021-07-03 20:45:20</time>
      </trkpt>
      <trkpt lat="28.96074" lon="-13.6953">
        <ele>341.4</ele>
        <time>2021-07-03 20:45:21</time>
      </trkpt>
      <trkpt lat="28.96072" lon="-13.69532">
        <ele>341.8</ele>
        <time>2021-07-03 20:45:22</time>
      </trkpt>
      <trkpt lat="28.96071" lon="-13.69534">
        <ele>342</ele>
        <time>2021-07-03 20:45:23</time>
      </trkpt>
      <trkpt lat="28.96069" lon="-13.69537">
        <ele>342</ele>
        <time>2021-07-03 20:45:24</time>
      </trkpt>
      <trkpt lat="28.96068" lon="-13.69539">
        <ele>342.4</ele>
        <time>2021-07-03 20:45:25</time>
      </trkpt>
      <trkpt lat="28.96067" lon="-13.69542">
        <ele>342.4</ele>
        <time>2021-07-03 20:45:26</time>
      </trkpt>
      <trkpt lat="28.96065" lon="-13.69544">
        <ele>342.4</ele>
        <time>2021-07-03 20:45:27</time>
      </trkpt>
      <trkpt lat="28.96064" lon="-13.69547">
        <ele>342.4</ele>
        <time>2021-07-03 20:45:28</time>
      </trkpt>
      <trkpt lat="28.96062" lon="-13.69549">
        <ele>342.4</ele>
        <time>2021-07-03 20:45:29</time>
      </trkpt>
      <trkpt lat="28.9606" lon="-13.69551">
        <ele>342.4</ele>
        <time>2021-07-03 20:45:30</time>
      </trkpt>
      <trkpt lat="28.96058" lon="-13.69554">
        <ele>342.4</ele>
        <time>2021-07-03 20:45:39</time>
      </trkpt>
      <trkpt lat="28.96056" lon="-13.69556">
        <ele>342.4</ele>
        <time>2021-07-03 20:45:40</time>
      </trkpt>
      <trkpt lat="28.96054" lon="-13.69559">
        <ele>342.4</ele>
        <time>2021-07-03 20:45:41</time>
      </trkpt>
      <trkpt lat="28.96052" lon="-13.69562">
        <ele>342.4</ele>
        <time>2021-07-03 20:45:42</time>
      </trkpt>
      <trkpt lat="28.9605" lon="-13.69564">
        <ele>342.4</ele>
        <time>2021-07-03 20:45:43</time>
      </trkpt>
      <trkpt lat="28.96048" lon="-13.69567">
        <ele>342.6</ele>
        <time>2021-07-03 20:45:44</time>
      </trkpt>
      <trkpt lat="28.96046" lon="-13.6957">
        <ele>342.6</ele>
        <time>2021-07-03 20:45:45</time>
      </trkpt>
      <trkpt lat="28.96044" lon="-13.69573">
        <ele>342.8</ele>
        <time>2021-07-03 20:45:46</time>
      </trkpt>
      <trkpt lat="28.96042" lon="-13.69576">
        <ele>342.8</ele>
        <time>2021-07-03 20:45:47</time>
      </trkpt>
      <trkpt lat="28.9604" lon="-13.69579">
        <ele>342.8</ele>
        <time>2021-07-03 20:45:48</time>
      </trkpt>
      <trkpt lat="28.96039" lon="-13.69583">
        <ele>343</ele>
        <time>2021-07-03 20:45:49</time>
      </trkpt>
      <trkpt lat="28.96037" lon="-13.69586">
        <ele>343</ele>
        <time>2021-07-03 20:45:50</time>
      </trkpt>
      <trkpt lat="28.96035" lon="-13.69589">
        <ele>343</ele>
        <time>2021-07-03 20:45:51</time>
      </trkpt>
      <trkpt lat="28.96034" lon="-13.69593">
        <ele>343.2</ele>
        <time>2021-07-03 20:45:52</time>
      </trkpt>
      <trkpt lat="28.96033" lon="-13.69596">
        <ele>343.2</ele>
        <time>2021-07-03 20:45:53</time>
      </trkpt>
      <trkpt lat="28.96032" lon="-13.69598">
        <ele>343.2</ele>
        <time>2021-07-03 20:45:54</time>
      </trkpt>
      <trkpt lat="28.96031" lon="-13.69601">
        <ele>343.6</ele>
        <time>2021-07-03 20:45:55</time>
      </trkpt>
      <trkpt lat="28.9603" lon="-13.69605">
        <ele>344</ele>
        <time>2021-07-03 20:45:56</time>
      </trkpt>
      <trkpt lat="28.96029" lon="-13.69608">
        <ele>344.2</ele>
        <time>2021-07-03 20:45:57</time>
      </trkpt>
      <trkpt lat="28.96028" lon="-13.69611">
        <ele>344.4</ele>
        <time>2021-07-03 20:45:58</time>
      </trkpt>
      <trkpt lat="28.96027" lon="-13.69614">
        <ele>344.8</ele>
        <time>2021-07-03 20:45:59</time>
      </trkpt>
      <trkpt lat="28.96026" lon="-13.69617">
        <ele>345</ele>
        <time>2021-07-03 20:46:00</time>
      </trkpt>
      <trkpt lat="28.96024" lon="-13.69619">
        <ele>345.4</ele>
        <time>2021-07-03 20:46:01</time>
      </trkpt>
      <trkpt lat="28.96022" lon="-13.69622">
        <ele>345.6</ele>
        <time>2021-07-03 20:46:02</time>
      </trkpt>
      <trkpt lat="28.9602" lon="-13.69624">
        <ele>345.6</ele>
        <time>2021-07-03 20:46:03</time>
      </trkpt>
      <trkpt lat="28.96019" lon="-13.69627">
        <ele>345.8</ele>
        <time>2021-07-03 20:46:04</time>
      </trkpt>
      <trkpt lat="28.96017" lon="-13.69629">
        <ele>345.8</ele>
        <time>2021-07-03 20:46:05</time>
      </trkpt>
      <trkpt lat="28.96016" lon="-13.69632">
        <ele>346.2</ele>
        <time>2021-07-03 20:46:06</time>
      </trkpt>
      <trkpt lat="28.96015" lon="-13.69635">
        <ele>346.2</ele>
        <time>2021-07-03 20:46:07</time>
      </trkpt>
      <trkpt lat="28.96014" lon="-13.69637">
        <ele>346.4</ele>
        <time>2021-07-03 20:46:08</time>
      </trkpt>
      <trkpt lat="28.96012" lon="-13.69639">
        <ele>346.4</ele>
        <time>2021-07-03 20:46:09</time>
      </trkpt>
      <trkpt lat="28.9601" lon="-13.69641">
        <ele>346.8</ele>
        <time>2021-07-03 20:46:10</time>
      </trkpt>
      <trkpt lat="28.96008" lon="-13.69643">
        <ele>346.8</ele>
        <time>2021-07-03 20:46:11</time>
      </trkpt>
      <trkpt lat="28.96006" lon="-13.69645">
        <ele>347</ele>
        <time>2021-07-03 20:46:12</time>
      </trkpt>
      <trkpt lat="28.96005" lon="-13.69647">
        <ele>347.4</ele>
        <time>2021-07-03 20:46:13</time>
      </trkpt>
      <trkpt lat="28.96003" lon="-13.6965">
        <ele>347.8</ele>
        <time>2021-07-03 20:46:14</time>
      </trkpt>
      <trkpt lat="28.96001" lon="-13.69652">
        <ele>348</ele>
        <time>2021-07-03 20:46:15</time>
      </trkpt>
      <trkpt lat="28.96" lon="-13.69655">
        <ele>348.2</ele>
        <time>2021-07-03 20:46:16</time>
      </trkpt>
      <trkpt lat="28.95999" lon="-13.69658">
        <ele>348.6</ele>
        <time>2021-07-03 20:46:17</time>
      </trkpt>
      <trkpt lat="28.95997" lon="-13.6966">
        <ele>348.6</ele>
        <time>2021-07-03 20:46:18</time>
      </trkpt>
      <trkpt lat="28.95995" lon="-13.69663">
        <ele>348.8</ele>
        <time>2021-07-03 20:46:19</time>
      </trkpt>
      <trkpt lat="28.95994" lon="-13.69665">
        <ele>348.8</ele>
        <time>2021-07-03 20:46:20</time>
      </trkpt>
      <trkpt lat="28.95992" lon="-13.69668">
        <ele>348.8</ele>
        <time>2021-07-03 20:46:21</time>
      </trkpt>
      <trkpt lat="28.95991" lon="-13.6967">
        <ele>348.8</ele>
        <time>2021-07-03 20:46:22</time>
      </trkpt>
      <trkpt lat="28.95989" lon="-13.69673">
        <ele>348.8</ele>
        <time>2021-07-03 20:46:23</time>
      </trkpt>
      <trkpt lat="28.95987" lon="-13.69675">
        <ele>349.2</ele>
        <time>2021-07-03 20:46:24</time>
      </trkpt>
      <trkpt lat="28.95985" lon="-13.69678">
        <ele>349.6</ele>
        <time>2021-07-03 20:46:25</time>
      </trkpt>
      <trkpt lat="28.95984" lon="-13.6968">
        <ele>350</ele>
        <time>2021-07-03 20:46:26</time>
      </trkpt>
      <trkpt lat="28.95982" lon="-13.69682">
        <ele>350.4</ele>
        <time>2021-07-03 20:46:27</time>
      </trkpt>
      <trkpt lat="28.9598" lon="-13.69685">
        <ele>350.8</ele>
        <time>2021-07-03 20:46:28</time>
      </trkpt>
      <trkpt lat="28.95979" lon="-13.69688">
        <ele>351.2</ele>
        <time>2021-07-03 20:46:29</time>
      </trkpt>
      <trkpt lat="28.95978" lon="-13.69691">
        <ele>351.2</ele>
        <time>2021-07-03 20:46:30</time>
      </trkpt>
      <trkpt lat="28.95977" lon="-13.69694">
        <ele>351.4</ele>
        <time>2021-07-03 20:46:31</time>
      </trkpt>
      <trkpt lat="28.95975" lon="-13.69697">
        <ele>351.8</ele>
        <time>2021-07-03 20:46:32</time>
      </trkpt>
      <trkpt lat="28.95973" lon="-13.697">
        <ele>352</ele>
        <time>2021-07-03 20:46:33</time>
      </trkpt>
      <trkpt lat="28.95971" lon="-13.69702">
        <ele>352.2</ele>
        <time>2021-07-03 20:46:34</time>
      </trkpt>
      <trkpt lat="28.9597" lon="-13.69705">
        <ele>352.2</ele>
        <time>2021-07-03 20:46:35</time>
      </trkpt>
      <trkpt lat="28.95968" lon="-13.69707">
        <ele>352.2</ele>
        <time>2021-07-03 20:46:36</time>
      </trkpt>
      <trkpt lat="28.95966" lon="-13.6971">
        <ele>352.2</ele>
        <time>2021-07-03 20:46:37</time>
      </trkpt>
      <trkpt lat="28.95964" lon="-13.69713">
        <ele>352.2</ele>
        <time>2021-07-03 20:46:38</time>
      </trkpt>
      <trkpt lat="28.95962" lon="-13.69715">
        <ele>352.2</ele>
        <time>2021-07-03 20:46:39</time>
      </trkpt>
      <trkpt lat="28.95961" lon="-13.69718">
        <ele>352.2</ele>
        <time>2021-07-03 20:46:40</time>
      </trkpt>
      <trkpt lat="28.95959" lon="-13.69721">
        <ele>352.2</ele>
        <time>2021-07-03 20:46:41</time>
      </trkpt>
      <trkpt lat="28.95957" lon="-13.69724">
        <ele>352.2</ele>
        <time>2021-07-03 20:46:42</time>
      </trkpt>
      <trkpt lat="28.95955" lon="-13.69727">
        <ele>352.2</ele>
        <time>2021-07-03 20:46:43</time>
      </trkpt>
      <trkpt lat="28.95954" lon="-13.69729">
        <ele>352.2</ele>
        <time>2021-07-03 20:46:44</time>
      </trkpt>
      <trkpt lat="28.95952" lon="-13.69732">
        <ele>352.6</ele>
        <time>2021-07-03 20:46:45</time>
      </trkpt>
      <trkpt lat="28.9595" lon="-13.69734">
        <ele>353.2</ele>
        <time>2021-07-03 20:46:46</time>
      </trkpt>
      <trkpt lat="28.95949" lon="-13.69737">
        <ele>353.6</ele>
        <time>2021-07-03 20:46:47</time>
      </trkpt>
      <trkpt lat="28.95947" lon="-13.6974">
        <ele>354</ele>
        <time>2021-07-03 20:46:48</time>
      </trkpt>
      <trkpt lat="28.95945" lon="-13.69743">
        <ele>354.6</ele>
        <time>2021-07-03 20:46:49</time>
      </trkpt>
      <trkpt lat="28.95943" lon="-13.69747">
        <ele>354.8</ele>
        <time>2021-07-03 20:46:50</time>
      </trkpt>
      <trkpt lat="28.95942" lon="-13.6975">
        <ele>354.8</ele>
        <time>2021-07-03 20:46:51</time>
      </trkpt>
      <trkpt lat="28.9594" lon="-13.69753">
        <ele>354.8</ele>
        <time>2021-07-03 20:46:52</time>
      </trkpt>
      <trkpt lat="28.95938" lon="-13.69756">
        <ele>354.8</ele>
        <time>2021-07-03 20:46:53</time>
      </trkpt>
      <trkpt lat="28.95936" lon="-13.69759">
        <ele>354.8</ele>
        <time>2021-07-03 20:46:54</time>
      </trkpt>
      <trkpt lat="28.95934" lon="-13.69762">
        <ele>354.8</ele>
        <time>2021-07-03 20:46:55</time>
      </trkpt>
      <trkpt lat="28.95932" lon="-13.69765">
        <ele>354.8</ele>
        <time>2021-07-03 20:46:56</time>
      </trkpt>
      <trkpt lat="28.95931" lon="-13.69768">
        <ele>354.6</ele>
        <time>2021-07-03 20:46:57</time>
      </trkpt>
      <trkpt lat="28.95929" lon="-13.69772">
        <ele>354.6</ele>
        <time>2021-07-03 20:46:58</time>
      </trkpt>
      <trkpt lat="28.95928" lon="-13.69775">
        <ele>354.6</ele>
        <time>2021-07-03 20:46:59</time>
      </trkpt>
      <trkpt lat="28.95926" lon="-13.69778">
        <ele>354.6</ele>
        <time>2021-07-03 20:47:00</time>
      </trkpt>
      <trkpt lat="28.95924" lon="-13.69781">
        <ele>354.6</ele>
        <time>2021-07-03 20:47:01</time>
      </trkpt>
      <trkpt lat="28.95922" lon="-13.69785">
        <ele>354.6</ele>
        <time>2021-07-03 20:47:02</time>
      </trkpt>
      <trkpt lat="28.95921" lon="-13.69788">
        <ele>354.6</ele>
        <time>2021-07-03 20:47:03</time>
      </trkpt>
      <trkpt lat="28.95919" lon="-13.69792">
        <ele>354.6</ele>
        <time>2021-07-03 20:47:04</time>
      </trkpt>
      <trkpt lat="28.95916" lon="-13.69796">
        <ele>354.2</ele>
        <time>2021-07-03 20:47:05</time>
      </trkpt>
      <trkpt lat="28.95915" lon="-13.698">
        <ele>354.2</ele>
        <time>2021-07-03 20:47:06</time>
      </trkpt>
      <trkpt lat="28.95913" lon="-13.69805">
        <ele>354.2</ele>
        <time>2021-07-03 20:47:07</time>
      </trkpt>
      <trkpt lat="28.95912" lon="-13.69809">
        <ele>354.2</ele>
        <time>2021-07-03 20:47:08</time>
      </trkpt>
      <trkpt lat="28.9591" lon="-13.69814">
        <ele>354.2</ele>
        <time>2021-07-03 20:47:09</time>
      </trkpt>
      <trkpt lat="28.95908" lon="-13.69819">
        <ele>354.2</ele>
        <time>2021-07-03 20:47:10</time>
      </trkpt>
      <trkpt lat="28.95906" lon="-13.69823">
        <ele>354.2</ele>
        <time>2021-07-03 20:47:11</time>
      </trkpt>
      <trkpt lat="28.95904" lon="-13.69828">
        <ele>354.2</ele>
        <time>2021-07-03 20:47:12</time>
      </trkpt>
      <trkpt lat="28.95903" lon="-13.69833">
        <ele>354.2</ele>
        <time>2021-07-03 20:47:13</time>
      </trkpt>
      <trkpt lat="28.95901" lon="-13.69838">
        <ele>354.2</ele>
        <time>2021-07-03 20:47:14</time>
      </trkpt>
      <trkpt lat="28.95899" lon="-13.69843">
        <ele>354.2</ele>
        <time>2021-07-03 20:47:15</time>
      </trkpt>
      <trkpt lat="28.95898" lon="-13.69847">
        <ele>354.2</ele>
        <time>2021-07-03 20:47:16</time>
      </trkpt>
      <trkpt lat="28.95896" lon="-13.69852">
        <ele>354.6</ele>
        <time>2021-07-03 20:47:17</time>
      </trkpt>
      <trkpt lat="28.95894" lon="-13.69856">
        <ele>355</ele>
        <time>2021-07-03 20:47:18</time>
      </trkpt>
      <trkpt lat="28.95892" lon="-13.6986">
        <ele>355</ele>
        <time>2021-07-03 20:47:19</time>
      </trkpt>
      <trkpt lat="28.9589" lon="-13.69864">
        <ele>355</ele>
        <time>2021-07-03 20:47:20</time>
      </trkpt>
      <trkpt lat="28.95887" lon="-13.69868">
        <ele>354.8</ele>
        <time>2021-07-03 20:47:21</time>
      </trkpt>
      <trkpt lat="28.95886" lon="-13.69871">
        <ele>354.8</ele>
        <time>2021-07-03 20:47:22</time>
      </trkpt>
      <trkpt lat="28.95884" lon="-13.69875">
        <ele>354.4</ele>
        <time>2021-07-03 20:47:23</time>
      </trkpt>
      <trkpt lat="28.95882" lon="-13.69879">
        <ele>354.4</ele>
        <time>2021-07-03 20:47:24</time>
      </trkpt>
      <trkpt lat="28.9588" lon="-13.69883">
        <ele>354</ele>
        <time>2021-07-03 20:47:25</time>
      </trkpt>
      <trkpt lat="28.95878" lon="-13.69887">
        <ele>354</ele>
        <time>2021-07-03 20:47:26</time>
      </trkpt>
      <trkpt lat="28.95876" lon="-13.69891">
        <ele>353.8</ele>
        <time>2021-07-03 20:47:27</time>
      </trkpt>
      <trkpt lat="28.95874" lon="-13.69895">
        <ele>353.8</ele>
        <time>2021-07-03 20:47:28</time>
      </trkpt>
      <trkpt lat="28.95873" lon="-13.69899">
        <ele>353.8</ele>
        <time>2021-07-03 20:47:29</time>
      </trkpt>
      <trkpt lat="28.95872" lon="-13.69903">
        <ele>353.8</ele>
        <time>2021-07-03 20:47:30</time>
      </trkpt>
      <trkpt lat="28.95871" lon="-13.69906">
        <ele>354.2</ele>
        <time>2021-07-03 20:47:31</time>
      </trkpt>
      <trkpt lat="28.95869" lon="-13.6991">
        <ele>354.6</ele>
        <time>2021-07-03 20:47:32</time>
      </trkpt>
      <trkpt lat="28.95868" lon="-13.69913">
        <ele>355</ele>
        <time>2021-07-03 20:47:33</time>
      </trkpt>
      <trkpt lat="28.95866" lon="-13.69916">
        <ele>355.4</ele>
        <time>2021-07-03 20:47:34</time>
      </trkpt>
      <trkpt lat="28.95866" lon="-13.69919">
        <ele>355.6</ele>
        <time>2021-07-03 20:47:35</time>
      </trkpt>
      <trkpt lat="28.95865" lon="-13.69923">
        <ele>355.6</ele>
        <time>2021-07-03 20:47:36</time>
      </trkpt>
      <trkpt lat="28.95864" lon="-13.69925">
        <ele>356</ele>
        <time>2021-07-03 20:47:37</time>
      </trkpt>
      <trkpt lat="28.95863" lon="-13.69928">
        <ele>356.4</ele>
        <time>2021-07-03 20:47:38</time>
      </trkpt>
      <trkpt lat="28.95862" lon="-13.69931">
        <ele>356.8</ele>
        <time>2021-07-03 20:47:39</time>
      </trkpt>
      <trkpt lat="28.95861" lon="-13.69933">
        <ele>357</ele>
        <time>2021-07-03 20:47:40</time>
      </trkpt>
      <trkpt lat="28.95861" lon="-13.69935">
        <ele>357</ele>
        <time>2021-07-03 20:47:41</time>
      </trkpt>
      <trkpt lat="28.9586" lon="-13.69937">
        <ele>357.4</ele>
        <time>2021-07-03 20:47:42</time>
      </trkpt>
      <trkpt lat="28.95859" lon="-13.6994">
        <ele>357.8</ele>
        <time>2021-07-03 20:47:43</time>
      </trkpt>
      <trkpt lat="28.95858" lon="-13.69942">
        <ele>358.2</ele>
        <time>2021-07-03 20:47:44</time>
      </trkpt>
      <trkpt lat="28.95857" lon="-13.69944">
        <ele>358.4</ele>
        <time>2021-07-03 20:47:45</time>
      </trkpt>
      <trkpt lat="28.95856" lon="-13.69946">
        <ele>358.8</ele>
        <time>2021-07-03 20:47:46</time>
      </trkpt>
      <trkpt lat="28.95855" lon="-13.69949">
        <ele>359</ele>
        <time>2021-07-03 20:47:47</time>
      </trkpt>
      <trkpt lat="28.95855" lon="-13.69952">
        <ele>359.2</ele>
        <time>2021-07-03 20:47:48</time>
      </trkpt>
      <trkpt lat="28.95855" lon="-13.69954">
        <ele>359.6</ele>
        <time>2021-07-03 20:47:49</time>
      </trkpt>
      <trkpt lat="28.95854" lon="-13.69957">
        <ele>359.8</ele>
        <time>2021-07-03 20:47:50</time>
      </trkpt>
      <trkpt lat="28.95853" lon="-13.6996">
        <ele>360</ele>
        <time>2021-07-03 20:47:51</time>
      </trkpt>
      <trkpt lat="28.95852" lon="-13.69963">
        <ele>360.4</ele>
        <time>2021-07-03 20:47:52</time>
      </trkpt>
      <trkpt lat="28.95851" lon="-13.69965">
        <ele>360.4</ele>
        <time>2021-07-03 20:47:53</time>
      </trkpt>
      <trkpt lat="28.9585" lon="-13.69968">
        <ele>360.8</ele>
        <time>2021-07-03 20:47:54</time>
      </trkpt>
      <trkpt lat="28.95849" lon="-13.69971">
        <ele>360.8</ele>
        <time>2021-07-03 20:47:55</time>
      </trkpt>
      <trkpt lat="28.95848" lon="-13.69974">
        <ele>361</ele>
        <time>2021-07-03 20:47:56</time>
      </trkpt>
      <trkpt lat="28.95847" lon="-13.69976">
        <ele>361.4</ele>
        <time>2021-07-03 20:47:57</time>
      </trkpt>
      <trkpt lat="28.95846" lon="-13.69979">
        <ele>361.6</ele>
        <time>2021-07-03 20:47:58</time>
      </trkpt>
      <trkpt lat="28.95845" lon="-13.69982">
        <ele>362</ele>
        <time>2021-07-03 20:47:59</time>
      </trkpt>
      <trkpt lat="28.95843" lon="-13.69984">
        <ele>362.4</ele>
        <time>2021-07-03 20:48:00</time>
      </trkpt>
      <trkpt lat="28.95842" lon="-13.69987">
        <ele>362.8</ele>
        <time>2021-07-03 20:48:01</time>
      </trkpt>
      <trkpt lat="28.95841" lon="-13.69989">
        <ele>363.2</ele>
        <time>2021-07-03 20:48:02</time>
      </trkpt>
      <trkpt lat="28.9584" lon="-13.69992">
        <ele>363.6</ele>
        <time>2021-07-03 20:48:03</time>
      </trkpt>
      <trkpt lat="28.95839" lon="-13.69995">
        <ele>363.8</ele>
        <time>2021-07-03 20:48:04</time>
      </trkpt>
      <trkpt lat="28.95838" lon="-13.69997">
        <ele>364</ele>
        <time>2021-07-03 20:48:05</time>
      </trkpt>
      <trkpt lat="28.95837" lon="-13.7">
        <ele>364.6</ele>
        <time>2021-07-03 20:48:06</time>
      </trkpt>
      <trkpt lat="28.95836" lon="-13.70003">
        <ele>365.2</ele>
        <time>2021-07-03 20:48:07</time>
      </trkpt>
      <trkpt lat="28.95835" lon="-13.70006">
        <ele>366</ele>
        <time>2021-07-03 20:48:08</time>
      </trkpt>
      <trkpt lat="28.95835" lon="-13.70008">
        <ele>367</ele>
        <time>2021-07-03 20:48:09</time>
      </trkpt>
      <trkpt lat="28.95834" lon="-13.70009">
        <ele>367.6</ele>
        <time>2021-07-03 20:48:10</time>
      </trkpt>
      <trkpt lat="28.95834" lon="-13.70011">
        <ele>368.2</ele>
        <time>2021-07-03 20:48:11</time>
      </trkpt>
      <trkpt lat="28.95835" lon="-13.70013">
        <ele>368.8</ele>
        <time>2021-07-03 20:48:12</time>
      </trkpt>
      <trkpt lat="28.95835" lon="-13.70016">
        <ele>369.2</ele>
        <time>2021-07-03 20:48:13</time>
      </trkpt>
      <trkpt lat="28.95835" lon="-13.70018">
        <ele>369.6</ele>
        <time>2021-07-03 20:48:14</time>
      </trkpt>
      <trkpt lat="28.95835" lon="-13.70021">
        <ele>369.8</ele>
        <time>2021-07-03 20:48:15</time>
      </trkpt>
      <trkpt lat="28.95834" lon="-13.70024">
        <ele>370</ele>
        <time>2021-07-03 20:48:16</time>
      </trkpt>
      <trkpt lat="28.95833" lon="-13.70026">
        <ele>370</ele>
        <time>2021-07-03 20:48:17</time>
      </trkpt>
      <trkpt lat="28.95833" lon="-13.70029">
        <ele>370.4</ele>
        <time>2021-07-03 20:48:18</time>
      </trkpt>
      <trkpt lat="28.95832" lon="-13.70032">
        <ele>370.4</ele>
        <time>2021-07-03 20:48:19</time>
      </trkpt>
      <trkpt lat="28.95832" lon="-13.70034">
        <ele>370.4</ele>
        <time>2021-07-03 20:48:20</time>
      </trkpt>
      <trkpt lat="28.95831" lon="-13.70037">
        <ele>370.4</ele>
        <time>2021-07-03 20:48:21</time>
      </trkpt>
      <trkpt lat="28.9583" lon="-13.70039">
        <ele>370.4</ele>
        <time>2021-07-03 20:48:22</time>
      </trkpt>
      <trkpt lat="28.9583" lon="-13.70042">
        <ele>370.6</ele>
        <time>2021-07-03 20:48:23</time>
      </trkpt>
      <trkpt lat="28.95829" lon="-13.70045">
        <ele>370.8</ele>
        <time>2021-07-03 20:48:24</time>
      </trkpt>
      <trkpt lat="28.95828" lon="-13.70047">
        <ele>371.2</ele>
        <time>2021-07-03 20:48:25</time>
      </trkpt>
      <trkpt lat="28.95827" lon="-13.7005">
        <ele>371.4</ele>
        <time>2021-07-03 20:48:26</time>
      </trkpt>
      <trkpt lat="28.95826" lon="-13.70053">
        <ele>371.4</ele>
        <time>2021-07-03 20:48:27</time>
      </trkpt>
      <trkpt lat="28.95825" lon="-13.70056">
        <ele>371.6</ele>
        <time>2021-07-03 20:48:28</time>
      </trkpt>
      <trkpt lat="28.95824" lon="-13.70059">
        <ele>371.6</ele>
        <time>2021-07-03 20:48:29</time>
      </trkpt>
      <trkpt lat="28.95823" lon="-13.70062">
        <ele>371.8</ele>
        <time>2021-07-03 20:48:30</time>
      </trkpt>
      <trkpt lat="28.95822" lon="-13.70065">
        <ele>371.8</ele>
        <time>2021-07-03 20:48:31</time>
      </trkpt>
      <trkpt lat="28.95821" lon="-13.70068">
        <ele>372.2</ele>
        <time>2021-07-03 20:48:32</time>
      </trkpt>
      <trkpt lat="28.95821" lon="-13.70071">
        <ele>372.4</ele>
        <time>2021-07-03 20:48:33</time>
      </trkpt>
      <trkpt lat="28.9582" lon="-13.70074">
        <ele>372.4</ele>
        <time>2021-07-03 20:48:34</time>
      </trkpt>
      <trkpt lat="28.95819" lon="-13.70078">
        <ele>372.8</ele>
        <time>2021-07-03 20:48:35</time>
      </trkpt>
      <trkpt lat="28.95819" lon="-13.70081">
        <ele>373</ele>
        <time>2021-07-03 20:48:36</time>
      </trkpt>
      <trkpt lat="28.95819" lon="-13.70084">
        <ele>373</ele>
        <time>2021-07-03 20:48:37</time>
      </trkpt>
      <trkpt lat="28.95818" lon="-13.70087">
        <ele>373.4</ele>
        <time>2021-07-03 20:48:38</time>
      </trkpt>
      <trkpt lat="28.95818" lon="-13.7009">
        <ele>373.4</ele>
        <time>2021-07-03 20:48:39</time>
      </trkpt>
      <trkpt lat="28.95818" lon="-13.70093">
        <ele>373.6</ele>
        <time>2021-07-03 20:48:40</time>
      </trkpt>
      <trkpt lat="28.95818" lon="-13.70096">
        <ele>373.6</ele>
        <time>2021-07-03 20:48:41</time>
      </trkpt>
      <trkpt lat="28.95818" lon="-13.70099">
        <ele>373.8</ele>
        <time>2021-07-03 20:48:42</time>
      </trkpt>
      <trkpt lat="28.95818" lon="-13.70102">
        <ele>374</ele>
        <time>2021-07-03 20:48:43</time>
      </trkpt>
      <trkpt lat="28.95817" lon="-13.70105">
        <ele>374</ele>
        <time>2021-07-03 20:48:44</time>
      </trkpt>
      <trkpt lat="28.95817" lon="-13.70108">
        <ele>374.4</ele>
        <time>2021-07-03 20:48:45</time>
      </trkpt>
      <trkpt lat="28.95818" lon="-13.70111">
        <ele>374.8</ele>
        <time>2021-07-03 20:48:46</time>
      </trkpt>
      <trkpt lat="28.95818" lon="-13.70114">
        <ele>374.8</ele>
        <time>2021-07-03 20:48:47</time>
      </trkpt>
      <trkpt lat="28.95819" lon="-13.70118">
        <ele>375</ele>
        <time>2021-07-03 20:48:48</time>
      </trkpt>
      <trkpt lat="28.95819" lon="-13.70122">
        <ele>375</ele>
        <time>2021-07-03 20:48:49</time>
      </trkpt>
      <trkpt lat="28.95818" lon="-13.70126">
        <ele>375</ele>
        <time>2021-07-03 20:48:50</time>
      </trkpt>
      <trkpt lat="28.95817" lon="-13.70129">
        <ele>375</ele>
        <time>2021-07-03 20:48:51</time>
      </trkpt>
      <trkpt lat="28.95817" lon="-13.70132">
        <ele>374.6</ele>
        <time>2021-07-03 20:48:52</time>
      </trkpt>
      <trkpt lat="28.95816" lon="-13.70135">
        <ele>373.8</ele>
        <time>2021-07-03 20:48:53</time>
      </trkpt>
      <trkpt lat="28.95815" lon="-13.70138">
        <ele>373.2</ele>
        <time>2021-07-03 20:48:54</time>
      </trkpt>
      <trkpt lat="28.95814" lon="-13.70141">
        <ele>372.4</ele>
        <time>2021-07-03 20:48:55</time>
      </trkpt>
      <trkpt lat="28.95813" lon="-13.70145">
        <ele>371.6</ele>
        <time>2021-07-03 20:48:56</time>
      </trkpt>
      <trkpt lat="28.95813" lon="-13.70149">
        <ele>371</ele>
        <time>2021-07-03 20:48:57</time>
      </trkpt>
      <trkpt lat="28.95812" lon="-13.70153">
        <ele>370.4</ele>
        <time>2021-07-03 20:48:58</time>
      </trkpt>
      <trkpt lat="28.95811" lon="-13.70158">
        <ele>370.4</ele>
        <time>2021-07-03 20:48:59</time>
      </trkpt>
      <trkpt lat="28.9581" lon="-13.70163">
        <ele>370.4</ele>
        <time>2021-07-03 20:49:00</time>
      </trkpt>
      <trkpt lat="28.9581" lon="-13.70169">
        <ele>370.4</ele>
        <time>2021-07-03 20:49:01</time>
      </trkpt>
      <trkpt lat="28.9581" lon="-13.70174">
        <ele>370.8</ele>
        <time>2021-07-03 20:49:02</time>
      </trkpt>
      <trkpt lat="28.95809" lon="-13.70179">
        <ele>370.8</ele>
        <time>2021-07-03 20:49:03</time>
      </trkpt>
      <trkpt lat="28.95809" lon="-13.70183">
        <ele>371.2</ele>
        <time>2021-07-03 20:49:04</time>
      </trkpt>
      <trkpt lat="28.95809" lon="-13.70187">
        <ele>371.2</ele>
        <time>2021-07-03 20:49:05</time>
      </trkpt>
      <trkpt lat="28.95809" lon="-13.70191">
        <ele>371.4</ele>
        <time>2021-07-03 20:49:06</time>
      </trkpt>
      <trkpt lat="28.9581" lon="-13.70194">
        <ele>371.4</ele>
        <time>2021-07-03 20:49:07</time>
      </trkpt>
      <trkpt lat="28.9581" lon="-13.70197">
        <ele>371.6</ele>
        <time>2021-07-03 20:49:08</time>
      </trkpt>
      <trkpt lat="28.95811" lon="-13.702">
        <ele>371.6</ele>
        <time>2021-07-03 20:49:09</time>
      </trkpt>
      <trkpt lat="28.95811" lon="-13.70203">
        <ele>371.6</ele>
        <time>2021-07-03 20:49:10</time>
      </trkpt>
      <trkpt lat="28.95811" lon="-13.70206">
        <ele>371.8</ele>
        <time>2021-07-03 20:49:11</time>
      </trkpt>
      <trkpt lat="28.95812" lon="-13.7021">
        <ele>371.8</ele>
        <time>2021-07-03 20:49:12</time>
      </trkpt>
      <trkpt lat="28.95812" lon="-13.70213">
        <ele>371.8</ele>
        <time>2021-07-03 20:49:13</time>
      </trkpt>
      <trkpt lat="28.95813" lon="-13.70217">
        <ele>371.8</ele>
        <time>2021-07-03 20:49:14</time>
      </trkpt>
      <trkpt lat="28.95813" lon="-13.7022">
        <ele>371.8</ele>
        <time>2021-07-03 20:49:15</time>
      </trkpt>
      <trkpt lat="28.95813" lon="-13.70224">
        <ele>371.8</ele>
        <time>2021-07-03 20:49:16</time>
      </trkpt>
      <trkpt lat="28.95814" lon="-13.70228">
        <ele>372</ele>
        <time>2021-07-03 20:49:17</time>
      </trkpt>
      <trkpt lat="28.95814" lon="-13.70231">
        <ele>372.2</ele>
        <time>2021-07-03 20:49:18</time>
      </trkpt>
      <trkpt lat="28.95813" lon="-13.70235">
        <ele>372.8</ele>
        <time>2021-07-03 20:49:19</time>
      </trkpt>
      <trkpt lat="28.95813" lon="-13.70238">
        <ele>373</ele>
        <time>2021-07-03 20:49:20</time>
      </trkpt>
      <trkpt lat="28.95813" lon="-13.70242">
        <ele>373.2</ele>
        <time>2021-07-03 20:49:21</time>
      </trkpt>
      <trkpt lat="28.95813" lon="-13.70245">
        <ele>373.6</ele>
        <time>2021-07-03 20:49:22</time>
      </trkpt>
      <trkpt lat="28.95813" lon="-13.7025">
        <ele>373.6</ele>
        <time>2021-07-03 20:49:23</time>
      </trkpt>
      <trkpt lat="28.95813" lon="-13.70254">
        <ele>373.2</ele>
        <time>2021-07-03 20:49:24</time>
      </trkpt>
      <trkpt lat="28.95813" lon="-13.70259">
        <ele>373</ele>
        <time>2021-07-03 20:49:25</time>
      </trkpt>
      <trkpt lat="28.95813" lon="-13.70263">
        <ele>373</ele>
        <time>2021-07-03 20:49:26</time>
      </trkpt>
      <trkpt lat="28.95813" lon="-13.70268">
        <ele>372.6</ele>
        <time>2021-07-03 20:49:27</time>
      </trkpt>
      <trkpt lat="28.95813" lon="-13.70272">
        <ele>372.6</ele>
        <time>2021-07-03 20:49:28</time>
      </trkpt>
      <trkpt lat="28.95813" lon="-13.70276">
        <ele>372.6</ele>
        <time>2021-07-03 20:49:29</time>
      </trkpt>
      <trkpt lat="28.95813" lon="-13.7028">
        <ele>372.6</ele>
        <time>2021-07-03 20:49:30</time>
      </trkpt>
      <trkpt lat="28.95814" lon="-13.70284">
        <ele>372.6</ele>
        <time>2021-07-03 20:49:31</time>
      </trkpt>
      <trkpt lat="28.95814" lon="-13.70288">
        <ele>372.6</ele>
        <time>2021-07-03 20:49:32</time>
      </trkpt>
      <trkpt lat="28.95815" lon="-13.70291">
        <ele>372.6</ele>
        <time>2021-07-03 20:49:33</time>
      </trkpt>
      <trkpt lat="28.95815" lon="-13.70295">
        <ele>372.4</ele>
        <time>2021-07-03 20:49:34</time>
      </trkpt>
      <trkpt lat="28.95815" lon="-13.70298">
        <ele>372.4</ele>
        <time>2021-07-03 20:49:35</time>
      </trkpt>
      <trkpt lat="28.95816" lon="-13.70302">
        <ele>372.6</ele>
        <time>2021-07-03 20:49:36</time>
      </trkpt>
      <trkpt lat="28.95816" lon="-13.70305">
        <ele>372.8</ele>
        <time>2021-07-03 20:49:37</time>
      </trkpt>
      <trkpt lat="28.95817" lon="-13.70308">
        <ele>372.8</ele>
        <time>2021-07-03 20:49:38</time>
      </trkpt>
      <trkpt lat="28.95818" lon="-13.70311">
        <ele>373.2</ele>
        <time>2021-07-03 20:49:39</time>
      </trkpt>
      <trkpt lat="28.95819" lon="-13.70315">
        <ele>373.2</ele>
        <time>2021-07-03 20:49:40</time>
      </trkpt>
      <trkpt lat="28.9582" lon="-13.70318">
        <ele>373.6</ele>
        <time>2021-07-03 20:49:41</time>
      </trkpt>
      <trkpt lat="28.9582" lon="-13.70321">
        <ele>373.6</ele>
        <time>2021-07-03 20:49:42</time>
      </trkpt>
      <trkpt lat="28.95821" lon="-13.70325">
        <ele>373.8</ele>
        <time>2021-07-03 20:49:43</time>
      </trkpt>
      <trkpt lat="28.95821" lon="-13.70328">
        <ele>373.8</ele>
        <time>2021-07-03 20:49:44</time>
      </trkpt>
      <trkpt lat="28.95821" lon="-13.70332">
        <ele>373.8</ele>
        <time>2021-07-03 20:49:45</time>
      </trkpt>
      <trkpt lat="28.9582" lon="-13.70336">
        <ele>373.8</ele>
        <time>2021-07-03 20:49:46</time>
      </trkpt>
      <trkpt lat="28.95819" lon="-13.70339">
        <ele>373.8</ele>
        <time>2021-07-03 20:49:47</time>
      </trkpt>
      <trkpt lat="28.95819" lon="-13.70343">
        <ele>373.8</ele>
        <time>2021-07-03 20:49:48</time>
      </trkpt>
      <trkpt lat="28.95818" lon="-13.70346">
        <ele>373.8</ele>
        <time>2021-07-03 20:49:49</time>
      </trkpt>
      <trkpt lat="28.95817" lon="-13.7035">
        <ele>373.8</ele>
        <time>2021-07-03 20:49:50</time>
      </trkpt>
      <trkpt lat="28.95817" lon="-13.70354">
        <ele>373.8</ele>
        <time>2021-07-03 20:49:51</time>
      </trkpt>
      <trkpt lat="28.95816" lon="-13.70358">
        <ele>373.8</ele>
        <time>2021-07-03 20:49:52</time>
      </trkpt>
      <trkpt lat="28.95815" lon="-13.70361">
        <ele>373.8</ele>
        <time>2021-07-03 20:49:53</time>
      </trkpt>
      <trkpt lat="28.95814" lon="-13.70364">
        <ele>373.8</ele>
        <time>2021-07-03 20:49:54</time>
      </trkpt>
      <trkpt lat="28.95814" lon="-13.70367">
        <ele>373.8</ele>
        <time>2021-07-03 20:49:55</time>
      </trkpt>
      <trkpt lat="28.95814" lon="-13.7037">
        <ele>373.6</ele>
        <time>2021-07-03 20:49:56</time>
      </trkpt>
      <trkpt lat="28.95813" lon="-13.70374">
        <ele>373.6</ele>
        <time>2021-07-03 20:49:57</time>
      </trkpt>
      <trkpt lat="28.95813" lon="-13.70378">
        <ele>373.2</ele>
        <time>2021-07-03 20:49:58</time>
      </trkpt>
      <trkpt lat="28.95813" lon="-13.70382">
        <ele>373.2</ele>
        <time>2021-07-03 20:49:59</time>
      </trkpt>
      <trkpt lat="28.95813" lon="-13.70386">
        <ele>373.2</ele>
        <time>2021-07-03 20:50:00</time>
      </trkpt>
      <trkpt lat="28.95813" lon="-13.70389">
        <ele>373</ele>
        <time>2021-07-03 20:50:01</time>
      </trkpt>
      <trkpt lat="28.95813" lon="-13.70393">
        <ele>373</ele>
        <time>2021-07-03 20:50:02</time>
      </trkpt>
      <trkpt lat="28.95813" lon="-13.70397">
        <ele>373</ele>
        <time>2021-07-03 20:50:03</time>
      </trkpt>
      <trkpt lat="28.95813" lon="-13.704">
        <ele>373</ele>
        <time>2021-07-03 20:50:04</time>
      </trkpt>
      <trkpt lat="28.95813" lon="-13.70404">
        <ele>373</ele>
        <time>2021-07-03 20:50:05</time>
      </trkpt>
      <trkpt lat="28.95813" lon="-13.70407">
        <ele>372.6</ele>
        <time>2021-07-03 20:50:06</time>
      </trkpt>
      <trkpt lat="28.95813" lon="-13.70411">
        <ele>372.6</ele>
        <time>2021-07-03 20:50:07</time>
      </trkpt>
      <trkpt lat="28.95814" lon="-13.70415">
        <ele>372.6</ele>
        <time>2021-07-03 20:50:08</time>
      </trkpt>
      <trkpt lat="28.95814" lon="-13.70418">
        <ele>372.6</ele>
        <time>2021-07-03 20:50:09</time>
      </trkpt>
      <trkpt lat="28.95814" lon="-13.70423">
        <ele>372.6</ele>
        <time>2021-07-03 20:50:10</time>
      </trkpt>
      <trkpt lat="28.95814" lon="-13.70427">
        <ele>372.4</ele>
        <time>2021-07-03 20:50:11</time>
      </trkpt>
      <trkpt lat="28.95814" lon="-13.70431">
        <ele>372.4</ele>
        <time>2021-07-03 20:50:12</time>
      </trkpt>
      <trkpt lat="28.95814" lon="-13.70435">
        <ele>372</ele>
        <time>2021-07-03 20:50:13</time>
      </trkpt>
      <trkpt lat="28.95814" lon="-13.70438">
        <ele>371.8</ele>
        <time>2021-07-03 20:50:14</time>
      </trkpt>
      <trkpt lat="28.95813" lon="-13.70442">
        <ele>371.8</ele>
        <time>2021-07-03 20:50:15</time>
      </trkpt>
      <trkpt lat="28.95814" lon="-13.70446">
        <ele>371.4</ele>
        <time>2021-07-03 20:50:16</time>
      </trkpt>
      <trkpt lat="28.95814" lon="-13.7045">
        <ele>371.4</ele>
        <time>2021-07-03 20:50:17</time>
      </trkpt>
      <trkpt lat="28.95814" lon="-13.70454">
        <ele>371.2</ele>
        <time>2021-07-03 20:50:18</time>
      </trkpt>
      <trkpt lat="28.95814" lon="-13.70458">
        <ele>371.2</ele>
        <time>2021-07-03 20:50:19</time>
      </trkpt>
      <trkpt lat="28.95813" lon="-13.70461">
        <ele>371</ele>
        <time>2021-07-03 20:50:20</time>
      </trkpt>
      <trkpt lat="28.95813" lon="-13.70465">
        <ele>371</ele>
        <time>2021-07-03 20:50:21</time>
      </trkpt>
      <trkpt lat="28.95813" lon="-13.70469">
        <ele>371</ele>
        <time>2021-07-03 20:50:22</time>
      </trkpt>
      <trkpt lat="28.95812" lon="-13.70472">
        <ele>371</ele>
        <time>2021-07-03 20:50:23</time>
      </trkpt>
      <trkpt lat="28.95812" lon="-13.70476">
        <ele>371.2</ele>
        <time>2021-07-03 20:50:24</time>
      </trkpt>
      <trkpt lat="28.95811" lon="-13.7048">
        <ele>371.2</ele>
        <time>2021-07-03 20:50:25</time>
      </trkpt>
      <trkpt lat="28.95811" lon="-13.70483">
        <ele>371.4</ele>
        <time>2021-07-03 20:50:26</time>
      </trkpt>
      <trkpt lat="28.95811" lon="-13.70487">
        <ele>371.4</ele>
        <time>2021-07-03 20:50:27</time>
      </trkpt>
      <trkpt lat="28.9581" lon="-13.7049">
        <ele>371.4</ele>
        <time>2021-07-03 20:50:28</time>
      </trkpt>
      <trkpt lat="28.95809" lon="-13.70493">
        <ele>371.4</ele>
        <time>2021-07-03 20:50:29</time>
      </trkpt>
      <trkpt lat="28.95808" lon="-13.70497">
        <ele>371.4</ele>
        <time>2021-07-03 20:50:30</time>
      </trkpt>
      <trkpt lat="28.95807" lon="-13.70501">
        <ele>371.4</ele>
        <time>2021-07-03 20:50:31</time>
      </trkpt>
      <trkpt lat="28.95806" lon="-13.70506">
        <ele>371.4</ele>
        <time>2021-07-03 20:50:32</time>
      </trkpt>
      <trkpt lat="28.95805" lon="-13.7051">
        <ele>371.4</ele>
        <time>2021-07-03 20:50:33</time>
      </trkpt>
      <trkpt lat="28.95804" lon="-13.70514">
        <ele>371.4</ele>
        <time>2021-07-03 20:50:34</time>
      </trkpt>
      <trkpt lat="28.95803" lon="-13.70519">
        <ele>371.4</ele>
        <time>2021-07-03 20:50:35</time>
      </trkpt>
      <trkpt lat="28.95801" lon="-13.70523">
        <ele>371.4</ele>
        <time>2021-07-03 20:50:36</time>
      </trkpt>
      <trkpt lat="28.95799" lon="-13.70527">
        <ele>371.2</ele>
        <time>2021-07-03 20:50:37</time>
      </trkpt>
      <trkpt lat="28.95798" lon="-13.70531">
        <ele>371.2</ele>
        <time>2021-07-03 20:50:38</time>
      </trkpt>
      <trkpt lat="28.95796" lon="-13.70535">
        <ele>371.2</ele>
        <time>2021-07-03 20:50:39</time>
      </trkpt>
      <trkpt lat="28.95794" lon="-13.70538">
        <ele>371.2</ele>
        <time>2021-07-03 20:50:40</time>
      </trkpt>
      <trkpt lat="28.95792" lon="-13.70542">
        <ele>371</ele>
        <time>2021-07-03 20:50:41</time>
      </trkpt>
      <trkpt lat="28.9579" lon="-13.70546">
        <ele>371</ele>
        <time>2021-07-03 20:50:42</time>
      </trkpt>
      <trkpt lat="28.95788" lon="-13.7055">
        <ele>371</ele>
        <time>2021-07-03 20:50:43</time>
      </trkpt>
      <trkpt lat="28.95786" lon="-13.70554">
        <ele>371</ele>
        <time>2021-07-03 20:50:44</time>
      </trkpt>
      <trkpt lat="28.95784" lon="-13.70557">
        <ele>371.2</ele>
        <time>2021-07-03 20:50:45</time>
      </trkpt>
      <trkpt lat="28.95782" lon="-13.70561">
        <ele>371.2</ele>
        <time>2021-07-03 20:50:46</time>
      </trkpt>
      <trkpt lat="28.9578" lon="-13.70564">
        <ele>371.2</ele>
        <time>2021-07-03 20:50:47</time>
      </trkpt>
      <trkpt lat="28.95778" lon="-13.70567">
        <ele>371.2</ele>
        <time>2021-07-03 20:50:48</time>
      </trkpt>
      <trkpt lat="28.95776" lon="-13.7057">
        <ele>371.2</ele>
        <time>2021-07-03 20:50:49</time>
      </trkpt>
      <trkpt lat="28.95774" lon="-13.70574">
        <ele>371.2</ele>
        <time>2021-07-03 20:50:50</time>
      </trkpt>
      <trkpt lat="28.95772" lon="-13.70578">
        <ele>371.8</ele>
        <time>2021-07-03 20:50:51</time>
      </trkpt>
      <trkpt lat="28.9577" lon="-13.70582">
        <ele>372.6</ele>
        <time>2021-07-03 20:50:52</time>
      </trkpt>
      <trkpt lat="28.95768" lon="-13.70586">
        <ele>373.4</ele>
        <time>2021-07-03 20:50:53</time>
      </trkpt>
      <trkpt lat="28.95766" lon="-13.7059">
        <ele>373.8</ele>
        <time>2021-07-03 20:50:54</time>
      </trkpt>
      <trkpt lat="28.95764" lon="-13.70593">
        <ele>373.8</ele>
        <time>2021-07-03 20:50:55</time>
      </trkpt>
      <trkpt lat="28.95763" lon="-13.70597">
        <ele>373.4</ele>
        <time>2021-07-03 20:50:56</time>
      </trkpt>
      <trkpt lat="28.95762" lon="-13.70601">
        <ele>373</ele>
        <time>2021-07-03 20:50:57</time>
      </trkpt>
      <trkpt lat="28.9576" lon="-13.70604">
        <ele>372.6</ele>
        <time>2021-07-03 20:50:58</time>
      </trkpt>
      <trkpt lat="28.95758" lon="-13.70608">
        <ele>372.2</ele>
        <time>2021-07-03 20:50:59</time>
      </trkpt>
      <trkpt lat="28.95756" lon="-13.70612">
        <ele>372</ele>
        <time>2021-07-03 20:51:00</time>
      </trkpt>
      <trkpt lat="28.95754" lon="-13.70615">
        <ele>371.8</ele>
        <time>2021-07-03 20:51:01</time>
      </trkpt>
      <trkpt lat="28.95752" lon="-13.70618">
        <ele>371.4</ele>
        <time>2021-07-03 20:51:02</time>
      </trkpt>
      <trkpt lat="28.95749" lon="-13.70622">
        <ele>371.2</ele>
        <time>2021-07-03 20:51:03</time>
      </trkpt>
      <trkpt lat="28.95747" lon="-13.70625">
        <ele>370.8</ele>
        <time>2021-07-03 20:51:04</time>
      </trkpt>
      <trkpt lat="28.95745" lon="-13.70628">
        <ele>370.6</ele>
        <time>2021-07-03 20:51:05</time>
      </trkpt>
      <trkpt lat="28.95743" lon="-13.70631">
        <ele>370.6</ele>
        <time>2021-07-03 20:51:06</time>
      </trkpt>
      <trkpt lat="28.95741" lon="-13.70634">
        <ele>370.6</ele>
        <time>2021-07-03 20:51:07</time>
      </trkpt>
      <trkpt lat="28.95739" lon="-13.70637">
        <ele>370.6</ele>
        <time>2021-07-03 20:51:08</time>
      </trkpt>
      <trkpt lat="28.95736" lon="-13.7064">
        <ele>370.6</ele>
        <time>2021-07-03 20:51:09</time>
      </trkpt>
      <trkpt lat="28.95734" lon="-13.70643">
        <ele>371</ele>
        <time>2021-07-03 20:51:10</time>
      </trkpt>
      <trkpt lat="28.95731" lon="-13.70646">
        <ele>371.2</ele>
        <time>2021-07-03 20:51:11</time>
      </trkpt>
      <trkpt lat="28.95729" lon="-13.70649">
        <ele>371.4</ele>
        <time>2021-07-03 20:51:12</time>
      </trkpt>
      <trkpt lat="28.95727" lon="-13.70652">
        <ele>371.6</ele>
        <time>2021-07-03 20:51:13</time>
      </trkpt>
      <trkpt lat="28.95724" lon="-13.70654">
        <ele>372</ele>
        <time>2021-07-03 20:51:14</time>
      </trkpt>
      <trkpt lat="28.95722" lon="-13.70657">
        <ele>372.2</ele>
        <time>2021-07-03 20:51:15</time>
      </trkpt>
      <trkpt lat="28.9572" lon="-13.7066">
        <ele>372.4</ele>
        <time>2021-07-03 20:51:16</time>
      </trkpt>
      <trkpt lat="28.95719" lon="-13.70663">
        <ele>372.8</ele>
        <time>2021-07-03 20:51:17</time>
      </trkpt>
      <trkpt lat="28.95718" lon="-13.70665">
        <ele>373</ele>
        <time>2021-07-03 20:51:18</time>
      </trkpt>
      <trkpt lat="28.95717" lon="-13.70667">
        <ele>373.2</ele>
        <time>2021-07-03 20:51:19</time>
      </trkpt>
      <trkpt lat="28.95715" lon="-13.7067">
        <ele>373.4</ele>
        <time>2021-07-03 20:51:20</time>
      </trkpt>
      <trkpt lat="28.95714" lon="-13.70673">
        <ele>373.8</ele>
        <time>2021-07-03 20:51:21</time>
      </trkpt>
      <trkpt lat="28.95713" lon="-13.70675">
        <ele>374</ele>
        <time>2021-07-03 20:51:22</time>
      </trkpt>
      <trkpt lat="28.95712" lon="-13.70678">
        <ele>374.4</ele>
        <time>2021-07-03 20:51:23</time>
      </trkpt>
      <trkpt lat="28.9571" lon="-13.7068">
        <ele>374.6</ele>
        <time>2021-07-03 20:51:24</time>
      </trkpt>
      <trkpt lat="28.95709" lon="-13.70683">
        <ele>374.8</ele>
        <time>2021-07-03 20:51:25</time>
      </trkpt>
      <trkpt lat="28.95708" lon="-13.70685">
        <ele>375.2</ele>
        <time>2021-07-03 20:51:26</time>
      </trkpt>
      <trkpt lat="28.95707" lon="-13.70687">
        <ele>375.4</ele>
        <time>2021-07-03 20:51:27</time>
      </trkpt>
      <trkpt lat="28.95706" lon="-13.70689">
        <ele>375.6</ele>
        <time>2021-07-03 20:51:28</time>
      </trkpt>
      <trkpt lat="28.95705" lon="-13.7069">
        <ele>376.2</ele>
        <time>2021-07-03 20:51:29</time>
      </trkpt>
      <trkpt lat="28.95704" lon="-13.70692">
        <ele>376.6</ele>
        <time>2021-07-03 20:51:30</time>
      </trkpt>
      <trkpt lat="28.95703" lon="-13.70694">
        <ele>377</ele>
        <time>2021-07-03 20:51:31</time>
      </trkpt>
      <trkpt lat="28.95702" lon="-13.70696">
        <ele>377.2</ele>
        <time>2021-07-03 20:51:32</time>
      </trkpt>
      <trkpt lat="28.95701" lon="-13.70698">
        <ele>377.6</ele>
        <time>2021-07-03 20:51:33</time>
      </trkpt>
      <trkpt lat="28.95699" lon="-13.70699">
        <ele>377.6</ele>
        <time>2021-07-03 20:51:34</time>
      </trkpt>
      <trkpt lat="28.95698" lon="-13.70699">
        <ele>377.8</ele>
        <time>2021-07-03 20:51:35</time>
      </trkpt>
      <trkpt lat="28.95697" lon="-13.707">
        <ele>378</ele>
        <time>2021-07-03 20:51:36</time>
      </trkpt>
      <trkpt lat="28.95696" lon="-13.70701">
        <ele>378</ele>
        <time>2021-07-03 20:51:37</time>
      </trkpt>
      <trkpt lat="28.95695" lon="-13.70702">
        <ele>378.4</ele>
        <time>2021-07-03 20:51:38</time>
      </trkpt>
      <trkpt lat="28.95694" lon="-13.70703">
        <ele>378.4</ele>
        <time>2021-07-03 20:51:39</time>
      </trkpt>
      <trkpt lat="28.95693" lon="-13.70704">
        <ele>378.8</ele>
        <time>2021-07-03 20:51:40</time>
      </trkpt>
      <trkpt lat="28.95692" lon="-13.70705">
        <ele>379</ele>
        <time>2021-07-03 20:51:41</time>
      </trkpt>
      <trkpt lat="28.95691" lon="-13.70706">
        <ele>379.4</ele>
        <time>2021-07-03 20:51:42</time>
      </trkpt>
      <trkpt lat="28.9569" lon="-13.70708">
        <ele>379.6</ele>
        <time>2021-07-03 20:51:43</time>
      </trkpt>
      <trkpt lat="28.95689" lon="-13.7071">
        <ele>379.8</ele>
        <time>2021-07-03 20:51:44</time>
      </trkpt>
      <trkpt lat="28.95688" lon="-13.70711">
        <ele>380.2</ele>
        <time>2021-07-03 20:51:45</time>
      </trkpt>
      <trkpt lat="28.95687" lon="-13.70712">
        <ele>380.6</ele>
        <time>2021-07-03 20:51:46</time>
      </trkpt>
      <trkpt lat="28.95685" lon="-13.70714">
        <ele>381</ele>
        <time>2021-07-03 20:51:47</time>
      </trkpt>
      <trkpt lat="28.95685" lon="-13.70716">
        <ele>381.2</ele>
        <time>2021-07-03 20:51:48</time>
      </trkpt>
      <trkpt lat="28.95684" lon="-13.70718">
        <ele>381.4</ele>
        <time>2021-07-03 20:51:49</time>
      </trkpt>
      <trkpt lat="28.95683" lon="-13.7072">
        <ele>381.6</ele>
        <time>2021-07-03 20:51:50</time>
      </trkpt>
      <trkpt lat="28.95682" lon="-13.70722">
        <ele>381.8</ele>
        <time>2021-07-03 20:51:51</time>
      </trkpt>
      <trkpt lat="28.95681" lon="-13.70723">
        <ele>382.2</ele>
        <time>2021-07-03 20:51:52</time>
      </trkpt>
      <trkpt lat="28.9568" lon="-13.70725">
        <ele>382.4</ele>
        <time>2021-07-03 20:51:53</time>
      </trkpt>
      <trkpt lat="28.9568" lon="-13.70727">
        <ele>382.8</ele>
        <time>2021-07-03 20:51:54</time>
      </trkpt>
      <trkpt lat="28.95679" lon="-13.70728">
        <ele>383.2</ele>
        <time>2021-07-03 20:51:55</time>
      </trkpt>
      <trkpt lat="28.95679" lon="-13.7073">
        <ele>383.6</ele>
        <time>2021-07-03 20:51:56</time>
      </trkpt>
      <trkpt lat="28.95678" lon="-13.70732">
        <ele>383.6</ele>
        <time>2021-07-03 20:51:57</time>
      </trkpt>
      <trkpt lat="28.95677" lon="-13.70734">
        <ele>384</ele>
        <time>2021-07-03 20:51:58</time>
      </trkpt>
      <trkpt lat="28.95676" lon="-13.70736">
        <ele>384.2</ele>
        <time>2021-07-03 20:51:59</time>
      </trkpt>
      <trkpt lat="28.95676" lon="-13.70738">
        <ele>384.6</ele>
        <time>2021-07-03 20:52:00</time>
      </trkpt>
      <trkpt lat="28.95675" lon="-13.7074">
        <ele>384.6</ele>
        <time>2021-07-03 20:52:01</time>
      </trkpt>
      <trkpt lat="28.95675" lon="-13.70742">
        <ele>385</ele>
        <time>2021-07-03 20:52:02</time>
      </trkpt>
      <trkpt lat="28.95671" lon="-13.70749">
        <ele>385.8</ele>
        <time>2021-07-03 20:52:03</time>
      </trkpt>
      <trkpt lat="28.9567" lon="-13.70751">
        <ele>386.2</ele>
        <time>2021-07-03 20:52:04</time>
      </trkpt>
      <trkpt lat="28.9567" lon="-13.70753">
        <ele>386.6</ele>
        <time>2021-07-03 20:52:05</time>
      </trkpt>
      <trkpt lat="28.95669" lon="-13.70754">
        <ele>386.8</ele>
        <time>2021-07-03 20:52:06</time>
      </trkpt>
      <trkpt lat="28.95669" lon="-13.70756">
        <ele>387.2</ele>
        <time>2021-07-03 20:52:07</time>
      </trkpt>
      <trkpt lat="28.95668" lon="-13.70757">
        <ele>387.8</ele>
        <time>2021-07-03 20:52:08</time>
      </trkpt>
      <trkpt lat="28.95667" lon="-13.70758">
        <ele>388.2</ele>
        <time>2021-07-03 20:52:09</time>
      </trkpt>
      <trkpt lat="28.95666" lon="-13.7076">
        <ele>388.8</ele>
        <time>2021-07-03 20:52:10</time>
      </trkpt>
      <trkpt lat="28.95665" lon="-13.7076">
        <ele>389.6</ele>
        <time>2021-07-03 20:52:11</time>
      </trkpt>
      <trkpt lat="28.95665" lon="-13.70761">
        <ele>390.4</ele>
        <time>2021-07-03 20:52:12</time>
      </trkpt>
      <trkpt lat="28.95664" lon="-13.70762">
        <ele>391</ele>
        <time>2021-07-03 20:52:13</time>
      </trkpt>
      <trkpt lat="28.95664" lon="-13.70762">
        <ele>391.4</ele>
        <time>2021-07-03 20:52:14</time>
      </trkpt>
      <trkpt lat="28.95664" lon="-13.70762">
        <ele>391.4</ele>
        <time>2021-07-03 20:52:15</time>
      </trkpt>
      <trkpt lat="28.95664" lon="-13.70762">
        <ele>391.4</ele>
        <time>2021-07-03 20:52:16</time>
      </trkpt>
      <trkpt lat="28.95664" lon="-13.70763">
        <ele>391.4</ele>
        <time>2021-07-03 20:52:17</time>
      </trkpt>
      <trkpt lat="28.95664" lon="-13.70765">
        <ele>391.2</ele>
        <time>2021-07-03 20:52:18</time>
      </trkpt>
      <trkpt lat="28.95664" lon="-13.70767">
        <ele>391.2</ele>
        <time>2021-07-03 20:52:19</time>
      </trkpt>
      <trkpt lat="28.95664" lon="-13.70768">
        <ele>391.2</ele>
        <time>2021-07-03 20:52:20</time>
      </trkpt>
      <trkpt lat="28.95664" lon="-13.7077">
        <ele>391.6</ele>
        <time>2021-07-03 20:52:21</time>
      </trkpt>
      <trkpt lat="28.95663" lon="-13.70771">
        <ele>392</ele>
        <time>2021-07-03 20:52:22</time>
      </trkpt>
      <trkpt lat="28.95662" lon="-13.70773">
        <ele>392.2</ele>
        <time>2021-07-03 20:52:23</time>
      </trkpt>
      <trkpt lat="28.95662" lon="-13.70774">
        <ele>392.4</ele>
        <time>2021-07-03 20:52:24</time>
      </trkpt>
      <trkpt lat="28.95662" lon="-13.70776">
        <ele>392.4</ele>
        <time>2021-07-03 20:52:25</time>
      </trkpt>
      <trkpt lat="28.95662" lon="-13.70777">
        <ele>392.8</ele>
        <time>2021-07-03 20:52:26</time>
      </trkpt>
      <trkpt lat="28.95661" lon="-13.70781">
        <ele>392.8</ele>
        <time>2021-07-03 20:52:27</time>
      </trkpt>
      <trkpt lat="28.95661" lon="-13.70782">
        <ele>393</ele>
        <time>2021-07-03 20:52:28</time>
      </trkpt>
      <trkpt lat="28.9566" lon="-13.70783">
        <ele>393</ele>
        <time>2021-07-03 20:52:29</time>
      </trkpt>
      <trkpt lat="28.95659" lon="-13.70785">
        <ele>393</ele>
        <time>2021-07-03 20:52:30</time>
      </trkpt>
      <trkpt lat="28.95658" lon="-13.70786">
        <ele>393.2</ele>
        <time>2021-07-03 20:52:31</time>
      </trkpt>
      <trkpt lat="28.95657" lon="-13.70787">
        <ele>393.6</ele>
        <time>2021-07-03 20:52:32</time>
      </trkpt>
      <trkpt lat="28.95656" lon="-13.70788">
        <ele>393.8</ele>
        <time>2021-07-03 20:52:33</time>
      </trkpt>
      <trkpt lat="28.95655" lon="-13.70789">
        <ele>394.4</ele>
        <time>2021-07-03 20:52:34</time>
      </trkpt>
      <trkpt lat="28.95655" lon="-13.7079">
        <ele>394.8</ele>
        <time>2021-07-03 20:52:35</time>
      </trkpt>
      <trkpt lat="28.95655" lon="-13.70792">
        <ele>395.4</ele>
        <time>2021-07-03 20:52:36</time>
      </trkpt>
      <trkpt lat="28.95655" lon="-13.70794">
        <ele>395.6</ele>
        <time>2021-07-03 20:52:37</time>
      </trkpt>
      <trkpt lat="28.95655" lon="-13.70796">
        <ele>395.6</ele>
        <time>2021-07-03 20:52:38</time>
      </trkpt>
      <trkpt lat="28.95655" lon="-13.70797">
        <ele>395.6</ele>
        <time>2021-07-03 20:52:39</time>
      </trkpt>
      <trkpt lat="28.95656" lon="-13.70799">
        <ele>395.4</ele>
        <time>2021-07-03 20:52:40</time>
      </trkpt>
      <trkpt lat="28.95656" lon="-13.70801">
        <ele>395.4</ele>
        <time>2021-07-03 20:52:41</time>
      </trkpt>
      <trkpt lat="28.95655" lon="-13.70802">
        <ele>395.2</ele>
        <time>2021-07-03 20:52:42</time>
      </trkpt>
      <trkpt lat="28.95654" lon="-13.70803">
        <ele>395.2</ele>
        <time>2021-07-03 20:52:43</time>
      </trkpt>
      <trkpt lat="28.95654" lon="-13.70804">
        <ele>395.2</ele>
        <time>2021-07-03 20:52:44</time>
      </trkpt>
      <trkpt lat="28.95653" lon="-13.70806">
        <ele>394.8</ele>
        <time>2021-07-03 20:52:45</time>
      </trkpt>
      <trkpt lat="28.95653" lon="-13.70808">
        <ele>394.8</ele>
        <time>2021-07-03 20:52:46</time>
      </trkpt>
      <trkpt lat="28.95653" lon="-13.7081">
        <ele>394.8</ele>
        <time>2021-07-03 20:52:47</time>
      </trkpt>
      <trkpt lat="28.95653" lon="-13.70811">
        <ele>395.4</ele>
        <time>2021-07-03 20:52:48</time>
      </trkpt>
      <trkpt lat="28.95653" lon="-13.70813">
        <ele>395.4</ele>
        <time>2021-07-03 20:52:49</time>
      </trkpt>
      <trkpt lat="28.95653" lon="-13.70815">
        <ele>395.6</ele>
        <time>2021-07-03 20:52:50</time>
      </trkpt>
      <trkpt lat="28.95653" lon="-13.70817">
        <ele>395.8</ele>
        <time>2021-07-03 20:52:51</time>
      </trkpt>
      <trkpt lat="28.95652" lon="-13.70819">
        <ele>396.2</ele>
        <time>2021-07-03 20:52:52</time>
      </trkpt>
      <trkpt lat="28.95652" lon="-13.70821">
        <ele>396.4</ele>
        <time>2021-07-03 20:52:53</time>
      </trkpt>
      <trkpt lat="28.95651" lon="-13.70823">
        <ele>396.6</ele>
        <time>2021-07-03 20:52:54</time>
      </trkpt>
      <trkpt lat="28.95651" lon="-13.70825">
        <ele>396.8</ele>
        <time>2021-07-03 20:52:55</time>
      </trkpt>
      <trkpt lat="28.95651" lon="-13.70827">
        <ele>397</ele>
        <time>2021-07-03 20:52:56</time>
      </trkpt>
      <trkpt lat="28.9565" lon="-13.70829">
        <ele>397.4</ele>
        <time>2021-07-03 20:52:57</time>
      </trkpt>
      <trkpt lat="28.9565" lon="-13.70831">
        <ele>397.6</ele>
        <time>2021-07-03 20:52:58</time>
      </trkpt>
      <trkpt lat="28.95649" lon="-13.70833">
        <ele>397.8</ele>
        <time>2021-07-03 20:52:59</time>
      </trkpt>
      <trkpt lat="28.95648" lon="-13.70835">
        <ele>398.2</ele>
        <time>2021-07-03 20:53:00</time>
      </trkpt>
      <trkpt lat="28.95648" lon="-13.70837">
        <ele>398.2</ele>
        <time>2021-07-03 20:53:01</time>
      </trkpt>
      <trkpt lat="28.95648" lon="-13.70838">
        <ele>398.6</ele>
        <time>2021-07-03 20:53:02</time>
      </trkpt>
      <trkpt lat="28.95647" lon="-13.7084">
        <ele>399</ele>
        <time>2021-07-03 20:53:03</time>
      </trkpt>
      <trkpt lat="28.95647" lon="-13.70841">
        <ele>399.2</ele>
        <time>2021-07-03 20:53:04</time>
      </trkpt>
      <trkpt lat="28.95646" lon="-13.70843">
        <ele>399.4</ele>
        <time>2021-07-03 20:53:05</time>
      </trkpt>
      <trkpt lat="28.95645" lon="-13.70844">
        <ele>399.8</ele>
        <time>2021-07-03 20:53:06</time>
      </trkpt>
      <trkpt lat="28.95644" lon="-13.70845">
        <ele>400</ele>
        <time>2021-07-03 20:53:07</time>
      </trkpt>
      <trkpt lat="28.95643" lon="-13.70847">
        <ele>400.2</ele>
        <time>2021-07-03 20:53:08</time>
      </trkpt>
      <trkpt lat="28.95643" lon="-13.70848">
        <ele>400.2</ele>
        <time>2021-07-03 20:53:09</time>
      </trkpt>
      <trkpt lat="28.95643" lon="-13.7085">
        <ele>400.6</ele>
        <time>2021-07-03 20:53:10</time>
      </trkpt>
      <trkpt lat="28.95643" lon="-13.70851">
        <ele>400.6</ele>
        <time>2021-07-03 20:53:11</time>
      </trkpt>
      <trkpt lat="28.95642" lon="-13.70853">
        <ele>401</ele>
        <time>2021-07-03 20:53:12</time>
      </trkpt>
      <trkpt lat="28.95642" lon="-13.70854">
        <ele>401.2</ele>
        <time>2021-07-03 20:53:13</time>
      </trkpt>
      <trkpt lat="28.95641" lon="-13.70854">
        <ele>401.6</ele>
        <time>2021-07-03 20:53:14</time>
      </trkpt>
      <trkpt lat="28.9564" lon="-13.70854">
        <ele>401.8</ele>
        <time>2021-07-03 20:53:15</time>
      </trkpt>
      <trkpt lat="28.9564" lon="-13.70853">
        <ele>402.2</ele>
        <time>2021-07-03 20:53:16</time>
      </trkpt>
      <trkpt lat="28.9564" lon="-13.70854">
        <ele>402.6</ele>
        <time>2021-07-03 20:53:17</time>
      </trkpt>
      <trkpt lat="28.9564" lon="-13.70855">
        <ele>403</ele>
        <time>2021-07-03 20:53:18</time>
      </trkpt>
      <trkpt lat="28.9564" lon="-13.70856">
        <ele>403.6</ele>
        <time>2021-07-03 20:53:19</time>
      </trkpt>
      <trkpt lat="28.95639" lon="-13.70858">
        <ele>403.8</ele>
        <time>2021-07-03 20:53:20</time>
      </trkpt>
      <trkpt lat="28.95639" lon="-13.70859">
        <ele>404</ele>
        <time>2021-07-03 20:53:21</time>
      </trkpt>
      <trkpt lat="28.95639" lon="-13.7086">
        <ele>404.4</ele>
        <time>2021-07-03 20:53:22</time>
      </trkpt>
      <trkpt lat="28.95639" lon="-13.70861">
        <ele>404.6</ele>
        <time>2021-07-03 20:53:23</time>
      </trkpt>
      <trkpt lat="28.95639" lon="-13.70862">
        <ele>404.6</ele>
        <time>2021-07-03 20:53:24</time>
      </trkpt>
      <trkpt lat="28.95638" lon="-13.70863">
        <ele>404.6</ele>
        <time>2021-07-03 20:53:25</time>
      </trkpt>
      <trkpt lat="28.95638" lon="-13.70864">
        <ele>404.6</ele>
        <time>2021-07-03 20:53:26</time>
      </trkpt>
      <trkpt lat="28.95638" lon="-13.70866">
        <ele>404.4</ele>
        <time>2021-07-03 20:53:27</time>
      </trkpt>
      <trkpt lat="28.95638" lon="-13.70867">
        <ele>404.4</ele>
        <time>2021-07-03 20:53:28</time>
      </trkpt>
      <trkpt lat="28.95638" lon="-13.70868">
        <ele>404.4</ele>
        <time>2021-07-03 20:53:29</time>
      </trkpt>
      <trkpt lat="28.95637" lon="-13.7087">
        <ele>404.4</ele>
        <time>2021-07-03 20:53:30</time>
      </trkpt>
      <trkpt lat="28.95637" lon="-13.70871">
        <ele>404.4</ele>
        <time>2021-07-03 20:53:31</time>
      </trkpt>
      <trkpt lat="28.95637" lon="-13.70873">
        <ele>404.4</ele>
        <time>2021-07-03 20:53:32</time>
      </trkpt>
      <trkpt lat="28.95637" lon="-13.70874">
        <ele>404.4</ele>
        <time>2021-07-03 20:53:33</time>
      </trkpt>
      <trkpt lat="28.95637" lon="-13.70876">
        <ele>404.4</ele>
        <time>2021-07-03 20:53:34</time>
      </trkpt>
      <trkpt lat="28.95636" lon="-13.70877">
        <ele>404.4</ele>
        <time>2021-07-03 20:53:35</time>
      </trkpt>
      <trkpt lat="28.95636" lon="-13.70879">
        <ele>404.4</ele>
        <time>2021-07-03 20:53:36</time>
      </trkpt>
      <trkpt lat="28.95636" lon="-13.7088">
        <ele>404.4</ele>
        <time>2021-07-03 20:53:37</time>
      </trkpt>
      <trkpt lat="28.95636" lon="-13.70881">
        <ele>404.4</ele>
        <time>2021-07-03 20:53:38</time>
      </trkpt>
      <trkpt lat="28.95636" lon="-13.70883">
        <ele>404.4</ele>
        <time>2021-07-03 20:53:39</time>
      </trkpt>
      <trkpt lat="28.95636" lon="-13.70884">
        <ele>404.4</ele>
        <time>2021-07-03 20:53:40</time>
      </trkpt>
      <trkpt lat="28.95635" lon="-13.70885">
        <ele>404.4</ele>
        <time>2021-07-03 20:53:41</time>
      </trkpt>
      <trkpt lat="28.95635" lon="-13.70885">
        <ele>404.6</ele>
        <time>2021-07-03 20:53:42</time>
      </trkpt>
      <trkpt lat="28.95635" lon="-13.70885">
        <ele>404.6</ele>
        <time>2021-07-03 20:53:43</time>
      </trkpt>
      <trkpt lat="28.95635" lon="-13.70885">
        <ele>405</ele>
        <time>2021-07-03 20:53:44</time>
      </trkpt>
      <trkpt lat="28.95634" lon="-13.70887">
        <ele>405.8</ele>
        <time>2021-07-03 20:53:45</time>
      </trkpt>
      <trkpt lat="28.95634" lon="-13.70888">
        <ele>405.8</ele>
        <time>2021-07-03 20:53:46</time>
      </trkpt>
      <trkpt lat="28.95633" lon="-13.70889">
        <ele>405.6</ele>
        <time>2021-07-03 20:53:47</time>
      </trkpt>
      <trkpt lat="28.95633" lon="-13.7089">
        <ele>405.6</ele>
        <time>2021-07-03 20:53:48</time>
      </trkpt>
      <trkpt lat="28.95633" lon="-13.7089">
        <ele>405.2</ele>
        <time>2021-07-03 20:53:49</time>
      </trkpt>
      <trkpt lat="28.95633" lon="-13.7089">
        <ele>405.2</ele>
        <time>2021-07-03 20:53:50</time>
      </trkpt>
      <trkpt lat="28.95632" lon="-13.70891">
        <ele>404.8</ele>
        <time>2021-07-03 20:53:51</time>
      </trkpt>
      <trkpt lat="28.95631" lon="-13.70892">
        <ele>404.8</ele>
        <time>2021-07-03 20:53:52</time>
      </trkpt>
      <trkpt lat="28.9563" lon="-13.70894">
        <ele>404.6</ele>
        <time>2021-07-03 20:53:53</time>
      </trkpt>
      <trkpt lat="28.9563" lon="-13.70895">
        <ele>404.6</ele>
        <time>2021-07-03 20:53:54</time>
      </trkpt>
      <trkpt lat="28.95629" lon="-13.70896">
        <ele>404.6</ele>
        <time>2021-07-03 20:53:55</time>
      </trkpt>
      <trkpt lat="28.95629" lon="-13.70898">
        <ele>404.6</ele>
        <time>2021-07-03 20:53:56</time>
      </trkpt>
      <trkpt lat="28.95628" lon="-13.70899">
        <ele>404.6</ele>
        <time>2021-07-03 20:53:57</time>
      </trkpt>
      <trkpt lat="28.95627" lon="-13.709">
        <ele>404.8</ele>
        <time>2021-07-03 20:53:58</time>
      </trkpt>
      <trkpt lat="28.95626" lon="-13.70901">
        <ele>404.8</ele>
        <time>2021-07-03 20:53:59</time>
      </trkpt>
      <trkpt lat="28.95625" lon="-13.70902">
        <ele>405.2</ele>
        <time>2021-07-03 20:54:00</time>
      </trkpt>
      <trkpt lat="28.95625" lon="-13.70903">
        <ele>405.4</ele>
        <time>2021-07-03 20:54:01</time>
      </trkpt>
      <trkpt lat="28.95624" lon="-13.70904">
        <ele>405.4</ele>
        <time>2021-07-03 20:54:02</time>
      </trkpt>
      <trkpt lat="28.95624" lon="-13.70906">
        <ele>405.8</ele>
        <time>2021-07-03 20:54:03</time>
      </trkpt>
      <trkpt lat="28.95623" lon="-13.70907">
        <ele>405.8</ele>
        <time>2021-07-03 20:54:04</time>
      </trkpt>
      <trkpt lat="28.95623" lon="-13.70908">
        <ele>405.8</ele>
        <time>2021-07-03 20:54:05</time>
      </trkpt>
      <trkpt lat="28.95622" lon="-13.7091">
        <ele>406</ele>
        <time>2021-07-03 20:54:06</time>
      </trkpt>
      <trkpt lat="28.95622" lon="-13.70911">
        <ele>406</ele>
        <time>2021-07-03 20:54:07</time>
      </trkpt>
      <trkpt lat="28.95621" lon="-13.70911">
        <ele>406</ele>
        <time>2021-07-03 20:54:08</time>
      </trkpt>
      <trkpt lat="28.95621" lon="-13.70912">
        <ele>406.2</ele>
        <time>2021-07-03 20:54:09</time>
      </trkpt>
      <trkpt lat="28.9562" lon="-13.70913">
        <ele>406.2</ele>
        <time>2021-07-03 20:54:10</time>
      </trkpt>
      <trkpt lat="28.9562" lon="-13.70914">
        <ele>406.6</ele>
        <time>2021-07-03 20:54:11</time>
      </trkpt>
      <trkpt lat="28.95619" lon="-13.70915">
        <ele>407</ele>
        <time>2021-07-03 20:54:12</time>
      </trkpt>
      <trkpt lat="28.95619" lon="-13.70916">
        <ele>407.2</ele>
        <time>2021-07-03 20:54:13</time>
      </trkpt>
      <trkpt lat="28.95619" lon="-13.70917">
        <ele>407.2</ele>
        <time>2021-07-03 20:54:14</time>
      </trkpt>
      <trkpt lat="28.95619" lon="-13.70918">
        <ele>407.6</ele>
        <time>2021-07-03 20:54:15</time>
      </trkpt>
      <trkpt lat="28.95618" lon="-13.70919">
        <ele>407.6</ele>
        <time>2021-07-03 20:54:16</time>
      </trkpt>
      <trkpt lat="28.95618" lon="-13.7092">
        <ele>408</ele>
        <time>2021-07-03 20:54:17</time>
      </trkpt>
      <trkpt lat="28.95618" lon="-13.70921">
        <ele>408.2</ele>
        <time>2021-07-03 20:54:18</time>
      </trkpt>
      <trkpt lat="28.95618" lon="-13.70922">
        <ele>408.6</ele>
        <time>2021-07-03 20:54:19</time>
      </trkpt>
      <trkpt lat="28.95617" lon="-13.70923">
        <ele>409</ele>
        <time>2021-07-03 20:54:20</time>
      </trkpt>
      <trkpt lat="28.95617" lon="-13.70924">
        <ele>409.4</ele>
        <time>2021-07-03 20:54:21</time>
      </trkpt>
      <trkpt lat="28.95617" lon="-13.70925">
        <ele>409.6</ele>
        <time>2021-07-03 20:54:22</time>
      </trkpt>
      <trkpt lat="28.95616" lon="-13.70926">
        <ele>409.8</ele>
        <time>2021-07-03 20:54:23</time>
      </trkpt>
      <trkpt lat="28.95616" lon="-13.70927">
        <ele>409.8</ele>
        <time>2021-07-03 20:54:24</time>
      </trkpt>
      <trkpt lat="28.95616" lon="-13.70928">
        <ele>410.2</ele>
        <time>2021-07-03 20:54:25</time>
      </trkpt>
      <trkpt lat="28.95615" lon="-13.7093">
        <ele>410.4</ele>
        <time>2021-07-03 20:54:26</time>
      </trkpt>
      <trkpt lat="28.95615" lon="-13.70931">
        <ele>410.8</ele>
        <time>2021-07-03 20:54:27</time>
      </trkpt>
      <trkpt lat="28.95615" lon="-13.70932">
        <ele>410.8</ele>
        <time>2021-07-03 20:54:28</time>
      </trkpt>
      <trkpt lat="28.95614" lon="-13.70933">
        <ele>411.2</ele>
        <time>2021-07-03 20:54:29</time>
      </trkpt>
      <trkpt lat="28.95614" lon="-13.70934">
        <ele>411.2</ele>
        <time>2021-07-03 20:54:30</time>
      </trkpt>
      <trkpt lat="28.95613" lon="-13.70935">
        <ele>411.4</ele>
        <time>2021-07-03 20:54:31</time>
      </trkpt>
      <trkpt lat="28.95613" lon="-13.70936">
        <ele>411.4</ele>
        <time>2021-07-03 20:54:32</time>
      </trkpt>
      <trkpt lat="28.95613" lon="-13.70937">
        <ele>411.4</ele>
        <time>2021-07-03 20:54:33</time>
      </trkpt>
      <trkpt lat="28.95613" lon="-13.70938">
        <ele>411.4</ele>
        <time>2021-07-03 20:54:34</time>
      </trkpt>
      <trkpt lat="28.95612" lon="-13.70939">
        <ele>411.2</ele>
        <time>2021-07-03 20:54:35</time>
      </trkpt>
      <trkpt lat="28.95612" lon="-13.7094">
        <ele>411.2</ele>
        <time>2021-07-03 20:54:36</time>
      </trkpt>
      <trkpt lat="28.95612" lon="-13.70942">
        <ele>411.2</ele>
        <time>2021-07-03 20:54:37</time>
      </trkpt>
      <trkpt lat="28.95612" lon="-13.70943">
        <ele>411.2</ele>
        <time>2021-07-03 20:54:38</time>
      </trkpt>
      <trkpt lat="28.95611" lon="-13.70944">
        <ele>411.4</ele>
        <time>2021-07-03 20:54:39</time>
      </trkpt>
      <trkpt lat="28.95611" lon="-13.70946">
        <ele>411.4</ele>
        <time>2021-07-03 20:54:40</time>
      </trkpt>
      <trkpt lat="28.9561" lon="-13.70947">
        <ele>411.4</ele>
        <time>2021-07-03 20:54:41</time>
      </trkpt>
      <trkpt lat="28.95609" lon="-13.70948">
        <ele>411.8</ele>
        <time>2021-07-03 20:54:42</time>
      </trkpt>
      <trkpt lat="28.95609" lon="-13.7095">
        <ele>411.8</ele>
        <time>2021-07-03 20:54:43</time>
      </trkpt>
      <trkpt lat="28.95609" lon="-13.70951">
        <ele>411.8</ele>
        <time>2021-07-03 20:54:44</time>
      </trkpt>
      <trkpt lat="28.95609" lon="-13.70952">
        <ele>411.8</ele>
        <time>2021-07-03 20:54:45</time>
      </trkpt>
      <trkpt lat="28.95609" lon="-13.70953">
        <ele>411.8</ele>
        <time>2021-07-03 20:54:46</time>
      </trkpt>
      <trkpt lat="28.95608" lon="-13.70954">
        <ele>412</ele>
        <time>2021-07-03 20:54:47</time>
      </trkpt>
      <trkpt lat="28.95608" lon="-13.70954">
        <ele>412</ele>
        <time>2021-07-03 20:54:48</time>
      </trkpt>
      <trkpt lat="28.95608" lon="-13.70954">
        <ele>412</ele>
        <time>2021-07-03 20:54:49</time>
      </trkpt>
      <trkpt lat="28.95608" lon="-13.70954">
        <ele>412</ele>
        <time>2021-07-03 20:54:50</time>
      </trkpt>
      <trkpt lat="28.95607" lon="-13.70956">
        <ele>411.4</ele>
        <time>2021-07-03 20:54:51</time>
      </trkpt>
      <trkpt lat="28.95606" lon="-13.70958">
        <ele>411.2</ele>
        <time>2021-07-03 20:54:52</time>
      </trkpt>
      <trkpt lat="28.95606" lon="-13.7096">
        <ele>411.2</ele>
        <time>2021-07-03 20:54:53</time>
      </trkpt>
      <trkpt lat="28.95605" lon="-13.70963">
        <ele>411.2</ele>
        <time>2021-07-03 20:54:54</time>
      </trkpt>
      <trkpt lat="28.95604" lon="-13.70965">
        <ele>411.2</ele>
        <time>2021-07-03 20:54:55</time>
      </trkpt>
      <trkpt lat="28.95603" lon="-13.70968">
        <ele>411.4</ele>
        <time>2021-07-03 20:54:56</time>
      </trkpt>
      <trkpt lat="28.95602" lon="-13.70971">
        <ele>411.6</ele>
        <time>2021-07-03 20:54:57</time>
      </trkpt>
      <trkpt lat="28.95601" lon="-13.70974">
        <ele>411.6</ele>
        <time>2021-07-03 20:54:58</time>
      </trkpt>
      <trkpt lat="28.956" lon="-13.70977">
        <ele>412</ele>
        <time>2021-07-03 20:55:01</time>
      </trkpt>
      <trkpt lat="28.95599" lon="-13.7098">
        <ele>412.2</ele>
        <time>2021-07-03 20:55:02</time>
      </trkpt>
      <trkpt lat="28.95598" lon="-13.70983">
        <ele>412.4</ele>
        <time>2021-07-03 20:55:03</time>
      </trkpt>
      <trkpt lat="28.95597" lon="-13.70985">
        <ele>412.4</ele>
        <time>2021-07-03 20:55:04</time>
      </trkpt>
      <trkpt lat="28.95596" lon="-13.70988">
        <ele>412.8</ele>
        <time>2021-07-03 20:55:05</time>
      </trkpt>
      <trkpt lat="28.95595" lon="-13.70991">
        <ele>413</ele>
        <time>2021-07-03 20:55:06</time>
      </trkpt>
      <trkpt lat="28.95595" lon="-13.70994">
        <ele>413</ele>
        <time>2021-07-03 20:55:07</time>
      </trkpt>
      <trkpt lat="28.95594" lon="-13.70997">
        <ele>413.2</ele>
        <time>2021-07-03 20:55:08</time>
      </trkpt>
      <trkpt lat="28.95593" lon="-13.71">
        <ele>413.2</ele>
        <time>2021-07-03 20:55:09</time>
      </trkpt>
      <trkpt lat="28.95593" lon="-13.71003">
        <ele>413.4</ele>
        <time>2021-07-03 20:55:10</time>
      </trkpt>
      <trkpt lat="28.95592" lon="-13.71007">
        <ele>413.4</ele>
        <time>2021-07-03 20:55:11</time>
      </trkpt>
      <trkpt lat="28.95592" lon="-13.7101">
        <ele>413.8</ele>
        <time>2021-07-03 20:55:12</time>
      </trkpt>
      <trkpt lat="28.95591" lon="-13.71013">
        <ele>413.8</ele>
        <time>2021-07-03 20:55:13</time>
      </trkpt>
      <trkpt lat="28.95591" lon="-13.71016">
        <ele>414.2</ele>
        <time>2021-07-03 20:55:14</time>
      </trkpt>
      <trkpt lat="28.9559" lon="-13.71019">
        <ele>414.2</ele>
        <time>2021-07-03 20:55:15</time>
      </trkpt>
      <trkpt lat="28.9559" lon="-13.71022">
        <ele>414.4</ele>
        <time>2021-07-03 20:55:16</time>
      </trkpt>
      <trkpt lat="28.9559" lon="-13.71025">
        <ele>414.4</ele>
        <time>2021-07-03 20:55:17</time>
      </trkpt>
      <trkpt lat="28.95589" lon="-13.71028">
        <ele>414.6</ele>
        <time>2021-07-03 20:55:18</time>
      </trkpt>
      <trkpt lat="28.95589" lon="-13.71031">
        <ele>414.6</ele>
        <time>2021-07-03 20:55:19</time>
      </trkpt>
      <trkpt lat="28.95589" lon="-13.71034">
        <ele>414.6</ele>
        <time>2021-07-03 20:55:20</time>
      </trkpt>
      <trkpt lat="28.95588" lon="-13.71037">
        <ele>414.6</ele>
        <time>2021-07-03 20:55:21</time>
      </trkpt>
      <trkpt lat="28.95588" lon="-13.71039">
        <ele>414.6</ele>
        <time>2021-07-03 20:55:22</time>
      </trkpt>
      <trkpt lat="28.95588" lon="-13.71042">
        <ele>414.6</ele>
        <time>2021-07-03 20:55:23</time>
      </trkpt>
      <trkpt lat="28.95588" lon="-13.71045">
        <ele>414.8</ele>
        <time>2021-07-03 20:55:24</time>
      </trkpt>
      <trkpt lat="28.95587" lon="-13.71047">
        <ele>414.8</ele>
        <time>2021-07-03 20:55:25</time>
      </trkpt>
      <trkpt lat="28.95587" lon="-13.71051">
        <ele>414.8</ele>
        <time>2021-07-03 20:55:26</time>
      </trkpt>
      <trkpt lat="28.95587" lon="-13.71054">
        <ele>414.8</ele>
        <time>2021-07-03 20:55:27</time>
      </trkpt>
      <trkpt lat="28.95586" lon="-13.71058">
        <ele>414.6</ele>
        <time>2021-07-03 20:55:28</time>
      </trkpt>
      <trkpt lat="28.95586" lon="-13.71063">
        <ele>414.6</ele>
        <time>2021-07-03 20:55:29</time>
      </trkpt>
      <trkpt lat="28.95586" lon="-13.71067">
        <ele>414.4</ele>
        <time>2021-07-03 20:55:30</time>
      </trkpt>
      <trkpt lat="28.95586" lon="-13.71072">
        <ele>414.4</ele>
        <time>2021-07-03 20:55:31</time>
      </trkpt>
      <trkpt lat="28.95586" lon="-13.71076">
        <ele>414.4</ele>
        <time>2021-07-03 20:55:32</time>
      </trkpt>
      <trkpt lat="28.95586" lon="-13.7108">
        <ele>414.4</ele>
        <time>2021-07-03 20:55:33</time>
      </trkpt>
      <trkpt lat="28.95585" lon="-13.71084">
        <ele>414.4</ele>
        <time>2021-07-03 20:55:34</time>
      </trkpt>
      <trkpt lat="28.95585" lon="-13.71088">
        <ele>414.4</ele>
        <time>2021-07-03 20:55:35</time>
      </trkpt>
      <trkpt lat="28.95585" lon="-13.71092">
        <ele>414.6</ele>
        <time>2021-07-03 20:55:36</time>
      </trkpt>
      <trkpt lat="28.95584" lon="-13.71096">
        <ele>414.6</ele>
        <time>2021-07-03 20:55:37</time>
      </trkpt>
      <trkpt lat="28.95584" lon="-13.711">
        <ele>414.6</ele>
        <time>2021-07-03 20:55:38</time>
      </trkpt>
      <trkpt lat="28.95584" lon="-13.71104">
        <ele>414.8</ele>
        <time>2021-07-03 20:55:39</time>
      </trkpt>
      <trkpt lat="28.95584" lon="-13.71107">
        <ele>414.8</ele>
        <time>2021-07-03 20:55:40</time>
      </trkpt>
      <trkpt lat="28.95584" lon="-13.71111">
        <ele>414.8</ele>
        <time>2021-07-03 20:55:41</time>
      </trkpt>
      <trkpt lat="28.95584" lon="-13.71115">
        <ele>414.8</ele>
        <time>2021-07-03 20:55:42</time>
      </trkpt>
      <trkpt lat="28.95584" lon="-13.71119">
        <ele>414.8</ele>
        <time>2021-07-03 20:55:43</time>
      </trkpt>
      <trkpt lat="28.95585" lon="-13.71122">
        <ele>414.8</ele>
        <time>2021-07-03 20:55:44</time>
      </trkpt>
      <trkpt lat="28.95585" lon="-13.71126">
        <ele>414.8</ele>
        <time>2021-07-03 20:55:45</time>
      </trkpt>
      <trkpt lat="28.95586" lon="-13.7113">
        <ele>414.8</ele>
        <time>2021-07-03 20:55:46</time>
      </trkpt>
      <trkpt lat="28.95587" lon="-13.71134">
        <ele>414.6</ele>
        <time>2021-07-03 20:55:47</time>
      </trkpt>
      <trkpt lat="28.95588" lon="-13.71139">
        <ele>414.4</ele>
        <time>2021-07-03 20:55:48</time>
      </trkpt>
      <trkpt lat="28.95589" lon="-13.71143">
        <ele>414</ele>
        <time>2021-07-03 20:55:49</time>
      </trkpt>
      <trkpt lat="28.95589" lon="-13.71147">
        <ele>413.8</ele>
        <time>2021-07-03 20:55:50</time>
      </trkpt>
      <trkpt lat="28.9559" lon="-13.71151">
        <ele>413.6</ele>
        <time>2021-07-03 20:55:51</time>
      </trkpt>
      <trkpt lat="28.9559" lon="-13.71153">
        <ele>413.4</ele>
        <time>2021-07-03 20:55:52</time>
      </trkpt>
      <trkpt lat="28.9559" lon="-13.71154">
        <ele>413.2</ele>
        <time>2021-07-03 20:55:53</time>
      </trkpt>
      <trkpt lat="28.9559" lon="-13.71154">
        <ele>413</ele>
        <time>2021-07-03 20:55:54</time>
      </trkpt>
      <trkpt lat="28.9559" lon="-13.71154">
        <ele>412.6</ele>
        <time>2021-07-03 20:55:55</time>
      </trkpt>
      <trkpt lat="28.95591" lon="-13.71154">
        <ele>412.6</ele>
        <time>2021-07-03 20:55:56</time>
      </trkpt>
      <trkpt lat="28.95591" lon="-13.71159">
        <ele>410.6</ele>
        <time>2021-07-03 20:55:57</time>
      </trkpt>
      <trkpt lat="28.95591" lon="-13.71162">
        <ele>410.6</ele>
        <time>2021-07-03 20:55:58</time>
      </trkpt>
      <trkpt lat="28.95592" lon="-13.71166">
        <ele>410.6</ele>
        <time>2021-07-03 20:55:59</time>
      </trkpt>
      <trkpt lat="28.95593" lon="-13.71171">
        <ele>410.4</ele>
        <time>2021-07-03 20:56:00</time>
      </trkpt>
      <trkpt lat="28.95594" lon="-13.71175">
        <ele>410.4</ele>
        <time>2021-07-03 20:56:01</time>
      </trkpt>
      <trkpt lat="28.95595" lon="-13.71181">
        <ele>410</ele>
        <time>2021-07-03 20:56:02</time>
      </trkpt>
      <trkpt lat="28.95597" lon="-13.71186">
        <ele>409.6</ele>
        <time>2021-07-03 20:56:03</time>
      </trkpt>
      <trkpt lat="28.95599" lon="-13.71192">
        <ele>409.2</ele>
        <time>2021-07-03 20:56:04</time>
      </trkpt>
      <trkpt lat="28.95601" lon="-13.71196">
        <ele>408.6</ele>
        <time>2021-07-03 20:56:05</time>
      </trkpt>
      <trkpt lat="28.95603" lon="-13.71202">
        <ele>408</ele>
        <time>2021-07-03 20:56:06</time>
      </trkpt>
      <trkpt lat="28.95606" lon="-13.71206">
        <ele>407.4</ele>
        <time>2021-07-03 20:56:07</time>
      </trkpt>
      <trkpt lat="28.95608" lon="-13.71211">
        <ele>406.8</ele>
        <time>2021-07-03 20:56:08</time>
      </trkpt>
      <trkpt lat="28.95609" lon="-13.71217">
        <ele>406.2</ele>
        <time>2021-07-03 20:56:09</time>
      </trkpt>
      <trkpt lat="28.95611" lon="-13.71223">
        <ele>405.8</ele>
        <time>2021-07-03 20:56:10</time>
      </trkpt>
      <trkpt lat="28.95611" lon="-13.71228">
        <ele>405</ele>
        <time>2021-07-03 20:56:11</time>
      </trkpt>
      <trkpt lat="28.95612" lon="-13.71234">
        <ele>404.4</ele>
        <time>2021-07-03 20:56:12</time>
      </trkpt>
      <trkpt lat="28.95612" lon="-13.71238">
        <ele>403.8</ele>
        <time>2021-07-03 20:56:13</time>
      </trkpt>
      <trkpt lat="28.95613" lon="-13.71242">
        <ele>403.2</ele>
        <time>2021-07-03 20:56:14</time>
      </trkpt>
      <trkpt lat="28.95614" lon="-13.71247">
        <ele>402.6</ele>
        <time>2021-07-03 20:56:15</time>
      </trkpt>
      <trkpt lat="28.95615" lon="-13.71251">
        <ele>402.4</ele>
        <time>2021-07-03 20:56:16</time>
      </trkpt>
      <trkpt lat="28.95616" lon="-13.71255">
        <ele>401.8</ele>
        <time>2021-07-03 20:56:17</time>
      </trkpt>
      <trkpt lat="28.95618" lon="-13.71259">
        <ele>401.4</ele>
        <time>2021-07-03 20:56:18</time>
      </trkpt>
      <trkpt lat="28.9562" lon="-13.71264">
        <ele>401</ele>
        <time>2021-07-03 20:56:19</time>
      </trkpt>
      <trkpt lat="28.95621" lon="-13.71267">
        <ele>400.4</ele>
        <time>2021-07-03 20:56:20</time>
      </trkpt>
      <trkpt lat="28.95623" lon="-13.7127">
        <ele>400</ele>
        <time>2021-07-03 20:56:21</time>
      </trkpt>
      <trkpt lat="28.95624" lon="-13.71272">
        <ele>399.6</ele>
        <time>2021-07-03 20:56:22</time>
      </trkpt>
      <trkpt lat="28.95625" lon="-13.71276">
        <ele>399.2</ele>
        <time>2021-07-03 20:56:23</time>
      </trkpt>
      <trkpt lat="28.95626" lon="-13.71279">
        <ele>399</ele>
        <time>2021-07-03 20:56:24</time>
      </trkpt>
      <trkpt lat="28.95627" lon="-13.71282">
        <ele>399</ele>
        <time>2021-07-03 20:56:25</time>
      </trkpt>
      <trkpt lat="28.95627" lon="-13.71285">
        <ele>398.6</ele>
        <time>2021-07-03 20:56:26</time>
      </trkpt>
      <trkpt lat="28.95626" lon="-13.71288">
        <ele>398.4</ele>
        <time>2021-07-03 20:56:27</time>
      </trkpt>
      <trkpt lat="28.95626" lon="-13.71292">
        <ele>398.2</ele>
        <time>2021-07-03 20:56:28</time>
      </trkpt>
      <trkpt lat="28.95627" lon="-13.71296">
        <ele>398.2</ele>
        <time>2021-07-03 20:56:29</time>
      </trkpt>
      <trkpt lat="28.95627" lon="-13.713">
        <ele>397.8</ele>
        <time>2021-07-03 20:56:36</time>
      </trkpt>
      <trkpt lat="28.95627" lon="-13.71305">
        <ele>397.6</ele>
        <time>2021-07-03 20:56:37</time>
      </trkpt>
      <trkpt lat="28.95627" lon="-13.71309">
        <ele>397.2</ele>
        <time>2021-07-03 20:56:38</time>
      </trkpt>
      <trkpt lat="28.95626" lon="-13.71314">
        <ele>396.8</ele>
        <time>2021-07-03 20:56:39</time>
      </trkpt>
      <trkpt lat="28.95624" lon="-13.71319">
        <ele>396.4</ele>
        <time>2021-07-03 20:56:40</time>
      </trkpt>
      <trkpt lat="28.95623" lon="-13.71325">
        <ele>396</ele>
        <time>2021-07-03 20:56:41</time>
      </trkpt>
      <trkpt lat="28.95621" lon="-13.71331">
        <ele>395.6</ele>
        <time>2021-07-03 20:56:42</time>
      </trkpt>
      <trkpt lat="28.95621" lon="-13.71336">
        <ele>395.2</ele>
        <time>2021-07-03 20:56:43</time>
      </trkpt>
      <trkpt lat="28.95621" lon="-13.71342">
        <ele>395</ele>
        <time>2021-07-03 20:56:44</time>
      </trkpt>
      <trkpt lat="28.95622" lon="-13.71347">
        <ele>394.6</ele>
        <time>2021-07-03 20:56:45</time>
      </trkpt>
      <trkpt lat="28.95623" lon="-13.71351">
        <ele>394.2</ele>
        <time>2021-07-03 20:56:46</time>
      </trkpt>
      <trkpt lat="28.95624" lon="-13.71355">
        <ele>394</ele>
        <time>2021-07-03 20:56:47</time>
      </trkpt>
      <trkpt lat="28.95625" lon="-13.71359">
        <ele>393.8</ele>
        <time>2021-07-03 20:56:48</time>
      </trkpt>
      <trkpt lat="28.95627" lon="-13.71362">
        <ele>393.8</ele>
        <time>2021-07-03 20:56:49</time>
      </trkpt>
      <trkpt lat="28.95628" lon="-13.71365">
        <ele>393.4</ele>
        <time>2021-07-03 20:56:50</time>
      </trkpt>
      <trkpt lat="28.9563" lon="-13.71369">
        <ele>393.4</ele>
        <time>2021-07-03 20:56:51</time>
      </trkpt>
      <trkpt lat="28.95631" lon="-13.71372">
        <ele>393</ele>
        <time>2021-07-03 20:56:52</time>
      </trkpt>
      <trkpt lat="28.95633" lon="-13.71376">
        <ele>392.6</ele>
        <time>2021-07-03 20:56:53</time>
      </trkpt>
      <trkpt lat="28.95636" lon="-13.71379">
        <ele>392.4</ele>
        <time>2021-07-03 20:56:54</time>
      </trkpt>
      <trkpt lat="28.95638" lon="-13.71382">
        <ele>392</ele>
        <time>2021-07-03 20:56:55</time>
      </trkpt>
      <trkpt lat="28.9564" lon="-13.71387">
        <ele>391.8</ele>
        <time>2021-07-03 20:56:56</time>
      </trkpt>
      <trkpt lat="28.95642" lon="-13.71391">
        <ele>391.6</ele>
        <time>2021-07-03 20:56:57</time>
      </trkpt>
      <trkpt lat="28.95644" lon="-13.71396">
        <ele>391.2</ele>
        <time>2021-07-03 20:56:58</time>
      </trkpt>
      <trkpt lat="28.95646" lon="-13.71401">
        <ele>390.8</ele>
        <time>2021-07-03 20:56:59</time>
      </trkpt>
      <trkpt lat="28.95647" lon="-13.71406">
        <ele>390.4</ele>
        <time>2021-07-03 20:57:00</time>
      </trkpt>
      <trkpt lat="28.95649" lon="-13.71412">
        <ele>390</ele>
        <time>2021-07-03 20:57:01</time>
      </trkpt>
      <trkpt lat="28.9565" lon="-13.71417">
        <ele>389.6</ele>
        <time>2021-07-03 20:57:02</time>
      </trkpt>
      <trkpt lat="28.95652" lon="-13.71422">
        <ele>389.2</ele>
        <time>2021-07-03 20:57:03</time>
      </trkpt>
      <trkpt lat="28.95654" lon="-13.71429">
        <ele>388.6</ele>
        <time>2021-07-03 20:57:04</time>
      </trkpt>
      <trkpt lat="28.95655" lon="-13.71436">
        <ele>388.2</ele>
        <time>2021-07-03 20:57:05</time>
      </trkpt>
      <trkpt lat="28.95656" lon="-13.71442">
        <ele>387.6</ele>
        <time>2021-07-03 20:57:06</time>
      </trkpt>
      <trkpt lat="28.95657" lon="-13.71448">
        <ele>387</ele>
        <time>2021-07-03 20:57:07</time>
      </trkpt>
      <trkpt lat="28.95657" lon="-13.71453">
        <ele>386.4</ele>
        <time>2021-07-03 20:57:08</time>
      </trkpt>
      <trkpt lat="28.95656" lon="-13.71457">
        <ele>386</ele>
        <time>2021-07-03 20:57:09</time>
      </trkpt>
      <trkpt lat="28.95656" lon="-13.71462">
        <ele>385.6</ele>
        <time>2021-07-03 20:57:10</time>
      </trkpt>
      <trkpt lat="28.95655" lon="-13.71466">
        <ele>385</ele>
        <time>2021-07-03 20:57:11</time>
      </trkpt>
      <trkpt lat="28.95653" lon="-13.7147">
        <ele>384.6</ele>
        <time>2021-07-03 20:57:12</time>
      </trkpt>
      <trkpt lat="28.95652" lon="-13.71474">
        <ele>384</ele>
        <time>2021-07-03 20:57:13</time>
      </trkpt>
      <trkpt lat="28.95649" lon="-13.71478">
        <ele>383.2</ele>
        <time>2021-07-03 20:57:14</time>
      </trkpt>
      <trkpt lat="28.95647" lon="-13.71481">
        <ele>382.6</ele>
        <time>2021-07-03 20:57:15</time>
      </trkpt>
      <trkpt lat="28.95644" lon="-13.71485">
        <ele>381.8</ele>
        <time>2021-07-03 20:57:16</time>
      </trkpt>
      <trkpt lat="28.95642" lon="-13.71489">
        <ele>381</ele>
        <time>2021-07-03 20:57:17</time>
      </trkpt>
      <trkpt lat="28.9564" lon="-13.71494">
        <ele>380.4</ele>
        <time>2021-07-03 20:57:18</time>
      </trkpt>
      <trkpt lat="28.95639" lon="-13.715">
        <ele>379.6</ele>
        <time>2021-07-03 20:57:19</time>
      </trkpt>
      <trkpt lat="28.9564" lon="-13.71504">
        <ele>379</ele>
        <time>2021-07-03 20:57:20</time>
      </trkpt>
      <trkpt lat="28.95641" lon="-13.71506">
        <ele>378.4</ele>
        <time>2021-07-03 20:57:21</time>
      </trkpt>
      <trkpt lat="28.95642" lon="-13.71507">
        <ele>377.8</ele>
        <time>2021-07-03 20:57:22</time>
      </trkpt>
      <trkpt lat="28.95643" lon="-13.71509">
        <ele>377.4</ele>
        <time>2021-07-03 20:57:23</time>
      </trkpt>
      <trkpt lat="28.95644" lon="-13.7151">
        <ele>377</ele>
        <time>2021-07-03 20:57:24</time>
      </trkpt>
      <trkpt lat="28.95645" lon="-13.71511">
        <ele>376.6</ele>
        <time>2021-07-03 20:57:25</time>
      </trkpt>
      <trkpt lat="28.95646" lon="-13.71513">
        <ele>376.4</ele>
        <time>2021-07-03 20:57:26</time>
      </trkpt>
      <trkpt lat="28.95648" lon="-13.71515">
        <ele>376</ele>
        <time>2021-07-03 20:57:27</time>
      </trkpt>
      <trkpt lat="28.9565" lon="-13.71517">
        <ele>375.8</ele>
        <time>2021-07-03 20:57:28</time>
      </trkpt>
      <trkpt lat="28.9565" lon="-13.71518">
        <ele>375.6</ele>
        <time>2021-07-03 20:57:29</time>
      </trkpt>
      <trkpt lat="28.9565" lon="-13.71518">
        <ele>375.2</ele>
        <time>2021-07-03 20:57:30</time>
      </trkpt>
      <trkpt lat="28.9565" lon="-13.71518">
        <ele>375</ele>
        <time>2021-07-03 20:57:31</time>
      </trkpt>
      <trkpt lat="28.95651" lon="-13.71518">
        <ele>374.8</ele>
        <time>2021-07-03 20:57:32</time>
      </trkpt>
      <trkpt lat="28.95652" lon="-13.71518">
        <ele>373.2</ele>
        <time>2021-07-03 20:57:33</time>
      </trkpt>
      <trkpt lat="28.95652" lon="-13.71518">
        <ele>373.2</ele>
        <time>2021-07-03 20:57:34</time>
      </trkpt>
      <trkpt lat="28.95652" lon="-13.71518">
        <ele>373.2</ele>
        <time>2021-07-03 20:57:35</time>
      </trkpt>
      <trkpt lat="28.95652" lon="-13.71521">
        <ele>373.4</ele>
        <time>2021-07-03 20:57:36</time>
      </trkpt>
      <trkpt lat="28.95654" lon="-13.71523">
        <ele>373.4</ele>
        <time>2021-07-03 20:57:37</time>
      </trkpt>
      <trkpt lat="28.95655" lon="-13.71524">
        <ele>373.4</ele>
        <time>2021-07-03 20:57:38</time>
      </trkpt>
      <trkpt lat="28.95656" lon="-13.71526">
        <ele>373</ele>
        <time>2021-07-03 20:57:39</time>
      </trkpt>
      <trkpt lat="28.95658" lon="-13.71529">
        <ele>372.8</ele>
        <time>2021-07-03 20:57:40</time>
      </trkpt>
      <trkpt lat="28.95659" lon="-13.71531">
        <ele>372.4</ele>
        <time>2021-07-03 20:57:41</time>
      </trkpt>
      <trkpt lat="28.95661" lon="-13.71534">
        <ele>372.2</ele>
        <time>2021-07-03 20:57:49</time>
      </trkpt>
      <trkpt lat="28.95662" lon="-13.71537">
        <ele>371.8</ele>
        <time>2021-07-03 20:57:50</time>
      </trkpt>
      <trkpt lat="28.95664" lon="-13.7154">
        <ele>371.6</ele>
        <time>2021-07-03 20:57:51</time>
      </trkpt>
      <trkpt lat="28.95665" lon="-13.71544">
        <ele>371.2</ele>
        <time>2021-07-03 20:57:52</time>
      </trkpt>
      <trkpt lat="28.95667" lon="-13.71549">
        <ele>371</ele>
        <time>2021-07-03 20:57:53</time>
      </trkpt>
      <trkpt lat="28.95668" lon="-13.71553">
        <ele>371</ele>
        <time>2021-07-03 20:57:54</time>
      </trkpt>
      <trkpt lat="28.95668" lon="-13.71559">
        <ele>370.8</ele>
        <time>2021-07-03 20:57:55</time>
      </trkpt>
      <trkpt lat="28.95669" lon="-13.71564">
        <ele>370.6</ele>
        <time>2021-07-03 20:57:56</time>
      </trkpt>
      <trkpt lat="28.95669" lon="-13.71568">
        <ele>370.2</ele>
        <time>2021-07-03 20:57:57</time>
      </trkpt>
      <trkpt lat="28.9567" lon="-13.71572">
        <ele>370.2</ele>
        <time>2021-07-03 20:57:58</time>
      </trkpt>
      <trkpt lat="28.95671" lon="-13.71577">
        <ele>369.8</ele>
        <time>2021-07-03 20:57:59</time>
      </trkpt>
      <trkpt lat="28.95672" lon="-13.71581">
        <ele>369.6</ele>
        <time>2021-07-03 20:58:00</time>
      </trkpt>
      <trkpt lat="28.95673" lon="-13.71585">
        <ele>369.2</ele>
        <time>2021-07-03 20:58:01</time>
      </trkpt>
      <trkpt lat="28.95675" lon="-13.71589">
        <ele>368.8</ele>
        <time>2021-07-03 20:58:02</time>
      </trkpt>
      <trkpt lat="28.95677" lon="-13.71593">
        <ele>368.4</ele>
        <time>2021-07-03 20:58:03</time>
      </trkpt>
      <trkpt lat="28.95678" lon="-13.71597">
        <ele>368</ele>
        <time>2021-07-03 20:58:04</time>
      </trkpt>
      <trkpt lat="28.9568" lon="-13.716">
        <ele>367.6</ele>
        <time>2021-07-03 20:58:05</time>
      </trkpt>
      <trkpt lat="28.95682" lon="-13.71604">
        <ele>367</ele>
        <time>2021-07-03 20:58:06</time>
      </trkpt>
      <trkpt lat="28.95685" lon="-13.71607">
        <ele>366.6</ele>
        <time>2021-07-03 20:58:07</time>
      </trkpt>
      <trkpt lat="28.95687" lon="-13.71611">
        <ele>365.8</ele>
        <time>2021-07-03 20:58:08</time>
      </trkpt>
      <trkpt lat="28.95689" lon="-13.71616">
        <ele>365.2</ele>
        <time>2021-07-03 20:58:09</time>
      </trkpt>
      <trkpt lat="28.95691" lon="-13.7162">
        <ele>364.4</ele>
        <time>2021-07-03 20:58:10</time>
      </trkpt>
      <trkpt lat="28.95692" lon="-13.71625">
        <ele>363.8</ele>
        <time>2021-07-03 20:58:11</time>
      </trkpt>
      <trkpt lat="28.95694" lon="-13.71631">
        <ele>363</ele>
        <time>2021-07-03 20:58:12</time>
      </trkpt>
      <trkpt lat="28.95695" lon="-13.71636">
        <ele>362.6</ele>
        <time>2021-07-03 20:58:13</time>
      </trkpt>
      <trkpt lat="28.95697" lon="-13.71641">
        <ele>362</ele>
        <time>2021-07-03 20:58:14</time>
      </trkpt>
      <trkpt lat="28.95698" lon="-13.71646">
        <ele>361.4</ele>
        <time>2021-07-03 20:58:15</time>
      </trkpt>
      <trkpt lat="28.95699" lon="-13.71652">
        <ele>360.8</ele>
        <time>2021-07-03 20:58:16</time>
      </trkpt>
      <trkpt lat="28.957" lon="-13.71658">
        <ele>360.2</ele>
        <time>2021-07-03 20:58:17</time>
      </trkpt>
      <trkpt lat="28.95701" lon="-13.71663">
        <ele>359.8</ele>
        <time>2021-07-03 20:58:18</time>
      </trkpt>
      <trkpt lat="28.95703" lon="-13.71668">
        <ele>359</ele>
        <time>2021-07-03 20:58:19</time>
      </trkpt>
      <trkpt lat="28.95704" lon="-13.71674">
        <ele>358.6</ele>
        <time>2021-07-03 20:58:20</time>
      </trkpt>
      <trkpt lat="28.95705" lon="-13.71679">
        <ele>358</ele>
        <time>2021-07-03 20:58:21</time>
      </trkpt>
      <trkpt lat="28.95705" lon="-13.71684">
        <ele>357.2</ele>
        <time>2021-07-03 20:58:22</time>
      </trkpt>
      <trkpt lat="28.95706" lon="-13.71688">
        <ele>356.8</ele>
        <time>2021-07-03 20:58:23</time>
      </trkpt>
      <trkpt lat="28.95706" lon="-13.71692">
        <ele>356.2</ele>
        <time>2021-07-03 20:58:24</time>
      </trkpt>
      <trkpt lat="28.95706" lon="-13.71697">
        <ele>355.6</ele>
        <time>2021-07-03 20:58:25</time>
      </trkpt>
      <trkpt lat="28.95707" lon="-13.71701">
        <ele>355</ele>
        <time>2021-07-03 20:58:26</time>
      </trkpt>
      <trkpt lat="28.95708" lon="-13.71705">
        <ele>354.4</ele>
        <time>2021-07-03 20:58:27</time>
      </trkpt>
      <trkpt lat="28.95709" lon="-13.71709">
        <ele>353.8</ele>
        <time>2021-07-03 20:58:28</time>
      </trkpt>
      <trkpt lat="28.9571" lon="-13.71714">
        <ele>353.4</ele>
        <time>2021-07-03 20:58:29</time>
      </trkpt>
      <trkpt lat="28.95711" lon="-13.71718">
        <ele>352.8</ele>
        <time>2021-07-03 20:58:30</time>
      </trkpt>
      <trkpt lat="28.95712" lon="-13.71723">
        <ele>352.4</ele>
        <time>2021-07-03 20:58:31</time>
      </trkpt>
      <trkpt lat="28.95713" lon="-13.71728">
        <ele>351.8</ele>
        <time>2021-07-03 20:58:32</time>
      </trkpt>
      <trkpt lat="28.95714" lon="-13.71733">
        <ele>351.2</ele>
        <time>2021-07-03 20:58:33</time>
      </trkpt>
      <trkpt lat="28.95715" lon="-13.71738">
        <ele>350.6</ele>
        <time>2021-07-03 20:58:34</time>
      </trkpt>
      <trkpt lat="28.95716" lon="-13.71743">
        <ele>350</ele>
        <time>2021-07-03 20:58:35</time>
      </trkpt>
      <trkpt lat="28.95716" lon="-13.71748">
        <ele>349.4</ele>
        <time>2021-07-03 20:58:36</time>
      </trkpt>
      <trkpt lat="28.95717" lon="-13.71754">
        <ele>348.8</ele>
        <time>2021-07-03 20:58:37</time>
      </trkpt>
      <trkpt lat="28.95717" lon="-13.71759">
        <ele>348</ele>
        <time>2021-07-03 20:58:38</time>
      </trkpt>
      <trkpt lat="28.95718" lon="-13.71764">
        <ele>347.2</ele>
        <time>2021-07-03 20:58:39</time>
      </trkpt>
      <trkpt lat="28.95718" lon="-13.71769">
        <ele>346.4</ele>
        <time>2021-07-03 20:58:40</time>
      </trkpt>
      <trkpt lat="28.95717" lon="-13.71774">
        <ele>345.6</ele>
        <time>2021-07-03 20:58:41</time>
      </trkpt>
      <trkpt lat="28.95717" lon="-13.71778">
        <ele>344.8</ele>
        <time>2021-07-03 20:58:42</time>
      </trkpt>
      <trkpt lat="28.95718" lon="-13.71783">
        <ele>344</ele>
        <time>2021-07-03 20:58:43</time>
      </trkpt>
      <trkpt lat="28.95718" lon="-13.71787">
        <ele>343.2</ele>
        <time>2021-07-03 20:58:44</time>
      </trkpt>
      <trkpt lat="28.9572" lon="-13.71792">
        <ele>342.4</ele>
        <time>2021-07-03 20:58:45</time>
      </trkpt>
      <trkpt lat="28.95721" lon="-13.71797">
        <ele>341.4</ele>
        <time>2021-07-03 20:58:46</time>
      </trkpt>
      <trkpt lat="28.95722" lon="-13.71801">
        <ele>340.6</ele>
        <time>2021-07-03 20:58:47</time>
      </trkpt>
      <trkpt lat="28.95724" lon="-13.71806">
        <ele>339.8</ele>
        <time>2021-07-03 20:58:48</time>
      </trkpt>
      <trkpt lat="28.95725" lon="-13.7181">
        <ele>338.8</ele>
        <time>2021-07-03 20:58:49</time>
      </trkpt>
      <trkpt lat="28.95727" lon="-13.71815">
        <ele>337.8</ele>
        <time>2021-07-03 20:58:50</time>
      </trkpt>
      <trkpt lat="28.95729" lon="-13.7182">
        <ele>337</ele>
        <time>2021-07-03 20:58:51</time>
      </trkpt>
      <trkpt lat="28.95731" lon="-13.71825">
        <ele>336.2</ele>
        <time>2021-07-03 20:58:52</time>
      </trkpt>
      <trkpt lat="28.95732" lon="-13.71828">
        <ele>335.4</ele>
        <time>2021-07-03 20:59:20</time>
      </trkpt>
      <trkpt lat="28.95733" lon="-13.71833">
        <ele>334.4</ele>
        <time>2021-07-03 20:59:21</time>
      </trkpt>
      <trkpt lat="28.95734" lon="-13.71837">
        <ele>333.8</ele>
        <time>2021-07-03 20:59:22</time>
      </trkpt>
      <trkpt lat="28.95736" lon="-13.71841">
        <ele>333</ele>
        <time>2021-07-03 20:59:23</time>
      </trkpt>
      <trkpt lat="28.95737" lon="-13.71846">
        <ele>332.2</ele>
        <time>2021-07-03 20:59:24</time>
      </trkpt>
      <trkpt lat="28.95738" lon="-13.7185">
        <ele>331.4</ele>
        <time>2021-07-03 20:59:25</time>
      </trkpt>
      <trkpt lat="28.95739" lon="-13.71854">
        <ele>330.6</ele>
        <time>2021-07-03 20:59:26</time>
      </trkpt>
      <trkpt lat="28.95739" lon="-13.71859">
        <ele>330</ele>
        <time>2021-07-03 20:59:27</time>
      </trkpt>
      <trkpt lat="28.95741" lon="-13.71863">
        <ele>329.4</ele>
        <time>2021-07-03 20:59:28</time>
      </trkpt>
      <trkpt lat="28.95742" lon="-13.71867">
        <ele>328.8</ele>
        <time>2021-07-03 20:59:29</time>
      </trkpt>
      <trkpt lat="28.95743" lon="-13.71871">
        <ele>328.2</ele>
        <time>2021-07-03 20:59:30</time>
      </trkpt>
      <trkpt lat="28.95744" lon="-13.71875">
        <ele>327.4</ele>
        <time>2021-07-03 20:59:31</time>
      </trkpt>
      <trkpt lat="28.95745" lon="-13.71879">
        <ele>326.8</ele>
        <time>2021-07-03 20:59:32</time>
      </trkpt>
      <trkpt lat="28.95747" lon="-13.71882">
        <ele>326.2</ele>
        <time>2021-07-03 20:59:33</time>
      </trkpt>
      <trkpt lat="28.95748" lon="-13.71886">
        <ele>325.4</ele>
        <time>2021-07-03 20:59:34</time>
      </trkpt>
      <trkpt lat="28.9575" lon="-13.7189">
        <ele>324.8</ele>
        <time>2021-07-03 20:59:35</time>
      </trkpt>
      <trkpt lat="28.95751" lon="-13.71893">
        <ele>324.2</ele>
        <time>2021-07-03 20:59:36</time>
      </trkpt>
      <trkpt lat="28.95752" lon="-13.71896">
        <ele>323.6</ele>
        <time>2021-07-03 20:59:37</time>
      </trkpt>
      <trkpt lat="28.95754" lon="-13.71899">
        <ele>323</ele>
        <time>2021-07-03 20:59:38</time>
      </trkpt>
      <trkpt lat="28.95756" lon="-13.71903">
        <ele>322.2</ele>
        <time>2021-07-03 20:59:39</time>
      </trkpt>
      <trkpt lat="28.95758" lon="-13.71907">
        <ele>321.6</ele>
        <time>2021-07-03 20:59:40</time>
      </trkpt>
      <trkpt lat="28.9576" lon="-13.71911">
        <ele>320.8</ele>
        <time>2021-07-03 20:59:41</time>
      </trkpt>
      <trkpt lat="28.95762" lon="-13.71915">
        <ele>320.2</ele>
        <time>2021-07-03 20:59:42</time>
      </trkpt>
      <trkpt lat="28.95764" lon="-13.71919">
        <ele>319.8</ele>
        <time>2021-07-03 20:59:43</time>
      </trkpt>
      <trkpt lat="28.95766" lon="-13.71923">
        <ele>319.2</ele>
        <time>2021-07-03 20:59:44</time>
      </trkpt>
      <trkpt lat="28.95769" lon="-13.71927">
        <ele>318.6</ele>
        <time>2021-07-03 20:59:45</time>
      </trkpt>
      <trkpt lat="28.95771" lon="-13.71932">
        <ele>318</ele>
        <time>2021-07-03 20:59:46</time>
      </trkpt>
      <trkpt lat="28.95774" lon="-13.71937">
        <ele>317.6</ele>
        <time>2021-07-03 20:59:47</time>
      </trkpt>
      <trkpt lat="28.95776" lon="-13.71942">
        <ele>316.8</ele>
        <time>2021-07-03 20:59:48</time>
      </trkpt>
      <trkpt lat="28.95778" lon="-13.71947">
        <ele>316.4</ele>
        <time>2021-07-03 20:59:49</time>
      </trkpt>
      <trkpt lat="28.9578" lon="-13.71953">
        <ele>315.8</ele>
        <time>2021-07-03 20:59:50</time>
      </trkpt>
      <trkpt lat="28.95781" lon="-13.71957">
        <ele>315.2</ele>
        <time>2021-07-03 20:59:51</time>
      </trkpt>
      <trkpt lat="28.95782" lon="-13.71963">
        <ele>314.6</ele>
        <time>2021-07-03 20:59:52</time>
      </trkpt>
      <trkpt lat="28.95783" lon="-13.71967">
        <ele>314</ele>
        <time>2021-07-03 20:59:53</time>
      </trkpt>
      <trkpt lat="28.95784" lon="-13.71972">
        <ele>313.4</ele>
        <time>2021-07-03 20:59:54</time>
      </trkpt>
      <trkpt lat="28.95785" lon="-13.71977">
        <ele>312.8</ele>
        <time>2021-07-03 20:59:55</time>
      </trkpt>
      <trkpt lat="28.95787" lon="-13.71982">
        <ele>312.4</ele>
        <time>2021-07-03 20:59:56</time>
      </trkpt>
      <trkpt lat="28.95789" lon="-13.71987">
        <ele>311.8</ele>
        <time>2021-07-03 20:59:57</time>
      </trkpt>
      <trkpt lat="28.9579" lon="-13.71991">
        <ele>311.2</ele>
        <time>2021-07-03 20:59:58</time>
      </trkpt>
      <trkpt lat="28.95792" lon="-13.71996">
        <ele>310.8</ele>
        <time>2021-07-03 20:59:59</time>
      </trkpt>
      <trkpt lat="28.95794" lon="-13.72002">
        <ele>310.4</ele>
        <time>2021-07-03 21:00:00</time>
      </trkpt>
      <trkpt lat="28.95796" lon="-13.72007">
        <ele>309.8</ele>
        <time>2021-07-03 21:00:01</time>
      </trkpt>
      <trkpt lat="28.95798" lon="-13.72013">
        <ele>309.2</ele>
        <time>2021-07-03 21:00:02</time>
      </trkpt>
      <trkpt lat="28.958" lon="-13.72019">
        <ele>308.8</ele>
        <time>2021-07-03 21:00:03</time>
      </trkpt>
      <trkpt lat="28.95802" lon="-13.72024">
        <ele>308.4</ele>
        <time>2021-07-03 21:00:04</time>
      </trkpt>
      <trkpt lat="28.95804" lon="-13.72029">
        <ele>307.8</ele>
        <time>2021-07-03 21:00:05</time>
      </trkpt>
      <trkpt lat="28.95805" lon="-13.72034">
        <ele>307.4</ele>
        <time>2021-07-03 21:00:06</time>
      </trkpt>
      <trkpt lat="28.95806" lon="-13.72041">
        <ele>306.8</ele>
        <time>2021-07-03 21:00:07</time>
      </trkpt>
      <trkpt lat="28.95807" lon="-13.72047">
        <ele>306.4</ele>
        <time>2021-07-03 21:00:08</time>
      </trkpt>
      <trkpt lat="28.95808" lon="-13.72053">
        <ele>305.8</ele>
        <time>2021-07-03 21:00:09</time>
      </trkpt>
      <trkpt lat="28.95809" lon="-13.7206">
        <ele>305.4</ele>
        <time>2021-07-03 21:00:10</time>
      </trkpt>
      <trkpt lat="28.95809" lon="-13.72066">
        <ele>304.8</ele>
        <time>2021-07-03 21:00:11</time>
      </trkpt>
      <trkpt lat="28.95808" lon="-13.72072">
        <ele>304.2</ele>
        <time>2021-07-03 21:00:12</time>
      </trkpt>
      <trkpt lat="28.95809" lon="-13.72078">
        <ele>303.8</ele>
        <time>2021-07-03 21:00:13</time>
      </trkpt>
      <trkpt lat="28.95809" lon="-13.72084">
        <ele>303.2</ele>
        <time>2021-07-03 21:00:14</time>
      </trkpt>
      <trkpt lat="28.95809" lon="-13.72091">
        <ele>302.6</ele>
        <time>2021-07-03 21:00:15</time>
      </trkpt>
      <trkpt lat="28.95809" lon="-13.72098">
        <ele>302.2</ele>
        <time>2021-07-03 21:00:16</time>
      </trkpt>
      <trkpt lat="28.9581" lon="-13.72104">
        <ele>301.6</ele>
        <time>2021-07-03 21:00:17</time>
      </trkpt>
      <trkpt lat="28.9581" lon="-13.72111">
        <ele>301</ele>
        <time>2021-07-03 21:00:18</time>
      </trkpt>
      <trkpt lat="28.95811" lon="-13.72117">
        <ele>300.6</ele>
        <time>2021-07-03 21:00:19</time>
      </trkpt>
      <trkpt lat="28.95812" lon="-13.72123">
        <ele>300.2</ele>
        <time>2021-07-03 21:00:20</time>
      </trkpt>
      <trkpt lat="28.95814" lon="-13.72129">
        <ele>299.6</ele>
        <time>2021-07-03 21:00:21</time>
      </trkpt>
      <trkpt lat="28.95815" lon="-13.72135">
        <ele>299.4</ele>
        <time>2021-07-03 21:00:22</time>
      </trkpt>
      <trkpt lat="28.95817" lon="-13.7214">
        <ele>299</ele>
        <time>2021-07-03 21:00:23</time>
      </trkpt>
      <trkpt lat="28.95819" lon="-13.72146">
        <ele>298.8</ele>
        <time>2021-07-03 21:00:24</time>
      </trkpt>
      <trkpt lat="28.95822" lon="-13.72152">
        <ele>298.4</ele>
        <time>2021-07-03 21:00:25</time>
      </trkpt>
      <trkpt lat="28.95824" lon="-13.72158">
        <ele>298</ele>
        <time>2021-07-03 21:00:26</time>
      </trkpt>
      <trkpt lat="28.95825" lon="-13.72164">
        <ele>297.6</ele>
        <time>2021-07-03 21:00:27</time>
      </trkpt>
      <trkpt lat="28.95826" lon="-13.7217">
        <ele>297.4</ele>
        <time>2021-07-03 21:00:28</time>
      </trkpt>
      <trkpt lat="28.95827" lon="-13.72175">
        <ele>296.8</ele>
        <time>2021-07-03 21:00:29</time>
      </trkpt>
      <trkpt lat="28.95827" lon="-13.7218">
        <ele>296.6</ele>
        <time>2021-07-03 21:00:30</time>
      </trkpt>
      <trkpt lat="28.95826" lon="-13.72185">
        <ele>296.2</ele>
        <time>2021-07-03 21:00:31</time>
      </trkpt>
      <trkpt lat="28.95826" lon="-13.72189">
        <ele>295.8</ele>
        <time>2021-07-03 21:00:32</time>
      </trkpt>
      <trkpt lat="28.95826" lon="-13.72194">
        <ele>295.6</ele>
        <time>2021-07-03 21:00:33</time>
      </trkpt>
      <trkpt lat="28.95826" lon="-13.72198">
        <ele>295.2</ele>
        <time>2021-07-03 21:00:34</time>
      </trkpt>
      <trkpt lat="28.95825" lon="-13.72203">
        <ele>294.8</ele>
        <time>2021-07-03 21:00:35</time>
      </trkpt>
      <trkpt lat="28.95825" lon="-13.72208">
        <ele>294.2</ele>
        <time>2021-07-03 21:00:36</time>
      </trkpt>
      <trkpt lat="28.95825" lon="-13.72213">
        <ele>294</ele>
        <time>2021-07-03 21:00:37</time>
      </trkpt>
      <trkpt lat="28.95825" lon="-13.72217">
        <ele>293.6</ele>
        <time>2021-07-03 21:00:38</time>
      </trkpt>
      <trkpt lat="28.95825" lon="-13.72222">
        <ele>293.4</ele>
        <time>2021-07-03 21:00:39</time>
      </trkpt>
      <trkpt lat="28.95825" lon="-13.72226">
        <ele>293</ele>
        <time>2021-07-03 21:00:40</time>
      </trkpt>
      <trkpt lat="28.95826" lon="-13.7223">
        <ele>292.8</ele>
        <time>2021-07-03 21:00:41</time>
      </trkpt>
      <trkpt lat="28.95826" lon="-13.72233">
        <ele>292.8</ele>
        <time>2021-07-03 21:00:42</time>
      </trkpt>
      <trkpt lat="28.95826" lon="-13.72234">
        <ele>292.4</ele>
        <time>2021-07-03 21:00:43</time>
      </trkpt>
      <trkpt lat="28.95826" lon="-13.72235">
        <ele>292.4</ele>
        <time>2021-07-03 21:00:44</time>
      </trkpt>
      <trkpt lat="28.95826" lon="-13.72235">
        <ele>292.2</ele>
        <time>2021-07-03 21:00:45</time>
      </trkpt>
      <trkpt lat="28.95826" lon="-13.72235">
        <ele>292.2</ele>
        <time>2021-07-03 21:00:46</time>
      </trkpt>
      <trkpt lat="28.95826" lon="-13.72237">
        <ele>290.8</ele>
        <time>2021-07-03 21:00:47</time>
      </trkpt>
      <trkpt lat="28.95826" lon="-13.7224">
        <ele>290.8</ele>
        <time>2021-07-03 21:00:48</time>
      </trkpt>
      <trkpt lat="28.95826" lon="-13.72243">
        <ele>290.8</ele>
        <time>2021-07-03 21:00:49</time>
      </trkpt>
      <trkpt lat="28.95826" lon="-13.72246">
        <ele>290.6</ele>
        <time>2021-07-03 21:01:12</time>
      </trkpt>
      <trkpt lat="28.95826" lon="-13.7225">
        <ele>290.6</ele>
        <time>2021-07-03 21:01:13</time>
      </trkpt>
      <trkpt lat="28.95826" lon="-13.72255">
        <ele>290.4</ele>
        <time>2021-07-03 21:01:14</time>
      </trkpt>
      <trkpt lat="28.95826" lon="-13.72259">
        <ele>290.4</ele>
        <time>2021-07-03 21:01:53</time>
      </trkpt>
      <trkpt lat="28.95827" lon="-13.72263">
        <ele>290</ele>
        <time>2021-07-03 21:01:54</time>
      </trkpt>
      <trkpt lat="28.95827" lon="-13.72268">
        <ele>290</ele>
        <time>2021-07-03 21:01:55</time>
      </trkpt>
      <trkpt lat="28.95827" lon="-13.72271">
        <ele>289.6</ele>
        <time>2021-07-03 21:01:56</time>
      </trkpt>
      <trkpt lat="28.95827" lon="-13.72273">
        <ele>289.6</ele>
        <time>2021-07-03 21:01:57</time>
      </trkpt>
      <trkpt lat="28.95826" lon="-13.72276">
        <ele>289.4</ele>
        <time>2021-07-03 21:01:58</time>
      </trkpt>
      <trkpt lat="28.95826" lon="-13.72277">
        <ele>289.4</ele>
        <time>2021-07-03 21:01:59</time>
      </trkpt>
      <trkpt lat="28.95826" lon="-13.72279">
        <ele>289.2</ele>
        <time>2021-07-03 21:02:00</time>
      </trkpt>
      <trkpt lat="28.95826" lon="-13.72279">
        <ele>289.2</ele>
        <time>2021-07-03 21:02:01</time>
      </trkpt>
      <trkpt lat="28.95826" lon="-13.72279">
        <ele>289</ele>
        <time>2021-07-03 21:02:02</time>
      </trkpt>
      <trkpt lat="28.95826" lon="-13.72278">
        <ele>289</ele>
        <time>2021-07-03 21:02:03</time>
      </trkpt>
      <trkpt lat="28.95826" lon="-13.72279">
        <ele>289.6</ele>
        <time>2021-07-03 21:02:04</time>
      </trkpt>
      <trkpt lat="28.95826" lon="-13.72281">
        <ele>289.6</ele>
        <time>2021-07-03 21:02:05</time>
      </trkpt>
      <trkpt lat="28.95825" lon="-13.72283">
        <ele>289.6</ele>
        <time>2021-07-03 21:02:06</time>
      </trkpt>
      <trkpt lat="28.95825" lon="-13.72285">
        <ele>289.4</ele>
        <time>2021-07-03 21:02:07</time>
      </trkpt>
      <trkpt lat="28.95823" lon="-13.72292">
        <ele>288.6</ele>
        <time>2021-07-03 21:02:08</time>
      </trkpt>
      <trkpt lat="28.95822" lon="-13.72295">
        <ele>288.4</ele>
        <time>2021-07-03 21:02:09</time>
      </trkpt>
      <trkpt lat="28.95821" lon="-13.72298">
        <ele>288.4</ele>
        <time>2021-07-03 21:02:10</time>
      </trkpt>
      <trkpt lat="28.95821" lon="-13.72301">
        <ele>288</ele>
        <time>2021-07-03 21:02:11</time>
      </trkpt>
      <trkpt lat="28.9582" lon="-13.72304">
        <ele>287.8</ele>
        <time>2021-07-03 21:02:12</time>
      </trkpt>
      <trkpt lat="28.95819" lon="-13.72308">
        <ele>287.8</ele>
        <time>2021-07-03 21:02:13</time>
      </trkpt>
      <trkpt lat="28.95819" lon="-13.72313">
        <ele>287.4</ele>
        <time>2021-07-03 21:02:14</time>
      </trkpt>
      <trkpt lat="28.95818" lon="-13.72317">
        <ele>287.4</ele>
        <time>2021-07-03 21:02:15</time>
      </trkpt>
      <trkpt lat="28.95817" lon="-13.72321">
        <ele>287.2</ele>
        <time>2021-07-03 21:02:16</time>
      </trkpt>
      <trkpt lat="28.95817" lon="-13.72324">
        <ele>287.2</ele>
        <time>2021-07-03 21:02:17</time>
      </trkpt>
      <trkpt lat="28.95817" lon="-13.72327">
        <ele>286.8</ele>
        <time>2021-07-03 21:02:18</time>
      </trkpt>
      <trkpt lat="28.95816" lon="-13.72331">
        <ele>286.6</ele>
        <time>2021-07-03 21:02:19</time>
      </trkpt>
      <trkpt lat="28.95815" lon="-13.72335">
        <ele>286.4</ele>
        <time>2021-07-03 21:02:20</time>
      </trkpt>
      <trkpt lat="28.95814" lon="-13.7234">
        <ele>286</ele>
        <time>2021-07-03 21:02:21</time>
      </trkpt>
      <trkpt lat="28.95812" lon="-13.72344">
        <ele>285.8</ele>
        <time>2021-07-03 21:02:22</time>
      </trkpt>
      <trkpt lat="28.95811" lon="-13.72348">
        <ele>285.6</ele>
        <time>2021-07-03 21:02:23</time>
      </trkpt>
      <trkpt lat="28.9581" lon="-13.72352">
        <ele>285.2</ele>
        <time>2021-07-03 21:02:24</time>
      </trkpt>
      <trkpt lat="28.95809" lon="-13.72356">
        <ele>284.8</ele>
        <time>2021-07-03 21:02:25</time>
      </trkpt>
      <trkpt lat="28.95808" lon="-13.7236">
        <ele>284.6</ele>
        <time>2021-07-03 21:02:26</time>
      </trkpt>
      <trkpt lat="28.95807" lon="-13.72364">
        <ele>284.2</ele>
        <time>2021-07-03 21:02:27</time>
      </trkpt>
      <trkpt lat="28.95806" lon="-13.72368">
        <ele>284</ele>
        <time>2021-07-03 21:02:28</time>
      </trkpt>
      <trkpt lat="28.95805" lon="-13.72372">
        <ele>283.6</ele>
        <time>2021-07-03 21:02:29</time>
      </trkpt>
      <trkpt lat="28.95804" lon="-13.72376">
        <ele>283.4</ele>
        <time>2021-07-03 21:02:30</time>
      </trkpt>
      <trkpt lat="28.95803" lon="-13.72381">
        <ele>283</ele>
        <time>2021-07-03 21:02:31</time>
      </trkpt>
      <trkpt lat="28.95802" lon="-13.72385">
        <ele>282.6</ele>
        <time>2021-07-03 21:02:32</time>
      </trkpt>
      <trkpt lat="28.958" lon="-13.72388">
        <ele>282.2</ele>
        <time>2021-07-03 21:02:33</time>
      </trkpt>
      <trkpt lat="28.95799" lon="-13.72392">
        <ele>281.8</ele>
        <time>2021-07-03 21:02:34</time>
      </trkpt>
      <trkpt lat="28.95797" lon="-13.72395">
        <ele>281.4</ele>
        <time>2021-07-03 21:02:35</time>
      </trkpt>
      <trkpt lat="28.95796" lon="-13.72398">
        <ele>281</ele>
        <time>2021-07-03 21:02:36</time>
      </trkpt>
      <trkpt lat="28.95795" lon="-13.72401">
        <ele>280.6</ele>
        <time>2021-07-03 21:02:37</time>
      </trkpt>
      <trkpt lat="28.95794" lon="-13.72403">
        <ele>280.2</ele>
        <time>2021-07-03 21:02:38</time>
      </trkpt>
      <trkpt lat="28.95793" lon="-13.72406">
        <ele>279.8</ele>
        <time>2021-07-03 21:02:39</time>
      </trkpt>
      <trkpt lat="28.95792" lon="-13.72409">
        <ele>279.4</ele>
        <time>2021-07-03 21:02:40</time>
      </trkpt>
      <trkpt lat="28.95791" lon="-13.72411">
        <ele>279</ele>
        <time>2021-07-03 21:02:41</time>
      </trkpt>
      <trkpt lat="28.9579" lon="-13.72413">
        <ele>278.8</ele>
        <time>2021-07-03 21:02:42</time>
      </trkpt>
      <trkpt lat="28.95789" lon="-13.72416">
        <ele>278.4</ele>
        <time>2021-07-03 21:02:43</time>
      </trkpt>
      <trkpt lat="28.95787" lon="-13.72419">
        <ele>278.2</ele>
        <time>2021-07-03 21:02:44</time>
      </trkpt>
      <trkpt lat="28.95785" lon="-13.72422">
        <ele>278</ele>
        <time>2021-07-03 21:02:45</time>
      </trkpt>
      <trkpt lat="28.95783" lon="-13.72424">
        <ele>277.8</ele>
        <time>2021-07-03 21:02:46</time>
      </trkpt>
      <trkpt lat="28.95781" lon="-13.72427">
        <ele>277.4</ele>
        <time>2021-07-03 21:02:47</time>
      </trkpt>
      <trkpt lat="28.9578" lon="-13.7243">
        <ele>277.2</ele>
        <time>2021-07-03 21:02:48</time>
      </trkpt>
      <trkpt lat="28.95778" lon="-13.72432">
        <ele>277</ele>
        <time>2021-07-03 21:02:49</time>
      </trkpt>
      <trkpt lat="28.95776" lon="-13.72436">
        <ele>276.6</ele>
        <time>2021-07-03 21:02:50</time>
      </trkpt>
      <trkpt lat="28.95775" lon="-13.72439">
        <ele>276.4</ele>
        <time>2021-07-03 21:02:51</time>
      </trkpt>
      <trkpt lat="28.95774" lon="-13.72443">
        <ele>276</ele>
        <time>2021-07-03 21:02:52</time>
      </trkpt>
      <trkpt lat="28.95772" lon="-13.72446">
        <ele>275.8</ele>
        <time>2021-07-03 21:02:53</time>
      </trkpt>
      <trkpt lat="28.95771" lon="-13.7245">
        <ele>275.4</ele>
        <time>2021-07-03 21:02:54</time>
      </trkpt>
      <trkpt lat="28.95769" lon="-13.72454">
        <ele>275.2</ele>
        <time>2021-07-03 21:02:55</time>
      </trkpt>
      <trkpt lat="28.95768" lon="-13.72458">
        <ele>274.8</ele>
        <time>2021-07-03 21:02:56</time>
      </trkpt>
      <trkpt lat="28.95766" lon="-13.72462">
        <ele>274.4</ele>
        <time>2021-07-03 21:02:57</time>
      </trkpt>
      <trkpt lat="28.95765" lon="-13.72465">
        <ele>274</ele>
        <time>2021-07-03 21:02:58</time>
      </trkpt>
      <trkpt lat="28.95764" lon="-13.72467">
        <ele>273.8</ele>
        <time>2021-07-03 21:02:59</time>
      </trkpt>
      <trkpt lat="28.95763" lon="-13.72468">
        <ele>273.4</ele>
        <time>2021-07-03 21:03:00</time>
      </trkpt>
      <trkpt lat="28.95763" lon="-13.72469">
        <ele>273.2</ele>
        <time>2021-07-03 21:03:01</time>
      </trkpt>
      <trkpt lat="28.95764" lon="-13.72469">
        <ele>273.2</ele>
        <time>2021-07-03 21:03:02</time>
      </trkpt>
      <trkpt lat="28.95763" lon="-13.72471">
        <ele>271.4</ele>
        <time>2021-07-03 21:03:03</time>
      </trkpt>
      <trkpt lat="28.95762" lon="-13.72473">
        <ele>271.2</ele>
        <time>2021-07-03 21:03:04</time>
      </trkpt>
      <trkpt lat="28.95761" lon="-13.72475">
        <ele>271.2</ele>
        <time>2021-07-03 21:03:05</time>
      </trkpt>
      <trkpt lat="28.95761" lon="-13.72476">
        <ele>271.2</ele>
        <time>2021-07-03 21:03:06</time>
      </trkpt>
      <trkpt lat="28.95761" lon="-13.72476">
        <ele>271.2</ele>
        <time>2021-07-03 21:03:07</time>
      </trkpt>
      <trkpt lat="28.95761" lon="-13.72475">
        <ele>271.2</ele>
        <time>2021-07-03 21:03:08</time>
      </trkpt>
      <trkpt lat="28.95761" lon="-13.72476">
        <ele>272.4</ele>
        <time>2021-07-03 21:03:09</time>
      </trkpt>
      <trkpt lat="28.9576" lon="-13.72477">
        <ele>272.4</ele>
        <time>2021-07-03 21:03:10</time>
      </trkpt>
      <trkpt lat="28.95758" lon="-13.72479">
        <ele>272</ele>
        <time>2021-07-03 21:03:11</time>
      </trkpt>
      <trkpt lat="28.95757" lon="-13.7248">
        <ele>271.8</ele>
        <time>2021-07-03 21:03:12</time>
      </trkpt>
      <trkpt lat="28.95755" lon="-13.72483">
        <ele>271.4</ele>
        <time>2021-07-03 21:03:13</time>
      </trkpt>
      <trkpt lat="28.95754" lon="-13.72485">
        <ele>271</ele>
        <time>2021-07-03 21:03:14</time>
      </trkpt>
      <trkpt lat="28.95752" lon="-13.72489">
        <ele>270.4</ele>
        <time>2021-07-03 21:03:15</time>
      </trkpt>
      <trkpt lat="28.9575" lon="-13.72493">
        <ele>270</ele>
        <time>2021-07-03 21:03:16</time>
      </trkpt>
      <trkpt lat="28.95748" lon="-13.72497">
        <ele>269.8</ele>
        <time>2021-07-03 21:03:17</time>
      </trkpt>
      <trkpt lat="28.95747" lon="-13.725">
        <ele>269.4</ele>
        <time>2021-07-03 21:03:18</time>
      </trkpt>
      <trkpt lat="28.95745" lon="-13.72504">
        <ele>269</ele>
        <time>2021-07-03 21:03:19</time>
      </trkpt>
      <trkpt lat="28.95743" lon="-13.72508">
        <ele>268.8</ele>
        <time>2021-07-03 21:03:20</time>
      </trkpt>
      <trkpt lat="28.95741" lon="-13.72513">
        <ele>268.4</ele>
        <time>2021-07-03 21:03:21</time>
      </trkpt>
      <trkpt lat="28.95739" lon="-13.72517">
        <ele>268</ele>
        <time>2021-07-03 21:03:22</time>
      </trkpt>
      <trkpt lat="28.95738" lon="-13.72521">
        <ele>267.8</ele>
        <time>2021-07-03 21:03:23</time>
      </trkpt>
      <trkpt lat="28.95736" lon="-13.72524">
        <ele>267.4</ele>
        <time>2021-07-03 21:03:24</time>
      </trkpt>
      <trkpt lat="28.95735" lon="-13.72527">
        <ele>267</ele>
        <time>2021-07-03 21:03:25</time>
      </trkpt>
      <trkpt lat="28.95734" lon="-13.72528">
        <ele>266.8</ele>
        <time>2021-07-03 21:03:26</time>
      </trkpt>
      <trkpt lat="28.95734" lon="-13.72529">
        <ele>266.4</ele>
        <time>2021-07-03 21:03:27</time>
      </trkpt>
      <trkpt lat="28.95734" lon="-13.72529">
        <ele>266.4</ele>
        <time>2021-07-03 21:03:28</time>
      </trkpt>
      <trkpt lat="28.95734" lon="-13.72529">
        <ele>266.2</ele>
        <time>2021-07-03 21:03:29</time>
      </trkpt>
      <trkpt lat="28.95733" lon="-13.7253">
        <ele>266.2</ele>
        <time>2021-07-03 21:03:30</time>
      </trkpt>
      <trkpt lat="28.95732" lon="-13.72531">
        <ele>265.8</ele>
        <time>2021-07-03 21:03:31</time>
      </trkpt>
      <trkpt lat="28.95731" lon="-13.72533">
        <ele>265.8</ele>
        <time>2021-07-03 21:03:32</time>
      </trkpt>
      <trkpt lat="28.95731" lon="-13.72535">
        <ele>265.4</ele>
        <time>2021-07-03 21:03:33</time>
      </trkpt>
      <trkpt lat="28.9573" lon="-13.72537">
        <ele>265.4</ele>
        <time>2021-07-03 21:03:34</time>
      </trkpt>
      <trkpt lat="28.95728" lon="-13.7254">
        <ele>265.2</ele>
        <time>2021-07-03 21:03:35</time>
      </trkpt>
      <trkpt lat="28.95727" lon="-13.72543">
        <ele>265.2</ele>
        <time>2021-07-03 21:03:36</time>
      </trkpt>
      <trkpt lat="28.95725" lon="-13.72546">
        <ele>264.8</ele>
        <time>2021-07-03 21:03:37</time>
      </trkpt>
      <trkpt lat="28.95723" lon="-13.72549">
        <ele>264.8</ele>
        <time>2021-07-03 21:03:38</time>
      </trkpt>
      <trkpt lat="28.95721" lon="-13.72553">
        <ele>264.6</ele>
        <time>2021-07-03 21:03:39</time>
      </trkpt>
      <trkpt lat="28.95719" lon="-13.72557">
        <ele>264.6</ele>
        <time>2021-07-03 21:03:40</time>
      </trkpt>
      <trkpt lat="28.95716" lon="-13.7256">
        <ele>264.2</ele>
        <time>2021-07-03 21:03:41</time>
      </trkpt>
      <trkpt lat="28.95714" lon="-13.72565">
        <ele>263.8</ele>
        <time>2021-07-03 21:03:42</time>
      </trkpt>
      <trkpt lat="28.95711" lon="-13.72569">
        <ele>263.6</ele>
        <time>2021-07-03 21:03:43</time>
      </trkpt>
      <trkpt lat="28.95709" lon="-13.72573">
        <ele>263.2</ele>
        <time>2021-07-03 21:03:44</time>
      </trkpt>
      <trkpt lat="28.95707" lon="-13.72577">
        <ele>263</ele>
        <time>2021-07-03 21:03:45</time>
      </trkpt>
      <trkpt lat="28.95704" lon="-13.72581">
        <ele>262.8</ele>
        <time>2021-07-03 21:03:46</time>
      </trkpt>
      <trkpt lat="28.95701" lon="-13.72584">
        <ele>262.8</ele>
        <time>2021-07-03 21:03:47</time>
      </trkpt>
      <trkpt lat="28.95699" lon="-13.72588">
        <ele>262.4</ele>
        <time>2021-07-03 21:03:48</time>
      </trkpt>
      <trkpt lat="28.95696" lon="-13.72591">
        <ele>262</ele>
        <time>2021-07-03 21:03:49</time>
      </trkpt>
      <trkpt lat="28.95693" lon="-13.72595">
        <ele>262</ele>
        <time>2021-07-03 21:03:50</time>
      </trkpt>
      <trkpt lat="28.95692" lon="-13.72597">
        <ele>261.8</ele>
        <time>2021-07-03 21:03:51</time>
      </trkpt>
      <trkpt lat="28.9569" lon="-13.726">
        <ele>261.8</ele>
        <time>2021-07-03 21:03:52</time>
      </trkpt>
      <trkpt lat="28.95687" lon="-13.72604">
        <ele>261.4</ele>
        <time>2021-07-03 21:03:53</time>
      </trkpt>
      <trkpt lat="28.95685" lon="-13.72608">
        <ele>261.4</ele>
        <time>2021-07-03 21:03:54</time>
      </trkpt>
      <trkpt lat="28.95683" lon="-13.72611">
        <ele>261.2</ele>
        <time>2021-07-03 21:03:55</time>
      </trkpt>
      <trkpt lat="28.9568" lon="-13.72615">
        <ele>261</ele>
        <time>2021-07-03 21:03:56</time>
      </trkpt>
      <trkpt lat="28.95678" lon="-13.72618">
        <ele>261</ele>
        <time>2021-07-03 21:03:57</time>
      </trkpt>
      <trkpt lat="28.95676" lon="-13.72622">
        <ele>260.6</ele>
        <time>2021-07-03 21:03:58</time>
      </trkpt>
      <trkpt lat="28.95673" lon="-13.72625">
        <ele>260.4</ele>
        <time>2021-07-03 21:03:59</time>
      </trkpt>
      <trkpt lat="28.95671" lon="-13.72629">
        <ele>260</ele>
        <time>2021-07-03 21:04:00</time>
      </trkpt>
      <trkpt lat="28.95668" lon="-13.72632">
        <ele>259.8</ele>
        <time>2021-07-03 21:04:01</time>
      </trkpt>
      <trkpt lat="28.95666" lon="-13.72635">
        <ele>259.8</ele>
        <time>2021-07-03 21:04:02</time>
      </trkpt>
      <trkpt lat="28.95664" lon="-13.72637">
        <ele>259.6</ele>
        <time>2021-07-03 21:04:03</time>
      </trkpt>
      <trkpt lat="28.95662" lon="-13.7264">
        <ele>259.2</ele>
        <time>2021-07-03 21:04:04</time>
      </trkpt>
      <trkpt lat="28.9566" lon="-13.72643">
        <ele>259.2</ele>
        <time>2021-07-03 21:04:05</time>
      </trkpt>
      <trkpt lat="28.95657" lon="-13.72646">
        <ele>258.8</ele>
        <time>2021-07-03 21:04:06</time>
      </trkpt>
      <trkpt lat="28.95655" lon="-13.7265">
        <ele>258.8</ele>
        <time>2021-07-03 21:04:07</time>
      </trkpt>
      <trkpt lat="28.95652" lon="-13.72653">
        <ele>258.6</ele>
        <time>2021-07-03 21:04:08</time>
      </trkpt>
      <trkpt lat="28.9565" lon="-13.72657">
        <ele>258.6</ele>
        <time>2021-07-03 21:04:09</time>
      </trkpt>
      <trkpt lat="28.95648" lon="-13.72661">
        <ele>258.2</ele>
        <time>2021-07-03 21:04:10</time>
      </trkpt>
      <trkpt lat="28.95646" lon="-13.72665">
        <ele>258.2</ele>
        <time>2021-07-03 21:04:11</time>
      </trkpt>
      <trkpt lat="28.95646" lon="-13.72671">
        <ele>258.2</ele>
        <time>2021-07-03 21:04:12</time>
      </trkpt>
      <trkpt lat="28.95645" lon="-13.72676">
        <ele>258.2</ele>
        <time>2021-07-03 21:04:13</time>
      </trkpt>
      <trkpt lat="28.95643" lon="-13.72681">
        <ele>258.2</ele>
        <time>2021-07-03 21:04:14</time>
      </trkpt>
      <trkpt lat="28.95642" lon="-13.72686">
        <ele>258.2</ele>
        <time>2021-07-03 21:04:15</time>
      </trkpt>
      <trkpt lat="28.95639" lon="-13.7269">
        <ele>258.6</ele>
        <time>2021-07-03 21:04:16</time>
      </trkpt>
      <trkpt lat="28.95637" lon="-13.72693">
        <ele>258.6</ele>
        <time>2021-07-03 21:04:17</time>
      </trkpt>
      <trkpt lat="28.95634" lon="-13.72697">
        <ele>258.6</ele>
        <time>2021-07-03 21:04:18</time>
      </trkpt>
      <trkpt lat="28.95631" lon="-13.727">
        <ele>258.6</ele>
        <time>2021-07-03 21:04:19</time>
      </trkpt>
      <trkpt lat="28.95628" lon="-13.72703">
        <ele>258.6</ele>
        <time>2021-07-03 21:04:20</time>
      </trkpt>
      <trkpt lat="28.95624" lon="-13.72705">
        <ele>258.6</ele>
        <time>2021-07-03 21:04:21</time>
      </trkpt>
      <trkpt lat="28.95621" lon="-13.72708">
        <ele>258.8</ele>
        <time>2021-07-03 21:04:22</time>
      </trkpt>
      <trkpt lat="28.95618" lon="-13.72711">
        <ele>258.8</ele>
        <time>2021-07-03 21:04:23</time>
      </trkpt>
      <trkpt lat="28.95615" lon="-13.72714">
        <ele>259</ele>
        <time>2021-07-03 21:04:24</time>
      </trkpt>
      <trkpt lat="28.95613" lon="-13.72718">
        <ele>259</ele>
        <time>2021-07-03 21:04:25</time>
      </trkpt>
      <trkpt lat="28.95611" lon="-13.72721">
        <ele>259.2</ele>
        <time>2021-07-03 21:04:26</time>
      </trkpt>
      <trkpt lat="28.95609" lon="-13.72725">
        <ele>259.2</ele>
        <time>2021-07-03 21:04:27</time>
      </trkpt>
      <trkpt lat="28.95607" lon="-13.7273">
        <ele>259.6</ele>
        <time>2021-07-03 21:04:28</time>
      </trkpt>
      <trkpt lat="28.95605" lon="-13.72734">
        <ele>259.6</ele>
        <time>2021-07-03 21:04:29</time>
      </trkpt>
      <trkpt lat="28.95603" lon="-13.72737">
        <ele>259.6</ele>
        <time>2021-07-03 21:05:10</time>
      </trkpt>
      <trkpt lat="28.956" lon="-13.72741">
        <ele>259.6</ele>
        <time>2021-07-03 21:05:11</time>
      </trkpt>
      <trkpt lat="28.95598" lon="-13.72745">
        <ele>259.6</ele>
        <time>2021-07-03 21:05:12</time>
      </trkpt>
      <trkpt lat="28.95595" lon="-13.72749">
        <ele>259.8</ele>
        <time>2021-07-03 21:05:13</time>
      </trkpt>
      <trkpt lat="28.95592" lon="-13.72753">
        <ele>259.8</ele>
        <time>2021-07-03 21:05:14</time>
      </trkpt>
      <trkpt lat="28.95588" lon="-13.72757">
        <ele>259.8</ele>
        <time>2021-07-03 21:05:15</time>
      </trkpt>
      <trkpt lat="28.95585" lon="-13.7276">
        <ele>259.8</ele>
        <time>2021-07-03 21:05:16</time>
      </trkpt>
      <trkpt lat="28.95581" lon="-13.72764">
        <ele>259.8</ele>
        <time>2021-07-03 21:05:17</time>
      </trkpt>
      <trkpt lat="28.95578" lon="-13.72767">
        <ele>259.8</ele>
        <time>2021-07-03 21:05:18</time>
      </trkpt>
      <trkpt lat="28.95574" lon="-13.7277">
        <ele>259.8</ele>
        <time>2021-07-03 21:05:19</time>
      </trkpt>
      <trkpt lat="28.95571" lon="-13.72774">
        <ele>259.6</ele>
        <time>2021-07-03 21:05:20</time>
      </trkpt>
      <trkpt lat="28.95568" lon="-13.72778">
        <ele>259.6</ele>
        <time>2021-07-03 21:05:21</time>
      </trkpt>
      <trkpt lat="28.95565" lon="-13.72782">
        <ele>259.6</ele>
        <time>2021-07-03 21:05:22</time>
      </trkpt>
      <trkpt lat="28.95562" lon="-13.72787">
        <ele>259.6</ele>
        <time>2021-07-03 21:05:23</time>
      </trkpt>
      <trkpt lat="28.9556" lon="-13.72791">
        <ele>259.6</ele>
        <time>2021-07-03 21:05:24</time>
      </trkpt>
      <trkpt lat="28.95558" lon="-13.72797">
        <ele>259.6</ele>
        <time>2021-07-03 21:05:25</time>
      </trkpt>
      <trkpt lat="28.95556" lon="-13.72801">
        <ele>259.6</ele>
        <time>2021-07-03 21:05:26</time>
      </trkpt>
      <trkpt lat="28.95553" lon="-13.72806">
        <ele>259.6</ele>
        <time>2021-07-03 21:06:20</time>
      </trkpt>
      <trkpt lat="28.95551" lon="-13.72811">
        <ele>259.6</ele>
        <time>2021-07-03 21:06:21</time>
      </trkpt>
      <trkpt lat="28.95549" lon="-13.72815">
        <ele>259.6</ele>
        <time>2021-07-03 21:06:22</time>
      </trkpt>
      <trkpt lat="28.95547" lon="-13.7282">
        <ele>259.6</ele>
        <time>2021-07-03 21:06:23</time>
      </trkpt>
      <trkpt lat="28.95545" lon="-13.72824">
        <ele>259.6</ele>
        <time>2021-07-03 21:06:24</time>
      </trkpt>
      <trkpt lat="28.95542" lon="-13.72828">
        <ele>259.2</ele>
        <time>2021-07-03 21:06:25</time>
      </trkpt>
      <trkpt lat="28.9554" lon="-13.72832">
        <ele>259.2</ele>
        <time>2021-07-03 21:06:26</time>
      </trkpt>
      <trkpt lat="28.95537" lon="-13.72837">
        <ele>259.2</ele>
        <time>2021-07-03 21:06:27</time>
      </trkpt>
      <trkpt lat="28.95535" lon="-13.72841">
        <ele>259.2</ele>
        <time>2021-07-03 21:06:28</time>
      </trkpt>
      <trkpt lat="28.95532" lon="-13.72846">
        <ele>259</ele>
        <time>2021-07-03 21:06:29</time>
      </trkpt>
      <trkpt lat="28.9553" lon="-13.7285">
        <ele>259</ele>
        <time>2021-07-03 21:06:30</time>
      </trkpt>
      <trkpt lat="28.95528" lon="-13.72853">
        <ele>259</ele>
        <time>2021-07-03 21:06:31</time>
      </trkpt>
      <trkpt lat="28.95526" lon="-13.72858">
        <ele>259</ele>
        <time>2021-07-03 21:06:32</time>
      </trkpt>
      <trkpt lat="28.95524" lon="-13.72862">
        <ele>259</ele>
        <time>2021-07-03 21:06:33</time>
      </trkpt>
      <trkpt lat="28.95522" lon="-13.72867">
        <ele>259</ele>
        <time>2021-07-03 21:06:34</time>
      </trkpt>
      <trkpt lat="28.9552" lon="-13.72872">
        <ele>259</ele>
        <time>2021-07-03 21:06:35</time>
      </trkpt>
      <trkpt lat="28.95518" lon="-13.72877">
        <ele>259</ele>
        <time>2021-07-03 21:06:36</time>
      </trkpt>
      <trkpt lat="28.95517" lon="-13.72882">
        <ele>259</ele>
        <time>2021-07-03 21:06:37</time>
      </trkpt>
      <trkpt lat="28.95515" lon="-13.72886">
        <ele>259</ele>
        <time>2021-07-03 21:06:38</time>
      </trkpt>
      <trkpt lat="28.95513" lon="-13.72891">
        <ele>259</ele>
        <time>2021-07-03 21:06:39</time>
      </trkpt>
      <trkpt lat="28.95512" lon="-13.72895">
        <ele>259</ele>
        <time>2021-07-03 21:06:40</time>
      </trkpt>
      <trkpt lat="28.9551" lon="-13.729">
        <ele>259</ele>
        <time>2021-07-03 21:06:41</time>
      </trkpt>
      <trkpt lat="28.95509" lon="-13.72904">
        <ele>259</ele>
        <time>2021-07-03 21:06:42</time>
      </trkpt>
      <trkpt lat="28.95507" lon="-13.72908">
        <ele>259</ele>
        <time>2021-07-03 21:06:43</time>
      </trkpt>
      <trkpt lat="28.95505" lon="-13.72912">
        <ele>259</ele>
        <time>2021-07-03 21:06:44</time>
      </trkpt>
      <trkpt lat="28.95503" lon="-13.72916">
        <ele>259</ele>
        <time>2021-07-03 21:06:45</time>
      </trkpt>
      <trkpt lat="28.955" lon="-13.72921">
        <ele>259</ele>
        <time>2021-07-03 21:06:46</time>
      </trkpt>
      <trkpt lat="28.95498" lon="-13.72926">
        <ele>259</ele>
        <time>2021-07-03 21:06:47</time>
      </trkpt>
      <trkpt lat="28.95496" lon="-13.7293">
        <ele>259</ele>
        <time>2021-07-03 21:06:48</time>
      </trkpt>
      <trkpt lat="28.95494" lon="-13.72935">
        <ele>259</ele>
        <time>2021-07-03 21:06:49</time>
      </trkpt>
      <trkpt lat="28.95492" lon="-13.7294">
        <ele>259</ele>
        <time>2021-07-03 21:06:50</time>
      </trkpt>
      <trkpt lat="28.9549" lon="-13.72944">
        <ele>259</ele>
        <time>2021-07-03 21:06:51</time>
      </trkpt>
      <trkpt lat="28.95488" lon="-13.72949">
        <ele>259</ele>
        <time>2021-07-03 21:06:52</time>
      </trkpt>
      <trkpt lat="28.95486" lon="-13.72953">
        <ele>259</ele>
        <time>2021-07-03 21:06:53</time>
      </trkpt>
      <trkpt lat="28.95485" lon="-13.72958">
        <ele>259</ele>
        <time>2021-07-03 21:06:54</time>
      </trkpt>
      <trkpt lat="28.95483" lon="-13.72963">
        <ele>259.2</ele>
        <time>2021-07-03 21:06:55</time>
      </trkpt>
      <trkpt lat="28.95482" lon="-13.72966">
        <ele>259.2</ele>
        <time>2021-07-03 21:06:56</time>
      </trkpt>
      <trkpt lat="28.9548" lon="-13.72971">
        <ele>259.2</ele>
        <time>2021-07-03 21:06:57</time>
      </trkpt>
      <trkpt lat="28.95479" lon="-13.72974">
        <ele>259.6</ele>
        <time>2021-07-03 21:06:58</time>
      </trkpt>
      <trkpt lat="28.95477" lon="-13.72978">
        <ele>259.6</ele>
        <time>2021-07-03 21:06:59</time>
      </trkpt>
      <trkpt lat="28.95475" lon="-13.72982">
        <ele>259.8</ele>
        <time>2021-07-03 21:07:00</time>
      </trkpt>
      <trkpt lat="28.95474" lon="-13.72985">
        <ele>259.8</ele>
        <time>2021-07-03 21:07:01</time>
      </trkpt>
      <trkpt lat="28.95472" lon="-13.72988">
        <ele>259.8</ele>
        <time>2021-07-03 21:07:02</time>
      </trkpt>
      <trkpt lat="28.9547" lon="-13.72992">
        <ele>259.8</ele>
        <time>2021-07-03 21:07:03</time>
      </trkpt>
      <trkpt lat="28.95468" lon="-13.72996">
        <ele>259.8</ele>
        <time>2021-07-03 21:07:04</time>
      </trkpt>
      <trkpt lat="28.95466" lon="-13.73">
        <ele>259.8</ele>
        <time>2021-07-03 21:07:05</time>
      </trkpt>
      <trkpt lat="28.95465" lon="-13.73003">
        <ele>260</ele>
        <time>2021-07-03 21:07:06</time>
      </trkpt>
      <trkpt lat="28.95463" lon="-13.73007">
        <ele>260</ele>
        <time>2021-07-03 21:07:07</time>
      </trkpt>
      <trkpt lat="28.95462" lon="-13.7301">
        <ele>260</ele>
        <time>2021-07-03 21:07:08</time>
      </trkpt>
      <trkpt lat="28.9546" lon="-13.73013">
        <ele>260.4</ele>
        <time>2021-07-03 21:07:09</time>
      </trkpt>
      <trkpt lat="28.95459" lon="-13.73016">
        <ele>260.4</ele>
        <time>2021-07-03 21:07:10</time>
      </trkpt>
      <trkpt lat="28.95458" lon="-13.7302">
        <ele>260.4</ele>
        <time>2021-07-03 21:07:11</time>
      </trkpt>
      <trkpt lat="28.95456" lon="-13.73023">
        <ele>260.4</ele>
        <time>2021-07-03 21:07:12</time>
      </trkpt>
      <trkpt lat="28.95455" lon="-13.73026">
        <ele>260.6</ele>
        <time>2021-07-03 21:07:13</time>
      </trkpt>
      <trkpt lat="28.95453" lon="-13.73028">
        <ele>260.6</ele>
        <time>2021-07-03 21:07:14</time>
      </trkpt>
      <trkpt lat="28.95452" lon="-13.73031">
        <ele>261</ele>
        <time>2021-07-03 21:07:15</time>
      </trkpt>
      <trkpt lat="28.95451" lon="-13.73033">
        <ele>261</ele>
        <time>2021-07-03 21:07:16</time>
      </trkpt>
      <trkpt lat="28.9545" lon="-13.73035">
        <ele>261.2</ele>
        <time>2021-07-03 21:07:17</time>
      </trkpt>
      <trkpt lat="28.95448" lon="-13.73038">
        <ele>261.4</ele>
        <time>2021-07-03 21:07:18</time>
      </trkpt>
      <trkpt lat="28.95447" lon="-13.7304">
        <ele>261.4</ele>
        <time>2021-07-03 21:07:19</time>
      </trkpt>
      <trkpt lat="28.95446" lon="-13.73043">
        <ele>261.6</ele>
        <time>2021-07-03 21:07:20</time>
      </trkpt>
      <trkpt lat="28.95444" lon="-13.73046">
        <ele>261.6</ele>
        <time>2021-07-03 21:07:29</time>
      </trkpt>
      <trkpt lat="28.95443" lon="-13.73048">
        <ele>262</ele>
        <time>2021-07-03 21:07:30</time>
      </trkpt>
      <trkpt lat="28.95442" lon="-13.73051">
        <ele>262.2</ele>
        <time>2021-07-03 21:07:31</time>
      </trkpt>
      <trkpt lat="28.9544" lon="-13.73054">
        <ele>262.2</ele>
        <time>2021-07-03 21:07:32</time>
      </trkpt>
      <trkpt lat="28.95439" lon="-13.73057">
        <ele>262.6</ele>
        <time>2021-07-03 21:07:33</time>
      </trkpt>
      <trkpt lat="28.95438" lon="-13.73059">
        <ele>262.6</ele>
        <time>2021-07-03 21:07:34</time>
      </trkpt>
      <trkpt lat="28.95436" lon="-13.73062">
        <ele>263</ele>
        <time>2021-07-03 21:08:13</time>
      </trkpt>
      <trkpt lat="28.95435" lon="-13.73065">
        <ele>263</ele>
        <time>2021-07-03 21:08:14</time>
      </trkpt>
      <trkpt lat="28.95434" lon="-13.73067">
        <ele>263.2</ele>
        <time>2021-07-03 21:08:15</time>
      </trkpt>
      <trkpt lat="28.95432" lon="-13.7307">
        <ele>263.2</ele>
        <time>2021-07-03 21:08:16</time>
      </trkpt>
      <trkpt lat="28.95431" lon="-13.73073">
        <ele>263.6</ele>
        <time>2021-07-03 21:08:17</time>
      </trkpt>
      <trkpt lat="28.9543" lon="-13.73076">
        <ele>263.8</ele>
        <time>2021-07-03 21:08:18</time>
      </trkpt>
      <trkpt lat="28.95428" lon="-13.73079">
        <ele>263.8</ele>
        <time>2021-07-03 21:08:19</time>
      </trkpt>
      <trkpt lat="28.95427" lon="-13.73082">
        <ele>264</ele>
        <time>2021-07-03 21:08:20</time>
      </trkpt>
      <trkpt lat="28.95425" lon="-13.73085">
        <ele>264</ele>
        <time>2021-07-03 21:08:21</time>
      </trkpt>
      <trkpt lat="28.95423" lon="-13.73089">
        <ele>264.2</ele>
        <time>2021-07-03 21:08:22</time>
      </trkpt>
      <trkpt lat="28.95422" lon="-13.73092">
        <ele>264.2</ele>
        <time>2021-07-03 21:08:23</time>
      </trkpt>
      <trkpt lat="28.95421" lon="-13.73095">
        <ele>264.2</ele>
        <time>2021-07-03 21:08:24</time>
      </trkpt>
      <trkpt lat="28.95419" lon="-13.73097">
        <ele>264.2</ele>
        <time>2021-07-03 21:08:25</time>
      </trkpt>
      <trkpt lat="28.95418" lon="-13.73099">
        <ele>264.6</ele>
        <time>2021-07-03 21:08:26</time>
      </trkpt>
      <trkpt lat="28.95416" lon="-13.73102">
        <ele>264.6</ele>
        <time>2021-07-03 21:08:27</time>
      </trkpt>
      <trkpt lat="28.95414" lon="-13.73106">
        <ele>264.6</ele>
        <time>2021-07-03 21:08:28</time>
      </trkpt>
      <trkpt lat="28.95413" lon="-13.73109">
        <ele>264.8</ele>
        <time>2021-07-03 21:08:29</time>
      </trkpt>
      <trkpt lat="28.95411" lon="-13.73113">
        <ele>264.8</ele>
        <time>2021-07-03 21:08:30</time>
      </trkpt>
      <trkpt lat="28.95409" lon="-13.73116">
        <ele>264.8</ele>
        <time>2021-07-03 21:08:31</time>
      </trkpt>
      <trkpt lat="28.95407" lon="-13.7312">
        <ele>264.8</ele>
        <time>2021-07-03 21:08:32</time>
      </trkpt>
      <trkpt lat="28.95406" lon="-13.73123">
        <ele>264.8</ele>
        <time>2021-07-03 21:08:33</time>
      </trkpt>
      <trkpt lat="28.95404" lon="-13.73126">
        <ele>264.8</ele>
        <time>2021-07-03 21:08:34</time>
      </trkpt>
      <trkpt lat="28.95402" lon="-13.73128">
        <ele>264.8</ele>
        <time>2021-07-03 21:08:35</time>
      </trkpt>
      <trkpt lat="28.954" lon="-13.73132">
        <ele>264.8</ele>
        <time>2021-07-03 21:08:36</time>
      </trkpt>
      <trkpt lat="28.95398" lon="-13.73135">
        <ele>264.8</ele>
        <time>2021-07-03 21:08:37</time>
      </trkpt>
      <trkpt lat="28.95397" lon="-13.73139">
        <ele>264.8</ele>
        <time>2021-07-03 21:08:38</time>
      </trkpt>
      <trkpt lat="28.95395" lon="-13.73143">
        <ele>264.8</ele>
        <time>2021-07-03 21:08:39</time>
      </trkpt>
      <trkpt lat="28.95394" lon="-13.73147">
        <ele>264.8</ele>
        <time>2021-07-03 21:08:40</time>
      </trkpt>
      <trkpt lat="28.95392" lon="-13.73151">
        <ele>264.8</ele>
        <time>2021-07-03 21:08:41</time>
      </trkpt>
      <trkpt lat="28.95391" lon="-13.73156">
        <ele>264.8</ele>
        <time>2021-07-03 21:08:42</time>
      </trkpt>
      <trkpt lat="28.95389" lon="-13.7316">
        <ele>264.6</ele>
        <time>2021-07-03 21:08:43</time>
      </trkpt>
      <trkpt lat="28.95387" lon="-13.73164">
        <ele>264.6</ele>
        <time>2021-07-03 21:08:44</time>
      </trkpt>
      <trkpt lat="28.95386" lon="-13.73168">
        <ele>264.2</ele>
        <time>2021-07-03 21:08:45</time>
      </trkpt>
      <trkpt lat="28.95384" lon="-13.73172">
        <ele>264.2</ele>
        <time>2021-07-03 21:08:46</time>
      </trkpt>
      <trkpt lat="28.95382" lon="-13.73177">
        <ele>264</ele>
        <time>2021-07-03 21:08:47</time>
      </trkpt>
      <trkpt lat="28.9538" lon="-13.73181">
        <ele>264</ele>
        <time>2021-07-03 21:08:48</time>
      </trkpt>
      <trkpt lat="28.95378" lon="-13.73185">
        <ele>264</ele>
        <time>2021-07-03 21:08:49</time>
      </trkpt>
      <trkpt lat="28.95376" lon="-13.73189">
        <ele>264</ele>
        <time>2021-07-03 21:08:50</time>
      </trkpt>
      <trkpt lat="28.95374" lon="-13.73194">
        <ele>264</ele>
        <time>2021-07-03 21:08:51</time>
      </trkpt>
      <trkpt lat="28.95371" lon="-13.73198">
        <ele>264</ele>
        <time>2021-07-03 21:08:52</time>
      </trkpt>
      <trkpt lat="28.95369" lon="-13.73203">
        <ele>264</ele>
        <time>2021-07-03 21:08:53</time>
      </trkpt>
      <trkpt lat="28.95367" lon="-13.73208">
        <ele>264</ele>
        <time>2021-07-03 21:08:54</time>
      </trkpt>
      <trkpt lat="28.95365" lon="-13.73214">
        <ele>263.8</ele>
        <time>2021-07-03 21:08:55</time>
      </trkpt>
      <trkpt lat="28.95363" lon="-13.73219">
        <ele>263.8</ele>
        <time>2021-07-03 21:08:56</time>
      </trkpt>
      <trkpt lat="28.95361" lon="-13.73225">
        <ele>263.8</ele>
        <time>2021-07-03 21:08:57</time>
      </trkpt>
      <trkpt lat="28.9536" lon="-13.7323">
        <ele>263.6</ele>
        <time>2021-07-03 21:08:58</time>
      </trkpt>
      <trkpt lat="28.95358" lon="-13.73236">
        <ele>263.6</ele>
        <time>2021-07-03 21:08:59</time>
      </trkpt>
      <trkpt lat="28.95356" lon="-13.73241">
        <ele>263.6</ele>
        <time>2021-07-03 21:09:00</time>
      </trkpt>
      <trkpt lat="28.95355" lon="-13.73246">
        <ele>263.2</ele>
        <time>2021-07-03 21:09:01</time>
      </trkpt>
      <trkpt lat="28.95353" lon="-13.73251">
        <ele>263.2</ele>
        <time>2021-07-03 21:09:02</time>
      </trkpt>
      <trkpt lat="28.95351" lon="-13.73257">
        <ele>263</ele>
        <time>2021-07-03 21:09:03</time>
      </trkpt>
      <trkpt lat="28.9535" lon="-13.73262">
        <ele>263</ele>
        <time>2021-07-03 21:09:04</time>
      </trkpt>
      <trkpt lat="28.95348" lon="-13.73268">
        <ele>262.8</ele>
        <time>2021-07-03 21:09:05</time>
      </trkpt>
      <trkpt lat="28.95348" lon="-13.73274">
        <ele>262.8</ele>
        <time>2021-07-03 21:09:06</time>
      </trkpt>
      <trkpt lat="28.95347" lon="-13.7328">
        <ele>262.8</ele>
        <time>2021-07-03 21:09:07</time>
      </trkpt>
      <trkpt lat="28.95346" lon="-13.73286">
        <ele>262.4</ele>
        <time>2021-07-03 21:09:08</time>
      </trkpt>
      <trkpt lat="28.95345" lon="-13.73292">
        <ele>262.4</ele>
        <time>2021-07-03 21:09:09</time>
      </trkpt>
      <trkpt lat="28.95343" lon="-13.73298">
        <ele>262.4</ele>
        <time>2021-07-03 21:09:10</time>
      </trkpt>
      <trkpt lat="28.9534" lon="-13.73302">
        <ele>262.4</ele>
        <time>2021-07-03 21:09:11</time>
      </trkpt>
      <trkpt lat="28.95337" lon="-13.73307">
        <ele>262.4</ele>
        <time>2021-07-03 21:09:12</time>
      </trkpt>
      <trkpt lat="28.95334" lon="-13.73311">
        <ele>262.4</ele>
        <time>2021-07-03 21:09:13</time>
      </trkpt>
      <trkpt lat="28.95332" lon="-13.73317">
        <ele>262.2</ele>
        <time>2021-07-03 21:09:14</time>
      </trkpt>
      <trkpt lat="28.95329" lon="-13.73322">
        <ele>262.2</ele>
        <time>2021-07-03 21:09:15</time>
      </trkpt>
      <trkpt lat="28.95327" lon="-13.73327">
        <ele>262.2</ele>
        <time>2021-07-03 21:09:16</time>
      </trkpt>
      <trkpt lat="28.95325" lon="-13.73333">
        <ele>262.2</ele>
        <time>2021-07-03 21:09:17</time>
      </trkpt>
      <trkpt lat="28.95322" lon="-13.73338">
        <ele>262.2</ele>
        <time>2021-07-03 21:09:18</time>
      </trkpt>
      <trkpt lat="28.9532" lon="-13.73344">
        <ele>262.2</ele>
        <time>2021-07-03 21:09:19</time>
      </trkpt>
      <trkpt lat="28.95318" lon="-13.73349">
        <ele>262.2</ele>
        <time>2021-07-03 21:09:20</time>
      </trkpt>
      <trkpt lat="28.95315" lon="-13.73355">
        <ele>262.4</ele>
        <time>2021-07-03 21:09:21</time>
      </trkpt>
      <trkpt lat="28.95314" lon="-13.7336">
        <ele>262.4</ele>
        <time>2021-07-03 21:09:22</time>
      </trkpt>
      <trkpt lat="28.95311" lon="-13.73365">
        <ele>262.8</ele>
        <time>2021-07-03 21:09:23</time>
      </trkpt>
      <trkpt lat="28.95309" lon="-13.73369">
        <ele>262.8</ele>
        <time>2021-07-03 21:09:24</time>
      </trkpt>
      <trkpt lat="28.95308" lon="-13.73373">
        <ele>263</ele>
        <time>2021-07-03 21:09:25</time>
      </trkpt>
      <trkpt lat="28.95306" lon="-13.73377">
        <ele>263</ele>
        <time>2021-07-03 21:09:26</time>
      </trkpt>
      <trkpt lat="28.95305" lon="-13.73381">
        <ele>263.4</ele>
        <time>2021-07-03 21:09:27</time>
      </trkpt>
      <trkpt lat="28.95302" lon="-13.73386">
        <ele>263.4</ele>
        <time>2021-07-03 21:09:28</time>
      </trkpt>
      <trkpt lat="28.953" lon="-13.7339">
        <ele>263.4</ele>
        <time>2021-07-03 21:09:29</time>
      </trkpt>
      <trkpt lat="28.95298" lon="-13.73395">
        <ele>263.4</ele>
        <time>2021-07-03 21:09:30</time>
      </trkpt>
      <trkpt lat="28.95296" lon="-13.734">
        <ele>263.4</ele>
        <time>2021-07-03 21:09:31</time>
      </trkpt>
      <trkpt lat="28.95295" lon="-13.73405">
        <ele>263.4</ele>
        <time>2021-07-03 21:09:32</time>
      </trkpt>
      <trkpt lat="28.95294" lon="-13.7341">
        <ele>263.4</ele>
        <time>2021-07-03 21:09:33</time>
      </trkpt>
      <trkpt lat="28.95293" lon="-13.73415">
        <ele>263.4</ele>
        <time>2021-07-03 21:09:34</time>
      </trkpt>
      <trkpt lat="28.95291" lon="-13.7342">
        <ele>263.4</ele>
        <time>2021-07-03 21:09:35</time>
      </trkpt>
      <trkpt lat="28.9529" lon="-13.73425">
        <ele>263.4</ele>
        <time>2021-07-03 21:09:36</time>
      </trkpt>
      <trkpt lat="28.95288" lon="-13.7343">
        <ele>263.4</ele>
        <time>2021-07-03 21:09:37</time>
      </trkpt>
      <trkpt lat="28.95287" lon="-13.73436">
        <ele>263.4</ele>
        <time>2021-07-03 21:09:38</time>
      </trkpt>
      <trkpt lat="28.95285" lon="-13.73442">
        <ele>263.4</ele>
        <time>2021-07-03 21:09:39</time>
      </trkpt>
      <trkpt lat="28.95284" lon="-13.73447">
        <ele>263.4</ele>
        <time>2021-07-03 21:09:40</time>
      </trkpt>
      <trkpt lat="28.95283" lon="-13.73453">
        <ele>263.4</ele>
        <time>2021-07-03 21:09:41</time>
      </trkpt>
      <trkpt lat="28.95282" lon="-13.73458">
        <ele>263.4</ele>
        <time>2021-07-03 21:09:42</time>
      </trkpt>
      <trkpt lat="28.95281" lon="-13.73464">
        <ele>263.2</ele>
        <time>2021-07-03 21:09:43</time>
      </trkpt>
      <trkpt lat="28.95281" lon="-13.7347">
        <ele>263.2</ele>
        <time>2021-07-03 21:09:44</time>
      </trkpt>
      <trkpt lat="28.9528" lon="-13.73477">
        <ele>262.8</ele>
        <time>2021-07-03 21:09:45</time>
      </trkpt>
      <trkpt lat="28.9528" lon="-13.73483">
        <ele>262.8</ele>
        <time>2021-07-03 21:09:46</time>
      </trkpt>
      <trkpt lat="28.95281" lon="-13.7349">
        <ele>262.4</ele>
        <time>2021-07-03 21:09:47</time>
      </trkpt>
      <trkpt lat="28.95282" lon="-13.73496">
        <ele>262.4</ele>
        <time>2021-07-03 21:09:48</time>
      </trkpt>
      <trkpt lat="28.95283" lon="-13.73502">
        <ele>262.2</ele>
        <time>2021-07-03 21:09:49</time>
      </trkpt>
      <trkpt lat="28.95283" lon="-13.73509">
        <ele>261.8</ele>
        <time>2021-07-03 21:09:50</time>
      </trkpt>
      <trkpt lat="28.95282" lon="-13.73516">
        <ele>261.6</ele>
        <time>2021-07-03 21:09:51</time>
      </trkpt>
      <trkpt lat="28.95281" lon="-13.73523">
        <ele>261.4</ele>
        <time>2021-07-03 21:09:52</time>
      </trkpt>
      <trkpt lat="28.9528" lon="-13.7353">
        <ele>261</ele>
        <time>2021-07-03 21:09:53</time>
      </trkpt>
      <trkpt lat="28.95278" lon="-13.73538">
        <ele>260.6</ele>
        <time>2021-07-03 21:09:54</time>
      </trkpt>
      <trkpt lat="28.95276" lon="-13.73547">
        <ele>260.2</ele>
        <time>2021-07-03 21:09:55</time>
      </trkpt>
      <trkpt lat="28.95274" lon="-13.73555">
        <ele>260</ele>
        <time>2021-07-03 21:09:56</time>
      </trkpt>
      <trkpt lat="28.95273" lon="-13.73564">
        <ele>259.6</ele>
        <time>2021-07-03 21:09:57</time>
      </trkpt>
      <trkpt lat="28.95271" lon="-13.73572">
        <ele>259</ele>
        <time>2021-07-03 21:09:58</time>
      </trkpt>
      <trkpt lat="28.95269" lon="-13.7358">
        <ele>258.4</ele>
        <time>2021-07-03 21:09:59</time>
      </trkpt>
      <trkpt lat="28.95268" lon="-13.73588">
        <ele>257.8</ele>
        <time>2021-07-03 21:10:00</time>
      </trkpt>
      <trkpt lat="28.95266" lon="-13.73596">
        <ele>257.2</ele>
        <time>2021-07-03 21:10:01</time>
      </trkpt>
      <trkpt lat="28.95265" lon="-13.73605">
        <ele>256.8</ele>
        <time>2021-07-03 21:10:02</time>
      </trkpt>
      <trkpt lat="28.95264" lon="-13.73614">
        <ele>256.2</ele>
        <time>2021-07-03 21:10:03</time>
      </trkpt>
      <trkpt lat="28.95263" lon="-13.73623">
        <ele>255.6</ele>
        <time>2021-07-03 21:10:04</time>
      </trkpt>
      <trkpt lat="28.95262" lon="-13.73631">
        <ele>255</ele>
        <time>2021-07-03 21:10:05</time>
      </trkpt>
      <trkpt lat="28.95261" lon="-13.7364">
        <ele>254.2</ele>
        <time>2021-07-03 21:10:06</time>
      </trkpt>
      <trkpt lat="28.95261" lon="-13.73648">
        <ele>253.6</ele>
        <time>2021-07-03 21:10:07</time>
      </trkpt>
      <trkpt lat="28.95261" lon="-13.73655">
        <ele>253.2</ele>
        <time>2021-07-03 21:10:08</time>
      </trkpt>
      <trkpt lat="28.95261" lon="-13.73663">
        <ele>252.8</ele>
        <time>2021-07-03 21:10:09</time>
      </trkpt>
      <trkpt lat="28.95261" lon="-13.73672">
        <ele>252.4</ele>
        <time>2021-07-03 21:10:10</time>
      </trkpt>
      <trkpt lat="28.95261" lon="-13.7368">
        <ele>252.4</ele>
        <time>2021-07-03 21:10:11</time>
      </trkpt>
      <trkpt lat="28.95261" lon="-13.73688">
        <ele>252.2</ele>
        <time>2021-07-03 21:10:12</time>
      </trkpt>
      <trkpt lat="28.95263" lon="-13.73695">
        <ele>252.2</ele>
        <time>2021-07-03 21:10:13</time>
      </trkpt>
      <trkpt lat="28.95263" lon="-13.73702">
        <ele>251.8</ele>
        <time>2021-07-03 21:10:14</time>
      </trkpt>
      <trkpt lat="28.95264" lon="-13.7371">
        <ele>251.6</ele>
        <time>2021-07-03 21:10:15</time>
      </trkpt>
      <trkpt lat="28.95265" lon="-13.73717">
        <ele>251.4</ele>
        <time>2021-07-03 21:10:16</time>
      </trkpt>
      <trkpt lat="28.95265" lon="-13.73724">
        <ele>250.8</ele>
        <time>2021-07-03 21:10:17</time>
      </trkpt>
      <trkpt lat="28.95266" lon="-13.73731">
        <ele>250.4</ele>
        <time>2021-07-03 21:10:18</time>
      </trkpt>
      <trkpt lat="28.95266" lon="-13.73737">
        <ele>250</ele>
        <time>2021-07-03 21:10:19</time>
      </trkpt>
      <trkpt lat="28.95267" lon="-13.73743">
        <ele>249.6</ele>
        <time>2021-07-03 21:10:20</time>
      </trkpt>
      <trkpt lat="28.95267" lon="-13.7375">
        <ele>249</ele>
        <time>2021-07-03 21:10:21</time>
      </trkpt>
      <trkpt lat="28.95267" lon="-13.73755">
        <ele>248.6</ele>
        <time>2021-07-03 21:10:22</time>
      </trkpt>
      <trkpt lat="28.95267" lon="-13.7376">
        <ele>248.2</ele>
        <time>2021-07-03 21:10:23</time>
      </trkpt>
      <trkpt lat="28.95267" lon="-13.73764">
        <ele>247.4</ele>
        <time>2021-07-03 21:10:24</time>
      </trkpt>
      <trkpt lat="28.95268" lon="-13.73767">
        <ele>246.8</ele>
        <time>2021-07-03 21:10:25</time>
      </trkpt>
      <trkpt lat="28.95268" lon="-13.7377">
        <ele>246.4</ele>
        <time>2021-07-03 21:10:26</time>
      </trkpt>
      <trkpt lat="28.95269" lon="-13.73772">
        <ele>246</ele>
        <time>2021-07-03 21:10:27</time>
      </trkpt>
      <trkpt lat="28.95269" lon="-13.73774">
        <ele>245.6</ele>
        <time>2021-07-03 21:10:28</time>
      </trkpt>
      <trkpt lat="28.95269" lon="-13.73775">
        <ele>245.2</ele>
        <time>2021-07-03 21:10:29</time>
      </trkpt>
      <trkpt lat="28.95269" lon="-13.73775">
        <ele>245</ele>
        <time>2021-07-03 21:10:30</time>
      </trkpt>
      <trkpt lat="28.95269" lon="-13.73775">
        <ele>244.6</ele>
        <time>2021-07-03 21:10:31</time>
      </trkpt>
      <trkpt lat="28.95269" lon="-13.73777">
        <ele>244.6</ele>
        <time>2021-07-03 21:10:32</time>
      </trkpt>
      <trkpt lat="28.95269" lon="-13.73777">
        <ele>244.2</ele>
        <time>2021-07-03 21:10:33</time>
      </trkpt>
      <trkpt lat="28.95269" lon="-13.73777">
        <ele>244.2</ele>
        <time>2021-07-03 21:10:34</time>
      </trkpt>
      <trkpt lat="28.9527" lon="-13.73777">
        <ele>244.2</ele>
        <time>2021-07-03 21:10:35</time>
      </trkpt>
      <trkpt lat="28.9527" lon="-13.73779">
        <ele>244</ele>
        <time>2021-07-03 21:10:36</time>
      </trkpt>
      <trkpt lat="28.95269" lon="-13.73782">
        <ele>244</ele>
        <time>2021-07-03 21:10:37</time>
      </trkpt>
      <trkpt lat="28.95268" lon="-13.73784">
        <ele>244</ele>
        <time>2021-07-03 21:10:38</time>
      </trkpt>
      <trkpt lat="28.95266" lon="-13.73787">
        <ele>243.6</ele>
        <time>2021-07-03 21:10:39</time>
      </trkpt>
      <trkpt lat="28.95263" lon="-13.73791">
        <ele>243.6</ele>
        <time>2021-07-03 21:10:40</time>
      </trkpt>
      <trkpt lat="28.95259" lon="-13.73793">
        <ele>243.2</ele>
        <time>2021-07-03 21:10:41</time>
      </trkpt>
      <trkpt lat="28.95255" lon="-13.73796">
        <ele>243.2</ele>
        <time>2021-07-03 21:10:42</time>
      </trkpt>
      <trkpt lat="28.95251" lon="-13.73799">
        <ele>243</ele>
        <time>2021-07-03 21:10:43</time>
      </trkpt>
      <trkpt lat="28.95247" lon="-13.73803">
        <ele>243</ele>
        <time>2021-07-03 21:10:44</time>
      </trkpt>
      <trkpt lat="28.95243" lon="-13.73807">
        <ele>242.6</ele>
        <time>2021-07-03 21:10:45</time>
      </trkpt>
      <trkpt lat="28.95238" lon="-13.73811">
        <ele>242.4</ele>
        <time>2021-07-03 21:10:46</time>
      </trkpt>
      <trkpt lat="28.95233" lon="-13.73814">
        <ele>242.4</ele>
        <time>2021-07-03 21:10:47</time>
      </trkpt>
      <trkpt lat="28.95228" lon="-13.73819">
        <ele>242</ele>
        <time>2021-07-03 21:10:48</time>
      </trkpt>
      <trkpt lat="28.95223" lon="-13.73823">
        <ele>241.8</ele>
        <time>2021-07-03 21:10:49</time>
      </trkpt>
      <trkpt lat="28.95218" lon="-13.73827">
        <ele>241.4</ele>
        <time>2021-07-03 21:10:50</time>
      </trkpt>
      <trkpt lat="28.95212" lon="-13.73831">
        <ele>241.2</ele>
        <time>2021-07-03 21:10:51</time>
      </trkpt>
      <trkpt lat="28.95207" lon="-13.73835">
        <ele>241</ele>
        <time>2021-07-03 21:10:52</time>
      </trkpt>
      <trkpt lat="28.95201" lon="-13.73839">
        <ele>240.8</ele>
        <time>2021-07-03 21:10:53</time>
      </trkpt>
      <trkpt lat="28.95195" lon="-13.73844">
        <ele>240.6</ele>
        <time>2021-07-03 21:10:54</time>
      </trkpt>
      <trkpt lat="28.95189" lon="-13.73848">
        <ele>240.4</ele>
        <time>2021-07-03 21:10:55</time>
      </trkpt>
      <trkpt lat="28.95182" lon="-13.73852">
        <ele>240</ele>
        <time>2021-07-03 21:10:56</time>
      </trkpt>
      <trkpt lat="28.95174" lon="-13.73857">
        <ele>239.8</ele>
        <time>2021-07-03 21:10:57</time>
      </trkpt>
      <trkpt lat="28.95167" lon="-13.73861">
        <ele>239.6</ele>
        <time>2021-07-03 21:10:58</time>
      </trkpt>
      <trkpt lat="28.95159" lon="-13.73865">
        <ele>239.2</ele>
        <time>2021-07-03 21:10:59</time>
      </trkpt>
      <trkpt lat="28.95151" lon="-13.73869">
        <ele>239</ele>
        <time>2021-07-03 21:11:00</time>
      </trkpt>
      <trkpt lat="28.95143" lon="-13.73872">
        <ele>238.6</ele>
        <time>2021-07-03 21:11:01</time>
      </trkpt>
      <trkpt lat="28.95135" lon="-13.73876">
        <ele>238.2</ele>
        <time>2021-07-03 21:11:02</time>
      </trkpt>
      <trkpt lat="28.95126" lon="-13.73879">
        <ele>238</ele>
        <time>2021-07-03 21:11:03</time>
      </trkpt>
      <trkpt lat="28.95117" lon="-13.73882">
        <ele>237.6</ele>
        <time>2021-07-03 21:11:04</time>
      </trkpt>
      <trkpt lat="28.95108" lon="-13.73885">
        <ele>237.2</ele>
        <time>2021-07-03 21:11:05</time>
      </trkpt>
      <trkpt lat="28.95098" lon="-13.73888">
        <ele>236.8</ele>
        <time>2021-07-03 21:11:06</time>
      </trkpt>
      <trkpt lat="28.95089" lon="-13.7389">
        <ele>236.6</ele>
        <time>2021-07-03 21:11:07</time>
      </trkpt>
      <trkpt lat="28.95079" lon="-13.73892">
        <ele>236.2</ele>
        <time>2021-07-03 21:11:08</time>
      </trkpt>
      <trkpt lat="28.95069" lon="-13.73894">
        <ele>236</ele>
        <time>2021-07-03 21:11:09</time>
      </trkpt>
      <trkpt lat="28.95058" lon="-13.73895">
        <ele>235.6</ele>
        <time>2021-07-03 21:11:10</time>
      </trkpt>
      <trkpt lat="28.95048" lon="-13.73896">
        <ele>235.2</ele>
        <time>2021-07-03 21:11:11</time>
      </trkpt>
      <trkpt lat="28.95037" lon="-13.73897">
        <ele>234.8</ele>
        <time>2021-07-03 21:11:12</time>
      </trkpt>
      <trkpt lat="28.95026" lon="-13.73897">
        <ele>234.4</ele>
        <time>2021-07-03 21:11:13</time>
      </trkpt>
      <trkpt lat="28.95014" lon="-13.73897">
        <ele>234</ele>
        <time>2021-07-03 21:11:14</time>
      </trkpt>
      <trkpt lat="28.95003" lon="-13.73896">
        <ele>233.6</ele>
        <time>2021-07-03 21:11:15</time>
      </trkpt>
      <trkpt lat="28.9499" lon="-13.73895">
        <ele>233.2</ele>
        <time>2021-07-03 21:11:16</time>
      </trkpt>
      <trkpt lat="28.94979" lon="-13.73894">
        <ele>232.6</ele>
        <time>2021-07-03 21:11:17</time>
      </trkpt>
      <trkpt lat="28.94967" lon="-13.73892">
        <ele>232.2</ele>
        <time>2021-07-03 21:11:18</time>
      </trkpt>
      <trkpt lat="28.94955" lon="-13.73889">
        <ele>231.6</ele>
        <time>2021-07-03 21:11:19</time>
      </trkpt>
      <trkpt lat="28.94944" lon="-13.73886">
        <ele>231</ele>
        <time>2021-07-03 21:11:20</time>
      </trkpt>
      <trkpt lat="28.94933" lon="-13.73883">
        <ele>230.2</ele>
        <time>2021-07-03 21:11:21</time>
      </trkpt>
      <trkpt lat="28.94864" lon="-13.73873">
        <ele>224.8</ele>
        <time>2021-07-03 21:11:22</time>
      </trkpt>
      <trkpt lat="28.94852" lon="-13.73875">
        <ele>223.8</ele>
        <time>2021-07-03 21:11:23</time>
      </trkpt>
      <trkpt lat="28.94841" lon="-13.73877">
        <ele>223</ele>
        <time>2021-07-03 21:11:24</time>
      </trkpt>
      <trkpt lat="28.94831" lon="-13.73881">
        <ele>222.2</ele>
        <time>2021-07-03 21:11:25</time>
      </trkpt>
      <trkpt lat="28.94822" lon="-13.73885">
        <ele>221.4</ele>
        <time>2021-07-03 21:11:26</time>
      </trkpt>
      <trkpt lat="28.94813" lon="-13.7389">
        <ele>220.8</ele>
        <time>2021-07-03 21:11:27</time>
      </trkpt>
      <trkpt lat="28.94805" lon="-13.73896">
        <ele>220.2</ele>
        <time>2021-07-03 21:11:28</time>
      </trkpt>
      <trkpt lat="28.94798" lon="-13.73902">
        <ele>219.6</ele>
        <time>2021-07-03 21:11:29</time>
      </trkpt>
      <trkpt lat="28.94791" lon="-13.73908">
        <ele>219</ele>
        <time>2021-07-03 21:11:30</time>
      </trkpt>
      <trkpt lat="28.94784" lon="-13.73914">
        <ele>218.6</ele>
        <time>2021-07-03 21:11:31</time>
      </trkpt>
      <trkpt lat="28.94778" lon="-13.73919">
        <ele>218</ele>
        <time>2021-07-03 21:11:32</time>
      </trkpt>
      <trkpt lat="28.94772" lon="-13.73924">
        <ele>217.6</ele>
        <time>2021-07-03 21:11:33</time>
      </trkpt>
      <trkpt lat="28.94765" lon="-13.73927">
        <ele>217</ele>
        <time>2021-07-03 21:11:34</time>
      </trkpt>
      <trkpt lat="28.94759" lon="-13.73931">
        <ele>216.4</ele>
        <time>2021-07-03 21:11:35</time>
      </trkpt>
      <trkpt lat="28.94752" lon="-13.73935">
        <ele>215.8</ele>
        <time>2021-07-03 21:11:36</time>
      </trkpt>
      <trkpt lat="28.94747" lon="-13.73938">
        <ele>215.4</ele>
        <time>2021-07-03 21:11:37</time>
      </trkpt>
      <trkpt lat="28.94743" lon="-13.73943">
        <ele>215</ele>
        <time>2021-07-03 21:11:38</time>
      </trkpt>
      <trkpt lat="28.9474" lon="-13.73948">
        <ele>214.4</ele>
        <time>2021-07-03 21:11:39</time>
      </trkpt>
      <trkpt lat="28.94743" lon="-13.73959">
        <ele>213.6</ele>
        <time>2021-07-03 21:11:40</time>
      </trkpt>
      <trkpt lat="28.94746" lon="-13.73964">
        <ele>213.4</ele>
        <time>2021-07-03 21:11:41</time>
      </trkpt>
      <trkpt lat="28.9475" lon="-13.73969">
        <ele>213.2</ele>
        <time>2021-07-03 21:11:42</time>
      </trkpt>
      <trkpt lat="28.94753" lon="-13.73973">
        <ele>213</ele>
        <time>2021-07-03 21:11:43</time>
      </trkpt>
      <trkpt lat="28.94757" lon="-13.73977">
        <ele>212.6</ele>
        <time>2021-07-03 21:11:44</time>
      </trkpt>
      <trkpt lat="28.94761" lon="-13.73983">
        <ele>212.2</ele>
        <time>2021-07-03 21:11:45</time>
      </trkpt>
      <trkpt lat="28.94764" lon="-13.73989">
        <ele>211.8</ele>
        <time>2021-07-03 21:11:46</time>
      </trkpt>
      <trkpt lat="28.94768" lon="-13.73995">
        <ele>211.4</ele>
        <time>2021-07-03 21:11:47</time>
      </trkpt>
      <trkpt lat="28.94771" lon="-13.74">
        <ele>210.8</ele>
        <time>2021-07-03 21:11:48</time>
      </trkpt>
      <trkpt lat="28.94774" lon="-13.74006">
        <ele>210.6</ele>
        <time>2021-07-03 21:11:49</time>
      </trkpt>
      <trkpt lat="28.94778" lon="-13.74012">
        <ele>210</ele>
        <time>2021-07-03 21:11:50</time>
      </trkpt>
      <trkpt lat="28.9478" lon="-13.74019">
        <ele>209.6</ele>
        <time>2021-07-03 21:11:51</time>
      </trkpt>
      <trkpt lat="28.94784" lon="-13.74026">
        <ele>209.2</ele>
        <time>2021-07-03 21:11:52</time>
      </trkpt>
      <trkpt lat="28.94787" lon="-13.74032">
        <ele>208.8</ele>
        <time>2021-07-03 21:11:53</time>
      </trkpt>
      <trkpt lat="28.9479" lon="-13.7404">
        <ele>208.2</ele>
        <time>2021-07-03 21:11:54</time>
      </trkpt>
      <trkpt lat="28.94792" lon="-13.74047">
        <ele>207.6</ele>
        <time>2021-07-03 21:11:55</time>
      </trkpt>
      <trkpt lat="28.94795" lon="-13.74055">
        <ele>207.2</ele>
        <time>2021-07-03 21:11:56</time>
      </trkpt>
      <trkpt lat="28.94799" lon="-13.74063">
        <ele>206.6</ele>
        <time>2021-07-03 21:11:57</time>
      </trkpt>
      <trkpt lat="28.94802" lon="-13.74071">
        <ele>206</ele>
        <time>2021-07-03 21:11:58</time>
      </trkpt>
      <trkpt lat="28.94806" lon="-13.74079">
        <ele>205.4</ele>
        <time>2021-07-03 21:11:59</time>
      </trkpt>
      <trkpt lat="28.9481" lon="-13.74088">
        <ele>205</ele>
        <time>2021-07-03 21:12:00</time>
      </trkpt>
      <trkpt lat="28.94813" lon="-13.74096">
        <ele>204.4</ele>
        <time>2021-07-03 21:12:01</time>
      </trkpt>
      <trkpt lat="28.94817" lon="-13.74104">
        <ele>203.8</ele>
        <time>2021-07-03 21:12:02</time>
      </trkpt>
      <trkpt lat="28.9482" lon="-13.74112">
        <ele>203.4</ele>
        <time>2021-07-03 21:12:03</time>
      </trkpt>
      <trkpt lat="28.94824" lon="-13.74119">
        <ele>202.8</ele>
        <time>2021-07-03 21:12:04</time>
      </trkpt>
      <trkpt lat="28.94827" lon="-13.74127">
        <ele>202.4</ele>
        <time>2021-07-03 21:12:05</time>
      </trkpt>
      <trkpt lat="28.94829" lon="-13.74133">
        <ele>201.8</ele>
        <time>2021-07-03 21:12:06</time>
      </trkpt>
      <trkpt lat="28.94831" lon="-13.74137">
        <ele>201.4</ele>
        <time>2021-07-03 21:12:07</time>
      </trkpt>
      <trkpt lat="28.94833" lon="-13.74142">
        <ele>200.8</ele>
        <time>2021-07-03 21:12:08</time>
      </trkpt>
      <trkpt lat="28.94834" lon="-13.74146">
        <ele>200.4</ele>
        <time>2021-07-03 21:12:09</time>
      </trkpt>
      <trkpt lat="28.94834" lon="-13.7415">
        <ele>200.2</ele>
        <time>2021-07-03 21:12:10</time>
      </trkpt>
      <trkpt lat="28.94835" lon="-13.74154">
        <ele>199.8</ele>
        <time>2021-07-03 21:12:11</time>
      </trkpt>
      <trkpt lat="28.94834" lon="-13.74158">
        <ele>199.6</ele>
        <time>2021-07-03 21:12:12</time>
      </trkpt>
      <trkpt lat="28.94833" lon="-13.74161">
        <ele>199.2</ele>
        <time>2021-07-03 21:12:13</time>
      </trkpt>
      <trkpt lat="28.94832" lon="-13.74164">
        <ele>199.2</ele>
        <time>2021-07-03 21:12:14</time>
      </trkpt>
      <trkpt lat="28.9483" lon="-13.74167">
        <ele>199</ele>
        <time>2021-07-03 21:12:15</time>
      </trkpt>
      <trkpt lat="28.94829" lon="-13.74169">
        <ele>198.8</ele>
        <time>2021-07-03 21:12:16</time>
      </trkpt>
      <trkpt lat="28.9483" lon="-13.74172">
        <ele>198.4</ele>
        <time>2021-07-03 21:12:17</time>
      </trkpt>
      <trkpt lat="28.94832" lon="-13.74173">
        <ele>198.2</ele>
        <time>2021-07-03 21:12:18</time>
      </trkpt>
      <trkpt lat="28.94835" lon="-13.74174">
        <ele>198</ele>
        <time>2021-07-03 21:12:19</time>
      </trkpt>
      <trkpt lat="28.94837" lon="-13.74174">
        <ele>197.6</ele>
        <time>2021-07-03 21:12:20</time>
      </trkpt>
      <trkpt lat="28.9484" lon="-13.74174">
        <ele>197.4</ele>
        <time>2021-07-03 21:12:21</time>
      </trkpt>
      <trkpt lat="28.94844" lon="-13.74176">
        <ele>197.4</ele>
        <time>2021-07-03 21:12:22</time>
      </trkpt>
      <trkpt lat="28.94846" lon="-13.74182">
        <ele>197</ele>
        <time>2021-07-03 21:12:23</time>
      </trkpt>
      <trkpt lat="28.94849" lon="-13.74187">
        <ele>196.8</ele>
        <time>2021-07-03 21:12:24</time>
      </trkpt>
      <trkpt lat="28.94851" lon="-13.74192">
        <ele>196.4</ele>
        <time>2021-07-03 21:12:25</time>
      </trkpt>
      <trkpt lat="28.94854" lon="-13.74198">
        <ele>196</ele>
        <time>2021-07-03 21:12:26</time>
      </trkpt>
      <trkpt lat="28.94856" lon="-13.74205">
        <ele>195.8</ele>
        <time>2021-07-03 21:12:27</time>
      </trkpt>
      <trkpt lat="28.94856" lon="-13.74213">
        <ele>195.4</ele>
        <time>2021-07-03 21:12:28</time>
      </trkpt>
      <trkpt lat="28.94855" lon="-13.7422">
        <ele>195</ele>
        <time>2021-07-03 21:12:29</time>
      </trkpt>
      <trkpt lat="28.94853" lon="-13.74228">
        <ele>194.6</ele>
        <time>2021-07-03 21:12:30</time>
      </trkpt>
      <trkpt lat="28.9485" lon="-13.74235">
        <ele>194</ele>
        <time>2021-07-03 21:12:31</time>
      </trkpt>
      <trkpt lat="28.94846" lon="-13.74242">
        <ele>193.6</ele>
        <time>2021-07-03 21:12:32</time>
      </trkpt>
      <trkpt lat="28.94843" lon="-13.74249">
        <ele>193.4</ele>
        <time>2021-07-03 21:12:33</time>
      </trkpt>
      <trkpt lat="28.94842" lon="-13.74256">
        <ele>193.4</ele>
        <time>2021-07-03 21:12:34</time>
      </trkpt>
      <trkpt lat="28.94841" lon="-13.74263">
        <ele>193.2</ele>
        <time>2021-07-03 21:12:35</time>
      </trkpt>
      <trkpt lat="28.94841" lon="-13.7427">
        <ele>193.2</ele>
        <time>2021-07-03 21:12:36</time>
      </trkpt>
      <trkpt lat="28.94841" lon="-13.74277">
        <ele>193.2</ele>
        <time>2021-07-03 21:12:37</time>
      </trkpt>
      <trkpt lat="28.94841" lon="-13.74284">
        <ele>193.4</ele>
        <time>2021-07-03 21:12:38</time>
      </trkpt>
      <trkpt lat="28.94842" lon="-13.7429">
        <ele>193.4</ele>
        <time>2021-07-03 21:12:39</time>
      </trkpt>
      <trkpt lat="28.94844" lon="-13.74297">
        <ele>193.4</ele>
        <time>2021-07-03 21:12:40</time>
      </trkpt>
      <trkpt lat="28.94846" lon="-13.74303">
        <ele>193.6</ele>
        <time>2021-07-03 21:12:41</time>
      </trkpt>
      <trkpt lat="28.94848" lon="-13.74309">
        <ele>193.6</ele>
        <time>2021-07-03 21:12:42</time>
      </trkpt>
      <trkpt lat="28.94851" lon="-13.74315">
        <ele>193.6</ele>
        <time>2021-07-03 21:12:43</time>
      </trkpt>
      <trkpt lat="28.94853" lon="-13.7432">
        <ele>194</ele>
        <time>2021-07-03 21:12:44</time>
      </trkpt>
      <trkpt lat="28.94857" lon="-13.74324">
        <ele>194</ele>
        <time>2021-07-03 21:12:45</time>
      </trkpt>
      <trkpt lat="28.9486" lon="-13.7433">
        <ele>194</ele>
        <time>2021-07-03 21:12:46</time>
      </trkpt>
      <trkpt lat="28.94863" lon="-13.74335">
        <ele>194</ele>
        <time>2021-07-03 21:12:47</time>
      </trkpt>
      <trkpt lat="28.94866" lon="-13.74339">
        <ele>194</ele>
        <time>2021-07-03 21:12:48</time>
      </trkpt>
      <trkpt lat="28.94868" lon="-13.74343">
        <ele>194.2</ele>
        <time>2021-07-03 21:12:49</time>
      </trkpt>
      <trkpt lat="28.94871" lon="-13.74349">
        <ele>194.2</ele>
        <time>2021-07-03 21:12:50</time>
      </trkpt>
      <trkpt lat="28.94874" lon="-13.74354">
        <ele>194.2</ele>
        <time>2021-07-03 21:12:51</time>
      </trkpt>
      <trkpt lat="28.94877" lon="-13.74359">
        <ele>194.2</ele>
        <time>2021-07-03 21:12:52</time>
      </trkpt>
      <trkpt lat="28.9488" lon="-13.74364">
        <ele>194.2</ele>
        <time>2021-07-03 21:12:53</time>
      </trkpt>
      <trkpt lat="28.94884" lon="-13.74368">
        <ele>194.2</ele>
        <time>2021-07-03 21:12:54</time>
      </trkpt>
      <trkpt lat="28.94888" lon="-13.74372">
        <ele>194.2</ele>
        <time>2021-07-03 21:12:55</time>
      </trkpt>
      <trkpt lat="28.94892" lon="-13.74376">
        <ele>194.4</ele>
        <time>2021-07-03 21:12:56</time>
      </trkpt>
      <trkpt lat="28.94896" lon="-13.7438">
        <ele>194.4</ele>
        <time>2021-07-03 21:12:57</time>
      </trkpt>
      <trkpt lat="28.949" lon="-13.74383">
        <ele>194.4</ele>
        <time>2021-07-03 21:12:58</time>
      </trkpt>
      <trkpt lat="28.94904" lon="-13.74387">
        <ele>194.6</ele>
        <time>2021-07-03 21:12:59</time>
      </trkpt>
      <trkpt lat="28.94909" lon="-13.74391">
        <ele>194.6</ele>
        <time>2021-07-03 21:13:00</time>
      </trkpt>
      <trkpt lat="28.94913" lon="-13.74394">
        <ele>194.6</ele>
        <time>2021-07-03 21:13:01</time>
      </trkpt>
      <trkpt lat="28.94917" lon="-13.74398">
        <ele>194.6</ele>
        <time>2021-07-03 21:13:02</time>
      </trkpt>
      <trkpt lat="28.94919" lon="-13.74402">
        <ele>194.6</ele>
        <time>2021-07-03 21:13:03</time>
      </trkpt>
      <trkpt lat="28.94923" lon="-13.74406">
        <ele>194.6</ele>
        <time>2021-07-03 21:13:04</time>
      </trkpt>
      <trkpt lat="28.94926" lon="-13.7441">
        <ele>194.6</ele>
        <time>2021-07-03 21:13:05</time>
      </trkpt>
      <trkpt lat="28.94928" lon="-13.74415">
        <ele>194.6</ele>
        <time>2021-07-03 21:13:06</time>
      </trkpt>
      <trkpt lat="28.9493" lon="-13.7442">
        <ele>194.6</ele>
        <time>2021-07-03 21:13:07</time>
      </trkpt>
      <trkpt lat="28.94932" lon="-13.74425">
        <ele>194.6</ele>
        <time>2021-07-03 21:13:08</time>
      </trkpt>
      <trkpt lat="28.94934" lon="-13.7443">
        <ele>194.6</ele>
        <time>2021-07-03 21:13:09</time>
      </trkpt>
      <trkpt lat="28.94935" lon="-13.74435">
        <ele>194.4</ele>
        <time>2021-07-03 21:13:10</time>
      </trkpt>
      <trkpt lat="28.94937" lon="-13.7444">
        <ele>194.4</ele>
        <time>2021-07-03 21:13:11</time>
      </trkpt>
      <trkpt lat="28.94939" lon="-13.74444">
        <ele>194.4</ele>
        <time>2021-07-03 21:13:12</time>
      </trkpt>
      <trkpt lat="28.94941" lon="-13.74449">
        <ele>194.4</ele>
        <time>2021-07-03 21:13:13</time>
      </trkpt>
      <trkpt lat="28.94943" lon="-13.74454">
        <ele>194.4</ele>
        <time>2021-07-03 21:13:14</time>
      </trkpt>
      <trkpt lat="28.94945" lon="-13.74459">
        <ele>194.4</ele>
        <time>2021-07-03 21:13:15</time>
      </trkpt>
      <trkpt lat="28.94947" lon="-13.74464">
        <ele>194.4</ele>
        <time>2021-07-03 21:13:16</time>
      </trkpt>
      <trkpt lat="28.94948" lon="-13.74469">
        <ele>194.4</ele>
        <time>2021-07-03 21:15:13</time>
      </trkpt>
      <trkpt lat="28.94949" lon="-13.74474">
        <ele>194.4</ele>
        <time>2021-07-03 21:15:14</time>
      </trkpt>
      <trkpt lat="28.94949" lon="-13.74479">
        <ele>194.4</ele>
        <time>2021-07-03 21:15:15</time>
      </trkpt>
      <trkpt lat="28.9495" lon="-13.74484">
        <ele>194.4</ele>
        <time>2021-07-03 21:15:16</time>
      </trkpt>
      <trkpt lat="28.9495" lon="-13.74489">
        <ele>194.6</ele>
        <time>2021-07-03 21:15:25</time>
      </trkpt>
      <trkpt lat="28.9495" lon="-13.74495">
        <ele>194.6</ele>
        <time>2021-07-03 21:15:26</time>
      </trkpt>
      <trkpt lat="28.94949" lon="-13.745">
        <ele>194.6</ele>
        <time>2021-07-03 21:15:27</time>
      </trkpt>
      <trkpt lat="28.94949" lon="-13.74505">
        <ele>194.8</ele>
        <time>2021-07-03 21:15:28</time>
      </trkpt>
      <trkpt lat="28.94948" lon="-13.7451">
        <ele>194.8</ele>
        <time>2021-07-03 21:15:29</time>
      </trkpt>
      <trkpt lat="28.94947" lon="-13.74515">
        <ele>195</ele>
        <time>2021-07-03 21:15:30</time>
      </trkpt>
      <trkpt lat="28.94946" lon="-13.7452">
        <ele>195</ele>
        <time>2021-07-03 21:15:31</time>
      </trkpt>
      <trkpt lat="28.94945" lon="-13.74525">
        <ele>195</ele>
        <time>2021-07-03 21:15:32</time>
      </trkpt>
      <trkpt lat="28.94944" lon="-13.7453">
        <ele>195</ele>
        <time>2021-07-03 21:15:33</time>
      </trkpt>
      <trkpt lat="28.94943" lon="-13.74536">
        <ele>195</ele>
        <time>2021-07-03 21:15:34</time>
      </trkpt>
      <trkpt lat="28.94942" lon="-13.74541">
        <ele>194.8</ele>
        <time>2021-07-03 21:15:35</time>
      </trkpt>
      <trkpt lat="28.9494" lon="-13.74547">
        <ele>194.8</ele>
        <time>2021-07-03 21:15:36</time>
      </trkpt>
      <trkpt lat="28.94939" lon="-13.74552">
        <ele>194.8</ele>
        <time>2021-07-03 21:15:37</time>
      </trkpt>
      <trkpt lat="28.94938" lon="-13.74557">
        <ele>194.6</ele>
        <time>2021-07-03 21:15:38</time>
      </trkpt>
      <trkpt lat="28.94937" lon="-13.74562">
        <ele>194.6</ele>
        <time>2021-07-03 21:15:39</time>
      </trkpt>
      <trkpt lat="28.94936" lon="-13.74568">
        <ele>194.4</ele>
        <time>2021-07-03 21:15:40</time>
      </trkpt>
      <trkpt lat="28.94934" lon="-13.74574">
        <ele>194.4</ele>
        <time>2021-07-03 21:15:41</time>
      </trkpt>
      <trkpt lat="28.94933" lon="-13.74579">
        <ele>194</ele>
        <time>2021-07-03 21:15:42</time>
      </trkpt>
      <trkpt lat="28.94931" lon="-13.74584">
        <ele>194</ele>
        <time>2021-07-03 21:15:43</time>
      </trkpt>
      <trkpt lat="28.94929" lon="-13.74589">
        <ele>194</ele>
        <time>2021-07-03 21:15:44</time>
      </trkpt>
      <trkpt lat="28.94927" lon="-13.74594">
        <ele>194</ele>
        <time>2021-07-03 21:15:45</time>
      </trkpt>
      <trkpt lat="28.94924" lon="-13.74598">
        <ele>194</ele>
        <time>2021-07-03 21:15:46</time>
      </trkpt>
      <trkpt lat="28.94922" lon="-13.74603">
        <ele>193.8</ele>
        <time>2021-07-03 21:15:47</time>
      </trkpt>
      <trkpt lat="28.9492" lon="-13.74607">
        <ele>193.8</ele>
        <time>2021-07-03 21:15:48</time>
      </trkpt>
      <trkpt lat="28.94917" lon="-13.74612">
        <ele>193.8</ele>
        <time>2021-07-03 21:15:49</time>
      </trkpt>
      <trkpt lat="28.94916" lon="-13.74616">
        <ele>193.4</ele>
        <time>2021-07-03 21:15:50</time>
      </trkpt>
      <trkpt lat="28.94915" lon="-13.74621">
        <ele>193.4</ele>
        <time>2021-07-03 21:15:51</time>
      </trkpt>
      <trkpt lat="28.94914" lon="-13.74626">
        <ele>193.2</ele>
        <time>2021-07-03 21:15:52</time>
      </trkpt>
      <trkpt lat="28.94913" lon="-13.74632">
        <ele>193.2</ele>
        <time>2021-07-03 21:15:53</time>
      </trkpt>
      <trkpt lat="28.94912" lon="-13.74637">
        <ele>193.2</ele>
        <time>2021-07-03 21:15:54</time>
      </trkpt>
      <trkpt lat="28.94913" lon="-13.74642">
        <ele>193.2</ele>
        <time>2021-07-03 21:15:55</time>
      </trkpt>
      <trkpt lat="28.94913" lon="-13.74646">
        <ele>193.2</ele>
        <time>2021-07-03 21:15:56</time>
      </trkpt>
      <trkpt lat="28.94914" lon="-13.7465">
        <ele>193.2</ele>
        <time>2021-07-03 21:15:57</time>
      </trkpt>
      <trkpt lat="28.94916" lon="-13.74654">
        <ele>193.2</ele>
        <time>2021-07-03 21:15:58</time>
      </trkpt>
      <trkpt lat="28.94916" lon="-13.74658">
        <ele>193.6</ele>
        <time>2021-07-03 21:15:59</time>
      </trkpt>
      <trkpt lat="28.94917" lon="-13.74661">
        <ele>193.6</ele>
        <time>2021-07-03 21:16:00</time>
      </trkpt>
      <trkpt lat="28.94917" lon="-13.74664">
        <ele>194</ele>
        <time>2021-07-03 21:16:01</time>
      </trkpt>
      <trkpt lat="28.94918" lon="-13.74667">
        <ele>194</ele>
        <time>2021-07-03 21:16:02</time>
      </trkpt>
      <trkpt lat="28.94918" lon="-13.7467">
        <ele>194.4</ele>
        <time>2021-07-03 21:16:03</time>
      </trkpt>
      <trkpt lat="28.94919" lon="-13.74674">
        <ele>194.8</ele>
        <time>2021-07-03 21:16:04</time>
      </trkpt>
      <trkpt lat="28.9492" lon="-13.74677">
        <ele>195</ele>
        <time>2021-07-03 21:16:05</time>
      </trkpt>
      <trkpt lat="28.9492" lon="-13.74679">
        <ele>195.4</ele>
        <time>2021-07-03 21:16:06</time>
      </trkpt>
      <trkpt lat="28.9492" lon="-13.74682">
        <ele>195.8</ele>
        <time>2021-07-03 21:16:07</time>
      </trkpt>
      <trkpt lat="28.94921" lon="-13.74685">
        <ele>196</ele>
        <time>2021-07-03 21:16:08</time>
      </trkpt>
      <trkpt lat="28.94921" lon="-13.74688">
        <ele>196.4</ele>
        <time>2021-07-03 21:16:09</time>
      </trkpt>
      <trkpt lat="28.94922" lon="-13.74691">
        <ele>196.6</ele>
        <time>2021-07-03 21:16:10</time>
      </trkpt>
      <trkpt lat="28.94922" lon="-13.74694">
        <ele>197</ele>
        <time>2021-07-03 21:16:11</time>
      </trkpt>
      <trkpt lat="28.94923" lon="-13.74696">
        <ele>197.4</ele>
        <time>2021-07-03 21:16:12</time>
      </trkpt>
      <trkpt lat="28.94923" lon="-13.74698">
        <ele>197.8</ele>
        <time>2021-07-03 21:16:13</time>
      </trkpt>
      <trkpt lat="28.94924" lon="-13.74701">
        <ele>198.2</ele>
        <time>2021-07-03 21:16:14</time>
      </trkpt>
      <trkpt lat="28.94925" lon="-13.74703">
        <ele>198.4</ele>
        <time>2021-07-03 21:16:15</time>
      </trkpt>
      <trkpt lat="28.94925" lon="-13.74705">
        <ele>198.8</ele>
        <time>2021-07-03 21:16:16</time>
      </trkpt>
      <trkpt lat="28.94926" lon="-13.74708">
        <ele>199</ele>
        <time>2021-07-03 21:16:17</time>
      </trkpt>
      <trkpt lat="28.94927" lon="-13.74711">
        <ele>199.4</ele>
        <time>2021-07-03 21:16:18</time>
      </trkpt>
      <trkpt lat="28.94927" lon="-13.74714">
        <ele>199.6</ele>
        <time>2021-07-03 21:16:19</time>
      </trkpt>
      <trkpt lat="28.94928" lon="-13.74717">
        <ele>200</ele>
        <time>2021-07-03 21:16:20</time>
      </trkpt>
      <trkpt lat="28.94929" lon="-13.74719">
        <ele>200.2</ele>
        <time>2021-07-03 21:16:21</time>
      </trkpt>
      <trkpt lat="28.94929" lon="-13.74722">
        <ele>200.4</ele>
        <time>2021-07-03 21:16:22</time>
      </trkpt>
      <trkpt lat="28.94929" lon="-13.74725">
        <ele>200.8</ele>
        <time>2021-07-03 21:16:23</time>
      </trkpt>
      <trkpt lat="28.9493" lon="-13.74727">
        <ele>201</ele>
        <time>2021-07-03 21:16:24</time>
      </trkpt>
      <trkpt lat="28.9493" lon="-13.7473">
        <ele>201.4</ele>
        <time>2021-07-03 21:16:25</time>
      </trkpt>
      <trkpt lat="28.94931" lon="-13.74732">
        <ele>201.6</ele>
        <time>2021-07-03 21:16:26</time>
      </trkpt>
      <trkpt lat="28.94932" lon="-13.74734">
        <ele>201.8</ele>
        <time>2021-07-03 21:16:27</time>
      </trkpt>
      <trkpt lat="28.94932" lon="-13.74737">
        <ele>202</ele>
        <time>2021-07-03 21:16:28</time>
      </trkpt>
      <trkpt lat="28.94933" lon="-13.7474">
        <ele>202.4</ele>
        <time>2021-07-03 21:16:29</time>
      </trkpt>
      <trkpt lat="28.94934" lon="-13.74742">
        <ele>202.6</ele>
        <time>2021-07-03 21:16:30</time>
      </trkpt>
      <trkpt lat="28.94935" lon="-13.74744">
        <ele>202.8</ele>
        <time>2021-07-03 21:16:31</time>
      </trkpt>
      <trkpt lat="28.94936" lon="-13.74746">
        <ele>202.8</ele>
        <time>2021-07-03 21:16:32</time>
      </trkpt>
      <trkpt lat="28.94937" lon="-13.74749">
        <ele>203.2</ele>
        <time>2021-07-03 21:16:33</time>
      </trkpt>
      <trkpt lat="28.94938" lon="-13.74751">
        <ele>203.4</ele>
        <time>2021-07-03 21:16:34</time>
      </trkpt>
      <trkpt lat="28.94939" lon="-13.74754">
        <ele>203.4</ele>
        <time>2021-07-03 21:16:35</time>
      </trkpt>
      <trkpt lat="28.9494" lon="-13.74757">
        <ele>203.8</ele>
        <time>2021-07-03 21:16:36</time>
      </trkpt>
      <trkpt lat="28.94941" lon="-13.74759">
        <ele>204</ele>
        <time>2021-07-03 21:16:37</time>
      </trkpt>
      <trkpt lat="28.94942" lon="-13.74761">
        <ele>204</ele>
        <time>2021-07-03 21:16:38</time>
      </trkpt>
      <trkpt lat="28.94943" lon="-13.74763">
        <ele>204.4</ele>
        <time>2021-07-03 21:16:39</time>
      </trkpt>
      <trkpt lat="28.94944" lon="-13.74765">
        <ele>204.6</ele>
        <time>2021-07-03 21:16:40</time>
      </trkpt>
      <trkpt lat="28.94946" lon="-13.74768">
        <ele>205</ele>
        <time>2021-07-03 21:16:41</time>
      </trkpt>
      <trkpt lat="28.94947" lon="-13.7477">
        <ele>205</ele>
        <time>2021-07-03 21:16:42</time>
      </trkpt>
      <trkpt lat="28.94948" lon="-13.74772">
        <ele>205.4</ele>
        <time>2021-07-03 21:16:43</time>
      </trkpt>
      <trkpt lat="28.94949" lon="-13.74775">
        <ele>205.4</ele>
        <time>2021-07-03 21:16:44</time>
      </trkpt>
      <trkpt lat="28.94951" lon="-13.74777">
        <ele>205.6</ele>
        <time>2021-07-03 21:16:45</time>
      </trkpt>
      <trkpt lat="28.94952" lon="-13.74779">
        <ele>205.6</ele>
        <time>2021-07-03 21:16:46</time>
      </trkpt>
      <trkpt lat="28.94953" lon="-13.74781">
        <ele>206</ele>
        <time>2021-07-03 21:16:47</time>
      </trkpt>
      <trkpt lat="28.94954" lon="-13.74784">
        <ele>206</ele>
        <time>2021-07-03 21:16:48</time>
      </trkpt>
      <trkpt lat="28.94955" lon="-13.74786">
        <ele>206.4</ele>
        <time>2021-07-03 21:16:49</time>
      </trkpt>
      <trkpt lat="28.94956" lon="-13.74788">
        <ele>206.6</ele>
        <time>2021-07-03 21:16:50</time>
      </trkpt>
      <trkpt lat="28.94958" lon="-13.7479">
        <ele>206.8</ele>
        <time>2021-07-03 21:16:51</time>
      </trkpt>
      <trkpt lat="28.94959" lon="-13.74792">
        <ele>206.8</ele>
        <time>2021-07-03 21:16:52</time>
      </trkpt>
      <trkpt lat="28.9496" lon="-13.74794">
        <ele>207</ele>
        <time>2021-07-03 21:16:53</time>
      </trkpt>
      <trkpt lat="28.94961" lon="-13.74795">
        <ele>207</ele>
        <time>2021-07-03 21:16:54</time>
      </trkpt>
      <trkpt lat="28.94962" lon="-13.74797">
        <ele>207.2</ele>
        <time>2021-07-03 21:16:55</time>
      </trkpt>
      <trkpt lat="28.94964" lon="-13.74799">
        <ele>207.2</ele>
        <time>2021-07-03 21:16:56</time>
      </trkpt>
      <trkpt lat="28.94965" lon="-13.74801">
        <ele>207.6</ele>
        <time>2021-07-03 21:16:57</time>
      </trkpt>
      <trkpt lat="28.94966" lon="-13.74803">
        <ele>208</ele>
        <time>2021-07-03 21:16:58</time>
      </trkpt>
      <trkpt lat="28.94966" lon="-13.74805">
        <ele>208.2</ele>
        <time>2021-07-03 21:16:59</time>
      </trkpt>
      <trkpt lat="28.94966" lon="-13.74807">
        <ele>208.2</ele>
        <time>2021-07-03 21:17:00</time>
      </trkpt>
      <trkpt lat="28.94967" lon="-13.7481">
        <ele>208.6</ele>
        <time>2021-07-03 21:17:01</time>
      </trkpt>
      <trkpt lat="28.94967" lon="-13.74812">
        <ele>208.6</ele>
        <time>2021-07-03 21:17:02</time>
      </trkpt>
      <trkpt lat="28.94967" lon="-13.74815">
        <ele>208.8</ele>
        <time>2021-07-03 21:17:03</time>
      </trkpt>
      <trkpt lat="28.94967" lon="-13.74817">
        <ele>208.8</ele>
        <time>2021-07-03 21:17:04</time>
      </trkpt>
      <trkpt lat="28.94967" lon="-13.7482">
        <ele>209.2</ele>
        <time>2021-07-03 21:17:05</time>
      </trkpt>
      <trkpt lat="28.94967" lon="-13.74823">
        <ele>209.2</ele>
        <time>2021-07-03 21:17:06</time>
      </trkpt>
      <trkpt lat="28.94968" lon="-13.74825">
        <ele>209.6</ele>
        <time>2021-07-03 21:17:07</time>
      </trkpt>
      <trkpt lat="28.94968" lon="-13.74828">
        <ele>209.6</ele>
        <time>2021-07-03 21:17:08</time>
      </trkpt>
      <trkpt lat="28.94968" lon="-13.74831">
        <ele>210</ele>
        <time>2021-07-03 21:17:09</time>
      </trkpt>
      <trkpt lat="28.94968" lon="-13.74833">
        <ele>210.2</ele>
        <time>2021-07-03 21:17:10</time>
      </trkpt>
      <trkpt lat="28.94968" lon="-13.74836">
        <ele>210.4</ele>
        <time>2021-07-03 21:17:11</time>
      </trkpt>
      <trkpt lat="28.94969" lon="-13.74839">
        <ele>210.4</ele>
        <time>2021-07-03 21:17:12</time>
      </trkpt>
      <trkpt lat="28.94969" lon="-13.74841">
        <ele>210.6</ele>
        <time>2021-07-03 21:17:13</time>
      </trkpt>
      <trkpt lat="28.94969" lon="-13.74844">
        <ele>210.6</ele>
        <time>2021-07-03 21:17:14</time>
      </trkpt>
      <trkpt lat="28.94968" lon="-13.74847">
        <ele>210.6</ele>
        <time>2021-07-03 21:17:15</time>
      </trkpt>
      <trkpt lat="28.94968" lon="-13.74849">
        <ele>211</ele>
        <time>2021-07-03 21:17:16</time>
      </trkpt>
      <trkpt lat="28.94968" lon="-13.74852">
        <ele>211</ele>
        <time>2021-07-03 21:17:17</time>
      </trkpt>
      <trkpt lat="28.94968" lon="-13.74855">
        <ele>211.2</ele>
        <time>2021-07-03 21:17:18</time>
      </trkpt>
      <trkpt lat="28.94968" lon="-13.74858">
        <ele>211.2</ele>
        <time>2021-07-03 21:17:19</time>
      </trkpt>
      <trkpt lat="28.94969" lon="-13.7486">
        <ele>211.6</ele>
        <time>2021-07-03 21:17:20</time>
      </trkpt>
      <trkpt lat="28.94969" lon="-13.74863">
        <ele>211.8</ele>
        <time>2021-07-03 21:17:21</time>
      </trkpt>
      <trkpt lat="28.94969" lon="-13.74866">
        <ele>211.8</ele>
        <time>2021-07-03 21:17:22</time>
      </trkpt>
      <trkpt lat="28.94969" lon="-13.74869">
        <ele>212.2</ele>
        <time>2021-07-03 21:17:23</time>
      </trkpt>
      <trkpt lat="28.94969" lon="-13.74871">
        <ele>212.2</ele>
        <time>2021-07-03 21:17:24</time>
      </trkpt>
      <trkpt lat="28.94969" lon="-13.74874">
        <ele>212.4</ele>
        <time>2021-07-03 21:17:25</time>
      </trkpt>
      <trkpt lat="28.94969" lon="-13.74877">
        <ele>212.4</ele>
        <time>2021-07-03 21:17:26</time>
      </trkpt>
      <trkpt lat="28.94969" lon="-13.74879">
        <ele>212.8</ele>
        <time>2021-07-03 21:17:27</time>
      </trkpt>
      <trkpt lat="28.94969" lon="-13.74882">
        <ele>212.8</ele>
        <time>2021-07-03 21:17:28</time>
      </trkpt>
      <trkpt lat="28.94969" lon="-13.74884">
        <ele>213</ele>
        <time>2021-07-03 21:17:29</time>
      </trkpt>
      <trkpt lat="28.94969" lon="-13.74886">
        <ele>213.2</ele>
        <time>2021-07-03 21:17:30</time>
      </trkpt>
      <trkpt lat="28.94969" lon="-13.74888">
        <ele>213.6</ele>
        <time>2021-07-03 21:17:31</time>
      </trkpt>
      <trkpt lat="28.94969" lon="-13.74889">
        <ele>213.6</ele>
        <time>2021-07-03 21:17:32</time>
      </trkpt>
      <trkpt lat="28.9497" lon="-13.74891">
        <ele>213.8</ele>
        <time>2021-07-03 21:17:33</time>
      </trkpt>
      <trkpt lat="28.94969" lon="-13.74892">
        <ele>213.8</ele>
        <time>2021-07-03 21:17:34</time>
      </trkpt>
      <trkpt lat="28.94969" lon="-13.74893">
        <ele>213.8</ele>
        <time>2021-07-03 21:17:35</time>
      </trkpt>
      <trkpt lat="28.94968" lon="-13.74894">
        <ele>214</ele>
        <time>2021-07-03 21:17:36</time>
      </trkpt>
      <trkpt lat="28.94966" lon="-13.74893">
        <ele>214</ele>
        <time>2021-07-03 21:17:37</time>
      </trkpt>
      <trkpt lat="28.94965" lon="-13.7489">
        <ele>214</ele>
        <time>2021-07-03 21:17:38</time>
      </trkpt>
      <trkpt lat="28.94965" lon="-13.74887">
        <ele>214</ele>
        <time>2021-07-03 21:17:39</time>
      </trkpt>
      <trkpt lat="28.94966" lon="-13.74883">
        <ele>214</ele>
        <time>2021-07-03 21:17:40</time>
      </trkpt>
      <trkpt lat="28.94967" lon="-13.74879">
        <ele>214</ele>
        <time>2021-07-03 21:17:41</time>
      </trkpt>
      <trkpt lat="28.9497" lon="-13.74876">
        <ele>213.8</ele>
        <time>2021-07-03 21:17:42</time>
      </trkpt>
      <trkpt lat="28.94974" lon="-13.74875">
        <ele>213.8</ele>
        <time>2021-07-03 21:17:43</time>
      </trkpt>
      <trkpt lat="28.94978" lon="-13.74875">
        <ele>213.6</ele>
        <time>2021-07-03 21:17:44</time>
      </trkpt>
      <trkpt lat="28.94982" lon="-13.74875">
        <ele>213.6</ele>
        <time>2021-07-03 21:17:45</time>
      </trkpt>
      <trkpt lat="28.94985" lon="-13.74875">
        <ele>213.6</ele>
        <time>2021-07-03 21:17:46</time>
      </trkpt>
      <trkpt lat="28.94989" lon="-13.74875">
        <ele>213.6</ele>
        <time>2021-07-03 21:17:47</time>
      </trkpt>
      <trkpt lat="28.94992" lon="-13.74875">
        <ele>213.6</ele>
        <time>2021-07-03 21:17:48</time>
      </trkpt>
      <trkpt lat="28.94996" lon="-13.74876">
        <ele>213.6</ele>
        <time>2021-07-03 21:17:49</time>
      </trkpt>
      <trkpt lat="28.95" lon="-13.74877">
        <ele>213.6</ele>
        <time>2021-07-03 21:17:50</time>
      </trkpt>
      <trkpt lat="28.95004" lon="-13.74878">
        <ele>213.6</ele>
        <time>2021-07-03 21:17:51</time>
      </trkpt>
      <trkpt lat="28.95008" lon="-13.74879">
        <ele>213.6</ele>
        <time>2021-07-03 21:17:52</time>
      </trkpt>
      <trkpt lat="28.95012" lon="-13.7488">
        <ele>213.8</ele>
        <time>2021-07-03 21:17:53</time>
      </trkpt>
      <trkpt lat="28.95016" lon="-13.74881">
        <ele>213.8</ele>
        <time>2021-07-03 21:17:54</time>
      </trkpt>
      <trkpt lat="28.9502" lon="-13.74883">
        <ele>213.8</ele>
        <time>2021-07-03 21:17:55</time>
      </trkpt>
      <trkpt lat="28.95024" lon="-13.74884">
        <ele>213.8</ele>
        <time>2021-07-03 21:17:56</time>
      </trkpt>
      <trkpt lat="28.95029" lon="-13.74886">
        <ele>213.8</ele>
        <time>2021-07-03 21:17:57</time>
      </trkpt>
      <trkpt lat="28.95033" lon="-13.74887">
        <ele>213.8</ele>
        <time>2021-07-03 21:17:58</time>
      </trkpt>
      <trkpt lat="28.95038" lon="-13.74888">
        <ele>213.8</ele>
        <time>2021-07-03 21:17:59</time>
      </trkpt>
      <trkpt lat="28.95042" lon="-13.74889">
        <ele>213.8</ele>
        <time>2021-07-03 21:18:00</time>
      </trkpt>
      <trkpt lat="28.95047" lon="-13.7489">
        <ele>213.6</ele>
        <time>2021-07-03 21:18:01</time>
      </trkpt>
      <trkpt lat="28.95051" lon="-13.74891">
        <ele>213.6</ele>
        <time>2021-07-03 21:18:02</time>
      </trkpt>
      <trkpt lat="28.95056" lon="-13.74893">
        <ele>213.6</ele>
        <time>2021-07-03 21:18:03</time>
      </trkpt>
      <trkpt lat="28.9506" lon="-13.74896">
        <ele>213.2</ele>
        <time>2021-07-03 21:18:04</time>
      </trkpt>
      <trkpt lat="28.95064" lon="-13.74897">
        <ele>213.2</ele>
        <time>2021-07-03 21:18:05</time>
      </trkpt>
      <trkpt lat="28.95068" lon="-13.74899">
        <ele>213</ele>
        <time>2021-07-03 21:18:06</time>
      </trkpt>
      <trkpt lat="28.95072" lon="-13.74902">
        <ele>213</ele>
        <time>2021-07-03 21:18:07</time>
      </trkpt>
      <trkpt lat="28.95076" lon="-13.74905">
        <ele>213</ele>
        <time>2021-07-03 21:18:08</time>
      </trkpt>
      <trkpt lat="28.9508" lon="-13.74908">
        <ele>212.8</ele>
        <time>2021-07-03 21:18:09</time>
      </trkpt>
      <trkpt lat="28.95083" lon="-13.74912">
        <ele>212.8</ele>
        <time>2021-07-03 21:18:10</time>
      </trkpt>
      <trkpt lat="28.95087" lon="-13.74916">
        <ele>212.8</ele>
        <time>2021-07-03 21:18:11</time>
      </trkpt>
      <trkpt lat="28.9509" lon="-13.74919">
        <ele>212.8</ele>
        <time>2021-07-03 21:18:12</time>
      </trkpt>
      <trkpt lat="28.95093" lon="-13.74923">
        <ele>212.8</ele>
        <time>2021-07-03 21:18:13</time>
      </trkpt>
      <trkpt lat="28.95097" lon="-13.74927">
        <ele>212.4</ele>
        <time>2021-07-03 21:18:14</time>
      </trkpt>
      <trkpt lat="28.951" lon="-13.74932">
        <ele>212.4</ele>
        <time>2021-07-03 21:18:15</time>
      </trkpt>
      <trkpt lat="28.95103" lon="-13.74936">
        <ele>212.2</ele>
        <time>2021-07-03 21:18:16</time>
      </trkpt>
      <trkpt lat="28.95107" lon="-13.7494">
        <ele>212.2</ele>
        <time>2021-07-03 21:18:17</time>
      </trkpt>
      <trkpt lat="28.95111" lon="-13.74942">
        <ele>211.8</ele>
        <time>2021-07-03 21:18:18</time>
      </trkpt>
      <trkpt lat="28.95115" lon="-13.74945">
        <ele>211.6</ele>
        <time>2021-07-03 21:18:19</time>
      </trkpt>
      <trkpt lat="28.95119" lon="-13.74947">
        <ele>211.6</ele>
        <time>2021-07-03 21:18:20</time>
      </trkpt>
      <trkpt lat="28.95124" lon="-13.7495">
        <ele>211.4</ele>
        <time>2021-07-03 21:18:21</time>
      </trkpt>
      <trkpt lat="28.95129" lon="-13.74952">
        <ele>211.4</ele>
        <time>2021-07-03 21:18:22</time>
      </trkpt>
      <trkpt lat="28.95133" lon="-13.74954">
        <ele>211.4</ele>
        <time>2021-07-03 21:18:23</time>
      </trkpt>
      <trkpt lat="28.95138" lon="-13.74956">
        <ele>211.4</ele>
        <time>2021-07-03 21:18:24</time>
      </trkpt>
      <trkpt lat="28.95143" lon="-13.74958">
        <ele>211.4</ele>
        <time>2021-07-03 21:18:25</time>
      </trkpt>
      <trkpt lat="28.95147" lon="-13.74961">
        <ele>211.4</ele>
        <time>2021-07-03 21:18:26</time>
      </trkpt>
      <trkpt lat="28.95152" lon="-13.74963">
        <ele>211.4</ele>
        <time>2021-07-03 21:18:27</time>
      </trkpt>
      <trkpt lat="28.95156" lon="-13.74965">
        <ele>211.6</ele>
        <time>2021-07-03 21:18:28</time>
      </trkpt>
      <trkpt lat="28.95161" lon="-13.74967">
        <ele>211.6</ele>
        <time>2021-07-03 21:18:29</time>
      </trkpt>
      <trkpt lat="28.95166" lon="-13.74968">
        <ele>211.6</ele>
        <time>2021-07-03 21:18:30</time>
      </trkpt>
      <trkpt lat="28.95171" lon="-13.7497">
        <ele>212</ele>
        <time>2021-07-03 21:18:31</time>
      </trkpt>
      <trkpt lat="28.95175" lon="-13.74972">
        <ele>212</ele>
        <time>2021-07-03 21:18:32</time>
      </trkpt>
      <trkpt lat="28.9518" lon="-13.74973">
        <ele>212</ele>
        <time>2021-07-03 21:18:33</time>
      </trkpt>
      <trkpt lat="28.95185" lon="-13.74975">
        <ele>212.2</ele>
        <time>2021-07-03 21:18:34</time>
      </trkpt>
      <trkpt lat="28.9519" lon="-13.74977">
        <ele>212.2</ele>
        <time>2021-07-03 21:18:35</time>
      </trkpt>
      <trkpt lat="28.95195" lon="-13.74979">
        <ele>212.2</ele>
        <time>2021-07-03 21:18:36</time>
      </trkpt>
      <trkpt lat="28.952" lon="-13.74982">
        <ele>212.2</ele>
        <time>2021-07-03 21:18:37</time>
      </trkpt>
      <trkpt lat="28.95204" lon="-13.74984">
        <ele>211.8</ele>
        <time>2021-07-03 21:18:38</time>
      </trkpt>
      <trkpt lat="28.95209" lon="-13.74987">
        <ele>211.8</ele>
        <time>2021-07-03 21:18:39</time>
      </trkpt>
      <trkpt lat="28.95214" lon="-13.74989">
        <ele>211.4</ele>
        <time>2021-07-03 21:18:40</time>
      </trkpt>
      <trkpt lat="28.95218" lon="-13.74992">
        <ele>211.4</ele>
        <time>2021-07-03 21:18:41</time>
      </trkpt>
      <trkpt lat="28.95223" lon="-13.74995">
        <ele>211.2</ele>
        <time>2021-07-03 21:18:42</time>
      </trkpt>
      <trkpt lat="28.95227" lon="-13.74997">
        <ele>211.2</ele>
        <time>2021-07-03 21:18:43</time>
      </trkpt>
      <trkpt lat="28.95232" lon="-13.75">
        <ele>210.8</ele>
        <time>2021-07-03 21:18:44</time>
      </trkpt>
      <trkpt lat="28.95237" lon="-13.75003">
        <ele>210.8</ele>
        <time>2021-07-03 21:18:45</time>
      </trkpt>
      <trkpt lat="28.95242" lon="-13.75007">
        <ele>210.8</ele>
        <time>2021-07-03 21:18:46</time>
      </trkpt>
      <trkpt lat="28.95247" lon="-13.7501">
        <ele>210.8</ele>
        <time>2021-07-03 21:18:47</time>
      </trkpt>
      <trkpt lat="28.95252" lon="-13.75013">
        <ele>210.8</ele>
        <time>2021-07-03 21:18:48</time>
      </trkpt>
      <trkpt lat="28.95257" lon="-13.75017">
        <ele>210.6</ele>
        <time>2021-07-03 21:18:49</time>
      </trkpt>
      <trkpt lat="28.95261" lon="-13.7502">
        <ele>210.6</ele>
        <time>2021-07-03 21:18:50</time>
      </trkpt>
      <trkpt lat="28.95265" lon="-13.75024">
        <ele>210.2</ele>
        <time>2021-07-03 21:18:51</time>
      </trkpt>
      <trkpt lat="28.95268" lon="-13.75027">
        <ele>210</ele>
        <time>2021-07-03 21:18:52</time>
      </trkpt>
      <trkpt lat="28.95272" lon="-13.75031">
        <ele>210</ele>
        <time>2021-07-03 21:18:53</time>
      </trkpt>
      <trkpt lat="28.95276" lon="-13.75035">
        <ele>209.8</ele>
        <time>2021-07-03 21:18:54</time>
      </trkpt>
      <trkpt lat="28.9528" lon="-13.75039">
        <ele>209.8</ele>
        <time>2021-07-03 21:18:55</time>
      </trkpt>
      <trkpt lat="28.95284" lon="-13.75043">
        <ele>209.6</ele>
        <time>2021-07-03 21:18:56</time>
      </trkpt>
      <trkpt lat="28.95287" lon="-13.75047">
        <ele>209.6</ele>
        <time>2021-07-03 21:18:57</time>
      </trkpt>
      <trkpt lat="28.95291" lon="-13.75051">
        <ele>209.6</ele>
        <time>2021-07-03 21:18:58</time>
      </trkpt>
      <trkpt lat="28.95295" lon="-13.75055">
        <ele>209.6</ele>
        <time>2021-07-03 21:18:59</time>
      </trkpt>
      <trkpt lat="28.95299" lon="-13.7506">
        <ele>209.6</ele>
        <time>2021-07-03 21:19:00</time>
      </trkpt>
      <trkpt lat="28.95303" lon="-13.75064">
        <ele>209.6</ele>
        <time>2021-07-03 21:19:01</time>
      </trkpt>
      <trkpt lat="28.95306" lon="-13.75068">
        <ele>209.6</ele>
        <time>2021-07-03 21:19:02</time>
      </trkpt>
      <trkpt lat="28.9531" lon="-13.75072">
        <ele>209.6</ele>
        <time>2021-07-03 21:19:03</time>
      </trkpt>
      <trkpt lat="28.95314" lon="-13.75076">
        <ele>210</ele>
        <time>2021-07-03 21:19:04</time>
      </trkpt>
      <trkpt lat="28.95317" lon="-13.75079">
        <ele>210</ele>
        <time>2021-07-03 21:19:05</time>
      </trkpt>
      <trkpt lat="28.9532" lon="-13.75083">
        <ele>210</ele>
        <time>2021-07-03 21:19:06</time>
      </trkpt>
      <trkpt lat="28.95324" lon="-13.75086">
        <ele>210.2</ele>
        <time>2021-07-03 21:19:07</time>
      </trkpt>
      <trkpt lat="28.95328" lon="-13.7509">
        <ele>210.2</ele>
        <time>2021-07-03 21:19:08</time>
      </trkpt>
      <trkpt lat="28.95331" lon="-13.75093">
        <ele>210.4</ele>
        <time>2021-07-03 21:19:09</time>
      </trkpt>
      <trkpt lat="28.95334" lon="-13.75096">
        <ele>210.4</ele>
        <time>2021-07-03 21:19:10</time>
      </trkpt>
      <trkpt lat="28.95337" lon="-13.75099">
        <ele>210.4</ele>
        <time>2021-07-03 21:19:11</time>
      </trkpt>
      <trkpt lat="28.95341" lon="-13.75102">
        <ele>210.4</ele>
        <time>2021-07-03 21:19:12</time>
      </trkpt>
      <trkpt lat="28.95344" lon="-13.75105">
        <ele>210.4</ele>
        <time>2021-07-03 21:19:13</time>
      </trkpt>
      <trkpt lat="28.95348" lon="-13.75108">
        <ele>210.4</ele>
        <time>2021-07-03 21:19:14</time>
      </trkpt>
      <trkpt lat="28.95352" lon="-13.75111">
        <ele>210.4</ele>
        <time>2021-07-03 21:19:15</time>
      </trkpt>
      <trkpt lat="28.95355" lon="-13.75114">
        <ele>210.4</ele>
        <time>2021-07-03 21:19:16</time>
      </trkpt>
      <trkpt lat="28.95359" lon="-13.75117">
        <ele>210.4</ele>
        <time>2021-07-03 21:19:17</time>
      </trkpt>
      <trkpt lat="28.95363" lon="-13.7512">
        <ele>210.4</ele>
        <time>2021-07-03 21:19:18</time>
      </trkpt>
      <trkpt lat="28.95367" lon="-13.75122">
        <ele>210.4</ele>
        <time>2021-07-03 21:19:19</time>
      </trkpt>
      <trkpt lat="28.9537" lon="-13.75125">
        <ele>210.4</ele>
        <time>2021-07-03 21:19:20</time>
      </trkpt>
      <trkpt lat="28.95374" lon="-13.75128">
        <ele>210.2</ele>
        <time>2021-07-03 21:19:21</time>
      </trkpt>
      <trkpt lat="28.95378" lon="-13.75131">
        <ele>210</ele>
        <time>2021-07-03 21:19:22</time>
      </trkpt>
      <trkpt lat="28.95382" lon="-13.75134">
        <ele>209.6</ele>
        <time>2021-07-03 21:19:23</time>
      </trkpt>
      <trkpt lat="28.95386" lon="-13.75137">
        <ele>209.4</ele>
        <time>2021-07-03 21:19:24</time>
      </trkpt>
      <trkpt lat="28.9539" lon="-13.75141">
        <ele>209.2</ele>
        <time>2021-07-03 21:19:25</time>
      </trkpt>
      <trkpt lat="28.95393" lon="-13.75144">
        <ele>209</ele>
        <time>2021-07-03 21:19:26</time>
      </trkpt>
      <trkpt lat="28.95397" lon="-13.75147">
        <ele>209</ele>
        <time>2021-07-03 21:19:27</time>
      </trkpt>
      <trkpt lat="28.954" lon="-13.75151">
        <ele>208.6</ele>
        <time>2021-07-03 21:19:28</time>
      </trkpt>
      <trkpt lat="28.95404" lon="-13.75154">
        <ele>208.6</ele>
        <time>2021-07-03 21:19:29</time>
      </trkpt>
      <trkpt lat="28.95408" lon="-13.75158">
        <ele>208.4</ele>
        <time>2021-07-03 21:19:30</time>
      </trkpt>
      <trkpt lat="28.95411" lon="-13.75161">
        <ele>208.2</ele>
        <time>2021-07-03 21:19:31</time>
      </trkpt>
      <trkpt lat="28.95415" lon="-13.75164">
        <ele>208</ele>
        <time>2021-07-03 21:19:32</time>
      </trkpt>
      <trkpt lat="28.95419" lon="-13.75168">
        <ele>207.6</ele>
        <time>2021-07-03 21:19:33</time>
      </trkpt>
      <trkpt lat="28.95422" lon="-13.75172">
        <ele>207.2</ele>
        <time>2021-07-03 21:19:34</time>
      </trkpt>
      <trkpt lat="28.95426" lon="-13.75175">
        <ele>207</ele>
        <time>2021-07-03 21:19:35</time>
      </trkpt>
      <trkpt lat="28.95429" lon="-13.75179">
        <ele>206.8</ele>
        <time>2021-07-03 21:19:36</time>
      </trkpt>
      <trkpt lat="28.95432" lon="-13.75183">
        <ele>206.6</ele>
        <time>2021-07-03 21:19:37</time>
      </trkpt>
      <trkpt lat="28.95435" lon="-13.75187">
        <ele>206.6</ele>
        <time>2021-07-03 21:19:38</time>
      </trkpt>
      <trkpt lat="28.95438" lon="-13.7519">
        <ele>206.2</ele>
        <time>2021-07-03 21:19:39</time>
      </trkpt>
      <trkpt lat="28.9544" lon="-13.75194">
        <ele>206.2</ele>
        <time>2021-07-03 21:19:40</time>
      </trkpt>
      <trkpt lat="28.95443" lon="-13.75198">
        <ele>206</ele>
        <time>2021-07-03 21:19:41</time>
      </trkpt>
      <trkpt lat="28.95446" lon="-13.75201">
        <ele>205.8</ele>
        <time>2021-07-03 21:19:42</time>
      </trkpt>
      <trkpt lat="28.95449" lon="-13.75205">
        <ele>205.8</ele>
        <time>2021-07-03 21:19:43</time>
      </trkpt>
      <trkpt lat="28.95452" lon="-13.75209">
        <ele>205.4</ele>
        <time>2021-07-03 21:19:44</time>
      </trkpt>
      <trkpt lat="28.95456" lon="-13.75212">
        <ele>205.4</ele>
        <time>2021-07-03 21:19:45</time>
      </trkpt>
      <trkpt lat="28.95459" lon="-13.75216">
        <ele>205.2</ele>
        <time>2021-07-03 21:19:46</time>
      </trkpt>
      <trkpt lat="28.95462" lon="-13.7522">
        <ele>205.2</ele>
        <time>2021-07-03 21:19:47</time>
      </trkpt>
      <trkpt lat="28.95465" lon="-13.75224">
        <ele>204.8</ele>
        <time>2021-07-03 21:19:48</time>
      </trkpt>
      <trkpt lat="28.95468" lon="-13.75227">
        <ele>204.8</ele>
        <time>2021-07-03 21:19:49</time>
      </trkpt>
      <trkpt lat="28.95471" lon="-13.75232">
        <ele>204.6</ele>
        <time>2021-07-03 21:19:50</time>
      </trkpt>
      <trkpt lat="28.95475" lon="-13.75236">
        <ele>204.6</ele>
        <time>2021-07-03 21:19:51</time>
      </trkpt>
      <trkpt lat="28.95478" lon="-13.75241">
        <ele>204.2</ele>
        <time>2021-07-03 21:19:52</time>
      </trkpt>
      <trkpt lat="28.95481" lon="-13.75246">
        <ele>204</ele>
        <time>2021-07-03 21:19:53</time>
      </trkpt>
      <trkpt lat="28.95484" lon="-13.7525">
        <ele>203.6</ele>
        <time>2021-07-03 21:19:54</time>
      </trkpt>
      <trkpt lat="28.95487" lon="-13.75255">
        <ele>203.2</ele>
        <time>2021-07-03 21:19:55</time>
      </trkpt>
      <trkpt lat="28.95491" lon="-13.7526">
        <ele>202.8</ele>
        <time>2021-07-03 21:19:56</time>
      </trkpt>
      <trkpt lat="28.95495" lon="-13.75265">
        <ele>202.4</ele>
        <time>2021-07-03 21:19:57</time>
      </trkpt>
      <trkpt lat="28.95499" lon="-13.75271">
        <ele>202.2</ele>
        <time>2021-07-03 21:19:58</time>
      </trkpt>
      <trkpt lat="28.95503" lon="-13.75277">
        <ele>201.8</ele>
        <time>2021-07-03 21:19:59</time>
      </trkpt>
      <trkpt lat="28.95507" lon="-13.75281">
        <ele>201.6</ele>
        <time>2021-07-03 21:20:00</time>
      </trkpt>
      <trkpt lat="28.9551" lon="-13.75284">
        <ele>201.2</ele>
        <time>2021-07-03 21:20:01</time>
      </trkpt>
      <trkpt lat="28.95512" lon="-13.75286">
        <ele>201.2</ele>
        <time>2021-07-03 21:20:02</time>
      </trkpt>
      <trkpt lat="28.95514" lon="-13.75287">
        <ele>200.8</ele>
        <time>2021-07-03 21:20:03</time>
      </trkpt>
      <trkpt lat="28.95516" lon="-13.75288">
        <ele>200.8</ele>
        <time>2021-07-03 21:20:04</time>
      </trkpt>
      <trkpt lat="28.95518" lon="-13.75289">
        <ele>200.8</ele>
        <time>2021-07-03 21:20:05</time>
      </trkpt>
      <trkpt lat="28.9552" lon="-13.7529">
        <ele>200.8</ele>
        <time>2021-07-03 21:20:06</time>
      </trkpt>
      <trkpt lat="28.95522" lon="-13.75291">
        <ele>200.8</ele>
        <time>2021-07-03 21:20:07</time>
      </trkpt>
      <trkpt lat="28.95523" lon="-13.75292">
        <ele>200.8</ele>
        <time>2021-07-03 21:20:08</time>
      </trkpt>
      <trkpt lat="28.95525" lon="-13.75293">
        <ele>200.8</ele>
        <time>2021-07-03 21:20:09</time>
      </trkpt>
      <trkpt lat="28.95526" lon="-13.75296">
        <ele>200.8</ele>
        <time>2021-07-03 21:20:10</time>
      </trkpt>
      <trkpt lat="28.95528" lon="-13.75297">
        <ele>200.8</ele>
        <time>2021-07-03 21:20:11</time>
      </trkpt>
      <trkpt lat="28.9553" lon="-13.75298">
        <ele>200.8</ele>
        <time>2021-07-03 21:20:12</time>
      </trkpt>
      <trkpt lat="28.95532" lon="-13.75299">
        <ele>201.2</ele>
        <time>2021-07-03 21:20:13</time>
      </trkpt>
      <trkpt lat="28.95534" lon="-13.753">
        <ele>201.2</ele>
        <time>2021-07-03 21:20:14</time>
      </trkpt>
      <trkpt lat="28.95537" lon="-13.75301">
        <ele>201.2</ele>
        <time>2021-07-03 21:20:15</time>
      </trkpt>
      <trkpt lat="28.9554" lon="-13.75302">
        <ele>201.2</ele>
        <time>2021-07-03 21:20:16</time>
      </trkpt>
      <trkpt lat="28.95543" lon="-13.75304">
        <ele>201.2</ele>
        <time>2021-07-03 21:20:17</time>
      </trkpt>
      <trkpt lat="28.95546" lon="-13.75305">
        <ele>201.2</ele>
        <time>2021-07-03 21:20:18</time>
      </trkpt>
      <trkpt lat="28.95549" lon="-13.75306">
        <ele>201</ele>
        <time>2021-07-03 21:20:19</time>
      </trkpt>
      <trkpt lat="28.95552" lon="-13.75307">
        <ele>201</ele>
        <time>2021-07-03 21:20:20</time>
      </trkpt>
      <trkpt lat="28.95555" lon="-13.75308">
        <ele>201</ele>
        <time>2021-07-03 21:20:21</time>
      </trkpt>
      <trkpt lat="28.95558" lon="-13.75308">
        <ele>201</ele>
        <time>2021-07-03 21:20:22</time>
      </trkpt>
      <trkpt lat="28.95561" lon="-13.75308">
        <ele>201</ele>
        <time>2021-07-03 21:20:23</time>
      </trkpt>
      <trkpt lat="28.95564" lon="-13.75309">
        <ele>201</ele>
        <time>2021-07-03 21:20:24</time>
      </trkpt>
      <trkpt lat="28.95567" lon="-13.75312">
        <ele>201</ele>
        <time>2021-07-03 21:20:25</time>
      </trkpt>
      <trkpt lat="28.95569" lon="-13.75315">
        <ele>201</ele>
        <time>2021-07-03 21:20:26</time>
      </trkpt>
      <trkpt lat="28.95571" lon="-13.75318">
        <ele>201</ele>
        <time>2021-07-03 21:20:27</time>
      </trkpt>
      <trkpt lat="28.95574" lon="-13.75321">
        <ele>201</ele>
        <time>2021-07-03 21:20:28</time>
      </trkpt>
      <trkpt lat="28.95576" lon="-13.75323">
        <ele>201</ele>
        <time>2021-07-03 21:20:29</time>
      </trkpt>
      <trkpt lat="28.95579" lon="-13.75325">
        <ele>201</ele>
        <time>2021-07-03 21:20:30</time>
      </trkpt>
      <trkpt lat="28.95582" lon="-13.75327">
        <ele>200.8</ele>
        <time>2021-07-03 21:20:31</time>
      </trkpt>
      <trkpt lat="28.95585" lon="-13.75327">
        <ele>200.8</ele>
        <time>2021-07-03 21:20:32</time>
      </trkpt>
      <trkpt lat="28.95588" lon="-13.75328">
        <ele>200.8</ele>
        <time>2021-07-03 21:20:33</time>
      </trkpt>
      <trkpt lat="28.9559" lon="-13.7533">
        <ele>200.8</ele>
        <time>2021-07-03 21:20:34</time>
      </trkpt>
      <trkpt lat="28.95593" lon="-13.75332">
        <ele>200.8</ele>
        <time>2021-07-03 21:20:35</time>
      </trkpt>
      <trkpt lat="28.95595" lon="-13.75335">
        <ele>201</ele>
        <time>2021-07-03 21:20:36</time>
      </trkpt>
      <trkpt lat="28.95597" lon="-13.75337">
        <ele>201</ele>
        <time>2021-07-03 21:20:37</time>
      </trkpt>
      <trkpt lat="28.95599" lon="-13.7534">
        <ele>201.2</ele>
        <time>2021-07-03 21:20:38</time>
      </trkpt>
      <trkpt lat="28.95602" lon="-13.75343">
        <ele>201.2</ele>
        <time>2021-07-03 21:20:39</time>
      </trkpt>
      <trkpt lat="28.95604" lon="-13.75347">
        <ele>201.2</ele>
        <time>2021-07-03 21:20:40</time>
      </trkpt>
      <trkpt lat="28.95605" lon="-13.7535">
        <ele>201.4</ele>
        <time>2021-07-03 21:20:41</time>
      </trkpt>
      <trkpt lat="28.95607" lon="-13.75354">
        <ele>201.4</ele>
        <time>2021-07-03 21:20:42</time>
      </trkpt>
      <trkpt lat="28.95609" lon="-13.75358">
        <ele>201.6</ele>
        <time>2021-07-03 21:20:43</time>
      </trkpt>
      <trkpt lat="28.9561" lon="-13.75361">
        <ele>201.6</ele>
        <time>2021-07-03 21:20:44</time>
      </trkpt>
      <trkpt lat="28.95612" lon="-13.75365">
        <ele>201.6</ele>
        <time>2021-07-03 21:20:45</time>
      </trkpt>
      <trkpt lat="28.95613" lon="-13.75368">
        <ele>201.8</ele>
        <time>2021-07-03 21:20:46</time>
      </trkpt>
      <trkpt lat="28.95614" lon="-13.75373">
        <ele>201.8</ele>
        <time>2021-07-03 21:20:47</time>
      </trkpt>
      <trkpt lat="28.95615" lon="-13.75376">
        <ele>201.8</ele>
        <time>2021-07-03 21:20:48</time>
      </trkpt>
      <trkpt lat="28.95618" lon="-13.75379">
        <ele>201.8</ele>
        <time>2021-07-03 21:20:49</time>
      </trkpt>
      <trkpt lat="28.95621" lon="-13.75382">
        <ele>201.6</ele>
        <time>2021-07-03 21:20:50</time>
      </trkpt>
      <trkpt lat="28.95623" lon="-13.75385">
        <ele>201.6</ele>
        <time>2021-07-03 21:20:51</time>
      </trkpt>
      <trkpt lat="28.95625" lon="-13.75389">
        <ele>201.6</ele>
        <time>2021-07-03 21:20:52</time>
      </trkpt>
      <trkpt lat="28.95627" lon="-13.75392">
        <ele>201.6</ele>
        <time>2021-07-03 21:20:53</time>
      </trkpt>
      <trkpt lat="28.9563" lon="-13.75396">
        <ele>201.6</ele>
        <time>2021-07-03 21:20:54</time>
      </trkpt>
      <trkpt lat="28.95632" lon="-13.754">
        <ele>201.4</ele>
        <time>2021-07-03 21:20:55</time>
      </trkpt>
      <trkpt lat="28.95634" lon="-13.75404">
        <ele>201.4</ele>
        <time>2021-07-03 21:20:56</time>
      </trkpt>
      <trkpt lat="28.95635" lon="-13.75408">
        <ele>201.4</ele>
        <time>2021-07-03 21:20:57</time>
      </trkpt>
      <trkpt lat="28.95637" lon="-13.75413">
        <ele>201</ele>
        <time>2021-07-03 21:20:58</time>
      </trkpt>
      <trkpt lat="28.95638" lon="-13.75417">
        <ele>201</ele>
        <time>2021-07-03 21:20:59</time>
      </trkpt>
      <trkpt lat="28.9564" lon="-13.75421">
        <ele>200.8</ele>
        <time>2021-07-03 21:21:00</time>
      </trkpt>
      <trkpt lat="28.95641" lon="-13.75425">
        <ele>200.8</ele>
        <time>2021-07-03 21:21:01</time>
      </trkpt>
      <trkpt lat="28.95642" lon="-13.75429">
        <ele>200.8</ele>
        <time>2021-07-03 21:21:02</time>
      </trkpt>
      <trkpt lat="28.95642" lon="-13.75433">
        <ele>200.8</ele>
        <time>2021-07-03 21:21:03</time>
      </trkpt>
      <trkpt lat="28.95643" lon="-13.75438">
        <ele>200.6</ele>
        <time>2021-07-03 21:21:04</time>
      </trkpt>
      <trkpt lat="28.95645" lon="-13.75442">
        <ele>200.6</ele>
        <time>2021-07-03 21:21:05</time>
      </trkpt>
      <trkpt lat="28.95647" lon="-13.75445">
        <ele>200.6</ele>
        <time>2021-07-03 21:21:06</time>
      </trkpt>
      <trkpt lat="28.95649" lon="-13.75448">
        <ele>200.6</ele>
        <time>2021-07-03 21:21:07</time>
      </trkpt>
      <trkpt lat="28.95651" lon="-13.75452">
        <ele>200.6</ele>
        <time>2021-07-03 21:21:08</time>
      </trkpt>
      <trkpt lat="28.95652" lon="-13.75455">
        <ele>200.6</ele>
        <time>2021-07-03 21:21:09</time>
      </trkpt>
      <trkpt lat="28.95654" lon="-13.75459">
        <ele>200.6</ele>
        <time>2021-07-03 21:21:10</time>
      </trkpt>
      <trkpt lat="28.95657" lon="-13.75463">
        <ele>200.4</ele>
        <time>2021-07-03 21:21:11</time>
      </trkpt>
      <trkpt lat="28.95659" lon="-13.75466">
        <ele>200.4</ele>
        <time>2021-07-03 21:21:12</time>
      </trkpt>
      <trkpt lat="28.95662" lon="-13.75469">
        <ele>200.4</ele>
        <time>2021-07-03 21:21:13</time>
      </trkpt>
      <trkpt lat="28.95664" lon="-13.75472">
        <ele>200.4</ele>
        <time>2021-07-03 21:21:14</time>
      </trkpt>
      <trkpt lat="28.95665" lon="-13.75476">
        <ele>200</ele>
        <time>2021-07-03 21:21:15</time>
      </trkpt>
      <trkpt lat="28.95666" lon="-13.75479">
        <ele>200</ele>
        <time>2021-07-03 21:21:16</time>
      </trkpt>
      <trkpt lat="28.95667" lon="-13.75482">
        <ele>199.8</ele>
        <time>2021-07-03 21:21:17</time>
      </trkpt>
      <trkpt lat="28.95669" lon="-13.75486">
        <ele>199.4</ele>
        <time>2021-07-03 21:21:18</time>
      </trkpt>
      <trkpt lat="28.9567" lon="-13.75489">
        <ele>199.2</ele>
        <time>2021-07-03 21:21:19</time>
      </trkpt>
      <trkpt lat="28.95672" lon="-13.75493">
        <ele>199.2</ele>
        <time>2021-07-03 21:21:20</time>
      </trkpt>
      <trkpt lat="28.95675" lon="-13.75497">
        <ele>199</ele>
        <time>2021-07-03 21:21:21</time>
      </trkpt>
      <trkpt lat="28.95677" lon="-13.755">
        <ele>199</ele>
        <time>2021-07-03 21:21:22</time>
      </trkpt>
      <trkpt lat="28.9568" lon="-13.75503">
        <ele>199</ele>
        <time>2021-07-03 21:21:23</time>
      </trkpt>
      <trkpt lat="28.95683" lon="-13.75505">
        <ele>199</ele>
        <time>2021-07-03 21:21:24</time>
      </trkpt>
      <trkpt lat="28.95686" lon="-13.75508">
        <ele>199</ele>
        <time>2021-07-03 21:21:25</time>
      </trkpt>
      <trkpt lat="28.95688" lon="-13.75511">
        <ele>198.6</ele>
        <time>2021-07-03 21:21:26</time>
      </trkpt>
      <trkpt lat="28.9569" lon="-13.75515">
        <ele>198.6</ele>
        <time>2021-07-03 21:21:27</time>
      </trkpt>
      <trkpt lat="28.95692" lon="-13.75519">
        <ele>198.6</ele>
        <time>2021-07-03 21:21:28</time>
      </trkpt>
      <trkpt lat="28.95694" lon="-13.75523">
        <ele>198.6</ele>
        <time>2021-07-03 21:21:29</time>
      </trkpt>
      <trkpt lat="28.95696" lon="-13.75527">
        <ele>198.6</ele>
        <time>2021-07-03 21:21:30</time>
      </trkpt>
      <trkpt lat="28.95698" lon="-13.7553">
        <ele>198.4</ele>
        <time>2021-07-03 21:21:31</time>
      </trkpt>
      <trkpt lat="28.957" lon="-13.75533">
        <ele>198.4</ele>
        <time>2021-07-03 21:21:32</time>
      </trkpt>
      <trkpt lat="28.95703" lon="-13.75536">
        <ele>198</ele>
        <time>2021-07-03 21:21:33</time>
      </trkpt>
      <trkpt lat="28.95707" lon="-13.75538">
        <ele>198</ele>
        <time>2021-07-03 21:21:34</time>
      </trkpt>
      <trkpt lat="28.9571" lon="-13.7554">
        <ele>198</ele>
        <time>2021-07-03 21:21:35</time>
      </trkpt>
      <trkpt lat="28.95712" lon="-13.75544">
        <ele>197.8</ele>
        <time>2021-07-03 21:21:36</time>
      </trkpt>
      <trkpt lat="28.95713" lon="-13.75548">
        <ele>197.8</ele>
        <time>2021-07-03 21:21:37</time>
      </trkpt>
      <trkpt lat="28.95715" lon="-13.75552">
        <ele>197.8</ele>
        <time>2021-07-03 21:21:38</time>
      </trkpt>
      <trkpt lat="28.95717" lon="-13.75555">
        <ele>197.8</ele>
        <time>2021-07-03 21:21:39</time>
      </trkpt>
      <trkpt lat="28.95719" lon="-13.75559">
        <ele>197.8</ele>
        <time>2021-07-03 21:21:40</time>
      </trkpt>
      <trkpt lat="28.95721" lon="-13.75564">
        <ele>197.6</ele>
        <time>2021-07-03 21:21:41</time>
      </trkpt>
      <trkpt lat="28.95723" lon="-13.75567">
        <ele>197.6</ele>
        <time>2021-07-03 21:21:42</time>
      </trkpt>
      <trkpt lat="28.95724" lon="-13.75569">
        <ele>197.6</ele>
        <time>2021-07-03 21:21:43</time>
      </trkpt>
      <trkpt lat="28.95725" lon="-13.7557">
        <ele>197.6</ele>
        <time>2021-07-03 21:21:44</time>
      </trkpt>
      <trkpt lat="28.95725" lon="-13.75571">
        <ele>197.4</ele>
        <time>2021-07-03 21:21:45</time>
      </trkpt>
      <trkpt lat="28.95725" lon="-13.75572">
        <ele>197.4</ele>
        <time>2021-07-03 21:21:46</time>
      </trkpt>
      <trkpt lat="28.95725" lon="-13.75572">
        <ele>197.4</ele>
        <time>2021-07-03 21:21:47</time>
      </trkpt>
      <trkpt lat="28.95725" lon="-13.75571">
        <ele>197.4</ele>
        <time>2021-07-03 21:21:48</time>
      </trkpt>
      <trkpt lat="28.95725" lon="-13.75571">
        <ele>197.4</ele>
        <time>2021-07-03 21:21:49</time>
      </trkpt>
      <trkpt lat="28.95726" lon="-13.75574">
        <ele>197.4</ele>
        <time>2021-07-03 21:21:50</time>
      </trkpt>
      <trkpt lat="28.95727" lon="-13.75576">
        <ele>197.2</ele>
        <time>2021-07-03 21:21:51</time>
      </trkpt>
      <trkpt lat="28.95728" lon="-13.75579">
        <ele>197.2</ele>
        <time>2021-07-03 21:21:52</time>
      </trkpt>
      <trkpt lat="28.95729" lon="-13.75582">
        <ele>197</ele>
        <time>2021-07-03 21:21:53</time>
      </trkpt>
      <trkpt lat="28.9573" lon="-13.75585">
        <ele>197</ele>
        <time>2021-07-03 21:21:54</time>
      </trkpt>
      <trkpt lat="28.95731" lon="-13.75588">
        <ele>196.6</ele>
        <time>2021-07-03 21:21:55</time>
      </trkpt>
      <trkpt lat="28.95732" lon="-13.75592">
        <ele>196.6</ele>
        <time>2021-07-03 21:21:56</time>
      </trkpt>
      <trkpt lat="28.95733" lon="-13.75595">
        <ele>196.4</ele>
        <time>2021-07-03 21:21:57</time>
      </trkpt>
      <trkpt lat="28.95735" lon="-13.75599">
        <ele>196.4</ele>
        <time>2021-07-03 21:21:58</time>
      </trkpt>
      <trkpt lat="28.95735" lon="-13.75604">
        <ele>196.2</ele>
        <time>2021-07-03 21:21:59</time>
      </trkpt>
      <trkpt lat="28.95734" lon="-13.75609">
        <ele>196</ele>
        <time>2021-07-03 21:22:00</time>
      </trkpt>
      <trkpt lat="28.95734" lon="-13.75613">
        <ele>196</ele>
        <time>2021-07-03 21:22:01</time>
      </trkpt>
      <trkpt lat="28.95734" lon="-13.75619">
        <ele>195.6</ele>
        <time>2021-07-03 21:22:02</time>
      </trkpt>
      <trkpt lat="28.95733" lon="-13.75623">
        <ele>195.4</ele>
        <time>2021-07-03 21:22:03</time>
      </trkpt>
      <trkpt lat="28.95731" lon="-13.75628">
        <ele>195.4</ele>
        <time>2021-07-03 21:22:04</time>
      </trkpt>
      <trkpt lat="28.9573" lon="-13.75633">
        <ele>195</ele>
        <time>2021-07-03 21:22:05</time>
      </trkpt>
      <trkpt lat="28.95731" lon="-13.75638">
        <ele>195</ele>
        <time>2021-07-03 21:22:06</time>
      </trkpt>
      <trkpt lat="28.95732" lon="-13.75643">
        <ele>194.6</ele>
        <time>2021-07-03 21:22:07</time>
      </trkpt>
      <trkpt lat="28.95734" lon="-13.75648">
        <ele>194.6</ele>
        <time>2021-07-03 21:22:08</time>
      </trkpt>
      <trkpt lat="28.95734" lon="-13.75653">
        <ele>194.6</ele>
        <time>2021-07-03 21:22:09</time>
      </trkpt>
      <trkpt lat="28.95734" lon="-13.75657">
        <ele>194.6</ele>
        <time>2021-07-03 21:22:10</time>
      </trkpt>
      <trkpt lat="28.95734" lon="-13.75662">
        <ele>194.6</ele>
        <time>2021-07-03 21:22:11</time>
      </trkpt>
      <trkpt lat="28.95734" lon="-13.75666">
        <ele>194.4</ele>
        <time>2021-07-03 21:22:12</time>
      </trkpt>
      <trkpt lat="28.95735" lon="-13.75671">
        <ele>194.4</ele>
        <time>2021-07-03 21:22:13</time>
      </trkpt>
      <trkpt lat="28.95736" lon="-13.75675">
        <ele>194.4</ele>
        <time>2021-07-03 21:22:14</time>
      </trkpt>
      <trkpt lat="28.95738" lon="-13.75679">
        <ele>194.4</ele>
        <time>2021-07-03 21:22:15</time>
      </trkpt>
      <trkpt lat="28.95739" lon="-13.75683">
        <ele>194.4</ele>
        <time>2021-07-03 21:22:16</time>
      </trkpt>
      <trkpt lat="28.9574" lon="-13.75687">
        <ele>194.6</ele>
        <time>2021-07-03 21:22:17</time>
      </trkpt>
      <trkpt lat="28.95742" lon="-13.75692">
        <ele>194.6</ele>
        <time>2021-07-03 21:22:18</time>
      </trkpt>
      <trkpt lat="28.95743" lon="-13.75696">
        <ele>194.6</ele>
        <time>2021-07-03 21:22:19</time>
      </trkpt>
      <trkpt lat="28.95745" lon="-13.75701">
        <ele>194.6</ele>
        <time>2021-07-03 21:22:20</time>
      </trkpt>
      <trkpt lat="28.95747" lon="-13.75706">
        <ele>194.6</ele>
        <time>2021-07-03 21:22:21</time>
      </trkpt>
      <trkpt lat="28.95748" lon="-13.7571">
        <ele>194.6</ele>
        <time>2021-07-03 21:22:22</time>
      </trkpt>
      <trkpt lat="28.95749" lon="-13.75715">
        <ele>194.6</ele>
        <time>2021-07-03 21:22:23</time>
      </trkpt>
      <trkpt lat="28.95751" lon="-13.75719">
        <ele>194.6</ele>
        <time>2021-07-03 21:22:24</time>
      </trkpt>
      <trkpt lat="28.95753" lon="-13.75723">
        <ele>194.6</ele>
        <time>2021-07-03 21:22:25</time>
      </trkpt>
      <trkpt lat="28.95754" lon="-13.75728">
        <ele>194.6</ele>
        <time>2021-07-03 21:22:26</time>
      </trkpt>
      <trkpt lat="28.95755" lon="-13.75732">
        <ele>194.6</ele>
        <time>2021-07-03 21:22:27</time>
      </trkpt>
      <trkpt lat="28.95757" lon="-13.75736">
        <ele>194.6</ele>
        <time>2021-07-03 21:22:28</time>
      </trkpt>
      <trkpt lat="28.95758" lon="-13.7574">
        <ele>194.6</ele>
        <time>2021-07-03 21:22:29</time>
      </trkpt>
      <trkpt lat="28.9576" lon="-13.75744">
        <ele>194.6</ele>
        <time>2021-07-03 21:22:30</time>
      </trkpt>
      <trkpt lat="28.95761" lon="-13.75749">
        <ele>194.6</ele>
        <time>2021-07-03 21:22:31</time>
      </trkpt>
      <trkpt lat="28.95763" lon="-13.75753">
        <ele>194.6</ele>
        <time>2021-07-03 21:22:32</time>
      </trkpt>
      <trkpt lat="28.95764" lon="-13.75757">
        <ele>194.6</ele>
        <time>2021-07-03 21:22:33</time>
      </trkpt>
      <trkpt lat="28.95765" lon="-13.75761">
        <ele>194.6</ele>
        <time>2021-07-03 21:22:34</time>
      </trkpt>
      <trkpt lat="28.95766" lon="-13.75765">
        <ele>194.4</ele>
        <time>2021-07-03 21:22:35</time>
      </trkpt>
      <trkpt lat="28.95767" lon="-13.7577">
        <ele>194.4</ele>
        <time>2021-07-03 21:22:36</time>
      </trkpt>
      <trkpt lat="28.95768" lon="-13.75774">
        <ele>194.2</ele>
        <time>2021-07-03 21:22:37</time>
      </trkpt>
      <trkpt lat="28.95769" lon="-13.75779">
        <ele>194</ele>
        <time>2021-07-03 21:22:38</time>
      </trkpt>
      <trkpt lat="28.9577" lon="-13.75784">
        <ele>194</ele>
        <time>2021-07-03 21:22:39</time>
      </trkpt>
      <trkpt lat="28.95771" lon="-13.75788">
        <ele>193.6</ele>
        <time>2021-07-03 21:22:40</time>
      </trkpt>
      <trkpt lat="28.95773" lon="-13.75792">
        <ele>193.2</ele>
        <time>2021-07-03 21:22:41</time>
      </trkpt>
      <trkpt lat="28.95778" lon="-13.7579">
        <ele>193</ele>
        <time>2021-07-03 21:22:42</time>
      </trkpt>
      <trkpt lat="28.95782" lon="-13.75786">
        <ele>192.6</ele>
        <time>2021-07-03 21:22:43</time>
      </trkpt>
      <trkpt lat="28.95787" lon="-13.75782">
        <ele>192.2</ele>
        <time>2021-07-03 21:22:44</time>
      </trkpt>
      <trkpt lat="28.95791" lon="-13.75777">
        <ele>192</ele>
        <time>2021-07-03 21:22:45</time>
      </trkpt>
      <trkpt lat="28.95795" lon="-13.75772">
        <ele>191.8</ele>
        <time>2021-07-03 21:22:46</time>
      </trkpt>
      <trkpt lat="28.958" lon="-13.75768">
        <ele>191.4</ele>
        <time>2021-07-03 21:22:47</time>
      </trkpt>
      <trkpt lat="28.95804" lon="-13.75764">
        <ele>191.2</ele>
        <time>2021-07-03 21:22:48</time>
      </trkpt>
      <trkpt lat="28.95809" lon="-13.75762">
        <ele>191</ele>
        <time>2021-07-03 21:22:49</time>
      </trkpt>
      <trkpt lat="28.95813" lon="-13.7576">
        <ele>190.6</ele>
        <time>2021-07-03 21:22:50</time>
      </trkpt>
      <trkpt lat="28.95817" lon="-13.75758">
        <ele>190.4</ele>
        <time>2021-07-03 21:22:51</time>
      </trkpt>
      <trkpt lat="28.95821" lon="-13.75756">
        <ele>190.2</ele>
        <time>2021-07-03 21:22:52</time>
      </trkpt>
      <trkpt lat="28.95824" lon="-13.75755">
        <ele>190.2</ele>
        <time>2021-07-03 21:22:53</time>
      </trkpt>
      <trkpt lat="28.95828" lon="-13.75754">
        <ele>190.2</ele>
        <time>2021-07-03 21:22:54</time>
      </trkpt>
      <trkpt lat="28.95831" lon="-13.75753">
        <ele>190</ele>
        <time>2021-07-03 21:22:55</time>
      </trkpt>
      <trkpt lat="28.95834" lon="-13.75752">
        <ele>190</ele>
        <time>2021-07-03 21:22:56</time>
      </trkpt>
      <trkpt lat="28.95837" lon="-13.75752">
        <ele>189.8</ele>
        <time>2021-07-03 21:22:57</time>
      </trkpt>
      <trkpt lat="28.95841" lon="-13.75752">
        <ele>189.8</ele>
        <time>2021-07-03 21:22:58</time>
      </trkpt>
      <trkpt lat="28.95844" lon="-13.75752">
        <ele>189.8</ele>
        <time>2021-07-03 21:22:59</time>
      </trkpt>
      <trkpt lat="28.95847" lon="-13.75754">
        <ele>189.8</ele>
        <time>2021-07-03 21:23:00</time>
      </trkpt>
      <trkpt lat="28.9585" lon="-13.75756">
        <ele>189.8</ele>
        <time>2021-07-03 21:23:01</time>
      </trkpt>
      <trkpt lat="28.95852" lon="-13.75759">
        <ele>190</ele>
        <time>2021-07-03 21:23:02</time>
      </trkpt>
      <trkpt lat="28.95855" lon="-13.75761">
        <ele>190</ele>
        <time>2021-07-03 21:23:03</time>
      </trkpt>
      <trkpt lat="28.95857" lon="-13.75764">
        <ele>190</ele>
        <time>2021-07-03 21:23:04</time>
      </trkpt>
      <trkpt lat="28.9586" lon="-13.75767">
        <ele>190.2</ele>
        <time>2021-07-03 21:23:05</time>
      </trkpt>
      <trkpt lat="28.95863" lon="-13.7577">
        <ele>190.2</ele>
        <time>2021-07-03 21:23:06</time>
      </trkpt>
      <trkpt lat="28.95865" lon="-13.75773">
        <ele>190.2</ele>
        <time>2021-07-03 21:23:07</time>
      </trkpt>
      <trkpt lat="28.95866" lon="-13.75776">
        <ele>190.4</ele>
        <time>2021-07-03 21:23:08</time>
      </trkpt>
      <trkpt lat="28.95868" lon="-13.7578">
        <ele>190.4</ele>
        <time>2021-07-03 21:23:09</time>
      </trkpt>
      <trkpt lat="28.95869" lon="-13.75784">
        <ele>190.4</ele>
        <time>2021-07-03 21:23:10</time>
      </trkpt>
      <trkpt lat="28.95868" lon="-13.75788">
        <ele>190.4</ele>
        <time>2021-07-03 21:23:11</time>
      </trkpt>
      <trkpt lat="28.95867" lon="-13.75792">
        <ele>190.4</ele>
        <time>2021-07-03 21:23:12</time>
      </trkpt>
      <trkpt lat="28.95865" lon="-13.75796">
        <ele>190.2</ele>
        <time>2021-07-03 21:23:13</time>
      </trkpt>
      <trkpt lat="28.95863" lon="-13.758">
        <ele>190.2</ele>
        <time>2021-07-03 21:23:14</time>
      </trkpt>
      <trkpt lat="28.9586" lon="-13.75803">
        <ele>190</ele>
        <time>2021-07-03 21:23:15</time>
      </trkpt>
      <trkpt lat="28.95856" lon="-13.75806">
        <ele>189.8</ele>
        <time>2021-07-03 21:23:16</time>
      </trkpt>
      <trkpt lat="28.95852" lon="-13.75808">
        <ele>189.6</ele>
        <time>2021-07-03 21:23:17</time>
      </trkpt>
      <trkpt lat="28.95849" lon="-13.75808">
        <ele>189.2</ele>
        <time>2021-07-03 21:23:18</time>
      </trkpt>
      <trkpt lat="28.95845" lon="-13.75809">
        <ele>189.2</ele>
        <time>2021-07-03 21:23:19</time>
      </trkpt>
      <trkpt lat="28.95841" lon="-13.75808">
        <ele>188.8</ele>
        <time>2021-07-03 21:23:20</time>
      </trkpt>
      <trkpt lat="28.95837" lon="-13.75808">
        <ele>188.8</ele>
        <time>2021-07-03 21:23:21</time>
      </trkpt>
      <trkpt lat="28.95833" lon="-13.75808">
        <ele>188.6</ele>
        <time>2021-07-03 21:23:22</time>
      </trkpt>
      <trkpt lat="28.95828" lon="-13.75808">
        <ele>188.6</ele>
        <time>2021-07-03 21:23:23</time>
      </trkpt>
      <trkpt lat="28.95824" lon="-13.7581">
        <ele>188.4</ele>
        <time>2021-07-03 21:23:24</time>
      </trkpt>
      <trkpt lat="28.95821" lon="-13.75812">
        <ele>188.4</ele>
        <time>2021-07-03 21:23:25</time>
      </trkpt>
      <trkpt lat="28.95817" lon="-13.75817">
        <ele>188</ele>
        <time>2021-07-03 21:23:26</time>
      </trkpt>
      <trkpt lat="28.95813" lon="-13.7582">
        <ele>188</ele>
        <time>2021-07-03 21:23:27</time>
      </trkpt>
      <trkpt lat="28.9581" lon="-13.75824">
        <ele>187.8</ele>
        <time>2021-07-03 21:23:28</time>
      </trkpt>
      <trkpt lat="28.95807" lon="-13.75828">
        <ele>187.8</ele>
        <time>2021-07-03 21:23:29</time>
      </trkpt>
      <trkpt lat="28.95804" lon="-13.75833">
        <ele>187.4</ele>
        <time>2021-07-03 21:23:30</time>
      </trkpt>
      <trkpt lat="28.95802" lon="-13.75838">
        <ele>187.4</ele>
        <time>2021-07-03 21:23:31</time>
      </trkpt>
      <trkpt lat="28.95799" lon="-13.75843">
        <ele>187.4</ele>
        <time>2021-07-03 21:23:32</time>
      </trkpt>
      <trkpt lat="28.95797" lon="-13.75848">
        <ele>187.2</ele>
        <time>2021-07-03 21:23:33</time>
      </trkpt>
      <trkpt lat="28.95795" lon="-13.75853">
        <ele>187.2</ele>
        <time>2021-07-03 21:23:34</time>
      </trkpt>
      <trkpt lat="28.95794" lon="-13.75858">
        <ele>187.2</ele>
        <time>2021-07-03 21:23:35</time>
      </trkpt>
      <trkpt lat="28.95792" lon="-13.75864">
        <ele>187.2</ele>
        <time>2021-07-03 21:23:36</time>
      </trkpt>
      <trkpt lat="28.9579" lon="-13.75868">
        <ele>187</ele>
        <time>2021-07-03 21:23:37</time>
      </trkpt>
      <trkpt lat="28.95788" lon="-13.75872">
        <ele>187</ele>
        <time>2021-07-03 21:23:38</time>
      </trkpt>
      <trkpt lat="28.95786" lon="-13.75877">
        <ele>186.8</ele>
        <time>2021-07-03 21:23:39</time>
      </trkpt>
      <trkpt lat="28.95784" lon="-13.75881">
        <ele>186.8</ele>
        <time>2021-07-03 21:23:40</time>
      </trkpt>
      <trkpt lat="28.95781" lon="-13.75886">
        <ele>186.8</ele>
        <time>2021-07-03 21:23:41</time>
      </trkpt>
      <trkpt lat="28.95779" lon="-13.7589">
        <ele>186.8</ele>
        <time>2021-07-03 21:23:42</time>
      </trkpt>
      <trkpt lat="28.95777" lon="-13.75894">
        <ele>186.6</ele>
        <time>2021-07-03 21:23:43</time>
      </trkpt>
      <trkpt lat="28.95775" lon="-13.75898">
        <ele>186.6</ele>
        <time>2021-07-03 21:23:44</time>
      </trkpt>
      <trkpt lat="28.95773" lon="-13.75902">
        <ele>186.4</ele>
        <time>2021-07-03 21:23:45</time>
      </trkpt>
      <trkpt lat="28.9577" lon="-13.75906">
        <ele>186.4</ele>
        <time>2021-07-03 21:23:46</time>
      </trkpt>
      <trkpt lat="28.95768" lon="-13.7591">
        <ele>186.4</ele>
        <time>2021-07-03 21:23:47</time>
      </trkpt>
      <trkpt lat="28.95765" lon="-13.75914">
        <ele>186.4</ele>
        <time>2021-07-03 21:23:48</time>
      </trkpt>
      <trkpt lat="28.95763" lon="-13.75918">
        <ele>186.4</ele>
        <time>2021-07-03 21:23:49</time>
      </trkpt>
      <trkpt lat="28.9576" lon="-13.75921">
        <ele>186.4</ele>
        <time>2021-07-03 21:23:50</time>
      </trkpt>
      <trkpt lat="28.95757" lon="-13.75925">
        <ele>186.2</ele>
        <time>2021-07-03 21:23:51</time>
      </trkpt>
      <trkpt lat="28.95754" lon="-13.75928">
        <ele>186.2</ele>
        <time>2021-07-03 21:23:52</time>
      </trkpt>
      <trkpt lat="28.95752" lon="-13.75931">
        <ele>186.2</ele>
        <time>2021-07-03 21:23:53</time>
      </trkpt>
      <trkpt lat="28.95749" lon="-13.75935">
        <ele>185.8</ele>
        <time>2021-07-03 21:23:54</time>
      </trkpt>
      <trkpt lat="28.95746" lon="-13.75938">
        <ele>185.8</ele>
        <time>2021-07-03 21:23:55</time>
      </trkpt>
      <trkpt lat="28.95744" lon="-13.75942">
        <ele>185.6</ele>
        <time>2021-07-03 21:23:56</time>
      </trkpt>
      <trkpt lat="28.95741" lon="-13.75945">
        <ele>185.6</ele>
        <time>2021-07-03 21:23:57</time>
      </trkpt>
      <trkpt lat="28.9574" lon="-13.75949">
        <ele>185.6</ele>
        <time>2021-07-03 21:23:58</time>
      </trkpt>
      <trkpt lat="28.95738" lon="-13.75953">
        <ele>185.6</ele>
        <time>2021-07-03 21:23:59</time>
      </trkpt>
      <trkpt lat="28.95737" lon="-13.75957">
        <ele>185.6</ele>
        <time>2021-07-03 21:24:00</time>
      </trkpt>
      <trkpt lat="28.95737" lon="-13.75961">
        <ele>185.6</ele>
        <time>2021-07-03 21:24:01</time>
      </trkpt>
      <trkpt lat="28.95735" lon="-13.75965">
        <ele>185.4</ele>
        <time>2021-07-03 21:24:02</time>
      </trkpt>
      <trkpt lat="28.95733" lon="-13.75968">
        <ele>185.4</ele>
        <time>2021-07-03 21:24:03</time>
      </trkpt>
      <trkpt lat="28.9573" lon="-13.75971">
        <ele>185.4</ele>
        <time>2021-07-03 21:24:04</time>
      </trkpt>
      <trkpt lat="28.95727" lon="-13.75972">
        <ele>185.4</ele>
        <time>2021-07-03 21:24:05</time>
      </trkpt>
      <trkpt lat="28.95723" lon="-13.75973">
        <ele>185.4</ele>
        <time>2021-07-03 21:24:06</time>
      </trkpt>
      <trkpt lat="28.9572" lon="-13.75974">
        <ele>185.4</ele>
        <time>2021-07-03 21:24:07</time>
      </trkpt>
      <trkpt lat="28.95716" lon="-13.75974">
        <ele>185.4</ele>
        <time>2021-07-03 21:24:08</time>
      </trkpt>
      <trkpt lat="28.95712" lon="-13.75974">
        <ele>185.4</ele>
        <time>2021-07-03 21:24:09</time>
      </trkpt>
      <trkpt lat="28.95709" lon="-13.75975">
        <ele>185.2</ele>
        <time>2021-07-03 21:24:10</time>
      </trkpt>
      <trkpt lat="28.95705" lon="-13.75976">
        <ele>185.2</ele>
        <time>2021-07-03 21:24:11</time>
      </trkpt>
      <trkpt lat="28.95701" lon="-13.75978">
        <ele>185.2</ele>
        <time>2021-07-03 21:24:12</time>
      </trkpt>
      <trkpt lat="28.95696" lon="-13.7598">
        <ele>185.2</ele>
        <time>2021-07-03 21:24:13</time>
      </trkpt>
      <trkpt lat="28.95692" lon="-13.75983">
        <ele>185.2</ele>
        <time>2021-07-03 21:24:14</time>
      </trkpt>
      <trkpt lat="28.95688" lon="-13.75986">
        <ele>185</ele>
        <time>2021-07-03 21:24:15</time>
      </trkpt>
      <trkpt lat="28.95684" lon="-13.7599">
        <ele>185</ele>
        <time>2021-07-03 21:24:16</time>
      </trkpt>
      <trkpt lat="28.95681" lon="-13.75994">
        <ele>184.6</ele>
        <time>2021-07-03 21:24:17</time>
      </trkpt>
      <trkpt lat="28.95677" lon="-13.75998">
        <ele>184.4</ele>
        <time>2021-07-03 21:24:18</time>
      </trkpt>
      <trkpt lat="28.95673" lon="-13.76003">
        <ele>184.2</ele>
        <time>2021-07-03 21:24:19</time>
      </trkpt>
      <trkpt lat="28.95669" lon="-13.76008">
        <ele>184</ele>
        <time>2021-07-03 21:24:20</time>
      </trkpt>
      <trkpt lat="28.95665" lon="-13.76014">
        <ele>183.8</ele>
        <time>2021-07-03 21:24:21</time>
      </trkpt>
      <trkpt lat="28.95661" lon="-13.7602">
        <ele>183.4</ele>
        <time>2021-07-03 21:24:22</time>
      </trkpt>
      <trkpt lat="28.95657" lon="-13.76026">
        <ele>183.2</ele>
        <time>2021-07-03 21:24:23</time>
      </trkpt>
      <trkpt lat="28.95653" lon="-13.76033">
        <ele>182.8</ele>
        <time>2021-07-03 21:24:24</time>
      </trkpt>
      <trkpt lat="28.95649" lon="-13.7604">
        <ele>182.6</ele>
        <time>2021-07-03 21:24:25</time>
      </trkpt>
      <trkpt lat="28.95645" lon="-13.76048">
        <ele>182.2</ele>
        <time>2021-07-03 21:24:26</time>
      </trkpt>
      <trkpt lat="28.95641" lon="-13.76056">
        <ele>182</ele>
        <time>2021-07-03 21:24:27</time>
      </trkpt>
      <trkpt lat="28.95637" lon="-13.76064">
        <ele>181.4</ele>
        <time>2021-07-03 21:24:28</time>
      </trkpt>
      <trkpt lat="28.95632" lon="-13.76072">
        <ele>181</ele>
        <time>2021-07-03 21:24:29</time>
      </trkpt>
      <trkpt lat="28.95628" lon="-13.7608">
        <ele>180.4</ele>
        <time>2021-07-03 21:24:30</time>
      </trkpt>
      <trkpt lat="28.95624" lon="-13.76089">
        <ele>180</ele>
        <time>2021-07-03 21:24:31</time>
      </trkpt>
      <trkpt lat="28.95619" lon="-13.76097">
        <ele>179.6</ele>
        <time>2021-07-03 21:24:32</time>
      </trkpt>
      <trkpt lat="28.95614" lon="-13.76105">
        <ele>179.2</ele>
        <time>2021-07-03 21:24:33</time>
      </trkpt>
      <trkpt lat="28.9561" lon="-13.76113">
        <ele>179</ele>
        <time>2021-07-03 21:24:34</time>
      </trkpt>
      <trkpt lat="28.95604" lon="-13.7612">
        <ele>178.6</ele>
        <time>2021-07-03 21:24:35</time>
      </trkpt>
      <trkpt lat="28.956" lon="-13.76127">
        <ele>178.4</ele>
        <time>2021-07-03 21:24:36</time>
      </trkpt>
      <trkpt lat="28.95595" lon="-13.76134">
        <ele>178</ele>
        <time>2021-07-03 21:24:37</time>
      </trkpt>
      <trkpt lat="28.95589" lon="-13.7614">
        <ele>177.8</ele>
        <time>2021-07-03 21:24:38</time>
      </trkpt>
      <trkpt lat="28.95584" lon="-13.76146">
        <ele>177.4</ele>
        <time>2021-07-03 21:24:39</time>
      </trkpt>
      <trkpt lat="28.95578" lon="-13.76153">
        <ele>177.2</ele>
        <time>2021-07-03 21:24:40</time>
      </trkpt>
      <trkpt lat="28.95573" lon="-13.76159">
        <ele>177.2</ele>
        <time>2021-07-03 21:25:11</time>
      </trkpt>
      <trkpt lat="28.95568" lon="-13.76164">
        <ele>176.8</ele>
        <time>2021-07-03 21:25:12</time>
      </trkpt>
      <trkpt lat="28.95542" lon="-13.76191">
        <ele>176</ele>
        <time>2021-07-03 21:25:13</time>
      </trkpt>
      <trkpt lat="28.95537" lon="-13.76197">
        <ele>176</ele>
        <time>2021-07-03 21:25:14</time>
      </trkpt>
      <trkpt lat="28.95532" lon="-13.76202">
        <ele>175.6</ele>
        <time>2021-07-03 21:25:15</time>
      </trkpt>
      <trkpt lat="28.95527" lon="-13.76207">
        <ele>175.6</ele>
        <time>2021-07-03 21:25:16</time>
      </trkpt>
      <trkpt lat="28.95522" lon="-13.76212">
        <ele>175.4</ele>
        <time>2021-07-03 21:25:17</time>
      </trkpt>
      <trkpt lat="28.95517" lon="-13.76217">
        <ele>175.4</ele>
        <time>2021-07-03 21:25:18</time>
      </trkpt>
      <trkpt lat="28.95513" lon="-13.76221">
        <ele>175.2</ele>
        <time>2021-07-03 21:25:19</time>
      </trkpt>
      <trkpt lat="28.9551" lon="-13.76225">
        <ele>175.2</ele>
        <time>2021-07-03 21:25:20</time>
      </trkpt>
      <trkpt lat="28.95508" lon="-13.76229">
        <ele>174.8</ele>
        <time>2021-07-03 21:25:21</time>
      </trkpt>
      <trkpt lat="28.95507" lon="-13.76232">
        <ele>174.8</ele>
        <time>2021-07-03 21:25:22</time>
      </trkpt>
      <trkpt lat="28.95508" lon="-13.76234">
        <ele>174.4</ele>
        <time>2021-07-03 21:25:23</time>
      </trkpt>
      <trkpt lat="28.95506" lon="-13.76236">
        <ele>174</ele>
        <time>2021-07-03 21:25:24</time>
      </trkpt>
      <trkpt lat="28.95505" lon="-13.76238">
        <ele>173.6</ele>
        <time>2021-07-03 21:25:25</time>
      </trkpt>
      <trkpt lat="28.95503" lon="-13.76238">
        <ele>173.2</ele>
        <time>2021-07-03 21:25:26</time>
      </trkpt>
      <trkpt lat="28.95501" lon="-13.76239">
        <ele>172.8</ele>
        <time>2021-07-03 21:25:27</time>
      </trkpt>
      <trkpt lat="28.95498" lon="-13.76241">
        <ele>172.6</ele>
        <time>2021-07-03 21:25:28</time>
      </trkpt>
      <trkpt lat="28.95492" lon="-13.76246">
        <ele>172.2</ele>
        <time>2021-07-03 21:25:29</time>
      </trkpt>
      <trkpt lat="28.9549" lon="-13.76248">
        <ele>172.2</ele>
        <time>2021-07-03 21:25:30</time>
      </trkpt>
      <trkpt lat="28.95488" lon="-13.76251">
        <ele>172</ele>
        <time>2021-07-03 21:25:31</time>
      </trkpt>
      <trkpt lat="28.95485" lon="-13.76253">
        <ele>172</ele>
        <time>2021-07-03 21:25:32</time>
      </trkpt>
      <trkpt lat="28.95482" lon="-13.76256">
        <ele>171.8</ele>
        <time>2021-07-03 21:25:33</time>
      </trkpt>
      <trkpt lat="28.9548" lon="-13.76259">
        <ele>171.8</ele>
        <time>2021-07-03 21:25:34</time>
      </trkpt>
      <trkpt lat="28.95477" lon="-13.76262">
        <ele>171.8</ele>
        <time>2021-07-03 21:25:35</time>
      </trkpt>
      <trkpt lat="28.95474" lon="-13.76265">
        <ele>171.8</ele>
        <time>2021-07-03 21:25:36</time>
      </trkpt>
      <trkpt lat="28.95472" lon="-13.76267">
        <ele>171.6</ele>
        <time>2021-07-03 21:25:37</time>
      </trkpt>
      <trkpt lat="28.95469" lon="-13.7627">
        <ele>171.6</ele>
        <time>2021-07-03 21:25:38</time>
      </trkpt>
      <trkpt lat="28.95466" lon="-13.76273">
        <ele>171.6</ele>
        <time>2021-07-03 21:25:39</time>
      </trkpt>
      <trkpt lat="28.95463" lon="-13.76276">
        <ele>171.6</ele>
        <time>2021-07-03 21:25:40</time>
      </trkpt>
      <trkpt lat="28.9546" lon="-13.76279">
        <ele>171.6</ele>
        <time>2021-07-03 21:25:41</time>
      </trkpt>
      <trkpt lat="28.95457" lon="-13.76283">
        <ele>171.6</ele>
        <time>2021-07-03 21:25:42</time>
      </trkpt>
      <trkpt lat="28.95453" lon="-13.76287">
        <ele>171.6</ele>
        <time>2021-07-03 21:25:43</time>
      </trkpt>
      <trkpt lat="28.9545" lon="-13.76291">
        <ele>171.6</ele>
        <time>2021-07-03 21:25:44</time>
      </trkpt>
      <trkpt lat="28.95446" lon="-13.76295">
        <ele>171.6</ele>
        <time>2021-07-03 21:25:45</time>
      </trkpt>
      <trkpt lat="28.95443" lon="-13.76299">
        <ele>171.6</ele>
        <time>2021-07-03 21:25:46</time>
      </trkpt>
      <trkpt lat="28.9544" lon="-13.76303">
        <ele>171.8</ele>
        <time>2021-07-03 21:25:47</time>
      </trkpt>
      <trkpt lat="28.95437" lon="-13.76306">
        <ele>171.8</ele>
        <time>2021-07-03 21:25:48</time>
      </trkpt>
      <trkpt lat="28.95433" lon="-13.7631">
        <ele>171.8</ele>
        <time>2021-07-03 21:25:49</time>
      </trkpt>
      <trkpt lat="28.95429" lon="-13.76313">
        <ele>172</ele>
        <time>2021-07-03 21:25:50</time>
      </trkpt>
      <trkpt lat="28.95426" lon="-13.76316">
        <ele>172</ele>
        <time>2021-07-03 21:25:51</time>
      </trkpt>
      <trkpt lat="28.95423" lon="-13.76319">
        <ele>172</ele>
        <time>2021-07-03 21:25:52</time>
      </trkpt>
      <trkpt lat="28.9542" lon="-13.76321">
        <ele>172</ele>
        <time>2021-07-03 21:25:53</time>
      </trkpt>
      <trkpt lat="28.95418" lon="-13.76325">
        <ele>172</ele>
        <time>2021-07-03 21:25:54</time>
      </trkpt>
      <trkpt lat="28.95414" lon="-13.76328">
        <ele>172</ele>
        <time>2021-07-03 21:25:55</time>
      </trkpt>
      <trkpt lat="28.95411" lon="-13.76331">
        <ele>172</ele>
        <time>2021-07-03 21:25:56</time>
      </trkpt>
      <trkpt lat="28.95409" lon="-13.76333">
        <ele>172</ele>
        <time>2021-07-03 21:25:57</time>
      </trkpt>
      <trkpt lat="28.95405" lon="-13.76336">
        <ele>172</ele>
        <time>2021-07-03 21:25:58</time>
      </trkpt>
      <trkpt lat="28.95402" lon="-13.76338">
        <ele>172.2</ele>
        <time>2021-07-03 21:25:59</time>
      </trkpt>
      <trkpt lat="28.95399" lon="-13.76341">
        <ele>172.2</ele>
        <time>2021-07-03 21:26:00</time>
      </trkpt>
      <trkpt lat="28.95396" lon="-13.76344">
        <ele>172.4</ele>
        <time>2021-07-03 21:26:01</time>
      </trkpt>
      <trkpt lat="28.95393" lon="-13.76347">
        <ele>172.4</ele>
        <time>2021-07-03 21:26:02</time>
      </trkpt>
      <trkpt lat="28.95389" lon="-13.76349">
        <ele>172.6</ele>
        <time>2021-07-03 21:26:03</time>
      </trkpt>
      <trkpt lat="28.95386" lon="-13.76352">
        <ele>172.6</ele>
        <time>2021-07-03 21:26:04</time>
      </trkpt>
      <trkpt lat="28.95382" lon="-13.76354">
        <ele>172.6</ele>
        <time>2021-07-03 21:26:05</time>
      </trkpt>
      <trkpt lat="28.95379" lon="-13.76357">
        <ele>173</ele>
        <time>2021-07-03 21:26:06</time>
      </trkpt>
      <trkpt lat="28.95376" lon="-13.7636">
        <ele>173</ele>
        <time>2021-07-03 21:26:07</time>
      </trkpt>
      <trkpt lat="28.95372" lon="-13.76363">
        <ele>173.4</ele>
        <time>2021-07-03 21:26:08</time>
      </trkpt>
      <trkpt lat="28.95369" lon="-13.76365">
        <ele>173.6</ele>
        <time>2021-07-03 21:26:09</time>
      </trkpt>
      <trkpt lat="28.95366" lon="-13.76368">
        <ele>173.8</ele>
        <time>2021-07-03 21:26:10</time>
      </trkpt>
      <trkpt lat="28.95363" lon="-13.7637">
        <ele>173.8</ele>
        <time>2021-07-03 21:26:11</time>
      </trkpt>
      <trkpt lat="28.9536" lon="-13.76372">
        <ele>174.2</ele>
        <time>2021-07-03 21:26:12</time>
      </trkpt>
      <trkpt lat="28.95357" lon="-13.76374">
        <ele>174.4</ele>
        <time>2021-07-03 21:26:13</time>
      </trkpt>
      <trkpt lat="28.95354" lon="-13.76375">
        <ele>174.8</ele>
        <time>2021-07-03 21:26:14</time>
      </trkpt>
      <trkpt lat="28.95352" lon="-13.76377">
        <ele>175</ele>
        <time>2021-07-03 21:26:15</time>
      </trkpt>
      <trkpt lat="28.95349" lon="-13.76379">
        <ele>175.2</ele>
        <time>2021-07-03 21:26:16</time>
      </trkpt>
      <trkpt lat="28.95346" lon="-13.76381">
        <ele>175.2</ele>
        <time>2021-07-03 21:26:17</time>
      </trkpt>
      <trkpt lat="28.95344" lon="-13.76383">
        <ele>175.6</ele>
        <time>2021-07-03 21:26:18</time>
      </trkpt>
      <trkpt lat="28.95341" lon="-13.76384">
        <ele>175.8</ele>
        <time>2021-07-03 21:26:19</time>
      </trkpt>
      <trkpt lat="28.95339" lon="-13.76386">
        <ele>175.8</ele>
        <time>2021-07-03 21:26:20</time>
      </trkpt>
      <trkpt lat="28.95336" lon="-13.76387">
        <ele>176</ele>
        <time>2021-07-03 21:26:21</time>
      </trkpt>
      <trkpt lat="28.95334" lon="-13.76389">
        <ele>176</ele>
        <time>2021-07-03 21:26:22</time>
      </trkpt>
      <trkpt lat="28.95331" lon="-13.7639">
        <ele>176.4</ele>
        <time>2021-07-03 21:26:23</time>
      </trkpt>
      <trkpt lat="28.95328" lon="-13.76391">
        <ele>176.6</ele>
        <time>2021-07-03 21:26:24</time>
      </trkpt>
      <trkpt lat="28.95326" lon="-13.76392">
        <ele>176.6</ele>
        <time>2021-07-03 21:26:25</time>
      </trkpt>
      <trkpt lat="28.95323" lon="-13.76393">
        <ele>176.8</ele>
        <time>2021-07-03 21:26:26</time>
      </trkpt>
      <trkpt lat="28.9532" lon="-13.76395">
        <ele>176.8</ele>
        <time>2021-07-03 21:26:27</time>
      </trkpt>
      <trkpt lat="28.95318" lon="-13.76396">
        <ele>177.2</ele>
        <time>2021-07-03 21:26:28</time>
      </trkpt>
      <trkpt lat="28.95316" lon="-13.76397">
        <ele>177.2</ele>
        <time>2021-07-03 21:26:29</time>
      </trkpt>
      <trkpt lat="28.95314" lon="-13.76398">
        <ele>177.2</ele>
        <time>2021-07-03 21:26:30</time>
      </trkpt>
      <trkpt lat="28.95312" lon="-13.76399">
        <ele>177.4</ele>
        <time>2021-07-03 21:26:31</time>
      </trkpt>
      <trkpt lat="28.9531" lon="-13.764">
        <ele>177.4</ele>
        <time>2021-07-03 21:26:32</time>
      </trkpt>
      <trkpt lat="28.95308" lon="-13.76401">
        <ele>177.4</ele>
        <time>2021-07-03 21:26:33</time>
      </trkpt>
      <trkpt lat="28.95306" lon="-13.76402">
        <ele>177.4</ele>
        <time>2021-07-03 21:26:34</time>
      </trkpt>
      <trkpt lat="28.95304" lon="-13.76403">
        <ele>177.4</ele>
        <time>2021-07-03 21:26:35</time>
      </trkpt>
      <trkpt lat="28.95301" lon="-13.76404">
        <ele>177.4</ele>
        <time>2021-07-03 21:26:36</time>
      </trkpt>
      <trkpt lat="28.95298" lon="-13.76405">
        <ele>177.4</ele>
        <time>2021-07-03 21:26:37</time>
      </trkpt>
      <trkpt lat="28.95296" lon="-13.76406">
        <ele>177.4</ele>
        <time>2021-07-03 21:26:38</time>
      </trkpt>
      <trkpt lat="28.95294" lon="-13.76407">
        <ele>177.4</ele>
        <time>2021-07-03 21:26:39</time>
      </trkpt>
      <trkpt lat="28.95291" lon="-13.76409">
        <ele>177.4</ele>
        <time>2021-07-03 21:26:40</time>
      </trkpt>
      <trkpt lat="28.95289" lon="-13.7641">
        <ele>177.4</ele>
        <time>2021-07-03 21:26:41</time>
      </trkpt>
      <trkpt lat="28.95287" lon="-13.76411">
        <ele>177.4</ele>
        <time>2021-07-03 21:26:42</time>
      </trkpt>
      <trkpt lat="28.95285" lon="-13.76412">
        <ele>177.4</ele>
        <time>2021-07-03 21:26:43</time>
      </trkpt>
      <trkpt lat="28.95282" lon="-13.76414">
        <ele>177.4</ele>
        <time>2021-07-03 21:26:44</time>
      </trkpt>
      <trkpt lat="28.9528" lon="-13.76416">
        <ele>177.4</ele>
        <time>2021-07-03 21:26:45</time>
      </trkpt>
      <trkpt lat="28.95278" lon="-13.76418">
        <ele>177.4</ele>
        <time>2021-07-03 21:26:46</time>
      </trkpt>
      <trkpt lat="28.95275" lon="-13.76422">
        <ele>177.4</ele>
        <time>2021-07-03 21:26:47</time>
      </trkpt>
      <trkpt lat="28.95274" lon="-13.76425">
        <ele>177.4</ele>
        <time>2021-07-03 21:26:48</time>
      </trkpt>
      <trkpt lat="28.95272" lon="-13.76428">
        <ele>177.4</ele>
        <time>2021-07-03 21:26:49</time>
      </trkpt>
      <trkpt lat="28.95271" lon="-13.76432">
        <ele>177.4</ele>
        <time>2021-07-03 21:26:50</time>
      </trkpt>
      <trkpt lat="28.9527" lon="-13.76435">
        <ele>177.4</ele>
        <time>2021-07-03 21:26:51</time>
      </trkpt>
      <trkpt lat="28.95269" lon="-13.76438">
        <ele>177.4</ele>
        <time>2021-07-03 21:26:52</time>
      </trkpt>
      <trkpt lat="28.95268" lon="-13.76441">
        <ele>177.4</ele>
        <time>2021-07-03 21:26:53</time>
      </trkpt>
      <trkpt lat="28.95266" lon="-13.76445">
        <ele>177.4</ele>
        <time>2021-07-03 21:26:54</time>
      </trkpt>
      <trkpt lat="28.95265" lon="-13.76449">
        <ele>177.4</ele>
        <time>2021-07-03 21:26:55</time>
      </trkpt>
      <trkpt lat="28.95263" lon="-13.76453">
        <ele>177.4</ele>
        <time>2021-07-03 21:26:56</time>
      </trkpt>
      <trkpt lat="28.95262" lon="-13.76457">
        <ele>177.4</ele>
        <time>2021-07-03 21:26:57</time>
      </trkpt>
      <trkpt lat="28.95261" lon="-13.76461">
        <ele>177.4</ele>
        <time>2021-07-03 21:26:58</time>
      </trkpt>
      <trkpt lat="28.9526" lon="-13.76465">
        <ele>177.4</ele>
        <time>2021-07-03 21:26:59</time>
      </trkpt>
      <trkpt lat="28.9526" lon="-13.7647">
        <ele>177.4</ele>
        <time>2021-07-03 21:27:00</time>
      </trkpt>
      <trkpt lat="28.95259" lon="-13.76474">
        <ele>177.4</ele>
        <time>2021-07-03 21:27:01</time>
      </trkpt>
      <trkpt lat="28.95259" lon="-13.76478">
        <ele>177.4</ele>
        <time>2021-07-03 21:27:02</time>
      </trkpt>
      <trkpt lat="28.95258" lon="-13.76481">
        <ele>177.4</ele>
        <time>2021-07-03 21:27:03</time>
      </trkpt>
      <trkpt lat="28.95258" lon="-13.76485">
        <ele>177.4</ele>
        <time>2021-07-03 21:27:04</time>
      </trkpt>
      <trkpt lat="28.95257" lon="-13.76489">
        <ele>177.4</ele>
        <time>2021-07-03 21:27:05</time>
      </trkpt>
      <trkpt lat="28.95257" lon="-13.76493">
        <ele>177.4</ele>
        <time>2021-07-03 21:27:06</time>
      </trkpt>
      <trkpt lat="28.95256" lon="-13.76496">
        <ele>177.4</ele>
        <time>2021-07-03 21:27:07</time>
      </trkpt>
      <trkpt lat="28.95255" lon="-13.765">
        <ele>177.4</ele>
        <time>2021-07-03 21:27:08</time>
      </trkpt>
      <trkpt lat="28.95254" lon="-13.76504">
        <ele>177.8</ele>
        <time>2021-07-03 21:27:09</time>
      </trkpt>
      <trkpt lat="28.95254" lon="-13.76507">
        <ele>177.8</ele>
        <time>2021-07-03 21:27:10</time>
      </trkpt>
      <trkpt lat="28.95255" lon="-13.7651">
        <ele>177.8</ele>
        <time>2021-07-03 21:27:11</time>
      </trkpt>
      <trkpt lat="28.95257" lon="-13.76513">
        <ele>177.8</ele>
        <time>2021-07-03 21:27:12</time>
      </trkpt>
      <trkpt lat="28.9526" lon="-13.76514">
        <ele>177.8</ele>
        <time>2021-07-03 21:27:13</time>
      </trkpt>
      <trkpt lat="28.95264" lon="-13.76515">
        <ele>178</ele>
        <time>2021-07-03 21:27:14</time>
      </trkpt>
      <trkpt lat="28.95268" lon="-13.76515">
        <ele>178</ele>
        <time>2021-07-03 21:27:15</time>
      </trkpt>
      <trkpt lat="28.95271" lon="-13.76515">
        <ele>178</ele>
        <time>2021-07-03 21:27:16</time>
      </trkpt>
      <trkpt lat="28.95274" lon="-13.76515">
        <ele>178</ele>
        <time>2021-07-03 21:27:17</time>
      </trkpt>
      <trkpt lat="28.95277" lon="-13.76515">
        <ele>178</ele>
        <time>2021-07-03 21:27:18</time>
      </trkpt>
      <trkpt lat="28.9528" lon="-13.76516">
        <ele>178</ele>
        <time>2021-07-03 21:27:19</time>
      </trkpt>
      <trkpt lat="28.95284" lon="-13.76516">
        <ele>178</ele>
        <time>2021-07-03 21:27:20</time>
      </trkpt>
      <trkpt lat="28.95287" lon="-13.76516">
        <ele>178</ele>
        <time>2021-07-03 21:27:21</time>
      </trkpt>
      <trkpt lat="28.95291" lon="-13.76516">
        <ele>177.6</ele>
        <time>2021-07-03 21:27:22</time>
      </trkpt>
      <trkpt lat="28.95294" lon="-13.76516">
        <ele>177.4</ele>
        <time>2021-07-03 21:27:23</time>
      </trkpt>
      <trkpt lat="28.95298" lon="-13.76516">
        <ele>177.2</ele>
        <time>2021-07-03 21:27:24</time>
      </trkpt>
      <trkpt lat="28.95302" lon="-13.76516">
        <ele>176.8</ele>
        <time>2021-07-03 21:27:25</time>
      </trkpt>
      <trkpt lat="28.95306" lon="-13.76515">
        <ele>176.4</ele>
        <time>2021-07-03 21:27:26</time>
      </trkpt>
      <trkpt lat="28.9531" lon="-13.76514">
        <ele>176</ele>
        <time>2021-07-03 21:27:27</time>
      </trkpt>
      <trkpt lat="28.95314" lon="-13.76512">
        <ele>175.8</ele>
        <time>2021-07-03 21:27:28</time>
      </trkpt>
      <trkpt lat="28.95317" lon="-13.7651">
        <ele>175.4</ele>
        <time>2021-07-03 21:27:29</time>
      </trkpt>
      <trkpt lat="28.9532" lon="-13.76508">
        <ele>175</ele>
        <time>2021-07-03 21:27:30</time>
      </trkpt>
      <trkpt lat="28.95323" lon="-13.76506">
        <ele>174.8</ele>
        <time>2021-07-03 21:27:31</time>
      </trkpt>
      <trkpt lat="28.95327" lon="-13.76503">
        <ele>174.4</ele>
        <time>2021-07-03 21:27:32</time>
      </trkpt>
      <trkpt lat="28.95332" lon="-13.76501">
        <ele>174</ele>
        <time>2021-07-03 21:27:33</time>
      </trkpt>
      <trkpt lat="28.95337" lon="-13.76498">
        <ele>173.8</ele>
        <time>2021-07-03 21:27:34</time>
      </trkpt>
      <trkpt lat="28.95341" lon="-13.76496">
        <ele>173.4</ele>
        <time>2021-07-03 21:27:35</time>
      </trkpt>
      <trkpt lat="28.95345" lon="-13.76494">
        <ele>173.2</ele>
        <time>2021-07-03 21:27:36</time>
      </trkpt>
      <trkpt lat="28.95349" lon="-13.76494">
        <ele>173.2</ele>
        <time>2021-07-03 21:27:37</time>
      </trkpt>
      <trkpt lat="28.95353" lon="-13.76493">
        <ele>173.2</ele>
        <time>2021-07-03 21:27:38</time>
      </trkpt>
      <trkpt lat="28.95356" lon="-13.76492">
        <ele>173.2</ele>
        <time>2021-07-03 21:27:39</time>
      </trkpt>
      <trkpt lat="28.95359" lon="-13.76491">
        <ele>173.2</ele>
        <time>2021-07-03 21:27:40</time>
      </trkpt>
      <trkpt lat="28.95363" lon="-13.7649">
        <ele>173.4</ele>
        <time>2021-07-03 21:27:41</time>
      </trkpt>
      <trkpt lat="28.95365" lon="-13.7649">
        <ele>173.6</ele>
        <time>2021-07-03 21:27:42</time>
      </trkpt>
      <trkpt lat="28.95368" lon="-13.76489">
        <ele>173.6</ele>
        <time>2021-07-03 21:27:43</time>
      </trkpt>
      <trkpt lat="28.95372" lon="-13.76489">
        <ele>173.6</ele>
        <time>2021-07-03 21:27:44</time>
      </trkpt>
      <trkpt lat="28.95375" lon="-13.7649">
        <ele>173.8</ele>
        <time>2021-07-03 21:27:45</time>
      </trkpt>
      <trkpt lat="28.95378" lon="-13.76489">
        <ele>173.8</ele>
        <time>2021-07-03 21:27:46</time>
      </trkpt>
      <trkpt lat="28.95382" lon="-13.76489">
        <ele>173.8</ele>
        <time>2021-07-03 21:27:47</time>
      </trkpt>
      <trkpt lat="28.95385" lon="-13.76489">
        <ele>173.8</ele>
        <time>2021-07-03 21:27:48</time>
      </trkpt>
      <trkpt lat="28.95388" lon="-13.76489">
        <ele>173.8</ele>
        <time>2021-07-03 21:27:49</time>
      </trkpt>
      <trkpt lat="28.95392" lon="-13.76489">
        <ele>173.8</ele>
        <time>2021-07-03 21:27:50</time>
      </trkpt>
      <trkpt lat="28.95395" lon="-13.7649">
        <ele>173.8</ele>
        <time>2021-07-03 21:27:51</time>
      </trkpt>
      <trkpt lat="28.95399" lon="-13.76492">
        <ele>173.8</ele>
        <time>2021-07-03 21:27:52</time>
      </trkpt>
      <trkpt lat="28.95402" lon="-13.76493">
        <ele>173.8</ele>
        <time>2021-07-03 21:27:53</time>
      </trkpt>
      <trkpt lat="28.95405" lon="-13.76494">
        <ele>173.8</ele>
        <time>2021-07-03 21:27:54</time>
      </trkpt>
      <trkpt lat="28.95409" lon="-13.76496">
        <ele>173.8</ele>
        <time>2021-07-03 21:27:55</time>
      </trkpt>
      <trkpt lat="28.95412" lon="-13.76498">
        <ele>173.8</ele>
        <time>2021-07-03 21:27:56</time>
      </trkpt>
      <trkpt lat="28.95415" lon="-13.765">
        <ele>173.8</ele>
        <time>2021-07-03 21:27:57</time>
      </trkpt>
      <trkpt lat="28.95419" lon="-13.76502">
        <ele>173.6</ele>
        <time>2021-07-03 21:27:58</time>
      </trkpt>
      <trkpt lat="28.95422" lon="-13.76506">
        <ele>173.6</ele>
        <time>2021-07-03 21:27:59</time>
      </trkpt>
      <trkpt lat="28.95426" lon="-13.76509">
        <ele>173.4</ele>
        <time>2021-07-03 21:28:00</time>
      </trkpt>
      <trkpt lat="28.95431" lon="-13.76512">
        <ele>173.4</ele>
        <time>2021-07-03 21:28:01</time>
      </trkpt>
      <trkpt lat="28.95436" lon="-13.76514">
        <ele>173</ele>
        <time>2021-07-03 21:28:02</time>
      </trkpt>
      <trkpt lat="28.95442" lon="-13.76515">
        <ele>172.8</ele>
        <time>2021-07-03 21:28:03</time>
      </trkpt>
      <trkpt lat="28.95449" lon="-13.76517">
        <ele>172.4</ele>
        <time>2021-07-03 21:28:04</time>
      </trkpt>
      <trkpt lat="28.95457" lon="-13.76518">
        <ele>172</ele>
        <time>2021-07-03 21:28:05</time>
      </trkpt>
      <trkpt lat="28.95464" lon="-13.76518">
        <ele>171.6</ele>
        <time>2021-07-03 21:28:06</time>
      </trkpt>
      <trkpt lat="28.95473" lon="-13.76518">
        <ele>171.2</ele>
        <time>2021-07-03 21:28:07</time>
      </trkpt>
      <trkpt lat="28.95482" lon="-13.76517">
        <ele>170.6</ele>
        <time>2021-07-03 21:28:08</time>
      </trkpt>
      <trkpt lat="28.9549" lon="-13.76515">
        <ele>170</ele>
        <time>2021-07-03 21:28:09</time>
      </trkpt>
      <trkpt lat="28.95498" lon="-13.76513">
        <ele>169.4</ele>
        <time>2021-07-03 21:28:10</time>
      </trkpt>
      <trkpt lat="28.95506" lon="-13.76511">
        <ele>168.8</ele>
        <time>2021-07-03 21:28:11</time>
      </trkpt>
      <trkpt lat="28.95512" lon="-13.76509">
        <ele>168.4</ele>
        <time>2021-07-03 21:28:12</time>
      </trkpt>
      <trkpt lat="28.95518" lon="-13.76507">
        <ele>168</ele>
        <time>2021-07-03 21:28:13</time>
      </trkpt>
      <trkpt lat="28.95522" lon="-13.76505">
        <ele>167.6</ele>
        <time>2021-07-03 21:28:14</time>
      </trkpt>
      <trkpt lat="28.95526" lon="-13.76504">
        <ele>167.2</ele>
        <time>2021-07-03 21:28:15</time>
      </trkpt>
      <trkpt lat="28.95531" lon="-13.76504">
        <ele>166.6</ele>
        <time>2021-07-03 21:28:16</time>
      </trkpt>
      <trkpt lat="28.95534" lon="-13.76506">
        <ele>166.2</ele>
        <time>2021-07-03 21:28:17</time>
      </trkpt>
      <trkpt lat="28.95535" lon="-13.7651">
        <ele>165.8</ele>
        <time>2021-07-03 21:28:18</time>
      </trkpt>
      <trkpt lat="28.95534" lon="-13.76514">
        <ele>165.6</ele>
        <time>2021-07-03 21:28:19</time>
      </trkpt>
      <trkpt lat="28.95532" lon="-13.7652">
        <ele>165.4</ele>
        <time>2021-07-03 21:28:20</time>
      </trkpt>
      <trkpt lat="28.9553" lon="-13.76524">
        <ele>165</ele>
        <time>2021-07-03 21:28:21</time>
      </trkpt>
      <trkpt lat="28.95528" lon="-13.76529">
        <ele>164.8</ele>
        <time>2021-07-03 21:28:22</time>
      </trkpt>
      <trkpt lat="28.95525" lon="-13.76534">
        <ele>164.6</ele>
        <time>2021-07-03 21:28:23</time>
      </trkpt>
      <trkpt lat="28.95522" lon="-13.7654">
        <ele>164.2</ele>
        <time>2021-07-03 21:28:24</time>
      </trkpt>
      <trkpt lat="28.95519" lon="-13.76545">
        <ele>164</ele>
        <time>2021-07-03 21:28:25</time>
      </trkpt>
      <trkpt lat="28.95516" lon="-13.76549">
        <ele>163.8</ele>
        <time>2021-07-03 21:28:26</time>
      </trkpt>
      <trkpt lat="28.95513" lon="-13.76554">
        <ele>163.6</ele>
        <time>2021-07-03 21:28:27</time>
      </trkpt>
      <trkpt lat="28.95509" lon="-13.76559">
        <ele>163.4</ele>
        <time>2021-07-03 21:28:28</time>
      </trkpt>
      <trkpt lat="28.95505" lon="-13.76564">
        <ele>163</ele>
        <time>2021-07-03 21:28:29</time>
      </trkpt>
      <trkpt lat="28.95501" lon="-13.7657">
        <ele>162.8</ele>
        <time>2021-07-03 21:28:30</time>
      </trkpt>
      <trkpt lat="28.95498" lon="-13.76575">
        <ele>162.6</ele>
        <time>2021-07-03 21:28:31</time>
      </trkpt>
      <trkpt lat="28.95494" lon="-13.7658">
        <ele>162.2</ele>
        <time>2021-07-03 21:28:32</time>
      </trkpt>
      <trkpt lat="28.95492" lon="-13.76586">
        <ele>162.2</ele>
        <time>2021-07-03 21:28:33</time>
      </trkpt>
      <trkpt lat="28.9549" lon="-13.76591">
        <ele>162</ele>
        <time>2021-07-03 21:28:34</time>
      </trkpt>
      <trkpt lat="28.95489" lon="-13.76596">
        <ele>162</ele>
        <time>2021-07-03 21:28:35</time>
      </trkpt>
      <trkpt lat="28.95488" lon="-13.76599">
        <ele>162</ele>
        <time>2021-07-03 21:28:36</time>
      </trkpt>
      <trkpt lat="28.95487" lon="-13.76602">
        <ele>162</ele>
        <time>2021-07-03 21:28:37</time>
      </trkpt>
      <trkpt lat="28.95487" lon="-13.76604">
        <ele>161.8</ele>
        <time>2021-07-03 21:28:38</time>
      </trkpt>
      <trkpt lat="28.95487" lon="-13.76607">
        <ele>161.8</ele>
        <time>2021-07-03 21:28:39</time>
      </trkpt>
      <trkpt lat="28.95486" lon="-13.7661">
        <ele>161.8</ele>
        <time>2021-07-03 21:28:40</time>
      </trkpt>
      <trkpt lat="28.95486" lon="-13.76612">
        <ele>161.4</ele>
        <time>2021-07-03 21:28:41</time>
      </trkpt>
      <trkpt lat="28.95485" lon="-13.76614">
        <ele>161.4</ele>
        <time>2021-07-03 21:28:42</time>
      </trkpt>
      <trkpt lat="28.95483" lon="-13.76617">
        <ele>161.2</ele>
        <time>2021-07-03 21:28:43</time>
      </trkpt>
      <trkpt lat="28.95483" lon="-13.7662">
        <ele>161.2</ele>
        <time>2021-07-03 21:28:44</time>
      </trkpt>
      <trkpt lat="28.95483" lon="-13.76624">
        <ele>161.2</ele>
        <time>2021-07-03 21:28:45</time>
      </trkpt>
      <trkpt lat="28.95482" lon="-13.76628">
        <ele>160.8</ele>
        <time>2021-07-03 21:28:46</time>
      </trkpt>
      <trkpt lat="28.95482" lon="-13.76633">
        <ele>160.8</ele>
        <time>2021-07-03 21:28:47</time>
      </trkpt>
      <trkpt lat="28.95481" lon="-13.76638">
        <ele>160.6</ele>
        <time>2021-07-03 21:28:48</time>
      </trkpt>
      <trkpt lat="28.9548" lon="-13.76643">
        <ele>160.2</ele>
        <time>2021-07-03 21:28:49</time>
      </trkpt>
      <trkpt lat="28.9548" lon="-13.76648">
        <ele>160</ele>
        <time>2021-07-03 21:28:50</time>
      </trkpt>
      <trkpt lat="28.95479" lon="-13.76653">
        <ele>159.8</ele>
        <time>2021-07-03 21:28:51</time>
      </trkpt>
      <trkpt lat="28.95478" lon="-13.76658">
        <ele>159.6</ele>
        <time>2021-07-03 21:28:52</time>
      </trkpt>
      <trkpt lat="28.95476" lon="-13.76663">
        <ele>159.6</ele>
        <time>2021-07-03 21:28:53</time>
      </trkpt>
      <trkpt lat="28.95475" lon="-13.76667">
        <ele>159.2</ele>
        <time>2021-07-03 21:28:54</time>
      </trkpt>
      <trkpt lat="28.95474" lon="-13.76672">
        <ele>159.2</ele>
        <time>2021-07-03 21:28:55</time>
      </trkpt>
      <trkpt lat="28.95473" lon="-13.76676">
        <ele>158.8</ele>
        <time>2021-07-03 21:28:56</time>
      </trkpt>
      <trkpt lat="28.95472" lon="-13.7668">
        <ele>158.6</ele>
        <time>2021-07-03 21:28:57</time>
      </trkpt>
      <trkpt lat="28.95471" lon="-13.76684">
        <ele>158.6</ele>
        <time>2021-07-03 21:28:58</time>
      </trkpt>
      <trkpt lat="28.9547" lon="-13.76687">
        <ele>158.2</ele>
        <time>2021-07-03 21:28:59</time>
      </trkpt>
      <trkpt lat="28.95469" lon="-13.7669">
        <ele>158.2</ele>
        <time>2021-07-03 21:29:00</time>
      </trkpt>
      <trkpt lat="28.95469" lon="-13.76692">
        <ele>157.8</ele>
        <time>2021-07-03 21:29:01</time>
      </trkpt>
      <trkpt lat="28.95468" lon="-13.76695">
        <ele>157.6</ele>
        <time>2021-07-03 21:29:02</time>
      </trkpt>
      <trkpt lat="28.95467" lon="-13.76697">
        <ele>157.6</ele>
        <time>2021-07-03 21:29:03</time>
      </trkpt>
      <trkpt lat="28.95467" lon="-13.767">
        <ele>157.4</ele>
        <time>2021-07-03 21:29:04</time>
      </trkpt>
      <trkpt lat="28.95467" lon="-13.76702">
        <ele>157.4</ele>
        <time>2021-07-03 21:29:05</time>
      </trkpt>
      <trkpt lat="28.95468" lon="-13.76705">
        <ele>157</ele>
        <time>2021-07-03 21:29:06</time>
      </trkpt>
      <trkpt lat="28.9547" lon="-13.76708">
        <ele>157</ele>
        <time>2021-07-03 21:29:07</time>
      </trkpt>
      <trkpt lat="28.95472" lon="-13.76711">
        <ele>156.6</ele>
        <time>2021-07-03 21:29:08</time>
      </trkpt>
      <trkpt lat="28.95474" lon="-13.76712">
        <ele>156.6</ele>
        <time>2021-07-03 21:29:09</time>
      </trkpt>
      <trkpt lat="28.95476" lon="-13.76714">
        <ele>156.4</ele>
        <time>2021-07-03 21:29:10</time>
      </trkpt>
      <trkpt lat="28.95477" lon="-13.76716">
        <ele>156.4</ele>
        <time>2021-07-03 21:29:11</time>
      </trkpt>
      <trkpt lat="28.95477" lon="-13.76719">
        <ele>156.4</ele>
        <time>2021-07-03 21:29:12</time>
      </trkpt>
      <trkpt lat="28.95475" lon="-13.7672">
        <ele>156.4</ele>
        <time>2021-07-03 21:29:13</time>
      </trkpt>
      <trkpt lat="28.95472" lon="-13.7672">
        <ele>156.2</ele>
        <time>2021-07-03 21:29:14</time>
      </trkpt>
      <trkpt lat="28.9547" lon="-13.76717">
        <ele>156.2</ele>
        <time>2021-07-03 21:29:15</time>
      </trkpt>
      <trkpt lat="28.95469" lon="-13.76714">
        <ele>156.2</ele>
        <time>2021-07-03 21:29:16</time>
      </trkpt>
      <trkpt lat="28.95468" lon="-13.76711">
        <ele>156.2</ele>
        <time>2021-07-03 21:29:17</time>
      </trkpt>
      <trkpt lat="28.95467" lon="-13.76707">
        <ele>156.2</ele>
        <time>2021-07-03 21:29:18</time>
      </trkpt>
      <trkpt lat="28.95466" lon="-13.76703">
        <ele>156.2</ele>
        <time>2021-07-03 21:29:19</time>
      </trkpt>
      <trkpt lat="28.95466" lon="-13.76699">
        <ele>156.2</ele>
        <time>2021-07-03 21:29:20</time>
      </trkpt>
      <trkpt lat="28.95466" lon="-13.76695">
        <ele>156.4</ele>
        <time>2021-07-03 21:29:21</time>
      </trkpt>
      <trkpt lat="28.95467" lon="-13.76691">
        <ele>156.4</ele>
        <time>2021-07-03 21:29:22</time>
      </trkpt>
      <trkpt lat="28.95468" lon="-13.76688">
        <ele>156.6</ele>
        <time>2021-07-03 21:29:23</time>
      </trkpt>
      <trkpt lat="28.95469" lon="-13.76685">
        <ele>156.6</ele>
        <time>2021-07-03 21:29:24</time>
      </trkpt>
      <trkpt lat="28.9547" lon="-13.76681">
        <ele>157</ele>
        <time>2021-07-03 21:29:25</time>
      </trkpt>
      <trkpt lat="28.95471" lon="-13.76678">
        <ele>157</ele>
        <time>2021-07-03 21:29:26</time>
      </trkpt>
      <trkpt lat="28.95471" lon="-13.76675">
        <ele>157.2</ele>
        <time>2021-07-03 21:29:27</time>
      </trkpt>
      <trkpt lat="28.95472" lon="-13.76671">
        <ele>157.2</ele>
        <time>2021-07-03 21:29:28</time>
      </trkpt>
      <trkpt lat="28.95473" lon="-13.76668">
        <ele>157.4</ele>
        <time>2021-07-03 21:29:29</time>
      </trkpt>
      <trkpt lat="28.95475" lon="-13.76665">
        <ele>157.4</ele>
        <time>2021-07-03 21:29:30</time>
      </trkpt>
      <trkpt lat="28.95476" lon="-13.76662">
        <ele>157.8</ele>
        <time>2021-07-03 21:29:31</time>
      </trkpt>
      <trkpt lat="28.95477" lon="-13.76658">
        <ele>157.8</ele>
        <time>2021-07-03 21:29:32</time>
      </trkpt>
      <trkpt lat="28.95478" lon="-13.76655">
        <ele>158</ele>
        <time>2021-07-03 21:29:33</time>
      </trkpt>
      <trkpt lat="28.95479" lon="-13.76651">
        <ele>158</ele>
        <time>2021-07-03 21:29:34</time>
      </trkpt>
      <trkpt lat="28.95479" lon="-13.76647">
        <ele>158</ele>
        <time>2021-07-03 21:29:35</time>
      </trkpt>
      <trkpt lat="28.9548" lon="-13.76644">
        <ele>158.2</ele>
        <time>2021-07-03 21:29:36</time>
      </trkpt>
      <trkpt lat="28.9548" lon="-13.7664">
        <ele>158.2</ele>
        <time>2021-07-03 21:29:37</time>
      </trkpt>
      <trkpt lat="28.95481" lon="-13.76637">
        <ele>158.2</ele>
        <time>2021-07-03 21:29:38</time>
      </trkpt>
      <trkpt lat="28.95482" lon="-13.76633">
        <ele>158.4</ele>
        <time>2021-07-03 21:29:39</time>
      </trkpt>
      <trkpt lat="28.95482" lon="-13.7663">
        <ele>158.4</ele>
        <time>2021-07-03 21:29:40</time>
      </trkpt>
      <trkpt lat="28.95482" lon="-13.76626">
        <ele>158.8</ele>
        <time>2021-07-03 21:29:41</time>
      </trkpt>
      <trkpt lat="28.95482" lon="-13.76623">
        <ele>158.8</ele>
        <time>2021-07-03 21:29:42</time>
      </trkpt>
      <trkpt lat="28.95483" lon="-13.7662">
        <ele>159.2</ele>
        <time>2021-07-03 21:29:43</time>
      </trkpt>
      <trkpt lat="28.95483" lon="-13.76616">
        <ele>159.2</ele>
        <time>2021-07-03 21:29:44</time>
      </trkpt>
      <trkpt lat="28.95484" lon="-13.76613">
        <ele>159.4</ele>
        <time>2021-07-03 21:29:45</time>
      </trkpt>
      <trkpt lat="28.95485" lon="-13.7661">
        <ele>159.4</ele>
        <time>2021-07-03 21:29:46</time>
      </trkpt>
      <trkpt lat="28.95486" lon="-13.76608">
        <ele>159.8</ele>
        <time>2021-07-03 21:29:47</time>
      </trkpt>
      <trkpt lat="28.95487" lon="-13.76606">
        <ele>159.8</ele>
        <time>2021-07-03 21:29:48</time>
      </trkpt>
      <trkpt lat="28.95489" lon="-13.76605">
        <ele>160</ele>
        <time>2021-07-03 21:29:49</time>
      </trkpt>
      <trkpt lat="28.95492" lon="-13.76604">
        <ele>160</ele>
        <time>2021-07-03 21:29:50</time>
      </trkpt>
      <trkpt lat="28.95495" lon="-13.76605">
        <ele>160.4</ele>
        <time>2021-07-03 21:29:51</time>
      </trkpt>
      <trkpt lat="28.95498" lon="-13.76605">
        <ele>160.4</ele>
        <time>2021-07-03 21:29:52</time>
      </trkpt>
      <trkpt lat="28.95501" lon="-13.76606">
        <ele>160.4</ele>
        <time>2021-07-03 21:29:53</time>
      </trkpt>
      <trkpt lat="28.95504" lon="-13.76607">
        <ele>160.4</ele>
        <time>2021-07-03 21:29:54</time>
      </trkpt>
      <trkpt lat="28.95507" lon="-13.76608">
        <ele>160.4</ele>
        <time>2021-07-03 21:29:55</time>
      </trkpt>
      <trkpt lat="28.95511" lon="-13.76609">
        <ele>160.2</ele>
        <time>2021-07-03 21:29:56</time>
      </trkpt>
      <trkpt lat="28.95515" lon="-13.7661">
        <ele>160.2</ele>
        <time>2021-07-03 21:29:57</time>
      </trkpt>
      <trkpt lat="28.95518" lon="-13.7661">
        <ele>160.2</ele>
        <time>2021-07-03 21:29:58</time>
      </trkpt>
      <trkpt lat="28.95522" lon="-13.76611">
        <ele>160.2</ele>
        <time>2021-07-03 21:29:59</time>
      </trkpt>
      <trkpt lat="28.95525" lon="-13.76611">
        <ele>160.2</ele>
        <time>2021-07-03 21:30:00</time>
      </trkpt>
      <trkpt lat="28.95527" lon="-13.76612">
        <ele>160</ele>
        <time>2021-07-03 21:30:01</time>
      </trkpt>
      <trkpt lat="28.9553" lon="-13.76613">
        <ele>160</ele>
        <time>2021-07-03 21:30:02</time>
      </trkpt>
      <trkpt lat="28.95532" lon="-13.76614">
        <ele>160</ele>
        <time>2021-07-03 21:30:03</time>
      </trkpt>
      <trkpt lat="28.95535" lon="-13.76614">
        <ele>159.6</ele>
        <time>2021-07-03 21:30:04</time>
      </trkpt>
      <trkpt lat="28.95537" lon="-13.76613">
        <ele>159.4</ele>
        <time>2021-07-03 21:30:05</time>
      </trkpt>
      <trkpt lat="28.95538" lon="-13.76612">
        <ele>159.4</ele>
        <time>2021-07-03 21:30:06</time>
      </trkpt>
      <trkpt lat="28.9554" lon="-13.76612">
        <ele>159.4</ele>
        <time>2021-07-03 21:30:07</time>
      </trkpt>
      <trkpt lat="28.9554" lon="-13.76611">
        <ele>159.2</ele>
        <time>2021-07-03 21:30:08</time>
      </trkpt>
      <trkpt lat="28.9554" lon="-13.76611">
        <ele>159.2</ele>
        <time>2021-07-03 21:30:09</time>
      </trkpt>
      <trkpt lat="28.9554" lon="-13.76611">
        <ele>159.2</ele>
        <time>2021-07-03 21:30:10</time>
      </trkpt>
      <trkpt lat="28.9554" lon="-13.76611">
        <ele>159.2</ele>
        <time>2021-07-03 21:30:11</time>
      </trkpt>
      <trkpt lat="28.9554" lon="-13.76609">
        <ele>159.6</ele>
        <time>2021-07-03 21:30:12</time>
      </trkpt>
      <trkpt lat="28.9554" lon="-13.76608">
        <ele>159.6</ele>
        <time>2021-07-03 21:30:13</time>
      </trkpt>
      <trkpt lat="28.95539" lon="-13.76606">
        <ele>159.6</ele>
        <time>2021-07-03 21:30:14</time>
      </trkpt>
      <trkpt lat="28.95539" lon="-13.76604">
        <ele>159.6</ele>
        <time>2021-07-03 21:30:15</time>
      </trkpt>
      <trkpt lat="28.95538" lon="-13.76602">
        <ele>159.6</ele>
        <time>2021-07-03 21:30:16</time>
      </trkpt>
      <trkpt lat="28.95538" lon="-13.76599">
        <ele>159.6</ele>
        <time>2021-07-03 21:30:17</time>
      </trkpt>
      <trkpt lat="28.95538" lon="-13.76597">
        <ele>159.4</ele>
        <time>2021-07-03 21:30:18</time>
      </trkpt>
      <trkpt lat="28.95538" lon="-13.76594">
        <ele>159.4</ele>
        <time>2021-07-03 21:30:19</time>
      </trkpt>
      <trkpt lat="28.95539" lon="-13.76593">
        <ele>159.4</ele>
        <time>2021-07-03 21:30:20</time>
      </trkpt>
      <trkpt lat="28.9554" lon="-13.76591">
        <ele>159.4</ele>
        <time>2021-07-03 21:30:21</time>
      </trkpt>
      <trkpt lat="28.95541" lon="-13.76589">
        <ele>159.4</ele>
        <time>2021-07-03 21:30:22</time>
      </trkpt>
      <trkpt lat="28.95542" lon="-13.76587">
        <ele>159.4</ele>
        <time>2021-07-03 21:30:23</time>
      </trkpt>
      <trkpt lat="28.95544" lon="-13.76585">
        <ele>159.4</ele>
        <time>2021-07-03 21:30:24</time>
      </trkpt>
      <trkpt lat="28.95545" lon="-13.76584">
        <ele>159.4</ele>
        <time>2021-07-03 21:30:25</time>
      </trkpt>
      <trkpt lat="28.95545" lon="-13.76582">
        <ele>159.6</ele>
        <time>2021-07-03 21:30:26</time>
      </trkpt>
      <trkpt lat="28.95546" lon="-13.7658">
        <ele>159.6</ele>
        <time>2021-07-03 21:30:27</time>
      </trkpt>
      <trkpt lat="28.95546" lon="-13.76579">
        <ele>159.8</ele>
        <time>2021-07-03 21:30:28</time>
      </trkpt>
      <trkpt lat="28.95547" lon="-13.76578">
        <ele>159.8</ele>
        <time>2021-07-03 21:30:29</time>
      </trkpt>
      <trkpt lat="28.95548" lon="-13.76578">
        <ele>160</ele>
        <time>2021-07-03 21:30:30</time>
      </trkpt>
      <trkpt lat="28.95549" lon="-13.76579">
        <ele>160</ele>
        <time>2021-07-03 21:30:31</time>
      </trkpt>
      <trkpt lat="28.95549" lon="-13.76581">
        <ele>160</ele>
        <time>2021-07-03 21:30:32</time>
      </trkpt>
      <trkpt lat="28.95548" lon="-13.76583">
        <ele>160</ele>
        <time>2021-07-03 21:30:33</time>
      </trkpt>
      <trkpt lat="28.95546" lon="-13.76585">
        <ele>160</ele>
        <time>2021-07-03 21:30:34</time>
      </trkpt>
      <trkpt lat="28.95544" lon="-13.76587">
        <ele>160</ele>
        <time>2021-07-03 21:30:35</time>
      </trkpt>
      <trkpt lat="28.95542" lon="-13.7659">
        <ele>160</ele>
        <time>2021-07-03 21:30:36</time>
      </trkpt>
      <trkpt lat="28.9554" lon="-13.76592">
        <ele>160</ele>
        <time>2021-07-03 21:30:37</time>
      </trkpt>
      <trkpt lat="28.95539" lon="-13.76594">
        <ele>160</ele>
        <time>2021-07-03 21:30:38</time>
      </trkpt>
      <trkpt lat="28.95538" lon="-13.76596">
        <ele>159.8</ele>
        <time>2021-07-03 21:30:39</time>
      </trkpt>
      <trkpt lat="28.95538" lon="-13.76599">
        <ele>159.8</ele>
        <time>2021-07-03 21:30:40</time>
      </trkpt>
      <trkpt lat="28.95538" lon="-13.76601">
        <ele>159.8</ele>
        <time>2021-07-03 21:30:41</time>
      </trkpt>
      <trkpt lat="28.95538" lon="-13.76603">
        <ele>159.6</ele>
        <time>2021-07-03 21:30:42</time>
      </trkpt>
      <trkpt lat="28.95538" lon="-13.76606">
        <ele>159.6</ele>
        <time>2021-07-03 21:30:43</time>
      </trkpt>
      <trkpt lat="28.95538" lon="-13.76608">
        <ele>159.6</ele>
        <time>2021-07-03 21:30:44</time>
      </trkpt>
      <trkpt lat="28.95539" lon="-13.76611">
        <ele>159.4</ele>
        <time>2021-07-03 21:30:45</time>
      </trkpt>
      <trkpt lat="28.95538" lon="-13.76614">
        <ele>159.4</ele>
        <time>2021-07-03 21:30:46</time>
      </trkpt>
      <trkpt lat="28.95537" lon="-13.76616">
        <ele>159.4</ele>
        <time>2021-07-03 21:30:47</time>
      </trkpt>
      <trkpt lat="28.95535" lon="-13.76617">
        <ele>159</ele>
        <time>2021-07-03 21:30:48</time>
      </trkpt>
      <trkpt lat="28.95534" lon="-13.76617">
        <ele>159</ele>
        <time>2021-07-03 21:30:49</time>
      </trkpt>
      <trkpt lat="28.95532" lon="-13.76616">
        <ele>159</ele>
        <time>2021-07-03 21:30:50</time>
      </trkpt>
      <trkpt lat="28.95529" lon="-13.76615">
        <ele>159</ele>
        <time>2021-07-03 21:30:51</time>
      </trkpt>
      <trkpt lat="28.95528" lon="-13.76614">
        <ele>159</ele>
        <time>2021-07-03 21:30:52</time>
      </trkpt>
      <trkpt lat="28.95526" lon="-13.76614">
        <ele>159.2</ele>
        <time>2021-07-03 21:30:53</time>
      </trkpt>
      <trkpt lat="28.95524" lon="-13.76614">
        <ele>159.2</ele>
        <time>2021-07-03 21:30:54</time>
      </trkpt>
      <trkpt lat="28.95524" lon="-13.76614">
        <ele>159.2</ele>
        <time>2021-07-03 21:30:55</time>
      </trkpt>
      <trkpt lat="28.95524" lon="-13.76613">
        <ele>159.4</ele>
        <time>2021-07-03 21:30:56</time>
      </trkpt>
      <trkpt lat="28.95524" lon="-13.76613">
        <ele>159.4</ele>
        <time>2021-07-03 21:30:57</time>
      </trkpt>
      <trkpt lat="28.95523" lon="-13.76613">
        <ele>159.4</ele>
        <time>2021-07-03 21:30:58</time>
      </trkpt>
      <trkpt lat="28.95522" lon="-13.76615">
        <ele>159.8</ele>
        <time>2021-07-03 21:30:59</time>
      </trkpt>
      <trkpt lat="28.95522" lon="-13.76615">
        <ele>159.8</ele>
        <time>2021-07-03 21:31:00</time>
      </trkpt>
      <trkpt lat="28.95522" lon="-13.76615">
        <ele>159.8</ele>
        <time>2021-07-03 21:31:01</time>
      </trkpt>
      <trkpt lat="28.95522" lon="-13.76615">
        <ele>159.8</ele>
        <time>2021-07-03 21:31:02</time>
      </trkpt>
      <trkpt lat="28.95522" lon="-13.76615">
        <ele>159.8</ele>
        <time>2021-07-03 21:31:03</time>
      </trkpt>
      <trkpt lat="28.95522" lon="-13.76613">
        <ele>160.2</ele>
        <time>2021-07-03 21:31:04</time>
      </trkpt>
      <trkpt lat="28.95522" lon="-13.76613">
        <ele>160.2</ele>
        <time>2021-07-03 21:31:05</time>
      </trkpt>
      <trkpt lat="28.95522" lon="-13.76613">
        <ele>160.2</ele>
        <time>2021-07-03 21:31:06</time>
      </trkpt>
      <trkpt lat="28.95523" lon="-13.76613">
        <ele>160.2</ele>
        <time>2021-07-03 21:31:07</time>
      </trkpt>
      <trkpt lat="28.95525" lon="-13.76613">
        <ele>160.2</ele>
        <time>2021-07-03 21:31:08</time>
      </trkpt>
      <trkpt lat="28.95526" lon="-13.76613">
        <ele>160.2</ele>
        <time>2021-07-03 21:31:09</time>
      </trkpt>
      <trkpt lat="28.95528" lon="-13.76613">
        <ele>160.2</ele>
        <time>2021-07-03 21:31:10</time>
      </trkpt>
      <trkpt lat="28.95529" lon="-13.76613">
        <ele>160.2</ele>
        <time>2021-07-03 21:31:11</time>
      </trkpt>
      <trkpt lat="28.9553" lon="-13.76614">
        <ele>160.2</ele>
        <time>2021-07-03 21:31:12</time>
      </trkpt>
      <trkpt lat="28.95531" lon="-13.76614">
        <ele>160.2</ele>
        <time>2021-07-03 21:31:13</time>
      </trkpt>
      <trkpt lat="28.95532" lon="-13.76614">
        <ele>160</ele>
        <time>2021-07-03 21:31:14</time>
      </trkpt>
      <trkpt lat="28.95533" lon="-13.76614">
        <ele>160</ele>
        <time>2021-07-03 21:31:15</time>
      </trkpt>
      <trkpt lat="28.95533" lon="-13.76614">
        <ele>160</ele>
        <time>2021-07-03 21:31:16</time>
      </trkpt>
      <trkpt lat="28.95533" lon="-13.76614">
        <ele>159.6</ele>
        <time>2021-07-03 21:31:17</time>
      </trkpt>
      <trkpt lat="28.95533" lon="-13.76614">
        <ele>159.6</ele>
        <time>2021-07-03 21:31:18</time>
      </trkpt>
      <trkpt lat="28.95535" lon="-13.76614">
        <ele>160</ele>
        <time>2021-07-03 21:31:19</time>
      </trkpt>
      <trkpt lat="28.95535" lon="-13.76614">
        <ele>160</ele>
        <time>2021-07-03 21:31:20</time>
      </trkpt>
      <trkpt lat="28.95534" lon="-13.76615">
        <ele>160</ele>
        <time>2021-07-03 21:31:21</time>
      </trkpt>
      <trkpt lat="28.95534" lon="-13.76615">
        <ele>160</ele>
        <time>2021-07-03 21:31:22</time>
      </trkpt>
      <trkpt lat="28.95534" lon="-13.76615">
        <ele>160</ele>
        <time>2021-07-03 21:31:23</time>
      </trkpt>
      <trkpt lat="28.95534" lon="-13.76615">
        <ele>159.6</ele>
        <time>2021-07-03 21:31:24</time>
      </trkpt>
      <trkpt lat="28.9553" lon="-13.76616">
        <ele>163.8</ele>
        <time>2021-07-04 08:44:54</time>
      </trkpt>
      <trkpt lat="28.95528" lon="-13.76615">
        <ele>163.4</ele>
        <time>2021-07-04 08:45:01</time>
      </trkpt>
      <trkpt lat="28.95527" lon="-13.76614">
        <ele>163.4</ele>
        <time>2021-07-04 08:45:02</time>
      </trkpt>
      <trkpt lat="28.95525" lon="-13.76614">
        <ele>163.4</ele>
        <time>2021-07-04 08:45:03</time>
      </trkpt>
      <trkpt lat="28.95523" lon="-13.76613">
        <ele>163.4</ele>
        <time>2021-07-04 08:45:04</time>
      </trkpt>
      <trkpt lat="28.95521" lon="-13.76613">
        <ele>163.8</ele>
        <time>2021-07-04 08:45:05</time>
      </trkpt>
      <trkpt lat="28.95519" lon="-13.76612">
        <ele>163.8</ele>
        <time>2021-07-04 08:45:06</time>
      </trkpt>
      <trkpt lat="28.95517" lon="-13.76612">
        <ele>163.8</ele>
        <time>2021-07-04 08:45:07</time>
      </trkpt>
      <trkpt lat="28.95515" lon="-13.76611">
        <ele>163.8</ele>
        <time>2021-07-04 08:45:08</time>
      </trkpt>
      <trkpt lat="28.95512" lon="-13.76611">
        <ele>163.8</ele>
        <time>2021-07-04 08:45:09</time>
      </trkpt>
      <trkpt lat="28.9551" lon="-13.7661">
        <ele>163.8</ele>
        <time>2021-07-04 08:45:10</time>
      </trkpt>
      <trkpt lat="28.95508" lon="-13.76609">
        <ele>164</ele>
        <time>2021-07-04 08:45:11</time>
      </trkpt>
      <trkpt lat="28.95506" lon="-13.76608">
        <ele>164</ele>
        <time>2021-07-04 08:45:12</time>
      </trkpt>
      <trkpt lat="28.95503" lon="-13.76607">
        <ele>164</ele>
        <time>2021-07-04 08:45:13</time>
      </trkpt>
      <trkpt lat="28.95501" lon="-13.76607">
        <ele>164.2</ele>
        <time>2021-07-04 08:45:14</time>
      </trkpt>
      <trkpt lat="28.95499" lon="-13.76606">
        <ele>164.2</ele>
        <time>2021-07-04 08:45:15</time>
      </trkpt>
      <trkpt lat="28.95497" lon="-13.76606">
        <ele>164.6</ele>
        <time>2021-07-04 08:45:16</time>
      </trkpt>
      <trkpt lat="28.95496" lon="-13.76605">
        <ele>164.6</ele>
        <time>2021-07-04 08:45:17</time>
      </trkpt>
      <trkpt lat="28.95494" lon="-13.76605">
        <ele>164.6</ele>
        <time>2021-07-04 08:45:18</time>
      </trkpt>
      <trkpt lat="28.95493" lon="-13.76605">
        <ele>164.6</ele>
        <time>2021-07-04 08:45:19</time>
      </trkpt>
      <trkpt lat="28.95491" lon="-13.76605">
        <ele>165</ele>
        <time>2021-07-04 08:45:20</time>
      </trkpt>
      <trkpt lat="28.9549" lon="-13.76605">
        <ele>165.2</ele>
        <time>2021-07-04 08:45:21</time>
      </trkpt>
      <trkpt lat="28.95489" lon="-13.76606">
        <ele>165.2</ele>
        <time>2021-07-04 08:45:22</time>
      </trkpt>
      <trkpt lat="28.95487" lon="-13.76607">
        <ele>165.4</ele>
        <time>2021-07-04 08:45:23</time>
      </trkpt>
      <trkpt lat="28.95486" lon="-13.76609">
        <ele>165.6</ele>
        <time>2021-07-04 08:45:24</time>
      </trkpt>
      <trkpt lat="28.95485" lon="-13.76612">
        <ele>165.8</ele>
        <time>2021-07-04 08:45:25</time>
      </trkpt>
      <trkpt lat="28.95485" lon="-13.76616">
        <ele>165.8</ele>
        <time>2021-07-04 08:45:26</time>
      </trkpt>
      <trkpt lat="28.95485" lon="-13.76619">
        <ele>166.2</ele>
        <time>2021-07-04 08:45:27</time>
      </trkpt>
      <trkpt lat="28.95484" lon="-13.76623">
        <ele>166.2</ele>
        <time>2021-07-04 08:45:28</time>
      </trkpt>
      <trkpt lat="28.95484" lon="-13.76628">
        <ele>166.2</ele>
        <time>2021-07-04 08:45:29</time>
      </trkpt>
      <trkpt lat="28.95484" lon="-13.76633">
        <ele>166.2</ele>
        <time>2021-07-04 08:45:30</time>
      </trkpt>
      <trkpt lat="28.95484" lon="-13.76638">
        <ele>166</ele>
        <time>2021-07-04 08:45:31</time>
      </trkpt>
      <trkpt lat="28.95483" lon="-13.76644">
        <ele>165.8</ele>
        <time>2021-07-04 08:45:32</time>
      </trkpt>
      <trkpt lat="28.95482" lon="-13.7665">
        <ele>165.8</ele>
        <time>2021-07-04 08:45:33</time>
      </trkpt>
      <trkpt lat="28.95481" lon="-13.76656">
        <ele>165.4</ele>
        <time>2021-07-04 08:45:34</time>
      </trkpt>
      <trkpt lat="28.95479" lon="-13.76662">
        <ele>165.4</ele>
        <time>2021-07-04 08:45:35</time>
      </trkpt>
      <trkpt lat="28.95479" lon="-13.76662">
        <ele>165.2</ele>
        <time>2021-07-04 08:45:36</time>
      </trkpt>
      <trkpt lat="28.95476" lon="-13.76675">
        <ele>165.2</ele>
        <time>2021-07-04 08:45:37</time>
      </trkpt>
      <trkpt lat="28.95474" lon="-13.76682">
        <ele>164.6</ele>
        <time>2021-07-04 08:45:38</time>
      </trkpt>
      <trkpt lat="28.95472" lon="-13.76689">
        <ele>164.2</ele>
        <time>2021-07-04 08:45:39</time>
      </trkpt>
      <trkpt lat="28.9547" lon="-13.76696">
        <ele>164</ele>
        <time>2021-07-04 08:45:40</time>
      </trkpt>
      <trkpt lat="28.95468" lon="-13.76704">
        <ele>163.8</ele>
        <time>2021-07-04 08:45:41</time>
      </trkpt>
      <trkpt lat="28.95466" lon="-13.76711">
        <ele>163.6</ele>
        <time>2021-07-04 08:45:42</time>
      </trkpt>
      <trkpt lat="28.95464" lon="-13.76718">
        <ele>163.2</ele>
        <time>2021-07-04 08:45:43</time>
      </trkpt>
      <trkpt lat="28.95463" lon="-13.76725">
        <ele>163</ele>
        <time>2021-07-04 08:45:44</time>
      </trkpt>
      <trkpt lat="28.95461" lon="-13.76733">
        <ele>163</ele>
        <time>2021-07-04 08:45:45</time>
      </trkpt>
      <trkpt lat="28.95459" lon="-13.7674">
        <ele>162.6</ele>
        <time>2021-07-04 08:45:46</time>
      </trkpt>
      <trkpt lat="28.95457" lon="-13.76747">
        <ele>162.6</ele>
        <time>2021-07-04 08:45:47</time>
      </trkpt>
      <trkpt lat="28.95455" lon="-13.76754">
        <ele>162.6</ele>
        <time>2021-07-04 08:45:48</time>
      </trkpt>
      <trkpt lat="28.95453" lon="-13.76762">
        <ele>162.4</ele>
        <time>2021-07-04 08:45:49</time>
      </trkpt>
      <trkpt lat="28.95451" lon="-13.76769">
        <ele>162.4</ele>
        <time>2021-07-04 08:45:50</time>
      </trkpt>
      <trkpt lat="28.95448" lon="-13.76776">
        <ele>162.4</ele>
        <time>2021-07-04 08:45:51</time>
      </trkpt>
      <trkpt lat="28.95445" lon="-13.76782">
        <ele>162</ele>
        <time>2021-07-04 08:45:52</time>
      </trkpt>
      <trkpt lat="28.95441" lon="-13.76789">
        <ele>162</ele>
        <time>2021-07-04 08:45:53</time>
      </trkpt>
      <trkpt lat="28.95438" lon="-13.76795">
        <ele>161.6</ele>
        <time>2021-07-04 08:45:54</time>
      </trkpt>
      <trkpt lat="28.95434" lon="-13.76801">
        <ele>161.6</ele>
        <time>2021-07-04 08:45:55</time>
      </trkpt>
      <trkpt lat="28.9543" lon="-13.76808">
        <ele>161.4</ele>
        <time>2021-07-04 08:45:56</time>
      </trkpt>
      <trkpt lat="28.95427" lon="-13.76813">
        <ele>161.4</ele>
        <time>2021-07-04 08:45:57</time>
      </trkpt>
      <trkpt lat="28.95424" lon="-13.76819">
        <ele>161.4</ele>
        <time>2021-07-04 08:45:58</time>
      </trkpt>
      <trkpt lat="28.95421" lon="-13.76824">
        <ele>161</ele>
        <time>2021-07-04 08:45:59</time>
      </trkpt>
      <trkpt lat="28.95417" lon="-13.76828">
        <ele>161</ele>
        <time>2021-07-04 08:46:00</time>
      </trkpt>
      <trkpt lat="28.95413" lon="-13.76832">
        <ele>161</ele>
        <time>2021-07-04 08:46:01</time>
      </trkpt>
      <trkpt lat="28.95409" lon="-13.76836">
        <ele>160.8</ele>
        <time>2021-07-04 08:46:02</time>
      </trkpt>
      <trkpt lat="28.95403" lon="-13.76836">
        <ele>160.8</ele>
        <time>2021-07-04 08:46:03</time>
      </trkpt>
      <trkpt lat="28.95398" lon="-13.76835">
        <ele>160.6</ele>
        <time>2021-07-04 08:46:04</time>
      </trkpt>
      <trkpt lat="28.95393" lon="-13.76833">
        <ele>160.6</ele>
        <time>2021-07-04 08:46:05</time>
      </trkpt>
      <trkpt lat="28.95388" lon="-13.76831">
        <ele>160.4</ele>
        <time>2021-07-04 08:46:06</time>
      </trkpt>
      <trkpt lat="28.95383" lon="-13.7683">
        <ele>160.4</ele>
        <time>2021-07-04 08:46:07</time>
      </trkpt>
      <trkpt lat="28.95378" lon="-13.76828">
        <ele>160.4</ele>
        <time>2021-07-04 08:46:08</time>
      </trkpt>
      <trkpt lat="28.95374" lon="-13.76827">
        <ele>160.2</ele>
        <time>2021-07-04 08:46:09</time>
      </trkpt>
      <trkpt lat="28.95369" lon="-13.76826">
        <ele>160.2</ele>
        <time>2021-07-04 08:46:10</time>
      </trkpt>
      <trkpt lat="28.95364" lon="-13.76825">
        <ele>160.2</ele>
        <time>2021-07-04 08:46:11</time>
      </trkpt>
      <trkpt lat="28.9536" lon="-13.76824">
        <ele>160.2</ele>
        <time>2021-07-04 08:46:12</time>
      </trkpt>
      <trkpt lat="28.95355" lon="-13.76822">
        <ele>160.2</ele>
        <time>2021-07-04 08:46:13</time>
      </trkpt>
      <trkpt lat="28.95351" lon="-13.76821">
        <ele>160.4</ele>
        <time>2021-07-04 08:46:14</time>
      </trkpt>
      <trkpt lat="28.95346" lon="-13.7682">
        <ele>160.4</ele>
        <time>2021-07-04 08:46:15</time>
      </trkpt>
      <trkpt lat="28.95342" lon="-13.76819">
        <ele>160.8</ele>
        <time>2021-07-04 08:46:16</time>
      </trkpt>
      <trkpt lat="28.95339" lon="-13.76818">
        <ele>160.8</ele>
        <time>2021-07-04 08:46:17</time>
      </trkpt>
      <trkpt lat="28.95335" lon="-13.76817">
        <ele>161.2</ele>
        <time>2021-07-04 08:46:18</time>
      </trkpt>
      <trkpt lat="28.95332" lon="-13.76816">
        <ele>161.4</ele>
        <time>2021-07-04 08:46:19</time>
      </trkpt>
      <trkpt lat="28.95329" lon="-13.76815">
        <ele>161.6</ele>
        <time>2021-07-04 08:46:20</time>
      </trkpt>
      <trkpt lat="28.95326" lon="-13.76814">
        <ele>162</ele>
        <time>2021-07-04 08:46:21</time>
      </trkpt>
      <trkpt lat="28.95322" lon="-13.76813">
        <ele>162.2</ele>
        <time>2021-07-04 08:46:22</time>
      </trkpt>
      <trkpt lat="28.95319" lon="-13.76811">
        <ele>162.6</ele>
        <time>2021-07-04 08:46:23</time>
      </trkpt>
      <trkpt lat="28.95316" lon="-13.7681">
        <ele>162.8</ele>
        <time>2021-07-04 08:46:24</time>
      </trkpt>
      <trkpt lat="28.95313" lon="-13.76809">
        <ele>163.2</ele>
        <time>2021-07-04 08:46:25</time>
      </trkpt>
      <trkpt lat="28.9531" lon="-13.76809">
        <ele>163.4</ele>
        <time>2021-07-04 08:46:26</time>
      </trkpt>
      <trkpt lat="28.95307" lon="-13.76808">
        <ele>163.6</ele>
        <time>2021-07-04 08:46:27</time>
      </trkpt>
      <trkpt lat="28.95304" lon="-13.76807">
        <ele>163.8</ele>
        <time>2021-07-04 08:46:28</time>
      </trkpt>
      <trkpt lat="28.95301" lon="-13.76807">
        <ele>164</ele>
        <time>2021-07-04 08:46:29</time>
      </trkpt>
      <trkpt lat="28.95299" lon="-13.76807">
        <ele>164</ele>
        <time>2021-07-04 08:46:30</time>
      </trkpt>
      <trkpt lat="28.95296" lon="-13.76808">
        <ele>164.4</ele>
        <time>2021-07-04 08:46:31</time>
      </trkpt>
      <trkpt lat="28.95294" lon="-13.76809">
        <ele>164.4</ele>
        <time>2021-07-04 08:46:32</time>
      </trkpt>
      <trkpt lat="28.95291" lon="-13.7681">
        <ele>164.8</ele>
        <time>2021-07-04 08:46:33</time>
      </trkpt>
      <trkpt lat="28.95288" lon="-13.7681">
        <ele>164.8</ele>
        <time>2021-07-04 08:46:34</time>
      </trkpt>
      <trkpt lat="28.95285" lon="-13.76811">
        <ele>165.2</ele>
        <time>2021-07-04 08:46:35</time>
      </trkpt>
      <trkpt lat="28.95282" lon="-13.76812">
        <ele>165.2</ele>
        <time>2021-07-04 08:46:36</time>
      </trkpt>
      <trkpt lat="28.95279" lon="-13.76812">
        <ele>165.4</ele>
        <time>2021-07-04 08:46:37</time>
      </trkpt>
      <trkpt lat="28.95276" lon="-13.76813">
        <ele>165.4</ele>
        <time>2021-07-04 08:46:38</time>
      </trkpt>
      <trkpt lat="28.95274" lon="-13.76814">
        <ele>165.8</ele>
        <time>2021-07-04 08:46:39</time>
      </trkpt>
      <trkpt lat="28.95271" lon="-13.76815">
        <ele>165.8</ele>
        <time>2021-07-04 08:46:40</time>
      </trkpt>
      <trkpt lat="28.95268" lon="-13.76815">
        <ele>166.2</ele>
        <time>2021-07-04 08:46:41</time>
      </trkpt>
      <trkpt lat="28.95266" lon="-13.76816">
        <ele>166.6</ele>
        <time>2021-07-04 08:46:42</time>
      </trkpt>
      <trkpt lat="28.95263" lon="-13.76817">
        <ele>166.8</ele>
        <time>2021-07-04 08:46:43</time>
      </trkpt>
      <trkpt lat="28.95261" lon="-13.76818">
        <ele>166.8</ele>
        <time>2021-07-04 08:46:44</time>
      </trkpt>
      <trkpt lat="28.95259" lon="-13.76818">
        <ele>167.2</ele>
        <time>2021-07-04 08:46:45</time>
      </trkpt>
      <trkpt lat="28.95257" lon="-13.76819">
        <ele>167.2</ele>
        <time>2021-07-04 08:46:46</time>
      </trkpt>
      <trkpt lat="28.95255" lon="-13.7682">
        <ele>167.6</ele>
        <time>2021-07-04 08:46:47</time>
      </trkpt>
      <trkpt lat="28.95254" lon="-13.76822">
        <ele>167.8</ele>
        <time>2021-07-04 08:46:48</time>
      </trkpt>
      <trkpt lat="28.95253" lon="-13.76824">
        <ele>168</ele>
        <time>2021-07-04 08:46:49</time>
      </trkpt>
      <trkpt lat="28.95253" lon="-13.76827">
        <ele>168</ele>
        <time>2021-07-04 08:46:50</time>
      </trkpt>
      <trkpt lat="28.95254" lon="-13.76831">
        <ele>168.4</ele>
        <time>2021-07-04 08:46:51</time>
      </trkpt>
      <trkpt lat="28.95255" lon="-13.76834">
        <ele>168.4</ele>
        <time>2021-07-04 08:46:52</time>
      </trkpt>
      <trkpt lat="28.95256" lon="-13.76839">
        <ele>168.4</ele>
        <time>2021-07-04 08:46:53</time>
      </trkpt>
      <trkpt lat="28.95257" lon="-13.76843">
        <ele>168.4</ele>
        <time>2021-07-04 08:46:54</time>
      </trkpt>
      <trkpt lat="28.95258" lon="-13.76847">
        <ele>168.6</ele>
        <time>2021-07-04 08:46:55</time>
      </trkpt>
      <trkpt lat="28.95259" lon="-13.76852">
        <ele>168.6</ele>
        <time>2021-07-04 08:46:56</time>
      </trkpt>
      <trkpt lat="28.9526" lon="-13.76857">
        <ele>169</ele>
        <time>2021-07-04 08:46:57</time>
      </trkpt>
      <trkpt lat="28.95262" lon="-13.76863">
        <ele>169</ele>
        <time>2021-07-04 08:46:58</time>
      </trkpt>
      <trkpt lat="28.95263" lon="-13.76868">
        <ele>169</ele>
        <time>2021-07-04 08:46:59</time>
      </trkpt>
      <trkpt lat="28.95264" lon="-13.76874">
        <ele>169</ele>
        <time>2021-07-04 08:47:00</time>
      </trkpt>
      <trkpt lat="28.95265" lon="-13.7688">
        <ele>169</ele>
        <time>2021-07-04 08:47:01</time>
      </trkpt>
      <trkpt lat="28.95267" lon="-13.76886">
        <ele>169</ele>
        <time>2021-07-04 08:47:02</time>
      </trkpt>
      <trkpt lat="28.95269" lon="-13.76892">
        <ele>168.8</ele>
        <time>2021-07-04 08:47:03</time>
      </trkpt>
      <trkpt lat="28.95271" lon="-13.76897">
        <ele>168.6</ele>
        <time>2021-07-04 08:47:04</time>
      </trkpt>
      <trkpt lat="28.95273" lon="-13.76903">
        <ele>168.4</ele>
        <time>2021-07-04 08:47:05</time>
      </trkpt>
      <trkpt lat="28.95276" lon="-13.76909">
        <ele>168</ele>
        <time>2021-07-04 08:47:06</time>
      </trkpt>
      <trkpt lat="28.9528" lon="-13.76914">
        <ele>167.8</ele>
        <time>2021-07-04 08:47:07</time>
      </trkpt>
      <trkpt lat="28.95283" lon="-13.7692">
        <ele>167.6</ele>
        <time>2021-07-04 08:47:08</time>
      </trkpt>
      <trkpt lat="28.95287" lon="-13.76926">
        <ele>167.4</ele>
        <time>2021-07-04 08:47:09</time>
      </trkpt>
      <trkpt lat="28.95291" lon="-13.76932">
        <ele>167.4</ele>
        <time>2021-07-04 08:47:10</time>
      </trkpt>
      <trkpt lat="28.95294" lon="-13.76938">
        <ele>167.4</ele>
        <time>2021-07-04 08:47:11</time>
      </trkpt>
      <trkpt lat="28.95298" lon="-13.76944">
        <ele>167.2</ele>
        <time>2021-07-04 08:47:12</time>
      </trkpt>
      <trkpt lat="28.95303" lon="-13.7695">
        <ele>167.2</ele>
        <time>2021-07-04 08:47:13</time>
      </trkpt>
      <trkpt lat="28.95306" lon="-13.76956">
        <ele>167.2</ele>
        <time>2021-07-04 08:47:14</time>
      </trkpt>
      <trkpt lat="28.9531" lon="-13.76962">
        <ele>167.2</ele>
        <time>2021-07-04 08:47:15</time>
      </trkpt>
      <trkpt lat="28.95314" lon="-13.76968">
        <ele>166.8</ele>
        <time>2021-07-04 08:47:16</time>
      </trkpt>
      <trkpt lat="28.95318" lon="-13.76974">
        <ele>166.8</ele>
        <time>2021-07-04 08:47:17</time>
      </trkpt>
      <trkpt lat="28.95322" lon="-13.7698">
        <ele>166.6</ele>
        <time>2021-07-04 08:47:18</time>
      </trkpt>
      <trkpt lat="28.95326" lon="-13.76986">
        <ele>166.4</ele>
        <time>2021-07-04 08:47:19</time>
      </trkpt>
      <trkpt lat="28.9533" lon="-13.76993">
        <ele>166.4</ele>
        <time>2021-07-04 08:47:20</time>
      </trkpt>
      <trkpt lat="28.95334" lon="-13.76999">
        <ele>166</ele>
        <time>2021-07-04 08:47:21</time>
      </trkpt>
      <trkpt lat="28.95336" lon="-13.77006">
        <ele>165.8</ele>
        <time>2021-07-04 08:47:22</time>
      </trkpt>
      <trkpt lat="28.95339" lon="-13.77014">
        <ele>165.4</ele>
        <time>2021-07-04 08:47:23</time>
      </trkpt>
      <trkpt lat="28.95343" lon="-13.77021">
        <ele>165.2</ele>
        <time>2021-07-04 08:47:24</time>
      </trkpt>
      <trkpt lat="28.95346" lon="-13.77028">
        <ele>164.8</ele>
        <time>2021-07-04 08:47:25</time>
      </trkpt>
      <trkpt lat="28.9535" lon="-13.77035">
        <ele>164.6</ele>
        <time>2021-07-04 08:47:26</time>
      </trkpt>
      <trkpt lat="28.95354" lon="-13.77042">
        <ele>164.2</ele>
        <time>2021-07-04 08:47:27</time>
      </trkpt>
      <trkpt lat="28.95357" lon="-13.7705">
        <ele>164</ele>
        <time>2021-07-04 08:47:28</time>
      </trkpt>
      <trkpt lat="28.9536" lon="-13.77057">
        <ele>163.6</ele>
        <time>2021-07-04 08:47:29</time>
      </trkpt>
      <trkpt lat="28.95363" lon="-13.77065">
        <ele>163.4</ele>
        <time>2021-07-04 08:47:30</time>
      </trkpt>
      <trkpt lat="28.95366" lon="-13.77073">
        <ele>163</ele>
        <time>2021-07-04 08:47:31</time>
      </trkpt>
      <trkpt lat="28.95368" lon="-13.77082">
        <ele>162.6</ele>
        <time>2021-07-04 08:47:32</time>
      </trkpt>
      <trkpt lat="28.95371" lon="-13.7709">
        <ele>162.2</ele>
        <time>2021-07-04 08:47:33</time>
      </trkpt>
      <trkpt lat="28.95373" lon="-13.77099">
        <ele>161.8</ele>
        <time>2021-07-04 08:47:34</time>
      </trkpt>
      <trkpt lat="28.95375" lon="-13.77108">
        <ele>161.6</ele>
        <time>2021-07-04 08:47:35</time>
      </trkpt>
      <trkpt lat="28.95377" lon="-13.77116">
        <ele>161.2</ele>
        <time>2021-07-04 08:47:36</time>
      </trkpt>
      <trkpt lat="28.95378" lon="-13.77125">
        <ele>161</ele>
        <time>2021-07-04 08:47:37</time>
      </trkpt>
      <trkpt lat="28.95379" lon="-13.77135">
        <ele>160.6</ele>
        <time>2021-07-04 08:47:38</time>
      </trkpt>
      <trkpt lat="28.95381" lon="-13.77144">
        <ele>160.2</ele>
        <time>2021-07-04 08:47:39</time>
      </trkpt>
      <trkpt lat="28.95382" lon="-13.77153">
        <ele>160</ele>
        <time>2021-07-04 08:47:40</time>
      </trkpt>
      <trkpt lat="28.95384" lon="-13.77162">
        <ele>159.6</ele>
        <time>2021-07-04 08:47:41</time>
      </trkpt>
      <trkpt lat="28.95385" lon="-13.77171">
        <ele>159.2</ele>
        <time>2021-07-04 08:47:42</time>
      </trkpt>
      <trkpt lat="28.95386" lon="-13.77181">
        <ele>158.8</ele>
        <time>2021-07-04 08:47:43</time>
      </trkpt>
      <trkpt lat="28.95388" lon="-13.7719">
        <ele>158.4</ele>
        <time>2021-07-04 08:47:44</time>
      </trkpt>
      <trkpt lat="28.95389" lon="-13.772">
        <ele>158.2</ele>
        <time>2021-07-04 08:47:45</time>
      </trkpt>
      <trkpt lat="28.9539" lon="-13.7721">
        <ele>158</ele>
        <time>2021-07-04 08:47:46</time>
      </trkpt>
      <trkpt lat="28.95391" lon="-13.77219">
        <ele>157.6</ele>
        <time>2021-07-04 08:47:47</time>
      </trkpt>
      <trkpt lat="28.95393" lon="-13.77229">
        <ele>157.4</ele>
        <time>2021-07-04 08:47:48</time>
      </trkpt>
      <trkpt lat="28.95394" lon="-13.7724">
        <ele>157</ele>
        <time>2021-07-04 08:47:49</time>
      </trkpt>
      <trkpt lat="28.95396" lon="-13.7725">
        <ele>156.8</ele>
        <time>2021-07-04 08:47:50</time>
      </trkpt>
      <trkpt lat="28.95397" lon="-13.7726">
        <ele>156.6</ele>
        <time>2021-07-04 08:47:51</time>
      </trkpt>
      <trkpt lat="28.95399" lon="-13.7727">
        <ele>156.4</ele>
        <time>2021-07-04 08:47:52</time>
      </trkpt>
      <trkpt lat="28.95401" lon="-13.77281">
        <ele>156.4</ele>
        <time>2021-07-04 08:47:53</time>
      </trkpt>
      <trkpt lat="28.95402" lon="-13.77292">
        <ele>156</ele>
        <time>2021-07-04 08:47:54</time>
      </trkpt>
      <trkpt lat="28.95404" lon="-13.77302">
        <ele>155.6</ele>
        <time>2021-07-04 08:47:55</time>
      </trkpt>
      <trkpt lat="28.95405" lon="-13.77313">
        <ele>155.4</ele>
        <time>2021-07-04 08:47:56</time>
      </trkpt>
      <trkpt lat="28.95406" lon="-13.77323">
        <ele>155</ele>
        <time>2021-07-04 08:47:57</time>
      </trkpt>
      <trkpt lat="28.95407" lon="-13.77335">
        <ele>154.8</ele>
        <time>2021-07-04 08:47:58</time>
      </trkpt>
      <trkpt lat="28.95407" lon="-13.77346">
        <ele>154.4</ele>
        <time>2021-07-04 08:47:59</time>
      </trkpt>
      <trkpt lat="28.95408" lon="-13.77357">
        <ele>154.2</ele>
        <time>2021-07-04 08:48:00</time>
      </trkpt>
      <trkpt lat="28.95408" lon="-13.77368">
        <ele>153.8</ele>
        <time>2021-07-04 08:48:01</time>
      </trkpt>
      <trkpt lat="28.95408" lon="-13.77379">
        <ele>153.4</ele>
        <time>2021-07-04 08:48:02</time>
      </trkpt>
      <trkpt lat="28.95407" lon="-13.77391">
        <ele>153.2</ele>
        <time>2021-07-04 08:48:03</time>
      </trkpt>
      <trkpt lat="28.95404" lon="-13.77402">
        <ele>152.8</ele>
        <time>2021-07-04 08:48:04</time>
      </trkpt>
      <trkpt lat="28.954" lon="-13.77413">
        <ele>152.6</ele>
        <time>2021-07-04 08:48:05</time>
      </trkpt>
      <trkpt lat="28.95396" lon="-13.77424">
        <ele>152.2</ele>
        <time>2021-07-04 08:48:06</time>
      </trkpt>
      <trkpt lat="28.95392" lon="-13.77435">
        <ele>151.8</ele>
        <time>2021-07-04 08:48:07</time>
      </trkpt>
      <trkpt lat="28.95387" lon="-13.77447">
        <ele>151.4</ele>
        <time>2021-07-04 08:48:08</time>
      </trkpt>
      <trkpt lat="28.95383" lon="-13.77458">
        <ele>150.8</ele>
        <time>2021-07-04 08:48:09</time>
      </trkpt>
      <trkpt lat="28.95379" lon="-13.77469">
        <ele>150.6</ele>
        <time>2021-07-04 08:48:10</time>
      </trkpt>
      <trkpt lat="28.95374" lon="-13.7748">
        <ele>150</ele>
        <time>2021-07-04 08:48:11</time>
      </trkpt>
      <trkpt lat="28.9537" lon="-13.77492">
        <ele>149.8</ele>
        <time>2021-07-04 08:48:12</time>
      </trkpt>
      <trkpt lat="28.95366" lon="-13.77503">
        <ele>149.2</ele>
        <time>2021-07-04 08:48:13</time>
      </trkpt>
      <trkpt lat="28.95362" lon="-13.77515">
        <ele>149</ele>
        <time>2021-07-04 08:48:14</time>
      </trkpt>
      <trkpt lat="28.95358" lon="-13.77526">
        <ele>148.6</ele>
        <time>2021-07-04 08:48:15</time>
      </trkpt>
      <trkpt lat="28.95354" lon="-13.77537">
        <ele>148.2</ele>
        <time>2021-07-04 08:48:16</time>
      </trkpt>
      <trkpt lat="28.95349" lon="-13.77548">
        <ele>148</ele>
        <time>2021-07-04 08:48:17</time>
      </trkpt>
      <trkpt lat="28.95345" lon="-13.77558">
        <ele>147.8</ele>
        <time>2021-07-04 08:48:18</time>
      </trkpt>
      <trkpt lat="28.95341" lon="-13.77568">
        <ele>147.4</ele>
        <time>2021-07-04 08:48:19</time>
      </trkpt>
      <trkpt lat="28.95337" lon="-13.77578">
        <ele>147.2</ele>
        <time>2021-07-04 08:48:20</time>
      </trkpt>
      <trkpt lat="28.95334" lon="-13.77588">
        <ele>147</ele>
        <time>2021-07-04 08:48:21</time>
      </trkpt>
      <trkpt lat="28.9533" lon="-13.77599">
        <ele>146.8</ele>
        <time>2021-07-04 08:48:22</time>
      </trkpt>
      <trkpt lat="28.95326" lon="-13.77609">
        <ele>146.8</ele>
        <time>2021-07-04 08:48:23</time>
      </trkpt>
      <trkpt lat="28.95322" lon="-13.77619">
        <ele>146.4</ele>
        <time>2021-07-04 08:48:24</time>
      </trkpt>
      <trkpt lat="28.95319" lon="-13.77628">
        <ele>146.4</ele>
        <time>2021-07-04 08:48:25</time>
      </trkpt>
      <trkpt lat="28.95315" lon="-13.77638">
        <ele>146.2</ele>
        <time>2021-07-04 08:48:26</time>
      </trkpt>
      <trkpt lat="28.95312" lon="-13.77647">
        <ele>146.2</ele>
        <time>2021-07-04 08:48:27</time>
      </trkpt>
      <trkpt lat="28.95308" lon="-13.77656">
        <ele>146</ele>
        <time>2021-07-04 08:48:28</time>
      </trkpt>
      <trkpt lat="28.95305" lon="-13.77665">
        <ele>146</ele>
        <time>2021-07-04 08:48:29</time>
      </trkpt>
      <trkpt lat="28.95302" lon="-13.77673">
        <ele>146</ele>
        <time>2021-07-04 08:48:30</time>
      </trkpt>
      <trkpt lat="28.95299" lon="-13.77682">
        <ele>145.6</ele>
        <time>2021-07-04 08:48:31</time>
      </trkpt>
      <trkpt lat="28.95295" lon="-13.77691">
        <ele>145.6</ele>
        <time>2021-07-04 08:48:32</time>
      </trkpt>
      <trkpt lat="28.95292" lon="-13.777">
        <ele>145.6</ele>
        <time>2021-07-04 08:48:33</time>
      </trkpt>
      <trkpt lat="28.95289" lon="-13.77709">
        <ele>145.6</ele>
        <time>2021-07-04 08:48:34</time>
      </trkpt>
      <trkpt lat="28.95286" lon="-13.77717">
        <ele>145.6</ele>
        <time>2021-07-04 08:48:35</time>
      </trkpt>
      <trkpt lat="28.95283" lon="-13.77725">
        <ele>145.6</ele>
        <time>2021-07-04 08:48:36</time>
      </trkpt>
      <trkpt lat="28.9528" lon="-13.77734">
        <ele>145.6</ele>
        <time>2021-07-04 08:48:37</time>
      </trkpt>
      <trkpt lat="28.95276" lon="-13.77742">
        <ele>145.6</ele>
        <time>2021-07-04 08:48:38</time>
      </trkpt>
      <trkpt lat="28.95273" lon="-13.7775">
        <ele>145.4</ele>
        <time>2021-07-04 08:48:39</time>
      </trkpt>
      <trkpt lat="28.9527" lon="-13.77759">
        <ele>145.4</ele>
        <time>2021-07-04 08:48:40</time>
      </trkpt>
      <trkpt lat="28.95267" lon="-13.77767">
        <ele>145.4</ele>
        <time>2021-07-04 08:48:41</time>
      </trkpt>
      <trkpt lat="28.95263" lon="-13.77776">
        <ele>145.2</ele>
        <time>2021-07-04 08:48:42</time>
      </trkpt>
      <trkpt lat="28.95261" lon="-13.77784">
        <ele>145.2</ele>
        <time>2021-07-04 08:48:43</time>
      </trkpt>
      <trkpt lat="28.95257" lon="-13.77793">
        <ele>145</ele>
        <time>2021-07-04 08:48:44</time>
      </trkpt>
      <trkpt lat="28.95254" lon="-13.77802">
        <ele>145</ele>
        <time>2021-07-04 08:48:45</time>
      </trkpt>
      <trkpt lat="28.95251" lon="-13.7781">
        <ele>144.8</ele>
        <time>2021-07-04 08:48:46</time>
      </trkpt>
      <trkpt lat="28.95247" lon="-13.77819">
        <ele>144.8</ele>
        <time>2021-07-04 08:48:47</time>
      </trkpt>
      <trkpt lat="28.95243" lon="-13.77828">
        <ele>144.8</ele>
        <time>2021-07-04 08:48:48</time>
      </trkpt>
      <trkpt lat="28.9524" lon="-13.77837">
        <ele>144.4</ele>
        <time>2021-07-04 08:48:49</time>
      </trkpt>
      <trkpt lat="28.95237" lon="-13.77846">
        <ele>144.4</ele>
        <time>2021-07-04 08:48:50</time>
      </trkpt>
      <trkpt lat="28.95234" lon="-13.77854">
        <ele>144.4</ele>
        <time>2021-07-04 08:48:51</time>
      </trkpt>
      <trkpt lat="28.95231" lon="-13.77863">
        <ele>144.2</ele>
        <time>2021-07-04 08:48:52</time>
      </trkpt>
      <trkpt lat="28.95228" lon="-13.77871">
        <ele>144.2</ele>
        <time>2021-07-04 08:48:53</time>
      </trkpt>
      <trkpt lat="28.95224" lon="-13.7788">
        <ele>144.2</ele>
        <time>2021-07-04 08:48:54</time>
      </trkpt>
      <trkpt lat="28.95221" lon="-13.77888">
        <ele>144</ele>
        <time>2021-07-04 08:48:55</time>
      </trkpt>
      <trkpt lat="28.95218" lon="-13.77897">
        <ele>144</ele>
        <time>2021-07-04 08:48:56</time>
      </trkpt>
      <trkpt lat="28.95215" lon="-13.77905">
        <ele>143.8</ele>
        <time>2021-07-04 08:48:57</time>
      </trkpt>
      <trkpt lat="28.95212" lon="-13.77913">
        <ele>143.4</ele>
        <time>2021-07-04 08:48:58</time>
      </trkpt>
      <trkpt lat="28.95209" lon="-13.77922">
        <ele>143.2</ele>
        <time>2021-07-04 08:48:59</time>
      </trkpt>
      <trkpt lat="28.95206" lon="-13.7793">
        <ele>143.2</ele>
        <time>2021-07-04 08:49:00</time>
      </trkpt>
      <trkpt lat="28.95203" lon="-13.77939">
        <ele>142.8</ele>
        <time>2021-07-04 08:49:01</time>
      </trkpt>
      <trkpt lat="28.952" lon="-13.77947">
        <ele>142.8</ele>
        <time>2021-07-04 08:49:02</time>
      </trkpt>
      <trkpt lat="28.95197" lon="-13.77955">
        <ele>142.4</ele>
        <time>2021-07-04 08:49:03</time>
      </trkpt>
      <trkpt lat="28.95194" lon="-13.77964">
        <ele>142.2</ele>
        <time>2021-07-04 08:49:04</time>
      </trkpt>
      <trkpt lat="28.95191" lon="-13.77972">
        <ele>142.2</ele>
        <time>2021-07-04 08:49:05</time>
      </trkpt>
      <trkpt lat="28.95189" lon="-13.77981">
        <ele>142</ele>
        <time>2021-07-04 08:49:06</time>
      </trkpt>
      <trkpt lat="28.95186" lon="-13.7799">
        <ele>142</ele>
        <time>2021-07-04 08:49:07</time>
      </trkpt>
      <trkpt lat="28.95184" lon="-13.77998">
        <ele>141.6</ele>
        <time>2021-07-04 08:49:08</time>
      </trkpt>
      <trkpt lat="28.95181" lon="-13.78007">
        <ele>141.6</ele>
        <time>2021-07-04 08:49:09</time>
      </trkpt>
      <trkpt lat="28.95178" lon="-13.78016">
        <ele>141.2</ele>
        <time>2021-07-04 08:49:10</time>
      </trkpt>
      <trkpt lat="28.95176" lon="-13.78025">
        <ele>141.2</ele>
        <time>2021-07-04 08:49:11</time>
      </trkpt>
      <trkpt lat="28.95173" lon="-13.78035">
        <ele>140.8</ele>
        <time>2021-07-04 08:49:12</time>
      </trkpt>
      <trkpt lat="28.9517" lon="-13.78045">
        <ele>140.6</ele>
        <time>2021-07-04 08:49:13</time>
      </trkpt>
      <trkpt lat="28.95167" lon="-13.78054">
        <ele>140.2</ele>
        <time>2021-07-04 08:49:14</time>
      </trkpt>
      <trkpt lat="28.95164" lon="-13.78064">
        <ele>140</ele>
        <time>2021-07-04 08:49:15</time>
      </trkpt>
      <trkpt lat="28.95161" lon="-13.78074">
        <ele>139.6</ele>
        <time>2021-07-04 08:49:16</time>
      </trkpt>
      <trkpt lat="28.95158" lon="-13.78084">
        <ele>139.2</ele>
        <time>2021-07-04 08:49:17</time>
      </trkpt>
      <trkpt lat="28.95155" lon="-13.78094">
        <ele>138.8</ele>
        <time>2021-07-04 08:49:18</time>
      </trkpt>
      <trkpt lat="28.95153" lon="-13.78102">
        <ele>138.2</ele>
        <time>2021-07-04 08:49:19</time>
      </trkpt>
      <trkpt lat="28.95151" lon="-13.7811">
        <ele>137.8</ele>
        <time>2021-07-04 08:49:20</time>
      </trkpt>
      <trkpt lat="28.95151" lon="-13.78119">
        <ele>137.4</ele>
        <time>2021-07-04 08:49:21</time>
      </trkpt>
      <trkpt lat="28.95151" lon="-13.78127">
        <ele>137</ele>
        <time>2021-07-04 08:49:22</time>
      </trkpt>
      <trkpt lat="28.95153" lon="-13.78136">
        <ele>136.6</ele>
        <time>2021-07-04 08:49:23</time>
      </trkpt>
      <trkpt lat="28.95156" lon="-13.78144">
        <ele>136.2</ele>
        <time>2021-07-04 08:49:24</time>
      </trkpt>
      <trkpt lat="28.9516" lon="-13.78151">
        <ele>135.8</ele>
        <time>2021-07-04 08:49:25</time>
      </trkpt>
      <trkpt lat="28.95165" lon="-13.78157">
        <ele>135.4</ele>
        <time>2021-07-04 08:49:26</time>
      </trkpt>
      <trkpt lat="28.9517" lon="-13.78163">
        <ele>135</ele>
        <time>2021-07-04 08:49:27</time>
      </trkpt>
      <trkpt lat="28.95176" lon="-13.78168">
        <ele>134.8</ele>
        <time>2021-07-04 08:49:28</time>
      </trkpt>
      <trkpt lat="28.95181" lon="-13.78172">
        <ele>134.8</ele>
        <time>2021-07-04 08:49:29</time>
      </trkpt>
      <trkpt lat="28.95187" lon="-13.78177">
        <ele>134.4</ele>
        <time>2021-07-04 08:49:30</time>
      </trkpt>
      <trkpt lat="28.95192" lon="-13.78181">
        <ele>134.2</ele>
        <time>2021-07-04 08:49:31</time>
      </trkpt>
      <trkpt lat="28.95198" lon="-13.78184">
        <ele>134.2</ele>
        <time>2021-07-04 08:49:32</time>
      </trkpt>
      <trkpt lat="28.95203" lon="-13.78187">
        <ele>133.8</ele>
        <time>2021-07-04 08:49:33</time>
      </trkpt>
      <trkpt lat="28.95208" lon="-13.78191">
        <ele>133.8</ele>
        <time>2021-07-04 08:49:34</time>
      </trkpt>
      <trkpt lat="28.95214" lon="-13.78193">
        <ele>133.6</ele>
        <time>2021-07-04 08:49:35</time>
      </trkpt>
      <trkpt lat="28.95218" lon="-13.78196">
        <ele>133.6</ele>
        <time>2021-07-04 08:49:36</time>
      </trkpt>
      <trkpt lat="28.95223" lon="-13.78199">
        <ele>133.4</ele>
        <time>2021-07-04 08:49:37</time>
      </trkpt>
      <trkpt lat="28.95228" lon="-13.78201">
        <ele>133.4</ele>
        <time>2021-07-04 08:49:38</time>
      </trkpt>
      <trkpt lat="28.95233" lon="-13.78204">
        <ele>133.4</ele>
        <time>2021-07-04 08:49:39</time>
      </trkpt>
      <trkpt lat="28.95238" lon="-13.78206">
        <ele>133.2</ele>
        <time>2021-07-04 08:49:40</time>
      </trkpt>
      <trkpt lat="28.95244" lon="-13.78207">
        <ele>133.2</ele>
        <time>2021-07-04 08:49:41</time>
      </trkpt>
      <trkpt lat="28.95249" lon="-13.78208">
        <ele>133.2</ele>
        <time>2021-07-04 08:49:42</time>
      </trkpt>
      <trkpt lat="28.95254" lon="-13.78207">
        <ele>133.2</ele>
        <time>2021-07-04 08:49:43</time>
      </trkpt>
      <trkpt lat="28.9526" lon="-13.78208">
        <ele>133.2</ele>
        <time>2021-07-04 08:49:44</time>
      </trkpt>
      <trkpt lat="28.95266" lon="-13.78208">
        <ele>132.8</ele>
        <time>2021-07-04 08:49:45</time>
      </trkpt>
      <trkpt lat="28.95272" lon="-13.78208">
        <ele>132.8</ele>
        <time>2021-07-04 08:49:46</time>
      </trkpt>
      <trkpt lat="28.95278" lon="-13.78209">
        <ele>132.4</ele>
        <time>2021-07-04 08:49:47</time>
      </trkpt>
      <trkpt lat="28.95285" lon="-13.78211">
        <ele>132.2</ele>
        <time>2021-07-04 08:49:48</time>
      </trkpt>
      <trkpt lat="28.95291" lon="-13.78215">
        <ele>132</ele>
        <time>2021-07-04 08:49:49</time>
      </trkpt>
      <trkpt lat="28.95297" lon="-13.78221">
        <ele>131.6</ele>
        <time>2021-07-04 08:49:50</time>
      </trkpt>
      <trkpt lat="28.95304" lon="-13.78227">
        <ele>131.2</ele>
        <time>2021-07-04 08:49:51</time>
      </trkpt>
      <trkpt lat="28.9531" lon="-13.78234">
        <ele>130.4</ele>
        <time>2021-07-04 08:49:52</time>
      </trkpt>
      <trkpt lat="28.95316" lon="-13.7824">
        <ele>129.8</ele>
        <time>2021-07-04 08:49:53</time>
      </trkpt>
      <trkpt lat="28.95322" lon="-13.78246">
        <ele>129.4</ele>
        <time>2021-07-04 08:49:54</time>
      </trkpt>
      <trkpt lat="28.95329" lon="-13.78252">
        <ele>129</ele>
        <time>2021-07-04 08:49:55</time>
      </trkpt>
      <trkpt lat="28.95334" lon="-13.78259">
        <ele>128.4</ele>
        <time>2021-07-04 08:49:56</time>
      </trkpt>
      <trkpt lat="28.95339" lon="-13.78264">
        <ele>127.8</ele>
        <time>2021-07-04 08:49:57</time>
      </trkpt>
      <trkpt lat="28.95344" lon="-13.7827">
        <ele>127.4</ele>
        <time>2021-07-04 08:49:58</time>
      </trkpt>
      <trkpt lat="28.95349" lon="-13.78276">
        <ele>127</ele>
        <time>2021-07-04 08:49:59</time>
      </trkpt>
      <trkpt lat="28.95354" lon="-13.78281">
        <ele>126.6</ele>
        <time>2021-07-04 08:50:00</time>
      </trkpt>
      <trkpt lat="28.95359" lon="-13.78287">
        <ele>126.4</ele>
        <time>2021-07-04 08:50:01</time>
      </trkpt>
      <trkpt lat="28.95363" lon="-13.78293">
        <ele>126.2</ele>
        <time>2021-07-04 08:50:02</time>
      </trkpt>
      <trkpt lat="28.95367" lon="-13.78299">
        <ele>126.2</ele>
        <time>2021-07-04 08:50:03</time>
      </trkpt>
      <trkpt lat="28.95371" lon="-13.78305">
        <ele>125.8</ele>
        <time>2021-07-04 08:50:04</time>
      </trkpt>
      <trkpt lat="28.95375" lon="-13.7831">
        <ele>125.8</ele>
        <time>2021-07-04 08:50:05</time>
      </trkpt>
      <trkpt lat="28.95378" lon="-13.78316">
        <ele>125.8</ele>
        <time>2021-07-04 08:50:06</time>
      </trkpt>
      <trkpt lat="28.95381" lon="-13.78323">
        <ele>126</ele>
        <time>2021-07-04 08:50:07</time>
      </trkpt>
      <trkpt lat="28.95385" lon="-13.78328">
        <ele>126</ele>
        <time>2021-07-04 08:50:08</time>
      </trkpt>
      <trkpt lat="28.95389" lon="-13.78334">
        <ele>126</ele>
        <time>2021-07-04 08:50:09</time>
      </trkpt>
      <trkpt lat="28.95392" lon="-13.7834">
        <ele>126</ele>
        <time>2021-07-04 08:50:10</time>
      </trkpt>
      <trkpt lat="28.95395" lon="-13.78346">
        <ele>126</ele>
        <time>2021-07-04 08:50:11</time>
      </trkpt>
      <trkpt lat="28.95398" lon="-13.78352">
        <ele>126</ele>
        <time>2021-07-04 08:50:12</time>
      </trkpt>
      <trkpt lat="28.95402" lon="-13.78359">
        <ele>125.8</ele>
        <time>2021-07-04 08:50:13</time>
      </trkpt>
      <trkpt lat="28.95406" lon="-13.78365">
        <ele>125.8</ele>
        <time>2021-07-04 08:50:14</time>
      </trkpt>
      <trkpt lat="28.9541" lon="-13.78371">
        <ele>125.6</ele>
        <time>2021-07-04 08:50:15</time>
      </trkpt>
      <trkpt lat="28.95413" lon="-13.78377">
        <ele>125.2</ele>
        <time>2021-07-04 08:50:16</time>
      </trkpt>
      <trkpt lat="28.95418" lon="-13.78383">
        <ele>125.2</ele>
        <time>2021-07-04 08:50:17</time>
      </trkpt>
      <trkpt lat="28.95422" lon="-13.7839">
        <ele>124.8</ele>
        <time>2021-07-04 08:50:18</time>
      </trkpt>
      <trkpt lat="28.95426" lon="-13.78396">
        <ele>124.4</ele>
        <time>2021-07-04 08:50:19</time>
      </trkpt>
      <trkpt lat="28.95431" lon="-13.78402">
        <ele>124.2</ele>
        <time>2021-07-04 08:50:20</time>
      </trkpt>
      <trkpt lat="28.95436" lon="-13.78408">
        <ele>123.8</ele>
        <time>2021-07-04 08:50:21</time>
      </trkpt>
      <trkpt lat="28.95441" lon="-13.78414">
        <ele>123.4</ele>
        <time>2021-07-04 08:50:22</time>
      </trkpt>
      <trkpt lat="28.95447" lon="-13.7842">
        <ele>123.2</ele>
        <time>2021-07-04 08:50:23</time>
      </trkpt>
      <trkpt lat="28.95453" lon="-13.78426">
        <ele>123.2</ele>
        <time>2021-07-04 08:50:24</time>
      </trkpt>
      <trkpt lat="28.95459" lon="-13.78431">
        <ele>123</ele>
        <time>2021-07-04 08:50:25</time>
      </trkpt>
      <trkpt lat="28.95464" lon="-13.78436">
        <ele>123</ele>
        <time>2021-07-04 08:50:26</time>
      </trkpt>
      <trkpt lat="28.9547" lon="-13.78442">
        <ele>122.6</ele>
        <time>2021-07-04 08:50:27</time>
      </trkpt>
      <trkpt lat="28.95476" lon="-13.78447">
        <ele>122.4</ele>
        <time>2021-07-04 08:50:28</time>
      </trkpt>
      <trkpt lat="28.95483" lon="-13.78452">
        <ele>122.4</ele>
        <time>2021-07-04 08:50:29</time>
      </trkpt>
      <trkpt lat="28.95489" lon="-13.78457">
        <ele>122</ele>
        <time>2021-07-04 08:50:30</time>
      </trkpt>
      <trkpt lat="28.95495" lon="-13.78463">
        <ele>121.6</ele>
        <time>2021-07-04 08:50:31</time>
      </trkpt>
      <trkpt lat="28.95501" lon="-13.78469">
        <ele>121.4</ele>
        <time>2021-07-04 08:50:32</time>
      </trkpt>
      <trkpt lat="28.95508" lon="-13.78474">
        <ele>121.2</ele>
        <time>2021-07-04 08:50:33</time>
      </trkpt>
      <trkpt lat="28.95515" lon="-13.78478">
        <ele>121.2</ele>
        <time>2021-07-04 08:50:34</time>
      </trkpt>
      <trkpt lat="28.95521" lon="-13.78483">
        <ele>120.8</ele>
        <time>2021-07-04 08:50:35</time>
      </trkpt>
      <trkpt lat="28.95527" lon="-13.78488">
        <ele>120.6</ele>
        <time>2021-07-04 08:50:36</time>
      </trkpt>
      <trkpt lat="28.95534" lon="-13.78493">
        <ele>120.4</ele>
        <time>2021-07-04 08:50:37</time>
      </trkpt>
      <trkpt lat="28.95541" lon="-13.78498">
        <ele>120.2</ele>
        <time>2021-07-04 08:50:38</time>
      </trkpt>
      <trkpt lat="28.95547" lon="-13.78503">
        <ele>120.2</ele>
        <time>2021-07-04 08:50:39</time>
      </trkpt>
      <trkpt lat="28.95554" lon="-13.78508">
        <ele>119.8</ele>
        <time>2021-07-04 08:50:40</time>
      </trkpt>
      <trkpt lat="28.9556" lon="-13.78513">
        <ele>119.6</ele>
        <time>2021-07-04 08:50:41</time>
      </trkpt>
      <trkpt lat="28.95567" lon="-13.78517">
        <ele>119.6</ele>
        <time>2021-07-04 08:50:42</time>
      </trkpt>
      <trkpt lat="28.95573" lon="-13.78522">
        <ele>119.4</ele>
        <time>2021-07-04 08:50:43</time>
      </trkpt>
      <trkpt lat="28.9558" lon="-13.78525">
        <ele>119.2</ele>
        <time>2021-07-04 08:50:44</time>
      </trkpt>
      <trkpt lat="28.95587" lon="-13.78528">
        <ele>119.2</ele>
        <time>2021-07-04 08:50:45</time>
      </trkpt>
      <trkpt lat="28.95594" lon="-13.78532">
        <ele>118.8</ele>
        <time>2021-07-04 08:50:46</time>
      </trkpt>
      <trkpt lat="28.95601" lon="-13.78536">
        <ele>118.8</ele>
        <time>2021-07-04 08:50:47</time>
      </trkpt>
      <trkpt lat="28.95608" lon="-13.78539">
        <ele>118.8</ele>
        <time>2021-07-04 08:50:48</time>
      </trkpt>
      <trkpt lat="28.95614" lon="-13.78542">
        <ele>118.4</ele>
        <time>2021-07-04 08:50:49</time>
      </trkpt>
      <trkpt lat="28.95621" lon="-13.78545">
        <ele>118.4</ele>
        <time>2021-07-04 08:50:50</time>
      </trkpt>
      <trkpt lat="28.95627" lon="-13.78548">
        <ele>118.4</ele>
        <time>2021-07-04 08:50:51</time>
      </trkpt>
      <trkpt lat="28.95633" lon="-13.78552">
        <ele>118.2</ele>
        <time>2021-07-04 08:50:52</time>
      </trkpt>
      <trkpt lat="28.95639" lon="-13.78555">
        <ele>118.2</ele>
        <time>2021-07-04 08:50:53</time>
      </trkpt>
      <trkpt lat="28.95646" lon="-13.78558">
        <ele>117.8</ele>
        <time>2021-07-04 08:50:54</time>
      </trkpt>
      <trkpt lat="28.95651" lon="-13.78561">
        <ele>117.8</ele>
        <time>2021-07-04 08:50:55</time>
      </trkpt>
      <trkpt lat="28.95658" lon="-13.78564">
        <ele>117.8</ele>
        <time>2021-07-04 08:50:56</time>
      </trkpt>
      <trkpt lat="28.95664" lon="-13.78566">
        <ele>117.8</ele>
        <time>2021-07-04 08:50:57</time>
      </trkpt>
      <trkpt lat="28.9567" lon="-13.7857">
        <ele>117.8</ele>
        <time>2021-07-04 08:50:58</time>
      </trkpt>
      <trkpt lat="28.95675" lon="-13.78573">
        <ele>117.8</ele>
        <time>2021-07-04 08:50:59</time>
      </trkpt>
      <trkpt lat="28.9568" lon="-13.78576">
        <ele>117.8</ele>
        <time>2021-07-04 08:51:00</time>
      </trkpt>
      <trkpt lat="28.95685" lon="-13.7858">
        <ele>117.8</ele>
        <time>2021-07-04 08:51:01</time>
      </trkpt>
      <trkpt lat="28.9569" lon="-13.78583">
        <ele>117.8</ele>
        <time>2021-07-04 08:51:02</time>
      </trkpt>
      <trkpt lat="28.95695" lon="-13.78585">
        <ele>117.8</ele>
        <time>2021-07-04 08:51:03</time>
      </trkpt>
      <trkpt lat="28.95699" lon="-13.78589">
        <ele>117.8</ele>
        <time>2021-07-04 08:51:04</time>
      </trkpt>
      <trkpt lat="28.95703" lon="-13.78593">
        <ele>117.8</ele>
        <time>2021-07-04 08:51:05</time>
      </trkpt>
      <trkpt lat="28.95708" lon="-13.78596">
        <ele>117.8</ele>
        <time>2021-07-04 08:51:06</time>
      </trkpt>
      <trkpt lat="28.95712" lon="-13.786">
        <ele>117.8</ele>
        <time>2021-07-04 08:51:07</time>
      </trkpt>
      <trkpt lat="28.95716" lon="-13.78604">
        <ele>117.8</ele>
        <time>2021-07-04 08:51:08</time>
      </trkpt>
      <trkpt lat="28.9572" lon="-13.78608">
        <ele>118.2</ele>
        <time>2021-07-04 08:51:09</time>
      </trkpt>
      <trkpt lat="28.95724" lon="-13.78612">
        <ele>118.2</ele>
        <time>2021-07-04 08:51:10</time>
      </trkpt>
      <trkpt lat="28.95727" lon="-13.78616">
        <ele>118.2</ele>
        <time>2021-07-04 08:51:11</time>
      </trkpt>
      <trkpt lat="28.95731" lon="-13.78621">
        <ele>118.4</ele>
        <time>2021-07-04 08:51:12</time>
      </trkpt>
      <trkpt lat="28.95735" lon="-13.78625">
        <ele>118.4</ele>
        <time>2021-07-04 08:51:13</time>
      </trkpt>
      <trkpt lat="28.95739" lon="-13.7863">
        <ele>118.8</ele>
        <time>2021-07-04 08:51:14</time>
      </trkpt>
      <trkpt lat="28.95742" lon="-13.78635">
        <ele>118.8</ele>
        <time>2021-07-04 08:51:15</time>
      </trkpt>
      <trkpt lat="28.95746" lon="-13.7864">
        <ele>119</ele>
        <time>2021-07-04 08:51:16</time>
      </trkpt>
      <trkpt lat="28.95749" lon="-13.78646">
        <ele>119</ele>
        <time>2021-07-04 08:51:17</time>
      </trkpt>
      <trkpt lat="28.95753" lon="-13.78651">
        <ele>119</ele>
        <time>2021-07-04 08:51:18</time>
      </trkpt>
      <trkpt lat="28.95757" lon="-13.78655">
        <ele>119</ele>
        <time>2021-07-04 08:51:19</time>
      </trkpt>
      <trkpt lat="28.95762" lon="-13.78659">
        <ele>119</ele>
        <time>2021-07-04 08:51:20</time>
      </trkpt>
      <trkpt lat="28.95765" lon="-13.78664">
        <ele>119</ele>
        <time>2021-07-04 08:51:21</time>
      </trkpt>
      <trkpt lat="28.95769" lon="-13.78668">
        <ele>119</ele>
        <time>2021-07-04 08:51:22</time>
      </trkpt>
      <trkpt lat="28.95773" lon="-13.78673">
        <ele>119</ele>
        <time>2021-07-04 08:51:23</time>
      </trkpt>
      <trkpt lat="28.95777" lon="-13.78678">
        <ele>119</ele>
        <time>2021-07-04 08:51:24</time>
      </trkpt>
      <trkpt lat="28.95781" lon="-13.78682">
        <ele>119</ele>
        <time>2021-07-04 08:51:25</time>
      </trkpt>
      <trkpt lat="28.95785" lon="-13.78688">
        <ele>119</ele>
        <time>2021-07-04 08:51:26</time>
      </trkpt>
      <trkpt lat="28.95789" lon="-13.78693">
        <ele>119</ele>
        <time>2021-07-04 08:51:27</time>
      </trkpt>
      <trkpt lat="28.95794" lon="-13.78697">
        <ele>119</ele>
        <time>2021-07-04 08:51:28</time>
      </trkpt>
      <trkpt lat="28.95798" lon="-13.78702">
        <ele>118.8</ele>
        <time>2021-07-04 08:51:29</time>
      </trkpt>
      <trkpt lat="28.95802" lon="-13.78708">
        <ele>118.8</ele>
        <time>2021-07-04 08:51:30</time>
      </trkpt>
      <trkpt lat="28.95806" lon="-13.78713">
        <ele>118.8</ele>
        <time>2021-07-04 08:51:31</time>
      </trkpt>
      <trkpt lat="28.9581" lon="-13.78717">
        <ele>118.8</ele>
        <time>2021-07-04 08:51:32</time>
      </trkpt>
      <trkpt lat="28.95814" lon="-13.78722">
        <ele>118.6</ele>
        <time>2021-07-04 08:51:33</time>
      </trkpt>
      <trkpt lat="28.95819" lon="-13.78727">
        <ele>118.6</ele>
        <time>2021-07-04 08:51:34</time>
      </trkpt>
      <trkpt lat="28.95823" lon="-13.78732">
        <ele>118.6</ele>
        <time>2021-07-04 08:51:35</time>
      </trkpt>
      <trkpt lat="28.95827" lon="-13.78738">
        <ele>118.4</ele>
        <time>2021-07-04 08:51:36</time>
      </trkpt>
      <trkpt lat="28.95831" lon="-13.78743">
        <ele>118.4</ele>
        <time>2021-07-04 08:51:37</time>
      </trkpt>
      <trkpt lat="28.95836" lon="-13.78748">
        <ele>118.4</ele>
        <time>2021-07-04 08:51:38</time>
      </trkpt>
      <trkpt lat="28.9584" lon="-13.78753">
        <ele>118.4</ele>
        <time>2021-07-04 08:51:39</time>
      </trkpt>
      <trkpt lat="28.95845" lon="-13.78758">
        <ele>118</ele>
        <time>2021-07-04 08:51:40</time>
      </trkpt>
      <trkpt lat="28.95849" lon="-13.78764">
        <ele>118</ele>
        <time>2021-07-04 08:51:41</time>
      </trkpt>
      <trkpt lat="28.95853" lon="-13.78769">
        <ele>118</ele>
        <time>2021-07-04 08:51:42</time>
      </trkpt>
      <trkpt lat="28.95858" lon="-13.78774">
        <ele>117.8</ele>
        <time>2021-07-04 08:51:43</time>
      </trkpt>
      <trkpt lat="28.95863" lon="-13.78779">
        <ele>117.8</ele>
        <time>2021-07-04 08:51:44</time>
      </trkpt>
      <trkpt lat="28.95867" lon="-13.78785">
        <ele>117.6</ele>
        <time>2021-07-04 08:51:45</time>
      </trkpt>
      <trkpt lat="28.95872" lon="-13.7879">
        <ele>117.6</ele>
        <time>2021-07-04 08:51:46</time>
      </trkpt>
      <trkpt lat="28.95876" lon="-13.78795">
        <ele>117.2</ele>
        <time>2021-07-04 08:51:47</time>
      </trkpt>
      <trkpt lat="28.95881" lon="-13.788">
        <ele>117.2</ele>
        <time>2021-07-04 08:51:48</time>
      </trkpt>
      <trkpt lat="28.95885" lon="-13.78806">
        <ele>117.2</ele>
        <time>2021-07-04 08:51:49</time>
      </trkpt>
      <trkpt lat="28.95889" lon="-13.78812">
        <ele>117.2</ele>
        <time>2021-07-04 08:51:50</time>
      </trkpt>
      <trkpt lat="28.95893" lon="-13.78817">
        <ele>117</ele>
        <time>2021-07-04 08:51:51</time>
      </trkpt>
      <trkpt lat="28.95898" lon="-13.78823">
        <ele>117</ele>
        <time>2021-07-04 08:51:52</time>
      </trkpt>
      <trkpt lat="28.95903" lon="-13.78828">
        <ele>117</ele>
        <time>2021-07-04 08:51:53</time>
      </trkpt>
      <trkpt lat="28.95907" lon="-13.78833">
        <ele>117</ele>
        <time>2021-07-04 08:51:54</time>
      </trkpt>
      <trkpt lat="28.95912" lon="-13.78838">
        <ele>116.6</ele>
        <time>2021-07-04 08:51:55</time>
      </trkpt>
      <trkpt lat="28.95916" lon="-13.78844">
        <ele>116.6</ele>
        <time>2021-07-04 08:51:56</time>
      </trkpt>
      <trkpt lat="28.9592" lon="-13.78849">
        <ele>116.6</ele>
        <time>2021-07-04 08:51:57</time>
      </trkpt>
      <trkpt lat="28.95924" lon="-13.78855">
        <ele>116.4</ele>
        <time>2021-07-04 08:51:58</time>
      </trkpt>
      <trkpt lat="28.95929" lon="-13.7886">
        <ele>116.4</ele>
        <time>2021-07-04 08:51:59</time>
      </trkpt>
      <trkpt lat="28.95933" lon="-13.78865">
        <ele>116</ele>
        <time>2021-07-04 08:52:00</time>
      </trkpt>
      <trkpt lat="28.95938" lon="-13.78871">
        <ele>115.8</ele>
        <time>2021-07-04 08:52:01</time>
      </trkpt>
      <trkpt lat="28.95942" lon="-13.78877">
        <ele>115.8</ele>
        <time>2021-07-04 08:52:02</time>
      </trkpt>
      <trkpt lat="28.95947" lon="-13.78883">
        <ele>115.4</ele>
        <time>2021-07-04 08:52:03</time>
      </trkpt>
      <trkpt lat="28.95951" lon="-13.78889">
        <ele>115.4</ele>
        <time>2021-07-04 08:52:04</time>
      </trkpt>
      <trkpt lat="28.95955" lon="-13.78895">
        <ele>115.2</ele>
        <time>2021-07-04 08:52:05</time>
      </trkpt>
      <trkpt lat="28.95959" lon="-13.78901">
        <ele>115</ele>
        <time>2021-07-04 08:52:06</time>
      </trkpt>
      <trkpt lat="28.95964" lon="-13.78907">
        <ele>114.8</ele>
        <time>2021-07-04 08:52:07</time>
      </trkpt>
      <trkpt lat="28.95967" lon="-13.78913">
        <ele>114.6</ele>
        <time>2021-07-04 08:52:08</time>
      </trkpt>
      <trkpt lat="28.95971" lon="-13.78921">
        <ele>114.2</ele>
        <time>2021-07-04 08:52:09</time>
      </trkpt>
      <trkpt lat="28.95974" lon="-13.78929">
        <ele>114</ele>
        <time>2021-07-04 08:52:10</time>
      </trkpt>
      <trkpt lat="28.95976" lon="-13.78937">
        <ele>113.6</ele>
        <time>2021-07-04 08:52:11</time>
      </trkpt>
      <trkpt lat="28.95979" lon="-13.78945">
        <ele>113.4</ele>
        <time>2021-07-04 08:52:12</time>
      </trkpt>
      <trkpt lat="28.95981" lon="-13.78954">
        <ele>113</ele>
        <time>2021-07-04 08:52:13</time>
      </trkpt>
      <trkpt lat="28.95983" lon="-13.78964">
        <ele>112.8</ele>
        <time>2021-07-04 08:52:14</time>
      </trkpt>
      <trkpt lat="28.95985" lon="-13.78974">
        <ele>112.6</ele>
        <time>2021-07-04 08:52:15</time>
      </trkpt>
      <trkpt lat="28.95986" lon="-13.78984">
        <ele>112.2</ele>
        <time>2021-07-04 08:52:16</time>
      </trkpt>
      <trkpt lat="28.95987" lon="-13.78994">
        <ele>111.8</ele>
        <time>2021-07-04 08:52:17</time>
      </trkpt>
      <trkpt lat="28.95988" lon="-13.79005">
        <ele>111.4</ele>
        <time>2021-07-04 08:52:18</time>
      </trkpt>
      <trkpt lat="28.95989" lon="-13.79016">
        <ele>111</ele>
        <time>2021-07-04 08:52:19</time>
      </trkpt>
      <trkpt lat="28.95989" lon="-13.79027">
        <ele>110.4</ele>
        <time>2021-07-04 08:52:20</time>
      </trkpt>
      <trkpt lat="28.9599" lon="-13.79039">
        <ele>109.8</ele>
        <time>2021-07-04 08:52:21</time>
      </trkpt>
      <trkpt lat="28.9599" lon="-13.7905">
        <ele>109.2</ele>
        <time>2021-07-04 08:52:22</time>
      </trkpt>
      <trkpt lat="28.9599" lon="-13.79062">
        <ele>108.6</ele>
        <time>2021-07-04 08:52:23</time>
      </trkpt>
      <trkpt lat="28.95991" lon="-13.79073">
        <ele>108</ele>
        <time>2021-07-04 08:52:24</time>
      </trkpt>
      <trkpt lat="28.95991" lon="-13.79085">
        <ele>107.6</ele>
        <time>2021-07-04 08:52:25</time>
      </trkpt>
      <trkpt lat="28.95992" lon="-13.79097">
        <ele>107</ele>
        <time>2021-07-04 08:52:26</time>
      </trkpt>
      <trkpt lat="28.95992" lon="-13.79109">
        <ele>106.4</ele>
        <time>2021-07-04 08:52:27</time>
      </trkpt>
      <trkpt lat="28.95992" lon="-13.7912">
        <ele>106</ele>
        <time>2021-07-04 08:52:28</time>
      </trkpt>
      <trkpt lat="28.95993" lon="-13.79132">
        <ele>105.4</ele>
        <time>2021-07-04 08:52:29</time>
      </trkpt>
      <trkpt lat="28.95994" lon="-13.79144">
        <ele>104.8</ele>
        <time>2021-07-04 08:52:30</time>
      </trkpt>
      <trkpt lat="28.95997" lon="-13.79155">
        <ele>104.4</ele>
        <time>2021-07-04 08:52:31</time>
      </trkpt>
      <trkpt lat="28.96001" lon="-13.79166">
        <ele>104</ele>
        <time>2021-07-04 08:52:32</time>
      </trkpt>
      <trkpt lat="28.96005" lon="-13.79176">
        <ele>103.8</ele>
        <time>2021-07-04 08:52:33</time>
      </trkpt>
      <trkpt lat="28.9601" lon="-13.79185">
        <ele>103.4</ele>
        <time>2021-07-04 08:52:34</time>
      </trkpt>
      <trkpt lat="28.96015" lon="-13.79193">
        <ele>103.2</ele>
        <time>2021-07-04 08:52:35</time>
      </trkpt>
      <trkpt lat="28.96021" lon="-13.79201">
        <ele>102.8</ele>
        <time>2021-07-04 08:52:36</time>
      </trkpt>
      <trkpt lat="28.96026" lon="-13.79209">
        <ele>102.6</ele>
        <time>2021-07-04 08:52:37</time>
      </trkpt>
      <trkpt lat="28.96031" lon="-13.79216">
        <ele>102.2</ele>
        <time>2021-07-04 08:52:38</time>
      </trkpt>
      <trkpt lat="28.96037" lon="-13.79223">
        <ele>102</ele>
        <time>2021-07-04 08:52:39</time>
      </trkpt>
      <trkpt lat="28.96042" lon="-13.7923">
        <ele>101.8</ele>
        <time>2021-07-04 08:52:40</time>
      </trkpt>
      <trkpt lat="28.96047" lon="-13.79237">
        <ele>101.8</ele>
        <time>2021-07-04 08:52:41</time>
      </trkpt>
      <trkpt lat="28.96053" lon="-13.79243">
        <ele>101.4</ele>
        <time>2021-07-04 08:52:42</time>
      </trkpt>
      <trkpt lat="28.96059" lon="-13.79248">
        <ele>101.2</ele>
        <time>2021-07-04 08:52:43</time>
      </trkpt>
      <trkpt lat="28.96065" lon="-13.79254">
        <ele>101</ele>
        <time>2021-07-04 08:52:44</time>
      </trkpt>
      <trkpt lat="28.96071" lon="-13.79259">
        <ele>101</ele>
        <time>2021-07-04 08:52:45</time>
      </trkpt>
      <trkpt lat="28.96076" lon="-13.79264">
        <ele>100.8</ele>
        <time>2021-07-04 08:52:46</time>
      </trkpt>
      <trkpt lat="28.96082" lon="-13.79269">
        <ele>100.8</ele>
        <time>2021-07-04 08:52:47</time>
      </trkpt>
      <trkpt lat="28.96087" lon="-13.79274">
        <ele>100.8</ele>
        <time>2021-07-04 08:52:48</time>
      </trkpt>
      <trkpt lat="28.96091" lon="-13.79277">
        <ele>100.8</ele>
        <time>2021-07-04 08:52:49</time>
      </trkpt>
      <trkpt lat="28.96097" lon="-13.79281">
        <ele>100.8</ele>
        <time>2021-07-04 08:52:50</time>
      </trkpt>
      <trkpt lat="28.96101" lon="-13.79285">
        <ele>100.8</ele>
        <time>2021-07-04 08:52:51</time>
      </trkpt>
      <trkpt lat="28.96106" lon="-13.79288">
        <ele>100.8</ele>
        <time>2021-07-04 08:52:52</time>
      </trkpt>
      <trkpt lat="28.96111" lon="-13.79291">
        <ele>100.6</ele>
        <time>2021-07-04 08:52:53</time>
      </trkpt>
      <trkpt lat="28.96115" lon="-13.79294">
        <ele>100.6</ele>
        <time>2021-07-04 08:52:54</time>
      </trkpt>
      <trkpt lat="28.9612" lon="-13.79296">
        <ele>100.6</ele>
        <time>2021-07-04 08:52:55</time>
      </trkpt>
      <trkpt lat="28.96124" lon="-13.79299">
        <ele>100.6</ele>
        <time>2021-07-04 08:52:56</time>
      </trkpt>
      <trkpt lat="28.96129" lon="-13.79301">
        <ele>100.6</ele>
        <time>2021-07-04 08:52:57</time>
      </trkpt>
      <trkpt lat="28.96134" lon="-13.79303">
        <ele>100.2</ele>
        <time>2021-07-04 08:52:58</time>
      </trkpt>
      <trkpt lat="28.96139" lon="-13.79305">
        <ele>100.2</ele>
        <time>2021-07-04 08:52:59</time>
      </trkpt>
      <trkpt lat="28.96143" lon="-13.79307">
        <ele>100.2</ele>
        <time>2021-07-04 08:53:00</time>
      </trkpt>
      <trkpt lat="28.96147" lon="-13.79309">
        <ele>100</ele>
        <time>2021-07-04 08:53:01</time>
      </trkpt>
      <trkpt lat="28.96151" lon="-13.7931">
        <ele>100</ele>
        <time>2021-07-04 08:53:02</time>
      </trkpt>
      <trkpt lat="28.96156" lon="-13.79311">
        <ele>100</ele>
        <time>2021-07-04 08:53:03</time>
      </trkpt>
      <trkpt lat="28.9616" lon="-13.79313">
        <ele>100</ele>
        <time>2021-07-04 08:53:04</time>
      </trkpt>
      <trkpt lat="28.96164" lon="-13.79314">
        <ele>100</ele>
        <time>2021-07-04 08:53:05</time>
      </trkpt>
      <trkpt lat="28.96168" lon="-13.79315">
        <ele>100</ele>
        <time>2021-07-04 08:53:06</time>
      </trkpt>
      <trkpt lat="28.96173" lon="-13.79316">
        <ele>100</ele>
        <time>2021-07-04 08:53:07</time>
      </trkpt>
      <trkpt lat="28.96177" lon="-13.79317">
        <ele>100</ele>
        <time>2021-07-04 08:53:08</time>
      </trkpt>
      <trkpt lat="28.96182" lon="-13.79319">
        <ele>100</ele>
        <time>2021-07-04 08:53:09</time>
      </trkpt>
      <trkpt lat="28.96187" lon="-13.79321">
        <ele>100</ele>
        <time>2021-07-04 08:53:10</time>
      </trkpt>
      <trkpt lat="28.96191" lon="-13.79323">
        <ele>100</ele>
        <time>2021-07-04 08:53:11</time>
      </trkpt>
      <trkpt lat="28.96196" lon="-13.79324">
        <ele>100</ele>
        <time>2021-07-04 08:53:12</time>
      </trkpt>
      <trkpt lat="28.96201" lon="-13.79326">
        <ele>100.2</ele>
        <time>2021-07-04 08:53:13</time>
      </trkpt>
      <trkpt lat="28.96205" lon="-13.79328">
        <ele>100.2</ele>
        <time>2021-07-04 08:53:14</time>
      </trkpt>
      <trkpt lat="28.96209" lon="-13.79329">
        <ele>100.2</ele>
        <time>2021-07-04 08:53:15</time>
      </trkpt>
      <trkpt lat="28.96214" lon="-13.79331">
        <ele>100.2</ele>
        <time>2021-07-04 08:53:16</time>
      </trkpt>
      <trkpt lat="28.96218" lon="-13.79334">
        <ele>100.2</ele>
        <time>2021-07-04 08:53:17</time>
      </trkpt>
      <trkpt lat="28.96222" lon="-13.79336">
        <ele>100.4</ele>
        <time>2021-07-04 08:53:18</time>
      </trkpt>
      <trkpt lat="28.96227" lon="-13.79339">
        <ele>100.4</ele>
        <time>2021-07-04 08:53:19</time>
      </trkpt>
      <trkpt lat="28.96231" lon="-13.79341">
        <ele>100.4</ele>
        <time>2021-07-04 08:53:20</time>
      </trkpt>
      <trkpt lat="28.96235" lon="-13.79343">
        <ele>100.4</ele>
        <time>2021-07-04 08:53:21</time>
      </trkpt>
      <trkpt lat="28.96239" lon="-13.79346">
        <ele>100.4</ele>
        <time>2021-07-04 08:53:22</time>
      </trkpt>
      <trkpt lat="28.96243" lon="-13.79348">
        <ele>100.4</ele>
        <time>2021-07-04 08:53:23</time>
      </trkpt>
      <trkpt lat="28.96248" lon="-13.79351">
        <ele>100.2</ele>
        <time>2021-07-04 08:53:24</time>
      </trkpt>
      <trkpt lat="28.96251" lon="-13.79353">
        <ele>100.2</ele>
        <time>2021-07-04 08:53:25</time>
      </trkpt>
      <trkpt lat="28.96254" lon="-13.79356">
        <ele>100.2</ele>
        <time>2021-07-04 08:53:26</time>
      </trkpt>
      <trkpt lat="28.96258" lon="-13.79358">
        <ele>100.2</ele>
        <time>2021-07-04 08:53:27</time>
      </trkpt>
      <trkpt lat="28.96261" lon="-13.79361">
        <ele>100.2</ele>
        <time>2021-07-04 08:53:28</time>
      </trkpt>
      <trkpt lat="28.96265" lon="-13.79363">
        <ele>100.2</ele>
        <time>2021-07-04 08:53:29</time>
      </trkpt>
      <trkpt lat="28.96269" lon="-13.79365">
        <ele>100.4</ele>
        <time>2021-07-04 08:53:30</time>
      </trkpt>
      <trkpt lat="28.96273" lon="-13.79369">
        <ele>100.4</ele>
        <time>2021-07-04 08:53:31</time>
      </trkpt>
      <trkpt lat="28.96277" lon="-13.79372">
        <ele>100.4</ele>
        <time>2021-07-04 08:53:32</time>
      </trkpt>
      <trkpt lat="28.9628" lon="-13.79376">
        <ele>100.4</ele>
        <time>2021-07-04 08:53:33</time>
      </trkpt>
      <trkpt lat="28.96284" lon="-13.79379">
        <ele>100.4</ele>
        <time>2021-07-04 08:53:34</time>
      </trkpt>
      <trkpt lat="28.96288" lon="-13.79383">
        <ele>100.4</ele>
        <time>2021-07-04 08:53:35</time>
      </trkpt>
      <trkpt lat="28.96292" lon="-13.79385">
        <ele>100.8</ele>
        <time>2021-07-04 08:53:36</time>
      </trkpt>
      <trkpt lat="28.96296" lon="-13.79389">
        <ele>101</ele>
        <time>2021-07-04 08:53:37</time>
      </trkpt>
      <trkpt lat="28.963" lon="-13.79392">
        <ele>101</ele>
        <time>2021-07-04 08:53:38</time>
      </trkpt>
      <trkpt lat="28.96304" lon="-13.79396">
        <ele>101.2</ele>
        <time>2021-07-04 08:53:39</time>
      </trkpt>
      <trkpt lat="28.96308" lon="-13.794">
        <ele>101.2</ele>
        <time>2021-07-04 08:53:40</time>
      </trkpt>
      <trkpt lat="28.96311" lon="-13.79403">
        <ele>101.6</ele>
        <time>2021-07-04 08:53:41</time>
      </trkpt>
      <trkpt lat="28.96315" lon="-13.79407">
        <ele>101.8</ele>
        <time>2021-07-04 08:53:42</time>
      </trkpt>
      <trkpt lat="28.96319" lon="-13.7941">
        <ele>102</ele>
        <time>2021-07-04 08:53:43</time>
      </trkpt>
      <trkpt lat="28.96323" lon="-13.79413">
        <ele>102</ele>
        <time>2021-07-04 08:53:44</time>
      </trkpt>
      <trkpt lat="28.96327" lon="-13.79417">
        <ele>102.4</ele>
        <time>2021-07-04 08:53:45</time>
      </trkpt>
      <trkpt lat="28.96331" lon="-13.7942">
        <ele>102.4</ele>
        <time>2021-07-04 08:53:46</time>
      </trkpt>
      <trkpt lat="28.96334" lon="-13.79423">
        <ele>102.4</ele>
        <time>2021-07-04 08:53:47</time>
      </trkpt>
      <trkpt lat="28.96338" lon="-13.79426">
        <ele>102.6</ele>
        <time>2021-07-04 08:53:48</time>
      </trkpt>
      <trkpt lat="28.96342" lon="-13.79429">
        <ele>103</ele>
        <time>2021-07-04 08:53:49</time>
      </trkpt>
      <trkpt lat="28.96345" lon="-13.79432">
        <ele>103</ele>
        <time>2021-07-04 08:53:50</time>
      </trkpt>
      <trkpt lat="28.96349" lon="-13.79435">
        <ele>103.2</ele>
        <time>2021-07-04 08:53:51</time>
      </trkpt>
      <trkpt lat="28.96352" lon="-13.79438">
        <ele>103.2</ele>
        <time>2021-07-04 08:53:52</time>
      </trkpt>
      <trkpt lat="28.96355" lon="-13.79441">
        <ele>103.2</ele>
        <time>2021-07-04 08:53:53</time>
      </trkpt>
      <trkpt lat="28.96359" lon="-13.79445">
        <ele>102.8</ele>
        <time>2021-07-04 08:53:54</time>
      </trkpt>
      <trkpt lat="28.96362" lon="-13.79448">
        <ele>102.8</ele>
        <time>2021-07-04 08:53:55</time>
      </trkpt>
      <trkpt lat="28.96365" lon="-13.79451">
        <ele>102.8</ele>
        <time>2021-07-04 08:53:56</time>
      </trkpt>
      <trkpt lat="28.96367" lon="-13.79454">
        <ele>102.6</ele>
        <time>2021-07-04 08:53:57</time>
      </trkpt>
      <trkpt lat="28.96371" lon="-13.79456">
        <ele>102.6</ele>
        <time>2021-07-04 08:53:58</time>
      </trkpt>
      <trkpt lat="28.96374" lon="-13.79458">
        <ele>102.6</ele>
        <time>2021-07-04 08:53:59</time>
      </trkpt>
      <trkpt lat="28.96377" lon="-13.79461">
        <ele>102.8</ele>
        <time>2021-07-04 08:54:00</time>
      </trkpt>
      <trkpt lat="28.9638" lon="-13.79463">
        <ele>103.2</ele>
        <time>2021-07-04 08:54:01</time>
      </trkpt>
      <trkpt lat="28.96383" lon="-13.79466">
        <ele>103.4</ele>
        <time>2021-07-04 08:54:02</time>
      </trkpt>
      <trkpt lat="28.96386" lon="-13.79469">
        <ele>103.4</ele>
        <time>2021-07-04 08:54:03</time>
      </trkpt>
      <trkpt lat="28.96388" lon="-13.79472">
        <ele>103.6</ele>
        <time>2021-07-04 08:54:04</time>
      </trkpt>
      <trkpt lat="28.96392" lon="-13.79474">
        <ele>104</ele>
        <time>2021-07-04 08:54:05</time>
      </trkpt>
      <trkpt lat="28.96395" lon="-13.79477">
        <ele>104.2</ele>
        <time>2021-07-04 08:54:06</time>
      </trkpt>
      <trkpt lat="28.96398" lon="-13.7948">
        <ele>104.4</ele>
        <time>2021-07-04 08:54:07</time>
      </trkpt>
      <trkpt lat="28.96401" lon="-13.79482">
        <ele>104.6</ele>
        <time>2021-07-04 08:54:08</time>
      </trkpt>
      <trkpt lat="28.96404" lon="-13.79485">
        <ele>105</ele>
        <time>2021-07-04 08:54:09</time>
      </trkpt>
      <trkpt lat="28.96407" lon="-13.79488">
        <ele>105</ele>
        <time>2021-07-04 08:54:10</time>
      </trkpt>
      <trkpt lat="28.9641" lon="-13.7949">
        <ele>105.4</ele>
        <time>2021-07-04 08:54:11</time>
      </trkpt>
      <trkpt lat="28.96413" lon="-13.79493">
        <ele>105.4</ele>
        <time>2021-07-04 08:54:12</time>
      </trkpt>
      <trkpt lat="28.96416" lon="-13.79496">
        <ele>105.6</ele>
        <time>2021-07-04 08:54:13</time>
      </trkpt>
      <trkpt lat="28.96419" lon="-13.79499">
        <ele>105.6</ele>
        <time>2021-07-04 08:54:14</time>
      </trkpt>
      <trkpt lat="28.96422" lon="-13.79501">
        <ele>106</ele>
        <time>2021-07-04 08:54:15</time>
      </trkpt>
      <trkpt lat="28.96425" lon="-13.79504">
        <ele>106</ele>
        <time>2021-07-04 08:54:16</time>
      </trkpt>
      <trkpt lat="28.96428" lon="-13.79507">
        <ele>106.2</ele>
        <time>2021-07-04 08:54:17</time>
      </trkpt>
      <trkpt lat="28.96431" lon="-13.79509">
        <ele>106.4</ele>
        <time>2021-07-04 08:54:18</time>
      </trkpt>
      <trkpt lat="28.96434" lon="-13.79512">
        <ele>106.4</ele>
        <time>2021-07-04 08:54:19</time>
      </trkpt>
      <trkpt lat="28.96437" lon="-13.79514">
        <ele>106.8</ele>
        <time>2021-07-04 08:54:20</time>
      </trkpt>
      <trkpt lat="28.9644" lon="-13.79517">
        <ele>106.8</ele>
        <time>2021-07-04 08:54:21</time>
      </trkpt>
      <trkpt lat="28.96444" lon="-13.7952">
        <ele>107.2</ele>
        <time>2021-07-04 08:54:22</time>
      </trkpt>
      <trkpt lat="28.96447" lon="-13.79522">
        <ele>107.4</ele>
        <time>2021-07-04 08:54:23</time>
      </trkpt>
      <trkpt lat="28.9645" lon="-13.79525">
        <ele>107.4</ele>
        <time>2021-07-04 08:54:24</time>
      </trkpt>
      <trkpt lat="28.96453" lon="-13.79528">
        <ele>107.8</ele>
        <time>2021-07-04 08:54:25</time>
      </trkpt>
      <trkpt lat="28.96457" lon="-13.79531">
        <ele>107.8</ele>
        <time>2021-07-04 08:54:26</time>
      </trkpt>
      <trkpt lat="28.9646" lon="-13.79533">
        <ele>108</ele>
        <time>2021-07-04 08:54:27</time>
      </trkpt>
      <trkpt lat="28.96463" lon="-13.79536">
        <ele>108</ele>
        <time>2021-07-04 08:54:28</time>
      </trkpt>
      <trkpt lat="28.96466" lon="-13.79539">
        <ele>108.4</ele>
        <time>2021-07-04 08:54:29</time>
      </trkpt>
      <trkpt lat="28.9647" lon="-13.79542">
        <ele>108.4</ele>
        <time>2021-07-04 08:54:30</time>
      </trkpt>
      <trkpt lat="28.96473" lon="-13.79544">
        <ele>108.6</ele>
        <time>2021-07-04 08:54:31</time>
      </trkpt>
      <trkpt lat="28.96476" lon="-13.79547">
        <ele>108.6</ele>
        <time>2021-07-04 08:54:32</time>
      </trkpt>
      <trkpt lat="28.96479" lon="-13.7955">
        <ele>108.8</ele>
        <time>2021-07-04 08:54:33</time>
      </trkpt>
      <trkpt lat="28.96482" lon="-13.79553">
        <ele>108.8</ele>
        <time>2021-07-04 08:54:34</time>
      </trkpt>
      <trkpt lat="28.96486" lon="-13.79555">
        <ele>109.2</ele>
        <time>2021-07-04 08:54:35</time>
      </trkpt>
      <trkpt lat="28.96489" lon="-13.79558">
        <ele>109.2</ele>
        <time>2021-07-04 08:54:36</time>
      </trkpt>
      <trkpt lat="28.96492" lon="-13.79561">
        <ele>109.4</ele>
        <time>2021-07-04 08:54:37</time>
      </trkpt>
      <trkpt lat="28.96495" lon="-13.79564">
        <ele>109.4</ele>
        <time>2021-07-04 08:54:38</time>
      </trkpt>
      <trkpt lat="28.96498" lon="-13.79566">
        <ele>109.4</ele>
        <time>2021-07-04 08:54:39</time>
      </trkpt>
      <trkpt lat="28.96501" lon="-13.79569">
        <ele>109.4</ele>
        <time>2021-07-04 08:54:40</time>
      </trkpt>
      <trkpt lat="28.96505" lon="-13.79572">
        <ele>109.6</ele>
        <time>2021-07-04 08:54:41</time>
      </trkpt>
      <trkpt lat="28.96508" lon="-13.79575">
        <ele>109.6</ele>
        <time>2021-07-04 08:54:42</time>
      </trkpt>
      <trkpt lat="28.96511" lon="-13.79578">
        <ele>110</ele>
        <time>2021-07-04 08:54:43</time>
      </trkpt>
      <trkpt lat="28.96514" lon="-13.7958">
        <ele>110</ele>
        <time>2021-07-04 08:54:44</time>
      </trkpt>
      <trkpt lat="28.96518" lon="-13.79583">
        <ele>110.2</ele>
        <time>2021-07-04 08:54:45</time>
      </trkpt>
      <trkpt lat="28.96521" lon="-13.79586">
        <ele>110.2</ele>
        <time>2021-07-04 08:54:46</time>
      </trkpt>
      <trkpt lat="28.96524" lon="-13.79589">
        <ele>110.6</ele>
        <time>2021-07-04 08:54:47</time>
      </trkpt>
      <trkpt lat="28.96527" lon="-13.79592">
        <ele>110.6</ele>
        <time>2021-07-04 08:54:48</time>
      </trkpt>
      <trkpt lat="28.96531" lon="-13.79595">
        <ele>110.8</ele>
        <time>2021-07-04 08:54:49</time>
      </trkpt>
      <trkpt lat="28.96534" lon="-13.79597">
        <ele>110.8</ele>
        <time>2021-07-04 08:54:50</time>
      </trkpt>
      <trkpt lat="28.96537" lon="-13.796">
        <ele>111</ele>
        <time>2021-07-04 08:54:51</time>
      </trkpt>
      <trkpt lat="28.9654" lon="-13.79603">
        <ele>111</ele>
        <time>2021-07-04 08:54:52</time>
      </trkpt>
      <trkpt lat="28.96544" lon="-13.79606">
        <ele>111.4</ele>
        <time>2021-07-04 08:54:53</time>
      </trkpt>
      <trkpt lat="28.96547" lon="-13.79609">
        <ele>111.4</ele>
        <time>2021-07-04 08:54:54</time>
      </trkpt>
      <trkpt lat="28.9655" lon="-13.79612">
        <ele>111.6</ele>
        <time>2021-07-04 08:54:55</time>
      </trkpt>
      <trkpt lat="28.96553" lon="-13.79614">
        <ele>111.6</ele>
        <time>2021-07-04 08:54:56</time>
      </trkpt>
      <trkpt lat="28.96556" lon="-13.79617">
        <ele>111.6</ele>
        <time>2021-07-04 08:54:57</time>
      </trkpt>
      <trkpt lat="28.9656" lon="-13.7962">
        <ele>112</ele>
        <time>2021-07-04 08:54:58</time>
      </trkpt>
      <trkpt lat="28.96563" lon="-13.79623">
        <ele>112</ele>
        <time>2021-07-04 08:54:59</time>
      </trkpt>
      <trkpt lat="28.96566" lon="-13.79625">
        <ele>112.2</ele>
        <time>2021-07-04 08:55:00</time>
      </trkpt>
      <trkpt lat="28.96569" lon="-13.79628">
        <ele>112.2</ele>
        <time>2021-07-04 08:55:01</time>
      </trkpt>
      <trkpt lat="28.96572" lon="-13.79631">
        <ele>112.4</ele>
        <time>2021-07-04 08:55:02</time>
      </trkpt>
      <trkpt lat="28.96576" lon="-13.79634">
        <ele>112.4</ele>
        <time>2021-07-04 08:55:03</time>
      </trkpt>
      <trkpt lat="28.96579" lon="-13.79637">
        <ele>112.8</ele>
        <time>2021-07-04 08:55:04</time>
      </trkpt>
      <trkpt lat="28.96582" lon="-13.79639">
        <ele>112.8</ele>
        <time>2021-07-04 08:55:05</time>
      </trkpt>
      <trkpt lat="28.96585" lon="-13.79642">
        <ele>113</ele>
        <time>2021-07-04 08:55:06</time>
      </trkpt>
      <trkpt lat="28.96588" lon="-13.79645">
        <ele>113</ele>
        <time>2021-07-04 08:55:07</time>
      </trkpt>
      <trkpt lat="28.96591" lon="-13.79648">
        <ele>113</ele>
        <time>2021-07-04 08:55:08</time>
      </trkpt>
      <trkpt lat="28.96595" lon="-13.79651">
        <ele>113.4</ele>
        <time>2021-07-04 08:55:09</time>
      </trkpt>
      <trkpt lat="28.96598" lon="-13.79654">
        <ele>113.4</ele>
        <time>2021-07-04 08:55:10</time>
      </trkpt>
      <trkpt lat="28.96601" lon="-13.79657">
        <ele>113.6</ele>
        <time>2021-07-04 08:55:11</time>
      </trkpt>
      <trkpt lat="28.96603" lon="-13.7966">
        <ele>113.6</ele>
        <time>2021-07-04 08:55:12</time>
      </trkpt>
      <trkpt lat="28.96606" lon="-13.79663">
        <ele>114</ele>
        <time>2021-07-04 08:55:13</time>
      </trkpt>
      <trkpt lat="28.96609" lon="-13.79666">
        <ele>114.2</ele>
        <time>2021-07-04 08:55:14</time>
      </trkpt>
      <trkpt lat="28.96612" lon="-13.79669">
        <ele>114.4</ele>
        <time>2021-07-04 08:55:15</time>
      </trkpt>
      <trkpt lat="28.96615" lon="-13.79672">
        <ele>114.6</ele>
        <time>2021-07-04 08:55:16</time>
      </trkpt>
      <trkpt lat="28.96618" lon="-13.79675">
        <ele>115</ele>
        <time>2021-07-04 08:55:17</time>
      </trkpt>
      <trkpt lat="28.96621" lon="-13.79678">
        <ele>115</ele>
        <time>2021-07-04 08:55:18</time>
      </trkpt>
      <trkpt lat="28.96624" lon="-13.7968">
        <ele>115.2</ele>
        <time>2021-07-04 08:55:19</time>
      </trkpt>
      <trkpt lat="28.96626" lon="-13.79683">
        <ele>115.4</ele>
        <time>2021-07-04 08:55:20</time>
      </trkpt>
      <trkpt lat="28.96629" lon="-13.79686">
        <ele>115.8</ele>
        <time>2021-07-04 08:55:21</time>
      </trkpt>
      <trkpt lat="28.96632" lon="-13.79689">
        <ele>115.8</ele>
        <time>2021-07-04 08:55:22</time>
      </trkpt>
      <trkpt lat="28.96635" lon="-13.79692">
        <ele>116.2</ele>
        <time>2021-07-04 08:55:23</time>
      </trkpt>
      <trkpt lat="28.96637" lon="-13.79694">
        <ele>116.2</ele>
        <time>2021-07-04 08:55:24</time>
      </trkpt>
      <trkpt lat="28.9664" lon="-13.79697">
        <ele>116.6</ele>
        <time>2021-07-04 08:55:25</time>
      </trkpt>
      <trkpt lat="28.96642" lon="-13.797">
        <ele>116.6</ele>
        <time>2021-07-04 08:55:26</time>
      </trkpt>
      <trkpt lat="28.96645" lon="-13.79702">
        <ele>117</ele>
        <time>2021-07-04 08:55:27</time>
      </trkpt>
      <trkpt lat="28.96647" lon="-13.79705">
        <ele>117</ele>
        <time>2021-07-04 08:55:28</time>
      </trkpt>
      <trkpt lat="28.9665" lon="-13.79708">
        <ele>117.2</ele>
        <time>2021-07-04 08:55:29</time>
      </trkpt>
      <trkpt lat="28.96652" lon="-13.79711">
        <ele>117.4</ele>
        <time>2021-07-04 08:55:30</time>
      </trkpt>
      <trkpt lat="28.96654" lon="-13.79714">
        <ele>117.6</ele>
        <time>2021-07-04 08:55:31</time>
      </trkpt>
      <trkpt lat="28.96657" lon="-13.79716">
        <ele>117.6</ele>
        <time>2021-07-04 08:55:32</time>
      </trkpt>
      <trkpt lat="28.96659" lon="-13.79719">
        <ele>118</ele>
        <time>2021-07-04 08:55:33</time>
      </trkpt>
      <trkpt lat="28.96662" lon="-13.79722">
        <ele>118</ele>
        <time>2021-07-04 08:55:34</time>
      </trkpt>
      <trkpt lat="28.96664" lon="-13.79725">
        <ele>118.4</ele>
        <time>2021-07-04 08:55:35</time>
      </trkpt>
      <trkpt lat="28.96666" lon="-13.79728">
        <ele>118.4</ele>
        <time>2021-07-04 08:55:36</time>
      </trkpt>
      <trkpt lat="28.96669" lon="-13.7973">
        <ele>118.8</ele>
        <time>2021-07-04 08:55:37</time>
      </trkpt>
      <trkpt lat="28.96671" lon="-13.79733">
        <ele>119</ele>
        <time>2021-07-04 08:55:38</time>
      </trkpt>
      <trkpt lat="28.96673" lon="-13.79735">
        <ele>119.2</ele>
        <time>2021-07-04 08:55:39</time>
      </trkpt>
      <trkpt lat="28.96676" lon="-13.79738">
        <ele>119.2</ele>
        <time>2021-07-04 08:55:40</time>
      </trkpt>
      <trkpt lat="28.96678" lon="-13.7974">
        <ele>119.4</ele>
        <time>2021-07-04 08:55:41</time>
      </trkpt>
      <trkpt lat="28.9668" lon="-13.79743">
        <ele>119.4</ele>
        <time>2021-07-04 08:55:42</time>
      </trkpt>
      <trkpt lat="28.96683" lon="-13.79746">
        <ele>119.4</ele>
        <time>2021-07-04 08:55:43</time>
      </trkpt>
      <trkpt lat="28.96685" lon="-13.79749">
        <ele>119.6</ele>
        <time>2021-07-04 08:55:44</time>
      </trkpt>
      <trkpt lat="28.96688" lon="-13.79752">
        <ele>119.6</ele>
        <time>2021-07-04 08:55:45</time>
      </trkpt>
      <trkpt lat="28.96691" lon="-13.79754">
        <ele>120</ele>
        <time>2021-07-04 08:55:46</time>
      </trkpt>
      <trkpt lat="28.96693" lon="-13.79757">
        <ele>120.4</ele>
        <time>2021-07-04 08:55:47</time>
      </trkpt>
      <trkpt lat="28.96696" lon="-13.7976">
        <ele>120.6</ele>
        <time>2021-07-04 08:55:48</time>
      </trkpt>
      <trkpt lat="28.96699" lon="-13.79763">
        <ele>120.6</ele>
        <time>2021-07-04 08:55:49</time>
      </trkpt>
      <trkpt lat="28.96701" lon="-13.79765">
        <ele>121</ele>
        <time>2021-07-04 08:55:50</time>
      </trkpt>
      <trkpt lat="28.96704" lon="-13.79768">
        <ele>121.4</ele>
        <time>2021-07-04 08:55:51</time>
      </trkpt>
      <trkpt lat="28.96706" lon="-13.79771">
        <ele>121.6</ele>
        <time>2021-07-04 08:55:52</time>
      </trkpt>
      <trkpt lat="28.96709" lon="-13.79773">
        <ele>121.8</ele>
        <time>2021-07-04 08:55:53</time>
      </trkpt>
      <trkpt lat="28.96711" lon="-13.79776">
        <ele>122.2</ele>
        <time>2021-07-04 08:55:54</time>
      </trkpt>
      <trkpt lat="28.96714" lon="-13.79779">
        <ele>122.4</ele>
        <time>2021-07-04 08:55:55</time>
      </trkpt>
      <trkpt lat="28.96716" lon="-13.79781">
        <ele>122.6</ele>
        <time>2021-07-04 08:55:56</time>
      </trkpt>
      <trkpt lat="28.96718" lon="-13.79784">
        <ele>122.6</ele>
        <time>2021-07-04 08:55:57</time>
      </trkpt>
      <trkpt lat="28.96721" lon="-13.79787">
        <ele>123</ele>
        <time>2021-07-04 08:55:58</time>
      </trkpt>
      <trkpt lat="28.96723" lon="-13.79789">
        <ele>123</ele>
        <time>2021-07-04 08:55:59</time>
      </trkpt>
      <trkpt lat="28.96726" lon="-13.79792">
        <ele>123</ele>
        <time>2021-07-04 08:56:00</time>
      </trkpt>
      <trkpt lat="28.96728" lon="-13.79794">
        <ele>123.2</ele>
        <time>2021-07-04 08:56:01</time>
      </trkpt>
      <trkpt lat="28.96731" lon="-13.79797">
        <ele>123.2</ele>
        <time>2021-07-04 08:56:02</time>
      </trkpt>
      <trkpt lat="28.96733" lon="-13.798">
        <ele>123.4</ele>
        <time>2021-07-04 08:56:03</time>
      </trkpt>
      <trkpt lat="28.96735" lon="-13.79803">
        <ele>123.4</ele>
        <time>2021-07-04 08:56:04</time>
      </trkpt>
      <trkpt lat="28.96738" lon="-13.79805">
        <ele>123.6</ele>
        <time>2021-07-04 08:56:05</time>
      </trkpt>
      <trkpt lat="28.9674" lon="-13.79808">
        <ele>123.6</ele>
        <time>2021-07-04 08:56:06</time>
      </trkpt>
      <trkpt lat="28.96742" lon="-13.79811">
        <ele>123.6</ele>
        <time>2021-07-04 08:56:07</time>
      </trkpt>
      <trkpt lat="28.96744" lon="-13.79814">
        <ele>123.6</ele>
        <time>2021-07-04 08:56:08</time>
      </trkpt>
      <trkpt lat="28.96747" lon="-13.79816">
        <ele>123.6</ele>
        <time>2021-07-04 08:56:09</time>
      </trkpt>
      <trkpt lat="28.96749" lon="-13.79819">
        <ele>124</ele>
        <time>2021-07-04 08:56:10</time>
      </trkpt>
      <trkpt lat="28.96751" lon="-13.79822">
        <ele>124.2</ele>
        <time>2021-07-04 08:56:11</time>
      </trkpt>
      <trkpt lat="28.96754" lon="-13.79824">
        <ele>124.2</ele>
        <time>2021-07-04 08:56:12</time>
      </trkpt>
      <trkpt lat="28.96756" lon="-13.79827">
        <ele>124.6</ele>
        <time>2021-07-04 08:56:13</time>
      </trkpt>
      <trkpt lat="28.96758" lon="-13.7983">
        <ele>124.6</ele>
        <time>2021-07-04 08:56:14</time>
      </trkpt>
      <trkpt lat="28.9676" lon="-13.79832">
        <ele>124.8</ele>
        <time>2021-07-04 08:56:15</time>
      </trkpt>
      <trkpt lat="28.96762" lon="-13.79835">
        <ele>124.8</ele>
        <time>2021-07-04 08:56:16</time>
      </trkpt>
      <trkpt lat="28.96764" lon="-13.79838">
        <ele>124.8</ele>
        <time>2021-07-04 08:56:17</time>
      </trkpt>
      <trkpt lat="28.96766" lon="-13.79841">
        <ele>124.8</ele>
        <time>2021-07-04 08:56:18</time>
      </trkpt>
      <trkpt lat="28.96768" lon="-13.79844">
        <ele>125.2</ele>
        <time>2021-07-04 08:56:19</time>
      </trkpt>
      <trkpt lat="28.96769" lon="-13.79847">
        <ele>125.2</ele>
        <time>2021-07-04 08:56:20</time>
      </trkpt>
      <trkpt lat="28.96771" lon="-13.7985">
        <ele>125.4</ele>
        <time>2021-07-04 08:56:21</time>
      </trkpt>
      <trkpt lat="28.96773" lon="-13.79853">
        <ele>125.4</ele>
        <time>2021-07-04 08:56:22</time>
      </trkpt>
      <trkpt lat="28.96775" lon="-13.79855">
        <ele>125.4</ele>
        <time>2021-07-04 08:56:23</time>
      </trkpt>
      <trkpt lat="28.96777" lon="-13.79858">
        <ele>125.4</ele>
        <time>2021-07-04 08:56:24</time>
      </trkpt>
      <trkpt lat="28.96779" lon="-13.79861">
        <ele>125.6</ele>
        <time>2021-07-04 08:56:25</time>
      </trkpt>
      <trkpt lat="28.9678" lon="-13.79864">
        <ele>125.6</ele>
        <time>2021-07-04 08:56:26</time>
      </trkpt>
      <trkpt lat="28.96782" lon="-13.79868">
        <ele>125.6</ele>
        <time>2021-07-04 08:56:27</time>
      </trkpt>
      <trkpt lat="28.96783" lon="-13.79871">
        <ele>126</ele>
        <time>2021-07-04 08:56:28</time>
      </trkpt>
      <trkpt lat="28.96785" lon="-13.79875">
        <ele>126</ele>
        <time>2021-07-04 08:56:29</time>
      </trkpt>
      <trkpt lat="28.96787" lon="-13.79878">
        <ele>126</ele>
        <time>2021-07-04 08:56:30</time>
      </trkpt>
      <trkpt lat="28.96788" lon="-13.79881">
        <ele>126</ele>
        <time>2021-07-04 08:56:31</time>
      </trkpt>
      <trkpt lat="28.9679" lon="-13.79885">
        <ele>126</ele>
        <time>2021-07-04 08:56:32</time>
      </trkpt>
      <trkpt lat="28.96791" lon="-13.79889">
        <ele>126</ele>
        <time>2021-07-04 08:56:33</time>
      </trkpt>
      <trkpt lat="28.96792" lon="-13.79893">
        <ele>126.2</ele>
        <time>2021-07-04 08:56:34</time>
      </trkpt>
      <trkpt lat="28.96794" lon="-13.79897">
        <ele>126.2</ele>
        <time>2021-07-04 08:56:35</time>
      </trkpt>
      <trkpt lat="28.96795" lon="-13.79901">
        <ele>126.2</ele>
        <time>2021-07-04 08:56:36</time>
      </trkpt>
      <trkpt lat="28.96796" lon="-13.79905">
        <ele>126.4</ele>
        <time>2021-07-04 08:56:37</time>
      </trkpt>
      <trkpt lat="28.96797" lon="-13.79909">
        <ele>126.4</ele>
        <time>2021-07-04 08:56:38</time>
      </trkpt>
      <trkpt lat="28.96799" lon="-13.79914">
        <ele>126.4</ele>
        <time>2021-07-04 08:56:39</time>
      </trkpt>
      <trkpt lat="28.968" lon="-13.79918">
        <ele>126.4</ele>
        <time>2021-07-04 08:56:40</time>
      </trkpt>
      <trkpt lat="28.96801" lon="-13.79923">
        <ele>126</ele>
        <time>2021-07-04 08:56:41</time>
      </trkpt>
      <trkpt lat="28.96802" lon="-13.79927">
        <ele>126</ele>
        <time>2021-07-04 08:56:42</time>
      </trkpt>
      <trkpt lat="28.96803" lon="-13.79931">
        <ele>126</ele>
        <time>2021-07-04 08:56:43</time>
      </trkpt>
      <trkpt lat="28.96804" lon="-13.79936">
        <ele>125.8</ele>
        <time>2021-07-04 08:56:44</time>
      </trkpt>
      <trkpt lat="28.96804" lon="-13.7994">
        <ele>125.8</ele>
        <time>2021-07-04 08:56:45</time>
      </trkpt>
      <trkpt lat="28.96805" lon="-13.79943">
        <ele>125.8</ele>
        <time>2021-07-04 08:56:46</time>
      </trkpt>
      <trkpt lat="28.96806" lon="-13.79946">
        <ele>125.8</ele>
        <time>2021-07-04 08:56:47</time>
      </trkpt>
      <trkpt lat="28.96806" lon="-13.79949">
        <ele>125.8</ele>
        <time>2021-07-04 08:56:48</time>
      </trkpt>
      <trkpt lat="28.96806" lon="-13.79951">
        <ele>125.8</ele>
        <time>2021-07-04 08:56:49</time>
      </trkpt>
      <trkpt lat="28.96806" lon="-13.79953">
        <ele>125.8</ele>
        <time>2021-07-04 08:56:50</time>
      </trkpt>
      <trkpt lat="28.96806" lon="-13.79954">
        <ele>125.8</ele>
        <time>2021-07-04 08:56:51</time>
      </trkpt>
      <trkpt lat="28.96806" lon="-13.79954">
        <ele>125.8</ele>
        <time>2021-07-04 08:56:52</time>
      </trkpt>
      <trkpt lat="28.96806" lon="-13.79954">
        <ele>125.8</ele>
        <time>2021-07-04 08:56:53</time>
      </trkpt>
      <trkpt lat="28.96806" lon="-13.79954">
        <ele>125.8</ele>
        <time>2021-07-04 08:56:54</time>
      </trkpt>
      <trkpt lat="28.96806" lon="-13.79954">
        <ele>125.6</ele>
        <time>2021-07-04 08:56:55</time>
      </trkpt>
      <trkpt lat="28.96806" lon="-13.79959">
        <ele>125</ele>
        <time>2021-07-04 08:57:27</time>
      </trkpt>
      <trkpt lat="28.96806" lon="-13.79963">
        <ele>124.8</ele>
        <time>2021-07-04 08:57:28</time>
      </trkpt>
      <trkpt lat="28.96807" lon="-13.79967">
        <ele>124.8</ele>
        <time>2021-07-04 08:57:29</time>
      </trkpt>
      <trkpt lat="28.96808" lon="-13.79972">
        <ele>124.8</ele>
        <time>2021-07-04 08:57:30</time>
      </trkpt>
      <trkpt lat="28.96808" lon="-13.79977">
        <ele>124.8</ele>
        <time>2021-07-04 08:57:31</time>
      </trkpt>
      <trkpt lat="28.96808" lon="-13.79983">
        <ele>124.8</ele>
        <time>2021-07-04 08:57:32</time>
      </trkpt>
      <trkpt lat="28.96809" lon="-13.79989">
        <ele>124.8</ele>
        <time>2021-07-04 08:57:33</time>
      </trkpt>
      <trkpt lat="28.96809" lon="-13.79995">
        <ele>124.8</ele>
        <time>2021-07-04 08:57:34</time>
      </trkpt>
      <trkpt lat="28.96809" lon="-13.80001">
        <ele>124.8</ele>
        <time>2021-07-04 08:57:35</time>
      </trkpt>
      <trkpt lat="28.9681" lon="-13.80008">
        <ele>124.6</ele>
        <time>2021-07-04 08:57:36</time>
      </trkpt>
      <trkpt lat="28.96811" lon="-13.80015">
        <ele>124.6</ele>
        <time>2021-07-04 08:57:37</time>
      </trkpt>
      <trkpt lat="28.96812" lon="-13.80023">
        <ele>124.4</ele>
        <time>2021-07-04 08:57:38</time>
      </trkpt>
      <trkpt lat="28.96814" lon="-13.8003">
        <ele>124.4</ele>
        <time>2021-07-04 08:57:39</time>
      </trkpt>
      <trkpt lat="28.96815" lon="-13.80037">
        <ele>124</ele>
        <time>2021-07-04 08:57:40</time>
      </trkpt>
      <trkpt lat="28.96817" lon="-13.80045">
        <ele>123.8</ele>
        <time>2021-07-04 08:57:41</time>
      </trkpt>
      <trkpt lat="28.96819" lon="-13.80052">
        <ele>123.8</ele>
        <time>2021-07-04 08:57:42</time>
      </trkpt>
      <trkpt lat="28.96822" lon="-13.8006">
        <ele>123.6</ele>
        <time>2021-07-04 08:57:43</time>
      </trkpt>
      <trkpt lat="28.96825" lon="-13.80068">
        <ele>123.6</ele>
        <time>2021-07-04 08:57:44</time>
      </trkpt>
      <trkpt lat="28.96828" lon="-13.80076">
        <ele>123.2</ele>
        <time>2021-07-04 08:57:45</time>
      </trkpt>
      <trkpt lat="28.96831" lon="-13.80084">
        <ele>123.2</ele>
        <time>2021-07-04 08:57:46</time>
      </trkpt>
      <trkpt lat="28.96834" lon="-13.80092">
        <ele>123.2</ele>
        <time>2021-07-04 08:57:47</time>
      </trkpt>
      <trkpt lat="28.96838" lon="-13.801">
        <ele>123.2</ele>
        <time>2021-07-04 08:57:48</time>
      </trkpt>
      <trkpt lat="28.96842" lon="-13.80108">
        <ele>123</ele>
        <time>2021-07-04 08:57:49</time>
      </trkpt>
      <trkpt lat="28.96845" lon="-13.80117">
        <ele>123</ele>
        <time>2021-07-04 08:57:50</time>
      </trkpt>
      <trkpt lat="28.96848" lon="-13.80125">
        <ele>122.6</ele>
        <time>2021-07-04 08:57:51</time>
      </trkpt>
      <trkpt lat="28.96852" lon="-13.80134">
        <ele>122.6</ele>
        <time>2021-07-04 08:57:52</time>
      </trkpt>
      <trkpt lat="28.96855" lon="-13.80142">
        <ele>122.2</ele>
        <time>2021-07-04 08:57:53</time>
      </trkpt>
      <trkpt lat="28.96859" lon="-13.80151">
        <ele>122</ele>
        <time>2021-07-04 08:57:54</time>
      </trkpt>
      <trkpt lat="28.96862" lon="-13.80159">
        <ele>122</ele>
        <time>2021-07-04 08:57:55</time>
      </trkpt>
      <trkpt lat="28.96866" lon="-13.80169">
        <ele>121.8</ele>
        <time>2021-07-04 08:57:56</time>
      </trkpt>
      <trkpt lat="28.96869" lon="-13.80177">
        <ele>121.4</ele>
        <time>2021-07-04 08:57:57</time>
      </trkpt>
      <trkpt lat="28.96873" lon="-13.80186">
        <ele>121.2</ele>
        <time>2021-07-04 08:57:58</time>
      </trkpt>
      <trkpt lat="28.96877" lon="-13.80194">
        <ele>120.8</ele>
        <time>2021-07-04 08:57:59</time>
      </trkpt>
      <trkpt lat="28.9688" lon="-13.80203">
        <ele>120.6</ele>
        <time>2021-07-04 08:58:00</time>
      </trkpt>
      <trkpt lat="28.96884" lon="-13.80211">
        <ele>120.2</ele>
        <time>2021-07-04 08:58:01</time>
      </trkpt>
      <trkpt lat="28.96887" lon="-13.80221">
        <ele>120</ele>
        <time>2021-07-04 08:58:02</time>
      </trkpt>
      <trkpt lat="28.9689" lon="-13.80229">
        <ele>119.6</ele>
        <time>2021-07-04 08:58:03</time>
      </trkpt>
      <trkpt lat="28.96894" lon="-13.80238">
        <ele>119.2</ele>
        <time>2021-07-04 08:58:04</time>
      </trkpt>
      <trkpt lat="28.96897" lon="-13.80246">
        <ele>119</ele>
        <time>2021-07-04 08:58:05</time>
      </trkpt>
      <trkpt lat="28.96901" lon="-13.80254">
        <ele>118.8</ele>
        <time>2021-07-04 08:58:06</time>
      </trkpt>
      <trkpt lat="28.96904" lon="-13.80263">
        <ele>118.4</ele>
        <time>2021-07-04 08:58:07</time>
      </trkpt>
      <trkpt lat="28.96908" lon="-13.80271">
        <ele>118.2</ele>
        <time>2021-07-04 08:58:08</time>
      </trkpt>
      <trkpt lat="28.96911" lon="-13.80279">
        <ele>117.8</ele>
        <time>2021-07-04 08:58:09</time>
      </trkpt>
      <trkpt lat="28.96914" lon="-13.80287">
        <ele>117.6</ele>
        <time>2021-07-04 08:58:10</time>
      </trkpt>
      <trkpt lat="28.96917" lon="-13.80295">
        <ele>117.6</ele>
        <time>2021-07-04 08:58:11</time>
      </trkpt>
      <trkpt lat="28.9692" lon="-13.80303">
        <ele>117.2</ele>
        <time>2021-07-04 08:58:12</time>
      </trkpt>
      <trkpt lat="28.96923" lon="-13.80311">
        <ele>117.2</ele>
        <time>2021-07-04 08:58:13</time>
      </trkpt>
      <trkpt lat="28.96926" lon="-13.80319">
        <ele>117</ele>
        <time>2021-07-04 08:58:14</time>
      </trkpt>
      <trkpt lat="28.96929" lon="-13.80326">
        <ele>117</ele>
        <time>2021-07-04 08:58:15</time>
      </trkpt>
      <trkpt lat="28.96931" lon="-13.80334">
        <ele>116.8</ele>
        <time>2021-07-04 08:58:16</time>
      </trkpt>
      <trkpt lat="28.96935" lon="-13.80341">
        <ele>116.8</ele>
        <time>2021-07-04 08:58:17</time>
      </trkpt>
      <trkpt lat="28.96938" lon="-13.80348">
        <ele>116.8</ele>
        <time>2021-07-04 08:58:18</time>
      </trkpt>
      <trkpt lat="28.96941" lon="-13.80355">
        <ele>116.6</ele>
        <time>2021-07-04 08:58:19</time>
      </trkpt>
      <trkpt lat="28.96944" lon="-13.80363">
        <ele>116.6</ele>
        <time>2021-07-04 08:58:20</time>
      </trkpt>
      <trkpt lat="28.96947" lon="-13.8037">
        <ele>116.6</ele>
        <time>2021-07-04 08:58:21</time>
      </trkpt>
      <trkpt lat="28.96949" lon="-13.80377">
        <ele>116.4</ele>
        <time>2021-07-04 08:58:22</time>
      </trkpt>
      <trkpt lat="28.96951" lon="-13.80384">
        <ele>116.4</ele>
        <time>2021-07-04 08:58:23</time>
      </trkpt>
      <trkpt lat="28.96955" lon="-13.8039">
        <ele>116.4</ele>
        <time>2021-07-04 08:58:24</time>
      </trkpt>
      <trkpt lat="28.96957" lon="-13.80397">
        <ele>116.4</ele>
        <time>2021-07-04 08:58:25</time>
      </trkpt>
      <trkpt lat="28.9696" lon="-13.80404">
        <ele>116.4</ele>
        <time>2021-07-04 08:58:26</time>
      </trkpt>
      <trkpt lat="28.96962" lon="-13.80411">
        <ele>116.4</ele>
        <time>2021-07-04 08:58:27</time>
      </trkpt>
      <trkpt lat="28.96965" lon="-13.80418">
        <ele>116</ele>
        <time>2021-07-04 08:58:28</time>
      </trkpt>
      <trkpt lat="28.96968" lon="-13.80424">
        <ele>116</ele>
        <time>2021-07-04 08:58:29</time>
      </trkpt>
      <trkpt lat="28.9697" lon="-13.80431">
        <ele>115.6</ele>
        <time>2021-07-04 08:58:30</time>
      </trkpt>
      <trkpt lat="28.96973" lon="-13.80437">
        <ele>115.6</ele>
        <time>2021-07-04 08:58:31</time>
      </trkpt>
      <trkpt lat="28.96976" lon="-13.80444">
        <ele>115.4</ele>
        <time>2021-07-04 08:58:32</time>
      </trkpt>
      <trkpt lat="28.96979" lon="-13.80451">
        <ele>115.4</ele>
        <time>2021-07-04 08:58:33</time>
      </trkpt>
      <trkpt lat="28.96981" lon="-13.80458">
        <ele>115</ele>
        <time>2021-07-04 08:58:34</time>
      </trkpt>
      <trkpt lat="28.96983" lon="-13.80465">
        <ele>115</ele>
        <time>2021-07-04 08:58:35</time>
      </trkpt>
      <trkpt lat="28.96987" lon="-13.80472">
        <ele>114.8</ele>
        <time>2021-07-04 08:58:36</time>
      </trkpt>
      <trkpt lat="28.9699" lon="-13.80479">
        <ele>114.8</ele>
        <time>2021-07-04 08:58:37</time>
      </trkpt>
      <trkpt lat="28.96993" lon="-13.80487">
        <ele>114.6</ele>
        <time>2021-07-04 08:58:38</time>
      </trkpt>
      <trkpt lat="28.96996" lon="-13.80494">
        <ele>114.6</ele>
        <time>2021-07-04 08:58:39</time>
      </trkpt>
      <trkpt lat="28.96999" lon="-13.80501">
        <ele>114.6</ele>
        <time>2021-07-04 08:58:40</time>
      </trkpt>
      <trkpt lat="28.97002" lon="-13.80508">
        <ele>114.4</ele>
        <time>2021-07-04 08:58:41</time>
      </trkpt>
      <trkpt lat="28.97006" lon="-13.80515">
        <ele>114.4</ele>
        <time>2021-07-04 08:58:42</time>
      </trkpt>
      <trkpt lat="28.97009" lon="-13.80523">
        <ele>114.4</ele>
        <time>2021-07-04 08:58:43</time>
      </trkpt>
      <trkpt lat="28.97013" lon="-13.8053">
        <ele>114.4</ele>
        <time>2021-07-04 08:58:44</time>
      </trkpt>
      <trkpt lat="28.97016" lon="-13.80537">
        <ele>114.4</ele>
        <time>2021-07-04 08:58:45</time>
      </trkpt>
      <trkpt lat="28.97019" lon="-13.80545">
        <ele>114</ele>
        <time>2021-07-04 08:58:46</time>
      </trkpt>
      <trkpt lat="28.97022" lon="-13.80552">
        <ele>114</ele>
        <time>2021-07-04 08:58:47</time>
      </trkpt>
      <trkpt lat="28.97025" lon="-13.8056">
        <ele>113.6</ele>
        <time>2021-07-04 08:58:48</time>
      </trkpt>
      <trkpt lat="28.97028" lon="-13.80568">
        <ele>113.6</ele>
        <time>2021-07-04 08:58:49</time>
      </trkpt>
      <trkpt lat="28.97031" lon="-13.80575">
        <ele>113.2</ele>
        <time>2021-07-04 08:58:50</time>
      </trkpt>
      <trkpt lat="28.97034" lon="-13.80582">
        <ele>113.2</ele>
        <time>2021-07-04 08:58:51</time>
      </trkpt>
      <trkpt lat="28.97038" lon="-13.8059">
        <ele>113.2</ele>
        <time>2021-07-04 08:58:52</time>
      </trkpt>
      <trkpt lat="28.97041" lon="-13.80598">
        <ele>113</ele>
        <time>2021-07-04 08:58:53</time>
      </trkpt>
      <trkpt lat="28.97044" lon="-13.80606">
        <ele>112.8</ele>
        <time>2021-07-04 08:58:54</time>
      </trkpt>
      <trkpt lat="28.97047" lon="-13.80613">
        <ele>112.4</ele>
        <time>2021-07-04 08:58:55</time>
      </trkpt>
      <trkpt lat="28.9705" lon="-13.80622">
        <ele>112</ele>
        <time>2021-07-04 08:58:56</time>
      </trkpt>
      <trkpt lat="28.97054" lon="-13.8063">
        <ele>111.6</ele>
        <time>2021-07-04 08:58:57</time>
      </trkpt>
      <trkpt lat="28.97057" lon="-13.80639">
        <ele>111</ele>
        <time>2021-07-04 08:58:58</time>
      </trkpt>
      <trkpt lat="28.9706" lon="-13.80648">
        <ele>110.6</ele>
        <time>2021-07-04 08:58:59</time>
      </trkpt>
      <trkpt lat="28.9706" lon="-13.80648">
        <ele>110.2</ele>
        <time>2021-07-04 08:59:00</time>
      </trkpt>
      <trkpt lat="28.97067" lon="-13.80667">
        <ele>109.6</ele>
        <time>2021-07-04 08:59:01</time>
      </trkpt>
      <trkpt lat="28.97071" lon="-13.80676">
        <ele>109.2</ele>
        <time>2021-07-04 08:59:02</time>
      </trkpt>
      <trkpt lat="28.97075" lon="-13.80685">
        <ele>108.4</ele>
        <time>2021-07-04 08:59:03</time>
      </trkpt>
      <trkpt lat="28.97078" lon="-13.80695">
        <ele>107.8</ele>
        <time>2021-07-04 08:59:04</time>
      </trkpt>
      <trkpt lat="28.97082" lon="-13.80704">
        <ele>107.4</ele>
        <time>2021-07-04 08:59:05</time>
      </trkpt>
      <trkpt lat="28.97085" lon="-13.80714">
        <ele>106.8</ele>
        <time>2021-07-04 08:59:06</time>
      </trkpt>
      <trkpt lat="28.97089" lon="-13.80723">
        <ele>106.2</ele>
        <time>2021-07-04 08:59:07</time>
      </trkpt>
      <trkpt lat="28.97093" lon="-13.80733">
        <ele>105.6</ele>
        <time>2021-07-04 08:59:08</time>
      </trkpt>
      <trkpt lat="28.97097" lon="-13.80743">
        <ele>105</ele>
        <time>2021-07-04 08:59:09</time>
      </trkpt>
      <trkpt lat="28.97101" lon="-13.80753">
        <ele>104.2</ele>
        <time>2021-07-04 08:59:10</time>
      </trkpt>
      <trkpt lat="28.97104" lon="-13.80763">
        <ele>103.6</ele>
        <time>2021-07-04 08:59:11</time>
      </trkpt>
      <trkpt lat="28.97108" lon="-13.80773">
        <ele>103</ele>
        <time>2021-07-04 08:59:12</time>
      </trkpt>
      <trkpt lat="28.97113" lon="-13.80782">
        <ele>102.2</ele>
        <time>2021-07-04 08:59:13</time>
      </trkpt>
      <trkpt lat="28.97117" lon="-13.80792">
        <ele>101.6</ele>
        <time>2021-07-04 08:59:14</time>
      </trkpt>
      <trkpt lat="28.97122" lon="-13.80802">
        <ele>101</ele>
        <time>2021-07-04 08:59:15</time>
      </trkpt>
      <trkpt lat="28.97127" lon="-13.80812">
        <ele>100.6</ele>
        <time>2021-07-04 08:59:16</time>
      </trkpt>
      <trkpt lat="28.97132" lon="-13.80822">
        <ele>100</ele>
        <time>2021-07-04 08:59:17</time>
      </trkpt>
      <trkpt lat="28.97137" lon="-13.80831">
        <ele>99.6</ele>
        <time>2021-07-04 08:59:18</time>
      </trkpt>
      <trkpt lat="28.97143" lon="-13.8084">
        <ele>99.2</ele>
        <time>2021-07-04 08:59:19</time>
      </trkpt>
      <trkpt lat="28.97148" lon="-13.80849">
        <ele>98.6</ele>
        <time>2021-07-04 08:59:20</time>
      </trkpt>
      <trkpt lat="28.97155" lon="-13.80857">
        <ele>98</ele>
        <time>2021-07-04 08:59:21</time>
      </trkpt>
      <trkpt lat="28.97161" lon="-13.80865">
        <ele>97.4</ele>
        <time>2021-07-04 08:59:22</time>
      </trkpt>
      <trkpt lat="28.97168" lon="-13.80873">
        <ele>96.8</ele>
        <time>2021-07-04 08:59:23</time>
      </trkpt>
      <trkpt lat="28.97174" lon="-13.80881">
        <ele>96.2</ele>
        <time>2021-07-04 08:59:24</time>
      </trkpt>
      <trkpt lat="28.97181" lon="-13.80888">
        <ele>95.8</ele>
        <time>2021-07-04 08:59:25</time>
      </trkpt>
      <trkpt lat="28.97188" lon="-13.80895">
        <ele>95.2</ele>
        <time>2021-07-04 08:59:26</time>
      </trkpt>
      <trkpt lat="28.97194" lon="-13.80901">
        <ele>94.8</ele>
        <time>2021-07-04 08:59:27</time>
      </trkpt>
      <trkpt lat="28.97201" lon="-13.80907">
        <ele>94.2</ele>
        <time>2021-07-04 08:59:28</time>
      </trkpt>
      <trkpt lat="28.97207" lon="-13.80913">
        <ele>93.8</ele>
        <time>2021-07-04 08:59:29</time>
      </trkpt>
      <trkpt lat="28.97213" lon="-13.8092">
        <ele>93.4</ele>
        <time>2021-07-04 08:59:30</time>
      </trkpt>
      <trkpt lat="28.97219" lon="-13.80926">
        <ele>93</ele>
        <time>2021-07-04 08:59:31</time>
      </trkpt>
      <trkpt lat="28.97225" lon="-13.80932">
        <ele>92.6</ele>
        <time>2021-07-04 08:59:32</time>
      </trkpt>
      <trkpt lat="28.97231" lon="-13.80937">
        <ele>92.4</ele>
        <time>2021-07-04 08:59:33</time>
      </trkpt>
      <trkpt lat="28.97237" lon="-13.80943">
        <ele>92.2</ele>
        <time>2021-07-04 08:59:34</time>
      </trkpt>
      <trkpt lat="28.97243" lon="-13.80948">
        <ele>92</ele>
        <time>2021-07-04 08:59:35</time>
      </trkpt>
      <trkpt lat="28.97249" lon="-13.80955">
        <ele>92</ele>
        <time>2021-07-04 08:59:36</time>
      </trkpt>
      <trkpt lat="28.97254" lon="-13.8096">
        <ele>91.8</ele>
        <time>2021-07-04 08:59:37</time>
      </trkpt>
      <trkpt lat="28.9726" lon="-13.80966">
        <ele>91.6</ele>
        <time>2021-07-04 08:59:38</time>
      </trkpt>
      <trkpt lat="28.97265" lon="-13.80971">
        <ele>91.6</ele>
        <time>2021-07-04 08:59:39</time>
      </trkpt>
      <trkpt lat="28.9727" lon="-13.80976">
        <ele>91.2</ele>
        <time>2021-07-04 08:59:40</time>
      </trkpt>
      <trkpt lat="28.97275" lon="-13.80982">
        <ele>91.2</ele>
        <time>2021-07-04 08:59:41</time>
      </trkpt>
      <trkpt lat="28.9728" lon="-13.80987">
        <ele>91</ele>
        <time>2021-07-04 08:59:42</time>
      </trkpt>
      <trkpt lat="28.97286" lon="-13.80993">
        <ele>91</ele>
        <time>2021-07-04 08:59:43</time>
      </trkpt>
      <trkpt lat="28.97291" lon="-13.80998">
        <ele>91</ele>
        <time>2021-07-04 08:59:44</time>
      </trkpt>
      <trkpt lat="28.97296" lon="-13.81003">
        <ele>91</ele>
        <time>2021-07-04 08:59:45</time>
      </trkpt>
      <trkpt lat="28.97301" lon="-13.81008">
        <ele>91</ele>
        <time>2021-07-04 08:59:46</time>
      </trkpt>
      <trkpt lat="28.97306" lon="-13.81013">
        <ele>91</ele>
        <time>2021-07-04 08:59:47</time>
      </trkpt>
      <trkpt lat="28.9731" lon="-13.81018">
        <ele>91</ele>
        <time>2021-07-04 08:59:48</time>
      </trkpt>
      <trkpt lat="28.97315" lon="-13.81023">
        <ele>91</ele>
        <time>2021-07-04 08:59:49</time>
      </trkpt>
      <trkpt lat="28.9732" lon="-13.81027">
        <ele>91</ele>
        <time>2021-07-04 08:59:50</time>
      </trkpt>
      <trkpt lat="28.97325" lon="-13.81032">
        <ele>91.2</ele>
        <time>2021-07-04 08:59:51</time>
      </trkpt>
      <trkpt lat="28.97329" lon="-13.81036">
        <ele>91.2</ele>
        <time>2021-07-04 08:59:52</time>
      </trkpt>
      <trkpt lat="28.97334" lon="-13.81041">
        <ele>91.2</ele>
        <time>2021-07-04 08:59:53</time>
      </trkpt>
      <trkpt lat="28.97339" lon="-13.81046">
        <ele>91.2</ele>
        <time>2021-07-04 08:59:54</time>
      </trkpt>
      <trkpt lat="28.97343" lon="-13.8105">
        <ele>91.2</ele>
        <time>2021-07-04 08:59:55</time>
      </trkpt>
      <trkpt lat="28.97348" lon="-13.81055">
        <ele>91.2</ele>
        <time>2021-07-04 08:59:56</time>
      </trkpt>
      <trkpt lat="28.97353" lon="-13.81059">
        <ele>91.2</ele>
        <time>2021-07-04 08:59:57</time>
      </trkpt>
      <trkpt lat="28.97357" lon="-13.81064">
        <ele>91.2</ele>
        <time>2021-07-04 08:59:58</time>
      </trkpt>
      <trkpt lat="28.97361" lon="-13.81068">
        <ele>91.2</ele>
        <time>2021-07-04 08:59:59</time>
      </trkpt>
      <trkpt lat="28.97365" lon="-13.81073">
        <ele>91.4</ele>
        <time>2021-07-04 09:00:00</time>
      </trkpt>
      <trkpt lat="28.9737" lon="-13.81077">
        <ele>91.4</ele>
        <time>2021-07-04 09:00:01</time>
      </trkpt>
      <trkpt lat="28.97374" lon="-13.81081">
        <ele>91.4</ele>
        <time>2021-07-04 09:00:02</time>
      </trkpt>
      <trkpt lat="28.97378" lon="-13.81085">
        <ele>91.4</ele>
        <time>2021-07-04 09:00:03</time>
      </trkpt>
      <trkpt lat="28.97382" lon="-13.81089">
        <ele>91.4</ele>
        <time>2021-07-04 09:00:04</time>
      </trkpt>
      <trkpt lat="28.97387" lon="-13.81093">
        <ele>91.2</ele>
        <time>2021-07-04 09:00:05</time>
      </trkpt>
      <trkpt lat="28.97391" lon="-13.81097">
        <ele>91.2</ele>
        <time>2021-07-04 09:00:06</time>
      </trkpt>
      <trkpt lat="28.97395" lon="-13.81102">
        <ele>91.2</ele>
        <time>2021-07-04 09:00:07</time>
      </trkpt>
      <trkpt lat="28.97399" lon="-13.81106">
        <ele>91.2</ele>
        <time>2021-07-04 09:00:08</time>
      </trkpt>
      <trkpt lat="28.97404" lon="-13.8111">
        <ele>91</ele>
        <time>2021-07-04 09:00:09</time>
      </trkpt>
      <trkpt lat="28.97408" lon="-13.81114">
        <ele>91</ele>
        <time>2021-07-04 09:00:10</time>
      </trkpt>
      <trkpt lat="28.97412" lon="-13.81118">
        <ele>90.8</ele>
        <time>2021-07-04 09:00:11</time>
      </trkpt>
      <trkpt lat="28.97417" lon="-13.81122">
        <ele>90.8</ele>
        <time>2021-07-04 09:00:12</time>
      </trkpt>
      <trkpt lat="28.97421" lon="-13.81126">
        <ele>90.8</ele>
        <time>2021-07-04 09:00:13</time>
      </trkpt>
      <trkpt lat="28.97425" lon="-13.8113">
        <ele>90.8</ele>
        <time>2021-07-04 09:00:14</time>
      </trkpt>
      <trkpt lat="28.97429" lon="-13.81134">
        <ele>90.4</ele>
        <time>2021-07-04 09:00:15</time>
      </trkpt>
      <trkpt lat="28.97433" lon="-13.81139">
        <ele>90.4</ele>
        <time>2021-07-04 09:00:16</time>
      </trkpt>
      <trkpt lat="28.97437" lon="-13.81143">
        <ele>90.4</ele>
        <time>2021-07-04 09:00:17</time>
      </trkpt>
      <trkpt lat="28.97441" lon="-13.81147">
        <ele>90.4</ele>
        <time>2021-07-04 09:00:18</time>
      </trkpt>
      <trkpt lat="28.97445" lon="-13.81152">
        <ele>90.4</ele>
        <time>2021-07-04 09:00:19</time>
      </trkpt>
      <trkpt lat="28.9745" lon="-13.81156">
        <ele>90.4</ele>
        <time>2021-07-04 09:00:20</time>
      </trkpt>
      <trkpt lat="28.97454" lon="-13.8116">
        <ele>90.8</ele>
        <time>2021-07-04 09:00:21</time>
      </trkpt>
      <trkpt lat="28.97459" lon="-13.81164">
        <ele>90.8</ele>
        <time>2021-07-04 09:00:22</time>
      </trkpt>
      <trkpt lat="28.97463" lon="-13.81169">
        <ele>90.8</ele>
        <time>2021-07-04 09:00:23</time>
      </trkpt>
      <trkpt lat="28.97467" lon="-13.81173">
        <ele>90.8</ele>
        <time>2021-07-04 09:00:24</time>
      </trkpt>
      <trkpt lat="28.97472" lon="-13.81178">
        <ele>90.4</ele>
        <time>2021-07-04 09:00:25</time>
      </trkpt>
      <trkpt lat="28.97476" lon="-13.81183">
        <ele>90.4</ele>
        <time>2021-07-04 09:00:26</time>
      </trkpt>
      <trkpt lat="28.9748" lon="-13.81187">
        <ele>90.2</ele>
        <time>2021-07-04 09:00:27</time>
      </trkpt>
      <trkpt lat="28.97485" lon="-13.81191">
        <ele>89.8</ele>
        <time>2021-07-04 09:00:28</time>
      </trkpt>
      <trkpt lat="28.97489" lon="-13.81196">
        <ele>89.8</ele>
        <time>2021-07-04 09:00:29</time>
      </trkpt>
      <trkpt lat="28.97494" lon="-13.81199">
        <ele>89.4</ele>
        <time>2021-07-04 09:00:30</time>
      </trkpt>
      <trkpt lat="28.97498" lon="-13.81204">
        <ele>89.2</ele>
        <time>2021-07-04 09:00:31</time>
      </trkpt>
      <trkpt lat="28.97502" lon="-13.81208">
        <ele>89.2</ele>
        <time>2021-07-04 09:00:32</time>
      </trkpt>
      <trkpt lat="28.97506" lon="-13.81212">
        <ele>89</ele>
        <time>2021-07-04 09:00:33</time>
      </trkpt>
      <trkpt lat="28.9751" lon="-13.81216">
        <ele>89</ele>
        <time>2021-07-04 09:00:34</time>
      </trkpt>
      <trkpt lat="28.97514" lon="-13.8122">
        <ele>89</ele>
        <time>2021-07-04 09:00:35</time>
      </trkpt>
      <trkpt lat="28.97519" lon="-13.81223">
        <ele>89.4</ele>
        <time>2021-07-04 09:00:36</time>
      </trkpt>
      <trkpt lat="28.97524" lon="-13.81228">
        <ele>89.6</ele>
        <time>2021-07-04 09:00:37</time>
      </trkpt>
      <trkpt lat="28.97528" lon="-13.81232">
        <ele>90</ele>
        <time>2021-07-04 09:00:38</time>
      </trkpt>
      <trkpt lat="28.97532" lon="-13.81235">
        <ele>90.2</ele>
        <time>2021-07-04 09:00:39</time>
      </trkpt>
      <trkpt lat="28.97536" lon="-13.81239">
        <ele>90.6</ele>
        <time>2021-07-04 09:00:40</time>
      </trkpt>
      <trkpt lat="28.9754" lon="-13.81242">
        <ele>90.8</ele>
        <time>2021-07-04 09:00:41</time>
      </trkpt>
      <trkpt lat="28.97544" lon="-13.81246">
        <ele>91.2</ele>
        <time>2021-07-04 09:00:42</time>
      </trkpt>
      <trkpt lat="28.97548" lon="-13.81249">
        <ele>91.6</ele>
        <time>2021-07-04 09:00:43</time>
      </trkpt>
      <trkpt lat="28.97552" lon="-13.81253">
        <ele>91.6</ele>
        <time>2021-07-04 09:00:44</time>
      </trkpt>
      <trkpt lat="28.97557" lon="-13.81257">
        <ele>92</ele>
        <time>2021-07-04 09:00:45</time>
      </trkpt>
      <trkpt lat="28.9756" lon="-13.8126">
        <ele>92.2</ele>
        <time>2021-07-04 09:00:46</time>
      </trkpt>
      <trkpt lat="28.97564" lon="-13.81264">
        <ele>92.2</ele>
        <time>2021-07-04 09:00:47</time>
      </trkpt>
      <trkpt lat="28.97568" lon="-13.81267">
        <ele>92.6</ele>
        <time>2021-07-04 09:00:48</time>
      </trkpt>
      <trkpt lat="28.97571" lon="-13.8127">
        <ele>92.8</ele>
        <time>2021-07-04 09:00:49</time>
      </trkpt>
      <trkpt lat="28.97575" lon="-13.81274">
        <ele>93</ele>
        <time>2021-07-04 09:00:50</time>
      </trkpt>
      <trkpt lat="28.97578" lon="-13.81277">
        <ele>93</ele>
        <time>2021-07-04 09:00:51</time>
      </trkpt>
      <trkpt lat="28.97582" lon="-13.81281">
        <ele>93.4</ele>
        <time>2021-07-04 09:00:52</time>
      </trkpt>
      <trkpt lat="28.97586" lon="-13.81284">
        <ele>93.4</ele>
        <time>2021-07-04 09:00:53</time>
      </trkpt>
      <trkpt lat="28.9759" lon="-13.81288">
        <ele>93</ele>
        <time>2021-07-04 09:00:54</time>
      </trkpt>
      <trkpt lat="28.97593" lon="-13.81291">
        <ele>92.8</ele>
        <time>2021-07-04 09:00:55</time>
      </trkpt>
      <trkpt lat="28.97597" lon="-13.81295">
        <ele>92.4</ele>
        <time>2021-07-04 09:00:56</time>
      </trkpt>
      <trkpt lat="28.97601" lon="-13.81298">
        <ele>92.4</ele>
        <time>2021-07-04 09:00:57</time>
      </trkpt>
      <trkpt lat="28.97604" lon="-13.81302">
        <ele>92.4</ele>
        <time>2021-07-04 09:00:58</time>
      </trkpt>
      <trkpt lat="28.97608" lon="-13.81305">
        <ele>92.2</ele>
        <time>2021-07-04 09:00:59</time>
      </trkpt>
      <trkpt lat="28.97608" lon="-13.81305">
        <ele>92.2</ele>
        <time>2021-07-04 09:01:00</time>
      </trkpt>
      <trkpt lat="28.97616" lon="-13.81312">
        <ele>91.8</ele>
        <time>2021-07-04 09:01:01</time>
      </trkpt>
      <trkpt lat="28.97619" lon="-13.81315">
        <ele>91.6</ele>
        <time>2021-07-04 09:01:02</time>
      </trkpt>
      <trkpt lat="28.97623" lon="-13.81319">
        <ele>91.2</ele>
        <time>2021-07-04 09:01:03</time>
      </trkpt>
      <trkpt lat="28.97627" lon="-13.81323">
        <ele>91</ele>
        <time>2021-07-04 09:01:04</time>
      </trkpt>
      <trkpt lat="28.97631" lon="-13.81326">
        <ele>90.6</ele>
        <time>2021-07-04 09:01:05</time>
      </trkpt>
      <trkpt lat="28.97634" lon="-13.8133">
        <ele>90.2</ele>
        <time>2021-07-04 09:01:06</time>
      </trkpt>
      <trkpt lat="28.97638" lon="-13.81333">
        <ele>90.2</ele>
        <time>2021-07-04 09:01:07</time>
      </trkpt>
      <trkpt lat="28.97641" lon="-13.81337">
        <ele>90.2</ele>
        <time>2021-07-04 09:01:08</time>
      </trkpt>
      <trkpt lat="28.97645" lon="-13.81341">
        <ele>90.2</ele>
        <time>2021-07-04 09:01:09</time>
      </trkpt>
      <trkpt lat="28.97649" lon="-13.81344">
        <ele>90.2</ele>
        <time>2021-07-04 09:01:10</time>
      </trkpt>
      <trkpt lat="28.97652" lon="-13.81348">
        <ele>89.8</ele>
        <time>2021-07-04 09:01:11</time>
      </trkpt>
      <trkpt lat="28.97656" lon="-13.81352">
        <ele>89.8</ele>
        <time>2021-07-04 09:01:12</time>
      </trkpt>
      <trkpt lat="28.97659" lon="-13.81356">
        <ele>89.6</ele>
        <time>2021-07-04 09:01:13</time>
      </trkpt>
      <trkpt lat="28.97663" lon="-13.8136">
        <ele>89.6</ele>
        <time>2021-07-04 09:01:14</time>
      </trkpt>
      <trkpt lat="28.97666" lon="-13.81364">
        <ele>89.6</ele>
        <time>2021-07-04 09:01:15</time>
      </trkpt>
      <trkpt lat="28.9767" lon="-13.81368">
        <ele>89.2</ele>
        <time>2021-07-04 09:01:16</time>
      </trkpt>
      <trkpt lat="28.97673" lon="-13.81372">
        <ele>89</ele>
        <time>2021-07-04 09:01:17</time>
      </trkpt>
      <trkpt lat="28.97677" lon="-13.81377">
        <ele>88.8</ele>
        <time>2021-07-04 09:01:18</time>
      </trkpt>
      <trkpt lat="28.9768" lon="-13.81382">
        <ele>88.8</ele>
        <time>2021-07-04 09:01:19</time>
      </trkpt>
      <trkpt lat="28.97683" lon="-13.81387">
        <ele>88.4</ele>
        <time>2021-07-04 09:01:20</time>
      </trkpt>
      <trkpt lat="28.97686" lon="-13.81393">
        <ele>88.2</ele>
        <time>2021-07-04 09:01:21</time>
      </trkpt>
      <trkpt lat="28.9769" lon="-13.81398">
        <ele>88.2</ele>
        <time>2021-07-04 09:01:22</time>
      </trkpt>
      <trkpt lat="28.97693" lon="-13.81404">
        <ele>87.8</ele>
        <time>2021-07-04 09:01:23</time>
      </trkpt>
      <trkpt lat="28.97696" lon="-13.8141">
        <ele>87.8</ele>
        <time>2021-07-04 09:01:24</time>
      </trkpt>
      <trkpt lat="28.977" lon="-13.81416">
        <ele>87.8</ele>
        <time>2021-07-04 09:01:25</time>
      </trkpt>
      <trkpt lat="28.97703" lon="-13.81422">
        <ele>87.8</ele>
        <time>2021-07-04 09:01:26</time>
      </trkpt>
      <trkpt lat="28.97706" lon="-13.81428">
        <ele>87.6</ele>
        <time>2021-07-04 09:01:27</time>
      </trkpt>
      <trkpt lat="28.97709" lon="-13.81434">
        <ele>87.6</ele>
        <time>2021-07-04 09:01:28</time>
      </trkpt>
      <trkpt lat="28.97713" lon="-13.81441">
        <ele>87.6</ele>
        <time>2021-07-04 09:01:29</time>
      </trkpt>
      <trkpt lat="28.97716" lon="-13.81448">
        <ele>87.4</ele>
        <time>2021-07-04 09:01:30</time>
      </trkpt>
      <trkpt lat="28.97719" lon="-13.81455">
        <ele>87.4</ele>
        <time>2021-07-04 09:01:31</time>
      </trkpt>
      <trkpt lat="28.97722" lon="-13.81463">
        <ele>87</ele>
        <time>2021-07-04 09:01:32</time>
      </trkpt>
      <trkpt lat="28.97725" lon="-13.8147">
        <ele>86.8</ele>
        <time>2021-07-04 09:01:33</time>
      </trkpt>
      <trkpt lat="28.97728" lon="-13.81478">
        <ele>86.6</ele>
        <time>2021-07-04 09:01:34</time>
      </trkpt>
      <trkpt lat="28.97732" lon="-13.81485">
        <ele>86.6</ele>
        <time>2021-07-04 09:01:35</time>
      </trkpt>
      <trkpt lat="28.97735" lon="-13.81493">
        <ele>86</ele>
        <time>2021-07-04 09:01:36</time>
      </trkpt>
      <trkpt lat="28.97739" lon="-13.81501">
        <ele>85.8</ele>
        <time>2021-07-04 09:01:37</time>
      </trkpt>
      <trkpt lat="28.97742" lon="-13.81509">
        <ele>85.4</ele>
        <time>2021-07-04 09:01:38</time>
      </trkpt>
      <trkpt lat="28.97745" lon="-13.81517">
        <ele>85</ele>
        <time>2021-07-04 09:01:39</time>
      </trkpt>
      <trkpt lat="28.97749" lon="-13.81526">
        <ele>84.6</ele>
        <time>2021-07-04 09:01:40</time>
      </trkpt>
      <trkpt lat="28.97753" lon="-13.81534">
        <ele>84</ele>
        <time>2021-07-04 09:01:41</time>
      </trkpt>
      <trkpt lat="28.97757" lon="-13.81542">
        <ele>83.6</ele>
        <time>2021-07-04 09:01:42</time>
      </trkpt>
      <trkpt lat="28.97761" lon="-13.8155">
        <ele>83</ele>
        <time>2021-07-04 09:01:43</time>
      </trkpt>
      <trkpt lat="28.97764" lon="-13.81558">
        <ele>82.4</ele>
        <time>2021-07-04 09:01:44</time>
      </trkpt>
      <trkpt lat="28.97768" lon="-13.81567">
        <ele>82</ele>
        <time>2021-07-04 09:01:45</time>
      </trkpt>
      <trkpt lat="28.97771" lon="-13.81575">
        <ele>81.4</ele>
        <time>2021-07-04 09:01:46</time>
      </trkpt>
      <trkpt lat="28.97775" lon="-13.81584">
        <ele>81</ele>
        <time>2021-07-04 09:01:47</time>
      </trkpt>
      <trkpt lat="28.97778" lon="-13.81592">
        <ele>80.6</ele>
        <time>2021-07-04 09:01:48</time>
      </trkpt>
      <trkpt lat="28.97781" lon="-13.81599">
        <ele>80.4</ele>
        <time>2021-07-04 09:01:49</time>
      </trkpt>
      <trkpt lat="28.97784" lon="-13.81608">
        <ele>80</ele>
        <time>2021-07-04 09:01:50</time>
      </trkpt>
      <trkpt lat="28.97786" lon="-13.81616">
        <ele>79.6</ele>
        <time>2021-07-04 09:01:51</time>
      </trkpt>
      <trkpt lat="28.97788" lon="-13.81625">
        <ele>79.2</ele>
        <time>2021-07-04 09:01:52</time>
      </trkpt>
      <trkpt lat="28.9779" lon="-13.81633">
        <ele>78.8</ele>
        <time>2021-07-04 09:01:53</time>
      </trkpt>
      <trkpt lat="28.97792" lon="-13.81642">
        <ele>78.2</ele>
        <time>2021-07-04 09:01:54</time>
      </trkpt>
      <trkpt lat="28.97793" lon="-13.81651">
        <ele>77.6</ele>
        <time>2021-07-04 09:01:55</time>
      </trkpt>
      <trkpt lat="28.97795" lon="-13.8166">
        <ele>77.2</ele>
        <time>2021-07-04 09:01:56</time>
      </trkpt>
      <trkpt lat="28.97796" lon="-13.81669">
        <ele>76.6</ele>
        <time>2021-07-04 09:01:57</time>
      </trkpt>
      <trkpt lat="28.97797" lon="-13.81678">
        <ele>76</ele>
        <time>2021-07-04 09:01:58</time>
      </trkpt>
      <trkpt lat="28.97798" lon="-13.81688">
        <ele>75.6</ele>
        <time>2021-07-04 09:01:59</time>
      </trkpt>
      <trkpt lat="28.97799" lon="-13.81698">
        <ele>75</ele>
        <time>2021-07-04 09:02:00</time>
      </trkpt>
      <trkpt lat="28.978" lon="-13.81708">
        <ele>74.4</ele>
        <time>2021-07-04 09:02:01</time>
      </trkpt>
      <trkpt lat="28.97801" lon="-13.81717">
        <ele>74</ele>
        <time>2021-07-04 09:02:02</time>
      </trkpt>
      <trkpt lat="28.97802" lon="-13.81727">
        <ele>73.6</ele>
        <time>2021-07-04 09:02:03</time>
      </trkpt>
      <trkpt lat="28.97803" lon="-13.81737">
        <ele>73</ele>
        <time>2021-07-04 09:02:04</time>
      </trkpt>
      <trkpt lat="28.97804" lon="-13.81747">
        <ele>72.6</ele>
        <time>2021-07-04 09:02:05</time>
      </trkpt>
      <trkpt lat="28.97805" lon="-13.81757">
        <ele>72.2</ele>
        <time>2021-07-04 09:02:06</time>
      </trkpt>
      <trkpt lat="28.97806" lon="-13.81767">
        <ele>71.8</ele>
        <time>2021-07-04 09:02:07</time>
      </trkpt>
      <trkpt lat="28.97807" lon="-13.81777">
        <ele>71.2</ele>
        <time>2021-07-04 09:02:08</time>
      </trkpt>
      <trkpt lat="28.97809" lon="-13.81787">
        <ele>70.8</ele>
        <time>2021-07-04 09:02:09</time>
      </trkpt>
      <trkpt lat="28.9781" lon="-13.81796">
        <ele>70.4</ele>
        <time>2021-07-04 09:02:10</time>
      </trkpt>
      <trkpt lat="28.97812" lon="-13.81806">
        <ele>70.2</ele>
        <time>2021-07-04 09:02:11</time>
      </trkpt>
      <trkpt lat="28.97814" lon="-13.81816">
        <ele>69.8</ele>
        <time>2021-07-04 09:02:12</time>
      </trkpt>
      <trkpt lat="28.97815" lon="-13.81824">
        <ele>69.4</ele>
        <time>2021-07-04 09:02:13</time>
      </trkpt>
      <trkpt lat="28.97817" lon="-13.81834">
        <ele>69.2</ele>
        <time>2021-07-04 09:02:14</time>
      </trkpt>
      <trkpt lat="28.9782" lon="-13.81844">
        <ele>68.8</ele>
        <time>2021-07-04 09:02:15</time>
      </trkpt>
      <trkpt lat="28.97823" lon="-13.81853">
        <ele>68.4</ele>
        <time>2021-07-04 09:02:16</time>
      </trkpt>
      <trkpt lat="28.97826" lon="-13.81862">
        <ele>68.2</ele>
        <time>2021-07-04 09:02:17</time>
      </trkpt>
      <trkpt lat="28.97829" lon="-13.81871">
        <ele>68.2</ele>
        <time>2021-07-04 09:02:18</time>
      </trkpt>
      <trkpt lat="28.97832" lon="-13.8188">
        <ele>68</ele>
        <time>2021-07-04 09:02:19</time>
      </trkpt>
      <trkpt lat="28.97835" lon="-13.81889">
        <ele>68</ele>
        <time>2021-07-04 09:02:20</time>
      </trkpt>
      <trkpt lat="28.97838" lon="-13.81897">
        <ele>68</ele>
        <time>2021-07-04 09:02:21</time>
      </trkpt>
      <trkpt lat="28.97841" lon="-13.81906">
        <ele>68</ele>
        <time>2021-07-04 09:02:22</time>
      </trkpt>
      <trkpt lat="28.97844" lon="-13.81915">
        <ele>67.6</ele>
        <time>2021-07-04 09:02:23</time>
      </trkpt>
      <trkpt lat="28.97847" lon="-13.81924">
        <ele>67.6</ele>
        <time>2021-07-04 09:02:24</time>
      </trkpt>
      <trkpt lat="28.9785" lon="-13.81932">
        <ele>67.4</ele>
        <time>2021-07-04 09:02:25</time>
      </trkpt>
      <trkpt lat="28.97853" lon="-13.8194">
        <ele>67.4</ele>
        <time>2021-07-04 09:02:26</time>
      </trkpt>
      <trkpt lat="28.97855" lon="-13.81948">
        <ele>67.2</ele>
        <time>2021-07-04 09:02:27</time>
      </trkpt>
      <trkpt lat="28.97858" lon="-13.81956">
        <ele>67.2</ele>
        <time>2021-07-04 09:02:28</time>
      </trkpt>
      <trkpt lat="28.97861" lon="-13.81963">
        <ele>66.8</ele>
        <time>2021-07-04 09:02:29</time>
      </trkpt>
      <trkpt lat="28.97863" lon="-13.81971">
        <ele>66.8</ele>
        <time>2021-07-04 09:02:30</time>
      </trkpt>
      <trkpt lat="28.97866" lon="-13.81979">
        <ele>66.4</ele>
        <time>2021-07-04 09:02:31</time>
      </trkpt>
      <trkpt lat="28.97869" lon="-13.81987">
        <ele>66.4</ele>
        <time>2021-07-04 09:02:32</time>
      </trkpt>
      <trkpt lat="28.97872" lon="-13.81994">
        <ele>66</ele>
        <time>2021-07-04 09:02:33</time>
      </trkpt>
      <trkpt lat="28.97875" lon="-13.82001">
        <ele>66</ele>
        <time>2021-07-04 09:02:34</time>
      </trkpt>
      <trkpt lat="28.97877" lon="-13.82009">
        <ele>65.8</ele>
        <time>2021-07-04 09:02:35</time>
      </trkpt>
      <trkpt lat="28.9788" lon="-13.82017">
        <ele>65.6</ele>
        <time>2021-07-04 09:02:36</time>
      </trkpt>
      <trkpt lat="28.97882" lon="-13.82025">
        <ele>65.6</ele>
        <time>2021-07-04 09:02:37</time>
      </trkpt>
      <trkpt lat="28.97884" lon="-13.82032">
        <ele>65</ele>
        <time>2021-07-04 09:02:38</time>
      </trkpt>
      <trkpt lat="28.97886" lon="-13.82039">
        <ele>64.8</ele>
        <time>2021-07-04 09:02:39</time>
      </trkpt>
      <trkpt lat="28.97887" lon="-13.82045">
        <ele>64.6</ele>
        <time>2021-07-04 09:02:40</time>
      </trkpt>
      <trkpt lat="28.97888" lon="-13.82051">
        <ele>64.2</ele>
        <time>2021-07-04 09:02:41</time>
      </trkpt>
      <trkpt lat="28.97888" lon="-13.82056">
        <ele>64</ele>
        <time>2021-07-04 09:02:42</time>
      </trkpt>
      <trkpt lat="28.97887" lon="-13.82061">
        <ele>63.8</ele>
        <time>2021-07-04 09:02:43</time>
      </trkpt>
      <trkpt lat="28.97885" lon="-13.82066">
        <ele>63.4</ele>
        <time>2021-07-04 09:02:44</time>
      </trkpt>
      <trkpt lat="28.97881" lon="-13.82069">
        <ele>63.2</ele>
        <time>2021-07-04 09:02:45</time>
      </trkpt>
      <trkpt lat="28.97876" lon="-13.8207">
        <ele>63.2</ele>
        <time>2021-07-04 09:02:46</time>
      </trkpt>
      <trkpt lat="28.97871" lon="-13.82072">
        <ele>63</ele>
        <time>2021-07-04 09:02:47</time>
      </trkpt>
      <trkpt lat="28.97866" lon="-13.82075">
        <ele>63</ele>
        <time>2021-07-04 09:02:48</time>
      </trkpt>
      <trkpt lat="28.97861" lon="-13.82077">
        <ele>62.6</ele>
        <time>2021-07-04 09:02:49</time>
      </trkpt>
      <trkpt lat="28.97856" lon="-13.82082">
        <ele>62.6</ele>
        <time>2021-07-04 09:02:50</time>
      </trkpt>
      <trkpt lat="28.97851" lon="-13.82086">
        <ele>62.2</ele>
        <time>2021-07-04 09:02:51</time>
      </trkpt>
      <trkpt lat="28.97846" lon="-13.82091">
        <ele>62</ele>
        <time>2021-07-04 09:02:52</time>
      </trkpt>
      <trkpt lat="28.97842" lon="-13.82096">
        <ele>62</ele>
        <time>2021-07-04 09:02:53</time>
      </trkpt>
      <trkpt lat="28.97837" lon="-13.82102">
        <ele>61.6</ele>
        <time>2021-07-04 09:02:54</time>
      </trkpt>
      <trkpt lat="28.97831" lon="-13.82107">
        <ele>61.6</ele>
        <time>2021-07-04 09:02:55</time>
      </trkpt>
      <trkpt lat="28.97827" lon="-13.82113">
        <ele>61.6</ele>
        <time>2021-07-04 09:02:56</time>
      </trkpt>
      <trkpt lat="28.97822" lon="-13.82119">
        <ele>61.4</ele>
        <time>2021-07-04 09:02:57</time>
      </trkpt>
      <trkpt lat="28.97818" lon="-13.82125">
        <ele>61.4</ele>
        <time>2021-07-04 09:02:58</time>
      </trkpt>
      <trkpt lat="28.97813" lon="-13.82131">
        <ele>61.4</ele>
        <time>2021-07-04 09:02:59</time>
      </trkpt>
      <trkpt lat="28.97808" lon="-13.82137">
        <ele>61.2</ele>
        <time>2021-07-04 09:03:00</time>
      </trkpt>
      <trkpt lat="28.97803" lon="-13.82143">
        <ele>61.2</ele>
        <time>2021-07-04 09:03:01</time>
      </trkpt>
      <trkpt lat="28.97799" lon="-13.82149">
        <ele>61</ele>
        <time>2021-07-04 09:03:02</time>
      </trkpt>
      <trkpt lat="28.97793" lon="-13.82155">
        <ele>60.8</ele>
        <time>2021-07-04 09:03:03</time>
      </trkpt>
      <trkpt lat="28.97788" lon="-13.82161">
        <ele>60.8</ele>
        <time>2021-07-04 09:03:04</time>
      </trkpt>
      <trkpt lat="28.97783" lon="-13.82168">
        <ele>60.4</ele>
        <time>2021-07-04 09:03:05</time>
      </trkpt>
      <trkpt lat="28.97777" lon="-13.82174">
        <ele>60.4</ele>
        <time>2021-07-04 09:03:06</time>
      </trkpt>
      <trkpt lat="28.97772" lon="-13.82181">
        <ele>60.2</ele>
        <time>2021-07-04 09:03:07</time>
      </trkpt>
      <trkpt lat="28.97766" lon="-13.82188">
        <ele>60.2</ele>
        <time>2021-07-04 09:03:08</time>
      </trkpt>
      <trkpt lat="28.97761" lon="-13.82194">
        <ele>59.8</ele>
        <time>2021-07-04 09:03:09</time>
      </trkpt>
      <trkpt lat="28.97755" lon="-13.82201">
        <ele>59.8</ele>
        <time>2021-07-04 09:03:10</time>
      </trkpt>
      <trkpt lat="28.9775" lon="-13.82208">
        <ele>59.6</ele>
        <time>2021-07-04 09:03:11</time>
      </trkpt>
      <trkpt lat="28.97744" lon="-13.82215">
        <ele>59.4</ele>
        <time>2021-07-04 09:03:12</time>
      </trkpt>
      <trkpt lat="28.97738" lon="-13.82222">
        <ele>59.2</ele>
        <time>2021-07-04 09:03:13</time>
      </trkpt>
      <trkpt lat="28.97732" lon="-13.82229">
        <ele>58.8</ele>
        <time>2021-07-04 09:03:14</time>
      </trkpt>
      <trkpt lat="28.97726" lon="-13.82237">
        <ele>58.6</ele>
        <time>2021-07-04 09:03:15</time>
      </trkpt>
      <trkpt lat="28.9772" lon="-13.82244">
        <ele>58.2</ele>
        <time>2021-07-04 09:03:16</time>
      </trkpt>
      <trkpt lat="28.97714" lon="-13.82252">
        <ele>58</ele>
        <time>2021-07-04 09:03:17</time>
      </trkpt>
      <trkpt lat="28.97709" lon="-13.82259">
        <ele>57.8</ele>
        <time>2021-07-04 09:03:18</time>
      </trkpt>
      <trkpt lat="28.97703" lon="-13.82267">
        <ele>57.6</ele>
        <time>2021-07-04 09:03:19</time>
      </trkpt>
      <trkpt lat="28.97697" lon="-13.82274">
        <ele>57.4</ele>
        <time>2021-07-04 09:03:20</time>
      </trkpt>
      <trkpt lat="28.97692" lon="-13.82282">
        <ele>57.4</ele>
        <time>2021-07-04 09:03:21</time>
      </trkpt>
      <trkpt lat="28.97688" lon="-13.82289">
        <ele>57</ele>
        <time>2021-07-04 09:03:22</time>
      </trkpt>
      <trkpt lat="28.97683" lon="-13.82298">
        <ele>57</ele>
        <time>2021-07-04 09:03:23</time>
      </trkpt>
      <trkpt lat="28.97678" lon="-13.82306">
        <ele>56.6</ele>
        <time>2021-07-04 09:03:24</time>
      </trkpt>
      <trkpt lat="28.97674" lon="-13.82315">
        <ele>56.6</ele>
        <time>2021-07-04 09:03:25</time>
      </trkpt>
      <trkpt lat="28.97669" lon="-13.82323">
        <ele>56.2</ele>
        <time>2021-07-04 09:03:26</time>
      </trkpt>
      <trkpt lat="28.97665" lon="-13.82331">
        <ele>56.2</ele>
        <time>2021-07-04 09:03:27</time>
      </trkpt>
      <trkpt lat="28.9766" lon="-13.8234">
        <ele>56</ele>
        <time>2021-07-04 09:03:28</time>
      </trkpt>
      <trkpt lat="28.97655" lon="-13.82349">
        <ele>56</ele>
        <time>2021-07-04 09:03:29</time>
      </trkpt>
      <trkpt lat="28.9765" lon="-13.82357">
        <ele>55.6</ele>
        <time>2021-07-04 09:03:30</time>
      </trkpt>
      <trkpt lat="28.97646" lon="-13.82366">
        <ele>55.6</ele>
        <time>2021-07-04 09:03:31</time>
      </trkpt>
      <trkpt lat="28.97642" lon="-13.82375">
        <ele>55.4</ele>
        <time>2021-07-04 09:03:32</time>
      </trkpt>
      <trkpt lat="28.97637" lon="-13.82384">
        <ele>55.2</ele>
        <time>2021-07-04 09:03:33</time>
      </trkpt>
      <trkpt lat="28.97632" lon="-13.82393">
        <ele>54.8</ele>
        <time>2021-07-04 09:03:34</time>
      </trkpt>
      <trkpt lat="28.97627" lon="-13.82402">
        <ele>54.6</ele>
        <time>2021-07-04 09:03:35</time>
      </trkpt>
      <trkpt lat="28.97622" lon="-13.82412">
        <ele>54.2</ele>
        <time>2021-07-04 09:03:36</time>
      </trkpt>
      <trkpt lat="28.97617" lon="-13.82421">
        <ele>54</ele>
        <time>2021-07-04 09:03:37</time>
      </trkpt>
      <trkpt lat="28.97612" lon="-13.8243">
        <ele>53.6</ele>
        <time>2021-07-04 09:03:38</time>
      </trkpt>
      <trkpt lat="28.97606" lon="-13.82439">
        <ele>53.2</ele>
        <time>2021-07-04 09:03:39</time>
      </trkpt>
      <trkpt lat="28.97601" lon="-13.82448">
        <ele>52.8</ele>
        <time>2021-07-04 09:03:40</time>
      </trkpt>
      <trkpt lat="28.97595" lon="-13.82457">
        <ele>52.6</ele>
        <time>2021-07-04 09:03:41</time>
      </trkpt>
      <trkpt lat="28.97589" lon="-13.82466">
        <ele>52.4</ele>
        <time>2021-07-04 09:03:42</time>
      </trkpt>
      <trkpt lat="28.97583" lon="-13.82474">
        <ele>52.2</ele>
        <time>2021-07-04 09:03:43</time>
      </trkpt>
      <trkpt lat="28.97576" lon="-13.82483">
        <ele>51.8</ele>
        <time>2021-07-04 09:03:44</time>
      </trkpt>
      <trkpt lat="28.9757" lon="-13.82492">
        <ele>51.4</ele>
        <time>2021-07-04 09:03:45</time>
      </trkpt>
      <trkpt lat="28.97564" lon="-13.825">
        <ele>51.2</ele>
        <time>2021-07-04 09:03:46</time>
      </trkpt>
      <trkpt lat="28.97557" lon="-13.82509">
        <ele>51</ele>
        <time>2021-07-04 09:03:47</time>
      </trkpt>
      <trkpt lat="28.9755" lon="-13.82518">
        <ele>50.6</ele>
        <time>2021-07-04 09:03:48</time>
      </trkpt>
      <trkpt lat="28.97543" lon="-13.82527">
        <ele>50.4</ele>
        <time>2021-07-04 09:03:49</time>
      </trkpt>
      <trkpt lat="28.97536" lon="-13.82536">
        <ele>50.2</ele>
        <time>2021-07-04 09:03:50</time>
      </trkpt>
      <trkpt lat="28.97529" lon="-13.82546">
        <ele>49.8</ele>
        <time>2021-07-04 09:03:51</time>
      </trkpt>
      <trkpt lat="28.97522" lon="-13.82555">
        <ele>49.6</ele>
        <time>2021-07-04 09:03:52</time>
      </trkpt>
      <trkpt lat="28.97515" lon="-13.82564">
        <ele>49.6</ele>
        <time>2021-07-04 09:03:53</time>
      </trkpt>
      <trkpt lat="28.97508" lon="-13.82574">
        <ele>49.2</ele>
        <time>2021-07-04 09:03:54</time>
      </trkpt>
      <trkpt lat="28.975" lon="-13.82583">
        <ele>48.6</ele>
        <time>2021-07-04 09:03:55</time>
      </trkpt>
      <trkpt lat="28.97492" lon="-13.82594">
        <ele>48.2</ele>
        <time>2021-07-04 09:03:56</time>
      </trkpt>
      <trkpt lat="28.97484" lon="-13.82604">
        <ele>47.8</ele>
        <time>2021-07-04 09:03:57</time>
      </trkpt>
      <trkpt lat="28.97476" lon="-13.82614">
        <ele>47.4</ele>
        <time>2021-07-04 09:03:58</time>
      </trkpt>
      <trkpt lat="28.97469" lon="-13.82623">
        <ele>47</ele>
        <time>2021-07-04 09:03:59</time>
      </trkpt>
      <trkpt lat="28.97461" lon="-13.82633">
        <ele>46.6</ele>
        <time>2021-07-04 09:04:00</time>
      </trkpt>
      <trkpt lat="28.97453" lon="-13.82643">
        <ele>46.2</ele>
        <time>2021-07-04 09:04:01</time>
      </trkpt>
      <trkpt lat="28.97446" lon="-13.82653">
        <ele>45.8</ele>
        <time>2021-07-04 09:04:02</time>
      </trkpt>
      <trkpt lat="28.97438" lon="-13.82662">
        <ele>45.6</ele>
        <time>2021-07-04 09:04:03</time>
      </trkpt>
      <trkpt lat="28.97431" lon="-13.82672">
        <ele>45.2</ele>
        <time>2021-07-04 09:04:04</time>
      </trkpt>
      <trkpt lat="28.97423" lon="-13.82682">
        <ele>44.8</ele>
        <time>2021-07-04 09:04:05</time>
      </trkpt>
      <trkpt lat="28.97416" lon="-13.82692">
        <ele>44.6</ele>
        <time>2021-07-04 09:04:06</time>
      </trkpt>
      <trkpt lat="28.97409" lon="-13.82702">
        <ele>44.2</ele>
        <time>2021-07-04 09:04:07</time>
      </trkpt>
      <trkpt lat="28.97402" lon="-13.82711">
        <ele>44</ele>
        <time>2021-07-04 09:04:08</time>
      </trkpt>
      <trkpt lat="28.97395" lon="-13.82721">
        <ele>43.8</ele>
        <time>2021-07-04 09:04:09</time>
      </trkpt>
      <trkpt lat="28.97387" lon="-13.8273">
        <ele>43.4</ele>
        <time>2021-07-04 09:04:10</time>
      </trkpt>
      <trkpt lat="28.9738" lon="-13.82739">
        <ele>43.2</ele>
        <time>2021-07-04 09:04:11</time>
      </trkpt>
      <trkpt lat="28.97374" lon="-13.82748">
        <ele>42.8</ele>
        <time>2021-07-04 09:04:12</time>
      </trkpt>
      <trkpt lat="28.97367" lon="-13.82757">
        <ele>42.6</ele>
        <time>2021-07-04 09:04:13</time>
      </trkpt>
      <trkpt lat="28.9736" lon="-13.82765">
        <ele>42.4</ele>
        <time>2021-07-04 09:04:14</time>
      </trkpt>
      <trkpt lat="28.97353" lon="-13.82774">
        <ele>42.2</ele>
        <time>2021-07-04 09:04:15</time>
      </trkpt>
      <trkpt lat="28.97347" lon="-13.82783">
        <ele>42</ele>
        <time>2021-07-04 09:04:16</time>
      </trkpt>
      <trkpt lat="28.9734" lon="-13.82792">
        <ele>41.6</ele>
        <time>2021-07-04 09:04:17</time>
      </trkpt>
      <trkpt lat="28.97334" lon="-13.82802">
        <ele>41.6</ele>
        <time>2021-07-04 09:04:18</time>
      </trkpt>
      <trkpt lat="28.97329" lon="-13.82811">
        <ele>41.4</ele>
        <time>2021-07-04 09:04:19</time>
      </trkpt>
      <trkpt lat="28.97324" lon="-13.82821">
        <ele>41.2</ele>
        <time>2021-07-04 09:04:20</time>
      </trkpt>
      <trkpt lat="28.9732" lon="-13.8283">
        <ele>41.2</ele>
        <time>2021-07-04 09:04:21</time>
      </trkpt>
      <trkpt lat="28.97316" lon="-13.8284">
        <ele>40.8</ele>
        <time>2021-07-04 09:04:22</time>
      </trkpt>
      <trkpt lat="28.97311" lon="-13.8285">
        <ele>40.8</ele>
        <time>2021-07-04 09:04:23</time>
      </trkpt>
      <trkpt lat="28.97307" lon="-13.82859">
        <ele>40.8</ele>
        <time>2021-07-04 09:04:24</time>
      </trkpt>
      <trkpt lat="28.97303" lon="-13.82868">
        <ele>40.8</ele>
        <time>2021-07-04 09:04:25</time>
      </trkpt>
      <trkpt lat="28.97299" lon="-13.82877">
        <ele>40.8</ele>
        <time>2021-07-04 09:04:26</time>
      </trkpt>
      <trkpt lat="28.97295" lon="-13.82885">
        <ele>40.8</ele>
        <time>2021-07-04 09:04:27</time>
      </trkpt>
      <trkpt lat="28.97292" lon="-13.82894">
        <ele>40.8</ele>
        <time>2021-07-04 09:04:28</time>
      </trkpt>
      <trkpt lat="28.97288" lon="-13.82902">
        <ele>40.8</ele>
        <time>2021-07-04 09:04:29</time>
      </trkpt>
      <trkpt lat="28.97285" lon="-13.8291">
        <ele>40.8</ele>
        <time>2021-07-04 09:04:30</time>
      </trkpt>
      <trkpt lat="28.97281" lon="-13.82918">
        <ele>40.6</ele>
        <time>2021-07-04 09:04:31</time>
      </trkpt>
      <trkpt lat="28.97278" lon="-13.82925">
        <ele>40.6</ele>
        <time>2021-07-04 09:04:32</time>
      </trkpt>
      <trkpt lat="28.97275" lon="-13.82932">
        <ele>40.4</ele>
        <time>2021-07-04 09:04:33</time>
      </trkpt>
      <trkpt lat="28.97272" lon="-13.82939">
        <ele>40.4</ele>
        <time>2021-07-04 09:04:34</time>
      </trkpt>
      <trkpt lat="28.97269" lon="-13.82945">
        <ele>39.8</ele>
        <time>2021-07-04 09:04:35</time>
      </trkpt>
      <trkpt lat="28.97266" lon="-13.82951">
        <ele>39.6</ele>
        <time>2021-07-04 09:04:36</time>
      </trkpt>
      <trkpt lat="28.97264" lon="-13.82958">
        <ele>39.4</ele>
        <time>2021-07-04 09:04:37</time>
      </trkpt>
      <trkpt lat="28.97261" lon="-13.82964">
        <ele>39.2</ele>
        <time>2021-07-04 09:04:38</time>
      </trkpt>
      <trkpt lat="28.97258" lon="-13.8297">
        <ele>39</ele>
        <time>2021-07-04 09:04:39</time>
      </trkpt>
      <trkpt lat="28.97256" lon="-13.82976">
        <ele>39</ele>
        <time>2021-07-04 09:04:40</time>
      </trkpt>
      <trkpt lat="28.97253" lon="-13.82981">
        <ele>38.6</ele>
        <time>2021-07-04 09:04:41</time>
      </trkpt>
      <trkpt lat="28.97251" lon="-13.82987">
        <ele>38.6</ele>
        <time>2021-07-04 09:04:42</time>
      </trkpt>
      <trkpt lat="28.97248" lon="-13.82993">
        <ele>38.6</ele>
        <time>2021-07-04 09:04:43</time>
      </trkpt>
      <trkpt lat="28.97246" lon="-13.82998">
        <ele>38.6</ele>
        <time>2021-07-04 09:04:44</time>
      </trkpt>
      <trkpt lat="28.97244" lon="-13.83004">
        <ele>38.6</ele>
        <time>2021-07-04 09:04:45</time>
      </trkpt>
      <trkpt lat="28.97241" lon="-13.8301">
        <ele>38.6</ele>
        <time>2021-07-04 09:04:46</time>
      </trkpt>
      <trkpt lat="28.97239" lon="-13.83015">
        <ele>38.6</ele>
        <time>2021-07-04 09:04:47</time>
      </trkpt>
      <trkpt lat="28.97236" lon="-13.83021">
        <ele>38.6</ele>
        <time>2021-07-04 09:04:48</time>
      </trkpt>
      <trkpt lat="28.97234" lon="-13.83026">
        <ele>38.6</ele>
        <time>2021-07-04 09:04:49</time>
      </trkpt>
      <trkpt lat="28.97231" lon="-13.83031">
        <ele>38.4</ele>
        <time>2021-07-04 09:04:50</time>
      </trkpt>
      <trkpt lat="28.97228" lon="-13.83036">
        <ele>38.4</ele>
        <time>2021-07-04 09:04:51</time>
      </trkpt>
      <trkpt lat="28.97226" lon="-13.83041">
        <ele>38</ele>
        <time>2021-07-04 09:04:52</time>
      </trkpt>
      <trkpt lat="28.97224" lon="-13.83045">
        <ele>37.8</ele>
        <time>2021-07-04 09:04:53</time>
      </trkpt>
      <trkpt lat="28.97221" lon="-13.8305">
        <ele>37.4</ele>
        <time>2021-07-04 09:04:54</time>
      </trkpt>
      <trkpt lat="28.97218" lon="-13.83054">
        <ele>37</ele>
        <time>2021-07-04 09:04:55</time>
      </trkpt>
      <trkpt lat="28.97215" lon="-13.83059">
        <ele>36.6</ele>
        <time>2021-07-04 09:04:56</time>
      </trkpt>
      <trkpt lat="28.97211" lon="-13.83062">
        <ele>36.2</ele>
        <time>2021-07-04 09:04:57</time>
      </trkpt>
      <trkpt lat="28.97208" lon="-13.83065">
        <ele>36</ele>
        <time>2021-07-04 09:04:58</time>
      </trkpt>
      <trkpt lat="28.97205" lon="-13.83068">
        <ele>35.6</ele>
        <time>2021-07-04 09:04:59</time>
      </trkpt>
      <trkpt lat="28.97202" lon="-13.83071">
        <ele>35.2</ele>
        <time>2021-07-04 09:05:00</time>
      </trkpt>
      <trkpt lat="28.97199" lon="-13.83074">
        <ele>34.8</ele>
        <time>2021-07-04 09:05:01</time>
      </trkpt>
      <trkpt lat="28.97195" lon="-13.83076">
        <ele>34.4</ele>
        <time>2021-07-04 09:05:02</time>
      </trkpt>
      <trkpt lat="28.97192" lon="-13.83078">
        <ele>34</ele>
        <time>2021-07-04 09:05:03</time>
      </trkpt>
      <trkpt lat="28.9719" lon="-13.83079">
        <ele>33.6</ele>
        <time>2021-07-04 09:05:04</time>
      </trkpt>
      <trkpt lat="28.97188" lon="-13.83081">
        <ele>33.2</ele>
        <time>2021-07-04 09:05:05</time>
      </trkpt>
      <trkpt lat="28.97187" lon="-13.83082">
        <ele>32.8</ele>
        <time>2021-07-04 09:05:06</time>
      </trkpt>
      <trkpt lat="28.97186" lon="-13.83083">
        <ele>32.4</ele>
        <time>2021-07-04 09:05:07</time>
      </trkpt>
      <trkpt lat="28.97186" lon="-13.83086">
        <ele>32</ele>
        <time>2021-07-04 09:05:08</time>
      </trkpt>
      <trkpt lat="28.97188" lon="-13.83088">
        <ele>31.8</ele>
        <time>2021-07-04 09:05:09</time>
      </trkpt>
      <trkpt lat="28.9719" lon="-13.83089">
        <ele>31.4</ele>
        <time>2021-07-04 09:05:10</time>
      </trkpt>
      <trkpt lat="28.97192" lon="-13.8309">
        <ele>31.2</ele>
        <time>2021-07-04 09:05:11</time>
      </trkpt>
      <trkpt lat="28.97194" lon="-13.83091">
        <ele>30.8</ele>
        <time>2021-07-04 09:05:12</time>
      </trkpt>
      <trkpt lat="28.97197" lon="-13.83092">
        <ele>30.6</ele>
        <time>2021-07-04 09:05:13</time>
      </trkpt>
      <trkpt lat="28.972" lon="-13.83093">
        <ele>30.6</ele>
        <time>2021-07-04 09:05:14</time>
      </trkpt>
      <trkpt lat="28.97203" lon="-13.83094">
        <ele>30.4</ele>
        <time>2021-07-04 09:05:15</time>
      </trkpt>
      <trkpt lat="28.97206" lon="-13.83095">
        <ele>30.4</ele>
        <time>2021-07-04 09:05:16</time>
      </trkpt>
      <trkpt lat="28.97209" lon="-13.83096">
        <ele>30.4</ele>
        <time>2021-07-04 09:05:17</time>
      </trkpt>
      <trkpt lat="28.97212" lon="-13.83097">
        <ele>30</ele>
        <time>2021-07-04 09:05:18</time>
      </trkpt>
      <trkpt lat="28.97215" lon="-13.83098">
        <ele>30</ele>
        <time>2021-07-04 09:05:19</time>
      </trkpt>
      <trkpt lat="28.97219" lon="-13.83099">
        <ele>30</ele>
        <time>2021-07-04 09:05:20</time>
      </trkpt>
      <trkpt lat="28.97221" lon="-13.831">
        <ele>30</ele>
        <time>2021-07-04 09:05:21</time>
      </trkpt>
      <trkpt lat="28.97222" lon="-13.831">
        <ele>30</ele>
        <time>2021-07-04 09:05:22</time>
      </trkpt>
      <trkpt lat="28.97222" lon="-13.831">
        <ele>30</ele>
        <time>2021-07-04 09:05:23</time>
      </trkpt>
      <trkpt lat="28.97222" lon="-13.83099">
        <ele>29.8</ele>
        <time>2021-07-04 09:05:24</time>
      </trkpt>
      <trkpt lat="28.97222" lon="-13.83099">
        <ele>29.8</ele>
        <time>2021-07-04 09:05:25</time>
      </trkpt>
      <trkpt lat="28.97224" lon="-13.83099">
        <ele>29.6</ele>
        <time>2021-07-04 09:05:59</time>
      </trkpt>
      <trkpt lat="28.97227" lon="-13.831">
        <ele>29.6</ele>
        <time>2021-07-04 09:06:00</time>
      </trkpt>
      <trkpt lat="28.9723" lon="-13.83102">
        <ele>29.6</ele>
        <time>2021-07-04 09:06:01</time>
      </trkpt>
      <trkpt lat="28.97233" lon="-13.83103">
        <ele>29.6</ele>
        <time>2021-07-04 09:06:02</time>
      </trkpt>
      <trkpt lat="28.97236" lon="-13.83105">
        <ele>29.6</ele>
        <time>2021-07-04 09:06:03</time>
      </trkpt>
      <trkpt lat="28.97241" lon="-13.83106">
        <ele>29.6</ele>
        <time>2021-07-04 09:06:04</time>
      </trkpt>
      <trkpt lat="28.97245" lon="-13.83108">
        <ele>29.2</ele>
        <time>2021-07-04 09:06:05</time>
      </trkpt>
      <trkpt lat="28.9725" lon="-13.83109">
        <ele>29.2</ele>
        <time>2021-07-04 09:06:06</time>
      </trkpt>
      <trkpt lat="28.97256" lon="-13.83111">
        <ele>29</ele>
        <time>2021-07-04 09:06:07</time>
      </trkpt>
      <trkpt lat="28.97261" lon="-13.83113">
        <ele>29</ele>
        <time>2021-07-04 09:06:08</time>
      </trkpt>
      <trkpt lat="28.97267" lon="-13.83115">
        <ele>29</ele>
        <time>2021-07-04 09:06:09</time>
      </trkpt>
      <trkpt lat="28.97272" lon="-13.83117">
        <ele>29</ele>
        <time>2021-07-04 09:06:10</time>
      </trkpt>
      <trkpt lat="28.97278" lon="-13.83119">
        <ele>28.6</ele>
        <time>2021-07-04 09:06:11</time>
      </trkpt>
      <trkpt lat="28.97284" lon="-13.8312">
        <ele>28.4</ele>
        <time>2021-07-04 09:06:12</time>
      </trkpt>
      <trkpt lat="28.9729" lon="-13.83122">
        <ele>28</ele>
        <time>2021-07-04 09:06:13</time>
      </trkpt>
      <trkpt lat="28.97295" lon="-13.83124">
        <ele>27.8</ele>
        <time>2021-07-04 09:06:14</time>
      </trkpt>
      <trkpt lat="28.973" lon="-13.83125">
        <ele>27.8</ele>
        <time>2021-07-04 09:06:15</time>
      </trkpt>
      <trkpt lat="28.97305" lon="-13.83126">
        <ele>27.4</ele>
        <time>2021-07-04 09:06:16</time>
      </trkpt>
      <trkpt lat="28.9731" lon="-13.83127">
        <ele>27</ele>
        <time>2021-07-04 09:06:17</time>
      </trkpt>
      <trkpt lat="28.97314" lon="-13.83128">
        <ele>26.8</ele>
        <time>2021-07-04 09:06:18</time>
      </trkpt>
      <trkpt lat="28.97319" lon="-13.8313">
        <ele>26.6</ele>
        <time>2021-07-04 09:06:19</time>
      </trkpt>
      <trkpt lat="28.97323" lon="-13.83132">
        <ele>26.2</ele>
        <time>2021-07-04 09:06:20</time>
      </trkpt>
      <trkpt lat="28.97328" lon="-13.83135">
        <ele>26</ele>
        <time>2021-07-04 09:06:21</time>
      </trkpt>
      <trkpt lat="28.97333" lon="-13.83138">
        <ele>25.8</ele>
        <time>2021-07-04 09:06:22</time>
      </trkpt>
      <trkpt lat="28.97337" lon="-13.83141">
        <ele>25.6</ele>
        <time>2021-07-04 09:06:23</time>
      </trkpt>
      <trkpt lat="28.97341" lon="-13.83142">
        <ele>25.4</ele>
        <time>2021-07-04 09:06:24</time>
      </trkpt>
      <trkpt lat="28.97346" lon="-13.83144">
        <ele>25</ele>
        <time>2021-07-04 09:06:25</time>
      </trkpt>
      <trkpt lat="28.9735" lon="-13.83146">
        <ele>24.8</ele>
        <time>2021-07-04 09:06:26</time>
      </trkpt>
      <trkpt lat="28.97353" lon="-13.83147">
        <ele>24.8</ele>
        <time>2021-07-04 09:06:27</time>
      </trkpt>
      <trkpt lat="28.97357" lon="-13.83149">
        <ele>24.4</ele>
        <time>2021-07-04 09:06:28</time>
      </trkpt>
      <trkpt lat="28.97361" lon="-13.8315">
        <ele>24.2</ele>
        <time>2021-07-04 09:06:29</time>
      </trkpt>
      <trkpt lat="28.97364" lon="-13.83151">
        <ele>23.8</ele>
        <time>2021-07-04 09:06:30</time>
      </trkpt>
      <trkpt lat="28.97366" lon="-13.83152">
        <ele>23.6</ele>
        <time>2021-07-04 09:06:31</time>
      </trkpt>
      <trkpt lat="28.97369" lon="-13.83152">
        <ele>23.4</ele>
        <time>2021-07-04 09:06:32</time>
      </trkpt>
      <trkpt lat="28.97371" lon="-13.83152">
        <ele>23.2</ele>
        <time>2021-07-04 09:06:33</time>
      </trkpt>
      <trkpt lat="28.97374" lon="-13.83152">
        <ele>23</ele>
        <time>2021-07-04 09:06:34</time>
      </trkpt>
      <trkpt lat="28.97377" lon="-13.83151">
        <ele>22.6</ele>
        <time>2021-07-04 09:06:35</time>
      </trkpt>
      <trkpt lat="28.97379" lon="-13.83152">
        <ele>22.4</ele>
        <time>2021-07-04 09:06:36</time>
      </trkpt>
      <trkpt lat="28.97381" lon="-13.83153">
        <ele>22.2</ele>
        <time>2021-07-04 09:06:37</time>
      </trkpt>
      <trkpt lat="28.97383" lon="-13.83154">
        <ele>22.2</ele>
        <time>2021-07-04 09:06:38</time>
      </trkpt>
      <trkpt lat="28.97384" lon="-13.83155">
        <ele>22.2</ele>
        <time>2021-07-04 09:06:39</time>
      </trkpt>
      <trkpt lat="28.97386" lon="-13.83156">
        <ele>21.8</ele>
        <time>2021-07-04 09:06:40</time>
      </trkpt>
      <trkpt lat="28.97387" lon="-13.83157">
        <ele>21.8</ele>
        <time>2021-07-04 09:06:41</time>
      </trkpt>
      <trkpt lat="28.97388" lon="-13.83157">
        <ele>21.4</ele>
        <time>2021-07-04 09:06:42</time>
      </trkpt>
      <trkpt lat="28.97389" lon="-13.83157">
        <ele>21.4</ele>
        <time>2021-07-04 09:06:43</time>
      </trkpt>
      <trkpt lat="28.9739" lon="-13.83156">
        <ele>21.2</ele>
        <time>2021-07-04 09:06:44</time>
      </trkpt>
      <trkpt lat="28.9739" lon="-13.83155">
        <ele>21.2</ele>
        <time>2021-07-04 09:06:45</time>
      </trkpt>
      <trkpt lat="28.97389" lon="-13.83155">
        <ele>20.8</ele>
        <time>2021-07-04 09:06:46</time>
      </trkpt>
      <trkpt lat="28.97389" lon="-13.83154">
        <ele>20.8</ele>
        <time>2021-07-04 09:06:47</time>
      </trkpt>
      <trkpt lat="28.97388" lon="-13.83154">
        <ele>20.8</ele>
        <time>2021-07-04 09:06:48</time>
      </trkpt>
      <trkpt lat="28.97386" lon="-13.83153">
        <ele>20.6</ele>
        <time>2021-07-04 09:06:49</time>
      </trkpt>
      <trkpt lat="28.97385" lon="-13.83153">
        <ele>20.6</ele>
        <time>2021-07-04 09:06:50</time>
      </trkpt>
      <trkpt lat="28.97383" lon="-13.83153">
        <ele>20.6</ele>
        <time>2021-07-04 09:06:51</time>
      </trkpt>
      <trkpt lat="28.97382" lon="-13.83152">
        <ele>20.4</ele>
        <time>2021-07-04 09:06:52</time>
      </trkpt>
      <trkpt lat="28.9738" lon="-13.83152">
        <ele>20.4</ele>
        <time>2021-07-04 09:06:53</time>
      </trkpt>
      <trkpt lat="28.97379" lon="-13.83151">
        <ele>20.4</ele>
        <time>2021-07-04 09:06:54</time>
      </trkpt>
      <trkpt lat="28.97378" lon="-13.83151">
        <ele>20.4</ele>
        <time>2021-07-04 09:06:55</time>
      </trkpt>
      <trkpt lat="28.97376" lon="-13.8315">
        <ele>20.4</ele>
        <time>2021-07-04 09:06:56</time>
      </trkpt>
      <trkpt lat="28.97374" lon="-13.83151">
        <ele>20.4</ele>
        <time>2021-07-04 09:06:57</time>
      </trkpt>
      <trkpt lat="28.97373" lon="-13.83151">
        <ele>20.4</ele>
        <time>2021-07-04 09:06:58</time>
      </trkpt>
      <trkpt lat="28.97371" lon="-13.83152">
        <ele>20.4</ele>
        <time>2021-07-04 09:06:59</time>
      </trkpt>
      <trkpt lat="28.9737" lon="-13.83151">
        <ele>20.6</ele>
        <time>2021-07-04 09:07:00</time>
      </trkpt>
      <trkpt lat="28.97369" lon="-13.83151">
        <ele>20.6</ele>
        <time>2021-07-04 09:07:01</time>
      </trkpt>
      <trkpt lat="28.97367" lon="-13.8315">
        <ele>20.6</ele>
        <time>2021-07-04 09:07:02</time>
      </trkpt>
      <trkpt lat="28.97366" lon="-13.83149">
        <ele>20.6</ele>
        <time>2021-07-04 09:07:03</time>
      </trkpt>
      <trkpt lat="28.97365" lon="-13.83148">
        <ele>20.6</ele>
        <time>2021-07-04 09:07:04</time>
      </trkpt>
      <trkpt lat="28.97363" lon="-13.83148">
        <ele>20.8</ele>
        <time>2021-07-04 09:07:05</time>
      </trkpt>
      <trkpt lat="28.97362" lon="-13.83147">
        <ele>20.8</ele>
        <time>2021-07-04 09:07:06</time>
      </trkpt>
      <trkpt lat="28.97361" lon="-13.83146">
        <ele>20.8</ele>
        <time>2021-07-04 09:07:07</time>
      </trkpt>
      <trkpt lat="28.9736" lon="-13.83144">
        <ele>20.8</ele>
        <time>2021-07-04 09:07:08</time>
      </trkpt>
      <trkpt lat="28.97359" lon="-13.83142">
        <ele>20.8</ele>
        <time>2021-07-04 09:07:09</time>
      </trkpt>
      <trkpt lat="28.97359" lon="-13.83141">
        <ele>20.8</ele>
        <time>2021-07-04 09:07:10</time>
      </trkpt>
      <trkpt lat="28.97358" lon="-13.83139">
        <ele>21</ele>
        <time>2021-07-04 09:07:11</time>
      </trkpt>
      <trkpt lat="28.97357" lon="-13.83137">
        <ele>21</ele>
        <time>2021-07-04 09:07:12</time>
      </trkpt>
      <trkpt lat="28.97356" lon="-13.83135">
        <ele>21.2</ele>
        <time>2021-07-04 09:07:13</time>
      </trkpt>
      <trkpt lat="28.97354" lon="-13.83134">
        <ele>21.2</ele>
        <time>2021-07-04 09:07:14</time>
      </trkpt>
      <trkpt lat="28.97353" lon="-13.83133">
        <ele>21.6</ele>
        <time>2021-07-04 09:07:15</time>
      </trkpt>
      <trkpt lat="28.97352" lon="-13.83133">
        <ele>21.6</ele>
        <time>2021-07-04 09:07:16</time>
      </trkpt>
      <trkpt lat="28.9735" lon="-13.83134">
        <ele>21.6</ele>
        <time>2021-07-04 09:07:17</time>
      </trkpt>
      <trkpt lat="28.97348" lon="-13.83135">
        <ele>21.6</ele>
        <time>2021-07-04 09:07:18</time>
      </trkpt>
      <trkpt lat="28.97346" lon="-13.83136">
        <ele>21.8</ele>
        <time>2021-07-04 09:07:19</time>
      </trkpt>
      <trkpt lat="28.97344" lon="-13.83137">
        <ele>21.8</ele>
        <time>2021-07-04 09:07:20</time>
      </trkpt>
      <trkpt lat="28.97341" lon="-13.83137">
        <ele>21.8</ele>
        <time>2021-07-04 09:07:21</time>
      </trkpt>
      <trkpt lat="28.97339" lon="-13.83136">
        <ele>22</ele>
        <time>2021-07-04 09:07:22</time>
      </trkpt>
      <trkpt lat="28.97336" lon="-13.83136">
        <ele>22</ele>
        <time>2021-07-04 09:07:23</time>
      </trkpt>
      <trkpt lat="28.97334" lon="-13.83136">
        <ele>22</ele>
        <time>2021-07-04 09:07:24</time>
      </trkpt>
      <trkpt lat="28.97331" lon="-13.83136">
        <ele>22.2</ele>
        <time>2021-07-04 09:07:25</time>
      </trkpt>
      <trkpt lat="28.97329" lon="-13.83136">
        <ele>22.2</ele>
        <time>2021-07-04 09:07:26</time>
      </trkpt>
      <trkpt lat="28.97326" lon="-13.83136">
        <ele>22.4</ele>
        <time>2021-07-04 09:07:27</time>
      </trkpt>
      <trkpt lat="28.97323" lon="-13.83135">
        <ele>22.4</ele>
        <time>2021-07-04 09:07:28</time>
      </trkpt>
      <trkpt lat="28.9732" lon="-13.83135">
        <ele>22.6</ele>
        <time>2021-07-04 09:07:29</time>
      </trkpt>
      <trkpt lat="28.97318" lon="-13.83134">
        <ele>22.6</ele>
        <time>2021-07-04 09:07:30</time>
      </trkpt>
      <trkpt lat="28.97315" lon="-13.83133">
        <ele>23</ele>
        <time>2021-07-04 09:07:31</time>
      </trkpt>
      <trkpt lat="28.97312" lon="-13.83132">
        <ele>23</ele>
        <time>2021-07-04 09:07:32</time>
      </trkpt>
      <trkpt lat="28.9731" lon="-13.83131">
        <ele>23.2</ele>
        <time>2021-07-04 09:07:33</time>
      </trkpt>
      <trkpt lat="28.97307" lon="-13.8313">
        <ele>23.4</ele>
        <time>2021-07-04 09:07:34</time>
      </trkpt>
      <trkpt lat="28.97304" lon="-13.83129">
        <ele>23.4</ele>
        <time>2021-07-04 09:07:35</time>
      </trkpt>
      <trkpt lat="28.97302" lon="-13.83128">
        <ele>23.8</ele>
        <time>2021-07-04 09:07:36</time>
      </trkpt>
      <trkpt lat="28.97299" lon="-13.83127">
        <ele>23.8</ele>
        <time>2021-07-04 09:07:37</time>
      </trkpt>
      <trkpt lat="28.97296" lon="-13.83125">
        <ele>24.2</ele>
        <time>2021-07-04 09:07:38</time>
      </trkpt>
      <trkpt lat="28.97293" lon="-13.83124">
        <ele>24.2</ele>
        <time>2021-07-04 09:07:39</time>
      </trkpt>
      <trkpt lat="28.9729" lon="-13.83123">
        <ele>24.4</ele>
        <time>2021-07-04 09:07:40</time>
      </trkpt>
      <trkpt lat="28.97288" lon="-13.83122">
        <ele>24.6</ele>
        <time>2021-07-04 09:07:41</time>
      </trkpt>
      <trkpt lat="28.97285" lon="-13.83122">
        <ele>24.6</ele>
        <time>2021-07-04 09:07:42</time>
      </trkpt>
      <trkpt lat="28.97282" lon="-13.83121">
        <ele>24.8</ele>
        <time>2021-07-04 09:07:43</time>
      </trkpt>
      <trkpt lat="28.97279" lon="-13.8312">
        <ele>24.8</ele>
        <time>2021-07-04 09:07:44</time>
      </trkpt>
      <trkpt lat="28.97277" lon="-13.83119">
        <ele>25.2</ele>
        <time>2021-07-04 09:07:45</time>
      </trkpt>
      <trkpt lat="28.97274" lon="-13.83118">
        <ele>25.2</ele>
        <time>2021-07-04 09:07:46</time>
      </trkpt>
      <trkpt lat="28.97271" lon="-13.83116">
        <ele>25.4</ele>
        <time>2021-07-04 09:07:47</time>
      </trkpt>
      <trkpt lat="28.97268" lon="-13.83115">
        <ele>25.4</ele>
        <time>2021-07-04 09:07:48</time>
      </trkpt>
      <trkpt lat="28.97265" lon="-13.83114">
        <ele>25.8</ele>
        <time>2021-07-04 09:07:49</time>
      </trkpt>
      <trkpt lat="28.97263" lon="-13.83113">
        <ele>26</ele>
        <time>2021-07-04 09:07:50</time>
      </trkpt>
      <trkpt lat="28.9726" lon="-13.83112">
        <ele>26</ele>
        <time>2021-07-04 09:07:51</time>
      </trkpt>
      <trkpt lat="28.97257" lon="-13.83111">
        <ele>26.4</ele>
        <time>2021-07-04 09:07:52</time>
      </trkpt>
      <trkpt lat="28.97254" lon="-13.8311">
        <ele>26.6</ele>
        <time>2021-07-04 09:07:53</time>
      </trkpt>
      <trkpt lat="28.97252" lon="-13.83108">
        <ele>26.6</ele>
        <time>2021-07-04 09:07:54</time>
      </trkpt>
      <trkpt lat="28.97249" lon="-13.83107">
        <ele>27</ele>
        <time>2021-07-04 09:07:55</time>
      </trkpt>
      <trkpt lat="28.97246" lon="-13.83106">
        <ele>27</ele>
        <time>2021-07-04 09:07:56</time>
      </trkpt>
      <trkpt lat="28.97243" lon="-13.83106">
        <ele>27.2</ele>
        <time>2021-07-04 09:07:57</time>
      </trkpt>
      <trkpt lat="28.97241" lon="-13.83105">
        <ele>27.2</ele>
        <time>2021-07-04 09:07:58</time>
      </trkpt>
      <trkpt lat="28.97238" lon="-13.83103">
        <ele>27.6</ele>
        <time>2021-07-04 09:07:59</time>
      </trkpt>
      <trkpt lat="28.97235" lon="-13.83102">
        <ele>27.6</ele>
        <time>2021-07-04 09:08:00</time>
      </trkpt>
      <trkpt lat="28.97232" lon="-13.83102">
        <ele>28</ele>
        <time>2021-07-04 09:08:01</time>
      </trkpt>
      <trkpt lat="28.97229" lon="-13.83101">
        <ele>28</ele>
        <time>2021-07-04 09:08:02</time>
      </trkpt>
      <trkpt lat="28.97226" lon="-13.831">
        <ele>28.2</ele>
        <time>2021-07-04 09:08:03</time>
      </trkpt>
      <trkpt lat="28.97223" lon="-13.83099">
        <ele>28.2</ele>
        <time>2021-07-04 09:08:04</time>
      </trkpt>
      <trkpt lat="28.9722" lon="-13.83098">
        <ele>28.4</ele>
        <time>2021-07-04 09:08:05</time>
      </trkpt>
      <trkpt lat="28.97218" lon="-13.83097">
        <ele>28.4</ele>
        <time>2021-07-04 09:08:06</time>
      </trkpt>
      <trkpt lat="28.97215" lon="-13.83095">
        <ele>28.4</ele>
        <time>2021-07-04 09:08:07</time>
      </trkpt>
      <trkpt lat="28.97212" lon="-13.83094">
        <ele>28.8</ele>
        <time>2021-07-04 09:08:08</time>
      </trkpt>
      <trkpt lat="28.97209" lon="-13.83093">
        <ele>28.8</ele>
        <time>2021-07-04 09:08:09</time>
      </trkpt>
      <trkpt lat="28.97206" lon="-13.83092">
        <ele>29</ele>
        <time>2021-07-04 09:08:10</time>
      </trkpt>
      <trkpt lat="28.97203" lon="-13.83091">
        <ele>29</ele>
        <time>2021-07-04 09:08:11</time>
      </trkpt>
      <trkpt lat="28.972" lon="-13.8309">
        <ele>29.4</ele>
        <time>2021-07-04 09:08:12</time>
      </trkpt>
      <trkpt lat="28.97197" lon="-13.83089">
        <ele>29.4</ele>
        <time>2021-07-04 09:08:13</time>
      </trkpt>
      <trkpt lat="28.97195" lon="-13.83089">
        <ele>29.8</ele>
        <time>2021-07-04 09:08:14</time>
      </trkpt>
      <trkpt lat="28.97192" lon="-13.83088">
        <ele>30</ele>
        <time>2021-07-04 09:08:15</time>
      </trkpt>
      <trkpt lat="28.97189" lon="-13.83088">
        <ele>30.2</ele>
        <time>2021-07-04 09:08:16</time>
      </trkpt>
      <trkpt lat="28.97188" lon="-13.83087">
        <ele>30.2</ele>
        <time>2021-07-04 09:08:17</time>
      </trkpt>
      <trkpt lat="28.97186" lon="-13.83086">
        <ele>30.6</ele>
        <time>2021-07-04 09:08:18</time>
      </trkpt>
      <trkpt lat="28.97185" lon="-13.83085">
        <ele>30.6</ele>
        <time>2021-07-04 09:08:19</time>
      </trkpt>
      <trkpt lat="28.97183" lon="-13.83084">
        <ele>30.8</ele>
        <time>2021-07-04 09:08:20</time>
      </trkpt>
      <trkpt lat="28.97181" lon="-13.83084">
        <ele>30.8</ele>
        <time>2021-07-04 09:08:21</time>
      </trkpt>
      <trkpt lat="28.97179" lon="-13.83085">
        <ele>31.2</ele>
        <time>2021-07-04 09:08:22</time>
      </trkpt>
      <trkpt lat="28.97178" lon="-13.83085">
        <ele>31.2</ele>
        <time>2021-07-04 09:08:23</time>
      </trkpt>
      <trkpt lat="28.97177" lon="-13.83085">
        <ele>31.4</ele>
        <time>2021-07-04 09:08:24</time>
      </trkpt>
      <trkpt lat="28.97178" lon="-13.83086">
        <ele>31.4</ele>
        <time>2021-07-04 09:08:25</time>
      </trkpt>
      <trkpt lat="28.97178" lon="-13.83086">
        <ele>31.6</ele>
        <time>2021-07-04 09:08:26</time>
      </trkpt>
      <trkpt lat="28.97175" lon="-13.83086">
        <ele>31.2</ele>
        <time>2021-07-04 09:09:37</time>
      </trkpt>
      <trkpt lat="28.97174" lon="-13.83086">
        <ele>31.2</ele>
        <time>2021-07-04 09:09:38</time>
      </trkpt>
      <trkpt lat="28.97172" lon="-13.83086">
        <ele>31.2</ele>
        <time>2021-07-04 09:09:39</time>
      </trkpt>
      <trkpt lat="28.97169" lon="-13.83086">
        <ele>31.2</ele>
        <time>2021-07-04 09:09:40</time>
      </trkpt>
      <trkpt lat="28.97166" lon="-13.83085">
        <ele>31.2</ele>
        <time>2021-07-04 09:09:41</time>
      </trkpt>
      <trkpt lat="28.97163" lon="-13.83084">
        <ele>31.2</ele>
        <time>2021-07-04 09:09:42</time>
      </trkpt>
      <trkpt lat="28.97159" lon="-13.83083">
        <ele>31.2</ele>
        <time>2021-07-04 09:09:43</time>
      </trkpt>
      <trkpt lat="28.97155" lon="-13.83082">
        <ele>31.2</ele>
        <time>2021-07-04 09:09:44</time>
      </trkpt>
      <trkpt lat="28.97152" lon="-13.83081">
        <ele>31.2</ele>
        <time>2021-07-04 09:09:45</time>
      </trkpt>
      <trkpt lat="28.97147" lon="-13.8308">
        <ele>31.2</ele>
        <time>2021-07-04 09:09:46</time>
      </trkpt>
      <trkpt lat="28.97143" lon="-13.83079">
        <ele>31.2</ele>
        <time>2021-07-04 09:09:47</time>
      </trkpt>
      <trkpt lat="28.97139" lon="-13.83078">
        <ele>31.2</ele>
        <time>2021-07-04 09:09:48</time>
      </trkpt>
      <trkpt lat="28.97135" lon="-13.83077">
        <ele>31.2</ele>
        <time>2021-07-04 09:09:49</time>
      </trkpt>
      <trkpt lat="28.97131" lon="-13.83077">
        <ele>31.2</ele>
        <time>2021-07-04 09:09:50</time>
      </trkpt>
      <trkpt lat="28.97126" lon="-13.83076">
        <ele>31.2</ele>
        <time>2021-07-04 09:09:51</time>
      </trkpt>
      <trkpt lat="28.97122" lon="-13.83074">
        <ele>31.2</ele>
        <time>2021-07-04 09:09:52</time>
      </trkpt>
      <trkpt lat="28.97117" lon="-13.83073">
        <ele>31</ele>
        <time>2021-07-04 09:09:53</time>
      </trkpt>
      <trkpt lat="28.97112" lon="-13.83072">
        <ele>31</ele>
        <time>2021-07-04 09:09:54</time>
      </trkpt>
      <trkpt lat="28.97107" lon="-13.83071">
        <ele>31</ele>
        <time>2021-07-04 09:09:55</time>
      </trkpt>
      <trkpt lat="28.97103" lon="-13.8307">
        <ele>31</ele>
        <time>2021-07-04 09:09:56</time>
      </trkpt>
      <trkpt lat="28.97098" lon="-13.83069">
        <ele>30.8</ele>
        <time>2021-07-04 09:09:57</time>
      </trkpt>
      <trkpt lat="28.97093" lon="-13.83068">
        <ele>30.8</ele>
        <time>2021-07-04 09:09:58</time>
      </trkpt>
      <trkpt lat="28.97088" lon="-13.83067">
        <ele>30.8</ele>
        <time>2021-07-04 09:09:59</time>
      </trkpt>
      <trkpt lat="28.97084" lon="-13.83066">
        <ele>30.8</ele>
        <time>2021-07-04 09:10:00</time>
      </trkpt>
      <trkpt lat="28.97079" lon="-13.83065">
        <ele>30.8</ele>
        <time>2021-07-04 09:10:01</time>
      </trkpt>
      <trkpt lat="28.97073" lon="-13.83064">
        <ele>30.8</ele>
        <time>2021-07-04 09:10:02</time>
      </trkpt>
      <trkpt lat="28.97068" lon="-13.83062">
        <ele>30.8</ele>
        <time>2021-07-04 09:10:03</time>
      </trkpt>
      <trkpt lat="28.97062" lon="-13.83061">
        <ele>30.8</ele>
        <time>2021-07-04 09:10:04</time>
      </trkpt>
      <trkpt lat="28.97057" lon="-13.8306">
        <ele>30.4</ele>
        <time>2021-07-04 09:10:05</time>
      </trkpt>
      <trkpt lat="28.97051" lon="-13.83059">
        <ele>30.4</ele>
        <time>2021-07-04 09:10:06</time>
      </trkpt>
      <trkpt lat="28.97045" lon="-13.83057">
        <ele>30.4</ele>
        <time>2021-07-04 09:10:07</time>
      </trkpt>
      <trkpt lat="28.97039" lon="-13.83056">
        <ele>30.4</ele>
        <time>2021-07-04 09:10:08</time>
      </trkpt>
      <trkpt lat="28.97033" lon="-13.83055">
        <ele>30.4</ele>
        <time>2021-07-04 09:10:09</time>
      </trkpt>
      <trkpt lat="28.97026" lon="-13.83054">
        <ele>30.2</ele>
        <time>2021-07-04 09:10:10</time>
      </trkpt>
      <trkpt lat="28.9702" lon="-13.83052">
        <ele>30.2</ele>
        <time>2021-07-04 09:10:11</time>
      </trkpt>
      <trkpt lat="28.97013" lon="-13.83051">
        <ele>30.2</ele>
        <time>2021-07-04 09:10:12</time>
      </trkpt>
      <trkpt lat="28.97007" lon="-13.83049">
        <ele>30.2</ele>
        <time>2021-07-04 09:10:13</time>
      </trkpt>
      <trkpt lat="28.97" lon="-13.83048">
        <ele>30.2</ele>
        <time>2021-07-04 09:10:14</time>
      </trkpt>
      <trkpt lat="28.96993" lon="-13.83046">
        <ele>30.2</ele>
        <time>2021-07-04 09:10:15</time>
      </trkpt>
      <trkpt lat="28.96986" lon="-13.83045">
        <ele>30.2</ele>
        <time>2021-07-04 09:10:16</time>
      </trkpt>
      <trkpt lat="28.96979" lon="-13.83044">
        <ele>30</ele>
        <time>2021-07-04 09:10:17</time>
      </trkpt>
      <trkpt lat="28.96973" lon="-13.83043">
        <ele>30</ele>
        <time>2021-07-04 09:10:18</time>
      </trkpt>
      <trkpt lat="28.96966" lon="-13.83041">
        <ele>30</ele>
        <time>2021-07-04 09:10:19</time>
      </trkpt>
      <trkpt lat="28.96959" lon="-13.83039">
        <ele>30</ele>
        <time>2021-07-04 09:10:20</time>
      </trkpt>
      <trkpt lat="28.96953" lon="-13.83038">
        <ele>30</ele>
        <time>2021-07-04 09:10:21</time>
      </trkpt>
      <trkpt lat="28.96946" lon="-13.83037">
        <ele>29.8</ele>
        <time>2021-07-04 09:10:22</time>
      </trkpt>
      <trkpt lat="28.96939" lon="-13.83035">
        <ele>29.8</ele>
        <time>2021-07-04 09:10:23</time>
      </trkpt>
      <trkpt lat="28.96932" lon="-13.83033">
        <ele>29.8</ele>
        <time>2021-07-04 09:10:24</time>
      </trkpt>
      <trkpt lat="28.96925" lon="-13.83032">
        <ele>29.8</ele>
        <time>2021-07-04 09:10:25</time>
      </trkpt>
      <trkpt lat="28.96918" lon="-13.8303">
        <ele>29.8</ele>
        <time>2021-07-04 09:10:26</time>
      </trkpt>
      <trkpt lat="28.9691" lon="-13.83029">
        <ele>29.8</ele>
        <time>2021-07-04 09:10:27</time>
      </trkpt>
      <trkpt lat="28.96904" lon="-13.83028">
        <ele>29.8</ele>
        <time>2021-07-04 09:10:28</time>
      </trkpt>
      <trkpt lat="28.96897" lon="-13.83026">
        <ele>29.8</ele>
        <time>2021-07-04 09:10:29</time>
      </trkpt>
      <trkpt lat="28.9689" lon="-13.83024">
        <ele>29.8</ele>
        <time>2021-07-04 09:10:30</time>
      </trkpt>
      <trkpt lat="28.96884" lon="-13.83023">
        <ele>29.8</ele>
        <time>2021-07-04 09:10:31</time>
      </trkpt>
      <trkpt lat="28.96878" lon="-13.83022">
        <ele>29.8</ele>
        <time>2021-07-04 09:10:32</time>
      </trkpt>
      <trkpt lat="28.96871" lon="-13.83021">
        <ele>29.8</ele>
        <time>2021-07-04 09:10:33</time>
      </trkpt>
      <trkpt lat="28.96865" lon="-13.8302">
        <ele>29.8</ele>
        <time>2021-07-04 09:10:34</time>
      </trkpt>
      <trkpt lat="28.96859" lon="-13.83018">
        <ele>30</ele>
        <time>2021-07-04 09:10:35</time>
      </trkpt>
      <trkpt lat="28.96853" lon="-13.83016">
        <ele>30</ele>
        <time>2021-07-04 09:10:36</time>
      </trkpt>
      <trkpt lat="28.96847" lon="-13.83015">
        <ele>30.2</ele>
        <time>2021-07-04 09:10:37</time>
      </trkpt>
      <trkpt lat="28.96841" lon="-13.83014">
        <ele>30.2</ele>
        <time>2021-07-04 09:10:38</time>
      </trkpt>
      <trkpt lat="28.96835" lon="-13.83013">
        <ele>30.6</ele>
        <time>2021-07-04 09:10:39</time>
      </trkpt>
      <trkpt lat="28.9683" lon="-13.83012">
        <ele>30.6</ele>
        <time>2021-07-04 09:10:40</time>
      </trkpt>
      <trkpt lat="28.96825" lon="-13.8301">
        <ele>30.8</ele>
        <time>2021-07-04 09:10:41</time>
      </trkpt>
      <trkpt lat="28.96819" lon="-13.83009">
        <ele>30.8</ele>
        <time>2021-07-04 09:10:42</time>
      </trkpt>
      <trkpt lat="28.96814" lon="-13.83007">
        <ele>30.8</ele>
        <time>2021-07-04 09:10:43</time>
      </trkpt>
      <trkpt lat="28.96808" lon="-13.83006">
        <ele>31</ele>
        <time>2021-07-04 09:10:44</time>
      </trkpt>
      <trkpt lat="28.96803" lon="-13.83005">
        <ele>31</ele>
        <time>2021-07-04 09:10:45</time>
      </trkpt>
      <trkpt lat="28.96798" lon="-13.83003">
        <ele>31.2</ele>
        <time>2021-07-04 09:10:46</time>
      </trkpt>
      <trkpt lat="28.96792" lon="-13.83002">
        <ele>31.2</ele>
        <time>2021-07-04 09:10:47</time>
      </trkpt>
      <trkpt lat="28.96787" lon="-13.83001">
        <ele>31.4</ele>
        <time>2021-07-04 09:10:48</time>
      </trkpt>
      <trkpt lat="28.96782" lon="-13.83">
        <ele>31.4</ele>
        <time>2021-07-04 09:10:49</time>
      </trkpt>
      <trkpt lat="28.96776" lon="-13.82999">
        <ele>31.6</ele>
        <time>2021-07-04 09:10:50</time>
      </trkpt>
      <trkpt lat="28.9677" lon="-13.82998">
        <ele>31.6</ele>
        <time>2021-07-04 09:10:51</time>
      </trkpt>
      <trkpt lat="28.96765" lon="-13.82997">
        <ele>31.6</ele>
        <time>2021-07-04 09:10:52</time>
      </trkpt>
      <trkpt lat="28.96759" lon="-13.82996">
        <ele>32</ele>
        <time>2021-07-04 09:10:53</time>
      </trkpt>
      <trkpt lat="28.96754" lon="-13.82995">
        <ele>32</ele>
        <time>2021-07-04 09:10:54</time>
      </trkpt>
      <trkpt lat="28.96749" lon="-13.82994">
        <ele>32.2</ele>
        <time>2021-07-04 09:10:55</time>
      </trkpt>
      <trkpt lat="28.96743" lon="-13.82993">
        <ele>32.2</ele>
        <time>2021-07-04 09:10:56</time>
      </trkpt>
      <trkpt lat="28.96737" lon="-13.82992">
        <ele>32.4</ele>
        <time>2021-07-04 09:10:57</time>
      </trkpt>
      <trkpt lat="28.96732" lon="-13.82991">
        <ele>32.4</ele>
        <time>2021-07-04 09:10:58</time>
      </trkpt>
      <trkpt lat="28.96726" lon="-13.8299">
        <ele>32.4</ele>
        <time>2021-07-04 09:10:59</time>
      </trkpt>
      <trkpt lat="28.9672" lon="-13.82989">
        <ele>32.6</ele>
        <time>2021-07-04 09:11:00</time>
      </trkpt>
      <trkpt lat="28.96714" lon="-13.82988">
        <ele>32.6</ele>
        <time>2021-07-04 09:11:01</time>
      </trkpt>
      <trkpt lat="28.96708" lon="-13.82986">
        <ele>32.6</ele>
        <time>2021-07-04 09:11:02</time>
      </trkpt>
      <trkpt lat="28.96702" lon="-13.82985">
        <ele>32.6</ele>
        <time>2021-07-04 09:11:03</time>
      </trkpt>
      <trkpt lat="28.96696" lon="-13.82984">
        <ele>32.6</ele>
        <time>2021-07-04 09:11:04</time>
      </trkpt>
      <trkpt lat="28.96689" lon="-13.82983">
        <ele>32.6</ele>
        <time>2021-07-04 09:11:05</time>
      </trkpt>
      <trkpt lat="28.96683" lon="-13.82981">
        <ele>32.6</ele>
        <time>2021-07-04 09:11:06</time>
      </trkpt>
      <trkpt lat="28.96676" lon="-13.8298">
        <ele>32.4</ele>
        <time>2021-07-04 09:11:07</time>
      </trkpt>
      <trkpt lat="28.9667" lon="-13.82978">
        <ele>32.4</ele>
        <time>2021-07-04 09:11:08</time>
      </trkpt>
      <trkpt lat="28.96663" lon="-13.82977">
        <ele>32.2</ele>
        <time>2021-07-04 09:11:09</time>
      </trkpt>
      <trkpt lat="28.96656" lon="-13.82975">
        <ele>32.2</ele>
        <time>2021-07-04 09:11:10</time>
      </trkpt>
      <trkpt lat="28.9665" lon="-13.82974">
        <ele>32.2</ele>
        <time>2021-07-04 09:11:11</time>
      </trkpt>
      <trkpt lat="28.96643" lon="-13.82973">
        <ele>32.2</ele>
        <time>2021-07-04 09:11:12</time>
      </trkpt>
      <trkpt lat="28.96636" lon="-13.82972">
        <ele>31.8</ele>
        <time>2021-07-04 09:11:13</time>
      </trkpt>
      <trkpt lat="28.96629" lon="-13.8297">
        <ele>31.8</ele>
        <time>2021-07-04 09:11:14</time>
      </trkpt>
      <trkpt lat="28.96622" lon="-13.82969">
        <ele>31.8</ele>
        <time>2021-07-04 09:11:15</time>
      </trkpt>
      <trkpt lat="28.96615" lon="-13.82968">
        <ele>31.4</ele>
        <time>2021-07-04 09:11:16</time>
      </trkpt>
      <trkpt lat="28.96608" lon="-13.82966">
        <ele>31.4</ele>
        <time>2021-07-04 09:11:17</time>
      </trkpt>
      <trkpt lat="28.96601" lon="-13.82964">
        <ele>31.2</ele>
        <time>2021-07-04 09:11:18</time>
      </trkpt>
      <trkpt lat="28.96593" lon="-13.82963">
        <ele>31</ele>
        <time>2021-07-04 09:11:19</time>
      </trkpt>
      <trkpt lat="28.96586" lon="-13.82962">
        <ele>31</ele>
        <time>2021-07-04 09:11:20</time>
      </trkpt>
      <trkpt lat="28.96578" lon="-13.8296">
        <ele>30.6</ele>
        <time>2021-07-04 09:11:21</time>
      </trkpt>
      <trkpt lat="28.9657" lon="-13.82959">
        <ele>30.6</ele>
        <time>2021-07-04 09:11:22</time>
      </trkpt>
      <trkpt lat="28.96562" lon="-13.82957">
        <ele>30.2</ele>
        <time>2021-07-04 09:11:23</time>
      </trkpt>
      <trkpt lat="28.96554" lon="-13.82956">
        <ele>30.2</ele>
        <time>2021-07-04 09:11:24</time>
      </trkpt>
      <trkpt lat="28.96546" lon="-13.82954">
        <ele>29.8</ele>
        <time>2021-07-04 09:11:25</time>
      </trkpt>
      <trkpt lat="28.96537" lon="-13.82952">
        <ele>29.6</ele>
        <time>2021-07-04 09:11:26</time>
      </trkpt>
      <trkpt lat="28.96528" lon="-13.82951">
        <ele>29.2</ele>
        <time>2021-07-04 09:11:27</time>
      </trkpt>
      <trkpt lat="28.96519" lon="-13.82949">
        <ele>28.8</ele>
        <time>2021-07-04 09:11:28</time>
      </trkpt>
      <trkpt lat="28.9651" lon="-13.82947">
        <ele>28.6</ele>
        <time>2021-07-04 09:11:29</time>
      </trkpt>
      <trkpt lat="28.96502" lon="-13.82945">
        <ele>28.2</ele>
        <time>2021-07-04 09:11:30</time>
      </trkpt>
      <trkpt lat="28.96494" lon="-13.82944">
        <ele>27.8</ele>
        <time>2021-07-04 09:11:31</time>
      </trkpt>
      <trkpt lat="28.96485" lon="-13.82942">
        <ele>27.6</ele>
        <time>2021-07-04 09:11:32</time>
      </trkpt>
      <trkpt lat="28.96477" lon="-13.82941">
        <ele>27.4</ele>
        <time>2021-07-04 09:11:33</time>
      </trkpt>
      <trkpt lat="28.96469" lon="-13.82939">
        <ele>27</ele>
        <time>2021-07-04 09:11:34</time>
      </trkpt>
      <trkpt lat="28.96462" lon="-13.82938">
        <ele>27</ele>
        <time>2021-07-04 09:11:35</time>
      </trkpt>
      <trkpt lat="28.96454" lon="-13.82936">
        <ele>26.8</ele>
        <time>2021-07-04 09:11:36</time>
      </trkpt>
      <trkpt lat="28.96447" lon="-13.82935">
        <ele>26.8</ele>
        <time>2021-07-04 09:11:37</time>
      </trkpt>
      <trkpt lat="28.96439" lon="-13.82933">
        <ele>26.8</ele>
        <time>2021-07-04 09:11:38</time>
      </trkpt>
      <trkpt lat="28.96431" lon="-13.82931">
        <ele>26.4</ele>
        <time>2021-07-04 09:11:39</time>
      </trkpt>
      <trkpt lat="28.96423" lon="-13.8293">
        <ele>26.4</ele>
        <time>2021-07-04 09:11:40</time>
      </trkpt>
      <trkpt lat="28.96415" lon="-13.82928">
        <ele>26</ele>
        <time>2021-07-04 09:11:41</time>
      </trkpt>
      <trkpt lat="28.96407" lon="-13.82926">
        <ele>25.8</ele>
        <time>2021-07-04 09:11:42</time>
      </trkpt>
      <trkpt lat="28.964" lon="-13.82924">
        <ele>25.6</ele>
        <time>2021-07-04 09:11:43</time>
      </trkpt>
      <trkpt lat="28.96392" lon="-13.82923">
        <ele>25.2</ele>
        <time>2021-07-04 09:11:44</time>
      </trkpt>
      <trkpt lat="28.96385" lon="-13.82921">
        <ele>25</ele>
        <time>2021-07-04 09:11:45</time>
      </trkpt>
      <trkpt lat="28.96379" lon="-13.8292">
        <ele>24.6</ele>
        <time>2021-07-04 09:11:46</time>
      </trkpt>
      <trkpt lat="28.96374" lon="-13.82919">
        <ele>24.2</ele>
        <time>2021-07-04 09:11:47</time>
      </trkpt>
      <trkpt lat="28.9637" lon="-13.82919">
        <ele>24</ele>
        <time>2021-07-04 09:11:48</time>
      </trkpt>
      <trkpt lat="28.96368" lon="-13.82918">
        <ele>23.8</ele>
        <time>2021-07-04 09:11:49</time>
      </trkpt>
      <trkpt lat="28.96368" lon="-13.82918">
        <ele>23.4</ele>
        <time>2021-07-04 09:11:50</time>
      </trkpt>
      <trkpt lat="28.96368" lon="-13.82918">
        <ele>23.4</ele>
        <time>2021-07-04 09:11:51</time>
      </trkpt>
      <trkpt lat="28.96368" lon="-13.82918">
        <ele>23.2</ele>
        <time>2021-07-04 09:11:52</time>
      </trkpt>
      <trkpt lat="28.96369" lon="-13.82918">
        <ele>23.2</ele>
        <time>2021-07-04 09:11:53</time>
      </trkpt>
      <trkpt lat="28.96364" lon="-13.82917">
        <ele>23</ele>
        <time>2021-07-04 09:12:41</time>
      </trkpt>
      <trkpt lat="28.96362" lon="-13.82916">
        <ele>23</ele>
        <time>2021-07-04 09:12:42</time>
      </trkpt>
      <trkpt lat="28.96359" lon="-13.82916">
        <ele>23</ele>
        <time>2021-07-04 09:12:43</time>
      </trkpt>
      <trkpt lat="28.96356" lon="-13.82915">
        <ele>23</ele>
        <time>2021-07-04 09:12:44</time>
      </trkpt>
      <trkpt lat="28.96352" lon="-13.82914">
        <ele>23</ele>
        <time>2021-07-04 09:12:45</time>
      </trkpt>
      <trkpt lat="28.96349" lon="-13.82913">
        <ele>22.8</ele>
        <time>2021-07-04 09:12:46</time>
      </trkpt>
      <trkpt lat="28.96345" lon="-13.82912">
        <ele>22.8</ele>
        <time>2021-07-04 09:12:47</time>
      </trkpt>
      <trkpt lat="28.96341" lon="-13.82911">
        <ele>22.8</ele>
        <time>2021-07-04 09:12:48</time>
      </trkpt>
      <trkpt lat="28.96336" lon="-13.8291">
        <ele>22.4</ele>
        <time>2021-07-04 09:12:49</time>
      </trkpt>
      <trkpt lat="28.96331" lon="-13.82908">
        <ele>22.4</ele>
        <time>2021-07-04 09:12:50</time>
      </trkpt>
      <trkpt lat="28.96327" lon="-13.82907">
        <ele>22.2</ele>
        <time>2021-07-04 09:12:51</time>
      </trkpt>
      <trkpt lat="28.96321" lon="-13.82907">
        <ele>22.2</ele>
        <time>2021-07-04 09:12:52</time>
      </trkpt>
      <trkpt lat="28.96317" lon="-13.82906">
        <ele>22</ele>
        <time>2021-07-04 09:12:53</time>
      </trkpt>
      <trkpt lat="28.96311" lon="-13.82905">
        <ele>22</ele>
        <time>2021-07-04 09:12:54</time>
      </trkpt>
      <trkpt lat="28.96306" lon="-13.82903">
        <ele>21.6</ele>
        <time>2021-07-04 09:12:55</time>
      </trkpt>
      <trkpt lat="28.96301" lon="-13.82902">
        <ele>21.6</ele>
        <time>2021-07-04 09:12:56</time>
      </trkpt>
      <trkpt lat="28.96295" lon="-13.82901">
        <ele>21.2</ele>
        <time>2021-07-04 09:12:57</time>
      </trkpt>
      <trkpt lat="28.96289" lon="-13.829">
        <ele>21.2</ele>
        <time>2021-07-04 09:12:58</time>
      </trkpt>
      <trkpt lat="28.96284" lon="-13.829">
        <ele>21</ele>
        <time>2021-07-04 09:12:59</time>
      </trkpt>
      <trkpt lat="28.9628" lon="-13.82899">
        <ele>21</ele>
        <time>2021-07-04 09:13:00</time>
      </trkpt>
      <trkpt lat="28.96275" lon="-13.82899">
        <ele>20.6</ele>
        <time>2021-07-04 09:13:01</time>
      </trkpt>
      <trkpt lat="28.96271" lon="-13.82898">
        <ele>20.4</ele>
        <time>2021-07-04 09:13:02</time>
      </trkpt>
      <trkpt lat="28.96268" lon="-13.82898">
        <ele>20</ele>
        <time>2021-07-04 09:13:03</time>
      </trkpt>
      <trkpt lat="28.96265" lon="-13.82897">
        <ele>19.8</ele>
        <time>2021-07-04 09:13:04</time>
      </trkpt>
      <trkpt lat="28.96264" lon="-13.82897">
        <ele>19.6</ele>
        <time>2021-07-04 09:13:05</time>
      </trkpt>
      <trkpt lat="28.96264" lon="-13.82897">
        <ele>19.4</ele>
        <time>2021-07-04 09:13:06</time>
      </trkpt>
      <trkpt lat="28.96264" lon="-13.82897">
        <ele>19.4</ele>
        <time>2021-07-04 09:13:07</time>
      </trkpt>
      <trkpt lat="28.96264" lon="-13.82897">
        <ele>19</ele>
        <time>2021-07-04 09:13:08</time>
      </trkpt>
      <trkpt lat="28.96264" lon="-13.82897">
        <ele>19</ele>
        <time>2021-07-04 09:13:09</time>
      </trkpt>
      <trkpt lat="28.96262" lon="-13.82896">
        <ele>18.4</ele>
        <time>2021-07-04 09:13:23</time>
      </trkpt>
      <trkpt lat="28.96261" lon="-13.82896">
        <ele>18.4</ele>
        <time>2021-07-04 09:13:24</time>
      </trkpt>
      <trkpt lat="28.96258" lon="-13.82895">
        <ele>18.4</ele>
        <time>2021-07-04 09:13:25</time>
      </trkpt>
      <trkpt lat="28.96254" lon="-13.82894">
        <ele>18.4</ele>
        <time>2021-07-04 09:13:26</time>
      </trkpt>
      <trkpt lat="28.96251" lon="-13.82892">
        <ele>18.4</ele>
        <time>2021-07-04 09:13:27</time>
      </trkpt>
      <trkpt lat="28.96246" lon="-13.82892">
        <ele>18.4</ele>
        <time>2021-07-04 09:13:28</time>
      </trkpt>
      <trkpt lat="28.96241" lon="-13.82891">
        <ele>18.4</ele>
        <time>2021-07-04 09:13:29</time>
      </trkpt>
      <trkpt lat="28.96236" lon="-13.82891">
        <ele>18.4</ele>
        <time>2021-07-04 09:13:30</time>
      </trkpt>
      <trkpt lat="28.9623" lon="-13.8289">
        <ele>18</ele>
        <time>2021-07-04 09:13:31</time>
      </trkpt>
      <trkpt lat="28.96224" lon="-13.82889">
        <ele>18</ele>
        <time>2021-07-04 09:13:32</time>
      </trkpt>
      <trkpt lat="28.96218" lon="-13.82889">
        <ele>18</ele>
        <time>2021-07-04 09:13:33</time>
      </trkpt>
      <trkpt lat="28.96211" lon="-13.82888">
        <ele>17.6</ele>
        <time>2021-07-04 09:13:34</time>
      </trkpt>
      <trkpt lat="28.96205" lon="-13.82887">
        <ele>17.6</ele>
        <time>2021-07-04 09:13:35</time>
      </trkpt>
      <trkpt lat="28.96197" lon="-13.82887">
        <ele>17.4</ele>
        <time>2021-07-04 09:13:36</time>
      </trkpt>
      <trkpt lat="28.9619" lon="-13.82887">
        <ele>17.4</ele>
        <time>2021-07-04 09:13:37</time>
      </trkpt>
      <trkpt lat="28.96182" lon="-13.82886">
        <ele>17</ele>
        <time>2021-07-04 09:13:38</time>
      </trkpt>
      <trkpt lat="28.96174" lon="-13.82885">
        <ele>16.8</ele>
        <time>2021-07-04 09:13:39</time>
      </trkpt>
      <trkpt lat="28.96166" lon="-13.82885">
        <ele>16.4</ele>
        <time>2021-07-04 09:13:40</time>
      </trkpt>
      <trkpt lat="28.96156" lon="-13.82884">
        <ele>16.2</ele>
        <time>2021-07-04 09:13:41</time>
      </trkpt>
      <trkpt lat="28.96147" lon="-13.82884">
        <ele>15.8</ele>
        <time>2021-07-04 09:13:42</time>
      </trkpt>
      <trkpt lat="28.96138" lon="-13.82884">
        <ele>15.4</ele>
        <time>2021-07-04 09:13:43</time>
      </trkpt>
      <trkpt lat="28.96128" lon="-13.82884">
        <ele>15</ele>
        <time>2021-07-04 09:13:44</time>
      </trkpt>
      <trkpt lat="28.96119" lon="-13.82884">
        <ele>14.6</ele>
        <time>2021-07-04 09:13:45</time>
      </trkpt>
      <trkpt lat="28.96109" lon="-13.82884">
        <ele>14</ele>
        <time>2021-07-04 09:13:46</time>
      </trkpt>
      <trkpt lat="28.961" lon="-13.82884">
        <ele>13.8</ele>
        <time>2021-07-04 09:13:47</time>
      </trkpt>
      <trkpt lat="28.9609" lon="-13.82885">
        <ele>13.4</ele>
        <time>2021-07-04 09:13:48</time>
      </trkpt>
      <trkpt lat="28.96081" lon="-13.82886">
        <ele>13</ele>
        <time>2021-07-04 09:13:49</time>
      </trkpt>
      <trkpt lat="28.96072" lon="-13.82886">
        <ele>12.6</ele>
        <time>2021-07-04 09:13:50</time>
      </trkpt>
      <trkpt lat="28.96064" lon="-13.82887">
        <ele>12.4</ele>
        <time>2021-07-04 09:13:51</time>
      </trkpt>
      <trkpt lat="28.96055" lon="-13.82888">
        <ele>12.4</ele>
        <time>2021-07-04 09:13:52</time>
      </trkpt>
      <trkpt lat="28.96047" lon="-13.82888">
        <ele>12</ele>
        <time>2021-07-04 09:13:53</time>
      </trkpt>
      <trkpt lat="28.96039" lon="-13.82889">
        <ele>12</ele>
        <time>2021-07-04 09:13:54</time>
      </trkpt>
      <trkpt lat="28.96031" lon="-13.8289">
        <ele>11.8</ele>
        <time>2021-07-04 09:13:55</time>
      </trkpt>
      <trkpt lat="28.96023" lon="-13.82891">
        <ele>11.8</ele>
        <time>2021-07-04 09:13:56</time>
      </trkpt>
      <trkpt lat="28.96017" lon="-13.82892">
        <ele>11.8</ele>
        <time>2021-07-04 09:13:57</time>
      </trkpt>
      <trkpt lat="28.96011" lon="-13.82893">
        <ele>11.6</ele>
        <time>2021-07-04 09:13:58</time>
      </trkpt>
      <trkpt lat="28.96005" lon="-13.82894">
        <ele>11.6</ele>
        <time>2021-07-04 09:13:59</time>
      </trkpt>
      <trkpt lat="28.96005" lon="-13.82894">
        <ele>11.6</ele>
        <time>2021-07-04 09:14:00</time>
      </trkpt>
      <trkpt lat="28.95993" lon="-13.82897">
        <ele>11.4</ele>
        <time>2021-07-04 09:14:01</time>
      </trkpt>
      <trkpt lat="28.95987" lon="-13.82897">
        <ele>11</ele>
        <time>2021-07-04 09:14:02</time>
      </trkpt>
      <trkpt lat="28.95981" lon="-13.82898">
        <ele>10.8</ele>
        <time>2021-07-04 09:14:03</time>
      </trkpt>
      <trkpt lat="28.95974" lon="-13.829">
        <ele>10.6</ele>
        <time>2021-07-04 09:14:04</time>
      </trkpt>
      <trkpt lat="28.95968" lon="-13.82902">
        <ele>10.4</ele>
        <time>2021-07-04 09:14:05</time>
      </trkpt>
      <trkpt lat="28.95962" lon="-13.82905">
        <ele>10.4</ele>
        <time>2021-07-04 09:14:06</time>
      </trkpt>
      <trkpt lat="28.95955" lon="-13.82908">
        <ele>10</ele>
        <time>2021-07-04 09:14:07</time>
      </trkpt>
      <trkpt lat="28.95949" lon="-13.8291">
        <ele>10</ele>
        <time>2021-07-04 09:14:08</time>
      </trkpt>
      <trkpt lat="28.95942" lon="-13.82914">
        <ele>10</ele>
        <time>2021-07-04 09:14:09</time>
      </trkpt>
      <trkpt lat="28.95936" lon="-13.82918">
        <ele>10</ele>
        <time>2021-07-04 09:14:10</time>
      </trkpt>
      <trkpt lat="28.9593" lon="-13.82922">
        <ele>10</ele>
        <time>2021-07-04 09:14:11</time>
      </trkpt>
      <trkpt lat="28.95924" lon="-13.82928">
        <ele>10</ele>
        <time>2021-07-04 09:14:12</time>
      </trkpt>
      <trkpt lat="28.95918" lon="-13.82932">
        <ele>10</ele>
        <time>2021-07-04 09:14:13</time>
      </trkpt>
      <trkpt lat="28.95912" lon="-13.82937">
        <ele>10</ele>
        <time>2021-07-04 09:14:14</time>
      </trkpt>
      <trkpt lat="28.95906" lon="-13.82941">
        <ele>10</ele>
        <time>2021-07-04 09:14:15</time>
      </trkpt>
      <trkpt lat="28.959" lon="-13.82947">
        <ele>10</ele>
        <time>2021-07-04 09:14:16</time>
      </trkpt>
      <trkpt lat="28.95894" lon="-13.82952">
        <ele>10</ele>
        <time>2021-07-04 09:14:17</time>
      </trkpt>
      <trkpt lat="28.95888" lon="-13.82957">
        <ele>10</ele>
        <time>2021-07-04 09:14:18</time>
      </trkpt>
      <trkpt lat="28.95883" lon="-13.82963">
        <ele>10</ele>
        <time>2021-07-04 09:14:19</time>
      </trkpt>
      <trkpt lat="28.95877" lon="-13.82968">
        <ele>10</ele>
        <time>2021-07-04 09:14:20</time>
      </trkpt>
      <trkpt lat="28.95872" lon="-13.82973">
        <ele>10.2</ele>
        <time>2021-07-04 09:14:21</time>
      </trkpt>
      <trkpt lat="28.95867" lon="-13.82979">
        <ele>10.2</ele>
        <time>2021-07-04 09:14:22</time>
      </trkpt>
      <trkpt lat="28.95861" lon="-13.82985">
        <ele>10.2</ele>
        <time>2021-07-04 09:14:23</time>
      </trkpt>
      <trkpt lat="28.95855" lon="-13.8299">
        <ele>10.6</ele>
        <time>2021-07-04 09:14:24</time>
      </trkpt>
      <trkpt lat="28.9585" lon="-13.82996">
        <ele>10.6</ele>
        <time>2021-07-04 09:14:25</time>
      </trkpt>
      <trkpt lat="28.95844" lon="-13.83002">
        <ele>10.8</ele>
        <time>2021-07-04 09:14:26</time>
      </trkpt>
      <trkpt lat="28.95839" lon="-13.83007">
        <ele>10.8</ele>
        <time>2021-07-04 09:14:27</time>
      </trkpt>
      <trkpt lat="28.95833" lon="-13.83012">
        <ele>11</ele>
        <time>2021-07-04 09:14:28</time>
      </trkpt>
      <trkpt lat="28.95828" lon="-13.83017">
        <ele>11</ele>
        <time>2021-07-04 09:14:29</time>
      </trkpt>
      <trkpt lat="28.95823" lon="-13.83022">
        <ele>11</ele>
        <time>2021-07-04 09:14:30</time>
      </trkpt>
      <trkpt lat="28.95818" lon="-13.83027">
        <ele>11.2</ele>
        <time>2021-07-04 09:14:31</time>
      </trkpt>
      <trkpt lat="28.95813" lon="-13.83032">
        <ele>11.2</ele>
        <time>2021-07-04 09:14:32</time>
      </trkpt>
      <trkpt lat="28.95808" lon="-13.83037">
        <ele>11.2</ele>
        <time>2021-07-04 09:14:33</time>
      </trkpt>
      <trkpt lat="28.95803" lon="-13.83042">
        <ele>11.6</ele>
        <time>2021-07-04 09:14:34</time>
      </trkpt>
      <trkpt lat="28.95798" lon="-13.83046">
        <ele>11.6</ele>
        <time>2021-07-04 09:14:35</time>
      </trkpt>
      <trkpt lat="28.95793" lon="-13.83051">
        <ele>11.6</ele>
        <time>2021-07-04 09:14:36</time>
      </trkpt>
      <trkpt lat="28.95788" lon="-13.83056">
        <ele>11.8</ele>
        <time>2021-07-04 09:14:37</time>
      </trkpt>
      <trkpt lat="28.95783" lon="-13.83062">
        <ele>11.8</ele>
        <time>2021-07-04 09:14:38</time>
      </trkpt>
      <trkpt lat="28.95778" lon="-13.83066">
        <ele>12.2</ele>
        <time>2021-07-04 09:14:39</time>
      </trkpt>
      <trkpt lat="28.95773" lon="-13.8307">
        <ele>12.2</ele>
        <time>2021-07-04 09:14:40</time>
      </trkpt>
      <trkpt lat="28.95768" lon="-13.83075">
        <ele>12.2</ele>
        <time>2021-07-04 09:14:41</time>
      </trkpt>
      <trkpt lat="28.95763" lon="-13.8308">
        <ele>12.4</ele>
        <time>2021-07-04 09:14:42</time>
      </trkpt>
      <trkpt lat="28.95758" lon="-13.83085">
        <ele>12.4</ele>
        <time>2021-07-04 09:14:43</time>
      </trkpt>
      <trkpt lat="28.95753" lon="-13.8309">
        <ele>12.6</ele>
        <time>2021-07-04 09:14:44</time>
      </trkpt>
      <trkpt lat="28.95748" lon="-13.83094">
        <ele>12.6</ele>
        <time>2021-07-04 09:14:45</time>
      </trkpt>
      <trkpt lat="28.95743" lon="-13.83099">
        <ele>12.6</ele>
        <time>2021-07-04 09:14:46</time>
      </trkpt>
      <trkpt lat="28.95738" lon="-13.83103">
        <ele>13</ele>
        <time>2021-07-04 09:14:47</time>
      </trkpt>
      <trkpt lat="28.95733" lon="-13.83107">
        <ele>13</ele>
        <time>2021-07-04 09:14:48</time>
      </trkpt>
      <trkpt lat="28.95728" lon="-13.83112">
        <ele>13</ele>
        <time>2021-07-04 09:14:49</time>
      </trkpt>
      <trkpt lat="28.95724" lon="-13.83116">
        <ele>13.2</ele>
        <time>2021-07-04 09:14:50</time>
      </trkpt>
      <trkpt lat="28.95718" lon="-13.8312">
        <ele>13.2</ele>
        <time>2021-07-04 09:14:51</time>
      </trkpt>
      <trkpt lat="28.95713" lon="-13.83124">
        <ele>13.6</ele>
        <time>2021-07-04 09:14:52</time>
      </trkpt>
      <trkpt lat="28.95708" lon="-13.83127">
        <ele>13.6</ele>
        <time>2021-07-04 09:14:53</time>
      </trkpt>
      <trkpt lat="28.95703" lon="-13.8313">
        <ele>13.8</ele>
        <time>2021-07-04 09:14:54</time>
      </trkpt>
      <trkpt lat="28.95698" lon="-13.83133">
        <ele>13.8</ele>
        <time>2021-07-04 09:14:55</time>
      </trkpt>
      <trkpt lat="28.95692" lon="-13.83136">
        <ele>14.2</ele>
        <time>2021-07-04 09:14:56</time>
      </trkpt>
      <trkpt lat="28.95687" lon="-13.83139">
        <ele>14.2</ele>
        <time>2021-07-04 09:14:57</time>
      </trkpt>
      <trkpt lat="28.95682" lon="-13.83142">
        <ele>14.4</ele>
        <time>2021-07-04 09:14:58</time>
      </trkpt>
      <trkpt lat="28.95676" lon="-13.83145">
        <ele>14.4</ele>
        <time>2021-07-04 09:14:59</time>
      </trkpt>
      <trkpt lat="28.95676" lon="-13.83145">
        <ele>14.6</ele>
        <time>2021-07-04 09:15:00</time>
      </trkpt>
      <trkpt lat="28.95666" lon="-13.8315">
        <ele>14.6</ele>
        <time>2021-07-04 09:15:01</time>
      </trkpt>
      <trkpt lat="28.95661" lon="-13.83152">
        <ele>15</ele>
        <time>2021-07-04 09:15:02</time>
      </trkpt>
      <trkpt lat="28.95656" lon="-13.83155">
        <ele>14.6</ele>
        <time>2021-07-04 09:15:03</time>
      </trkpt>
      <trkpt lat="28.9565" lon="-13.83156">
        <ele>15</ele>
        <time>2021-07-04 09:15:04</time>
      </trkpt>
      <trkpt lat="28.95645" lon="-13.83158">
        <ele>15.4</ele>
        <time>2021-07-04 09:15:05</time>
      </trkpt>
      <trkpt lat="28.9564" lon="-13.8316">
        <ele>15.6</ele>
        <time>2021-07-04 09:15:06</time>
      </trkpt>
      <trkpt lat="28.95634" lon="-13.83161">
        <ele>15.8</ele>
        <time>2021-07-04 09:15:07</time>
      </trkpt>
      <trkpt lat="28.95628" lon="-13.83163">
        <ele>16</ele>
        <time>2021-07-04 09:15:08</time>
      </trkpt>
      <trkpt lat="28.95623" lon="-13.83165">
        <ele>16</ele>
        <time>2021-07-04 09:15:09</time>
      </trkpt>
      <trkpt lat="28.95618" lon="-13.83166">
        <ele>16.2</ele>
        <time>2021-07-04 09:15:10</time>
      </trkpt>
      <trkpt lat="28.95612" lon="-13.83168">
        <ele>16.2</ele>
        <time>2021-07-04 09:15:11</time>
      </trkpt>
      <trkpt lat="28.95606" lon="-13.83169">
        <ele>16.6</ele>
        <time>2021-07-04 09:15:12</time>
      </trkpt>
      <trkpt lat="28.95601" lon="-13.8317">
        <ele>16.6</ele>
        <time>2021-07-04 09:15:13</time>
      </trkpt>
      <trkpt lat="28.95595" lon="-13.83171">
        <ele>16.8</ele>
        <time>2021-07-04 09:15:14</time>
      </trkpt>
      <trkpt lat="28.9559" lon="-13.83172">
        <ele>16.8</ele>
        <time>2021-07-04 09:15:15</time>
      </trkpt>
      <trkpt lat="28.95584" lon="-13.83173">
        <ele>17</ele>
        <time>2021-07-04 09:15:16</time>
      </trkpt>
      <trkpt lat="28.95578" lon="-13.83174">
        <ele>17</ele>
        <time>2021-07-04 09:15:17</time>
      </trkpt>
      <trkpt lat="28.95573" lon="-13.83175">
        <ele>17.4</ele>
        <time>2021-07-04 09:15:18</time>
      </trkpt>
      <trkpt lat="28.95567" lon="-13.83176">
        <ele>17.4</ele>
        <time>2021-07-04 09:15:19</time>
      </trkpt>
      <trkpt lat="28.95561" lon="-13.83177">
        <ele>17.6</ele>
        <time>2021-07-04 09:15:20</time>
      </trkpt>
      <trkpt lat="28.95555" lon="-13.83178">
        <ele>17.6</ele>
        <time>2021-07-04 09:15:21</time>
      </trkpt>
      <trkpt lat="28.95549" lon="-13.83179">
        <ele>17.6</ele>
        <time>2021-07-04 09:15:22</time>
      </trkpt>
      <trkpt lat="28.95544" lon="-13.8318">
        <ele>18</ele>
        <time>2021-07-04 09:15:23</time>
      </trkpt>
      <trkpt lat="28.95538" lon="-13.83181">
        <ele>18</ele>
        <time>2021-07-04 09:15:24</time>
      </trkpt>
      <trkpt lat="28.95533" lon="-13.83182">
        <ele>18.2</ele>
        <time>2021-07-04 09:15:25</time>
      </trkpt>
      <trkpt lat="28.95527" lon="-13.83183">
        <ele>18.4</ele>
        <time>2021-07-04 09:15:26</time>
      </trkpt>
      <trkpt lat="28.95522" lon="-13.83184">
        <ele>18.4</ele>
        <time>2021-07-04 09:15:27</time>
      </trkpt>
      <trkpt lat="28.95517" lon="-13.83185">
        <ele>18.8</ele>
        <time>2021-07-04 09:15:28</time>
      </trkpt>
      <trkpt lat="28.95512" lon="-13.83186">
        <ele>18.8</ele>
        <time>2021-07-04 09:15:29</time>
      </trkpt>
      <trkpt lat="28.95506" lon="-13.83187">
        <ele>19</ele>
        <time>2021-07-04 09:15:30</time>
      </trkpt>
      <trkpt lat="28.95501" lon="-13.83188">
        <ele>19</ele>
        <time>2021-07-04 09:15:31</time>
      </trkpt>
      <trkpt lat="28.95496" lon="-13.8319">
        <ele>19.2</ele>
        <time>2021-07-04 09:15:32</time>
      </trkpt>
      <trkpt lat="28.95491" lon="-13.8319">
        <ele>19.2</ele>
        <time>2021-07-04 09:15:33</time>
      </trkpt>
      <trkpt lat="28.95486" lon="-13.83191">
        <ele>19.6</ele>
        <time>2021-07-04 09:15:34</time>
      </trkpt>
      <trkpt lat="28.95481" lon="-13.83192">
        <ele>19.6</ele>
        <time>2021-07-04 09:15:35</time>
      </trkpt>
      <trkpt lat="28.95476" lon="-13.83193">
        <ele>19.8</ele>
        <time>2021-07-04 09:15:36</time>
      </trkpt>
      <trkpt lat="28.95472" lon="-13.83193">
        <ele>20</ele>
        <time>2021-07-04 09:15:37</time>
      </trkpt>
      <trkpt lat="28.95467" lon="-13.83194">
        <ele>20</ele>
        <time>2021-07-04 09:15:38</time>
      </trkpt>
      <trkpt lat="28.95463" lon="-13.83196">
        <ele>20.4</ele>
        <time>2021-07-04 09:15:39</time>
      </trkpt>
      <trkpt lat="28.95459" lon="-13.83198">
        <ele>20.4</ele>
        <time>2021-07-04 09:15:40</time>
      </trkpt>
      <trkpt lat="28.95456" lon="-13.83201">
        <ele>20.6</ele>
        <time>2021-07-04 09:15:41</time>
      </trkpt>
      <trkpt lat="28.95454" lon="-13.83204">
        <ele>20.6</ele>
        <time>2021-07-04 09:15:42</time>
      </trkpt>
      <trkpt lat="28.95451" lon="-13.83207">
        <ele>20.8</ele>
        <time>2021-07-04 09:15:43</time>
      </trkpt>
      <trkpt lat="28.95449" lon="-13.8321">
        <ele>20.8</ele>
        <time>2021-07-04 09:15:44</time>
      </trkpt>
      <trkpt lat="28.95446" lon="-13.83213">
        <ele>20.8</ele>
        <time>2021-07-04 09:15:45</time>
      </trkpt>
      <trkpt lat="28.95443" lon="-13.83215">
        <ele>21.2</ele>
        <time>2021-07-04 09:15:46</time>
      </trkpt>
      <trkpt lat="28.9544" lon="-13.83216">
        <ele>21.2</ele>
        <time>2021-07-04 09:15:47</time>
      </trkpt>
      <trkpt lat="28.95436" lon="-13.83216">
        <ele>21.2</ele>
        <time>2021-07-04 09:15:48</time>
      </trkpt>
      <trkpt lat="28.95433" lon="-13.83214">
        <ele>21.2</ele>
        <time>2021-07-04 09:15:49</time>
      </trkpt>
      <trkpt lat="28.95431" lon="-13.83212">
        <ele>21.2</ele>
        <time>2021-07-04 09:15:50</time>
      </trkpt>
      <trkpt lat="28.95429" lon="-13.8321">
        <ele>21.4</ele>
        <time>2021-07-04 09:15:51</time>
      </trkpt>
      <trkpt lat="28.95428" lon="-13.83208">
        <ele>21.4</ele>
        <time>2021-07-04 09:15:52</time>
      </trkpt>
      <trkpt lat="28.95426" lon="-13.83206">
        <ele>21.6</ele>
        <time>2021-07-04 09:15:53</time>
      </trkpt>
      <trkpt lat="28.95425" lon="-13.83205">
        <ele>21.6</ele>
        <time>2021-07-04 09:15:54</time>
      </trkpt>
      <trkpt lat="28.95423" lon="-13.83204">
        <ele>22</ele>
        <time>2021-07-04 09:15:55</time>
      </trkpt>
      <trkpt lat="28.95422" lon="-13.83204">
        <ele>22</ele>
        <time>2021-07-04 09:15:56</time>
      </trkpt>
      <trkpt lat="28.95421" lon="-13.83203">
        <ele>22.2</ele>
        <time>2021-07-04 09:15:57</time>
      </trkpt>
      <trkpt lat="28.9542" lon="-13.83203">
        <ele>22.2</ele>
        <time>2021-07-04 09:15:58</time>
      </trkpt>
      <trkpt lat="28.95419" lon="-13.83202">
        <ele>22.2</ele>
        <time>2021-07-04 09:15:59</time>
      </trkpt>
      <trkpt lat="28.95419" lon="-13.83202">
        <ele>22.4</ele>
        <time>2021-07-04 09:16:00</time>
      </trkpt>
      <trkpt lat="28.95419" lon="-13.832">
        <ele>22.4</ele>
        <time>2021-07-04 09:16:01</time>
      </trkpt>
      <trkpt lat="28.95419" lon="-13.83199">
        <ele>22.4</ele>
        <time>2021-07-04 09:16:02</time>
      </trkpt>
      <trkpt lat="28.9542" lon="-13.83198">
        <ele>22.4</ele>
        <time>2021-07-04 09:16:03</time>
      </trkpt>
      <trkpt lat="28.95422" lon="-13.83198">
        <ele>22.4</ele>
        <time>2021-07-04 09:16:04</time>
      </trkpt>
      <trkpt lat="28.95423" lon="-13.83198">
        <ele>22.4</ele>
        <time>2021-07-04 09:16:05</time>
      </trkpt>
      <trkpt lat="28.95425" lon="-13.83199">
        <ele>22.4</ele>
        <time>2021-07-04 09:16:06</time>
      </trkpt>
      <trkpt lat="28.95427" lon="-13.832">
        <ele>22.4</ele>
        <time>2021-07-04 09:16:07</time>
      </trkpt>
      <trkpt lat="28.95428" lon="-13.83203">
        <ele>22.4</ele>
        <time>2021-07-04 09:16:08</time>
      </trkpt>
      <trkpt lat="28.95429" lon="-13.83206">
        <ele>22.4</ele>
        <time>2021-07-04 09:16:09</time>
      </trkpt>
      <trkpt lat="28.9543" lon="-13.83209">
        <ele>22.4</ele>
        <time>2021-07-04 09:16:10</time>
      </trkpt>
      <trkpt lat="28.95432" lon="-13.83213">
        <ele>22.4</ele>
        <time>2021-07-04 09:16:11</time>
      </trkpt>
      <trkpt lat="28.95433" lon="-13.83216">
        <ele>22.4</ele>
        <time>2021-07-04 09:16:12</time>
      </trkpt>
      <trkpt lat="28.95434" lon="-13.83221">
        <ele>22.4</ele>
        <time>2021-07-04 09:16:13</time>
      </trkpt>
      <trkpt lat="28.95434" lon="-13.83225">
        <ele>22.4</ele>
        <time>2021-07-04 09:16:14</time>
      </trkpt>
      <trkpt lat="28.95431" lon="-13.8323">
        <ele>22.4</ele>
        <time>2021-07-04 09:16:15</time>
      </trkpt>
      <trkpt lat="28.95428" lon="-13.83235">
        <ele>22.4</ele>
        <time>2021-07-04 09:16:16</time>
      </trkpt>
      <trkpt lat="28.95426" lon="-13.83239">
        <ele>22.4</ele>
        <time>2021-07-04 09:16:17</time>
      </trkpt>
      <trkpt lat="28.95423" lon="-13.83243">
        <ele>22.2</ele>
        <time>2021-07-04 09:16:18</time>
      </trkpt>
      <trkpt lat="28.9542" lon="-13.83246">
        <ele>22</ele>
        <time>2021-07-04 09:16:19</time>
      </trkpt>
      <trkpt lat="28.95416" lon="-13.8325">
        <ele>22</ele>
        <time>2021-07-04 09:16:20</time>
      </trkpt>
      <trkpt lat="28.95412" lon="-13.83253">
        <ele>21.6</ele>
        <time>2021-07-04 09:16:21</time>
      </trkpt>
      <trkpt lat="28.95408" lon="-13.83258">
        <ele>21.6</ele>
        <time>2021-07-04 09:16:22</time>
      </trkpt>
      <trkpt lat="28.95404" lon="-13.83262">
        <ele>21.4</ele>
        <time>2021-07-04 09:16:23</time>
      </trkpt>
      <trkpt lat="28.954" lon="-13.83267">
        <ele>21</ele>
        <time>2021-07-04 09:16:24</time>
      </trkpt>
      <trkpt lat="28.95397" lon="-13.83273">
        <ele>20.8</ele>
        <time>2021-07-04 09:16:25</time>
      </trkpt>
      <trkpt lat="28.95394" lon="-13.83279">
        <ele>20.4</ele>
        <time>2021-07-04 09:16:26</time>
      </trkpt>
      <trkpt lat="28.95391" lon="-13.83284">
        <ele>20</ele>
        <time>2021-07-04 09:16:27</time>
      </trkpt>
      <trkpt lat="28.95388" lon="-13.8329">
        <ele>19.8</ele>
        <time>2021-07-04 09:16:28</time>
      </trkpt>
      <trkpt lat="28.95387" lon="-13.83295">
        <ele>19.8</ele>
        <time>2021-07-04 09:16:29</time>
      </trkpt>
      <trkpt lat="28.95386" lon="-13.833">
        <ele>19.4</ele>
        <time>2021-07-04 09:16:30</time>
      </trkpt>
      <trkpt lat="28.95386" lon="-13.83305">
        <ele>19.4</ele>
        <time>2021-07-04 09:16:31</time>
      </trkpt>
      <trkpt lat="28.95386" lon="-13.8331">
        <ele>19.2</ele>
        <time>2021-07-04 09:16:32</time>
      </trkpt>
      <trkpt lat="28.95386" lon="-13.83315">
        <ele>19.2</ele>
        <time>2021-07-04 09:16:33</time>
      </trkpt>
      <trkpt lat="28.95386" lon="-13.83321">
        <ele>19.2</ele>
        <time>2021-07-04 09:16:34</time>
      </trkpt>
      <trkpt lat="28.95386" lon="-13.83326">
        <ele>19.2</ele>
        <time>2021-07-04 09:16:35</time>
      </trkpt>
      <trkpt lat="28.95386" lon="-13.8333">
        <ele>19</ele>
        <time>2021-07-04 09:16:36</time>
      </trkpt>
      <trkpt lat="28.95387" lon="-13.83335">
        <ele>19</ele>
        <time>2021-07-04 09:16:37</time>
      </trkpt>
      <trkpt lat="28.95388" lon="-13.83339">
        <ele>19</ele>
        <time>2021-07-04 09:16:38</time>
      </trkpt>
      <trkpt lat="28.95389" lon="-13.83343">
        <ele>19</ele>
        <time>2021-07-04 09:16:39</time>
      </trkpt>
      <trkpt lat="28.9539" lon="-13.83346">
        <ele>18.8</ele>
        <time>2021-07-04 09:16:40</time>
      </trkpt>
      <trkpt lat="28.95391" lon="-13.83348">
        <ele>18.8</ele>
        <time>2021-07-04 09:16:41</time>
      </trkpt>
      <trkpt lat="28.95392" lon="-13.83349">
        <ele>18.8</ele>
        <time>2021-07-04 09:16:42</time>
      </trkpt>
      <trkpt lat="28.95393" lon="-13.83349">
        <ele>18.8</ele>
        <time>2021-07-04 09:16:43</time>
      </trkpt>
      <trkpt lat="28.95394" lon="-13.83349">
        <ele>19</ele>
        <time>2021-07-04 09:16:44</time>
      </trkpt>
      <trkpt lat="28.95395" lon="-13.83349">
        <ele>19</ele>
        <time>2021-07-04 09:16:45</time>
      </trkpt>
      <trkpt lat="28.95396" lon="-13.83348">
        <ele>19</ele>
        <time>2021-07-04 09:16:46</time>
      </trkpt>
      <trkpt lat="28.95397" lon="-13.83348">
        <ele>19.2</ele>
        <time>2021-07-04 09:16:47</time>
      </trkpt>
      <trkpt lat="28.95398" lon="-13.83346">
        <ele>19.2</ele>
        <time>2021-07-04 09:16:48</time>
      </trkpt>
      <trkpt lat="28.95398" lon="-13.83343">
        <ele>19.6</ele>
        <time>2021-07-04 09:16:49</time>
      </trkpt>
      <trkpt lat="28.95398" lon="-13.83341">
        <ele>19.6</ele>
        <time>2021-07-04 09:16:50</time>
      </trkpt>
      <trkpt lat="28.95398" lon="-13.83339">
        <ele>19.6</ele>
        <time>2021-07-04 09:16:51</time>
      </trkpt>
      <trkpt lat="28.95399" lon="-13.83337">
        <ele>19.6</ele>
        <time>2021-07-04 09:16:52</time>
      </trkpt>
      <trkpt lat="28.95399" lon="-13.83335">
        <ele>19.6</ele>
        <time>2021-07-04 09:16:53</time>
      </trkpt>
      <trkpt lat="28.95399" lon="-13.83333">
        <ele>19.6</ele>
        <time>2021-07-04 09:16:54</time>
      </trkpt>
      <trkpt lat="28.95399" lon="-13.83331">
        <ele>19.6</ele>
        <time>2021-07-04 09:16:55</time>
      </trkpt>
      <trkpt lat="28.95399" lon="-13.8333">
        <ele>19.8</ele>
        <time>2021-07-04 09:16:56</time>
      </trkpt>
      <trkpt lat="28.95399" lon="-13.83328">
        <ele>19.8</ele>
        <time>2021-07-04 09:16:57</time>
      </trkpt>
      <trkpt lat="28.954" lon="-13.83327">
        <ele>19.8</ele>
        <time>2021-07-04 09:16:58</time>
      </trkpt>
      <trkpt lat="28.954" lon="-13.83327">
        <ele>20.2</ele>
        <time>2021-07-04 09:16:59</time>
      </trkpt>
      <trkpt lat="28.954" lon="-13.83327">
        <ele>20.6</ele>
        <time>2021-07-04 09:17:00</time>
      </trkpt>
      <trkpt lat="28.95399" lon="-13.83327">
        <ele>21</ele>
        <time>2021-07-04 09:17:01</time>
      </trkpt>
      <trkpt lat="28.954" lon="-13.83329">
        <ele>20.8</ele>
        <time>2021-07-04 09:17:59</time>
      </trkpt>
      <trkpt lat="28.954" lon="-13.83331">
        <ele>20.8</ele>
        <time>2021-07-04 09:18:00</time>
      </trkpt>
      <trkpt lat="28.954" lon="-13.83333">
        <ele>20.8</ele>
        <time>2021-07-04 09:18:01</time>
      </trkpt>
      <trkpt lat="28.95399" lon="-13.83336">
        <ele>20.8</ele>
        <time>2021-07-04 09:18:02</time>
      </trkpt>
      <trkpt lat="28.95399" lon="-13.83338">
        <ele>20.8</ele>
        <time>2021-07-04 09:18:03</time>
      </trkpt>
      <trkpt lat="28.95399" lon="-13.83339">
        <ele>20.8</ele>
        <time>2021-07-04 09:18:04</time>
      </trkpt>
      <trkpt lat="28.95399" lon="-13.8334">
        <ele>20.8</ele>
        <time>2021-07-04 09:18:05</time>
      </trkpt>
      <trkpt lat="28.95399" lon="-13.8334">
        <ele>20.8</ele>
        <time>2021-07-04 09:18:06</time>
      </trkpt>
      <trkpt lat="28.954" lon="-13.8334">
        <ele>20.8</ele>
        <time>2021-07-04 09:18:07</time>
      </trkpt>
      <trkpt lat="28.954" lon="-13.8334">
        <ele>20.8</ele>
        <time>2021-07-04 09:18:08</time>
      </trkpt>
      <trkpt lat="28.954" lon="-13.83339">
        <ele>20.8</ele>
        <time>2021-07-04 09:18:09</time>
      </trkpt>
      <trkpt lat="28.954" lon="-13.83339">
        <ele>20.8</ele>
        <time>2021-07-04 09:18:10</time>
      </trkpt>
      <trkpt lat="28.954" lon="-13.83339">
        <ele>20.8</ele>
        <time>2021-07-04 09:18:11</time>
      </trkpt>
      <trkpt lat="28.954" lon="-13.83339">
        <ele>20.8</ele>
        <time>2021-07-04 09:18:12</time>
      </trkpt>
      <trkpt lat="28.954" lon="-13.83337">
        <ele>21.6</ele>
        <time>2021-07-04 09:18:31</time>
      </trkpt>
      <trkpt lat="28.954" lon="-13.83337">
        <ele>21.6</ele>
        <time>2021-07-04 09:18:32</time>
      </trkpt>
      <trkpt lat="28.95399" lon="-13.83336">
        <ele>21.2</ele>
        <time>2021-07-04 09:18:33</time>
      </trkpt>
      <trkpt lat="28.95399" lon="-13.83336">
        <ele>21.2</ele>
        <time>2021-07-04 09:18:34</time>
      </trkpt>
      <trkpt lat="28.95399" lon="-13.83336">
        <ele>21</ele>
        <time>2021-07-04 09:18:35</time>
      </trkpt>
      <trkpt lat="28.95399" lon="-13.83337">
        <ele>21</ele>
        <time>2021-07-04 09:18:36</time>
      </trkpt>
      <trkpt lat="28.95398" lon="-13.83338">
        <ele>20</ele>
        <time>2021-07-04 09:18:52</time>
      </trkpt>
      <trkpt lat="28.95398" lon="-13.83338">
        <ele>20</ele>
        <time>2021-07-04 09:18:53</time>
      </trkpt>
      <trkpt lat="28.95398" lon="-13.83339">
        <ele>20</ele>
        <time>2021-07-04 09:18:54</time>
      </trkpt>
      <trkpt lat="28.95397" lon="-13.8334">
        <ele>20</ele>
        <time>2021-07-04 09:18:55</time>
      </trkpt>
      <trkpt lat="28.95396" lon="-13.83342">
        <ele>20</ele>
        <time>2021-07-04 09:18:56</time>
      </trkpt>
      <trkpt lat="28.95396" lon="-13.83344">
        <ele>20</ele>
        <time>2021-07-04 09:18:57</time>
      </trkpt>
      <trkpt lat="28.95395" lon="-13.83347">
        <ele>20</ele>
        <time>2021-07-04 09:18:58</time>
      </trkpt>
      <trkpt lat="28.95393" lon="-13.83349">
        <ele>19.8</ele>
        <time>2021-07-04 09:18:59</time>
      </trkpt>
      <trkpt lat="28.95392" lon="-13.83352">
        <ele>19.8</ele>
        <time>2021-07-04 09:19:00</time>
      </trkpt>
      <trkpt lat="28.9539" lon="-13.83355">
        <ele>19.8</ele>
        <time>2021-07-04 09:19:01</time>
      </trkpt>
      <trkpt lat="28.95388" lon="-13.83357">
        <ele>19.6</ele>
        <time>2021-07-04 09:19:02</time>
      </trkpt>
      <trkpt lat="28.95386" lon="-13.8336">
        <ele>19.6</ele>
        <time>2021-07-04 09:19:03</time>
      </trkpt>
      <trkpt lat="28.95383" lon="-13.83362">
        <ele>19.2</ele>
        <time>2021-07-04 09:19:04</time>
      </trkpt>
      <trkpt lat="28.9538" lon="-13.83364">
        <ele>19.2</ele>
        <time>2021-07-04 09:19:05</time>
      </trkpt>
      <trkpt lat="28.95377" lon="-13.83365">
        <ele>19</ele>
        <time>2021-07-04 09:19:06</time>
      </trkpt>
      <trkpt lat="28.95374" lon="-13.83366">
        <ele>19</ele>
        <time>2021-07-04 09:19:07</time>
      </trkpt>
      <trkpt lat="28.95371" lon="-13.83367">
        <ele>19</ele>
        <time>2021-07-04 09:19:08</time>
      </trkpt>
      <trkpt lat="28.95369" lon="-13.83368">
        <ele>18.8</ele>
        <time>2021-07-04 09:19:09</time>
      </trkpt>
      <trkpt lat="28.95366" lon="-13.83366">
        <ele>18.8</ele>
        <time>2021-07-04 09:19:10</time>
      </trkpt>
      <trkpt lat="28.95364" lon="-13.83364">
        <ele>18.8</ele>
        <time>2021-07-04 09:19:11</time>
      </trkpt>
      <trkpt lat="28.95364" lon="-13.8336">
        <ele>18.6</ele>
        <time>2021-07-04 09:19:12</time>
      </trkpt>
      <trkpt lat="28.95364" lon="-13.83355">
        <ele>18.6</ele>
        <time>2021-07-04 09:19:13</time>
      </trkpt>
      <trkpt lat="28.95364" lon="-13.8335">
        <ele>18.6</ele>
        <time>2021-07-04 09:19:14</time>
      </trkpt>
      <trkpt lat="28.95364" lon="-13.83346">
        <ele>18.6</ele>
        <time>2021-07-04 09:19:15</time>
      </trkpt>
      <trkpt lat="28.95365" lon="-13.83342">
        <ele>18.6</ele>
        <time>2021-07-04 09:19:16</time>
      </trkpt>
      <trkpt lat="28.95365" lon="-13.83338">
        <ele>18.6</ele>
        <time>2021-07-04 09:19:17</time>
      </trkpt>
      <trkpt lat="28.95366" lon="-13.83333">
        <ele>18.6</ele>
        <time>2021-07-04 09:19:18</time>
      </trkpt>
      <trkpt lat="28.95367" lon="-13.83329">
        <ele>18.6</ele>
        <time>2021-07-04 09:19:19</time>
      </trkpt>
      <trkpt lat="28.95367" lon="-13.83325">
        <ele>18.6</ele>
        <time>2021-07-04 09:19:20</time>
      </trkpt>
      <trkpt lat="28.95368" lon="-13.83321">
        <ele>18.6</ele>
        <time>2021-07-04 09:19:21</time>
      </trkpt>
      <trkpt lat="28.95369" lon="-13.83316">
        <ele>18.6</ele>
        <time>2021-07-04 09:19:22</time>
      </trkpt>
      <trkpt lat="28.9537" lon="-13.83312">
        <ele>18.6</ele>
        <time>2021-07-04 09:19:23</time>
      </trkpt>
      <trkpt lat="28.95371" lon="-13.83308">
        <ele>18.6</ele>
        <time>2021-07-04 09:19:24</time>
      </trkpt>
      <trkpt lat="28.95373" lon="-13.83304">
        <ele>18.6</ele>
        <time>2021-07-04 09:19:25</time>
      </trkpt>
      <trkpt lat="28.95374" lon="-13.833">
        <ele>18.6</ele>
        <time>2021-07-04 09:19:26</time>
      </trkpt>
      <trkpt lat="28.95376" lon="-13.83296">
        <ele>18.6</ele>
        <time>2021-07-04 09:19:27</time>
      </trkpt>
      <trkpt lat="28.95377" lon="-13.83293">
        <ele>18.6</ele>
        <time>2021-07-04 09:19:28</time>
      </trkpt>
      <trkpt lat="28.95379" lon="-13.8329">
        <ele>18.8</ele>
        <time>2021-07-04 09:19:29</time>
      </trkpt>
      <trkpt lat="28.95381" lon="-13.83287">
        <ele>18.8</ele>
        <time>2021-07-04 09:19:30</time>
      </trkpt>
      <trkpt lat="28.95382" lon="-13.83284">
        <ele>19.2</ele>
        <time>2021-07-04 09:19:31</time>
      </trkpt>
      <trkpt lat="28.95384" lon="-13.83281">
        <ele>19.4</ele>
        <time>2021-07-04 09:19:32</time>
      </trkpt>
      <trkpt lat="28.95386" lon="-13.83278">
        <ele>19.6</ele>
        <time>2021-07-04 09:19:33</time>
      </trkpt>
      <trkpt lat="28.95388" lon="-13.83276">
        <ele>20</ele>
        <time>2021-07-04 09:19:34</time>
      </trkpt>
      <trkpt lat="28.9539" lon="-13.83274">
        <ele>20.2</ele>
        <time>2021-07-04 09:19:35</time>
      </trkpt>
      <trkpt lat="28.95392" lon="-13.83271">
        <ele>20.4</ele>
        <time>2021-07-04 09:19:36</time>
      </trkpt>
      <trkpt lat="28.95394" lon="-13.83269">
        <ele>20.4</ele>
        <time>2021-07-04 09:19:37</time>
      </trkpt>
      <trkpt lat="28.95396" lon="-13.83267">
        <ele>20.4</ele>
        <time>2021-07-04 09:19:38</time>
      </trkpt>
      <trkpt lat="28.95397" lon="-13.83265">
        <ele>20.4</ele>
        <time>2021-07-04 09:19:39</time>
      </trkpt>
      <trkpt lat="28.95399" lon="-13.83263">
        <ele>20.8</ele>
        <time>2021-07-04 09:19:40</time>
      </trkpt>
      <trkpt lat="28.95401" lon="-13.83261">
        <ele>20.8</ele>
        <time>2021-07-04 09:19:41</time>
      </trkpt>
      <trkpt lat="28.95404" lon="-13.83259">
        <ele>20.8</ele>
        <time>2021-07-04 09:19:42</time>
      </trkpt>
      <trkpt lat="28.95406" lon="-13.83258">
        <ele>20.8</ele>
        <time>2021-07-04 09:19:43</time>
      </trkpt>
      <trkpt lat="28.95408" lon="-13.83256">
        <ele>20.8</ele>
        <time>2021-07-04 09:19:44</time>
      </trkpt>
      <trkpt lat="28.95411" lon="-13.83254">
        <ele>20.8</ele>
        <time>2021-07-04 09:19:45</time>
      </trkpt>
      <trkpt lat="28.95413" lon="-13.83252">
        <ele>20.8</ele>
        <time>2021-07-04 09:19:46</time>
      </trkpt>
      <trkpt lat="28.95415" lon="-13.8325">
        <ele>20.8</ele>
        <time>2021-07-04 09:19:47</time>
      </trkpt>
      <trkpt lat="28.95417" lon="-13.83249">
        <ele>21</ele>
        <time>2021-07-04 09:19:48</time>
      </trkpt>
      <trkpt lat="28.95419" lon="-13.83247">
        <ele>21</ele>
        <time>2021-07-04 09:19:49</time>
      </trkpt>
      <trkpt lat="28.95421" lon="-13.83245">
        <ele>21.4</ele>
        <time>2021-07-04 09:19:50</time>
      </trkpt>
      <trkpt lat="28.95423" lon="-13.83243">
        <ele>21.4</ele>
        <time>2021-07-04 09:19:51</time>
      </trkpt>
      <trkpt lat="28.95425" lon="-13.83241">
        <ele>21.6</ele>
        <time>2021-07-04 09:19:52</time>
      </trkpt>
      <trkpt lat="28.95427" lon="-13.83239">
        <ele>21.6</ele>
        <time>2021-07-04 09:19:53</time>
      </trkpt>
      <trkpt lat="28.95429" lon="-13.83237">
        <ele>21.8</ele>
        <time>2021-07-04 09:19:54</time>
      </trkpt>
      <trkpt lat="28.9543" lon="-13.83235">
        <ele>21.8</ele>
        <time>2021-07-04 09:19:55</time>
      </trkpt>
      <trkpt lat="28.95432" lon="-13.83233">
        <ele>22.2</ele>
        <time>2021-07-04 09:19:56</time>
      </trkpt>
      <trkpt lat="28.95433" lon="-13.8323">
        <ele>22.2</ele>
        <time>2021-07-04 09:19:57</time>
      </trkpt>
      <trkpt lat="28.95434" lon="-13.83227">
        <ele>22.2</ele>
        <time>2021-07-04 09:19:58</time>
      </trkpt>
      <trkpt lat="28.95435" lon="-13.83224">
        <ele>22.4</ele>
        <time>2021-07-04 09:19:59</time>
      </trkpt>
      <trkpt lat="28.95435" lon="-13.83221">
        <ele>22.4</ele>
        <time>2021-07-04 09:20:00</time>
      </trkpt>
      <trkpt lat="28.95435" lon="-13.83219">
        <ele>22.4</ele>
        <time>2021-07-04 09:20:01</time>
      </trkpt>
      <trkpt lat="28.95434" lon="-13.83216">
        <ele>22.4</ele>
        <time>2021-07-04 09:20:02</time>
      </trkpt>
      <trkpt lat="28.95433" lon="-13.83213">
        <ele>22.6</ele>
        <time>2021-07-04 09:20:03</time>
      </trkpt>
      <trkpt lat="28.95432" lon="-13.83211">
        <ele>22.6</ele>
        <time>2021-07-04 09:20:04</time>
      </trkpt>
      <trkpt lat="28.9543" lon="-13.83209">
        <ele>22.6</ele>
        <time>2021-07-04 09:20:05</time>
      </trkpt>
      <trkpt lat="28.95428" lon="-13.83208">
        <ele>23</ele>
        <time>2021-07-04 09:20:06</time>
      </trkpt>
      <trkpt lat="28.95426" lon="-13.83206">
        <ele>23</ele>
        <time>2021-07-04 09:20:07</time>
      </trkpt>
      <trkpt lat="28.95424" lon="-13.83205">
        <ele>23</ele>
        <time>2021-07-04 09:20:08</time>
      </trkpt>
      <trkpt lat="28.95423" lon="-13.83203">
        <ele>23.2</ele>
        <time>2021-07-04 09:20:09</time>
      </trkpt>
      <trkpt lat="28.95422" lon="-13.83202">
        <ele>23.2</ele>
        <time>2021-07-04 09:20:10</time>
      </trkpt>
      <trkpt lat="28.95421" lon="-13.83202">
        <ele>23.6</ele>
        <time>2021-07-04 09:20:11</time>
      </trkpt>
      <trkpt lat="28.9542" lon="-13.83201">
        <ele>23.6</ele>
        <time>2021-07-04 09:20:12</time>
      </trkpt>
      <trkpt lat="28.95419" lon="-13.83199">
        <ele>23.8</ele>
        <time>2021-07-04 09:20:13</time>
      </trkpt>
      <trkpt lat="28.95418" lon="-13.83198">
        <ele>23.8</ele>
        <time>2021-07-04 09:20:14</time>
      </trkpt>
      <trkpt lat="28.95418" lon="-13.83196">
        <ele>23.8</ele>
        <time>2021-07-04 09:20:15</time>
      </trkpt>
      <trkpt lat="28.95418" lon="-13.83195">
        <ele>23.8</ele>
        <time>2021-07-04 09:20:16</time>
      </trkpt>
      <trkpt lat="28.95418" lon="-13.83194">
        <ele>23.8</ele>
        <time>2021-07-04 09:20:17</time>
      </trkpt>
      <trkpt lat="28.95418" lon="-13.83193">
        <ele>23.8</ele>
        <time>2021-07-04 09:20:18</time>
      </trkpt>
      <trkpt lat="28.95418" lon="-13.83192">
        <ele>23.8</ele>
        <time>2021-07-04 09:20:19</time>
      </trkpt>
      <trkpt lat="28.95417" lon="-13.83192">
        <ele>23.8</ele>
        <time>2021-07-04 09:20:20</time>
      </trkpt>
      <trkpt lat="28.95417" lon="-13.83192">
        <ele>23.8</ele>
        <time>2021-07-04 09:20:21</time>
      </trkpt>
      <trkpt lat="28.95417" lon="-13.83192">
        <ele>23.8</ele>
        <time>2021-07-04 09:20:22</time>
      </trkpt>
      <trkpt lat="28.95417" lon="-13.83193">
        <ele>23.8</ele>
        <time>2021-07-04 09:20:23</time>
      </trkpt>
      <trkpt lat="28.95417" lon="-13.83192">
        <ele>22.8</ele>
        <time>2021-07-04 09:22:13</time>
      </trkpt>
      <trkpt lat="28.95417" lon="-13.83192">
        <ele>22.8</ele>
        <time>2021-07-04 09:22:14</time>
      </trkpt>
      <trkpt lat="28.95417" lon="-13.83192">
        <ele>22.8</ele>
        <time>2021-07-04 09:22:15</time>
      </trkpt>
      <trkpt lat="28.95418" lon="-13.83194">
        <ele>22.8</ele>
        <time>2021-07-04 09:22:19</time>
      </trkpt>
      <trkpt lat="28.95418" lon="-13.83194">
        <ele>22.8</ele>
        <time>2021-07-04 09:22:20</time>
      </trkpt>
      <trkpt lat="28.95418" lon="-13.83194">
        <ele>22.8</ele>
        <time>2021-07-04 09:22:21</time>
      </trkpt>
      <trkpt lat="28.95418" lon="-13.83194">
        <ele>22.8</ele>
        <time>2021-07-04 09:22:22</time>
      </trkpt>
      <trkpt lat="28.95418" lon="-13.83194">
        <ele>22.8</ele>
        <time>2021-07-04 09:22:23</time>
      </trkpt>
      <trkpt lat="28.95417" lon="-13.83196">
        <ele>22.8</ele>
        <time>2021-07-04 09:22:36</time>
      </trkpt>
      <trkpt lat="28.95416" lon="-13.83196">
        <ele>22.8</ele>
        <time>2021-07-04 09:22:37</time>
      </trkpt>
      <trkpt lat="28.95416" lon="-13.83196">
        <ele>22.8</ele>
        <time>2021-07-04 09:22:38</time>
      </trkpt>
      <trkpt lat="28.95416" lon="-13.83196">
        <ele>22.8</ele>
        <time>2021-07-04 09:22:39</time>
      </trkpt>
      <trkpt lat="28.95416" lon="-13.83196">
        <ele>22.8</ele>
        <time>2021-07-04 09:22:40</time>
      </trkpt>
      <trkpt lat="28.95416" lon="-13.83196">
        <ele>23.2</ele>
        <time>2021-07-04 09:22:41</time>
      </trkpt>
      <trkpt lat="28.95416" lon="-13.83197">
        <ele>23</ele>
        <time>2021-07-04 09:25:36</time>
      </trkpt>
      <trkpt lat="28.95417" lon="-13.83197">
        <ele>23</ele>
        <time>2021-07-04 09:25:37</time>
      </trkpt>
      <trkpt lat="28.95417" lon="-13.83197">
        <ele>23</ele>
        <time>2021-07-04 09:25:38</time>
      </trkpt>
      <trkpt lat="28.95417" lon="-13.83197">
        <ele>23</ele>
        <time>2021-07-04 09:25:39</time>
      </trkpt>
      <trkpt lat="28.95417" lon="-13.83197">
        <ele>23</ele>
        <time>2021-07-04 09:25:40</time>
      </trkpt>
      <trkpt lat="28.95418" lon="-13.83196">
        <ele>23</ele>
        <time>2021-07-04 09:25:41</time>
      </trkpt>
      <trkpt lat="28.9542" lon="-13.83195">
        <ele>22.8</ele>
        <time>2021-07-04 09:25:42</time>
      </trkpt>
      <trkpt lat="28.95421" lon="-13.83195">
        <ele>22.8</ele>
        <time>2021-07-04 09:25:43</time>
      </trkpt>
      <trkpt lat="28.95423" lon="-13.83194">
        <ele>22.8</ele>
        <time>2021-07-04 09:25:44</time>
      </trkpt>
      <trkpt lat="28.95426" lon="-13.83193">
        <ele>22.8</ele>
        <time>2021-07-04 09:25:45</time>
      </trkpt>
      <trkpt lat="28.95429" lon="-13.83193">
        <ele>22.8</ele>
        <time>2021-07-04 09:25:46</time>
      </trkpt>
      <trkpt lat="28.95433" lon="-13.83192">
        <ele>22.8</ele>
        <time>2021-07-04 09:25:47</time>
      </trkpt>
      <trkpt lat="28.95436" lon="-13.83191">
        <ele>22.8</ele>
        <time>2021-07-04 09:25:48</time>
      </trkpt>
      <trkpt lat="28.9544" lon="-13.8319">
        <ele>22.8</ele>
        <time>2021-07-04 09:25:49</time>
      </trkpt>
      <trkpt lat="28.95443" lon="-13.83189">
        <ele>22.8</ele>
        <time>2021-07-04 09:25:50</time>
      </trkpt>
      <trkpt lat="28.95447" lon="-13.83189">
        <ele>22.8</ele>
        <time>2021-07-04 09:25:51</time>
      </trkpt>
      <trkpt lat="28.95451" lon="-13.83188">
        <ele>22.8</ele>
        <time>2021-07-04 09:25:52</time>
      </trkpt>
      <trkpt lat="28.95455" lon="-13.83187">
        <ele>22.8</ele>
        <time>2021-07-04 09:25:53</time>
      </trkpt>
      <trkpt lat="28.9546" lon="-13.83187">
        <ele>22.8</ele>
        <time>2021-07-04 09:25:54</time>
      </trkpt>
      <trkpt lat="28.95464" lon="-13.83186">
        <ele>22.8</ele>
        <time>2021-07-04 09:25:55</time>
      </trkpt>
      <trkpt lat="28.95468" lon="-13.83185">
        <ele>22.4</ele>
        <time>2021-07-04 09:25:56</time>
      </trkpt>
      <trkpt lat="28.95472" lon="-13.83184">
        <ele>22.4</ele>
        <time>2021-07-04 09:25:57</time>
      </trkpt>
      <trkpt lat="28.95476" lon="-13.83184">
        <ele>22.4</ele>
        <time>2021-07-04 09:25:58</time>
      </trkpt>
      <trkpt lat="28.9548" lon="-13.83183">
        <ele>22</ele>
        <time>2021-07-04 09:25:59</time>
      </trkpt>
      <trkpt lat="28.95484" lon="-13.83183">
        <ele>22</ele>
        <time>2021-07-04 09:26:00</time>
      </trkpt>
      <trkpt lat="28.95488" lon="-13.83182">
        <ele>21.8</ele>
        <time>2021-07-04 09:26:01</time>
      </trkpt>
      <trkpt lat="28.95491" lon="-13.83181">
        <ele>21.8</ele>
        <time>2021-07-04 09:26:02</time>
      </trkpt>
      <trkpt lat="28.95495" lon="-13.83181">
        <ele>21.8</ele>
        <time>2021-07-04 09:26:03</time>
      </trkpt>
      <trkpt lat="28.955" lon="-13.8318">
        <ele>21.8</ele>
        <time>2021-07-04 09:26:04</time>
      </trkpt>
      <trkpt lat="28.95504" lon="-13.83179">
        <ele>21.8</ele>
        <time>2021-07-04 09:26:05</time>
      </trkpt>
      <trkpt lat="28.95508" lon="-13.83178">
        <ele>21.8</ele>
        <time>2021-07-04 09:26:06</time>
      </trkpt>
      <trkpt lat="28.95513" lon="-13.83178">
        <ele>21.6</ele>
        <time>2021-07-04 09:26:07</time>
      </trkpt>
      <trkpt lat="28.95517" lon="-13.83177">
        <ele>21.6</ele>
        <time>2021-07-04 09:26:08</time>
      </trkpt>
      <trkpt lat="28.95522" lon="-13.83176">
        <ele>21.6</ele>
        <time>2021-07-04 09:26:09</time>
      </trkpt>
      <trkpt lat="28.95526" lon="-13.83176">
        <ele>21.2</ele>
        <time>2021-07-04 09:26:10</time>
      </trkpt>
      <trkpt lat="28.9553" lon="-13.83175">
        <ele>21.2</ele>
        <time>2021-07-04 09:26:11</time>
      </trkpt>
      <trkpt lat="28.95535" lon="-13.83174">
        <ele>21</ele>
        <time>2021-07-04 09:26:12</time>
      </trkpt>
      <trkpt lat="28.95539" lon="-13.83174">
        <ele>21</ele>
        <time>2021-07-04 09:26:13</time>
      </trkpt>
      <trkpt lat="28.95543" lon="-13.83173">
        <ele>20.8</ele>
        <time>2021-07-04 09:26:14</time>
      </trkpt>
      <trkpt lat="28.95549" lon="-13.83172">
        <ele>20.8</ele>
        <time>2021-07-04 09:26:15</time>
      </trkpt>
      <trkpt lat="28.95554" lon="-13.83172">
        <ele>20.8</ele>
        <time>2021-07-04 09:26:16</time>
      </trkpt>
      <trkpt lat="28.95558" lon="-13.83171">
        <ele>20.4</ele>
        <time>2021-07-04 09:26:17</time>
      </trkpt>
      <trkpt lat="28.95563" lon="-13.83169">
        <ele>20.4</ele>
        <time>2021-07-04 09:26:18</time>
      </trkpt>
      <trkpt lat="28.95568" lon="-13.83168">
        <ele>20.4</ele>
        <time>2021-07-04 09:26:19</time>
      </trkpt>
      <trkpt lat="28.95573" lon="-13.83167">
        <ele>20.4</ele>
        <time>2021-07-04 09:26:20</time>
      </trkpt>
      <trkpt lat="28.95577" lon="-13.83166">
        <ele>20.2</ele>
        <time>2021-07-04 09:26:21</time>
      </trkpt>
      <trkpt lat="28.95582" lon="-13.83166">
        <ele>20.2</ele>
        <time>2021-07-04 09:26:22</time>
      </trkpt>
      <trkpt lat="28.95587" lon="-13.83165">
        <ele>19.8</ele>
        <time>2021-07-04 09:26:23</time>
      </trkpt>
      <trkpt lat="28.95592" lon="-13.83164">
        <ele>19.6</ele>
        <time>2021-07-04 09:26:24</time>
      </trkpt>
      <trkpt lat="28.95597" lon="-13.83163">
        <ele>19.4</ele>
        <time>2021-07-04 09:26:25</time>
      </trkpt>
      <trkpt lat="28.95602" lon="-13.83162">
        <ele>19.4</ele>
        <time>2021-07-04 09:26:26</time>
      </trkpt>
      <trkpt lat="28.95607" lon="-13.8316">
        <ele>19</ele>
        <time>2021-07-04 09:26:27</time>
      </trkpt>
      <trkpt lat="28.95612" lon="-13.83159">
        <ele>19</ele>
        <time>2021-07-04 09:26:28</time>
      </trkpt>
      <trkpt lat="28.95617" lon="-13.83158">
        <ele>18.8</ele>
        <time>2021-07-04 09:26:29</time>
      </trkpt>
      <trkpt lat="28.95622" lon="-13.83156">
        <ele>18.8</ele>
        <time>2021-07-04 09:26:30</time>
      </trkpt>
      <trkpt lat="28.95628" lon="-13.83155">
        <ele>18.4</ele>
        <time>2021-07-04 09:26:31</time>
      </trkpt>
      <trkpt lat="28.95633" lon="-13.83153">
        <ele>18.4</ele>
        <time>2021-07-04 09:26:32</time>
      </trkpt>
      <trkpt lat="28.95638" lon="-13.83151">
        <ele>18</ele>
        <time>2021-07-04 09:26:33</time>
      </trkpt>
      <trkpt lat="28.95644" lon="-13.8315">
        <ele>18</ele>
        <time>2021-07-04 09:26:34</time>
      </trkpt>
      <trkpt lat="28.95649" lon="-13.83148">
        <ele>18</ele>
        <time>2021-07-04 09:26:35</time>
      </trkpt>
      <trkpt lat="28.95654" lon="-13.83146">
        <ele>17.8</ele>
        <time>2021-07-04 09:26:36</time>
      </trkpt>
      <trkpt lat="28.95659" lon="-13.83144">
        <ele>17.8</ele>
        <time>2021-07-04 09:26:37</time>
      </trkpt>
      <trkpt lat="28.95664" lon="-13.83142">
        <ele>17.8</ele>
        <time>2021-07-04 09:26:38</time>
      </trkpt>
      <trkpt lat="28.95668" lon="-13.8314">
        <ele>17.6</ele>
        <time>2021-07-04 09:26:39</time>
      </trkpt>
      <trkpt lat="28.95673" lon="-13.83138">
        <ele>17.6</ele>
        <time>2021-07-04 09:26:40</time>
      </trkpt>
      <trkpt lat="28.95678" lon="-13.83135">
        <ele>17.6</ele>
        <time>2021-07-04 09:26:41</time>
      </trkpt>
      <trkpt lat="28.95682" lon="-13.83133">
        <ele>17.6</ele>
        <time>2021-07-04 09:26:42</time>
      </trkpt>
      <trkpt lat="28.95687" lon="-13.83131">
        <ele>17.6</ele>
        <time>2021-07-04 09:26:43</time>
      </trkpt>
      <trkpt lat="28.95691" lon="-13.83128">
        <ele>17.4</ele>
        <time>2021-07-04 09:26:44</time>
      </trkpt>
      <trkpt lat="28.95695" lon="-13.83125">
        <ele>17.4</ele>
        <time>2021-07-04 09:26:45</time>
      </trkpt>
      <trkpt lat="28.957" lon="-13.83123">
        <ele>17.4</ele>
        <time>2021-07-04 09:26:46</time>
      </trkpt>
      <trkpt lat="28.95704" lon="-13.83121">
        <ele>17.2</ele>
        <time>2021-07-04 09:26:47</time>
      </trkpt>
      <trkpt lat="28.95708" lon="-13.83118">
        <ele>17.2</ele>
        <time>2021-07-04 09:26:48</time>
      </trkpt>
      <trkpt lat="28.95713" lon="-13.83115">
        <ele>16.8</ele>
        <time>2021-07-04 09:26:49</time>
      </trkpt>
      <trkpt lat="28.95717" lon="-13.83112">
        <ele>16.8</ele>
        <time>2021-07-04 09:26:50</time>
      </trkpt>
      <trkpt lat="28.95721" lon="-13.83108">
        <ele>16.4</ele>
        <time>2021-07-04 09:26:51</time>
      </trkpt>
      <trkpt lat="28.95725" lon="-13.83105">
        <ele>16.4</ele>
        <time>2021-07-04 09:26:52</time>
      </trkpt>
      <trkpt lat="28.95729" lon="-13.83102">
        <ele>16</ele>
        <time>2021-07-04 09:26:53</time>
      </trkpt>
      <trkpt lat="28.95733" lon="-13.83099">
        <ele>16</ele>
        <time>2021-07-04 09:26:54</time>
      </trkpt>
      <trkpt lat="28.95738" lon="-13.83096">
        <ele>15.8</ele>
        <time>2021-07-04 09:26:55</time>
      </trkpt>
      <trkpt lat="28.95742" lon="-13.83092">
        <ele>15.8</ele>
        <time>2021-07-04 09:26:56</time>
      </trkpt>
      <trkpt lat="28.95746" lon="-13.83089">
        <ele>15.4</ele>
        <time>2021-07-04 09:26:57</time>
      </trkpt>
      <trkpt lat="28.9575" lon="-13.83086">
        <ele>15</ele>
        <time>2021-07-04 09:26:58</time>
      </trkpt>
      <trkpt lat="28.95754" lon="-13.83082">
        <ele>14.8</ele>
        <time>2021-07-04 09:26:59</time>
      </trkpt>
      <trkpt lat="28.95759" lon="-13.83079">
        <ele>14.8</ele>
        <time>2021-07-04 09:27:00</time>
      </trkpt>
      <trkpt lat="28.95763" lon="-13.83075">
        <ele>14.4</ele>
        <time>2021-07-04 09:27:01</time>
      </trkpt>
      <trkpt lat="28.95767" lon="-13.83072">
        <ele>14.4</ele>
        <time>2021-07-04 09:27:02</time>
      </trkpt>
      <trkpt lat="28.95771" lon="-13.83068">
        <ele>14</ele>
        <time>2021-07-04 09:27:03</time>
      </trkpt>
      <trkpt lat="28.95775" lon="-13.83064">
        <ele>14</ele>
        <time>2021-07-04 09:27:04</time>
      </trkpt>
      <trkpt lat="28.95779" lon="-13.8306">
        <ele>14</ele>
        <time>2021-07-04 09:27:05</time>
      </trkpt>
      <trkpt lat="28.95783" lon="-13.83056">
        <ele>13.8</ele>
        <time>2021-07-04 09:27:06</time>
      </trkpt>
      <trkpt lat="28.95787" lon="-13.83053">
        <ele>13.8</ele>
        <time>2021-07-04 09:27:07</time>
      </trkpt>
      <trkpt lat="28.9579" lon="-13.83049">
        <ele>13.8</ele>
        <time>2021-07-04 09:27:08</time>
      </trkpt>
      <trkpt lat="28.95794" lon="-13.83045">
        <ele>13.8</ele>
        <time>2021-07-04 09:27:09</time>
      </trkpt>
      <trkpt lat="28.95799" lon="-13.83041">
        <ele>13.6</ele>
        <time>2021-07-04 09:27:10</time>
      </trkpt>
      <trkpt lat="28.95803" lon="-13.83037">
        <ele>13.6</ele>
        <time>2021-07-04 09:27:11</time>
      </trkpt>
      <trkpt lat="28.95807" lon="-13.83034">
        <ele>13.6</ele>
        <time>2021-07-04 09:27:12</time>
      </trkpt>
      <trkpt lat="28.95811" lon="-13.8303">
        <ele>13.4</ele>
        <time>2021-07-04 09:27:13</time>
      </trkpt>
      <trkpt lat="28.95814" lon="-13.83025">
        <ele>13.4</ele>
        <time>2021-07-04 09:27:14</time>
      </trkpt>
      <trkpt lat="28.95818" lon="-13.83022">
        <ele>13.4</ele>
        <time>2021-07-04 09:27:15</time>
      </trkpt>
      <trkpt lat="28.95822" lon="-13.83018">
        <ele>13</ele>
        <time>2021-07-04 09:27:16</time>
      </trkpt>
      <trkpt lat="28.95826" lon="-13.83014">
        <ele>13</ele>
        <time>2021-07-04 09:27:17</time>
      </trkpt>
      <trkpt lat="28.9583" lon="-13.8301">
        <ele>13</ele>
        <time>2021-07-04 09:27:18</time>
      </trkpt>
      <trkpt lat="28.95834" lon="-13.83007">
        <ele>12.8</ele>
        <time>2021-07-04 09:27:19</time>
      </trkpt>
      <trkpt lat="28.95837" lon="-13.83003">
        <ele>12.8</ele>
        <time>2021-07-04 09:27:20</time>
      </trkpt>
      <trkpt lat="28.95841" lon="-13.82999">
        <ele>12.8</ele>
        <time>2021-07-04 09:27:21</time>
      </trkpt>
      <trkpt lat="28.95845" lon="-13.82995">
        <ele>12.8</ele>
        <time>2021-07-04 09:27:22</time>
      </trkpt>
      <trkpt lat="28.95848" lon="-13.82991">
        <ele>12.8</ele>
        <time>2021-07-04 09:27:23</time>
      </trkpt>
      <trkpt lat="28.95852" lon="-13.82988">
        <ele>12.8</ele>
        <time>2021-07-04 09:27:24</time>
      </trkpt>
      <trkpt lat="28.95855" lon="-13.82984">
        <ele>12.8</ele>
        <time>2021-07-04 09:27:25</time>
      </trkpt>
      <trkpt lat="28.95858" lon="-13.8298">
        <ele>12.8</ele>
        <time>2021-07-04 09:27:26</time>
      </trkpt>
      <trkpt lat="28.95862" lon="-13.82976">
        <ele>12.8</ele>
        <time>2021-07-04 09:27:27</time>
      </trkpt>
      <trkpt lat="28.95865" lon="-13.82973">
        <ele>12.8</ele>
        <time>2021-07-04 09:27:28</time>
      </trkpt>
      <trkpt lat="28.95868" lon="-13.8297">
        <ele>12.6</ele>
        <time>2021-07-04 09:27:29</time>
      </trkpt>
      <trkpt lat="28.95872" lon="-13.82967">
        <ele>12.6</ele>
        <time>2021-07-04 09:27:30</time>
      </trkpt>
      <trkpt lat="28.95875" lon="-13.82963">
        <ele>12.2</ele>
        <time>2021-07-04 09:27:31</time>
      </trkpt>
      <trkpt lat="28.95878" lon="-13.8296">
        <ele>12.2</ele>
        <time>2021-07-04 09:27:32</time>
      </trkpt>
      <trkpt lat="28.95882" lon="-13.82957">
        <ele>12.2</ele>
        <time>2021-07-04 09:27:33</time>
      </trkpt>
      <trkpt lat="28.95885" lon="-13.82954">
        <ele>12.2</ele>
        <time>2021-07-04 09:27:34</time>
      </trkpt>
      <trkpt lat="28.95888" lon="-13.82951">
        <ele>12</ele>
        <time>2021-07-04 09:27:35</time>
      </trkpt>
      <trkpt lat="28.95892" lon="-13.82948">
        <ele>12</ele>
        <time>2021-07-04 09:27:36</time>
      </trkpt>
      <trkpt lat="28.95895" lon="-13.82945">
        <ele>12</ele>
        <time>2021-07-04 09:27:37</time>
      </trkpt>
      <trkpt lat="28.95898" lon="-13.82941">
        <ele>12</ele>
        <time>2021-07-04 09:27:38</time>
      </trkpt>
      <trkpt lat="28.95901" lon="-13.82938">
        <ele>12</ele>
        <time>2021-07-04 09:27:39</time>
      </trkpt>
      <trkpt lat="28.95904" lon="-13.82935">
        <ele>11.8</ele>
        <time>2021-07-04 09:27:40</time>
      </trkpt>
      <trkpt lat="28.95908" lon="-13.82932">
        <ele>11.8</ele>
        <time>2021-07-04 09:27:41</time>
      </trkpt>
      <trkpt lat="28.95911" lon="-13.82929">
        <ele>11.8</ele>
        <time>2021-07-04 09:27:42</time>
      </trkpt>
      <trkpt lat="28.95914" lon="-13.82926">
        <ele>11.8</ele>
        <time>2021-07-04 09:27:43</time>
      </trkpt>
      <trkpt lat="28.95918" lon="-13.82923">
        <ele>11.8</ele>
        <time>2021-07-04 09:27:44</time>
      </trkpt>
      <trkpt lat="28.95921" lon="-13.82921">
        <ele>11.8</ele>
        <time>2021-07-04 09:27:45</time>
      </trkpt>
      <trkpt lat="28.95925" lon="-13.82918">
        <ele>11.8</ele>
        <time>2021-07-04 09:27:46</time>
      </trkpt>
      <trkpt lat="28.95928" lon="-13.82915">
        <ele>11.8</ele>
        <time>2021-07-04 09:27:47</time>
      </trkpt>
      <trkpt lat="28.95931" lon="-13.82913">
        <ele>11.8</ele>
        <time>2021-07-04 09:27:48</time>
      </trkpt>
      <trkpt lat="28.95934" lon="-13.8291">
        <ele>11.8</ele>
        <time>2021-07-04 09:27:49</time>
      </trkpt>
      <trkpt lat="28.95938" lon="-13.82908">
        <ele>11.6</ele>
        <time>2021-07-04 09:27:50</time>
      </trkpt>
      <trkpt lat="28.95941" lon="-13.82906">
        <ele>11.6</ele>
        <time>2021-07-04 09:27:51</time>
      </trkpt>
      <trkpt lat="28.95945" lon="-13.82904">
        <ele>11.6</ele>
        <time>2021-07-04 09:27:52</time>
      </trkpt>
      <trkpt lat="28.95949" lon="-13.82903">
        <ele>11.4</ele>
        <time>2021-07-04 09:27:53</time>
      </trkpt>
      <trkpt lat="28.95953" lon="-13.82901">
        <ele>11.4</ele>
        <time>2021-07-04 09:27:54</time>
      </trkpt>
      <trkpt lat="28.95956" lon="-13.829">
        <ele>11.4</ele>
        <time>2021-07-04 09:27:55</time>
      </trkpt>
      <trkpt lat="28.9596" lon="-13.82899">
        <ele>11.4</ele>
        <time>2021-07-04 09:27:56</time>
      </trkpt>
      <trkpt lat="28.95964" lon="-13.82897">
        <ele>11.4</ele>
        <time>2021-07-04 09:27:57</time>
      </trkpt>
      <trkpt lat="28.95968" lon="-13.82896">
        <ele>11</ele>
        <time>2021-07-04 09:27:58</time>
      </trkpt>
      <trkpt lat="28.95972" lon="-13.82895">
        <ele>11</ele>
        <time>2021-07-04 09:27:59</time>
      </trkpt>
      <trkpt lat="28.95976" lon="-13.82895">
        <ele>11</ele>
        <time>2021-07-04 09:28:00</time>
      </trkpt>
      <trkpt lat="28.95979" lon="-13.82894">
        <ele>10.8</ele>
        <time>2021-07-04 09:28:01</time>
      </trkpt>
      <trkpt lat="28.95983" lon="-13.82893">
        <ele>10.8</ele>
        <time>2021-07-04 09:28:02</time>
      </trkpt>
      <trkpt lat="28.95986" lon="-13.82892">
        <ele>10.8</ele>
        <time>2021-07-04 09:28:03</time>
      </trkpt>
      <trkpt lat="28.95989" lon="-13.82891">
        <ele>10.8</ele>
        <time>2021-07-04 09:28:04</time>
      </trkpt>
      <trkpt lat="28.95993" lon="-13.8289">
        <ele>10.8</ele>
        <time>2021-07-04 09:28:05</time>
      </trkpt>
      <trkpt lat="28.95996" lon="-13.8289">
        <ele>10.8</ele>
        <time>2021-07-04 09:28:06</time>
      </trkpt>
      <trkpt lat="28.95999" lon="-13.82889">
        <ele>10.8</ele>
        <time>2021-07-04 09:28:07</time>
      </trkpt>
      <trkpt lat="28.96002" lon="-13.82889">
        <ele>10.8</ele>
        <time>2021-07-04 09:28:08</time>
      </trkpt>
      <trkpt lat="28.96006" lon="-13.82889">
        <ele>11.2</ele>
        <time>2021-07-04 09:28:09</time>
      </trkpt>
      <trkpt lat="28.96009" lon="-13.82888">
        <ele>11.2</ele>
        <time>2021-07-04 09:28:10</time>
      </trkpt>
      <trkpt lat="28.96012" lon="-13.82888">
        <ele>11.2</ele>
        <time>2021-07-04 09:28:11</time>
      </trkpt>
      <trkpt lat="28.96015" lon="-13.82888">
        <ele>11.2</ele>
        <time>2021-07-04 09:28:12</time>
      </trkpt>
      <trkpt lat="28.96019" lon="-13.82887">
        <ele>11.2</ele>
        <time>2021-07-04 09:28:13</time>
      </trkpt>
      <trkpt lat="28.96022" lon="-13.82887">
        <ele>11.2</ele>
        <time>2021-07-04 09:28:14</time>
      </trkpt>
      <trkpt lat="28.96025" lon="-13.82886">
        <ele>11.4</ele>
        <time>2021-07-04 09:28:15</time>
      </trkpt>
      <trkpt lat="28.96028" lon="-13.82885">
        <ele>11.4</ele>
        <time>2021-07-04 09:28:16</time>
      </trkpt>
      <trkpt lat="28.96032" lon="-13.82885">
        <ele>11.4</ele>
        <time>2021-07-04 09:28:17</time>
      </trkpt>
      <trkpt lat="28.96035" lon="-13.82884">
        <ele>11.6</ele>
        <time>2021-07-04 09:28:18</time>
      </trkpt>
      <trkpt lat="28.96038" lon="-13.82884">
        <ele>11.6</ele>
        <time>2021-07-04 09:28:19</time>
      </trkpt>
      <trkpt lat="28.96041" lon="-13.82883">
        <ele>11.6</ele>
        <time>2021-07-04 09:28:20</time>
      </trkpt>
      <trkpt lat="28.96045" lon="-13.82882">
        <ele>11.6</ele>
        <time>2021-07-04 09:28:21</time>
      </trkpt>
      <trkpt lat="28.96048" lon="-13.82882">
        <ele>11.6</ele>
        <time>2021-07-04 09:28:22</time>
      </trkpt>
      <trkpt lat="28.96052" lon="-13.82881">
        <ele>11.8</ele>
        <time>2021-07-04 09:28:23</time>
      </trkpt>
      <trkpt lat="28.96055" lon="-13.82881">
        <ele>11.8</ele>
        <time>2021-07-04 09:28:24</time>
      </trkpt>
      <trkpt lat="28.96059" lon="-13.82881">
        <ele>11.8</ele>
        <time>2021-07-04 09:28:25</time>
      </trkpt>
      <trkpt lat="28.96063" lon="-13.82881">
        <ele>11.6</ele>
        <time>2021-07-04 09:28:26</time>
      </trkpt>
      <trkpt lat="28.96067" lon="-13.82881">
        <ele>11.6</ele>
        <time>2021-07-04 09:28:27</time>
      </trkpt>
      <trkpt lat="28.9607" lon="-13.82881">
        <ele>11.6</ele>
        <time>2021-07-04 09:28:28</time>
      </trkpt>
      <trkpt lat="28.96074" lon="-13.82881">
        <ele>11.6</ele>
        <time>2021-07-04 09:28:29</time>
      </trkpt>
      <trkpt lat="28.96078" lon="-13.82881">
        <ele>11.6</ele>
        <time>2021-07-04 09:28:30</time>
      </trkpt>
      <trkpt lat="28.96082" lon="-13.8288">
        <ele>11.6</ele>
        <time>2021-07-04 09:28:31</time>
      </trkpt>
      <trkpt lat="28.96085" lon="-13.8288">
        <ele>11.8</ele>
        <time>2021-07-04 09:28:32</time>
      </trkpt>
      <trkpt lat="28.96089" lon="-13.8288">
        <ele>11.8</ele>
        <time>2021-07-04 09:28:33</time>
      </trkpt>
      <trkpt lat="28.96093" lon="-13.8288">
        <ele>12.2</ele>
        <time>2021-07-04 09:28:34</time>
      </trkpt>
      <trkpt lat="28.96097" lon="-13.8288">
        <ele>12.2</ele>
        <time>2021-07-04 09:28:35</time>
      </trkpt>
      <trkpt lat="28.961" lon="-13.8288">
        <ele>12.4</ele>
        <time>2021-07-04 09:28:36</time>
      </trkpt>
      <trkpt lat="28.96104" lon="-13.8288">
        <ele>12.4</ele>
        <time>2021-07-04 09:28:37</time>
      </trkpt>
      <trkpt lat="28.96107" lon="-13.8288">
        <ele>12.4</ele>
        <time>2021-07-04 09:28:38</time>
      </trkpt>
      <trkpt lat="28.96111" lon="-13.82879">
        <ele>12</ele>
        <time>2021-07-04 09:28:39</time>
      </trkpt>
      <trkpt lat="28.96115" lon="-13.82879">
        <ele>12</ele>
        <time>2021-07-04 09:28:40</time>
      </trkpt>
      <trkpt lat="28.96119" lon="-13.82879">
        <ele>11.8</ele>
        <time>2021-07-04 09:28:41</time>
      </trkpt>
      <trkpt lat="28.96122" lon="-13.82879">
        <ele>11.8</ele>
        <time>2021-07-04 09:28:42</time>
      </trkpt>
      <trkpt lat="28.96126" lon="-13.82879">
        <ele>11.6</ele>
        <time>2021-07-04 09:28:43</time>
      </trkpt>
      <trkpt lat="28.9613" lon="-13.82879">
        <ele>11.6</ele>
        <time>2021-07-04 09:28:44</time>
      </trkpt>
      <trkpt lat="28.96133" lon="-13.82879">
        <ele>11.6</ele>
        <time>2021-07-04 09:28:45</time>
      </trkpt>
      <trkpt lat="28.96137" lon="-13.82879">
        <ele>11.6</ele>
        <time>2021-07-04 09:28:46</time>
      </trkpt>
      <trkpt lat="28.9614" lon="-13.82879">
        <ele>11.6</ele>
        <time>2021-07-04 09:28:47</time>
      </trkpt>
      <trkpt lat="28.96144" lon="-13.82879">
        <ele>11.6</ele>
        <time>2021-07-04 09:28:48</time>
      </trkpt>
      <trkpt lat="28.96147" lon="-13.82879">
        <ele>11.6</ele>
        <time>2021-07-04 09:28:49</time>
      </trkpt>
      <trkpt lat="28.96149" lon="-13.8288">
        <ele>11.8</ele>
        <time>2021-07-04 09:28:50</time>
      </trkpt>
      <trkpt lat="28.96152" lon="-13.8288">
        <ele>11.8</ele>
        <time>2021-07-04 09:28:51</time>
      </trkpt>
      <trkpt lat="28.96155" lon="-13.8288">
        <ele>11.8</ele>
        <time>2021-07-04 09:28:52</time>
      </trkpt>
      <trkpt lat="28.96158" lon="-13.82881">
        <ele>12</ele>
        <time>2021-07-04 09:28:53</time>
      </trkpt>
      <trkpt lat="28.9616" lon="-13.82881">
        <ele>12</ele>
        <time>2021-07-04 09:28:54</time>
      </trkpt>
      <trkpt lat="28.96163" lon="-13.82882">
        <ele>12</ele>
        <time>2021-07-04 09:28:55</time>
      </trkpt>
      <trkpt lat="28.96166" lon="-13.82882">
        <ele>12.4</ele>
        <time>2021-07-04 09:28:56</time>
      </trkpt>
      <trkpt lat="28.96169" lon="-13.82882">
        <ele>12.4</ele>
        <time>2021-07-04 09:28:57</time>
      </trkpt>
      <trkpt lat="28.96171" lon="-13.82883">
        <ele>12.6</ele>
        <time>2021-07-04 09:28:58</time>
      </trkpt>
      <trkpt lat="28.96174" lon="-13.82883">
        <ele>12.8</ele>
        <time>2021-07-04 09:28:59</time>
      </trkpt>
      <trkpt lat="28.96174" lon="-13.82883">
        <ele>13</ele>
        <time>2021-07-04 09:29:00</time>
      </trkpt>
      <trkpt lat="28.96179" lon="-13.82883">
        <ele>13</ele>
        <time>2021-07-04 09:29:01</time>
      </trkpt>
      <trkpt lat="28.96182" lon="-13.82883">
        <ele>13.4</ele>
        <time>2021-07-04 09:29:02</time>
      </trkpt>
      <trkpt lat="28.96184" lon="-13.82884">
        <ele>13.4</ele>
        <time>2021-07-04 09:29:03</time>
      </trkpt>
      <trkpt lat="28.96187" lon="-13.82884">
        <ele>13.6</ele>
        <time>2021-07-04 09:29:04</time>
      </trkpt>
      <trkpt lat="28.9619" lon="-13.82884">
        <ele>13.6</ele>
        <time>2021-07-04 09:29:05</time>
      </trkpt>
      <trkpt lat="28.96192" lon="-13.82884">
        <ele>13.8</ele>
        <time>2021-07-04 09:29:06</time>
      </trkpt>
      <trkpt lat="28.96195" lon="-13.82884">
        <ele>13.8</ele>
        <time>2021-07-04 09:29:07</time>
      </trkpt>
      <trkpt lat="28.96197" lon="-13.82885">
        <ele>14.4</ele>
        <time>2021-07-04 09:29:08</time>
      </trkpt>
      <trkpt lat="28.962" lon="-13.82885">
        <ele>14.6</ele>
        <time>2021-07-04 09:29:09</time>
      </trkpt>
      <trkpt lat="28.96202" lon="-13.82885">
        <ele>14.8</ele>
        <time>2021-07-04 09:29:10</time>
      </trkpt>
      <trkpt lat="28.96205" lon="-13.82886">
        <ele>15</ele>
        <time>2021-07-04 09:29:11</time>
      </trkpt>
      <trkpt lat="28.96207" lon="-13.82886">
        <ele>15.4</ele>
        <time>2021-07-04 09:29:12</time>
      </trkpt>
      <trkpt lat="28.9621" lon="-13.82886">
        <ele>15.6</ele>
        <time>2021-07-04 09:29:13</time>
      </trkpt>
      <trkpt lat="28.96213" lon="-13.82886">
        <ele>15.6</ele>
        <time>2021-07-04 09:29:14</time>
      </trkpt>
      <trkpt lat="28.96216" lon="-13.82885">
        <ele>15.8</ele>
        <time>2021-07-04 09:29:15</time>
      </trkpt>
      <trkpt lat="28.96218" lon="-13.82885">
        <ele>15.8</ele>
        <time>2021-07-04 09:29:16</time>
      </trkpt>
      <trkpt lat="28.96221" lon="-13.82886">
        <ele>16.2</ele>
        <time>2021-07-04 09:29:17</time>
      </trkpt>
      <trkpt lat="28.96224" lon="-13.82886">
        <ele>16.2</ele>
        <time>2021-07-04 09:29:18</time>
      </trkpt>
      <trkpt lat="28.96227" lon="-13.82887">
        <ele>16.6</ele>
        <time>2021-07-04 09:29:19</time>
      </trkpt>
      <trkpt lat="28.96229" lon="-13.82887">
        <ele>16.6</ele>
        <time>2021-07-04 09:29:20</time>
      </trkpt>
      <trkpt lat="28.96232" lon="-13.82887">
        <ele>17</ele>
        <time>2021-07-04 09:29:21</time>
      </trkpt>
      <trkpt lat="28.96235" lon="-13.82887">
        <ele>17</ele>
        <time>2021-07-04 09:29:22</time>
      </trkpt>
      <trkpt lat="28.96237" lon="-13.82888">
        <ele>17.2</ele>
        <time>2021-07-04 09:29:23</time>
      </trkpt>
      <trkpt lat="28.9624" lon="-13.82888">
        <ele>17.2</ele>
        <time>2021-07-04 09:29:24</time>
      </trkpt>
      <trkpt lat="28.96243" lon="-13.82889">
        <ele>17.6</ele>
        <time>2021-07-04 09:29:25</time>
      </trkpt>
      <trkpt lat="28.96246" lon="-13.82889">
        <ele>17.6</ele>
        <time>2021-07-04 09:29:26</time>
      </trkpt>
      <trkpt lat="28.96248" lon="-13.82889">
        <ele>17.8</ele>
        <time>2021-07-04 09:29:27</time>
      </trkpt>
      <trkpt lat="28.96251" lon="-13.82889">
        <ele>17.8</ele>
        <time>2021-07-04 09:29:28</time>
      </trkpt>
      <trkpt lat="28.96254" lon="-13.8289">
        <ele>17.8</ele>
        <time>2021-07-04 09:29:29</time>
      </trkpt>
      <trkpt lat="28.96256" lon="-13.8289">
        <ele>18.2</ele>
        <time>2021-07-04 09:29:30</time>
      </trkpt>
      <trkpt lat="28.96259" lon="-13.82891">
        <ele>18.2</ele>
        <time>2021-07-04 09:29:31</time>
      </trkpt>
      <trkpt lat="28.96262" lon="-13.82891">
        <ele>18.2</ele>
        <time>2021-07-04 09:29:32</time>
      </trkpt>
      <trkpt lat="28.96265" lon="-13.82892">
        <ele>18.4</ele>
        <time>2021-07-04 09:29:33</time>
      </trkpt>
      <trkpt lat="28.96267" lon="-13.82892">
        <ele>18.4</ele>
        <time>2021-07-04 09:29:34</time>
      </trkpt>
      <trkpt lat="28.9627" lon="-13.82893">
        <ele>18.4</ele>
        <time>2021-07-04 09:29:35</time>
      </trkpt>
      <trkpt lat="28.96273" lon="-13.82894">
        <ele>18.4</ele>
        <time>2021-07-04 09:29:36</time>
      </trkpt>
      <trkpt lat="28.96275" lon="-13.82894">
        <ele>18.6</ele>
        <time>2021-07-04 09:29:37</time>
      </trkpt>
      <trkpt lat="28.96278" lon="-13.82894">
        <ele>18.6</ele>
        <time>2021-07-04 09:29:38</time>
      </trkpt>
      <trkpt lat="28.9628" lon="-13.82895">
        <ele>18.6</ele>
        <time>2021-07-04 09:29:39</time>
      </trkpt>
      <trkpt lat="28.96283" lon="-13.82895">
        <ele>18.8</ele>
        <time>2021-07-04 09:29:40</time>
      </trkpt>
      <trkpt lat="28.96285" lon="-13.82896">
        <ele>18.8</ele>
        <time>2021-07-04 09:29:41</time>
      </trkpt>
      <trkpt lat="28.96288" lon="-13.82897">
        <ele>19</ele>
        <time>2021-07-04 09:29:42</time>
      </trkpt>
      <trkpt lat="28.96291" lon="-13.82897">
        <ele>19</ele>
        <time>2021-07-04 09:29:43</time>
      </trkpt>
      <trkpt lat="28.96294" lon="-13.82898">
        <ele>19.2</ele>
        <time>2021-07-04 09:29:44</time>
      </trkpt>
      <trkpt lat="28.96296" lon="-13.82898">
        <ele>19.2</ele>
        <time>2021-07-04 09:29:45</time>
      </trkpt>
      <trkpt lat="28.96299" lon="-13.82898">
        <ele>19.2</ele>
        <time>2021-07-04 09:29:46</time>
      </trkpt>
      <trkpt lat="28.96302" lon="-13.82899">
        <ele>19.6</ele>
        <time>2021-07-04 09:29:47</time>
      </trkpt>
      <trkpt lat="28.96305" lon="-13.82899">
        <ele>19.6</ele>
        <time>2021-07-04 09:29:48</time>
      </trkpt>
      <trkpt lat="28.96308" lon="-13.829">
        <ele>19.6</ele>
        <time>2021-07-04 09:29:49</time>
      </trkpt>
      <trkpt lat="28.96311" lon="-13.82901">
        <ele>19.6</ele>
        <time>2021-07-04 09:29:50</time>
      </trkpt>
      <trkpt lat="28.96313" lon="-13.82902">
        <ele>19.6</ele>
        <time>2021-07-04 09:29:51</time>
      </trkpt>
      <trkpt lat="28.96316" lon="-13.82903">
        <ele>19.8</ele>
        <time>2021-07-04 09:29:52</time>
      </trkpt>
      <trkpt lat="28.96319" lon="-13.82904">
        <ele>19.8</ele>
        <time>2021-07-04 09:29:53</time>
      </trkpt>
      <trkpt lat="28.96322" lon="-13.82904">
        <ele>19.8</ele>
        <time>2021-07-04 09:29:54</time>
      </trkpt>
      <trkpt lat="28.96325" lon="-13.82904">
        <ele>19.8</ele>
        <time>2021-07-04 09:29:55</time>
      </trkpt>
      <trkpt lat="28.96328" lon="-13.82905">
        <ele>19.8</ele>
        <time>2021-07-04 09:29:56</time>
      </trkpt>
      <trkpt lat="28.96331" lon="-13.82905">
        <ele>19.8</ele>
        <time>2021-07-04 09:29:57</time>
      </trkpt>
      <trkpt lat="28.96335" lon="-13.82906">
        <ele>20</ele>
        <time>2021-07-04 09:29:58</time>
      </trkpt>
      <trkpt lat="28.96338" lon="-13.82906">
        <ele>20</ele>
        <time>2021-07-04 09:29:59</time>
      </trkpt>
      <trkpt lat="28.96341" lon="-13.82907">
        <ele>20</ele>
        <time>2021-07-04 09:30:00</time>
      </trkpt>
      <trkpt lat="28.96344" lon="-13.82908">
        <ele>20.2</ele>
        <time>2021-07-04 09:30:01</time>
      </trkpt>
      <trkpt lat="28.96347" lon="-13.82908">
        <ele>20.2</ele>
        <time>2021-07-04 09:30:02</time>
      </trkpt>
      <trkpt lat="28.9635" lon="-13.82909">
        <ele>20.2</ele>
        <time>2021-07-04 09:30:03</time>
      </trkpt>
      <trkpt lat="28.96353" lon="-13.8291">
        <ele>20.6</ele>
        <time>2021-07-04 09:30:04</time>
      </trkpt>
      <trkpt lat="28.96356" lon="-13.8291">
        <ele>20.6</ele>
        <time>2021-07-04 09:30:05</time>
      </trkpt>
      <trkpt lat="28.9636" lon="-13.82911">
        <ele>20.8</ele>
        <time>2021-07-04 09:30:06</time>
      </trkpt>
      <trkpt lat="28.96362" lon="-13.82912">
        <ele>20.8</ele>
        <time>2021-07-04 09:30:07</time>
      </trkpt>
      <trkpt lat="28.96365" lon="-13.82912">
        <ele>21.2</ele>
        <time>2021-07-04 09:30:08</time>
      </trkpt>
      <trkpt lat="28.96368" lon="-13.82913">
        <ele>21.2</ele>
        <time>2021-07-04 09:30:09</time>
      </trkpt>
      <trkpt lat="28.96371" lon="-13.82913">
        <ele>21.6</ele>
        <time>2021-07-04 09:30:10</time>
      </trkpt>
      <trkpt lat="28.96374" lon="-13.82914">
        <ele>21.6</ele>
        <time>2021-07-04 09:30:11</time>
      </trkpt>
      <trkpt lat="28.96377" lon="-13.82915">
        <ele>22</ele>
        <time>2021-07-04 09:30:12</time>
      </trkpt>
      <trkpt lat="28.9638" lon="-13.82915">
        <ele>22</ele>
        <time>2021-07-04 09:30:13</time>
      </trkpt>
      <trkpt lat="28.96383" lon="-13.82916">
        <ele>22.2</ele>
        <time>2021-07-04 09:30:14</time>
      </trkpt>
      <trkpt lat="28.96386" lon="-13.82917">
        <ele>22.2</ele>
        <time>2021-07-04 09:30:15</time>
      </trkpt>
      <trkpt lat="28.96389" lon="-13.82917">
        <ele>22.2</ele>
        <time>2021-07-04 09:30:16</time>
      </trkpt>
      <trkpt lat="28.96392" lon="-13.82918">
        <ele>22.2</ele>
        <time>2021-07-04 09:30:17</time>
      </trkpt>
      <trkpt lat="28.96395" lon="-13.82918">
        <ele>22.2</ele>
        <time>2021-07-04 09:30:18</time>
      </trkpt>
      <trkpt lat="28.96398" lon="-13.82919">
        <ele>22.2</ele>
        <time>2021-07-04 09:30:19</time>
      </trkpt>
      <trkpt lat="28.96401" lon="-13.8292">
        <ele>22.2</ele>
        <time>2021-07-04 09:30:20</time>
      </trkpt>
      <trkpt lat="28.96403" lon="-13.82921">
        <ele>22.2</ele>
        <time>2021-07-04 09:30:21</time>
      </trkpt>
      <trkpt lat="28.96406" lon="-13.82921">
        <ele>22.2</ele>
        <time>2021-07-04 09:30:22</time>
      </trkpt>
      <trkpt lat="28.96409" lon="-13.82922">
        <ele>22.4</ele>
        <time>2021-07-04 09:30:23</time>
      </trkpt>
      <trkpt lat="28.96412" lon="-13.82922">
        <ele>22.4</ele>
        <time>2021-07-04 09:30:24</time>
      </trkpt>
      <trkpt lat="28.96415" lon="-13.82923">
        <ele>22.4</ele>
        <time>2021-07-04 09:30:25</time>
      </trkpt>
      <trkpt lat="28.96418" lon="-13.82923">
        <ele>22.4</ele>
        <time>2021-07-04 09:30:26</time>
      </trkpt>
      <trkpt lat="28.96421" lon="-13.82924">
        <ele>22.4</ele>
        <time>2021-07-04 09:30:27</time>
      </trkpt>
      <trkpt lat="28.96423" lon="-13.82924">
        <ele>22.6</ele>
        <time>2021-07-04 09:30:28</time>
      </trkpt>
      <trkpt lat="28.96426" lon="-13.82924">
        <ele>22.6</ele>
        <time>2021-07-04 09:30:29</time>
      </trkpt>
      <trkpt lat="28.96428" lon="-13.82925">
        <ele>23</ele>
        <time>2021-07-04 09:30:30</time>
      </trkpt>
      <trkpt lat="28.96431" lon="-13.82926">
        <ele>23</ele>
        <time>2021-07-04 09:30:31</time>
      </trkpt>
      <trkpt lat="28.96434" lon="-13.82926">
        <ele>23.4</ele>
        <time>2021-07-04 09:30:32</time>
      </trkpt>
      <trkpt lat="28.96436" lon="-13.82927">
        <ele>23.4</ele>
        <time>2021-07-04 09:30:33</time>
      </trkpt>
      <trkpt lat="28.96439" lon="-13.82928">
        <ele>23.6</ele>
        <time>2021-07-04 09:30:34</time>
      </trkpt>
      <trkpt lat="28.96441" lon="-13.82929">
        <ele>23.6</ele>
        <time>2021-07-04 09:30:35</time>
      </trkpt>
      <trkpt lat="28.96444" lon="-13.82929">
        <ele>24</ele>
        <time>2021-07-04 09:30:36</time>
      </trkpt>
      <trkpt lat="28.96446" lon="-13.8293">
        <ele>24</ele>
        <time>2021-07-04 09:30:37</time>
      </trkpt>
      <trkpt lat="28.96449" lon="-13.82931">
        <ele>24.2</ele>
        <time>2021-07-04 09:30:38</time>
      </trkpt>
      <trkpt lat="28.96452" lon="-13.82932">
        <ele>24.2</ele>
        <time>2021-07-04 09:30:39</time>
      </trkpt>
      <trkpt lat="28.96454" lon="-13.82932">
        <ele>24.2</ele>
        <time>2021-07-04 09:30:40</time>
      </trkpt>
      <trkpt lat="28.96457" lon="-13.82933">
        <ele>24.6</ele>
        <time>2021-07-04 09:30:41</time>
      </trkpt>
      <trkpt lat="28.9646" lon="-13.82934">
        <ele>24.6</ele>
        <time>2021-07-04 09:30:42</time>
      </trkpt>
      <trkpt lat="28.96462" lon="-13.82935">
        <ele>24.8</ele>
        <time>2021-07-04 09:30:43</time>
      </trkpt>
      <trkpt lat="28.96465" lon="-13.82936">
        <ele>24.8</ele>
        <time>2021-07-04 09:30:44</time>
      </trkpt>
      <trkpt lat="28.96467" lon="-13.82936">
        <ele>25.2</ele>
        <time>2021-07-04 09:30:45</time>
      </trkpt>
      <trkpt lat="28.9647" lon="-13.82937">
        <ele>25.2</ele>
        <time>2021-07-04 09:30:46</time>
      </trkpt>
      <trkpt lat="28.96473" lon="-13.82937">
        <ele>25.4</ele>
        <time>2021-07-04 09:30:47</time>
      </trkpt>
      <trkpt lat="28.96476" lon="-13.82938">
        <ele>25.4</ele>
        <time>2021-07-04 09:30:48</time>
      </trkpt>
      <trkpt lat="28.96479" lon="-13.82938">
        <ele>25.4</ele>
        <time>2021-07-04 09:30:49</time>
      </trkpt>
      <trkpt lat="28.96482" lon="-13.82939">
        <ele>25.6</ele>
        <time>2021-07-04 09:30:50</time>
      </trkpt>
      <trkpt lat="28.96485" lon="-13.82939">
        <ele>25.6</ele>
        <time>2021-07-04 09:30:51</time>
      </trkpt>
      <trkpt lat="28.96488" lon="-13.8294">
        <ele>26</ele>
        <time>2021-07-04 09:30:52</time>
      </trkpt>
      <trkpt lat="28.96491" lon="-13.8294">
        <ele>26</ele>
        <time>2021-07-04 09:30:53</time>
      </trkpt>
      <trkpt lat="28.96494" lon="-13.82941">
        <ele>26</ele>
        <time>2021-07-04 09:30:54</time>
      </trkpt>
      <trkpt lat="28.96497" lon="-13.82941">
        <ele>26.2</ele>
        <time>2021-07-04 09:30:55</time>
      </trkpt>
      <trkpt lat="28.965" lon="-13.82942">
        <ele>26.2</ele>
        <time>2021-07-04 09:30:56</time>
      </trkpt>
      <trkpt lat="28.96503" lon="-13.82942">
        <ele>26.2</ele>
        <time>2021-07-04 09:30:57</time>
      </trkpt>
      <trkpt lat="28.96506" lon="-13.82943">
        <ele>26.2</ele>
        <time>2021-07-04 09:30:58</time>
      </trkpt>
      <trkpt lat="28.9651" lon="-13.82943">
        <ele>26.2</ele>
        <time>2021-07-04 09:30:59</time>
      </trkpt>
      <trkpt lat="28.9651" lon="-13.82943">
        <ele>26.2</ele>
        <time>2021-07-04 09:31:00</time>
      </trkpt>
      <trkpt lat="28.96517" lon="-13.82942">
        <ele>26.2</ele>
        <time>2021-07-04 09:31:01</time>
      </trkpt>
      <trkpt lat="28.9652" lon="-13.82943">
        <ele>26.2</ele>
        <time>2021-07-04 09:31:02</time>
      </trkpt>
      <trkpt lat="28.96523" lon="-13.82944">
        <ele>26.2</ele>
        <time>2021-07-04 09:31:03</time>
      </trkpt>
      <trkpt lat="28.96526" lon="-13.82944">
        <ele>26.2</ele>
        <time>2021-07-04 09:31:04</time>
      </trkpt>
      <trkpt lat="28.96529" lon="-13.82945">
        <ele>26.2</ele>
        <time>2021-07-04 09:31:05</time>
      </trkpt>
      <trkpt lat="28.96533" lon="-13.82946">
        <ele>26.2</ele>
        <time>2021-07-04 09:31:06</time>
      </trkpt>
      <trkpt lat="28.96536" lon="-13.82946">
        <ele>26.2</ele>
        <time>2021-07-04 09:31:07</time>
      </trkpt>
      <trkpt lat="28.96539" lon="-13.82947">
        <ele>26.2</ele>
        <time>2021-07-04 09:31:08</time>
      </trkpt>
      <trkpt lat="28.96542" lon="-13.82948">
        <ele>26.2</ele>
        <time>2021-07-04 09:31:09</time>
      </trkpt>
      <trkpt lat="28.96545" lon="-13.82948">
        <ele>26.2</ele>
        <time>2021-07-04 09:31:10</time>
      </trkpt>
      <trkpt lat="28.96548" lon="-13.82949">
        <ele>26.2</ele>
        <time>2021-07-04 09:31:11</time>
      </trkpt>
      <trkpt lat="28.96552" lon="-13.82949">
        <ele>26.2</ele>
        <time>2021-07-04 09:31:12</time>
      </trkpt>
      <trkpt lat="28.96555" lon="-13.8295">
        <ele>26.2</ele>
        <time>2021-07-04 09:31:13</time>
      </trkpt>
      <trkpt lat="28.96558" lon="-13.82951">
        <ele>26.2</ele>
        <time>2021-07-04 09:31:14</time>
      </trkpt>
      <trkpt lat="28.96561" lon="-13.82951">
        <ele>26.4</ele>
        <time>2021-07-04 09:31:15</time>
      </trkpt>
      <trkpt lat="28.96564" lon="-13.82952">
        <ele>26.4</ele>
        <time>2021-07-04 09:31:16</time>
      </trkpt>
      <trkpt lat="28.96567" lon="-13.82952">
        <ele>26.8</ele>
        <time>2021-07-04 09:31:17</time>
      </trkpt>
      <trkpt lat="28.9657" lon="-13.82953">
        <ele>26.8</ele>
        <time>2021-07-04 09:31:18</time>
      </trkpt>
      <trkpt lat="28.96573" lon="-13.82953">
        <ele>27</ele>
        <time>2021-07-04 09:31:19</time>
      </trkpt>
      <trkpt lat="28.96576" lon="-13.82954">
        <ele>27</ele>
        <time>2021-07-04 09:31:20</time>
      </trkpt>
      <trkpt lat="28.96579" lon="-13.82955">
        <ele>27.2</ele>
        <time>2021-07-04 09:31:21</time>
      </trkpt>
      <trkpt lat="28.96581" lon="-13.82955">
        <ele>27.2</ele>
        <time>2021-07-04 09:31:22</time>
      </trkpt>
      <trkpt lat="28.96584" lon="-13.82956">
        <ele>27.4</ele>
        <time>2021-07-04 09:31:23</time>
      </trkpt>
      <trkpt lat="28.96587" lon="-13.82957">
        <ele>27.6</ele>
        <time>2021-07-04 09:31:24</time>
      </trkpt>
      <trkpt lat="28.9659" lon="-13.82958">
        <ele>27.8</ele>
        <time>2021-07-04 09:31:25</time>
      </trkpt>
      <trkpt lat="28.96593" lon="-13.82958">
        <ele>28</ele>
        <time>2021-07-04 09:31:26</time>
      </trkpt>
      <trkpt lat="28.96596" lon="-13.82959">
        <ele>28</ele>
        <time>2021-07-04 09:31:27</time>
      </trkpt>
      <trkpt lat="28.96599" lon="-13.82959">
        <ele>28.4</ele>
        <time>2021-07-04 09:31:28</time>
      </trkpt>
      <trkpt lat="28.96602" lon="-13.8296">
        <ele>28.6</ele>
        <time>2021-07-04 09:31:29</time>
      </trkpt>
      <trkpt lat="28.96605" lon="-13.8296">
        <ele>28.6</ele>
        <time>2021-07-04 09:31:30</time>
      </trkpt>
      <trkpt lat="28.96608" lon="-13.82961">
        <ele>29</ele>
        <time>2021-07-04 09:31:31</time>
      </trkpt>
      <trkpt lat="28.96611" lon="-13.82961">
        <ele>29</ele>
        <time>2021-07-04 09:31:32</time>
      </trkpt>
      <trkpt lat="28.96614" lon="-13.82962">
        <ele>29.4</ele>
        <time>2021-07-04 09:31:33</time>
      </trkpt>
      <trkpt lat="28.96617" lon="-13.82963">
        <ele>29.4</ele>
        <time>2021-07-04 09:31:34</time>
      </trkpt>
      <trkpt lat="28.9662" lon="-13.82963">
        <ele>29.6</ele>
        <time>2021-07-04 09:31:35</time>
      </trkpt>
      <trkpt lat="28.96624" lon="-13.82964">
        <ele>29.6</ele>
        <time>2021-07-04 09:31:36</time>
      </trkpt>
      <trkpt lat="28.96627" lon="-13.82965">
        <ele>29.8</ele>
        <time>2021-07-04 09:31:37</time>
      </trkpt>
      <trkpt lat="28.9663" lon="-13.82965">
        <ele>29.8</ele>
        <time>2021-07-04 09:31:38</time>
      </trkpt>
      <trkpt lat="28.96633" lon="-13.82966">
        <ele>30</ele>
        <time>2021-07-04 09:31:39</time>
      </trkpt>
      <trkpt lat="28.96636" lon="-13.82967">
        <ele>30</ele>
        <time>2021-07-04 09:31:40</time>
      </trkpt>
      <trkpt lat="28.96639" lon="-13.82967">
        <ele>30</ele>
        <time>2021-07-04 09:31:41</time>
      </trkpt>
      <trkpt lat="28.96642" lon="-13.82968">
        <ele>30.2</ele>
        <time>2021-07-04 09:31:42</time>
      </trkpt>
      <trkpt lat="28.96646" lon="-13.82968">
        <ele>30.2</ele>
        <time>2021-07-04 09:31:43</time>
      </trkpt>
      <trkpt lat="28.96649" lon="-13.82969">
        <ele>30.2</ele>
        <time>2021-07-04 09:31:44</time>
      </trkpt>
      <trkpt lat="28.96652" lon="-13.8297">
        <ele>30.2</ele>
        <time>2021-07-04 09:31:45</time>
      </trkpt>
      <trkpt lat="28.96656" lon="-13.82971">
        <ele>30.2</ele>
        <time>2021-07-04 09:31:46</time>
      </trkpt>
      <trkpt lat="28.96659" lon="-13.82972">
        <ele>30.4</ele>
        <time>2021-07-04 09:31:47</time>
      </trkpt>
      <trkpt lat="28.96662" lon="-13.82972">
        <ele>30.4</ele>
        <time>2021-07-04 09:31:48</time>
      </trkpt>
      <trkpt lat="28.96665" lon="-13.82973">
        <ele>30.4</ele>
        <time>2021-07-04 09:31:49</time>
      </trkpt>
      <trkpt lat="28.96669" lon="-13.82974">
        <ele>30.4</ele>
        <time>2021-07-04 09:31:50</time>
      </trkpt>
      <trkpt lat="28.96672" lon="-13.82974">
        <ele>30.4</ele>
        <time>2021-07-04 09:31:51</time>
      </trkpt>
      <trkpt lat="28.96676" lon="-13.82975">
        <ele>30.4</ele>
        <time>2021-07-04 09:31:52</time>
      </trkpt>
      <trkpt lat="28.96679" lon="-13.82976">
        <ele>30.8</ele>
        <time>2021-07-04 09:31:53</time>
      </trkpt>
      <trkpt lat="28.96683" lon="-13.82976">
        <ele>30.8</ele>
        <time>2021-07-04 09:31:54</time>
      </trkpt>
      <trkpt lat="28.96686" lon="-13.82977">
        <ele>30.8</ele>
        <time>2021-07-04 09:31:55</time>
      </trkpt>
      <trkpt lat="28.9669" lon="-13.82978">
        <ele>30.8</ele>
        <time>2021-07-04 09:31:56</time>
      </trkpt>
      <trkpt lat="28.96693" lon="-13.82978">
        <ele>30.8</ele>
        <time>2021-07-04 09:31:57</time>
      </trkpt>
      <trkpt lat="28.96696" lon="-13.82979">
        <ele>30.8</ele>
        <time>2021-07-04 09:31:58</time>
      </trkpt>
      <trkpt lat="28.967" lon="-13.8298">
        <ele>30.8</ele>
        <time>2021-07-04 09:31:59</time>
      </trkpt>
      <trkpt lat="28.96703" lon="-13.82981">
        <ele>30.8</ele>
        <time>2021-07-04 09:32:00</time>
      </trkpt>
      <trkpt lat="28.96706" lon="-13.82981">
        <ele>31</ele>
        <time>2021-07-04 09:32:01</time>
      </trkpt>
      <trkpt lat="28.9671" lon="-13.82982">
        <ele>31</ele>
        <time>2021-07-04 09:32:02</time>
      </trkpt>
      <trkpt lat="28.96713" lon="-13.82982">
        <ele>31</ele>
        <time>2021-07-04 09:32:03</time>
      </trkpt>
      <trkpt lat="28.96717" lon="-13.82983">
        <ele>31</ele>
        <time>2021-07-04 09:32:04</time>
      </trkpt>
      <trkpt lat="28.9672" lon="-13.82983">
        <ele>31.2</ele>
        <time>2021-07-04 09:32:05</time>
      </trkpt>
      <trkpt lat="28.96723" lon="-13.82984">
        <ele>31.2</ele>
        <time>2021-07-04 09:32:06</time>
      </trkpt>
      <trkpt lat="28.96727" lon="-13.82985">
        <ele>31.2</ele>
        <time>2021-07-04 09:32:07</time>
      </trkpt>
      <trkpt lat="28.9673" lon="-13.82985">
        <ele>31.4</ele>
        <time>2021-07-04 09:32:08</time>
      </trkpt>
      <trkpt lat="28.96733" lon="-13.82986">
        <ele>31.4</ele>
        <time>2021-07-04 09:32:09</time>
      </trkpt>
      <trkpt lat="28.96737" lon="-13.82986">
        <ele>31.6</ele>
        <time>2021-07-04 09:32:10</time>
      </trkpt>
      <trkpt lat="28.96741" lon="-13.82987">
        <ele>31.6</ele>
        <time>2021-07-04 09:32:11</time>
      </trkpt>
      <trkpt lat="28.96744" lon="-13.82988">
        <ele>31.6</ele>
        <time>2021-07-04 09:32:12</time>
      </trkpt>
      <trkpt lat="28.96748" lon="-13.82988">
        <ele>32</ele>
        <time>2021-07-04 09:32:13</time>
      </trkpt>
      <trkpt lat="28.96752" lon="-13.82989">
        <ele>32</ele>
        <time>2021-07-04 09:32:14</time>
      </trkpt>
      <trkpt lat="28.96756" lon="-13.8299">
        <ele>32.2</ele>
        <time>2021-07-04 09:32:15</time>
      </trkpt>
      <trkpt lat="28.9676" lon="-13.82991">
        <ele>32.2</ele>
        <time>2021-07-04 09:32:16</time>
      </trkpt>
      <trkpt lat="28.96764" lon="-13.82992">
        <ele>32.2</ele>
        <time>2021-07-04 09:32:17</time>
      </trkpt>
      <trkpt lat="28.96768" lon="-13.82993">
        <ele>32.2</ele>
        <time>2021-07-04 09:32:18</time>
      </trkpt>
      <trkpt lat="28.96772" lon="-13.82993">
        <ele>32.2</ele>
        <time>2021-07-04 09:32:19</time>
      </trkpt>
      <trkpt lat="28.96776" lon="-13.82994">
        <ele>32.2</ele>
        <time>2021-07-04 09:32:20</time>
      </trkpt>
      <trkpt lat="28.9678" lon="-13.82995">
        <ele>32.2</ele>
        <time>2021-07-04 09:32:21</time>
      </trkpt>
      <trkpt lat="28.96784" lon="-13.82996">
        <ele>32.2</ele>
        <time>2021-07-04 09:32:22</time>
      </trkpt>
      <trkpt lat="28.96788" lon="-13.82997">
        <ele>32.2</ele>
        <time>2021-07-04 09:32:23</time>
      </trkpt>
      <trkpt lat="28.96793" lon="-13.82998">
        <ele>32</ele>
        <time>2021-07-04 09:32:24</time>
      </trkpt>
      <trkpt lat="28.96797" lon="-13.82998">
        <ele>32</ele>
        <time>2021-07-04 09:32:25</time>
      </trkpt>
      <trkpt lat="28.96801" lon="-13.82999">
        <ele>32</ele>
        <time>2021-07-04 09:32:26</time>
      </trkpt>
      <trkpt lat="28.96806" lon="-13.83">
        <ele>32</ele>
        <time>2021-07-04 09:32:27</time>
      </trkpt>
      <trkpt lat="28.9681" lon="-13.83001">
        <ele>32</ele>
        <time>2021-07-04 09:32:28</time>
      </trkpt>
      <trkpt lat="28.96814" lon="-13.83002">
        <ele>32</ele>
        <time>2021-07-04 09:32:29</time>
      </trkpt>
      <trkpt lat="28.96818" lon="-13.83003">
        <ele>32</ele>
        <time>2021-07-04 09:32:30</time>
      </trkpt>
      <trkpt lat="28.96822" lon="-13.83004">
        <ele>32</ele>
        <time>2021-07-04 09:32:31</time>
      </trkpt>
      <trkpt lat="28.96826" lon="-13.83005">
        <ele>32</ele>
        <time>2021-07-04 09:32:32</time>
      </trkpt>
      <trkpt lat="28.96831" lon="-13.83006">
        <ele>32</ele>
        <time>2021-07-04 09:32:33</time>
      </trkpt>
      <trkpt lat="28.96835" lon="-13.83007">
        <ele>31.8</ele>
        <time>2021-07-04 09:32:34</time>
      </trkpt>
      <trkpt lat="28.9684" lon="-13.83008">
        <ele>31.8</ele>
        <time>2021-07-04 09:32:35</time>
      </trkpt>
      <trkpt lat="28.96844" lon="-13.83009">
        <ele>31.8</ele>
        <time>2021-07-04 09:32:36</time>
      </trkpt>
      <trkpt lat="28.96849" lon="-13.8301">
        <ele>31.8</ele>
        <time>2021-07-04 09:32:37</time>
      </trkpt>
      <trkpt lat="28.96854" lon="-13.83011">
        <ele>31.6</ele>
        <time>2021-07-04 09:32:38</time>
      </trkpt>
      <trkpt lat="28.96858" lon="-13.83012">
        <ele>31.6</ele>
        <time>2021-07-04 09:32:39</time>
      </trkpt>
      <trkpt lat="28.96863" lon="-13.83012">
        <ele>31.6</ele>
        <time>2021-07-04 09:32:40</time>
      </trkpt>
      <trkpt lat="28.96867" lon="-13.83014">
        <ele>31.2</ele>
        <time>2021-07-04 09:32:41</time>
      </trkpt>
      <trkpt lat="28.96871" lon="-13.83015">
        <ele>31.2</ele>
        <time>2021-07-04 09:32:42</time>
      </trkpt>
      <trkpt lat="28.96876" lon="-13.83016">
        <ele>31</ele>
        <time>2021-07-04 09:32:43</time>
      </trkpt>
      <trkpt lat="28.9688" lon="-13.83017">
        <ele>31</ele>
        <time>2021-07-04 09:32:44</time>
      </trkpt>
      <trkpt lat="28.96884" lon="-13.83018">
        <ele>30.8</ele>
        <time>2021-07-04 09:32:45</time>
      </trkpt>
      <trkpt lat="28.96889" lon="-13.83019">
        <ele>30.8</ele>
        <time>2021-07-04 09:32:46</time>
      </trkpt>
      <trkpt lat="28.96893" lon="-13.8302">
        <ele>30.6</ele>
        <time>2021-07-04 09:32:47</time>
      </trkpt>
      <trkpt lat="28.96898" lon="-13.8302">
        <ele>30.6</ele>
        <time>2021-07-04 09:32:48</time>
      </trkpt>
      <trkpt lat="28.96902" lon="-13.83021">
        <ele>30.2</ele>
        <time>2021-07-04 09:32:49</time>
      </trkpt>
      <trkpt lat="28.96906" lon="-13.83022">
        <ele>30.2</ele>
        <time>2021-07-04 09:32:50</time>
      </trkpt>
      <trkpt lat="28.96911" lon="-13.83023">
        <ele>30.2</ele>
        <time>2021-07-04 09:32:51</time>
      </trkpt>
      <trkpt lat="28.96915" lon="-13.83024">
        <ele>30.2</ele>
        <time>2021-07-04 09:32:52</time>
      </trkpt>
      <trkpt lat="28.96919" lon="-13.83025">
        <ele>30.2</ele>
        <time>2021-07-04 09:32:53</time>
      </trkpt>
      <trkpt lat="28.96923" lon="-13.83026">
        <ele>30</ele>
        <time>2021-07-04 09:32:54</time>
      </trkpt>
      <trkpt lat="28.96927" lon="-13.83027">
        <ele>30</ele>
        <time>2021-07-04 09:32:55</time>
      </trkpt>
      <trkpt lat="28.96932" lon="-13.83028">
        <ele>29.8</ele>
        <time>2021-07-04 09:32:56</time>
      </trkpt>
      <trkpt lat="28.96936" lon="-13.83028">
        <ele>29.8</ele>
        <time>2021-07-04 09:32:57</time>
      </trkpt>
      <trkpt lat="28.9694" lon="-13.83029">
        <ele>29.8</ele>
        <time>2021-07-04 09:32:58</time>
      </trkpt>
      <trkpt lat="28.96944" lon="-13.83031">
        <ele>29.8</ele>
        <time>2021-07-04 09:32:59</time>
      </trkpt>
      <trkpt lat="28.96948" lon="-13.83032">
        <ele>29.8</ele>
        <time>2021-07-04 09:33:00</time>
      </trkpt>
      <trkpt lat="28.96952" lon="-13.83033">
        <ele>29.6</ele>
        <time>2021-07-04 09:33:01</time>
      </trkpt>
      <trkpt lat="28.96956" lon="-13.83033">
        <ele>29.6</ele>
        <time>2021-07-04 09:33:02</time>
      </trkpt>
      <trkpt lat="28.9696" lon="-13.83034">
        <ele>29.6</ele>
        <time>2021-07-04 09:33:03</time>
      </trkpt>
      <trkpt lat="28.96964" lon="-13.83035">
        <ele>29.6</ele>
        <time>2021-07-04 09:33:04</time>
      </trkpt>
      <trkpt lat="28.96968" lon="-13.83035">
        <ele>29.6</ele>
        <time>2021-07-04 09:33:05</time>
      </trkpt>
      <trkpt lat="28.96972" lon="-13.83036">
        <ele>29.6</ele>
        <time>2021-07-04 09:33:06</time>
      </trkpt>
      <trkpt lat="28.96976" lon="-13.83037">
        <ele>29.6</ele>
        <time>2021-07-04 09:33:07</time>
      </trkpt>
      <trkpt lat="28.9698" lon="-13.83038">
        <ele>29.6</ele>
        <time>2021-07-04 09:33:08</time>
      </trkpt>
      <trkpt lat="28.96983" lon="-13.83039">
        <ele>29.6</ele>
        <time>2021-07-04 09:33:09</time>
      </trkpt>
      <trkpt lat="28.96987" lon="-13.8304">
        <ele>29.6</ele>
        <time>2021-07-04 09:33:10</time>
      </trkpt>
      <trkpt lat="28.96991" lon="-13.83041">
        <ele>29.6</ele>
        <time>2021-07-04 09:33:11</time>
      </trkpt>
      <trkpt lat="28.96995" lon="-13.83042">
        <ele>29.6</ele>
        <time>2021-07-04 09:33:12</time>
      </trkpt>
      <trkpt lat="28.96999" lon="-13.83042">
        <ele>29.6</ele>
        <time>2021-07-04 09:33:13</time>
      </trkpt>
      <trkpt lat="28.97003" lon="-13.83043">
        <ele>29.6</ele>
        <time>2021-07-04 09:33:14</time>
      </trkpt>
      <trkpt lat="28.97006" lon="-13.83044">
        <ele>29.6</ele>
        <time>2021-07-04 09:33:15</time>
      </trkpt>
      <trkpt lat="28.9701" lon="-13.83045">
        <ele>29.6</ele>
        <time>2021-07-04 09:33:16</time>
      </trkpt>
      <trkpt lat="28.97013" lon="-13.83046">
        <ele>29.6</ele>
        <time>2021-07-04 09:33:17</time>
      </trkpt>
      <trkpt lat="28.97017" lon="-13.83047">
        <ele>29.6</ele>
        <time>2021-07-04 09:33:18</time>
      </trkpt>
      <trkpt lat="28.9702" lon="-13.83047">
        <ele>29.6</ele>
        <time>2021-07-04 09:33:19</time>
      </trkpt>
      <trkpt lat="28.97024" lon="-13.83048">
        <ele>29.6</ele>
        <time>2021-07-04 09:33:20</time>
      </trkpt>
      <trkpt lat="28.97027" lon="-13.83049">
        <ele>29.6</ele>
        <time>2021-07-04 09:33:21</time>
      </trkpt>
      <trkpt lat="28.97031" lon="-13.8305">
        <ele>29.6</ele>
        <time>2021-07-04 09:33:22</time>
      </trkpt>
      <trkpt lat="28.97035" lon="-13.83051">
        <ele>29.6</ele>
        <time>2021-07-04 09:33:23</time>
      </trkpt>
      <trkpt lat="28.97038" lon="-13.83052">
        <ele>29.6</ele>
        <time>2021-07-04 09:33:24</time>
      </trkpt>
      <trkpt lat="28.97042" lon="-13.83053">
        <ele>29.6</ele>
        <time>2021-07-04 09:33:25</time>
      </trkpt>
      <trkpt lat="28.97046" lon="-13.83054">
        <ele>29.6</ele>
        <time>2021-07-04 09:33:26</time>
      </trkpt>
      <trkpt lat="28.97049" lon="-13.83054">
        <ele>29.6</ele>
        <time>2021-07-04 09:33:27</time>
      </trkpt>
      <trkpt lat="28.97053" lon="-13.83055">
        <ele>29.6</ele>
        <time>2021-07-04 09:33:28</time>
      </trkpt>
      <trkpt lat="28.97056" lon="-13.83056">
        <ele>29.6</ele>
        <time>2021-07-04 09:33:29</time>
      </trkpt>
      <trkpt lat="28.9706" lon="-13.83057">
        <ele>29.6</ele>
        <time>2021-07-04 09:33:30</time>
      </trkpt>
      <trkpt lat="28.97063" lon="-13.83057">
        <ele>29.6</ele>
        <time>2021-07-04 09:33:31</time>
      </trkpt>
      <trkpt lat="28.97066" lon="-13.83058">
        <ele>29.6</ele>
        <time>2021-07-04 09:33:32</time>
      </trkpt>
      <trkpt lat="28.9707" lon="-13.83059">
        <ele>29.6</ele>
        <time>2021-07-04 09:33:33</time>
      </trkpt>
      <trkpt lat="28.97073" lon="-13.83059">
        <ele>29.6</ele>
        <time>2021-07-04 09:33:34</time>
      </trkpt>
      <trkpt lat="28.97077" lon="-13.8306">
        <ele>29.6</ele>
        <time>2021-07-04 09:33:35</time>
      </trkpt>
      <trkpt lat="28.9708" lon="-13.83061">
        <ele>29.6</ele>
        <time>2021-07-04 09:33:36</time>
      </trkpt>
      <trkpt lat="28.97084" lon="-13.83062">
        <ele>29.6</ele>
        <time>2021-07-04 09:33:37</time>
      </trkpt>
      <trkpt lat="28.97087" lon="-13.83063">
        <ele>29.6</ele>
        <time>2021-07-04 09:33:38</time>
      </trkpt>
      <trkpt lat="28.97091" lon="-13.83063">
        <ele>29.6</ele>
        <time>2021-07-04 09:33:39</time>
      </trkpt>
      <trkpt lat="28.97095" lon="-13.83064">
        <ele>29.6</ele>
        <time>2021-07-04 09:33:40</time>
      </trkpt>
      <trkpt lat="28.97099" lon="-13.83065">
        <ele>29.6</ele>
        <time>2021-07-04 09:33:41</time>
      </trkpt>
      <trkpt lat="28.97103" lon="-13.83066">
        <ele>29.6</ele>
        <time>2021-07-04 09:33:42</time>
      </trkpt>
      <trkpt lat="28.97107" lon="-13.83067">
        <ele>29.6</ele>
        <time>2021-07-04 09:33:43</time>
      </trkpt>
      <trkpt lat="28.97111" lon="-13.83068">
        <ele>29.6</ele>
        <time>2021-07-04 09:33:44</time>
      </trkpt>
      <trkpt lat="28.97115" lon="-13.83069">
        <ele>29.8</ele>
        <time>2021-07-04 09:33:45</time>
      </trkpt>
      <trkpt lat="28.97119" lon="-13.8307">
        <ele>29.8</ele>
        <time>2021-07-04 09:33:46</time>
      </trkpt>
      <trkpt lat="28.97123" lon="-13.8307">
        <ele>30</ele>
        <time>2021-07-04 09:33:47</time>
      </trkpt>
      <trkpt lat="28.97127" lon="-13.83071">
        <ele>30</ele>
        <time>2021-07-04 09:33:48</time>
      </trkpt>
      <trkpt lat="28.97131" lon="-13.83072">
        <ele>30.4</ele>
        <time>2021-07-04 09:33:49</time>
      </trkpt>
      <trkpt lat="28.97135" lon="-13.83073">
        <ele>30.4</ele>
        <time>2021-07-04 09:33:50</time>
      </trkpt>
      <trkpt lat="28.9714" lon="-13.83075">
        <ele>30.4</ele>
        <time>2021-07-04 09:33:51</time>
      </trkpt>
      <trkpt lat="28.97144" lon="-13.83076">
        <ele>30.4</ele>
        <time>2021-07-04 09:33:52</time>
      </trkpt>
      <trkpt lat="28.97148" lon="-13.83077">
        <ele>30.4</ele>
        <time>2021-07-04 09:33:53</time>
      </trkpt>
      <trkpt lat="28.97152" lon="-13.83078">
        <ele>30.4</ele>
        <time>2021-07-04 09:33:54</time>
      </trkpt>
      <trkpt lat="28.97156" lon="-13.83078">
        <ele>30.4</ele>
        <time>2021-07-04 09:33:55</time>
      </trkpt>
      <trkpt lat="28.9716" lon="-13.83079">
        <ele>30.4</ele>
        <time>2021-07-04 09:33:56</time>
      </trkpt>
      <trkpt lat="28.97164" lon="-13.8308">
        <ele>30.4</ele>
        <time>2021-07-04 09:33:57</time>
      </trkpt>
      <trkpt lat="28.97168" lon="-13.83081">
        <ele>30.4</ele>
        <time>2021-07-04 09:33:58</time>
      </trkpt>
      <trkpt lat="28.97172" lon="-13.83081">
        <ele>30.6</ele>
        <time>2021-07-04 09:33:59</time>
      </trkpt>
      <trkpt lat="28.97177" lon="-13.83081">
        <ele>30.6</ele>
        <time>2021-07-04 09:34:00</time>
      </trkpt>
      <trkpt lat="28.97181" lon="-13.8308">
        <ele>30.8</ele>
        <time>2021-07-04 09:34:01</time>
      </trkpt>
      <trkpt lat="28.97184" lon="-13.83079">
        <ele>30.8</ele>
        <time>2021-07-04 09:34:02</time>
      </trkpt>
      <trkpt lat="28.97188" lon="-13.83077">
        <ele>31.2</ele>
        <time>2021-07-04 09:34:03</time>
      </trkpt>
      <trkpt lat="28.97191" lon="-13.83075">
        <ele>31.2</ele>
        <time>2021-07-04 09:34:04</time>
      </trkpt>
      <trkpt lat="28.97193" lon="-13.83073">
        <ele>31.4</ele>
        <time>2021-07-04 09:34:05</time>
      </trkpt>
      <trkpt lat="28.97196" lon="-13.83071">
        <ele>31.4</ele>
        <time>2021-07-04 09:34:06</time>
      </trkpt>
      <trkpt lat="28.97198" lon="-13.83069">
        <ele>31.8</ele>
        <time>2021-07-04 09:34:07</time>
      </trkpt>
      <trkpt lat="28.97199" lon="-13.83067">
        <ele>31.8</ele>
        <time>2021-07-04 09:34:08</time>
      </trkpt>
      <trkpt lat="28.97201" lon="-13.83065">
        <ele>31.8</ele>
        <time>2021-07-04 09:34:09</time>
      </trkpt>
      <trkpt lat="28.97203" lon="-13.83063">
        <ele>32</ele>
        <time>2021-07-04 09:34:10</time>
      </trkpt>
      <trkpt lat="28.97205" lon="-13.83061">
        <ele>32</ele>
        <time>2021-07-04 09:34:11</time>
      </trkpt>
      <trkpt lat="28.97207" lon="-13.83059">
        <ele>32</ele>
        <time>2021-07-04 09:34:12</time>
      </trkpt>
      <trkpt lat="28.97208" lon="-13.83057">
        <ele>32.4</ele>
        <time>2021-07-04 09:34:13</time>
      </trkpt>
      <trkpt lat="28.9721" lon="-13.83055">
        <ele>32.6</ele>
        <time>2021-07-04 09:34:14</time>
      </trkpt>
      <trkpt lat="28.97212" lon="-13.83052">
        <ele>32.8</ele>
        <time>2021-07-04 09:34:15</time>
      </trkpt>
      <trkpt lat="28.97214" lon="-13.8305">
        <ele>33</ele>
        <time>2021-07-04 09:34:16</time>
      </trkpt>
      <trkpt lat="28.97215" lon="-13.83047">
        <ele>33</ele>
        <time>2021-07-04 09:34:17</time>
      </trkpt>
      <trkpt lat="28.97216" lon="-13.83045">
        <ele>33.6</ele>
        <time>2021-07-04 09:34:18</time>
      </trkpt>
      <trkpt lat="28.97218" lon="-13.83042">
        <ele>33.8</ele>
        <time>2021-07-04 09:34:19</time>
      </trkpt>
      <trkpt lat="28.9722" lon="-13.83039">
        <ele>34</ele>
        <time>2021-07-04 09:34:20</time>
      </trkpt>
      <trkpt lat="28.97221" lon="-13.83036">
        <ele>34</ele>
        <time>2021-07-04 09:34:21</time>
      </trkpt>
      <trkpt lat="28.97223" lon="-13.83034">
        <ele>34.4</ele>
        <time>2021-07-04 09:34:22</time>
      </trkpt>
      <trkpt lat="28.97224" lon="-13.83031">
        <ele>34.6</ele>
        <time>2021-07-04 09:34:23</time>
      </trkpt>
      <trkpt lat="28.97226" lon="-13.83029">
        <ele>35</ele>
        <time>2021-07-04 09:34:24</time>
      </trkpt>
      <trkpt lat="28.97228" lon="-13.83026">
        <ele>35.2</ele>
        <time>2021-07-04 09:34:25</time>
      </trkpt>
      <trkpt lat="28.97229" lon="-13.83024">
        <ele>35.2</ele>
        <time>2021-07-04 09:34:26</time>
      </trkpt>
      <trkpt lat="28.97231" lon="-13.83021">
        <ele>35.6</ele>
        <time>2021-07-04 09:34:27</time>
      </trkpt>
      <trkpt lat="28.97232" lon="-13.83019">
        <ele>35.8</ele>
        <time>2021-07-04 09:34:28</time>
      </trkpt>
      <trkpt lat="28.97234" lon="-13.83016">
        <ele>36</ele>
        <time>2021-07-04 09:34:29</time>
      </trkpt>
      <trkpt lat="28.97236" lon="-13.83013">
        <ele>36.2</ele>
        <time>2021-07-04 09:34:30</time>
      </trkpt>
      <trkpt lat="28.97237" lon="-13.8301">
        <ele>36.6</ele>
        <time>2021-07-04 09:34:31</time>
      </trkpt>
      <trkpt lat="28.97238" lon="-13.83007">
        <ele>36.8</ele>
        <time>2021-07-04 09:34:32</time>
      </trkpt>
      <trkpt lat="28.97239" lon="-13.83004">
        <ele>37</ele>
        <time>2021-07-04 09:34:33</time>
      </trkpt>
      <trkpt lat="28.9724" lon="-13.83001">
        <ele>37</ele>
        <time>2021-07-04 09:34:34</time>
      </trkpt>
      <trkpt lat="28.97241" lon="-13.82998">
        <ele>37.2</ele>
        <time>2021-07-04 09:34:35</time>
      </trkpt>
      <trkpt lat="28.97243" lon="-13.82995">
        <ele>37.2</ele>
        <time>2021-07-04 09:34:36</time>
      </trkpt>
      <trkpt lat="28.97244" lon="-13.82991">
        <ele>37.2</ele>
        <time>2021-07-04 09:34:37</time>
      </trkpt>
      <trkpt lat="28.97245" lon="-13.82988">
        <ele>37.2</ele>
        <time>2021-07-04 09:34:38</time>
      </trkpt>
      <trkpt lat="28.97247" lon="-13.82985">
        <ele>37.2</ele>
        <time>2021-07-04 09:34:39</time>
      </trkpt>
      <trkpt lat="28.97248" lon="-13.82981">
        <ele>37.2</ele>
        <time>2021-07-04 09:34:40</time>
      </trkpt>
      <trkpt lat="28.9725" lon="-13.82978">
        <ele>37.2</ele>
        <time>2021-07-04 09:34:41</time>
      </trkpt>
      <trkpt lat="28.97252" lon="-13.82975">
        <ele>37.2</ele>
        <time>2021-07-04 09:34:42</time>
      </trkpt>
      <trkpt lat="28.97253" lon="-13.82972">
        <ele>37.2</ele>
        <time>2021-07-04 09:34:43</time>
      </trkpt>
      <trkpt lat="28.97255" lon="-13.82968">
        <ele>37.2</ele>
        <time>2021-07-04 09:34:44</time>
      </trkpt>
      <trkpt lat="28.97256" lon="-13.82965">
        <ele>37.2</ele>
        <time>2021-07-04 09:34:45</time>
      </trkpt>
      <trkpt lat="28.97257" lon="-13.82962">
        <ele>37.2</ele>
        <time>2021-07-04 09:34:46</time>
      </trkpt>
      <trkpt lat="28.97259" lon="-13.82958">
        <ele>37.2</ele>
        <time>2021-07-04 09:34:47</time>
      </trkpt>
      <trkpt lat="28.9726" lon="-13.82955">
        <ele>37</ele>
        <time>2021-07-04 09:34:48</time>
      </trkpt>
      <trkpt lat="28.97262" lon="-13.82951">
        <ele>37</ele>
        <time>2021-07-04 09:34:49</time>
      </trkpt>
      <trkpt lat="28.97263" lon="-13.82948">
        <ele>37</ele>
        <time>2021-07-04 09:34:50</time>
      </trkpt>
      <trkpt lat="28.97265" lon="-13.82944">
        <ele>37</ele>
        <time>2021-07-04 09:34:51</time>
      </trkpt>
      <trkpt lat="28.97266" lon="-13.82941">
        <ele>37</ele>
        <time>2021-07-04 09:34:52</time>
      </trkpt>
      <trkpt lat="28.97268" lon="-13.82938">
        <ele>37</ele>
        <time>2021-07-04 09:34:53</time>
      </trkpt>
      <trkpt lat="28.97269" lon="-13.82934">
        <ele>37</ele>
        <time>2021-07-04 09:34:54</time>
      </trkpt>
      <trkpt lat="28.97271" lon="-13.8293">
        <ele>37</ele>
        <time>2021-07-04 09:34:55</time>
      </trkpt>
      <trkpt lat="28.97273" lon="-13.82927">
        <ele>36.8</ele>
        <time>2021-07-04 09:34:56</time>
      </trkpt>
      <trkpt lat="28.97275" lon="-13.82923">
        <ele>36.8</ele>
        <time>2021-07-04 09:34:57</time>
      </trkpt>
      <trkpt lat="28.97276" lon="-13.82919">
        <ele>36.8</ele>
        <time>2021-07-04 09:34:58</time>
      </trkpt>
      <trkpt lat="28.97278" lon="-13.82915">
        <ele>36.8</ele>
        <time>2021-07-04 09:34:59</time>
      </trkpt>
      <trkpt lat="28.9728" lon="-13.82911">
        <ele>36.8</ele>
        <time>2021-07-04 09:35:00</time>
      </trkpt>
      <trkpt lat="28.97281" lon="-13.82907">
        <ele>36.8</ele>
        <time>2021-07-04 09:35:01</time>
      </trkpt>
      <trkpt lat="28.97283" lon="-13.82902">
        <ele>36.8</ele>
        <time>2021-07-04 09:35:02</time>
      </trkpt>
      <trkpt lat="28.97285" lon="-13.82898">
        <ele>37</ele>
        <time>2021-07-04 09:35:03</time>
      </trkpt>
      <trkpt lat="28.97287" lon="-13.82894">
        <ele>37</ele>
        <time>2021-07-04 09:35:04</time>
      </trkpt>
      <trkpt lat="28.97289" lon="-13.8289">
        <ele>37</ele>
        <time>2021-07-04 09:35:05</time>
      </trkpt>
      <trkpt lat="28.97291" lon="-13.82886">
        <ele>37</ele>
        <time>2021-07-04 09:35:06</time>
      </trkpt>
      <trkpt lat="28.97292" lon="-13.82882">
        <ele>37</ele>
        <time>2021-07-04 09:35:07</time>
      </trkpt>
      <trkpt lat="28.97294" lon="-13.82878">
        <ele>36.6</ele>
        <time>2021-07-04 09:35:08</time>
      </trkpt>
      <trkpt lat="28.97296" lon="-13.82874">
        <ele>36.4</ele>
        <time>2021-07-04 09:35:09</time>
      </trkpt>
      <trkpt lat="28.97297" lon="-13.8287">
        <ele>36.4</ele>
        <time>2021-07-04 09:35:10</time>
      </trkpt>
      <trkpt lat="28.97299" lon="-13.82866">
        <ele>36</ele>
        <time>2021-07-04 09:35:11</time>
      </trkpt>
      <trkpt lat="28.97301" lon="-13.82862">
        <ele>36</ele>
        <time>2021-07-04 09:35:12</time>
      </trkpt>
      <trkpt lat="28.97302" lon="-13.82858">
        <ele>35.6</ele>
        <time>2021-07-04 09:35:13</time>
      </trkpt>
      <trkpt lat="28.97304" lon="-13.82855">
        <ele>35.6</ele>
        <time>2021-07-04 09:35:14</time>
      </trkpt>
      <trkpt lat="28.97305" lon="-13.82851">
        <ele>35.6</ele>
        <time>2021-07-04 09:35:15</time>
      </trkpt>
      <trkpt lat="28.97307" lon="-13.82847">
        <ele>36</ele>
        <time>2021-07-04 09:35:16</time>
      </trkpt>
      <trkpt lat="28.97308" lon="-13.82844">
        <ele>36.2</ele>
        <time>2021-07-04 09:35:17</time>
      </trkpt>
      <trkpt lat="28.9731" lon="-13.8284">
        <ele>36.2</ele>
        <time>2021-07-04 09:35:18</time>
      </trkpt>
      <trkpt lat="28.97312" lon="-13.82836">
        <ele>36.6</ele>
        <time>2021-07-04 09:35:19</time>
      </trkpt>
      <trkpt lat="28.97314" lon="-13.82832">
        <ele>37</ele>
        <time>2021-07-04 09:35:20</time>
      </trkpt>
      <trkpt lat="28.97315" lon="-13.82828">
        <ele>37.2</ele>
        <time>2021-07-04 09:35:21</time>
      </trkpt>
      <trkpt lat="28.97317" lon="-13.82824">
        <ele>37.4</ele>
        <time>2021-07-04 09:35:22</time>
      </trkpt>
      <trkpt lat="28.97319" lon="-13.82821">
        <ele>37.6</ele>
        <time>2021-07-04 09:35:23</time>
      </trkpt>
      <trkpt lat="28.97322" lon="-13.82817">
        <ele>38</ele>
        <time>2021-07-04 09:35:24</time>
      </trkpt>
      <trkpt lat="28.97323" lon="-13.82813">
        <ele>38</ele>
        <time>2021-07-04 09:35:25</time>
      </trkpt>
      <trkpt lat="28.97325" lon="-13.82809">
        <ele>38.2</ele>
        <time>2021-07-04 09:35:26</time>
      </trkpt>
      <trkpt lat="28.97327" lon="-13.82806">
        <ele>38.4</ele>
        <time>2021-07-04 09:35:27</time>
      </trkpt>
      <trkpt lat="28.97329" lon="-13.82802">
        <ele>38.4</ele>
        <time>2021-07-04 09:35:28</time>
      </trkpt>
      <trkpt lat="28.97331" lon="-13.82799">
        <ele>38.6</ele>
        <time>2021-07-04 09:35:29</time>
      </trkpt>
      <trkpt lat="28.97333" lon="-13.82795">
        <ele>38.6</ele>
        <time>2021-07-04 09:35:30</time>
      </trkpt>
      <trkpt lat="28.97336" lon="-13.82792">
        <ele>38.6</ele>
        <time>2021-07-04 09:35:31</time>
      </trkpt>
      <trkpt lat="28.97338" lon="-13.82789">
        <ele>38.6</ele>
        <time>2021-07-04 09:35:32</time>
      </trkpt>
      <trkpt lat="28.9734" lon="-13.82785">
        <ele>38.8</ele>
        <time>2021-07-04 09:35:33</time>
      </trkpt>
      <trkpt lat="28.97343" lon="-13.82782">
        <ele>38.8</ele>
        <time>2021-07-04 09:35:34</time>
      </trkpt>
      <trkpt lat="28.97345" lon="-13.82778">
        <ele>38.8</ele>
        <time>2021-07-04 09:35:35</time>
      </trkpt>
      <trkpt lat="28.97348" lon="-13.82775">
        <ele>38.8</ele>
        <time>2021-07-04 09:35:36</time>
      </trkpt>
      <trkpt lat="28.9735" lon="-13.82771">
        <ele>39.2</ele>
        <time>2021-07-04 09:35:37</time>
      </trkpt>
      <trkpt lat="28.97353" lon="-13.82767">
        <ele>39.2</ele>
        <time>2021-07-04 09:35:38</time>
      </trkpt>
      <trkpt lat="28.97355" lon="-13.82764">
        <ele>39.2</ele>
        <time>2021-07-04 09:35:39</time>
      </trkpt>
      <trkpt lat="28.97358" lon="-13.8276">
        <ele>39.2</ele>
        <time>2021-07-04 09:35:40</time>
      </trkpt>
      <trkpt lat="28.9736" lon="-13.82757">
        <ele>39.2</ele>
        <time>2021-07-04 09:35:41</time>
      </trkpt>
      <trkpt lat="28.97363" lon="-13.82754">
        <ele>39.2</ele>
        <time>2021-07-04 09:35:42</time>
      </trkpt>
      <trkpt lat="28.97365" lon="-13.8275">
        <ele>39.2</ele>
        <time>2021-07-04 09:35:43</time>
      </trkpt>
      <trkpt lat="28.97368" lon="-13.82747">
        <ele>39.2</ele>
        <time>2021-07-04 09:35:44</time>
      </trkpt>
      <trkpt lat="28.9737" lon="-13.82744">
        <ele>39.2</ele>
        <time>2021-07-04 09:35:45</time>
      </trkpt>
      <trkpt lat="28.97372" lon="-13.82741">
        <ele>39.2</ele>
        <time>2021-07-04 09:35:46</time>
      </trkpt>
      <trkpt lat="28.97375" lon="-13.82737">
        <ele>39.4</ele>
        <time>2021-07-04 09:35:47</time>
      </trkpt>
      <trkpt lat="28.97377" lon="-13.82734">
        <ele>39.4</ele>
        <time>2021-07-04 09:35:48</time>
      </trkpt>
      <trkpt lat="28.9738" lon="-13.82731">
        <ele>39.4</ele>
        <time>2021-07-04 09:35:49</time>
      </trkpt>
      <trkpt lat="28.97382" lon="-13.82728">
        <ele>39.8</ele>
        <time>2021-07-04 09:35:50</time>
      </trkpt>
      <trkpt lat="28.97385" lon="-13.82725">
        <ele>39.8</ele>
        <time>2021-07-04 09:35:51</time>
      </trkpt>
      <trkpt lat="28.97387" lon="-13.82722">
        <ele>39.8</ele>
        <time>2021-07-04 09:35:52</time>
      </trkpt>
      <trkpt lat="28.9739" lon="-13.82718">
        <ele>39.8</ele>
        <time>2021-07-04 09:35:53</time>
      </trkpt>
      <trkpt lat="28.97392" lon="-13.82715">
        <ele>39.8</ele>
        <time>2021-07-04 09:35:54</time>
      </trkpt>
      <trkpt lat="28.97394" lon="-13.82712">
        <ele>40</ele>
        <time>2021-07-04 09:35:55</time>
      </trkpt>
      <trkpt lat="28.97397" lon="-13.82708">
        <ele>40</ele>
        <time>2021-07-04 09:35:56</time>
      </trkpt>
      <trkpt lat="28.97399" lon="-13.82705">
        <ele>40</ele>
        <time>2021-07-04 09:35:57</time>
      </trkpt>
      <trkpt lat="28.97402" lon="-13.82702">
        <ele>40</ele>
        <time>2021-07-04 09:35:58</time>
      </trkpt>
      <trkpt lat="28.97404" lon="-13.82699">
        <ele>40.2</ele>
        <time>2021-07-04 09:35:59</time>
      </trkpt>
      <trkpt lat="28.97407" lon="-13.82695">
        <ele>40.2</ele>
        <time>2021-07-04 09:36:00</time>
      </trkpt>
      <trkpt lat="28.97409" lon="-13.82692">
        <ele>40.2</ele>
        <time>2021-07-04 09:36:01</time>
      </trkpt>
      <trkpt lat="28.97411" lon="-13.82689">
        <ele>40.2</ele>
        <time>2021-07-04 09:36:02</time>
      </trkpt>
      <trkpt lat="28.97414" lon="-13.82686">
        <ele>40.2</ele>
        <time>2021-07-04 09:36:03</time>
      </trkpt>
      <trkpt lat="28.97416" lon="-13.82683">
        <ele>40.2</ele>
        <time>2021-07-04 09:36:04</time>
      </trkpt>
      <trkpt lat="28.97418" lon="-13.8268">
        <ele>40.2</ele>
        <time>2021-07-04 09:36:05</time>
      </trkpt>
      <trkpt lat="28.97421" lon="-13.82677">
        <ele>40.2</ele>
        <time>2021-07-04 09:36:06</time>
      </trkpt>
      <trkpt lat="28.97423" lon="-13.82673">
        <ele>40.2</ele>
        <time>2021-07-04 09:36:07</time>
      </trkpt>
      <trkpt lat="28.97425" lon="-13.8267">
        <ele>40.2</ele>
        <time>2021-07-04 09:36:08</time>
      </trkpt>
      <trkpt lat="28.97428" lon="-13.82667">
        <ele>40.2</ele>
        <time>2021-07-04 09:36:09</time>
      </trkpt>
      <trkpt lat="28.9743" lon="-13.82664">
        <ele>40.2</ele>
        <time>2021-07-04 09:36:10</time>
      </trkpt>
      <trkpt lat="28.97433" lon="-13.8266">
        <ele>40.2</ele>
        <time>2021-07-04 09:36:11</time>
      </trkpt>
      <trkpt lat="28.97435" lon="-13.82657">
        <ele>40.2</ele>
        <time>2021-07-04 09:36:12</time>
      </trkpt>
      <trkpt lat="28.97438" lon="-13.82654">
        <ele>40.2</ele>
        <time>2021-07-04 09:36:13</time>
      </trkpt>
      <trkpt lat="28.9744" lon="-13.8265">
        <ele>40.2</ele>
        <time>2021-07-04 09:36:14</time>
      </trkpt>
      <trkpt lat="28.97443" lon="-13.82647">
        <ele>40.2</ele>
        <time>2021-07-04 09:36:15</time>
      </trkpt>
      <trkpt lat="28.97445" lon="-13.82644">
        <ele>40.4</ele>
        <time>2021-07-04 09:36:16</time>
      </trkpt>
      <trkpt lat="28.97447" lon="-13.82641">
        <ele>40.4</ele>
        <time>2021-07-04 09:36:17</time>
      </trkpt>
      <trkpt lat="28.9745" lon="-13.82638">
        <ele>40.6</ele>
        <time>2021-07-04 09:36:18</time>
      </trkpt>
      <trkpt lat="28.97452" lon="-13.82635">
        <ele>40.6</ele>
        <time>2021-07-04 09:36:19</time>
      </trkpt>
      <trkpt lat="28.97454" lon="-13.82632">
        <ele>41</ele>
        <time>2021-07-04 09:36:20</time>
      </trkpt>
      <trkpt lat="28.97456" lon="-13.8263">
        <ele>41</ele>
        <time>2021-07-04 09:36:21</time>
      </trkpt>
      <trkpt lat="28.97458" lon="-13.82627">
        <ele>41.4</ele>
        <time>2021-07-04 09:36:22</time>
      </trkpt>
      <trkpt lat="28.9746" lon="-13.82624">
        <ele>41.4</ele>
        <time>2021-07-04 09:36:23</time>
      </trkpt>
      <trkpt lat="28.97463" lon="-13.82622">
        <ele>41.6</ele>
        <time>2021-07-04 09:36:24</time>
      </trkpt>
      <trkpt lat="28.97465" lon="-13.82619">
        <ele>41.6</ele>
        <time>2021-07-04 09:36:25</time>
      </trkpt>
      <trkpt lat="28.97467" lon="-13.82617">
        <ele>41.6</ele>
        <time>2021-07-04 09:36:26</time>
      </trkpt>
      <trkpt lat="28.97469" lon="-13.82614">
        <ele>42</ele>
        <time>2021-07-04 09:36:27</time>
      </trkpt>
      <trkpt lat="28.97471" lon="-13.82611">
        <ele>42</ele>
        <time>2021-07-04 09:36:28</time>
      </trkpt>
      <trkpt lat="28.97473" lon="-13.82609">
        <ele>42</ele>
        <time>2021-07-04 09:36:29</time>
      </trkpt>
      <trkpt lat="28.97475" lon="-13.82606">
        <ele>42.2</ele>
        <time>2021-07-04 09:36:30</time>
      </trkpt>
      <trkpt lat="28.97477" lon="-13.82604">
        <ele>42.2</ele>
        <time>2021-07-04 09:36:31</time>
      </trkpt>
      <trkpt lat="28.97479" lon="-13.82601">
        <ele>42.2</ele>
        <time>2021-07-04 09:36:32</time>
      </trkpt>
      <trkpt lat="28.97481" lon="-13.82599">
        <ele>42.2</ele>
        <time>2021-07-04 09:36:33</time>
      </trkpt>
      <trkpt lat="28.97483" lon="-13.82596">
        <ele>42.2</ele>
        <time>2021-07-04 09:36:34</time>
      </trkpt>
      <trkpt lat="28.97485" lon="-13.82594">
        <ele>42.2</ele>
        <time>2021-07-04 09:36:35</time>
      </trkpt>
      <trkpt lat="28.97487" lon="-13.82591">
        <ele>42.2</ele>
        <time>2021-07-04 09:36:36</time>
      </trkpt>
      <trkpt lat="28.97489" lon="-13.82588">
        <ele>42.2</ele>
        <time>2021-07-04 09:36:37</time>
      </trkpt>
      <trkpt lat="28.97491" lon="-13.82586">
        <ele>42.2</ele>
        <time>2021-07-04 09:36:38</time>
      </trkpt>
      <trkpt lat="28.97493" lon="-13.82583">
        <ele>42.2</ele>
        <time>2021-07-04 09:36:39</time>
      </trkpt>
      <trkpt lat="28.97495" lon="-13.8258">
        <ele>42.4</ele>
        <time>2021-07-04 09:36:40</time>
      </trkpt>
      <trkpt lat="28.97497" lon="-13.82577">
        <ele>42.4</ele>
        <time>2021-07-04 09:36:41</time>
      </trkpt>
      <trkpt lat="28.975" lon="-13.82575">
        <ele>43</ele>
        <time>2021-07-04 09:36:42</time>
      </trkpt>
      <trkpt lat="28.97502" lon="-13.82572">
        <ele>43.2</ele>
        <time>2021-07-04 09:36:43</time>
      </trkpt>
      <trkpt lat="28.97504" lon="-13.82569">
        <ele>43.6</ele>
        <time>2021-07-04 09:36:44</time>
      </trkpt>
      <trkpt lat="28.97506" lon="-13.82567">
        <ele>43.8</ele>
        <time>2021-07-04 09:36:45</time>
      </trkpt>
      <trkpt lat="28.97508" lon="-13.82564">
        <ele>43.8</ele>
        <time>2021-07-04 09:36:46</time>
      </trkpt>
      <trkpt lat="28.9751" lon="-13.82561">
        <ele>44.2</ele>
        <time>2021-07-04 09:36:47</time>
      </trkpt>
      <trkpt lat="28.97512" lon="-13.82559">
        <ele>44.2</ele>
        <time>2021-07-04 09:36:48</time>
      </trkpt>
      <trkpt lat="28.97513" lon="-13.82557">
        <ele>44.6</ele>
        <time>2021-07-04 09:36:49</time>
      </trkpt>
      <trkpt lat="28.97515" lon="-13.82555">
        <ele>44.6</ele>
        <time>2021-07-04 09:36:50</time>
      </trkpt>
      <trkpt lat="28.97516" lon="-13.82553">
        <ele>44.8</ele>
        <time>2021-07-04 09:36:51</time>
      </trkpt>
      <trkpt lat="28.97518" lon="-13.8255">
        <ele>44.8</ele>
        <time>2021-07-04 09:36:52</time>
      </trkpt>
      <trkpt lat="28.9752" lon="-13.82548">
        <ele>44.8</ele>
        <time>2021-07-04 09:36:53</time>
      </trkpt>
      <trkpt lat="28.97522" lon="-13.82546">
        <ele>44.8</ele>
        <time>2021-07-04 09:36:54</time>
      </trkpt>
      <trkpt lat="28.97523" lon="-13.82543">
        <ele>44.8</ele>
        <time>2021-07-04 09:36:55</time>
      </trkpt>
      <trkpt lat="28.97525" lon="-13.82541">
        <ele>45.2</ele>
        <time>2021-07-04 09:36:56</time>
      </trkpt>
      <trkpt lat="28.97527" lon="-13.82539">
        <ele>45.2</ele>
        <time>2021-07-04 09:36:57</time>
      </trkpt>
      <trkpt lat="28.97529" lon="-13.82536">
        <ele>45.2</ele>
        <time>2021-07-04 09:36:58</time>
      </trkpt>
      <trkpt lat="28.97531" lon="-13.82534">
        <ele>45.6</ele>
        <time>2021-07-04 09:36:59</time>
      </trkpt>
      <trkpt lat="28.97533" lon="-13.82531">
        <ele>45.6</ele>
        <time>2021-07-04 09:37:00</time>
      </trkpt>
      <trkpt lat="28.97535" lon="-13.82529">
        <ele>45.8</ele>
        <time>2021-07-04 09:37:01</time>
      </trkpt>
      <trkpt lat="28.97537" lon="-13.82526">
        <ele>45.8</ele>
        <time>2021-07-04 09:37:02</time>
      </trkpt>
      <trkpt lat="28.97538" lon="-13.82524">
        <ele>46.2</ele>
        <time>2021-07-04 09:37:03</time>
      </trkpt>
      <trkpt lat="28.9754" lon="-13.82521">
        <ele>46.4</ele>
        <time>2021-07-04 09:37:04</time>
      </trkpt>
      <trkpt lat="28.97542" lon="-13.82519">
        <ele>46.6</ele>
        <time>2021-07-04 09:37:05</time>
      </trkpt>
      <trkpt lat="28.97544" lon="-13.82516">
        <ele>46.8</ele>
        <time>2021-07-04 09:37:06</time>
      </trkpt>
      <trkpt lat="28.97546" lon="-13.82514">
        <ele>47.2</ele>
        <time>2021-07-04 09:37:07</time>
      </trkpt>
      <trkpt lat="28.97548" lon="-13.82512">
        <ele>47.4</ele>
        <time>2021-07-04 09:37:08</time>
      </trkpt>
      <trkpt lat="28.97549" lon="-13.82509">
        <ele>47.8</ele>
        <time>2021-07-04 09:37:09</time>
      </trkpt>
      <trkpt lat="28.97551" lon="-13.82506">
        <ele>48</ele>
        <time>2021-07-04 09:37:10</time>
      </trkpt>
      <trkpt lat="28.97553" lon="-13.82504">
        <ele>48.2</ele>
        <time>2021-07-04 09:37:11</time>
      </trkpt>
      <trkpt lat="28.97555" lon="-13.82502">
        <ele>48.4</ele>
        <time>2021-07-04 09:37:12</time>
      </trkpt>
      <trkpt lat="28.97556" lon="-13.825">
        <ele>48.4</ele>
        <time>2021-07-04 09:37:13</time>
      </trkpt>
      <trkpt lat="28.97558" lon="-13.82497">
        <ele>48.8</ele>
        <time>2021-07-04 09:37:14</time>
      </trkpt>
      <trkpt lat="28.97559" lon="-13.82495">
        <ele>48.8</ele>
        <time>2021-07-04 09:37:15</time>
      </trkpt>
      <trkpt lat="28.97561" lon="-13.82492">
        <ele>49</ele>
        <time>2021-07-04 09:37:16</time>
      </trkpt>
      <trkpt lat="28.97563" lon="-13.8249">
        <ele>49</ele>
        <time>2021-07-04 09:37:17</time>
      </trkpt>
      <trkpt lat="28.97565" lon="-13.82488">
        <ele>49</ele>
        <time>2021-07-04 09:37:18</time>
      </trkpt>
      <trkpt lat="28.97567" lon="-13.82486">
        <ele>49</ele>
        <time>2021-07-04 09:37:19</time>
      </trkpt>
      <trkpt lat="28.97569" lon="-13.82483">
        <ele>48.8</ele>
        <time>2021-07-04 09:37:20</time>
      </trkpt>
      <trkpt lat="28.97571" lon="-13.8248">
        <ele>48.8</ele>
        <time>2021-07-04 09:37:21</time>
      </trkpt>
      <trkpt lat="28.97574" lon="-13.82478">
        <ele>48.4</ele>
        <time>2021-07-04 09:37:22</time>
      </trkpt>
      <trkpt lat="28.97576" lon="-13.82475">
        <ele>48.4</ele>
        <time>2021-07-04 09:37:23</time>
      </trkpt>
      <trkpt lat="28.97578" lon="-13.82473">
        <ele>48.4</ele>
        <time>2021-07-04 09:37:24</time>
      </trkpt>
      <trkpt lat="28.97579" lon="-13.8247">
        <ele>48.4</ele>
        <time>2021-07-04 09:37:25</time>
      </trkpt>
      <trkpt lat="28.97581" lon="-13.82467">
        <ele>48.4</ele>
        <time>2021-07-04 09:37:26</time>
      </trkpt>
      <trkpt lat="28.97583" lon="-13.82465">
        <ele>48.4</ele>
        <time>2021-07-04 09:37:27</time>
      </trkpt>
      <trkpt lat="28.97585" lon="-13.82462">
        <ele>48.4</ele>
        <time>2021-07-04 09:37:28</time>
      </trkpt>
      <trkpt lat="28.97587" lon="-13.82459">
        <ele>48.4</ele>
        <time>2021-07-04 09:37:29</time>
      </trkpt>
      <trkpt lat="28.97589" lon="-13.82456">
        <ele>48.4</ele>
        <time>2021-07-04 09:37:30</time>
      </trkpt>
      <trkpt lat="28.97591" lon="-13.82453">
        <ele>48.4</ele>
        <time>2021-07-04 09:37:31</time>
      </trkpt>
      <trkpt lat="28.97593" lon="-13.8245">
        <ele>48.4</ele>
        <time>2021-07-04 09:37:32</time>
      </trkpt>
      <trkpt lat="28.97595" lon="-13.82447">
        <ele>48.4</ele>
        <time>2021-07-04 09:37:33</time>
      </trkpt>
      <trkpt lat="28.97597" lon="-13.82444">
        <ele>48.6</ele>
        <time>2021-07-04 09:37:34</time>
      </trkpt>
      <trkpt lat="28.97599" lon="-13.82441">
        <ele>48.6</ele>
        <time>2021-07-04 09:37:35</time>
      </trkpt>
      <trkpt lat="28.976" lon="-13.82439">
        <ele>48.6</ele>
        <time>2021-07-04 09:37:36</time>
      </trkpt>
      <trkpt lat="28.97602" lon="-13.82436">
        <ele>48.6</ele>
        <time>2021-07-04 09:37:37</time>
      </trkpt>
      <trkpt lat="28.97604" lon="-13.82433">
        <ele>48.6</ele>
        <time>2021-07-04 09:37:38</time>
      </trkpt>
      <trkpt lat="28.97605" lon="-13.8243">
        <ele>48.6</ele>
        <time>2021-07-04 09:37:39</time>
      </trkpt>
      <trkpt lat="28.97607" lon="-13.82427">
        <ele>48.8</ele>
        <time>2021-07-04 09:37:40</time>
      </trkpt>
      <trkpt lat="28.97608" lon="-13.82424">
        <ele>48.8</ele>
        <time>2021-07-04 09:37:41</time>
      </trkpt>
      <trkpt lat="28.9761" lon="-13.82421">
        <ele>48.8</ele>
        <time>2021-07-04 09:37:42</time>
      </trkpt>
      <trkpt lat="28.97612" lon="-13.82418">
        <ele>49.2</ele>
        <time>2021-07-04 09:37:43</time>
      </trkpt>
      <trkpt lat="28.97613" lon="-13.82415">
        <ele>49.2</ele>
        <time>2021-07-04 09:37:44</time>
      </trkpt>
      <trkpt lat="28.97615" lon="-13.82412">
        <ele>49.2</ele>
        <time>2021-07-04 09:37:45</time>
      </trkpt>
      <trkpt lat="28.97617" lon="-13.82409">
        <ele>49.4</ele>
        <time>2021-07-04 09:37:46</time>
      </trkpt>
      <trkpt lat="28.97618" lon="-13.82406">
        <ele>49.4</ele>
        <time>2021-07-04 09:37:47</time>
      </trkpt>
      <trkpt lat="28.9762" lon="-13.82403">
        <ele>49.8</ele>
        <time>2021-07-04 09:37:48</time>
      </trkpt>
      <trkpt lat="28.97621" lon="-13.824">
        <ele>50</ele>
        <time>2021-07-04 09:37:49</time>
      </trkpt>
      <trkpt lat="28.97623" lon="-13.82397">
        <ele>50</ele>
        <time>2021-07-04 09:37:50</time>
      </trkpt>
      <trkpt lat="28.97624" lon="-13.82394">
        <ele>50.2</ele>
        <time>2021-07-04 09:37:51</time>
      </trkpt>
      <trkpt lat="28.97626" lon="-13.82391">
        <ele>50.2</ele>
        <time>2021-07-04 09:37:52</time>
      </trkpt>
      <trkpt lat="28.97628" lon="-13.82388">
        <ele>50.6</ele>
        <time>2021-07-04 09:37:53</time>
      </trkpt>
      <trkpt lat="28.97629" lon="-13.82385">
        <ele>50.6</ele>
        <time>2021-07-04 09:37:54</time>
      </trkpt>
      <trkpt lat="28.97631" lon="-13.82382">
        <ele>50.8</ele>
        <time>2021-07-04 09:37:55</time>
      </trkpt>
      <trkpt lat="28.97632" lon="-13.82379">
        <ele>50.8</ele>
        <time>2021-07-04 09:37:56</time>
      </trkpt>
      <trkpt lat="28.97634" lon="-13.82376">
        <ele>50.8</ele>
        <time>2021-07-04 09:37:57</time>
      </trkpt>
      <trkpt lat="28.97636" lon="-13.82373">
        <ele>50.8</ele>
        <time>2021-07-04 09:37:58</time>
      </trkpt>
      <trkpt lat="28.97637" lon="-13.8237">
        <ele>50.8</ele>
        <time>2021-07-04 09:37:59</time>
      </trkpt>
      <trkpt lat="28.97639" lon="-13.82367">
        <ele>50.8</ele>
        <time>2021-07-04 09:38:00</time>
      </trkpt>
      <trkpt lat="28.97641" lon="-13.82364">
        <ele>50.8</ele>
        <time>2021-07-04 09:38:01</time>
      </trkpt>
      <trkpt lat="28.97642" lon="-13.82361">
        <ele>50.8</ele>
        <time>2021-07-04 09:38:02</time>
      </trkpt>
      <trkpt lat="28.97644" lon="-13.82358">
        <ele>50.8</ele>
        <time>2021-07-04 09:38:03</time>
      </trkpt>
      <trkpt lat="28.97645" lon="-13.82355">
        <ele>50.8</ele>
        <time>2021-07-04 09:38:04</time>
      </trkpt>
      <trkpt lat="28.97647" lon="-13.82352">
        <ele>50.8</ele>
        <time>2021-07-04 09:38:05</time>
      </trkpt>
      <trkpt lat="28.97649" lon="-13.82349">
        <ele>51.2</ele>
        <time>2021-07-04 09:38:06</time>
      </trkpt>
      <trkpt lat="28.9765" lon="-13.82346">
        <ele>51.2</ele>
        <time>2021-07-04 09:38:07</time>
      </trkpt>
      <trkpt lat="28.97652" lon="-13.82344">
        <ele>51.6</ele>
        <time>2021-07-04 09:38:08</time>
      </trkpt>
      <trkpt lat="28.97653" lon="-13.82341">
        <ele>51.6</ele>
        <time>2021-07-04 09:38:09</time>
      </trkpt>
      <trkpt lat="28.97655" lon="-13.82337">
        <ele>51.8</ele>
        <time>2021-07-04 09:38:10</time>
      </trkpt>
      <trkpt lat="28.97657" lon="-13.82334">
        <ele>51.8</ele>
        <time>2021-07-04 09:38:11</time>
      </trkpt>
      <trkpt lat="28.97658" lon="-13.82331">
        <ele>52.2</ele>
        <time>2021-07-04 09:38:12</time>
      </trkpt>
      <trkpt lat="28.9766" lon="-13.82328">
        <ele>52.4</ele>
        <time>2021-07-04 09:38:13</time>
      </trkpt>
      <trkpt lat="28.97661" lon="-13.82325">
        <ele>52.4</ele>
        <time>2021-07-04 09:38:14</time>
      </trkpt>
      <trkpt lat="28.97663" lon="-13.82322">
        <ele>52.6</ele>
        <time>2021-07-04 09:38:15</time>
      </trkpt>
      <trkpt lat="28.97665" lon="-13.82319">
        <ele>52.6</ele>
        <time>2021-07-04 09:38:16</time>
      </trkpt>
      <trkpt lat="28.97667" lon="-13.82316">
        <ele>53</ele>
        <time>2021-07-04 09:38:17</time>
      </trkpt>
      <trkpt lat="28.97669" lon="-13.82313">
        <ele>53</ele>
        <time>2021-07-04 09:38:18</time>
      </trkpt>
      <trkpt lat="28.9767" lon="-13.8231">
        <ele>53</ele>
        <time>2021-07-04 09:38:19</time>
      </trkpt>
      <trkpt lat="28.97672" lon="-13.82307">
        <ele>53.2</ele>
        <time>2021-07-04 09:38:20</time>
      </trkpt>
      <trkpt lat="28.97674" lon="-13.82304">
        <ele>53.2</ele>
        <time>2021-07-04 09:38:21</time>
      </trkpt>
      <trkpt lat="28.97676" lon="-13.82301">
        <ele>53.2</ele>
        <time>2021-07-04 09:38:22</time>
      </trkpt>
      <trkpt lat="28.97677" lon="-13.82298">
        <ele>53.4</ele>
        <time>2021-07-04 09:38:23</time>
      </trkpt>
      <trkpt lat="28.97679" lon="-13.82294">
        <ele>53.4</ele>
        <time>2021-07-04 09:38:24</time>
      </trkpt>
      <trkpt lat="28.97681" lon="-13.82291">
        <ele>53.6</ele>
        <time>2021-07-04 09:38:25</time>
      </trkpt>
      <trkpt lat="28.97683" lon="-13.82288">
        <ele>53.6</ele>
        <time>2021-07-04 09:38:26</time>
      </trkpt>
      <trkpt lat="28.97685" lon="-13.82285">
        <ele>54</ele>
        <time>2021-07-04 09:38:27</time>
      </trkpt>
      <trkpt lat="28.97687" lon="-13.82282">
        <ele>54</ele>
        <time>2021-07-04 09:38:28</time>
      </trkpt>
      <trkpt lat="28.97689" lon="-13.82279">
        <ele>54.2</ele>
        <time>2021-07-04 09:38:29</time>
      </trkpt>
      <trkpt lat="28.97691" lon="-13.82276">
        <ele>54.2</ele>
        <time>2021-07-04 09:38:30</time>
      </trkpt>
      <trkpt lat="28.97693" lon="-13.82273">
        <ele>54.2</ele>
        <time>2021-07-04 09:38:31</time>
      </trkpt>
      <trkpt lat="28.97695" lon="-13.8227">
        <ele>54.6</ele>
        <time>2021-07-04 09:38:32</time>
      </trkpt>
      <trkpt lat="28.97697" lon="-13.82267">
        <ele>54.6</ele>
        <time>2021-07-04 09:38:33</time>
      </trkpt>
      <trkpt lat="28.97699" lon="-13.82264">
        <ele>54.8</ele>
        <time>2021-07-04 09:38:34</time>
      </trkpt>
      <trkpt lat="28.97701" lon="-13.82261">
        <ele>55</ele>
        <time>2021-07-04 09:38:35</time>
      </trkpt>
      <trkpt lat="28.97703" lon="-13.82259">
        <ele>55</ele>
        <time>2021-07-04 09:38:36</time>
      </trkpt>
      <trkpt lat="28.97705" lon="-13.82256">
        <ele>55.4</ele>
        <time>2021-07-04 09:38:37</time>
      </trkpt>
      <trkpt lat="28.97707" lon="-13.82253">
        <ele>55.4</ele>
        <time>2021-07-04 09:38:38</time>
      </trkpt>
      <trkpt lat="28.97709" lon="-13.8225">
        <ele>55.4</ele>
        <time>2021-07-04 09:38:39</time>
      </trkpt>
      <trkpt lat="28.97712" lon="-13.82247">
        <ele>55.4</ele>
        <time>2021-07-04 09:38:40</time>
      </trkpt>
      <trkpt lat="28.97714" lon="-13.82245">
        <ele>55.4</ele>
        <time>2021-07-04 09:38:41</time>
      </trkpt>
      <trkpt lat="28.97716" lon="-13.82242">
        <ele>55.4</ele>
        <time>2021-07-04 09:38:42</time>
      </trkpt>
      <trkpt lat="28.97718" lon="-13.82239">
        <ele>55.4</ele>
        <time>2021-07-04 09:38:43</time>
      </trkpt>
      <trkpt lat="28.9772" lon="-13.82236">
        <ele>55.4</ele>
        <time>2021-07-04 09:38:44</time>
      </trkpt>
      <trkpt lat="28.97723" lon="-13.82234">
        <ele>55.4</ele>
        <time>2021-07-04 09:38:45</time>
      </trkpt>
      <trkpt lat="28.97725" lon="-13.82231">
        <ele>55.4</ele>
        <time>2021-07-04 09:38:46</time>
      </trkpt>
      <trkpt lat="28.97727" lon="-13.82228">
        <ele>55.4</ele>
        <time>2021-07-04 09:38:47</time>
      </trkpt>
      <trkpt lat="28.9773" lon="-13.82225">
        <ele>55.4</ele>
        <time>2021-07-04 09:38:48</time>
      </trkpt>
      <trkpt lat="28.97732" lon="-13.82222">
        <ele>55.4</ele>
        <time>2021-07-04 09:38:49</time>
      </trkpt>
      <trkpt lat="28.97734" lon="-13.8222">
        <ele>55.4</ele>
        <time>2021-07-04 09:38:50</time>
      </trkpt>
      <trkpt lat="28.97736" lon="-13.82217">
        <ele>55.4</ele>
        <time>2021-07-04 09:38:51</time>
      </trkpt>
      <trkpt lat="28.97738" lon="-13.82214">
        <ele>55.4</ele>
        <time>2021-07-04 09:38:52</time>
      </trkpt>
      <trkpt lat="28.9774" lon="-13.82211">
        <ele>55.4</ele>
        <time>2021-07-04 09:38:53</time>
      </trkpt>
      <trkpt lat="28.97742" lon="-13.82209">
        <ele>55.4</ele>
        <time>2021-07-04 09:38:54</time>
      </trkpt>
      <trkpt lat="28.97744" lon="-13.82206">
        <ele>55.4</ele>
        <time>2021-07-04 09:38:55</time>
      </trkpt>
      <trkpt lat="28.97746" lon="-13.82204">
        <ele>55.6</ele>
        <time>2021-07-04 09:38:56</time>
      </trkpt>
      <trkpt lat="28.97749" lon="-13.82201">
        <ele>55.6</ele>
        <time>2021-07-04 09:38:57</time>
      </trkpt>
      <trkpt lat="28.97751" lon="-13.82198">
        <ele>55.8</ele>
        <time>2021-07-04 09:38:58</time>
      </trkpt>
      <trkpt lat="28.97753" lon="-13.82196">
        <ele>55.8</ele>
        <time>2021-07-04 09:38:59</time>
      </trkpt>
      <trkpt lat="28.97755" lon="-13.82193">
        <ele>56.2</ele>
        <time>2021-07-04 09:39:00</time>
      </trkpt>
      <trkpt lat="28.97757" lon="-13.82191">
        <ele>56.2</ele>
        <time>2021-07-04 09:39:01</time>
      </trkpt>
      <trkpt lat="28.97759" lon="-13.82188">
        <ele>56.2</ele>
        <time>2021-07-04 09:39:02</time>
      </trkpt>
      <trkpt lat="28.97761" lon="-13.82186">
        <ele>56.4</ele>
        <time>2021-07-04 09:39:03</time>
      </trkpt>
      <trkpt lat="28.97762" lon="-13.82183">
        <ele>56.4</ele>
        <time>2021-07-04 09:39:04</time>
      </trkpt>
      <trkpt lat="28.97764" lon="-13.82181">
        <ele>56.8</ele>
        <time>2021-07-04 09:39:05</time>
      </trkpt>
      <trkpt lat="28.97766" lon="-13.82179">
        <ele>56.8</ele>
        <time>2021-07-04 09:39:06</time>
      </trkpt>
      <trkpt lat="28.97768" lon="-13.82177">
        <ele>57.2</ele>
        <time>2021-07-04 09:39:07</time>
      </trkpt>
      <trkpt lat="28.9777" lon="-13.82174">
        <ele>57.2</ele>
        <time>2021-07-04 09:39:08</time>
      </trkpt>
      <trkpt lat="28.97772" lon="-13.82172">
        <ele>57.4</ele>
        <time>2021-07-04 09:39:09</time>
      </trkpt>
      <trkpt lat="28.97774" lon="-13.8217">
        <ele>57.4</ele>
        <time>2021-07-04 09:39:10</time>
      </trkpt>
      <trkpt lat="28.97776" lon="-13.82167">
        <ele>57.4</ele>
        <time>2021-07-04 09:39:11</time>
      </trkpt>
      <trkpt lat="28.97778" lon="-13.82165">
        <ele>57.4</ele>
        <time>2021-07-04 09:39:12</time>
      </trkpt>
      <trkpt lat="28.9778" lon="-13.82162">
        <ele>57.6</ele>
        <time>2021-07-04 09:39:13</time>
      </trkpt>
      <trkpt lat="28.97782" lon="-13.8216">
        <ele>57.6</ele>
        <time>2021-07-04 09:39:14</time>
      </trkpt>
      <trkpt lat="28.97783" lon="-13.82157">
        <ele>57.6</ele>
        <time>2021-07-04 09:39:15</time>
      </trkpt>
      <trkpt lat="28.97785" lon="-13.82155">
        <ele>58</ele>
        <time>2021-07-04 09:39:16</time>
      </trkpt>
      <trkpt lat="28.97787" lon="-13.82153">
        <ele>58</ele>
        <time>2021-07-04 09:39:17</time>
      </trkpt>
      <trkpt lat="28.97789" lon="-13.8215">
        <ele>58</ele>
        <time>2021-07-04 09:39:18</time>
      </trkpt>
      <trkpt lat="28.97791" lon="-13.82148">
        <ele>58.2</ele>
        <time>2021-07-04 09:39:19</time>
      </trkpt>
      <trkpt lat="28.97793" lon="-13.82146">
        <ele>58.2</ele>
        <time>2021-07-04 09:39:20</time>
      </trkpt>
      <trkpt lat="28.97795" lon="-13.82143">
        <ele>58.2</ele>
        <time>2021-07-04 09:39:21</time>
      </trkpt>
      <trkpt lat="28.97797" lon="-13.82141">
        <ele>58.4</ele>
        <time>2021-07-04 09:39:22</time>
      </trkpt>
      <trkpt lat="28.97799" lon="-13.82139">
        <ele>58.4</ele>
        <time>2021-07-04 09:39:23</time>
      </trkpt>
      <trkpt lat="28.97801" lon="-13.82136">
        <ele>58.4</ele>
        <time>2021-07-04 09:39:24</time>
      </trkpt>
      <trkpt lat="28.97803" lon="-13.82134">
        <ele>58.4</ele>
        <time>2021-07-04 09:39:25</time>
      </trkpt>
      <trkpt lat="28.97805" lon="-13.82132">
        <ele>58.4</ele>
        <time>2021-07-04 09:39:26</time>
      </trkpt>
      <trkpt lat="28.97807" lon="-13.82129">
        <ele>58.4</ele>
        <time>2021-07-04 09:39:27</time>
      </trkpt>
      <trkpt lat="28.9781" lon="-13.82127">
        <ele>58.4</ele>
        <time>2021-07-04 09:39:28</time>
      </trkpt>
      <trkpt lat="28.97812" lon="-13.82124">
        <ele>58.4</ele>
        <time>2021-07-04 09:39:29</time>
      </trkpt>
      <trkpt lat="28.97814" lon="-13.82122">
        <ele>58.4</ele>
        <time>2021-07-04 09:39:30</time>
      </trkpt>
      <trkpt lat="28.97816" lon="-13.82119">
        <ele>58.4</ele>
        <time>2021-07-04 09:39:31</time>
      </trkpt>
      <trkpt lat="28.97818" lon="-13.82116">
        <ele>58.4</ele>
        <time>2021-07-04 09:39:32</time>
      </trkpt>
      <trkpt lat="28.9782" lon="-13.82114">
        <ele>58.4</ele>
        <time>2021-07-04 09:39:33</time>
      </trkpt>
      <trkpt lat="28.97822" lon="-13.82111">
        <ele>58.6</ele>
        <time>2021-07-04 09:39:34</time>
      </trkpt>
      <trkpt lat="28.97824" lon="-13.82109">
        <ele>58.6</ele>
        <time>2021-07-04 09:39:35</time>
      </trkpt>
      <trkpt lat="28.97827" lon="-13.82106">
        <ele>58.6</ele>
        <time>2021-07-04 09:39:36</time>
      </trkpt>
      <trkpt lat="28.97828" lon="-13.82103">
        <ele>58.6</ele>
        <time>2021-07-04 09:39:37</time>
      </trkpt>
      <trkpt lat="28.9783" lon="-13.82101">
        <ele>58.6</ele>
        <time>2021-07-04 09:39:38</time>
      </trkpt>
      <trkpt lat="28.97832" lon="-13.82098">
        <ele>59</ele>
        <time>2021-07-04 09:39:39</time>
      </trkpt>
      <trkpt lat="28.97835" lon="-13.82096">
        <ele>59</ele>
        <time>2021-07-04 09:39:40</time>
      </trkpt>
      <trkpt lat="28.97837" lon="-13.82093">
        <ele>59</ele>
        <time>2021-07-04 09:39:41</time>
      </trkpt>
      <trkpt lat="28.97839" lon="-13.8209">
        <ele>59</ele>
        <time>2021-07-04 09:39:42</time>
      </trkpt>
      <trkpt lat="28.97841" lon="-13.82088">
        <ele>59</ele>
        <time>2021-07-04 09:39:43</time>
      </trkpt>
      <trkpt lat="28.97843" lon="-13.82085">
        <ele>59</ele>
        <time>2021-07-04 09:39:44</time>
      </trkpt>
      <trkpt lat="28.97845" lon="-13.82083">
        <ele>59</ele>
        <time>2021-07-04 09:39:45</time>
      </trkpt>
      <trkpt lat="28.97847" lon="-13.8208">
        <ele>59</ele>
        <time>2021-07-04 09:39:46</time>
      </trkpt>
      <trkpt lat="28.9785" lon="-13.82078">
        <ele>59.2</ele>
        <time>2021-07-04 09:39:47</time>
      </trkpt>
      <trkpt lat="28.97852" lon="-13.82075">
        <ele>59.2</ele>
        <time>2021-07-04 09:39:48</time>
      </trkpt>
      <trkpt lat="28.97853" lon="-13.82072">
        <ele>59.2</ele>
        <time>2021-07-04 09:39:49</time>
      </trkpt>
      <trkpt lat="28.97855" lon="-13.8207">
        <ele>59.2</ele>
        <time>2021-07-04 09:39:50</time>
      </trkpt>
      <trkpt lat="28.97857" lon="-13.82066">
        <ele>59.2</ele>
        <time>2021-07-04 09:39:51</time>
      </trkpt>
      <trkpt lat="28.97858" lon="-13.82063">
        <ele>59.4</ele>
        <time>2021-07-04 09:39:52</time>
      </trkpt>
      <trkpt lat="28.97859" lon="-13.82059">
        <ele>59.4</ele>
        <time>2021-07-04 09:39:53</time>
      </trkpt>
      <trkpt lat="28.97861" lon="-13.82056">
        <ele>59.4</ele>
        <time>2021-07-04 09:39:54</time>
      </trkpt>
      <trkpt lat="28.97862" lon="-13.82052">
        <ele>59.4</ele>
        <time>2021-07-04 09:39:55</time>
      </trkpt>
      <trkpt lat="28.97864" lon="-13.82048">
        <ele>59.4</ele>
        <time>2021-07-04 09:39:56</time>
      </trkpt>
      <trkpt lat="28.97865" lon="-13.82044">
        <ele>59.4</ele>
        <time>2021-07-04 09:39:57</time>
      </trkpt>
      <trkpt lat="28.97866" lon="-13.8204">
        <ele>59.4</ele>
        <time>2021-07-04 09:39:58</time>
      </trkpt>
      <trkpt lat="28.97867" lon="-13.82036">
        <ele>59.6</ele>
        <time>2021-07-04 09:39:59</time>
      </trkpt>
      <trkpt lat="28.97867" lon="-13.82032">
        <ele>59.6</ele>
        <time>2021-07-04 09:40:00</time>
      </trkpt>
      <trkpt lat="28.97868" lon="-13.82028">
        <ele>59.6</ele>
        <time>2021-07-04 09:40:01</time>
      </trkpt>
      <trkpt lat="28.97868" lon="-13.82024">
        <ele>59.8</ele>
        <time>2021-07-04 09:40:02</time>
      </trkpt>
      <trkpt lat="28.97868" lon="-13.82021">
        <ele>59.8</ele>
        <time>2021-07-04 09:40:03</time>
      </trkpt>
      <trkpt lat="28.97868" lon="-13.82017">
        <ele>60</ele>
        <time>2021-07-04 09:40:04</time>
      </trkpt>
      <trkpt lat="28.97868" lon="-13.82013">
        <ele>60</ele>
        <time>2021-07-04 09:40:05</time>
      </trkpt>
      <trkpt lat="28.97868" lon="-13.82009">
        <ele>60</ele>
        <time>2021-07-04 09:40:06</time>
      </trkpt>
      <trkpt lat="28.97868" lon="-13.82006">
        <ele>60</ele>
        <time>2021-07-04 09:40:07</time>
      </trkpt>
      <trkpt lat="28.97868" lon="-13.82002">
        <ele>60.4</ele>
        <time>2021-07-04 09:40:08</time>
      </trkpt>
      <trkpt lat="28.97867" lon="-13.81999">
        <ele>60.4</ele>
        <time>2021-07-04 09:40:09</time>
      </trkpt>
      <trkpt lat="28.97867" lon="-13.81995">
        <ele>60.4</ele>
        <time>2021-07-04 09:40:10</time>
      </trkpt>
      <trkpt lat="28.97866" lon="-13.81991">
        <ele>60.4</ele>
        <time>2021-07-04 09:40:11</time>
      </trkpt>
      <trkpt lat="28.97865" lon="-13.81988">
        <ele>60.6</ele>
        <time>2021-07-04 09:40:12</time>
      </trkpt>
      <trkpt lat="28.97864" lon="-13.81985">
        <ele>60.6</ele>
        <time>2021-07-04 09:40:13</time>
      </trkpt>
      <trkpt lat="28.97863" lon="-13.81981">
        <ele>61</ele>
        <time>2021-07-04 09:40:14</time>
      </trkpt>
      <trkpt lat="28.97862" lon="-13.81978">
        <ele>61</ele>
        <time>2021-07-04 09:40:15</time>
      </trkpt>
      <trkpt lat="28.97861" lon="-13.81975">
        <ele>61</ele>
        <time>2021-07-04 09:40:16</time>
      </trkpt>
      <trkpt lat="28.97859" lon="-13.81972">
        <ele>61.2</ele>
        <time>2021-07-04 09:40:17</time>
      </trkpt>
      <trkpt lat="28.97858" lon="-13.81968">
        <ele>61.2</ele>
        <time>2021-07-04 09:40:18</time>
      </trkpt>
      <trkpt lat="28.97856" lon="-13.81965">
        <ele>61.2</ele>
        <time>2021-07-04 09:40:19</time>
      </trkpt>
      <trkpt lat="28.97855" lon="-13.81962">
        <ele>60.8</ele>
        <time>2021-07-04 09:40:20</time>
      </trkpt>
      <trkpt lat="28.97854" lon="-13.81958">
        <ele>60.4</ele>
        <time>2021-07-04 09:40:21</time>
      </trkpt>
      <trkpt lat="28.97852" lon="-13.81955">
        <ele>61</ele>
        <time>2021-07-04 09:40:22</time>
      </trkpt>
      <trkpt lat="28.9785" lon="-13.81951">
        <ele>61.4</ele>
        <time>2021-07-04 09:40:23</time>
      </trkpt>
      <trkpt lat="28.97848" lon="-13.81947">
        <ele>61.6</ele>
        <time>2021-07-04 09:40:24</time>
      </trkpt>
      <trkpt lat="28.97847" lon="-13.81943">
        <ele>62</ele>
        <time>2021-07-04 09:40:25</time>
      </trkpt>
      <trkpt lat="28.97845" lon="-13.81939">
        <ele>62</ele>
        <time>2021-07-04 09:40:26</time>
      </trkpt>
      <trkpt lat="28.97844" lon="-13.81935">
        <ele>62.2</ele>
        <time>2021-07-04 09:40:27</time>
      </trkpt>
      <trkpt lat="28.97843" lon="-13.81931">
        <ele>62.2</ele>
        <time>2021-07-04 09:40:28</time>
      </trkpt>
      <trkpt lat="28.97841" lon="-13.81927">
        <ele>62.2</ele>
        <time>2021-07-04 09:40:29</time>
      </trkpt>
      <trkpt lat="28.9784" lon="-13.81923">
        <ele>62.2</ele>
        <time>2021-07-04 09:40:30</time>
      </trkpt>
      <trkpt lat="28.97838" lon="-13.81919">
        <ele>62.4</ele>
        <time>2021-07-04 09:40:31</time>
      </trkpt>
      <trkpt lat="28.97837" lon="-13.81914">
        <ele>62.4</ele>
        <time>2021-07-04 09:40:32</time>
      </trkpt>
      <trkpt lat="28.97835" lon="-13.8191">
        <ele>62.6</ele>
        <time>2021-07-04 09:40:33</time>
      </trkpt>
      <trkpt lat="28.97833" lon="-13.81906">
        <ele>62.6</ele>
        <time>2021-07-04 09:40:34</time>
      </trkpt>
      <trkpt lat="28.97832" lon="-13.81902">
        <ele>62.6</ele>
        <time>2021-07-04 09:40:35</time>
      </trkpt>
      <trkpt lat="28.9783" lon="-13.81897">
        <ele>62.6</ele>
        <time>2021-07-04 09:40:36</time>
      </trkpt>
      <trkpt lat="28.97829" lon="-13.81893">
        <ele>62.6</ele>
        <time>2021-07-04 09:40:37</time>
      </trkpt>
      <trkpt lat="28.97827" lon="-13.81889">
        <ele>62.8</ele>
        <time>2021-07-04 09:40:38</time>
      </trkpt>
      <trkpt lat="28.97826" lon="-13.81884">
        <ele>62.8</ele>
        <time>2021-07-04 09:40:39</time>
      </trkpt>
      <trkpt lat="28.97824" lon="-13.8188">
        <ele>63</ele>
        <time>2021-07-04 09:40:40</time>
      </trkpt>
      <trkpt lat="28.97823" lon="-13.81876">
        <ele>63</ele>
        <time>2021-07-04 09:40:41</time>
      </trkpt>
      <trkpt lat="28.97822" lon="-13.81872">
        <ele>63</ele>
        <time>2021-07-04 09:40:42</time>
      </trkpt>
      <trkpt lat="28.9782" lon="-13.81868">
        <ele>63</ele>
        <time>2021-07-04 09:40:43</time>
      </trkpt>
      <trkpt lat="28.97819" lon="-13.81863">
        <ele>63.4</ele>
        <time>2021-07-04 09:40:44</time>
      </trkpt>
      <trkpt lat="28.97817" lon="-13.81859">
        <ele>63.4</ele>
        <time>2021-07-04 09:40:45</time>
      </trkpt>
      <trkpt lat="28.97816" lon="-13.81855">
        <ele>63.4</ele>
        <time>2021-07-04 09:40:46</time>
      </trkpt>
      <trkpt lat="28.97815" lon="-13.81851">
        <ele>63.6</ele>
        <time>2021-07-04 09:40:47</time>
      </trkpt>
      <trkpt lat="28.97813" lon="-13.81846">
        <ele>63.6</ele>
        <time>2021-07-04 09:40:48</time>
      </trkpt>
      <trkpt lat="28.97812" lon="-13.81842">
        <ele>63.8</ele>
        <time>2021-07-04 09:40:49</time>
      </trkpt>
      <trkpt lat="28.97811" lon="-13.81838">
        <ele>63.8</ele>
        <time>2021-07-04 09:40:50</time>
      </trkpt>
      <trkpt lat="28.9781" lon="-13.81833">
        <ele>64.2</ele>
        <time>2021-07-04 09:40:51</time>
      </trkpt>
      <trkpt lat="28.97809" lon="-13.81829">
        <ele>64.2</ele>
        <time>2021-07-04 09:40:52</time>
      </trkpt>
      <trkpt lat="28.97807" lon="-13.81824">
        <ele>64.2</ele>
        <time>2021-07-04 09:40:53</time>
      </trkpt>
      <trkpt lat="28.97806" lon="-13.8182">
        <ele>64.2</ele>
        <time>2021-07-04 09:40:54</time>
      </trkpt>
      <trkpt lat="28.97805" lon="-13.81816">
        <ele>64.4</ele>
        <time>2021-07-04 09:40:55</time>
      </trkpt>
      <trkpt lat="28.97805" lon="-13.81811">
        <ele>64.4</ele>
        <time>2021-07-04 09:40:56</time>
      </trkpt>
      <trkpt lat="28.97804" lon="-13.81807">
        <ele>64.4</ele>
        <time>2021-07-04 09:40:57</time>
      </trkpt>
      <trkpt lat="28.97803" lon="-13.81803">
        <ele>64.4</ele>
        <time>2021-07-04 09:40:58</time>
      </trkpt>
      <trkpt lat="28.97802" lon="-13.81798">
        <ele>64.6</ele>
        <time>2021-07-04 09:40:59</time>
      </trkpt>
      <trkpt lat="28.97802" lon="-13.81794">
        <ele>64.6</ele>
        <time>2021-07-04 09:41:00</time>
      </trkpt>
      <trkpt lat="28.97801" lon="-13.8179">
        <ele>64.6</ele>
        <time>2021-07-04 09:41:01</time>
      </trkpt>
      <trkpt lat="28.97801" lon="-13.81785">
        <ele>64.8</ele>
        <time>2021-07-04 09:41:02</time>
      </trkpt>
      <trkpt lat="28.97801" lon="-13.81781">
        <ele>64.8</ele>
        <time>2021-07-04 09:41:03</time>
      </trkpt>
      <trkpt lat="28.978" lon="-13.81776">
        <ele>64.8</ele>
        <time>2021-07-04 09:41:04</time>
      </trkpt>
      <trkpt lat="28.978" lon="-13.81772">
        <ele>65</ele>
        <time>2021-07-04 09:41:05</time>
      </trkpt>
      <trkpt lat="28.978" lon="-13.81767">
        <ele>65</ele>
        <time>2021-07-04 09:41:06</time>
      </trkpt>
      <trkpt lat="28.97799" lon="-13.81763">
        <ele>65</ele>
        <time>2021-07-04 09:41:07</time>
      </trkpt>
      <trkpt lat="28.97799" lon="-13.81759">
        <ele>65</ele>
        <time>2021-07-04 09:41:08</time>
      </trkpt>
      <trkpt lat="28.97798" lon="-13.81755">
        <ele>65.4</ele>
        <time>2021-07-04 09:41:09</time>
      </trkpt>
      <trkpt lat="28.97798" lon="-13.8175">
        <ele>65.4</ele>
        <time>2021-07-04 09:41:10</time>
      </trkpt>
      <trkpt lat="28.97798" lon="-13.81746">
        <ele>65.8</ele>
        <time>2021-07-04 09:41:11</time>
      </trkpt>
      <trkpt lat="28.97797" lon="-13.81742">
        <ele>65.8</ele>
        <time>2021-07-04 09:41:12</time>
      </trkpt>
      <trkpt lat="28.97797" lon="-13.81738">
        <ele>66</ele>
        <time>2021-07-04 09:41:13</time>
      </trkpt>
      <trkpt lat="28.97797" lon="-13.81734">
        <ele>66</ele>
        <time>2021-07-04 09:41:14</time>
      </trkpt>
      <trkpt lat="28.97796" lon="-13.8173">
        <ele>66</ele>
        <time>2021-07-04 09:41:15</time>
      </trkpt>
      <trkpt lat="28.97796" lon="-13.81726">
        <ele>66.4</ele>
        <time>2021-07-04 09:41:16</time>
      </trkpt>
      <trkpt lat="28.97796" lon="-13.81722">
        <ele>66.4</ele>
        <time>2021-07-04 09:41:17</time>
      </trkpt>
      <trkpt lat="28.97796" lon="-13.81718">
        <ele>66.6</ele>
        <time>2021-07-04 09:41:18</time>
      </trkpt>
      <trkpt lat="28.97795" lon="-13.81714">
        <ele>66.6</ele>
        <time>2021-07-04 09:41:19</time>
      </trkpt>
      <trkpt lat="28.97795" lon="-13.8171">
        <ele>66.6</ele>
        <time>2021-07-04 09:41:20</time>
      </trkpt>
      <trkpt lat="28.97795" lon="-13.81706">
        <ele>66.8</ele>
        <time>2021-07-04 09:41:21</time>
      </trkpt>
      <trkpt lat="28.97794" lon="-13.81702">
        <ele>66.8</ele>
        <time>2021-07-04 09:41:22</time>
      </trkpt>
      <trkpt lat="28.97794" lon="-13.81699">
        <ele>66.8</ele>
        <time>2021-07-04 09:41:23</time>
      </trkpt>
      <trkpt lat="28.97794" lon="-13.81695">
        <ele>67.2</ele>
        <time>2021-07-04 09:41:24</time>
      </trkpt>
      <trkpt lat="28.97793" lon="-13.81691">
        <ele>67.2</ele>
        <time>2021-07-04 09:41:25</time>
      </trkpt>
      <trkpt lat="28.97793" lon="-13.81687">
        <ele>67.2</ele>
        <time>2021-07-04 09:41:26</time>
      </trkpt>
      <trkpt lat="28.97792" lon="-13.81684">
        <ele>67.4</ele>
        <time>2021-07-04 09:41:27</time>
      </trkpt>
      <trkpt lat="28.97792" lon="-13.8168">
        <ele>67.4</ele>
        <time>2021-07-04 09:41:28</time>
      </trkpt>
      <trkpt lat="28.97792" lon="-13.81676">
        <ele>67.4</ele>
        <time>2021-07-04 09:41:29</time>
      </trkpt>
      <trkpt lat="28.97791" lon="-13.81673">
        <ele>67.8</ele>
        <time>2021-07-04 09:41:30</time>
      </trkpt>
      <trkpt lat="28.97791" lon="-13.81669">
        <ele>67.8</ele>
        <time>2021-07-04 09:41:31</time>
      </trkpt>
      <trkpt lat="28.9779" lon="-13.81665">
        <ele>68</ele>
        <time>2021-07-04 09:41:32</time>
      </trkpt>
      <trkpt lat="28.97789" lon="-13.81661">
        <ele>68</ele>
        <time>2021-07-04 09:41:33</time>
      </trkpt>
      <trkpt lat="28.97789" lon="-13.81658">
        <ele>68.4</ele>
        <time>2021-07-04 09:41:34</time>
      </trkpt>
      <trkpt lat="28.97788" lon="-13.81654">
        <ele>68.4</ele>
        <time>2021-07-04 09:41:35</time>
      </trkpt>
      <trkpt lat="28.97788" lon="-13.8165">
        <ele>68.8</ele>
        <time>2021-07-04 09:41:36</time>
      </trkpt>
      <trkpt lat="28.97787" lon="-13.81646">
        <ele>69</ele>
        <time>2021-07-04 09:41:37</time>
      </trkpt>
      <trkpt lat="28.97786" lon="-13.81642">
        <ele>69</ele>
        <time>2021-07-04 09:41:38</time>
      </trkpt>
      <trkpt lat="28.97786" lon="-13.81638">
        <ele>69.2</ele>
        <time>2021-07-04 09:41:39</time>
      </trkpt>
      <trkpt lat="28.97785" lon="-13.81634">
        <ele>69.4</ele>
        <time>2021-07-04 09:41:40</time>
      </trkpt>
      <trkpt lat="28.97784" lon="-13.8163">
        <ele>69.4</ele>
        <time>2021-07-04 09:41:41</time>
      </trkpt>
      <trkpt lat="28.97783" lon="-13.81626">
        <ele>69.8</ele>
        <time>2021-07-04 09:41:42</time>
      </trkpt>
      <trkpt lat="28.97782" lon="-13.81622">
        <ele>69.8</ele>
        <time>2021-07-04 09:41:43</time>
      </trkpt>
      <trkpt lat="28.97781" lon="-13.81619">
        <ele>70.2</ele>
        <time>2021-07-04 09:41:44</time>
      </trkpt>
      <trkpt lat="28.97779" lon="-13.81615">
        <ele>70.2</ele>
        <time>2021-07-04 09:41:45</time>
      </trkpt>
      <trkpt lat="28.97778" lon="-13.81612">
        <ele>70.4</ele>
        <time>2021-07-04 09:41:46</time>
      </trkpt>
      <trkpt lat="28.97777" lon="-13.81609">
        <ele>70.6</ele>
        <time>2021-07-04 09:41:47</time>
      </trkpt>
      <trkpt lat="28.97776" lon="-13.81606">
        <ele>71</ele>
        <time>2021-07-04 09:41:48</time>
      </trkpt>
      <trkpt lat="28.97775" lon="-13.81602">
        <ele>71.4</ele>
        <time>2021-07-04 09:41:49</time>
      </trkpt>
      <trkpt lat="28.97773" lon="-13.81599">
        <ele>71.6</ele>
        <time>2021-07-04 09:41:50</time>
      </trkpt>
      <trkpt lat="28.97772" lon="-13.81595">
        <ele>71.6</ele>
        <time>2021-07-04 09:41:51</time>
      </trkpt>
      <trkpt lat="28.97771" lon="-13.81592">
        <ele>72</ele>
        <time>2021-07-04 09:41:52</time>
      </trkpt>
      <trkpt lat="28.9777" lon="-13.81589">
        <ele>72</ele>
        <time>2021-07-04 09:41:53</time>
      </trkpt>
      <trkpt lat="28.97769" lon="-13.81586">
        <ele>72.4</ele>
        <time>2021-07-04 09:41:54</time>
      </trkpt>
      <trkpt lat="28.97768" lon="-13.81583">
        <ele>72.4</ele>
        <time>2021-07-04 09:41:55</time>
      </trkpt>
      <trkpt lat="28.97767" lon="-13.8158">
        <ele>72.6</ele>
        <time>2021-07-04 09:41:56</time>
      </trkpt>
      <trkpt lat="28.97766" lon="-13.81577">
        <ele>72.6</ele>
        <time>2021-07-04 09:41:57</time>
      </trkpt>
      <trkpt lat="28.97765" lon="-13.81574">
        <ele>72.6</ele>
        <time>2021-07-04 09:41:58</time>
      </trkpt>
      <trkpt lat="28.97763" lon="-13.8157">
        <ele>73</ele>
        <time>2021-07-04 09:41:59</time>
      </trkpt>
      <trkpt lat="28.97762" lon="-13.81567">
        <ele>73</ele>
        <time>2021-07-04 09:42:00</time>
      </trkpt>
      <trkpt lat="28.9776" lon="-13.81564">
        <ele>73.4</ele>
        <time>2021-07-04 09:42:01</time>
      </trkpt>
      <trkpt lat="28.97759" lon="-13.81561">
        <ele>73.4</ele>
        <time>2021-07-04 09:42:02</time>
      </trkpt>
      <trkpt lat="28.97757" lon="-13.81558">
        <ele>73.6</ele>
        <time>2021-07-04 09:42:03</time>
      </trkpt>
      <trkpt lat="28.97756" lon="-13.81555">
        <ele>73.6</ele>
        <time>2021-07-04 09:42:04</time>
      </trkpt>
      <trkpt lat="28.97754" lon="-13.81551">
        <ele>73.6</ele>
        <time>2021-07-04 09:42:05</time>
      </trkpt>
      <trkpt lat="28.97752" lon="-13.81548">
        <ele>74</ele>
        <time>2021-07-04 09:42:06</time>
      </trkpt>
      <trkpt lat="28.97751" lon="-13.81545">
        <ele>74</ele>
        <time>2021-07-04 09:42:07</time>
      </trkpt>
      <trkpt lat="28.9775" lon="-13.81542">
        <ele>74.2</ele>
        <time>2021-07-04 09:42:08</time>
      </trkpt>
      <trkpt lat="28.97748" lon="-13.81539">
        <ele>74.6</ele>
        <time>2021-07-04 09:42:09</time>
      </trkpt>
      <trkpt lat="28.97747" lon="-13.81536">
        <ele>74.6</ele>
        <time>2021-07-04 09:42:10</time>
      </trkpt>
      <trkpt lat="28.97746" lon="-13.81533">
        <ele>75</ele>
        <time>2021-07-04 09:42:11</time>
      </trkpt>
      <trkpt lat="28.97745" lon="-13.8153">
        <ele>75</ele>
        <time>2021-07-04 09:42:12</time>
      </trkpt>
      <trkpt lat="28.97743" lon="-13.81527">
        <ele>75.2</ele>
        <time>2021-07-04 09:42:13</time>
      </trkpt>
      <trkpt lat="28.97742" lon="-13.81524">
        <ele>75.2</ele>
        <time>2021-07-04 09:42:14</time>
      </trkpt>
      <trkpt lat="28.97741" lon="-13.81521">
        <ele>75.8</ele>
        <time>2021-07-04 09:42:15</time>
      </trkpt>
      <trkpt lat="28.9774" lon="-13.81518">
        <ele>76</ele>
        <time>2021-07-04 09:42:16</time>
      </trkpt>
      <trkpt lat="28.97738" lon="-13.81515">
        <ele>76</ele>
        <time>2021-07-04 09:42:17</time>
      </trkpt>
      <trkpt lat="28.97737" lon="-13.81512">
        <ele>76.2</ele>
        <time>2021-07-04 09:42:18</time>
      </trkpt>
      <trkpt lat="28.97736" lon="-13.8151">
        <ele>76.4</ele>
        <time>2021-07-04 09:42:19</time>
      </trkpt>
      <trkpt lat="28.97734" lon="-13.81507">
        <ele>76.4</ele>
        <time>2021-07-04 09:42:20</time>
      </trkpt>
      <trkpt lat="28.97733" lon="-13.81504">
        <ele>76.8</ele>
        <time>2021-07-04 09:42:21</time>
      </trkpt>
      <trkpt lat="28.97732" lon="-13.81501">
        <ele>77</ele>
        <time>2021-07-04 09:42:22</time>
      </trkpt>
      <trkpt lat="28.9773" lon="-13.81498">
        <ele>77.2</ele>
        <time>2021-07-04 09:42:23</time>
      </trkpt>
      <trkpt lat="28.97729" lon="-13.81495">
        <ele>77.6</ele>
        <time>2021-07-04 09:42:24</time>
      </trkpt>
      <trkpt lat="28.97728" lon="-13.81492">
        <ele>78</ele>
        <time>2021-07-04 09:42:25</time>
      </trkpt>
      <trkpt lat="28.97726" lon="-13.81489">
        <ele>78.4</ele>
        <time>2021-07-04 09:42:26</time>
      </trkpt>
      <trkpt lat="28.97725" lon="-13.81487">
        <ele>78.8</ele>
        <time>2021-07-04 09:42:27</time>
      </trkpt>
      <trkpt lat="28.97724" lon="-13.81484">
        <ele>79.2</ele>
        <time>2021-07-04 09:42:28</time>
      </trkpt>
      <trkpt lat="28.97723" lon="-13.81482">
        <ele>79.6</ele>
        <time>2021-07-04 09:42:29</time>
      </trkpt>
      <trkpt lat="28.97722" lon="-13.81479">
        <ele>80</ele>
        <time>2021-07-04 09:42:30</time>
      </trkpt>
      <trkpt lat="28.97721" lon="-13.81477">
        <ele>80.2</ele>
        <time>2021-07-04 09:42:31</time>
      </trkpt>
      <trkpt lat="28.97719" lon="-13.81474">
        <ele>80.6</ele>
        <time>2021-07-04 09:42:32</time>
      </trkpt>
      <trkpt lat="28.97718" lon="-13.81472">
        <ele>80.8</ele>
        <time>2021-07-04 09:42:33</time>
      </trkpt>
      <trkpt lat="28.97717" lon="-13.81469">
        <ele>81.2</ele>
        <time>2021-07-04 09:42:34</time>
      </trkpt>
      <trkpt lat="28.97716" lon="-13.81466">
        <ele>81.4</ele>
        <time>2021-07-04 09:42:35</time>
      </trkpt>
      <trkpt lat="28.97714" lon="-13.81463">
        <ele>81.6</ele>
        <time>2021-07-04 09:42:36</time>
      </trkpt>
      <trkpt lat="28.97713" lon="-13.81459">
        <ele>81.6</ele>
        <time>2021-07-04 09:42:37</time>
      </trkpt>
      <trkpt lat="28.97712" lon="-13.81456">
        <ele>82</ele>
        <time>2021-07-04 09:42:38</time>
      </trkpt>
      <trkpt lat="28.97711" lon="-13.81453">
        <ele>82</ele>
        <time>2021-07-04 09:42:39</time>
      </trkpt>
      <trkpt lat="28.97709" lon="-13.8145">
        <ele>82.4</ele>
        <time>2021-07-04 09:42:40</time>
      </trkpt>
      <trkpt lat="28.97708" lon="-13.81447">
        <ele>82.4</ele>
        <time>2021-07-04 09:42:41</time>
      </trkpt>
      <trkpt lat="28.97707" lon="-13.81444">
        <ele>82.4</ele>
        <time>2021-07-04 09:42:42</time>
      </trkpt>
      <trkpt lat="28.97705" lon="-13.81441">
        <ele>82.6</ele>
        <time>2021-07-04 09:42:43</time>
      </trkpt>
      <trkpt lat="28.97703" lon="-13.81438">
        <ele>82.6</ele>
        <time>2021-07-04 09:42:44</time>
      </trkpt>
      <trkpt lat="28.97702" lon="-13.81435">
        <ele>82.6</ele>
        <time>2021-07-04 09:42:45</time>
      </trkpt>
      <trkpt lat="28.977" lon="-13.81431">
        <ele>82.8</ele>
        <time>2021-07-04 09:42:46</time>
      </trkpt>
      <trkpt lat="28.97699" lon="-13.81428">
        <ele>82.8</ele>
        <time>2021-07-04 09:42:47</time>
      </trkpt>
      <trkpt lat="28.97697" lon="-13.81425">
        <ele>83</ele>
        <time>2021-07-04 09:42:48</time>
      </trkpt>
      <trkpt lat="28.97696" lon="-13.81422">
        <ele>83</ele>
        <time>2021-07-04 09:42:49</time>
      </trkpt>
      <trkpt lat="28.97694" lon="-13.81419">
        <ele>83</ele>
        <time>2021-07-04 09:42:50</time>
      </trkpt>
      <trkpt lat="28.97692" lon="-13.81416">
        <ele>83</ele>
        <time>2021-07-04 09:42:51</time>
      </trkpt>
      <trkpt lat="28.9769" lon="-13.81413">
        <ele>83</ele>
        <time>2021-07-04 09:42:52</time>
      </trkpt>
      <trkpt lat="28.97689" lon="-13.8141">
        <ele>83</ele>
        <time>2021-07-04 09:42:53</time>
      </trkpt>
      <trkpt lat="28.97687" lon="-13.81407">
        <ele>83</ele>
        <time>2021-07-04 09:42:54</time>
      </trkpt>
      <trkpt lat="28.97685" lon="-13.81403">
        <ele>83</ele>
        <time>2021-07-04 09:42:55</time>
      </trkpt>
      <trkpt lat="28.97684" lon="-13.814">
        <ele>83</ele>
        <time>2021-07-04 09:42:56</time>
      </trkpt>
      <trkpt lat="28.97682" lon="-13.81397">
        <ele>83</ele>
        <time>2021-07-04 09:42:57</time>
      </trkpt>
      <trkpt lat="28.9768" lon="-13.81394">
        <ele>83</ele>
        <time>2021-07-04 09:42:58</time>
      </trkpt>
      <trkpt lat="28.97678" lon="-13.81391">
        <ele>83.2</ele>
        <time>2021-07-04 09:42:59</time>
      </trkpt>
      <trkpt lat="28.97676" lon="-13.81388">
        <ele>83.2</ele>
        <time>2021-07-04 09:43:00</time>
      </trkpt>
      <trkpt lat="28.97674" lon="-13.81385">
        <ele>83.2</ele>
        <time>2021-07-04 09:43:01</time>
      </trkpt>
      <trkpt lat="28.97672" lon="-13.81383">
        <ele>83.4</ele>
        <time>2021-07-04 09:43:02</time>
      </trkpt>
      <trkpt lat="28.9767" lon="-13.8138">
        <ele>83.4</ele>
        <time>2021-07-04 09:43:03</time>
      </trkpt>
      <trkpt lat="28.97668" lon="-13.81377">
        <ele>83.6</ele>
        <time>2021-07-04 09:43:04</time>
      </trkpt>
      <trkpt lat="28.97666" lon="-13.81375">
        <ele>83.6</ele>
        <time>2021-07-04 09:43:05</time>
      </trkpt>
      <trkpt lat="28.97664" lon="-13.81373">
        <ele>84</ele>
        <time>2021-07-04 09:43:06</time>
      </trkpt>
      <trkpt lat="28.97662" lon="-13.8137">
        <ele>84</ele>
        <time>2021-07-04 09:43:07</time>
      </trkpt>
      <trkpt lat="28.97659" lon="-13.81368">
        <ele>84</ele>
        <time>2021-07-04 09:43:08</time>
      </trkpt>
      <trkpt lat="28.97657" lon="-13.81365">
        <ele>84</ele>
        <time>2021-07-04 09:43:09</time>
      </trkpt>
      <trkpt lat="28.97655" lon="-13.81362">
        <ele>84</ele>
        <time>2021-07-04 09:43:10</time>
      </trkpt>
      <trkpt lat="28.97652" lon="-13.8136">
        <ele>84</ele>
        <time>2021-07-04 09:43:11</time>
      </trkpt>
      <trkpt lat="28.9765" lon="-13.81357">
        <ele>84</ele>
        <time>2021-07-04 09:43:12</time>
      </trkpt>
      <trkpt lat="28.97648" lon="-13.81355">
        <ele>84</ele>
        <time>2021-07-04 09:43:13</time>
      </trkpt>
      <trkpt lat="28.97645" lon="-13.81352">
        <ele>84</ele>
        <time>2021-07-04 09:43:14</time>
      </trkpt>
      <trkpt lat="28.97643" lon="-13.81349">
        <ele>84.4</ele>
        <time>2021-07-04 09:43:15</time>
      </trkpt>
      <trkpt lat="28.9764" lon="-13.81346">
        <ele>84.4</ele>
        <time>2021-07-04 09:43:16</time>
      </trkpt>
      <trkpt lat="28.97638" lon="-13.81344">
        <ele>84.6</ele>
        <time>2021-07-04 09:43:17</time>
      </trkpt>
      <trkpt lat="28.97635" lon="-13.81341">
        <ele>84.6</ele>
        <time>2021-07-04 09:43:18</time>
      </trkpt>
      <trkpt lat="28.97632" lon="-13.81339">
        <ele>84.8</ele>
        <time>2021-07-04 09:43:19</time>
      </trkpt>
      <trkpt lat="28.9763" lon="-13.81336">
        <ele>84.8</ele>
        <time>2021-07-04 09:43:20</time>
      </trkpt>
      <trkpt lat="28.97627" lon="-13.81334">
        <ele>84.8</ele>
        <time>2021-07-04 09:43:21</time>
      </trkpt>
      <trkpt lat="28.97624" lon="-13.81331">
        <ele>84.8</ele>
        <time>2021-07-04 09:43:22</time>
      </trkpt>
      <trkpt lat="28.97621" lon="-13.81328">
        <ele>84.8</ele>
        <time>2021-07-04 09:43:23</time>
      </trkpt>
      <trkpt lat="28.97618" lon="-13.81325">
        <ele>84.8</ele>
        <time>2021-07-04 09:43:24</time>
      </trkpt>
      <trkpt lat="28.97615" lon="-13.81322">
        <ele>85.2</ele>
        <time>2021-07-04 09:43:25</time>
      </trkpt>
      <trkpt lat="28.97612" lon="-13.81319">
        <ele>85.2</ele>
        <time>2021-07-04 09:43:26</time>
      </trkpt>
      <trkpt lat="28.97609" lon="-13.81316">
        <ele>85.2</ele>
        <time>2021-07-04 09:43:27</time>
      </trkpt>
      <trkpt lat="28.97605" lon="-13.81313">
        <ele>85.2</ele>
        <time>2021-07-04 09:43:28</time>
      </trkpt>
      <trkpt lat="28.97602" lon="-13.8131">
        <ele>85.2</ele>
        <time>2021-07-04 09:43:29</time>
      </trkpt>
      <trkpt lat="28.97599" lon="-13.81307">
        <ele>85.2</ele>
        <time>2021-07-04 09:43:30</time>
      </trkpt>
      <trkpt lat="28.97596" lon="-13.81304">
        <ele>85.2</ele>
        <time>2021-07-04 09:43:31</time>
      </trkpt>
      <trkpt lat="28.97592" lon="-13.81301">
        <ele>85.2</ele>
        <time>2021-07-04 09:43:32</time>
      </trkpt>
      <trkpt lat="28.97589" lon="-13.81299">
        <ele>85.4</ele>
        <time>2021-07-04 09:43:33</time>
      </trkpt>
      <trkpt lat="28.97586" lon="-13.81296">
        <ele>85.4</ele>
        <time>2021-07-04 09:43:34</time>
      </trkpt>
      <trkpt lat="28.97583" lon="-13.81293">
        <ele>85.6</ele>
        <time>2021-07-04 09:43:35</time>
      </trkpt>
      <trkpt lat="28.9758" lon="-13.81291">
        <ele>85.6</ele>
        <time>2021-07-04 09:43:36</time>
      </trkpt>
      <trkpt lat="28.97576" lon="-13.81288">
        <ele>85.6</ele>
        <time>2021-07-04 09:43:37</time>
      </trkpt>
      <trkpt lat="28.97573" lon="-13.81285">
        <ele>85.6</ele>
        <time>2021-07-04 09:43:38</time>
      </trkpt>
      <trkpt lat="28.9757" lon="-13.81282">
        <ele>85.6</ele>
        <time>2021-07-04 09:43:39</time>
      </trkpt>
      <trkpt lat="28.97566" lon="-13.81279">
        <ele>86</ele>
        <time>2021-07-04 09:43:40</time>
      </trkpt>
      <trkpt lat="28.97563" lon="-13.81276">
        <ele>86</ele>
        <time>2021-07-04 09:43:41</time>
      </trkpt>
      <trkpt lat="28.97559" lon="-13.81272">
        <ele>86.4</ele>
        <time>2021-07-04 09:43:42</time>
      </trkpt>
      <trkpt lat="28.97556" lon="-13.8127">
        <ele>86.6</ele>
        <time>2021-07-04 09:43:43</time>
      </trkpt>
      <trkpt lat="28.97553" lon="-13.81267">
        <ele>86.8</ele>
        <time>2021-07-04 09:43:44</time>
      </trkpt>
      <trkpt lat="28.9755" lon="-13.81264">
        <ele>87</ele>
        <time>2021-07-04 09:43:45</time>
      </trkpt>
      <trkpt lat="28.97546" lon="-13.81261">
        <ele>87.2</ele>
        <time>2021-07-04 09:43:46</time>
      </trkpt>
      <trkpt lat="28.97543" lon="-13.81258">
        <ele>87.4</ele>
        <time>2021-07-04 09:43:47</time>
      </trkpt>
      <trkpt lat="28.9754" lon="-13.81255">
        <ele>87.8</ele>
        <time>2021-07-04 09:43:48</time>
      </trkpt>
      <trkpt lat="28.97537" lon="-13.81252">
        <ele>87.8</ele>
        <time>2021-07-04 09:43:49</time>
      </trkpt>
      <trkpt lat="28.97534" lon="-13.81249">
        <ele>87.8</ele>
        <time>2021-07-04 09:43:50</time>
      </trkpt>
      <trkpt lat="28.9753" lon="-13.81246">
        <ele>87.8</ele>
        <time>2021-07-04 09:43:51</time>
      </trkpt>
      <trkpt lat="28.97527" lon="-13.81243">
        <ele>87.8</ele>
        <time>2021-07-04 09:43:52</time>
      </trkpt>
      <trkpt lat="28.97523" lon="-13.8124">
        <ele>87.4</ele>
        <time>2021-07-04 09:43:53</time>
      </trkpt>
      <trkpt lat="28.9752" lon="-13.81237">
        <ele>87.4</ele>
        <time>2021-07-04 09:43:54</time>
      </trkpt>
      <trkpt lat="28.97517" lon="-13.81233">
        <ele>87.4</ele>
        <time>2021-07-04 09:43:55</time>
      </trkpt>
      <trkpt lat="28.97513" lon="-13.8123">
        <ele>87.2</ele>
        <time>2021-07-04 09:43:56</time>
      </trkpt>
      <trkpt lat="28.9751" lon="-13.81227">
        <ele>87.2</ele>
        <time>2021-07-04 09:43:57</time>
      </trkpt>
      <trkpt lat="28.97506" lon="-13.81224">
        <ele>87.2</ele>
        <time>2021-07-04 09:43:58</time>
      </trkpt>
      <trkpt lat="28.97503" lon="-13.81221">
        <ele>87</ele>
        <time>2021-07-04 09:43:59</time>
      </trkpt>
      <trkpt lat="28.97503" lon="-13.81221">
        <ele>87</ele>
        <time>2021-07-04 09:44:00</time>
      </trkpt>
      <trkpt lat="28.97496" lon="-13.81214">
        <ele>87</ele>
        <time>2021-07-04 09:44:01</time>
      </trkpt>
      <trkpt lat="28.97492" lon="-13.8121">
        <ele>87</ele>
        <time>2021-07-04 09:44:02</time>
      </trkpt>
      <trkpt lat="28.97489" lon="-13.81207">
        <ele>86.8</ele>
        <time>2021-07-04 09:44:03</time>
      </trkpt>
      <trkpt lat="28.97485" lon="-13.81204">
        <ele>86.8</ele>
        <time>2021-07-04 09:44:04</time>
      </trkpt>
      <trkpt lat="28.97482" lon="-13.812">
        <ele>86.4</ele>
        <time>2021-07-04 09:44:05</time>
      </trkpt>
      <trkpt lat="28.97478" lon="-13.81197">
        <ele>86.4</ele>
        <time>2021-07-04 09:44:06</time>
      </trkpt>
      <trkpt lat="28.97475" lon="-13.81193">
        <ele>86.4</ele>
        <time>2021-07-04 09:44:07</time>
      </trkpt>
      <trkpt lat="28.97471" lon="-13.8119">
        <ele>86.4</ele>
        <time>2021-07-04 09:44:08</time>
      </trkpt>
      <trkpt lat="28.97468" lon="-13.81186">
        <ele>86.2</ele>
        <time>2021-07-04 09:44:09</time>
      </trkpt>
      <trkpt lat="28.97465" lon="-13.81183">
        <ele>86.2</ele>
        <time>2021-07-04 09:44:10</time>
      </trkpt>
      <trkpt lat="28.97461" lon="-13.8118">
        <ele>86.2</ele>
        <time>2021-07-04 09:44:11</time>
      </trkpt>
      <trkpt lat="28.97457" lon="-13.81176">
        <ele>86.2</ele>
        <time>2021-07-04 09:44:12</time>
      </trkpt>
      <trkpt lat="28.97454" lon="-13.81172">
        <ele>86.2</ele>
        <time>2021-07-04 09:44:13</time>
      </trkpt>
      <trkpt lat="28.9745" lon="-13.81169">
        <ele>86.2</ele>
        <time>2021-07-04 09:44:14</time>
      </trkpt>
      <trkpt lat="28.97447" lon="-13.81166">
        <ele>86.2</ele>
        <time>2021-07-04 09:44:15</time>
      </trkpt>
      <trkpt lat="28.97443" lon="-13.81162">
        <ele>86.2</ele>
        <time>2021-07-04 09:44:16</time>
      </trkpt>
      <trkpt lat="28.97439" lon="-13.81159">
        <ele>86.4</ele>
        <time>2021-07-04 09:44:17</time>
      </trkpt>
      <trkpt lat="28.97436" lon="-13.81155">
        <ele>86.4</ele>
        <time>2021-07-04 09:44:18</time>
      </trkpt>
      <trkpt lat="28.97433" lon="-13.81152">
        <ele>86.4</ele>
        <time>2021-07-04 09:44:19</time>
      </trkpt>
      <trkpt lat="28.9743" lon="-13.81148">
        <ele>86.4</ele>
        <time>2021-07-04 09:44:20</time>
      </trkpt>
      <trkpt lat="28.97426" lon="-13.81145">
        <ele>86.6</ele>
        <time>2021-07-04 09:44:21</time>
      </trkpt>
      <trkpt lat="28.97423" lon="-13.81142">
        <ele>86.6</ele>
        <time>2021-07-04 09:44:22</time>
      </trkpt>
      <trkpt lat="28.9742" lon="-13.81139">
        <ele>86.6</ele>
        <time>2021-07-04 09:44:23</time>
      </trkpt>
      <trkpt lat="28.97416" lon="-13.81135">
        <ele>86.6</ele>
        <time>2021-07-04 09:44:24</time>
      </trkpt>
      <trkpt lat="28.97413" lon="-13.81132">
        <ele>86.6</ele>
        <time>2021-07-04 09:44:25</time>
      </trkpt>
      <trkpt lat="28.97409" lon="-13.81128">
        <ele>86.6</ele>
        <time>2021-07-04 09:44:26</time>
      </trkpt>
      <trkpt lat="28.97406" lon="-13.81124">
        <ele>86.6</ele>
        <time>2021-07-04 09:44:27</time>
      </trkpt>
      <trkpt lat="28.97402" lon="-13.81121">
        <ele>86.6</ele>
        <time>2021-07-04 09:44:28</time>
      </trkpt>
      <trkpt lat="28.97398" lon="-13.81117">
        <ele>86.6</ele>
        <time>2021-07-04 09:44:29</time>
      </trkpt>
      <trkpt lat="28.97395" lon="-13.81113">
        <ele>86.6</ele>
        <time>2021-07-04 09:44:30</time>
      </trkpt>
      <trkpt lat="28.97391" lon="-13.81109">
        <ele>86.6</ele>
        <time>2021-07-04 09:44:31</time>
      </trkpt>
      <trkpt lat="28.97387" lon="-13.81105">
        <ele>86.8</ele>
        <time>2021-07-04 09:44:32</time>
      </trkpt>
      <trkpt lat="28.97383" lon="-13.81102">
        <ele>86.8</ele>
        <time>2021-07-04 09:44:33</time>
      </trkpt>
      <trkpt lat="28.97379" lon="-13.81098">
        <ele>86.8</ele>
        <time>2021-07-04 09:44:34</time>
      </trkpt>
      <trkpt lat="28.97375" lon="-13.81094">
        <ele>86.8</ele>
        <time>2021-07-04 09:44:35</time>
      </trkpt>
      <trkpt lat="28.97372" lon="-13.8109">
        <ele>86.8</ele>
        <time>2021-07-04 09:44:36</time>
      </trkpt>
      <trkpt lat="28.97368" lon="-13.81086">
        <ele>86.8</ele>
        <time>2021-07-04 09:44:37</time>
      </trkpt>
      <trkpt lat="28.97364" lon="-13.81082">
        <ele>86.8</ele>
        <time>2021-07-04 09:44:38</time>
      </trkpt>
      <trkpt lat="28.9736" lon="-13.81078">
        <ele>86.8</ele>
        <time>2021-07-04 09:44:39</time>
      </trkpt>
      <trkpt lat="28.97356" lon="-13.81075">
        <ele>86.8</ele>
        <time>2021-07-04 09:44:40</time>
      </trkpt>
      <trkpt lat="28.97352" lon="-13.81071">
        <ele>86.8</ele>
        <time>2021-07-04 09:44:41</time>
      </trkpt>
      <trkpt lat="28.97348" lon="-13.81067">
        <ele>86.8</ele>
        <time>2021-07-04 09:44:42</time>
      </trkpt>
      <trkpt lat="28.97344" lon="-13.81063">
        <ele>87</ele>
        <time>2021-07-04 09:44:43</time>
      </trkpt>
      <trkpt lat="28.9734" lon="-13.81059">
        <ele>87</ele>
        <time>2021-07-04 09:44:44</time>
      </trkpt>
      <trkpt lat="28.97336" lon="-13.81055">
        <ele>87</ele>
        <time>2021-07-04 09:44:45</time>
      </trkpt>
      <trkpt lat="28.97332" lon="-13.81051">
        <ele>87</ele>
        <time>2021-07-04 09:44:46</time>
      </trkpt>
      <trkpt lat="28.97328" lon="-13.81047">
        <ele>87</ele>
        <time>2021-07-04 09:44:47</time>
      </trkpt>
      <trkpt lat="28.97324" lon="-13.81043">
        <ele>87</ele>
        <time>2021-07-04 09:44:48</time>
      </trkpt>
      <trkpt lat="28.9732" lon="-13.81039">
        <ele>86.8</ele>
        <time>2021-07-04 09:44:49</time>
      </trkpt>
      <trkpt lat="28.97316" lon="-13.81035">
        <ele>86.8</ele>
        <time>2021-07-04 09:44:50</time>
      </trkpt>
      <trkpt lat="28.97312" lon="-13.81031">
        <ele>86.8</ele>
        <time>2021-07-04 09:44:51</time>
      </trkpt>
      <trkpt lat="28.97308" lon="-13.81026">
        <ele>86.8</ele>
        <time>2021-07-04 09:44:52</time>
      </trkpt>
      <trkpt lat="28.97304" lon="-13.81022">
        <ele>86.8</ele>
        <time>2021-07-04 09:44:53</time>
      </trkpt>
      <trkpt lat="28.97299" lon="-13.81018">
        <ele>86.8</ele>
        <time>2021-07-04 09:44:54</time>
      </trkpt>
      <trkpt lat="28.97296" lon="-13.81014">
        <ele>86.8</ele>
        <time>2021-07-04 09:44:55</time>
      </trkpt>
      <trkpt lat="28.97292" lon="-13.8101">
        <ele>86.8</ele>
        <time>2021-07-04 09:44:56</time>
      </trkpt>
      <trkpt lat="28.97288" lon="-13.81006">
        <ele>86.8</ele>
        <time>2021-07-04 09:44:57</time>
      </trkpt>
      <trkpt lat="28.97284" lon="-13.81002">
        <ele>87</ele>
        <time>2021-07-04 09:44:58</time>
      </trkpt>
      <trkpt lat="28.9728" lon="-13.80997">
        <ele>87</ele>
        <time>2021-07-04 09:44:59</time>
      </trkpt>
      <trkpt lat="28.97276" lon="-13.80994">
        <ele>87</ele>
        <time>2021-07-04 09:45:00</time>
      </trkpt>
      <trkpt lat="28.97272" lon="-13.8099">
        <ele>87.2</ele>
        <time>2021-07-04 09:45:01</time>
      </trkpt>
      <trkpt lat="28.97268" lon="-13.80986">
        <ele>87.2</ele>
        <time>2021-07-04 09:45:02</time>
      </trkpt>
      <trkpt lat="28.97264" lon="-13.80982">
        <ele>87.6</ele>
        <time>2021-07-04 09:45:03</time>
      </trkpt>
      <trkpt lat="28.97261" lon="-13.80978">
        <ele>87.6</ele>
        <time>2021-07-04 09:45:04</time>
      </trkpt>
      <trkpt lat="28.97257" lon="-13.80975">
        <ele>88</ele>
        <time>2021-07-04 09:45:05</time>
      </trkpt>
      <trkpt lat="28.97253" lon="-13.80971">
        <ele>88</ele>
        <time>2021-07-04 09:45:06</time>
      </trkpt>
      <trkpt lat="28.97249" lon="-13.80967">
        <ele>88</ele>
        <time>2021-07-04 09:45:07</time>
      </trkpt>
      <trkpt lat="28.97245" lon="-13.80963">
        <ele>88</ele>
        <time>2021-07-04 09:45:08</time>
      </trkpt>
      <trkpt lat="28.97241" lon="-13.80959">
        <ele>88</ele>
        <time>2021-07-04 09:45:09</time>
      </trkpt>
      <trkpt lat="28.97237" lon="-13.80955">
        <ele>88</ele>
        <time>2021-07-04 09:45:10</time>
      </trkpt>
      <trkpt lat="28.97233" lon="-13.80951">
        <ele>88</ele>
        <time>2021-07-04 09:45:11</time>
      </trkpt>
      <trkpt lat="28.97229" lon="-13.80946">
        <ele>88</ele>
        <time>2021-07-04 09:45:12</time>
      </trkpt>
      <trkpt lat="28.97225" lon="-13.80943">
        <ele>88</ele>
        <time>2021-07-04 09:45:13</time>
      </trkpt>
      <trkpt lat="28.97221" lon="-13.80939">
        <ele>88</ele>
        <time>2021-07-04 09:45:14</time>
      </trkpt>
      <trkpt lat="28.97217" lon="-13.80935">
        <ele>88</ele>
        <time>2021-07-04 09:45:15</time>
      </trkpt>
      <trkpt lat="28.97213" lon="-13.80931">
        <ele>88</ele>
        <time>2021-07-04 09:45:16</time>
      </trkpt>
      <trkpt lat="28.97209" lon="-13.80927">
        <ele>88</ele>
        <time>2021-07-04 09:45:17</time>
      </trkpt>
      <trkpt lat="28.97206" lon="-13.80923">
        <ele>88</ele>
        <time>2021-07-04 09:45:18</time>
      </trkpt>
      <trkpt lat="28.97202" lon="-13.8092">
        <ele>88</ele>
        <time>2021-07-04 09:45:19</time>
      </trkpt>
      <trkpt lat="28.97198" lon="-13.80916">
        <ele>88</ele>
        <time>2021-07-04 09:45:20</time>
      </trkpt>
      <trkpt lat="28.97195" lon="-13.80913">
        <ele>88</ele>
        <time>2021-07-04 09:45:21</time>
      </trkpt>
      <trkpt lat="28.97191" lon="-13.80909">
        <ele>88</ele>
        <time>2021-07-04 09:45:22</time>
      </trkpt>
      <trkpt lat="28.97188" lon="-13.80906">
        <ele>88.2</ele>
        <time>2021-07-04 09:45:23</time>
      </trkpt>
      <trkpt lat="28.97185" lon="-13.80902">
        <ele>88.2</ele>
        <time>2021-07-04 09:45:24</time>
      </trkpt>
      <trkpt lat="28.97182" lon="-13.80899">
        <ele>88.4</ele>
        <time>2021-07-04 09:45:25</time>
      </trkpt>
      <trkpt lat="28.97179" lon="-13.80896">
        <ele>88.4</ele>
        <time>2021-07-04 09:45:26</time>
      </trkpt>
      <trkpt lat="28.97175" lon="-13.80892">
        <ele>88.8</ele>
        <time>2021-07-04 09:45:27</time>
      </trkpt>
      <trkpt lat="28.97173" lon="-13.80889">
        <ele>88.8</ele>
        <time>2021-07-04 09:45:28</time>
      </trkpt>
      <trkpt lat="28.9717" lon="-13.80886">
        <ele>88.8</ele>
        <time>2021-07-04 09:45:29</time>
      </trkpt>
      <trkpt lat="28.97167" lon="-13.80883">
        <ele>89</ele>
        <time>2021-07-04 09:45:30</time>
      </trkpt>
      <trkpt lat="28.97164" lon="-13.8088">
        <ele>89</ele>
        <time>2021-07-04 09:45:31</time>
      </trkpt>
      <trkpt lat="28.97161" lon="-13.80877">
        <ele>89.2</ele>
        <time>2021-07-04 09:45:32</time>
      </trkpt>
      <trkpt lat="28.97159" lon="-13.80874">
        <ele>89.2</ele>
        <time>2021-07-04 09:45:33</time>
      </trkpt>
      <trkpt lat="28.97156" lon="-13.8087">
        <ele>89.2</ele>
        <time>2021-07-04 09:45:34</time>
      </trkpt>
      <trkpt lat="28.97153" lon="-13.80867">
        <ele>89.4</ele>
        <time>2021-07-04 09:45:35</time>
      </trkpt>
      <trkpt lat="28.97151" lon="-13.80864">
        <ele>89.4</ele>
        <time>2021-07-04 09:45:36</time>
      </trkpt>
      <trkpt lat="28.97149" lon="-13.80861">
        <ele>89.8</ele>
        <time>2021-07-04 09:45:37</time>
      </trkpt>
      <trkpt lat="28.97146" lon="-13.80858">
        <ele>89.8</ele>
        <time>2021-07-04 09:45:38</time>
      </trkpt>
      <trkpt lat="28.97144" lon="-13.80854">
        <ele>90</ele>
        <time>2021-07-04 09:45:39</time>
      </trkpt>
      <trkpt lat="28.97142" lon="-13.80851">
        <ele>90</ele>
        <time>2021-07-04 09:45:40</time>
      </trkpt>
      <trkpt lat="28.97139" lon="-13.80848">
        <ele>90.4</ele>
        <time>2021-07-04 09:45:41</time>
      </trkpt>
      <trkpt lat="28.97137" lon="-13.80845">
        <ele>90.4</ele>
        <time>2021-07-04 09:45:42</time>
      </trkpt>
      <trkpt lat="28.97135" lon="-13.80842">
        <ele>90.6</ele>
        <time>2021-07-04 09:45:43</time>
      </trkpt>
      <trkpt lat="28.97133" lon="-13.80839">
        <ele>90.6</ele>
        <time>2021-07-04 09:45:44</time>
      </trkpt>
      <trkpt lat="28.97131" lon="-13.80836">
        <ele>91</ele>
        <time>2021-07-04 09:45:45</time>
      </trkpt>
      <trkpt lat="28.97129" lon="-13.80832">
        <ele>91</ele>
        <time>2021-07-04 09:45:46</time>
      </trkpt>
      <trkpt lat="28.97127" lon="-13.80829">
        <ele>91.2</ele>
        <time>2021-07-04 09:45:47</time>
      </trkpt>
      <trkpt lat="28.97126" lon="-13.80827">
        <ele>91.2</ele>
        <time>2021-07-04 09:45:48</time>
      </trkpt>
      <trkpt lat="28.97124" lon="-13.80824">
        <ele>91.4</ele>
        <time>2021-07-04 09:45:49</time>
      </trkpt>
      <trkpt lat="28.97122" lon="-13.80821">
        <ele>91.4</ele>
        <time>2021-07-04 09:45:50</time>
      </trkpt>
      <trkpt lat="28.97121" lon="-13.80818">
        <ele>91.8</ele>
        <time>2021-07-04 09:45:51</time>
      </trkpt>
      <trkpt lat="28.9712" lon="-13.80816">
        <ele>91.8</ele>
        <time>2021-07-04 09:45:52</time>
      </trkpt>
      <trkpt lat="28.97118" lon="-13.80813">
        <ele>92</ele>
        <time>2021-07-04 09:45:53</time>
      </trkpt>
      <trkpt lat="28.97117" lon="-13.8081">
        <ele>92</ele>
        <time>2021-07-04 09:45:54</time>
      </trkpt>
      <trkpt lat="28.97115" lon="-13.80807">
        <ele>92.4</ele>
        <time>2021-07-04 09:45:55</time>
      </trkpt>
      <trkpt lat="28.97114" lon="-13.80804">
        <ele>92.6</ele>
        <time>2021-07-04 09:45:56</time>
      </trkpt>
      <trkpt lat="28.97112" lon="-13.80801">
        <ele>92.8</ele>
        <time>2021-07-04 09:45:57</time>
      </trkpt>
      <trkpt lat="28.97111" lon="-13.80798">
        <ele>92.8</ele>
        <time>2021-07-04 09:45:58</time>
      </trkpt>
      <trkpt lat="28.9711" lon="-13.80795">
        <ele>93.2</ele>
        <time>2021-07-04 09:45:59</time>
      </trkpt>
      <trkpt lat="28.9711" lon="-13.80795">
        <ele>93.2</ele>
        <time>2021-07-04 09:46:00</time>
      </trkpt>
      <trkpt lat="28.97106" lon="-13.80787">
        <ele>93.4</ele>
        <time>2021-07-04 09:46:01</time>
      </trkpt>
      <trkpt lat="28.97105" lon="-13.80784">
        <ele>93.8</ele>
        <time>2021-07-04 09:46:02</time>
      </trkpt>
      <trkpt lat="28.97104" lon="-13.80781">
        <ele>93.8</ele>
        <time>2021-07-04 09:46:03</time>
      </trkpt>
      <trkpt lat="28.97103" lon="-13.80778">
        <ele>94</ele>
        <time>2021-07-04 09:46:04</time>
      </trkpt>
      <trkpt lat="28.97101" lon="-13.80776">
        <ele>94</ele>
        <time>2021-07-04 09:46:05</time>
      </trkpt>
      <trkpt lat="28.971" lon="-13.80773">
        <ele>94.2</ele>
        <time>2021-07-04 09:46:06</time>
      </trkpt>
      <trkpt lat="28.97099" lon="-13.8077">
        <ele>94.2</ele>
        <time>2021-07-04 09:46:07</time>
      </trkpt>
      <trkpt lat="28.97098" lon="-13.80767">
        <ele>94.6</ele>
        <time>2021-07-04 09:46:08</time>
      </trkpt>
      <trkpt lat="28.97097" lon="-13.80764">
        <ele>94.6</ele>
        <time>2021-07-04 09:46:09</time>
      </trkpt>
      <trkpt lat="28.97096" lon="-13.80761">
        <ele>94.6</ele>
        <time>2021-07-04 09:46:10</time>
      </trkpt>
      <trkpt lat="28.97094" lon="-13.80758">
        <ele>94.8</ele>
        <time>2021-07-04 09:46:11</time>
      </trkpt>
      <trkpt lat="28.97093" lon="-13.80755">
        <ele>94.8</ele>
        <time>2021-07-04 09:46:12</time>
      </trkpt>
      <trkpt lat="28.97092" lon="-13.80752">
        <ele>95.2</ele>
        <time>2021-07-04 09:46:13</time>
      </trkpt>
      <trkpt lat="28.97091" lon="-13.80749">
        <ele>95.4</ele>
        <time>2021-07-04 09:46:14</time>
      </trkpt>
      <trkpt lat="28.9709" lon="-13.80746">
        <ele>95.4</ele>
        <time>2021-07-04 09:46:15</time>
      </trkpt>
      <trkpt lat="28.97088" lon="-13.80743">
        <ele>95.6</ele>
        <time>2021-07-04 09:46:16</time>
      </trkpt>
      <trkpt lat="28.97087" lon="-13.8074">
        <ele>95.8</ele>
        <time>2021-07-04 09:46:17</time>
      </trkpt>
      <trkpt lat="28.97086" lon="-13.80737">
        <ele>95.8</ele>
        <time>2021-07-04 09:46:18</time>
      </trkpt>
      <trkpt lat="28.97085" lon="-13.80734">
        <ele>96.2</ele>
        <time>2021-07-04 09:46:19</time>
      </trkpt>
      <trkpt lat="28.97084" lon="-13.80732">
        <ele>96.2</ele>
        <time>2021-07-04 09:46:20</time>
      </trkpt>
      <trkpt lat="28.97083" lon="-13.80729">
        <ele>96.4</ele>
        <time>2021-07-04 09:46:21</time>
      </trkpt>
      <trkpt lat="28.97082" lon="-13.80726">
        <ele>96.4</ele>
        <time>2021-07-04 09:46:22</time>
      </trkpt>
      <trkpt lat="28.97081" lon="-13.80723">
        <ele>96.6</ele>
        <time>2021-07-04 09:46:23</time>
      </trkpt>
      <trkpt lat="28.97079" lon="-13.8072">
        <ele>96.6</ele>
        <time>2021-07-04 09:46:24</time>
      </trkpt>
      <trkpt lat="28.97078" lon="-13.80717">
        <ele>97</ele>
        <time>2021-07-04 09:46:25</time>
      </trkpt>
      <trkpt lat="28.97078" lon="-13.80715">
        <ele>97.2</ele>
        <time>2021-07-04 09:46:26</time>
      </trkpt>
      <trkpt lat="28.97076" lon="-13.80712">
        <ele>97.6</ele>
        <time>2021-07-04 09:46:27</time>
      </trkpt>
      <trkpt lat="28.97075" lon="-13.80709">
        <ele>97.8</ele>
        <time>2021-07-04 09:46:28</time>
      </trkpt>
      <trkpt lat="28.97074" lon="-13.80706">
        <ele>98</ele>
        <time>2021-07-04 09:46:29</time>
      </trkpt>
      <trkpt lat="28.97073" lon="-13.80703">
        <ele>98.2</ele>
        <time>2021-07-04 09:46:30</time>
      </trkpt>
      <trkpt lat="28.97072" lon="-13.807">
        <ele>98.6</ele>
        <time>2021-07-04 09:46:31</time>
      </trkpt>
      <trkpt lat="28.9707" lon="-13.80698">
        <ele>98.8</ele>
        <time>2021-07-04 09:46:32</time>
      </trkpt>
      <trkpt lat="28.97069" lon="-13.80695">
        <ele>98.8</ele>
        <time>2021-07-04 09:46:33</time>
      </trkpt>
      <trkpt lat="28.97068" lon="-13.80692">
        <ele>99</ele>
        <time>2021-07-04 09:46:34</time>
      </trkpt>
      <trkpt lat="28.97067" lon="-13.80689">
        <ele>99</ele>
        <time>2021-07-04 09:46:35</time>
      </trkpt>
      <trkpt lat="28.97066" lon="-13.80686">
        <ele>99.4</ele>
        <time>2021-07-04 09:46:36</time>
      </trkpt>
      <trkpt lat="28.97066" lon="-13.80684">
        <ele>99.4</ele>
        <time>2021-07-04 09:46:37</time>
      </trkpt>
      <trkpt lat="28.97065" lon="-13.80681">
        <ele>99.8</ele>
        <time>2021-07-04 09:46:38</time>
      </trkpt>
      <trkpt lat="28.97064" lon="-13.80678">
        <ele>99.8</ele>
        <time>2021-07-04 09:46:39</time>
      </trkpt>
      <trkpt lat="28.97063" lon="-13.80675">
        <ele>100.2</ele>
        <time>2021-07-04 09:46:40</time>
      </trkpt>
      <trkpt lat="28.97062" lon="-13.80673">
        <ele>100.2</ele>
        <time>2021-07-04 09:46:41</time>
      </trkpt>
      <trkpt lat="28.97061" lon="-13.8067">
        <ele>100.4</ele>
        <time>2021-07-04 09:46:42</time>
      </trkpt>
      <trkpt lat="28.9706" lon="-13.80667">
        <ele>100.6</ele>
        <time>2021-07-04 09:46:43</time>
      </trkpt>
      <trkpt lat="28.97059" lon="-13.80664">
        <ele>100.6</ele>
        <time>2021-07-04 09:46:44</time>
      </trkpt>
      <trkpt lat="28.97058" lon="-13.80661">
        <ele>100.8</ele>
        <time>2021-07-04 09:46:45</time>
      </trkpt>
      <trkpt lat="28.97057" lon="-13.80659">
        <ele>100.8</ele>
        <time>2021-07-04 09:46:46</time>
      </trkpt>
      <trkpt lat="28.97056" lon="-13.80656">
        <ele>101.2</ele>
        <time>2021-07-04 09:46:47</time>
      </trkpt>
      <trkpt lat="28.97054" lon="-13.80653">
        <ele>101.2</ele>
        <time>2021-07-04 09:46:48</time>
      </trkpt>
      <trkpt lat="28.97053" lon="-13.8065">
        <ele>101.6</ele>
        <time>2021-07-04 09:46:49</time>
      </trkpt>
      <trkpt lat="28.97052" lon="-13.80648">
        <ele>101.6</ele>
        <time>2021-07-04 09:46:50</time>
      </trkpt>
      <trkpt lat="28.97051" lon="-13.80645">
        <ele>102</ele>
        <time>2021-07-04 09:46:51</time>
      </trkpt>
      <trkpt lat="28.9705" lon="-13.80642">
        <ele>102</ele>
        <time>2021-07-04 09:46:52</time>
      </trkpt>
      <trkpt lat="28.97049" lon="-13.80639">
        <ele>102.4</ele>
        <time>2021-07-04 09:46:53</time>
      </trkpt>
      <trkpt lat="28.97048" lon="-13.80637">
        <ele>102.4</ele>
        <time>2021-07-04 09:46:54</time>
      </trkpt>
      <trkpt lat="28.97047" lon="-13.80634">
        <ele>102.8</ele>
        <time>2021-07-04 09:46:55</time>
      </trkpt>
      <trkpt lat="28.97046" lon="-13.80631">
        <ele>102.8</ele>
        <time>2021-07-04 09:46:56</time>
      </trkpt>
      <trkpt lat="28.97045" lon="-13.80628">
        <ele>103</ele>
        <time>2021-07-04 09:46:57</time>
      </trkpt>
      <trkpt lat="28.97044" lon="-13.80625">
        <ele>103</ele>
        <time>2021-07-04 09:46:58</time>
      </trkpt>
      <trkpt lat="28.97043" lon="-13.80622">
        <ele>103.4</ele>
        <time>2021-07-04 09:46:59</time>
      </trkpt>
      <trkpt lat="28.97041" lon="-13.80619">
        <ele>103.4</ele>
        <time>2021-07-04 09:47:00</time>
      </trkpt>
      <trkpt lat="28.9704" lon="-13.80617">
        <ele>103.8</ele>
        <time>2021-07-04 09:47:01</time>
      </trkpt>
      <trkpt lat="28.97039" lon="-13.80614">
        <ele>103.8</ele>
        <time>2021-07-04 09:47:02</time>
      </trkpt>
      <trkpt lat="28.97038" lon="-13.80611">
        <ele>104</ele>
        <time>2021-07-04 09:47:03</time>
      </trkpt>
      <trkpt lat="28.97037" lon="-13.80608">
        <ele>104</ele>
        <time>2021-07-04 09:47:04</time>
      </trkpt>
      <trkpt lat="28.97036" lon="-13.80605">
        <ele>104.4</ele>
        <time>2021-07-04 09:47:05</time>
      </trkpt>
      <trkpt lat="28.97035" lon="-13.80602">
        <ele>104.4</ele>
        <time>2021-07-04 09:47:06</time>
      </trkpt>
      <trkpt lat="28.97033" lon="-13.80599">
        <ele>104.4</ele>
        <time>2021-07-04 09:47:07</time>
      </trkpt>
      <trkpt lat="28.97032" lon="-13.80596">
        <ele>104.4</ele>
        <time>2021-07-04 09:47:08</time>
      </trkpt>
      <trkpt lat="28.97031" lon="-13.80594">
        <ele>104.6</ele>
        <time>2021-07-04 09:47:09</time>
      </trkpt>
      <trkpt lat="28.97029" lon="-13.80591">
        <ele>104.6</ele>
        <time>2021-07-04 09:47:10</time>
      </trkpt>
      <trkpt lat="28.97028" lon="-13.80588">
        <ele>104.8</ele>
        <time>2021-07-04 09:47:11</time>
      </trkpt>
      <trkpt lat="28.97027" lon="-13.80585">
        <ele>104.8</ele>
        <time>2021-07-04 09:47:12</time>
      </trkpt>
      <trkpt lat="28.97025" lon="-13.80582">
        <ele>105.2</ele>
        <time>2021-07-04 09:47:13</time>
      </trkpt>
      <trkpt lat="28.97024" lon="-13.8058">
        <ele>105.4</ele>
        <time>2021-07-04 09:47:14</time>
      </trkpt>
      <trkpt lat="28.97023" lon="-13.80577">
        <ele>105.6</ele>
        <time>2021-07-04 09:47:15</time>
      </trkpt>
      <trkpt lat="28.97022" lon="-13.80574">
        <ele>105.8</ele>
        <time>2021-07-04 09:47:16</time>
      </trkpt>
      <trkpt lat="28.97021" lon="-13.80571">
        <ele>106</ele>
        <time>2021-07-04 09:47:17</time>
      </trkpt>
      <trkpt lat="28.97019" lon="-13.80568">
        <ele>106</ele>
        <time>2021-07-04 09:47:18</time>
      </trkpt>
      <trkpt lat="28.97018" lon="-13.80565">
        <ele>106.4</ele>
        <time>2021-07-04 09:47:19</time>
      </trkpt>
      <trkpt lat="28.97017" lon="-13.80562">
        <ele>106.4</ele>
        <time>2021-07-04 09:47:20</time>
      </trkpt>
      <trkpt lat="28.97015" lon="-13.80559">
        <ele>106.4</ele>
        <time>2021-07-04 09:47:21</time>
      </trkpt>
      <trkpt lat="28.97014" lon="-13.80556">
        <ele>106.6</ele>
        <time>2021-07-04 09:47:22</time>
      </trkpt>
      <trkpt lat="28.97013" lon="-13.80553">
        <ele>106.6</ele>
        <time>2021-07-04 09:47:23</time>
      </trkpt>
      <trkpt lat="28.97012" lon="-13.80549">
        <ele>106.6</ele>
        <time>2021-07-04 09:47:24</time>
      </trkpt>
      <trkpt lat="28.97011" lon="-13.80546">
        <ele>106.6</ele>
        <time>2021-07-04 09:47:25</time>
      </trkpt>
      <trkpt lat="28.9701" lon="-13.80543">
        <ele>107</ele>
        <time>2021-07-04 09:47:26</time>
      </trkpt>
      <trkpt lat="28.97008" lon="-13.8054">
        <ele>107</ele>
        <time>2021-07-04 09:47:27</time>
      </trkpt>
      <trkpt lat="28.97007" lon="-13.80537">
        <ele>107</ele>
        <time>2021-07-04 09:47:28</time>
      </trkpt>
      <trkpt lat="28.97006" lon="-13.80534">
        <ele>107</ele>
        <time>2021-07-04 09:47:29</time>
      </trkpt>
      <trkpt lat="28.97004" lon="-13.80531">
        <ele>107</ele>
        <time>2021-07-04 09:47:30</time>
      </trkpt>
      <trkpt lat="28.97003" lon="-13.80528">
        <ele>107.2</ele>
        <time>2021-07-04 09:47:31</time>
      </trkpt>
      <trkpt lat="28.97001" lon="-13.80525">
        <ele>107.2</ele>
        <time>2021-07-04 09:47:32</time>
      </trkpt>
      <trkpt lat="28.97" lon="-13.80522">
        <ele>107.6</ele>
        <time>2021-07-04 09:47:33</time>
      </trkpt>
      <trkpt lat="28.96998" lon="-13.80519">
        <ele>107.6</ele>
        <time>2021-07-04 09:47:34</time>
      </trkpt>
      <trkpt lat="28.96997" lon="-13.80515">
        <ele>107.8</ele>
        <time>2021-07-04 09:47:35</time>
      </trkpt>
      <trkpt lat="28.96996" lon="-13.80512">
        <ele>107.8</ele>
        <time>2021-07-04 09:47:36</time>
      </trkpt>
      <trkpt lat="28.96995" lon="-13.80509">
        <ele>108</ele>
        <time>2021-07-04 09:47:37</time>
      </trkpt>
      <trkpt lat="28.96993" lon="-13.80505">
        <ele>108</ele>
        <time>2021-07-04 09:47:38</time>
      </trkpt>
      <trkpt lat="28.96992" lon="-13.80502">
        <ele>108.4</ele>
        <time>2021-07-04 09:47:39</time>
      </trkpt>
      <trkpt lat="28.9699" lon="-13.80499">
        <ele>108.4</ele>
        <time>2021-07-04 09:47:40</time>
      </trkpt>
      <trkpt lat="28.96989" lon="-13.80496">
        <ele>108.4</ele>
        <time>2021-07-04 09:47:41</time>
      </trkpt>
      <trkpt lat="28.96987" lon="-13.80493">
        <ele>108.6</ele>
        <time>2021-07-04 09:47:42</time>
      </trkpt>
      <trkpt lat="28.96986" lon="-13.8049">
        <ele>108.6</ele>
        <time>2021-07-04 09:47:43</time>
      </trkpt>
      <trkpt lat="28.96984" lon="-13.80487">
        <ele>109</ele>
        <time>2021-07-04 09:47:44</time>
      </trkpt>
      <trkpt lat="28.96983" lon="-13.80483">
        <ele>109</ele>
        <time>2021-07-04 09:47:45</time>
      </trkpt>
      <trkpt lat="28.96982" lon="-13.8048">
        <ele>109.2</ele>
        <time>2021-07-04 09:47:46</time>
      </trkpt>
      <trkpt lat="28.96981" lon="-13.80477">
        <ele>109.2</ele>
        <time>2021-07-04 09:47:47</time>
      </trkpt>
      <trkpt lat="28.96979" lon="-13.80474">
        <ele>109.2</ele>
        <time>2021-07-04 09:47:48</time>
      </trkpt>
      <trkpt lat="28.96978" lon="-13.8047">
        <ele>109.6</ele>
        <time>2021-07-04 09:47:49</time>
      </trkpt>
      <trkpt lat="28.96977" lon="-13.80467">
        <ele>109.6</ele>
        <time>2021-07-04 09:47:50</time>
      </trkpt>
      <trkpt lat="28.96976" lon="-13.80464">
        <ele>109.8</ele>
        <time>2021-07-04 09:47:51</time>
      </trkpt>
      <trkpt lat="28.96974" lon="-13.80461">
        <ele>109.8</ele>
        <time>2021-07-04 09:47:52</time>
      </trkpt>
      <trkpt lat="28.96973" lon="-13.80458">
        <ele>109.8</ele>
        <time>2021-07-04 09:47:53</time>
      </trkpt>
      <trkpt lat="28.96972" lon="-13.80455">
        <ele>109.8</ele>
        <time>2021-07-04 09:47:54</time>
      </trkpt>
      <trkpt lat="28.96971" lon="-13.80452">
        <ele>109.8</ele>
        <time>2021-07-04 09:47:55</time>
      </trkpt>
      <trkpt lat="28.9697" lon="-13.80449">
        <ele>109.8</ele>
        <time>2021-07-04 09:47:56</time>
      </trkpt>
      <trkpt lat="28.96969" lon="-13.80445">
        <ele>109.8</ele>
        <time>2021-07-04 09:47:57</time>
      </trkpt>
      <trkpt lat="28.96968" lon="-13.80442">
        <ele>109.8</ele>
        <time>2021-07-04 09:47:58</time>
      </trkpt>
      <trkpt lat="28.96967" lon="-13.80439">
        <ele>109.8</ele>
        <time>2021-07-04 09:47:59</time>
      </trkpt>
      <trkpt lat="28.96965" lon="-13.80436">
        <ele>109.8</ele>
        <time>2021-07-04 09:48:00</time>
      </trkpt>
      <trkpt lat="28.96964" lon="-13.80433">
        <ele>109.8</ele>
        <time>2021-07-04 09:48:01</time>
      </trkpt>
      <trkpt lat="28.96963" lon="-13.8043">
        <ele>110</ele>
        <time>2021-07-04 09:48:02</time>
      </trkpt>
      <trkpt lat="28.96961" lon="-13.80426">
        <ele>110</ele>
        <time>2021-07-04 09:48:03</time>
      </trkpt>
      <trkpt lat="28.9696" lon="-13.80423">
        <ele>110</ele>
        <time>2021-07-04 09:48:04</time>
      </trkpt>
      <trkpt lat="28.96959" lon="-13.8042">
        <ele>110</ele>
        <time>2021-07-04 09:48:05</time>
      </trkpt>
      <trkpt lat="28.96958" lon="-13.80416">
        <ele>110</ele>
        <time>2021-07-04 09:48:06</time>
      </trkpt>
      <trkpt lat="28.96956" lon="-13.80413">
        <ele>110</ele>
        <time>2021-07-04 09:48:07</time>
      </trkpt>
      <trkpt lat="28.96955" lon="-13.8041">
        <ele>110</ele>
        <time>2021-07-04 09:48:08</time>
      </trkpt>
      <trkpt lat="28.96953" lon="-13.80406">
        <ele>110.2</ele>
        <time>2021-07-04 09:48:09</time>
      </trkpt>
      <trkpt lat="28.96952" lon="-13.80403">
        <ele>110.2</ele>
        <time>2021-07-04 09:48:10</time>
      </trkpt>
      <trkpt lat="28.96951" lon="-13.804">
        <ele>110.2</ele>
        <time>2021-07-04 09:48:11</time>
      </trkpt>
      <trkpt lat="28.96949" lon="-13.80396">
        <ele>110.2</ele>
        <time>2021-07-04 09:48:12</time>
      </trkpt>
      <trkpt lat="28.96948" lon="-13.80393">
        <ele>110.2</ele>
        <time>2021-07-04 09:48:13</time>
      </trkpt>
      <trkpt lat="28.96947" lon="-13.80389">
        <ele>110.2</ele>
        <time>2021-07-04 09:48:14</time>
      </trkpt>
      <trkpt lat="28.96945" lon="-13.80386">
        <ele>110.2</ele>
        <time>2021-07-04 09:48:15</time>
      </trkpt>
      <trkpt lat="28.96944" lon="-13.80382">
        <ele>110.4</ele>
        <time>2021-07-04 09:48:16</time>
      </trkpt>
      <trkpt lat="28.96943" lon="-13.80379">
        <ele>110.4</ele>
        <time>2021-07-04 09:48:17</time>
      </trkpt>
      <trkpt lat="28.96941" lon="-13.80376">
        <ele>110.4</ele>
        <time>2021-07-04 09:48:18</time>
      </trkpt>
      <trkpt lat="28.9694" lon="-13.80373">
        <ele>110.8</ele>
        <time>2021-07-04 09:48:19</time>
      </trkpt>
      <trkpt lat="28.96939" lon="-13.80371">
        <ele>110.8</ele>
        <time>2021-07-04 09:48:20</time>
      </trkpt>
      <trkpt lat="28.96939" lon="-13.8037">
        <ele>110.8</ele>
        <time>2021-07-04 09:48:21</time>
      </trkpt>
      <trkpt lat="28.96939" lon="-13.8037">
        <ele>110.8</ele>
        <time>2021-07-04 09:48:22</time>
      </trkpt>
      <trkpt lat="28.96939" lon="-13.8037">
        <ele>110.8</ele>
        <time>2021-07-04 09:48:23</time>
      </trkpt>
      <trkpt lat="28.96939" lon="-13.8037">
        <ele>110.8</ele>
        <time>2021-07-04 09:48:24</time>
      </trkpt>
      <trkpt lat="28.96938" lon="-13.80366">
        <ele>110.8</ele>
        <time>2021-07-04 09:48:25</time>
      </trkpt>
      <trkpt lat="28.96937" lon="-13.80364">
        <ele>110.8</ele>
        <time>2021-07-04 09:48:47</time>
      </trkpt>
      <trkpt lat="28.96936" lon="-13.80361">
        <ele>110.8</ele>
        <time>2021-07-04 09:48:48</time>
      </trkpt>
      <trkpt lat="28.96935" lon="-13.80358">
        <ele>110.4</ele>
        <time>2021-07-04 09:48:49</time>
      </trkpt>
      <trkpt lat="28.96934" lon="-13.80355">
        <ele>110.4</ele>
        <time>2021-07-04 09:48:50</time>
      </trkpt>
      <trkpt lat="28.96933" lon="-13.80352">
        <ele>110.4</ele>
        <time>2021-07-04 09:48:51</time>
      </trkpt>
      <trkpt lat="28.96931" lon="-13.80349">
        <ele>110.4</ele>
        <time>2021-07-04 09:48:52</time>
      </trkpt>
      <trkpt lat="28.9693" lon="-13.80346">
        <ele>110.4</ele>
        <time>2021-07-04 09:48:53</time>
      </trkpt>
      <trkpt lat="28.96929" lon="-13.80343">
        <ele>110.6</ele>
        <time>2021-07-04 09:48:54</time>
      </trkpt>
      <trkpt lat="28.96928" lon="-13.80341">
        <ele>110.6</ele>
        <time>2021-07-04 09:48:55</time>
      </trkpt>
      <trkpt lat="28.96927" lon="-13.80337">
        <ele>111</ele>
        <time>2021-07-04 09:48:56</time>
      </trkpt>
      <trkpt lat="28.96925" lon="-13.80334">
        <ele>111</ele>
        <time>2021-07-04 09:48:57</time>
      </trkpt>
      <trkpt lat="28.96924" lon="-13.80331">
        <ele>111.2</ele>
        <time>2021-07-04 09:48:58</time>
      </trkpt>
      <trkpt lat="28.96923" lon="-13.80327">
        <ele>111.2</ele>
        <time>2021-07-04 09:48:59</time>
      </trkpt>
      <trkpt lat="28.96922" lon="-13.80324">
        <ele>111.4</ele>
        <time>2021-07-04 09:49:00</time>
      </trkpt>
      <trkpt lat="28.9692" lon="-13.8032">
        <ele>111.4</ele>
        <time>2021-07-04 09:49:01</time>
      </trkpt>
      <trkpt lat="28.96919" lon="-13.80316">
        <ele>111.4</ele>
        <time>2021-07-04 09:49:02</time>
      </trkpt>
      <trkpt lat="28.96917" lon="-13.80313">
        <ele>111.4</ele>
        <time>2021-07-04 09:49:03</time>
      </trkpt>
      <trkpt lat="28.96916" lon="-13.80309">
        <ele>111.4</ele>
        <time>2021-07-04 09:49:04</time>
      </trkpt>
      <trkpt lat="28.96915" lon="-13.80306">
        <ele>111.6</ele>
        <time>2021-07-04 09:49:05</time>
      </trkpt>
      <trkpt lat="28.96913" lon="-13.80302">
        <ele>111.6</ele>
        <time>2021-07-04 09:49:06</time>
      </trkpt>
      <trkpt lat="28.96912" lon="-13.80299">
        <ele>111.6</ele>
        <time>2021-07-04 09:49:07</time>
      </trkpt>
      <trkpt lat="28.9691" lon="-13.80295">
        <ele>111.6</ele>
        <time>2021-07-04 09:49:08</time>
      </trkpt>
      <trkpt lat="28.96909" lon="-13.80292">
        <ele>111.6</ele>
        <time>2021-07-04 09:49:09</time>
      </trkpt>
      <trkpt lat="28.96907" lon="-13.80289">
        <ele>111.6</ele>
        <time>2021-07-04 09:49:10</time>
      </trkpt>
      <trkpt lat="28.96906" lon="-13.80285">
        <ele>111.6</ele>
        <time>2021-07-04 09:49:11</time>
      </trkpt>
      <trkpt lat="28.96904" lon="-13.80281">
        <ele>111.6</ele>
        <time>2021-07-04 09:49:12</time>
      </trkpt>
      <trkpt lat="28.96903" lon="-13.80277">
        <ele>111.6</ele>
        <time>2021-07-04 09:49:13</time>
      </trkpt>
      <trkpt lat="28.96901" lon="-13.80274">
        <ele>111.6</ele>
        <time>2021-07-04 09:49:14</time>
      </trkpt>
      <trkpt lat="28.969" lon="-13.8027">
        <ele>111.6</ele>
        <time>2021-07-04 09:49:15</time>
      </trkpt>
      <trkpt lat="28.96898" lon="-13.80266">
        <ele>111.4</ele>
        <time>2021-07-04 09:49:16</time>
      </trkpt>
      <trkpt lat="28.96896" lon="-13.80263">
        <ele>111.4</ele>
        <time>2021-07-04 09:49:17</time>
      </trkpt>
      <trkpt lat="28.96895" lon="-13.80259">
        <ele>111.4</ele>
        <time>2021-07-04 09:49:18</time>
      </trkpt>
      <trkpt lat="28.96893" lon="-13.80255">
        <ele>111.4</ele>
        <time>2021-07-04 09:49:19</time>
      </trkpt>
      <trkpt lat="28.96891" lon="-13.80251">
        <ele>111.4</ele>
        <time>2021-07-04 09:49:20</time>
      </trkpt>
      <trkpt lat="28.9689" lon="-13.80247">
        <ele>111.4</ele>
        <time>2021-07-04 09:49:21</time>
      </trkpt>
      <trkpt lat="28.96888" lon="-13.80243">
        <ele>111.4</ele>
        <time>2021-07-04 09:49:22</time>
      </trkpt>
      <trkpt lat="28.96887" lon="-13.80239">
        <ele>111.4</ele>
        <time>2021-07-04 09:49:23</time>
      </trkpt>
      <trkpt lat="28.96885" lon="-13.80236">
        <ele>111.4</ele>
        <time>2021-07-04 09:49:24</time>
      </trkpt>
      <trkpt lat="28.96884" lon="-13.80232">
        <ele>111.4</ele>
        <time>2021-07-04 09:49:25</time>
      </trkpt>
      <trkpt lat="28.96882" lon="-13.80228">
        <ele>111.8</ele>
        <time>2021-07-04 09:49:26</time>
      </trkpt>
      <trkpt lat="28.9688" lon="-13.80224">
        <ele>111.8</ele>
        <time>2021-07-04 09:49:27</time>
      </trkpt>
      <trkpt lat="28.96879" lon="-13.80221">
        <ele>112</ele>
        <time>2021-07-04 09:49:28</time>
      </trkpt>
      <trkpt lat="28.96877" lon="-13.80217">
        <ele>112</ele>
        <time>2021-07-04 09:49:29</time>
      </trkpt>
      <trkpt lat="28.96876" lon="-13.80213">
        <ele>112.4</ele>
        <time>2021-07-04 09:49:30</time>
      </trkpt>
      <trkpt lat="28.96874" lon="-13.80209">
        <ele>112.4</ele>
        <time>2021-07-04 09:49:31</time>
      </trkpt>
      <trkpt lat="28.96873" lon="-13.80205">
        <ele>112.6</ele>
        <time>2021-07-04 09:49:32</time>
      </trkpt>
      <trkpt lat="28.96871" lon="-13.80201">
        <ele>112.6</ele>
        <time>2021-07-04 09:49:33</time>
      </trkpt>
      <trkpt lat="28.9687" lon="-13.80198">
        <ele>112.6</ele>
        <time>2021-07-04 09:49:34</time>
      </trkpt>
      <trkpt lat="28.96868" lon="-13.80194">
        <ele>112.6</ele>
        <time>2021-07-04 09:49:35</time>
      </trkpt>
      <trkpt lat="28.96867" lon="-13.8019">
        <ele>112.8</ele>
        <time>2021-07-04 09:49:36</time>
      </trkpt>
      <trkpt lat="28.96865" lon="-13.80186">
        <ele>112.8</ele>
        <time>2021-07-04 09:49:37</time>
      </trkpt>
      <trkpt lat="28.96864" lon="-13.80183">
        <ele>112.8</ele>
        <time>2021-07-04 09:49:38</time>
      </trkpt>
      <trkpt lat="28.96863" lon="-13.80179">
        <ele>113.2</ele>
        <time>2021-07-04 09:49:39</time>
      </trkpt>
      <trkpt lat="28.96861" lon="-13.80175">
        <ele>113.2</ele>
        <time>2021-07-04 09:49:40</time>
      </trkpt>
      <trkpt lat="28.9686" lon="-13.80172">
        <ele>113.2</ele>
        <time>2021-07-04 09:49:41</time>
      </trkpt>
      <trkpt lat="28.96859" lon="-13.80168">
        <ele>113.2</ele>
        <time>2021-07-04 09:49:42</time>
      </trkpt>
      <trkpt lat="28.96857" lon="-13.80165">
        <ele>113.4</ele>
        <time>2021-07-04 09:49:43</time>
      </trkpt>
      <trkpt lat="28.96856" lon="-13.80162">
        <ele>113.4</ele>
        <time>2021-07-04 09:49:44</time>
      </trkpt>
      <trkpt lat="28.96855" lon="-13.80159">
        <ele>113.6</ele>
        <time>2021-07-04 09:49:45</time>
      </trkpt>
      <trkpt lat="28.96853" lon="-13.80156">
        <ele>113.6</ele>
        <time>2021-07-04 09:49:46</time>
      </trkpt>
      <trkpt lat="28.96852" lon="-13.80153">
        <ele>114</ele>
        <time>2021-07-04 09:49:47</time>
      </trkpt>
      <trkpt lat="28.96851" lon="-13.8015">
        <ele>114.2</ele>
        <time>2021-07-04 09:49:48</time>
      </trkpt>
      <trkpt lat="28.96849" lon="-13.80147">
        <ele>114.4</ele>
        <time>2021-07-04 09:49:49</time>
      </trkpt>
      <trkpt lat="28.96848" lon="-13.80144">
        <ele>114.4</ele>
        <time>2021-07-04 09:49:50</time>
      </trkpt>
      <trkpt lat="28.96847" lon="-13.80141">
        <ele>114.8</ele>
        <time>2021-07-04 09:49:51</time>
      </trkpt>
      <trkpt lat="28.96846" lon="-13.80138">
        <ele>115</ele>
        <time>2021-07-04 09:49:52</time>
      </trkpt>
      <trkpt lat="28.96844" lon="-13.80135">
        <ele>115</ele>
        <time>2021-07-04 09:49:53</time>
      </trkpt>
      <trkpt lat="28.96843" lon="-13.80132">
        <ele>115.4</ele>
        <time>2021-07-04 09:49:54</time>
      </trkpt>
      <trkpt lat="28.96842" lon="-13.80129">
        <ele>115.4</ele>
        <time>2021-07-04 09:49:55</time>
      </trkpt>
      <trkpt lat="28.96841" lon="-13.80125">
        <ele>115.8</ele>
        <time>2021-07-04 09:49:56</time>
      </trkpt>
      <trkpt lat="28.96839" lon="-13.80122">
        <ele>115.8</ele>
        <time>2021-07-04 09:49:57</time>
      </trkpt>
      <trkpt lat="28.96838" lon="-13.80119">
        <ele>116.2</ele>
        <time>2021-07-04 09:49:58</time>
      </trkpt>
      <trkpt lat="28.96837" lon="-13.80116">
        <ele>116.2</ele>
        <time>2021-07-04 09:49:59</time>
      </trkpt>
      <trkpt lat="28.96835" lon="-13.80113">
        <ele>116.8</ele>
        <time>2021-07-04 09:50:00</time>
      </trkpt>
      <trkpt lat="28.96834" lon="-13.8011">
        <ele>117</ele>
        <time>2021-07-04 09:50:01</time>
      </trkpt>
      <trkpt lat="28.96833" lon="-13.80108">
        <ele>117.2</ele>
        <time>2021-07-04 09:50:02</time>
      </trkpt>
      <trkpt lat="28.96831" lon="-13.80105">
        <ele>117.4</ele>
        <time>2021-07-04 09:50:03</time>
      </trkpt>
      <trkpt lat="28.9683" lon="-13.80102">
        <ele>117.4</ele>
        <time>2021-07-04 09:50:04</time>
      </trkpt>
      <trkpt lat="28.96829" lon="-13.80099">
        <ele>117.8</ele>
        <time>2021-07-04 09:50:05</time>
      </trkpt>
      <trkpt lat="28.96828" lon="-13.80096">
        <ele>117.8</ele>
        <time>2021-07-04 09:50:06</time>
      </trkpt>
      <trkpt lat="28.96827" lon="-13.80093">
        <ele>118</ele>
        <time>2021-07-04 09:50:07</time>
      </trkpt>
      <trkpt lat="28.96825" lon="-13.80089">
        <ele>118</ele>
        <time>2021-07-04 09:50:08</time>
      </trkpt>
      <trkpt lat="28.96824" lon="-13.80086">
        <ele>118.4</ele>
        <time>2021-07-04 09:50:09</time>
      </trkpt>
      <trkpt lat="28.96823" lon="-13.80083">
        <ele>118.4</ele>
        <time>2021-07-04 09:50:10</time>
      </trkpt>
      <trkpt lat="28.96822" lon="-13.8008">
        <ele>118.6</ele>
        <time>2021-07-04 09:50:11</time>
      </trkpt>
      <trkpt lat="28.96821" lon="-13.80077">
        <ele>118.6</ele>
        <time>2021-07-04 09:50:12</time>
      </trkpt>
      <trkpt lat="28.9682" lon="-13.80074">
        <ele>118.6</ele>
        <time>2021-07-04 09:50:13</time>
      </trkpt>
      <trkpt lat="28.96818" lon="-13.80071">
        <ele>118.6</ele>
        <time>2021-07-04 09:50:14</time>
      </trkpt>
      <trkpt lat="28.96817" lon="-13.80068">
        <ele>118.8</ele>
        <time>2021-07-04 09:50:15</time>
      </trkpt>
      <trkpt lat="28.96816" lon="-13.80066">
        <ele>118.8</ele>
        <time>2021-07-04 09:50:16</time>
      </trkpt>
      <trkpt lat="28.96815" lon="-13.80063">
        <ele>119</ele>
        <time>2021-07-04 09:50:17</time>
      </trkpt>
      <trkpt lat="28.96814" lon="-13.80059">
        <ele>119</ele>
        <time>2021-07-04 09:50:18</time>
      </trkpt>
      <trkpt lat="28.96813" lon="-13.80056">
        <ele>119.2</ele>
        <time>2021-07-04 09:50:19</time>
      </trkpt>
      <trkpt lat="28.96812" lon="-13.80053">
        <ele>119.2</ele>
        <time>2021-07-04 09:50:20</time>
      </trkpt>
      <trkpt lat="28.96811" lon="-13.8005">
        <ele>119.6</ele>
        <time>2021-07-04 09:50:21</time>
      </trkpt>
      <trkpt lat="28.96811" lon="-13.80047">
        <ele>119.6</ele>
        <time>2021-07-04 09:50:22</time>
      </trkpt>
      <trkpt lat="28.9681" lon="-13.80044">
        <ele>119.8</ele>
        <time>2021-07-04 09:50:23</time>
      </trkpt>
      <trkpt lat="28.96809" lon="-13.80041">
        <ele>119.8</ele>
        <time>2021-07-04 09:50:24</time>
      </trkpt>
      <trkpt lat="28.96808" lon="-13.80038">
        <ele>119.8</ele>
        <time>2021-07-04 09:50:25</time>
      </trkpt>
      <trkpt lat="28.96807" lon="-13.80035">
        <ele>120</ele>
        <time>2021-07-04 09:50:26</time>
      </trkpt>
      <trkpt lat="28.96807" lon="-13.80031">
        <ele>120</ele>
        <time>2021-07-04 09:50:27</time>
      </trkpt>
      <trkpt lat="28.96807" lon="-13.80028">
        <ele>120</ele>
        <time>2021-07-04 09:50:28</time>
      </trkpt>
      <trkpt lat="28.96806" lon="-13.80025">
        <ele>120.2</ele>
        <time>2021-07-04 09:50:29</time>
      </trkpt>
      <trkpt lat="28.96806" lon="-13.80022">
        <ele>120.2</ele>
        <time>2021-07-04 09:50:30</time>
      </trkpt>
      <trkpt lat="28.96806" lon="-13.80019">
        <ele>120.2</ele>
        <time>2021-07-04 09:50:31</time>
      </trkpt>
      <trkpt lat="28.96805" lon="-13.80016">
        <ele>120.2</ele>
        <time>2021-07-04 09:50:32</time>
      </trkpt>
      <trkpt lat="28.96805" lon="-13.80013">
        <ele>120.2</ele>
        <time>2021-07-04 09:50:33</time>
      </trkpt>
      <trkpt lat="28.96804" lon="-13.8001">
        <ele>120</ele>
        <time>2021-07-04 09:50:34</time>
      </trkpt>
      <trkpt lat="28.96804" lon="-13.80006">
        <ele>120</ele>
        <time>2021-07-04 09:50:35</time>
      </trkpt>
      <trkpt lat="28.96804" lon="-13.80003">
        <ele>120</ele>
        <time>2021-07-04 09:50:36</time>
      </trkpt>
      <trkpt lat="28.96803" lon="-13.79999">
        <ele>120</ele>
        <time>2021-07-04 09:50:37</time>
      </trkpt>
      <trkpt lat="28.96803" lon="-13.79995">
        <ele>120</ele>
        <time>2021-07-04 09:50:38</time>
      </trkpt>
      <trkpt lat="28.96803" lon="-13.79992">
        <ele>120.4</ele>
        <time>2021-07-04 09:50:39</time>
      </trkpt>
      <trkpt lat="28.96803" lon="-13.79988">
        <ele>120.4</ele>
        <time>2021-07-04 09:50:40</time>
      </trkpt>
      <trkpt lat="28.96802" lon="-13.79984">
        <ele>120.4</ele>
        <time>2021-07-04 09:50:41</time>
      </trkpt>
      <trkpt lat="28.96802" lon="-13.79981">
        <ele>120.6</ele>
        <time>2021-07-04 09:50:42</time>
      </trkpt>
      <trkpt lat="28.96802" lon="-13.79977">
        <ele>120.6</ele>
        <time>2021-07-04 09:50:43</time>
      </trkpt>
      <trkpt lat="28.96801" lon="-13.79973">
        <ele>120.8</ele>
        <time>2021-07-04 09:50:44</time>
      </trkpt>
      <trkpt lat="28.96801" lon="-13.79969">
        <ele>120.8</ele>
        <time>2021-07-04 09:50:45</time>
      </trkpt>
      <trkpt lat="28.968" lon="-13.79965">
        <ele>121.2</ele>
        <time>2021-07-04 09:50:46</time>
      </trkpt>
      <trkpt lat="28.968" lon="-13.79961">
        <ele>121.2</ele>
        <time>2021-07-04 09:50:47</time>
      </trkpt>
      <trkpt lat="28.96799" lon="-13.79956">
        <ele>121.2</ele>
        <time>2021-07-04 09:50:48</time>
      </trkpt>
      <trkpt lat="28.96799" lon="-13.79952">
        <ele>121.2</ele>
        <time>2021-07-04 09:50:49</time>
      </trkpt>
      <trkpt lat="28.96798" lon="-13.79948">
        <ele>121.4</ele>
        <time>2021-07-04 09:50:50</time>
      </trkpt>
      <trkpt lat="28.96798" lon="-13.79943">
        <ele>121.4</ele>
        <time>2021-07-04 09:50:51</time>
      </trkpt>
      <trkpt lat="28.96797" lon="-13.79939">
        <ele>121.4</ele>
        <time>2021-07-04 09:50:52</time>
      </trkpt>
      <trkpt lat="28.96796" lon="-13.79935">
        <ele>121.4</ele>
        <time>2021-07-04 09:50:53</time>
      </trkpt>
      <trkpt lat="28.96796" lon="-13.7993">
        <ele>121.4</ele>
        <time>2021-07-04 09:50:54</time>
      </trkpt>
      <trkpt lat="28.96795" lon="-13.79925">
        <ele>121.6</ele>
        <time>2021-07-04 09:50:55</time>
      </trkpt>
      <trkpt lat="28.96794" lon="-13.79921">
        <ele>121.6</ele>
        <time>2021-07-04 09:50:56</time>
      </trkpt>
      <trkpt lat="28.96793" lon="-13.79916">
        <ele>121.6</ele>
        <time>2021-07-04 09:50:57</time>
      </trkpt>
      <trkpt lat="28.96792" lon="-13.79911">
        <ele>121.6</ele>
        <time>2021-07-04 09:50:58</time>
      </trkpt>
      <trkpt lat="28.9679" lon="-13.79905">
        <ele>121.6</ele>
        <time>2021-07-04 09:50:59</time>
      </trkpt>
      <trkpt lat="28.96789" lon="-13.799">
        <ele>121.6</ele>
        <time>2021-07-04 09:51:00</time>
      </trkpt>
      <trkpt lat="28.96787" lon="-13.79895">
        <ele>121.6</ele>
        <time>2021-07-04 09:51:01</time>
      </trkpt>
      <trkpt lat="28.96785" lon="-13.7989">
        <ele>121.6</ele>
        <time>2021-07-04 09:51:02</time>
      </trkpt>
      <trkpt lat="28.96783" lon="-13.79885">
        <ele>121.6</ele>
        <time>2021-07-04 09:51:03</time>
      </trkpt>
      <trkpt lat="28.96781" lon="-13.79879">
        <ele>121.6</ele>
        <time>2021-07-04 09:51:04</time>
      </trkpt>
      <trkpt lat="28.96779" lon="-13.79874">
        <ele>121.4</ele>
        <time>2021-07-04 09:51:05</time>
      </trkpt>
      <trkpt lat="28.96776" lon="-13.79869">
        <ele>121.4</ele>
        <time>2021-07-04 09:51:06</time>
      </trkpt>
      <trkpt lat="28.96773" lon="-13.79864">
        <ele>121.4</ele>
        <time>2021-07-04 09:51:07</time>
      </trkpt>
      <trkpt lat="28.96769" lon="-13.79858">
        <ele>121.4</ele>
        <time>2021-07-04 09:51:08</time>
      </trkpt>
      <trkpt lat="28.96765" lon="-13.79853">
        <ele>121.4</ele>
        <time>2021-07-04 09:51:09</time>
      </trkpt>
      <trkpt lat="28.96765" lon="-13.79853">
        <ele>121.2</ele>
        <time>2021-07-04 09:51:10</time>
      </trkpt>
      <trkpt lat="28.96744" lon="-13.79825">
        <ele>120.4</ele>
        <time>2021-07-04 09:51:11</time>
      </trkpt>
      <trkpt lat="28.96739" lon="-13.7982">
        <ele>120</ele>
        <time>2021-07-04 09:51:12</time>
      </trkpt>
      <trkpt lat="28.96734" lon="-13.79814">
        <ele>119.8</ele>
        <time>2021-07-04 09:51:13</time>
      </trkpt>
      <trkpt lat="28.96729" lon="-13.79809">
        <ele>119.6</ele>
        <time>2021-07-04 09:51:14</time>
      </trkpt>
      <trkpt lat="28.96724" lon="-13.79802">
        <ele>119.4</ele>
        <time>2021-07-04 09:51:15</time>
      </trkpt>
      <trkpt lat="28.96719" lon="-13.79797">
        <ele>119.4</ele>
        <time>2021-07-04 09:51:16</time>
      </trkpt>
      <trkpt lat="28.96714" lon="-13.79791">
        <ele>119.4</ele>
        <time>2021-07-04 09:51:17</time>
      </trkpt>
      <trkpt lat="28.96709" lon="-13.79785">
        <ele>119.4</ele>
        <time>2021-07-04 09:51:18</time>
      </trkpt>
      <trkpt lat="28.96703" lon="-13.7978">
        <ele>119.4</ele>
        <time>2021-07-04 09:51:19</time>
      </trkpt>
      <trkpt lat="28.96698" lon="-13.79774">
        <ele>119.4</ele>
        <time>2021-07-04 09:51:20</time>
      </trkpt>
      <trkpt lat="28.96693" lon="-13.79767">
        <ele>119</ele>
        <time>2021-07-04 09:51:21</time>
      </trkpt>
      <trkpt lat="28.96687" lon="-13.79761">
        <ele>118.8</ele>
        <time>2021-07-04 09:51:22</time>
      </trkpt>
      <trkpt lat="28.96682" lon="-13.79755">
        <ele>118.6</ele>
        <time>2021-07-04 09:51:23</time>
      </trkpt>
      <trkpt lat="28.96676" lon="-13.79748">
        <ele>118.6</ele>
        <time>2021-07-04 09:51:24</time>
      </trkpt>
      <trkpt lat="28.96671" lon="-13.79742">
        <ele>118.2</ele>
        <time>2021-07-04 09:51:25</time>
      </trkpt>
      <trkpt lat="28.96665" lon="-13.79735">
        <ele>118</ele>
        <time>2021-07-04 09:51:26</time>
      </trkpt>
      <trkpt lat="28.96665" lon="-13.79735">
        <ele>117.8</ele>
        <time>2021-07-04 09:51:27</time>
      </trkpt>
      <trkpt lat="28.96647" lon="-13.79715">
        <ele>117.2</ele>
        <time>2021-07-04 09:51:28</time>
      </trkpt>
      <trkpt lat="28.9664" lon="-13.79708">
        <ele>116.8</ele>
        <time>2021-07-04 09:51:29</time>
      </trkpt>
      <trkpt lat="28.96634" lon="-13.79701">
        <ele>116.4</ele>
        <time>2021-07-04 09:51:30</time>
      </trkpt>
      <trkpt lat="28.96627" lon="-13.79694">
        <ele>116</ele>
        <time>2021-07-04 09:51:31</time>
      </trkpt>
      <trkpt lat="28.9662" lon="-13.79687">
        <ele>115.6</ele>
        <time>2021-07-04 09:51:32</time>
      </trkpt>
      <trkpt lat="28.96613" lon="-13.7968">
        <ele>115.2</ele>
        <time>2021-07-04 09:51:33</time>
      </trkpt>
      <trkpt lat="28.96606" lon="-13.79673">
        <ele>115.2</ele>
        <time>2021-07-04 09:51:34</time>
      </trkpt>
      <trkpt lat="28.966" lon="-13.79666">
        <ele>114.8</ele>
        <time>2021-07-04 09:51:35</time>
      </trkpt>
      <trkpt lat="28.96593" lon="-13.7966">
        <ele>114.4</ele>
        <time>2021-07-04 09:51:36</time>
      </trkpt>
      <trkpt lat="28.96586" lon="-13.79653">
        <ele>114</ele>
        <time>2021-07-04 09:51:37</time>
      </trkpt>
      <trkpt lat="28.96579" lon="-13.79647">
        <ele>113.4</ele>
        <time>2021-07-04 09:51:38</time>
      </trkpt>
      <trkpt lat="28.96571" lon="-13.7964">
        <ele>113</ele>
        <time>2021-07-04 09:51:39</time>
      </trkpt>
      <trkpt lat="28.96565" lon="-13.79634">
        <ele>112.4</ele>
        <time>2021-07-04 09:51:40</time>
      </trkpt>
      <trkpt lat="28.96557" lon="-13.79628">
        <ele>112</ele>
        <time>2021-07-04 09:51:41</time>
      </trkpt>
      <trkpt lat="28.9655" lon="-13.79622">
        <ele>111.8</ele>
        <time>2021-07-04 09:51:42</time>
      </trkpt>
      <trkpt lat="28.96543" lon="-13.79616">
        <ele>111.4</ele>
        <time>2021-07-04 09:51:43</time>
      </trkpt>
      <trkpt lat="28.96536" lon="-13.79609">
        <ele>110.8</ele>
        <time>2021-07-04 09:51:44</time>
      </trkpt>
      <trkpt lat="28.96529" lon="-13.79603">
        <ele>110.4</ele>
        <time>2021-07-04 09:51:45</time>
      </trkpt>
      <trkpt lat="28.96522" lon="-13.79597">
        <ele>110</ele>
        <time>2021-07-04 09:51:46</time>
      </trkpt>
      <trkpt lat="28.96514" lon="-13.79591">
        <ele>109.6</ele>
        <time>2021-07-04 09:51:47</time>
      </trkpt>
      <trkpt lat="28.96507" lon="-13.79584">
        <ele>109.4</ele>
        <time>2021-07-04 09:51:48</time>
      </trkpt>
      <trkpt lat="28.965" lon="-13.79578">
        <ele>109.2</ele>
        <time>2021-07-04 09:51:49</time>
      </trkpt>
      <trkpt lat="28.96493" lon="-13.79572">
        <ele>109</ele>
        <time>2021-07-04 09:51:50</time>
      </trkpt>
      <trkpt lat="28.96486" lon="-13.79566">
        <ele>108.6</ele>
        <time>2021-07-04 09:51:51</time>
      </trkpt>
      <trkpt lat="28.96479" lon="-13.7956">
        <ele>108.4</ele>
        <time>2021-07-04 09:51:52</time>
      </trkpt>
      <trkpt lat="28.96473" lon="-13.79554">
        <ele>108.4</ele>
        <time>2021-07-04 09:51:53</time>
      </trkpt>
      <trkpt lat="28.96466" lon="-13.79548">
        <ele>108.2</ele>
        <time>2021-07-04 09:51:54</time>
      </trkpt>
      <trkpt lat="28.9646" lon="-13.79543">
        <ele>108.2</ele>
        <time>2021-07-04 09:51:55</time>
      </trkpt>
      <trkpt lat="28.96454" lon="-13.79537">
        <ele>107.8</ele>
        <time>2021-07-04 09:51:56</time>
      </trkpt>
      <trkpt lat="28.96447" lon="-13.79532">
        <ele>107.4</ele>
        <time>2021-07-04 09:51:57</time>
      </trkpt>
      <trkpt lat="28.96441" lon="-13.79526">
        <ele>107.2</ele>
        <time>2021-07-04 09:51:58</time>
      </trkpt>
      <trkpt lat="28.96434" lon="-13.79521">
        <ele>106.8</ele>
        <time>2021-07-04 09:51:59</time>
      </trkpt>
      <trkpt lat="28.96428" lon="-13.79515">
        <ele>106.4</ele>
        <time>2021-07-04 09:52:00</time>
      </trkpt>
      <trkpt lat="28.96422" lon="-13.7951">
        <ele>106</ele>
        <time>2021-07-04 09:52:01</time>
      </trkpt>
      <trkpt lat="28.96416" lon="-13.79504">
        <ele>105.6</ele>
        <time>2021-07-04 09:52:02</time>
      </trkpt>
      <trkpt lat="28.96409" lon="-13.79499">
        <ele>105.2</ele>
        <time>2021-07-04 09:52:03</time>
      </trkpt>
      <trkpt lat="28.96403" lon="-13.79493">
        <ele>104.8</ele>
        <time>2021-07-04 09:52:04</time>
      </trkpt>
      <trkpt lat="28.96396" lon="-13.79487">
        <ele>104.6</ele>
        <time>2021-07-04 09:52:05</time>
      </trkpt>
      <trkpt lat="28.96389" lon="-13.79482">
        <ele>104.2</ele>
        <time>2021-07-04 09:52:06</time>
      </trkpt>
      <trkpt lat="28.96382" lon="-13.79477">
        <ele>103.8</ele>
        <time>2021-07-04 09:52:07</time>
      </trkpt>
      <trkpt lat="28.96375" lon="-13.79471">
        <ele>103.4</ele>
        <time>2021-07-04 09:52:08</time>
      </trkpt>
      <trkpt lat="28.96368" lon="-13.79465">
        <ele>103</ele>
        <time>2021-07-04 09:52:09</time>
      </trkpt>
      <trkpt lat="28.96361" lon="-13.79459">
        <ele>102.6</ele>
        <time>2021-07-04 09:52:10</time>
      </trkpt>
      <trkpt lat="28.96354" lon="-13.79453">
        <ele>102.4</ele>
        <time>2021-07-04 09:52:11</time>
      </trkpt>
      <trkpt lat="28.96347" lon="-13.79446">
        <ele>102</ele>
        <time>2021-07-04 09:52:12</time>
      </trkpt>
      <trkpt lat="28.9634" lon="-13.7944">
        <ele>101.8</ele>
        <time>2021-07-04 09:52:13</time>
      </trkpt>
      <trkpt lat="28.96333" lon="-13.79434">
        <ele>101.4</ele>
        <time>2021-07-04 09:52:14</time>
      </trkpt>
      <trkpt lat="28.96326" lon="-13.79428">
        <ele>101.2</ele>
        <time>2021-07-04 09:52:15</time>
      </trkpt>
      <trkpt lat="28.96319" lon="-13.79422">
        <ele>101</ele>
        <time>2021-07-04 09:52:16</time>
      </trkpt>
      <trkpt lat="28.96311" lon="-13.79416">
        <ele>100.6</ele>
        <time>2021-07-04 09:52:17</time>
      </trkpt>
      <trkpt lat="28.96304" lon="-13.79409">
        <ele>100.2</ele>
        <time>2021-07-04 09:52:18</time>
      </trkpt>
      <trkpt lat="28.96297" lon="-13.79403">
        <ele>100</ele>
        <time>2021-07-04 09:52:19</time>
      </trkpt>
      <trkpt lat="28.96291" lon="-13.79397">
        <ele>99.6</ele>
        <time>2021-07-04 09:52:20</time>
      </trkpt>
      <trkpt lat="28.96284" lon="-13.79391">
        <ele>99.4</ele>
        <time>2021-07-04 09:52:21</time>
      </trkpt>
      <trkpt lat="28.96277" lon="-13.79385">
        <ele>99.4</ele>
        <time>2021-07-04 09:52:22</time>
      </trkpt>
      <trkpt lat="28.96271" lon="-13.79379">
        <ele>99</ele>
        <time>2021-07-04 09:52:23</time>
      </trkpt>
      <trkpt lat="28.96264" lon="-13.79374">
        <ele>98.8</ele>
        <time>2021-07-04 09:52:24</time>
      </trkpt>
      <trkpt lat="28.96258" lon="-13.79369">
        <ele>98.6</ele>
        <time>2021-07-04 09:52:25</time>
      </trkpt>
      <trkpt lat="28.96251" lon="-13.79364">
        <ele>98.2</ele>
        <time>2021-07-04 09:52:26</time>
      </trkpt>
      <trkpt lat="28.96245" lon="-13.7936">
        <ele>98</ele>
        <time>2021-07-04 09:52:27</time>
      </trkpt>
      <trkpt lat="28.96238" lon="-13.79355">
        <ele>98</ele>
        <time>2021-07-04 09:52:28</time>
      </trkpt>
      <trkpt lat="28.96232" lon="-13.79351">
        <ele>97.6</ele>
        <time>2021-07-04 09:52:29</time>
      </trkpt>
      <trkpt lat="28.96225" lon="-13.79348">
        <ele>97.6</ele>
        <time>2021-07-04 09:52:30</time>
      </trkpt>
      <trkpt lat="28.96219" lon="-13.79344">
        <ele>97.4</ele>
        <time>2021-07-04 09:52:31</time>
      </trkpt>
      <trkpt lat="28.96212" lon="-13.7934">
        <ele>97.4</ele>
        <time>2021-07-04 09:52:32</time>
      </trkpt>
      <trkpt lat="28.96205" lon="-13.79337">
        <ele>97.2</ele>
        <time>2021-07-04 09:52:33</time>
      </trkpt>
      <trkpt lat="28.96198" lon="-13.79334">
        <ele>97.2</ele>
        <time>2021-07-04 09:52:34</time>
      </trkpt>
      <trkpt lat="28.96191" lon="-13.79332">
        <ele>97.2</ele>
        <time>2021-07-04 09:52:35</time>
      </trkpt>
      <trkpt lat="28.96184" lon="-13.79329">
        <ele>96.8</ele>
        <time>2021-07-04 09:52:36</time>
      </trkpt>
      <trkpt lat="28.96177" lon="-13.79327">
        <ele>96.8</ele>
        <time>2021-07-04 09:52:37</time>
      </trkpt>
      <trkpt lat="28.96171" lon="-13.79324">
        <ele>96.6</ele>
        <time>2021-07-04 09:52:38</time>
      </trkpt>
      <trkpt lat="28.96164" lon="-13.79322">
        <ele>96.6</ele>
        <time>2021-07-04 09:52:39</time>
      </trkpt>
      <trkpt lat="28.96157" lon="-13.7932">
        <ele>96.2</ele>
        <time>2021-07-04 09:52:40</time>
      </trkpt>
      <trkpt lat="28.9615" lon="-13.79317">
        <ele>96.2</ele>
        <time>2021-07-04 09:52:41</time>
      </trkpt>
      <trkpt lat="28.96143" lon="-13.79315">
        <ele>96.2</ele>
        <time>2021-07-04 09:52:42</time>
      </trkpt>
      <trkpt lat="28.96137" lon="-13.79313">
        <ele>96.2</ele>
        <time>2021-07-04 09:52:43</time>
      </trkpt>
      <trkpt lat="28.9613" lon="-13.7931">
        <ele>96.2</ele>
        <time>2021-07-04 09:52:44</time>
      </trkpt>
      <trkpt lat="28.96123" lon="-13.79307">
        <ele>96.2</ele>
        <time>2021-07-04 09:52:45</time>
      </trkpt>
      <trkpt lat="28.96116" lon="-13.79304">
        <ele>96.2</ele>
        <time>2021-07-04 09:52:46</time>
      </trkpt>
      <trkpt lat="28.9611" lon="-13.793">
        <ele>96.2</ele>
        <time>2021-07-04 09:52:47</time>
      </trkpt>
      <trkpt lat="28.96104" lon="-13.79297">
        <ele>96.2</ele>
        <time>2021-07-04 09:52:48</time>
      </trkpt>
      <trkpt lat="28.96098" lon="-13.79292">
        <ele>96.2</ele>
        <time>2021-07-04 09:52:49</time>
      </trkpt>
      <trkpt lat="28.96092" lon="-13.79288">
        <ele>96.2</ele>
        <time>2021-07-04 09:52:50</time>
      </trkpt>
      <trkpt lat="28.96087" lon="-13.79284">
        <ele>96.2</ele>
        <time>2021-07-04 09:52:51</time>
      </trkpt>
      <trkpt lat="28.96081" lon="-13.79279">
        <ele>96.2</ele>
        <time>2021-07-04 09:52:52</time>
      </trkpt>
      <trkpt lat="28.96076" lon="-13.79274">
        <ele>96.2</ele>
        <time>2021-07-04 09:52:53</time>
      </trkpt>
      <trkpt lat="28.9607" lon="-13.7927">
        <ele>96.2</ele>
        <time>2021-07-04 09:52:54</time>
      </trkpt>
      <trkpt lat="28.96065" lon="-13.79265">
        <ele>96.2</ele>
        <time>2021-07-04 09:52:55</time>
      </trkpt>
      <trkpt lat="28.9606" lon="-13.7926">
        <ele>96.2</ele>
        <time>2021-07-04 09:52:56</time>
      </trkpt>
      <trkpt lat="28.96055" lon="-13.79256">
        <ele>96.2</ele>
        <time>2021-07-04 09:52:57</time>
      </trkpt>
      <trkpt lat="28.9605" lon="-13.79251">
        <ele>96.2</ele>
        <time>2021-07-04 09:52:58</time>
      </trkpt>
      <trkpt lat="28.96045" lon="-13.79246">
        <ele>96.2</ele>
        <time>2021-07-04 09:52:59</time>
      </trkpt>
      <trkpt lat="28.96041" lon="-13.79242">
        <ele>96.2</ele>
        <time>2021-07-04 09:53:00</time>
      </trkpt>
      <trkpt lat="28.96037" lon="-13.79236">
        <ele>96.2</ele>
        <time>2021-07-04 09:53:01</time>
      </trkpt>
      <trkpt lat="28.96033" lon="-13.79232">
        <ele>96.4</ele>
        <time>2021-07-04 09:53:02</time>
      </trkpt>
      <trkpt lat="28.96029" lon="-13.79227">
        <ele>96.4</ele>
        <time>2021-07-04 09:53:03</time>
      </trkpt>
      <trkpt lat="28.96025" lon="-13.79222">
        <ele>96.4</ele>
        <time>2021-07-04 09:53:04</time>
      </trkpt>
      <trkpt lat="28.96021" lon="-13.79218">
        <ele>96.4</ele>
        <time>2021-07-04 09:53:05</time>
      </trkpt>
      <trkpt lat="28.96017" lon="-13.79212">
        <ele>96.6</ele>
        <time>2021-07-04 09:53:06</time>
      </trkpt>
      <trkpt lat="28.96017" lon="-13.79212">
        <ele>96.6</ele>
        <time>2021-07-04 09:53:07</time>
      </trkpt>
      <trkpt lat="28.96011" lon="-13.79203">
        <ele>96.6</ele>
        <time>2021-07-04 09:53:08</time>
      </trkpt>
      <trkpt lat="28.96007" lon="-13.79198">
        <ele>96.6</ele>
        <time>2021-07-04 09:53:09</time>
      </trkpt>
      <trkpt lat="28.96004" lon="-13.79192">
        <ele>96.6</ele>
        <time>2021-07-04 09:53:10</time>
      </trkpt>
      <trkpt lat="28.96001" lon="-13.79187">
        <ele>96.6</ele>
        <time>2021-07-04 09:53:11</time>
      </trkpt>
      <trkpt lat="28.95998" lon="-13.79182">
        <ele>96.6</ele>
        <time>2021-07-04 09:53:12</time>
      </trkpt>
      <trkpt lat="28.95995" lon="-13.79177">
        <ele>96.6</ele>
        <time>2021-07-04 09:53:13</time>
      </trkpt>
      <trkpt lat="28.95993" lon="-13.79172">
        <ele>96.6</ele>
        <time>2021-07-04 09:53:14</time>
      </trkpt>
      <trkpt lat="28.95991" lon="-13.79166">
        <ele>96.6</ele>
        <time>2021-07-04 09:53:15</time>
      </trkpt>
      <trkpt lat="28.95989" lon="-13.79161">
        <ele>96.6</ele>
        <time>2021-07-04 09:53:16</time>
      </trkpt>
      <trkpt lat="28.95988" lon="-13.79155">
        <ele>96.8</ele>
        <time>2021-07-04 09:53:17</time>
      </trkpt>
      <trkpt lat="28.95987" lon="-13.7915">
        <ele>96.8</ele>
        <time>2021-07-04 09:53:18</time>
      </trkpt>
      <trkpt lat="28.95986" lon="-13.79144">
        <ele>97.2</ele>
        <time>2021-07-04 09:53:19</time>
      </trkpt>
      <trkpt lat="28.95986" lon="-13.79138">
        <ele>97.2</ele>
        <time>2021-07-04 09:53:20</time>
      </trkpt>
      <trkpt lat="28.95986" lon="-13.79133">
        <ele>97.4</ele>
        <time>2021-07-04 09:53:21</time>
      </trkpt>
      <trkpt lat="28.95985" lon="-13.79127">
        <ele>97.4</ele>
        <time>2021-07-04 09:53:22</time>
      </trkpt>
      <trkpt lat="28.95985" lon="-13.79122">
        <ele>97.8</ele>
        <time>2021-07-04 09:53:23</time>
      </trkpt>
      <trkpt lat="28.95985" lon="-13.79116">
        <ele>98</ele>
        <time>2021-07-04 09:53:24</time>
      </trkpt>
      <trkpt lat="28.95985" lon="-13.79111">
        <ele>98</ele>
        <time>2021-07-04 09:53:25</time>
      </trkpt>
      <trkpt lat="28.95985" lon="-13.79106">
        <ele>98.4</ele>
        <time>2021-07-04 09:53:26</time>
      </trkpt>
      <trkpt lat="28.95986" lon="-13.79102">
        <ele>98.4</ele>
        <time>2021-07-04 09:53:27</time>
      </trkpt>
      <trkpt lat="28.95985" lon="-13.79097">
        <ele>98.4</ele>
        <time>2021-07-04 09:53:28</time>
      </trkpt>
      <trkpt lat="28.95985" lon="-13.79092">
        <ele>98.4</ele>
        <time>2021-07-04 09:53:29</time>
      </trkpt>
      <trkpt lat="28.95985" lon="-13.79088">
        <ele>98.6</ele>
        <time>2021-07-04 09:53:30</time>
      </trkpt>
      <trkpt lat="28.95985" lon="-13.79083">
        <ele>98.6</ele>
        <time>2021-07-04 09:53:31</time>
      </trkpt>
      <trkpt lat="28.95984" lon="-13.79079">
        <ele>98.6</ele>
        <time>2021-07-04 09:53:32</time>
      </trkpt>
      <trkpt lat="28.95985" lon="-13.79075">
        <ele>98.6</ele>
        <time>2021-07-04 09:53:33</time>
      </trkpt>
      <trkpt lat="28.95985" lon="-13.7907">
        <ele>98.8</ele>
        <time>2021-07-04 09:53:34</time>
      </trkpt>
      <trkpt lat="28.95985" lon="-13.79066">
        <ele>98.8</ele>
        <time>2021-07-04 09:53:35</time>
      </trkpt>
      <trkpt lat="28.95985" lon="-13.79062">
        <ele>98.8</ele>
        <time>2021-07-04 09:53:36</time>
      </trkpt>
      <trkpt lat="28.95985" lon="-13.79058">
        <ele>98.8</ele>
        <time>2021-07-04 09:53:37</time>
      </trkpt>
      <trkpt lat="28.95985" lon="-13.79054">
        <ele>99</ele>
        <time>2021-07-04 09:53:38</time>
      </trkpt>
      <trkpt lat="28.95985" lon="-13.7905">
        <ele>99</ele>
        <time>2021-07-04 09:53:39</time>
      </trkpt>
      <trkpt lat="28.95985" lon="-13.79047">
        <ele>99</ele>
        <time>2021-07-04 09:53:40</time>
      </trkpt>
      <trkpt lat="28.95984" lon="-13.79043">
        <ele>99.4</ele>
        <time>2021-07-04 09:53:41</time>
      </trkpt>
      <trkpt lat="28.95984" lon="-13.79039">
        <ele>99.4</ele>
        <time>2021-07-04 09:53:42</time>
      </trkpt>
      <trkpt lat="28.95984" lon="-13.79035">
        <ele>99.6</ele>
        <time>2021-07-04 09:53:43</time>
      </trkpt>
      <trkpt lat="28.95984" lon="-13.79032">
        <ele>99.6</ele>
        <time>2021-07-04 09:53:44</time>
      </trkpt>
      <trkpt lat="28.95983" lon="-13.79028">
        <ele>100</ele>
        <time>2021-07-04 09:53:45</time>
      </trkpt>
      <trkpt lat="28.95983" lon="-13.79024">
        <ele>100</ele>
        <time>2021-07-04 09:53:46</time>
      </trkpt>
      <trkpt lat="28.95983" lon="-13.7902">
        <ele>100.2</ele>
        <time>2021-07-04 09:53:47</time>
      </trkpt>
      <trkpt lat="28.95983" lon="-13.79017">
        <ele>100.6</ele>
        <time>2021-07-04 09:53:48</time>
      </trkpt>
      <trkpt lat="28.95983" lon="-13.79013">
        <ele>100.8</ele>
        <time>2021-07-04 09:53:49</time>
      </trkpt>
      <trkpt lat="28.95983" lon="-13.7901">
        <ele>101</ele>
        <time>2021-07-04 09:53:50</time>
      </trkpt>
      <trkpt lat="28.95982" lon="-13.79007">
        <ele>101.2</ele>
        <time>2021-07-04 09:53:51</time>
      </trkpt>
      <trkpt lat="28.95982" lon="-13.79003">
        <ele>101.4</ele>
        <time>2021-07-04 09:53:52</time>
      </trkpt>
      <trkpt lat="28.95982" lon="-13.79">
        <ele>101.4</ele>
        <time>2021-07-04 09:53:53</time>
      </trkpt>
      <trkpt lat="28.95982" lon="-13.78997">
        <ele>101.8</ele>
        <time>2021-07-04 09:53:54</time>
      </trkpt>
      <trkpt lat="28.95982" lon="-13.78994">
        <ele>101.8</ele>
        <time>2021-07-04 09:53:55</time>
      </trkpt>
      <trkpt lat="28.95981" lon="-13.78991">
        <ele>102.2</ele>
        <time>2021-07-04 09:53:56</time>
      </trkpt>
      <trkpt lat="28.95981" lon="-13.78988">
        <ele>102.2</ele>
        <time>2021-07-04 09:53:57</time>
      </trkpt>
      <trkpt lat="28.95981" lon="-13.78985">
        <ele>102.4</ele>
        <time>2021-07-04 09:53:58</time>
      </trkpt>
      <trkpt lat="28.9598" lon="-13.78982">
        <ele>102.4</ele>
        <time>2021-07-04 09:53:59</time>
      </trkpt>
      <trkpt lat="28.9598" lon="-13.78979">
        <ele>102.8</ele>
        <time>2021-07-04 09:54:00</time>
      </trkpt>
      <trkpt lat="28.95979" lon="-13.78975">
        <ele>102.8</ele>
        <time>2021-07-04 09:54:01</time>
      </trkpt>
      <trkpt lat="28.95979" lon="-13.78972">
        <ele>103.2</ele>
        <time>2021-07-04 09:54:02</time>
      </trkpt>
      <trkpt lat="28.95978" lon="-13.78969">
        <ele>103.2</ele>
        <time>2021-07-04 09:54:03</time>
      </trkpt>
      <trkpt lat="28.95977" lon="-13.78966">
        <ele>103.6</ele>
        <time>2021-07-04 09:54:04</time>
      </trkpt>
      <trkpt lat="28.95977" lon="-13.78963">
        <ele>103.6</ele>
        <time>2021-07-04 09:54:05</time>
      </trkpt>
      <trkpt lat="28.95976" lon="-13.7896">
        <ele>103.8</ele>
        <time>2021-07-04 09:54:06</time>
      </trkpt>
      <trkpt lat="28.95975" lon="-13.78957">
        <ele>104.2</ele>
        <time>2021-07-04 09:54:07</time>
      </trkpt>
      <trkpt lat="28.95975" lon="-13.78954">
        <ele>104.2</ele>
        <time>2021-07-04 09:54:08</time>
      </trkpt>
      <trkpt lat="28.95974" lon="-13.78952">
        <ele>104.4</ele>
        <time>2021-07-04 09:54:09</time>
      </trkpt>
      <trkpt lat="28.95973" lon="-13.78949">
        <ele>104.4</ele>
        <time>2021-07-04 09:54:10</time>
      </trkpt>
      <trkpt lat="28.95972" lon="-13.78946">
        <ele>104.6</ele>
        <time>2021-07-04 09:54:11</time>
      </trkpt>
      <trkpt lat="28.95972" lon="-13.78943">
        <ele>104.8</ele>
        <time>2021-07-04 09:54:12</time>
      </trkpt>
      <trkpt lat="28.95971" lon="-13.7894">
        <ele>105.2</ele>
        <time>2021-07-04 09:54:13</time>
      </trkpt>
      <trkpt lat="28.9597" lon="-13.78937">
        <ele>105.4</ele>
        <time>2021-07-04 09:54:14</time>
      </trkpt>
      <trkpt lat="28.95969" lon="-13.78934">
        <ele>105.4</ele>
        <time>2021-07-04 09:54:15</time>
      </trkpt>
      <trkpt lat="28.95968" lon="-13.78931">
        <ele>105.6</ele>
        <time>2021-07-04 09:54:16</time>
      </trkpt>
      <trkpt lat="28.95966" lon="-13.78928">
        <ele>105.6</ele>
        <time>2021-07-04 09:54:17</time>
      </trkpt>
      <trkpt lat="28.95965" lon="-13.78926">
        <ele>106</ele>
        <time>2021-07-04 09:54:18</time>
      </trkpt>
      <trkpt lat="28.95963" lon="-13.78923">
        <ele>106</ele>
        <time>2021-07-04 09:54:19</time>
      </trkpt>
      <trkpt lat="28.95962" lon="-13.7892">
        <ele>106.2</ele>
        <time>2021-07-04 09:54:20</time>
      </trkpt>
      <trkpt lat="28.9596" lon="-13.78917">
        <ele>106.2</ele>
        <time>2021-07-04 09:54:21</time>
      </trkpt>
      <trkpt lat="28.95959" lon="-13.78914">
        <ele>106.2</ele>
        <time>2021-07-04 09:54:22</time>
      </trkpt>
      <trkpt lat="28.95957" lon="-13.78911">
        <ele>106.6</ele>
        <time>2021-07-04 09:54:23</time>
      </trkpt>
      <trkpt lat="28.95955" lon="-13.78909">
        <ele>106.6</ele>
        <time>2021-07-04 09:54:24</time>
      </trkpt>
      <trkpt lat="28.95954" lon="-13.78906">
        <ele>106.8</ele>
        <time>2021-07-04 09:54:25</time>
      </trkpt>
      <trkpt lat="28.95952" lon="-13.78903">
        <ele>106.8</ele>
        <time>2021-07-04 09:54:26</time>
      </trkpt>
      <trkpt lat="28.9595" lon="-13.78901">
        <ele>107</ele>
        <time>2021-07-04 09:54:27</time>
      </trkpt>
      <trkpt lat="28.95948" lon="-13.78898">
        <ele>107</ele>
        <time>2021-07-04 09:54:28</time>
      </trkpt>
      <trkpt lat="28.95946" lon="-13.78895">
        <ele>107.2</ele>
        <time>2021-07-04 09:54:29</time>
      </trkpt>
      <trkpt lat="28.95944" lon="-13.78893">
        <ele>107.2</ele>
        <time>2021-07-04 09:54:30</time>
      </trkpt>
      <trkpt lat="28.95942" lon="-13.7889">
        <ele>107.6</ele>
        <time>2021-07-04 09:54:31</time>
      </trkpt>
      <trkpt lat="28.9594" lon="-13.78887">
        <ele>107.6</ele>
        <time>2021-07-04 09:54:32</time>
      </trkpt>
      <trkpt lat="28.95938" lon="-13.78885">
        <ele>107.8</ele>
        <time>2021-07-04 09:54:33</time>
      </trkpt>
      <trkpt lat="28.95936" lon="-13.78882">
        <ele>107.8</ele>
        <time>2021-07-04 09:54:34</time>
      </trkpt>
      <trkpt lat="28.95934" lon="-13.7888">
        <ele>108</ele>
        <time>2021-07-04 09:54:35</time>
      </trkpt>
      <trkpt lat="28.95932" lon="-13.78877">
        <ele>108</ele>
        <time>2021-07-04 09:54:36</time>
      </trkpt>
      <trkpt lat="28.9593" lon="-13.78874">
        <ele>108.4</ele>
        <time>2021-07-04 09:54:37</time>
      </trkpt>
      <trkpt lat="28.95928" lon="-13.78872">
        <ele>108.4</ele>
        <time>2021-07-04 09:54:38</time>
      </trkpt>
      <trkpt lat="28.95925" lon="-13.78869">
        <ele>108.8</ele>
        <time>2021-07-04 09:54:39</time>
      </trkpt>
      <trkpt lat="28.95923" lon="-13.78867">
        <ele>108.8</ele>
        <time>2021-07-04 09:54:40</time>
      </trkpt>
      <trkpt lat="28.95921" lon="-13.78864">
        <ele>109</ele>
        <time>2021-07-04 09:54:41</time>
      </trkpt>
      <trkpt lat="28.95919" lon="-13.78861">
        <ele>109</ele>
        <time>2021-07-04 09:54:42</time>
      </trkpt>
      <trkpt lat="28.95917" lon="-13.78859">
        <ele>109.4</ele>
        <time>2021-07-04 09:54:43</time>
      </trkpt>
      <trkpt lat="28.95914" lon="-13.78856">
        <ele>109.4</ele>
        <time>2021-07-04 09:54:44</time>
      </trkpt>
      <trkpt lat="28.95912" lon="-13.78853">
        <ele>109.8</ele>
        <time>2021-07-04 09:54:45</time>
      </trkpt>
      <trkpt lat="28.9591" lon="-13.7885">
        <ele>109.8</ele>
        <time>2021-07-04 09:54:46</time>
      </trkpt>
      <trkpt lat="28.95907" lon="-13.78848">
        <ele>110</ele>
        <time>2021-07-04 09:54:47</time>
      </trkpt>
      <trkpt lat="28.95905" lon="-13.78845">
        <ele>110</ele>
        <time>2021-07-04 09:54:48</time>
      </trkpt>
      <trkpt lat="28.95903" lon="-13.78842">
        <ele>110.2</ele>
        <time>2021-07-04 09:54:49</time>
      </trkpt>
      <trkpt lat="28.959" lon="-13.78839">
        <ele>110.2</ele>
        <time>2021-07-04 09:54:50</time>
      </trkpt>
      <trkpt lat="28.95898" lon="-13.78836">
        <ele>110.6</ele>
        <time>2021-07-04 09:54:51</time>
      </trkpt>
      <trkpt lat="28.95895" lon="-13.78833">
        <ele>110.6</ele>
        <time>2021-07-04 09:54:52</time>
      </trkpt>
      <trkpt lat="28.95893" lon="-13.78831">
        <ele>110.8</ele>
        <time>2021-07-04 09:54:53</time>
      </trkpt>
      <trkpt lat="28.9589" lon="-13.78827">
        <ele>110.8</ele>
        <time>2021-07-04 09:54:54</time>
      </trkpt>
      <trkpt lat="28.95887" lon="-13.78824">
        <ele>111.2</ele>
        <time>2021-07-04 09:54:55</time>
      </trkpt>
      <trkpt lat="28.95885" lon="-13.78822">
        <ele>111.2</ele>
        <time>2021-07-04 09:54:56</time>
      </trkpt>
      <trkpt lat="28.95882" lon="-13.78819">
        <ele>111.2</ele>
        <time>2021-07-04 09:54:57</time>
      </trkpt>
      <trkpt lat="28.9588" lon="-13.78816">
        <ele>111.2</ele>
        <time>2021-07-04 09:54:58</time>
      </trkpt>
      <trkpt lat="28.95877" lon="-13.78813">
        <ele>111.4</ele>
        <time>2021-07-04 09:54:59</time>
      </trkpt>
      <trkpt lat="28.95875" lon="-13.7881">
        <ele>111.4</ele>
        <time>2021-07-04 09:55:00</time>
      </trkpt>
      <trkpt lat="28.95872" lon="-13.78807">
        <ele>111.6</ele>
        <time>2021-07-04 09:55:01</time>
      </trkpt>
      <trkpt lat="28.9587" lon="-13.78804">
        <ele>111.6</ele>
        <time>2021-07-04 09:55:02</time>
      </trkpt>
      <trkpt lat="28.95867" lon="-13.788">
        <ele>112</ele>
        <time>2021-07-04 09:55:03</time>
      </trkpt>
      <trkpt lat="28.95864" lon="-13.78797">
        <ele>112</ele>
        <time>2021-07-04 09:55:04</time>
      </trkpt>
      <trkpt lat="28.95862" lon="-13.78794">
        <ele>112</ele>
        <time>2021-07-04 09:55:05</time>
      </trkpt>
      <trkpt lat="28.95859" lon="-13.78791">
        <ele>112.2</ele>
        <time>2021-07-04 09:55:06</time>
      </trkpt>
      <trkpt lat="28.95857" lon="-13.78788">
        <ele>112.2</ele>
        <time>2021-07-04 09:55:07</time>
      </trkpt>
      <trkpt lat="28.95854" lon="-13.78784">
        <ele>112.2</ele>
        <time>2021-07-04 09:55:08</time>
      </trkpt>
      <trkpt lat="28.95852" lon="-13.78781">
        <ele>112.4</ele>
        <time>2021-07-04 09:55:09</time>
      </trkpt>
      <trkpt lat="28.95849" lon="-13.78778">
        <ele>112.4</ele>
        <time>2021-07-04 09:55:10</time>
      </trkpt>
      <trkpt lat="28.95847" lon="-13.78775">
        <ele>112.4</ele>
        <time>2021-07-04 09:55:11</time>
      </trkpt>
      <trkpt lat="28.95844" lon="-13.78772">
        <ele>112.6</ele>
        <time>2021-07-04 09:55:12</time>
      </trkpt>
      <trkpt lat="28.95842" lon="-13.78769">
        <ele>112.6</ele>
        <time>2021-07-04 09:55:13</time>
      </trkpt>
      <trkpt lat="28.95839" lon="-13.78766">
        <ele>112.6</ele>
        <time>2021-07-04 09:55:14</time>
      </trkpt>
      <trkpt lat="28.95837" lon="-13.78762">
        <ele>112.6</ele>
        <time>2021-07-04 09:55:15</time>
      </trkpt>
      <trkpt lat="28.95834" lon="-13.7876">
        <ele>112.8</ele>
        <time>2021-07-04 09:55:16</time>
      </trkpt>
      <trkpt lat="28.95831" lon="-13.78757">
        <ele>112.8</ele>
        <time>2021-07-04 09:55:17</time>
      </trkpt>
      <trkpt lat="28.95829" lon="-13.78753">
        <ele>112.8</ele>
        <time>2021-07-04 09:55:18</time>
      </trkpt>
      <trkpt lat="28.95826" lon="-13.7875">
        <ele>112.8</ele>
        <time>2021-07-04 09:55:19</time>
      </trkpt>
      <trkpt lat="28.95824" lon="-13.78747">
        <ele>113.2</ele>
        <time>2021-07-04 09:55:20</time>
      </trkpt>
      <trkpt lat="28.95821" lon="-13.78744">
        <ele>113.2</ele>
        <time>2021-07-04 09:55:21</time>
      </trkpt>
      <trkpt lat="28.95819" lon="-13.78741">
        <ele>113.2</ele>
        <time>2021-07-04 09:55:22</time>
      </trkpt>
      <trkpt lat="28.95816" lon="-13.78738">
        <ele>113.2</ele>
        <time>2021-07-04 09:55:23</time>
      </trkpt>
      <trkpt lat="28.95813" lon="-13.78735">
        <ele>113.4</ele>
        <time>2021-07-04 09:55:24</time>
      </trkpt>
      <trkpt lat="28.9581" lon="-13.78732">
        <ele>113.4</ele>
        <time>2021-07-04 09:55:25</time>
      </trkpt>
      <trkpt lat="28.95808" lon="-13.78729">
        <ele>113.4</ele>
        <time>2021-07-04 09:55:26</time>
      </trkpt>
      <trkpt lat="28.95805" lon="-13.78726">
        <ele>113.8</ele>
        <time>2021-07-04 09:55:27</time>
      </trkpt>
      <trkpt lat="28.95803" lon="-13.78723">
        <ele>113.8</ele>
        <time>2021-07-04 09:55:28</time>
      </trkpt>
      <trkpt lat="28.95801" lon="-13.7872">
        <ele>114</ele>
        <time>2021-07-04 09:55:29</time>
      </trkpt>
      <trkpt lat="28.95798" lon="-13.78717">
        <ele>114</ele>
        <time>2021-07-04 09:55:30</time>
      </trkpt>
      <trkpt lat="28.95796" lon="-13.78714">
        <ele>114</ele>
        <time>2021-07-04 09:55:31</time>
      </trkpt>
      <trkpt lat="28.95793" lon="-13.78711">
        <ele>114</ele>
        <time>2021-07-04 09:55:32</time>
      </trkpt>
      <trkpt lat="28.95791" lon="-13.78708">
        <ele>114</ele>
        <time>2021-07-04 09:55:33</time>
      </trkpt>
      <trkpt lat="28.95788" lon="-13.78705">
        <ele>114</ele>
        <time>2021-07-04 09:55:34</time>
      </trkpt>
      <trkpt lat="28.95786" lon="-13.78702">
        <ele>114.2</ele>
        <time>2021-07-04 09:55:35</time>
      </trkpt>
      <trkpt lat="28.95784" lon="-13.78699">
        <ele>114.2</ele>
        <time>2021-07-04 09:55:36</time>
      </trkpt>
      <trkpt lat="28.95781" lon="-13.78696">
        <ele>114.4</ele>
        <time>2021-07-04 09:55:37</time>
      </trkpt>
      <trkpt lat="28.95779" lon="-13.78693">
        <ele>114.4</ele>
        <time>2021-07-04 09:55:38</time>
      </trkpt>
      <trkpt lat="28.95776" lon="-13.7869">
        <ele>114.4</ele>
        <time>2021-07-04 09:55:39</time>
      </trkpt>
      <trkpt lat="28.95774" lon="-13.78687">
        <ele>114.8</ele>
        <time>2021-07-04 09:55:40</time>
      </trkpt>
      <trkpt lat="28.95771" lon="-13.78684">
        <ele>114.8</ele>
        <time>2021-07-04 09:55:41</time>
      </trkpt>
      <trkpt lat="28.95768" lon="-13.78681">
        <ele>115</ele>
        <time>2021-07-04 09:55:42</time>
      </trkpt>
      <trkpt lat="28.95766" lon="-13.78678">
        <ele>115</ele>
        <time>2021-07-04 09:55:43</time>
      </trkpt>
      <trkpt lat="28.95763" lon="-13.78675">
        <ele>115.2</ele>
        <time>2021-07-04 09:55:44</time>
      </trkpt>
      <trkpt lat="28.95761" lon="-13.78672">
        <ele>115.2</ele>
        <time>2021-07-04 09:55:45</time>
      </trkpt>
      <trkpt lat="28.95758" lon="-13.78669">
        <ele>115.2</ele>
        <time>2021-07-04 09:55:46</time>
      </trkpt>
      <trkpt lat="28.95756" lon="-13.78666">
        <ele>115.4</ele>
        <time>2021-07-04 09:55:47</time>
      </trkpt>
      <trkpt lat="28.95754" lon="-13.78663">
        <ele>115.4</ele>
        <time>2021-07-04 09:55:48</time>
      </trkpt>
      <trkpt lat="28.95751" lon="-13.7866">
        <ele>115.4</ele>
        <time>2021-07-04 09:55:49</time>
      </trkpt>
      <trkpt lat="28.95749" lon="-13.78657">
        <ele>115.6</ele>
        <time>2021-07-04 09:55:50</time>
      </trkpt>
      <trkpt lat="28.95746" lon="-13.78654">
        <ele>115.6</ele>
        <time>2021-07-04 09:55:51</time>
      </trkpt>
      <trkpt lat="28.95744" lon="-13.78651">
        <ele>115.6</ele>
        <time>2021-07-04 09:55:52</time>
      </trkpt>
      <trkpt lat="28.95741" lon="-13.78648">
        <ele>115.6</ele>
        <time>2021-07-04 09:55:53</time>
      </trkpt>
      <trkpt lat="28.95738" lon="-13.78644">
        <ele>115.6</ele>
        <time>2021-07-04 09:55:54</time>
      </trkpt>
      <trkpt lat="28.95736" lon="-13.78641">
        <ele>115.8</ele>
        <time>2021-07-04 09:55:55</time>
      </trkpt>
      <trkpt lat="28.95733" lon="-13.78637">
        <ele>115.8</ele>
        <time>2021-07-04 09:55:56</time>
      </trkpt>
      <trkpt lat="28.9573" lon="-13.78634">
        <ele>115.8</ele>
        <time>2021-07-04 09:55:57</time>
      </trkpt>
      <trkpt lat="28.95727" lon="-13.78631">
        <ele>115.8</ele>
        <time>2021-07-04 09:55:58</time>
      </trkpt>
      <trkpt lat="28.95724" lon="-13.78627">
        <ele>115.8</ele>
        <time>2021-07-04 09:55:59</time>
      </trkpt>
      <trkpt lat="28.95721" lon="-13.78623">
        <ele>115.8</ele>
        <time>2021-07-04 09:56:00</time>
      </trkpt>
      <trkpt lat="28.95718" lon="-13.78619">
        <ele>115.8</ele>
        <time>2021-07-04 09:56:01</time>
      </trkpt>
      <trkpt lat="28.95715" lon="-13.78616">
        <ele>115.8</ele>
        <time>2021-07-04 09:56:02</time>
      </trkpt>
      <trkpt lat="28.95711" lon="-13.78612">
        <ele>115.8</ele>
        <time>2021-07-04 09:56:03</time>
      </trkpt>
      <trkpt lat="28.95708" lon="-13.78608">
        <ele>115.8</ele>
        <time>2021-07-04 09:56:04</time>
      </trkpt>
      <trkpt lat="28.95704" lon="-13.78605">
        <ele>115.8</ele>
        <time>2021-07-04 09:56:05</time>
      </trkpt>
      <trkpt lat="28.95701" lon="-13.78602">
        <ele>115.6</ele>
        <time>2021-07-04 09:56:06</time>
      </trkpt>
      <trkpt lat="28.95696" lon="-13.78598">
        <ele>115.6</ele>
        <time>2021-07-04 09:56:07</time>
      </trkpt>
      <trkpt lat="28.95691" lon="-13.78595">
        <ele>115.2</ele>
        <time>2021-07-04 09:56:08</time>
      </trkpt>
      <trkpt lat="28.95686" lon="-13.78591">
        <ele>114.8</ele>
        <time>2021-07-04 09:56:09</time>
      </trkpt>
      <trkpt lat="28.95681" lon="-13.78588">
        <ele>114.6</ele>
        <time>2021-07-04 09:56:10</time>
      </trkpt>
      <trkpt lat="28.95676" lon="-13.78584">
        <ele>114.4</ele>
        <time>2021-07-04 09:56:11</time>
      </trkpt>
      <trkpt lat="28.9567" lon="-13.78581">
        <ele>114</ele>
        <time>2021-07-04 09:56:12</time>
      </trkpt>
      <trkpt lat="28.95665" lon="-13.78578">
        <ele>114</ele>
        <time>2021-07-04 09:56:13</time>
      </trkpt>
      <trkpt lat="28.95659" lon="-13.78575">
        <ele>113.8</ele>
        <time>2021-07-04 09:56:14</time>
      </trkpt>
      <trkpt lat="28.95653" lon="-13.78572">
        <ele>113.8</ele>
        <time>2021-07-04 09:56:15</time>
      </trkpt>
      <trkpt lat="28.95647" lon="-13.78569">
        <ele>113.8</ele>
        <time>2021-07-04 09:56:16</time>
      </trkpt>
      <trkpt lat="28.95641" lon="-13.78565">
        <ele>113.8</ele>
        <time>2021-07-04 09:56:17</time>
      </trkpt>
      <trkpt lat="28.95635" lon="-13.78562">
        <ele>113.6</ele>
        <time>2021-07-04 09:56:18</time>
      </trkpt>
      <trkpt lat="28.95629" lon="-13.78559">
        <ele>113.6</ele>
        <time>2021-07-04 09:56:19</time>
      </trkpt>
      <trkpt lat="28.95623" lon="-13.78556">
        <ele>113.6</ele>
        <time>2021-07-04 09:56:20</time>
      </trkpt>
      <trkpt lat="28.95617" lon="-13.78553">
        <ele>113.4</ele>
        <time>2021-07-04 09:56:21</time>
      </trkpt>
      <trkpt lat="28.95611" lon="-13.7855">
        <ele>113.4</ele>
        <time>2021-07-04 09:56:22</time>
      </trkpt>
      <trkpt lat="28.95605" lon="-13.78547">
        <ele>113.4</ele>
        <time>2021-07-04 09:56:23</time>
      </trkpt>
      <trkpt lat="28.95599" lon="-13.78544">
        <ele>113.4</ele>
        <time>2021-07-04 09:56:24</time>
      </trkpt>
      <trkpt lat="28.95592" lon="-13.7854">
        <ele>113</ele>
        <time>2021-07-04 09:56:25</time>
      </trkpt>
      <trkpt lat="28.95586" lon="-13.78538">
        <ele>113</ele>
        <time>2021-07-04 09:56:26</time>
      </trkpt>
      <trkpt lat="28.9558" lon="-13.78535">
        <ele>113</ele>
        <time>2021-07-04 09:56:27</time>
      </trkpt>
      <trkpt lat="28.95574" lon="-13.78532">
        <ele>113</ele>
        <time>2021-07-04 09:56:28</time>
      </trkpt>
      <trkpt lat="28.95569" lon="-13.78529">
        <ele>113</ele>
        <time>2021-07-04 09:56:29</time>
      </trkpt>
      <trkpt lat="28.95564" lon="-13.78526">
        <ele>113</ele>
        <time>2021-07-04 09:56:30</time>
      </trkpt>
      <trkpt lat="28.95558" lon="-13.78522">
        <ele>113</ele>
        <time>2021-07-04 09:56:31</time>
      </trkpt>
      <trkpt lat="28.95553" lon="-13.78518">
        <ele>113</ele>
        <time>2021-07-04 09:56:32</time>
      </trkpt>
      <trkpt lat="28.95549" lon="-13.78515">
        <ele>113</ele>
        <time>2021-07-04 09:56:33</time>
      </trkpt>
      <trkpt lat="28.95544" lon="-13.78511">
        <ele>113</ele>
        <time>2021-07-04 09:56:34</time>
      </trkpt>
      <trkpt lat="28.95538" lon="-13.78507">
        <ele>113</ele>
        <time>2021-07-04 09:56:35</time>
      </trkpt>
      <trkpt lat="28.95534" lon="-13.78504">
        <ele>113.4</ele>
        <time>2021-07-04 09:56:36</time>
      </trkpt>
      <trkpt lat="28.95529" lon="-13.785">
        <ele>113.4</ele>
        <time>2021-07-04 09:56:37</time>
      </trkpt>
      <trkpt lat="28.95524" lon="-13.78496">
        <ele>113.4</ele>
        <time>2021-07-04 09:56:38</time>
      </trkpt>
      <trkpt lat="28.95519" lon="-13.78492">
        <ele>113.6</ele>
        <time>2021-07-04 09:56:39</time>
      </trkpt>
      <trkpt lat="28.95514" lon="-13.78488">
        <ele>113.6</ele>
        <time>2021-07-04 09:56:40</time>
      </trkpt>
      <trkpt lat="28.9551" lon="-13.78484">
        <ele>113.6</ele>
        <time>2021-07-04 09:56:41</time>
      </trkpt>
      <trkpt lat="28.95505" lon="-13.7848">
        <ele>113.8</ele>
        <time>2021-07-04 09:56:42</time>
      </trkpt>
      <trkpt lat="28.955" lon="-13.78477">
        <ele>113.8</ele>
        <time>2021-07-04 09:56:43</time>
      </trkpt>
      <trkpt lat="28.95496" lon="-13.78473">
        <ele>114</ele>
        <time>2021-07-04 09:56:44</time>
      </trkpt>
      <trkpt lat="28.95491" lon="-13.78469">
        <ele>114</ele>
        <time>2021-07-04 09:56:45</time>
      </trkpt>
      <trkpt lat="28.95487" lon="-13.78466">
        <ele>114.4</ele>
        <time>2021-07-04 09:56:46</time>
      </trkpt>
      <trkpt lat="28.95483" lon="-13.78462">
        <ele>114.4</ele>
        <time>2021-07-04 09:56:47</time>
      </trkpt>
      <trkpt lat="28.95479" lon="-13.78458">
        <ele>114.6</ele>
        <time>2021-07-04 09:56:48</time>
      </trkpt>
      <trkpt lat="28.95475" lon="-13.78455">
        <ele>114.8</ele>
        <time>2021-07-04 09:56:49</time>
      </trkpt>
      <trkpt lat="28.95471" lon="-13.78452">
        <ele>114.8</ele>
        <time>2021-07-04 09:56:50</time>
      </trkpt>
      <trkpt lat="28.95468" lon="-13.78449">
        <ele>115.2</ele>
        <time>2021-07-04 09:56:51</time>
      </trkpt>
      <trkpt lat="28.95464" lon="-13.78446">
        <ele>115.2</ele>
        <time>2021-07-04 09:56:52</time>
      </trkpt>
      <trkpt lat="28.95461" lon="-13.78443">
        <ele>115.6</ele>
        <time>2021-07-04 09:56:53</time>
      </trkpt>
      <trkpt lat="28.95458" lon="-13.7844">
        <ele>115.8</ele>
        <time>2021-07-04 09:56:54</time>
      </trkpt>
      <trkpt lat="28.95454" lon="-13.78438">
        <ele>115.8</ele>
        <time>2021-07-04 09:56:55</time>
      </trkpt>
      <trkpt lat="28.95451" lon="-13.78435">
        <ele>116.2</ele>
        <time>2021-07-04 09:56:56</time>
      </trkpt>
      <trkpt lat="28.95448" lon="-13.78432">
        <ele>116.2</ele>
        <time>2021-07-04 09:56:57</time>
      </trkpt>
      <trkpt lat="28.95445" lon="-13.78429">
        <ele>116.6</ele>
        <time>2021-07-04 09:56:58</time>
      </trkpt>
      <trkpt lat="28.95442" lon="-13.78427">
        <ele>116.6</ele>
        <time>2021-07-04 09:56:59</time>
      </trkpt>
      <trkpt lat="28.9544" lon="-13.78424">
        <ele>116.8</ele>
        <time>2021-07-04 09:57:00</time>
      </trkpt>
      <trkpt lat="28.95437" lon="-13.78421">
        <ele>116.8</ele>
        <time>2021-07-04 09:57:01</time>
      </trkpt>
      <trkpt lat="28.95434" lon="-13.78418">
        <ele>117</ele>
        <time>2021-07-04 09:57:02</time>
      </trkpt>
      <trkpt lat="28.95431" lon="-13.78415">
        <ele>117</ele>
        <time>2021-07-04 09:57:03</time>
      </trkpt>
      <trkpt lat="28.95429" lon="-13.78412">
        <ele>117.4</ele>
        <time>2021-07-04 09:57:04</time>
      </trkpt>
      <trkpt lat="28.95426" lon="-13.78409">
        <ele>117.4</ele>
        <time>2021-07-04 09:57:05</time>
      </trkpt>
      <trkpt lat="28.95423" lon="-13.78406">
        <ele>117.6</ele>
        <time>2021-07-04 09:57:06</time>
      </trkpt>
      <trkpt lat="28.95421" lon="-13.78402">
        <ele>117.6</ele>
        <time>2021-07-04 09:57:07</time>
      </trkpt>
      <trkpt lat="28.95418" lon="-13.78399">
        <ele>118</ele>
        <time>2021-07-04 09:57:08</time>
      </trkpt>
      <trkpt lat="28.95416" lon="-13.78396">
        <ele>118</ele>
        <time>2021-07-04 09:57:09</time>
      </trkpt>
      <trkpt lat="28.95414" lon="-13.78393">
        <ele>118.2</ele>
        <time>2021-07-04 09:57:10</time>
      </trkpt>
      <trkpt lat="28.95411" lon="-13.78389">
        <ele>118.2</ele>
        <time>2021-07-04 09:57:11</time>
      </trkpt>
      <trkpt lat="28.95409" lon="-13.78386">
        <ele>118.6</ele>
        <time>2021-07-04 09:57:12</time>
      </trkpt>
      <trkpt lat="28.95407" lon="-13.78383">
        <ele>118.8</ele>
        <time>2021-07-04 09:57:13</time>
      </trkpt>
      <trkpt lat="28.95404" lon="-13.78379">
        <ele>118.8</ele>
        <time>2021-07-04 09:57:14</time>
      </trkpt>
      <trkpt lat="28.95402" lon="-13.78376">
        <ele>119</ele>
        <time>2021-07-04 09:57:15</time>
      </trkpt>
      <trkpt lat="28.954" lon="-13.78372">
        <ele>119</ele>
        <time>2021-07-04 09:57:16</time>
      </trkpt>
      <trkpt lat="28.95398" lon="-13.78368">
        <ele>119.4</ele>
        <time>2021-07-04 09:57:17</time>
      </trkpt>
      <trkpt lat="28.95396" lon="-13.78365">
        <ele>119.4</ele>
        <time>2021-07-04 09:57:18</time>
      </trkpt>
      <trkpt lat="28.95394" lon="-13.78361">
        <ele>119.6</ele>
        <time>2021-07-04 09:57:19</time>
      </trkpt>
      <trkpt lat="28.95392" lon="-13.78358">
        <ele>119.6</ele>
        <time>2021-07-04 09:57:20</time>
      </trkpt>
      <trkpt lat="28.9539" lon="-13.78354">
        <ele>119.8</ele>
        <time>2021-07-04 09:57:21</time>
      </trkpt>
      <trkpt lat="28.95388" lon="-13.7835">
        <ele>119.8</ele>
        <time>2021-07-04 09:57:22</time>
      </trkpt>
      <trkpt lat="28.95386" lon="-13.78347">
        <ele>120</ele>
        <time>2021-07-04 09:57:23</time>
      </trkpt>
      <trkpt lat="28.95384" lon="-13.78343">
        <ele>119.6</ele>
        <time>2021-07-04 09:57:24</time>
      </trkpt>
      <trkpt lat="28.95382" lon="-13.7834">
        <ele>120</ele>
        <time>2021-07-04 09:57:25</time>
      </trkpt>
      <trkpt lat="28.9538" lon="-13.78337">
        <ele>120</ele>
        <time>2021-07-04 09:57:26</time>
      </trkpt>
      <trkpt lat="28.95379" lon="-13.78334">
        <ele>120</ele>
        <time>2021-07-04 09:57:27</time>
      </trkpt>
      <trkpt lat="28.95377" lon="-13.78331">
        <ele>120</ele>
        <time>2021-07-04 09:57:28</time>
      </trkpt>
      <trkpt lat="28.95375" lon="-13.78328">
        <ele>120</ele>
        <time>2021-07-04 09:57:29</time>
      </trkpt>
      <trkpt lat="28.95373" lon="-13.78325">
        <ele>120</ele>
        <time>2021-07-04 09:57:30</time>
      </trkpt>
      <trkpt lat="28.95371" lon="-13.78322">
        <ele>120</ele>
        <time>2021-07-04 09:57:31</time>
      </trkpt>
      <trkpt lat="28.95369" lon="-13.78318">
        <ele>120</ele>
        <time>2021-07-04 09:57:32</time>
      </trkpt>
      <trkpt lat="28.95367" lon="-13.78315">
        <ele>120</ele>
        <time>2021-07-04 09:57:33</time>
      </trkpt>
      <trkpt lat="28.95365" lon="-13.78311">
        <ele>120.2</ele>
        <time>2021-07-04 09:57:34</time>
      </trkpt>
      <trkpt lat="28.95363" lon="-13.78307">
        <ele>120.2</ele>
        <time>2021-07-04 09:57:35</time>
      </trkpt>
      <trkpt lat="28.9536" lon="-13.78303">
        <ele>120.4</ele>
        <time>2021-07-04 09:57:36</time>
      </trkpt>
      <trkpt lat="28.95358" lon="-13.78299">
        <ele>120.4</ele>
        <time>2021-07-04 09:57:37</time>
      </trkpt>
      <trkpt lat="28.95355" lon="-13.78296">
        <ele>120.4</ele>
        <time>2021-07-04 09:57:38</time>
      </trkpt>
      <trkpt lat="28.95352" lon="-13.78292">
        <ele>120.4</ele>
        <time>2021-07-04 09:57:39</time>
      </trkpt>
      <trkpt lat="28.9535" lon="-13.78288">
        <ele>120.6</ele>
        <time>2021-07-04 09:57:40</time>
      </trkpt>
      <trkpt lat="28.95347" lon="-13.78285">
        <ele>120.6</ele>
        <time>2021-07-04 09:57:41</time>
      </trkpt>
      <trkpt lat="28.95344" lon="-13.78282">
        <ele>120.6</ele>
        <time>2021-07-04 09:57:42</time>
      </trkpt>
      <trkpt lat="28.95341" lon="-13.78278">
        <ele>120.6</ele>
        <time>2021-07-04 09:57:43</time>
      </trkpt>
      <trkpt lat="28.95338" lon="-13.78275">
        <ele>120.6</ele>
        <time>2021-07-04 09:57:44</time>
      </trkpt>
      <trkpt lat="28.95335" lon="-13.78272">
        <ele>120.6</ele>
        <time>2021-07-04 09:57:45</time>
      </trkpt>
      <trkpt lat="28.95332" lon="-13.78269">
        <ele>120.6</ele>
        <time>2021-07-04 09:57:46</time>
      </trkpt>
      <trkpt lat="28.9533" lon="-13.78265">
        <ele>120.6</ele>
        <time>2021-07-04 09:57:47</time>
      </trkpt>
      <trkpt lat="28.95327" lon="-13.78262">
        <ele>120.6</ele>
        <time>2021-07-04 09:57:48</time>
      </trkpt>
      <trkpt lat="28.95324" lon="-13.78259">
        <ele>120.6</ele>
        <time>2021-07-04 09:57:49</time>
      </trkpt>
      <trkpt lat="28.95321" lon="-13.78256">
        <ele>120.6</ele>
        <time>2021-07-04 09:57:50</time>
      </trkpt>
      <trkpt lat="28.95318" lon="-13.78252">
        <ele>120.6</ele>
        <time>2021-07-04 09:57:51</time>
      </trkpt>
      <trkpt lat="28.95315" lon="-13.78249">
        <ele>120.6</ele>
        <time>2021-07-04 09:57:52</time>
      </trkpt>
      <trkpt lat="28.95312" lon="-13.78246">
        <ele>120.6</ele>
        <time>2021-07-04 09:57:53</time>
      </trkpt>
      <trkpt lat="28.95309" lon="-13.78243">
        <ele>121</ele>
        <time>2021-07-04 09:57:54</time>
      </trkpt>
      <trkpt lat="28.95306" lon="-13.78241">
        <ele>121</ele>
        <time>2021-07-04 09:57:55</time>
      </trkpt>
      <trkpt lat="28.95303" lon="-13.78239">
        <ele>121.2</ele>
        <time>2021-07-04 09:57:56</time>
      </trkpt>
      <trkpt lat="28.95301" lon="-13.78236">
        <ele>121.2</ele>
        <time>2021-07-04 09:57:57</time>
      </trkpt>
      <trkpt lat="28.95298" lon="-13.78233">
        <ele>121.2</ele>
        <time>2021-07-04 09:57:58</time>
      </trkpt>
      <trkpt lat="28.95296" lon="-13.7823">
        <ele>121.2</ele>
        <time>2021-07-04 09:57:59</time>
      </trkpt>
      <trkpt lat="28.95293" lon="-13.78228">
        <ele>121.2</ele>
        <time>2021-07-04 09:58:00</time>
      </trkpt>
      <trkpt lat="28.95291" lon="-13.78225">
        <ele>121.2</ele>
        <time>2021-07-04 09:58:01</time>
      </trkpt>
      <trkpt lat="28.95289" lon="-13.78223">
        <ele>121.2</ele>
        <time>2021-07-04 09:58:02</time>
      </trkpt>
      <trkpt lat="28.95287" lon="-13.78221">
        <ele>121.6</ele>
        <time>2021-07-04 09:58:03</time>
      </trkpt>
      <trkpt lat="28.95285" lon="-13.78219">
        <ele>121.6</ele>
        <time>2021-07-04 09:58:04</time>
      </trkpt>
      <trkpt lat="28.95283" lon="-13.78217">
        <ele>122</ele>
        <time>2021-07-04 09:58:05</time>
      </trkpt>
      <trkpt lat="28.9528" lon="-13.78216">
        <ele>122</ele>
        <time>2021-07-04 09:58:06</time>
      </trkpt>
      <trkpt lat="28.95278" lon="-13.78215">
        <ele>122.4</ele>
        <time>2021-07-04 09:58:07</time>
      </trkpt>
      <trkpt lat="28.95275" lon="-13.78214">
        <ele>122.8</ele>
        <time>2021-07-04 09:58:08</time>
      </trkpt>
      <trkpt lat="28.95273" lon="-13.78213">
        <ele>123.2</ele>
        <time>2021-07-04 09:58:09</time>
      </trkpt>
      <trkpt lat="28.9527" lon="-13.78213">
        <ele>123.4</ele>
        <time>2021-07-04 09:58:10</time>
      </trkpt>
      <trkpt lat="28.95267" lon="-13.78213">
        <ele>123.6</ele>
        <time>2021-07-04 09:58:11</time>
      </trkpt>
      <trkpt lat="28.95264" lon="-13.78214">
        <ele>124</ele>
        <time>2021-07-04 09:58:12</time>
      </trkpt>
      <trkpt lat="28.95261" lon="-13.78215">
        <ele>124.2</ele>
        <time>2021-07-04 09:58:13</time>
      </trkpt>
      <trkpt lat="28.95259" lon="-13.78216">
        <ele>124.6</ele>
        <time>2021-07-04 09:58:14</time>
      </trkpt>
      <trkpt lat="28.95257" lon="-13.78217">
        <ele>124.8</ele>
        <time>2021-07-04 09:58:15</time>
      </trkpt>
      <trkpt lat="28.95254" lon="-13.78219">
        <ele>125.2</ele>
        <time>2021-07-04 09:58:16</time>
      </trkpt>
      <trkpt lat="28.95253" lon="-13.78221">
        <ele>125.6</ele>
        <time>2021-07-04 09:58:17</time>
      </trkpt>
      <trkpt lat="28.95252" lon="-13.78223">
        <ele>125.8</ele>
        <time>2021-07-04 09:58:18</time>
      </trkpt>
      <trkpt lat="28.95251" lon="-13.78224">
        <ele>126</ele>
        <time>2021-07-04 09:58:19</time>
      </trkpt>
      <trkpt lat="28.95251" lon="-13.78225">
        <ele>126.2</ele>
        <time>2021-07-04 09:58:20</time>
      </trkpt>
      <trkpt lat="28.95251" lon="-13.78225">
        <ele>126.6</ele>
        <time>2021-07-04 09:58:21</time>
      </trkpt>
      <trkpt lat="28.95251" lon="-13.78225">
        <ele>126.8</ele>
        <time>2021-07-04 09:58:22</time>
      </trkpt>
      <trkpt lat="28.95252" lon="-13.78225">
        <ele>126.8</ele>
        <time>2021-07-04 09:58:23</time>
      </trkpt>
      <trkpt lat="28.95251" lon="-13.78227">
        <ele>128.8</ele>
        <time>2021-07-04 09:58:24</time>
      </trkpt>
      <trkpt lat="28.95251" lon="-13.78228">
        <ele>128.6</ele>
        <time>2021-07-04 09:58:25</time>
      </trkpt>
      <trkpt lat="28.9525" lon="-13.78229">
        <ele>128.6</ele>
        <time>2021-07-04 09:58:26</time>
      </trkpt>
      <trkpt lat="28.9525" lon="-13.7823">
        <ele>128.6</ele>
        <time>2021-07-04 09:58:27</time>
      </trkpt>
      <trkpt lat="28.9525" lon="-13.78233">
        <ele>128.6</ele>
        <time>2021-07-04 09:58:28</time>
      </trkpt>
      <trkpt lat="28.95251" lon="-13.78236">
        <ele>128.6</ele>
        <time>2021-07-04 10:00:07</time>
      </trkpt>
      <trkpt lat="28.95253" lon="-13.78239">
        <ele>128.6</ele>
        <time>2021-07-04 10:00:08</time>
      </trkpt>
      <trkpt lat="28.95255" lon="-13.78243">
        <ele>128.6</ele>
        <time>2021-07-04 10:00:09</time>
      </trkpt>
      <trkpt lat="28.95257" lon="-13.78247">
        <ele>128.8</ele>
        <time>2021-07-04 10:00:10</time>
      </trkpt>
      <trkpt lat="28.95258" lon="-13.78252">
        <ele>128.8</ele>
        <time>2021-07-04 10:00:11</time>
      </trkpt>
      <trkpt lat="28.9526" lon="-13.78257">
        <ele>128.8</ele>
        <time>2021-07-04 10:00:12</time>
      </trkpt>
      <trkpt lat="28.95261" lon="-13.78262">
        <ele>128.8</ele>
        <time>2021-07-04 10:00:13</time>
      </trkpt>
      <trkpt lat="28.95262" lon="-13.78267">
        <ele>128.8</ele>
        <time>2021-07-04 10:00:14</time>
      </trkpt>
      <trkpt lat="28.95262" lon="-13.78273">
        <ele>128.8</ele>
        <time>2021-07-04 10:00:15</time>
      </trkpt>
      <trkpt lat="28.95261" lon="-13.78279">
        <ele>128.6</ele>
        <time>2021-07-04 10:00:16</time>
      </trkpt>
      <trkpt lat="28.95261" lon="-13.78285">
        <ele>128.6</ele>
        <time>2021-07-04 10:00:17</time>
      </trkpt>
      <trkpt lat="28.9526" lon="-13.7829">
        <ele>128.6</ele>
        <time>2021-07-04 10:00:18</time>
      </trkpt>
      <trkpt lat="28.9526" lon="-13.78293">
        <ele>128.2</ele>
        <time>2021-07-04 10:00:19</time>
      </trkpt>
      <trkpt lat="28.95259" lon="-13.78296">
        <ele>128.2</ele>
        <time>2021-07-04 10:00:20</time>
      </trkpt>
      <trkpt lat="28.95258" lon="-13.78298">
        <ele>128</ele>
        <time>2021-07-04 10:00:21</time>
      </trkpt>
      <trkpt lat="28.95258" lon="-13.783">
        <ele>128</ele>
        <time>2021-07-04 10:00:22</time>
      </trkpt>
      <trkpt lat="28.95257" lon="-13.78303">
        <ele>127.8</ele>
        <time>2021-07-04 10:00:23</time>
      </trkpt>
      <trkpt lat="28.95256" lon="-13.78305">
        <ele>127.8</ele>
        <time>2021-07-04 10:00:24</time>
      </trkpt>
      <trkpt lat="28.95256" lon="-13.78307">
        <ele>127.6</ele>
        <time>2021-07-04 10:00:25</time>
      </trkpt>
      <trkpt lat="28.95254" lon="-13.7831">
        <ele>127.6</ele>
        <time>2021-07-04 10:00:26</time>
      </trkpt>
      <trkpt lat="28.95253" lon="-13.78313">
        <ele>127.6</ele>
        <time>2021-07-04 10:00:27</time>
      </trkpt>
      <trkpt lat="28.9525" lon="-13.78317">
        <ele>127.2</ele>
        <time>2021-07-04 10:00:28</time>
      </trkpt>
      <trkpt lat="28.95248" lon="-13.78321">
        <ele>127.2</ele>
        <time>2021-07-04 10:00:29</time>
      </trkpt>
      <trkpt lat="28.95245" lon="-13.78326">
        <ele>127</ele>
        <time>2021-07-04 10:00:30</time>
      </trkpt>
      <trkpt lat="28.95242" lon="-13.78329">
        <ele>127</ele>
        <time>2021-07-04 10:00:31</time>
      </trkpt>
      <trkpt lat="28.95238" lon="-13.78333">
        <ele>127</ele>
        <time>2021-07-04 10:00:32</time>
      </trkpt>
      <trkpt lat="28.95235" lon="-13.78336">
        <ele>126.6</ele>
        <time>2021-07-04 10:00:33</time>
      </trkpt>
      <trkpt lat="28.95231" lon="-13.7834">
        <ele>126.4</ele>
        <time>2021-07-04 10:00:34</time>
      </trkpt>
      <trkpt lat="28.95228" lon="-13.78344">
        <ele>126.2</ele>
        <time>2021-07-04 10:00:35</time>
      </trkpt>
      <trkpt lat="28.95224" lon="-13.78348">
        <ele>125.8</ele>
        <time>2021-07-04 10:00:36</time>
      </trkpt>
      <trkpt lat="28.9522" lon="-13.78352">
        <ele>125.8</ele>
        <time>2021-07-04 10:00:37</time>
      </trkpt>
      <trkpt lat="28.95216" lon="-13.78356">
        <ele>125.6</ele>
        <time>2021-07-04 10:00:38</time>
      </trkpt>
      <trkpt lat="28.95212" lon="-13.7836">
        <ele>125.6</ele>
        <time>2021-07-04 10:00:39</time>
      </trkpt>
      <trkpt lat="28.95208" lon="-13.78365">
        <ele>125.2</ele>
        <time>2021-07-04 10:00:40</time>
      </trkpt>
      <trkpt lat="28.95204" lon="-13.78369">
        <ele>125.2</ele>
        <time>2021-07-04 10:00:41</time>
      </trkpt>
      <trkpt lat="28.952" lon="-13.78373">
        <ele>124.8</ele>
        <time>2021-07-04 10:00:42</time>
      </trkpt>
      <trkpt lat="28.95196" lon="-13.78378">
        <ele>124.8</ele>
        <time>2021-07-04 10:00:43</time>
      </trkpt>
      <trkpt lat="28.95192" lon="-13.78383">
        <ele>124.4</ele>
        <time>2021-07-04 10:00:44</time>
      </trkpt>
      <trkpt lat="28.95188" lon="-13.78387">
        <ele>124.4</ele>
        <time>2021-07-04 10:00:45</time>
      </trkpt>
      <trkpt lat="28.95184" lon="-13.78392">
        <ele>124.2</ele>
        <time>2021-07-04 10:00:46</time>
      </trkpt>
      <trkpt lat="28.9518" lon="-13.78397">
        <ele>124.2</ele>
        <time>2021-07-04 10:00:47</time>
      </trkpt>
      <trkpt lat="28.95176" lon="-13.78401">
        <ele>123.8</ele>
        <time>2021-07-04 10:00:48</time>
      </trkpt>
      <trkpt lat="28.95172" lon="-13.78405">
        <ele>123.6</ele>
        <time>2021-07-04 10:00:49</time>
      </trkpt>
      <trkpt lat="28.95168" lon="-13.78409">
        <ele>123.6</ele>
        <time>2021-07-04 10:00:50</time>
      </trkpt>
      <trkpt lat="28.95166" lon="-13.78412">
        <ele>123.2</ele>
        <time>2021-07-04 10:00:51</time>
      </trkpt>
      <trkpt lat="28.95164" lon="-13.78414">
        <ele>123.2</ele>
        <time>2021-07-04 10:00:52</time>
      </trkpt>
      <trkpt lat="28.95163" lon="-13.78415">
        <ele>123</ele>
        <time>2021-07-04 10:00:53</time>
      </trkpt>
      <trkpt lat="28.95162" lon="-13.78416">
        <ele>123</ele>
        <time>2021-07-04 10:00:54</time>
      </trkpt>
      <trkpt lat="28.95162" lon="-13.78416">
        <ele>122.6</ele>
        <time>2021-07-04 10:00:55</time>
      </trkpt>
      <trkpt lat="28.95162" lon="-13.78416">
        <ele>122.6</ele>
        <time>2021-07-04 10:00:56</time>
      </trkpt>
      <trkpt lat="28.95162" lon="-13.78415">
        <ele>122.6</ele>
        <time>2021-07-04 10:00:57</time>
      </trkpt>
      <trkpt lat="28.9516" lon="-13.78418">
        <ele>122.8</ele>
        <time>2021-07-04 10:00:58</time>
      </trkpt>
      <trkpt lat="28.95158" lon="-13.7842">
        <ele>122.8</ele>
        <time>2021-07-04 10:00:59</time>
      </trkpt>
      <trkpt lat="28.95157" lon="-13.78422">
        <ele>122.8</ele>
        <time>2021-07-04 10:01:00</time>
      </trkpt>
      <trkpt lat="28.95155" lon="-13.78425">
        <ele>122.8</ele>
        <time>2021-07-04 10:01:01</time>
      </trkpt>
      <trkpt lat="28.95154" lon="-13.78427">
        <ele>122.6</ele>
        <time>2021-07-04 10:01:02</time>
      </trkpt>
      <trkpt lat="28.95152" lon="-13.7843">
        <ele>122.6</ele>
        <time>2021-07-04 10:01:45</time>
      </trkpt>
      <trkpt lat="28.9515" lon="-13.78434">
        <ele>122.2</ele>
        <time>2021-07-04 10:01:46</time>
      </trkpt>
      <trkpt lat="28.95147" lon="-13.78439">
        <ele>122.2</ele>
        <time>2021-07-04 10:01:47</time>
      </trkpt>
      <trkpt lat="28.95144" lon="-13.78444">
        <ele>122</ele>
        <time>2021-07-04 10:01:48</time>
      </trkpt>
      <trkpt lat="28.9514" lon="-13.78448">
        <ele>122</ele>
        <time>2021-07-04 10:01:49</time>
      </trkpt>
      <trkpt lat="28.95137" lon="-13.78452">
        <ele>121.8</ele>
        <time>2021-07-04 10:01:50</time>
      </trkpt>
      <trkpt lat="28.95133" lon="-13.78457">
        <ele>121.8</ele>
        <time>2021-07-04 10:01:51</time>
      </trkpt>
      <trkpt lat="28.95129" lon="-13.78462">
        <ele>121.8</ele>
        <time>2021-07-04 10:01:52</time>
      </trkpt>
      <trkpt lat="28.95125" lon="-13.78466">
        <ele>121.6</ele>
        <time>2021-07-04 10:01:53</time>
      </trkpt>
      <trkpt lat="28.95121" lon="-13.78471">
        <ele>121.6</ele>
        <time>2021-07-04 10:01:54</time>
      </trkpt>
      <trkpt lat="28.95121" lon="-13.78471">
        <ele>121.6</ele>
        <time>2021-07-04 10:01:55</time>
      </trkpt>
      <trkpt lat="28.95107" lon="-13.78488">
        <ele>121.4</ele>
        <time>2021-07-04 10:01:56</time>
      </trkpt>
      <trkpt lat="28.95102" lon="-13.78493">
        <ele>121</ele>
        <time>2021-07-04 10:01:57</time>
      </trkpt>
      <trkpt lat="28.95097" lon="-13.78499">
        <ele>120.8</ele>
        <time>2021-07-04 10:01:58</time>
      </trkpt>
      <trkpt lat="28.95092" lon="-13.78505">
        <ele>120.6</ele>
        <time>2021-07-04 10:01:59</time>
      </trkpt>
      <trkpt lat="28.95086" lon="-13.78512">
        <ele>120.6</ele>
        <time>2021-07-04 10:02:00</time>
      </trkpt>
      <trkpt lat="28.95081" lon="-13.78518">
        <ele>120.4</ele>
        <time>2021-07-04 10:02:01</time>
      </trkpt>
      <trkpt lat="28.95075" lon="-13.78525">
        <ele>120.2</ele>
        <time>2021-07-04 10:02:02</time>
      </trkpt>
      <trkpt lat="28.95069" lon="-13.78532">
        <ele>119.8</ele>
        <time>2021-07-04 10:02:03</time>
      </trkpt>
      <trkpt lat="28.95063" lon="-13.78539">
        <ele>119.8</ele>
        <time>2021-07-04 10:02:04</time>
      </trkpt>
      <trkpt lat="28.95063" lon="-13.78539">
        <ele>119.4</ele>
        <time>2021-07-04 10:02:05</time>
      </trkpt>
      <trkpt lat="28.95052" lon="-13.78553">
        <ele>119.2</ele>
        <time>2021-07-04 10:02:06</time>
      </trkpt>
      <trkpt lat="28.95046" lon="-13.7856">
        <ele>119</ele>
        <time>2021-07-04 10:02:07</time>
      </trkpt>
      <trkpt lat="28.9504" lon="-13.78568">
        <ele>118.8</ele>
        <time>2021-07-04 10:02:08</time>
      </trkpt>
      <trkpt lat="28.95034" lon="-13.78576">
        <ele>118.4</ele>
        <time>2021-07-04 10:02:09</time>
      </trkpt>
      <trkpt lat="28.95028" lon="-13.78583">
        <ele>118.2</ele>
        <time>2021-07-04 10:02:10</time>
      </trkpt>
      <trkpt lat="28.95021" lon="-13.78591">
        <ele>118</ele>
        <time>2021-07-04 10:02:11</time>
      </trkpt>
      <trkpt lat="28.95015" lon="-13.78599">
        <ele>117.6</ele>
        <time>2021-07-04 10:02:12</time>
      </trkpt>
      <trkpt lat="28.95008" lon="-13.78607">
        <ele>117.4</ele>
        <time>2021-07-04 10:02:13</time>
      </trkpt>
      <trkpt lat="28.95002" lon="-13.78616">
        <ele>117.2</ele>
        <time>2021-07-04 10:02:14</time>
      </trkpt>
      <trkpt lat="28.94996" lon="-13.78624">
        <ele>117</ele>
        <time>2021-07-04 10:02:15</time>
      </trkpt>
      <trkpt lat="28.94989" lon="-13.78632">
        <ele>116.8</ele>
        <time>2021-07-04 10:02:16</time>
      </trkpt>
      <trkpt lat="28.94983" lon="-13.7864">
        <ele>116.4</ele>
        <time>2021-07-04 10:02:17</time>
      </trkpt>
      <trkpt lat="28.94976" lon="-13.78648">
        <ele>116.2</ele>
        <time>2021-07-04 10:02:18</time>
      </trkpt>
      <trkpt lat="28.9497" lon="-13.78656">
        <ele>116</ele>
        <time>2021-07-04 10:02:19</time>
      </trkpt>
      <trkpt lat="28.94963" lon="-13.78664">
        <ele>115.6</ele>
        <time>2021-07-04 10:02:20</time>
      </trkpt>
      <trkpt lat="28.94957" lon="-13.78672">
        <ele>115.4</ele>
        <time>2021-07-04 10:02:21</time>
      </trkpt>
      <trkpt lat="28.9495" lon="-13.78681">
        <ele>115.2</ele>
        <time>2021-07-04 10:02:22</time>
      </trkpt>
      <trkpt lat="28.94944" lon="-13.78689">
        <ele>114.8</ele>
        <time>2021-07-04 10:02:23</time>
      </trkpt>
      <trkpt lat="28.94937" lon="-13.78698">
        <ele>114.6</ele>
        <time>2021-07-04 10:02:24</time>
      </trkpt>
      <trkpt lat="28.94931" lon="-13.78707">
        <ele>114.2</ele>
        <time>2021-07-04 10:02:25</time>
      </trkpt>
      <trkpt lat="28.94924" lon="-13.78716">
        <ele>114</ele>
        <time>2021-07-04 10:02:26</time>
      </trkpt>
      <trkpt lat="28.94918" lon="-13.78725">
        <ele>113.8</ele>
        <time>2021-07-04 10:02:27</time>
      </trkpt>
      <trkpt lat="28.94911" lon="-13.78734">
        <ele>113.4</ele>
        <time>2021-07-04 10:02:28</time>
      </trkpt>
      <trkpt lat="28.94905" lon="-13.78743">
        <ele>113.2</ele>
        <time>2021-07-04 10:02:29</time>
      </trkpt>
      <trkpt lat="28.94898" lon="-13.78752">
        <ele>112.8</ele>
        <time>2021-07-04 10:02:30</time>
      </trkpt>
      <trkpt lat="28.94891" lon="-13.78761">
        <ele>112.4</ele>
        <time>2021-07-04 10:02:31</time>
      </trkpt>
      <trkpt lat="28.94884" lon="-13.78771">
        <ele>112.2</ele>
        <time>2021-07-04 10:02:32</time>
      </trkpt>
      <trkpt lat="28.94878" lon="-13.7878">
        <ele>112</ele>
        <time>2021-07-04 10:02:33</time>
      </trkpt>
      <trkpt lat="28.94871" lon="-13.7879">
        <ele>111.6</ele>
        <time>2021-07-04 10:02:34</time>
      </trkpt>
      <trkpt lat="28.94864" lon="-13.788">
        <ele>111.2</ele>
        <time>2021-07-04 10:02:35</time>
      </trkpt>
      <trkpt lat="28.94857" lon="-13.78809">
        <ele>111</ele>
        <time>2021-07-04 10:02:36</time>
      </trkpt>
      <trkpt lat="28.9485" lon="-13.78819">
        <ele>110.6</ele>
        <time>2021-07-04 10:02:37</time>
      </trkpt>
      <trkpt lat="28.94843" lon="-13.78829">
        <ele>110</ele>
        <time>2021-07-04 10:02:38</time>
      </trkpt>
      <trkpt lat="28.94836" lon="-13.78839">
        <ele>109.8</ele>
        <time>2021-07-04 10:02:39</time>
      </trkpt>
      <trkpt lat="28.94829" lon="-13.7885">
        <ele>109.4</ele>
        <time>2021-07-04 10:02:40</time>
      </trkpt>
      <trkpt lat="28.94823" lon="-13.78859">
        <ele>109</ele>
        <time>2021-07-04 10:02:41</time>
      </trkpt>
      <trkpt lat="28.94816" lon="-13.7887">
        <ele>108.6</ele>
        <time>2021-07-04 10:02:42</time>
      </trkpt>
      <trkpt lat="28.94809" lon="-13.7888">
        <ele>108.2</ele>
        <time>2021-07-04 10:02:43</time>
      </trkpt>
      <trkpt lat="28.94802" lon="-13.7889">
        <ele>107.8</ele>
        <time>2021-07-04 10:02:44</time>
      </trkpt>
      <trkpt lat="28.94795" lon="-13.789">
        <ele>107.6</ele>
        <time>2021-07-04 10:02:45</time>
      </trkpt>
      <trkpt lat="28.94789" lon="-13.7891">
        <ele>107.2</ele>
        <time>2021-07-04 10:02:46</time>
      </trkpt>
      <trkpt lat="28.94782" lon="-13.78921">
        <ele>106.8</ele>
        <time>2021-07-04 10:02:47</time>
      </trkpt>
      <trkpt lat="28.94775" lon="-13.78931">
        <ele>106.6</ele>
        <time>2021-07-04 10:02:48</time>
      </trkpt>
      <trkpt lat="28.94768" lon="-13.78942">
        <ele>106.2</ele>
        <time>2021-07-04 10:02:49</time>
      </trkpt>
      <trkpt lat="28.94761" lon="-13.78952">
        <ele>105.8</ele>
        <time>2021-07-04 10:02:50</time>
      </trkpt>
      <trkpt lat="28.94754" lon="-13.78963">
        <ele>105.4</ele>
        <time>2021-07-04 10:02:51</time>
      </trkpt>
      <trkpt lat="28.94748" lon="-13.78973">
        <ele>105</ele>
        <time>2021-07-04 10:02:52</time>
      </trkpt>
      <trkpt lat="28.94741" lon="-13.78984">
        <ele>104.8</ele>
        <time>2021-07-04 10:02:53</time>
      </trkpt>
      <trkpt lat="28.94735" lon="-13.78995">
        <ele>104.6</ele>
        <time>2021-07-04 10:02:54</time>
      </trkpt>
      <trkpt lat="28.94728" lon="-13.79005">
        <ele>104</ele>
        <time>2021-07-04 10:02:55</time>
      </trkpt>
      <trkpt lat="28.94722" lon="-13.79015">
        <ele>103.6</ele>
        <time>2021-07-04 10:02:56</time>
      </trkpt>
      <trkpt lat="28.94716" lon="-13.79025">
        <ele>103.4</ele>
        <time>2021-07-04 10:02:57</time>
      </trkpt>
      <trkpt lat="28.9471" lon="-13.79035">
        <ele>102.8</ele>
        <time>2021-07-04 10:02:58</time>
      </trkpt>
      <trkpt lat="28.94703" lon="-13.79046">
        <ele>102.4</ele>
        <time>2021-07-04 10:02:59</time>
      </trkpt>
      <trkpt lat="28.94697" lon="-13.79056">
        <ele>102</ele>
        <time>2021-07-04 10:03:00</time>
      </trkpt>
      <trkpt lat="28.94691" lon="-13.79066">
        <ele>101.6</ele>
        <time>2021-07-04 10:03:01</time>
      </trkpt>
      <trkpt lat="28.94685" lon="-13.79077">
        <ele>101.4</ele>
        <time>2021-07-04 10:03:02</time>
      </trkpt>
      <trkpt lat="28.94679" lon="-13.79088">
        <ele>101</ele>
        <time>2021-07-04 10:03:03</time>
      </trkpt>
      <trkpt lat="28.94672" lon="-13.79098">
        <ele>100.6</ele>
        <time>2021-07-04 10:03:04</time>
      </trkpt>
      <trkpt lat="28.94666" lon="-13.79109">
        <ele>100.2</ele>
        <time>2021-07-04 10:03:05</time>
      </trkpt>
      <trkpt lat="28.9466" lon="-13.7912">
        <ele>100</ele>
        <time>2021-07-04 10:03:06</time>
      </trkpt>
      <trkpt lat="28.94655" lon="-13.7913">
        <ele>99.6</ele>
        <time>2021-07-04 10:03:07</time>
      </trkpt>
      <trkpt lat="28.94649" lon="-13.7914">
        <ele>99.2</ele>
        <time>2021-07-04 10:03:08</time>
      </trkpt>
      <trkpt lat="28.94643" lon="-13.7915">
        <ele>98.8</ele>
        <time>2021-07-04 10:03:09</time>
      </trkpt>
      <trkpt lat="28.94637" lon="-13.7916">
        <ele>98.4</ele>
        <time>2021-07-04 10:03:10</time>
      </trkpt>
      <trkpt lat="28.94632" lon="-13.7917">
        <ele>98.2</ele>
        <time>2021-07-04 10:03:11</time>
      </trkpt>
      <trkpt lat="28.94626" lon="-13.7918">
        <ele>98</ele>
        <time>2021-07-04 10:03:12</time>
      </trkpt>
      <trkpt lat="28.9462" lon="-13.79191">
        <ele>97.6</ele>
        <time>2021-07-04 10:03:13</time>
      </trkpt>
      <trkpt lat="28.94615" lon="-13.79201">
        <ele>97.4</ele>
        <time>2021-07-04 10:03:14</time>
      </trkpt>
      <trkpt lat="28.94609" lon="-13.79212">
        <ele>97</ele>
        <time>2021-07-04 10:03:15</time>
      </trkpt>
      <trkpt lat="28.94603" lon="-13.79222">
        <ele>96.6</ele>
        <time>2021-07-04 10:03:16</time>
      </trkpt>
      <trkpt lat="28.94598" lon="-13.79232">
        <ele>96.2</ele>
        <time>2021-07-04 10:03:17</time>
      </trkpt>
      <trkpt lat="28.94592" lon="-13.79242">
        <ele>95.8</ele>
        <time>2021-07-04 10:03:18</time>
      </trkpt>
      <trkpt lat="28.94587" lon="-13.79252">
        <ele>95.6</ele>
        <time>2021-07-04 10:03:19</time>
      </trkpt>
      <trkpt lat="28.94582" lon="-13.79262">
        <ele>95.2</ele>
        <time>2021-07-04 10:03:20</time>
      </trkpt>
      <trkpt lat="28.94577" lon="-13.79272">
        <ele>95</ele>
        <time>2021-07-04 10:03:21</time>
      </trkpt>
      <trkpt lat="28.94571" lon="-13.79282">
        <ele>94.6</ele>
        <time>2021-07-04 10:03:22</time>
      </trkpt>
      <trkpt lat="28.94566" lon="-13.79292">
        <ele>94.4</ele>
        <time>2021-07-04 10:03:23</time>
      </trkpt>
      <trkpt lat="28.94561" lon="-13.79302">
        <ele>94.2</ele>
        <time>2021-07-04 10:03:24</time>
      </trkpt>
      <trkpt lat="28.94556" lon="-13.79312">
        <ele>93.8</ele>
        <time>2021-07-04 10:03:25</time>
      </trkpt>
      <trkpt lat="28.94551" lon="-13.79323">
        <ele>93.4</ele>
        <time>2021-07-04 10:03:26</time>
      </trkpt>
      <trkpt lat="28.94545" lon="-13.79333">
        <ele>93.2</ele>
        <time>2021-07-04 10:03:27</time>
      </trkpt>
      <trkpt lat="28.94541" lon="-13.79343">
        <ele>92.8</ele>
        <time>2021-07-04 10:03:28</time>
      </trkpt>
      <trkpt lat="28.94536" lon="-13.79353">
        <ele>92.6</ele>
        <time>2021-07-04 10:03:29</time>
      </trkpt>
      <trkpt lat="28.94531" lon="-13.79364">
        <ele>92.2</ele>
        <time>2021-07-04 10:03:30</time>
      </trkpt>
      <trkpt lat="28.94526" lon="-13.79374">
        <ele>91.8</ele>
        <time>2021-07-04 10:03:31</time>
      </trkpt>
      <trkpt lat="28.9452" lon="-13.79385">
        <ele>91.6</ele>
        <time>2021-07-04 10:03:32</time>
      </trkpt>
      <trkpt lat="28.94516" lon="-13.79395">
        <ele>91.2</ele>
        <time>2021-07-04 10:03:33</time>
      </trkpt>
      <trkpt lat="28.9451" lon="-13.79405">
        <ele>91</ele>
        <time>2021-07-04 10:03:34</time>
      </trkpt>
      <trkpt lat="28.9451" lon="-13.79405">
        <ele>91</ele>
        <time>2021-07-04 10:03:35</time>
      </trkpt>
      <trkpt lat="28.94501" lon="-13.79425">
        <ele>90.6</ele>
        <time>2021-07-04 10:03:36</time>
      </trkpt>
      <trkpt lat="28.94497" lon="-13.79435">
        <ele>90.6</ele>
        <time>2021-07-04 10:03:37</time>
      </trkpt>
      <trkpt lat="28.94492" lon="-13.79445">
        <ele>90.4</ele>
        <time>2021-07-04 10:03:38</time>
      </trkpt>
      <trkpt lat="28.94487" lon="-13.79455">
        <ele>90.2</ele>
        <time>2021-07-04 10:03:39</time>
      </trkpt>
      <trkpt lat="28.94483" lon="-13.79464">
        <ele>90.2</ele>
        <time>2021-07-04 10:03:40</time>
      </trkpt>
      <trkpt lat="28.94478" lon="-13.79474">
        <ele>89.8</ele>
        <time>2021-07-04 10:03:41</time>
      </trkpt>
      <trkpt lat="28.94474" lon="-13.79484">
        <ele>89.8</ele>
        <time>2021-07-04 10:03:42</time>
      </trkpt>
      <trkpt lat="28.94469" lon="-13.79493">
        <ele>89.4</ele>
        <time>2021-07-04 10:03:43</time>
      </trkpt>
      <trkpt lat="28.94465" lon="-13.79503">
        <ele>89.4</ele>
        <time>2021-07-04 10:03:44</time>
      </trkpt>
      <trkpt lat="28.94461" lon="-13.79512">
        <ele>89.2</ele>
        <time>2021-07-04 10:03:45</time>
      </trkpt>
      <trkpt lat="28.94457" lon="-13.79521">
        <ele>89.2</ele>
        <time>2021-07-04 10:03:46</time>
      </trkpt>
      <trkpt lat="28.94452" lon="-13.79531">
        <ele>89</ele>
        <time>2021-07-04 10:03:47</time>
      </trkpt>
      <trkpt lat="28.94449" lon="-13.7954">
        <ele>89</ele>
        <time>2021-07-04 10:03:48</time>
      </trkpt>
      <trkpt lat="28.94444" lon="-13.79549">
        <ele>89</ele>
        <time>2021-07-04 10:03:49</time>
      </trkpt>
      <trkpt lat="28.94441" lon="-13.79558">
        <ele>88.8</ele>
        <time>2021-07-04 10:03:50</time>
      </trkpt>
      <trkpt lat="28.94437" lon="-13.79567">
        <ele>88.8</ele>
        <time>2021-07-04 10:03:51</time>
      </trkpt>
      <trkpt lat="28.94433" lon="-13.79577">
        <ele>88.4</ele>
        <time>2021-07-04 10:03:52</time>
      </trkpt>
      <trkpt lat="28.94429" lon="-13.79586">
        <ele>88.2</ele>
        <time>2021-07-04 10:03:53</time>
      </trkpt>
      <trkpt lat="28.94425" lon="-13.79595">
        <ele>88</ele>
        <time>2021-07-04 10:03:54</time>
      </trkpt>
      <trkpt lat="28.94421" lon="-13.79605">
        <ele>87.8</ele>
        <time>2021-07-04 10:03:55</time>
      </trkpt>
      <trkpt lat="28.94417" lon="-13.79614">
        <ele>87.8</ele>
        <time>2021-07-04 10:03:56</time>
      </trkpt>
      <trkpt lat="28.94413" lon="-13.79624">
        <ele>87.4</ele>
        <time>2021-07-04 10:03:57</time>
      </trkpt>
      <trkpt lat="28.94409" lon="-13.79633">
        <ele>87.4</ele>
        <time>2021-07-04 10:03:58</time>
      </trkpt>
      <trkpt lat="28.94406" lon="-13.79643">
        <ele>87</ele>
        <time>2021-07-04 10:03:59</time>
      </trkpt>
      <trkpt lat="28.94402" lon="-13.79652">
        <ele>86.8</ele>
        <time>2021-07-04 10:04:00</time>
      </trkpt>
      <trkpt lat="28.94398" lon="-13.79662">
        <ele>86.8</ele>
        <time>2021-07-04 10:04:01</time>
      </trkpt>
      <trkpt lat="28.94394" lon="-13.79671">
        <ele>86.8</ele>
        <time>2021-07-04 10:04:02</time>
      </trkpt>
      <trkpt lat="28.94391" lon="-13.79681">
        <ele>86.6</ele>
        <time>2021-07-04 10:04:03</time>
      </trkpt>
      <trkpt lat="28.94388" lon="-13.7969">
        <ele>86.6</ele>
        <time>2021-07-04 10:04:04</time>
      </trkpt>
      <trkpt lat="28.94384" lon="-13.79699">
        <ele>86.6</ele>
        <time>2021-07-04 10:04:05</time>
      </trkpt>
      <trkpt lat="28.9438" lon="-13.79708">
        <ele>86.4</ele>
        <time>2021-07-04 10:04:06</time>
      </trkpt>
      <trkpt lat="28.94376" lon="-13.79718">
        <ele>86.4</ele>
        <time>2021-07-04 10:04:07</time>
      </trkpt>
      <trkpt lat="28.94373" lon="-13.79727">
        <ele>86.4</ele>
        <time>2021-07-04 10:04:08</time>
      </trkpt>
      <trkpt lat="28.9437" lon="-13.79736">
        <ele>86</ele>
        <time>2021-07-04 10:04:09</time>
      </trkpt>
      <trkpt lat="28.94366" lon="-13.79745">
        <ele>86</ele>
        <time>2021-07-04 10:04:10</time>
      </trkpt>
      <trkpt lat="28.94363" lon="-13.79753">
        <ele>85.8</ele>
        <time>2021-07-04 10:04:11</time>
      </trkpt>
      <trkpt lat="28.94359" lon="-13.79762">
        <ele>85.8</ele>
        <time>2021-07-04 10:04:12</time>
      </trkpt>
      <trkpt lat="28.94356" lon="-13.79771">
        <ele>85.6</ele>
        <time>2021-07-04 10:04:13</time>
      </trkpt>
      <trkpt lat="28.94353" lon="-13.79779">
        <ele>85.6</ele>
        <time>2021-07-04 10:04:14</time>
      </trkpt>
      <trkpt lat="28.94349" lon="-13.79788">
        <ele>85.6</ele>
        <time>2021-07-04 10:04:15</time>
      </trkpt>
      <trkpt lat="28.94346" lon="-13.79796">
        <ele>85.4</ele>
        <time>2021-07-04 10:04:16</time>
      </trkpt>
      <trkpt lat="28.94343" lon="-13.79804">
        <ele>85.4</ele>
        <time>2021-07-04 10:04:17</time>
      </trkpt>
      <trkpt lat="28.9434" lon="-13.79813">
        <ele>85.4</ele>
        <time>2021-07-04 10:04:18</time>
      </trkpt>
      <trkpt lat="28.94337" lon="-13.7982">
        <ele>85</ele>
        <time>2021-07-04 10:04:19</time>
      </trkpt>
      <trkpt lat="28.94334" lon="-13.79828">
        <ele>85</ele>
        <time>2021-07-04 10:04:20</time>
      </trkpt>
      <trkpt lat="28.9433" lon="-13.79835">
        <ele>84.8</ele>
        <time>2021-07-04 10:04:21</time>
      </trkpt>
      <trkpt lat="28.94327" lon="-13.79843">
        <ele>84.8</ele>
        <time>2021-07-04 10:04:22</time>
      </trkpt>
      <trkpt lat="28.94324" lon="-13.79851">
        <ele>84.6</ele>
        <time>2021-07-04 10:04:23</time>
      </trkpt>
      <trkpt lat="28.94321" lon="-13.79858">
        <ele>84.2</ele>
        <time>2021-07-04 10:04:24</time>
      </trkpt>
      <trkpt lat="28.94318" lon="-13.79866">
        <ele>84</ele>
        <time>2021-07-04 10:04:25</time>
      </trkpt>
      <trkpt lat="28.94315" lon="-13.79873">
        <ele>83.8</ele>
        <time>2021-07-04 10:04:26</time>
      </trkpt>
      <trkpt lat="28.94312" lon="-13.79881">
        <ele>83.4</ele>
        <time>2021-07-04 10:04:27</time>
      </trkpt>
      <trkpt lat="28.94309" lon="-13.79889">
        <ele>83.2</ele>
        <time>2021-07-04 10:04:28</time>
      </trkpt>
      <trkpt lat="28.94305" lon="-13.79897">
        <ele>83.2</ele>
        <time>2021-07-04 10:04:29</time>
      </trkpt>
      <trkpt lat="28.94303" lon="-13.79905">
        <ele>83</ele>
        <time>2021-07-04 10:04:30</time>
      </trkpt>
      <trkpt lat="28.943" lon="-13.79912">
        <ele>83</ele>
        <time>2021-07-04 10:04:31</time>
      </trkpt>
      <trkpt lat="28.94297" lon="-13.7992">
        <ele>83</ele>
        <time>2021-07-04 10:04:32</time>
      </trkpt>
      <trkpt lat="28.94293" lon="-13.79928">
        <ele>82.8</ele>
        <time>2021-07-04 10:04:33</time>
      </trkpt>
      <trkpt lat="28.9429" lon="-13.79936">
        <ele>82.8</ele>
        <time>2021-07-04 10:04:34</time>
      </trkpt>
      <trkpt lat="28.94288" lon="-13.79944">
        <ele>82.8</ele>
        <time>2021-07-04 10:04:35</time>
      </trkpt>
      <trkpt lat="28.94285" lon="-13.79951">
        <ele>82.8</ele>
        <time>2021-07-04 10:04:36</time>
      </trkpt>
      <trkpt lat="28.94282" lon="-13.79959">
        <ele>82.8</ele>
        <time>2021-07-04 10:04:37</time>
      </trkpt>
      <trkpt lat="28.94279" lon="-13.79966">
        <ele>82.4</ele>
        <time>2021-07-04 10:04:38</time>
      </trkpt>
      <trkpt lat="28.94276" lon="-13.79973">
        <ele>82.4</ele>
        <time>2021-07-04 10:04:39</time>
      </trkpt>
      <trkpt lat="28.94274" lon="-13.79981">
        <ele>82.2</ele>
        <time>2021-07-04 10:04:40</time>
      </trkpt>
      <trkpt lat="28.94271" lon="-13.79988">
        <ele>82.2</ele>
        <time>2021-07-04 10:04:41</time>
      </trkpt>
      <trkpt lat="28.94268" lon="-13.79995">
        <ele>82</ele>
        <time>2021-07-04 10:04:42</time>
      </trkpt>
      <trkpt lat="28.94265" lon="-13.80003">
        <ele>82</ele>
        <time>2021-07-04 10:04:43</time>
      </trkpt>
      <trkpt lat="28.94262" lon="-13.8001">
        <ele>81.6</ele>
        <time>2021-07-04 10:04:44</time>
      </trkpt>
      <trkpt lat="28.9426" lon="-13.80017">
        <ele>81.4</ele>
        <time>2021-07-04 10:04:45</time>
      </trkpt>
      <trkpt lat="28.94257" lon="-13.80025">
        <ele>81.4</ele>
        <time>2021-07-04 10:04:46</time>
      </trkpt>
      <trkpt lat="28.94254" lon="-13.80032">
        <ele>81.2</ele>
        <time>2021-07-04 10:04:47</time>
      </trkpt>
      <trkpt lat="28.94251" lon="-13.8004">
        <ele>81.2</ele>
        <time>2021-07-04 10:04:48</time>
      </trkpt>
      <trkpt lat="28.94248" lon="-13.80047">
        <ele>81</ele>
        <time>2021-07-04 10:04:49</time>
      </trkpt>
      <trkpt lat="28.94245" lon="-13.80055">
        <ele>81</ele>
        <time>2021-07-04 10:04:50</time>
      </trkpt>
      <trkpt lat="28.94242" lon="-13.80062">
        <ele>81</ele>
        <time>2021-07-04 10:04:51</time>
      </trkpt>
      <trkpt lat="28.94239" lon="-13.8007">
        <ele>80.6</ele>
        <time>2021-07-04 10:04:52</time>
      </trkpt>
      <trkpt lat="28.94236" lon="-13.80077">
        <ele>80.6</ele>
        <time>2021-07-04 10:04:53</time>
      </trkpt>
      <trkpt lat="28.94233" lon="-13.80085">
        <ele>80.6</ele>
        <time>2021-07-04 10:04:54</time>
      </trkpt>
      <trkpt lat="28.9423" lon="-13.80092">
        <ele>80.2</ele>
        <time>2021-07-04 10:04:55</time>
      </trkpt>
      <trkpt lat="28.94227" lon="-13.801">
        <ele>80.2</ele>
        <time>2021-07-04 10:04:56</time>
      </trkpt>
      <trkpt lat="28.94224" lon="-13.80107">
        <ele>80</ele>
        <time>2021-07-04 10:04:57</time>
      </trkpt>
      <trkpt lat="28.94221" lon="-13.80115">
        <ele>80</ele>
        <time>2021-07-04 10:04:58</time>
      </trkpt>
      <trkpt lat="28.94218" lon="-13.80123">
        <ele>79.6</ele>
        <time>2021-07-04 10:04:59</time>
      </trkpt>
      <trkpt lat="28.94215" lon="-13.80131">
        <ele>79.4</ele>
        <time>2021-07-04 10:05:00</time>
      </trkpt>
      <trkpt lat="28.94212" lon="-13.80139">
        <ele>79.4</ele>
        <time>2021-07-04 10:05:01</time>
      </trkpt>
      <trkpt lat="28.94209" lon="-13.80148">
        <ele>79</ele>
        <time>2021-07-04 10:05:02</time>
      </trkpt>
      <trkpt lat="28.94206" lon="-13.80155">
        <ele>78.8</ele>
        <time>2021-07-04 10:05:03</time>
      </trkpt>
      <trkpt lat="28.94203" lon="-13.80163">
        <ele>78.6</ele>
        <time>2021-07-04 10:05:04</time>
      </trkpt>
      <trkpt lat="28.942" lon="-13.80171">
        <ele>78.6</ele>
        <time>2021-07-04 10:05:05</time>
      </trkpt>
      <trkpt lat="28.94197" lon="-13.80179">
        <ele>78.4</ele>
        <time>2021-07-04 10:05:06</time>
      </trkpt>
      <trkpt lat="28.94194" lon="-13.80187">
        <ele>78.4</ele>
        <time>2021-07-04 10:05:07</time>
      </trkpt>
      <trkpt lat="28.9419" lon="-13.80195">
        <ele>78</ele>
        <time>2021-07-04 10:05:08</time>
      </trkpt>
      <trkpt lat="28.94188" lon="-13.80203">
        <ele>78</ele>
        <time>2021-07-04 10:05:09</time>
      </trkpt>
      <trkpt lat="28.94185" lon="-13.80211">
        <ele>77.6</ele>
        <time>2021-07-04 10:05:10</time>
      </trkpt>
      <trkpt lat="28.94182" lon="-13.80219">
        <ele>77.4</ele>
        <time>2021-07-04 10:05:11</time>
      </trkpt>
      <trkpt lat="28.94179" lon="-13.80227">
        <ele>77.2</ele>
        <time>2021-07-04 10:05:12</time>
      </trkpt>
      <trkpt lat="28.94176" lon="-13.80234">
        <ele>77</ele>
        <time>2021-07-04 10:05:13</time>
      </trkpt>
      <trkpt lat="28.94173" lon="-13.80243">
        <ele>76.6</ele>
        <time>2021-07-04 10:05:14</time>
      </trkpt>
      <trkpt lat="28.9417" lon="-13.8025">
        <ele>76.4</ele>
        <time>2021-07-04 10:05:15</time>
      </trkpt>
      <trkpt lat="28.94167" lon="-13.80258">
        <ele>76.4</ele>
        <time>2021-07-04 10:05:16</time>
      </trkpt>
      <trkpt lat="28.94164" lon="-13.80266">
        <ele>76.2</ele>
        <time>2021-07-04 10:05:17</time>
      </trkpt>
      <trkpt lat="28.94161" lon="-13.80273">
        <ele>76.2</ele>
        <time>2021-07-04 10:05:18</time>
      </trkpt>
      <trkpt lat="28.94158" lon="-13.80281">
        <ele>76</ele>
        <time>2021-07-04 10:05:19</time>
      </trkpt>
      <trkpt lat="28.94155" lon="-13.80288">
        <ele>76</ele>
        <time>2021-07-04 10:05:20</time>
      </trkpt>
      <trkpt lat="28.94152" lon="-13.80296">
        <ele>75.6</ele>
        <time>2021-07-04 10:05:21</time>
      </trkpt>
      <trkpt lat="28.94149" lon="-13.80304">
        <ele>75.6</ele>
        <time>2021-07-04 10:05:22</time>
      </trkpt>
      <trkpt lat="28.94146" lon="-13.80311">
        <ele>75.2</ele>
        <time>2021-07-04 10:05:23</time>
      </trkpt>
      <trkpt lat="28.94143" lon="-13.80319">
        <ele>75.2</ele>
        <time>2021-07-04 10:05:24</time>
      </trkpt>
      <trkpt lat="28.9414" lon="-13.80327">
        <ele>75</ele>
        <time>2021-07-04 10:05:25</time>
      </trkpt>
      <trkpt lat="28.94136" lon="-13.80336">
        <ele>75</ele>
        <time>2021-07-04 10:05:26</time>
      </trkpt>
      <trkpt lat="28.94133" lon="-13.80344">
        <ele>74.6</ele>
        <time>2021-07-04 10:05:27</time>
      </trkpt>
      <trkpt lat="28.9413" lon="-13.80352">
        <ele>74.4</ele>
        <time>2021-07-04 10:05:28</time>
      </trkpt>
      <trkpt lat="28.94126" lon="-13.80361">
        <ele>74.2</ele>
        <time>2021-07-04 10:05:29</time>
      </trkpt>
      <trkpt lat="28.94123" lon="-13.8037">
        <ele>73.8</ele>
        <time>2021-07-04 10:05:30</time>
      </trkpt>
      <trkpt lat="28.94119" lon="-13.80378">
        <ele>73.8</ele>
        <time>2021-07-04 10:05:31</time>
      </trkpt>
      <trkpt lat="28.94116" lon="-13.80387">
        <ele>73.6</ele>
        <time>2021-07-04 10:05:32</time>
      </trkpt>
      <trkpt lat="28.94113" lon="-13.80396">
        <ele>73.6</ele>
        <time>2021-07-04 10:05:33</time>
      </trkpt>
      <trkpt lat="28.94109" lon="-13.80406">
        <ele>73.2</ele>
        <time>2021-07-04 10:05:34</time>
      </trkpt>
      <trkpt lat="28.94106" lon="-13.80415">
        <ele>73.2</ele>
        <time>2021-07-04 10:05:35</time>
      </trkpt>
      <trkpt lat="28.94102" lon="-13.80424">
        <ele>73</ele>
        <time>2021-07-04 10:05:36</time>
      </trkpt>
      <trkpt lat="28.94099" lon="-13.80432">
        <ele>73</ele>
        <time>2021-07-04 10:05:37</time>
      </trkpt>
      <trkpt lat="28.94095" lon="-13.80441">
        <ele>72.6</ele>
        <time>2021-07-04 10:05:38</time>
      </trkpt>
      <trkpt lat="28.94092" lon="-13.8045">
        <ele>72.6</ele>
        <time>2021-07-04 10:05:39</time>
      </trkpt>
      <trkpt lat="28.94088" lon="-13.80459">
        <ele>72.4</ele>
        <time>2021-07-04 10:05:40</time>
      </trkpt>
      <trkpt lat="28.94085" lon="-13.80468">
        <ele>72.4</ele>
        <time>2021-07-04 10:05:41</time>
      </trkpt>
      <trkpt lat="28.94082" lon="-13.80477">
        <ele>72</ele>
        <time>2021-07-04 10:05:42</time>
      </trkpt>
      <trkpt lat="28.94078" lon="-13.80486">
        <ele>72</ele>
        <time>2021-07-04 10:05:43</time>
      </trkpt>
      <trkpt lat="28.94074" lon="-13.80494">
        <ele>71.8</ele>
        <time>2021-07-04 10:05:44</time>
      </trkpt>
      <trkpt lat="28.94071" lon="-13.80503">
        <ele>71.8</ele>
        <time>2021-07-04 10:05:45</time>
      </trkpt>
      <trkpt lat="28.94067" lon="-13.80512">
        <ele>71.8</ele>
        <time>2021-07-04 10:05:46</time>
      </trkpt>
      <trkpt lat="28.94064" lon="-13.8052">
        <ele>71.8</ele>
        <time>2021-07-04 10:05:47</time>
      </trkpt>
      <trkpt lat="28.94061" lon="-13.80529">
        <ele>71.6</ele>
        <time>2021-07-04 10:05:48</time>
      </trkpt>
      <trkpt lat="28.94058" lon="-13.80537">
        <ele>71.6</ele>
        <time>2021-07-04 10:05:49</time>
      </trkpt>
      <trkpt lat="28.94055" lon="-13.80546">
        <ele>71.6</ele>
        <time>2021-07-04 10:05:50</time>
      </trkpt>
      <trkpt lat="28.94051" lon="-13.80554">
        <ele>71.4</ele>
        <time>2021-07-04 10:05:51</time>
      </trkpt>
      <trkpt lat="28.94048" lon="-13.80563">
        <ele>71.4</ele>
        <time>2021-07-04 10:05:52</time>
      </trkpt>
      <trkpt lat="28.94044" lon="-13.80572">
        <ele>71</ele>
        <time>2021-07-04 10:05:53</time>
      </trkpt>
      <trkpt lat="28.94041" lon="-13.8058">
        <ele>71</ele>
        <time>2021-07-04 10:05:54</time>
      </trkpt>
      <trkpt lat="28.94037" lon="-13.80589">
        <ele>70.8</ele>
        <time>2021-07-04 10:05:55</time>
      </trkpt>
      <trkpt lat="28.94034" lon="-13.80598">
        <ele>70.8</ele>
        <time>2021-07-04 10:05:56</time>
      </trkpt>
      <trkpt lat="28.9403" lon="-13.80607">
        <ele>70.4</ele>
        <time>2021-07-04 10:05:57</time>
      </trkpt>
      <trkpt lat="28.94027" lon="-13.80615">
        <ele>70.2</ele>
        <time>2021-07-04 10:05:58</time>
      </trkpt>
      <trkpt lat="28.94023" lon="-13.80624">
        <ele>70.2</ele>
        <time>2021-07-04 10:05:59</time>
      </trkpt>
      <trkpt lat="28.9402" lon="-13.80633">
        <ele>69.8</ele>
        <time>2021-07-04 10:06:00</time>
      </trkpt>
      <trkpt lat="28.94017" lon="-13.80642">
        <ele>69.6</ele>
        <time>2021-07-04 10:06:01</time>
      </trkpt>
      <trkpt lat="28.94013" lon="-13.80651">
        <ele>69.4</ele>
        <time>2021-07-04 10:06:02</time>
      </trkpt>
      <trkpt lat="28.94009" lon="-13.8066">
        <ele>69.4</ele>
        <time>2021-07-04 10:06:03</time>
      </trkpt>
      <trkpt lat="28.94006" lon="-13.80669">
        <ele>69</ele>
        <time>2021-07-04 10:06:04</time>
      </trkpt>
      <trkpt lat="28.94002" lon="-13.80678">
        <ele>69</ele>
        <time>2021-07-04 10:06:05</time>
      </trkpt>
      <trkpt lat="28.93999" lon="-13.80687">
        <ele>68.8</ele>
        <time>2021-07-04 10:06:06</time>
      </trkpt>
      <trkpt lat="28.93996" lon="-13.80696">
        <ele>68.8</ele>
        <time>2021-07-04 10:06:07</time>
      </trkpt>
      <trkpt lat="28.93992" lon="-13.80705">
        <ele>68.8</ele>
        <time>2021-07-04 10:06:08</time>
      </trkpt>
      <trkpt lat="28.93989" lon="-13.80713">
        <ele>68.6</ele>
        <time>2021-07-04 10:06:09</time>
      </trkpt>
      <trkpt lat="28.93986" lon="-13.80722">
        <ele>68.6</ele>
        <time>2021-07-04 10:06:10</time>
      </trkpt>
      <trkpt lat="28.93983" lon="-13.8073">
        <ele>68.4</ele>
        <time>2021-07-04 10:06:11</time>
      </trkpt>
      <trkpt lat="28.93979" lon="-13.80739">
        <ele>68.4</ele>
        <time>2021-07-04 10:06:12</time>
      </trkpt>
      <trkpt lat="28.93976" lon="-13.80747">
        <ele>68.2</ele>
        <time>2021-07-04 10:06:13</time>
      </trkpt>
      <trkpt lat="28.93972" lon="-13.80756">
        <ele>68.2</ele>
        <time>2021-07-04 10:06:14</time>
      </trkpt>
      <trkpt lat="28.93969" lon="-13.80764">
        <ele>67.8</ele>
        <time>2021-07-04 10:06:15</time>
      </trkpt>
      <trkpt lat="28.93966" lon="-13.80772">
        <ele>67.8</ele>
        <time>2021-07-04 10:06:16</time>
      </trkpt>
      <trkpt lat="28.93962" lon="-13.80781">
        <ele>67.4</ele>
        <time>2021-07-04 10:06:17</time>
      </trkpt>
      <trkpt lat="28.93959" lon="-13.80789">
        <ele>67.4</ele>
        <time>2021-07-04 10:06:18</time>
      </trkpt>
      <trkpt lat="28.93956" lon="-13.80798">
        <ele>67.2</ele>
        <time>2021-07-04 10:06:19</time>
      </trkpt>
      <trkpt lat="28.93952" lon="-13.80807">
        <ele>67.2</ele>
        <time>2021-07-04 10:06:20</time>
      </trkpt>
      <trkpt lat="28.93949" lon="-13.80815">
        <ele>66.8</ele>
        <time>2021-07-04 10:06:21</time>
      </trkpt>
      <trkpt lat="28.93946" lon="-13.80824">
        <ele>66.8</ele>
        <time>2021-07-04 10:06:22</time>
      </trkpt>
      <trkpt lat="28.93942" lon="-13.80833">
        <ele>66.8</ele>
        <time>2021-07-04 10:06:23</time>
      </trkpt>
      <trkpt lat="28.93938" lon="-13.80841">
        <ele>66.6</ele>
        <time>2021-07-04 10:06:24</time>
      </trkpt>
      <trkpt lat="28.93935" lon="-13.8085">
        <ele>66.6</ele>
        <time>2021-07-04 10:06:25</time>
      </trkpt>
      <trkpt lat="28.93931" lon="-13.80859">
        <ele>66.6</ele>
        <time>2021-07-04 10:06:26</time>
      </trkpt>
      <trkpt lat="28.93928" lon="-13.80868">
        <ele>66.4</ele>
        <time>2021-07-04 10:06:27</time>
      </trkpt>
      <trkpt lat="28.93925" lon="-13.80877">
        <ele>66.4</ele>
        <time>2021-07-04 10:06:28</time>
      </trkpt>
      <trkpt lat="28.93922" lon="-13.80886">
        <ele>66.4</ele>
        <time>2021-07-04 10:06:29</time>
      </trkpt>
      <trkpt lat="28.93918" lon="-13.80894">
        <ele>66.4</ele>
        <time>2021-07-04 10:06:30</time>
      </trkpt>
      <trkpt lat="28.93915" lon="-13.80903">
        <ele>66.4</ele>
        <time>2021-07-04 10:06:31</time>
      </trkpt>
      <trkpt lat="28.93911" lon="-13.80911">
        <ele>66.4</ele>
        <time>2021-07-04 10:06:32</time>
      </trkpt>
      <trkpt lat="28.93908" lon="-13.8092">
        <ele>66.4</ele>
        <time>2021-07-04 10:06:33</time>
      </trkpt>
      <trkpt lat="28.93904" lon="-13.80928">
        <ele>66.4</ele>
        <time>2021-07-04 10:06:34</time>
      </trkpt>
      <trkpt lat="28.93901" lon="-13.80937">
        <ele>66.4</ele>
        <time>2021-07-04 10:06:35</time>
      </trkpt>
      <trkpt lat="28.93897" lon="-13.80946">
        <ele>66.2</ele>
        <time>2021-07-04 10:06:36</time>
      </trkpt>
      <trkpt lat="28.93893" lon="-13.80955">
        <ele>66.2</ele>
        <time>2021-07-04 10:06:37</time>
      </trkpt>
      <trkpt lat="28.93889" lon="-13.80963">
        <ele>66.2</ele>
        <time>2021-07-04 10:06:38</time>
      </trkpt>
      <trkpt lat="28.93886" lon="-13.80972">
        <ele>65.8</ele>
        <time>2021-07-04 10:06:39</time>
      </trkpt>
      <trkpt lat="28.93882" lon="-13.80981">
        <ele>65.6</ele>
        <time>2021-07-04 10:06:40</time>
      </trkpt>
      <trkpt lat="28.93878" lon="-13.8099">
        <ele>65.6</ele>
        <time>2021-07-04 10:06:41</time>
      </trkpt>
      <trkpt lat="28.93873" lon="-13.80998">
        <ele>65.4</ele>
        <time>2021-07-04 10:06:42</time>
      </trkpt>
      <trkpt lat="28.9387" lon="-13.81007">
        <ele>65.2</ele>
        <time>2021-07-04 10:06:43</time>
      </trkpt>
      <trkpt lat="28.93866" lon="-13.81016">
        <ele>65.2</ele>
        <time>2021-07-04 10:06:44</time>
      </trkpt>
      <trkpt lat="28.93861" lon="-13.81025">
        <ele>64.8</ele>
        <time>2021-07-04 10:06:45</time>
      </trkpt>
      <trkpt lat="28.93857" lon="-13.81033">
        <ele>64.8</ele>
        <time>2021-07-04 10:06:46</time>
      </trkpt>
      <trkpt lat="28.93853" lon="-13.81042">
        <ele>64.6</ele>
        <time>2021-07-04 10:06:47</time>
      </trkpt>
      <trkpt lat="28.93848" lon="-13.81051">
        <ele>64.4</ele>
        <time>2021-07-04 10:06:48</time>
      </trkpt>
      <trkpt lat="28.93844" lon="-13.8106">
        <ele>64.2</ele>
        <time>2021-07-04 10:06:49</time>
      </trkpt>
      <trkpt lat="28.93839" lon="-13.81069">
        <ele>63.8</ele>
        <time>2021-07-04 10:06:50</time>
      </trkpt>
      <trkpt lat="28.93834" lon="-13.81077">
        <ele>63.6</ele>
        <time>2021-07-04 10:06:51</time>
      </trkpt>
      <trkpt lat="28.9383" lon="-13.81086">
        <ele>63.4</ele>
        <time>2021-07-04 10:06:52</time>
      </trkpt>
      <trkpt lat="28.93825" lon="-13.81095">
        <ele>63.2</ele>
        <time>2021-07-04 10:06:53</time>
      </trkpt>
      <trkpt lat="28.9382" lon="-13.81104">
        <ele>63</ele>
        <time>2021-07-04 10:06:54</time>
      </trkpt>
      <trkpt lat="28.93815" lon="-13.81112">
        <ele>63</ele>
        <time>2021-07-04 10:06:55</time>
      </trkpt>
      <trkpt lat="28.9381" lon="-13.81121">
        <ele>62.6</ele>
        <time>2021-07-04 10:06:56</time>
      </trkpt>
      <trkpt lat="28.93805" lon="-13.81129">
        <ele>62.6</ele>
        <time>2021-07-04 10:06:57</time>
      </trkpt>
      <trkpt lat="28.938" lon="-13.81138">
        <ele>62.2</ele>
        <time>2021-07-04 10:06:58</time>
      </trkpt>
      <trkpt lat="28.93796" lon="-13.81146">
        <ele>62</ele>
        <time>2021-07-04 10:06:59</time>
      </trkpt>
      <trkpt lat="28.93791" lon="-13.81155">
        <ele>61.8</ele>
        <time>2021-07-04 10:07:00</time>
      </trkpt>
      <trkpt lat="28.93786" lon="-13.81163">
        <ele>61.4</ele>
        <time>2021-07-04 10:07:01</time>
      </trkpt>
      <trkpt lat="28.93781" lon="-13.81172">
        <ele>61</ele>
        <time>2021-07-04 10:07:02</time>
      </trkpt>
      <trkpt lat="28.93776" lon="-13.8118">
        <ele>60.6</ele>
        <time>2021-07-04 10:07:03</time>
      </trkpt>
      <trkpt lat="28.93771" lon="-13.81189">
        <ele>60.4</ele>
        <time>2021-07-04 10:07:04</time>
      </trkpt>
      <trkpt lat="28.93766" lon="-13.81197">
        <ele>60.2</ele>
        <time>2021-07-04 10:07:05</time>
      </trkpt>
      <trkpt lat="28.93761" lon="-13.81205">
        <ele>60.2</ele>
        <time>2021-07-04 10:07:06</time>
      </trkpt>
      <trkpt lat="28.93756" lon="-13.81213">
        <ele>60</ele>
        <time>2021-07-04 10:07:07</time>
      </trkpt>
      <trkpt lat="28.93751" lon="-13.81221">
        <ele>60</ele>
        <time>2021-07-04 10:07:08</time>
      </trkpt>
      <trkpt lat="28.93746" lon="-13.81229">
        <ele>60</ele>
        <time>2021-07-04 10:07:09</time>
      </trkpt>
      <trkpt lat="28.93741" lon="-13.81237">
        <ele>59.8</ele>
        <time>2021-07-04 10:07:10</time>
      </trkpt>
      <trkpt lat="28.93736" lon="-13.81245">
        <ele>59.8</ele>
        <time>2021-07-04 10:07:11</time>
      </trkpt>
      <trkpt lat="28.93732" lon="-13.81253">
        <ele>59.8</ele>
        <time>2021-07-04 10:07:12</time>
      </trkpt>
      <trkpt lat="28.93727" lon="-13.81261">
        <ele>59.8</ele>
        <time>2021-07-04 10:07:13</time>
      </trkpt>
      <trkpt lat="28.93723" lon="-13.81269">
        <ele>59.8</ele>
        <time>2021-07-04 10:07:14</time>
      </trkpt>
      <trkpt lat="28.93719" lon="-13.81277">
        <ele>59.4</ele>
        <time>2021-07-04 10:07:15</time>
      </trkpt>
      <trkpt lat="28.93715" lon="-13.81284">
        <ele>59.4</ele>
        <time>2021-07-04 10:07:16</time>
      </trkpt>
      <trkpt lat="28.93711" lon="-13.81292">
        <ele>59.4</ele>
        <time>2021-07-04 10:07:17</time>
      </trkpt>
      <trkpt lat="28.93707" lon="-13.81299">
        <ele>59.4</ele>
        <time>2021-07-04 10:07:18</time>
      </trkpt>
      <trkpt lat="28.93703" lon="-13.81306">
        <ele>59.4</ele>
        <time>2021-07-04 10:07:19</time>
      </trkpt>
      <trkpt lat="28.93699" lon="-13.81314">
        <ele>59.4</ele>
        <time>2021-07-04 10:07:20</time>
      </trkpt>
      <trkpt lat="28.93695" lon="-13.81321">
        <ele>59.4</ele>
        <time>2021-07-04 10:07:21</time>
      </trkpt>
      <trkpt lat="28.93692" lon="-13.81329">
        <ele>59.4</ele>
        <time>2021-07-04 10:07:22</time>
      </trkpt>
      <trkpt lat="28.93688" lon="-13.81336">
        <ele>59.4</ele>
        <time>2021-07-04 10:07:23</time>
      </trkpt>
      <trkpt lat="28.93684" lon="-13.81343">
        <ele>59.4</ele>
        <time>2021-07-04 10:07:24</time>
      </trkpt>
      <trkpt lat="28.93681" lon="-13.81351">
        <ele>59.2</ele>
        <time>2021-07-04 10:07:25</time>
      </trkpt>
      <trkpt lat="28.93678" lon="-13.8136">
        <ele>59.2</ele>
        <time>2021-07-04 10:07:26</time>
      </trkpt>
      <trkpt lat="28.93676" lon="-13.81369">
        <ele>59.2</ele>
        <time>2021-07-04 10:07:27</time>
      </trkpt>
      <trkpt lat="28.93675" lon="-13.81378">
        <ele>59</ele>
        <time>2021-07-04 10:07:28</time>
      </trkpt>
      <trkpt lat="28.93674" lon="-13.81387">
        <ele>58.6</ele>
        <time>2021-07-04 10:07:29</time>
      </trkpt>
      <trkpt lat="28.93674" lon="-13.81396">
        <ele>58.4</ele>
        <time>2021-07-04 10:07:30</time>
      </trkpt>
      <trkpt lat="28.93675" lon="-13.81404">
        <ele>58</ele>
        <time>2021-07-04 10:07:31</time>
      </trkpt>
      <trkpt lat="28.93676" lon="-13.81413">
        <ele>57.6</ele>
        <time>2021-07-04 10:07:32</time>
      </trkpt>
      <trkpt lat="28.93679" lon="-13.81421">
        <ele>57</ele>
        <time>2021-07-04 10:07:33</time>
      </trkpt>
      <trkpt lat="28.93681" lon="-13.81428">
        <ele>56.6</ele>
        <time>2021-07-04 10:07:34</time>
      </trkpt>
      <trkpt lat="28.93685" lon="-13.81436">
        <ele>56</ele>
        <time>2021-07-04 10:07:35</time>
      </trkpt>
      <trkpt lat="28.93689" lon="-13.81443">
        <ele>55.2</ele>
        <time>2021-07-04 10:07:36</time>
      </trkpt>
      <trkpt lat="28.93692" lon="-13.81449">
        <ele>54.6</ele>
        <time>2021-07-04 10:07:37</time>
      </trkpt>
      <trkpt lat="28.93696" lon="-13.81456">
        <ele>54.2</ele>
        <time>2021-07-04 10:07:38</time>
      </trkpt>
      <trkpt lat="28.937" lon="-13.81462">
        <ele>53.6</ele>
        <time>2021-07-04 10:07:39</time>
      </trkpt>
      <trkpt lat="28.93704" lon="-13.81468">
        <ele>53</ele>
        <time>2021-07-04 10:07:40</time>
      </trkpt>
      <trkpt lat="28.93709" lon="-13.81473">
        <ele>52.6</ele>
        <time>2021-07-04 10:07:41</time>
      </trkpt>
      <trkpt lat="28.93714" lon="-13.81479">
        <ele>52</ele>
        <time>2021-07-04 10:07:42</time>
      </trkpt>
      <trkpt lat="28.93719" lon="-13.81483">
        <ele>51.6</ele>
        <time>2021-07-04 10:07:43</time>
      </trkpt>
      <trkpt lat="28.93724" lon="-13.81487">
        <ele>51</ele>
        <time>2021-07-04 10:07:44</time>
      </trkpt>
      <trkpt lat="28.93729" lon="-13.8149">
        <ele>50.6</ele>
        <time>2021-07-04 10:07:45</time>
      </trkpt>
      <trkpt lat="28.93735" lon="-13.81494">
        <ele>50.2</ele>
        <time>2021-07-04 10:07:46</time>
      </trkpt>
      <trkpt lat="28.93741" lon="-13.81497">
        <ele>49.8</ele>
        <time>2021-07-04 10:07:47</time>
      </trkpt>
      <trkpt lat="28.93747" lon="-13.81501">
        <ele>49.4</ele>
        <time>2021-07-04 10:07:48</time>
      </trkpt>
      <trkpt lat="28.93752" lon="-13.81504">
        <ele>49</ele>
        <time>2021-07-04 10:07:49</time>
      </trkpt>
      <trkpt lat="28.93757" lon="-13.81507">
        <ele>48.6</ele>
        <time>2021-07-04 10:07:50</time>
      </trkpt>
      <trkpt lat="28.93763" lon="-13.8151">
        <ele>48.2</ele>
        <time>2021-07-04 10:07:51</time>
      </trkpt>
      <trkpt lat="28.93768" lon="-13.81513">
        <ele>48</ele>
        <time>2021-07-04 10:07:52</time>
      </trkpt>
      <trkpt lat="28.93774" lon="-13.81516">
        <ele>47.6</ele>
        <time>2021-07-04 10:07:53</time>
      </trkpt>
      <trkpt lat="28.93779" lon="-13.81517">
        <ele>47.4</ele>
        <time>2021-07-04 10:07:54</time>
      </trkpt>
      <trkpt lat="28.93785" lon="-13.81517">
        <ele>47.2</ele>
        <time>2021-07-04 10:07:55</time>
      </trkpt>
      <trkpt lat="28.9379" lon="-13.81516">
        <ele>47.2</ele>
        <time>2021-07-04 10:07:56</time>
      </trkpt>
      <trkpt lat="28.93796" lon="-13.81516">
        <ele>47.2</ele>
        <time>2021-07-04 10:07:57</time>
      </trkpt>
      <trkpt lat="28.93802" lon="-13.81516">
        <ele>47.2</ele>
        <time>2021-07-04 10:07:58</time>
      </trkpt>
      <trkpt lat="28.93807" lon="-13.81518">
        <ele>47</ele>
        <time>2021-07-04 10:07:59</time>
      </trkpt>
      <trkpt lat="28.93813" lon="-13.8152">
        <ele>47</ele>
        <time>2021-07-04 10:08:00</time>
      </trkpt>
      <trkpt lat="28.93817" lon="-13.81525">
        <ele>47</ele>
        <time>2021-07-04 10:08:01</time>
      </trkpt>
      <trkpt lat="28.9382" lon="-13.8153">
        <ele>47</ele>
        <time>2021-07-04 10:08:02</time>
      </trkpt>
      <trkpt lat="28.93822" lon="-13.81537">
        <ele>46.6</ele>
        <time>2021-07-04 10:08:03</time>
      </trkpt>
      <trkpt lat="28.93821" lon="-13.81544">
        <ele>46.6</ele>
        <time>2021-07-04 10:08:04</time>
      </trkpt>
      <trkpt lat="28.93819" lon="-13.8155">
        <ele>46.4</ele>
        <time>2021-07-04 10:08:05</time>
      </trkpt>
      <trkpt lat="28.93814" lon="-13.81556">
        <ele>46.2</ele>
        <time>2021-07-04 10:08:06</time>
      </trkpt>
      <trkpt lat="28.93809" lon="-13.81559">
        <ele>45.8</ele>
        <time>2021-07-04 10:08:07</time>
      </trkpt>
      <trkpt lat="28.93804" lon="-13.81562">
        <ele>45.6</ele>
        <time>2021-07-04 10:08:08</time>
      </trkpt>
      <trkpt lat="28.93798" lon="-13.81565">
        <ele>45.2</ele>
        <time>2021-07-04 10:08:09</time>
      </trkpt>
      <trkpt lat="28.93792" lon="-13.81568">
        <ele>45</ele>
        <time>2021-07-04 10:08:10</time>
      </trkpt>
      <trkpt lat="28.93787" lon="-13.81572">
        <ele>44.6</ele>
        <time>2021-07-04 10:08:11</time>
      </trkpt>
      <trkpt lat="28.93783" lon="-13.81577">
        <ele>44.6</ele>
        <time>2021-07-04 10:08:12</time>
      </trkpt>
      <trkpt lat="28.93778" lon="-13.81582">
        <ele>44.4</ele>
        <time>2021-07-04 10:08:13</time>
      </trkpt>
      <trkpt lat="28.93775" lon="-13.81588">
        <ele>44.4</ele>
        <time>2021-07-04 10:08:14</time>
      </trkpt>
      <trkpt lat="28.93771" lon="-13.81595">
        <ele>44.4</ele>
        <time>2021-07-04 10:08:15</time>
      </trkpt>
      <trkpt lat="28.93768" lon="-13.81601">
        <ele>44.4</ele>
        <time>2021-07-04 10:08:16</time>
      </trkpt>
      <trkpt lat="28.93765" lon="-13.81608">
        <ele>44.4</ele>
        <time>2021-07-04 10:08:17</time>
      </trkpt>
      <trkpt lat="28.93762" lon="-13.81615">
        <ele>44.4</ele>
        <time>2021-07-04 10:08:18</time>
      </trkpt>
      <trkpt lat="28.93758" lon="-13.81621">
        <ele>44.6</ele>
        <time>2021-07-04 10:08:19</time>
      </trkpt>
      <trkpt lat="28.93755" lon="-13.81628">
        <ele>44.6</ele>
        <time>2021-07-04 10:08:20</time>
      </trkpt>
      <trkpt lat="28.93751" lon="-13.81634">
        <ele>44.6</ele>
        <time>2021-07-04 10:08:21</time>
      </trkpt>
      <trkpt lat="28.93748" lon="-13.8164">
        <ele>45</ele>
        <time>2021-07-04 10:08:22</time>
      </trkpt>
      <trkpt lat="28.93744" lon="-13.81647">
        <ele>45</ele>
        <time>2021-07-04 10:08:23</time>
      </trkpt>
      <trkpt lat="28.9374" lon="-13.81653">
        <ele>45</ele>
        <time>2021-07-04 10:08:24</time>
      </trkpt>
      <trkpt lat="28.93735" lon="-13.81658">
        <ele>45</ele>
        <time>2021-07-04 10:08:25</time>
      </trkpt>
      <trkpt lat="28.9373" lon="-13.81664">
        <ele>45</ele>
        <time>2021-07-04 10:08:26</time>
      </trkpt>
      <trkpt lat="28.93725" lon="-13.8167">
        <ele>45</ele>
        <time>2021-07-04 10:08:27</time>
      </trkpt>
      <trkpt lat="28.93719" lon="-13.81676">
        <ele>44.6</ele>
        <time>2021-07-04 10:08:28</time>
      </trkpt>
      <trkpt lat="28.93713" lon="-13.81682">
        <ele>44.6</ele>
        <time>2021-07-04 10:08:29</time>
      </trkpt>
      <trkpt lat="28.93706" lon="-13.81687">
        <ele>44.4</ele>
        <time>2021-07-04 10:08:30</time>
      </trkpt>
      <trkpt lat="28.93699" lon="-13.81693">
        <ele>44.4</ele>
        <time>2021-07-04 10:08:31</time>
      </trkpt>
      <trkpt lat="28.93691" lon="-13.81698">
        <ele>44.2</ele>
        <time>2021-07-04 10:08:32</time>
      </trkpt>
      <trkpt lat="28.93683" lon="-13.81703">
        <ele>44.2</ele>
        <time>2021-07-04 10:08:33</time>
      </trkpt>
      <trkpt lat="28.93675" lon="-13.81708">
        <ele>43.8</ele>
        <time>2021-07-04 10:08:34</time>
      </trkpt>
      <trkpt lat="28.93667" lon="-13.81714">
        <ele>43.6</ele>
        <time>2021-07-04 10:08:35</time>
      </trkpt>
      <trkpt lat="28.93659" lon="-13.8172">
        <ele>43.2</ele>
        <time>2021-07-04 10:08:36</time>
      </trkpt>
      <trkpt lat="28.9365" lon="-13.81726">
        <ele>43</ele>
        <time>2021-07-04 10:08:37</time>
      </trkpt>
      <trkpt lat="28.93641" lon="-13.81732">
        <ele>42.6</ele>
        <time>2021-07-04 10:08:38</time>
      </trkpt>
      <trkpt lat="28.93632" lon="-13.81738">
        <ele>42.2</ele>
        <time>2021-07-04 10:08:39</time>
      </trkpt>
      <trkpt lat="28.93623" lon="-13.81745">
        <ele>41.8</ele>
        <time>2021-07-04 10:08:40</time>
      </trkpt>
      <trkpt lat="28.93614" lon="-13.81752">
        <ele>41.4</ele>
        <time>2021-07-04 10:08:41</time>
      </trkpt>
      <trkpt lat="28.93605" lon="-13.81758">
        <ele>40.8</ele>
        <time>2021-07-04 10:08:42</time>
      </trkpt>
      <trkpt lat="28.93595" lon="-13.81764">
        <ele>40.4</ele>
        <time>2021-07-04 10:08:43</time>
      </trkpt>
      <trkpt lat="28.93586" lon="-13.81771">
        <ele>40</ele>
        <time>2021-07-04 10:08:44</time>
      </trkpt>
      <trkpt lat="28.93576" lon="-13.81777">
        <ele>39.6</ele>
        <time>2021-07-04 10:08:45</time>
      </trkpt>
      <trkpt lat="28.93566" lon="-13.81784">
        <ele>39.2</ele>
        <time>2021-07-04 10:08:46</time>
      </trkpt>
      <trkpt lat="28.93557" lon="-13.8179">
        <ele>38.8</ele>
        <time>2021-07-04 10:08:47</time>
      </trkpt>
      <trkpt lat="28.93548" lon="-13.81797">
        <ele>38.4</ele>
        <time>2021-07-04 10:08:48</time>
      </trkpt>
      <trkpt lat="28.93539" lon="-13.81803">
        <ele>38.2</ele>
        <time>2021-07-04 10:08:49</time>
      </trkpt>
      <trkpt lat="28.93531" lon="-13.81809">
        <ele>38</ele>
        <time>2021-07-04 10:08:50</time>
      </trkpt>
      <trkpt lat="28.93522" lon="-13.81814">
        <ele>38</ele>
        <time>2021-07-04 10:08:51</time>
      </trkpt>
      <trkpt lat="28.93515" lon="-13.8182">
        <ele>37.6</ele>
        <time>2021-07-04 10:08:52</time>
      </trkpt>
      <trkpt lat="28.93507" lon="-13.81826">
        <ele>37.6</ele>
        <time>2021-07-04 10:08:53</time>
      </trkpt>
      <trkpt lat="28.93501" lon="-13.81831">
        <ele>37.6</ele>
        <time>2021-07-04 10:08:54</time>
      </trkpt>
      <trkpt lat="28.93494" lon="-13.81836">
        <ele>38</ele>
        <time>2021-07-04 10:08:55</time>
      </trkpt>
      <trkpt lat="28.93488" lon="-13.8184">
        <ele>38.2</ele>
        <time>2021-07-04 10:08:56</time>
      </trkpt>
      <trkpt lat="28.93482" lon="-13.81844">
        <ele>38.4</ele>
        <time>2021-07-04 10:08:57</time>
      </trkpt>
      <trkpt lat="28.93476" lon="-13.81848">
        <ele>38.8</ele>
        <time>2021-07-04 10:08:58</time>
      </trkpt>
      <trkpt lat="28.93471" lon="-13.81852">
        <ele>39.2</ele>
        <time>2021-07-04 10:08:59</time>
      </trkpt>
      <trkpt lat="28.93466" lon="-13.81855">
        <ele>39.6</ele>
        <time>2021-07-04 10:09:00</time>
      </trkpt>
      <trkpt lat="28.93461" lon="-13.81858">
        <ele>40</ele>
        <time>2021-07-04 10:09:01</time>
      </trkpt>
      <trkpt lat="28.93457" lon="-13.81862">
        <ele>40.2</ele>
        <time>2021-07-04 10:09:02</time>
      </trkpt>
      <trkpt lat="28.93453" lon="-13.81865">
        <ele>40.6</ele>
        <time>2021-07-04 10:09:03</time>
      </trkpt>
      <trkpt lat="28.9345" lon="-13.81868">
        <ele>41</ele>
        <time>2021-07-04 10:09:04</time>
      </trkpt>
      <trkpt lat="28.93446" lon="-13.81872">
        <ele>41.2</ele>
        <time>2021-07-04 10:09:05</time>
      </trkpt>
      <trkpt lat="28.93442" lon="-13.81874">
        <ele>41.6</ele>
        <time>2021-07-04 10:09:06</time>
      </trkpt>
      <trkpt lat="28.93439" lon="-13.81877">
        <ele>42</ele>
        <time>2021-07-04 10:09:07</time>
      </trkpt>
      <trkpt lat="28.93436" lon="-13.81881">
        <ele>42.4</ele>
        <time>2021-07-04 10:09:08</time>
      </trkpt>
      <trkpt lat="28.93433" lon="-13.81884">
        <ele>42.6</ele>
        <time>2021-07-04 10:09:09</time>
      </trkpt>
      <trkpt lat="28.93429" lon="-13.81887">
        <ele>43</ele>
        <time>2021-07-04 10:09:10</time>
      </trkpt>
      <trkpt lat="28.93426" lon="-13.81891">
        <ele>43.4</ele>
        <time>2021-07-04 10:09:11</time>
      </trkpt>
      <trkpt lat="28.93423" lon="-13.81894">
        <ele>43.8</ele>
        <time>2021-07-04 10:09:12</time>
      </trkpt>
      <trkpt lat="28.9342" lon="-13.81898">
        <ele>44.2</ele>
        <time>2021-07-04 10:09:13</time>
      </trkpt>
      <trkpt lat="28.93417" lon="-13.81901">
        <ele>44.6</ele>
        <time>2021-07-04 10:09:14</time>
      </trkpt>
      <trkpt lat="28.93415" lon="-13.81905">
        <ele>45.2</ele>
        <time>2021-07-04 10:09:15</time>
      </trkpt>
      <trkpt lat="28.93412" lon="-13.81908">
        <ele>45.6</ele>
        <time>2021-07-04 10:09:16</time>
      </trkpt>
      <trkpt lat="28.9341" lon="-13.81911">
        <ele>46</ele>
        <time>2021-07-04 10:09:17</time>
      </trkpt>
      <trkpt lat="28.93408" lon="-13.81914">
        <ele>46.4</ele>
        <time>2021-07-04 10:09:18</time>
      </trkpt>
      <trkpt lat="28.93406" lon="-13.81917">
        <ele>46.8</ele>
        <time>2021-07-04 10:09:19</time>
      </trkpt>
      <trkpt lat="28.93404" lon="-13.8192">
        <ele>47.2</ele>
        <time>2021-07-04 10:09:20</time>
      </trkpt>
      <trkpt lat="28.93402" lon="-13.81923">
        <ele>47.6</ele>
        <time>2021-07-04 10:09:21</time>
      </trkpt>
      <trkpt lat="28.934" lon="-13.81926">
        <ele>47.8</ele>
        <time>2021-07-04 10:09:22</time>
      </trkpt>
      <trkpt lat="28.93399" lon="-13.81929">
        <ele>48</ele>
        <time>2021-07-04 10:09:23</time>
      </trkpt>
      <trkpt lat="28.93397" lon="-13.81932">
        <ele>48.4</ele>
        <time>2021-07-04 10:09:24</time>
      </trkpt>
      <trkpt lat="28.93395" lon="-13.81935">
        <ele>48.6</ele>
        <time>2021-07-04 10:09:25</time>
      </trkpt>
      <trkpt lat="28.93394" lon="-13.81937">
        <ele>48.6</ele>
        <time>2021-07-04 10:09:26</time>
      </trkpt>
      <trkpt lat="28.93392" lon="-13.8194">
        <ele>48.8</ele>
        <time>2021-07-04 10:09:27</time>
      </trkpt>
      <trkpt lat="28.93391" lon="-13.81942">
        <ele>48.8</ele>
        <time>2021-07-04 10:09:28</time>
      </trkpt>
      <trkpt lat="28.9339" lon="-13.81944">
        <ele>48.8</ele>
        <time>2021-07-04 10:09:29</time>
      </trkpt>
      <trkpt lat="28.93389" lon="-13.81944">
        <ele>49.2</ele>
        <time>2021-07-04 10:09:30</time>
      </trkpt>
      <trkpt lat="28.93389" lon="-13.81944">
        <ele>49.2</ele>
        <time>2021-07-04 10:09:31</time>
      </trkpt>
      <trkpt lat="28.93389" lon="-13.81944">
        <ele>49.4</ele>
        <time>2021-07-04 10:09:32</time>
      </trkpt>
      <trkpt lat="28.93389" lon="-13.81944">
        <ele>49.4</ele>
        <time>2021-07-04 10:09:33</time>
      </trkpt>
      <trkpt lat="28.93389" lon="-13.81945">
        <ele>48.4</ele>
        <time>2021-07-04 10:09:34</time>
      </trkpt>
      <trkpt lat="28.93388" lon="-13.81946">
        <ele>48.4</ele>
        <time>2021-07-04 10:09:35</time>
      </trkpt>
      <trkpt lat="28.93387" lon="-13.81947">
        <ele>48.2</ele>
        <time>2021-07-04 10:09:36</time>
      </trkpt>
      <trkpt lat="28.93386" lon="-13.81949">
        <ele>48.2</ele>
        <time>2021-07-04 10:09:37</time>
      </trkpt>
      <trkpt lat="28.93385" lon="-13.8195">
        <ele>47.8</ele>
        <time>2021-07-04 10:09:38</time>
      </trkpt>
      <trkpt lat="28.93384" lon="-13.81951">
        <ele>47.4</ele>
        <time>2021-07-04 10:09:39</time>
      </trkpt>
      <trkpt lat="28.93382" lon="-13.81954">
        <ele>47.2</ele>
        <time>2021-07-04 10:10:46</time>
      </trkpt>
      <trkpt lat="28.9338" lon="-13.81956">
        <ele>47</ele>
        <time>2021-07-04 10:10:47</time>
      </trkpt>
      <trkpt lat="28.93378" lon="-13.81959">
        <ele>47</ele>
        <time>2021-07-04 10:10:48</time>
      </trkpt>
      <trkpt lat="28.93375" lon="-13.81963">
        <ele>46.6</ele>
        <time>2021-07-04 10:10:49</time>
      </trkpt>
      <trkpt lat="28.93372" lon="-13.81968">
        <ele>46.6</ele>
        <time>2021-07-04 10:10:50</time>
      </trkpt>
      <trkpt lat="28.9337" lon="-13.81972">
        <ele>46.6</ele>
        <time>2021-07-04 10:10:51</time>
      </trkpt>
      <trkpt lat="28.93367" lon="-13.81975">
        <ele>46.6</ele>
        <time>2021-07-04 10:10:52</time>
      </trkpt>
      <trkpt lat="28.93364" lon="-13.81979">
        <ele>46.6</ele>
        <time>2021-07-04 10:10:53</time>
      </trkpt>
      <trkpt lat="28.93362" lon="-13.81983">
        <ele>46.6</ele>
        <time>2021-07-04 10:10:54</time>
      </trkpt>
      <trkpt lat="28.9336" lon="-13.81986">
        <ele>46.6</ele>
        <time>2021-07-04 10:10:55</time>
      </trkpt>
      <trkpt lat="28.93357" lon="-13.81989">
        <ele>46.6</ele>
        <time>2021-07-04 10:10:56</time>
      </trkpt>
      <trkpt lat="28.93354" lon="-13.81993">
        <ele>46.8</ele>
        <time>2021-07-04 10:10:57</time>
      </trkpt>
      <trkpt lat="28.93352" lon="-13.81996">
        <ele>46.8</ele>
        <time>2021-07-04 10:10:58</time>
      </trkpt>
      <trkpt lat="28.93349" lon="-13.81999">
        <ele>46.8</ele>
        <time>2021-07-04 10:10:59</time>
      </trkpt>
      <trkpt lat="28.93347" lon="-13.82002">
        <ele>46.8</ele>
        <time>2021-07-04 10:11:00</time>
      </trkpt>
      <trkpt lat="28.93344" lon="-13.82006">
        <ele>47</ele>
        <time>2021-07-04 10:11:01</time>
      </trkpt>
      <trkpt lat="28.93342" lon="-13.82009">
        <ele>47</ele>
        <time>2021-07-04 10:11:02</time>
      </trkpt>
      <trkpt lat="28.93339" lon="-13.82012">
        <ele>47</ele>
        <time>2021-07-04 10:11:03</time>
      </trkpt>
      <trkpt lat="28.93337" lon="-13.82015">
        <ele>47.4</ele>
        <time>2021-07-04 10:11:04</time>
      </trkpt>
      <trkpt lat="28.93335" lon="-13.82019">
        <ele>47.4</ele>
        <time>2021-07-04 10:11:05</time>
      </trkpt>
      <trkpt lat="28.93332" lon="-13.82022">
        <ele>47.4</ele>
        <time>2021-07-04 10:11:06</time>
      </trkpt>
      <trkpt lat="28.93329" lon="-13.82025">
        <ele>47.4</ele>
        <time>2021-07-04 10:11:07</time>
      </trkpt>
      <trkpt lat="28.93326" lon="-13.82028">
        <ele>47.4</ele>
        <time>2021-07-04 10:11:08</time>
      </trkpt>
      <trkpt lat="28.93323" lon="-13.82031">
        <ele>47.4</ele>
        <time>2021-07-04 10:11:09</time>
      </trkpt>
      <trkpt lat="28.9332" lon="-13.82034">
        <ele>47.2</ele>
        <time>2021-07-04 10:11:10</time>
      </trkpt>
      <trkpt lat="28.93316" lon="-13.82037">
        <ele>47.2</ele>
        <time>2021-07-04 10:11:11</time>
      </trkpt>
      <trkpt lat="28.93313" lon="-13.8204">
        <ele>47.2</ele>
        <time>2021-07-04 10:11:12</time>
      </trkpt>
      <trkpt lat="28.93309" lon="-13.82043">
        <ele>46.8</ele>
        <time>2021-07-04 10:11:13</time>
      </trkpt>
      <trkpt lat="28.93305" lon="-13.82046">
        <ele>46.8</ele>
        <time>2021-07-04 10:11:14</time>
      </trkpt>
      <trkpt lat="28.93301" lon="-13.82049">
        <ele>46.6</ele>
        <time>2021-07-04 10:11:15</time>
      </trkpt>
      <trkpt lat="28.93297" lon="-13.82052">
        <ele>46.4</ele>
        <time>2021-07-04 10:11:16</time>
      </trkpt>
      <trkpt lat="28.93293" lon="-13.82054">
        <ele>46.4</ele>
        <time>2021-07-04 10:11:17</time>
      </trkpt>
      <trkpt lat="28.93289" lon="-13.82057">
        <ele>46.4</ele>
        <time>2021-07-04 10:11:18</time>
      </trkpt>
      <trkpt lat="28.93285" lon="-13.82059">
        <ele>46</ele>
        <time>2021-07-04 10:11:19</time>
      </trkpt>
      <trkpt lat="28.93281" lon="-13.82061">
        <ele>46</ele>
        <time>2021-07-04 10:11:20</time>
      </trkpt>
      <trkpt lat="28.93278" lon="-13.82064">
        <ele>46.2</ele>
        <time>2021-07-04 10:11:21</time>
      </trkpt>
      <trkpt lat="28.93275" lon="-13.82066">
        <ele>46.6</ele>
        <time>2021-07-04 10:11:22</time>
      </trkpt>
      <trkpt lat="28.93272" lon="-13.82068">
        <ele>46.8</ele>
        <time>2021-07-04 10:11:23</time>
      </trkpt>
      <trkpt lat="28.93268" lon="-13.8207">
        <ele>46.8</ele>
        <time>2021-07-04 10:11:24</time>
      </trkpt>
      <trkpt lat="28.93266" lon="-13.82072">
        <ele>47.2</ele>
        <time>2021-07-04 10:11:25</time>
      </trkpt>
      <trkpt lat="28.93263" lon="-13.82073">
        <ele>47.2</ele>
        <time>2021-07-04 10:11:26</time>
      </trkpt>
      <trkpt lat="28.93261" lon="-13.82075">
        <ele>47.4</ele>
        <time>2021-07-04 10:11:27</time>
      </trkpt>
      <trkpt lat="28.93259" lon="-13.82078">
        <ele>47.4</ele>
        <time>2021-07-04 10:11:28</time>
      </trkpt>
      <trkpt lat="28.93259" lon="-13.8208">
        <ele>47.4</ele>
        <time>2021-07-04 10:11:29</time>
      </trkpt>
      <trkpt lat="28.93259" lon="-13.82082">
        <ele>47.4</ele>
        <time>2021-07-04 10:11:30</time>
      </trkpt>
      <trkpt lat="28.9326" lon="-13.82084">
        <ele>47.6</ele>
        <time>2021-07-04 10:11:31</time>
      </trkpt>
      <trkpt lat="28.93261" lon="-13.82085">
        <ele>47.6</ele>
        <time>2021-07-04 10:11:32</time>
      </trkpt>
      <trkpt lat="28.93262" lon="-13.82086">
        <ele>48</ele>
        <time>2021-07-04 10:11:33</time>
      </trkpt>
      <trkpt lat="28.93263" lon="-13.82086">
        <ele>48</ele>
        <time>2021-07-04 10:11:34</time>
      </trkpt>
      <trkpt lat="28.93264" lon="-13.82086">
        <ele>48.2</ele>
        <time>2021-07-04 10:11:35</time>
      </trkpt>
      <trkpt lat="28.93264" lon="-13.82085">
        <ele>48.2</ele>
        <time>2021-07-04 10:11:36</time>
      </trkpt>
      <trkpt lat="28.93264" lon="-13.82085">
        <ele>48.2</ele>
        <time>2021-07-04 10:11:37</time>
      </trkpt>
      <trkpt lat="28.93262" lon="-13.82084">
        <ele>48</ele>
        <time>2021-07-04 10:11:38</time>
      </trkpt>
      <trkpt lat="28.93262" lon="-13.82084">
        <ele>48</ele>
        <time>2021-07-04 10:11:39</time>
      </trkpt>
      <trkpt lat="28.93262" lon="-13.82084">
        <ele>47.8</ele>
        <time>2021-07-04 10:11:40</time>
      </trkpt>
      <trkpt lat="28.93261" lon="-13.82086">
        <ele>48</ele>
        <time>2021-07-04 10:11:41</time>
      </trkpt>
      <trkpt lat="28.93261" lon="-13.82086">
        <ele>48</ele>
        <time>2021-07-04 10:11:42</time>
      </trkpt>
      <trkpt lat="28.93261" lon="-13.82087">
        <ele>48</ele>
        <time>2021-07-04 10:11:43</time>
      </trkpt>
      <trkpt lat="28.93258" lon="-13.82086">
        <ele>47</ele>
        <time>2021-07-04 10:12:49</time>
      </trkpt>
      <trkpt lat="28.93257" lon="-13.82086">
        <ele>47</ele>
        <time>2021-07-04 10:12:50</time>
      </trkpt>
      <trkpt lat="28.93257" lon="-13.82086">
        <ele>47</ele>
        <time>2021-07-04 10:12:51</time>
      </trkpt>
      <trkpt lat="28.93257" lon="-13.82086">
        <ele>47</ele>
        <time>2021-07-04 10:13:17</time>
      </trkpt>
      <trkpt lat="28.93258" lon="-13.82086">
        <ele>47</ele>
        <time>2021-07-04 10:13:18</time>
      </trkpt>
      <trkpt lat="28.93257" lon="-13.82086">
        <ele>47.8</ele>
        <time>2021-07-04 10:13:19</time>
      </trkpt>
      <trkpt lat="28.93256" lon="-13.82086">
        <ele>47.8</ele>
        <time>2021-07-04 10:13:51</time>
      </trkpt>
      <trkpt lat="28.93255" lon="-13.82086">
        <ele>47.8</ele>
        <time>2021-07-04 10:13:52</time>
      </trkpt>
      <trkpt lat="28.93254" lon="-13.82086">
        <ele>47.8</ele>
        <time>2021-07-04 10:13:53</time>
      </trkpt>
      <trkpt lat="28.93252" lon="-13.82087">
        <ele>47.8</ele>
        <time>2021-07-04 10:13:54</time>
      </trkpt>
      <trkpt lat="28.9325" lon="-13.82087">
        <ele>47.6</ele>
        <time>2021-07-04 10:13:55</time>
      </trkpt>
      <trkpt lat="28.93248" lon="-13.82088">
        <ele>47.6</ele>
        <time>2021-07-04 10:14:09</time>
      </trkpt>
      <trkpt lat="28.93245" lon="-13.82088">
        <ele>47.4</ele>
        <time>2021-07-04 10:14:10</time>
      </trkpt>
      <trkpt lat="28.93243" lon="-13.82088">
        <ele>47.4</ele>
        <time>2021-07-04 10:14:11</time>
      </trkpt>
      <trkpt lat="28.9324" lon="-13.82088">
        <ele>47.2</ele>
        <time>2021-07-04 10:14:12</time>
      </trkpt>
      <trkpt lat="28.93237" lon="-13.82088">
        <ele>47.2</ele>
        <time>2021-07-04 10:14:13</time>
      </trkpt>
      <trkpt lat="28.93235" lon="-13.82088">
        <ele>47.2</ele>
        <time>2021-07-04 10:14:14</time>
      </trkpt>
      <trkpt lat="28.93232" lon="-13.8209">
        <ele>47.2</ele>
        <time>2021-07-04 10:14:15</time>
      </trkpt>
      <trkpt lat="28.93229" lon="-13.82092">
        <ele>47.2</ele>
        <time>2021-07-04 10:14:16</time>
      </trkpt>
      <trkpt lat="28.93226" lon="-13.82094">
        <ele>47.2</ele>
        <time>2021-07-04 10:14:17</time>
      </trkpt>
      <trkpt lat="28.93223" lon="-13.82096">
        <ele>47.2</ele>
        <time>2021-07-04 10:14:18</time>
      </trkpt>
      <trkpt lat="28.93219" lon="-13.82099">
        <ele>47.2</ele>
        <time>2021-07-04 10:14:19</time>
      </trkpt>
      <trkpt lat="28.93216" lon="-13.82101">
        <ele>47.4</ele>
        <time>2021-07-04 10:14:20</time>
      </trkpt>
      <trkpt lat="28.93211" lon="-13.82104">
        <ele>47.4</ele>
        <time>2021-07-04 10:14:21</time>
      </trkpt>
      <trkpt lat="28.93207" lon="-13.82106">
        <ele>47.4</ele>
        <time>2021-07-04 10:14:22</time>
      </trkpt>
      <trkpt lat="28.93202" lon="-13.82109">
        <ele>47.4</ele>
        <time>2021-07-04 10:14:23</time>
      </trkpt>
      <trkpt lat="28.93198" lon="-13.82113">
        <ele>47</ele>
        <time>2021-07-04 10:14:24</time>
      </trkpt>
      <trkpt lat="28.93193" lon="-13.82116">
        <ele>47</ele>
        <time>2021-07-04 10:14:25</time>
      </trkpt>
      <trkpt lat="28.93188" lon="-13.82119">
        <ele>46.8</ele>
        <time>2021-07-04 10:14:26</time>
      </trkpt>
      <trkpt lat="28.93182" lon="-13.82122">
        <ele>46.8</ele>
        <time>2021-07-04 10:14:27</time>
      </trkpt>
      <trkpt lat="28.93177" lon="-13.82125">
        <ele>46.6</ele>
        <time>2021-07-04 10:14:28</time>
      </trkpt>
      <trkpt lat="28.93172" lon="-13.82129">
        <ele>46.6</ele>
        <time>2021-07-04 10:14:29</time>
      </trkpt>
      <trkpt lat="28.93168" lon="-13.82131">
        <ele>46.4</ele>
        <time>2021-07-04 10:14:30</time>
      </trkpt>
      <trkpt lat="28.93163" lon="-13.82134">
        <ele>46.4</ele>
        <time>2021-07-04 10:14:31</time>
      </trkpt>
      <trkpt lat="28.9316" lon="-13.82136">
        <ele>46.4</ele>
        <time>2021-07-04 10:14:32</time>
      </trkpt>
      <trkpt lat="28.93157" lon="-13.82138">
        <ele>46.4</ele>
        <time>2021-07-04 10:14:33</time>
      </trkpt>
      <trkpt lat="28.93154" lon="-13.82139">
        <ele>46.2</ele>
        <time>2021-07-04 10:14:34</time>
      </trkpt>
      <trkpt lat="28.93154" lon="-13.8214">
        <ele>46.2</ele>
        <time>2021-07-04 10:14:35</time>
      </trkpt>
      <trkpt lat="28.93153" lon="-13.8214">
        <ele>46.2</ele>
        <time>2021-07-04 10:14:36</time>
      </trkpt>
      <trkpt lat="28.93153" lon="-13.8214">
        <ele>46.2</ele>
        <time>2021-07-04 10:14:37</time>
      </trkpt>
      <trkpt lat="28.93153" lon="-13.8214">
        <ele>45.8</ele>
        <time>2021-07-04 10:14:38</time>
      </trkpt>
      <trkpt lat="28.93151" lon="-13.82141">
        <ele>44.6</ele>
        <time>2021-07-04 10:14:39</time>
      </trkpt>
      <trkpt lat="28.9315" lon="-13.82142">
        <ele>44.6</ele>
        <time>2021-07-04 10:14:40</time>
      </trkpt>
      <trkpt lat="28.93147" lon="-13.82143">
        <ele>44.6</ele>
        <time>2021-07-04 10:14:41</time>
      </trkpt>
      <trkpt lat="28.93144" lon="-13.82145">
        <ele>44.6</ele>
        <time>2021-07-04 10:14:42</time>
      </trkpt>
      <trkpt lat="28.9314" lon="-13.82148">
        <ele>44.6</ele>
        <time>2021-07-04 10:14:43</time>
      </trkpt>
      <trkpt lat="28.93136" lon="-13.8215">
        <ele>44.6</ele>
        <time>2021-07-04 10:14:44</time>
      </trkpt>
      <trkpt lat="28.93131" lon="-13.82153">
        <ele>44.4</ele>
        <time>2021-07-04 10:14:55</time>
      </trkpt>
      <trkpt lat="28.93127" lon="-13.82156">
        <ele>44.4</ele>
        <time>2021-07-04 10:14:56</time>
      </trkpt>
      <trkpt lat="28.93122" lon="-13.82159">
        <ele>44.2</ele>
        <time>2021-07-04 10:14:57</time>
      </trkpt>
      <trkpt lat="28.93116" lon="-13.82162">
        <ele>44.2</ele>
        <time>2021-07-04 10:14:58</time>
      </trkpt>
      <trkpt lat="28.93111" lon="-13.82165">
        <ele>44.2</ele>
        <time>2021-07-04 10:14:59</time>
      </trkpt>
      <trkpt lat="28.93106" lon="-13.82168">
        <ele>43.8</ele>
        <time>2021-07-04 10:15:00</time>
      </trkpt>
      <trkpt lat="28.93101" lon="-13.82171">
        <ele>43.8</ele>
        <time>2021-07-04 10:15:01</time>
      </trkpt>
      <trkpt lat="28.93096" lon="-13.82174">
        <ele>43.8</ele>
        <time>2021-07-04 10:15:02</time>
      </trkpt>
      <trkpt lat="28.93091" lon="-13.82177">
        <ele>43.8</ele>
        <time>2021-07-04 10:15:03</time>
      </trkpt>
      <trkpt lat="28.93086" lon="-13.8218">
        <ele>43.8</ele>
        <time>2021-07-04 10:15:04</time>
      </trkpt>
      <trkpt lat="28.9308" lon="-13.82184">
        <ele>43.8</ele>
        <time>2021-07-04 10:15:05</time>
      </trkpt>
      <trkpt lat="28.93075" lon="-13.82187">
        <ele>43.8</ele>
        <time>2021-07-04 10:15:06</time>
      </trkpt>
      <trkpt lat="28.9307" lon="-13.82191">
        <ele>43.6</ele>
        <time>2021-07-04 10:15:07</time>
      </trkpt>
      <trkpt lat="28.93064" lon="-13.82194">
        <ele>43.6</ele>
        <time>2021-07-04 10:15:08</time>
      </trkpt>
      <trkpt lat="28.93058" lon="-13.82197">
        <ele>43.6</ele>
        <time>2021-07-04 10:15:09</time>
      </trkpt>
      <trkpt lat="28.93052" lon="-13.82201">
        <ele>43.6</ele>
        <time>2021-07-04 10:15:10</time>
      </trkpt>
      <trkpt lat="28.93046" lon="-13.82204">
        <ele>43.6</ele>
        <time>2021-07-04 10:15:11</time>
      </trkpt>
      <trkpt lat="28.9304" lon="-13.82208">
        <ele>43.6</ele>
        <time>2021-07-04 10:15:12</time>
      </trkpt>
      <trkpt lat="28.93033" lon="-13.82212">
        <ele>43.4</ele>
        <time>2021-07-04 10:15:13</time>
      </trkpt>
      <trkpt lat="28.93027" lon="-13.82216">
        <ele>43.4</ele>
        <time>2021-07-04 10:15:14</time>
      </trkpt>
      <trkpt lat="28.9302" lon="-13.8222">
        <ele>43.4</ele>
        <time>2021-07-04 10:15:15</time>
      </trkpt>
      <trkpt lat="28.93013" lon="-13.82224">
        <ele>43.4</ele>
        <time>2021-07-04 10:15:16</time>
      </trkpt>
      <trkpt lat="28.93006" lon="-13.82228">
        <ele>43.2</ele>
        <time>2021-07-04 10:15:17</time>
      </trkpt>
      <trkpt lat="28.92999" lon="-13.82232">
        <ele>43.2</ele>
        <time>2021-07-04 10:15:18</time>
      </trkpt>
      <trkpt lat="28.92992" lon="-13.82236">
        <ele>43</ele>
        <time>2021-07-04 10:15:19</time>
      </trkpt>
      <trkpt lat="28.92985" lon="-13.8224">
        <ele>43</ele>
        <time>2021-07-04 10:15:20</time>
      </trkpt>
      <trkpt lat="28.92977" lon="-13.82245">
        <ele>42.6</ele>
        <time>2021-07-04 10:15:21</time>
      </trkpt>
      <trkpt lat="28.9297" lon="-13.82249">
        <ele>42.6</ele>
        <time>2021-07-04 10:15:22</time>
      </trkpt>
      <trkpt lat="28.92962" lon="-13.82254">
        <ele>42.6</ele>
        <time>2021-07-04 10:15:23</time>
      </trkpt>
      <trkpt lat="28.92955" lon="-13.82259">
        <ele>42.4</ele>
        <time>2021-07-04 10:15:24</time>
      </trkpt>
      <trkpt lat="28.92947" lon="-13.82264">
        <ele>42.4</ele>
        <time>2021-07-04 10:15:25</time>
      </trkpt>
      <trkpt lat="28.9294" lon="-13.82268">
        <ele>42.4</ele>
        <time>2021-07-04 10:15:26</time>
      </trkpt>
      <trkpt lat="28.92932" lon="-13.82274">
        <ele>42.2</ele>
        <time>2021-07-04 10:15:27</time>
      </trkpt>
      <trkpt lat="28.92924" lon="-13.82279">
        <ele>42.2</ele>
        <time>2021-07-04 10:15:28</time>
      </trkpt>
      <trkpt lat="28.92916" lon="-13.82283">
        <ele>42.2</ele>
        <time>2021-07-04 10:15:29</time>
      </trkpt>
      <trkpt lat="28.92909" lon="-13.82288">
        <ele>42.2</ele>
        <time>2021-07-04 10:15:30</time>
      </trkpt>
      <trkpt lat="28.92901" lon="-13.82293">
        <ele>42</ele>
        <time>2021-07-04 10:15:31</time>
      </trkpt>
      <trkpt lat="28.92894" lon="-13.82297">
        <ele>42</ele>
        <time>2021-07-04 10:15:32</time>
      </trkpt>
      <trkpt lat="28.92886" lon="-13.82302">
        <ele>42</ele>
        <time>2021-07-04 10:15:33</time>
      </trkpt>
      <trkpt lat="28.92879" lon="-13.82307">
        <ele>41.6</ele>
        <time>2021-07-04 10:15:34</time>
      </trkpt>
      <trkpt lat="28.92871" lon="-13.82311">
        <ele>41.6</ele>
        <time>2021-07-04 10:15:35</time>
      </trkpt>
      <trkpt lat="28.92863" lon="-13.82316">
        <ele>41.4</ele>
        <time>2021-07-04 10:15:36</time>
      </trkpt>
      <trkpt lat="28.92856" lon="-13.8232">
        <ele>41.4</ele>
        <time>2021-07-04 10:15:37</time>
      </trkpt>
      <trkpt lat="28.92848" lon="-13.82324">
        <ele>41.4</ele>
        <time>2021-07-04 10:15:38</time>
      </trkpt>
      <trkpt lat="28.9284" lon="-13.82329">
        <ele>41.2</ele>
        <time>2021-07-04 10:15:39</time>
      </trkpt>
      <trkpt lat="28.92833" lon="-13.82333">
        <ele>41.2</ele>
        <time>2021-07-04 10:15:40</time>
      </trkpt>
      <trkpt lat="28.92826" lon="-13.82338">
        <ele>41.2</ele>
        <time>2021-07-04 10:15:41</time>
      </trkpt>
      <trkpt lat="28.92819" lon="-13.82342">
        <ele>41.4</ele>
        <time>2021-07-04 10:15:42</time>
      </trkpt>
      <trkpt lat="28.92812" lon="-13.82346">
        <ele>41.6</ele>
        <time>2021-07-04 10:15:43</time>
      </trkpt>
      <trkpt lat="28.92805" lon="-13.82349">
        <ele>42</ele>
        <time>2021-07-04 10:15:44</time>
      </trkpt>
      <trkpt lat="28.92798" lon="-13.82354">
        <ele>42.2</ele>
        <time>2021-07-04 10:15:45</time>
      </trkpt>
      <trkpt lat="28.92792" lon="-13.82357">
        <ele>42.4</ele>
        <time>2021-07-04 10:15:46</time>
      </trkpt>
      <trkpt lat="28.92786" lon="-13.82361">
        <ele>42.6</ele>
        <time>2021-07-04 10:15:47</time>
      </trkpt>
      <trkpt lat="28.92781" lon="-13.82365">
        <ele>43</ele>
        <time>2021-07-04 10:15:48</time>
      </trkpt>
      <trkpt lat="28.92775" lon="-13.82368">
        <ele>43.2</ele>
        <time>2021-07-04 10:15:49</time>
      </trkpt>
      <trkpt lat="28.92769" lon="-13.82372">
        <ele>43.4</ele>
        <time>2021-07-04 10:15:50</time>
      </trkpt>
      <trkpt lat="28.92764" lon="-13.82374">
        <ele>43.8</ele>
        <time>2021-07-04 10:15:51</time>
      </trkpt>
      <trkpt lat="28.92758" lon="-13.82377">
        <ele>44</ele>
        <time>2021-07-04 10:15:52</time>
      </trkpt>
      <trkpt lat="28.92752" lon="-13.8238">
        <ele>44.4</ele>
        <time>2021-07-04 10:15:53</time>
      </trkpt>
      <trkpt lat="28.92747" lon="-13.82382">
        <ele>44.6</ele>
        <time>2021-07-04 10:15:54</time>
      </trkpt>
      <trkpt lat="28.92747" lon="-13.82382">
        <ele>44.8</ele>
        <time>2021-07-04 10:15:55</time>
      </trkpt>
      <trkpt lat="28.92735" lon="-13.82388">
        <ele>44.8</ele>
        <time>2021-07-04 10:15:56</time>
      </trkpt>
      <trkpt lat="28.92729" lon="-13.8239">
        <ele>45.2</ele>
        <time>2021-07-04 10:15:57</time>
      </trkpt>
      <trkpt lat="28.92723" lon="-13.82393">
        <ele>45.2</ele>
        <time>2021-07-04 10:15:58</time>
      </trkpt>
      <trkpt lat="28.92717" lon="-13.82396">
        <ele>45.6</ele>
        <time>2021-07-04 10:15:59</time>
      </trkpt>
      <trkpt lat="28.9271" lon="-13.82399">
        <ele>45.6</ele>
        <time>2021-07-04 10:16:00</time>
      </trkpt>
      <trkpt lat="28.92704" lon="-13.82401">
        <ele>45.6</ele>
        <time>2021-07-04 10:16:01</time>
      </trkpt>
      <trkpt lat="28.92697" lon="-13.82404">
        <ele>45.6</ele>
        <time>2021-07-04 10:16:02</time>
      </trkpt>
      <trkpt lat="28.9269" lon="-13.82407">
        <ele>45.6</ele>
        <time>2021-07-04 10:16:03</time>
      </trkpt>
      <trkpt lat="28.92683" lon="-13.82411">
        <ele>45.6</ele>
        <time>2021-07-04 10:16:04</time>
      </trkpt>
      <trkpt lat="28.92675" lon="-13.82414">
        <ele>45.6</ele>
        <time>2021-07-04 10:16:05</time>
      </trkpt>
      <trkpt lat="28.92667" lon="-13.82417">
        <ele>45.2</ele>
        <time>2021-07-04 10:16:06</time>
      </trkpt>
      <trkpt lat="28.92659" lon="-13.8242">
        <ele>45.2</ele>
        <time>2021-07-04 10:16:07</time>
      </trkpt>
      <trkpt lat="28.92651" lon="-13.82423">
        <ele>45</ele>
        <time>2021-07-04 10:16:08</time>
      </trkpt>
      <trkpt lat="28.92643" lon="-13.82427">
        <ele>45</ele>
        <time>2021-07-04 10:16:09</time>
      </trkpt>
      <trkpt lat="28.92635" lon="-13.8243">
        <ele>44.6</ele>
        <time>2021-07-04 10:16:10</time>
      </trkpt>
      <trkpt lat="28.92627" lon="-13.82434">
        <ele>44.6</ele>
        <time>2021-07-04 10:16:11</time>
      </trkpt>
      <trkpt lat="28.92619" lon="-13.82437">
        <ele>44.2</ele>
        <time>2021-07-04 10:16:12</time>
      </trkpt>
      <trkpt lat="28.9261" lon="-13.82441">
        <ele>44.2</ele>
        <time>2021-07-04 10:16:13</time>
      </trkpt>
      <trkpt lat="28.92602" lon="-13.82445">
        <ele>44</ele>
        <time>2021-07-04 10:16:14</time>
      </trkpt>
      <trkpt lat="28.92593" lon="-13.82448">
        <ele>44</ele>
        <time>2021-07-04 10:16:15</time>
      </trkpt>
      <trkpt lat="28.92584" lon="-13.82452">
        <ele>43.6</ele>
        <time>2021-07-04 10:16:16</time>
      </trkpt>
      <trkpt lat="28.92576" lon="-13.82455">
        <ele>43.6</ele>
        <time>2021-07-04 10:16:17</time>
      </trkpt>
      <trkpt lat="28.92567" lon="-13.82459">
        <ele>43.2</ele>
        <time>2021-07-04 10:16:18</time>
      </trkpt>
      <trkpt lat="28.92558" lon="-13.82463">
        <ele>43.2</ele>
        <time>2021-07-04 10:16:19</time>
      </trkpt>
      <trkpt lat="28.92549" lon="-13.82467">
        <ele>43.2</ele>
        <time>2021-07-04 10:16:20</time>
      </trkpt>
      <trkpt lat="28.92541" lon="-13.8247">
        <ele>43</ele>
        <time>2021-07-04 10:16:21</time>
      </trkpt>
      <trkpt lat="28.92532" lon="-13.82474">
        <ele>43</ele>
        <time>2021-07-04 10:16:22</time>
      </trkpt>
      <trkpt lat="28.92523" lon="-13.82478">
        <ele>43</ele>
        <time>2021-07-04 10:16:23</time>
      </trkpt>
      <trkpt lat="28.92514" lon="-13.82481">
        <ele>42.8</ele>
        <time>2021-07-04 10:16:24</time>
      </trkpt>
      <trkpt lat="28.92505" lon="-13.82485">
        <ele>42.8</ele>
        <time>2021-07-04 10:16:25</time>
      </trkpt>
      <trkpt lat="28.92496" lon="-13.82489">
        <ele>42.6</ele>
        <time>2021-07-04 10:16:26</time>
      </trkpt>
      <trkpt lat="28.92486" lon="-13.82493">
        <ele>42.6</ele>
        <time>2021-07-04 10:16:27</time>
      </trkpt>
      <trkpt lat="28.92477" lon="-13.82497">
        <ele>42.6</ele>
        <time>2021-07-04 10:16:28</time>
      </trkpt>
      <trkpt lat="28.92467" lon="-13.82501">
        <ele>42.2</ele>
        <time>2021-07-04 10:16:29</time>
      </trkpt>
      <trkpt lat="28.92457" lon="-13.82505">
        <ele>42</ele>
        <time>2021-07-04 10:16:30</time>
      </trkpt>
      <trkpt lat="28.92446" lon="-13.82509">
        <ele>41.8</ele>
        <time>2021-07-04 10:16:31</time>
      </trkpt>
      <trkpt lat="28.92436" lon="-13.82514">
        <ele>41.6</ele>
        <time>2021-07-04 10:16:32</time>
      </trkpt>
      <trkpt lat="28.92425" lon="-13.82518">
        <ele>41.4</ele>
        <time>2021-07-04 10:16:33</time>
      </trkpt>
      <trkpt lat="28.92415" lon="-13.82523">
        <ele>41</ele>
        <time>2021-07-04 10:16:34</time>
      </trkpt>
      <trkpt lat="28.92404" lon="-13.82527">
        <ele>40.6</ele>
        <time>2021-07-04 10:16:35</time>
      </trkpt>
      <trkpt lat="28.92392" lon="-13.82532">
        <ele>40.2</ele>
        <time>2021-07-04 10:16:36</time>
      </trkpt>
      <trkpt lat="28.92381" lon="-13.82536">
        <ele>39.6</ele>
        <time>2021-07-04 10:16:37</time>
      </trkpt>
      <trkpt lat="28.92369" lon="-13.82542">
        <ele>39.2</ele>
        <time>2021-07-04 10:16:38</time>
      </trkpt>
      <trkpt lat="28.92358" lon="-13.82547">
        <ele>38.6</ele>
        <time>2021-07-04 10:16:39</time>
      </trkpt>
      <trkpt lat="28.92345" lon="-13.82552">
        <ele>37.8</ele>
        <time>2021-07-04 10:16:40</time>
      </trkpt>
      <trkpt lat="28.92332" lon="-13.82558">
        <ele>37</ele>
        <time>2021-07-04 10:16:41</time>
      </trkpt>
      <trkpt lat="28.9232" lon="-13.82563">
        <ele>36.2</ele>
        <time>2021-07-04 10:16:42</time>
      </trkpt>
      <trkpt lat="28.92307" lon="-13.82569">
        <ele>35.2</ele>
        <time>2021-07-04 10:16:43</time>
      </trkpt>
      <trkpt lat="28.92294" lon="-13.82574">
        <ele>34.4</ele>
        <time>2021-07-04 10:16:44</time>
      </trkpt>
      <trkpt lat="28.92281" lon="-13.82579">
        <ele>33.4</ele>
        <time>2021-07-04 10:16:45</time>
      </trkpt>
      <trkpt lat="28.92268" lon="-13.82585">
        <ele>32.4</ele>
        <time>2021-07-04 10:16:46</time>
      </trkpt>
      <trkpt lat="28.92255" lon="-13.8259">
        <ele>31.4</ele>
        <time>2021-07-04 10:16:47</time>
      </trkpt>
      <trkpt lat="28.92243" lon="-13.82596">
        <ele>30.4</ele>
        <time>2021-07-04 10:16:48</time>
      </trkpt>
      <trkpt lat="28.9223" lon="-13.82601">
        <ele>29.8</ele>
        <time>2021-07-04 10:16:49</time>
      </trkpt>
      <trkpt lat="28.92218" lon="-13.82606">
        <ele>29.2</ele>
        <time>2021-07-04 10:16:50</time>
      </trkpt>
      <trkpt lat="28.92206" lon="-13.82611">
        <ele>28.6</ele>
        <time>2021-07-04 10:16:51</time>
      </trkpt>
      <trkpt lat="28.92194" lon="-13.82616">
        <ele>28</ele>
        <time>2021-07-04 10:16:52</time>
      </trkpt>
      <trkpt lat="28.92182" lon="-13.82621">
        <ele>27.6</ele>
        <time>2021-07-04 10:16:53</time>
      </trkpt>
      <trkpt lat="28.9217" lon="-13.82626">
        <ele>27.2</ele>
        <time>2021-07-04 10:16:54</time>
      </trkpt>
      <trkpt lat="28.92158" lon="-13.82631">
        <ele>26.8</ele>
        <time>2021-07-04 10:16:55</time>
      </trkpt>
      <trkpt lat="28.92147" lon="-13.82636">
        <ele>26.4</ele>
        <time>2021-07-04 10:16:56</time>
      </trkpt>
      <trkpt lat="28.92135" lon="-13.82641">
        <ele>26.2</ele>
        <time>2021-07-04 10:16:57</time>
      </trkpt>
      <trkpt lat="28.92124" lon="-13.82646">
        <ele>26.2</ele>
        <time>2021-07-04 10:16:58</time>
      </trkpt>
      <trkpt lat="28.92113" lon="-13.82651">
        <ele>25.8</ele>
        <time>2021-07-04 10:16:59</time>
      </trkpt>
      <trkpt lat="28.92102" lon="-13.82655">
        <ele>25.8</ele>
        <time>2021-07-04 10:17:00</time>
      </trkpt>
      <trkpt lat="28.92091" lon="-13.8266">
        <ele>25.6</ele>
        <time>2021-07-04 10:17:01</time>
      </trkpt>
      <trkpt lat="28.9208" lon="-13.82664">
        <ele>25.6</ele>
        <time>2021-07-04 10:17:02</time>
      </trkpt>
      <trkpt lat="28.9207" lon="-13.82669">
        <ele>25.6</ele>
        <time>2021-07-04 10:17:03</time>
      </trkpt>
      <trkpt lat="28.92059" lon="-13.82673">
        <ele>25.6</ele>
        <time>2021-07-04 10:17:04</time>
      </trkpt>
      <trkpt lat="28.92049" lon="-13.82677">
        <ele>25.6</ele>
        <time>2021-07-04 10:17:05</time>
      </trkpt>
      <trkpt lat="28.92039" lon="-13.82681">
        <ele>25.6</ele>
        <time>2021-07-04 10:17:06</time>
      </trkpt>
      <trkpt lat="28.9203" lon="-13.82685">
        <ele>25.6</ele>
        <time>2021-07-04 10:17:07</time>
      </trkpt>
      <trkpt lat="28.9202" lon="-13.82689">
        <ele>25.2</ele>
        <time>2021-07-04 10:17:08</time>
      </trkpt>
      <trkpt lat="28.92012" lon="-13.82693">
        <ele>25.2</ele>
        <time>2021-07-04 10:17:09</time>
      </trkpt>
      <trkpt lat="28.92003" lon="-13.82696">
        <ele>25.2</ele>
        <time>2021-07-04 10:17:10</time>
      </trkpt>
      <trkpt lat="28.91995" lon="-13.827">
        <ele>25.2</ele>
        <time>2021-07-04 10:17:11</time>
      </trkpt>
      <trkpt lat="28.91987" lon="-13.82704">
        <ele>25.2</ele>
        <time>2021-07-04 10:17:12</time>
      </trkpt>
      <trkpt lat="28.91979" lon="-13.82707">
        <ele>24.4</ele>
        <time>2021-07-04 10:17:13</time>
      </trkpt>
      <trkpt lat="28.91971" lon="-13.8271">
        <ele>24.6</ele>
        <time>2021-07-04 10:17:14</time>
      </trkpt>
      <trkpt lat="28.91963" lon="-13.82713">
        <ele>24.6</ele>
        <time>2021-07-04 10:17:15</time>
      </trkpt>
      <trkpt lat="28.91955" lon="-13.82717">
        <ele>25</ele>
        <time>2021-07-04 10:17:16</time>
      </trkpt>
      <trkpt lat="28.91948" lon="-13.8272">
        <ele>25.2</ele>
        <time>2021-07-04 10:17:17</time>
      </trkpt>
      <trkpt lat="28.9194" lon="-13.82723">
        <ele>25.6</ele>
        <time>2021-07-04 10:17:18</time>
      </trkpt>
      <trkpt lat="28.91933" lon="-13.82726">
        <ele>26</ele>
        <time>2021-07-04 10:17:19</time>
      </trkpt>
      <trkpt lat="28.91926" lon="-13.82729">
        <ele>26.2</ele>
        <time>2021-07-04 10:17:20</time>
      </trkpt>
      <trkpt lat="28.91919" lon="-13.82732">
        <ele>26.6</ele>
        <time>2021-07-04 10:17:21</time>
      </trkpt>
      <trkpt lat="28.91912" lon="-13.82735">
        <ele>26.8</ele>
        <time>2021-07-04 10:17:22</time>
      </trkpt>
      <trkpt lat="28.91905" lon="-13.82738">
        <ele>26.8</ele>
        <time>2021-07-04 10:17:23</time>
      </trkpt>
      <trkpt lat="28.91898" lon="-13.82741">
        <ele>27</ele>
        <time>2021-07-04 10:17:24</time>
      </trkpt>
      <trkpt lat="28.9189" lon="-13.82744">
        <ele>27</ele>
        <time>2021-07-04 10:17:25</time>
      </trkpt>
      <trkpt lat="28.91882" lon="-13.82747">
        <ele>27.4</ele>
        <time>2021-07-04 10:17:26</time>
      </trkpt>
      <trkpt lat="28.91874" lon="-13.82751">
        <ele>27.4</ele>
        <time>2021-07-04 10:17:27</time>
      </trkpt>
      <trkpt lat="28.91866" lon="-13.82754">
        <ele>27.6</ele>
        <time>2021-07-04 10:17:28</time>
      </trkpt>
      <trkpt lat="28.91858" lon="-13.82757">
        <ele>27.6</ele>
        <time>2021-07-04 10:17:29</time>
      </trkpt>
      <trkpt lat="28.9185" lon="-13.8276">
        <ele>28</ele>
        <time>2021-07-04 10:17:30</time>
      </trkpt>
      <trkpt lat="28.91842" lon="-13.82763">
        <ele>28</ele>
        <time>2021-07-04 10:17:31</time>
      </trkpt>
      <trkpt lat="28.91834" lon="-13.82766">
        <ele>28</ele>
        <time>2021-07-04 10:17:32</time>
      </trkpt>
      <trkpt lat="28.91826" lon="-13.8277">
        <ele>28</ele>
        <time>2021-07-04 10:17:33</time>
      </trkpt>
      <trkpt lat="28.91817" lon="-13.82773">
        <ele>28.2</ele>
        <time>2021-07-04 10:17:34</time>
      </trkpt>
      <trkpt lat="28.91809" lon="-13.82776">
        <ele>28.2</ele>
        <time>2021-07-04 10:17:35</time>
      </trkpt>
      <trkpt lat="28.91801" lon="-13.82779">
        <ele>28.2</ele>
        <time>2021-07-04 10:17:36</time>
      </trkpt>
      <trkpt lat="28.91792" lon="-13.82782">
        <ele>28.2</ele>
        <time>2021-07-04 10:17:37</time>
      </trkpt>
      <trkpt lat="28.91784" lon="-13.82785">
        <ele>28.2</ele>
        <time>2021-07-04 10:17:38</time>
      </trkpt>
      <trkpt lat="28.91775" lon="-13.82787">
        <ele>28.4</ele>
        <time>2021-07-04 10:17:39</time>
      </trkpt>
      <trkpt lat="28.91766" lon="-13.8279">
        <ele>28.4</ele>
        <time>2021-07-04 10:17:40</time>
      </trkpt>
      <trkpt lat="28.91757" lon="-13.82793">
        <ele>28.4</ele>
        <time>2021-07-04 10:17:41</time>
      </trkpt>
      <trkpt lat="28.91749" lon="-13.82796">
        <ele>28.4</ele>
        <time>2021-07-04 10:17:42</time>
      </trkpt>
      <trkpt lat="28.9174" lon="-13.828">
        <ele>28.4</ele>
        <time>2021-07-04 10:17:43</time>
      </trkpt>
      <trkpt lat="28.91732" lon="-13.82803">
        <ele>28.4</ele>
        <time>2021-07-04 10:17:44</time>
      </trkpt>
      <trkpt lat="28.91724" lon="-13.82806">
        <ele>28.4</ele>
        <time>2021-07-04 10:17:45</time>
      </trkpt>
      <trkpt lat="28.91715" lon="-13.82809">
        <ele>28.4</ele>
        <time>2021-07-04 10:17:46</time>
      </trkpt>
      <trkpt lat="28.91707" lon="-13.82812">
        <ele>28.4</ele>
        <time>2021-07-04 10:17:47</time>
      </trkpt>
      <trkpt lat="28.91699" lon="-13.82815">
        <ele>28.4</ele>
        <time>2021-07-04 10:17:48</time>
      </trkpt>
      <trkpt lat="28.9169" lon="-13.82818">
        <ele>28.4</ele>
        <time>2021-07-04 10:17:49</time>
      </trkpt>
      <trkpt lat="28.91682" lon="-13.82821">
        <ele>28.4</ele>
        <time>2021-07-04 10:17:50</time>
      </trkpt>
      <trkpt lat="28.91673" lon="-13.82824">
        <ele>28.4</ele>
        <time>2021-07-04 10:17:51</time>
      </trkpt>
      <trkpt lat="28.91665" lon="-13.82826">
        <ele>28.4</ele>
        <time>2021-07-04 10:17:52</time>
      </trkpt>
      <trkpt lat="28.91657" lon="-13.82829">
        <ele>28.6</ele>
        <time>2021-07-04 10:17:53</time>
      </trkpt>
      <trkpt lat="28.91649" lon="-13.82832">
        <ele>28.6</ele>
        <time>2021-07-04 10:17:54</time>
      </trkpt>
      <trkpt lat="28.91642" lon="-13.82834">
        <ele>29</ele>
        <time>2021-07-04 10:17:55</time>
      </trkpt>
      <trkpt lat="28.91634" lon="-13.82837">
        <ele>29</ele>
        <time>2021-07-04 10:17:56</time>
      </trkpt>
      <trkpt lat="28.91627" lon="-13.82839">
        <ele>29.4</ele>
        <time>2021-07-04 10:17:57</time>
      </trkpt>
      <trkpt lat="28.91619" lon="-13.82841">
        <ele>29.4</ele>
        <time>2021-07-04 10:17:58</time>
      </trkpt>
      <trkpt lat="28.91612" lon="-13.82844">
        <ele>29.6</ele>
        <time>2021-07-04 10:17:59</time>
      </trkpt>
      <trkpt lat="28.91605" lon="-13.82845">
        <ele>29.6</ele>
        <time>2021-07-04 10:18:00</time>
      </trkpt>
      <trkpt lat="28.91598" lon="-13.82848">
        <ele>29.6</ele>
        <time>2021-07-04 10:18:01</time>
      </trkpt>
      <trkpt lat="28.91591" lon="-13.8285">
        <ele>29.6</ele>
        <time>2021-07-04 10:18:02</time>
      </trkpt>
      <trkpt lat="28.91584" lon="-13.82852">
        <ele>29.6</ele>
        <time>2021-07-04 10:18:03</time>
      </trkpt>
      <trkpt lat="28.91578" lon="-13.82854">
        <ele>29.6</ele>
        <time>2021-07-04 10:18:04</time>
      </trkpt>
      <trkpt lat="28.91571" lon="-13.82856">
        <ele>30</ele>
        <time>2021-07-04 10:18:05</time>
      </trkpt>
      <trkpt lat="28.91564" lon="-13.82858">
        <ele>30</ele>
        <time>2021-07-04 10:18:06</time>
      </trkpt>
      <trkpt lat="28.91557" lon="-13.82861">
        <ele>30.2</ele>
        <time>2021-07-04 10:18:07</time>
      </trkpt>
      <trkpt lat="28.9155" lon="-13.82863">
        <ele>30.6</ele>
        <time>2021-07-04 10:18:08</time>
      </trkpt>
      <trkpt lat="28.91543" lon="-13.82865">
        <ele>30.8</ele>
        <time>2021-07-04 10:18:09</time>
      </trkpt>
      <trkpt lat="28.91535" lon="-13.82868">
        <ele>30.8</ele>
        <time>2021-07-04 10:18:10</time>
      </trkpt>
      <trkpt lat="28.91527" lon="-13.8287">
        <ele>30.8</ele>
        <time>2021-07-04 10:18:11</time>
      </trkpt>
      <trkpt lat="28.9152" lon="-13.82873">
        <ele>30.8</ele>
        <time>2021-07-04 10:18:12</time>
      </trkpt>
      <trkpt lat="28.91512" lon="-13.82875">
        <ele>30.8</ele>
        <time>2021-07-04 10:18:13</time>
      </trkpt>
      <trkpt lat="28.91504" lon="-13.82878">
        <ele>30.8</ele>
        <time>2021-07-04 10:18:14</time>
      </trkpt>
      <trkpt lat="28.91495" lon="-13.82881">
        <ele>30.8</ele>
        <time>2021-07-04 10:18:15</time>
      </trkpt>
      <trkpt lat="28.91486" lon="-13.82884">
        <ele>30.6</ele>
        <time>2021-07-04 10:18:16</time>
      </trkpt>
      <trkpt lat="28.91478" lon="-13.82886">
        <ele>30.6</ele>
        <time>2021-07-04 10:18:17</time>
      </trkpt>
      <trkpt lat="28.91469" lon="-13.8289">
        <ele>30.2</ele>
        <time>2021-07-04 10:18:18</time>
      </trkpt>
      <trkpt lat="28.91461" lon="-13.82892">
        <ele>30.2</ele>
        <time>2021-07-04 10:18:19</time>
      </trkpt>
      <trkpt lat="28.91453" lon="-13.82896">
        <ele>29.8</ele>
        <time>2021-07-04 10:18:20</time>
      </trkpt>
      <trkpt lat="28.91444" lon="-13.82899">
        <ele>29.8</ele>
        <time>2021-07-04 10:18:21</time>
      </trkpt>
      <trkpt lat="28.91436" lon="-13.82901">
        <ele>29.6</ele>
        <time>2021-07-04 10:18:22</time>
      </trkpt>
      <trkpt lat="28.91427" lon="-13.82904">
        <ele>29.6</ele>
        <time>2021-07-04 10:18:23</time>
      </trkpt>
      <trkpt lat="28.91419" lon="-13.82907">
        <ele>29.6</ele>
        <time>2021-07-04 10:18:24</time>
      </trkpt>
      <trkpt lat="28.91411" lon="-13.8291">
        <ele>29.6</ele>
        <time>2021-07-04 10:18:25</time>
      </trkpt>
      <trkpt lat="28.91402" lon="-13.82913">
        <ele>29.6</ele>
        <time>2021-07-04 10:18:26</time>
      </trkpt>
      <trkpt lat="28.91394" lon="-13.82915">
        <ele>29.6</ele>
        <time>2021-07-04 10:18:27</time>
      </trkpt>
      <trkpt lat="28.91387" lon="-13.82918">
        <ele>29.6</ele>
        <time>2021-07-04 10:18:28</time>
      </trkpt>
      <trkpt lat="28.91379" lon="-13.8292">
        <ele>29.6</ele>
        <time>2021-07-04 10:18:29</time>
      </trkpt>
      <trkpt lat="28.9137" lon="-13.82923">
        <ele>29.6</ele>
        <time>2021-07-04 10:18:30</time>
      </trkpt>
      <trkpt lat="28.91362" lon="-13.82926">
        <ele>29.6</ele>
        <time>2021-07-04 10:18:31</time>
      </trkpt>
      <trkpt lat="28.91354" lon="-13.82929">
        <ele>29.6</ele>
        <time>2021-07-04 10:18:32</time>
      </trkpt>
      <trkpt lat="28.91346" lon="-13.82931">
        <ele>29.6</ele>
        <time>2021-07-04 10:18:33</time>
      </trkpt>
      <trkpt lat="28.91337" lon="-13.82934">
        <ele>29.6</ele>
        <time>2021-07-04 10:18:34</time>
      </trkpt>
      <trkpt lat="28.91329" lon="-13.82937">
        <ele>29.6</ele>
        <time>2021-07-04 10:18:35</time>
      </trkpt>
      <trkpt lat="28.91321" lon="-13.8294">
        <ele>29.6</ele>
        <time>2021-07-04 10:18:36</time>
      </trkpt>
      <trkpt lat="28.91313" lon="-13.82943">
        <ele>29.6</ele>
        <time>2021-07-04 10:18:37</time>
      </trkpt>
      <trkpt lat="28.91305" lon="-13.82946">
        <ele>29.6</ele>
        <time>2021-07-04 10:18:38</time>
      </trkpt>
      <trkpt lat="28.91296" lon="-13.82948">
        <ele>29.8</ele>
        <time>2021-07-04 10:18:39</time>
      </trkpt>
      <trkpt lat="28.91288" lon="-13.82951">
        <ele>29.8</ele>
        <time>2021-07-04 10:18:40</time>
      </trkpt>
      <trkpt lat="28.9128" lon="-13.82954">
        <ele>29.8</ele>
        <time>2021-07-04 10:18:41</time>
      </trkpt>
      <trkpt lat="28.91272" lon="-13.82956">
        <ele>29.8</ele>
        <time>2021-07-04 10:18:42</time>
      </trkpt>
      <trkpt lat="28.91263" lon="-13.82959">
        <ele>29.8</ele>
        <time>2021-07-04 10:18:43</time>
      </trkpt>
      <trkpt lat="28.91255" lon="-13.82962">
        <ele>29.8</ele>
        <time>2021-07-04 10:18:44</time>
      </trkpt>
      <trkpt lat="28.91247" lon="-13.82965">
        <ele>29.8</ele>
        <time>2021-07-04 10:18:45</time>
      </trkpt>
      <trkpt lat="28.91239" lon="-13.82968">
        <ele>29.8</ele>
        <time>2021-07-04 10:18:46</time>
      </trkpt>
      <trkpt lat="28.91231" lon="-13.82971">
        <ele>29.8</ele>
        <time>2021-07-04 10:18:47</time>
      </trkpt>
      <trkpt lat="28.91222" lon="-13.82973">
        <ele>29.8</ele>
        <time>2021-07-04 10:18:48</time>
      </trkpt>
      <trkpt lat="28.91214" lon="-13.82976">
        <ele>29.8</ele>
        <time>2021-07-04 10:18:49</time>
      </trkpt>
      <trkpt lat="28.91205" lon="-13.82979">
        <ele>30</ele>
        <time>2021-07-04 10:18:50</time>
      </trkpt>
      <trkpt lat="28.91197" lon="-13.82981">
        <ele>30</ele>
        <time>2021-07-04 10:18:51</time>
      </trkpt>
      <trkpt lat="28.91188" lon="-13.82984">
        <ele>30</ele>
        <time>2021-07-04 10:18:52</time>
      </trkpt>
      <trkpt lat="28.9118" lon="-13.82987">
        <ele>30</ele>
        <time>2021-07-04 10:18:53</time>
      </trkpt>
      <trkpt lat="28.91171" lon="-13.8299">
        <ele>30</ele>
        <time>2021-07-04 10:18:54</time>
      </trkpt>
      <trkpt lat="28.91162" lon="-13.82993">
        <ele>30</ele>
        <time>2021-07-04 10:18:55</time>
      </trkpt>
      <trkpt lat="28.91153" lon="-13.82996">
        <ele>29.8</ele>
        <time>2021-07-04 10:18:56</time>
      </trkpt>
      <trkpt lat="28.91144" lon="-13.82999">
        <ele>29.8</ele>
        <time>2021-07-04 10:18:57</time>
      </trkpt>
      <trkpt lat="28.91135" lon="-13.83002">
        <ele>29.8</ele>
        <time>2021-07-04 10:18:58</time>
      </trkpt>
      <trkpt lat="28.91126" lon="-13.83005">
        <ele>29.4</ele>
        <time>2021-07-04 10:18:59</time>
      </trkpt>
      <trkpt lat="28.91117" lon="-13.83008">
        <ele>29.4</ele>
        <time>2021-07-04 10:19:00</time>
      </trkpt>
      <trkpt lat="28.91109" lon="-13.83011">
        <ele>29.4</ele>
        <time>2021-07-04 10:19:01</time>
      </trkpt>
      <trkpt lat="28.911" lon="-13.83014">
        <ele>29.2</ele>
        <time>2021-07-04 10:19:02</time>
      </trkpt>
      <trkpt lat="28.91091" lon="-13.83017">
        <ele>29.2</ele>
        <time>2021-07-04 10:19:03</time>
      </trkpt>
      <trkpt lat="28.91083" lon="-13.8302">
        <ele>29.2</ele>
        <time>2021-07-04 10:19:04</time>
      </trkpt>
      <trkpt lat="28.91074" lon="-13.83023">
        <ele>29.2</ele>
        <time>2021-07-04 10:19:05</time>
      </trkpt>
      <trkpt lat="28.91066" lon="-13.83026">
        <ele>29</ele>
        <time>2021-07-04 10:19:06</time>
      </trkpt>
      <trkpt lat="28.91058" lon="-13.83028">
        <ele>29</ele>
        <time>2021-07-04 10:19:07</time>
      </trkpt>
      <trkpt lat="28.9105" lon="-13.83031">
        <ele>29</ele>
        <time>2021-07-04 10:19:08</time>
      </trkpt>
      <trkpt lat="28.91041" lon="-13.83034">
        <ele>29</ele>
        <time>2021-07-04 10:19:09</time>
      </trkpt>
      <trkpt lat="28.91033" lon="-13.83037">
        <ele>29</ele>
        <time>2021-07-04 10:19:10</time>
      </trkpt>
      <trkpt lat="28.91025" lon="-13.83039">
        <ele>29</ele>
        <time>2021-07-04 10:19:11</time>
      </trkpt>
      <trkpt lat="28.91016" lon="-13.83042">
        <ele>29</ele>
        <time>2021-07-04 10:19:12</time>
      </trkpt>
      <trkpt lat="28.91008" lon="-13.83045">
        <ele>29</ele>
        <time>2021-07-04 10:19:13</time>
      </trkpt>
      <trkpt lat="28.91" lon="-13.83048">
        <ele>29</ele>
        <time>2021-07-04 10:19:14</time>
      </trkpt>
      <trkpt lat="28.90992" lon="-13.8305">
        <ele>29</ele>
        <time>2021-07-04 10:19:15</time>
      </trkpt>
      <trkpt lat="28.90984" lon="-13.83053">
        <ele>29</ele>
        <time>2021-07-04 10:19:16</time>
      </trkpt>
      <trkpt lat="28.90976" lon="-13.83056">
        <ele>29</ele>
        <time>2021-07-04 10:19:17</time>
      </trkpt>
      <trkpt lat="28.90968" lon="-13.83059">
        <ele>29</ele>
        <time>2021-07-04 10:19:18</time>
      </trkpt>
      <trkpt lat="28.9096" lon="-13.83062">
        <ele>29</ele>
        <time>2021-07-04 10:19:19</time>
      </trkpt>
      <trkpt lat="28.90952" lon="-13.83065">
        <ele>29</ele>
        <time>2021-07-04 10:19:20</time>
      </trkpt>
      <trkpt lat="28.90944" lon="-13.83067">
        <ele>29</ele>
        <time>2021-07-04 10:19:21</time>
      </trkpt>
      <trkpt lat="28.90936" lon="-13.8307">
        <ele>29</ele>
        <time>2021-07-04 10:19:22</time>
      </trkpt>
      <trkpt lat="28.90929" lon="-13.83072">
        <ele>29</ele>
        <time>2021-07-04 10:19:23</time>
      </trkpt>
      <trkpt lat="28.90921" lon="-13.83075">
        <ele>29</ele>
        <time>2021-07-04 10:19:24</time>
      </trkpt>
      <trkpt lat="28.90913" lon="-13.83077">
        <ele>29</ele>
        <time>2021-07-04 10:19:25</time>
      </trkpt>
      <trkpt lat="28.90906" lon="-13.83079">
        <ele>29</ele>
        <time>2021-07-04 10:19:26</time>
      </trkpt>
      <trkpt lat="28.90899" lon="-13.83081">
        <ele>29</ele>
        <time>2021-07-04 10:19:27</time>
      </trkpt>
      <trkpt lat="28.90892" lon="-13.83084">
        <ele>29</ele>
        <time>2021-07-04 10:19:28</time>
      </trkpt>
      <trkpt lat="28.90885" lon="-13.83087">
        <ele>29</ele>
        <time>2021-07-04 10:19:29</time>
      </trkpt>
      <trkpt lat="28.90877" lon="-13.83089">
        <ele>29.2</ele>
        <time>2021-07-04 10:19:30</time>
      </trkpt>
      <trkpt lat="28.9087" lon="-13.83091">
        <ele>29.2</ele>
        <time>2021-07-04 10:19:31</time>
      </trkpt>
      <trkpt lat="28.90863" lon="-13.83093">
        <ele>29.2</ele>
        <time>2021-07-04 10:19:32</time>
      </trkpt>
      <trkpt lat="28.90856" lon="-13.83095">
        <ele>29.6</ele>
        <time>2021-07-04 10:19:33</time>
      </trkpt>
      <trkpt lat="28.90849" lon="-13.83097">
        <ele>29.6</ele>
        <time>2021-07-04 10:19:34</time>
      </trkpt>
      <trkpt lat="28.90843" lon="-13.83099">
        <ele>29.6</ele>
        <time>2021-07-04 10:19:35</time>
      </trkpt>
      <trkpt lat="28.90835" lon="-13.831">
        <ele>29.8</ele>
        <time>2021-07-04 10:19:36</time>
      </trkpt>
      <trkpt lat="28.90828" lon="-13.83102">
        <ele>29.8</ele>
        <time>2021-07-04 10:19:37</time>
      </trkpt>
      <trkpt lat="28.90821" lon="-13.83105">
        <ele>29.8</ele>
        <time>2021-07-04 10:19:38</time>
      </trkpt>
      <trkpt lat="28.90814" lon="-13.83107">
        <ele>30</ele>
        <time>2021-07-04 10:19:39</time>
      </trkpt>
      <trkpt lat="28.90806" lon="-13.83109">
        <ele>30</ele>
        <time>2021-07-04 10:19:40</time>
      </trkpt>
      <trkpt lat="28.90799" lon="-13.83112">
        <ele>30.2</ele>
        <time>2021-07-04 10:19:41</time>
      </trkpt>
      <trkpt lat="28.90792" lon="-13.83114">
        <ele>30.2</ele>
        <time>2021-07-04 10:19:42</time>
      </trkpt>
      <trkpt lat="28.90784" lon="-13.83116">
        <ele>30.2</ele>
        <time>2021-07-04 10:19:43</time>
      </trkpt>
      <trkpt lat="28.90777" lon="-13.83118">
        <ele>30.2</ele>
        <time>2021-07-04 10:19:44</time>
      </trkpt>
      <trkpt lat="28.9077" lon="-13.83121">
        <ele>30.2</ele>
        <time>2021-07-04 10:19:45</time>
      </trkpt>
      <trkpt lat="28.90763" lon="-13.83125">
        <ele>30.2</ele>
        <time>2021-07-04 10:19:46</time>
      </trkpt>
      <trkpt lat="28.90756" lon="-13.83128">
        <ele>30.4</ele>
        <time>2021-07-04 10:19:47</time>
      </trkpt>
      <trkpt lat="28.90749" lon="-13.83131">
        <ele>30.4</ele>
        <time>2021-07-04 10:19:48</time>
      </trkpt>
      <trkpt lat="28.90742" lon="-13.83133">
        <ele>30.4</ele>
        <time>2021-07-04 10:19:49</time>
      </trkpt>
      <trkpt lat="28.90735" lon="-13.83136">
        <ele>30.4</ele>
        <time>2021-07-04 10:19:50</time>
      </trkpt>
      <trkpt lat="28.90728" lon="-13.83139">
        <ele>30.4</ele>
        <time>2021-07-04 10:19:51</time>
      </trkpt>
      <trkpt lat="28.9072" lon="-13.83141">
        <ele>30.8</ele>
        <time>2021-07-04 10:19:52</time>
      </trkpt>
      <trkpt lat="28.90713" lon="-13.83143">
        <ele>30.8</ele>
        <time>2021-07-04 10:19:53</time>
      </trkpt>
      <trkpt lat="28.90707" lon="-13.83145">
        <ele>30.8</ele>
        <time>2021-07-04 10:19:54</time>
      </trkpt>
      <trkpt lat="28.907" lon="-13.83147">
        <ele>31.2</ele>
        <time>2021-07-04 10:19:55</time>
      </trkpt>
      <trkpt lat="28.90693" lon="-13.8315">
        <ele>31.2</ele>
        <time>2021-07-04 10:19:56</time>
      </trkpt>
      <trkpt lat="28.90687" lon="-13.83151">
        <ele>31.4</ele>
        <time>2021-07-04 10:19:57</time>
      </trkpt>
      <trkpt lat="28.9068" lon="-13.83153">
        <ele>31.4</ele>
        <time>2021-07-04 10:19:58</time>
      </trkpt>
      <trkpt lat="28.90674" lon="-13.83155">
        <ele>31.8</ele>
        <time>2021-07-04 10:19:59</time>
      </trkpt>
      <trkpt lat="28.90668" lon="-13.83158">
        <ele>31.8</ele>
        <time>2021-07-04 10:20:00</time>
      </trkpt>
      <trkpt lat="28.90662" lon="-13.8316">
        <ele>32.2</ele>
        <time>2021-07-04 10:20:01</time>
      </trkpt>
      <trkpt lat="28.90656" lon="-13.83162">
        <ele>32.2</ele>
        <time>2021-07-04 10:20:02</time>
      </trkpt>
      <trkpt lat="28.90649" lon="-13.83164">
        <ele>32.6</ele>
        <time>2021-07-04 10:20:03</time>
      </trkpt>
      <trkpt lat="28.90643" lon="-13.83166">
        <ele>32.6</ele>
        <time>2021-07-04 10:20:04</time>
      </trkpt>
      <trkpt lat="28.90636" lon="-13.83168">
        <ele>32.8</ele>
        <time>2021-07-04 10:20:05</time>
      </trkpt>
      <trkpt lat="28.9063" lon="-13.83171">
        <ele>32.8</ele>
        <time>2021-07-04 10:20:06</time>
      </trkpt>
      <trkpt lat="28.90624" lon="-13.83173">
        <ele>33.2</ele>
        <time>2021-07-04 10:20:07</time>
      </trkpt>
      <trkpt lat="28.90617" lon="-13.83175">
        <ele>33.2</ele>
        <time>2021-07-04 10:20:08</time>
      </trkpt>
      <trkpt lat="28.9061" lon="-13.83177">
        <ele>33.6</ele>
        <time>2021-07-04 10:20:09</time>
      </trkpt>
      <trkpt lat="28.90604" lon="-13.83179">
        <ele>33.6</ele>
        <time>2021-07-04 10:20:10</time>
      </trkpt>
      <trkpt lat="28.90597" lon="-13.83181">
        <ele>33.8</ele>
        <time>2021-07-04 10:20:11</time>
      </trkpt>
      <trkpt lat="28.90591" lon="-13.83184">
        <ele>33.8</ele>
        <time>2021-07-04 10:20:12</time>
      </trkpt>
      <trkpt lat="28.90585" lon="-13.83186">
        <ele>34.2</ele>
        <time>2021-07-04 10:20:13</time>
      </trkpt>
      <trkpt lat="28.90579" lon="-13.83188">
        <ele>34.2</ele>
        <time>2021-07-04 10:20:14</time>
      </trkpt>
      <trkpt lat="28.90573" lon="-13.8319">
        <ele>34.6</ele>
        <time>2021-07-04 10:20:15</time>
      </trkpt>
      <trkpt lat="28.90566" lon="-13.83192">
        <ele>34.6</ele>
        <time>2021-07-04 10:20:16</time>
      </trkpt>
      <trkpt lat="28.9056" lon="-13.83195">
        <ele>34.8</ele>
        <time>2021-07-04 10:20:17</time>
      </trkpt>
      <trkpt lat="28.90553" lon="-13.83197">
        <ele>34.8</ele>
        <time>2021-07-04 10:20:18</time>
      </trkpt>
      <trkpt lat="28.90547" lon="-13.832">
        <ele>35</ele>
        <time>2021-07-04 10:20:19</time>
      </trkpt>
      <trkpt lat="28.9054" lon="-13.83202">
        <ele>35</ele>
        <time>2021-07-04 10:20:20</time>
      </trkpt>
      <trkpt lat="28.90533" lon="-13.83204">
        <ele>35.4</ele>
        <time>2021-07-04 10:20:21</time>
      </trkpt>
      <trkpt lat="28.90527" lon="-13.83206">
        <ele>35.4</ele>
        <time>2021-07-04 10:20:22</time>
      </trkpt>
      <trkpt lat="28.9052" lon="-13.83209">
        <ele>35.6</ele>
        <time>2021-07-04 10:20:23</time>
      </trkpt>
      <trkpt lat="28.90513" lon="-13.83211">
        <ele>35.6</ele>
        <time>2021-07-04 10:20:24</time>
      </trkpt>
      <trkpt lat="28.90506" lon="-13.83213">
        <ele>35.6</ele>
        <time>2021-07-04 10:20:25</time>
      </trkpt>
      <trkpt lat="28.905" lon="-13.83215">
        <ele>35.8</ele>
        <time>2021-07-04 10:20:26</time>
      </trkpt>
      <trkpt lat="28.90493" lon="-13.83217">
        <ele>35.8</ele>
        <time>2021-07-04 10:20:27</time>
      </trkpt>
      <trkpt lat="28.90486" lon="-13.8322">
        <ele>35.8</ele>
        <time>2021-07-04 10:20:28</time>
      </trkpt>
      <trkpt lat="28.90479" lon="-13.83222">
        <ele>35.8</ele>
        <time>2021-07-04 10:20:29</time>
      </trkpt>
      <trkpt lat="28.90472" lon="-13.83225">
        <ele>35.8</ele>
        <time>2021-07-04 10:20:30</time>
      </trkpt>
      <trkpt lat="28.90464" lon="-13.83227">
        <ele>36</ele>
        <time>2021-07-04 10:20:31</time>
      </trkpt>
      <trkpt lat="28.90456" lon="-13.83229">
        <ele>36</ele>
        <time>2021-07-04 10:20:32</time>
      </trkpt>
      <trkpt lat="28.90449" lon="-13.83231">
        <ele>36</ele>
        <time>2021-07-04 10:20:33</time>
      </trkpt>
      <trkpt lat="28.90441" lon="-13.83234">
        <ele>36</ele>
        <time>2021-07-04 10:20:34</time>
      </trkpt>
      <trkpt lat="28.90433" lon="-13.83237">
        <ele>36</ele>
        <time>2021-07-04 10:20:35</time>
      </trkpt>
      <trkpt lat="28.90424" lon="-13.8324">
        <ele>36</ele>
        <time>2021-07-04 10:20:36</time>
      </trkpt>
      <trkpt lat="28.90415" lon="-13.83243">
        <ele>36</ele>
        <time>2021-07-04 10:20:37</time>
      </trkpt>
      <trkpt lat="28.90407" lon="-13.83245">
        <ele>35.8</ele>
        <time>2021-07-04 10:20:38</time>
      </trkpt>
      <trkpt lat="28.90398" lon="-13.83249">
        <ele>35.8</ele>
        <time>2021-07-04 10:20:39</time>
      </trkpt>
      <trkpt lat="28.90389" lon="-13.83252">
        <ele>35.4</ele>
        <time>2021-07-04 10:20:40</time>
      </trkpt>
      <trkpt lat="28.90379" lon="-13.83254">
        <ele>35</ele>
        <time>2021-07-04 10:20:41</time>
      </trkpt>
      <trkpt lat="28.9037" lon="-13.83258">
        <ele>34.8</ele>
        <time>2021-07-04 10:20:42</time>
      </trkpt>
      <trkpt lat="28.90361" lon="-13.83261">
        <ele>34.8</ele>
        <time>2021-07-04 10:20:43</time>
      </trkpt>
      <trkpt lat="28.90351" lon="-13.83264">
        <ele>34.4</ele>
        <time>2021-07-04 10:20:44</time>
      </trkpt>
      <trkpt lat="28.90342" lon="-13.83267">
        <ele>34.4</ele>
        <time>2021-07-04 10:20:45</time>
      </trkpt>
      <trkpt lat="28.90333" lon="-13.8327">
        <ele>34</ele>
        <time>2021-07-04 10:20:46</time>
      </trkpt>
      <trkpt lat="28.90324" lon="-13.83273">
        <ele>33.8</ele>
        <time>2021-07-04 10:20:47</time>
      </trkpt>
      <trkpt lat="28.90314" lon="-13.83276">
        <ele>33.8</ele>
        <time>2021-07-04 10:20:48</time>
      </trkpt>
      <trkpt lat="28.90305" lon="-13.83279">
        <ele>33.4</ele>
        <time>2021-07-04 10:20:49</time>
      </trkpt>
      <trkpt lat="28.90296" lon="-13.83282">
        <ele>33.4</ele>
        <time>2021-07-04 10:20:50</time>
      </trkpt>
      <trkpt lat="28.90287" lon="-13.83285">
        <ele>33.2</ele>
        <time>2021-07-04 10:20:51</time>
      </trkpt>
      <trkpt lat="28.90278" lon="-13.83288">
        <ele>33.2</ele>
        <time>2021-07-04 10:20:52</time>
      </trkpt>
      <trkpt lat="28.90269" lon="-13.83292">
        <ele>33.2</ele>
        <time>2021-07-04 10:20:53</time>
      </trkpt>
      <trkpt lat="28.9026" lon="-13.83294">
        <ele>33</ele>
        <time>2021-07-04 10:20:54</time>
      </trkpt>
      <trkpt lat="28.90251" lon="-13.83298">
        <ele>33</ele>
        <time>2021-07-04 10:20:55</time>
      </trkpt>
      <trkpt lat="28.90242" lon="-13.83301">
        <ele>33</ele>
        <time>2021-07-04 10:20:56</time>
      </trkpt>
      <trkpt lat="28.90233" lon="-13.83303">
        <ele>33</ele>
        <time>2021-07-04 10:20:57</time>
      </trkpt>
      <trkpt lat="28.90223" lon="-13.83306">
        <ele>33</ele>
        <time>2021-07-04 10:20:58</time>
      </trkpt>
      <trkpt lat="28.90214" lon="-13.83309">
        <ele>33</ele>
        <time>2021-07-04 10:20:59</time>
      </trkpt>
      <trkpt lat="28.90205" lon="-13.83313">
        <ele>33.2</ele>
        <time>2021-07-04 10:21:00</time>
      </trkpt>
      <trkpt lat="28.90196" lon="-13.83316">
        <ele>33.2</ele>
        <time>2021-07-04 10:21:01</time>
      </trkpt>
      <trkpt lat="28.90187" lon="-13.83319">
        <ele>33.2</ele>
        <time>2021-07-04 10:21:02</time>
      </trkpt>
      <trkpt lat="28.90178" lon="-13.83322">
        <ele>33.4</ele>
        <time>2021-07-04 10:21:03</time>
      </trkpt>
      <trkpt lat="28.9017" lon="-13.83325">
        <ele>33.4</ele>
        <time>2021-07-04 10:21:04</time>
      </trkpt>
      <trkpt lat="28.90161" lon="-13.83328">
        <ele>33.4</ele>
        <time>2021-07-04 10:21:05</time>
      </trkpt>
      <trkpt lat="28.90152" lon="-13.83331">
        <ele>33.6</ele>
        <time>2021-07-04 10:21:06</time>
      </trkpt>
      <trkpt lat="28.90144" lon="-13.83334">
        <ele>33.6</ele>
        <time>2021-07-04 10:21:07</time>
      </trkpt>
      <trkpt lat="28.90135" lon="-13.83336">
        <ele>34</ele>
        <time>2021-07-04 10:21:08</time>
      </trkpt>
      <trkpt lat="28.90127" lon="-13.83339">
        <ele>34.4</ele>
        <time>2021-07-04 10:21:09</time>
      </trkpt>
      <trkpt lat="28.90119" lon="-13.83342">
        <ele>34.6</ele>
        <time>2021-07-04 10:21:10</time>
      </trkpt>
      <trkpt lat="28.90111" lon="-13.83345">
        <ele>34.8</ele>
        <time>2021-07-04 10:21:11</time>
      </trkpt>
      <trkpt lat="28.90103" lon="-13.83347">
        <ele>35</ele>
        <time>2021-07-04 10:21:12</time>
      </trkpt>
      <trkpt lat="28.90095" lon="-13.8335">
        <ele>35.2</ele>
        <time>2021-07-04 10:21:13</time>
      </trkpt>
      <trkpt lat="28.90087" lon="-13.83353">
        <ele>35.2</ele>
        <time>2021-07-04 10:21:14</time>
      </trkpt>
      <trkpt lat="28.90078" lon="-13.83356">
        <ele>35.6</ele>
        <time>2021-07-04 10:21:15</time>
      </trkpt>
      <trkpt lat="28.9007" lon="-13.83359">
        <ele>35.6</ele>
        <time>2021-07-04 10:21:16</time>
      </trkpt>
      <trkpt lat="28.90062" lon="-13.83361">
        <ele>35.8</ele>
        <time>2021-07-04 10:21:17</time>
      </trkpt>
      <trkpt lat="28.90054" lon="-13.83364">
        <ele>35.8</ele>
        <time>2021-07-04 10:21:18</time>
      </trkpt>
      <trkpt lat="28.90045" lon="-13.83367">
        <ele>35.8</ele>
        <time>2021-07-04 10:21:19</time>
      </trkpt>
      <trkpt lat="28.90037" lon="-13.83369">
        <ele>35.8</ele>
        <time>2021-07-04 10:21:20</time>
      </trkpt>
      <trkpt lat="28.90028" lon="-13.83372">
        <ele>36</ele>
        <time>2021-07-04 10:21:21</time>
      </trkpt>
      <trkpt lat="28.9002" lon="-13.83375">
        <ele>36</ele>
        <time>2021-07-04 10:21:22</time>
      </trkpt>
      <trkpt lat="28.90012" lon="-13.83378">
        <ele>36</ele>
        <time>2021-07-04 10:21:23</time>
      </trkpt>
      <trkpt lat="28.90003" lon="-13.83381">
        <ele>36</ele>
        <time>2021-07-04 10:21:24</time>
      </trkpt>
      <trkpt lat="28.89994" lon="-13.83383">
        <ele>36</ele>
        <time>2021-07-04 10:21:25</time>
      </trkpt>
      <trkpt lat="28.89986" lon="-13.83386">
        <ele>36</ele>
        <time>2021-07-04 10:21:26</time>
      </trkpt>
      <trkpt lat="28.89977" lon="-13.83389">
        <ele>36</ele>
        <time>2021-07-04 10:21:27</time>
      </trkpt>
      <trkpt lat="28.89968" lon="-13.83392">
        <ele>36</ele>
        <time>2021-07-04 10:21:28</time>
      </trkpt>
      <trkpt lat="28.89959" lon="-13.83395">
        <ele>36</ele>
        <time>2021-07-04 10:21:29</time>
      </trkpt>
      <trkpt lat="28.8995" lon="-13.83398">
        <ele>36</ele>
        <time>2021-07-04 10:21:30</time>
      </trkpt>
      <trkpt lat="28.89941" lon="-13.83401">
        <ele>36</ele>
        <time>2021-07-04 10:21:31</time>
      </trkpt>
      <trkpt lat="28.89932" lon="-13.83404">
        <ele>35.8</ele>
        <time>2021-07-04 10:21:32</time>
      </trkpt>
      <trkpt lat="28.89923" lon="-13.83407">
        <ele>35.8</ele>
        <time>2021-07-04 10:21:33</time>
      </trkpt>
      <trkpt lat="28.89913" lon="-13.8341">
        <ele>35.6</ele>
        <time>2021-07-04 10:21:34</time>
      </trkpt>
      <trkpt lat="28.89904" lon="-13.83414">
        <ele>35.6</ele>
        <time>2021-07-04 10:21:35</time>
      </trkpt>
      <trkpt lat="28.89895" lon="-13.83417">
        <ele>35.6</ele>
        <time>2021-07-04 10:21:36</time>
      </trkpt>
      <trkpt lat="28.89885" lon="-13.8342">
        <ele>35.2</ele>
        <time>2021-07-04 10:21:37</time>
      </trkpt>
      <trkpt lat="28.89876" lon="-13.83423">
        <ele>35.2</ele>
        <time>2021-07-04 10:21:38</time>
      </trkpt>
      <trkpt lat="28.89867" lon="-13.83427">
        <ele>35.2</ele>
        <time>2021-07-04 10:21:39</time>
      </trkpt>
      <trkpt lat="28.89858" lon="-13.83429">
        <ele>35.2</ele>
        <time>2021-07-04 10:21:40</time>
      </trkpt>
      <trkpt lat="28.89849" lon="-13.83432">
        <ele>35.2</ele>
        <time>2021-07-04 10:21:41</time>
      </trkpt>
      <trkpt lat="28.89849" lon="-13.83432">
        <ele>35.2</ele>
        <time>2021-07-04 10:21:42</time>
      </trkpt>
      <trkpt lat="28.89801" lon="-13.83448">
        <ele>35.2</ele>
        <time>2021-07-04 10:21:43</time>
      </trkpt>
      <trkpt lat="28.89793" lon="-13.83451">
        <ele>35.2</ele>
        <time>2021-07-04 10:21:44</time>
      </trkpt>
      <trkpt lat="28.89786" lon="-13.83454">
        <ele>35.4</ele>
        <time>2021-07-04 10:21:45</time>
      </trkpt>
      <trkpt lat="28.89778" lon="-13.83456">
        <ele>35.4</ele>
        <time>2021-07-04 10:21:46</time>
      </trkpt>
      <trkpt lat="28.8977" lon="-13.83459">
        <ele>35.6</ele>
        <time>2021-07-04 10:21:47</time>
      </trkpt>
      <trkpt lat="28.89762" lon="-13.83462">
        <ele>35.6</ele>
        <time>2021-07-04 10:21:48</time>
      </trkpt>
      <trkpt lat="28.89754" lon="-13.83464">
        <ele>36</ele>
        <time>2021-07-04 10:21:49</time>
      </trkpt>
      <trkpt lat="28.89747" lon="-13.83467">
        <ele>36.2</ele>
        <time>2021-07-04 10:21:50</time>
      </trkpt>
      <trkpt lat="28.89739" lon="-13.8347">
        <ele>36.4</ele>
        <time>2021-07-04 10:21:51</time>
      </trkpt>
      <trkpt lat="28.89731" lon="-13.83472">
        <ele>36.4</ele>
        <time>2021-07-04 10:21:52</time>
      </trkpt>
      <trkpt lat="28.89724" lon="-13.83475">
        <ele>36.8</ele>
        <time>2021-07-04 10:21:53</time>
      </trkpt>
      <trkpt lat="28.89716" lon="-13.83478">
        <ele>36.8</ele>
        <time>2021-07-04 10:21:54</time>
      </trkpt>
      <trkpt lat="28.89708" lon="-13.8348">
        <ele>37</ele>
        <time>2021-07-04 10:21:55</time>
      </trkpt>
      <trkpt lat="28.897" lon="-13.83483">
        <ele>37</ele>
        <time>2021-07-04 10:21:56</time>
      </trkpt>
      <trkpt lat="28.89692" lon="-13.83485">
        <ele>37</ele>
        <time>2021-07-04 10:21:57</time>
      </trkpt>
      <trkpt lat="28.89685" lon="-13.83488">
        <ele>37.2</ele>
        <time>2021-07-04 10:21:58</time>
      </trkpt>
      <trkpt lat="28.89685" lon="-13.83488">
        <ele>37.2</ele>
        <time>2021-07-04 10:21:59</time>
      </trkpt>
      <trkpt lat="28.89669" lon="-13.83492">
        <ele>37.6</ele>
        <time>2021-07-04 10:22:00</time>
      </trkpt>
      <trkpt lat="28.89662" lon="-13.83494">
        <ele>37.6</ele>
        <time>2021-07-04 10:22:01</time>
      </trkpt>
      <trkpt lat="28.89654" lon="-13.83495">
        <ele>37.6</ele>
        <time>2021-07-04 10:22:02</time>
      </trkpt>
      <trkpt lat="28.89646" lon="-13.83496">
        <ele>37.6</ele>
        <time>2021-07-04 10:22:03</time>
      </trkpt>
      <trkpt lat="28.89638" lon="-13.83497">
        <ele>37.6</ele>
        <time>2021-07-04 10:22:04</time>
      </trkpt>
      <trkpt lat="28.8963" lon="-13.83497">
        <ele>37.8</ele>
        <time>2021-07-04 10:22:05</time>
      </trkpt>
      <trkpt lat="28.89622" lon="-13.83497">
        <ele>37.8</ele>
        <time>2021-07-04 10:22:06</time>
      </trkpt>
      <trkpt lat="28.89613" lon="-13.83496">
        <ele>38</ele>
        <time>2021-07-04 10:22:07</time>
      </trkpt>
      <trkpt lat="28.89605" lon="-13.83496">
        <ele>38</ele>
        <time>2021-07-04 10:22:08</time>
      </trkpt>
      <trkpt lat="28.89605" lon="-13.83496">
        <ele>38</ele>
        <time>2021-07-04 10:22:09</time>
      </trkpt>
      <trkpt lat="28.89589" lon="-13.83493">
        <ele>38.2</ele>
        <time>2021-07-04 10:22:10</time>
      </trkpt>
      <trkpt lat="28.8958" lon="-13.83492">
        <ele>38.2</ele>
        <time>2021-07-04 10:22:11</time>
      </trkpt>
      <trkpt lat="28.89572" lon="-13.83491">
        <ele>38.2</ele>
        <time>2021-07-04 10:22:12</time>
      </trkpt>
      <trkpt lat="28.89563" lon="-13.83491">
        <ele>38.2</ele>
        <time>2021-07-04 10:22:13</time>
      </trkpt>
      <trkpt lat="28.89555" lon="-13.83489">
        <ele>38.4</ele>
        <time>2021-07-04 10:22:14</time>
      </trkpt>
      <trkpt lat="28.89547" lon="-13.83488">
        <ele>38.4</ele>
        <time>2021-07-04 10:22:15</time>
      </trkpt>
      <trkpt lat="28.89539" lon="-13.83487">
        <ele>38.8</ele>
        <time>2021-07-04 10:22:16</time>
      </trkpt>
      <trkpt lat="28.89531" lon="-13.83486">
        <ele>38.8</ele>
        <time>2021-07-04 10:22:17</time>
      </trkpt>
      <trkpt lat="28.89523" lon="-13.83484">
        <ele>39</ele>
        <time>2021-07-04 10:22:18</time>
      </trkpt>
      <trkpt lat="28.89515" lon="-13.83483">
        <ele>39</ele>
        <time>2021-07-04 10:22:19</time>
      </trkpt>
      <trkpt lat="28.89507" lon="-13.83482">
        <ele>39.2</ele>
        <time>2021-07-04 10:22:20</time>
      </trkpt>
      <trkpt lat="28.895" lon="-13.83481">
        <ele>39.6</ele>
        <time>2021-07-04 10:22:21</time>
      </trkpt>
      <trkpt lat="28.89492" lon="-13.8348">
        <ele>39.8</ele>
        <time>2021-07-04 10:22:22</time>
      </trkpt>
      <trkpt lat="28.89484" lon="-13.83479">
        <ele>39.8</ele>
        <time>2021-07-04 10:22:23</time>
      </trkpt>
      <trkpt lat="28.89477" lon="-13.83478">
        <ele>40.2</ele>
        <time>2021-07-04 10:22:24</time>
      </trkpt>
      <trkpt lat="28.8947" lon="-13.83476">
        <ele>40.2</ele>
        <time>2021-07-04 10:22:25</time>
      </trkpt>
      <trkpt lat="28.89463" lon="-13.83476">
        <ele>40.2</ele>
        <time>2021-07-04 10:22:26</time>
      </trkpt>
      <trkpt lat="28.89455" lon="-13.83475">
        <ele>40.8</ele>
        <time>2021-07-04 10:22:27</time>
      </trkpt>
      <trkpt lat="28.89448" lon="-13.83473">
        <ele>41</ele>
        <time>2021-07-04 10:22:28</time>
      </trkpt>
      <trkpt lat="28.8944" lon="-13.83473">
        <ele>41</ele>
        <time>2021-07-04 10:22:29</time>
      </trkpt>
      <trkpt lat="28.89433" lon="-13.83472">
        <ele>41.2</ele>
        <time>2021-07-04 10:22:30</time>
      </trkpt>
      <trkpt lat="28.89425" lon="-13.8347">
        <ele>41.2</ele>
        <time>2021-07-04 10:22:31</time>
      </trkpt>
      <trkpt lat="28.89417" lon="-13.83469">
        <ele>41.2</ele>
        <time>2021-07-04 10:22:32</time>
      </trkpt>
      <trkpt lat="28.89409" lon="-13.83469">
        <ele>41.6</ele>
        <time>2021-07-04 10:22:33</time>
      </trkpt>
      <trkpt lat="28.89401" lon="-13.83467">
        <ele>41.6</ele>
        <time>2021-07-04 10:22:34</time>
      </trkpt>
      <trkpt lat="28.89393" lon="-13.83466">
        <ele>41.6</ele>
        <time>2021-07-04 10:22:35</time>
      </trkpt>
      <trkpt lat="28.89384" lon="-13.83465">
        <ele>41.6</ele>
        <time>2021-07-04 10:22:36</time>
      </trkpt>
      <trkpt lat="28.89376" lon="-13.83464">
        <ele>41.6</ele>
        <time>2021-07-04 10:22:37</time>
      </trkpt>
      <trkpt lat="28.89368" lon="-13.83463">
        <ele>41.8</ele>
        <time>2021-07-04 10:22:38</time>
      </trkpt>
      <trkpt lat="28.8936" lon="-13.83461">
        <ele>41.8</ele>
        <time>2021-07-04 10:22:39</time>
      </trkpt>
      <trkpt lat="28.89352" lon="-13.8346">
        <ele>41.8</ele>
        <time>2021-07-04 10:22:40</time>
      </trkpt>
      <trkpt lat="28.89344" lon="-13.83458">
        <ele>41.8</ele>
        <time>2021-07-04 10:22:41</time>
      </trkpt>
      <trkpt lat="28.89335" lon="-13.83457">
        <ele>41.8</ele>
        <time>2021-07-04 10:22:42</time>
      </trkpt>
      <trkpt lat="28.89327" lon="-13.83456">
        <ele>42</ele>
        <time>2021-07-04 10:22:43</time>
      </trkpt>
      <trkpt lat="28.89318" lon="-13.83455">
        <ele>42</ele>
        <time>2021-07-04 10:22:44</time>
      </trkpt>
      <trkpt lat="28.8931" lon="-13.83454">
        <ele>42</ele>
        <time>2021-07-04 10:22:45</time>
      </trkpt>
      <trkpt lat="28.89302" lon="-13.83453">
        <ele>42</ele>
        <time>2021-07-04 10:22:46</time>
      </trkpt>
      <trkpt lat="28.89294" lon="-13.83452">
        <ele>42</ele>
        <time>2021-07-04 10:22:47</time>
      </trkpt>
      <trkpt lat="28.89285" lon="-13.8345">
        <ele>42</ele>
        <time>2021-07-04 10:22:48</time>
      </trkpt>
      <trkpt lat="28.89278" lon="-13.83449">
        <ele>42</ele>
        <time>2021-07-04 10:22:49</time>
      </trkpt>
      <trkpt lat="28.8927" lon="-13.83448">
        <ele>42</ele>
        <time>2021-07-04 10:22:50</time>
      </trkpt>
      <trkpt lat="28.89262" lon="-13.83447">
        <ele>42.2</ele>
        <time>2021-07-04 10:22:51</time>
      </trkpt>
      <trkpt lat="28.89254" lon="-13.83445">
        <ele>42.2</ele>
        <time>2021-07-04 10:22:52</time>
      </trkpt>
      <trkpt lat="28.89246" lon="-13.83445">
        <ele>42.2</ele>
        <time>2021-07-04 10:22:53</time>
      </trkpt>
      <trkpt lat="28.89238" lon="-13.83443">
        <ele>42.2</ele>
        <time>2021-07-04 10:22:54</time>
      </trkpt>
      <trkpt lat="28.8923" lon="-13.83442">
        <ele>42.2</ele>
        <time>2021-07-04 10:22:55</time>
      </trkpt>
      <trkpt lat="28.89222" lon="-13.83441">
        <ele>42.4</ele>
        <time>2021-07-04 10:22:56</time>
      </trkpt>
      <trkpt lat="28.89214" lon="-13.8344">
        <ele>42.4</ele>
        <time>2021-07-04 10:22:57</time>
      </trkpt>
      <trkpt lat="28.89206" lon="-13.83438">
        <ele>42.4</ele>
        <time>2021-07-04 10:22:58</time>
      </trkpt>
      <trkpt lat="28.89199" lon="-13.83437">
        <ele>42.8</ele>
        <time>2021-07-04 10:22:59</time>
      </trkpt>
      <trkpt lat="28.89191" lon="-13.83436">
        <ele>42.8</ele>
        <time>2021-07-04 10:23:00</time>
      </trkpt>
      <trkpt lat="28.89183" lon="-13.83435">
        <ele>43</ele>
        <time>2021-07-04 10:23:01</time>
      </trkpt>
      <trkpt lat="28.89175" lon="-13.83434">
        <ele>43</ele>
        <time>2021-07-04 10:23:02</time>
      </trkpt>
      <trkpt lat="28.89167" lon="-13.83433">
        <ele>43.4</ele>
        <time>2021-07-04 10:23:03</time>
      </trkpt>
      <trkpt lat="28.89159" lon="-13.83432">
        <ele>43.6</ele>
        <time>2021-07-04 10:23:04</time>
      </trkpt>
      <trkpt lat="28.89151" lon="-13.83431">
        <ele>43.6</ele>
        <time>2021-07-04 10:23:05</time>
      </trkpt>
      <trkpt lat="28.89144" lon="-13.8343">
        <ele>44</ele>
        <time>2021-07-04 10:23:06</time>
      </trkpt>
      <trkpt lat="28.89136" lon="-13.83429">
        <ele>44.2</ele>
        <time>2021-07-04 10:23:07</time>
      </trkpt>
      <trkpt lat="28.89128" lon="-13.83427">
        <ele>44.4</ele>
        <time>2021-07-04 10:23:08</time>
      </trkpt>
      <trkpt lat="28.8912" lon="-13.83427">
        <ele>44.6</ele>
        <time>2021-07-04 10:23:09</time>
      </trkpt>
      <trkpt lat="28.89113" lon="-13.83425">
        <ele>44.6</ele>
        <time>2021-07-04 10:23:10</time>
      </trkpt>
      <trkpt lat="28.89105" lon="-13.83425">
        <ele>44.8</ele>
        <time>2021-07-04 10:23:11</time>
      </trkpt>
      <trkpt lat="28.89097" lon="-13.83423">
        <ele>44.8</ele>
        <time>2021-07-04 10:23:12</time>
      </trkpt>
      <trkpt lat="28.89089" lon="-13.83422">
        <ele>45.2</ele>
        <time>2021-07-04 10:23:13</time>
      </trkpt>
      <trkpt lat="28.89081" lon="-13.83421">
        <ele>45.2</ele>
        <time>2021-07-04 10:23:14</time>
      </trkpt>
      <trkpt lat="28.89073" lon="-13.8342">
        <ele>45.6</ele>
        <time>2021-07-04 10:23:15</time>
      </trkpt>
      <trkpt lat="28.89066" lon="-13.83418">
        <ele>45.6</ele>
        <time>2021-07-04 10:23:16</time>
      </trkpt>
      <trkpt lat="28.89058" lon="-13.83417">
        <ele>45.8</ele>
        <time>2021-07-04 10:23:17</time>
      </trkpt>
      <trkpt lat="28.8905" lon="-13.83416">
        <ele>45.8</ele>
        <time>2021-07-04 10:23:18</time>
      </trkpt>
      <trkpt lat="28.89042" lon="-13.83415">
        <ele>46.2</ele>
        <time>2021-07-04 10:23:19</time>
      </trkpt>
      <trkpt lat="28.89034" lon="-13.83414">
        <ele>46.4</ele>
        <time>2021-07-04 10:23:20</time>
      </trkpt>
      <trkpt lat="28.89026" lon="-13.83412">
        <ele>46.4</ele>
        <time>2021-07-04 10:23:21</time>
      </trkpt>
      <trkpt lat="28.89019" lon="-13.83412">
        <ele>46.8</ele>
        <time>2021-07-04 10:23:22</time>
      </trkpt>
      <trkpt lat="28.89011" lon="-13.83411">
        <ele>46.8</ele>
        <time>2021-07-04 10:23:23</time>
      </trkpt>
      <trkpt lat="28.89003" lon="-13.83409">
        <ele>47</ele>
        <time>2021-07-04 10:23:24</time>
      </trkpt>
      <trkpt lat="28.88995" lon="-13.83409">
        <ele>47.2</ele>
        <time>2021-07-04 10:23:25</time>
      </trkpt>
      <trkpt lat="28.88988" lon="-13.83407">
        <ele>47.6</ele>
        <time>2021-07-04 10:23:26</time>
      </trkpt>
      <trkpt lat="28.8898" lon="-13.83406">
        <ele>47.6</ele>
        <time>2021-07-04 10:23:27</time>
      </trkpt>
      <trkpt lat="28.88973" lon="-13.83405">
        <ele>47.8</ele>
        <time>2021-07-04 10:23:28</time>
      </trkpt>
      <trkpt lat="28.88965" lon="-13.83405">
        <ele>47.8</ele>
        <time>2021-07-04 10:23:29</time>
      </trkpt>
      <trkpt lat="28.88958" lon="-13.83403">
        <ele>48.2</ele>
        <time>2021-07-04 10:23:30</time>
      </trkpt>
      <trkpt lat="28.88951" lon="-13.83402">
        <ele>48.2</ele>
        <time>2021-07-04 10:23:31</time>
      </trkpt>
      <trkpt lat="28.88944" lon="-13.83401">
        <ele>48.2</ele>
        <time>2021-07-04 10:23:32</time>
      </trkpt>
      <trkpt lat="28.88938" lon="-13.834">
        <ele>48.2</ele>
        <time>2021-07-04 10:23:33</time>
      </trkpt>
      <trkpt lat="28.88931" lon="-13.83399">
        <ele>48.6</ele>
        <time>2021-07-04 10:23:34</time>
      </trkpt>
      <trkpt lat="28.88924" lon="-13.83398">
        <ele>48.6</ele>
        <time>2021-07-04 10:23:35</time>
      </trkpt>
      <trkpt lat="28.88917" lon="-13.83397">
        <ele>48.6</ele>
        <time>2021-07-04 10:23:36</time>
      </trkpt>
      <trkpt lat="28.8891" lon="-13.83395">
        <ele>48.8</ele>
        <time>2021-07-04 10:23:37</time>
      </trkpt>
      <trkpt lat="28.88903" lon="-13.83395">
        <ele>48.8</ele>
        <time>2021-07-04 10:23:38</time>
      </trkpt>
      <trkpt lat="28.88896" lon="-13.83394">
        <ele>49</ele>
        <time>2021-07-04 10:23:39</time>
      </trkpt>
      <trkpt lat="28.88889" lon="-13.83392">
        <ele>49</ele>
        <time>2021-07-04 10:23:40</time>
      </trkpt>
      <trkpt lat="28.88882" lon="-13.83391">
        <ele>49.2</ele>
        <time>2021-07-04 10:23:41</time>
      </trkpt>
      <trkpt lat="28.88875" lon="-13.8339">
        <ele>49.2</ele>
        <time>2021-07-04 10:23:42</time>
      </trkpt>
      <trkpt lat="28.88868" lon="-13.83389">
        <ele>49.2</ele>
        <time>2021-07-04 10:23:43</time>
      </trkpt>
      <trkpt lat="28.88861" lon="-13.83388">
        <ele>49.4</ele>
        <time>2021-07-04 10:23:44</time>
      </trkpt>
      <trkpt lat="28.88854" lon="-13.83387">
        <ele>49.4</ele>
        <time>2021-07-04 10:23:45</time>
      </trkpt>
      <trkpt lat="28.88846" lon="-13.83386">
        <ele>49.4</ele>
        <time>2021-07-04 10:23:46</time>
      </trkpt>
      <trkpt lat="28.88839" lon="-13.83384">
        <ele>49.6</ele>
        <time>2021-07-04 10:23:47</time>
      </trkpt>
      <trkpt lat="28.88832" lon="-13.83383">
        <ele>49.6</ele>
        <time>2021-07-04 10:23:48</time>
      </trkpt>
      <trkpt lat="28.88824" lon="-13.83382">
        <ele>49.6</ele>
        <time>2021-07-04 10:23:49</time>
      </trkpt>
      <trkpt lat="28.88816" lon="-13.83381">
        <ele>49.6</ele>
        <time>2021-07-04 10:23:50</time>
      </trkpt>
      <trkpt lat="28.88808" lon="-13.83381">
        <ele>49.6</ele>
        <time>2021-07-04 10:23:51</time>
      </trkpt>
      <trkpt lat="28.88801" lon="-13.83379">
        <ele>49.6</ele>
        <time>2021-07-04 10:23:52</time>
      </trkpt>
      <trkpt lat="28.88793" lon="-13.83378">
        <ele>50</ele>
        <time>2021-07-04 10:23:53</time>
      </trkpt>
      <trkpt lat="28.88785" lon="-13.83378">
        <ele>49.4</ele>
        <time>2021-07-04 10:23:54</time>
      </trkpt>
      <trkpt lat="28.88777" lon="-13.83376">
        <ele>49.4</ele>
        <time>2021-07-04 10:23:55</time>
      </trkpt>
      <trkpt lat="28.88769" lon="-13.83376">
        <ele>49.4</ele>
        <time>2021-07-04 10:23:56</time>
      </trkpt>
      <trkpt lat="28.88761" lon="-13.83375">
        <ele>49.4</ele>
        <time>2021-07-04 10:23:57</time>
      </trkpt>
      <trkpt lat="28.88752" lon="-13.83373">
        <ele>49.2</ele>
        <time>2021-07-04 10:23:58</time>
      </trkpt>
      <trkpt lat="28.88744" lon="-13.83372">
        <ele>49</ele>
        <time>2021-07-04 10:23:59</time>
      </trkpt>
      <trkpt lat="28.88735" lon="-13.8337">
        <ele>48.8</ele>
        <time>2021-07-04 10:24:00</time>
      </trkpt>
      <trkpt lat="28.88727" lon="-13.83369">
        <ele>48.8</ele>
        <time>2021-07-04 10:24:01</time>
      </trkpt>
      <trkpt lat="28.88718" lon="-13.83368">
        <ele>48.4</ele>
        <time>2021-07-04 10:24:02</time>
      </trkpt>
      <trkpt lat="28.88709" lon="-13.83366">
        <ele>48.4</ele>
        <time>2021-07-04 10:24:03</time>
      </trkpt>
      <trkpt lat="28.887" lon="-13.83365">
        <ele>48.2</ele>
        <time>2021-07-04 10:24:04</time>
      </trkpt>
      <trkpt lat="28.88691" lon="-13.83363">
        <ele>48.2</ele>
        <time>2021-07-04 10:24:05</time>
      </trkpt>
      <trkpt lat="28.88682" lon="-13.83361">
        <ele>47.8</ele>
        <time>2021-07-04 10:24:06</time>
      </trkpt>
      <trkpt lat="28.88672" lon="-13.8336">
        <ele>47.8</ele>
        <time>2021-07-04 10:24:07</time>
      </trkpt>
      <trkpt lat="28.88663" lon="-13.83359">
        <ele>47.6</ele>
        <time>2021-07-04 10:24:08</time>
      </trkpt>
      <trkpt lat="28.88654" lon="-13.83357">
        <ele>47.6</ele>
        <time>2021-07-04 10:24:09</time>
      </trkpt>
      <trkpt lat="28.88644" lon="-13.83356">
        <ele>47.2</ele>
        <time>2021-07-04 10:24:10</time>
      </trkpt>
      <trkpt lat="28.88635" lon="-13.83354">
        <ele>47.2</ele>
        <time>2021-07-04 10:24:11</time>
      </trkpt>
      <trkpt lat="28.88626" lon="-13.83353">
        <ele>47</ele>
        <time>2021-07-04 10:24:12</time>
      </trkpt>
      <trkpt lat="28.88617" lon="-13.83351">
        <ele>47</ele>
        <time>2021-07-04 10:24:13</time>
      </trkpt>
      <trkpt lat="28.88608" lon="-13.8335">
        <ele>47</ele>
        <time>2021-07-04 10:24:14</time>
      </trkpt>
      <trkpt lat="28.88599" lon="-13.83348">
        <ele>47</ele>
        <time>2021-07-04 10:24:15</time>
      </trkpt>
      <trkpt lat="28.8859" lon="-13.83346">
        <ele>47</ele>
        <time>2021-07-04 10:24:16</time>
      </trkpt>
      <trkpt lat="28.88581" lon="-13.83345">
        <ele>47</ele>
        <time>2021-07-04 10:24:17</time>
      </trkpt>
      <trkpt lat="28.88572" lon="-13.83344">
        <ele>47</ele>
        <time>2021-07-04 10:24:18</time>
      </trkpt>
      <trkpt lat="28.88563" lon="-13.83342">
        <ele>47</ele>
        <time>2021-07-04 10:24:19</time>
      </trkpt>
      <trkpt lat="28.88555" lon="-13.83341">
        <ele>47</ele>
        <time>2021-07-04 10:24:20</time>
      </trkpt>
      <trkpt lat="28.88546" lon="-13.8334">
        <ele>47</ele>
        <time>2021-07-04 10:24:21</time>
      </trkpt>
      <trkpt lat="28.88537" lon="-13.83339">
        <ele>47</ele>
        <time>2021-07-04 10:24:22</time>
      </trkpt>
      <trkpt lat="28.88529" lon="-13.83337">
        <ele>47</ele>
        <time>2021-07-04 10:24:23</time>
      </trkpt>
      <trkpt lat="28.8852" lon="-13.83335">
        <ele>47</ele>
        <time>2021-07-04 10:24:24</time>
      </trkpt>
      <trkpt lat="28.88511" lon="-13.83334">
        <ele>47</ele>
        <time>2021-07-04 10:24:25</time>
      </trkpt>
      <trkpt lat="28.88502" lon="-13.83333">
        <ele>47</ele>
        <time>2021-07-04 10:24:26</time>
      </trkpt>
      <trkpt lat="28.88494" lon="-13.83333">
        <ele>47</ele>
        <time>2021-07-04 10:24:27</time>
      </trkpt>
      <trkpt lat="28.88485" lon="-13.83331">
        <ele>47</ele>
        <time>2021-07-04 10:24:28</time>
      </trkpt>
      <trkpt lat="28.88476" lon="-13.8333">
        <ele>47</ele>
        <time>2021-07-04 10:24:29</time>
      </trkpt>
      <trkpt lat="28.88466" lon="-13.83329">
        <ele>47</ele>
        <time>2021-07-04 10:24:30</time>
      </trkpt>
      <trkpt lat="28.88457" lon="-13.83327">
        <ele>47</ele>
        <time>2021-07-04 10:24:31</time>
      </trkpt>
      <trkpt lat="28.88448" lon="-13.83325">
        <ele>46.8</ele>
        <time>2021-07-04 10:24:32</time>
      </trkpt>
      <trkpt lat="28.88438" lon="-13.83324">
        <ele>46.8</ele>
        <time>2021-07-04 10:24:33</time>
      </trkpt>
      <trkpt lat="28.88428" lon="-13.83323">
        <ele>46.8</ele>
        <time>2021-07-04 10:24:34</time>
      </trkpt>
      <trkpt lat="28.88419" lon="-13.83321">
        <ele>46.8</ele>
        <time>2021-07-04 10:24:35</time>
      </trkpt>
      <trkpt lat="28.88409" lon="-13.8332">
        <ele>46.6</ele>
        <time>2021-07-04 10:24:36</time>
      </trkpt>
      <trkpt lat="28.88399" lon="-13.83318">
        <ele>46.6</ele>
        <time>2021-07-04 10:24:37</time>
      </trkpt>
      <trkpt lat="28.8839" lon="-13.83317">
        <ele>46.6</ele>
        <time>2021-07-04 10:24:38</time>
      </trkpt>
      <trkpt lat="28.8838" lon="-13.83315">
        <ele>46.6</ele>
        <time>2021-07-04 10:24:39</time>
      </trkpt>
      <trkpt lat="28.8837" lon="-13.83313">
        <ele>46.6</ele>
        <time>2021-07-04 10:24:40</time>
      </trkpt>
      <trkpt lat="28.8836" lon="-13.83311">
        <ele>46.6</ele>
        <time>2021-07-04 10:24:41</time>
      </trkpt>
      <trkpt lat="28.88351" lon="-13.8331">
        <ele>46.6</ele>
        <time>2021-07-04 10:24:42</time>
      </trkpt>
      <trkpt lat="28.88341" lon="-13.83309">
        <ele>46.6</ele>
        <time>2021-07-04 10:24:43</time>
      </trkpt>
      <trkpt lat="28.88332" lon="-13.83308">
        <ele>46.6</ele>
        <time>2021-07-04 10:24:44</time>
      </trkpt>
      <trkpt lat="28.88322" lon="-13.83306">
        <ele>46.4</ele>
        <time>2021-07-04 10:24:45</time>
      </trkpt>
      <trkpt lat="28.88312" lon="-13.83305">
        <ele>46.4</ele>
        <time>2021-07-04 10:24:46</time>
      </trkpt>
      <trkpt lat="28.88303" lon="-13.83303">
        <ele>46.4</ele>
        <time>2021-07-04 10:24:47</time>
      </trkpt>
      <trkpt lat="28.88293" lon="-13.83302">
        <ele>46.4</ele>
        <time>2021-07-04 10:24:48</time>
      </trkpt>
      <trkpt lat="28.88283" lon="-13.83301">
        <ele>46.4</ele>
        <time>2021-07-04 10:24:49</time>
      </trkpt>
      <trkpt lat="28.88273" lon="-13.83299">
        <ele>46.4</ele>
        <time>2021-07-04 10:24:50</time>
      </trkpt>
      <trkpt lat="28.88263" lon="-13.83297">
        <ele>46.4</ele>
        <time>2021-07-04 10:24:51</time>
      </trkpt>
      <trkpt lat="28.88253" lon="-13.83297">
        <ele>46.4</ele>
        <time>2021-07-04 10:24:52</time>
      </trkpt>
      <trkpt lat="28.88242" lon="-13.83295">
        <ele>46.4</ele>
        <time>2021-07-04 10:24:53</time>
      </trkpt>
      <trkpt lat="28.88232" lon="-13.83293">
        <ele>46.4</ele>
        <time>2021-07-04 10:24:54</time>
      </trkpt>
      <trkpt lat="28.88221" lon="-13.83292">
        <ele>46.4</ele>
        <time>2021-07-04 10:24:55</time>
      </trkpt>
      <trkpt lat="28.8821" lon="-13.8329">
        <ele>46.4</ele>
        <time>2021-07-04 10:24:56</time>
      </trkpt>
      <trkpt lat="28.882" lon="-13.83289">
        <ele>46</ele>
        <time>2021-07-04 10:24:57</time>
      </trkpt>
      <trkpt lat="28.88189" lon="-13.83287">
        <ele>45.8</ele>
        <time>2021-07-04 10:24:58</time>
      </trkpt>
      <trkpt lat="28.88178" lon="-13.83286">
        <ele>45.6</ele>
        <time>2021-07-04 10:24:59</time>
      </trkpt>
      <trkpt lat="28.88167" lon="-13.83284">
        <ele>45.2</ele>
        <time>2021-07-04 10:25:00</time>
      </trkpt>
      <trkpt lat="28.88155" lon="-13.83283">
        <ele>45</ele>
        <time>2021-07-04 10:25:01</time>
      </trkpt>
      <trkpt lat="28.88145" lon="-13.83281">
        <ele>44.8</ele>
        <time>2021-07-04 10:25:02</time>
      </trkpt>
      <trkpt lat="28.88133" lon="-13.8328">
        <ele>44.4</ele>
        <time>2021-07-04 10:25:03</time>
      </trkpt>
      <trkpt lat="28.88122" lon="-13.83278">
        <ele>44.2</ele>
        <time>2021-07-04 10:25:04</time>
      </trkpt>
      <trkpt lat="28.88111" lon="-13.83276">
        <ele>44</ele>
        <time>2021-07-04 10:25:05</time>
      </trkpt>
      <trkpt lat="28.881" lon="-13.83275">
        <ele>44</ele>
        <time>2021-07-04 10:25:06</time>
      </trkpt>
      <trkpt lat="28.88089" lon="-13.83273">
        <ele>43.6</ele>
        <time>2021-07-04 10:25:07</time>
      </trkpt>
      <trkpt lat="28.88078" lon="-13.83271">
        <ele>43.4</ele>
        <time>2021-07-04 10:25:08</time>
      </trkpt>
      <trkpt lat="28.88068" lon="-13.8327">
        <ele>43.4</ele>
        <time>2021-07-04 10:25:09</time>
      </trkpt>
      <trkpt lat="28.88057" lon="-13.83268">
        <ele>43</ele>
        <time>2021-07-04 10:25:10</time>
      </trkpt>
      <trkpt lat="28.88046" lon="-13.83266">
        <ele>43</ele>
        <time>2021-07-04 10:25:11</time>
      </trkpt>
      <trkpt lat="28.88035" lon="-13.83264">
        <ele>42.8</ele>
        <time>2021-07-04 10:25:12</time>
      </trkpt>
      <trkpt lat="28.88024" lon="-13.83263">
        <ele>42.8</ele>
        <time>2021-07-04 10:25:13</time>
      </trkpt>
      <trkpt lat="28.88014" lon="-13.83261">
        <ele>42.6</ele>
        <time>2021-07-04 10:25:14</time>
      </trkpt>
      <trkpt lat="28.88003" lon="-13.83259">
        <ele>42.6</ele>
        <time>2021-07-04 10:25:15</time>
      </trkpt>
      <trkpt lat="28.87992" lon="-13.83258">
        <ele>42.2</ele>
        <time>2021-07-04 10:25:16</time>
      </trkpt>
      <trkpt lat="28.87981" lon="-13.83256">
        <ele>42.2</ele>
        <time>2021-07-04 10:25:17</time>
      </trkpt>
      <trkpt lat="28.87971" lon="-13.83255">
        <ele>42</ele>
        <time>2021-07-04 10:25:18</time>
      </trkpt>
      <trkpt lat="28.8796" lon="-13.83253">
        <ele>42</ele>
        <time>2021-07-04 10:25:19</time>
      </trkpt>
      <trkpt lat="28.87949" lon="-13.83252">
        <ele>42</ele>
        <time>2021-07-04 10:25:20</time>
      </trkpt>
      <trkpt lat="28.87939" lon="-13.83251">
        <ele>41.6</ele>
        <time>2021-07-04 10:25:21</time>
      </trkpt>
      <trkpt lat="28.87928" lon="-13.83249">
        <ele>41.6</ele>
        <time>2021-07-04 10:25:22</time>
      </trkpt>
      <trkpt lat="28.87917" lon="-13.83247">
        <ele>41.6</ele>
        <time>2021-07-04 10:25:23</time>
      </trkpt>
      <trkpt lat="28.87906" lon="-13.83246">
        <ele>41.6</ele>
        <time>2021-07-04 10:25:24</time>
      </trkpt>
      <trkpt lat="28.87896" lon="-13.83244">
        <ele>41.4</ele>
        <time>2021-07-04 10:25:25</time>
      </trkpt>
      <trkpt lat="28.87885" lon="-13.83243">
        <ele>41.4</ele>
        <time>2021-07-04 10:25:26</time>
      </trkpt>
      <trkpt lat="28.87874" lon="-13.83241">
        <ele>41.4</ele>
        <time>2021-07-04 10:25:27</time>
      </trkpt>
      <trkpt lat="28.87864" lon="-13.83239">
        <ele>41</ele>
        <time>2021-07-04 10:25:28</time>
      </trkpt>
      <trkpt lat="28.87853" lon="-13.83238">
        <ele>41</ele>
        <time>2021-07-04 10:25:29</time>
      </trkpt>
      <trkpt lat="28.87843" lon="-13.83236">
        <ele>40.8</ele>
        <time>2021-07-04 10:25:30</time>
      </trkpt>
      <trkpt lat="28.87833" lon="-13.83235">
        <ele>40.6</ele>
        <time>2021-07-04 10:25:31</time>
      </trkpt>
      <trkpt lat="28.87823" lon="-13.83234">
        <ele>39.6</ele>
        <time>2021-07-04 10:25:32</time>
      </trkpt>
      <trkpt lat="28.87813" lon="-13.83232">
        <ele>39.6</ele>
        <time>2021-07-04 10:25:33</time>
      </trkpt>
      <trkpt lat="28.87802" lon="-13.83231">
        <ele>39.6</ele>
        <time>2021-07-04 10:25:34</time>
      </trkpt>
      <trkpt lat="28.87793" lon="-13.83229">
        <ele>39.6</ele>
        <time>2021-07-04 10:25:35</time>
      </trkpt>
      <trkpt lat="28.87783" lon="-13.83228">
        <ele>39.6</ele>
        <time>2021-07-04 10:25:36</time>
      </trkpt>
      <trkpt lat="28.87774" lon="-13.83227">
        <ele>39.6</ele>
        <time>2021-07-04 10:25:37</time>
      </trkpt>
      <trkpt lat="28.87764" lon="-13.83225">
        <ele>39.8</ele>
        <time>2021-07-04 10:25:38</time>
      </trkpt>
      <trkpt lat="28.87755" lon="-13.83224">
        <ele>39.8</ele>
        <time>2021-07-04 10:25:39</time>
      </trkpt>
      <trkpt lat="28.87746" lon="-13.83223">
        <ele>40</ele>
        <time>2021-07-04 10:25:40</time>
      </trkpt>
      <trkpt lat="28.87737" lon="-13.83222">
        <ele>40</ele>
        <time>2021-07-04 10:25:41</time>
      </trkpt>
      <trkpt lat="28.87728" lon="-13.83221">
        <ele>40.4</ele>
        <time>2021-07-04 10:25:42</time>
      </trkpt>
      <trkpt lat="28.87719" lon="-13.8322">
        <ele>40.4</ele>
        <time>2021-07-04 10:25:43</time>
      </trkpt>
      <trkpt lat="28.8771" lon="-13.83218">
        <ele>40.4</ele>
        <time>2021-07-04 10:25:44</time>
      </trkpt>
      <trkpt lat="28.877" lon="-13.83217">
        <ele>40.4</ele>
        <time>2021-07-04 10:25:45</time>
      </trkpt>
      <trkpt lat="28.87691" lon="-13.83215">
        <ele>40.4</ele>
        <time>2021-07-04 10:25:46</time>
      </trkpt>
      <trkpt lat="28.87682" lon="-13.83214">
        <ele>40.4</ele>
        <time>2021-07-04 10:25:47</time>
      </trkpt>
      <trkpt lat="28.87673" lon="-13.83213">
        <ele>40.4</ele>
        <time>2021-07-04 10:25:48</time>
      </trkpt>
      <trkpt lat="28.87663" lon="-13.83212">
        <ele>40.4</ele>
        <time>2021-07-04 10:25:49</time>
      </trkpt>
      <trkpt lat="28.87654" lon="-13.83211">
        <ele>40.4</ele>
        <time>2021-07-04 10:25:50</time>
      </trkpt>
      <trkpt lat="28.87644" lon="-13.8321">
        <ele>40.4</ele>
        <time>2021-07-04 10:25:51</time>
      </trkpt>
      <trkpt lat="28.87635" lon="-13.83208">
        <ele>40.4</ele>
        <time>2021-07-04 10:25:52</time>
      </trkpt>
      <trkpt lat="28.87626" lon="-13.83207">
        <ele>40.4</ele>
        <time>2021-07-04 10:25:53</time>
      </trkpt>
      <trkpt lat="28.87616" lon="-13.83206">
        <ele>40.4</ele>
        <time>2021-07-04 10:25:54</time>
      </trkpt>
      <trkpt lat="28.87607" lon="-13.83205">
        <ele>40.4</ele>
        <time>2021-07-04 10:25:55</time>
      </trkpt>
      <trkpt lat="28.87597" lon="-13.83204">
        <ele>40.4</ele>
        <time>2021-07-04 10:25:56</time>
      </trkpt>
      <trkpt lat="28.87588" lon="-13.83203">
        <ele>40.4</ele>
        <time>2021-07-04 10:25:57</time>
      </trkpt>
      <trkpt lat="28.87578" lon="-13.83202">
        <ele>40.4</ele>
        <time>2021-07-04 10:25:58</time>
      </trkpt>
      <trkpt lat="28.87568" lon="-13.83201">
        <ele>40.6</ele>
        <time>2021-07-04 10:25:59</time>
      </trkpt>
      <trkpt lat="28.87559" lon="-13.832">
        <ele>40.6</ele>
        <time>2021-07-04 10:26:00</time>
      </trkpt>
      <trkpt lat="28.8755" lon="-13.83199">
        <ele>40.6</ele>
        <time>2021-07-04 10:26:01</time>
      </trkpt>
      <trkpt lat="28.8754" lon="-13.83198">
        <ele>40.6</ele>
        <time>2021-07-04 10:26:02</time>
      </trkpt>
      <trkpt lat="28.87531" lon="-13.83198">
        <ele>40.6</ele>
        <time>2021-07-04 10:26:03</time>
      </trkpt>
      <trkpt lat="28.87521" lon="-13.83197">
        <ele>40.6</ele>
        <time>2021-07-04 10:26:04</time>
      </trkpt>
      <trkpt lat="28.87512" lon="-13.83196">
        <ele>40.4</ele>
        <time>2021-07-04 10:26:05</time>
      </trkpt>
      <trkpt lat="28.87502" lon="-13.83196">
        <ele>40.4</ele>
        <time>2021-07-04 10:26:06</time>
      </trkpt>
      <trkpt lat="28.87493" lon="-13.83195">
        <ele>40.2</ele>
        <time>2021-07-04 10:26:07</time>
      </trkpt>
      <trkpt lat="28.87483" lon="-13.83194">
        <ele>40.2</ele>
        <time>2021-07-04 10:26:08</time>
      </trkpt>
      <trkpt lat="28.87474" lon="-13.83193">
        <ele>40.2</ele>
        <time>2021-07-04 10:26:09</time>
      </trkpt>
      <trkpt lat="28.87464" lon="-13.83192">
        <ele>40.2</ele>
        <time>2021-07-04 10:26:10</time>
      </trkpt>
      <trkpt lat="28.87454" lon="-13.83191">
        <ele>39.8</ele>
        <time>2021-07-04 10:26:11</time>
      </trkpt>
      <trkpt lat="28.87444" lon="-13.8319">
        <ele>39.4</ele>
        <time>2021-07-04 10:26:12</time>
      </trkpt>
      <trkpt lat="28.87434" lon="-13.8319">
        <ele>39.4</ele>
        <time>2021-07-04 10:26:13</time>
      </trkpt>
      <trkpt lat="28.87424" lon="-13.83189">
        <ele>39</ele>
        <time>2021-07-04 10:26:14</time>
      </trkpt>
      <trkpt lat="28.87413" lon="-13.83188">
        <ele>38.8</ele>
        <time>2021-07-04 10:26:15</time>
      </trkpt>
      <trkpt lat="28.87403" lon="-13.83188">
        <ele>38.4</ele>
        <time>2021-07-04 10:26:16</time>
      </trkpt>
      <trkpt lat="28.87392" lon="-13.83187">
        <ele>38.2</ele>
        <time>2021-07-04 10:26:17</time>
      </trkpt>
      <trkpt lat="28.87381" lon="-13.83186">
        <ele>38</ele>
        <time>2021-07-04 10:26:18</time>
      </trkpt>
      <trkpt lat="28.87371" lon="-13.83185">
        <ele>37.6</ele>
        <time>2021-07-04 10:26:19</time>
      </trkpt>
      <trkpt lat="28.8736" lon="-13.83184">
        <ele>37.4</ele>
        <time>2021-07-04 10:26:20</time>
      </trkpt>
      <trkpt lat="28.8735" lon="-13.83183">
        <ele>37.4</ele>
        <time>2021-07-04 10:26:21</time>
      </trkpt>
      <trkpt lat="28.87339" lon="-13.83183">
        <ele>37.2</ele>
        <time>2021-07-04 10:26:22</time>
      </trkpt>
      <trkpt lat="28.87329" lon="-13.83182">
        <ele>37.2</ele>
        <time>2021-07-04 10:26:23</time>
      </trkpt>
      <trkpt lat="28.87318" lon="-13.83181">
        <ele>37</ele>
        <time>2021-07-04 10:26:24</time>
      </trkpt>
      <trkpt lat="28.87308" lon="-13.83179">
        <ele>37</ele>
        <time>2021-07-04 10:26:25</time>
      </trkpt>
      <trkpt lat="28.87298" lon="-13.83178">
        <ele>37</ele>
        <time>2021-07-04 10:26:26</time>
      </trkpt>
      <trkpt lat="28.87287" lon="-13.83178">
        <ele>36.8</ele>
        <time>2021-07-04 10:26:27</time>
      </trkpt>
      <trkpt lat="28.87277" lon="-13.83177">
        <ele>36.8</ele>
        <time>2021-07-04 10:26:28</time>
      </trkpt>
      <trkpt lat="28.87267" lon="-13.83176">
        <ele>36.8</ele>
        <time>2021-07-04 10:26:29</time>
      </trkpt>
      <trkpt lat="28.87256" lon="-13.83175">
        <ele>36.8</ele>
        <time>2021-07-04 10:26:30</time>
      </trkpt>
      <trkpt lat="28.87247" lon="-13.83175">
        <ele>36.8</ele>
        <time>2021-07-04 10:26:31</time>
      </trkpt>
      <trkpt lat="28.87237" lon="-13.83174">
        <ele>36.8</ele>
        <time>2021-07-04 10:26:32</time>
      </trkpt>
      <trkpt lat="28.87227" lon="-13.83173">
        <ele>36.8</ele>
        <time>2021-07-04 10:26:33</time>
      </trkpt>
      <trkpt lat="28.87217" lon="-13.83172">
        <ele>36.8</ele>
        <time>2021-07-04 10:26:34</time>
      </trkpt>
      <trkpt lat="28.87207" lon="-13.83171">
        <ele>36.8</ele>
        <time>2021-07-04 10:26:35</time>
      </trkpt>
      <trkpt lat="28.87197" lon="-13.83171">
        <ele>36.6</ele>
        <time>2021-07-04 10:26:36</time>
      </trkpt>
      <trkpt lat="28.87188" lon="-13.8317">
        <ele>36.6</ele>
        <time>2021-07-04 10:26:37</time>
      </trkpt>
      <trkpt lat="28.87178" lon="-13.83169">
        <ele>36.6</ele>
        <time>2021-07-04 10:26:38</time>
      </trkpt>
      <trkpt lat="28.87169" lon="-13.83169">
        <ele>36.6</ele>
        <time>2021-07-04 10:26:39</time>
      </trkpt>
      <trkpt lat="28.8716" lon="-13.83168">
        <ele>36.6</ele>
        <time>2021-07-04 10:26:40</time>
      </trkpt>
      <trkpt lat="28.8715" lon="-13.83167">
        <ele>36.6</ele>
        <time>2021-07-04 10:26:41</time>
      </trkpt>
      <trkpt lat="28.8714" lon="-13.83166">
        <ele>36.6</ele>
        <time>2021-07-04 10:26:42</time>
      </trkpt>
      <trkpt lat="28.87131" lon="-13.83165">
        <ele>36.6</ele>
        <time>2021-07-04 10:26:43</time>
      </trkpt>
      <trkpt lat="28.87122" lon="-13.83164">
        <ele>36.6</ele>
        <time>2021-07-04 10:26:44</time>
      </trkpt>
      <trkpt lat="28.87112" lon="-13.83163">
        <ele>36.4</ele>
        <time>2021-07-04 10:26:45</time>
      </trkpt>
      <trkpt lat="28.87103" lon="-13.83163">
        <ele>36.4</ele>
        <time>2021-07-04 10:26:46</time>
      </trkpt>
      <trkpt lat="28.87093" lon="-13.83162">
        <ele>36.4</ele>
        <time>2021-07-04 10:26:47</time>
      </trkpt>
      <trkpt lat="28.87084" lon="-13.83162">
        <ele>36.4</ele>
        <time>2021-07-04 10:26:48</time>
      </trkpt>
      <trkpt lat="28.87075" lon="-13.83161">
        <ele>36.2</ele>
        <time>2021-07-04 10:26:49</time>
      </trkpt>
      <trkpt lat="28.87065" lon="-13.8316">
        <ele>36.2</ele>
        <time>2021-07-04 10:26:50</time>
      </trkpt>
      <trkpt lat="28.87056" lon="-13.83159">
        <ele>36.2</ele>
        <time>2021-07-04 10:26:51</time>
      </trkpt>
      <trkpt lat="28.87047" lon="-13.83158">
        <ele>36.2</ele>
        <time>2021-07-04 10:26:52</time>
      </trkpt>
      <trkpt lat="28.87038" lon="-13.83158">
        <ele>35.8</ele>
        <time>2021-07-04 10:26:53</time>
      </trkpt>
      <trkpt lat="28.87029" lon="-13.83157">
        <ele>35.6</ele>
        <time>2021-07-04 10:26:54</time>
      </trkpt>
      <trkpt lat="28.8702" lon="-13.83157">
        <ele>35.4</ele>
        <time>2021-07-04 10:26:55</time>
      </trkpt>
      <trkpt lat="28.87011" lon="-13.83156">
        <ele>35.2</ele>
        <time>2021-07-04 10:26:56</time>
      </trkpt>
      <trkpt lat="28.87002" lon="-13.83155">
        <ele>35.2</ele>
        <time>2021-07-04 10:26:57</time>
      </trkpt>
      <trkpt lat="28.86993" lon="-13.83155">
        <ele>35.2</ele>
        <time>2021-07-04 10:26:58</time>
      </trkpt>
      <trkpt lat="28.86985" lon="-13.83154">
        <ele>35.2</ele>
        <time>2021-07-04 10:26:59</time>
      </trkpt>
      <trkpt lat="28.86976" lon="-13.83153">
        <ele>35.2</ele>
        <time>2021-07-04 10:27:00</time>
      </trkpt>
      <trkpt lat="28.86968" lon="-13.83152">
        <ele>35.2</ele>
        <time>2021-07-04 10:27:01</time>
      </trkpt>
      <trkpt lat="28.8696" lon="-13.83151">
        <ele>35.2</ele>
        <time>2021-07-04 10:27:02</time>
      </trkpt>
      <trkpt lat="28.86951" lon="-13.8315">
        <ele>35.2</ele>
        <time>2021-07-04 10:27:03</time>
      </trkpt>
      <trkpt lat="28.86943" lon="-13.8315">
        <ele>35.2</ele>
        <time>2021-07-04 10:27:04</time>
      </trkpt>
      <trkpt lat="28.86935" lon="-13.83149">
        <ele>35.2</ele>
        <time>2021-07-04 10:27:05</time>
      </trkpt>
      <trkpt lat="28.86927" lon="-13.83149">
        <ele>35.2</ele>
        <time>2021-07-04 10:27:06</time>
      </trkpt>
      <trkpt lat="28.86919" lon="-13.83149">
        <ele>35.2</ele>
        <time>2021-07-04 10:27:07</time>
      </trkpt>
      <trkpt lat="28.86912" lon="-13.83151">
        <ele>35.2</ele>
        <time>2021-07-04 10:27:08</time>
      </trkpt>
      <trkpt lat="28.86905" lon="-13.83154">
        <ele>35.2</ele>
        <time>2021-07-04 10:27:09</time>
      </trkpt>
      <trkpt lat="28.869" lon="-13.83159">
        <ele>35.2</ele>
        <time>2021-07-04 10:27:10</time>
      </trkpt>
      <trkpt lat="28.86894" lon="-13.83163">
        <ele>35.2</ele>
        <time>2021-07-04 10:27:11</time>
      </trkpt>
      <trkpt lat="28.86888" lon="-13.83166">
        <ele>35.4</ele>
        <time>2021-07-04 10:27:12</time>
      </trkpt>
      <trkpt lat="28.86881" lon="-13.83167">
        <ele>35.4</ele>
        <time>2021-07-04 10:27:13</time>
      </trkpt>
      <trkpt lat="28.86874" lon="-13.83167">
        <ele>35.4</ele>
        <time>2021-07-04 10:27:14</time>
      </trkpt>
      <trkpt lat="28.86866" lon="-13.83166">
        <ele>35.4</ele>
        <time>2021-07-04 10:27:15</time>
      </trkpt>
      <trkpt lat="28.86859" lon="-13.83163">
        <ele>35.4</ele>
        <time>2021-07-04 10:27:16</time>
      </trkpt>
      <trkpt lat="28.86853" lon="-13.83158">
        <ele>35.4</ele>
        <time>2021-07-04 10:27:17</time>
      </trkpt>
      <trkpt lat="28.86847" lon="-13.83153">
        <ele>35.2</ele>
        <time>2021-07-04 10:27:18</time>
      </trkpt>
      <trkpt lat="28.86841" lon="-13.83148">
        <ele>35.2</ele>
        <time>2021-07-04 10:27:19</time>
      </trkpt>
      <trkpt lat="28.86834" lon="-13.83144">
        <ele>35.2</ele>
        <time>2021-07-04 10:27:20</time>
      </trkpt>
      <trkpt lat="28.86827" lon="-13.83141">
        <ele>35</ele>
        <time>2021-07-04 10:27:21</time>
      </trkpt>
      <trkpt lat="28.86819" lon="-13.83139">
        <ele>35</ele>
        <time>2021-07-04 10:27:22</time>
      </trkpt>
      <trkpt lat="28.86812" lon="-13.83136">
        <ele>35</ele>
        <time>2021-07-04 10:27:23</time>
      </trkpt>
      <trkpt lat="28.86804" lon="-13.83135">
        <ele>35.2</ele>
        <time>2021-07-04 10:27:24</time>
      </trkpt>
      <trkpt lat="28.86796" lon="-13.83134">
        <ele>35.2</ele>
        <time>2021-07-04 10:27:25</time>
      </trkpt>
      <trkpt lat="28.86788" lon="-13.83133">
        <ele>35.2</ele>
        <time>2021-07-04 10:27:26</time>
      </trkpt>
      <trkpt lat="28.8678" lon="-13.83132">
        <ele>35.2</ele>
        <time>2021-07-04 10:27:27</time>
      </trkpt>
      <trkpt lat="28.86772" lon="-13.83131">
        <ele>35.2</ele>
        <time>2021-07-04 10:27:28</time>
      </trkpt>
      <trkpt lat="28.86763" lon="-13.83131">
        <ele>35.2</ele>
        <time>2021-07-04 10:27:29</time>
      </trkpt>
      <trkpt lat="28.86755" lon="-13.8313">
        <ele>34.8</ele>
        <time>2021-07-04 10:27:30</time>
      </trkpt>
      <trkpt lat="28.86746" lon="-13.83128">
        <ele>34.8</ele>
        <time>2021-07-04 10:27:31</time>
      </trkpt>
      <trkpt lat="28.86737" lon="-13.83127">
        <ele>34.6</ele>
        <time>2021-07-04 10:27:32</time>
      </trkpt>
      <trkpt lat="28.86728" lon="-13.83125">
        <ele>34.6</ele>
        <time>2021-07-04 10:27:33</time>
      </trkpt>
      <trkpt lat="28.86718" lon="-13.83123">
        <ele>34.2</ele>
        <time>2021-07-04 10:27:34</time>
      </trkpt>
      <trkpt lat="28.86709" lon="-13.8312">
        <ele>34</ele>
        <time>2021-07-04 10:27:35</time>
      </trkpt>
      <trkpt lat="28.867" lon="-13.83118">
        <ele>33.8</ele>
        <time>2021-07-04 10:27:36</time>
      </trkpt>
      <trkpt lat="28.8669" lon="-13.83115">
        <ele>33.6</ele>
        <time>2021-07-04 10:27:37</time>
      </trkpt>
      <trkpt lat="28.8668" lon="-13.83112">
        <ele>33.2</ele>
        <time>2021-07-04 10:27:38</time>
      </trkpt>
      <trkpt lat="28.86669" lon="-13.83109">
        <ele>32.8</ele>
        <time>2021-07-04 10:27:39</time>
      </trkpt>
      <trkpt lat="28.86659" lon="-13.83106">
        <ele>32.6</ele>
        <time>2021-07-04 10:27:40</time>
      </trkpt>
      <trkpt lat="28.86648" lon="-13.83102">
        <ele>32.2</ele>
        <time>2021-07-04 10:27:41</time>
      </trkpt>
      <trkpt lat="28.86637" lon="-13.83099">
        <ele>31.6</ele>
        <time>2021-07-04 10:27:42</time>
      </trkpt>
      <trkpt lat="28.86626" lon="-13.83095">
        <ele>31.2</ele>
        <time>2021-07-04 10:27:43</time>
      </trkpt>
      <trkpt lat="28.86615" lon="-13.83093">
        <ele>30.6</ele>
        <time>2021-07-04 10:27:44</time>
      </trkpt>
      <trkpt lat="28.86605" lon="-13.83089">
        <ele>30</ele>
        <time>2021-07-04 10:27:45</time>
      </trkpt>
      <trkpt lat="28.86595" lon="-13.83087">
        <ele>29.4</ele>
        <time>2021-07-04 10:27:46</time>
      </trkpt>
      <trkpt lat="28.86586" lon="-13.83084">
        <ele>29</ele>
        <time>2021-07-04 10:27:47</time>
      </trkpt>
      <trkpt lat="28.86577" lon="-13.83081">
        <ele>28.4</ele>
        <time>2021-07-04 10:27:48</time>
      </trkpt>
      <trkpt lat="28.86568" lon="-13.83078">
        <ele>27.8</ele>
        <time>2021-07-04 10:27:49</time>
      </trkpt>
      <trkpt lat="28.8656" lon="-13.83075">
        <ele>27.4</ele>
        <time>2021-07-04 10:27:50</time>
      </trkpt>
      <trkpt lat="28.86552" lon="-13.83074">
        <ele>26.8</ele>
        <time>2021-07-04 10:27:51</time>
      </trkpt>
      <trkpt lat="28.86545" lon="-13.83072">
        <ele>26.4</ele>
        <time>2021-07-04 10:27:52</time>
      </trkpt>
      <trkpt lat="28.86537" lon="-13.83071">
        <ele>26</ele>
        <time>2021-07-04 10:27:53</time>
      </trkpt>
      <trkpt lat="28.86529" lon="-13.83073">
        <ele>25.6</ele>
        <time>2021-07-04 10:27:54</time>
      </trkpt>
      <trkpt lat="28.86521" lon="-13.83075">
        <ele>25.2</ele>
        <time>2021-07-04 10:27:55</time>
      </trkpt>
      <trkpt lat="28.86514" lon="-13.83077">
        <ele>24.8</ele>
        <time>2021-07-04 10:27:56</time>
      </trkpt>
      <trkpt lat="28.86507" lon="-13.8308">
        <ele>24.4</ele>
        <time>2021-07-04 10:27:57</time>
      </trkpt>
      <trkpt lat="28.86499" lon="-13.83083">
        <ele>24</ele>
        <time>2021-07-04 10:27:58</time>
      </trkpt>
      <trkpt lat="28.86492" lon="-13.83087">
        <ele>23.8</ele>
        <time>2021-07-04 10:27:59</time>
      </trkpt>
      <trkpt lat="28.86485" lon="-13.83093">
        <ele>23.6</ele>
        <time>2021-07-04 10:28:00</time>
      </trkpt>
      <trkpt lat="28.8648" lon="-13.83099">
        <ele>23.2</ele>
        <time>2021-07-04 10:28:01</time>
      </trkpt>
      <trkpt lat="28.86474" lon="-13.83105">
        <ele>23.2</ele>
        <time>2021-07-04 10:28:02</time>
      </trkpt>
      <trkpt lat="28.86468" lon="-13.83112">
        <ele>23</ele>
        <time>2021-07-04 10:28:03</time>
      </trkpt>
      <trkpt lat="28.86462" lon="-13.83118">
        <ele>23</ele>
        <time>2021-07-04 10:28:04</time>
      </trkpt>
      <trkpt lat="28.86456" lon="-13.83125">
        <ele>23</ele>
        <time>2021-07-04 10:28:05</time>
      </trkpt>
      <trkpt lat="28.86449" lon="-13.83131">
        <ele>23</ele>
        <time>2021-07-04 10:28:06</time>
      </trkpt>
      <trkpt lat="28.86443" lon="-13.83137">
        <ele>23</ele>
        <time>2021-07-04 10:28:07</time>
      </trkpt>
      <trkpt lat="28.86437" lon="-13.83144">
        <ele>23</ele>
        <time>2021-07-04 10:28:08</time>
      </trkpt>
      <trkpt lat="28.8643" lon="-13.8315">
        <ele>23</ele>
        <time>2021-07-04 10:28:09</time>
      </trkpt>
      <trkpt lat="28.86424" lon="-13.83155">
        <ele>23</ele>
        <time>2021-07-04 10:28:10</time>
      </trkpt>
      <trkpt lat="28.86417" lon="-13.83161">
        <ele>23</ele>
        <time>2021-07-04 10:28:11</time>
      </trkpt>
      <trkpt lat="28.8641" lon="-13.83165">
        <ele>23</ele>
        <time>2021-07-04 10:28:12</time>
      </trkpt>
      <trkpt lat="28.86404" lon="-13.83171">
        <ele>23</ele>
        <time>2021-07-04 10:28:13</time>
      </trkpt>
      <trkpt lat="28.86398" lon="-13.83175">
        <ele>23</ele>
        <time>2021-07-04 10:28:14</time>
      </trkpt>
      <trkpt lat="28.86392" lon="-13.8318">
        <ele>23</ele>
        <time>2021-07-04 10:28:15</time>
      </trkpt>
      <trkpt lat="28.86386" lon="-13.83184">
        <ele>23</ele>
        <time>2021-07-04 10:28:16</time>
      </trkpt>
      <trkpt lat="28.8638" lon="-13.83189">
        <ele>23</ele>
        <time>2021-07-04 10:28:17</time>
      </trkpt>
      <trkpt lat="28.86376" lon="-13.83194">
        <ele>22.8</ele>
        <time>2021-07-04 10:28:18</time>
      </trkpt>
      <trkpt lat="28.86371" lon="-13.83199">
        <ele>22.8</ele>
        <time>2021-07-04 10:28:19</time>
      </trkpt>
      <trkpt lat="28.86366" lon="-13.83203">
        <ele>22.8</ele>
        <time>2021-07-04 10:28:20</time>
      </trkpt>
      <trkpt lat="28.8636" lon="-13.83207">
        <ele>22.8</ele>
        <time>2021-07-04 10:28:21</time>
      </trkpt>
      <trkpt lat="28.86355" lon="-13.83212">
        <ele>22.8</ele>
        <time>2021-07-04 10:28:22</time>
      </trkpt>
      <trkpt lat="28.8635" lon="-13.83215">
        <ele>22.6</ele>
        <time>2021-07-04 10:28:23</time>
      </trkpt>
      <trkpt lat="28.86344" lon="-13.8322">
        <ele>22.6</ele>
        <time>2021-07-04 10:28:24</time>
      </trkpt>
      <trkpt lat="28.86338" lon="-13.83223">
        <ele>22.6</ele>
        <time>2021-07-04 10:28:25</time>
      </trkpt>
      <trkpt lat="28.86333" lon="-13.83227">
        <ele>22.6</ele>
        <time>2021-07-04 10:28:26</time>
      </trkpt>
      <trkpt lat="28.86328" lon="-13.83232">
        <ele>22.6</ele>
        <time>2021-07-04 10:28:27</time>
      </trkpt>
      <trkpt lat="28.86323" lon="-13.83236">
        <ele>22.6</ele>
        <time>2021-07-04 10:28:28</time>
      </trkpt>
      <trkpt lat="28.86318" lon="-13.8324">
        <ele>22.6</ele>
        <time>2021-07-04 10:28:29</time>
      </trkpt>
      <trkpt lat="28.86312" lon="-13.83243">
        <ele>23</ele>
        <time>2021-07-04 10:28:30</time>
      </trkpt>
      <trkpt lat="28.86307" lon="-13.83246">
        <ele>23</ele>
        <time>2021-07-04 10:28:31</time>
      </trkpt>
      <trkpt lat="28.86302" lon="-13.8325">
        <ele>23</ele>
        <time>2021-07-04 10:28:32</time>
      </trkpt>
      <trkpt lat="28.86298" lon="-13.83254">
        <ele>23</ele>
        <time>2021-07-04 10:28:33</time>
      </trkpt>
      <trkpt lat="28.86296" lon="-13.8326">
        <ele>23.2</ele>
        <time>2021-07-04 10:28:34</time>
      </trkpt>
      <trkpt lat="28.86296" lon="-13.83265">
        <ele>23.2</ele>
        <time>2021-07-04 10:28:35</time>
      </trkpt>
      <trkpt lat="28.86297" lon="-13.83271">
        <ele>23.2</ele>
        <time>2021-07-04 10:28:36</time>
      </trkpt>
      <trkpt lat="28.86294" lon="-13.83275">
        <ele>23.4</ele>
        <time>2021-07-04 10:28:37</time>
      </trkpt>
      <trkpt lat="28.8629" lon="-13.83277">
        <ele>23.4</ele>
        <time>2021-07-04 10:28:38</time>
      </trkpt>
      <trkpt lat="28.86287" lon="-13.83279">
        <ele>23.6</ele>
        <time>2021-07-04 10:28:39</time>
      </trkpt>
      <trkpt lat="28.86283" lon="-13.8328">
        <ele>23.6</ele>
        <time>2021-07-04 10:28:40</time>
      </trkpt>
      <trkpt lat="28.86279" lon="-13.83281">
        <ele>23.6</ele>
        <time>2021-07-04 10:28:41</time>
      </trkpt>
      <trkpt lat="28.86275" lon="-13.83282">
        <ele>23.6</ele>
        <time>2021-07-04 10:28:42</time>
      </trkpt>
      <trkpt lat="28.86271" lon="-13.83283">
        <ele>23.6</ele>
        <time>2021-07-04 10:28:43</time>
      </trkpt>
      <trkpt lat="28.86267" lon="-13.83285">
        <ele>23.6</ele>
        <time>2021-07-04 10:28:44</time>
      </trkpt>
      <trkpt lat="28.86263" lon="-13.83286">
        <ele>23.6</ele>
        <time>2021-07-04 10:28:45</time>
      </trkpt>
      <trkpt lat="28.8626" lon="-13.83287">
        <ele>23.6</ele>
        <time>2021-07-04 10:28:46</time>
      </trkpt>
      <trkpt lat="28.86256" lon="-13.83289">
        <ele>23.6</ele>
        <time>2021-07-04 10:28:47</time>
      </trkpt>
      <trkpt lat="28.86252" lon="-13.8329">
        <ele>23.6</ele>
        <time>2021-07-04 10:28:48</time>
      </trkpt>
      <trkpt lat="28.86248" lon="-13.83292">
        <ele>23.4</ele>
        <time>2021-07-04 10:28:49</time>
      </trkpt>
      <trkpt lat="28.86243" lon="-13.83294">
        <ele>23.4</ele>
        <time>2021-07-04 10:28:50</time>
      </trkpt>
      <trkpt lat="28.86239" lon="-13.83297">
        <ele>23.4</ele>
        <time>2021-07-04 10:28:51</time>
      </trkpt>
      <trkpt lat="28.86235" lon="-13.83299">
        <ele>23.2</ele>
        <time>2021-07-04 10:28:52</time>
      </trkpt>
      <trkpt lat="28.8623" lon="-13.83302">
        <ele>23.2</ele>
        <time>2021-07-04 10:28:53</time>
      </trkpt>
      <trkpt lat="28.86226" lon="-13.83305">
        <ele>23</ele>
        <time>2021-07-04 10:28:54</time>
      </trkpt>
      <trkpt lat="28.86221" lon="-13.83309">
        <ele>23</ele>
        <time>2021-07-04 10:28:55</time>
      </trkpt>
      <trkpt lat="28.86217" lon="-13.83312">
        <ele>23</ele>
        <time>2021-07-04 10:28:56</time>
      </trkpt>
      <trkpt lat="28.86212" lon="-13.83315">
        <ele>23.2</ele>
        <time>2021-07-04 10:28:57</time>
      </trkpt>
      <trkpt lat="28.86207" lon="-13.83319">
        <ele>23.2</ele>
        <time>2021-07-04 10:28:58</time>
      </trkpt>
      <trkpt lat="28.86203" lon="-13.83323">
        <ele>23.2</ele>
        <time>2021-07-04 10:28:59</time>
      </trkpt>
      <trkpt lat="28.86198" lon="-13.83327">
        <ele>23.2</ele>
        <time>2021-07-04 10:29:00</time>
      </trkpt>
      <trkpt lat="28.86192" lon="-13.8333">
        <ele>23.2</ele>
        <time>2021-07-04 10:29:01</time>
      </trkpt>
      <trkpt lat="28.86187" lon="-13.83335">
        <ele>23</ele>
        <time>2021-07-04 10:29:02</time>
      </trkpt>
      <trkpt lat="28.86181" lon="-13.83339">
        <ele>22.6</ele>
        <time>2021-07-04 10:29:03</time>
      </trkpt>
      <trkpt lat="28.86176" lon="-13.83343">
        <ele>22.4</ele>
        <time>2021-07-04 10:29:04</time>
      </trkpt>
      <trkpt lat="28.86171" lon="-13.83348">
        <ele>22.2</ele>
        <time>2021-07-04 10:29:05</time>
      </trkpt>
      <trkpt lat="28.86165" lon="-13.83354">
        <ele>22.2</ele>
        <time>2021-07-04 10:29:06</time>
      </trkpt>
      <trkpt lat="28.86161" lon="-13.83359">
        <ele>21.8</ele>
        <time>2021-07-04 10:29:07</time>
      </trkpt>
      <trkpt lat="28.86156" lon="-13.83365">
        <ele>21.8</ele>
        <time>2021-07-04 10:29:08</time>
      </trkpt>
      <trkpt lat="28.86152" lon="-13.83371">
        <ele>21.6</ele>
        <time>2021-07-04 10:29:09</time>
      </trkpt>
      <trkpt lat="28.86147" lon="-13.83378">
        <ele>21.6</ele>
        <time>2021-07-04 10:29:10</time>
      </trkpt>
      <trkpt lat="28.86144" lon="-13.83385">
        <ele>21.2</ele>
        <time>2021-07-04 10:29:11</time>
      </trkpt>
      <trkpt lat="28.8614" lon="-13.83392">
        <ele>21</ele>
        <time>2021-07-04 10:29:12</time>
      </trkpt>
      <trkpt lat="28.86137" lon="-13.83399">
        <ele>21</ele>
        <time>2021-07-04 10:29:13</time>
      </trkpt>
      <trkpt lat="28.86134" lon="-13.83405">
        <ele>20.6</ele>
        <time>2021-07-04 10:29:14</time>
      </trkpt>
      <trkpt lat="28.86131" lon="-13.83411">
        <ele>20.6</ele>
        <time>2021-07-04 10:29:15</time>
      </trkpt>
      <trkpt lat="28.86128" lon="-13.83417">
        <ele>20.4</ele>
        <time>2021-07-04 10:29:16</time>
      </trkpt>
      <trkpt lat="28.86125" lon="-13.83424">
        <ele>20.2</ele>
        <time>2021-07-04 10:29:17</time>
      </trkpt>
      <trkpt lat="28.86122" lon="-13.8343">
        <ele>20.2</ele>
        <time>2021-07-04 10:29:18</time>
      </trkpt>
      <trkpt lat="28.86119" lon="-13.83437">
        <ele>19.8</ele>
        <time>2021-07-04 10:29:19</time>
      </trkpt>
      <trkpt lat="28.86117" lon="-13.83444">
        <ele>19.8</ele>
        <time>2021-07-04 10:29:20</time>
      </trkpt>
      <trkpt lat="28.86115" lon="-13.8345">
        <ele>19.8</ele>
        <time>2021-07-04 10:29:21</time>
      </trkpt>
      <trkpt lat="28.86113" lon="-13.83457">
        <ele>19.8</ele>
        <time>2021-07-04 10:29:22</time>
      </trkpt>
      <trkpt lat="28.8611" lon="-13.83464">
        <ele>20.2</ele>
        <time>2021-07-04 10:29:23</time>
      </trkpt>
      <trkpt lat="28.86108" lon="-13.83471">
        <ele>20.2</ele>
        <time>2021-07-04 10:29:24</time>
      </trkpt>
      <trkpt lat="28.86105" lon="-13.83478">
        <ele>20</ele>
        <time>2021-07-04 10:29:25</time>
      </trkpt>
      <trkpt lat="28.86103" lon="-13.83485">
        <ele>20</ele>
        <time>2021-07-04 10:29:26</time>
      </trkpt>
      <trkpt lat="28.861" lon="-13.83491">
        <ele>19.6</ele>
        <time>2021-07-04 10:29:27</time>
      </trkpt>
      <trkpt lat="28.86097" lon="-13.83498">
        <ele>19.6</ele>
        <time>2021-07-04 10:29:28</time>
      </trkpt>
      <trkpt lat="28.86095" lon="-13.83504">
        <ele>19.2</ele>
        <time>2021-07-04 10:29:29</time>
      </trkpt>
      <trkpt lat="28.86092" lon="-13.83511">
        <ele>19.2</ele>
        <time>2021-07-04 10:29:30</time>
      </trkpt>
      <trkpt lat="28.8609" lon="-13.83517">
        <ele>18.8</ele>
        <time>2021-07-04 10:29:31</time>
      </trkpt>
      <trkpt lat="28.86087" lon="-13.83523">
        <ele>18.6</ele>
        <time>2021-07-04 10:29:32</time>
      </trkpt>
      <trkpt lat="28.86084" lon="-13.83529">
        <ele>18.4</ele>
        <time>2021-07-04 10:29:33</time>
      </trkpt>
      <trkpt lat="28.86082" lon="-13.83535">
        <ele>18</ele>
        <time>2021-07-04 10:29:34</time>
      </trkpt>
      <trkpt lat="28.8608" lon="-13.83542">
        <ele>17.8</ele>
        <time>2021-07-04 10:29:35</time>
      </trkpt>
      <trkpt lat="28.86078" lon="-13.83547">
        <ele>17.4</ele>
        <time>2021-07-04 10:29:36</time>
      </trkpt>
      <trkpt lat="28.86076" lon="-13.83552">
        <ele>17.2</ele>
        <time>2021-07-04 10:29:37</time>
      </trkpt>
      <trkpt lat="28.86074" lon="-13.83557">
        <ele>17.2</ele>
        <time>2021-07-04 10:29:38</time>
      </trkpt>
      <trkpt lat="28.86071" lon="-13.83562">
        <ele>17</ele>
        <time>2021-07-04 10:29:39</time>
      </trkpt>
      <trkpt lat="28.86069" lon="-13.83567">
        <ele>17</ele>
        <time>2021-07-04 10:29:40</time>
      </trkpt>
      <trkpt lat="28.86067" lon="-13.83571">
        <ele>17</ele>
        <time>2021-07-04 10:29:41</time>
      </trkpt>
      <trkpt lat="28.86064" lon="-13.83575">
        <ele>16.2</ele>
        <time>2021-07-04 10:29:42</time>
      </trkpt>
      <trkpt lat="28.86061" lon="-13.83578">
        <ele>16.4</ele>
        <time>2021-07-04 10:29:43</time>
      </trkpt>
      <trkpt lat="28.86058" lon="-13.83582">
        <ele>16.4</ele>
        <time>2021-07-04 10:29:44</time>
      </trkpt>
      <trkpt lat="28.86055" lon="-13.83587">
        <ele>16.6</ele>
        <time>2021-07-04 10:29:45</time>
      </trkpt>
      <trkpt lat="28.86051" lon="-13.83591">
        <ele>16.6</ele>
        <time>2021-07-04 10:29:46</time>
      </trkpt>
      <trkpt lat="28.86047" lon="-13.83595">
        <ele>16.6</ele>
        <time>2021-07-04 10:29:47</time>
      </trkpt>
      <trkpt lat="28.86042" lon="-13.83598">
        <ele>16.6</ele>
        <time>2021-07-04 10:29:48</time>
      </trkpt>
      <trkpt lat="28.86038" lon="-13.83602">
        <ele>16.6</ele>
        <time>2021-07-04 10:29:49</time>
      </trkpt>
      <trkpt lat="28.86034" lon="-13.83605">
        <ele>16.6</ele>
        <time>2021-07-04 10:29:50</time>
      </trkpt>
      <trkpt lat="28.86029" lon="-13.83608">
        <ele>16.6</ele>
        <time>2021-07-04 10:29:51</time>
      </trkpt>
      <trkpt lat="28.86024" lon="-13.8361">
        <ele>16.6</ele>
        <time>2021-07-04 10:29:52</time>
      </trkpt>
      <trkpt lat="28.86019" lon="-13.83613">
        <ele>16.6</ele>
        <time>2021-07-04 10:29:53</time>
      </trkpt>
      <trkpt lat="28.86014" lon="-13.83616">
        <ele>16.4</ele>
        <time>2021-07-04 10:29:54</time>
      </trkpt>
      <trkpt lat="28.86009" lon="-13.83619">
        <ele>16.4</ele>
        <time>2021-07-04 10:29:55</time>
      </trkpt>
      <trkpt lat="28.86004" lon="-13.83621">
        <ele>16</ele>
        <time>2021-07-04 10:29:56</time>
      </trkpt>
      <trkpt lat="28.85999" lon="-13.83622">
        <ele>15.8</ele>
        <time>2021-07-04 10:29:57</time>
      </trkpt>
      <trkpt lat="28.85994" lon="-13.83624">
        <ele>15.4</ele>
        <time>2021-07-04 10:29:58</time>
      </trkpt>
      <trkpt lat="28.85988" lon="-13.83626">
        <ele>15.4</ele>
        <time>2021-07-04 10:29:59</time>
      </trkpt>
      <trkpt lat="28.85983" lon="-13.83629">
        <ele>15.2</ele>
        <time>2021-07-04 10:30:00</time>
      </trkpt>
      <trkpt lat="28.85978" lon="-13.8363">
        <ele>15.2</ele>
        <time>2021-07-04 10:30:01</time>
      </trkpt>
      <trkpt lat="28.85973" lon="-13.83632">
        <ele>15.2</ele>
        <time>2021-07-04 10:30:02</time>
      </trkpt>
      <trkpt lat="28.85969" lon="-13.83634">
        <ele>15</ele>
        <time>2021-07-04 10:30:03</time>
      </trkpt>
      <trkpt lat="28.85964" lon="-13.83635">
        <ele>15</ele>
        <time>2021-07-04 10:30:04</time>
      </trkpt>
      <trkpt lat="28.85959" lon="-13.83635">
        <ele>15</ele>
        <time>2021-07-04 10:30:05</time>
      </trkpt>
      <trkpt lat="28.85954" lon="-13.83634">
        <ele>14.8</ele>
        <time>2021-07-04 10:30:06</time>
      </trkpt>
      <trkpt lat="28.8595" lon="-13.8363">
        <ele>14.8</ele>
        <time>2021-07-04 10:30:07</time>
      </trkpt>
      <trkpt lat="28.85946" lon="-13.83627">
        <ele>14.4</ele>
        <time>2021-07-04 10:30:08</time>
      </trkpt>
      <trkpt lat="28.85942" lon="-13.83623">
        <ele>14.2</ele>
        <time>2021-07-04 10:30:09</time>
      </trkpt>
      <trkpt lat="28.85939" lon="-13.83619">
        <ele>14</ele>
        <time>2021-07-04 10:30:10</time>
      </trkpt>
      <trkpt lat="28.85935" lon="-13.83614">
        <ele>13.8</ele>
        <time>2021-07-04 10:30:11</time>
      </trkpt>
      <trkpt lat="28.85932" lon="-13.83609">
        <ele>13.4</ele>
        <time>2021-07-04 10:30:12</time>
      </trkpt>
      <trkpt lat="28.85928" lon="-13.83604">
        <ele>13.2</ele>
        <time>2021-07-04 10:30:13</time>
      </trkpt>
      <trkpt lat="28.85925" lon="-13.83599">
        <ele>12.8</ele>
        <time>2021-07-04 10:30:14</time>
      </trkpt>
      <trkpt lat="28.85922" lon="-13.83594">
        <ele>12.4</ele>
        <time>2021-07-04 10:30:15</time>
      </trkpt>
      <trkpt lat="28.85919" lon="-13.83588">
        <ele>12</ele>
        <time>2021-07-04 10:30:16</time>
      </trkpt>
      <trkpt lat="28.85916" lon="-13.83583">
        <ele>11.4</ele>
        <time>2021-07-04 10:30:17</time>
      </trkpt>
      <trkpt lat="28.85913" lon="-13.83578">
        <ele>11.2</ele>
        <time>2021-07-04 10:30:18</time>
      </trkpt>
      <trkpt lat="28.8591" lon="-13.83573">
        <ele>11.2</ele>
        <time>2021-07-04 10:30:19</time>
      </trkpt>
      <trkpt lat="28.85908" lon="-13.8357">
        <ele>10.8</ele>
        <time>2021-07-04 10:30:20</time>
      </trkpt>
      <trkpt lat="28.85906" lon="-13.83566">
        <ele>10.8</ele>
        <time>2021-07-04 10:30:21</time>
      </trkpt>
      <trkpt lat="28.85904" lon="-13.83562">
        <ele>10.8</ele>
        <time>2021-07-04 10:30:22</time>
      </trkpt>
      <trkpt lat="28.85901" lon="-13.83558">
        <ele>10.6</ele>
        <time>2021-07-04 10:30:23</time>
      </trkpt>
      <trkpt lat="28.859" lon="-13.83555">
        <ele>10.6</ele>
        <time>2021-07-04 10:30:24</time>
      </trkpt>
      <trkpt lat="28.85898" lon="-13.83551">
        <ele>10.6</ele>
        <time>2021-07-04 10:30:25</time>
      </trkpt>
      <trkpt lat="28.85897" lon="-13.83547">
        <ele>10.2</ele>
        <time>2021-07-04 10:30:26</time>
      </trkpt>
      <trkpt lat="28.85898" lon="-13.83543">
        <ele>10.2</ele>
        <time>2021-07-04 10:30:27</time>
      </trkpt>
      <trkpt lat="28.859" lon="-13.8354">
        <ele>10</ele>
        <time>2021-07-04 10:30:28</time>
      </trkpt>
      <trkpt lat="28.85902" lon="-13.83537">
        <ele>10</ele>
        <time>2021-07-04 10:30:29</time>
      </trkpt>
      <trkpt lat="28.85903" lon="-13.83535">
        <ele>9.8</ele>
        <time>2021-07-04 10:30:30</time>
      </trkpt>
      <trkpt lat="28.85903" lon="-13.83534">
        <ele>9.8</ele>
        <time>2021-07-04 10:30:31</time>
      </trkpt>
      <trkpt lat="28.85904" lon="-13.83532">
        <ele>9.8</ele>
        <time>2021-07-04 10:30:32</time>
      </trkpt>
      <trkpt lat="28.85906" lon="-13.8353">
        <ele>9.8</ele>
        <time>2021-07-04 10:30:33</time>
      </trkpt>
      <trkpt lat="28.85908" lon="-13.83528">
        <ele>9.8</ele>
        <time>2021-07-04 10:30:34</time>
      </trkpt>
      <trkpt lat="28.85911" lon="-13.83526">
        <ele>9.8</ele>
        <time>2021-07-04 10:30:35</time>
      </trkpt>
      <trkpt lat="28.85913" lon="-13.83524">
        <ele>9.8</ele>
        <time>2021-07-04 10:30:36</time>
      </trkpt>
      <trkpt lat="28.85915" lon="-13.83522">
        <ele>9.8</ele>
        <time>2021-07-04 10:30:37</time>
      </trkpt>
      <trkpt lat="28.85918" lon="-13.8352">
        <ele>10</ele>
        <time>2021-07-04 10:30:38</time>
      </trkpt>
      <trkpt lat="28.85919" lon="-13.83518">
        <ele>10</ele>
        <time>2021-07-04 10:30:39</time>
      </trkpt>
      <trkpt lat="28.85921" lon="-13.83516">
        <ele>10</ele>
        <time>2021-07-04 10:30:40</time>
      </trkpt>
      <trkpt lat="28.85923" lon="-13.83515">
        <ele>9.8</ele>
        <time>2021-07-04 10:30:41</time>
      </trkpt>
      <trkpt lat="28.85923" lon="-13.83514">
        <ele>9.8</ele>
        <time>2021-07-04 10:30:42</time>
      </trkpt>
      <trkpt lat="28.85924" lon="-13.83514">
        <ele>9.8</ele>
        <time>2021-07-04 10:30:43</time>
      </trkpt>
      <trkpt lat="28.85924" lon="-13.83514">
        <ele>9.8</ele>
        <time>2021-07-04 10:30:44</time>
      </trkpt>
      <trkpt lat="28.85924" lon="-13.83514">
        <ele>9.8</ele>
        <time>2021-07-04 10:30:45</time>
      </trkpt>
      <trkpt lat="28.85925" lon="-13.83515">
        <ele>9.8</ele>
        <time>2021-07-04 10:30:46</time>
      </trkpt>
      <trkpt lat="28.85925" lon="-13.83515">
        <ele>9.8</ele>
        <time>2021-07-04 10:30:47</time>
      </trkpt>
      <trkpt lat="28.85926" lon="-13.8352">
        <ele>10</ele>
        <time>2021-07-04 10:30:48</time>
      </trkpt>
      <trkpt lat="28.85925" lon="-13.83521">
        <ele>10</ele>
        <time>2021-07-04 10:30:49</time>
      </trkpt>
      <trkpt lat="28.85923" lon="-13.83522">
        <ele>10</ele>
        <time>2021-07-04 10:30:50</time>
      </trkpt>
      <trkpt lat="28.85922" lon="-13.83522">
        <ele>10</ele>
        <time>2021-07-04 10:30:51</time>
      </trkpt>
      <trkpt lat="28.85919" lon="-13.83521">
        <ele>10</ele>
        <time>2021-07-04 10:30:52</time>
      </trkpt>
      <trkpt lat="28.85918" lon="-13.83521">
        <ele>10</ele>
        <time>2021-07-04 10:30:53</time>
      </trkpt>
      <trkpt lat="28.85916" lon="-13.8352">
        <ele>10</ele>
        <time>2021-07-04 10:30:54</time>
      </trkpt>
      <trkpt lat="28.85914" lon="-13.83519">
        <ele>9.8</ele>
        <time>2021-07-04 10:30:55</time>
      </trkpt>
      <trkpt lat="28.85912" lon="-13.83516">
        <ele>9.8</ele>
        <time>2021-07-04 10:30:56</time>
      </trkpt>
      <trkpt lat="28.8591" lon="-13.83514">
        <ele>9.4</ele>
        <time>2021-07-04 10:30:57</time>
      </trkpt>
      <trkpt lat="28.85909" lon="-13.83511">
        <ele>9.4</ele>
        <time>2021-07-04 10:31:28</time>
      </trkpt>
      <trkpt lat="28.85907" lon="-13.83509">
        <ele>9.2</ele>
        <time>2021-07-04 10:31:29</time>
      </trkpt>
      <trkpt lat="28.85905" lon="-13.83506">
        <ele>9</ele>
        <time>2021-07-04 10:31:30</time>
      </trkpt>
      <trkpt lat="28.85904" lon="-13.83502">
        <ele>9</ele>
        <time>2021-07-04 10:31:31</time>
      </trkpt>
      <trkpt lat="28.85902" lon="-13.83499">
        <ele>8.6</ele>
        <time>2021-07-04 10:31:32</time>
      </trkpt>
      <trkpt lat="28.859" lon="-13.83496">
        <ele>8.6</ele>
        <time>2021-07-04 10:31:33</time>
      </trkpt>
      <trkpt lat="28.85899" lon="-13.83492">
        <ele>8.6</ele>
        <time>2021-07-04 10:31:34</time>
      </trkpt>
      <trkpt lat="28.85897" lon="-13.83489">
        <ele>8.4</ele>
        <time>2021-07-04 10:31:35</time>
      </trkpt>
      <trkpt lat="28.85895" lon="-13.83485">
        <ele>8.4</ele>
        <time>2021-07-04 10:31:36</time>
      </trkpt>
      <trkpt lat="28.85893" lon="-13.83482">
        <ele>8.4</ele>
        <time>2021-07-04 10:31:37</time>
      </trkpt>
      <trkpt lat="28.8589" lon="-13.83478">
        <ele>8.4</ele>
        <time>2021-07-04 10:31:38</time>
      </trkpt>
      <trkpt lat="28.85888" lon="-13.83475">
        <ele>8.4</ele>
        <time>2021-07-04 10:31:39</time>
      </trkpt>
      <trkpt lat="28.85885" lon="-13.83472">
        <ele>8.4</ele>
        <time>2021-07-04 10:31:40</time>
      </trkpt>
      <trkpt lat="28.85882" lon="-13.83468">
        <ele>8.4</ele>
        <time>2021-07-04 10:31:41</time>
      </trkpt>
      <trkpt lat="28.85879" lon="-13.83465">
        <ele>8.4</ele>
        <time>2021-07-04 10:31:42</time>
      </trkpt>
      <trkpt lat="28.85876" lon="-13.83462">
        <ele>8.6</ele>
        <time>2021-07-04 10:31:43</time>
      </trkpt>
      <trkpt lat="28.85874" lon="-13.83459">
        <ele>8.6</ele>
        <time>2021-07-04 10:31:44</time>
      </trkpt>
      <trkpt lat="28.85871" lon="-13.83458">
        <ele>8.6</ele>
        <time>2021-07-04 10:31:45</time>
      </trkpt>
      <trkpt lat="28.85869" lon="-13.83457">
        <ele>8.8</ele>
        <time>2021-07-04 10:31:46</time>
      </trkpt>
      <trkpt lat="28.85868" lon="-13.83457">
        <ele>8.8</ele>
        <time>2021-07-04 10:31:47</time>
      </trkpt>
      <trkpt lat="28.85868" lon="-13.83458">
        <ele>9.2</ele>
        <time>2021-07-04 10:31:48</time>
      </trkpt>
      <trkpt lat="28.85868" lon="-13.83458">
        <ele>9.4</ele>
        <time>2021-07-04 10:31:49</time>
      </trkpt>
      <trkpt lat="28.85868" lon="-13.83459">
        <ele>9.4</ele>
        <time>2021-07-04 10:31:50</time>
      </trkpt>
      <trkpt lat="28.85868" lon="-13.83459">
        <ele>9.8</ele>
        <time>2021-07-04 10:31:51</time>
      </trkpt>
      <trkpt lat="28.85868" lon="-13.8346">
        <ele>9.8</ele>
        <time>2021-07-04 10:31:52</time>
      </trkpt>
      <trkpt lat="28.85868" lon="-13.83462">
        <ele>10.2</ele>
        <time>2021-07-04 10:31:53</time>
      </trkpt>
      <trkpt lat="28.85868" lon="-13.83461">
        <ele>10.2</ele>
        <time>2021-07-04 10:31:54</time>
      </trkpt>
      <trkpt lat="28.85868" lon="-13.83459">
        <ele>10.2</ele>
        <time>2021-07-04 10:31:55</time>
      </trkpt>
      <trkpt lat="28.85868" lon="-13.83457">
        <ele>10.2</ele>
        <time>2021-07-04 10:31:56</time>
      </trkpt>
      <trkpt lat="28.85867" lon="-13.83456">
        <ele>9.8</ele>
        <time>2021-07-04 10:31:57</time>
      </trkpt>
      <trkpt lat="28.85867" lon="-13.83456">
        <ele>9.6</ele>
        <time>2021-07-04 10:31:58</time>
      </trkpt>
      <trkpt lat="28.85867" lon="-13.83456">
        <ele>9.6</ele>
        <time>2021-07-04 10:31:59</time>
      </trkpt>
      <trkpt lat="28.85867" lon="-13.83456">
        <ele>9.6</ele>
        <time>2021-07-04 10:32:00</time>
      </trkpt>
      <trkpt lat="28.85867" lon="-13.83456">
        <ele>9.6</ele>
        <time>2021-07-04 10:32:01</time>
      </trkpt>
      <trkpt lat="28.85867" lon="-13.83458">
        <ele>9</ele>
        <time>2021-07-04 10:32:02</time>
      </trkpt>
      <trkpt lat="28.85868" lon="-13.83458">
        <ele>9</ele>
        <time>2021-07-04 10:32:05</time>
      </trkpt>
      <trkpt lat="28.85869" lon="-13.83458">
        <ele>9</ele>
        <time>2021-07-04 10:32:06</time>
      </trkpt>
      <trkpt lat="28.8587" lon="-13.83458">
        <ele>8.6</ele>
        <time>2021-07-04 10:32:07</time>
      </trkpt>
      <trkpt lat="28.85871" lon="-13.83458">
        <ele>8.6</ele>
        <time>2021-07-04 10:32:08</time>
      </trkpt>
      <trkpt lat="28.85873" lon="-13.83458">
        <ele>8.2</ele>
        <time>2021-07-04 10:32:09</time>
      </trkpt>
      <trkpt lat="28.85874" lon="-13.83459">
        <ele>8.2</ele>
        <time>2021-07-04 10:32:10</time>
      </trkpt>
      <trkpt lat="28.85875" lon="-13.8346">
        <ele>8</ele>
        <time>2021-07-04 10:32:11</time>
      </trkpt>
      <trkpt lat="28.85876" lon="-13.8346">
        <ele>8</ele>
        <time>2021-07-04 10:32:12</time>
      </trkpt>
      <trkpt lat="28.85876" lon="-13.83461">
        <ele>8</ele>
        <time>2021-07-04 10:32:13</time>
      </trkpt>
      <trkpt lat="28.85876" lon="-13.83462">
        <ele>7.8</ele>
        <time>2021-07-04 10:42:13</time>
      </trkpt>
      <trkpt lat="28.85874" lon="-13.83462">
        <ele>7.8</ele>
        <time>2021-07-04 10:42:14</time>
      </trkpt>
      <trkpt lat="28.85873" lon="-13.83461">
        <ele>7.8</ele>
        <time>2021-07-04 10:42:15</time>
      </trkpt>
      <trkpt lat="28.85872" lon="-13.8346">
        <ele>7.8</ele>
        <time>2021-07-04 10:42:16</time>
      </trkpt>
      <trkpt lat="28.85872" lon="-13.83459">
        <ele>7.6</ele>
        <time>2021-07-04 10:42:17</time>
      </trkpt>
      <trkpt lat="28.85871" lon="-13.83459">
        <ele>7.6</ele>
        <time>2021-07-04 10:42:18</time>
      </trkpt>
      <trkpt lat="28.8587" lon="-13.83458">
        <ele>7.6</ele>
        <time>2021-07-04 10:42:19</time>
      </trkpt>
      <trkpt lat="28.8587" lon="-13.83457">
        <ele>7.6</ele>
        <time>2021-07-04 10:42:20</time>
      </trkpt>
      <trkpt lat="28.85869" lon="-13.83457">
        <ele>7.6</ele>
        <time>2021-07-04 10:42:21</time>
      </trkpt>
      <trkpt lat="28.85869" lon="-13.83456">
        <ele>7.6</ele>
        <time>2021-07-04 10:42:22</time>
      </trkpt>
      <trkpt lat="28.85869" lon="-13.83456">
        <ele>7.6</ele>
        <time>2021-07-04 10:42:23</time>
      </trkpt>
      <trkpt lat="28.85869" lon="-13.83456">
        <ele>7.6</ele>
        <time>2021-07-04 10:42:24</time>
      </trkpt>
      <trkpt lat="28.85869" lon="-13.83455">
        <ele>7.6</ele>
        <time>2021-07-04 10:42:25</time>
      </trkpt>
      <trkpt lat="28.74272" lon="-13.86462">
        <time>2021-07-04 12:16:15</time>
      </trkpt>
      <trkpt lat="28.74272" lon="-13.86461">
        <ele>-3.8</ele>
        <time>2021-07-04 12:16:16</time>
      </trkpt>
      <trkpt lat="28.74272" lon="-13.86461">
        <ele>-3.8</ele>
        <time>2021-07-04 12:16:17</time>
      </trkpt>
      <trkpt lat="28.74273" lon="-13.8646">
        <ele>-3.8</ele>
        <time>2021-07-04 12:16:18</time>
      </trkpt>
      <trkpt lat="28.74274" lon="-13.86459">
        <ele>-3.8</ele>
        <time>2021-07-04 12:16:19</time>
      </trkpt>
      <trkpt lat="28.74275" lon="-13.86458">
        <ele>-3.8</ele>
        <time>2021-07-04 12:16:20</time>
      </trkpt>
      <trkpt lat="28.74277" lon="-13.86458">
        <ele>-3.8</ele>
        <time>2021-07-04 12:16:21</time>
      </trkpt>
      <trkpt lat="28.74279" lon="-13.86458">
        <ele>-3.8</ele>
        <time>2021-07-04 12:16:22</time>
      </trkpt>
      <trkpt lat="28.74281" lon="-13.86458">
        <ele>-3.8</ele>
        <time>2021-07-04 12:16:23</time>
      </trkpt>
      <trkpt lat="28.74284" lon="-13.86458">
        <ele>-3.8</ele>
        <time>2021-07-04 12:16:24</time>
      </trkpt>
      <trkpt lat="28.74287" lon="-13.86458">
        <ele>-3.8</ele>
        <time>2021-07-04 12:16:25</time>
      </trkpt>
      <trkpt lat="28.74289" lon="-13.86458">
        <ele>-3.8</ele>
        <time>2021-07-04 12:16:26</time>
      </trkpt>
      <trkpt lat="28.74292" lon="-13.86458">
        <ele>-3.8</ele>
        <time>2021-07-04 12:16:27</time>
      </trkpt>
      <trkpt lat="28.74296" lon="-13.86458">
        <ele>-3.8</ele>
        <time>2021-07-04 12:16:28</time>
      </trkpt>
      <trkpt lat="28.74299" lon="-13.86458">
        <ele>-3.8</ele>
        <time>2021-07-04 12:16:29</time>
      </trkpt>
      <trkpt lat="28.74302" lon="-13.86457">
        <ele>-3.8</ele>
        <time>2021-07-04 12:16:30</time>
      </trkpt>
      <trkpt lat="28.74306" lon="-13.86457">
        <ele>-3.4</ele>
        <time>2021-07-04 12:16:31</time>
      </trkpt>
      <trkpt lat="28.7431" lon="-13.86456">
        <ele>-3.4</ele>
        <time>2021-07-04 12:16:32</time>
      </trkpt>
      <trkpt lat="28.74313" lon="-13.86456">
        <ele>-3.4</ele>
        <time>2021-07-04 12:16:33</time>
      </trkpt>
      <trkpt lat="28.74316" lon="-13.86455">
        <ele>-3.4</ele>
        <time>2021-07-04 12:16:34</time>
      </trkpt>
      <trkpt lat="28.7432" lon="-13.86454">
        <ele>-3.4</ele>
        <time>2021-07-04 12:16:35</time>
      </trkpt>
      <trkpt lat="28.74323" lon="-13.86453">
        <ele>-3.4</ele>
        <time>2021-07-04 12:16:36</time>
      </trkpt>
      <trkpt lat="28.74326" lon="-13.86452">
        <ele>-3.4</ele>
        <time>2021-07-04 12:16:37</time>
      </trkpt>
      <trkpt lat="28.74329" lon="-13.86451">
        <ele>-3.4</ele>
        <time>2021-07-04 12:16:38</time>
      </trkpt>
      <trkpt lat="28.74331" lon="-13.8645">
        <ele>-3.4</ele>
        <time>2021-07-04 12:16:39</time>
      </trkpt>
      <trkpt lat="28.74333" lon="-13.86449">
        <ele>-3.4</ele>
        <time>2021-07-04 12:16:40</time>
      </trkpt>
      <trkpt lat="28.74335" lon="-13.86449">
        <ele>-3.4</ele>
        <time>2021-07-04 12:16:41</time>
      </trkpt>
      <trkpt lat="28.74338" lon="-13.86449">
        <ele>-3.6</ele>
        <time>2021-07-04 12:16:42</time>
      </trkpt>
      <trkpt lat="28.74342" lon="-13.8645">
        <ele>-3.6</ele>
        <time>2021-07-04 12:16:43</time>
      </trkpt>
      <trkpt lat="28.74345" lon="-13.86451">
        <ele>-3.6</ele>
        <time>2021-07-04 12:16:44</time>
      </trkpt>
      <trkpt lat="28.74348" lon="-13.86452">
        <ele>-3.6</ele>
        <time>2021-07-04 12:16:45</time>
      </trkpt>
      <trkpt lat="28.74351" lon="-13.86453">
        <ele>-3.4</ele>
        <time>2021-07-04 12:16:46</time>
      </trkpt>
      <trkpt lat="28.74354" lon="-13.86454">
        <ele>-3.4</ele>
        <time>2021-07-04 12:16:47</time>
      </trkpt>
      <trkpt lat="28.74357" lon="-13.86456">
        <ele>-3.4</ele>
        <time>2021-07-04 12:16:48</time>
      </trkpt>
      <trkpt lat="28.74361" lon="-13.86458">
        <ele>-3.4</ele>
        <time>2021-07-04 12:16:49</time>
      </trkpt>
      <trkpt lat="28.74364" lon="-13.8646">
        <ele>-3.4</ele>
        <time>2021-07-04 12:16:50</time>
      </trkpt>
      <trkpt lat="28.74367" lon="-13.86462">
        <ele>-3.2</ele>
        <time>2021-07-04 12:16:51</time>
      </trkpt>
      <trkpt lat="28.7437" lon="-13.86464">
        <ele>-3.2</ele>
        <time>2021-07-04 12:16:52</time>
      </trkpt>
      <trkpt lat="28.74373" lon="-13.86466">
        <ele>-3</ele>
        <time>2021-07-04 12:16:53</time>
      </trkpt>
      <trkpt lat="28.74376" lon="-13.86468">
        <ele>-3</ele>
        <time>2021-07-04 12:16:54</time>
      </trkpt>
      <trkpt lat="28.74379" lon="-13.8647">
        <ele>-3</ele>
        <time>2021-07-04 12:16:55</time>
      </trkpt>
      <trkpt lat="28.74382" lon="-13.86472">
        <ele>-3</ele>
        <time>2021-07-04 12:16:56</time>
      </trkpt>
      <trkpt lat="28.74385" lon="-13.86474">
        <ele>-3</ele>
        <time>2021-07-04 12:16:57</time>
      </trkpt>
      <trkpt lat="28.74389" lon="-13.86476">
        <ele>-3</ele>
        <time>2021-07-04 12:16:58</time>
      </trkpt>
      <trkpt lat="28.74391" lon="-13.86478">
        <ele>-3</ele>
        <time>2021-07-04 12:16:59</time>
      </trkpt>
      <trkpt lat="28.74394" lon="-13.8648">
        <ele>-3</ele>
        <time>2021-07-04 12:17:00</time>
      </trkpt>
      <trkpt lat="28.74397" lon="-13.86482">
        <ele>-3</ele>
        <time>2021-07-04 12:17:01</time>
      </trkpt>
      <trkpt lat="28.744" lon="-13.86484">
        <ele>-3</ele>
        <time>2021-07-04 12:17:02</time>
      </trkpt>
      <trkpt lat="28.74403" lon="-13.86486">
        <ele>-3</ele>
        <time>2021-07-04 12:17:03</time>
      </trkpt>
      <trkpt lat="28.74406" lon="-13.86488">
        <ele>-3</ele>
        <time>2021-07-04 12:17:04</time>
      </trkpt>
      <trkpt lat="28.74409" lon="-13.8649">
        <ele>-3</ele>
        <time>2021-07-04 12:17:05</time>
      </trkpt>
      <trkpt lat="28.74412" lon="-13.86492">
        <ele>-3</ele>
        <time>2021-07-04 12:17:06</time>
      </trkpt>
      <trkpt lat="28.74415" lon="-13.86494">
        <ele>-3</ele>
        <time>2021-07-04 12:17:07</time>
      </trkpt>
      <trkpt lat="28.74418" lon="-13.86496">
        <ele>-2.6</ele>
        <time>2021-07-04 12:17:08</time>
      </trkpt>
      <trkpt lat="28.74421" lon="-13.86499">
        <ele>-2.6</ele>
        <time>2021-07-04 12:17:09</time>
      </trkpt>
      <trkpt lat="28.74425" lon="-13.86501">
        <ele>-2.6</ele>
        <time>2021-07-04 12:17:10</time>
      </trkpt>
      <trkpt lat="28.74428" lon="-13.86503">
        <ele>-2.6</ele>
        <time>2021-07-04 12:17:11</time>
      </trkpt>
      <trkpt lat="28.74431" lon="-13.86505">
        <ele>-2.4</ele>
        <time>2021-07-04 12:17:12</time>
      </trkpt>
      <trkpt lat="28.74434" lon="-13.86507">
        <ele>-2.4</ele>
        <time>2021-07-04 12:17:13</time>
      </trkpt>
      <trkpt lat="28.74437" lon="-13.86509">
        <ele>-2.4</ele>
        <time>2021-07-04 12:17:14</time>
      </trkpt>
      <trkpt lat="28.7444" lon="-13.86511">
        <ele>-2.2</ele>
        <time>2021-07-04 12:17:15</time>
      </trkpt>
      <trkpt lat="28.74443" lon="-13.86513">
        <ele>-2.2</ele>
        <time>2021-07-04 12:17:16</time>
      </trkpt>
      <trkpt lat="28.74446" lon="-13.86515">
        <ele>-2.2</ele>
        <time>2021-07-04 12:17:17</time>
      </trkpt>
      <trkpt lat="28.74449" lon="-13.86517">
        <ele>-2.2</ele>
        <time>2021-07-04 12:17:18</time>
      </trkpt>
      <trkpt lat="28.74452" lon="-13.86519">
        <ele>-2.2</ele>
        <time>2021-07-04 12:17:19</time>
      </trkpt>
      <trkpt lat="28.74455" lon="-13.86522">
        <ele>-2.2</ele>
        <time>2021-07-04 12:17:20</time>
      </trkpt>
      <trkpt lat="28.74458" lon="-13.86524">
        <ele>-2.2</ele>
        <time>2021-07-04 12:17:21</time>
      </trkpt>
      <trkpt lat="28.74461" lon="-13.86526">
        <ele>-2.2</ele>
        <time>2021-07-04 12:17:22</time>
      </trkpt>
      <trkpt lat="28.74464" lon="-13.86528">
        <ele>-2.2</ele>
        <time>2021-07-04 12:17:23</time>
      </trkpt>
      <trkpt lat="28.74467" lon="-13.8653">
        <ele>-2.2</ele>
        <time>2021-07-04 12:17:24</time>
      </trkpt>
      <trkpt lat="28.7447" lon="-13.86532">
        <ele>-2.4</ele>
        <time>2021-07-04 12:17:25</time>
      </trkpt>
      <trkpt lat="28.74473" lon="-13.86534">
        <ele>-2.4</ele>
        <time>2021-07-04 12:17:26</time>
      </trkpt>
      <trkpt lat="28.74476" lon="-13.86536">
        <ele>-2.4</ele>
        <time>2021-07-04 12:17:27</time>
      </trkpt>
      <trkpt lat="28.74479" lon="-13.86538">
        <ele>-2.4</ele>
        <time>2021-07-04 12:17:28</time>
      </trkpt>
      <trkpt lat="28.74482" lon="-13.8654">
        <ele>-2.4</ele>
        <time>2021-07-04 12:17:29</time>
      </trkpt>
      <trkpt lat="28.74485" lon="-13.86542">
        <ele>-2.4</ele>
        <time>2021-07-04 12:17:30</time>
      </trkpt>
      <trkpt lat="28.74488" lon="-13.86543">
        <ele>-2.6</ele>
        <time>2021-07-04 12:17:31</time>
      </trkpt>
      <trkpt lat="28.74491" lon="-13.86545">
        <ele>-2.6</ele>
        <time>2021-07-04 12:17:32</time>
      </trkpt>
      <trkpt lat="28.74494" lon="-13.86547">
        <ele>-2.6</ele>
        <time>2021-07-04 12:17:33</time>
      </trkpt>
      <trkpt lat="28.74497" lon="-13.86549">
        <ele>-2.6</ele>
        <time>2021-07-04 12:17:34</time>
      </trkpt>
      <trkpt lat="28.745" lon="-13.86552">
        <ele>-2.6</ele>
        <time>2021-07-04 12:17:35</time>
      </trkpt>
      <trkpt lat="28.74503" lon="-13.86554">
        <ele>-2.6</ele>
        <time>2021-07-04 12:17:36</time>
      </trkpt>
      <trkpt lat="28.74506" lon="-13.86556">
        <ele>-2.6</ele>
        <time>2021-07-04 12:17:37</time>
      </trkpt>
      <trkpt lat="28.74508" lon="-13.86558">
        <ele>-2.6</ele>
        <time>2021-07-04 12:17:38</time>
      </trkpt>
      <trkpt lat="28.74511" lon="-13.8656">
        <ele>-2.6</ele>
        <time>2021-07-04 12:17:39</time>
      </trkpt>
      <trkpt lat="28.74514" lon="-13.86563">
        <ele>-2.6</ele>
        <time>2021-07-04 12:17:40</time>
      </trkpt>
      <trkpt lat="28.74517" lon="-13.86565">
        <ele>-2.6</ele>
        <time>2021-07-04 12:17:41</time>
      </trkpt>
      <trkpt lat="28.7452" lon="-13.86567">
        <ele>-2.4</ele>
        <time>2021-07-04 12:17:42</time>
      </trkpt>
      <trkpt lat="28.74522" lon="-13.8657">
        <ele>-2.4</ele>
        <time>2021-07-04 12:17:43</time>
      </trkpt>
      <trkpt lat="28.74525" lon="-13.86573">
        <ele>-2.4</ele>
        <time>2021-07-04 12:17:44</time>
      </trkpt>
      <trkpt lat="28.74528" lon="-13.86575">
        <ele>-2.4</ele>
        <time>2021-07-04 12:17:45</time>
      </trkpt>
      <trkpt lat="28.7453" lon="-13.86578">
        <ele>-2.4</ele>
        <time>2021-07-04 12:17:46</time>
      </trkpt>
      <trkpt lat="28.74533" lon="-13.86581">
        <ele>-2.4</ele>
        <time>2021-07-04 12:17:47</time>
      </trkpt>
      <trkpt lat="28.74535" lon="-13.86584">
        <ele>-2.4</ele>
        <time>2021-07-04 12:17:48</time>
      </trkpt>
      <trkpt lat="28.74537" lon="-13.86588">
        <ele>-2.4</ele>
        <time>2021-07-04 12:17:49</time>
      </trkpt>
      <trkpt lat="28.74539" lon="-13.86591">
        <ele>-2.4</ele>
        <time>2021-07-04 12:17:50</time>
      </trkpt>
      <trkpt lat="28.74541" lon="-13.86595">
        <ele>-2.4</ele>
        <time>2021-07-04 12:17:51</time>
      </trkpt>
      <trkpt lat="28.74543" lon="-13.86598">
        <ele>-2.4</ele>
        <time>2021-07-04 12:17:52</time>
      </trkpt>
      <trkpt lat="28.74545" lon="-13.86602">
        <ele>-2.4</ele>
        <time>2021-07-04 12:17:53</time>
      </trkpt>
      <trkpt lat="28.74547" lon="-13.86605">
        <ele>-2.2</ele>
        <time>2021-07-04 12:17:54</time>
      </trkpt>
      <trkpt lat="28.74548" lon="-13.86609">
        <ele>-2.2</ele>
        <time>2021-07-04 12:17:55</time>
      </trkpt>
      <trkpt lat="28.7455" lon="-13.86613">
        <ele>-2.2</ele>
        <time>2021-07-04 12:17:56</time>
      </trkpt>
      <trkpt lat="28.74551" lon="-13.86617">
        <ele>-2.2</ele>
        <time>2021-07-04 12:17:57</time>
      </trkpt>
      <trkpt lat="28.74553" lon="-13.8662">
        <ele>-2</ele>
        <time>2021-07-04 12:17:58</time>
      </trkpt>
      <trkpt lat="28.74554" lon="-13.86624">
        <ele>-2</ele>
        <time>2021-07-04 12:17:59</time>
      </trkpt>
      <trkpt lat="28.74555" lon="-13.86628">
        <ele>-1.6</ele>
        <time>2021-07-04 12:18:00</time>
      </trkpt>
      <trkpt lat="28.74556" lon="-13.86632">
        <ele>-1.6</ele>
        <time>2021-07-04 12:18:01</time>
      </trkpt>
      <trkpt lat="28.74557" lon="-13.86636">
        <ele>-1.2</ele>
        <time>2021-07-04 12:18:02</time>
      </trkpt>
      <trkpt lat="28.74557" lon="-13.8664">
        <ele>-1</ele>
        <time>2021-07-04 12:18:03</time>
      </trkpt>
      <trkpt lat="28.74558" lon="-13.86644">
        <ele>-0.8</ele>
        <time>2021-07-04 12:18:04</time>
      </trkpt>
      <trkpt lat="28.74559" lon="-13.86648">
        <ele>-0.4</ele>
        <time>2021-07-04 12:18:05</time>
      </trkpt>
      <trkpt lat="28.74559" lon="-13.86652">
        <ele>-0.2</ele>
        <time>2021-07-04 12:18:06</time>
      </trkpt>
      <trkpt lat="28.74559" lon="-13.86656">
        <time>2021-07-04 12:18:07</time>
      </trkpt>
      <trkpt lat="28.74559" lon="-13.8666">
        <time>2021-07-04 12:18:08</time>
      </trkpt>
      <trkpt lat="28.74559" lon="-13.86664">
        <time>2021-07-04 12:18:09</time>
      </trkpt>
      <trkpt lat="28.74559" lon="-13.86668">
        <ele>0.4</ele>
        <time>2021-07-04 12:18:10</time>
      </trkpt>
      <trkpt lat="28.74559" lon="-13.86672">
        <ele>0.4</ele>
        <time>2021-07-04 12:18:11</time>
      </trkpt>
      <trkpt lat="28.74559" lon="-13.86677">
        <ele>0.4</ele>
        <time>2021-07-04 12:18:12</time>
      </trkpt>
      <trkpt lat="28.74558" lon="-13.86681">
        <ele>0.6</ele>
        <time>2021-07-04 12:18:13</time>
      </trkpt>
      <trkpt lat="28.74558" lon="-13.86685">
        <ele>0.6</ele>
        <time>2021-07-04 12:18:14</time>
      </trkpt>
      <trkpt lat="28.74557" lon="-13.86689">
        <ele>0.6</ele>
        <time>2021-07-04 12:18:15</time>
      </trkpt>
      <trkpt lat="28.74557" lon="-13.86693">
        <ele>0.8</ele>
        <time>2021-07-04 12:18:16</time>
      </trkpt>
      <trkpt lat="28.74557" lon="-13.86698">
        <ele>0.8</ele>
        <time>2021-07-04 12:18:17</time>
      </trkpt>
      <trkpt lat="28.74556" lon="-13.86702">
        <ele>0.8</ele>
        <time>2021-07-04 12:18:18</time>
      </trkpt>
      <trkpt lat="28.74556" lon="-13.86706">
        <ele>0.8</ele>
        <time>2021-07-04 12:18:19</time>
      </trkpt>
      <trkpt lat="28.74555" lon="-13.8671">
        <ele>0.8</ele>
        <time>2021-07-04 12:18:20</time>
      </trkpt>
      <trkpt lat="28.74554" lon="-13.86714">
        <ele>0.8</ele>
        <time>2021-07-04 12:18:21</time>
      </trkpt>
      <trkpt lat="28.74553" lon="-13.86718">
        <ele>0.8</ele>
        <time>2021-07-04 12:18:22</time>
      </trkpt>
      <trkpt lat="28.74553" lon="-13.86722">
        <ele>0.8</ele>
        <time>2021-07-04 12:18:23</time>
      </trkpt>
      <trkpt lat="28.74552" lon="-13.86726">
        <ele>0.8</ele>
        <time>2021-07-04 12:18:24</time>
      </trkpt>
      <trkpt lat="28.74551" lon="-13.86731">
        <ele>0.4</ele>
        <time>2021-07-04 12:18:25</time>
      </trkpt>
      <trkpt lat="28.7455" lon="-13.86735">
        <time>2021-07-04 12:18:26</time>
      </trkpt>
      <trkpt lat="28.74549" lon="-13.86739">
        <time>2021-07-04 12:18:27</time>
      </trkpt>
      <trkpt lat="28.74548" lon="-13.86743">
        <ele>-0.4</ele>
        <time>2021-07-04 12:18:28</time>
      </trkpt>
      <trkpt lat="28.74547" lon="-13.86747">
        <ele>-0.4</ele>
        <time>2021-07-04 12:18:29</time>
      </trkpt>
      <trkpt lat="28.74545" lon="-13.86751">
        <ele>-0.8</ele>
        <time>2021-07-04 12:18:30</time>
      </trkpt>
      <trkpt lat="28.74544" lon="-13.86755">
        <ele>-0.8</ele>
        <time>2021-07-04 12:18:31</time>
      </trkpt>
      <trkpt lat="28.74542" lon="-13.86759">
        <ele>-1</ele>
        <time>2021-07-04 12:18:32</time>
      </trkpt>
      <trkpt lat="28.74541" lon="-13.86763">
        <ele>-1</ele>
        <time>2021-07-04 12:18:33</time>
      </trkpt>
      <trkpt lat="28.7454" lon="-13.86767">
        <ele>-1</ele>
        <time>2021-07-04 12:18:34</time>
      </trkpt>
      <trkpt lat="28.74537" lon="-13.86771">
        <ele>-1.2</ele>
        <time>2021-07-04 12:18:35</time>
      </trkpt>
      <trkpt lat="28.74535" lon="-13.86774">
        <ele>-1.2</ele>
        <time>2021-07-04 12:18:36</time>
      </trkpt>
      <trkpt lat="28.74533" lon="-13.86778">
        <ele>-1.2</ele>
        <time>2021-07-04 12:18:37</time>
      </trkpt>
      <trkpt lat="28.74531" lon="-13.86782">
        <ele>-1.2</ele>
        <time>2021-07-04 12:18:38</time>
      </trkpt>
      <trkpt lat="28.7453" lon="-13.86786">
        <ele>-1.4</ele>
        <time>2021-07-04 12:18:39</time>
      </trkpt>
      <trkpt lat="28.74528" lon="-13.8679">
        <ele>-1.4</ele>
        <time>2021-07-04 12:18:40</time>
      </trkpt>
      <trkpt lat="28.74526" lon="-13.86794">
        <ele>-1.4</ele>
        <time>2021-07-04 12:18:41</time>
      </trkpt>
      <trkpt lat="28.74524" lon="-13.86798">
        <ele>-1.4</ele>
        <time>2021-07-04 12:18:42</time>
      </trkpt>
      <trkpt lat="28.74522" lon="-13.86802">
        <ele>-1.4</ele>
        <time>2021-07-04 12:18:43</time>
      </trkpt>
      <trkpt lat="28.7452" lon="-13.86806">
        <ele>-1.8</ele>
        <time>2021-07-04 12:18:44</time>
      </trkpt>
      <trkpt lat="28.74518" lon="-13.8681">
        <ele>-1.8</ele>
        <time>2021-07-04 12:18:45</time>
      </trkpt>
      <trkpt lat="28.74516" lon="-13.86814">
        <ele>-1.8</ele>
        <time>2021-07-04 12:18:46</time>
      </trkpt>
      <trkpt lat="28.74513" lon="-13.86818">
        <ele>-2</ele>
        <time>2021-07-04 12:18:47</time>
      </trkpt>
      <trkpt lat="28.74511" lon="-13.86822">
        <ele>-2</ele>
        <time>2021-07-04 12:18:48</time>
      </trkpt>
      <trkpt lat="28.74508" lon="-13.86825">
        <ele>-2</ele>
        <time>2021-07-04 12:18:49</time>
      </trkpt>
      <trkpt lat="28.74505" lon="-13.86829">
        <ele>-2</ele>
        <time>2021-07-04 12:18:50</time>
      </trkpt>
      <trkpt lat="28.74503" lon="-13.86832">
        <ele>-2</ele>
        <time>2021-07-04 12:18:51</time>
      </trkpt>
      <trkpt lat="28.745" lon="-13.86835">
        <ele>-2</ele>
        <time>2021-07-04 12:18:52</time>
      </trkpt>
      <trkpt lat="28.74497" lon="-13.86838">
        <ele>-2</ele>
        <time>2021-07-04 12:18:53</time>
      </trkpt>
      <trkpt lat="28.74494" lon="-13.86842">
        <ele>-2</ele>
        <time>2021-07-04 12:18:54</time>
      </trkpt>
      <trkpt lat="28.74492" lon="-13.86845">
        <ele>-2.2</ele>
        <time>2021-07-04 12:18:55</time>
      </trkpt>
      <trkpt lat="28.7449" lon="-13.86849">
        <ele>-2.2</ele>
        <time>2021-07-04 12:18:56</time>
      </trkpt>
      <trkpt lat="28.74488" lon="-13.86852">
        <ele>-2.2</ele>
        <time>2021-07-04 12:18:57</time>
      </trkpt>
      <trkpt lat="28.74485" lon="-13.86855">
        <ele>-2.2</ele>
        <time>2021-07-04 12:18:58</time>
      </trkpt>
      <trkpt lat="28.74482" lon="-13.86858">
        <ele>-2.4</ele>
        <time>2021-07-04 12:18:59</time>
      </trkpt>
      <trkpt lat="28.7448" lon="-13.8686">
        <ele>-2.4</ele>
        <time>2021-07-04 12:19:00</time>
      </trkpt>
      <trkpt lat="28.74477" lon="-13.86863">
        <ele>-2.4</ele>
        <time>2021-07-04 12:19:01</time>
      </trkpt>
      <trkpt lat="28.74474" lon="-13.86866">
        <ele>-2.4</ele>
        <time>2021-07-04 12:19:02</time>
      </trkpt>
      <trkpt lat="28.74472" lon="-13.8687">
        <ele>-2.4</ele>
        <time>2021-07-04 12:19:03</time>
      </trkpt>
      <trkpt lat="28.74469" lon="-13.86873">
        <ele>-2.6</ele>
        <time>2021-07-04 12:19:04</time>
      </trkpt>
      <trkpt lat="28.74466" lon="-13.86876">
        <ele>-2.6</ele>
        <time>2021-07-04 12:19:05</time>
      </trkpt>
      <trkpt lat="28.74463" lon="-13.86879">
        <ele>-2.6</ele>
        <time>2021-07-04 12:19:06</time>
      </trkpt>
      <trkpt lat="28.7446" lon="-13.86882">
        <ele>-2.6</ele>
        <time>2021-07-04 12:19:07</time>
      </trkpt>
      <trkpt lat="28.74458" lon="-13.86885">
        <ele>-2.6</ele>
        <time>2021-07-04 12:19:08</time>
      </trkpt>
      <trkpt lat="28.74455" lon="-13.86888">
        <ele>-2.6</ele>
        <time>2021-07-04 12:19:09</time>
      </trkpt>
      <trkpt lat="28.74453" lon="-13.86892">
        <ele>-2.6</ele>
        <time>2021-07-04 12:19:10</time>
      </trkpt>
      <trkpt lat="28.7445" lon="-13.86895">
        <ele>-2.6</ele>
        <time>2021-07-04 12:19:11</time>
      </trkpt>
      <trkpt lat="28.74448" lon="-13.86899">
        <ele>-2.8</ele>
        <time>2021-07-04 12:19:12</time>
      </trkpt>
      <trkpt lat="28.74445" lon="-13.86902">
        <ele>-2.8</ele>
        <time>2021-07-04 12:19:13</time>
      </trkpt>
      <trkpt lat="28.74442" lon="-13.86906">
        <ele>-2.8</ele>
        <time>2021-07-04 12:19:14</time>
      </trkpt>
      <trkpt lat="28.74439" lon="-13.86909">
        <ele>-3.2</ele>
        <time>2021-07-04 12:19:15</time>
      </trkpt>
      <trkpt lat="28.74436" lon="-13.86913">
        <ele>-3.2</ele>
        <time>2021-07-04 12:19:16</time>
      </trkpt>
      <trkpt lat="28.74434" lon="-13.86916">
        <ele>-3.2</ele>
        <time>2021-07-04 12:19:17</time>
      </trkpt>
      <trkpt lat="28.74431" lon="-13.8692">
        <ele>-3.4</ele>
        <time>2021-07-04 12:19:18</time>
      </trkpt>
      <trkpt lat="28.74428" lon="-13.86923">
        <ele>-3.4</ele>
        <time>2021-07-04 12:19:19</time>
      </trkpt>
      <trkpt lat="28.74425" lon="-13.86927">
        <ele>-3.4</ele>
        <time>2021-07-04 12:19:20</time>
      </trkpt>
      <trkpt lat="28.74423" lon="-13.8693">
        <ele>-3.4</ele>
        <time>2021-07-04 12:19:21</time>
      </trkpt>
      <trkpt lat="28.7442" lon="-13.86933">
        <ele>-3.4</ele>
        <time>2021-07-04 12:19:22</time>
      </trkpt>
      <trkpt lat="28.74418" lon="-13.86936">
        <ele>-3.4</ele>
        <time>2021-07-04 12:19:23</time>
      </trkpt>
      <trkpt lat="28.74415" lon="-13.86939">
        <ele>-3.4</ele>
        <time>2021-07-04 12:19:24</time>
      </trkpt>
      <trkpt lat="28.74413" lon="-13.86942">
        <ele>-3.2</ele>
        <time>2021-07-04 12:19:25</time>
      </trkpt>
      <trkpt lat="28.7441" lon="-13.86945">
        <ele>-3.2</ele>
        <time>2021-07-04 12:19:26</time>
      </trkpt>
      <trkpt lat="28.74408" lon="-13.86948">
        <ele>-3.2</ele>
        <time>2021-07-04 12:19:27</time>
      </trkpt>
      <trkpt lat="28.74405" lon="-13.86951">
        <ele>-3.2</ele>
        <time>2021-07-04 12:19:28</time>
      </trkpt>
      <trkpt lat="28.74402" lon="-13.86953">
        <ele>-3.4</ele>
        <time>2021-07-04 12:19:29</time>
      </trkpt>
      <trkpt lat="28.744" lon="-13.86955">
        <ele>-3.6</ele>
        <time>2021-07-04 12:19:30</time>
      </trkpt>
      <trkpt lat="28.74398" lon="-13.86957">
        <ele>-3.6</ele>
        <time>2021-07-04 12:19:31</time>
      </trkpt>
      <trkpt lat="28.74396" lon="-13.8696">
        <ele>-3.6</ele>
        <time>2021-07-04 12:19:32</time>
      </trkpt>
      <trkpt lat="28.74394" lon="-13.86963">
        <ele>-3.8</ele>
        <time>2021-07-04 12:19:33</time>
      </trkpt>
      <trkpt lat="28.74393" lon="-13.86966">
        <ele>-3.8</ele>
        <time>2021-07-04 12:19:34</time>
      </trkpt>
      <trkpt lat="28.74391" lon="-13.86969">
        <ele>-3.8</ele>
        <time>2021-07-04 12:19:35</time>
      </trkpt>
      <trkpt lat="28.74388" lon="-13.86973">
        <ele>-3.8</ele>
        <time>2021-07-04 12:19:36</time>
      </trkpt>
      <trkpt lat="28.74386" lon="-13.86976">
        <ele>-3.8</ele>
        <time>2021-07-04 12:19:37</time>
      </trkpt>
      <trkpt lat="28.74383" lon="-13.86979">
        <ele>-3.8</ele>
        <time>2021-07-04 12:19:38</time>
      </trkpt>
      <trkpt lat="28.7438" lon="-13.86982">
        <ele>-3.8</ele>
        <time>2021-07-04 12:19:39</time>
      </trkpt>
      <trkpt lat="28.74378" lon="-13.86985">
        <ele>-3.8</ele>
        <time>2021-07-04 12:19:40</time>
      </trkpt>
      <trkpt lat="28.74375" lon="-13.86989">
        <ele>-3.8</ele>
        <time>2021-07-04 12:19:41</time>
      </trkpt>
      <trkpt lat="28.74372" lon="-13.86993">
        <ele>-3.8</ele>
        <time>2021-07-04 12:19:42</time>
      </trkpt>
      <trkpt lat="28.74369" lon="-13.86996">
        <ele>-4.2</ele>
        <time>2021-07-04 12:19:43</time>
      </trkpt>
      <trkpt lat="28.74366" lon="-13.87">
        <ele>-4.4</ele>
        <time>2021-07-04 12:19:44</time>
      </trkpt>
      <trkpt lat="28.74363" lon="-13.87004">
        <ele>-4.8</ele>
        <time>2021-07-04 12:19:45</time>
      </trkpt>
      <trkpt lat="28.7436" lon="-13.87007">
        <ele>-4.8</ele>
        <time>2021-07-04 12:19:46</time>
      </trkpt>
      <trkpt lat="28.74358" lon="-13.87011">
        <ele>-4.8</ele>
        <time>2021-07-04 12:19:47</time>
      </trkpt>
      <trkpt lat="28.74356" lon="-13.87015">
        <ele>-4.8</ele>
        <time>2021-07-04 12:19:48</time>
      </trkpt>
      <trkpt lat="28.74354" lon="-13.87019">
        <ele>-4.4</ele>
        <time>2021-07-04 12:19:49</time>
      </trkpt>
      <trkpt lat="28.74352" lon="-13.87023">
        <ele>-4.4</ele>
        <time>2021-07-04 12:19:50</time>
      </trkpt>
      <trkpt lat="28.7435" lon="-13.87027">
        <ele>-4</ele>
        <time>2021-07-04 12:19:51</time>
      </trkpt>
      <trkpt lat="28.74349" lon="-13.87031">
        <ele>-4</ele>
        <time>2021-07-04 12:19:52</time>
      </trkpt>
      <trkpt lat="28.74347" lon="-13.87034">
        <ele>-3.8</ele>
        <time>2021-07-04 12:19:53</time>
      </trkpt>
      <trkpt lat="28.74344" lon="-13.87036">
        <ele>-3.8</ele>
        <time>2021-07-04 12:19:54</time>
      </trkpt>
      <trkpt lat="28.74343" lon="-13.8704">
        <ele>-3.4</ele>
        <time>2021-07-04 12:19:55</time>
      </trkpt>
      <trkpt lat="28.74341" lon="-13.87043">
        <ele>-3.4</ele>
        <time>2021-07-04 12:19:56</time>
      </trkpt>
      <trkpt lat="28.74338" lon="-13.87046">
        <ele>-3.2</ele>
        <time>2021-07-04 12:19:57</time>
      </trkpt>
      <trkpt lat="28.74336" lon="-13.87049">
        <ele>-3.2</ele>
        <time>2021-07-04 12:19:58</time>
      </trkpt>
      <trkpt lat="28.74333" lon="-13.87053">
        <ele>-2.8</ele>
        <time>2021-07-04 12:19:59</time>
      </trkpt>
      <trkpt lat="28.74331" lon="-13.87056">
        <ele>-2.6</ele>
        <time>2021-07-04 12:20:00</time>
      </trkpt>
      <trkpt lat="28.74329" lon="-13.87059">
        <ele>-2.4</ele>
        <time>2021-07-04 12:20:01</time>
      </trkpt>
      <trkpt lat="28.74326" lon="-13.87062">
        <ele>-2.4</ele>
        <time>2021-07-04 12:20:02</time>
      </trkpt>
      <trkpt lat="28.74324" lon="-13.87064">
        <ele>-2.4</ele>
        <time>2021-07-04 12:20:03</time>
      </trkpt>
      <trkpt lat="28.74322" lon="-13.87067">
        <ele>-2.4</ele>
        <time>2021-07-04 12:20:04</time>
      </trkpt>
      <trkpt lat="28.74319" lon="-13.87069">
        <ele>-2.4</ele>
        <time>2021-07-04 12:20:05</time>
      </trkpt>
      <trkpt lat="28.74317" lon="-13.87072">
        <ele>-2.4</ele>
        <time>2021-07-04 12:20:06</time>
      </trkpt>
      <trkpt lat="28.74314" lon="-13.87075">
        <ele>-2.4</ele>
        <time>2021-07-04 12:20:07</time>
      </trkpt>
      <trkpt lat="28.74312" lon="-13.87078">
        <ele>-2.4</ele>
        <time>2021-07-04 12:20:08</time>
      </trkpt>
      <trkpt lat="28.7431" lon="-13.87081">
        <ele>-2.4</ele>
        <time>2021-07-04 12:20:09</time>
      </trkpt>
      <trkpt lat="28.74308" lon="-13.87084">
        <ele>-2.2</ele>
        <time>2021-07-04 12:20:10</time>
      </trkpt>
      <trkpt lat="28.74305" lon="-13.87087">
        <ele>-2.2</ele>
        <time>2021-07-04 12:20:11</time>
      </trkpt>
      <trkpt lat="28.74302" lon="-13.87089">
        <ele>-2.2</ele>
        <time>2021-07-04 12:20:12</time>
      </trkpt>
      <trkpt lat="28.74299" lon="-13.87091">
        <ele>-2.2</ele>
        <time>2021-07-04 12:20:13</time>
      </trkpt>
      <trkpt lat="28.74296" lon="-13.87093">
        <ele>-2.2</ele>
        <time>2021-07-04 12:20:14</time>
      </trkpt>
      <trkpt lat="28.74292" lon="-13.87094">
        <ele>-2.2</ele>
        <time>2021-07-04 12:20:15</time>
      </trkpt>
      <trkpt lat="28.74288" lon="-13.87095">
        <ele>-2.2</ele>
        <time>2021-07-04 12:20:16</time>
      </trkpt>
      <trkpt lat="28.74285" lon="-13.87095">
        <ele>-2.4</ele>
        <time>2021-07-04 12:20:17</time>
      </trkpt>
      <trkpt lat="28.74281" lon="-13.87095">
        <ele>-2.4</ele>
        <time>2021-07-04 12:20:18</time>
      </trkpt>
      <trkpt lat="28.74277" lon="-13.87095">
        <ele>-2.4</ele>
        <time>2021-07-04 12:20:19</time>
      </trkpt>
      <trkpt lat="28.74274" lon="-13.87096">
        <ele>-2.6</ele>
        <time>2021-07-04 12:20:20</time>
      </trkpt>
      <trkpt lat="28.7427" lon="-13.87096">
        <ele>-2.6</ele>
        <time>2021-07-04 12:20:21</time>
      </trkpt>
      <trkpt lat="28.74266" lon="-13.87096">
        <ele>-2.6</ele>
        <time>2021-07-04 12:20:22</time>
      </trkpt>
      <trkpt lat="28.74262" lon="-13.87096">
        <ele>-2.6</ele>
        <time>2021-07-04 12:20:23</time>
      </trkpt>
      <trkpt lat="28.74259" lon="-13.87096">
        <ele>-2.8</ele>
        <time>2021-07-04 12:20:24</time>
      </trkpt>
      <trkpt lat="28.74255" lon="-13.87096">
        <ele>-2.8</ele>
        <time>2021-07-04 12:20:25</time>
      </trkpt>
      <trkpt lat="28.74251" lon="-13.87096">
        <ele>-2.8</ele>
        <time>2021-07-04 12:20:26</time>
      </trkpt>
      <trkpt lat="28.74247" lon="-13.87096">
        <ele>-2.8</ele>
        <time>2021-07-04 12:20:27</time>
      </trkpt>
      <trkpt lat="28.74244" lon="-13.87096">
        <ele>-2.8</ele>
        <time>2021-07-04 12:20:28</time>
      </trkpt>
      <trkpt lat="28.7424" lon="-13.87096">
        <ele>-2.8</ele>
        <time>2021-07-04 12:20:29</time>
      </trkpt>
      <trkpt lat="28.74237" lon="-13.87095">
        <ele>-2.6</ele>
        <time>2021-07-04 12:20:30</time>
      </trkpt>
      <trkpt lat="28.74233" lon="-13.87095">
        <ele>-2.6</ele>
        <time>2021-07-04 12:20:31</time>
      </trkpt>
      <trkpt lat="28.7423" lon="-13.87095">
        <ele>-2.6</ele>
        <time>2021-07-04 12:20:32</time>
      </trkpt>
      <trkpt lat="28.74227" lon="-13.87096">
        <ele>-2.6</ele>
        <time>2021-07-04 12:20:33</time>
      </trkpt>
      <trkpt lat="28.74225" lon="-13.87095">
        <ele>-2.4</ele>
        <time>2021-07-04 12:20:34</time>
      </trkpt>
      <trkpt lat="28.74222" lon="-13.87095">
        <ele>-2.4</ele>
        <time>2021-07-04 12:20:35</time>
      </trkpt>
      <trkpt lat="28.7422" lon="-13.87095">
        <ele>-2.4</ele>
        <time>2021-07-04 12:20:36</time>
      </trkpt>
      <trkpt lat="28.74217" lon="-13.87095">
        <ele>-2.2</ele>
        <time>2021-07-04 12:20:37</time>
      </trkpt>
      <trkpt lat="28.74214" lon="-13.87095">
        <ele>-2.2</ele>
        <time>2021-07-04 12:20:38</time>
      </trkpt>
      <trkpt lat="28.74211" lon="-13.87096">
        <ele>-2</ele>
        <time>2021-07-04 12:20:39</time>
      </trkpt>
      <trkpt lat="28.74208" lon="-13.87096">
        <ele>-2</ele>
        <time>2021-07-04 12:20:40</time>
      </trkpt>
      <trkpt lat="28.74204" lon="-13.87096">
        <ele>-2</ele>
        <time>2021-07-04 12:20:41</time>
      </trkpt>
      <trkpt lat="28.742" lon="-13.87096">
        <ele>-2</ele>
        <time>2021-07-04 12:20:42</time>
      </trkpt>
      <trkpt lat="28.74197" lon="-13.87096">
        <ele>-2.2</ele>
        <time>2021-07-04 12:20:43</time>
      </trkpt>
      <trkpt lat="28.74193" lon="-13.87096">
        <ele>-2.2</ele>
        <time>2021-07-04 12:20:44</time>
      </trkpt>
      <trkpt lat="28.7419" lon="-13.87096">
        <ele>-2.2</ele>
        <time>2021-07-04 12:20:45</time>
      </trkpt>
      <trkpt lat="28.74186" lon="-13.87096">
        <ele>-2.2</ele>
        <time>2021-07-04 12:20:46</time>
      </trkpt>
      <trkpt lat="28.74182" lon="-13.87096">
        <ele>-2.2</ele>
        <time>2021-07-04 12:20:47</time>
      </trkpt>
      <trkpt lat="28.74179" lon="-13.87096">
        <ele>-2.2</ele>
        <time>2021-07-04 12:20:48</time>
      </trkpt>
      <trkpt lat="28.74175" lon="-13.87096">
        <ele>-2.2</ele>
        <time>2021-07-04 12:20:49</time>
      </trkpt>
      <trkpt lat="28.74171" lon="-13.87096">
        <ele>-2.2</ele>
        <time>2021-07-04 12:20:50</time>
      </trkpt>
      <trkpt lat="28.74168" lon="-13.87096">
        <ele>-2.2</ele>
        <time>2021-07-04 12:20:51</time>
      </trkpt>
      <trkpt lat="28.74165" lon="-13.87096">
        <ele>-1.8</ele>
        <time>2021-07-04 12:20:52</time>
      </trkpt>
      <trkpt lat="28.74161" lon="-13.87096">
        <ele>-1.8</ele>
        <time>2021-07-04 12:20:53</time>
      </trkpt>
      <trkpt lat="28.74158" lon="-13.87096">
        <ele>-1.6</ele>
        <time>2021-07-04 12:20:54</time>
      </trkpt>
      <trkpt lat="28.74155" lon="-13.87096">
        <ele>-1.4</ele>
        <time>2021-07-04 12:20:55</time>
      </trkpt>
      <trkpt lat="28.74153" lon="-13.87096">
        <ele>-1.4</ele>
        <time>2021-07-04 12:20:56</time>
      </trkpt>
      <trkpt lat="28.7415" lon="-13.87096">
        <ele>-1</ele>
        <time>2021-07-04 12:20:57</time>
      </trkpt>
      <trkpt lat="28.74148" lon="-13.87097">
        <ele>-1</ele>
        <time>2021-07-04 12:20:58</time>
      </trkpt>
      <trkpt lat="28.74147" lon="-13.87098">
        <ele>-0.6</ele>
        <time>2021-07-04 12:20:59</time>
      </trkpt>
      <trkpt lat="28.74146" lon="-13.87101">
        <ele>-0.4</ele>
        <time>2021-07-04 12:21:00</time>
      </trkpt>
      <trkpt lat="28.74146" lon="-13.87105">
        <time>2021-07-04 12:21:01</time>
      </trkpt>
      <trkpt lat="28.74147" lon="-13.87108">
        <ele>0.4</ele>
        <time>2021-07-04 12:21:02</time>
      </trkpt>
      <trkpt lat="28.74149" lon="-13.87112">
        <ele>0.6</ele>
        <time>2021-07-04 12:21:03</time>
      </trkpt>
      <trkpt lat="28.74151" lon="-13.87115">
        <ele>1</ele>
        <time>2021-07-04 12:21:04</time>
      </trkpt>
      <trkpt lat="28.74153" lon="-13.87118">
        <ele>1.4</ele>
        <time>2021-07-04 12:21:05</time>
      </trkpt>
      <trkpt lat="28.74155" lon="-13.87121">
        <ele>1.4</ele>
        <time>2021-07-04 12:21:06</time>
      </trkpt>
      <trkpt lat="28.74157" lon="-13.87123">
        <ele>1.6</ele>
        <time>2021-07-04 12:21:07</time>
      </trkpt>
      <trkpt lat="28.7416" lon="-13.87125">
        <ele>1.6</ele>
        <time>2021-07-04 12:21:08</time>
      </trkpt>
      <trkpt lat="28.74164" lon="-13.87127">
        <ele>1.6</ele>
        <time>2021-07-04 12:21:09</time>
      </trkpt>
      <trkpt lat="28.74167" lon="-13.87129">
        <ele>1.6</ele>
        <time>2021-07-04 12:21:10</time>
      </trkpt>
      <trkpt lat="28.74171" lon="-13.8713">
        <ele>1.6</ele>
        <time>2021-07-04 12:21:11</time>
      </trkpt>
      <trkpt lat="28.74174" lon="-13.87132">
        <ele>1.6</ele>
        <time>2021-07-04 12:21:12</time>
      </trkpt>
      <trkpt lat="28.74178" lon="-13.87134">
        <ele>1.6</ele>
        <time>2021-07-04 12:21:13</time>
      </trkpt>
      <trkpt lat="28.74181" lon="-13.87137">
        <ele>1.2</ele>
        <time>2021-07-04 12:21:14</time>
      </trkpt>
      <trkpt lat="28.74184" lon="-13.87141">
        <ele>1</ele>
        <time>2021-07-04 12:21:15</time>
      </trkpt>
      <trkpt lat="28.74186" lon="-13.87145">
        <ele>0.6</ele>
        <time>2021-07-04 12:21:16</time>
      </trkpt>
      <trkpt lat="28.74188" lon="-13.8715">
        <ele>0.6</ele>
        <time>2021-07-04 12:21:17</time>
      </trkpt>
      <trkpt lat="28.7419" lon="-13.87155">
        <time>2021-07-04 12:21:18</time>
      </trkpt>
      <trkpt lat="28.74191" lon="-13.8716">
        <time>2021-07-04 12:21:19</time>
      </trkpt>
      <trkpt lat="28.74192" lon="-13.87166">
        <ele>-0.2</ele>
        <time>2021-07-04 12:21:20</time>
      </trkpt>
      <trkpt lat="28.74192" lon="-13.87171">
        <ele>-0.2</ele>
        <time>2021-07-04 12:21:21</time>
      </trkpt>
      <trkpt lat="28.74193" lon="-13.87176">
        <ele>-0.2</ele>
        <time>2021-07-04 12:21:22</time>
      </trkpt>
      <trkpt lat="28.74193" lon="-13.87181">
        <ele>-0.2</ele>
        <time>2021-07-04 12:21:23</time>
      </trkpt>
      <trkpt lat="28.74194" lon="-13.87187">
        <ele>-0.2</ele>
        <time>2021-07-04 12:21:24</time>
      </trkpt>
      <trkpt lat="28.74193" lon="-13.87192">
        <ele>-0.2</ele>
        <time>2021-07-04 12:21:25</time>
      </trkpt>
      <trkpt lat="28.74193" lon="-13.87197">
        <ele>-0.4</ele>
        <time>2021-07-04 12:21:26</time>
      </trkpt>
      <trkpt lat="28.74193" lon="-13.87203">
        <ele>-0.4</ele>
        <time>2021-07-04 12:21:27</time>
      </trkpt>
      <trkpt lat="28.74192" lon="-13.87208">
        <ele>-0.4</ele>
        <time>2021-07-04 12:21:28</time>
      </trkpt>
      <trkpt lat="28.74191" lon="-13.87214">
        <ele>-0.4</ele>
        <time>2021-07-04 12:21:29</time>
      </trkpt>
      <trkpt lat="28.74191" lon="-13.87221">
        <ele>-0.4</ele>
        <time>2021-07-04 12:21:30</time>
      </trkpt>
      <trkpt lat="28.7419" lon="-13.87227">
        <ele>-0.4</ele>
        <time>2021-07-04 12:21:31</time>
      </trkpt>
      <trkpt lat="28.74189" lon="-13.87233">
        <ele>-0.4</ele>
        <time>2021-07-04 12:21:32</time>
      </trkpt>
      <trkpt lat="28.74188" lon="-13.8724">
        <ele>-0.8</ele>
        <time>2021-07-04 12:21:33</time>
      </trkpt>
      <trkpt lat="28.74187" lon="-13.87246">
        <ele>-1</ele>
        <time>2021-07-04 12:21:34</time>
      </trkpt>
      <trkpt lat="28.74186" lon="-13.87251">
        <ele>-1</ele>
        <time>2021-07-04 12:21:35</time>
      </trkpt>
      <trkpt lat="28.74186" lon="-13.87256">
        <ele>-1</ele>
        <time>2021-07-04 12:21:36</time>
      </trkpt>
      <trkpt lat="28.74186" lon="-13.87262">
        <ele>-1</ele>
        <time>2021-07-04 12:21:37</time>
      </trkpt>
      <trkpt lat="28.74184" lon="-13.87266">
        <ele>-1.2</ele>
        <time>2021-07-04 12:21:38</time>
      </trkpt>
      <trkpt lat="28.74184" lon="-13.8727">
        <ele>-1.2</ele>
        <time>2021-07-04 12:21:39</time>
      </trkpt>
      <trkpt lat="28.74183" lon="-13.87275">
        <ele>-1.2</ele>
        <time>2021-07-04 12:21:40</time>
      </trkpt>
      <trkpt lat="28.74183" lon="-13.87279">
        <ele>-1.6</ele>
        <time>2021-07-04 12:21:41</time>
      </trkpt>
      <trkpt lat="28.74183" lon="-13.87284">
        <ele>-1.6</ele>
        <time>2021-07-04 12:21:42</time>
      </trkpt>
      <trkpt lat="28.74183" lon="-13.87289">
        <ele>-1.6</ele>
        <time>2021-07-04 12:21:43</time>
      </trkpt>
      <trkpt lat="28.74183" lon="-13.87293">
        <ele>-1.6</ele>
        <time>2021-07-04 12:21:44</time>
      </trkpt>
      <trkpt lat="28.74183" lon="-13.87297">
        <ele>-1.4</ele>
        <time>2021-07-04 12:21:45</time>
      </trkpt>
      <trkpt lat="28.74183" lon="-13.87301">
        <ele>-1.4</ele>
        <time>2021-07-04 12:21:46</time>
      </trkpt>
      <trkpt lat="28.74182" lon="-13.87305">
        <ele>-1.4</ele>
        <time>2021-07-04 12:21:47</time>
      </trkpt>
      <trkpt lat="28.7418" lon="-13.87309">
        <ele>-1.4</ele>
        <time>2021-07-04 12:21:48</time>
      </trkpt>
      <trkpt lat="28.7418" lon="-13.87313">
        <ele>-1.4</ele>
        <time>2021-07-04 12:21:49</time>
      </trkpt>
      <trkpt lat="28.7418" lon="-13.87317">
        <ele>-1.4</ele>
        <time>2021-07-04 12:21:50</time>
      </trkpt>
      <trkpt lat="28.74181" lon="-13.87321">
        <ele>-1</ele>
        <time>2021-07-04 12:21:51</time>
      </trkpt>
      <trkpt lat="28.74182" lon="-13.87324">
        <ele>-0.6</ele>
        <time>2021-07-04 12:21:52</time>
      </trkpt>
      <trkpt lat="28.74183" lon="-13.87328">
        <ele>-0.4</ele>
        <time>2021-07-04 12:21:53</time>
      </trkpt>
      <trkpt lat="28.74185" lon="-13.87331">
        <ele>-0.4</ele>
        <time>2021-07-04 12:21:54</time>
      </trkpt>
      <trkpt lat="28.74187" lon="-13.87335">
        <ele>-0.2</ele>
        <time>2021-07-04 12:21:55</time>
      </trkpt>
      <trkpt lat="28.74188" lon="-13.87339">
        <ele>-0.2</ele>
        <time>2021-07-04 12:21:56</time>
      </trkpt>
      <trkpt lat="28.7419" lon="-13.87342">
        <ele>-0.2</ele>
        <time>2021-07-04 12:21:57</time>
      </trkpt>
      <trkpt lat="28.74192" lon="-13.87346">
        <ele>-0.2</ele>
        <time>2021-07-04 12:21:58</time>
      </trkpt>
      <trkpt lat="28.74194" lon="-13.8735">
        <ele>-0.2</ele>
        <time>2021-07-04 12:21:59</time>
      </trkpt>
      <trkpt lat="28.74196" lon="-13.87354">
        <ele>-0.4</ele>
        <time>2021-07-04 12:22:00</time>
      </trkpt>
      <trkpt lat="28.74198" lon="-13.87356">
        <ele>-0.4</ele>
        <time>2021-07-04 12:22:01</time>
      </trkpt>
      <trkpt lat="28.74199" lon="-13.87359">
        <ele>-0.4</ele>
        <time>2021-07-04 12:22:02</time>
      </trkpt>
      <trkpt lat="28.74201" lon="-13.87361">
        <ele>-0.4</ele>
        <time>2021-07-04 12:22:03</time>
      </trkpt>
      <trkpt lat="28.74202" lon="-13.87363">
        <ele>-0.8</ele>
        <time>2021-07-04 12:22:04</time>
      </trkpt>
      <trkpt lat="28.74205" lon="-13.87365">
        <ele>-0.8</ele>
        <time>2021-07-04 12:22:05</time>
      </trkpt>
      <trkpt lat="28.74207" lon="-13.87367">
        <ele>-0.8</ele>
        <time>2021-07-04 12:22:06</time>
      </trkpt>
      <trkpt lat="28.74209" lon="-13.87369">
        <ele>-0.8</ele>
        <time>2021-07-04 12:22:07</time>
      </trkpt>
      <trkpt lat="28.74211" lon="-13.87373">
        <ele>-0.6</ele>
        <time>2021-07-04 12:22:08</time>
      </trkpt>
      <trkpt lat="28.74212" lon="-13.87376">
        <ele>-0.6</ele>
        <time>2021-07-04 12:22:09</time>
      </trkpt>
      <trkpt lat="28.74213" lon="-13.8738">
        <ele>-0.2</ele>
        <time>2021-07-04 12:22:10</time>
      </trkpt>
      <trkpt lat="28.74214" lon="-13.87384">
        <ele>-0.2</ele>
        <time>2021-07-04 12:22:11</time>
      </trkpt>
      <trkpt lat="28.74215" lon="-13.87388">
        <ele>-0.2</ele>
        <time>2021-07-04 12:22:12</time>
      </trkpt>
      <trkpt lat="28.74219" lon="-13.874">
        <time>2021-07-04 12:22:13</time>
      </trkpt>
      <trkpt lat="28.7422" lon="-13.87405">
        <ele>0.4</ele>
        <time>2021-07-04 12:22:14</time>
      </trkpt>
      <trkpt lat="28.74221" lon="-13.87409">
        <ele>0.4</ele>
        <time>2021-07-04 12:22:15</time>
      </trkpt>
      <trkpt lat="28.74222" lon="-13.87413">
        <ele>0.4</ele>
        <time>2021-07-04 12:22:16</time>
      </trkpt>
      <trkpt lat="28.74223" lon="-13.87417">
        <ele>0.4</ele>
        <time>2021-07-04 12:22:17</time>
      </trkpt>
      <trkpt lat="28.74224" lon="-13.87422">
        <ele>0.4</ele>
        <time>2021-07-04 12:22:18</time>
      </trkpt>
      <trkpt lat="28.74225" lon="-13.87426">
        <ele>0.6</ele>
        <time>2021-07-04 12:22:19</time>
      </trkpt>
      <trkpt lat="28.74227" lon="-13.8743">
        <ele>0.6</ele>
        <time>2021-07-04 12:22:20</time>
      </trkpt>
      <trkpt lat="28.74228" lon="-13.87434">
        <ele>0.6</ele>
        <time>2021-07-04 12:22:21</time>
      </trkpt>
      <trkpt lat="28.7423" lon="-13.87439">
        <ele>0.6</ele>
        <time>2021-07-04 12:22:22</time>
      </trkpt>
      <trkpt lat="28.74232" lon="-13.87443">
        <ele>0.6</ele>
        <time>2021-07-04 12:22:23</time>
      </trkpt>
      <trkpt lat="28.74233" lon="-13.87447">
        <ele>0.6</ele>
        <time>2021-07-04 12:22:24</time>
      </trkpt>
      <trkpt lat="28.74235" lon="-13.87451">
        <ele>0.4</ele>
        <time>2021-07-04 12:22:25</time>
      </trkpt>
      <trkpt lat="28.74237" lon="-13.87455">
        <ele>0.4</ele>
        <time>2021-07-04 12:22:26</time>
      </trkpt>
      <trkpt lat="28.74239" lon="-13.87459">
        <time>2021-07-04 12:22:27</time>
      </trkpt>
      <trkpt lat="28.74241" lon="-13.87464">
        <time>2021-07-04 12:22:28</time>
      </trkpt>
      <trkpt lat="28.74243" lon="-13.87467">
        <ele>-0.4</ele>
        <time>2021-07-04 12:22:29</time>
      </trkpt>
      <trkpt lat="28.74245" lon="-13.87471">
        <ele>-0.4</ele>
        <time>2021-07-04 12:22:30</time>
      </trkpt>
      <trkpt lat="28.7425" lon="-13.87478">
        <ele>-0.8</ele>
        <time>2021-07-04 12:22:31</time>
      </trkpt>
      <trkpt lat="28.74253" lon="-13.87482">
        <ele>-1.2</ele>
        <time>2021-07-04 12:22:32</time>
      </trkpt>
      <trkpt lat="28.74255" lon="-13.87485">
        <ele>-1.2</ele>
        <time>2021-07-04 12:22:33</time>
      </trkpt>
      <trkpt lat="28.74258" lon="-13.87488">
        <ele>-1.6</ele>
        <time>2021-07-04 12:22:34</time>
      </trkpt>
      <trkpt lat="28.74261" lon="-13.87491">
        <ele>-1.6</ele>
        <time>2021-07-04 12:22:35</time>
      </trkpt>
      <trkpt lat="28.74264" lon="-13.87493">
        <ele>-1.8</ele>
        <time>2021-07-04 12:22:36</time>
      </trkpt>
      <trkpt lat="28.74266" lon="-13.87496">
        <ele>-1.8</ele>
        <time>2021-07-04 12:22:37</time>
      </trkpt>
      <trkpt lat="28.74269" lon="-13.87498">
        <ele>-2</ele>
        <time>2021-07-04 12:22:38</time>
      </trkpt>
      <trkpt lat="28.74272" lon="-13.875">
        <ele>-2.2</ele>
        <time>2021-07-04 12:22:39</time>
      </trkpt>
      <trkpt lat="28.74275" lon="-13.87501">
        <ele>-2.2</ele>
        <time>2021-07-04 12:22:40</time>
      </trkpt>
      <trkpt lat="28.74278" lon="-13.87502">
        <ele>-2.2</ele>
        <time>2021-07-04 12:22:41</time>
      </trkpt>
      <trkpt lat="28.74281" lon="-13.87501">
        <ele>-2.2</ele>
        <time>2021-07-04 12:22:42</time>
      </trkpt>
      <trkpt lat="28.74284" lon="-13.87501">
        <ele>-2.6</ele>
        <time>2021-07-04 12:22:43</time>
      </trkpt>
      <trkpt lat="28.74287" lon="-13.875">
        <ele>-2.6</ele>
        <time>2021-07-04 12:22:44</time>
      </trkpt>
      <trkpt lat="28.7429" lon="-13.87499">
        <ele>-2.6</ele>
        <time>2021-07-04 12:22:45</time>
      </trkpt>
      <trkpt lat="28.74293" lon="-13.87498">
        <ele>-2.6</ele>
        <time>2021-07-04 12:22:46</time>
      </trkpt>
      <trkpt lat="28.74296" lon="-13.87497">
        <ele>-2.6</ele>
        <time>2021-07-04 12:22:47</time>
      </trkpt>
      <trkpt lat="28.743" lon="-13.87495">
        <ele>-2.8</ele>
        <time>2021-07-04 12:22:48</time>
      </trkpt>
      <trkpt lat="28.74303" lon="-13.87494">
        <ele>-2.8</ele>
        <time>2021-07-04 12:22:49</time>
      </trkpt>
      <trkpt lat="28.74306" lon="-13.87492">
        <ele>-2.8</ele>
        <time>2021-07-04 12:22:50</time>
      </trkpt>
      <trkpt lat="28.74308" lon="-13.87491">
        <ele>-2.8</ele>
        <time>2021-07-04 12:22:51</time>
      </trkpt>
      <trkpt lat="28.74311" lon="-13.87489">
        <ele>-2.8</ele>
        <time>2021-07-04 12:22:52</time>
      </trkpt>
      <trkpt lat="28.74314" lon="-13.87488">
        <ele>-2.8</ele>
        <time>2021-07-04 12:22:53</time>
      </trkpt>
      <trkpt lat="28.74317" lon="-13.87486">
        <ele>-2.8</ele>
        <time>2021-07-04 12:22:54</time>
      </trkpt>
      <trkpt lat="28.7432" lon="-13.87485">
        <ele>-2.8</ele>
        <time>2021-07-04 12:22:55</time>
      </trkpt>
      <trkpt lat="28.74323" lon="-13.87483">
        <ele>-2.6</ele>
        <time>2021-07-04 12:22:56</time>
      </trkpt>
      <trkpt lat="28.74325" lon="-13.87482">
        <ele>-2.6</ele>
        <time>2021-07-04 12:22:57</time>
      </trkpt>
      <trkpt lat="28.74328" lon="-13.87481">
        <ele>-2.2</ele>
        <time>2021-07-04 12:22:58</time>
      </trkpt>
      <trkpt lat="28.7433" lon="-13.8748">
        <ele>-2</ele>
        <time>2021-07-04 12:22:59</time>
      </trkpt>
      <trkpt lat="28.74332" lon="-13.87479">
        <ele>-2</ele>
        <time>2021-07-04 12:23:00</time>
      </trkpt>
      <trkpt lat="28.74334" lon="-13.87479">
        <ele>-1.6</ele>
        <time>2021-07-04 12:23:01</time>
      </trkpt>
      <trkpt lat="28.74336" lon="-13.87479">
        <ele>-1.2</ele>
        <time>2021-07-04 12:23:02</time>
      </trkpt>
      <trkpt lat="28.74338" lon="-13.87478">
        <ele>-1</ele>
        <time>2021-07-04 12:23:03</time>
      </trkpt>
      <trkpt lat="28.7434" lon="-13.87477">
        <ele>-0.6</ele>
        <time>2021-07-04 12:23:04</time>
      </trkpt>
      <trkpt lat="28.74342" lon="-13.87476">
        <ele>-0.2</ele>
        <time>2021-07-04 12:23:05</time>
      </trkpt>
      <trkpt lat="28.74344" lon="-13.87476">
        <ele>0.2</ele>
        <time>2021-07-04 12:23:06</time>
      </trkpt>
      <trkpt lat="28.74346" lon="-13.87476">
        <ele>0.6</ele>
        <time>2021-07-04 12:23:07</time>
      </trkpt>
      <trkpt lat="28.74348" lon="-13.87475">
        <ele>0.8</ele>
        <time>2021-07-04 12:23:08</time>
      </trkpt>
      <trkpt lat="28.7435" lon="-13.87475">
        <ele>1.2</ele>
        <time>2021-07-04 12:23:09</time>
      </trkpt>
      <trkpt lat="28.74353" lon="-13.87474">
        <ele>1.4</ele>
        <time>2021-07-04 12:23:10</time>
      </trkpt>
      <trkpt lat="28.74355" lon="-13.87474">
        <ele>1.6</ele>
        <time>2021-07-04 12:23:11</time>
      </trkpt>
      <trkpt lat="28.74357" lon="-13.87473">
        <ele>1.6</ele>
        <time>2021-07-04 12:23:12</time>
      </trkpt>
      <trkpt lat="28.7436" lon="-13.87473">
        <ele>2.2</ele>
        <time>2021-07-04 12:23:13</time>
      </trkpt>
      <trkpt lat="28.74362" lon="-13.87474">
        <ele>2.4</ele>
        <time>2021-07-04 12:23:14</time>
      </trkpt>
      <trkpt lat="28.74364" lon="-13.87474">
        <ele>2.4</ele>
        <time>2021-07-04 12:23:15</time>
      </trkpt>
      <trkpt lat="28.74366" lon="-13.87475">
        <ele>2.6</ele>
        <time>2021-07-04 12:23:16</time>
      </trkpt>
      <trkpt lat="28.74368" lon="-13.87476">
        <ele>2.6</ele>
        <time>2021-07-04 12:23:17</time>
      </trkpt>
      <trkpt lat="28.74371" lon="-13.87476">
        <ele>2.6</ele>
        <time>2021-07-04 12:23:18</time>
      </trkpt>
      <trkpt lat="28.74373" lon="-13.87477">
        <ele>2.6</ele>
        <time>2021-07-04 12:23:19</time>
      </trkpt>
      <trkpt lat="28.74376" lon="-13.87478">
        <ele>2.8</ele>
        <time>2021-07-04 12:23:20</time>
      </trkpt>
      <trkpt lat="28.74378" lon="-13.87479">
        <ele>2.8</ele>
        <time>2021-07-04 12:23:21</time>
      </trkpt>
      <trkpt lat="28.74381" lon="-13.8748">
        <ele>2.8</ele>
        <time>2021-07-04 12:23:22</time>
      </trkpt>
      <trkpt lat="28.74383" lon="-13.87481">
        <ele>2.8</ele>
        <time>2021-07-04 12:23:23</time>
      </trkpt>
      <trkpt lat="28.74386" lon="-13.87482">
        <ele>2.8</ele>
        <time>2021-07-04 12:23:24</time>
      </trkpt>
      <trkpt lat="28.74389" lon="-13.87483">
        <ele>2.8</ele>
        <time>2021-07-04 12:23:25</time>
      </trkpt>
      <trkpt lat="28.74391" lon="-13.87484">
        <ele>2.8</ele>
        <time>2021-07-04 12:23:26</time>
      </trkpt>
      <trkpt lat="28.74394" lon="-13.87486">
        <ele>2.8</ele>
        <time>2021-07-04 12:23:27</time>
      </trkpt>
      <trkpt lat="28.74397" lon="-13.87487">
        <ele>2.8</ele>
        <time>2021-07-04 12:23:28</time>
      </trkpt>
      <trkpt lat="28.744" lon="-13.87489">
        <ele>2.8</ele>
        <time>2021-07-04 12:23:29</time>
      </trkpt>
      <trkpt lat="28.74402" lon="-13.87491">
        <ele>2.8</ele>
        <time>2021-07-04 12:23:30</time>
      </trkpt>
      <trkpt lat="28.74405" lon="-13.87492">
        <ele>2.8</ele>
        <time>2021-07-04 12:23:31</time>
      </trkpt>
      <trkpt lat="28.74407" lon="-13.87493">
        <ele>2.8</ele>
        <time>2021-07-04 12:23:32</time>
      </trkpt>
      <trkpt lat="28.7441" lon="-13.87495">
        <ele>2.8</ele>
        <time>2021-07-04 12:23:33</time>
      </trkpt>
      <trkpt lat="28.74413" lon="-13.87496">
        <ele>2.8</ele>
        <time>2021-07-04 12:23:34</time>
      </trkpt>
      <trkpt lat="28.74416" lon="-13.87498">
        <ele>2.8</ele>
        <time>2021-07-04 12:23:35</time>
      </trkpt>
      <trkpt lat="28.74418" lon="-13.87499">
        <ele>2.8</ele>
        <time>2021-07-04 12:23:36</time>
      </trkpt>
      <trkpt lat="28.74421" lon="-13.87501">
        <ele>2.8</ele>
        <time>2021-07-04 12:23:37</time>
      </trkpt>
      <trkpt lat="28.74423" lon="-13.87503">
        <ele>2.8</ele>
        <time>2021-07-04 12:23:38</time>
      </trkpt>
      <trkpt lat="28.74426" lon="-13.87504">
        <ele>2.8</ele>
        <time>2021-07-04 12:23:39</time>
      </trkpt>
      <trkpt lat="28.74429" lon="-13.87506">
        <ele>2.8</ele>
        <time>2021-07-04 12:23:40</time>
      </trkpt>
      <trkpt lat="28.74431" lon="-13.87507">
        <ele>2.8</ele>
        <time>2021-07-04 12:23:41</time>
      </trkpt>
      <trkpt lat="28.74434" lon="-13.87509">
        <ele>2.8</ele>
        <time>2021-07-04 12:23:42</time>
      </trkpt>
      <trkpt lat="28.74436" lon="-13.8751">
        <ele>2.8</ele>
        <time>2021-07-04 12:23:43</time>
      </trkpt>
      <trkpt lat="28.74439" lon="-13.87512">
        <ele>3.2</ele>
        <time>2021-07-04 12:23:44</time>
      </trkpt>
      <trkpt lat="28.74442" lon="-13.87513">
        <ele>3.2</ele>
        <time>2021-07-04 12:23:45</time>
      </trkpt>
      <trkpt lat="28.74445" lon="-13.87514">
        <ele>3.2</ele>
        <time>2021-07-04 12:23:46</time>
      </trkpt>
      <trkpt lat="28.74447" lon="-13.87516">
        <ele>3.2</ele>
        <time>2021-07-04 12:23:47</time>
      </trkpt>
      <trkpt lat="28.7445" lon="-13.87517">
        <ele>3.4</ele>
        <time>2021-07-04 12:23:48</time>
      </trkpt>
      <trkpt lat="28.74453" lon="-13.87519">
        <ele>3.4</ele>
        <time>2021-07-04 12:23:49</time>
      </trkpt>
      <trkpt lat="28.74456" lon="-13.8752">
        <ele>3.4</ele>
        <time>2021-07-04 12:23:50</time>
      </trkpt>
      <trkpt lat="28.74459" lon="-13.87522">
        <ele>3.4</ele>
        <time>2021-07-04 12:23:51</time>
      </trkpt>
      <trkpt lat="28.74462" lon="-13.87523">
        <ele>3</ele>
        <time>2021-07-04 12:23:52</time>
      </trkpt>
      <trkpt lat="28.74465" lon="-13.87525">
        <ele>3</ele>
        <time>2021-07-04 12:23:53</time>
      </trkpt>
      <trkpt lat="28.74468" lon="-13.87526">
        <ele>3</ele>
        <time>2021-07-04 12:23:54</time>
      </trkpt>
      <trkpt lat="28.7447" lon="-13.87527">
        <ele>3</ele>
        <time>2021-07-04 12:23:55</time>
      </trkpt>
      <trkpt lat="28.74473" lon="-13.87529">
        <ele>3</ele>
        <time>2021-07-04 12:23:56</time>
      </trkpt>
      <trkpt lat="28.74476" lon="-13.8753">
        <ele>3</ele>
        <time>2021-07-04 12:23:57</time>
      </trkpt>
      <trkpt lat="28.74478" lon="-13.87531">
        <ele>3</ele>
        <time>2021-07-04 12:23:58</time>
      </trkpt>
      <trkpt lat="28.74481" lon="-13.87532">
        <ele>3</ele>
        <time>2021-07-04 12:23:59</time>
      </trkpt>
      <trkpt lat="28.74484" lon="-13.87533">
        <ele>3</ele>
        <time>2021-07-04 12:24:00</time>
      </trkpt>
      <trkpt lat="28.74487" lon="-13.87534">
        <ele>3</ele>
        <time>2021-07-04 12:24:01</time>
      </trkpt>
      <trkpt lat="28.74489" lon="-13.87534">
        <ele>3</ele>
        <time>2021-07-04 12:24:02</time>
      </trkpt>
      <trkpt lat="28.74492" lon="-13.87535">
        <ele>3.2</ele>
        <time>2021-07-04 12:24:03</time>
      </trkpt>
      <trkpt lat="28.74495" lon="-13.87536">
        <ele>3.2</ele>
        <time>2021-07-04 12:24:04</time>
      </trkpt>
      <trkpt lat="28.74498" lon="-13.87537">
        <ele>3.2</ele>
        <time>2021-07-04 12:24:05</time>
      </trkpt>
      <trkpt lat="28.74501" lon="-13.87538">
        <ele>3.2</ele>
        <time>2021-07-04 12:24:06</time>
      </trkpt>
      <trkpt lat="28.74504" lon="-13.87539">
        <ele>3.2</ele>
        <time>2021-07-04 12:24:07</time>
      </trkpt>
      <trkpt lat="28.74507" lon="-13.8754">
        <ele>3.2</ele>
        <time>2021-07-04 12:24:08</time>
      </trkpt>
      <trkpt lat="28.7451" lon="-13.87542">
        <ele>3.2</ele>
        <time>2021-07-04 12:24:09</time>
      </trkpt>
      <trkpt lat="28.74514" lon="-13.87543">
        <ele>3.2</ele>
        <time>2021-07-04 12:24:10</time>
      </trkpt>
      <trkpt lat="28.74517" lon="-13.87544">
        <ele>3.2</ele>
        <time>2021-07-04 12:24:11</time>
      </trkpt>
      <trkpt lat="28.7452" lon="-13.87546">
        <ele>3.2</ele>
        <time>2021-07-04 12:24:12</time>
      </trkpt>
      <trkpt lat="28.74523" lon="-13.87547">
        <ele>3.2</ele>
        <time>2021-07-04 12:24:13</time>
      </trkpt>
      <trkpt lat="28.74526" lon="-13.87548">
        <ele>3.2</ele>
        <time>2021-07-04 12:24:14</time>
      </trkpt>
      <trkpt lat="28.74529" lon="-13.8755">
        <ele>3.2</ele>
        <time>2021-07-04 12:24:15</time>
      </trkpt>
      <trkpt lat="28.74532" lon="-13.87551">
        <ele>3.2</ele>
        <time>2021-07-04 12:24:16</time>
      </trkpt>
      <trkpt lat="28.74535" lon="-13.87552">
        <ele>3.2</ele>
        <time>2021-07-04 12:24:17</time>
      </trkpt>
      <trkpt lat="28.74539" lon="-13.87553">
        <ele>3.2</ele>
        <time>2021-07-04 12:24:18</time>
      </trkpt>
      <trkpt lat="28.74542" lon="-13.87554">
        <ele>3.2</ele>
        <time>2021-07-04 12:24:19</time>
      </trkpt>
      <trkpt lat="28.74545" lon="-13.87556">
        <ele>3.2</ele>
        <time>2021-07-04 12:24:20</time>
      </trkpt>
      <trkpt lat="28.74547" lon="-13.87557">
        <ele>3.2</ele>
        <time>2021-07-04 12:24:21</time>
      </trkpt>
      <trkpt lat="28.7455" lon="-13.87558">
        <ele>3.4</ele>
        <time>2021-07-04 12:24:22</time>
      </trkpt>
      <trkpt lat="28.74553" lon="-13.87558">
        <ele>3.4</ele>
        <time>2021-07-04 12:24:23</time>
      </trkpt>
      <trkpt lat="28.74556" lon="-13.87559">
        <ele>3.4</ele>
        <time>2021-07-04 12:24:24</time>
      </trkpt>
      <trkpt lat="28.74559" lon="-13.8756">
        <ele>3.4</ele>
        <time>2021-07-04 12:24:25</time>
      </trkpt>
      <trkpt lat="28.74561" lon="-13.8756">
        <ele>3.4</ele>
        <time>2021-07-04 12:24:26</time>
      </trkpt>
      <trkpt lat="28.74564" lon="-13.87561">
        <ele>3.4</ele>
        <time>2021-07-04 12:24:27</time>
      </trkpt>
      <trkpt lat="28.74567" lon="-13.87561">
        <ele>3.4</ele>
        <time>2021-07-04 12:24:28</time>
      </trkpt>
      <trkpt lat="28.7457" lon="-13.87562">
        <ele>3.8</ele>
        <time>2021-07-04 12:24:29</time>
      </trkpt>
      <trkpt lat="28.74573" lon="-13.87563">
        <ele>3.8</ele>
        <time>2021-07-04 12:24:30</time>
      </trkpt>
      <trkpt lat="28.74575" lon="-13.87563">
        <ele>3.8</ele>
        <time>2021-07-04 12:24:31</time>
      </trkpt>
      <trkpt lat="28.74578" lon="-13.87564">
        <ele>3.8</ele>
        <time>2021-07-04 12:24:32</time>
      </trkpt>
      <trkpt lat="28.74581" lon="-13.87565">
        <ele>3.8</ele>
        <time>2021-07-04 12:24:33</time>
      </trkpt>
      <trkpt lat="28.74584" lon="-13.87566">
        <ele>3.8</ele>
        <time>2021-07-04 12:24:34</time>
      </trkpt>
      <trkpt lat="28.74587" lon="-13.87568">
        <ele>3.8</ele>
        <time>2021-07-04 12:24:35</time>
      </trkpt>
      <trkpt lat="28.7459" lon="-13.87569">
        <ele>3.8</ele>
        <time>2021-07-04 12:24:36</time>
      </trkpt>
      <trkpt lat="28.74593" lon="-13.8757">
        <ele>3.8</ele>
        <time>2021-07-04 12:24:37</time>
      </trkpt>
      <trkpt lat="28.74596" lon="-13.87572">
        <ele>3.8</ele>
        <time>2021-07-04 12:24:38</time>
      </trkpt>
      <trkpt lat="28.74599" lon="-13.87573">
        <ele>3.8</ele>
        <time>2021-07-04 12:24:39</time>
      </trkpt>
      <trkpt lat="28.74602" lon="-13.87574">
        <ele>3.8</ele>
        <time>2021-07-04 12:24:40</time>
      </trkpt>
      <trkpt lat="28.74605" lon="-13.87576">
        <ele>4</ele>
        <time>2021-07-04 12:24:41</time>
      </trkpt>
      <trkpt lat="28.74607" lon="-13.87578">
        <ele>4</ele>
        <time>2021-07-04 12:24:42</time>
      </trkpt>
      <trkpt lat="28.7461" lon="-13.8758">
        <ele>4</ele>
        <time>2021-07-04 12:24:43</time>
      </trkpt>
      <trkpt lat="28.74613" lon="-13.87582">
        <ele>4</ele>
        <time>2021-07-04 12:24:44</time>
      </trkpt>
      <trkpt lat="28.74615" lon="-13.87584">
        <ele>4</ele>
        <time>2021-07-04 12:24:45</time>
      </trkpt>
      <trkpt lat="28.74617" lon="-13.87586">
        <ele>4</ele>
        <time>2021-07-04 12:24:46</time>
      </trkpt>
      <trkpt lat="28.74619" lon="-13.87587">
        <ele>4</ele>
        <time>2021-07-04 12:24:47</time>
      </trkpt>
      <trkpt lat="28.74621" lon="-13.8759">
        <ele>4</ele>
        <time>2021-07-04 12:24:48</time>
      </trkpt>
      <trkpt lat="28.74623" lon="-13.87592">
        <ele>4.2</ele>
        <time>2021-07-04 12:24:49</time>
      </trkpt>
      <trkpt lat="28.74625" lon="-13.87594">
        <ele>4.2</ele>
        <time>2021-07-04 12:24:50</time>
      </trkpt>
      <trkpt lat="28.74627" lon="-13.87597">
        <ele>4.6</ele>
        <time>2021-07-04 12:24:51</time>
      </trkpt>
      <trkpt lat="28.74629" lon="-13.87599">
        <ele>5</ele>
        <time>2021-07-04 12:24:52</time>
      </trkpt>
      <trkpt lat="28.7463" lon="-13.87602">
        <ele>5.4</ele>
        <time>2021-07-04 12:24:53</time>
      </trkpt>
      <trkpt lat="28.74632" lon="-13.87605">
        <ele>5.4</ele>
        <time>2021-07-04 12:24:54</time>
      </trkpt>
      <trkpt lat="28.74634" lon="-13.87608">
        <ele>5.6</ele>
        <time>2021-07-04 12:24:55</time>
      </trkpt>
      <trkpt lat="28.74635" lon="-13.8761">
        <ele>5.6</ele>
        <time>2021-07-04 12:24:56</time>
      </trkpt>
      <trkpt lat="28.74637" lon="-13.87613">
        <ele>5.6</ele>
        <time>2021-07-04 12:24:57</time>
      </trkpt>
      <trkpt lat="28.74639" lon="-13.87615">
        <ele>5.6</ele>
        <time>2021-07-04 12:24:58</time>
      </trkpt>
      <trkpt lat="28.74641" lon="-13.87618">
        <ele>5.8</ele>
        <time>2021-07-04 12:24:59</time>
      </trkpt>
      <trkpt lat="28.74642" lon="-13.87621">
        <ele>6.2</ele>
        <time>2021-07-04 12:25:00</time>
      </trkpt>
      <trkpt lat="28.74643" lon="-13.87625">
        <ele>6.2</ele>
        <time>2021-07-04 12:25:01</time>
      </trkpt>
      <trkpt lat="28.74644" lon="-13.87628">
        <ele>6.4</ele>
        <time>2021-07-04 12:25:02</time>
      </trkpt>
      <trkpt lat="28.74646" lon="-13.87632">
        <ele>6.8</ele>
        <time>2021-07-04 12:25:03</time>
      </trkpt>
      <trkpt lat="28.74647" lon="-13.87635">
        <ele>6.8</ele>
        <time>2021-07-04 12:25:04</time>
      </trkpt>
      <trkpt lat="28.74648" lon="-13.87638">
        <ele>7.2</ele>
        <time>2021-07-04 12:25:05</time>
      </trkpt>
      <trkpt lat="28.74649" lon="-13.87641">
        <ele>7.2</ele>
        <time>2021-07-04 12:25:06</time>
      </trkpt>
      <trkpt lat="28.7465" lon="-13.87645">
        <ele>7.6</ele>
        <time>2021-07-04 12:25:07</time>
      </trkpt>
      <trkpt lat="28.74651" lon="-13.87648">
        <ele>7.8</ele>
        <time>2021-07-04 12:25:08</time>
      </trkpt>
      <trkpt lat="28.74652" lon="-13.87651">
        <ele>8</ele>
        <time>2021-07-04 12:25:09</time>
      </trkpt>
      <trkpt lat="28.74653" lon="-13.87655">
        <ele>8.2</ele>
        <time>2021-07-04 12:25:10</time>
      </trkpt>
      <trkpt lat="28.74653" lon="-13.87658">
        <ele>8.2</ele>
        <time>2021-07-04 12:25:11</time>
      </trkpt>
      <trkpt lat="28.74654" lon="-13.87661">
        <ele>8.6</ele>
        <time>2021-07-04 12:25:12</time>
      </trkpt>
      <trkpt lat="28.74655" lon="-13.87665">
        <ele>8.6</ele>
        <time>2021-07-04 12:25:13</time>
      </trkpt>
      <trkpt lat="28.74656" lon="-13.87668">
        <ele>8.6</ele>
        <time>2021-07-04 12:25:14</time>
      </trkpt>
      <trkpt lat="28.74657" lon="-13.87671">
        <ele>8.6</ele>
        <time>2021-07-04 12:25:15</time>
      </trkpt>
      <trkpt lat="28.74658" lon="-13.87674">
        <ele>8.6</ele>
        <time>2021-07-04 12:25:16</time>
      </trkpt>
      <trkpt lat="28.74659" lon="-13.87678">
        <ele>8.6</ele>
        <time>2021-07-04 12:25:17</time>
      </trkpt>
      <trkpt lat="28.7466" lon="-13.87681">
        <ele>8.6</ele>
        <time>2021-07-04 12:25:18</time>
      </trkpt>
      <trkpt lat="28.74661" lon="-13.87684">
        <ele>8.6</ele>
        <time>2021-07-04 12:25:19</time>
      </trkpt>
      <trkpt lat="28.74662" lon="-13.87687">
        <ele>8.6</ele>
        <time>2021-07-04 12:25:20</time>
      </trkpt>
      <trkpt lat="28.74664" lon="-13.8769">
        <ele>8.6</ele>
        <time>2021-07-04 12:25:21</time>
      </trkpt>
      <trkpt lat="28.74665" lon="-13.87694">
        <ele>8.6</ele>
        <time>2021-07-04 12:25:22</time>
      </trkpt>
      <trkpt lat="28.74666" lon="-13.87697">
        <ele>8.4</ele>
        <time>2021-07-04 12:25:23</time>
      </trkpt>
      <trkpt lat="28.74668" lon="-13.87699">
        <ele>8.4</ele>
        <time>2021-07-04 12:25:24</time>
      </trkpt>
      <trkpt lat="28.7467" lon="-13.87702">
        <ele>8.2</ele>
        <time>2021-07-04 12:25:25</time>
      </trkpt>
      <trkpt lat="28.74672" lon="-13.87706">
        <ele>8.2</ele>
        <time>2021-07-04 12:25:26</time>
      </trkpt>
      <trkpt lat="28.74674" lon="-13.87709">
        <ele>8.2</ele>
        <time>2021-07-04 12:25:27</time>
      </trkpt>
      <trkpt lat="28.74675" lon="-13.87712">
        <ele>8.2</ele>
        <time>2021-07-04 12:25:28</time>
      </trkpt>
      <trkpt lat="28.74677" lon="-13.87715">
        <ele>8.2</ele>
        <time>2021-07-04 12:25:29</time>
      </trkpt>
      <trkpt lat="28.74678" lon="-13.87718">
        <ele>8.2</ele>
        <time>2021-07-04 12:25:30</time>
      </trkpt>
      <trkpt lat="28.7468" lon="-13.87721">
        <ele>8.2</ele>
        <time>2021-07-04 12:25:31</time>
      </trkpt>
      <trkpt lat="28.74681" lon="-13.87725">
        <ele>8.2</ele>
        <time>2021-07-04 12:25:32</time>
      </trkpt>
      <trkpt lat="28.74683" lon="-13.87728">
        <ele>8.2</ele>
        <time>2021-07-04 12:25:33</time>
      </trkpt>
      <trkpt lat="28.74685" lon="-13.87731">
        <ele>8</ele>
        <time>2021-07-04 12:25:34</time>
      </trkpt>
      <trkpt lat="28.74687" lon="-13.87734">
        <ele>8</ele>
        <time>2021-07-04 12:25:35</time>
      </trkpt>
      <trkpt lat="28.74689" lon="-13.87737">
        <ele>8</ele>
        <time>2021-07-04 12:25:36</time>
      </trkpt>
      <trkpt lat="28.74691" lon="-13.8774">
        <ele>8</ele>
        <time>2021-07-04 12:25:37</time>
      </trkpt>
      <trkpt lat="28.74692" lon="-13.87743">
        <ele>8</ele>
        <time>2021-07-04 12:25:38</time>
      </trkpt>
      <trkpt lat="28.74694" lon="-13.87747">
        <ele>8</ele>
        <time>2021-07-04 12:25:39</time>
      </trkpt>
      <trkpt lat="28.74696" lon="-13.8775">
        <ele>8</ele>
        <time>2021-07-04 12:25:40</time>
      </trkpt>
      <trkpt lat="28.74698" lon="-13.87753">
        <ele>8</ele>
        <time>2021-07-04 12:25:41</time>
      </trkpt>
      <trkpt lat="28.747" lon="-13.87756">
        <ele>8</ele>
        <time>2021-07-04 12:25:42</time>
      </trkpt>
      <trkpt lat="28.74702" lon="-13.8776">
        <ele>8</ele>
        <time>2021-07-04 12:25:43</time>
      </trkpt>
      <trkpt lat="28.74704" lon="-13.87763">
        <ele>8</ele>
        <time>2021-07-04 12:25:44</time>
      </trkpt>
      <trkpt lat="28.74706" lon="-13.87766">
        <ele>8</ele>
        <time>2021-07-04 12:25:45</time>
      </trkpt>
      <trkpt lat="28.74708" lon="-13.87769">
        <ele>7.6</ele>
        <time>2021-07-04 12:25:46</time>
      </trkpt>
      <trkpt lat="28.7471" lon="-13.87773">
        <ele>7.6</ele>
        <time>2021-07-04 12:25:47</time>
      </trkpt>
      <trkpt lat="28.74712" lon="-13.87776">
        <ele>7.2</ele>
        <time>2021-07-04 12:25:48</time>
      </trkpt>
      <trkpt lat="28.74714" lon="-13.8778">
        <ele>7.2</ele>
        <time>2021-07-04 12:25:49</time>
      </trkpt>
      <trkpt lat="28.74716" lon="-13.87783">
        <ele>7</ele>
        <time>2021-07-04 12:25:50</time>
      </trkpt>
      <trkpt lat="28.74718" lon="-13.87786">
        <ele>7</ele>
        <time>2021-07-04 12:25:51</time>
      </trkpt>
      <trkpt lat="28.7472" lon="-13.8779">
        <ele>7</ele>
        <time>2021-07-04 12:25:52</time>
      </trkpt>
      <trkpt lat="28.74722" lon="-13.87794">
        <ele>7</ele>
        <time>2021-07-04 12:25:53</time>
      </trkpt>
      <trkpt lat="28.74723" lon="-13.87797">
        <ele>7</ele>
        <time>2021-07-04 12:25:54</time>
      </trkpt>
      <trkpt lat="28.74725" lon="-13.87801">
        <ele>7</ele>
        <time>2021-07-04 12:25:55</time>
      </trkpt>
      <trkpt lat="28.74727" lon="-13.87804">
        <ele>7</ele>
        <time>2021-07-04 12:25:56</time>
      </trkpt>
      <trkpt lat="28.74731" lon="-13.87811">
        <ele>6.8</ele>
        <time>2021-07-04 12:25:57</time>
      </trkpt>
      <trkpt lat="28.74733" lon="-13.87815">
        <ele>6.8</ele>
        <time>2021-07-04 12:25:58</time>
      </trkpt>
      <trkpt lat="28.74735" lon="-13.87818">
        <ele>6.8</ele>
        <time>2021-07-04 12:25:59</time>
      </trkpt>
      <trkpt lat="28.74736" lon="-13.87821">
        <ele>6.8</ele>
        <time>2021-07-04 12:26:00</time>
      </trkpt>
      <trkpt lat="28.74738" lon="-13.87825">
        <ele>6.8</ele>
        <time>2021-07-04 12:26:01</time>
      </trkpt>
      <trkpt lat="28.7474" lon="-13.87828">
        <ele>6.8</ele>
        <time>2021-07-04 12:26:02</time>
      </trkpt>
      <trkpt lat="28.74742" lon="-13.87831">
        <ele>6.8</ele>
        <time>2021-07-04 12:26:03</time>
      </trkpt>
      <trkpt lat="28.74744" lon="-13.87835">
        <ele>6.8</ele>
        <time>2021-07-04 12:26:04</time>
      </trkpt>
      <trkpt lat="28.74747" lon="-13.87838">
        <ele>6.8</ele>
        <time>2021-07-04 12:26:05</time>
      </trkpt>
      <trkpt lat="28.74749" lon="-13.8784">
        <ele>6.6</ele>
        <time>2021-07-04 12:26:06</time>
      </trkpt>
      <trkpt lat="28.74752" lon="-13.87842">
        <ele>6.6</ele>
        <time>2021-07-04 12:26:07</time>
      </trkpt>
      <trkpt lat="28.74755" lon="-13.87843">
        <ele>6.2</ele>
        <time>2021-07-04 12:26:08</time>
      </trkpt>
      <trkpt lat="28.74759" lon="-13.87845">
        <ele>6.2</ele>
        <time>2021-07-04 12:26:09</time>
      </trkpt>
      <trkpt lat="28.74762" lon="-13.87847">
        <ele>6.2</ele>
        <time>2021-07-04 12:26:10</time>
      </trkpt>
      <trkpt lat="28.74765" lon="-13.87848">
        <ele>6</ele>
        <time>2021-07-04 12:26:11</time>
      </trkpt>
      <trkpt lat="28.74768" lon="-13.87849">
        <ele>6</ele>
        <time>2021-07-04 12:26:12</time>
      </trkpt>
      <trkpt lat="28.74772" lon="-13.87851">
        <ele>6</ele>
        <time>2021-07-04 12:26:13</time>
      </trkpt>
      <trkpt lat="28.74775" lon="-13.87852">
        <ele>5.8</ele>
        <time>2021-07-04 12:26:14</time>
      </trkpt>
      <trkpt lat="28.74778" lon="-13.87853">
        <ele>5.8</ele>
        <time>2021-07-04 12:26:15</time>
      </trkpt>
      <trkpt lat="28.74782" lon="-13.87854">
        <ele>5.4</ele>
        <time>2021-07-04 12:26:16</time>
      </trkpt>
      <trkpt lat="28.74785" lon="-13.87855">
        <ele>5.4</ele>
        <time>2021-07-04 12:26:17</time>
      </trkpt>
      <trkpt lat="28.74788" lon="-13.87856">
        <ele>5.4</ele>
        <time>2021-07-04 12:26:18</time>
      </trkpt>
      <trkpt lat="28.74792" lon="-13.87856">
        <ele>5.4</ele>
        <time>2021-07-04 12:26:19</time>
      </trkpt>
      <trkpt lat="28.74795" lon="-13.87857">
        <ele>5.4</ele>
        <time>2021-07-04 12:26:20</time>
      </trkpt>
      <trkpt lat="28.74798" lon="-13.87858">
        <ele>5.4</ele>
        <time>2021-07-04 12:26:21</time>
      </trkpt>
      <trkpt lat="28.74801" lon="-13.87859">
        <ele>5.4</ele>
        <time>2021-07-04 12:26:22</time>
      </trkpt>
      <trkpt lat="28.74805" lon="-13.8786">
        <ele>5.4</ele>
        <time>2021-07-04 12:26:23</time>
      </trkpt>
      <trkpt lat="28.74808" lon="-13.87861">
        <ele>5.4</ele>
        <time>2021-07-04 12:26:24</time>
      </trkpt>
      <trkpt lat="28.74811" lon="-13.87862">
        <ele>5.4</ele>
        <time>2021-07-04 12:26:25</time>
      </trkpt>
      <trkpt lat="28.74815" lon="-13.87863">
        <ele>5.4</ele>
        <time>2021-07-04 12:26:26</time>
      </trkpt>
      <trkpt lat="28.74818" lon="-13.87865">
        <ele>5.4</ele>
        <time>2021-07-04 12:26:27</time>
      </trkpt>
      <trkpt lat="28.74822" lon="-13.87866">
        <ele>5.4</ele>
        <time>2021-07-04 12:26:28</time>
      </trkpt>
      <trkpt lat="28.74825" lon="-13.87867">
        <ele>5.4</ele>
        <time>2021-07-04 12:26:29</time>
      </trkpt>
      <trkpt lat="28.74829" lon="-13.87869">
        <ele>5.2</ele>
        <time>2021-07-04 12:26:30</time>
      </trkpt>
      <trkpt lat="28.74833" lon="-13.8787">
        <ele>5.2</ele>
        <time>2021-07-04 12:26:31</time>
      </trkpt>
      <trkpt lat="28.74837" lon="-13.87871">
        <ele>5.2</ele>
        <time>2021-07-04 12:26:32</time>
      </trkpt>
      <trkpt lat="28.7484" lon="-13.87873">
        <ele>5</ele>
        <time>2021-07-04 12:26:33</time>
      </trkpt>
      <trkpt lat="28.74844" lon="-13.87874">
        <ele>5</ele>
        <time>2021-07-04 12:26:34</time>
      </trkpt>
      <trkpt lat="28.74847" lon="-13.87875">
        <ele>5</ele>
        <time>2021-07-04 12:26:35</time>
      </trkpt>
      <trkpt lat="28.7485" lon="-13.87876">
        <ele>4.8</ele>
        <time>2021-07-04 12:26:36</time>
      </trkpt>
      <trkpt lat="28.74853" lon="-13.87876">
        <ele>4.8</ele>
        <time>2021-07-04 12:26:37</time>
      </trkpt>
      <trkpt lat="28.74855" lon="-13.87877">
        <ele>4.8</ele>
        <time>2021-07-04 12:26:38</time>
      </trkpt>
      <trkpt lat="28.74858" lon="-13.87879">
        <ele>4.8</ele>
        <time>2021-07-04 12:26:39</time>
      </trkpt>
      <trkpt lat="28.7486" lon="-13.8788">
        <ele>4.8</ele>
        <time>2021-07-04 12:26:40</time>
      </trkpt>
      <trkpt lat="28.74863" lon="-13.87881">
        <ele>4.8</ele>
        <time>2021-07-04 12:26:41</time>
      </trkpt>
      <trkpt lat="28.74865" lon="-13.87882">
        <ele>4.8</ele>
        <time>2021-07-04 12:26:42</time>
      </trkpt>
      <trkpt lat="28.74868" lon="-13.87883">
        <ele>5.2</ele>
        <time>2021-07-04 12:26:43</time>
      </trkpt>
      <trkpt lat="28.7487" lon="-13.87884">
        <ele>5.2</ele>
        <time>2021-07-04 12:26:44</time>
      </trkpt>
      <trkpt lat="28.74872" lon="-13.87884">
        <ele>5.6</ele>
        <time>2021-07-04 12:26:45</time>
      </trkpt>
      <trkpt lat="28.74874" lon="-13.87885">
        <ele>5.8</ele>
        <time>2021-07-04 12:26:46</time>
      </trkpt>
      <trkpt lat="28.74876" lon="-13.87886">
        <ele>6</ele>
        <time>2021-07-04 12:26:47</time>
      </trkpt>
      <trkpt lat="28.74878" lon="-13.87887">
        <ele>6.4</ele>
        <time>2021-07-04 12:26:48</time>
      </trkpt>
      <trkpt lat="28.7488" lon="-13.87888">
        <ele>6.6</ele>
        <time>2021-07-04 12:26:49</time>
      </trkpt>
      <trkpt lat="28.74882" lon="-13.87889">
        <ele>6.8</ele>
        <time>2021-07-04 12:26:50</time>
      </trkpt>
      <trkpt lat="28.74884" lon="-13.8789">
        <ele>6.8</ele>
        <time>2021-07-04 12:26:51</time>
      </trkpt>
      <trkpt lat="28.74887" lon="-13.8789">
        <ele>7.4</ele>
        <time>2021-07-04 12:26:52</time>
      </trkpt>
      <trkpt lat="28.74889" lon="-13.87891">
        <ele>7.8</ele>
        <time>2021-07-04 12:26:53</time>
      </trkpt>
      <trkpt lat="28.74891" lon="-13.87892">
        <ele>8.2</ele>
        <time>2021-07-04 12:26:54</time>
      </trkpt>
      <trkpt lat="28.74893" lon="-13.87893">
        <ele>8.4</ele>
        <time>2021-07-04 12:26:55</time>
      </trkpt>
      <trkpt lat="28.74896" lon="-13.87894">
        <ele>8.6</ele>
        <time>2021-07-04 12:26:56</time>
      </trkpt>
      <trkpt lat="28.74898" lon="-13.87895">
        <ele>8.6</ele>
        <time>2021-07-04 12:26:57</time>
      </trkpt>
      <trkpt lat="28.749" lon="-13.87896">
        <ele>9</ele>
        <time>2021-07-04 12:26:58</time>
      </trkpt>
      <trkpt lat="28.74903" lon="-13.87897">
        <ele>9</ele>
        <time>2021-07-04 12:26:59</time>
      </trkpt>
      <trkpt lat="28.74905" lon="-13.87899">
        <ele>9</ele>
        <time>2021-07-04 12:27:00</time>
      </trkpt>
      <trkpt lat="28.74908" lon="-13.879">
        <ele>9</ele>
        <time>2021-07-04 12:27:01</time>
      </trkpt>
      <trkpt lat="28.7491" lon="-13.87901">
        <ele>9.2</ele>
        <time>2021-07-04 12:27:02</time>
      </trkpt>
      <trkpt lat="28.74912" lon="-13.87903">
        <ele>9.2</ele>
        <time>2021-07-04 12:27:03</time>
      </trkpt>
      <trkpt lat="28.74914" lon="-13.87906">
        <ele>9.2</ele>
        <time>2021-07-04 12:27:04</time>
      </trkpt>
      <trkpt lat="28.74916" lon="-13.87908">
        <ele>9.4</ele>
        <time>2021-07-04 12:27:05</time>
      </trkpt>
      <trkpt lat="28.74918" lon="-13.8791">
        <ele>9.4</ele>
        <time>2021-07-04 12:27:06</time>
      </trkpt>
      <trkpt lat="28.7492" lon="-13.87913">
        <ele>9.4</ele>
        <time>2021-07-04 12:27:07</time>
      </trkpt>
      <trkpt lat="28.74922" lon="-13.87915">
        <ele>9.4</ele>
        <time>2021-07-04 12:27:08</time>
      </trkpt>
      <trkpt lat="28.74924" lon="-13.87918">
        <ele>9.8</ele>
        <time>2021-07-04 12:27:09</time>
      </trkpt>
      <trkpt lat="28.74926" lon="-13.87921">
        <ele>9.8</ele>
        <time>2021-07-04 12:27:10</time>
      </trkpt>
      <trkpt lat="28.74928" lon="-13.87923">
        <ele>9.8</ele>
        <time>2021-07-04 12:27:11</time>
      </trkpt>
      <trkpt lat="28.7493" lon="-13.87926">
        <ele>9.8</ele>
        <time>2021-07-04 12:27:12</time>
      </trkpt>
      <trkpt lat="28.74932" lon="-13.87929">
        <ele>9.4</ele>
        <time>2021-07-04 12:27:13</time>
      </trkpt>
      <trkpt lat="28.74933" lon="-13.87932">
        <ele>9.4</ele>
        <time>2021-07-04 12:27:14</time>
      </trkpt>
      <trkpt lat="28.74935" lon="-13.87935">
        <ele>9.4</ele>
        <time>2021-07-04 12:27:15</time>
      </trkpt>
      <trkpt lat="28.74937" lon="-13.87937">
        <ele>9.4</ele>
        <time>2021-07-04 12:27:16</time>
      </trkpt>
      <trkpt lat="28.74939" lon="-13.8794">
        <ele>9.6</ele>
        <time>2021-07-04 12:27:17</time>
      </trkpt>
      <trkpt lat="28.7494" lon="-13.87942">
        <ele>9.6</ele>
        <time>2021-07-04 12:27:18</time>
      </trkpt>
      <trkpt lat="28.74942" lon="-13.87945">
        <ele>9.6</ele>
        <time>2021-07-04 12:27:19</time>
      </trkpt>
      <trkpt lat="28.74944" lon="-13.87947">
        <ele>10</ele>
        <time>2021-07-04 12:27:20</time>
      </trkpt>
      <trkpt lat="28.74946" lon="-13.8795">
        <ele>10.2</ele>
        <time>2021-07-04 12:27:21</time>
      </trkpt>
      <trkpt lat="28.74947" lon="-13.87953">
        <ele>10.2</ele>
        <time>2021-07-04 12:27:22</time>
      </trkpt>
      <trkpt lat="28.74949" lon="-13.87956">
        <ele>10.6</ele>
        <time>2021-07-04 12:27:23</time>
      </trkpt>
      <trkpt lat="28.74951" lon="-13.8796">
        <ele>10.6</ele>
        <time>2021-07-04 12:27:24</time>
      </trkpt>
      <trkpt lat="28.74952" lon="-13.87963">
        <ele>10.6</ele>
        <time>2021-07-04 12:27:25</time>
      </trkpt>
      <trkpt lat="28.74954" lon="-13.87967">
        <ele>10.6</ele>
        <time>2021-07-04 12:27:26</time>
      </trkpt>
      <trkpt lat="28.74955" lon="-13.87971">
        <ele>10.6</ele>
        <time>2021-07-04 12:27:27</time>
      </trkpt>
      <trkpt lat="28.74957" lon="-13.87974">
        <ele>10.6</ele>
        <time>2021-07-04 12:27:28</time>
      </trkpt>
      <trkpt lat="28.74958" lon="-13.87978">
        <ele>10.6</ele>
        <time>2021-07-04 12:27:29</time>
      </trkpt>
      <trkpt lat="28.74959" lon="-13.87981">
        <ele>10.6</ele>
        <time>2021-07-04 12:27:30</time>
      </trkpt>
      <trkpt lat="28.7496" lon="-13.87985">
        <ele>10.6</ele>
        <time>2021-07-04 12:27:31</time>
      </trkpt>
      <trkpt lat="28.74961" lon="-13.87988">
        <ele>10.6</ele>
        <time>2021-07-04 12:27:32</time>
      </trkpt>
      <trkpt lat="28.74963" lon="-13.87992">
        <ele>10.6</ele>
        <time>2021-07-04 12:27:33</time>
      </trkpt>
      <trkpt lat="28.74964" lon="-13.87995">
        <ele>11</ele>
        <time>2021-07-04 12:27:34</time>
      </trkpt>
      <trkpt lat="28.74966" lon="-13.87998">
        <ele>11.2</ele>
        <time>2021-07-04 12:27:35</time>
      </trkpt>
      <trkpt lat="28.74967" lon="-13.88002">
        <ele>11.4</ele>
        <time>2021-07-04 12:27:36</time>
      </trkpt>
      <trkpt lat="28.74968" lon="-13.88005">
        <ele>11.4</ele>
        <time>2021-07-04 12:27:37</time>
      </trkpt>
      <trkpt lat="28.7497" lon="-13.88009">
        <ele>11.8</ele>
        <time>2021-07-04 12:27:38</time>
      </trkpt>
      <trkpt lat="28.74971" lon="-13.88012">
        <ele>11.8</ele>
        <time>2021-07-04 12:27:39</time>
      </trkpt>
      <trkpt lat="28.74972" lon="-13.88015">
        <ele>11.8</ele>
        <time>2021-07-04 12:27:40</time>
      </trkpt>
      <trkpt lat="28.74974" lon="-13.88018">
        <ele>11.8</ele>
        <time>2021-07-04 12:27:41</time>
      </trkpt>
      <trkpt lat="28.74975" lon="-13.88022">
        <ele>11.8</ele>
        <time>2021-07-04 12:27:42</time>
      </trkpt>
      <trkpt lat="28.74976" lon="-13.88025">
        <ele>11.8</ele>
        <time>2021-07-04 12:27:43</time>
      </trkpt>
      <trkpt lat="28.74977" lon="-13.88029">
        <ele>11.8</ele>
        <time>2021-07-04 12:27:44</time>
      </trkpt>
      <trkpt lat="28.74979" lon="-13.88032">
        <ele>11.8</ele>
        <time>2021-07-04 12:27:45</time>
      </trkpt>
      <trkpt lat="28.7498" lon="-13.88035">
        <ele>11.8</ele>
        <time>2021-07-04 12:27:46</time>
      </trkpt>
      <trkpt lat="28.74982" lon="-13.88039">
        <ele>12</ele>
        <time>2021-07-04 12:27:47</time>
      </trkpt>
      <trkpt lat="28.74983" lon="-13.88042">
        <ele>12</ele>
        <time>2021-07-04 12:27:48</time>
      </trkpt>
      <trkpt lat="28.74984" lon="-13.88046">
        <ele>12</ele>
        <time>2021-07-04 12:27:49</time>
      </trkpt>
      <trkpt lat="28.74985" lon="-13.88049">
        <ele>12</ele>
        <time>2021-07-04 12:27:50</time>
      </trkpt>
      <trkpt lat="28.74986" lon="-13.88053">
        <ele>12</ele>
        <time>2021-07-04 12:27:51</time>
      </trkpt>
      <trkpt lat="28.74988" lon="-13.88057">
        <ele>11.8</ele>
        <time>2021-07-04 12:27:52</time>
      </trkpt>
      <trkpt lat="28.74989" lon="-13.8806">
        <ele>11.8</ele>
        <time>2021-07-04 12:27:53</time>
      </trkpt>
      <trkpt lat="28.7499" lon="-13.88064">
        <ele>11.6</ele>
        <time>2021-07-04 12:27:54</time>
      </trkpt>
      <trkpt lat="28.74991" lon="-13.88067">
        <ele>11.6</ele>
        <time>2021-07-04 12:27:55</time>
      </trkpt>
      <trkpt lat="28.74993" lon="-13.88071">
        <ele>11.6</ele>
        <time>2021-07-04 12:27:56</time>
      </trkpt>
      <trkpt lat="28.74994" lon="-13.88074">
        <ele>11.4</ele>
        <time>2021-07-04 12:27:57</time>
      </trkpt>
      <trkpt lat="28.74996" lon="-13.88078">
        <ele>11.4</ele>
        <time>2021-07-04 12:27:58</time>
      </trkpt>
      <trkpt lat="28.74997" lon="-13.88081">
        <ele>11.4</ele>
        <time>2021-07-04 12:27:59</time>
      </trkpt>
      <trkpt lat="28.74998" lon="-13.88085">
        <ele>11.4</ele>
        <time>2021-07-04 12:28:00</time>
      </trkpt>
      <trkpt lat="28.74999" lon="-13.88088">
        <ele>11.4</ele>
        <time>2021-07-04 12:28:01</time>
      </trkpt>
      <trkpt lat="28.75001" lon="-13.88091">
        <ele>11.4</ele>
        <time>2021-07-04 12:28:02</time>
      </trkpt>
      <trkpt lat="28.75002" lon="-13.88094">
        <ele>11.4</ele>
        <time>2021-07-04 12:28:03</time>
      </trkpt>
      <trkpt lat="28.75004" lon="-13.88098">
        <ele>11.4</ele>
        <time>2021-07-04 12:28:04</time>
      </trkpt>
      <trkpt lat="28.75005" lon="-13.88101">
        <ele>11.4</ele>
        <time>2021-07-04 12:28:05</time>
      </trkpt>
      <trkpt lat="28.75006" lon="-13.88105">
        <ele>11.4</ele>
        <time>2021-07-04 12:28:06</time>
      </trkpt>
      <trkpt lat="28.75008" lon="-13.88108">
        <ele>11.4</ele>
        <time>2021-07-04 12:28:07</time>
      </trkpt>
      <trkpt lat="28.75009" lon="-13.88112">
        <ele>11.4</ele>
        <time>2021-07-04 12:28:08</time>
      </trkpt>
      <trkpt lat="28.75011" lon="-13.88116">
        <ele>11.4</ele>
        <time>2021-07-04 12:28:09</time>
      </trkpt>
      <trkpt lat="28.75012" lon="-13.8812">
        <ele>11.4</ele>
        <time>2021-07-04 12:28:10</time>
      </trkpt>
      <trkpt lat="28.75013" lon="-13.88125">
        <ele>11.4</ele>
        <time>2021-07-04 12:28:11</time>
      </trkpt>
      <trkpt lat="28.75014" lon="-13.88129">
        <ele>11.4</ele>
        <time>2021-07-04 12:28:12</time>
      </trkpt>
      <trkpt lat="28.75015" lon="-13.88134">
        <ele>11.4</ele>
        <time>2021-07-04 12:28:13</time>
      </trkpt>
      <trkpt lat="28.75016" lon="-13.88139">
        <ele>11.4</ele>
        <time>2021-07-04 12:28:14</time>
      </trkpt>
      <trkpt lat="28.75017" lon="-13.88143">
        <ele>11.4</ele>
        <time>2021-07-04 12:28:15</time>
      </trkpt>
      <trkpt lat="28.75018" lon="-13.88147">
        <ele>11.4</ele>
        <time>2021-07-04 12:28:16</time>
      </trkpt>
      <trkpt lat="28.75019" lon="-13.88151">
        <ele>11.4</ele>
        <time>2021-07-04 12:28:17</time>
      </trkpt>
      <trkpt lat="28.7502" lon="-13.88155">
        <ele>11</ele>
        <time>2021-07-04 12:28:18</time>
      </trkpt>
      <trkpt lat="28.7502" lon="-13.88158">
        <ele>11</ele>
        <time>2021-07-04 12:28:19</time>
      </trkpt>
      <trkpt lat="28.75021" lon="-13.88162">
        <ele>10.6</ele>
        <time>2021-07-04 12:28:20</time>
      </trkpt>
      <trkpt lat="28.75021" lon="-13.88165">
        <ele>10.6</ele>
        <time>2021-07-04 12:28:21</time>
      </trkpt>
      <trkpt lat="28.75021" lon="-13.88168">
        <ele>10.6</ele>
        <time>2021-07-04 12:28:22</time>
      </trkpt>
      <trkpt lat="28.75022" lon="-13.88171">
        <ele>10.2</ele>
        <time>2021-07-04 12:28:23</time>
      </trkpt>
      <trkpt lat="28.75022" lon="-13.88174">
        <ele>10.2</ele>
        <time>2021-07-04 12:28:24</time>
      </trkpt>
      <trkpt lat="28.75022" lon="-13.88178">
        <ele>9.8</ele>
        <time>2021-07-04 12:28:25</time>
      </trkpt>
      <trkpt lat="28.75022" lon="-13.88182">
        <ele>9.8</ele>
        <time>2021-07-04 12:28:26</time>
      </trkpt>
      <trkpt lat="28.75023" lon="-13.88187">
        <ele>9.6</ele>
        <time>2021-07-04 12:28:27</time>
      </trkpt>
      <trkpt lat="28.75023" lon="-13.88191">
        <ele>9.2</ele>
        <time>2021-07-04 12:28:28</time>
      </trkpt>
      <trkpt lat="28.75024" lon="-13.88196">
        <ele>9</ele>
        <time>2021-07-04 12:28:29</time>
      </trkpt>
      <trkpt lat="28.75024" lon="-13.88202">
        <ele>8.6</ele>
        <time>2021-07-04 12:28:30</time>
      </trkpt>
      <trkpt lat="28.75023" lon="-13.88207">
        <ele>8.2</ele>
        <time>2021-07-04 12:28:31</time>
      </trkpt>
      <trkpt lat="28.75022" lon="-13.88212">
        <ele>7.8</ele>
        <time>2021-07-04 12:28:32</time>
      </trkpt>
      <trkpt lat="28.7502" lon="-13.88217">
        <ele>7.2</ele>
        <time>2021-07-04 12:28:33</time>
      </trkpt>
      <trkpt lat="28.75019" lon="-13.88222">
        <ele>6.8</ele>
        <time>2021-07-04 12:28:34</time>
      </trkpt>
      <trkpt lat="28.75017" lon="-13.88227">
        <ele>6</ele>
        <time>2021-07-04 12:28:35</time>
      </trkpt>
      <trkpt lat="28.75015" lon="-13.88232">
        <ele>5.4</ele>
        <time>2021-07-04 12:28:36</time>
      </trkpt>
      <trkpt lat="28.75014" lon="-13.88237">
        <ele>4.8</ele>
        <time>2021-07-04 12:28:37</time>
      </trkpt>
      <trkpt lat="28.75012" lon="-13.88243">
        <ele>4</ele>
        <time>2021-07-04 12:28:38</time>
      </trkpt>
      <trkpt lat="28.7501" lon="-13.88248">
        <ele>3.2</ele>
        <time>2021-07-04 12:28:39</time>
      </trkpt>
      <trkpt lat="28.75007" lon="-13.88254">
        <ele>2.4</ele>
        <time>2021-07-04 12:28:40</time>
      </trkpt>
      <trkpt lat="28.75004" lon="-13.8826">
        <ele>1.6</ele>
        <time>2021-07-04 12:28:41</time>
      </trkpt>
      <trkpt lat="28.75002" lon="-13.88266">
        <ele>1</ele>
        <time>2021-07-04 12:28:42</time>
      </trkpt>
      <trkpt lat="28.74999" lon="-13.88272">
        <ele>0.4</ele>
        <time>2021-07-04 12:28:43</time>
      </trkpt>
      <trkpt lat="28.74998" lon="-13.88278">
        <ele>-0.2</ele>
        <time>2021-07-04 12:28:44</time>
      </trkpt>
      <trkpt lat="28.74999" lon="-13.88284">
        <ele>-0.6</ele>
        <time>2021-07-04 12:28:45</time>
      </trkpt>
      <trkpt lat="28.74999" lon="-13.88289">
        <ele>-0.6</ele>
        <time>2021-07-04 12:28:46</time>
      </trkpt>
      <trkpt lat="28.75001" lon="-13.88293">
        <ele>-1</ele>
        <time>2021-07-04 12:28:47</time>
      </trkpt>
      <trkpt lat="28.75003" lon="-13.88297">
        <ele>-1</ele>
        <time>2021-07-04 12:28:48</time>
      </trkpt>
      <trkpt lat="28.75005" lon="-13.883">
        <ele>-1.2</ele>
        <time>2021-07-04 12:28:49</time>
      </trkpt>
      <trkpt lat="28.75008" lon="-13.88303">
        <ele>-1.2</ele>
        <time>2021-07-04 12:28:50</time>
      </trkpt>
      <trkpt lat="28.75011" lon="-13.88305">
        <ele>-1.6</ele>
        <time>2021-07-04 12:28:51</time>
      </trkpt>
      <trkpt lat="28.75015" lon="-13.88307">
        <ele>-1.8</ele>
        <time>2021-07-04 12:28:52</time>
      </trkpt>
      <trkpt lat="28.75018" lon="-13.88309">
        <ele>-2.2</ele>
        <time>2021-07-04 12:28:53</time>
      </trkpt>
      <trkpt lat="28.75021" lon="-13.88311">
        <ele>-2.2</ele>
        <time>2021-07-04 12:28:54</time>
      </trkpt>
      <trkpt lat="28.75024" lon="-13.88314">
        <ele>-2.4</ele>
        <time>2021-07-04 12:28:55</time>
      </trkpt>
      <trkpt lat="28.75028" lon="-13.88316">
        <ele>-2.4</ele>
        <time>2021-07-04 12:28:56</time>
      </trkpt>
      <trkpt lat="28.75031" lon="-13.88318">
        <ele>-2.6</ele>
        <time>2021-07-04 12:28:57</time>
      </trkpt>
      <trkpt lat="28.75034" lon="-13.88321">
        <ele>-2.6</ele>
        <time>2021-07-04 12:28:58</time>
      </trkpt>
      <trkpt lat="28.75038" lon="-13.88323">
        <ele>-2.8</ele>
        <time>2021-07-04 12:28:59</time>
      </trkpt>
      <trkpt lat="28.75041" lon="-13.88325">
        <ele>-2.8</ele>
        <time>2021-07-04 12:29:00</time>
      </trkpt>
      <trkpt lat="28.75044" lon="-13.88327">
        <ele>-2.8</ele>
        <time>2021-07-04 12:29:01</time>
      </trkpt>
      <trkpt lat="28.75047" lon="-13.88329">
        <ele>-2.8</ele>
        <time>2021-07-04 12:29:02</time>
      </trkpt>
      <trkpt lat="28.75051" lon="-13.88331">
        <ele>-2.8</ele>
        <time>2021-07-04 12:29:03</time>
      </trkpt>
      <trkpt lat="28.75054" lon="-13.88333">
        <ele>-2.8</ele>
        <time>2021-07-04 12:29:04</time>
      </trkpt>
      <trkpt lat="28.75058" lon="-13.88335">
        <ele>-3</ele>
        <time>2021-07-04 12:29:05</time>
      </trkpt>
      <trkpt lat="28.75061" lon="-13.88337">
        <ele>-3</ele>
        <time>2021-07-04 12:29:06</time>
      </trkpt>
      <trkpt lat="28.75065" lon="-13.88338">
        <ele>-3</ele>
        <time>2021-07-04 12:29:07</time>
      </trkpt>
      <trkpt lat="28.75069" lon="-13.88338">
        <ele>-3</ele>
        <time>2021-07-04 12:29:08</time>
      </trkpt>
      <trkpt lat="28.75072" lon="-13.88339">
        <ele>-3</ele>
        <time>2021-07-04 12:29:09</time>
      </trkpt>
      <trkpt lat="28.75076" lon="-13.8834">
        <ele>-3</ele>
        <time>2021-07-04 12:29:10</time>
      </trkpt>
      <trkpt lat="28.75079" lon="-13.8834">
        <ele>-3</ele>
        <time>2021-07-04 12:29:11</time>
      </trkpt>
      <trkpt lat="28.75082" lon="-13.8834">
        <ele>-3</ele>
        <time>2021-07-04 12:29:12</time>
      </trkpt>
      <trkpt lat="28.75085" lon="-13.8834">
        <ele>-3</ele>
        <time>2021-07-04 12:29:13</time>
      </trkpt>
      <trkpt lat="28.75088" lon="-13.88339">
        <ele>-3</ele>
        <time>2021-07-04 12:29:14</time>
      </trkpt>
      <trkpt lat="28.75092" lon="-13.88339">
        <ele>-3</ele>
        <time>2021-07-04 12:29:15</time>
      </trkpt>
      <trkpt lat="28.75095" lon="-13.88338">
        <ele>-3</ele>
        <time>2021-07-04 12:29:16</time>
      </trkpt>
      <trkpt lat="28.75098" lon="-13.88338">
        <ele>-3</ele>
        <time>2021-07-04 12:29:17</time>
      </trkpt>
      <trkpt lat="28.75101" lon="-13.88338">
        <ele>-3</ele>
        <time>2021-07-04 12:29:18</time>
      </trkpt>
      <trkpt lat="28.75105" lon="-13.88337">
        <ele>-3</ele>
        <time>2021-07-04 12:29:19</time>
      </trkpt>
      <trkpt lat="28.75108" lon="-13.88337">
        <ele>-2.8</ele>
        <time>2021-07-04 12:29:20</time>
      </trkpt>
      <trkpt lat="28.75111" lon="-13.88337">
        <ele>-2.8</ele>
        <time>2021-07-04 12:29:21</time>
      </trkpt>
      <trkpt lat="28.75114" lon="-13.88338">
        <ele>-2.8</ele>
        <time>2021-07-04 12:29:22</time>
      </trkpt>
      <trkpt lat="28.75117" lon="-13.88338">
        <ele>-2.8</ele>
        <time>2021-07-04 12:29:23</time>
      </trkpt>
      <trkpt lat="28.75121" lon="-13.88339">
        <ele>-2.8</ele>
        <time>2021-07-04 12:29:24</time>
      </trkpt>
      <trkpt lat="28.75124" lon="-13.8834">
        <ele>-2.8</ele>
        <time>2021-07-04 12:29:25</time>
      </trkpt>
      <trkpt lat="28.75127" lon="-13.8834">
        <ele>-2.8</ele>
        <time>2021-07-04 12:29:26</time>
      </trkpt>
      <trkpt lat="28.7513" lon="-13.88341">
        <ele>-2.6</ele>
        <time>2021-07-04 12:29:27</time>
      </trkpt>
      <trkpt lat="28.75133" lon="-13.88342">
        <ele>-2.6</ele>
        <time>2021-07-04 12:29:28</time>
      </trkpt>
      <trkpt lat="28.75136" lon="-13.88343">
        <ele>-2.6</ele>
        <time>2021-07-04 12:29:29</time>
      </trkpt>
      <trkpt lat="28.75139" lon="-13.88344">
        <ele>-2.6</ele>
        <time>2021-07-04 12:29:30</time>
      </trkpt>
      <trkpt lat="28.75141" lon="-13.88345">
        <ele>-2.6</ele>
        <time>2021-07-04 12:29:31</time>
      </trkpt>
      <trkpt lat="28.75144" lon="-13.88347">
        <ele>-2.2</ele>
        <time>2021-07-04 12:29:32</time>
      </trkpt>
      <trkpt lat="28.75147" lon="-13.88348">
        <ele>-2.2</ele>
        <time>2021-07-04 12:29:33</time>
      </trkpt>
      <trkpt lat="28.7515" lon="-13.8835">
        <ele>-2.2</ele>
        <time>2021-07-04 12:29:34</time>
      </trkpt>
      <trkpt lat="28.75153" lon="-13.88352">
        <ele>-2.2</ele>
        <time>2021-07-04 12:29:35</time>
      </trkpt>
      <trkpt lat="28.75156" lon="-13.88354">
        <ele>-2.2</ele>
        <time>2021-07-04 12:29:36</time>
      </trkpt>
      <trkpt lat="28.75159" lon="-13.88356">
        <ele>-2.2</ele>
        <time>2021-07-04 12:29:37</time>
      </trkpt>
      <trkpt lat="28.75162" lon="-13.88358">
        <ele>-2.2</ele>
        <time>2021-07-04 12:29:38</time>
      </trkpt>
      <trkpt lat="28.75165" lon="-13.8836">
        <ele>-2.2</ele>
        <time>2021-07-04 12:29:39</time>
      </trkpt>
      <trkpt lat="28.75168" lon="-13.88362">
        <ele>-2.2</ele>
        <time>2021-07-04 12:29:40</time>
      </trkpt>
      <trkpt lat="28.75171" lon="-13.88363">
        <ele>-2.2</ele>
        <time>2021-07-04 12:29:41</time>
      </trkpt>
      <trkpt lat="28.75174" lon="-13.88365">
        <ele>-2.2</ele>
        <time>2021-07-04 12:29:42</time>
      </trkpt>
      <trkpt lat="28.75177" lon="-13.88366">
        <ele>-2.4</ele>
        <time>2021-07-04 12:29:43</time>
      </trkpt>
      <trkpt lat="28.75181" lon="-13.88368">
        <ele>-2.4</ele>
        <time>2021-07-04 12:29:44</time>
      </trkpt>
      <trkpt lat="28.75184" lon="-13.88369">
        <ele>-2.4</ele>
        <time>2021-07-04 12:29:45</time>
      </trkpt>
      <trkpt lat="28.75187" lon="-13.8837">
        <ele>-2.4</ele>
        <time>2021-07-04 12:29:46</time>
      </trkpt>
      <trkpt lat="28.7519" lon="-13.88372">
        <ele>-2.4</ele>
        <time>2021-07-04 12:29:47</time>
      </trkpt>
      <trkpt lat="28.75193" lon="-13.88373">
        <ele>-2.4</ele>
        <time>2021-07-04 12:29:48</time>
      </trkpt>
      <trkpt lat="28.75196" lon="-13.88375">
        <ele>-2.4</ele>
        <time>2021-07-04 12:29:49</time>
      </trkpt>
      <trkpt lat="28.75199" lon="-13.88377">
        <ele>-2.4</ele>
        <time>2021-07-04 12:29:50</time>
      </trkpt>
      <trkpt lat="28.75202" lon="-13.88379">
        <ele>-2.4</ele>
        <time>2021-07-04 12:29:51</time>
      </trkpt>
      <trkpt lat="28.75205" lon="-13.88381">
        <ele>-2.4</ele>
        <time>2021-07-04 12:29:52</time>
      </trkpt>
      <trkpt lat="28.75209" lon="-13.88383">
        <ele>-2.4</ele>
        <time>2021-07-04 12:29:53</time>
      </trkpt>
      <trkpt lat="28.75212" lon="-13.88384">
        <ele>-2.8</ele>
        <time>2021-07-04 12:29:54</time>
      </trkpt>
      <trkpt lat="28.75215" lon="-13.88386">
        <ele>-2.8</ele>
        <time>2021-07-04 12:29:55</time>
      </trkpt>
      <trkpt lat="28.75219" lon="-13.88388">
        <ele>-3</ele>
        <time>2021-07-04 12:29:56</time>
      </trkpt>
      <trkpt lat="28.75222" lon="-13.88389">
        <ele>-3</ele>
        <time>2021-07-04 12:29:57</time>
      </trkpt>
      <trkpt lat="28.75226" lon="-13.8839">
        <ele>-3</ele>
        <time>2021-07-04 12:29:58</time>
      </trkpt>
      <trkpt lat="28.75229" lon="-13.88391">
        <ele>-3</ele>
        <time>2021-07-04 12:29:59</time>
      </trkpt>
      <trkpt lat="28.75233" lon="-13.88392">
        <ele>-3</ele>
        <time>2021-07-04 12:30:00</time>
      </trkpt>
      <trkpt lat="28.75236" lon="-13.88393">
        <ele>-3</ele>
        <time>2021-07-04 12:30:01</time>
      </trkpt>
      <trkpt lat="28.7524" lon="-13.88394">
        <ele>-3.2</ele>
        <time>2021-07-04 12:30:02</time>
      </trkpt>
      <trkpt lat="28.75244" lon="-13.88395">
        <ele>-3.2</ele>
        <time>2021-07-04 12:30:03</time>
      </trkpt>
      <trkpt lat="28.75247" lon="-13.88396">
        <ele>-3.2</ele>
        <time>2021-07-04 12:30:04</time>
      </trkpt>
      <trkpt lat="28.75251" lon="-13.88397">
        <ele>-3.2</ele>
        <time>2021-07-04 12:30:05</time>
      </trkpt>
      <trkpt lat="28.75255" lon="-13.88398">
        <ele>-3.4</ele>
        <time>2021-07-04 12:30:06</time>
      </trkpt>
      <trkpt lat="28.75259" lon="-13.88399">
        <ele>-3.4</ele>
        <time>2021-07-04 12:30:07</time>
      </trkpt>
      <trkpt lat="28.75262" lon="-13.88401">
        <ele>-3.8</ele>
        <time>2021-07-04 12:30:08</time>
      </trkpt>
      <trkpt lat="28.75266" lon="-13.88403">
        <ele>-3.8</ele>
        <time>2021-07-04 12:30:09</time>
      </trkpt>
      <trkpt lat="28.75269" lon="-13.88405">
        <ele>-3.8</ele>
        <time>2021-07-04 12:30:10</time>
      </trkpt>
      <trkpt lat="28.75272" lon="-13.88408">
        <ele>-3.8</ele>
        <time>2021-07-04 12:30:11</time>
      </trkpt>
      <trkpt lat="28.75275" lon="-13.88411">
        <ele>-3.8</ele>
        <time>2021-07-04 12:30:12</time>
      </trkpt>
      <trkpt lat="28.75277" lon="-13.88414">
        <ele>-3.8</ele>
        <time>2021-07-04 12:30:13</time>
      </trkpt>
      <trkpt lat="28.7528" lon="-13.88418">
        <ele>-3.8</ele>
        <time>2021-07-04 12:30:14</time>
      </trkpt>
      <trkpt lat="28.75282" lon="-13.88422">
        <ele>-3.8</ele>
        <time>2021-07-04 12:30:15</time>
      </trkpt>
      <trkpt lat="28.75284" lon="-13.88426">
        <ele>-3.8</ele>
        <time>2021-07-04 12:30:16</time>
      </trkpt>
      <trkpt lat="28.75286" lon="-13.8843">
        <ele>-3.8</ele>
        <time>2021-07-04 12:30:17</time>
      </trkpt>
      <trkpt lat="28.75288" lon="-13.88434">
        <ele>-3.8</ele>
        <time>2021-07-04 12:30:18</time>
      </trkpt>
      <trkpt lat="28.75289" lon="-13.88438">
        <ele>-3.8</ele>
        <time>2021-07-04 12:30:19</time>
      </trkpt>
      <trkpt lat="28.75291" lon="-13.88442">
        <ele>-4.4</ele>
        <time>2021-07-04 12:30:20</time>
      </trkpt>
      <trkpt lat="28.75292" lon="-13.88447">
        <ele>-4</ele>
        <time>2021-07-04 12:30:21</time>
      </trkpt>
      <trkpt lat="28.75293" lon="-13.88451">
        <ele>-3.8</ele>
        <time>2021-07-04 12:30:22</time>
      </trkpt>
      <trkpt lat="28.75294" lon="-13.88455">
        <ele>-3.8</ele>
        <time>2021-07-04 12:30:23</time>
      </trkpt>
      <trkpt lat="28.75295" lon="-13.88459">
        <ele>-3.4</ele>
        <time>2021-07-04 12:30:24</time>
      </trkpt>
      <trkpt lat="28.75295" lon="-13.88464">
        <ele>-3.4</ele>
        <time>2021-07-04 12:30:25</time>
      </trkpt>
      <trkpt lat="28.75296" lon="-13.88468">
        <ele>-3.4</ele>
        <time>2021-07-04 12:30:26</time>
      </trkpt>
      <trkpt lat="28.75297" lon="-13.88472">
        <ele>-3.4</ele>
        <time>2021-07-04 12:30:27</time>
      </trkpt>
      <trkpt lat="28.75298" lon="-13.88476">
        <ele>-3.4</ele>
        <time>2021-07-04 12:30:28</time>
      </trkpt>
      <trkpt lat="28.75299" lon="-13.8848">
        <ele>-3.4</ele>
        <time>2021-07-04 12:30:29</time>
      </trkpt>
      <trkpt lat="28.753" lon="-13.88484">
        <ele>-3.4</ele>
        <time>2021-07-04 12:30:30</time>
      </trkpt>
      <trkpt lat="28.75302" lon="-13.88487">
        <ele>-3.4</ele>
        <time>2021-07-04 12:30:31</time>
      </trkpt>
      <trkpt lat="28.75304" lon="-13.88491">
        <ele>-3.4</ele>
        <time>2021-07-04 12:30:32</time>
      </trkpt>
      <trkpt lat="28.75306" lon="-13.88494">
        <ele>-3.4</ele>
        <time>2021-07-04 12:30:33</time>
      </trkpt>
      <trkpt lat="28.7531" lon="-13.88497">
        <ele>-3.4</ele>
        <time>2021-07-04 12:30:34</time>
      </trkpt>
      <trkpt lat="28.75313" lon="-13.88499">
        <ele>-3.4</ele>
        <time>2021-07-04 12:30:35</time>
      </trkpt>
      <trkpt lat="28.75316" lon="-13.88501">
        <ele>-3.4</ele>
        <time>2021-07-04 12:30:36</time>
      </trkpt>
      <trkpt lat="28.75319" lon="-13.88503">
        <ele>-3.4</ele>
        <time>2021-07-04 12:30:37</time>
      </trkpt>
      <trkpt lat="28.75323" lon="-13.88505">
        <ele>-3.4</ele>
        <time>2021-07-04 12:30:38</time>
      </trkpt>
      <trkpt lat="28.75326" lon="-13.88507">
        <ele>-3.4</ele>
        <time>2021-07-04 12:30:39</time>
      </trkpt>
      <trkpt lat="28.75329" lon="-13.88508">
        <ele>-3.2</ele>
        <time>2021-07-04 12:30:40</time>
      </trkpt>
      <trkpt lat="28.75333" lon="-13.8851">
        <ele>-3.2</ele>
        <time>2021-07-04 12:30:41</time>
      </trkpt>
      <trkpt lat="28.75336" lon="-13.88512">
        <ele>-3.2</ele>
        <time>2021-07-04 12:30:42</time>
      </trkpt>
      <trkpt lat="28.75339" lon="-13.88513">
        <ele>-3.2</ele>
        <time>2021-07-04 12:30:43</time>
      </trkpt>
      <trkpt lat="28.75343" lon="-13.88515">
        <ele>-3.2</ele>
        <time>2021-07-04 12:30:44</time>
      </trkpt>
      <trkpt lat="28.75346" lon="-13.88517">
        <ele>-3.2</ele>
        <time>2021-07-04 12:30:45</time>
      </trkpt>
      <trkpt lat="28.75349" lon="-13.88519">
        <ele>-3.2</ele>
        <time>2021-07-04 12:30:46</time>
      </trkpt>
      <trkpt lat="28.75352" lon="-13.88522">
        <ele>-3.6</ele>
        <time>2021-07-04 12:30:47</time>
      </trkpt>
      <trkpt lat="28.75355" lon="-13.88524">
        <ele>-3.6</ele>
        <time>2021-07-04 12:30:48</time>
      </trkpt>
      <trkpt lat="28.75358" lon="-13.88526">
        <ele>-3.6</ele>
        <time>2021-07-04 12:30:49</time>
      </trkpt>
      <trkpt lat="28.75361" lon="-13.88528">
        <ele>-3.6</ele>
        <time>2021-07-04 12:30:50</time>
      </trkpt>
      <trkpt lat="28.75364" lon="-13.88531">
        <ele>-3.6</ele>
        <time>2021-07-04 12:30:51</time>
      </trkpt>
      <trkpt lat="28.75367" lon="-13.88533">
        <ele>-3.4</ele>
        <time>2021-07-04 12:30:52</time>
      </trkpt>
      <trkpt lat="28.75369" lon="-13.88536">
        <ele>-3.4</ele>
        <time>2021-07-04 12:30:53</time>
      </trkpt>
      <trkpt lat="28.75372" lon="-13.88539">
        <ele>-3.4</ele>
        <time>2021-07-04 12:30:54</time>
      </trkpt>
      <trkpt lat="28.75375" lon="-13.88542">
        <ele>-3.4</ele>
        <time>2021-07-04 12:30:55</time>
      </trkpt>
      <trkpt lat="28.75378" lon="-13.88544">
        <ele>-3</ele>
        <time>2021-07-04 12:30:56</time>
      </trkpt>
      <trkpt lat="28.7538" lon="-13.88547">
        <ele>-3</ele>
        <time>2021-07-04 12:30:57</time>
      </trkpt>
      <trkpt lat="28.75383" lon="-13.8855">
        <ele>-3</ele>
        <time>2021-07-04 12:30:58</time>
      </trkpt>
      <trkpt lat="28.75386" lon="-13.88554">
        <ele>-3</ele>
        <time>2021-07-04 12:30:59</time>
      </trkpt>
      <trkpt lat="28.75389" lon="-13.88556">
        <ele>-3</ele>
        <time>2021-07-04 12:31:00</time>
      </trkpt>
      <trkpt lat="28.75391" lon="-13.88559">
        <ele>-3</ele>
        <time>2021-07-04 12:31:01</time>
      </trkpt>
      <trkpt lat="28.75394" lon="-13.88562">
        <ele>-3</ele>
        <time>2021-07-04 12:31:02</time>
      </trkpt>
      <trkpt lat="28.75397" lon="-13.88565">
        <ele>-3</ele>
        <time>2021-07-04 12:31:03</time>
      </trkpt>
      <trkpt lat="28.754" lon="-13.88568">
        <ele>-3</ele>
        <time>2021-07-04 12:31:04</time>
      </trkpt>
      <trkpt lat="28.75403" lon="-13.88571">
        <ele>-3</ele>
        <time>2021-07-04 12:31:05</time>
      </trkpt>
      <trkpt lat="28.75405" lon="-13.88574">
        <ele>-2.8</ele>
        <time>2021-07-04 12:31:06</time>
      </trkpt>
      <trkpt lat="28.75408" lon="-13.88577">
        <ele>-2.8</ele>
        <time>2021-07-04 12:31:07</time>
      </trkpt>
      <trkpt lat="28.75411" lon="-13.8858">
        <ele>-2.8</ele>
        <time>2021-07-04 12:31:08</time>
      </trkpt>
      <trkpt lat="28.75414" lon="-13.88583">
        <ele>-2.6</ele>
        <time>2021-07-04 12:31:09</time>
      </trkpt>
      <trkpt lat="28.75417" lon="-13.88586">
        <ele>-2.6</ele>
        <time>2021-07-04 12:31:10</time>
      </trkpt>
      <trkpt lat="28.75419" lon="-13.88589">
        <ele>-2.6</ele>
        <time>2021-07-04 12:31:11</time>
      </trkpt>
      <trkpt lat="28.75422" lon="-13.88592">
        <ele>-2.6</ele>
        <time>2021-07-04 12:31:12</time>
      </trkpt>
      <trkpt lat="28.75425" lon="-13.88595">
        <ele>-2.6</ele>
        <time>2021-07-04 12:31:13</time>
      </trkpt>
      <trkpt lat="28.75428" lon="-13.88598">
        <ele>-2.6</ele>
        <time>2021-07-04 12:31:14</time>
      </trkpt>
      <trkpt lat="28.75431" lon="-13.88602">
        <ele>-2.6</ele>
        <time>2021-07-04 12:31:15</time>
      </trkpt>
      <trkpt lat="28.75434" lon="-13.88605">
        <ele>-2.4</ele>
        <time>2021-07-04 12:31:16</time>
      </trkpt>
      <trkpt lat="28.75437" lon="-13.88608">
        <ele>-2.4</ele>
        <time>2021-07-04 12:31:17</time>
      </trkpt>
      <trkpt lat="28.7544" lon="-13.88611">
        <ele>-2.4</ele>
        <time>2021-07-04 12:31:18</time>
      </trkpt>
      <trkpt lat="28.75443" lon="-13.88614">
        <ele>-2.4</ele>
        <time>2021-07-04 12:31:19</time>
      </trkpt>
      <trkpt lat="28.75445" lon="-13.88617">
        <ele>-2.2</ele>
        <time>2021-07-04 12:31:20</time>
      </trkpt>
      <trkpt lat="28.75448" lon="-13.8862">
        <ele>-2.2</ele>
        <time>2021-07-04 12:31:21</time>
      </trkpt>
      <trkpt lat="28.75451" lon="-13.88623">
        <ele>-2.2</ele>
        <time>2021-07-04 12:31:22</time>
      </trkpt>
      <trkpt lat="28.75454" lon="-13.88626">
        <ele>-2.2</ele>
        <time>2021-07-04 12:31:23</time>
      </trkpt>
      <trkpt lat="28.75457" lon="-13.88629">
        <ele>-2</ele>
        <time>2021-07-04 12:31:24</time>
      </trkpt>
      <trkpt lat="28.7546" lon="-13.88632">
        <ele>-2</ele>
        <time>2021-07-04 12:31:25</time>
      </trkpt>
      <trkpt lat="28.75462" lon="-13.88635">
        <ele>-2</ele>
        <time>2021-07-04 12:31:26</time>
      </trkpt>
      <trkpt lat="28.75464" lon="-13.88638">
        <ele>-2</ele>
        <time>2021-07-04 12:31:27</time>
      </trkpt>
      <trkpt lat="28.75467" lon="-13.88641">
        <ele>-1.6</ele>
        <time>2021-07-04 12:31:28</time>
      </trkpt>
      <trkpt lat="28.75469" lon="-13.88643">
        <ele>-1.6</ele>
        <time>2021-07-04 12:31:29</time>
      </trkpt>
      <trkpt lat="28.75472" lon="-13.88645">
        <ele>-1.6</ele>
        <time>2021-07-04 12:31:30</time>
      </trkpt>
      <trkpt lat="28.75475" lon="-13.88648">
        <ele>-1.6</ele>
        <time>2021-07-04 12:31:31</time>
      </trkpt>
      <trkpt lat="28.75478" lon="-13.8865">
        <ele>-2</ele>
        <time>2021-07-04 12:31:32</time>
      </trkpt>
      <trkpt lat="28.75481" lon="-13.88653">
        <ele>-2</ele>
        <time>2021-07-04 12:31:33</time>
      </trkpt>
      <trkpt lat="28.75483" lon="-13.88656">
        <ele>-2</ele>
        <time>2021-07-04 12:31:34</time>
      </trkpt>
      <trkpt lat="28.75486" lon="-13.88659">
        <ele>-2</ele>
        <time>2021-07-04 12:31:35</time>
      </trkpt>
      <trkpt lat="28.75489" lon="-13.88662">
        <ele>-2</ele>
        <time>2021-07-04 12:31:36</time>
      </trkpt>
      <trkpt lat="28.75491" lon="-13.88664">
        <ele>-1.8</ele>
        <time>2021-07-04 12:31:37</time>
      </trkpt>
      <trkpt lat="28.75494" lon="-13.88667">
        <ele>-1.8</ele>
        <time>2021-07-04 12:31:38</time>
      </trkpt>
      <trkpt lat="28.75497" lon="-13.8867">
        <ele>-2</ele>
        <time>2021-07-04 12:31:39</time>
      </trkpt>
      <trkpt lat="28.755" lon="-13.88672">
        <ele>-2</ele>
        <time>2021-07-04 12:31:40</time>
      </trkpt>
      <trkpt lat="28.75503" lon="-13.88675">
        <ele>-2</ele>
        <time>2021-07-04 12:31:41</time>
      </trkpt>
      <trkpt lat="28.75506" lon="-13.88678">
        <ele>-2</ele>
        <time>2021-07-04 12:31:42</time>
      </trkpt>
      <trkpt lat="28.75509" lon="-13.8868">
        <ele>-2</ele>
        <time>2021-07-04 12:31:43</time>
      </trkpt>
      <trkpt lat="28.75512" lon="-13.88683">
        <ele>-2</ele>
        <time>2021-07-04 12:31:44</time>
      </trkpt>
      <trkpt lat="28.75515" lon="-13.88685">
        <ele>-2</ele>
        <time>2021-07-04 12:31:45</time>
      </trkpt>
      <trkpt lat="28.75518" lon="-13.88687">
        <ele>-2</ele>
        <time>2021-07-04 12:31:46</time>
      </trkpt>
      <trkpt lat="28.75521" lon="-13.8869">
        <ele>-2</ele>
        <time>2021-07-04 12:31:47</time>
      </trkpt>
      <trkpt lat="28.75524" lon="-13.88693">
        <ele>-2</ele>
        <time>2021-07-04 12:31:48</time>
      </trkpt>
      <trkpt lat="28.75527" lon="-13.88696">
        <ele>-2</ele>
        <time>2021-07-04 12:31:49</time>
      </trkpt>
      <trkpt lat="28.7553" lon="-13.88698">
        <ele>-1.8</ele>
        <time>2021-07-04 12:31:50</time>
      </trkpt>
      <trkpt lat="28.75533" lon="-13.88701">
        <ele>-1.8</ele>
        <time>2021-07-04 12:31:51</time>
      </trkpt>
      <trkpt lat="28.75536" lon="-13.88704">
        <ele>-1.8</ele>
        <time>2021-07-04 12:31:52</time>
      </trkpt>
      <trkpt lat="28.75538" lon="-13.88707">
        <ele>-1.6</ele>
        <time>2021-07-04 12:31:53</time>
      </trkpt>
      <trkpt lat="28.75541" lon="-13.8871">
        <ele>-1.6</ele>
        <time>2021-07-04 12:31:54</time>
      </trkpt>
      <trkpt lat="28.75543" lon="-13.88714">
        <ele>-1.4</ele>
        <time>2021-07-04 12:31:55</time>
      </trkpt>
      <trkpt lat="28.75545" lon="-13.88717">
        <ele>-1.4</ele>
        <time>2021-07-04 12:31:56</time>
      </trkpt>
      <trkpt lat="28.75547" lon="-13.88721">
        <ele>-1</ele>
        <time>2021-07-04 12:31:57</time>
      </trkpt>
      <trkpt lat="28.75549" lon="-13.88725">
        <ele>-0.8</ele>
        <time>2021-07-04 12:31:58</time>
      </trkpt>
      <trkpt lat="28.7555" lon="-13.88729">
        <ele>-0.8</ele>
        <time>2021-07-04 12:31:59</time>
      </trkpt>
      <trkpt lat="28.75552" lon="-13.88732">
        <ele>-0.4</ele>
        <time>2021-07-04 12:32:00</time>
      </trkpt>
      <trkpt lat="28.75553" lon="-13.88736">
        <ele>-0.2</ele>
        <time>2021-07-04 12:32:01</time>
      </trkpt>
      <trkpt lat="28.75554" lon="-13.8874">
        <ele>-0.2</ele>
        <time>2021-07-04 12:32:02</time>
      </trkpt>
      <trkpt lat="28.75554" lon="-13.88744">
        <ele>0.2</ele>
        <time>2021-07-04 12:32:03</time>
      </trkpt>
      <trkpt lat="28.75555" lon="-13.88748">
        <ele>0.2</ele>
        <time>2021-07-04 12:32:04</time>
      </trkpt>
      <trkpt lat="28.75556" lon="-13.88753">
        <ele>0.4</ele>
        <time>2021-07-04 12:32:05</time>
      </trkpt>
      <trkpt lat="28.75557" lon="-13.88757">
        <ele>0.4</ele>
        <time>2021-07-04 12:32:06</time>
      </trkpt>
      <trkpt lat="28.75557" lon="-13.88761">
        <ele>0.4</ele>
        <time>2021-07-04 12:32:07</time>
      </trkpt>
      <trkpt lat="28.75558" lon="-13.88765">
        <ele>0.4</ele>
        <time>2021-07-04 12:32:08</time>
      </trkpt>
      <trkpt lat="28.75559" lon="-13.88768">
        <ele>0.4</ele>
        <time>2021-07-04 12:32:09</time>
      </trkpt>
      <trkpt lat="28.75559" lon="-13.88772">
        <ele>0.2</ele>
        <time>2021-07-04 12:32:10</time>
      </trkpt>
      <trkpt lat="28.7556" lon="-13.88776">
        <ele>0.2</ele>
        <time>2021-07-04 12:32:11</time>
      </trkpt>
      <trkpt lat="28.75561" lon="-13.8878">
        <ele>0.2</ele>
        <time>2021-07-04 12:32:12</time>
      </trkpt>
      <trkpt lat="28.75561" lon="-13.88784">
        <ele>0.2</ele>
        <time>2021-07-04 12:32:13</time>
      </trkpt>
      <trkpt lat="28.75562" lon="-13.88788">
        <ele>0.2</ele>
        <time>2021-07-04 12:32:14</time>
      </trkpt>
      <trkpt lat="28.75563" lon="-13.88792">
        <ele>0.2</ele>
        <time>2021-07-04 12:32:15</time>
      </trkpt>
      <trkpt lat="28.75563" lon="-13.88796">
        <ele>0.2</ele>
        <time>2021-07-04 12:32:16</time>
      </trkpt>
      <trkpt lat="28.75564" lon="-13.888">
        <ele>0.2</ele>
        <time>2021-07-04 12:32:17</time>
      </trkpt>
      <trkpt lat="28.75565" lon="-13.88804">
        <ele>0.2</ele>
        <time>2021-07-04 12:32:18</time>
      </trkpt>
      <trkpt lat="28.75566" lon="-13.88808">
        <ele>0.2</ele>
        <time>2021-07-04 12:32:19</time>
      </trkpt>
      <trkpt lat="28.75566" lon="-13.88812">
        <ele>0.4</ele>
        <time>2021-07-04 12:32:20</time>
      </trkpt>
      <trkpt lat="28.75567" lon="-13.88816">
        <ele>0.4</ele>
        <time>2021-07-04 12:32:21</time>
      </trkpt>
      <trkpt lat="28.75568" lon="-13.88821">
        <ele>0.4</ele>
        <time>2021-07-04 12:32:22</time>
      </trkpt>
      <trkpt lat="28.75569" lon="-13.88825">
        <ele>0.4</ele>
        <time>2021-07-04 12:32:23</time>
      </trkpt>
      <trkpt lat="28.7557" lon="-13.88829">
        <ele>0.4</ele>
        <time>2021-07-04 12:32:24</time>
      </trkpt>
      <trkpt lat="28.75571" lon="-13.88833">
        <ele>0.4</ele>
        <time>2021-07-04 12:32:25</time>
      </trkpt>
      <trkpt lat="28.75572" lon="-13.88837">
        <ele>0.4</ele>
        <time>2021-07-04 12:32:26</time>
      </trkpt>
      <trkpt lat="28.75573" lon="-13.88841">
        <ele>0.4</ele>
        <time>2021-07-04 12:32:27</time>
      </trkpt>
      <trkpt lat="28.75574" lon="-13.88845">
        <ele>0.4</ele>
        <time>2021-07-04 12:32:28</time>
      </trkpt>
      <trkpt lat="28.75575" lon="-13.88849">
        <ele>0.4</ele>
        <time>2021-07-04 12:32:29</time>
      </trkpt>
      <trkpt lat="28.75577" lon="-13.88853">
        <ele>0.4</ele>
        <time>2021-07-04 12:32:30</time>
      </trkpt>
      <trkpt lat="28.75578" lon="-13.88857">
        <time>2021-07-04 12:32:31</time>
      </trkpt>
      <trkpt lat="28.7558" lon="-13.88861">
        <time>2021-07-04 12:32:32</time>
      </trkpt>
      <trkpt lat="28.75582" lon="-13.88864">
        <time>2021-07-04 12:32:33</time>
      </trkpt>
      <trkpt lat="28.75584" lon="-13.88868">
        <time>2021-07-04 12:32:34</time>
      </trkpt>
      <trkpt lat="28.75587" lon="-13.88872">
        <time>2021-07-04 12:32:35</time>
      </trkpt>
      <trkpt lat="28.75589" lon="-13.88875">
        <time>2021-07-04 12:32:36</time>
      </trkpt>
      <trkpt lat="28.75591" lon="-13.88879">
        <time>2021-07-04 12:32:37</time>
      </trkpt>
      <trkpt lat="28.75593" lon="-13.88883">
        <ele>-0.2</ele>
        <time>2021-07-04 12:32:38</time>
      </trkpt>
      <trkpt lat="28.75595" lon="-13.88887">
        <ele>-0.2</ele>
        <time>2021-07-04 12:32:39</time>
      </trkpt>
      <trkpt lat="28.75597" lon="-13.8889">
        <ele>-0.2</ele>
        <time>2021-07-04 12:32:40</time>
      </trkpt>
      <trkpt lat="28.75598" lon="-13.88894">
        <ele>-0.2</ele>
        <time>2021-07-04 12:32:41</time>
      </trkpt>
      <trkpt lat="28.756" lon="-13.88898">
        <ele>-0.2</ele>
        <time>2021-07-04 12:32:42</time>
      </trkpt>
      <trkpt lat="28.756" lon="-13.88902">
        <ele>-0.2</ele>
        <time>2021-07-04 12:32:43</time>
      </trkpt>
      <trkpt lat="28.756" lon="-13.88906">
        <time>2021-07-04 12:32:44</time>
      </trkpt>
      <trkpt lat="28.756" lon="-13.8891">
        <time>2021-07-04 12:32:45</time>
      </trkpt>
      <trkpt lat="28.75598" lon="-13.88914">
        <ele>-0.4</ele>
        <time>2021-07-04 12:32:46</time>
      </trkpt>
      <trkpt lat="28.75595" lon="-13.88917">
        <ele>-0.4</ele>
        <time>2021-07-04 12:32:47</time>
      </trkpt>
      <trkpt lat="28.75592" lon="-13.8892">
        <ele>-0.8</ele>
        <time>2021-07-04 12:32:48</time>
      </trkpt>
      <trkpt lat="28.75589" lon="-13.88923">
        <ele>-0.8</ele>
        <time>2021-07-04 12:32:49</time>
      </trkpt>
      <trkpt lat="28.75587" lon="-13.88925">
        <ele>-1.2</ele>
        <time>2021-07-04 12:32:50</time>
      </trkpt>
      <trkpt lat="28.75585" lon="-13.88928">
        <ele>-1.2</ele>
        <time>2021-07-04 12:32:51</time>
      </trkpt>
      <trkpt lat="28.75584" lon="-13.88932">
        <ele>-1.2</ele>
        <time>2021-07-04 12:32:52</time>
      </trkpt>
      <trkpt lat="28.75582" lon="-13.88935">
        <ele>-1.2</ele>
        <time>2021-07-04 12:32:53</time>
      </trkpt>
      <trkpt lat="28.7558" lon="-13.88937">
        <ele>-1.2</ele>
        <time>2021-07-04 12:32:54</time>
      </trkpt>
      <trkpt lat="28.75578" lon="-13.8894">
        <ele>-1</ele>
        <time>2021-07-04 12:32:55</time>
      </trkpt>
      <trkpt lat="28.75576" lon="-13.88943">
        <ele>-1</ele>
        <time>2021-07-04 12:32:56</time>
      </trkpt>
      <trkpt lat="28.75573" lon="-13.88946">
        <ele>-0.6</ele>
        <time>2021-07-04 12:32:57</time>
      </trkpt>
      <trkpt lat="28.75571" lon="-13.88948">
        <ele>-0.6</ele>
        <time>2021-07-04 12:32:58</time>
      </trkpt>
      <trkpt lat="28.75569" lon="-13.88951">
        <ele>-0.4</ele>
        <time>2021-07-04 12:32:59</time>
      </trkpt>
      <trkpt lat="28.75566" lon="-13.88954">
        <ele>-0.4</ele>
        <time>2021-07-04 12:33:00</time>
      </trkpt>
      <trkpt lat="28.75564" lon="-13.88957">
        <ele>-0.2</ele>
        <time>2021-07-04 12:33:01</time>
      </trkpt>
      <trkpt lat="28.75562" lon="-13.8896">
        <ele>-0.2</ele>
        <time>2021-07-04 12:33:02</time>
      </trkpt>
      <trkpt lat="28.75561" lon="-13.88963">
        <time>2021-07-04 12:33:03</time>
      </trkpt>
      <trkpt lat="28.75559" lon="-13.88966">
        <time>2021-07-04 12:33:04</time>
      </trkpt>
      <trkpt lat="28.75557" lon="-13.8897">
        <time>2021-07-04 12:33:05</time>
      </trkpt>
      <trkpt lat="28.75556" lon="-13.88973">
        <time>2021-07-04 12:33:06</time>
      </trkpt>
      <trkpt lat="28.75555" lon="-13.88977">
        <ele>0.2</ele>
        <time>2021-07-04 12:33:07</time>
      </trkpt>
      <trkpt lat="28.75553" lon="-13.8898">
        <ele>0.2</ele>
        <time>2021-07-04 12:33:08</time>
      </trkpt>
      <trkpt lat="28.75551" lon="-13.88984">
        <ele>0.2</ele>
        <time>2021-07-04 12:33:09</time>
      </trkpt>
      <trkpt lat="28.75549" lon="-13.88987">
        <ele>0.2</ele>
        <time>2021-07-04 12:33:10</time>
      </trkpt>
      <trkpt lat="28.75547" lon="-13.8899">
        <ele>0.2</ele>
        <time>2021-07-04 12:33:11</time>
      </trkpt>
      <trkpt lat="28.75544" lon="-13.88993">
        <ele>0.2</ele>
        <time>2021-07-04 12:33:12</time>
      </trkpt>
      <trkpt lat="28.75541" lon="-13.88996">
        <ele>0.2</ele>
        <time>2021-07-04 12:33:13</time>
      </trkpt>
      <trkpt lat="28.75537" lon="-13.88999">
        <ele>0.2</ele>
        <time>2021-07-04 12:33:14</time>
      </trkpt>
      <trkpt lat="28.75534" lon="-13.89002">
        <ele>0.4</ele>
        <time>2021-07-04 12:33:15</time>
      </trkpt>
      <trkpt lat="28.75532" lon="-13.89005">
        <ele>0.4</ele>
        <time>2021-07-04 12:33:16</time>
      </trkpt>
      <trkpt lat="28.75529" lon="-13.89009">
        <ele>0.4</ele>
        <time>2021-07-04 12:33:17</time>
      </trkpt>
      <trkpt lat="28.75526" lon="-13.89012">
        <ele>0.4</ele>
        <time>2021-07-04 12:33:18</time>
      </trkpt>
      <trkpt lat="28.75522" lon="-13.89015">
        <ele>0.4</ele>
        <time>2021-07-04 12:33:19</time>
      </trkpt>
      <trkpt lat="28.75519" lon="-13.89018">
        <ele>0.4</ele>
        <time>2021-07-04 12:33:20</time>
      </trkpt>
      <trkpt lat="28.75517" lon="-13.89021">
        <ele>0.4</ele>
        <time>2021-07-04 12:33:21</time>
      </trkpt>
      <trkpt lat="28.75515" lon="-13.89023">
        <ele>0.4</ele>
        <time>2021-07-04 12:33:22</time>
      </trkpt>
      <trkpt lat="28.75514" lon="-13.89025">
        <ele>0.4</ele>
        <time>2021-07-04 12:33:23</time>
      </trkpt>
      <trkpt lat="28.75514" lon="-13.89025">
        <ele>0.4</ele>
        <time>2021-07-04 12:33:24</time>
      </trkpt>
      <trkpt lat="28.75513" lon="-13.89025">
        <ele>0.4</ele>
        <time>2021-07-04 12:33:25</time>
      </trkpt>
      <trkpt lat="28.75514" lon="-13.89025">
        <ele>0.4</ele>
        <time>2021-07-04 12:33:26</time>
      </trkpt>
      <trkpt lat="28.75514" lon="-13.89025">
        <ele>0.4</ele>
        <time>2021-07-04 12:33:27</time>
      </trkpt>
      <trkpt lat="28.75512" lon="-13.89027">
        <ele>0.8</ele>
        <time>2021-07-04 12:33:28</time>
      </trkpt>
      <trkpt lat="28.75511" lon="-13.89029">
        <ele>0.8</ele>
        <time>2021-07-04 12:33:29</time>
      </trkpt>
      <trkpt lat="28.75509" lon="-13.89032">
        <ele>0.6</ele>
        <time>2021-07-04 12:33:30</time>
      </trkpt>
      <trkpt lat="28.75508" lon="-13.89036">
        <ele>0.4</ele>
        <time>2021-07-04 12:33:31</time>
      </trkpt>
      <trkpt lat="28.75507" lon="-13.89039">
        <ele>0.4</ele>
        <time>2021-07-04 12:33:41</time>
      </trkpt>
      <trkpt lat="28.75506" lon="-13.89043">
        <ele>0.4</ele>
        <time>2021-07-04 12:33:42</time>
      </trkpt>
      <trkpt lat="28.75505" lon="-13.89047">
        <ele>0.4</ele>
        <time>2021-07-04 12:33:43</time>
      </trkpt>
      <trkpt lat="28.75505" lon="-13.89051">
        <ele>0.4</ele>
        <time>2021-07-04 12:33:44</time>
      </trkpt>
      <trkpt lat="28.75505" lon="-13.89055">
        <ele>1</ele>
        <time>2021-07-04 12:33:45</time>
      </trkpt>
      <trkpt lat="28.75504" lon="-13.89059">
        <ele>1.2</ele>
        <time>2021-07-04 12:33:46</time>
      </trkpt>
      <trkpt lat="28.75504" lon="-13.89063">
        <ele>1.2</ele>
        <time>2021-07-04 12:33:47</time>
      </trkpt>
      <trkpt lat="28.75503" lon="-13.89067">
        <ele>1.6</ele>
        <time>2021-07-04 12:33:48</time>
      </trkpt>
      <trkpt lat="28.75503" lon="-13.89072">
        <ele>1.6</ele>
        <time>2021-07-04 12:33:49</time>
      </trkpt>
      <trkpt lat="28.75503" lon="-13.89076">
        <ele>1.6</ele>
        <time>2021-07-04 12:33:50</time>
      </trkpt>
      <trkpt lat="28.75503" lon="-13.8908">
        <ele>1.8</ele>
        <time>2021-07-04 12:33:51</time>
      </trkpt>
      <trkpt lat="28.75503" lon="-13.89085">
        <ele>1.8</ele>
        <time>2021-07-04 12:33:52</time>
      </trkpt>
      <trkpt lat="28.75503" lon="-13.89089">
        <ele>1.8</ele>
        <time>2021-07-04 12:33:53</time>
      </trkpt>
      <trkpt lat="28.75504" lon="-13.89094">
        <ele>2</ele>
        <time>2021-07-04 12:33:54</time>
      </trkpt>
      <trkpt lat="28.75504" lon="-13.89098">
        <ele>2</ele>
        <time>2021-07-04 12:33:55</time>
      </trkpt>
      <trkpt lat="28.75503" lon="-13.89106">
        <ele>2.4</ele>
        <time>2021-07-04 12:33:56</time>
      </trkpt>
      <trkpt lat="28.75503" lon="-13.8911">
        <ele>2.4</ele>
        <time>2021-07-04 12:33:57</time>
      </trkpt>
      <trkpt lat="28.75502" lon="-13.89114">
        <ele>2.4</ele>
        <time>2021-07-04 12:33:58</time>
      </trkpt>
      <trkpt lat="28.75502" lon="-13.89118">
        <ele>2.4</ele>
        <time>2021-07-04 12:33:59</time>
      </trkpt>
      <trkpt lat="28.75503" lon="-13.89121">
        <ele>2.4</ele>
        <time>2021-07-04 12:34:00</time>
      </trkpt>
      <trkpt lat="28.75503" lon="-13.89124">
        <ele>2.4</ele>
        <time>2021-07-04 12:34:01</time>
      </trkpt>
      <trkpt lat="28.75504" lon="-13.89127">
        <ele>2.4</ele>
        <time>2021-07-04 12:34:02</time>
      </trkpt>
      <trkpt lat="28.75504" lon="-13.89129">
        <ele>2.8</ele>
        <time>2021-07-04 12:34:03</time>
      </trkpt>
      <trkpt lat="28.75505" lon="-13.89131">
        <ele>2.8</ele>
        <time>2021-07-04 12:34:04</time>
      </trkpt>
      <trkpt lat="28.75506" lon="-13.89133">
        <ele>3</ele>
        <time>2021-07-04 12:34:05</time>
      </trkpt>
      <trkpt lat="28.75507" lon="-13.89136">
        <ele>3.2</ele>
        <time>2021-07-04 12:34:06</time>
      </trkpt>
      <trkpt lat="28.75507" lon="-13.89139">
        <ele>3.6</ele>
        <time>2021-07-04 12:34:07</time>
      </trkpt>
      <trkpt lat="28.75508" lon="-13.89143">
        <ele>3.8</ele>
        <time>2021-07-04 12:34:08</time>
      </trkpt>
      <trkpt lat="28.75509" lon="-13.89146">
        <ele>4.2</ele>
        <time>2021-07-04 12:34:09</time>
      </trkpt>
      <trkpt lat="28.75509" lon="-13.8915">
        <ele>4.4</ele>
        <time>2021-07-04 12:34:10</time>
      </trkpt>
      <trkpt lat="28.7551" lon="-13.89153">
        <ele>4.8</ele>
        <time>2021-07-04 12:34:11</time>
      </trkpt>
      <trkpt lat="28.7551" lon="-13.89156">
        <ele>4.8</ele>
        <time>2021-07-04 12:34:12</time>
      </trkpt>
      <trkpt lat="28.75509" lon="-13.89159">
        <ele>4.8</ele>
        <time>2021-07-04 12:34:13</time>
      </trkpt>
      <trkpt lat="28.75509" lon="-13.89163">
        <ele>5.2</ele>
        <time>2021-07-04 12:34:14</time>
      </trkpt>
      <trkpt lat="28.75508" lon="-13.89168">
        <ele>5.2</ele>
        <time>2021-07-04 12:34:15</time>
      </trkpt>
      <trkpt lat="28.75507" lon="-13.89172">
        <ele>5.4</ele>
        <time>2021-07-04 12:34:16</time>
      </trkpt>
      <trkpt lat="28.75506" lon="-13.89176">
        <ele>5.4</ele>
        <time>2021-07-04 12:34:17</time>
      </trkpt>
      <trkpt lat="28.75504" lon="-13.8918">
        <ele>5.4</ele>
        <time>2021-07-04 12:34:18</time>
      </trkpt>
      <trkpt lat="28.75502" lon="-13.89184">
        <ele>5.4</ele>
        <time>2021-07-04 12:34:19</time>
      </trkpt>
      <trkpt lat="28.755" lon="-13.89188">
        <ele>5.2</ele>
        <time>2021-07-04 12:34:20</time>
      </trkpt>
      <trkpt lat="28.75497" lon="-13.89191">
        <ele>5.2</ele>
        <time>2021-07-04 12:34:21</time>
      </trkpt>
      <trkpt lat="28.75494" lon="-13.89195">
        <ele>4.8</ele>
        <time>2021-07-04 12:34:22</time>
      </trkpt>
      <trkpt lat="28.75491" lon="-13.89198">
        <ele>4.8</ele>
        <time>2021-07-04 12:34:23</time>
      </trkpt>
      <trkpt lat="28.75488" lon="-13.89201">
        <ele>4.6</ele>
        <time>2021-07-04 12:34:24</time>
      </trkpt>
      <trkpt lat="28.75485" lon="-13.89204">
        <ele>4.6</ele>
        <time>2021-07-04 12:34:25</time>
      </trkpt>
      <trkpt lat="28.75481" lon="-13.89207">
        <ele>4.2</ele>
        <time>2021-07-04 12:34:26</time>
      </trkpt>
      <trkpt lat="28.75478" lon="-13.8921">
        <ele>4.2</ele>
        <time>2021-07-04 12:34:27</time>
      </trkpt>
      <trkpt lat="28.75474" lon="-13.89213">
        <ele>4</ele>
        <time>2021-07-04 12:34:28</time>
      </trkpt>
      <trkpt lat="28.75471" lon="-13.89216">
        <ele>4</ele>
        <time>2021-07-04 12:34:29</time>
      </trkpt>
      <trkpt lat="28.75468" lon="-13.89218">
        <ele>3.8</ele>
        <time>2021-07-04 12:34:30</time>
      </trkpt>
      <trkpt lat="28.75464" lon="-13.8922">
        <ele>3.8</ele>
        <time>2021-07-04 12:34:31</time>
      </trkpt>
      <trkpt lat="28.75461" lon="-13.89222">
        <ele>3.8</ele>
        <time>2021-07-04 12:34:32</time>
      </trkpt>
      <trkpt lat="28.75458" lon="-13.89224">
        <ele>3.8</ele>
        <time>2021-07-04 12:34:33</time>
      </trkpt>
      <trkpt lat="28.75455" lon="-13.89225">
        <ele>3.8</ele>
        <time>2021-07-04 12:34:34</time>
      </trkpt>
      <trkpt lat="28.75451" lon="-13.89226">
        <ele>4.2</ele>
        <time>2021-07-04 12:34:35</time>
      </trkpt>
      <trkpt lat="28.75448" lon="-13.89227">
        <ele>4.2</ele>
        <time>2021-07-04 12:34:36</time>
      </trkpt>
      <trkpt lat="28.75444" lon="-13.89228">
        <ele>4.2</ele>
        <time>2021-07-04 12:34:37</time>
      </trkpt>
      <trkpt lat="28.7544" lon="-13.89229">
        <ele>4.4</ele>
        <time>2021-07-04 12:34:38</time>
      </trkpt>
      <trkpt lat="28.75437" lon="-13.8923">
        <ele>4.6</ele>
        <time>2021-07-04 12:34:39</time>
      </trkpt>
      <trkpt lat="28.75433" lon="-13.89231">
        <ele>4.6</ele>
        <time>2021-07-04 12:34:40</time>
      </trkpt>
      <trkpt lat="28.7543" lon="-13.89233">
        <ele>5</ele>
        <time>2021-07-04 12:34:41</time>
      </trkpt>
      <trkpt lat="28.75426" lon="-13.89234">
        <ele>5</ele>
        <time>2021-07-04 12:34:42</time>
      </trkpt>
      <trkpt lat="28.75423" lon="-13.89236">
        <ele>5.2</ele>
        <time>2021-07-04 12:34:43</time>
      </trkpt>
      <trkpt lat="28.7542" lon="-13.89237">
        <ele>5.2</ele>
        <time>2021-07-04 12:34:44</time>
      </trkpt>
      <trkpt lat="28.75417" lon="-13.89239">
        <ele>5.4</ele>
        <time>2021-07-04 12:34:45</time>
      </trkpt>
      <trkpt lat="28.75414" lon="-13.89241">
        <ele>5.4</ele>
        <time>2021-07-04 12:34:46</time>
      </trkpt>
      <trkpt lat="28.75411" lon="-13.89243">
        <ele>5.4</ele>
        <time>2021-07-04 12:34:47</time>
      </trkpt>
      <trkpt lat="28.75408" lon="-13.89245">
        <ele>5.4</ele>
        <time>2021-07-04 12:34:48</time>
      </trkpt>
      <trkpt lat="28.75405" lon="-13.89248">
        <ele>5.4</ele>
        <time>2021-07-04 12:34:49</time>
      </trkpt>
      <trkpt lat="28.75403" lon="-13.89251">
        <ele>5.4</ele>
        <time>2021-07-04 12:34:50</time>
      </trkpt>
      <trkpt lat="28.75401" lon="-13.89255">
        <ele>5.8</ele>
        <time>2021-07-04 12:34:51</time>
      </trkpt>
      <trkpt lat="28.75399" lon="-13.89259">
        <ele>5.8</ele>
        <time>2021-07-04 12:34:52</time>
      </trkpt>
      <trkpt lat="28.75397" lon="-13.89264">
        <ele>5.8</ele>
        <time>2021-07-04 12:34:53</time>
      </trkpt>
      <trkpt lat="28.75396" lon="-13.89268">
        <ele>6</ele>
        <time>2021-07-04 12:34:54</time>
      </trkpt>
      <trkpt lat="28.75395" lon="-13.89272">
        <ele>6</ele>
        <time>2021-07-04 12:34:55</time>
      </trkpt>
      <trkpt lat="28.75394" lon="-13.89276">
        <ele>6</ele>
        <time>2021-07-04 12:34:56</time>
      </trkpt>
      <trkpt lat="28.75392" lon="-13.8928">
        <ele>6.2</ele>
        <time>2021-07-04 12:34:57</time>
      </trkpt>
      <trkpt lat="28.75391" lon="-13.89284">
        <ele>6.2</ele>
        <time>2021-07-04 12:34:58</time>
      </trkpt>
      <trkpt lat="28.75389" lon="-13.89288">
        <ele>6.2</ele>
        <time>2021-07-04 12:34:59</time>
      </trkpt>
      <trkpt lat="28.75388" lon="-13.89292">
        <ele>6.2</ele>
        <time>2021-07-04 12:35:00</time>
      </trkpt>
      <trkpt lat="28.75386" lon="-13.89296">
        <ele>6.2</ele>
        <time>2021-07-04 12:35:01</time>
      </trkpt>
      <trkpt lat="28.75385" lon="-13.893">
        <ele>6.2</ele>
        <time>2021-07-04 12:35:02</time>
      </trkpt>
      <trkpt lat="28.75383" lon="-13.89304">
        <ele>6.2</ele>
        <time>2021-07-04 12:35:03</time>
      </trkpt>
      <trkpt lat="28.75382" lon="-13.89307">
        <ele>6.2</ele>
        <time>2021-07-04 12:35:04</time>
      </trkpt>
      <trkpt lat="28.7538" lon="-13.89311">
        <ele>6.6</ele>
        <time>2021-07-04 12:35:05</time>
      </trkpt>
      <trkpt lat="28.75379" lon="-13.89315">
        <ele>6.8</ele>
        <time>2021-07-04 12:35:06</time>
      </trkpt>
      <trkpt lat="28.75378" lon="-13.89319">
        <ele>6.8</ele>
        <time>2021-07-04 12:35:07</time>
      </trkpt>
      <trkpt lat="28.75377" lon="-13.89323">
        <ele>7.2</ele>
        <time>2021-07-04 12:35:08</time>
      </trkpt>
      <trkpt lat="28.75375" lon="-13.89327">
        <ele>7.2</ele>
        <time>2021-07-04 12:35:09</time>
      </trkpt>
      <trkpt lat="28.75373" lon="-13.8933">
        <ele>7.2</ele>
        <time>2021-07-04 12:35:10</time>
      </trkpt>
      <trkpt lat="28.7537" lon="-13.89333">
        <ele>7.2</ele>
        <time>2021-07-04 12:35:11</time>
      </trkpt>
      <trkpt lat="28.75367" lon="-13.89336">
        <ele>7.2</ele>
        <time>2021-07-04 12:35:12</time>
      </trkpt>
      <trkpt lat="28.75364" lon="-13.89339">
        <ele>7.2</ele>
        <time>2021-07-04 12:35:13</time>
      </trkpt>
      <trkpt lat="28.75361" lon="-13.89342">
        <ele>7.2</ele>
        <time>2021-07-04 12:35:14</time>
      </trkpt>
      <trkpt lat="28.75358" lon="-13.89345">
        <ele>7.2</ele>
        <time>2021-07-04 12:35:15</time>
      </trkpt>
      <trkpt lat="28.75355" lon="-13.89347">
        <ele>7.2</ele>
        <time>2021-07-04 12:35:16</time>
      </trkpt>
      <trkpt lat="28.75352" lon="-13.89349">
        <ele>7.2</ele>
        <time>2021-07-04 12:35:17</time>
      </trkpt>
      <trkpt lat="28.75349" lon="-13.89351">
        <ele>7.2</ele>
        <time>2021-07-04 12:35:18</time>
      </trkpt>
      <trkpt lat="28.75346" lon="-13.89352">
        <ele>7.2</ele>
        <time>2021-07-04 12:35:19</time>
      </trkpt>
      <trkpt lat="28.75343" lon="-13.89353">
        <ele>7</ele>
        <time>2021-07-04 12:35:20</time>
      </trkpt>
      <trkpt lat="28.75339" lon="-13.89354">
        <ele>7</ele>
        <time>2021-07-04 12:35:21</time>
      </trkpt>
      <trkpt lat="28.75336" lon="-13.89355">
        <ele>7</ele>
        <time>2021-07-04 12:35:22</time>
      </trkpt>
      <trkpt lat="28.75332" lon="-13.89355">
        <ele>7</ele>
        <time>2021-07-04 12:35:23</time>
      </trkpt>
      <trkpt lat="28.75328" lon="-13.89355">
        <ele>7</ele>
        <time>2021-07-04 12:35:24</time>
      </trkpt>
      <trkpt lat="28.75324" lon="-13.89355">
        <ele>7</ele>
        <time>2021-07-04 12:35:25</time>
      </trkpt>
      <trkpt lat="28.7532" lon="-13.89356">
        <ele>6.6</ele>
        <time>2021-07-04 12:35:26</time>
      </trkpt>
      <trkpt lat="28.75316" lon="-13.89356">
        <ele>6.6</ele>
        <time>2021-07-04 12:35:27</time>
      </trkpt>
      <trkpt lat="28.75313" lon="-13.89357">
        <ele>6.6</ele>
        <time>2021-07-04 12:35:28</time>
      </trkpt>
      <trkpt lat="28.75309" lon="-13.89359">
        <ele>6.4</ele>
        <time>2021-07-04 12:35:29</time>
      </trkpt>
      <trkpt lat="28.75306" lon="-13.89361">
        <ele>6.4</ele>
        <time>2021-07-04 12:35:30</time>
      </trkpt>
      <trkpt lat="28.75303" lon="-13.89365">
        <ele>6.4</ele>
        <time>2021-07-04 12:35:31</time>
      </trkpt>
      <trkpt lat="28.753" lon="-13.89369">
        <ele>6.2</ele>
        <time>2021-07-04 12:35:32</time>
      </trkpt>
      <trkpt lat="28.75298" lon="-13.89374">
        <ele>6.2</ele>
        <time>2021-07-04 12:35:33</time>
      </trkpt>
      <trkpt lat="28.75296" lon="-13.8938">
        <ele>6</ele>
        <time>2021-07-04 12:35:34</time>
      </trkpt>
      <trkpt lat="28.75293" lon="-13.89385">
        <ele>6</ele>
        <time>2021-07-04 12:35:35</time>
      </trkpt>
      <trkpt lat="28.7529" lon="-13.89391">
        <ele>6</ele>
        <time>2021-07-04 12:35:36</time>
      </trkpt>
      <trkpt lat="28.75287" lon="-13.89397">
        <ele>5.8</ele>
        <time>2021-07-04 12:35:37</time>
      </trkpt>
      <trkpt lat="28.75283" lon="-13.89402">
        <ele>5.6</ele>
        <time>2021-07-04 12:35:38</time>
      </trkpt>
      <trkpt lat="28.75279" lon="-13.89407">
        <ele>5.4</ele>
        <time>2021-07-04 12:35:39</time>
      </trkpt>
      <trkpt lat="28.75275" lon="-13.89412">
        <ele>5</ele>
        <time>2021-07-04 12:35:40</time>
      </trkpt>
      <trkpt lat="28.7527" lon="-13.89416">
        <ele>4.8</ele>
        <time>2021-07-04 12:35:41</time>
      </trkpt>
      <trkpt lat="28.75265" lon="-13.89422">
        <ele>4.4</ele>
        <time>2021-07-04 12:35:42</time>
      </trkpt>
      <trkpt lat="28.75261" lon="-13.89428">
        <ele>4.2</ele>
        <time>2021-07-04 12:35:43</time>
      </trkpt>
      <trkpt lat="28.75257" lon="-13.89435">
        <ele>4.2</ele>
        <time>2021-07-04 12:35:44</time>
      </trkpt>
      <trkpt lat="28.75254" lon="-13.89442">
        <ele>3.6</ele>
        <time>2021-07-04 12:35:45</time>
      </trkpt>
      <trkpt lat="28.75251" lon="-13.8945">
        <ele>3.6</ele>
        <time>2021-07-04 12:35:46</time>
      </trkpt>
      <trkpt lat="28.75247" lon="-13.89457">
        <ele>3.6</ele>
        <time>2021-07-04 12:35:47</time>
      </trkpt>
      <trkpt lat="28.75244" lon="-13.89464">
        <ele>3.4</ele>
        <time>2021-07-04 12:35:48</time>
      </trkpt>
      <trkpt lat="28.7524" lon="-13.8947">
        <ele>3.2</ele>
        <time>2021-07-04 12:35:49</time>
      </trkpt>
      <trkpt lat="28.75236" lon="-13.89477">
        <ele>3.2</ele>
        <time>2021-07-04 12:35:50</time>
      </trkpt>
      <trkpt lat="28.75233" lon="-13.89484">
        <ele>3</ele>
        <time>2021-07-04 12:35:51</time>
      </trkpt>
      <trkpt lat="28.7523" lon="-13.89491">
        <ele>3</ele>
        <time>2021-07-04 12:35:52</time>
      </trkpt>
      <trkpt lat="28.75227" lon="-13.89498">
        <ele>2.6</ele>
        <time>2021-07-04 12:35:53</time>
      </trkpt>
      <trkpt lat="28.75224" lon="-13.89504">
        <ele>2.6</ele>
        <time>2021-07-04 12:35:54</time>
      </trkpt>
      <trkpt lat="28.7522" lon="-13.8951">
        <ele>2.2</ele>
        <time>2021-07-04 12:35:55</time>
      </trkpt>
      <trkpt lat="28.75217" lon="-13.89516">
        <ele>2</ele>
        <time>2021-07-04 12:35:56</time>
      </trkpt>
      <trkpt lat="28.75214" lon="-13.89522">
        <ele>1.8</ele>
        <time>2021-07-04 12:35:57</time>
      </trkpt>
      <trkpt lat="28.7521" lon="-13.89527">
        <ele>1.6</ele>
        <time>2021-07-04 12:35:58</time>
      </trkpt>
      <trkpt lat="28.75207" lon="-13.89533">
        <ele>1.2</ele>
        <time>2021-07-04 12:35:59</time>
      </trkpt>
      <trkpt lat="28.75204" lon="-13.89538">
        <ele>1</ele>
        <time>2021-07-04 12:36:00</time>
      </trkpt>
      <trkpt lat="28.75202" lon="-13.89545">
        <ele>0.8</ele>
        <time>2021-07-04 12:36:01</time>
      </trkpt>
      <trkpt lat="28.752" lon="-13.8955">
        <ele>0.8</ele>
        <time>2021-07-04 12:36:02</time>
      </trkpt>
      <trkpt lat="28.75198" lon="-13.89556">
        <ele>0.4</ele>
        <time>2021-07-04 12:36:03</time>
      </trkpt>
      <trkpt lat="28.75195" lon="-13.89561">
        <ele>0.4</ele>
        <time>2021-07-04 12:36:04</time>
      </trkpt>
      <trkpt lat="28.75192" lon="-13.89566">
        <ele>0.4</ele>
        <time>2021-07-04 12:36:05</time>
      </trkpt>
      <trkpt lat="28.75189" lon="-13.89571">
        <ele>0.2</ele>
        <time>2021-07-04 12:36:06</time>
      </trkpt>
      <trkpt lat="28.75186" lon="-13.89576">
        <ele>0.2</ele>
        <time>2021-07-04 12:36:07</time>
      </trkpt>
      <trkpt lat="28.75184" lon="-13.89581">
        <ele>0.2</ele>
        <time>2021-07-04 12:36:08</time>
      </trkpt>
      <trkpt lat="28.75183" lon="-13.89585">
        <ele>0.2</ele>
        <time>2021-07-04 12:36:09</time>
      </trkpt>
      <trkpt lat="28.75182" lon="-13.8959">
        <ele>0.2</ele>
        <time>2021-07-04 12:36:10</time>
      </trkpt>
      <trkpt lat="28.75181" lon="-13.89594">
        <ele>0.2</ele>
        <time>2021-07-04 12:36:11</time>
      </trkpt>
      <trkpt lat="28.75182" lon="-13.89597">
        <ele>0.6</ele>
        <time>2021-07-04 12:36:12</time>
      </trkpt>
      <trkpt lat="28.75182" lon="-13.89601">
        <ele>1</ele>
        <time>2021-07-04 12:36:13</time>
      </trkpt>
      <trkpt lat="28.75183" lon="-13.89605">
        <ele>1.2</ele>
        <time>2021-07-04 12:36:14</time>
      </trkpt>
      <trkpt lat="28.75184" lon="-13.89608">
        <ele>1.8</ele>
        <time>2021-07-04 12:36:15</time>
      </trkpt>
      <trkpt lat="28.75186" lon="-13.89612">
        <ele>2.2</ele>
        <time>2021-07-04 12:36:16</time>
      </trkpt>
      <trkpt lat="28.75187" lon="-13.89617">
        <ele>2.8</ele>
        <time>2021-07-04 12:36:17</time>
      </trkpt>
      <trkpt lat="28.75188" lon="-13.89621">
        <ele>3.2</ele>
        <time>2021-07-04 12:36:18</time>
      </trkpt>
      <trkpt lat="28.75189" lon="-13.89625">
        <ele>3.4</ele>
        <time>2021-07-04 12:36:19</time>
      </trkpt>
      <trkpt lat="28.75189" lon="-13.89629">
        <ele>3.8</ele>
        <time>2021-07-04 12:36:20</time>
      </trkpt>
      <trkpt lat="28.75189" lon="-13.89634">
        <ele>4</ele>
        <time>2021-07-04 12:36:21</time>
      </trkpt>
      <trkpt lat="28.75189" lon="-13.89638">
        <ele>4</ele>
        <time>2021-07-04 12:36:22</time>
      </trkpt>
      <trkpt lat="28.75189" lon="-13.89643">
        <ele>4.2</ele>
        <time>2021-07-04 12:36:23</time>
      </trkpt>
      <trkpt lat="28.75188" lon="-13.89647">
        <ele>4.2</ele>
        <time>2021-07-04 12:36:24</time>
      </trkpt>
      <trkpt lat="28.75186" lon="-13.89651">
        <ele>4.2</ele>
        <time>2021-07-04 12:36:25</time>
      </trkpt>
      <trkpt lat="28.75185" lon="-13.89656">
        <ele>4.2</ele>
        <time>2021-07-04 12:36:26</time>
      </trkpt>
      <trkpt lat="28.75183" lon="-13.8966">
        <ele>3.8</ele>
        <time>2021-07-04 12:36:27</time>
      </trkpt>
      <trkpt lat="28.7518" lon="-13.89664">
        <ele>3.6</ele>
        <time>2021-07-04 12:36:28</time>
      </trkpt>
      <trkpt lat="28.75178" lon="-13.89669">
        <ele>3.4</ele>
        <time>2021-07-04 12:36:29</time>
      </trkpt>
      <trkpt lat="28.75176" lon="-13.89674">
        <ele>3.2</ele>
        <time>2021-07-04 12:36:30</time>
      </trkpt>
      <trkpt lat="28.75173" lon="-13.8968">
        <ele>3.2</ele>
        <time>2021-07-04 12:36:31</time>
      </trkpt>
      <trkpt lat="28.75171" lon="-13.89685">
        <ele>2.8</ele>
        <time>2021-07-04 12:36:32</time>
      </trkpt>
      <trkpt lat="28.75168" lon="-13.8969">
        <ele>2.4</ele>
        <time>2021-07-04 12:36:33</time>
      </trkpt>
      <trkpt lat="28.75167" lon="-13.89696">
        <ele>2.4</ele>
        <time>2021-07-04 12:36:34</time>
      </trkpt>
      <trkpt lat="28.75165" lon="-13.897">
        <ele>2</ele>
        <time>2021-07-04 12:36:35</time>
      </trkpt>
      <trkpt lat="28.75165" lon="-13.89705">
        <ele>2</ele>
        <time>2021-07-04 12:36:36</time>
      </trkpt>
      <trkpt lat="28.75164" lon="-13.8971">
        <ele>2</ele>
        <time>2021-07-04 12:36:37</time>
      </trkpt>
      <trkpt lat="28.75163" lon="-13.89715">
        <ele>2</ele>
        <time>2021-07-04 12:36:38</time>
      </trkpt>
      <trkpt lat="28.75163" lon="-13.89719">
        <ele>2</ele>
        <time>2021-07-04 12:36:39</time>
      </trkpt>
      <trkpt lat="28.75164" lon="-13.89724">
        <ele>2.4</ele>
        <time>2021-07-04 12:36:40</time>
      </trkpt>
      <trkpt lat="28.75164" lon="-13.89728">
        <ele>2.4</ele>
        <time>2021-07-04 12:36:41</time>
      </trkpt>
      <trkpt lat="28.75165" lon="-13.89733">
        <ele>2.6</ele>
        <time>2021-07-04 12:36:42</time>
      </trkpt>
      <trkpt lat="28.75167" lon="-13.89737">
        <ele>2.6</ele>
        <time>2021-07-04 12:36:43</time>
      </trkpt>
      <trkpt lat="28.75168" lon="-13.89742">
        <ele>2.8</ele>
        <time>2021-07-04 12:36:44</time>
      </trkpt>
      <trkpt lat="28.7517" lon="-13.89746">
        <ele>2.8</ele>
        <time>2021-07-04 12:36:45</time>
      </trkpt>
      <trkpt lat="28.75172" lon="-13.8975">
        <ele>3.2</ele>
        <time>2021-07-04 12:36:46</time>
      </trkpt>
      <trkpt lat="28.75173" lon="-13.89755">
        <ele>3.2</ele>
        <time>2021-07-04 12:36:47</time>
      </trkpt>
      <trkpt lat="28.75174" lon="-13.8976">
        <ele>3.4</ele>
        <time>2021-07-04 12:36:48</time>
      </trkpt>
      <trkpt lat="28.75173" lon="-13.89766">
        <ele>3.4</ele>
        <time>2021-07-04 12:36:49</time>
      </trkpt>
      <trkpt lat="28.75174" lon="-13.89771">
        <ele>3.4</ele>
        <time>2021-07-04 12:36:50</time>
      </trkpt>
      <trkpt lat="28.75174" lon="-13.89776">
        <ele>3.4</ele>
        <time>2021-07-04 12:36:51</time>
      </trkpt>
      <trkpt lat="28.75173" lon="-13.89781">
        <ele>3.4</ele>
        <time>2021-07-04 12:36:52</time>
      </trkpt>
      <trkpt lat="28.75172" lon="-13.89786">
        <ele>3.4</ele>
        <time>2021-07-04 12:36:53</time>
      </trkpt>
      <trkpt lat="28.75172" lon="-13.89791">
        <ele>3.2</ele>
        <time>2021-07-04 12:36:54</time>
      </trkpt>
      <trkpt lat="28.75171" lon="-13.89796">
        <ele>3</ele>
        <time>2021-07-04 12:36:55</time>
      </trkpt>
      <trkpt lat="28.75171" lon="-13.89801">
        <ele>3</ele>
        <time>2021-07-04 12:36:56</time>
      </trkpt>
      <trkpt lat="28.75171" lon="-13.89807">
        <ele>2.6</ele>
        <time>2021-07-04 12:36:57</time>
      </trkpt>
      <trkpt lat="28.75172" lon="-13.89812">
        <ele>2.6</ele>
        <time>2021-07-04 12:36:58</time>
      </trkpt>
      <trkpt lat="28.75173" lon="-13.89817">
        <ele>2.6</ele>
        <time>2021-07-04 12:36:59</time>
      </trkpt>
      <trkpt lat="28.75175" lon="-13.89821">
        <ele>2.6</ele>
        <time>2021-07-04 12:37:00</time>
      </trkpt>
      <trkpt lat="28.75176" lon="-13.89826">
        <ele>2.4</ele>
        <time>2021-07-04 12:37:01</time>
      </trkpt>
      <trkpt lat="28.75178" lon="-13.8983">
        <ele>2.4</ele>
        <time>2021-07-04 12:37:02</time>
      </trkpt>
      <trkpt lat="28.75179" lon="-13.89835">
        <ele>2.4</ele>
        <time>2021-07-04 12:37:03</time>
      </trkpt>
      <trkpt lat="28.75181" lon="-13.89839">
        <ele>2.4</ele>
        <time>2021-07-04 12:37:04</time>
      </trkpt>
      <trkpt lat="28.75181" lon="-13.89844">
        <ele>2.4</ele>
        <time>2021-07-04 12:37:05</time>
      </trkpt>
      <trkpt lat="28.75182" lon="-13.89849">
        <ele>2.4</ele>
        <time>2021-07-04 12:37:06</time>
      </trkpt>
      <trkpt lat="28.75182" lon="-13.89854">
        <ele>2.4</ele>
        <time>2021-07-04 12:37:07</time>
      </trkpt>
      <trkpt lat="28.75182" lon="-13.8986">
        <ele>2.4</ele>
        <time>2021-07-04 12:37:08</time>
      </trkpt>
      <trkpt lat="28.75183" lon="-13.89866">
        <ele>2.4</ele>
        <time>2021-07-04 12:37:09</time>
      </trkpt>
      <trkpt lat="28.75183" lon="-13.89872">
        <ele>2</ele>
        <time>2021-07-04 12:37:10</time>
      </trkpt>
      <trkpt lat="28.75184" lon="-13.89878">
        <ele>2</ele>
        <time>2021-07-04 12:37:11</time>
      </trkpt>
      <trkpt lat="28.75185" lon="-13.89883">
        <ele>1.8</ele>
        <time>2021-07-04 12:37:12</time>
      </trkpt>
      <trkpt lat="28.75186" lon="-13.89888">
        <ele>1.8</ele>
        <time>2021-07-04 12:37:13</time>
      </trkpt>
      <trkpt lat="28.75187" lon="-13.89893">
        <ele>1.8</ele>
        <time>2021-07-04 12:37:14</time>
      </trkpt>
      <trkpt lat="28.75189" lon="-13.89898">
        <ele>1.8</ele>
        <time>2021-07-04 12:37:15</time>
      </trkpt>
      <trkpt lat="28.7519" lon="-13.89903">
        <ele>1.8</ele>
        <time>2021-07-04 12:37:16</time>
      </trkpt>
      <trkpt lat="28.75191" lon="-13.89908">
        <ele>2</ele>
        <time>2021-07-04 12:37:17</time>
      </trkpt>
      <trkpt lat="28.75192" lon="-13.89913">
        <ele>2</ele>
        <time>2021-07-04 12:37:18</time>
      </trkpt>
      <trkpt lat="28.75193" lon="-13.89918">
        <ele>2</ele>
        <time>2021-07-04 12:37:19</time>
      </trkpt>
      <trkpt lat="28.75194" lon="-13.89922">
        <ele>2</ele>
        <time>2021-07-04 12:37:20</time>
      </trkpt>
      <trkpt lat="28.75195" lon="-13.89927">
        <ele>1.6</ele>
        <time>2021-07-04 12:37:21</time>
      </trkpt>
      <trkpt lat="28.75196" lon="-13.89932">
        <ele>1.6</ele>
        <time>2021-07-04 12:37:22</time>
      </trkpt>
      <trkpt lat="28.75197" lon="-13.89937">
        <ele>1.6</ele>
        <time>2021-07-04 12:37:23</time>
      </trkpt>
      <trkpt lat="28.75198" lon="-13.89941">
        <ele>1.6</ele>
        <time>2021-07-04 12:37:24</time>
      </trkpt>
      <trkpt lat="28.75198" lon="-13.89946">
        <ele>1.6</ele>
        <time>2021-07-04 12:37:25</time>
      </trkpt>
      <trkpt lat="28.75199" lon="-13.89951">
        <ele>1.6</ele>
        <time>2021-07-04 12:37:26</time>
      </trkpt>
      <trkpt lat="28.752" lon="-13.89955">
        <ele>1.6</ele>
        <time>2021-07-04 12:37:27</time>
      </trkpt>
      <trkpt lat="28.75201" lon="-13.89959">
        <ele>1.6</ele>
        <time>2021-07-04 12:37:28</time>
      </trkpt>
      <trkpt lat="28.75201" lon="-13.89964">
        <ele>1.6</ele>
        <time>2021-07-04 12:37:29</time>
      </trkpt>
      <trkpt lat="28.75201" lon="-13.89968">
        <ele>2</ele>
        <time>2021-07-04 12:37:30</time>
      </trkpt>
      <trkpt lat="28.752" lon="-13.89973">
        <ele>2</ele>
        <time>2021-07-04 12:37:31</time>
      </trkpt>
      <trkpt lat="28.75199" lon="-13.89977">
        <ele>2.2</ele>
        <time>2021-07-04 12:37:32</time>
      </trkpt>
      <trkpt lat="28.75199" lon="-13.89982">
        <ele>2.2</ele>
        <time>2021-07-04 12:37:33</time>
      </trkpt>
      <trkpt lat="28.75198" lon="-13.89986">
        <ele>2.2</ele>
        <time>2021-07-04 12:37:34</time>
      </trkpt>
      <trkpt lat="28.75196" lon="-13.8999">
        <ele>2.2</ele>
        <time>2021-07-04 12:37:35</time>
      </trkpt>
      <trkpt lat="28.75195" lon="-13.89995">
        <ele>2.2</ele>
        <time>2021-07-04 12:37:36</time>
      </trkpt>
      <trkpt lat="28.75194" lon="-13.89999">
        <ele>2</ele>
        <time>2021-07-04 12:37:37</time>
      </trkpt>
      <trkpt lat="28.75192" lon="-13.90003">
        <ele>2</ele>
        <time>2021-07-04 12:37:38</time>
      </trkpt>
      <trkpt lat="28.75191" lon="-13.90008">
        <ele>1.8</ele>
        <time>2021-07-04 12:37:39</time>
      </trkpt>
      <trkpt lat="28.75189" lon="-13.90012">
        <ele>1.8</ele>
        <time>2021-07-04 12:37:40</time>
      </trkpt>
      <trkpt lat="28.75187" lon="-13.90017">
        <ele>1.4</ele>
        <time>2021-07-04 12:37:41</time>
      </trkpt>
      <trkpt lat="28.75184" lon="-13.90021">
        <ele>1.4</ele>
        <time>2021-07-04 12:37:42</time>
      </trkpt>
      <trkpt lat="28.75182" lon="-13.90026">
        <ele>1.2</ele>
        <time>2021-07-04 12:37:43</time>
      </trkpt>
      <trkpt lat="28.7518" lon="-13.90031">
        <ele>1.2</ele>
        <time>2021-07-04 12:37:44</time>
      </trkpt>
      <trkpt lat="28.75178" lon="-13.90036">
        <ele>1.2</ele>
        <time>2021-07-04 12:37:45</time>
      </trkpt>
      <trkpt lat="28.75176" lon="-13.9004">
        <ele>1</ele>
        <time>2021-07-04 12:37:46</time>
      </trkpt>
      <trkpt lat="28.75173" lon="-13.90045">
        <ele>0.6</ele>
        <time>2021-07-04 12:37:47</time>
      </trkpt>
      <trkpt lat="28.7517" lon="-13.90049">
        <ele>0.6</ele>
        <time>2021-07-04 12:37:48</time>
      </trkpt>
      <trkpt lat="28.75167" lon="-13.90054">
        <ele>0.4</ele>
        <time>2021-07-04 12:37:49</time>
      </trkpt>
      <trkpt lat="28.75164" lon="-13.90059">
        <ele>0.4</ele>
        <time>2021-07-04 12:37:50</time>
      </trkpt>
      <trkpt lat="28.7516" lon="-13.90064">
        <time>2021-07-04 12:37:51</time>
      </trkpt>
      <trkpt lat="28.75157" lon="-13.90068">
        <time>2021-07-04 12:37:52</time>
      </trkpt>
      <trkpt lat="28.75155" lon="-13.90073">
        <time>2021-07-04 12:37:53</time>
      </trkpt>
      <trkpt lat="28.75152" lon="-13.90078">
        <time>2021-07-04 12:37:54</time>
      </trkpt>
      <trkpt lat="28.75151" lon="-13.90083">
        <ele>-0.2</ele>
        <time>2021-07-04 12:37:55</time>
      </trkpt>
      <trkpt lat="28.75148" lon="-13.90087">
        <ele>-0.2</ele>
        <time>2021-07-04 12:37:56</time>
      </trkpt>
      <trkpt lat="28.75146" lon="-13.90091">
        <ele>-0.2</ele>
        <time>2021-07-04 12:37:57</time>
      </trkpt>
      <trkpt lat="28.75143" lon="-13.90096">
        <ele>-0.2</ele>
        <time>2021-07-04 12:37:58</time>
      </trkpt>
      <trkpt lat="28.7514" lon="-13.901">
        <ele>-0.4</ele>
        <time>2021-07-04 12:37:59</time>
      </trkpt>
      <trkpt lat="28.75137" lon="-13.90105">
        <ele>-0.4</ele>
        <time>2021-07-04 12:38:00</time>
      </trkpt>
      <trkpt lat="28.75134" lon="-13.90109">
        <ele>-0.4</ele>
        <time>2021-07-04 12:38:01</time>
      </trkpt>
      <trkpt lat="28.75131" lon="-13.90114">
        <ele>-0.4</ele>
        <time>2021-07-04 12:38:02</time>
      </trkpt>
      <trkpt lat="28.75128" lon="-13.90118">
        <ele>-0.4</ele>
        <time>2021-07-04 12:38:03</time>
      </trkpt>
      <trkpt lat="28.75125" lon="-13.90123">
        <ele>-0.4</ele>
        <time>2021-07-04 12:38:04</time>
      </trkpt>
      <trkpt lat="28.75121" lon="-13.90128">
        <ele>-0.8</ele>
        <time>2021-07-04 12:38:05</time>
      </trkpt>
      <trkpt lat="28.75118" lon="-13.90133">
        <ele>-0.8</ele>
        <time>2021-07-04 12:38:06</time>
      </trkpt>
      <trkpt lat="28.75115" lon="-13.90139">
        <ele>-0.8</ele>
        <time>2021-07-04 12:38:07</time>
      </trkpt>
      <trkpt lat="28.75113" lon="-13.90143">
        <ele>-0.8</ele>
        <time>2021-07-04 12:38:08</time>
      </trkpt>
      <trkpt lat="28.7511" lon="-13.90148">
        <ele>-0.8</ele>
        <time>2021-07-04 12:38:09</time>
      </trkpt>
      <trkpt lat="28.75108" lon="-13.90152">
        <ele>-0.8</ele>
        <time>2021-07-04 12:38:10</time>
      </trkpt>
      <trkpt lat="28.75105" lon="-13.90156">
        <ele>-0.4</ele>
        <time>2021-07-04 12:38:11</time>
      </trkpt>
      <trkpt lat="28.75104" lon="-13.90161">
        <ele>-0.4</ele>
        <time>2021-07-04 12:38:12</time>
      </trkpt>
      <trkpt lat="28.75101" lon="-13.90164">
        <ele>-0.4</ele>
        <time>2021-07-04 12:38:13</time>
      </trkpt>
      <trkpt lat="28.75099" lon="-13.90167">
        <ele>-0.4</ele>
        <time>2021-07-04 12:38:14</time>
      </trkpt>
      <trkpt lat="28.75095" lon="-13.9017">
        <ele>-0.4</ele>
        <time>2021-07-04 12:38:15</time>
      </trkpt>
      <trkpt lat="28.75092" lon="-13.90174">
        <ele>-0.4</ele>
        <time>2021-07-04 12:38:16</time>
      </trkpt>
      <trkpt lat="28.75088" lon="-13.90178">
        <ele>-0.4</ele>
        <time>2021-07-04 12:38:17</time>
      </trkpt>
      <trkpt lat="28.75084" lon="-13.90182">
        <ele>-0.4</ele>
        <time>2021-07-04 12:38:18</time>
      </trkpt>
      <trkpt lat="28.7508" lon="-13.90186">
        <ele>-0.8</ele>
        <time>2021-07-04 12:38:19</time>
      </trkpt>
      <trkpt lat="28.75074" lon="-13.90189">
        <ele>-1</ele>
        <time>2021-07-04 12:38:20</time>
      </trkpt>
      <trkpt lat="28.75069" lon="-13.90193">
        <ele>-1.2</ele>
        <time>2021-07-04 12:38:21</time>
      </trkpt>
      <trkpt lat="28.75064" lon="-13.90196">
        <ele>-1.4</ele>
        <time>2021-07-04 12:38:22</time>
      </trkpt>
      <trkpt lat="28.75059" lon="-13.902">
        <ele>-1.8</ele>
        <time>2021-07-04 12:38:23</time>
      </trkpt>
      <trkpt lat="28.75054" lon="-13.90204">
        <ele>-1.8</ele>
        <time>2021-07-04 12:38:24</time>
      </trkpt>
      <trkpt lat="28.75049" lon="-13.90208">
        <ele>-1.8</ele>
        <time>2021-07-04 12:38:25</time>
      </trkpt>
      <trkpt lat="28.75044" lon="-13.90211">
        <ele>-1.8</ele>
        <time>2021-07-04 12:38:26</time>
      </trkpt>
      <trkpt lat="28.75039" lon="-13.90215">
        <ele>-1.8</ele>
        <time>2021-07-04 12:38:27</time>
      </trkpt>
      <trkpt lat="28.75034" lon="-13.90218">
        <ele>-1.8</ele>
        <time>2021-07-04 12:38:28</time>
      </trkpt>
      <trkpt lat="28.75029" lon="-13.90221">
        <ele>-1.8</ele>
        <time>2021-07-04 12:38:29</time>
      </trkpt>
      <trkpt lat="28.75025" lon="-13.90223">
        <ele>-1.8</ele>
        <time>2021-07-04 12:38:30</time>
      </trkpt>
      <trkpt lat="28.7502" lon="-13.90227">
        <ele>-1.8</ele>
        <time>2021-07-04 12:38:31</time>
      </trkpt>
      <trkpt lat="28.75015" lon="-13.9023">
        <ele>-1.8</ele>
        <time>2021-07-04 12:38:32</time>
      </trkpt>
      <trkpt lat="28.7501" lon="-13.90233">
        <ele>-1.8</ele>
        <time>2021-07-04 12:38:33</time>
      </trkpt>
      <trkpt lat="28.75006" lon="-13.90237">
        <ele>-1.8</ele>
        <time>2021-07-04 12:38:34</time>
      </trkpt>
      <trkpt lat="28.75001" lon="-13.9024">
        <ele>-1.4</ele>
        <time>2021-07-04 12:38:35</time>
      </trkpt>
      <trkpt lat="28.74997" lon="-13.90244">
        <ele>-1.4</ele>
        <time>2021-07-04 12:38:36</time>
      </trkpt>
      <trkpt lat="28.74992" lon="-13.90247">
        <ele>-1.4</ele>
        <time>2021-07-04 12:38:37</time>
      </trkpt>
      <trkpt lat="28.74987" lon="-13.90251">
        <ele>-1.2</ele>
        <time>2021-07-04 12:38:38</time>
      </trkpt>
      <trkpt lat="28.74983" lon="-13.90254">
        <ele>-1.2</ele>
        <time>2021-07-04 12:38:39</time>
      </trkpt>
      <trkpt lat="28.74978" lon="-13.90258">
        <ele>-1</ele>
        <time>2021-07-04 12:38:40</time>
      </trkpt>
      <trkpt lat="28.74973" lon="-13.90262">
        <ele>-1</ele>
        <time>2021-07-04 12:38:41</time>
      </trkpt>
      <trkpt lat="28.74968" lon="-13.90266">
        <ele>-1</ele>
        <time>2021-07-04 12:38:42</time>
      </trkpt>
      <trkpt lat="28.74963" lon="-13.90271">
        <ele>-1</ele>
        <time>2021-07-04 12:38:43</time>
      </trkpt>
      <trkpt lat="28.74958" lon="-13.90275">
        <ele>-1</ele>
        <time>2021-07-04 12:38:44</time>
      </trkpt>
      <trkpt lat="28.74954" lon="-13.90279">
        <ele>-1</ele>
        <time>2021-07-04 12:38:45</time>
      </trkpt>
      <trkpt lat="28.74949" lon="-13.90284">
        <ele>-1</ele>
        <time>2021-07-04 12:38:46</time>
      </trkpt>
      <trkpt lat="28.74945" lon="-13.90288">
        <ele>-1</ele>
        <time>2021-07-04 12:38:47</time>
      </trkpt>
      <trkpt lat="28.74942" lon="-13.90293">
        <ele>-1</ele>
        <time>2021-07-04 12:38:48</time>
      </trkpt>
      <trkpt lat="28.74937" lon="-13.90297">
        <ele>-1</ele>
        <time>2021-07-04 12:38:49</time>
      </trkpt>
      <trkpt lat="28.74933" lon="-13.90302">
        <ele>-1</ele>
        <time>2021-07-04 12:38:50</time>
      </trkpt>
      <trkpt lat="28.74928" lon="-13.90307">
        <ele>-0.8</ele>
        <time>2021-07-04 12:38:51</time>
      </trkpt>
      <trkpt lat="28.74924" lon="-13.90311">
        <ele>-0.8</ele>
        <time>2021-07-04 12:38:52</time>
      </trkpt>
      <trkpt lat="28.74919" lon="-13.90316">
        <ele>-0.8</ele>
        <time>2021-07-04 12:38:53</time>
      </trkpt>
      <trkpt lat="28.74915" lon="-13.9032">
        <ele>-0.6</ele>
        <time>2021-07-04 12:38:54</time>
      </trkpt>
      <trkpt lat="28.7491" lon="-13.90324">
        <ele>-0.6</ele>
        <time>2021-07-04 12:38:55</time>
      </trkpt>
      <trkpt lat="28.74906" lon="-13.90328">
        <ele>-0.2</ele>
        <time>2021-07-04 12:38:56</time>
      </trkpt>
      <trkpt lat="28.74901" lon="-13.90332">
        <ele>-0.2</ele>
        <time>2021-07-04 12:38:57</time>
      </trkpt>
      <trkpt lat="28.74897" lon="-13.90335">
        <ele>0.2</ele>
        <time>2021-07-04 12:38:58</time>
      </trkpt>
      <trkpt lat="28.74892" lon="-13.90338">
        <ele>0.4</ele>
        <time>2021-07-04 12:38:59</time>
      </trkpt>
      <trkpt lat="28.74888" lon="-13.90342">
        <ele>0.4</ele>
        <time>2021-07-04 12:39:00</time>
      </trkpt>
      <trkpt lat="28.74883" lon="-13.90346">
        <ele>0.4</ele>
        <time>2021-07-04 12:39:01</time>
      </trkpt>
      <trkpt lat="28.74878" lon="-13.9035">
        <ele>0.4</ele>
        <time>2021-07-04 12:39:02</time>
      </trkpt>
      <trkpt lat="28.74873" lon="-13.90355">
        <ele>0.4</ele>
        <time>2021-07-04 12:39:03</time>
      </trkpt>
      <trkpt lat="28.74869" lon="-13.9036">
        <ele>0.4</ele>
        <time>2021-07-04 12:39:04</time>
      </trkpt>
      <trkpt lat="28.74867" lon="-13.90365">
        <ele>0.4</ele>
        <time>2021-07-04 12:39:05</time>
      </trkpt>
      <trkpt lat="28.74864" lon="-13.90369">
        <ele>0.8</ele>
        <time>2021-07-04 12:39:06</time>
      </trkpt>
      <trkpt lat="28.74862" lon="-13.90373">
        <ele>1</ele>
        <time>2021-07-04 12:39:07</time>
      </trkpt>
      <trkpt lat="28.7486" lon="-13.90378">
        <ele>1.4</ele>
        <time>2021-07-04 12:39:08</time>
      </trkpt>
      <trkpt lat="28.74859" lon="-13.9038">
        <ele>1.8</ele>
        <time>2021-07-04 12:39:09</time>
      </trkpt>
      <trkpt lat="28.74858" lon="-13.90384">
        <ele>2.2</ele>
        <time>2021-07-04 12:39:10</time>
      </trkpt>
      <trkpt lat="28.74857" lon="-13.90389">
        <ele>2.6</ele>
        <time>2021-07-04 12:39:11</time>
      </trkpt>
      <trkpt lat="28.74856" lon="-13.90394">
        <ele>3</ele>
        <time>2021-07-04 12:39:12</time>
      </trkpt>
      <trkpt lat="28.74854" lon="-13.90399">
        <ele>3.2</ele>
        <time>2021-07-04 12:39:13</time>
      </trkpt>
      <trkpt lat="28.74852" lon="-13.90405">
        <ele>3.6</ele>
        <time>2021-07-04 12:39:14</time>
      </trkpt>
      <trkpt lat="28.74849" lon="-13.90409">
        <ele>3.6</ele>
        <time>2021-07-04 12:39:15</time>
      </trkpt>
      <trkpt lat="28.74846" lon="-13.90413">
        <ele>3.8</ele>
        <time>2021-07-04 12:39:16</time>
      </trkpt>
      <trkpt lat="28.74843" lon="-13.90417">
        <ele>3.8</ele>
        <time>2021-07-04 12:39:17</time>
      </trkpt>
      <trkpt lat="28.7484" lon="-13.90421">
        <ele>3.8</ele>
        <time>2021-07-04 12:39:18</time>
      </trkpt>
      <trkpt lat="28.74837" lon="-13.90426">
        <ele>3.8</ele>
        <time>2021-07-04 12:39:19</time>
      </trkpt>
      <trkpt lat="28.74833" lon="-13.90431">
        <ele>3.8</ele>
        <time>2021-07-04 12:39:20</time>
      </trkpt>
      <trkpt lat="28.7483" lon="-13.90435">
        <ele>3.6</ele>
        <time>2021-07-04 12:39:21</time>
      </trkpt>
      <trkpt lat="28.74827" lon="-13.9044">
        <ele>3.6</ele>
        <time>2021-07-04 12:39:22</time>
      </trkpt>
      <trkpt lat="28.74824" lon="-13.90446">
        <ele>3.6</ele>
        <time>2021-07-04 12:39:23</time>
      </trkpt>
      <trkpt lat="28.74822" lon="-13.90451">
        <ele>3.4</ele>
        <time>2021-07-04 12:39:24</time>
      </trkpt>
      <trkpt lat="28.74821" lon="-13.90456">
        <ele>3.4</ele>
        <time>2021-07-04 12:39:25</time>
      </trkpt>
      <trkpt lat="28.7482" lon="-13.9046">
        <ele>3.4</ele>
        <time>2021-07-04 12:39:26</time>
      </trkpt>
      <trkpt lat="28.7482" lon="-13.90466">
        <ele>3.4</ele>
        <time>2021-07-04 12:39:27</time>
      </trkpt>
      <trkpt lat="28.7482" lon="-13.90471">
        <ele>3.4</ele>
        <time>2021-07-04 12:39:28</time>
      </trkpt>
      <trkpt lat="28.7482" lon="-13.90477">
        <ele>3.8</ele>
        <time>2021-07-04 12:39:29</time>
      </trkpt>
      <trkpt lat="28.74821" lon="-13.90482">
        <ele>4</ele>
        <time>2021-07-04 12:39:30</time>
      </trkpt>
      <trkpt lat="28.74821" lon="-13.90487">
        <ele>4.2</ele>
        <time>2021-07-04 12:39:31</time>
      </trkpt>
      <trkpt lat="28.74822" lon="-13.90492">
        <ele>4.6</ele>
        <time>2021-07-04 12:39:32</time>
      </trkpt>
      <trkpt lat="28.74823" lon="-13.90497">
        <ele>4.8</ele>
        <time>2021-07-04 12:39:33</time>
      </trkpt>
      <trkpt lat="28.74822" lon="-13.90502">
        <ele>4.8</ele>
        <time>2021-07-04 12:39:34</time>
      </trkpt>
      <trkpt lat="28.74823" lon="-13.90507">
        <ele>4.8</ele>
        <time>2021-07-04 12:39:35</time>
      </trkpt>
      <trkpt lat="28.74823" lon="-13.90512">
        <ele>4.8</ele>
        <time>2021-07-04 12:39:36</time>
      </trkpt>
      <trkpt lat="28.74822" lon="-13.90517">
        <ele>4.8</ele>
        <time>2021-07-04 12:39:37</time>
      </trkpt>
      <trkpt lat="28.74821" lon="-13.90523">
        <ele>4.6</ele>
        <time>2021-07-04 12:39:38</time>
      </trkpt>
      <trkpt lat="28.7482" lon="-13.90528">
        <ele>4.4</ele>
        <time>2021-07-04 12:39:39</time>
      </trkpt>
      <trkpt lat="28.74818" lon="-13.90534">
        <ele>4</ele>
        <time>2021-07-04 12:39:40</time>
      </trkpt>
      <trkpt lat="28.74816" lon="-13.90539">
        <ele>3.8</ele>
        <time>2021-07-04 12:39:41</time>
      </trkpt>
      <trkpt lat="28.74815" lon="-13.90545">
        <ele>3.4</ele>
        <time>2021-07-04 12:39:42</time>
      </trkpt>
      <trkpt lat="28.74814" lon="-13.90551">
        <ele>3.4</ele>
        <time>2021-07-04 12:39:43</time>
      </trkpt>
      <trkpt lat="28.74812" lon="-13.90557">
        <ele>3.2</ele>
        <time>2021-07-04 12:39:44</time>
      </trkpt>
      <trkpt lat="28.74811" lon="-13.90563">
        <ele>3.2</ele>
        <time>2021-07-04 12:39:45</time>
      </trkpt>
      <trkpt lat="28.74809" lon="-13.90569">
        <ele>2.8</ele>
        <time>2021-07-04 12:39:46</time>
      </trkpt>
      <trkpt lat="28.74808" lon="-13.90575">
        <ele>2.8</ele>
        <time>2021-07-04 12:39:47</time>
      </trkpt>
      <trkpt lat="28.74806" lon="-13.90581">
        <ele>2.8</ele>
        <time>2021-07-04 12:39:48</time>
      </trkpt>
      <trkpt lat="28.74805" lon="-13.90587">
        <ele>2.8</ele>
        <time>2021-07-04 12:39:49</time>
      </trkpt>
      <trkpt lat="28.74803" lon="-13.90593">
        <ele>2.6</ele>
        <time>2021-07-04 12:39:50</time>
      </trkpt>
      <trkpt lat="28.74801" lon="-13.90599">
        <ele>2.6</ele>
        <time>2021-07-04 12:39:51</time>
      </trkpt>
      <trkpt lat="28.74799" lon="-13.90605">
        <ele>2.4</ele>
        <time>2021-07-04 12:39:52</time>
      </trkpt>
      <trkpt lat="28.74797" lon="-13.90611">
        <ele>2.4</ele>
        <time>2021-07-04 12:39:53</time>
      </trkpt>
      <trkpt lat="28.74794" lon="-13.90617">
        <ele>2</ele>
        <time>2021-07-04 12:39:54</time>
      </trkpt>
      <trkpt lat="28.74792" lon="-13.90623">
        <ele>2</ele>
        <time>2021-07-04 12:39:55</time>
      </trkpt>
      <trkpt lat="28.74789" lon="-13.90629">
        <ele>1.6</ele>
        <time>2021-07-04 12:39:56</time>
      </trkpt>
      <trkpt lat="28.74786" lon="-13.90635">
        <ele>1.6</ele>
        <time>2021-07-04 12:39:57</time>
      </trkpt>
      <trkpt lat="28.74784" lon="-13.90641">
        <ele>1.2</ele>
        <time>2021-07-04 12:39:58</time>
      </trkpt>
      <trkpt lat="28.74782" lon="-13.90647">
        <ele>1</ele>
        <time>2021-07-04 12:39:59</time>
      </trkpt>
      <trkpt lat="28.74779" lon="-13.90653">
        <ele>1</ele>
        <time>2021-07-04 12:40:00</time>
      </trkpt>
      <trkpt lat="28.74777" lon="-13.90659">
        <ele>0.8</ele>
        <time>2021-07-04 12:40:01</time>
      </trkpt>
      <trkpt lat="28.74775" lon="-13.90664">
        <ele>0.8</ele>
        <time>2021-07-04 12:40:02</time>
      </trkpt>
      <trkpt lat="28.74772" lon="-13.9067">
        <ele>0.4</ele>
        <time>2021-07-04 12:40:03</time>
      </trkpt>
      <trkpt lat="28.7477" lon="-13.90675">
        <ele>0.4</ele>
        <time>2021-07-04 12:40:04</time>
      </trkpt>
      <trkpt lat="28.74768" lon="-13.9068">
        <ele>0.4</ele>
        <time>2021-07-04 12:40:05</time>
      </trkpt>
      <trkpt lat="28.74766" lon="-13.90686">
        <ele>0.4</ele>
        <time>2021-07-04 12:40:06</time>
      </trkpt>
      <trkpt lat="28.74763" lon="-13.90691">
        <ele>0.2</ele>
        <time>2021-07-04 12:40:07</time>
      </trkpt>
      <trkpt lat="28.7476" lon="-13.90696">
        <ele>0.2</ele>
        <time>2021-07-04 12:40:08</time>
      </trkpt>
      <trkpt lat="28.74757" lon="-13.907">
        <time>2021-07-04 12:40:09</time>
      </trkpt>
      <trkpt lat="28.74756" lon="-13.90703">
        <ele>-0.4</ele>
        <time>2021-07-04 12:40:10</time>
      </trkpt>
      <trkpt lat="28.74755" lon="-13.90705">
        <ele>-0.6</ele>
        <time>2021-07-04 12:40:11</time>
      </trkpt>
      <trkpt lat="28.74754" lon="-13.90705">
        <ele>-1</ele>
        <time>2021-07-04 12:40:12</time>
      </trkpt>
      <trkpt lat="28.74754" lon="-13.90705">
        <ele>-1</ele>
        <time>2021-07-04 12:40:13</time>
      </trkpt>
      <trkpt lat="28.74754" lon="-13.90705">
        <ele>-1</ele>
        <time>2021-07-04 12:40:14</time>
      </trkpt>
      <trkpt lat="28.74753" lon="-13.90707">
        <ele>-3</ele>
        <time>2021-07-04 12:40:15</time>
      </trkpt>
      <trkpt lat="28.7475" lon="-13.9071">
        <ele>-3</ele>
        <time>2021-07-04 12:40:16</time>
      </trkpt>
      <trkpt lat="28.74747" lon="-13.90713">
        <ele>-3.4</ele>
        <time>2021-07-04 12:40:17</time>
      </trkpt>
      <trkpt lat="28.74744" lon="-13.90716">
        <ele>-3.6</ele>
        <time>2021-07-04 12:40:18</time>
      </trkpt>
      <trkpt lat="28.7474" lon="-13.90719">
        <ele>-3.8</ele>
        <time>2021-07-04 12:40:19</time>
      </trkpt>
      <trkpt lat="28.74736" lon="-13.90723">
        <ele>-4</ele>
        <time>2021-07-04 12:40:47</time>
      </trkpt>
      <trkpt lat="28.7473" lon="-13.90727">
        <ele>-4</ele>
        <time>2021-07-04 12:40:48</time>
      </trkpt>
      <trkpt lat="28.74725" lon="-13.90731">
        <ele>-4</ele>
        <time>2021-07-04 12:40:49</time>
      </trkpt>
      <trkpt lat="28.7472" lon="-13.90735">
        <ele>-4.4</ele>
        <time>2021-07-04 12:40:50</time>
      </trkpt>
      <trkpt lat="28.74714" lon="-13.9074">
        <ele>-4.4</ele>
        <time>2021-07-04 12:40:51</time>
      </trkpt>
      <trkpt lat="28.74709" lon="-13.90743">
        <ele>-4.4</ele>
        <time>2021-07-04 12:40:52</time>
      </trkpt>
      <trkpt lat="28.74703" lon="-13.90746">
        <ele>-4.4</ele>
        <time>2021-07-04 12:40:53</time>
      </trkpt>
      <trkpt lat="28.74697" lon="-13.90748">
        <ele>-4.4</ele>
        <time>2021-07-04 12:40:54</time>
      </trkpt>
      <trkpt lat="28.74691" lon="-13.9075">
        <ele>-4.4</ele>
        <time>2021-07-04 12:40:55</time>
      </trkpt>
      <trkpt lat="28.74685" lon="-13.90751">
        <ele>-4.4</ele>
        <time>2021-07-04 12:40:56</time>
      </trkpt>
      <trkpt lat="28.74678" lon="-13.90751">
        <ele>-4.6</ele>
        <time>2021-07-04 12:40:57</time>
      </trkpt>
      <trkpt lat="28.74671" lon="-13.90751">
        <ele>-4.6</ele>
        <time>2021-07-04 12:40:58</time>
      </trkpt>
      <trkpt lat="28.74665" lon="-13.90751">
        <ele>-4.8</ele>
        <time>2021-07-04 12:40:59</time>
      </trkpt>
      <trkpt lat="28.74658" lon="-13.90752">
        <ele>-4.8</ele>
        <time>2021-07-04 12:41:00</time>
      </trkpt>
      <trkpt lat="28.74651" lon="-13.90753">
        <ele>-5.2</ele>
        <time>2021-07-04 12:41:01</time>
      </trkpt>
      <trkpt lat="28.74644" lon="-13.90754">
        <ele>-5.4</ele>
        <time>2021-07-04 12:41:02</time>
      </trkpt>
      <trkpt lat="28.74637" lon="-13.90756">
        <ele>-5.4</ele>
        <time>2021-07-04 12:41:03</time>
      </trkpt>
      <trkpt lat="28.7463" lon="-13.90758">
        <ele>-5.6</ele>
        <time>2021-07-04 12:41:04</time>
      </trkpt>
      <trkpt lat="28.74622" lon="-13.90759">
        <ele>-5.6</ele>
        <time>2021-07-04 12:41:05</time>
      </trkpt>
      <trkpt lat="28.74615" lon="-13.90762">
        <ele>-5.6</ele>
        <time>2021-07-04 12:41:06</time>
      </trkpt>
      <trkpt lat="28.74608" lon="-13.90764">
        <ele>-5.8</ele>
        <time>2021-07-04 12:41:07</time>
      </trkpt>
      <trkpt lat="28.74601" lon="-13.90766">
        <ele>-5.8</ele>
        <time>2021-07-04 12:41:08</time>
      </trkpt>
      <trkpt lat="28.74595" lon="-13.90768">
        <ele>-5.8</ele>
        <time>2021-07-04 12:41:09</time>
      </trkpt>
      <trkpt lat="28.74588" lon="-13.9077">
        <ele>-6.2</ele>
        <time>2021-07-04 12:41:10</time>
      </trkpt>
      <trkpt lat="28.74581" lon="-13.90772">
        <ele>-6.2</ele>
        <time>2021-07-04 12:41:11</time>
      </trkpt>
      <trkpt lat="28.74575" lon="-13.90776">
        <ele>-6.2</ele>
        <time>2021-07-04 12:41:12</time>
      </trkpt>
      <trkpt lat="28.74569" lon="-13.90779">
        <ele>-6.2</ele>
        <time>2021-07-04 12:41:13</time>
      </trkpt>
      <trkpt lat="28.74563" lon="-13.90784">
        <ele>-6.2</ele>
        <time>2021-07-04 12:41:14</time>
      </trkpt>
      <trkpt lat="28.74557" lon="-13.90789">
        <ele>-6.2</ele>
        <time>2021-07-04 12:41:15</time>
      </trkpt>
      <trkpt lat="28.74552" lon="-13.90794">
        <ele>-6.2</ele>
        <time>2021-07-04 12:41:16</time>
      </trkpt>
      <trkpt lat="28.74548" lon="-13.908">
        <ele>-6.4</ele>
        <time>2021-07-04 12:41:17</time>
      </trkpt>
      <trkpt lat="28.74544" lon="-13.90807">
        <ele>-6.4</ele>
        <time>2021-07-04 12:41:18</time>
      </trkpt>
      <trkpt lat="28.74541" lon="-13.90814">
        <ele>-6.4</ele>
        <time>2021-07-04 12:41:19</time>
      </trkpt>
      <trkpt lat="28.74539" lon="-13.9082">
        <ele>-6.4</ele>
        <time>2021-07-04 12:41:20</time>
      </trkpt>
      <trkpt lat="28.74537" lon="-13.90826">
        <ele>-6</ele>
        <time>2021-07-04 12:41:21</time>
      </trkpt>
      <trkpt lat="28.74536" lon="-13.90833">
        <ele>-5.8</ele>
        <time>2021-07-04 12:41:22</time>
      </trkpt>
      <trkpt lat="28.74534" lon="-13.90839">
        <ele>-5.4</ele>
        <time>2021-07-04 12:41:23</time>
      </trkpt>
      <trkpt lat="28.74533" lon="-13.90846">
        <ele>-5.2</ele>
        <time>2021-07-04 12:41:24</time>
      </trkpt>
      <trkpt lat="28.74531" lon="-13.90852">
        <ele>-4.8</ele>
        <time>2021-07-04 12:41:25</time>
      </trkpt>
      <trkpt lat="28.74529" lon="-13.90859">
        <ele>-4.8</ele>
        <time>2021-07-04 12:41:26</time>
      </trkpt>
      <trkpt lat="28.74528" lon="-13.90866">
        <ele>-4.6</ele>
        <time>2021-07-04 12:41:27</time>
      </trkpt>
      <trkpt lat="28.74527" lon="-13.90873">
        <ele>-4.4</ele>
        <time>2021-07-04 12:41:28</time>
      </trkpt>
      <trkpt lat="28.74525" lon="-13.9088">
        <ele>-4</ele>
        <time>2021-07-04 12:41:29</time>
      </trkpt>
      <trkpt lat="28.74524" lon="-13.90887">
        <ele>-3.6</ele>
        <time>2021-07-04 12:41:30</time>
      </trkpt>
      <trkpt lat="28.74523" lon="-13.90894">
        <ele>-3.6</ele>
        <time>2021-07-04 12:41:31</time>
      </trkpt>
      <trkpt lat="28.74521" lon="-13.90901">
        <ele>-3.2</ele>
        <time>2021-07-04 12:41:32</time>
      </trkpt>
      <trkpt lat="28.74519" lon="-13.90907">
        <ele>-3</ele>
        <time>2021-07-04 12:41:33</time>
      </trkpt>
      <trkpt lat="28.74519" lon="-13.90914">
        <ele>-3</ele>
        <time>2021-07-04 12:41:34</time>
      </trkpt>
      <trkpt lat="28.74518" lon="-13.9092">
        <ele>-2.6</ele>
        <time>2021-07-04 12:41:35</time>
      </trkpt>
      <trkpt lat="28.74516" lon="-13.90927">
        <ele>-2.4</ele>
        <time>2021-07-04 12:41:36</time>
      </trkpt>
      <trkpt lat="28.74515" lon="-13.90933">
        <ele>-2.2</ele>
        <time>2021-07-04 12:41:37</time>
      </trkpt>
      <trkpt lat="28.74514" lon="-13.90939">
        <ele>-2.2</ele>
        <time>2021-07-04 12:41:38</time>
      </trkpt>
      <trkpt lat="28.74513" lon="-13.90946">
        <ele>-1.8</ele>
        <time>2021-07-04 12:41:39</time>
      </trkpt>
      <trkpt lat="28.74512" lon="-13.90952">
        <ele>-1.8</ele>
        <time>2021-07-04 12:41:40</time>
      </trkpt>
      <trkpt lat="28.7451" lon="-13.90959">
        <ele>-1.8</ele>
        <time>2021-07-04 12:41:41</time>
      </trkpt>
      <trkpt lat="28.74509" lon="-13.90965">
        <ele>-1.8</ele>
        <time>2021-07-04 12:41:42</time>
      </trkpt>
      <trkpt lat="28.74508" lon="-13.90971">
        <ele>-1.8</ele>
        <time>2021-07-04 12:41:43</time>
      </trkpt>
      <trkpt lat="28.74506" lon="-13.90977">
        <ele>-1.8</ele>
        <time>2021-07-04 12:41:44</time>
      </trkpt>
      <trkpt lat="28.74505" lon="-13.90983">
        <ele>-1.8</ele>
        <time>2021-07-04 12:41:45</time>
      </trkpt>
      <trkpt lat="28.74504" lon="-13.90988">
        <ele>-1.8</ele>
        <time>2021-07-04 12:41:46</time>
      </trkpt>
      <trkpt lat="28.74503" lon="-13.90992">
        <ele>-1.8</ele>
        <time>2021-07-04 12:41:47</time>
      </trkpt>
      <trkpt lat="28.74502" lon="-13.90995">
        <ele>-1.8</ele>
        <time>2021-07-04 12:41:48</time>
      </trkpt>
      <trkpt lat="28.74502" lon="-13.90999">
        <ele>-1.8</ele>
        <time>2021-07-04 12:41:49</time>
      </trkpt>
      <trkpt lat="28.74501" lon="-13.91002">
        <ele>-1.8</ele>
        <time>2021-07-04 12:41:50</time>
      </trkpt>
      <trkpt lat="28.745" lon="-13.91006">
        <ele>-1.6</ele>
        <time>2021-07-04 12:41:51</time>
      </trkpt>
      <trkpt lat="28.74497" lon="-13.9101">
        <ele>-1.6</ele>
        <time>2021-07-04 12:41:52</time>
      </trkpt>
      <trkpt lat="28.74497" lon="-13.91014">
        <ele>-1.6</ele>
        <time>2021-07-04 12:41:53</time>
      </trkpt>
      <trkpt lat="28.74496" lon="-13.91019">
        <ele>-1.6</ele>
        <time>2021-07-04 12:41:54</time>
      </trkpt>
      <trkpt lat="28.74494" lon="-13.91023">
        <ele>-1.6</ele>
        <time>2021-07-04 12:41:55</time>
      </trkpt>
      <trkpt lat="28.74494" lon="-13.91028">
        <ele>-1.6</ele>
        <time>2021-07-04 12:41:56</time>
      </trkpt>
      <trkpt lat="28.74492" lon="-13.91034">
        <ele>-1.6</ele>
        <time>2021-07-04 12:41:57</time>
      </trkpt>
      <trkpt lat="28.74492" lon="-13.91039">
        <ele>-1.6</ele>
        <time>2021-07-04 12:41:58</time>
      </trkpt>
      <trkpt lat="28.74491" lon="-13.91044">
        <ele>-1.4</ele>
        <time>2021-07-04 12:41:59</time>
      </trkpt>
      <trkpt lat="28.74489" lon="-13.91048">
        <ele>-1.4</ele>
        <time>2021-07-04 12:42:00</time>
      </trkpt>
      <trkpt lat="28.74488" lon="-13.91053">
        <ele>-1.4</ele>
        <time>2021-07-04 12:42:01</time>
      </trkpt>
      <trkpt lat="28.74487" lon="-13.91059">
        <ele>-1.4</ele>
        <time>2021-07-04 12:42:02</time>
      </trkpt>
      <trkpt lat="28.74486" lon="-13.91064">
        <ele>-1.4</ele>
        <time>2021-07-04 12:42:03</time>
      </trkpt>
      <trkpt lat="28.74485" lon="-13.91069">
        <ele>-1.4</ele>
        <time>2021-07-04 12:42:04</time>
      </trkpt>
      <trkpt lat="28.74485" lon="-13.91075">
        <ele>-1.6</ele>
        <time>2021-07-04 12:42:05</time>
      </trkpt>
      <trkpt lat="28.74484" lon="-13.91081">
        <ele>-1.6</ele>
        <time>2021-07-04 12:42:06</time>
      </trkpt>
      <trkpt lat="28.74483" lon="-13.91087">
        <ele>-1.6</ele>
        <time>2021-07-04 12:42:07</time>
      </trkpt>
      <trkpt lat="28.74483" lon="-13.91093">
        <ele>-1.6</ele>
        <time>2021-07-04 12:42:08</time>
      </trkpt>
      <trkpt lat="28.74483" lon="-13.911">
        <ele>-1.6</ele>
        <time>2021-07-04 12:42:09</time>
      </trkpt>
      <trkpt lat="28.74482" lon="-13.91106">
        <ele>-1.4</ele>
        <time>2021-07-04 12:42:10</time>
      </trkpt>
      <trkpt lat="28.74481" lon="-13.91113">
        <ele>-1.4</ele>
        <time>2021-07-04 12:42:11</time>
      </trkpt>
      <trkpt lat="28.7448" lon="-13.91119">
        <ele>-1.4</ele>
        <time>2021-07-04 12:42:12</time>
      </trkpt>
      <trkpt lat="28.7448" lon="-13.91126">
        <ele>-1.2</ele>
        <time>2021-07-04 12:42:13</time>
      </trkpt>
      <trkpt lat="28.74479" lon="-13.91132">
        <ele>-1.2</ele>
        <time>2021-07-04 12:42:14</time>
      </trkpt>
      <trkpt lat="28.74479" lon="-13.91138">
        <ele>-1.2</ele>
        <time>2021-07-04 12:42:15</time>
      </trkpt>
      <trkpt lat="28.74478" lon="-13.91144">
        <ele>-1.2</ele>
        <time>2021-07-04 12:42:16</time>
      </trkpt>
      <trkpt lat="28.74478" lon="-13.9115">
        <ele>-1.2</ele>
        <time>2021-07-04 12:42:17</time>
      </trkpt>
      <trkpt lat="28.74478" lon="-13.91156">
        <ele>-1.2</ele>
        <time>2021-07-04 12:42:18</time>
      </trkpt>
      <trkpt lat="28.74477" lon="-13.91162">
        <ele>-1.2</ele>
        <time>2021-07-04 12:42:19</time>
      </trkpt>
      <trkpt lat="28.74477" lon="-13.91168">
        <ele>-1</ele>
        <time>2021-07-04 12:42:20</time>
      </trkpt>
      <trkpt lat="28.74477" lon="-13.91174">
        <ele>-1</ele>
        <time>2021-07-04 12:42:21</time>
      </trkpt>
      <trkpt lat="28.74477" lon="-13.9118">
        <ele>-0.8</ele>
        <time>2021-07-04 12:42:22</time>
      </trkpt>
      <trkpt lat="28.74476" lon="-13.91186">
        <ele>-0.8</ele>
        <time>2021-07-04 12:42:23</time>
      </trkpt>
      <trkpt lat="28.74476" lon="-13.91191">
        <ele>-0.8</ele>
        <time>2021-07-04 12:42:24</time>
      </trkpt>
      <trkpt lat="28.74475" lon="-13.91197">
        <ele>-0.8</ele>
        <time>2021-07-04 12:42:25</time>
      </trkpt>
      <trkpt lat="28.74475" lon="-13.91203">
        <ele>-0.8</ele>
        <time>2021-07-04 12:42:26</time>
      </trkpt>
      <trkpt lat="28.74475" lon="-13.91209">
        <ele>-0.8</ele>
        <time>2021-07-04 12:42:27</time>
      </trkpt>
      <trkpt lat="28.74474" lon="-13.91216">
        <ele>-0.8</ele>
        <time>2021-07-04 12:42:28</time>
      </trkpt>
      <trkpt lat="28.74474" lon="-13.91222">
        <ele>-0.8</ele>
        <time>2021-07-04 12:42:29</time>
      </trkpt>
      <trkpt lat="28.74474" lon="-13.91228">
        <ele>-0.8</ele>
        <time>2021-07-04 12:42:30</time>
      </trkpt>
      <trkpt lat="28.74474" lon="-13.91234">
        <ele>-0.8</ele>
        <time>2021-07-04 12:42:31</time>
      </trkpt>
      <trkpt lat="28.74473" lon="-13.9124">
        <ele>-0.8</ele>
        <time>2021-07-04 12:42:32</time>
      </trkpt>
      <trkpt lat="28.74473" lon="-13.91246">
        <ele>-0.8</ele>
        <time>2021-07-04 12:42:33</time>
      </trkpt>
      <trkpt lat="28.74472" lon="-13.91253">
        <ele>-0.8</ele>
        <time>2021-07-04 12:42:34</time>
      </trkpt>
      <trkpt lat="28.74472" lon="-13.91259">
        <ele>-0.8</ele>
        <time>2021-07-04 12:42:35</time>
      </trkpt>
      <trkpt lat="28.74472" lon="-13.91265">
        <ele>-0.8</ele>
        <time>2021-07-04 12:42:36</time>
      </trkpt>
      <trkpt lat="28.74472" lon="-13.91271">
        <ele>-0.8</ele>
        <time>2021-07-04 12:42:37</time>
      </trkpt>
      <trkpt lat="28.74472" lon="-13.91277">
        <ele>-0.8</ele>
        <time>2021-07-04 12:42:38</time>
      </trkpt>
      <trkpt lat="28.74471" lon="-13.91284">
        <ele>-0.8</ele>
        <time>2021-07-04 12:42:39</time>
      </trkpt>
      <trkpt lat="28.7447" lon="-13.9129">
        <ele>-0.8</ele>
        <time>2021-07-04 12:42:40</time>
      </trkpt>
      <trkpt lat="28.74469" lon="-13.91295">
        <ele>-0.8</ele>
        <time>2021-07-04 12:42:41</time>
      </trkpt>
      <trkpt lat="28.74469" lon="-13.91301">
        <ele>-0.8</ele>
        <time>2021-07-04 12:42:42</time>
      </trkpt>
      <trkpt lat="28.74467" lon="-13.91306">
        <ele>-0.8</ele>
        <time>2021-07-04 12:42:43</time>
      </trkpt>
      <trkpt lat="28.74466" lon="-13.91311">
        <ele>-1</ele>
        <time>2021-07-04 12:42:44</time>
      </trkpt>
      <trkpt lat="28.74465" lon="-13.91317">
        <ele>-1</ele>
        <time>2021-07-04 12:42:45</time>
      </trkpt>
      <trkpt lat="28.74464" lon="-13.91322">
        <ele>-1</ele>
        <time>2021-07-04 12:42:46</time>
      </trkpt>
      <trkpt lat="28.74462" lon="-13.91328">
        <ele>-1.2</ele>
        <time>2021-07-04 12:42:47</time>
      </trkpt>
      <trkpt lat="28.7446" lon="-13.91334">
        <ele>-1.2</ele>
        <time>2021-07-04 12:42:48</time>
      </trkpt>
      <trkpt lat="28.74457" lon="-13.91339">
        <ele>-1.6</ele>
        <time>2021-07-04 12:42:49</time>
      </trkpt>
      <trkpt lat="28.74454" lon="-13.91345">
        <ele>-1.8</ele>
        <time>2021-07-04 12:42:50</time>
      </trkpt>
      <trkpt lat="28.74452" lon="-13.9135">
        <ele>-2</ele>
        <time>2021-07-04 12:42:51</time>
      </trkpt>
      <trkpt lat="28.74449" lon="-13.91356">
        <ele>-2.2</ele>
        <time>2021-07-04 12:42:52</time>
      </trkpt>
      <trkpt lat="28.74445" lon="-13.91362">
        <ele>-2.6</ele>
        <time>2021-07-04 12:42:53</time>
      </trkpt>
      <trkpt lat="28.74443" lon="-13.91369">
        <ele>-2.8</ele>
        <time>2021-07-04 12:42:54</time>
      </trkpt>
      <trkpt lat="28.74439" lon="-13.91375">
        <ele>-3</ele>
        <time>2021-07-04 12:42:55</time>
      </trkpt>
      <trkpt lat="28.74436" lon="-13.9138">
        <ele>-3</ele>
        <time>2021-07-04 12:42:56</time>
      </trkpt>
      <trkpt lat="28.74434" lon="-13.91386">
        <ele>-3.2</ele>
        <time>2021-07-04 12:42:57</time>
      </trkpt>
      <trkpt lat="28.74431" lon="-13.91392">
        <ele>-3.2</ele>
        <time>2021-07-04 12:42:58</time>
      </trkpt>
      <trkpt lat="28.74429" lon="-13.91398">
        <ele>-3.2</ele>
        <time>2021-07-04 12:42:59</time>
      </trkpt>
      <trkpt lat="28.74426" lon="-13.91404">
        <ele>-3.2</ele>
        <time>2021-07-04 12:43:00</time>
      </trkpt>
      <trkpt lat="28.74422" lon="-13.9141">
        <ele>-3.2</ele>
        <time>2021-07-04 12:43:01</time>
      </trkpt>
      <trkpt lat="28.74419" lon="-13.91416">
        <ele>-3.2</ele>
        <time>2021-07-04 12:43:02</time>
      </trkpt>
      <trkpt lat="28.74415" lon="-13.91422">
        <ele>-3.2</ele>
        <time>2021-07-04 12:43:03</time>
      </trkpt>
      <trkpt lat="28.74412" lon="-13.91429">
        <ele>-3.2</ele>
        <time>2021-07-04 12:43:04</time>
      </trkpt>
      <trkpt lat="28.74408" lon="-13.91435">
        <ele>-3.4</ele>
        <time>2021-07-04 12:43:05</time>
      </trkpt>
      <trkpt lat="28.74404" lon="-13.91442">
        <ele>-3.4</ele>
        <time>2021-07-04 12:43:06</time>
      </trkpt>
      <trkpt lat="28.744" lon="-13.91448">
        <ele>-3.4</ele>
        <time>2021-07-04 12:43:07</time>
      </trkpt>
      <trkpt lat="28.74396" lon="-13.91455">
        <ele>-3.8</ele>
        <time>2021-07-04 12:43:08</time>
      </trkpt>
      <trkpt lat="28.74393" lon="-13.91462">
        <ele>-3.8</ele>
        <time>2021-07-04 12:43:09</time>
      </trkpt>
      <trkpt lat="28.7439" lon="-13.91468">
        <ele>-3.8</ele>
        <time>2021-07-04 12:43:10</time>
      </trkpt>
      <trkpt lat="28.74387" lon="-13.91475">
        <ele>-3.8</ele>
        <time>2021-07-04 12:43:11</time>
      </trkpt>
      <trkpt lat="28.74384" lon="-13.91483">
        <ele>-4</ele>
        <time>2021-07-04 12:43:12</time>
      </trkpt>
      <trkpt lat="28.74383" lon="-13.9149">
        <ele>-4</ele>
        <time>2021-07-04 12:43:13</time>
      </trkpt>
      <trkpt lat="28.74381" lon="-13.91498">
        <ele>-4</ele>
        <time>2021-07-04 12:43:14</time>
      </trkpt>
      <trkpt lat="28.74379" lon="-13.91506">
        <ele>-4</ele>
        <time>2021-07-04 12:43:15</time>
      </trkpt>
      <trkpt lat="28.74378" lon="-13.91514">
        <ele>-4.2</ele>
        <time>2021-07-04 12:43:16</time>
      </trkpt>
      <trkpt lat="28.74378" lon="-13.91522">
        <ele>-4.2</ele>
        <time>2021-07-04 12:43:17</time>
      </trkpt>
      <trkpt lat="28.74377" lon="-13.91529">
        <ele>-4.2</ele>
        <time>2021-07-04 12:43:18</time>
      </trkpt>
      <trkpt lat="28.74376" lon="-13.91536">
        <ele>-3.8</ele>
        <time>2021-07-04 12:43:19</time>
      </trkpt>
      <trkpt lat="28.74376" lon="-13.91544">
        <ele>-3.6</ele>
        <time>2021-07-04 12:43:20</time>
      </trkpt>
      <trkpt lat="28.74375" lon="-13.91551">
        <ele>-3.6</ele>
        <time>2021-07-04 12:43:21</time>
      </trkpt>
      <trkpt lat="28.74374" lon="-13.91558">
        <ele>-3.4</ele>
        <time>2021-07-04 12:43:22</time>
      </trkpt>
      <trkpt lat="28.74373" lon="-13.91564">
        <ele>-3.6</ele>
        <time>2021-07-04 12:43:23</time>
      </trkpt>
      <trkpt lat="28.74373" lon="-13.9157">
        <ele>-3.6</ele>
        <time>2021-07-04 12:43:24</time>
      </trkpt>
      <trkpt lat="28.74373" lon="-13.91576">
        <ele>-3.6</ele>
        <time>2021-07-04 12:43:25</time>
      </trkpt>
      <trkpt lat="28.74373" lon="-13.91581">
        <ele>-3</ele>
        <time>2021-07-04 12:43:26</time>
      </trkpt>
      <trkpt lat="28.74372" lon="-13.91586">
        <ele>-2.8</ele>
        <time>2021-07-04 12:43:27</time>
      </trkpt>
      <trkpt lat="28.74372" lon="-13.91592">
        <ele>-2.6</ele>
        <time>2021-07-04 12:43:28</time>
      </trkpt>
      <trkpt lat="28.74372" lon="-13.91596">
        <ele>-2.6</ele>
        <time>2021-07-04 12:43:29</time>
      </trkpt>
      <trkpt lat="28.74372" lon="-13.91601">
        <ele>-2.2</ele>
        <time>2021-07-04 12:43:30</time>
      </trkpt>
      <trkpt lat="28.74372" lon="-13.91605">
        <ele>-1.8</ele>
        <time>2021-07-04 12:43:31</time>
      </trkpt>
      <trkpt lat="28.74372" lon="-13.91608">
        <ele>-1.4</ele>
        <time>2021-07-04 12:43:32</time>
      </trkpt>
      <trkpt lat="28.74371" lon="-13.9161">
        <ele>-1.2</ele>
        <time>2021-07-04 12:43:33</time>
      </trkpt>
      <trkpt lat="28.74372" lon="-13.91613">
        <ele>-0.8</ele>
        <time>2021-07-04 12:43:34</time>
      </trkpt>
      <trkpt lat="28.74371" lon="-13.91616">
        <ele>-0.6</ele>
        <time>2021-07-04 12:43:35</time>
      </trkpt>
      <trkpt lat="28.74371" lon="-13.91619">
        <ele>-0.2</ele>
        <time>2021-07-04 12:43:36</time>
      </trkpt>
      <trkpt lat="28.7437" lon="-13.91621">
        <time>2021-07-04 12:43:37</time>
      </trkpt>
      <trkpt lat="28.7437" lon="-13.91624">
        <ele>0.4</ele>
        <time>2021-07-04 12:43:38</time>
      </trkpt>
      <trkpt lat="28.74369" lon="-13.91627">
        <ele>0.6</ele>
        <time>2021-07-04 12:43:39</time>
      </trkpt>
      <trkpt lat="28.74369" lon="-13.9163">
        <ele>0.6</ele>
        <time>2021-07-04 12:43:40</time>
      </trkpt>
      <trkpt lat="28.74369" lon="-13.91633">
        <ele>1</ele>
        <time>2021-07-04 12:43:41</time>
      </trkpt>
      <trkpt lat="28.74368" lon="-13.91636">
        <ele>1.2</ele>
        <time>2021-07-04 12:43:42</time>
      </trkpt>
      <trkpt lat="28.74369" lon="-13.91639">
        <ele>1.6</ele>
        <time>2021-07-04 12:43:43</time>
      </trkpt>
      <trkpt lat="28.74369" lon="-13.91642">
        <ele>1.8</ele>
        <time>2021-07-04 12:43:44</time>
      </trkpt>
      <trkpt lat="28.74369" lon="-13.91646">
        <ele>2.2</ele>
        <time>2021-07-04 12:43:45</time>
      </trkpt>
      <trkpt lat="28.74368" lon="-13.91649">
        <ele>2.2</ele>
        <time>2021-07-04 12:43:46</time>
      </trkpt>
      <trkpt lat="28.74368" lon="-13.91653">
        <ele>2.4</ele>
        <time>2021-07-04 12:43:47</time>
      </trkpt>
      <trkpt lat="28.74367" lon="-13.91656">
        <ele>2.4</ele>
        <time>2021-07-04 12:43:48</time>
      </trkpt>
      <trkpt lat="28.74366" lon="-13.9166">
        <ele>2.4</ele>
        <time>2021-07-04 12:43:49</time>
      </trkpt>
      <trkpt lat="28.74366" lon="-13.91664">
        <ele>2.4</ele>
        <time>2021-07-04 12:43:50</time>
      </trkpt>
      <trkpt lat="28.74365" lon="-13.91668">
        <ele>2.4</ele>
        <time>2021-07-04 12:43:51</time>
      </trkpt>
      <trkpt lat="28.74364" lon="-13.91672">
        <ele>2.4</ele>
        <time>2021-07-04 12:43:52</time>
      </trkpt>
      <trkpt lat="28.74364" lon="-13.91676">
        <ele>2.4</ele>
        <time>2021-07-04 12:43:53</time>
      </trkpt>
      <trkpt lat="28.74363" lon="-13.9168">
        <ele>2.4</ele>
        <time>2021-07-04 12:43:54</time>
      </trkpt>
      <trkpt lat="28.74362" lon="-13.91684">
        <ele>2.2</ele>
        <time>2021-07-04 12:43:55</time>
      </trkpt>
      <trkpt lat="28.74362" lon="-13.91687">
        <ele>2.2</ele>
        <time>2021-07-04 12:43:56</time>
      </trkpt>
      <trkpt lat="28.74361" lon="-13.9169">
        <ele>2.2</ele>
        <time>2021-07-04 12:43:57</time>
      </trkpt>
      <trkpt lat="28.74361" lon="-13.91694">
        <ele>2.2</ele>
        <time>2021-07-04 12:43:58</time>
      </trkpt>
      <trkpt lat="28.74361" lon="-13.91698">
        <ele>2.2</ele>
        <time>2021-07-04 12:43:59</time>
      </trkpt>
      <trkpt lat="28.74361" lon="-13.91702">
        <ele>2.2</ele>
        <time>2021-07-04 12:44:00</time>
      </trkpt>
      <trkpt lat="28.7436" lon="-13.91705">
        <ele>2.2</ele>
        <time>2021-07-04 12:44:01</time>
      </trkpt>
      <trkpt lat="28.7436" lon="-13.91709">
        <ele>2.2</ele>
        <time>2021-07-04 12:44:02</time>
      </trkpt>
      <trkpt lat="28.74361" lon="-13.91713">
        <ele>2.4</ele>
        <time>2021-07-04 12:44:03</time>
      </trkpt>
      <trkpt lat="28.74361" lon="-13.91716">
        <ele>2.4</ele>
        <time>2021-07-04 12:44:04</time>
      </trkpt>
      <trkpt lat="28.74362" lon="-13.9172">
        <ele>2.8</ele>
        <time>2021-07-04 12:44:05</time>
      </trkpt>
      <trkpt lat="28.74362" lon="-13.91723">
        <ele>2.8</ele>
        <time>2021-07-04 12:44:06</time>
      </trkpt>
      <trkpt lat="28.74362" lon="-13.91727">
        <ele>3.2</ele>
        <time>2021-07-04 12:44:07</time>
      </trkpt>
      <trkpt lat="28.74362" lon="-13.91731">
        <ele>3.2</ele>
        <time>2021-07-04 12:44:08</time>
      </trkpt>
      <trkpt lat="28.74362" lon="-13.91735">
        <ele>3.4</ele>
        <time>2021-07-04 12:44:09</time>
      </trkpt>
      <trkpt lat="28.74362" lon="-13.91739">
        <ele>3.4</ele>
        <time>2021-07-04 12:44:10</time>
      </trkpt>
      <trkpt lat="28.74362" lon="-13.91743">
        <ele>3.8</ele>
        <time>2021-07-04 12:44:11</time>
      </trkpt>
      <trkpt lat="28.74362" lon="-13.91746">
        <ele>3.8</ele>
        <time>2021-07-04 12:44:12</time>
      </trkpt>
      <trkpt lat="28.74362" lon="-13.91749">
        <ele>3.8</ele>
        <time>2021-07-04 12:44:13</time>
      </trkpt>
      <trkpt lat="28.74362" lon="-13.91753">
        <ele>4</ele>
        <time>2021-07-04 12:44:14</time>
      </trkpt>
      <trkpt lat="28.74362" lon="-13.91756">
        <ele>4</ele>
        <time>2021-07-04 12:44:15</time>
      </trkpt>
      <trkpt lat="28.74362" lon="-13.9176">
        <ele>4.4</ele>
        <time>2021-07-04 12:44:16</time>
      </trkpt>
      <trkpt lat="28.74361" lon="-13.91763">
        <ele>4.4</ele>
        <time>2021-07-04 12:44:17</time>
      </trkpt>
      <trkpt lat="28.74361" lon="-13.91766">
        <ele>4.4</ele>
        <time>2021-07-04 12:44:18</time>
      </trkpt>
      <trkpt lat="28.7436" lon="-13.9177">
        <ele>4.6</ele>
        <time>2021-07-04 12:44:19</time>
      </trkpt>
      <trkpt lat="28.74358" lon="-13.91774">
        <ele>4.6</ele>
        <time>2021-07-04 12:44:20</time>
      </trkpt>
      <trkpt lat="28.74357" lon="-13.91778">
        <ele>4.6</ele>
        <time>2021-07-04 12:44:21</time>
      </trkpt>
      <trkpt lat="28.74355" lon="-13.91781">
        <ele>4.6</ele>
        <time>2021-07-04 12:44:22</time>
      </trkpt>
      <trkpt lat="28.74353" lon="-13.91785">
        <ele>4.6</ele>
        <time>2021-07-04 12:44:23</time>
      </trkpt>
      <trkpt lat="28.74351" lon="-13.91789">
        <ele>4.2</ele>
        <time>2021-07-04 12:44:24</time>
      </trkpt>
      <trkpt lat="28.74348" lon="-13.91793">
        <ele>4.2</ele>
        <time>2021-07-04 12:44:25</time>
      </trkpt>
      <trkpt lat="28.74346" lon="-13.91797">
        <ele>4.2</ele>
        <time>2021-07-04 12:44:26</time>
      </trkpt>
      <trkpt lat="28.74343" lon="-13.91801">
        <ele>4.2</ele>
        <time>2021-07-04 12:44:27</time>
      </trkpt>
      <trkpt lat="28.7434" lon="-13.91804">
        <ele>4</ele>
        <time>2021-07-04 12:44:28</time>
      </trkpt>
      <trkpt lat="28.74337" lon="-13.91807">
        <ele>4</ele>
        <time>2021-07-04 12:44:29</time>
      </trkpt>
      <trkpt lat="28.74334" lon="-13.9181">
        <ele>3.6</ele>
        <time>2021-07-04 12:44:30</time>
      </trkpt>
      <trkpt lat="28.74331" lon="-13.91814">
        <ele>3.6</ele>
        <time>2021-07-04 12:44:31</time>
      </trkpt>
      <trkpt lat="28.74328" lon="-13.91818">
        <ele>3.6</ele>
        <time>2021-07-04 12:44:32</time>
      </trkpt>
      <trkpt lat="28.74325" lon="-13.91821">
        <ele>3.6</ele>
        <time>2021-07-04 12:44:33</time>
      </trkpt>
      <trkpt lat="28.74322" lon="-13.91825">
        <ele>3.2</ele>
        <time>2021-07-04 12:44:34</time>
      </trkpt>
      <trkpt lat="28.74319" lon="-13.91829">
        <ele>3.2</ele>
        <time>2021-07-04 12:44:35</time>
      </trkpt>
      <trkpt lat="28.74316" lon="-13.91833">
        <ele>3</ele>
        <time>2021-07-04 12:44:36</time>
      </trkpt>
      <trkpt lat="28.74313" lon="-13.91837">
        <ele>3</ele>
        <time>2021-07-04 12:44:37</time>
      </trkpt>
      <trkpt lat="28.74311" lon="-13.91842">
        <ele>3</ele>
        <time>2021-07-04 12:44:38</time>
      </trkpt>
      <trkpt lat="28.74309" lon="-13.91846">
        <ele>3</ele>
        <time>2021-07-04 12:44:39</time>
      </trkpt>
      <trkpt lat="28.74308" lon="-13.91851">
        <ele>3</ele>
        <time>2021-07-04 12:44:40</time>
      </trkpt>
      <trkpt lat="28.74306" lon="-13.91855">
        <ele>3</ele>
        <time>2021-07-04 12:44:41</time>
      </trkpt>
      <trkpt lat="28.74305" lon="-13.9186">
        <ele>3.2</ele>
        <time>2021-07-04 12:44:42</time>
      </trkpt>
      <trkpt lat="28.74304" lon="-13.91865">
        <ele>3.2</ele>
        <time>2021-07-04 12:44:43</time>
      </trkpt>
      <trkpt lat="28.74302" lon="-13.9187">
        <ele>3.2</ele>
        <time>2021-07-04 12:44:44</time>
      </trkpt>
      <trkpt lat="28.74301" lon="-13.91874">
        <ele>3.6</ele>
        <time>2021-07-04 12:44:45</time>
      </trkpt>
      <trkpt lat="28.743" lon="-13.91879">
        <ele>4</ele>
        <time>2021-07-04 12:44:46</time>
      </trkpt>
      <trkpt lat="28.74299" lon="-13.91884">
        <ele>4.2</ele>
        <time>2021-07-04 12:44:47</time>
      </trkpt>
      <trkpt lat="28.74299" lon="-13.91889">
        <ele>4.2</ele>
        <time>2021-07-04 12:44:48</time>
      </trkpt>
      <trkpt lat="28.74299" lon="-13.91894">
        <ele>4.6</ele>
        <time>2021-07-04 12:44:49</time>
      </trkpt>
      <trkpt lat="28.74298" lon="-13.919">
        <ele>4.6</ele>
        <time>2021-07-04 12:44:50</time>
      </trkpt>
      <trkpt lat="28.74298" lon="-13.91905">
        <ele>5</ele>
        <time>2021-07-04 12:44:51</time>
      </trkpt>
      <trkpt lat="28.74298" lon="-13.9191">
        <ele>5</ele>
        <time>2021-07-04 12:44:52</time>
      </trkpt>
      <trkpt lat="28.74299" lon="-13.91915">
        <ele>5.2</ele>
        <time>2021-07-04 12:44:53</time>
      </trkpt>
      <trkpt lat="28.743" lon="-13.91921">
        <ele>5.2</ele>
        <time>2021-07-04 12:44:54</time>
      </trkpt>
      <trkpt lat="28.74301" lon="-13.91925">
        <ele>5.4</ele>
        <time>2021-07-04 12:44:55</time>
      </trkpt>
      <trkpt lat="28.74302" lon="-13.91931">
        <ele>5.4</ele>
        <time>2021-07-04 12:44:56</time>
      </trkpt>
      <trkpt lat="28.74303" lon="-13.91935">
        <ele>5.8</ele>
        <time>2021-07-04 12:44:57</time>
      </trkpt>
      <trkpt lat="28.74303" lon="-13.91941">
        <ele>5.8</ele>
        <time>2021-07-04 12:44:58</time>
      </trkpt>
      <trkpt lat="28.74303" lon="-13.91946">
        <ele>6.2</ele>
        <time>2021-07-04 12:44:59</time>
      </trkpt>
      <trkpt lat="28.74303" lon="-13.91951">
        <ele>6.2</ele>
        <time>2021-07-04 12:45:00</time>
      </trkpt>
      <trkpt lat="28.74303" lon="-13.91957">
        <ele>6.4</ele>
        <time>2021-07-04 12:45:01</time>
      </trkpt>
      <trkpt lat="28.74303" lon="-13.91962">
        <ele>6.4</ele>
        <time>2021-07-04 12:45:02</time>
      </trkpt>
      <trkpt lat="28.74302" lon="-13.91967">
        <ele>6.4</ele>
        <time>2021-07-04 12:45:03</time>
      </trkpt>
      <trkpt lat="28.743" lon="-13.91973">
        <ele>6.4</ele>
        <time>2021-07-04 12:45:04</time>
      </trkpt>
      <trkpt lat="28.74299" lon="-13.91978">
        <ele>6.4</ele>
        <time>2021-07-04 12:45:05</time>
      </trkpt>
      <trkpt lat="28.74297" lon="-13.91983">
        <ele>6.4</ele>
        <time>2021-07-04 12:45:06</time>
      </trkpt>
      <trkpt lat="28.74296" lon="-13.91988">
        <ele>6.4</ele>
        <time>2021-07-04 12:45:07</time>
      </trkpt>
      <trkpt lat="28.74294" lon="-13.91993">
        <ele>6</ele>
        <time>2021-07-04 12:45:08</time>
      </trkpt>
      <trkpt lat="28.74292" lon="-13.91998">
        <ele>6</ele>
        <time>2021-07-04 12:45:09</time>
      </trkpt>
      <trkpt lat="28.74289" lon="-13.92003">
        <ele>5.8</ele>
        <time>2021-07-04 12:45:10</time>
      </trkpt>
      <trkpt lat="28.74287" lon="-13.92009">
        <ele>5.8</ele>
        <time>2021-07-04 12:45:11</time>
      </trkpt>
      <trkpt lat="28.74284" lon="-13.92014">
        <ele>5.4</ele>
        <time>2021-07-04 12:45:12</time>
      </trkpt>
      <trkpt lat="28.74281" lon="-13.92019">
        <ele>5.4</ele>
        <time>2021-07-04 12:45:13</time>
      </trkpt>
      <trkpt lat="28.74278" lon="-13.92025">
        <ele>5.4</ele>
        <time>2021-07-04 12:45:14</time>
      </trkpt>
      <trkpt lat="28.74275" lon="-13.9203">
        <ele>5.2</ele>
        <time>2021-07-04 12:45:15</time>
      </trkpt>
      <trkpt lat="28.74272" lon="-13.92035">
        <ele>5.2</ele>
        <time>2021-07-04 12:45:16</time>
      </trkpt>
      <trkpt lat="28.74268" lon="-13.9204">
        <ele>5.2</ele>
        <time>2021-07-04 12:45:17</time>
      </trkpt>
      <trkpt lat="28.74265" lon="-13.92045">
        <ele>5</ele>
        <time>2021-07-04 12:45:18</time>
      </trkpt>
      <trkpt lat="28.74262" lon="-13.92049">
        <ele>5</ele>
        <time>2021-07-04 12:45:19</time>
      </trkpt>
      <trkpt lat="28.74259" lon="-13.92055">
        <ele>5</ele>
        <time>2021-07-04 12:45:20</time>
      </trkpt>
      <trkpt lat="28.74255" lon="-13.9206">
        <ele>5</ele>
        <time>2021-07-04 12:45:21</time>
      </trkpt>
      <trkpt lat="28.74252" lon="-13.92065">
        <ele>4.8</ele>
        <time>2021-07-04 12:45:22</time>
      </trkpt>
      <trkpt lat="28.74249" lon="-13.9207">
        <ele>4.8</ele>
        <time>2021-07-04 12:45:23</time>
      </trkpt>
      <trkpt lat="28.74246" lon="-13.92074">
        <ele>4.8</ele>
        <time>2021-07-04 12:45:24</time>
      </trkpt>
      <trkpt lat="28.74243" lon="-13.92079">
        <ele>4.8</ele>
        <time>2021-07-04 12:45:25</time>
      </trkpt>
      <trkpt lat="28.7424" lon="-13.92084">
        <ele>4.8</ele>
        <time>2021-07-04 12:45:26</time>
      </trkpt>
      <trkpt lat="28.74237" lon="-13.92089">
        <ele>4.8</ele>
        <time>2021-07-04 12:45:27</time>
      </trkpt>
      <trkpt lat="28.74234" lon="-13.92093">
        <ele>4.8</ele>
        <time>2021-07-04 12:45:28</time>
      </trkpt>
      <trkpt lat="28.74231" lon="-13.92099">
        <ele>4.8</ele>
        <time>2021-07-04 12:45:29</time>
      </trkpt>
      <trkpt lat="28.74228" lon="-13.92103">
        <ele>4.8</ele>
        <time>2021-07-04 12:45:30</time>
      </trkpt>
      <trkpt lat="28.74225" lon="-13.92109">
        <ele>4.8</ele>
        <time>2021-07-04 12:45:31</time>
      </trkpt>
      <trkpt lat="28.74223" lon="-13.92114">
        <ele>4.8</ele>
        <time>2021-07-04 12:45:32</time>
      </trkpt>
      <trkpt lat="28.74221" lon="-13.9212">
        <ele>4.8</ele>
        <time>2021-07-04 12:45:33</time>
      </trkpt>
      <trkpt lat="28.74219" lon="-13.92125">
        <ele>4.8</ele>
        <time>2021-07-04 12:45:34</time>
      </trkpt>
      <trkpt lat="28.74216" lon="-13.92131">
        <ele>5</ele>
        <time>2021-07-04 12:45:35</time>
      </trkpt>
      <trkpt lat="28.74214" lon="-13.92136">
        <ele>5</ele>
        <time>2021-07-04 12:45:36</time>
      </trkpt>
      <trkpt lat="28.74212" lon="-13.92142">
        <ele>5</ele>
        <time>2021-07-04 12:45:37</time>
      </trkpt>
      <trkpt lat="28.74209" lon="-13.92147">
        <ele>5</ele>
        <time>2021-07-04 12:45:38</time>
      </trkpt>
      <trkpt lat="28.74207" lon="-13.92152">
        <ele>5</ele>
        <time>2021-07-04 12:45:39</time>
      </trkpt>
      <trkpt lat="28.74205" lon="-13.92158">
        <ele>5.2</ele>
        <time>2021-07-04 12:45:40</time>
      </trkpt>
      <trkpt lat="28.74203" lon="-13.92163">
        <ele>5.2</ele>
        <time>2021-07-04 12:45:41</time>
      </trkpt>
      <trkpt lat="28.74199" lon="-13.92168">
        <ele>5.2</ele>
        <time>2021-07-04 12:45:42</time>
      </trkpt>
      <trkpt lat="28.74197" lon="-13.92174">
        <ele>5.2</ele>
        <time>2021-07-04 12:45:43</time>
      </trkpt>
      <trkpt lat="28.74195" lon="-13.9218">
        <ele>5.2</ele>
        <time>2021-07-04 12:45:44</time>
      </trkpt>
      <trkpt lat="28.74193" lon="-13.92186">
        <ele>5.2</ele>
        <time>2021-07-04 12:45:45</time>
      </trkpt>
      <trkpt lat="28.74191" lon="-13.92192">
        <ele>5.2</ele>
        <time>2021-07-04 12:45:46</time>
      </trkpt>
      <trkpt lat="28.74189" lon="-13.92197">
        <ele>5.2</ele>
        <time>2021-07-04 12:45:47</time>
      </trkpt>
      <trkpt lat="28.74188" lon="-13.92202">
        <ele>5.2</ele>
        <time>2021-07-04 12:45:48</time>
      </trkpt>
      <trkpt lat="28.74186" lon="-13.92208">
        <ele>5.2</ele>
        <time>2021-07-04 12:45:49</time>
      </trkpt>
      <trkpt lat="28.74185" lon="-13.92213">
        <ele>5.2</ele>
        <time>2021-07-04 12:45:50</time>
      </trkpt>
      <trkpt lat="28.74183" lon="-13.92218">
        <ele>5.2</ele>
        <time>2021-07-04 12:45:51</time>
      </trkpt>
      <trkpt lat="28.74181" lon="-13.92222">
        <ele>5.2</ele>
        <time>2021-07-04 12:45:52</time>
      </trkpt>
      <trkpt lat="28.74179" lon="-13.92226">
        <ele>5.2</ele>
        <time>2021-07-04 12:45:53</time>
      </trkpt>
      <trkpt lat="28.74177" lon="-13.9223">
        <ele>5</ele>
        <time>2021-07-04 12:45:54</time>
      </trkpt>
      <trkpt lat="28.74176" lon="-13.92234">
        <ele>5</ele>
        <time>2021-07-04 12:45:55</time>
      </trkpt>
      <trkpt lat="28.74175" lon="-13.92237">
        <ele>5</ele>
        <time>2021-07-04 12:45:56</time>
      </trkpt>
      <trkpt lat="28.74175" lon="-13.92241">
        <ele>5</ele>
        <time>2021-07-04 12:45:57</time>
      </trkpt>
      <trkpt lat="28.74174" lon="-13.92245">
        <ele>5</ele>
        <time>2021-07-04 12:45:58</time>
      </trkpt>
      <trkpt lat="28.74173" lon="-13.9225">
        <ele>5</ele>
        <time>2021-07-04 12:45:59</time>
      </trkpt>
      <trkpt lat="28.74172" lon="-13.92254">
        <ele>5.2</ele>
        <time>2021-07-04 12:46:00</time>
      </trkpt>
      <trkpt lat="28.74172" lon="-13.92259">
        <ele>5.4</ele>
        <time>2021-07-04 12:46:01</time>
      </trkpt>
      <trkpt lat="28.74172" lon="-13.92263">
        <ele>5.4</ele>
        <time>2021-07-04 12:46:02</time>
      </trkpt>
      <trkpt lat="28.74171" lon="-13.92268">
        <ele>5.4</ele>
        <time>2021-07-04 12:46:03</time>
      </trkpt>
      <trkpt lat="28.74171" lon="-13.92273">
        <ele>5.6</ele>
        <time>2021-07-04 12:46:04</time>
      </trkpt>
      <trkpt lat="28.7417" lon="-13.92278">
        <ele>5.6</ele>
        <time>2021-07-04 12:46:05</time>
      </trkpt>
      <trkpt lat="28.7417" lon="-13.92283">
        <ele>6</ele>
        <time>2021-07-04 12:46:06</time>
      </trkpt>
      <trkpt lat="28.7417" lon="-13.92288">
        <ele>6.2</ele>
        <time>2021-07-04 12:46:07</time>
      </trkpt>
      <trkpt lat="28.7417" lon="-13.92294">
        <ele>6.4</ele>
        <time>2021-07-04 12:46:08</time>
      </trkpt>
      <trkpt lat="28.7417" lon="-13.92299">
        <ele>6.6</ele>
        <time>2021-07-04 12:46:09</time>
      </trkpt>
      <trkpt lat="28.74169" lon="-13.92305">
        <ele>6.8</ele>
        <time>2021-07-04 12:46:10</time>
      </trkpt>
      <trkpt lat="28.74169" lon="-13.9231">
        <ele>6.8</ele>
        <time>2021-07-04 12:46:11</time>
      </trkpt>
      <trkpt lat="28.7417" lon="-13.92316">
        <ele>7.2</ele>
        <time>2021-07-04 12:46:12</time>
      </trkpt>
      <trkpt lat="28.74169" lon="-13.92321">
        <ele>7.2</ele>
        <time>2021-07-04 12:46:13</time>
      </trkpt>
      <trkpt lat="28.74169" lon="-13.92326">
        <ele>7.4</ele>
        <time>2021-07-04 12:46:14</time>
      </trkpt>
      <trkpt lat="28.74169" lon="-13.92332">
        <ele>7.6</ele>
        <time>2021-07-04 12:46:15</time>
      </trkpt>
      <trkpt lat="28.74168" lon="-13.92337">
        <ele>7.6</ele>
        <time>2021-07-04 12:46:16</time>
      </trkpt>
      <trkpt lat="28.74168" lon="-13.92342">
        <ele>8</ele>
        <time>2021-07-04 12:46:17</time>
      </trkpt>
      <trkpt lat="28.74168" lon="-13.92348">
        <ele>8</ele>
        <time>2021-07-04 12:46:18</time>
      </trkpt>
      <trkpt lat="28.74167" lon="-13.92353">
        <ele>8</ele>
        <time>2021-07-04 12:46:19</time>
      </trkpt>
      <trkpt lat="28.74167" lon="-13.92358">
        <ele>8.2</ele>
        <time>2021-07-04 12:46:20</time>
      </trkpt>
      <trkpt lat="28.74166" lon="-13.92364">
        <ele>8.2</ele>
        <time>2021-07-04 12:46:21</time>
      </trkpt>
      <trkpt lat="28.74166" lon="-13.92369">
        <ele>8.2</ele>
        <time>2021-07-04 12:46:22</time>
      </trkpt>
      <trkpt lat="28.74165" lon="-13.92375">
        <ele>8.2</ele>
        <time>2021-07-04 12:46:23</time>
      </trkpt>
      <trkpt lat="28.74165" lon="-13.92381">
        <ele>8.2</ele>
        <time>2021-07-04 12:46:24</time>
      </trkpt>
      <trkpt lat="28.74165" lon="-13.92386">
        <ele>8</ele>
        <time>2021-07-04 12:46:25</time>
      </trkpt>
      <trkpt lat="28.74165" lon="-13.92392">
        <ele>8</ele>
        <time>2021-07-04 12:46:26</time>
      </trkpt>
      <trkpt lat="28.74165" lon="-13.92398">
        <ele>8.2</ele>
        <time>2021-07-04 12:46:27</time>
      </trkpt>
      <trkpt lat="28.74164" lon="-13.92404">
        <ele>8.2</ele>
        <time>2021-07-04 12:46:28</time>
      </trkpt>
      <trkpt lat="28.74163" lon="-13.92409">
        <ele>8.2</ele>
        <time>2021-07-04 12:46:29</time>
      </trkpt>
      <trkpt lat="28.74162" lon="-13.92415">
        <ele>8.2</ele>
        <time>2021-07-04 12:46:30</time>
      </trkpt>
      <trkpt lat="28.74162" lon="-13.92421">
        <ele>8.2</ele>
        <time>2021-07-04 12:46:31</time>
      </trkpt>
      <trkpt lat="28.74161" lon="-13.92427">
        <ele>8.2</ele>
        <time>2021-07-04 12:46:32</time>
      </trkpt>
      <trkpt lat="28.7416" lon="-13.92433">
        <ele>8.2</ele>
        <time>2021-07-04 12:46:33</time>
      </trkpt>
      <trkpt lat="28.7416" lon="-13.92439">
        <ele>8</ele>
        <time>2021-07-04 12:46:34</time>
      </trkpt>
      <trkpt lat="28.7416" lon="-13.92445">
        <ele>8</ele>
        <time>2021-07-04 12:46:35</time>
      </trkpt>
      <trkpt lat="28.7416" lon="-13.9245">
        <ele>8</ele>
        <time>2021-07-04 12:46:36</time>
      </trkpt>
      <trkpt lat="28.74159" lon="-13.92456">
        <ele>8</ele>
        <time>2021-07-04 12:46:37</time>
      </trkpt>
      <trkpt lat="28.74158" lon="-13.9246">
        <ele>8</ele>
        <time>2021-07-04 12:46:38</time>
      </trkpt>
      <trkpt lat="28.74158" lon="-13.92465">
        <ele>8</ele>
        <time>2021-07-04 12:46:39</time>
      </trkpt>
      <trkpt lat="28.74158" lon="-13.9247">
        <ele>8</ele>
        <time>2021-07-04 12:46:40</time>
      </trkpt>
      <trkpt lat="28.74157" lon="-13.92475">
        <ele>8</ele>
        <time>2021-07-04 12:46:41</time>
      </trkpt>
      <trkpt lat="28.74156" lon="-13.92479">
        <ele>8</ele>
        <time>2021-07-04 12:46:42</time>
      </trkpt>
      <trkpt lat="28.74155" lon="-13.92484">
        <ele>8</ele>
        <time>2021-07-04 12:46:43</time>
      </trkpt>
      <trkpt lat="28.74154" lon="-13.92489">
        <ele>8</ele>
        <time>2021-07-04 12:46:44</time>
      </trkpt>
      <trkpt lat="28.74154" lon="-13.92494">
        <ele>8</ele>
        <time>2021-07-04 12:46:45</time>
      </trkpt>
      <trkpt lat="28.74153" lon="-13.92499">
        <ele>8</ele>
        <time>2021-07-04 12:46:46</time>
      </trkpt>
      <trkpt lat="28.74151" lon="-13.92504">
        <ele>7.6</ele>
        <time>2021-07-04 12:46:47</time>
      </trkpt>
      <trkpt lat="28.7415" lon="-13.92508">
        <ele>7.6</ele>
        <time>2021-07-04 12:46:48</time>
      </trkpt>
      <trkpt lat="28.74149" lon="-13.92513">
        <ele>7.6</ele>
        <time>2021-07-04 12:46:49</time>
      </trkpt>
      <trkpt lat="28.74148" lon="-13.92517">
        <ele>7.6</ele>
        <time>2021-07-04 12:46:50</time>
      </trkpt>
      <trkpt lat="28.74147" lon="-13.92521">
        <ele>7.4</ele>
        <time>2021-07-04 12:46:51</time>
      </trkpt>
      <trkpt lat="28.74146" lon="-13.92525">
        <ele>7.4</ele>
        <time>2021-07-04 12:46:52</time>
      </trkpt>
      <trkpt lat="28.74145" lon="-13.92529">
        <ele>7</ele>
        <time>2021-07-04 12:46:53</time>
      </trkpt>
      <trkpt lat="28.74145" lon="-13.92532">
        <ele>7</ele>
        <time>2021-07-04 12:46:54</time>
      </trkpt>
      <trkpt lat="28.74144" lon="-13.92536">
        <ele>7</ele>
        <time>2021-07-04 12:46:55</time>
      </trkpt>
      <trkpt lat="28.74143" lon="-13.9254">
        <ele>7</ele>
        <time>2021-07-04 12:46:56</time>
      </trkpt>
      <trkpt lat="28.74141" lon="-13.92544">
        <ele>7</ele>
        <time>2021-07-04 12:46:57</time>
      </trkpt>
      <trkpt lat="28.74138" lon="-13.92548">
        <ele>6.8</ele>
        <time>2021-07-04 12:46:58</time>
      </trkpt>
      <trkpt lat="28.74136" lon="-13.9255">
        <ele>6.6</ele>
        <time>2021-07-04 12:46:59</time>
      </trkpt>
      <trkpt lat="28.74133" lon="-13.92553">
        <ele>6.4</ele>
        <time>2021-07-04 12:47:00</time>
      </trkpt>
      <trkpt lat="28.74132" lon="-13.92557">
        <ele>6.4</ele>
        <time>2021-07-04 12:47:01</time>
      </trkpt>
      <trkpt lat="28.7413" lon="-13.92561">
        <ele>6.4</ele>
        <time>2021-07-04 12:47:02</time>
      </trkpt>
      <trkpt lat="28.74129" lon="-13.92565">
        <ele>6.2</ele>
        <time>2021-07-04 12:47:03</time>
      </trkpt>
      <trkpt lat="28.74128" lon="-13.92569">
        <ele>6.2</ele>
        <time>2021-07-04 12:47:04</time>
      </trkpt>
      <trkpt lat="28.74128" lon="-13.92573">
        <ele>6.2</ele>
        <time>2021-07-04 12:47:05</time>
      </trkpt>
      <trkpt lat="28.74127" lon="-13.92577">
        <ele>6.2</ele>
        <time>2021-07-04 12:47:06</time>
      </trkpt>
      <trkpt lat="28.74126" lon="-13.92581">
        <ele>6.2</ele>
        <time>2021-07-04 12:47:07</time>
      </trkpt>
      <trkpt lat="28.74125" lon="-13.92586">
        <ele>6</ele>
        <time>2021-07-04 12:47:08</time>
      </trkpt>
      <trkpt lat="28.74124" lon="-13.9259">
        <ele>6</ele>
        <time>2021-07-04 12:47:09</time>
      </trkpt>
      <trkpt lat="28.74123" lon="-13.92594">
        <ele>6</ele>
        <time>2021-07-04 12:47:10</time>
      </trkpt>
      <trkpt lat="28.74121" lon="-13.92599">
        <ele>5.6</ele>
        <time>2021-07-04 12:47:11</time>
      </trkpt>
      <trkpt lat="28.74121" lon="-13.92604">
        <ele>5.6</ele>
        <time>2021-07-04 12:47:12</time>
      </trkpt>
      <trkpt lat="28.74119" lon="-13.92609">
        <ele>5.6</ele>
        <time>2021-07-04 12:47:13</time>
      </trkpt>
      <trkpt lat="28.74118" lon="-13.92614">
        <ele>5.4</ele>
        <time>2021-07-04 12:47:14</time>
      </trkpt>
      <trkpt lat="28.74117" lon="-13.92618">
        <ele>5.4</ele>
        <time>2021-07-04 12:47:15</time>
      </trkpt>
      <trkpt lat="28.74115" lon="-13.92621">
        <ele>5.4</ele>
        <time>2021-07-04 12:47:16</time>
      </trkpt>
      <trkpt lat="28.74114" lon="-13.92625">
        <ele>5.4</ele>
        <time>2021-07-04 12:47:17</time>
      </trkpt>
      <trkpt lat="28.74113" lon="-13.92628">
        <ele>5.4</ele>
        <time>2021-07-04 12:47:18</time>
      </trkpt>
      <trkpt lat="28.74112" lon="-13.92633">
        <ele>5.8</ele>
        <time>2021-07-04 12:47:19</time>
      </trkpt>
      <trkpt lat="28.7411" lon="-13.92637">
        <ele>5.8</ele>
        <time>2021-07-04 12:47:20</time>
      </trkpt>
      <trkpt lat="28.74109" lon="-13.92642">
        <ele>5.8</ele>
        <time>2021-07-04 12:47:21</time>
      </trkpt>
      <trkpt lat="28.74107" lon="-13.92646">
        <ele>5.8</ele>
        <time>2021-07-04 12:47:22</time>
      </trkpt>
      <trkpt lat="28.74105" lon="-13.92651">
        <ele>5.8</ele>
        <time>2021-07-04 12:47:23</time>
      </trkpt>
      <trkpt lat="28.74103" lon="-13.92655">
        <ele>5.8</ele>
        <time>2021-07-04 12:47:24</time>
      </trkpt>
      <trkpt lat="28.74101" lon="-13.9266">
        <ele>5.8</ele>
        <time>2021-07-04 12:47:25</time>
      </trkpt>
      <trkpt lat="28.74099" lon="-13.92665">
        <ele>5.6</ele>
        <time>2021-07-04 12:47:26</time>
      </trkpt>
      <trkpt lat="28.74096" lon="-13.92669">
        <ele>5.6</ele>
        <time>2021-07-04 12:47:27</time>
      </trkpt>
      <trkpt lat="28.74093" lon="-13.92673">
        <ele>5.2</ele>
        <time>2021-07-04 12:47:28</time>
      </trkpt>
      <trkpt lat="28.7409" lon="-13.92677">
        <ele>5.2</ele>
        <time>2021-07-04 12:47:29</time>
      </trkpt>
      <trkpt lat="28.74087" lon="-13.92682">
        <ele>5.2</ele>
        <time>2021-07-04 12:47:30</time>
      </trkpt>
      <trkpt lat="28.74085" lon="-13.92686">
        <ele>5</ele>
        <time>2021-07-04 12:47:31</time>
      </trkpt>
      <trkpt lat="28.74082" lon="-13.92691">
        <ele>5</ele>
        <time>2021-07-04 12:47:32</time>
      </trkpt>
      <trkpt lat="28.7408" lon="-13.92696">
        <ele>5</ele>
        <time>2021-07-04 12:47:33</time>
      </trkpt>
      <trkpt lat="28.74078" lon="-13.92701">
        <ele>4.6</ele>
        <time>2021-07-04 12:47:34</time>
      </trkpt>
      <trkpt lat="28.74075" lon="-13.92705">
        <ele>4.6</ele>
        <time>2021-07-04 12:47:35</time>
      </trkpt>
      <trkpt lat="28.74073" lon="-13.9271">
        <ele>4.6</ele>
        <time>2021-07-04 12:47:36</time>
      </trkpt>
      <trkpt lat="28.74071" lon="-13.92714">
        <ele>4.4</ele>
        <time>2021-07-04 12:47:37</time>
      </trkpt>
      <trkpt lat="28.74069" lon="-13.92718">
        <ele>4.4</ele>
        <time>2021-07-04 12:47:38</time>
      </trkpt>
      <trkpt lat="28.74068" lon="-13.92722">
        <ele>4.4</ele>
        <time>2021-07-04 12:47:39</time>
      </trkpt>
      <trkpt lat="28.74067" lon="-13.92727">
        <ele>4.4</ele>
        <time>2021-07-04 12:47:40</time>
      </trkpt>
      <trkpt lat="28.74066" lon="-13.92731">
        <ele>4.4</ele>
        <time>2021-07-04 12:47:41</time>
      </trkpt>
      <trkpt lat="28.74065" lon="-13.92735">
        <ele>4.4</ele>
        <time>2021-07-04 12:47:42</time>
      </trkpt>
      <trkpt lat="28.74064" lon="-13.92739">
        <ele>4.6</ele>
        <time>2021-07-04 12:47:43</time>
      </trkpt>
      <trkpt lat="28.74063" lon="-13.92744">
        <ele>4.6</ele>
        <time>2021-07-04 12:47:44</time>
      </trkpt>
      <trkpt lat="28.74062" lon="-13.92749">
        <ele>4.8</ele>
        <time>2021-07-04 12:47:45</time>
      </trkpt>
      <trkpt lat="28.74061" lon="-13.92754">
        <ele>4.8</ele>
        <time>2021-07-04 12:47:46</time>
      </trkpt>
      <trkpt lat="28.7406" lon="-13.92759">
        <ele>4.8</ele>
        <time>2021-07-04 12:47:47</time>
      </trkpt>
      <trkpt lat="28.74059" lon="-13.92764">
        <ele>4.8</ele>
        <time>2021-07-04 12:47:48</time>
      </trkpt>
      <trkpt lat="28.74059" lon="-13.92769">
        <ele>5</ele>
        <time>2021-07-04 12:47:49</time>
      </trkpt>
      <trkpt lat="28.74057" lon="-13.92774">
        <ele>5</ele>
        <time>2021-07-04 12:47:50</time>
      </trkpt>
      <trkpt lat="28.74056" lon="-13.92779">
        <ele>5</ele>
        <time>2021-07-04 12:47:51</time>
      </trkpt>
      <trkpt lat="28.74055" lon="-13.92783">
        <ele>5</ele>
        <time>2021-07-04 12:47:52</time>
      </trkpt>
      <trkpt lat="28.74054" lon="-13.92788">
        <ele>5</ele>
        <time>2021-07-04 12:47:53</time>
      </trkpt>
      <trkpt lat="28.74053" lon="-13.92792">
        <ele>5.2</ele>
        <time>2021-07-04 12:47:54</time>
      </trkpt>
      <trkpt lat="28.74051" lon="-13.92796">
        <ele>5.2</ele>
        <time>2021-07-04 12:47:55</time>
      </trkpt>
      <trkpt lat="28.7405" lon="-13.928">
        <ele>5.2</ele>
        <time>2021-07-04 12:47:56</time>
      </trkpt>
      <trkpt lat="28.74049" lon="-13.92803">
        <ele>5.2</ele>
        <time>2021-07-04 12:47:57</time>
      </trkpt>
      <trkpt lat="28.74047" lon="-13.92807">
        <ele>5.6</ele>
        <time>2021-07-04 12:47:58</time>
      </trkpt>
      <trkpt lat="28.74046" lon="-13.9281">
        <ele>5.6</ele>
        <time>2021-07-04 12:47:59</time>
      </trkpt>
      <trkpt lat="28.74044" lon="-13.92814">
        <ele>5.8</ele>
        <time>2021-07-04 12:48:00</time>
      </trkpt>
      <trkpt lat="28.74042" lon="-13.92817">
        <ele>5.8</ele>
        <time>2021-07-04 12:48:01</time>
      </trkpt>
      <trkpt lat="28.7404" lon="-13.92821">
        <ele>6</ele>
        <time>2021-07-04 12:48:02</time>
      </trkpt>
      <trkpt lat="28.74038" lon="-13.92824">
        <ele>6</ele>
        <time>2021-07-04 12:48:03</time>
      </trkpt>
      <trkpt lat="28.74036" lon="-13.92828">
        <ele>6</ele>
        <time>2021-07-04 12:48:04</time>
      </trkpt>
      <trkpt lat="28.74034" lon="-13.92831">
        <ele>6</ele>
        <time>2021-07-04 12:48:05</time>
      </trkpt>
      <trkpt lat="28.74031" lon="-13.92835">
        <ele>6</ele>
        <time>2021-07-04 12:48:06</time>
      </trkpt>
      <trkpt lat="28.74029" lon="-13.92838">
        <ele>6</ele>
        <time>2021-07-04 12:48:07</time>
      </trkpt>
      <trkpt lat="28.74026" lon="-13.92842">
        <ele>6</ele>
        <time>2021-07-04 12:48:08</time>
      </trkpt>
      <trkpt lat="28.74023" lon="-13.92845">
        <ele>5.8</ele>
        <time>2021-07-04 12:48:09</time>
      </trkpt>
      <trkpt lat="28.7402" lon="-13.92849">
        <ele>5.8</ele>
        <time>2021-07-04 12:48:10</time>
      </trkpt>
      <trkpt lat="28.74017" lon="-13.92852">
        <ele>5.8</ele>
        <time>2021-07-04 12:48:11</time>
      </trkpt>
      <trkpt lat="28.74014" lon="-13.92856">
        <ele>5.8</ele>
        <time>2021-07-04 12:48:12</time>
      </trkpt>
      <trkpt lat="28.74012" lon="-13.92859">
        <ele>5.8</ele>
        <time>2021-07-04 12:48:13</time>
      </trkpt>
      <trkpt lat="28.74009" lon="-13.92862">
        <ele>5.8</ele>
        <time>2021-07-04 12:48:14</time>
      </trkpt>
      <trkpt lat="28.74006" lon="-13.92866">
        <ele>5.8</ele>
        <time>2021-07-04 12:48:15</time>
      </trkpt>
      <trkpt lat="28.74002" lon="-13.92869">
        <ele>5.8</ele>
        <time>2021-07-04 12:48:16</time>
      </trkpt>
      <trkpt lat="28.73999" lon="-13.92872">
        <ele>5.4</ele>
        <time>2021-07-04 12:48:17</time>
      </trkpt>
      <trkpt lat="28.73996" lon="-13.92875">
        <ele>5.4</ele>
        <time>2021-07-04 12:48:18</time>
      </trkpt>
      <trkpt lat="28.73994" lon="-13.92878">
        <ele>5.2</ele>
        <time>2021-07-04 12:48:19</time>
      </trkpt>
      <trkpt lat="28.73992" lon="-13.92881">
        <ele>5.2</ele>
        <time>2021-07-04 12:48:20</time>
      </trkpt>
      <trkpt lat="28.7399" lon="-13.92884">
        <ele>5.2</ele>
        <time>2021-07-04 12:48:21</time>
      </trkpt>
      <trkpt lat="28.73987" lon="-13.92887">
        <ele>5</ele>
        <time>2021-07-04 12:48:22</time>
      </trkpt>
      <trkpt lat="28.73984" lon="-13.9289">
        <ele>5</ele>
        <time>2021-07-04 12:48:23</time>
      </trkpt>
      <trkpt lat="28.73982" lon="-13.92893">
        <ele>4.6</ele>
        <time>2021-07-04 12:48:24</time>
      </trkpt>
      <trkpt lat="28.73979" lon="-13.92896">
        <ele>4.6</ele>
        <time>2021-07-04 12:48:25</time>
      </trkpt>
      <trkpt lat="28.73976" lon="-13.929">
        <ele>4.6</ele>
        <time>2021-07-04 12:48:26</time>
      </trkpt>
      <trkpt lat="28.73974" lon="-13.92904">
        <ele>4.4</ele>
        <time>2021-07-04 12:48:27</time>
      </trkpt>
      <trkpt lat="28.73972" lon="-13.92908">
        <ele>4.4</ele>
        <time>2021-07-04 12:48:28</time>
      </trkpt>
      <trkpt lat="28.7397" lon="-13.92912">
        <ele>4.4</ele>
        <time>2021-07-04 12:48:29</time>
      </trkpt>
      <trkpt lat="28.73969" lon="-13.92916">
        <ele>4.4</ele>
        <time>2021-07-04 12:48:30</time>
      </trkpt>
      <trkpt lat="28.73968" lon="-13.9292">
        <ele>4.4</ele>
        <time>2021-07-04 12:48:31</time>
      </trkpt>
      <trkpt lat="28.73967" lon="-13.92925">
        <ele>4.4</ele>
        <time>2021-07-04 12:48:32</time>
      </trkpt>
      <trkpt lat="28.73966" lon="-13.92929">
        <ele>4.8</ele>
        <time>2021-07-04 12:48:33</time>
      </trkpt>
      <trkpt lat="28.73966" lon="-13.92934">
        <ele>5</ele>
        <time>2021-07-04 12:48:34</time>
      </trkpt>
      <trkpt lat="28.73966" lon="-13.92938">
        <ele>5.2</ele>
        <time>2021-07-04 12:48:35</time>
      </trkpt>
      <trkpt lat="28.73966" lon="-13.92943">
        <ele>5.2</ele>
        <time>2021-07-04 12:48:36</time>
      </trkpt>
      <trkpt lat="28.73966" lon="-13.92947">
        <ele>5.6</ele>
        <time>2021-07-04 12:48:37</time>
      </trkpt>
      <trkpt lat="28.73967" lon="-13.92951">
        <ele>5.6</ele>
        <time>2021-07-04 12:48:38</time>
      </trkpt>
      <trkpt lat="28.73967" lon="-13.92955">
        <ele>6</ele>
        <time>2021-07-04 12:48:39</time>
      </trkpt>
      <trkpt lat="28.73966" lon="-13.92958">
        <ele>6</ele>
        <time>2021-07-04 12:48:40</time>
      </trkpt>
      <trkpt lat="28.73965" lon="-13.9296">
        <ele>6</ele>
        <time>2021-07-04 12:48:41</time>
      </trkpt>
      <trkpt lat="28.73965" lon="-13.92961">
        <ele>6</ele>
        <time>2021-07-04 12:48:42</time>
      </trkpt>
      <trkpt lat="28.73964" lon="-13.92961">
        <ele>5.8</ele>
        <time>2021-07-04 12:48:43</time>
      </trkpt>
      <trkpt lat="28.73964" lon="-13.92961">
        <ele>5.8</ele>
        <time>2021-07-04 12:48:44</time>
      </trkpt>
      <trkpt lat="28.73964" lon="-13.92962">
        <ele>4</ele>
        <time>2021-07-04 12:48:45</time>
      </trkpt>
      <trkpt lat="28.73964" lon="-13.92963">
        <ele>4</ele>
        <time>2021-07-04 12:48:46</time>
      </trkpt>
      <trkpt lat="28.73964" lon="-13.92965">
        <ele>4.2</ele>
        <time>2021-07-04 12:48:47</time>
      </trkpt>
      <trkpt lat="28.73965" lon="-13.92967">
        <ele>4.6</ele>
        <time>2021-07-04 12:48:48</time>
      </trkpt>
      <trkpt lat="28.73966" lon="-13.92969">
        <ele>4.8</ele>
        <time>2021-07-04 12:48:49</time>
      </trkpt>
      <trkpt lat="28.73967" lon="-13.92972">
        <ele>5</ele>
        <time>2021-07-04 12:49:28</time>
      </trkpt>
      <trkpt lat="28.73968" lon="-13.92974">
        <ele>5</ele>
        <time>2021-07-04 12:49:29</time>
      </trkpt>
      <trkpt lat="28.7397" lon="-13.92976">
        <ele>5.2</ele>
        <time>2021-07-04 12:49:30</time>
      </trkpt>
      <trkpt lat="28.73972" lon="-13.92978">
        <ele>5.6</ele>
        <time>2021-07-04 12:49:31</time>
      </trkpt>
      <trkpt lat="28.73973" lon="-13.92981">
        <ele>5.8</ele>
        <time>2021-07-04 12:49:32</time>
      </trkpt>
      <trkpt lat="28.73974" lon="-13.92985">
        <ele>6</ele>
        <time>2021-07-04 12:49:33</time>
      </trkpt>
      <trkpt lat="28.73975" lon="-13.92989">
        <ele>6</ele>
        <time>2021-07-04 12:49:34</time>
      </trkpt>
      <trkpt lat="28.73976" lon="-13.92993">
        <ele>6.2</ele>
        <time>2021-07-04 12:49:35</time>
      </trkpt>
      <trkpt lat="28.73976" lon="-13.92997">
        <ele>6.2</ele>
        <time>2021-07-04 12:49:36</time>
      </trkpt>
      <trkpt lat="28.73977" lon="-13.93001">
        <ele>6.2</ele>
        <time>2021-07-04 12:49:37</time>
      </trkpt>
      <trkpt lat="28.73977" lon="-13.93006">
        <ele>6.2</ele>
        <time>2021-07-04 12:49:38</time>
      </trkpt>
      <trkpt lat="28.73978" lon="-13.93011">
        <ele>6.2</ele>
        <time>2021-07-04 12:49:39</time>
      </trkpt>
      <trkpt lat="28.73978" lon="-13.93015">
        <ele>6.2</ele>
        <time>2021-07-04 12:49:40</time>
      </trkpt>
      <trkpt lat="28.73979" lon="-13.9302">
        <ele>6.6</ele>
        <time>2021-07-04 12:49:41</time>
      </trkpt>
      <trkpt lat="28.73979" lon="-13.93024">
        <ele>6.6</ele>
        <time>2021-07-04 12:49:42</time>
      </trkpt>
      <trkpt lat="28.7398" lon="-13.93029">
        <ele>6.6</ele>
        <time>2021-07-04 12:49:43</time>
      </trkpt>
      <trkpt lat="28.7398" lon="-13.93033">
        <ele>6.6</ele>
        <time>2021-07-04 12:49:44</time>
      </trkpt>
      <trkpt lat="28.7398" lon="-13.93038">
        <ele>6.6</ele>
        <time>2021-07-04 12:49:45</time>
      </trkpt>
      <trkpt lat="28.7398" lon="-13.93043">
        <ele>6.6</ele>
        <time>2021-07-04 12:49:46</time>
      </trkpt>
      <trkpt lat="28.7398" lon="-13.93047">
        <ele>6.6</ele>
        <time>2021-07-04 12:49:47</time>
      </trkpt>
      <trkpt lat="28.7398" lon="-13.93052">
        <ele>6.6</ele>
        <time>2021-07-04 12:49:48</time>
      </trkpt>
      <trkpt lat="28.7398" lon="-13.93056">
        <ele>6.8</ele>
        <time>2021-07-04 12:49:49</time>
      </trkpt>
      <trkpt lat="28.7398" lon="-13.9306">
        <ele>6.8</ele>
        <time>2021-07-04 12:49:50</time>
      </trkpt>
      <trkpt lat="28.7398" lon="-13.93063">
        <ele>6.8</ele>
        <time>2021-07-04 12:49:51</time>
      </trkpt>
      <trkpt lat="28.73981" lon="-13.93067">
        <ele>6.8</ele>
        <time>2021-07-04 12:49:52</time>
      </trkpt>
      <trkpt lat="28.73981" lon="-13.9307">
        <ele>6.8</ele>
        <time>2021-07-04 12:49:53</time>
      </trkpt>
      <trkpt lat="28.7398" lon="-13.93074">
        <ele>6.8</ele>
        <time>2021-07-04 12:49:54</time>
      </trkpt>
      <trkpt lat="28.73979" lon="-13.93085">
        <ele>7</ele>
        <time>2021-07-04 12:49:55</time>
      </trkpt>
      <trkpt lat="28.73978" lon="-13.93089">
        <ele>7</ele>
        <time>2021-07-04 12:49:56</time>
      </trkpt>
      <trkpt lat="28.73977" lon="-13.93094">
        <ele>7</ele>
        <time>2021-07-04 12:49:57</time>
      </trkpt>
      <trkpt lat="28.73977" lon="-13.93098">
        <ele>7</ele>
        <time>2021-07-04 12:49:58</time>
      </trkpt>
      <trkpt lat="28.73977" lon="-13.93103">
        <ele>7</ele>
        <time>2021-07-04 12:49:59</time>
      </trkpt>
      <trkpt lat="28.73977" lon="-13.93107">
        <ele>7</ele>
        <time>2021-07-04 12:50:00</time>
      </trkpt>
      <trkpt lat="28.73978" lon="-13.93112">
        <ele>7.4</ele>
        <time>2021-07-04 12:50:01</time>
      </trkpt>
      <trkpt lat="28.73979" lon="-13.93116">
        <ele>7.4</ele>
        <time>2021-07-04 12:50:02</time>
      </trkpt>
      <trkpt lat="28.7398" lon="-13.93121">
        <ele>7.4</ele>
        <time>2021-07-04 12:50:03</time>
      </trkpt>
      <trkpt lat="28.73982" lon="-13.93125">
        <ele>7.6</ele>
        <time>2021-07-04 12:50:04</time>
      </trkpt>
      <trkpt lat="28.73983" lon="-13.93129">
        <ele>7.6</ele>
        <time>2021-07-04 12:50:05</time>
      </trkpt>
      <trkpt lat="28.73985" lon="-13.93133">
        <ele>7.6</ele>
        <time>2021-07-04 12:50:06</time>
      </trkpt>
      <trkpt lat="28.73986" lon="-13.93137">
        <ele>7.6</ele>
        <time>2021-07-04 12:50:07</time>
      </trkpt>
      <trkpt lat="28.73987" lon="-13.93141">
        <ele>7.6</ele>
        <time>2021-07-04 12:50:08</time>
      </trkpt>
      <trkpt lat="28.73989" lon="-13.93145">
        <ele>7.8</ele>
        <time>2021-07-04 12:50:09</time>
      </trkpt>
      <trkpt lat="28.7399" lon="-13.93148">
        <ele>7.8</ele>
        <time>2021-07-04 12:50:10</time>
      </trkpt>
      <trkpt lat="28.73992" lon="-13.93152">
        <ele>7.8</ele>
        <time>2021-07-04 12:50:11</time>
      </trkpt>
      <trkpt lat="28.73994" lon="-13.93155">
        <ele>7.8</ele>
        <time>2021-07-04 12:50:12</time>
      </trkpt>
      <trkpt lat="28.73995" lon="-13.93159">
        <ele>7.8</ele>
        <time>2021-07-04 12:50:13</time>
      </trkpt>
      <trkpt lat="28.73998" lon="-13.93162">
        <ele>7.8</ele>
        <time>2021-07-04 12:50:14</time>
      </trkpt>
      <trkpt lat="28.74" lon="-13.93165">
        <ele>7.8</ele>
        <time>2021-07-04 12:50:15</time>
      </trkpt>
      <trkpt lat="28.74003" lon="-13.93168">
        <ele>7.8</ele>
        <time>2021-07-04 12:50:16</time>
      </trkpt>
      <trkpt lat="28.74006" lon="-13.93172">
        <ele>7.8</ele>
        <time>2021-07-04 12:50:17</time>
      </trkpt>
      <trkpt lat="28.74008" lon="-13.93175">
        <ele>7.8</ele>
        <time>2021-07-04 12:50:18</time>
      </trkpt>
      <trkpt lat="28.7401" lon="-13.93179">
        <ele>7.8</ele>
        <time>2021-07-04 12:50:19</time>
      </trkpt>
      <trkpt lat="28.74012" lon="-13.93183">
        <ele>7.8</ele>
        <time>2021-07-04 12:50:20</time>
      </trkpt>
      <trkpt lat="28.74014" lon="-13.93187">
        <ele>7.8</ele>
        <time>2021-07-04 12:50:21</time>
      </trkpt>
      <trkpt lat="28.74015" lon="-13.93191">
        <ele>7.8</ele>
        <time>2021-07-04 12:50:22</time>
      </trkpt>
      <trkpt lat="28.74017" lon="-13.93195">
        <ele>7.8</ele>
        <time>2021-07-04 12:50:23</time>
      </trkpt>
      <trkpt lat="28.74018" lon="-13.93199">
        <ele>7.8</ele>
        <time>2021-07-04 12:50:24</time>
      </trkpt>
      <trkpt lat="28.74019" lon="-13.93204">
        <ele>7.8</ele>
        <time>2021-07-04 12:50:25</time>
      </trkpt>
      <trkpt lat="28.7402" lon="-13.93208">
        <ele>7.8</ele>
        <time>2021-07-04 12:50:26</time>
      </trkpt>
      <trkpt lat="28.74021" lon="-13.93213">
        <ele>7.8</ele>
        <time>2021-07-04 12:50:27</time>
      </trkpt>
      <trkpt lat="28.74021" lon="-13.93217">
        <ele>7.8</ele>
        <time>2021-07-04 12:50:28</time>
      </trkpt>
      <trkpt lat="28.74021" lon="-13.93222">
        <ele>7.8</ele>
        <time>2021-07-04 12:50:29</time>
      </trkpt>
      <trkpt lat="28.74022" lon="-13.93227">
        <ele>7.8</ele>
        <time>2021-07-04 12:50:30</time>
      </trkpt>
      <trkpt lat="28.74021" lon="-13.93232">
        <ele>7.8</ele>
        <time>2021-07-04 12:50:31</time>
      </trkpt>
      <trkpt lat="28.7402" lon="-13.93236">
        <ele>7.8</ele>
        <time>2021-07-04 12:50:32</time>
      </trkpt>
      <trkpt lat="28.7402" lon="-13.93242">
        <ele>7.8</ele>
        <time>2021-07-04 12:50:33</time>
      </trkpt>
      <trkpt lat="28.7402" lon="-13.93247">
        <ele>7.4</ele>
        <time>2021-07-04 12:50:34</time>
      </trkpt>
      <trkpt lat="28.7402" lon="-13.93252">
        <ele>7.2</ele>
        <time>2021-07-04 12:50:35</time>
      </trkpt>
      <trkpt lat="28.74021" lon="-13.93258">
        <ele>6.8</ele>
        <time>2021-07-04 12:50:36</time>
      </trkpt>
      <trkpt lat="28.74021" lon="-13.93264">
        <ele>6.8</ele>
        <time>2021-07-04 12:50:37</time>
      </trkpt>
      <trkpt lat="28.74021" lon="-13.9327">
        <ele>6.4</ele>
        <time>2021-07-04 12:50:38</time>
      </trkpt>
      <trkpt lat="28.74022" lon="-13.93275">
        <ele>6.2</ele>
        <time>2021-07-04 12:50:39</time>
      </trkpt>
      <trkpt lat="28.74022" lon="-13.93281">
        <ele>6.2</ele>
        <time>2021-07-04 12:50:40</time>
      </trkpt>
      <trkpt lat="28.74023" lon="-13.93286">
        <ele>6.2</ele>
        <time>2021-07-04 12:50:41</time>
      </trkpt>
      <trkpt lat="28.74023" lon="-13.93292">
        <ele>5.8</ele>
        <time>2021-07-04 12:50:42</time>
      </trkpt>
      <trkpt lat="28.74024" lon="-13.93297">
        <ele>5.8</ele>
        <time>2021-07-04 12:50:43</time>
      </trkpt>
      <trkpt lat="28.74024" lon="-13.93302">
        <ele>5.8</ele>
        <time>2021-07-04 12:50:44</time>
      </trkpt>
      <trkpt lat="28.74026" lon="-13.93308">
        <ele>5.8</ele>
        <time>2021-07-04 12:50:45</time>
      </trkpt>
      <trkpt lat="28.74026" lon="-13.93313">
        <ele>5.8</ele>
        <time>2021-07-04 12:50:46</time>
      </trkpt>
      <trkpt lat="28.74026" lon="-13.93318">
        <ele>5.8</ele>
        <time>2021-07-04 12:50:47</time>
      </trkpt>
      <trkpt lat="28.74026" lon="-13.93324">
        <ele>5.6</ele>
        <time>2021-07-04 12:50:48</time>
      </trkpt>
      <trkpt lat="28.74025" lon="-13.93329">
        <ele>5.6</ele>
        <time>2021-07-04 12:50:49</time>
      </trkpt>
      <trkpt lat="28.74024" lon="-13.93335">
        <ele>5.2</ele>
        <time>2021-07-04 12:50:50</time>
      </trkpt>
      <trkpt lat="28.74022" lon="-13.93341">
        <ele>5</ele>
        <time>2021-07-04 12:50:51</time>
      </trkpt>
      <trkpt lat="28.74021" lon="-13.93347">
        <ele>4.6</ele>
        <time>2021-07-04 12:50:52</time>
      </trkpt>
      <trkpt lat="28.74019" lon="-13.93353">
        <ele>4.4</ele>
        <time>2021-07-04 12:50:53</time>
      </trkpt>
      <trkpt lat="28.74017" lon="-13.93359">
        <ele>4</ele>
        <time>2021-07-04 12:50:54</time>
      </trkpt>
      <trkpt lat="28.74017" lon="-13.93365">
        <ele>3.8</ele>
        <time>2021-07-04 12:50:55</time>
      </trkpt>
      <trkpt lat="28.74015" lon="-13.9337">
        <ele>3.4</ele>
        <time>2021-07-04 12:50:56</time>
      </trkpt>
      <trkpt lat="28.74015" lon="-13.93375">
        <ele>3.2</ele>
        <time>2021-07-04 12:50:57</time>
      </trkpt>
      <trkpt lat="28.74015" lon="-13.93381">
        <ele>3.2</ele>
        <time>2021-07-04 12:50:58</time>
      </trkpt>
      <trkpt lat="28.74016" lon="-13.93387">
        <ele>3.2</ele>
        <time>2021-07-04 12:50:59</time>
      </trkpt>
      <trkpt lat="28.74015" lon="-13.93392">
        <ele>3.2</ele>
        <time>2021-07-04 12:51:00</time>
      </trkpt>
      <trkpt lat="28.74015" lon="-13.93398">
        <ele>3.2</ele>
        <time>2021-07-04 12:51:01</time>
      </trkpt>
      <trkpt lat="28.74014" lon="-13.93403">
        <ele>3.2</ele>
        <time>2021-07-04 12:51:02</time>
      </trkpt>
      <trkpt lat="28.74012" lon="-13.93408">
        <ele>3.2</ele>
        <time>2021-07-04 12:51:03</time>
      </trkpt>
      <trkpt lat="28.7401" lon="-13.93414">
        <ele>3.2</ele>
        <time>2021-07-04 12:51:04</time>
      </trkpt>
      <trkpt lat="28.74008" lon="-13.93419">
        <ele>3</ele>
        <time>2021-07-04 12:51:05</time>
      </trkpt>
      <trkpt lat="28.74007" lon="-13.93424">
        <ele>3</ele>
        <time>2021-07-04 12:51:06</time>
      </trkpt>
      <trkpt lat="28.74005" lon="-13.9343">
        <ele>2.6</ele>
        <time>2021-07-04 12:51:07</time>
      </trkpt>
      <trkpt lat="28.74003" lon="-13.93436">
        <ele>2.2</ele>
        <time>2021-07-04 12:51:08</time>
      </trkpt>
      <trkpt lat="28.74002" lon="-13.93442">
        <ele>2</ele>
        <time>2021-07-04 12:51:09</time>
      </trkpt>
      <trkpt lat="28.74001" lon="-13.93448">
        <ele>1.6</ele>
        <time>2021-07-04 12:51:10</time>
      </trkpt>
      <trkpt lat="28.74001" lon="-13.93454">
        <ele>1.6</ele>
        <time>2021-07-04 12:51:11</time>
      </trkpt>
      <trkpt lat="28.74002" lon="-13.93459">
        <ele>1.6</ele>
        <time>2021-07-04 12:51:12</time>
      </trkpt>
      <trkpt lat="28.74002" lon="-13.93465">
        <ele>1.6</ele>
        <time>2021-07-04 12:51:13</time>
      </trkpt>
      <trkpt lat="28.74002" lon="-13.9347">
        <ele>1.6</ele>
        <time>2021-07-04 12:51:14</time>
      </trkpt>
      <trkpt lat="28.74002" lon="-13.93476">
        <ele>2</ele>
        <time>2021-07-04 12:51:15</time>
      </trkpt>
      <trkpt lat="28.74002" lon="-13.93482">
        <ele>2</ele>
        <time>2021-07-04 12:51:16</time>
      </trkpt>
      <trkpt lat="28.74002" lon="-13.93487">
        <ele>1.6</ele>
        <time>2021-07-04 12:51:17</time>
      </trkpt>
      <trkpt lat="28.74001" lon="-13.93493">
        <ele>1.6</ele>
        <time>2021-07-04 12:51:18</time>
      </trkpt>
      <trkpt lat="28.74" lon="-13.93498">
        <ele>1.6</ele>
        <time>2021-07-04 12:51:19</time>
      </trkpt>
      <trkpt lat="28.73999" lon="-13.93504">
        <ele>1.4</ele>
        <time>2021-07-04 12:51:20</time>
      </trkpt>
      <trkpt lat="28.73997" lon="-13.93509">
        <ele>1.4</ele>
        <time>2021-07-04 12:51:21</time>
      </trkpt>
      <trkpt lat="28.73995" lon="-13.93514">
        <ele>1.2</ele>
        <time>2021-07-04 12:51:22</time>
      </trkpt>
      <trkpt lat="28.73993" lon="-13.93518">
        <ele>1.2</ele>
        <time>2021-07-04 12:51:23</time>
      </trkpt>
      <trkpt lat="28.73991" lon="-13.93523">
        <ele>1.2</ele>
        <time>2021-07-04 12:51:24</time>
      </trkpt>
      <trkpt lat="28.73989" lon="-13.93528">
        <ele>0.8</ele>
        <time>2021-07-04 12:51:25</time>
      </trkpt>
      <trkpt lat="28.73987" lon="-13.93532">
        <ele>0.8</ele>
        <time>2021-07-04 12:51:26</time>
      </trkpt>
      <trkpt lat="28.73984" lon="-13.93536">
        <ele>0.6</ele>
        <time>2021-07-04 12:51:27</time>
      </trkpt>
      <trkpt lat="28.73982" lon="-13.93541">
        <ele>0.6</ele>
        <time>2021-07-04 12:51:28</time>
      </trkpt>
      <trkpt lat="28.7398" lon="-13.93546">
        <ele>0.2</ele>
        <time>2021-07-04 12:51:29</time>
      </trkpt>
      <trkpt lat="28.73977" lon="-13.9355">
        <time>2021-07-04 12:51:30</time>
      </trkpt>
      <trkpt lat="28.73974" lon="-13.93555">
        <ele>-0.2</ele>
        <time>2021-07-04 12:51:31</time>
      </trkpt>
      <trkpt lat="28.73972" lon="-13.9356">
        <ele>-0.2</ele>
        <time>2021-07-04 12:51:32</time>
      </trkpt>
      <trkpt lat="28.73968" lon="-13.93564">
        <ele>-0.6</ele>
        <time>2021-07-04 12:51:33</time>
      </trkpt>
      <trkpt lat="28.73965" lon="-13.9357">
        <ele>-0.8</ele>
        <time>2021-07-04 12:51:34</time>
      </trkpt>
      <trkpt lat="28.73963" lon="-13.93575">
        <ele>-1</ele>
        <time>2021-07-04 12:51:35</time>
      </trkpt>
      <trkpt lat="28.7396" lon="-13.9358">
        <ele>-1.2</ele>
        <time>2021-07-04 12:51:36</time>
      </trkpt>
      <trkpt lat="28.73959" lon="-13.93586">
        <ele>-1.2</ele>
        <time>2021-07-04 12:51:37</time>
      </trkpt>
      <trkpt lat="28.73958" lon="-13.93592">
        <ele>-1.6</ele>
        <time>2021-07-04 12:51:38</time>
      </trkpt>
      <trkpt lat="28.73957" lon="-13.93597">
        <ele>-1.6</ele>
        <time>2021-07-04 12:51:39</time>
      </trkpt>
      <trkpt lat="28.73957" lon="-13.93603">
        <ele>-1.4</ele>
        <time>2021-07-04 12:51:40</time>
      </trkpt>
      <trkpt lat="28.73956" lon="-13.93608">
        <ele>-1.4</ele>
        <time>2021-07-04 12:51:41</time>
      </trkpt>
      <trkpt lat="28.73956" lon="-13.93613">
        <ele>-1.4</ele>
        <time>2021-07-04 12:51:42</time>
      </trkpt>
      <trkpt lat="28.73956" lon="-13.93618">
        <ele>-1.4</ele>
        <time>2021-07-04 12:51:43</time>
      </trkpt>
      <trkpt lat="28.73956" lon="-13.93624">
        <ele>-1.4</ele>
        <time>2021-07-04 12:51:44</time>
      </trkpt>
      <trkpt lat="28.73954" lon="-13.93629">
        <ele>-1.4</ele>
        <time>2021-07-04 12:51:45</time>
      </trkpt>
      <trkpt lat="28.73953" lon="-13.93635">
        <ele>-1.4</ele>
        <time>2021-07-04 12:51:46</time>
      </trkpt>
      <trkpt lat="28.73952" lon="-13.93641">
        <ele>-1.8</ele>
        <time>2021-07-04 12:51:47</time>
      </trkpt>
      <trkpt lat="28.7395" lon="-13.93646">
        <ele>-2</ele>
        <time>2021-07-04 12:51:48</time>
      </trkpt>
      <trkpt lat="28.73947" lon="-13.93652">
        <ele>-2</ele>
        <time>2021-07-04 12:51:49</time>
      </trkpt>
      <trkpt lat="28.73945" lon="-13.93657">
        <ele>-2.4</ele>
        <time>2021-07-04 12:51:50</time>
      </trkpt>
      <trkpt lat="28.73942" lon="-13.93662">
        <ele>-2.6</ele>
        <time>2021-07-04 12:51:51</time>
      </trkpt>
      <trkpt lat="28.73939" lon="-13.93667">
        <ele>-3</ele>
        <time>2021-07-04 12:51:52</time>
      </trkpt>
      <trkpt lat="28.73935" lon="-13.93671">
        <ele>-3.2</ele>
        <time>2021-07-04 12:51:53</time>
      </trkpt>
      <trkpt lat="28.73931" lon="-13.93674">
        <ele>-3.6</ele>
        <time>2021-07-04 12:51:54</time>
      </trkpt>
      <trkpt lat="28.73927" lon="-13.93677">
        <ele>-3.8</ele>
        <time>2021-07-04 12:51:55</time>
      </trkpt>
      <trkpt lat="28.73923" lon="-13.9368">
        <ele>-4</ele>
        <time>2021-07-04 12:51:56</time>
      </trkpt>
      <trkpt lat="28.73921" lon="-13.93681">
        <ele>-4</ele>
        <time>2021-07-04 12:51:57</time>
      </trkpt>
      <trkpt lat="28.7392" lon="-13.93682">
        <ele>-4.4</ele>
        <time>2021-07-04 12:51:58</time>
      </trkpt>
      <trkpt lat="28.7392" lon="-13.93682">
        <ele>-4.4</ele>
        <time>2021-07-04 12:51:59</time>
      </trkpt>
      <trkpt lat="28.7392" lon="-13.93682">
        <ele>-4.6</ele>
        <time>2021-07-04 12:52:00</time>
      </trkpt>
      <trkpt lat="28.73919" lon="-13.93683">
        <ele>-6</ele>
        <time>2021-07-04 12:52:01</time>
      </trkpt>
      <trkpt lat="28.73918" lon="-13.93684">
        <ele>-6</ele>
        <time>2021-07-04 12:52:02</time>
      </trkpt>
      <trkpt lat="28.73915" lon="-13.93685">
        <ele>-6</ele>
        <time>2021-07-04 12:52:03</time>
      </trkpt>
      <trkpt lat="28.73913" lon="-13.93687">
        <ele>-6</ele>
        <time>2021-07-04 12:52:04</time>
      </trkpt>
      <trkpt lat="28.7391" lon="-13.93688">
        <ele>-6</ele>
        <time>2021-07-04 12:52:05</time>
      </trkpt>
      <trkpt lat="28.73907" lon="-13.9369">
        <ele>-6</ele>
        <time>2021-07-04 12:52:06</time>
      </trkpt>
      <trkpt lat="28.73904" lon="-13.93691">
        <ele>-6</ele>
        <time>2021-07-04 12:52:07</time>
      </trkpt>
      <trkpt lat="28.73901" lon="-13.93693">
        <ele>-5.6</ele>
        <time>2021-07-04 12:52:28</time>
      </trkpt>
      <trkpt lat="28.73898" lon="-13.93695">
        <ele>-5.6</ele>
        <time>2021-07-04 12:52:29</time>
      </trkpt>
      <trkpt lat="28.73895" lon="-13.93697">
        <ele>-5.6</ele>
        <time>2021-07-04 12:52:30</time>
      </trkpt>
      <trkpt lat="28.73893" lon="-13.93698">
        <ele>-5.6</ele>
        <time>2021-07-04 12:52:31</time>
      </trkpt>
      <trkpt lat="28.73891" lon="-13.93699">
        <ele>-5.6</ele>
        <time>2021-07-04 12:52:32</time>
      </trkpt>
      <trkpt lat="28.7389" lon="-13.93701">
        <ele>-5.6</ele>
        <time>2021-07-04 12:52:33</time>
      </trkpt>
      <trkpt lat="28.73889" lon="-13.93703">
        <ele>-5.6</ele>
        <time>2021-07-04 12:52:34</time>
      </trkpt>
      <trkpt lat="28.7389" lon="-13.93704">
        <ele>-5.4</ele>
        <time>2021-07-04 12:52:35</time>
      </trkpt>
      <trkpt lat="28.7389" lon="-13.93705">
        <ele>-5.2</ele>
        <time>2021-07-04 12:52:36</time>
      </trkpt>
      <trkpt lat="28.7389" lon="-13.93705">
        <ele>-5.2</ele>
        <time>2021-07-04 12:52:37</time>
      </trkpt>
      <trkpt lat="28.7389" lon="-13.93705">
        <ele>-4.8</ele>
        <time>2021-07-04 12:52:38</time>
      </trkpt>
      <trkpt lat="28.73888" lon="-13.93706">
        <ele>-4.2</ele>
        <time>2021-07-04 12:52:39</time>
      </trkpt>
      <trkpt lat="28.73886" lon="-13.93706">
        <ele>-4.2</ele>
        <time>2021-07-04 12:52:40</time>
      </trkpt>
      <trkpt lat="28.73885" lon="-13.93706">
        <ele>-4.2</ele>
        <time>2021-07-04 12:52:41</time>
      </trkpt>
      <trkpt lat="28.73884" lon="-13.93706">
        <ele>-4.4</ele>
        <time>2021-07-04 12:52:42</time>
      </trkpt>
      <trkpt lat="28.73882" lon="-13.93707">
        <ele>-4.4</ele>
        <time>2021-07-04 12:52:43</time>
      </trkpt>
      <trkpt lat="28.73881" lon="-13.93707">
        <ele>-4.4</ele>
        <time>2021-07-04 12:52:44</time>
      </trkpt>
      <trkpt lat="28.7388" lon="-13.93707">
        <ele>-4.4</ele>
        <time>2021-07-04 12:52:45</time>
      </trkpt>
      <trkpt lat="28.73878" lon="-13.93708">
        <ele>-4.4</ele>
        <time>2021-07-04 12:53:13</time>
      </trkpt>
      <trkpt lat="28.73875" lon="-13.93709">
        <ele>-4.4</ele>
        <time>2021-07-04 12:53:14</time>
      </trkpt>
      <trkpt lat="28.73873" lon="-13.93711">
        <ele>-4.8</ele>
        <time>2021-07-04 12:53:15</time>
      </trkpt>
      <trkpt lat="28.73871" lon="-13.93713">
        <ele>-4.8</ele>
        <time>2021-07-04 12:53:16</time>
      </trkpt>
      <trkpt lat="28.73868" lon="-13.93716">
        <ele>-4.8</ele>
        <time>2021-07-04 12:53:17</time>
      </trkpt>
      <trkpt lat="28.73866" lon="-13.9372">
        <ele>-4.8</ele>
        <time>2021-07-04 12:53:18</time>
      </trkpt>
      <trkpt lat="28.73864" lon="-13.93724">
        <ele>-4.8</ele>
        <time>2021-07-04 12:53:19</time>
      </trkpt>
      <trkpt lat="28.73862" lon="-13.93728">
        <ele>-4.8</ele>
        <time>2021-07-04 12:53:20</time>
      </trkpt>
      <trkpt lat="28.73861" lon="-13.93733">
        <ele>-4.8</ele>
        <time>2021-07-04 12:53:21</time>
      </trkpt>
      <trkpt lat="28.7386" lon="-13.93738">
        <ele>-4.8</ele>
        <time>2021-07-04 12:53:22</time>
      </trkpt>
      <trkpt lat="28.7386" lon="-13.93742">
        <ele>-4.4</ele>
        <time>2021-07-04 12:53:23</time>
      </trkpt>
      <trkpt lat="28.7386" lon="-13.93747">
        <ele>-4</ele>
        <time>2021-07-04 12:53:24</time>
      </trkpt>
      <trkpt lat="28.7386" lon="-13.93751">
        <ele>-3.6</ele>
        <time>2021-07-04 12:53:25</time>
      </trkpt>
      <trkpt lat="28.7386" lon="-13.93755">
        <ele>-3.4</ele>
        <time>2021-07-04 12:53:26</time>
      </trkpt>
      <trkpt lat="28.7386" lon="-13.93759">
        <ele>-3.2</ele>
        <time>2021-07-04 12:53:27</time>
      </trkpt>
      <trkpt lat="28.7386" lon="-13.93763">
        <ele>-3</ele>
        <time>2021-07-04 12:53:28</time>
      </trkpt>
      <trkpt lat="28.7386" lon="-13.93767">
        <ele>-2.8</ele>
        <time>2021-07-04 12:53:29</time>
      </trkpt>
      <trkpt lat="28.7386" lon="-13.93771">
        <ele>-2.8</ele>
        <time>2021-07-04 12:53:30</time>
      </trkpt>
      <trkpt lat="28.7386" lon="-13.93775">
        <ele>-2.4</ele>
        <time>2021-07-04 12:53:31</time>
      </trkpt>
      <trkpt lat="28.73859" lon="-13.93779">
        <ele>-2.4</ele>
        <time>2021-07-04 12:53:32</time>
      </trkpt>
      <trkpt lat="28.73859" lon="-13.93783">
        <ele>-2.4</ele>
        <time>2021-07-04 12:53:33</time>
      </trkpt>
      <trkpt lat="28.73859" lon="-13.93787">
        <ele>-2.4</ele>
        <time>2021-07-04 12:53:34</time>
      </trkpt>
      <trkpt lat="28.73859" lon="-13.93791">
        <ele>-2.4</ele>
        <time>2021-07-04 12:53:35</time>
      </trkpt>
      <trkpt lat="28.7386" lon="-13.93796">
        <ele>-2.4</ele>
        <time>2021-07-04 12:53:36</time>
      </trkpt>
      <trkpt lat="28.7386" lon="-13.938">
        <ele>-2.4</ele>
        <time>2021-07-04 12:53:37</time>
      </trkpt>
      <trkpt lat="28.7386" lon="-13.93805">
        <ele>-2.4</ele>
        <time>2021-07-04 12:53:38</time>
      </trkpt>
      <trkpt lat="28.73861" lon="-13.9381">
        <ele>-2.4</ele>
        <time>2021-07-04 12:53:39</time>
      </trkpt>
      <trkpt lat="28.73861" lon="-13.93814">
        <ele>-2.4</ele>
        <time>2021-07-04 12:53:40</time>
      </trkpt>
      <trkpt lat="28.73861" lon="-13.93819">
        <ele>-2.4</ele>
        <time>2021-07-04 12:53:41</time>
      </trkpt>
      <trkpt lat="28.73861" lon="-13.93824">
        <ele>-2.4</ele>
        <time>2021-07-04 12:53:42</time>
      </trkpt>
      <trkpt lat="28.73862" lon="-13.93828">
        <ele>-2</ele>
        <time>2021-07-04 12:53:43</time>
      </trkpt>
      <trkpt lat="28.73863" lon="-13.93833">
        <ele>-2</ele>
        <time>2021-07-04 12:53:44</time>
      </trkpt>
      <trkpt lat="28.73863" lon="-13.93837">
        <ele>-1.8</ele>
        <time>2021-07-04 12:53:45</time>
      </trkpt>
      <trkpt lat="28.73863" lon="-13.93842">
        <ele>-1.8</ele>
        <time>2021-07-04 12:53:46</time>
      </trkpt>
      <trkpt lat="28.73864" lon="-13.93846">
        <ele>-1.8</ele>
        <time>2021-07-04 12:53:47</time>
      </trkpt>
      <trkpt lat="28.73865" lon="-13.93851">
        <ele>-1.8</ele>
        <time>2021-07-04 12:53:48</time>
      </trkpt>
      <trkpt lat="28.73865" lon="-13.93855">
        <ele>-1.8</ele>
        <time>2021-07-04 12:53:49</time>
      </trkpt>
      <trkpt lat="28.73865" lon="-13.9386">
        <ele>-1.8</ele>
        <time>2021-07-04 12:53:50</time>
      </trkpt>
      <trkpt lat="28.73865" lon="-13.93863">
        <ele>-1.8</ele>
        <time>2021-07-04 12:53:51</time>
      </trkpt>
      <trkpt lat="28.73865" lon="-13.93867">
        <ele>-1.6</ele>
        <time>2021-07-04 12:53:52</time>
      </trkpt>
      <trkpt lat="28.73866" lon="-13.9387">
        <ele>-1.6</ele>
        <time>2021-07-04 12:53:53</time>
      </trkpt>
      <trkpt lat="28.73867" lon="-13.93874">
        <ele>-1.6</ele>
        <time>2021-07-04 12:53:54</time>
      </trkpt>
      <trkpt lat="28.73867" lon="-13.93878">
        <ele>-1.2</ele>
        <time>2021-07-04 12:53:55</time>
      </trkpt>
      <trkpt lat="28.73868" lon="-13.93881">
        <ele>-1.2</ele>
        <time>2021-07-04 12:53:56</time>
      </trkpt>
      <trkpt lat="28.73868" lon="-13.93884">
        <ele>-1.6</ele>
        <time>2021-07-04 12:53:57</time>
      </trkpt>
      <trkpt lat="28.73868" lon="-13.93888">
        <ele>-1.6</ele>
        <time>2021-07-04 12:53:58</time>
      </trkpt>
      <trkpt lat="28.73869" lon="-13.93892">
        <ele>-2</ele>
        <time>2021-07-04 12:53:59</time>
      </trkpt>
      <trkpt lat="28.73869" lon="-13.93895">
        <ele>-2</ele>
        <time>2021-07-04 12:54:00</time>
      </trkpt>
      <trkpt lat="28.73869" lon="-13.93899">
        <ele>-2.2</ele>
        <time>2021-07-04 12:54:01</time>
      </trkpt>
      <trkpt lat="28.73869" lon="-13.93903">
        <ele>-2.2</ele>
        <time>2021-07-04 12:54:02</time>
      </trkpt>
      <trkpt lat="28.73868" lon="-13.93907">
        <ele>-2.2</ele>
        <time>2021-07-04 12:54:03</time>
      </trkpt>
      <trkpt lat="28.73868" lon="-13.93911">
        <ele>-2.4</ele>
        <time>2021-07-04 12:54:04</time>
      </trkpt>
      <trkpt lat="28.73867" lon="-13.93915">
        <ele>-2.4</ele>
        <time>2021-07-04 12:54:05</time>
      </trkpt>
      <trkpt lat="28.73867" lon="-13.93919">
        <ele>-2.4</ele>
        <time>2021-07-04 12:54:06</time>
      </trkpt>
      <trkpt lat="28.73866" lon="-13.93923">
        <ele>-2.4</ele>
        <time>2021-07-04 12:54:07</time>
      </trkpt>
      <trkpt lat="28.73866" lon="-13.93927">
        <ele>-2.4</ele>
        <time>2021-07-04 12:54:08</time>
      </trkpt>
      <trkpt lat="28.73865" lon="-13.93931">
        <ele>-2.4</ele>
        <time>2021-07-04 12:54:09</time>
      </trkpt>
      <trkpt lat="28.73865" lon="-13.93935">
        <ele>-2.4</ele>
        <time>2021-07-04 12:54:10</time>
      </trkpt>
      <trkpt lat="28.73866" lon="-13.93938">
        <ele>-2.4</ele>
        <time>2021-07-04 12:54:11</time>
      </trkpt>
      <trkpt lat="28.73866" lon="-13.93942">
        <ele>-2.4</ele>
        <time>2021-07-04 12:54:12</time>
      </trkpt>
      <trkpt lat="28.73867" lon="-13.93946">
        <ele>-2</ele>
        <time>2021-07-04 12:54:13</time>
      </trkpt>
      <trkpt lat="28.73869" lon="-13.93949">
        <ele>-2</ele>
        <time>2021-07-04 12:54:14</time>
      </trkpt>
      <trkpt lat="28.7387" lon="-13.93952">
        <ele>-1.8</ele>
        <time>2021-07-04 12:54:15</time>
      </trkpt>
      <trkpt lat="28.73871" lon="-13.93955">
        <ele>-1.8</ele>
        <time>2021-07-04 12:54:16</time>
      </trkpt>
      <trkpt lat="28.73872" lon="-13.93957">
        <ele>-1.8</ele>
        <time>2021-07-04 12:54:17</time>
      </trkpt>
      <trkpt lat="28.73874" lon="-13.9396">
        <ele>-1.8</ele>
        <time>2021-07-04 12:54:18</time>
      </trkpt>
      <trkpt lat="28.73876" lon="-13.93961">
        <ele>-1.8</ele>
        <time>2021-07-04 12:54:19</time>
      </trkpt>
      <trkpt lat="28.73878" lon="-13.93962">
        <ele>-1.8</ele>
        <time>2021-07-04 12:54:20</time>
      </trkpt>
      <trkpt lat="28.7388" lon="-13.93964">
        <ele>-2</ele>
        <time>2021-07-04 12:54:21</time>
      </trkpt>
      <trkpt lat="28.73883" lon="-13.93965">
        <ele>-2</ele>
        <time>2021-07-04 12:54:22</time>
      </trkpt>
      <trkpt lat="28.73885" lon="-13.93966">
        <ele>-2</ele>
        <time>2021-07-04 12:54:23</time>
      </trkpt>
      <trkpt lat="28.73886" lon="-13.93968">
        <ele>-2</ele>
        <time>2021-07-04 12:54:24</time>
      </trkpt>
      <trkpt lat="28.73888" lon="-13.93969">
        <ele>-2</ele>
        <time>2021-07-04 12:54:25</time>
      </trkpt>
      <trkpt lat="28.7389" lon="-13.93971">
        <ele>-2</ele>
        <time>2021-07-04 12:54:26</time>
      </trkpt>
      <trkpt lat="28.73892" lon="-13.93972">
        <ele>-1.8</ele>
        <time>2021-07-04 12:54:27</time>
      </trkpt>
      <trkpt lat="28.73894" lon="-13.93973">
        <ele>-1.8</ele>
        <time>2021-07-04 12:54:28</time>
      </trkpt>
      <trkpt lat="28.73896" lon="-13.93975">
        <ele>-1.4</ele>
        <time>2021-07-04 12:54:29</time>
      </trkpt>
      <trkpt lat="28.73897" lon="-13.93976">
        <ele>-1.4</ele>
        <time>2021-07-04 12:54:30</time>
      </trkpt>
      <trkpt lat="28.73899" lon="-13.93977">
        <ele>-1.4</ele>
        <time>2021-07-04 12:54:31</time>
      </trkpt>
      <trkpt lat="28.73902" lon="-13.93978">
        <ele>-1</ele>
        <time>2021-07-04 12:54:32</time>
      </trkpt>
      <trkpt lat="28.73904" lon="-13.9398">
        <ele>-1</ele>
        <time>2021-07-04 12:54:33</time>
      </trkpt>
      <trkpt lat="28.73906" lon="-13.93981">
        <ele>-1</ele>
        <time>2021-07-04 12:54:34</time>
      </trkpt>
      <trkpt lat="28.73908" lon="-13.93981">
        <ele>-1</ele>
        <time>2021-07-04 12:54:35</time>
      </trkpt>
      <trkpt lat="28.7391" lon="-13.93982">
        <ele>-0.8</ele>
        <time>2021-07-04 12:54:36</time>
      </trkpt>
      <trkpt lat="28.73912" lon="-13.93982">
        <ele>-0.6</ele>
        <time>2021-07-04 12:54:37</time>
      </trkpt>
      <trkpt lat="28.73914" lon="-13.93982">
        <ele>-0.6</ele>
        <time>2021-07-04 12:54:38</time>
      </trkpt>
      <trkpt lat="28.73917" lon="-13.93982">
        <ele>-0.4</ele>
        <time>2021-07-04 12:54:39</time>
      </trkpt>
      <trkpt lat="28.73919" lon="-13.93983">
        <ele>-0.4</ele>
        <time>2021-07-04 12:54:40</time>
      </trkpt>
      <trkpt lat="28.73922" lon="-13.93984">
        <time>2021-07-04 12:54:41</time>
      </trkpt>
      <trkpt lat="28.73924" lon="-13.93985">
        <time>2021-07-04 12:54:42</time>
      </trkpt>
      <trkpt lat="28.73926" lon="-13.93986">
        <ele>0.2</ele>
        <time>2021-07-04 12:54:43</time>
      </trkpt>
      <trkpt lat="28.73928" lon="-13.93988">
        <ele>0.2</ele>
        <time>2021-07-04 12:54:44</time>
      </trkpt>
      <trkpt lat="28.7393" lon="-13.93989">
        <ele>0.6</ele>
        <time>2021-07-04 12:54:45</time>
      </trkpt>
      <trkpt lat="28.73932" lon="-13.93991">
        <ele>1</ele>
        <time>2021-07-04 12:54:46</time>
      </trkpt>
      <trkpt lat="28.73934" lon="-13.93992">
        <ele>1</ele>
        <time>2021-07-04 12:54:47</time>
      </trkpt>
      <trkpt lat="28.73936" lon="-13.93993">
        <ele>1.4</ele>
        <time>2021-07-04 12:54:48</time>
      </trkpt>
      <trkpt lat="28.73938" lon="-13.93994">
        <ele>1.6</ele>
        <time>2021-07-04 12:54:49</time>
      </trkpt>
      <trkpt lat="28.7394" lon="-13.93994">
        <ele>1.6</ele>
        <time>2021-07-04 12:54:50</time>
      </trkpt>
      <trkpt lat="28.73942" lon="-13.93994">
        <ele>2</ele>
        <time>2021-07-04 12:54:51</time>
      </trkpt>
      <trkpt lat="28.73944" lon="-13.93994">
        <ele>2</ele>
        <time>2021-07-04 12:54:52</time>
      </trkpt>
      <trkpt lat="28.73946" lon="-13.93993">
        <ele>2.2</ele>
        <time>2021-07-04 12:54:53</time>
      </trkpt>
      <trkpt lat="28.73948" lon="-13.93992">
        <ele>2.4</ele>
        <time>2021-07-04 12:54:54</time>
      </trkpt>
      <trkpt lat="28.7395" lon="-13.93991">
        <ele>2.4</ele>
        <time>2021-07-04 12:54:55</time>
      </trkpt>
      <trkpt lat="28.73952" lon="-13.93989">
        <ele>2.8</ele>
        <time>2021-07-04 12:54:56</time>
      </trkpt>
      <trkpt lat="28.73954" lon="-13.93988">
        <ele>2.8</ele>
        <time>2021-07-04 12:54:57</time>
      </trkpt>
      <trkpt lat="28.73956" lon="-13.93987">
        <ele>3</ele>
        <time>2021-07-04 12:54:58</time>
      </trkpt>
      <trkpt lat="28.73959" lon="-13.93986">
        <ele>3</ele>
        <time>2021-07-04 12:54:59</time>
      </trkpt>
      <trkpt lat="28.73961" lon="-13.93986">
        <ele>3</ele>
        <time>2021-07-04 12:55:00</time>
      </trkpt>
      <trkpt lat="28.73964" lon="-13.93985">
        <ele>3</ele>
        <time>2021-07-04 12:55:01</time>
      </trkpt>
      <trkpt lat="28.73966" lon="-13.93986">
        <ele>3</ele>
        <time>2021-07-04 12:55:02</time>
      </trkpt>
      <trkpt lat="28.73969" lon="-13.93986">
        <ele>3</ele>
        <time>2021-07-04 12:55:03</time>
      </trkpt>
      <trkpt lat="28.73972" lon="-13.93987">
        <ele>3</ele>
        <time>2021-07-04 12:55:04</time>
      </trkpt>
      <trkpt lat="28.73974" lon="-13.93988">
        <ele>3.4</ele>
        <time>2021-07-04 12:55:05</time>
      </trkpt>
      <trkpt lat="28.73977" lon="-13.93989">
        <ele>3.4</ele>
        <time>2021-07-04 12:55:06</time>
      </trkpt>
      <trkpt lat="28.7398" lon="-13.9399">
        <ele>3.4</ele>
        <time>2021-07-04 12:55:07</time>
      </trkpt>
      <trkpt lat="28.73982" lon="-13.93991">
        <ele>3.4</ele>
        <time>2021-07-04 12:55:08</time>
      </trkpt>
      <trkpt lat="28.73985" lon="-13.93992">
        <ele>3.4</ele>
        <time>2021-07-04 12:55:09</time>
      </trkpt>
      <trkpt lat="28.73988" lon="-13.93994">
        <ele>3.4</ele>
        <time>2021-07-04 12:55:10</time>
      </trkpt>
      <trkpt lat="28.73991" lon="-13.93995">
        <ele>3.4</ele>
        <time>2021-07-04 12:55:11</time>
      </trkpt>
      <trkpt lat="28.73994" lon="-13.93997">
        <ele>3.4</ele>
        <time>2021-07-04 12:55:12</time>
      </trkpt>
      <trkpt lat="28.73996" lon="-13.93998">
        <ele>3.4</ele>
        <time>2021-07-04 12:55:13</time>
      </trkpt>
      <trkpt lat="28.73999" lon="-13.94">
        <ele>3</ele>
        <time>2021-07-04 12:55:14</time>
      </trkpt>
      <trkpt lat="28.74001" lon="-13.94001">
        <ele>3</ele>
        <time>2021-07-04 12:55:15</time>
      </trkpt>
      <trkpt lat="28.74004" lon="-13.94003">
        <ele>3</ele>
        <time>2021-07-04 12:55:16</time>
      </trkpt>
      <trkpt lat="28.74006" lon="-13.94004">
        <ele>3</ele>
        <time>2021-07-04 12:55:17</time>
      </trkpt>
      <trkpt lat="28.74009" lon="-13.94005">
        <ele>3</ele>
        <time>2021-07-04 12:55:18</time>
      </trkpt>
      <trkpt lat="28.74012" lon="-13.94006">
        <ele>2.8</ele>
        <time>2021-07-04 12:55:19</time>
      </trkpt>
      <trkpt lat="28.74015" lon="-13.94006">
        <ele>2.8</ele>
        <time>2021-07-04 12:55:20</time>
      </trkpt>
      <trkpt lat="28.74018" lon="-13.94007">
        <ele>2.8</ele>
        <time>2021-07-04 12:55:21</time>
      </trkpt>
      <trkpt lat="28.74021" lon="-13.94009">
        <ele>2.8</ele>
        <time>2021-07-04 12:55:22</time>
      </trkpt>
      <trkpt lat="28.74025" lon="-13.94011">
        <ele>2.8</ele>
        <time>2021-07-04 12:55:23</time>
      </trkpt>
      <trkpt lat="28.74028" lon="-13.94013">
        <ele>2.6</ele>
        <time>2021-07-04 12:55:24</time>
      </trkpt>
      <trkpt lat="28.74031" lon="-13.94015">
        <ele>2.6</ele>
        <time>2021-07-04 12:55:25</time>
      </trkpt>
      <trkpt lat="28.74035" lon="-13.94017">
        <ele>2.2</ele>
        <time>2021-07-04 12:55:26</time>
      </trkpt>
      <trkpt lat="28.74038" lon="-13.9402">
        <ele>2.2</ele>
        <time>2021-07-04 12:55:27</time>
      </trkpt>
      <trkpt lat="28.74041" lon="-13.94022">
        <ele>2</ele>
        <time>2021-07-04 12:55:28</time>
      </trkpt>
      <trkpt lat="28.74044" lon="-13.94024">
        <ele>2</ele>
        <time>2021-07-04 12:55:29</time>
      </trkpt>
      <trkpt lat="28.74047" lon="-13.94027">
        <ele>1.8</ele>
        <time>2021-07-04 12:55:30</time>
      </trkpt>
      <trkpt lat="28.7405" lon="-13.94029">
        <ele>1.8</ele>
        <time>2021-07-04 12:55:31</time>
      </trkpt>
      <trkpt lat="28.74053" lon="-13.94031">
        <ele>1.4</ele>
        <time>2021-07-04 12:55:32</time>
      </trkpt>
      <trkpt lat="28.74056" lon="-13.94033">
        <ele>1.4</ele>
        <time>2021-07-04 12:55:33</time>
      </trkpt>
      <trkpt lat="28.74058" lon="-13.94034">
        <ele>1.2</ele>
        <time>2021-07-04 12:55:34</time>
      </trkpt>
      <trkpt lat="28.74061" lon="-13.94036">
        <ele>1.2</ele>
        <time>2021-07-04 12:55:35</time>
      </trkpt>
      <trkpt lat="28.74064" lon="-13.94038">
        <ele>1</ele>
        <time>2021-07-04 12:55:36</time>
      </trkpt>
      <trkpt lat="28.74066" lon="-13.9404">
        <ele>1</ele>
        <time>2021-07-04 12:55:37</time>
      </trkpt>
      <trkpt lat="28.74069" lon="-13.94042">
        <ele>0.8</ele>
        <time>2021-07-04 12:55:38</time>
      </trkpt>
      <trkpt lat="28.74071" lon="-13.94045">
        <ele>0.8</ele>
        <time>2021-07-04 12:55:39</time>
      </trkpt>
      <trkpt lat="28.74074" lon="-13.94048">
        <ele>0.4</ele>
        <time>2021-07-04 12:55:40</time>
      </trkpt>
      <trkpt lat="28.74076" lon="-13.94051">
        <ele>0.2</ele>
        <time>2021-07-04 12:55:41</time>
      </trkpt>
      <trkpt lat="28.74078" lon="-13.94054">
        <ele>0.2</ele>
        <time>2021-07-04 12:55:42</time>
      </trkpt>
      <trkpt lat="28.7408" lon="-13.94057">
        <time>2021-07-04 12:55:43</time>
      </trkpt>
      <trkpt lat="28.74082" lon="-13.94061">
        <time>2021-07-04 12:55:44</time>
      </trkpt>
      <trkpt lat="28.74084" lon="-13.94065">
        <ele>-0.4</ele>
        <time>2021-07-04 12:55:45</time>
      </trkpt>
      <trkpt lat="28.74086" lon="-13.94069">
        <ele>-0.6</ele>
        <time>2021-07-04 12:55:46</time>
      </trkpt>
      <trkpt lat="28.74087" lon="-13.94074">
        <ele>-0.6</ele>
        <time>2021-07-04 12:55:47</time>
      </trkpt>
      <trkpt lat="28.74089" lon="-13.94079">
        <ele>-1</ele>
        <time>2021-07-04 12:55:48</time>
      </trkpt>
      <trkpt lat="28.74091" lon="-13.94083">
        <ele>-1.2</ele>
        <time>2021-07-04 12:55:49</time>
      </trkpt>
      <trkpt lat="28.74092" lon="-13.94088">
        <ele>-1.4</ele>
        <time>2021-07-04 12:55:50</time>
      </trkpt>
      <trkpt lat="28.74094" lon="-13.94092">
        <ele>-1.8</ele>
        <time>2021-07-04 12:55:51</time>
      </trkpt>
      <trkpt lat="28.74095" lon="-13.94097">
        <ele>-2</ele>
        <time>2021-07-04 12:55:52</time>
      </trkpt>
      <trkpt lat="28.74096" lon="-13.94101">
        <ele>-2.2</ele>
        <time>2021-07-04 12:55:53</time>
      </trkpt>
      <trkpt lat="28.74098" lon="-13.94106">
        <ele>-2.6</ele>
        <time>2021-07-04 12:55:54</time>
      </trkpt>
      <trkpt lat="28.74101" lon="-13.94109">
        <ele>-2.8</ele>
        <time>2021-07-04 12:55:55</time>
      </trkpt>
      <trkpt lat="28.74104" lon="-13.94113">
        <ele>-3</ele>
        <time>2021-07-04 12:55:56</time>
      </trkpt>
      <trkpt lat="28.74106" lon="-13.94117">
        <ele>-3</ele>
        <time>2021-07-04 12:55:57</time>
      </trkpt>
      <trkpt lat="28.74109" lon="-13.94121">
        <ele>-3.4</ele>
        <time>2021-07-04 12:55:58</time>
      </trkpt>
      <trkpt lat="28.74112" lon="-13.94125">
        <ele>-3.4</ele>
        <time>2021-07-04 12:55:59</time>
      </trkpt>
      <trkpt lat="28.74115" lon="-13.94129">
        <ele>-3.4</ele>
        <time>2021-07-04 12:56:00</time>
      </trkpt>
      <trkpt lat="28.74118" lon="-13.94133">
        <ele>-3.6</ele>
        <time>2021-07-04 12:56:01</time>
      </trkpt>
      <trkpt lat="28.74121" lon="-13.94137">
        <ele>-3.6</ele>
        <time>2021-07-04 12:56:02</time>
      </trkpt>
      <trkpt lat="28.74125" lon="-13.9414">
        <ele>-3.6</ele>
        <time>2021-07-04 12:56:03</time>
      </trkpt>
      <trkpt lat="28.74128" lon="-13.94145">
        <ele>-4</ele>
        <time>2021-07-04 12:56:04</time>
      </trkpt>
      <trkpt lat="28.74132" lon="-13.94149">
        <ele>-4</ele>
        <time>2021-07-04 12:56:05</time>
      </trkpt>
      <trkpt lat="28.74135" lon="-13.94153">
        <ele>-4</ele>
        <time>2021-07-04 12:56:06</time>
      </trkpt>
      <trkpt lat="28.74138" lon="-13.94157">
        <ele>-4</ele>
        <time>2021-07-04 12:56:07</time>
      </trkpt>
      <trkpt lat="28.74141" lon="-13.94162">
        <ele>-4</ele>
        <time>2021-07-04 12:56:08</time>
      </trkpt>
      <trkpt lat="28.74144" lon="-13.94166">
        <ele>-3.8</ele>
        <time>2021-07-04 12:56:09</time>
      </trkpt>
      <trkpt lat="28.74146" lon="-13.94171">
        <ele>-3.4</ele>
        <time>2021-07-04 12:56:10</time>
      </trkpt>
      <trkpt lat="28.74148" lon="-13.94176">
        <ele>-3.4</ele>
        <time>2021-07-04 12:56:11</time>
      </trkpt>
      <trkpt lat="28.7415" lon="-13.94181">
        <ele>-3.2</ele>
        <time>2021-07-04 12:56:12</time>
      </trkpt>
      <trkpt lat="28.74152" lon="-13.94186">
        <ele>-3.2</ele>
        <time>2021-07-04 12:56:13</time>
      </trkpt>
      <trkpt lat="28.74153" lon="-13.94191">
        <ele>-2.8</ele>
        <time>2021-07-04 12:56:14</time>
      </trkpt>
      <trkpt lat="28.74155" lon="-13.94196">
        <ele>-2.8</ele>
        <time>2021-07-04 12:56:15</time>
      </trkpt>
      <trkpt lat="28.74157" lon="-13.94201">
        <ele>-2.8</ele>
        <time>2021-07-04 12:56:16</time>
      </trkpt>
      <trkpt lat="28.7416" lon="-13.94206">
        <ele>-2.8</ele>
        <time>2021-07-04 12:56:17</time>
      </trkpt>
      <trkpt lat="28.74162" lon="-13.94211">
        <ele>-3.2</ele>
        <time>2021-07-04 12:56:18</time>
      </trkpt>
      <trkpt lat="28.74165" lon="-13.94215">
        <ele>-3.2</ele>
        <time>2021-07-04 12:56:19</time>
      </trkpt>
      <trkpt lat="28.74167" lon="-13.94219">
        <ele>-3.4</ele>
        <time>2021-07-04 12:56:20</time>
      </trkpt>
      <trkpt lat="28.7417" lon="-13.94222">
        <ele>-3.4</ele>
        <time>2021-07-04 12:56:21</time>
      </trkpt>
      <trkpt lat="28.74173" lon="-13.94225">
        <ele>-3.4</ele>
        <time>2021-07-04 12:56:22</time>
      </trkpt>
      <trkpt lat="28.74176" lon="-13.94229">
        <ele>-3.8</ele>
        <time>2021-07-04 12:56:23</time>
      </trkpt>
      <trkpt lat="28.74178" lon="-13.94233">
        <ele>-3.8</ele>
        <time>2021-07-04 12:56:24</time>
      </trkpt>
      <trkpt lat="28.74181" lon="-13.94236">
        <ele>-3.8</ele>
        <time>2021-07-04 12:56:25</time>
      </trkpt>
      <trkpt lat="28.74184" lon="-13.94239">
        <ele>-3.8</ele>
        <time>2021-07-04 12:56:26</time>
      </trkpt>
      <trkpt lat="28.74186" lon="-13.94242">
        <ele>-3.8</ele>
        <time>2021-07-04 12:56:27</time>
      </trkpt>
      <trkpt lat="28.74188" lon="-13.94245">
        <ele>-3.8</ele>
        <time>2021-07-04 12:56:28</time>
      </trkpt>
      <trkpt lat="28.74189" lon="-13.94248">
        <ele>-3.4</ele>
        <time>2021-07-04 12:56:29</time>
      </trkpt>
      <trkpt lat="28.74191" lon="-13.94251">
        <ele>-3.4</ele>
        <time>2021-07-04 12:56:30</time>
      </trkpt>
      <trkpt lat="28.74194" lon="-13.94254">
        <ele>-3</ele>
        <time>2021-07-04 12:56:31</time>
      </trkpt>
      <trkpt lat="28.74196" lon="-13.94257">
        <ele>-2.6</ele>
        <time>2021-07-04 12:56:32</time>
      </trkpt>
      <trkpt lat="28.74198" lon="-13.9426">
        <ele>-2.2</ele>
        <time>2021-07-04 12:56:33</time>
      </trkpt>
      <trkpt lat="28.74199" lon="-13.94263">
        <ele>-2</ele>
        <time>2021-07-04 12:56:34</time>
      </trkpt>
      <trkpt lat="28.74201" lon="-13.94266">
        <ele>-1.6</ele>
        <time>2021-07-04 12:56:35</time>
      </trkpt>
      <trkpt lat="28.74202" lon="-13.94269">
        <ele>-1.6</ele>
        <time>2021-07-04 12:56:36</time>
      </trkpt>
      <trkpt lat="28.74204" lon="-13.94273">
        <ele>-1.4</ele>
        <time>2021-07-04 12:56:37</time>
      </trkpt>
      <trkpt lat="28.74205" lon="-13.94276">
        <ele>-1.4</ele>
        <time>2021-07-04 12:56:38</time>
      </trkpt>
      <trkpt lat="28.74206" lon="-13.9428">
        <ele>-1.4</ele>
        <time>2021-07-04 12:56:39</time>
      </trkpt>
      <trkpt lat="28.74207" lon="-13.94284">
        <ele>-1.4</ele>
        <time>2021-07-04 12:56:40</time>
      </trkpt>
      <trkpt lat="28.74208" lon="-13.94287">
        <ele>-1.4</ele>
        <time>2021-07-04 12:56:41</time>
      </trkpt>
      <trkpt lat="28.74209" lon="-13.94291">
        <ele>-1.2</ele>
        <time>2021-07-04 12:56:42</time>
      </trkpt>
      <trkpt lat="28.74209" lon="-13.94295">
        <ele>-1.2</ele>
        <time>2021-07-04 12:56:43</time>
      </trkpt>
      <trkpt lat="28.7421" lon="-13.94299">
        <ele>-1.2</ele>
        <time>2021-07-04 12:56:44</time>
      </trkpt>
      <trkpt lat="28.7421" lon="-13.94304">
        <ele>-1.2</ele>
        <time>2021-07-04 12:56:45</time>
      </trkpt>
      <trkpt lat="28.74211" lon="-13.94308">
        <ele>-1.2</ele>
        <time>2021-07-04 12:56:46</time>
      </trkpt>
      <trkpt lat="28.74211" lon="-13.94312">
        <ele>-1.2</ele>
        <time>2021-07-04 12:56:47</time>
      </trkpt>
      <trkpt lat="28.74212" lon="-13.94316">
        <ele>-1.2</ele>
        <time>2021-07-04 12:56:48</time>
      </trkpt>
      <trkpt lat="28.74212" lon="-13.9432">
        <ele>-1.2</ele>
        <time>2021-07-04 12:56:49</time>
      </trkpt>
      <trkpt lat="28.74213" lon="-13.94324">
        <ele>-1.2</ele>
        <time>2021-07-04 12:56:50</time>
      </trkpt>
      <trkpt lat="28.74213" lon="-13.94329">
        <ele>-1.2</ele>
        <time>2021-07-04 12:56:51</time>
      </trkpt>
      <trkpt lat="28.74214" lon="-13.94333">
        <ele>-1</ele>
        <time>2021-07-04 12:56:52</time>
      </trkpt>
      <trkpt lat="28.74214" lon="-13.94337">
        <ele>-1</ele>
        <time>2021-07-04 12:56:53</time>
      </trkpt>
      <trkpt lat="28.74215" lon="-13.94341">
        <ele>-1</ele>
        <time>2021-07-04 12:56:54</time>
      </trkpt>
      <trkpt lat="28.74215" lon="-13.94345">
        <ele>-0.8</ele>
        <time>2021-07-04 12:56:55</time>
      </trkpt>
      <trkpt lat="28.74215" lon="-13.94349">
        <ele>-0.8</ele>
        <time>2021-07-04 12:56:56</time>
      </trkpt>
      <trkpt lat="28.74216" lon="-13.94353">
        <ele>-0.6</ele>
        <time>2021-07-04 12:56:57</time>
      </trkpt>
      <trkpt lat="28.74216" lon="-13.94357">
        <ele>-0.6</ele>
        <time>2021-07-04 12:56:58</time>
      </trkpt>
      <trkpt lat="28.74217" lon="-13.94361">
        <ele>-0.6</ele>
        <time>2021-07-04 12:56:59</time>
      </trkpt>
      <trkpt lat="28.74218" lon="-13.94365">
        <ele>-0.6</ele>
        <time>2021-07-04 12:57:00</time>
      </trkpt>
      <trkpt lat="28.74218" lon="-13.94369">
        <ele>-0.6</ele>
        <time>2021-07-04 12:57:01</time>
      </trkpt>
      <trkpt lat="28.74219" lon="-13.94373">
        <ele>-0.8</ele>
        <time>2021-07-04 12:57:02</time>
      </trkpt>
      <trkpt lat="28.74219" lon="-13.94377">
        <ele>-0.8</ele>
        <time>2021-07-04 12:57:03</time>
      </trkpt>
      <trkpt lat="28.7422" lon="-13.94381">
        <ele>-0.8</ele>
        <time>2021-07-04 12:57:04</time>
      </trkpt>
      <trkpt lat="28.7422" lon="-13.94386">
        <ele>-1</ele>
        <time>2021-07-04 12:57:05</time>
      </trkpt>
      <trkpt lat="28.74221" lon="-13.94391">
        <ele>-1</ele>
        <time>2021-07-04 12:57:06</time>
      </trkpt>
      <trkpt lat="28.74221" lon="-13.94396">
        <ele>-1</ele>
        <time>2021-07-04 12:57:07</time>
      </trkpt>
      <trkpt lat="28.74222" lon="-13.944">
        <ele>-1</ele>
        <time>2021-07-04 12:57:08</time>
      </trkpt>
      <trkpt lat="28.74223" lon="-13.94405">
        <ele>-1.2</ele>
        <time>2021-07-04 12:57:09</time>
      </trkpt>
      <trkpt lat="28.74223" lon="-13.9441">
        <ele>-1.2</ele>
        <time>2021-07-04 12:57:10</time>
      </trkpt>
      <trkpt lat="28.74224" lon="-13.94415">
        <ele>-1.2</ele>
        <time>2021-07-04 12:57:11</time>
      </trkpt>
      <trkpt lat="28.74224" lon="-13.9442">
        <ele>-1.2</ele>
        <time>2021-07-04 12:57:12</time>
      </trkpt>
      <trkpt lat="28.74225" lon="-13.94425">
        <ele>-1.2</ele>
        <time>2021-07-04 12:57:13</time>
      </trkpt>
      <trkpt lat="28.74226" lon="-13.94429">
        <ele>-1.2</ele>
        <time>2021-07-04 12:57:14</time>
      </trkpt>
      <trkpt lat="28.74227" lon="-13.94434">
        <ele>-1.2</ele>
        <time>2021-07-04 12:57:15</time>
      </trkpt>
      <trkpt lat="28.74227" lon="-13.94439">
        <ele>-1.2</ele>
        <time>2021-07-04 12:57:16</time>
      </trkpt>
      <trkpt lat="28.74228" lon="-13.94444">
        <ele>-1.2</ele>
        <time>2021-07-04 12:57:17</time>
      </trkpt>
      <trkpt lat="28.74228" lon="-13.94448">
        <ele>-1.6</ele>
        <time>2021-07-04 12:57:18</time>
      </trkpt>
      <trkpt lat="28.74229" lon="-13.94453">
        <ele>-1.6</ele>
        <time>2021-07-04 12:57:19</time>
      </trkpt>
      <trkpt lat="28.74229" lon="-13.94458">
        <ele>-1.6</ele>
        <time>2021-07-04 12:57:20</time>
      </trkpt>
      <trkpt lat="28.7423" lon="-13.94463">
        <ele>-1.6</ele>
        <time>2021-07-04 12:57:21</time>
      </trkpt>
      <trkpt lat="28.7423" lon="-13.94467">
        <ele>-1.6</ele>
        <time>2021-07-04 12:57:22</time>
      </trkpt>
      <trkpt lat="28.74231" lon="-13.94472">
        <ele>-1.6</ele>
        <time>2021-07-04 12:57:23</time>
      </trkpt>
      <trkpt lat="28.74231" lon="-13.94477">
        <ele>-1.6</ele>
        <time>2021-07-04 12:57:24</time>
      </trkpt>
      <trkpt lat="28.74231" lon="-13.94482">
        <ele>-1.8</ele>
        <time>2021-07-04 12:57:25</time>
      </trkpt>
      <trkpt lat="28.74231" lon="-13.94487">
        <ele>-1.8</ele>
        <time>2021-07-04 12:57:26</time>
      </trkpt>
      <trkpt lat="28.74232" lon="-13.94493">
        <ele>-2</ele>
        <time>2021-07-04 12:57:27</time>
      </trkpt>
      <trkpt lat="28.74231" lon="-13.94498">
        <ele>-2</ele>
        <time>2021-07-04 12:57:28</time>
      </trkpt>
      <trkpt lat="28.74231" lon="-13.94503">
        <ele>-2.2</ele>
        <time>2021-07-04 12:57:29</time>
      </trkpt>
      <trkpt lat="28.74232" lon="-13.94508">
        <ele>-2.2</ele>
        <time>2021-07-04 12:57:30</time>
      </trkpt>
      <trkpt lat="28.74231" lon="-13.94512">
        <ele>-2.2</ele>
        <time>2021-07-04 12:57:31</time>
      </trkpt>
      <trkpt lat="28.74231" lon="-13.94517">
        <ele>-2.2</ele>
        <time>2021-07-04 12:57:32</time>
      </trkpt>
      <trkpt lat="28.74232" lon="-13.94522">
        <ele>-2.6</ele>
        <time>2021-07-04 12:57:33</time>
      </trkpt>
      <trkpt lat="28.74231" lon="-13.94526">
        <ele>-2.6</ele>
        <time>2021-07-04 12:57:34</time>
      </trkpt>
      <trkpt lat="28.7423" lon="-13.9453">
        <ele>-3</ele>
        <time>2021-07-04 12:57:35</time>
      </trkpt>
      <trkpt lat="28.74229" lon="-13.94534">
        <ele>-3.2</ele>
        <time>2021-07-04 12:57:36</time>
      </trkpt>
      <trkpt lat="28.74228" lon="-13.94538">
        <ele>-3.4</ele>
        <time>2021-07-04 12:57:37</time>
      </trkpt>
      <trkpt lat="28.74227" lon="-13.94543">
        <ele>-3.4</ele>
        <time>2021-07-04 12:57:38</time>
      </trkpt>
      <trkpt lat="28.74226" lon="-13.94547">
        <ele>-3.4</ele>
        <time>2021-07-04 12:57:39</time>
      </trkpt>
      <trkpt lat="28.74225" lon="-13.94551">
        <ele>-3.4</ele>
        <time>2021-07-04 12:57:40</time>
      </trkpt>
      <trkpt lat="28.74224" lon="-13.94555">
        <ele>-3.8</ele>
        <time>2021-07-04 12:57:41</time>
      </trkpt>
      <trkpt lat="28.74223" lon="-13.9456">
        <ele>-3.8</ele>
        <time>2021-07-04 12:57:42</time>
      </trkpt>
      <trkpt lat="28.74221" lon="-13.94564">
        <ele>-3.8</ele>
        <time>2021-07-04 12:57:43</time>
      </trkpt>
      <trkpt lat="28.74219" lon="-13.94568">
        <ele>-3.8</ele>
        <time>2021-07-04 12:57:44</time>
      </trkpt>
      <trkpt lat="28.74217" lon="-13.94572">
        <ele>-4</ele>
        <time>2021-07-04 12:57:45</time>
      </trkpt>
      <trkpt lat="28.74215" lon="-13.94575">
        <ele>-4.2</ele>
        <time>2021-07-04 12:57:46</time>
      </trkpt>
      <trkpt lat="28.74212" lon="-13.94578">
        <ele>-4.4</ele>
        <time>2021-07-04 12:57:47</time>
      </trkpt>
      <trkpt lat="28.74209" lon="-13.94581">
        <ele>-4.4</ele>
        <time>2021-07-04 12:57:48</time>
      </trkpt>
      <trkpt lat="28.74207" lon="-13.94584">
        <ele>-4.4</ele>
        <time>2021-07-04 12:57:49</time>
      </trkpt>
      <trkpt lat="28.74205" lon="-13.94588">
        <ele>-4.4</ele>
        <time>2021-07-04 12:57:50</time>
      </trkpt>
      <trkpt lat="28.74204" lon="-13.94591">
        <ele>-4.6</ele>
        <time>2021-07-04 12:57:51</time>
      </trkpt>
      <trkpt lat="28.74201" lon="-13.94595">
        <ele>-4.6</ele>
        <time>2021-07-04 12:57:52</time>
      </trkpt>
      <trkpt lat="28.74199" lon="-13.94597">
        <ele>-4.6</ele>
        <time>2021-07-04 12:57:53</time>
      </trkpt>
      <trkpt lat="28.74195" lon="-13.946">
        <ele>-5</ele>
        <time>2021-07-04 12:57:54</time>
      </trkpt>
      <trkpt lat="28.74192" lon="-13.94603">
        <ele>-5</ele>
        <time>2021-07-04 12:57:55</time>
      </trkpt>
      <trkpt lat="28.74189" lon="-13.94607">
        <ele>-5.2</ele>
        <time>2021-07-04 12:57:56</time>
      </trkpt>
      <trkpt lat="28.74186" lon="-13.94611">
        <ele>-5.2</ele>
        <time>2021-07-04 12:57:57</time>
      </trkpt>
      <trkpt lat="28.74183" lon="-13.94615">
        <ele>-5.6</ele>
        <time>2021-07-04 12:57:58</time>
      </trkpt>
      <trkpt lat="28.7418" lon="-13.94619">
        <ele>-5.6</ele>
        <time>2021-07-04 12:57:59</time>
      </trkpt>
      <trkpt lat="28.74178" lon="-13.94624">
        <ele>-5.6</ele>
        <time>2021-07-04 12:58:00</time>
      </trkpt>
      <trkpt lat="28.74176" lon="-13.94629">
        <ele>-5.6</ele>
        <time>2021-07-04 12:58:01</time>
      </trkpt>
      <trkpt lat="28.74174" lon="-13.94634">
        <ele>-5.6</ele>
        <time>2021-07-04 12:58:02</time>
      </trkpt>
      <trkpt lat="28.74173" lon="-13.94638">
        <ele>-5.6</ele>
        <time>2021-07-04 12:58:03</time>
      </trkpt>
      <trkpt lat="28.74173" lon="-13.94643">
        <ele>-5.6</ele>
        <time>2021-07-04 12:58:04</time>
      </trkpt>
      <trkpt lat="28.74172" lon="-13.94647">
        <ele>-5.4</ele>
        <time>2021-07-04 12:58:05</time>
      </trkpt>
      <trkpt lat="28.74172" lon="-13.9465">
        <ele>-5.2</ele>
        <time>2021-07-04 12:58:06</time>
      </trkpt>
      <trkpt lat="28.74172" lon="-13.94654">
        <ele>-4.8</ele>
        <time>2021-07-04 12:58:07</time>
      </trkpt>
      <trkpt lat="28.74172" lon="-13.94658">
        <ele>-4.4</ele>
        <time>2021-07-04 12:58:08</time>
      </trkpt>
      <trkpt lat="28.74172" lon="-13.94661">
        <ele>-4.2</ele>
        <time>2021-07-04 12:58:09</time>
      </trkpt>
      <trkpt lat="28.74172" lon="-13.94664">
        <ele>-3.8</ele>
        <time>2021-07-04 12:58:10</time>
      </trkpt>
      <trkpt lat="28.74173" lon="-13.94667">
        <ele>-3.8</ele>
        <time>2021-07-04 12:58:11</time>
      </trkpt>
      <trkpt lat="28.74174" lon="-13.94671">
        <ele>-3.4</ele>
        <time>2021-07-04 12:58:12</time>
      </trkpt>
      <trkpt lat="28.74174" lon="-13.94674">
        <ele>-3.2</ele>
        <time>2021-07-04 12:58:13</time>
      </trkpt>
      <trkpt lat="28.74175" lon="-13.94678">
        <ele>-2.8</ele>
        <time>2021-07-04 12:58:14</time>
      </trkpt>
      <trkpt lat="28.74175" lon="-13.94682">
        <ele>-2.6</ele>
        <time>2021-07-04 12:58:15</time>
      </trkpt>
      <trkpt lat="28.74176" lon="-13.94686">
        <ele>-2.2</ele>
        <time>2021-07-04 12:58:16</time>
      </trkpt>
      <trkpt lat="28.74176" lon="-13.9469">
        <ele>-2</ele>
        <time>2021-07-04 12:58:17</time>
      </trkpt>
      <trkpt lat="28.74176" lon="-13.94694">
        <ele>-1.8</ele>
        <time>2021-07-04 12:58:18</time>
      </trkpt>
      <trkpt lat="28.74176" lon="-13.94699">
        <ele>-1.8</ele>
        <time>2021-07-04 12:58:19</time>
      </trkpt>
      <trkpt lat="28.74174" lon="-13.94703">
        <ele>-1.8</ele>
        <time>2021-07-04 12:58:20</time>
      </trkpt>
      <trkpt lat="28.74172" lon="-13.94708">
        <ele>-1.8</ele>
        <time>2021-07-04 12:58:21</time>
      </trkpt>
      <trkpt lat="28.74169" lon="-13.94712">
        <ele>-1.8</ele>
        <time>2021-07-04 12:58:22</time>
      </trkpt>
      <trkpt lat="28.74167" lon="-13.94716">
        <ele>-2</ele>
        <time>2021-07-04 12:58:23</time>
      </trkpt>
      <trkpt lat="28.74164" lon="-13.94721">
        <ele>-2</ele>
        <time>2021-07-04 12:58:24</time>
      </trkpt>
      <trkpt lat="28.74161" lon="-13.94725">
        <ele>-2</ele>
        <time>2021-07-04 12:58:25</time>
      </trkpt>
      <trkpt lat="28.74157" lon="-13.94729">
        <ele>-2.4</ele>
        <time>2021-07-04 12:58:26</time>
      </trkpt>
      <trkpt lat="28.74154" lon="-13.94733">
        <ele>-2.6</ele>
        <time>2021-07-04 12:58:27</time>
      </trkpt>
      <trkpt lat="28.7415" lon="-13.94736">
        <ele>-2.6</ele>
        <time>2021-07-04 12:58:28</time>
      </trkpt>
      <trkpt lat="28.74146" lon="-13.9474">
        <ele>-3</ele>
        <time>2021-07-04 12:58:29</time>
      </trkpt>
      <trkpt lat="28.74141" lon="-13.94743">
        <ele>-3</ele>
        <time>2021-07-04 12:58:30</time>
      </trkpt>
      <trkpt lat="28.74137" lon="-13.94746">
        <ele>-3.4</ele>
        <time>2021-07-04 12:58:31</time>
      </trkpt>
      <trkpt lat="28.74132" lon="-13.9475">
        <ele>-3.6</ele>
        <time>2021-07-04 12:58:32</time>
      </trkpt>
      <trkpt lat="28.74127" lon="-13.94753">
        <ele>-3.8</ele>
        <time>2021-07-04 12:58:33</time>
      </trkpt>
      <trkpt lat="28.74123" lon="-13.94757">
        <ele>-3.8</ele>
        <time>2021-07-04 12:58:34</time>
      </trkpt>
      <trkpt lat="28.74118" lon="-13.94761">
        <ele>-4.2</ele>
        <time>2021-07-04 12:58:35</time>
      </trkpt>
      <trkpt lat="28.74113" lon="-13.94765">
        <ele>-4.4</ele>
        <time>2021-07-04 12:58:36</time>
      </trkpt>
      <trkpt lat="28.74108" lon="-13.94769">
        <ele>-4.4</ele>
        <time>2021-07-04 12:58:37</time>
      </trkpt>
      <trkpt lat="28.74104" lon="-13.94773">
        <ele>-4.6</ele>
        <time>2021-07-04 12:58:38</time>
      </trkpt>
      <trkpt lat="28.74099" lon="-13.94776">
        <ele>-4.6</ele>
        <time>2021-07-04 12:58:39</time>
      </trkpt>
      <trkpt lat="28.74094" lon="-13.9478">
        <ele>-4.6</ele>
        <time>2021-07-04 12:58:40</time>
      </trkpt>
      <trkpt lat="28.74089" lon="-13.94783">
        <ele>-5</ele>
        <time>2021-07-04 12:58:41</time>
      </trkpt>
      <trkpt lat="28.74085" lon="-13.94788">
        <ele>-5</ele>
        <time>2021-07-04 12:58:42</time>
      </trkpt>
      <trkpt lat="28.7408" lon="-13.94792">
        <ele>-5</ele>
        <time>2021-07-04 12:58:43</time>
      </trkpt>
      <trkpt lat="28.74075" lon="-13.94796">
        <ele>-5.2</ele>
        <time>2021-07-04 12:58:44</time>
      </trkpt>
      <trkpt lat="28.74071" lon="-13.948">
        <ele>-5.2</ele>
        <time>2021-07-04 12:58:45</time>
      </trkpt>
      <trkpt lat="28.74066" lon="-13.94804">
        <ele>-5.2</ele>
        <time>2021-07-04 12:58:46</time>
      </trkpt>
      <trkpt lat="28.74048" lon="-13.9482">
        <ele>-5.4</ele>
        <time>2021-07-04 12:58:47</time>
      </trkpt>
      <trkpt lat="28.74044" lon="-13.94824">
        <ele>-5.4</ele>
        <time>2021-07-04 12:58:48</time>
      </trkpt>
      <trkpt lat="28.74039" lon="-13.94827">
        <ele>-5.6</ele>
        <time>2021-07-04 12:58:49</time>
      </trkpt>
      <trkpt lat="28.74035" lon="-13.94831">
        <ele>-5.6</ele>
        <time>2021-07-04 12:58:50</time>
      </trkpt>
      <trkpt lat="28.7403" lon="-13.94835">
        <ele>-6.2</ele>
        <time>2021-07-04 12:58:51</time>
      </trkpt>
      <trkpt lat="28.74026" lon="-13.94839">
        <ele>-6.4</ele>
        <time>2021-07-04 12:58:52</time>
      </trkpt>
      <trkpt lat="28.74021" lon="-13.94843">
        <ele>-6.6</ele>
        <time>2021-07-04 12:58:53</time>
      </trkpt>
      <trkpt lat="28.74017" lon="-13.94847">
        <ele>-6.6</ele>
        <time>2021-07-04 12:58:54</time>
      </trkpt>
      <trkpt lat="28.74013" lon="-13.94851">
        <ele>-7</ele>
        <time>2021-07-04 12:58:55</time>
      </trkpt>
      <trkpt lat="28.74008" lon="-13.94855">
        <ele>-7</ele>
        <time>2021-07-04 12:58:56</time>
      </trkpt>
      <trkpt lat="28.74004" lon="-13.94859">
        <ele>-7</ele>
        <time>2021-07-04 12:58:57</time>
      </trkpt>
      <trkpt lat="28.74" lon="-13.94862">
        <ele>-7</ele>
        <time>2021-07-04 12:58:58</time>
      </trkpt>
      <trkpt lat="28.73996" lon="-13.94866">
        <ele>-7</ele>
        <time>2021-07-04 12:58:59</time>
      </trkpt>
      <trkpt lat="28.73992" lon="-13.94869">
        <ele>-7</ele>
        <time>2021-07-04 12:59:00</time>
      </trkpt>
      <trkpt lat="28.73987" lon="-13.94873">
        <ele>-7</ele>
        <time>2021-07-04 12:59:01</time>
      </trkpt>
      <trkpt lat="28.73983" lon="-13.94877">
        <ele>-7</ele>
        <time>2021-07-04 12:59:02</time>
      </trkpt>
      <trkpt lat="28.73979" lon="-13.94881">
        <ele>-7</ele>
        <time>2021-07-04 12:59:03</time>
      </trkpt>
      <trkpt lat="28.73976" lon="-13.94885">
        <ele>-7</ele>
        <time>2021-07-04 12:59:04</time>
      </trkpt>
      <trkpt lat="28.73972" lon="-13.94888">
        <ele>-7</ele>
        <time>2021-07-04 12:59:05</time>
      </trkpt>
      <trkpt lat="28.7397" lon="-13.94893">
        <ele>-7</ele>
        <time>2021-07-04 12:59:06</time>
      </trkpt>
      <trkpt lat="28.73967" lon="-13.94897">
        <ele>-6.8</ele>
        <time>2021-07-04 12:59:07</time>
      </trkpt>
      <trkpt lat="28.73966" lon="-13.94901">
        <ele>-6.8</ele>
        <time>2021-07-04 12:59:08</time>
      </trkpt>
      <trkpt lat="28.73964" lon="-13.94904">
        <ele>-6.8</ele>
        <time>2021-07-04 12:59:09</time>
      </trkpt>
      <trkpt lat="28.73964" lon="-13.94908">
        <ele>-6.8</ele>
        <time>2021-07-04 12:59:10</time>
      </trkpt>
      <trkpt lat="28.73963" lon="-13.94911">
        <ele>-6.8</ele>
        <time>2021-07-04 12:59:11</time>
      </trkpt>
      <trkpt lat="28.73963" lon="-13.94914">
        <ele>-6.8</ele>
        <time>2021-07-04 12:59:12</time>
      </trkpt>
      <trkpt lat="28.73963" lon="-13.94917">
        <ele>-6.8</ele>
        <time>2021-07-04 12:59:13</time>
      </trkpt>
      <trkpt lat="28.73963" lon="-13.94921">
        <ele>-6.6</ele>
        <time>2021-07-04 12:59:14</time>
      </trkpt>
      <trkpt lat="28.73963" lon="-13.94924">
        <ele>-6.6</ele>
        <time>2021-07-04 12:59:15</time>
      </trkpt>
      <trkpt lat="28.73964" lon="-13.94926">
        <ele>-6.2</ele>
        <time>2021-07-04 12:59:16</time>
      </trkpt>
      <trkpt lat="28.73964" lon="-13.94928">
        <ele>-6</ele>
        <time>2021-07-04 12:59:17</time>
      </trkpt>
      <trkpt lat="28.73964" lon="-13.94931">
        <ele>-5.6</ele>
        <time>2021-07-04 12:59:18</time>
      </trkpt>
      <trkpt lat="28.73965" lon="-13.94934">
        <ele>-5.2</ele>
        <time>2021-07-04 12:59:19</time>
      </trkpt>
      <trkpt lat="28.73965" lon="-13.94937">
        <ele>-5</ele>
        <time>2021-07-04 12:59:20</time>
      </trkpt>
      <trkpt lat="28.73965" lon="-13.9494">
        <ele>-4.8</ele>
        <time>2021-07-04 12:59:21</time>
      </trkpt>
      <trkpt lat="28.73965" lon="-13.94943">
        <ele>-4.4</ele>
        <time>2021-07-04 12:59:22</time>
      </trkpt>
      <trkpt lat="28.73965" lon="-13.94946">
        <ele>-4.2</ele>
        <time>2021-07-04 12:59:23</time>
      </trkpt>
      <trkpt lat="28.73964" lon="-13.94949">
        <ele>-4</ele>
        <time>2021-07-04 12:59:24</time>
      </trkpt>
      <trkpt lat="28.73964" lon="-13.94952">
        <ele>-3.6</ele>
        <time>2021-07-04 12:59:25</time>
      </trkpt>
      <trkpt lat="28.73963" lon="-13.94955">
        <ele>-3.4</ele>
        <time>2021-07-04 12:59:26</time>
      </trkpt>
      <trkpt lat="28.73962" lon="-13.94957">
        <ele>-3.2</ele>
        <time>2021-07-04 12:59:27</time>
      </trkpt>
      <trkpt lat="28.73962" lon="-13.9496">
        <ele>-3</ele>
        <time>2021-07-04 12:59:28</time>
      </trkpt>
      <trkpt lat="28.73961" lon="-13.94964">
        <ele>-2.6</ele>
        <time>2021-07-04 12:59:29</time>
      </trkpt>
      <trkpt lat="28.7396" lon="-13.94968">
        <ele>-2.4</ele>
        <time>2021-07-04 12:59:30</time>
      </trkpt>
      <trkpt lat="28.73959" lon="-13.94971">
        <ele>-2.2</ele>
        <time>2021-07-04 12:59:31</time>
      </trkpt>
      <trkpt lat="28.73957" lon="-13.94982">
        <ele>-1.8</ele>
        <time>2021-07-04 12:59:32</time>
      </trkpt>
      <trkpt lat="28.73956" lon="-13.94985">
        <ele>-1.8</ele>
        <time>2021-07-04 12:59:33</time>
      </trkpt>
      <trkpt lat="28.73956" lon="-13.94988">
        <ele>-1.8</ele>
        <time>2021-07-04 12:59:34</time>
      </trkpt>
      <trkpt lat="28.73955" lon="-13.9499">
        <ele>-1.8</ele>
        <time>2021-07-04 12:59:35</time>
      </trkpt>
      <trkpt lat="28.73955" lon="-13.94993">
        <ele>-1.6</ele>
        <time>2021-07-04 12:59:36</time>
      </trkpt>
      <trkpt lat="28.73954" lon="-13.94996">
        <ele>-1.6</ele>
        <time>2021-07-04 12:59:37</time>
      </trkpt>
      <trkpt lat="28.73953" lon="-13.94999">
        <ele>-1.6</ele>
        <time>2021-07-04 12:59:38</time>
      </trkpt>
      <trkpt lat="28.73953" lon="-13.95002">
        <ele>-1.6</ele>
        <time>2021-07-04 12:59:39</time>
      </trkpt>
      <trkpt lat="28.73952" lon="-13.95005">
        <ele>-1.6</ele>
        <time>2021-07-04 12:59:40</time>
      </trkpt>
      <trkpt lat="28.73952" lon="-13.95008">
        <ele>-1.6</ele>
        <time>2021-07-04 12:59:41</time>
      </trkpt>
      <trkpt lat="28.73952" lon="-13.95011">
        <ele>-1.4</ele>
        <time>2021-07-04 12:59:42</time>
      </trkpt>
      <trkpt lat="28.73952" lon="-13.95012">
        <ele>-1.4</ele>
        <time>2021-07-04 12:59:43</time>
      </trkpt>
      <trkpt lat="28.73952" lon="-13.95012">
        <ele>-1.4</ele>
        <time>2021-07-04 12:59:44</time>
      </trkpt>
      <trkpt lat="28.73952" lon="-13.95012">
        <ele>-1.4</ele>
        <time>2021-07-04 12:59:45</time>
      </trkpt>
      <trkpt lat="28.73951" lon="-13.95012">
        <ele>0.2</ele>
        <time>2021-07-04 12:59:46</time>
      </trkpt>
      <trkpt lat="28.73951" lon="-13.95012">
        <time>2021-07-04 12:59:47</time>
      </trkpt>
      <trkpt lat="28.7395" lon="-13.95015">
        <ele>-0.4</ele>
        <time>2021-07-04 12:59:48</time>
      </trkpt>
      <trkpt lat="28.73949" lon="-13.95018">
        <ele>-0.6</ele>
        <time>2021-07-04 12:59:49</time>
      </trkpt>
      <trkpt lat="28.73949" lon="-13.95021">
        <ele>-0.8</ele>
        <time>2021-07-04 12:59:50</time>
      </trkpt>
      <trkpt lat="28.73948" lon="-13.95024">
        <ele>-1.2</ele>
        <time>2021-07-04 12:59:51</time>
      </trkpt>
      <trkpt lat="28.73948" lon="-13.95028">
        <ele>-1.4</ele>
        <time>2021-07-04 12:59:52</time>
      </trkpt>
      <trkpt lat="28.73947" lon="-13.95031">
        <ele>-1.4</ele>
        <time>2021-07-04 12:59:53</time>
      </trkpt>
      <trkpt lat="28.73946" lon="-13.95035">
        <ele>-1.6</ele>
        <time>2021-07-04 12:59:54</time>
      </trkpt>
      <trkpt lat="28.73945" lon="-13.95038">
        <ele>-1.6</ele>
        <time>2021-07-04 12:59:55</time>
      </trkpt>
      <trkpt lat="28.73944" lon="-13.95042">
        <ele>-1.6</ele>
        <time>2021-07-04 12:59:56</time>
      </trkpt>
      <trkpt lat="28.73943" lon="-13.95046">
        <ele>-1.6</ele>
        <time>2021-07-04 12:59:57</time>
      </trkpt>
      <trkpt lat="28.73942" lon="-13.95049">
        <ele>-1.6</ele>
        <time>2021-07-04 13:00:54</time>
      </trkpt>
      <trkpt lat="28.73941" lon="-13.95053">
        <ele>-1.6</ele>
        <time>2021-07-04 13:00:55</time>
      </trkpt>
      <trkpt lat="28.7394" lon="-13.95057">
        <ele>-1.2</ele>
        <time>2021-07-04 13:00:56</time>
      </trkpt>
      <trkpt lat="28.73939" lon="-13.95061">
        <ele>-1.2</ele>
        <time>2021-07-04 13:00:57</time>
      </trkpt>
      <trkpt lat="28.73937" lon="-13.95064">
        <ele>-1.2</ele>
        <time>2021-07-04 13:00:58</time>
      </trkpt>
      <trkpt lat="28.73935" lon="-13.95067">
        <ele>-1.2</ele>
        <time>2021-07-04 13:00:59</time>
      </trkpt>
      <trkpt lat="28.73933" lon="-13.9507">
        <ele>-1.2</ele>
        <time>2021-07-04 13:01:00</time>
      </trkpt>
      <trkpt lat="28.73931" lon="-13.95073">
        <ele>-1.4</ele>
        <time>2021-07-04 13:01:01</time>
      </trkpt>
      <trkpt lat="28.73929" lon="-13.95076">
        <ele>-1.4</ele>
        <time>2021-07-04 13:01:02</time>
      </trkpt>
      <trkpt lat="28.73926" lon="-13.95079">
        <ele>-1.4</ele>
        <time>2021-07-04 13:01:03</time>
      </trkpt>
      <trkpt lat="28.73924" lon="-13.95082">
        <ele>-1.8</ele>
        <time>2021-07-04 13:01:04</time>
      </trkpt>
      <trkpt lat="28.73921" lon="-13.95085">
        <ele>-1.8</ele>
        <time>2021-07-04 13:01:05</time>
      </trkpt>
      <trkpt lat="28.73918" lon="-13.95088">
        <ele>-1.8</ele>
        <time>2021-07-04 13:01:06</time>
      </trkpt>
      <trkpt lat="28.73914" lon="-13.95091">
        <ele>-2</ele>
        <time>2021-07-04 13:01:07</time>
      </trkpt>
      <trkpt lat="28.73911" lon="-13.95093">
        <ele>-2</ele>
        <time>2021-07-04 13:01:08</time>
      </trkpt>
      <trkpt lat="28.73908" lon="-13.95096">
        <ele>-2.2</ele>
        <time>2021-07-04 13:01:09</time>
      </trkpt>
      <trkpt lat="28.73905" lon="-13.95098">
        <ele>-2.2</ele>
        <time>2021-07-04 13:01:10</time>
      </trkpt>
      <trkpt lat="28.73902" lon="-13.951">
        <ele>-2.2</ele>
        <time>2021-07-04 13:01:11</time>
      </trkpt>
      <trkpt lat="28.73898" lon="-13.95101">
        <ele>-2.6</ele>
        <time>2021-07-04 13:01:12</time>
      </trkpt>
      <trkpt lat="28.73895" lon="-13.95102">
        <ele>-2.6</ele>
        <time>2021-07-04 13:01:13</time>
      </trkpt>
      <trkpt lat="28.73891" lon="-13.95103">
        <ele>-2.6</ele>
        <time>2021-07-04 13:01:14</time>
      </trkpt>
      <trkpt lat="28.73886" lon="-13.95103">
        <ele>-3</ele>
        <time>2021-07-04 13:01:15</time>
      </trkpt>
      <trkpt lat="28.73882" lon="-13.95103">
        <ele>-3.2</ele>
        <time>2021-07-04 13:01:16</time>
      </trkpt>
      <trkpt lat="28.73877" lon="-13.95104">
        <ele>-3.4</ele>
        <time>2021-07-04 13:01:17</time>
      </trkpt>
      <trkpt lat="28.73872" lon="-13.95105">
        <ele>-3.6</ele>
        <time>2021-07-04 13:01:18</time>
      </trkpt>
      <trkpt lat="28.73866" lon="-13.95106">
        <ele>-3.8</ele>
        <time>2021-07-04 13:01:19</time>
      </trkpt>
      <trkpt lat="28.7386" lon="-13.95108">
        <ele>-4.2</ele>
        <time>2021-07-04 13:01:20</time>
      </trkpt>
      <trkpt lat="28.73854" lon="-13.95109">
        <ele>-4.4</ele>
        <time>2021-07-04 13:01:21</time>
      </trkpt>
      <trkpt lat="28.73848" lon="-13.95111">
        <ele>-4.8</ele>
        <time>2021-07-04 13:01:22</time>
      </trkpt>
      <trkpt lat="28.73842" lon="-13.95114">
        <ele>-4.8</ele>
        <time>2021-07-04 13:01:23</time>
      </trkpt>
      <trkpt lat="28.73836" lon="-13.95117">
        <ele>-5.2</ele>
        <time>2021-07-04 13:01:24</time>
      </trkpt>
      <trkpt lat="28.7383" lon="-13.9512">
        <ele>-5.6</ele>
        <time>2021-07-04 13:01:25</time>
      </trkpt>
      <trkpt lat="28.73825" lon="-13.95124">
        <ele>-5.8</ele>
        <time>2021-07-04 13:01:26</time>
      </trkpt>
      <trkpt lat="28.73821" lon="-13.95128">
        <ele>-5.8</ele>
        <time>2021-07-04 13:01:27</time>
      </trkpt>
      <trkpt lat="28.73816" lon="-13.95133">
        <ele>-5.8</ele>
        <time>2021-07-04 13:01:28</time>
      </trkpt>
      <trkpt lat="28.73813" lon="-13.95137">
        <ele>-5.8</ele>
        <time>2021-07-04 13:01:29</time>
      </trkpt>
      <trkpt lat="28.7381" lon="-13.95141">
        <ele>-5.8</ele>
        <time>2021-07-04 13:01:30</time>
      </trkpt>
      <trkpt lat="28.73807" lon="-13.95146">
        <ele>-5.8</ele>
        <time>2021-07-04 13:01:31</time>
      </trkpt>
      <trkpt lat="28.73804" lon="-13.9515">
        <ele>-5.4</ele>
        <time>2021-07-04 13:01:32</time>
      </trkpt>
      <trkpt lat="28.73802" lon="-13.95154">
        <ele>-5.4</ele>
        <time>2021-07-04 13:01:33</time>
      </trkpt>
      <trkpt lat="28.73799" lon="-13.95159">
        <ele>-5</ele>
        <time>2021-07-04 13:01:34</time>
      </trkpt>
      <trkpt lat="28.73796" lon="-13.95164">
        <ele>-4.6</ele>
        <time>2021-07-04 13:01:35</time>
      </trkpt>
      <trkpt lat="28.73794" lon="-13.9517">
        <ele>-4.4</ele>
        <time>2021-07-04 13:01:36</time>
      </trkpt>
      <trkpt lat="28.73792" lon="-13.95175">
        <ele>-4.4</ele>
        <time>2021-07-04 13:01:37</time>
      </trkpt>
      <trkpt lat="28.73791" lon="-13.95181">
        <ele>-4.2</ele>
        <time>2021-07-04 13:01:38</time>
      </trkpt>
      <trkpt lat="28.73789" lon="-13.95186">
        <ele>-4.2</ele>
        <time>2021-07-04 13:01:39</time>
      </trkpt>
      <trkpt lat="28.73789" lon="-13.95192">
        <ele>-3.8</ele>
        <time>2021-07-04 13:01:40</time>
      </trkpt>
      <trkpt lat="28.73788" lon="-13.95197">
        <ele>-3.8</ele>
        <time>2021-07-04 13:01:41</time>
      </trkpt>
      <trkpt lat="28.73788" lon="-13.95203">
        <ele>-3.8</ele>
        <time>2021-07-04 13:01:42</time>
      </trkpt>
      <trkpt lat="28.73789" lon="-13.95208">
        <ele>-3.6</ele>
        <time>2021-07-04 13:01:43</time>
      </trkpt>
      <trkpt lat="28.73791" lon="-13.95213">
        <ele>-3.6</ele>
        <time>2021-07-04 13:01:44</time>
      </trkpt>
      <trkpt lat="28.73793" lon="-13.95217">
        <ele>-3.6</ele>
        <time>2021-07-04 13:01:45</time>
      </trkpt>
      <trkpt lat="28.73796" lon="-13.95222">
        <ele>-3.6</ele>
        <time>2021-07-04 13:01:46</time>
      </trkpt>
      <trkpt lat="28.73798" lon="-13.95226">
        <ele>-3.6</ele>
        <time>2021-07-04 13:01:47</time>
      </trkpt>
      <trkpt lat="28.73801" lon="-13.95229">
        <ele>-3.6</ele>
        <time>2021-07-04 13:01:48</time>
      </trkpt>
      <trkpt lat="28.73803" lon="-13.95233">
        <ele>-3.2</ele>
        <time>2021-07-04 13:01:49</time>
      </trkpt>
      <trkpt lat="28.73805" lon="-13.95237">
        <ele>-3.2</ele>
        <time>2021-07-04 13:01:50</time>
      </trkpt>
      <trkpt lat="28.73806" lon="-13.95241">
        <ele>-2.8</ele>
        <time>2021-07-04 13:01:51</time>
      </trkpt>
      <trkpt lat="28.73807" lon="-13.95245">
        <ele>-2.6</ele>
        <time>2021-07-04 13:01:52</time>
      </trkpt>
      <trkpt lat="28.73807" lon="-13.9525">
        <ele>-2.6</ele>
        <time>2021-07-04 13:01:53</time>
      </trkpt>
      <trkpt lat="28.73807" lon="-13.95254">
        <ele>-2.6</ele>
        <time>2021-07-04 13:01:54</time>
      </trkpt>
      <trkpt lat="28.73807" lon="-13.95259">
        <ele>-2.6</ele>
        <time>2021-07-04 13:01:55</time>
      </trkpt>
      <trkpt lat="28.73806" lon="-13.95263">
        <ele>-2.6</ele>
        <time>2021-07-04 13:01:56</time>
      </trkpt>
      <trkpt lat="28.73804" lon="-13.95268">
        <ele>-2.6</ele>
        <time>2021-07-04 13:01:57</time>
      </trkpt>
      <trkpt lat="28.73802" lon="-13.95272">
        <ele>-2.6</ele>
        <time>2021-07-04 13:01:58</time>
      </trkpt>
      <trkpt lat="28.738" lon="-13.95275">
        <ele>-2.6</ele>
        <time>2021-07-04 13:01:59</time>
      </trkpt>
      <trkpt lat="28.73797" lon="-13.95279">
        <ele>-2.6</ele>
        <time>2021-07-04 13:02:00</time>
      </trkpt>
      <trkpt lat="28.73795" lon="-13.95282">
        <ele>-2.6</ele>
        <time>2021-07-04 13:02:01</time>
      </trkpt>
      <trkpt lat="28.73792" lon="-13.95286">
        <ele>-2.6</ele>
        <time>2021-07-04 13:02:02</time>
      </trkpt>
      <trkpt lat="28.73788" lon="-13.95289">
        <ele>-2.6</ele>
        <time>2021-07-04 13:02:03</time>
      </trkpt>
      <trkpt lat="28.73785" lon="-13.95291">
        <ele>-2.6</ele>
        <time>2021-07-04 13:02:04</time>
      </trkpt>
      <trkpt lat="28.73781" lon="-13.95294">
        <ele>-2.6</ele>
        <time>2021-07-04 13:02:05</time>
      </trkpt>
      <trkpt lat="28.73777" lon="-13.95296">
        <ele>-2.6</ele>
        <time>2021-07-04 13:02:06</time>
      </trkpt>
      <trkpt lat="28.73774" lon="-13.95299">
        <ele>-2.8</ele>
        <time>2021-07-04 13:02:07</time>
      </trkpt>
      <trkpt lat="28.7377" lon="-13.95301">
        <ele>-2.8</ele>
        <time>2021-07-04 13:02:08</time>
      </trkpt>
      <trkpt lat="28.73766" lon="-13.95304">
        <ele>-2.8</ele>
        <time>2021-07-04 13:02:09</time>
      </trkpt>
      <trkpt lat="28.73762" lon="-13.95306">
        <ele>-2.8</ele>
        <time>2021-07-04 13:02:10</time>
      </trkpt>
      <trkpt lat="28.73759" lon="-13.95309">
        <ele>-2.8</ele>
        <time>2021-07-04 13:02:11</time>
      </trkpt>
      <trkpt lat="28.73754" lon="-13.95311">
        <ele>-3</ele>
        <time>2021-07-04 13:02:12</time>
      </trkpt>
      <trkpt lat="28.7375" lon="-13.95312">
        <ele>-3</ele>
        <time>2021-07-04 13:02:13</time>
      </trkpt>
      <trkpt lat="28.73745" lon="-13.95314">
        <ele>-3.2</ele>
        <time>2021-07-04 13:02:14</time>
      </trkpt>
      <trkpt lat="28.7374" lon="-13.95315">
        <ele>-3.2</ele>
        <time>2021-07-04 13:02:15</time>
      </trkpt>
      <trkpt lat="28.73736" lon="-13.95315">
        <ele>-3.2</ele>
        <time>2021-07-04 13:02:16</time>
      </trkpt>
      <trkpt lat="28.73733" lon="-13.95317">
        <ele>-3.2</ele>
        <time>2021-07-04 13:02:17</time>
      </trkpt>
      <trkpt lat="28.7373" lon="-13.95317">
        <ele>-3.2</ele>
        <time>2021-07-04 13:02:18</time>
      </trkpt>
      <trkpt lat="28.73726" lon="-13.95318">
        <ele>-3.2</ele>
        <time>2021-07-04 13:02:19</time>
      </trkpt>
      <trkpt lat="28.73723" lon="-13.95319">
        <ele>-2.8</ele>
        <time>2021-07-04 13:02:20</time>
      </trkpt>
      <trkpt lat="28.7372" lon="-13.9532">
        <ele>-2.8</ele>
        <time>2021-07-04 13:02:21</time>
      </trkpt>
      <trkpt lat="28.73717" lon="-13.95322">
        <ele>-2.6</ele>
        <time>2021-07-04 13:02:22</time>
      </trkpt>
      <trkpt lat="28.73714" lon="-13.95325">
        <ele>-2.4</ele>
        <time>2021-07-04 13:02:23</time>
      </trkpt>
      <trkpt lat="28.73713" lon="-13.95328">
        <ele>-2</ele>
        <time>2021-07-04 13:02:24</time>
      </trkpt>
      <trkpt lat="28.73712" lon="-13.95332">
        <ele>-1.6</ele>
        <time>2021-07-04 13:02:25</time>
      </trkpt>
      <trkpt lat="28.7371" lon="-13.95336">
        <ele>-1</ele>
        <time>2021-07-04 13:02:26</time>
      </trkpt>
      <trkpt lat="28.7371" lon="-13.9534">
        <ele>-0.6</ele>
        <time>2021-07-04 13:02:27</time>
      </trkpt>
      <trkpt lat="28.73709" lon="-13.95344">
        <ele>-0.2</ele>
        <time>2021-07-04 13:02:28</time>
      </trkpt>
      <trkpt lat="28.73708" lon="-13.95347">
        <ele>0.4</ele>
        <time>2021-07-04 13:02:29</time>
      </trkpt>
      <trkpt lat="28.73707" lon="-13.95351">
        <ele>1</ele>
        <time>2021-07-04 13:02:30</time>
      </trkpt>
      <trkpt lat="28.73706" lon="-13.95354">
        <ele>1.4</ele>
        <time>2021-07-04 13:02:31</time>
      </trkpt>
      <trkpt lat="28.73705" lon="-13.95357">
        <ele>1.8</ele>
        <time>2021-07-04 13:02:32</time>
      </trkpt>
      <trkpt lat="28.73704" lon="-13.9536">
        <ele>2.2</ele>
        <time>2021-07-04 13:02:33</time>
      </trkpt>
      <trkpt lat="28.73703" lon="-13.95363">
        <ele>2.4</ele>
        <time>2021-07-04 13:02:34</time>
      </trkpt>
      <trkpt lat="28.73701" lon="-13.95366">
        <ele>2.8</ele>
        <time>2021-07-04 13:02:35</time>
      </trkpt>
      <trkpt lat="28.737" lon="-13.95369">
        <ele>3</ele>
        <time>2021-07-04 13:02:36</time>
      </trkpt>
      <trkpt lat="28.73698" lon="-13.95371">
        <ele>3.2</ele>
        <time>2021-07-04 13:02:37</time>
      </trkpt>
      <trkpt lat="28.73696" lon="-13.95374">
        <ele>3.4</ele>
        <time>2021-07-04 13:02:38</time>
      </trkpt>
      <trkpt lat="28.73693" lon="-13.95376">
        <ele>3.8</ele>
        <time>2021-07-04 13:02:39</time>
      </trkpt>
      <trkpt lat="28.7369" lon="-13.95378">
        <ele>4</ele>
        <time>2021-07-04 13:02:40</time>
      </trkpt>
      <trkpt lat="28.73688" lon="-13.9538">
        <ele>4</ele>
        <time>2021-07-04 13:02:41</time>
      </trkpt>
      <trkpt lat="28.73685" lon="-13.95382">
        <ele>4.4</ele>
        <time>2021-07-04 13:02:42</time>
      </trkpt>
      <trkpt lat="28.73683" lon="-13.95384">
        <ele>4.4</ele>
        <time>2021-07-04 13:02:43</time>
      </trkpt>
      <trkpt lat="28.7368" lon="-13.95385">
        <ele>5</ele>
        <time>2021-07-04 13:02:44</time>
      </trkpt>
      <trkpt lat="28.73678" lon="-13.95387">
        <ele>5</ele>
        <time>2021-07-04 13:02:45</time>
      </trkpt>
      <trkpt lat="28.73676" lon="-13.95388">
        <ele>5.4</ele>
        <time>2021-07-04 13:02:46</time>
      </trkpt>
      <trkpt lat="28.73674" lon="-13.9539">
        <ele>5.4</ele>
        <time>2021-07-04 13:02:47</time>
      </trkpt>
      <trkpt lat="28.73672" lon="-13.95392">
        <ele>5.6</ele>
        <time>2021-07-04 13:02:48</time>
      </trkpt>
      <trkpt lat="28.7367" lon="-13.95393">
        <ele>5.6</ele>
        <time>2021-07-04 13:02:49</time>
      </trkpt>
      <trkpt lat="28.73668" lon="-13.95395">
        <ele>6</ele>
        <time>2021-07-04 13:02:50</time>
      </trkpt>
      <trkpt lat="28.73666" lon="-13.95397">
        <ele>6</ele>
        <time>2021-07-04 13:02:51</time>
      </trkpt>
      <trkpt lat="28.73664" lon="-13.95399">
        <ele>6.2</ele>
        <time>2021-07-04 13:02:52</time>
      </trkpt>
      <trkpt lat="28.73662" lon="-13.95401">
        <ele>6.2</ele>
        <time>2021-07-04 13:02:53</time>
      </trkpt>
      <trkpt lat="28.73659" lon="-13.95404">
        <ele>6.6</ele>
        <time>2021-07-04 13:02:54</time>
      </trkpt>
      <trkpt lat="28.73656" lon="-13.95407">
        <ele>6.6</ele>
        <time>2021-07-04 13:02:55</time>
      </trkpt>
      <trkpt lat="28.73652" lon="-13.9541">
        <ele>6.8</ele>
        <time>2021-07-04 13:02:56</time>
      </trkpt>
      <trkpt lat="28.73648" lon="-13.95414">
        <ele>6.8</ele>
        <time>2021-07-04 13:02:57</time>
      </trkpt>
      <trkpt lat="28.73644" lon="-13.95417">
        <ele>6.8</ele>
        <time>2021-07-04 13:02:58</time>
      </trkpt>
      <trkpt lat="28.7364" lon="-13.95421">
        <ele>6.8</ele>
        <time>2021-07-04 13:02:59</time>
      </trkpt>
      <trkpt lat="28.73636" lon="-13.95425">
        <ele>6.6</ele>
        <time>2021-07-04 13:03:00</time>
      </trkpt>
      <trkpt lat="28.73632" lon="-13.95429">
        <ele>6.6</ele>
        <time>2021-07-04 13:03:01</time>
      </trkpt>
      <trkpt lat="28.73629" lon="-13.95433">
        <ele>6.6</ele>
        <time>2021-07-04 13:03:02</time>
      </trkpt>
      <trkpt lat="28.73626" lon="-13.95436">
        <ele>6.6</ele>
        <time>2021-07-04 13:03:03</time>
      </trkpt>
      <trkpt lat="28.73623" lon="-13.95439">
        <ele>6.4</ele>
        <time>2021-07-04 13:03:04</time>
      </trkpt>
      <trkpt lat="28.7362" lon="-13.95442">
        <ele>6.4</ele>
        <time>2021-07-04 13:03:05</time>
      </trkpt>
      <trkpt lat="28.73616" lon="-13.95445">
        <ele>6</ele>
        <time>2021-07-04 13:03:06</time>
      </trkpt>
      <trkpt lat="28.73612" lon="-13.95449">
        <ele>5.8</ele>
        <time>2021-07-04 13:03:07</time>
      </trkpt>
      <trkpt lat="28.73609" lon="-13.95453">
        <ele>5.8</ele>
        <time>2021-07-04 13:03:08</time>
      </trkpt>
      <trkpt lat="28.73605" lon="-13.95457">
        <ele>5.6</ele>
        <time>2021-07-04 13:03:09</time>
      </trkpt>
      <trkpt lat="28.73602" lon="-13.9546">
        <ele>5.6</ele>
        <time>2021-07-04 13:03:10</time>
      </trkpt>
      <trkpt lat="28.73599" lon="-13.95463">
        <ele>5.6</ele>
        <time>2021-07-04 13:03:11</time>
      </trkpt>
      <trkpt lat="28.73595" lon="-13.95466">
        <ele>5.6</ele>
        <time>2021-07-04 13:03:12</time>
      </trkpt>
      <trkpt lat="28.73592" lon="-13.95469">
        <ele>5.4</ele>
        <time>2021-07-04 13:03:13</time>
      </trkpt>
      <trkpt lat="28.73589" lon="-13.95472">
        <ele>5.4</ele>
        <time>2021-07-04 13:03:14</time>
      </trkpt>
      <trkpt lat="28.73585" lon="-13.95476">
        <ele>5.4</ele>
        <time>2021-07-04 13:03:15</time>
      </trkpt>
      <trkpt lat="28.73581" lon="-13.9548">
        <ele>5.2</ele>
        <time>2021-07-04 13:03:16</time>
      </trkpt>
      <trkpt lat="28.73578" lon="-13.95483">
        <ele>5.2</ele>
        <time>2021-07-04 13:03:17</time>
      </trkpt>
      <trkpt lat="28.73574" lon="-13.95487">
        <ele>5.2</ele>
        <time>2021-07-04 13:03:18</time>
      </trkpt>
      <trkpt lat="28.73569" lon="-13.95492">
        <ele>4.8</ele>
        <time>2021-07-04 13:03:19</time>
      </trkpt>
      <trkpt lat="28.73565" lon="-13.95496">
        <ele>4.8</ele>
        <time>2021-07-04 13:03:20</time>
      </trkpt>
      <trkpt lat="28.7356" lon="-13.95502">
        <ele>4.8</ele>
        <time>2021-07-04 13:03:21</time>
      </trkpt>
      <trkpt lat="28.73555" lon="-13.95507">
        <ele>4.4</ele>
        <time>2021-07-04 13:03:22</time>
      </trkpt>
      <trkpt lat="28.73551" lon="-13.95512">
        <ele>4.2</ele>
        <time>2021-07-04 13:03:23</time>
      </trkpt>
      <trkpt lat="28.73546" lon="-13.95518">
        <ele>3.8</ele>
        <time>2021-07-04 13:03:24</time>
      </trkpt>
      <trkpt lat="28.73541" lon="-13.95524">
        <ele>3.4</ele>
        <time>2021-07-04 13:03:25</time>
      </trkpt>
      <trkpt lat="28.73536" lon="-13.9553">
        <ele>3</ele>
        <time>2021-07-04 13:03:26</time>
      </trkpt>
      <trkpt lat="28.73531" lon="-13.95537">
        <ele>2.6</ele>
        <time>2021-07-04 13:03:27</time>
      </trkpt>
      <trkpt lat="28.73527" lon="-13.95544">
        <ele>2.2</ele>
        <time>2021-07-04 13:03:28</time>
      </trkpt>
      <trkpt lat="28.73524" lon="-13.9555">
        <ele>1.8</ele>
        <time>2021-07-04 13:03:29</time>
      </trkpt>
      <trkpt lat="28.73521" lon="-13.95557">
        <ele>1.4</ele>
        <time>2021-07-04 13:03:30</time>
      </trkpt>
      <trkpt lat="28.73519" lon="-13.95564">
        <ele>0.8</ele>
        <time>2021-07-04 13:03:31</time>
      </trkpt>
      <trkpt lat="28.73517" lon="-13.9557">
        <ele>0.4</ele>
        <time>2021-07-04 13:03:32</time>
      </trkpt>
      <trkpt lat="28.73515" lon="-13.95578">
        <ele>-0.2</ele>
        <time>2021-07-04 13:03:33</time>
      </trkpt>
      <trkpt lat="28.73512" lon="-13.95584">
        <ele>-0.6</ele>
        <time>2021-07-04 13:03:34</time>
      </trkpt>
      <trkpt lat="28.73511" lon="-13.95591">
        <ele>-1</ele>
        <time>2021-07-04 13:03:35</time>
      </trkpt>
      <trkpt lat="28.73508" lon="-13.95597">
        <ele>-1</ele>
        <time>2021-07-04 13:03:36</time>
      </trkpt>
      <trkpt lat="28.73506" lon="-13.95602">
        <ele>-1.4</ele>
        <time>2021-07-04 13:03:37</time>
      </trkpt>
      <trkpt lat="28.73504" lon="-13.95606">
        <ele>-1.6</ele>
        <time>2021-07-04 13:03:38</time>
      </trkpt>
      <trkpt lat="28.73501" lon="-13.95611">
        <ele>-1.6</ele>
        <time>2021-07-04 13:03:39</time>
      </trkpt>
      <trkpt lat="28.73497" lon="-13.95616">
        <ele>-1.6</ele>
        <time>2021-07-04 13:03:40</time>
      </trkpt>
      <trkpt lat="28.73494" lon="-13.9562">
        <ele>-1.6</ele>
        <time>2021-07-04 13:03:41</time>
      </trkpt>
      <trkpt lat="28.7349" lon="-13.95625">
        <ele>-1.6</ele>
        <time>2021-07-04 13:03:42</time>
      </trkpt>
      <trkpt lat="28.73487" lon="-13.9563">
        <ele>-1.6</ele>
        <time>2021-07-04 13:03:43</time>
      </trkpt>
      <trkpt lat="28.73483" lon="-13.95635">
        <ele>-1.6</ele>
        <time>2021-07-04 13:03:44</time>
      </trkpt>
      <trkpt lat="28.73479" lon="-13.95639">
        <ele>-1.6</ele>
        <time>2021-07-04 13:03:45</time>
      </trkpt>
      <trkpt lat="28.73475" lon="-13.95644">
        <ele>-1.2</ele>
        <time>2021-07-04 13:03:46</time>
      </trkpt>
      <trkpt lat="28.73471" lon="-13.95649">
        <ele>-1.2</ele>
        <time>2021-07-04 13:03:47</time>
      </trkpt>
      <trkpt lat="28.73468" lon="-13.95654">
        <ele>-0.8</ele>
        <time>2021-07-04 13:03:48</time>
      </trkpt>
      <trkpt lat="28.73464" lon="-13.95659">
        <ele>-0.6</ele>
        <time>2021-07-04 13:03:49</time>
      </trkpt>
      <trkpt lat="28.73461" lon="-13.95664">
        <ele>-0.6</ele>
        <time>2021-07-04 13:03:50</time>
      </trkpt>
      <trkpt lat="28.73459" lon="-13.95668">
        <ele>-0.6</ele>
        <time>2021-07-04 13:03:51</time>
      </trkpt>
      <trkpt lat="28.73456" lon="-13.95673">
        <ele>-0.2</ele>
        <time>2021-07-04 13:03:52</time>
      </trkpt>
      <trkpt lat="28.73454" lon="-13.95679">
        <ele>-0.2</ele>
        <time>2021-07-04 13:03:53</time>
      </trkpt>
      <trkpt lat="28.73452" lon="-13.95683">
        <ele>-0.2</ele>
        <time>2021-07-04 13:03:54</time>
      </trkpt>
      <trkpt lat="28.73451" lon="-13.95688">
        <time>2021-07-04 13:03:55</time>
      </trkpt>
      <trkpt lat="28.7345" lon="-13.95694">
        <time>2021-07-04 13:03:56</time>
      </trkpt>
      <trkpt lat="28.73449" lon="-13.95699">
        <ele>0.2</ele>
        <time>2021-07-04 13:03:57</time>
      </trkpt>
      <trkpt lat="28.73448" lon="-13.95704">
        <ele>0.4</ele>
        <time>2021-07-04 13:03:58</time>
      </trkpt>
      <trkpt lat="28.73448" lon="-13.95708">
        <ele>0.8</ele>
        <time>2021-07-04 13:03:59</time>
      </trkpt>
      <trkpt lat="28.73448" lon="-13.95713">
        <ele>1</ele>
        <time>2021-07-04 13:04:00</time>
      </trkpt>
      <trkpt lat="28.73447" lon="-13.95718">
        <ele>1</ele>
        <time>2021-07-04 13:04:01</time>
      </trkpt>
      <trkpt lat="28.73448" lon="-13.95723">
        <ele>1.2</ele>
        <time>2021-07-04 13:04:02</time>
      </trkpt>
      <trkpt lat="28.73448" lon="-13.95728">
        <ele>1.4</ele>
        <time>2021-07-04 13:04:03</time>
      </trkpt>
      <trkpt lat="28.73448" lon="-13.95733">
        <ele>1.4</ele>
        <time>2021-07-04 13:04:04</time>
      </trkpt>
      <trkpt lat="28.73448" lon="-13.95737">
        <ele>1.8</ele>
        <time>2021-07-04 13:04:05</time>
      </trkpt>
      <trkpt lat="28.7345" lon="-13.95742">
        <ele>1.8</ele>
        <time>2021-07-04 13:04:06</time>
      </trkpt>
      <trkpt lat="28.7345" lon="-13.95746">
        <ele>2.2</ele>
        <time>2021-07-04 13:04:07</time>
      </trkpt>
      <trkpt lat="28.73452" lon="-13.9575">
        <ele>2.2</ele>
        <time>2021-07-04 13:04:08</time>
      </trkpt>
      <trkpt lat="28.73453" lon="-13.95754">
        <ele>2.6</ele>
        <time>2021-07-04 13:04:09</time>
      </trkpt>
      <trkpt lat="28.73454" lon="-13.95758">
        <ele>2.6</ele>
        <time>2021-07-04 13:04:10</time>
      </trkpt>
      <trkpt lat="28.73456" lon="-13.95762">
        <ele>2.6</ele>
        <time>2021-07-04 13:04:11</time>
      </trkpt>
      <trkpt lat="28.73457" lon="-13.95766">
        <ele>2.6</ele>
        <time>2021-07-04 13:04:12</time>
      </trkpt>
      <trkpt lat="28.7346" lon="-13.9577">
        <ele>2.6</ele>
        <time>2021-07-04 13:04:13</time>
      </trkpt>
      <trkpt lat="28.73462" lon="-13.95773">
        <ele>2.6</ele>
        <time>2021-07-04 13:04:14</time>
      </trkpt>
      <trkpt lat="28.73465" lon="-13.95777">
        <ele>2.8</ele>
        <time>2021-07-04 13:04:15</time>
      </trkpt>
      <trkpt lat="28.73468" lon="-13.9578">
        <ele>3</ele>
        <time>2021-07-04 13:04:16</time>
      </trkpt>
      <trkpt lat="28.73471" lon="-13.95783">
        <ele>3.4</ele>
        <time>2021-07-04 13:04:17</time>
      </trkpt>
      <trkpt lat="28.73475" lon="-13.95786">
        <ele>3.4</ele>
        <time>2021-07-04 13:04:18</time>
      </trkpt>
      <trkpt lat="28.73479" lon="-13.95789">
        <ele>3.4</ele>
        <time>2021-07-04 13:04:19</time>
      </trkpt>
      <trkpt lat="28.73482" lon="-13.95791">
        <ele>3.4</ele>
        <time>2021-07-04 13:04:20</time>
      </trkpt>
      <trkpt lat="28.73485" lon="-13.95793">
        <ele>3.4</ele>
        <time>2021-07-04 13:04:21</time>
      </trkpt>
      <trkpt lat="28.73488" lon="-13.95795">
        <ele>3.4</ele>
        <time>2021-07-04 13:04:22</time>
      </trkpt>
      <trkpt lat="28.73491" lon="-13.95797">
        <ele>3.4</ele>
        <time>2021-07-04 13:04:23</time>
      </trkpt>
      <trkpt lat="28.73495" lon="-13.95799">
        <ele>3.4</ele>
        <time>2021-07-04 13:04:24</time>
      </trkpt>
      <trkpt lat="28.73498" lon="-13.95801">
        <ele>3.4</ele>
        <time>2021-07-04 13:04:25</time>
      </trkpt>
      <trkpt lat="28.73501" lon="-13.95802">
        <ele>3.4</ele>
        <time>2021-07-04 13:04:26</time>
      </trkpt>
      <trkpt lat="28.73504" lon="-13.95804">
        <ele>3.4</ele>
        <time>2021-07-04 13:04:27</time>
      </trkpt>
      <trkpt lat="28.73508" lon="-13.95805">
        <ele>3.4</ele>
        <time>2021-07-04 13:04:28</time>
      </trkpt>
      <trkpt lat="28.73511" lon="-13.95807">
        <ele>3.4</ele>
        <time>2021-07-04 13:04:29</time>
      </trkpt>
      <trkpt lat="28.73515" lon="-13.95809">
        <ele>3.4</ele>
        <time>2021-07-04 13:04:30</time>
      </trkpt>
      <trkpt lat="28.73518" lon="-13.95811">
        <ele>3.4</ele>
        <time>2021-07-04 13:04:31</time>
      </trkpt>
      <trkpt lat="28.73522" lon="-13.95813">
        <ele>3.4</ele>
        <time>2021-07-04 13:04:32</time>
      </trkpt>
      <trkpt lat="28.73526" lon="-13.95815">
        <ele>3.4</ele>
        <time>2021-07-04 13:04:33</time>
      </trkpt>
      <trkpt lat="28.73529" lon="-13.95817">
        <ele>2.8</ele>
        <time>2021-07-04 13:04:34</time>
      </trkpt>
      <trkpt lat="28.73533" lon="-13.95819">
        <ele>2.4</ele>
        <time>2021-07-04 13:04:35</time>
      </trkpt>
      <trkpt lat="28.73537" lon="-13.95821">
        <ele>2.2</ele>
        <time>2021-07-04 13:04:36</time>
      </trkpt>
      <trkpt lat="28.73541" lon="-13.95822">
        <ele>1.8</ele>
        <time>2021-07-04 13:04:37</time>
      </trkpt>
      <trkpt lat="28.73545" lon="-13.95823">
        <ele>1.4</ele>
        <time>2021-07-04 13:04:38</time>
      </trkpt>
      <trkpt lat="28.73549" lon="-13.95824">
        <ele>1</ele>
        <time>2021-07-04 13:04:39</time>
      </trkpt>
      <trkpt lat="28.73554" lon="-13.95825">
        <ele>0.8</ele>
        <time>2021-07-04 13:04:40</time>
      </trkpt>
      <trkpt lat="28.73558" lon="-13.95826">
        <ele>0.6</ele>
        <time>2021-07-04 13:04:41</time>
      </trkpt>
      <trkpt lat="28.73562" lon="-13.95827">
        <ele>0.2</ele>
        <time>2021-07-04 13:04:42</time>
      </trkpt>
      <trkpt lat="28.73566" lon="-13.95829">
        <ele>0.2</ele>
        <time>2021-07-04 13:04:43</time>
      </trkpt>
      <trkpt lat="28.7357" lon="-13.9583">
        <ele>0.2</ele>
        <time>2021-07-04 13:04:44</time>
      </trkpt>
      <trkpt lat="28.73573" lon="-13.95832">
        <ele>0.6</ele>
        <time>2021-07-04 13:04:45</time>
      </trkpt>
      <trkpt lat="28.73576" lon="-13.95835">
        <ele>0.8</ele>
        <time>2021-07-04 13:04:46</time>
      </trkpt>
      <trkpt lat="28.73578" lon="-13.95837">
        <ele>0.8</ele>
        <time>2021-07-04 13:04:47</time>
      </trkpt>
      <trkpt lat="28.7358" lon="-13.9584">
        <ele>1</ele>
        <time>2021-07-04 13:04:48</time>
      </trkpt>
      <trkpt lat="28.73582" lon="-13.95843">
        <ele>1</ele>
        <time>2021-07-04 13:04:49</time>
      </trkpt>
      <trkpt lat="28.73583" lon="-13.95846">
        <ele>1</ele>
        <time>2021-07-04 13:04:50</time>
      </trkpt>
      <trkpt lat="28.73584" lon="-13.95849">
        <ele>1.4</ele>
        <time>2021-07-04 13:04:51</time>
      </trkpt>
      <trkpt lat="28.73585" lon="-13.95853">
        <ele>1.4</ele>
        <time>2021-07-04 13:04:52</time>
      </trkpt>
      <trkpt lat="28.73587" lon="-13.95857">
        <ele>1.6</ele>
        <time>2021-07-04 13:04:53</time>
      </trkpt>
      <trkpt lat="28.73587" lon="-13.95861">
        <ele>1.6</ele>
        <time>2021-07-04 13:04:54</time>
      </trkpt>
      <trkpt lat="28.73587" lon="-13.95866">
        <ele>2</ele>
        <time>2021-07-04 13:04:55</time>
      </trkpt>
      <trkpt lat="28.73587" lon="-13.9587">
        <ele>2</ele>
        <time>2021-07-04 13:04:56</time>
      </trkpt>
      <trkpt lat="28.73584" lon="-13.95876">
        <ele>2.2</ele>
        <time>2021-07-04 13:04:57</time>
      </trkpt>
      <trkpt lat="28.73583" lon="-13.9588">
        <ele>2.2</ele>
        <time>2021-07-04 13:04:58</time>
      </trkpt>
      <trkpt lat="28.7358" lon="-13.95885">
        <ele>2.2</ele>
        <time>2021-07-04 13:04:59</time>
      </trkpt>
      <trkpt lat="28.73578" lon="-13.9589">
        <ele>2.2</ele>
        <time>2021-07-04 13:05:00</time>
      </trkpt>
      <trkpt lat="28.73576" lon="-13.95894">
        <ele>2</ele>
        <time>2021-07-04 13:05:01</time>
      </trkpt>
      <trkpt lat="28.73572" lon="-13.95899">
        <ele>2</ele>
        <time>2021-07-04 13:05:02</time>
      </trkpt>
      <trkpt lat="28.73569" lon="-13.95904">
        <ele>1.8</ele>
        <time>2021-07-04 13:05:03</time>
      </trkpt>
      <trkpt lat="28.73566" lon="-13.95908">
        <ele>1.8</ele>
        <time>2021-07-04 13:05:04</time>
      </trkpt>
      <trkpt lat="28.73564" lon="-13.95913">
        <ele>1.4</ele>
        <time>2021-07-04 13:05:05</time>
      </trkpt>
      <trkpt lat="28.73562" lon="-13.95918">
        <ele>1.4</ele>
        <time>2021-07-04 13:05:06</time>
      </trkpt>
      <trkpt lat="28.73559" lon="-13.95922">
        <ele>1.4</ele>
        <time>2021-07-04 13:05:07</time>
      </trkpt>
      <trkpt lat="28.73558" lon="-13.95927">
        <ele>1.4</ele>
        <time>2021-07-04 13:05:08</time>
      </trkpt>
      <trkpt lat="28.73557" lon="-13.95932">
        <ele>1.4</ele>
        <time>2021-07-04 13:05:09</time>
      </trkpt>
      <trkpt lat="28.73556" lon="-13.95935">
        <ele>1.4</ele>
        <time>2021-07-04 13:05:10</time>
      </trkpt>
      <trkpt lat="28.73556" lon="-13.95939">
        <ele>1.4</ele>
        <time>2021-07-04 13:05:11</time>
      </trkpt>
      <trkpt lat="28.73556" lon="-13.95942">
        <ele>1.4</ele>
        <time>2021-07-04 13:05:12</time>
      </trkpt>
      <trkpt lat="28.73556" lon="-13.95946">
        <ele>1.8</ele>
        <time>2021-07-04 13:05:13</time>
      </trkpt>
      <trkpt lat="28.73556" lon="-13.9595">
        <ele>2</ele>
        <time>2021-07-04 13:05:14</time>
      </trkpt>
      <trkpt lat="28.73557" lon="-13.95954">
        <ele>2.2</ele>
        <time>2021-07-04 13:05:15</time>
      </trkpt>
      <trkpt lat="28.73558" lon="-13.95958">
        <ele>2.2</ele>
        <time>2021-07-04 13:05:16</time>
      </trkpt>
      <trkpt lat="28.73559" lon="-13.95962">
        <ele>2.6</ele>
        <time>2021-07-04 13:05:17</time>
      </trkpt>
      <trkpt lat="28.7356" lon="-13.95967">
        <ele>2.6</ele>
        <time>2021-07-04 13:05:18</time>
      </trkpt>
      <trkpt lat="28.73561" lon="-13.95972">
        <ele>2.8</ele>
        <time>2021-07-04 13:05:19</time>
      </trkpt>
      <trkpt lat="28.73562" lon="-13.95977">
        <ele>2.8</ele>
        <time>2021-07-04 13:05:20</time>
      </trkpt>
      <trkpt lat="28.73563" lon="-13.95982">
        <ele>3</ele>
        <time>2021-07-04 13:05:21</time>
      </trkpt>
      <trkpt lat="28.73564" lon="-13.95988">
        <ele>3</ele>
        <time>2021-07-04 13:05:22</time>
      </trkpt>
      <trkpt lat="28.73564" lon="-13.95993">
        <ele>3</ele>
        <time>2021-07-04 13:05:23</time>
      </trkpt>
      <trkpt lat="28.73566" lon="-13.95998">
        <ele>3</ele>
        <time>2021-07-04 13:05:24</time>
      </trkpt>
      <trkpt lat="28.73567" lon="-13.96003">
        <ele>3.4</ele>
        <time>2021-07-04 13:05:25</time>
      </trkpt>
      <trkpt lat="28.73568" lon="-13.96008">
        <ele>3.4</ele>
        <time>2021-07-04 13:05:26</time>
      </trkpt>
      <trkpt lat="28.73568" lon="-13.96013">
        <ele>3.4</ele>
        <time>2021-07-04 13:05:27</time>
      </trkpt>
      <trkpt lat="28.73569" lon="-13.96018">
        <ele>3.4</ele>
        <time>2021-07-04 13:05:28</time>
      </trkpt>
      <trkpt lat="28.7357" lon="-13.96022">
        <ele>3.4</ele>
        <time>2021-07-04 13:05:29</time>
      </trkpt>
      <trkpt lat="28.7357" lon="-13.96028">
        <ele>3.4</ele>
        <time>2021-07-04 13:05:30</time>
      </trkpt>
      <trkpt lat="28.73571" lon="-13.96034">
        <ele>3.6</ele>
        <time>2021-07-04 13:05:31</time>
      </trkpt>
      <trkpt lat="28.73571" lon="-13.96039">
        <ele>3.6</ele>
        <time>2021-07-04 13:05:32</time>
      </trkpt>
      <trkpt lat="28.73571" lon="-13.96044">
        <ele>3.6</ele>
        <time>2021-07-04 13:05:33</time>
      </trkpt>
      <trkpt lat="28.7357" lon="-13.96049">
        <ele>3.2</ele>
        <time>2021-07-04 13:05:34</time>
      </trkpt>
      <trkpt lat="28.73569" lon="-13.96055">
        <ele>3</ele>
        <time>2021-07-04 13:05:35</time>
      </trkpt>
      <trkpt lat="28.73567" lon="-13.96059">
        <ele>2.6</ele>
        <time>2021-07-04 13:05:36</time>
      </trkpt>
      <trkpt lat="28.73564" lon="-13.96064">
        <ele>2.4</ele>
        <time>2021-07-04 13:05:37</time>
      </trkpt>
      <trkpt lat="28.73562" lon="-13.96069">
        <ele>2.2</ele>
        <time>2021-07-04 13:05:38</time>
      </trkpt>
      <trkpt lat="28.73558" lon="-13.96074">
        <ele>1.8</ele>
        <time>2021-07-04 13:05:39</time>
      </trkpt>
      <trkpt lat="28.73555" lon="-13.96078">
        <ele>1.6</ele>
        <time>2021-07-04 13:05:40</time>
      </trkpt>
      <trkpt lat="28.73552" lon="-13.96082">
        <ele>1.6</ele>
        <time>2021-07-04 13:05:41</time>
      </trkpt>
      <trkpt lat="28.73549" lon="-13.96086">
        <ele>1.2</ele>
        <time>2021-07-04 13:05:42</time>
      </trkpt>
      <trkpt lat="28.73545" lon="-13.9609">
        <ele>1.2</ele>
        <time>2021-07-04 13:05:43</time>
      </trkpt>
      <trkpt lat="28.73542" lon="-13.96093">
        <ele>0.8</ele>
        <time>2021-07-04 13:05:44</time>
      </trkpt>
      <trkpt lat="28.73538" lon="-13.96097">
        <ele>0.6</ele>
        <time>2021-07-04 13:05:45</time>
      </trkpt>
      <trkpt lat="28.73534" lon="-13.961">
        <ele>0.2</ele>
        <time>2021-07-04 13:05:46</time>
      </trkpt>
      <trkpt lat="28.73529" lon="-13.96103">
        <time>2021-07-04 13:05:47</time>
      </trkpt>
      <trkpt lat="28.73525" lon="-13.96106">
        <ele>-0.4</ele>
        <time>2021-07-04 13:05:48</time>
      </trkpt>
      <trkpt lat="28.73519" lon="-13.96109">
        <ele>-0.6</ele>
        <time>2021-07-04 13:05:49</time>
      </trkpt>
      <trkpt lat="28.73515" lon="-13.96111">
        <ele>-0.8</ele>
        <time>2021-07-04 13:05:50</time>
      </trkpt>
      <trkpt lat="28.73509" lon="-13.96114">
        <ele>-1.2</ele>
        <time>2021-07-04 13:05:51</time>
      </trkpt>
      <trkpt lat="28.73504" lon="-13.96118">
        <ele>-1.4</ele>
        <time>2021-07-04 13:05:52</time>
      </trkpt>
      <trkpt lat="28.73498" lon="-13.96121">
        <ele>-1.6</ele>
        <time>2021-07-04 13:05:53</time>
      </trkpt>
      <trkpt lat="28.73493" lon="-13.96126">
        <ele>-1.8</ele>
        <time>2021-07-04 13:05:54</time>
      </trkpt>
      <trkpt lat="28.73488" lon="-13.96129">
        <ele>-2</ele>
        <time>2021-07-04 13:05:55</time>
      </trkpt>
      <trkpt lat="28.73482" lon="-13.96132">
        <ele>-2</ele>
        <time>2021-07-04 13:05:56</time>
      </trkpt>
      <trkpt lat="28.73477" lon="-13.96136">
        <ele>-2.4</ele>
        <time>2021-07-04 13:05:57</time>
      </trkpt>
      <trkpt lat="28.73472" lon="-13.96139">
        <ele>-2.4</ele>
        <time>2021-07-04 13:05:58</time>
      </trkpt>
      <trkpt lat="28.73467" lon="-13.96142">
        <ele>-2.8</ele>
        <time>2021-07-04 13:05:59</time>
      </trkpt>
      <trkpt lat="28.73462" lon="-13.96145">
        <ele>-3</ele>
        <time>2021-07-04 13:06:00</time>
      </trkpt>
      <trkpt lat="28.73457" lon="-13.96148">
        <ele>-3</ele>
        <time>2021-07-04 13:06:01</time>
      </trkpt>
      <trkpt lat="28.73451" lon="-13.96152">
        <ele>-3.2</ele>
        <time>2021-07-04 13:06:02</time>
      </trkpt>
      <trkpt lat="28.73446" lon="-13.96154">
        <ele>-3.2</ele>
        <time>2021-07-04 13:06:03</time>
      </trkpt>
      <trkpt lat="28.7344" lon="-13.96157">
        <ele>-3.6</ele>
        <time>2021-07-04 13:06:04</time>
      </trkpt>
      <trkpt lat="28.73434" lon="-13.96159">
        <ele>-3.6</ele>
        <time>2021-07-04 13:06:05</time>
      </trkpt>
      <trkpt lat="28.73428" lon="-13.9616">
        <ele>-3.8</ele>
        <time>2021-07-04 13:06:06</time>
      </trkpt>
      <trkpt lat="28.73422" lon="-13.96162">
        <ele>-4.2</ele>
        <time>2021-07-04 13:06:07</time>
      </trkpt>
      <trkpt lat="28.73417" lon="-13.96162">
        <ele>-4.2</ele>
        <time>2021-07-04 13:06:08</time>
      </trkpt>
      <trkpt lat="28.73411" lon="-13.96163">
        <ele>-4.2</ele>
        <time>2021-07-04 13:06:09</time>
      </trkpt>
      <trkpt lat="28.73406" lon="-13.96164">
        <ele>-4.2</ele>
        <time>2021-07-04 13:06:10</time>
      </trkpt>
      <trkpt lat="28.734" lon="-13.96166">
        <ele>-4.4</ele>
        <time>2021-07-04 13:06:11</time>
      </trkpt>
      <trkpt lat="28.73394" lon="-13.96169">
        <ele>-4.4</ele>
        <time>2021-07-04 13:06:12</time>
      </trkpt>
      <trkpt lat="28.73389" lon="-13.96172">
        <ele>-4.6</ele>
        <time>2021-07-04 13:06:13</time>
      </trkpt>
      <trkpt lat="28.73384" lon="-13.96177">
        <ele>-4.6</ele>
        <time>2021-07-04 13:06:14</time>
      </trkpt>
      <trkpt lat="28.73381" lon="-13.96183">
        <ele>-4.6</ele>
        <time>2021-07-04 13:06:15</time>
      </trkpt>
      <trkpt lat="28.73377" lon="-13.96189">
        <ele>-4.8</ele>
        <time>2021-07-04 13:06:16</time>
      </trkpt>
      <trkpt lat="28.73374" lon="-13.96196">
        <ele>-4.8</ele>
        <time>2021-07-04 13:06:17</time>
      </trkpt>
      <trkpt lat="28.73371" lon="-13.96203">
        <ele>-5.2</ele>
        <time>2021-07-04 13:06:18</time>
      </trkpt>
      <trkpt lat="28.73369" lon="-13.9621">
        <ele>-5.2</ele>
        <time>2021-07-04 13:06:19</time>
      </trkpt>
      <trkpt lat="28.73366" lon="-13.96216">
        <ele>-5.2</ele>
        <time>2021-07-04 13:06:20</time>
      </trkpt>
      <trkpt lat="28.73364" lon="-13.96223">
        <ele>-5.2</ele>
        <time>2021-07-04 13:06:21</time>
      </trkpt>
      <trkpt lat="28.73362" lon="-13.96231">
        <ele>-5.2</ele>
        <time>2021-07-04 13:06:22</time>
      </trkpt>
      <trkpt lat="28.7336" lon="-13.96237">
        <ele>-5.6</ele>
        <time>2021-07-04 13:06:23</time>
      </trkpt>
      <trkpt lat="28.73359" lon="-13.96244">
        <ele>-5.6</ele>
        <time>2021-07-04 13:06:24</time>
      </trkpt>
      <trkpt lat="28.73359" lon="-13.9625">
        <ele>-5.6</ele>
        <time>2021-07-04 13:06:25</time>
      </trkpt>
      <trkpt lat="28.73359" lon="-13.96256">
        <ele>-5.2</ele>
        <time>2021-07-04 13:06:26</time>
      </trkpt>
      <trkpt lat="28.73359" lon="-13.96262">
        <ele>-4.8</ele>
        <time>2021-07-04 13:06:27</time>
      </trkpt>
      <trkpt lat="28.73359" lon="-13.96268">
        <ele>-4.4</ele>
        <time>2021-07-04 13:06:28</time>
      </trkpt>
      <trkpt lat="28.73358" lon="-13.96274">
        <ele>-4.2</ele>
        <time>2021-07-04 13:06:29</time>
      </trkpt>
      <trkpt lat="28.73357" lon="-13.9628">
        <ele>-4.2</ele>
        <time>2021-07-04 13:06:30</time>
      </trkpt>
      <trkpt lat="28.73356" lon="-13.96285">
        <ele>-4.2</ele>
        <time>2021-07-04 13:06:31</time>
      </trkpt>
      <trkpt lat="28.73354" lon="-13.96292">
        <ele>-4.2</ele>
        <time>2021-07-04 13:06:32</time>
      </trkpt>
      <trkpt lat="28.73352" lon="-13.96297">
        <ele>-4.2</ele>
        <time>2021-07-04 13:06:33</time>
      </trkpt>
      <trkpt lat="28.7335" lon="-13.96304">
        <ele>-4.2</ele>
        <time>2021-07-04 13:06:34</time>
      </trkpt>
      <trkpt lat="28.73347" lon="-13.9631">
        <ele>-4.2</ele>
        <time>2021-07-04 13:06:35</time>
      </trkpt>
      <trkpt lat="28.73345" lon="-13.96316">
        <ele>-4.2</ele>
        <time>2021-07-04 13:06:36</time>
      </trkpt>
      <trkpt lat="28.73342" lon="-13.96322">
        <ele>-4.2</ele>
        <time>2021-07-04 13:06:37</time>
      </trkpt>
      <trkpt lat="28.73339" lon="-13.96328">
        <ele>-4.2</ele>
        <time>2021-07-04 13:06:38</time>
      </trkpt>
      <trkpt lat="28.73337" lon="-13.96334">
        <ele>-4.2</ele>
        <time>2021-07-04 13:06:39</time>
      </trkpt>
      <trkpt lat="28.73334" lon="-13.9634">
        <ele>-4.4</ele>
        <time>2021-07-04 13:06:40</time>
      </trkpt>
      <trkpt lat="28.73332" lon="-13.96347">
        <ele>-4.4</ele>
        <time>2021-07-04 13:06:41</time>
      </trkpt>
      <trkpt lat="28.73329" lon="-13.96353">
        <ele>-4.4</ele>
        <time>2021-07-04 13:06:42</time>
      </trkpt>
      <trkpt lat="28.73327" lon="-13.96358">
        <ele>-4.4</ele>
        <time>2021-07-04 13:06:43</time>
      </trkpt>
      <trkpt lat="28.73325" lon="-13.96364">
        <ele>-4.4</ele>
        <time>2021-07-04 13:06:44</time>
      </trkpt>
      <trkpt lat="28.73323" lon="-13.96369">
        <ele>-4.4</ele>
        <time>2021-07-04 13:06:45</time>
      </trkpt>
      <trkpt lat="28.73321" lon="-13.96375">
        <ele>-4.4</ele>
        <time>2021-07-04 13:06:46</time>
      </trkpt>
      <trkpt lat="28.73319" lon="-13.9638">
        <ele>-4.4</ele>
        <time>2021-07-04 13:06:47</time>
      </trkpt>
      <trkpt lat="28.73317" lon="-13.96386">
        <ele>-4.4</ele>
        <time>2021-07-04 13:06:48</time>
      </trkpt>
      <trkpt lat="28.73315" lon="-13.96391">
        <ele>-4.4</ele>
        <time>2021-07-04 13:06:49</time>
      </trkpt>
      <trkpt lat="28.73313" lon="-13.96396">
        <ele>-4.2</ele>
        <time>2021-07-04 13:06:50</time>
      </trkpt>
      <trkpt lat="28.73311" lon="-13.96402">
        <ele>-4.2</ele>
        <time>2021-07-04 13:06:51</time>
      </trkpt>
      <trkpt lat="28.73308" lon="-13.96407">
        <ele>-4.2</ele>
        <time>2021-07-04 13:06:52</time>
      </trkpt>
      <trkpt lat="28.73306" lon="-13.96412">
        <ele>-4</ele>
        <time>2021-07-04 13:06:53</time>
      </trkpt>
      <trkpt lat="28.73303" lon="-13.96417">
        <ele>-3.6</ele>
        <time>2021-07-04 13:06:54</time>
      </trkpt>
      <trkpt lat="28.73301" lon="-13.96422">
        <ele>-3.4</ele>
        <time>2021-07-04 13:06:55</time>
      </trkpt>
      <trkpt lat="28.73298" lon="-13.96427">
        <ele>-3</ele>
        <time>2021-07-04 13:06:56</time>
      </trkpt>
      <trkpt lat="28.73295" lon="-13.96432">
        <ele>-2.6</ele>
        <time>2021-07-04 13:06:57</time>
      </trkpt>
      <trkpt lat="28.73293" lon="-13.96437">
        <ele>-2.2</ele>
        <time>2021-07-04 13:06:58</time>
      </trkpt>
      <trkpt lat="28.73291" lon="-13.96442">
        <ele>-1.8</ele>
        <time>2021-07-04 13:06:59</time>
      </trkpt>
      <trkpt lat="28.73288" lon="-13.96446">
        <ele>-1.4</ele>
        <time>2021-07-04 13:07:00</time>
      </trkpt>
      <trkpt lat="28.73286" lon="-13.96451">
        <ele>-1.2</ele>
        <time>2021-07-04 13:07:01</time>
      </trkpt>
      <trkpt lat="28.73285" lon="-13.96456">
        <ele>-1</ele>
        <time>2021-07-04 13:07:02</time>
      </trkpt>
      <trkpt lat="28.73283" lon="-13.96461">
        <ele>-0.8</ele>
        <time>2021-07-04 13:07:03</time>
      </trkpt>
      <trkpt lat="28.73281" lon="-13.96465">
        <ele>-0.6</ele>
        <time>2021-07-04 13:07:04</time>
      </trkpt>
      <trkpt lat="28.73279" lon="-13.9647">
        <ele>-0.2</ele>
        <time>2021-07-04 13:07:05</time>
      </trkpt>
      <trkpt lat="28.73277" lon="-13.96474">
        <ele>0.2</ele>
        <time>2021-07-04 13:07:06</time>
      </trkpt>
      <trkpt lat="28.73275" lon="-13.96479">
        <ele>0.4</ele>
        <time>2021-07-04 13:07:07</time>
      </trkpt>
      <trkpt lat="28.73273" lon="-13.96484">
        <ele>0.4</ele>
        <time>2021-07-04 13:07:08</time>
      </trkpt>
      <trkpt lat="28.7327" lon="-13.96488">
        <ele>0.6</ele>
        <time>2021-07-04 13:07:09</time>
      </trkpt>
      <trkpt lat="28.73268" lon="-13.96493">
        <ele>0.6</ele>
        <time>2021-07-04 13:07:10</time>
      </trkpt>
      <trkpt lat="28.73266" lon="-13.96498">
        <ele>0.6</ele>
        <time>2021-07-04 13:07:11</time>
      </trkpt>
      <trkpt lat="28.73264" lon="-13.96503">
        <ele>0.6</ele>
        <time>2021-07-04 13:07:12</time>
      </trkpt>
      <trkpt lat="28.73262" lon="-13.96508">
        <ele>0.6</ele>
        <time>2021-07-04 13:07:13</time>
      </trkpt>
      <trkpt lat="28.7326" lon="-13.96513">
        <ele>0.6</ele>
        <time>2021-07-04 13:07:14</time>
      </trkpt>
      <trkpt lat="28.73259" lon="-13.96518">
        <ele>0.6</ele>
        <time>2021-07-04 13:07:15</time>
      </trkpt>
      <trkpt lat="28.73259" lon="-13.96523">
        <ele>0.6</ele>
        <time>2021-07-04 13:07:16</time>
      </trkpt>
      <trkpt lat="28.73258" lon="-13.96527">
        <ele>0.4</ele>
        <time>2021-07-04 13:07:17</time>
      </trkpt>
      <trkpt lat="28.73258" lon="-13.96531">
        <ele>0.4</ele>
        <time>2021-07-04 13:07:18</time>
      </trkpt>
      <trkpt lat="28.73258" lon="-13.96536">
        <ele>0.6</ele>
        <time>2021-07-04 13:07:19</time>
      </trkpt>
      <trkpt lat="28.73258" lon="-13.96541">
        <ele>0.6</ele>
        <time>2021-07-04 13:07:20</time>
      </trkpt>
      <trkpt lat="28.7326" lon="-13.96547">
        <ele>0.6</ele>
        <time>2021-07-04 13:07:21</time>
      </trkpt>
      <trkpt lat="28.7326" lon="-13.96552">
        <ele>1</ele>
        <time>2021-07-04 13:07:22</time>
      </trkpt>
      <trkpt lat="28.73261" lon="-13.96558">
        <ele>1</ele>
        <time>2021-07-04 13:07:23</time>
      </trkpt>
      <trkpt lat="28.73261" lon="-13.96564">
        <ele>1.2</ele>
        <time>2021-07-04 13:07:24</time>
      </trkpt>
      <trkpt lat="28.73262" lon="-13.9657">
        <ele>1.2</ele>
        <time>2021-07-04 13:07:25</time>
      </trkpt>
      <trkpt lat="28.73263" lon="-13.96576">
        <ele>1.2</ele>
        <time>2021-07-04 13:07:26</time>
      </trkpt>
      <trkpt lat="28.73264" lon="-13.96582">
        <ele>1.2</ele>
        <time>2021-07-04 13:07:27</time>
      </trkpt>
      <trkpt lat="28.73265" lon="-13.96588">
        <ele>1.4</ele>
        <time>2021-07-04 13:07:28</time>
      </trkpt>
      <trkpt lat="28.73266" lon="-13.96594">
        <ele>1.4</ele>
        <time>2021-07-04 13:07:29</time>
      </trkpt>
      <trkpt lat="28.73266" lon="-13.966">
        <ele>1.4</ele>
        <time>2021-07-04 13:07:30</time>
      </trkpt>
      <trkpt lat="28.73266" lon="-13.96606">
        <ele>1.4</ele>
        <time>2021-07-04 13:07:31</time>
      </trkpt>
      <trkpt lat="28.73267" lon="-13.96613">
        <ele>1.4</ele>
        <time>2021-07-04 13:07:32</time>
      </trkpt>
      <trkpt lat="28.73268" lon="-13.96619">
        <ele>1.4</ele>
        <time>2021-07-04 13:07:33</time>
      </trkpt>
      <trkpt lat="28.73269" lon="-13.96625">
        <ele>1.4</ele>
        <time>2021-07-04 13:07:34</time>
      </trkpt>
      <trkpt lat="28.7327" lon="-13.9663">
        <ele>1.4</ele>
        <time>2021-07-04 13:07:35</time>
      </trkpt>
      <trkpt lat="28.73271" lon="-13.96636">
        <ele>1.4</ele>
        <time>2021-07-04 13:07:36</time>
      </trkpt>
      <trkpt lat="28.73272" lon="-13.96641">
        <ele>1.4</ele>
        <time>2021-07-04 13:07:37</time>
      </trkpt>
      <trkpt lat="28.73271" lon="-13.96647">
        <ele>1.2</ele>
        <time>2021-07-04 13:07:38</time>
      </trkpt>
      <trkpt lat="28.73272" lon="-13.96652">
        <ele>1.2</ele>
        <time>2021-07-04 13:07:39</time>
      </trkpt>
      <trkpt lat="28.73273" lon="-13.96657">
        <ele>1.2</ele>
        <time>2021-07-04 13:07:40</time>
      </trkpt>
      <trkpt lat="28.73274" lon="-13.96662">
        <ele>1.2</ele>
        <time>2021-07-04 13:07:41</time>
      </trkpt>
      <trkpt lat="28.73275" lon="-13.96666">
        <ele>1.2</ele>
        <time>2021-07-04 13:07:42</time>
      </trkpt>
      <trkpt lat="28.73277" lon="-13.96671">
        <ele>1.2</ele>
        <time>2021-07-04 13:07:43</time>
      </trkpt>
      <trkpt lat="28.73279" lon="-13.96676">
        <ele>1.2</ele>
        <time>2021-07-04 13:07:44</time>
      </trkpt>
      <trkpt lat="28.7328" lon="-13.96681">
        <ele>1.2</ele>
        <time>2021-07-04 13:07:45</time>
      </trkpt>
      <trkpt lat="28.73282" lon="-13.96686">
        <ele>0.8</ele>
        <time>2021-07-04 13:07:46</time>
      </trkpt>
      <trkpt lat="28.73284" lon="-13.9669">
        <ele>0.8</ele>
        <time>2021-07-04 13:07:47</time>
      </trkpt>
      <trkpt lat="28.73286" lon="-13.96695">
        <ele>0.8</ele>
        <time>2021-07-04 13:07:48</time>
      </trkpt>
      <trkpt lat="28.73288" lon="-13.96699">
        <ele>0.8</ele>
        <time>2021-07-04 13:07:49</time>
      </trkpt>
      <trkpt lat="28.73291" lon="-13.96703">
        <ele>0.8</ele>
        <time>2021-07-04 13:07:50</time>
      </trkpt>
      <trkpt lat="28.73293" lon="-13.96707">
        <ele>0.8</ele>
        <time>2021-07-04 13:07:51</time>
      </trkpt>
      <trkpt lat="28.73295" lon="-13.9671">
        <ele>0.8</ele>
        <time>2021-07-04 13:07:52</time>
      </trkpt>
      <trkpt lat="28.73296" lon="-13.96714">
        <ele>0.8</ele>
        <time>2021-07-04 13:07:53</time>
      </trkpt>
      <trkpt lat="28.73299" lon="-13.96716">
        <ele>0.8</ele>
        <time>2021-07-04 13:07:54</time>
      </trkpt>
      <trkpt lat="28.733" lon="-13.96719">
        <ele>0.8</ele>
        <time>2021-07-04 13:07:55</time>
      </trkpt>
      <trkpt lat="28.73302" lon="-13.96722">
        <ele>0.6</ele>
        <time>2021-07-04 13:07:56</time>
      </trkpt>
      <trkpt lat="28.73304" lon="-13.96725">
        <ele>0.6</ele>
        <time>2021-07-04 13:07:57</time>
      </trkpt>
      <trkpt lat="28.73306" lon="-13.96729">
        <ele>0.6</ele>
        <time>2021-07-04 13:07:58</time>
      </trkpt>
      <trkpt lat="28.73309" lon="-13.96732">
        <ele>0.6</ele>
        <time>2021-07-04 13:07:59</time>
      </trkpt>
      <trkpt lat="28.73312" lon="-13.96736">
        <ele>0.4</ele>
        <time>2021-07-04 13:08:00</time>
      </trkpt>
      <trkpt lat="28.73316" lon="-13.9674">
        <ele>0.2</ele>
        <time>2021-07-04 13:08:01</time>
      </trkpt>
      <trkpt lat="28.73319" lon="-13.96744">
        <ele>0.2</ele>
        <time>2021-07-04 13:08:02</time>
      </trkpt>
      <trkpt lat="28.73322" lon="-13.96747">
        <time>2021-07-04 13:08:03</time>
      </trkpt>
      <trkpt lat="28.73325" lon="-13.96752">
        <time>2021-07-04 13:08:04</time>
      </trkpt>
      <trkpt lat="28.73328" lon="-13.96757">
        <time>2021-07-04 13:08:05</time>
      </trkpt>
      <trkpt lat="28.7333" lon="-13.96762">
        <time>2021-07-04 13:08:06</time>
      </trkpt>
      <trkpt lat="28.73332" lon="-13.96768">
        <ele>0.2</ele>
        <time>2021-07-04 13:08:07</time>
      </trkpt>
      <trkpt lat="28.73333" lon="-13.96773">
        <ele>0.2</ele>
        <time>2021-07-04 13:08:08</time>
      </trkpt>
      <trkpt lat="28.73334" lon="-13.96778">
        <ele>0.6</ele>
        <time>2021-07-04 13:08:09</time>
      </trkpt>
      <trkpt lat="28.73334" lon="-13.96784">
        <ele>0.6</ele>
        <time>2021-07-04 13:08:10</time>
      </trkpt>
      <trkpt lat="28.73334" lon="-13.96788">
        <ele>0.8</ele>
        <time>2021-07-04 13:08:11</time>
      </trkpt>
      <trkpt lat="28.73334" lon="-13.96793">
        <ele>0.8</ele>
        <time>2021-07-04 13:08:12</time>
      </trkpt>
      <trkpt lat="28.73334" lon="-13.96798">
        <ele>1</ele>
        <time>2021-07-04 13:08:13</time>
      </trkpt>
      <trkpt lat="28.73334" lon="-13.96803">
        <ele>1</ele>
        <time>2021-07-04 13:08:14</time>
      </trkpt>
      <trkpt lat="28.73333" lon="-13.96808">
        <ele>1</ele>
        <time>2021-07-04 13:08:15</time>
      </trkpt>
      <trkpt lat="28.73332" lon="-13.96813">
        <ele>0.8</ele>
        <time>2021-07-04 13:08:16</time>
      </trkpt>
      <trkpt lat="28.73331" lon="-13.96819">
        <ele>0.8</ele>
        <time>2021-07-04 13:08:17</time>
      </trkpt>
      <trkpt lat="28.73329" lon="-13.96824">
        <ele>0.6</ele>
        <time>2021-07-04 13:08:18</time>
      </trkpt>
      <trkpt lat="28.73327" lon="-13.96829">
        <ele>0.6</ele>
        <time>2021-07-04 13:08:19</time>
      </trkpt>
      <trkpt lat="28.73324" lon="-13.96834">
        <ele>0.2</ele>
        <time>2021-07-04 13:08:20</time>
      </trkpt>
      <trkpt lat="28.73322" lon="-13.9684">
        <time>2021-07-04 13:08:21</time>
      </trkpt>
      <trkpt lat="28.73318" lon="-13.96845">
        <ele>-0.2</ele>
        <time>2021-07-04 13:08:22</time>
      </trkpt>
      <trkpt lat="28.73315" lon="-13.96849">
        <ele>-0.6</ele>
        <time>2021-07-04 13:08:23</time>
      </trkpt>
      <trkpt lat="28.73312" lon="-13.96854">
        <ele>-0.8</ele>
        <time>2021-07-04 13:08:24</time>
      </trkpt>
      <trkpt lat="28.73308" lon="-13.9686">
        <ele>-1</ele>
        <time>2021-07-04 13:08:25</time>
      </trkpt>
      <trkpt lat="28.73304" lon="-13.96866">
        <ele>-1.4</ele>
        <time>2021-07-04 13:08:26</time>
      </trkpt>
      <trkpt lat="28.733" lon="-13.96871">
        <ele>-1.6</ele>
        <time>2021-07-04 13:08:27</time>
      </trkpt>
      <trkpt lat="28.73296" lon="-13.96877">
        <ele>-1.8</ele>
        <time>2021-07-04 13:08:28</time>
      </trkpt>
      <trkpt lat="28.73292" lon="-13.96882">
        <ele>-2.2</ele>
        <time>2021-07-04 13:08:29</time>
      </trkpt>
      <trkpt lat="28.73288" lon="-13.96887">
        <ele>-2.4</ele>
        <time>2021-07-04 13:08:30</time>
      </trkpt>
      <trkpt lat="28.73284" lon="-13.96893">
        <ele>-2.6</ele>
        <time>2021-07-04 13:08:31</time>
      </trkpt>
      <trkpt lat="28.73279" lon="-13.96898">
        <ele>-2.6</ele>
        <time>2021-07-04 13:08:32</time>
      </trkpt>
      <trkpt lat="28.73275" lon="-13.96904">
        <ele>-3</ele>
        <time>2021-07-04 13:08:33</time>
      </trkpt>
      <trkpt lat="28.73271" lon="-13.9691">
        <ele>-3.2</ele>
        <time>2021-07-04 13:08:34</time>
      </trkpt>
      <trkpt lat="28.73268" lon="-13.96915">
        <ele>-3.2</ele>
        <time>2021-07-04 13:08:35</time>
      </trkpt>
      <trkpt lat="28.73263" lon="-13.9692">
        <ele>-3.6</ele>
        <time>2021-07-04 13:08:36</time>
      </trkpt>
      <trkpt lat="28.73259" lon="-13.96925">
        <ele>-3.6</ele>
        <time>2021-07-04 13:08:37</time>
      </trkpt>
      <trkpt lat="28.73256" lon="-13.9693">
        <ele>-3.8</ele>
        <time>2021-07-04 13:08:38</time>
      </trkpt>
      <trkpt lat="28.73251" lon="-13.96935">
        <ele>-3.8</ele>
        <time>2021-07-04 13:08:39</time>
      </trkpt>
      <trkpt lat="28.73248" lon="-13.96941">
        <ele>-3.8</ele>
        <time>2021-07-04 13:08:40</time>
      </trkpt>
      <trkpt lat="28.73244" lon="-13.96946">
        <ele>-3.8</ele>
        <time>2021-07-04 13:08:41</time>
      </trkpt>
      <trkpt lat="28.73239" lon="-13.96951">
        <ele>-3.8</ele>
        <time>2021-07-04 13:08:42</time>
      </trkpt>
      <trkpt lat="28.73235" lon="-13.96956">
        <ele>-3.8</ele>
        <time>2021-07-04 13:08:43</time>
      </trkpt>
      <trkpt lat="28.73231" lon="-13.96961">
        <ele>-4</ele>
        <time>2021-07-04 13:08:44</time>
      </trkpt>
      <trkpt lat="28.73226" lon="-13.96966">
        <ele>-4</ele>
        <time>2021-07-04 13:08:45</time>
      </trkpt>
      <trkpt lat="28.73206" lon="-13.96984">
        <ele>-4.6</ele>
        <time>2021-07-04 13:08:46</time>
      </trkpt>
      <trkpt lat="28.73201" lon="-13.96989">
        <ele>-4.8</ele>
        <time>2021-07-04 13:08:47</time>
      </trkpt>
      <trkpt lat="28.73195" lon="-13.96993">
        <ele>-4.8</ele>
        <time>2021-07-04 13:08:48</time>
      </trkpt>
      <trkpt lat="28.73189" lon="-13.96997">
        <ele>-5</ele>
        <time>2021-07-04 13:08:49</time>
      </trkpt>
      <trkpt lat="28.73183" lon="-13.97001">
        <ele>-5</ele>
        <time>2021-07-04 13:08:50</time>
      </trkpt>
      <trkpt lat="28.73178" lon="-13.97005">
        <ele>-5</ele>
        <time>2021-07-04 13:08:51</time>
      </trkpt>
      <trkpt lat="28.73173" lon="-13.97008">
        <ele>-5.2</ele>
        <time>2021-07-04 13:08:52</time>
      </trkpt>
      <trkpt lat="28.73167" lon="-13.97012">
        <ele>-5.2</ele>
        <time>2021-07-04 13:08:53</time>
      </trkpt>
      <trkpt lat="28.73162" lon="-13.97015">
        <ele>-5.6</ele>
        <time>2021-07-04 13:08:54</time>
      </trkpt>
      <trkpt lat="28.73157" lon="-13.97019">
        <ele>-5.8</ele>
        <time>2021-07-04 13:08:55</time>
      </trkpt>
      <trkpt lat="28.73152" lon="-13.97022">
        <ele>-6</ele>
        <time>2021-07-04 13:08:56</time>
      </trkpt>
      <trkpt lat="28.73147" lon="-13.97024">
        <ele>-6.2</ele>
        <time>2021-07-04 13:08:57</time>
      </trkpt>
      <trkpt lat="28.73141" lon="-13.97027">
        <ele>-6.2</ele>
        <time>2021-07-04 13:08:58</time>
      </trkpt>
      <trkpt lat="28.73136" lon="-13.97031">
        <ele>-6.2</ele>
        <time>2021-07-04 13:08:59</time>
      </trkpt>
      <trkpt lat="28.73131" lon="-13.97034">
        <ele>-6.2</ele>
        <time>2021-07-04 13:09:00</time>
      </trkpt>
      <trkpt lat="28.73126" lon="-13.97038">
        <ele>-6.6</ele>
        <time>2021-07-04 13:09:01</time>
      </trkpt>
      <trkpt lat="28.73121" lon="-13.97042">
        <ele>-6.6</ele>
        <time>2021-07-04 13:09:02</time>
      </trkpt>
      <trkpt lat="28.73116" lon="-13.97046">
        <ele>-6.6</ele>
        <time>2021-07-04 13:09:03</time>
      </trkpt>
      <trkpt lat="28.73111" lon="-13.9705">
        <ele>-6.6</ele>
        <time>2021-07-04 13:09:04</time>
      </trkpt>
      <trkpt lat="28.73106" lon="-13.97054">
        <ele>-6.6</ele>
        <time>2021-07-04 13:09:05</time>
      </trkpt>
      <trkpt lat="28.73102" lon="-13.97059">
        <ele>-6.6</ele>
        <time>2021-07-04 13:09:06</time>
      </trkpt>
      <trkpt lat="28.73099" lon="-13.97063">
        <ele>-6.6</ele>
        <time>2021-07-04 13:09:07</time>
      </trkpt>
      <trkpt lat="28.73095" lon="-13.97068">
        <ele>-6.6</ele>
        <time>2021-07-04 13:09:08</time>
      </trkpt>
      <trkpt lat="28.73092" lon="-13.97073">
        <ele>-6.6</ele>
        <time>2021-07-04 13:09:09</time>
      </trkpt>
      <trkpt lat="28.7309" lon="-13.97077">
        <ele>-6.6</ele>
        <time>2021-07-04 13:09:10</time>
      </trkpt>
      <trkpt lat="28.73088" lon="-13.97082">
        <ele>-6.6</ele>
        <time>2021-07-04 13:09:11</time>
      </trkpt>
      <trkpt lat="28.73086" lon="-13.97087">
        <ele>-6.6</ele>
        <time>2021-07-04 13:09:12</time>
      </trkpt>
      <trkpt lat="28.73085" lon="-13.97091">
        <ele>-6.6</ele>
        <time>2021-07-04 13:09:13</time>
      </trkpt>
      <trkpt lat="28.73083" lon="-13.97096">
        <ele>-6.2</ele>
        <time>2021-07-04 13:09:14</time>
      </trkpt>
      <trkpt lat="28.73082" lon="-13.97101">
        <ele>-6.2</ele>
        <time>2021-07-04 13:09:15</time>
      </trkpt>
      <trkpt lat="28.7308" lon="-13.97116">
        <ele>-6</ele>
        <time>2021-07-04 13:09:16</time>
      </trkpt>
      <trkpt lat="28.73078" lon="-13.9712">
        <ele>-5.6</ele>
        <time>2021-07-04 13:09:17</time>
      </trkpt>
      <trkpt lat="28.73077" lon="-13.97125">
        <ele>-5.6</ele>
        <time>2021-07-04 13:09:18</time>
      </trkpt>
      <trkpt lat="28.73075" lon="-13.9713">
        <ele>-5.4</ele>
        <time>2021-07-04 13:09:19</time>
      </trkpt>
      <trkpt lat="28.73073" lon="-13.97135">
        <ele>-5.4</ele>
        <time>2021-07-04 13:09:20</time>
      </trkpt>
      <trkpt lat="28.73071" lon="-13.9714">
        <ele>-5.4</ele>
        <time>2021-07-04 13:09:21</time>
      </trkpt>
      <trkpt lat="28.73069" lon="-13.97146">
        <ele>-5.4</ele>
        <time>2021-07-04 13:09:22</time>
      </trkpt>
      <trkpt lat="28.73068" lon="-13.97151">
        <ele>-5.4</ele>
        <time>2021-07-04 13:09:23</time>
      </trkpt>
      <trkpt lat="28.73068" lon="-13.97155">
        <ele>-5.4</ele>
        <time>2021-07-04 13:09:24</time>
      </trkpt>
      <trkpt lat="28.73068" lon="-13.9716">
        <ele>-5.4</ele>
        <time>2021-07-04 13:09:25</time>
      </trkpt>
      <trkpt lat="28.73069" lon="-13.97164">
        <ele>-5.4</ele>
        <time>2021-07-04 13:09:26</time>
      </trkpt>
      <trkpt lat="28.73069" lon="-13.97169">
        <ele>-5.4</ele>
        <time>2021-07-04 13:09:27</time>
      </trkpt>
      <trkpt lat="28.7307" lon="-13.97173">
        <ele>-5.4</ele>
        <time>2021-07-04 13:09:28</time>
      </trkpt>
      <trkpt lat="28.73071" lon="-13.97177">
        <ele>-5.4</ele>
        <time>2021-07-04 13:09:29</time>
      </trkpt>
      <trkpt lat="28.73071" lon="-13.97181">
        <ele>-5.2</ele>
        <time>2021-07-04 13:09:30</time>
      </trkpt>
      <trkpt lat="28.73072" lon="-13.97186">
        <ele>-5</ele>
        <time>2021-07-04 13:09:31</time>
      </trkpt>
      <trkpt lat="28.73072" lon="-13.97191">
        <ele>-5</ele>
        <time>2021-07-04 13:09:32</time>
      </trkpt>
      <trkpt lat="28.73071" lon="-13.97195">
        <ele>-4.8</ele>
        <time>2021-07-04 13:09:33</time>
      </trkpt>
      <trkpt lat="28.7307" lon="-13.972">
        <ele>-4.8</ele>
        <time>2021-07-04 13:09:34</time>
      </trkpt>
      <trkpt lat="28.7307" lon="-13.97204">
        <ele>-4.8</ele>
        <time>2021-07-04 13:09:35</time>
      </trkpt>
      <trkpt lat="28.7307" lon="-13.97209">
        <ele>-4.8</ele>
        <time>2021-07-04 13:09:36</time>
      </trkpt>
      <trkpt lat="28.73071" lon="-13.97214">
        <ele>-4.4</ele>
        <time>2021-07-04 13:09:37</time>
      </trkpt>
      <trkpt lat="28.73071" lon="-13.97219">
        <ele>-4.4</ele>
        <time>2021-07-04 13:09:38</time>
      </trkpt>
      <trkpt lat="28.73071" lon="-13.97224">
        <ele>-4.4</ele>
        <time>2021-07-04 13:09:39</time>
      </trkpt>
      <trkpt lat="28.73071" lon="-13.97229">
        <ele>-4.4</ele>
        <time>2021-07-04 13:09:40</time>
      </trkpt>
      <trkpt lat="28.73071" lon="-13.97233">
        <ele>-4.4</ele>
        <time>2021-07-04 13:09:41</time>
      </trkpt>
      <trkpt lat="28.7307" lon="-13.97238">
        <ele>-4.4</ele>
        <time>2021-07-04 13:09:42</time>
      </trkpt>
      <trkpt lat="28.7307" lon="-13.97242">
        <ele>-4.4</ele>
        <time>2021-07-04 13:09:43</time>
      </trkpt>
      <trkpt lat="28.7307" lon="-13.97247">
        <ele>-4.4</ele>
        <time>2021-07-04 13:09:44</time>
      </trkpt>
      <trkpt lat="28.7307" lon="-13.97252">
        <ele>-4.4</ele>
        <time>2021-07-04 13:09:45</time>
      </trkpt>
      <trkpt lat="28.7307" lon="-13.97258">
        <ele>-4.4</ele>
        <time>2021-07-04 13:09:46</time>
      </trkpt>
      <trkpt lat="28.73071" lon="-13.97264">
        <ele>-4.4</ele>
        <time>2021-07-04 13:09:47</time>
      </trkpt>
      <trkpt lat="28.73072" lon="-13.97269">
        <ele>-4.4</ele>
        <time>2021-07-04 13:09:48</time>
      </trkpt>
      <trkpt lat="28.73074" lon="-13.97275">
        <ele>-4.4</ele>
        <time>2021-07-04 13:09:49</time>
      </trkpt>
      <trkpt lat="28.73076" lon="-13.9728">
        <ele>-4.4</ele>
        <time>2021-07-04 13:09:50</time>
      </trkpt>
      <trkpt lat="28.73078" lon="-13.97285">
        <ele>-4.4</ele>
        <time>2021-07-04 13:09:51</time>
      </trkpt>
      <trkpt lat="28.7308" lon="-13.9729">
        <ele>-4.4</ele>
        <time>2021-07-04 13:09:52</time>
      </trkpt>
      <trkpt lat="28.73083" lon="-13.97294">
        <ele>-4.4</ele>
        <time>2021-07-04 13:09:53</time>
      </trkpt>
      <trkpt lat="28.73086" lon="-13.97299">
        <ele>-4.2</ele>
        <time>2021-07-04 13:09:54</time>
      </trkpt>
      <trkpt lat="28.73088" lon="-13.97303">
        <ele>-4.2</ele>
        <time>2021-07-04 13:09:55</time>
      </trkpt>
      <trkpt lat="28.73091" lon="-13.97307">
        <ele>-4.2</ele>
        <time>2021-07-04 13:09:56</time>
      </trkpt>
      <trkpt lat="28.73094" lon="-13.97311">
        <ele>-4</ele>
        <time>2021-07-04 13:09:57</time>
      </trkpt>
      <trkpt lat="28.73096" lon="-13.97314">
        <ele>-4</ele>
        <time>2021-07-04 13:09:58</time>
      </trkpt>
      <trkpt lat="28.73099" lon="-13.97318">
        <ele>-4</ele>
        <time>2021-07-04 13:09:59</time>
      </trkpt>
      <trkpt lat="28.73102" lon="-13.97322">
        <ele>-4</ele>
        <time>2021-07-04 13:10:00</time>
      </trkpt>
      <trkpt lat="28.73105" lon="-13.97325">
        <ele>-4.2</ele>
        <time>2021-07-04 13:10:01</time>
      </trkpt>
      <trkpt lat="28.73109" lon="-13.97328">
        <ele>-4.2</ele>
        <time>2021-07-04 13:10:02</time>
      </trkpt>
      <trkpt lat="28.73112" lon="-13.97331">
        <ele>-4.2</ele>
        <time>2021-07-04 13:10:03</time>
      </trkpt>
      <trkpt lat="28.73115" lon="-13.97334">
        <ele>-4.2</ele>
        <time>2021-07-04 13:10:04</time>
      </trkpt>
      <trkpt lat="28.73117" lon="-13.97339">
        <ele>-4.2</ele>
        <time>2021-07-04 13:10:05</time>
      </trkpt>
      <trkpt lat="28.7312" lon="-13.97343">
        <ele>-4</ele>
        <time>2021-07-04 13:10:06</time>
      </trkpt>
      <trkpt lat="28.73122" lon="-13.97347">
        <ele>-4</ele>
        <time>2021-07-04 13:10:07</time>
      </trkpt>
      <trkpt lat="28.73124" lon="-13.97351">
        <ele>-4</ele>
        <time>2021-07-04 13:10:08</time>
      </trkpt>
      <trkpt lat="28.73126" lon="-13.97356">
        <ele>-4</ele>
        <time>2021-07-04 13:10:09</time>
      </trkpt>
      <trkpt lat="28.73127" lon="-13.97361">
        <ele>-3.8</ele>
        <time>2021-07-04 13:10:10</time>
      </trkpt>
      <trkpt lat="28.73128" lon="-13.97367">
        <ele>-3.8</ele>
        <time>2021-07-04 13:10:11</time>
      </trkpt>
      <trkpt lat="28.73128" lon="-13.97372">
        <ele>-3.4</ele>
        <time>2021-07-04 13:10:12</time>
      </trkpt>
      <trkpt lat="28.73129" lon="-13.97377">
        <ele>-3.4</ele>
        <time>2021-07-04 13:10:13</time>
      </trkpt>
      <trkpt lat="28.73129" lon="-13.97383">
        <ele>-3.2</ele>
        <time>2021-07-04 13:10:14</time>
      </trkpt>
      <trkpt lat="28.7313" lon="-13.97389">
        <ele>-3.2</ele>
        <time>2021-07-04 13:10:15</time>
      </trkpt>
      <trkpt lat="28.73131" lon="-13.97395">
        <ele>-3.2</ele>
        <time>2021-07-04 13:10:16</time>
      </trkpt>
      <trkpt lat="28.73131" lon="-13.974">
        <ele>-3.2</ele>
        <time>2021-07-04 13:10:17</time>
      </trkpt>
      <trkpt lat="28.73133" lon="-13.97406">
        <ele>-3.4</ele>
        <time>2021-07-04 13:10:18</time>
      </trkpt>
      <trkpt lat="28.73134" lon="-13.97413">
        <ele>-3.6</ele>
        <time>2021-07-04 13:10:19</time>
      </trkpt>
      <trkpt lat="28.73135" lon="-13.97418">
        <ele>-4</ele>
        <time>2021-07-04 13:10:20</time>
      </trkpt>
      <trkpt lat="28.73136" lon="-13.97424">
        <ele>-4.4</ele>
        <time>2021-07-04 13:10:21</time>
      </trkpt>
      <trkpt lat="28.73138" lon="-13.97429">
        <ele>-4.4</ele>
        <time>2021-07-04 13:10:22</time>
      </trkpt>
      <trkpt lat="28.7314" lon="-13.97434">
        <ele>-4.6</ele>
        <time>2021-07-04 13:10:23</time>
      </trkpt>
      <trkpt lat="28.73142" lon="-13.97439">
        <ele>-4.6</ele>
        <time>2021-07-04 13:10:24</time>
      </trkpt>
      <trkpt lat="28.73144" lon="-13.97444">
        <ele>-4.6</ele>
        <time>2021-07-04 13:10:25</time>
      </trkpt>
      <trkpt lat="28.73146" lon="-13.97449">
        <ele>-4.2</ele>
        <time>2021-07-04 13:10:26</time>
      </trkpt>
      <trkpt lat="28.73148" lon="-13.97455">
        <ele>-4.2</ele>
        <time>2021-07-04 13:10:27</time>
      </trkpt>
      <trkpt lat="28.73149" lon="-13.97459">
        <ele>-3.8</ele>
        <time>2021-07-04 13:10:28</time>
      </trkpt>
      <trkpt lat="28.73149" lon="-13.97463">
        <ele>-3.6</ele>
        <time>2021-07-04 13:10:29</time>
      </trkpt>
      <trkpt lat="28.7315" lon="-13.97467">
        <ele>-3.2</ele>
        <time>2021-07-04 13:10:30</time>
      </trkpt>
      <trkpt lat="28.7315" lon="-13.9747">
        <ele>-3</ele>
        <time>2021-07-04 13:10:31</time>
      </trkpt>
      <trkpt lat="28.7315" lon="-13.97474">
        <ele>-2.8</ele>
        <time>2021-07-04 13:10:32</time>
      </trkpt>
      <trkpt lat="28.7315" lon="-13.97477">
        <ele>-2.4</ele>
        <time>2021-07-04 13:10:33</time>
      </trkpt>
      <trkpt lat="28.7315" lon="-13.9748">
        <ele>-2.4</ele>
        <time>2021-07-04 13:10:34</time>
      </trkpt>
      <trkpt lat="28.73149" lon="-13.97484">
        <ele>-2</ele>
        <time>2021-07-04 13:10:35</time>
      </trkpt>
      <trkpt lat="28.73149" lon="-13.97487">
        <ele>-1.8</ele>
        <time>2021-07-04 13:10:36</time>
      </trkpt>
      <trkpt lat="28.73148" lon="-13.97492">
        <ele>-1.8</ele>
        <time>2021-07-04 13:10:37</time>
      </trkpt>
      <trkpt lat="28.73147" lon="-13.97496">
        <ele>-1.6</ele>
        <time>2021-07-04 13:10:38</time>
      </trkpt>
      <trkpt lat="28.73146" lon="-13.97501">
        <ele>-1.6</ele>
        <time>2021-07-04 13:10:39</time>
      </trkpt>
      <trkpt lat="28.73145" lon="-13.97506">
        <ele>-1.4</ele>
        <time>2021-07-04 13:10:40</time>
      </trkpt>
      <trkpt lat="28.73143" lon="-13.97511">
        <ele>-1.4</ele>
        <time>2021-07-04 13:10:41</time>
      </trkpt>
      <trkpt lat="28.73142" lon="-13.97517">
        <ele>-1.4</ele>
        <time>2021-07-04 13:10:42</time>
      </trkpt>
      <trkpt lat="28.73141" lon="-13.97523">
        <ele>-1.4</ele>
        <time>2021-07-04 13:10:43</time>
      </trkpt>
      <trkpt lat="28.7314" lon="-13.97528">
        <ele>-1.4</ele>
        <time>2021-07-04 13:10:44</time>
      </trkpt>
      <trkpt lat="28.73139" lon="-13.97534">
        <ele>-1.4</ele>
        <time>2021-07-04 13:10:45</time>
      </trkpt>
      <trkpt lat="28.73138" lon="-13.97539">
        <ele>-1.4</ele>
        <time>2021-07-04 13:10:46</time>
      </trkpt>
      <trkpt lat="28.73137" lon="-13.97544">
        <ele>-1.4</ele>
        <time>2021-07-04 13:10:47</time>
      </trkpt>
      <trkpt lat="28.73135" lon="-13.97549">
        <ele>-1.6</ele>
        <time>2021-07-04 13:10:48</time>
      </trkpt>
      <trkpt lat="28.73134" lon="-13.97554">
        <ele>-1.6</ele>
        <time>2021-07-04 13:10:49</time>
      </trkpt>
      <trkpt lat="28.73132" lon="-13.97558">
        <ele>-1.8</ele>
        <time>2021-07-04 13:10:50</time>
      </trkpt>
      <trkpt lat="28.73131" lon="-13.97563">
        <ele>-1.8</ele>
        <time>2021-07-04 13:10:51</time>
      </trkpt>
      <trkpt lat="28.73129" lon="-13.97567">
        <ele>-1.8</ele>
        <time>2021-07-04 13:10:52</time>
      </trkpt>
      <trkpt lat="28.73126" lon="-13.97571">
        <ele>-1.8</ele>
        <time>2021-07-04 13:10:53</time>
      </trkpt>
      <trkpt lat="28.73123" lon="-13.97576">
        <ele>-1.8</ele>
        <time>2021-07-04 13:10:54</time>
      </trkpt>
      <trkpt lat="28.7312" lon="-13.9758">
        <ele>-1.8</ele>
        <time>2021-07-04 13:10:55</time>
      </trkpt>
      <trkpt lat="28.73116" lon="-13.97583">
        <ele>-2.2</ele>
        <time>2021-07-04 13:10:56</time>
      </trkpt>
      <trkpt lat="28.73113" lon="-13.97586">
        <ele>-2.2</ele>
        <time>2021-07-04 13:10:57</time>
      </trkpt>
      <trkpt lat="28.73109" lon="-13.97589">
        <ele>-2.2</ele>
        <time>2021-07-04 13:10:58</time>
      </trkpt>
      <trkpt lat="28.73106" lon="-13.97592">
        <ele>-2.2</ele>
        <time>2021-07-04 13:10:59</time>
      </trkpt>
      <trkpt lat="28.73102" lon="-13.97595">
        <ele>-2.2</ele>
        <time>2021-07-04 13:11:00</time>
      </trkpt>
      <trkpt lat="28.73098" lon="-13.97598">
        <ele>-2.4</ele>
        <time>2021-07-04 13:11:01</time>
      </trkpt>
      <trkpt lat="28.73094" lon="-13.97601">
        <ele>-2.4</ele>
        <time>2021-07-04 13:11:02</time>
      </trkpt>
      <trkpt lat="28.73088" lon="-13.97603">
        <ele>-2.6</ele>
        <time>2021-07-04 13:11:03</time>
      </trkpt>
      <trkpt lat="28.73084" lon="-13.97606">
        <ele>-2.8</ele>
        <time>2021-07-04 13:11:04</time>
      </trkpt>
      <trkpt lat="28.73079" lon="-13.97608">
        <ele>-2.8</ele>
        <time>2021-07-04 13:11:05</time>
      </trkpt>
      <trkpt lat="28.73074" lon="-13.97611">
        <ele>-3.2</ele>
        <time>2021-07-04 13:11:06</time>
      </trkpt>
      <trkpt lat="28.73069" lon="-13.97615">
        <ele>-3.4</ele>
        <time>2021-07-04 13:11:07</time>
      </trkpt>
      <trkpt lat="28.73064" lon="-13.97618">
        <ele>-3.4</ele>
        <time>2021-07-04 13:11:08</time>
      </trkpt>
      <trkpt lat="28.73059" lon="-13.97621">
        <ele>-3.8</ele>
        <time>2021-07-04 13:11:09</time>
      </trkpt>
      <trkpt lat="28.73056" lon="-13.97624">
        <ele>-4</ele>
        <time>2021-07-04 13:11:10</time>
      </trkpt>
      <trkpt lat="28.73052" lon="-13.97627">
        <ele>-4</ele>
        <time>2021-07-04 13:11:11</time>
      </trkpt>
      <trkpt lat="28.73049" lon="-13.97631">
        <ele>-4.2</ele>
        <time>2021-07-04 13:11:12</time>
      </trkpt>
      <trkpt lat="28.73045" lon="-13.97635">
        <ele>-4.2</ele>
        <time>2021-07-04 13:11:13</time>
      </trkpt>
      <trkpt lat="28.73043" lon="-13.9764">
        <ele>-4.4</ele>
        <time>2021-07-04 13:11:14</time>
      </trkpt>
      <trkpt lat="28.7304" lon="-13.97645">
        <ele>-4.8</ele>
        <time>2021-07-04 13:11:15</time>
      </trkpt>
      <trkpt lat="28.73038" lon="-13.97651">
        <ele>-4.8</ele>
        <time>2021-07-04 13:11:16</time>
      </trkpt>
      <trkpt lat="28.73038" lon="-13.97657">
        <ele>-5</ele>
        <time>2021-07-04 13:11:17</time>
      </trkpt>
      <trkpt lat="28.73038" lon="-13.97663">
        <ele>-5</ele>
        <time>2021-07-04 13:11:18</time>
      </trkpt>
      <trkpt lat="28.73038" lon="-13.9767">
        <ele>-5</ele>
        <time>2021-07-04 13:11:19</time>
      </trkpt>
      <trkpt lat="28.73039" lon="-13.97676">
        <ele>-5.2</ele>
        <time>2021-07-04 13:11:20</time>
      </trkpt>
      <trkpt lat="28.7304" lon="-13.97682">
        <ele>-5.2</ele>
        <time>2021-07-04 13:11:21</time>
      </trkpt>
      <trkpt lat="28.73041" lon="-13.97688">
        <ele>-5.2</ele>
        <time>2021-07-04 13:11:22</time>
      </trkpt>
      <trkpt lat="28.73042" lon="-13.97693">
        <ele>-5.2</ele>
        <time>2021-07-04 13:11:23</time>
      </trkpt>
      <trkpt lat="28.73043" lon="-13.97699">
        <ele>-5.2</ele>
        <time>2021-07-04 13:11:24</time>
      </trkpt>
      <trkpt lat="28.73044" lon="-13.97705">
        <ele>-5.2</ele>
        <time>2021-07-04 13:11:25</time>
      </trkpt>
      <trkpt lat="28.73045" lon="-13.9771">
        <ele>-5</ele>
        <time>2021-07-04 13:11:26</time>
      </trkpt>
      <trkpt lat="28.73046" lon="-13.97715">
        <ele>-4.8</ele>
        <time>2021-07-04 13:11:27</time>
      </trkpt>
      <trkpt lat="28.73046" lon="-13.9772">
        <ele>-4.4</ele>
        <time>2021-07-04 13:11:28</time>
      </trkpt>
      <trkpt lat="28.73047" lon="-13.97725">
        <ele>-4.2</ele>
        <time>2021-07-04 13:11:29</time>
      </trkpt>
      <trkpt lat="28.73047" lon="-13.9773">
        <ele>-4</ele>
        <time>2021-07-04 13:11:30</time>
      </trkpt>
      <trkpt lat="28.73048" lon="-13.97735">
        <ele>-3.8</ele>
        <time>2021-07-04 13:11:31</time>
      </trkpt>
      <trkpt lat="28.7305" lon="-13.9774">
        <ele>-3.8</ele>
        <time>2021-07-04 13:11:32</time>
      </trkpt>
      <trkpt lat="28.73052" lon="-13.97744">
        <ele>-3.8</ele>
        <time>2021-07-04 13:11:33</time>
      </trkpt>
      <trkpt lat="28.73054" lon="-13.97749">
        <ele>-3.8</ele>
        <time>2021-07-04 13:11:34</time>
      </trkpt>
      <trkpt lat="28.73057" lon="-13.97753">
        <ele>-3.8</ele>
        <time>2021-07-04 13:11:35</time>
      </trkpt>
      <trkpt lat="28.7306" lon="-13.97756">
        <ele>-3.8</ele>
        <time>2021-07-04 13:11:36</time>
      </trkpt>
      <trkpt lat="28.73061" lon="-13.9776">
        <ele>-3.8</ele>
        <time>2021-07-04 13:11:37</time>
      </trkpt>
      <trkpt lat="28.73062" lon="-13.97764">
        <ele>-3.8</ele>
        <time>2021-07-04 13:11:38</time>
      </trkpt>
      <trkpt lat="28.73063" lon="-13.97768">
        <ele>-3.8</ele>
        <time>2021-07-04 13:11:39</time>
      </trkpt>
      <trkpt lat="28.73064" lon="-13.97772">
        <ele>-3.4</ele>
        <time>2021-07-04 13:11:40</time>
      </trkpt>
      <trkpt lat="28.73065" lon="-13.97776">
        <ele>-3.4</ele>
        <time>2021-07-04 13:11:41</time>
      </trkpt>
      <trkpt lat="28.73066" lon="-13.97781">
        <ele>-3</ele>
        <time>2021-07-04 13:11:42</time>
      </trkpt>
      <trkpt lat="28.73066" lon="-13.97786">
        <ele>-3</ele>
        <time>2021-07-04 13:11:43</time>
      </trkpt>
      <trkpt lat="28.73066" lon="-13.97791">
        <ele>-3</ele>
        <time>2021-07-04 13:11:44</time>
      </trkpt>
      <trkpt lat="28.73067" lon="-13.97797">
        <ele>-3.4</ele>
        <time>2021-07-04 13:11:45</time>
      </trkpt>
      <trkpt lat="28.73068" lon="-13.97802">
        <ele>-3.4</ele>
        <time>2021-07-04 13:11:46</time>
      </trkpt>
      <trkpt lat="28.73068" lon="-13.97808">
        <ele>-3.6</ele>
        <time>2021-07-04 13:11:47</time>
      </trkpt>
      <trkpt lat="28.73069" lon="-13.97813">
        <ele>-3.6</ele>
        <time>2021-07-04 13:11:48</time>
      </trkpt>
      <trkpt lat="28.73069" lon="-13.97818">
        <ele>-3.6</ele>
        <time>2021-07-04 13:11:49</time>
      </trkpt>
      <trkpt lat="28.7307" lon="-13.97823">
        <ele>-3.6</ele>
        <time>2021-07-04 13:11:50</time>
      </trkpt>
      <trkpt lat="28.73071" lon="-13.97828">
        <ele>-3.4</ele>
        <time>2021-07-04 13:11:51</time>
      </trkpt>
      <trkpt lat="28.73072" lon="-13.97832">
        <ele>-3.4</ele>
        <time>2021-07-04 13:11:52</time>
      </trkpt>
      <trkpt lat="28.73073" lon="-13.97837">
        <ele>-3</ele>
        <time>2021-07-04 13:11:53</time>
      </trkpt>
      <trkpt lat="28.73075" lon="-13.97842">
        <ele>-2.6</ele>
        <time>2021-07-04 13:11:54</time>
      </trkpt>
      <trkpt lat="28.73077" lon="-13.97845">
        <ele>-2.4</ele>
        <time>2021-07-04 13:11:55</time>
      </trkpt>
      <trkpt lat="28.73078" lon="-13.9785">
        <ele>-2.2</ele>
        <time>2021-07-04 13:11:56</time>
      </trkpt>
      <trkpt lat="28.73079" lon="-13.97854">
        <ele>-2.2</ele>
        <time>2021-07-04 13:11:57</time>
      </trkpt>
      <trkpt lat="28.73081" lon="-13.97857">
        <ele>-1.8</ele>
        <time>2021-07-04 13:11:58</time>
      </trkpt>
      <trkpt lat="28.73081" lon="-13.97861">
        <ele>-1.4</ele>
        <time>2021-07-04 13:11:59</time>
      </trkpt>
      <trkpt lat="28.73081" lon="-13.97864">
        <ele>-1.2</ele>
        <time>2021-07-04 13:12:00</time>
      </trkpt>
      <trkpt lat="28.73083" lon="-13.97868">
        <ele>-1</ele>
        <time>2021-07-04 13:12:01</time>
      </trkpt>
      <trkpt lat="28.73084" lon="-13.97872">
        <ele>-0.8</ele>
        <time>2021-07-04 13:12:02</time>
      </trkpt>
      <trkpt lat="28.73085" lon="-13.97875">
        <ele>-0.4</ele>
        <time>2021-07-04 13:12:03</time>
      </trkpt>
      <trkpt lat="28.73087" lon="-13.97879">
        <ele>-0.2</ele>
        <time>2021-07-04 13:12:04</time>
      </trkpt>
      <trkpt lat="28.73088" lon="-13.97883">
        <time>2021-07-04 13:12:05</time>
      </trkpt>
      <trkpt lat="28.73088" lon="-13.97887">
        <time>2021-07-04 13:12:06</time>
      </trkpt>
      <trkpt lat="28.73089" lon="-13.97891">
        <time>2021-07-04 13:12:07</time>
      </trkpt>
      <trkpt lat="28.7309" lon="-13.97895">
        <ele>0.2</ele>
        <time>2021-07-04 13:12:08</time>
      </trkpt>
      <trkpt lat="28.73091" lon="-13.97899">
        <ele>0.2</ele>
        <time>2021-07-04 13:12:09</time>
      </trkpt>
      <trkpt lat="28.73092" lon="-13.97902">
        <ele>0.2</ele>
        <time>2021-07-04 13:12:10</time>
      </trkpt>
      <trkpt lat="28.73093" lon="-13.97906">
        <ele>0.2</ele>
        <time>2021-07-04 13:12:11</time>
      </trkpt>
      <trkpt lat="28.73094" lon="-13.97911">
        <ele>0.2</ele>
        <time>2021-07-04 13:12:12</time>
      </trkpt>
      <trkpt lat="28.73095" lon="-13.97915">
        <ele>0.2</ele>
        <time>2021-07-04 13:12:13</time>
      </trkpt>
      <trkpt lat="28.73096" lon="-13.9792">
        <ele>0.2</ele>
        <time>2021-07-04 13:12:14</time>
      </trkpt>
      <trkpt lat="28.73098" lon="-13.97924">
        <time>2021-07-04 13:12:15</time>
      </trkpt>
      <trkpt lat="28.73099" lon="-13.97929">
        <time>2021-07-04 13:12:16</time>
      </trkpt>
      <trkpt lat="28.73101" lon="-13.97933">
        <ele>-0.4</ele>
        <time>2021-07-04 13:12:17</time>
      </trkpt>
      <trkpt lat="28.73102" lon="-13.97938">
        <ele>-0.4</ele>
        <time>2021-07-04 13:12:18</time>
      </trkpt>
      <trkpt lat="28.73103" lon="-13.97943">
        <ele>-0.6</ele>
        <time>2021-07-04 13:12:19</time>
      </trkpt>
      <trkpt lat="28.73104" lon="-13.97947">
        <ele>-0.6</ele>
        <time>2021-07-04 13:12:20</time>
      </trkpt>
      <trkpt lat="28.73105" lon="-13.97952">
        <ele>-0.6</ele>
        <time>2021-07-04 13:12:21</time>
      </trkpt>
      <trkpt lat="28.73105" lon="-13.97957">
        <ele>-0.6</ele>
        <time>2021-07-04 13:12:22</time>
      </trkpt>
      <trkpt lat="28.73105" lon="-13.97962">
        <ele>-0.6</ele>
        <time>2021-07-04 13:12:23</time>
      </trkpt>
      <trkpt lat="28.73103" lon="-13.97967">
        <ele>-0.6</ele>
        <time>2021-07-04 13:12:24</time>
      </trkpt>
      <trkpt lat="28.73099" lon="-13.9797">
        <ele>-0.6</ele>
        <time>2021-07-04 13:12:25</time>
      </trkpt>
      <trkpt lat="28.73096" lon="-13.97974">
        <ele>-1</ele>
        <time>2021-07-04 13:12:26</time>
      </trkpt>
      <trkpt lat="28.73093" lon="-13.97977">
        <ele>-1</ele>
        <time>2021-07-04 13:12:27</time>
      </trkpt>
      <trkpt lat="28.7309" lon="-13.97979">
        <ele>-1.2</ele>
        <time>2021-07-04 13:12:28</time>
      </trkpt>
      <trkpt lat="28.73086" lon="-13.97981">
        <ele>-1.2</ele>
        <time>2021-07-04 13:12:29</time>
      </trkpt>
      <trkpt lat="28.73082" lon="-13.97984">
        <ele>-1.6</ele>
        <time>2021-07-04 13:12:30</time>
      </trkpt>
      <trkpt lat="28.73078" lon="-13.97986">
        <ele>-1.6</ele>
        <time>2021-07-04 13:12:31</time>
      </trkpt>
      <trkpt lat="28.73074" lon="-13.97988">
        <ele>-1.6</ele>
        <time>2021-07-04 13:12:32</time>
      </trkpt>
      <trkpt lat="28.7307" lon="-13.9799">
        <ele>-1.6</ele>
        <time>2021-07-04 13:12:33</time>
      </trkpt>
      <trkpt lat="28.73067" lon="-13.97992">
        <ele>-1.4</ele>
        <time>2021-07-04 13:12:34</time>
      </trkpt>
      <trkpt lat="28.73064" lon="-13.97994">
        <ele>-1.4</ele>
        <time>2021-07-04 13:12:35</time>
      </trkpt>
      <trkpt lat="28.73061" lon="-13.97997">
        <ele>-1</ele>
        <time>2021-07-04 13:12:36</time>
      </trkpt>
      <trkpt lat="28.73059" lon="-13.98">
        <ele>-0.6</ele>
        <time>2021-07-04 13:12:37</time>
      </trkpt>
      <trkpt lat="28.73057" lon="-13.98003">
        <ele>-0.4</ele>
        <time>2021-07-04 13:12:38</time>
      </trkpt>
      <trkpt lat="28.73056" lon="-13.98006">
        <time>2021-07-04 13:12:39</time>
      </trkpt>
      <trkpt lat="28.73054" lon="-13.9801">
        <time>2021-07-04 13:12:40</time>
      </trkpt>
      <trkpt lat="28.73052" lon="-13.98014">
        <ele>0.2</ele>
        <time>2021-07-04 13:12:41</time>
      </trkpt>
      <trkpt lat="28.7305" lon="-13.98017">
        <ele>0.2</ele>
        <time>2021-07-04 13:12:42</time>
      </trkpt>
      <trkpt lat="28.73047" lon="-13.98021">
        <ele>0.2</ele>
        <time>2021-07-04 13:12:43</time>
      </trkpt>
      <trkpt lat="28.73043" lon="-13.98024">
        <ele>0.2</ele>
        <time>2021-07-04 13:12:44</time>
      </trkpt>
      <trkpt lat="28.7304" lon="-13.98027">
        <ele>-0.2</ele>
        <time>2021-07-04 13:12:45</time>
      </trkpt>
      <trkpt lat="28.73037" lon="-13.9803">
        <ele>-0.2</ele>
        <time>2021-07-04 13:12:46</time>
      </trkpt>
      <trkpt lat="28.73034" lon="-13.98033">
        <ele>-0.4</ele>
        <time>2021-07-04 13:12:47</time>
      </trkpt>
      <trkpt lat="28.7303" lon="-13.98036">
        <ele>-0.4</ele>
        <time>2021-07-04 13:12:48</time>
      </trkpt>
      <trkpt lat="28.73027" lon="-13.98039">
        <ele>-0.4</ele>
        <time>2021-07-04 13:12:49</time>
      </trkpt>
      <trkpt lat="28.73024" lon="-13.98041">
        <ele>-0.6</ele>
        <time>2021-07-04 13:12:50</time>
      </trkpt>
      <trkpt lat="28.73021" lon="-13.98043">
        <ele>-0.6</ele>
        <time>2021-07-04 13:12:51</time>
      </trkpt>
      <trkpt lat="28.73017" lon="-13.98044">
        <ele>-1</ele>
        <time>2021-07-04 13:12:52</time>
      </trkpt>
      <trkpt lat="28.73012" lon="-13.98044">
        <ele>-1.2</ele>
        <time>2021-07-04 13:12:53</time>
      </trkpt>
      <trkpt lat="28.73008" lon="-13.98046">
        <ele>-1.6</ele>
        <time>2021-07-04 13:12:54</time>
      </trkpt>
      <trkpt lat="28.73003" lon="-13.98049">
        <ele>-1.8</ele>
        <time>2021-07-04 13:12:55</time>
      </trkpt>
      <trkpt lat="28.72999" lon="-13.98051">
        <ele>-2</ele>
        <time>2021-07-04 13:12:56</time>
      </trkpt>
      <trkpt lat="28.72994" lon="-13.98054">
        <ele>-2.2</ele>
        <time>2021-07-04 13:12:57</time>
      </trkpt>
      <trkpt lat="28.7299" lon="-13.98057">
        <ele>-2.2</ele>
        <time>2021-07-04 13:12:58</time>
      </trkpt>
      <trkpt lat="28.72986" lon="-13.98059">
        <ele>-2.6</ele>
        <time>2021-07-04 13:12:59</time>
      </trkpt>
      <trkpt lat="28.72982" lon="-13.98061">
        <ele>-2.6</ele>
        <time>2021-07-04 13:13:00</time>
      </trkpt>
      <trkpt lat="28.72977" lon="-13.98063">
        <ele>-2.6</ele>
        <time>2021-07-04 13:13:01</time>
      </trkpt>
      <trkpt lat="28.72973" lon="-13.98065">
        <ele>-2.6</ele>
        <time>2021-07-04 13:13:02</time>
      </trkpt>
      <trkpt lat="28.72968" lon="-13.98068">
        <ele>-2.6</ele>
        <time>2021-07-04 13:13:03</time>
      </trkpt>
      <trkpt lat="28.72964" lon="-13.9807">
        <ele>-2.8</ele>
        <time>2021-07-04 13:13:04</time>
      </trkpt>
      <trkpt lat="28.7296" lon="-13.98073">
        <ele>-2.8</ele>
        <time>2021-07-04 13:13:05</time>
      </trkpt>
      <trkpt lat="28.72956" lon="-13.98076">
        <ele>-3</ele>
        <time>2021-07-04 13:13:06</time>
      </trkpt>
      <trkpt lat="28.72951" lon="-13.98077">
        <ele>-3</ele>
        <time>2021-07-04 13:13:07</time>
      </trkpt>
      <trkpt lat="28.72946" lon="-13.98079">
        <ele>-3.4</ele>
        <time>2021-07-04 13:13:08</time>
      </trkpt>
      <trkpt lat="28.72942" lon="-13.98079">
        <ele>-3.4</ele>
        <time>2021-07-04 13:13:09</time>
      </trkpt>
      <trkpt lat="28.72939" lon="-13.9808">
        <ele>-3.6</ele>
        <time>2021-07-04 13:13:10</time>
      </trkpt>
      <trkpt lat="28.72936" lon="-13.9808">
        <ele>-3.6</ele>
        <time>2021-07-04 13:13:11</time>
      </trkpt>
      <trkpt lat="28.72934" lon="-13.9808">
        <ele>-4</ele>
        <time>2021-07-04 13:13:12</time>
      </trkpt>
      <trkpt lat="28.72934" lon="-13.9808">
        <ele>-4</ele>
        <time>2021-07-04 13:13:13</time>
      </trkpt>
      <trkpt lat="28.72934" lon="-13.9808">
        <ele>-4.2</ele>
        <time>2021-07-04 13:13:14</time>
      </trkpt>
      <trkpt lat="28.72934" lon="-13.9808">
        <ele>-4.2</ele>
        <time>2021-07-04 13:13:15</time>
      </trkpt>
      <trkpt lat="28.72934" lon="-13.9808">
        <ele>-4.2</ele>
        <time>2021-07-04 13:13:16</time>
      </trkpt>
      <trkpt lat="28.72932" lon="-13.98079">
        <ele>-4.6</ele>
        <time>2021-07-04 13:13:17</time>
      </trkpt>
      <trkpt lat="28.72931" lon="-13.98078">
        <ele>-4.4</ele>
        <time>2021-07-04 13:13:18</time>
      </trkpt>
      <trkpt lat="28.72929" lon="-13.98077">
        <ele>-4.4</ele>
        <time>2021-07-04 13:13:19</time>
      </trkpt>
      <trkpt lat="28.72926" lon="-13.98076">
        <ele>-4.4</ele>
        <time>2021-07-04 13:13:20</time>
      </trkpt>
      <trkpt lat="28.72922" lon="-13.98075">
        <ele>-4.4</ele>
        <time>2021-07-04 13:13:21</time>
      </trkpt>
      <trkpt lat="28.72919" lon="-13.98073">
        <ele>-4.4</ele>
        <time>2021-07-04 13:13:22</time>
      </trkpt>
      <trkpt lat="28.72915" lon="-13.9807">
        <ele>-4.4</ele>
        <time>2021-07-04 13:13:23</time>
      </trkpt>
      <trkpt lat="28.72911" lon="-13.98067">
        <ele>-4.4</ele>
        <time>2021-07-04 13:13:24</time>
      </trkpt>
      <trkpt lat="28.72907" lon="-13.98064">
        <ele>-4.6</ele>
        <time>2021-07-04 13:13:25</time>
      </trkpt>
      <trkpt lat="28.72904" lon="-13.9806">
        <ele>-4.6</ele>
        <time>2021-07-04 13:13:26</time>
      </trkpt>
      <trkpt lat="28.729" lon="-13.98055">
        <ele>-4.8</ele>
        <time>2021-07-04 13:13:27</time>
      </trkpt>
      <trkpt lat="28.72896" lon="-13.98051">
        <ele>-4.8</ele>
        <time>2021-07-04 13:13:28</time>
      </trkpt>
      <trkpt lat="28.72892" lon="-13.98047">
        <ele>-5.2</ele>
        <time>2021-07-04 13:13:29</time>
      </trkpt>
      <trkpt lat="28.72888" lon="-13.98043">
        <ele>-5.2</ele>
        <time>2021-07-04 13:13:30</time>
      </trkpt>
      <trkpt lat="28.72884" lon="-13.98039">
        <ele>-5.6</ele>
        <time>2021-07-04 13:13:31</time>
      </trkpt>
      <trkpt lat="28.72881" lon="-13.98035">
        <ele>-5.6</ele>
        <time>2021-07-04 13:13:32</time>
      </trkpt>
      <trkpt lat="28.72877" lon="-13.98031">
        <ele>-5.6</ele>
        <time>2021-07-04 13:13:33</time>
      </trkpt>
      <trkpt lat="28.72874" lon="-13.98027">
        <ele>-5.6</ele>
        <time>2021-07-04 13:14:11</time>
      </trkpt>
      <trkpt lat="28.72871" lon="-13.98022">
        <ele>-5.6</ele>
        <time>2021-07-04 13:14:12</time>
      </trkpt>
      <trkpt lat="28.72867" lon="-13.98019">
        <ele>-5.6</ele>
        <time>2021-07-04 13:14:13</time>
      </trkpt>
      <trkpt lat="28.72864" lon="-13.98016">
        <ele>-5.8</ele>
        <time>2021-07-04 13:14:14</time>
      </trkpt>
      <trkpt lat="28.7286" lon="-13.98013">
        <ele>-5.8</ele>
        <time>2021-07-04 13:14:15</time>
      </trkpt>
      <trkpt lat="28.72857" lon="-13.9801">
        <ele>-6</ele>
        <time>2021-07-04 13:14:16</time>
      </trkpt>
      <trkpt lat="28.72854" lon="-13.98007">
        <ele>-6</ele>
        <time>2021-07-04 13:14:17</time>
      </trkpt>
      <trkpt lat="28.72851" lon="-13.98005">
        <ele>-6</ele>
        <time>2021-07-04 13:14:18</time>
      </trkpt>
      <trkpt lat="28.72848" lon="-13.98003">
        <ele>-6.2</ele>
        <time>2021-07-04 13:14:19</time>
      </trkpt>
      <trkpt lat="28.72844" lon="-13.98001">
        <ele>-6.2</ele>
        <time>2021-07-04 13:14:20</time>
      </trkpt>
      <trkpt lat="28.72841" lon="-13.97999">
        <ele>-6.2</ele>
        <time>2021-07-04 13:14:21</time>
      </trkpt>
      <trkpt lat="28.72838" lon="-13.97998">
        <ele>-6.2</ele>
        <time>2021-07-04 13:14:22</time>
      </trkpt>
      <trkpt lat="28.72835" lon="-13.97996">
        <ele>-6.2</ele>
        <time>2021-07-04 13:14:23</time>
      </trkpt>
      <trkpt lat="28.72832" lon="-13.97994">
        <ele>-6.2</ele>
        <time>2021-07-04 13:14:24</time>
      </trkpt>
      <trkpt lat="28.72829" lon="-13.97992">
        <ele>-6.2</ele>
        <time>2021-07-04 13:14:25</time>
      </trkpt>
      <trkpt lat="28.72825" lon="-13.97991">
        <ele>-6</ele>
        <time>2021-07-04 13:14:26</time>
      </trkpt>
      <trkpt lat="28.72822" lon="-13.97989">
        <ele>-5.8</ele>
        <time>2021-07-04 13:14:27</time>
      </trkpt>
      <trkpt lat="28.72819" lon="-13.97988">
        <ele>-5.8</ele>
        <time>2021-07-04 13:14:28</time>
      </trkpt>
      <trkpt lat="28.72816" lon="-13.97986">
        <ele>-5.8</ele>
        <time>2021-07-04 13:14:29</time>
      </trkpt>
      <trkpt lat="28.72814" lon="-13.97985">
        <ele>-5.8</ele>
        <time>2021-07-04 13:14:30</time>
      </trkpt>
      <trkpt lat="28.72811" lon="-13.97983">
        <ele>-6</ele>
        <time>2021-07-04 13:14:31</time>
      </trkpt>
      <trkpt lat="28.72809" lon="-13.97982">
        <ele>-6</ele>
        <time>2021-07-04 13:14:32</time>
      </trkpt>
      <trkpt lat="28.72806" lon="-13.9798">
        <ele>-6</ele>
        <time>2021-07-04 13:14:33</time>
      </trkpt>
      <trkpt lat="28.72803" lon="-13.97978">
        <ele>-6</ele>
        <time>2021-07-04 13:14:34</time>
      </trkpt>
      <trkpt lat="28.728" lon="-13.97976">
        <ele>-6</ele>
        <time>2021-07-04 13:14:35</time>
      </trkpt>
      <trkpt lat="28.72797" lon="-13.97975">
        <ele>-6</ele>
        <time>2021-07-04 13:14:36</time>
      </trkpt>
      <trkpt lat="28.72793" lon="-13.97974">
        <ele>-6</ele>
        <time>2021-07-04 13:14:37</time>
      </trkpt>
      <trkpt lat="28.7279" lon="-13.97973">
        <ele>-6</ele>
        <time>2021-07-04 13:14:38</time>
      </trkpt>
      <trkpt lat="28.72786" lon="-13.97972">
        <ele>-6</ele>
        <time>2021-07-04 13:14:39</time>
      </trkpt>
      <trkpt lat="28.72782" lon="-13.97972">
        <ele>-6.4</ele>
        <time>2021-07-04 13:14:40</time>
      </trkpt>
      <trkpt lat="28.72778" lon="-13.97972">
        <ele>-6.6</ele>
        <time>2021-07-04 13:14:41</time>
      </trkpt>
      <trkpt lat="28.72774" lon="-13.97973">
        <ele>-6.8</ele>
        <time>2021-07-04 13:14:42</time>
      </trkpt>
      <trkpt lat="28.72771" lon="-13.97974">
        <ele>-6.8</ele>
        <time>2021-07-04 13:14:43</time>
      </trkpt>
      <trkpt lat="28.72767" lon="-13.97976">
        <ele>-6.8</ele>
        <time>2021-07-04 13:14:44</time>
      </trkpt>
      <trkpt lat="28.72764" lon="-13.97978">
        <ele>-7.2</ele>
        <time>2021-07-04 13:14:45</time>
      </trkpt>
      <trkpt lat="28.72762" lon="-13.9798">
        <ele>-7.2</ele>
        <time>2021-07-04 13:14:46</time>
      </trkpt>
      <trkpt lat="28.7276" lon="-13.97983">
        <ele>-7.2</ele>
        <time>2021-07-04 13:14:47</time>
      </trkpt>
      <trkpt lat="28.72757" lon="-13.97986">
        <ele>-7.2</ele>
        <time>2021-07-04 13:14:48</time>
      </trkpt>
      <trkpt lat="28.72754" lon="-13.9799">
        <ele>-7.2</ele>
        <time>2021-07-04 13:14:49</time>
      </trkpt>
      <trkpt lat="28.72751" lon="-13.97993">
        <ele>-6.8</ele>
        <time>2021-07-04 13:14:50</time>
      </trkpt>
      <trkpt lat="28.72749" lon="-13.97997">
        <ele>-6.8</ele>
        <time>2021-07-04 13:14:51</time>
      </trkpt>
      <trkpt lat="28.72746" lon="-13.98">
        <ele>-6.6</ele>
        <time>2021-07-04 13:14:52</time>
      </trkpt>
      <trkpt lat="28.72744" lon="-13.98003">
        <ele>-6.6</ele>
        <time>2021-07-04 13:14:53</time>
      </trkpt>
      <trkpt lat="28.72742" lon="-13.98007">
        <ele>-6.6</ele>
        <time>2021-07-04 13:14:54</time>
      </trkpt>
      <trkpt lat="28.72739" lon="-13.9801">
        <ele>-6.6</ele>
        <time>2021-07-04 13:14:55</time>
      </trkpt>
      <trkpt lat="28.72737" lon="-13.98012">
        <ele>-6.6</ele>
        <time>2021-07-04 13:14:56</time>
      </trkpt>
      <trkpt lat="28.72735" lon="-13.98015">
        <ele>-6.4</ele>
        <time>2021-07-04 13:14:57</time>
      </trkpt>
      <trkpt lat="28.72732" lon="-13.98018">
        <ele>-6.4</ele>
        <time>2021-07-04 13:14:58</time>
      </trkpt>
      <trkpt lat="28.7273" lon="-13.9802">
        <ele>-6</ele>
        <time>2021-07-04 13:14:59</time>
      </trkpt>
      <trkpt lat="28.72728" lon="-13.98022">
        <ele>-5.6</ele>
        <time>2021-07-04 13:15:00</time>
      </trkpt>
      <trkpt lat="28.72726" lon="-13.98024">
        <ele>-5.2</ele>
        <time>2021-07-04 13:15:01</time>
      </trkpt>
      <trkpt lat="28.72724" lon="-13.98026">
        <ele>-4.8</ele>
        <time>2021-07-04 13:15:02</time>
      </trkpt>
      <trkpt lat="28.72723" lon="-13.98026">
        <ele>-4.2</ele>
        <time>2021-07-04 13:15:03</time>
      </trkpt>
      <trkpt lat="28.72722" lon="-13.98027">
        <ele>-3.8</ele>
        <time>2021-07-04 13:15:04</time>
      </trkpt>
      <trkpt lat="28.7272" lon="-13.98028">
        <ele>-3.4</ele>
        <time>2021-07-04 13:15:05</time>
      </trkpt>
      <trkpt lat="28.72719" lon="-13.98029">
        <ele>-3</ele>
        <time>2021-07-04 13:15:06</time>
      </trkpt>
      <trkpt lat="28.72717" lon="-13.98031">
        <ele>-2.8</ele>
        <time>2021-07-04 13:15:07</time>
      </trkpt>
      <trkpt lat="28.72714" lon="-13.98032">
        <ele>-2.8</ele>
        <time>2021-07-04 13:15:08</time>
      </trkpt>
      <trkpt lat="28.72712" lon="-13.98033">
        <ele>-2.4</ele>
        <time>2021-07-04 13:15:09</time>
      </trkpt>
      <trkpt lat="28.72709" lon="-13.98035">
        <ele>-2.4</ele>
        <time>2021-07-04 13:15:10</time>
      </trkpt>
      <trkpt lat="28.72706" lon="-13.98036">
        <ele>-2.2</ele>
        <time>2021-07-04 13:15:11</time>
      </trkpt>
      <trkpt lat="28.72704" lon="-13.98038">
        <ele>-2.2</ele>
        <time>2021-07-04 13:15:12</time>
      </trkpt>
      <trkpt lat="28.72702" lon="-13.9804">
        <ele>-2</ele>
        <time>2021-07-04 13:15:13</time>
      </trkpt>
      <trkpt lat="28.72701" lon="-13.98042">
        <ele>-2</ele>
        <time>2021-07-04 13:15:14</time>
      </trkpt>
      <trkpt lat="28.727" lon="-13.98044">
        <ele>-1.6</ele>
        <time>2021-07-04 13:15:15</time>
      </trkpt>
      <trkpt lat="28.72699" lon="-13.98047">
        <ele>-1.6</ele>
        <time>2021-07-04 13:15:16</time>
      </trkpt>
      <trkpt lat="28.72698" lon="-13.98049">
        <ele>-1.4</ele>
        <time>2021-07-04 13:15:17</time>
      </trkpt>
      <trkpt lat="28.72698" lon="-13.98051">
        <ele>-1.4</ele>
        <time>2021-07-04 13:15:18</time>
      </trkpt>
      <trkpt lat="28.72697" lon="-13.98054">
        <ele>-1.4</ele>
        <time>2021-07-04 13:15:19</time>
      </trkpt>
      <trkpt lat="28.72697" lon="-13.98057">
        <ele>-1.2</ele>
        <time>2021-07-04 13:15:20</time>
      </trkpt>
      <trkpt lat="28.72698" lon="-13.98061">
        <ele>-1.2</ele>
        <time>2021-07-04 13:15:21</time>
      </trkpt>
      <trkpt lat="28.72697" lon="-13.98064">
        <ele>-0.8</ele>
        <time>2021-07-04 13:15:22</time>
      </trkpt>
      <trkpt lat="28.72697" lon="-13.98069">
        <ele>-0.8</ele>
        <time>2021-07-04 13:15:23</time>
      </trkpt>
      <trkpt lat="28.72696" lon="-13.98072">
        <ele>-1.2</ele>
        <time>2021-07-04 13:15:24</time>
      </trkpt>
      <trkpt lat="28.72696" lon="-13.98076">
        <ele>-1.6</ele>
        <time>2021-07-04 13:15:25</time>
      </trkpt>
      <trkpt lat="28.72695" lon="-13.98081">
        <ele>-1.6</ele>
        <time>2021-07-04 13:15:26</time>
      </trkpt>
      <trkpt lat="28.72694" lon="-13.98087">
        <ele>-2.2</ele>
        <time>2021-07-04 13:15:27</time>
      </trkpt>
      <trkpt lat="28.72694" lon="-13.98092">
        <ele>-2.4</ele>
        <time>2021-07-04 13:15:28</time>
      </trkpt>
      <trkpt lat="28.72692" lon="-13.98099">
        <ele>-2.6</ele>
        <time>2021-07-04 13:15:29</time>
      </trkpt>
      <trkpt lat="28.72692" lon="-13.98105">
        <ele>-3</ele>
        <time>2021-07-04 13:15:30</time>
      </trkpt>
      <trkpt lat="28.72691" lon="-13.98111">
        <ele>-3.2</ele>
        <time>2021-07-04 13:15:31</time>
      </trkpt>
      <trkpt lat="28.7269" lon="-13.98117">
        <ele>-3.6</ele>
        <time>2021-07-04 13:15:32</time>
      </trkpt>
      <trkpt lat="28.7269" lon="-13.98122">
        <ele>-3.6</ele>
        <time>2021-07-04 13:15:33</time>
      </trkpt>
      <trkpt lat="28.7269" lon="-13.98128">
        <ele>-3.6</ele>
        <time>2021-07-04 13:15:34</time>
      </trkpt>
      <trkpt lat="28.7269" lon="-13.98132">
        <ele>-3.6</ele>
        <time>2021-07-04 13:15:35</time>
      </trkpt>
      <trkpt lat="28.7269" lon="-13.98136">
        <ele>-3.6</ele>
        <time>2021-07-04 13:15:36</time>
      </trkpt>
      <trkpt lat="28.7269" lon="-13.9814">
        <ele>-4</ele>
        <time>2021-07-04 13:15:37</time>
      </trkpt>
      <trkpt lat="28.72691" lon="-13.98144">
        <ele>-4</ele>
        <time>2021-07-04 13:15:38</time>
      </trkpt>
      <trkpt lat="28.72691" lon="-13.98148">
        <ele>-4</ele>
        <time>2021-07-04 13:15:39</time>
      </trkpt>
      <trkpt lat="28.72692" lon="-13.98152">
        <ele>-4</ele>
        <time>2021-07-04 13:15:40</time>
      </trkpt>
      <trkpt lat="28.72692" lon="-13.98155">
        <ele>-3.6</ele>
        <time>2021-07-04 13:15:41</time>
      </trkpt>
      <trkpt lat="28.72693" lon="-13.98159">
        <ele>-3.6</ele>
        <time>2021-07-04 13:15:42</time>
      </trkpt>
      <trkpt lat="28.72693" lon="-13.98163">
        <ele>-3.6</ele>
        <time>2021-07-04 13:15:43</time>
      </trkpt>
      <trkpt lat="28.72693" lon="-13.98167">
        <ele>-3.6</ele>
        <time>2021-07-04 13:15:44</time>
      </trkpt>
      <trkpt lat="28.72693" lon="-13.98172">
        <ele>-3.6</ele>
        <time>2021-07-04 13:15:45</time>
      </trkpt>
      <trkpt lat="28.72693" lon="-13.98176">
        <ele>-3.6</ele>
        <time>2021-07-04 13:15:46</time>
      </trkpt>
      <trkpt lat="28.72693" lon="-13.9818">
        <ele>-3.6</ele>
        <time>2021-07-04 13:15:47</time>
      </trkpt>
      <trkpt lat="28.72693" lon="-13.98185">
        <ele>-3.6</ele>
        <time>2021-07-04 13:15:48</time>
      </trkpt>
      <trkpt lat="28.72693" lon="-13.98189">
        <ele>-3.4</ele>
        <time>2021-07-04 13:15:49</time>
      </trkpt>
      <trkpt lat="28.72693" lon="-13.98193">
        <ele>-3.4</ele>
        <time>2021-07-04 13:15:50</time>
      </trkpt>
      <trkpt lat="28.72693" lon="-13.98198">
        <ele>-3</ele>
        <time>2021-07-04 13:15:51</time>
      </trkpt>
      <trkpt lat="28.72693" lon="-13.98202">
        <ele>-3</ele>
        <time>2021-07-04 13:15:52</time>
      </trkpt>
      <trkpt lat="28.72694" lon="-13.98206">
        <ele>-2.6</ele>
        <time>2021-07-04 13:15:53</time>
      </trkpt>
      <trkpt lat="28.72694" lon="-13.9821">
        <ele>-2.6</ele>
        <time>2021-07-04 13:15:54</time>
      </trkpt>
      <trkpt lat="28.72694" lon="-13.98214">
        <ele>-2.4</ele>
        <time>2021-07-04 13:15:55</time>
      </trkpt>
      <trkpt lat="28.72694" lon="-13.98219">
        <ele>-2.4</ele>
        <time>2021-07-04 13:15:56</time>
      </trkpt>
      <trkpt lat="28.72694" lon="-13.98223">
        <ele>-1.8</ele>
        <time>2021-07-04 13:15:57</time>
      </trkpt>
      <trkpt lat="28.72693" lon="-13.98227">
        <ele>-1.6</ele>
        <time>2021-07-04 13:15:58</time>
      </trkpt>
      <trkpt lat="28.72692" lon="-13.9823">
        <ele>-1.6</ele>
        <time>2021-07-04 13:15:59</time>
      </trkpt>
      <trkpt lat="28.72691" lon="-13.98234">
        <ele>-1.4</ele>
        <time>2021-07-04 13:16:00</time>
      </trkpt>
      <trkpt lat="28.7269" lon="-13.98238">
        <ele>-1.4</ele>
        <time>2021-07-04 13:16:01</time>
      </trkpt>
      <trkpt lat="28.72687" lon="-13.98243">
        <ele>-1.4</ele>
        <time>2021-07-04 13:16:02</time>
      </trkpt>
      <trkpt lat="28.72685" lon="-13.98247">
        <ele>-1.4</ele>
        <time>2021-07-04 13:16:03</time>
      </trkpt>
      <trkpt lat="28.72683" lon="-13.98253">
        <ele>-1.4</ele>
        <time>2021-07-04 13:16:04</time>
      </trkpt>
      <trkpt lat="28.72681" lon="-13.98258">
        <ele>-1.6</ele>
        <time>2021-07-04 13:16:05</time>
      </trkpt>
      <trkpt lat="28.7268" lon="-13.98263">
        <ele>-1.6</ele>
        <time>2021-07-04 13:16:06</time>
      </trkpt>
      <trkpt lat="28.72678" lon="-13.98268">
        <ele>-1.6</ele>
        <time>2021-07-04 13:16:07</time>
      </trkpt>
      <trkpt lat="28.72677" lon="-13.98273">
        <ele>-1.6</ele>
        <time>2021-07-04 13:16:08</time>
      </trkpt>
      <trkpt lat="28.72677" lon="-13.98278">
        <ele>-1.8</ele>
        <time>2021-07-04 13:16:09</time>
      </trkpt>
      <trkpt lat="28.72676" lon="-13.98281">
        <ele>-1.8</ele>
        <time>2021-07-04 13:16:10</time>
      </trkpt>
      <trkpt lat="28.72676" lon="-13.98285">
        <ele>-1.4</ele>
        <time>2021-07-04 13:16:11</time>
      </trkpt>
      <trkpt lat="28.72675" lon="-13.98288">
        <ele>-1.4</ele>
        <time>2021-07-04 13:16:12</time>
      </trkpt>
      <trkpt lat="28.72676" lon="-13.98292">
        <ele>-1.4</ele>
        <time>2021-07-04 13:16:13</time>
      </trkpt>
      <trkpt lat="28.72676" lon="-13.98296">
        <ele>-1.4</ele>
        <time>2021-07-04 13:16:14</time>
      </trkpt>
      <trkpt lat="28.72676" lon="-13.98301">
        <ele>-1.4</ele>
        <time>2021-07-04 13:16:15</time>
      </trkpt>
      <trkpt lat="28.72677" lon="-13.98305">
        <ele>-1.4</ele>
        <time>2021-07-04 13:16:16</time>
      </trkpt>
      <trkpt lat="28.72678" lon="-13.9831">
        <ele>-1.4</ele>
        <time>2021-07-04 13:16:17</time>
      </trkpt>
      <trkpt lat="28.72679" lon="-13.98314">
        <ele>-1.4</ele>
        <time>2021-07-04 13:16:18</time>
      </trkpt>
      <trkpt lat="28.72679" lon="-13.98318">
        <ele>-1.4</ele>
        <time>2021-07-04 13:16:19</time>
      </trkpt>
      <trkpt lat="28.7268" lon="-13.98322">
        <ele>-1.4</ele>
        <time>2021-07-04 13:16:20</time>
      </trkpt>
      <trkpt lat="28.7268" lon="-13.98327">
        <ele>-1</ele>
        <time>2021-07-04 13:16:21</time>
      </trkpt>
      <trkpt lat="28.72681" lon="-13.98331">
        <ele>-1</ele>
        <time>2021-07-04 13:16:22</time>
      </trkpt>
      <trkpt lat="28.72682" lon="-13.98336">
        <ele>-0.8</ele>
        <time>2021-07-04 13:16:23</time>
      </trkpt>
      <trkpt lat="28.72683" lon="-13.9834">
        <ele>-0.8</ele>
        <time>2021-07-04 13:16:24</time>
      </trkpt>
      <trkpt lat="28.72684" lon="-13.98344">
        <ele>-0.6</ele>
        <time>2021-07-04 13:16:25</time>
      </trkpt>
      <trkpt lat="28.72685" lon="-13.98349">
        <ele>-0.6</ele>
        <time>2021-07-04 13:16:26</time>
      </trkpt>
      <trkpt lat="28.72685" lon="-13.98353">
        <ele>-0.4</ele>
        <time>2021-07-04 13:16:27</time>
      </trkpt>
      <trkpt lat="28.72686" lon="-13.98358">
        <ele>-0.4</ele>
        <time>2021-07-04 13:16:28</time>
      </trkpt>
      <trkpt lat="28.72687" lon="-13.98362">
        <ele>-0.4</ele>
        <time>2021-07-04 13:16:29</time>
      </trkpt>
      <trkpt lat="28.72688" lon="-13.98367">
        <ele>-0.4</ele>
        <time>2021-07-04 13:16:30</time>
      </trkpt>
      <trkpt lat="28.72689" lon="-13.98371">
        <ele>-0.4</ele>
        <time>2021-07-04 13:16:31</time>
      </trkpt>
      <trkpt lat="28.7269" lon="-13.98376">
        <ele>-0.4</ele>
        <time>2021-07-04 13:16:32</time>
      </trkpt>
      <trkpt lat="28.7269" lon="-13.98381">
        <ele>-0.4</ele>
        <time>2021-07-04 13:16:33</time>
      </trkpt>
      <trkpt lat="28.72691" lon="-13.98385">
        <ele>-0.4</ele>
        <time>2021-07-04 13:16:34</time>
      </trkpt>
      <trkpt lat="28.72692" lon="-13.9839">
        <ele>-0.4</ele>
        <time>2021-07-04 13:16:35</time>
      </trkpt>
      <trkpt lat="28.72693" lon="-13.98395">
        <ele>-0.4</ele>
        <time>2021-07-04 13:16:36</time>
      </trkpt>
      <trkpt lat="28.72694" lon="-13.98399">
        <ele>-0.2</ele>
        <time>2021-07-04 13:16:37</time>
      </trkpt>
      <trkpt lat="28.72695" lon="-13.98404">
        <ele>-0.2</ele>
        <time>2021-07-04 13:16:38</time>
      </trkpt>
      <trkpt lat="28.72695" lon="-13.98408">
        <ele>-0.2</ele>
        <time>2021-07-04 13:16:39</time>
      </trkpt>
      <trkpt lat="28.72696" lon="-13.98413">
        <ele>-0.2</ele>
        <time>2021-07-04 13:16:40</time>
      </trkpt>
      <trkpt lat="28.72697" lon="-13.98418">
        <ele>-0.4</ele>
        <time>2021-07-04 13:16:41</time>
      </trkpt>
      <trkpt lat="28.72698" lon="-13.98422">
        <ele>-0.4</ele>
        <time>2021-07-04 13:16:42</time>
      </trkpt>
      <trkpt lat="28.72699" lon="-13.98427">
        <ele>-0.4</ele>
        <time>2021-07-04 13:16:43</time>
      </trkpt>
      <trkpt lat="28.72699" lon="-13.98432">
        <ele>-0.4</ele>
        <time>2021-07-04 13:16:44</time>
      </trkpt>
      <trkpt lat="28.727" lon="-13.98437">
        <ele>-0.4</ele>
        <time>2021-07-04 13:16:45</time>
      </trkpt>
      <trkpt lat="28.72701" lon="-13.98441">
        <ele>-0.6</ele>
        <time>2021-07-04 13:16:46</time>
      </trkpt>
      <trkpt lat="28.72701" lon="-13.98446">
        <ele>-0.6</ele>
        <time>2021-07-04 13:16:47</time>
      </trkpt>
      <trkpt lat="28.72701" lon="-13.98451">
        <ele>-0.8</ele>
        <time>2021-07-04 13:16:48</time>
      </trkpt>
      <trkpt lat="28.72699" lon="-13.98456">
        <ele>-0.8</ele>
        <time>2021-07-04 13:16:49</time>
      </trkpt>
      <trkpt lat="28.72698" lon="-13.98461">
        <ele>-0.8</ele>
        <time>2021-07-04 13:16:50</time>
      </trkpt>
      <trkpt lat="28.72697" lon="-13.98466">
        <ele>-0.8</ele>
        <time>2021-07-04 13:16:51</time>
      </trkpt>
      <trkpt lat="28.72695" lon="-13.9847">
        <ele>-0.8</ele>
        <time>2021-07-04 13:16:52</time>
      </trkpt>
      <trkpt lat="28.72693" lon="-13.98475">
        <ele>-1</ele>
        <time>2021-07-04 13:16:53</time>
      </trkpt>
      <trkpt lat="28.7269" lon="-13.98479">
        <ele>-1</ele>
        <time>2021-07-04 13:16:54</time>
      </trkpt>
      <trkpt lat="28.72688" lon="-13.98484">
        <ele>-1</ele>
        <time>2021-07-04 13:16:55</time>
      </trkpt>
      <trkpt lat="28.72685" lon="-13.98487">
        <ele>-1</ele>
        <time>2021-07-04 13:16:56</time>
      </trkpt>
      <trkpt lat="28.72681" lon="-13.98491">
        <ele>-1</ele>
        <time>2021-07-04 13:16:57</time>
      </trkpt>
      <trkpt lat="28.72677" lon="-13.98493">
        <ele>-1</ele>
        <time>2021-07-04 13:16:58</time>
      </trkpt>
      <trkpt lat="28.72673" lon="-13.98496">
        <ele>-1.2</ele>
        <time>2021-07-04 13:16:59</time>
      </trkpt>
      <trkpt lat="28.72668" lon="-13.98499">
        <ele>-1.2</ele>
        <time>2021-07-04 13:17:00</time>
      </trkpt>
      <trkpt lat="28.72664" lon="-13.98502">
        <ele>-1.6</ele>
        <time>2021-07-04 13:17:01</time>
      </trkpt>
      <trkpt lat="28.7266" lon="-13.98505">
        <ele>-1.6</ele>
        <time>2021-07-04 13:17:02</time>
      </trkpt>
      <trkpt lat="28.72656" lon="-13.98509">
        <ele>-2</ele>
        <time>2021-07-04 13:17:03</time>
      </trkpt>
      <trkpt lat="28.72652" lon="-13.98512">
        <ele>-2</ele>
        <time>2021-07-04 13:17:04</time>
      </trkpt>
      <trkpt lat="28.72648" lon="-13.98517">
        <ele>-2.2</ele>
        <time>2021-07-04 13:17:05</time>
      </trkpt>
      <trkpt lat="28.72645" lon="-13.9852">
        <ele>-2.6</ele>
        <time>2021-07-04 13:17:06</time>
      </trkpt>
      <trkpt lat="28.72641" lon="-13.98524">
        <ele>-2.6</ele>
        <time>2021-07-04 13:17:07</time>
      </trkpt>
      <trkpt lat="28.72639" lon="-13.98529">
        <ele>-2.8</ele>
        <time>2021-07-04 13:17:08</time>
      </trkpt>
      <trkpt lat="28.72637" lon="-13.98534">
        <ele>-2.8</ele>
        <time>2021-07-04 13:17:09</time>
      </trkpt>
      <trkpt lat="28.72635" lon="-13.98538">
        <ele>-2.8</ele>
        <time>2021-07-04 13:17:10</time>
      </trkpt>
      <trkpt lat="28.72633" lon="-13.98543">
        <ele>-2.8</ele>
        <time>2021-07-04 13:17:11</time>
      </trkpt>
      <trkpt lat="28.72631" lon="-13.98548">
        <ele>-3</ele>
        <time>2021-07-04 13:17:12</time>
      </trkpt>
      <trkpt lat="28.72629" lon="-13.98553">
        <ele>-3</ele>
        <time>2021-07-04 13:17:13</time>
      </trkpt>
      <trkpt lat="28.72627" lon="-13.98558">
        <ele>-3</ele>
        <time>2021-07-04 13:17:14</time>
      </trkpt>
      <trkpt lat="28.72625" lon="-13.98564">
        <ele>-3</ele>
        <time>2021-07-04 13:17:15</time>
      </trkpt>
      <trkpt lat="28.72623" lon="-13.98569">
        <ele>-3</ele>
        <time>2021-07-04 13:17:16</time>
      </trkpt>
      <trkpt lat="28.7262" lon="-13.98573">
        <ele>-3</ele>
        <time>2021-07-04 13:17:17</time>
      </trkpt>
      <trkpt lat="28.72616" lon="-13.98577">
        <ele>-2.8</ele>
        <time>2021-07-04 13:17:18</time>
      </trkpt>
      <trkpt lat="28.72613" lon="-13.98581">
        <ele>-2.8</ele>
        <time>2021-07-04 13:17:19</time>
      </trkpt>
      <trkpt lat="28.72609" lon="-13.98585">
        <ele>-2.8</ele>
        <time>2021-07-04 13:17:20</time>
      </trkpt>
      <trkpt lat="28.72605" lon="-13.98588">
        <ele>-2.8</ele>
        <time>2021-07-04 13:17:21</time>
      </trkpt>
      <trkpt lat="28.72601" lon="-13.98592">
        <ele>-2.8</ele>
        <time>2021-07-04 13:17:22</time>
      </trkpt>
      <trkpt lat="28.72596" lon="-13.98596">
        <ele>-2.8</ele>
        <time>2021-07-04 13:17:23</time>
      </trkpt>
      <trkpt lat="28.72591" lon="-13.986">
        <ele>-2.8</ele>
        <time>2021-07-04 13:17:24</time>
      </trkpt>
      <trkpt lat="28.72586" lon="-13.98604">
        <ele>-3</ele>
        <time>2021-07-04 13:17:25</time>
      </trkpt>
      <trkpt lat="28.7258" lon="-13.98609">
        <ele>-3</ele>
        <time>2021-07-04 13:17:26</time>
      </trkpt>
      <trkpt lat="28.72575" lon="-13.98613">
        <ele>-3.4</ele>
        <time>2021-07-04 13:17:27</time>
      </trkpt>
      <trkpt lat="28.7257" lon="-13.98617">
        <ele>-3.4</ele>
        <time>2021-07-04 13:17:28</time>
      </trkpt>
      <trkpt lat="28.72565" lon="-13.9862">
        <ele>-3.6</ele>
        <time>2021-07-04 13:17:29</time>
      </trkpt>
      <trkpt lat="28.7256" lon="-13.98624">
        <ele>-3.6</ele>
        <time>2021-07-04 13:17:30</time>
      </trkpt>
      <trkpt lat="28.72556" lon="-13.98627">
        <ele>-3.6</ele>
        <time>2021-07-04 13:17:31</time>
      </trkpt>
      <trkpt lat="28.72552" lon="-13.98631">
        <ele>-3.6</ele>
        <time>2021-07-04 13:17:32</time>
      </trkpt>
      <trkpt lat="28.72549" lon="-13.98634">
        <ele>-3.6</ele>
        <time>2021-07-04 13:17:33</time>
      </trkpt>
      <trkpt lat="28.72545" lon="-13.98638">
        <ele>-3.6</ele>
        <time>2021-07-04 13:17:34</time>
      </trkpt>
      <trkpt lat="28.72541" lon="-13.98641">
        <ele>-3.6</ele>
        <time>2021-07-04 13:17:35</time>
      </trkpt>
      <trkpt lat="28.72538" lon="-13.98644">
        <ele>-3.6</ele>
        <time>2021-07-04 13:17:36</time>
      </trkpt>
      <trkpt lat="28.72535" lon="-13.98647">
        <ele>-3.6</ele>
        <time>2021-07-04 13:17:37</time>
      </trkpt>
      <trkpt lat="28.72532" lon="-13.98649">
        <ele>-3.6</ele>
        <time>2021-07-04 13:17:38</time>
      </trkpt>
      <trkpt lat="28.72528" lon="-13.98651">
        <ele>-3.4</ele>
        <time>2021-07-04 13:17:39</time>
      </trkpt>
      <trkpt lat="28.72525" lon="-13.98654">
        <ele>-3.4</ele>
        <time>2021-07-04 13:17:40</time>
      </trkpt>
      <trkpt lat="28.72521" lon="-13.98655">
        <ele>-3.4</ele>
        <time>2021-07-04 13:17:41</time>
      </trkpt>
      <trkpt lat="28.72516" lon="-13.98658">
        <ele>-3.4</ele>
        <time>2021-07-04 13:17:42</time>
      </trkpt>
      <trkpt lat="28.72512" lon="-13.98659">
        <ele>-3.4</ele>
        <time>2021-07-04 13:17:43</time>
      </trkpt>
      <trkpt lat="28.72508" lon="-13.98661">
        <ele>-3.6</ele>
        <time>2021-07-04 13:17:44</time>
      </trkpt>
      <trkpt lat="28.72504" lon="-13.98663">
        <ele>-3.6</ele>
        <time>2021-07-04 13:17:45</time>
      </trkpt>
      <trkpt lat="28.725" lon="-13.98664">
        <ele>-4</ele>
        <time>2021-07-04 13:17:46</time>
      </trkpt>
      <trkpt lat="28.72498" lon="-13.98665">
        <ele>-4.4</ele>
        <time>2021-07-04 13:17:47</time>
      </trkpt>
      <trkpt lat="28.72498" lon="-13.98665">
        <ele>-4.6</ele>
        <time>2021-07-04 13:17:48</time>
      </trkpt>
      <trkpt lat="28.72498" lon="-13.98665">
        <ele>-4.6</ele>
        <time>2021-07-04 13:17:49</time>
      </trkpt>
      <trkpt lat="28.72498" lon="-13.98665">
        <ele>-4.8</ele>
        <time>2021-07-04 13:17:50</time>
      </trkpt>
      <trkpt lat="28.72497" lon="-13.98665">
        <ele>-2.8</ele>
        <time>2021-07-04 13:17:51</time>
      </trkpt>
      <trkpt lat="28.72496" lon="-13.98666">
        <ele>-2.8</ele>
        <time>2021-07-04 13:17:52</time>
      </trkpt>
      <trkpt lat="28.72494" lon="-13.98667">
        <ele>-2.8</ele>
        <time>2021-07-04 13:17:53</time>
      </trkpt>
      <trkpt lat="28.72492" lon="-13.98667">
        <ele>-2.8</ele>
        <time>2021-07-04 13:17:54</time>
      </trkpt>
      <trkpt lat="28.7249" lon="-13.98668">
        <ele>-2.8</ele>
        <time>2021-07-04 13:17:55</time>
      </trkpt>
      <trkpt lat="28.72488" lon="-13.98668">
        <ele>-2.8</ele>
        <time>2021-07-04 13:17:56</time>
      </trkpt>
      <trkpt lat="28.72485" lon="-13.98669">
        <ele>-2.8</ele>
        <time>2021-07-04 13:17:57</time>
      </trkpt>
      <trkpt lat="28.72483" lon="-13.98669">
        <ele>-3</ele>
        <time>2021-07-04 13:17:58</time>
      </trkpt>
      <trkpt lat="28.72481" lon="-13.9867">
        <ele>-3</ele>
        <time>2021-07-04 13:17:59</time>
      </trkpt>
      <trkpt lat="28.72479" lon="-13.98671">
        <ele>-3</ele>
        <time>2021-07-04 13:18:00</time>
      </trkpt>
      <trkpt lat="28.72477" lon="-13.98673">
        <ele>-3</ele>
        <time>2021-07-04 13:18:01</time>
      </trkpt>
      <trkpt lat="28.72474" lon="-13.98675">
        <ele>-3</ele>
        <time>2021-07-04 13:18:02</time>
      </trkpt>
      <trkpt lat="28.72472" lon="-13.98677">
        <ele>-3</ele>
        <time>2021-07-04 13:18:03</time>
      </trkpt>
      <trkpt lat="28.7247" lon="-13.98679">
        <ele>-3</ele>
        <time>2021-07-04 13:18:04</time>
      </trkpt>
      <trkpt lat="28.72468" lon="-13.98682">
        <ele>-3</ele>
        <time>2021-07-04 13:18:05</time>
      </trkpt>
      <trkpt lat="28.72467" lon="-13.98685">
        <ele>-3</ele>
        <time>2021-07-04 13:18:06</time>
      </trkpt>
      <trkpt lat="28.72466" lon="-13.98688">
        <ele>-3</ele>
        <time>2021-07-04 13:18:07</time>
      </trkpt>
      <trkpt lat="28.72465" lon="-13.98691">
        <ele>-3</ele>
        <time>2021-07-04 13:19:35</time>
      </trkpt>
      <trkpt lat="28.72465" lon="-13.98695">
        <ele>-3</ele>
        <time>2021-07-04 13:19:36</time>
      </trkpt>
      <trkpt lat="28.72464" lon="-13.98698">
        <ele>-2.6</ele>
        <time>2021-07-04 13:19:37</time>
      </trkpt>
      <trkpt lat="28.72463" lon="-13.987">
        <ele>-2.6</ele>
        <time>2021-07-04 13:19:38</time>
      </trkpt>
      <trkpt lat="28.72461" lon="-13.98703">
        <ele>-2.6</ele>
        <time>2021-07-04 13:19:39</time>
      </trkpt>
      <trkpt lat="28.7246" lon="-13.98706">
        <ele>-2.4</ele>
        <time>2021-07-04 13:19:40</time>
      </trkpt>
      <trkpt lat="28.72458" lon="-13.98708">
        <ele>-2.4</ele>
        <time>2021-07-04 13:19:41</time>
      </trkpt>
      <trkpt lat="28.72455" lon="-13.98711">
        <ele>-2.4</ele>
        <time>2021-07-04 13:19:42</time>
      </trkpt>
      <trkpt lat="28.72452" lon="-13.98713">
        <ele>-2.4</ele>
        <time>2021-07-04 13:19:43</time>
      </trkpt>
      <trkpt lat="28.7245" lon="-13.98715">
        <ele>-2.4</ele>
        <time>2021-07-04 13:19:44</time>
      </trkpt>
      <trkpt lat="28.72448" lon="-13.98717">
        <ele>-2.8</ele>
        <time>2021-07-04 13:19:45</time>
      </trkpt>
      <trkpt lat="28.72445" lon="-13.9872">
        <ele>-2.8</ele>
        <time>2021-07-04 13:19:46</time>
      </trkpt>
      <trkpt lat="28.72443" lon="-13.98722">
        <ele>-2.8</ele>
        <time>2021-07-04 13:19:47</time>
      </trkpt>
      <trkpt lat="28.72441" lon="-13.98724">
        <ele>-2.8</ele>
        <time>2021-07-04 13:19:48</time>
      </trkpt>
      <trkpt lat="28.72439" lon="-13.98726">
        <ele>-2.8</ele>
        <time>2021-07-04 13:19:49</time>
      </trkpt>
      <trkpt lat="28.72437" lon="-13.98728">
        <ele>-2.8</ele>
        <time>2021-07-04 13:19:50</time>
      </trkpt>
      <trkpt lat="28.72435" lon="-13.98731">
        <ele>-2.8</ele>
        <time>2021-07-04 13:19:51</time>
      </trkpt>
      <trkpt lat="28.72433" lon="-13.98735">
        <ele>-2.8</ele>
        <time>2021-07-04 13:19:52</time>
      </trkpt>
      <trkpt lat="28.72431" lon="-13.98738">
        <ele>-2.4</ele>
        <time>2021-07-04 13:19:53</time>
      </trkpt>
      <trkpt lat="28.7243" lon="-13.98742">
        <ele>-2.4</ele>
        <time>2021-07-04 13:19:54</time>
      </trkpt>
      <trkpt lat="28.72428" lon="-13.98745">
        <ele>-2.4</ele>
        <time>2021-07-04 13:19:55</time>
      </trkpt>
      <trkpt lat="28.72427" lon="-13.98748">
        <ele>-2.4</ele>
        <time>2021-07-04 13:19:56</time>
      </trkpt>
      <trkpt lat="28.72425" lon="-13.98751">
        <ele>-2.2</ele>
        <time>2021-07-04 13:19:57</time>
      </trkpt>
      <trkpt lat="28.72424" lon="-13.98754">
        <ele>-2.2</ele>
        <time>2021-07-04 13:19:58</time>
      </trkpt>
      <trkpt lat="28.72422" lon="-13.98758">
        <ele>-2.2</ele>
        <time>2021-07-04 13:19:59</time>
      </trkpt>
      <trkpt lat="28.7242" lon="-13.98761">
        <ele>-2.2</ele>
        <time>2021-07-04 13:20:00</time>
      </trkpt>
      <trkpt lat="28.72418" lon="-13.98765">
        <ele>-2.2</ele>
        <time>2021-07-04 13:20:01</time>
      </trkpt>
      <trkpt lat="28.72416" lon="-13.98769">
        <ele>-2.2</ele>
        <time>2021-07-04 13:20:02</time>
      </trkpt>
      <trkpt lat="28.72414" lon="-13.98772">
        <ele>-2.4</ele>
        <time>2021-07-04 13:20:03</time>
      </trkpt>
      <trkpt lat="28.72412" lon="-13.98776">
        <ele>-2.4</ele>
        <time>2021-07-04 13:20:04</time>
      </trkpt>
      <trkpt lat="28.7241" lon="-13.98779">
        <ele>-2.4</ele>
        <time>2021-07-04 13:20:05</time>
      </trkpt>
      <trkpt lat="28.72408" lon="-13.98781">
        <ele>-2.8</ele>
        <time>2021-07-04 13:20:06</time>
      </trkpt>
      <trkpt lat="28.72406" lon="-13.98784">
        <ele>-2.8</ele>
        <time>2021-07-04 13:20:07</time>
      </trkpt>
      <trkpt lat="28.72405" lon="-13.98786">
        <ele>-2.8</ele>
        <time>2021-07-04 13:20:08</time>
      </trkpt>
      <trkpt lat="28.72403" lon="-13.98789">
        <ele>-2.8</ele>
        <time>2021-07-04 13:20:09</time>
      </trkpt>
      <trkpt lat="28.72402" lon="-13.98791">
        <ele>-2.8</ele>
        <time>2021-07-04 13:20:10</time>
      </trkpt>
      <trkpt lat="28.72401" lon="-13.98794">
        <ele>-2.8</ele>
        <time>2021-07-04 13:20:11</time>
      </trkpt>
      <trkpt lat="28.724" lon="-13.98797">
        <ele>-3</ele>
        <time>2021-07-04 13:20:12</time>
      </trkpt>
      <trkpt lat="28.72398" lon="-13.988">
        <ele>-3</ele>
        <time>2021-07-04 13:20:13</time>
      </trkpt>
      <trkpt lat="28.72397" lon="-13.98803">
        <ele>-3</ele>
        <time>2021-07-04 13:20:14</time>
      </trkpt>
      <trkpt lat="28.72396" lon="-13.98806">
        <ele>-3</ele>
        <time>2021-07-04 13:20:15</time>
      </trkpt>
      <trkpt lat="28.72395" lon="-13.98808">
        <ele>-3</ele>
        <time>2021-07-04 13:20:16</time>
      </trkpt>
      <trkpt lat="28.72393" lon="-13.98811">
        <ele>-3</ele>
        <time>2021-07-04 13:20:17</time>
      </trkpt>
      <trkpt lat="28.72392" lon="-13.98814">
        <ele>-3</ele>
        <time>2021-07-04 13:20:18</time>
      </trkpt>
      <trkpt lat="28.72391" lon="-13.98817">
        <ele>-2.8</ele>
        <time>2021-07-04 13:20:19</time>
      </trkpt>
      <trkpt lat="28.7239" lon="-13.98819">
        <ele>-2.8</ele>
        <time>2021-07-04 13:20:20</time>
      </trkpt>
      <trkpt lat="28.72389" lon="-13.98822">
        <ele>-2.8</ele>
        <time>2021-07-04 13:20:21</time>
      </trkpt>
      <trkpt lat="28.72388" lon="-13.98824">
        <ele>-2.8</ele>
        <time>2021-07-04 13:20:22</time>
      </trkpt>
      <trkpt lat="28.72387" lon="-13.98825">
        <ele>-2.8</ele>
        <time>2021-07-04 13:20:23</time>
      </trkpt>
      <trkpt lat="28.72387" lon="-13.98826">
        <ele>-2.6</ele>
        <time>2021-07-04 13:20:24</time>
      </trkpt>
      <trkpt lat="28.72387" lon="-13.98827">
        <ele>-2.6</ele>
        <time>2021-07-04 13:20:25</time>
      </trkpt>
      <trkpt lat="28.72386" lon="-13.98828">
        <ele>-2.2</ele>
        <time>2021-07-04 13:20:26</time>
      </trkpt>
      <trkpt lat="28.72385" lon="-13.9883">
        <ele>-2.2</ele>
        <time>2021-07-04 13:20:27</time>
      </trkpt>
      <trkpt lat="28.72384" lon="-13.98831">
        <ele>-2.2</ele>
        <time>2021-07-04 13:20:28</time>
      </trkpt>
      <trkpt lat="28.72383" lon="-13.98833">
        <ele>-2.2</ele>
        <time>2021-07-04 13:20:29</time>
      </trkpt>
      <trkpt lat="28.72382" lon="-13.98835">
        <ele>-2.2</ele>
        <time>2021-07-04 13:20:30</time>
      </trkpt>
      <trkpt lat="28.72382" lon="-13.98836">
        <ele>-2</ele>
        <time>2021-07-04 13:20:31</time>
      </trkpt>
      <trkpt lat="28.72382" lon="-13.98836">
        <ele>-2</ele>
        <time>2021-07-04 13:20:32</time>
      </trkpt>
      <trkpt lat="28.72381" lon="-13.98837">
        <ele>-1.6</ele>
        <time>2021-07-04 13:20:33</time>
      </trkpt>
      <trkpt lat="28.72381" lon="-13.98837">
        <ele>-1.6</ele>
        <time>2021-07-04 13:20:34</time>
      </trkpt>
      <trkpt lat="28.72379" lon="-13.98842">
        <ele>-1.6</ele>
        <time>2021-07-04 13:20:35</time>
      </trkpt>
      <trkpt lat="28.72378" lon="-13.98843">
        <ele>-1.6</ele>
        <time>2021-07-04 13:20:36</time>
      </trkpt>
      <trkpt lat="28.72377" lon="-13.98845">
        <ele>-1.6</ele>
        <time>2021-07-04 13:20:37</time>
      </trkpt>
      <trkpt lat="28.72375" lon="-13.98847">
        <ele>-1.6</ele>
        <time>2021-07-04 13:20:38</time>
      </trkpt>
      <trkpt lat="28.72374" lon="-13.9885">
        <ele>-1.6</ele>
        <time>2021-07-04 13:20:39</time>
      </trkpt>
      <trkpt lat="28.72373" lon="-13.98853">
        <ele>-1.6</ele>
        <time>2021-07-04 13:20:40</time>
      </trkpt>
      <trkpt lat="28.72373" lon="-13.98855">
        <ele>-1.6</ele>
        <time>2021-07-04 13:20:41</time>
      </trkpt>
      <trkpt lat="28.72372" lon="-13.98857">
        <ele>-1.6</ele>
        <time>2021-07-04 13:20:42</time>
      </trkpt>
      <trkpt lat="28.72371" lon="-13.9886">
        <ele>-1.6</ele>
        <time>2021-07-04 13:20:43</time>
      </trkpt>
      <trkpt lat="28.7237" lon="-13.98864">
        <ele>-1.6</ele>
        <time>2021-07-04 13:20:44</time>
      </trkpt>
      <trkpt lat="28.72368" lon="-13.98867">
        <ele>-1.6</ele>
        <time>2021-07-04 13:20:45</time>
      </trkpt>
      <trkpt lat="28.72367" lon="-13.9887">
        <ele>-1.6</ele>
        <time>2021-07-04 13:20:46</time>
      </trkpt>
      <trkpt lat="28.72365" lon="-13.98873">
        <ele>-1.6</ele>
        <time>2021-07-04 13:20:47</time>
      </trkpt>
      <trkpt lat="28.72364" lon="-13.98876">
        <ele>-1.6</ele>
        <time>2021-07-04 13:20:48</time>
      </trkpt>
      <trkpt lat="28.72363" lon="-13.98879">
        <ele>-1.6</ele>
        <time>2021-07-04 13:20:49</time>
      </trkpt>
      <trkpt lat="28.72361" lon="-13.98883">
        <ele>-1.6</ele>
        <time>2021-07-04 13:20:50</time>
      </trkpt>
      <trkpt lat="28.7236" lon="-13.98886">
        <ele>-1.6</ele>
        <time>2021-07-04 13:20:51</time>
      </trkpt>
      <trkpt lat="28.72358" lon="-13.98893">
        <ele>-1.6</ele>
        <time>2021-07-04 13:20:52</time>
      </trkpt>
      <trkpt lat="28.72357" lon="-13.98897">
        <ele>-1.6</ele>
        <time>2021-07-04 13:20:53</time>
      </trkpt>
      <trkpt lat="28.72356" lon="-13.989">
        <ele>-1.6</ele>
        <time>2021-07-04 13:20:54</time>
      </trkpt>
      <trkpt lat="28.72355" lon="-13.98904">
        <ele>-2</ele>
        <time>2021-07-04 13:20:55</time>
      </trkpt>
      <trkpt lat="28.72355" lon="-13.98908">
        <ele>-2</ele>
        <time>2021-07-04 13:20:56</time>
      </trkpt>
      <trkpt lat="28.72355" lon="-13.98911">
        <ele>-2</ele>
        <time>2021-07-04 13:20:57</time>
      </trkpt>
      <trkpt lat="28.72355" lon="-13.98915">
        <ele>-2</ele>
        <time>2021-07-04 13:20:58</time>
      </trkpt>
      <trkpt lat="28.72355" lon="-13.98918">
        <ele>-2</ele>
        <time>2021-07-04 13:20:59</time>
      </trkpt>
      <trkpt lat="28.72355" lon="-13.98922">
        <ele>-2</ele>
        <time>2021-07-04 13:21:00</time>
      </trkpt>
      <trkpt lat="28.72356" lon="-13.98925">
        <ele>-2</ele>
        <time>2021-07-04 13:21:01</time>
      </trkpt>
      <trkpt lat="28.72356" lon="-13.98929">
        <ele>-2</ele>
        <time>2021-07-04 13:21:02</time>
      </trkpt>
      <trkpt lat="28.72357" lon="-13.98932">
        <ele>-2</ele>
        <time>2021-07-04 13:21:03</time>
      </trkpt>
      <trkpt lat="28.72357" lon="-13.98935">
        <ele>-1.8</ele>
        <time>2021-07-04 13:21:04</time>
      </trkpt>
      <trkpt lat="28.72357" lon="-13.98939">
        <ele>-1.8</ele>
        <time>2021-07-04 13:21:05</time>
      </trkpt>
      <trkpt lat="28.72357" lon="-13.98942">
        <ele>-1.4</ele>
        <time>2021-07-04 13:21:06</time>
      </trkpt>
      <trkpt lat="28.72357" lon="-13.98945">
        <ele>-1.4</ele>
        <time>2021-07-04 13:21:07</time>
      </trkpt>
      <trkpt lat="28.72356" lon="-13.98948">
        <ele>-1.4</ele>
        <time>2021-07-04 13:21:08</time>
      </trkpt>
      <trkpt lat="28.72355" lon="-13.98951">
        <ele>-1.2</ele>
        <time>2021-07-04 13:21:09</time>
      </trkpt>
      <trkpt lat="28.72355" lon="-13.98954">
        <ele>-1.2</ele>
        <time>2021-07-04 13:21:10</time>
      </trkpt>
      <trkpt lat="28.72354" lon="-13.98957">
        <ele>-1.2</ele>
        <time>2021-07-04 13:21:11</time>
      </trkpt>
      <trkpt lat="28.72354" lon="-13.98961">
        <ele>-1.2</ele>
        <time>2021-07-04 13:21:12</time>
      </trkpt>
      <trkpt lat="28.72354" lon="-13.98965">
        <ele>-1.2</ele>
        <time>2021-07-04 13:21:13</time>
      </trkpt>
      <trkpt lat="28.72354" lon="-13.98968">
        <ele>-1.2</ele>
        <time>2021-07-04 13:21:14</time>
      </trkpt>
      <trkpt lat="28.72354" lon="-13.98972">
        <ele>-1</ele>
        <time>2021-07-04 13:21:15</time>
      </trkpt>
      <trkpt lat="28.72354" lon="-13.98975">
        <ele>-1</ele>
        <time>2021-07-04 13:21:16</time>
      </trkpt>
      <trkpt lat="28.72354" lon="-13.98979">
        <ele>-1</ele>
        <time>2021-07-04 13:21:17</time>
      </trkpt>
      <trkpt lat="28.72354" lon="-13.98982">
        <ele>-0.8</ele>
        <time>2021-07-04 13:21:18</time>
      </trkpt>
      <trkpt lat="28.72354" lon="-13.98986">
        <ele>-0.8</ele>
        <time>2021-07-04 13:21:19</time>
      </trkpt>
      <trkpt lat="28.72354" lon="-13.9899">
        <ele>-0.8</ele>
        <time>2021-07-04 13:21:20</time>
      </trkpt>
      <trkpt lat="28.72354" lon="-13.98994">
        <ele>-0.8</ele>
        <time>2021-07-04 13:21:21</time>
      </trkpt>
      <trkpt lat="28.72353" lon="-13.98997">
        <ele>-0.8</ele>
        <time>2021-07-04 13:21:22</time>
      </trkpt>
      <trkpt lat="28.72353" lon="-13.99001">
        <ele>-1</ele>
        <time>2021-07-04 13:21:23</time>
      </trkpt>
      <trkpt lat="28.72352" lon="-13.99004">
        <ele>-1</ele>
        <time>2021-07-04 13:21:24</time>
      </trkpt>
      <trkpt lat="28.72352" lon="-13.99007">
        <ele>-1</ele>
        <time>2021-07-04 13:21:25</time>
      </trkpt>
      <trkpt lat="28.72351" lon="-13.9901">
        <ele>-1</ele>
        <time>2021-07-04 13:21:26</time>
      </trkpt>
      <trkpt lat="28.7235" lon="-13.99014">
        <ele>-1</ele>
        <time>2021-07-04 13:21:27</time>
      </trkpt>
      <trkpt lat="28.72349" lon="-13.99018">
        <ele>-1</ele>
        <time>2021-07-04 13:21:28</time>
      </trkpt>
      <trkpt lat="28.72348" lon="-13.99021">
        <ele>-1</ele>
        <time>2021-07-04 13:21:29</time>
      </trkpt>
      <trkpt lat="28.72346" lon="-13.99025">
        <ele>-1.4</ele>
        <time>2021-07-04 13:21:30</time>
      </trkpt>
      <trkpt lat="28.72345" lon="-13.99028">
        <ele>-1.4</ele>
        <time>2021-07-04 13:21:31</time>
      </trkpt>
      <trkpt lat="28.72344" lon="-13.99032">
        <ele>-1.4</ele>
        <time>2021-07-04 13:21:32</time>
      </trkpt>
      <trkpt lat="28.72342" lon="-13.99035">
        <ele>-1.4</ele>
        <time>2021-07-04 13:21:33</time>
      </trkpt>
      <trkpt lat="28.72341" lon="-13.99039">
        <ele>-1.4</ele>
        <time>2021-07-04 13:21:34</time>
      </trkpt>
      <trkpt lat="28.72341" lon="-13.99043">
        <ele>-1.4</ele>
        <time>2021-07-04 13:21:35</time>
      </trkpt>
      <trkpt lat="28.7234" lon="-13.99047">
        <ele>-1.4</ele>
        <time>2021-07-04 13:21:36</time>
      </trkpt>
      <trkpt lat="28.7234" lon="-13.99051">
        <ele>-1.4</ele>
        <time>2021-07-04 13:21:37</time>
      </trkpt>
      <trkpt lat="28.72339" lon="-13.99055">
        <ele>-1.4</ele>
        <time>2021-07-04 13:21:38</time>
      </trkpt>
      <trkpt lat="28.72338" lon="-13.99058">
        <ele>-1.4</ele>
        <time>2021-07-04 13:21:39</time>
      </trkpt>
      <trkpt lat="28.72337" lon="-13.99062">
        <ele>-1.4</ele>
        <time>2021-07-04 13:21:40</time>
      </trkpt>
      <trkpt lat="28.72336" lon="-13.99066">
        <ele>-1.4</ele>
        <time>2021-07-04 13:21:41</time>
      </trkpt>
      <trkpt lat="28.72336" lon="-13.9907">
        <ele>-1.4</ele>
        <time>2021-07-04 13:21:42</time>
      </trkpt>
      <trkpt lat="28.72335" lon="-13.99074">
        <ele>-1.4</ele>
        <time>2021-07-04 13:21:43</time>
      </trkpt>
      <trkpt lat="28.72334" lon="-13.99079">
        <ele>-1.4</ele>
        <time>2021-07-04 13:21:44</time>
      </trkpt>
      <trkpt lat="28.72333" lon="-13.99083">
        <ele>-1.4</ele>
        <time>2021-07-04 13:21:45</time>
      </trkpt>
      <trkpt lat="28.72332" lon="-13.99088">
        <ele>-1.4</ele>
        <time>2021-07-04 13:21:46</time>
      </trkpt>
      <trkpt lat="28.72331" lon="-13.99093">
        <ele>-1.6</ele>
        <time>2021-07-04 13:21:47</time>
      </trkpt>
      <trkpt lat="28.72331" lon="-13.99097">
        <ele>-1.6</ele>
        <time>2021-07-04 13:21:48</time>
      </trkpt>
      <trkpt lat="28.7233" lon="-13.99102">
        <ele>-1.6</ele>
        <time>2021-07-04 13:21:49</time>
      </trkpt>
      <trkpt lat="28.7233" lon="-13.99107">
        <ele>-1.6</ele>
        <time>2021-07-04 13:21:50</time>
      </trkpt>
      <trkpt lat="28.7233" lon="-13.99111">
        <ele>-1.6</ele>
        <time>2021-07-04 13:21:51</time>
      </trkpt>
      <trkpt lat="28.72328" lon="-13.99116">
        <ele>-1.4</ele>
        <time>2021-07-04 13:21:52</time>
      </trkpt>
      <trkpt lat="28.72327" lon="-13.9912">
        <ele>-1.4</ele>
        <time>2021-07-04 13:21:53</time>
      </trkpt>
      <trkpt lat="28.72325" lon="-13.99125">
        <ele>-1.4</ele>
        <time>2021-07-04 13:21:54</time>
      </trkpt>
      <trkpt lat="28.72324" lon="-13.99129">
        <ele>-1.4</ele>
        <time>2021-07-04 13:21:55</time>
      </trkpt>
      <trkpt lat="28.72322" lon="-13.99132">
        <ele>-1.4</ele>
        <time>2021-07-04 13:21:56</time>
      </trkpt>
      <trkpt lat="28.72321" lon="-13.99136">
        <ele>-1.4</ele>
        <time>2021-07-04 13:21:57</time>
      </trkpt>
      <trkpt lat="28.72319" lon="-13.9914">
        <ele>-1.4</ele>
        <time>2021-07-04 13:21:58</time>
      </trkpt>
      <trkpt lat="28.72317" lon="-13.99143">
        <ele>-1.4</ele>
        <time>2021-07-04 13:21:59</time>
      </trkpt>
      <trkpt lat="28.72316" lon="-13.99147">
        <ele>-1.4</ele>
        <time>2021-07-04 13:22:00</time>
      </trkpt>
      <trkpt lat="28.72314" lon="-13.99151">
        <ele>-1.4</ele>
        <time>2021-07-04 13:22:01</time>
      </trkpt>
      <trkpt lat="28.72312" lon="-13.99155">
        <ele>-1.4</ele>
        <time>2021-07-04 13:22:02</time>
      </trkpt>
      <trkpt lat="28.72311" lon="-13.99159">
        <ele>-1.4</ele>
        <time>2021-07-04 13:22:03</time>
      </trkpt>
      <trkpt lat="28.7231" lon="-13.99163">
        <ele>-1.4</ele>
        <time>2021-07-04 13:22:04</time>
      </trkpt>
      <trkpt lat="28.72309" lon="-13.99167">
        <ele>-1.4</ele>
        <time>2021-07-04 13:22:05</time>
      </trkpt>
      <trkpt lat="28.72307" lon="-13.99171">
        <ele>-1.4</ele>
        <time>2021-07-04 13:22:06</time>
      </trkpt>
      <trkpt lat="28.72306" lon="-13.99175">
        <ele>-1.4</ele>
        <time>2021-07-04 13:22:07</time>
      </trkpt>
      <trkpt lat="28.72306" lon="-13.99179">
        <ele>-1.4</ele>
        <time>2021-07-04 13:22:08</time>
      </trkpt>
      <trkpt lat="28.72305" lon="-13.99182">
        <ele>-1.4</ele>
        <time>2021-07-04 13:22:09</time>
      </trkpt>
      <trkpt lat="28.72304" lon="-13.99186">
        <ele>-1.4</ele>
        <time>2021-07-04 13:22:10</time>
      </trkpt>
      <trkpt lat="28.72303" lon="-13.9919">
        <ele>-1.4</ele>
        <time>2021-07-04 13:22:11</time>
      </trkpt>
      <trkpt lat="28.72302" lon="-13.99194">
        <ele>-1.4</ele>
        <time>2021-07-04 13:22:12</time>
      </trkpt>
      <trkpt lat="28.72301" lon="-13.99198">
        <ele>-1.6</ele>
        <time>2021-07-04 13:22:13</time>
      </trkpt>
      <trkpt lat="28.723" lon="-13.99203">
        <ele>-1.6</ele>
        <time>2021-07-04 13:22:14</time>
      </trkpt>
      <trkpt lat="28.72299" lon="-13.99207">
        <ele>-1.6</ele>
        <time>2021-07-04 13:22:15</time>
      </trkpt>
      <trkpt lat="28.72298" lon="-13.99212">
        <ele>-1.6</ele>
        <time>2021-07-04 13:22:16</time>
      </trkpt>
      <trkpt lat="28.72297" lon="-13.99218">
        <ele>-1.6</ele>
        <time>2021-07-04 13:22:17</time>
      </trkpt>
      <trkpt lat="28.72296" lon="-13.99222">
        <ele>-1.6</ele>
        <time>2021-07-04 13:22:18</time>
      </trkpt>
      <trkpt lat="28.72294" lon="-13.99227">
        <ele>-1.6</ele>
        <time>2021-07-04 13:22:19</time>
      </trkpt>
      <trkpt lat="28.72293" lon="-13.99231">
        <ele>-1.6</ele>
        <time>2021-07-04 13:22:20</time>
      </trkpt>
      <trkpt lat="28.72291" lon="-13.99235">
        <ele>-1.6</ele>
        <time>2021-07-04 13:22:21</time>
      </trkpt>
      <trkpt lat="28.72289" lon="-13.99239">
        <ele>-1.8</ele>
        <time>2021-07-04 13:22:22</time>
      </trkpt>
      <trkpt lat="28.72287" lon="-13.99243">
        <ele>-1.8</ele>
        <time>2021-07-04 13:22:23</time>
      </trkpt>
      <trkpt lat="28.72285" lon="-13.99247">
        <ele>-1.8</ele>
        <time>2021-07-04 13:22:24</time>
      </trkpt>
      <trkpt lat="28.72284" lon="-13.99251">
        <ele>-2</ele>
        <time>2021-07-04 13:22:25</time>
      </trkpt>
      <trkpt lat="28.72282" lon="-13.99256">
        <ele>-2</ele>
        <time>2021-07-04 13:22:26</time>
      </trkpt>
      <trkpt lat="28.72281" lon="-13.99261">
        <ele>-2</ele>
        <time>2021-07-04 13:22:27</time>
      </trkpt>
      <trkpt lat="28.72279" lon="-13.99265">
        <ele>-2.2</ele>
        <time>2021-07-04 13:22:28</time>
      </trkpt>
      <trkpt lat="28.72278" lon="-13.99269">
        <ele>-2.2</ele>
        <time>2021-07-04 13:22:29</time>
      </trkpt>
      <trkpt lat="28.72277" lon="-13.99273">
        <ele>-2.2</ele>
        <time>2021-07-04 13:22:30</time>
      </trkpt>
      <trkpt lat="28.72277" lon="-13.99277">
        <ele>-2.4</ele>
        <time>2021-07-04 13:22:31</time>
      </trkpt>
      <trkpt lat="28.72276" lon="-13.9928">
        <ele>-2.4</ele>
        <time>2021-07-04 13:22:32</time>
      </trkpt>
      <trkpt lat="28.72277" lon="-13.99283">
        <ele>-2.4</ele>
        <time>2021-07-04 13:22:33</time>
      </trkpt>
      <trkpt lat="28.72277" lon="-13.99285">
        <ele>-2.4</ele>
        <time>2021-07-04 13:22:34</time>
      </trkpt>
      <trkpt lat="28.72277" lon="-13.99286">
        <ele>-2.4</ele>
        <time>2021-07-04 13:22:35</time>
      </trkpt>
      <trkpt lat="28.72277" lon="-13.99288">
        <ele>-2.2</ele>
        <time>2021-07-04 13:22:36</time>
      </trkpt>
      <trkpt lat="28.72277" lon="-13.99289">
        <ele>-2</ele>
        <time>2021-07-04 13:22:37</time>
      </trkpt>
      <trkpt lat="28.72277" lon="-13.99289">
        <ele>-2</ele>
        <time>2021-07-04 13:22:38</time>
      </trkpt>
      <trkpt lat="28.72277" lon="-13.99289">
        <ele>-2</ele>
        <time>2021-07-04 13:22:39</time>
      </trkpt>
      <trkpt lat="28.72277" lon="-13.9929">
        <ele>-0.4</ele>
        <time>2021-07-04 13:22:40</time>
      </trkpt>
      <trkpt lat="28.72277" lon="-13.99292">
        <ele>-0.6</ele>
        <time>2021-07-04 13:22:41</time>
      </trkpt>
      <trkpt lat="28.72277" lon="-13.99294">
        <ele>-0.6</ele>
        <time>2021-07-04 13:22:42</time>
      </trkpt>
      <trkpt lat="28.72276" lon="-13.99296">
        <ele>-0.6</ele>
        <time>2021-07-04 13:22:43</time>
      </trkpt>
      <trkpt lat="28.72276" lon="-13.99299">
        <ele>-1</ele>
        <time>2021-07-04 13:22:44</time>
      </trkpt>
      <trkpt lat="28.72276" lon="-13.99302">
        <ele>-1.2</ele>
        <time>2021-07-04 13:22:45</time>
      </trkpt>
      <trkpt lat="28.72276" lon="-13.99305">
        <ele>-1.6</ele>
        <time>2021-07-04 13:22:46</time>
      </trkpt>
      <trkpt lat="28.72275" lon="-13.99308">
        <ele>-1.6</ele>
        <time>2021-07-04 13:22:47</time>
      </trkpt>
      <trkpt lat="28.72273" lon="-13.99311">
        <ele>-1.8</ele>
        <time>2021-07-04 13:22:48</time>
      </trkpt>
      <trkpt lat="28.72271" lon="-13.99314">
        <ele>-1.8</ele>
        <time>2021-07-04 13:22:49</time>
      </trkpt>
      <trkpt lat="28.7227" lon="-13.99317">
        <ele>-2.2</ele>
        <time>2021-07-04 13:22:50</time>
      </trkpt>
      <trkpt lat="28.72268" lon="-13.9932">
        <ele>-2.2</ele>
        <time>2021-07-04 13:22:51</time>
      </trkpt>
      <trkpt lat="28.72266" lon="-13.99323">
        <ele>-2.2</ele>
        <time>2021-07-04 13:22:52</time>
      </trkpt>
      <trkpt lat="28.72264" lon="-13.99327">
        <ele>-2.2</ele>
        <time>2021-07-04 13:22:53</time>
      </trkpt>
      <trkpt lat="28.72262" lon="-13.9933">
        <ele>-2.2</ele>
        <time>2021-07-04 13:22:54</time>
      </trkpt>
      <trkpt lat="28.72261" lon="-13.99333">
        <ele>-2.2</ele>
        <time>2021-07-04 13:22:55</time>
      </trkpt>
      <trkpt lat="28.7226" lon="-13.99336">
        <ele>-2.2</ele>
        <time>2021-07-04 13:22:56</time>
      </trkpt>
      <trkpt lat="28.72258" lon="-13.99339">
        <ele>-2.2</ele>
        <time>2021-07-04 13:22:57</time>
      </trkpt>
      <trkpt lat="28.72257" lon="-13.99342">
        <ele>-2</ele>
        <time>2021-07-04 13:22:58</time>
      </trkpt>
      <trkpt lat="28.72255" lon="-13.99345">
        <ele>-2</ele>
        <time>2021-07-04 13:22:59</time>
      </trkpt>
      <trkpt lat="28.72253" lon="-13.99349">
        <ele>-2</ele>
        <time>2021-07-04 13:23:00</time>
      </trkpt>
      <trkpt lat="28.72251" lon="-13.99352">
        <ele>-2.2</ele>
        <time>2021-07-04 13:24:21</time>
      </trkpt>
      <trkpt lat="28.7225" lon="-13.99355">
        <ele>-2.2</ele>
        <time>2021-07-04 13:24:22</time>
      </trkpt>
      <trkpt lat="28.72248" lon="-13.99357">
        <ele>-2.2</ele>
        <time>2021-07-04 13:24:23</time>
      </trkpt>
      <trkpt lat="28.72247" lon="-13.9936">
        <ele>-2.2</ele>
        <time>2021-07-04 13:24:24</time>
      </trkpt>
      <trkpt lat="28.72246" lon="-13.99362">
        <ele>-2.6</ele>
        <time>2021-07-04 13:24:25</time>
      </trkpt>
      <trkpt lat="28.72244" lon="-13.99365">
        <ele>-2.6</ele>
        <time>2021-07-04 13:24:26</time>
      </trkpt>
      <trkpt lat="28.72243" lon="-13.99368">
        <ele>-2.6</ele>
        <time>2021-07-04 13:24:27</time>
      </trkpt>
      <trkpt lat="28.72242" lon="-13.99371">
        <ele>-2.6</ele>
        <time>2021-07-04 13:24:28</time>
      </trkpt>
      <trkpt lat="28.72241" lon="-13.99374">
        <ele>-2.6</ele>
        <time>2021-07-04 13:24:29</time>
      </trkpt>
      <trkpt lat="28.7224" lon="-13.99377">
        <ele>-2.6</ele>
        <time>2021-07-04 13:24:30</time>
      </trkpt>
      <trkpt lat="28.7224" lon="-13.9938">
        <ele>-2.6</ele>
        <time>2021-07-04 13:24:31</time>
      </trkpt>
      <trkpt lat="28.72238" lon="-13.99384">
        <ele>-2.6</ele>
        <time>2021-07-04 13:24:32</time>
      </trkpt>
      <trkpt lat="28.72237" lon="-13.99387">
        <ele>-2.6</ele>
        <time>2021-07-04 13:24:33</time>
      </trkpt>
      <trkpt lat="28.72236" lon="-13.99391">
        <ele>-2.6</ele>
        <time>2021-07-04 13:24:34</time>
      </trkpt>
      <trkpt lat="28.72234" lon="-13.99394">
        <ele>-2.6</ele>
        <time>2021-07-04 13:24:35</time>
      </trkpt>
      <trkpt lat="28.72233" lon="-13.99398">
        <ele>-2.6</ele>
        <time>2021-07-04 13:24:36</time>
      </trkpt>
      <trkpt lat="28.72231" lon="-13.99402">
        <ele>-2.8</ele>
        <time>2021-07-04 13:24:37</time>
      </trkpt>
      <trkpt lat="28.7223" lon="-13.99406">
        <ele>-2.8</ele>
        <time>2021-07-04 13:24:38</time>
      </trkpt>
      <trkpt lat="28.72229" lon="-13.99411">
        <ele>-2.8</ele>
        <time>2021-07-04 13:24:39</time>
      </trkpt>
      <trkpt lat="28.72227" lon="-13.99415">
        <ele>-2.8</ele>
        <time>2021-07-04 13:24:40</time>
      </trkpt>
      <trkpt lat="28.72226" lon="-13.9942">
        <ele>-2.8</ele>
        <time>2021-07-04 13:24:41</time>
      </trkpt>
      <trkpt lat="28.72225" lon="-13.99424">
        <ele>-2.8</ele>
        <time>2021-07-04 13:24:42</time>
      </trkpt>
      <trkpt lat="28.72223" lon="-13.99429">
        <ele>-2.8</ele>
        <time>2021-07-04 13:24:43</time>
      </trkpt>
      <trkpt lat="28.72222" lon="-13.99434">
        <ele>-3.2</ele>
        <time>2021-07-04 13:24:44</time>
      </trkpt>
      <trkpt lat="28.7222" lon="-13.99439">
        <ele>-3.2</ele>
        <time>2021-07-04 13:24:45</time>
      </trkpt>
      <trkpt lat="28.72219" lon="-13.99444">
        <ele>-3.2</ele>
        <time>2021-07-04 13:24:46</time>
      </trkpt>
      <trkpt lat="28.72217" lon="-13.99449">
        <ele>-3.2</ele>
        <time>2021-07-04 13:24:47</time>
      </trkpt>
      <trkpt lat="28.72215" lon="-13.99454">
        <ele>-3.2</ele>
        <time>2021-07-04 13:24:48</time>
      </trkpt>
      <trkpt lat="28.72213" lon="-13.99459">
        <ele>-3.2</ele>
        <time>2021-07-04 13:24:49</time>
      </trkpt>
      <trkpt lat="28.7221" lon="-13.99464">
        <ele>-3.2</ele>
        <time>2021-07-04 13:24:50</time>
      </trkpt>
      <trkpt lat="28.72208" lon="-13.99469">
        <ele>-3.2</ele>
        <time>2021-07-04 13:24:51</time>
      </trkpt>
      <trkpt lat="28.72206" lon="-13.99474">
        <ele>-3.2</ele>
        <time>2021-07-04 13:24:52</time>
      </trkpt>
      <trkpt lat="28.72203" lon="-13.99478">
        <ele>-3.2</ele>
        <time>2021-07-04 13:24:53</time>
      </trkpt>
      <trkpt lat="28.72199" lon="-13.99483">
        <ele>-3.2</ele>
        <time>2021-07-04 13:24:54</time>
      </trkpt>
      <trkpt lat="28.72196" lon="-13.99487">
        <ele>-3.2</ele>
        <time>2021-07-04 13:24:55</time>
      </trkpt>
      <trkpt lat="28.72193" lon="-13.99491">
        <ele>-3.2</ele>
        <time>2021-07-04 13:24:56</time>
      </trkpt>
      <trkpt lat="28.7219" lon="-13.99496">
        <ele>-3.2</ele>
        <time>2021-07-04 13:24:57</time>
      </trkpt>
      <trkpt lat="28.72185" lon="-13.995">
        <ele>-3.2</ele>
        <time>2021-07-04 13:24:58</time>
      </trkpt>
      <trkpt lat="28.72181" lon="-13.99503">
        <ele>-3.2</ele>
        <time>2021-07-04 13:24:59</time>
      </trkpt>
      <trkpt lat="28.72177" lon="-13.99507">
        <ele>-3.2</ele>
        <time>2021-07-04 13:25:00</time>
      </trkpt>
      <trkpt lat="28.72173" lon="-13.99511">
        <ele>-3.6</ele>
        <time>2021-07-04 13:25:01</time>
      </trkpt>
      <trkpt lat="28.72169" lon="-13.99515">
        <ele>-3.6</ele>
        <time>2021-07-04 13:25:02</time>
      </trkpt>
      <trkpt lat="28.72165" lon="-13.99519">
        <ele>-3.6</ele>
        <time>2021-07-04 13:25:03</time>
      </trkpt>
      <trkpt lat="28.72161" lon="-13.99522">
        <ele>-3.6</ele>
        <time>2021-07-04 13:25:04</time>
      </trkpt>
      <trkpt lat="28.72156" lon="-13.99526">
        <ele>-3.6</ele>
        <time>2021-07-04 13:25:05</time>
      </trkpt>
      <trkpt lat="28.72152" lon="-13.99529">
        <ele>-3.8</ele>
        <time>2021-07-04 13:25:06</time>
      </trkpt>
      <trkpt lat="28.72147" lon="-13.99533">
        <ele>-3.8</ele>
        <time>2021-07-04 13:25:07</time>
      </trkpt>
      <trkpt lat="28.72142" lon="-13.99538">
        <ele>-3.8</ele>
        <time>2021-07-04 13:25:08</time>
      </trkpt>
      <trkpt lat="28.72137" lon="-13.99541">
        <ele>-3.8</ele>
        <time>2021-07-04 13:25:09</time>
      </trkpt>
      <trkpt lat="28.72132" lon="-13.99545">
        <ele>-3.8</ele>
        <time>2021-07-04 13:25:10</time>
      </trkpt>
      <trkpt lat="28.72127" lon="-13.99549">
        <ele>-3.8</ele>
        <time>2021-07-04 13:25:11</time>
      </trkpt>
      <trkpt lat="28.72121" lon="-13.99552">
        <ele>-3.8</ele>
        <time>2021-07-04 13:25:12</time>
      </trkpt>
      <trkpt lat="28.72116" lon="-13.99555">
        <ele>-3.8</ele>
        <time>2021-07-04 13:25:13</time>
      </trkpt>
      <trkpt lat="28.7211" lon="-13.99558">
        <ele>-3.8</ele>
        <time>2021-07-04 13:25:14</time>
      </trkpt>
      <trkpt lat="28.72105" lon="-13.99562">
        <ele>-3.8</ele>
        <time>2021-07-04 13:25:15</time>
      </trkpt>
      <trkpt lat="28.72099" lon="-13.99565">
        <ele>-3.8</ele>
        <time>2021-07-04 13:25:16</time>
      </trkpt>
      <trkpt lat="28.72094" lon="-13.99568">
        <ele>-3.8</ele>
        <time>2021-07-04 13:25:17</time>
      </trkpt>
      <trkpt lat="28.72089" lon="-13.99572">
        <ele>-3.8</ele>
        <time>2021-07-04 13:25:18</time>
      </trkpt>
      <trkpt lat="28.72084" lon="-13.99574">
        <ele>-3.8</ele>
        <time>2021-07-04 13:25:19</time>
      </trkpt>
      <trkpt lat="28.72079" lon="-13.99577">
        <ele>-3.8</ele>
        <time>2021-07-04 13:25:20</time>
      </trkpt>
      <trkpt lat="28.72075" lon="-13.9958">
        <ele>-3.8</ele>
        <time>2021-07-04 13:25:21</time>
      </trkpt>
      <trkpt lat="28.72071" lon="-13.99584">
        <ele>-3.6</ele>
        <time>2021-07-04 13:25:22</time>
      </trkpt>
      <trkpt lat="28.72068" lon="-13.99589">
        <ele>-3.4</ele>
        <time>2021-07-04 13:25:23</time>
      </trkpt>
      <trkpt lat="28.72066" lon="-13.99593">
        <ele>-3.4</ele>
        <time>2021-07-04 13:25:24</time>
      </trkpt>
      <trkpt lat="28.72065" lon="-13.99597">
        <ele>-3</ele>
        <time>2021-07-04 13:25:25</time>
      </trkpt>
      <trkpt lat="28.72064" lon="-13.99601">
        <ele>-3</ele>
        <time>2021-07-04 13:25:26</time>
      </trkpt>
      <trkpt lat="28.72063" lon="-13.99606">
        <ele>-2.6</ele>
        <time>2021-07-04 13:25:27</time>
      </trkpt>
      <trkpt lat="28.72062" lon="-13.99611">
        <ele>-2.2</ele>
        <time>2021-07-04 13:25:28</time>
      </trkpt>
      <trkpt lat="28.7206" lon="-13.99615">
        <ele>-2.2</ele>
        <time>2021-07-04 13:25:29</time>
      </trkpt>
      <trkpt lat="28.72058" lon="-13.9962">
        <ele>-2</ele>
        <time>2021-07-04 13:25:30</time>
      </trkpt>
      <trkpt lat="28.72056" lon="-13.99625">
        <ele>-2</ele>
        <time>2021-07-04 13:25:31</time>
      </trkpt>
      <trkpt lat="28.72055" lon="-13.99631">
        <ele>-2</ele>
        <time>2021-07-04 13:25:32</time>
      </trkpt>
      <trkpt lat="28.72055" lon="-13.99637">
        <ele>-2</ele>
        <time>2021-07-04 13:25:33</time>
      </trkpt>
      <trkpt lat="28.72055" lon="-13.99641">
        <ele>-2</ele>
        <time>2021-07-04 13:25:34</time>
      </trkpt>
      <trkpt lat="28.72055" lon="-13.99647">
        <ele>-2</ele>
        <time>2021-07-04 13:25:35</time>
      </trkpt>
      <trkpt lat="28.72052" lon="-13.99652">
        <ele>-2</ele>
        <time>2021-07-04 13:25:36</time>
      </trkpt>
      <trkpt lat="28.72049" lon="-13.99655">
        <ele>-2</ele>
        <time>2021-07-04 13:25:37</time>
      </trkpt>
      <trkpt lat="28.72045" lon="-13.99658">
        <ele>-1.8</ele>
        <time>2021-07-04 13:25:38</time>
      </trkpt>
      <trkpt lat="28.72041" lon="-13.99661">
        <ele>-1.8</ele>
        <time>2021-07-04 13:25:39</time>
      </trkpt>
      <trkpt lat="28.72037" lon="-13.99662">
        <ele>-1.8</ele>
        <time>2021-07-04 13:25:40</time>
      </trkpt>
      <trkpt lat="28.72033" lon="-13.99661">
        <ele>-1.8</ele>
        <time>2021-07-04 13:25:41</time>
      </trkpt>
      <trkpt lat="28.72028" lon="-13.99661">
        <ele>-1.8</ele>
        <time>2021-07-04 13:25:42</time>
      </trkpt>
      <trkpt lat="28.72023" lon="-13.9966">
        <ele>-2</ele>
        <time>2021-07-04 13:25:43</time>
      </trkpt>
      <trkpt lat="28.72018" lon="-13.99659">
        <ele>-2</ele>
        <time>2021-07-04 13:25:44</time>
      </trkpt>
      <trkpt lat="28.72013" lon="-13.99657">
        <ele>-2</ele>
        <time>2021-07-04 13:25:45</time>
      </trkpt>
      <trkpt lat="28.72007" lon="-13.99657">
        <ele>-2.2</ele>
        <time>2021-07-04 13:25:46</time>
      </trkpt>
      <trkpt lat="28.72002" lon="-13.99658">
        <ele>-2.2</ele>
        <time>2021-07-04 13:25:47</time>
      </trkpt>
      <trkpt lat="28.71997" lon="-13.99661">
        <ele>-2.2</ele>
        <time>2021-07-04 13:25:48</time>
      </trkpt>
      <trkpt lat="28.71994" lon="-13.99667">
        <ele>-2.6</ele>
        <time>2021-07-04 13:25:49</time>
      </trkpt>
      <trkpt lat="28.71992" lon="-13.99673">
        <ele>-2.8</ele>
        <time>2021-07-04 13:25:50</time>
      </trkpt>
      <trkpt lat="28.71991" lon="-13.9968">
        <ele>-3.2</ele>
        <time>2021-07-04 13:25:51</time>
      </trkpt>
      <trkpt lat="28.7199" lon="-13.99687">
        <ele>-3.4</ele>
        <time>2021-07-04 13:25:52</time>
      </trkpt>
      <trkpt lat="28.71989" lon="-13.99693">
        <ele>-3.8</ele>
        <time>2021-07-04 13:25:53</time>
      </trkpt>
      <trkpt lat="28.71987" lon="-13.997">
        <ele>-4.2</ele>
        <time>2021-07-04 13:25:54</time>
      </trkpt>
      <trkpt lat="28.71985" lon="-13.99707">
        <ele>-4.4</ele>
        <time>2021-07-04 13:25:55</time>
      </trkpt>
      <trkpt lat="28.71982" lon="-13.99713">
        <ele>-4.4</ele>
        <time>2021-07-04 13:25:56</time>
      </trkpt>
      <trkpt lat="28.71978" lon="-13.99719">
        <ele>-4.4</ele>
        <time>2021-07-04 13:25:57</time>
      </trkpt>
      <trkpt lat="28.71976" lon="-13.99726">
        <ele>-4.4</ele>
        <time>2021-07-04 13:25:58</time>
      </trkpt>
      <trkpt lat="28.71973" lon="-13.99732">
        <ele>-4.4</ele>
        <time>2021-07-04 13:25:59</time>
      </trkpt>
      <trkpt lat="28.71972" lon="-13.99738">
        <ele>-4.4</ele>
        <time>2021-07-04 13:26:00</time>
      </trkpt>
      <trkpt lat="28.7197" lon="-13.99744">
        <ele>-4.4</ele>
        <time>2021-07-04 13:26:01</time>
      </trkpt>
      <trkpt lat="28.71967" lon="-13.99749">
        <ele>-4.4</ele>
        <time>2021-07-04 13:26:02</time>
      </trkpt>
      <trkpt lat="28.71963" lon="-13.99754">
        <ele>-4.4</ele>
        <time>2021-07-04 13:26:03</time>
      </trkpt>
      <trkpt lat="28.71959" lon="-13.99757">
        <ele>-4.4</ele>
        <time>2021-07-04 13:26:04</time>
      </trkpt>
      <trkpt lat="28.71954" lon="-13.9976">
        <ele>-4.4</ele>
        <time>2021-07-04 13:26:05</time>
      </trkpt>
      <trkpt lat="28.71949" lon="-13.99761">
        <ele>-4.4</ele>
        <time>2021-07-04 13:26:06</time>
      </trkpt>
      <trkpt lat="28.71944" lon="-13.99761">
        <ele>-4.4</ele>
        <time>2021-07-04 13:26:07</time>
      </trkpt>
      <trkpt lat="28.71938" lon="-13.99761">
        <ele>-4.4</ele>
        <time>2021-07-04 13:26:08</time>
      </trkpt>
      <trkpt lat="28.71933" lon="-13.99763">
        <ele>-4.4</ele>
        <time>2021-07-04 13:26:09</time>
      </trkpt>
      <trkpt lat="28.71928" lon="-13.99765">
        <ele>-4.4</ele>
        <time>2021-07-04 13:26:10</time>
      </trkpt>
      <trkpt lat="28.71924" lon="-13.99769">
        <ele>-4.4</ele>
        <time>2021-07-04 13:26:11</time>
      </trkpt>
      <trkpt lat="28.71921" lon="-13.99773">
        <ele>-4.4</ele>
        <time>2021-07-04 13:26:12</time>
      </trkpt>
      <trkpt lat="28.71919" lon="-13.99777">
        <ele>-4.4</ele>
        <time>2021-07-04 13:26:13</time>
      </trkpt>
      <trkpt lat="28.71916" lon="-13.99781">
        <ele>-4.4</ele>
        <time>2021-07-04 13:26:14</time>
      </trkpt>
      <trkpt lat="28.71914" lon="-13.99785">
        <ele>-4.4</ele>
        <time>2021-07-04 13:26:15</time>
      </trkpt>
      <trkpt lat="28.71912" lon="-13.99788">
        <ele>-4.4</ele>
        <time>2021-07-04 13:26:16</time>
      </trkpt>
      <trkpt lat="28.71908" lon="-13.99792">
        <ele>-4.4</ele>
        <time>2021-07-04 13:26:17</time>
      </trkpt>
      <trkpt lat="28.71905" lon="-13.99795">
        <ele>-4.4</ele>
        <time>2021-07-04 13:26:18</time>
      </trkpt>
      <trkpt lat="28.71901" lon="-13.99798">
        <ele>-4.4</ele>
        <time>2021-07-04 13:26:19</time>
      </trkpt>
      <trkpt lat="28.71898" lon="-13.99801">
        <ele>-4.4</ele>
        <time>2021-07-04 13:26:20</time>
      </trkpt>
      <trkpt lat="28.71895" lon="-13.99805">
        <ele>-4.4</ele>
        <time>2021-07-04 13:26:21</time>
      </trkpt>
      <trkpt lat="28.71892" lon="-13.99808">
        <ele>-4.4</ele>
        <time>2021-07-04 13:26:22</time>
      </trkpt>
      <trkpt lat="28.7189" lon="-13.99812">
        <ele>-4.4</ele>
        <time>2021-07-04 13:26:23</time>
      </trkpt>
      <trkpt lat="28.7189" lon="-13.99816">
        <ele>-4.4</ele>
        <time>2021-07-04 13:26:24</time>
      </trkpt>
      <trkpt lat="28.7189" lon="-13.9982">
        <ele>-4.4</ele>
        <time>2021-07-04 13:26:25</time>
      </trkpt>
      <trkpt lat="28.7189" lon="-13.99824">
        <ele>-4</ele>
        <time>2021-07-04 13:26:26</time>
      </trkpt>
      <trkpt lat="28.7189" lon="-13.99828">
        <ele>-3.4</ele>
        <time>2021-07-04 13:26:27</time>
      </trkpt>
      <trkpt lat="28.71889" lon="-13.99832">
        <ele>-3</ele>
        <time>2021-07-04 13:26:28</time>
      </trkpt>
      <trkpt lat="28.71888" lon="-13.99835">
        <ele>-2.6</ele>
        <time>2021-07-04 13:26:29</time>
      </trkpt>
      <trkpt lat="28.71887" lon="-13.99839">
        <ele>-2.4</ele>
        <time>2021-07-04 13:26:30</time>
      </trkpt>
      <trkpt lat="28.71885" lon="-13.99842">
        <ele>-2.4</ele>
        <time>2021-07-04 13:26:31</time>
      </trkpt>
      <trkpt lat="28.71883" lon="-13.99845">
        <ele>-2</ele>
        <time>2021-07-04 13:26:32</time>
      </trkpt>
      <trkpt lat="28.71881" lon="-13.99848">
        <ele>-2</ele>
        <time>2021-07-04 13:26:33</time>
      </trkpt>
      <trkpt lat="28.71877" lon="-13.9985">
        <ele>-2</ele>
        <time>2021-07-04 13:26:34</time>
      </trkpt>
      <trkpt lat="28.71873" lon="-13.99852">
        <ele>-2</ele>
        <time>2021-07-04 13:26:35</time>
      </trkpt>
      <trkpt lat="28.71869" lon="-13.99853">
        <ele>-2</ele>
        <time>2021-07-04 13:26:36</time>
      </trkpt>
      <trkpt lat="28.71866" lon="-13.99853">
        <ele>-2</ele>
        <time>2021-07-04 13:26:37</time>
      </trkpt>
      <trkpt lat="28.71862" lon="-13.99854">
        <ele>-2</ele>
        <time>2021-07-04 13:26:38</time>
      </trkpt>
      <trkpt lat="28.71858" lon="-13.99855">
        <ele>-2</ele>
        <time>2021-07-04 13:26:39</time>
      </trkpt>
      <trkpt lat="28.71855" lon="-13.99858">
        <ele>-2.2</ele>
        <time>2021-07-04 13:26:40</time>
      </trkpt>
      <trkpt lat="28.71852" lon="-13.9986">
        <ele>-2.2</ele>
        <time>2021-07-04 13:26:41</time>
      </trkpt>
      <trkpt lat="28.71849" lon="-13.99863">
        <ele>-2</ele>
        <time>2021-07-04 13:26:42</time>
      </trkpt>
      <trkpt lat="28.71846" lon="-13.99865">
        <ele>-2</ele>
        <time>2021-07-04 13:26:43</time>
      </trkpt>
      <trkpt lat="28.71843" lon="-13.99868">
        <ele>-1.6</ele>
        <time>2021-07-04 13:26:44</time>
      </trkpt>
      <trkpt lat="28.71839" lon="-13.99871">
        <ele>-1.6</ele>
        <time>2021-07-04 13:26:45</time>
      </trkpt>
      <trkpt lat="28.71836" lon="-13.99872">
        <ele>-1.4</ele>
        <time>2021-07-04 13:26:46</time>
      </trkpt>
      <trkpt lat="28.71833" lon="-13.99875">
        <ele>-1.4</ele>
        <time>2021-07-04 13:26:47</time>
      </trkpt>
      <trkpt lat="28.7183" lon="-13.99878">
        <ele>-1.4</ele>
        <time>2021-07-04 13:26:48</time>
      </trkpt>
      <trkpt lat="28.71827" lon="-13.99881">
        <ele>-1.4</ele>
        <time>2021-07-04 13:26:49</time>
      </trkpt>
      <trkpt lat="28.71824" lon="-13.99883">
        <ele>-1.4</ele>
        <time>2021-07-04 13:26:50</time>
      </trkpt>
      <trkpt lat="28.71822" lon="-13.99887">
        <ele>-1</ele>
        <time>2021-07-04 13:26:51</time>
      </trkpt>
      <trkpt lat="28.71819" lon="-13.9989">
        <ele>-1</ele>
        <time>2021-07-04 13:26:52</time>
      </trkpt>
      <trkpt lat="28.71819" lon="-13.99893">
        <ele>-1</ele>
        <time>2021-07-04 13:26:53</time>
      </trkpt>
      <trkpt lat="28.71818" lon="-13.99896">
        <ele>-0.8</ele>
        <time>2021-07-04 13:26:54</time>
      </trkpt>
      <trkpt lat="28.71817" lon="-13.999">
        <ele>-0.8</ele>
        <time>2021-07-04 13:26:55</time>
      </trkpt>
      <trkpt lat="28.71816" lon="-13.99904">
        <ele>-0.6</ele>
        <time>2021-07-04 13:26:56</time>
      </trkpt>
      <trkpt lat="28.71814" lon="-13.99908">
        <ele>-0.6</ele>
        <time>2021-07-04 13:26:57</time>
      </trkpt>
      <trkpt lat="28.71812" lon="-13.99912">
        <ele>-0.6</ele>
        <time>2021-07-04 13:26:58</time>
      </trkpt>
      <trkpt lat="28.7181" lon="-13.99915">
        <ele>-0.6</ele>
        <time>2021-07-04 13:26:59</time>
      </trkpt>
      <trkpt lat="28.71807" lon="-13.99918">
        <ele>-0.6</ele>
        <time>2021-07-04 13:27:00</time>
      </trkpt>
      <trkpt lat="28.71804" lon="-13.9992">
        <ele>-0.6</ele>
        <time>2021-07-04 13:27:01</time>
      </trkpt>
      <trkpt lat="28.718" lon="-13.99922">
        <ele>-0.8</ele>
        <time>2021-07-04 13:27:02</time>
      </trkpt>
      <trkpt lat="28.71797" lon="-13.99923">
        <ele>-0.8</ele>
        <time>2021-07-04 13:27:03</time>
      </trkpt>
      <trkpt lat="28.71793" lon="-13.99925">
        <ele>-0.8</ele>
        <time>2021-07-04 13:27:04</time>
      </trkpt>
      <trkpt lat="28.7179" lon="-13.99927">
        <ele>-1</ele>
        <time>2021-07-04 13:27:05</time>
      </trkpt>
      <trkpt lat="28.71786" lon="-13.99929">
        <ele>-1</ele>
        <time>2021-07-04 13:27:06</time>
      </trkpt>
      <trkpt lat="28.71783" lon="-13.99931">
        <ele>-1</ele>
        <time>2021-07-04 13:27:07</time>
      </trkpt>
      <trkpt lat="28.7178" lon="-13.99933">
        <ele>-1</ele>
        <time>2021-07-04 13:27:08</time>
      </trkpt>
      <trkpt lat="28.71777" lon="-13.99935">
        <ele>-1</ele>
        <time>2021-07-04 13:27:09</time>
      </trkpt>
      <trkpt lat="28.71775" lon="-13.99936">
        <ele>-0.6</ele>
        <time>2021-07-04 13:27:10</time>
      </trkpt>
      <trkpt lat="28.71772" lon="-13.99937">
        <ele>-0.6</ele>
        <time>2021-07-04 13:27:11</time>
      </trkpt>
      <trkpt lat="28.71769" lon="-13.99939">
        <ele>-0.4</ele>
        <time>2021-07-04 13:27:12</time>
      </trkpt>
      <trkpt lat="28.71765" lon="-13.9994">
        <ele>-0.4</ele>
        <time>2021-07-04 13:27:13</time>
      </trkpt>
      <trkpt lat="28.71761" lon="-13.99943">
        <ele>-0.4</ele>
        <time>2021-07-04 13:27:14</time>
      </trkpt>
      <trkpt lat="28.71757" lon="-13.99947">
        <ele>-0.6</ele>
        <time>2021-07-04 13:27:15</time>
      </trkpt>
      <trkpt lat="28.71754" lon="-13.99951">
        <ele>-0.6</ele>
        <time>2021-07-04 13:27:16</time>
      </trkpt>
      <trkpt lat="28.71751" lon="-13.99954">
        <ele>-0.8</ele>
        <time>2021-07-04 13:27:17</time>
      </trkpt>
      <trkpt lat="28.71748" lon="-13.99958">
        <ele>-0.8</ele>
        <time>2021-07-04 13:27:18</time>
      </trkpt>
      <trkpt lat="28.71745" lon="-13.9996">
        <ele>-0.8</ele>
        <time>2021-07-04 13:27:19</time>
      </trkpt>
      <trkpt lat="28.71742" lon="-13.99962">
        <ele>-1.2</ele>
        <time>2021-07-04 13:27:20</time>
      </trkpt>
      <trkpt lat="28.71739" lon="-13.99963">
        <ele>-1.2</ele>
        <time>2021-07-04 13:27:21</time>
      </trkpt>
      <trkpt lat="28.71736" lon="-13.99964">
        <ele>-1.2</ele>
        <time>2021-07-04 13:27:22</time>
      </trkpt>
      <trkpt lat="28.71732" lon="-13.99965">
        <ele>-1.2</ele>
        <time>2021-07-04 13:27:23</time>
      </trkpt>
      <trkpt lat="28.71729" lon="-13.99965">
        <ele>-1.2</ele>
        <time>2021-07-04 13:27:24</time>
      </trkpt>
      <trkpt lat="28.71725" lon="-13.99965">
        <ele>-1.4</ele>
        <time>2021-07-04 13:27:25</time>
      </trkpt>
      <trkpt lat="28.71722" lon="-13.99966">
        <ele>-1.4</ele>
        <time>2021-07-04 13:27:26</time>
      </trkpt>
      <trkpt lat="28.7172" lon="-13.99966">
        <ele>-1.4</ele>
        <time>2021-07-04 13:27:27</time>
      </trkpt>
      <trkpt lat="28.71717" lon="-13.99966">
        <ele>-1.4</ele>
        <time>2021-07-04 13:27:28</time>
      </trkpt>
      <trkpt lat="28.71714" lon="-13.99966">
        <ele>-1.4</ele>
        <time>2021-07-04 13:27:29</time>
      </trkpt>
      <trkpt lat="28.7171" lon="-13.99966">
        <ele>-1.4</ele>
        <time>2021-07-04 13:27:30</time>
      </trkpt>
      <trkpt lat="28.71707" lon="-13.99967">
        <ele>-1.4</ele>
        <time>2021-07-04 13:27:31</time>
      </trkpt>
      <trkpt lat="28.71703" lon="-13.99967">
        <ele>-1.4</ele>
        <time>2021-07-04 13:27:32</time>
      </trkpt>
      <trkpt lat="28.71701" lon="-13.99967">
        <ele>-1.4</ele>
        <time>2021-07-04 13:27:33</time>
      </trkpt>
      <trkpt lat="28.71698" lon="-13.99967">
        <ele>-1.4</ele>
        <time>2021-07-04 13:27:34</time>
      </trkpt>
      <trkpt lat="28.71696" lon="-13.99967">
        <ele>-1.4</ele>
        <time>2021-07-04 13:27:35</time>
      </trkpt>
      <trkpt lat="28.71693" lon="-13.99969">
        <ele>-1.4</ele>
        <time>2021-07-04 13:27:36</time>
      </trkpt>
      <trkpt lat="28.7169" lon="-13.9997">
        <ele>-1.4</ele>
        <time>2021-07-04 13:27:37</time>
      </trkpt>
      <trkpt lat="28.71688" lon="-13.99972">
        <ele>-1.4</ele>
        <time>2021-07-04 13:27:38</time>
      </trkpt>
      <trkpt lat="28.71685" lon="-13.99974">
        <ele>-1.4</ele>
        <time>2021-07-04 13:27:39</time>
      </trkpt>
      <trkpt lat="28.71682" lon="-13.99977">
        <ele>-1.8</ele>
        <time>2021-07-04 13:27:40</time>
      </trkpt>
      <trkpt lat="28.71679" lon="-13.9998">
        <ele>-2</ele>
        <time>2021-07-04 13:27:41</time>
      </trkpt>
      <trkpt lat="28.71677" lon="-13.99983">
        <ele>-2</ele>
        <time>2021-07-04 13:27:42</time>
      </trkpt>
      <trkpt lat="28.71675" lon="-13.99986">
        <ele>-2.2</ele>
        <time>2021-07-04 13:27:43</time>
      </trkpt>
      <trkpt lat="28.71672" lon="-13.99989">
        <ele>-2.2</ele>
        <time>2021-07-04 13:27:44</time>
      </trkpt>
      <trkpt lat="28.71668" lon="-13.99991">
        <ele>-2.2</ele>
        <time>2021-07-04 13:27:45</time>
      </trkpt>
      <trkpt lat="28.71664" lon="-13.99993">
        <ele>-2.2</ele>
        <time>2021-07-04 13:27:46</time>
      </trkpt>
      <trkpt lat="28.71661" lon="-13.99995">
        <ele>-2.2</ele>
        <time>2021-07-04 13:27:47</time>
      </trkpt>
      <trkpt lat="28.71656" lon="-13.99997">
        <ele>-2.4</ele>
        <time>2021-07-04 13:27:48</time>
      </trkpt>
      <trkpt lat="28.71652" lon="-14">
        <ele>-2.4</ele>
        <time>2021-07-04 13:27:49</time>
      </trkpt>
      <trkpt lat="28.71649" lon="-14.00002">
        <ele>-2.4</ele>
        <time>2021-07-04 13:27:50</time>
      </trkpt>
      <trkpt lat="28.71646" lon="-14.00003">
        <ele>-2.2</ele>
        <time>2021-07-04 13:27:51</time>
      </trkpt>
      <trkpt lat="28.71643" lon="-14.00005">
        <ele>-1.8</ele>
        <time>2021-07-04 13:27:52</time>
      </trkpt>
      <trkpt lat="28.7164" lon="-14.00006">
        <ele>-1.8</ele>
        <time>2021-07-04 13:27:53</time>
      </trkpt>
      <trkpt lat="28.71637" lon="-14.00007">
        <ele>-1.6</ele>
        <time>2021-07-04 13:27:54</time>
      </trkpt>
      <trkpt lat="28.71633" lon="-14.00009">
        <ele>-1.6</ele>
        <time>2021-07-04 13:27:55</time>
      </trkpt>
      <trkpt lat="28.71629" lon="-14.00011">
        <ele>-1.6</ele>
        <time>2021-07-04 13:27:56</time>
      </trkpt>
      <trkpt lat="28.71625" lon="-14.00013">
        <ele>-1.6</ele>
        <time>2021-07-04 13:27:57</time>
      </trkpt>
      <trkpt lat="28.71621" lon="-14.00014">
        <ele>-1.6</ele>
        <time>2021-07-04 13:27:58</time>
      </trkpt>
      <trkpt lat="28.71617" lon="-14.00015">
        <ele>-1.6</ele>
        <time>2021-07-04 13:27:59</time>
      </trkpt>
      <trkpt lat="28.71613" lon="-14.00018">
        <ele>-1.8</ele>
        <time>2021-07-04 13:28:00</time>
      </trkpt>
      <trkpt lat="28.7161" lon="-14.0002">
        <ele>-1.8</ele>
        <time>2021-07-04 13:28:01</time>
      </trkpt>
      <trkpt lat="28.71606" lon="-14.00023">
        <ele>-2</ele>
        <time>2021-07-04 13:28:02</time>
      </trkpt>
      <trkpt lat="28.71602" lon="-14.00026">
        <ele>-2</ele>
        <time>2021-07-04 13:28:03</time>
      </trkpt>
      <trkpt lat="28.71598" lon="-14.00027">
        <ele>-2</ele>
        <time>2021-07-04 13:28:04</time>
      </trkpt>
      <trkpt lat="28.71595" lon="-14.0003">
        <ele>-2.2</ele>
        <time>2021-07-04 13:28:05</time>
      </trkpt>
      <trkpt lat="28.71591" lon="-14.00032">
        <ele>-2.2</ele>
        <time>2021-07-04 13:28:06</time>
      </trkpt>
      <trkpt lat="28.71587" lon="-14.00034">
        <ele>-2.2</ele>
        <time>2021-07-04 13:28:07</time>
      </trkpt>
      <trkpt lat="28.71583" lon="-14.00036">
        <ele>-2.6</ele>
        <time>2021-07-04 13:28:08</time>
      </trkpt>
      <trkpt lat="28.71581" lon="-14.00038">
        <ele>-2.6</ele>
        <time>2021-07-04 13:28:09</time>
      </trkpt>
      <trkpt lat="28.71579" lon="-14.00041">
        <ele>-2.6</ele>
        <time>2021-07-04 13:28:10</time>
      </trkpt>
      <trkpt lat="28.71577" lon="-14.00044">
        <ele>-2.8</ele>
        <time>2021-07-04 13:28:11</time>
      </trkpt>
      <trkpt lat="28.71576" lon="-14.00047">
        <ele>-2.8</ele>
        <time>2021-07-04 13:28:12</time>
      </trkpt>
      <trkpt lat="28.71576" lon="-14.00051">
        <ele>-2.8</ele>
        <time>2021-07-04 13:28:13</time>
      </trkpt>
      <trkpt lat="28.71575" lon="-14.00054">
        <ele>-2.8</ele>
        <time>2021-07-04 13:28:14</time>
      </trkpt>
      <trkpt lat="28.71575" lon="-14.00057">
        <ele>-3</ele>
        <time>2021-07-04 13:28:15</time>
      </trkpt>
      <trkpt lat="28.71576" lon="-14.00059">
        <ele>-3</ele>
        <time>2021-07-04 13:28:16</time>
      </trkpt>
      <trkpt lat="28.71578" lon="-14.00063">
        <ele>-3</ele>
        <time>2021-07-04 13:28:17</time>
      </trkpt>
      <trkpt lat="28.7158" lon="-14.00066">
        <ele>-2.8</ele>
        <time>2021-07-04 13:28:18</time>
      </trkpt>
      <trkpt lat="28.71582" lon="-14.0007">
        <ele>-2.8</ele>
        <time>2021-07-04 13:28:19</time>
      </trkpt>
      <trkpt lat="28.71584" lon="-14.00073">
        <ele>-2.8</ele>
        <time>2021-07-04 13:28:20</time>
      </trkpt>
      <trkpt lat="28.71585" lon="-14.00077">
        <ele>-2.8</ele>
        <time>2021-07-04 13:28:21</time>
      </trkpt>
      <trkpt lat="28.71585" lon="-14.00081">
        <ele>-2.8</ele>
        <time>2021-07-04 13:28:22</time>
      </trkpt>
      <trkpt lat="28.71585" lon="-14.00084">
        <ele>-2.8</ele>
        <time>2021-07-04 13:28:23</time>
      </trkpt>
      <trkpt lat="28.71584" lon="-14.00086">
        <ele>-2.6</ele>
        <time>2021-07-04 13:28:24</time>
      </trkpt>
      <trkpt lat="28.71584" lon="-14.00089">
        <ele>-2.6</ele>
        <time>2021-07-04 13:28:25</time>
      </trkpt>
      <trkpt lat="28.71584" lon="-14.00091">
        <ele>-2.2</ele>
        <time>2021-07-04 13:28:26</time>
      </trkpt>
      <trkpt lat="28.71583" lon="-14.00093">
        <ele>-2.2</ele>
        <time>2021-07-04 13:28:27</time>
      </trkpt>
      <trkpt lat="28.71582" lon="-14.00096">
        <ele>-2</ele>
        <time>2021-07-04 13:28:28</time>
      </trkpt>
      <trkpt lat="28.71582" lon="-14.00098">
        <ele>-2</ele>
        <time>2021-07-04 13:28:29</time>
      </trkpt>
      <trkpt lat="28.71582" lon="-14.00101">
        <ele>-2</ele>
        <time>2021-07-04 13:28:30</time>
      </trkpt>
      <trkpt lat="28.71582" lon="-14.00104">
        <ele>-2</ele>
        <time>2021-07-04 13:28:31</time>
      </trkpt>
      <trkpt lat="28.71582" lon="-14.00107">
        <ele>-1.8</ele>
        <time>2021-07-04 13:28:32</time>
      </trkpt>
      <trkpt lat="28.71582" lon="-14.0011">
        <ele>-1.8</ele>
        <time>2021-07-04 13:28:33</time>
      </trkpt>
      <trkpt lat="28.71581" lon="-14.00113">
        <ele>-1.8</ele>
        <time>2021-07-04 13:28:34</time>
      </trkpt>
      <trkpt lat="28.71581" lon="-14.00117">
        <ele>-1.8</ele>
        <time>2021-07-04 13:28:35</time>
      </trkpt>
      <trkpt lat="28.7158" lon="-14.0012">
        <ele>-1.8</ele>
        <time>2021-07-04 13:28:36</time>
      </trkpt>
      <trkpt lat="28.71579" lon="-14.00124">
        <ele>-1.8</ele>
        <time>2021-07-04 13:28:37</time>
      </trkpt>
      <trkpt lat="28.71578" lon="-14.00127">
        <ele>-1.8</ele>
        <time>2021-07-04 13:28:38</time>
      </trkpt>
      <trkpt lat="28.71576" lon="-14.0013">
        <ele>-2</ele>
        <time>2021-07-04 13:28:39</time>
      </trkpt>
      <trkpt lat="28.71574" lon="-14.00133">
        <ele>-2</ele>
        <time>2021-07-04 13:28:40</time>
      </trkpt>
      <trkpt lat="28.71571" lon="-14.00136">
        <ele>-2</ele>
        <time>2021-07-04 13:28:41</time>
      </trkpt>
      <trkpt lat="28.71568" lon="-14.00139">
        <ele>-2</ele>
        <time>2021-07-04 13:28:42</time>
      </trkpt>
      <trkpt lat="28.71566" lon="-14.00142">
        <ele>-2</ele>
        <time>2021-07-04 13:28:43</time>
      </trkpt>
      <trkpt lat="28.71563" lon="-14.00144">
        <ele>-2</ele>
        <time>2021-07-04 13:28:44</time>
      </trkpt>
      <trkpt lat="28.71561" lon="-14.00147">
        <ele>-2.4</ele>
        <time>2021-07-04 13:28:45</time>
      </trkpt>
      <trkpt lat="28.71558" lon="-14.00148">
        <ele>-2.4</ele>
        <time>2021-07-04 13:28:46</time>
      </trkpt>
      <trkpt lat="28.71556" lon="-14.0015">
        <ele>-2.4</ele>
        <time>2021-07-04 13:28:47</time>
      </trkpt>
      <trkpt lat="28.71553" lon="-14.00151">
        <ele>-2</ele>
        <time>2021-07-04 13:28:48</time>
      </trkpt>
      <trkpt lat="28.71551" lon="-14.00153">
        <ele>-2</ele>
        <time>2021-07-04 13:28:49</time>
      </trkpt>
      <trkpt lat="28.71549" lon="-14.00154">
        <ele>-1.8</ele>
        <time>2021-07-04 13:28:50</time>
      </trkpt>
      <trkpt lat="28.71547" lon="-14.00156">
        <ele>-1.8</ele>
        <time>2021-07-04 13:28:51</time>
      </trkpt>
      <trkpt lat="28.71544" lon="-14.00157">
        <ele>-1.6</ele>
        <time>2021-07-04 13:28:52</time>
      </trkpt>
      <trkpt lat="28.71542" lon="-14.00159">
        <ele>-1.6</ele>
        <time>2021-07-04 13:28:53</time>
      </trkpt>
      <trkpt lat="28.71541" lon="-14.00162">
        <ele>-1.6</ele>
        <time>2021-07-04 13:28:54</time>
      </trkpt>
      <trkpt lat="28.71539" lon="-14.00164">
        <ele>-1.6</ele>
        <time>2021-07-04 13:28:55</time>
      </trkpt>
      <trkpt lat="28.71536" lon="-14.00166">
        <ele>-1.6</ele>
        <time>2021-07-04 13:28:56</time>
      </trkpt>
      <trkpt lat="28.71534" lon="-14.00169">
        <ele>-1.4</ele>
        <time>2021-07-04 13:28:57</time>
      </trkpt>
      <trkpt lat="28.71532" lon="-14.00171">
        <ele>-1.4</ele>
        <time>2021-07-04 13:28:58</time>
      </trkpt>
      <trkpt lat="28.7153" lon="-14.00174">
        <ele>-1.4</ele>
        <time>2021-07-04 13:28:59</time>
      </trkpt>
      <trkpt lat="28.71528" lon="-14.00177">
        <ele>-1.4</ele>
        <time>2021-07-04 13:29:00</time>
      </trkpt>
      <trkpt lat="28.71526" lon="-14.0018">
        <ele>-1.4</ele>
        <time>2021-07-04 13:29:01</time>
      </trkpt>
      <trkpt lat="28.71523" lon="-14.00183">
        <ele>-1.4</ele>
        <time>2021-07-04 13:29:02</time>
      </trkpt>
      <trkpt lat="28.71521" lon="-14.00186">
        <ele>-1.6</ele>
        <time>2021-07-04 13:29:03</time>
      </trkpt>
      <trkpt lat="28.71519" lon="-14.00189">
        <ele>-1.6</ele>
        <time>2021-07-04 13:29:04</time>
      </trkpt>
      <trkpt lat="28.71517" lon="-14.00192">
        <ele>-1.6</ele>
        <time>2021-07-04 13:29:05</time>
      </trkpt>
      <trkpt lat="28.71515" lon="-14.00195">
        <ele>-1.8</ele>
        <time>2021-07-04 13:29:06</time>
      </trkpt>
      <trkpt lat="28.71513" lon="-14.00197">
        <ele>-1.8</ele>
        <time>2021-07-04 13:29:07</time>
      </trkpt>
      <trkpt lat="28.71511" lon="-14.002">
        <ele>-2.2</ele>
        <time>2021-07-04 13:29:08</time>
      </trkpt>
      <trkpt lat="28.71509" lon="-14.00202">
        <ele>-2.2</ele>
        <time>2021-07-04 13:29:09</time>
      </trkpt>
      <trkpt lat="28.71506" lon="-14.00205">
        <ele>-2.2</ele>
        <time>2021-07-04 13:29:10</time>
      </trkpt>
      <trkpt lat="28.71504" lon="-14.00208">
        <ele>-2.2</ele>
        <time>2021-07-04 13:29:11</time>
      </trkpt>
      <trkpt lat="28.71503" lon="-14.0021">
        <ele>-2.2</ele>
        <time>2021-07-04 13:29:12</time>
      </trkpt>
      <trkpt lat="28.71502" lon="-14.00212">
        <ele>-2.2</ele>
        <time>2021-07-04 13:29:13</time>
      </trkpt>
      <trkpt lat="28.71501" lon="-14.00213">
        <ele>-2.2</ele>
        <time>2021-07-04 13:29:14</time>
      </trkpt>
      <trkpt lat="28.715" lon="-14.00214">
        <ele>-2.2</ele>
        <time>2021-07-04 13:29:15</time>
      </trkpt>
      <trkpt lat="28.71499" lon="-14.00216">
        <ele>-2.2</ele>
        <time>2021-07-04 13:29:16</time>
      </trkpt>
      <trkpt lat="28.71497" lon="-14.00219">
        <ele>-2.2</ele>
        <time>2021-07-04 13:29:17</time>
      </trkpt>
      <trkpt lat="28.71496" lon="-14.00222">
        <ele>-2.2</ele>
        <time>2021-07-04 13:29:18</time>
      </trkpt>
      <trkpt lat="28.71495" lon="-14.00226">
        <ele>-2.2</ele>
        <time>2021-07-04 13:29:19</time>
      </trkpt>
      <trkpt lat="28.71494" lon="-14.00229">
        <ele>-2.2</ele>
        <time>2021-07-04 13:29:20</time>
      </trkpt>
      <trkpt lat="28.71494" lon="-14.00232">
        <ele>-2.2</ele>
        <time>2021-07-04 13:29:21</time>
      </trkpt>
      <trkpt lat="28.71493" lon="-14.00234">
        <ele>-1.8</ele>
        <time>2021-07-04 13:29:22</time>
      </trkpt>
      <trkpt lat="28.71493" lon="-14.00235">
        <ele>-1.8</ele>
        <time>2021-07-04 13:29:23</time>
      </trkpt>
      <trkpt lat="28.71493" lon="-14.00236">
        <ele>-1.6</ele>
        <time>2021-07-04 13:29:24</time>
      </trkpt>
      <trkpt lat="28.71494" lon="-14.00236">
        <ele>-1.4</ele>
        <time>2021-07-04 13:29:25</time>
      </trkpt>
      <trkpt lat="28.71494" lon="-14.00236">
        <ele>-1.4</ele>
        <time>2021-07-04 13:29:26</time>
      </trkpt>
      <trkpt lat="28.71493" lon="-14.00238">
        <ele>-1</ele>
        <time>2021-07-04 13:29:27</time>
      </trkpt>
      <trkpt lat="28.71493" lon="-14.00239">
        <ele>-1</ele>
        <time>2021-07-04 13:29:28</time>
      </trkpt>
      <trkpt lat="28.71493" lon="-14.0024">
        <ele>-1.2</ele>
        <time>2021-07-04 13:29:29</time>
      </trkpt>
      <trkpt lat="28.71493" lon="-14.00242">
        <ele>-1.2</ele>
        <time>2021-07-04 13:29:30</time>
      </trkpt>
      <trkpt lat="28.71493" lon="-14.00243">
        <ele>-1.2</ele>
        <time>2021-07-04 13:29:31</time>
      </trkpt>
      <trkpt lat="28.71493" lon="-14.00244">
        <ele>-1.2</ele>
        <time>2021-07-04 13:29:32</time>
      </trkpt>
      <trkpt lat="28.71493" lon="-14.00246">
        <ele>-1.2</ele>
        <time>2021-07-04 13:29:33</time>
      </trkpt>
      <trkpt lat="28.71492" lon="-14.00246">
        <ele>-1</ele>
        <time>2021-07-04 13:29:34</time>
      </trkpt>
      <trkpt lat="28.71492" lon="-14.00248">
        <ele>-1</ele>
        <time>2021-07-04 13:29:35</time>
      </trkpt>
      <trkpt lat="28.71492" lon="-14.00249">
        <ele>-1</ele>
        <time>2021-07-04 13:29:36</time>
      </trkpt>
      <trkpt lat="28.71492" lon="-14.0025">
        <ele>-1</ele>
        <time>2021-07-04 13:29:37</time>
      </trkpt>
      <trkpt lat="28.71491" lon="-14.00251">
        <ele>-0.8</ele>
        <time>2021-07-04 13:29:38</time>
      </trkpt>
      <trkpt lat="28.71491" lon="-14.00252">
        <ele>-0.8</ele>
        <time>2021-07-04 13:29:39</time>
      </trkpt>
      <trkpt lat="28.7149" lon="-14.00253">
        <ele>-0.8</ele>
        <time>2021-07-04 13:29:40</time>
      </trkpt>
      <trkpt lat="28.71489" lon="-14.00254">
        <ele>-0.8</ele>
        <time>2021-07-04 13:29:41</time>
      </trkpt>
      <trkpt lat="28.71488" lon="-14.00255">
        <ele>-0.8</ele>
        <time>2021-07-04 13:29:42</time>
      </trkpt>
      <trkpt lat="28.71488" lon="-14.00256">
        <ele>-0.8</ele>
        <time>2021-07-04 13:29:43</time>
      </trkpt>
      <trkpt lat="28.71487" lon="-14.00257">
        <ele>-0.8</ele>
        <time>2021-07-04 13:29:44</time>
      </trkpt>
      <trkpt lat="28.71486" lon="-14.00258">
        <ele>-0.8</ele>
        <time>2021-07-04 13:29:45</time>
      </trkpt>
      <trkpt lat="28.71485" lon="-14.00259">
        <ele>-0.8</ele>
        <time>2021-07-04 13:29:46</time>
      </trkpt>
      <trkpt lat="28.71484" lon="-14.0026">
        <ele>-0.8</ele>
        <time>2021-07-04 13:29:47</time>
      </trkpt>
      <trkpt lat="28.71482" lon="-14.00261">
        <ele>-0.8</ele>
        <time>2021-07-04 13:29:51</time>
      </trkpt>
      <trkpt lat="28.71481" lon="-14.00262">
        <ele>-1</ele>
        <time>2021-07-04 13:29:52</time>
      </trkpt>
      <trkpt lat="28.7148" lon="-14.00263">
        <ele>-1</ele>
        <time>2021-07-04 13:29:53</time>
      </trkpt>
      <trkpt lat="28.71479" lon="-14.00264">
        <ele>-1</ele>
        <time>2021-07-04 13:29:54</time>
      </trkpt>
      <trkpt lat="28.71478" lon="-14.00264">
        <ele>-1.2</ele>
        <time>2021-07-04 13:29:55</time>
      </trkpt>
      <trkpt lat="28.71476" lon="-14.00265">
        <ele>-1.2</ele>
        <time>2021-07-04 13:29:56</time>
      </trkpt>
      <trkpt lat="28.71475" lon="-14.00266">
        <ele>-1.6</ele>
        <time>2021-07-04 13:29:57</time>
      </trkpt>
      <trkpt lat="28.71474" lon="-14.00267">
        <ele>-1.6</ele>
        <time>2021-07-04 13:29:58</time>
      </trkpt>
      <trkpt lat="28.71473" lon="-14.00268">
        <ele>-1.8</ele>
        <time>2021-07-04 13:29:59</time>
      </trkpt>
      <trkpt lat="28.71471" lon="-14.00268">
        <ele>-1.8</ele>
        <time>2021-07-04 13:30:00</time>
      </trkpt>
      <trkpt lat="28.71471" lon="-14.00269">
        <ele>-2</ele>
        <time>2021-07-04 13:30:01</time>
      </trkpt>
      <trkpt lat="28.7147" lon="-14.00269">
        <ele>-2</ele>
        <time>2021-07-04 13:30:02</time>
      </trkpt>
      <trkpt lat="28.7147" lon="-14.00269">
        <ele>-2</ele>
        <time>2021-07-04 13:30:03</time>
      </trkpt>
      <trkpt lat="28.7147" lon="-14.00269">
        <ele>-2.2</ele>
        <time>2021-07-04 13:30:04</time>
      </trkpt>
      <trkpt lat="28.7147" lon="-14.00269">
        <ele>-2.2</ele>
        <time>2021-07-04 13:30:05</time>
      </trkpt>
      <trkpt lat="28.71466" lon="-14.00271">
        <ele>-2.2</ele>
        <time>2021-07-04 13:30:06</time>
      </trkpt>
      <trkpt lat="28.71463" lon="-14.00273">
        <ele>-2.2</ele>
        <time>2021-07-04 13:30:07</time>
      </trkpt>
      <trkpt lat="28.7146" lon="-14.00275">
        <ele>-2.6</ele>
        <time>2021-07-04 13:30:08</time>
      </trkpt>
      <trkpt lat="28.71457" lon="-14.00277">
        <ele>-2.6</ele>
        <time>2021-07-04 13:30:09</time>
      </trkpt>
      <trkpt lat="28.71454" lon="-14.00279">
        <ele>-2.6</ele>
        <time>2021-07-04 13:30:10</time>
      </trkpt>
      <trkpt lat="28.71451" lon="-14.00281">
        <ele>-2.8</ele>
        <time>2021-07-04 13:30:11</time>
      </trkpt>
      <trkpt lat="28.71448" lon="-14.00282">
        <ele>-2.8</ele>
        <time>2021-07-04 13:30:12</time>
      </trkpt>
      <trkpt lat="28.71445" lon="-14.00283">
        <ele>-3</ele>
        <time>2021-07-04 13:30:13</time>
      </trkpt>
      <trkpt lat="28.71442" lon="-14.00285">
        <ele>-3</ele>
        <time>2021-07-04 13:30:14</time>
      </trkpt>
      <trkpt lat="28.71439" lon="-14.00287">
        <ele>-3</ele>
        <time>2021-07-04 13:30:15</time>
      </trkpt>
      <trkpt lat="28.71435" lon="-14.00289">
        <ele>-3</ele>
        <time>2021-07-04 13:30:16</time>
      </trkpt>
      <trkpt lat="28.71432" lon="-14.00291">
        <ele>-3</ele>
        <time>2021-07-04 13:30:17</time>
      </trkpt>
      <trkpt lat="28.71429" lon="-14.00293">
        <ele>-3</ele>
        <time>2021-07-04 13:30:18</time>
      </trkpt>
      <trkpt lat="28.71427" lon="-14.00294">
        <ele>-3</ele>
        <time>2021-07-04 13:30:19</time>
      </trkpt>
      <trkpt lat="28.71424" lon="-14.00295">
        <ele>-3</ele>
        <time>2021-07-04 13:30:20</time>
      </trkpt>
      <trkpt lat="28.71422" lon="-14.00297">
        <ele>-2.6</ele>
        <time>2021-07-04 13:30:21</time>
      </trkpt>
      <trkpt lat="28.71419" lon="-14.00298">
        <ele>-2.4</ele>
        <time>2021-07-04 13:30:22</time>
      </trkpt>
      <trkpt lat="28.71416" lon="-14.00299">
        <ele>-2.4</ele>
        <time>2021-07-04 13:30:23</time>
      </trkpt>
      <trkpt lat="28.71412" lon="-14.00301">
        <ele>-2.2</ele>
        <time>2021-07-04 13:30:24</time>
      </trkpt>
      <trkpt lat="28.71409" lon="-14.00303">
        <ele>-2.2</ele>
        <time>2021-07-04 13:30:25</time>
      </trkpt>
      <trkpt lat="28.71405" lon="-14.00304">
        <ele>-2.2</ele>
        <time>2021-07-04 13:30:26</time>
      </trkpt>
      <trkpt lat="28.714" lon="-14.00305">
        <ele>-2.2</ele>
        <time>2021-07-04 13:30:29</time>
      </trkpt>
      <trkpt lat="28.71396" lon="-14.00308">
        <ele>-2.6</ele>
        <time>2021-07-04 13:30:30</time>
      </trkpt>
      <trkpt lat="28.71393" lon="-14.0031">
        <ele>-2.6</ele>
        <time>2021-07-04 13:30:31</time>
      </trkpt>
      <trkpt lat="28.71389" lon="-14.00312">
        <ele>-2.6</ele>
        <time>2021-07-04 13:30:32</time>
      </trkpt>
      <trkpt lat="28.71386" lon="-14.00314">
        <ele>-2.8</ele>
        <time>2021-07-04 13:30:33</time>
      </trkpt>
      <trkpt lat="28.71383" lon="-14.00315">
        <ele>-2.8</ele>
        <time>2021-07-04 13:30:34</time>
      </trkpt>
      <trkpt lat="28.7138" lon="-14.00317">
        <ele>-3</ele>
        <time>2021-07-04 13:30:35</time>
      </trkpt>
      <trkpt lat="28.71376" lon="-14.00318">
        <ele>-3</ele>
        <time>2021-07-04 13:30:36</time>
      </trkpt>
      <trkpt lat="28.71374" lon="-14.00319">
        <ele>-3</ele>
        <time>2021-07-04 13:30:37</time>
      </trkpt>
      <trkpt lat="28.71371" lon="-14.00321">
        <ele>-3.2</ele>
        <time>2021-07-04 13:30:38</time>
      </trkpt>
      <trkpt lat="28.71368" lon="-14.00322">
        <ele>-3.2</ele>
        <time>2021-07-04 13:30:39</time>
      </trkpt>
      <trkpt lat="28.71365" lon="-14.00323">
        <ele>-3.2</ele>
        <time>2021-07-04 13:30:40</time>
      </trkpt>
      <trkpt lat="28.71362" lon="-14.00325">
        <ele>-3.4</ele>
        <time>2021-07-04 13:30:41</time>
      </trkpt>
      <trkpt lat="28.71359" lon="-14.00326">
        <ele>-3.4</ele>
        <time>2021-07-04 13:30:42</time>
      </trkpt>
      <trkpt lat="28.71355" lon="-14.00328">
        <ele>-3.4</ele>
        <time>2021-07-04 13:30:43</time>
      </trkpt>
      <trkpt lat="28.7134" lon="-14.00336">
        <ele>-3.8</ele>
        <time>2021-07-04 13:30:44</time>
      </trkpt>
      <trkpt lat="28.71336" lon="-14.00337">
        <ele>-3.8</ele>
        <time>2021-07-04 13:30:45</time>
      </trkpt>
      <trkpt lat="28.71333" lon="-14.00339">
        <ele>-3.8</ele>
        <time>2021-07-04 13:30:46</time>
      </trkpt>
      <trkpt lat="28.71329" lon="-14.0034">
        <ele>-3.8</ele>
        <time>2021-07-04 13:30:47</time>
      </trkpt>
      <trkpt lat="28.71326" lon="-14.00341">
        <ele>-3.8</ele>
        <time>2021-07-04 13:30:48</time>
      </trkpt>
      <trkpt lat="28.71322" lon="-14.00343">
        <ele>-3.8</ele>
        <time>2021-07-04 13:30:49</time>
      </trkpt>
      <trkpt lat="28.71319" lon="-14.00344">
        <ele>-3.8</ele>
        <time>2021-07-04 13:30:50</time>
      </trkpt>
      <trkpt lat="28.71315" lon="-14.00346">
        <ele>-3.8</ele>
        <time>2021-07-04 13:30:51</time>
      </trkpt>
      <trkpt lat="28.71311" lon="-14.00348">
        <ele>-3.8</ele>
        <time>2021-07-04 13:30:52</time>
      </trkpt>
      <trkpt lat="28.71307" lon="-14.0035">
        <ele>-3.8</ele>
        <time>2021-07-04 13:30:53</time>
      </trkpt>
      <trkpt lat="28.71304" lon="-14.00351">
        <ele>-3.8</ele>
        <time>2021-07-04 13:30:54</time>
      </trkpt>
      <trkpt lat="28.713" lon="-14.00352">
        <ele>-3.8</ele>
        <time>2021-07-04 13:30:55</time>
      </trkpt>
      <trkpt lat="28.71296" lon="-14.00354">
        <ele>-3.8</ele>
        <time>2021-07-04 13:30:56</time>
      </trkpt>
      <trkpt lat="28.71293" lon="-14.00356">
        <ele>-3.8</ele>
        <time>2021-07-04 13:30:57</time>
      </trkpt>
      <trkpt lat="28.71289" lon="-14.00357">
        <ele>-3.8</ele>
        <time>2021-07-04 13:30:58</time>
      </trkpt>
      <trkpt lat="28.71286" lon="-14.00359">
        <ele>-3.8</ele>
        <time>2021-07-04 13:30:59</time>
      </trkpt>
      <trkpt lat="28.71283" lon="-14.0036">
        <ele>-3.8</ele>
        <time>2021-07-04 13:31:00</time>
      </trkpt>
      <trkpt lat="28.71278" lon="-14.00362">
        <ele>-4</ele>
        <time>2021-07-04 13:31:01</time>
      </trkpt>
      <trkpt lat="28.71276" lon="-14.00363">
        <ele>-4</ele>
        <time>2021-07-04 13:31:02</time>
      </trkpt>
      <trkpt lat="28.71273" lon="-14.00364">
        <ele>-4.2</ele>
        <time>2021-07-04 13:31:03</time>
      </trkpt>
      <trkpt lat="28.7127" lon="-14.00366">
        <ele>-4.2</ele>
        <time>2021-07-04 13:31:04</time>
      </trkpt>
      <trkpt lat="28.71268" lon="-14.00368">
        <ele>-4.2</ele>
        <time>2021-07-04 13:31:05</time>
      </trkpt>
      <trkpt lat="28.71265" lon="-14.0037">
        <ele>-4.2</ele>
        <time>2021-07-04 13:31:06</time>
      </trkpt>
      <trkpt lat="28.71263" lon="-14.00373">
        <ele>-4.6</ele>
        <time>2021-07-04 13:31:07</time>
      </trkpt>
      <trkpt lat="28.7126" lon="-14.00376">
        <ele>-4.6</ele>
        <time>2021-07-04 13:31:08</time>
      </trkpt>
      <trkpt lat="28.71259" lon="-14.00379">
        <ele>-4.6</ele>
        <time>2021-07-04 13:31:09</time>
      </trkpt>
      <trkpt lat="28.71257" lon="-14.00383">
        <ele>-4.6</ele>
        <time>2021-07-04 13:31:10</time>
      </trkpt>
      <trkpt lat="28.71255" lon="-14.00386">
        <ele>-4.6</ele>
        <time>2021-07-04 13:31:11</time>
      </trkpt>
      <trkpt lat="28.71253" lon="-14.00388">
        <ele>-4.6</ele>
        <time>2021-07-04 13:31:12</time>
      </trkpt>
      <trkpt lat="28.71251" lon="-14.0039">
        <ele>-4.6</ele>
        <time>2021-07-04 13:31:13</time>
      </trkpt>
      <trkpt lat="28.71248" lon="-14.00391">
        <ele>-4.6</ele>
        <time>2021-07-04 13:31:14</time>
      </trkpt>
      <trkpt lat="28.71246" lon="-14.00392">
        <ele>-4.6</ele>
        <time>2021-07-04 13:31:15</time>
      </trkpt>
      <trkpt lat="28.71244" lon="-14.00392">
        <ele>-4.6</ele>
        <time>2021-07-04 13:31:16</time>
      </trkpt>
      <trkpt lat="28.71241" lon="-14.00392">
        <ele>-4.6</ele>
        <time>2021-07-04 13:31:17</time>
      </trkpt>
      <trkpt lat="28.71239" lon="-14.00392">
        <ele>-4.6</ele>
        <time>2021-07-04 13:31:18</time>
      </trkpt>
      <trkpt lat="28.71238" lon="-14.00392">
        <ele>-4.6</ele>
        <time>2021-07-04 13:31:19</time>
      </trkpt>
      <trkpt lat="28.71238" lon="-14.00392">
        <ele>-4.6</ele>
        <time>2021-07-04 13:31:20</time>
      </trkpt>
      <trkpt lat="28.71237" lon="-14.00392">
        <ele>-4.6</ele>
        <time>2021-07-04 13:31:21</time>
      </trkpt>
      <trkpt lat="28.71237" lon="-14.00392">
        <ele>-4.6</ele>
        <time>2021-07-04 13:31:22</time>
      </trkpt>
      <trkpt lat="28.71238" lon="-14.00391">
        <ele>-4.6</ele>
        <time>2021-07-04 13:31:23</time>
      </trkpt>
      <trkpt lat="28.71236" lon="-14.0039">
        <ele>-4.6</ele>
        <time>2021-07-04 13:31:24</time>
      </trkpt>
      <trkpt lat="28.71235" lon="-14.00389">
        <ele>-4.6</ele>
        <time>2021-07-04 13:31:25</time>
      </trkpt>
      <trkpt lat="28.71233" lon="-14.00389">
        <ele>-4.8</ele>
        <time>2021-07-04 13:31:26</time>
      </trkpt>
      <trkpt lat="28.71231" lon="-14.00388">
        <ele>-4.8</ele>
        <time>2021-07-04 13:31:27</time>
      </trkpt>
      <trkpt lat="28.71228" lon="-14.00388">
        <ele>-5.2</ele>
        <time>2021-07-04 13:31:28</time>
      </trkpt>
      <trkpt lat="28.71226" lon="-14.00388">
        <ele>-5.2</ele>
        <time>2021-07-04 13:31:29</time>
      </trkpt>
      <trkpt lat="28.71223" lon="-14.00388">
        <ele>-5.6</ele>
        <time>2021-07-04 13:31:30</time>
      </trkpt>
      <trkpt lat="28.7122" lon="-14.00388">
        <ele>-5.6</ele>
        <time>2021-07-04 13:31:31</time>
      </trkpt>
      <trkpt lat="28.71217" lon="-14.00388">
        <ele>-5.6</ele>
        <time>2021-07-04 13:31:32</time>
      </trkpt>
      <trkpt lat="28.71214" lon="-14.00387">
        <ele>-5.8</ele>
        <time>2021-07-04 13:31:33</time>
      </trkpt>
      <trkpt lat="28.71211" lon="-14.00387">
        <ele>-5.8</ele>
        <time>2021-07-04 13:31:34</time>
      </trkpt>
      <trkpt lat="28.71207" lon="-14.00387">
        <ele>-5.8</ele>
        <time>2021-07-04 13:31:35</time>
      </trkpt>
      <trkpt lat="28.71204" lon="-14.00387">
        <ele>-5.8</ele>
        <time>2021-07-04 13:31:36</time>
      </trkpt>
      <trkpt lat="28.712" lon="-14.00387">
        <ele>-5.8</ele>
        <time>2021-07-04 13:31:37</time>
      </trkpt>
      <trkpt lat="28.71196" lon="-14.00387">
        <ele>-6</ele>
        <time>2021-07-04 13:31:38</time>
      </trkpt>
      <trkpt lat="28.71193" lon="-14.00388">
        <ele>-6</ele>
        <time>2021-07-04 13:31:39</time>
      </trkpt>
      <trkpt lat="28.71189" lon="-14.00388">
        <ele>-6</ele>
        <time>2021-07-04 13:31:40</time>
      </trkpt>
      <trkpt lat="28.71185" lon="-14.00389">
        <ele>-6</ele>
        <time>2021-07-04 13:31:41</time>
      </trkpt>
      <trkpt lat="28.71181" lon="-14.0039">
        <ele>-6</ele>
        <time>2021-07-04 13:31:42</time>
      </trkpt>
      <trkpt lat="28.71177" lon="-14.00392">
        <ele>-6</ele>
        <time>2021-07-04 13:31:43</time>
      </trkpt>
      <trkpt lat="28.71174" lon="-14.00394">
        <ele>-6</ele>
        <time>2021-07-04 13:31:44</time>
      </trkpt>
      <trkpt lat="28.7117" lon="-14.00397">
        <ele>-6</ele>
        <time>2021-07-04 13:31:45</time>
      </trkpt>
      <trkpt lat="28.71167" lon="-14.004">
        <ele>-6</ele>
        <time>2021-07-04 13:31:46</time>
      </trkpt>
      <trkpt lat="28.71164" lon="-14.00403">
        <ele>-6.2</ele>
        <time>2021-07-04 13:31:47</time>
      </trkpt>
      <trkpt lat="28.71162" lon="-14.00406">
        <ele>-6.2</ele>
        <time>2021-07-04 13:34:21</time>
      </trkpt>
      <trkpt lat="28.7116" lon="-14.00409">
        <ele>-6.2</ele>
        <time>2021-07-04 13:34:22</time>
      </trkpt>
      <trkpt lat="28.71158" lon="-14.00412">
        <ele>-6.2</ele>
        <time>2021-07-04 13:34:23</time>
      </trkpt>
      <trkpt lat="28.71156" lon="-14.00416">
        <ele>-6</ele>
        <time>2021-07-04 13:34:24</time>
      </trkpt>
      <trkpt lat="28.71154" lon="-14.00419">
        <ele>-6</ele>
        <time>2021-07-04 13:34:25</time>
      </trkpt>
      <trkpt lat="28.71151" lon="-14.00423">
        <ele>-5.6</ele>
        <time>2021-07-04 13:34:26</time>
      </trkpt>
      <trkpt lat="28.71149" lon="-14.00426">
        <ele>-5.6</ele>
        <time>2021-07-04 13:34:27</time>
      </trkpt>
      <trkpt lat="28.71146" lon="-14.00429">
        <ele>-5.2</ele>
        <time>2021-07-04 13:34:28</time>
      </trkpt>
      <trkpt lat="28.71144" lon="-14.00432">
        <ele>-5.2</ele>
        <time>2021-07-04 13:34:29</time>
      </trkpt>
      <trkpt lat="28.71142" lon="-14.00435">
        <ele>-5.2</ele>
        <time>2021-07-04 13:34:30</time>
      </trkpt>
      <trkpt lat="28.71139" lon="-14.00438">
        <ele>-5.2</ele>
        <time>2021-07-04 13:34:31</time>
      </trkpt>
      <trkpt lat="28.71137" lon="-14.00441">
        <ele>-5</ele>
        <time>2021-07-04 13:34:32</time>
      </trkpt>
      <trkpt lat="28.71134" lon="-14.00444">
        <ele>-5</ele>
        <time>2021-07-04 13:34:33</time>
      </trkpt>
      <trkpt lat="28.71131" lon="-14.00447">
        <ele>-5</ele>
        <time>2021-07-04 13:34:34</time>
      </trkpt>
      <trkpt lat="28.71128" lon="-14.0045">
        <ele>-5</ele>
        <time>2021-07-04 13:34:35</time>
      </trkpt>
      <trkpt lat="28.71125" lon="-14.00453">
        <ele>-5</ele>
        <time>2021-07-04 13:34:36</time>
      </trkpt>
      <trkpt lat="28.71123" lon="-14.00456">
        <ele>-5</ele>
        <time>2021-07-04 13:34:37</time>
      </trkpt>
      <trkpt lat="28.7112" lon="-14.00458">
        <ele>-5</ele>
        <time>2021-07-04 13:34:38</time>
      </trkpt>
      <trkpt lat="28.71117" lon="-14.0046">
        <ele>-5</ele>
        <time>2021-07-04 13:34:39</time>
      </trkpt>
      <trkpt lat="28.71114" lon="-14.00463">
        <ele>-4.8</ele>
        <time>2021-07-04 13:34:40</time>
      </trkpt>
      <trkpt lat="28.71112" lon="-14.00465">
        <ele>-4.8</ele>
        <time>2021-07-04 13:34:41</time>
      </trkpt>
      <trkpt lat="28.71109" lon="-14.00468">
        <ele>-4.8</ele>
        <time>2021-07-04 13:34:42</time>
      </trkpt>
      <trkpt lat="28.71106" lon="-14.0047">
        <ele>-4.8</ele>
        <time>2021-07-04 13:34:43</time>
      </trkpt>
      <trkpt lat="28.71103" lon="-14.00473">
        <ele>-4.8</ele>
        <time>2021-07-04 13:34:44</time>
      </trkpt>
      <trkpt lat="28.711" lon="-14.00476">
        <ele>-4.8</ele>
        <time>2021-07-04 13:34:45</time>
      </trkpt>
      <trkpt lat="28.71097" lon="-14.00478">
        <ele>-4.8</ele>
        <time>2021-07-04 13:34:46</time>
      </trkpt>
      <trkpt lat="28.71093" lon="-14.0048">
        <ele>-4.8</ele>
        <time>2021-07-04 13:34:47</time>
      </trkpt>
      <trkpt lat="28.7109" lon="-14.00482">
        <ele>-4.8</ele>
        <time>2021-07-04 13:34:48</time>
      </trkpt>
      <trkpt lat="28.71087" lon="-14.00483">
        <ele>-4.8</ele>
        <time>2021-07-04 13:34:49</time>
      </trkpt>
      <trkpt lat="28.71083" lon="-14.00485">
        <ele>-4.8</ele>
        <time>2021-07-04 13:34:50</time>
      </trkpt>
      <trkpt lat="28.7108" lon="-14.00486">
        <ele>-4.8</ele>
        <time>2021-07-04 13:34:51</time>
      </trkpt>
      <trkpt lat="28.71076" lon="-14.00487">
        <ele>-4.6</ele>
        <time>2021-07-04 13:34:52</time>
      </trkpt>
      <trkpt lat="28.71073" lon="-14.00488">
        <ele>-4.6</ele>
        <time>2021-07-04 13:34:53</time>
      </trkpt>
      <trkpt lat="28.71071" lon="-14.0049">
        <ele>-4.2</ele>
        <time>2021-07-04 13:34:54</time>
      </trkpt>
      <trkpt lat="28.71068" lon="-14.00492">
        <ele>-4.2</ele>
        <time>2021-07-04 13:34:55</time>
      </trkpt>
      <trkpt lat="28.71066" lon="-14.00495">
        <ele>-4</ele>
        <time>2021-07-04 13:34:56</time>
      </trkpt>
      <trkpt lat="28.71064" lon="-14.00498">
        <ele>-4</ele>
        <time>2021-07-04 13:34:57</time>
      </trkpt>
      <trkpt lat="28.71063" lon="-14.005">
        <ele>-3.8</ele>
        <time>2021-07-04 13:34:58</time>
      </trkpt>
      <trkpt lat="28.71061" lon="-14.00503">
        <ele>-3.6</ele>
        <time>2021-07-04 13:34:59</time>
      </trkpt>
      <trkpt lat="28.7106" lon="-14.00506">
        <ele>-3.4</ele>
        <time>2021-07-04 13:35:00</time>
      </trkpt>
      <trkpt lat="28.7106" lon="-14.00509">
        <ele>-3</ele>
        <time>2021-07-04 13:35:01</time>
      </trkpt>
      <trkpt lat="28.71061" lon="-14.00512">
        <ele>-2.8</ele>
        <time>2021-07-04 13:35:02</time>
      </trkpt>
      <trkpt lat="28.71062" lon="-14.00515">
        <ele>-2.8</ele>
        <time>2021-07-04 13:35:03</time>
      </trkpt>
      <trkpt lat="28.71063" lon="-14.00517">
        <ele>-2.4</ele>
        <time>2021-07-04 13:35:04</time>
      </trkpt>
      <trkpt lat="28.71063" lon="-14.0052">
        <ele>-2.2</ele>
        <time>2021-07-04 13:35:05</time>
      </trkpt>
      <trkpt lat="28.71063" lon="-14.00523">
        <ele>-1.8</ele>
        <time>2021-07-04 13:35:06</time>
      </trkpt>
      <trkpt lat="28.71062" lon="-14.00526">
        <ele>-1.6</ele>
        <time>2021-07-04 13:35:07</time>
      </trkpt>
      <trkpt lat="28.71061" lon="-14.00529">
        <ele>-1.2</ele>
        <time>2021-07-04 13:35:08</time>
      </trkpt>
      <trkpt lat="28.7106" lon="-14.00533">
        <ele>-1</ele>
        <time>2021-07-04 13:35:09</time>
      </trkpt>
      <trkpt lat="28.71059" lon="-14.00537">
        <ele>-1</ele>
        <time>2021-07-04 13:35:10</time>
      </trkpt>
      <trkpt lat="28.71057" lon="-14.00541">
        <ele>-0.8</ele>
        <time>2021-07-04 13:35:11</time>
      </trkpt>
      <trkpt lat="28.71055" lon="-14.00544">
        <ele>-0.8</ele>
        <time>2021-07-04 13:35:12</time>
      </trkpt>
      <trkpt lat="28.71052" lon="-14.00546">
        <ele>-0.8</ele>
        <time>2021-07-04 13:35:13</time>
      </trkpt>
      <trkpt lat="28.7105" lon="-14.00549">
        <ele>-0.8</ele>
        <time>2021-07-04 13:35:14</time>
      </trkpt>
      <trkpt lat="28.71048" lon="-14.00552">
        <ele>-0.8</ele>
        <time>2021-07-04 13:35:15</time>
      </trkpt>
      <trkpt lat="28.71046" lon="-14.00556">
        <ele>-0.4</ele>
        <time>2021-07-04 13:35:16</time>
      </trkpt>
      <trkpt lat="28.71044" lon="-14.00559">
        <ele>-0.4</ele>
        <time>2021-07-04 13:35:17</time>
      </trkpt>
      <trkpt lat="28.71043" lon="-14.00563">
        <ele>-0.2</ele>
        <time>2021-07-04 13:35:18</time>
      </trkpt>
      <trkpt lat="28.71043" lon="-14.00566">
        <ele>-0.2</ele>
        <time>2021-07-04 13:35:19</time>
      </trkpt>
      <trkpt lat="28.71043" lon="-14.0057">
        <ele>-0.2</ele>
        <time>2021-07-04 13:35:20</time>
      </trkpt>
      <trkpt lat="28.71045" lon="-14.00574">
        <ele>-0.2</ele>
        <time>2021-07-04 13:35:21</time>
      </trkpt>
      <trkpt lat="28.71047" lon="-14.00578">
        <ele>-0.2</ele>
        <time>2021-07-04 13:35:22</time>
      </trkpt>
      <trkpt lat="28.71049" lon="-14.0058">
        <ele>-0.4</ele>
        <time>2021-07-04 13:35:23</time>
      </trkpt>
      <trkpt lat="28.71052" lon="-14.00583">
        <ele>-0.4</ele>
        <time>2021-07-04 13:35:24</time>
      </trkpt>
      <trkpt lat="28.71053" lon="-14.00586">
        <ele>-0.2</ele>
        <time>2021-07-04 13:35:25</time>
      </trkpt>
      <trkpt lat="28.71054" lon="-14.0059">
        <ele>-0.2</ele>
        <time>2021-07-04 13:35:26</time>
      </trkpt>
      <trkpt lat="28.71054" lon="-14.00594">
        <ele>0.4</ele>
        <time>2021-07-04 13:35:27</time>
      </trkpt>
      <trkpt lat="28.71052" lon="-14.00599">
        <ele>0.4</ele>
        <time>2021-07-04 13:35:28</time>
      </trkpt>
      <trkpt lat="28.7105" lon="-14.00603">
        <ele>0.4</ele>
        <time>2021-07-04 13:35:29</time>
      </trkpt>
      <trkpt lat="28.71049" lon="-14.00609">
        <ele>0.4</ele>
        <time>2021-07-04 13:35:30</time>
      </trkpt>
      <trkpt lat="28.71048" lon="-14.00613">
        <time>2021-07-04 13:35:31</time>
      </trkpt>
      <trkpt lat="28.71046" lon="-14.00619">
        <time>2021-07-04 13:35:32</time>
      </trkpt>
      <trkpt lat="28.71043" lon="-14.00624">
        <ele>-0.2</ele>
        <time>2021-07-04 13:35:33</time>
      </trkpt>
      <trkpt lat="28.71041" lon="-14.00629">
        <ele>-0.2</ele>
        <time>2021-07-04 13:35:34</time>
      </trkpt>
      <trkpt lat="28.7104" lon="-14.00633">
        <ele>-0.6</ele>
        <time>2021-07-04 13:35:35</time>
      </trkpt>
      <trkpt lat="28.71039" lon="-14.00638">
        <ele>-0.6</ele>
        <time>2021-07-04 13:35:36</time>
      </trkpt>
      <trkpt lat="28.71038" lon="-14.00642">
        <ele>-0.6</ele>
        <time>2021-07-04 13:35:37</time>
      </trkpt>
      <trkpt lat="28.71037" lon="-14.00647">
        <ele>-0.6</ele>
        <time>2021-07-04 13:35:38</time>
      </trkpt>
      <trkpt lat="28.71036" lon="-14.00651">
        <ele>-0.6</ele>
        <time>2021-07-04 13:35:39</time>
      </trkpt>
      <trkpt lat="28.71035" lon="-14.00655">
        <ele>-0.6</ele>
        <time>2021-07-04 13:35:40</time>
      </trkpt>
      <trkpt lat="28.71035" lon="-14.00659">
        <ele>-0.6</ele>
        <time>2021-07-04 13:35:41</time>
      </trkpt>
      <trkpt lat="28.71034" lon="-14.00662">
        <ele>-0.6</ele>
        <time>2021-07-04 13:35:42</time>
      </trkpt>
      <trkpt lat="28.71034" lon="-14.00666">
        <ele>-0.6</ele>
        <time>2021-07-04 13:35:43</time>
      </trkpt>
      <trkpt lat="28.71033" lon="-14.00669">
        <ele>-0.6</ele>
        <time>2021-07-04 13:35:44</time>
      </trkpt>
      <trkpt lat="28.71032" lon="-14.00672">
        <ele>-0.6</ele>
        <time>2021-07-04 13:35:45</time>
      </trkpt>
      <trkpt lat="28.71031" lon="-14.00676">
        <ele>-0.2</ele>
        <time>2021-07-04 13:35:46</time>
      </trkpt>
      <trkpt lat="28.7103" lon="-14.0068">
        <ele>-0.2</ele>
        <time>2021-07-04 13:35:47</time>
      </trkpt>
      <trkpt lat="28.71029" lon="-14.00684">
        <time>2021-07-04 13:35:48</time>
      </trkpt>
      <trkpt lat="28.71029" lon="-14.00688">
        <time>2021-07-04 13:35:49</time>
      </trkpt>
      <trkpt lat="28.7103" lon="-14.00692">
        <ele>0.2</ele>
        <time>2021-07-04 13:35:50</time>
      </trkpt>
      <trkpt lat="28.7103" lon="-14.00696">
        <ele>0.2</ele>
        <time>2021-07-04 13:35:51</time>
      </trkpt>
      <trkpt lat="28.71031" lon="-14.007">
        <ele>0.6</ele>
        <time>2021-07-04 13:35:52</time>
      </trkpt>
      <trkpt lat="28.71032" lon="-14.00704">
        <ele>0.8</ele>
        <time>2021-07-04 13:35:53</time>
      </trkpt>
      <trkpt lat="28.71034" lon="-14.00708">
        <ele>1</ele>
        <time>2021-07-04 13:35:54</time>
      </trkpt>
      <trkpt lat="28.71035" lon="-14.00712">
        <ele>1.2</ele>
        <time>2021-07-04 13:35:55</time>
      </trkpt>
      <trkpt lat="28.71035" lon="-14.00717">
        <ele>1.2</ele>
        <time>2021-07-04 13:35:56</time>
      </trkpt>
      <trkpt lat="28.71036" lon="-14.00721">
        <ele>1.6</ele>
        <time>2021-07-04 13:35:57</time>
      </trkpt>
      <trkpt lat="28.71037" lon="-14.00726">
        <ele>2</ele>
        <time>2021-07-04 13:35:58</time>
      </trkpt>
      <trkpt lat="28.71038" lon="-14.0073">
        <ele>2</ele>
        <time>2021-07-04 13:35:59</time>
      </trkpt>
      <trkpt lat="28.7104" lon="-14.00735">
        <ele>2</ele>
        <time>2021-07-04 13:36:00</time>
      </trkpt>
      <trkpt lat="28.71041" lon="-14.00739">
        <ele>2</ele>
        <time>2021-07-04 13:36:01</time>
      </trkpt>
      <trkpt lat="28.71043" lon="-14.00744">
        <ele>2</ele>
        <time>2021-07-04 13:36:02</time>
      </trkpt>
      <trkpt lat="28.71045" lon="-14.00747">
        <ele>2</ele>
        <time>2021-07-04 13:36:03</time>
      </trkpt>
      <trkpt lat="28.71047" lon="-14.00751">
        <ele>2</ele>
        <time>2021-07-04 13:36:04</time>
      </trkpt>
      <trkpt lat="28.71049" lon="-14.00754">
        <ele>1.6</ele>
        <time>2021-07-04 13:36:05</time>
      </trkpt>
      <trkpt lat="28.71051" lon="-14.00757">
        <ele>1.6</ele>
        <time>2021-07-04 13:36:06</time>
      </trkpt>
      <trkpt lat="28.71053" lon="-14.00759">
        <ele>1</ele>
        <time>2021-07-04 13:36:07</time>
      </trkpt>
      <trkpt lat="28.71055" lon="-14.00762">
        <ele>1</ele>
        <time>2021-07-04 13:36:08</time>
      </trkpt>
      <trkpt lat="28.71058" lon="-14.00764">
        <ele>1</ele>
        <time>2021-07-04 13:36:09</time>
      </trkpt>
      <trkpt lat="28.7106" lon="-14.00766">
        <ele>1</ele>
        <time>2021-07-04 13:36:10</time>
      </trkpt>
      <trkpt lat="28.71062" lon="-14.00768">
        <ele>1</ele>
        <time>2021-07-04 13:36:11</time>
      </trkpt>
      <trkpt lat="28.71065" lon="-14.0077">
        <ele>1</ele>
        <time>2021-07-04 13:36:12</time>
      </trkpt>
      <trkpt lat="28.71067" lon="-14.00772">
        <ele>1</ele>
        <time>2021-07-04 13:36:13</time>
      </trkpt>
      <trkpt lat="28.71068" lon="-14.00774">
        <ele>1.6</ele>
        <time>2021-07-04 13:36:14</time>
      </trkpt>
      <trkpt lat="28.71068" lon="-14.00777">
        <ele>2.2</ele>
        <time>2021-07-04 13:36:15</time>
      </trkpt>
      <trkpt lat="28.71068" lon="-14.0078">
        <ele>2.4</ele>
        <time>2021-07-04 13:36:16</time>
      </trkpt>
      <trkpt lat="28.71066" lon="-14.00782">
        <ele>2.6</ele>
        <time>2021-07-04 13:36:17</time>
      </trkpt>
      <trkpt lat="28.71065" lon="-14.00785">
        <ele>2.8</ele>
        <time>2021-07-04 13:36:18</time>
      </trkpt>
      <trkpt lat="28.71065" lon="-14.00788">
        <ele>2.8</ele>
        <time>2021-07-04 13:36:19</time>
      </trkpt>
      <trkpt lat="28.71064" lon="-14.00792">
        <ele>2.8</ele>
        <time>2021-07-04 13:36:20</time>
      </trkpt>
      <trkpt lat="28.71064" lon="-14.00796">
        <ele>2.8</ele>
        <time>2021-07-04 13:36:21</time>
      </trkpt>
      <trkpt lat="28.71064" lon="-14.00799">
        <ele>3</ele>
        <time>2021-07-04 13:36:22</time>
      </trkpt>
      <trkpt lat="28.71064" lon="-14.00801">
        <ele>3</ele>
        <time>2021-07-04 13:36:23</time>
      </trkpt>
      <trkpt lat="28.71064" lon="-14.00804">
        <ele>3.4</ele>
        <time>2021-07-04 13:36:24</time>
      </trkpt>
      <trkpt lat="28.71065" lon="-14.00807">
        <ele>3.4</ele>
        <time>2021-07-04 13:36:25</time>
      </trkpt>
      <trkpt lat="28.71065" lon="-14.00809">
        <ele>3.6</ele>
        <time>2021-07-04 13:36:26</time>
      </trkpt>
      <trkpt lat="28.71065" lon="-14.00812">
        <ele>3.6</ele>
        <time>2021-07-04 13:36:27</time>
      </trkpt>
      <trkpt lat="28.71064" lon="-14.00814">
        <ele>3.2</ele>
        <time>2021-07-04 13:36:28</time>
      </trkpt>
      <trkpt lat="28.71064" lon="-14.00818">
        <ele>3.2</ele>
        <time>2021-07-04 13:36:29</time>
      </trkpt>
      <trkpt lat="28.71064" lon="-14.00821">
        <ele>2.8</ele>
        <time>2021-07-04 13:36:30</time>
      </trkpt>
      <trkpt lat="28.71065" lon="-14.00825">
        <ele>2.4</ele>
        <time>2021-07-04 13:36:31</time>
      </trkpt>
      <trkpt lat="28.71065" lon="-14.00829">
        <ele>2.2</ele>
        <time>2021-07-04 13:36:32</time>
      </trkpt>
      <trkpt lat="28.71065" lon="-14.00834">
        <ele>1.8</ele>
        <time>2021-07-04 13:36:33</time>
      </trkpt>
      <trkpt lat="28.71065" lon="-14.00838">
        <ele>1.4</ele>
        <time>2021-07-04 13:36:34</time>
      </trkpt>
      <trkpt lat="28.71065" lon="-14.00843">
        <ele>1.4</ele>
        <time>2021-07-04 13:36:35</time>
      </trkpt>
      <trkpt lat="28.71065" lon="-14.00847">
        <ele>1.2</ele>
        <time>2021-07-04 13:36:36</time>
      </trkpt>
      <trkpt lat="28.71065" lon="-14.0085">
        <ele>1.2</ele>
        <time>2021-07-04 13:36:37</time>
      </trkpt>
      <trkpt lat="28.71065" lon="-14.00853">
        <ele>0.8</ele>
        <time>2021-07-04 13:36:38</time>
      </trkpt>
      <trkpt lat="28.71065" lon="-14.00857">
        <ele>0.6</ele>
        <time>2021-07-04 13:36:39</time>
      </trkpt>
      <trkpt lat="28.71066" lon="-14.00861">
        <ele>0.4</ele>
        <time>2021-07-04 13:36:40</time>
      </trkpt>
      <trkpt lat="28.71066" lon="-14.00865">
        <ele>0.2</ele>
        <time>2021-07-04 13:36:41</time>
      </trkpt>
      <trkpt lat="28.71066" lon="-14.00869">
        <time>2021-07-04 13:36:42</time>
      </trkpt>
      <trkpt lat="28.71067" lon="-14.00873">
        <time>2021-07-04 13:36:43</time>
      </trkpt>
      <trkpt lat="28.71068" lon="-14.00877">
        <ele>-0.4</ele>
        <time>2021-07-04 13:36:44</time>
      </trkpt>
      <trkpt lat="28.71068" lon="-14.00881">
        <ele>-0.4</ele>
        <time>2021-07-04 13:36:45</time>
      </trkpt>
      <trkpt lat="28.71069" lon="-14.00885">
        <ele>-0.4</ele>
        <time>2021-07-04 13:36:46</time>
      </trkpt>
      <trkpt lat="28.71068" lon="-14.00889">
        <ele>-0.4</ele>
        <time>2021-07-04 13:36:47</time>
      </trkpt>
      <trkpt lat="28.71068" lon="-14.00893">
        <ele>-0.4</ele>
        <time>2021-07-04 13:36:48</time>
      </trkpt>
      <trkpt lat="28.71068" lon="-14.00897">
        <ele>-0.6</ele>
        <time>2021-07-04 13:36:49</time>
      </trkpt>
      <trkpt lat="28.71068" lon="-14.00901">
        <ele>-0.6</ele>
        <time>2021-07-04 13:36:50</time>
      </trkpt>
      <trkpt lat="28.71068" lon="-14.00905">
        <ele>-0.8</ele>
        <time>2021-07-04 13:36:51</time>
      </trkpt>
      <trkpt lat="28.71068" lon="-14.00909">
        <ele>-0.8</ele>
        <time>2021-07-04 13:36:52</time>
      </trkpt>
      <trkpt lat="28.71067" lon="-14.00912">
        <ele>-1.2</ele>
        <time>2021-07-04 13:36:53</time>
      </trkpt>
      <trkpt lat="28.71067" lon="-14.00915">
        <ele>-1.2</ele>
        <time>2021-07-04 13:36:54</time>
      </trkpt>
      <trkpt lat="28.71067" lon="-14.00919">
        <ele>-1.2</ele>
        <time>2021-07-04 13:36:55</time>
      </trkpt>
      <trkpt lat="28.71067" lon="-14.00922">
        <ele>-1.2</ele>
        <time>2021-07-04 13:36:56</time>
      </trkpt>
      <trkpt lat="28.71067" lon="-14.00925">
        <ele>-1.2</ele>
        <time>2021-07-04 13:36:57</time>
      </trkpt>
      <trkpt lat="28.71067" lon="-14.00928">
        <ele>-1.2</ele>
        <time>2021-07-04 13:36:58</time>
      </trkpt>
      <trkpt lat="28.71068" lon="-14.00931">
        <ele>-1.2</ele>
        <time>2021-07-04 13:36:59</time>
      </trkpt>
      <trkpt lat="28.71068" lon="-14.00935">
        <ele>-1.2</ele>
        <time>2021-07-04 13:37:00</time>
      </trkpt>
      <trkpt lat="28.71068" lon="-14.00939">
        <ele>-1.4</ele>
        <time>2021-07-04 13:37:01</time>
      </trkpt>
      <trkpt lat="28.71068" lon="-14.00943">
        <ele>-1.4</ele>
        <time>2021-07-04 13:37:02</time>
      </trkpt>
      <trkpt lat="28.71068" lon="-14.00947">
        <ele>-1.4</ele>
        <time>2021-07-04 13:37:03</time>
      </trkpt>
      <trkpt lat="28.71068" lon="-14.00951">
        <ele>-1.6</ele>
        <time>2021-07-04 13:37:04</time>
      </trkpt>
      <trkpt lat="28.71069" lon="-14.00955">
        <ele>-1.6</ele>
        <time>2021-07-04 13:37:05</time>
      </trkpt>
      <trkpt lat="28.71069" lon="-14.00958">
        <ele>-1.6</ele>
        <time>2021-07-04 13:37:06</time>
      </trkpt>
      <trkpt lat="28.7107" lon="-14.00962">
        <ele>-1.8</ele>
        <time>2021-07-04 13:37:07</time>
      </trkpt>
      <trkpt lat="28.71071" lon="-14.00965">
        <ele>-1.8</ele>
        <time>2021-07-04 13:37:08</time>
      </trkpt>
      <trkpt lat="28.71072" lon="-14.00969">
        <ele>-1.8</ele>
        <time>2021-07-04 13:37:09</time>
      </trkpt>
      <trkpt lat="28.71073" lon="-14.00972">
        <ele>-1.8</ele>
        <time>2021-07-04 13:37:10</time>
      </trkpt>
      <trkpt lat="28.71073" lon="-14.00975">
        <ele>-1.8</ele>
        <time>2021-07-04 13:37:11</time>
      </trkpt>
      <trkpt lat="28.71074" lon="-14.00979">
        <ele>-1.8</ele>
        <time>2021-07-04 13:37:12</time>
      </trkpt>
      <trkpt lat="28.71075" lon="-14.00982">
        <ele>-1.6</ele>
        <time>2021-07-04 13:37:13</time>
      </trkpt>
      <trkpt lat="28.71076" lon="-14.00985">
        <ele>-1.6</ele>
        <time>2021-07-04 13:37:14</time>
      </trkpt>
      <trkpt lat="28.71077" lon="-14.00988">
        <ele>-1.4</ele>
        <time>2021-07-04 13:37:15</time>
      </trkpt>
      <trkpt lat="28.71077" lon="-14.00992">
        <ele>-1.4</ele>
        <time>2021-07-04 13:37:16</time>
      </trkpt>
      <trkpt lat="28.71078" lon="-14.00995">
        <ele>-1.4</ele>
        <time>2021-07-04 13:37:17</time>
      </trkpt>
      <trkpt lat="28.71078" lon="-14.00999">
        <ele>-1.4</ele>
        <time>2021-07-04 13:37:18</time>
      </trkpt>
      <trkpt lat="28.71078" lon="-14.01002">
        <ele>-1.4</ele>
        <time>2021-07-04 13:37:19</time>
      </trkpt>
      <trkpt lat="28.71077" lon="-14.01006">
        <ele>-1.4</ele>
        <time>2021-07-04 13:37:20</time>
      </trkpt>
      <trkpt lat="28.71077" lon="-14.0101">
        <ele>-1</ele>
        <time>2021-07-04 13:37:21</time>
      </trkpt>
      <trkpt lat="28.71076" lon="-14.01013">
        <ele>-1</ele>
        <time>2021-07-04 13:37:22</time>
      </trkpt>
      <trkpt lat="28.71074" lon="-14.01017">
        <ele>-1</ele>
        <time>2021-07-04 13:37:23</time>
      </trkpt>
      <trkpt lat="28.71073" lon="-14.0102">
        <ele>-1</ele>
        <time>2021-07-04 13:37:24</time>
      </trkpt>
      <trkpt lat="28.71071" lon="-14.01023">
        <ele>-1</ele>
        <time>2021-07-04 13:37:25</time>
      </trkpt>
      <trkpt lat="28.7107" lon="-14.01026">
        <ele>-1</ele>
        <time>2021-07-04 13:37:26</time>
      </trkpt>
      <trkpt lat="28.71069" lon="-14.01029">
        <ele>-1</ele>
        <time>2021-07-04 13:37:27</time>
      </trkpt>
      <trkpt lat="28.71069" lon="-14.01033">
        <ele>-1</ele>
        <time>2021-07-04 13:37:28</time>
      </trkpt>
      <trkpt lat="28.7107" lon="-14.01036">
        <ele>-0.8</ele>
        <time>2021-07-04 13:37:29</time>
      </trkpt>
      <trkpt lat="28.7107" lon="-14.0104">
        <ele>-0.8</ele>
        <time>2021-07-04 13:37:30</time>
      </trkpt>
      <trkpt lat="28.71071" lon="-14.01044">
        <ele>-0.8</ele>
        <time>2021-07-04 13:37:31</time>
      </trkpt>
      <trkpt lat="28.71072" lon="-14.01047">
        <ele>-0.6</ele>
        <time>2021-07-04 13:37:32</time>
      </trkpt>
      <trkpt lat="28.71073" lon="-14.01049">
        <ele>-0.6</ele>
        <time>2021-07-04 13:37:33</time>
      </trkpt>
      <trkpt lat="28.71073" lon="-14.01052">
        <ele>-0.2</ele>
        <time>2021-07-04 13:37:34</time>
      </trkpt>
      <trkpt lat="28.71074" lon="-14.01054">
        <ele>-0.2</ele>
        <time>2021-07-04 13:37:35</time>
      </trkpt>
      <trkpt lat="28.71075" lon="-14.01056">
        <time>2021-07-04 13:37:36</time>
      </trkpt>
      <trkpt lat="28.71076" lon="-14.01058">
        <time>2021-07-04 13:37:37</time>
      </trkpt>
      <trkpt lat="28.71078" lon="-14.0106">
        <time>2021-07-04 13:37:38</time>
      </trkpt>
      <trkpt lat="28.71079" lon="-14.01063">
        <ele>0.4</ele>
        <time>2021-07-04 13:37:39</time>
      </trkpt>
      <trkpt lat="28.71081" lon="-14.01065">
        <ele>0.4</ele>
        <time>2021-07-04 13:37:40</time>
      </trkpt>
      <trkpt lat="28.71082" lon="-14.01067">
        <ele>0.4</ele>
        <time>2021-07-04 13:37:41</time>
      </trkpt>
      <trkpt lat="28.71083" lon="-14.0107">
        <ele>0.4</ele>
        <time>2021-07-04 13:37:42</time>
      </trkpt>
      <trkpt lat="28.71084" lon="-14.01072">
        <ele>0.4</ele>
        <time>2021-07-04 13:37:43</time>
      </trkpt>
      <trkpt lat="28.71085" lon="-14.01075">
        <ele>0.4</ele>
        <time>2021-07-04 13:37:44</time>
      </trkpt>
      <trkpt lat="28.71086" lon="-14.01078">
        <ele>-0.2</ele>
        <time>2021-07-04 13:37:45</time>
      </trkpt>
      <trkpt lat="28.71087" lon="-14.01081">
        <ele>-0.4</ele>
        <time>2021-07-04 13:37:46</time>
      </trkpt>
      <trkpt lat="28.71089" lon="-14.01084">
        <ele>-0.4</ele>
        <time>2021-07-04 13:37:47</time>
      </trkpt>
      <trkpt lat="28.7109" lon="-14.01088">
        <ele>-0.8</ele>
        <time>2021-07-04 13:37:48</time>
      </trkpt>
      <trkpt lat="28.71091" lon="-14.01091">
        <ele>-1</ele>
        <time>2021-07-04 13:37:49</time>
      </trkpt>
      <trkpt lat="28.71092" lon="-14.01095">
        <ele>-1.2</ele>
        <time>2021-07-04 13:37:50</time>
      </trkpt>
      <trkpt lat="28.71092" lon="-14.01099">
        <ele>-1.6</ele>
        <time>2021-07-04 13:37:51</time>
      </trkpt>
      <trkpt lat="28.71091" lon="-14.01104">
        <ele>-1.8</ele>
        <time>2021-07-04 13:37:52</time>
      </trkpt>
      <trkpt lat="28.7109" lon="-14.01108">
        <ele>-2</ele>
        <time>2021-07-04 13:37:53</time>
      </trkpt>
      <trkpt lat="28.71088" lon="-14.01111">
        <ele>-2.2</ele>
        <time>2021-07-04 13:37:54</time>
      </trkpt>
      <trkpt lat="28.71087" lon="-14.01115">
        <ele>-2.2</ele>
        <time>2021-07-04 13:37:55</time>
      </trkpt>
      <trkpt lat="28.71085" lon="-14.01119">
        <ele>-2.6</ele>
        <time>2021-07-04 13:37:56</time>
      </trkpt>
      <trkpt lat="28.71084" lon="-14.01123">
        <ele>-3</ele>
        <time>2021-07-04 13:37:57</time>
      </trkpt>
      <trkpt lat="28.71083" lon="-14.01127">
        <ele>-3.2</ele>
        <time>2021-07-04 13:37:58</time>
      </trkpt>
      <trkpt lat="28.71084" lon="-14.01131">
        <ele>-3.6</ele>
        <time>2021-07-04 13:37:59</time>
      </trkpt>
      <trkpt lat="28.71085" lon="-14.01135">
        <ele>-3.6</ele>
        <time>2021-07-04 13:38:00</time>
      </trkpt>
      <trkpt lat="28.71086" lon="-14.01138">
        <ele>-3.8</ele>
        <time>2021-07-04 13:38:01</time>
      </trkpt>
      <trkpt lat="28.71087" lon="-14.01141">
        <ele>-3.8</ele>
        <time>2021-07-04 13:38:02</time>
      </trkpt>
      <trkpt lat="28.71089" lon="-14.01144">
        <ele>-4.2</ele>
        <time>2021-07-04 13:38:03</time>
      </trkpt>
      <trkpt lat="28.71091" lon="-14.01146">
        <ele>-4.2</ele>
        <time>2021-07-04 13:38:04</time>
      </trkpt>
      <trkpt lat="28.71093" lon="-14.01149">
        <ele>-4.2</ele>
        <time>2021-07-04 13:38:05</time>
      </trkpt>
      <trkpt lat="28.71096" lon="-14.01152">
        <ele>-4.2</ele>
        <time>2021-07-04 13:38:06</time>
      </trkpt>
      <trkpt lat="28.71099" lon="-14.01154">
        <ele>-4.2</ele>
        <time>2021-07-04 13:38:07</time>
      </trkpt>
      <trkpt lat="28.71102" lon="-14.01157">
        <ele>-4.2</ele>
        <time>2021-07-04 13:38:08</time>
      </trkpt>
      <trkpt lat="28.71104" lon="-14.01159">
        <ele>-4.4</ele>
        <time>2021-07-04 13:38:09</time>
      </trkpt>
      <trkpt lat="28.71107" lon="-14.01161">
        <ele>-4.4</ele>
        <time>2021-07-04 13:38:10</time>
      </trkpt>
      <trkpt lat="28.7111" lon="-14.01164">
        <ele>-4.2</ele>
        <time>2021-07-04 13:38:11</time>
      </trkpt>
      <trkpt lat="28.71112" lon="-14.01167">
        <ele>-3.8</ele>
        <time>2021-07-04 13:38:12</time>
      </trkpt>
      <trkpt lat="28.71113" lon="-14.01171">
        <ele>-3.6</ele>
        <time>2021-07-04 13:38:13</time>
      </trkpt>
      <trkpt lat="28.71113" lon="-14.01175">
        <ele>-3.6</ele>
        <time>2021-07-04 13:38:14</time>
      </trkpt>
      <trkpt lat="28.71113" lon="-14.01179">
        <ele>-3.4</ele>
        <time>2021-07-04 13:38:15</time>
      </trkpt>
      <trkpt lat="28.71112" lon="-14.01183">
        <ele>-3.4</ele>
        <time>2021-07-04 13:38:16</time>
      </trkpt>
      <trkpt lat="28.71112" lon="-14.01188">
        <ele>-3.2</ele>
        <time>2021-07-04 13:38:17</time>
      </trkpt>
      <trkpt lat="28.71112" lon="-14.01192">
        <ele>-3.2</ele>
        <time>2021-07-04 13:38:18</time>
      </trkpt>
      <trkpt lat="28.71112" lon="-14.01196">
        <ele>-3.2</ele>
        <time>2021-07-04 13:38:19</time>
      </trkpt>
      <trkpt lat="28.71111" lon="-14.012">
        <ele>-3.2</ele>
        <time>2021-07-04 13:38:20</time>
      </trkpt>
      <trkpt lat="28.7111" lon="-14.01204">
        <ele>-3.4</ele>
        <time>2021-07-04 13:38:21</time>
      </trkpt>
      <trkpt lat="28.7111" lon="-14.01207">
        <ele>-3.6</ele>
        <time>2021-07-04 13:38:22</time>
      </trkpt>
      <trkpt lat="28.71108" lon="-14.01211">
        <ele>-3.8</ele>
        <time>2021-07-04 13:38:23</time>
      </trkpt>
      <trkpt lat="28.71107" lon="-14.01213">
        <ele>-4.2</ele>
        <time>2021-07-04 13:38:24</time>
      </trkpt>
      <trkpt lat="28.71105" lon="-14.01216">
        <ele>-4.2</ele>
        <time>2021-07-04 13:38:25</time>
      </trkpt>
      <trkpt lat="28.71103" lon="-14.01219">
        <ele>-4.4</ele>
        <time>2021-07-04 13:38:26</time>
      </trkpt>
      <trkpt lat="28.71101" lon="-14.01222">
        <ele>-4.4</ele>
        <time>2021-07-04 13:38:27</time>
      </trkpt>
      <trkpt lat="28.71099" lon="-14.01225">
        <ele>-4.4</ele>
        <time>2021-07-04 13:38:28</time>
      </trkpt>
      <trkpt lat="28.71096" lon="-14.01227">
        <ele>-4.4</ele>
        <time>2021-07-04 13:38:29</time>
      </trkpt>
      <trkpt lat="28.71094" lon="-14.01228">
        <ele>-4.4</ele>
        <time>2021-07-04 13:38:30</time>
      </trkpt>
      <trkpt lat="28.71091" lon="-14.01229">
        <ele>-4.2</ele>
        <time>2021-07-04 13:38:31</time>
      </trkpt>
      <trkpt lat="28.71088" lon="-14.01229">
        <ele>-4.2</ele>
        <time>2021-07-04 13:38:32</time>
      </trkpt>
      <trkpt lat="28.71085" lon="-14.01229">
        <ele>-3.8</ele>
        <time>2021-07-04 13:38:33</time>
      </trkpt>
      <trkpt lat="28.71082" lon="-14.01228">
        <ele>-3.8</ele>
        <time>2021-07-04 13:38:34</time>
      </trkpt>
      <trkpt lat="28.71079" lon="-14.01228">
        <ele>-3.4</ele>
        <time>2021-07-04 13:38:35</time>
      </trkpt>
      <trkpt lat="28.71075" lon="-14.01227">
        <ele>-3.4</ele>
        <time>2021-07-04 13:38:36</time>
      </trkpt>
      <trkpt lat="28.71072" lon="-14.01226">
        <ele>-3</ele>
        <time>2021-07-04 13:38:37</time>
      </trkpt>
      <trkpt lat="28.71069" lon="-14.01226">
        <ele>-3</ele>
        <time>2021-07-04 13:38:38</time>
      </trkpt>
      <trkpt lat="28.71067" lon="-14.01227">
        <ele>-2.6</ele>
        <time>2021-07-04 13:38:39</time>
      </trkpt>
      <trkpt lat="28.71065" lon="-14.01229">
        <ele>-2.6</ele>
        <time>2021-07-04 13:38:40</time>
      </trkpt>
      <trkpt lat="28.71063" lon="-14.01231">
        <ele>-2.4</ele>
        <time>2021-07-04 13:38:41</time>
      </trkpt>
      <trkpt lat="28.71063" lon="-14.01233">
        <ele>-2.4</ele>
        <time>2021-07-04 13:38:42</time>
      </trkpt>
      <trkpt lat="28.71063" lon="-14.01235">
        <ele>-2</ele>
        <time>2021-07-04 13:38:43</time>
      </trkpt>
      <trkpt lat="28.71063" lon="-14.01237">
        <ele>-1.6</ele>
        <time>2021-07-04 13:38:44</time>
      </trkpt>
      <trkpt lat="28.71063" lon="-14.01239">
        <ele>-1.2</ele>
        <time>2021-07-04 13:38:45</time>
      </trkpt>
      <trkpt lat="28.71064" lon="-14.01241">
        <ele>-0.8</ele>
        <time>2021-07-04 13:38:46</time>
      </trkpt>
      <trkpt lat="28.71064" lon="-14.01243">
        <ele>-0.4</ele>
        <time>2021-07-04 13:38:47</time>
      </trkpt>
      <trkpt lat="28.71063" lon="-14.01245">
        <ele>-0.2</ele>
        <time>2021-07-04 13:38:48</time>
      </trkpt>
      <trkpt lat="28.71063" lon="-14.01247">
        <ele>0.2</ele>
        <time>2021-07-04 13:38:49</time>
      </trkpt>
      <trkpt lat="28.71062" lon="-14.01249">
        <ele>0.4</ele>
        <time>2021-07-04 13:38:50</time>
      </trkpt>
      <trkpt lat="28.71062" lon="-14.01252">
        <ele>0.8</ele>
        <time>2021-07-04 13:38:51</time>
      </trkpt>
      <trkpt lat="28.71062" lon="-14.01255">
        <ele>1</ele>
        <time>2021-07-04 13:38:52</time>
      </trkpt>
      <trkpt lat="28.71061" lon="-14.01258">
        <ele>1.2</ele>
        <time>2021-07-04 13:38:53</time>
      </trkpt>
      <trkpt lat="28.7106" lon="-14.01262">
        <ele>1.2</ele>
        <time>2021-07-04 13:38:54</time>
      </trkpt>
      <trkpt lat="28.71059" lon="-14.01264">
        <ele>1.6</ele>
        <time>2021-07-04 13:38:55</time>
      </trkpt>
      <trkpt lat="28.71059" lon="-14.01267">
        <ele>1.6</ele>
        <time>2021-07-04 13:38:56</time>
      </trkpt>
      <trkpt lat="28.71058" lon="-14.01269">
        <ele>1.6</ele>
        <time>2021-07-04 13:38:57</time>
      </trkpt>
      <trkpt lat="28.71057" lon="-14.01271">
        <ele>1.8</ele>
        <time>2021-07-04 13:38:58</time>
      </trkpt>
      <trkpt lat="28.71057" lon="-14.01274">
        <ele>1.8</ele>
        <time>2021-07-04 13:38:59</time>
      </trkpt>
      <trkpt lat="28.71056" lon="-14.01276">
        <ele>2.2</ele>
        <time>2021-07-04 13:39:00</time>
      </trkpt>
      <trkpt lat="28.71056" lon="-14.01279">
        <ele>2.2</ele>
        <time>2021-07-04 13:39:01</time>
      </trkpt>
      <trkpt lat="28.71056" lon="-14.01282">
        <ele>2.2</ele>
        <time>2021-07-04 13:39:02</time>
      </trkpt>
      <trkpt lat="28.71057" lon="-14.01284">
        <ele>2.2</ele>
        <time>2021-07-04 13:39:03</time>
      </trkpt>
      <trkpt lat="28.71059" lon="-14.01286">
        <ele>2.2</ele>
        <time>2021-07-04 13:39:04</time>
      </trkpt>
      <trkpt lat="28.71061" lon="-14.01287">
        <ele>2.2</ele>
        <time>2021-07-04 13:39:05</time>
      </trkpt>
      <trkpt lat="28.71063" lon="-14.01288">
        <ele>2.4</ele>
        <time>2021-07-04 13:39:06</time>
      </trkpt>
      <trkpt lat="28.71064" lon="-14.0129">
        <ele>2.4</ele>
        <time>2021-07-04 13:39:07</time>
      </trkpt>
      <trkpt lat="28.71065" lon="-14.01291">
        <ele>2.6</ele>
        <time>2021-07-04 13:39:08</time>
      </trkpt>
      <trkpt lat="28.71066" lon="-14.01293">
        <ele>2.6</ele>
        <time>2021-07-04 13:39:09</time>
      </trkpt>
      <trkpt lat="28.71067" lon="-14.01294">
        <ele>3</ele>
        <time>2021-07-04 13:39:10</time>
      </trkpt>
      <trkpt lat="28.71068" lon="-14.01296">
        <ele>3</ele>
        <time>2021-07-04 13:39:11</time>
      </trkpt>
      <trkpt lat="28.71069" lon="-14.01297">
        <ele>3</ele>
        <time>2021-07-04 13:39:12</time>
      </trkpt>
      <trkpt lat="28.7107" lon="-14.01299">
        <ele>3.2</ele>
        <time>2021-07-04 13:39:13</time>
      </trkpt>
      <trkpt lat="28.71072" lon="-14.01301">
        <ele>3.2</ele>
        <time>2021-07-04 13:39:14</time>
      </trkpt>
      <trkpt lat="28.71074" lon="-14.01304">
        <ele>3</ele>
        <time>2021-07-04 13:39:15</time>
      </trkpt>
      <trkpt lat="28.71077" lon="-14.01305">
        <ele>2.6</ele>
        <time>2021-07-04 13:39:16</time>
      </trkpt>
      <trkpt lat="28.71081" lon="-14.01306">
        <ele>2.4</ele>
        <time>2021-07-04 13:39:17</time>
      </trkpt>
      <trkpt lat="28.71084" lon="-14.01306">
        <ele>2</ele>
        <time>2021-07-04 13:39:18</time>
      </trkpt>
      <trkpt lat="28.71088" lon="-14.01307">
        <ele>2</ele>
        <time>2021-07-04 13:39:19</time>
      </trkpt>
      <trkpt lat="28.71091" lon="-14.01308">
        <ele>1.8</ele>
        <time>2021-07-04 13:39:20</time>
      </trkpt>
      <trkpt lat="28.71095" lon="-14.01309">
        <ele>1.6</ele>
        <time>2021-07-04 13:39:21</time>
      </trkpt>
      <trkpt lat="28.71099" lon="-14.0131">
        <ele>1.6</ele>
        <time>2021-07-04 13:39:22</time>
      </trkpt>
      <trkpt lat="28.71104" lon="-14.01311">
        <ele>1.2</ele>
        <time>2021-07-04 13:39:23</time>
      </trkpt>
      <trkpt lat="28.71108" lon="-14.01312">
        <ele>1.2</ele>
        <time>2021-07-04 13:39:24</time>
      </trkpt>
      <trkpt lat="28.71112" lon="-14.01313">
        <ele>1</ele>
        <time>2021-07-04 13:39:25</time>
      </trkpt>
      <trkpt lat="28.71116" lon="-14.01314">
        <ele>1</ele>
        <time>2021-07-04 13:39:26</time>
      </trkpt>
      <trkpt lat="28.7112" lon="-14.01315">
        <ele>1</ele>
        <time>2021-07-04 13:39:27</time>
      </trkpt>
      <trkpt lat="28.71124" lon="-14.01315">
        <ele>1</ele>
        <time>2021-07-04 13:39:28</time>
      </trkpt>
      <trkpt lat="28.71127" lon="-14.01316">
        <ele>0.8</ele>
        <time>2021-07-04 13:39:29</time>
      </trkpt>
      <trkpt lat="28.71131" lon="-14.01317">
        <ele>0.8</ele>
        <time>2021-07-04 13:39:30</time>
      </trkpt>
      <trkpt lat="28.71135" lon="-14.01318">
        <ele>0.8</ele>
        <time>2021-07-04 13:39:31</time>
      </trkpt>
      <trkpt lat="28.71138" lon="-14.01318">
        <ele>0.8</ele>
        <time>2021-07-04 13:39:32</time>
      </trkpt>
      <trkpt lat="28.71141" lon="-14.01319">
        <ele>0.8</ele>
        <time>2021-07-04 13:39:33</time>
      </trkpt>
      <trkpt lat="28.71145" lon="-14.0132">
        <ele>0.8</ele>
        <time>2021-07-04 13:39:34</time>
      </trkpt>
      <trkpt lat="28.71149" lon="-14.0132">
        <ele>0.8</ele>
        <time>2021-07-04 13:39:35</time>
      </trkpt>
      <trkpt lat="28.71152" lon="-14.01321">
        <ele>0.8</ele>
        <time>2021-07-04 13:39:36</time>
      </trkpt>
      <trkpt lat="28.71156" lon="-14.01322">
        <ele>0.8</ele>
        <time>2021-07-04 13:39:37</time>
      </trkpt>
      <trkpt lat="28.71159" lon="-14.01323">
        <ele>0.8</ele>
        <time>2021-07-04 13:39:38</time>
      </trkpt>
      <trkpt lat="28.71163" lon="-14.01323">
        <ele>0.8</ele>
        <time>2021-07-04 13:39:39</time>
      </trkpt>
      <trkpt lat="28.71167" lon="-14.01324">
        <ele>0.8</ele>
        <time>2021-07-04 13:39:40</time>
      </trkpt>
      <trkpt lat="28.71171" lon="-14.01325">
        <ele>0.8</ele>
        <time>2021-07-04 13:39:41</time>
      </trkpt>
      <trkpt lat="28.71175" lon="-14.01326">
        <ele>0.6</ele>
        <time>2021-07-04 13:39:42</time>
      </trkpt>
      <trkpt lat="28.71179" lon="-14.01326">
        <ele>0.6</ele>
        <time>2021-07-04 13:39:43</time>
      </trkpt>
      <trkpt lat="28.71183" lon="-14.01327">
        <ele>0.6</ele>
        <time>2021-07-04 13:39:44</time>
      </trkpt>
      <trkpt lat="28.71187" lon="-14.01328">
        <ele>0.6</ele>
        <time>2021-07-04 13:39:45</time>
      </trkpt>
      <trkpt lat="28.71191" lon="-14.01329">
        <ele>0.6</ele>
        <time>2021-07-04 13:39:46</time>
      </trkpt>
      <trkpt lat="28.71195" lon="-14.01329">
        <ele>0.6</ele>
        <time>2021-07-04 13:39:47</time>
      </trkpt>
      <trkpt lat="28.71199" lon="-14.0133">
        <ele>0.8</ele>
        <time>2021-07-04 13:39:48</time>
      </trkpt>
      <trkpt lat="28.71203" lon="-14.01331">
        <ele>0.8</ele>
        <time>2021-07-04 13:39:49</time>
      </trkpt>
      <trkpt lat="28.71207" lon="-14.01332">
        <ele>0.8</ele>
        <time>2021-07-04 13:39:50</time>
      </trkpt>
      <trkpt lat="28.71211" lon="-14.01332">
        <ele>0.8</ele>
        <time>2021-07-04 13:39:51</time>
      </trkpt>
      <trkpt lat="28.71215" lon="-14.01333">
        <ele>0.6</ele>
        <time>2021-07-04 13:39:52</time>
      </trkpt>
      <trkpt lat="28.71219" lon="-14.01334">
        <ele>0.4</ele>
        <time>2021-07-04 13:39:53</time>
      </trkpt>
      <trkpt lat="28.71223" lon="-14.01334">
        <ele>0.4</ele>
        <time>2021-07-04 13:39:54</time>
      </trkpt>
      <trkpt lat="28.71226" lon="-14.01335">
        <ele>0.4</ele>
        <time>2021-07-04 13:39:55</time>
      </trkpt>
      <trkpt lat="28.7123" lon="-14.01336">
        <time>2021-07-04 13:39:56</time>
      </trkpt>
      <trkpt lat="28.71234" lon="-14.01336">
        <time>2021-07-04 13:39:57</time>
      </trkpt>
      <trkpt lat="28.71239" lon="-14.01337">
        <time>2021-07-04 13:39:58</time>
      </trkpt>
      <trkpt lat="28.71242" lon="-14.01338">
        <time>2021-07-04 13:39:59</time>
      </trkpt>
      <trkpt lat="28.71247" lon="-14.01339">
        <ele>0.2</ele>
        <time>2021-07-04 13:40:00</time>
      </trkpt>
      <trkpt lat="28.71251" lon="-14.0134">
        <ele>0.2</ele>
        <time>2021-07-04 13:40:01</time>
      </trkpt>
      <trkpt lat="28.71255" lon="-14.0134">
        <ele>0.6</ele>
        <time>2021-07-04 13:40:02</time>
      </trkpt>
      <trkpt lat="28.7126" lon="-14.01341">
        <ele>0.6</ele>
        <time>2021-07-04 13:40:03</time>
      </trkpt>
      <trkpt lat="28.71264" lon="-14.01342">
        <ele>0.6</ele>
        <time>2021-07-04 13:40:04</time>
      </trkpt>
      <trkpt lat="28.71268" lon="-14.01343">
        <ele>0.2</ele>
        <time>2021-07-04 13:40:05</time>
      </trkpt>
      <trkpt lat="28.71272" lon="-14.01343">
        <ele>0.2</ele>
        <time>2021-07-04 13:40:06</time>
      </trkpt>
      <trkpt lat="28.71276" lon="-14.01344">
        <time>2021-07-04 13:40:07</time>
      </trkpt>
      <trkpt lat="28.7128" lon="-14.01344">
        <time>2021-07-04 13:40:08</time>
      </trkpt>
      <trkpt lat="28.71285" lon="-14.01345">
        <ele>-0.4</ele>
        <time>2021-07-04 13:40:09</time>
      </trkpt>
      <trkpt lat="28.71289" lon="-14.01346">
        <ele>-0.4</ele>
        <time>2021-07-04 13:40:10</time>
      </trkpt>
      <trkpt lat="28.71294" lon="-14.01347">
        <ele>-0.4</ele>
        <time>2021-07-04 13:40:11</time>
      </trkpt>
      <trkpt lat="28.71298" lon="-14.01347">
        <ele>-0.4</ele>
        <time>2021-07-04 13:40:12</time>
      </trkpt>
      <trkpt lat="28.71303" lon="-14.01349">
        <ele>-0.8</ele>
        <time>2021-07-04 13:40:13</time>
      </trkpt>
      <trkpt lat="28.71307" lon="-14.0135">
        <ele>-0.8</ele>
        <time>2021-07-04 13:40:14</time>
      </trkpt>
      <trkpt lat="28.71311" lon="-14.01352">
        <ele>-1</ele>
        <time>2021-07-04 13:40:15</time>
      </trkpt>
      <trkpt lat="28.71315" lon="-14.01354">
        <ele>-1</ele>
        <time>2021-07-04 13:40:16</time>
      </trkpt>
      <trkpt lat="28.71319" lon="-14.01356">
        <ele>-1</ele>
        <time>2021-07-04 13:40:17</time>
      </trkpt>
      <trkpt lat="28.71322" lon="-14.01359">
        <ele>-1</ele>
        <time>2021-07-04 13:40:18</time>
      </trkpt>
      <trkpt lat="28.71326" lon="-14.01362">
        <ele>-1</ele>
        <time>2021-07-04 13:40:19</time>
      </trkpt>
      <trkpt lat="28.7133" lon="-14.01364">
        <ele>-1.4</ele>
        <time>2021-07-04 13:40:20</time>
      </trkpt>
      <trkpt lat="28.71333" lon="-14.01368">
        <ele>-1.4</ele>
        <time>2021-07-04 13:40:21</time>
      </trkpt>
      <trkpt lat="28.71336" lon="-14.01371">
        <ele>-1.6</ele>
        <time>2021-07-04 13:40:22</time>
      </trkpt>
      <trkpt lat="28.7134" lon="-14.01374">
        <ele>-1.8</ele>
        <time>2021-07-04 13:40:23</time>
      </trkpt>
      <trkpt lat="28.71343" lon="-14.01376">
        <ele>-2.2</ele>
        <time>2021-07-04 13:40:24</time>
      </trkpt>
      <trkpt lat="28.71347" lon="-14.01379">
        <ele>-2.4</ele>
        <time>2021-07-04 13:40:25</time>
      </trkpt>
      <trkpt lat="28.71351" lon="-14.01382">
        <ele>-2.8</ele>
        <time>2021-07-04 13:40:26</time>
      </trkpt>
      <trkpt lat="28.71354" lon="-14.01386">
        <ele>-3</ele>
        <time>2021-07-04 13:40:27</time>
      </trkpt>
      <trkpt lat="28.71357" lon="-14.01389">
        <ele>-3.2</ele>
        <time>2021-07-04 13:40:28</time>
      </trkpt>
      <trkpt lat="28.7136" lon="-14.01391">
        <ele>-3.2</ele>
        <time>2021-07-04 13:40:29</time>
      </trkpt>
      <trkpt lat="28.71364" lon="-14.01394">
        <ele>-3.4</ele>
        <time>2021-07-04 13:40:30</time>
      </trkpt>
      <trkpt lat="28.71367" lon="-14.01397">
        <ele>-3.4</ele>
        <time>2021-07-04 13:40:31</time>
      </trkpt>
      <trkpt lat="28.7137" lon="-14.014">
        <ele>-3.4</ele>
        <time>2021-07-04 13:40:32</time>
      </trkpt>
      <trkpt lat="28.71373" lon="-14.01402">
        <ele>-3.4</ele>
        <time>2021-07-04 13:40:33</time>
      </trkpt>
      <trkpt lat="28.71377" lon="-14.01405">
        <ele>-3.4</ele>
        <time>2021-07-04 13:40:34</time>
      </trkpt>
      <trkpt lat="28.7138" lon="-14.01407">
        <ele>-3.4</ele>
        <time>2021-07-04 13:40:35</time>
      </trkpt>
      <trkpt lat="28.71383" lon="-14.0141">
        <ele>-3.4</ele>
        <time>2021-07-04 13:40:36</time>
      </trkpt>
      <trkpt lat="28.71387" lon="-14.01413">
        <ele>-3.4</ele>
        <time>2021-07-04 13:40:37</time>
      </trkpt>
      <trkpt lat="28.7139" lon="-14.01415">
        <ele>-3.4</ele>
        <time>2021-07-04 13:40:38</time>
      </trkpt>
      <trkpt lat="28.71393" lon="-14.01417">
        <ele>-3.4</ele>
        <time>2021-07-04 13:40:39</time>
      </trkpt>
      <trkpt lat="28.71397" lon="-14.01419">
        <ele>-3.4</ele>
        <time>2021-07-04 13:40:40</time>
      </trkpt>
      <trkpt lat="28.71401" lon="-14.0142">
        <ele>-3.4</ele>
        <time>2021-07-04 13:40:41</time>
      </trkpt>
      <trkpt lat="28.71404" lon="-14.01421">
        <ele>-3.4</ele>
        <time>2021-07-04 13:40:42</time>
      </trkpt>
      <trkpt lat="28.71408" lon="-14.01422">
        <ele>-3.2</ele>
        <time>2021-07-04 13:40:43</time>
      </trkpt>
      <trkpt lat="28.71412" lon="-14.01423">
        <ele>-3</ele>
        <time>2021-07-04 13:40:44</time>
      </trkpt>
      <trkpt lat="28.71415" lon="-14.01424">
        <ele>-3</ele>
        <time>2021-07-04 13:40:45</time>
      </trkpt>
      <trkpt lat="28.71419" lon="-14.01424">
        <ele>-2.8</ele>
        <time>2021-07-04 13:40:46</time>
      </trkpt>
      <trkpt lat="28.71423" lon="-14.01424">
        <ele>-2.8</ele>
        <time>2021-07-04 13:40:47</time>
      </trkpt>
      <trkpt lat="28.71426" lon="-14.01424">
        <ele>-2.8</ele>
        <time>2021-07-04 13:40:48</time>
      </trkpt>
      <trkpt lat="28.7143" lon="-14.01425">
        <ele>-2.8</ele>
        <time>2021-07-04 13:40:49</time>
      </trkpt>
      <trkpt lat="28.71434" lon="-14.01424">
        <ele>-2.8</ele>
        <time>2021-07-04 13:40:50</time>
      </trkpt>
      <trkpt lat="28.71437" lon="-14.01424">
        <ele>-2.4</ele>
        <time>2021-07-04 13:40:51</time>
      </trkpt>
      <trkpt lat="28.71441" lon="-14.01424">
        <ele>-2.4</ele>
        <time>2021-07-04 13:40:52</time>
      </trkpt>
      <trkpt lat="28.71445" lon="-14.01423">
        <ele>-2.4</ele>
        <time>2021-07-04 13:40:53</time>
      </trkpt>
      <trkpt lat="28.71449" lon="-14.01423">
        <ele>-2.4</ele>
        <time>2021-07-04 13:40:54</time>
      </trkpt>
      <trkpt lat="28.71452" lon="-14.01422">
        <ele>-2.4</ele>
        <time>2021-07-04 13:40:55</time>
      </trkpt>
      <trkpt lat="28.71456" lon="-14.0142">
        <ele>-2.2</ele>
        <time>2021-07-04 13:40:56</time>
      </trkpt>
      <trkpt lat="28.7146" lon="-14.01419">
        <ele>-2.2</ele>
        <time>2021-07-04 13:40:57</time>
      </trkpt>
      <trkpt lat="28.71464" lon="-14.01418">
        <ele>-2.2</ele>
        <time>2021-07-04 13:40:58</time>
      </trkpt>
      <trkpt lat="28.71467" lon="-14.01416">
        <ele>-2.2</ele>
        <time>2021-07-04 13:40:59</time>
      </trkpt>
      <trkpt lat="28.71471" lon="-14.01415">
        <ele>-2.2</ele>
        <time>2021-07-04 13:41:00</time>
      </trkpt>
      <trkpt lat="28.71475" lon="-14.01413">
        <ele>-2.2</ele>
        <time>2021-07-04 13:41:01</time>
      </trkpt>
      <trkpt lat="28.71478" lon="-14.01411">
        <ele>-2.2</ele>
        <time>2021-07-04 13:41:02</time>
      </trkpt>
      <trkpt lat="28.71481" lon="-14.01409">
        <ele>-2.2</ele>
        <time>2021-07-04 13:41:03</time>
      </trkpt>
      <trkpt lat="28.71484" lon="-14.01407">
        <ele>-2.2</ele>
        <time>2021-07-04 13:41:04</time>
      </trkpt>
      <trkpt lat="28.71487" lon="-14.01404">
        <ele>-2</ele>
        <time>2021-07-04 13:41:05</time>
      </trkpt>
      <trkpt lat="28.7149" lon="-14.01402">
        <ele>-2</ele>
        <time>2021-07-04 13:41:06</time>
      </trkpt>
      <trkpt lat="28.71492" lon="-14.01399">
        <ele>-2</ele>
        <time>2021-07-04 13:41:07</time>
      </trkpt>
      <trkpt lat="28.71495" lon="-14.01397">
        <ele>-2</ele>
        <time>2021-07-04 13:41:08</time>
      </trkpt>
      <trkpt lat="28.71498" lon="-14.01395">
        <ele>-1.8</ele>
        <time>2021-07-04 13:41:09</time>
      </trkpt>
      <trkpt lat="28.71501" lon="-14.01393">
        <ele>-1.8</ele>
        <time>2021-07-04 13:41:10</time>
      </trkpt>
      <trkpt lat="28.71503" lon="-14.01391">
        <ele>-1.8</ele>
        <time>2021-07-04 13:41:11</time>
      </trkpt>
      <trkpt lat="28.71506" lon="-14.0139">
        <ele>-1.8</ele>
        <time>2021-07-04 13:41:12</time>
      </trkpt>
      <trkpt lat="28.71509" lon="-14.01388">
        <ele>-1.8</ele>
        <time>2021-07-04 13:41:13</time>
      </trkpt>
      <trkpt lat="28.71511" lon="-14.01387">
        <ele>-1.8</ele>
        <time>2021-07-04 13:41:14</time>
      </trkpt>
      <trkpt lat="28.71514" lon="-14.01386">
        <ele>-1.8</ele>
        <time>2021-07-04 13:41:15</time>
      </trkpt>
      <trkpt lat="28.71516" lon="-14.01385">
        <ele>-1.8</ele>
        <time>2021-07-04 13:41:16</time>
      </trkpt>
      <trkpt lat="28.71518" lon="-14.01384">
        <ele>-1.8</ele>
        <time>2021-07-04 13:41:17</time>
      </trkpt>
      <trkpt lat="28.7152" lon="-14.01383">
        <ele>-1.8</ele>
        <time>2021-07-04 13:41:18</time>
      </trkpt>
      <trkpt lat="28.71522" lon="-14.01383">
        <ele>-1.8</ele>
        <time>2021-07-04 13:41:19</time>
      </trkpt>
      <trkpt lat="28.71524" lon="-14.01382">
        <ele>-1.4</ele>
        <time>2021-07-04 13:41:20</time>
      </trkpt>
      <trkpt lat="28.71525" lon="-14.01381">
        <ele>-1.4</ele>
        <time>2021-07-04 13:41:21</time>
      </trkpt>
      <trkpt lat="28.71526" lon="-14.01379">
        <ele>-1.4</ele>
        <time>2021-07-04 13:41:22</time>
      </trkpt>
      <trkpt lat="28.71527" lon="-14.01377">
        <ele>-1.4</ele>
        <time>2021-07-04 13:41:23</time>
      </trkpt>
      <trkpt lat="28.71528" lon="-14.01375">
        <ele>-1.4</ele>
        <time>2021-07-04 13:41:24</time>
      </trkpt>
      <trkpt lat="28.7153" lon="-14.01373">
        <ele>-1.4</ele>
        <time>2021-07-04 13:41:25</time>
      </trkpt>
      <trkpt lat="28.71531" lon="-14.01371">
        <ele>-1.4</ele>
        <time>2021-07-04 13:41:26</time>
      </trkpt>
      <trkpt lat="28.71532" lon="-14.01369">
        <ele>-1.8</ele>
        <time>2021-07-04 13:41:27</time>
      </trkpt>
      <trkpt lat="28.71533" lon="-14.01367">
        <ele>-1.8</ele>
        <time>2021-07-04 13:41:28</time>
      </trkpt>
      <trkpt lat="28.71538" lon="-14.01359">
        <ele>-1.8</ele>
        <time>2021-07-04 13:41:29</time>
      </trkpt>
      <trkpt lat="28.7154" lon="-14.01359">
        <ele>-1.8</ele>
        <time>2021-07-04 13:41:30</time>
      </trkpt>
      <trkpt lat="28.71541" lon="-14.01358">
        <ele>-1.8</ele>
        <time>2021-07-04 13:41:31</time>
      </trkpt>
      <trkpt lat="28.71542" lon="-14.01357">
        <ele>-1.8</ele>
        <time>2021-07-04 13:41:32</time>
      </trkpt>
      <trkpt lat="28.71544" lon="-14.01357">
        <ele>-1.4</ele>
        <time>2021-07-04 13:41:33</time>
      </trkpt>
      <trkpt lat="28.71545" lon="-14.01358">
        <ele>-1</ele>
        <time>2021-07-04 13:41:34</time>
      </trkpt>
      <trkpt lat="28.71546" lon="-14.0136">
        <ele>-0.6</ele>
        <time>2021-07-04 13:41:35</time>
      </trkpt>
      <trkpt lat="28.71547" lon="-14.01361">
        <ele>-0.2</ele>
        <time>2021-07-04 13:41:36</time>
      </trkpt>
      <trkpt lat="28.71549" lon="-14.01362">
        <ele>-0.2</ele>
        <time>2021-07-04 13:41:37</time>
      </trkpt>
      <trkpt lat="28.71551" lon="-14.01362">
        <time>2021-07-04 13:41:38</time>
      </trkpt>
      <trkpt lat="28.71552" lon="-14.01361">
        <time>2021-07-04 13:41:39</time>
      </trkpt>
      <trkpt lat="28.71553" lon="-14.01359">
        <time>2021-07-04 13:41:40</time>
      </trkpt>
      <trkpt lat="28.71553" lon="-14.01358">
        <ele>-0.4</ele>
        <time>2021-07-04 13:41:41</time>
      </trkpt>
      <trkpt lat="28.71553" lon="-14.01358">
        <ele>-0.6</ele>
        <time>2021-07-04 13:41:42</time>
      </trkpt>
      <trkpt lat="28.71552" lon="-14.01358">
        <ele>-0.8</ele>
        <time>2021-07-04 13:41:43</time>
      </trkpt>
      <trkpt lat="28.71552" lon="-14.01358">
        <ele>-1</ele>
        <time>2021-07-04 13:41:44</time>
      </trkpt>
      <trkpt lat="28.71553" lon="-14.01356">
        <ele>-1</ele>
        <time>2021-07-04 13:41:45</time>
      </trkpt>
      <trkpt lat="28.71552" lon="-14.01354">
        <ele>-1</ele>
        <time>2021-07-04 13:41:46</time>
      </trkpt>
      <trkpt lat="28.71552" lon="-14.01352">
        <ele>-1</ele>
        <time>2021-07-04 13:41:47</time>
      </trkpt>
      <trkpt lat="28.71551" lon="-14.0135">
        <ele>-1</ele>
        <time>2021-07-04 13:41:48</time>
      </trkpt>
      <trkpt lat="28.71551" lon="-14.01349">
        <ele>-1.4</ele>
        <time>2021-07-04 13:41:49</time>
      </trkpt>
      <trkpt lat="28.7155" lon="-14.01347">
        <ele>-1.6</ele>
        <time>2021-07-04 13:41:50</time>
      </trkpt>
      <trkpt lat="28.71549" lon="-14.01347">
        <ele>-1.6</ele>
        <time>2021-07-04 13:41:51</time>
      </trkpt>
      <trkpt lat="28.71549" lon="-14.01347">
        <ele>-2</ele>
        <time>2021-07-04 13:41:52</time>
      </trkpt>
      <trkpt lat="28.71549" lon="-14.01346">
        <ele>-2</ele>
        <time>2021-07-04 13:41:53</time>
      </trkpt>
      <trkpt lat="28.71549" lon="-14.01348">
        <ele>-2.2</ele>
        <time>2021-07-04 13:41:54</time>
      </trkpt>
      <trkpt lat="28.71548" lon="-14.01349">
        <ele>-2</ele>
        <time>2021-07-04 13:41:55</time>
      </trkpt>
      <trkpt lat="28.71548" lon="-14.0135">
        <ele>-2</ele>
        <time>2021-07-04 13:41:56</time>
      </trkpt>
      <trkpt lat="28.71547" lon="-14.0135">
        <ele>-1.8</ele>
        <time>2021-07-04 13:41:57</time>
      </trkpt>
      <trkpt lat="28.71547" lon="-14.0135">
        <ele>-1.8</ele>
        <time>2021-07-04 13:41:58</time>
      </trkpt>
      <trkpt lat="28.71546" lon="-14.01349">
        <ele>-1.8</ele>
        <time>2021-07-04 13:41:59</time>
      </trkpt>
      <trkpt lat="28.71545" lon="-14.01348">
        <ele>-1.8</ele>
        <time>2021-07-04 13:42:00</time>
      </trkpt>
      <trkpt lat="28.71545" lon="-14.01347">
        <ele>-1.8</ele>
        <time>2021-07-04 13:42:01</time>
      </trkpt>
      <trkpt lat="28.71545" lon="-14.01346">
        <ele>-1.8</ele>
        <time>2021-07-04 13:42:02</time>
      </trkpt>
      <trkpt lat="28.71545" lon="-14.01345">
        <ele>-2</ele>
        <time>2021-07-04 13:42:03</time>
      </trkpt>
      <trkpt lat="28.71545" lon="-14.01345">
        <ele>-2.2</ele>
        <time>2021-07-04 13:42:04</time>
      </trkpt>
      <trkpt lat="28.71545" lon="-14.01345">
        <ele>-2.2</ele>
        <time>2021-07-04 13:42:05</time>
      </trkpt>
      <trkpt lat="28.71547" lon="-14.01347">
        <ele>-1.2</ele>
        <time>2021-07-04 13:42:06</time>
      </trkpt>
      <trkpt lat="28.71547" lon="-14.01348">
        <ele>-1.2</ele>
        <time>2021-07-04 13:42:07</time>
      </trkpt>
      <trkpt lat="28.71547" lon="-14.0135">
        <ele>-1.2</ele>
        <time>2021-07-04 13:42:08</time>
      </trkpt>
      <trkpt lat="28.71546" lon="-14.01351">
        <ele>-1.2</ele>
        <time>2021-07-04 13:42:09</time>
      </trkpt>
      <trkpt lat="28.71546" lon="-14.01352">
        <ele>-1.2</ele>
        <time>2021-07-04 13:42:10</time>
      </trkpt>
      <trkpt lat="28.71545" lon="-14.01352">
        <ele>-1.4</ele>
        <time>2021-07-04 13:42:11</time>
      </trkpt>
      <trkpt lat="28.71545" lon="-14.01352">
        <ele>-1.4</ele>
        <time>2021-07-04 13:42:12</time>
      </trkpt>
      <trkpt lat="28.71545" lon="-14.01352">
        <ele>-1.4</ele>
        <time>2021-07-04 13:42:45</time>
      </trkpt>
      <trkpt lat="28.71545" lon="-14.01352">
        <ele>-1.4</ele>
        <time>2021-07-04 13:42:46</time>
      </trkpt>
      <trkpt lat="28.71545" lon="-14.01353">
        <ele>-0.8</ele>
        <time>2021-07-04 13:42:47</time>
      </trkpt>
      <trkpt lat="28.71544" lon="-14.01354">
        <ele>-0.8</ele>
        <time>2021-07-04 13:42:48</time>
      </trkpt>
      <trkpt lat="28.71543" lon="-14.01355">
        <ele>-0.8</ele>
        <time>2021-07-04 13:42:49</time>
      </trkpt>
      <trkpt lat="28.71542" lon="-14.01357">
        <ele>-1</ele>
        <time>2021-07-04 13:42:50</time>
      </trkpt>
      <trkpt lat="28.7154" lon="-14.01358">
        <ele>-1</ele>
        <time>2021-07-04 13:42:51</time>
      </trkpt>
      <trkpt lat="28.71539" lon="-14.0136">
        <ele>-1.2</ele>
        <time>2021-07-04 13:42:52</time>
      </trkpt>
      <trkpt lat="28.71537" lon="-14.01362">
        <ele>-1.2</ele>
        <time>2021-07-04 13:42:53</time>
      </trkpt>
      <trkpt lat="28.71536" lon="-14.01363">
        <ele>-1.6</ele>
        <time>2021-07-04 13:42:54</time>
      </trkpt>
      <trkpt lat="28.71535" lon="-14.01365">
        <ele>-1.6</ele>
        <time>2021-07-04 13:43:18</time>
      </trkpt>
      <trkpt lat="28.71534" lon="-14.01367">
        <ele>-2</ele>
        <time>2021-07-04 13:43:19</time>
      </trkpt>
      <trkpt lat="28.71533" lon="-14.01369">
        <ele>-2</ele>
        <time>2021-07-04 13:43:20</time>
      </trkpt>
      <trkpt lat="28.71532" lon="-14.01371">
        <ele>-2.2</ele>
        <time>2021-07-04 13:43:21</time>
      </trkpt>
      <trkpt lat="28.7153" lon="-14.01373">
        <ele>-2.2</ele>
        <time>2021-07-04 13:43:22</time>
      </trkpt>
      <trkpt lat="28.71529" lon="-14.01375">
        <ele>-2.2</ele>
        <time>2021-07-04 13:43:23</time>
      </trkpt>
      <trkpt lat="28.71528" lon="-14.01377">
        <ele>-2.2</ele>
        <time>2021-07-04 13:43:24</time>
      </trkpt>
      <trkpt lat="28.71527" lon="-14.01378">
        <ele>-2.2</ele>
        <time>2021-07-04 13:43:25</time>
      </trkpt>
      <trkpt lat="28.71526" lon="-14.0138">
        <ele>-2.2</ele>
        <time>2021-07-04 13:43:26</time>
      </trkpt>
      <trkpt lat="28.71525" lon="-14.01381">
        <ele>-2.2</ele>
        <time>2021-07-04 13:43:27</time>
      </trkpt>
      <trkpt lat="28.71524" lon="-14.01381">
        <ele>-2.4</ele>
        <time>2021-07-04 13:43:28</time>
      </trkpt>
      <trkpt lat="28.71523" lon="-14.01382">
        <ele>-2.4</ele>
        <time>2021-07-04 13:43:29</time>
      </trkpt>
      <trkpt lat="28.71521" lon="-14.01384">
        <ele>-2.4</ele>
        <time>2021-07-04 13:49:03</time>
      </trkpt>
      <trkpt lat="28.7152" lon="-14.01385">
        <ele>-2.4</ele>
        <time>2021-07-04 13:49:04</time>
      </trkpt>
      <trkpt lat="28.71519" lon="-14.01388">
        <ele>-2.4</ele>
        <time>2021-07-04 13:49:05</time>
      </trkpt>
      <trkpt lat="28.71518" lon="-14.0139">
        <ele>-2.4</ele>
        <time>2021-07-04 13:49:06</time>
      </trkpt>
      <trkpt lat="28.71518" lon="-14.01393">
        <ele>-2.4</ele>
        <time>2021-07-04 13:49:07</time>
      </trkpt>
      <trkpt lat="28.71517" lon="-14.01395">
        <ele>-2.4</ele>
        <time>2021-07-04 13:49:08</time>
      </trkpt>
      <trkpt lat="28.71517" lon="-14.01397">
        <ele>-2.4</ele>
        <time>2021-07-04 13:49:09</time>
      </trkpt>
      <trkpt lat="28.71516" lon="-14.014">
        <ele>-2.8</ele>
        <time>2021-07-04 13:49:10</time>
      </trkpt>
      <trkpt lat="28.71514" lon="-14.01402">
        <ele>-2.8</ele>
        <time>2021-07-04 13:49:11</time>
      </trkpt>
      <trkpt lat="28.71513" lon="-14.01404">
        <ele>-3</ele>
        <time>2021-07-04 13:49:34</time>
      </trkpt>
      <trkpt lat="28.71511" lon="-14.01406">
        <ele>-3</ele>
        <time>2021-07-04 13:49:35</time>
      </trkpt>
      <trkpt lat="28.71509" lon="-14.01407">
        <ele>-3</ele>
        <time>2021-07-04 13:49:36</time>
      </trkpt>
      <trkpt lat="28.71507" lon="-14.01409">
        <ele>-3</ele>
        <time>2021-07-04 13:49:37</time>
      </trkpt>
      <trkpt lat="28.71505" lon="-14.0141">
        <ele>-3</ele>
        <time>2021-07-04 13:49:38</time>
      </trkpt>
      <trkpt lat="28.71503" lon="-14.01411">
        <ele>-3</ele>
        <time>2021-07-04 13:49:39</time>
      </trkpt>
      <trkpt lat="28.71501" lon="-14.01412">
        <ele>-3</ele>
        <time>2021-07-04 13:49:40</time>
      </trkpt>
      <trkpt lat="28.715" lon="-14.01412">
        <ele>-3</ele>
        <time>2021-07-04 13:49:41</time>
      </trkpt>
      <trkpt lat="28.71499" lon="-14.01412">
        <ele>-3</ele>
        <time>2021-07-04 13:49:42</time>
      </trkpt>
      <trkpt lat="28.71499" lon="-14.01412">
        <ele>-3</ele>
        <time>2021-07-04 13:49:43</time>
      </trkpt>
      <trkpt lat="28.71499" lon="-14.01412">
        <ele>-2.8</ele>
        <time>2021-07-04 13:49:44</time>
      </trkpt>
      <trkpt lat="28.71498" lon="-14.01412">
        <ele>-2.2</ele>
        <time>2021-07-04 13:49:45</time>
      </trkpt>
      <trkpt lat="28.71496" lon="-14.01412">
        <ele>-2.2</ele>
        <time>2021-07-04 13:49:46</time>
      </trkpt>
      <trkpt lat="28.71494" lon="-14.01412">
        <ele>-2.2</ele>
        <time>2021-07-04 13:49:47</time>
      </trkpt>
      <trkpt lat="28.71491" lon="-14.01413">
        <ele>-2.4</ele>
        <time>2021-07-04 13:49:48</time>
      </trkpt>
      <trkpt lat="28.71487" lon="-14.01414">
        <ele>-2.4</ele>
        <time>2021-07-04 13:49:49</time>
      </trkpt>
      <trkpt lat="28.71484" lon="-14.01415">
        <ele>-2.6</ele>
        <time>2021-07-04 13:49:50</time>
      </trkpt>
      <trkpt lat="28.71481" lon="-14.01416">
        <ele>-2.6</ele>
        <time>2021-07-04 13:49:51</time>
      </trkpt>
      <trkpt lat="28.71478" lon="-14.01417">
        <ele>-2.6</ele>
        <time>2021-07-04 13:49:52</time>
      </trkpt>
      <trkpt lat="28.71474" lon="-14.01418">
        <ele>-2.6</ele>
        <time>2021-07-04 13:49:53</time>
      </trkpt>
      <trkpt lat="28.71471" lon="-14.0142">
        <ele>-3</ele>
        <time>2021-07-04 13:49:54</time>
      </trkpt>
      <trkpt lat="28.71467" lon="-14.01421">
        <ele>-3</ele>
        <time>2021-07-04 13:49:55</time>
      </trkpt>
      <trkpt lat="28.71463" lon="-14.01422">
        <ele>-3</ele>
        <time>2021-07-04 13:49:56</time>
      </trkpt>
      <trkpt lat="28.71458" lon="-14.01424">
        <ele>-3</ele>
        <time>2021-07-04 13:49:57</time>
      </trkpt>
      <trkpt lat="28.71454" lon="-14.01425">
        <ele>-3</ele>
        <time>2021-07-04 13:49:58</time>
      </trkpt>
      <trkpt lat="28.7145" lon="-14.01426">
        <ele>-3</ele>
        <time>2021-07-04 13:49:59</time>
      </trkpt>
      <trkpt lat="28.71446" lon="-14.01426">
        <ele>-3</ele>
        <time>2021-07-04 13:50:00</time>
      </trkpt>
      <trkpt lat="28.71442" lon="-14.01427">
        <ele>-3.2</ele>
        <time>2021-07-04 13:50:01</time>
      </trkpt>
      <trkpt lat="28.71437" lon="-14.01427">
        <ele>-3.2</ele>
        <time>2021-07-04 13:50:02</time>
      </trkpt>
      <trkpt lat="28.71433" lon="-14.01427">
        <ele>-3.2</ele>
        <time>2021-07-04 13:50:03</time>
      </trkpt>
      <trkpt lat="28.71429" lon="-14.01427">
        <ele>-3.2</ele>
        <time>2021-07-04 13:50:04</time>
      </trkpt>
      <trkpt lat="28.71425" lon="-14.01426">
        <ele>-3.2</ele>
        <time>2021-07-04 13:50:05</time>
      </trkpt>
      <trkpt lat="28.71421" lon="-14.01426">
        <ele>-2.8</ele>
        <time>2021-07-04 13:50:06</time>
      </trkpt>
      <trkpt lat="28.71417" lon="-14.01425">
        <ele>-2.8</ele>
        <time>2021-07-04 13:50:07</time>
      </trkpt>
      <trkpt lat="28.71413" lon="-14.01424">
        <ele>-2.8</ele>
        <time>2021-07-04 13:50:08</time>
      </trkpt>
      <trkpt lat="28.71409" lon="-14.01423">
        <ele>-2.6</ele>
        <time>2021-07-04 13:50:09</time>
      </trkpt>
      <trkpt lat="28.71405" lon="-14.01423">
        <ele>-2.6</ele>
        <time>2021-07-04 13:50:10</time>
      </trkpt>
      <trkpt lat="28.71401" lon="-14.01422">
        <ele>-2.6</ele>
        <time>2021-07-04 13:50:11</time>
      </trkpt>
      <trkpt lat="28.71397" lon="-14.01421">
        <ele>-2.6</ele>
        <time>2021-07-04 13:50:12</time>
      </trkpt>
      <trkpt lat="28.71393" lon="-14.0142">
        <ele>-2.6</ele>
        <time>2021-07-04 13:50:13</time>
      </trkpt>
      <trkpt lat="28.71389" lon="-14.01418">
        <ele>-2.6</ele>
        <time>2021-07-04 13:50:49</time>
      </trkpt>
      <trkpt lat="28.71385" lon="-14.01416">
        <ele>-2.6</ele>
        <time>2021-07-04 13:50:50</time>
      </trkpt>
      <trkpt lat="28.71381" lon="-14.01413">
        <ele>-2.4</ele>
        <time>2021-07-04 13:50:51</time>
      </trkpt>
      <trkpt lat="28.71378" lon="-14.0141">
        <ele>-2.4</ele>
        <time>2021-07-04 13:50:52</time>
      </trkpt>
      <trkpt lat="28.71375" lon="-14.01407">
        <ele>-2.4</ele>
        <time>2021-07-04 13:50:53</time>
      </trkpt>
      <trkpt lat="28.71371" lon="-14.01404">
        <ele>-2.4</ele>
        <time>2021-07-04 13:50:54</time>
      </trkpt>
      <trkpt lat="28.71368" lon="-14.01402">
        <ele>-2.4</ele>
        <time>2021-07-04 13:50:55</time>
      </trkpt>
      <trkpt lat="28.71365" lon="-14.01399">
        <ele>-2.4</ele>
        <time>2021-07-04 13:50:56</time>
      </trkpt>
      <trkpt lat="28.71362" lon="-14.01397">
        <ele>-2.4</ele>
        <time>2021-07-04 13:50:57</time>
      </trkpt>
      <trkpt lat="28.71359" lon="-14.01394">
        <ele>-2.4</ele>
        <time>2021-07-04 13:50:58</time>
      </trkpt>
      <trkpt lat="28.71356" lon="-14.01392">
        <ele>-2.4</ele>
        <time>2021-07-04 13:50:59</time>
      </trkpt>
      <trkpt lat="28.71353" lon="-14.01389">
        <ele>-2.2</ele>
        <time>2021-07-04 13:51:00</time>
      </trkpt>
      <trkpt lat="28.71349" lon="-14.01386">
        <ele>-2.2</ele>
        <time>2021-07-04 13:51:01</time>
      </trkpt>
      <trkpt lat="28.71346" lon="-14.01383">
        <ele>-2.2</ele>
        <time>2021-07-04 13:51:02</time>
      </trkpt>
      <trkpt lat="28.71342" lon="-14.01379">
        <ele>-2.2</ele>
        <time>2021-07-04 13:51:03</time>
      </trkpt>
      <trkpt lat="28.71338" lon="-14.01376">
        <ele>-2</ele>
        <time>2021-07-04 13:51:04</time>
      </trkpt>
      <trkpt lat="28.71334" lon="-14.01372">
        <ele>-2</ele>
        <time>2021-07-04 13:51:05</time>
      </trkpt>
      <trkpt lat="28.7133" lon="-14.01369">
        <ele>-2</ele>
        <time>2021-07-04 13:51:06</time>
      </trkpt>
      <trkpt lat="28.71327" lon="-14.01365">
        <ele>-2</ele>
        <time>2021-07-04 13:51:07</time>
      </trkpt>
      <trkpt lat="28.71323" lon="-14.01361">
        <ele>-1.6</ele>
        <time>2021-07-04 13:51:08</time>
      </trkpt>
      <trkpt lat="28.71319" lon="-14.01358">
        <ele>-1.6</ele>
        <time>2021-07-04 13:51:09</time>
      </trkpt>
      <trkpt lat="28.71315" lon="-14.01355">
        <ele>-1.6</ele>
        <time>2021-07-04 13:51:10</time>
      </trkpt>
      <trkpt lat="28.71311" lon="-14.01352">
        <ele>-1.6</ele>
        <time>2021-07-04 13:51:11</time>
      </trkpt>
      <trkpt lat="28.71306" lon="-14.01351">
        <ele>-1.6</ele>
        <time>2021-07-04 13:51:12</time>
      </trkpt>
      <trkpt lat="28.71301" lon="-14.01349">
        <ele>-1.6</ele>
        <time>2021-07-04 13:51:13</time>
      </trkpt>
      <trkpt lat="28.71296" lon="-14.01348">
        <ele>-1.6</ele>
        <time>2021-07-04 13:51:14</time>
      </trkpt>
      <trkpt lat="28.71291" lon="-14.01348">
        <ele>-1.6</ele>
        <time>2021-07-04 13:51:15</time>
      </trkpt>
      <trkpt lat="28.71286" lon="-14.01347">
        <ele>-1.6</ele>
        <time>2021-07-04 13:51:16</time>
      </trkpt>
      <trkpt lat="28.71281" lon="-14.01346">
        <ele>-1.6</ele>
        <time>2021-07-04 13:51:17</time>
      </trkpt>
      <trkpt lat="28.71276" lon="-14.01345">
        <ele>-1.6</ele>
        <time>2021-07-04 13:51:18</time>
      </trkpt>
      <trkpt lat="28.71271" lon="-14.01344">
        <ele>-1.4</ele>
        <time>2021-07-04 13:51:19</time>
      </trkpt>
      <trkpt lat="28.71267" lon="-14.01344">
        <ele>-1.4</ele>
        <time>2021-07-04 13:51:20</time>
      </trkpt>
      <trkpt lat="28.71262" lon="-14.01344">
        <ele>-1.4</ele>
        <time>2021-07-04 13:51:21</time>
      </trkpt>
      <trkpt lat="28.71258" lon="-14.01343">
        <ele>-1.2</ele>
        <time>2021-07-04 13:51:22</time>
      </trkpt>
      <trkpt lat="28.71253" lon="-14.01342">
        <ele>-1</ele>
        <time>2021-07-04 13:51:23</time>
      </trkpt>
      <trkpt lat="28.71248" lon="-14.0134">
        <ele>-1</ele>
        <time>2021-07-04 13:51:24</time>
      </trkpt>
      <trkpt lat="28.71244" lon="-14.01339">
        <ele>-1</ele>
        <time>2021-07-04 13:51:25</time>
      </trkpt>
      <trkpt lat="28.71239" lon="-14.01339">
        <ele>-0.8</ele>
        <time>2021-07-04 13:51:26</time>
      </trkpt>
      <trkpt lat="28.71235" lon="-14.01338">
        <ele>-0.8</ele>
        <time>2021-07-04 13:51:27</time>
      </trkpt>
      <trkpt lat="28.7123" lon="-14.01337">
        <ele>-0.8</ele>
        <time>2021-07-04 13:51:28</time>
      </trkpt>
      <trkpt lat="28.71225" lon="-14.01336">
        <ele>-0.4</ele>
        <time>2021-07-04 13:51:29</time>
      </trkpt>
      <trkpt lat="28.71221" lon="-14.01335">
        <ele>-0.4</ele>
        <time>2021-07-04 13:51:30</time>
      </trkpt>
      <trkpt lat="28.71216" lon="-14.01334">
        <ele>-0.2</ele>
        <time>2021-07-04 13:51:31</time>
      </trkpt>
      <trkpt lat="28.71211" lon="-14.01334">
        <ele>-0.2</ele>
        <time>2021-07-04 13:51:32</time>
      </trkpt>
      <trkpt lat="28.71206" lon="-14.01333">
        <ele>-0.2</ele>
        <time>2021-07-04 13:51:33</time>
      </trkpt>
      <trkpt lat="28.71201" lon="-14.01332">
        <time>2021-07-04 13:51:34</time>
      </trkpt>
      <trkpt lat="28.71196" lon="-14.01331">
        <time>2021-07-04 13:51:35</time>
      </trkpt>
      <trkpt lat="28.71191" lon="-14.0133">
        <time>2021-07-04 13:51:36</time>
      </trkpt>
      <trkpt lat="28.71186" lon="-14.01329">
        <ele>0.2</ele>
        <time>2021-07-04 13:51:37</time>
      </trkpt>
      <trkpt lat="28.71181" lon="-14.01328">
        <ele>0.2</ele>
        <time>2021-07-04 13:51:38</time>
      </trkpt>
      <trkpt lat="28.71176" lon="-14.01328">
        <ele>0.2</ele>
        <time>2021-07-04 13:51:39</time>
      </trkpt>
      <trkpt lat="28.71172" lon="-14.01327">
        <ele>0.2</ele>
        <time>2021-07-04 13:51:40</time>
      </trkpt>
      <trkpt lat="28.71167" lon="-14.01327">
        <ele>0.2</ele>
        <time>2021-07-04 13:51:41</time>
      </trkpt>
      <trkpt lat="28.71162" lon="-14.01327">
        <ele>0.4</ele>
        <time>2021-07-04 13:51:42</time>
      </trkpt>
      <trkpt lat="28.71158" lon="-14.01325">
        <ele>0.4</ele>
        <time>2021-07-04 13:51:43</time>
      </trkpt>
      <trkpt lat="28.71153" lon="-14.01325">
        <ele>0.4</ele>
        <time>2021-07-04 13:51:44</time>
      </trkpt>
      <trkpt lat="28.71148" lon="-14.01323">
        <ele>0.4</ele>
        <time>2021-07-04 13:51:45</time>
      </trkpt>
      <trkpt lat="28.71143" lon="-14.01322">
        <ele>0.4</ele>
        <time>2021-07-04 13:51:46</time>
      </trkpt>
      <trkpt lat="28.71138" lon="-14.01321">
        <ele>0.4</ele>
        <time>2021-07-04 13:51:47</time>
      </trkpt>
      <trkpt lat="28.71133" lon="-14.01321">
        <ele>0.8</ele>
        <time>2021-07-04 13:51:48</time>
      </trkpt>
      <trkpt lat="28.71128" lon="-14.01319">
        <ele>0.8</ele>
        <time>2021-07-04 13:51:49</time>
      </trkpt>
      <trkpt lat="28.71123" lon="-14.01318">
        <ele>0.8</ele>
        <time>2021-07-04 13:51:50</time>
      </trkpt>
      <trkpt lat="28.71118" lon="-14.01317">
        <ele>0.8</ele>
        <time>2021-07-04 13:51:51</time>
      </trkpt>
      <trkpt lat="28.71113" lon="-14.01315">
        <ele>0.8</ele>
        <time>2021-07-04 13:51:52</time>
      </trkpt>
      <trkpt lat="28.71108" lon="-14.01314">
        <ele>0.8</ele>
        <time>2021-07-04 13:51:53</time>
      </trkpt>
      <trkpt lat="28.71103" lon="-14.01313">
        <ele>0.8</ele>
        <time>2021-07-04 13:51:54</time>
      </trkpt>
      <trkpt lat="28.71098" lon="-14.01311">
        <ele>1</ele>
        <time>2021-07-04 13:51:55</time>
      </trkpt>
      <trkpt lat="28.71092" lon="-14.0131">
        <ele>1</ele>
        <time>2021-07-04 13:51:56</time>
      </trkpt>
      <trkpt lat="28.71087" lon="-14.01308">
        <ele>1</ele>
        <time>2021-07-04 13:51:57</time>
      </trkpt>
      <trkpt lat="28.71082" lon="-14.01306">
        <ele>1.2</ele>
        <time>2021-07-04 13:51:58</time>
      </trkpt>
      <trkpt lat="28.71077" lon="-14.01303">
        <ele>1.2</ele>
        <time>2021-07-04 13:51:59</time>
      </trkpt>
      <trkpt lat="28.71072" lon="-14.01302">
        <ele>1.2</ele>
        <time>2021-07-04 13:52:00</time>
      </trkpt>
      <trkpt lat="28.71067" lon="-14.01301">
        <ele>1.2</ele>
        <time>2021-07-04 13:52:01</time>
      </trkpt>
      <trkpt lat="28.71062" lon="-14.01299">
        <ele>1.2</ele>
        <time>2021-07-04 13:52:02</time>
      </trkpt>
      <trkpt lat="28.71057" lon="-14.01298">
        <ele>1.2</ele>
        <time>2021-07-04 13:52:03</time>
      </trkpt>
      <trkpt lat="28.71032" lon="-14.01291">
        <ele>0.4</ele>
        <time>2021-07-04 13:52:04</time>
      </trkpt>
      <trkpt lat="28.71026" lon="-14.0129">
        <ele>0.4</ele>
        <time>2021-07-04 13:52:05</time>
      </trkpt>
      <trkpt lat="28.7102" lon="-14.0129">
        <ele>0.2</ele>
        <time>2021-07-04 13:52:06</time>
      </trkpt>
      <trkpt lat="28.71014" lon="-14.01289">
        <ele>-0.2</ele>
        <time>2021-07-04 13:52:07</time>
      </trkpt>
      <trkpt lat="28.71007" lon="-14.01288">
        <ele>-0.4</ele>
        <time>2021-07-04 13:52:08</time>
      </trkpt>
      <trkpt lat="28.71" lon="-14.01287">
        <ele>-0.8</ele>
        <time>2021-07-04 13:52:09</time>
      </trkpt>
      <trkpt lat="28.70992" lon="-14.01287">
        <ele>-1.4</ele>
        <time>2021-07-04 13:52:10</time>
      </trkpt>
      <trkpt lat="28.70984" lon="-14.01286">
        <ele>-1.8</ele>
        <time>2021-07-04 13:52:11</time>
      </trkpt>
      <trkpt lat="28.70976" lon="-14.01285">
        <ele>-2.4</ele>
        <time>2021-07-04 13:52:12</time>
      </trkpt>
      <trkpt lat="28.70967" lon="-14.01285">
        <ele>-2.8</ele>
        <time>2021-07-04 13:52:13</time>
      </trkpt>
      <trkpt lat="28.70961" lon="-14.01284">
        <ele>-3</ele>
        <time>2021-07-04 13:52:14</time>
      </trkpt>
      <trkpt lat="28.70956" lon="-14.01284">
        <ele>-3.2</ele>
        <time>2021-07-04 13:52:15</time>
      </trkpt>
      <trkpt lat="28.70952" lon="-14.01283">
        <ele>-3.2</ele>
        <time>2021-07-04 13:52:16</time>
      </trkpt>
      <trkpt lat="28.7095" lon="-14.01283">
        <ele>-3.4</ele>
        <time>2021-07-04 13:52:17</time>
      </trkpt>
      <trkpt lat="28.70948" lon="-14.01283">
        <ele>-3.4</ele>
        <time>2021-07-04 13:52:18</time>
      </trkpt>
      <trkpt lat="28.70945" lon="-14.01282">
        <ele>-3.4</ele>
        <time>2021-07-04 13:52:19</time>
      </trkpt>
      <trkpt lat="28.70942" lon="-14.01281">
        <ele>-3.4</ele>
        <time>2021-07-04 13:52:20</time>
      </trkpt>
      <trkpt lat="28.70939" lon="-14.01282">
        <ele>-3.2</ele>
        <time>2021-07-04 13:52:21</time>
      </trkpt>
      <trkpt lat="28.70935" lon="-14.01282">
        <ele>-3.2</ele>
        <time>2021-07-04 13:52:22</time>
      </trkpt>
      <trkpt lat="28.70931" lon="-14.01281">
        <ele>-3</ele>
        <time>2021-07-04 13:52:23</time>
      </trkpt>
      <trkpt lat="28.70926" lon="-14.01282">
        <ele>-3</ele>
        <time>2021-07-04 13:52:24</time>
      </trkpt>
      <trkpt lat="28.70921" lon="-14.01282">
        <ele>-2.6</ele>
        <time>2021-07-04 13:52:25</time>
      </trkpt>
      <trkpt lat="28.70917" lon="-14.01281">
        <ele>-2.6</ele>
        <time>2021-07-04 13:52:26</time>
      </trkpt>
      <trkpt lat="28.70904" lon="-14.0128">
        <ele>-2.4</ele>
        <time>2021-07-04 13:52:27</time>
      </trkpt>
      <trkpt lat="28.70899" lon="-14.0128">
        <ele>-2.4</ele>
        <time>2021-07-04 13:52:28</time>
      </trkpt>
      <trkpt lat="28.70895" lon="-14.01279">
        <ele>-2.4</ele>
        <time>2021-07-04 13:52:29</time>
      </trkpt>
      <trkpt lat="28.7089" lon="-14.01278">
        <ele>-2.4</ele>
        <time>2021-07-04 13:52:30</time>
      </trkpt>
      <trkpt lat="28.70885" lon="-14.01278">
        <ele>-2.2</ele>
        <time>2021-07-04 13:52:31</time>
      </trkpt>
      <trkpt lat="28.7088" lon="-14.01277">
        <ele>-2.2</ele>
        <time>2021-07-04 13:52:32</time>
      </trkpt>
      <trkpt lat="28.70875" lon="-14.01276">
        <ele>-2</ele>
        <time>2021-07-04 13:52:33</time>
      </trkpt>
      <trkpt lat="28.70871" lon="-14.01274">
        <ele>-2</ele>
        <time>2021-07-04 13:52:34</time>
      </trkpt>
      <trkpt lat="28.70866" lon="-14.01272">
        <ele>-2</ele>
        <time>2021-07-04 13:52:35</time>
      </trkpt>
      <trkpt lat="28.70862" lon="-14.0127">
        <ele>-2</ele>
        <time>2021-07-04 13:52:36</time>
      </trkpt>
      <trkpt lat="28.70857" lon="-14.01267">
        <ele>-2</ele>
        <time>2021-07-04 13:52:37</time>
      </trkpt>
      <trkpt lat="28.70852" lon="-14.01264">
        <ele>-1.6</ele>
        <time>2021-07-04 13:52:38</time>
      </trkpt>
      <trkpt lat="28.70848" lon="-14.01262">
        <ele>-1.4</ele>
        <time>2021-07-04 13:52:39</time>
      </trkpt>
      <trkpt lat="28.70843" lon="-14.0126">
        <ele>-1.4</ele>
        <time>2021-07-04 13:52:40</time>
      </trkpt>
      <trkpt lat="28.70838" lon="-14.01259">
        <ele>-1.2</ele>
        <time>2021-07-04 13:52:41</time>
      </trkpt>
      <trkpt lat="28.70833" lon="-14.01257">
        <ele>-1.2</ele>
        <time>2021-07-04 13:52:42</time>
      </trkpt>
      <trkpt lat="28.70829" lon="-14.01255">
        <ele>-0.8</ele>
        <time>2021-07-04 13:52:43</time>
      </trkpt>
      <trkpt lat="28.70824" lon="-14.01253">
        <ele>-0.8</ele>
        <time>2021-07-04 13:52:44</time>
      </trkpt>
      <trkpt lat="28.70819" lon="-14.01251">
        <ele>-0.6</ele>
        <time>2021-07-04 13:52:45</time>
      </trkpt>
      <trkpt lat="28.70814" lon="-14.01249">
        <ele>-0.6</ele>
        <time>2021-07-04 13:52:46</time>
      </trkpt>
      <trkpt lat="28.70808" lon="-14.01247">
        <ele>-0.2</ele>
        <time>2021-07-04 13:52:47</time>
      </trkpt>
      <trkpt lat="28.70804" lon="-14.01245">
        <ele>-0.2</ele>
        <time>2021-07-04 13:52:48</time>
      </trkpt>
      <trkpt lat="28.70799" lon="-14.01243">
        <time>2021-07-04 13:52:49</time>
      </trkpt>
      <trkpt lat="28.70794" lon="-14.01241">
        <time>2021-07-04 13:52:50</time>
      </trkpt>
      <trkpt lat="28.70789" lon="-14.01238">
        <ele>0.4</ele>
        <time>2021-07-04 13:52:51</time>
      </trkpt>
      <trkpt lat="28.70784" lon="-14.01235">
        <ele>0.4</ele>
        <time>2021-07-04 13:52:52</time>
      </trkpt>
      <trkpt lat="28.70779" lon="-14.01232">
        <ele>0.4</ele>
        <time>2021-07-04 13:52:53</time>
      </trkpt>
      <trkpt lat="28.70774" lon="-14.01229">
        <ele>0.6</ele>
        <time>2021-07-04 13:52:54</time>
      </trkpt>
      <trkpt lat="28.7077" lon="-14.01225">
        <ele>0.6</ele>
        <time>2021-07-04 13:52:55</time>
      </trkpt>
      <trkpt lat="28.70766" lon="-14.01222">
        <ele>0.8</ele>
        <time>2021-07-04 13:52:56</time>
      </trkpt>
      <trkpt lat="28.70761" lon="-14.01218">
        <ele>0.8</ele>
        <time>2021-07-04 13:52:57</time>
      </trkpt>
      <trkpt lat="28.70757" lon="-14.01214">
        <ele>0.8</ele>
        <time>2021-07-04 13:52:58</time>
      </trkpt>
      <trkpt lat="28.70753" lon="-14.0121">
        <ele>0.8</ele>
        <time>2021-07-04 13:52:59</time>
      </trkpt>
      <trkpt lat="28.70749" lon="-14.01206">
        <ele>0.8</ele>
        <time>2021-07-04 13:53:00</time>
      </trkpt>
      <trkpt lat="28.70745" lon="-14.01202">
        <ele>0.8</ele>
        <time>2021-07-04 13:53:01</time>
      </trkpt>
      <trkpt lat="28.70741" lon="-14.01197">
        <ele>1.2</ele>
        <time>2021-07-04 13:53:02</time>
      </trkpt>
      <trkpt lat="28.70737" lon="-14.01193">
        <ele>1.2</ele>
        <time>2021-07-04 13:53:03</time>
      </trkpt>
      <trkpt lat="28.70734" lon="-14.01189">
        <ele>1.4</ele>
        <time>2021-07-04 13:53:04</time>
      </trkpt>
      <trkpt lat="28.7073" lon="-14.01186">
        <ele>1.4</ele>
        <time>2021-07-04 13:53:05</time>
      </trkpt>
      <trkpt lat="28.70727" lon="-14.01181">
        <ele>1.8</ele>
        <time>2021-07-04 13:53:06</time>
      </trkpt>
      <trkpt lat="28.70723" lon="-14.01176">
        <ele>1.8</ele>
        <time>2021-07-04 13:53:07</time>
      </trkpt>
      <trkpt lat="28.7072" lon="-14.01172">
        <ele>2</ele>
        <time>2021-07-04 13:53:08</time>
      </trkpt>
      <trkpt lat="28.70717" lon="-14.01166">
        <ele>2</ele>
        <time>2021-07-04 13:53:09</time>
      </trkpt>
      <trkpt lat="28.70714" lon="-14.01161">
        <ele>2.2</ele>
        <time>2021-07-04 13:53:10</time>
      </trkpt>
      <trkpt lat="28.70711" lon="-14.01156">
        <ele>2.2</ele>
        <time>2021-07-04 13:53:11</time>
      </trkpt>
      <trkpt lat="28.70708" lon="-14.01151">
        <ele>2.6</ele>
        <time>2021-07-04 13:53:12</time>
      </trkpt>
      <trkpt lat="28.70706" lon="-14.01146">
        <ele>2.6</ele>
        <time>2021-07-04 13:53:13</time>
      </trkpt>
      <trkpt lat="28.70703" lon="-14.0114">
        <ele>2.8</ele>
        <time>2021-07-04 13:53:14</time>
      </trkpt>
      <trkpt lat="28.707" lon="-14.01135">
        <ele>3</ele>
        <time>2021-07-04 13:53:15</time>
      </trkpt>
      <trkpt lat="28.70697" lon="-14.0113">
        <ele>3.4</ele>
        <time>2021-07-04 13:53:16</time>
      </trkpt>
      <trkpt lat="28.70695" lon="-14.01124">
        <ele>3.4</ele>
        <time>2021-07-04 13:53:17</time>
      </trkpt>
      <trkpt lat="28.70692" lon="-14.01119">
        <ele>3.6</ele>
        <time>2021-07-04 13:53:18</time>
      </trkpt>
      <trkpt lat="28.70689" lon="-14.01113">
        <ele>3.8</ele>
        <time>2021-07-04 13:53:19</time>
      </trkpt>
      <trkpt lat="28.70686" lon="-14.01108">
        <ele>3.8</ele>
        <time>2021-07-04 13:53:20</time>
      </trkpt>
      <trkpt lat="28.70684" lon="-14.01102">
        <ele>4</ele>
        <time>2021-07-04 13:53:21</time>
      </trkpt>
      <trkpt lat="28.70681" lon="-14.01096">
        <ele>4</ele>
        <time>2021-07-04 13:53:22</time>
      </trkpt>
      <trkpt lat="28.70679" lon="-14.0109">
        <ele>4.4</ele>
        <time>2021-07-04 13:53:23</time>
      </trkpt>
      <trkpt lat="28.70676" lon="-14.01084">
        <ele>4.4</ele>
        <time>2021-07-04 13:53:24</time>
      </trkpt>
      <trkpt lat="28.70673" lon="-14.01078">
        <ele>4.4</ele>
        <time>2021-07-04 13:53:25</time>
      </trkpt>
      <trkpt lat="28.7067" lon="-14.01072">
        <ele>4.4</ele>
        <time>2021-07-04 13:53:26</time>
      </trkpt>
      <trkpt lat="28.70667" lon="-14.01067">
        <ele>4.4</ele>
        <time>2021-07-04 13:53:27</time>
      </trkpt>
      <trkpt lat="28.70665" lon="-14.01062">
        <ele>4.4</ele>
        <time>2021-07-04 13:53:28</time>
      </trkpt>
      <trkpt lat="28.70662" lon="-14.01056">
        <ele>4.4</ele>
        <time>2021-07-04 13:53:29</time>
      </trkpt>
      <trkpt lat="28.7066" lon="-14.0105">
        <ele>4.6</ele>
        <time>2021-07-04 13:53:30</time>
      </trkpt>
      <trkpt lat="28.70657" lon="-14.01045">
        <ele>4.6</ele>
        <time>2021-07-04 13:53:31</time>
      </trkpt>
      <trkpt lat="28.70654" lon="-14.01039">
        <ele>4.6</ele>
        <time>2021-07-04 13:53:32</time>
      </trkpt>
      <trkpt lat="28.70651" lon="-14.01034">
        <ele>4.6</ele>
        <time>2021-07-04 13:53:33</time>
      </trkpt>
      <trkpt lat="28.70647" lon="-14.01028">
        <ele>4.6</ele>
        <time>2021-07-04 13:53:34</time>
      </trkpt>
      <trkpt lat="28.70645" lon="-14.01023">
        <ele>4.6</ele>
        <time>2021-07-04 13:53:35</time>
      </trkpt>
      <trkpt lat="28.70642" lon="-14.01017">
        <ele>4.6</ele>
        <time>2021-07-04 13:53:36</time>
      </trkpt>
      <trkpt lat="28.7064" lon="-14.01012">
        <ele>4.6</ele>
        <time>2021-07-04 13:53:37</time>
      </trkpt>
      <trkpt lat="28.70636" lon="-14.01006">
        <ele>4.6</ele>
        <time>2021-07-04 13:53:38</time>
      </trkpt>
      <trkpt lat="28.70634" lon="-14.01">
        <ele>4.6</ele>
        <time>2021-07-04 13:53:39</time>
      </trkpt>
      <trkpt lat="28.70631" lon="-14.00995">
        <ele>4.8</ele>
        <time>2021-07-04 13:53:40</time>
      </trkpt>
      <trkpt lat="28.70628" lon="-14.00989">
        <ele>4.8</ele>
        <time>2021-07-04 13:53:41</time>
      </trkpt>
      <trkpt lat="28.70625" lon="-14.00983">
        <ele>4.8</ele>
        <time>2021-07-04 13:53:42</time>
      </trkpt>
      <trkpt lat="28.70623" lon="-14.00978">
        <ele>4.8</ele>
        <time>2021-07-04 13:53:43</time>
      </trkpt>
      <trkpt lat="28.7062" lon="-14.00973">
        <ele>5</ele>
        <time>2021-07-04 13:53:44</time>
      </trkpt>
      <trkpt lat="28.70617" lon="-14.00967">
        <ele>5</ele>
        <time>2021-07-04 13:53:45</time>
      </trkpt>
      <trkpt lat="28.70614" lon="-14.00962">
        <ele>5</ele>
        <time>2021-07-04 13:53:46</time>
      </trkpt>
      <trkpt lat="28.70611" lon="-14.00957">
        <ele>5</ele>
        <time>2021-07-04 13:53:47</time>
      </trkpt>
      <trkpt lat="28.70607" lon="-14.00952">
        <ele>5.2</ele>
        <time>2021-07-04 13:53:48</time>
      </trkpt>
      <trkpt lat="28.70604" lon="-14.00946">
        <ele>5.2</ele>
        <time>2021-07-04 13:53:49</time>
      </trkpt>
      <trkpt lat="28.706" lon="-14.00942">
        <ele>5.2</ele>
        <time>2021-07-04 13:53:50</time>
      </trkpt>
      <trkpt lat="28.70597" lon="-14.00936">
        <ele>5.6</ele>
        <time>2021-07-04 13:53:51</time>
      </trkpt>
      <trkpt lat="28.70594" lon="-14.00931">
        <ele>5.6</ele>
        <time>2021-07-04 13:53:52</time>
      </trkpt>
      <trkpt lat="28.7059" lon="-14.00927">
        <ele>5.6</ele>
        <time>2021-07-04 13:53:53</time>
      </trkpt>
      <trkpt lat="28.70586" lon="-14.00922">
        <ele>5.8</ele>
        <time>2021-07-04 13:53:54</time>
      </trkpt>
      <trkpt lat="28.70582" lon="-14.00917">
        <ele>5.8</ele>
        <time>2021-07-04 13:53:55</time>
      </trkpt>
      <trkpt lat="28.70579" lon="-14.00913">
        <ele>5.8</ele>
        <time>2021-07-04 13:53:56</time>
      </trkpt>
      <trkpt lat="28.70575" lon="-14.00908">
        <ele>6.2</ele>
        <time>2021-07-04 13:53:57</time>
      </trkpt>
      <trkpt lat="28.70571" lon="-14.00904">
        <ele>6.2</ele>
        <time>2021-07-04 13:53:58</time>
      </trkpt>
      <trkpt lat="28.70566" lon="-14.009">
        <ele>6.2</ele>
        <time>2021-07-04 13:53:59</time>
      </trkpt>
      <trkpt lat="28.70563" lon="-14.00895">
        <ele>6.2</ele>
        <time>2021-07-04 13:54:00</time>
      </trkpt>
      <trkpt lat="28.70559" lon="-14.00891">
        <ele>6.2</ele>
        <time>2021-07-04 13:54:01</time>
      </trkpt>
      <trkpt lat="28.70555" lon="-14.00887">
        <ele>6.4</ele>
        <time>2021-07-04 13:54:02</time>
      </trkpt>
      <trkpt lat="28.7055" lon="-14.00883">
        <ele>6.4</ele>
        <time>2021-07-04 13:54:03</time>
      </trkpt>
      <trkpt lat="28.70546" lon="-14.00879">
        <ele>6.4</ele>
        <time>2021-07-04 13:54:04</time>
      </trkpt>
      <trkpt lat="28.70542" lon="-14.00876">
        <ele>6.6</ele>
        <time>2021-07-04 13:54:05</time>
      </trkpt>
      <trkpt lat="28.70538" lon="-14.00873">
        <ele>6.6</ele>
        <time>2021-07-04 13:54:06</time>
      </trkpt>
      <trkpt lat="28.70534" lon="-14.00869">
        <ele>6.6</ele>
        <time>2021-07-04 13:54:07</time>
      </trkpt>
      <trkpt lat="28.70529" lon="-14.00867">
        <ele>6.6</ele>
        <time>2021-07-04 13:54:08</time>
      </trkpt>
      <trkpt lat="28.70525" lon="-14.00863">
        <ele>6.8</ele>
        <time>2021-07-04 13:54:09</time>
      </trkpt>
      <trkpt lat="28.7052" lon="-14.0086">
        <ele>6.8</ele>
        <time>2021-07-04 13:54:10</time>
      </trkpt>
      <trkpt lat="28.70516" lon="-14.00857">
        <ele>7</ele>
        <time>2021-07-04 13:54:11</time>
      </trkpt>
      <trkpt lat="28.70511" lon="-14.00854">
        <ele>7</ele>
        <time>2021-07-04 13:54:12</time>
      </trkpt>
      <trkpt lat="28.70506" lon="-14.00852">
        <ele>7.4</ele>
        <time>2021-07-04 13:54:13</time>
      </trkpt>
      <trkpt lat="28.70502" lon="-14.00849">
        <ele>7.4</ele>
        <time>2021-07-04 13:54:14</time>
      </trkpt>
      <trkpt lat="28.70497" lon="-14.00846">
        <ele>7.4</ele>
        <time>2021-07-04 13:54:15</time>
      </trkpt>
      <trkpt lat="28.70492" lon="-14.00843">
        <ele>7.6</ele>
        <time>2021-07-04 13:54:16</time>
      </trkpt>
      <trkpt lat="28.70488" lon="-14.00841">
        <ele>7.6</ele>
        <time>2021-07-04 13:54:17</time>
      </trkpt>
      <trkpt lat="28.70483" lon="-14.00839">
        <ele>7.6</ele>
        <time>2021-07-04 13:54:18</time>
      </trkpt>
      <trkpt lat="28.70478" lon="-14.00837">
        <ele>7.6</ele>
        <time>2021-07-04 13:54:19</time>
      </trkpt>
      <trkpt lat="28.70473" lon="-14.00834">
        <ele>7.6</ele>
        <time>2021-07-04 13:54:20</time>
      </trkpt>
      <trkpt lat="28.70469" lon="-14.00831">
        <ele>7.8</ele>
        <time>2021-07-04 13:54:21</time>
      </trkpt>
      <trkpt lat="28.70464" lon="-14.00829">
        <ele>7.8</ele>
        <time>2021-07-04 13:54:22</time>
      </trkpt>
      <trkpt lat="28.70459" lon="-14.00827">
        <ele>7.8</ele>
        <time>2021-07-04 13:54:23</time>
      </trkpt>
      <trkpt lat="28.70455" lon="-14.00824">
        <ele>7.8</ele>
        <time>2021-07-04 13:54:24</time>
      </trkpt>
      <trkpt lat="28.7045" lon="-14.00822">
        <ele>7.8</ele>
        <time>2021-07-04 13:54:25</time>
      </trkpt>
      <trkpt lat="28.70445" lon="-14.0082">
        <ele>8.2</ele>
        <time>2021-07-04 13:54:26</time>
      </trkpt>
      <trkpt lat="28.7044" lon="-14.00818">
        <ele>8.2</ele>
        <time>2021-07-04 13:54:27</time>
      </trkpt>
      <trkpt lat="28.70435" lon="-14.00817">
        <ele>8.2</ele>
        <time>2021-07-04 13:54:28</time>
      </trkpt>
      <trkpt lat="28.7043" lon="-14.00815">
        <ele>8.4</ele>
        <time>2021-07-04 13:54:29</time>
      </trkpt>
      <trkpt lat="28.70425" lon="-14.00813">
        <ele>8.4</ele>
        <time>2021-07-04 13:54:30</time>
      </trkpt>
      <trkpt lat="28.7042" lon="-14.00812">
        <ele>8.4</ele>
        <time>2021-07-04 13:54:31</time>
      </trkpt>
      <trkpt lat="28.70415" lon="-14.00811">
        <ele>8.4</ele>
        <time>2021-07-04 13:54:32</time>
      </trkpt>
      <trkpt lat="28.70411" lon="-14.0081">
        <ele>8.4</ele>
        <time>2021-07-04 13:54:33</time>
      </trkpt>
      <trkpt lat="28.70406" lon="-14.00808">
        <ele>8.4</ele>
        <time>2021-07-04 13:54:34</time>
      </trkpt>
      <trkpt lat="28.70401" lon="-14.00806">
        <ele>8.6</ele>
        <time>2021-07-04 13:54:35</time>
      </trkpt>
      <trkpt lat="28.70396" lon="-14.00805">
        <ele>8.6</ele>
        <time>2021-07-04 13:54:36</time>
      </trkpt>
      <trkpt lat="28.70391" lon="-14.00803">
        <ele>8.6</ele>
        <time>2021-07-04 13:54:37</time>
      </trkpt>
      <trkpt lat="28.70386" lon="-14.00802">
        <ele>8.6</ele>
        <time>2021-07-04 13:54:38</time>
      </trkpt>
      <trkpt lat="28.70381" lon="-14.00801">
        <ele>8.6</ele>
        <time>2021-07-04 13:54:39</time>
      </trkpt>
      <trkpt lat="28.70376" lon="-14.008">
        <ele>8.8</ele>
        <time>2021-07-04 13:54:40</time>
      </trkpt>
      <trkpt lat="28.70371" lon="-14.00799">
        <ele>8.8</ele>
        <time>2021-07-04 13:54:41</time>
      </trkpt>
      <trkpt lat="28.70366" lon="-14.00798">
        <ele>8.8</ele>
        <time>2021-07-04 13:54:42</time>
      </trkpt>
      <trkpt lat="28.70361" lon="-14.00797">
        <ele>8.8</ele>
        <time>2021-07-04 13:54:43</time>
      </trkpt>
      <trkpt lat="28.70356" lon="-14.00796">
        <ele>9</ele>
        <time>2021-07-04 13:54:44</time>
      </trkpt>
      <trkpt lat="28.7035" lon="-14.00795">
        <ele>9</ele>
        <time>2021-07-04 13:54:45</time>
      </trkpt>
      <trkpt lat="28.70346" lon="-14.00794">
        <ele>9</ele>
        <time>2021-07-04 13:54:46</time>
      </trkpt>
      <trkpt lat="28.70341" lon="-14.00794">
        <ele>9</ele>
        <time>2021-07-04 13:54:47</time>
      </trkpt>
      <trkpt lat="28.70336" lon="-14.00793">
        <ele>9</ele>
        <time>2021-07-04 13:54:48</time>
      </trkpt>
      <trkpt lat="28.70331" lon="-14.00793">
        <ele>8.8</ele>
        <time>2021-07-04 13:54:49</time>
      </trkpt>
      <trkpt lat="28.70326" lon="-14.00793">
        <ele>9</ele>
        <time>2021-07-04 13:54:50</time>
      </trkpt>
      <trkpt lat="28.70321" lon="-14.00793">
        <ele>9</ele>
        <time>2021-07-04 13:54:51</time>
      </trkpt>
      <trkpt lat="28.70317" lon="-14.00792">
        <ele>9</ele>
        <time>2021-07-04 13:54:52</time>
      </trkpt>
      <trkpt lat="28.70312" lon="-14.00792">
        <ele>9</ele>
        <time>2021-07-04 13:54:53</time>
      </trkpt>
      <trkpt lat="28.70307" lon="-14.00791">
        <ele>9</ele>
        <time>2021-07-04 13:54:54</time>
      </trkpt>
      <trkpt lat="28.70302" lon="-14.00791">
        <ele>9</ele>
        <time>2021-07-04 13:54:55</time>
      </trkpt>
      <trkpt lat="28.70297" lon="-14.00791">
        <ele>9</ele>
        <time>2021-07-04 13:54:56</time>
      </trkpt>
      <trkpt lat="28.70292" lon="-14.00791">
        <ele>8.8</ele>
        <time>2021-07-04 13:54:57</time>
      </trkpt>
      <trkpt lat="28.70288" lon="-14.0079">
        <ele>9</ele>
        <time>2021-07-04 13:54:58</time>
      </trkpt>
      <trkpt lat="28.70283" lon="-14.00791">
        <ele>9</ele>
        <time>2021-07-04 13:54:59</time>
      </trkpt>
      <trkpt lat="28.70278" lon="-14.00791">
        <ele>9.4</ele>
        <time>2021-07-04 13:55:00</time>
      </trkpt>
      <trkpt lat="28.70273" lon="-14.00791">
        <ele>9.4</ele>
        <time>2021-07-04 13:55:01</time>
      </trkpt>
      <trkpt lat="28.70268" lon="-14.00792">
        <ele>9.4</ele>
        <time>2021-07-04 13:55:02</time>
      </trkpt>
      <trkpt lat="28.70262" lon="-14.00792">
        <ele>9.6</ele>
        <time>2021-07-04 13:55:03</time>
      </trkpt>
      <trkpt lat="28.70257" lon="-14.00793">
        <ele>9.6</ele>
        <time>2021-07-04 13:55:04</time>
      </trkpt>
      <trkpt lat="28.70251" lon="-14.00793">
        <ele>9.6</ele>
        <time>2021-07-04 13:55:05</time>
      </trkpt>
      <trkpt lat="28.70246" lon="-14.00794">
        <ele>9.6</ele>
        <time>2021-07-04 13:55:06</time>
      </trkpt>
      <trkpt lat="28.7024" lon="-14.00795">
        <ele>9.6</ele>
        <time>2021-07-04 13:55:07</time>
      </trkpt>
      <trkpt lat="28.70234" lon="-14.00795">
        <ele>9.6</ele>
        <time>2021-07-04 13:55:08</time>
      </trkpt>
      <trkpt lat="28.70229" lon="-14.00796">
        <ele>9.6</ele>
        <time>2021-07-04 13:55:09</time>
      </trkpt>
      <trkpt lat="28.70223" lon="-14.00797">
        <ele>9.6</ele>
        <time>2021-07-04 13:55:10</time>
      </trkpt>
      <trkpt lat="28.70218" lon="-14.00798">
        <ele>9.4</ele>
        <time>2021-07-04 13:55:11</time>
      </trkpt>
      <trkpt lat="28.70212" lon="-14.008">
        <ele>9.4</ele>
        <time>2021-07-04 13:55:12</time>
      </trkpt>
      <trkpt lat="28.70206" lon="-14.00801">
        <ele>9.4</ele>
        <time>2021-07-04 13:55:13</time>
      </trkpt>
      <trkpt lat="28.702" lon="-14.00802">
        <ele>9.4</ele>
        <time>2021-07-04 13:55:14</time>
      </trkpt>
      <trkpt lat="28.70195" lon="-14.00803">
        <ele>9.4</ele>
        <time>2021-07-04 13:55:15</time>
      </trkpt>
      <trkpt lat="28.70189" lon="-14.00805">
        <ele>9.2</ele>
        <time>2021-07-04 13:55:16</time>
      </trkpt>
      <trkpt lat="28.70183" lon="-14.00807">
        <ele>9.2</ele>
        <time>2021-07-04 13:55:17</time>
      </trkpt>
      <trkpt lat="28.70177" lon="-14.00809">
        <ele>9.2</ele>
        <time>2021-07-04 13:55:18</time>
      </trkpt>
      <trkpt lat="28.70171" lon="-14.00811">
        <ele>9.2</ele>
        <time>2021-07-04 13:55:19</time>
      </trkpt>
      <trkpt lat="28.70165" lon="-14.00812">
        <ele>8.8</ele>
        <time>2021-07-04 13:55:20</time>
      </trkpt>
      <trkpt lat="28.70159" lon="-14.00815">
        <ele>8.8</ele>
        <time>2021-07-04 13:55:21</time>
      </trkpt>
      <trkpt lat="28.70153" lon="-14.00817">
        <ele>8.8</ele>
        <time>2021-07-04 13:55:22</time>
      </trkpt>
      <trkpt lat="28.70147" lon="-14.0082">
        <ele>8.6</ele>
        <time>2021-07-04 13:55:23</time>
      </trkpt>
      <trkpt lat="28.70141" lon="-14.00822">
        <ele>8.6</ele>
        <time>2021-07-04 13:55:24</time>
      </trkpt>
      <trkpt lat="28.70135" lon="-14.00824">
        <ele>8.6</ele>
        <time>2021-07-04 13:55:25</time>
      </trkpt>
      <trkpt lat="28.70129" lon="-14.00825">
        <ele>8.2</ele>
        <time>2021-07-04 13:55:26</time>
      </trkpt>
      <trkpt lat="28.70123" lon="-14.00829">
        <ele>8.2</ele>
        <time>2021-07-04 13:55:27</time>
      </trkpt>
      <trkpt lat="28.70117" lon="-14.00832">
        <ele>8</ele>
        <time>2021-07-04 13:55:28</time>
      </trkpt>
      <trkpt lat="28.70112" lon="-14.00837">
        <ele>8</ele>
        <time>2021-07-04 13:55:29</time>
      </trkpt>
      <trkpt lat="28.70109" lon="-14.00843">
        <ele>8</ele>
        <time>2021-07-04 13:55:30</time>
      </trkpt>
      <trkpt lat="28.70105" lon="-14.00849">
        <ele>8</ele>
        <time>2021-07-04 13:55:31</time>
      </trkpt>
      <trkpt lat="28.70102" lon="-14.00855">
        <ele>8</ele>
        <time>2021-07-04 13:55:32</time>
      </trkpt>
      <trkpt lat="28.70097" lon="-14.0086">
        <ele>8</ele>
        <time>2021-07-04 13:55:33</time>
      </trkpt>
      <trkpt lat="28.70091" lon="-14.00863">
        <ele>7.6</ele>
        <time>2021-07-04 13:55:34</time>
      </trkpt>
      <trkpt lat="28.70085" lon="-14.00865">
        <ele>7.6</ele>
        <time>2021-07-04 13:55:35</time>
      </trkpt>
      <trkpt lat="28.70079" lon="-14.00864">
        <ele>7.6</ele>
        <time>2021-07-04 13:55:36</time>
      </trkpt>
      <trkpt lat="28.70073" lon="-14.00864">
        <ele>7.4</ele>
        <time>2021-07-04 13:55:37</time>
      </trkpt>
      <trkpt lat="28.70067" lon="-14.00863">
        <ele>7.4</ele>
        <time>2021-07-04 13:55:38</time>
      </trkpt>
      <trkpt lat="28.70061" lon="-14.00863">
        <ele>7.4</ele>
        <time>2021-07-04 13:55:39</time>
      </trkpt>
      <trkpt lat="28.70055" lon="-14.00865">
        <ele>7.2</ele>
        <time>2021-07-04 13:55:40</time>
      </trkpt>
      <trkpt lat="28.7005" lon="-14.00867">
        <ele>7.2</ele>
        <time>2021-07-04 13:55:41</time>
      </trkpt>
      <trkpt lat="28.70044" lon="-14.0087">
        <ele>7</ele>
        <time>2021-07-04 13:55:42</time>
      </trkpt>
      <trkpt lat="28.70039" lon="-14.00873">
        <ele>7</ele>
        <time>2021-07-04 13:55:43</time>
      </trkpt>
      <trkpt lat="28.70035" lon="-14.00878">
        <ele>7</ele>
        <time>2021-07-04 13:55:44</time>
      </trkpt>
      <trkpt lat="28.70031" lon="-14.00882">
        <ele>6.8</ele>
        <time>2021-07-04 13:55:45</time>
      </trkpt>
      <trkpt lat="28.70026" lon="-14.00887">
        <ele>6.8</ele>
        <time>2021-07-04 13:55:46</time>
      </trkpt>
      <trkpt lat="28.70021" lon="-14.00891">
        <ele>6.8</ele>
        <time>2021-07-04 13:55:47</time>
      </trkpt>
      <trkpt lat="28.70016" lon="-14.00895">
        <ele>6.8</ele>
        <time>2021-07-04 13:55:48</time>
      </trkpt>
      <trkpt lat="28.70011" lon="-14.009">
        <ele>6.8</ele>
        <time>2021-07-04 13:55:49</time>
      </trkpt>
      <trkpt lat="28.70005" lon="-14.00905">
        <ele>6.8</ele>
        <time>2021-07-04 13:55:50</time>
      </trkpt>
      <trkpt lat="28.69999" lon="-14.0091">
        <ele>6.8</ele>
        <time>2021-07-04 13:55:51</time>
      </trkpt>
      <trkpt lat="28.69994" lon="-14.00915">
        <ele>6.8</ele>
        <time>2021-07-04 13:55:52</time>
      </trkpt>
      <trkpt lat="28.69988" lon="-14.0092">
        <ele>6.8</ele>
        <time>2021-07-04 13:55:53</time>
      </trkpt>
      <trkpt lat="28.69982" lon="-14.00925">
        <ele>6.8</ele>
        <time>2021-07-04 13:55:54</time>
      </trkpt>
      <trkpt lat="28.69976" lon="-14.0093">
        <ele>6.8</ele>
        <time>2021-07-04 13:55:55</time>
      </trkpt>
      <trkpt lat="28.6997" lon="-14.00935">
        <ele>6.8</ele>
        <time>2021-07-04 13:55:56</time>
      </trkpt>
      <trkpt lat="28.69964" lon="-14.0094">
        <ele>6.8</ele>
        <time>2021-07-04 13:55:57</time>
      </trkpt>
      <trkpt lat="28.69958" lon="-14.00945">
        <ele>6.8</ele>
        <time>2021-07-04 13:55:58</time>
      </trkpt>
      <trkpt lat="28.69953" lon="-14.00951">
        <ele>6.8</ele>
        <time>2021-07-04 13:55:59</time>
      </trkpt>
      <trkpt lat="28.69947" lon="-14.00956">
        <ele>6.8</ele>
        <time>2021-07-04 13:56:00</time>
      </trkpt>
      <trkpt lat="28.69941" lon="-14.00961">
        <ele>6.6</ele>
        <time>2021-07-04 13:56:01</time>
      </trkpt>
      <trkpt lat="28.69935" lon="-14.00967">
        <ele>6.6</ele>
        <time>2021-07-04 13:56:02</time>
      </trkpt>
      <trkpt lat="28.6993" lon="-14.00972">
        <ele>6.6</ele>
        <time>2021-07-04 13:56:03</time>
      </trkpt>
      <trkpt lat="28.69925" lon="-14.00977">
        <ele>6.6</ele>
        <time>2021-07-04 13:56:04</time>
      </trkpt>
      <trkpt lat="28.6992" lon="-14.00983">
        <ele>6.6</ele>
        <time>2021-07-04 13:56:05</time>
      </trkpt>
      <trkpt lat="28.69915" lon="-14.00988">
        <ele>6.4</ele>
        <time>2021-07-04 13:56:06</time>
      </trkpt>
      <trkpt lat="28.69909" lon="-14.00994">
        <ele>6.4</ele>
        <time>2021-07-04 13:56:07</time>
      </trkpt>
      <trkpt lat="28.69904" lon="-14.00999">
        <ele>6.4</ele>
        <time>2021-07-04 13:56:08</time>
      </trkpt>
      <trkpt lat="28.699" lon="-14.01005">
        <ele>6.4</ele>
        <time>2021-07-04 13:56:09</time>
      </trkpt>
      <trkpt lat="28.69895" lon="-14.0101">
        <ele>6.4</ele>
        <time>2021-07-04 13:56:10</time>
      </trkpt>
      <trkpt lat="28.6989" lon="-14.01016">
        <ele>6.4</ele>
        <time>2021-07-04 13:56:11</time>
      </trkpt>
      <trkpt lat="28.69885" lon="-14.01022">
        <ele>6.4</ele>
        <time>2021-07-04 13:56:12</time>
      </trkpt>
      <trkpt lat="28.69881" lon="-14.01028">
        <ele>6.4</ele>
        <time>2021-07-04 13:56:13</time>
      </trkpt>
      <trkpt lat="28.69876" lon="-14.01034">
        <ele>6.6</ele>
        <time>2021-07-04 13:56:14</time>
      </trkpt>
      <trkpt lat="28.69871" lon="-14.0104">
        <ele>6.6</ele>
        <time>2021-07-04 13:56:15</time>
      </trkpt>
      <trkpt lat="28.69866" lon="-14.01046">
        <ele>6.6</ele>
        <time>2021-07-04 13:56:16</time>
      </trkpt>
      <trkpt lat="28.69862" lon="-14.01052">
        <ele>6.8</ele>
        <time>2021-07-04 13:56:17</time>
      </trkpt>
      <trkpt lat="28.69857" lon="-14.01058">
        <ele>6.8</ele>
        <time>2021-07-04 13:56:18</time>
      </trkpt>
      <trkpt lat="28.69853" lon="-14.01064">
        <ele>6.8</ele>
        <time>2021-07-04 13:56:19</time>
      </trkpt>
      <trkpt lat="28.69849" lon="-14.0107">
        <ele>6.8</ele>
        <time>2021-07-04 13:56:20</time>
      </trkpt>
      <trkpt lat="28.69845" lon="-14.01076">
        <ele>7.2</ele>
        <time>2021-07-04 13:56:21</time>
      </trkpt>
      <trkpt lat="28.69841" lon="-14.01082">
        <ele>7.2</ele>
        <time>2021-07-04 13:56:22</time>
      </trkpt>
      <trkpt lat="28.69838" lon="-14.01088">
        <ele>7.2</ele>
        <time>2021-07-04 13:56:23</time>
      </trkpt>
      <trkpt lat="28.69835" lon="-14.01095">
        <ele>7.2</ele>
        <time>2021-07-04 13:56:24</time>
      </trkpt>
      <trkpt lat="28.69831" lon="-14.011">
        <ele>7.4</ele>
        <time>2021-07-04 13:56:25</time>
      </trkpt>
      <trkpt lat="28.69828" lon="-14.01106">
        <ele>7.4</ele>
        <time>2021-07-04 13:56:26</time>
      </trkpt>
      <trkpt lat="28.69825" lon="-14.01111">
        <ele>7.4</ele>
        <time>2021-07-04 13:56:27</time>
      </trkpt>
      <trkpt lat="28.69821" lon="-14.01117">
        <ele>7.6</ele>
        <time>2021-07-04 13:56:28</time>
      </trkpt>
      <trkpt lat="28.69818" lon="-14.01122">
        <ele>7.6</ele>
        <time>2021-07-04 13:56:29</time>
      </trkpt>
      <trkpt lat="28.69815" lon="-14.01128">
        <ele>7.6</ele>
        <time>2021-07-04 13:56:30</time>
      </trkpt>
      <trkpt lat="28.69812" lon="-14.01133">
        <ele>7.6</ele>
        <time>2021-07-04 13:56:31</time>
      </trkpt>
      <trkpt lat="28.69809" lon="-14.01139">
        <ele>7.6</ele>
        <time>2021-07-04 13:56:32</time>
      </trkpt>
      <trkpt lat="28.69806" lon="-14.01144">
        <ele>7.6</ele>
        <time>2021-07-04 13:56:33</time>
      </trkpt>
      <trkpt lat="28.69803" lon="-14.0115">
        <ele>7.6</ele>
        <time>2021-07-04 13:56:34</time>
      </trkpt>
      <trkpt lat="28.698" lon="-14.01156">
        <ele>7.6</ele>
        <time>2021-07-04 13:56:35</time>
      </trkpt>
      <trkpt lat="28.69797" lon="-14.01161">
        <ele>7.6</ele>
        <time>2021-07-04 13:56:36</time>
      </trkpt>
      <trkpt lat="28.69795" lon="-14.01166">
        <ele>7.6</ele>
        <time>2021-07-04 13:56:37</time>
      </trkpt>
      <trkpt lat="28.69792" lon="-14.01171">
        <ele>7.4</ele>
        <time>2021-07-04 13:56:38</time>
      </trkpt>
      <trkpt lat="28.69789" lon="-14.01178">
        <ele>7.4</ele>
        <time>2021-07-04 13:56:39</time>
      </trkpt>
      <trkpt lat="28.69787" lon="-14.01184">
        <ele>7.4</ele>
        <time>2021-07-04 13:56:40</time>
      </trkpt>
      <trkpt lat="28.69784" lon="-14.0119">
        <ele>7.4</ele>
        <time>2021-07-04 13:56:41</time>
      </trkpt>
      <trkpt lat="28.69781" lon="-14.01196">
        <ele>7.4</ele>
        <time>2021-07-04 13:56:42</time>
      </trkpt>
      <trkpt lat="28.69779" lon="-14.01202">
        <ele>7</ele>
        <time>2021-07-04 13:56:43</time>
      </trkpt>
      <trkpt lat="28.69776" lon="-14.01208">
        <ele>7</ele>
        <time>2021-07-04 13:56:44</time>
      </trkpt>
      <trkpt lat="28.69774" lon="-14.01215">
        <ele>6.8</ele>
        <time>2021-07-04 13:56:45</time>
      </trkpt>
      <trkpt lat="28.69771" lon="-14.01222">
        <ele>6.4</ele>
        <time>2021-07-04 13:56:46</time>
      </trkpt>
      <trkpt lat="28.69768" lon="-14.01229">
        <ele>6</ele>
        <time>2021-07-04 13:56:47</time>
      </trkpt>
      <trkpt lat="28.69765" lon="-14.01236">
        <ele>5.8</ele>
        <time>2021-07-04 13:56:48</time>
      </trkpt>
      <trkpt lat="28.69763" lon="-14.01243">
        <ele>5.8</ele>
        <time>2021-07-04 13:56:49</time>
      </trkpt>
      <trkpt lat="28.6976" lon="-14.0125">
        <ele>5.6</ele>
        <time>2021-07-04 13:56:50</time>
      </trkpt>
      <trkpt lat="28.69758" lon="-14.01257">
        <ele>5.4</ele>
        <time>2021-07-04 13:56:51</time>
      </trkpt>
      <trkpt lat="28.69756" lon="-14.01265">
        <ele>5.4</ele>
        <time>2021-07-04 13:56:52</time>
      </trkpt>
      <trkpt lat="28.69753" lon="-14.01271">
        <ele>5</ele>
        <time>2021-07-04 13:56:53</time>
      </trkpt>
      <trkpt lat="28.69752" lon="-14.01274">
        <ele>4.6</ele>
        <time>2021-07-04 13:56:54</time>
      </trkpt>
      <trkpt lat="28.69751" lon="-14.01277">
        <ele>4.2</ele>
        <time>2021-07-04 13:56:55</time>
      </trkpt>
      <trkpt lat="28.69749" lon="-14.01281">
        <ele>4.2</ele>
        <time>2021-07-04 13:56:56</time>
      </trkpt>
      <trkpt lat="28.69748" lon="-14.01285">
        <ele>4</ele>
        <time>2021-07-04 13:56:57</time>
      </trkpt>
      <trkpt lat="28.69745" lon="-14.01289">
        <ele>4</ele>
        <time>2021-07-04 13:56:58</time>
      </trkpt>
      <trkpt lat="28.69743" lon="-14.01294">
        <ele>3.6</ele>
        <time>2021-07-04 13:56:59</time>
      </trkpt>
      <trkpt lat="28.69741" lon="-14.01298">
        <ele>3.6</ele>
        <time>2021-07-04 13:57:00</time>
      </trkpt>
      <trkpt lat="28.69739" lon="-14.01302">
        <ele>3.6</ele>
        <time>2021-07-04 13:57:01</time>
      </trkpt>
      <trkpt lat="28.69737" lon="-14.01307">
        <ele>3.4</ele>
        <time>2021-07-04 13:57:02</time>
      </trkpt>
      <trkpt lat="28.69736" lon="-14.01311">
        <ele>3</ele>
        <time>2021-07-04 13:57:03</time>
      </trkpt>
      <trkpt lat="28.69734" lon="-14.01316">
        <ele>3</ele>
        <time>2021-07-04 13:57:04</time>
      </trkpt>
      <trkpt lat="28.69733" lon="-14.0132">
        <ele>2.8</ele>
        <time>2021-07-04 13:57:05</time>
      </trkpt>
      <trkpt lat="28.69731" lon="-14.01324">
        <ele>2.8</ele>
        <time>2021-07-04 13:57:06</time>
      </trkpt>
      <trkpt lat="28.69731" lon="-14.01329">
        <ele>2.6</ele>
        <time>2021-07-04 13:57:07</time>
      </trkpt>
      <trkpt lat="28.6973" lon="-14.01333">
        <ele>2.6</ele>
        <time>2021-07-04 13:57:08</time>
      </trkpt>
      <trkpt lat="28.6973" lon="-14.01337">
        <ele>2.6</ele>
        <time>2021-07-04 13:57:09</time>
      </trkpt>
      <trkpt lat="28.69729" lon="-14.01341">
        <ele>2.6</ele>
        <time>2021-07-04 13:57:10</time>
      </trkpt>
      <trkpt lat="28.69729" lon="-14.01346">
        <ele>2.6</ele>
        <time>2021-07-04 13:57:11</time>
      </trkpt>
      <trkpt lat="28.69728" lon="-14.0135">
        <ele>2.4</ele>
        <time>2021-07-04 13:57:12</time>
      </trkpt>
      <trkpt lat="28.69727" lon="-14.01356">
        <ele>2.4</ele>
        <time>2021-07-04 13:57:13</time>
      </trkpt>
      <trkpt lat="28.69725" lon="-14.0136">
        <ele>1.8</ele>
        <time>2021-07-04 13:57:14</time>
      </trkpt>
      <trkpt lat="28.69724" lon="-14.01365">
        <ele>1.6</ele>
        <time>2021-07-04 13:57:15</time>
      </trkpt>
      <trkpt lat="28.69722" lon="-14.0137">
        <ele>1.6</ele>
        <time>2021-07-04 13:57:16</time>
      </trkpt>
      <trkpt lat="28.69721" lon="-14.01374">
        <ele>1.4</ele>
        <time>2021-07-04 13:57:17</time>
      </trkpt>
      <trkpt lat="28.69719" lon="-14.01379">
        <ele>1.2</ele>
        <time>2021-07-04 13:57:18</time>
      </trkpt>
      <trkpt lat="28.69718" lon="-14.01384">
        <ele>0.8</ele>
        <time>2021-07-04 13:57:19</time>
      </trkpt>
      <trkpt lat="28.69718" lon="-14.01388">
        <ele>0.8</ele>
        <time>2021-07-04 13:57:20</time>
      </trkpt>
      <trkpt lat="28.69716" lon="-14.01393">
        <ele>0.8</ele>
        <time>2021-07-04 13:57:21</time>
      </trkpt>
      <trkpt lat="28.69716" lon="-14.01396">
        <ele>0.8</ele>
        <time>2021-07-04 13:57:22</time>
      </trkpt>
      <trkpt lat="28.69715" lon="-14.014">
        <ele>0.8</ele>
        <time>2021-07-04 13:57:23</time>
      </trkpt>
      <trkpt lat="28.69714" lon="-14.01403">
        <ele>0.8</ele>
        <time>2021-07-04 13:57:24</time>
      </trkpt>
      <trkpt lat="28.69713" lon="-14.01407">
        <ele>0.8</ele>
        <time>2021-07-04 13:57:25</time>
      </trkpt>
      <trkpt lat="28.69713" lon="-14.0141">
        <ele>0.6</ele>
        <time>2021-07-04 13:57:26</time>
      </trkpt>
      <trkpt lat="28.69712" lon="-14.01414">
        <ele>0.6</ele>
        <time>2021-07-04 13:57:27</time>
      </trkpt>
      <trkpt lat="28.69711" lon="-14.01418">
        <ele>0.6</ele>
        <time>2021-07-04 13:57:28</time>
      </trkpt>
      <trkpt lat="28.6971" lon="-14.01422">
        <ele>0.6</ele>
        <time>2021-07-04 13:57:29</time>
      </trkpt>
      <trkpt lat="28.69709" lon="-14.01425">
        <ele>0.6</ele>
        <time>2021-07-04 13:57:30</time>
      </trkpt>
      <trkpt lat="28.69708" lon="-14.01428">
        <ele>0.4</ele>
        <time>2021-07-04 13:57:31</time>
      </trkpt>
      <trkpt lat="28.69707" lon="-14.01431">
        <ele>0.4</ele>
        <time>2021-07-04 13:57:32</time>
      </trkpt>
      <trkpt lat="28.69707" lon="-14.01433">
        <ele>0.4</ele>
        <time>2021-07-04 13:57:33</time>
      </trkpt>
      <trkpt lat="28.69707" lon="-14.01437">
        <ele>0.4</ele>
        <time>2021-07-04 13:57:34</time>
      </trkpt>
      <trkpt lat="28.69706" lon="-14.0144">
        <ele>0.4</ele>
        <time>2021-07-04 13:57:35</time>
      </trkpt>
      <trkpt lat="28.69706" lon="-14.01444">
        <ele>0.4</ele>
        <time>2021-07-04 13:57:36</time>
      </trkpt>
      <trkpt lat="28.69705" lon="-14.01448">
        <ele>0.4</ele>
        <time>2021-07-04 13:57:37</time>
      </trkpt>
      <trkpt lat="28.69705" lon="-14.01453">
        <ele>0.6</ele>
        <time>2021-07-04 13:57:38</time>
      </trkpt>
      <trkpt lat="28.69704" lon="-14.01457">
        <ele>0.6</ele>
        <time>2021-07-04 13:57:39</time>
      </trkpt>
      <trkpt lat="28.69703" lon="-14.0146">
        <ele>0.6</ele>
        <time>2021-07-04 13:57:40</time>
      </trkpt>
      <trkpt lat="28.69702" lon="-14.01464">
        <ele>0.6</ele>
        <time>2021-07-04 13:57:41</time>
      </trkpt>
      <trkpt lat="28.697" lon="-14.01468">
        <ele>0.6</ele>
        <time>2021-07-04 13:57:42</time>
      </trkpt>
      <trkpt lat="28.69699" lon="-14.01471">
        <ele>0.6</ele>
        <time>2021-07-04 13:57:43</time>
      </trkpt>
      <trkpt lat="28.69698" lon="-14.01474">
        <ele>0.2</ele>
        <time>2021-07-04 13:57:44</time>
      </trkpt>
      <trkpt lat="28.69696" lon="-14.01477">
        <ele>0.2</ele>
        <time>2021-07-04 13:57:45</time>
      </trkpt>
      <trkpt lat="28.69695" lon="-14.0148">
        <ele>0.2</ele>
        <time>2021-07-04 13:57:46</time>
      </trkpt>
      <trkpt lat="28.69693" lon="-14.01482">
        <ele>0.2</ele>
        <time>2021-07-04 13:57:47</time>
      </trkpt>
      <trkpt lat="28.69689" lon="-14.01484">
        <ele>0.2</ele>
        <time>2021-07-04 13:57:48</time>
      </trkpt>
      <trkpt lat="28.69683" lon="-14.01481">
        <ele>0.2</ele>
        <time>2021-07-04 13:57:49</time>
      </trkpt>
      <trkpt lat="28.69679" lon="-14.01481">
        <ele>0.2</ele>
        <time>2021-07-04 13:57:50</time>
      </trkpt>
      <trkpt lat="28.69674" lon="-14.01481">
        <ele>0.2</ele>
        <time>2021-07-04 13:57:51</time>
      </trkpt>
      <trkpt lat="28.6967" lon="-14.01481">
        <ele>0.2</ele>
        <time>2021-07-04 13:57:52</time>
      </trkpt>
      <trkpt lat="28.69665" lon="-14.01481">
        <ele>0.2</ele>
        <time>2021-07-04 13:57:53</time>
      </trkpt>
      <trkpt lat="28.6966" lon="-14.0148">
        <ele>0.2</ele>
        <time>2021-07-04 13:57:54</time>
      </trkpt>
      <trkpt lat="28.69656" lon="-14.01479">
        <ele>0.2</ele>
        <time>2021-07-04 13:57:55</time>
      </trkpt>
      <trkpt lat="28.69651" lon="-14.01479">
        <ele>0.2</ele>
        <time>2021-07-04 13:57:56</time>
      </trkpt>
      <trkpt lat="28.69646" lon="-14.01478">
        <ele>0.2</ele>
        <time>2021-07-04 13:57:57</time>
      </trkpt>
      <trkpt lat="28.69641" lon="-14.01478">
        <time>2021-07-04 13:57:58</time>
      </trkpt>
      <trkpt lat="28.69635" lon="-14.01477">
        <time>2021-07-04 13:57:59</time>
      </trkpt>
      <trkpt lat="28.6963" lon="-14.01477">
        <time>2021-07-04 13:58:00</time>
      </trkpt>
      <trkpt lat="28.69624" lon="-14.01476">
        <ele>-0.2</ele>
        <time>2021-07-04 13:58:01</time>
      </trkpt>
      <trkpt lat="28.69619" lon="-14.01475">
        <ele>-0.2</ele>
        <time>2021-07-04 13:58:02</time>
      </trkpt>
      <trkpt lat="28.69613" lon="-14.01474">
        <ele>-0.2</ele>
        <time>2021-07-04 13:58:03</time>
      </trkpt>
      <trkpt lat="28.69607" lon="-14.01474">
        <ele>-0.2</ele>
        <time>2021-07-04 13:58:04</time>
      </trkpt>
      <trkpt lat="28.69602" lon="-14.01473">
        <ele>-0.2</ele>
        <time>2021-07-04 13:58:05</time>
      </trkpt>
      <trkpt lat="28.69596" lon="-14.01473">
        <ele>-0.4</ele>
        <time>2021-07-04 13:58:06</time>
      </trkpt>
      <trkpt lat="28.6959" lon="-14.01472">
        <ele>-0.4</ele>
        <time>2021-07-04 13:58:07</time>
      </trkpt>
      <trkpt lat="28.69584" lon="-14.01471">
        <ele>-0.4</ele>
        <time>2021-07-04 13:58:08</time>
      </trkpt>
      <trkpt lat="28.69579" lon="-14.0147">
        <ele>-0.4</ele>
        <time>2021-07-04 13:58:09</time>
      </trkpt>
      <trkpt lat="28.69573" lon="-14.0147">
        <ele>-0.4</ele>
        <time>2021-07-04 13:58:10</time>
      </trkpt>
      <trkpt lat="28.69567" lon="-14.01469">
        <ele>-0.4</ele>
        <time>2021-07-04 13:58:11</time>
      </trkpt>
      <trkpt lat="28.69561" lon="-14.01469">
        <ele>-0.4</ele>
        <time>2021-07-04 13:58:12</time>
      </trkpt>
      <trkpt lat="28.69555" lon="-14.01468">
        <ele>-0.2</ele>
        <time>2021-07-04 13:58:13</time>
      </trkpt>
      <trkpt lat="28.6955" lon="-14.01467">
        <ele>-0.2</ele>
        <time>2021-07-04 13:58:14</time>
      </trkpt>
      <trkpt lat="28.69543" lon="-14.01466">
        <time>2021-07-04 13:58:15</time>
      </trkpt>
      <trkpt lat="28.69537" lon="-14.01465">
        <time>2021-07-04 13:58:16</time>
      </trkpt>
      <trkpt lat="28.69531" lon="-14.01465">
        <time>2021-07-04 13:58:17</time>
      </trkpt>
      <trkpt lat="28.69525" lon="-14.01464">
        <ele>0.4</ele>
        <time>2021-07-04 13:58:18</time>
      </trkpt>
      <trkpt lat="28.6952" lon="-14.01463">
        <ele>0.4</ele>
        <time>2021-07-04 13:58:19</time>
      </trkpt>
      <trkpt lat="28.69514" lon="-14.01461">
        <ele>0.4</ele>
        <time>2021-07-04 13:58:20</time>
      </trkpt>
      <trkpt lat="28.69508" lon="-14.0146">
        <ele>0.4</ele>
        <time>2021-07-04 13:58:21</time>
      </trkpt>
      <trkpt lat="28.69502" lon="-14.01457">
        <ele>0.4</ele>
        <time>2021-07-04 13:58:22</time>
      </trkpt>
      <trkpt lat="28.69496" lon="-14.01454">
        <ele>0.4</ele>
        <time>2021-07-04 13:58:23</time>
      </trkpt>
      <trkpt lat="28.69491" lon="-14.01451">
        <ele>0.4</ele>
        <time>2021-07-04 13:58:24</time>
      </trkpt>
      <trkpt lat="28.69486" lon="-14.01446">
        <ele>0.4</ele>
        <time>2021-07-04 13:58:25</time>
      </trkpt>
      <trkpt lat="28.6948" lon="-14.01443">
        <ele>0.4</ele>
        <time>2021-07-04 13:58:26</time>
      </trkpt>
      <trkpt lat="28.69475" lon="-14.01438">
        <ele>0.4</ele>
        <time>2021-07-04 13:58:27</time>
      </trkpt>
      <trkpt lat="28.69471" lon="-14.01434">
        <ele>0.6</ele>
        <time>2021-07-04 13:58:28</time>
      </trkpt>
      <trkpt lat="28.69467" lon="-14.01429">
        <ele>0.6</ele>
        <time>2021-07-04 13:58:29</time>
      </trkpt>
      <trkpt lat="28.69462" lon="-14.01425">
        <ele>0.6</ele>
        <time>2021-07-04 13:58:30</time>
      </trkpt>
      <trkpt lat="28.69458" lon="-14.01421">
        <ele>0.6</ele>
        <time>2021-07-04 13:58:31</time>
      </trkpt>
      <trkpt lat="28.69454" lon="-14.01417">
        <ele>1</ele>
        <time>2021-07-04 13:58:32</time>
      </trkpt>
      <trkpt lat="28.69451" lon="-14.01413">
        <ele>1</ele>
        <time>2021-07-04 13:58:33</time>
      </trkpt>
      <trkpt lat="28.69448" lon="-14.01408">
        <ele>1</ele>
        <time>2021-07-04 13:58:34</time>
      </trkpt>
      <trkpt lat="28.69444" lon="-14.01404">
        <ele>1</ele>
        <time>2021-07-04 13:58:35</time>
      </trkpt>
      <trkpt lat="28.6944" lon="-14.014">
        <ele>1.4</ele>
        <time>2021-07-04 13:58:36</time>
      </trkpt>
      <trkpt lat="28.69437" lon="-14.01396">
        <ele>1.4</ele>
        <time>2021-07-04 13:58:37</time>
      </trkpt>
      <trkpt lat="28.69434" lon="-14.01392">
        <ele>1.4</ele>
        <time>2021-07-04 13:58:38</time>
      </trkpt>
      <trkpt lat="28.6943" lon="-14.01389">
        <ele>1.6</ele>
        <time>2021-07-04 13:58:39</time>
      </trkpt>
      <trkpt lat="28.69426" lon="-14.01385">
        <ele>1.8</ele>
        <time>2021-07-04 13:58:40</time>
      </trkpt>
      <trkpt lat="28.69422" lon="-14.01381">
        <ele>1.8</ele>
        <time>2021-07-04 13:58:41</time>
      </trkpt>
      <trkpt lat="28.69418" lon="-14.01378">
        <ele>1.8</ele>
        <time>2021-07-04 13:58:42</time>
      </trkpt>
      <trkpt lat="28.69415" lon="-14.01373">
        <ele>1.8</ele>
        <time>2021-07-04 13:58:43</time>
      </trkpt>
      <trkpt lat="28.69412" lon="-14.01368">
        <ele>1.8</ele>
        <time>2021-07-04 13:58:44</time>
      </trkpt>
      <trkpt lat="28.69408" lon="-14.01364">
        <ele>1.8</ele>
        <time>2021-07-04 13:58:45</time>
      </trkpt>
      <trkpt lat="28.69404" lon="-14.01359">
        <ele>1.8</ele>
        <time>2021-07-04 13:58:46</time>
      </trkpt>
      <trkpt lat="28.69401" lon="-14.01354">
        <ele>1.8</ele>
        <time>2021-07-04 13:58:47</time>
      </trkpt>
      <trkpt lat="28.69397" lon="-14.01349">
        <ele>1.8</ele>
        <time>2021-07-04 13:58:48</time>
      </trkpt>
      <trkpt lat="28.69393" lon="-14.01344">
        <ele>1.8</ele>
        <time>2021-07-04 13:58:49</time>
      </trkpt>
      <trkpt lat="28.69389" lon="-14.0134">
        <ele>1.8</ele>
        <time>2021-07-04 13:58:50</time>
      </trkpt>
      <trkpt lat="28.69384" lon="-14.01337">
        <ele>1.6</ele>
        <time>2021-07-04 13:58:51</time>
      </trkpt>
      <trkpt lat="28.6938" lon="-14.01333">
        <ele>1.6</ele>
        <time>2021-07-04 13:58:52</time>
      </trkpt>
      <trkpt lat="28.69376" lon="-14.0133">
        <ele>1.6</ele>
        <time>2021-07-04 13:58:53</time>
      </trkpt>
      <trkpt lat="28.69372" lon="-14.01325">
        <ele>1.6</ele>
        <time>2021-07-04 13:58:54</time>
      </trkpt>
      <trkpt lat="28.69368" lon="-14.0132">
        <ele>1.6</ele>
        <time>2021-07-04 13:58:55</time>
      </trkpt>
      <trkpt lat="28.69364" lon="-14.01315">
        <ele>1.4</ele>
        <time>2021-07-04 13:58:56</time>
      </trkpt>
      <trkpt lat="28.6936" lon="-14.01309">
        <ele>1.4</ele>
        <time>2021-07-04 13:58:57</time>
      </trkpt>
      <trkpt lat="28.69356" lon="-14.01304">
        <ele>1.4</ele>
        <time>2021-07-04 13:58:58</time>
      </trkpt>
      <trkpt lat="28.69352" lon="-14.01298">
        <ele>1.2</ele>
        <time>2021-07-04 13:58:59</time>
      </trkpt>
      <trkpt lat="28.69347" lon="-14.01293">
        <ele>1.2</ele>
        <time>2021-07-04 13:59:00</time>
      </trkpt>
      <trkpt lat="28.69343" lon="-14.01288">
        <ele>1.2</ele>
        <time>2021-07-04 13:59:01</time>
      </trkpt>
      <trkpt lat="28.69339" lon="-14.01282">
        <ele>1.2</ele>
        <time>2021-07-04 13:59:02</time>
      </trkpt>
      <trkpt lat="28.69334" lon="-14.01277">
        <ele>1.2</ele>
        <time>2021-07-04 13:59:03</time>
      </trkpt>
      <trkpt lat="28.6933" lon="-14.01271">
        <ele>1.2</ele>
        <time>2021-07-04 13:59:04</time>
      </trkpt>
      <trkpt lat="28.69326" lon="-14.01266">
        <ele>1.2</ele>
        <time>2021-07-04 13:59:05</time>
      </trkpt>
      <trkpt lat="28.69322" lon="-14.0126">
        <ele>1.2</ele>
        <time>2021-07-04 13:59:06</time>
      </trkpt>
      <trkpt lat="28.69317" lon="-14.01255">
        <ele>1.2</ele>
        <time>2021-07-04 13:59:07</time>
      </trkpt>
      <trkpt lat="28.69313" lon="-14.01249">
        <ele>1.2</ele>
        <time>2021-07-04 13:59:08</time>
      </trkpt>
      <trkpt lat="28.69309" lon="-14.01244">
        <ele>1.2</ele>
        <time>2021-07-04 13:59:09</time>
      </trkpt>
      <trkpt lat="28.69305" lon="-14.01239">
        <ele>0.8</ele>
        <time>2021-07-04 13:59:10</time>
      </trkpt>
      <trkpt lat="28.693" lon="-14.01234">
        <ele>0.8</ele>
        <time>2021-07-04 13:59:11</time>
      </trkpt>
      <trkpt lat="28.69297" lon="-14.01229">
        <ele>0.8</ele>
        <time>2021-07-04 13:59:12</time>
      </trkpt>
      <trkpt lat="28.69293" lon="-14.01225">
        <ele>0.8</ele>
        <time>2021-07-04 13:59:13</time>
      </trkpt>
      <trkpt lat="28.6929" lon="-14.0122">
        <ele>0.8</ele>
        <time>2021-07-04 13:59:14</time>
      </trkpt>
      <trkpt lat="28.69286" lon="-14.01215">
        <ele>0.8</ele>
        <time>2021-07-04 13:59:15</time>
      </trkpt>
      <trkpt lat="28.69284" lon="-14.01212">
        <ele>0.8</ele>
        <time>2021-07-04 13:59:16</time>
      </trkpt>
      <trkpt lat="28.69281" lon="-14.01209">
        <ele>0.8</ele>
        <time>2021-07-04 13:59:17</time>
      </trkpt>
      <trkpt lat="28.69279" lon="-14.01207">
        <ele>0.8</ele>
        <time>2021-07-04 13:59:18</time>
      </trkpt>
      <trkpt lat="28.69278" lon="-14.01207">
        <ele>0.8</ele>
        <time>2021-07-04 13:59:19</time>
      </trkpt>
      <trkpt lat="28.69277" lon="-14.01208">
        <ele>0.8</ele>
        <time>2021-07-04 13:59:20</time>
      </trkpt>
      <trkpt lat="28.69276" lon="-14.01209">
        <ele>0.8</ele>
        <time>2021-07-04 13:59:21</time>
      </trkpt>
      <trkpt lat="28.69275" lon="-14.01211">
        <ele>0.8</ele>
        <time>2021-07-04 13:59:22</time>
      </trkpt>
      <trkpt lat="28.69273" lon="-14.01213">
        <ele>0.8</ele>
        <time>2021-07-04 13:59:23</time>
      </trkpt>
      <trkpt lat="28.69272" lon="-14.01215">
        <ele>0.8</ele>
        <time>2021-07-04 13:59:24</time>
      </trkpt>
      <trkpt lat="28.6927" lon="-14.01217">
        <ele>0.6</ele>
        <time>2021-07-04 13:59:25</time>
      </trkpt>
      <trkpt lat="28.69268" lon="-14.01219">
        <ele>0.2</ele>
        <time>2021-07-04 13:59:26</time>
      </trkpt>
      <trkpt lat="28.69267" lon="-14.01221">
        <time>2021-07-04 13:59:27</time>
      </trkpt>
      <trkpt lat="28.69265" lon="-14.01223">
        <ele>-0.4</ele>
        <time>2021-07-04 13:59:28</time>
      </trkpt>
      <trkpt lat="28.69264" lon="-14.01225">
        <ele>-0.6</ele>
        <time>2021-07-04 13:59:29</time>
      </trkpt>
      <trkpt lat="28.69262" lon="-14.01226">
        <ele>-0.6</ele>
        <time>2021-07-04 13:59:30</time>
      </trkpt>
      <trkpt lat="28.69261" lon="-14.01228">
        <ele>-1</ele>
        <time>2021-07-04 13:59:31</time>
      </trkpt>
      <trkpt lat="28.69259" lon="-14.01229">
        <ele>-1</ele>
        <time>2021-07-04 13:59:32</time>
      </trkpt>
      <trkpt lat="28.69258" lon="-14.01228">
        <ele>-1.2</ele>
        <time>2021-07-04 13:59:33</time>
      </trkpt>
      <trkpt lat="28.69258" lon="-14.01226">
        <ele>-1.2</ele>
        <time>2021-07-04 13:59:34</time>
      </trkpt>
      <trkpt lat="28.6926" lon="-14.01224">
        <ele>-1.2</ele>
        <time>2021-07-04 13:59:35</time>
      </trkpt>
      <trkpt lat="28.69262" lon="-14.01222">
        <ele>-1.2</ele>
        <time>2021-07-04 13:59:36</time>
      </trkpt>
      <trkpt lat="28.69264" lon="-14.01221">
        <ele>-1.2</ele>
        <time>2021-07-04 13:59:37</time>
      </trkpt>
      <trkpt lat="28.69267" lon="-14.01219">
        <ele>-1</ele>
        <time>2021-07-04 13:59:38</time>
      </trkpt>
      <trkpt lat="28.69269" lon="-14.01217">
        <ele>-1</ele>
        <time>2021-07-04 13:59:39</time>
      </trkpt>
      <trkpt lat="28.69271" lon="-14.01215">
        <ele>-1</ele>
        <time>2021-07-04 13:59:40</time>
      </trkpt>
      <trkpt lat="28.69272" lon="-14.01213">
        <ele>-0.8</ele>
        <time>2021-07-04 13:59:41</time>
      </trkpt>
      <trkpt lat="28.69274" lon="-14.01211">
        <ele>-0.8</ele>
        <time>2021-07-04 13:59:42</time>
      </trkpt>
      <trkpt lat="28.69275" lon="-14.01209">
        <ele>-0.6</ele>
        <time>2021-07-04 13:59:43</time>
      </trkpt>
      <trkpt lat="28.69277" lon="-14.01208">
        <ele>-0.4</ele>
        <time>2021-07-04 13:59:44</time>
      </trkpt>
      <trkpt lat="28.69278" lon="-14.01207">
        <ele>-0.4</ele>
        <time>2021-07-04 13:59:45</time>
      </trkpt>
      <trkpt lat="28.69279" lon="-14.01206">
        <ele>-0.2</ele>
        <time>2021-07-04 13:59:46</time>
      </trkpt>
      <trkpt lat="28.69279" lon="-14.01205">
        <ele>-0.2</ele>
        <time>2021-07-04 13:59:47</time>
      </trkpt>
      <trkpt lat="28.6928" lon="-14.01204">
        <time>2021-07-04 13:59:48</time>
      </trkpt>
      <trkpt lat="28.6928" lon="-14.01202">
        <time>2021-07-04 13:59:49</time>
      </trkpt>
      <trkpt lat="28.6928" lon="-14.012">
        <time>2021-07-04 13:59:50</time>
      </trkpt>
      <trkpt lat="28.69281" lon="-14.01197">
        <ele>0.2</ele>
        <time>2021-07-04 13:59:51</time>
      </trkpt>
      <trkpt lat="28.6928" lon="-14.01194">
        <ele>0.2</ele>
        <time>2021-07-04 13:59:52</time>
      </trkpt>
      <trkpt lat="28.69278" lon="-14.0119">
        <ele>0.2</ele>
        <time>2021-07-04 13:59:53</time>
      </trkpt>
      <trkpt lat="28.69276" lon="-14.01187">
        <ele>0.4</ele>
        <time>2021-07-04 13:59:54</time>
      </trkpt>
      <trkpt lat="28.69273" lon="-14.01184">
        <ele>0.4</ele>
        <time>2021-07-04 13:59:55</time>
      </trkpt>
      <trkpt lat="28.6927" lon="-14.01181">
        <ele>0.4</ele>
        <time>2021-07-04 13:59:56</time>
      </trkpt>
      <trkpt lat="28.69267" lon="-14.01178">
        <ele>0.4</ele>
        <time>2021-07-04 13:59:57</time>
      </trkpt>
      <trkpt lat="28.69264" lon="-14.01174">
        <ele>0.6</ele>
        <time>2021-07-04 13:59:58</time>
      </trkpt>
      <trkpt lat="28.69261" lon="-14.01171">
        <ele>0.6</ele>
        <time>2021-07-04 13:59:59</time>
      </trkpt>
      <trkpt lat="28.69258" lon="-14.01169">
        <ele>0.6</ele>
        <time>2021-07-04 14:00:00</time>
      </trkpt>
      <trkpt lat="28.69256" lon="-14.01166">
        <ele>0.6</ele>
        <time>2021-07-04 14:00:01</time>
      </trkpt>
      <trkpt lat="28.69253" lon="-14.01163">
        <ele>0.6</ele>
        <time>2021-07-04 14:00:02</time>
      </trkpt>
      <trkpt lat="28.69251" lon="-14.0116">
        <ele>0.6</ele>
        <time>2021-07-04 14:00:03</time>
      </trkpt>
      <trkpt lat="28.69249" lon="-14.01157">
        <ele>0.8</ele>
        <time>2021-07-04 14:00:04</time>
      </trkpt>
      <trkpt lat="28.69247" lon="-14.01154">
        <ele>0.8</ele>
        <time>2021-07-04 14:00:05</time>
      </trkpt>
      <trkpt lat="28.69244" lon="-14.01151">
        <ele>0.8</ele>
        <time>2021-07-04 14:00:06</time>
      </trkpt>
      <trkpt lat="28.69242" lon="-14.01148">
        <ele>1.2</ele>
        <time>2021-07-04 14:00:07</time>
      </trkpt>
      <trkpt lat="28.69239" lon="-14.01146">
        <ele>1.2</ele>
        <time>2021-07-04 14:00:08</time>
      </trkpt>
      <trkpt lat="28.69237" lon="-14.01143">
        <ele>1.2</ele>
        <time>2021-07-04 14:00:09</time>
      </trkpt>
      <trkpt lat="28.69235" lon="-14.01141">
        <ele>1.2</ele>
        <time>2021-07-04 14:00:10</time>
      </trkpt>
      <trkpt lat="28.69233" lon="-14.01137">
        <ele>1.4</ele>
        <time>2021-07-04 14:00:11</time>
      </trkpt>
      <trkpt lat="28.69231" lon="-14.01134">
        <ele>1.4</ele>
        <time>2021-07-04 14:00:12</time>
      </trkpt>
      <trkpt lat="28.69227" lon="-14.0113">
        <ele>1.4</ele>
        <time>2021-07-04 14:00:13</time>
      </trkpt>
      <trkpt lat="28.69225" lon="-14.01126">
        <ele>1.4</ele>
        <time>2021-07-04 14:00:14</time>
      </trkpt>
      <trkpt lat="28.69222" lon="-14.01123">
        <ele>1.4</ele>
        <time>2021-07-04 14:00:15</time>
      </trkpt>
      <trkpt lat="28.69219" lon="-14.01119">
        <ele>1.4</ele>
        <time>2021-07-04 14:00:16</time>
      </trkpt>
      <trkpt lat="28.69216" lon="-14.01116">
        <ele>1.2</ele>
        <time>2021-07-04 14:00:17</time>
      </trkpt>
      <trkpt lat="28.69213" lon="-14.01112">
        <ele>1.2</ele>
        <time>2021-07-04 14:00:18</time>
      </trkpt>
      <trkpt lat="28.6921" lon="-14.01108">
        <ele>1</ele>
        <time>2021-07-04 14:00:19</time>
      </trkpt>
      <trkpt lat="28.69206" lon="-14.01103">
        <ele>1</ele>
        <time>2021-07-04 14:00:20</time>
      </trkpt>
      <trkpt lat="28.69202" lon="-14.01099">
        <ele>1</ele>
        <time>2021-07-04 14:00:21</time>
      </trkpt>
      <trkpt lat="28.69199" lon="-14.01094">
        <ele>1</ele>
        <time>2021-07-04 14:00:22</time>
      </trkpt>
      <trkpt lat="28.69195" lon="-14.01089">
        <ele>1</ele>
        <time>2021-07-04 14:00:23</time>
      </trkpt>
      <trkpt lat="28.69191" lon="-14.01084">
        <ele>1</ele>
        <time>2021-07-04 14:00:24</time>
      </trkpt>
      <trkpt lat="28.69186" lon="-14.01079">
        <ele>1</ele>
        <time>2021-07-04 14:00:25</time>
      </trkpt>
      <trkpt lat="28.69182" lon="-14.01073">
        <ele>1</ele>
        <time>2021-07-04 14:00:26</time>
      </trkpt>
      <trkpt lat="28.69178" lon="-14.01068">
        <ele>0.6</ele>
        <time>2021-07-04 14:00:27</time>
      </trkpt>
      <trkpt lat="28.69174" lon="-14.01062">
        <ele>0.6</ele>
        <time>2021-07-04 14:00:28</time>
      </trkpt>
      <trkpt lat="28.6917" lon="-14.01057">
        <ele>0.6</ele>
        <time>2021-07-04 14:00:29</time>
      </trkpt>
      <trkpt lat="28.69165" lon="-14.01051">
        <ele>0.4</ele>
        <time>2021-07-04 14:00:30</time>
      </trkpt>
      <trkpt lat="28.69161" lon="-14.01046">
        <ele>0.4</ele>
        <time>2021-07-04 14:00:31</time>
      </trkpt>
      <trkpt lat="28.69157" lon="-14.0104">
        <ele>0.4</ele>
        <time>2021-07-04 14:00:32</time>
      </trkpt>
      <trkpt lat="28.69153" lon="-14.01035">
        <ele>0.2</ele>
        <time>2021-07-04 14:00:33</time>
      </trkpt>
      <trkpt lat="28.69149" lon="-14.0103">
        <ele>0.2</ele>
        <time>2021-07-04 14:00:34</time>
      </trkpt>
      <trkpt lat="28.69145" lon="-14.01025">
        <ele>0.2</ele>
        <time>2021-07-04 14:00:35</time>
      </trkpt>
      <trkpt lat="28.69141" lon="-14.0102">
        <ele>0.4</ele>
        <time>2021-07-04 14:00:36</time>
      </trkpt>
      <trkpt lat="28.69137" lon="-14.01014">
        <ele>0.4</ele>
        <time>2021-07-04 14:00:37</time>
      </trkpt>
      <trkpt lat="28.69132" lon="-14.01009">
        <ele>0.4</ele>
        <time>2021-07-04 14:00:38</time>
      </trkpt>
      <trkpt lat="28.69129" lon="-14.01004">
        <ele>0.4</ele>
        <time>2021-07-04 14:00:39</time>
      </trkpt>
      <trkpt lat="28.69125" lon="-14.00999">
        <ele>0.6</ele>
        <time>2021-07-04 14:00:40</time>
      </trkpt>
      <trkpt lat="28.69121" lon="-14.00994">
        <ele>0.6</ele>
        <time>2021-07-04 14:00:41</time>
      </trkpt>
      <trkpt lat="28.69117" lon="-14.00988">
        <ele>1</ele>
        <time>2021-07-04 14:00:42</time>
      </trkpt>
      <trkpt lat="28.69113" lon="-14.00984">
        <ele>1</ele>
        <time>2021-07-04 14:00:43</time>
      </trkpt>
      <trkpt lat="28.69109" lon="-14.0098">
        <ele>1.2</ele>
        <time>2021-07-04 14:00:44</time>
      </trkpt>
      <trkpt lat="28.69105" lon="-14.00976">
        <ele>1.2</ele>
        <time>2021-07-04 14:00:45</time>
      </trkpt>
      <trkpt lat="28.69099" lon="-14.00974">
        <ele>1.2</ele>
        <time>2021-07-04 14:00:46</time>
      </trkpt>
      <trkpt lat="28.69094" lon="-14.00973">
        <ele>1.2</ele>
        <time>2021-07-04 14:00:47</time>
      </trkpt>
      <trkpt lat="28.69088" lon="-14.00973">
        <ele>1.2</ele>
        <time>2021-07-04 14:00:48</time>
      </trkpt>
      <trkpt lat="28.69083" lon="-14.00976">
        <ele>1.2</ele>
        <time>2021-07-04 14:00:49</time>
      </trkpt>
      <trkpt lat="28.69078" lon="-14.00978">
        <ele>1</ele>
        <time>2021-07-04 14:00:50</time>
      </trkpt>
      <trkpt lat="28.69073" lon="-14.00983">
        <ele>0.8</ele>
        <time>2021-07-04 14:00:51</time>
      </trkpt>
      <trkpt lat="28.69068" lon="-14.00987">
        <ele>0.8</ele>
        <time>2021-07-04 14:00:52</time>
      </trkpt>
      <trkpt lat="28.69063" lon="-14.00992">
        <ele>0.4</ele>
        <time>2021-07-04 14:00:53</time>
      </trkpt>
      <trkpt lat="28.69058" lon="-14.00996">
        <ele>0.4</ele>
        <time>2021-07-04 14:00:54</time>
      </trkpt>
      <trkpt lat="28.69053" lon="-14.01">
        <ele>0.2</ele>
        <time>2021-07-04 14:00:55</time>
      </trkpt>
      <trkpt lat="28.69047" lon="-14.01005">
        <ele>0.2</ele>
        <time>2021-07-04 14:00:56</time>
      </trkpt>
      <trkpt lat="28.69042" lon="-14.01009">
        <ele>-0.2</ele>
        <time>2021-07-04 14:00:57</time>
      </trkpt>
      <trkpt lat="28.69036" lon="-14.01013">
        <ele>-0.2</ele>
        <time>2021-07-04 14:00:58</time>
      </trkpt>
      <trkpt lat="28.69031" lon="-14.01018">
        <ele>-0.4</ele>
        <time>2021-07-04 14:00:59</time>
      </trkpt>
      <trkpt lat="28.69026" lon="-14.01022">
        <ele>-0.4</ele>
        <time>2021-07-04 14:01:00</time>
      </trkpt>
      <trkpt lat="28.69021" lon="-14.01027">
        <ele>-0.4</ele>
        <time>2021-07-04 14:01:01</time>
      </trkpt>
      <trkpt lat="28.69016" lon="-14.01031">
        <ele>-0.4</ele>
        <time>2021-07-04 14:01:02</time>
      </trkpt>
      <trkpt lat="28.69011" lon="-14.01034">
        <ele>-0.4</ele>
        <time>2021-07-04 14:01:03</time>
      </trkpt>
      <trkpt lat="28.69006" lon="-14.01038">
        <ele>-0.4</ele>
        <time>2021-07-04 14:01:04</time>
      </trkpt>
      <trkpt lat="28.69001" lon="-14.01042">
        <ele>-0.4</ele>
        <time>2021-07-04 14:01:05</time>
      </trkpt>
      <trkpt lat="28.68996" lon="-14.01046">
        <ele>-0.4</ele>
        <time>2021-07-04 14:01:06</time>
      </trkpt>
      <trkpt lat="28.68991" lon="-14.01048">
        <ele>-0.6</ele>
        <time>2021-07-04 14:01:07</time>
      </trkpt>
      <trkpt lat="28.68986" lon="-14.01051">
        <ele>-0.6</ele>
        <time>2021-07-04 14:01:08</time>
      </trkpt>
      <trkpt lat="28.68982" lon="-14.01054">
        <ele>-0.6</ele>
        <time>2021-07-04 14:01:09</time>
      </trkpt>
      <trkpt lat="28.68977" lon="-14.01056">
        <ele>-0.6</ele>
        <time>2021-07-04 14:01:10</time>
      </trkpt>
      <trkpt lat="28.68971" lon="-14.01058">
        <ele>-0.6</ele>
        <time>2021-07-04 14:01:11</time>
      </trkpt>
      <trkpt lat="28.68966" lon="-14.01061">
        <ele>-0.4</ele>
        <time>2021-07-04 14:01:12</time>
      </trkpt>
      <trkpt lat="28.68962" lon="-14.01063">
        <ele>-0.4</ele>
        <time>2021-07-04 14:01:13</time>
      </trkpt>
      <trkpt lat="28.68957" lon="-14.01064">
        <ele>0.2</ele>
        <time>2021-07-04 14:01:14</time>
      </trkpt>
      <trkpt lat="28.68952" lon="-14.01065">
        <ele>0.2</ele>
        <time>2021-07-04 14:01:15</time>
      </trkpt>
      <trkpt lat="28.68948" lon="-14.01066">
        <ele>0.4</ele>
        <time>2021-07-04 14:01:16</time>
      </trkpt>
      <trkpt lat="28.68942" lon="-14.01068">
        <ele>0.4</ele>
        <time>2021-07-04 14:01:17</time>
      </trkpt>
      <trkpt lat="28.68937" lon="-14.01069">
        <ele>0.8</ele>
        <time>2021-07-04 14:01:18</time>
      </trkpt>
      <trkpt lat="28.68932" lon="-14.01071">
        <ele>0.8</ele>
        <time>2021-07-04 14:01:19</time>
      </trkpt>
      <trkpt lat="28.68927" lon="-14.01072">
        <ele>1.2</ele>
        <time>2021-07-04 14:01:20</time>
      </trkpt>
      <trkpt lat="28.68921" lon="-14.01073">
        <ele>1.2</ele>
        <time>2021-07-04 14:01:21</time>
      </trkpt>
      <trkpt lat="28.68916" lon="-14.01074">
        <ele>1.4</ele>
        <time>2021-07-04 14:01:22</time>
      </trkpt>
      <trkpt lat="28.6891" lon="-14.01074">
        <ele>1.4</ele>
        <time>2021-07-04 14:01:23</time>
      </trkpt>
      <trkpt lat="28.68905" lon="-14.01074">
        <ele>1.4</ele>
        <time>2021-07-04 14:01:24</time>
      </trkpt>
      <trkpt lat="28.68899" lon="-14.01073">
        <ele>1.4</ele>
        <time>2021-07-04 14:01:25</time>
      </trkpt>
      <trkpt lat="28.68894" lon="-14.01073">
        <ele>1.4</ele>
        <time>2021-07-04 14:01:26</time>
      </trkpt>
      <trkpt lat="28.68889" lon="-14.01072">
        <ele>1.6</ele>
        <time>2021-07-04 14:01:27</time>
      </trkpt>
      <trkpt lat="28.68884" lon="-14.01071">
        <ele>1.6</ele>
        <time>2021-07-04 14:01:28</time>
      </trkpt>
      <trkpt lat="28.68879" lon="-14.01071">
        <ele>1.6</ele>
        <time>2021-07-04 14:01:29</time>
      </trkpt>
      <trkpt lat="28.68875" lon="-14.01071">
        <ele>1.6</ele>
        <time>2021-07-04 14:01:30</time>
      </trkpt>
      <trkpt lat="28.6887" lon="-14.01071">
        <ele>1.6</ele>
        <time>2021-07-04 14:01:31</time>
      </trkpt>
      <trkpt lat="28.68866" lon="-14.01071">
        <ele>1.6</ele>
        <time>2021-07-04 14:01:32</time>
      </trkpt>
      <trkpt lat="28.68862" lon="-14.0107">
        <ele>1.6</ele>
        <time>2021-07-04 14:01:33</time>
      </trkpt>
      <trkpt lat="28.68857" lon="-14.01069">
        <ele>1.6</ele>
        <time>2021-07-04 14:01:34</time>
      </trkpt>
      <trkpt lat="28.68852" lon="-14.01068">
        <ele>1.6</ele>
        <time>2021-07-04 14:01:35</time>
      </trkpt>
      <trkpt lat="28.68848" lon="-14.01068">
        <ele>2</ele>
        <time>2021-07-04 14:01:36</time>
      </trkpt>
      <trkpt lat="28.68843" lon="-14.01068">
        <ele>2</ele>
        <time>2021-07-04 14:01:37</time>
      </trkpt>
      <trkpt lat="28.68837" lon="-14.01066">
        <ele>2</ele>
        <time>2021-07-04 14:01:38</time>
      </trkpt>
      <trkpt lat="28.68833" lon="-14.01065">
        <ele>1.6</ele>
        <time>2021-07-04 14:01:39</time>
      </trkpt>
      <trkpt lat="28.68827" lon="-14.01064">
        <ele>1.4</ele>
        <time>2021-07-04 14:01:40</time>
      </trkpt>
      <trkpt lat="28.68822" lon="-14.01064">
        <ele>1.4</ele>
        <time>2021-07-04 14:01:41</time>
      </trkpt>
      <trkpt lat="28.68817" lon="-14.01064">
        <ele>1.2</ele>
        <time>2021-07-04 14:01:42</time>
      </trkpt>
      <trkpt lat="28.68812" lon="-14.01063">
        <ele>1.2</ele>
        <time>2021-07-04 14:01:43</time>
      </trkpt>
      <trkpt lat="28.68806" lon="-14.01062">
        <ele>1.2</ele>
        <time>2021-07-04 14:01:44</time>
      </trkpt>
      <trkpt lat="28.68801" lon="-14.01062">
        <ele>1.2</ele>
        <time>2021-07-04 14:01:45</time>
      </trkpt>
      <trkpt lat="28.68795" lon="-14.01061">
        <ele>1.2</ele>
        <time>2021-07-04 14:01:46</time>
      </trkpt>
      <trkpt lat="28.6879" lon="-14.0106">
        <ele>1.2</ele>
        <time>2021-07-04 14:01:47</time>
      </trkpt>
      <trkpt lat="28.68784" lon="-14.0106">
        <ele>1.2</ele>
        <time>2021-07-04 14:01:48</time>
      </trkpt>
      <trkpt lat="28.68779" lon="-14.01059">
        <ele>1.2</ele>
        <time>2021-07-04 14:01:49</time>
      </trkpt>
      <trkpt lat="28.68774" lon="-14.01058">
        <ele>1.2</ele>
        <time>2021-07-04 14:01:50</time>
      </trkpt>
      <trkpt lat="28.68768" lon="-14.01057">
        <ele>1.2</ele>
        <time>2021-07-04 14:01:51</time>
      </trkpt>
      <trkpt lat="28.68763" lon="-14.01056">
        <ele>1.4</ele>
        <time>2021-07-04 14:01:52</time>
      </trkpt>
      <trkpt lat="28.68758" lon="-14.01055">
        <ele>1.8</ele>
        <time>2021-07-04 14:01:53</time>
      </trkpt>
      <trkpt lat="28.68753" lon="-14.01055">
        <ele>2</ele>
        <time>2021-07-04 14:01:54</time>
      </trkpt>
      <trkpt lat="28.68747" lon="-14.01054">
        <ele>2</ele>
        <time>2021-07-04 14:01:55</time>
      </trkpt>
      <trkpt lat="28.68742" lon="-14.01053">
        <ele>2.2</ele>
        <time>2021-07-04 14:01:56</time>
      </trkpt>
      <trkpt lat="28.68737" lon="-14.01052">
        <ele>2.2</ele>
        <time>2021-07-04 14:01:57</time>
      </trkpt>
      <trkpt lat="28.68732" lon="-14.01052">
        <ele>2.2</ele>
        <time>2021-07-04 14:01:58</time>
      </trkpt>
      <trkpt lat="28.68728" lon="-14.01051">
        <ele>2.2</ele>
        <time>2021-07-04 14:01:59</time>
      </trkpt>
      <trkpt lat="28.68724" lon="-14.0105">
        <ele>2.4</ele>
        <time>2021-07-04 14:02:00</time>
      </trkpt>
      <trkpt lat="28.6872" lon="-14.0105">
        <ele>2.4</ele>
        <time>2021-07-04 14:02:01</time>
      </trkpt>
      <trkpt lat="28.68717" lon="-14.01049">
        <ele>2.4</ele>
        <time>2021-07-04 14:02:02</time>
      </trkpt>
      <trkpt lat="28.68714" lon="-14.01049">
        <ele>2.4</ele>
        <time>2021-07-04 14:02:03</time>
      </trkpt>
      <trkpt lat="28.68711" lon="-14.01048">
        <ele>2.4</ele>
        <time>2021-07-04 14:02:04</time>
      </trkpt>
      <trkpt lat="28.68708" lon="-14.01047">
        <ele>2.4</ele>
        <time>2021-07-04 14:02:05</time>
      </trkpt>
      <trkpt lat="28.68705" lon="-14.01047">
        <ele>2.4</ele>
        <time>2021-07-04 14:02:06</time>
      </trkpt>
      <trkpt lat="28.68703" lon="-14.01044">
        <ele>2.4</ele>
        <time>2021-07-04 14:02:07</time>
      </trkpt>
      <trkpt lat="28.68702" lon="-14.01042">
        <ele>2.2</ele>
        <time>2021-07-04 14:02:08</time>
      </trkpt>
      <trkpt lat="28.68703" lon="-14.01043">
        <ele>2.2</ele>
        <time>2021-07-04 14:02:09</time>
      </trkpt>
      <trkpt lat="28.68704" lon="-14.01043">
        <ele>2.2</ele>
        <time>2021-07-04 14:02:10</time>
      </trkpt>
      <trkpt lat="28.68704" lon="-14.01043">
        <ele>2.2</ele>
        <time>2021-07-04 14:02:11</time>
      </trkpt>
      <trkpt lat="28.68706" lon="-14.01044">
        <ele>2.4</ele>
        <time>2021-07-04 14:02:12</time>
      </trkpt>
      <trkpt lat="28.68707" lon="-14.01044">
        <ele>2.6</ele>
        <time>2021-07-04 14:02:13</time>
      </trkpt>
      <trkpt lat="28.68708" lon="-14.01044">
        <ele>2.6</ele>
        <time>2021-07-04 14:02:14</time>
      </trkpt>
      <trkpt lat="28.6871" lon="-14.01045">
        <ele>3</ele>
        <time>2021-07-04 14:02:15</time>
      </trkpt>
      <trkpt lat="28.68711" lon="-14.01046">
        <ele>3</ele>
        <time>2021-07-04 14:02:16</time>
      </trkpt>
      <trkpt lat="28.68712" lon="-14.01046">
        <ele>3.2</ele>
        <time>2021-07-04 14:02:17</time>
      </trkpt>
      <trkpt lat="28.68713" lon="-14.01046">
        <ele>3.2</ele>
        <time>2021-07-04 14:02:18</time>
      </trkpt>
      <trkpt lat="28.68713" lon="-14.01046">
        <ele>3.6</ele>
        <time>2021-07-04 14:02:19</time>
      </trkpt>
      <trkpt lat="28.68713" lon="-14.01046">
        <ele>3.6</ele>
        <time>2021-07-04 14:02:20</time>
      </trkpt>
      <trkpt lat="28.68716" lon="-14.01042">
        <ele>4.2</ele>
        <time>2021-07-04 14:02:21</time>
      </trkpt>
      <trkpt lat="28.68711" lon="-14.01041">
        <ele>2.8</ele>
        <time>2021-07-04 14:02:22</time>
      </trkpt>
      <trkpt lat="28.6871" lon="-14.01041">
        <ele>2.4</ele>
        <time>2021-07-04 14:02:23</time>
      </trkpt>
      <trkpt lat="28.68709" lon="-14.0104">
        <ele>2.2</ele>
        <time>2021-07-04 14:02:24</time>
      </trkpt>
      <trkpt lat="28.68708" lon="-14.0104">
        <ele>1.8</ele>
        <time>2021-07-04 14:02:25</time>
      </trkpt>
      <trkpt lat="28.68708" lon="-14.0104">
        <ele>1.4</ele>
        <time>2021-07-04 14:02:26</time>
      </trkpt>
      <trkpt lat="28.68707" lon="-14.01039">
        <ele>1.2</ele>
        <time>2021-07-04 14:02:27</time>
      </trkpt>
      <trkpt lat="28.68706" lon="-14.01039">
        <ele>1.2</ele>
        <time>2021-07-04 14:02:28</time>
      </trkpt>
      <trkpt lat="28.68705" lon="-14.01039">
        <ele>1</ele>
        <time>2021-07-04 14:02:29</time>
      </trkpt>
      <trkpt lat="28.68704" lon="-14.01039">
        <ele>1</ele>
        <time>2021-07-04 14:02:30</time>
      </trkpt>
      <trkpt lat="28.68704" lon="-14.01038">
        <ele>1</ele>
        <time>2021-07-04 14:02:31</time>
      </trkpt>
      <trkpt lat="28.68703" lon="-14.01037">
        <ele>1.2</ele>
        <time>2021-07-04 14:02:32</time>
      </trkpt>
      <trkpt lat="28.68703" lon="-14.01036">
        <ele>1.4</ele>
        <time>2021-07-04 14:02:33</time>
      </trkpt>
      <trkpt lat="28.68703" lon="-14.01036">
        <ele>1.4</ele>
        <time>2021-07-04 14:02:34</time>
      </trkpt>
      <trkpt lat="28.68703" lon="-14.01036">
        <ele>1.8</ele>
        <time>2021-07-04 14:02:35</time>
      </trkpt>
      <trkpt lat="28.68703" lon="-14.01036">
        <ele>3.8</ele>
        <time>2021-07-04 14:02:36</time>
      </trkpt>
      <trkpt lat="28.68702" lon="-14.01037">
        <ele>3.4</ele>
        <time>2021-07-04 14:02:37</time>
      </trkpt>
      <trkpt lat="28.68701" lon="-14.01037">
        <ele>3.4</ele>
        <time>2021-07-04 14:02:38</time>
      </trkpt>
      <trkpt lat="28.68701" lon="-14.01038">
        <ele>3</ele>
        <time>2021-07-04 14:02:39</time>
      </trkpt>
      <trkpt lat="28.687" lon="-14.01038">
        <ele>2.8</ele>
        <time>2021-07-04 14:02:40</time>
      </trkpt>
      <trkpt lat="28.68699" lon="-14.01038">
        <ele>2.6</ele>
        <time>2021-07-04 14:02:41</time>
      </trkpt>
      <trkpt lat="28.68699" lon="-14.01038">
        <ele>2.6</ele>
        <time>2021-07-04 14:02:42</time>
      </trkpt>
      <trkpt lat="28.68698" lon="-14.01039">
        <ele>2.2</ele>
        <time>2021-07-04 14:02:43</time>
      </trkpt>
      <trkpt lat="28.68697" lon="-14.0104">
        <ele>2.2</ele>
        <time>2021-07-04 14:02:44</time>
      </trkpt>
      <trkpt lat="28.68696" lon="-14.01041">
        <ele>2.2</ele>
        <time>2021-07-04 14:02:45</time>
      </trkpt>
      <trkpt lat="28.68695" lon="-14.01042">
        <ele>2.2</ele>
        <time>2021-07-04 14:02:46</time>
      </trkpt>
      <trkpt lat="28.68695" lon="-14.01043">
        <ele>2.2</ele>
        <time>2021-07-04 14:02:47</time>
      </trkpt>
      <trkpt lat="28.68694" lon="-14.01045">
        <ele>2.2</ele>
        <time>2021-07-04 14:02:48</time>
      </trkpt>
      <trkpt lat="28.68694" lon="-14.01046">
        <ele>2.2</ele>
        <time>2021-07-04 14:02:49</time>
      </trkpt>
      <trkpt lat="28.68693" lon="-14.01047">
        <ele>2.2</ele>
        <time>2021-07-04 14:02:50</time>
      </trkpt>
      <trkpt lat="28.68693" lon="-14.01047">
        <ele>2</ele>
        <time>2021-07-04 14:02:51</time>
      </trkpt>
      <trkpt lat="28.68693" lon="-14.01047">
        <ele>2</ele>
        <time>2021-07-04 14:02:52</time>
      </trkpt>
      <trkpt lat="28.68693" lon="-14.01047">
        <ele>1.8</ele>
        <time>2021-07-04 14:02:53</time>
      </trkpt>
      <trkpt lat="28.68691" lon="-14.01049">
        <ele>2</ele>
        <time>2021-07-04 14:02:54</time>
      </trkpt>
      <trkpt lat="28.6869" lon="-14.01051">
        <ele>2</ele>
        <time>2021-07-04 14:02:55</time>
      </trkpt>
      <trkpt lat="28.68689" lon="-14.01053">
        <ele>2</ele>
        <time>2021-07-04 14:19:29</time>
      </trkpt>
      <trkpt lat="28.68689" lon="-14.01056">
        <ele>2</ele>
        <time>2021-07-04 14:19:30</time>
      </trkpt>
      <trkpt lat="28.68689" lon="-14.0106">
        <ele>2</ele>
        <time>2021-07-04 14:19:31</time>
      </trkpt>
      <trkpt lat="28.68688" lon="-14.01065">
        <ele>2</ele>
        <time>2021-07-04 14:19:32</time>
      </trkpt>
      <trkpt lat="28.68687" lon="-14.0107">
        <ele>1.6</ele>
        <time>2021-07-04 14:19:33</time>
      </trkpt>
      <trkpt lat="28.68687" lon="-14.01075">
        <ele>1.6</ele>
        <time>2021-07-04 14:19:34</time>
      </trkpt>
      <trkpt lat="28.68686" lon="-14.01081">
        <ele>1.4</ele>
        <time>2021-07-04 14:19:35</time>
      </trkpt>
      <trkpt lat="28.68686" lon="-14.01086">
        <ele>1.4</ele>
        <time>2021-07-04 14:19:36</time>
      </trkpt>
      <trkpt lat="28.68685" lon="-14.01092">
        <ele>1.4</ele>
        <time>2021-07-04 14:19:37</time>
      </trkpt>
      <trkpt lat="28.68684" lon="-14.01097">
        <ele>1.2</ele>
        <time>2021-07-04 14:19:38</time>
      </trkpt>
      <trkpt lat="28.68683" lon="-14.01102">
        <ele>1.2</ele>
        <time>2021-07-04 14:19:39</time>
      </trkpt>
      <trkpt lat="28.68683" lon="-14.01108">
        <ele>1.2</ele>
        <time>2021-07-04 14:19:40</time>
      </trkpt>
      <trkpt lat="28.68683" lon="-14.01114">
        <ele>1.2</ele>
        <time>2021-07-04 14:19:41</time>
      </trkpt>
      <trkpt lat="28.68682" lon="-14.0112">
        <ele>1.2</ele>
        <time>2021-07-04 14:19:42</time>
      </trkpt>
      <trkpt lat="28.68681" lon="-14.01126">
        <ele>0.8</ele>
        <time>2021-07-04 14:19:43</time>
      </trkpt>
      <trkpt lat="28.6868" lon="-14.01131">
        <ele>0.8</ele>
        <time>2021-07-04 14:19:44</time>
      </trkpt>
      <trkpt lat="28.6868" lon="-14.01137">
        <ele>0.8</ele>
        <time>2021-07-04 14:19:45</time>
      </trkpt>
      <trkpt lat="28.6868" lon="-14.01143">
        <ele>0.8</ele>
        <time>2021-07-04 14:19:46</time>
      </trkpt>
      <trkpt lat="28.68679" lon="-14.01149">
        <ele>0.6</ele>
        <time>2021-07-04 14:20:33</time>
      </trkpt>
      <trkpt lat="28.68679" lon="-14.01155">
        <ele>0.6</ele>
        <time>2021-07-04 14:20:34</time>
      </trkpt>
      <trkpt lat="28.68678" lon="-14.0116">
        <ele>0.6</ele>
        <time>2021-07-04 14:20:35</time>
      </trkpt>
      <trkpt lat="28.68677" lon="-14.01166">
        <ele>0.2</ele>
        <time>2021-07-04 14:20:36</time>
      </trkpt>
      <trkpt lat="28.68677" lon="-14.01172">
        <time>2021-07-04 14:20:37</time>
      </trkpt>
      <trkpt lat="28.68677" lon="-14.01177">
        <ele>-0.4</ele>
        <time>2021-07-04 14:20:38</time>
      </trkpt>
      <trkpt lat="28.68676" lon="-14.01182">
        <ele>-0.8</ele>
        <time>2021-07-04 14:20:39</time>
      </trkpt>
      <trkpt lat="28.68675" lon="-14.01188">
        <ele>-1</ele>
        <time>2021-07-04 14:20:40</time>
      </trkpt>
      <trkpt lat="28.68675" lon="-14.01192">
        <ele>-1</ele>
        <time>2021-07-04 14:20:41</time>
      </trkpt>
      <trkpt lat="28.68675" lon="-14.01196">
        <ele>-1.2</ele>
        <time>2021-07-04 14:20:42</time>
      </trkpt>
      <trkpt lat="28.68675" lon="-14.01199">
        <ele>-1.2</ele>
        <time>2021-07-04 14:20:43</time>
      </trkpt>
      <trkpt lat="28.68674" lon="-14.01203">
        <ele>-1.2</ele>
        <time>2021-07-04 14:20:44</time>
      </trkpt>
      <trkpt lat="28.68674" lon="-14.01206">
        <ele>-1.2</ele>
        <time>2021-07-04 14:20:45</time>
      </trkpt>
      <trkpt lat="28.68673" lon="-14.01209">
        <ele>-1.2</ele>
        <time>2021-07-04 14:20:46</time>
      </trkpt>
      <trkpt lat="28.68672" lon="-14.01212">
        <ele>-1.2</ele>
        <time>2021-07-04 14:20:47</time>
      </trkpt>
      <trkpt lat="28.68671" lon="-14.01215">
        <ele>-1.2</ele>
        <time>2021-07-04 14:20:48</time>
      </trkpt>
      <trkpt lat="28.68668" lon="-14.01217">
        <ele>-1.2</ele>
        <time>2021-07-04 14:20:49</time>
      </trkpt>
      <trkpt lat="28.68666" lon="-14.01219">
        <ele>-1.2</ele>
        <time>2021-07-04 14:20:50</time>
      </trkpt>
      <trkpt lat="28.68662" lon="-14.01219">
        <ele>-1.2</ele>
        <time>2021-07-04 14:20:58</time>
      </trkpt>
      <trkpt lat="28.68659" lon="-14.0122">
        <ele>-1.2</ele>
        <time>2021-07-04 14:20:59</time>
      </trkpt>
      <trkpt lat="28.68656" lon="-14.0122">
        <ele>-1.6</ele>
        <time>2021-07-04 14:21:00</time>
      </trkpt>
      <trkpt lat="28.68652" lon="-14.01221">
        <ele>-1.6</ele>
        <time>2021-07-04 14:21:01</time>
      </trkpt>
      <trkpt lat="28.68649" lon="-14.01221">
        <ele>-1.8</ele>
        <time>2021-07-04 14:21:02</time>
      </trkpt>
      <trkpt lat="28.68646" lon="-14.0122">
        <ele>-1.8</ele>
        <time>2021-07-04 14:21:03</time>
      </trkpt>
      <trkpt lat="28.68644" lon="-14.0122">
        <ele>-1.8</ele>
        <time>2021-07-04 14:21:04</time>
      </trkpt>
      <trkpt lat="28.68641" lon="-14.0122">
        <ele>-1.8</ele>
        <time>2021-07-04 14:21:05</time>
      </trkpt>
      <trkpt lat="28.68638" lon="-14.01219">
        <ele>-1.8</ele>
        <time>2021-07-04 14:21:06</time>
      </trkpt>
      <trkpt lat="28.68636" lon="-14.01219">
        <ele>-1.6</ele>
        <time>2021-07-04 14:21:07</time>
      </trkpt>
      <trkpt lat="28.68633" lon="-14.01218">
        <ele>-1.6</ele>
        <time>2021-07-04 14:21:08</time>
      </trkpt>
      <trkpt lat="28.68632" lon="-14.01217">
        <ele>-1.6</ele>
        <time>2021-07-04 14:21:09</time>
      </trkpt>
      <trkpt lat="28.6863" lon="-14.01215">
        <ele>-1.6</ele>
        <time>2021-07-04 14:21:10</time>
      </trkpt>
      <trkpt lat="28.68629" lon="-14.01212">
        <ele>-1.2</ele>
        <time>2021-07-04 14:21:11</time>
      </trkpt>
      <trkpt lat="28.68628" lon="-14.0121">
        <ele>-1.2</ele>
        <time>2021-07-04 14:21:12</time>
      </trkpt>
      <trkpt lat="28.68627" lon="-14.01207">
        <ele>-1</ele>
        <time>2021-07-04 14:21:13</time>
      </trkpt>
      <trkpt lat="28.68626" lon="-14.01205">
        <ele>-1</ele>
        <time>2021-07-04 14:21:14</time>
      </trkpt>
      <trkpt lat="28.68625" lon="-14.01202">
        <ele>-0.8</ele>
        <time>2021-07-04 14:21:15</time>
      </trkpt>
      <trkpt lat="28.68624" lon="-14.012">
        <ele>-0.8</ele>
        <time>2021-07-04 14:21:16</time>
      </trkpt>
      <trkpt lat="28.68623" lon="-14.01197">
        <ele>-0.8</ele>
        <time>2021-07-04 14:21:17</time>
      </trkpt>
      <trkpt lat="28.68622" lon="-14.01194">
        <ele>-0.8</ele>
        <time>2021-07-04 14:21:18</time>
      </trkpt>
      <trkpt lat="28.68621" lon="-14.01192">
        <ele>-0.8</ele>
        <time>2021-07-04 14:21:19</time>
      </trkpt>
      <trkpt lat="28.6862" lon="-14.01189">
        <ele>-1.2</ele>
        <time>2021-07-04 14:21:20</time>
      </trkpt>
      <trkpt lat="28.68619" lon="-14.01186">
        <ele>-1.2</ele>
        <time>2021-07-04 14:21:21</time>
      </trkpt>
      <trkpt lat="28.68618" lon="-14.01183">
        <ele>-1.2</ele>
        <time>2021-07-04 14:21:22</time>
      </trkpt>
      <trkpt lat="28.68617" lon="-14.01181">
        <ele>-1.2</ele>
        <time>2021-07-04 14:21:23</time>
      </trkpt>
      <trkpt lat="28.68616" lon="-14.01178">
        <ele>-1.2</ele>
        <time>2021-07-04 14:21:24</time>
      </trkpt>
      <trkpt lat="28.68615" lon="-14.01175">
        <ele>-1.4</ele>
        <time>2021-07-04 14:21:25</time>
      </trkpt>
      <trkpt lat="28.68615" lon="-14.01171">
        <ele>-1.4</ele>
        <time>2021-07-04 14:21:26</time>
      </trkpt>
      <trkpt lat="28.68614" lon="-14.01168">
        <ele>-1.4</ele>
        <time>2021-07-04 14:21:27</time>
      </trkpt>
      <trkpt lat="28.68613" lon="-14.01164">
        <ele>-1</ele>
        <time>2021-07-04 14:21:28</time>
      </trkpt>
      <trkpt lat="28.68611" lon="-14.01161">
        <ele>-1</ele>
        <time>2021-07-04 14:21:29</time>
      </trkpt>
      <trkpt lat="28.6861" lon="-14.01157">
        <ele>-0.8</ele>
        <time>2021-07-04 14:21:30</time>
      </trkpt>
      <trkpt lat="28.68609" lon="-14.01154">
        <ele>-0.8</ele>
        <time>2021-07-04 14:21:31</time>
      </trkpt>
      <trkpt lat="28.68607" lon="-14.0115">
        <ele>-0.8</ele>
        <time>2021-07-04 14:21:32</time>
      </trkpt>
      <trkpt lat="28.68606" lon="-14.01146">
        <ele>-0.8</ele>
        <time>2021-07-04 14:21:33</time>
      </trkpt>
      <trkpt lat="28.68604" lon="-14.01142">
        <ele>-0.8</ele>
        <time>2021-07-04 14:21:34</time>
      </trkpt>
      <trkpt lat="28.68603" lon="-14.01139">
        <ele>-0.8</ele>
        <time>2021-07-04 14:21:35</time>
      </trkpt>
      <trkpt lat="28.68602" lon="-14.01135">
        <ele>-0.8</ele>
        <time>2021-07-04 14:21:36</time>
      </trkpt>
      <trkpt lat="28.686" lon="-14.01131">
        <ele>-0.8</ele>
        <time>2021-07-04 14:21:37</time>
      </trkpt>
      <trkpt lat="28.68599" lon="-14.01127">
        <ele>-0.8</ele>
        <time>2021-07-04 14:21:38</time>
      </trkpt>
      <trkpt lat="28.68598" lon="-14.01123">
        <ele>-0.8</ele>
        <time>2021-07-04 14:21:39</time>
      </trkpt>
      <trkpt lat="28.68597" lon="-14.01119">
        <ele>-0.8</ele>
        <time>2021-07-04 14:21:40</time>
      </trkpt>
      <trkpt lat="28.68595" lon="-14.01115">
        <ele>-0.8</ele>
        <time>2021-07-04 14:21:41</time>
      </trkpt>
      <trkpt lat="28.68594" lon="-14.01111">
        <ele>-0.4</ele>
        <time>2021-07-04 14:21:42</time>
      </trkpt>
      <trkpt lat="28.68593" lon="-14.01107">
        <ele>-0.4</ele>
        <time>2021-07-04 14:21:43</time>
      </trkpt>
      <trkpt lat="28.68592" lon="-14.01104">
        <ele>-0.4</ele>
        <time>2021-07-04 14:21:44</time>
      </trkpt>
      <trkpt lat="28.6859" lon="-14.011">
        <ele>-0.4</ele>
        <time>2021-07-04 14:21:45</time>
      </trkpt>
      <trkpt lat="28.68589" lon="-14.01096">
        <ele>-0.4</ele>
        <time>2021-07-04 14:21:46</time>
      </trkpt>
      <trkpt lat="28.68588" lon="-14.01093">
        <ele>-0.4</ele>
        <time>2021-07-04 14:21:47</time>
      </trkpt>
      <trkpt lat="28.68587" lon="-14.0109">
        <ele>-0.2</ele>
        <time>2021-07-04 14:21:48</time>
      </trkpt>
      <trkpt lat="28.68586" lon="-14.01086">
        <ele>-0.2</ele>
        <time>2021-07-04 14:21:49</time>
      </trkpt>
      <trkpt lat="28.68585" lon="-14.01083">
        <time>2021-07-04 14:21:50</time>
      </trkpt>
      <trkpt lat="28.68584" lon="-14.01079">
        <time>2021-07-04 14:21:51</time>
      </trkpt>
      <trkpt lat="28.68584" lon="-14.01076">
        <time>2021-07-04 14:21:52</time>
      </trkpt>
      <trkpt lat="28.68583" lon="-14.01072">
        <ele>0.2</ele>
        <time>2021-07-04 14:21:53</time>
      </trkpt>
      <trkpt lat="28.68583" lon="-14.01069">
        <ele>0.2</ele>
        <time>2021-07-04 14:21:54</time>
      </trkpt>
      <trkpt lat="28.68583" lon="-14.01065">
        <ele>0.2</ele>
        <time>2021-07-04 14:21:55</time>
      </trkpt>
      <trkpt lat="28.68582" lon="-14.01061">
        <ele>0.6</ele>
        <time>2021-07-04 14:21:56</time>
      </trkpt>
      <trkpt lat="28.68582" lon="-14.01058">
        <ele>0.6</ele>
        <time>2021-07-04 14:21:57</time>
      </trkpt>
      <trkpt lat="28.68582" lon="-14.01054">
        <ele>0.8</ele>
        <time>2021-07-04 14:21:58</time>
      </trkpt>
      <trkpt lat="28.68582" lon="-14.0105">
        <ele>0.8</ele>
        <time>2021-07-04 14:21:59</time>
      </trkpt>
      <trkpt lat="28.68581" lon="-14.01046">
        <ele>0.8</ele>
        <time>2021-07-04 14:22:00</time>
      </trkpt>
      <trkpt lat="28.68581" lon="-14.01043">
        <ele>0.8</ele>
        <time>2021-07-04 14:22:01</time>
      </trkpt>
      <trkpt lat="28.68581" lon="-14.01039">
        <ele>0.8</ele>
        <time>2021-07-04 14:22:02</time>
      </trkpt>
      <trkpt lat="28.6858" lon="-14.01036">
        <ele>0.8</ele>
        <time>2021-07-04 14:22:03</time>
      </trkpt>
      <trkpt lat="28.6858" lon="-14.01034">
        <ele>1.2</ele>
        <time>2021-07-04 14:22:04</time>
      </trkpt>
      <trkpt lat="28.68579" lon="-14.01031">
        <ele>1.4</ele>
        <time>2021-07-04 14:22:05</time>
      </trkpt>
      <trkpt lat="28.68578" lon="-14.0103">
        <ele>1.4</ele>
        <time>2021-07-04 14:22:06</time>
      </trkpt>
      <trkpt lat="28.68576" lon="-14.01028">
        <ele>1.6</ele>
        <time>2021-07-04 14:22:07</time>
      </trkpt>
      <trkpt lat="28.68572" lon="-14.01028">
        <ele>1.6</ele>
        <time>2021-07-04 14:22:08</time>
      </trkpt>
      <trkpt lat="28.68569" lon="-14.01028">
        <ele>1.8</ele>
        <time>2021-07-04 14:22:09</time>
      </trkpt>
      <trkpt lat="28.68565" lon="-14.0103">
        <ele>1.8</ele>
        <time>2021-07-04 14:22:10</time>
      </trkpt>
      <trkpt lat="28.68563" lon="-14.01033">
        <ele>2</ele>
        <time>2021-07-04 14:22:11</time>
      </trkpt>
      <trkpt lat="28.68561" lon="-14.01038">
        <ele>2</ele>
        <time>2021-07-04 14:22:12</time>
      </trkpt>
      <trkpt lat="28.68561" lon="-14.01043">
        <ele>2</ele>
        <time>2021-07-04 14:22:13</time>
      </trkpt>
      <trkpt lat="28.6856" lon="-14.01048">
        <ele>2</ele>
        <time>2021-07-04 14:22:14</time>
      </trkpt>
      <trkpt lat="28.6856" lon="-14.01053">
        <ele>2</ele>
        <time>2021-07-04 14:22:15</time>
      </trkpt>
      <trkpt lat="28.68559" lon="-14.01058">
        <ele>2</ele>
        <time>2021-07-04 14:22:16</time>
      </trkpt>
      <trkpt lat="28.68559" lon="-14.01064">
        <ele>2</ele>
        <time>2021-07-04 14:22:17</time>
      </trkpt>
      <trkpt lat="28.68559" lon="-14.01069">
        <ele>2</ele>
        <time>2021-07-04 14:22:18</time>
      </trkpt>
      <trkpt lat="28.68558" lon="-14.01074">
        <ele>2</ele>
        <time>2021-07-04 14:22:19</time>
      </trkpt>
      <trkpt lat="28.68556" lon="-14.01079">
        <ele>2</ele>
        <time>2021-07-04 14:22:20</time>
      </trkpt>
      <trkpt lat="28.68556" lon="-14.01083">
        <ele>2</ele>
        <time>2021-07-04 14:22:21</time>
      </trkpt>
      <trkpt lat="28.68555" lon="-14.01087">
        <ele>2</ele>
        <time>2021-07-04 14:22:22</time>
      </trkpt>
      <trkpt lat="28.68554" lon="-14.01091">
        <ele>1.8</ele>
        <time>2021-07-04 14:22:23</time>
      </trkpt>
      <trkpt lat="28.68553" lon="-14.01094">
        <ele>1.8</ele>
        <time>2021-07-04 14:22:24</time>
      </trkpt>
      <trkpt lat="28.68554" lon="-14.01098">
        <ele>1.6</ele>
        <time>2021-07-04 14:22:25</time>
      </trkpt>
      <trkpt lat="28.68554" lon="-14.01103">
        <ele>1.6</ele>
        <time>2021-07-04 14:22:26</time>
      </trkpt>
      <trkpt lat="28.68556" lon="-14.01107">
        <ele>1.6</ele>
        <time>2021-07-04 14:22:27</time>
      </trkpt>
      <trkpt lat="28.68556" lon="-14.01111">
        <ele>1.4</ele>
        <time>2021-07-04 14:22:28</time>
      </trkpt>
      <trkpt lat="28.68556" lon="-14.01113">
        <ele>1.4</ele>
        <time>2021-07-04 14:22:29</time>
      </trkpt>
      <trkpt lat="28.68555" lon="-14.01115">
        <ele>1.2</ele>
        <time>2021-07-04 14:22:30</time>
      </trkpt>
      <trkpt lat="28.68553" lon="-14.01117">
        <ele>1.2</ele>
        <time>2021-07-04 14:22:31</time>
      </trkpt>
      <trkpt lat="28.68552" lon="-14.0112">
        <ele>1.2</ele>
        <time>2021-07-04 14:22:32</time>
      </trkpt>
      <trkpt lat="28.68548" lon="-14.01122">
        <ele>1</ele>
        <time>2021-07-04 14:22:33</time>
      </trkpt>
      <trkpt lat="28.68544" lon="-14.01124">
        <ele>1</ele>
        <time>2021-07-04 14:22:34</time>
      </trkpt>
      <trkpt lat="28.6854" lon="-14.01126">
        <ele>0.6</ele>
        <time>2021-07-04 14:22:35</time>
      </trkpt>
      <trkpt lat="28.68537" lon="-14.01127">
        <ele>0.6</ele>
        <time>2021-07-04 14:22:36</time>
      </trkpt>
      <trkpt lat="28.68534" lon="-14.01129">
        <ele>0.6</ele>
        <time>2021-07-04 14:22:37</time>
      </trkpt>
      <trkpt lat="28.6853" lon="-14.01131">
        <ele>0.4</ele>
        <time>2021-07-04 14:22:38</time>
      </trkpt>
      <trkpt lat="28.68527" lon="-14.01134">
        <ele>0.4</ele>
        <time>2021-07-04 14:22:39</time>
      </trkpt>
      <trkpt lat="28.68523" lon="-14.01135">
        <ele>0.4</ele>
        <time>2021-07-04 14:22:40</time>
      </trkpt>
      <trkpt lat="28.6852" lon="-14.01137">
        <ele>0.4</ele>
        <time>2021-07-04 14:22:41</time>
      </trkpt>
      <trkpt lat="28.68518" lon="-14.01138">
        <ele>0.2</ele>
        <time>2021-07-04 14:22:42</time>
      </trkpt>
      <trkpt lat="28.68515" lon="-14.01139">
        <ele>0.2</ele>
        <time>2021-07-04 14:22:43</time>
      </trkpt>
      <trkpt lat="28.68512" lon="-14.0114">
        <ele>0.2</ele>
        <time>2021-07-04 14:22:44</time>
      </trkpt>
      <trkpt lat="28.68509" lon="-14.01142">
        <ele>0.2</ele>
        <time>2021-07-04 14:22:45</time>
      </trkpt>
      <trkpt lat="28.68506" lon="-14.01143">
        <ele>0.2</ele>
        <time>2021-07-04 14:22:46</time>
      </trkpt>
      <trkpt lat="28.68504" lon="-14.01145">
        <ele>0.2</ele>
        <time>2021-07-04 14:22:47</time>
      </trkpt>
      <trkpt lat="28.68501" lon="-14.01147">
        <ele>0.2</ele>
        <time>2021-07-04 14:22:48</time>
      </trkpt>
      <trkpt lat="28.68498" lon="-14.01148">
        <ele>0.2</ele>
        <time>2021-07-04 14:22:49</time>
      </trkpt>
      <trkpt lat="28.68496" lon="-14.0115">
        <ele>0.2</ele>
        <time>2021-07-04 14:22:50</time>
      </trkpt>
      <trkpt lat="28.68493" lon="-14.01151">
        <ele>0.2</ele>
        <time>2021-07-04 14:22:51</time>
      </trkpt>
      <trkpt lat="28.6849" lon="-14.01153">
        <ele>0.2</ele>
        <time>2021-07-04 14:22:52</time>
      </trkpt>
      <trkpt lat="28.68487" lon="-14.01155">
        <ele>0.2</ele>
        <time>2021-07-04 14:22:53</time>
      </trkpt>
      <trkpt lat="28.68485" lon="-14.01156">
        <time>2021-07-04 14:22:54</time>
      </trkpt>
      <trkpt lat="28.68482" lon="-14.01157">
        <time>2021-07-04 14:22:55</time>
      </trkpt>
      <trkpt lat="28.6848" lon="-14.01158">
        <ele>-0.4</ele>
        <time>2021-07-04 14:22:56</time>
      </trkpt>
      <trkpt lat="28.68478" lon="-14.01159">
        <ele>-0.4</ele>
        <time>2021-07-04 14:22:57</time>
      </trkpt>
      <trkpt lat="28.68477" lon="-14.0116">
        <ele>-0.4</ele>
        <time>2021-07-04 14:22:58</time>
      </trkpt>
      <trkpt lat="28.68475" lon="-14.01161">
        <ele>-0.4</ele>
        <time>2021-07-04 14:22:59</time>
      </trkpt>
      <trkpt lat="28.68473" lon="-14.01161">
        <ele>-0.4</ele>
        <time>2021-07-04 14:23:00</time>
      </trkpt>
      <trkpt lat="28.6847" lon="-14.01162">
        <ele>-0.2</ele>
        <time>2021-07-04 14:23:01</time>
      </trkpt>
      <trkpt lat="28.68467" lon="-14.01163">
        <ele>-0.2</ele>
        <time>2021-07-04 14:23:02</time>
      </trkpt>
      <trkpt lat="28.68464" lon="-14.01165">
        <ele>0.2</ele>
        <time>2021-07-04 14:23:03</time>
      </trkpt>
      <trkpt lat="28.68462" lon="-14.01166">
        <ele>0.2</ele>
        <time>2021-07-04 14:23:04</time>
      </trkpt>
      <trkpt lat="28.68459" lon="-14.01167">
        <ele>0.2</ele>
        <time>2021-07-04 14:23:05</time>
      </trkpt>
      <trkpt lat="28.68456" lon="-14.01168">
        <ele>0.2</ele>
        <time>2021-07-04 14:23:06</time>
      </trkpt>
      <trkpt lat="28.68454" lon="-14.01169">
        <ele>0.2</ele>
        <time>2021-07-04 14:23:07</time>
      </trkpt>
      <trkpt lat="28.68452" lon="-14.01169">
        <ele>0.2</ele>
        <time>2021-07-04 14:23:08</time>
      </trkpt>
      <trkpt lat="28.68451" lon="-14.01169">
        <ele>0.2</ele>
        <time>2021-07-04 14:23:09</time>
      </trkpt>
      <trkpt lat="28.68449" lon="-14.01169">
        <ele>0.2</ele>
        <time>2021-07-04 14:23:10</time>
      </trkpt>
      <trkpt lat="28.68448" lon="-14.01167">
        <ele>0.2</ele>
        <time>2021-07-04 14:23:11</time>
      </trkpt>
      <trkpt lat="28.68448" lon="-14.01166">
        <ele>0.2</ele>
        <time>2021-07-04 14:23:12</time>
      </trkpt>
      <trkpt lat="28.68446" lon="-14.01164">
        <ele>0.4</ele>
        <time>2021-07-04 14:23:13</time>
      </trkpt>
      <trkpt lat="28.68445" lon="-14.0116">
        <ele>0.4</ele>
        <time>2021-07-04 14:23:14</time>
      </trkpt>
      <trkpt lat="28.68444" lon="-14.01157">
        <ele>0.4</ele>
        <time>2021-07-04 14:23:15</time>
      </trkpt>
      <trkpt lat="28.68443" lon="-14.01153">
        <ele>0.6</ele>
        <time>2021-07-04 14:23:16</time>
      </trkpt>
      <trkpt lat="28.68443" lon="-14.0115">
        <ele>0.8</ele>
        <time>2021-07-04 14:23:17</time>
      </trkpt>
      <trkpt lat="28.68443" lon="-14.01146">
        <ele>0.8</ele>
        <time>2021-07-04 14:23:18</time>
      </trkpt>
      <trkpt lat="28.68441" lon="-14.01144">
        <ele>0.8</ele>
        <time>2021-07-04 14:23:19</time>
      </trkpt>
      <trkpt lat="28.6844" lon="-14.01143">
        <ele>0.8</ele>
        <time>2021-07-04 14:23:20</time>
      </trkpt>
      <trkpt lat="28.68438" lon="-14.01142">
        <ele>0.8</ele>
        <time>2021-07-04 14:23:21</time>
      </trkpt>
      <trkpt lat="28.68436" lon="-14.01142">
        <ele>0.8</ele>
        <time>2021-07-04 14:23:22</time>
      </trkpt>
      <trkpt lat="28.68434" lon="-14.01143">
        <ele>0.8</ele>
        <time>2021-07-04 14:23:23</time>
      </trkpt>
      <trkpt lat="28.68432" lon="-14.01143">
        <ele>0.8</ele>
        <time>2021-07-04 14:23:24</time>
      </trkpt>
      <trkpt lat="28.6843" lon="-14.01144">
        <ele>0.8</ele>
        <time>2021-07-04 14:23:25</time>
      </trkpt>
      <trkpt lat="28.68428" lon="-14.01144">
        <ele>0.8</ele>
        <time>2021-07-04 14:23:26</time>
      </trkpt>
      <trkpt lat="28.68426" lon="-14.01144">
        <ele>0.8</ele>
        <time>2021-07-04 14:23:27</time>
      </trkpt>
      <trkpt lat="28.68425" lon="-14.01145">
        <ele>0.8</ele>
        <time>2021-07-04 14:23:28</time>
      </trkpt>
      <trkpt lat="28.68425" lon="-14.01145">
        <ele>0.8</ele>
        <time>2021-07-04 14:23:29</time>
      </trkpt>
      <trkpt lat="28.68426" lon="-14.01145">
        <ele>0.8</ele>
        <time>2021-07-04 14:23:30</time>
      </trkpt>
      <trkpt lat="28.68426" lon="-14.01145">
        <ele>0.8</ele>
        <time>2021-07-04 14:23:31</time>
      </trkpt>
      <trkpt lat="28.68426" lon="-14.01145">
        <ele>0.8</ele>
        <time>2021-07-04 14:23:32</time>
      </trkpt>
      <trkpt lat="28.68429" lon="-14.01143">
        <ele>0.8</ele>
        <time>2021-07-04 14:23:33</time>
      </trkpt>
      <trkpt lat="28.6843" lon="-14.01142">
        <ele>0.8</ele>
        <time>2021-07-04 14:23:34</time>
      </trkpt>
      <trkpt lat="28.68431" lon="-14.01142">
        <ele>1</ele>
        <time>2021-07-04 14:23:35</time>
      </trkpt>
      <trkpt lat="28.68432" lon="-14.01142">
        <ele>1</ele>
        <time>2021-07-04 14:23:36</time>
      </trkpt>
      <trkpt lat="28.68433" lon="-14.01141">
        <ele>1.4</ele>
        <time>2021-07-04 14:23:37</time>
      </trkpt>
      <trkpt lat="28.68435" lon="-14.01141">
        <ele>1.4</ele>
        <time>2021-07-04 14:23:38</time>
      </trkpt>
      <trkpt lat="28.68436" lon="-14.01141">
        <ele>1.6</ele>
        <time>2021-07-04 14:23:39</time>
      </trkpt>
      <trkpt lat="28.68438" lon="-14.0114">
        <ele>1.6</ele>
        <time>2021-07-04 14:23:40</time>
      </trkpt>
      <trkpt lat="28.68439" lon="-14.01141">
        <ele>1.6</ele>
        <time>2021-07-04 14:23:41</time>
      </trkpt>
      <trkpt lat="28.68441" lon="-14.01141">
        <ele>1.6</ele>
        <time>2021-07-04 14:23:42</time>
      </trkpt>
      <trkpt lat="28.68443" lon="-14.01141">
        <ele>1.6</ele>
        <time>2021-07-04 14:23:43</time>
      </trkpt>
      <trkpt lat="28.68444" lon="-14.0114">
        <ele>1.6</ele>
        <time>2021-07-04 14:23:44</time>
      </trkpt>
      <trkpt lat="28.68445" lon="-14.01138">
        <ele>1.2</ele>
        <time>2021-07-04 14:23:45</time>
      </trkpt>
      <trkpt lat="28.68446" lon="-14.01135">
        <ele>1.2</ele>
        <time>2021-07-04 14:23:46</time>
      </trkpt>
      <trkpt lat="28.68448" lon="-14.01133">
        <ele>1.2</ele>
        <time>2021-07-04 14:23:47</time>
      </trkpt>
      <trkpt lat="28.68449" lon="-14.01129">
        <ele>1.2</ele>
        <time>2021-07-04 14:23:48</time>
      </trkpt>
      <trkpt lat="28.68451" lon="-14.01126">
        <ele>1.2</ele>
        <time>2021-07-04 14:23:49</time>
      </trkpt>
      <trkpt lat="28.68452" lon="-14.01123">
        <ele>1.2</ele>
        <time>2021-07-04 14:23:50</time>
      </trkpt>
      <trkpt lat="28.68452" lon="-14.01119">
        <ele>1.2</ele>
        <time>2021-07-04 14:23:51</time>
      </trkpt>
      <trkpt lat="28.68453" lon="-14.01116">
        <ele>1.2</ele>
        <time>2021-07-04 14:23:52</time>
      </trkpt>
      <trkpt lat="28.68454" lon="-14.01112">
        <ele>1.2</ele>
        <time>2021-07-04 14:23:53</time>
      </trkpt>
      <trkpt lat="28.68454" lon="-14.01109">
        <ele>1.2</ele>
        <time>2021-07-04 14:23:54</time>
      </trkpt>
      <trkpt lat="28.68454" lon="-14.01107">
        <ele>1.2</ele>
        <time>2021-07-04 14:23:55</time>
      </trkpt>
      <trkpt lat="28.68454" lon="-14.01103">
        <ele>1.2</ele>
        <time>2021-07-04 14:23:56</time>
      </trkpt>
      <trkpt lat="28.68453" lon="-14.01098">
        <ele>1.2</ele>
        <time>2021-07-04 14:23:57</time>
      </trkpt>
      <trkpt lat="28.68452" lon="-14.01094">
        <ele>1.2</ele>
        <time>2021-07-04 14:23:58</time>
      </trkpt>
      <trkpt lat="28.68451" lon="-14.01091">
        <ele>1.6</ele>
        <time>2021-07-04 14:23:59</time>
      </trkpt>
      <trkpt lat="28.6845" lon="-14.01087">
        <ele>1.6</ele>
        <time>2021-07-04 14:24:00</time>
      </trkpt>
      <trkpt lat="28.68449" lon="-14.01083">
        <ele>2</ele>
        <time>2021-07-04 14:24:01</time>
      </trkpt>
      <trkpt lat="28.68448" lon="-14.01079">
        <ele>2</ele>
        <time>2021-07-04 14:24:02</time>
      </trkpt>
      <trkpt lat="28.68446" lon="-14.01076">
        <ele>2.2</ele>
        <time>2021-07-04 14:24:03</time>
      </trkpt>
      <trkpt lat="28.68445" lon="-14.01073">
        <ele>2.2</ele>
        <time>2021-07-04 14:24:04</time>
      </trkpt>
      <trkpt lat="28.68443" lon="-14.01069">
        <ele>2.4</ele>
        <time>2021-07-04 14:24:05</time>
      </trkpt>
      <trkpt lat="28.6844" lon="-14.01067">
        <ele>2.4</ele>
        <time>2021-07-04 14:24:06</time>
      </trkpt>
      <trkpt lat="28.68437" lon="-14.01066">
        <ele>2.4</ele>
        <time>2021-07-04 14:24:07</time>
      </trkpt>
      <trkpt lat="28.68434" lon="-14.01067">
        <ele>2.4</ele>
        <time>2021-07-04 14:24:08</time>
      </trkpt>
      <trkpt lat="28.6843" lon="-14.01069">
        <ele>2.6</ele>
        <time>2021-07-04 14:24:09</time>
      </trkpt>
      <trkpt lat="28.68427" lon="-14.01072">
        <ele>2.6</ele>
        <time>2021-07-04 14:24:10</time>
      </trkpt>
      <trkpt lat="28.68424" lon="-14.01074">
        <ele>2.6</ele>
        <time>2021-07-04 14:24:13</time>
      </trkpt>
      <trkpt lat="28.68421" lon="-14.01077">
        <ele>3</ele>
        <time>2021-07-04 14:24:14</time>
      </trkpt>
      <trkpt lat="28.68418" lon="-14.01078">
        <ele>3</ele>
        <time>2021-07-04 14:24:15</time>
      </trkpt>
      <trkpt lat="28.68415" lon="-14.01079">
        <ele>3.2</ele>
        <time>2021-07-04 14:24:16</time>
      </trkpt>
      <trkpt lat="28.68411" lon="-14.01079">
        <ele>3.2</ele>
        <time>2021-07-04 14:24:17</time>
      </trkpt>
      <trkpt lat="28.68408" lon="-14.01079">
        <ele>3.6</ele>
        <time>2021-07-04 14:24:18</time>
      </trkpt>
      <trkpt lat="28.68404" lon="-14.01079">
        <ele>3.6</ele>
        <time>2021-07-04 14:24:19</time>
      </trkpt>
      <trkpt lat="28.68401" lon="-14.01078">
        <ele>3.8</ele>
        <time>2021-07-04 14:24:20</time>
      </trkpt>
      <trkpt lat="28.68398" lon="-14.01078">
        <ele>3.8</ele>
        <time>2021-07-04 14:24:21</time>
      </trkpt>
      <trkpt lat="28.68395" lon="-14.01077">
        <ele>4</ele>
        <time>2021-07-04 14:24:22</time>
      </trkpt>
      <trkpt lat="28.68392" lon="-14.01077">
        <ele>4</ele>
        <time>2021-07-04 14:24:23</time>
      </trkpt>
      <trkpt lat="28.68389" lon="-14.01077">
        <ele>4.4</ele>
        <time>2021-07-04 14:24:24</time>
      </trkpt>
      <trkpt lat="28.68386" lon="-14.01076">
        <ele>4.4</ele>
        <time>2021-07-04 14:24:25</time>
      </trkpt>
      <trkpt lat="28.68383" lon="-14.01076">
        <ele>4.8</ele>
        <time>2021-07-04 14:24:26</time>
      </trkpt>
      <trkpt lat="28.68381" lon="-14.01075">
        <ele>4.8</ele>
        <time>2021-07-04 14:24:27</time>
      </trkpt>
      <trkpt lat="28.68378" lon="-14.01075">
        <ele>5</ele>
        <time>2021-07-04 14:24:28</time>
      </trkpt>
      <trkpt lat="28.68376" lon="-14.01074">
        <ele>5</ele>
        <time>2021-07-04 14:24:29</time>
      </trkpt>
      <trkpt lat="28.68373" lon="-14.01073">
        <ele>5.4</ele>
        <time>2021-07-04 14:24:30</time>
      </trkpt>
      <trkpt lat="28.68371" lon="-14.01073">
        <ele>5.6</ele>
        <time>2021-07-04 14:24:31</time>
      </trkpt>
      <trkpt lat="28.6837" lon="-14.01073">
        <ele>5.8</ele>
        <time>2021-07-04 14:24:32</time>
      </trkpt>
      <trkpt lat="28.68367" lon="-14.01072">
        <ele>6.2</ele>
        <time>2021-07-04 14:24:33</time>
      </trkpt>
      <trkpt lat="28.68365" lon="-14.01071">
        <ele>6.2</ele>
        <time>2021-07-04 14:24:34</time>
      </trkpt>
      <trkpt lat="28.68363" lon="-14.0107">
        <ele>6.4</ele>
        <time>2021-07-04 14:24:35</time>
      </trkpt>
      <trkpt lat="28.68361" lon="-14.01069">
        <ele>6.4</ele>
        <time>2021-07-04 14:24:36</time>
      </trkpt>
      <trkpt lat="28.68359" lon="-14.01069">
        <ele>6.8</ele>
        <time>2021-07-04 14:24:37</time>
      </trkpt>
      <trkpt lat="28.68357" lon="-14.01068">
        <ele>7</ele>
        <time>2021-07-04 14:24:38</time>
      </trkpt>
      <trkpt lat="28.68355" lon="-14.01067">
        <ele>7.2</ele>
        <time>2021-07-04 14:24:39</time>
      </trkpt>
      <trkpt lat="28.68353" lon="-14.01066">
        <ele>7.4</ele>
        <time>2021-07-04 14:24:40</time>
      </trkpt>
      <trkpt lat="28.68351" lon="-14.01065">
        <ele>7.6</ele>
        <time>2021-07-04 14:24:41</time>
      </trkpt>
      <trkpt lat="28.68349" lon="-14.01064">
        <ele>7.6</ele>
        <time>2021-07-04 14:24:42</time>
      </trkpt>
      <trkpt lat="28.68347" lon="-14.01063">
        <ele>8</ele>
        <time>2021-07-04 14:24:43</time>
      </trkpt>
      <trkpt lat="28.68345" lon="-14.01061">
        <ele>8</ele>
        <time>2021-07-04 14:24:44</time>
      </trkpt>
      <trkpt lat="28.68343" lon="-14.0106">
        <ele>8.4</ele>
        <time>2021-07-04 14:24:45</time>
      </trkpt>
      <trkpt lat="28.68341" lon="-14.01058">
        <ele>8.4</ele>
        <time>2021-07-04 14:24:46</time>
      </trkpt>
      <trkpt lat="28.6834" lon="-14.01056">
        <ele>8.6</ele>
        <time>2021-07-04 14:24:47</time>
      </trkpt>
      <trkpt lat="28.68338" lon="-14.01054">
        <ele>8.6</ele>
        <time>2021-07-04 14:24:48</time>
      </trkpt>
      <trkpt lat="28.68336" lon="-14.01052">
        <ele>9</ele>
        <time>2021-07-04 14:24:49</time>
      </trkpt>
      <trkpt lat="28.68334" lon="-14.0105">
        <ele>9.2</ele>
        <time>2021-07-04 14:24:50</time>
      </trkpt>
      <trkpt lat="28.68332" lon="-14.01047">
        <ele>9.4</ele>
        <time>2021-07-04 14:24:51</time>
      </trkpt>
      <trkpt lat="28.6833" lon="-14.01045">
        <ele>9.6</ele>
        <time>2021-07-04 14:24:52</time>
      </trkpt>
      <trkpt lat="28.68329" lon="-14.01044">
        <ele>9.8</ele>
        <time>2021-07-04 14:24:53</time>
      </trkpt>
      <trkpt lat="28.68327" lon="-14.01043">
        <ele>10.2</ele>
        <time>2021-07-04 14:24:54</time>
      </trkpt>
      <trkpt lat="28.68325" lon="-14.01044">
        <ele>10.2</ele>
        <time>2021-07-04 14:24:55</time>
      </trkpt>
      <trkpt lat="28.68323" lon="-14.01045">
        <ele>10.6</ele>
        <time>2021-07-04 14:24:56</time>
      </trkpt>
      <trkpt lat="28.6832" lon="-14.01047">
        <ele>10.6</ele>
        <time>2021-07-04 14:24:57</time>
      </trkpt>
      <trkpt lat="28.68318" lon="-14.01049">
        <ele>10.6</ele>
        <time>2021-07-04 14:24:58</time>
      </trkpt>
      <trkpt lat="28.68316" lon="-14.01051">
        <ele>10.6</ele>
        <time>2021-07-04 14:24:59</time>
      </trkpt>
      <trkpt lat="28.68313" lon="-14.01053">
        <ele>10.6</ele>
        <time>2021-07-04 14:25:00</time>
      </trkpt>
      <trkpt lat="28.6831" lon="-14.01054">
        <ele>10.6</ele>
        <time>2021-07-04 14:25:01</time>
      </trkpt>
      <trkpt lat="28.68307" lon="-14.01055">
        <ele>10.6</ele>
        <time>2021-07-04 14:25:02</time>
      </trkpt>
      <trkpt lat="28.68304" lon="-14.01057">
        <ele>10.6</ele>
        <time>2021-07-04 14:25:03</time>
      </trkpt>
      <trkpt lat="28.68301" lon="-14.01058">
        <ele>10.6</ele>
        <time>2021-07-04 14:25:04</time>
      </trkpt>
      <trkpt lat="28.68299" lon="-14.01059">
        <ele>10.6</ele>
        <time>2021-07-04 14:25:05</time>
      </trkpt>
      <trkpt lat="28.68296" lon="-14.0106">
        <ele>10.8</ele>
        <time>2021-07-04 14:25:06</time>
      </trkpt>
      <trkpt lat="28.68293" lon="-14.01062">
        <ele>10.8</ele>
        <time>2021-07-04 14:25:07</time>
      </trkpt>
      <trkpt lat="28.68291" lon="-14.01063">
        <ele>10.8</ele>
        <time>2021-07-04 14:25:08</time>
      </trkpt>
      <trkpt lat="28.68288" lon="-14.01064">
        <ele>10.8</ele>
        <time>2021-07-04 14:25:09</time>
      </trkpt>
      <trkpt lat="28.68285" lon="-14.01066">
        <ele>10.8</ele>
        <time>2021-07-04 14:25:10</time>
      </trkpt>
      <trkpt lat="28.68281" lon="-14.01066">
        <ele>10.8</ele>
        <time>2021-07-04 14:25:11</time>
      </trkpt>
      <trkpt lat="28.68278" lon="-14.01067">
        <ele>10.8</ele>
        <time>2021-07-04 14:25:12</time>
      </trkpt>
      <trkpt lat="28.68275" lon="-14.01068">
        <ele>10.8</ele>
        <time>2021-07-04 14:25:13</time>
      </trkpt>
      <trkpt lat="28.68272" lon="-14.01069">
        <ele>10.8</ele>
        <time>2021-07-04 14:25:14</time>
      </trkpt>
      <trkpt lat="28.68269" lon="-14.0107">
        <ele>10.8</ele>
        <time>2021-07-04 14:25:15</time>
      </trkpt>
      <trkpt lat="28.68267" lon="-14.01071">
        <ele>10.8</ele>
        <time>2021-07-04 14:25:16</time>
      </trkpt>
      <trkpt lat="28.68264" lon="-14.01072">
        <ele>10.8</ele>
        <time>2021-07-04 14:25:17</time>
      </trkpt>
      <trkpt lat="28.68262" lon="-14.01072">
        <ele>10.8</ele>
        <time>2021-07-04 14:25:18</time>
      </trkpt>
      <trkpt lat="28.68259" lon="-14.01072">
        <ele>10.8</ele>
        <time>2021-07-04 14:25:19</time>
      </trkpt>
      <trkpt lat="28.68256" lon="-14.01072">
        <ele>10.8</ele>
        <time>2021-07-04 14:25:20</time>
      </trkpt>
      <trkpt lat="28.68253" lon="-14.01071">
        <ele>10.8</ele>
        <time>2021-07-04 14:25:21</time>
      </trkpt>
      <trkpt lat="28.6825" lon="-14.01071">
        <ele>10.8</ele>
        <time>2021-07-04 14:25:22</time>
      </trkpt>
      <trkpt lat="28.68247" lon="-14.01071">
        <ele>10.8</ele>
        <time>2021-07-04 14:25:23</time>
      </trkpt>
      <trkpt lat="28.68244" lon="-14.0107">
        <ele>10.8</ele>
        <time>2021-07-04 14:25:24</time>
      </trkpt>
      <trkpt lat="28.68242" lon="-14.0107">
        <ele>10.8</ele>
        <time>2021-07-04 14:25:25</time>
      </trkpt>
      <trkpt lat="28.68239" lon="-14.0107">
        <ele>10.8</ele>
        <time>2021-07-04 14:25:26</time>
      </trkpt>
      <trkpt lat="28.68237" lon="-14.0107">
        <ele>10.8</ele>
        <time>2021-07-04 14:25:27</time>
      </trkpt>
      <trkpt lat="28.68234" lon="-14.01069">
        <ele>10.8</ele>
        <time>2021-07-04 14:25:28</time>
      </trkpt>
      <trkpt lat="28.68232" lon="-14.01069">
        <ele>10.6</ele>
        <time>2021-07-04 14:25:29</time>
      </trkpt>
      <trkpt lat="28.68229" lon="-14.01069">
        <ele>10.6</ele>
        <time>2021-07-04 14:25:30</time>
      </trkpt>
      <trkpt lat="28.68227" lon="-14.0107">
        <ele>10.6</ele>
        <time>2021-07-04 14:25:31</time>
      </trkpt>
      <trkpt lat="28.68226" lon="-14.01071">
        <ele>10.6</ele>
        <time>2021-07-04 14:25:32</time>
      </trkpt>
      <trkpt lat="28.68225" lon="-14.01073">
        <ele>10.6</ele>
        <time>2021-07-04 14:25:33</time>
      </trkpt>
      <trkpt lat="28.68224" lon="-14.01076">
        <ele>10.6</ele>
        <time>2021-07-04 14:25:34</time>
      </trkpt>
      <trkpt lat="28.68223" lon="-14.0108">
        <ele>10.8</ele>
        <time>2021-07-04 14:25:35</time>
      </trkpt>
      <trkpt lat="28.68223" lon="-14.01083">
        <ele>10.8</ele>
        <time>2021-07-04 14:25:36</time>
      </trkpt>
      <trkpt lat="28.68223" lon="-14.01087">
        <ele>10.8</ele>
        <time>2021-07-04 14:25:37</time>
      </trkpt>
      <trkpt lat="28.68223" lon="-14.01091">
        <ele>10.8</ele>
        <time>2021-07-04 14:25:38</time>
      </trkpt>
      <trkpt lat="28.68223" lon="-14.01095">
        <ele>10.8</ele>
        <time>2021-07-04 14:25:39</time>
      </trkpt>
      <trkpt lat="28.68223" lon="-14.011">
        <ele>10.8</ele>
        <time>2021-07-04 14:25:40</time>
      </trkpt>
      <trkpt lat="28.68223" lon="-14.01104">
        <ele>10.4</ele>
        <time>2021-07-04 14:25:41</time>
      </trkpt>
      <trkpt lat="28.68222" lon="-14.01108">
        <ele>10.4</ele>
        <time>2021-07-04 14:25:42</time>
      </trkpt>
      <trkpt lat="28.68219" lon="-14.01111">
        <ele>10.2</ele>
        <time>2021-07-04 14:25:43</time>
      </trkpt>
      <trkpt lat="28.68215" lon="-14.01113">
        <ele>10.2</ele>
        <time>2021-07-04 14:25:44</time>
      </trkpt>
      <trkpt lat="28.6821" lon="-14.01114">
        <ele>10.2</ele>
        <time>2021-07-04 14:25:45</time>
      </trkpt>
      <trkpt lat="28.68206" lon="-14.01113">
        <ele>9.8</ele>
        <time>2021-07-04 14:25:46</time>
      </trkpt>
      <trkpt lat="28.68202" lon="-14.01114">
        <ele>9.8</ele>
        <time>2021-07-04 14:25:47</time>
      </trkpt>
      <trkpt lat="28.68196" lon="-14.01114">
        <ele>9.8</ele>
        <time>2021-07-04 14:25:48</time>
      </trkpt>
      <trkpt lat="28.68192" lon="-14.01114">
        <ele>9.8</ele>
        <time>2021-07-04 14:25:49</time>
      </trkpt>
      <trkpt lat="28.68187" lon="-14.01114">
        <ele>9.8</ele>
        <time>2021-07-04 14:25:50</time>
      </trkpt>
      <trkpt lat="28.68182" lon="-14.01114">
        <ele>9.8</ele>
        <time>2021-07-04 14:25:51</time>
      </trkpt>
      <trkpt lat="28.68178" lon="-14.01114">
        <ele>9.8</ele>
        <time>2021-07-04 14:25:52</time>
      </trkpt>
      <trkpt lat="28.68173" lon="-14.01114">
        <ele>9.8</ele>
        <time>2021-07-04 14:25:53</time>
      </trkpt>
      <trkpt lat="28.68169" lon="-14.01114">
        <ele>9.8</ele>
        <time>2021-07-04 14:25:54</time>
      </trkpt>
      <trkpt lat="28.68164" lon="-14.01115">
        <ele>9.8</ele>
        <time>2021-07-04 14:25:55</time>
      </trkpt>
      <trkpt lat="28.68159" lon="-14.01115">
        <ele>9.8</ele>
        <time>2021-07-04 14:25:56</time>
      </trkpt>
      <trkpt lat="28.68154" lon="-14.01114">
        <ele>9.8</ele>
        <time>2021-07-04 14:25:57</time>
      </trkpt>
      <trkpt lat="28.6815" lon="-14.01114">
        <ele>9.8</ele>
        <time>2021-07-04 14:25:58</time>
      </trkpt>
      <trkpt lat="28.68145" lon="-14.01114">
        <ele>10.2</ele>
        <time>2021-07-04 14:25:59</time>
      </trkpt>
      <trkpt lat="28.68141" lon="-14.01113">
        <ele>10.2</ele>
        <time>2021-07-04 14:26:00</time>
      </trkpt>
      <trkpt lat="28.68137" lon="-14.01113">
        <ele>10.4</ele>
        <time>2021-07-04 14:26:01</time>
      </trkpt>
      <trkpt lat="28.68133" lon="-14.01114">
        <ele>10.4</ele>
        <time>2021-07-04 14:26:02</time>
      </trkpt>
      <trkpt lat="28.68129" lon="-14.01112">
        <ele>10.4</ele>
        <time>2021-07-04 14:26:03</time>
      </trkpt>
      <trkpt lat="28.68125" lon="-14.01111">
        <ele>10.4</ele>
        <time>2021-07-04 14:26:04</time>
      </trkpt>
      <trkpt lat="28.68123" lon="-14.01108">
        <ele>10.6</ele>
        <time>2021-07-04 14:26:05</time>
      </trkpt>
      <trkpt lat="28.68122" lon="-14.01104">
        <ele>10.6</ele>
        <time>2021-07-04 14:26:06</time>
      </trkpt>
      <trkpt lat="28.68122" lon="-14.011">
        <ele>10.6</ele>
        <time>2021-07-04 14:26:07</time>
      </trkpt>
      <trkpt lat="28.68122" lon="-14.01096">
        <ele>10.6</ele>
        <time>2021-07-04 14:26:08</time>
      </trkpt>
      <trkpt lat="28.68121" lon="-14.01092">
        <ele>10.8</ele>
        <time>2021-07-04 14:26:09</time>
      </trkpt>
      <trkpt lat="28.68122" lon="-14.01087">
        <ele>10.8</ele>
        <time>2021-07-04 14:26:10</time>
      </trkpt>
      <trkpt lat="28.68122" lon="-14.01082">
        <ele>11</ele>
        <time>2021-07-04 14:26:11</time>
      </trkpt>
      <trkpt lat="28.68122" lon="-14.01078">
        <ele>11</ele>
        <time>2021-07-04 14:26:12</time>
      </trkpt>
      <trkpt lat="28.68123" lon="-14.01073">
        <ele>11.4</ele>
        <time>2021-07-04 14:26:13</time>
      </trkpt>
      <trkpt lat="28.68123" lon="-14.01068">
        <ele>11.6</ele>
        <time>2021-07-04 14:26:14</time>
      </trkpt>
      <trkpt lat="28.68123" lon="-14.01064">
        <ele>11.8</ele>
        <time>2021-07-04 14:26:15</time>
      </trkpt>
      <trkpt lat="28.68123" lon="-14.0106">
        <ele>11.8</ele>
        <time>2021-07-04 14:26:16</time>
      </trkpt>
      <trkpt lat="28.68123" lon="-14.01055">
        <ele>12.2</ele>
        <time>2021-07-04 14:26:17</time>
      </trkpt>
      <trkpt lat="28.68123" lon="-14.01051">
        <ele>12.2</ele>
        <time>2021-07-04 14:26:18</time>
      </trkpt>
      <trkpt lat="28.68124" lon="-14.01046">
        <ele>12.2</ele>
        <time>2021-07-04 14:26:19</time>
      </trkpt>
      <trkpt lat="28.68124" lon="-14.01042">
        <ele>12.2</ele>
        <time>2021-07-04 14:26:20</time>
      </trkpt>
      <trkpt lat="28.68124" lon="-14.01038">
        <ele>12.2</ele>
        <time>2021-07-04 14:26:21</time>
      </trkpt>
      <trkpt lat="28.68124" lon="-14.01033">
        <ele>12.2</ele>
        <time>2021-07-04 14:26:22</time>
      </trkpt>
      <trkpt lat="28.68125" lon="-14.01028">
        <ele>12</ele>
        <time>2021-07-04 14:26:23</time>
      </trkpt>
      <trkpt lat="28.68125" lon="-14.01024">
        <ele>12</ele>
        <time>2021-07-04 14:26:24</time>
      </trkpt>
      <trkpt lat="28.68125" lon="-14.0102">
        <ele>12.2</ele>
        <time>2021-07-04 14:26:25</time>
      </trkpt>
      <trkpt lat="28.68125" lon="-14.01016">
        <ele>12.6</ele>
        <time>2021-07-04 14:26:26</time>
      </trkpt>
      <trkpt lat="28.68125" lon="-14.01012">
        <ele>12.8</ele>
        <time>2021-07-04 14:26:27</time>
      </trkpt>
      <trkpt lat="28.68126" lon="-14.01008">
        <ele>13</ele>
        <time>2021-07-04 14:26:28</time>
      </trkpt>
      <trkpt lat="28.68126" lon="-14.01004">
        <ele>13</ele>
        <time>2021-07-04 14:26:29</time>
      </trkpt>
      <trkpt lat="28.68126" lon="-14.01001">
        <ele>13.4</ele>
        <time>2021-07-04 14:26:30</time>
      </trkpt>
      <trkpt lat="28.68124" lon="-14.00998">
        <ele>13.8</ele>
        <time>2021-07-04 14:26:31</time>
      </trkpt>
      <trkpt lat="28.68122" lon="-14.00996">
        <ele>13.8</ele>
        <time>2021-07-04 14:26:32</time>
      </trkpt>
      <trkpt lat="28.68119" lon="-14.00994">
        <ele>14.2</ele>
        <time>2021-07-04 14:26:33</time>
      </trkpt>
      <trkpt lat="28.68116" lon="-14.00993">
        <ele>14.2</ele>
        <time>2021-07-04 14:26:34</time>
      </trkpt>
      <trkpt lat="28.68112" lon="-14.00991">
        <ele>14.4</ele>
        <time>2021-07-04 14:26:35</time>
      </trkpt>
      <trkpt lat="28.68109" lon="-14.00989">
        <ele>14.4</ele>
        <time>2021-07-04 14:26:36</time>
      </trkpt>
      <trkpt lat="28.68106" lon="-14.00987">
        <ele>14.4</ele>
        <time>2021-07-04 14:26:37</time>
      </trkpt>
      <trkpt lat="28.68102" lon="-14.00985">
        <ele>14.6</ele>
        <time>2021-07-04 14:26:38</time>
      </trkpt>
      <trkpt lat="28.68099" lon="-14.00984">
        <ele>14.6</ele>
        <time>2021-07-04 14:26:39</time>
      </trkpt>
      <trkpt lat="28.68095" lon="-14.00983">
        <ele>14.6</ele>
        <time>2021-07-04 14:26:40</time>
      </trkpt>
      <trkpt lat="28.68091" lon="-14.00982">
        <ele>14.6</ele>
        <time>2021-07-04 14:26:41</time>
      </trkpt>
      <trkpt lat="28.68087" lon="-14.00981">
        <ele>14.6</ele>
        <time>2021-07-04 14:26:42</time>
      </trkpt>
      <trkpt lat="28.68083" lon="-14.00981">
        <ele>14.6</ele>
        <time>2021-07-04 14:26:43</time>
      </trkpt>
      <trkpt lat="28.68079" lon="-14.00982">
        <ele>14.6</ele>
        <time>2021-07-04 14:26:44</time>
      </trkpt>
      <trkpt lat="28.68075" lon="-14.00985">
        <ele>14.4</ele>
        <time>2021-07-04 14:26:45</time>
      </trkpt>
      <trkpt lat="28.68072" lon="-14.0099">
        <ele>14.4</ele>
        <time>2021-07-04 14:26:46</time>
      </trkpt>
      <trkpt lat="28.68068" lon="-14.00993">
        <ele>14.4</ele>
        <time>2021-07-04 14:26:47</time>
      </trkpt>
      <trkpt lat="28.68064" lon="-14.00996">
        <ele>14.2</ele>
        <time>2021-07-04 14:26:48</time>
      </trkpt>
      <trkpt lat="28.68061" lon="-14.01">
        <ele>14.2</ele>
        <time>2021-07-04 14:26:49</time>
      </trkpt>
      <trkpt lat="28.68057" lon="-14.01003">
        <ele>14.2</ele>
        <time>2021-07-04 14:26:50</time>
      </trkpt>
      <trkpt lat="28.68053" lon="-14.01007">
        <ele>13.8</ele>
        <time>2021-07-04 14:26:51</time>
      </trkpt>
      <trkpt lat="28.68049" lon="-14.0101">
        <ele>13.6</ele>
        <time>2021-07-04 14:26:52</time>
      </trkpt>
      <trkpt lat="28.68046" lon="-14.01014">
        <ele>13.4</ele>
        <time>2021-07-04 14:26:53</time>
      </trkpt>
      <trkpt lat="28.68042" lon="-14.01017">
        <ele>13.2</ele>
        <time>2021-07-04 14:26:54</time>
      </trkpt>
      <trkpt lat="28.68038" lon="-14.0102">
        <ele>13</ele>
        <time>2021-07-04 14:26:55</time>
      </trkpt>
      <trkpt lat="28.68034" lon="-14.01023">
        <ele>12.8</ele>
        <time>2021-07-04 14:26:56</time>
      </trkpt>
      <trkpt lat="28.68031" lon="-14.01025">
        <ele>12.8</ele>
        <time>2021-07-04 14:26:57</time>
      </trkpt>
      <trkpt lat="28.68027" lon="-14.01028">
        <ele>12.8</ele>
        <time>2021-07-04 14:26:58</time>
      </trkpt>
      <trkpt lat="28.68023" lon="-14.0103">
        <ele>12.8</ele>
        <time>2021-07-04 14:26:59</time>
      </trkpt>
      <trkpt lat="28.6802" lon="-14.01032">
        <ele>12.8</ele>
        <time>2021-07-04 14:27:00</time>
      </trkpt>
      <trkpt lat="28.68016" lon="-14.01034">
        <ele>12.8</ele>
        <time>2021-07-04 14:27:01</time>
      </trkpt>
      <trkpt lat="28.68012" lon="-14.01035">
        <ele>12.8</ele>
        <time>2021-07-04 14:27:02</time>
      </trkpt>
      <trkpt lat="28.68008" lon="-14.01036">
        <ele>12.8</ele>
        <time>2021-07-04 14:27:03</time>
      </trkpt>
      <trkpt lat="28.68005" lon="-14.01037">
        <ele>13</ele>
        <time>2021-07-04 14:27:04</time>
      </trkpt>
      <trkpt lat="28.68001" lon="-14.01037">
        <ele>13</ele>
        <time>2021-07-04 14:27:05</time>
      </trkpt>
      <trkpt lat="28.67997" lon="-14.01037">
        <ele>13.4</ele>
        <time>2021-07-04 14:27:06</time>
      </trkpt>
      <trkpt lat="28.67993" lon="-14.01037">
        <ele>13.4</ele>
        <time>2021-07-04 14:27:07</time>
      </trkpt>
      <trkpt lat="28.6799" lon="-14.01036">
        <ele>13.6</ele>
        <time>2021-07-04 14:27:08</time>
      </trkpt>
      <trkpt lat="28.67986" lon="-14.01035">
        <ele>13.6</ele>
        <time>2021-07-04 14:27:09</time>
      </trkpt>
      <trkpt lat="28.67982" lon="-14.01033">
        <ele>14</ele>
        <time>2021-07-04 14:27:10</time>
      </trkpt>
      <trkpt lat="28.67978" lon="-14.01031">
        <ele>14</ele>
        <time>2021-07-04 14:27:11</time>
      </trkpt>
      <trkpt lat="28.67975" lon="-14.01029">
        <ele>14</ele>
        <time>2021-07-04 14:27:12</time>
      </trkpt>
      <trkpt lat="28.67972" lon="-14.01026">
        <ele>14</ele>
        <time>2021-07-04 14:27:13</time>
      </trkpt>
      <trkpt lat="28.67969" lon="-14.01023">
        <ele>14.4</ele>
        <time>2021-07-04 14:27:14</time>
      </trkpt>
      <trkpt lat="28.67967" lon="-14.01019">
        <ele>14.8</ele>
        <time>2021-07-04 14:27:15</time>
      </trkpt>
      <trkpt lat="28.67964" lon="-14.01016">
        <ele>14.8</ele>
        <time>2021-07-04 14:27:16</time>
      </trkpt>
      <trkpt lat="28.67962" lon="-14.01012">
        <ele>15.2</ele>
        <time>2021-07-04 14:27:17</time>
      </trkpt>
      <trkpt lat="28.6796" lon="-14.01008">
        <ele>15.2</ele>
        <time>2021-07-04 14:27:18</time>
      </trkpt>
      <trkpt lat="28.67957" lon="-14.01004">
        <ele>15.2</ele>
        <time>2021-07-04 14:27:19</time>
      </trkpt>
      <trkpt lat="28.67955" lon="-14.01">
        <ele>15.2</ele>
        <time>2021-07-04 14:27:20</time>
      </trkpt>
      <trkpt lat="28.67951" lon="-14.00996">
        <ele>15.4</ele>
        <time>2021-07-04 14:27:21</time>
      </trkpt>
      <trkpt lat="28.67948" lon="-14.00992">
        <ele>15.4</ele>
        <time>2021-07-04 14:27:22</time>
      </trkpt>
      <trkpt lat="28.67945" lon="-14.00989">
        <ele>15.4</ele>
        <time>2021-07-04 14:27:23</time>
      </trkpt>
      <trkpt lat="28.67941" lon="-14.00986">
        <ele>15.4</ele>
        <time>2021-07-04 14:27:24</time>
      </trkpt>
      <trkpt lat="28.67938" lon="-14.00983">
        <ele>15.2</ele>
        <time>2021-07-04 14:27:25</time>
      </trkpt>
      <trkpt lat="28.67934" lon="-14.00981">
        <ele>15.2</ele>
        <time>2021-07-04 14:27:26</time>
      </trkpt>
      <trkpt lat="28.6793" lon="-14.00979">
        <ele>15.2</ele>
        <time>2021-07-04 14:27:27</time>
      </trkpt>
      <trkpt lat="28.67926" lon="-14.00977">
        <ele>15.2</ele>
        <time>2021-07-04 14:27:28</time>
      </trkpt>
      <trkpt lat="28.67922" lon="-14.00976">
        <ele>15.2</ele>
        <time>2021-07-04 14:27:29</time>
      </trkpt>
      <trkpt lat="28.67918" lon="-14.00975">
        <ele>15.2</ele>
        <time>2021-07-04 14:27:30</time>
      </trkpt>
      <trkpt lat="28.67913" lon="-14.00974">
        <ele>15.2</ele>
        <time>2021-07-04 14:27:31</time>
      </trkpt>
      <trkpt lat="28.67909" lon="-14.00973">
        <ele>15.2</ele>
        <time>2021-07-04 14:27:32</time>
      </trkpt>
      <trkpt lat="28.67905" lon="-14.00971">
        <ele>15.2</ele>
        <time>2021-07-04 14:27:33</time>
      </trkpt>
      <trkpt lat="28.67901" lon="-14.00969">
        <ele>15.2</ele>
        <time>2021-07-04 14:27:34</time>
      </trkpt>
      <trkpt lat="28.67896" lon="-14.00967">
        <ele>15.4</ele>
        <time>2021-07-04 14:27:35</time>
      </trkpt>
      <trkpt lat="28.67892" lon="-14.00966">
        <ele>15.4</ele>
        <time>2021-07-04 14:27:36</time>
      </trkpt>
      <trkpt lat="28.67888" lon="-14.00964">
        <ele>15.4</ele>
        <time>2021-07-04 14:27:37</time>
      </trkpt>
      <trkpt lat="28.67884" lon="-14.00962">
        <ele>15.8</ele>
        <time>2021-07-04 14:27:38</time>
      </trkpt>
      <trkpt lat="28.6788" lon="-14.0096">
        <ele>15.8</ele>
        <time>2021-07-04 14:27:39</time>
      </trkpt>
      <trkpt lat="28.67876" lon="-14.00959">
        <ele>16</ele>
        <time>2021-07-04 14:27:40</time>
      </trkpt>
      <trkpt lat="28.67871" lon="-14.00957">
        <ele>16.2</ele>
        <time>2021-07-04 14:27:41</time>
      </trkpt>
      <trkpt lat="28.67867" lon="-14.00956">
        <ele>16.2</ele>
        <time>2021-07-04 14:27:42</time>
      </trkpt>
      <trkpt lat="28.67864" lon="-14.00954">
        <ele>16.8</ele>
        <time>2021-07-04 14:27:43</time>
      </trkpt>
      <trkpt lat="28.6786" lon="-14.00953">
        <ele>16.8</ele>
        <time>2021-07-04 14:27:44</time>
      </trkpt>
      <trkpt lat="28.67856" lon="-14.00951">
        <ele>17</ele>
        <time>2021-07-04 14:27:45</time>
      </trkpt>
      <trkpt lat="28.67853" lon="-14.00949">
        <ele>17</ele>
        <time>2021-07-04 14:27:46</time>
      </trkpt>
      <trkpt lat="28.67849" lon="-14.00947">
        <ele>17</ele>
        <time>2021-07-04 14:27:47</time>
      </trkpt>
      <trkpt lat="28.67846" lon="-14.00945">
        <ele>17.4</ele>
        <time>2021-07-04 14:27:48</time>
      </trkpt>
      <trkpt lat="28.67843" lon="-14.00944">
        <ele>17.4</ele>
        <time>2021-07-04 14:27:49</time>
      </trkpt>
      <trkpt lat="28.67841" lon="-14.00942">
        <ele>17.8</ele>
        <time>2021-07-04 14:27:50</time>
      </trkpt>
      <trkpt lat="28.67839" lon="-14.00941">
        <ele>18</ele>
        <time>2021-07-04 14:27:51</time>
      </trkpt>
      <trkpt lat="28.67837" lon="-14.00939">
        <ele>18.2</ele>
        <time>2021-07-04 14:27:52</time>
      </trkpt>
      <trkpt lat="28.67837" lon="-14.00938">
        <ele>18.2</ele>
        <time>2021-07-04 14:27:53</time>
      </trkpt>
      <trkpt lat="28.67836" lon="-14.00938">
        <ele>18.6</ele>
        <time>2021-07-04 14:27:54</time>
      </trkpt>
      <trkpt lat="28.67836" lon="-14.00938">
        <ele>18.6</ele>
        <time>2021-07-04 14:27:55</time>
      </trkpt>
      <trkpt lat="28.67836" lon="-14.00938">
        <ele>18.6</ele>
        <time>2021-07-04 14:27:56</time>
      </trkpt>
      <trkpt lat="28.67836" lon="-14.00938">
        <ele>19</ele>
        <time>2021-07-04 14:27:57</time>
      </trkpt>
      <trkpt lat="28.67835" lon="-14.00936">
        <ele>21</ele>
        <time>2021-07-04 14:27:58</time>
      </trkpt>
      <trkpt lat="28.67833" lon="-14.00934">
        <ele>21</ele>
        <time>2021-07-04 14:27:59</time>
      </trkpt>
      <trkpt lat="28.67832" lon="-14.00933">
        <ele>21</ele>
        <time>2021-07-04 14:28:00</time>
      </trkpt>
      <trkpt lat="28.67831" lon="-14.00931">
        <ele>21</ele>
        <time>2021-07-04 14:28:01</time>
      </trkpt>
      <trkpt lat="28.6783" lon="-14.00929">
        <ele>21.2</ele>
        <time>2021-07-04 14:28:02</time>
      </trkpt>
      <trkpt lat="28.6783" lon="-14.00927">
        <ele>21.2</ele>
        <time>2021-07-04 14:28:03</time>
      </trkpt>
      <trkpt lat="28.67829" lon="-14.00924">
        <ele>21.6</ele>
        <time>2021-07-04 14:28:04</time>
      </trkpt>
      <trkpt lat="28.67828" lon="-14.00921">
        <ele>21.6</ele>
        <time>2021-07-04 14:28:05</time>
      </trkpt>
      <trkpt lat="28.67827" lon="-14.00918">
        <ele>21.6</ele>
        <time>2021-07-04 14:28:06</time>
      </trkpt>
      <trkpt lat="28.67825" lon="-14.00914">
        <ele>21.8</ele>
        <time>2021-07-04 14:28:07</time>
      </trkpt>
      <trkpt lat="28.67823" lon="-14.0091">
        <ele>21.8</ele>
        <time>2021-07-04 14:28:08</time>
      </trkpt>
      <trkpt lat="28.67821" lon="-14.00907">
        <ele>21.8</ele>
        <time>2021-07-04 14:28:09</time>
      </trkpt>
      <trkpt lat="28.67818" lon="-14.00904">
        <ele>21.8</ele>
        <time>2021-07-04 14:28:10</time>
      </trkpt>
      <trkpt lat="28.67816" lon="-14.00902">
        <ele>21.8</ele>
        <time>2021-07-04 14:28:11</time>
      </trkpt>
      <trkpt lat="28.67813" lon="-14.009">
        <ele>21.6</ele>
        <time>2021-07-04 14:28:12</time>
      </trkpt>
      <trkpt lat="28.6781" lon="-14.00899">
        <ele>21.6</ele>
        <time>2021-07-04 14:28:13</time>
      </trkpt>
      <trkpt lat="28.67808" lon="-14.00898">
        <ele>21.6</ele>
        <time>2021-07-04 14:28:14</time>
      </trkpt>
      <trkpt lat="28.67805" lon="-14.00897">
        <ele>21.4</ele>
        <time>2021-07-04 14:28:15</time>
      </trkpt>
      <trkpt lat="28.67803" lon="-14.00896">
        <ele>21.4</ele>
        <time>2021-07-04 14:28:16</time>
      </trkpt>
      <trkpt lat="28.67801" lon="-14.00895">
        <ele>21.4</ele>
        <time>2021-07-04 14:28:17</time>
      </trkpt>
      <trkpt lat="28.67799" lon="-14.00893">
        <ele>21.4</ele>
        <time>2021-07-04 14:28:18</time>
      </trkpt>
      <trkpt lat="28.67797" lon="-14.00891">
        <ele>21.2</ele>
        <time>2021-07-04 14:28:19</time>
      </trkpt>
      <trkpt lat="28.67795" lon="-14.00889">
        <ele>21.2</ele>
        <time>2021-07-04 14:28:20</time>
      </trkpt>
      <trkpt lat="28.67794" lon="-14.00887">
        <ele>21.2</ele>
        <time>2021-07-04 14:28:21</time>
      </trkpt>
      <trkpt lat="28.67792" lon="-14.00884">
        <ele>21.2</ele>
        <time>2021-07-04 14:28:22</time>
      </trkpt>
      <trkpt lat="28.6779" lon="-14.0088">
        <ele>21.2</ele>
        <time>2021-07-04 14:28:23</time>
      </trkpt>
      <trkpt lat="28.67787" lon="-14.00877">
        <ele>21.2</ele>
        <time>2021-07-04 14:28:24</time>
      </trkpt>
      <trkpt lat="28.67785" lon="-14.00873">
        <ele>21.2</ele>
        <time>2021-07-04 14:28:25</time>
      </trkpt>
      <trkpt lat="28.67783" lon="-14.00869">
        <ele>21.2</ele>
        <time>2021-07-04 14:28:26</time>
      </trkpt>
      <trkpt lat="28.67781" lon="-14.00865">
        <ele>21.4</ele>
        <time>2021-07-04 14:28:27</time>
      </trkpt>
      <trkpt lat="28.67778" lon="-14.00862">
        <ele>21.4</ele>
        <time>2021-07-04 14:28:28</time>
      </trkpt>
      <trkpt lat="28.67776" lon="-14.00858">
        <ele>21.4</ele>
        <time>2021-07-04 14:28:29</time>
      </trkpt>
      <trkpt lat="28.67775" lon="-14.00854">
        <ele>21.4</ele>
        <time>2021-07-04 14:28:30</time>
      </trkpt>
      <trkpt lat="28.67773" lon="-14.00851">
        <ele>21.4</ele>
        <time>2021-07-04 14:28:31</time>
      </trkpt>
      <trkpt lat="28.67771" lon="-14.00847">
        <ele>21.4</ele>
        <time>2021-07-04 14:28:32</time>
      </trkpt>
      <trkpt lat="28.67769" lon="-14.00844">
        <ele>21.4</ele>
        <time>2021-07-04 14:28:33</time>
      </trkpt>
      <trkpt lat="28.6776" lon="-14.00828">
        <ele>21.4</ele>
        <time>2021-07-04 14:28:34</time>
      </trkpt>
      <trkpt lat="28.67758" lon="-14.00825">
        <ele>21.4</ele>
        <time>2021-07-04 14:28:35</time>
      </trkpt>
      <trkpt lat="28.67756" lon="-14.00822">
        <ele>21.4</ele>
        <time>2021-07-04 14:29:11</time>
      </trkpt>
      <trkpt lat="28.67754" lon="-14.00819">
        <ele>21.2</ele>
        <time>2021-07-04 14:29:12</time>
      </trkpt>
      <trkpt lat="28.67752" lon="-14.00816">
        <ele>21.2</ele>
        <time>2021-07-04 14:29:13</time>
      </trkpt>
      <trkpt lat="28.67751" lon="-14.00813">
        <ele>21.2</ele>
        <time>2021-07-04 14:29:14</time>
      </trkpt>
      <trkpt lat="28.6775" lon="-14.0081">
        <ele>21.2</ele>
        <time>2021-07-04 14:29:15</time>
      </trkpt>
      <trkpt lat="28.67749" lon="-14.00807">
        <ele>21.2</ele>
        <time>2021-07-04 14:29:16</time>
      </trkpt>
      <trkpt lat="28.67748" lon="-14.00804">
        <ele>21.2</ele>
        <time>2021-07-04 14:29:17</time>
      </trkpt>
      <trkpt lat="28.67746" lon="-14.00801">
        <ele>21</ele>
        <time>2021-07-04 14:29:18</time>
      </trkpt>
      <trkpt lat="28.67745" lon="-14.00797">
        <ele>21</ele>
        <time>2021-07-04 14:29:19</time>
      </trkpt>
      <trkpt lat="28.67743" lon="-14.00793">
        <ele>21</ele>
        <time>2021-07-04 14:29:20</time>
      </trkpt>
      <trkpt lat="28.67741" lon="-14.00789">
        <ele>21</ele>
        <time>2021-07-04 14:29:21</time>
      </trkpt>
      <trkpt lat="28.6774" lon="-14.00785">
        <ele>20.6</ele>
        <time>2021-07-04 14:29:22</time>
      </trkpt>
      <trkpt lat="28.67739" lon="-14.00781">
        <ele>20.6</ele>
        <time>2021-07-04 14:29:23</time>
      </trkpt>
      <trkpt lat="28.67738" lon="-14.00778">
        <ele>20.6</ele>
        <time>2021-07-04 14:29:24</time>
      </trkpt>
      <trkpt lat="28.67737" lon="-14.00771">
        <ele>20.6</ele>
        <time>2021-07-04 14:29:25</time>
      </trkpt>
      <trkpt lat="28.67736" lon="-14.00767">
        <ele>20.6</ele>
        <time>2021-07-04 14:29:26</time>
      </trkpt>
      <trkpt lat="28.67735" lon="-14.00764">
        <ele>20.4</ele>
        <time>2021-07-04 14:29:27</time>
      </trkpt>
      <trkpt lat="28.67732" lon="-14.0076">
        <ele>20.4</ele>
        <time>2021-07-04 14:29:28</time>
      </trkpt>
      <trkpt lat="28.6773" lon="-14.00756">
        <ele>20.2</ele>
        <time>2021-07-04 14:29:29</time>
      </trkpt>
      <trkpt lat="28.67728" lon="-14.00752">
        <ele>20.2</ele>
        <time>2021-07-04 14:29:30</time>
      </trkpt>
      <trkpt lat="28.67726" lon="-14.00749">
        <ele>20.2</ele>
        <time>2021-07-04 14:29:31</time>
      </trkpt>
      <trkpt lat="28.67724" lon="-14.00746">
        <ele>20.2</ele>
        <time>2021-07-04 14:29:32</time>
      </trkpt>
      <trkpt lat="28.67721" lon="-14.00742">
        <ele>20.2</ele>
        <time>2021-07-04 14:29:33</time>
      </trkpt>
      <trkpt lat="28.67719" lon="-14.0074">
        <ele>20.2</ele>
        <time>2021-07-04 14:29:34</time>
      </trkpt>
      <trkpt lat="28.67717" lon="-14.00737">
        <ele>20.2</ele>
        <time>2021-07-04 14:29:35</time>
      </trkpt>
      <trkpt lat="28.67716" lon="-14.00734">
        <ele>20.2</ele>
        <time>2021-07-04 14:29:36</time>
      </trkpt>
      <trkpt lat="28.67714" lon="-14.00731">
        <ele>20.2</ele>
        <time>2021-07-04 14:29:37</time>
      </trkpt>
      <trkpt lat="28.67712" lon="-14.00727">
        <ele>20.2</ele>
        <time>2021-07-04 14:29:38</time>
      </trkpt>
      <trkpt lat="28.6771" lon="-14.00724">
        <ele>20.2</ele>
        <time>2021-07-04 14:29:39</time>
      </trkpt>
      <trkpt lat="28.67708" lon="-14.0072">
        <ele>20.2</ele>
        <time>2021-07-04 14:29:40</time>
      </trkpt>
      <trkpt lat="28.67707" lon="-14.00716">
        <ele>20.2</ele>
        <time>2021-07-04 14:29:41</time>
      </trkpt>
      <trkpt lat="28.67705" lon="-14.00713">
        <ele>20.2</ele>
        <time>2021-07-04 14:29:42</time>
      </trkpt>
      <trkpt lat="28.67703" lon="-14.00709">
        <ele>20.2</ele>
        <time>2021-07-04 14:29:43</time>
      </trkpt>
      <trkpt lat="28.677" lon="-14.00705">
        <ele>20.4</ele>
        <time>2021-07-04 14:29:44</time>
      </trkpt>
      <trkpt lat="28.67698" lon="-14.00702">
        <ele>20.4</ele>
        <time>2021-07-04 14:29:45</time>
      </trkpt>
      <trkpt lat="28.67696" lon="-14.00698">
        <ele>20.4</ele>
        <time>2021-07-04 14:29:46</time>
      </trkpt>
      <trkpt lat="28.67694" lon="-14.00694">
        <ele>20.4</ele>
        <time>2021-07-04 14:29:47</time>
      </trkpt>
      <trkpt lat="28.67692" lon="-14.00691">
        <ele>20.4</ele>
        <time>2021-07-04 14:29:48</time>
      </trkpt>
      <trkpt lat="28.67691" lon="-14.00688">
        <ele>20.2</ele>
        <time>2021-07-04 14:29:49</time>
      </trkpt>
      <trkpt lat="28.67689" lon="-14.00684">
        <ele>20.2</ele>
        <time>2021-07-04 14:29:50</time>
      </trkpt>
      <trkpt lat="28.67688" lon="-14.00681">
        <ele>20.2</ele>
        <time>2021-07-04 14:29:51</time>
      </trkpt>
      <trkpt lat="28.67687" lon="-14.00678">
        <ele>20</ele>
        <time>2021-07-04 14:29:52</time>
      </trkpt>
      <trkpt lat="28.67685" lon="-14.00675">
        <ele>20</ele>
        <time>2021-07-04 14:29:53</time>
      </trkpt>
      <trkpt lat="28.67684" lon="-14.00671">
        <ele>20</ele>
        <time>2021-07-04 14:29:54</time>
      </trkpt>
      <trkpt lat="28.67683" lon="-14.00668">
        <ele>20</ele>
        <time>2021-07-04 14:29:55</time>
      </trkpt>
      <trkpt lat="28.67683" lon="-14.00665">
        <ele>20.2</ele>
        <time>2021-07-04 14:29:56</time>
      </trkpt>
      <trkpt lat="28.67683" lon="-14.00662">
        <ele>20.2</ele>
        <time>2021-07-04 14:29:57</time>
      </trkpt>
      <trkpt lat="28.67683" lon="-14.00659">
        <ele>20.2</ele>
        <time>2021-07-04 14:29:58</time>
      </trkpt>
      <trkpt lat="28.67682" lon="-14.00657">
        <ele>20.2</ele>
        <time>2021-07-04 14:29:59</time>
      </trkpt>
      <trkpt lat="28.6768" lon="-14.00655">
        <ele>20.2</ele>
        <time>2021-07-04 14:30:00</time>
      </trkpt>
      <trkpt lat="28.67679" lon="-14.00652">
        <ele>20.2</ele>
        <time>2021-07-04 14:30:01</time>
      </trkpt>
      <trkpt lat="28.67677" lon="-14.00649">
        <ele>20.2</ele>
        <time>2021-07-04 14:30:02</time>
      </trkpt>
      <trkpt lat="28.67675" lon="-14.00645">
        <ele>20.2</ele>
        <time>2021-07-04 14:30:03</time>
      </trkpt>
      <trkpt lat="28.67673" lon="-14.00642">
        <ele>20.2</ele>
        <time>2021-07-04 14:30:04</time>
      </trkpt>
      <trkpt lat="28.67671" lon="-14.00637">
        <ele>20.2</ele>
        <time>2021-07-04 14:30:05</time>
      </trkpt>
      <trkpt lat="28.67672" lon="-14.00632">
        <ele>20.2</ele>
        <time>2021-07-04 14:30:06</time>
      </trkpt>
      <trkpt lat="28.67671" lon="-14.00628">
        <ele>20.6</ele>
        <time>2021-07-04 14:30:07</time>
      </trkpt>
      <trkpt lat="28.6767" lon="-14.00624">
        <ele>20.6</ele>
        <time>2021-07-04 14:30:08</time>
      </trkpt>
      <trkpt lat="28.67669" lon="-14.00619">
        <ele>20.6</ele>
        <time>2021-07-04 14:30:09</time>
      </trkpt>
      <trkpt lat="28.67668" lon="-14.00616">
        <ele>20.8</ele>
        <time>2021-07-04 14:30:10</time>
      </trkpt>
      <trkpt lat="28.67666" lon="-14.00612">
        <ele>20.8</ele>
        <time>2021-07-04 14:30:11</time>
      </trkpt>
      <trkpt lat="28.67665" lon="-14.00608">
        <ele>20.8</ele>
        <time>2021-07-04 14:30:12</time>
      </trkpt>
      <trkpt lat="28.67664" lon="-14.00605">
        <ele>20.8</ele>
        <time>2021-07-04 14:30:13</time>
      </trkpt>
      <trkpt lat="28.67662" lon="-14.00602">
        <ele>20.4</ele>
        <time>2021-07-04 14:30:14</time>
      </trkpt>
      <trkpt lat="28.67661" lon="-14.00598">
        <ele>20.2</ele>
        <time>2021-07-04 14:30:15</time>
      </trkpt>
      <trkpt lat="28.67659" lon="-14.00594">
        <ele>20</ele>
        <time>2021-07-04 14:30:16</time>
      </trkpt>
      <trkpt lat="28.67657" lon="-14.00591">
        <ele>20</ele>
        <time>2021-07-04 14:30:17</time>
      </trkpt>
      <trkpt lat="28.67653" lon="-14.00588">
        <ele>19.6</ele>
        <time>2021-07-04 14:30:18</time>
      </trkpt>
      <trkpt lat="28.6765" lon="-14.00585">
        <ele>19.6</ele>
        <time>2021-07-04 14:30:19</time>
      </trkpt>
      <trkpt lat="28.67647" lon="-14.00582">
        <ele>19.6</ele>
        <time>2021-07-04 14:30:20</time>
      </trkpt>
      <trkpt lat="28.67644" lon="-14.00579">
        <ele>19</ele>
        <time>2021-07-04 14:30:21</time>
      </trkpt>
      <trkpt lat="28.6764" lon="-14.00578">
        <ele>19</ele>
        <time>2021-07-04 14:30:22</time>
      </trkpt>
      <trkpt lat="28.67636" lon="-14.00576">
        <ele>18.6</ele>
        <time>2021-07-04 14:30:23</time>
      </trkpt>
      <trkpt lat="28.67633" lon="-14.00574">
        <ele>18.6</ele>
        <time>2021-07-04 14:30:24</time>
      </trkpt>
      <trkpt lat="28.67629" lon="-14.00572">
        <ele>18.6</ele>
        <time>2021-07-04 14:30:25</time>
      </trkpt>
      <trkpt lat="28.67626" lon="-14.00571">
        <ele>18.4</ele>
        <time>2021-07-04 14:30:26</time>
      </trkpt>
      <trkpt lat="28.67622" lon="-14.00569">
        <ele>18.4</ele>
        <time>2021-07-04 14:30:27</time>
      </trkpt>
      <trkpt lat="28.67619" lon="-14.00567">
        <ele>18</ele>
        <time>2021-07-04 14:30:28</time>
      </trkpt>
      <trkpt lat="28.67616" lon="-14.00565">
        <ele>18</ele>
        <time>2021-07-04 14:30:29</time>
      </trkpt>
      <trkpt lat="28.67613" lon="-14.00562">
        <ele>17.6</ele>
        <time>2021-07-04 14:30:30</time>
      </trkpt>
      <trkpt lat="28.6761" lon="-14.00558">
        <ele>17.6</ele>
        <time>2021-07-04 14:30:31</time>
      </trkpt>
      <trkpt lat="28.67607" lon="-14.00555">
        <ele>17.6</ele>
        <time>2021-07-04 14:30:32</time>
      </trkpt>
      <trkpt lat="28.67604" lon="-14.00551">
        <ele>17.4</ele>
        <time>2021-07-04 14:30:33</time>
      </trkpt>
      <trkpt lat="28.67602" lon="-14.00548">
        <ele>17.4</ele>
        <time>2021-07-04 14:30:34</time>
      </trkpt>
      <trkpt lat="28.67599" lon="-14.00544">
        <ele>17.4</ele>
        <time>2021-07-04 14:30:35</time>
      </trkpt>
      <trkpt lat="28.67597" lon="-14.00541">
        <ele>17.4</ele>
        <time>2021-07-04 14:30:36</time>
      </trkpt>
      <trkpt lat="28.67594" lon="-14.00538">
        <ele>17.6</ele>
        <time>2021-07-04 14:30:37</time>
      </trkpt>
      <trkpt lat="28.67591" lon="-14.00535">
        <ele>17.6</ele>
        <time>2021-07-04 14:30:38</time>
      </trkpt>
      <trkpt lat="28.67588" lon="-14.00533">
        <ele>17.6</ele>
        <time>2021-07-04 14:30:39</time>
      </trkpt>
      <trkpt lat="28.67584" lon="-14.00531">
        <ele>17.6</ele>
        <time>2021-07-04 14:30:40</time>
      </trkpt>
      <trkpt lat="28.6758" lon="-14.0053">
        <ele>17.6</ele>
        <time>2021-07-04 14:30:41</time>
      </trkpt>
      <trkpt lat="28.67577" lon="-14.00529">
        <ele>17.6</ele>
        <time>2021-07-04 14:30:42</time>
      </trkpt>
      <trkpt lat="28.67573" lon="-14.00527">
        <ele>17.6</ele>
        <time>2021-07-04 14:30:43</time>
      </trkpt>
      <trkpt lat="28.6757" lon="-14.00526">
        <ele>18.6</ele>
        <time>2021-07-04 14:30:44</time>
      </trkpt>
      <trkpt lat="28.67566" lon="-14.00525">
        <ele>18.6</ele>
        <time>2021-07-04 14:30:45</time>
      </trkpt>
      <trkpt lat="28.67563" lon="-14.00523">
        <ele>18.2</ele>
        <time>2021-07-04 14:30:46</time>
      </trkpt>
      <trkpt lat="28.6756" lon="-14.00522">
        <ele>17.8</ele>
        <time>2021-07-04 14:30:47</time>
      </trkpt>
      <trkpt lat="28.67556" lon="-14.00521">
        <ele>17.8</ele>
        <time>2021-07-04 14:30:48</time>
      </trkpt>
      <trkpt lat="28.67553" lon="-14.00522">
        <ele>17.4</ele>
        <time>2021-07-04 14:30:49</time>
      </trkpt>
      <trkpt lat="28.67549" lon="-14.00523">
        <ele>17.4</ele>
        <time>2021-07-04 14:30:50</time>
      </trkpt>
      <trkpt lat="28.67545" lon="-14.00525">
        <ele>17.4</ele>
        <time>2021-07-04 14:30:51</time>
      </trkpt>
      <trkpt lat="28.67542" lon="-14.00526">
        <ele>17.4</ele>
        <time>2021-07-04 14:30:52</time>
      </trkpt>
      <trkpt lat="28.67539" lon="-14.00527">
        <ele>17.2</ele>
        <time>2021-07-04 14:30:53</time>
      </trkpt>
      <trkpt lat="28.67536" lon="-14.00528">
        <ele>17.2</ele>
        <time>2021-07-04 14:30:54</time>
      </trkpt>
      <trkpt lat="28.67534" lon="-14.00529">
        <ele>17.2</ele>
        <time>2021-07-04 14:30:55</time>
      </trkpt>
      <trkpt lat="28.67531" lon="-14.00531">
        <ele>17.2</ele>
        <time>2021-07-04 14:30:56</time>
      </trkpt>
      <trkpt lat="28.67528" lon="-14.00534">
        <ele>17.2</ele>
        <time>2021-07-04 14:30:57</time>
      </trkpt>
      <trkpt lat="28.67525" lon="-14.00536">
        <ele>17.2</ele>
        <time>2021-07-04 14:30:58</time>
      </trkpt>
      <trkpt lat="28.67522" lon="-14.00538">
        <ele>17.2</ele>
        <time>2021-07-04 14:30:59</time>
      </trkpt>
      <trkpt lat="28.67519" lon="-14.00541">
        <ele>17.2</ele>
        <time>2021-07-04 14:31:00</time>
      </trkpt>
      <trkpt lat="28.67517" lon="-14.00543">
        <ele>16.8</ele>
        <time>2021-07-04 14:31:01</time>
      </trkpt>
      <trkpt lat="28.67514" lon="-14.00546">
        <ele>16.8</ele>
        <time>2021-07-04 14:31:02</time>
      </trkpt>
      <trkpt lat="28.6751" lon="-14.00549">
        <ele>16.8</ele>
        <time>2021-07-04 14:31:03</time>
      </trkpt>
      <trkpt lat="28.67507" lon="-14.00551">
        <ele>16.8</ele>
        <time>2021-07-04 14:31:04</time>
      </trkpt>
      <trkpt lat="28.67503" lon="-14.00554">
        <ele>16.8</ele>
        <time>2021-07-04 14:31:05</time>
      </trkpt>
      <trkpt lat="28.675" lon="-14.00556">
        <ele>17</ele>
        <time>2021-07-04 14:31:06</time>
      </trkpt>
      <trkpt lat="28.67497" lon="-14.00559">
        <ele>17</ele>
        <time>2021-07-04 14:31:07</time>
      </trkpt>
      <trkpt lat="28.67494" lon="-14.00562">
        <ele>17</ele>
        <time>2021-07-04 14:31:08</time>
      </trkpt>
      <trkpt lat="28.67491" lon="-14.00564">
        <ele>17</ele>
        <time>2021-07-04 14:31:09</time>
      </trkpt>
      <trkpt lat="28.67487" lon="-14.00567">
        <ele>17</ele>
        <time>2021-07-04 14:31:10</time>
      </trkpt>
      <trkpt lat="28.67484" lon="-14.00569">
        <ele>17</ele>
        <time>2021-07-04 14:31:11</time>
      </trkpt>
      <trkpt lat="28.67481" lon="-14.00571">
        <ele>17</ele>
        <time>2021-07-04 14:31:12</time>
      </trkpt>
      <trkpt lat="28.67477" lon="-14.00574">
        <ele>17</ele>
        <time>2021-07-04 14:31:13</time>
      </trkpt>
      <trkpt lat="28.67474" lon="-14.00576">
        <ele>17</ele>
        <time>2021-07-04 14:31:14</time>
      </trkpt>
      <trkpt lat="28.6747" lon="-14.00579">
        <ele>17</ele>
        <time>2021-07-04 14:31:15</time>
      </trkpt>
      <trkpt lat="28.67467" lon="-14.00582">
        <ele>17</ele>
        <time>2021-07-04 14:31:16</time>
      </trkpt>
      <trkpt lat="28.67463" lon="-14.00585">
        <ele>17</ele>
        <time>2021-07-04 14:31:17</time>
      </trkpt>
      <trkpt lat="28.6746" lon="-14.00587">
        <ele>17</ele>
        <time>2021-07-04 14:31:18</time>
      </trkpt>
      <trkpt lat="28.67456" lon="-14.0059">
        <ele>17</ele>
        <time>2021-07-04 14:31:19</time>
      </trkpt>
      <trkpt lat="28.67452" lon="-14.00593">
        <ele>16.8</ele>
        <time>2021-07-04 14:31:20</time>
      </trkpt>
      <trkpt lat="28.67449" lon="-14.00595">
        <ele>16.8</ele>
        <time>2021-07-04 14:31:21</time>
      </trkpt>
      <trkpt lat="28.67445" lon="-14.00598">
        <ele>16.8</ele>
        <time>2021-07-04 14:31:22</time>
      </trkpt>
      <trkpt lat="28.67442" lon="-14.00601">
        <ele>16.6</ele>
        <time>2021-07-04 14:31:23</time>
      </trkpt>
      <trkpt lat="28.67438" lon="-14.00603">
        <ele>16.6</ele>
        <time>2021-07-04 14:31:24</time>
      </trkpt>
      <trkpt lat="28.67435" lon="-14.00606">
        <ele>16.6</ele>
        <time>2021-07-04 14:31:25</time>
      </trkpt>
      <trkpt lat="28.67432" lon="-14.00609">
        <ele>16.6</ele>
        <time>2021-07-04 14:31:26</time>
      </trkpt>
      <trkpt lat="28.67429" lon="-14.00612">
        <ele>16.6</ele>
        <time>2021-07-04 14:31:27</time>
      </trkpt>
      <trkpt lat="28.67425" lon="-14.00614">
        <ele>16.6</ele>
        <time>2021-07-04 14:31:28</time>
      </trkpt>
      <trkpt lat="28.67422" lon="-14.00617">
        <ele>16.6</ele>
        <time>2021-07-04 14:31:29</time>
      </trkpt>
      <trkpt lat="28.67419" lon="-14.00619">
        <ele>16.8</ele>
        <time>2021-07-04 14:31:30</time>
      </trkpt>
      <trkpt lat="28.67415" lon="-14.00622">
        <ele>16.8</ele>
        <time>2021-07-04 14:31:31</time>
      </trkpt>
      <trkpt lat="28.67412" lon="-14.00625">
        <ele>17.2</ele>
        <time>2021-07-04 14:31:32</time>
      </trkpt>
      <trkpt lat="28.67409" lon="-14.00627">
        <ele>17.2</ele>
        <time>2021-07-04 14:31:33</time>
      </trkpt>
      <trkpt lat="28.67405" lon="-14.0063">
        <ele>17.2</ele>
        <time>2021-07-04 14:31:34</time>
      </trkpt>
      <trkpt lat="28.67401" lon="-14.00633">
        <ele>17.4</ele>
        <time>2021-07-04 14:31:35</time>
      </trkpt>
      <trkpt lat="28.67397" lon="-14.00636">
        <ele>17.4</ele>
        <time>2021-07-04 14:31:36</time>
      </trkpt>
      <trkpt lat="28.67394" lon="-14.00638">
        <ele>17.4</ele>
        <time>2021-07-04 14:31:37</time>
      </trkpt>
      <trkpt lat="28.6739" lon="-14.00641">
        <ele>17.4</ele>
        <time>2021-07-04 14:31:38</time>
      </trkpt>
      <trkpt lat="28.67387" lon="-14.00644">
        <ele>17.4</ele>
        <time>2021-07-04 14:31:39</time>
      </trkpt>
      <trkpt lat="28.67384" lon="-14.00647">
        <ele>17.6</ele>
        <time>2021-07-04 14:31:40</time>
      </trkpt>
      <trkpt lat="28.67381" lon="-14.00649">
        <ele>17.6</ele>
        <time>2021-07-04 14:31:41</time>
      </trkpt>
      <trkpt lat="28.67378" lon="-14.00651">
        <ele>17.8</ele>
        <time>2021-07-04 14:31:42</time>
      </trkpt>
      <trkpt lat="28.67374" lon="-14.00654">
        <ele>17.8</ele>
        <time>2021-07-04 14:31:43</time>
      </trkpt>
      <trkpt lat="28.67371" lon="-14.00656">
        <ele>17.8</ele>
        <time>2021-07-04 14:31:44</time>
      </trkpt>
      <trkpt lat="28.67367" lon="-14.00659">
        <ele>17.8</ele>
        <time>2021-07-04 14:31:45</time>
      </trkpt>
      <trkpt lat="28.67364" lon="-14.00662">
        <ele>18</ele>
        <time>2021-07-04 14:31:46</time>
      </trkpt>
      <trkpt lat="28.6736" lon="-14.00665">
        <ele>18</ele>
        <time>2021-07-04 14:31:47</time>
      </trkpt>
      <trkpt lat="28.67357" lon="-14.00667">
        <ele>18</ele>
        <time>2021-07-04 14:31:48</time>
      </trkpt>
      <trkpt lat="28.67353" lon="-14.0067">
        <ele>18</ele>
        <time>2021-07-04 14:31:49</time>
      </trkpt>
      <trkpt lat="28.6735" lon="-14.00673">
        <ele>18</ele>
        <time>2021-07-04 14:31:50</time>
      </trkpt>
      <trkpt lat="28.67346" lon="-14.00675">
        <ele>18</ele>
        <time>2021-07-04 14:31:51</time>
      </trkpt>
      <trkpt lat="28.67343" lon="-14.00678">
        <ele>18</ele>
        <time>2021-07-04 14:31:52</time>
      </trkpt>
      <trkpt lat="28.67339" lon="-14.0068">
        <ele>18</ele>
        <time>2021-07-04 14:31:53</time>
      </trkpt>
      <trkpt lat="28.67336" lon="-14.00683">
        <ele>18</ele>
        <time>2021-07-04 14:31:54</time>
      </trkpt>
      <trkpt lat="28.67333" lon="-14.00685">
        <ele>18</ele>
        <time>2021-07-04 14:31:55</time>
      </trkpt>
      <trkpt lat="28.67329" lon="-14.00688">
        <ele>18</ele>
        <time>2021-07-04 14:31:56</time>
      </trkpt>
      <trkpt lat="28.67326" lon="-14.00691">
        <ele>18</ele>
        <time>2021-07-04 14:31:57</time>
      </trkpt>
      <trkpt lat="28.67323" lon="-14.00693">
        <ele>18</ele>
        <time>2021-07-04 14:31:58</time>
      </trkpt>
      <trkpt lat="28.67319" lon="-14.00696">
        <ele>17.8</ele>
        <time>2021-07-04 14:31:59</time>
      </trkpt>
      <trkpt lat="28.67315" lon="-14.00699">
        <ele>17.8</ele>
        <time>2021-07-04 14:32:00</time>
      </trkpt>
      <trkpt lat="28.67312" lon="-14.00701">
        <ele>17.6</ele>
        <time>2021-07-04 14:32:01</time>
      </trkpt>
      <trkpt lat="28.67308" lon="-14.00704">
        <ele>17.6</ele>
        <time>2021-07-04 14:32:02</time>
      </trkpt>
      <trkpt lat="28.67305" lon="-14.00706">
        <ele>17.2</ele>
        <time>2021-07-04 14:32:03</time>
      </trkpt>
      <trkpt lat="28.67302" lon="-14.00709">
        <ele>17.2</ele>
        <time>2021-07-04 14:32:04</time>
      </trkpt>
      <trkpt lat="28.67299" lon="-14.00711">
        <ele>17.2</ele>
        <time>2021-07-04 14:32:05</time>
      </trkpt>
      <trkpt lat="28.67296" lon="-14.00714">
        <ele>17.2</ele>
        <time>2021-07-04 14:32:06</time>
      </trkpt>
      <trkpt lat="28.67293" lon="-14.00716">
        <ele>17.2</ele>
        <time>2021-07-04 14:32:07</time>
      </trkpt>
      <trkpt lat="28.6729" lon="-14.00719">
        <ele>17</ele>
        <time>2021-07-04 14:32:08</time>
      </trkpt>
      <trkpt lat="28.67287" lon="-14.00722">
        <ele>17</ele>
        <time>2021-07-04 14:32:09</time>
      </trkpt>
      <trkpt lat="28.67284" lon="-14.00724">
        <ele>16.8</ele>
        <time>2021-07-04 14:32:10</time>
      </trkpt>
      <trkpt lat="28.67281" lon="-14.00726">
        <ele>16.8</ele>
        <time>2021-07-04 14:32:11</time>
      </trkpt>
      <trkpt lat="28.67278" lon="-14.00728">
        <ele>16.8</ele>
        <time>2021-07-04 14:32:12</time>
      </trkpt>
      <trkpt lat="28.67275" lon="-14.00731">
        <ele>16.8</ele>
        <time>2021-07-04 14:32:13</time>
      </trkpt>
      <trkpt lat="28.67271" lon="-14.00734">
        <ele>16.4</ele>
        <time>2021-07-04 14:32:14</time>
      </trkpt>
      <trkpt lat="28.67268" lon="-14.00736">
        <ele>16.4</ele>
        <time>2021-07-04 14:32:15</time>
      </trkpt>
      <trkpt lat="28.67264" lon="-14.00739">
        <ele>16.4</ele>
        <time>2021-07-04 14:32:16</time>
      </trkpt>
      <trkpt lat="28.67261" lon="-14.00741">
        <ele>16.4</ele>
        <time>2021-07-04 14:32:17</time>
      </trkpt>
      <trkpt lat="28.67258" lon="-14.00743">
        <ele>16.2</ele>
        <time>2021-07-04 14:32:18</time>
      </trkpt>
      <trkpt lat="28.67255" lon="-14.00746">
        <ele>16.2</ele>
        <time>2021-07-04 14:32:19</time>
      </trkpt>
      <trkpt lat="28.67252" lon="-14.00749">
        <ele>16.2</ele>
        <time>2021-07-04 14:32:20</time>
      </trkpt>
      <trkpt lat="28.6725" lon="-14.00751">
        <ele>16.2</ele>
        <time>2021-07-04 14:32:21</time>
      </trkpt>
      <trkpt lat="28.6725" lon="-14.00754">
        <ele>16.6</ele>
        <time>2021-07-04 14:32:22</time>
      </trkpt>
      <trkpt lat="28.67249" lon="-14.00758">
        <ele>16.6</ele>
        <time>2021-07-04 14:32:23</time>
      </trkpt>
      <trkpt lat="28.67248" lon="-14.00763">
        <ele>16.6</ele>
        <time>2021-07-04 14:32:24</time>
      </trkpt>
      <trkpt lat="28.67247" lon="-14.00767">
        <ele>16.8</ele>
        <time>2021-07-04 14:32:25</time>
      </trkpt>
      <trkpt lat="28.67245" lon="-14.0077">
        <ele>16.8</ele>
        <time>2021-07-04 14:32:26</time>
      </trkpt>
      <trkpt lat="28.67241" lon="-14.00773">
        <ele>16.8</ele>
        <time>2021-07-04 14:32:27</time>
      </trkpt>
      <trkpt lat="28.67237" lon="-14.00774">
        <ele>16.8</ele>
        <time>2021-07-04 14:32:28</time>
      </trkpt>
      <trkpt lat="28.67233" lon="-14.00777">
        <ele>16.8</ele>
        <time>2021-07-04 14:32:29</time>
      </trkpt>
      <trkpt lat="28.67229" lon="-14.00779">
        <ele>16.6</ele>
        <time>2021-07-04 14:32:30</time>
      </trkpt>
      <trkpt lat="28.67225" lon="-14.00781">
        <ele>16.6</ele>
        <time>2021-07-04 14:32:31</time>
      </trkpt>
      <trkpt lat="28.67221" lon="-14.00784">
        <ele>16.6</ele>
        <time>2021-07-04 14:32:32</time>
      </trkpt>
      <trkpt lat="28.67217" lon="-14.00787">
        <ele>16.4</ele>
        <time>2021-07-04 14:32:33</time>
      </trkpt>
      <trkpt lat="28.67214" lon="-14.00791">
        <ele>16.4</ele>
        <time>2021-07-04 14:32:34</time>
      </trkpt>
      <trkpt lat="28.67209" lon="-14.00793">
        <ele>16</ele>
        <time>2021-07-04 14:32:35</time>
      </trkpt>
      <trkpt lat="28.67205" lon="-14.00796">
        <ele>16</ele>
        <time>2021-07-04 14:32:36</time>
      </trkpt>
      <trkpt lat="28.67201" lon="-14.00798">
        <ele>15.8</ele>
        <time>2021-07-04 14:32:37</time>
      </trkpt>
      <trkpt lat="28.67196" lon="-14.00799">
        <ele>15.4</ele>
        <time>2021-07-04 14:32:38</time>
      </trkpt>
      <trkpt lat="28.67192" lon="-14.00801">
        <ele>15.4</ele>
        <time>2021-07-04 14:32:39</time>
      </trkpt>
      <trkpt lat="28.67189" lon="-14.00803">
        <ele>15.4</ele>
        <time>2021-07-04 14:32:40</time>
      </trkpt>
      <trkpt lat="28.67185" lon="-14.00806">
        <ele>15.4</ele>
        <time>2021-07-04 14:32:41</time>
      </trkpt>
      <trkpt lat="28.67181" lon="-14.00808">
        <ele>15.4</ele>
        <time>2021-07-04 14:32:42</time>
      </trkpt>
      <trkpt lat="28.67177" lon="-14.00811">
        <ele>15.4</ele>
        <time>2021-07-04 14:32:43</time>
      </trkpt>
      <trkpt lat="28.67173" lon="-14.00813">
        <ele>15.4</ele>
        <time>2021-07-04 14:32:44</time>
      </trkpt>
      <trkpt lat="28.67169" lon="-14.00815">
        <ele>15.4</ele>
        <time>2021-07-04 14:32:45</time>
      </trkpt>
      <trkpt lat="28.67166" lon="-14.00817">
        <ele>15.4</ele>
        <time>2021-07-04 14:32:46</time>
      </trkpt>
      <trkpt lat="28.67162" lon="-14.0082">
        <ele>15.4</ele>
        <time>2021-07-04 14:32:47</time>
      </trkpt>
      <trkpt lat="28.67158" lon="-14.00821">
        <ele>15.4</ele>
        <time>2021-07-04 14:32:48</time>
      </trkpt>
      <trkpt lat="28.67154" lon="-14.00823">
        <ele>15.4</ele>
        <time>2021-07-04 14:32:49</time>
      </trkpt>
      <trkpt lat="28.67151" lon="-14.00825">
        <ele>15.4</ele>
        <time>2021-07-04 14:32:50</time>
      </trkpt>
      <trkpt lat="28.67148" lon="-14.00827">
        <ele>15.4</ele>
        <time>2021-07-04 14:32:51</time>
      </trkpt>
      <trkpt lat="28.67145" lon="-14.00827">
        <ele>15.4</ele>
        <time>2021-07-04 14:32:52</time>
      </trkpt>
      <trkpt lat="28.67142" lon="-14.00827">
        <ele>15.4</ele>
        <time>2021-07-04 14:32:53</time>
      </trkpt>
      <trkpt lat="28.67139" lon="-14.00827">
        <ele>15.4</ele>
        <time>2021-07-04 14:32:54</time>
      </trkpt>
      <trkpt lat="28.67137" lon="-14.00826">
        <ele>15.2</ele>
        <time>2021-07-04 14:32:55</time>
      </trkpt>
      <trkpt lat="28.67135" lon="-14.00823">
        <ele>15.2</ele>
        <time>2021-07-04 14:32:56</time>
      </trkpt>
      <trkpt lat="28.67133" lon="-14.00821">
        <ele>15.2</ele>
        <time>2021-07-04 14:32:57</time>
      </trkpt>
      <trkpt lat="28.67131" lon="-14.00819">
        <ele>15.2</ele>
        <time>2021-07-04 14:32:58</time>
      </trkpt>
      <trkpt lat="28.67128" lon="-14.00818">
        <ele>15.2</ele>
        <time>2021-07-04 14:32:59</time>
      </trkpt>
      <trkpt lat="28.67124" lon="-14.00818">
        <ele>15.2</ele>
        <time>2021-07-04 14:33:00</time>
      </trkpt>
      <trkpt lat="28.67121" lon="-14.0082">
        <ele>15.2</ele>
        <time>2021-07-04 14:33:01</time>
      </trkpt>
      <trkpt lat="28.67117" lon="-14.00821">
        <ele>15.2</ele>
        <time>2021-07-04 14:33:02</time>
      </trkpt>
      <trkpt lat="28.67114" lon="-14.00823">
        <ele>15.2</ele>
        <time>2021-07-04 14:33:03</time>
      </trkpt>
      <trkpt lat="28.6711" lon="-14.00824">
        <ele>15.2</ele>
        <time>2021-07-04 14:33:04</time>
      </trkpt>
      <trkpt lat="28.67107" lon="-14.00826">
        <ele>15.2</ele>
        <time>2021-07-04 14:33:05</time>
      </trkpt>
      <trkpt lat="28.67104" lon="-14.00827">
        <ele>15.2</ele>
        <time>2021-07-04 14:33:06</time>
      </trkpt>
      <trkpt lat="28.671" lon="-14.00828">
        <ele>15.2</ele>
        <time>2021-07-04 14:33:07</time>
      </trkpt>
      <trkpt lat="28.67097" lon="-14.00828">
        <ele>15.2</ele>
        <time>2021-07-04 14:33:08</time>
      </trkpt>
      <trkpt lat="28.67093" lon="-14.00829">
        <ele>15.2</ele>
        <time>2021-07-04 14:33:09</time>
      </trkpt>
      <trkpt lat="28.67089" lon="-14.0083">
        <ele>15.2</ele>
        <time>2021-07-04 14:33:10</time>
      </trkpt>
      <trkpt lat="28.67085" lon="-14.0083">
        <ele>15.6</ele>
        <time>2021-07-04 14:33:11</time>
      </trkpt>
      <trkpt lat="28.67081" lon="-14.00831">
        <ele>15.6</ele>
        <time>2021-07-04 14:33:12</time>
      </trkpt>
      <trkpt lat="28.67077" lon="-14.00831">
        <ele>15.6</ele>
        <time>2021-07-04 14:33:13</time>
      </trkpt>
      <trkpt lat="28.67073" lon="-14.00831">
        <ele>15.6</ele>
        <time>2021-07-04 14:33:14</time>
      </trkpt>
      <trkpt lat="28.67069" lon="-14.00832">
        <ele>15.6</ele>
        <time>2021-07-04 14:33:15</time>
      </trkpt>
      <trkpt lat="28.67065" lon="-14.00832">
        <ele>15.6</ele>
        <time>2021-07-04 14:33:16</time>
      </trkpt>
      <trkpt lat="28.6706" lon="-14.00832">
        <ele>15.6</ele>
        <time>2021-07-04 14:33:17</time>
      </trkpt>
      <trkpt lat="28.67056" lon="-14.00832">
        <ele>15.6</ele>
        <time>2021-07-04 14:33:18</time>
      </trkpt>
      <trkpt lat="28.67052" lon="-14.00832">
        <ele>15.6</ele>
        <time>2021-07-04 14:33:19</time>
      </trkpt>
      <trkpt lat="28.67047" lon="-14.00832">
        <ele>15.6</ele>
        <time>2021-07-04 14:33:20</time>
      </trkpt>
      <trkpt lat="28.67043" lon="-14.00832">
        <ele>15.6</ele>
        <time>2021-07-04 14:33:21</time>
      </trkpt>
      <trkpt lat="28.67039" lon="-14.00832">
        <ele>15.6</ele>
        <time>2021-07-04 14:33:22</time>
      </trkpt>
      <trkpt lat="28.67034" lon="-14.00833">
        <ele>15.2</ele>
        <time>2021-07-04 14:33:23</time>
      </trkpt>
      <trkpt lat="28.6703" lon="-14.00832">
        <ele>15.2</ele>
        <time>2021-07-04 14:33:24</time>
      </trkpt>
      <trkpt lat="28.67026" lon="-14.00833">
        <ele>15.2</ele>
        <time>2021-07-04 14:33:25</time>
      </trkpt>
      <trkpt lat="28.67022" lon="-14.00832">
        <ele>15.2</ele>
        <time>2021-07-04 14:33:26</time>
      </trkpt>
      <trkpt lat="28.67018" lon="-14.00833">
        <ele>15.2</ele>
        <time>2021-07-04 14:33:27</time>
      </trkpt>
      <trkpt lat="28.67013" lon="-14.00833">
        <ele>15.2</ele>
        <time>2021-07-04 14:33:28</time>
      </trkpt>
      <trkpt lat="28.67009" lon="-14.00833">
        <ele>15.6</ele>
        <time>2021-07-04 14:33:29</time>
      </trkpt>
      <trkpt lat="28.67005" lon="-14.00833">
        <ele>15.6</ele>
        <time>2021-07-04 14:33:30</time>
      </trkpt>
      <trkpt lat="28.67001" lon="-14.00833">
        <ele>15.6</ele>
        <time>2021-07-04 14:33:31</time>
      </trkpt>
      <trkpt lat="28.66996" lon="-14.00833">
        <ele>15.6</ele>
        <time>2021-07-04 14:33:32</time>
      </trkpt>
      <trkpt lat="28.66992" lon="-14.00834">
        <ele>15.6</ele>
        <time>2021-07-04 14:33:33</time>
      </trkpt>
      <trkpt lat="28.66987" lon="-14.00834">
        <ele>15.6</ele>
        <time>2021-07-04 14:33:34</time>
      </trkpt>
      <trkpt lat="28.66982" lon="-14.00834">
        <ele>15.8</ele>
        <time>2021-07-04 14:33:35</time>
      </trkpt>
      <trkpt lat="28.66978" lon="-14.00835">
        <ele>15.8</ele>
        <time>2021-07-04 14:33:36</time>
      </trkpt>
      <trkpt lat="28.66974" lon="-14.00835">
        <ele>15.8</ele>
        <time>2021-07-04 14:33:37</time>
      </trkpt>
      <trkpt lat="28.66971" lon="-14.00835">
        <ele>15.8</ele>
        <time>2021-07-04 14:33:38</time>
      </trkpt>
      <trkpt lat="28.66966" lon="-14.00835">
        <ele>15.8</ele>
        <time>2021-07-04 14:33:39</time>
      </trkpt>
      <trkpt lat="28.66963" lon="-14.00835">
        <ele>15.8</ele>
        <time>2021-07-04 14:33:40</time>
      </trkpt>
      <trkpt lat="28.66959" lon="-14.00835">
        <ele>15.8</ele>
        <time>2021-07-04 14:33:41</time>
      </trkpt>
      <trkpt lat="28.66955" lon="-14.00835">
        <ele>15.8</ele>
        <time>2021-07-04 14:33:42</time>
      </trkpt>
      <trkpt lat="28.6695" lon="-14.00836">
        <ele>15.8</ele>
        <time>2021-07-04 14:33:43</time>
      </trkpt>
      <trkpt lat="28.66946" lon="-14.00836">
        <ele>15.8</ele>
        <time>2021-07-04 14:33:44</time>
      </trkpt>
      <trkpt lat="28.66943" lon="-14.00836">
        <ele>15.8</ele>
        <time>2021-07-04 14:33:45</time>
      </trkpt>
      <trkpt lat="28.66939" lon="-14.00837">
        <ele>15.8</ele>
        <time>2021-07-04 14:33:46</time>
      </trkpt>
      <trkpt lat="28.66935" lon="-14.00837">
        <ele>15.8</ele>
        <time>2021-07-04 14:33:47</time>
      </trkpt>
      <trkpt lat="28.66932" lon="-14.00838">
        <ele>15.8</ele>
        <time>2021-07-04 14:33:48</time>
      </trkpt>
      <trkpt lat="28.66928" lon="-14.00837">
        <ele>15.8</ele>
        <time>2021-07-04 14:33:49</time>
      </trkpt>
      <trkpt lat="28.66924" lon="-14.00837">
        <ele>15.4</ele>
        <time>2021-07-04 14:33:50</time>
      </trkpt>
      <trkpt lat="28.66921" lon="-14.00837">
        <ele>15.4</ele>
        <time>2021-07-04 14:33:51</time>
      </trkpt>
      <trkpt lat="28.66917" lon="-14.00837">
        <ele>15.4</ele>
        <time>2021-07-04 14:33:52</time>
      </trkpt>
      <trkpt lat="28.66913" lon="-14.00837">
        <ele>15.4</ele>
        <time>2021-07-04 14:33:53</time>
      </trkpt>
      <trkpt lat="28.66909" lon="-14.00837">
        <ele>15.4</ele>
        <time>2021-07-04 14:33:54</time>
      </trkpt>
      <trkpt lat="28.66905" lon="-14.00838">
        <ele>15.4</ele>
        <time>2021-07-04 14:33:55</time>
      </trkpt>
      <trkpt lat="28.66901" lon="-14.00838">
        <ele>15.4</ele>
        <time>2021-07-04 14:33:56</time>
      </trkpt>
      <trkpt lat="28.66898" lon="-14.00838">
        <ele>15.4</ele>
        <time>2021-07-04 14:33:57</time>
      </trkpt>
      <trkpt lat="28.66894" lon="-14.00838">
        <ele>15.2</ele>
        <time>2021-07-04 14:33:58</time>
      </trkpt>
      <trkpt lat="28.6689" lon="-14.00838">
        <ele>15.2</ele>
        <time>2021-07-04 14:33:59</time>
      </trkpt>
      <trkpt lat="28.66886" lon="-14.00839">
        <ele>15.2</ele>
        <time>2021-07-04 14:34:00</time>
      </trkpt>
      <trkpt lat="28.66881" lon="-14.00839">
        <ele>15</ele>
        <time>2021-07-04 14:34:01</time>
      </trkpt>
      <trkpt lat="28.66877" lon="-14.0084">
        <ele>15.2</ele>
        <time>2021-07-04 14:34:02</time>
      </trkpt>
      <trkpt lat="28.66873" lon="-14.0084">
        <ele>15.2</ele>
        <time>2021-07-04 14:34:03</time>
      </trkpt>
      <trkpt lat="28.66869" lon="-14.0084">
        <ele>15.2</ele>
        <time>2021-07-04 14:34:04</time>
      </trkpt>
      <trkpt lat="28.66865" lon="-14.0084">
        <ele>15.2</ele>
        <time>2021-07-04 14:34:05</time>
      </trkpt>
      <trkpt lat="28.66861" lon="-14.0084">
        <ele>15.2</ele>
        <time>2021-07-04 14:34:06</time>
      </trkpt>
      <trkpt lat="28.66857" lon="-14.0084">
        <ele>15.2</ele>
        <time>2021-07-04 14:34:07</time>
      </trkpt>
      <trkpt lat="28.66852" lon="-14.0084">
        <ele>15.4</ele>
        <time>2021-07-04 14:34:08</time>
      </trkpt>
      <trkpt lat="28.66848" lon="-14.0084">
        <ele>15.4</ele>
        <time>2021-07-04 14:34:09</time>
      </trkpt>
      <trkpt lat="28.66844" lon="-14.00841">
        <ele>15.6</ele>
        <time>2021-07-04 14:34:10</time>
      </trkpt>
      <trkpt lat="28.66839" lon="-14.00841">
        <ele>15.6</ele>
        <time>2021-07-04 14:34:11</time>
      </trkpt>
      <trkpt lat="28.66835" lon="-14.00841">
        <ele>15.6</ele>
        <time>2021-07-04 14:34:12</time>
      </trkpt>
      <trkpt lat="28.66832" lon="-14.00841">
        <ele>15.6</ele>
        <time>2021-07-04 14:34:13</time>
      </trkpt>
      <trkpt lat="28.66828" lon="-14.00841">
        <ele>15.6</ele>
        <time>2021-07-04 14:34:14</time>
      </trkpt>
      <trkpt lat="28.66824" lon="-14.00841">
        <ele>15.6</ele>
        <time>2021-07-04 14:34:15</time>
      </trkpt>
      <trkpt lat="28.6682" lon="-14.00841">
        <ele>15.8</ele>
        <time>2021-07-04 14:34:16</time>
      </trkpt>
      <trkpt lat="28.66815" lon="-14.00842">
        <ele>15.8</ele>
        <time>2021-07-04 14:34:17</time>
      </trkpt>
      <trkpt lat="28.66811" lon="-14.00842">
        <ele>15.8</ele>
        <time>2021-07-04 14:34:18</time>
      </trkpt>
      <trkpt lat="28.66806" lon="-14.00842">
        <ele>15.8</ele>
        <time>2021-07-04 14:34:19</time>
      </trkpt>
      <trkpt lat="28.66802" lon="-14.00843">
        <ele>15.8</ele>
        <time>2021-07-04 14:34:20</time>
      </trkpt>
      <trkpt lat="28.66797" lon="-14.00842">
        <ele>15.8</ele>
        <time>2021-07-04 14:34:21</time>
      </trkpt>
      <trkpt lat="28.66793" lon="-14.00843">
        <ele>15.6</ele>
        <time>2021-07-04 14:34:22</time>
      </trkpt>
      <trkpt lat="28.66789" lon="-14.00843">
        <ele>15.6</ele>
        <time>2021-07-04 14:34:23</time>
      </trkpt>
      <trkpt lat="28.66784" lon="-14.00844">
        <ele>15.6</ele>
        <time>2021-07-04 14:34:24</time>
      </trkpt>
      <trkpt lat="28.6678" lon="-14.00844">
        <ele>15.4</ele>
        <time>2021-07-04 14:34:25</time>
      </trkpt>
      <trkpt lat="28.66775" lon="-14.00843">
        <ele>15.4</ele>
        <time>2021-07-04 14:34:26</time>
      </trkpt>
      <trkpt lat="28.66771" lon="-14.00844">
        <ele>15.4</ele>
        <time>2021-07-04 14:34:27</time>
      </trkpt>
      <trkpt lat="28.66766" lon="-14.00844">
        <ele>15</ele>
        <time>2021-07-04 14:34:28</time>
      </trkpt>
      <trkpt lat="28.66761" lon="-14.00844">
        <ele>15</ele>
        <time>2021-07-04 14:34:29</time>
      </trkpt>
      <trkpt lat="28.66757" lon="-14.00844">
        <ele>15</ele>
        <time>2021-07-04 14:34:30</time>
      </trkpt>
      <trkpt lat="28.66752" lon="-14.00845">
        <ele>15</ele>
        <time>2021-07-04 14:34:31</time>
      </trkpt>
      <trkpt lat="28.66747" lon="-14.00845">
        <ele>15</ele>
        <time>2021-07-04 14:34:32</time>
      </trkpt>
      <trkpt lat="28.66743" lon="-14.00846">
        <ele>15</ele>
        <time>2021-07-04 14:34:33</time>
      </trkpt>
      <trkpt lat="28.66738" lon="-14.00846">
        <ele>14.6</ele>
        <time>2021-07-04 14:34:34</time>
      </trkpt>
      <trkpt lat="28.66734" lon="-14.00846">
        <ele>14.6</ele>
        <time>2021-07-04 14:34:35</time>
      </trkpt>
      <trkpt lat="28.66729" lon="-14.00846">
        <ele>14.4</ele>
        <time>2021-07-04 14:34:36</time>
      </trkpt>
      <trkpt lat="28.66724" lon="-14.00846">
        <ele>14.4</ele>
        <time>2021-07-04 14:34:37</time>
      </trkpt>
      <trkpt lat="28.6672" lon="-14.00847">
        <ele>14.2</ele>
        <time>2021-07-04 14:34:38</time>
      </trkpt>
      <trkpt lat="28.66715" lon="-14.00847">
        <ele>14.2</ele>
        <time>2021-07-04 14:34:39</time>
      </trkpt>
      <trkpt lat="28.6671" lon="-14.00847">
        <ele>14.2</ele>
        <time>2021-07-04 14:34:40</time>
      </trkpt>
      <trkpt lat="28.66705" lon="-14.00847">
        <ele>14.2</ele>
        <time>2021-07-04 14:34:41</time>
      </trkpt>
      <trkpt lat="28.667" lon="-14.00848">
        <ele>14.2</ele>
        <time>2021-07-04 14:34:42</time>
      </trkpt>
      <trkpt lat="28.66694" lon="-14.00848">
        <ele>14.2</ele>
        <time>2021-07-04 14:34:43</time>
      </trkpt>
      <trkpt lat="28.66689" lon="-14.00848">
        <ele>14.2</ele>
        <time>2021-07-04 14:34:44</time>
      </trkpt>
      <trkpt lat="28.66684" lon="-14.00849">
        <ele>14.2</ele>
        <time>2021-07-04 14:34:45</time>
      </trkpt>
      <trkpt lat="28.66678" lon="-14.0085">
        <ele>14.2</ele>
        <time>2021-07-04 14:34:46</time>
      </trkpt>
      <trkpt lat="28.66673" lon="-14.00851">
        <ele>14.4</ele>
        <time>2021-07-04 14:34:47</time>
      </trkpt>
      <trkpt lat="28.66667" lon="-14.00853">
        <ele>14.4</ele>
        <time>2021-07-04 14:34:48</time>
      </trkpt>
      <trkpt lat="28.66662" lon="-14.00855">
        <ele>14.6</ele>
        <time>2021-07-04 14:34:49</time>
      </trkpt>
      <trkpt lat="28.66657" lon="-14.00858">
        <ele>14.6</ele>
        <time>2021-07-04 14:34:50</time>
      </trkpt>
      <trkpt lat="28.66652" lon="-14.00859">
        <ele>14.6</ele>
        <time>2021-07-04 14:34:51</time>
      </trkpt>
      <trkpt lat="28.66647" lon="-14.00862">
        <ele>14.6</ele>
        <time>2021-07-04 14:34:52</time>
      </trkpt>
      <trkpt lat="28.66644" lon="-14.00865">
        <ele>14.8</ele>
        <time>2021-07-04 14:34:53</time>
      </trkpt>
      <trkpt lat="28.6664" lon="-14.00869">
        <ele>14.8</ele>
        <time>2021-07-04 14:34:54</time>
      </trkpt>
      <trkpt lat="28.66635" lon="-14.00872">
        <ele>14.8</ele>
        <time>2021-07-04 14:34:55</time>
      </trkpt>
      <trkpt lat="28.66631" lon="-14.00875">
        <ele>14.8</ele>
        <time>2021-07-04 14:34:56</time>
      </trkpt>
      <trkpt lat="28.66627" lon="-14.00878">
        <ele>15.2</ele>
        <time>2021-07-04 14:34:57</time>
      </trkpt>
      <trkpt lat="28.66622" lon="-14.00882">
        <ele>15.2</ele>
        <time>2021-07-04 14:34:58</time>
      </trkpt>
      <trkpt lat="28.66618" lon="-14.00885">
        <ele>15.4</ele>
        <time>2021-07-04 14:34:59</time>
      </trkpt>
      <trkpt lat="28.66614" lon="-14.00888">
        <ele>15.4</ele>
        <time>2021-07-04 14:35:00</time>
      </trkpt>
      <trkpt lat="28.6661" lon="-14.00891">
        <ele>15.6</ele>
        <time>2021-07-04 14:35:01</time>
      </trkpt>
      <trkpt lat="28.66605" lon="-14.00895">
        <ele>15.6</ele>
        <time>2021-07-04 14:35:02</time>
      </trkpt>
      <trkpt lat="28.66601" lon="-14.00898">
        <ele>16.2</ele>
        <time>2021-07-04 14:35:03</time>
      </trkpt>
      <trkpt lat="28.66597" lon="-14.00902">
        <ele>16.4</ele>
        <time>2021-07-04 14:35:04</time>
      </trkpt>
      <trkpt lat="28.66593" lon="-14.00905">
        <ele>16.4</ele>
        <time>2021-07-04 14:35:05</time>
      </trkpt>
      <trkpt lat="28.66589" lon="-14.00908">
        <ele>17</ele>
        <time>2021-07-04 14:35:06</time>
      </trkpt>
      <trkpt lat="28.66585" lon="-14.00911">
        <ele>17.4</ele>
        <time>2021-07-04 14:35:07</time>
      </trkpt>
      <trkpt lat="28.66581" lon="-14.00914">
        <ele>17.4</ele>
        <time>2021-07-04 14:35:08</time>
      </trkpt>
      <trkpt lat="28.66578" lon="-14.00917">
        <ele>17.6</ele>
        <time>2021-07-04 14:35:09</time>
      </trkpt>
      <trkpt lat="28.66574" lon="-14.0092">
        <ele>17.6</ele>
        <time>2021-07-04 14:35:10</time>
      </trkpt>
      <trkpt lat="28.66571" lon="-14.00923">
        <ele>18</ele>
        <time>2021-07-04 14:35:11</time>
      </trkpt>
      <trkpt lat="28.66568" lon="-14.00926">
        <ele>18.2</ele>
        <time>2021-07-04 14:35:12</time>
      </trkpt>
      <trkpt lat="28.66564" lon="-14.00929">
        <ele>18.4</ele>
        <time>2021-07-04 14:35:13</time>
      </trkpt>
      <trkpt lat="28.66561" lon="-14.00932">
        <ele>18.4</ele>
        <time>2021-07-04 14:35:14</time>
      </trkpt>
      <trkpt lat="28.66557" lon="-14.00934">
        <ele>18.8</ele>
        <time>2021-07-04 14:35:15</time>
      </trkpt>
      <trkpt lat="28.66554" lon="-14.00937">
        <ele>18.8</ele>
        <time>2021-07-04 14:35:16</time>
      </trkpt>
      <trkpt lat="28.6655" lon="-14.0094">
        <ele>18.8</ele>
        <time>2021-07-04 14:35:17</time>
      </trkpt>
      <trkpt lat="28.66547" lon="-14.00943">
        <ele>18.8</ele>
        <time>2021-07-04 14:35:18</time>
      </trkpt>
      <trkpt lat="28.66543" lon="-14.00946">
        <ele>18.8</ele>
        <time>2021-07-04 14:35:19</time>
      </trkpt>
      <trkpt lat="28.66539" lon="-14.00949">
        <ele>18.8</ele>
        <time>2021-07-04 14:35:20</time>
      </trkpt>
      <trkpt lat="28.66535" lon="-14.00952">
        <ele>18.6</ele>
        <time>2021-07-04 14:35:21</time>
      </trkpt>
      <trkpt lat="28.66532" lon="-14.00956">
        <ele>18.6</ele>
        <time>2021-07-04 14:35:22</time>
      </trkpt>
      <trkpt lat="28.66527" lon="-14.00959">
        <ele>18.4</ele>
        <time>2021-07-04 14:35:23</time>
      </trkpt>
      <trkpt lat="28.66523" lon="-14.00963">
        <ele>18.4</ele>
        <time>2021-07-04 14:35:24</time>
      </trkpt>
      <trkpt lat="28.66519" lon="-14.00966">
        <ele>18.4</ele>
        <time>2021-07-04 14:35:25</time>
      </trkpt>
      <trkpt lat="28.66515" lon="-14.00969">
        <ele>18.4</ele>
        <time>2021-07-04 14:35:26</time>
      </trkpt>
      <trkpt lat="28.6651" lon="-14.00972">
        <ele>18.2</ele>
        <time>2021-07-04 14:35:27</time>
      </trkpt>
      <trkpt lat="28.66506" lon="-14.00975">
        <ele>17.8</ele>
        <time>2021-07-04 14:35:28</time>
      </trkpt>
      <trkpt lat="28.66502" lon="-14.00978">
        <ele>17.6</ele>
        <time>2021-07-04 14:35:29</time>
      </trkpt>
      <trkpt lat="28.66498" lon="-14.00982">
        <ele>17.2</ele>
        <time>2021-07-04 14:35:30</time>
      </trkpt>
      <trkpt lat="28.66494" lon="-14.00984">
        <ele>17</ele>
        <time>2021-07-04 14:35:31</time>
      </trkpt>
      <trkpt lat="28.66491" lon="-14.00988">
        <ele>17</ele>
        <time>2021-07-04 14:35:32</time>
      </trkpt>
      <trkpt lat="28.66487" lon="-14.00991">
        <ele>16.8</ele>
        <time>2021-07-04 14:35:33</time>
      </trkpt>
      <trkpt lat="28.66483" lon="-14.00994">
        <ele>16.8</ele>
        <time>2021-07-04 14:35:34</time>
      </trkpt>
      <trkpt lat="28.66479" lon="-14.00997">
        <ele>16.8</ele>
        <time>2021-07-04 14:35:35</time>
      </trkpt>
      <trkpt lat="28.66475" lon="-14.01">
        <ele>16.8</ele>
        <time>2021-07-04 14:35:36</time>
      </trkpt>
      <trkpt lat="28.66472" lon="-14.01003">
        <ele>16.8</ele>
        <time>2021-07-04 14:35:37</time>
      </trkpt>
      <trkpt lat="28.66468" lon="-14.01006">
        <ele>16.8</ele>
        <time>2021-07-04 14:35:38</time>
      </trkpt>
      <trkpt lat="28.66464" lon="-14.01009">
        <ele>16.8</ele>
        <time>2021-07-04 14:35:39</time>
      </trkpt>
      <trkpt lat="28.6646" lon="-14.01012">
        <ele>16.8</ele>
        <time>2021-07-04 14:35:40</time>
      </trkpt>
      <trkpt lat="28.66456" lon="-14.01015">
        <ele>16.8</ele>
        <time>2021-07-04 14:35:41</time>
      </trkpt>
      <trkpt lat="28.66453" lon="-14.01017">
        <ele>16.8</ele>
        <time>2021-07-04 14:35:42</time>
      </trkpt>
      <trkpt lat="28.66449" lon="-14.0102">
        <ele>16.8</ele>
        <time>2021-07-04 14:35:43</time>
      </trkpt>
      <trkpt lat="28.66445" lon="-14.01023">
        <ele>17</ele>
        <time>2021-07-04 14:35:44</time>
      </trkpt>
      <trkpt lat="28.66441" lon="-14.01026">
        <ele>17</ele>
        <time>2021-07-04 14:35:45</time>
      </trkpt>
      <trkpt lat="28.66437" lon="-14.01029">
        <ele>17</ele>
        <time>2021-07-04 14:35:46</time>
      </trkpt>
      <trkpt lat="28.66433" lon="-14.01032">
        <ele>17</ele>
        <time>2021-07-04 14:35:47</time>
      </trkpt>
      <trkpt lat="28.66429" lon="-14.01035">
        <ele>17</ele>
        <time>2021-07-04 14:35:48</time>
      </trkpt>
      <trkpt lat="28.66426" lon="-14.01038">
        <ele>17</ele>
        <time>2021-07-04 14:35:49</time>
      </trkpt>
      <trkpt lat="28.66422" lon="-14.01041">
        <ele>17</ele>
        <time>2021-07-04 14:35:50</time>
      </trkpt>
      <trkpt lat="28.66419" lon="-14.01044">
        <ele>17</ele>
        <time>2021-07-04 14:35:51</time>
      </trkpt>
      <trkpt lat="28.66416" lon="-14.01046">
        <ele>17</ele>
        <time>2021-07-04 14:35:52</time>
      </trkpt>
      <trkpt lat="28.66413" lon="-14.01048">
        <ele>17.2</ele>
        <time>2021-07-04 14:35:53</time>
      </trkpt>
      <trkpt lat="28.66411" lon="-14.01051">
        <ele>17.2</ele>
        <time>2021-07-04 14:35:54</time>
      </trkpt>
      <trkpt lat="28.66407" lon="-14.01053">
        <ele>17.2</ele>
        <time>2021-07-04 14:35:55</time>
      </trkpt>
      <trkpt lat="28.66404" lon="-14.01056">
        <ele>17.4</ele>
        <time>2021-07-04 14:35:56</time>
      </trkpt>
      <trkpt lat="28.664" lon="-14.01059">
        <ele>17.4</ele>
        <time>2021-07-04 14:35:57</time>
      </trkpt>
      <trkpt lat="28.66396" lon="-14.01061">
        <ele>17.4</ele>
        <time>2021-07-04 14:35:58</time>
      </trkpt>
      <trkpt lat="28.66393" lon="-14.01064">
        <ele>17.4</ele>
        <time>2021-07-04 14:35:59</time>
      </trkpt>
      <trkpt lat="28.66389" lon="-14.01068">
        <ele>17.4</ele>
        <time>2021-07-04 14:36:00</time>
      </trkpt>
      <trkpt lat="28.66386" lon="-14.0107">
        <ele>17.4</ele>
        <time>2021-07-04 14:36:01</time>
      </trkpt>
      <trkpt lat="28.66383" lon="-14.01073">
        <ele>17.4</ele>
        <time>2021-07-04 14:36:02</time>
      </trkpt>
      <trkpt lat="28.66379" lon="-14.01076">
        <ele>17.4</ele>
        <time>2021-07-04 14:36:03</time>
      </trkpt>
      <trkpt lat="28.66375" lon="-14.01079">
        <ele>17.4</ele>
        <time>2021-07-04 14:36:04</time>
      </trkpt>
      <trkpt lat="28.66372" lon="-14.01082">
        <ele>17.4</ele>
        <time>2021-07-04 14:36:05</time>
      </trkpt>
      <trkpt lat="28.66368" lon="-14.01085">
        <ele>17.4</ele>
        <time>2021-07-04 14:36:06</time>
      </trkpt>
      <trkpt lat="28.66364" lon="-14.01088">
        <ele>17.2</ele>
        <time>2021-07-04 14:36:07</time>
      </trkpt>
      <trkpt lat="28.6636" lon="-14.01092">
        <ele>17.2</ele>
        <time>2021-07-04 14:36:08</time>
      </trkpt>
      <trkpt lat="28.66357" lon="-14.01094">
        <ele>17</ele>
        <time>2021-07-04 14:36:09</time>
      </trkpt>
      <trkpt lat="28.66353" lon="-14.01097">
        <ele>17</ele>
        <time>2021-07-04 14:36:10</time>
      </trkpt>
      <trkpt lat="28.66349" lon="-14.011">
        <ele>17</ele>
        <time>2021-07-04 14:36:11</time>
      </trkpt>
      <trkpt lat="28.66345" lon="-14.01103">
        <ele>17</ele>
        <time>2021-07-04 14:36:12</time>
      </trkpt>
      <trkpt lat="28.66341" lon="-14.01105">
        <ele>17</ele>
        <time>2021-07-04 14:36:13</time>
      </trkpt>
      <trkpt lat="28.66337" lon="-14.01108">
        <ele>17</ele>
        <time>2021-07-04 14:36:14</time>
      </trkpt>
      <trkpt lat="28.66333" lon="-14.01111">
        <ele>17</ele>
        <time>2021-07-04 14:36:15</time>
      </trkpt>
      <trkpt lat="28.66329" lon="-14.01114">
        <ele>17</ele>
        <time>2021-07-04 14:36:16</time>
      </trkpt>
      <trkpt lat="28.66324" lon="-14.01116">
        <ele>17</ele>
        <time>2021-07-04 14:36:17</time>
      </trkpt>
      <trkpt lat="28.6632" lon="-14.01118">
        <ele>17.2</ele>
        <time>2021-07-04 14:36:18</time>
      </trkpt>
      <trkpt lat="28.66316" lon="-14.01121">
        <ele>17.2</ele>
        <time>2021-07-04 14:36:19</time>
      </trkpt>
      <trkpt lat="28.66312" lon="-14.01123">
        <ele>17.2</ele>
        <time>2021-07-04 14:36:20</time>
      </trkpt>
      <trkpt lat="28.66308" lon="-14.01126">
        <ele>17.2</ele>
        <time>2021-07-04 14:36:21</time>
      </trkpt>
      <trkpt lat="28.66304" lon="-14.01128">
        <ele>17.2</ele>
        <time>2021-07-04 14:36:22</time>
      </trkpt>
      <trkpt lat="28.663" lon="-14.0113">
        <ele>17.2</ele>
        <time>2021-07-04 14:36:23</time>
      </trkpt>
      <trkpt lat="28.66295" lon="-14.01133">
        <ele>17.2</ele>
        <time>2021-07-04 14:36:24</time>
      </trkpt>
      <trkpt lat="28.66291" lon="-14.01135">
        <ele>17.2</ele>
        <time>2021-07-04 14:36:25</time>
      </trkpt>
      <trkpt lat="28.66287" lon="-14.01137">
        <ele>17.2</ele>
        <time>2021-07-04 14:36:26</time>
      </trkpt>
      <trkpt lat="28.66282" lon="-14.0114">
        <ele>17.2</ele>
        <time>2021-07-04 14:36:27</time>
      </trkpt>
      <trkpt lat="28.66278" lon="-14.01142">
        <ele>17.2</ele>
        <time>2021-07-04 14:36:28</time>
      </trkpt>
      <trkpt lat="28.66274" lon="-14.01144">
        <ele>17.2</ele>
        <time>2021-07-04 14:36:29</time>
      </trkpt>
      <trkpt lat="28.66271" lon="-14.01146">
        <ele>17.2</ele>
        <time>2021-07-04 14:36:30</time>
      </trkpt>
      <trkpt lat="28.66268" lon="-14.01148">
        <ele>17.2</ele>
        <time>2021-07-04 14:36:31</time>
      </trkpt>
      <trkpt lat="28.66265" lon="-14.01149">
        <ele>17.2</ele>
        <time>2021-07-04 14:36:32</time>
      </trkpt>
      <trkpt lat="28.66263" lon="-14.01151">
        <ele>17.4</ele>
        <time>2021-07-04 14:36:33</time>
      </trkpt>
      <trkpt lat="28.66261" lon="-14.01151">
        <ele>17.4</ele>
        <time>2021-07-04 14:36:34</time>
      </trkpt>
      <trkpt lat="28.6626" lon="-14.01152">
        <ele>17.4</ele>
        <time>2021-07-04 14:36:35</time>
      </trkpt>
      <trkpt lat="28.66258" lon="-14.01154">
        <ele>17.4</ele>
        <time>2021-07-04 14:36:36</time>
      </trkpt>
      <trkpt lat="28.66258" lon="-14.01154">
        <ele>17.6</ele>
        <time>2021-07-04 14:36:37</time>
      </trkpt>
      <trkpt lat="28.66258" lon="-14.01154">
        <ele>17.6</ele>
        <time>2021-07-04 14:36:38</time>
      </trkpt>
      <trkpt lat="28.66258" lon="-14.01155">
        <ele>17.6</ele>
        <time>2021-07-04 14:36:39</time>
      </trkpt>
      <trkpt lat="28.66258" lon="-14.01155">
        <ele>17.6</ele>
        <time>2021-07-04 14:36:40</time>
      </trkpt>
      <trkpt lat="28.66258" lon="-14.01156">
        <ele>20.2</ele>
        <time>2021-07-04 14:36:41</time>
      </trkpt>
      <trkpt lat="28.66261" lon="-14.0116">
        <ele>18.6</ele>
        <time>2021-07-04 14:36:42</time>
      </trkpt>
      <trkpt lat="28.66261" lon="-14.01161">
        <ele>18.2</ele>
        <time>2021-07-04 14:36:43</time>
      </trkpt>
      <trkpt lat="28.66261" lon="-14.01161">
        <ele>18.2</ele>
        <time>2021-07-04 14:36:44</time>
      </trkpt>
      <trkpt lat="28.66262" lon="-14.0116">
        <ele>18.2</ele>
        <time>2021-07-04 14:36:45</time>
      </trkpt>
      <trkpt lat="28.66261" lon="-14.0116">
        <ele>17.8</ele>
        <time>2021-07-04 14:36:46</time>
      </trkpt>
      <trkpt lat="28.6626" lon="-14.01159">
        <ele>17.8</ele>
        <time>2021-07-04 14:36:47</time>
      </trkpt>
      <trkpt lat="28.6626" lon="-14.01159">
        <ele>17.8</ele>
        <time>2021-07-04 14:36:48</time>
      </trkpt>
      <trkpt lat="28.6626" lon="-14.01159">
        <ele>18.2</ele>
        <time>2021-07-04 14:36:49</time>
      </trkpt>
      <trkpt lat="28.6626" lon="-14.01158">
        <ele>19.6</ele>
        <time>2021-07-04 14:36:50</time>
      </trkpt>
      <trkpt lat="28.6626" lon="-14.01157">
        <ele>19.8</ele>
        <time>2021-07-04 14:36:51</time>
      </trkpt>
      <trkpt lat="28.6626" lon="-14.01156">
        <ele>19.8</ele>
        <time>2021-07-04 14:36:52</time>
      </trkpt>
      <trkpt lat="28.66259" lon="-14.01156">
        <ele>19.8</ele>
        <time>2021-07-04 14:36:53</time>
      </trkpt>
      <trkpt lat="28.66259" lon="-14.01156">
        <ele>19.4</ele>
        <time>2021-07-04 14:36:54</time>
      </trkpt>
      <trkpt lat="28.66258" lon="-14.01156">
        <ele>19.2</ele>
        <time>2021-07-04 14:36:55</time>
      </trkpt>
      <trkpt lat="28.66258" lon="-14.01155">
        <ele>19.6</ele>
        <time>2021-07-04 14:36:56</time>
      </trkpt>
      <trkpt lat="28.66257" lon="-14.01155">
        <ele>19.6</ele>
        <time>2021-07-04 14:36:57</time>
      </trkpt>
      <trkpt lat="28.66256" lon="-14.01154">
        <ele>19.6</ele>
        <time>2021-07-04 14:36:58</time>
      </trkpt>
      <trkpt lat="28.66255" lon="-14.01154">
        <ele>19.6</ele>
        <time>2021-07-04 14:36:59</time>
      </trkpt>
      <trkpt lat="28.66255" lon="-14.01155">
        <ele>19.6</ele>
        <time>2021-07-04 14:37:00</time>
      </trkpt>
      <trkpt lat="28.66256" lon="-14.01155">
        <ele>19.6</ele>
        <time>2021-07-04 14:37:01</time>
      </trkpt>
      <trkpt lat="28.66254" lon="-14.01156">
        <ele>19.2</ele>
        <time>2021-07-04 14:37:02</time>
      </trkpt>
      <trkpt lat="28.66253" lon="-14.01158">
        <ele>19.2</ele>
        <time>2021-07-04 14:37:03</time>
      </trkpt>
      <trkpt lat="28.66251" lon="-14.01159">
        <ele>19.2</ele>
        <time>2021-07-04 14:37:04</time>
      </trkpt>
      <trkpt lat="28.66249" lon="-14.0116">
        <ele>19.2</ele>
        <time>2021-07-04 14:37:05</time>
      </trkpt>
      <trkpt lat="28.66246" lon="-14.01161">
        <ele>19.2</ele>
        <time>2021-07-04 14:37:06</time>
      </trkpt>
      <trkpt lat="28.66243" lon="-14.01162">
        <ele>19.2</ele>
        <time>2021-07-04 14:37:07</time>
      </trkpt>
      <trkpt lat="28.6624" lon="-14.01163">
        <ele>19</ele>
        <time>2021-07-04 14:37:08</time>
      </trkpt>
      <trkpt lat="28.66237" lon="-14.01165">
        <ele>19</ele>
        <time>2021-07-04 14:37:09</time>
      </trkpt>
      <trkpt lat="28.66234" lon="-14.01167">
        <ele>19</ele>
        <time>2021-07-04 14:37:10</time>
      </trkpt>
      <trkpt lat="28.66231" lon="-14.01168">
        <ele>19</ele>
        <time>2021-07-04 14:37:11</time>
      </trkpt>
      <trkpt lat="28.66228" lon="-14.0117">
        <ele>19</ele>
        <time>2021-07-04 14:37:12</time>
      </trkpt>
      <trkpt lat="28.66225" lon="-14.01172">
        <ele>18.8</ele>
        <time>2021-07-04 14:37:13</time>
      </trkpt>
      <trkpt lat="28.66222" lon="-14.01173">
        <ele>18.8</ele>
        <time>2021-07-04 14:37:14</time>
      </trkpt>
      <trkpt lat="28.66219" lon="-14.01175">
        <ele>18.8</ele>
        <time>2021-07-04 14:37:15</time>
      </trkpt>
      <trkpt lat="28.66215" lon="-14.01177">
        <ele>18.8</ele>
        <time>2021-07-04 14:37:16</time>
      </trkpt>
      <trkpt lat="28.66213" lon="-14.01179">
        <ele>18.8</ele>
        <time>2021-07-04 14:37:17</time>
      </trkpt>
      <trkpt lat="28.6621" lon="-14.01181">
        <ele>18.8</ele>
        <time>2021-07-04 14:37:18</time>
      </trkpt>
      <trkpt lat="28.66207" lon="-14.01182">
        <ele>18.8</ele>
        <time>2021-07-04 14:37:19</time>
      </trkpt>
      <trkpt lat="28.66204" lon="-14.01184">
        <ele>18.8</ele>
        <time>2021-07-04 14:37:20</time>
      </trkpt>
      <trkpt lat="28.66201" lon="-14.01186">
        <ele>18.8</ele>
        <time>2021-07-04 14:37:21</time>
      </trkpt>
      <trkpt lat="28.66198" lon="-14.01188">
        <ele>18.6</ele>
        <time>2021-07-04 14:37:22</time>
      </trkpt>
      <trkpt lat="28.66195" lon="-14.0119">
        <ele>18.6</ele>
        <time>2021-07-04 14:37:23</time>
      </trkpt>
      <trkpt lat="28.66192" lon="-14.01192">
        <ele>18.6</ele>
        <time>2021-07-04 14:41:31</time>
      </trkpt>
      <trkpt lat="28.66188" lon="-14.01194">
        <ele>18.6</ele>
        <time>2021-07-04 14:41:32</time>
      </trkpt>
      <trkpt lat="28.66185" lon="-14.01196">
        <ele>18.6</ele>
        <time>2021-07-04 14:41:33</time>
      </trkpt>
      <trkpt lat="28.66182" lon="-14.01197">
        <ele>18.6</ele>
        <time>2021-07-04 14:41:34</time>
      </trkpt>
      <trkpt lat="28.66178" lon="-14.01199">
        <ele>18.6</ele>
        <time>2021-07-04 14:41:35</time>
      </trkpt>
      <trkpt lat="28.66175" lon="-14.01201">
        <ele>18.6</ele>
        <time>2021-07-04 14:41:36</time>
      </trkpt>
      <trkpt lat="28.66171" lon="-14.01203">
        <ele>18.6</ele>
        <time>2021-07-04 14:41:37</time>
      </trkpt>
      <trkpt lat="28.66167" lon="-14.01204">
        <ele>18.6</ele>
        <time>2021-07-04 14:41:38</time>
      </trkpt>
      <trkpt lat="28.66164" lon="-14.01206">
        <ele>18.6</ele>
        <time>2021-07-04 14:41:39</time>
      </trkpt>
      <trkpt lat="28.6616" lon="-14.01208">
        <ele>18.6</ele>
        <time>2021-07-04 14:41:40</time>
      </trkpt>
      <trkpt lat="28.66157" lon="-14.0121">
        <ele>18.6</ele>
        <time>2021-07-04 14:41:41</time>
      </trkpt>
      <trkpt lat="28.66154" lon="-14.01212">
        <ele>18.6</ele>
        <time>2021-07-04 14:41:42</time>
      </trkpt>
      <trkpt lat="28.6615" lon="-14.01214">
        <ele>18.6</ele>
        <time>2021-07-04 14:41:43</time>
      </trkpt>
      <trkpt lat="28.66147" lon="-14.01216">
        <ele>18.6</ele>
        <time>2021-07-04 14:41:44</time>
      </trkpt>
      <trkpt lat="28.66143" lon="-14.01218">
        <ele>18.6</ele>
        <time>2021-07-04 14:43:04</time>
      </trkpt>
      <trkpt lat="28.6614" lon="-14.0122">
        <ele>18.6</ele>
        <time>2021-07-04 14:43:05</time>
      </trkpt>
      <trkpt lat="28.66136" lon="-14.01222">
        <ele>18.6</ele>
        <time>2021-07-04 14:43:06</time>
      </trkpt>
      <trkpt lat="28.66132" lon="-14.01225">
        <ele>18.6</ele>
        <time>2021-07-04 14:43:07</time>
      </trkpt>
      <trkpt lat="28.66128" lon="-14.01227">
        <ele>18.6</ele>
        <time>2021-07-04 14:43:08</time>
      </trkpt>
      <trkpt lat="28.66124" lon="-14.01229">
        <ele>18.6</ele>
        <time>2021-07-04 14:43:09</time>
      </trkpt>
      <trkpt lat="28.6612" lon="-14.01232">
        <ele>18.6</ele>
        <time>2021-07-04 14:43:49</time>
      </trkpt>
      <trkpt lat="28.66116" lon="-14.01234">
        <ele>18.6</ele>
        <time>2021-07-04 14:43:50</time>
      </trkpt>
      <trkpt lat="28.66112" lon="-14.01236">
        <ele>18.6</ele>
        <time>2021-07-04 14:43:51</time>
      </trkpt>
      <trkpt lat="28.66108" lon="-14.01238">
        <ele>18.6</ele>
        <time>2021-07-04 14:43:52</time>
      </trkpt>
      <trkpt lat="28.66104" lon="-14.01241">
        <ele>19</ele>
        <time>2021-07-04 14:43:53</time>
      </trkpt>
      <trkpt lat="28.661" lon="-14.01243">
        <ele>19</ele>
        <time>2021-07-04 14:43:54</time>
      </trkpt>
      <trkpt lat="28.66096" lon="-14.01246">
        <ele>19</ele>
        <time>2021-07-04 14:43:57</time>
      </trkpt>
      <trkpt lat="28.66092" lon="-14.01248">
        <ele>19</ele>
        <time>2021-07-04 14:43:58</time>
      </trkpt>
      <trkpt lat="28.66088" lon="-14.0125">
        <ele>19</ele>
        <time>2021-07-04 14:43:59</time>
      </trkpt>
      <trkpt lat="28.66085" lon="-14.01252">
        <ele>19</ele>
        <time>2021-07-04 14:44:00</time>
      </trkpt>
      <trkpt lat="28.66081" lon="-14.01254">
        <ele>19</ele>
        <time>2021-07-04 14:44:01</time>
      </trkpt>
      <trkpt lat="28.66077" lon="-14.01256">
        <ele>19</ele>
        <time>2021-07-04 14:44:02</time>
      </trkpt>
      <trkpt lat="28.66074" lon="-14.01258">
        <ele>19</ele>
        <time>2021-07-04 14:44:03</time>
      </trkpt>
      <trkpt lat="28.6607" lon="-14.0126">
        <ele>19</ele>
        <time>2021-07-04 14:44:04</time>
      </trkpt>
      <trkpt lat="28.66067" lon="-14.01262">
        <ele>19.2</ele>
        <time>2021-07-04 14:44:05</time>
      </trkpt>
      <trkpt lat="28.66064" lon="-14.01264">
        <ele>19.2</ele>
        <time>2021-07-04 14:44:06</time>
      </trkpt>
      <trkpt lat="28.66061" lon="-14.01266">
        <ele>19.2</ele>
        <time>2021-07-04 14:44:07</time>
      </trkpt>
      <trkpt lat="28.66058" lon="-14.01268">
        <ele>19.4</ele>
        <time>2021-07-04 14:44:08</time>
      </trkpt>
      <trkpt lat="28.66055" lon="-14.01269">
        <ele>19.4</ele>
        <time>2021-07-04 14:44:09</time>
      </trkpt>
      <trkpt lat="28.66052" lon="-14.01271">
        <ele>19.4</ele>
        <time>2021-07-04 14:44:10</time>
      </trkpt>
      <trkpt lat="28.66048" lon="-14.01272">
        <ele>19.6</ele>
        <time>2021-07-04 14:44:11</time>
      </trkpt>
      <trkpt lat="28.66045" lon="-14.01274">
        <ele>19.6</ele>
        <time>2021-07-04 14:44:12</time>
      </trkpt>
      <trkpt lat="28.66042" lon="-14.01275">
        <ele>19.6</ele>
        <time>2021-07-04 14:44:13</time>
      </trkpt>
      <trkpt lat="28.66038" lon="-14.01277">
        <ele>19.8</ele>
        <time>2021-07-04 14:44:14</time>
      </trkpt>
      <trkpt lat="28.66034" lon="-14.01279">
        <ele>19.8</ele>
        <time>2021-07-04 14:44:15</time>
      </trkpt>
      <trkpt lat="28.66031" lon="-14.01281">
        <ele>19.8</ele>
        <time>2021-07-04 14:44:16</time>
      </trkpt>
      <trkpt lat="28.66027" lon="-14.01283">
        <ele>19.8</ele>
        <time>2021-07-04 14:44:17</time>
      </trkpt>
      <trkpt lat="28.66023" lon="-14.01285">
        <ele>20</ele>
        <time>2021-07-04 14:44:18</time>
      </trkpt>
      <trkpt lat="28.6602" lon="-14.01287">
        <ele>20</ele>
        <time>2021-07-04 14:44:19</time>
      </trkpt>
      <trkpt lat="28.66016" lon="-14.01289">
        <ele>20</ele>
        <time>2021-07-04 14:44:20</time>
      </trkpt>
      <trkpt lat="28.66012" lon="-14.01291">
        <ele>20</ele>
        <time>2021-07-04 14:44:21</time>
      </trkpt>
      <trkpt lat="28.66009" lon="-14.01293">
        <ele>20</ele>
        <time>2021-07-04 14:44:22</time>
      </trkpt>
      <trkpt lat="28.66005" lon="-14.01295">
        <ele>20</ele>
        <time>2021-07-04 14:44:23</time>
      </trkpt>
      <trkpt lat="28.66001" lon="-14.01297">
        <ele>20.4</ele>
        <time>2021-07-04 14:44:24</time>
      </trkpt>
      <trkpt lat="28.65998" lon="-14.01299">
        <ele>20.4</ele>
        <time>2021-07-04 14:44:25</time>
      </trkpt>
      <trkpt lat="28.65994" lon="-14.01301">
        <ele>20.4</ele>
        <time>2021-07-04 14:44:26</time>
      </trkpt>
      <trkpt lat="28.6599" lon="-14.01303">
        <ele>20.4</ele>
        <time>2021-07-04 14:44:27</time>
      </trkpt>
      <trkpt lat="28.65986" lon="-14.01305">
        <ele>20.4</ele>
        <time>2021-07-04 14:44:28</time>
      </trkpt>
      <trkpt lat="28.65983" lon="-14.01307">
        <ele>20.4</ele>
        <time>2021-07-04 14:44:29</time>
      </trkpt>
      <trkpt lat="28.65979" lon="-14.01309">
        <ele>20.4</ele>
        <time>2021-07-04 14:44:30</time>
      </trkpt>
      <trkpt lat="28.65975" lon="-14.01311">
        <ele>20.4</ele>
        <time>2021-07-04 14:44:31</time>
      </trkpt>
      <trkpt lat="28.65972" lon="-14.01313">
        <ele>20.4</ele>
        <time>2021-07-04 14:44:32</time>
      </trkpt>
      <trkpt lat="28.65968" lon="-14.01315">
        <ele>20.4</ele>
        <time>2021-07-04 14:44:33</time>
      </trkpt>
      <trkpt lat="28.65964" lon="-14.01318">
        <ele>20.4</ele>
        <time>2021-07-04 14:44:34</time>
      </trkpt>
      <trkpt lat="28.6596" lon="-14.0132">
        <ele>20.4</ele>
        <time>2021-07-04 14:44:35</time>
      </trkpt>
      <trkpt lat="28.65956" lon="-14.01322">
        <ele>20.4</ele>
        <time>2021-07-04 14:44:36</time>
      </trkpt>
      <trkpt lat="28.65952" lon="-14.01325">
        <ele>20.4</ele>
        <time>2021-07-04 14:44:37</time>
      </trkpt>
      <trkpt lat="28.65948" lon="-14.01328">
        <ele>20.4</ele>
        <time>2021-07-04 14:44:38</time>
      </trkpt>
      <trkpt lat="28.65945" lon="-14.0133">
        <ele>20.4</ele>
        <time>2021-07-04 14:44:39</time>
      </trkpt>
      <trkpt lat="28.65941" lon="-14.01332">
        <ele>20.4</ele>
        <time>2021-07-04 14:44:40</time>
      </trkpt>
      <trkpt lat="28.65937" lon="-14.01334">
        <ele>20.6</ele>
        <time>2021-07-04 14:44:41</time>
      </trkpt>
      <trkpt lat="28.65934" lon="-14.01336">
        <ele>20.6</ele>
        <time>2021-07-04 14:44:42</time>
      </trkpt>
      <trkpt lat="28.6593" lon="-14.01339">
        <ele>20.6</ele>
        <time>2021-07-04 14:44:43</time>
      </trkpt>
      <trkpt lat="28.65926" lon="-14.01341">
        <ele>20.6</ele>
        <time>2021-07-04 14:44:44</time>
      </trkpt>
      <trkpt lat="28.65922" lon="-14.01343">
        <ele>20.6</ele>
        <time>2021-07-04 14:44:45</time>
      </trkpt>
      <trkpt lat="28.65918" lon="-14.01346">
        <ele>20.6</ele>
        <time>2021-07-04 14:44:46</time>
      </trkpt>
      <trkpt lat="28.65913" lon="-14.01348">
        <ele>20.6</ele>
        <time>2021-07-04 14:44:47</time>
      </trkpt>
      <trkpt lat="28.6591" lon="-14.0135">
        <ele>20.8</ele>
        <time>2021-07-04 14:44:48</time>
      </trkpt>
      <trkpt lat="28.65906" lon="-14.01353">
        <ele>20.8</ele>
        <time>2021-07-04 14:44:49</time>
      </trkpt>
      <trkpt lat="28.65902" lon="-14.01354">
        <ele>20.8</ele>
        <time>2021-07-04 14:44:50</time>
      </trkpt>
      <trkpt lat="28.65898" lon="-14.01357">
        <ele>20.8</ele>
        <time>2021-07-04 14:44:51</time>
      </trkpt>
      <trkpt lat="28.65894" lon="-14.01359">
        <ele>20.8</ele>
        <time>2021-07-04 14:44:52</time>
      </trkpt>
      <trkpt lat="28.6589" lon="-14.01361">
        <ele>20.8</ele>
        <time>2021-07-04 14:44:53</time>
      </trkpt>
      <trkpt lat="28.65886" lon="-14.01364">
        <ele>20.8</ele>
        <time>2021-07-04 14:44:54</time>
      </trkpt>
      <trkpt lat="28.65882" lon="-14.01366">
        <ele>21.2</ele>
        <time>2021-07-04 14:44:55</time>
      </trkpt>
      <trkpt lat="28.65878" lon="-14.01368">
        <ele>21.2</ele>
        <time>2021-07-04 14:44:56</time>
      </trkpt>
      <trkpt lat="28.65874" lon="-14.0137">
        <ele>21.2</ele>
        <time>2021-07-04 14:44:57</time>
      </trkpt>
      <trkpt lat="28.6587" lon="-14.01372">
        <ele>21.4</ele>
        <time>2021-07-04 14:44:58</time>
      </trkpt>
      <trkpt lat="28.65866" lon="-14.01375">
        <ele>21.4</ele>
        <time>2021-07-04 14:44:59</time>
      </trkpt>
      <trkpt lat="28.65863" lon="-14.01377">
        <ele>21.4</ele>
        <time>2021-07-04 14:45:00</time>
      </trkpt>
      <trkpt lat="28.65859" lon="-14.01379">
        <ele>21.6</ele>
        <time>2021-07-04 14:45:01</time>
      </trkpt>
      <trkpt lat="28.65855" lon="-14.01381">
        <ele>21.6</ele>
        <time>2021-07-04 14:45:02</time>
      </trkpt>
      <trkpt lat="28.65851" lon="-14.01384">
        <ele>21.6</ele>
        <time>2021-07-04 14:45:03</time>
      </trkpt>
      <trkpt lat="28.65847" lon="-14.01386">
        <ele>21.6</ele>
        <time>2021-07-04 14:45:04</time>
      </trkpt>
      <trkpt lat="28.65843" lon="-14.01389">
        <ele>21.8</ele>
        <time>2021-07-04 14:45:05</time>
      </trkpt>
      <trkpt lat="28.65839" lon="-14.01391">
        <ele>21.8</ele>
        <time>2021-07-04 14:45:06</time>
      </trkpt>
      <trkpt lat="28.65835" lon="-14.01393">
        <ele>22.2</ele>
        <time>2021-07-04 14:45:07</time>
      </trkpt>
      <trkpt lat="28.65831" lon="-14.01395">
        <ele>22.2</ele>
        <time>2021-07-04 14:45:08</time>
      </trkpt>
      <trkpt lat="28.65826" lon="-14.01397">
        <ele>22.2</ele>
        <time>2021-07-04 14:45:09</time>
      </trkpt>
      <trkpt lat="28.65822" lon="-14.014">
        <ele>22.2</ele>
        <time>2021-07-04 14:45:10</time>
      </trkpt>
      <trkpt lat="28.65818" lon="-14.01402">
        <ele>22.4</ele>
        <time>2021-07-04 14:45:11</time>
      </trkpt>
      <trkpt lat="28.65814" lon="-14.01405">
        <ele>22.4</ele>
        <time>2021-07-04 14:45:12</time>
      </trkpt>
      <trkpt lat="28.6581" lon="-14.01407">
        <ele>22.6</ele>
        <time>2021-07-04 14:45:13</time>
      </trkpt>
      <trkpt lat="28.65806" lon="-14.01409">
        <ele>22.6</ele>
        <time>2021-07-04 14:45:14</time>
      </trkpt>
      <trkpt lat="28.65802" lon="-14.01411">
        <ele>22.6</ele>
        <time>2021-07-04 14:45:15</time>
      </trkpt>
      <trkpt lat="28.65798" lon="-14.01413">
        <ele>22.6</ele>
        <time>2021-07-04 14:45:16</time>
      </trkpt>
      <trkpt lat="28.65794" lon="-14.01416">
        <ele>22.6</ele>
        <time>2021-07-04 14:45:17</time>
      </trkpt>
      <trkpt lat="28.6579" lon="-14.01418">
        <ele>22.6</ele>
        <time>2021-07-04 14:45:18</time>
      </trkpt>
      <trkpt lat="28.65786" lon="-14.0142">
        <ele>22.6</ele>
        <time>2021-07-04 14:45:19</time>
      </trkpt>
      <trkpt lat="28.65781" lon="-14.01423">
        <ele>22.6</ele>
        <time>2021-07-04 14:45:20</time>
      </trkpt>
      <trkpt lat="28.65777" lon="-14.01425">
        <ele>22.6</ele>
        <time>2021-07-04 14:45:21</time>
      </trkpt>
      <trkpt lat="28.65773" lon="-14.01428">
        <ele>22.6</ele>
        <time>2021-07-04 14:45:22</time>
      </trkpt>
      <trkpt lat="28.65769" lon="-14.0143">
        <ele>22.8</ele>
        <time>2021-07-04 14:45:23</time>
      </trkpt>
      <trkpt lat="28.65765" lon="-14.01433">
        <ele>22.8</ele>
        <time>2021-07-04 14:45:24</time>
      </trkpt>
      <trkpt lat="28.65762" lon="-14.01434">
        <ele>22.8</ele>
        <time>2021-07-04 14:45:25</time>
      </trkpt>
      <trkpt lat="28.65759" lon="-14.01436">
        <ele>22.8</ele>
        <time>2021-07-04 14:45:26</time>
      </trkpt>
      <trkpt lat="28.65755" lon="-14.01438">
        <ele>22.8</ele>
        <time>2021-07-04 14:45:27</time>
      </trkpt>
      <trkpt lat="28.65752" lon="-14.0144">
        <ele>22.8</ele>
        <time>2021-07-04 14:45:28</time>
      </trkpt>
      <trkpt lat="28.65748" lon="-14.01442">
        <ele>22.8</ele>
        <time>2021-07-04 14:45:29</time>
      </trkpt>
      <trkpt lat="28.65745" lon="-14.01444">
        <ele>22.8</ele>
        <time>2021-07-04 14:45:30</time>
      </trkpt>
      <trkpt lat="28.65741" lon="-14.01446">
        <ele>22.8</ele>
        <time>2021-07-04 14:45:31</time>
      </trkpt>
      <trkpt lat="28.65738" lon="-14.01448">
        <ele>23.2</ele>
        <time>2021-07-04 14:45:32</time>
      </trkpt>
      <trkpt lat="28.65734" lon="-14.01449">
        <ele>23.2</ele>
        <time>2021-07-04 14:45:33</time>
      </trkpt>
      <trkpt lat="28.6573" lon="-14.01451">
        <ele>23.4</ele>
        <time>2021-07-04 14:45:34</time>
      </trkpt>
      <trkpt lat="28.65726" lon="-14.01453">
        <ele>23.4</ele>
        <time>2021-07-04 14:45:35</time>
      </trkpt>
      <trkpt lat="28.65723" lon="-14.01455">
        <ele>23.4</ele>
        <time>2021-07-04 14:45:36</time>
      </trkpt>
      <trkpt lat="28.65719" lon="-14.01457">
        <ele>23.8</ele>
        <time>2021-07-04 14:45:37</time>
      </trkpt>
      <trkpt lat="28.65715" lon="-14.0146">
        <ele>23.8</ele>
        <time>2021-07-04 14:45:38</time>
      </trkpt>
      <trkpt lat="28.65711" lon="-14.01462">
        <ele>23.8</ele>
        <time>2021-07-04 14:45:39</time>
      </trkpt>
      <trkpt lat="28.65708" lon="-14.01464">
        <ele>23.8</ele>
        <time>2021-07-04 14:45:40</time>
      </trkpt>
      <trkpt lat="28.65704" lon="-14.01465">
        <ele>24</ele>
        <time>2021-07-04 14:45:41</time>
      </trkpt>
      <trkpt lat="28.657" lon="-14.01467">
        <ele>24</ele>
        <time>2021-07-04 14:45:42</time>
      </trkpt>
      <trkpt lat="28.65697" lon="-14.01469">
        <ele>24.4</ele>
        <time>2021-07-04 14:45:43</time>
      </trkpt>
      <trkpt lat="28.65694" lon="-14.01471">
        <ele>24.4</ele>
        <time>2021-07-04 14:45:44</time>
      </trkpt>
      <trkpt lat="28.65691" lon="-14.01473">
        <ele>24.4</ele>
        <time>2021-07-04 14:45:45</time>
      </trkpt>
      <trkpt lat="28.65687" lon="-14.01475">
        <ele>24.4</ele>
        <time>2021-07-04 14:45:46</time>
      </trkpt>
      <trkpt lat="28.65684" lon="-14.01478">
        <ele>24.6</ele>
        <time>2021-07-04 14:45:47</time>
      </trkpt>
      <trkpt lat="28.6568" lon="-14.01479">
        <ele>24.6</ele>
        <time>2021-07-04 14:45:48</time>
      </trkpt>
      <trkpt lat="28.65677" lon="-14.01481">
        <ele>24.6</ele>
        <time>2021-07-04 14:45:49</time>
      </trkpt>
      <trkpt lat="28.65673" lon="-14.01483">
        <ele>24.6</ele>
        <time>2021-07-04 14:45:50</time>
      </trkpt>
      <trkpt lat="28.6567" lon="-14.01484">
        <ele>24.6</ele>
        <time>2021-07-04 14:45:51</time>
      </trkpt>
      <trkpt lat="28.65667" lon="-14.01486">
        <ele>24.4</ele>
        <time>2021-07-04 14:45:52</time>
      </trkpt>
      <trkpt lat="28.65663" lon="-14.01488">
        <ele>24.4</ele>
        <time>2021-07-04 14:45:53</time>
      </trkpt>
      <trkpt lat="28.6566" lon="-14.0149">
        <ele>24.4</ele>
        <time>2021-07-04 14:45:54</time>
      </trkpt>
      <trkpt lat="28.65657" lon="-14.01492">
        <ele>24.4</ele>
        <time>2021-07-04 14:45:55</time>
      </trkpt>
      <trkpt lat="28.65654" lon="-14.01494">
        <ele>24.4</ele>
        <time>2021-07-04 14:45:56</time>
      </trkpt>
      <trkpt lat="28.6565" lon="-14.01496">
        <ele>24.4</ele>
        <time>2021-07-04 14:45:57</time>
      </trkpt>
      <trkpt lat="28.65647" lon="-14.01498">
        <ele>24.2</ele>
        <time>2021-07-04 14:45:58</time>
      </trkpt>
      <trkpt lat="28.65643" lon="-14.01499">
        <ele>24.2</ele>
        <time>2021-07-04 14:45:59</time>
      </trkpt>
      <trkpt lat="28.6564" lon="-14.01501">
        <ele>24.2</ele>
        <time>2021-07-04 14:46:00</time>
      </trkpt>
      <trkpt lat="28.65637" lon="-14.01503">
        <ele>24.2</ele>
        <time>2021-07-04 14:46:01</time>
      </trkpt>
      <trkpt lat="28.65633" lon="-14.01504">
        <ele>24.2</ele>
        <time>2021-07-04 14:46:02</time>
      </trkpt>
      <trkpt lat="28.6563" lon="-14.01506">
        <ele>24.2</ele>
        <time>2021-07-04 14:46:03</time>
      </trkpt>
      <trkpt lat="28.65627" lon="-14.01508">
        <ele>24.2</ele>
        <time>2021-07-04 14:46:04</time>
      </trkpt>
      <trkpt lat="28.65623" lon="-14.01509">
        <ele>24.2</ele>
        <time>2021-07-04 14:46:05</time>
      </trkpt>
      <trkpt lat="28.6562" lon="-14.01511">
        <ele>24.2</ele>
        <time>2021-07-04 14:46:06</time>
      </trkpt>
      <trkpt lat="28.65617" lon="-14.01512">
        <ele>24.2</ele>
        <time>2021-07-04 14:46:07</time>
      </trkpt>
      <trkpt lat="28.65614" lon="-14.01514">
        <ele>24.2</ele>
        <time>2021-07-04 14:46:08</time>
      </trkpt>
      <trkpt lat="28.65611" lon="-14.01515">
        <ele>24.2</ele>
        <time>2021-07-04 14:46:09</time>
      </trkpt>
      <trkpt lat="28.65608" lon="-14.01517">
        <ele>24.2</ele>
        <time>2021-07-04 14:46:10</time>
      </trkpt>
      <trkpt lat="28.65605" lon="-14.01518">
        <ele>24.2</ele>
        <time>2021-07-04 14:46:11</time>
      </trkpt>
      <trkpt lat="28.65602" lon="-14.0152">
        <ele>24.2</ele>
        <time>2021-07-04 14:46:12</time>
      </trkpt>
      <trkpt lat="28.65599" lon="-14.01521">
        <ele>24.2</ele>
        <time>2021-07-04 14:46:13</time>
      </trkpt>
      <trkpt lat="28.65596" lon="-14.01523">
        <ele>24.2</ele>
        <time>2021-07-04 14:46:14</time>
      </trkpt>
      <trkpt lat="28.65592" lon="-14.01525">
        <ele>24.2</ele>
        <time>2021-07-04 14:46:15</time>
      </trkpt>
      <trkpt lat="28.65589" lon="-14.01527">
        <ele>24.2</ele>
        <time>2021-07-04 14:46:16</time>
      </trkpt>
      <trkpt lat="28.65585" lon="-14.01529">
        <ele>24.2</ele>
        <time>2021-07-04 14:46:17</time>
      </trkpt>
      <trkpt lat="28.65581" lon="-14.0153">
        <ele>24.2</ele>
        <time>2021-07-04 14:46:18</time>
      </trkpt>
      <trkpt lat="28.65578" lon="-14.01532">
        <ele>24.2</ele>
        <time>2021-07-04 14:46:19</time>
      </trkpt>
      <trkpt lat="28.65574" lon="-14.01533">
        <ele>24.2</ele>
        <time>2021-07-04 14:46:20</time>
      </trkpt>
      <trkpt lat="28.65571" lon="-14.01535">
        <ele>24.2</ele>
        <time>2021-07-04 14:46:21</time>
      </trkpt>
      <trkpt lat="28.65567" lon="-14.01536">
        <ele>24.2</ele>
        <time>2021-07-04 14:46:22</time>
      </trkpt>
      <trkpt lat="28.65563" lon="-14.01537">
        <ele>24.2</ele>
        <time>2021-07-04 14:46:23</time>
      </trkpt>
      <trkpt lat="28.6556" lon="-14.01538">
        <ele>24.2</ele>
        <time>2021-07-04 14:46:24</time>
      </trkpt>
      <trkpt lat="28.65557" lon="-14.0154">
        <ele>24.2</ele>
        <time>2021-07-04 14:46:25</time>
      </trkpt>
      <trkpt lat="28.65553" lon="-14.01542">
        <ele>24.2</ele>
        <time>2021-07-04 14:46:26</time>
      </trkpt>
      <trkpt lat="28.6555" lon="-14.01544">
        <ele>24.2</ele>
        <time>2021-07-04 14:46:27</time>
      </trkpt>
      <trkpt lat="28.65546" lon="-14.01545">
        <ele>24.2</ele>
        <time>2021-07-04 14:46:28</time>
      </trkpt>
      <trkpt lat="28.65543" lon="-14.01547">
        <ele>24.2</ele>
        <time>2021-07-04 14:46:29</time>
      </trkpt>
      <trkpt lat="28.65539" lon="-14.01548">
        <ele>24.2</ele>
        <time>2021-07-04 14:46:30</time>
      </trkpt>
      <trkpt lat="28.65536" lon="-14.0155">
        <ele>24.2</ele>
        <time>2021-07-04 14:46:31</time>
      </trkpt>
      <trkpt lat="28.65532" lon="-14.01551">
        <ele>24.4</ele>
        <time>2021-07-04 14:46:32</time>
      </trkpt>
      <trkpt lat="28.65528" lon="-14.01552">
        <ele>24.4</ele>
        <time>2021-07-04 14:46:33</time>
      </trkpt>
      <trkpt lat="28.65525" lon="-14.01554">
        <ele>24.4</ele>
        <time>2021-07-04 14:46:34</time>
      </trkpt>
      <trkpt lat="28.65521" lon="-14.01555">
        <ele>24.4</ele>
        <time>2021-07-04 14:46:35</time>
      </trkpt>
      <trkpt lat="28.65517" lon="-14.01557">
        <ele>24.4</ele>
        <time>2021-07-04 14:46:36</time>
      </trkpt>
      <trkpt lat="28.65513" lon="-14.01558">
        <ele>24.4</ele>
        <time>2021-07-04 14:46:37</time>
      </trkpt>
      <trkpt lat="28.6551" lon="-14.01559">
        <ele>24.4</ele>
        <time>2021-07-04 14:46:38</time>
      </trkpt>
      <trkpt lat="28.65506" lon="-14.01561">
        <ele>23.8</ele>
        <time>2021-07-04 14:46:39</time>
      </trkpt>
      <trkpt lat="28.65502" lon="-14.01562">
        <ele>23.8</ele>
        <time>2021-07-04 14:46:40</time>
      </trkpt>
      <trkpt lat="28.65498" lon="-14.01562">
        <ele>23.8</ele>
        <time>2021-07-04 14:46:41</time>
      </trkpt>
      <trkpt lat="28.65495" lon="-14.01563">
        <ele>24.2</ele>
        <time>2021-07-04 14:46:42</time>
      </trkpt>
      <trkpt lat="28.65491" lon="-14.01564">
        <ele>24.2</ele>
        <time>2021-07-04 14:46:43</time>
      </trkpt>
      <trkpt lat="28.65487" lon="-14.01565">
        <ele>24.6</ele>
        <time>2021-07-04 14:46:44</time>
      </trkpt>
      <trkpt lat="28.65483" lon="-14.01566">
        <ele>24.6</ele>
        <time>2021-07-04 14:46:45</time>
      </trkpt>
      <trkpt lat="28.65479" lon="-14.01567">
        <ele>24.6</ele>
        <time>2021-07-04 14:46:46</time>
      </trkpt>
      <trkpt lat="28.65475" lon="-14.01568">
        <ele>24.8</ele>
        <time>2021-07-04 14:46:47</time>
      </trkpt>
      <trkpt lat="28.65471" lon="-14.01569">
        <ele>24.8</ele>
        <time>2021-07-04 14:46:48</time>
      </trkpt>
      <trkpt lat="28.65467" lon="-14.01569">
        <ele>24.8</ele>
        <time>2021-07-04 14:46:49</time>
      </trkpt>
      <trkpt lat="28.65463" lon="-14.0157">
        <ele>25.2</ele>
        <time>2021-07-04 14:46:50</time>
      </trkpt>
      <trkpt lat="28.6546" lon="-14.01571">
        <ele>25.2</ele>
        <time>2021-07-04 14:46:51</time>
      </trkpt>
      <trkpt lat="28.65456" lon="-14.01572">
        <ele>25.2</ele>
        <time>2021-07-04 14:46:52</time>
      </trkpt>
      <trkpt lat="28.65452" lon="-14.01573">
        <ele>25.2</ele>
        <time>2021-07-04 14:46:53</time>
      </trkpt>
      <trkpt lat="28.65448" lon="-14.01574">
        <ele>25.2</ele>
        <time>2021-07-04 14:46:54</time>
      </trkpt>
      <trkpt lat="28.65445" lon="-14.01576">
        <ele>25.6</ele>
        <time>2021-07-04 14:46:55</time>
      </trkpt>
      <trkpt lat="28.65441" lon="-14.01577">
        <ele>25.6</ele>
        <time>2021-07-04 14:46:56</time>
      </trkpt>
      <trkpt lat="28.65438" lon="-14.01578">
        <ele>25.6</ele>
        <time>2021-07-04 14:46:57</time>
      </trkpt>
      <trkpt lat="28.65434" lon="-14.01579">
        <ele>25.8</ele>
        <time>2021-07-04 14:46:58</time>
      </trkpt>
      <trkpt lat="28.65431" lon="-14.0158">
        <ele>25.8</ele>
        <time>2021-07-04 14:46:59</time>
      </trkpt>
      <trkpt lat="28.65427" lon="-14.01581">
        <ele>26.2</ele>
        <time>2021-07-04 14:47:00</time>
      </trkpt>
      <trkpt lat="28.65424" lon="-14.01582">
        <ele>26.2</ele>
        <time>2021-07-04 14:47:01</time>
      </trkpt>
      <trkpt lat="28.65421" lon="-14.01582">
        <ele>26.6</ele>
        <time>2021-07-04 14:47:02</time>
      </trkpt>
      <trkpt lat="28.65418" lon="-14.01583">
        <ele>26.6</ele>
        <time>2021-07-04 14:47:03</time>
      </trkpt>
      <trkpt lat="28.65416" lon="-14.01584">
        <ele>26.6</ele>
        <time>2021-07-04 14:47:04</time>
      </trkpt>
      <trkpt lat="28.65413" lon="-14.01584">
        <ele>26.6</ele>
        <time>2021-07-04 14:47:05</time>
      </trkpt>
      <trkpt lat="28.6541" lon="-14.01584">
        <ele>26.6</ele>
        <time>2021-07-04 14:47:06</time>
      </trkpt>
      <trkpt lat="28.65408" lon="-14.01585">
        <ele>26.8</ele>
        <time>2021-07-04 14:47:07</time>
      </trkpt>
      <trkpt lat="28.65405" lon="-14.01586">
        <ele>26.8</ele>
        <time>2021-07-04 14:47:08</time>
      </trkpt>
      <trkpt lat="28.65401" lon="-14.01587">
        <ele>27</ele>
        <time>2021-07-04 14:47:09</time>
      </trkpt>
      <trkpt lat="28.65398" lon="-14.01588">
        <ele>27</ele>
        <time>2021-07-04 14:47:10</time>
      </trkpt>
      <trkpt lat="28.65395" lon="-14.01588">
        <ele>27.4</ele>
        <time>2021-07-04 14:47:11</time>
      </trkpt>
      <trkpt lat="28.65392" lon="-14.01589">
        <ele>27.4</ele>
        <time>2021-07-04 14:47:12</time>
      </trkpt>
      <trkpt lat="28.65389" lon="-14.0159">
        <ele>27.8</ele>
        <time>2021-07-04 14:47:13</time>
      </trkpt>
      <trkpt lat="28.65386" lon="-14.0159">
        <ele>27.8</ele>
        <time>2021-07-04 14:47:14</time>
      </trkpt>
      <trkpt lat="28.65383" lon="-14.01591">
        <ele>27.8</ele>
        <time>2021-07-04 14:47:15</time>
      </trkpt>
      <trkpt lat="28.65379" lon="-14.01592">
        <ele>28</ele>
        <time>2021-07-04 14:47:16</time>
      </trkpt>
      <trkpt lat="28.65376" lon="-14.01592">
        <ele>28</ele>
        <time>2021-07-04 14:47:17</time>
      </trkpt>
      <trkpt lat="28.65373" lon="-14.01593">
        <ele>28</ele>
        <time>2021-07-04 14:47:18</time>
      </trkpt>
      <trkpt lat="28.65369" lon="-14.01594">
        <ele>28</ele>
        <time>2021-07-04 14:47:19</time>
      </trkpt>
      <trkpt lat="28.65366" lon="-14.01595">
        <ele>28</ele>
        <time>2021-07-04 14:47:20</time>
      </trkpt>
      <trkpt lat="28.65362" lon="-14.01595">
        <ele>28</ele>
        <time>2021-07-04 14:47:21</time>
      </trkpt>
      <trkpt lat="28.65358" lon="-14.01596">
        <ele>28</ele>
        <time>2021-07-04 14:47:22</time>
      </trkpt>
      <trkpt lat="28.65355" lon="-14.01597">
        <ele>28.2</ele>
        <time>2021-07-04 14:47:23</time>
      </trkpt>
      <trkpt lat="28.65351" lon="-14.01597">
        <ele>28.2</ele>
        <time>2021-07-04 14:47:24</time>
      </trkpt>
      <trkpt lat="28.65347" lon="-14.01598">
        <ele>28.2</ele>
        <time>2021-07-04 14:47:25</time>
      </trkpt>
      <trkpt lat="28.65344" lon="-14.01599">
        <ele>28.2</ele>
        <time>2021-07-04 14:47:26</time>
      </trkpt>
      <trkpt lat="28.6534" lon="-14.01599">
        <ele>28.2</ele>
        <time>2021-07-04 14:47:27</time>
      </trkpt>
      <trkpt lat="28.65336" lon="-14.016">
        <ele>28.6</ele>
        <time>2021-07-04 14:47:28</time>
      </trkpt>
      <trkpt lat="28.65332" lon="-14.01601">
        <ele>28.6</ele>
        <time>2021-07-04 14:47:29</time>
      </trkpt>
      <trkpt lat="28.65329" lon="-14.01602">
        <ele>28.6</ele>
        <time>2021-07-04 14:47:30</time>
      </trkpt>
      <trkpt lat="28.65326" lon="-14.01603">
        <ele>28.6</ele>
        <time>2021-07-04 14:47:31</time>
      </trkpt>
      <trkpt lat="28.65322" lon="-14.01604">
        <ele>28.6</ele>
        <time>2021-07-04 14:47:32</time>
      </trkpt>
      <trkpt lat="28.65319" lon="-14.01604">
        <ele>28.6</ele>
        <time>2021-07-04 14:47:33</time>
      </trkpt>
      <trkpt lat="28.65315" lon="-14.01605">
        <ele>28.6</ele>
        <time>2021-07-04 14:47:34</time>
      </trkpt>
      <trkpt lat="28.65311" lon="-14.01606">
        <ele>28.6</ele>
        <time>2021-07-04 14:47:35</time>
      </trkpt>
      <trkpt lat="28.65307" lon="-14.01606">
        <ele>28.8</ele>
        <time>2021-07-04 14:47:36</time>
      </trkpt>
      <trkpt lat="28.65304" lon="-14.01607">
        <ele>28.8</ele>
        <time>2021-07-04 14:47:37</time>
      </trkpt>
      <trkpt lat="28.653" lon="-14.01608">
        <ele>29</ele>
        <time>2021-07-04 14:47:38</time>
      </trkpt>
      <trkpt lat="28.65297" lon="-14.01609">
        <ele>29</ele>
        <time>2021-07-04 14:47:39</time>
      </trkpt>
      <trkpt lat="28.65294" lon="-14.01609">
        <ele>29</ele>
        <time>2021-07-04 14:47:40</time>
      </trkpt>
      <trkpt lat="28.65291" lon="-14.0161">
        <ele>29.2</ele>
        <time>2021-07-04 14:47:41</time>
      </trkpt>
      <trkpt lat="28.65288" lon="-14.01611">
        <ele>29.2</ele>
        <time>2021-07-04 14:47:42</time>
      </trkpt>
      <trkpt lat="28.65286" lon="-14.01611">
        <ele>29.2</ele>
        <time>2021-07-04 14:47:43</time>
      </trkpt>
      <trkpt lat="28.65283" lon="-14.01612">
        <ele>29.6</ele>
        <time>2021-07-04 14:47:44</time>
      </trkpt>
      <trkpt lat="28.6528" lon="-14.01612">
        <ele>29.6</ele>
        <time>2021-07-04 14:47:45</time>
      </trkpt>
      <trkpt lat="28.65278" lon="-14.01613">
        <ele>30</ele>
        <time>2021-07-04 14:47:46</time>
      </trkpt>
      <trkpt lat="28.65275" lon="-14.01613">
        <ele>30.2</ele>
        <time>2021-07-04 14:47:47</time>
      </trkpt>
      <trkpt lat="28.65273" lon="-14.01614">
        <ele>30.6</ele>
        <time>2021-07-04 14:47:48</time>
      </trkpt>
      <trkpt lat="28.6527" lon="-14.01614">
        <ele>31</ele>
        <time>2021-07-04 14:47:49</time>
      </trkpt>
      <trkpt lat="28.65268" lon="-14.01615">
        <ele>31.4</ele>
        <time>2021-07-04 14:47:50</time>
      </trkpt>
      <trkpt lat="28.65265" lon="-14.01615">
        <ele>31.8</ele>
        <time>2021-07-04 14:47:51</time>
      </trkpt>
      <trkpt lat="28.65262" lon="-14.01616">
        <ele>32</ele>
        <time>2021-07-04 14:47:52</time>
      </trkpt>
      <trkpt lat="28.65259" lon="-14.01617">
        <ele>32.6</ele>
        <time>2021-07-04 14:47:53</time>
      </trkpt>
      <trkpt lat="28.65256" lon="-14.01618">
        <ele>32.8</ele>
        <time>2021-07-04 14:47:54</time>
      </trkpt>
      <trkpt lat="28.65253" lon="-14.01619">
        <ele>33.2</ele>
        <time>2021-07-04 14:47:55</time>
      </trkpt>
      <trkpt lat="28.6525" lon="-14.0162">
        <ele>33.4</ele>
        <time>2021-07-04 14:47:56</time>
      </trkpt>
      <trkpt lat="28.65247" lon="-14.01621">
        <ele>33.4</ele>
        <time>2021-07-04 14:47:57</time>
      </trkpt>
      <trkpt lat="28.65244" lon="-14.01621">
        <ele>33.6</ele>
        <time>2021-07-04 14:47:58</time>
      </trkpt>
      <trkpt lat="28.65241" lon="-14.01622">
        <ele>33.6</ele>
        <time>2021-07-04 14:47:59</time>
      </trkpt>
      <trkpt lat="28.65238" lon="-14.01623">
        <ele>33.6</ele>
        <time>2021-07-04 14:48:00</time>
      </trkpt>
      <trkpt lat="28.65234" lon="-14.01623">
        <ele>33.6</ele>
        <time>2021-07-04 14:48:01</time>
      </trkpt>
      <trkpt lat="28.65231" lon="-14.01624">
        <ele>33.6</ele>
        <time>2021-07-04 14:48:02</time>
      </trkpt>
      <trkpt lat="28.65227" lon="-14.01625">
        <ele>33.6</ele>
        <time>2021-07-04 14:48:03</time>
      </trkpt>
      <trkpt lat="28.65224" lon="-14.01626">
        <ele>33.6</ele>
        <time>2021-07-04 14:48:04</time>
      </trkpt>
      <trkpt lat="28.65221" lon="-14.01627">
        <ele>33.6</ele>
        <time>2021-07-04 14:48:05</time>
      </trkpt>
      <trkpt lat="28.65217" lon="-14.01628">
        <ele>33.6</ele>
        <time>2021-07-04 14:48:06</time>
      </trkpt>
      <trkpt lat="28.65214" lon="-14.01629">
        <ele>33.6</ele>
        <time>2021-07-04 14:48:07</time>
      </trkpt>
      <trkpt lat="28.6521" lon="-14.01629">
        <ele>33.6</ele>
        <time>2021-07-04 14:48:08</time>
      </trkpt>
      <trkpt lat="28.65207" lon="-14.0163">
        <ele>33.6</ele>
        <time>2021-07-04 14:48:09</time>
      </trkpt>
      <trkpt lat="28.65203" lon="-14.01631">
        <ele>33.4</ele>
        <time>2021-07-04 14:48:10</time>
      </trkpt>
      <trkpt lat="28.652" lon="-14.01632">
        <ele>33.4</ele>
        <time>2021-07-04 14:48:11</time>
      </trkpt>
      <trkpt lat="28.65196" lon="-14.01633">
        <ele>33.4</ele>
        <time>2021-07-04 14:48:12</time>
      </trkpt>
      <trkpt lat="28.65193" lon="-14.01634">
        <ele>33.4</ele>
        <time>2021-07-04 14:48:13</time>
      </trkpt>
      <trkpt lat="28.6519" lon="-14.01635">
        <ele>33.2</ele>
        <time>2021-07-04 14:48:14</time>
      </trkpt>
      <trkpt lat="28.65187" lon="-14.01636">
        <ele>33.2</ele>
        <time>2021-07-04 14:48:15</time>
      </trkpt>
      <trkpt lat="28.65183" lon="-14.01637">
        <ele>33.2</ele>
        <time>2021-07-04 14:48:16</time>
      </trkpt>
      <trkpt lat="28.6518" lon="-14.01638">
        <ele>33.2</ele>
        <time>2021-07-04 14:48:17</time>
      </trkpt>
      <trkpt lat="28.65177" lon="-14.01638">
        <ele>33.2</ele>
        <time>2021-07-04 14:48:18</time>
      </trkpt>
      <trkpt lat="28.65174" lon="-14.01639">
        <ele>33.2</ele>
        <time>2021-07-04 14:48:19</time>
      </trkpt>
      <trkpt lat="28.65171" lon="-14.0164">
        <ele>33.2</ele>
        <time>2021-07-04 14:48:20</time>
      </trkpt>
      <trkpt lat="28.65167" lon="-14.01641">
        <ele>33.2</ele>
        <time>2021-07-04 14:48:21</time>
      </trkpt>
      <trkpt lat="28.65164" lon="-14.01641">
        <ele>33.2</ele>
        <time>2021-07-04 14:48:22</time>
      </trkpt>
      <trkpt lat="28.6516" lon="-14.01642">
        <ele>33.2</ele>
        <time>2021-07-04 14:48:23</time>
      </trkpt>
      <trkpt lat="28.65156" lon="-14.01643">
        <ele>33.2</ele>
        <time>2021-07-04 14:48:24</time>
      </trkpt>
      <trkpt lat="28.65153" lon="-14.01644">
        <ele>33.2</ele>
        <time>2021-07-04 14:48:25</time>
      </trkpt>
      <trkpt lat="28.65149" lon="-14.01645">
        <ele>33.6</ele>
        <time>2021-07-04 14:48:26</time>
      </trkpt>
      <trkpt lat="28.65146" lon="-14.01646">
        <ele>33.6</ele>
        <time>2021-07-04 14:48:27</time>
      </trkpt>
      <trkpt lat="28.65143" lon="-14.01647">
        <ele>33.8</ele>
        <time>2021-07-04 14:48:28</time>
      </trkpt>
      <trkpt lat="28.6514" lon="-14.01648">
        <ele>33.8</ele>
        <time>2021-07-04 14:48:29</time>
      </trkpt>
      <trkpt lat="28.65137" lon="-14.01649">
        <ele>34.2</ele>
        <time>2021-07-04 14:48:30</time>
      </trkpt>
      <trkpt lat="28.65134" lon="-14.0165">
        <ele>34.2</ele>
        <time>2021-07-04 14:48:31</time>
      </trkpt>
      <trkpt lat="28.65131" lon="-14.01651">
        <ele>34.6</ele>
        <time>2021-07-04 14:48:32</time>
      </trkpt>
      <trkpt lat="28.65128" lon="-14.01652">
        <ele>34.6</ele>
        <time>2021-07-04 14:48:33</time>
      </trkpt>
      <trkpt lat="28.65125" lon="-14.01652">
        <ele>34.8</ele>
        <time>2021-07-04 14:48:34</time>
      </trkpt>
      <trkpt lat="28.65122" lon="-14.01653">
        <ele>34.8</ele>
        <time>2021-07-04 14:48:35</time>
      </trkpt>
      <trkpt lat="28.6512" lon="-14.01655">
        <ele>34.8</ele>
        <time>2021-07-04 14:48:36</time>
      </trkpt>
      <trkpt lat="28.65116" lon="-14.01656">
        <ele>34.8</ele>
        <time>2021-07-04 14:48:37</time>
      </trkpt>
      <trkpt lat="28.65113" lon="-14.01656">
        <ele>35</ele>
        <time>2021-07-04 14:48:38</time>
      </trkpt>
      <trkpt lat="28.65109" lon="-14.01657">
        <ele>35</ele>
        <time>2021-07-04 14:48:39</time>
      </trkpt>
      <trkpt lat="28.65105" lon="-14.01657">
        <ele>35</ele>
        <time>2021-07-04 14:48:40</time>
      </trkpt>
      <trkpt lat="28.65101" lon="-14.01658">
        <ele>35</ele>
        <time>2021-07-04 14:48:41</time>
      </trkpt>
      <trkpt lat="28.65097" lon="-14.01659">
        <ele>35</ele>
        <time>2021-07-04 14:48:42</time>
      </trkpt>
      <trkpt lat="28.65093" lon="-14.0166">
        <ele>35</ele>
        <time>2021-07-04 14:48:43</time>
      </trkpt>
      <trkpt lat="28.6509" lon="-14.0166">
        <ele>35</ele>
        <time>2021-07-04 14:48:44</time>
      </trkpt>
      <trkpt lat="28.65086" lon="-14.01661">
        <ele>35</ele>
        <time>2021-07-04 14:48:45</time>
      </trkpt>
      <trkpt lat="28.65083" lon="-14.01661">
        <ele>35</ele>
        <time>2021-07-04 14:48:46</time>
      </trkpt>
      <trkpt lat="28.65079" lon="-14.01662">
        <ele>35</ele>
        <time>2021-07-04 14:48:47</time>
      </trkpt>
      <trkpt lat="28.65076" lon="-14.01663">
        <ele>34.6</ele>
        <time>2021-07-04 14:48:48</time>
      </trkpt>
      <trkpt lat="28.65072" lon="-14.01663">
        <ele>34.6</ele>
        <time>2021-07-04 14:48:49</time>
      </trkpt>
      <trkpt lat="28.65069" lon="-14.01664">
        <ele>34.4</ele>
        <time>2021-07-04 14:48:50</time>
      </trkpt>
      <trkpt lat="28.65066" lon="-14.01665">
        <ele>34.4</ele>
        <time>2021-07-04 14:48:51</time>
      </trkpt>
      <trkpt lat="28.65063" lon="-14.01665">
        <ele>34.4</ele>
        <time>2021-07-04 14:48:52</time>
      </trkpt>
      <trkpt lat="28.65061" lon="-14.01666">
        <ele>34.4</ele>
        <time>2021-07-04 14:48:53</time>
      </trkpt>
      <trkpt lat="28.65058" lon="-14.01666">
        <ele>34.4</ele>
        <time>2021-07-04 14:48:54</time>
      </trkpt>
      <trkpt lat="28.65056" lon="-14.01666">
        <ele>34.4</ele>
        <time>2021-07-04 14:48:55</time>
      </trkpt>
      <trkpt lat="28.65054" lon="-14.01666">
        <ele>34.4</ele>
        <time>2021-07-04 14:48:56</time>
      </trkpt>
      <trkpt lat="28.6505" lon="-14.01667">
        <ele>34.4</ele>
        <time>2021-07-04 14:48:57</time>
      </trkpt>
      <trkpt lat="28.65047" lon="-14.01668">
        <ele>34.4</ele>
        <time>2021-07-04 14:48:58</time>
      </trkpt>
      <trkpt lat="28.65043" lon="-14.01669">
        <ele>34</ele>
        <time>2021-07-04 14:48:59</time>
      </trkpt>
      <trkpt lat="28.65039" lon="-14.0167">
        <ele>34</ele>
        <time>2021-07-04 14:49:00</time>
      </trkpt>
      <trkpt lat="28.65035" lon="-14.01671">
        <ele>33.8</ele>
        <time>2021-07-04 14:49:01</time>
      </trkpt>
      <trkpt lat="28.65031" lon="-14.01671">
        <ele>33.4</ele>
        <time>2021-07-04 14:49:02</time>
      </trkpt>
      <trkpt lat="28.65027" lon="-14.01672">
        <ele>33.4</ele>
        <time>2021-07-04 14:49:03</time>
      </trkpt>
      <trkpt lat="28.65024" lon="-14.01673">
        <ele>33.2</ele>
        <time>2021-07-04 14:49:04</time>
      </trkpt>
      <trkpt lat="28.6502" lon="-14.01674">
        <ele>33.2</ele>
        <time>2021-07-04 14:49:05</time>
      </trkpt>
      <trkpt lat="28.65017" lon="-14.01675">
        <ele>33.2</ele>
        <time>2021-07-04 14:49:06</time>
      </trkpt>
      <trkpt lat="28.65013" lon="-14.01676">
        <ele>33.2</ele>
        <time>2021-07-04 14:49:07</time>
      </trkpt>
      <trkpt lat="28.65009" lon="-14.01676">
        <ele>33.2</ele>
        <time>2021-07-04 14:49:08</time>
      </trkpt>
      <trkpt lat="28.65005" lon="-14.01677">
        <ele>33</ele>
        <time>2021-07-04 14:49:09</time>
      </trkpt>
      <trkpt lat="28.65001" lon="-14.01678">
        <ele>33</ele>
        <time>2021-07-04 14:49:10</time>
      </trkpt>
      <trkpt lat="28.64997" lon="-14.01679">
        <ele>33</ele>
        <time>2021-07-04 14:49:11</time>
      </trkpt>
      <trkpt lat="28.64993" lon="-14.01679">
        <ele>33</ele>
        <time>2021-07-04 14:49:12</time>
      </trkpt>
      <trkpt lat="28.6499" lon="-14.0168">
        <ele>33</ele>
        <time>2021-07-04 14:49:13</time>
      </trkpt>
      <trkpt lat="28.64986" lon="-14.01681">
        <ele>33</ele>
        <time>2021-07-04 14:49:14</time>
      </trkpt>
      <trkpt lat="28.64983" lon="-14.01682">
        <ele>33</ele>
        <time>2021-07-04 14:49:15</time>
      </trkpt>
      <trkpt lat="28.6498" lon="-14.01682">
        <ele>33</ele>
        <time>2021-07-04 14:49:16</time>
      </trkpt>
      <trkpt lat="28.64976" lon="-14.01683">
        <ele>33</ele>
        <time>2021-07-04 14:49:17</time>
      </trkpt>
      <trkpt lat="28.64973" lon="-14.01683">
        <ele>33</ele>
        <time>2021-07-04 14:49:18</time>
      </trkpt>
      <trkpt lat="28.6497" lon="-14.01684">
        <ele>33</ele>
        <time>2021-07-04 14:49:19</time>
      </trkpt>
      <trkpt lat="28.64967" lon="-14.01685">
        <ele>33</ele>
        <time>2021-07-04 14:49:20</time>
      </trkpt>
      <trkpt lat="28.64964" lon="-14.01685">
        <ele>33</ele>
        <time>2021-07-04 14:49:21</time>
      </trkpt>
      <trkpt lat="28.64961" lon="-14.01686">
        <ele>33</ele>
        <time>2021-07-04 14:49:22</time>
      </trkpt>
      <trkpt lat="28.64957" lon="-14.01686">
        <ele>33</ele>
        <time>2021-07-04 14:49:23</time>
      </trkpt>
      <trkpt lat="28.64954" lon="-14.01687">
        <ele>33</ele>
        <time>2021-07-04 14:49:24</time>
      </trkpt>
      <trkpt lat="28.64951" lon="-14.01687">
        <ele>33.2</ele>
        <time>2021-07-04 14:49:25</time>
      </trkpt>
      <trkpt lat="28.64948" lon="-14.01688">
        <ele>33.2</ele>
        <time>2021-07-04 14:49:26</time>
      </trkpt>
      <trkpt lat="28.64945" lon="-14.01689">
        <ele>33.4</ele>
        <time>2021-07-04 14:49:27</time>
      </trkpt>
      <trkpt lat="28.64941" lon="-14.01689">
        <ele>33.6</ele>
        <time>2021-07-04 14:49:28</time>
      </trkpt>
      <trkpt lat="28.64937" lon="-14.0169">
        <ele>33.6</ele>
        <time>2021-07-04 14:49:29</time>
      </trkpt>
      <trkpt lat="28.64933" lon="-14.01691">
        <ele>34</ele>
        <time>2021-07-04 14:49:30</time>
      </trkpt>
      <trkpt lat="28.6493" lon="-14.01692">
        <ele>34</ele>
        <time>2021-07-04 14:49:31</time>
      </trkpt>
      <trkpt lat="28.64927" lon="-14.01693">
        <ele>34.2</ele>
        <time>2021-07-04 14:49:32</time>
      </trkpt>
      <trkpt lat="28.64924" lon="-14.01694">
        <ele>34.2</ele>
        <time>2021-07-04 14:49:33</time>
      </trkpt>
      <trkpt lat="28.6492" lon="-14.01695">
        <ele>34.4</ele>
        <time>2021-07-04 14:49:34</time>
      </trkpt>
      <trkpt lat="28.64918" lon="-14.01696">
        <ele>34.4</ele>
        <time>2021-07-04 14:49:35</time>
      </trkpt>
      <trkpt lat="28.64915" lon="-14.01697">
        <ele>34.8</ele>
        <time>2021-07-04 14:49:36</time>
      </trkpt>
      <trkpt lat="28.64912" lon="-14.01698">
        <ele>34.8</ele>
        <time>2021-07-04 14:49:37</time>
      </trkpt>
      <trkpt lat="28.64909" lon="-14.01698">
        <ele>34.8</ele>
        <time>2021-07-04 14:49:38</time>
      </trkpt>
      <trkpt lat="28.64905" lon="-14.01699">
        <ele>34.8</ele>
        <time>2021-07-04 14:49:39</time>
      </trkpt>
      <trkpt lat="28.64902" lon="-14.017">
        <ele>34.8</ele>
        <time>2021-07-04 14:49:40</time>
      </trkpt>
      <trkpt lat="28.64898" lon="-14.01701">
        <ele>35</ele>
        <time>2021-07-04 14:49:41</time>
      </trkpt>
      <trkpt lat="28.64895" lon="-14.01702">
        <ele>35</ele>
        <time>2021-07-04 14:49:42</time>
      </trkpt>
      <trkpt lat="28.64892" lon="-14.01703">
        <ele>35</ele>
        <time>2021-07-04 14:49:43</time>
      </trkpt>
      <trkpt lat="28.64888" lon="-14.01704">
        <ele>35</ele>
        <time>2021-07-04 14:49:44</time>
      </trkpt>
      <trkpt lat="28.64885" lon="-14.01705">
        <ele>35</ele>
        <time>2021-07-04 14:49:45</time>
      </trkpt>
      <trkpt lat="28.64882" lon="-14.01706">
        <ele>35</ele>
        <time>2021-07-04 14:49:46</time>
      </trkpt>
      <trkpt lat="28.64878" lon="-14.01706">
        <ele>35</ele>
        <time>2021-07-04 14:49:47</time>
      </trkpt>
      <trkpt lat="28.64875" lon="-14.01707">
        <ele>35</ele>
        <time>2021-07-04 14:49:48</time>
      </trkpt>
      <trkpt lat="28.64872" lon="-14.01708">
        <ele>35.2</ele>
        <time>2021-07-04 14:49:49</time>
      </trkpt>
      <trkpt lat="28.64868" lon="-14.01708">
        <ele>35.2</ele>
        <time>2021-07-04 14:49:50</time>
      </trkpt>
      <trkpt lat="28.64865" lon="-14.01709">
        <ele>35.6</ele>
        <time>2021-07-04 14:49:51</time>
      </trkpt>
      <trkpt lat="28.64862" lon="-14.0171">
        <ele>35.6</ele>
        <time>2021-07-04 14:49:52</time>
      </trkpt>
      <trkpt lat="28.64858" lon="-14.01711">
        <ele>35.6</ele>
        <time>2021-07-04 14:49:53</time>
      </trkpt>
      <trkpt lat="28.64855" lon="-14.01712">
        <ele>35.6</ele>
        <time>2021-07-04 14:49:54</time>
      </trkpt>
      <trkpt lat="28.64852" lon="-14.01713">
        <ele>35.6</ele>
        <time>2021-07-04 14:49:55</time>
      </trkpt>
      <trkpt lat="28.64848" lon="-14.01714">
        <ele>35.6</ele>
        <time>2021-07-04 14:49:56</time>
      </trkpt>
      <trkpt lat="28.64845" lon="-14.01714">
        <ele>35.8</ele>
        <time>2021-07-04 14:49:57</time>
      </trkpt>
      <trkpt lat="28.64841" lon="-14.01715">
        <ele>35.8</ele>
        <time>2021-07-04 14:49:58</time>
      </trkpt>
      <trkpt lat="28.64838" lon="-14.01716">
        <ele>35.8</ele>
        <time>2021-07-04 14:49:59</time>
      </trkpt>
      <trkpt lat="28.64835" lon="-14.01717">
        <ele>36</ele>
        <time>2021-07-04 14:50:00</time>
      </trkpt>
      <trkpt lat="28.64831" lon="-14.01718">
        <ele>36</ele>
        <time>2021-07-04 14:50:01</time>
      </trkpt>
      <trkpt lat="28.64828" lon="-14.01719">
        <ele>36</ele>
        <time>2021-07-04 14:50:02</time>
      </trkpt>
      <trkpt lat="28.64824" lon="-14.0172">
        <ele>36</ele>
        <time>2021-07-04 14:50:03</time>
      </trkpt>
      <trkpt lat="28.6482" lon="-14.0172">
        <ele>36</ele>
        <time>2021-07-04 14:50:04</time>
      </trkpt>
      <trkpt lat="28.64816" lon="-14.01721">
        <ele>36</ele>
        <time>2021-07-04 14:50:05</time>
      </trkpt>
      <trkpt lat="28.64813" lon="-14.01722">
        <ele>36</ele>
        <time>2021-07-04 14:50:06</time>
      </trkpt>
      <trkpt lat="28.64809" lon="-14.01723">
        <ele>36</ele>
        <time>2021-07-04 14:50:07</time>
      </trkpt>
      <trkpt lat="28.64806" lon="-14.01724">
        <ele>36</ele>
        <time>2021-07-04 14:50:08</time>
      </trkpt>
      <trkpt lat="28.64802" lon="-14.01724">
        <ele>36</ele>
        <time>2021-07-04 14:50:09</time>
      </trkpt>
      <trkpt lat="28.64798" lon="-14.01725">
        <ele>36</ele>
        <time>2021-07-04 14:50:10</time>
      </trkpt>
      <trkpt lat="28.64794" lon="-14.01726">
        <ele>36.4</ele>
        <time>2021-07-04 14:50:11</time>
      </trkpt>
      <trkpt lat="28.6479" lon="-14.01728">
        <ele>36.4</ele>
        <time>2021-07-04 14:50:12</time>
      </trkpt>
      <trkpt lat="28.64786" lon="-14.01729">
        <ele>36.6</ele>
        <time>2021-07-04 14:50:13</time>
      </trkpt>
      <trkpt lat="28.64782" lon="-14.0173">
        <ele>36.6</ele>
        <time>2021-07-04 14:50:14</time>
      </trkpt>
      <trkpt lat="28.64778" lon="-14.01731">
        <ele>36.6</ele>
        <time>2021-07-04 14:50:15</time>
      </trkpt>
      <trkpt lat="28.64773" lon="-14.01731">
        <ele>36.6</ele>
        <time>2021-07-04 14:50:16</time>
      </trkpt>
      <trkpt lat="28.64769" lon="-14.01732">
        <ele>36.6</ele>
        <time>2021-07-04 14:50:17</time>
      </trkpt>
      <trkpt lat="28.64765" lon="-14.01733">
        <ele>36.6</ele>
        <time>2021-07-04 14:50:18</time>
      </trkpt>
      <trkpt lat="28.64761" lon="-14.01734">
        <ele>36.6</ele>
        <time>2021-07-04 14:50:19</time>
      </trkpt>
      <trkpt lat="28.64757" lon="-14.01735">
        <ele>36.8</ele>
        <time>2021-07-04 14:50:20</time>
      </trkpt>
      <trkpt lat="28.64753" lon="-14.01735">
        <ele>36.8</ele>
        <time>2021-07-04 14:50:21</time>
      </trkpt>
      <trkpt lat="28.64749" lon="-14.01736">
        <ele>36.8</ele>
        <time>2021-07-04 14:50:22</time>
      </trkpt>
      <trkpt lat="28.64746" lon="-14.01737">
        <ele>36.8</ele>
        <time>2021-07-04 14:50:23</time>
      </trkpt>
      <trkpt lat="28.64742" lon="-14.01738">
        <ele>36.8</ele>
        <time>2021-07-04 14:50:24</time>
      </trkpt>
      <trkpt lat="28.64738" lon="-14.01739">
        <ele>36.8</ele>
        <time>2021-07-04 14:50:25</time>
      </trkpt>
      <trkpt lat="28.64735" lon="-14.0174">
        <ele>36.8</ele>
        <time>2021-07-04 14:50:26</time>
      </trkpt>
      <trkpt lat="28.64731" lon="-14.0174">
        <ele>36.8</ele>
        <time>2021-07-04 14:50:27</time>
      </trkpt>
      <trkpt lat="28.64727" lon="-14.01741">
        <ele>36.8</ele>
        <time>2021-07-04 14:50:28</time>
      </trkpt>
      <trkpt lat="28.64723" lon="-14.01742">
        <ele>36.8</ele>
        <time>2021-07-04 14:50:29</time>
      </trkpt>
      <trkpt lat="28.64719" lon="-14.01742">
        <ele>36.8</ele>
        <time>2021-07-04 14:50:30</time>
      </trkpt>
      <trkpt lat="28.64715" lon="-14.01743">
        <ele>36.8</ele>
        <time>2021-07-04 14:50:31</time>
      </trkpt>
      <trkpt lat="28.64711" lon="-14.01744">
        <ele>36.8</ele>
        <time>2021-07-04 14:50:32</time>
      </trkpt>
      <trkpt lat="28.64707" lon="-14.01745">
        <ele>37</ele>
        <time>2021-07-04 14:50:33</time>
      </trkpt>
      <trkpt lat="28.64703" lon="-14.01746">
        <ele>37</ele>
        <time>2021-07-04 14:50:34</time>
      </trkpt>
      <trkpt lat="28.64699" lon="-14.01747">
        <ele>37</ele>
        <time>2021-07-04 14:50:35</time>
      </trkpt>
      <trkpt lat="28.64695" lon="-14.01748">
        <ele>37</ele>
        <time>2021-07-04 14:50:36</time>
      </trkpt>
      <trkpt lat="28.64691" lon="-14.01749">
        <ele>37.4</ele>
        <time>2021-07-04 14:50:37</time>
      </trkpt>
      <trkpt lat="28.64686" lon="-14.0175">
        <ele>37.4</ele>
        <time>2021-07-04 14:50:38</time>
      </trkpt>
      <trkpt lat="28.64682" lon="-14.01751">
        <ele>37.4</ele>
        <time>2021-07-04 14:50:39</time>
      </trkpt>
      <trkpt lat="28.64678" lon="-14.01752">
        <ele>37.4</ele>
        <time>2021-07-04 14:50:40</time>
      </trkpt>
      <trkpt lat="28.64674" lon="-14.01753">
        <ele>37.4</ele>
        <time>2021-07-04 14:50:41</time>
      </trkpt>
      <trkpt lat="28.64669" lon="-14.01754">
        <ele>37.4</ele>
        <time>2021-07-04 14:50:42</time>
      </trkpt>
      <trkpt lat="28.64665" lon="-14.01755">
        <ele>37.4</ele>
        <time>2021-07-04 14:50:43</time>
      </trkpt>
      <trkpt lat="28.64661" lon="-14.01756">
        <ele>37.4</ele>
        <time>2021-07-04 14:50:44</time>
      </trkpt>
      <trkpt lat="28.64657" lon="-14.01757">
        <ele>37.4</ele>
        <time>2021-07-04 14:50:45</time>
      </trkpt>
      <trkpt lat="28.64653" lon="-14.01758">
        <ele>37.4</ele>
        <time>2021-07-04 14:50:46</time>
      </trkpt>
      <trkpt lat="28.64649" lon="-14.01759">
        <ele>37.4</ele>
        <time>2021-07-04 14:50:47</time>
      </trkpt>
      <trkpt lat="28.64645" lon="-14.01759">
        <ele>37.6</ele>
        <time>2021-07-04 14:50:48</time>
      </trkpt>
      <trkpt lat="28.6464" lon="-14.0176">
        <ele>37.8</ele>
        <time>2021-07-04 14:50:49</time>
      </trkpt>
      <trkpt lat="28.64636" lon="-14.01761">
        <ele>37.8</ele>
        <time>2021-07-04 14:50:50</time>
      </trkpt>
      <trkpt lat="28.64632" lon="-14.01762">
        <ele>37.8</ele>
        <time>2021-07-04 14:50:51</time>
      </trkpt>
      <trkpt lat="28.64629" lon="-14.01763">
        <ele>38.2</ele>
        <time>2021-07-04 14:50:52</time>
      </trkpt>
      <trkpt lat="28.64625" lon="-14.01764">
        <ele>38.4</ele>
        <time>2021-07-04 14:50:53</time>
      </trkpt>
      <trkpt lat="28.64621" lon="-14.01765">
        <ele>38.4</ele>
        <time>2021-07-04 14:50:54</time>
      </trkpt>
      <trkpt lat="28.64616" lon="-14.01766">
        <ele>38.4</ele>
        <time>2021-07-04 14:50:55</time>
      </trkpt>
      <trkpt lat="28.64612" lon="-14.01767">
        <ele>38.4</ele>
        <time>2021-07-04 14:50:56</time>
      </trkpt>
      <trkpt lat="28.64608" lon="-14.01768">
        <ele>38.6</ele>
        <time>2021-07-04 14:50:57</time>
      </trkpt>
      <trkpt lat="28.64604" lon="-14.01769">
        <ele>38.6</ele>
        <time>2021-07-04 14:50:58</time>
      </trkpt>
      <trkpt lat="28.646" lon="-14.0177">
        <ele>39</ele>
        <time>2021-07-04 14:50:59</time>
      </trkpt>
      <trkpt lat="28.64596" lon="-14.0177">
        <ele>39</ele>
        <time>2021-07-04 14:51:00</time>
      </trkpt>
      <trkpt lat="28.64591" lon="-14.01772">
        <ele>39</ele>
        <time>2021-07-04 14:51:01</time>
      </trkpt>
      <trkpt lat="28.64587" lon="-14.01773">
        <ele>39.2</ele>
        <time>2021-07-04 14:51:02</time>
      </trkpt>
      <trkpt lat="28.64583" lon="-14.01774">
        <ele>39.2</ele>
        <time>2021-07-04 14:51:03</time>
      </trkpt>
      <trkpt lat="28.64579" lon="-14.01775">
        <ele>39.2</ele>
        <time>2021-07-04 14:51:04</time>
      </trkpt>
      <trkpt lat="28.64575" lon="-14.01776">
        <ele>39.2</ele>
        <time>2021-07-04 14:51:05</time>
      </trkpt>
      <trkpt lat="28.64571" lon="-14.01777">
        <ele>39.4</ele>
        <time>2021-07-04 14:51:06</time>
      </trkpt>
      <trkpt lat="28.64568" lon="-14.01777">
        <ele>39.4</ele>
        <time>2021-07-04 14:51:07</time>
      </trkpt>
      <trkpt lat="28.64564" lon="-14.01778">
        <ele>39.4</ele>
        <time>2021-07-04 14:51:08</time>
      </trkpt>
      <trkpt lat="28.6456" lon="-14.01779">
        <ele>39.4</ele>
        <time>2021-07-04 14:51:09</time>
      </trkpt>
      <trkpt lat="28.64557" lon="-14.0178">
        <ele>39.8</ele>
        <time>2021-07-04 14:51:10</time>
      </trkpt>
      <trkpt lat="28.64553" lon="-14.01781">
        <ele>39.8</ele>
        <time>2021-07-04 14:51:11</time>
      </trkpt>
      <trkpt lat="28.64549" lon="-14.01782">
        <ele>39.8</ele>
        <time>2021-07-04 14:51:12</time>
      </trkpt>
      <trkpt lat="28.64545" lon="-14.01782">
        <ele>39.8</ele>
        <time>2021-07-04 14:51:13</time>
      </trkpt>
      <trkpt lat="28.64542" lon="-14.01783">
        <ele>39.8</ele>
        <time>2021-07-04 14:51:14</time>
      </trkpt>
      <trkpt lat="28.64538" lon="-14.01784">
        <ele>39.8</ele>
        <time>2021-07-04 14:51:15</time>
      </trkpt>
      <trkpt lat="28.64534" lon="-14.01785">
        <ele>39.8</ele>
        <time>2021-07-04 14:51:16</time>
      </trkpt>
      <trkpt lat="28.6453" lon="-14.01785">
        <ele>39.4</ele>
        <time>2021-07-04 14:51:17</time>
      </trkpt>
      <trkpt lat="28.64526" lon="-14.01786">
        <ele>39.4</ele>
        <time>2021-07-04 14:51:18</time>
      </trkpt>
      <trkpt lat="28.64522" lon="-14.01787">
        <ele>39.4</ele>
        <time>2021-07-04 14:51:19</time>
      </trkpt>
      <trkpt lat="28.64518" lon="-14.01788">
        <ele>39.4</ele>
        <time>2021-07-04 14:51:20</time>
      </trkpt>
      <trkpt lat="28.64514" lon="-14.0179">
        <ele>39.4</ele>
        <time>2021-07-04 14:51:21</time>
      </trkpt>
      <trkpt lat="28.6451" lon="-14.01791">
        <ele>39.6</ele>
        <time>2021-07-04 14:51:22</time>
      </trkpt>
      <trkpt lat="28.64506" lon="-14.01791">
        <ele>39.6</ele>
        <time>2021-07-04 14:51:23</time>
      </trkpt>
      <trkpt lat="28.64501" lon="-14.01792">
        <ele>39.6</ele>
        <time>2021-07-04 14:51:24</time>
      </trkpt>
      <trkpt lat="28.64497" lon="-14.01794">
        <ele>39.6</ele>
        <time>2021-07-04 14:51:25</time>
      </trkpt>
      <trkpt lat="28.64493" lon="-14.01795">
        <ele>39.6</ele>
        <time>2021-07-04 14:51:26</time>
      </trkpt>
      <trkpt lat="28.64489" lon="-14.01796">
        <ele>39.6</ele>
        <time>2021-07-04 14:51:27</time>
      </trkpt>
      <trkpt lat="28.64485" lon="-14.01797">
        <ele>39.6</ele>
        <time>2021-07-04 14:51:28</time>
      </trkpt>
      <trkpt lat="28.64482" lon="-14.01798">
        <ele>39.6</ele>
        <time>2021-07-04 14:51:29</time>
      </trkpt>
      <trkpt lat="28.64478" lon="-14.01798">
        <ele>39.8</ele>
        <time>2021-07-04 14:51:30</time>
      </trkpt>
      <trkpt lat="28.64474" lon="-14.018">
        <ele>39.8</ele>
        <time>2021-07-04 14:51:31</time>
      </trkpt>
      <trkpt lat="28.64471" lon="-14.018">
        <ele>39.8</ele>
        <time>2021-07-04 14:51:32</time>
      </trkpt>
      <trkpt lat="28.64468" lon="-14.01801">
        <ele>39.8</ele>
        <time>2021-07-04 14:51:33</time>
      </trkpt>
      <trkpt lat="28.64464" lon="-14.01802">
        <ele>39.8</ele>
        <time>2021-07-04 14:51:34</time>
      </trkpt>
      <trkpt lat="28.64461" lon="-14.01803">
        <ele>39.8</ele>
        <time>2021-07-04 14:51:35</time>
      </trkpt>
      <trkpt lat="28.64457" lon="-14.01804">
        <ele>39.8</ele>
        <time>2021-07-04 14:51:36</time>
      </trkpt>
      <trkpt lat="28.64454" lon="-14.01804">
        <ele>40</ele>
        <time>2021-07-04 14:51:37</time>
      </trkpt>
      <trkpt lat="28.6445" lon="-14.01805">
        <ele>40</ele>
        <time>2021-07-04 14:51:38</time>
      </trkpt>
      <trkpt lat="28.64447" lon="-14.01806">
        <ele>40</ele>
        <time>2021-07-04 14:51:39</time>
      </trkpt>
      <trkpt lat="28.64443" lon="-14.01807">
        <ele>40</ele>
        <time>2021-07-04 14:51:40</time>
      </trkpt>
      <trkpt lat="28.64439" lon="-14.01807">
        <ele>40.4</ele>
        <time>2021-07-04 14:51:41</time>
      </trkpt>
      <trkpt lat="28.64435" lon="-14.01808">
        <ele>40.4</ele>
        <time>2021-07-04 14:51:42</time>
      </trkpt>
      <trkpt lat="28.64432" lon="-14.01808">
        <ele>40.6</ele>
        <time>2021-07-04 14:51:43</time>
      </trkpt>
      <trkpt lat="28.64428" lon="-14.01809">
        <ele>40.8</ele>
        <time>2021-07-04 14:51:44</time>
      </trkpt>
      <trkpt lat="28.64425" lon="-14.01811">
        <ele>40.8</ele>
        <time>2021-07-04 14:51:45</time>
      </trkpt>
      <trkpt lat="28.64421" lon="-14.01812">
        <ele>41.2</ele>
        <time>2021-07-04 14:51:46</time>
      </trkpt>
      <trkpt lat="28.64418" lon="-14.01814">
        <ele>41.2</ele>
        <time>2021-07-04 14:51:47</time>
      </trkpt>
      <trkpt lat="28.64414" lon="-14.01816">
        <ele>41.2</ele>
        <time>2021-07-04 14:51:48</time>
      </trkpt>
      <trkpt lat="28.6441" lon="-14.01818">
        <ele>41.2</ele>
        <time>2021-07-04 14:51:49</time>
      </trkpt>
      <trkpt lat="28.64406" lon="-14.01819">
        <ele>41.2</ele>
        <time>2021-07-04 14:51:50</time>
      </trkpt>
      <trkpt lat="28.64403" lon="-14.0182">
        <ele>41.2</ele>
        <time>2021-07-04 14:51:51</time>
      </trkpt>
      <trkpt lat="28.64399" lon="-14.01821">
        <ele>41.2</ele>
        <time>2021-07-04 14:51:52</time>
      </trkpt>
      <trkpt lat="28.64395" lon="-14.01822">
        <ele>41.2</ele>
        <time>2021-07-04 14:51:53</time>
      </trkpt>
      <trkpt lat="28.64391" lon="-14.01822">
        <ele>41.2</ele>
        <time>2021-07-04 14:51:54</time>
      </trkpt>
      <trkpt lat="28.64387" lon="-14.01822">
        <ele>41.2</ele>
        <time>2021-07-04 14:51:55</time>
      </trkpt>
      <trkpt lat="28.64382" lon="-14.01822">
        <ele>41</ele>
        <time>2021-07-04 14:51:56</time>
      </trkpt>
      <trkpt lat="28.64378" lon="-14.01822">
        <ele>41</ele>
        <time>2021-07-04 14:51:57</time>
      </trkpt>
      <trkpt lat="28.64374" lon="-14.01822">
        <ele>41</ele>
        <time>2021-07-04 14:51:58</time>
      </trkpt>
      <trkpt lat="28.6437" lon="-14.01821">
        <ele>41</ele>
        <time>2021-07-04 14:51:59</time>
      </trkpt>
      <trkpt lat="28.64366" lon="-14.0182">
        <ele>41</ele>
        <time>2021-07-04 14:52:00</time>
      </trkpt>
      <trkpt lat="28.64362" lon="-14.01819">
        <ele>41.2</ele>
        <time>2021-07-04 14:52:01</time>
      </trkpt>
      <trkpt lat="28.64357" lon="-14.01817">
        <ele>41.2</ele>
        <time>2021-07-04 14:52:02</time>
      </trkpt>
      <trkpt lat="28.64353" lon="-14.01816">
        <ele>41.2</ele>
        <time>2021-07-04 14:52:03</time>
      </trkpt>
      <trkpt lat="28.64349" lon="-14.01814">
        <ele>41.2</ele>
        <time>2021-07-04 14:52:04</time>
      </trkpt>
      <trkpt lat="28.64346" lon="-14.01811">
        <ele>41.4</ele>
        <time>2021-07-04 14:52:05</time>
      </trkpt>
      <trkpt lat="28.64342" lon="-14.0181">
        <ele>41.4</ele>
        <time>2021-07-04 14:52:06</time>
      </trkpt>
      <trkpt lat="28.64338" lon="-14.01808">
        <ele>41.6</ele>
        <time>2021-07-04 14:52:07</time>
      </trkpt>
      <trkpt lat="28.64334" lon="-14.01806">
        <ele>41.6</ele>
        <time>2021-07-04 14:52:08</time>
      </trkpt>
      <trkpt lat="28.6433" lon="-14.01805">
        <ele>42</ele>
        <time>2021-07-04 14:52:09</time>
      </trkpt>
      <trkpt lat="28.64327" lon="-14.01803">
        <ele>42</ele>
        <time>2021-07-04 14:52:10</time>
      </trkpt>
      <trkpt lat="28.64323" lon="-14.01801">
        <ele>42.2</ele>
        <time>2021-07-04 14:52:11</time>
      </trkpt>
      <trkpt lat="28.64319" lon="-14.01799">
        <ele>42.2</ele>
        <time>2021-07-04 14:52:12</time>
      </trkpt>
      <trkpt lat="28.64315" lon="-14.01797">
        <ele>42.6</ele>
        <time>2021-07-04 14:52:13</time>
      </trkpt>
      <trkpt lat="28.64312" lon="-14.01795">
        <ele>42.6</ele>
        <time>2021-07-04 14:52:14</time>
      </trkpt>
      <trkpt lat="28.64309" lon="-14.01793">
        <ele>42.8</ele>
        <time>2021-07-04 14:52:15</time>
      </trkpt>
      <trkpt lat="28.64306" lon="-14.01791">
        <ele>42.8</ele>
        <time>2021-07-04 14:52:16</time>
      </trkpt>
      <trkpt lat="28.64302" lon="-14.01789">
        <ele>43.2</ele>
        <time>2021-07-04 14:52:17</time>
      </trkpt>
      <trkpt lat="28.64299" lon="-14.01787">
        <ele>43.2</ele>
        <time>2021-07-04 14:52:18</time>
      </trkpt>
      <trkpt lat="28.64296" lon="-14.01785">
        <ele>43.2</ele>
        <time>2021-07-04 14:52:19</time>
      </trkpt>
      <trkpt lat="28.64292" lon="-14.01783">
        <ele>43.2</ele>
        <time>2021-07-04 14:52:20</time>
      </trkpt>
      <trkpt lat="28.64288" lon="-14.01781">
        <ele>43.4</ele>
        <time>2021-07-04 14:52:21</time>
      </trkpt>
      <trkpt lat="28.64285" lon="-14.0178">
        <ele>43.4</ele>
        <time>2021-07-04 14:52:22</time>
      </trkpt>
      <trkpt lat="28.64281" lon="-14.01778">
        <ele>43.4</ele>
        <time>2021-07-04 14:52:23</time>
      </trkpt>
      <trkpt lat="28.64278" lon="-14.01777">
        <ele>43.4</ele>
        <time>2021-07-04 14:52:24</time>
      </trkpt>
      <trkpt lat="28.64274" lon="-14.01776">
        <ele>43.4</ele>
        <time>2021-07-04 14:52:25</time>
      </trkpt>
      <trkpt lat="28.6427" lon="-14.01774">
        <ele>43.4</ele>
        <time>2021-07-04 14:52:26</time>
      </trkpt>
      <trkpt lat="28.64266" lon="-14.01772">
        <ele>43.4</ele>
        <time>2021-07-04 14:52:27</time>
      </trkpt>
      <trkpt lat="28.64263" lon="-14.0177">
        <ele>43.4</ele>
        <time>2021-07-04 14:52:28</time>
      </trkpt>
      <trkpt lat="28.64259" lon="-14.01767">
        <ele>43.4</ele>
        <time>2021-07-04 14:52:29</time>
      </trkpt>
      <trkpt lat="28.64255" lon="-14.01765">
        <ele>43.4</ele>
        <time>2021-07-04 14:52:30</time>
      </trkpt>
      <trkpt lat="28.64252" lon="-14.01761">
        <ele>43.6</ele>
        <time>2021-07-04 14:52:31</time>
      </trkpt>
      <trkpt lat="28.64248" lon="-14.01758">
        <ele>43.6</ele>
        <time>2021-07-04 14:52:32</time>
      </trkpt>
      <trkpt lat="28.64245" lon="-14.01755">
        <ele>43.6</ele>
        <time>2021-07-04 14:52:33</time>
      </trkpt>
      <trkpt lat="28.64242" lon="-14.01751">
        <ele>43.8</ele>
        <time>2021-07-04 14:52:34</time>
      </trkpt>
      <trkpt lat="28.64239" lon="-14.01748">
        <ele>43.8</ele>
        <time>2021-07-04 14:52:35</time>
      </trkpt>
      <trkpt lat="28.64237" lon="-14.01744">
        <ele>44</ele>
        <time>2021-07-04 14:52:36</time>
      </trkpt>
      <trkpt lat="28.64234" lon="-14.01739">
        <ele>44</ele>
        <time>2021-07-04 14:52:37</time>
      </trkpt>
      <trkpt lat="28.64232" lon="-14.01736">
        <ele>44</ele>
        <time>2021-07-04 14:52:38</time>
      </trkpt>
      <trkpt lat="28.64229" lon="-14.01732">
        <ele>44.4</ele>
        <time>2021-07-04 14:52:39</time>
      </trkpt>
      <trkpt lat="28.64227" lon="-14.0173">
        <ele>44.4</ele>
        <time>2021-07-04 14:52:40</time>
      </trkpt>
      <trkpt lat="28.64224" lon="-14.01727">
        <ele>44.8</ele>
        <time>2021-07-04 14:52:41</time>
      </trkpt>
      <trkpt lat="28.64221" lon="-14.01726">
        <ele>44.8</ele>
        <time>2021-07-04 14:52:42</time>
      </trkpt>
      <trkpt lat="28.64219" lon="-14.01725">
        <ele>45</ele>
        <time>2021-07-04 14:52:43</time>
      </trkpt>
      <trkpt lat="28.64216" lon="-14.01724">
        <ele>45</ele>
        <time>2021-07-04 14:52:44</time>
      </trkpt>
      <trkpt lat="28.64214" lon="-14.01723">
        <ele>45</ele>
        <time>2021-07-04 14:52:45</time>
      </trkpt>
      <trkpt lat="28.64213" lon="-14.01722">
        <ele>45.2</ele>
        <time>2021-07-04 14:52:46</time>
      </trkpt>
      <trkpt lat="28.64212" lon="-14.01722">
        <ele>45.2</ele>
        <time>2021-07-04 14:52:47</time>
      </trkpt>
      <trkpt lat="28.64213" lon="-14.01722">
        <ele>45.8</ele>
        <time>2021-07-04 14:52:48</time>
      </trkpt>
      <trkpt lat="28.64211" lon="-14.01721">
        <ele>46</ele>
        <time>2021-07-04 14:52:49</time>
      </trkpt>
      <trkpt lat="28.64207" lon="-14.01723">
        <ele>46.2</ele>
        <time>2021-07-04 14:52:50</time>
      </trkpt>
      <trkpt lat="28.64205" lon="-14.01724">
        <ele>46.2</ele>
        <time>2021-07-04 14:52:51</time>
      </trkpt>
      <trkpt lat="28.64203" lon="-14.01726">
        <ele>46.2</ele>
        <time>2021-07-04 14:52:52</time>
      </trkpt>
      <trkpt lat="28.64201" lon="-14.01727">
        <ele>46.2</ele>
        <time>2021-07-04 14:52:53</time>
      </trkpt>
      <trkpt lat="28.64199" lon="-14.01729">
        <ele>46.2</ele>
        <time>2021-07-04 14:52:54</time>
      </trkpt>
      <trkpt lat="28.64197" lon="-14.0173">
        <ele>46.2</ele>
        <time>2021-07-04 14:52:55</time>
      </trkpt>
      <trkpt lat="28.64194" lon="-14.01732">
        <ele>46.2</ele>
        <time>2021-07-04 14:52:56</time>
      </trkpt>
      <trkpt lat="28.64191" lon="-14.01735">
        <ele>46</ele>
        <time>2021-07-04 14:52:57</time>
      </trkpt>
      <trkpt lat="28.64188" lon="-14.01738">
        <ele>46</ele>
        <time>2021-07-04 14:52:58</time>
      </trkpt>
      <trkpt lat="28.64186" lon="-14.01741">
        <ele>46</ele>
        <time>2021-07-04 14:52:59</time>
      </trkpt>
      <trkpt lat="28.64183" lon="-14.01744">
        <ele>46</ele>
        <time>2021-07-04 14:53:00</time>
      </trkpt>
      <trkpt lat="28.64181" lon="-14.01748">
        <ele>46</ele>
        <time>2021-07-04 14:53:01</time>
      </trkpt>
      <trkpt lat="28.64178" lon="-14.01751">
        <ele>46</ele>
        <time>2021-07-04 14:53:02</time>
      </trkpt>
      <trkpt lat="28.64176" lon="-14.01755">
        <ele>46</ele>
        <time>2021-07-04 14:53:03</time>
      </trkpt>
      <trkpt lat="28.64175" lon="-14.01758">
        <ele>46.2</ele>
        <time>2021-07-04 14:53:04</time>
      </trkpt>
      <trkpt lat="28.64173" lon="-14.01762">
        <ele>46.2</ele>
        <time>2021-07-04 14:53:05</time>
      </trkpt>
      <trkpt lat="28.64169" lon="-14.01765">
        <ele>46.2</ele>
        <time>2021-07-04 14:53:06</time>
      </trkpt>
      <trkpt lat="28.64166" lon="-14.01769">
        <ele>46.2</ele>
        <time>2021-07-04 14:53:07</time>
      </trkpt>
      <trkpt lat="28.64163" lon="-14.01772">
        <ele>45.8</ele>
        <time>2021-07-04 14:53:08</time>
      </trkpt>
      <trkpt lat="28.64159" lon="-14.01774">
        <ele>45.6</ele>
        <time>2021-07-04 14:53:09</time>
      </trkpt>
      <trkpt lat="28.64156" lon="-14.01776">
        <ele>45.6</ele>
        <time>2021-07-04 14:53:10</time>
      </trkpt>
      <trkpt lat="28.64153" lon="-14.01778">
        <ele>45.4</ele>
        <time>2021-07-04 14:53:11</time>
      </trkpt>
      <trkpt lat="28.64149" lon="-14.0178">
        <ele>45.4</ele>
        <time>2021-07-04 14:53:12</time>
      </trkpt>
      <trkpt lat="28.64146" lon="-14.01781">
        <ele>45.4</ele>
        <time>2021-07-04 14:53:13</time>
      </trkpt>
      <trkpt lat="28.64143" lon="-14.01783">
        <ele>45.2</ele>
        <time>2021-07-04 14:53:14</time>
      </trkpt>
      <trkpt lat="28.64139" lon="-14.01784">
        <ele>45.2</ele>
        <time>2021-07-04 14:53:15</time>
      </trkpt>
      <trkpt lat="28.64135" lon="-14.01785">
        <ele>45.2</ele>
        <time>2021-07-04 14:53:16</time>
      </trkpt>
      <trkpt lat="28.64131" lon="-14.01786">
        <ele>45.2</ele>
        <time>2021-07-04 14:53:17</time>
      </trkpt>
      <trkpt lat="28.64127" lon="-14.01788">
        <ele>45.2</ele>
        <time>2021-07-04 14:53:18</time>
      </trkpt>
      <trkpt lat="28.64123" lon="-14.01789">
        <ele>45.2</ele>
        <time>2021-07-04 14:53:19</time>
      </trkpt>
      <trkpt lat="28.6412" lon="-14.01792">
        <ele>45.2</ele>
        <time>2021-07-04 14:53:20</time>
      </trkpt>
      <trkpt lat="28.64116" lon="-14.01793">
        <ele>45.2</ele>
        <time>2021-07-04 14:53:21</time>
      </trkpt>
      <trkpt lat="28.64113" lon="-14.01795">
        <ele>45.2</ele>
        <time>2021-07-04 14:53:22</time>
      </trkpt>
      <trkpt lat="28.6411" lon="-14.01797">
        <ele>45.2</ele>
        <time>2021-07-04 14:53:23</time>
      </trkpt>
      <trkpt lat="28.64108" lon="-14.01801">
        <ele>45.2</ele>
        <time>2021-07-04 14:53:24</time>
      </trkpt>
      <trkpt lat="28.64105" lon="-14.01805">
        <ele>45.4</ele>
        <time>2021-07-04 14:53:25</time>
      </trkpt>
      <trkpt lat="28.64104" lon="-14.01809">
        <ele>45.4</ele>
        <time>2021-07-04 14:53:26</time>
      </trkpt>
      <trkpt lat="28.64102" lon="-14.01813">
        <ele>45.8</ele>
        <time>2021-07-04 14:53:27</time>
      </trkpt>
      <trkpt lat="28.64101" lon="-14.01817">
        <ele>45.8</ele>
        <time>2021-07-04 14:53:28</time>
      </trkpt>
      <trkpt lat="28.641" lon="-14.01822">
        <ele>46.2</ele>
        <time>2021-07-04 14:53:29</time>
      </trkpt>
      <trkpt lat="28.64098" lon="-14.01826">
        <ele>46.2</ele>
        <time>2021-07-04 14:53:30</time>
      </trkpt>
      <trkpt lat="28.64098" lon="-14.01831">
        <ele>46.2</ele>
        <time>2021-07-04 14:53:31</time>
      </trkpt>
      <trkpt lat="28.64097" lon="-14.01836">
        <ele>46.2</ele>
        <time>2021-07-04 14:53:32</time>
      </trkpt>
      <trkpt lat="28.64095" lon="-14.01841">
        <ele>46.2</ele>
        <time>2021-07-04 14:53:33</time>
      </trkpt>
      <trkpt lat="28.64094" lon="-14.01845">
        <ele>46.2</ele>
        <time>2021-07-04 14:53:34</time>
      </trkpt>
      <trkpt lat="28.64093" lon="-14.01849">
        <ele>46.2</ele>
        <time>2021-07-04 14:53:35</time>
      </trkpt>
      <trkpt lat="28.64092" lon="-14.01854">
        <ele>46.2</ele>
        <time>2021-07-04 14:53:36</time>
      </trkpt>
      <trkpt lat="28.6409" lon="-14.01858">
        <ele>46.2</ele>
        <time>2021-07-04 14:53:37</time>
      </trkpt>
      <trkpt lat="28.64089" lon="-14.01862">
        <ele>45.8</ele>
        <time>2021-07-04 14:53:38</time>
      </trkpt>
      <trkpt lat="28.64088" lon="-14.01867">
        <ele>45.6</ele>
        <time>2021-07-04 14:53:39</time>
      </trkpt>
      <trkpt lat="28.64087" lon="-14.01871">
        <ele>45.6</ele>
        <time>2021-07-04 14:53:40</time>
      </trkpt>
      <trkpt lat="28.64086" lon="-14.01875">
        <ele>45.6</ele>
        <time>2021-07-04 14:53:59</time>
      </trkpt>
      <trkpt lat="28.64085" lon="-14.01878">
        <ele>45.4</ele>
        <time>2021-07-04 14:54:00</time>
      </trkpt>
      <trkpt lat="28.64083" lon="-14.01882">
        <ele>45.6</ele>
        <time>2021-07-04 14:54:01</time>
      </trkpt>
      <trkpt lat="28.64081" lon="-14.01885">
        <ele>45.6</ele>
        <time>2021-07-04 14:54:02</time>
      </trkpt>
      <trkpt lat="28.6408" lon="-14.01888">
        <ele>45.6</ele>
        <time>2021-07-04 14:54:03</time>
      </trkpt>
      <trkpt lat="28.64078" lon="-14.01891">
        <ele>45.8</ele>
        <time>2021-07-04 14:54:04</time>
      </trkpt>
      <trkpt lat="28.64076" lon="-14.01895">
        <ele>45.8</ele>
        <time>2021-07-04 14:54:05</time>
      </trkpt>
      <trkpt lat="28.64074" lon="-14.01897">
        <ele>45.8</ele>
        <time>2021-07-04 14:54:06</time>
      </trkpt>
      <trkpt lat="28.64072" lon="-14.019">
        <ele>45.8</ele>
        <time>2021-07-04 14:54:07</time>
      </trkpt>
      <trkpt lat="28.6407" lon="-14.01902">
        <ele>45.8</ele>
        <time>2021-07-04 14:54:08</time>
      </trkpt>
      <trkpt lat="28.64068" lon="-14.01904">
        <ele>45.8</ele>
        <time>2021-07-04 14:54:09</time>
      </trkpt>
      <trkpt lat="28.64065" lon="-14.01905">
        <ele>45.8</ele>
        <time>2021-07-04 14:54:10</time>
      </trkpt>
      <trkpt lat="28.64062" lon="-14.01907">
        <ele>45.8</ele>
        <time>2021-07-04 14:54:11</time>
      </trkpt>
      <trkpt lat="28.64059" lon="-14.01908">
        <ele>45.8</ele>
        <time>2021-07-04 14:54:12</time>
      </trkpt>
      <trkpt lat="28.64056" lon="-14.01909">
        <ele>45.8</ele>
        <time>2021-07-04 14:54:13</time>
      </trkpt>
      <trkpt lat="28.64054" lon="-14.01909">
        <ele>45.8</ele>
        <time>2021-07-04 14:54:14</time>
      </trkpt>
      <trkpt lat="28.6405" lon="-14.0191">
        <ele>45.8</ele>
        <time>2021-07-04 14:54:15</time>
      </trkpt>
      <trkpt lat="28.64047" lon="-14.01912">
        <ele>45.8</ele>
        <time>2021-07-04 14:54:16</time>
      </trkpt>
      <trkpt lat="28.64045" lon="-14.01914">
        <ele>45.8</ele>
        <time>2021-07-04 14:54:17</time>
      </trkpt>
      <trkpt lat="28.64043" lon="-14.01916">
        <ele>45.8</ele>
        <time>2021-07-04 14:54:18</time>
      </trkpt>
      <trkpt lat="28.64041" lon="-14.01918">
        <ele>45.8</ele>
        <time>2021-07-04 14:54:19</time>
      </trkpt>
      <trkpt lat="28.64039" lon="-14.0192">
        <ele>45.8</ele>
        <time>2021-07-04 14:54:20</time>
      </trkpt>
      <trkpt lat="28.64038" lon="-14.01923">
        <ele>46</ele>
        <time>2021-07-04 14:54:21</time>
      </trkpt>
      <trkpt lat="28.64037" lon="-14.01926">
        <ele>46</ele>
        <time>2021-07-04 14:54:22</time>
      </trkpt>
      <trkpt lat="28.64036" lon="-14.01929">
        <ele>46.4</ele>
        <time>2021-07-04 14:54:23</time>
      </trkpt>
      <trkpt lat="28.64035" lon="-14.01933">
        <ele>46.4</ele>
        <time>2021-07-04 14:54:24</time>
      </trkpt>
      <trkpt lat="28.64034" lon="-14.01937">
        <ele>46.4</ele>
        <time>2021-07-04 14:54:25</time>
      </trkpt>
      <trkpt lat="28.64034" lon="-14.01941">
        <ele>46.6</ele>
        <time>2021-07-04 14:54:26</time>
      </trkpt>
      <trkpt lat="28.64035" lon="-14.01944">
        <ele>46.8</ele>
        <time>2021-07-04 14:54:27</time>
      </trkpt>
      <trkpt lat="28.64037" lon="-14.01947">
        <ele>47</ele>
        <time>2021-07-04 14:54:28</time>
      </trkpt>
      <trkpt lat="28.64039" lon="-14.0195">
        <ele>47</ele>
        <time>2021-07-04 14:54:29</time>
      </trkpt>
      <trkpt lat="28.64039" lon="-14.01954">
        <ele>47</ele>
        <time>2021-07-04 14:54:30</time>
      </trkpt>
      <trkpt lat="28.64039" lon="-14.01959">
        <ele>47.2</ele>
        <time>2021-07-04 14:54:31</time>
      </trkpt>
      <trkpt lat="28.64039" lon="-14.01962">
        <ele>47.2</ele>
        <time>2021-07-04 14:54:32</time>
      </trkpt>
      <trkpt lat="28.64037" lon="-14.01965">
        <ele>47</ele>
        <time>2021-07-04 14:54:33</time>
      </trkpt>
      <trkpt lat="28.64034" lon="-14.01967">
        <ele>46.8</ele>
        <time>2021-07-04 14:54:34</time>
      </trkpt>
      <trkpt lat="28.64031" lon="-14.01969">
        <ele>46.4</ele>
        <time>2021-07-04 14:54:35</time>
      </trkpt>
      <trkpt lat="28.64029" lon="-14.01969">
        <ele>46</ele>
        <time>2021-07-04 14:54:36</time>
      </trkpt>
      <trkpt lat="28.64026" lon="-14.0197">
        <ele>45.8</ele>
        <time>2021-07-04 14:54:37</time>
      </trkpt>
      <trkpt lat="28.64024" lon="-14.01971">
        <ele>45.6</ele>
        <time>2021-07-04 14:54:38</time>
      </trkpt>
      <trkpt lat="28.64023" lon="-14.01972">
        <ele>45.6</ele>
        <time>2021-07-04 14:54:39</time>
      </trkpt>
      <trkpt lat="28.64021" lon="-14.01974">
        <ele>45.6</ele>
        <time>2021-07-04 14:54:40</time>
      </trkpt>
      <trkpt lat="28.6402" lon="-14.01975">
        <ele>45.2</ele>
        <time>2021-07-04 14:54:41</time>
      </trkpt>
      <trkpt lat="28.64018" lon="-14.01976">
        <ele>45.2</ele>
        <time>2021-07-04 14:54:42</time>
      </trkpt>
      <trkpt lat="28.64015" lon="-14.01977">
        <ele>45</ele>
        <time>2021-07-04 14:54:43</time>
      </trkpt>
      <trkpt lat="28.64013" lon="-14.01979">
        <ele>45</ele>
        <time>2021-07-04 14:54:44</time>
      </trkpt>
      <trkpt lat="28.6401" lon="-14.0198">
        <ele>44.6</ele>
        <time>2021-07-04 14:54:45</time>
      </trkpt>
      <trkpt lat="28.64008" lon="-14.01982">
        <ele>44.6</ele>
        <time>2021-07-04 14:54:46</time>
      </trkpt>
      <trkpt lat="28.64006" lon="-14.01983">
        <ele>44.6</ele>
        <time>2021-07-04 14:54:47</time>
      </trkpt>
      <trkpt lat="28.64004" lon="-14.01985">
        <ele>44.6</ele>
        <time>2021-07-04 14:54:48</time>
      </trkpt>
      <trkpt lat="28.64002" lon="-14.01987">
        <ele>44.4</ele>
        <time>2021-07-04 14:54:49</time>
      </trkpt>
      <trkpt lat="28.64" lon="-14.01989">
        <ele>44.4</ele>
        <time>2021-07-04 14:54:50</time>
      </trkpt>
      <trkpt lat="28.63997" lon="-14.01991">
        <ele>44.4</ele>
        <time>2021-07-04 14:54:51</time>
      </trkpt>
      <trkpt lat="28.63994" lon="-14.01994">
        <ele>44.2</ele>
        <time>2021-07-04 14:54:52</time>
      </trkpt>
      <trkpt lat="28.63991" lon="-14.01997">
        <ele>44.2</ele>
        <time>2021-07-04 14:54:53</time>
      </trkpt>
      <trkpt lat="28.63988" lon="-14.02">
        <ele>44.2</ele>
        <time>2021-07-04 14:54:54</time>
      </trkpt>
      <trkpt lat="28.63985" lon="-14.02002">
        <ele>44.2</ele>
        <time>2021-07-04 14:54:55</time>
      </trkpt>
      <trkpt lat="28.63982" lon="-14.02005">
        <ele>44.2</ele>
        <time>2021-07-04 14:54:56</time>
      </trkpt>
      <trkpt lat="28.63979" lon="-14.02007">
        <ele>44</ele>
        <time>2021-07-04 14:54:57</time>
      </trkpt>
      <trkpt lat="28.63976" lon="-14.02009">
        <ele>44</ele>
        <time>2021-07-04 14:54:58</time>
      </trkpt>
      <trkpt lat="28.63972" lon="-14.02011">
        <ele>43.6</ele>
        <time>2021-07-04 14:54:59</time>
      </trkpt>
      <trkpt lat="28.63969" lon="-14.02013">
        <ele>43.6</ele>
        <time>2021-07-04 14:55:00</time>
      </trkpt>
      <trkpt lat="28.63966" lon="-14.02015">
        <ele>43.6</ele>
        <time>2021-07-04 14:55:01</time>
      </trkpt>
      <trkpt lat="28.63964" lon="-14.02017">
        <ele>43.4</ele>
        <time>2021-07-04 14:55:02</time>
      </trkpt>
      <trkpt lat="28.63961" lon="-14.02019">
        <ele>43.4</ele>
        <time>2021-07-04 14:55:03</time>
      </trkpt>
      <trkpt lat="28.63959" lon="-14.02022">
        <ele>43.4</ele>
        <time>2021-07-04 14:55:04</time>
      </trkpt>
      <trkpt lat="28.63957" lon="-14.02026">
        <ele>43.4</ele>
        <time>2021-07-04 14:55:05</time>
      </trkpt>
      <trkpt lat="28.63955" lon="-14.0203">
        <ele>43.8</ele>
        <time>2021-07-04 14:55:06</time>
      </trkpt>
      <trkpt lat="28.63954" lon="-14.02034">
        <ele>43.8</ele>
        <time>2021-07-04 14:55:07</time>
      </trkpt>
      <trkpt lat="28.63953" lon="-14.02039">
        <ele>44</ele>
        <time>2021-07-04 14:55:08</time>
      </trkpt>
      <trkpt lat="28.63953" lon="-14.02043">
        <ele>44.2</ele>
        <time>2021-07-04 14:55:09</time>
      </trkpt>
      <trkpt lat="28.63953" lon="-14.02047">
        <ele>44.2</ele>
        <time>2021-07-04 14:55:10</time>
      </trkpt>
      <trkpt lat="28.63953" lon="-14.0205">
        <ele>44.4</ele>
        <time>2021-07-04 14:55:11</time>
      </trkpt>
      <trkpt lat="28.63952" lon="-14.02054">
        <ele>44.6</ele>
        <time>2021-07-04 14:55:12</time>
      </trkpt>
      <trkpt lat="28.63951" lon="-14.02057">
        <ele>44.6</ele>
        <time>2021-07-04 14:55:13</time>
      </trkpt>
      <trkpt lat="28.63949" lon="-14.02061">
        <ele>45</ele>
        <time>2021-07-04 14:55:14</time>
      </trkpt>
      <trkpt lat="28.63947" lon="-14.02066">
        <ele>45</ele>
        <time>2021-07-04 14:55:15</time>
      </trkpt>
      <trkpt lat="28.63946" lon="-14.0207">
        <ele>45.2</ele>
        <time>2021-07-04 14:55:16</time>
      </trkpt>
      <trkpt lat="28.63944" lon="-14.02074">
        <ele>45.2</ele>
        <time>2021-07-04 14:55:17</time>
      </trkpt>
      <trkpt lat="28.63942" lon="-14.02078">
        <ele>45.2</ele>
        <time>2021-07-04 14:55:18</time>
      </trkpt>
      <trkpt lat="28.63939" lon="-14.02081">
        <ele>45.2</ele>
        <time>2021-07-04 14:55:19</time>
      </trkpt>
      <trkpt lat="28.63937" lon="-14.02084">
        <ele>45.2</ele>
        <time>2021-07-04 14:55:20</time>
      </trkpt>
      <trkpt lat="28.63934" lon="-14.02088">
        <ele>45</ele>
        <time>2021-07-04 14:55:21</time>
      </trkpt>
      <trkpt lat="28.63932" lon="-14.02091">
        <ele>45</ele>
        <time>2021-07-04 14:55:22</time>
      </trkpt>
      <trkpt lat="28.6393" lon="-14.02093">
        <ele>45</ele>
        <time>2021-07-04 14:55:23</time>
      </trkpt>
      <trkpt lat="28.63928" lon="-14.02096">
        <ele>44.6</ele>
        <time>2021-07-04 14:55:24</time>
      </trkpt>
      <trkpt lat="28.63925" lon="-14.02099">
        <ele>44.6</ele>
        <time>2021-07-04 14:55:25</time>
      </trkpt>
      <trkpt lat="28.63922" lon="-14.02102">
        <ele>44.6</ele>
        <time>2021-07-04 14:55:26</time>
      </trkpt>
      <trkpt lat="28.63919" lon="-14.02105">
        <ele>44.6</ele>
        <time>2021-07-04 14:55:27</time>
      </trkpt>
      <trkpt lat="28.63916" lon="-14.02108">
        <ele>44.4</ele>
        <time>2021-07-04 14:55:28</time>
      </trkpt>
      <trkpt lat="28.63913" lon="-14.02111">
        <ele>44.4</ele>
        <time>2021-07-04 14:55:29</time>
      </trkpt>
      <trkpt lat="28.6391" lon="-14.02114">
        <ele>44.2</ele>
        <time>2021-07-04 14:55:30</time>
      </trkpt>
      <trkpt lat="28.63907" lon="-14.02117">
        <ele>44.2</ele>
        <time>2021-07-04 14:55:31</time>
      </trkpt>
      <trkpt lat="28.63904" lon="-14.02121">
        <ele>44</ele>
        <time>2021-07-04 14:55:32</time>
      </trkpt>
      <trkpt lat="28.63901" lon="-14.02124">
        <ele>44</ele>
        <time>2021-07-04 14:55:33</time>
      </trkpt>
      <trkpt lat="28.63899" lon="-14.02128">
        <ele>44</ele>
        <time>2021-07-04 14:55:34</time>
      </trkpt>
      <trkpt lat="28.63898" lon="-14.02132">
        <ele>43.6</ele>
        <time>2021-07-04 14:55:35</time>
      </trkpt>
      <trkpt lat="28.63897" lon="-14.02135">
        <ele>43.6</ele>
        <time>2021-07-04 14:55:36</time>
      </trkpt>
      <trkpt lat="28.63896" lon="-14.02139">
        <ele>43.6</ele>
        <time>2021-07-04 14:55:37</time>
      </trkpt>
      <trkpt lat="28.63893" lon="-14.02144">
        <ele>43.6</ele>
        <time>2021-07-04 14:55:38</time>
      </trkpt>
      <trkpt lat="28.63891" lon="-14.02148">
        <ele>43.6</ele>
        <time>2021-07-04 14:55:39</time>
      </trkpt>
      <trkpt lat="28.63888" lon="-14.02152">
        <ele>43.6</ele>
        <time>2021-07-04 14:55:40</time>
      </trkpt>
      <trkpt lat="28.63886" lon="-14.02157">
        <ele>43.6</ele>
        <time>2021-07-04 14:55:41</time>
      </trkpt>
      <trkpt lat="28.63884" lon="-14.02161">
        <ele>43.6</ele>
        <time>2021-07-04 14:55:42</time>
      </trkpt>
      <trkpt lat="28.63881" lon="-14.02165">
        <ele>43.6</ele>
        <time>2021-07-04 14:55:43</time>
      </trkpt>
      <trkpt lat="28.63879" lon="-14.02169">
        <ele>43.6</ele>
        <time>2021-07-04 14:55:44</time>
      </trkpt>
      <trkpt lat="28.63876" lon="-14.02173">
        <ele>43.4</ele>
        <time>2021-07-04 14:55:45</time>
      </trkpt>
      <trkpt lat="28.63874" lon="-14.02177">
        <ele>43.4</ele>
        <time>2021-07-04 14:55:46</time>
      </trkpt>
      <trkpt lat="28.63872" lon="-14.0218">
        <ele>43.2</ele>
        <time>2021-07-04 14:55:47</time>
      </trkpt>
      <trkpt lat="28.6387" lon="-14.02185">
        <ele>43.2</ele>
        <time>2021-07-04 14:55:48</time>
      </trkpt>
      <trkpt lat="28.63868" lon="-14.02189">
        <ele>43</ele>
        <time>2021-07-04 14:55:49</time>
      </trkpt>
      <trkpt lat="28.63865" lon="-14.02193">
        <ele>43</ele>
        <time>2021-07-04 14:55:50</time>
      </trkpt>
      <trkpt lat="28.63863" lon="-14.02196">
        <ele>43</ele>
        <time>2021-07-04 14:55:51</time>
      </trkpt>
      <trkpt lat="28.6386" lon="-14.022">
        <ele>43</ele>
        <time>2021-07-04 14:55:52</time>
      </trkpt>
      <trkpt lat="28.63858" lon="-14.02204">
        <ele>43</ele>
        <time>2021-07-04 14:55:53</time>
      </trkpt>
      <trkpt lat="28.63856" lon="-14.02208">
        <ele>43</ele>
        <time>2021-07-04 14:55:54</time>
      </trkpt>
      <trkpt lat="28.63854" lon="-14.02212">
        <ele>43.2</ele>
        <time>2021-07-04 14:55:55</time>
      </trkpt>
      <trkpt lat="28.63852" lon="-14.02217">
        <ele>43.2</ele>
        <time>2021-07-04 14:55:56</time>
      </trkpt>
      <trkpt lat="28.6385" lon="-14.02221">
        <ele>43.2</ele>
        <time>2021-07-04 14:55:57</time>
      </trkpt>
      <trkpt lat="28.63848" lon="-14.02225">
        <ele>43.2</ele>
        <time>2021-07-04 14:55:58</time>
      </trkpt>
      <trkpt lat="28.63846" lon="-14.02229">
        <ele>43.2</ele>
        <time>2021-07-04 14:55:59</time>
      </trkpt>
      <trkpt lat="28.63843" lon="-14.02233">
        <ele>43.2</ele>
        <time>2021-07-04 14:56:00</time>
      </trkpt>
      <trkpt lat="28.63842" lon="-14.02238">
        <ele>43</ele>
        <time>2021-07-04 14:56:01</time>
      </trkpt>
      <trkpt lat="28.6384" lon="-14.02241">
        <ele>43</ele>
        <time>2021-07-04 14:56:02</time>
      </trkpt>
      <trkpt lat="28.63838" lon="-14.02246">
        <ele>43</ele>
        <time>2021-07-04 14:56:03</time>
      </trkpt>
      <trkpt lat="28.63836" lon="-14.02251">
        <ele>43</ele>
        <time>2021-07-04 14:56:04</time>
      </trkpt>
      <trkpt lat="28.63835" lon="-14.02256">
        <ele>43</ele>
        <time>2021-07-04 14:56:05</time>
      </trkpt>
      <trkpt lat="28.63834" lon="-14.02261">
        <ele>43</ele>
        <time>2021-07-04 14:56:06</time>
      </trkpt>
      <trkpt lat="28.63834" lon="-14.02265">
        <ele>43</ele>
        <time>2021-07-04 14:56:07</time>
      </trkpt>
      <trkpt lat="28.63834" lon="-14.0227">
        <ele>43</ele>
        <time>2021-07-04 14:56:08</time>
      </trkpt>
      <trkpt lat="28.63833" lon="-14.02275">
        <ele>43</ele>
        <time>2021-07-04 14:56:09</time>
      </trkpt>
      <trkpt lat="28.63832" lon="-14.0228">
        <ele>43</ele>
        <time>2021-07-04 14:56:10</time>
      </trkpt>
      <trkpt lat="28.63831" lon="-14.02286">
        <ele>43</ele>
        <time>2021-07-04 14:56:11</time>
      </trkpt>
      <trkpt lat="28.6383" lon="-14.02291">
        <ele>43</ele>
        <time>2021-07-04 14:56:12</time>
      </trkpt>
      <trkpt lat="28.63829" lon="-14.02296">
        <ele>43</ele>
        <time>2021-07-04 14:56:13</time>
      </trkpt>
      <trkpt lat="28.63827" lon="-14.023">
        <ele>43</ele>
        <time>2021-07-04 14:56:14</time>
      </trkpt>
      <trkpt lat="28.63826" lon="-14.02304">
        <ele>43</ele>
        <time>2021-07-04 14:56:15</time>
      </trkpt>
      <trkpt lat="28.63824" lon="-14.02308">
        <ele>43</ele>
        <time>2021-07-04 14:56:16</time>
      </trkpt>
      <trkpt lat="28.63823" lon="-14.02312">
        <ele>43</ele>
        <time>2021-07-04 14:56:17</time>
      </trkpt>
      <trkpt lat="28.63821" lon="-14.02316">
        <ele>43</ele>
        <time>2021-07-04 14:56:18</time>
      </trkpt>
      <trkpt lat="28.63819" lon="-14.02319">
        <ele>43</ele>
        <time>2021-07-04 14:56:19</time>
      </trkpt>
      <trkpt lat="28.63818" lon="-14.02322">
        <ele>42.8</ele>
        <time>2021-07-04 14:56:20</time>
      </trkpt>
      <trkpt lat="28.63816" lon="-14.02326">
        <ele>42.8</ele>
        <time>2021-07-04 14:56:21</time>
      </trkpt>
      <trkpt lat="28.63814" lon="-14.02329">
        <ele>42.4</ele>
        <time>2021-07-04 14:56:22</time>
      </trkpt>
      <trkpt lat="28.63811" lon="-14.02331">
        <ele>42.4</ele>
        <time>2021-07-04 14:56:23</time>
      </trkpt>
      <trkpt lat="28.63809" lon="-14.02334">
        <ele>42.2</ele>
        <time>2021-07-04 14:56:24</time>
      </trkpt>
      <trkpt lat="28.63806" lon="-14.02337">
        <ele>42</ele>
        <time>2021-07-04 14:56:25</time>
      </trkpt>
      <trkpt lat="28.63803" lon="-14.02341">
        <ele>41.6</ele>
        <time>2021-07-04 14:56:26</time>
      </trkpt>
      <trkpt lat="28.63799" lon="-14.02343">
        <ele>41.4</ele>
        <time>2021-07-04 14:56:27</time>
      </trkpt>
      <trkpt lat="28.63796" lon="-14.02346">
        <ele>41.2</ele>
        <time>2021-07-04 14:56:28</time>
      </trkpt>
      <trkpt lat="28.63792" lon="-14.02349">
        <ele>41.2</ele>
        <time>2021-07-04 14:56:29</time>
      </trkpt>
      <trkpt lat="28.63789" lon="-14.02352">
        <ele>40.6</ele>
        <time>2021-07-04 14:56:30</time>
      </trkpt>
      <trkpt lat="28.63786" lon="-14.02355">
        <ele>40.6</ele>
        <time>2021-07-04 14:56:31</time>
      </trkpt>
      <trkpt lat="28.63783" lon="-14.02359">
        <ele>40.4</ele>
        <time>2021-07-04 14:56:32</time>
      </trkpt>
      <trkpt lat="28.63781" lon="-14.02363">
        <ele>40.4</ele>
        <time>2021-07-04 14:56:33</time>
      </trkpt>
      <trkpt lat="28.63779" lon="-14.02366">
        <ele>40.4</ele>
        <time>2021-07-04 14:56:34</time>
      </trkpt>
      <trkpt lat="28.63776" lon="-14.02369">
        <ele>40.4</ele>
        <time>2021-07-04 14:56:35</time>
      </trkpt>
      <trkpt lat="28.63774" lon="-14.02373">
        <ele>40.4</ele>
        <time>2021-07-04 14:56:36</time>
      </trkpt>
      <trkpt lat="28.63772" lon="-14.02375">
        <ele>40.4</ele>
        <time>2021-07-04 14:56:37</time>
      </trkpt>
      <trkpt lat="28.63769" lon="-14.02379">
        <ele>40.4</ele>
        <time>2021-07-04 14:56:38</time>
      </trkpt>
      <trkpt lat="28.63767" lon="-14.02382">
        <ele>40.4</ele>
        <time>2021-07-04 14:56:39</time>
      </trkpt>
      <trkpt lat="28.63763" lon="-14.02386">
        <ele>40.4</ele>
        <time>2021-07-04 14:56:40</time>
      </trkpt>
      <trkpt lat="28.6376" lon="-14.0239">
        <ele>40.4</ele>
        <time>2021-07-04 14:56:41</time>
      </trkpt>
      <trkpt lat="28.63757" lon="-14.02393">
        <ele>40.4</ele>
        <time>2021-07-04 14:56:42</time>
      </trkpt>
      <trkpt lat="28.63754" lon="-14.02396">
        <ele>40.4</ele>
        <time>2021-07-04 14:56:43</time>
      </trkpt>
      <trkpt lat="28.63751" lon="-14.02399">
        <ele>40</ele>
        <time>2021-07-04 14:56:44</time>
      </trkpt>
      <trkpt lat="28.63748" lon="-14.02402">
        <ele>40</ele>
        <time>2021-07-04 14:56:45</time>
      </trkpt>
      <trkpt lat="28.63744" lon="-14.02404">
        <ele>40</ele>
        <time>2021-07-04 14:56:46</time>
      </trkpt>
      <trkpt lat="28.63742" lon="-14.02407">
        <ele>40</ele>
        <time>2021-07-04 14:56:47</time>
      </trkpt>
      <trkpt lat="28.63738" lon="-14.02409">
        <ele>40</ele>
        <time>2021-07-04 14:56:48</time>
      </trkpt>
      <trkpt lat="28.63735" lon="-14.02412">
        <ele>40</ele>
        <time>2021-07-04 14:56:49</time>
      </trkpt>
      <trkpt lat="28.63732" lon="-14.02415">
        <ele>40</ele>
        <time>2021-07-04 14:56:50</time>
      </trkpt>
      <trkpt lat="28.63728" lon="-14.02417">
        <ele>39.6</ele>
        <time>2021-07-04 14:56:51</time>
      </trkpt>
      <trkpt lat="28.63725" lon="-14.0242">
        <ele>39.4</ele>
        <time>2021-07-04 14:56:52</time>
      </trkpt>
      <trkpt lat="28.63722" lon="-14.02423">
        <ele>39.2</ele>
        <time>2021-07-04 14:56:53</time>
      </trkpt>
      <trkpt lat="28.63718" lon="-14.02425">
        <ele>38.8</ele>
        <time>2021-07-04 14:56:54</time>
      </trkpt>
      <trkpt lat="28.63715" lon="-14.02428">
        <ele>38.6</ele>
        <time>2021-07-04 14:56:55</time>
      </trkpt>
      <trkpt lat="28.63712" lon="-14.02431">
        <ele>38.6</ele>
        <time>2021-07-04 14:56:56</time>
      </trkpt>
      <trkpt lat="28.63709" lon="-14.02434">
        <ele>38.4</ele>
        <time>2021-07-04 14:56:57</time>
      </trkpt>
      <trkpt lat="28.63706" lon="-14.02437">
        <ele>38.4</ele>
        <time>2021-07-04 14:56:58</time>
      </trkpt>
      <trkpt lat="28.63704" lon="-14.0244">
        <ele>38.2</ele>
        <time>2021-07-04 14:56:59</time>
      </trkpt>
      <trkpt lat="28.63702" lon="-14.02443">
        <ele>38.2</ele>
        <time>2021-07-04 14:57:00</time>
      </trkpt>
      <trkpt lat="28.637" lon="-14.02446">
        <ele>38.2</ele>
        <time>2021-07-04 14:57:01</time>
      </trkpt>
      <trkpt lat="28.63698" lon="-14.02449">
        <ele>38.2</ele>
        <time>2021-07-04 14:57:02</time>
      </trkpt>
      <trkpt lat="28.63696" lon="-14.02451">
        <ele>38.2</ele>
        <time>2021-07-04 14:57:03</time>
      </trkpt>
      <trkpt lat="28.63694" lon="-14.02454">
        <ele>38.2</ele>
        <time>2021-07-04 14:57:04</time>
      </trkpt>
      <trkpt lat="28.63692" lon="-14.02457">
        <ele>38.2</ele>
        <time>2021-07-04 14:57:05</time>
      </trkpt>
      <trkpt lat="28.63691" lon="-14.0246">
        <ele>38.2</ele>
        <time>2021-07-04 14:57:06</time>
      </trkpt>
      <trkpt lat="28.63691" lon="-14.02463">
        <ele>38.4</ele>
        <time>2021-07-04 14:57:07</time>
      </trkpt>
      <trkpt lat="28.63691" lon="-14.02466">
        <ele>38.4</ele>
        <time>2021-07-04 14:57:08</time>
      </trkpt>
      <trkpt lat="28.6369" lon="-14.02469">
        <ele>38.4</ele>
        <time>2021-07-04 14:57:09</time>
      </trkpt>
      <trkpt lat="28.63689" lon="-14.02472">
        <ele>38.4</ele>
        <time>2021-07-04 14:57:10</time>
      </trkpt>
      <trkpt lat="28.63689" lon="-14.02475">
        <ele>38.4</ele>
        <time>2021-07-04 14:57:11</time>
      </trkpt>
      <trkpt lat="28.63688" lon="-14.02478">
        <ele>38.4</ele>
        <time>2021-07-04 14:57:12</time>
      </trkpt>
      <trkpt lat="28.63687" lon="-14.02482">
        <ele>38.4</ele>
        <time>2021-07-04 14:57:13</time>
      </trkpt>
      <trkpt lat="28.63686" lon="-14.02485">
        <ele>38.6</ele>
        <time>2021-07-04 14:57:14</time>
      </trkpt>
      <trkpt lat="28.63686" lon="-14.02489">
        <ele>38.6</ele>
        <time>2021-07-04 14:57:15</time>
      </trkpt>
      <trkpt lat="28.63685" lon="-14.02493">
        <ele>38.6</ele>
        <time>2021-07-04 14:57:16</time>
      </trkpt>
      <trkpt lat="28.63684" lon="-14.02496">
        <ele>38.6</ele>
        <time>2021-07-04 14:57:17</time>
      </trkpt>
      <trkpt lat="28.63683" lon="-14.025">
        <ele>38.6</ele>
        <time>2021-07-04 14:57:18</time>
      </trkpt>
      <trkpt lat="28.63682" lon="-14.02503">
        <ele>38.6</ele>
        <time>2021-07-04 14:57:19</time>
      </trkpt>
      <trkpt lat="28.63682" lon="-14.02507">
        <ele>38.4</ele>
        <time>2021-07-04 14:57:20</time>
      </trkpt>
      <trkpt lat="28.63681" lon="-14.0251">
        <ele>38.4</ele>
        <time>2021-07-04 14:57:21</time>
      </trkpt>
      <trkpt lat="28.63681" lon="-14.02514">
        <ele>38.4</ele>
        <time>2021-07-04 14:57:22</time>
      </trkpt>
      <trkpt lat="28.6368" lon="-14.02518">
        <ele>38.4</ele>
        <time>2021-07-04 14:57:23</time>
      </trkpt>
      <trkpt lat="28.63679" lon="-14.02521">
        <ele>38.2</ele>
        <time>2021-07-04 14:57:24</time>
      </trkpt>
      <trkpt lat="28.63678" lon="-14.02524">
        <ele>38.2</ele>
        <time>2021-07-04 14:57:25</time>
      </trkpt>
      <trkpt lat="28.63677" lon="-14.02527">
        <ele>38.2</ele>
        <time>2021-07-04 14:57:26</time>
      </trkpt>
      <trkpt lat="28.63675" lon="-14.0253">
        <ele>37.8</ele>
        <time>2021-07-04 14:57:27</time>
      </trkpt>
      <trkpt lat="28.63672" lon="-14.02533">
        <ele>37.6</ele>
        <time>2021-07-04 14:57:28</time>
      </trkpt>
      <trkpt lat="28.6367" lon="-14.02536">
        <ele>37.4</ele>
        <time>2021-07-04 14:57:29</time>
      </trkpt>
      <trkpt lat="28.63668" lon="-14.02538">
        <ele>37</ele>
        <time>2021-07-04 14:57:30</time>
      </trkpt>
      <trkpt lat="28.63666" lon="-14.02542">
        <ele>36.8</ele>
        <time>2021-07-04 14:57:31</time>
      </trkpt>
      <trkpt lat="28.63664" lon="-14.02544">
        <ele>36.6</ele>
        <time>2021-07-04 14:57:32</time>
      </trkpt>
      <trkpt lat="28.63662" lon="-14.02547">
        <ele>36.4</ele>
        <time>2021-07-04 14:57:33</time>
      </trkpt>
      <trkpt lat="28.6366" lon="-14.02549">
        <ele>36.2</ele>
        <time>2021-07-04 14:57:34</time>
      </trkpt>
      <trkpt lat="28.63657" lon="-14.0255">
        <ele>36.2</ele>
        <time>2021-07-04 14:57:35</time>
      </trkpt>
      <trkpt lat="28.63655" lon="-14.02552">
        <ele>35.8</ele>
        <time>2021-07-04 14:57:36</time>
      </trkpt>
      <trkpt lat="28.63653" lon="-14.02554">
        <ele>35.8</ele>
        <time>2021-07-04 14:57:37</time>
      </trkpt>
      <trkpt lat="28.6365" lon="-14.02555">
        <ele>35.6</ele>
        <time>2021-07-04 14:57:38</time>
      </trkpt>
      <trkpt lat="28.63648" lon="-14.02557">
        <ele>35.6</ele>
        <time>2021-07-04 14:57:39</time>
      </trkpt>
      <trkpt lat="28.63646" lon="-14.02559">
        <ele>35.2</ele>
        <time>2021-07-04 14:57:40</time>
      </trkpt>
      <trkpt lat="28.63644" lon="-14.0256">
        <ele>35</ele>
        <time>2021-07-04 14:57:41</time>
      </trkpt>
      <trkpt lat="28.63643" lon="-14.02561">
        <ele>35</ele>
        <time>2021-07-04 14:57:42</time>
      </trkpt>
      <trkpt lat="28.63642" lon="-14.02563">
        <ele>34.6</ele>
        <time>2021-07-04 14:57:43</time>
      </trkpt>
      <trkpt lat="28.63641" lon="-14.02563">
        <ele>34.6</ele>
        <time>2021-07-04 14:57:44</time>
      </trkpt>
      <trkpt lat="28.6364" lon="-14.02564">
        <ele>34.6</ele>
        <time>2021-07-04 14:57:45</time>
      </trkpt>
      <trkpt lat="28.6364" lon="-14.02564">
        <ele>34.6</ele>
        <time>2021-07-04 14:57:46</time>
      </trkpt>
      <trkpt lat="28.6364" lon="-14.02563">
        <ele>34.6</ele>
        <time>2021-07-04 14:57:47</time>
      </trkpt>
      <trkpt lat="28.6364" lon="-14.02562">
        <ele>35.6</ele>
        <time>2021-07-04 14:57:48</time>
      </trkpt>
      <trkpt lat="28.6364" lon="-14.02561">
        <ele>35.6</ele>
        <time>2021-07-04 14:57:49</time>
      </trkpt>
      <trkpt lat="28.6364" lon="-14.0256">
        <ele>35.6</ele>
        <time>2021-07-04 14:57:50</time>
      </trkpt>
      <trkpt lat="28.6364" lon="-14.0256">
        <ele>35.6</ele>
        <time>2021-07-04 14:57:51</time>
      </trkpt>
      <trkpt lat="28.6364" lon="-14.02559">
        <ele>35.6</ele>
        <time>2021-07-04 14:57:52</time>
      </trkpt>
      <trkpt lat="28.6364" lon="-14.02559">
        <ele>35.6</ele>
        <time>2021-07-04 14:57:53</time>
      </trkpt>
      <trkpt lat="28.6364" lon="-14.02559">
        <ele>36</ele>
        <time>2021-07-04 14:57:54</time>
      </trkpt>
      <trkpt lat="28.6364" lon="-14.02558">
        <ele>36</ele>
        <time>2021-07-04 14:57:55</time>
      </trkpt>
      <trkpt lat="28.63639" lon="-14.02556">
        <ele>36</ele>
        <time>2021-07-04 14:57:56</time>
      </trkpt>
      <trkpt lat="28.63639" lon="-14.02555">
        <ele>36</ele>
        <time>2021-07-04 14:57:57</time>
      </trkpt>
      <trkpt lat="28.63638" lon="-14.02553">
        <ele>35.8</ele>
        <time>2021-07-04 14:57:58</time>
      </trkpt>
      <trkpt lat="28.63637" lon="-14.02552">
        <ele>35.6</ele>
        <time>2021-07-04 14:57:59</time>
      </trkpt>
      <trkpt lat="28.63637" lon="-14.02551">
        <ele>35.6</ele>
        <time>2021-07-04 14:58:00</time>
      </trkpt>
      <trkpt lat="28.63636" lon="-14.02549">
        <ele>35.2</ele>
        <time>2021-07-04 14:58:01</time>
      </trkpt>
      <trkpt lat="28.63635" lon="-14.02548">
        <ele>35.2</ele>
        <time>2021-07-04 14:58:02</time>
      </trkpt>
      <trkpt lat="28.63635" lon="-14.02546">
        <ele>35</ele>
        <time>2021-07-04 14:58:03</time>
      </trkpt>
      <trkpt lat="28.63635" lon="-14.02544">
        <ele>35</ele>
        <time>2021-07-04 14:58:04</time>
      </trkpt>
      <trkpt lat="28.63635" lon="-14.02543">
        <ele>35.2</ele>
        <time>2021-07-04 14:58:05</time>
      </trkpt>
      <trkpt lat="28.63635" lon="-14.02542">
        <ele>35.2</ele>
        <time>2021-07-04 14:58:06</time>
      </trkpt>
      <trkpt lat="28.63635" lon="-14.02541">
        <ele>35.2</ele>
        <time>2021-07-04 14:58:07</time>
      </trkpt>
      <trkpt lat="28.63635" lon="-14.02539">
        <ele>35.6</ele>
        <time>2021-07-04 14:58:08</time>
      </trkpt>
      <trkpt lat="28.63635" lon="-14.02537">
        <ele>35.6</ele>
        <time>2021-07-04 14:58:09</time>
      </trkpt>
      <trkpt lat="28.63636" lon="-14.02534">
        <ele>35.6</ele>
        <time>2021-07-04 14:58:10</time>
      </trkpt>
      <trkpt lat="28.63636" lon="-14.02533">
        <ele>35.8</ele>
        <time>2021-07-04 14:58:11</time>
      </trkpt>
      <trkpt lat="28.63637" lon="-14.02531">
        <ele>36</ele>
        <time>2021-07-04 14:58:12</time>
      </trkpt>
      <trkpt lat="28.63638" lon="-14.02529">
        <ele>36</ele>
        <time>2021-07-04 14:58:13</time>
      </trkpt>
      <trkpt lat="28.63637" lon="-14.02527">
        <ele>36.4</ele>
        <time>2021-07-04 14:58:14</time>
      </trkpt>
      <trkpt lat="28.63637" lon="-14.02525">
        <ele>36.4</ele>
        <time>2021-07-04 14:58:15</time>
      </trkpt>
      <trkpt lat="28.63636" lon="-14.02523">
        <ele>36.6</ele>
        <time>2021-07-04 14:58:16</time>
      </trkpt>
      <trkpt lat="28.63635" lon="-14.02521">
        <ele>36.6</ele>
        <time>2021-07-04 14:58:17</time>
      </trkpt>
      <trkpt lat="28.63634" lon="-14.02519">
        <ele>36.6</ele>
        <time>2021-07-04 14:58:18</time>
      </trkpt>
      <trkpt lat="28.63633" lon="-14.02517">
        <ele>36.6</ele>
        <time>2021-07-04 14:58:19</time>
      </trkpt>
      <trkpt lat="28.63632" lon="-14.02514">
        <ele>36.6</ele>
        <time>2021-07-04 14:58:20</time>
      </trkpt>
      <trkpt lat="28.6363" lon="-14.02512">
        <ele>36.6</ele>
        <time>2021-07-04 14:58:21</time>
      </trkpt>
      <trkpt lat="28.63627" lon="-14.02509">
        <ele>36.6</ele>
        <time>2021-07-04 14:58:22</time>
      </trkpt>
      <trkpt lat="28.63625" lon="-14.02508">
        <ele>36.6</ele>
        <time>2021-07-04 14:58:23</time>
      </trkpt>
      <trkpt lat="28.63623" lon="-14.02507">
        <ele>36.6</ele>
        <time>2021-07-04 14:58:24</time>
      </trkpt>
      <trkpt lat="28.63621" lon="-14.02506">
        <ele>36.6</ele>
        <time>2021-07-04 14:58:25</time>
      </trkpt>
      <trkpt lat="28.63619" lon="-14.02504">
        <ele>36.6</ele>
        <time>2021-07-04 14:58:26</time>
      </trkpt>
      <trkpt lat="28.63617" lon="-14.02502">
        <ele>36.8</ele>
        <time>2021-07-04 14:58:27</time>
      </trkpt>
      <trkpt lat="28.63614" lon="-14.025">
        <ele>36.8</ele>
        <time>2021-07-04 14:58:28</time>
      </trkpt>
      <trkpt lat="28.63612" lon="-14.02499">
        <ele>36.8</ele>
        <time>2021-07-04 14:58:29</time>
      </trkpt>
      <trkpt lat="28.63609" lon="-14.02498">
        <ele>36.8</ele>
        <time>2021-07-04 14:58:30</time>
      </trkpt>
      <trkpt lat="28.63606" lon="-14.02496">
        <ele>36.8</ele>
        <time>2021-07-04 14:58:31</time>
      </trkpt>
      <trkpt lat="28.63603" lon="-14.02495">
        <ele>36.6</ele>
        <time>2021-07-04 14:58:32</time>
      </trkpt>
      <trkpt lat="28.636" lon="-14.02494">
        <ele>36.6</ele>
        <time>2021-07-04 14:58:33</time>
      </trkpt>
      <trkpt lat="28.63597" lon="-14.02493">
        <ele>36</ele>
        <time>2021-07-04 14:58:34</time>
      </trkpt>
      <trkpt lat="28.63594" lon="-14.02492">
        <ele>35.6</ele>
        <time>2021-07-04 14:58:35</time>
      </trkpt>
      <trkpt lat="28.63591" lon="-14.02491">
        <ele>35.4</ele>
        <time>2021-07-04 14:58:36</time>
      </trkpt>
      <trkpt lat="28.63588" lon="-14.0249">
        <ele>35.4</ele>
        <time>2021-07-04 14:58:37</time>
      </trkpt>
      <trkpt lat="28.63586" lon="-14.02488">
        <ele>35</ele>
        <time>2021-07-04 14:58:38</time>
      </trkpt>
      <trkpt lat="28.63584" lon="-14.02487">
        <ele>35</ele>
        <time>2021-07-04 14:58:39</time>
      </trkpt>
      <trkpt lat="28.63581" lon="-14.02485">
        <ele>35</ele>
        <time>2021-07-04 14:58:40</time>
      </trkpt>
      <trkpt lat="28.63579" lon="-14.02483">
        <ele>35</ele>
        <time>2021-07-04 14:58:41</time>
      </trkpt>
      <trkpt lat="28.63576" lon="-14.0248">
        <ele>35</ele>
        <time>2021-07-04 14:59:47</time>
      </trkpt>
      <trkpt lat="28.63574" lon="-14.02478">
        <ele>35</ele>
        <time>2021-07-04 14:59:48</time>
      </trkpt>
      <trkpt lat="28.63572" lon="-14.02475">
        <ele>35</ele>
        <time>2021-07-04 14:59:49</time>
      </trkpt>
      <trkpt lat="28.6357" lon="-14.02472">
        <ele>35</ele>
        <time>2021-07-04 14:59:50</time>
      </trkpt>
      <trkpt lat="28.63569" lon="-14.02469">
        <ele>35</ele>
        <time>2021-07-04 14:59:51</time>
      </trkpt>
      <trkpt lat="28.63568" lon="-14.02465">
        <ele>35.2</ele>
        <time>2021-07-04 14:59:52</time>
      </trkpt>
      <trkpt lat="28.63567" lon="-14.02462">
        <ele>35.2</ele>
        <time>2021-07-04 14:59:53</time>
      </trkpt>
      <trkpt lat="28.63566" lon="-14.02459">
        <ele>35.6</ele>
        <time>2021-07-04 14:59:54</time>
      </trkpt>
      <trkpt lat="28.63565" lon="-14.02456">
        <ele>35.6</ele>
        <time>2021-07-04 14:59:55</time>
      </trkpt>
      <trkpt lat="28.63564" lon="-14.02453">
        <ele>35.6</ele>
        <time>2021-07-04 14:59:56</time>
      </trkpt>
      <trkpt lat="28.63562" lon="-14.02451">
        <ele>35.6</ele>
        <time>2021-07-04 14:59:57</time>
      </trkpt>
      <trkpt lat="28.6356" lon="-14.02448">
        <ele>35.8</ele>
        <time>2021-07-04 14:59:58</time>
      </trkpt>
      <trkpt lat="28.63557" lon="-14.02446">
        <ele>35.8</ele>
        <time>2021-07-04 14:59:59</time>
      </trkpt>
      <trkpt lat="28.63555" lon="-14.02444">
        <ele>35.8</ele>
        <time>2021-07-04 15:00:00</time>
      </trkpt>
      <trkpt lat="28.63552" lon="-14.02443">
        <ele>35.8</ele>
        <time>2021-07-04 15:00:01</time>
      </trkpt>
      <trkpt lat="28.63549" lon="-14.02441">
        <ele>35.8</ele>
        <time>2021-07-04 15:00:02</time>
      </trkpt>
      <trkpt lat="28.63546" lon="-14.02439">
        <ele>35.8</ele>
        <time>2021-07-04 15:00:03</time>
      </trkpt>
      <trkpt lat="28.63542" lon="-14.02437">
        <ele>35.8</ele>
        <time>2021-07-04 15:00:04</time>
      </trkpt>
      <trkpt lat="28.63538" lon="-14.02436">
        <ele>35.6</ele>
        <time>2021-07-04 15:00:05</time>
      </trkpt>
      <trkpt lat="28.63534" lon="-14.02435">
        <ele>35.6</ele>
        <time>2021-07-04 15:00:06</time>
      </trkpt>
      <trkpt lat="28.6353" lon="-14.02433">
        <ele>35.2</ele>
        <time>2021-07-04 15:00:07</time>
      </trkpt>
      <trkpt lat="28.63527" lon="-14.02431">
        <ele>35</ele>
        <time>2021-07-04 15:00:08</time>
      </trkpt>
      <trkpt lat="28.63524" lon="-14.02428">
        <ele>35</ele>
        <time>2021-07-04 15:00:09</time>
      </trkpt>
      <trkpt lat="28.63521" lon="-14.02425">
        <ele>34.6</ele>
        <time>2021-07-04 15:00:10</time>
      </trkpt>
      <trkpt lat="28.63519" lon="-14.02422">
        <ele>34.6</ele>
        <time>2021-07-04 15:00:11</time>
      </trkpt>
      <trkpt lat="28.63518" lon="-14.02419">
        <ele>34.4</ele>
        <time>2021-07-04 15:00:12</time>
      </trkpt>
      <trkpt lat="28.63516" lon="-14.02416">
        <ele>34.4</ele>
        <time>2021-07-04 15:00:13</time>
      </trkpt>
      <trkpt lat="28.63516" lon="-14.02413">
        <ele>34.4</ele>
        <time>2021-07-04 15:00:14</time>
      </trkpt>
      <trkpt lat="28.63515" lon="-14.02409">
        <ele>34.4</ele>
        <time>2021-07-04 15:00:15</time>
      </trkpt>
      <trkpt lat="28.63515" lon="-14.02406">
        <ele>34.4</ele>
        <time>2021-07-04 15:00:16</time>
      </trkpt>
      <trkpt lat="28.63514" lon="-14.02402">
        <ele>34.4</ele>
        <time>2021-07-04 15:00:17</time>
      </trkpt>
      <trkpt lat="28.63513" lon="-14.02399">
        <ele>34.8</ele>
        <time>2021-07-04 15:00:18</time>
      </trkpt>
      <trkpt lat="28.63513" lon="-14.02395">
        <ele>34.8</ele>
        <time>2021-07-04 15:00:19</time>
      </trkpt>
      <trkpt lat="28.63511" lon="-14.02392">
        <ele>35.2</ele>
        <time>2021-07-04 15:00:20</time>
      </trkpt>
      <trkpt lat="28.6351" lon="-14.02388">
        <ele>35.2</ele>
        <time>2021-07-04 15:00:21</time>
      </trkpt>
      <trkpt lat="28.63508" lon="-14.02385">
        <ele>35.6</ele>
        <time>2021-07-04 15:00:22</time>
      </trkpt>
      <trkpt lat="28.63506" lon="-14.02382">
        <ele>35.6</ele>
        <time>2021-07-04 15:00:23</time>
      </trkpt>
      <trkpt lat="28.63504" lon="-14.02379">
        <ele>35.6</ele>
        <time>2021-07-04 15:00:24</time>
      </trkpt>
      <trkpt lat="28.63502" lon="-14.02376">
        <ele>36</ele>
        <time>2021-07-04 15:00:25</time>
      </trkpt>
      <trkpt lat="28.63501" lon="-14.02373">
        <ele>36.2</ele>
        <time>2021-07-04 15:00:26</time>
      </trkpt>
      <trkpt lat="28.635" lon="-14.02369">
        <ele>36.4</ele>
        <time>2021-07-04 15:00:27</time>
      </trkpt>
      <trkpt lat="28.63499" lon="-14.02365">
        <ele>36.4</ele>
        <time>2021-07-04 15:00:28</time>
      </trkpt>
      <trkpt lat="28.63499" lon="-14.02361">
        <ele>36.6</ele>
        <time>2021-07-04 15:00:29</time>
      </trkpt>
      <trkpt lat="28.63498" lon="-14.02358">
        <ele>37</ele>
        <time>2021-07-04 15:00:30</time>
      </trkpt>
      <trkpt lat="28.63498" lon="-14.02354">
        <ele>37.2</ele>
        <time>2021-07-04 15:00:31</time>
      </trkpt>
      <trkpt lat="28.63498" lon="-14.02351">
        <ele>37.6</ele>
        <time>2021-07-04 15:00:32</time>
      </trkpt>
      <trkpt lat="28.63497" lon="-14.02348">
        <ele>37.6</ele>
        <time>2021-07-04 15:00:33</time>
      </trkpt>
      <trkpt lat="28.63497" lon="-14.02345">
        <ele>38</ele>
        <time>2021-07-04 15:00:34</time>
      </trkpt>
      <trkpt lat="28.63497" lon="-14.02342">
        <ele>38.2</ele>
        <time>2021-07-04 15:00:35</time>
      </trkpt>
      <trkpt lat="28.63497" lon="-14.02338">
        <ele>38.2</ele>
        <time>2021-07-04 15:00:36</time>
      </trkpt>
      <trkpt lat="28.63497" lon="-14.02334">
        <ele>38.4</ele>
        <time>2021-07-04 15:00:37</time>
      </trkpt>
      <trkpt lat="28.63496" lon="-14.02331">
        <ele>38.4</ele>
        <time>2021-07-04 15:00:38</time>
      </trkpt>
      <trkpt lat="28.63496" lon="-14.02327">
        <ele>38.4</ele>
        <time>2021-07-04 15:00:39</time>
      </trkpt>
      <trkpt lat="28.63496" lon="-14.02324">
        <ele>38.6</ele>
        <time>2021-07-04 15:00:40</time>
      </trkpt>
      <trkpt lat="28.63495" lon="-14.02321">
        <ele>38.6</ele>
        <time>2021-07-04 15:00:41</time>
      </trkpt>
      <trkpt lat="28.63495" lon="-14.02318">
        <ele>38.6</ele>
        <time>2021-07-04 15:00:42</time>
      </trkpt>
      <trkpt lat="28.63494" lon="-14.02315">
        <ele>39</ele>
        <time>2021-07-04 15:00:43</time>
      </trkpt>
      <trkpt lat="28.63494" lon="-14.02312">
        <ele>39</ele>
        <time>2021-07-04 15:00:44</time>
      </trkpt>
      <trkpt lat="28.63493" lon="-14.02309">
        <ele>39.2</ele>
        <time>2021-07-04 15:00:45</time>
      </trkpt>
      <trkpt lat="28.63492" lon="-14.02306">
        <ele>39.2</ele>
        <time>2021-07-04 15:00:46</time>
      </trkpt>
      <trkpt lat="28.63491" lon="-14.02303">
        <ele>39.6</ele>
        <time>2021-07-04 15:00:47</time>
      </trkpt>
      <trkpt lat="28.63491" lon="-14.023">
        <ele>39.8</ele>
        <time>2021-07-04 15:00:48</time>
      </trkpt>
      <trkpt lat="28.6349" lon="-14.02297">
        <ele>39.8</ele>
        <time>2021-07-04 15:00:49</time>
      </trkpt>
      <trkpt lat="28.6349" lon="-14.02294">
        <ele>40.2</ele>
        <time>2021-07-04 15:00:50</time>
      </trkpt>
      <trkpt lat="28.63489" lon="-14.02291">
        <ele>40.2</ele>
        <time>2021-07-04 15:00:51</time>
      </trkpt>
      <trkpt lat="28.63489" lon="-14.02288">
        <ele>40.4</ele>
        <time>2021-07-04 15:00:52</time>
      </trkpt>
      <trkpt lat="28.63488" lon="-14.02285">
        <ele>40.6</ele>
        <time>2021-07-04 15:00:53</time>
      </trkpt>
      <trkpt lat="28.63488" lon="-14.02283">
        <ele>40.8</ele>
        <time>2021-07-04 15:00:54</time>
      </trkpt>
      <trkpt lat="28.63488" lon="-14.02281">
        <ele>41.2</ele>
        <time>2021-07-04 15:00:55</time>
      </trkpt>
      <trkpt lat="28.63487" lon="-14.02279">
        <ele>41.2</ele>
        <time>2021-07-04 15:00:56</time>
      </trkpt>
      <trkpt lat="28.63486" lon="-14.02276">
        <ele>41.2</ele>
        <time>2021-07-04 15:00:57</time>
      </trkpt>
      <trkpt lat="28.63485" lon="-14.02274">
        <ele>41.2</ele>
        <time>2021-07-04 15:00:58</time>
      </trkpt>
      <trkpt lat="28.63485" lon="-14.02273">
        <ele>41.4</ele>
        <time>2021-07-04 15:00:59</time>
      </trkpt>
      <trkpt lat="28.63485" lon="-14.0227">
        <ele>41.4</ele>
        <time>2021-07-04 15:01:00</time>
      </trkpt>
      <trkpt lat="28.63484" lon="-14.02267">
        <ele>41.6</ele>
        <time>2021-07-04 15:01:01</time>
      </trkpt>
      <trkpt lat="28.63483" lon="-14.02265">
        <ele>42</ele>
        <time>2021-07-04 15:01:02</time>
      </trkpt>
      <trkpt lat="28.63483" lon="-14.02263">
        <ele>42</ele>
        <time>2021-07-04 15:01:03</time>
      </trkpt>
      <trkpt lat="28.63482" lon="-14.02261">
        <ele>42.2</ele>
        <time>2021-07-04 15:01:04</time>
      </trkpt>
      <trkpt lat="28.63482" lon="-14.02259">
        <ele>42.2</ele>
        <time>2021-07-04 15:01:05</time>
      </trkpt>
      <trkpt lat="28.6348" lon="-14.02258">
        <ele>42.2</ele>
        <time>2021-07-04 15:01:06</time>
      </trkpt>
      <trkpt lat="28.63479" lon="-14.02256">
        <ele>42.2</ele>
        <time>2021-07-04 15:01:07</time>
      </trkpt>
      <trkpt lat="28.63478" lon="-14.02253">
        <ele>42.6</ele>
        <time>2021-07-04 15:01:08</time>
      </trkpt>
      <trkpt lat="28.63478" lon="-14.0225">
        <ele>42.6</ele>
        <time>2021-07-04 15:01:09</time>
      </trkpt>
      <trkpt lat="28.63478" lon="-14.02247">
        <ele>42.8</ele>
        <time>2021-07-04 15:01:10</time>
      </trkpt>
      <trkpt lat="28.63478" lon="-14.02244">
        <ele>43</ele>
        <time>2021-07-04 15:01:11</time>
      </trkpt>
      <trkpt lat="28.63478" lon="-14.02241">
        <ele>43</ele>
        <time>2021-07-04 15:01:12</time>
      </trkpt>
      <trkpt lat="28.63477" lon="-14.02238">
        <ele>43</ele>
        <time>2021-07-04 15:01:13</time>
      </trkpt>
      <trkpt lat="28.63477" lon="-14.02234">
        <ele>43.2</ele>
        <time>2021-07-04 15:01:14</time>
      </trkpt>
      <trkpt lat="28.63478" lon="-14.02231">
        <ele>43.2</ele>
        <time>2021-07-04 15:01:15</time>
      </trkpt>
      <trkpt lat="28.63478" lon="-14.02228">
        <ele>43.4</ele>
        <time>2021-07-04 15:01:16</time>
      </trkpt>
      <trkpt lat="28.63479" lon="-14.02225">
        <ele>43.4</ele>
        <time>2021-07-04 15:01:17</time>
      </trkpt>
      <trkpt lat="28.63479" lon="-14.02222">
        <ele>43.8</ele>
        <time>2021-07-04 15:01:18</time>
      </trkpt>
      <trkpt lat="28.6348" lon="-14.02218">
        <ele>43.8</ele>
        <time>2021-07-04 15:01:19</time>
      </trkpt>
      <trkpt lat="28.6348" lon="-14.02215">
        <ele>44</ele>
        <time>2021-07-04 15:01:20</time>
      </trkpt>
      <trkpt lat="28.6348" lon="-14.02211">
        <ele>44</ele>
        <time>2021-07-04 15:01:21</time>
      </trkpt>
      <trkpt lat="28.63481" lon="-14.02208">
        <ele>44</ele>
        <time>2021-07-04 15:01:22</time>
      </trkpt>
      <trkpt lat="28.63481" lon="-14.02205">
        <ele>44</ele>
        <time>2021-07-04 15:01:23</time>
      </trkpt>
      <trkpt lat="28.63482" lon="-14.02202">
        <ele>44.4</ele>
        <time>2021-07-04 15:01:24</time>
      </trkpt>
      <trkpt lat="28.63482" lon="-14.02199">
        <ele>44.4</ele>
        <time>2021-07-04 15:01:25</time>
      </trkpt>
      <trkpt lat="28.63482" lon="-14.02196">
        <ele>44.4</ele>
        <time>2021-07-04 15:01:26</time>
      </trkpt>
      <trkpt lat="28.63481" lon="-14.02193">
        <ele>44.4</ele>
        <time>2021-07-04 15:01:27</time>
      </trkpt>
      <trkpt lat="28.63481" lon="-14.0219">
        <ele>44.4</ele>
        <time>2021-07-04 15:01:28</time>
      </trkpt>
      <trkpt lat="28.63481" lon="-14.02188">
        <ele>44.4</ele>
        <time>2021-07-04 15:01:29</time>
      </trkpt>
      <trkpt lat="28.63481" lon="-14.02186">
        <ele>44.6</ele>
        <time>2021-07-04 15:01:30</time>
      </trkpt>
      <trkpt lat="28.63481" lon="-14.02184">
        <ele>44.6</ele>
        <time>2021-07-04 15:01:31</time>
      </trkpt>
      <trkpt lat="28.63481" lon="-14.02182">
        <ele>44.6</ele>
        <time>2021-07-04 15:01:32</time>
      </trkpt>
      <trkpt lat="28.63482" lon="-14.0218">
        <ele>44.8</ele>
        <time>2021-07-04 15:01:33</time>
      </trkpt>
      <trkpt lat="28.63482" lon="-14.02179">
        <ele>44.8</ele>
        <time>2021-07-04 15:01:34</time>
      </trkpt>
      <trkpt lat="28.63483" lon="-14.02177">
        <ele>44.8</ele>
        <time>2021-07-04 15:01:35</time>
      </trkpt>
      <trkpt lat="28.63484" lon="-14.02176">
        <ele>44.8</ele>
        <time>2021-07-04 15:01:36</time>
      </trkpt>
      <trkpt lat="28.63485" lon="-14.02174">
        <ele>44.8</ele>
        <time>2021-07-04 15:01:37</time>
      </trkpt>
      <trkpt lat="28.63486" lon="-14.02174">
        <ele>45</ele>
        <time>2021-07-04 15:01:38</time>
      </trkpt>
      <trkpt lat="28.63486" lon="-14.02173">
        <ele>45</ele>
        <time>2021-07-04 15:01:39</time>
      </trkpt>
      <trkpt lat="28.63486" lon="-14.02171">
        <ele>45</ele>
        <time>2021-07-04 15:01:40</time>
      </trkpt>
      <trkpt lat="28.63486" lon="-14.02168">
        <ele>45</ele>
        <time>2021-07-04 15:01:41</time>
      </trkpt>
      <trkpt lat="28.63486" lon="-14.02165">
        <ele>45</ele>
        <time>2021-07-04 15:01:42</time>
      </trkpt>
      <trkpt lat="28.63487" lon="-14.02162">
        <ele>45</ele>
        <time>2021-07-04 15:01:43</time>
      </trkpt>
      <trkpt lat="28.63488" lon="-14.0216">
        <ele>45</ele>
        <time>2021-07-04 15:01:44</time>
      </trkpt>
      <trkpt lat="28.6349" lon="-14.02158">
        <ele>45.2</ele>
        <time>2021-07-04 15:01:45</time>
      </trkpt>
      <trkpt lat="28.63491" lon="-14.02156">
        <ele>45.2</ele>
        <time>2021-07-04 15:01:46</time>
      </trkpt>
      <trkpt lat="28.63492" lon="-14.02154">
        <ele>45.6</ele>
        <time>2021-07-04 15:01:47</time>
      </trkpt>
      <trkpt lat="28.63493" lon="-14.02152">
        <ele>45.6</ele>
        <time>2021-07-04 15:01:48</time>
      </trkpt>
      <trkpt lat="28.63494" lon="-14.0215">
        <ele>46</ele>
        <time>2021-07-04 15:01:49</time>
      </trkpt>
      <trkpt lat="28.63495" lon="-14.02147">
        <ele>46</ele>
        <time>2021-07-04 15:01:50</time>
      </trkpt>
      <trkpt lat="28.63495" lon="-14.02144">
        <ele>46.4</ele>
        <time>2021-07-04 15:01:51</time>
      </trkpt>
      <trkpt lat="28.63494" lon="-14.02141">
        <ele>46.4</ele>
        <time>2021-07-04 15:01:52</time>
      </trkpt>
      <trkpt lat="28.63493" lon="-14.02138">
        <ele>46.6</ele>
        <time>2021-07-04 15:01:53</time>
      </trkpt>
      <trkpt lat="28.63492" lon="-14.02135">
        <ele>46.6</ele>
        <time>2021-07-04 15:01:54</time>
      </trkpt>
      <trkpt lat="28.63491" lon="-14.02132">
        <ele>46.6</ele>
        <time>2021-07-04 15:01:55</time>
      </trkpt>
      <trkpt lat="28.6349" lon="-14.02129">
        <ele>46.6</ele>
        <time>2021-07-04 15:01:56</time>
      </trkpt>
      <trkpt lat="28.63488" lon="-14.02126">
        <ele>46.6</ele>
        <time>2021-07-04 15:01:57</time>
      </trkpt>
      <trkpt lat="28.63487" lon="-14.02124">
        <ele>46.6</ele>
        <time>2021-07-04 15:01:58</time>
      </trkpt>
      <trkpt lat="28.63486" lon="-14.02121">
        <ele>46.6</ele>
        <time>2021-07-04 15:01:59</time>
      </trkpt>
      <trkpt lat="28.63484" lon="-14.02118">
        <ele>46.6</ele>
        <time>2021-07-04 15:02:00</time>
      </trkpt>
      <trkpt lat="28.63483" lon="-14.02115">
        <ele>46.2</ele>
        <time>2021-07-04 15:02:01</time>
      </trkpt>
      <trkpt lat="28.63481" lon="-14.02111">
        <ele>46.2</ele>
        <time>2021-07-04 15:02:02</time>
      </trkpt>
      <trkpt lat="28.6348" lon="-14.02108">
        <ele>46</ele>
        <time>2021-07-04 15:02:03</time>
      </trkpt>
      <trkpt lat="28.63479" lon="-14.02104">
        <ele>46</ele>
        <time>2021-07-04 15:02:04</time>
      </trkpt>
      <trkpt lat="28.63478" lon="-14.021">
        <ele>46</ele>
        <time>2021-07-04 15:02:05</time>
      </trkpt>
      <trkpt lat="28.63479" lon="-14.02097">
        <ele>46</ele>
        <time>2021-07-04 15:02:06</time>
      </trkpt>
      <trkpt lat="28.63479" lon="-14.02093">
        <ele>46</ele>
        <time>2021-07-04 15:02:07</time>
      </trkpt>
      <trkpt lat="28.63479" lon="-14.0209">
        <ele>46</ele>
        <time>2021-07-04 15:02:08</time>
      </trkpt>
      <trkpt lat="28.63479" lon="-14.02087">
        <ele>46.2</ele>
        <time>2021-07-04 15:02:09</time>
      </trkpt>
      <trkpt lat="28.6348" lon="-14.02083">
        <ele>46.2</ele>
        <time>2021-07-04 15:02:10</time>
      </trkpt>
      <trkpt lat="28.6348" lon="-14.0208">
        <ele>46.4</ele>
        <time>2021-07-04 15:02:11</time>
      </trkpt>
      <trkpt lat="28.6348" lon="-14.02076">
        <ele>46.4</ele>
        <time>2021-07-04 15:02:12</time>
      </trkpt>
      <trkpt lat="28.6348" lon="-14.02073">
        <ele>46.8</ele>
        <time>2021-07-04 15:02:13</time>
      </trkpt>
      <trkpt lat="28.6348" lon="-14.02069">
        <ele>46.8</ele>
        <time>2021-07-04 15:02:14</time>
      </trkpt>
      <trkpt lat="28.63481" lon="-14.02066">
        <ele>47</ele>
        <time>2021-07-04 15:02:15</time>
      </trkpt>
      <trkpt lat="28.63481" lon="-14.02062">
        <ele>47.4</ele>
        <time>2021-07-04 15:02:16</time>
      </trkpt>
      <trkpt lat="28.63482" lon="-14.02059">
        <ele>47.4</ele>
        <time>2021-07-04 15:02:17</time>
      </trkpt>
      <trkpt lat="28.63482" lon="-14.02055">
        <ele>47.8</ele>
        <time>2021-07-04 15:02:18</time>
      </trkpt>
      <trkpt lat="28.63482" lon="-14.02051">
        <ele>47.8</ele>
        <time>2021-07-04 15:02:19</time>
      </trkpt>
      <trkpt lat="28.63483" lon="-14.02048">
        <ele>48.2</ele>
        <time>2021-07-04 15:02:20</time>
      </trkpt>
      <trkpt lat="28.63483" lon="-14.02044">
        <ele>48.2</ele>
        <time>2021-07-04 15:02:21</time>
      </trkpt>
      <trkpt lat="28.63484" lon="-14.0204">
        <ele>48.2</ele>
        <time>2021-07-04 15:02:22</time>
      </trkpt>
      <trkpt lat="28.63484" lon="-14.02037">
        <ele>48.2</ele>
        <time>2021-07-04 15:02:23</time>
      </trkpt>
      <trkpt lat="28.63486" lon="-14.02034">
        <ele>48.2</ele>
        <time>2021-07-04 15:02:24</time>
      </trkpt>
      <trkpt lat="28.63487" lon="-14.0203">
        <ele>48.2</ele>
        <time>2021-07-04 15:02:25</time>
      </trkpt>
      <trkpt lat="28.63488" lon="-14.02027">
        <ele>48</ele>
        <time>2021-07-04 15:02:26</time>
      </trkpt>
      <trkpt lat="28.63489" lon="-14.02024">
        <ele>48</ele>
        <time>2021-07-04 15:02:27</time>
      </trkpt>
      <trkpt lat="28.63489" lon="-14.0202">
        <ele>48</ele>
        <time>2021-07-04 15:02:28</time>
      </trkpt>
      <trkpt lat="28.6349" lon="-14.02016">
        <ele>48</ele>
        <time>2021-07-04 15:02:29</time>
      </trkpt>
      <trkpt lat="28.6349" lon="-14.02012">
        <ele>48</ele>
        <time>2021-07-04 15:02:30</time>
      </trkpt>
      <trkpt lat="28.6349" lon="-14.02008">
        <ele>48.2</ele>
        <time>2021-07-04 15:02:31</time>
      </trkpt>
      <trkpt lat="28.63489" lon="-14.02004">
        <ele>48.2</ele>
        <time>2021-07-04 15:02:32</time>
      </trkpt>
      <trkpt lat="28.63489" lon="-14.02">
        <ele>48.2</ele>
        <time>2021-07-04 15:02:33</time>
      </trkpt>
      <trkpt lat="28.63488" lon="-14.01996">
        <ele>48.2</ele>
        <time>2021-07-04 15:02:34</time>
      </trkpt>
      <trkpt lat="28.63488" lon="-14.01992">
        <ele>48.2</ele>
        <time>2021-07-04 15:02:35</time>
      </trkpt>
      <trkpt lat="28.63487" lon="-14.01988">
        <ele>48.2</ele>
        <time>2021-07-04 15:02:36</time>
      </trkpt>
      <trkpt lat="28.63486" lon="-14.01984">
        <ele>48.2</ele>
        <time>2021-07-04 15:02:37</time>
      </trkpt>
      <trkpt lat="28.63485" lon="-14.01981">
        <ele>48.6</ele>
        <time>2021-07-04 15:02:38</time>
      </trkpt>
      <trkpt lat="28.63484" lon="-14.01977">
        <ele>48.6</ele>
        <time>2021-07-04 15:02:39</time>
      </trkpt>
      <trkpt lat="28.63483" lon="-14.01973">
        <ele>48.2</ele>
        <time>2021-07-04 15:02:40</time>
      </trkpt>
      <trkpt lat="28.63481" lon="-14.0197">
        <ele>48.2</ele>
        <time>2021-07-04 15:02:41</time>
      </trkpt>
      <trkpt lat="28.63479" lon="-14.01966">
        <ele>48</ele>
        <time>2021-07-04 15:02:42</time>
      </trkpt>
      <trkpt lat="28.63478" lon="-14.01962">
        <ele>48</ele>
        <time>2021-07-04 15:02:43</time>
      </trkpt>
      <trkpt lat="28.63477" lon="-14.01958">
        <ele>47.6</ele>
        <time>2021-07-04 15:02:44</time>
      </trkpt>
      <trkpt lat="28.63476" lon="-14.01954">
        <ele>47.6</ele>
        <time>2021-07-04 15:02:45</time>
      </trkpt>
      <trkpt lat="28.63477" lon="-14.0195">
        <ele>47.4</ele>
        <time>2021-07-04 15:02:46</time>
      </trkpt>
      <trkpt lat="28.63478" lon="-14.01945">
        <ele>47.4</ele>
        <time>2021-07-04 15:02:47</time>
      </trkpt>
      <trkpt lat="28.6348" lon="-14.01942">
        <ele>47.4</ele>
        <time>2021-07-04 15:02:48</time>
      </trkpt>
      <trkpt lat="28.63482" lon="-14.01939">
        <ele>47.4</ele>
        <time>2021-07-04 15:02:49</time>
      </trkpt>
      <trkpt lat="28.63483" lon="-14.01936">
        <ele>47.4</ele>
        <time>2021-07-04 15:02:50</time>
      </trkpt>
      <trkpt lat="28.63482" lon="-14.01934">
        <ele>47.4</ele>
        <time>2021-07-04 15:02:51</time>
      </trkpt>
      <trkpt lat="28.63481" lon="-14.01931">
        <ele>47.4</ele>
        <time>2021-07-04 15:02:52</time>
      </trkpt>
      <trkpt lat="28.63479" lon="-14.01928">
        <ele>47.2</ele>
        <time>2021-07-04 15:02:53</time>
      </trkpt>
      <trkpt lat="28.63478" lon="-14.01925">
        <ele>47.2</ele>
        <time>2021-07-04 15:02:54</time>
      </trkpt>
      <trkpt lat="28.63476" lon="-14.01922">
        <ele>47.2</ele>
        <time>2021-07-04 15:02:55</time>
      </trkpt>
      <trkpt lat="28.63474" lon="-14.0192">
        <ele>46.8</ele>
        <time>2021-07-04 15:02:56</time>
      </trkpt>
      <trkpt lat="28.63472" lon="-14.01917">
        <ele>46.8</ele>
        <time>2021-07-04 15:02:57</time>
      </trkpt>
      <trkpt lat="28.63471" lon="-14.01915">
        <ele>46.8</ele>
        <time>2021-07-04 15:02:58</time>
      </trkpt>
      <trkpt lat="28.6347" lon="-14.01911">
        <ele>46.8</ele>
        <time>2021-07-04 15:02:59</time>
      </trkpt>
      <trkpt lat="28.6347" lon="-14.01908">
        <ele>46.8</ele>
        <time>2021-07-04 15:03:00</time>
      </trkpt>
      <trkpt lat="28.63469" lon="-14.01905">
        <ele>46.8</ele>
        <time>2021-07-04 15:03:01</time>
      </trkpt>
      <trkpt lat="28.63469" lon="-14.01901">
        <ele>47.2</ele>
        <time>2021-07-04 15:03:02</time>
      </trkpt>
      <trkpt lat="28.63468" lon="-14.01898">
        <ele>47.2</ele>
        <time>2021-07-04 15:03:03</time>
      </trkpt>
      <trkpt lat="28.63469" lon="-14.01894">
        <ele>47.2</ele>
        <time>2021-07-04 15:03:04</time>
      </trkpt>
      <trkpt lat="28.63469" lon="-14.0189">
        <ele>47.4</ele>
        <time>2021-07-04 15:03:05</time>
      </trkpt>
      <trkpt lat="28.63469" lon="-14.01887">
        <ele>47.4</ele>
        <time>2021-07-04 15:03:06</time>
      </trkpt>
      <trkpt lat="28.63471" lon="-14.01884">
        <ele>47.6</ele>
        <time>2021-07-04 15:03:07</time>
      </trkpt>
      <trkpt lat="28.63472" lon="-14.01881">
        <ele>47.6</ele>
        <time>2021-07-04 15:03:08</time>
      </trkpt>
      <trkpt lat="28.63472" lon="-14.01878">
        <ele>48</ele>
        <time>2021-07-04 15:03:09</time>
      </trkpt>
      <trkpt lat="28.63472" lon="-14.01875">
        <ele>48.2</ele>
        <time>2021-07-04 15:03:10</time>
      </trkpt>
      <trkpt lat="28.63473" lon="-14.01872">
        <ele>48.2</ele>
        <time>2021-07-04 15:03:11</time>
      </trkpt>
      <trkpt lat="28.63473" lon="-14.01869">
        <ele>48.4</ele>
        <time>2021-07-04 15:03:12</time>
      </trkpt>
      <trkpt lat="28.63474" lon="-14.01866">
        <ele>48.4</ele>
        <time>2021-07-04 15:03:13</time>
      </trkpt>
      <trkpt lat="28.63475" lon="-14.01863">
        <ele>48.6</ele>
        <time>2021-07-04 15:03:14</time>
      </trkpt>
      <trkpt lat="28.63475" lon="-14.0186">
        <ele>48.6</ele>
        <time>2021-07-04 15:03:15</time>
      </trkpt>
      <trkpt lat="28.63476" lon="-14.01857">
        <ele>48.8</ele>
        <time>2021-07-04 15:03:16</time>
      </trkpt>
      <trkpt lat="28.63476" lon="-14.01853">
        <ele>48.8</ele>
        <time>2021-07-04 15:03:17</time>
      </trkpt>
      <trkpt lat="28.63477" lon="-14.0185">
        <ele>49.2</ele>
        <time>2021-07-04 15:03:18</time>
      </trkpt>
      <trkpt lat="28.63478" lon="-14.01846">
        <ele>49.2</ele>
        <time>2021-07-04 15:03:19</time>
      </trkpt>
      <trkpt lat="28.63478" lon="-14.01843">
        <ele>49.2</ele>
        <time>2021-07-04 15:03:20</time>
      </trkpt>
      <trkpt lat="28.63478" lon="-14.0184">
        <ele>49.2</ele>
        <time>2021-07-04 15:03:21</time>
      </trkpt>
      <trkpt lat="28.63477" lon="-14.01822">
        <ele>49.2</ele>
        <time>2021-07-04 15:03:22</time>
      </trkpt>
      <trkpt lat="28.63477" lon="-14.01818">
        <ele>49.2</ele>
        <time>2021-07-04 15:03:23</time>
      </trkpt>
      <trkpt lat="28.63476" lon="-14.01814">
        <ele>49.2</ele>
        <time>2021-07-04 15:03:24</time>
      </trkpt>
      <trkpt lat="28.63476" lon="-14.01811">
        <ele>49.2</ele>
        <time>2021-07-04 15:03:25</time>
      </trkpt>
      <trkpt lat="28.63475" lon="-14.01807">
        <ele>49.2</ele>
        <time>2021-07-04 15:03:26</time>
      </trkpt>
      <trkpt lat="28.63474" lon="-14.01803">
        <ele>49.4</ele>
        <time>2021-07-04 15:03:27</time>
      </trkpt>
      <trkpt lat="28.63474" lon="-14.01799">
        <ele>49.6</ele>
        <time>2021-07-04 15:03:28</time>
      </trkpt>
      <trkpt lat="28.63473" lon="-14.01795">
        <ele>49.6</ele>
        <time>2021-07-04 15:03:29</time>
      </trkpt>
      <trkpt lat="28.63473" lon="-14.01791">
        <ele>49.6</ele>
        <time>2021-07-04 15:03:30</time>
      </trkpt>
      <trkpt lat="28.63473" lon="-14.01787">
        <ele>49.6</ele>
        <time>2021-07-04 15:03:31</time>
      </trkpt>
      <trkpt lat="28.63473" lon="-14.01783">
        <ele>49.8</ele>
        <time>2021-07-04 15:03:32</time>
      </trkpt>
      <trkpt lat="28.63473" lon="-14.01779">
        <ele>49.8</ele>
        <time>2021-07-04 15:03:33</time>
      </trkpt>
      <trkpt lat="28.63473" lon="-14.01775">
        <ele>50.2</ele>
        <time>2021-07-04 15:03:34</time>
      </trkpt>
      <trkpt lat="28.63473" lon="-14.01771">
        <ele>50.2</ele>
        <time>2021-07-04 15:03:35</time>
      </trkpt>
      <trkpt lat="28.63473" lon="-14.01767">
        <ele>50.6</ele>
        <time>2021-07-04 15:03:36</time>
      </trkpt>
      <trkpt lat="28.63473" lon="-14.01763">
        <ele>50.8</ele>
        <time>2021-07-04 15:03:37</time>
      </trkpt>
      <trkpt lat="28.63474" lon="-14.01758">
        <ele>50.8</ele>
        <time>2021-07-04 15:03:38</time>
      </trkpt>
      <trkpt lat="28.63474" lon="-14.01754">
        <ele>51.2</ele>
        <time>2021-07-04 15:03:39</time>
      </trkpt>
      <trkpt lat="28.63475" lon="-14.0175">
        <ele>51.4</ele>
        <time>2021-07-04 15:03:40</time>
      </trkpt>
      <trkpt lat="28.63475" lon="-14.01746">
        <ele>51.4</ele>
        <time>2021-07-04 15:03:41</time>
      </trkpt>
      <trkpt lat="28.63476" lon="-14.01741">
        <ele>51.6</ele>
        <time>2021-07-04 15:03:42</time>
      </trkpt>
      <trkpt lat="28.63476" lon="-14.01737">
        <ele>51.8</ele>
        <time>2021-07-04 15:03:43</time>
      </trkpt>
      <trkpt lat="28.63476" lon="-14.01733">
        <ele>51.8</ele>
        <time>2021-07-04 15:03:44</time>
      </trkpt>
      <trkpt lat="28.63476" lon="-14.01729">
        <ele>51.8</ele>
        <time>2021-07-04 15:03:45</time>
      </trkpt>
      <trkpt lat="28.63476" lon="-14.01725">
        <ele>51.8</ele>
        <time>2021-07-04 15:03:46</time>
      </trkpt>
      <trkpt lat="28.63476" lon="-14.01721">
        <ele>51.8</ele>
        <time>2021-07-04 15:03:47</time>
      </trkpt>
      <trkpt lat="28.63476" lon="-14.01717">
        <ele>51.8</ele>
        <time>2021-07-04 15:03:48</time>
      </trkpt>
      <trkpt lat="28.63476" lon="-14.01713">
        <ele>51.8</ele>
        <time>2021-07-04 15:03:49</time>
      </trkpt>
      <trkpt lat="28.63476" lon="-14.01709">
        <ele>51.8</ele>
        <time>2021-07-04 15:03:50</time>
      </trkpt>
      <trkpt lat="28.63475" lon="-14.01705">
        <ele>51.6</ele>
        <time>2021-07-04 15:03:51</time>
      </trkpt>
      <trkpt lat="28.63476" lon="-14.01701">
        <ele>51.6</ele>
        <time>2021-07-04 15:03:52</time>
      </trkpt>
      <trkpt lat="28.63476" lon="-14.01698">
        <ele>51.6</ele>
        <time>2021-07-04 15:03:53</time>
      </trkpt>
      <trkpt lat="28.63476" lon="-14.01694">
        <ele>51.6</ele>
        <time>2021-07-04 15:03:54</time>
      </trkpt>
      <trkpt lat="28.63476" lon="-14.01691">
        <ele>51.6</ele>
        <time>2021-07-04 15:03:55</time>
      </trkpt>
      <trkpt lat="28.63476" lon="-14.01687">
        <ele>51.6</ele>
        <time>2021-07-04 15:03:56</time>
      </trkpt>
      <trkpt lat="28.63475" lon="-14.01683">
        <ele>51.2</ele>
        <time>2021-07-04 15:03:57</time>
      </trkpt>
      <trkpt lat="28.63475" lon="-14.01679">
        <ele>51</ele>
        <time>2021-07-04 15:03:58</time>
      </trkpt>
      <trkpt lat="28.63475" lon="-14.01675">
        <ele>51</ele>
        <time>2021-07-04 15:03:59</time>
      </trkpt>
      <trkpt lat="28.63475" lon="-14.01671">
        <ele>51</ele>
        <time>2021-07-04 15:04:00</time>
      </trkpt>
      <trkpt lat="28.63475" lon="-14.01668">
        <ele>50.8</ele>
        <time>2021-07-04 15:04:01</time>
      </trkpt>
      <trkpt lat="28.63474" lon="-14.01657">
        <ele>50.8</ele>
        <time>2021-07-04 15:04:02</time>
      </trkpt>
      <trkpt lat="28.63474" lon="-14.01653">
        <ele>50.6</ele>
        <time>2021-07-04 15:04:03</time>
      </trkpt>
      <trkpt lat="28.63474" lon="-14.0165">
        <ele>50.6</ele>
        <time>2021-07-04 15:04:04</time>
      </trkpt>
      <trkpt lat="28.63474" lon="-14.01646">
        <ele>50.6</ele>
        <time>2021-07-04 15:04:05</time>
      </trkpt>
      <trkpt lat="28.63473" lon="-14.01643">
        <ele>50.6</ele>
        <time>2021-07-04 15:04:06</time>
      </trkpt>
      <trkpt lat="28.63472" lon="-14.0164">
        <ele>50.6</ele>
        <time>2021-07-04 15:04:07</time>
      </trkpt>
      <trkpt lat="28.63471" lon="-14.01636">
        <ele>50.6</ele>
        <time>2021-07-04 15:04:08</time>
      </trkpt>
      <trkpt lat="28.63471" lon="-14.01633">
        <ele>50.6</ele>
        <time>2021-07-04 15:04:09</time>
      </trkpt>
      <trkpt lat="28.6347" lon="-14.01629">
        <ele>50.8</ele>
        <time>2021-07-04 15:04:10</time>
      </trkpt>
      <trkpt lat="28.6347" lon="-14.01625">
        <ele>50.8</ele>
        <time>2021-07-04 15:04:11</time>
      </trkpt>
      <trkpt lat="28.63469" lon="-14.01622">
        <ele>50.6</ele>
        <time>2021-07-04 15:04:12</time>
      </trkpt>
      <trkpt lat="28.63469" lon="-14.01618">
        <ele>50.6</ele>
        <time>2021-07-04 15:04:13</time>
      </trkpt>
      <trkpt lat="28.63468" lon="-14.01614">
        <ele>50.6</ele>
        <time>2021-07-04 15:04:14</time>
      </trkpt>
      <trkpt lat="28.63468" lon="-14.0161">
        <ele>50.6</ele>
        <time>2021-07-04 15:04:15</time>
      </trkpt>
      <trkpt lat="28.63468" lon="-14.01607">
        <ele>50.6</ele>
        <time>2021-07-04 15:04:16</time>
      </trkpt>
      <trkpt lat="28.63468" lon="-14.01603">
        <ele>50.6</ele>
        <time>2021-07-04 15:04:17</time>
      </trkpt>
      <trkpt lat="28.63468" lon="-14.016">
        <ele>50.8</ele>
        <time>2021-07-04 15:04:18</time>
      </trkpt>
      <trkpt lat="28.63468" lon="-14.01597">
        <ele>50.8</ele>
        <time>2021-07-04 15:04:19</time>
      </trkpt>
      <trkpt lat="28.63467" lon="-14.01594">
        <ele>51.2</ele>
        <time>2021-07-04 15:04:20</time>
      </trkpt>
      <trkpt lat="28.63467" lon="-14.0159">
        <ele>51.2</ele>
        <time>2021-07-04 15:04:21</time>
      </trkpt>
      <trkpt lat="28.63467" lon="-14.01587">
        <ele>51.4</ele>
        <time>2021-07-04 15:04:22</time>
      </trkpt>
      <trkpt lat="28.63467" lon="-14.01583">
        <ele>51.4</ele>
        <time>2021-07-04 15:04:23</time>
      </trkpt>
      <trkpt lat="28.63466" lon="-14.0158">
        <ele>51.8</ele>
        <time>2021-07-04 15:04:24</time>
      </trkpt>
      <trkpt lat="28.63466" lon="-14.01576">
        <ele>51.8</ele>
        <time>2021-07-04 15:04:25</time>
      </trkpt>
      <trkpt lat="28.63465" lon="-14.01573">
        <ele>52</ele>
        <time>2021-07-04 15:04:26</time>
      </trkpt>
      <trkpt lat="28.63465" lon="-14.01569">
        <ele>52</ele>
        <time>2021-07-04 15:04:27</time>
      </trkpt>
      <trkpt lat="28.63464" lon="-14.01565">
        <ele>52</ele>
        <time>2021-07-04 15:04:28</time>
      </trkpt>
      <trkpt lat="28.63464" lon="-14.01561">
        <ele>52</ele>
        <time>2021-07-04 15:04:29</time>
      </trkpt>
      <trkpt lat="28.63463" lon="-14.01558">
        <ele>52</ele>
        <time>2021-07-04 15:04:30</time>
      </trkpt>
      <trkpt lat="28.63463" lon="-14.01554">
        <ele>52</ele>
        <time>2021-07-04 15:04:31</time>
      </trkpt>
      <trkpt lat="28.63463" lon="-14.0155">
        <ele>52</ele>
        <time>2021-07-04 15:04:32</time>
      </trkpt>
      <trkpt lat="28.63463" lon="-14.01546">
        <ele>51.8</ele>
        <time>2021-07-04 15:04:33</time>
      </trkpt>
      <trkpt lat="28.63463" lon="-14.01542">
        <ele>51.8</ele>
        <time>2021-07-04 15:04:34</time>
      </trkpt>
      <trkpt lat="28.63463" lon="-14.01538">
        <ele>51.8</ele>
        <time>2021-07-04 15:04:35</time>
      </trkpt>
      <trkpt lat="28.63464" lon="-14.01534">
        <ele>51.8</ele>
        <time>2021-07-04 15:04:36</time>
      </trkpt>
      <trkpt lat="28.63464" lon="-14.0153">
        <ele>51.8</ele>
        <time>2021-07-04 15:04:37</time>
      </trkpt>
      <trkpt lat="28.63464" lon="-14.01526">
        <ele>51.8</ele>
        <time>2021-07-04 15:04:38</time>
      </trkpt>
      <trkpt lat="28.63464" lon="-14.01522">
        <ele>52</ele>
        <time>2021-07-04 15:04:39</time>
      </trkpt>
      <trkpt lat="28.63464" lon="-14.01518">
        <ele>52</ele>
        <time>2021-07-04 15:04:40</time>
      </trkpt>
      <trkpt lat="28.63463" lon="-14.01514">
        <ele>52.2</ele>
        <time>2021-07-04 15:04:41</time>
      </trkpt>
      <trkpt lat="28.63463" lon="-14.0151">
        <ele>52.2</ele>
        <time>2021-07-04 15:04:42</time>
      </trkpt>
      <trkpt lat="28.63462" lon="-14.01506">
        <ele>52.6</ele>
        <time>2021-07-04 15:04:43</time>
      </trkpt>
      <trkpt lat="28.63462" lon="-14.01502">
        <ele>52.6</ele>
        <time>2021-07-04 15:04:44</time>
      </trkpt>
      <trkpt lat="28.63462" lon="-14.01497">
        <ele>52.6</ele>
        <time>2021-07-04 15:04:45</time>
      </trkpt>
      <trkpt lat="28.63462" lon="-14.01493">
        <ele>52.6</ele>
        <time>2021-07-04 15:04:46</time>
      </trkpt>
      <trkpt lat="28.63463" lon="-14.0149">
        <ele>52.8</ele>
        <time>2021-07-04 15:04:47</time>
      </trkpt>
      <trkpt lat="28.63463" lon="-14.01486">
        <ele>52.8</ele>
        <time>2021-07-04 15:04:48</time>
      </trkpt>
      <trkpt lat="28.63464" lon="-14.01483">
        <ele>52.8</ele>
        <time>2021-07-04 15:04:49</time>
      </trkpt>
      <trkpt lat="28.63464" lon="-14.01481">
        <ele>52.8</ele>
        <time>2021-07-04 15:04:50</time>
      </trkpt>
      <trkpt lat="28.63465" lon="-14.01479">
        <ele>52.8</ele>
        <time>2021-07-04 15:04:51</time>
      </trkpt>
      <trkpt lat="28.63465" lon="-14.01479">
        <ele>52.8</ele>
        <time>2021-07-04 15:04:52</time>
      </trkpt>
      <trkpt lat="28.63465" lon="-14.01479">
        <ele>52.8</ele>
        <time>2021-07-04 15:04:53</time>
      </trkpt>
      <trkpt lat="28.63465" lon="-14.01479">
        <ele>53</ele>
        <time>2021-07-04 15:04:54</time>
      </trkpt>
      <trkpt lat="28.63465" lon="-14.01478">
        <ele>54</ele>
        <time>2021-07-04 15:04:55</time>
      </trkpt>
      <trkpt lat="28.63466" lon="-14.01476">
        <ele>54</ele>
        <time>2021-07-04 15:04:56</time>
      </trkpt>
      <trkpt lat="28.63466" lon="-14.01474">
        <ele>54</ele>
        <time>2021-07-04 15:04:57</time>
      </trkpt>
      <trkpt lat="28.63467" lon="-14.01472">
        <ele>53.8</ele>
        <time>2021-07-04 15:04:58</time>
      </trkpt>
      <trkpt lat="28.63468" lon="-14.01469">
        <ele>53.4</ele>
        <time>2021-07-04 15:04:59</time>
      </trkpt>
      <trkpt lat="28.63469" lon="-14.01466">
        <ele>53</ele>
        <time>2021-07-04 15:05:00</time>
      </trkpt>
      <trkpt lat="28.6347" lon="-14.01463">
        <ele>52.6</ele>
        <time>2021-07-04 15:05:01</time>
      </trkpt>
      <trkpt lat="28.63471" lon="-14.01461">
        <ele>52.4</ele>
        <time>2021-07-04 15:05:02</time>
      </trkpt>
      <trkpt lat="28.63472" lon="-14.01458">
        <ele>52.4</ele>
        <time>2021-07-04 15:05:03</time>
      </trkpt>
      <trkpt lat="28.63474" lon="-14.01456">
        <ele>52.4</ele>
        <time>2021-07-04 15:05:04</time>
      </trkpt>
      <trkpt lat="28.63475" lon="-14.01453">
        <ele>52.4</ele>
        <time>2021-07-04 15:05:05</time>
      </trkpt>
      <trkpt lat="28.63478" lon="-14.01451">
        <ele>52.4</ele>
        <time>2021-07-04 15:05:06</time>
      </trkpt>
      <trkpt lat="28.6348" lon="-14.01448">
        <ele>52.4</ele>
        <time>2021-07-04 15:05:07</time>
      </trkpt>
      <trkpt lat="28.63482" lon="-14.01446">
        <ele>52.4</ele>
        <time>2021-07-04 15:05:08</time>
      </trkpt>
      <trkpt lat="28.63484" lon="-14.01443">
        <ele>52.8</ele>
        <time>2021-07-04 15:05:09</time>
      </trkpt>
      <trkpt lat="28.63485" lon="-14.0144">
        <ele>52.8</ele>
        <time>2021-07-04 15:05:10</time>
      </trkpt>
      <trkpt lat="28.63486" lon="-14.01438">
        <ele>53</ele>
        <time>2021-07-04 15:05:11</time>
      </trkpt>
      <trkpt lat="28.63487" lon="-14.01435">
        <ele>53</ele>
        <time>2021-07-04 15:05:12</time>
      </trkpt>
      <trkpt lat="28.63487" lon="-14.01432">
        <ele>53</ele>
        <time>2021-07-04 15:05:13</time>
      </trkpt>
      <trkpt lat="28.63488" lon="-14.01429">
        <ele>53</ele>
        <time>2021-07-04 15:05:14</time>
      </trkpt>
      <trkpt lat="28.63488" lon="-14.01427">
        <ele>53.2</ele>
        <time>2021-07-04 15:05:15</time>
      </trkpt>
      <trkpt lat="28.63489" lon="-14.01425">
        <ele>53.2</ele>
        <time>2021-07-04 15:05:16</time>
      </trkpt>
      <trkpt lat="28.6349" lon="-14.01422">
        <ele>53.4</ele>
        <time>2021-07-04 15:05:17</time>
      </trkpt>
      <trkpt lat="28.6349" lon="-14.0142">
        <ele>53.4</ele>
        <time>2021-07-04 15:05:18</time>
      </trkpt>
      <trkpt lat="28.6349" lon="-14.01417">
        <ele>53.4</ele>
        <time>2021-07-04 15:05:19</time>
      </trkpt>
      <trkpt lat="28.6349" lon="-14.01415">
        <ele>53.4</ele>
        <time>2021-07-04 15:05:20</time>
      </trkpt>
      <trkpt lat="28.6349" lon="-14.01412">
        <ele>53.8</ele>
        <time>2021-07-04 15:05:21</time>
      </trkpt>
      <trkpt lat="28.63489" lon="-14.0141">
        <ele>53.8</ele>
        <time>2021-07-04 15:05:22</time>
      </trkpt>
      <trkpt lat="28.63488" lon="-14.01407">
        <ele>53.8</ele>
        <time>2021-07-04 15:05:23</time>
      </trkpt>
      <trkpt lat="28.63487" lon="-14.01405">
        <ele>53.8</ele>
        <time>2021-07-04 15:05:24</time>
      </trkpt>
      <trkpt lat="28.63486" lon="-14.01402">
        <ele>53.8</ele>
        <time>2021-07-04 15:05:25</time>
      </trkpt>
      <trkpt lat="28.63486" lon="-14.01399">
        <ele>53.8</ele>
        <time>2021-07-04 15:05:26</time>
      </trkpt>
      <trkpt lat="28.63485" lon="-14.01396">
        <ele>54</ele>
        <time>2021-07-04 15:05:27</time>
      </trkpt>
      <trkpt lat="28.63485" lon="-14.01393">
        <ele>54</ele>
        <time>2021-07-04 15:05:28</time>
      </trkpt>
      <trkpt lat="28.63484" lon="-14.0139">
        <ele>54</ele>
        <time>2021-07-04 15:05:29</time>
      </trkpt>
      <trkpt lat="28.63484" lon="-14.01387">
        <ele>54.2</ele>
        <time>2021-07-04 15:05:30</time>
      </trkpt>
      <trkpt lat="28.63483" lon="-14.01384">
        <ele>54.2</ele>
        <time>2021-07-04 15:05:31</time>
      </trkpt>
      <trkpt lat="28.63483" lon="-14.0138">
        <ele>54.6</ele>
        <time>2021-07-04 15:05:32</time>
      </trkpt>
      <trkpt lat="28.63484" lon="-14.01377">
        <ele>54.6</ele>
        <time>2021-07-04 15:05:33</time>
      </trkpt>
      <trkpt lat="28.63484" lon="-14.01374">
        <ele>54.6</ele>
        <time>2021-07-04 15:05:34</time>
      </trkpt>
      <trkpt lat="28.63485" lon="-14.01371">
        <ele>54.8</ele>
        <time>2021-07-04 15:05:35</time>
      </trkpt>
      <trkpt lat="28.63486" lon="-14.01367">
        <ele>54.8</ele>
        <time>2021-07-04 15:05:36</time>
      </trkpt>
      <trkpt lat="28.63486" lon="-14.01364">
        <ele>55</ele>
        <time>2021-07-04 15:05:37</time>
      </trkpt>
      <trkpt lat="28.63486" lon="-14.01361">
        <ele>55.4</ele>
        <time>2021-07-04 15:05:38</time>
      </trkpt>
      <trkpt lat="28.63487" lon="-14.01359">
        <ele>55.6</ele>
        <time>2021-07-04 15:05:39</time>
      </trkpt>
      <trkpt lat="28.63489" lon="-14.01356">
        <ele>55.8</ele>
        <time>2021-07-04 15:05:40</time>
      </trkpt>
      <trkpt lat="28.63491" lon="-14.01354">
        <ele>55.8</ele>
        <time>2021-07-04 15:05:41</time>
      </trkpt>
      <trkpt lat="28.63493" lon="-14.01352">
        <ele>55.8</ele>
        <time>2021-07-04 15:05:42</time>
      </trkpt>
      <trkpt lat="28.63495" lon="-14.0135">
        <ele>56.2</ele>
        <time>2021-07-04 15:05:43</time>
      </trkpt>
      <trkpt lat="28.63497" lon="-14.01348">
        <ele>56.2</ele>
        <time>2021-07-04 15:05:44</time>
      </trkpt>
      <trkpt lat="28.63499" lon="-14.01346">
        <ele>56.4</ele>
        <time>2021-07-04 15:05:45</time>
      </trkpt>
      <trkpt lat="28.63501" lon="-14.01344">
        <ele>56.4</ele>
        <time>2021-07-04 15:05:46</time>
      </trkpt>
      <trkpt lat="28.63503" lon="-14.01342">
        <ele>56.4</ele>
        <time>2021-07-04 15:05:47</time>
      </trkpt>
      <trkpt lat="28.63506" lon="-14.0134">
        <ele>56.4</ele>
        <time>2021-07-04 15:05:48</time>
      </trkpt>
      <trkpt lat="28.63507" lon="-14.01338">
        <ele>56.4</ele>
        <time>2021-07-04 15:05:49</time>
      </trkpt>
      <trkpt lat="28.63509" lon="-14.01335">
        <ele>56.4</ele>
        <time>2021-07-04 15:05:50</time>
      </trkpt>
      <trkpt lat="28.6351" lon="-14.01332">
        <ele>56.4</ele>
        <time>2021-07-04 15:05:51</time>
      </trkpt>
      <trkpt lat="28.63512" lon="-14.01328">
        <ele>56.4</ele>
        <time>2021-07-04 15:05:52</time>
      </trkpt>
      <trkpt lat="28.63513" lon="-14.01325">
        <ele>56.4</ele>
        <time>2021-07-04 15:05:53</time>
      </trkpt>
      <trkpt lat="28.63514" lon="-14.01321">
        <ele>56.4</ele>
        <time>2021-07-04 15:05:54</time>
      </trkpt>
      <trkpt lat="28.63514" lon="-14.01318">
        <ele>56.6</ele>
        <time>2021-07-04 15:06:34</time>
      </trkpt>
      <trkpt lat="28.63514" lon="-14.01314">
        <ele>56.6</ele>
        <time>2021-07-04 15:06:35</time>
      </trkpt>
      <trkpt lat="28.63513" lon="-14.01311">
        <ele>56.6</ele>
        <time>2021-07-04 15:06:36</time>
      </trkpt>
      <trkpt lat="28.63512" lon="-14.01307">
        <ele>56.6</ele>
        <time>2021-07-04 15:06:37</time>
      </trkpt>
      <trkpt lat="28.63511" lon="-14.01304">
        <ele>56.4</ele>
        <time>2021-07-04 15:06:38</time>
      </trkpt>
      <trkpt lat="28.63509" lon="-14.01301">
        <ele>56.4</ele>
        <time>2021-07-04 15:06:39</time>
      </trkpt>
      <trkpt lat="28.63509" lon="-14.01297">
        <ele>56.4</ele>
        <time>2021-07-04 15:06:40</time>
      </trkpt>
      <trkpt lat="28.63508" lon="-14.01294">
        <ele>56.4</ele>
        <time>2021-07-04 15:06:41</time>
      </trkpt>
      <trkpt lat="28.63509" lon="-14.0129">
        <ele>56.4</ele>
        <time>2021-07-04 15:06:42</time>
      </trkpt>
      <trkpt lat="28.63509" lon="-14.01287">
        <ele>56.4</ele>
        <time>2021-07-04 15:06:43</time>
      </trkpt>
      <trkpt lat="28.6351" lon="-14.01283">
        <ele>56.4</ele>
        <time>2021-07-04 15:06:44</time>
      </trkpt>
      <trkpt lat="28.6351" lon="-14.01279">
        <ele>56.4</ele>
        <time>2021-07-04 15:06:45</time>
      </trkpt>
      <trkpt lat="28.6351" lon="-14.01276">
        <ele>56.4</ele>
        <time>2021-07-04 15:06:46</time>
      </trkpt>
      <trkpt lat="28.6351" lon="-14.01272">
        <ele>56.4</ele>
        <time>2021-07-04 15:06:47</time>
      </trkpt>
      <trkpt lat="28.6351" lon="-14.01269">
        <ele>56.4</ele>
        <time>2021-07-04 15:06:48</time>
      </trkpt>
      <trkpt lat="28.6351" lon="-14.01265">
        <ele>56.4</ele>
        <time>2021-07-04 15:06:49</time>
      </trkpt>
      <trkpt lat="28.63511" lon="-14.01261">
        <ele>56.4</ele>
        <time>2021-07-04 15:06:50</time>
      </trkpt>
      <trkpt lat="28.63511" lon="-14.01257">
        <ele>56.2</ele>
        <time>2021-07-04 15:06:51</time>
      </trkpt>
      <trkpt lat="28.63512" lon="-14.01254">
        <ele>56.2</ele>
        <time>2021-07-04 15:06:52</time>
      </trkpt>
      <trkpt lat="28.63512" lon="-14.0125">
        <ele>56</ele>
        <time>2021-07-04 15:06:53</time>
      </trkpt>
      <trkpt lat="28.63512" lon="-14.01246">
        <ele>56</ele>
        <time>2021-07-04 15:06:54</time>
      </trkpt>
      <trkpt lat="28.63512" lon="-14.01241">
        <ele>55.6</ele>
        <time>2021-07-04 15:06:55</time>
      </trkpt>
      <trkpt lat="28.63513" lon="-14.01237">
        <ele>55.6</ele>
        <time>2021-07-04 15:06:56</time>
      </trkpt>
      <trkpt lat="28.63514" lon="-14.01234">
        <ele>55.2</ele>
        <time>2021-07-04 15:06:57</time>
      </trkpt>
      <trkpt lat="28.63514" lon="-14.0123">
        <ele>55.2</ele>
        <time>2021-07-04 15:06:58</time>
      </trkpt>
      <trkpt lat="28.63515" lon="-14.01226">
        <ele>55.2</ele>
        <time>2021-07-04 15:06:59</time>
      </trkpt>
      <trkpt lat="28.63516" lon="-14.01223">
        <ele>55.2</ele>
        <time>2021-07-04 15:07:00</time>
      </trkpt>
      <trkpt lat="28.63518" lon="-14.01219">
        <ele>55.2</ele>
        <time>2021-07-04 15:07:01</time>
      </trkpt>
      <trkpt lat="28.63519" lon="-14.01217">
        <ele>55.2</ele>
        <time>2021-07-04 15:07:02</time>
      </trkpt>
      <trkpt lat="28.63521" lon="-14.01214">
        <ele>55.2</ele>
        <time>2021-07-04 15:07:03</time>
      </trkpt>
      <trkpt lat="28.63522" lon="-14.01211">
        <ele>55.2</ele>
        <time>2021-07-04 15:07:04</time>
      </trkpt>
      <trkpt lat="28.63524" lon="-14.01209">
        <ele>55.2</ele>
        <time>2021-07-04 15:07:05</time>
      </trkpt>
      <trkpt lat="28.63525" lon="-14.01206">
        <ele>55.6</ele>
        <time>2021-07-04 15:07:06</time>
      </trkpt>
      <trkpt lat="28.63526" lon="-14.01204">
        <ele>55.6</ele>
        <time>2021-07-04 15:07:07</time>
      </trkpt>
      <trkpt lat="28.63528" lon="-14.01201">
        <ele>55.6</ele>
        <time>2021-07-04 15:07:08</time>
      </trkpt>
      <trkpt lat="28.63529" lon="-14.01199">
        <ele>55.6</ele>
        <time>2021-07-04 15:07:09</time>
      </trkpt>
      <trkpt lat="28.6353" lon="-14.01196">
        <ele>55.6</ele>
        <time>2021-07-04 15:07:10</time>
      </trkpt>
      <trkpt lat="28.63531" lon="-14.01193">
        <ele>55.6</ele>
        <time>2021-07-04 15:07:11</time>
      </trkpt>
      <trkpt lat="28.63531" lon="-14.0119">
        <ele>55.6</ele>
        <time>2021-07-04 15:07:12</time>
      </trkpt>
      <trkpt lat="28.63532" lon="-14.01187">
        <ele>55.6</ele>
        <time>2021-07-04 15:07:13</time>
      </trkpt>
      <trkpt lat="28.63533" lon="-14.01184">
        <ele>55.6</ele>
        <time>2021-07-04 15:07:14</time>
      </trkpt>
      <trkpt lat="28.63533" lon="-14.01181">
        <ele>55.6</ele>
        <time>2021-07-04 15:07:15</time>
      </trkpt>
      <trkpt lat="28.63533" lon="-14.01178">
        <ele>55.6</ele>
        <time>2021-07-04 15:07:16</time>
      </trkpt>
      <trkpt lat="28.63534" lon="-14.01174">
        <ele>55.6</ele>
        <time>2021-07-04 15:07:17</time>
      </trkpt>
      <trkpt lat="28.63534" lon="-14.01171">
        <ele>55.6</ele>
        <time>2021-07-04 15:07:18</time>
      </trkpt>
      <trkpt lat="28.63535" lon="-14.01168">
        <ele>55.6</ele>
        <time>2021-07-04 15:07:19</time>
      </trkpt>
      <trkpt lat="28.63536" lon="-14.01165">
        <ele>55.6</ele>
        <time>2021-07-04 15:07:20</time>
      </trkpt>
      <trkpt lat="28.63537" lon="-14.01162">
        <ele>55.6</ele>
        <time>2021-07-04 15:07:21</time>
      </trkpt>
      <trkpt lat="28.63538" lon="-14.01159">
        <ele>55.8</ele>
        <time>2021-07-04 15:07:22</time>
      </trkpt>
      <trkpt lat="28.63538" lon="-14.01156">
        <ele>55.8</ele>
        <time>2021-07-04 15:07:23</time>
      </trkpt>
      <trkpt lat="28.63539" lon="-14.01153">
        <ele>55.8</ele>
        <time>2021-07-04 15:07:24</time>
      </trkpt>
      <trkpt lat="28.6354" lon="-14.0115">
        <ele>55.8</ele>
        <time>2021-07-04 15:07:25</time>
      </trkpt>
      <trkpt lat="28.63541" lon="-14.01147">
        <ele>55.8</ele>
        <time>2021-07-04 15:07:26</time>
      </trkpt>
      <trkpt lat="28.63543" lon="-14.01144">
        <ele>56</ele>
        <time>2021-07-04 15:07:27</time>
      </trkpt>
      <trkpt lat="28.63544" lon="-14.01141">
        <ele>56</ele>
        <time>2021-07-04 15:07:28</time>
      </trkpt>
      <trkpt lat="28.63545" lon="-14.01138">
        <ele>56.2</ele>
        <time>2021-07-04 15:07:29</time>
      </trkpt>
      <trkpt lat="28.63546" lon="-14.01135">
        <ele>56.2</ele>
        <time>2021-07-04 15:07:30</time>
      </trkpt>
      <trkpt lat="28.63547" lon="-14.01132">
        <ele>56.2</ele>
        <time>2021-07-04 15:07:31</time>
      </trkpt>
      <trkpt lat="28.63548" lon="-14.01129">
        <ele>56.2</ele>
        <time>2021-07-04 15:07:32</time>
      </trkpt>
      <trkpt lat="28.6355" lon="-14.01125">
        <ele>56.6</ele>
        <time>2021-07-04 15:07:33</time>
      </trkpt>
      <trkpt lat="28.63551" lon="-14.01122">
        <ele>56.6</ele>
        <time>2021-07-04 15:07:34</time>
      </trkpt>
      <trkpt lat="28.63552" lon="-14.01119">
        <ele>56.6</ele>
        <time>2021-07-04 15:07:35</time>
      </trkpt>
      <trkpt lat="28.63553" lon="-14.01115">
        <ele>56.6</ele>
        <time>2021-07-04 15:07:36</time>
      </trkpt>
      <trkpt lat="28.63554" lon="-14.01112">
        <ele>56.6</ele>
        <time>2021-07-04 15:07:37</time>
      </trkpt>
      <trkpt lat="28.63555" lon="-14.01109">
        <ele>56.2</ele>
        <time>2021-07-04 15:07:38</time>
      </trkpt>
      <trkpt lat="28.63556" lon="-14.01106">
        <ele>56.2</ele>
        <time>2021-07-04 15:07:39</time>
      </trkpt>
      <trkpt lat="28.63557" lon="-14.01102">
        <ele>56.2</ele>
        <time>2021-07-04 15:07:40</time>
      </trkpt>
      <trkpt lat="28.63558" lon="-14.01099">
        <ele>56.2</ele>
        <time>2021-07-04 15:07:41</time>
      </trkpt>
      <trkpt lat="28.63559" lon="-14.01095">
        <ele>56.2</ele>
        <time>2021-07-04 15:07:42</time>
      </trkpt>
      <trkpt lat="28.6356" lon="-14.01092">
        <ele>56.2</ele>
        <time>2021-07-04 15:07:43</time>
      </trkpt>
      <trkpt lat="28.63561" lon="-14.01089">
        <ele>56.2</ele>
        <time>2021-07-04 15:07:44</time>
      </trkpt>
      <trkpt lat="28.63562" lon="-14.01085">
        <ele>56.2</ele>
        <time>2021-07-04 15:07:45</time>
      </trkpt>
      <trkpt lat="28.63562" lon="-14.01082">
        <ele>56.2</ele>
        <time>2021-07-04 15:07:46</time>
      </trkpt>
      <trkpt lat="28.63563" lon="-14.01079">
        <ele>56.2</ele>
        <time>2021-07-04 15:07:47</time>
      </trkpt>
      <trkpt lat="28.63564" lon="-14.01076">
        <ele>56.2</ele>
        <time>2021-07-04 15:07:48</time>
      </trkpt>
      <trkpt lat="28.63566" lon="-14.01072">
        <ele>56.6</ele>
        <time>2021-07-04 15:07:49</time>
      </trkpt>
      <trkpt lat="28.63567" lon="-14.01069">
        <ele>56.6</ele>
        <time>2021-07-04 15:07:50</time>
      </trkpt>
      <trkpt lat="28.63568" lon="-14.01065">
        <ele>56.6</ele>
        <time>2021-07-04 15:07:51</time>
      </trkpt>
      <trkpt lat="28.63569" lon="-14.01061">
        <ele>56.6</ele>
        <time>2021-07-04 15:07:52</time>
      </trkpt>
      <trkpt lat="28.6357" lon="-14.01058">
        <ele>56.6</ele>
        <time>2021-07-04 15:07:53</time>
      </trkpt>
      <trkpt lat="28.63571" lon="-14.01054">
        <ele>56.6</ele>
        <time>2021-07-04 15:07:54</time>
      </trkpt>
      <trkpt lat="28.63572" lon="-14.0105">
        <ele>56.6</ele>
        <time>2021-07-04 15:07:55</time>
      </trkpt>
      <trkpt lat="28.63574" lon="-14.01047">
        <ele>56.6</ele>
        <time>2021-07-04 15:07:56</time>
      </trkpt>
      <trkpt lat="28.63575" lon="-14.01043">
        <ele>56.6</ele>
        <time>2021-07-04 15:07:57</time>
      </trkpt>
      <trkpt lat="28.63576" lon="-14.0104">
        <ele>56.6</ele>
        <time>2021-07-04 15:07:58</time>
      </trkpt>
      <trkpt lat="28.63577" lon="-14.01036">
        <ele>56.6</ele>
        <time>2021-07-04 15:07:59</time>
      </trkpt>
      <trkpt lat="28.63578" lon="-14.01032">
        <ele>56.6</ele>
        <time>2021-07-04 15:08:00</time>
      </trkpt>
      <trkpt lat="28.63579" lon="-14.01029">
        <ele>56.6</ele>
        <time>2021-07-04 15:08:01</time>
      </trkpt>
      <trkpt lat="28.6358" lon="-14.01025">
        <ele>56.6</ele>
        <time>2021-07-04 15:08:02</time>
      </trkpt>
      <trkpt lat="28.63581" lon="-14.01022">
        <ele>56.6</ele>
        <time>2021-07-04 15:08:03</time>
      </trkpt>
      <trkpt lat="28.63582" lon="-14.01018">
        <ele>56.4</ele>
        <time>2021-07-04 15:08:04</time>
      </trkpt>
      <trkpt lat="28.63583" lon="-14.01015">
        <ele>56.4</ele>
        <time>2021-07-04 15:08:05</time>
      </trkpt>
      <trkpt lat="28.63584" lon="-14.01011">
        <ele>56.4</ele>
        <time>2021-07-04 15:08:06</time>
      </trkpt>
      <trkpt lat="28.63585" lon="-14.01008">
        <ele>56.4</ele>
        <time>2021-07-04 15:08:07</time>
      </trkpt>
      <trkpt lat="28.63587" lon="-14.01004">
        <ele>56.4</ele>
        <time>2021-07-04 15:08:08</time>
      </trkpt>
      <trkpt lat="28.63588" lon="-14.01001">
        <ele>56.4</ele>
        <time>2021-07-04 15:08:09</time>
      </trkpt>
      <trkpt lat="28.63589" lon="-14.00998">
        <ele>56.4</ele>
        <time>2021-07-04 15:08:10</time>
      </trkpt>
      <trkpt lat="28.6359" lon="-14.00995">
        <ele>56.4</ele>
        <time>2021-07-04 15:08:11</time>
      </trkpt>
      <trkpt lat="28.63591" lon="-14.00992">
        <ele>56.4</ele>
        <time>2021-07-04 15:08:12</time>
      </trkpt>
      <trkpt lat="28.63592" lon="-14.0099">
        <ele>56.4</ele>
        <time>2021-07-04 15:08:13</time>
      </trkpt>
      <trkpt lat="28.63593" lon="-14.00987">
        <ele>56.4</ele>
        <time>2021-07-04 15:08:14</time>
      </trkpt>
      <trkpt lat="28.63595" lon="-14.00984">
        <ele>56.4</ele>
        <time>2021-07-04 15:08:15</time>
      </trkpt>
      <trkpt lat="28.63596" lon="-14.00981">
        <ele>56.4</ele>
        <time>2021-07-04 15:08:16</time>
      </trkpt>
      <trkpt lat="28.63597" lon="-14.00978">
        <ele>56.4</ele>
        <time>2021-07-04 15:08:17</time>
      </trkpt>
      <trkpt lat="28.63598" lon="-14.00975">
        <ele>56.6</ele>
        <time>2021-07-04 15:08:18</time>
      </trkpt>
      <trkpt lat="28.63599" lon="-14.00972">
        <ele>56.6</ele>
        <time>2021-07-04 15:08:19</time>
      </trkpt>
      <trkpt lat="28.636" lon="-14.00969">
        <ele>56.8</ele>
        <time>2021-07-04 15:08:20</time>
      </trkpt>
      <trkpt lat="28.636" lon="-14.00966">
        <ele>56.8</ele>
        <time>2021-07-04 15:08:21</time>
      </trkpt>
      <trkpt lat="28.63601" lon="-14.00963">
        <ele>56.8</ele>
        <time>2021-07-04 15:08:22</time>
      </trkpt>
      <trkpt lat="28.63602" lon="-14.00959">
        <ele>57</ele>
        <time>2021-07-04 15:08:23</time>
      </trkpt>
      <trkpt lat="28.63602" lon="-14.00957">
        <ele>57</ele>
        <time>2021-07-04 15:08:24</time>
      </trkpt>
      <trkpt lat="28.63603" lon="-14.00954">
        <ele>57</ele>
        <time>2021-07-04 15:08:25</time>
      </trkpt>
      <trkpt lat="28.63604" lon="-14.00951">
        <ele>57</ele>
        <time>2021-07-04 15:08:26</time>
      </trkpt>
      <trkpt lat="28.63604" lon="-14.00947">
        <ele>57.4</ele>
        <time>2021-07-04 15:08:27</time>
      </trkpt>
      <trkpt lat="28.63604" lon="-14.00944">
        <ele>57.4</ele>
        <time>2021-07-04 15:08:28</time>
      </trkpt>
      <trkpt lat="28.63604" lon="-14.00941">
        <ele>57.4</ele>
        <time>2021-07-04 15:08:29</time>
      </trkpt>
      <trkpt lat="28.63605" lon="-14.00938">
        <ele>57.4</ele>
        <time>2021-07-04 15:08:30</time>
      </trkpt>
      <trkpt lat="28.63605" lon="-14.00935">
        <ele>57.4</ele>
        <time>2021-07-04 15:08:31</time>
      </trkpt>
      <trkpt lat="28.63605" lon="-14.00931">
        <ele>57.4</ele>
        <time>2021-07-04 15:08:32</time>
      </trkpt>
      <trkpt lat="28.63605" lon="-14.00928">
        <ele>57.4</ele>
        <time>2021-07-04 15:08:33</time>
      </trkpt>
      <trkpt lat="28.63606" lon="-14.00925">
        <ele>57.6</ele>
        <time>2021-07-04 15:08:34</time>
      </trkpt>
      <trkpt lat="28.63606" lon="-14.00922">
        <ele>57.6</ele>
        <time>2021-07-04 15:08:35</time>
      </trkpt>
      <trkpt lat="28.63605" lon="-14.00918">
        <ele>57.6</ele>
        <time>2021-07-04 15:08:36</time>
      </trkpt>
      <trkpt lat="28.63605" lon="-14.00915">
        <ele>57.6</ele>
        <time>2021-07-04 15:08:37</time>
      </trkpt>
      <trkpt lat="28.63604" lon="-14.00912">
        <ele>57.8</ele>
        <time>2021-07-04 15:08:38</time>
      </trkpt>
      <trkpt lat="28.63604" lon="-14.00908">
        <ele>57.8</ele>
        <time>2021-07-04 15:08:39</time>
      </trkpt>
      <trkpt lat="28.63603" lon="-14.00904">
        <ele>57.8</ele>
        <time>2021-07-04 15:08:40</time>
      </trkpt>
      <trkpt lat="28.63602" lon="-14.00901">
        <ele>57.8</ele>
        <time>2021-07-04 15:08:41</time>
      </trkpt>
      <trkpt lat="28.63601" lon="-14.00897">
        <ele>57.8</ele>
        <time>2021-07-04 15:08:42</time>
      </trkpt>
      <trkpt lat="28.636" lon="-14.00893">
        <ele>57.8</ele>
        <time>2021-07-04 15:08:43</time>
      </trkpt>
      <trkpt lat="28.63599" lon="-14.0089">
        <ele>57.8</ele>
        <time>2021-07-04 15:08:44</time>
      </trkpt>
      <trkpt lat="28.63598" lon="-14.00886">
        <ele>57.6</ele>
        <time>2021-07-04 15:08:45</time>
      </trkpt>
      <trkpt lat="28.63597" lon="-14.00882">
        <ele>57.6</ele>
        <time>2021-07-04 15:08:46</time>
      </trkpt>
      <trkpt lat="28.63596" lon="-14.00878">
        <ele>57.6</ele>
        <time>2021-07-04 15:08:47</time>
      </trkpt>
      <trkpt lat="28.63595" lon="-14.00875">
        <ele>57.6</ele>
        <time>2021-07-04 15:08:48</time>
      </trkpt>
      <trkpt lat="28.63594" lon="-14.00871">
        <ele>57.6</ele>
        <time>2021-07-04 15:08:49</time>
      </trkpt>
      <trkpt lat="28.63593" lon="-14.00867">
        <ele>57.6</ele>
        <time>2021-07-04 15:08:50</time>
      </trkpt>
      <trkpt lat="28.63592" lon="-14.00863">
        <ele>57.6</ele>
        <time>2021-07-04 15:08:51</time>
      </trkpt>
      <trkpt lat="28.6359" lon="-14.00859">
        <ele>57.6</ele>
        <time>2021-07-04 15:08:52</time>
      </trkpt>
      <trkpt lat="28.63589" lon="-14.00856">
        <ele>57.6</ele>
        <time>2021-07-04 15:08:53</time>
      </trkpt>
      <trkpt lat="28.63587" lon="-14.00852">
        <ele>57.6</ele>
        <time>2021-07-04 15:08:54</time>
      </trkpt>
      <trkpt lat="28.63585" lon="-14.00849">
        <ele>57.4</ele>
        <time>2021-07-04 15:08:55</time>
      </trkpt>
      <trkpt lat="28.63583" lon="-14.00846">
        <ele>57.4</ele>
        <time>2021-07-04 15:08:56</time>
      </trkpt>
      <trkpt lat="28.63581" lon="-14.00843">
        <ele>57.4</ele>
        <time>2021-07-04 15:08:57</time>
      </trkpt>
      <trkpt lat="28.63579" lon="-14.00841">
        <ele>57.4</ele>
        <time>2021-07-04 15:08:58</time>
      </trkpt>
      <trkpt lat="28.63576" lon="-14.00839">
        <ele>57.4</ele>
        <time>2021-07-04 15:08:59</time>
      </trkpt>
      <trkpt lat="28.63573" lon="-14.00837">
        <ele>57.4</ele>
        <time>2021-07-04 15:09:00</time>
      </trkpt>
      <trkpt lat="28.6357" lon="-14.00835">
        <ele>57.4</ele>
        <time>2021-07-04 15:09:01</time>
      </trkpt>
      <trkpt lat="28.63567" lon="-14.00833">
        <ele>57.4</ele>
        <time>2021-07-04 15:09:02</time>
      </trkpt>
      <trkpt lat="28.63564" lon="-14.00831">
        <ele>57.4</ele>
        <time>2021-07-04 15:09:03</time>
      </trkpt>
      <trkpt lat="28.63561" lon="-14.00829">
        <ele>57.4</ele>
        <time>2021-07-04 15:09:04</time>
      </trkpt>
      <trkpt lat="28.63558" lon="-14.00827">
        <ele>57.4</ele>
        <time>2021-07-04 15:09:05</time>
      </trkpt>
      <trkpt lat="28.63554" lon="-14.00825">
        <ele>57.4</ele>
        <time>2021-07-04 15:09:06</time>
      </trkpt>
      <trkpt lat="28.63551" lon="-14.00822">
        <ele>57.4</ele>
        <time>2021-07-04 15:09:07</time>
      </trkpt>
      <trkpt lat="28.63548" lon="-14.0082">
        <ele>57.6</ele>
        <time>2021-07-04 15:09:08</time>
      </trkpt>
      <trkpt lat="28.63545" lon="-14.00818">
        <ele>57.6</ele>
        <time>2021-07-04 15:09:09</time>
      </trkpt>
      <trkpt lat="28.63542" lon="-14.00816">
        <ele>57.8</ele>
        <time>2021-07-04 15:09:10</time>
      </trkpt>
      <trkpt lat="28.6354" lon="-14.00814">
        <ele>57.8</ele>
        <time>2021-07-04 15:09:11</time>
      </trkpt>
      <trkpt lat="28.63537" lon="-14.00812">
        <ele>58.2</ele>
        <time>2021-07-04 15:09:12</time>
      </trkpt>
      <trkpt lat="28.63534" lon="-14.00809">
        <ele>58.2</ele>
        <time>2021-07-04 15:09:13</time>
      </trkpt>
      <trkpt lat="28.63531" lon="-14.00807">
        <ele>58.2</ele>
        <time>2021-07-04 15:09:14</time>
      </trkpt>
      <trkpt lat="28.63528" lon="-14.00804">
        <ele>58.2</ele>
        <time>2021-07-04 15:09:15</time>
      </trkpt>
      <trkpt lat="28.63525" lon="-14.00801">
        <ele>58.2</ele>
        <time>2021-07-04 15:09:16</time>
      </trkpt>
      <trkpt lat="28.63522" lon="-14.00799">
        <ele>58.4</ele>
        <time>2021-07-04 15:09:17</time>
      </trkpt>
      <trkpt lat="28.63519" lon="-14.00796">
        <ele>58.4</ele>
        <time>2021-07-04 15:09:18</time>
      </trkpt>
      <trkpt lat="28.63516" lon="-14.00794">
        <ele>58.4</ele>
        <time>2021-07-04 15:09:19</time>
      </trkpt>
      <trkpt lat="28.63513" lon="-14.00791">
        <ele>58.4</ele>
        <time>2021-07-04 15:09:20</time>
      </trkpt>
      <trkpt lat="28.6351" lon="-14.00789">
        <ele>58.4</ele>
        <time>2021-07-04 15:09:21</time>
      </trkpt>
      <trkpt lat="28.63507" lon="-14.00787">
        <ele>58.4</ele>
        <time>2021-07-04 15:09:22</time>
      </trkpt>
      <trkpt lat="28.63503" lon="-14.00785">
        <ele>58.4</ele>
        <time>2021-07-04 15:09:23</time>
      </trkpt>
      <trkpt lat="28.63501" lon="-14.00782">
        <ele>58.4</ele>
        <time>2021-07-04 15:09:24</time>
      </trkpt>
      <trkpt lat="28.63498" lon="-14.0078">
        <ele>58.4</ele>
        <time>2021-07-04 15:09:25</time>
      </trkpt>
      <trkpt lat="28.63496" lon="-14.00777">
        <ele>58.4</ele>
        <time>2021-07-04 15:09:26</time>
      </trkpt>
      <trkpt lat="28.63494" lon="-14.00774">
        <ele>58.6</ele>
        <time>2021-07-04 15:09:27</time>
      </trkpt>
      <trkpt lat="28.63492" lon="-14.00771">
        <ele>58.6</ele>
        <time>2021-07-04 15:09:28</time>
      </trkpt>
      <trkpt lat="28.6349" lon="-14.00768">
        <ele>58.6</ele>
        <time>2021-07-04 15:09:29</time>
      </trkpt>
      <trkpt lat="28.63488" lon="-14.00765">
        <ele>58.6</ele>
        <time>2021-07-04 15:09:30</time>
      </trkpt>
      <trkpt lat="28.63486" lon="-14.00762">
        <ele>58.6</ele>
        <time>2021-07-04 15:09:31</time>
      </trkpt>
      <trkpt lat="28.63484" lon="-14.0076">
        <ele>58.6</ele>
        <time>2021-07-04 15:09:32</time>
      </trkpt>
      <trkpt lat="28.63483" lon="-14.00757">
        <ele>58.6</ele>
        <time>2021-07-04 15:09:33</time>
      </trkpt>
      <trkpt lat="28.63481" lon="-14.00753">
        <ele>58.6</ele>
        <time>2021-07-04 15:09:34</time>
      </trkpt>
      <trkpt lat="28.63479" lon="-14.0075">
        <ele>58.6</ele>
        <time>2021-07-04 15:09:35</time>
      </trkpt>
      <trkpt lat="28.63477" lon="-14.00747">
        <ele>58.6</ele>
        <time>2021-07-04 15:09:36</time>
      </trkpt>
      <trkpt lat="28.63476" lon="-14.00743">
        <ele>58.6</ele>
        <time>2021-07-04 15:09:37</time>
      </trkpt>
      <trkpt lat="28.63474" lon="-14.0074">
        <ele>58.6</ele>
        <time>2021-07-04 15:09:38</time>
      </trkpt>
      <trkpt lat="28.63472" lon="-14.00736">
        <ele>58.6</ele>
        <time>2021-07-04 15:09:39</time>
      </trkpt>
      <trkpt lat="28.6347" lon="-14.00732">
        <ele>58.6</ele>
        <time>2021-07-04 15:09:40</time>
      </trkpt>
      <trkpt lat="28.63468" lon="-14.00729">
        <ele>58.6</ele>
        <time>2021-07-04 15:09:41</time>
      </trkpt>
      <trkpt lat="28.63465" lon="-14.00725">
        <ele>58.6</ele>
        <time>2021-07-04 15:09:42</time>
      </trkpt>
      <trkpt lat="28.63463" lon="-14.00721">
        <ele>58.6</ele>
        <time>2021-07-04 15:09:43</time>
      </trkpt>
      <trkpt lat="28.63461" lon="-14.00717">
        <ele>58.6</ele>
        <time>2021-07-04 15:09:44</time>
      </trkpt>
      <trkpt lat="28.63458" lon="-14.00713">
        <ele>58.4</ele>
        <time>2021-07-04 15:09:45</time>
      </trkpt>
      <trkpt lat="28.63455" lon="-14.0071">
        <ele>58.4</ele>
        <time>2021-07-04 15:09:46</time>
      </trkpt>
      <trkpt lat="28.63452" lon="-14.00706">
        <ele>58.4</ele>
        <time>2021-07-04 15:09:47</time>
      </trkpt>
      <trkpt lat="28.63448" lon="-14.00704">
        <ele>58.4</ele>
        <time>2021-07-04 15:09:48</time>
      </trkpt>
      <trkpt lat="28.63445" lon="-14.00701">
        <ele>58.4</ele>
        <time>2021-07-04 15:09:49</time>
      </trkpt>
      <trkpt lat="28.63442" lon="-14.00698">
        <ele>58.2</ele>
        <time>2021-07-04 15:09:50</time>
      </trkpt>
      <trkpt lat="28.63438" lon="-14.00695">
        <ele>58.2</ele>
        <time>2021-07-04 15:09:51</time>
      </trkpt>
      <trkpt lat="28.63434" lon="-14.00694">
        <ele>57.8</ele>
        <time>2021-07-04 15:09:52</time>
      </trkpt>
      <trkpt lat="28.6343" lon="-14.00692">
        <ele>57.8</ele>
        <time>2021-07-04 15:09:53</time>
      </trkpt>
      <trkpt lat="28.63426" lon="-14.0069">
        <ele>57.6</ele>
        <time>2021-07-04 15:09:54</time>
      </trkpt>
      <trkpt lat="28.63422" lon="-14.00688">
        <ele>57.6</ele>
        <time>2021-07-04 15:09:55</time>
      </trkpt>
      <trkpt lat="28.63417" lon="-14.00687">
        <ele>57.4</ele>
        <time>2021-07-04 15:09:56</time>
      </trkpt>
      <trkpt lat="28.63413" lon="-14.00685">
        <ele>57.4</ele>
        <time>2021-07-04 15:09:57</time>
      </trkpt>
      <trkpt lat="28.63409" lon="-14.00684">
        <ele>57.4</ele>
        <time>2021-07-04 15:09:58</time>
      </trkpt>
      <trkpt lat="28.63404" lon="-14.00682">
        <ele>57.4</ele>
        <time>2021-07-04 15:09:59</time>
      </trkpt>
      <trkpt lat="28.634" lon="-14.0068">
        <ele>57.4</ele>
        <time>2021-07-04 15:10:00</time>
      </trkpt>
      <trkpt lat="28.63397" lon="-14.00678">
        <ele>57.4</ele>
        <time>2021-07-04 15:10:01</time>
      </trkpt>
      <trkpt lat="28.63393" lon="-14.00676">
        <ele>57.6</ele>
        <time>2021-07-04 15:10:02</time>
      </trkpt>
      <trkpt lat="28.63389" lon="-14.00674">
        <ele>57.6</ele>
        <time>2021-07-04 15:10:03</time>
      </trkpt>
      <trkpt lat="28.63385" lon="-14.00673">
        <ele>57.6</ele>
        <time>2021-07-04 15:10:04</time>
      </trkpt>
      <trkpt lat="28.63381" lon="-14.00671">
        <ele>57.8</ele>
        <time>2021-07-04 15:10:05</time>
      </trkpt>
      <trkpt lat="28.63377" lon="-14.00669">
        <ele>57.8</ele>
        <time>2021-07-04 15:10:06</time>
      </trkpt>
      <trkpt lat="28.63373" lon="-14.00667">
        <ele>57.8</ele>
        <time>2021-07-04 15:10:07</time>
      </trkpt>
      <trkpt lat="28.63369" lon="-14.00666">
        <ele>58.2</ele>
        <time>2021-07-04 15:10:08</time>
      </trkpt>
      <trkpt lat="28.63364" lon="-14.00664">
        <ele>58.2</ele>
        <time>2021-07-04 15:10:09</time>
      </trkpt>
      <trkpt lat="28.6336" lon="-14.00662">
        <ele>58.2</ele>
        <time>2021-07-04 15:10:10</time>
      </trkpt>
      <trkpt lat="28.63355" lon="-14.0066">
        <ele>58.2</ele>
        <time>2021-07-04 15:10:11</time>
      </trkpt>
      <trkpt lat="28.63351" lon="-14.00659">
        <ele>58.2</ele>
        <time>2021-07-04 15:10:12</time>
      </trkpt>
      <trkpt lat="28.63347" lon="-14.00656">
        <ele>58.2</ele>
        <time>2021-07-04 15:10:13</time>
      </trkpt>
      <trkpt lat="28.63342" lon="-14.00655">
        <ele>58.4</ele>
        <time>2021-07-04 15:10:14</time>
      </trkpt>
      <trkpt lat="28.63337" lon="-14.00654">
        <ele>58.4</ele>
        <time>2021-07-04 15:10:15</time>
      </trkpt>
      <trkpt lat="28.63333" lon="-14.00652">
        <ele>58.4</ele>
        <time>2021-07-04 15:10:16</time>
      </trkpt>
      <trkpt lat="28.63328" lon="-14.0065">
        <ele>58.4</ele>
        <time>2021-07-04 15:10:17</time>
      </trkpt>
      <trkpt lat="28.63323" lon="-14.00649">
        <ele>58.4</ele>
        <time>2021-07-04 15:10:18</time>
      </trkpt>
      <trkpt lat="28.63319" lon="-14.00647">
        <ele>58.4</ele>
        <time>2021-07-04 15:10:19</time>
      </trkpt>
      <trkpt lat="28.63315" lon="-14.00645">
        <ele>58.4</ele>
        <time>2021-07-04 15:10:20</time>
      </trkpt>
      <trkpt lat="28.6331" lon="-14.00643">
        <ele>58.4</ele>
        <time>2021-07-04 15:10:21</time>
      </trkpt>
      <trkpt lat="28.63306" lon="-14.00641">
        <ele>58.4</ele>
        <time>2021-07-04 15:10:22</time>
      </trkpt>
      <trkpt lat="28.63301" lon="-14.00639">
        <ele>58.4</ele>
        <time>2021-07-04 15:10:23</time>
      </trkpt>
      <trkpt lat="28.63297" lon="-14.00637">
        <ele>58.4</ele>
        <time>2021-07-04 15:10:24</time>
      </trkpt>
      <trkpt lat="28.63294" lon="-14.00634">
        <ele>58.6</ele>
        <time>2021-07-04 15:10:25</time>
      </trkpt>
      <trkpt lat="28.63291" lon="-14.00632">
        <ele>58.8</ele>
        <time>2021-07-04 15:10:26</time>
      </trkpt>
      <trkpt lat="28.63288" lon="-14.0063">
        <ele>58.8</ele>
        <time>2021-07-04 15:10:27</time>
      </trkpt>
      <trkpt lat="28.63285" lon="-14.00627">
        <ele>58.8</ele>
        <time>2021-07-04 15:10:28</time>
      </trkpt>
      <trkpt lat="28.63283" lon="-14.00625">
        <ele>59.2</ele>
        <time>2021-07-04 15:10:29</time>
      </trkpt>
      <trkpt lat="28.6328" lon="-14.00622">
        <ele>59.2</ele>
        <time>2021-07-04 15:10:30</time>
      </trkpt>
      <trkpt lat="28.63278" lon="-14.00621">
        <ele>59.2</ele>
        <time>2021-07-04 15:10:31</time>
      </trkpt>
      <trkpt lat="28.63275" lon="-14.00619">
        <ele>59.4</ele>
        <time>2021-07-04 15:10:32</time>
      </trkpt>
      <trkpt lat="28.63273" lon="-14.00616">
        <ele>59.4</ele>
        <time>2021-07-04 15:10:33</time>
      </trkpt>
      <trkpt lat="28.6327" lon="-14.00614">
        <ele>59.8</ele>
        <time>2021-07-04 15:10:34</time>
      </trkpt>
      <trkpt lat="28.63267" lon="-14.00611">
        <ele>59.8</ele>
        <time>2021-07-04 15:10:35</time>
      </trkpt>
      <trkpt lat="28.63263" lon="-14.00608">
        <ele>59.8</ele>
        <time>2021-07-04 15:10:36</time>
      </trkpt>
      <trkpt lat="28.6326" lon="-14.00605">
        <ele>59.8</ele>
        <time>2021-07-04 15:10:37</time>
      </trkpt>
      <trkpt lat="28.63256" lon="-14.00603">
        <ele>59.8</ele>
        <time>2021-07-04 15:10:38</time>
      </trkpt>
      <trkpt lat="28.63252" lon="-14.00601">
        <ele>60</ele>
        <time>2021-07-04 15:10:39</time>
      </trkpt>
      <trkpt lat="28.63247" lon="-14.00599">
        <ele>60</ele>
        <time>2021-07-04 15:10:40</time>
      </trkpt>
      <trkpt lat="28.63243" lon="-14.00598">
        <ele>60.2</ele>
        <time>2021-07-04 15:10:41</time>
      </trkpt>
      <trkpt lat="28.63238" lon="-14.00597">
        <ele>60.2</ele>
        <time>2021-07-04 15:10:42</time>
      </trkpt>
      <trkpt lat="28.63234" lon="-14.00597">
        <ele>60.2</ele>
        <time>2021-07-04 15:10:43</time>
      </trkpt>
      <trkpt lat="28.63229" lon="-14.00596">
        <ele>60.2</ele>
        <time>2021-07-04 15:10:44</time>
      </trkpt>
      <trkpt lat="28.63225" lon="-14.00596">
        <ele>60.2</ele>
        <time>2021-07-04 15:10:45</time>
      </trkpt>
      <trkpt lat="28.6322" lon="-14.00596">
        <ele>60.2</ele>
        <time>2021-07-04 15:10:46</time>
      </trkpt>
      <trkpt lat="28.63215" lon="-14.00596">
        <ele>60.4</ele>
        <time>2021-07-04 15:10:47</time>
      </trkpt>
      <trkpt lat="28.63211" lon="-14.00596">
        <ele>60.4</ele>
        <time>2021-07-04 15:10:48</time>
      </trkpt>
      <trkpt lat="28.63207" lon="-14.00597">
        <ele>60.4</ele>
        <time>2021-07-04 15:10:49</time>
      </trkpt>
      <trkpt lat="28.63202" lon="-14.00598">
        <ele>60.4</ele>
        <time>2021-07-04 15:10:50</time>
      </trkpt>
      <trkpt lat="28.63198" lon="-14.00598">
        <ele>60.4</ele>
        <time>2021-07-04 15:10:51</time>
      </trkpt>
      <trkpt lat="28.63193" lon="-14.00599">
        <ele>60.4</ele>
        <time>2021-07-04 15:10:52</time>
      </trkpt>
      <trkpt lat="28.63189" lon="-14.006">
        <ele>60.4</ele>
        <time>2021-07-04 15:10:53</time>
      </trkpt>
      <trkpt lat="28.63184" lon="-14.00601">
        <ele>60.4</ele>
        <time>2021-07-04 15:10:54</time>
      </trkpt>
      <trkpt lat="28.63179" lon="-14.00602">
        <ele>60.4</ele>
        <time>2021-07-04 15:10:55</time>
      </trkpt>
      <trkpt lat="28.63174" lon="-14.00601">
        <ele>60.4</ele>
        <time>2021-07-04 15:10:56</time>
      </trkpt>
      <trkpt lat="28.6317" lon="-14.006">
        <ele>60.4</ele>
        <time>2021-07-04 15:10:57</time>
      </trkpt>
      <trkpt lat="28.63165" lon="-14.00598">
        <ele>60.2</ele>
        <time>2021-07-04 15:10:58</time>
      </trkpt>
      <trkpt lat="28.6316" lon="-14.00596">
        <ele>60.2</ele>
        <time>2021-07-04 15:10:59</time>
      </trkpt>
      <trkpt lat="28.63156" lon="-14.00593">
        <ele>60.2</ele>
        <time>2021-07-04 15:11:00</time>
      </trkpt>
      <trkpt lat="28.63152" lon="-14.00589">
        <ele>59.8</ele>
        <time>2021-07-04 15:11:01</time>
      </trkpt>
      <trkpt lat="28.63148" lon="-14.00585">
        <ele>59.6</ele>
        <time>2021-07-04 15:11:02</time>
      </trkpt>
      <trkpt lat="28.63144" lon="-14.00582">
        <ele>59.2</ele>
        <time>2021-07-04 15:11:03</time>
      </trkpt>
      <trkpt lat="28.63139" lon="-14.00582">
        <ele>59</ele>
        <time>2021-07-04 15:11:04</time>
      </trkpt>
      <trkpt lat="28.63134" lon="-14.00582">
        <ele>58.6</ele>
        <time>2021-07-04 15:11:05</time>
      </trkpt>
      <trkpt lat="28.63129" lon="-14.00584">
        <ele>58.6</ele>
        <time>2021-07-04 15:11:06</time>
      </trkpt>
      <trkpt lat="28.63124" lon="-14.00584">
        <ele>58.4</ele>
        <time>2021-07-04 15:11:07</time>
      </trkpt>
      <trkpt lat="28.63118" lon="-14.00585">
        <ele>58.4</ele>
        <time>2021-07-04 15:11:08</time>
      </trkpt>
      <trkpt lat="28.63113" lon="-14.00583">
        <ele>58</ele>
        <time>2021-07-04 15:11:09</time>
      </trkpt>
      <trkpt lat="28.63107" lon="-14.00581">
        <ele>57.8</ele>
        <time>2021-07-04 15:11:10</time>
      </trkpt>
      <trkpt lat="28.63102" lon="-14.00577">
        <ele>57.6</ele>
        <time>2021-07-04 15:11:11</time>
      </trkpt>
      <trkpt lat="28.63097" lon="-14.00573">
        <ele>57.2</ele>
        <time>2021-07-04 15:11:12</time>
      </trkpt>
      <trkpt lat="28.63093" lon="-14.00569">
        <ele>57</ele>
        <time>2021-07-04 15:11:13</time>
      </trkpt>
      <trkpt lat="28.63088" lon="-14.00565">
        <ele>56.8</ele>
        <time>2021-07-04 15:11:14</time>
      </trkpt>
      <trkpt lat="28.63084" lon="-14.0056">
        <ele>56.6</ele>
        <time>2021-07-04 15:11:15</time>
      </trkpt>
      <trkpt lat="28.63081" lon="-14.00556">
        <ele>56.6</ele>
        <time>2021-07-04 15:11:16</time>
      </trkpt>
      <trkpt lat="28.63076" lon="-14.00554">
        <ele>56.4</ele>
        <time>2021-07-04 15:11:17</time>
      </trkpt>
      <trkpt lat="28.63072" lon="-14.00552">
        <ele>56.4</ele>
        <time>2021-07-04 15:11:18</time>
      </trkpt>
      <trkpt lat="28.63067" lon="-14.00552">
        <ele>56.4</ele>
        <time>2021-07-04 15:11:19</time>
      </trkpt>
      <trkpt lat="28.63063" lon="-14.00552">
        <ele>56.2</ele>
        <time>2021-07-04 15:11:20</time>
      </trkpt>
      <trkpt lat="28.63059" lon="-14.00552">
        <ele>56.2</ele>
        <time>2021-07-04 15:11:21</time>
      </trkpt>
      <trkpt lat="28.63055" lon="-14.00552">
        <ele>56.2</ele>
        <time>2021-07-04 15:11:22</time>
      </trkpt>
      <trkpt lat="28.6305" lon="-14.00551">
        <ele>55.8</ele>
        <time>2021-07-04 15:11:23</time>
      </trkpt>
      <trkpt lat="28.63046" lon="-14.00549">
        <ele>55.8</ele>
        <time>2021-07-04 15:11:24</time>
      </trkpt>
      <trkpt lat="28.63042" lon="-14.00546">
        <ele>55.6</ele>
        <time>2021-07-04 15:11:25</time>
      </trkpt>
      <trkpt lat="28.63038" lon="-14.00544">
        <ele>55.6</ele>
        <time>2021-07-04 15:11:26</time>
      </trkpt>
      <trkpt lat="28.63033" lon="-14.00541">
        <ele>55.4</ele>
        <time>2021-07-04 15:11:27</time>
      </trkpt>
      <trkpt lat="28.63029" lon="-14.00539">
        <ele>55.4</ele>
        <time>2021-07-04 15:11:28</time>
      </trkpt>
      <trkpt lat="28.63024" lon="-14.00537">
        <ele>55.4</ele>
        <time>2021-07-04 15:11:29</time>
      </trkpt>
      <trkpt lat="28.63019" lon="-14.00535">
        <ele>55.4</ele>
        <time>2021-07-04 15:11:30</time>
      </trkpt>
      <trkpt lat="28.63015" lon="-14.00533">
        <ele>55.2</ele>
        <time>2021-07-04 15:11:31</time>
      </trkpt>
      <trkpt lat="28.63011" lon="-14.00532">
        <ele>55.2</ele>
        <time>2021-07-04 15:11:32</time>
      </trkpt>
      <trkpt lat="28.63007" lon="-14.0053">
        <ele>55.2</ele>
        <time>2021-07-04 15:11:33</time>
      </trkpt>
      <trkpt lat="28.63003" lon="-14.00528">
        <ele>55.2</ele>
        <time>2021-07-04 15:11:34</time>
      </trkpt>
      <trkpt lat="28.62999" lon="-14.00526">
        <ele>55</ele>
        <time>2021-07-04 15:11:35</time>
      </trkpt>
      <trkpt lat="28.62996" lon="-14.00523">
        <ele>55</ele>
        <time>2021-07-04 15:11:36</time>
      </trkpt>
      <trkpt lat="28.62991" lon="-14.0052">
        <ele>55</ele>
        <time>2021-07-04 15:11:37</time>
      </trkpt>
      <trkpt lat="28.62988" lon="-14.00518">
        <ele>55</ele>
        <time>2021-07-04 15:11:38</time>
      </trkpt>
      <trkpt lat="28.62984" lon="-14.00514">
        <ele>55</ele>
        <time>2021-07-04 15:11:39</time>
      </trkpt>
      <trkpt lat="28.6298" lon="-14.00511">
        <ele>55</ele>
        <time>2021-07-04 15:11:40</time>
      </trkpt>
      <trkpt lat="28.62976" lon="-14.00508">
        <ele>55</ele>
        <time>2021-07-04 15:11:41</time>
      </trkpt>
      <trkpt lat="28.62972" lon="-14.00506">
        <ele>55.2</ele>
        <time>2021-07-04 15:11:42</time>
      </trkpt>
      <trkpt lat="28.62969" lon="-14.00503">
        <ele>55.2</ele>
        <time>2021-07-04 15:11:43</time>
      </trkpt>
      <trkpt lat="28.62965" lon="-14.005">
        <ele>55.2</ele>
        <time>2021-07-04 15:11:44</time>
      </trkpt>
      <trkpt lat="28.62961" lon="-14.00499">
        <ele>55.2</ele>
        <time>2021-07-04 15:11:45</time>
      </trkpt>
      <trkpt lat="28.62958" lon="-14.00498">
        <ele>55.2</ele>
        <time>2021-07-04 15:11:46</time>
      </trkpt>
      <trkpt lat="28.62954" lon="-14.00497">
        <ele>55.4</ele>
        <time>2021-07-04 15:11:47</time>
      </trkpt>
      <trkpt lat="28.6295" lon="-14.00497">
        <ele>55.4</ele>
        <time>2021-07-04 15:11:48</time>
      </trkpt>
      <trkpt lat="28.62946" lon="-14.00496">
        <ele>55.4</ele>
        <time>2021-07-04 15:11:49</time>
      </trkpt>
      <trkpt lat="28.62942" lon="-14.00495">
        <ele>55.4</ele>
        <time>2021-07-04 15:11:50</time>
      </trkpt>
      <trkpt lat="28.62939" lon="-14.00494">
        <ele>55.6</ele>
        <time>2021-07-04 15:11:51</time>
      </trkpt>
      <trkpt lat="28.62935" lon="-14.00493">
        <ele>55.6</ele>
        <time>2021-07-04 15:11:52</time>
      </trkpt>
      <trkpt lat="28.62931" lon="-14.00492">
        <ele>55.6</ele>
        <time>2021-07-04 15:11:53</time>
      </trkpt>
      <trkpt lat="28.62928" lon="-14.0049">
        <ele>55.6</ele>
        <time>2021-07-04 15:11:54</time>
      </trkpt>
      <trkpt lat="28.62924" lon="-14.00488">
        <ele>55.6</ele>
        <time>2021-07-04 15:11:55</time>
      </trkpt>
      <trkpt lat="28.62921" lon="-14.00486">
        <ele>55.6</ele>
        <time>2021-07-04 15:11:56</time>
      </trkpt>
      <trkpt lat="28.62918" lon="-14.00484">
        <ele>55.8</ele>
        <time>2021-07-04 15:11:57</time>
      </trkpt>
      <trkpt lat="28.62914" lon="-14.00481">
        <ele>55.8</ele>
        <time>2021-07-04 15:11:58</time>
      </trkpt>
      <trkpt lat="28.62911" lon="-14.00478">
        <ele>55.8</ele>
        <time>2021-07-04 15:11:59</time>
      </trkpt>
      <trkpt lat="28.62908" lon="-14.00476">
        <ele>55.8</ele>
        <time>2021-07-04 15:12:00</time>
      </trkpt>
      <trkpt lat="28.62904" lon="-14.00473">
        <ele>56</ele>
        <time>2021-07-04 15:12:01</time>
      </trkpt>
      <trkpt lat="28.62901" lon="-14.0047">
        <ele>56</ele>
        <time>2021-07-04 15:12:02</time>
      </trkpt>
      <trkpt lat="28.62898" lon="-14.00467">
        <ele>56</ele>
        <time>2021-07-04 15:12:03</time>
      </trkpt>
      <trkpt lat="28.62895" lon="-14.00464">
        <ele>56</ele>
        <time>2021-07-04 15:12:04</time>
      </trkpt>
      <trkpt lat="28.62892" lon="-14.0046">
        <ele>56</ele>
        <time>2021-07-04 15:12:05</time>
      </trkpt>
      <trkpt lat="28.62889" lon="-14.00457">
        <ele>56</ele>
        <time>2021-07-04 15:12:06</time>
      </trkpt>
      <trkpt lat="28.62886" lon="-14.00454">
        <ele>56.4</ele>
        <time>2021-07-04 15:12:07</time>
      </trkpt>
      <trkpt lat="28.62883" lon="-14.00451">
        <ele>56.4</ele>
        <time>2021-07-04 15:12:08</time>
      </trkpt>
      <trkpt lat="28.6288" lon="-14.00447">
        <ele>56.4</ele>
        <time>2021-07-04 15:12:09</time>
      </trkpt>
      <trkpt lat="28.62878" lon="-14.00443">
        <ele>56.6</ele>
        <time>2021-07-04 15:12:10</time>
      </trkpt>
      <trkpt lat="28.62876" lon="-14.00439">
        <ele>56.6</ele>
        <time>2021-07-04 15:12:11</time>
      </trkpt>
      <trkpt lat="28.62873" lon="-14.00436">
        <ele>56.6</ele>
        <time>2021-07-04 15:12:12</time>
      </trkpt>
      <trkpt lat="28.62871" lon="-14.00432">
        <ele>56.6</ele>
        <time>2021-07-04 15:12:13</time>
      </trkpt>
      <trkpt lat="28.62869" lon="-14.00428">
        <ele>56.6</ele>
        <time>2021-07-04 15:12:14</time>
      </trkpt>
      <trkpt lat="28.62867" lon="-14.00425">
        <ele>57</ele>
        <time>2021-07-04 15:12:15</time>
      </trkpt>
      <trkpt lat="28.62865" lon="-14.00422">
        <ele>57</ele>
        <time>2021-07-04 15:12:16</time>
      </trkpt>
      <trkpt lat="28.62863" lon="-14.00419">
        <ele>57</ele>
        <time>2021-07-04 15:12:17</time>
      </trkpt>
      <trkpt lat="28.6286" lon="-14.00417">
        <ele>57</ele>
        <time>2021-07-04 15:12:18</time>
      </trkpt>
      <trkpt lat="28.62858" lon="-14.00414">
        <ele>57</ele>
        <time>2021-07-04 15:12:19</time>
      </trkpt>
      <trkpt lat="28.62855" lon="-14.00412">
        <ele>57.2</ele>
        <time>2021-07-04 15:12:20</time>
      </trkpt>
      <trkpt lat="28.62854" lon="-14.00411">
        <ele>57.2</ele>
        <time>2021-07-04 15:12:21</time>
      </trkpt>
      <trkpt lat="28.62853" lon="-14.00409">
        <ele>57.6</ele>
        <time>2021-07-04 15:12:22</time>
      </trkpt>
      <trkpt lat="28.62851" lon="-14.00407">
        <ele>57.8</ele>
        <time>2021-07-04 15:12:23</time>
      </trkpt>
      <trkpt lat="28.6285" lon="-14.00405">
        <ele>58</ele>
        <time>2021-07-04 15:12:24</time>
      </trkpt>
      <trkpt lat="28.62849" lon="-14.00403">
        <ele>58.4</ele>
        <time>2021-07-04 15:12:25</time>
      </trkpt>
      <trkpt lat="28.62848" lon="-14.004">
        <ele>58.6</ele>
        <time>2021-07-04 15:12:26</time>
      </trkpt>
      <trkpt lat="28.62848" lon="-14.00397">
        <ele>58.8</ele>
        <time>2021-07-04 15:12:27</time>
      </trkpt>
      <trkpt lat="28.62848" lon="-14.00394">
        <ele>58.8</ele>
        <time>2021-07-04 15:12:28</time>
      </trkpt>
      <trkpt lat="28.62847" lon="-14.00391">
        <ele>59.2</ele>
        <time>2021-07-04 15:12:29</time>
      </trkpt>
      <trkpt lat="28.62847" lon="-14.00387">
        <ele>59.2</ele>
        <time>2021-07-04 15:12:30</time>
      </trkpt>
      <trkpt lat="28.62846" lon="-14.00384">
        <ele>59.4</ele>
        <time>2021-07-04 15:12:31</time>
      </trkpt>
      <trkpt lat="28.62845" lon="-14.0038">
        <ele>59.4</ele>
        <time>2021-07-04 15:12:32</time>
      </trkpt>
      <trkpt lat="28.62844" lon="-14.00377">
        <ele>59.4</ele>
        <time>2021-07-04 15:12:33</time>
      </trkpt>
      <trkpt lat="28.62842" lon="-14.00373">
        <ele>59.4</ele>
        <time>2021-07-04 15:12:34</time>
      </trkpt>
      <trkpt lat="28.62841" lon="-14.0037">
        <ele>59.4</ele>
        <time>2021-07-04 15:12:35</time>
      </trkpt>
      <trkpt lat="28.62839" lon="-14.00366">
        <ele>59.4</ele>
        <time>2021-07-04 15:12:36</time>
      </trkpt>
      <trkpt lat="28.62838" lon="-14.00363">
        <ele>59.4</ele>
        <time>2021-07-04 15:12:37</time>
      </trkpt>
      <trkpt lat="28.62835" lon="-14.00359">
        <ele>59.4</ele>
        <time>2021-07-04 15:12:38</time>
      </trkpt>
      <trkpt lat="28.62833" lon="-14.00356">
        <ele>59.4</ele>
        <time>2021-07-04 15:12:39</time>
      </trkpt>
      <trkpt lat="28.62832" lon="-14.00353">
        <ele>59.4</ele>
        <time>2021-07-04 15:12:40</time>
      </trkpt>
      <trkpt lat="28.62829" lon="-14.00351">
        <ele>59.4</ele>
        <time>2021-07-04 15:12:41</time>
      </trkpt>
      <trkpt lat="28.62826" lon="-14.0035">
        <ele>59.4</ele>
        <time>2021-07-04 15:12:42</time>
      </trkpt>
      <trkpt lat="28.62823" lon="-14.00348">
        <ele>59.4</ele>
        <time>2021-07-04 15:12:43</time>
      </trkpt>
      <trkpt lat="28.6282" lon="-14.00347">
        <ele>59.4</ele>
        <time>2021-07-04 15:12:44</time>
      </trkpt>
      <trkpt lat="28.62816" lon="-14.00346">
        <ele>59.4</ele>
        <time>2021-07-04 15:12:45</time>
      </trkpt>
      <trkpt lat="28.62813" lon="-14.00345">
        <ele>59.6</ele>
        <time>2021-07-04 15:12:46</time>
      </trkpt>
      <trkpt lat="28.62809" lon="-14.00344">
        <ele>59.6</ele>
        <time>2021-07-04 15:12:47</time>
      </trkpt>
      <trkpt lat="28.62806" lon="-14.00344">
        <ele>59.6</ele>
        <time>2021-07-04 15:12:48</time>
      </trkpt>
      <trkpt lat="28.62802" lon="-14.00344">
        <ele>59.8</ele>
        <time>2021-07-04 15:12:49</time>
      </trkpt>
      <trkpt lat="28.62798" lon="-14.00344">
        <ele>59.8</ele>
        <time>2021-07-04 15:12:50</time>
      </trkpt>
      <trkpt lat="28.62795" lon="-14.00343">
        <ele>60.2</ele>
        <time>2021-07-04 15:12:51</time>
      </trkpt>
      <trkpt lat="28.62791" lon="-14.00343">
        <ele>60.2</ele>
        <time>2021-07-04 15:12:52</time>
      </trkpt>
      <trkpt lat="28.62787" lon="-14.00343">
        <ele>60.2</ele>
        <time>2021-07-04 15:12:53</time>
      </trkpt>
      <trkpt lat="28.62784" lon="-14.00342">
        <ele>60.4</ele>
        <time>2021-07-04 15:12:54</time>
      </trkpt>
      <trkpt lat="28.6278" lon="-14.00342">
        <ele>60.4</ele>
        <time>2021-07-04 15:12:55</time>
      </trkpt>
      <trkpt lat="28.62777" lon="-14.00341">
        <ele>60.4</ele>
        <time>2021-07-04 15:12:56</time>
      </trkpt>
      <trkpt lat="28.62773" lon="-14.00341">
        <ele>60.6</ele>
        <time>2021-07-04 15:12:57</time>
      </trkpt>
      <trkpt lat="28.62769" lon="-14.0034">
        <ele>60.6</ele>
        <time>2021-07-04 15:12:58</time>
      </trkpt>
      <trkpt lat="28.62766" lon="-14.00339">
        <ele>60.6</ele>
        <time>2021-07-04 15:12:59</time>
      </trkpt>
      <trkpt lat="28.62762" lon="-14.00339">
        <ele>60.8</ele>
        <time>2021-07-04 15:13:00</time>
      </trkpt>
      <trkpt lat="28.62758" lon="-14.00338">
        <ele>60.8</ele>
        <time>2021-07-04 15:13:01</time>
      </trkpt>
      <trkpt lat="28.62755" lon="-14.00338">
        <ele>60.8</ele>
        <time>2021-07-04 15:13:02</time>
      </trkpt>
      <trkpt lat="28.62751" lon="-14.00337">
        <ele>60.8</ele>
        <time>2021-07-04 15:13:03</time>
      </trkpt>
      <trkpt lat="28.62747" lon="-14.00337">
        <ele>60.8</ele>
        <time>2021-07-04 15:13:04</time>
      </trkpt>
      <trkpt lat="28.62743" lon="-14.00336">
        <ele>60.8</ele>
        <time>2021-07-04 15:13:05</time>
      </trkpt>
      <trkpt lat="28.62739" lon="-14.00335">
        <ele>60.8</ele>
        <time>2021-07-04 15:13:06</time>
      </trkpt>
      <trkpt lat="28.62736" lon="-14.00334">
        <ele>60.8</ele>
        <time>2021-07-04 15:13:07</time>
      </trkpt>
      <trkpt lat="28.62732" lon="-14.00333">
        <ele>60.8</ele>
        <time>2021-07-04 15:13:08</time>
      </trkpt>
      <trkpt lat="28.62728" lon="-14.00332">
        <ele>60.8</ele>
        <time>2021-07-04 15:13:09</time>
      </trkpt>
      <trkpt lat="28.62724" lon="-14.0033">
        <ele>61.2</ele>
        <time>2021-07-04 15:13:10</time>
      </trkpt>
      <trkpt lat="28.62721" lon="-14.00329">
        <ele>61.2</ele>
        <time>2021-07-04 15:13:11</time>
      </trkpt>
      <trkpt lat="28.62717" lon="-14.00327">
        <ele>61.2</ele>
        <time>2021-07-04 15:13:12</time>
      </trkpt>
      <trkpt lat="28.62714" lon="-14.00326">
        <ele>61.2</ele>
        <time>2021-07-04 15:13:13</time>
      </trkpt>
      <trkpt lat="28.6271" lon="-14.00324">
        <ele>61.4</ele>
        <time>2021-07-04 15:13:14</time>
      </trkpt>
      <trkpt lat="28.62707" lon="-14.00322">
        <ele>61.4</ele>
        <time>2021-07-04 15:13:15</time>
      </trkpt>
      <trkpt lat="28.62704" lon="-14.0032">
        <ele>61.4</ele>
        <time>2021-07-04 15:13:16</time>
      </trkpt>
      <trkpt lat="28.62701" lon="-14.00317">
        <ele>61.4</ele>
        <time>2021-07-04 15:13:17</time>
      </trkpt>
      <trkpt lat="28.62698" lon="-14.00315">
        <ele>61.6</ele>
        <time>2021-07-04 15:13:18</time>
      </trkpt>
      <trkpt lat="28.62695" lon="-14.00313">
        <ele>61.6</ele>
        <time>2021-07-04 15:13:19</time>
      </trkpt>
      <trkpt lat="28.62692" lon="-14.00311">
        <ele>61.6</ele>
        <time>2021-07-04 15:13:20</time>
      </trkpt>
      <trkpt lat="28.6269" lon="-14.00308">
        <ele>61.6</ele>
        <time>2021-07-04 15:13:21</time>
      </trkpt>
      <trkpt lat="28.62687" lon="-14.00305">
        <ele>61.6</ele>
        <time>2021-07-04 15:13:22</time>
      </trkpt>
      <trkpt lat="28.62684" lon="-14.00303">
        <ele>61.8</ele>
        <time>2021-07-04 15:13:23</time>
      </trkpt>
      <trkpt lat="28.62682" lon="-14.00299">
        <ele>61.8</ele>
        <time>2021-07-04 15:13:24</time>
      </trkpt>
      <trkpt lat="28.6268" lon="-14.00295">
        <ele>61.8</ele>
        <time>2021-07-04 15:13:25</time>
      </trkpt>
      <trkpt lat="28.62678" lon="-14.00292">
        <ele>61.8</ele>
        <time>2021-07-04 15:13:26</time>
      </trkpt>
      <trkpt lat="28.62675" lon="-14.00288">
        <ele>61.8</ele>
        <time>2021-07-04 15:13:27</time>
      </trkpt>
      <trkpt lat="28.62672" lon="-14.00286">
        <ele>62.2</ele>
        <time>2021-07-04 15:13:28</time>
      </trkpt>
      <trkpt lat="28.62669" lon="-14.00284">
        <ele>62.2</ele>
        <time>2021-07-04 15:13:29</time>
      </trkpt>
      <trkpt lat="28.62666" lon="-14.00281">
        <ele>62.2</ele>
        <time>2021-07-04 15:13:30</time>
      </trkpt>
      <trkpt lat="28.62663" lon="-14.00279">
        <ele>62.2</ele>
        <time>2021-07-04 15:13:31</time>
      </trkpt>
      <trkpt lat="28.6266" lon="-14.00277">
        <ele>62.2</ele>
        <time>2021-07-04 15:13:32</time>
      </trkpt>
      <trkpt lat="28.62657" lon="-14.00275">
        <ele>62.2</ele>
        <time>2021-07-04 15:13:33</time>
      </trkpt>
      <trkpt lat="28.62653" lon="-14.00273">
        <ele>62.2</ele>
        <time>2021-07-04 15:13:34</time>
      </trkpt>
      <trkpt lat="28.6265" lon="-14.00271">
        <ele>62.2</ele>
        <time>2021-07-04 15:13:35</time>
      </trkpt>
      <trkpt lat="28.62646" lon="-14.00269">
        <ele>62.2</ele>
        <time>2021-07-04 15:13:36</time>
      </trkpt>
      <trkpt lat="28.62643" lon="-14.00267">
        <ele>62.2</ele>
        <time>2021-07-04 15:13:37</time>
      </trkpt>
      <trkpt lat="28.6264" lon="-14.00264">
        <ele>62.4</ele>
        <time>2021-07-04 15:13:38</time>
      </trkpt>
      <trkpt lat="28.62638" lon="-14.00261">
        <ele>62.4</ele>
        <time>2021-07-04 15:13:39</time>
      </trkpt>
      <trkpt lat="28.62636" lon="-14.00257">
        <ele>62.4</ele>
        <time>2021-07-04 15:13:40</time>
      </trkpt>
      <trkpt lat="28.62635" lon="-14.00253">
        <ele>62.4</ele>
        <time>2021-07-04 15:13:41</time>
      </trkpt>
      <trkpt lat="28.62634" lon="-14.00249">
        <ele>62.4</ele>
        <time>2021-07-04 15:13:42</time>
      </trkpt>
      <trkpt lat="28.62634" lon="-14.00246">
        <ele>62.4</ele>
        <time>2021-07-04 15:13:43</time>
      </trkpt>
      <trkpt lat="28.62633" lon="-14.00242">
        <ele>62.6</ele>
        <time>2021-07-04 15:13:44</time>
      </trkpt>
      <trkpt lat="28.62633" lon="-14.00239">
        <ele>62.6</ele>
        <time>2021-07-04 15:13:45</time>
      </trkpt>
      <trkpt lat="28.62633" lon="-14.00236">
        <ele>62.6</ele>
        <time>2021-07-04 15:13:46</time>
      </trkpt>
      <trkpt lat="28.62633" lon="-14.00233">
        <ele>62.4</ele>
        <time>2021-07-04 15:13:47</time>
      </trkpt>
      <trkpt lat="28.62633" lon="-14.0023">
        <ele>62.4</ele>
        <time>2021-07-04 15:13:48</time>
      </trkpt>
      <trkpt lat="28.62633" lon="-14.00226">
        <ele>62.4</ele>
        <time>2021-07-04 15:13:49</time>
      </trkpt>
      <trkpt lat="28.62633" lon="-14.00222">
        <ele>62.4</ele>
        <time>2021-07-04 15:13:50</time>
      </trkpt>
      <trkpt lat="28.62634" lon="-14.00219">
        <ele>62.6</ele>
        <time>2021-07-04 15:13:51</time>
      </trkpt>
      <trkpt lat="28.62634" lon="-14.00215">
        <ele>62.6</ele>
        <time>2021-07-04 15:13:52</time>
      </trkpt>
      <trkpt lat="28.62634" lon="-14.00211">
        <ele>62.6</ele>
        <time>2021-07-04 15:13:53</time>
      </trkpt>
      <trkpt lat="28.62635" lon="-14.00207">
        <ele>63</ele>
        <time>2021-07-04 15:13:54</time>
      </trkpt>
      <trkpt lat="28.62636" lon="-14.00204">
        <ele>63</ele>
        <time>2021-07-04 15:13:55</time>
      </trkpt>
      <trkpt lat="28.62637" lon="-14.002">
        <ele>63.2</ele>
        <time>2021-07-04 15:13:56</time>
      </trkpt>
      <trkpt lat="28.62638" lon="-14.00196">
        <ele>63.2</ele>
        <time>2021-07-04 15:13:57</time>
      </trkpt>
      <trkpt lat="28.62639" lon="-14.00193">
        <ele>63.2</ele>
        <time>2021-07-04 15:13:58</time>
      </trkpt>
      <trkpt lat="28.62639" lon="-14.00189">
        <ele>63.4</ele>
        <time>2021-07-04 15:13:59</time>
      </trkpt>
      <trkpt lat="28.6264" lon="-14.00185">
        <ele>63.4</ele>
        <time>2021-07-04 15:14:00</time>
      </trkpt>
      <trkpt lat="28.6264" lon="-14.00182">
        <ele>63.6</ele>
        <time>2021-07-04 15:14:01</time>
      </trkpt>
      <trkpt lat="28.6264" lon="-14.00178">
        <ele>64</ele>
        <time>2021-07-04 15:14:02</time>
      </trkpt>
      <trkpt lat="28.62639" lon="-14.00174">
        <ele>64</ele>
        <time>2021-07-04 15:14:03</time>
      </trkpt>
      <trkpt lat="28.62638" lon="-14.0017">
        <ele>64.2</ele>
        <time>2021-07-04 15:14:04</time>
      </trkpt>
      <trkpt lat="28.62637" lon="-14.00167">
        <ele>64.2</ele>
        <time>2021-07-04 15:14:05</time>
      </trkpt>
      <trkpt lat="28.62636" lon="-14.00163">
        <ele>64.2</ele>
        <time>2021-07-04 15:14:06</time>
      </trkpt>
      <trkpt lat="28.62635" lon="-14.00159">
        <ele>64.6</ele>
        <time>2021-07-04 15:14:07</time>
      </trkpt>
      <trkpt lat="28.62634" lon="-14.00156">
        <ele>64.6</ele>
        <time>2021-07-04 15:14:08</time>
      </trkpt>
      <trkpt lat="28.62633" lon="-14.00152">
        <ele>64.8</ele>
        <time>2021-07-04 15:14:09</time>
      </trkpt>
      <trkpt lat="28.62632" lon="-14.00148">
        <ele>64.8</ele>
        <time>2021-07-04 15:14:10</time>
      </trkpt>
      <trkpt lat="28.62631" lon="-14.00144">
        <ele>64.8</ele>
        <time>2021-07-04 15:14:11</time>
      </trkpt>
      <trkpt lat="28.62629" lon="-14.00141">
        <ele>64.8</ele>
        <time>2021-07-04 15:14:12</time>
      </trkpt>
      <trkpt lat="28.62627" lon="-14.00137">
        <ele>65</ele>
        <time>2021-07-04 15:14:13</time>
      </trkpt>
      <trkpt lat="28.62625" lon="-14.00134">
        <ele>65</ele>
        <time>2021-07-04 15:14:14</time>
      </trkpt>
      <trkpt lat="28.62623" lon="-14.0013">
        <ele>65.4</ele>
        <time>2021-07-04 15:14:15</time>
      </trkpt>
      <trkpt lat="28.6262" lon="-14.00128">
        <ele>65.4</ele>
        <time>2021-07-04 15:14:16</time>
      </trkpt>
      <trkpt lat="28.62618" lon="-14.00125">
        <ele>65.4</ele>
        <time>2021-07-04 15:14:17</time>
      </trkpt>
      <trkpt lat="28.62615" lon="-14.00122">
        <ele>65.4</ele>
        <time>2021-07-04 15:14:18</time>
      </trkpt>
      <trkpt lat="28.62612" lon="-14.00119">
        <ele>65.4</ele>
        <time>2021-07-04 15:14:19</time>
      </trkpt>
      <trkpt lat="28.6261" lon="-14.00115">
        <ele>65.4</ele>
        <time>2021-07-04 15:14:20</time>
      </trkpt>
      <trkpt lat="28.62608" lon="-14.00112">
        <ele>65.6</ele>
        <time>2021-07-04 15:14:21</time>
      </trkpt>
      <trkpt lat="28.62606" lon="-14.00108">
        <ele>65.6</ele>
        <time>2021-07-04 15:14:22</time>
      </trkpt>
      <trkpt lat="28.62605" lon="-14.00104">
        <ele>65.6</ele>
        <time>2021-07-04 15:14:23</time>
      </trkpt>
      <trkpt lat="28.62603" lon="-14.001">
        <ele>65.6</ele>
        <time>2021-07-04 15:14:24</time>
      </trkpt>
      <trkpt lat="28.62602" lon="-14.00097">
        <ele>65.8</ele>
        <time>2021-07-04 15:14:25</time>
      </trkpt>
      <trkpt lat="28.626" lon="-14.00093">
        <ele>65.8</ele>
        <time>2021-07-04 15:14:26</time>
      </trkpt>
      <trkpt lat="28.62598" lon="-14.0009">
        <ele>66.2</ele>
        <time>2021-07-04 15:14:27</time>
      </trkpt>
      <trkpt lat="28.62597" lon="-14.00087">
        <ele>66.2</ele>
        <time>2021-07-04 15:14:28</time>
      </trkpt>
      <trkpt lat="28.62594" lon="-14.00084">
        <ele>66.4</ele>
        <time>2021-07-04 15:14:29</time>
      </trkpt>
      <trkpt lat="28.62591" lon="-14.00081">
        <ele>66.4</ele>
        <time>2021-07-04 15:14:30</time>
      </trkpt>
      <trkpt lat="28.62588" lon="-14.00078">
        <ele>66.4</ele>
        <time>2021-07-04 15:14:31</time>
      </trkpt>
      <trkpt lat="28.62585" lon="-14.00076">
        <ele>66.4</ele>
        <time>2021-07-04 15:14:32</time>
      </trkpt>
      <trkpt lat="28.62581" lon="-14.00074">
        <ele>66.4</ele>
        <time>2021-07-04 15:14:33</time>
      </trkpt>
      <trkpt lat="28.62577" lon="-14.00073">
        <ele>66.6</ele>
        <time>2021-07-04 15:14:34</time>
      </trkpt>
      <trkpt lat="28.62573" lon="-14.00071">
        <ele>66.6</ele>
        <time>2021-07-04 15:14:35</time>
      </trkpt>
      <trkpt lat="28.62569" lon="-14.0007">
        <ele>66.6</ele>
        <time>2021-07-04 15:14:36</time>
      </trkpt>
      <trkpt lat="28.62566" lon="-14.00069">
        <ele>66.6</ele>
        <time>2021-07-04 15:14:37</time>
      </trkpt>
      <trkpt lat="28.62562" lon="-14.00068">
        <ele>66.6</ele>
        <time>2021-07-04 15:14:38</time>
      </trkpt>
      <trkpt lat="28.62559" lon="-14.00067">
        <ele>66.4</ele>
        <time>2021-07-04 15:14:39</time>
      </trkpt>
      <trkpt lat="28.62556" lon="-14.00066">
        <ele>66.4</ele>
        <time>2021-07-04 15:14:40</time>
      </trkpt>
      <trkpt lat="28.62553" lon="-14.00065">
        <ele>66.4</ele>
        <time>2021-07-04 15:14:41</time>
      </trkpt>
      <trkpt lat="28.6255" lon="-14.00063">
        <ele>66.4</ele>
        <time>2021-07-04 15:14:42</time>
      </trkpt>
      <trkpt lat="28.62547" lon="-14.00062">
        <ele>66.4</ele>
        <time>2021-07-04 15:14:43</time>
      </trkpt>
      <trkpt lat="28.62544" lon="-14.00061">
        <ele>66.4</ele>
        <time>2021-07-04 15:14:44</time>
      </trkpt>
      <trkpt lat="28.6254" lon="-14.0006">
        <ele>66.4</ele>
        <time>2021-07-04 15:14:45</time>
      </trkpt>
      <trkpt lat="28.62537" lon="-14.00058">
        <ele>66.4</ele>
        <time>2021-07-04 15:14:46</time>
      </trkpt>
      <trkpt lat="28.62534" lon="-14.00057">
        <ele>66.4</ele>
        <time>2021-07-04 15:14:47</time>
      </trkpt>
      <trkpt lat="28.6253" lon="-14.00055">
        <ele>66.4</ele>
        <time>2021-07-04 15:14:48</time>
      </trkpt>
      <trkpt lat="28.62527" lon="-14.00053">
        <ele>66.2</ele>
        <time>2021-07-04 15:14:49</time>
      </trkpt>
      <trkpt lat="28.62524" lon="-14.0005">
        <ele>66.2</ele>
        <time>2021-07-04 15:14:50</time>
      </trkpt>
      <trkpt lat="28.62522" lon="-14.00048">
        <ele>65.8</ele>
        <time>2021-07-04 15:14:51</time>
      </trkpt>
      <trkpt lat="28.62519" lon="-14.00046">
        <ele>65.8</ele>
        <time>2021-07-04 15:14:52</time>
      </trkpt>
      <trkpt lat="28.62516" lon="-14.00043">
        <ele>65.8</ele>
        <time>2021-07-04 15:14:53</time>
      </trkpt>
      <trkpt lat="28.62513" lon="-14.00041">
        <ele>65.8</ele>
        <time>2021-07-04 15:14:54</time>
      </trkpt>
      <trkpt lat="28.62511" lon="-14.00039">
        <ele>65.8</ele>
        <time>2021-07-04 15:14:55</time>
      </trkpt>
      <trkpt lat="28.62508" lon="-14.00036">
        <ele>65.8</ele>
        <time>2021-07-04 15:14:56</time>
      </trkpt>
      <trkpt lat="28.62506" lon="-14.00034">
        <ele>65.8</ele>
        <time>2021-07-04 15:14:57</time>
      </trkpt>
      <trkpt lat="28.62504" lon="-14.00032">
        <ele>65.8</ele>
        <time>2021-07-04 15:14:58</time>
      </trkpt>
      <trkpt lat="28.62502" lon="-14.0003">
        <ele>65.6</ele>
        <time>2021-07-04 15:14:59</time>
      </trkpt>
      <trkpt lat="28.62499" lon="-14.00028">
        <ele>65.6</ele>
        <time>2021-07-04 15:15:00</time>
      </trkpt>
      <trkpt lat="28.62497" lon="-14.00026">
        <ele>65.6</ele>
        <time>2021-07-04 15:15:01</time>
      </trkpt>
      <trkpt lat="28.62494" lon="-14.00024">
        <ele>65.6</ele>
        <time>2021-07-04 15:15:02</time>
      </trkpt>
      <trkpt lat="28.62492" lon="-14.00022">
        <ele>66</ele>
        <time>2021-07-04 15:15:03</time>
      </trkpt>
      <trkpt lat="28.6249" lon="-14.0002">
        <ele>66</ele>
        <time>2021-07-04 15:15:04</time>
      </trkpt>
      <trkpt lat="28.62487" lon="-14.00018">
        <ele>66.2</ele>
        <time>2021-07-04 15:15:05</time>
      </trkpt>
      <trkpt lat="28.62485" lon="-14.00016">
        <ele>66.2</ele>
        <time>2021-07-04 15:15:06</time>
      </trkpt>
      <trkpt lat="28.62482" lon="-14.00015">
        <ele>66.2</ele>
        <time>2021-07-04 15:15:07</time>
      </trkpt>
      <trkpt lat="28.62479" lon="-14.00014">
        <ele>66.4</ele>
        <time>2021-07-04 15:15:08</time>
      </trkpt>
      <trkpt lat="28.62477" lon="-14.00012">
        <ele>66.4</ele>
        <time>2021-07-04 15:15:09</time>
      </trkpt>
      <trkpt lat="28.62474" lon="-14.00011">
        <ele>66.4</ele>
        <time>2021-07-04 15:15:10</time>
      </trkpt>
      <trkpt lat="28.62472" lon="-14.00009">
        <ele>66.4</ele>
        <time>2021-07-04 15:15:11</time>
      </trkpt>
      <trkpt lat="28.62469" lon="-14.00008">
        <ele>66.6</ele>
        <time>2021-07-04 15:15:12</time>
      </trkpt>
      <trkpt lat="28.62465" lon="-14.00007">
        <ele>66.6</ele>
        <time>2021-07-04 15:15:13</time>
      </trkpt>
      <trkpt lat="28.62462" lon="-14.00007">
        <ele>66.6</ele>
        <time>2021-07-04 15:15:14</time>
      </trkpt>
      <trkpt lat="28.6246" lon="-14.00008">
        <ele>66.6</ele>
        <time>2021-07-04 15:15:15</time>
      </trkpt>
      <trkpt lat="28.62458" lon="-14.0001">
        <ele>67</ele>
        <time>2021-07-04 15:15:16</time>
      </trkpt>
      <trkpt lat="28.62457" lon="-14.00011">
        <ele>67</ele>
        <time>2021-07-04 15:15:17</time>
      </trkpt>
      <trkpt lat="28.62457" lon="-14.00013">
        <ele>67</ele>
        <time>2021-07-04 15:15:18</time>
      </trkpt>
      <trkpt lat="28.62457" lon="-14.00016">
        <ele>67</ele>
        <time>2021-07-04 15:15:19</time>
      </trkpt>
      <trkpt lat="28.62458" lon="-14.00019">
        <ele>67</ele>
        <time>2021-07-04 15:15:20</time>
      </trkpt>
      <trkpt lat="28.6246" lon="-14.00022">
        <ele>66.8</ele>
        <time>2021-07-04 15:15:21</time>
      </trkpt>
      <trkpt lat="28.62462" lon="-14.00024">
        <ele>66.8</ele>
        <time>2021-07-04 15:15:22</time>
      </trkpt>
      <trkpt lat="28.62465" lon="-14.00026">
        <ele>66.8</ele>
        <time>2021-07-04 15:15:23</time>
      </trkpt>
      <trkpt lat="28.62468" lon="-14.00028">
        <ele>66.8</ele>
        <time>2021-07-04 15:15:24</time>
      </trkpt>
      <trkpt lat="28.62471" lon="-14.0003">
        <ele>66.8</ele>
        <time>2021-07-04 15:15:25</time>
      </trkpt>
      <trkpt lat="28.62474" lon="-14.00032">
        <ele>66.8</ele>
        <time>2021-07-04 15:15:26</time>
      </trkpt>
      <trkpt lat="28.62477" lon="-14.00034">
        <ele>66.8</ele>
        <time>2021-07-04 15:15:27</time>
      </trkpt>
      <trkpt lat="28.6248" lon="-14.00036">
        <ele>66.8</ele>
        <time>2021-07-04 15:15:28</time>
      </trkpt>
      <trkpt lat="28.62483" lon="-14.00037">
        <ele>66.8</ele>
        <time>2021-07-04 15:15:29</time>
      </trkpt>
      <trkpt lat="28.62485" lon="-14.00039">
        <ele>66.8</ele>
        <time>2021-07-04 15:15:30</time>
      </trkpt>
      <trkpt lat="28.62487" lon="-14.00042">
        <ele>66.8</ele>
        <time>2021-07-04 15:15:31</time>
      </trkpt>
      <trkpt lat="28.62489" lon="-14.00045">
        <ele>66.8</ele>
        <time>2021-07-04 15:15:32</time>
      </trkpt>
      <trkpt lat="28.6249" lon="-14.00048">
        <ele>66.8</ele>
        <time>2021-07-04 15:15:33</time>
      </trkpt>
      <trkpt lat="28.62491" lon="-14.00052">
        <ele>66.8</ele>
        <time>2021-07-04 15:15:34</time>
      </trkpt>
      <trkpt lat="28.62491" lon="-14.00055">
        <ele>67</ele>
        <time>2021-07-04 15:15:35</time>
      </trkpt>
      <trkpt lat="28.62491" lon="-14.00058">
        <ele>67</ele>
        <time>2021-07-04 15:15:36</time>
      </trkpt>
      <trkpt lat="28.62491" lon="-14.00061">
        <ele>67.2</ele>
        <time>2021-07-04 15:15:37</time>
      </trkpt>
      <trkpt lat="28.6249" lon="-14.00064">
        <ele>67.2</ele>
        <time>2021-07-04 15:15:38</time>
      </trkpt>
      <trkpt lat="28.6249" lon="-14.00067">
        <ele>67.6</ele>
        <time>2021-07-04 15:15:39</time>
      </trkpt>
      <trkpt lat="28.62489" lon="-14.00069">
        <ele>67.6</ele>
        <time>2021-07-04 15:15:40</time>
      </trkpt>
      <trkpt lat="28.62489" lon="-14.00072">
        <ele>68</ele>
        <time>2021-07-04 15:15:41</time>
      </trkpt>
      <trkpt lat="28.62489" lon="-14.00074">
        <ele>68.4</ele>
        <time>2021-07-04 15:15:42</time>
      </trkpt>
      <trkpt lat="28.62488" lon="-14.00076">
        <ele>68.6</ele>
        <time>2021-07-04 15:15:43</time>
      </trkpt>
      <trkpt lat="28.62488" lon="-14.00078">
        <ele>68.8</ele>
        <time>2021-07-04 15:15:44</time>
      </trkpt>
      <trkpt lat="28.62488" lon="-14.00079">
        <ele>68.8</ele>
        <time>2021-07-04 15:15:45</time>
      </trkpt>
      <trkpt lat="28.62487" lon="-14.00082">
        <ele>69.2</ele>
        <time>2021-07-04 15:15:46</time>
      </trkpt>
      <trkpt lat="28.62488" lon="-14.00084">
        <ele>69.4</ele>
        <time>2021-07-04 15:15:47</time>
      </trkpt>
      <trkpt lat="28.62488" lon="-14.00087">
        <ele>69.6</ele>
        <time>2021-07-04 15:15:48</time>
      </trkpt>
      <trkpt lat="28.62488" lon="-14.00089">
        <ele>70</ele>
        <time>2021-07-04 15:15:49</time>
      </trkpt>
      <trkpt lat="28.62488" lon="-14.00091">
        <ele>70</ele>
        <time>2021-07-04 15:15:50</time>
      </trkpt>
      <trkpt lat="28.62489" lon="-14.00093">
        <ele>70.2</ele>
        <time>2021-07-04 15:15:51</time>
      </trkpt>
      <trkpt lat="28.62489" lon="-14.00095">
        <ele>70.2</ele>
        <time>2021-07-04 15:15:52</time>
      </trkpt>
      <trkpt lat="28.62489" lon="-14.00097">
        <ele>70.6</ele>
        <time>2021-07-04 15:15:53</time>
      </trkpt>
      <trkpt lat="28.6249" lon="-14.001">
        <ele>70.6</ele>
        <time>2021-07-04 15:15:54</time>
      </trkpt>
      <trkpt lat="28.6249" lon="-14.00102">
        <ele>70.8</ele>
        <time>2021-07-04 15:15:55</time>
      </trkpt>
      <trkpt lat="28.6249" lon="-14.00104">
        <ele>70.8</ele>
        <time>2021-07-04 15:15:56</time>
      </trkpt>
      <trkpt lat="28.62491" lon="-14.00107">
        <ele>71.2</ele>
        <time>2021-07-04 15:15:57</time>
      </trkpt>
      <trkpt lat="28.62491" lon="-14.00109">
        <ele>71.4</ele>
        <time>2021-07-04 15:15:58</time>
      </trkpt>
      <trkpt lat="28.62491" lon="-14.00111">
        <ele>71.6</ele>
        <time>2021-07-04 15:15:59</time>
      </trkpt>
      <trkpt lat="28.62492" lon="-14.00114">
        <ele>72</ele>
        <time>2021-07-04 15:16:00</time>
      </trkpt>
      <trkpt lat="28.62492" lon="-14.00116">
        <ele>72.2</ele>
        <time>2021-07-04 15:16:01</time>
      </trkpt>
      <trkpt lat="28.62492" lon="-14.00118">
        <ele>72.6</ele>
        <time>2021-07-04 15:16:02</time>
      </trkpt>
      <trkpt lat="28.62493" lon="-14.0012">
        <ele>72.8</ele>
        <time>2021-07-04 15:16:03</time>
      </trkpt>
      <trkpt lat="28.62493" lon="-14.00122">
        <ele>73</ele>
        <time>2021-07-04 15:16:04</time>
      </trkpt>
      <trkpt lat="28.62493" lon="-14.00123">
        <ele>73.2</ele>
        <time>2021-07-04 15:16:05</time>
      </trkpt>
      <trkpt lat="28.62493" lon="-14.00125">
        <ele>73.4</ele>
        <time>2021-07-04 15:16:06</time>
      </trkpt>
      <trkpt lat="28.62493" lon="-14.00127">
        <ele>73.6</ele>
        <time>2021-07-04 15:16:07</time>
      </trkpt>
      <trkpt lat="28.62494" lon="-14.00129">
        <ele>73.6</ele>
        <time>2021-07-04 15:16:08</time>
      </trkpt>
      <trkpt lat="28.62494" lon="-14.00131">
        <ele>73.8</ele>
        <time>2021-07-04 15:16:09</time>
      </trkpt>
      <trkpt lat="28.62494" lon="-14.00133">
        <ele>73.8</ele>
        <time>2021-07-04 15:16:10</time>
      </trkpt>
      <trkpt lat="28.62495" lon="-14.00135">
        <ele>73.8</ele>
        <time>2021-07-04 15:16:11</time>
      </trkpt>
      <trkpt lat="28.62496" lon="-14.00137">
        <ele>74.4</ele>
        <time>2021-07-04 15:16:12</time>
      </trkpt>
      <trkpt lat="28.62497" lon="-14.00139">
        <ele>74.8</ele>
        <time>2021-07-04 15:16:13</time>
      </trkpt>
      <trkpt lat="28.62497" lon="-14.00141">
        <ele>75</ele>
        <time>2021-07-04 15:16:14</time>
      </trkpt>
      <trkpt lat="28.62498" lon="-14.00143">
        <ele>75.4</ele>
        <time>2021-07-04 15:16:15</time>
      </trkpt>
      <trkpt lat="28.62498" lon="-14.00145">
        <ele>75.6</ele>
        <time>2021-07-04 15:16:16</time>
      </trkpt>
      <trkpt lat="28.62498" lon="-14.00148">
        <ele>75.8</ele>
        <time>2021-07-04 15:16:17</time>
      </trkpt>
      <trkpt lat="28.62498" lon="-14.0015">
        <ele>76</ele>
        <time>2021-07-04 15:16:18</time>
      </trkpt>
      <trkpt lat="28.62498" lon="-14.00152">
        <ele>76.4</ele>
        <time>2021-07-04 15:16:19</time>
      </trkpt>
      <trkpt lat="28.62498" lon="-14.00154">
        <ele>76.6</ele>
        <time>2021-07-04 15:16:20</time>
      </trkpt>
      <trkpt lat="28.62499" lon="-14.00157">
        <ele>77</ele>
        <time>2021-07-04 15:16:21</time>
      </trkpt>
      <trkpt lat="28.62499" lon="-14.00159">
        <ele>77.2</ele>
        <time>2021-07-04 15:16:22</time>
      </trkpt>
      <trkpt lat="28.62499" lon="-14.00162">
        <ele>77.2</ele>
        <time>2021-07-04 15:16:23</time>
      </trkpt>
      <trkpt lat="28.62499" lon="-14.00164">
        <ele>77.6</ele>
        <time>2021-07-04 15:16:24</time>
      </trkpt>
      <trkpt lat="28.62499" lon="-14.00167">
        <ele>77.6</ele>
        <time>2021-07-04 15:16:25</time>
      </trkpt>
      <trkpt lat="28.62498" lon="-14.00169">
        <ele>77.8</ele>
        <time>2021-07-04 15:16:26</time>
      </trkpt>
      <trkpt lat="28.62498" lon="-14.00172">
        <ele>77.8</ele>
        <time>2021-07-04 15:16:27</time>
      </trkpt>
      <trkpt lat="28.62498" lon="-14.00174">
        <ele>78.2</ele>
        <time>2021-07-04 15:16:28</time>
      </trkpt>
      <trkpt lat="28.62498" lon="-14.00176">
        <ele>78.2</ele>
        <time>2021-07-04 15:16:29</time>
      </trkpt>
      <trkpt lat="28.62498" lon="-14.00178">
        <ele>78.4</ele>
        <time>2021-07-04 15:16:30</time>
      </trkpt>
      <trkpt lat="28.62497" lon="-14.0018">
        <ele>78.4</ele>
        <time>2021-07-04 15:16:31</time>
      </trkpt>
      <trkpt lat="28.62497" lon="-14.00182">
        <ele>78.4</ele>
        <time>2021-07-04 15:16:32</time>
      </trkpt>
      <trkpt lat="28.62496" lon="-14.00185">
        <ele>78.8</ele>
        <time>2021-07-04 15:16:33</time>
      </trkpt>
      <trkpt lat="28.62495" lon="-14.00187">
        <ele>78.8</ele>
        <time>2021-07-04 15:16:34</time>
      </trkpt>
      <trkpt lat="28.62494" lon="-14.00189">
        <ele>78.8</ele>
        <time>2021-07-04 15:16:35</time>
      </trkpt>
      <trkpt lat="28.62493" lon="-14.00191">
        <ele>79</ele>
        <time>2021-07-04 15:16:36</time>
      </trkpt>
      <trkpt lat="28.62492" lon="-14.00193">
        <ele>79</ele>
        <time>2021-07-04 15:16:37</time>
      </trkpt>
      <trkpt lat="28.6249" lon="-14.00195">
        <ele>79.2</ele>
        <time>2021-07-04 15:16:38</time>
      </trkpt>
      <trkpt lat="28.62489" lon="-14.00197">
        <ele>79.2</ele>
        <time>2021-07-04 15:16:39</time>
      </trkpt>
      <trkpt lat="28.62488" lon="-14.00198">
        <ele>79.2</ele>
        <time>2021-07-04 15:16:40</time>
      </trkpt>
      <trkpt lat="28.62486" lon="-14.00199">
        <ele>79.2</ele>
        <time>2021-07-04 15:16:41</time>
      </trkpt>
      <trkpt lat="28.62485" lon="-14.002">
        <ele>79.6</ele>
        <time>2021-07-04 15:16:42</time>
      </trkpt>
      <trkpt lat="28.62483" lon="-14.00202">
        <ele>79.6</ele>
        <time>2021-07-04 15:16:43</time>
      </trkpt>
      <trkpt lat="28.62482" lon="-14.00202">
        <ele>79.6</ele>
        <time>2021-07-04 15:16:44</time>
      </trkpt>
      <trkpt lat="28.62481" lon="-14.00203">
        <ele>79.8</ele>
        <time>2021-07-04 15:16:45</time>
      </trkpt>
      <trkpt lat="28.62479" lon="-14.00204">
        <ele>79.8</ele>
        <time>2021-07-04 15:16:46</time>
      </trkpt>
      <trkpt lat="28.62478" lon="-14.00205">
        <ele>80.2</ele>
        <time>2021-07-04 15:16:47</time>
      </trkpt>
      <trkpt lat="28.62477" lon="-14.00206">
        <ele>80.4</ele>
        <time>2021-07-04 15:16:48</time>
      </trkpt>
      <trkpt lat="28.62475" lon="-14.00207">
        <ele>80.4</ele>
        <time>2021-07-04 15:16:49</time>
      </trkpt>
      <trkpt lat="28.62473" lon="-14.00208">
        <ele>80.8</ele>
        <time>2021-07-04 15:16:50</time>
      </trkpt>
      <trkpt lat="28.62471" lon="-14.00209">
        <ele>80.8</ele>
        <time>2021-07-04 15:16:51</time>
      </trkpt>
      <trkpt lat="28.62469" lon="-14.00209">
        <ele>81</ele>
        <time>2021-07-04 15:16:52</time>
      </trkpt>
      <trkpt lat="28.62468" lon="-14.00209">
        <ele>81.2</ele>
        <time>2021-07-04 15:16:53</time>
      </trkpt>
      <trkpt lat="28.62466" lon="-14.0021">
        <ele>81.2</ele>
        <time>2021-07-04 15:16:54</time>
      </trkpt>
      <trkpt lat="28.62465" lon="-14.00211">
        <ele>81.6</ele>
        <time>2021-07-04 15:16:55</time>
      </trkpt>
      <trkpt lat="28.62463" lon="-14.00211">
        <ele>81.8</ele>
        <time>2021-07-04 15:16:56</time>
      </trkpt>
      <trkpt lat="28.62461" lon="-14.00211">
        <ele>82.2</ele>
        <time>2021-07-04 15:16:57</time>
      </trkpt>
      <trkpt lat="28.6246" lon="-14.00211">
        <ele>82.4</ele>
        <time>2021-07-04 15:16:58</time>
      </trkpt>
      <trkpt lat="28.62458" lon="-14.00211">
        <ele>82.8</ele>
        <time>2021-07-04 15:16:59</time>
      </trkpt>
      <trkpt lat="28.62456" lon="-14.00211">
        <ele>83.2</ele>
        <time>2021-07-04 15:17:00</time>
      </trkpt>
      <trkpt lat="28.62455" lon="-14.00211">
        <ele>83.6</ele>
        <time>2021-07-04 15:17:01</time>
      </trkpt>
      <trkpt lat="28.62453" lon="-14.0021">
        <ele>83.8</ele>
        <time>2021-07-04 15:17:02</time>
      </trkpt>
      <trkpt lat="28.62451" lon="-14.0021">
        <ele>84.2</ele>
        <time>2021-07-04 15:17:03</time>
      </trkpt>
      <trkpt lat="28.62449" lon="-14.00208">
        <ele>84.6</ele>
        <time>2021-07-04 15:17:04</time>
      </trkpt>
      <trkpt lat="28.62447" lon="-14.00207">
        <ele>84.8</ele>
        <time>2021-07-04 15:17:05</time>
      </trkpt>
      <trkpt lat="28.62445" lon="-14.00206">
        <ele>85.2</ele>
        <time>2021-07-04 15:17:06</time>
      </trkpt>
      <trkpt lat="28.62444" lon="-14.00205">
        <ele>85.4</ele>
        <time>2021-07-04 15:17:07</time>
      </trkpt>
      <trkpt lat="28.62442" lon="-14.00204">
        <ele>85.6</ele>
        <time>2021-07-04 15:17:08</time>
      </trkpt>
      <trkpt lat="28.6244" lon="-14.00203">
        <ele>86</ele>
        <time>2021-07-04 15:17:09</time>
      </trkpt>
      <trkpt lat="28.62438" lon="-14.00203">
        <ele>86.2</ele>
        <time>2021-07-04 15:17:10</time>
      </trkpt>
      <trkpt lat="28.62437" lon="-14.00202">
        <ele>86.6</ele>
        <time>2021-07-04 15:17:11</time>
      </trkpt>
      <trkpt lat="28.62435" lon="-14.00201">
        <ele>86.8</ele>
        <time>2021-07-04 15:17:12</time>
      </trkpt>
      <trkpt lat="28.62433" lon="-14.002">
        <ele>87.2</ele>
        <time>2021-07-04 15:17:13</time>
      </trkpt>
      <trkpt lat="28.62431" lon="-14.00199">
        <ele>87.4</ele>
        <time>2021-07-04 15:17:14</time>
      </trkpt>
      <trkpt lat="28.62429" lon="-14.00197">
        <ele>87.8</ele>
        <time>2021-07-04 15:17:15</time>
      </trkpt>
      <trkpt lat="28.62427" lon="-14.00196">
        <ele>88</ele>
        <time>2021-07-04 15:17:16</time>
      </trkpt>
      <trkpt lat="28.62425" lon="-14.00195">
        <ele>88</ele>
        <time>2021-07-04 15:17:17</time>
      </trkpt>
      <trkpt lat="28.62423" lon="-14.00193">
        <ele>88.4</ele>
        <time>2021-07-04 15:17:18</time>
      </trkpt>
      <trkpt lat="28.62421" lon="-14.00192">
        <ele>88.4</ele>
        <time>2021-07-04 15:17:19</time>
      </trkpt>
      <trkpt lat="28.6242" lon="-14.0019">
        <ele>88.8</ele>
        <time>2021-07-04 15:17:20</time>
      </trkpt>
      <trkpt lat="28.62418" lon="-14.00189">
        <ele>89</ele>
        <time>2021-07-04 15:17:21</time>
      </trkpt>
      <trkpt lat="28.62416" lon="-14.00188">
        <ele>89</ele>
        <time>2021-07-04 15:17:22</time>
      </trkpt>
      <trkpt lat="28.62414" lon="-14.00186">
        <ele>89.2</ele>
        <time>2021-07-04 15:17:23</time>
      </trkpt>
      <trkpt lat="28.62412" lon="-14.00185">
        <ele>89.2</ele>
        <time>2021-07-04 15:17:24</time>
      </trkpt>
      <trkpt lat="28.6241" lon="-14.00184">
        <ele>89.4</ele>
        <time>2021-07-04 15:17:25</time>
      </trkpt>
      <trkpt lat="28.62408" lon="-14.00183">
        <ele>89.4</ele>
        <time>2021-07-04 15:17:26</time>
      </trkpt>
      <trkpt lat="28.62405" lon="-14.00182">
        <ele>89.8</ele>
        <time>2021-07-04 15:17:27</time>
      </trkpt>
      <trkpt lat="28.62403" lon="-14.00181">
        <ele>89.8</ele>
        <time>2021-07-04 15:17:28</time>
      </trkpt>
      <trkpt lat="28.62401" lon="-14.0018">
        <ele>90.2</ele>
        <time>2021-07-04 15:17:29</time>
      </trkpt>
      <trkpt lat="28.62399" lon="-14.00178">
        <ele>90.4</ele>
        <time>2021-07-04 15:17:30</time>
      </trkpt>
      <trkpt lat="28.62397" lon="-14.00177">
        <ele>90.4</ele>
        <time>2021-07-04 15:17:31</time>
      </trkpt>
      <trkpt lat="28.62395" lon="-14.00176">
        <ele>90.8</ele>
        <time>2021-07-04 15:17:32</time>
      </trkpt>
      <trkpt lat="28.62393" lon="-14.00175">
        <ele>91.2</ele>
        <time>2021-07-04 15:17:33</time>
      </trkpt>
      <trkpt lat="28.62391" lon="-14.00173">
        <ele>91.2</ele>
        <time>2021-07-04 15:17:34</time>
      </trkpt>
      <trkpt lat="28.62389" lon="-14.00171">
        <ele>91.4</ele>
        <time>2021-07-04 15:17:35</time>
      </trkpt>
      <trkpt lat="28.62387" lon="-14.0017">
        <ele>91.4</ele>
        <time>2021-07-04 15:17:36</time>
      </trkpt>
      <trkpt lat="28.62385" lon="-14.00168">
        <ele>91.8</ele>
        <time>2021-07-04 15:17:37</time>
      </trkpt>
      <trkpt lat="28.62382" lon="-14.00167">
        <ele>91.8</ele>
        <time>2021-07-04 15:17:38</time>
      </trkpt>
      <trkpt lat="28.6238" lon="-14.00166">
        <ele>91.8</ele>
        <time>2021-07-04 15:17:39</time>
      </trkpt>
      <trkpt lat="28.62378" lon="-14.00165">
        <ele>91.8</ele>
        <time>2021-07-04 15:17:40</time>
      </trkpt>
      <trkpt lat="28.62376" lon="-14.00164">
        <ele>91.8</ele>
        <time>2021-07-04 15:17:41</time>
      </trkpt>
      <trkpt lat="28.62374" lon="-14.00162">
        <ele>91.8</ele>
        <time>2021-07-04 15:17:42</time>
      </trkpt>
      <trkpt lat="28.62372" lon="-14.00161">
        <ele>91.8</ele>
        <time>2021-07-04 15:17:43</time>
      </trkpt>
      <trkpt lat="28.6237" lon="-14.0016">
        <ele>92</ele>
        <time>2021-07-04 15:17:44</time>
      </trkpt>
      <trkpt lat="28.62368" lon="-14.00158">
        <ele>92</ele>
        <time>2021-07-04 15:17:45</time>
      </trkpt>
      <trkpt lat="28.62366" lon="-14.00157">
        <ele>92</ele>
        <time>2021-07-04 15:17:46</time>
      </trkpt>
      <trkpt lat="28.62363" lon="-14.00155">
        <ele>92</ele>
        <time>2021-07-04 15:17:47</time>
      </trkpt>
      <trkpt lat="28.62361" lon="-14.00154">
        <ele>92</ele>
        <time>2021-07-04 15:17:48</time>
      </trkpt>
      <trkpt lat="28.62359" lon="-14.00152">
        <ele>91.8</ele>
        <time>2021-07-04 15:17:49</time>
      </trkpt>
      <trkpt lat="28.62357" lon="-14.0015">
        <ele>91.8</ele>
        <time>2021-07-04 15:17:50</time>
      </trkpt>
      <trkpt lat="28.62355" lon="-14.00148">
        <ele>91.8</ele>
        <time>2021-07-04 15:17:51</time>
      </trkpt>
      <trkpt lat="28.62353" lon="-14.00147">
        <ele>91.8</ele>
        <time>2021-07-04 15:17:52</time>
      </trkpt>
      <trkpt lat="28.6235" lon="-14.00145">
        <ele>91.8</ele>
        <time>2021-07-04 15:17:53</time>
      </trkpt>
      <trkpt lat="28.62348" lon="-14.00143">
        <ele>91.8</ele>
        <time>2021-07-04 15:17:54</time>
      </trkpt>
      <trkpt lat="28.62345" lon="-14.00142">
        <ele>91.8</ele>
        <time>2021-07-04 15:17:55</time>
      </trkpt>
      <trkpt lat="28.62343" lon="-14.0014">
        <ele>91.8</ele>
        <time>2021-07-04 15:17:56</time>
      </trkpt>
      <trkpt lat="28.6234" lon="-14.00138">
        <ele>91.6</ele>
        <time>2021-07-04 15:17:57</time>
      </trkpt>
      <trkpt lat="28.62337" lon="-14.00137">
        <ele>91.6</ele>
        <time>2021-07-04 15:17:58</time>
      </trkpt>
      <trkpt lat="28.62334" lon="-14.00136">
        <ele>91.6</ele>
        <time>2021-07-04 15:17:59</time>
      </trkpt>
      <trkpt lat="28.62331" lon="-14.00134">
        <ele>91.6</ele>
        <time>2021-07-04 15:18:00</time>
      </trkpt>
      <trkpt lat="28.62328" lon="-14.00133">
        <ele>91.6</ele>
        <time>2021-07-04 15:18:01</time>
      </trkpt>
      <trkpt lat="28.62325" lon="-14.00132">
        <ele>91.6</ele>
        <time>2021-07-04 15:18:02</time>
      </trkpt>
      <trkpt lat="28.62321" lon="-14.00131">
        <ele>91.6</ele>
        <time>2021-07-04 15:18:03</time>
      </trkpt>
      <trkpt lat="28.62318" lon="-14.00129">
        <ele>91.6</ele>
        <time>2021-07-04 15:18:04</time>
      </trkpt>
      <trkpt lat="28.62315" lon="-14.00128">
        <ele>91.6</ele>
        <time>2021-07-04 15:18:05</time>
      </trkpt>
      <trkpt lat="28.62312" lon="-14.00126">
        <ele>91.6</ele>
        <time>2021-07-04 15:18:06</time>
      </trkpt>
      <trkpt lat="28.62308" lon="-14.00126">
        <ele>91.6</ele>
        <time>2021-07-04 15:18:07</time>
      </trkpt>
      <trkpt lat="28.62304" lon="-14.00125">
        <ele>91.6</ele>
        <time>2021-07-04 15:18:08</time>
      </trkpt>
      <trkpt lat="28.623" lon="-14.00125">
        <ele>91.6</ele>
        <time>2021-07-04 15:18:09</time>
      </trkpt>
      <trkpt lat="28.62296" lon="-14.00124">
        <ele>91.6</ele>
        <time>2021-07-04 15:18:10</time>
      </trkpt>
      <trkpt lat="28.62293" lon="-14.00123">
        <ele>91.6</ele>
        <time>2021-07-04 15:18:11</time>
      </trkpt>
      <trkpt lat="28.62289" lon="-14.00122">
        <ele>91.8</ele>
        <time>2021-07-04 15:18:12</time>
      </trkpt>
      <trkpt lat="28.62285" lon="-14.00122">
        <ele>91.8</ele>
        <time>2021-07-04 15:18:13</time>
      </trkpt>
      <trkpt lat="28.62282" lon="-14.00121">
        <ele>91.8</ele>
        <time>2021-07-04 15:18:14</time>
      </trkpt>
      <trkpt lat="28.62278" lon="-14.0012">
        <ele>92.2</ele>
        <time>2021-07-04 15:18:15</time>
      </trkpt>
      <trkpt lat="28.62274" lon="-14.00119">
        <ele>92.2</ele>
        <time>2021-07-04 15:18:16</time>
      </trkpt>
      <trkpt lat="28.6227" lon="-14.00118">
        <ele>92.2</ele>
        <time>2021-07-04 15:18:17</time>
      </trkpt>
      <trkpt lat="28.62267" lon="-14.00118">
        <ele>92.4</ele>
        <time>2021-07-04 15:18:18</time>
      </trkpt>
      <trkpt lat="28.62263" lon="-14.00117">
        <ele>92.4</ele>
        <time>2021-07-04 15:18:19</time>
      </trkpt>
      <trkpt lat="28.62259" lon="-14.00117">
        <ele>92.4</ele>
        <time>2021-07-04 15:18:20</time>
      </trkpt>
      <trkpt lat="28.62255" lon="-14.00116">
        <ele>92.6</ele>
        <time>2021-07-04 15:18:21</time>
      </trkpt>
      <trkpt lat="28.62251" lon="-14.00116">
        <ele>92.6</ele>
        <time>2021-07-04 15:18:22</time>
      </trkpt>
      <trkpt lat="28.62248" lon="-14.00116">
        <ele>92.6</ele>
        <time>2021-07-04 15:18:23</time>
      </trkpt>
      <trkpt lat="28.62244" lon="-14.00115">
        <ele>92.6</ele>
        <time>2021-07-04 15:18:24</time>
      </trkpt>
      <trkpt lat="28.6224" lon="-14.00115">
        <ele>92.6</ele>
        <time>2021-07-04 15:18:25</time>
      </trkpt>
      <trkpt lat="28.62236" lon="-14.00114">
        <ele>93</ele>
        <time>2021-07-04 15:18:26</time>
      </trkpt>
      <trkpt lat="28.62232" lon="-14.00114">
        <ele>93</ele>
        <time>2021-07-04 15:18:27</time>
      </trkpt>
      <trkpt lat="28.62228" lon="-14.00113">
        <ele>93.2</ele>
        <time>2021-07-04 15:18:28</time>
      </trkpt>
      <trkpt lat="28.62224" lon="-14.00112">
        <ele>93.2</ele>
        <time>2021-07-04 15:18:29</time>
      </trkpt>
      <trkpt lat="28.6222" lon="-14.00112">
        <ele>93.2</ele>
        <time>2021-07-04 15:18:30</time>
      </trkpt>
      <trkpt lat="28.62217" lon="-14.00111">
        <ele>93.4</ele>
        <time>2021-07-04 15:18:31</time>
      </trkpt>
      <trkpt lat="28.62213" lon="-14.0011">
        <ele>93.4</ele>
        <time>2021-07-04 15:18:32</time>
      </trkpt>
      <trkpt lat="28.62209" lon="-14.00109">
        <ele>93.6</ele>
        <time>2021-07-04 15:18:33</time>
      </trkpt>
      <trkpt lat="28.62205" lon="-14.00108">
        <ele>93.6</ele>
        <time>2021-07-04 15:18:34</time>
      </trkpt>
      <trkpt lat="28.62201" lon="-14.00108">
        <ele>93.8</ele>
        <time>2021-07-04 15:18:35</time>
      </trkpt>
      <trkpt lat="28.62197" lon="-14.00107">
        <ele>93.8</ele>
        <time>2021-07-04 15:18:36</time>
      </trkpt>
      <trkpt lat="28.62193" lon="-14.00106">
        <ele>94.2</ele>
        <time>2021-07-04 15:18:37</time>
      </trkpt>
      <trkpt lat="28.62189" lon="-14.00105">
        <ele>94.2</ele>
        <time>2021-07-04 15:18:38</time>
      </trkpt>
      <trkpt lat="28.62185" lon="-14.00105">
        <ele>94.4</ele>
        <time>2021-07-04 15:18:39</time>
      </trkpt>
      <trkpt lat="28.62181" lon="-14.00104">
        <ele>94.6</ele>
        <time>2021-07-04 15:18:40</time>
      </trkpt>
      <trkpt lat="28.62178" lon="-14.00104">
        <ele>94.6</ele>
        <time>2021-07-04 15:18:41</time>
      </trkpt>
      <trkpt lat="28.62174" lon="-14.00103">
        <ele>94.8</ele>
        <time>2021-07-04 15:18:42</time>
      </trkpt>
      <trkpt lat="28.62171" lon="-14.00102">
        <ele>94.8</ele>
        <time>2021-07-04 15:18:43</time>
      </trkpt>
      <trkpt lat="28.62167" lon="-14.00101">
        <ele>95</ele>
        <time>2021-07-04 15:18:44</time>
      </trkpt>
      <trkpt lat="28.62164" lon="-14.00101">
        <ele>95</ele>
        <time>2021-07-04 15:18:45</time>
      </trkpt>
      <trkpt lat="28.6216" lon="-14.001">
        <ele>95.2</ele>
        <time>2021-07-04 15:18:46</time>
      </trkpt>
      <trkpt lat="28.62157" lon="-14.001">
        <ele>95.2</ele>
        <time>2021-07-04 15:18:47</time>
      </trkpt>
      <trkpt lat="28.62153" lon="-14.00099">
        <ele>95.4</ele>
        <time>2021-07-04 15:18:48</time>
      </trkpt>
      <trkpt lat="28.62149" lon="-14.00099">
        <ele>95.4</ele>
        <time>2021-07-04 15:18:49</time>
      </trkpt>
      <trkpt lat="28.62145" lon="-14.00099">
        <ele>95.8</ele>
        <time>2021-07-04 15:18:50</time>
      </trkpt>
      <trkpt lat="28.62142" lon="-14.00098">
        <ele>95.8</ele>
        <time>2021-07-04 15:18:51</time>
      </trkpt>
      <trkpt lat="28.62138" lon="-14.00097">
        <ele>96</ele>
        <time>2021-07-04 15:18:52</time>
      </trkpt>
      <trkpt lat="28.62134" lon="-14.00097">
        <ele>96</ele>
        <time>2021-07-04 15:18:53</time>
      </trkpt>
      <trkpt lat="28.6213" lon="-14.00096">
        <ele>96.4</ele>
        <time>2021-07-04 15:18:54</time>
      </trkpt>
      <trkpt lat="28.62126" lon="-14.00096">
        <ele>96.4</ele>
        <time>2021-07-04 15:18:55</time>
      </trkpt>
      <trkpt lat="28.62122" lon="-14.00095">
        <ele>96.6</ele>
        <time>2021-07-04 15:18:56</time>
      </trkpt>
      <trkpt lat="28.62118" lon="-14.00095">
        <ele>96.8</ele>
        <time>2021-07-04 15:18:57</time>
      </trkpt>
      <trkpt lat="28.62114" lon="-14.00095">
        <ele>96.8</ele>
        <time>2021-07-04 15:18:58</time>
      </trkpt>
      <trkpt lat="28.6211" lon="-14.00095">
        <ele>97.2</ele>
        <time>2021-07-04 15:18:59</time>
      </trkpt>
      <trkpt lat="28.62103" lon="-14.00094">
        <ele>97.8</ele>
        <time>2021-07-04 15:19:00</time>
      </trkpt>
      <trkpt lat="28.62099" lon="-14.00094">
        <ele>97.8</ele>
        <time>2021-07-04 15:19:01</time>
      </trkpt>
      <trkpt lat="28.62095" lon="-14.00094">
        <ele>98</ele>
        <time>2021-07-04 15:19:02</time>
      </trkpt>
      <trkpt lat="28.62092" lon="-14.00093">
        <ele>98</ele>
        <time>2021-07-04 15:19:03</time>
      </trkpt>
      <trkpt lat="28.62088" lon="-14.00093">
        <ele>98.2</ele>
        <time>2021-07-04 15:19:04</time>
      </trkpt>
      <trkpt lat="28.62084" lon="-14.00093">
        <ele>98.2</ele>
        <time>2021-07-04 15:19:05</time>
      </trkpt>
      <trkpt lat="28.6208" lon="-14.00093">
        <ele>98.4</ele>
        <time>2021-07-04 15:19:06</time>
      </trkpt>
      <trkpt lat="28.62076" lon="-14.00093">
        <ele>98.4</ele>
        <time>2021-07-04 15:19:07</time>
      </trkpt>
      <trkpt lat="28.62073" lon="-14.00093">
        <ele>98.4</ele>
        <time>2021-07-04 15:19:08</time>
      </trkpt>
      <trkpt lat="28.62069" lon="-14.00093">
        <ele>98.8</ele>
        <time>2021-07-04 15:19:09</time>
      </trkpt>
      <trkpt lat="28.62065" lon="-14.00092">
        <ele>99</ele>
        <time>2021-07-04 15:19:10</time>
      </trkpt>
      <trkpt lat="28.62061" lon="-14.00092">
        <ele>99</ele>
        <time>2021-07-04 15:19:11</time>
      </trkpt>
      <trkpt lat="28.62058" lon="-14.00092">
        <ele>99.4</ele>
        <time>2021-07-04 15:19:12</time>
      </trkpt>
      <trkpt lat="28.62054" lon="-14.00093">
        <ele>99.4</ele>
        <time>2021-07-04 15:19:13</time>
      </trkpt>
      <trkpt lat="28.62049" lon="-14.00093">
        <ele>99.8</ele>
        <time>2021-07-04 15:19:14</time>
      </trkpt>
      <trkpt lat="28.62045" lon="-14.00093">
        <ele>99.8</ele>
        <time>2021-07-04 15:19:15</time>
      </trkpt>
      <trkpt lat="28.62041" lon="-14.00093">
        <ele>100</ele>
        <time>2021-07-04 15:19:16</time>
      </trkpt>
      <trkpt lat="28.62037" lon="-14.00092">
        <ele>100</ele>
        <time>2021-07-04 15:19:17</time>
      </trkpt>
      <trkpt lat="28.62032" lon="-14.00093">
        <ele>100</ele>
        <time>2021-07-04 15:19:18</time>
      </trkpt>
      <trkpt lat="28.62027" lon="-14.00093">
        <ele>100</ele>
        <time>2021-07-04 15:19:19</time>
      </trkpt>
      <trkpt lat="28.62023" lon="-14.00094">
        <ele>100</ele>
        <time>2021-07-04 15:19:20</time>
      </trkpt>
      <trkpt lat="28.62018" lon="-14.00094">
        <ele>100.2</ele>
        <time>2021-07-04 15:19:21</time>
      </trkpt>
      <trkpt lat="28.62013" lon="-14.00095">
        <ele>100.2</ele>
        <time>2021-07-04 15:19:22</time>
      </trkpt>
      <trkpt lat="28.62008" lon="-14.00095">
        <ele>100.2</ele>
        <time>2021-07-04 15:19:23</time>
      </trkpt>
      <trkpt lat="28.62003" lon="-14.00096">
        <ele>100.6</ele>
        <time>2021-07-04 15:19:24</time>
      </trkpt>
      <trkpt lat="28.61999" lon="-14.00096">
        <ele>100.6</ele>
        <time>2021-07-04 15:19:25</time>
      </trkpt>
      <trkpt lat="28.61994" lon="-14.00097">
        <ele>100.6</ele>
        <time>2021-07-04 15:19:26</time>
      </trkpt>
      <trkpt lat="28.6199" lon="-14.00098">
        <ele>100.6</ele>
        <time>2021-07-04 15:19:27</time>
      </trkpt>
      <trkpt lat="28.61985" lon="-14.00098">
        <ele>100.6</ele>
        <time>2021-07-04 15:19:28</time>
      </trkpt>
      <trkpt lat="28.61981" lon="-14.00099">
        <ele>100.6</ele>
        <time>2021-07-04 15:19:29</time>
      </trkpt>
      <trkpt lat="28.61977" lon="-14.001">
        <ele>100.6</ele>
        <time>2021-07-04 15:19:30</time>
      </trkpt>
      <trkpt lat="28.61973" lon="-14.00101">
        <ele>100.6</ele>
        <time>2021-07-04 15:19:31</time>
      </trkpt>
      <trkpt lat="28.6197" lon="-14.00101">
        <ele>100.6</ele>
        <time>2021-07-04 15:19:32</time>
      </trkpt>
      <trkpt lat="28.61966" lon="-14.00101">
        <ele>100.6</ele>
        <time>2021-07-04 15:19:33</time>
      </trkpt>
      <trkpt lat="28.61963" lon="-14.00102">
        <ele>100.6</ele>
        <time>2021-07-04 15:19:34</time>
      </trkpt>
      <trkpt lat="28.61959" lon="-14.00103">
        <ele>100.6</ele>
        <time>2021-07-04 15:19:35</time>
      </trkpt>
      <trkpt lat="28.61956" lon="-14.00103">
        <ele>100.6</ele>
        <time>2021-07-04 15:19:36</time>
      </trkpt>
      <trkpt lat="28.61952" lon="-14.00105">
        <ele>100.6</ele>
        <time>2021-07-04 15:19:37</time>
      </trkpt>
      <trkpt lat="28.61949" lon="-14.00105">
        <ele>100.6</ele>
        <time>2021-07-04 15:19:38</time>
      </trkpt>
      <trkpt lat="28.61945" lon="-14.00106">
        <ele>100.6</ele>
        <time>2021-07-04 15:19:39</time>
      </trkpt>
      <trkpt lat="28.61941" lon="-14.00106">
        <ele>100.8</ele>
        <time>2021-07-04 15:19:40</time>
      </trkpt>
      <trkpt lat="28.61938" lon="-14.00107">
        <ele>100.8</ele>
        <time>2021-07-04 15:19:41</time>
      </trkpt>
      <trkpt lat="28.61934" lon="-14.00108">
        <ele>100.8</ele>
        <time>2021-07-04 15:19:42</time>
      </trkpt>
      <trkpt lat="28.6193" lon="-14.00109">
        <ele>101</ele>
        <time>2021-07-04 15:19:43</time>
      </trkpt>
      <trkpt lat="28.61926" lon="-14.0011">
        <ele>101</ele>
        <time>2021-07-04 15:19:44</time>
      </trkpt>
      <trkpt lat="28.61921" lon="-14.0011">
        <ele>101.2</ele>
        <time>2021-07-04 15:19:45</time>
      </trkpt>
      <trkpt lat="28.61917" lon="-14.00111">
        <ele>101.2</ele>
        <time>2021-07-04 15:19:46</time>
      </trkpt>
      <trkpt lat="28.61913" lon="-14.00112">
        <ele>101.6</ele>
        <time>2021-07-04 15:19:47</time>
      </trkpt>
      <trkpt lat="28.61897" lon="-14.00114">
        <ele>101.8</ele>
        <time>2021-07-04 15:19:48</time>
      </trkpt>
      <trkpt lat="28.61894" lon="-14.00114">
        <ele>101.8</ele>
        <time>2021-07-04 15:19:49</time>
      </trkpt>
      <trkpt lat="28.6189" lon="-14.00115">
        <ele>102.2</ele>
        <time>2021-07-04 15:19:50</time>
      </trkpt>
      <trkpt lat="28.61886" lon="-14.00115">
        <ele>102.2</ele>
        <time>2021-07-04 15:19:51</time>
      </trkpt>
      <trkpt lat="28.61882" lon="-14.00116">
        <ele>102.6</ele>
        <time>2021-07-04 15:19:52</time>
      </trkpt>
      <trkpt lat="28.61877" lon="-14.00117">
        <ele>102.8</ele>
        <time>2021-07-04 15:19:53</time>
      </trkpt>
      <trkpt lat="28.61873" lon="-14.00118">
        <ele>103</ele>
        <time>2021-07-04 15:19:54</time>
      </trkpt>
      <trkpt lat="28.61869" lon="-14.00118">
        <ele>103.2</ele>
        <time>2021-07-04 15:19:55</time>
      </trkpt>
      <trkpt lat="28.61864" lon="-14.00119">
        <ele>103.2</ele>
        <time>2021-07-04 15:19:56</time>
      </trkpt>
      <trkpt lat="28.61859" lon="-14.0012">
        <ele>103.8</ele>
        <time>2021-07-04 15:19:57</time>
      </trkpt>
      <trkpt lat="28.61855" lon="-14.00121">
        <ele>104</ele>
        <time>2021-07-04 15:19:58</time>
      </trkpt>
      <trkpt lat="28.61851" lon="-14.00121">
        <ele>104.4</ele>
        <time>2021-07-04 15:19:59</time>
      </trkpt>
      <trkpt lat="28.61848" lon="-14.00122">
        <ele>104.6</ele>
        <time>2021-07-04 15:20:00</time>
      </trkpt>
      <trkpt lat="28.61844" lon="-14.00123">
        <ele>104.6</ele>
        <time>2021-07-04 15:20:01</time>
      </trkpt>
      <trkpt lat="28.6184" lon="-14.00124">
        <ele>105</ele>
        <time>2021-07-04 15:20:02</time>
      </trkpt>
      <trkpt lat="28.61836" lon="-14.00124">
        <ele>105</ele>
        <time>2021-07-04 15:20:03</time>
      </trkpt>
      <trkpt lat="28.61832" lon="-14.00125">
        <ele>105.4</ele>
        <time>2021-07-04 15:20:04</time>
      </trkpt>
      <trkpt lat="28.61823" lon="-14.00127">
        <ele>105.6</ele>
        <time>2021-07-04 15:20:05</time>
      </trkpt>
      <trkpt lat="28.61819" lon="-14.00128">
        <ele>105.6</ele>
        <time>2021-07-04 15:20:06</time>
      </trkpt>
      <trkpt lat="28.61814" lon="-14.0013">
        <ele>106</ele>
        <time>2021-07-04 15:20:07</time>
      </trkpt>
      <trkpt lat="28.61809" lon="-14.00131">
        <ele>106.2</ele>
        <time>2021-07-04 15:20:08</time>
      </trkpt>
      <trkpt lat="28.61805" lon="-14.00132">
        <ele>106.2</ele>
        <time>2021-07-04 15:20:09</time>
      </trkpt>
      <trkpt lat="28.61802" lon="-14.00133">
        <ele>106.6</ele>
        <time>2021-07-04 15:20:10</time>
      </trkpt>
      <trkpt lat="28.61798" lon="-14.00134">
        <ele>106.6</ele>
        <time>2021-07-04 15:20:11</time>
      </trkpt>
      <trkpt lat="28.61793" lon="-14.00135">
        <ele>106.8</ele>
        <time>2021-07-04 15:20:12</time>
      </trkpt>
      <trkpt lat="28.61789" lon="-14.00137">
        <ele>106.8</ele>
        <time>2021-07-04 15:20:13</time>
      </trkpt>
      <trkpt lat="28.61785" lon="-14.00138">
        <ele>107.2</ele>
        <time>2021-07-04 15:20:14</time>
      </trkpt>
      <trkpt lat="28.6178" lon="-14.00138">
        <ele>107.2</ele>
        <time>2021-07-04 15:20:15</time>
      </trkpt>
      <trkpt lat="28.61776" lon="-14.00139">
        <ele>107.6</ele>
        <time>2021-07-04 15:20:16</time>
      </trkpt>
      <trkpt lat="28.61771" lon="-14.0014">
        <ele>107.8</ele>
        <time>2021-07-04 15:20:17</time>
      </trkpt>
      <trkpt lat="28.61767" lon="-14.00142">
        <ele>107.8</ele>
        <time>2021-07-04 15:20:18</time>
      </trkpt>
      <trkpt lat="28.61763" lon="-14.00142">
        <ele>108</ele>
        <time>2021-07-04 15:20:19</time>
      </trkpt>
      <trkpt lat="28.61759" lon="-14.00143">
        <ele>108.2</ele>
        <time>2021-07-04 15:20:20</time>
      </trkpt>
      <trkpt lat="28.61755" lon="-14.00144">
        <ele>108.2</ele>
        <time>2021-07-04 15:20:21</time>
      </trkpt>
      <trkpt lat="28.6175" lon="-14.00145">
        <ele>108.2</ele>
        <time>2021-07-04 15:20:22</time>
      </trkpt>
      <trkpt lat="28.61747" lon="-14.00145">
        <ele>108.6</ele>
        <time>2021-07-04 15:20:23</time>
      </trkpt>
      <trkpt lat="28.61744" lon="-14.00146">
        <ele>108.8</ele>
        <time>2021-07-04 15:20:24</time>
      </trkpt>
      <trkpt lat="28.6174" lon="-14.00147">
        <ele>108.8</ele>
        <time>2021-07-04 15:20:25</time>
      </trkpt>
      <trkpt lat="28.61736" lon="-14.00147">
        <ele>108.8</ele>
        <time>2021-07-04 15:20:26</time>
      </trkpt>
      <trkpt lat="28.61733" lon="-14.00148">
        <ele>109.2</ele>
        <time>2021-07-04 15:20:27</time>
      </trkpt>
      <trkpt lat="28.61729" lon="-14.00149">
        <ele>109.2</ele>
        <time>2021-07-04 15:20:28</time>
      </trkpt>
      <trkpt lat="28.61726" lon="-14.0015">
        <ele>109.2</ele>
        <time>2021-07-04 15:20:29</time>
      </trkpt>
      <trkpt lat="28.61722" lon="-14.0015">
        <ele>109.2</ele>
        <time>2021-07-04 15:20:30</time>
      </trkpt>
      <trkpt lat="28.61718" lon="-14.00151">
        <ele>109.2</ele>
        <time>2021-07-04 15:20:31</time>
      </trkpt>
      <trkpt lat="28.61714" lon="-14.00151">
        <ele>109.6</ele>
        <time>2021-07-04 15:20:32</time>
      </trkpt>
      <trkpt lat="28.6171" lon="-14.00151">
        <ele>109.6</ele>
        <time>2021-07-04 15:20:33</time>
      </trkpt>
      <trkpt lat="28.61706" lon="-14.00152">
        <ele>109.6</ele>
        <time>2021-07-04 15:20:34</time>
      </trkpt>
      <trkpt lat="28.61702" lon="-14.00152">
        <ele>109.6</ele>
        <time>2021-07-04 15:20:35</time>
      </trkpt>
      <trkpt lat="28.61697" lon="-14.00152">
        <ele>109.6</ele>
        <time>2021-07-04 15:20:36</time>
      </trkpt>
      <trkpt lat="28.61693" lon="-14.00152">
        <ele>109.6</ele>
        <time>2021-07-04 15:20:37</time>
      </trkpt>
      <trkpt lat="28.61688" lon="-14.00152">
        <ele>109.6</ele>
        <time>2021-07-04 15:20:38</time>
      </trkpt>
      <trkpt lat="28.61684" lon="-14.00152">
        <ele>109.6</ele>
        <time>2021-07-04 15:20:39</time>
      </trkpt>
      <trkpt lat="28.6168" lon="-14.00152">
        <ele>109.6</ele>
        <time>2021-07-04 15:20:40</time>
      </trkpt>
      <trkpt lat="28.61676" lon="-14.00152">
        <ele>109.6</ele>
        <time>2021-07-04 15:20:41</time>
      </trkpt>
      <trkpt lat="28.61672" lon="-14.00152">
        <ele>109.6</ele>
        <time>2021-07-04 15:20:42</time>
      </trkpt>
      <trkpt lat="28.61668" lon="-14.00152">
        <ele>109.6</ele>
        <time>2021-07-04 15:20:43</time>
      </trkpt>
      <trkpt lat="28.61664" lon="-14.00151">
        <ele>109.6</ele>
        <time>2021-07-04 15:20:44</time>
      </trkpt>
      <trkpt lat="28.61659" lon="-14.00151">
        <ele>109.6</ele>
        <time>2021-07-04 15:20:45</time>
      </trkpt>
      <trkpt lat="28.61655" lon="-14.0015">
        <ele>109.6</ele>
        <time>2021-07-04 15:20:46</time>
      </trkpt>
      <trkpt lat="28.6165" lon="-14.0015">
        <ele>109.8</ele>
        <time>2021-07-04 15:20:47</time>
      </trkpt>
      <trkpt lat="28.61646" lon="-14.00149">
        <ele>109.8</ele>
        <time>2021-07-04 15:20:48</time>
      </trkpt>
      <trkpt lat="28.61642" lon="-14.00148">
        <ele>109.8</ele>
        <time>2021-07-04 15:20:49</time>
      </trkpt>
      <trkpt lat="28.61637" lon="-14.00148">
        <ele>109.8</ele>
        <time>2021-07-04 15:20:50</time>
      </trkpt>
      <trkpt lat="28.61632" lon="-14.00147">
        <ele>109.8</ele>
        <time>2021-07-04 15:20:51</time>
      </trkpt>
      <trkpt lat="28.61628" lon="-14.00147">
        <ele>109.8</ele>
        <time>2021-07-04 15:20:52</time>
      </trkpt>
      <trkpt lat="28.61623" lon="-14.00146">
        <ele>109.8</ele>
        <time>2021-07-04 15:20:53</time>
      </trkpt>
      <trkpt lat="28.61619" lon="-14.00146">
        <ele>109.8</ele>
        <time>2021-07-04 15:20:54</time>
      </trkpt>
      <trkpt lat="28.61614" lon="-14.00146">
        <ele>109.8</ele>
        <time>2021-07-04 15:20:55</time>
      </trkpt>
      <trkpt lat="28.61609" lon="-14.00146">
        <ele>109.8</ele>
        <time>2021-07-04 15:20:56</time>
      </trkpt>
      <trkpt lat="28.61604" lon="-14.00146">
        <ele>109.8</ele>
        <time>2021-07-04 15:20:57</time>
      </trkpt>
      <trkpt lat="28.61598" lon="-14.00146">
        <ele>109.4</ele>
        <time>2021-07-04 15:20:58</time>
      </trkpt>
      <trkpt lat="28.61592" lon="-14.00145">
        <ele>109.4</ele>
        <time>2021-07-04 15:20:59</time>
      </trkpt>
      <trkpt lat="28.61586" lon="-14.00145">
        <ele>109.4</ele>
        <time>2021-07-04 15:21:00</time>
      </trkpt>
      <trkpt lat="28.6158" lon="-14.00145">
        <ele>109.4</ele>
        <time>2021-07-04 15:21:01</time>
      </trkpt>
      <trkpt lat="28.61574" lon="-14.00145">
        <ele>109.4</ele>
        <time>2021-07-04 15:21:02</time>
      </trkpt>
      <trkpt lat="28.61569" lon="-14.00145">
        <ele>109.4</ele>
        <time>2021-07-04 15:21:03</time>
      </trkpt>
      <trkpt lat="28.61563" lon="-14.00145">
        <ele>109</ele>
        <time>2021-07-04 15:21:04</time>
      </trkpt>
      <trkpt lat="28.61557" lon="-14.00144">
        <ele>109</ele>
        <time>2021-07-04 15:21:05</time>
      </trkpt>
      <trkpt lat="28.61552" lon="-14.00144">
        <ele>109</ele>
        <time>2021-07-04 15:21:06</time>
      </trkpt>
      <trkpt lat="28.61547" lon="-14.00145">
        <ele>109</ele>
        <time>2021-07-04 15:21:07</time>
      </trkpt>
      <trkpt lat="28.61541" lon="-14.00145">
        <ele>109</ele>
        <time>2021-07-04 15:21:08</time>
      </trkpt>
      <trkpt lat="28.61536" lon="-14.00145">
        <ele>109</ele>
        <time>2021-07-04 15:21:09</time>
      </trkpt>
      <trkpt lat="28.61529" lon="-14.00145">
        <ele>109</ele>
        <time>2021-07-04 15:21:10</time>
      </trkpt>
      <trkpt lat="28.61523" lon="-14.00145">
        <ele>109</ele>
        <time>2021-07-04 15:21:11</time>
      </trkpt>
      <trkpt lat="28.61517" lon="-14.00145">
        <ele>109</ele>
        <time>2021-07-04 15:21:12</time>
      </trkpt>
      <trkpt lat="28.61511" lon="-14.00145">
        <ele>108.8</ele>
        <time>2021-07-04 15:21:13</time>
      </trkpt>
      <trkpt lat="28.61505" lon="-14.00145">
        <ele>108.8</ele>
        <time>2021-07-04 15:21:14</time>
      </trkpt>
      <trkpt lat="28.61498" lon="-14.00144">
        <ele>108.8</ele>
        <time>2021-07-04 15:21:15</time>
      </trkpt>
      <trkpt lat="28.61492" lon="-14.00145">
        <ele>108.8</ele>
        <time>2021-07-04 15:21:16</time>
      </trkpt>
      <trkpt lat="28.61485" lon="-14.00144">
        <ele>108.6</ele>
        <time>2021-07-04 15:21:17</time>
      </trkpt>
      <trkpt lat="28.61478" lon="-14.00144">
        <ele>108.6</ele>
        <time>2021-07-04 15:21:18</time>
      </trkpt>
      <trkpt lat="28.61472" lon="-14.00144">
        <ele>108.6</ele>
        <time>2021-07-04 15:21:19</time>
      </trkpt>
      <trkpt lat="28.61465" lon="-14.00143">
        <ele>108.6</ele>
        <time>2021-07-04 15:21:20</time>
      </trkpt>
      <trkpt lat="28.61458" lon="-14.00143">
        <ele>108.6</ele>
        <time>2021-07-04 15:21:21</time>
      </trkpt>
      <trkpt lat="28.61451" lon="-14.00143">
        <ele>108.6</ele>
        <time>2021-07-04 15:21:22</time>
      </trkpt>
      <trkpt lat="28.61444" lon="-14.00143">
        <ele>108.6</ele>
        <time>2021-07-04 15:21:23</time>
      </trkpt>
      <trkpt lat="28.61437" lon="-14.00144">
        <ele>108.6</ele>
        <time>2021-07-04 15:21:24</time>
      </trkpt>
      <trkpt lat="28.6143" lon="-14.00144">
        <ele>108.6</ele>
        <time>2021-07-04 15:21:25</time>
      </trkpt>
      <trkpt lat="28.61423" lon="-14.00145">
        <ele>108.4</ele>
        <time>2021-07-04 15:21:26</time>
      </trkpt>
      <trkpt lat="28.61415" lon="-14.00146">
        <ele>108.4</ele>
        <time>2021-07-04 15:21:27</time>
      </trkpt>
      <trkpt lat="28.61408" lon="-14.00147">
        <ele>108.2</ele>
        <time>2021-07-04 15:21:28</time>
      </trkpt>
      <trkpt lat="28.61401" lon="-14.00148">
        <ele>108.2</ele>
        <time>2021-07-04 15:21:29</time>
      </trkpt>
      <trkpt lat="28.61393" lon="-14.00149">
        <ele>108.2</ele>
        <time>2021-07-04 15:21:30</time>
      </trkpt>
      <trkpt lat="28.61386" lon="-14.00151">
        <ele>108.2</ele>
        <time>2021-07-04 15:21:31</time>
      </trkpt>
      <trkpt lat="28.61379" lon="-14.00152">
        <ele>108.4</ele>
        <time>2021-07-04 15:21:32</time>
      </trkpt>
      <trkpt lat="28.61373" lon="-14.00153">
        <ele>108.4</ele>
        <time>2021-07-04 15:21:33</time>
      </trkpt>
      <trkpt lat="28.61366" lon="-14.00154">
        <ele>108.2</ele>
        <time>2021-07-04 15:21:34</time>
      </trkpt>
      <trkpt lat="28.61359" lon="-14.00155">
        <ele>108</ele>
        <time>2021-07-04 15:21:35</time>
      </trkpt>
      <trkpt lat="28.61352" lon="-14.00156">
        <ele>108</ele>
        <time>2021-07-04 15:21:36</time>
      </trkpt>
      <trkpt lat="28.61345" lon="-14.00157">
        <ele>107.6</ele>
        <time>2021-07-04 15:21:37</time>
      </trkpt>
      <trkpt lat="28.61338" lon="-14.00159">
        <ele>107.6</ele>
        <time>2021-07-04 15:21:38</time>
      </trkpt>
      <trkpt lat="28.61332" lon="-14.00161">
        <ele>107.6</ele>
        <time>2021-07-04 15:21:39</time>
      </trkpt>
      <trkpt lat="28.61324" lon="-14.00163">
        <ele>107.6</ele>
        <time>2021-07-04 15:21:40</time>
      </trkpt>
      <trkpt lat="28.61317" lon="-14.00164">
        <ele>107.6</ele>
        <time>2021-07-04 15:21:41</time>
      </trkpt>
      <trkpt lat="28.6131" lon="-14.00166">
        <ele>107.6</ele>
        <time>2021-07-04 15:21:42</time>
      </trkpt>
      <trkpt lat="28.61303" lon="-14.00168">
        <ele>107.2</ele>
        <time>2021-07-04 15:21:43</time>
      </trkpt>
      <trkpt lat="28.61295" lon="-14.00169">
        <ele>107.2</ele>
        <time>2021-07-04 15:21:44</time>
      </trkpt>
      <trkpt lat="28.61288" lon="-14.0017">
        <ele>107.2</ele>
        <time>2021-07-04 15:21:45</time>
      </trkpt>
      <trkpt lat="28.61281" lon="-14.00171">
        <ele>107.2</ele>
        <time>2021-07-04 15:21:46</time>
      </trkpt>
      <trkpt lat="28.61273" lon="-14.00172">
        <ele>107.2</ele>
        <time>2021-07-04 15:21:47</time>
      </trkpt>
      <trkpt lat="28.61267" lon="-14.00173">
        <ele>107.2</ele>
        <time>2021-07-04 15:21:48</time>
      </trkpt>
      <trkpt lat="28.6126" lon="-14.00175">
        <ele>107.2</ele>
        <time>2021-07-04 15:21:49</time>
      </trkpt>
      <trkpt lat="28.61253" lon="-14.00176">
        <ele>107.2</ele>
        <time>2021-07-04 15:21:50</time>
      </trkpt>
      <trkpt lat="28.61247" lon="-14.00177">
        <ele>107.2</ele>
        <time>2021-07-04 15:21:51</time>
      </trkpt>
      <trkpt lat="28.6124" lon="-14.00177">
        <ele>107.2</ele>
        <time>2021-07-04 15:21:52</time>
      </trkpt>
      <trkpt lat="28.61234" lon="-14.00178">
        <ele>107.2</ele>
        <time>2021-07-04 15:21:53</time>
      </trkpt>
      <trkpt lat="28.61227" lon="-14.00179">
        <ele>107.6</ele>
        <time>2021-07-04 15:21:54</time>
      </trkpt>
      <trkpt lat="28.61221" lon="-14.0018">
        <ele>107.6</ele>
        <time>2021-07-04 15:21:55</time>
      </trkpt>
      <trkpt lat="28.61215" lon="-14.00181">
        <ele>107.6</ele>
        <time>2021-07-04 15:21:56</time>
      </trkpt>
      <trkpt lat="28.61208" lon="-14.00181">
        <ele>107.6</ele>
        <time>2021-07-04 15:21:57</time>
      </trkpt>
      <trkpt lat="28.61202" lon="-14.00182">
        <ele>107.6</ele>
        <time>2021-07-04 15:21:58</time>
      </trkpt>
      <trkpt lat="28.61196" lon="-14.00183">
        <ele>107.6</ele>
        <time>2021-07-04 15:21:59</time>
      </trkpt>
      <trkpt lat="28.6119" lon="-14.00184">
        <ele>107.4</ele>
        <time>2021-07-04 15:22:00</time>
      </trkpt>
      <trkpt lat="28.61184" lon="-14.00185">
        <ele>107.4</ele>
        <time>2021-07-04 15:22:01</time>
      </trkpt>
      <trkpt lat="28.61178" lon="-14.00186">
        <ele>107.4</ele>
        <time>2021-07-04 15:22:02</time>
      </trkpt>
      <trkpt lat="28.61172" lon="-14.00187">
        <ele>107.4</ele>
        <time>2021-07-04 15:22:03</time>
      </trkpt>
      <trkpt lat="28.61167" lon="-14.00187">
        <ele>107.4</ele>
        <time>2021-07-04 15:22:04</time>
      </trkpt>
      <trkpt lat="28.61161" lon="-14.00188">
        <ele>107.4</ele>
        <time>2021-07-04 15:22:05</time>
      </trkpt>
      <trkpt lat="28.61154" lon="-14.00189">
        <ele>107.4</ele>
        <time>2021-07-04 15:22:06</time>
      </trkpt>
      <trkpt lat="28.61148" lon="-14.00189">
        <ele>107.4</ele>
        <time>2021-07-04 15:22:07</time>
      </trkpt>
      <trkpt lat="28.61142" lon="-14.0019">
        <ele>107.4</ele>
        <time>2021-07-04 15:22:08</time>
      </trkpt>
      <trkpt lat="28.61136" lon="-14.00191">
        <ele>107.4</ele>
        <time>2021-07-04 15:22:09</time>
      </trkpt>
      <trkpt lat="28.61131" lon="-14.00191">
        <ele>107</ele>
        <time>2021-07-04 15:22:10</time>
      </trkpt>
      <trkpt lat="28.61125" lon="-14.00191">
        <ele>107</ele>
        <time>2021-07-04 15:22:11</time>
      </trkpt>
      <trkpt lat="28.61119" lon="-14.00191">
        <ele>107</ele>
        <time>2021-07-04 15:22:12</time>
      </trkpt>
      <trkpt lat="28.61113" lon="-14.0019">
        <ele>106.8</ele>
        <time>2021-07-04 15:22:13</time>
      </trkpt>
      <trkpt lat="28.61107" lon="-14.0019">
        <ele>106.8</ele>
        <time>2021-07-04 15:22:14</time>
      </trkpt>
      <trkpt lat="28.61101" lon="-14.0019">
        <ele>106.8</ele>
        <time>2021-07-04 15:22:15</time>
      </trkpt>
      <trkpt lat="28.61095" lon="-14.0019">
        <ele>106.8</ele>
        <time>2021-07-04 15:22:16</time>
      </trkpt>
      <trkpt lat="28.61088" lon="-14.0019">
        <ele>107</ele>
        <time>2021-07-04 15:22:17</time>
      </trkpt>
      <trkpt lat="28.61081" lon="-14.0019">
        <ele>107</ele>
        <time>2021-07-04 15:22:18</time>
      </trkpt>
      <trkpt lat="28.61075" lon="-14.0019">
        <ele>107</ele>
        <time>2021-07-04 15:22:19</time>
      </trkpt>
      <trkpt lat="28.61068" lon="-14.0019">
        <ele>107</ele>
        <time>2021-07-04 15:22:20</time>
      </trkpt>
      <trkpt lat="28.6106" lon="-14.00189">
        <ele>107</ele>
        <time>2021-07-04 15:22:21</time>
      </trkpt>
      <trkpt lat="28.61053" lon="-14.00189">
        <ele>107</ele>
        <time>2021-07-04 15:22:22</time>
      </trkpt>
      <trkpt lat="28.61046" lon="-14.0019">
        <ele>107</ele>
        <time>2021-07-04 15:22:23</time>
      </trkpt>
      <trkpt lat="28.61038" lon="-14.00189">
        <ele>107</ele>
        <time>2021-07-04 15:22:24</time>
      </trkpt>
      <trkpt lat="28.6103" lon="-14.00189">
        <ele>106.6</ele>
        <time>2021-07-04 15:22:25</time>
      </trkpt>
      <trkpt lat="28.61022" lon="-14.00189">
        <ele>106.6</ele>
        <time>2021-07-04 15:22:26</time>
      </trkpt>
      <trkpt lat="28.61014" lon="-14.00189">
        <ele>106.2</ele>
        <time>2021-07-04 15:22:27</time>
      </trkpt>
      <trkpt lat="28.61006" lon="-14.00189">
        <ele>106.2</ele>
        <time>2021-07-04 15:22:28</time>
      </trkpt>
      <trkpt lat="28.60997" lon="-14.00189">
        <ele>106</ele>
        <time>2021-07-04 15:22:29</time>
      </trkpt>
      <trkpt lat="28.60989" lon="-14.0019">
        <ele>105.6</ele>
        <time>2021-07-04 15:22:30</time>
      </trkpt>
      <trkpt lat="28.60981" lon="-14.0019">
        <ele>105.6</ele>
        <time>2021-07-04 15:22:31</time>
      </trkpt>
      <trkpt lat="28.60972" lon="-14.00191">
        <ele>105.4</ele>
        <time>2021-07-04 15:22:32</time>
      </trkpt>
      <trkpt lat="28.60963" lon="-14.00193">
        <ele>105.4</ele>
        <time>2021-07-04 15:22:33</time>
      </trkpt>
      <trkpt lat="28.60955" lon="-14.00195">
        <ele>105</ele>
        <time>2021-07-04 15:22:34</time>
      </trkpt>
      <trkpt lat="28.60947" lon="-14.00196">
        <ele>105</ele>
        <time>2021-07-04 15:22:35</time>
      </trkpt>
      <trkpt lat="28.60938" lon="-14.00198">
        <ele>104.4</ele>
        <time>2021-07-04 15:22:36</time>
      </trkpt>
      <trkpt lat="28.6093" lon="-14.002">
        <ele>104.4</ele>
        <time>2021-07-04 15:22:37</time>
      </trkpt>
      <trkpt lat="28.60921" lon="-14.00202">
        <ele>104</ele>
        <time>2021-07-04 15:22:38</time>
      </trkpt>
      <trkpt lat="28.60913" lon="-14.00203">
        <ele>103.4</ele>
        <time>2021-07-04 15:22:39</time>
      </trkpt>
      <trkpt lat="28.60904" lon="-14.00203">
        <ele>103.4</ele>
        <time>2021-07-04 15:22:40</time>
      </trkpt>
      <trkpt lat="28.60895" lon="-14.00204">
        <ele>103.2</ele>
        <time>2021-07-04 15:22:41</time>
      </trkpt>
      <trkpt lat="28.60887" lon="-14.00205">
        <ele>103.2</ele>
        <time>2021-07-04 15:22:42</time>
      </trkpt>
      <trkpt lat="28.60878" lon="-14.00205">
        <ele>103</ele>
        <time>2021-07-04 15:22:43</time>
      </trkpt>
      <trkpt lat="28.6087" lon="-14.00206">
        <ele>102.8</ele>
        <time>2021-07-04 15:22:44</time>
      </trkpt>
      <trkpt lat="28.60861" lon="-14.00206">
        <ele>102.8</ele>
        <time>2021-07-04 15:22:45</time>
      </trkpt>
      <trkpt lat="28.60853" lon="-14.00207">
        <ele>102.6</ele>
        <time>2021-07-04 15:22:46</time>
      </trkpt>
      <trkpt lat="28.60844" lon="-14.00206">
        <ele>102.6</ele>
        <time>2021-07-04 15:22:47</time>
      </trkpt>
      <trkpt lat="28.60835" lon="-14.00206">
        <ele>102.6</ele>
        <time>2021-07-04 15:22:48</time>
      </trkpt>
      <trkpt lat="28.60826" lon="-14.00206">
        <ele>102</ele>
        <time>2021-07-04 15:22:49</time>
      </trkpt>
      <trkpt lat="28.60818" lon="-14.00206">
        <ele>102</ele>
        <time>2021-07-04 15:22:50</time>
      </trkpt>
      <trkpt lat="28.6081" lon="-14.00206">
        <ele>101.8</ele>
        <time>2021-07-04 15:22:51</time>
      </trkpt>
      <trkpt lat="28.60801" lon="-14.00207">
        <ele>101.8</ele>
        <time>2021-07-04 15:22:52</time>
      </trkpt>
      <trkpt lat="28.60793" lon="-14.00208">
        <ele>101.4</ele>
        <time>2021-07-04 15:22:53</time>
      </trkpt>
      <trkpt lat="28.60784" lon="-14.0021">
        <ele>101.2</ele>
        <time>2021-07-04 15:22:54</time>
      </trkpt>
      <trkpt lat="28.60775" lon="-14.00211">
        <ele>101</ele>
        <time>2021-07-04 15:22:55</time>
      </trkpt>
      <trkpt lat="28.60767" lon="-14.00213">
        <ele>101</ele>
        <time>2021-07-04 15:22:56</time>
      </trkpt>
      <trkpt lat="28.60758" lon="-14.00214">
        <ele>100.6</ele>
        <time>2021-07-04 15:22:57</time>
      </trkpt>
      <trkpt lat="28.60749" lon="-14.00216">
        <ele>100.2</ele>
        <time>2021-07-04 15:22:58</time>
      </trkpt>
      <trkpt lat="28.60741" lon="-14.00217">
        <ele>100.2</ele>
        <time>2021-07-04 15:22:59</time>
      </trkpt>
      <trkpt lat="28.60732" lon="-14.00218">
        <ele>100.2</ele>
        <time>2021-07-04 15:23:00</time>
      </trkpt>
      <trkpt lat="28.60723" lon="-14.0022">
        <ele>100</ele>
        <time>2021-07-04 15:23:01</time>
      </trkpt>
      <trkpt lat="28.60715" lon="-14.00222">
        <ele>100</ele>
        <time>2021-07-04 15:23:02</time>
      </trkpt>
      <trkpt lat="28.60707" lon="-14.00223">
        <ele>99.8</ele>
        <time>2021-07-04 15:23:03</time>
      </trkpt>
      <trkpt lat="28.60698" lon="-14.00225">
        <ele>99.8</ele>
        <time>2021-07-04 15:23:04</time>
      </trkpt>
      <trkpt lat="28.6069" lon="-14.00227">
        <ele>99.4</ele>
        <time>2021-07-04 15:23:05</time>
      </trkpt>
      <trkpt lat="28.60682" lon="-14.00229">
        <ele>99.4</ele>
        <time>2021-07-04 15:23:06</time>
      </trkpt>
      <trkpt lat="28.60674" lon="-14.00231">
        <ele>99.4</ele>
        <time>2021-07-04 15:23:07</time>
      </trkpt>
      <trkpt lat="28.60665" lon="-14.00232">
        <ele>99</ele>
        <time>2021-07-04 15:23:08</time>
      </trkpt>
      <trkpt lat="28.60657" lon="-14.00234">
        <ele>99</ele>
        <time>2021-07-04 15:23:09</time>
      </trkpt>
      <trkpt lat="28.60648" lon="-14.00235">
        <ele>98.8</ele>
        <time>2021-07-04 15:23:10</time>
      </trkpt>
      <trkpt lat="28.6064" lon="-14.00236">
        <ele>98.8</ele>
        <time>2021-07-04 15:23:11</time>
      </trkpt>
      <trkpt lat="28.60632" lon="-14.00237">
        <ele>98.8</ele>
        <time>2021-07-04 15:23:12</time>
      </trkpt>
      <trkpt lat="28.60624" lon="-14.00237">
        <ele>98.4</ele>
        <time>2021-07-04 15:23:13</time>
      </trkpt>
      <trkpt lat="28.60616" lon="-14.00237">
        <ele>98.4</ele>
        <time>2021-07-04 15:23:14</time>
      </trkpt>
      <trkpt lat="28.60608" lon="-14.00238">
        <ele>98.4</ele>
        <time>2021-07-04 15:23:15</time>
      </trkpt>
      <trkpt lat="28.606" lon="-14.00239">
        <ele>98.4</ele>
        <time>2021-07-04 15:23:16</time>
      </trkpt>
      <trkpt lat="28.60593" lon="-14.00241">
        <ele>98.2</ele>
        <time>2021-07-04 15:23:17</time>
      </trkpt>
      <trkpt lat="28.60585" lon="-14.00241">
        <ele>98.2</ele>
        <time>2021-07-04 15:23:18</time>
      </trkpt>
      <trkpt lat="28.60577" lon="-14.00242">
        <ele>98.2</ele>
        <time>2021-07-04 15:23:19</time>
      </trkpt>
      <trkpt lat="28.60569" lon="-14.00243">
        <ele>98.2</ele>
        <time>2021-07-04 15:23:20</time>
      </trkpt>
      <trkpt lat="28.60561" lon="-14.00244">
        <ele>97.8</ele>
        <time>2021-07-04 15:23:21</time>
      </trkpt>
      <trkpt lat="28.60553" lon="-14.00245">
        <ele>97.8</ele>
        <time>2021-07-04 15:23:22</time>
      </trkpt>
      <trkpt lat="28.60545" lon="-14.00247">
        <ele>97.8</ele>
        <time>2021-07-04 15:23:23</time>
      </trkpt>
      <trkpt lat="28.60537" lon="-14.00248">
        <ele>97.8</ele>
        <time>2021-07-04 15:23:24</time>
      </trkpt>
      <trkpt lat="28.6053" lon="-14.0025">
        <ele>97.6</ele>
        <time>2021-07-04 15:23:25</time>
      </trkpt>
      <trkpt lat="28.60523" lon="-14.00251">
        <ele>97.6</ele>
        <time>2021-07-04 15:23:26</time>
      </trkpt>
      <trkpt lat="28.60516" lon="-14.00252">
        <ele>97.6</ele>
        <time>2021-07-04 15:23:27</time>
      </trkpt>
      <trkpt lat="28.60508" lon="-14.00254">
        <ele>97.6</ele>
        <time>2021-07-04 15:23:28</time>
      </trkpt>
      <trkpt lat="28.60501" lon="-14.00255">
        <ele>97.6</ele>
        <time>2021-07-04 15:23:29</time>
      </trkpt>
      <trkpt lat="28.60493" lon="-14.00256">
        <ele>97.6</ele>
        <time>2021-07-04 15:23:30</time>
      </trkpt>
      <trkpt lat="28.60486" lon="-14.00257">
        <ele>97.4</ele>
        <time>2021-07-04 15:23:31</time>
      </trkpt>
      <trkpt lat="28.60478" lon="-14.00258">
        <ele>97.4</ele>
        <time>2021-07-04 15:23:32</time>
      </trkpt>
      <trkpt lat="28.60471" lon="-14.00258">
        <ele>97.4</ele>
        <time>2021-07-04 15:23:33</time>
      </trkpt>
      <trkpt lat="28.60463" lon="-14.0026">
        <ele>97.4</ele>
        <time>2021-07-04 15:23:34</time>
      </trkpt>
      <trkpt lat="28.60456" lon="-14.00261">
        <ele>97.2</ele>
        <time>2021-07-04 15:23:35</time>
      </trkpt>
      <trkpt lat="28.60449" lon="-14.00262">
        <ele>97.2</ele>
        <time>2021-07-04 15:23:36</time>
      </trkpt>
      <trkpt lat="28.60442" lon="-14.00264">
        <ele>97.2</ele>
        <time>2021-07-04 15:23:37</time>
      </trkpt>
      <trkpt lat="28.60435" lon="-14.00265">
        <ele>97.2</ele>
        <time>2021-07-04 15:23:38</time>
      </trkpt>
      <trkpt lat="28.60429" lon="-14.00266">
        <ele>97.2</ele>
        <time>2021-07-04 15:23:39</time>
      </trkpt>
      <trkpt lat="28.60423" lon="-14.00268">
        <ele>96.8</ele>
        <time>2021-07-04 15:23:40</time>
      </trkpt>
      <trkpt lat="28.60417" lon="-14.00269">
        <ele>96.8</ele>
        <time>2021-07-04 15:23:41</time>
      </trkpt>
      <trkpt lat="28.60411" lon="-14.00269">
        <ele>96.6</ele>
        <time>2021-07-04 15:23:42</time>
      </trkpt>
      <trkpt lat="28.60405" lon="-14.00268">
        <ele>96.6</ele>
        <time>2021-07-04 15:23:43</time>
      </trkpt>
      <trkpt lat="28.604" lon="-14.00268">
        <ele>96.6</ele>
        <time>2021-07-04 15:23:44</time>
      </trkpt>
      <trkpt lat="28.60394" lon="-14.00268">
        <ele>96.6</ele>
        <time>2021-07-04 15:23:45</time>
      </trkpt>
      <trkpt lat="28.60388" lon="-14.00269">
        <ele>96.6</ele>
        <time>2021-07-04 15:23:46</time>
      </trkpt>
      <trkpt lat="28.60382" lon="-14.0027">
        <ele>96.6</ele>
        <time>2021-07-04 15:23:47</time>
      </trkpt>
      <trkpt lat="28.60375" lon="-14.0027">
        <ele>96.8</ele>
        <time>2021-07-04 15:23:48</time>
      </trkpt>
      <trkpt lat="28.60369" lon="-14.00271">
        <ele>96.8</ele>
        <time>2021-07-04 15:23:49</time>
      </trkpt>
      <trkpt lat="28.60362" lon="-14.00272">
        <ele>96.8</ele>
        <time>2021-07-04 15:23:50</time>
      </trkpt>
      <trkpt lat="28.60354" lon="-14.00272">
        <ele>96.8</ele>
        <time>2021-07-04 15:23:51</time>
      </trkpt>
      <trkpt lat="28.60347" lon="-14.00273">
        <ele>96.8</ele>
        <time>2021-07-04 15:23:52</time>
      </trkpt>
      <trkpt lat="28.6034" lon="-14.00273">
        <ele>96.8</ele>
        <time>2021-07-04 15:23:53</time>
      </trkpt>
      <trkpt lat="28.60332" lon="-14.00274">
        <ele>96.6</ele>
        <time>2021-07-04 15:23:54</time>
      </trkpt>
      <trkpt lat="28.60325" lon="-14.00275">
        <ele>96.6</ele>
        <time>2021-07-04 15:23:55</time>
      </trkpt>
      <trkpt lat="28.60317" lon="-14.00276">
        <ele>96.6</ele>
        <time>2021-07-04 15:23:56</time>
      </trkpt>
      <trkpt lat="28.60309" lon="-14.00278">
        <ele>96.6</ele>
        <time>2021-07-04 15:23:57</time>
      </trkpt>
      <trkpt lat="28.60302" lon="-14.00279">
        <ele>96.2</ele>
        <time>2021-07-04 15:23:58</time>
      </trkpt>
      <trkpt lat="28.60294" lon="-14.00281">
        <ele>96.2</ele>
        <time>2021-07-04 15:23:59</time>
      </trkpt>
      <trkpt lat="28.60286" lon="-14.00282">
        <ele>96</ele>
        <time>2021-07-04 15:24:00</time>
      </trkpt>
      <trkpt lat="28.60278" lon="-14.00283">
        <ele>96</ele>
        <time>2021-07-04 15:24:01</time>
      </trkpt>
      <trkpt lat="28.60269" lon="-14.00284">
        <ele>95.8</ele>
        <time>2021-07-04 15:24:02</time>
      </trkpt>
      <trkpt lat="28.60262" lon="-14.00285">
        <ele>95.8</ele>
        <time>2021-07-04 15:24:03</time>
      </trkpt>
      <trkpt lat="28.60253" lon="-14.00286">
        <ele>95.4</ele>
        <time>2021-07-04 15:24:04</time>
      </trkpt>
      <trkpt lat="28.60245" lon="-14.00287">
        <ele>95.4</ele>
        <time>2021-07-04 15:24:05</time>
      </trkpt>
      <trkpt lat="28.60237" lon="-14.00287">
        <ele>95</ele>
        <time>2021-07-04 15:24:06</time>
      </trkpt>
      <trkpt lat="28.60229" lon="-14.00289">
        <ele>95</ele>
        <time>2021-07-04 15:24:07</time>
      </trkpt>
      <trkpt lat="28.60221" lon="-14.0029">
        <ele>95</ele>
        <time>2021-07-04 15:24:08</time>
      </trkpt>
      <trkpt lat="28.60213" lon="-14.00291">
        <ele>94.8</ele>
        <time>2021-07-04 15:24:09</time>
      </trkpt>
      <trkpt lat="28.60205" lon="-14.00293">
        <ele>94.8</ele>
        <time>2021-07-04 15:24:10</time>
      </trkpt>
      <trkpt lat="28.60197" lon="-14.00293">
        <ele>94.8</ele>
        <time>2021-07-04 15:24:11</time>
      </trkpt>
      <trkpt lat="28.6019" lon="-14.00294">
        <ele>94.6</ele>
        <time>2021-07-04 15:24:12</time>
      </trkpt>
      <trkpt lat="28.60182" lon="-14.00294">
        <ele>94.6</ele>
        <time>2021-07-04 15:24:13</time>
      </trkpt>
      <trkpt lat="28.60175" lon="-14.00294">
        <ele>94.6</ele>
        <time>2021-07-04 15:24:14</time>
      </trkpt>
      <trkpt lat="28.60167" lon="-14.00293">
        <ele>94.4</ele>
        <time>2021-07-04 15:24:15</time>
      </trkpt>
      <trkpt lat="28.60159" lon="-14.00293">
        <ele>94.4</ele>
        <time>2021-07-04 15:24:16</time>
      </trkpt>
      <trkpt lat="28.60151" lon="-14.00294">
        <ele>94.4</ele>
        <time>2021-07-04 15:24:17</time>
      </trkpt>
      <trkpt lat="28.60143" lon="-14.00294">
        <ele>94.4</ele>
        <time>2021-07-04 15:24:18</time>
      </trkpt>
      <trkpt lat="28.60134" lon="-14.00294">
        <ele>94</ele>
        <time>2021-07-04 15:24:19</time>
      </trkpt>
      <trkpt lat="28.60125" lon="-14.00295">
        <ele>94</ele>
        <time>2021-07-04 15:24:20</time>
      </trkpt>
      <trkpt lat="28.60117" lon="-14.00296">
        <ele>93.8</ele>
        <time>2021-07-04 15:24:21</time>
      </trkpt>
      <trkpt lat="28.60108" lon="-14.00297">
        <ele>93.8</ele>
        <time>2021-07-04 15:24:22</time>
      </trkpt>
      <trkpt lat="28.60099" lon="-14.00298">
        <ele>93.6</ele>
        <time>2021-07-04 15:24:23</time>
      </trkpt>
      <trkpt lat="28.6009" lon="-14.00299">
        <ele>93.6</ele>
        <time>2021-07-04 15:24:24</time>
      </trkpt>
      <trkpt lat="28.60082" lon="-14.003">
        <ele>93.2</ele>
        <time>2021-07-04 15:24:25</time>
      </trkpt>
      <trkpt lat="28.60073" lon="-14.00301">
        <ele>93.2</ele>
        <time>2021-07-04 15:24:26</time>
      </trkpt>
      <trkpt lat="28.60065" lon="-14.00302">
        <ele>93</ele>
        <time>2021-07-04 15:24:27</time>
      </trkpt>
      <trkpt lat="28.60056" lon="-14.00303">
        <ele>93</ele>
        <time>2021-07-04 15:24:28</time>
      </trkpt>
      <trkpt lat="28.60047" lon="-14.00304">
        <ele>93</ele>
        <time>2021-07-04 15:24:29</time>
      </trkpt>
      <trkpt lat="28.60039" lon="-14.00305">
        <ele>92.8</ele>
        <time>2021-07-04 15:24:30</time>
      </trkpt>
      <trkpt lat="28.60031" lon="-14.00306">
        <ele>92.8</ele>
        <time>2021-07-04 15:24:31</time>
      </trkpt>
      <trkpt lat="28.60023" lon="-14.00307">
        <ele>92.4</ele>
        <time>2021-07-04 15:24:32</time>
      </trkpt>
      <trkpt lat="28.60014" lon="-14.00307">
        <ele>92.4</ele>
        <time>2021-07-04 15:24:33</time>
      </trkpt>
      <trkpt lat="28.60006" lon="-14.00307">
        <ele>92.2</ele>
        <time>2021-07-04 15:24:34</time>
      </trkpt>
      <trkpt lat="28.59997" lon="-14.00308">
        <ele>92.2</ele>
        <time>2021-07-04 15:24:35</time>
      </trkpt>
      <trkpt lat="28.59989" lon="-14.00308">
        <ele>91.8</ele>
        <time>2021-07-04 15:24:36</time>
      </trkpt>
      <trkpt lat="28.59981" lon="-14.00309">
        <ele>91.6</ele>
        <time>2021-07-04 15:24:37</time>
      </trkpt>
      <trkpt lat="28.59973" lon="-14.00309">
        <ele>91.6</ele>
        <time>2021-07-04 15:24:38</time>
      </trkpt>
      <trkpt lat="28.59964" lon="-14.0031">
        <ele>91.6</ele>
        <time>2021-07-04 15:24:39</time>
      </trkpt>
      <trkpt lat="28.59956" lon="-14.0031">
        <ele>91.6</ele>
        <time>2021-07-04 15:24:40</time>
      </trkpt>
      <trkpt lat="28.59949" lon="-14.00311">
        <ele>91.2</ele>
        <time>2021-07-04 15:24:41</time>
      </trkpt>
      <trkpt lat="28.59941" lon="-14.00311">
        <ele>91.2</ele>
        <time>2021-07-04 15:24:42</time>
      </trkpt>
      <trkpt lat="28.59935" lon="-14.00311">
        <ele>91</ele>
        <time>2021-07-04 15:24:43</time>
      </trkpt>
      <trkpt lat="28.59929" lon="-14.00312">
        <ele>91</ele>
        <time>2021-07-04 15:24:44</time>
      </trkpt>
      <trkpt lat="28.59925" lon="-14.00312">
        <ele>91</ele>
        <time>2021-07-04 15:24:45</time>
      </trkpt>
      <trkpt lat="28.59922" lon="-14.00313">
        <ele>90.8</ele>
        <time>2021-07-04 15:24:46</time>
      </trkpt>
      <trkpt lat="28.59921" lon="-14.00313">
        <ele>90.8</ele>
        <time>2021-07-04 15:24:47</time>
      </trkpt>
      <trkpt lat="28.59921" lon="-14.00313">
        <ele>90.8</ele>
        <time>2021-07-04 15:24:48</time>
      </trkpt>
      <trkpt lat="28.59921" lon="-14.00313">
        <ele>91</ele>
        <time>2021-07-04 15:24:49</time>
      </trkpt>
      <trkpt lat="28.59919" lon="-14.00313">
        <ele>94</ele>
        <time>2021-07-04 15:24:50</time>
      </trkpt>
      <trkpt lat="28.59917" lon="-14.00313">
        <ele>94</ele>
        <time>2021-07-04 15:24:51</time>
      </trkpt>
      <trkpt lat="28.59915" lon="-14.00314">
        <ele>94</ele>
        <time>2021-07-04 15:24:52</time>
      </trkpt>
      <trkpt lat="28.59912" lon="-14.00314">
        <ele>94</ele>
        <time>2021-07-04 15:24:53</time>
      </trkpt>
      <trkpt lat="28.59909" lon="-14.00314">
        <ele>94</ele>
        <time>2021-07-04 15:24:54</time>
      </trkpt>
      <trkpt lat="28.59906" lon="-14.00314">
        <ele>93.8</ele>
        <time>2021-07-04 15:24:55</time>
      </trkpt>
      <trkpt lat="28.59902" lon="-14.00314">
        <ele>93.6</ele>
        <time>2021-07-04 15:24:56</time>
      </trkpt>
      <trkpt lat="28.59898" lon="-14.00314">
        <ele>93.4</ele>
        <time>2021-07-04 15:24:57</time>
      </trkpt>
      <trkpt lat="28.59894" lon="-14.00314">
        <ele>93.4</ele>
        <time>2021-07-04 15:24:58</time>
      </trkpt>
      <trkpt lat="28.59889" lon="-14.00314">
        <ele>93.4</ele>
        <time>2021-07-04 15:24:59</time>
      </trkpt>
      <trkpt lat="28.59884" lon="-14.00315">
        <ele>93</ele>
        <time>2021-07-04 15:25:00</time>
      </trkpt>
      <trkpt lat="28.59879" lon="-14.00315">
        <ele>93</ele>
        <time>2021-07-04 15:25:01</time>
      </trkpt>
      <trkpt lat="28.59873" lon="-14.00316">
        <ele>93</ele>
        <time>2021-07-04 15:25:02</time>
      </trkpt>
      <trkpt lat="28.59867" lon="-14.00316">
        <ele>93</ele>
        <time>2021-07-04 15:25:03</time>
      </trkpt>
      <trkpt lat="28.59862" lon="-14.00316">
        <ele>93</ele>
        <time>2021-07-04 15:25:04</time>
      </trkpt>
      <trkpt lat="28.59856" lon="-14.00317">
        <ele>92.8</ele>
        <time>2021-07-04 15:25:05</time>
      </trkpt>
      <trkpt lat="28.5985" lon="-14.00317">
        <ele>92.8</ele>
        <time>2021-07-04 15:25:06</time>
      </trkpt>
      <trkpt lat="28.59844" lon="-14.00318">
        <ele>92.8</ele>
        <time>2021-07-04 15:25:07</time>
      </trkpt>
      <trkpt lat="28.59838" lon="-14.00318">
        <ele>92.8</ele>
        <time>2021-07-04 15:25:08</time>
      </trkpt>
      <trkpt lat="28.59832" lon="-14.00319">
        <ele>92.6</ele>
        <time>2021-07-04 15:25:09</time>
      </trkpt>
      <trkpt lat="28.59826" lon="-14.0032">
        <ele>92.6</ele>
        <time>2021-07-04 15:25:10</time>
      </trkpt>
      <trkpt lat="28.5982" lon="-14.0032">
        <ele>92.6</ele>
        <time>2021-07-04 15:25:11</time>
      </trkpt>
      <trkpt lat="28.59814" lon="-14.00321">
        <ele>92.2</ele>
        <time>2021-07-04 15:25:12</time>
      </trkpt>
      <trkpt lat="28.59808" lon="-14.00321">
        <ele>92.2</ele>
        <time>2021-07-04 15:25:13</time>
      </trkpt>
      <trkpt lat="28.59801" lon="-14.00321">
        <ele>91.8</ele>
        <time>2021-07-04 15:25:14</time>
      </trkpt>
      <trkpt lat="28.59795" lon="-14.00322">
        <ele>91.8</ele>
        <time>2021-07-04 15:25:15</time>
      </trkpt>
      <trkpt lat="28.59788" lon="-14.00322">
        <ele>91.6</ele>
        <time>2021-07-04 15:25:16</time>
      </trkpt>
      <trkpt lat="28.59781" lon="-14.00322">
        <ele>91.6</ele>
        <time>2021-07-04 15:25:17</time>
      </trkpt>
      <trkpt lat="28.59775" lon="-14.00323">
        <ele>91.2</ele>
        <time>2021-07-04 15:25:18</time>
      </trkpt>
      <trkpt lat="28.59768" lon="-14.00323">
        <ele>91.2</ele>
        <time>2021-07-04 15:25:19</time>
      </trkpt>
      <trkpt lat="28.59761" lon="-14.00324">
        <ele>91</ele>
        <time>2021-07-04 15:25:20</time>
      </trkpt>
      <trkpt lat="28.59755" lon="-14.00325">
        <ele>91</ele>
        <time>2021-07-04 15:25:21</time>
      </trkpt>
      <trkpt lat="28.59748" lon="-14.00326">
        <ele>90.6</ele>
        <time>2021-07-04 15:25:22</time>
      </trkpt>
      <trkpt lat="28.59741" lon="-14.00326">
        <ele>90.4</ele>
        <time>2021-07-04 15:25:23</time>
      </trkpt>
      <trkpt lat="28.59734" lon="-14.00325">
        <ele>90.2</ele>
        <time>2021-07-04 15:25:24</time>
      </trkpt>
      <trkpt lat="28.59727" lon="-14.00325">
        <ele>89.8</ele>
        <time>2021-07-04 15:25:25</time>
      </trkpt>
      <trkpt lat="28.59719" lon="-14.00325">
        <ele>89.8</ele>
        <time>2021-07-04 15:25:26</time>
      </trkpt>
      <trkpt lat="28.59712" lon="-14.00325">
        <ele>89.4</ele>
        <time>2021-07-04 15:25:27</time>
      </trkpt>
      <trkpt lat="28.59705" lon="-14.00324">
        <ele>89.4</ele>
        <time>2021-07-04 15:25:28</time>
      </trkpt>
      <trkpt lat="28.59698" lon="-14.00324">
        <ele>89</ele>
        <time>2021-07-04 15:25:29</time>
      </trkpt>
      <trkpt lat="28.59691" lon="-14.00324">
        <ele>88.8</ele>
        <time>2021-07-04 15:25:30</time>
      </trkpt>
      <trkpt lat="28.59684" lon="-14.00324">
        <ele>88.6</ele>
        <time>2021-07-04 15:25:31</time>
      </trkpt>
      <trkpt lat="28.59677" lon="-14.00323">
        <ele>88.6</ele>
        <time>2021-07-04 15:25:32</time>
      </trkpt>
      <trkpt lat="28.5967" lon="-14.00323">
        <ele>88.2</ele>
        <time>2021-07-04 15:25:33</time>
      </trkpt>
      <trkpt lat="28.59663" lon="-14.00322">
        <ele>88.2</ele>
        <time>2021-07-04 15:25:34</time>
      </trkpt>
      <trkpt lat="28.59655" lon="-14.00322">
        <ele>88</ele>
        <time>2021-07-04 15:25:35</time>
      </trkpt>
      <trkpt lat="28.59648" lon="-14.00321">
        <ele>88</ele>
        <time>2021-07-04 15:25:36</time>
      </trkpt>
      <trkpt lat="28.59641" lon="-14.00321">
        <ele>88</ele>
        <time>2021-07-04 15:25:37</time>
      </trkpt>
      <trkpt lat="28.59633" lon="-14.0032">
        <ele>88</ele>
        <time>2021-07-04 15:25:38</time>
      </trkpt>
      <trkpt lat="28.59626" lon="-14.0032">
        <ele>88</ele>
        <time>2021-07-04 15:25:39</time>
      </trkpt>
      <trkpt lat="28.59619" lon="-14.00319">
        <ele>88</ele>
        <time>2021-07-04 15:25:40</time>
      </trkpt>
      <trkpt lat="28.59612" lon="-14.00318">
        <ele>88</ele>
        <time>2021-07-04 15:25:41</time>
      </trkpt>
      <trkpt lat="28.59605" lon="-14.00318">
        <ele>88</ele>
        <time>2021-07-04 15:25:42</time>
      </trkpt>
      <trkpt lat="28.59598" lon="-14.00317">
        <ele>88</ele>
        <time>2021-07-04 15:25:43</time>
      </trkpt>
      <trkpt lat="28.59591" lon="-14.00317">
        <ele>87.8</ele>
        <time>2021-07-04 15:25:44</time>
      </trkpt>
      <trkpt lat="28.59584" lon="-14.00316">
        <ele>87.6</ele>
        <time>2021-07-04 15:25:45</time>
      </trkpt>
      <trkpt lat="28.59575" lon="-14.00314">
        <ele>86.8</ele>
        <time>2021-07-04 15:25:46</time>
      </trkpt>
      <trkpt lat="28.59565" lon="-14.00312">
        <ele>86.2</ele>
        <time>2021-07-04 15:25:47</time>
      </trkpt>
      <trkpt lat="28.59555" lon="-14.0031">
        <ele>85.6</ele>
        <time>2021-07-04 15:25:48</time>
      </trkpt>
      <trkpt lat="28.59547" lon="-14.00309">
        <ele>85.2</ele>
        <time>2021-07-04 15:25:49</time>
      </trkpt>
      <trkpt lat="28.5954" lon="-14.00309">
        <ele>85.2</ele>
        <time>2021-07-04 15:25:50</time>
      </trkpt>
      <trkpt lat="28.59534" lon="-14.00309">
        <ele>85.2</ele>
        <time>2021-07-04 15:25:51</time>
      </trkpt>
      <trkpt lat="28.59528" lon="-14.0031">
        <ele>85.6</ele>
        <time>2021-07-04 15:25:52</time>
      </trkpt>
      <trkpt lat="28.59523" lon="-14.0031">
        <ele>86</ele>
        <time>2021-07-04 15:25:53</time>
      </trkpt>
      <trkpt lat="28.59519" lon="-14.0031">
        <ele>86.2</ele>
        <time>2021-07-04 15:25:54</time>
      </trkpt>
      <trkpt lat="28.59514" lon="-14.0031">
        <ele>86.6</ele>
        <time>2021-07-04 15:27:04</time>
      </trkpt>
      <trkpt lat="28.5951" lon="-14.0031">
        <ele>86.8</ele>
        <time>2021-07-04 15:27:05</time>
      </trkpt>
      <trkpt lat="28.59505" lon="-14.0031">
        <ele>87</ele>
        <time>2021-07-04 15:27:06</time>
      </trkpt>
      <trkpt lat="28.59501" lon="-14.0031">
        <ele>87.4</ele>
        <time>2021-07-04 15:27:07</time>
      </trkpt>
      <trkpt lat="28.59496" lon="-14.0031">
        <ele>87.6</ele>
        <time>2021-07-04 15:27:08</time>
      </trkpt>
      <trkpt lat="28.59492" lon="-14.0031">
        <ele>87.8</ele>
        <time>2021-07-04 15:27:09</time>
      </trkpt>
      <trkpt lat="28.59487" lon="-14.00309">
        <ele>87.8</ele>
        <time>2021-07-04 15:27:10</time>
      </trkpt>
      <trkpt lat="28.59483" lon="-14.00309">
        <ele>88.2</ele>
        <time>2021-07-04 15:27:11</time>
      </trkpt>
      <trkpt lat="28.59479" lon="-14.00308">
        <ele>88.4</ele>
        <time>2021-07-04 15:27:12</time>
      </trkpt>
      <trkpt lat="28.59475" lon="-14.00308">
        <ele>88.4</ele>
        <time>2021-07-04 15:27:13</time>
      </trkpt>
      <trkpt lat="28.59471" lon="-14.00307">
        <ele>88.8</ele>
        <time>2021-07-04 15:27:14</time>
      </trkpt>
      <trkpt lat="28.59467" lon="-14.00306">
        <ele>88.8</ele>
        <time>2021-07-04 15:27:15</time>
      </trkpt>
      <trkpt lat="28.59463" lon="-14.00306">
        <ele>89</ele>
        <time>2021-07-04 15:27:16</time>
      </trkpt>
      <trkpt lat="28.59458" lon="-14.00306">
        <ele>89</ele>
        <time>2021-07-04 15:27:17</time>
      </trkpt>
      <trkpt lat="28.59455" lon="-14.00305">
        <ele>89.2</ele>
        <time>2021-07-04 15:27:18</time>
      </trkpt>
      <trkpt lat="28.59451" lon="-14.00305">
        <ele>89.2</ele>
        <time>2021-07-04 15:27:19</time>
      </trkpt>
      <trkpt lat="28.59447" lon="-14.00305">
        <ele>89.4</ele>
        <time>2021-07-04 15:27:20</time>
      </trkpt>
      <trkpt lat="28.59444" lon="-14.00305">
        <ele>89.4</ele>
        <time>2021-07-04 15:27:21</time>
      </trkpt>
      <trkpt lat="28.59441" lon="-14.00305">
        <ele>89.4</ele>
        <time>2021-07-04 15:27:22</time>
      </trkpt>
      <trkpt lat="28.59437" lon="-14.00305">
        <ele>89.4</ele>
        <time>2021-07-04 15:27:23</time>
      </trkpt>
      <trkpt lat="28.59434" lon="-14.00304">
        <ele>89.4</ele>
        <time>2021-07-04 15:27:24</time>
      </trkpt>
      <trkpt lat="28.5943" lon="-14.00304">
        <ele>89.8</ele>
        <time>2021-07-04 15:27:25</time>
      </trkpt>
      <trkpt lat="28.59427" lon="-14.00304">
        <ele>89.8</ele>
        <time>2021-07-04 15:27:26</time>
      </trkpt>
      <trkpt lat="28.59423" lon="-14.00304">
        <ele>89.8</ele>
        <time>2021-07-04 15:27:27</time>
      </trkpt>
      <trkpt lat="28.5942" lon="-14.00303">
        <ele>90</ele>
        <time>2021-07-04 15:27:28</time>
      </trkpt>
      <trkpt lat="28.59417" lon="-14.00303">
        <ele>90</ele>
        <time>2021-07-04 15:27:29</time>
      </trkpt>
      <trkpt lat="28.59414" lon="-14.00303">
        <ele>90</ele>
        <time>2021-07-04 15:27:30</time>
      </trkpt>
      <trkpt lat="28.59411" lon="-14.00303">
        <ele>90.4</ele>
        <time>2021-07-04 15:27:31</time>
      </trkpt>
      <trkpt lat="28.59408" lon="-14.00303">
        <ele>90.4</ele>
        <time>2021-07-04 15:27:32</time>
      </trkpt>
      <trkpt lat="28.59405" lon="-14.00304">
        <ele>90.4</ele>
        <time>2021-07-04 15:27:33</time>
      </trkpt>
      <trkpt lat="28.59402" lon="-14.00304">
        <ele>90.6</ele>
        <time>2021-07-04 15:27:34</time>
      </trkpt>
      <trkpt lat="28.59399" lon="-14.00304">
        <ele>90.6</ele>
        <time>2021-07-04 15:27:35</time>
      </trkpt>
      <trkpt lat="28.59397" lon="-14.00304">
        <ele>90.6</ele>
        <time>2021-07-04 15:27:36</time>
      </trkpt>
      <trkpt lat="28.59394" lon="-14.00304">
        <ele>90.6</ele>
        <time>2021-07-04 15:27:37</time>
      </trkpt>
      <trkpt lat="28.59391" lon="-14.00303">
        <ele>91</ele>
        <time>2021-07-04 15:27:38</time>
      </trkpt>
      <trkpt lat="28.59388" lon="-14.00303">
        <ele>91</ele>
        <time>2021-07-04 15:27:39</time>
      </trkpt>
      <trkpt lat="28.59384" lon="-14.00303">
        <ele>91.2</ele>
        <time>2021-07-04 15:27:40</time>
      </trkpt>
      <trkpt lat="28.59381" lon="-14.00302">
        <ele>91.2</ele>
        <time>2021-07-04 15:27:41</time>
      </trkpt>
      <trkpt lat="28.59377" lon="-14.00302">
        <ele>91.4</ele>
        <time>2021-07-04 15:27:42</time>
      </trkpt>
      <trkpt lat="28.59373" lon="-14.00302">
        <ele>91.4</ele>
        <time>2021-07-04 15:27:43</time>
      </trkpt>
      <trkpt lat="28.59369" lon="-14.00301">
        <ele>91.6</ele>
        <time>2021-07-04 15:27:44</time>
      </trkpt>
      <trkpt lat="28.59366" lon="-14.00301">
        <ele>91.6</ele>
        <time>2021-07-04 15:27:45</time>
      </trkpt>
      <trkpt lat="28.59362" lon="-14.00301">
        <ele>91.6</ele>
        <time>2021-07-04 15:27:46</time>
      </trkpt>
      <trkpt lat="28.59358" lon="-14.00301">
        <ele>91.8</ele>
        <time>2021-07-04 15:27:47</time>
      </trkpt>
      <trkpt lat="28.59354" lon="-14.00301">
        <ele>92</ele>
        <time>2021-07-04 15:27:48</time>
      </trkpt>
      <trkpt lat="28.59351" lon="-14.00301">
        <ele>92</ele>
        <time>2021-07-04 15:27:49</time>
      </trkpt>
      <trkpt lat="28.59347" lon="-14.003">
        <ele>92.4</ele>
        <time>2021-07-04 15:27:50</time>
      </trkpt>
      <trkpt lat="28.59343" lon="-14.003">
        <ele>92.4</ele>
        <time>2021-07-04 15:27:51</time>
      </trkpt>
      <trkpt lat="28.59339" lon="-14.003">
        <ele>92.6</ele>
        <time>2021-07-04 15:27:52</time>
      </trkpt>
      <trkpt lat="28.59336" lon="-14.00299">
        <ele>92.6</ele>
        <time>2021-07-04 15:27:53</time>
      </trkpt>
      <trkpt lat="28.59332" lon="-14.00299">
        <ele>93</ele>
        <time>2021-07-04 15:27:54</time>
      </trkpt>
      <trkpt lat="28.59328" lon="-14.00299">
        <ele>93</ele>
        <time>2021-07-04 15:27:55</time>
      </trkpt>
      <trkpt lat="28.59325" lon="-14.00299">
        <ele>93.4</ele>
        <time>2021-07-04 15:27:56</time>
      </trkpt>
      <trkpt lat="28.59321" lon="-14.00299">
        <ele>93.4</ele>
        <time>2021-07-04 15:27:57</time>
      </trkpt>
      <trkpt lat="28.59317" lon="-14.00299">
        <ele>93.6</ele>
        <time>2021-07-04 15:27:58</time>
      </trkpt>
      <trkpt lat="28.59313" lon="-14.00298">
        <ele>93.6</ele>
        <time>2021-07-04 15:27:59</time>
      </trkpt>
      <trkpt lat="28.5931" lon="-14.00298">
        <ele>93.8</ele>
        <time>2021-07-04 15:28:00</time>
      </trkpt>
      <trkpt lat="28.59306" lon="-14.00298">
        <ele>94</ele>
        <time>2021-07-04 15:28:01</time>
      </trkpt>
      <trkpt lat="28.59302" lon="-14.00298">
        <ele>94</ele>
        <time>2021-07-04 15:28:02</time>
      </trkpt>
      <trkpt lat="28.59298" lon="-14.00297">
        <ele>94.2</ele>
        <time>2021-07-04 15:28:03</time>
      </trkpt>
      <trkpt lat="28.59295" lon="-14.00297">
        <ele>94.2</ele>
        <time>2021-07-04 15:28:04</time>
      </trkpt>
      <trkpt lat="28.59291" lon="-14.00297">
        <ele>94.4</ele>
        <time>2021-07-04 15:28:05</time>
      </trkpt>
      <trkpt lat="28.59288" lon="-14.00297">
        <ele>94.4</ele>
        <time>2021-07-04 15:28:06</time>
      </trkpt>
      <trkpt lat="28.59284" lon="-14.00297">
        <ele>94.8</ele>
        <time>2021-07-04 15:28:07</time>
      </trkpt>
      <trkpt lat="28.59281" lon="-14.00297">
        <ele>94.8</ele>
        <time>2021-07-04 15:28:08</time>
      </trkpt>
      <trkpt lat="28.59277" lon="-14.00296">
        <ele>94.8</ele>
        <time>2021-07-04 15:28:09</time>
      </trkpt>
      <trkpt lat="28.59274" lon="-14.00296">
        <ele>94.8</ele>
        <time>2021-07-04 15:28:10</time>
      </trkpt>
      <trkpt lat="28.5927" lon="-14.00296">
        <ele>95.2</ele>
        <time>2021-07-04 15:28:11</time>
      </trkpt>
      <trkpt lat="28.59267" lon="-14.00296">
        <ele>95.4</ele>
        <time>2021-07-04 15:28:12</time>
      </trkpt>
      <trkpt lat="28.59264" lon="-14.00295">
        <ele>95.4</ele>
        <time>2021-07-04 15:28:13</time>
      </trkpt>
      <trkpt lat="28.5926" lon="-14.00295">
        <ele>95.4</ele>
        <time>2021-07-04 15:28:14</time>
      </trkpt>
      <trkpt lat="28.59257" lon="-14.00294">
        <ele>95.8</ele>
        <time>2021-07-04 15:28:15</time>
      </trkpt>
      <trkpt lat="28.59253" lon="-14.00294">
        <ele>95.8</ele>
        <time>2021-07-04 15:28:16</time>
      </trkpt>
      <trkpt lat="28.5925" lon="-14.00294">
        <ele>96.2</ele>
        <time>2021-07-04 15:28:17</time>
      </trkpt>
      <trkpt lat="28.59246" lon="-14.00294">
        <ele>96.2</ele>
        <time>2021-07-04 15:28:18</time>
      </trkpt>
      <trkpt lat="28.59243" lon="-14.00294">
        <ele>96.4</ele>
        <time>2021-07-04 15:28:19</time>
      </trkpt>
      <trkpt lat="28.59239" lon="-14.00293">
        <ele>96.4</ele>
        <time>2021-07-04 15:28:20</time>
      </trkpt>
      <trkpt lat="28.59236" lon="-14.00293">
        <ele>96.6</ele>
        <time>2021-07-04 15:28:21</time>
      </trkpt>
      <trkpt lat="28.59232" lon="-14.00293">
        <ele>96.6</ele>
        <time>2021-07-04 15:28:22</time>
      </trkpt>
      <trkpt lat="28.59229" lon="-14.00293">
        <ele>97</ele>
        <time>2021-07-04 15:28:23</time>
      </trkpt>
      <trkpt lat="28.59225" lon="-14.00293">
        <ele>97</ele>
        <time>2021-07-04 15:28:24</time>
      </trkpt>
      <trkpt lat="28.59222" lon="-14.00293">
        <ele>97</ele>
        <time>2021-07-04 15:28:25</time>
      </trkpt>
      <trkpt lat="28.59218" lon="-14.00293">
        <ele>97.4</ele>
        <time>2021-07-04 15:28:26</time>
      </trkpt>
      <trkpt lat="28.59215" lon="-14.00293">
        <ele>97.8</ele>
        <time>2021-07-04 15:28:27</time>
      </trkpt>
      <trkpt lat="28.59212" lon="-14.00292">
        <ele>97.8</ele>
        <time>2021-07-04 15:28:28</time>
      </trkpt>
      <trkpt lat="28.59209" lon="-14.00292">
        <ele>98</ele>
        <time>2021-07-04 15:28:29</time>
      </trkpt>
      <trkpt lat="28.59205" lon="-14.00291">
        <ele>98</ele>
        <time>2021-07-04 15:28:30</time>
      </trkpt>
      <trkpt lat="28.59202" lon="-14.0029">
        <ele>98</ele>
        <time>2021-07-04 15:28:31</time>
      </trkpt>
      <trkpt lat="28.59198" lon="-14.0029">
        <ele>98.2</ele>
        <time>2021-07-04 15:28:32</time>
      </trkpt>
      <trkpt lat="28.59195" lon="-14.0029">
        <ele>98.2</ele>
        <time>2021-07-04 15:28:33</time>
      </trkpt>
      <trkpt lat="28.59191" lon="-14.00289">
        <ele>98.6</ele>
        <time>2021-07-04 15:28:34</time>
      </trkpt>
      <trkpt lat="28.59187" lon="-14.00289">
        <ele>98.8</ele>
        <time>2021-07-04 15:28:35</time>
      </trkpt>
      <trkpt lat="28.59184" lon="-14.00289">
        <ele>98.8</ele>
        <time>2021-07-04 15:28:36</time>
      </trkpt>
      <trkpt lat="28.5918" lon="-14.00289">
        <ele>99</ele>
        <time>2021-07-04 15:28:37</time>
      </trkpt>
      <trkpt lat="28.59176" lon="-14.00289">
        <ele>99</ele>
        <time>2021-07-04 15:28:38</time>
      </trkpt>
      <trkpt lat="28.59172" lon="-14.00289">
        <ele>99</ele>
        <time>2021-07-04 15:28:39</time>
      </trkpt>
      <trkpt lat="28.59169" lon="-14.00289">
        <ele>99.2</ele>
        <time>2021-07-04 15:28:40</time>
      </trkpt>
      <trkpt lat="28.59166" lon="-14.00289">
        <ele>99.2</ele>
        <time>2021-07-04 15:28:41</time>
      </trkpt>
      <trkpt lat="28.59163" lon="-14.00289">
        <ele>99.6</ele>
        <time>2021-07-04 15:28:42</time>
      </trkpt>
      <trkpt lat="28.59159" lon="-14.00289">
        <ele>99.6</ele>
        <time>2021-07-04 15:28:43</time>
      </trkpt>
      <trkpt lat="28.59156" lon="-14.00288">
        <ele>99.6</ele>
        <time>2021-07-04 15:28:44</time>
      </trkpt>
      <trkpt lat="28.59154" lon="-14.00288">
        <ele>99.6</ele>
        <time>2021-07-04 15:28:45</time>
      </trkpt>
      <trkpt lat="28.59151" lon="-14.00287">
        <ele>99.6</ele>
        <time>2021-07-04 15:28:46</time>
      </trkpt>
      <trkpt lat="28.59147" lon="-14.00286">
        <ele>99.6</ele>
        <time>2021-07-04 15:28:47</time>
      </trkpt>
      <trkpt lat="28.59143" lon="-14.00286">
        <ele>99.6</ele>
        <time>2021-07-04 15:28:48</time>
      </trkpt>
      <trkpt lat="28.5914" lon="-14.00285">
        <ele>99.8</ele>
        <time>2021-07-04 15:28:49</time>
      </trkpt>
      <trkpt lat="28.59136" lon="-14.00284">
        <ele>99.8</ele>
        <time>2021-07-04 15:28:50</time>
      </trkpt>
      <trkpt lat="28.59133" lon="-14.00283">
        <ele>99.8</ele>
        <time>2021-07-04 15:28:51</time>
      </trkpt>
      <trkpt lat="28.5913" lon="-14.00282">
        <ele>100.2</ele>
        <time>2021-07-04 15:28:52</time>
      </trkpt>
      <trkpt lat="28.59126" lon="-14.00281">
        <ele>100.4</ele>
        <time>2021-07-04 15:28:53</time>
      </trkpt>
      <trkpt lat="28.59123" lon="-14.00281">
        <ele>100.6</ele>
        <time>2021-07-04 15:28:54</time>
      </trkpt>
      <trkpt lat="28.5912" lon="-14.00281">
        <ele>100.6</ele>
        <time>2021-07-04 15:28:55</time>
      </trkpt>
      <trkpt lat="28.59116" lon="-14.00281">
        <ele>100.8</ele>
        <time>2021-07-04 15:28:56</time>
      </trkpt>
      <trkpt lat="28.59113" lon="-14.00282">
        <ele>100.8</ele>
        <time>2021-07-04 15:28:57</time>
      </trkpt>
      <trkpt lat="28.5911" lon="-14.00282">
        <ele>101.2</ele>
        <time>2021-07-04 15:28:58</time>
      </trkpt>
      <trkpt lat="28.59108" lon="-14.00283">
        <ele>101.2</ele>
        <time>2021-07-04 15:28:59</time>
      </trkpt>
      <trkpt lat="28.59105" lon="-14.00283">
        <ele>101.4</ele>
        <time>2021-07-04 15:29:00</time>
      </trkpt>
      <trkpt lat="28.59103" lon="-14.00283">
        <ele>101.4</ele>
        <time>2021-07-04 15:29:01</time>
      </trkpt>
      <trkpt lat="28.59101" lon="-14.00283">
        <ele>101.8</ele>
        <time>2021-07-04 15:29:02</time>
      </trkpt>
      <trkpt lat="28.59099" lon="-14.00283">
        <ele>101.8</ele>
        <time>2021-07-04 15:29:03</time>
      </trkpt>
      <trkpt lat="28.59097" lon="-14.00284">
        <ele>102</ele>
        <time>2021-07-04 15:29:04</time>
      </trkpt>
      <trkpt lat="28.59095" lon="-14.00284">
        <ele>102</ele>
        <time>2021-07-04 15:29:05</time>
      </trkpt>
      <trkpt lat="28.59092" lon="-14.00284">
        <ele>102.2</ele>
        <time>2021-07-04 15:29:06</time>
      </trkpt>
      <trkpt lat="28.59089" lon="-14.00284">
        <ele>102.2</ele>
        <time>2021-07-04 15:29:07</time>
      </trkpt>
      <trkpt lat="28.59086" lon="-14.00285">
        <ele>102.6</ele>
        <time>2021-07-04 15:29:08</time>
      </trkpt>
      <trkpt lat="28.59082" lon="-14.00285">
        <ele>102.6</ele>
        <time>2021-07-04 15:29:09</time>
      </trkpt>
      <trkpt lat="28.59079" lon="-14.00285">
        <ele>102.6</ele>
        <time>2021-07-04 15:29:10</time>
      </trkpt>
      <trkpt lat="28.59075" lon="-14.00285">
        <ele>102.8</ele>
        <time>2021-07-04 15:29:11</time>
      </trkpt>
      <trkpt lat="28.59071" lon="-14.00286">
        <ele>102.8</ele>
        <time>2021-07-04 15:29:12</time>
      </trkpt>
      <trkpt lat="28.59067" lon="-14.00286">
        <ele>103.2</ele>
        <time>2021-07-04 15:29:13</time>
      </trkpt>
      <trkpt lat="28.59062" lon="-14.00286">
        <ele>103.4</ele>
        <time>2021-07-04 15:29:14</time>
      </trkpt>
      <trkpt lat="28.59058" lon="-14.00286">
        <ele>103.4</ele>
        <time>2021-07-04 15:29:15</time>
      </trkpt>
      <trkpt lat="28.59054" lon="-14.00286">
        <ele>103.4</ele>
        <time>2021-07-04 15:29:16</time>
      </trkpt>
      <trkpt lat="28.5905" lon="-14.00286">
        <ele>103.6</ele>
        <time>2021-07-04 15:29:17</time>
      </trkpt>
      <trkpt lat="28.59046" lon="-14.00287">
        <ele>103.6</ele>
        <time>2021-07-04 15:29:18</time>
      </trkpt>
      <trkpt lat="28.59042" lon="-14.00288">
        <ele>103.6</ele>
        <time>2021-07-04 15:29:19</time>
      </trkpt>
      <trkpt lat="28.59037" lon="-14.00289">
        <ele>104</ele>
        <time>2021-07-04 15:29:20</time>
      </trkpt>
      <trkpt lat="28.59033" lon="-14.00289">
        <ele>104.2</ele>
        <time>2021-07-04 15:29:21</time>
      </trkpt>
      <trkpt lat="28.59029" lon="-14.0029">
        <ele>104.4</ele>
        <time>2021-07-04 15:29:22</time>
      </trkpt>
      <trkpt lat="28.59024" lon="-14.00292">
        <ele>104.4</ele>
        <time>2021-07-04 15:29:23</time>
      </trkpt>
      <trkpt lat="28.5902" lon="-14.00292">
        <ele>104.8</ele>
        <time>2021-07-04 15:29:24</time>
      </trkpt>
      <trkpt lat="28.59016" lon="-14.00293">
        <ele>104.8</ele>
        <time>2021-07-04 15:29:25</time>
      </trkpt>
      <trkpt lat="28.59011" lon="-14.00294">
        <ele>104.8</ele>
        <time>2021-07-04 15:29:26</time>
      </trkpt>
      <trkpt lat="28.59007" lon="-14.00295">
        <ele>104.8</ele>
        <time>2021-07-04 15:29:27</time>
      </trkpt>
      <trkpt lat="28.59003" lon="-14.00296">
        <ele>104.8</ele>
        <time>2021-07-04 15:29:28</time>
      </trkpt>
      <trkpt lat="28.58999" lon="-14.00298">
        <ele>104.8</ele>
        <time>2021-07-04 15:29:29</time>
      </trkpt>
      <trkpt lat="28.58995" lon="-14.00298">
        <ele>104.8</ele>
        <time>2021-07-04 15:29:30</time>
      </trkpt>
      <trkpt lat="28.5899" lon="-14.00299">
        <ele>104.8</ele>
        <time>2021-07-04 15:29:31</time>
      </trkpt>
      <trkpt lat="28.58986" lon="-14.003">
        <ele>104.8</ele>
        <time>2021-07-04 15:29:32</time>
      </trkpt>
      <trkpt lat="28.58982" lon="-14.00301">
        <ele>104.8</ele>
        <time>2021-07-04 15:29:33</time>
      </trkpt>
      <trkpt lat="28.58977" lon="-14.00302">
        <ele>105</ele>
        <time>2021-07-04 15:29:34</time>
      </trkpt>
      <trkpt lat="28.58973" lon="-14.00303">
        <ele>105</ele>
        <time>2021-07-04 15:29:35</time>
      </trkpt>
      <trkpt lat="28.58969" lon="-14.00304">
        <ele>105</ele>
        <time>2021-07-04 15:29:36</time>
      </trkpt>
      <trkpt lat="28.58964" lon="-14.00304">
        <ele>105</ele>
        <time>2021-07-04 15:29:37</time>
      </trkpt>
      <trkpt lat="28.5896" lon="-14.00305">
        <ele>105</ele>
        <time>2021-07-04 15:29:38</time>
      </trkpt>
      <trkpt lat="28.58956" lon="-14.00305">
        <ele>105</ele>
        <time>2021-07-04 15:29:39</time>
      </trkpt>
      <trkpt lat="28.58952" lon="-14.00306">
        <ele>105.2</ele>
        <time>2021-07-04 15:29:40</time>
      </trkpt>
      <trkpt lat="28.58948" lon="-14.00306">
        <ele>105.2</ele>
        <time>2021-07-04 15:29:41</time>
      </trkpt>
      <trkpt lat="28.58944" lon="-14.00307">
        <ele>105.2</ele>
        <time>2021-07-04 15:29:42</time>
      </trkpt>
      <trkpt lat="28.5894" lon="-14.00307">
        <ele>105.6</ele>
        <time>2021-07-04 15:29:43</time>
      </trkpt>
      <trkpt lat="28.58936" lon="-14.00307">
        <ele>105.8</ele>
        <time>2021-07-04 15:29:44</time>
      </trkpt>
      <trkpt lat="28.58932" lon="-14.00308">
        <ele>105.8</ele>
        <time>2021-07-04 15:29:45</time>
      </trkpt>
      <trkpt lat="28.58928" lon="-14.0031">
        <ele>106.2</ele>
        <time>2021-07-04 15:29:46</time>
      </trkpt>
      <trkpt lat="28.58924" lon="-14.0031">
        <ele>106.2</ele>
        <time>2021-07-04 15:29:47</time>
      </trkpt>
      <trkpt lat="28.58921" lon="-14.00311">
        <ele>106.4</ele>
        <time>2021-07-04 15:29:48</time>
      </trkpt>
      <trkpt lat="28.58918" lon="-14.00311">
        <ele>106.4</ele>
        <time>2021-07-04 15:29:49</time>
      </trkpt>
      <trkpt lat="28.58914" lon="-14.00312">
        <ele>106.8</ele>
        <time>2021-07-04 15:29:50</time>
      </trkpt>
      <trkpt lat="28.58911" lon="-14.00313">
        <ele>106.8</ele>
        <time>2021-07-04 15:29:51</time>
      </trkpt>
      <trkpt lat="28.58907" lon="-14.00314">
        <ele>107.2</ele>
        <time>2021-07-04 15:29:52</time>
      </trkpt>
      <trkpt lat="28.58903" lon="-14.00315">
        <ele>107.2</ele>
        <time>2021-07-04 15:29:53</time>
      </trkpt>
      <trkpt lat="28.58899" lon="-14.00316">
        <ele>107.4</ele>
        <time>2021-07-04 15:29:54</time>
      </trkpt>
      <trkpt lat="28.58895" lon="-14.00317">
        <ele>107.4</ele>
        <time>2021-07-04 15:29:55</time>
      </trkpt>
      <trkpt lat="28.58891" lon="-14.00318">
        <ele>107.6</ele>
        <time>2021-07-04 15:29:56</time>
      </trkpt>
      <trkpt lat="28.58887" lon="-14.00319">
        <ele>107.6</ele>
        <time>2021-07-04 15:29:57</time>
      </trkpt>
      <trkpt lat="28.58883" lon="-14.00319">
        <ele>107.8</ele>
        <time>2021-07-04 15:29:58</time>
      </trkpt>
      <trkpt lat="28.5888" lon="-14.0032">
        <ele>107.8</ele>
        <time>2021-07-04 15:29:59</time>
      </trkpt>
      <trkpt lat="28.58876" lon="-14.00321">
        <ele>107.8</ele>
        <time>2021-07-04 15:30:00</time>
      </trkpt>
      <trkpt lat="28.58873" lon="-14.00322">
        <ele>107.8</ele>
        <time>2021-07-04 15:30:01</time>
      </trkpt>
      <trkpt lat="28.58868" lon="-14.00324">
        <ele>108.2</ele>
        <time>2021-07-04 15:30:02</time>
      </trkpt>
      <trkpt lat="28.58864" lon="-14.00325">
        <ele>108.4</ele>
        <time>2021-07-04 15:30:03</time>
      </trkpt>
      <trkpt lat="28.5886" lon="-14.00326">
        <ele>108.4</ele>
        <time>2021-07-04 15:30:04</time>
      </trkpt>
      <trkpt lat="28.58856" lon="-14.00327">
        <ele>108.6</ele>
        <time>2021-07-04 15:30:05</time>
      </trkpt>
      <trkpt lat="28.58851" lon="-14.00327">
        <ele>108.6</ele>
        <time>2021-07-04 15:30:06</time>
      </trkpt>
      <trkpt lat="28.58847" lon="-14.00327">
        <ele>108.6</ele>
        <time>2021-07-04 15:30:07</time>
      </trkpt>
      <trkpt lat="28.58842" lon="-14.00328">
        <ele>108.8</ele>
        <time>2021-07-04 15:30:08</time>
      </trkpt>
      <trkpt lat="28.58838" lon="-14.00328">
        <ele>108.8</ele>
        <time>2021-07-04 15:30:09</time>
      </trkpt>
      <trkpt lat="28.58833" lon="-14.0033">
        <ele>108.8</ele>
        <time>2021-07-04 15:30:10</time>
      </trkpt>
      <trkpt lat="28.58829" lon="-14.00331">
        <ele>109</ele>
        <time>2021-07-04 15:30:11</time>
      </trkpt>
      <trkpt lat="28.58824" lon="-14.00332">
        <ele>109</ele>
        <time>2021-07-04 15:30:12</time>
      </trkpt>
      <trkpt lat="28.58819" lon="-14.00333">
        <ele>109</ele>
        <time>2021-07-04 15:30:13</time>
      </trkpt>
      <trkpt lat="28.58815" lon="-14.00335">
        <ele>109.2</ele>
        <time>2021-07-04 15:30:14</time>
      </trkpt>
      <trkpt lat="28.5881" lon="-14.00337">
        <ele>109.2</ele>
        <time>2021-07-04 15:30:15</time>
      </trkpt>
      <trkpt lat="28.58806" lon="-14.0034">
        <ele>109.6</ele>
        <time>2021-07-04 15:30:16</time>
      </trkpt>
      <trkpt lat="28.58801" lon="-14.00342">
        <ele>109.6</ele>
        <time>2021-07-04 15:30:17</time>
      </trkpt>
      <trkpt lat="28.58796" lon="-14.00344">
        <ele>109.8</ele>
        <time>2021-07-04 15:30:18</time>
      </trkpt>
      <trkpt lat="28.58791" lon="-14.00345">
        <ele>110</ele>
        <time>2021-07-04 15:30:19</time>
      </trkpt>
      <trkpt lat="28.58786" lon="-14.00347">
        <ele>110</ele>
        <time>2021-07-04 15:30:20</time>
      </trkpt>
      <trkpt lat="28.58782" lon="-14.00348">
        <ele>110.4</ele>
        <time>2021-07-04 15:30:21</time>
      </trkpt>
      <trkpt lat="28.58777" lon="-14.0035">
        <ele>110.4</ele>
        <time>2021-07-04 15:30:22</time>
      </trkpt>
      <trkpt lat="28.58772" lon="-14.00351">
        <ele>110.8</ele>
        <time>2021-07-04 15:30:23</time>
      </trkpt>
      <trkpt lat="28.58767" lon="-14.00352">
        <ele>110.8</ele>
        <time>2021-07-04 15:30:24</time>
      </trkpt>
      <trkpt lat="28.58762" lon="-14.00353">
        <ele>110.8</ele>
        <time>2021-07-04 15:30:25</time>
      </trkpt>
      <trkpt lat="28.58757" lon="-14.00353">
        <ele>110.8</ele>
        <time>2021-07-04 15:30:26</time>
      </trkpt>
      <trkpt lat="28.58752" lon="-14.00353">
        <ele>110.8</ele>
        <time>2021-07-04 15:30:27</time>
      </trkpt>
      <trkpt lat="28.58747" lon="-14.00354">
        <ele>110.8</ele>
        <time>2021-07-04 15:30:28</time>
      </trkpt>
      <trkpt lat="28.58742" lon="-14.00355">
        <ele>111</ele>
        <time>2021-07-04 15:30:29</time>
      </trkpt>
      <trkpt lat="28.58737" lon="-14.00356">
        <ele>111</ele>
        <time>2021-07-04 15:30:30</time>
      </trkpt>
      <trkpt lat="28.58732" lon="-14.00357">
        <ele>111</ele>
        <time>2021-07-04 15:30:31</time>
      </trkpt>
      <trkpt lat="28.58727" lon="-14.00358">
        <ele>111</ele>
        <time>2021-07-04 15:30:32</time>
      </trkpt>
      <trkpt lat="28.58722" lon="-14.00359">
        <ele>111.2</ele>
        <time>2021-07-04 15:30:33</time>
      </trkpt>
      <trkpt lat="28.58716" lon="-14.0036">
        <ele>111.2</ele>
        <time>2021-07-04 15:30:34</time>
      </trkpt>
      <trkpt lat="28.58712" lon="-14.00361">
        <ele>111.2</ele>
        <time>2021-07-04 15:30:35</time>
      </trkpt>
      <trkpt lat="28.58706" lon="-14.00362">
        <ele>111.2</ele>
        <time>2021-07-04 15:30:36</time>
      </trkpt>
      <trkpt lat="28.58701" lon="-14.00363">
        <ele>111</ele>
        <time>2021-07-04 15:30:37</time>
      </trkpt>
      <trkpt lat="28.58696" lon="-14.00363">
        <ele>111</ele>
        <time>2021-07-04 15:30:38</time>
      </trkpt>
      <trkpt lat="28.58692" lon="-14.00365">
        <ele>111.2</ele>
        <time>2021-07-04 15:30:39</time>
      </trkpt>
      <trkpt lat="28.58686" lon="-14.00365">
        <ele>110.8</ele>
        <time>2021-07-04 15:30:40</time>
      </trkpt>
      <trkpt lat="28.58681" lon="-14.00366">
        <ele>111</ele>
        <time>2021-07-04 15:30:41</time>
      </trkpt>
      <trkpt lat="28.58677" lon="-14.00367">
        <ele>111</ele>
        <time>2021-07-04 15:30:42</time>
      </trkpt>
      <trkpt lat="28.58672" lon="-14.00367">
        <ele>111.2</ele>
        <time>2021-07-04 15:30:43</time>
      </trkpt>
      <trkpt lat="28.58667" lon="-14.00368">
        <ele>111.2</ele>
        <time>2021-07-04 15:30:44</time>
      </trkpt>
      <trkpt lat="28.58662" lon="-14.00369">
        <ele>111.2</ele>
        <time>2021-07-04 15:30:45</time>
      </trkpt>
      <trkpt lat="28.58657" lon="-14.00369">
        <ele>111.2</ele>
        <time>2021-07-04 15:30:46</time>
      </trkpt>
      <trkpt lat="28.58654" lon="-14.00369">
        <ele>111.2</ele>
        <time>2021-07-04 15:30:47</time>
      </trkpt>
      <trkpt lat="28.5865" lon="-14.00369">
        <ele>111.2</ele>
        <time>2021-07-04 15:30:48</time>
      </trkpt>
      <trkpt lat="28.58647" lon="-14.0037">
        <ele>111.2</ele>
        <time>2021-07-04 15:30:49</time>
      </trkpt>
      <trkpt lat="28.58645" lon="-14.00372">
        <ele>111.2</ele>
        <time>2021-07-04 15:30:50</time>
      </trkpt>
      <trkpt lat="28.58643" lon="-14.00373">
        <ele>111.2</ele>
        <time>2021-07-04 15:30:51</time>
      </trkpt>
      <trkpt lat="28.58642" lon="-14.00376">
        <ele>111.2</ele>
        <time>2021-07-04 15:30:52</time>
      </trkpt>
      <trkpt lat="28.5864" lon="-14.00378">
        <ele>111.2</ele>
        <time>2021-07-04 15:30:53</time>
      </trkpt>
      <trkpt lat="28.5864" lon="-14.00381">
        <ele>111.4</ele>
        <time>2021-07-04 15:30:54</time>
      </trkpt>
      <trkpt lat="28.58638" lon="-14.00385">
        <ele>111.4</ele>
        <time>2021-07-04 15:30:55</time>
      </trkpt>
      <trkpt lat="28.58637" lon="-14.00389">
        <ele>111.4</ele>
        <time>2021-07-04 15:30:56</time>
      </trkpt>
      <trkpt lat="28.58637" lon="-14.00393">
        <ele>111.4</ele>
        <time>2021-07-04 15:30:57</time>
      </trkpt>
      <trkpt lat="28.58637" lon="-14.00397">
        <ele>111.4</ele>
        <time>2021-07-04 15:30:58</time>
      </trkpt>
      <trkpt lat="28.58637" lon="-14.004">
        <ele>111.4</ele>
        <time>2021-07-04 15:30:59</time>
      </trkpt>
      <trkpt lat="28.58637" lon="-14.00404">
        <ele>111.8</ele>
        <time>2021-07-04 15:31:00</time>
      </trkpt>
      <trkpt lat="28.58637" lon="-14.00408">
        <ele>111.8</ele>
        <time>2021-07-04 15:31:01</time>
      </trkpt>
      <trkpt lat="28.58637" lon="-14.0041">
        <ele>111.8</ele>
        <time>2021-07-04 15:31:02</time>
      </trkpt>
      <trkpt lat="28.58637" lon="-14.00412">
        <ele>111.8</ele>
        <time>2021-07-04 15:31:03</time>
      </trkpt>
      <trkpt lat="28.58637" lon="-14.00414">
        <ele>112</ele>
        <time>2021-07-04 15:31:04</time>
      </trkpt>
      <trkpt lat="28.58637" lon="-14.00415">
        <ele>112.2</ele>
        <time>2021-07-04 15:31:05</time>
      </trkpt>
      <trkpt lat="28.58637" lon="-14.00415">
        <ele>112.4</ele>
        <time>2021-07-04 15:31:06</time>
      </trkpt>
      <trkpt lat="28.58638" lon="-14.00415">
        <ele>112.4</ele>
        <time>2021-07-04 15:31:07</time>
      </trkpt>
      <trkpt lat="28.58638" lon="-14.00414">
        <ele>113</ele>
        <time>2021-07-04 15:31:08</time>
      </trkpt>
      <trkpt lat="28.58639" lon="-14.00415">
        <ele>112.8</ele>
        <time>2021-07-04 15:31:09</time>
      </trkpt>
      <trkpt lat="28.5864" lon="-14.00415">
        <ele>112.8</ele>
        <time>2021-07-04 15:31:10</time>
      </trkpt>
      <trkpt lat="28.58641" lon="-14.00414">
        <ele>112.8</ele>
        <time>2021-07-04 15:31:11</time>
      </trkpt>
      <trkpt lat="28.5864" lon="-14.00413">
        <ele>112.8</ele>
        <time>2021-07-04 15:31:12</time>
      </trkpt>
      <trkpt lat="28.58639" lon="-14.00411">
        <ele>112.8</ele>
        <time>2021-07-04 15:31:13</time>
      </trkpt>
      <trkpt lat="28.58637" lon="-14.00408">
        <ele>112.8</ele>
        <time>2021-07-04 15:31:14</time>
      </trkpt>
      <trkpt lat="28.58637" lon="-14.00405">
        <ele>112.8</ele>
        <time>2021-07-04 15:31:15</time>
      </trkpt>
      <trkpt lat="28.58637" lon="-14.00402">
        <ele>113.2</ele>
        <time>2021-07-04 15:31:16</time>
      </trkpt>
      <trkpt lat="28.58638" lon="-14.00399">
        <ele>113.2</ele>
        <time>2021-07-04 15:31:17</time>
      </trkpt>
      <trkpt lat="28.58638" lon="-14.00395">
        <ele>113.6</ele>
        <time>2021-07-04 15:31:18</time>
      </trkpt>
      <trkpt lat="28.58638" lon="-14.00391">
        <ele>113.8</ele>
        <time>2021-07-04 15:31:19</time>
      </trkpt>
      <trkpt lat="28.58638" lon="-14.00388">
        <ele>114</ele>
        <time>2021-07-04 15:31:20</time>
      </trkpt>
      <trkpt lat="28.58639" lon="-14.00385">
        <ele>114.2</ele>
        <time>2021-07-04 15:31:21</time>
      </trkpt>
      <trkpt lat="28.58639" lon="-14.00383">
        <ele>114.2</ele>
        <time>2021-07-04 15:31:22</time>
      </trkpt>
      <trkpt lat="28.58637" lon="-14.00381">
        <ele>114.6</ele>
        <time>2021-07-04 15:31:23</time>
      </trkpt>
      <trkpt lat="28.58635" lon="-14.00379">
        <ele>114.6</ele>
        <time>2021-07-04 15:31:24</time>
      </trkpt>
      <trkpt lat="28.58632" lon="-14.00379">
        <ele>114.6</ele>
        <time>2021-07-04 15:31:25</time>
      </trkpt>
      <trkpt lat="28.58628" lon="-14.00379">
        <ele>114.6</ele>
        <time>2021-07-04 15:31:26</time>
      </trkpt>
      <trkpt lat="28.58623" lon="-14.00382">
        <ele>114.4</ele>
        <time>2021-07-04 15:31:27</time>
      </trkpt>
      <trkpt lat="28.58619" lon="-14.00382">
        <ele>114.4</ele>
        <time>2021-07-04 15:31:28</time>
      </trkpt>
      <trkpt lat="28.58616" lon="-14.00382">
        <ele>114</ele>
        <time>2021-07-04 15:31:29</time>
      </trkpt>
      <trkpt lat="28.58612" lon="-14.00382">
        <ele>114</ele>
        <time>2021-07-04 15:31:30</time>
      </trkpt>
      <trkpt lat="28.58607" lon="-14.00382">
        <ele>113.8</ele>
        <time>2021-07-04 15:31:31</time>
      </trkpt>
      <trkpt lat="28.58604" lon="-14.00382">
        <ele>113.8</ele>
        <time>2021-07-04 15:31:32</time>
      </trkpt>
      <trkpt lat="28.586" lon="-14.00382">
        <ele>113.4</ele>
        <time>2021-07-04 15:31:33</time>
      </trkpt>
      <trkpt lat="28.58596" lon="-14.00382">
        <ele>113.4</ele>
        <time>2021-07-04 15:31:34</time>
      </trkpt>
      <trkpt lat="28.58592" lon="-14.00382">
        <ele>113.4</ele>
        <time>2021-07-04 15:31:35</time>
      </trkpt>
      <trkpt lat="28.58587" lon="-14.00382">
        <ele>113.2</ele>
        <time>2021-07-04 15:31:36</time>
      </trkpt>
      <trkpt lat="28.58583" lon="-14.00381">
        <ele>113.2</ele>
        <time>2021-07-04 15:31:37</time>
      </trkpt>
      <trkpt lat="28.58579" lon="-14.00381">
        <ele>113</ele>
        <time>2021-07-04 15:31:38</time>
      </trkpt>
      <trkpt lat="28.58575" lon="-14.00381">
        <ele>113</ele>
        <time>2021-07-04 15:31:39</time>
      </trkpt>
      <trkpt lat="28.58571" lon="-14.00381">
        <ele>112.6</ele>
        <time>2021-07-04 15:31:40</time>
      </trkpt>
      <trkpt lat="28.58567" lon="-14.00381">
        <ele>112.6</ele>
        <time>2021-07-04 15:31:41</time>
      </trkpt>
      <trkpt lat="28.58563" lon="-14.00381">
        <ele>112.2</ele>
        <time>2021-07-04 15:31:42</time>
      </trkpt>
      <trkpt lat="28.58559" lon="-14.00381">
        <ele>112.2</ele>
        <time>2021-07-04 15:31:43</time>
      </trkpt>
      <trkpt lat="28.58555" lon="-14.00381">
        <ele>112.2</ele>
        <time>2021-07-04 15:31:44</time>
      </trkpt>
      <trkpt lat="28.58541" lon="-14.00381">
        <ele>111.6</ele>
        <time>2021-07-04 15:31:45</time>
      </trkpt>
      <trkpt lat="28.58536" lon="-14.00381">
        <ele>111.6</ele>
        <time>2021-07-04 15:31:46</time>
      </trkpt>
      <trkpt lat="28.58531" lon="-14.00381">
        <ele>111.2</ele>
        <time>2021-07-04 15:31:47</time>
      </trkpt>
      <trkpt lat="28.58527" lon="-14.00382">
        <ele>111.2</ele>
        <time>2021-07-04 15:31:48</time>
      </trkpt>
      <trkpt lat="28.58522" lon="-14.00382">
        <ele>111.2</ele>
        <time>2021-07-04 15:31:49</time>
      </trkpt>
      <trkpt lat="28.58518" lon="-14.00382">
        <ele>111.2</ele>
        <time>2021-07-04 15:31:50</time>
      </trkpt>
      <trkpt lat="28.58514" lon="-14.00382">
        <ele>111.2</ele>
        <time>2021-07-04 15:31:51</time>
      </trkpt>
      <trkpt lat="28.58509" lon="-14.00382">
        <ele>111</ele>
        <time>2021-07-04 15:31:52</time>
      </trkpt>
      <trkpt lat="28.58505" lon="-14.00382">
        <ele>111</ele>
        <time>2021-07-04 15:31:53</time>
      </trkpt>
      <trkpt lat="28.58501" lon="-14.00382">
        <ele>111</ele>
        <time>2021-07-04 15:31:54</time>
      </trkpt>
      <trkpt lat="28.58497" lon="-14.00383">
        <ele>111</ele>
        <time>2021-07-04 15:31:55</time>
      </trkpt>
      <trkpt lat="28.58493" lon="-14.00382">
        <ele>111</ele>
        <time>2021-07-04 15:31:56</time>
      </trkpt>
      <trkpt lat="28.58489" lon="-14.00383">
        <ele>111</ele>
        <time>2021-07-04 15:31:57</time>
      </trkpt>
      <trkpt lat="28.58486" lon="-14.00383">
        <ele>111</ele>
        <time>2021-07-04 15:31:58</time>
      </trkpt>
      <trkpt lat="28.58482" lon="-14.00383">
        <ele>111</ele>
        <time>2021-07-04 15:31:59</time>
      </trkpt>
      <trkpt lat="28.58478" lon="-14.00383">
        <ele>111</ele>
        <time>2021-07-04 15:32:00</time>
      </trkpt>
      <trkpt lat="28.58474" lon="-14.00383">
        <ele>110.6</ele>
        <time>2021-07-04 15:32:01</time>
      </trkpt>
      <trkpt lat="28.58467" lon="-14.00383">
        <ele>110.4</ele>
        <time>2021-07-04 15:32:02</time>
      </trkpt>
      <trkpt lat="28.58463" lon="-14.00383">
        <ele>110.4</ele>
        <time>2021-07-04 15:32:03</time>
      </trkpt>
      <trkpt lat="28.5846" lon="-14.00384">
        <ele>110.4</ele>
        <time>2021-07-04 15:32:04</time>
      </trkpt>
      <trkpt lat="28.58456" lon="-14.00383">
        <ele>110.4</ele>
        <time>2021-07-04 15:32:05</time>
      </trkpt>
      <trkpt lat="28.58453" lon="-14.00383">
        <ele>110.4</ele>
        <time>2021-07-04 15:32:06</time>
      </trkpt>
      <trkpt lat="28.58449" lon="-14.00383">
        <ele>110.4</ele>
        <time>2021-07-04 15:32:07</time>
      </trkpt>
      <trkpt lat="28.58444" lon="-14.00383">
        <ele>110.2</ele>
        <time>2021-07-04 15:32:08</time>
      </trkpt>
      <trkpt lat="28.5844" lon="-14.00383">
        <ele>110.2</ele>
        <time>2021-07-04 15:32:09</time>
      </trkpt>
      <trkpt lat="28.58435" lon="-14.00383">
        <ele>109.8</ele>
        <time>2021-07-04 15:32:10</time>
      </trkpt>
      <trkpt lat="28.58431" lon="-14.00383">
        <ele>109.8</ele>
        <time>2021-07-04 15:32:11</time>
      </trkpt>
      <trkpt lat="28.58426" lon="-14.00383">
        <ele>109.4</ele>
        <time>2021-07-04 15:32:12</time>
      </trkpt>
      <trkpt lat="28.58422" lon="-14.00383">
        <ele>109</ele>
        <time>2021-07-04 15:32:36</time>
      </trkpt>
      <trkpt lat="28.58418" lon="-14.00383">
        <ele>109</ele>
        <time>2021-07-04 15:32:37</time>
      </trkpt>
      <trkpt lat="28.58413" lon="-14.00383">
        <ele>108.6</ele>
        <time>2021-07-04 15:32:38</time>
      </trkpt>
      <trkpt lat="28.58409" lon="-14.00383">
        <ele>108.4</ele>
        <time>2021-07-04 15:32:39</time>
      </trkpt>
      <trkpt lat="28.58405" lon="-14.00383">
        <ele>108.4</ele>
        <time>2021-07-04 15:32:40</time>
      </trkpt>
      <trkpt lat="28.58401" lon="-14.00383">
        <ele>108</ele>
        <time>2021-07-04 15:32:41</time>
      </trkpt>
      <trkpt lat="28.58398" lon="-14.00384">
        <ele>108</ele>
        <time>2021-07-04 15:32:42</time>
      </trkpt>
      <trkpt lat="28.58394" lon="-14.00384">
        <ele>108</ele>
        <time>2021-07-04 15:32:43</time>
      </trkpt>
      <trkpt lat="28.58391" lon="-14.00383">
        <ele>108</ele>
        <time>2021-07-04 15:32:44</time>
      </trkpt>
      <trkpt lat="28.58388" lon="-14.00384">
        <ele>107.8</ele>
        <time>2021-07-04 15:32:45</time>
      </trkpt>
      <trkpt lat="28.58384" lon="-14.00384">
        <ele>107.8</ele>
        <time>2021-07-04 15:32:46</time>
      </trkpt>
      <trkpt lat="28.58381" lon="-14.00384">
        <ele>107.8</ele>
        <time>2021-07-04 15:32:47</time>
      </trkpt>
      <trkpt lat="28.58378" lon="-14.00384">
        <ele>107.4</ele>
        <time>2021-07-04 15:32:48</time>
      </trkpt>
      <trkpt lat="28.58375" lon="-14.00384">
        <ele>107.4</ele>
        <time>2021-07-04 15:32:49</time>
      </trkpt>
      <trkpt lat="28.58372" lon="-14.00384">
        <ele>107.4</ele>
        <time>2021-07-04 15:32:50</time>
      </trkpt>
      <trkpt lat="28.58369" lon="-14.00384">
        <ele>107.4</ele>
        <time>2021-07-04 15:32:51</time>
      </trkpt>
      <trkpt lat="28.58366" lon="-14.00384">
        <ele>107.4</ele>
        <time>2021-07-04 15:32:52</time>
      </trkpt>
      <trkpt lat="28.58363" lon="-14.00384">
        <ele>107.4</ele>
        <time>2021-07-04 15:32:53</time>
      </trkpt>
      <trkpt lat="28.5836" lon="-14.00384">
        <ele>107.8</ele>
        <time>2021-07-04 15:32:54</time>
      </trkpt>
      <trkpt lat="28.58357" lon="-14.00384">
        <ele>107.8</ele>
        <time>2021-07-04 15:32:55</time>
      </trkpt>
      <trkpt lat="28.58354" lon="-14.00384">
        <ele>107.8</ele>
        <time>2021-07-04 15:32:56</time>
      </trkpt>
      <trkpt lat="28.58351" lon="-14.00385">
        <ele>107.8</ele>
        <time>2021-07-04 15:32:57</time>
      </trkpt>
      <trkpt lat="28.58348" lon="-14.00385">
        <ele>107.8</ele>
        <time>2021-07-04 15:32:58</time>
      </trkpt>
      <trkpt lat="28.58345" lon="-14.00385">
        <ele>107.8</ele>
        <time>2021-07-04 15:32:59</time>
      </trkpt>
      <trkpt lat="28.58343" lon="-14.00385">
        <ele>107.6</ele>
        <time>2021-07-04 15:33:00</time>
      </trkpt>
      <trkpt lat="28.58339" lon="-14.00385">
        <ele>107.6</ele>
        <time>2021-07-04 15:33:01</time>
      </trkpt>
      <trkpt lat="28.58336" lon="-14.00385">
        <ele>107.6</ele>
        <time>2021-07-04 15:33:02</time>
      </trkpt>
      <trkpt lat="28.58334" lon="-14.00385">
        <ele>107.6</ele>
        <time>2021-07-04 15:33:03</time>
      </trkpt>
      <trkpt lat="28.58331" lon="-14.00384">
        <ele>107.6</ele>
        <time>2021-07-04 15:33:04</time>
      </trkpt>
      <trkpt lat="28.58328" lon="-14.00384">
        <ele>107.8</ele>
        <time>2021-07-04 15:33:05</time>
      </trkpt>
      <trkpt lat="28.58325" lon="-14.00384">
        <ele>107.8</ele>
        <time>2021-07-04 15:33:06</time>
      </trkpt>
      <trkpt lat="28.58322" lon="-14.00383">
        <ele>107.8</ele>
        <time>2021-07-04 15:33:07</time>
      </trkpt>
      <trkpt lat="28.5832" lon="-14.00382">
        <ele>108.2</ele>
        <time>2021-07-04 15:33:08</time>
      </trkpt>
      <trkpt lat="28.58317" lon="-14.00382">
        <ele>108.2</ele>
        <time>2021-07-04 15:33:09</time>
      </trkpt>
      <trkpt lat="28.58314" lon="-14.00382">
        <ele>108.2</ele>
        <time>2021-07-04 15:33:10</time>
      </trkpt>
      <trkpt lat="28.58312" lon="-14.00382">
        <ele>108.2</ele>
        <time>2021-07-04 15:33:11</time>
      </trkpt>
      <trkpt lat="28.58309" lon="-14.00384">
        <ele>108.2</ele>
        <time>2021-07-04 15:33:12</time>
      </trkpt>
      <trkpt lat="28.58307" lon="-14.00387">
        <ele>108.2</ele>
        <time>2021-07-04 15:33:13</time>
      </trkpt>
      <trkpt lat="28.58306" lon="-14.0039">
        <ele>108.2</ele>
        <time>2021-07-04 15:33:14</time>
      </trkpt>
      <trkpt lat="28.58304" lon="-14.00394">
        <ele>108.2</ele>
        <time>2021-07-04 15:33:15</time>
      </trkpt>
      <trkpt lat="28.58303" lon="-14.00398">
        <ele>107.8</ele>
        <time>2021-07-04 15:33:16</time>
      </trkpt>
      <trkpt lat="28.58302" lon="-14.00402">
        <ele>107.8</ele>
        <time>2021-07-04 15:33:17</time>
      </trkpt>
      <trkpt lat="28.58301" lon="-14.00406">
        <ele>108.2</ele>
        <time>2021-07-04 15:33:18</time>
      </trkpt>
      <trkpt lat="28.58301" lon="-14.00412">
        <ele>108.2</ele>
        <time>2021-07-04 15:33:19</time>
      </trkpt>
      <trkpt lat="28.58299" lon="-14.00417">
        <ele>108.2</ele>
        <time>2021-07-04 15:33:20</time>
      </trkpt>
      <trkpt lat="28.58298" lon="-14.00422">
        <ele>108.2</ele>
        <time>2021-07-04 15:33:21</time>
      </trkpt>
      <trkpt lat="28.58297" lon="-14.00428">
        <ele>108.2</ele>
        <time>2021-07-04 15:33:22</time>
      </trkpt>
      <trkpt lat="28.58295" lon="-14.00433">
        <ele>108.2</ele>
        <time>2021-07-04 15:33:23</time>
      </trkpt>
      <trkpt lat="28.58293" lon="-14.00439">
        <ele>108.4</ele>
        <time>2021-07-04 15:33:24</time>
      </trkpt>
      <trkpt lat="28.58291" lon="-14.00445">
        <ele>108.4</ele>
        <time>2021-07-04 15:33:25</time>
      </trkpt>
      <trkpt lat="28.58289" lon="-14.00452">
        <ele>108.2</ele>
        <time>2021-07-04 15:33:26</time>
      </trkpt>
      <trkpt lat="28.58287" lon="-14.00458">
        <ele>108.2</ele>
        <time>2021-07-04 15:33:27</time>
      </trkpt>
      <trkpt lat="28.58285" lon="-14.00464">
        <ele>108.2</ele>
        <time>2021-07-04 15:33:28</time>
      </trkpt>
      <trkpt lat="28.58284" lon="-14.00471">
        <ele>108.2</ele>
        <time>2021-07-04 15:33:29</time>
      </trkpt>
      <trkpt lat="28.58282" lon="-14.00477">
        <ele>108</ele>
        <time>2021-07-04 15:33:30</time>
      </trkpt>
      <trkpt lat="28.58281" lon="-14.00484">
        <ele>108</ele>
        <time>2021-07-04 15:33:31</time>
      </trkpt>
      <trkpt lat="28.58279" lon="-14.0049">
        <ele>108</ele>
        <time>2021-07-04 15:33:32</time>
      </trkpt>
      <trkpt lat="28.58279" lon="-14.00497">
        <ele>108</ele>
        <time>2021-07-04 15:33:33</time>
      </trkpt>
      <trkpt lat="28.58277" lon="-14.00503">
        <ele>108</ele>
        <time>2021-07-04 15:33:34</time>
      </trkpt>
      <trkpt lat="28.58275" lon="-14.00509">
        <ele>108</ele>
        <time>2021-07-04 15:33:35</time>
      </trkpt>
      <trkpt lat="28.58273" lon="-14.00516">
        <ele>107.6</ele>
        <time>2021-07-04 15:33:36</time>
      </trkpt>
      <trkpt lat="28.58271" lon="-14.00522">
        <ele>107.6</ele>
        <time>2021-07-04 15:33:37</time>
      </trkpt>
      <trkpt lat="28.58268" lon="-14.00528">
        <ele>107.6</ele>
        <time>2021-07-04 15:33:38</time>
      </trkpt>
      <trkpt lat="28.58266" lon="-14.00534">
        <ele>107.2</ele>
        <time>2021-07-04 15:33:39</time>
      </trkpt>
      <trkpt lat="28.58264" lon="-14.00541">
        <ele>107.2</ele>
        <time>2021-07-04 15:33:40</time>
      </trkpt>
      <trkpt lat="28.58262" lon="-14.00548">
        <ele>107</ele>
        <time>2021-07-04 15:33:41</time>
      </trkpt>
      <trkpt lat="28.5826" lon="-14.00555">
        <ele>106.8</ele>
        <time>2021-07-04 15:33:42</time>
      </trkpt>
      <trkpt lat="28.58258" lon="-14.00562">
        <ele>106.8</ele>
        <time>2021-07-04 15:33:43</time>
      </trkpt>
      <trkpt lat="28.58256" lon="-14.00569">
        <ele>106.8</ele>
        <time>2021-07-04 15:33:44</time>
      </trkpt>
      <trkpt lat="28.58254" lon="-14.00576">
        <ele>106.6</ele>
        <time>2021-07-04 15:33:45</time>
      </trkpt>
      <trkpt lat="28.58252" lon="-14.00582">
        <ele>106.6</ele>
        <time>2021-07-04 15:33:46</time>
      </trkpt>
      <trkpt lat="28.5825" lon="-14.00588">
        <ele>106.6</ele>
        <time>2021-07-04 15:33:47</time>
      </trkpt>
      <trkpt lat="28.58248" lon="-14.00595">
        <ele>106.2</ele>
        <time>2021-07-04 15:33:48</time>
      </trkpt>
      <trkpt lat="28.58246" lon="-14.00602">
        <ele>106.2</ele>
        <time>2021-07-04 15:33:49</time>
      </trkpt>
      <trkpt lat="28.58244" lon="-14.00608">
        <ele>106.2</ele>
        <time>2021-07-04 15:33:50</time>
      </trkpt>
      <trkpt lat="28.58242" lon="-14.00614">
        <ele>106.2</ele>
        <time>2021-07-04 15:33:51</time>
      </trkpt>
      <trkpt lat="28.5824" lon="-14.0062">
        <ele>106.2</ele>
        <time>2021-07-04 15:33:52</time>
      </trkpt>
      <trkpt lat="28.58237" lon="-14.00626">
        <ele>106.2</ele>
        <time>2021-07-04 15:33:53</time>
      </trkpt>
      <trkpt lat="28.58235" lon="-14.00632">
        <ele>106.2</ele>
        <time>2021-07-04 15:33:54</time>
      </trkpt>
      <trkpt lat="28.58232" lon="-14.00639">
        <ele>106.2</ele>
        <time>2021-07-04 15:33:55</time>
      </trkpt>
      <trkpt lat="28.58229" lon="-14.00645">
        <ele>106.2</ele>
        <time>2021-07-04 15:33:56</time>
      </trkpt>
      <trkpt lat="28.58227" lon="-14.00651">
        <ele>105.8</ele>
        <time>2021-07-04 15:33:57</time>
      </trkpt>
      <trkpt lat="28.58224" lon="-14.00658">
        <ele>105.8</ele>
        <time>2021-07-04 15:33:58</time>
      </trkpt>
      <trkpt lat="28.58222" lon="-14.00665">
        <ele>105.8</ele>
        <time>2021-07-04 15:33:59</time>
      </trkpt>
      <trkpt lat="28.58219" lon="-14.00671">
        <ele>105.6</ele>
        <time>2021-07-04 15:34:00</time>
      </trkpt>
      <trkpt lat="28.58217" lon="-14.00678">
        <ele>105.6</ele>
        <time>2021-07-04 15:34:01</time>
      </trkpt>
      <trkpt lat="28.58215" lon="-14.00684">
        <ele>105.4</ele>
        <time>2021-07-04 15:34:02</time>
      </trkpt>
      <trkpt lat="28.58213" lon="-14.0069">
        <ele>105.4</ele>
        <time>2021-07-04 15:34:03</time>
      </trkpt>
      <trkpt lat="28.58211" lon="-14.00696">
        <ele>105.2</ele>
        <time>2021-07-04 15:34:04</time>
      </trkpt>
      <trkpt lat="28.58209" lon="-14.00702">
        <ele>105</ele>
        <time>2021-07-04 15:34:05</time>
      </trkpt>
      <trkpt lat="28.58208" lon="-14.00707">
        <ele>105</ele>
        <time>2021-07-04 15:34:06</time>
      </trkpt>
      <trkpt lat="28.58207" lon="-14.00712">
        <ele>105</ele>
        <time>2021-07-04 15:34:07</time>
      </trkpt>
      <trkpt lat="28.58206" lon="-14.00717">
        <ele>105</ele>
        <time>2021-07-04 15:34:08</time>
      </trkpt>
      <trkpt lat="28.58205" lon="-14.00722">
        <ele>105</ele>
        <time>2021-07-04 15:34:09</time>
      </trkpt>
      <trkpt lat="28.58204" lon="-14.00728">
        <ele>105</ele>
        <time>2021-07-04 15:34:10</time>
      </trkpt>
      <trkpt lat="28.58203" lon="-14.00733">
        <ele>104.6</ele>
        <time>2021-07-04 15:34:11</time>
      </trkpt>
      <trkpt lat="28.58202" lon="-14.00739">
        <ele>104.6</ele>
        <time>2021-07-04 15:34:12</time>
      </trkpt>
      <trkpt lat="28.58201" lon="-14.00745">
        <ele>104.4</ele>
        <time>2021-07-04 15:34:13</time>
      </trkpt>
      <trkpt lat="28.582" lon="-14.00751">
        <ele>104.4</ele>
        <time>2021-07-04 15:34:14</time>
      </trkpt>
      <trkpt lat="28.58199" lon="-14.00757">
        <ele>104.4</ele>
        <time>2021-07-04 15:34:15</time>
      </trkpt>
      <trkpt lat="28.58197" lon="-14.00763">
        <ele>104.4</ele>
        <time>2021-07-04 15:34:16</time>
      </trkpt>
      <trkpt lat="28.58196" lon="-14.0077">
        <ele>104.4</ele>
        <time>2021-07-04 15:34:17</time>
      </trkpt>
      <trkpt lat="28.58195" lon="-14.00775">
        <ele>104.4</ele>
        <time>2021-07-04 15:34:18</time>
      </trkpt>
      <trkpt lat="28.58193" lon="-14.00782">
        <ele>104</ele>
        <time>2021-07-04 15:34:19</time>
      </trkpt>
      <trkpt lat="28.58191" lon="-14.00788">
        <ele>104</ele>
        <time>2021-07-04 15:34:20</time>
      </trkpt>
      <trkpt lat="28.5819" lon="-14.00794">
        <ele>103.6</ele>
        <time>2021-07-04 15:34:21</time>
      </trkpt>
      <trkpt lat="28.58188" lon="-14.008">
        <ele>103.6</ele>
        <time>2021-07-04 15:34:22</time>
      </trkpt>
      <trkpt lat="28.58186" lon="-14.00806">
        <ele>103.4</ele>
        <time>2021-07-04 15:34:23</time>
      </trkpt>
      <trkpt lat="28.58184" lon="-14.00812">
        <ele>103.4</ele>
        <time>2021-07-04 15:34:24</time>
      </trkpt>
      <trkpt lat="28.58183" lon="-14.00819">
        <ele>103</ele>
        <time>2021-07-04 15:34:25</time>
      </trkpt>
      <trkpt lat="28.58181" lon="-14.00825">
        <ele>103</ele>
        <time>2021-07-04 15:34:26</time>
      </trkpt>
      <trkpt lat="28.5818" lon="-14.00831">
        <ele>102.8</ele>
        <time>2021-07-04 15:34:27</time>
      </trkpt>
      <trkpt lat="28.58177" lon="-14.00838">
        <ele>102.8</ele>
        <time>2021-07-04 15:34:28</time>
      </trkpt>
      <trkpt lat="28.58176" lon="-14.00845">
        <ele>102.6</ele>
        <time>2021-07-04 15:34:29</time>
      </trkpt>
      <trkpt lat="28.58173" lon="-14.00851">
        <ele>102.6</ele>
        <time>2021-07-04 15:34:30</time>
      </trkpt>
      <trkpt lat="28.58172" lon="-14.00857">
        <ele>102.6</ele>
        <time>2021-07-04 15:34:31</time>
      </trkpt>
      <trkpt lat="28.58169" lon="-14.00864">
        <ele>102.6</ele>
        <time>2021-07-04 15:34:32</time>
      </trkpt>
      <trkpt lat="28.58167" lon="-14.0087">
        <ele>102.2</ele>
        <time>2021-07-04 15:34:33</time>
      </trkpt>
      <trkpt lat="28.58165" lon="-14.00876">
        <ele>102.2</ele>
        <time>2021-07-04 15:34:34</time>
      </trkpt>
      <trkpt lat="28.58163" lon="-14.00883">
        <ele>102.2</ele>
        <time>2021-07-04 15:34:35</time>
      </trkpt>
      <trkpt lat="28.5816" lon="-14.00889">
        <ele>102.2</ele>
        <time>2021-07-04 15:34:36</time>
      </trkpt>
      <trkpt lat="28.58157" lon="-14.00894">
        <ele>102.2</ele>
        <time>2021-07-04 15:34:37</time>
      </trkpt>
      <trkpt lat="28.58155" lon="-14.009">
        <ele>102</ele>
        <time>2021-07-04 15:34:38</time>
      </trkpt>
      <trkpt lat="28.58152" lon="-14.00906">
        <ele>101.8</ele>
        <time>2021-07-04 15:34:39</time>
      </trkpt>
      <trkpt lat="28.58149" lon="-14.00912">
        <ele>101.8</ele>
        <time>2021-07-04 15:34:40</time>
      </trkpt>
      <trkpt lat="28.58147" lon="-14.00917">
        <ele>100.6</ele>
        <time>2021-07-04 15:34:41</time>
      </trkpt>
      <trkpt lat="28.58144" lon="-14.00922">
        <ele>100.8</ele>
        <time>2021-07-04 15:34:42</time>
      </trkpt>
      <trkpt lat="28.58142" lon="-14.00928">
        <ele>100.8</ele>
        <time>2021-07-04 15:34:43</time>
      </trkpt>
      <trkpt lat="28.5814" lon="-14.00933">
        <ele>100.8</ele>
        <time>2021-07-04 15:34:44</time>
      </trkpt>
      <trkpt lat="28.58137" lon="-14.00939">
        <ele>100.6</ele>
        <time>2021-07-04 15:34:45</time>
      </trkpt>
      <trkpt lat="28.58135" lon="-14.00945">
        <ele>100.4</ele>
        <time>2021-07-04 15:34:46</time>
      </trkpt>
      <trkpt lat="28.58133" lon="-14.00951">
        <ele>100</ele>
        <time>2021-07-04 15:34:47</time>
      </trkpt>
      <trkpt lat="28.5813" lon="-14.00957">
        <ele>99.8</ele>
        <time>2021-07-04 15:34:48</time>
      </trkpt>
      <trkpt lat="28.58128" lon="-14.00964">
        <ele>99.8</ele>
        <time>2021-07-04 15:34:49</time>
      </trkpt>
      <trkpt lat="28.58125" lon="-14.0097">
        <ele>99.4</ele>
        <time>2021-07-04 15:34:50</time>
      </trkpt>
      <trkpt lat="28.58123" lon="-14.00976">
        <ele>99.4</ele>
        <time>2021-07-04 15:34:51</time>
      </trkpt>
      <trkpt lat="28.5812" lon="-14.00982">
        <ele>99</ele>
        <time>2021-07-04 15:34:52</time>
      </trkpt>
      <trkpt lat="28.58118" lon="-14.00988">
        <ele>99</ele>
        <time>2021-07-04 15:34:53</time>
      </trkpt>
      <trkpt lat="28.58115" lon="-14.00994">
        <ele>99</ele>
        <time>2021-07-04 15:34:54</time>
      </trkpt>
      <trkpt lat="28.58112" lon="-14.01">
        <ele>98.8</ele>
        <time>2021-07-04 15:34:55</time>
      </trkpt>
      <trkpt lat="28.58109" lon="-14.01007">
        <ele>98.8</ele>
        <time>2021-07-04 15:34:56</time>
      </trkpt>
      <trkpt lat="28.58107" lon="-14.01012">
        <ele>98.8</ele>
        <time>2021-07-04 15:34:57</time>
      </trkpt>
      <trkpt lat="28.58104" lon="-14.01019">
        <ele>98.8</ele>
        <time>2021-07-04 15:34:58</time>
      </trkpt>
      <trkpt lat="28.58101" lon="-14.01024">
        <ele>98.8</ele>
        <time>2021-07-04 15:34:59</time>
      </trkpt>
      <trkpt lat="28.58099" lon="-14.0103">
        <ele>98.8</ele>
        <time>2021-07-04 15:35:00</time>
      </trkpt>
      <trkpt lat="28.58096" lon="-14.01036">
        <ele>98.8</ele>
        <time>2021-07-04 15:35:01</time>
      </trkpt>
      <trkpt lat="28.58093" lon="-14.01042">
        <ele>98.8</ele>
        <time>2021-07-04 15:35:02</time>
      </trkpt>
      <trkpt lat="28.5809" lon="-14.01048">
        <ele>98.8</ele>
        <time>2021-07-04 15:35:03</time>
      </trkpt>
      <trkpt lat="28.58087" lon="-14.01054">
        <ele>98.8</ele>
        <time>2021-07-04 15:35:04</time>
      </trkpt>
      <trkpt lat="28.58085" lon="-14.0106">
        <ele>98.8</ele>
        <time>2021-07-04 15:35:05</time>
      </trkpt>
      <trkpt lat="28.58082" lon="-14.01067">
        <ele>98.8</ele>
        <time>2021-07-04 15:35:06</time>
      </trkpt>
      <trkpt lat="28.58079" lon="-14.01072">
        <ele>98.8</ele>
        <time>2021-07-04 15:35:07</time>
      </trkpt>
      <trkpt lat="28.58077" lon="-14.01078">
        <ele>98.8</ele>
        <time>2021-07-04 15:35:08</time>
      </trkpt>
      <trkpt lat="28.58074" lon="-14.01083">
        <ele>98.8</ele>
        <time>2021-07-04 15:35:09</time>
      </trkpt>
      <trkpt lat="28.58071" lon="-14.01089">
        <ele>98.6</ele>
        <time>2021-07-04 15:35:10</time>
      </trkpt>
      <trkpt lat="28.58068" lon="-14.01094">
        <ele>98.6</ele>
        <time>2021-07-04 15:35:11</time>
      </trkpt>
      <trkpt lat="28.58065" lon="-14.011">
        <ele>98.6</ele>
        <time>2021-07-04 15:35:12</time>
      </trkpt>
      <trkpt lat="28.58062" lon="-14.01106">
        <ele>98.6</ele>
        <time>2021-07-04 15:35:13</time>
      </trkpt>
      <trkpt lat="28.58058" lon="-14.01112">
        <ele>98.6</ele>
        <time>2021-07-04 15:35:14</time>
      </trkpt>
      <trkpt lat="28.58055" lon="-14.01117">
        <ele>98.2</ele>
        <time>2021-07-04 15:35:15</time>
      </trkpt>
      <trkpt lat="28.58052" lon="-14.01123">
        <ele>98.2</ele>
        <time>2021-07-04 15:35:16</time>
      </trkpt>
      <trkpt lat="28.58049" lon="-14.01129">
        <ele>98.2</ele>
        <time>2021-07-04 15:35:17</time>
      </trkpt>
      <trkpt lat="28.58046" lon="-14.01135">
        <ele>98</ele>
        <time>2021-07-04 15:35:18</time>
      </trkpt>
      <trkpt lat="28.58042" lon="-14.01142">
        <ele>98</ele>
        <time>2021-07-04 15:35:19</time>
      </trkpt>
      <trkpt lat="28.58039" lon="-14.01148">
        <ele>98</ele>
        <time>2021-07-04 15:35:20</time>
      </trkpt>
      <trkpt lat="28.58035" lon="-14.01154">
        <ele>97.8</ele>
        <time>2021-07-04 15:35:21</time>
      </trkpt>
      <trkpt lat="28.58032" lon="-14.0116">
        <ele>97.8</ele>
        <time>2021-07-04 15:35:22</time>
      </trkpt>
      <trkpt lat="28.58028" lon="-14.01165">
        <ele>97.8</ele>
        <time>2021-07-04 15:35:23</time>
      </trkpt>
      <trkpt lat="28.58025" lon="-14.01171">
        <ele>97.6</ele>
        <time>2021-07-04 15:35:24</time>
      </trkpt>
      <trkpt lat="28.58021" lon="-14.01177">
        <ele>97.6</ele>
        <time>2021-07-04 15:35:25</time>
      </trkpt>
      <trkpt lat="28.58018" lon="-14.01183">
        <ele>97.6</ele>
        <time>2021-07-04 15:35:26</time>
      </trkpt>
      <trkpt lat="28.58015" lon="-14.0119">
        <ele>97.2</ele>
        <time>2021-07-04 15:35:27</time>
      </trkpt>
      <trkpt lat="28.58012" lon="-14.01195">
        <ele>97.2</ele>
        <time>2021-07-04 15:35:28</time>
      </trkpt>
      <trkpt lat="28.58009" lon="-14.01201">
        <ele>97.2</ele>
        <time>2021-07-04 15:35:29</time>
      </trkpt>
      <trkpt lat="28.58007" lon="-14.01206">
        <ele>97.2</ele>
        <time>2021-07-04 15:35:30</time>
      </trkpt>
      <trkpt lat="28.58004" lon="-14.01212">
        <ele>97.2</ele>
        <time>2021-07-04 15:35:31</time>
      </trkpt>
      <trkpt lat="28.58002" lon="-14.01218">
        <ele>97</ele>
        <time>2021-07-04 15:35:32</time>
      </trkpt>
      <trkpt lat="28.58001" lon="-14.01224">
        <ele>97</ele>
        <time>2021-07-04 15:35:33</time>
      </trkpt>
      <trkpt lat="28.57999" lon="-14.01231">
        <ele>97</ele>
        <time>2021-07-04 15:35:34</time>
      </trkpt>
      <trkpt lat="28.57997" lon="-14.01238">
        <ele>97.2</ele>
        <time>2021-07-04 15:35:35</time>
      </trkpt>
      <trkpt lat="28.57996" lon="-14.01244">
        <ele>97.2</ele>
        <time>2021-07-04 15:35:36</time>
      </trkpt>
      <trkpt lat="28.57994" lon="-14.01251">
        <ele>97.2</ele>
        <time>2021-07-04 15:35:37</time>
      </trkpt>
      <trkpt lat="28.57993" lon="-14.01257">
        <ele>97.2</ele>
        <time>2021-07-04 15:35:38</time>
      </trkpt>
      <trkpt lat="28.57991" lon="-14.01263">
        <ele>97.2</ele>
        <time>2021-07-04 15:35:39</time>
      </trkpt>
      <trkpt lat="28.5799" lon="-14.0127">
        <ele>97.2</ele>
        <time>2021-07-04 15:35:40</time>
      </trkpt>
      <trkpt lat="28.57988" lon="-14.01276">
        <ele>97.2</ele>
        <time>2021-07-04 15:35:41</time>
      </trkpt>
      <trkpt lat="28.57987" lon="-14.01283">
        <ele>97.2</ele>
        <time>2021-07-04 15:35:42</time>
      </trkpt>
      <trkpt lat="28.57985" lon="-14.01289">
        <ele>97.6</ele>
        <time>2021-07-04 15:35:43</time>
      </trkpt>
      <trkpt lat="28.57984" lon="-14.01295">
        <ele>97.6</ele>
        <time>2021-07-04 15:35:44</time>
      </trkpt>
      <trkpt lat="28.57982" lon="-14.013">
        <ele>97.8</ele>
        <time>2021-07-04 15:35:45</time>
      </trkpt>
      <trkpt lat="28.5798" lon="-14.01306">
        <ele>97.8</ele>
        <time>2021-07-04 15:35:46</time>
      </trkpt>
      <trkpt lat="28.57978" lon="-14.01311">
        <ele>98.2</ele>
        <time>2021-07-04 15:35:47</time>
      </trkpt>
      <trkpt lat="28.57976" lon="-14.01317">
        <ele>98.2</ele>
        <time>2021-07-04 15:35:48</time>
      </trkpt>
      <trkpt lat="28.57973" lon="-14.01323">
        <ele>98.2</ele>
        <time>2021-07-04 15:35:49</time>
      </trkpt>
      <trkpt lat="28.57971" lon="-14.0133">
        <ele>98.2</ele>
        <time>2021-07-04 15:35:50</time>
      </trkpt>
      <trkpt lat="28.57968" lon="-14.01336">
        <ele>98.2</ele>
        <time>2021-07-04 15:35:51</time>
      </trkpt>
      <trkpt lat="28.57966" lon="-14.01343">
        <ele>98.2</ele>
        <time>2021-07-04 15:35:52</time>
      </trkpt>
      <trkpt lat="28.57964" lon="-14.01349">
        <ele>98.2</ele>
        <time>2021-07-04 15:35:53</time>
      </trkpt>
      <trkpt lat="28.57961" lon="-14.01356">
        <ele>97.8</ele>
        <time>2021-07-04 15:35:54</time>
      </trkpt>
      <trkpt lat="28.57959" lon="-14.01362">
        <ele>97.6</ele>
        <time>2021-07-04 15:35:55</time>
      </trkpt>
      <trkpt lat="28.57957" lon="-14.01368">
        <ele>97.4</ele>
        <time>2021-07-04 15:35:56</time>
      </trkpt>
      <trkpt lat="28.57954" lon="-14.01375">
        <ele>97.2</ele>
        <time>2021-07-04 15:35:57</time>
      </trkpt>
      <trkpt lat="28.57951" lon="-14.0138">
        <ele>96.8</ele>
        <time>2021-07-04 15:35:58</time>
      </trkpt>
      <trkpt lat="28.57948" lon="-14.01387">
        <ele>96.8</ele>
        <time>2021-07-04 15:35:59</time>
      </trkpt>
      <trkpt lat="28.57945" lon="-14.01392">
        <ele>96.6</ele>
        <time>2021-07-04 15:36:00</time>
      </trkpt>
      <trkpt lat="28.57942" lon="-14.01398">
        <ele>96.6</ele>
        <time>2021-07-04 15:36:01</time>
      </trkpt>
      <trkpt lat="28.57939" lon="-14.01404">
        <ele>96.4</ele>
        <time>2021-07-04 15:36:02</time>
      </trkpt>
      <trkpt lat="28.57936" lon="-14.01411">
        <ele>96.4</ele>
        <time>2021-07-04 15:36:03</time>
      </trkpt>
      <trkpt lat="28.57933" lon="-14.01417">
        <ele>96.4</ele>
        <time>2021-07-04 15:36:04</time>
      </trkpt>
      <trkpt lat="28.57931" lon="-14.01424">
        <ele>96.4</ele>
        <time>2021-07-04 15:36:05</time>
      </trkpt>
      <trkpt lat="28.57928" lon="-14.0143">
        <ele>96</ele>
        <time>2021-07-04 15:36:06</time>
      </trkpt>
      <trkpt lat="28.57925" lon="-14.01437">
        <ele>96</ele>
        <time>2021-07-04 15:36:07</time>
      </trkpt>
      <trkpt lat="28.57921" lon="-14.01443">
        <ele>96</ele>
        <time>2021-07-04 15:36:08</time>
      </trkpt>
      <trkpt lat="28.57918" lon="-14.0145">
        <ele>96</ele>
        <time>2021-07-04 15:36:09</time>
      </trkpt>
      <trkpt lat="28.57914" lon="-14.01457">
        <ele>95.8</ele>
        <time>2021-07-04 15:36:10</time>
      </trkpt>
      <trkpt lat="28.57911" lon="-14.01464">
        <ele>95.8</ele>
        <time>2021-07-04 15:36:11</time>
      </trkpt>
      <trkpt lat="28.57907" lon="-14.01471">
        <ele>95.8</ele>
        <time>2021-07-04 15:36:12</time>
      </trkpt>
      <trkpt lat="28.57903" lon="-14.01477">
        <ele>95.8</ele>
        <time>2021-07-04 15:36:13</time>
      </trkpt>
      <trkpt lat="28.579" lon="-14.01483">
        <ele>95.6</ele>
        <time>2021-07-04 15:36:14</time>
      </trkpt>
      <trkpt lat="28.57897" lon="-14.0149">
        <ele>95.6</ele>
        <time>2021-07-04 15:36:15</time>
      </trkpt>
      <trkpt lat="28.57894" lon="-14.01496">
        <ele>95.6</ele>
        <time>2021-07-04 15:36:16</time>
      </trkpt>
      <trkpt lat="28.57891" lon="-14.01503">
        <ele>95.6</ele>
        <time>2021-07-04 15:36:17</time>
      </trkpt>
      <trkpt lat="28.57888" lon="-14.0151">
        <ele>95.6</ele>
        <time>2021-07-04 15:36:18</time>
      </trkpt>
      <trkpt lat="28.57886" lon="-14.01517">
        <ele>95.6</ele>
        <time>2021-07-04 15:36:19</time>
      </trkpt>
      <trkpt lat="28.57883" lon="-14.01524">
        <ele>95.6</ele>
        <time>2021-07-04 15:36:20</time>
      </trkpt>
      <trkpt lat="28.57881" lon="-14.01531">
        <ele>95.6</ele>
        <time>2021-07-04 15:36:21</time>
      </trkpt>
      <trkpt lat="28.57879" lon="-14.01539">
        <ele>95.6</ele>
        <time>2021-07-04 15:36:22</time>
      </trkpt>
      <trkpt lat="28.57877" lon="-14.01546">
        <ele>95.6</ele>
        <time>2021-07-04 15:36:23</time>
      </trkpt>
      <trkpt lat="28.57875" lon="-14.01554">
        <ele>95.4</ele>
        <time>2021-07-04 15:36:24</time>
      </trkpt>
      <trkpt lat="28.57873" lon="-14.01561">
        <ele>95</ele>
        <time>2021-07-04 15:36:25</time>
      </trkpt>
      <trkpt lat="28.5787" lon="-14.01569">
        <ele>94.8</ele>
        <time>2021-07-04 15:36:26</time>
      </trkpt>
      <trkpt lat="28.57868" lon="-14.01576">
        <ele>94.6</ele>
        <time>2021-07-04 15:36:27</time>
      </trkpt>
      <trkpt lat="28.57866" lon="-14.01583">
        <ele>94.6</ele>
        <time>2021-07-04 15:36:28</time>
      </trkpt>
      <trkpt lat="28.57863" lon="-14.0159">
        <ele>94.4</ele>
        <time>2021-07-04 15:36:29</time>
      </trkpt>
      <trkpt lat="28.5786" lon="-14.01596">
        <ele>94</ele>
        <time>2021-07-04 15:36:30</time>
      </trkpt>
      <trkpt lat="28.57857" lon="-14.01601">
        <ele>93.8</ele>
        <time>2021-07-04 15:36:31</time>
      </trkpt>
      <trkpt lat="28.57853" lon="-14.01606">
        <ele>93.4</ele>
        <time>2021-07-04 15:36:32</time>
      </trkpt>
      <trkpt lat="28.57849" lon="-14.01611">
        <ele>93.2</ele>
        <time>2021-07-04 15:36:33</time>
      </trkpt>
      <trkpt lat="28.57847" lon="-14.01616">
        <ele>92.8</ele>
        <time>2021-07-04 15:36:34</time>
      </trkpt>
      <trkpt lat="28.57845" lon="-14.01622">
        <ele>92</ele>
        <time>2021-07-04 15:36:35</time>
      </trkpt>
      <trkpt lat="28.57843" lon="-14.01629">
        <ele>91.4</ele>
        <time>2021-07-04 15:36:36</time>
      </trkpt>
      <trkpt lat="28.57842" lon="-14.01636">
        <ele>90.8</ele>
        <time>2021-07-04 15:36:37</time>
      </trkpt>
      <trkpt lat="28.57842" lon="-14.01644">
        <ele>90</ele>
        <time>2021-07-04 15:36:38</time>
      </trkpt>
      <trkpt lat="28.57841" lon="-14.01651">
        <ele>89.6</ele>
        <time>2021-07-04 15:36:39</time>
      </trkpt>
      <trkpt lat="28.57839" lon="-14.01658">
        <ele>89</ele>
        <time>2021-07-04 15:36:40</time>
      </trkpt>
      <trkpt lat="28.57837" lon="-14.01666">
        <ele>88.2</ele>
        <time>2021-07-04 15:36:41</time>
      </trkpt>
      <trkpt lat="28.57835" lon="-14.01675">
        <ele>87.4</ele>
        <time>2021-07-04 15:36:42</time>
      </trkpt>
      <trkpt lat="28.57832" lon="-14.01683">
        <ele>86.8</ele>
        <time>2021-07-04 15:36:43</time>
      </trkpt>
      <trkpt lat="28.57827" lon="-14.0169">
        <ele>86</ele>
        <time>2021-07-04 15:36:44</time>
      </trkpt>
      <trkpt lat="28.57823" lon="-14.01697">
        <ele>85.4</ele>
        <time>2021-07-04 15:36:45</time>
      </trkpt>
      <trkpt lat="28.57821" lon="-14.01704">
        <ele>84.8</ele>
        <time>2021-07-04 15:36:46</time>
      </trkpt>
      <trkpt lat="28.57822" lon="-14.01712">
        <ele>84.2</ele>
        <time>2021-07-04 15:36:47</time>
      </trkpt>
      <trkpt lat="28.57823" lon="-14.01719">
        <ele>83.8</ele>
        <time>2021-07-04 15:36:48</time>
      </trkpt>
      <trkpt lat="28.57825" lon="-14.01725">
        <ele>83.6</ele>
        <time>2021-07-04 15:36:49</time>
      </trkpt>
      <trkpt lat="28.57827" lon="-14.01731">
        <ele>83.6</ele>
        <time>2021-07-04 15:36:50</time>
      </trkpt>
      <trkpt lat="28.57829" lon="-14.01737">
        <ele>83.2</ele>
        <time>2021-07-04 15:36:51</time>
      </trkpt>
      <trkpt lat="28.57831" lon="-14.01743">
        <ele>83.2</ele>
        <time>2021-07-04 15:36:52</time>
      </trkpt>
      <trkpt lat="28.57832" lon="-14.01749">
        <ele>82.6</ele>
        <time>2021-07-04 15:36:53</time>
      </trkpt>
      <trkpt lat="28.57835" lon="-14.01754">
        <ele>82.6</ele>
        <time>2021-07-04 15:36:54</time>
      </trkpt>
      <trkpt lat="28.57836" lon="-14.0176">
        <ele>82.6</ele>
        <time>2021-07-04 15:36:55</time>
      </trkpt>
      <trkpt lat="28.57838" lon="-14.01764">
        <ele>82.6</ele>
        <time>2021-07-04 15:36:56</time>
      </trkpt>
      <trkpt lat="28.5784" lon="-14.01769">
        <ele>82.4</ele>
        <time>2021-07-04 15:36:57</time>
      </trkpt>
      <trkpt lat="28.57843" lon="-14.01774">
        <ele>82.4</ele>
        <time>2021-07-04 15:36:58</time>
      </trkpt>
      <trkpt lat="28.57845" lon="-14.0178">
        <ele>82.4</ele>
        <time>2021-07-04 15:36:59</time>
      </trkpt>
      <trkpt lat="28.57847" lon="-14.01786">
        <ele>82.2</ele>
        <time>2021-07-04 15:37:00</time>
      </trkpt>
      <trkpt lat="28.57847" lon="-14.01792">
        <ele>82.2</ele>
        <time>2021-07-04 15:37:01</time>
      </trkpt>
      <trkpt lat="28.57848" lon="-14.01797">
        <ele>82.2</ele>
        <time>2021-07-04 15:37:02</time>
      </trkpt>
      <trkpt lat="28.57848" lon="-14.01803">
        <ele>82.2</ele>
        <time>2021-07-04 15:37:03</time>
      </trkpt>
      <trkpt lat="28.57849" lon="-14.01809">
        <ele>82.4</ele>
        <time>2021-07-04 15:37:04</time>
      </trkpt>
      <trkpt lat="28.57849" lon="-14.01816">
        <ele>82.6</ele>
        <time>2021-07-04 15:37:05</time>
      </trkpt>
      <trkpt lat="28.57849" lon="-14.0182">
        <ele>82.6</ele>
        <time>2021-07-04 15:37:06</time>
      </trkpt>
      <trkpt lat="28.5785" lon="-14.01826">
        <ele>83</ele>
        <time>2021-07-04 15:37:07</time>
      </trkpt>
      <trkpt lat="28.5785" lon="-14.01831">
        <ele>83.2</ele>
        <time>2021-07-04 15:37:08</time>
      </trkpt>
      <trkpt lat="28.5785" lon="-14.01836">
        <ele>83.4</ele>
        <time>2021-07-04 15:37:09</time>
      </trkpt>
      <trkpt lat="28.57851" lon="-14.01842">
        <ele>83.8</ele>
        <time>2021-07-04 15:37:10</time>
      </trkpt>
      <trkpt lat="28.57852" lon="-14.01847">
        <ele>83.8</ele>
        <time>2021-07-04 15:37:11</time>
      </trkpt>
      <trkpt lat="28.57852" lon="-14.01852">
        <ele>83.8</ele>
        <time>2021-07-04 15:37:12</time>
      </trkpt>
      <trkpt lat="28.57853" lon="-14.01857">
        <ele>84</ele>
        <time>2021-07-04 15:37:13</time>
      </trkpt>
      <trkpt lat="28.57853" lon="-14.01863">
        <ele>84</ele>
        <time>2021-07-04 15:37:14</time>
      </trkpt>
      <trkpt lat="28.57853" lon="-14.01868">
        <ele>84.2</ele>
        <time>2021-07-04 15:37:15</time>
      </trkpt>
      <trkpt lat="28.57852" lon="-14.01874">
        <ele>84.2</ele>
        <time>2021-07-04 15:37:16</time>
      </trkpt>
      <trkpt lat="28.57851" lon="-14.01879">
        <ele>84.4</ele>
        <time>2021-07-04 15:37:17</time>
      </trkpt>
      <trkpt lat="28.57849" lon="-14.01883">
        <ele>84.8</ele>
        <time>2021-07-04 15:37:18</time>
      </trkpt>
      <trkpt lat="28.57846" lon="-14.01887">
        <ele>84.8</ele>
        <time>2021-07-04 15:37:19</time>
      </trkpt>
      <trkpt lat="28.57843" lon="-14.01891">
        <ele>84.8</ele>
        <time>2021-07-04 15:37:20</time>
      </trkpt>
      <trkpt lat="28.5784" lon="-14.01895">
        <ele>85</ele>
        <time>2021-07-04 15:37:21</time>
      </trkpt>
      <trkpt lat="28.57837" lon="-14.01899">
        <ele>85</ele>
        <time>2021-07-04 15:37:22</time>
      </trkpt>
      <trkpt lat="28.57834" lon="-14.01903">
        <ele>85</ele>
        <time>2021-07-04 15:37:23</time>
      </trkpt>
      <trkpt lat="28.5783" lon="-14.01908">
        <ele>85</ele>
        <time>2021-07-04 15:37:24</time>
      </trkpt>
      <trkpt lat="28.57827" lon="-14.01912">
        <ele>85</ele>
        <time>2021-07-04 15:37:25</time>
      </trkpt>
      <trkpt lat="28.57824" lon="-14.01917">
        <ele>85</ele>
        <time>2021-07-04 15:37:26</time>
      </trkpt>
      <trkpt lat="28.57821" lon="-14.01922">
        <ele>85</ele>
        <time>2021-07-04 15:37:27</time>
      </trkpt>
      <trkpt lat="28.57817" lon="-14.01926">
        <ele>85</ele>
        <time>2021-07-04 15:37:28</time>
      </trkpt>
      <trkpt lat="28.57814" lon="-14.0193">
        <ele>84.6</ele>
        <time>2021-07-04 15:37:29</time>
      </trkpt>
      <trkpt lat="28.57811" lon="-14.01934">
        <ele>84.6</ele>
        <time>2021-07-04 15:37:30</time>
      </trkpt>
      <trkpt lat="28.57807" lon="-14.01938">
        <ele>84.4</ele>
        <time>2021-07-04 15:37:31</time>
      </trkpt>
      <trkpt lat="28.57804" lon="-14.01942">
        <ele>84.4</ele>
        <time>2021-07-04 15:37:32</time>
      </trkpt>
      <trkpt lat="28.57801" lon="-14.01946">
        <ele>84.4</ele>
        <time>2021-07-04 15:37:33</time>
      </trkpt>
      <trkpt lat="28.57798" lon="-14.01949">
        <ele>84.4</ele>
        <time>2021-07-04 15:37:34</time>
      </trkpt>
      <trkpt lat="28.57795" lon="-14.01953">
        <ele>84.4</ele>
        <time>2021-07-04 15:37:35</time>
      </trkpt>
      <trkpt lat="28.57792" lon="-14.01957">
        <ele>84</ele>
        <time>2021-07-04 15:37:36</time>
      </trkpt>
      <trkpt lat="28.5779" lon="-14.01962">
        <ele>84</ele>
        <time>2021-07-04 15:37:37</time>
      </trkpt>
      <trkpt lat="28.57786" lon="-14.01966">
        <ele>84</ele>
        <time>2021-07-04 15:37:38</time>
      </trkpt>
      <trkpt lat="28.57783" lon="-14.01971">
        <ele>84</ele>
        <time>2021-07-04 15:37:39</time>
      </trkpt>
      <trkpt lat="28.57779" lon="-14.01975">
        <ele>84</ele>
        <time>2021-07-04 15:37:40</time>
      </trkpt>
      <trkpt lat="28.57776" lon="-14.0198">
        <ele>84</ele>
        <time>2021-07-04 15:37:41</time>
      </trkpt>
      <trkpt lat="28.57772" lon="-14.01985">
        <ele>84</ele>
        <time>2021-07-04 15:37:42</time>
      </trkpt>
      <trkpt lat="28.57768" lon="-14.0199">
        <ele>84</ele>
        <time>2021-07-04 15:37:43</time>
      </trkpt>
      <trkpt lat="28.57765" lon="-14.01995">
        <ele>84</ele>
        <time>2021-07-04 15:37:44</time>
      </trkpt>
      <trkpt lat="28.57761" lon="-14.01999">
        <ele>84</ele>
        <time>2021-07-04 15:37:45</time>
      </trkpt>
      <trkpt lat="28.57758" lon="-14.02004">
        <ele>84</ele>
        <time>2021-07-04 15:37:46</time>
      </trkpt>
      <trkpt lat="28.57755" lon="-14.02009">
        <ele>84.4</ele>
        <time>2021-07-04 15:37:47</time>
      </trkpt>
      <trkpt lat="28.57751" lon="-14.02014">
        <ele>84.4</ele>
        <time>2021-07-04 15:37:48</time>
      </trkpt>
      <trkpt lat="28.57748" lon="-14.02019">
        <ele>84.4</ele>
        <time>2021-07-04 15:37:49</time>
      </trkpt>
      <trkpt lat="28.57744" lon="-14.02025">
        <ele>84.6</ele>
        <time>2021-07-04 15:37:50</time>
      </trkpt>
      <trkpt lat="28.57741" lon="-14.0203">
        <ele>84.6</ele>
        <time>2021-07-04 15:37:51</time>
      </trkpt>
      <trkpt lat="28.57738" lon="-14.02036">
        <ele>84.6</ele>
        <time>2021-07-04 15:37:52</time>
      </trkpt>
      <trkpt lat="28.57735" lon="-14.02041">
        <ele>84.8</ele>
        <time>2021-07-04 15:37:53</time>
      </trkpt>
      <trkpt lat="28.57733" lon="-14.02047">
        <ele>84.8</ele>
        <time>2021-07-04 15:37:54</time>
      </trkpt>
      <trkpt lat="28.5773" lon="-14.02053">
        <ele>84.8</ele>
        <time>2021-07-04 15:37:55</time>
      </trkpt>
      <trkpt lat="28.57728" lon="-14.02059">
        <ele>84.8</ele>
        <time>2021-07-04 15:37:56</time>
      </trkpt>
      <trkpt lat="28.57724" lon="-14.02065">
        <ele>84.8</ele>
        <time>2021-07-04 15:37:57</time>
      </trkpt>
      <trkpt lat="28.57721" lon="-14.02071">
        <ele>84.8</ele>
        <time>2021-07-04 15:37:58</time>
      </trkpt>
      <trkpt lat="28.57717" lon="-14.02075">
        <ele>84.8</ele>
        <time>2021-07-04 15:37:59</time>
      </trkpt>
      <trkpt lat="28.57712" lon="-14.0208">
        <ele>84.6</ele>
        <time>2021-07-04 15:38:00</time>
      </trkpt>
      <trkpt lat="28.57708" lon="-14.02086">
        <ele>84.6</ele>
        <time>2021-07-04 15:38:01</time>
      </trkpt>
      <trkpt lat="28.57703" lon="-14.0209">
        <ele>84.6</ele>
        <time>2021-07-04 15:38:02</time>
      </trkpt>
      <trkpt lat="28.57698" lon="-14.02094">
        <ele>84.6</ele>
        <time>2021-07-04 15:38:03</time>
      </trkpt>
      <trkpt lat="28.57693" lon="-14.02098">
        <ele>84.2</ele>
        <time>2021-07-04 15:38:04</time>
      </trkpt>
      <trkpt lat="28.57688" lon="-14.02102">
        <ele>84.2</ele>
        <time>2021-07-04 15:38:05</time>
      </trkpt>
      <trkpt lat="28.57683" lon="-14.02106">
        <ele>84.2</ele>
        <time>2021-07-04 15:38:06</time>
      </trkpt>
      <trkpt lat="28.57678" lon="-14.0211">
        <ele>84.2</ele>
        <time>2021-07-04 15:38:07</time>
      </trkpt>
      <trkpt lat="28.57674" lon="-14.02115">
        <ele>84.2</ele>
        <time>2021-07-04 15:38:08</time>
      </trkpt>
      <trkpt lat="28.57669" lon="-14.02119">
        <ele>84.2</ele>
        <time>2021-07-04 15:38:09</time>
      </trkpt>
      <trkpt lat="28.57665" lon="-14.02124">
        <ele>84.2</ele>
        <time>2021-07-04 15:38:10</time>
      </trkpt>
      <trkpt lat="28.5766" lon="-14.02128">
        <ele>84.2</ele>
        <time>2021-07-04 15:38:11</time>
      </trkpt>
      <trkpt lat="28.57654" lon="-14.02132">
        <ele>84</ele>
        <time>2021-07-04 15:38:12</time>
      </trkpt>
      <trkpt lat="28.57649" lon="-14.02136">
        <ele>84</ele>
        <time>2021-07-04 15:38:13</time>
      </trkpt>
      <trkpt lat="28.57644" lon="-14.0214">
        <ele>84</ele>
        <time>2021-07-04 15:38:14</time>
      </trkpt>
      <trkpt lat="28.57639" lon="-14.02144">
        <ele>83.8</ele>
        <time>2021-07-04 15:38:15</time>
      </trkpt>
      <trkpt lat="28.57634" lon="-14.02148">
        <ele>83.8</ele>
        <time>2021-07-04 15:38:16</time>
      </trkpt>
      <trkpt lat="28.57629" lon="-14.02152">
        <ele>83.4</ele>
        <time>2021-07-04 15:38:17</time>
      </trkpt>
      <trkpt lat="28.57624" lon="-14.02156">
        <ele>83.4</ele>
        <time>2021-07-04 15:38:18</time>
      </trkpt>
      <trkpt lat="28.57619" lon="-14.0216">
        <ele>83.2</ele>
        <time>2021-07-04 15:38:19</time>
      </trkpt>
      <trkpt lat="28.57614" lon="-14.02163">
        <ele>83.2</ele>
        <time>2021-07-04 15:38:20</time>
      </trkpt>
      <trkpt lat="28.57609" lon="-14.02168">
        <ele>83.2</ele>
        <time>2021-07-04 15:38:21</time>
      </trkpt>
      <trkpt lat="28.57604" lon="-14.02172">
        <ele>82.8</ele>
        <time>2021-07-04 15:38:22</time>
      </trkpt>
      <trkpt lat="28.57599" lon="-14.02176">
        <ele>82.8</ele>
        <time>2021-07-04 15:38:23</time>
      </trkpt>
      <trkpt lat="28.57593" lon="-14.0218">
        <ele>82.8</ele>
        <time>2021-07-04 15:38:24</time>
      </trkpt>
      <trkpt lat="28.57588" lon="-14.02185">
        <ele>82.6</ele>
        <time>2021-07-04 15:38:25</time>
      </trkpt>
      <trkpt lat="28.57582" lon="-14.02189">
        <ele>82.6</ele>
        <time>2021-07-04 15:38:26</time>
      </trkpt>
      <trkpt lat="28.57577" lon="-14.02194">
        <ele>82.6</ele>
        <time>2021-07-04 15:38:27</time>
      </trkpt>
      <trkpt lat="28.57571" lon="-14.02197">
        <ele>82.6</ele>
        <time>2021-07-04 15:38:28</time>
      </trkpt>
      <trkpt lat="28.57566" lon="-14.02202">
        <ele>82.6</ele>
        <time>2021-07-04 15:38:29</time>
      </trkpt>
      <trkpt lat="28.5756" lon="-14.02206">
        <ele>82.6</ele>
        <time>2021-07-04 15:38:30</time>
      </trkpt>
      <trkpt lat="28.57555" lon="-14.0221">
        <ele>82.6</ele>
        <time>2021-07-04 15:38:31</time>
      </trkpt>
      <trkpt lat="28.57549" lon="-14.02214">
        <ele>82.2</ele>
        <time>2021-07-04 15:38:32</time>
      </trkpt>
      <trkpt lat="28.57543" lon="-14.02218">
        <ele>82.2</ele>
        <time>2021-07-04 15:38:33</time>
      </trkpt>
      <trkpt lat="28.57537" lon="-14.02222">
        <ele>82.2</ele>
        <time>2021-07-04 15:38:34</time>
      </trkpt>
      <trkpt lat="28.57531" lon="-14.02226">
        <ele>82.2</ele>
        <time>2021-07-04 15:38:35</time>
      </trkpt>
      <trkpt lat="28.57525" lon="-14.0223">
        <ele>82.2</ele>
        <time>2021-07-04 15:38:36</time>
      </trkpt>
      <trkpt lat="28.5752" lon="-14.02235">
        <ele>82.2</ele>
        <time>2021-07-04 15:38:37</time>
      </trkpt>
      <trkpt lat="28.57514" lon="-14.0224">
        <ele>82.2</ele>
        <time>2021-07-04 15:38:38</time>
      </trkpt>
      <trkpt lat="28.57509" lon="-14.02244">
        <ele>82</ele>
        <time>2021-07-04 15:38:39</time>
      </trkpt>
      <trkpt lat="28.57503" lon="-14.02248">
        <ele>82</ele>
        <time>2021-07-04 15:38:40</time>
      </trkpt>
      <trkpt lat="28.57499" lon="-14.02253">
        <ele>82</ele>
        <time>2021-07-04 15:38:41</time>
      </trkpt>
      <trkpt lat="28.57493" lon="-14.02257">
        <ele>82</ele>
        <time>2021-07-04 15:38:42</time>
      </trkpt>
      <trkpt lat="28.57488" lon="-14.0226">
        <ele>82</ele>
        <time>2021-07-04 15:38:43</time>
      </trkpt>
      <trkpt lat="28.57483" lon="-14.02263">
        <ele>82</ele>
        <time>2021-07-04 15:38:44</time>
      </trkpt>
      <trkpt lat="28.57478" lon="-14.02266">
        <ele>82</ele>
        <time>2021-07-04 15:38:45</time>
      </trkpt>
      <trkpt lat="28.57473" lon="-14.02269">
        <ele>82</ele>
        <time>2021-07-04 15:38:46</time>
      </trkpt>
      <trkpt lat="28.57467" lon="-14.02273">
        <ele>82</ele>
        <time>2021-07-04 15:38:47</time>
      </trkpt>
      <trkpt lat="28.57463" lon="-14.02278">
        <ele>82</ele>
        <time>2021-07-04 15:38:48</time>
      </trkpt>
      <trkpt lat="28.57458" lon="-14.02282">
        <ele>82</ele>
        <time>2021-07-04 15:38:49</time>
      </trkpt>
      <trkpt lat="28.57453" lon="-14.02287">
        <ele>82</ele>
        <time>2021-07-04 15:38:50</time>
      </trkpt>
      <trkpt lat="28.57448" lon="-14.02291">
        <ele>82</ele>
        <time>2021-07-04 15:38:51</time>
      </trkpt>
      <trkpt lat="28.57442" lon="-14.02295">
        <ele>82</ele>
        <time>2021-07-04 15:38:52</time>
      </trkpt>
      <trkpt lat="28.57436" lon="-14.02298">
        <ele>82.4</ele>
        <time>2021-07-04 15:38:53</time>
      </trkpt>
      <trkpt lat="28.5743" lon="-14.023">
        <ele>82.4</ele>
        <time>2021-07-04 15:38:54</time>
      </trkpt>
      <trkpt lat="28.57424" lon="-14.02302">
        <ele>82.4</ele>
        <time>2021-07-04 15:38:55</time>
      </trkpt>
      <trkpt lat="28.57417" lon="-14.02303">
        <ele>82.4</ele>
        <time>2021-07-04 15:38:56</time>
      </trkpt>
      <trkpt lat="28.57411" lon="-14.02305">
        <ele>82</ele>
        <time>2021-07-04 15:38:57</time>
      </trkpt>
      <trkpt lat="28.57404" lon="-14.02307">
        <ele>82</ele>
        <time>2021-07-04 15:38:58</time>
      </trkpt>
      <trkpt lat="28.57398" lon="-14.0231">
        <ele>82</ele>
        <time>2021-07-04 15:38:59</time>
      </trkpt>
      <trkpt lat="28.57391" lon="-14.02312">
        <ele>81.8</ele>
        <time>2021-07-04 15:39:00</time>
      </trkpt>
      <trkpt lat="28.57384" lon="-14.02315">
        <ele>81.8</ele>
        <time>2021-07-04 15:39:01</time>
      </trkpt>
      <trkpt lat="28.57378" lon="-14.02318">
        <ele>81.8</ele>
        <time>2021-07-04 15:39:02</time>
      </trkpt>
      <trkpt lat="28.57371" lon="-14.0232">
        <ele>81.6</ele>
        <time>2021-07-04 15:39:03</time>
      </trkpt>
      <trkpt lat="28.57365" lon="-14.02323">
        <ele>81.6</ele>
        <time>2021-07-04 15:39:04</time>
      </trkpt>
      <trkpt lat="28.57358" lon="-14.02326">
        <ele>80.4</ele>
        <time>2021-07-04 15:39:05</time>
      </trkpt>
      <trkpt lat="28.57352" lon="-14.02329">
        <ele>80.8</ele>
        <time>2021-07-04 15:39:06</time>
      </trkpt>
      <trkpt lat="28.57346" lon="-14.02331">
        <ele>80.8</ele>
        <time>2021-07-04 15:39:07</time>
      </trkpt>
      <trkpt lat="28.57339" lon="-14.02333">
        <ele>81</ele>
        <time>2021-07-04 15:39:08</time>
      </trkpt>
      <trkpt lat="28.57334" lon="-14.02336">
        <ele>81</ele>
        <time>2021-07-04 15:39:09</time>
      </trkpt>
      <trkpt lat="28.57328" lon="-14.02338">
        <ele>81</ele>
        <time>2021-07-04 15:39:10</time>
      </trkpt>
      <trkpt lat="28.57322" lon="-14.0234">
        <ele>81</ele>
        <time>2021-07-04 15:39:11</time>
      </trkpt>
      <trkpt lat="28.57316" lon="-14.02342">
        <ele>81</ele>
        <time>2021-07-04 15:39:12</time>
      </trkpt>
      <trkpt lat="28.5731" lon="-14.02344">
        <ele>81</ele>
        <time>2021-07-04 15:39:13</time>
      </trkpt>
      <trkpt lat="28.57304" lon="-14.02346">
        <ele>81</ele>
        <time>2021-07-04 15:39:14</time>
      </trkpt>
      <trkpt lat="28.57299" lon="-14.02348">
        <ele>81</ele>
        <time>2021-07-04 15:39:15</time>
      </trkpt>
      <trkpt lat="28.57293" lon="-14.0235">
        <ele>81.2</ele>
        <time>2021-07-04 15:39:16</time>
      </trkpt>
      <trkpt lat="28.57287" lon="-14.02352">
        <ele>81.2</ele>
        <time>2021-07-04 15:39:17</time>
      </trkpt>
      <trkpt lat="28.57282" lon="-14.02354">
        <ele>81.4</ele>
        <time>2021-07-04 15:39:18</time>
      </trkpt>
      <trkpt lat="28.57276" lon="-14.02356">
        <ele>81.4</ele>
        <time>2021-07-04 15:39:19</time>
      </trkpt>
      <trkpt lat="28.57271" lon="-14.02359">
        <ele>81.8</ele>
        <time>2021-07-04 15:39:20</time>
      </trkpt>
      <trkpt lat="28.57265" lon="-14.02361">
        <ele>81.8</ele>
        <time>2021-07-04 15:39:21</time>
      </trkpt>
      <trkpt lat="28.57259" lon="-14.02363">
        <ele>82.2</ele>
        <time>2021-07-04 15:39:22</time>
      </trkpt>
      <trkpt lat="28.57252" lon="-14.02365">
        <ele>82.2</ele>
        <time>2021-07-04 15:39:23</time>
      </trkpt>
      <trkpt lat="28.57246" lon="-14.02367">
        <ele>82.2</ele>
        <time>2021-07-04 15:39:24</time>
      </trkpt>
      <trkpt lat="28.5724" lon="-14.0237">
        <ele>82.2</ele>
        <time>2021-07-04 15:39:25</time>
      </trkpt>
      <trkpt lat="28.57234" lon="-14.02373">
        <ele>82.2</ele>
        <time>2021-07-04 15:39:26</time>
      </trkpt>
      <trkpt lat="28.57228" lon="-14.02376">
        <ele>82.2</ele>
        <time>2021-07-04 15:39:27</time>
      </trkpt>
      <trkpt lat="28.57223" lon="-14.0238">
        <ele>82.2</ele>
        <time>2021-07-04 15:39:28</time>
      </trkpt>
      <trkpt lat="28.57217" lon="-14.02383">
        <ele>82.2</ele>
        <time>2021-07-04 15:39:29</time>
      </trkpt>
      <trkpt lat="28.57211" lon="-14.02387">
        <ele>82.2</ele>
        <time>2021-07-04 15:39:30</time>
      </trkpt>
      <trkpt lat="28.57206" lon="-14.0239">
        <ele>82.2</ele>
        <time>2021-07-04 15:39:31</time>
      </trkpt>
      <trkpt lat="28.572" lon="-14.02394">
        <ele>82.2</ele>
        <time>2021-07-04 15:39:32</time>
      </trkpt>
      <trkpt lat="28.57195" lon="-14.02398">
        <ele>82.2</ele>
        <time>2021-07-04 15:39:33</time>
      </trkpt>
      <trkpt lat="28.5719" lon="-14.02401">
        <ele>82.2</ele>
        <time>2021-07-04 15:39:34</time>
      </trkpt>
      <trkpt lat="28.57185" lon="-14.02405">
        <ele>81.8</ele>
        <time>2021-07-04 15:39:35</time>
      </trkpt>
      <trkpt lat="28.5718" lon="-14.02408">
        <ele>81.8</ele>
        <time>2021-07-04 15:39:36</time>
      </trkpt>
      <trkpt lat="28.57175" lon="-14.02412">
        <ele>81.8</ele>
        <time>2021-07-04 15:39:37</time>
      </trkpt>
      <trkpt lat="28.57171" lon="-14.02415">
        <ele>81.8</ele>
        <time>2021-07-04 15:39:38</time>
      </trkpt>
      <trkpt lat="28.57166" lon="-14.02419">
        <ele>81.8</ele>
        <time>2021-07-04 15:39:39</time>
      </trkpt>
      <trkpt lat="28.57162" lon="-14.02421">
        <ele>81.8</ele>
        <time>2021-07-04 15:39:40</time>
      </trkpt>
      <trkpt lat="28.57157" lon="-14.02424">
        <ele>81.8</ele>
        <time>2021-07-04 15:39:41</time>
      </trkpt>
      <trkpt lat="28.57152" lon="-14.02428">
        <ele>81.6</ele>
        <time>2021-07-04 15:39:42</time>
      </trkpt>
      <trkpt lat="28.57147" lon="-14.0243">
        <ele>81.6</ele>
        <time>2021-07-04 15:39:43</time>
      </trkpt>
      <trkpt lat="28.57143" lon="-14.02433">
        <ele>81.6</ele>
        <time>2021-07-04 15:39:44</time>
      </trkpt>
      <trkpt lat="28.57139" lon="-14.02436">
        <ele>81.6</ele>
        <time>2021-07-04 15:39:45</time>
      </trkpt>
      <trkpt lat="28.57134" lon="-14.0244">
        <ele>81.6</ele>
        <time>2021-07-04 15:39:46</time>
      </trkpt>
      <trkpt lat="28.5713" lon="-14.02443">
        <ele>81.6</ele>
        <time>2021-07-04 15:39:47</time>
      </trkpt>
      <trkpt lat="28.57125" lon="-14.02446">
        <ele>81.6</ele>
        <time>2021-07-04 15:39:48</time>
      </trkpt>
      <trkpt lat="28.57121" lon="-14.0245">
        <ele>81.6</ele>
        <time>2021-07-04 15:39:49</time>
      </trkpt>
      <trkpt lat="28.57116" lon="-14.02454">
        <ele>81.6</ele>
        <time>2021-07-04 15:39:50</time>
      </trkpt>
      <trkpt lat="28.57111" lon="-14.02458">
        <ele>81.6</ele>
        <time>2021-07-04 15:39:51</time>
      </trkpt>
      <trkpt lat="28.57107" lon="-14.02462">
        <ele>81.6</ele>
        <time>2021-07-04 15:39:52</time>
      </trkpt>
      <trkpt lat="28.57102" lon="-14.02466">
        <ele>81.6</ele>
        <time>2021-07-04 15:39:53</time>
      </trkpt>
      <trkpt lat="28.57098" lon="-14.0247">
        <ele>81.6</ele>
        <time>2021-07-04 15:39:54</time>
      </trkpt>
      <trkpt lat="28.57094" lon="-14.02474">
        <ele>81.6</ele>
        <time>2021-07-04 15:39:55</time>
      </trkpt>
      <trkpt lat="28.5709" lon="-14.02478">
        <ele>81.6</ele>
        <time>2021-07-04 15:39:56</time>
      </trkpt>
      <trkpt lat="28.57086" lon="-14.02482">
        <ele>81.6</ele>
        <time>2021-07-04 15:39:57</time>
      </trkpt>
      <trkpt lat="28.57082" lon="-14.02485">
        <ele>81.6</ele>
        <time>2021-07-04 15:39:58</time>
      </trkpt>
      <trkpt lat="28.57078" lon="-14.0249">
        <ele>81.4</ele>
        <time>2021-07-04 15:39:59</time>
      </trkpt>
      <trkpt lat="28.57074" lon="-14.02494">
        <ele>81.4</ele>
        <time>2021-07-04 15:40:00</time>
      </trkpt>
      <trkpt lat="28.5707" lon="-14.02498">
        <ele>81.4</ele>
        <time>2021-07-04 15:40:01</time>
      </trkpt>
      <trkpt lat="28.57066" lon="-14.02502">
        <ele>81.2</ele>
        <time>2021-07-04 15:40:02</time>
      </trkpt>
      <trkpt lat="28.57062" lon="-14.02506">
        <ele>81.2</ele>
        <time>2021-07-04 15:40:03</time>
      </trkpt>
      <trkpt lat="28.57059" lon="-14.02511">
        <ele>80.8</ele>
        <time>2021-07-04 15:40:04</time>
      </trkpt>
      <trkpt lat="28.57054" lon="-14.02515">
        <ele>80.8</ele>
        <time>2021-07-04 15:40:05</time>
      </trkpt>
      <trkpt lat="28.5705" lon="-14.02519">
        <ele>80.8</ele>
        <time>2021-07-04 15:40:06</time>
      </trkpt>
      <trkpt lat="28.57046" lon="-14.02524">
        <ele>80.6</ele>
        <time>2021-07-04 15:40:07</time>
      </trkpt>
      <trkpt lat="28.57042" lon="-14.02528">
        <ele>80.6</ele>
        <time>2021-07-04 15:40:08</time>
      </trkpt>
      <trkpt lat="28.57039" lon="-14.02533">
        <ele>80.6</ele>
        <time>2021-07-04 15:40:09</time>
      </trkpt>
      <trkpt lat="28.57035" lon="-14.02536">
        <ele>80.6</ele>
        <time>2021-07-04 15:40:10</time>
      </trkpt>
      <trkpt lat="28.5703" lon="-14.0254">
        <ele>80.6</ele>
        <time>2021-07-04 15:40:11</time>
      </trkpt>
      <trkpt lat="28.57026" lon="-14.02544">
        <ele>80.6</ele>
        <time>2021-07-04 15:40:12</time>
      </trkpt>
      <trkpt lat="28.57022" lon="-14.02548">
        <ele>80.6</ele>
        <time>2021-07-04 15:40:13</time>
      </trkpt>
      <trkpt lat="28.57017" lon="-14.0255">
        <ele>80.4</ele>
        <time>2021-07-04 15:40:14</time>
      </trkpt>
      <trkpt lat="28.57012" lon="-14.02552">
        <ele>80.4</ele>
        <time>2021-07-04 15:40:15</time>
      </trkpt>
      <trkpt lat="28.57007" lon="-14.02553">
        <ele>80.4</ele>
        <time>2021-07-04 15:40:16</time>
      </trkpt>
      <trkpt lat="28.57002" lon="-14.02555">
        <ele>80.2</ele>
        <time>2021-07-04 15:40:17</time>
      </trkpt>
      <trkpt lat="28.56996" lon="-14.02556">
        <ele>80</ele>
        <time>2021-07-04 15:40:18</time>
      </trkpt>
      <trkpt lat="28.5699" lon="-14.02557">
        <ele>79.6</ele>
        <time>2021-07-04 15:40:19</time>
      </trkpt>
      <trkpt lat="28.56984" lon="-14.02559">
        <ele>79.4</ele>
        <time>2021-07-04 15:40:20</time>
      </trkpt>
      <trkpt lat="28.56979" lon="-14.02562">
        <ele>79</ele>
        <time>2021-07-04 15:40:21</time>
      </trkpt>
      <trkpt lat="28.56974" lon="-14.02566">
        <ele>78.8</ele>
        <time>2021-07-04 15:40:22</time>
      </trkpt>
      <trkpt lat="28.56969" lon="-14.02571">
        <ele>78.8</ele>
        <time>2021-07-04 15:40:23</time>
      </trkpt>
      <trkpt lat="28.56966" lon="-14.02576">
        <ele>78.6</ele>
        <time>2021-07-04 15:40:24</time>
      </trkpt>
      <trkpt lat="28.56962" lon="-14.02582">
        <ele>78.6</ele>
        <time>2021-07-04 15:40:25</time>
      </trkpt>
      <trkpt lat="28.56958" lon="-14.02587">
        <ele>78.6</ele>
        <time>2021-07-04 15:40:26</time>
      </trkpt>
      <trkpt lat="28.56954" lon="-14.02593">
        <ele>78.6</ele>
        <time>2021-07-04 15:40:27</time>
      </trkpt>
      <trkpt lat="28.56951" lon="-14.02599">
        <ele>78.6</ele>
        <time>2021-07-04 15:40:28</time>
      </trkpt>
      <trkpt lat="28.56948" lon="-14.02604">
        <ele>78.6</ele>
        <time>2021-07-04 15:40:29</time>
      </trkpt>
      <trkpt lat="28.56946" lon="-14.0261">
        <ele>78.6</ele>
        <time>2021-07-04 15:40:30</time>
      </trkpt>
      <trkpt lat="28.56943" lon="-14.02616">
        <ele>78.6</ele>
        <time>2021-07-04 15:40:31</time>
      </trkpt>
      <trkpt lat="28.56941" lon="-14.02621">
        <ele>78.6</ele>
        <time>2021-07-04 15:40:32</time>
      </trkpt>
      <trkpt lat="28.56939" lon="-14.02627">
        <ele>78.6</ele>
        <time>2021-07-04 15:40:33</time>
      </trkpt>
      <trkpt lat="28.56938" lon="-14.02633">
        <ele>78.6</ele>
        <time>2021-07-04 15:40:34</time>
      </trkpt>
      <trkpt lat="28.56937" lon="-14.02639">
        <ele>78.6</ele>
        <time>2021-07-04 15:40:35</time>
      </trkpt>
      <trkpt lat="28.56936" lon="-14.02645">
        <ele>78.6</ele>
        <time>2021-07-04 15:40:36</time>
      </trkpt>
      <trkpt lat="28.56935" lon="-14.0265">
        <ele>78.2</ele>
        <time>2021-07-04 15:40:37</time>
      </trkpt>
      <trkpt lat="28.56934" lon="-14.02656">
        <ele>78.2</ele>
        <time>2021-07-04 15:40:38</time>
      </trkpt>
      <trkpt lat="28.56933" lon="-14.02662">
        <ele>78</ele>
        <time>2021-07-04 15:40:39</time>
      </trkpt>
      <trkpt lat="28.56933" lon="-14.02667">
        <ele>78</ele>
        <time>2021-07-04 15:40:40</time>
      </trkpt>
      <trkpt lat="28.56933" lon="-14.02672">
        <ele>77.6</ele>
        <time>2021-07-04 15:40:41</time>
      </trkpt>
      <trkpt lat="28.56933" lon="-14.02678">
        <ele>77.4</ele>
        <time>2021-07-04 15:40:42</time>
      </trkpt>
      <trkpt lat="28.56933" lon="-14.02683">
        <ele>77</ele>
        <time>2021-07-04 15:40:43</time>
      </trkpt>
      <trkpt lat="28.56933" lon="-14.02688">
        <ele>77</ele>
        <time>2021-07-04 15:40:44</time>
      </trkpt>
      <trkpt lat="28.56933" lon="-14.02694">
        <ele>76.6</ele>
        <time>2021-07-04 15:40:45</time>
      </trkpt>
      <trkpt lat="28.56934" lon="-14.027">
        <ele>76.6</ele>
        <time>2021-07-04 15:40:46</time>
      </trkpt>
      <trkpt lat="28.56934" lon="-14.02705">
        <ele>76.4</ele>
        <time>2021-07-04 15:40:47</time>
      </trkpt>
      <trkpt lat="28.56934" lon="-14.0271">
        <ele>76.4</ele>
        <time>2021-07-04 15:40:48</time>
      </trkpt>
      <trkpt lat="28.56932" lon="-14.02715">
        <ele>75.8</ele>
        <time>2021-07-04 15:40:49</time>
      </trkpt>
      <trkpt lat="28.56929" lon="-14.0272">
        <ele>75.4</ele>
        <time>2021-07-04 15:40:50</time>
      </trkpt>
      <trkpt lat="28.56925" lon="-14.02724">
        <ele>75.2</ele>
        <time>2021-07-04 15:40:51</time>
      </trkpt>
      <trkpt lat="28.5692" lon="-14.02727">
        <ele>75</ele>
        <time>2021-07-04 15:40:52</time>
      </trkpt>
      <trkpt lat="28.56915" lon="-14.02729">
        <ele>74.4</ele>
        <time>2021-07-04 15:40:53</time>
      </trkpt>
      <trkpt lat="28.56911" lon="-14.02733">
        <ele>74.2</ele>
        <time>2021-07-04 15:40:54</time>
      </trkpt>
      <trkpt lat="28.56905" lon="-14.02737">
        <ele>73.4</ele>
        <time>2021-07-04 15:40:55</time>
      </trkpt>
      <trkpt lat="28.569" lon="-14.02741">
        <ele>73.2</ele>
        <time>2021-07-04 15:40:56</time>
      </trkpt>
      <trkpt lat="28.56894" lon="-14.02747">
        <ele>72.4</ele>
        <time>2021-07-04 15:40:57</time>
      </trkpt>
      <trkpt lat="28.56889" lon="-14.02753">
        <ele>71.6</ele>
        <time>2021-07-04 15:40:58</time>
      </trkpt>
      <trkpt lat="28.56884" lon="-14.0276">
        <ele>70.8</ele>
        <time>2021-07-04 15:40:59</time>
      </trkpt>
      <trkpt lat="28.56878" lon="-14.02767">
        <ele>70</ele>
        <time>2021-07-04 15:41:00</time>
      </trkpt>
      <trkpt lat="28.56871" lon="-14.02773">
        <ele>69.6</ele>
        <time>2021-07-04 15:41:01</time>
      </trkpt>
      <trkpt lat="28.56864" lon="-14.02779">
        <ele>68.8</ele>
        <time>2021-07-04 15:41:02</time>
      </trkpt>
      <trkpt lat="28.56857" lon="-14.02785">
        <ele>68.2</ele>
        <time>2021-07-04 15:41:03</time>
      </trkpt>
      <trkpt lat="28.56851" lon="-14.02793">
        <ele>67.6</ele>
        <time>2021-07-04 15:41:04</time>
      </trkpt>
      <trkpt lat="28.56846" lon="-14.02801">
        <ele>67</ele>
        <time>2021-07-04 15:41:05</time>
      </trkpt>
      <trkpt lat="28.56841" lon="-14.02809">
        <ele>66.4</ele>
        <time>2021-07-04 15:41:06</time>
      </trkpt>
      <trkpt lat="28.56839" lon="-14.02817">
        <ele>66</ele>
        <time>2021-07-04 15:41:07</time>
      </trkpt>
      <trkpt lat="28.56838" lon="-14.02826">
        <ele>65.4</ele>
        <time>2021-07-04 15:41:08</time>
      </trkpt>
      <trkpt lat="28.56837" lon="-14.02834">
        <ele>65</ele>
        <time>2021-07-04 15:41:09</time>
      </trkpt>
      <trkpt lat="28.56837" lon="-14.02842">
        <ele>64.8</ele>
        <time>2021-07-04 15:41:10</time>
      </trkpt>
      <trkpt lat="28.56835" lon="-14.02849">
        <ele>64.8</ele>
        <time>2021-07-04 15:41:11</time>
      </trkpt>
      <trkpt lat="28.56832" lon="-14.02856">
        <ele>64.8</ele>
        <time>2021-07-04 15:41:12</time>
      </trkpt>
      <trkpt lat="28.56828" lon="-14.02861">
        <ele>64.8</ele>
        <time>2021-07-04 15:41:13</time>
      </trkpt>
      <trkpt lat="28.56824" lon="-14.02864">
        <ele>65</ele>
        <time>2021-07-04 15:41:14</time>
      </trkpt>
      <trkpt lat="28.56818" lon="-14.02867">
        <ele>65.2</ele>
        <time>2021-07-04 15:41:15</time>
      </trkpt>
      <trkpt lat="28.56813" lon="-14.02869">
        <ele>65.2</ele>
        <time>2021-07-04 15:41:16</time>
      </trkpt>
      <trkpt lat="28.56808" lon="-14.02872">
        <ele>65.6</ele>
        <time>2021-07-04 15:41:17</time>
      </trkpt>
      <trkpt lat="28.56803" lon="-14.02874">
        <ele>65.6</ele>
        <time>2021-07-04 15:41:18</time>
      </trkpt>
      <trkpt lat="28.56798" lon="-14.02877">
        <ele>65.6</ele>
        <time>2021-07-04 15:41:19</time>
      </trkpt>
      <trkpt lat="28.56794" lon="-14.02881">
        <ele>65.6</ele>
        <time>2021-07-04 15:41:20</time>
      </trkpt>
      <trkpt lat="28.5679" lon="-14.02885">
        <ele>65.4</ele>
        <time>2021-07-04 15:41:21</time>
      </trkpt>
      <trkpt lat="28.56787" lon="-14.02889">
        <ele>65.4</ele>
        <time>2021-07-04 15:41:22</time>
      </trkpt>
      <trkpt lat="28.56785" lon="-14.02894">
        <ele>65.4</ele>
        <time>2021-07-04 15:41:23</time>
      </trkpt>
      <trkpt lat="28.56783" lon="-14.02897">
        <ele>65.4</ele>
        <time>2021-07-04 15:41:24</time>
      </trkpt>
      <trkpt lat="28.56782" lon="-14.02899">
        <ele>65.4</ele>
        <time>2021-07-04 15:41:25</time>
      </trkpt>
      <trkpt lat="28.56782" lon="-14.029">
        <ele>65.4</ele>
        <time>2021-07-04 15:41:26</time>
      </trkpt>
      <trkpt lat="28.56782" lon="-14.029">
        <ele>65.2</ele>
        <time>2021-07-04 15:41:27</time>
      </trkpt>
      <trkpt lat="28.56782" lon="-14.029">
        <ele>65.2</ele>
        <time>2021-07-04 15:41:28</time>
      </trkpt>
      <trkpt lat="28.56782" lon="-14.029">
        <ele>64.8</ele>
        <time>2021-07-04 15:41:29</time>
      </trkpt>
      <trkpt lat="28.56781" lon="-14.02902">
        <ele>63.6</ele>
        <time>2021-07-04 15:41:30</time>
      </trkpt>
      <trkpt lat="28.56781" lon="-14.02904">
        <ele>63.6</ele>
        <time>2021-07-04 15:41:31</time>
      </trkpt>
      <trkpt lat="28.56781" lon="-14.02906">
        <ele>63.6</ele>
        <time>2021-07-04 15:41:32</time>
      </trkpt>
      <trkpt lat="28.5678" lon="-14.02909">
        <ele>63.6</ele>
        <time>2021-07-04 15:41:33</time>
      </trkpt>
      <trkpt lat="28.56779" lon="-14.02913">
        <ele>63.6</ele>
        <time>2021-07-04 15:41:34</time>
      </trkpt>
      <trkpt lat="28.56778" lon="-14.02916">
        <ele>63.6</ele>
        <time>2021-07-04 15:41:35</time>
      </trkpt>
      <trkpt lat="28.56777" lon="-14.0292">
        <ele>63.6</ele>
        <time>2021-07-04 15:41:36</time>
      </trkpt>
      <trkpt lat="28.56775" lon="-14.02925">
        <ele>63.6</ele>
        <time>2021-07-04 15:41:37</time>
      </trkpt>
      <trkpt lat="28.56773" lon="-14.0293">
        <ele>63.6</ele>
        <time>2021-07-04 15:41:38</time>
      </trkpt>
      <trkpt lat="28.56772" lon="-14.02934">
        <ele>63.6</ele>
        <time>2021-07-04 15:41:39</time>
      </trkpt>
      <trkpt lat="28.5677" lon="-14.02938">
        <ele>63.6</ele>
        <time>2021-07-04 15:41:40</time>
      </trkpt>
      <trkpt lat="28.56768" lon="-14.02941">
        <ele>63.6</ele>
        <time>2021-07-04 15:41:41</time>
      </trkpt>
      <trkpt lat="28.56768" lon="-14.02942">
        <ele>63.4</ele>
        <time>2021-07-04 15:41:42</time>
      </trkpt>
      <trkpt lat="28.56768" lon="-14.02942">
        <ele>63.4</ele>
        <time>2021-07-04 15:41:43</time>
      </trkpt>
      <trkpt lat="28.56768" lon="-14.02942">
        <ele>63.4</ele>
        <time>2021-07-04 15:41:44</time>
      </trkpt>
      <trkpt lat="28.56768" lon="-14.02942">
        <ele>63</ele>
        <time>2021-07-04 15:41:45</time>
      </trkpt>
      <trkpt lat="28.56768" lon="-14.02942">
        <ele>63</ele>
        <time>2021-07-04 15:41:46</time>
      </trkpt>
      <trkpt lat="28.56766" lon="-14.02945">
        <ele>65.2</ele>
        <time>2021-07-04 15:41:47</time>
      </trkpt>
      <trkpt lat="28.56765" lon="-14.02948">
        <ele>65.2</ele>
        <time>2021-07-04 15:41:48</time>
      </trkpt>
      <trkpt lat="28.56764" lon="-14.02951">
        <ele>65.2</ele>
        <time>2021-07-04 15:41:49</time>
      </trkpt>
      <trkpt lat="28.56762" lon="-14.02954">
        <ele>64.8</ele>
        <time>2021-07-04 15:41:50</time>
      </trkpt>
      <trkpt lat="28.5676" lon="-14.02958">
        <ele>64.6</ele>
        <time>2021-07-04 15:41:51</time>
      </trkpt>
      <trkpt lat="28.56758" lon="-14.02963">
        <ele>64.2</ele>
        <time>2021-07-04 15:41:52</time>
      </trkpt>
      <trkpt lat="28.56757" lon="-14.02969">
        <ele>64.2</ele>
        <time>2021-07-04 15:41:53</time>
      </trkpt>
      <trkpt lat="28.56756" lon="-14.02975">
        <ele>63.8</ele>
        <time>2021-07-04 15:41:54</time>
      </trkpt>
      <trkpt lat="28.56754" lon="-14.02981">
        <ele>63.6</ele>
        <time>2021-07-04 15:41:55</time>
      </trkpt>
      <trkpt lat="28.56754" lon="-14.02988">
        <ele>63.2</ele>
        <time>2021-07-04 15:41:56</time>
      </trkpt>
      <trkpt lat="28.56754" lon="-14.02994">
        <ele>63</ele>
        <time>2021-07-04 15:41:57</time>
      </trkpt>
      <trkpt lat="28.56755" lon="-14.03001">
        <ele>62.8</ele>
        <time>2021-07-04 15:41:58</time>
      </trkpt>
      <trkpt lat="28.56756" lon="-14.03008">
        <ele>62.4</ele>
        <time>2021-07-04 15:41:59</time>
      </trkpt>
      <trkpt lat="28.56758" lon="-14.03015">
        <ele>62.2</ele>
        <time>2021-07-04 15:42:00</time>
      </trkpt>
      <trkpt lat="28.56759" lon="-14.03022">
        <ele>61.6</ele>
        <time>2021-07-04 15:42:01</time>
      </trkpt>
      <trkpt lat="28.56761" lon="-14.0303">
        <ele>61.2</ele>
        <time>2021-07-04 15:42:02</time>
      </trkpt>
      <trkpt lat="28.56762" lon="-14.03038">
        <ele>60.8</ele>
        <time>2021-07-04 15:42:03</time>
      </trkpt>
      <trkpt lat="28.56763" lon="-14.03046">
        <ele>60.6</ele>
        <time>2021-07-04 15:42:04</time>
      </trkpt>
      <trkpt lat="28.56764" lon="-14.03053">
        <ele>60.2</ele>
        <time>2021-07-04 15:42:05</time>
      </trkpt>
      <trkpt lat="28.56764" lon="-14.0306">
        <ele>60</ele>
        <time>2021-07-04 15:42:06</time>
      </trkpt>
      <trkpt lat="28.56765" lon="-14.03066">
        <ele>60</ele>
        <time>2021-07-04 15:42:07</time>
      </trkpt>
      <trkpt lat="28.56765" lon="-14.03071">
        <ele>60</ele>
        <time>2021-07-04 15:42:08</time>
      </trkpt>
      <trkpt lat="28.56765" lon="-14.03077">
        <ele>60.2</ele>
        <time>2021-07-04 15:42:09</time>
      </trkpt>
      <trkpt lat="28.56763" lon="-14.03082">
        <ele>60.4</ele>
        <time>2021-07-04 15:42:10</time>
      </trkpt>
      <trkpt lat="28.56762" lon="-14.03087">
        <ele>60.6</ele>
        <time>2021-07-04 15:42:11</time>
      </trkpt>
      <trkpt lat="28.5676" lon="-14.03092">
        <ele>60.6</ele>
        <time>2021-07-04 15:42:12</time>
      </trkpt>
      <trkpt lat="28.56758" lon="-14.03098">
        <ele>61</ele>
        <time>2021-07-04 15:42:13</time>
      </trkpt>
      <trkpt lat="28.56755" lon="-14.03104">
        <ele>61</ele>
        <time>2021-07-04 15:42:14</time>
      </trkpt>
      <trkpt lat="28.56751" lon="-14.0311">
        <ele>61</ele>
        <time>2021-07-04 15:42:15</time>
      </trkpt>
      <trkpt lat="28.56748" lon="-14.03116">
        <ele>61</ele>
        <time>2021-07-04 15:42:16</time>
      </trkpt>
      <trkpt lat="28.56745" lon="-14.03122">
        <ele>61</ele>
        <time>2021-07-04 15:42:17</time>
      </trkpt>
      <trkpt lat="28.56742" lon="-14.03128">
        <ele>61</ele>
        <time>2021-07-04 15:42:18</time>
      </trkpt>
      <trkpt lat="28.56739" lon="-14.03135">
        <ele>60.8</ele>
        <time>2021-07-04 15:42:19</time>
      </trkpt>
      <trkpt lat="28.56736" lon="-14.03142">
        <ele>60.8</ele>
        <time>2021-07-04 15:42:20</time>
      </trkpt>
      <trkpt lat="28.56734" lon="-14.03148">
        <ele>60.8</ele>
        <time>2021-07-04 15:42:21</time>
      </trkpt>
      <trkpt lat="28.56731" lon="-14.03154">
        <ele>60.8</ele>
        <time>2021-07-04 15:42:22</time>
      </trkpt>
      <trkpt lat="28.56719" lon="-14.03182">
        <ele>61</ele>
        <time>2021-07-04 15:42:23</time>
      </trkpt>
      <trkpt lat="28.56717" lon="-14.03187">
        <ele>61</ele>
        <time>2021-07-04 15:42:24</time>
      </trkpt>
      <trkpt lat="28.56715" lon="-14.03193">
        <ele>61</ele>
        <time>2021-07-04 15:42:25</time>
      </trkpt>
      <trkpt lat="28.56713" lon="-14.03198">
        <ele>61</ele>
        <time>2021-07-04 15:42:26</time>
      </trkpt>
      <trkpt lat="28.56712" lon="-14.03204">
        <ele>61</ele>
        <time>2021-07-04 15:42:27</time>
      </trkpt>
      <trkpt lat="28.5671" lon="-14.03209">
        <ele>61</ele>
        <time>2021-07-04 15:42:28</time>
      </trkpt>
      <trkpt lat="28.56709" lon="-14.03215">
        <ele>60.8</ele>
        <time>2021-07-04 15:42:29</time>
      </trkpt>
      <trkpt lat="28.56707" lon="-14.03221">
        <ele>60.6</ele>
        <time>2021-07-04 15:42:30</time>
      </trkpt>
      <trkpt lat="28.56706" lon="-14.03227">
        <ele>60.2</ele>
        <time>2021-07-04 15:42:31</time>
      </trkpt>
      <trkpt lat="28.56705" lon="-14.03232">
        <ele>60.2</ele>
        <time>2021-07-04 15:42:32</time>
      </trkpt>
      <trkpt lat="28.56704" lon="-14.03238">
        <ele>60.2</ele>
        <time>2021-07-04 15:42:33</time>
      </trkpt>
      <trkpt lat="28.56703" lon="-14.03243">
        <ele>60.2</ele>
        <time>2021-07-04 15:42:34</time>
      </trkpt>
      <trkpt lat="28.56702" lon="-14.03248">
        <ele>60.2</ele>
        <time>2021-07-04 15:42:35</time>
      </trkpt>
      <trkpt lat="28.56701" lon="-14.03253">
        <ele>60.2</ele>
        <time>2021-07-04 15:42:36</time>
      </trkpt>
      <trkpt lat="28.567" lon="-14.03257">
        <ele>60.6</ele>
        <time>2021-07-04 15:42:37</time>
      </trkpt>
      <trkpt lat="28.567" lon="-14.03262">
        <ele>60.6</ele>
        <time>2021-07-04 15:42:38</time>
      </trkpt>
      <trkpt lat="28.56698" lon="-14.03271">
        <ele>61</ele>
        <time>2021-07-04 15:42:50</time>
      </trkpt>
      <trkpt lat="28.56698" lon="-14.03276">
        <ele>61.4</ele>
        <time>2021-07-04 15:42:51</time>
      </trkpt>
      <trkpt lat="28.56697" lon="-14.03281">
        <ele>61.6</ele>
        <time>2021-07-04 15:42:52</time>
      </trkpt>
      <trkpt lat="28.56697" lon="-14.03286">
        <ele>61.6</ele>
        <time>2021-07-04 15:42:53</time>
      </trkpt>
      <trkpt lat="28.56697" lon="-14.03292">
        <ele>62.2</ele>
        <time>2021-07-04 15:42:54</time>
      </trkpt>
      <trkpt lat="28.56697" lon="-14.03297">
        <ele>62.2</ele>
        <time>2021-07-04 15:42:55</time>
      </trkpt>
      <trkpt lat="28.56697" lon="-14.03302">
        <ele>62.2</ele>
        <time>2021-07-04 15:42:56</time>
      </trkpt>
      <trkpt lat="28.56698" lon="-14.03308">
        <ele>62.2</ele>
        <time>2021-07-04 15:42:57</time>
      </trkpt>
      <trkpt lat="28.56698" lon="-14.03315">
        <ele>62.2</ele>
        <time>2021-07-04 15:42:58</time>
      </trkpt>
      <trkpt lat="28.56699" lon="-14.03322">
        <ele>61.6</ele>
        <time>2021-07-04 15:42:59</time>
      </trkpt>
      <trkpt lat="28.56699" lon="-14.03329">
        <ele>61.4</ele>
        <time>2021-07-04 15:43:00</time>
      </trkpt>
      <trkpt lat="28.567" lon="-14.03335">
        <ele>61</ele>
        <time>2021-07-04 15:43:01</time>
      </trkpt>
      <trkpt lat="28.567" lon="-14.03342">
        <ele>60.6</ele>
        <time>2021-07-04 15:43:02</time>
      </trkpt>
      <trkpt lat="28.56701" lon="-14.03349">
        <ele>60</ele>
        <time>2021-07-04 15:43:03</time>
      </trkpt>
      <trkpt lat="28.56702" lon="-14.03357">
        <ele>59.6</ele>
        <time>2021-07-04 15:43:04</time>
      </trkpt>
      <trkpt lat="28.56703" lon="-14.03364">
        <ele>59.2</ele>
        <time>2021-07-04 15:43:05</time>
      </trkpt>
      <trkpt lat="28.56703" lon="-14.03371">
        <ele>58.8</ele>
        <time>2021-07-04 15:43:06</time>
      </trkpt>
      <trkpt lat="28.56704" lon="-14.03379">
        <ele>58.2</ele>
        <time>2021-07-04 15:43:43</time>
      </trkpt>
      <trkpt lat="28.56704" lon="-14.03385">
        <ele>58</ele>
        <time>2021-07-04 15:43:44</time>
      </trkpt>
      <trkpt lat="28.56703" lon="-14.03392">
        <ele>58</ele>
        <time>2021-07-04 15:43:45</time>
      </trkpt>
      <trkpt lat="28.56701" lon="-14.03397">
        <ele>58</ele>
        <time>2021-07-04 15:43:46</time>
      </trkpt>
      <trkpt lat="28.56701" lon="-14.03404">
        <ele>58</ele>
        <time>2021-07-04 15:43:47</time>
      </trkpt>
      <trkpt lat="28.567" lon="-14.0341">
        <ele>57.6</ele>
        <time>2021-07-04 15:43:48</time>
      </trkpt>
      <trkpt lat="28.567" lon="-14.03416">
        <ele>57.6</ele>
        <time>2021-07-04 15:43:49</time>
      </trkpt>
      <trkpt lat="28.567" lon="-14.03421">
        <ele>57.6</ele>
        <time>2021-07-04 15:43:50</time>
      </trkpt>
      <trkpt lat="28.567" lon="-14.03427">
        <ele>58</ele>
        <time>2021-07-04 15:43:51</time>
      </trkpt>
      <trkpt lat="28.56701" lon="-14.03433">
        <ele>58</ele>
        <time>2021-07-04 15:43:52</time>
      </trkpt>
      <trkpt lat="28.56701" lon="-14.03438">
        <ele>58</ele>
        <time>2021-07-04 15:43:53</time>
      </trkpt>
      <trkpt lat="28.56702" lon="-14.03444">
        <ele>58</ele>
        <time>2021-07-04 15:43:54</time>
      </trkpt>
      <trkpt lat="28.56702" lon="-14.0345">
        <ele>57.6</ele>
        <time>2021-07-04 15:43:55</time>
      </trkpt>
      <trkpt lat="28.56702" lon="-14.03456">
        <ele>57.6</ele>
        <time>2021-07-04 15:43:56</time>
      </trkpt>
      <trkpt lat="28.56702" lon="-14.03462">
        <ele>57.6</ele>
        <time>2021-07-04 15:43:57</time>
      </trkpt>
      <trkpt lat="28.56702" lon="-14.03469">
        <ele>57.4</ele>
        <time>2021-07-04 15:43:58</time>
      </trkpt>
      <trkpt lat="28.56703" lon="-14.03475">
        <ele>57.4</ele>
        <time>2021-07-04 15:43:59</time>
      </trkpt>
      <trkpt lat="28.56704" lon="-14.03481">
        <ele>57.2</ele>
        <time>2021-07-04 15:44:00</time>
      </trkpt>
      <trkpt lat="28.56705" lon="-14.03487">
        <ele>56.8</ele>
        <time>2021-07-04 15:44:01</time>
      </trkpt>
      <trkpt lat="28.56706" lon="-14.03494">
        <ele>56.8</ele>
        <time>2021-07-04 15:44:02</time>
      </trkpt>
      <trkpt lat="28.56706" lon="-14.035">
        <ele>56.8</ele>
        <time>2021-07-04 15:44:03</time>
      </trkpt>
      <trkpt lat="28.56706" lon="-14.03506">
        <ele>56.8</ele>
        <time>2021-07-04 15:44:04</time>
      </trkpt>
      <trkpt lat="28.56705" lon="-14.03511">
        <ele>57.2</ele>
        <time>2021-07-04 15:44:05</time>
      </trkpt>
      <trkpt lat="28.56705" lon="-14.03516">
        <ele>57.2</ele>
        <time>2021-07-04 15:44:06</time>
      </trkpt>
      <trkpt lat="28.56705" lon="-14.0352">
        <ele>57.6</ele>
        <time>2021-07-04 15:44:07</time>
      </trkpt>
      <trkpt lat="28.56706" lon="-14.03524">
        <ele>57.8</ele>
        <time>2021-07-04 15:44:08</time>
      </trkpt>
      <trkpt lat="28.56706" lon="-14.03527">
        <ele>58.2</ele>
        <time>2021-07-04 15:44:09</time>
      </trkpt>
      <trkpt lat="28.56706" lon="-14.03531">
        <ele>58.4</ele>
        <time>2021-07-04 15:44:10</time>
      </trkpt>
      <trkpt lat="28.56707" lon="-14.03534">
        <ele>58.6</ele>
        <time>2021-07-04 15:44:11</time>
      </trkpt>
      <trkpt lat="28.56707" lon="-14.03537">
        <ele>58.6</ele>
        <time>2021-07-04 15:44:12</time>
      </trkpt>
      <trkpt lat="28.56707" lon="-14.03541">
        <ele>58.8</ele>
        <time>2021-07-04 15:44:13</time>
      </trkpt>
      <trkpt lat="28.56708" lon="-14.03543">
        <ele>59</ele>
        <time>2021-07-04 15:44:14</time>
      </trkpt>
      <trkpt lat="28.56708" lon="-14.03546">
        <ele>59.4</ele>
        <time>2021-07-04 15:44:15</time>
      </trkpt>
      <trkpt lat="28.56709" lon="-14.03549">
        <ele>59.6</ele>
        <time>2021-07-04 15:44:16</time>
      </trkpt>
      <trkpt lat="28.5671" lon="-14.03552">
        <ele>59.6</ele>
        <time>2021-07-04 15:44:17</time>
      </trkpt>
      <trkpt lat="28.56711" lon="-14.03555">
        <ele>59.8</ele>
        <time>2021-07-04 15:44:18</time>
      </trkpt>
      <trkpt lat="28.56712" lon="-14.03557">
        <ele>59.8</ele>
        <time>2021-07-04 15:44:19</time>
      </trkpt>
      <trkpt lat="28.56713" lon="-14.0356">
        <ele>60.2</ele>
        <time>2021-07-04 15:44:20</time>
      </trkpt>
      <trkpt lat="28.56714" lon="-14.03562">
        <ele>60.2</ele>
        <time>2021-07-04 15:44:21</time>
      </trkpt>
      <trkpt lat="28.56715" lon="-14.03565">
        <ele>60.4</ele>
        <time>2021-07-04 15:44:22</time>
      </trkpt>
      <trkpt lat="28.56716" lon="-14.03567">
        <ele>60.4</ele>
        <time>2021-07-04 15:44:23</time>
      </trkpt>
      <trkpt lat="28.56716" lon="-14.03569">
        <ele>60.4</ele>
        <time>2021-07-04 15:44:24</time>
      </trkpt>
      <trkpt lat="28.56717" lon="-14.03571">
        <ele>60.2</ele>
        <time>2021-07-04 15:44:25</time>
      </trkpt>
      <trkpt lat="28.56718" lon="-14.03572">
        <ele>60.2</ele>
        <time>2021-07-04 15:44:26</time>
      </trkpt>
      <trkpt lat="28.56718" lon="-14.03572">
        <ele>60.4</ele>
        <time>2021-07-04 15:44:27</time>
      </trkpt>
      <trkpt lat="28.56718" lon="-14.03571">
        <ele>60.6</ele>
        <time>2021-07-04 15:44:28</time>
      </trkpt>
      <trkpt lat="28.56717" lon="-14.03572">
        <ele>61.8</ele>
        <time>2021-07-04 15:44:29</time>
      </trkpt>
      <trkpt lat="28.56717" lon="-14.03574">
        <ele>61.8</ele>
        <time>2021-07-04 15:44:30</time>
      </trkpt>
      <trkpt lat="28.56717" lon="-14.03576">
        <ele>61.8</ele>
        <time>2021-07-04 15:44:31</time>
      </trkpt>
      <trkpt lat="28.56717" lon="-14.03577">
        <ele>61.8</ele>
        <time>2021-07-04 15:44:32</time>
      </trkpt>
      <trkpt lat="28.56717" lon="-14.0358">
        <ele>61.6</ele>
        <time>2021-07-04 15:44:33</time>
      </trkpt>
      <trkpt lat="28.56718" lon="-14.03583">
        <ele>61.2</ele>
        <time>2021-07-04 15:44:34</time>
      </trkpt>
      <trkpt lat="28.56719" lon="-14.03588">
        <ele>60.8</ele>
        <time>2021-07-04 15:44:35</time>
      </trkpt>
      <trkpt lat="28.5672" lon="-14.03592">
        <ele>60.6</ele>
        <time>2021-07-04 15:44:36</time>
      </trkpt>
      <trkpt lat="28.5672" lon="-14.03597">
        <ele>60.4</ele>
        <time>2021-07-04 15:44:37</time>
      </trkpt>
      <trkpt lat="28.5672" lon="-14.03601">
        <ele>60.4</ele>
        <time>2021-07-04 15:44:38</time>
      </trkpt>
      <trkpt lat="28.5672" lon="-14.03606">
        <ele>60</ele>
        <time>2021-07-04 15:44:39</time>
      </trkpt>
      <trkpt lat="28.5672" lon="-14.03611">
        <ele>59.8</ele>
        <time>2021-07-04 15:44:40</time>
      </trkpt>
      <trkpt lat="28.56721" lon="-14.03616">
        <ele>59.6</ele>
        <time>2021-07-04 15:44:41</time>
      </trkpt>
      <trkpt lat="28.56721" lon="-14.03622">
        <ele>59.6</ele>
        <time>2021-07-04 15:44:42</time>
      </trkpt>
      <trkpt lat="28.56721" lon="-14.03627">
        <ele>59.4</ele>
        <time>2021-07-04 15:44:43</time>
      </trkpt>
      <trkpt lat="28.56721" lon="-14.03633">
        <ele>59.2</ele>
        <time>2021-07-04 15:44:44</time>
      </trkpt>
      <trkpt lat="28.56721" lon="-14.03638">
        <ele>58.8</ele>
        <time>2021-07-04 15:44:45</time>
      </trkpt>
      <trkpt lat="28.56721" lon="-14.03644">
        <ele>58.4</ele>
        <time>2021-07-04 15:44:46</time>
      </trkpt>
      <trkpt lat="28.56721" lon="-14.0365">
        <ele>57.8</ele>
        <time>2021-07-04 15:44:47</time>
      </trkpt>
      <trkpt lat="28.56722" lon="-14.03655">
        <ele>57.2</ele>
        <time>2021-07-04 15:44:48</time>
      </trkpt>
      <trkpt lat="28.56722" lon="-14.03661">
        <ele>56.6</ele>
        <time>2021-07-04 15:44:49</time>
      </trkpt>
      <trkpt lat="28.56722" lon="-14.03667">
        <ele>56.2</ele>
        <time>2021-07-04 15:44:50</time>
      </trkpt>
      <trkpt lat="28.56723" lon="-14.03673">
        <ele>55.8</ele>
        <time>2021-07-04 15:44:51</time>
      </trkpt>
      <trkpt lat="28.56723" lon="-14.0368">
        <ele>55.6</ele>
        <time>2021-07-04 15:44:52</time>
      </trkpt>
      <trkpt lat="28.56723" lon="-14.03686">
        <ele>55.2</ele>
        <time>2021-07-04 15:44:53</time>
      </trkpt>
      <trkpt lat="28.56725" lon="-14.03693">
        <ele>54.4</ele>
        <time>2021-07-04 15:44:54</time>
      </trkpt>
      <trkpt lat="28.56726" lon="-14.037">
        <ele>53.8</ele>
        <time>2021-07-04 15:44:55</time>
      </trkpt>
      <trkpt lat="28.56726" lon="-14.03708">
        <ele>53.2</ele>
        <time>2021-07-04 15:44:56</time>
      </trkpt>
      <trkpt lat="28.56727" lon="-14.03715">
        <ele>52.8</ele>
        <time>2021-07-04 15:44:57</time>
      </trkpt>
      <trkpt lat="28.56727" lon="-14.03722">
        <ele>52.4</ele>
        <time>2021-07-04 15:44:58</time>
      </trkpt>
      <trkpt lat="28.56727" lon="-14.0373">
        <ele>52</ele>
        <time>2021-07-04 15:44:59</time>
      </trkpt>
      <trkpt lat="28.56727" lon="-14.03738">
        <ele>51.6</ele>
        <time>2021-07-04 15:45:00</time>
      </trkpt>
      <trkpt lat="28.56726" lon="-14.03746">
        <ele>51.2</ele>
        <time>2021-07-04 15:45:01</time>
      </trkpt>
      <trkpt lat="28.56726" lon="-14.03755">
        <ele>50.8</ele>
        <time>2021-07-04 15:45:02</time>
      </trkpt>
      <trkpt lat="28.56725" lon="-14.03764">
        <ele>50.2</ele>
        <time>2021-07-04 15:45:03</time>
      </trkpt>
      <trkpt lat="28.56724" lon="-14.03772">
        <ele>49.4</ele>
        <time>2021-07-04 15:45:04</time>
      </trkpt>
      <trkpt lat="28.56723" lon="-14.03781">
        <ele>48.8</ele>
        <time>2021-07-04 15:45:05</time>
      </trkpt>
      <trkpt lat="28.56722" lon="-14.0379">
        <ele>48.2</ele>
        <time>2021-07-04 15:45:06</time>
      </trkpt>
      <trkpt lat="28.56721" lon="-14.03799">
        <ele>47.6</ele>
        <time>2021-07-04 15:45:07</time>
      </trkpt>
      <trkpt lat="28.5672" lon="-14.03808">
        <ele>47</ele>
        <time>2021-07-04 15:45:08</time>
      </trkpt>
      <trkpt lat="28.56718" lon="-14.03817">
        <ele>46.6</ele>
        <time>2021-07-04 15:45:09</time>
      </trkpt>
      <trkpt lat="28.56717" lon="-14.03827">
        <ele>46</ele>
        <time>2021-07-04 15:45:10</time>
      </trkpt>
      <trkpt lat="28.56716" lon="-14.03836">
        <ele>45.6</ele>
        <time>2021-07-04 15:45:11</time>
      </trkpt>
      <trkpt lat="28.56714" lon="-14.03846">
        <ele>45</ele>
        <time>2021-07-04 15:45:12</time>
      </trkpt>
      <trkpt lat="28.56714" lon="-14.03855">
        <ele>44.6</ele>
        <time>2021-07-04 15:45:13</time>
      </trkpt>
      <trkpt lat="28.56713" lon="-14.03864">
        <ele>44.2</ele>
        <time>2021-07-04 15:45:14</time>
      </trkpt>
      <trkpt lat="28.56711" lon="-14.03873">
        <ele>43.8</ele>
        <time>2021-07-04 15:45:15</time>
      </trkpt>
      <trkpt lat="28.5671" lon="-14.03882">
        <ele>43.4</ele>
        <time>2021-07-04 15:45:16</time>
      </trkpt>
      <trkpt lat="28.5671" lon="-14.0389">
        <ele>43</ele>
        <time>2021-07-04 15:45:17</time>
      </trkpt>
      <trkpt lat="28.56709" lon="-14.03899">
        <ele>42.6</ele>
        <time>2021-07-04 15:45:18</time>
      </trkpt>
      <trkpt lat="28.56708" lon="-14.03908">
        <ele>42.4</ele>
        <time>2021-07-04 15:45:19</time>
      </trkpt>
      <trkpt lat="28.56706" lon="-14.03917">
        <ele>42</ele>
        <time>2021-07-04 15:45:20</time>
      </trkpt>
      <trkpt lat="28.56704" lon="-14.03925">
        <ele>41.6</ele>
        <time>2021-07-04 15:45:21</time>
      </trkpt>
      <trkpt lat="28.56702" lon="-14.03934">
        <ele>41.6</ele>
        <time>2021-07-04 15:45:22</time>
      </trkpt>
      <trkpt lat="28.56701" lon="-14.03943">
        <ele>41</ele>
        <time>2021-07-04 15:45:23</time>
      </trkpt>
      <trkpt lat="28.567" lon="-14.03952">
        <ele>40.4</ele>
        <time>2021-07-04 15:45:24</time>
      </trkpt>
      <trkpt lat="28.56699" lon="-14.0396">
        <ele>39.6</ele>
        <time>2021-07-04 15:45:25</time>
      </trkpt>
      <trkpt lat="28.56699" lon="-14.03969">
        <ele>39.2</ele>
        <time>2021-07-04 15:45:26</time>
      </trkpt>
      <trkpt lat="28.56698" lon="-14.03977">
        <ele>39</ele>
        <time>2021-07-04 15:45:27</time>
      </trkpt>
      <trkpt lat="28.56698" lon="-14.03985">
        <ele>38.6</ele>
        <time>2021-07-04 15:45:28</time>
      </trkpt>
      <trkpt lat="28.56698" lon="-14.03993">
        <ele>38</ele>
        <time>2021-07-04 15:45:29</time>
      </trkpt>
      <trkpt lat="28.56697" lon="-14.04001">
        <ele>37.4</ele>
        <time>2021-07-04 15:45:30</time>
      </trkpt>
      <trkpt lat="28.56697" lon="-14.04009">
        <ele>36.8</ele>
        <time>2021-07-04 15:45:31</time>
      </trkpt>
      <trkpt lat="28.56698" lon="-14.04016">
        <ele>36.6</ele>
        <time>2021-07-04 15:45:32</time>
      </trkpt>
      <trkpt lat="28.56697" lon="-14.04023">
        <ele>36.6</ele>
        <time>2021-07-04 15:45:33</time>
      </trkpt>
      <trkpt lat="28.56697" lon="-14.0403">
        <ele>36.4</ele>
        <time>2021-07-04 15:45:34</time>
      </trkpt>
      <trkpt lat="28.56697" lon="-14.04037">
        <ele>36.2</ele>
        <time>2021-07-04 15:45:35</time>
      </trkpt>
      <trkpt lat="28.56697" lon="-14.04045">
        <ele>36.2</ele>
        <time>2021-07-04 15:45:36</time>
      </trkpt>
      <trkpt lat="28.56697" lon="-14.04052">
        <ele>36.2</ele>
        <time>2021-07-04 15:45:37</time>
      </trkpt>
      <trkpt lat="28.56696" lon="-14.0406">
        <ele>35.8</ele>
        <time>2021-07-04 15:45:38</time>
      </trkpt>
      <trkpt lat="28.56695" lon="-14.04067">
        <ele>35.6</ele>
        <time>2021-07-04 15:45:39</time>
      </trkpt>
      <trkpt lat="28.56695" lon="-14.04074">
        <ele>35.4</ele>
        <time>2021-07-04 15:45:40</time>
      </trkpt>
      <trkpt lat="28.56694" lon="-14.04082">
        <ele>35</ele>
        <time>2021-07-04 15:45:41</time>
      </trkpt>
      <trkpt lat="28.56694" lon="-14.04089">
        <ele>34.8</ele>
        <time>2021-07-04 15:45:42</time>
      </trkpt>
      <trkpt lat="28.56694" lon="-14.04097">
        <ele>34.4</ele>
        <time>2021-07-04 15:46:02</time>
      </trkpt>
      <trkpt lat="28.56694" lon="-14.04105">
        <ele>34</ele>
        <time>2021-07-04 15:46:03</time>
      </trkpt>
      <trkpt lat="28.56694" lon="-14.04113">
        <ele>33.8</ele>
        <time>2021-07-04 15:46:04</time>
      </trkpt>
      <trkpt lat="28.56693" lon="-14.04121">
        <ele>33.8</ele>
        <time>2021-07-04 15:46:05</time>
      </trkpt>
      <trkpt lat="28.56692" lon="-14.04128">
        <ele>33.2</ele>
        <time>2021-07-04 15:46:06</time>
      </trkpt>
      <trkpt lat="28.56692" lon="-14.04136">
        <ele>32.8</ele>
        <time>2021-07-04 15:46:07</time>
      </trkpt>
      <trkpt lat="28.56691" lon="-14.04144">
        <ele>32.6</ele>
        <time>2021-07-04 15:46:08</time>
      </trkpt>
      <trkpt lat="28.56691" lon="-14.04151">
        <ele>32.4</ele>
        <time>2021-07-04 15:46:09</time>
      </trkpt>
      <trkpt lat="28.56691" lon="-14.04159">
        <ele>32.2</ele>
        <time>2021-07-04 15:46:10</time>
      </trkpt>
      <trkpt lat="28.5669" lon="-14.04166">
        <ele>32.2</ele>
        <time>2021-07-04 15:46:11</time>
      </trkpt>
      <trkpt lat="28.5669" lon="-14.04174">
        <ele>32.2</ele>
        <time>2021-07-04 15:46:12</time>
      </trkpt>
      <trkpt lat="28.5669" lon="-14.04181">
        <ele>32.2</ele>
        <time>2021-07-04 15:46:13</time>
      </trkpt>
      <trkpt lat="28.5669" lon="-14.04188">
        <ele>32.2</ele>
        <time>2021-07-04 15:46:14</time>
      </trkpt>
      <trkpt lat="28.56689" lon="-14.04196">
        <ele>32</ele>
        <time>2021-07-04 15:46:15</time>
      </trkpt>
      <trkpt lat="28.56689" lon="-14.04203">
        <ele>32</ele>
        <time>2021-07-04 15:46:16</time>
      </trkpt>
      <trkpt lat="28.56688" lon="-14.04211">
        <ele>32</ele>
        <time>2021-07-04 15:46:17</time>
      </trkpt>
      <trkpt lat="28.56687" lon="-14.04218">
        <ele>32</ele>
        <time>2021-07-04 15:46:18</time>
      </trkpt>
      <trkpt lat="28.56686" lon="-14.04225">
        <ele>31.6</ele>
        <time>2021-07-04 15:46:19</time>
      </trkpt>
      <trkpt lat="28.56686" lon="-14.04233">
        <ele>31.2</ele>
        <time>2021-07-04 15:46:20</time>
      </trkpt>
      <trkpt lat="28.56685" lon="-14.0424">
        <ele>31</ele>
        <time>2021-07-04 15:46:21</time>
      </trkpt>
      <trkpt lat="28.56684" lon="-14.04247">
        <ele>30.8</ele>
        <time>2021-07-04 15:46:22</time>
      </trkpt>
      <trkpt lat="28.56684" lon="-14.04254">
        <ele>30.6</ele>
        <time>2021-07-04 15:46:23</time>
      </trkpt>
      <trkpt lat="28.56684" lon="-14.04261">
        <ele>30.6</ele>
        <time>2021-07-04 15:46:24</time>
      </trkpt>
      <trkpt lat="28.56684" lon="-14.04268">
        <ele>30.4</ele>
        <time>2021-07-04 15:46:25</time>
      </trkpt>
      <trkpt lat="28.56684" lon="-14.04275">
        <ele>30.4</ele>
        <time>2021-07-04 15:46:26</time>
      </trkpt>
      <trkpt lat="28.56684" lon="-14.04282">
        <ele>30.4</ele>
        <time>2021-07-04 15:46:27</time>
      </trkpt>
      <trkpt lat="28.56684" lon="-14.04288">
        <ele>30.2</ele>
        <time>2021-07-04 15:46:28</time>
      </trkpt>
      <trkpt lat="28.56684" lon="-14.04295">
        <ele>30.2</ele>
        <time>2021-07-04 15:46:29</time>
      </trkpt>
      <trkpt lat="28.56684" lon="-14.04302">
        <ele>30.2</ele>
        <time>2021-07-04 15:46:30</time>
      </trkpt>
      <trkpt lat="28.56684" lon="-14.04309">
        <ele>29.6</ele>
        <time>2021-07-04 15:46:31</time>
      </trkpt>
      <trkpt lat="28.56685" lon="-14.04315">
        <ele>29.4</ele>
        <time>2021-07-04 15:46:32</time>
      </trkpt>
      <trkpt lat="28.56685" lon="-14.04321">
        <ele>29</ele>
        <time>2021-07-04 15:46:33</time>
      </trkpt>
      <trkpt lat="28.56686" lon="-14.04327">
        <ele>28.8</ele>
        <time>2021-07-04 15:46:34</time>
      </trkpt>
      <trkpt lat="28.56687" lon="-14.04333">
        <ele>28.8</ele>
        <time>2021-07-04 15:46:35</time>
      </trkpt>
      <trkpt lat="28.56687" lon="-14.04339">
        <ele>28.8</ele>
        <time>2021-07-04 15:46:36</time>
      </trkpt>
      <trkpt lat="28.56687" lon="-14.04345">
        <ele>28.8</ele>
        <time>2021-07-04 15:46:37</time>
      </trkpt>
      <trkpt lat="28.56687" lon="-14.04351">
        <ele>28</ele>
        <time>2021-07-04 15:46:38</time>
      </trkpt>
      <trkpt lat="28.56687" lon="-14.04357">
        <ele>28</ele>
        <time>2021-07-04 15:46:39</time>
      </trkpt>
      <trkpt lat="28.56688" lon="-14.04363">
        <ele>28</ele>
        <time>2021-07-04 15:46:40</time>
      </trkpt>
      <trkpt lat="28.56688" lon="-14.04368">
        <ele>26.6</ele>
        <time>2021-07-04 15:46:41</time>
      </trkpt>
      <trkpt lat="28.56688" lon="-14.04374">
        <ele>27</ele>
        <time>2021-07-04 15:46:42</time>
      </trkpt>
      <trkpt lat="28.56688" lon="-14.04379">
        <ele>27</ele>
        <time>2021-07-04 15:46:43</time>
      </trkpt>
      <trkpt lat="28.56689" lon="-14.04383">
        <ele>27</ele>
        <time>2021-07-04 15:46:44</time>
      </trkpt>
      <trkpt lat="28.56689" lon="-14.04389">
        <ele>27.2</ele>
        <time>2021-07-04 15:46:45</time>
      </trkpt>
      <trkpt lat="28.5669" lon="-14.04394">
        <ele>27.2</ele>
        <time>2021-07-04 15:46:46</time>
      </trkpt>
      <trkpt lat="28.5669" lon="-14.04399">
        <ele>27.4</ele>
        <time>2021-07-04 15:46:47</time>
      </trkpt>
      <trkpt lat="28.5669" lon="-14.04405">
        <ele>27.4</ele>
        <time>2021-07-04 15:46:48</time>
      </trkpt>
      <trkpt lat="28.56691" lon="-14.0441">
        <ele>27.4</ele>
        <time>2021-07-04 15:46:49</time>
      </trkpt>
      <trkpt lat="28.56692" lon="-14.04416">
        <ele>27.4</ele>
        <time>2021-07-04 15:46:50</time>
      </trkpt>
      <trkpt lat="28.56692" lon="-14.04422">
        <ele>27.4</ele>
        <time>2021-07-04 15:46:51</time>
      </trkpt>
      <trkpt lat="28.56692" lon="-14.04428">
        <ele>27.4</ele>
        <time>2021-07-04 15:46:52</time>
      </trkpt>
      <trkpt lat="28.56693" lon="-14.04433">
        <ele>27.4</ele>
        <time>2021-07-04 15:46:53</time>
      </trkpt>
      <trkpt lat="28.56694" lon="-14.04439">
        <ele>27.4</ele>
        <time>2021-07-04 15:46:54</time>
      </trkpt>
      <trkpt lat="28.56695" lon="-14.04445">
        <ele>27.4</ele>
        <time>2021-07-04 15:46:55</time>
      </trkpt>
      <trkpt lat="28.56695" lon="-14.04451">
        <ele>27.2</ele>
        <time>2021-07-04 15:46:56</time>
      </trkpt>
      <trkpt lat="28.56696" lon="-14.04458">
        <ele>26.8</ele>
        <time>2021-07-04 15:46:57</time>
      </trkpt>
      <trkpt lat="28.56698" lon="-14.04465">
        <ele>26.6</ele>
        <time>2021-07-04 15:46:58</time>
      </trkpt>
      <trkpt lat="28.56699" lon="-14.04471">
        <ele>26.4</ele>
        <time>2021-07-04 15:46:59</time>
      </trkpt>
      <trkpt lat="28.56699" lon="-14.04477">
        <ele>26.2</ele>
        <time>2021-07-04 15:47:00</time>
      </trkpt>
      <trkpt lat="28.56701" lon="-14.04483">
        <ele>25.8</ele>
        <time>2021-07-04 15:47:01</time>
      </trkpt>
      <trkpt lat="28.56702" lon="-14.0449">
        <ele>25.4</ele>
        <time>2021-07-04 15:47:02</time>
      </trkpt>
      <trkpt lat="28.56703" lon="-14.04496">
        <ele>25</ele>
        <time>2021-07-04 15:47:03</time>
      </trkpt>
      <trkpt lat="28.56706" lon="-14.04502">
        <ele>24.8</ele>
        <time>2021-07-04 15:47:04</time>
      </trkpt>
      <trkpt lat="28.56708" lon="-14.04508">
        <ele>24.4</ele>
        <time>2021-07-04 15:47:05</time>
      </trkpt>
      <trkpt lat="28.5671" lon="-14.04513">
        <ele>24.4</ele>
        <time>2021-07-04 15:47:06</time>
      </trkpt>
      <trkpt lat="28.56712" lon="-14.0452">
        <ele>24</ele>
        <time>2021-07-04 15:47:07</time>
      </trkpt>
      <trkpt lat="28.56714" lon="-14.04525">
        <ele>23.8</ele>
        <time>2021-07-04 15:47:08</time>
      </trkpt>
      <trkpt lat="28.56717" lon="-14.04531">
        <ele>23.4</ele>
        <time>2021-07-04 15:47:09</time>
      </trkpt>
      <trkpt lat="28.56719" lon="-14.04536">
        <ele>23.2</ele>
        <time>2021-07-04 15:47:10</time>
      </trkpt>
      <trkpt lat="28.56721" lon="-14.04541">
        <ele>22.8</ele>
        <time>2021-07-04 15:47:11</time>
      </trkpt>
      <trkpt lat="28.56724" lon="-14.04547">
        <ele>22.6</ele>
        <time>2021-07-04 15:47:12</time>
      </trkpt>
      <trkpt lat="28.56725" lon="-14.04552">
        <ele>22.2</ele>
        <time>2021-07-04 15:47:13</time>
      </trkpt>
      <trkpt lat="28.56728" lon="-14.04558">
        <ele>22.2</ele>
        <time>2021-07-04 15:47:14</time>
      </trkpt>
      <trkpt lat="28.5673" lon="-14.04563">
        <ele>22</ele>
        <time>2021-07-04 15:47:15</time>
      </trkpt>
      <trkpt lat="28.56733" lon="-14.04569">
        <ele>22</ele>
        <time>2021-07-04 15:47:16</time>
      </trkpt>
      <trkpt lat="28.56735" lon="-14.04574">
        <ele>21.8</ele>
        <time>2021-07-04 15:47:17</time>
      </trkpt>
      <trkpt lat="28.56737" lon="-14.0458">
        <ele>21.8</ele>
        <time>2021-07-04 15:47:18</time>
      </trkpt>
      <trkpt lat="28.5674" lon="-14.04585">
        <ele>21.4</ele>
        <time>2021-07-04 15:47:19</time>
      </trkpt>
      <trkpt lat="28.56742" lon="-14.04592">
        <ele>21</ele>
        <time>2021-07-04 15:47:20</time>
      </trkpt>
      <trkpt lat="28.56744" lon="-14.04597">
        <ele>21</ele>
        <time>2021-07-04 15:47:21</time>
      </trkpt>
      <trkpt lat="28.56747" lon="-14.04603">
        <ele>20.8</ele>
        <time>2021-07-04 15:47:22</time>
      </trkpt>
      <trkpt lat="28.5675" lon="-14.04609">
        <ele>20.6</ele>
        <time>2021-07-04 15:47:23</time>
      </trkpt>
      <trkpt lat="28.56752" lon="-14.04614">
        <ele>20.4</ele>
        <time>2021-07-04 15:47:24</time>
      </trkpt>
      <trkpt lat="28.56754" lon="-14.0462">
        <ele>20</ele>
        <time>2021-07-04 15:47:25</time>
      </trkpt>
      <trkpt lat="28.56756" lon="-14.04625">
        <ele>19.8</ele>
        <time>2021-07-04 15:47:26</time>
      </trkpt>
      <trkpt lat="28.56759" lon="-14.0463">
        <ele>19.8</ele>
        <time>2021-07-04 15:47:27</time>
      </trkpt>
      <trkpt lat="28.56761" lon="-14.04636">
        <ele>19.4</ele>
        <time>2021-07-04 15:47:28</time>
      </trkpt>
      <trkpt lat="28.56763" lon="-14.04641">
        <ele>18.8</ele>
        <time>2021-07-04 15:47:29</time>
      </trkpt>
      <trkpt lat="28.56766" lon="-14.04646">
        <ele>18.8</ele>
        <time>2021-07-04 15:47:30</time>
      </trkpt>
      <trkpt lat="28.56768" lon="-14.04651">
        <ele>18.4</ele>
        <time>2021-07-04 15:47:31</time>
      </trkpt>
      <trkpt lat="28.56771" lon="-14.04656">
        <ele>18.2</ele>
        <time>2021-07-04 15:47:32</time>
      </trkpt>
      <trkpt lat="28.56773" lon="-14.0466">
        <ele>18</ele>
        <time>2021-07-04 15:47:33</time>
      </trkpt>
      <trkpt lat="28.56776" lon="-14.04665">
        <ele>18</ele>
        <time>2021-07-04 15:47:34</time>
      </trkpt>
      <trkpt lat="28.56779" lon="-14.04669">
        <ele>17.4</ele>
        <time>2021-07-04 15:47:35</time>
      </trkpt>
      <trkpt lat="28.56781" lon="-14.04673">
        <ele>17.4</ele>
        <time>2021-07-04 15:47:36</time>
      </trkpt>
      <trkpt lat="28.56784" lon="-14.04677">
        <ele>17.2</ele>
        <time>2021-07-04 15:47:37</time>
      </trkpt>
      <trkpt lat="28.56787" lon="-14.0468">
        <ele>17.2</ele>
        <time>2021-07-04 15:47:38</time>
      </trkpt>
      <trkpt lat="28.56789" lon="-14.04683">
        <ele>17.2</ele>
        <time>2021-07-04 15:47:39</time>
      </trkpt>
      <trkpt lat="28.56791" lon="-14.04686">
        <ele>17.2</ele>
        <time>2021-07-04 15:47:40</time>
      </trkpt>
      <trkpt lat="28.56795" lon="-14.0469">
        <ele>17.2</ele>
        <time>2021-07-04 15:47:41</time>
      </trkpt>
      <trkpt lat="28.56797" lon="-14.04693">
        <ele>16.8</ele>
        <time>2021-07-04 15:47:42</time>
      </trkpt>
      <trkpt lat="28.56801" lon="-14.04696">
        <ele>16.8</ele>
        <time>2021-07-04 15:47:43</time>
      </trkpt>
      <trkpt lat="28.56803" lon="-14.04699">
        <ele>16.8</ele>
        <time>2021-07-04 15:47:44</time>
      </trkpt>
      <trkpt lat="28.56806" lon="-14.04702">
        <ele>16.4</ele>
        <time>2021-07-04 15:47:45</time>
      </trkpt>
      <trkpt lat="28.56809" lon="-14.04704">
        <ele>16.4</ele>
        <time>2021-07-04 15:47:46</time>
      </trkpt>
      <trkpt lat="28.56811" lon="-14.04708">
        <ele>16.4</ele>
        <time>2021-07-04 15:47:47</time>
      </trkpt>
      <trkpt lat="28.56814" lon="-14.04712">
        <ele>16.2</ele>
        <time>2021-07-04 15:47:48</time>
      </trkpt>
      <trkpt lat="28.56817" lon="-14.04715">
        <ele>16</ele>
        <time>2021-07-04 15:47:49</time>
      </trkpt>
      <trkpt lat="28.5682" lon="-14.04718">
        <ele>15.8</ele>
        <time>2021-07-04 15:47:50</time>
      </trkpt>
      <trkpt lat="28.56823" lon="-14.04721">
        <ele>15.4</ele>
        <time>2021-07-04 15:47:51</time>
      </trkpt>
      <trkpt lat="28.56826" lon="-14.04724">
        <ele>15.2</ele>
        <time>2021-07-04 15:47:52</time>
      </trkpt>
      <trkpt lat="28.56829" lon="-14.04727">
        <ele>14.8</ele>
        <time>2021-07-04 15:47:53</time>
      </trkpt>
      <trkpt lat="28.56831" lon="-14.0473">
        <ele>14.6</ele>
        <time>2021-07-04 15:47:54</time>
      </trkpt>
      <trkpt lat="28.56834" lon="-14.04733">
        <ele>14.4</ele>
        <time>2021-07-04 15:47:55</time>
      </trkpt>
      <trkpt lat="28.56836" lon="-14.04736">
        <ele>14.4</ele>
        <time>2021-07-04 15:47:56</time>
      </trkpt>
      <trkpt lat="28.56837" lon="-14.04739">
        <ele>14.4</ele>
        <time>2021-07-04 15:47:57</time>
      </trkpt>
      <trkpt lat="28.56837" lon="-14.04743">
        <ele>14.6</ele>
        <time>2021-07-04 15:47:58</time>
      </trkpt>
      <trkpt lat="28.56836" lon="-14.04746">
        <ele>15</ele>
        <time>2021-07-04 15:47:59</time>
      </trkpt>
      <trkpt lat="28.56834" lon="-14.04748">
        <ele>15.2</ele>
        <time>2021-07-04 15:48:00</time>
      </trkpt>
      <trkpt lat="28.56832" lon="-14.04749">
        <ele>15.4</ele>
        <time>2021-07-04 15:48:01</time>
      </trkpt>
      <trkpt lat="28.56829" lon="-14.0475">
        <ele>15.4</ele>
        <time>2021-07-04 15:48:02</time>
      </trkpt>
      <trkpt lat="28.56827" lon="-14.04752">
        <ele>15.4</ele>
        <time>2021-07-04 15:48:03</time>
      </trkpt>
      <trkpt lat="28.56824" lon="-14.04753">
        <ele>15.4</ele>
        <time>2021-07-04 15:48:04</time>
      </trkpt>
      <trkpt lat="28.56822" lon="-14.04755">
        <ele>15.4</ele>
        <time>2021-07-04 15:48:05</time>
      </trkpt>
      <trkpt lat="28.5682" lon="-14.04756">
        <ele>15.4</ele>
        <time>2021-07-04 15:48:06</time>
      </trkpt>
      <trkpt lat="28.56818" lon="-14.04758">
        <ele>14.6</ele>
        <time>2021-07-04 15:48:07</time>
      </trkpt>
      <trkpt lat="28.56817" lon="-14.0476">
        <ele>14</ele>
        <time>2021-07-04 15:48:08</time>
      </trkpt>
      <trkpt lat="28.56815" lon="-14.04762">
        <ele>14.6</ele>
        <time>2021-07-04 15:48:09</time>
      </trkpt>
      <trkpt lat="28.56814" lon="-14.04765">
        <ele>15</ele>
        <time>2021-07-04 15:48:10</time>
      </trkpt>
      <trkpt lat="28.56813" lon="-14.04767">
        <ele>15.4</ele>
        <time>2021-07-04 15:48:11</time>
      </trkpt>
      <trkpt lat="28.56812" lon="-14.0477">
        <ele>15.6</ele>
        <time>2021-07-04 15:48:12</time>
      </trkpt>
      <trkpt lat="28.56811" lon="-14.04772">
        <ele>15.6</ele>
        <time>2021-07-04 15:48:13</time>
      </trkpt>
      <trkpt lat="28.56811" lon="-14.04775">
        <ele>15.6</ele>
        <time>2021-07-04 15:48:14</time>
      </trkpt>
      <trkpt lat="28.56812" lon="-14.04778">
        <ele>15.6</ele>
        <time>2021-07-04 15:48:15</time>
      </trkpt>
      <trkpt lat="28.56812" lon="-14.04781">
        <ele>15.4</ele>
        <time>2021-07-04 15:48:16</time>
      </trkpt>
      <trkpt lat="28.56814" lon="-14.04784">
        <ele>15</ele>
        <time>2021-07-04 15:48:17</time>
      </trkpt>
      <trkpt lat="28.56816" lon="-14.04788">
        <ele>14.6</ele>
        <time>2021-07-04 15:48:18</time>
      </trkpt>
      <trkpt lat="28.56818" lon="-14.04791">
        <ele>13.8</ele>
        <time>2021-07-04 15:48:19</time>
      </trkpt>
      <trkpt lat="28.56822" lon="-14.04793">
        <ele>13.2</ele>
        <time>2021-07-04 15:48:20</time>
      </trkpt>
      <trkpt lat="28.56826" lon="-14.04796">
        <ele>12.6</ele>
        <time>2021-07-04 15:48:21</time>
      </trkpt>
      <trkpt lat="28.5683" lon="-14.04799">
        <ele>12.2</ele>
        <time>2021-07-04 15:48:22</time>
      </trkpt>
      <trkpt lat="28.56833" lon="-14.04802">
        <ele>11.8</ele>
        <time>2021-07-04 15:48:23</time>
      </trkpt>
      <trkpt lat="28.56838" lon="-14.04806">
        <ele>11.4</ele>
        <time>2021-07-04 15:48:24</time>
      </trkpt>
      <trkpt lat="28.56841" lon="-14.04809">
        <ele>10.8</ele>
        <time>2021-07-04 15:48:25</time>
      </trkpt>
      <trkpt lat="28.56845" lon="-14.04812">
        <ele>10.6</ele>
        <time>2021-07-04 15:48:26</time>
      </trkpt>
      <trkpt lat="28.56847" lon="-14.04816">
        <ele>10.2</ele>
        <time>2021-07-04 15:48:27</time>
      </trkpt>
      <trkpt lat="28.56847" lon="-14.0482">
        <ele>9.8</ele>
        <time>2021-07-04 15:48:28</time>
      </trkpt>
      <trkpt lat="28.56847" lon="-14.04824">
        <ele>9.6</ele>
        <time>2021-07-04 15:48:29</time>
      </trkpt>
      <trkpt lat="28.56846" lon="-14.04828">
        <ele>9.6</ele>
        <time>2021-07-04 15:48:30</time>
      </trkpt>
      <trkpt lat="28.56843" lon="-14.04832">
        <ele>9.2</ele>
        <time>2021-07-04 15:48:31</time>
      </trkpt>
      <trkpt lat="28.5684" lon="-14.04835">
        <ele>8.8</ele>
        <time>2021-07-04 15:48:32</time>
      </trkpt>
      <trkpt lat="28.56835" lon="-14.04837">
        <ele>8.8</ele>
        <time>2021-07-04 15:48:33</time>
      </trkpt>
      <trkpt lat="28.5683" lon="-14.04839">
        <ele>8.4</ele>
        <time>2021-07-04 15:48:34</time>
      </trkpt>
      <trkpt lat="28.56825" lon="-14.04841">
        <ele>8</ele>
        <time>2021-07-04 15:48:35</time>
      </trkpt>
      <trkpt lat="28.56818" lon="-14.04844">
        <ele>7.6</ele>
        <time>2021-07-04 15:48:36</time>
      </trkpt>
      <trkpt lat="28.56812" lon="-14.04847">
        <ele>6.8</ele>
        <time>2021-07-04 15:48:37</time>
      </trkpt>
      <trkpt lat="28.56805" lon="-14.04851">
        <ele>6.4</ele>
        <time>2021-07-04 15:48:38</time>
      </trkpt>
      <trkpt lat="28.56798" lon="-14.04854">
        <ele>5.8</ele>
        <time>2021-07-04 15:48:39</time>
      </trkpt>
      <trkpt lat="28.56791" lon="-14.04855">
        <ele>5.4</ele>
        <time>2021-07-04 15:48:40</time>
      </trkpt>
      <trkpt lat="28.56784" lon="-14.04854">
        <ele>5</ele>
        <time>2021-07-04 15:48:41</time>
      </trkpt>
      <trkpt lat="28.56778" lon="-14.04853">
        <ele>4.6</ele>
        <time>2021-07-04 15:48:42</time>
      </trkpt>
      <trkpt lat="28.56771" lon="-14.04852">
        <ele>4.4</ele>
        <time>2021-07-04 15:48:43</time>
      </trkpt>
      <trkpt lat="28.56766" lon="-14.04851">
        <ele>4.4</ele>
        <time>2021-07-04 15:48:44</time>
      </trkpt>
      <trkpt lat="28.56761" lon="-14.0485">
        <ele>4.4</ele>
        <time>2021-07-04 15:48:45</time>
      </trkpt>
      <trkpt lat="28.56756" lon="-14.0485">
        <ele>4.4</ele>
        <time>2021-07-04 15:48:46</time>
      </trkpt>
      <trkpt lat="28.56753" lon="-14.0485">
        <ele>4.4</ele>
        <time>2021-07-04 15:48:47</time>
      </trkpt>
      <trkpt lat="28.56749" lon="-14.04849">
        <ele>4.4</ele>
        <time>2021-07-04 15:48:48</time>
      </trkpt>
      <trkpt lat="28.56747" lon="-14.04849">
        <ele>4.6</ele>
        <time>2021-07-04 15:48:49</time>
      </trkpt>
      <trkpt lat="28.56745" lon="-14.04849">
        <ele>4.6</ele>
        <time>2021-07-04 15:48:50</time>
      </trkpt>
      <trkpt lat="28.56743" lon="-14.0485">
        <ele>5</ele>
        <time>2021-07-04 15:48:51</time>
      </trkpt>
      <trkpt lat="28.56741" lon="-14.0485">
        <ele>5</ele>
        <time>2021-07-04 15:48:52</time>
      </trkpt>
      <trkpt lat="28.56739" lon="-14.04852">
        <ele>5.4</ele>
        <time>2021-07-04 15:48:53</time>
      </trkpt>
      <trkpt lat="28.56736" lon="-14.04853">
        <ele>5.6</ele>
        <time>2021-07-04 15:48:54</time>
      </trkpt>
      <trkpt lat="28.56735" lon="-14.04854">
        <ele>6</ele>
        <time>2021-07-04 15:48:55</time>
      </trkpt>
      <trkpt lat="28.56733" lon="-14.04855">
        <ele>6.4</ele>
        <time>2021-07-04 15:48:56</time>
      </trkpt>
      <trkpt lat="28.56731" lon="-14.04856">
        <ele>6.6</ele>
        <time>2021-07-04 15:48:57</time>
      </trkpt>
      <trkpt lat="28.5673" lon="-14.04857">
        <ele>7</ele>
        <time>2021-07-04 15:48:58</time>
      </trkpt>
      <trkpt lat="28.56728" lon="-14.04858">
        <ele>7.2</ele>
        <time>2021-07-04 15:48:59</time>
      </trkpt>
      <trkpt lat="28.56727" lon="-14.04859">
        <ele>7.6</ele>
        <time>2021-07-04 15:49:00</time>
      </trkpt>
      <trkpt lat="28.56725" lon="-14.04861">
        <ele>7.6</ele>
        <time>2021-07-04 15:49:01</time>
      </trkpt>
      <trkpt lat="28.56724" lon="-14.04862">
        <ele>8</ele>
        <time>2021-07-04 15:49:02</time>
      </trkpt>
      <trkpt lat="28.56722" lon="-14.04863">
        <ele>8.2</ele>
        <time>2021-07-04 15:49:03</time>
      </trkpt>
      <trkpt lat="28.5672" lon="-14.04864">
        <ele>8.4</ele>
        <time>2021-07-04 15:49:04</time>
      </trkpt>
      <trkpt lat="28.56718" lon="-14.04866">
        <ele>8.8</ele>
        <time>2021-07-04 15:49:05</time>
      </trkpt>
      <trkpt lat="28.56717" lon="-14.04867">
        <ele>8.8</ele>
        <time>2021-07-04 15:49:06</time>
      </trkpt>
      <trkpt lat="28.56716" lon="-14.04869">
        <ele>9</ele>
        <time>2021-07-04 15:49:07</time>
      </trkpt>
      <trkpt lat="28.56715" lon="-14.04872">
        <ele>9</ele>
        <time>2021-07-04 15:49:08</time>
      </trkpt>
      <trkpt lat="28.56715" lon="-14.04874">
        <ele>9.4</ele>
        <time>2021-07-04 15:49:09</time>
      </trkpt>
      <trkpt lat="28.56715" lon="-14.04876">
        <ele>9.4</ele>
        <time>2021-07-04 15:49:10</time>
      </trkpt>
      <trkpt lat="28.56715" lon="-14.04878">
        <ele>9.4</ele>
        <time>2021-07-04 15:49:11</time>
      </trkpt>
      <trkpt lat="28.56715" lon="-14.04879">
        <ele>9.6</ele>
        <time>2021-07-04 15:49:12</time>
      </trkpt>
      <trkpt lat="28.56717" lon="-14.0488">
        <ele>9.6</ele>
        <time>2021-07-04 15:49:13</time>
      </trkpt>
      <trkpt lat="28.56718" lon="-14.0488">
        <ele>9.6</ele>
        <time>2021-07-04 15:49:14</time>
      </trkpt>
      <trkpt lat="28.56719" lon="-14.04881">
        <ele>9.6</ele>
        <time>2021-07-04 15:49:15</time>
      </trkpt>
      <trkpt lat="28.5672" lon="-14.04882">
        <ele>10</ele>
        <time>2021-07-04 15:49:16</time>
      </trkpt>
      <trkpt lat="28.5672" lon="-14.04882">
        <ele>10.2</ele>
        <time>2021-07-04 15:49:17</time>
      </trkpt>
      <trkpt lat="28.5672" lon="-14.04882">
        <ele>10.2</ele>
        <time>2021-07-04 15:49:18</time>
      </trkpt>
      <trkpt lat="28.5672" lon="-14.04884">
        <ele>10.4</ele>
        <time>2021-07-04 15:49:19</time>
      </trkpt>
      <trkpt lat="28.56721" lon="-14.04885">
        <ele>10.4</ele>
        <time>2021-07-04 15:49:20</time>
      </trkpt>
      <trkpt lat="28.56721" lon="-14.04886">
        <ele>10.4</ele>
        <time>2021-07-04 15:49:21</time>
      </trkpt>
      <trkpt lat="28.56721" lon="-14.04887">
        <ele>10.4</ele>
        <time>2021-07-04 15:49:22</time>
      </trkpt>
      <trkpt lat="28.56721" lon="-14.04888">
        <ele>10.4</ele>
        <time>2021-07-04 15:49:23</time>
      </trkpt>
      <trkpt lat="28.56722" lon="-14.04889">
        <ele>10.4</ele>
        <time>2021-07-04 15:49:24</time>
      </trkpt>
      <trkpt lat="28.56722" lon="-14.04889">
        <ele>10.4</ele>
        <time>2021-07-04 15:49:25</time>
      </trkpt>
      <trkpt lat="28.56723" lon="-14.0489">
        <ele>10.4</ele>
        <time>2021-07-04 15:49:26</time>
      </trkpt>
      <trkpt lat="28.56724" lon="-14.04891">
        <ele>10.2</ele>
        <time>2021-07-04 15:49:27</time>
      </trkpt>
      <trkpt lat="28.56725" lon="-14.04892">
        <ele>10.2</ele>
        <time>2021-07-04 15:49:28</time>
      </trkpt>
      <trkpt lat="28.56725" lon="-14.04892">
        <ele>10.4</ele>
        <time>2021-07-04 15:49:29</time>
      </trkpt>
      <trkpt lat="28.56726" lon="-14.04893">
        <ele>10.6</ele>
        <time>2021-07-04 15:49:30</time>
      </trkpt>
      <trkpt lat="28.56727" lon="-14.04893">
        <ele>10.6</ele>
        <time>2021-07-04 15:49:31</time>
      </trkpt>
      <trkpt lat="28.56727" lon="-14.04894">
        <ele>11</ele>
        <time>2021-07-04 15:49:32</time>
      </trkpt>
      <trkpt lat="28.56728" lon="-14.04895">
        <ele>11.2</ele>
        <time>2021-07-04 15:49:33</time>
      </trkpt>
      <trkpt lat="28.56729" lon="-14.04896">
        <ele>11.2</ele>
        <time>2021-07-04 15:49:34</time>
      </trkpt>
      <trkpt lat="28.56729" lon="-14.04896">
        <ele>11.6</ele>
        <time>2021-07-04 15:49:35</time>
      </trkpt>
      <trkpt lat="28.5673" lon="-14.04896">
        <ele>11.6</ele>
        <time>2021-07-04 15:49:36</time>
      </trkpt>
      <trkpt lat="28.5673" lon="-14.04897">
        <ele>11.8</ele>
        <time>2021-07-04 15:49:37</time>
      </trkpt>
      <trkpt lat="28.56731" lon="-14.04897">
        <ele>11.8</ele>
        <time>2021-07-04 15:49:38</time>
      </trkpt>
      <trkpt lat="28.56731" lon="-14.04897">
        <ele>12</ele>
        <time>2021-07-04 15:49:39</time>
      </trkpt>
      <trkpt lat="28.56732" lon="-14.04897">
        <ele>12</ele>
        <time>2021-07-04 15:49:40</time>
      </trkpt>
      <trkpt lat="28.56733" lon="-14.04898">
        <ele>12.2</ele>
        <time>2021-07-04 15:49:41</time>
      </trkpt>
      <trkpt lat="28.56734" lon="-14.04898">
        <ele>12.2</ele>
        <time>2021-07-04 15:49:42</time>
      </trkpt>
      <trkpt lat="28.56734" lon="-14.04899">
        <ele>12.6</ele>
        <time>2021-07-04 15:49:43</time>
      </trkpt>
      <trkpt lat="28.56735" lon="-14.04899">
        <ele>12.6</ele>
        <time>2021-07-04 15:49:44</time>
      </trkpt>
      <trkpt lat="28.56735" lon="-14.049">
        <ele>12.8</ele>
        <time>2021-07-04 15:49:45</time>
      </trkpt>
      <trkpt lat="28.56736" lon="-14.04901">
        <ele>13</ele>
        <time>2021-07-04 15:49:46</time>
      </trkpt>
      <trkpt lat="28.56736" lon="-14.04901">
        <ele>13</ele>
        <time>2021-07-04 15:49:47</time>
      </trkpt>
      <trkpt lat="28.56737" lon="-14.04902">
        <ele>13</ele>
        <time>2021-07-04 15:49:48</time>
      </trkpt>
      <trkpt lat="28.56738" lon="-14.04902">
        <ele>13.2</ele>
        <time>2021-07-04 15:49:49</time>
      </trkpt>
      <trkpt lat="28.56739" lon="-14.04903">
        <ele>13.2</ele>
        <time>2021-07-04 15:49:50</time>
      </trkpt>
      <trkpt lat="28.56739" lon="-14.04904">
        <ele>13.6</ele>
        <time>2021-07-04 15:49:51</time>
      </trkpt>
      <trkpt lat="28.5674" lon="-14.04904">
        <ele>13.6</ele>
        <time>2021-07-04 15:49:52</time>
      </trkpt>
      <trkpt lat="28.5674" lon="-14.04905">
        <ele>13.8</ele>
        <time>2021-07-04 15:49:53</time>
      </trkpt>
      <trkpt lat="28.56741" lon="-14.04905">
        <ele>14</ele>
        <time>2021-07-04 15:49:54</time>
      </trkpt>
      <trkpt lat="28.56741" lon="-14.04906">
        <ele>14</ele>
        <time>2021-07-04 15:49:55</time>
      </trkpt>
      <trkpt lat="28.56742" lon="-14.04907">
        <ele>14.6</ele>
        <time>2021-07-04 15:49:56</time>
      </trkpt>
      <trkpt lat="28.56743" lon="-14.04908">
        <ele>14.8</ele>
        <time>2021-07-04 15:49:57</time>
      </trkpt>
      <trkpt lat="28.56744" lon="-14.04909">
        <ele>14.8</ele>
        <time>2021-07-04 15:49:58</time>
      </trkpt>
      <trkpt lat="28.56744" lon="-14.0491">
        <ele>14.8</ele>
        <time>2021-07-04 15:49:59</time>
      </trkpt>
      <trkpt lat="28.56745" lon="-14.0491">
        <ele>15.2</ele>
        <time>2021-07-04 15:50:00</time>
      </trkpt>
      <trkpt lat="28.56745" lon="-14.04911">
        <ele>15.2</ele>
        <time>2021-07-04 15:50:01</time>
      </trkpt>
      <trkpt lat="28.56746" lon="-14.04911">
        <ele>15.4</ele>
        <time>2021-07-04 15:50:02</time>
      </trkpt>
      <trkpt lat="28.56747" lon="-14.04912">
        <ele>15.4</ele>
        <time>2021-07-04 15:50:03</time>
      </trkpt>
      <trkpt lat="28.56747" lon="-14.04913">
        <ele>15.4</ele>
        <time>2021-07-04 15:50:04</time>
      </trkpt>
      <trkpt lat="28.56748" lon="-14.04914">
        <ele>15.6</ele>
        <time>2021-07-04 15:50:05</time>
      </trkpt>
      <trkpt lat="28.56749" lon="-14.04915">
        <ele>15.6</ele>
        <time>2021-07-04 15:50:06</time>
      </trkpt>
      <trkpt lat="28.5675" lon="-14.04916">
        <ele>15.6</ele>
        <time>2021-07-04 15:50:07</time>
      </trkpt>
      <trkpt lat="28.56751" lon="-14.04917">
        <ele>16</ele>
        <time>2021-07-04 15:50:08</time>
      </trkpt>
      <trkpt lat="28.56752" lon="-14.04917">
        <ele>16</ele>
        <time>2021-07-04 15:50:09</time>
      </trkpt>
      <trkpt lat="28.56752" lon="-14.04918">
        <ele>16</ele>
        <time>2021-07-04 15:50:10</time>
      </trkpt>
      <trkpt lat="28.56753" lon="-14.04919">
        <ele>16.2</ele>
        <time>2021-07-04 15:50:11</time>
      </trkpt>
      <trkpt lat="28.56754" lon="-14.04921">
        <ele>16.2</ele>
        <time>2021-07-04 15:50:12</time>
      </trkpt>
      <trkpt lat="28.56754" lon="-14.04922">
        <ele>16.2</ele>
        <time>2021-07-04 15:50:13</time>
      </trkpt>
      <trkpt lat="28.56755" lon="-14.04924">
        <ele>16.4</ele>
        <time>2021-07-04 15:50:14</time>
      </trkpt>
      <trkpt lat="28.56755" lon="-14.04925">
        <ele>16.4</ele>
        <time>2021-07-04 15:50:15</time>
      </trkpt>
      <trkpt lat="28.56755" lon="-14.04927">
        <ele>16.6</ele>
        <time>2021-07-04 15:50:16</time>
      </trkpt>
      <trkpt lat="28.56755" lon="-14.04928">
        <ele>16.6</ele>
        <time>2021-07-04 15:50:17</time>
      </trkpt>
      <trkpt lat="28.56756" lon="-14.04929">
        <ele>17</ele>
        <time>2021-07-04 15:50:18</time>
      </trkpt>
      <trkpt lat="28.56756" lon="-14.04931">
        <ele>17</ele>
        <time>2021-07-04 15:50:19</time>
      </trkpt>
      <trkpt lat="28.56757" lon="-14.04932">
        <ele>17.2</ele>
        <time>2021-07-04 15:50:20</time>
      </trkpt>
      <trkpt lat="28.56757" lon="-14.04933">
        <ele>17.2</ele>
        <time>2021-07-04 15:50:21</time>
      </trkpt>
      <trkpt lat="28.56758" lon="-14.04935">
        <ele>17.4</ele>
        <time>2021-07-04 15:50:22</time>
      </trkpt>
      <trkpt lat="28.56758" lon="-14.04936">
        <ele>17.4</ele>
        <time>2021-07-04 15:50:23</time>
      </trkpt>
      <trkpt lat="28.56758" lon="-14.04938">
        <ele>17.4</ele>
        <time>2021-07-04 15:50:24</time>
      </trkpt>
      <trkpt lat="28.56758" lon="-14.04939">
        <ele>17.6</ele>
        <time>2021-07-04 15:50:25</time>
      </trkpt>
      <trkpt lat="28.56758" lon="-14.04941">
        <ele>17.6</ele>
        <time>2021-07-04 15:50:26</time>
      </trkpt>
      <trkpt lat="28.56758" lon="-14.04941">
        <ele>17.8</ele>
        <time>2021-07-04 15:50:27</time>
      </trkpt>
      <trkpt lat="28.56758" lon="-14.04941">
        <ele>17.8</ele>
        <time>2021-07-04 15:50:28</time>
      </trkpt>
      <trkpt lat="28.56758" lon="-14.0494">
        <ele>18</ele>
        <time>2021-07-04 15:50:29</time>
      </trkpt>
      <trkpt lat="28.56758" lon="-14.04941">
        <ele>19</ele>
        <time>2021-07-04 15:50:30</time>
      </trkpt>
      <trkpt lat="28.56759" lon="-14.04942">
        <ele>18.6</ele>
        <time>2021-07-04 15:50:31</time>
      </trkpt>
      <trkpt lat="28.5676" lon="-14.04944">
        <ele>18.6</ele>
        <time>2021-07-04 15:50:32</time>
      </trkpt>
      <trkpt lat="28.56761" lon="-14.04946">
        <ele>18.6</ele>
        <time>2021-07-04 15:50:35</time>
      </trkpt>
      <trkpt lat="28.56762" lon="-14.04948">
        <ele>18.4</ele>
        <time>2021-07-04 15:50:36</time>
      </trkpt>
      <trkpt lat="28.56763" lon="-14.0495">
        <ele>18.4</ele>
        <time>2021-07-04 15:50:37</time>
      </trkpt>
      <trkpt lat="28.56763" lon="-14.04953">
        <ele>18.4</ele>
        <time>2021-07-04 15:50:38</time>
      </trkpt>
      <trkpt lat="28.56763" lon="-14.04956">
        <ele>18.4</ele>
        <time>2021-07-04 15:50:39</time>
      </trkpt>
      <trkpt lat="28.56763" lon="-14.04958">
        <ele>18.4</ele>
        <time>2021-07-04 15:50:40</time>
      </trkpt>
      <trkpt lat="28.56763" lon="-14.04961">
        <ele>18.4</ele>
        <time>2021-07-04 15:50:41</time>
      </trkpt>
      <trkpt lat="28.56763" lon="-14.04964">
        <ele>18.6</ele>
        <time>2021-07-04 15:50:42</time>
      </trkpt>
      <trkpt lat="28.56763" lon="-14.04967">
        <ele>18.8</ele>
        <time>2021-07-04 15:50:43</time>
      </trkpt>
      <trkpt lat="28.56762" lon="-14.04969">
        <ele>18.8</ele>
        <time>2021-07-04 15:50:44</time>
      </trkpt>
      <trkpt lat="28.56762" lon="-14.04972">
        <ele>18.8</ele>
        <time>2021-07-04 15:50:45</time>
      </trkpt>
      <trkpt lat="28.56761" lon="-14.04975">
        <ele>19</ele>
        <time>2021-07-04 15:50:46</time>
      </trkpt>
      <trkpt lat="28.56759" lon="-14.04977">
        <ele>19</ele>
        <time>2021-07-04 15:50:47</time>
      </trkpt>
      <trkpt lat="28.56758" lon="-14.0498">
        <ele>19</ele>
        <time>2021-07-04 15:50:48</time>
      </trkpt>
      <trkpt lat="28.56756" lon="-14.04982">
        <ele>19</ele>
        <time>2021-07-04 15:50:49</time>
      </trkpt>
      <trkpt lat="28.56753" lon="-14.04985">
        <ele>19.2</ele>
        <time>2021-07-04 15:50:50</time>
      </trkpt>
      <trkpt lat="28.56751" lon="-14.04987">
        <ele>19.2</ele>
        <time>2021-07-04 15:50:51</time>
      </trkpt>
      <trkpt lat="28.56748" lon="-14.04989">
        <ele>19.2</ele>
        <time>2021-07-04 15:50:52</time>
      </trkpt>
      <trkpt lat="28.56746" lon="-14.0499">
        <ele>19.2</ele>
        <time>2021-07-04 15:50:53</time>
      </trkpt>
      <trkpt lat="28.56743" lon="-14.04991">
        <ele>19.2</ele>
        <time>2021-07-04 15:50:54</time>
      </trkpt>
      <trkpt lat="28.56741" lon="-14.04992">
        <ele>19.2</ele>
        <time>2021-07-04 15:50:55</time>
      </trkpt>
      <trkpt lat="28.5674" lon="-14.04992">
        <ele>19.2</ele>
        <time>2021-07-04 15:50:56</time>
      </trkpt>
      <trkpt lat="28.5674" lon="-14.04992">
        <ele>19.2</ele>
        <time>2021-07-04 15:50:57</time>
      </trkpt>
      <trkpt lat="28.56741" lon="-14.04992">
        <ele>19.6</ele>
        <time>2021-07-04 15:50:58</time>
      </trkpt>
      <trkpt lat="28.56742" lon="-14.04993">
        <ele>20</ele>
        <time>2021-07-04 15:50:59</time>
      </trkpt>
      <trkpt lat="28.56743" lon="-14.04993">
        <ele>20</ele>
        <time>2021-07-04 15:51:00</time>
      </trkpt>
      <trkpt lat="28.56743" lon="-14.04994">
        <ele>20</ele>
        <time>2021-07-04 15:51:01</time>
      </trkpt>
      <trkpt lat="28.56744" lon="-14.04995">
        <ele>20</ele>
        <time>2021-07-04 15:51:02</time>
      </trkpt>
      <trkpt lat="28.56745" lon="-14.04997">
        <ele>20</ele>
        <time>2021-07-04 15:51:03</time>
      </trkpt>
      <trkpt lat="28.56745" lon="-14.04999">
        <ele>20</ele>
        <time>2021-07-04 15:51:04</time>
      </trkpt>
      <trkpt lat="28.56746" lon="-14.05002">
        <ele>20</ele>
        <time>2021-07-04 15:51:05</time>
      </trkpt>
      <trkpt lat="28.56746" lon="-14.05005">
        <ele>20</ele>
        <time>2021-07-04 15:51:06</time>
      </trkpt>
      <trkpt lat="28.56746" lon="-14.05008">
        <ele>20</ele>
        <time>2021-07-04 15:51:07</time>
      </trkpt>
      <trkpt lat="28.56747" lon="-14.05012">
        <ele>20</ele>
        <time>2021-07-04 15:51:08</time>
      </trkpt>
      <trkpt lat="28.56748" lon="-14.05015">
        <ele>20</ele>
        <time>2021-07-04 15:51:09</time>
      </trkpt>
      <trkpt lat="28.56749" lon="-14.05018">
        <ele>20</ele>
        <time>2021-07-04 15:51:10</time>
      </trkpt>
      <trkpt lat="28.5675" lon="-14.05022">
        <ele>20</ele>
        <time>2021-07-04 15:51:11</time>
      </trkpt>
      <trkpt lat="28.56752" lon="-14.05025">
        <ele>20</ele>
        <time>2021-07-04 15:51:12</time>
      </trkpt>
      <trkpt lat="28.56753" lon="-14.05028">
        <ele>20</ele>
        <time>2021-07-04 15:51:13</time>
      </trkpt>
      <trkpt lat="28.56755" lon="-14.05031">
        <ele>19.6</ele>
        <time>2021-07-04 15:51:14</time>
      </trkpt>
      <trkpt lat="28.56756" lon="-14.05034">
        <ele>19.6</ele>
        <time>2021-07-04 15:51:15</time>
      </trkpt>
      <trkpt lat="28.56758" lon="-14.05037">
        <ele>19.2</ele>
        <time>2021-07-04 15:51:16</time>
      </trkpt>
      <trkpt lat="28.56759" lon="-14.05041">
        <ele>19.2</ele>
        <time>2021-07-04 15:51:17</time>
      </trkpt>
      <trkpt lat="28.56761" lon="-14.05044">
        <ele>19.2</ele>
        <time>2021-07-04 15:51:18</time>
      </trkpt>
      <trkpt lat="28.56762" lon="-14.05048">
        <ele>19</ele>
        <time>2021-07-04 15:51:19</time>
      </trkpt>
      <trkpt lat="28.56763" lon="-14.05052">
        <ele>19</ele>
        <time>2021-07-04 15:51:20</time>
      </trkpt>
      <trkpt lat="28.56765" lon="-14.05056">
        <ele>19</ele>
        <time>2021-07-04 15:51:21</time>
      </trkpt>
      <trkpt lat="28.56766" lon="-14.05059">
        <ele>19.4</ele>
        <time>2021-07-04 15:51:22</time>
      </trkpt>
      <trkpt lat="28.56767" lon="-14.05063">
        <ele>19.6</ele>
        <time>2021-07-04 15:51:23</time>
      </trkpt>
      <trkpt lat="28.56769" lon="-14.05066">
        <ele>20</ele>
        <time>2021-07-04 15:51:24</time>
      </trkpt>
      <trkpt lat="28.56769" lon="-14.0507">
        <ele>20.4</ele>
        <time>2021-07-04 15:51:25</time>
      </trkpt>
      <trkpt lat="28.5677" lon="-14.05074">
        <ele>20.8</ele>
        <time>2021-07-04 15:51:26</time>
      </trkpt>
      <trkpt lat="28.5677" lon="-14.05078">
        <ele>21</ele>
        <time>2021-07-04 15:51:27</time>
      </trkpt>
      <trkpt lat="28.5677" lon="-14.05082">
        <ele>21</ele>
        <time>2021-07-04 15:51:28</time>
      </trkpt>
      <trkpt lat="28.5677" lon="-14.05086">
        <ele>21</ele>
        <time>2021-07-04 15:51:29</time>
      </trkpt>
      <trkpt lat="28.56771" lon="-14.0509">
        <ele>21</ele>
        <time>2021-07-04 15:51:30</time>
      </trkpt>
      <trkpt lat="28.56772" lon="-14.05094">
        <ele>20.8</ele>
        <time>2021-07-04 15:51:31</time>
      </trkpt>
      <trkpt lat="28.56773" lon="-14.05098">
        <ele>20.8</ele>
        <time>2021-07-04 15:51:32</time>
      </trkpt>
      <trkpt lat="28.56773" lon="-14.05102">
        <ele>20.4</ele>
        <time>2021-07-04 15:51:33</time>
      </trkpt>
      <trkpt lat="28.56775" lon="-14.05106">
        <ele>20.4</ele>
        <time>2021-07-04 15:51:34</time>
      </trkpt>
      <trkpt lat="28.56777" lon="-14.0511">
        <ele>20.2</ele>
        <time>2021-07-04 15:51:35</time>
      </trkpt>
      <trkpt lat="28.56779" lon="-14.05114">
        <ele>20.2</ele>
        <time>2021-07-04 15:51:36</time>
      </trkpt>
      <trkpt lat="28.56781" lon="-14.05117">
        <ele>19.8</ele>
        <time>2021-07-04 15:51:37</time>
      </trkpt>
      <trkpt lat="28.56783" lon="-14.05121">
        <ele>19.8</ele>
        <time>2021-07-04 15:51:38</time>
      </trkpt>
      <trkpt lat="28.56786" lon="-14.05124">
        <ele>19.4</ele>
        <time>2021-07-04 15:51:39</time>
      </trkpt>
      <trkpt lat="28.56788" lon="-14.05127">
        <ele>19.2</ele>
        <time>2021-07-04 15:51:40</time>
      </trkpt>
      <trkpt lat="28.56791" lon="-14.05129">
        <ele>19</ele>
        <time>2021-07-04 15:51:41</time>
      </trkpt>
      <trkpt lat="28.56793" lon="-14.05132">
        <ele>18.8</ele>
        <time>2021-07-04 15:51:42</time>
      </trkpt>
      <trkpt lat="28.56795" lon="-14.05135">
        <ele>18.8</ele>
        <time>2021-07-04 15:51:43</time>
      </trkpt>
      <trkpt lat="28.56797" lon="-14.05137">
        <ele>18.4</ele>
        <time>2021-07-04 15:51:44</time>
      </trkpt>
      <trkpt lat="28.56798" lon="-14.0514">
        <ele>18.4</ele>
        <time>2021-07-04 15:51:45</time>
      </trkpt>
      <trkpt lat="28.56799" lon="-14.05143">
        <ele>18.4</ele>
        <time>2021-07-04 15:52:33</time>
      </trkpt>
      <trkpt lat="28.568" lon="-14.05146">
        <ele>18.4</ele>
        <time>2021-07-04 15:52:34</time>
      </trkpt>
      <trkpt lat="28.568" lon="-14.0515">
        <ele>18.8</ele>
        <time>2021-07-04 15:52:35</time>
      </trkpt>
      <trkpt lat="28.568" lon="-14.05154">
        <ele>19</ele>
        <time>2021-07-04 15:52:36</time>
      </trkpt>
      <trkpt lat="28.568" lon="-14.05158">
        <ele>19</ele>
        <time>2021-07-04 15:52:37</time>
      </trkpt>
      <trkpt lat="28.56799" lon="-14.05161">
        <ele>19.2</ele>
        <time>2021-07-04 15:52:38</time>
      </trkpt>
      <trkpt lat="28.568" lon="-14.05163">
        <ele>19.6</ele>
        <time>2021-07-04 15:52:39</time>
      </trkpt>
      <trkpt lat="28.568" lon="-14.05166">
        <ele>19.6</ele>
        <time>2021-07-04 15:52:40</time>
      </trkpt>
      <trkpt lat="28.568" lon="-14.05168">
        <ele>20</ele>
        <time>2021-07-04 15:52:41</time>
      </trkpt>
      <trkpt lat="28.56798" lon="-14.0517">
        <ele>20</ele>
        <time>2021-07-04 15:52:42</time>
      </trkpt>
      <trkpt lat="28.56797" lon="-14.05172">
        <ele>20.2</ele>
        <time>2021-07-04 15:52:43</time>
      </trkpt>
      <trkpt lat="28.56795" lon="-14.05173">
        <ele>20.2</ele>
        <time>2021-07-04 15:52:44</time>
      </trkpt>
      <trkpt lat="28.56794" lon="-14.05174">
        <ele>20.2</ele>
        <time>2021-07-04 15:52:45</time>
      </trkpt>
      <trkpt lat="28.56792" lon="-14.05175">
        <ele>20.2</ele>
        <time>2021-07-04 15:52:46</time>
      </trkpt>
      <trkpt lat="28.5679" lon="-14.05176">
        <ele>20.2</ele>
        <time>2021-07-04 15:52:47</time>
      </trkpt>
      <trkpt lat="28.56789" lon="-14.05178">
        <ele>20.2</ele>
        <time>2021-07-04 15:52:48</time>
      </trkpt>
      <trkpt lat="28.56787" lon="-14.0518">
        <ele>20.2</ele>
        <time>2021-07-04 15:52:49</time>
      </trkpt>
      <trkpt lat="28.56786" lon="-14.05182">
        <ele>20.2</ele>
        <time>2021-07-04 15:52:50</time>
      </trkpt>
      <trkpt lat="28.56785" lon="-14.05184">
        <ele>20.4</ele>
        <time>2021-07-04 15:52:51</time>
      </trkpt>
      <trkpt lat="28.56784" lon="-14.05186">
        <ele>20.4</ele>
        <time>2021-07-04 15:52:52</time>
      </trkpt>
      <trkpt lat="28.56782" lon="-14.05188">
        <ele>20.6</ele>
        <time>2021-07-04 15:52:53</time>
      </trkpt>
      <trkpt lat="28.56781" lon="-14.05191">
        <ele>20.6</ele>
        <time>2021-07-04 15:52:54</time>
      </trkpt>
      <trkpt lat="28.56778" lon="-14.05193">
        <ele>20.6</ele>
        <time>2021-07-04 15:52:55</time>
      </trkpt>
      <trkpt lat="28.56776" lon="-14.05196">
        <ele>20.6</ele>
        <time>2021-07-04 15:52:56</time>
      </trkpt>
      <trkpt lat="28.56775" lon="-14.05199">
        <ele>20.6</ele>
        <time>2021-07-04 15:52:57</time>
      </trkpt>
      <trkpt lat="28.56773" lon="-14.05201">
        <ele>20.6</ele>
        <time>2021-07-04 15:52:58</time>
      </trkpt>
      <trkpt lat="28.56772" lon="-14.05203">
        <ele>20.6</ele>
        <time>2021-07-04 15:52:59</time>
      </trkpt>
      <trkpt lat="28.56771" lon="-14.05205">
        <ele>20.6</ele>
        <time>2021-07-04 15:53:04</time>
      </trkpt>
      <trkpt lat="28.56769" lon="-14.05207">
        <ele>21</ele>
        <time>2021-07-04 15:53:05</time>
      </trkpt>
      <trkpt lat="28.56767" lon="-14.05209">
        <ele>21</ele>
        <time>2021-07-04 15:53:06</time>
      </trkpt>
      <trkpt lat="28.56764" lon="-14.0521">
        <ele>21</ele>
        <time>2021-07-04 15:53:07</time>
      </trkpt>
      <trkpt lat="28.56762" lon="-14.05211">
        <ele>21</ele>
        <time>2021-07-04 15:53:08</time>
      </trkpt>
      <trkpt lat="28.56759" lon="-14.05213">
        <ele>21</ele>
        <time>2021-07-04 15:53:09</time>
      </trkpt>
      <trkpt lat="28.56757" lon="-14.05215">
        <ele>21</ele>
        <time>2021-07-04 15:53:10</time>
      </trkpt>
      <trkpt lat="28.56755" lon="-14.05217">
        <ele>21</ele>
        <time>2021-07-04 15:53:11</time>
      </trkpt>
      <trkpt lat="28.56753" lon="-14.05219">
        <ele>21</ele>
        <time>2021-07-04 15:53:12</time>
      </trkpt>
      <trkpt lat="28.56751" lon="-14.05221">
        <ele>21</ele>
        <time>2021-07-04 15:53:13</time>
      </trkpt>
      <trkpt lat="28.5675" lon="-14.05224">
        <ele>21</ele>
        <time>2021-07-04 15:53:14</time>
      </trkpt>
      <trkpt lat="28.56749" lon="-14.05227">
        <ele>21.2</ele>
        <time>2021-07-04 15:53:15</time>
      </trkpt>
      <trkpt lat="28.56747" lon="-14.05229">
        <ele>21.2</ele>
        <time>2021-07-04 15:53:16</time>
      </trkpt>
      <trkpt lat="28.56745" lon="-14.05231">
        <ele>21.2</ele>
        <time>2021-07-04 15:53:17</time>
      </trkpt>
      <trkpt lat="28.56742" lon="-14.05232">
        <ele>21.2</ele>
        <time>2021-07-04 15:53:18</time>
      </trkpt>
      <trkpt lat="28.5674" lon="-14.05234">
        <ele>21.2</ele>
        <time>2021-07-04 15:53:19</time>
      </trkpt>
      <trkpt lat="28.56737" lon="-14.05235">
        <ele>21.2</ele>
        <time>2021-07-04 15:53:20</time>
      </trkpt>
      <trkpt lat="28.56734" lon="-14.05237">
        <ele>21.2</ele>
        <time>2021-07-04 15:53:21</time>
      </trkpt>
      <trkpt lat="28.56731" lon="-14.05238">
        <ele>21.2</ele>
        <time>2021-07-04 15:53:22</time>
      </trkpt>
      <trkpt lat="28.56729" lon="-14.05238">
        <ele>21.2</ele>
        <time>2021-07-04 15:53:23</time>
      </trkpt>
      <trkpt lat="28.56727" lon="-14.05239">
        <ele>20.8</ele>
        <time>2021-07-04 15:53:24</time>
      </trkpt>
      <trkpt lat="28.56725" lon="-14.0524">
        <ele>20.8</ele>
        <time>2021-07-04 15:53:25</time>
      </trkpt>
      <trkpt lat="28.56724" lon="-14.05241">
        <ele>20.8</ele>
        <time>2021-07-04 15:53:26</time>
      </trkpt>
      <trkpt lat="28.56723" lon="-14.05242">
        <ele>20.8</ele>
        <time>2021-07-04 15:53:27</time>
      </trkpt>
      <trkpt lat="28.56722" lon="-14.05243">
        <ele>20.8</ele>
        <time>2021-07-04 15:53:28</time>
      </trkpt>
      <trkpt lat="28.56722" lon="-14.05243">
        <ele>20.8</ele>
        <time>2021-07-04 15:53:29</time>
      </trkpt>
      <trkpt lat="28.56722" lon="-14.05243">
        <ele>20.8</ele>
        <time>2021-07-04 15:53:30</time>
      </trkpt>
      <trkpt lat="28.56722" lon="-14.05243">
        <ele>21.2</ele>
        <time>2021-07-04 15:53:31</time>
      </trkpt>
      <trkpt lat="28.56723" lon="-14.05242">
        <ele>22.2</ele>
        <time>2021-07-04 15:53:32</time>
      </trkpt>
      <trkpt lat="28.56723" lon="-14.05243">
        <ele>22</ele>
        <time>2021-07-04 15:53:33</time>
      </trkpt>
      <trkpt lat="28.56723" lon="-14.05244">
        <ele>22</ele>
        <time>2021-07-04 15:53:34</time>
      </trkpt>
      <trkpt lat="28.56723" lon="-14.05245">
        <ele>21.8</ele>
        <time>2021-07-04 15:53:35</time>
      </trkpt>
      <trkpt lat="28.56724" lon="-14.05245">
        <ele>21.8</ele>
        <time>2021-07-04 15:53:36</time>
      </trkpt>
      <trkpt lat="28.56724" lon="-14.05245">
        <ele>21.8</ele>
        <time>2021-07-04 15:53:37</time>
      </trkpt>
      <trkpt lat="28.56724" lon="-14.05245">
        <ele>21.8</ele>
        <time>2021-07-04 15:53:38</time>
      </trkpt>
      <trkpt lat="28.56725" lon="-14.05245">
        <ele>22.4</ele>
        <time>2021-07-04 15:53:39</time>
      </trkpt>
      <trkpt lat="28.56726" lon="-14.05245">
        <ele>22</ele>
        <time>2021-07-04 15:53:40</time>
      </trkpt>
      <trkpt lat="28.56727" lon="-14.05244">
        <ele>22</ele>
        <time>2021-07-04 15:53:41</time>
      </trkpt>
      <trkpt lat="28.56728" lon="-14.05243">
        <ele>22</ele>
        <time>2021-07-04 15:53:42</time>
      </trkpt>
      <trkpt lat="28.56727" lon="-14.05241">
        <ele>22</ele>
        <time>2021-07-04 15:53:43</time>
      </trkpt>
      <trkpt lat="28.56726" lon="-14.05239">
        <ele>22</ele>
        <time>2021-07-04 15:53:44</time>
      </trkpt>
      <trkpt lat="28.56725" lon="-14.05238">
        <ele>22</ele>
        <time>2021-07-04 15:53:45</time>
      </trkpt>
      <trkpt lat="28.56723" lon="-14.05237">
        <ele>21.6</ele>
        <time>2021-07-04 15:53:46</time>
      </trkpt>
      <trkpt lat="28.56721" lon="-14.05235">
        <ele>21.4</ele>
        <time>2021-07-04 15:53:47</time>
      </trkpt>
      <trkpt lat="28.56719" lon="-14.05234">
        <ele>21.4</ele>
        <time>2021-07-04 15:53:48</time>
      </trkpt>
      <trkpt lat="28.56717" lon="-14.05232">
        <ele>21.4</ele>
        <time>2021-07-04 15:53:49</time>
      </trkpt>
      <trkpt lat="28.56715" lon="-14.0523">
        <ele>21.2</ele>
        <time>2021-07-04 15:53:50</time>
      </trkpt>
      <trkpt lat="28.56713" lon="-14.05228">
        <ele>21.2</ele>
        <time>2021-07-04 15:53:51</time>
      </trkpt>
      <trkpt lat="28.56712" lon="-14.05225">
        <ele>21.2</ele>
        <time>2021-07-04 15:53:52</time>
      </trkpt>
      <trkpt lat="28.5671" lon="-14.05222">
        <ele>21.2</ele>
        <time>2021-07-04 15:53:53</time>
      </trkpt>
      <trkpt lat="28.56709" lon="-14.0522">
        <ele>21.2</ele>
        <time>2021-07-04 15:53:54</time>
      </trkpt>
      <trkpt lat="28.56707" lon="-14.05218">
        <ele>21.2</ele>
        <time>2021-07-04 15:53:55</time>
      </trkpt>
      <trkpt lat="28.56704" lon="-14.05216">
        <ele>21.2</ele>
        <time>2021-07-04 15:53:56</time>
      </trkpt>
      <trkpt lat="28.56702" lon="-14.05215">
        <ele>20.8</ele>
        <time>2021-07-04 15:53:57</time>
      </trkpt>
      <trkpt lat="28.56699" lon="-14.05214">
        <ele>20.8</ele>
        <time>2021-07-04 15:53:58</time>
      </trkpt>
      <trkpt lat="28.56697" lon="-14.05214">
        <ele>20.8</ele>
        <time>2021-07-04 15:53:59</time>
      </trkpt>
      <trkpt lat="28.56694" lon="-14.05213">
        <ele>20.8</ele>
        <time>2021-07-04 15:54:00</time>
      </trkpt>
      <trkpt lat="28.56691" lon="-14.05213">
        <ele>20.8</ele>
        <time>2021-07-04 15:54:01</time>
      </trkpt>
      <trkpt lat="28.56688" lon="-14.05213">
        <ele>21</ele>
        <time>2021-07-04 15:54:02</time>
      </trkpt>
      <trkpt lat="28.56685" lon="-14.05212">
        <ele>21</ele>
        <time>2021-07-04 15:54:03</time>
      </trkpt>
      <trkpt lat="28.56682" lon="-14.05212">
        <ele>21</ele>
        <time>2021-07-04 15:54:04</time>
      </trkpt>
      <trkpt lat="28.56679" lon="-14.05212">
        <ele>21</ele>
        <time>2021-07-04 15:54:05</time>
      </trkpt>
      <trkpt lat="28.56676" lon="-14.05212">
        <ele>21</ele>
        <time>2021-07-04 15:54:06</time>
      </trkpt>
      <trkpt lat="28.56673" lon="-14.05212">
        <ele>21.2</ele>
        <time>2021-07-04 15:54:07</time>
      </trkpt>
      <trkpt lat="28.56669" lon="-14.05213">
        <ele>21.2</ele>
        <time>2021-07-04 15:54:08</time>
      </trkpt>
      <trkpt lat="28.56666" lon="-14.05214">
        <ele>21.2</ele>
        <time>2021-07-04 15:54:09</time>
      </trkpt>
      <trkpt lat="28.56662" lon="-14.05215">
        <ele>21.4</ele>
        <time>2021-07-04 15:54:10</time>
      </trkpt>
      <trkpt lat="28.56659" lon="-14.05216">
        <ele>21.4</ele>
        <time>2021-07-04 15:54:11</time>
      </trkpt>
      <trkpt lat="28.56656" lon="-14.05218">
        <ele>21.4</ele>
        <time>2021-07-04 15:54:12</time>
      </trkpt>
      <trkpt lat="28.56653" lon="-14.0522">
        <ele>21.4</ele>
        <time>2021-07-04 15:54:13</time>
      </trkpt>
      <trkpt lat="28.56651" lon="-14.05223">
        <ele>21.4</ele>
        <time>2021-07-04 15:54:14</time>
      </trkpt>
      <trkpt lat="28.56649" lon="-14.05226">
        <ele>21.4</ele>
        <time>2021-07-04 15:54:15</time>
      </trkpt>
      <trkpt lat="28.56648" lon="-14.05229">
        <ele>21.8</ele>
        <time>2021-07-04 15:54:16</time>
      </trkpt>
      <trkpt lat="28.56647" lon="-14.05232">
        <ele>21.8</ele>
        <time>2021-07-04 15:54:17</time>
      </trkpt>
      <trkpt lat="28.56646" lon="-14.05235">
        <ele>22</ele>
        <time>2021-07-04 15:54:18</time>
      </trkpt>
      <trkpt lat="28.56644" lon="-14.05238">
        <ele>22</ele>
        <time>2021-07-04 15:54:19</time>
      </trkpt>
      <trkpt lat="28.56642" lon="-14.0524">
        <ele>22.2</ele>
        <time>2021-07-04 15:54:20</time>
      </trkpt>
      <trkpt lat="28.5664" lon="-14.05242">
        <ele>22.2</ele>
        <time>2021-07-04 15:54:21</time>
      </trkpt>
      <trkpt lat="28.56637" lon="-14.05244">
        <ele>22.2</ele>
        <time>2021-07-04 15:54:22</time>
      </trkpt>
      <trkpt lat="28.56635" lon="-14.05245">
        <ele>22.2</ele>
        <time>2021-07-04 15:54:23</time>
      </trkpt>
      <trkpt lat="28.56632" lon="-14.05245">
        <ele>22.2</ele>
        <time>2021-07-04 15:54:24</time>
      </trkpt>
      <trkpt lat="28.5663" lon="-14.05245">
        <ele>22.2</ele>
        <time>2021-07-04 15:54:25</time>
      </trkpt>
      <trkpt lat="28.56627" lon="-14.05245">
        <ele>22.2</ele>
        <time>2021-07-04 15:54:26</time>
      </trkpt>
      <trkpt lat="28.56624" lon="-14.05245">
        <ele>22.2</ele>
        <time>2021-07-04 15:54:27</time>
      </trkpt>
      <trkpt lat="28.56621" lon="-14.05246">
        <ele>22.4</ele>
        <time>2021-07-04 15:54:28</time>
      </trkpt>
      <trkpt lat="28.56619" lon="-14.05247">
        <ele>22.4</ele>
        <time>2021-07-04 15:54:29</time>
      </trkpt>
      <trkpt lat="28.56617" lon="-14.05249">
        <ele>22.6</ele>
        <time>2021-07-04 15:54:30</time>
      </trkpt>
      <trkpt lat="28.56614" lon="-14.0525">
        <ele>22.6</ele>
        <time>2021-07-04 15:54:31</time>
      </trkpt>
      <trkpt lat="28.56612" lon="-14.05251">
        <ele>23</ele>
        <time>2021-07-04 15:54:32</time>
      </trkpt>
      <trkpt lat="28.5661" lon="-14.05252">
        <ele>23</ele>
        <time>2021-07-04 15:54:33</time>
      </trkpt>
      <trkpt lat="28.56609" lon="-14.05253">
        <ele>23</ele>
        <time>2021-07-04 15:54:34</time>
      </trkpt>
      <trkpt lat="28.56607" lon="-14.05256">
        <ele>23.2</ele>
        <time>2021-07-04 15:54:35</time>
      </trkpt>
      <trkpt lat="28.56606" lon="-14.05259">
        <ele>23.2</ele>
        <time>2021-07-04 15:54:36</time>
      </trkpt>
      <trkpt lat="28.56605" lon="-14.05262">
        <ele>23.2</ele>
        <time>2021-07-04 15:54:37</time>
      </trkpt>
      <trkpt lat="28.56605" lon="-14.05265">
        <ele>23.4</ele>
        <time>2021-07-04 15:54:38</time>
      </trkpt>
      <trkpt lat="28.56606" lon="-14.05268">
        <ele>23.4</ele>
        <time>2021-07-04 15:54:39</time>
      </trkpt>
      <trkpt lat="28.56607" lon="-14.05272">
        <ele>23.4</ele>
        <time>2021-07-04 15:54:40</time>
      </trkpt>
      <trkpt lat="28.56607" lon="-14.05275">
        <ele>23.8</ele>
        <time>2021-07-04 15:54:41</time>
      </trkpt>
      <trkpt lat="28.56607" lon="-14.05279">
        <ele>23.8</ele>
        <time>2021-07-04 15:54:42</time>
      </trkpt>
      <trkpt lat="28.56606" lon="-14.05283">
        <ele>23.8</ele>
        <time>2021-07-04 15:54:43</time>
      </trkpt>
      <trkpt lat="28.56605" lon="-14.05286">
        <ele>23.8</ele>
        <time>2021-07-04 15:54:44</time>
      </trkpt>
      <trkpt lat="28.56604" lon="-14.0529">
        <ele>23.8</ele>
        <time>2021-07-04 15:54:45</time>
      </trkpt>
      <trkpt lat="28.56603" lon="-14.05293">
        <ele>23.8</ele>
        <time>2021-07-04 15:56:15</time>
      </trkpt>
      <trkpt lat="28.56602" lon="-14.05296">
        <ele>23.8</ele>
        <time>2021-07-04 15:56:16</time>
      </trkpt>
      <trkpt lat="28.566" lon="-14.05298">
        <ele>24</ele>
        <time>2021-07-04 15:56:17</time>
      </trkpt>
      <trkpt lat="28.56598" lon="-14.053">
        <ele>24</ele>
        <time>2021-07-04 15:56:18</time>
      </trkpt>
      <trkpt lat="28.56596" lon="-14.05302">
        <ele>24.4</ele>
        <time>2021-07-04 15:56:19</time>
      </trkpt>
      <trkpt lat="28.56594" lon="-14.05303">
        <ele>24.4</ele>
        <time>2021-07-04 15:56:20</time>
      </trkpt>
      <trkpt lat="28.56592" lon="-14.05303">
        <ele>24.4</ele>
        <time>2021-07-04 15:56:21</time>
      </trkpt>
      <trkpt lat="28.5659" lon="-14.05304">
        <ele>24.6</ele>
        <time>2021-07-04 15:57:33</time>
      </trkpt>
      <trkpt lat="28.56588" lon="-14.05305">
        <ele>24.8</ele>
        <time>2021-07-04 15:57:34</time>
      </trkpt>
      <trkpt lat="28.56587" lon="-14.05305">
        <ele>24.8</ele>
        <time>2021-07-04 15:57:35</time>
      </trkpt>
      <trkpt lat="28.56585" lon="-14.05306">
        <ele>25.2</ele>
        <time>2021-07-04 15:57:36</time>
      </trkpt>
      <trkpt lat="28.56584" lon="-14.05307">
        <ele>25.4</ele>
        <time>2021-07-04 15:57:37</time>
      </trkpt>
      <trkpt lat="28.56582" lon="-14.05309">
        <ele>25.4</ele>
        <time>2021-07-04 15:57:38</time>
      </trkpt>
      <trkpt lat="28.56581" lon="-14.0531">
        <ele>25.8</ele>
        <time>2021-07-04 15:57:39</time>
      </trkpt>
      <trkpt lat="28.5658" lon="-14.05311">
        <ele>25.8</ele>
        <time>2021-07-04 15:57:40</time>
      </trkpt>
      <trkpt lat="28.56579" lon="-14.05312">
        <ele>26</ele>
        <time>2021-07-04 15:57:41</time>
      </trkpt>
      <trkpt lat="28.56577" lon="-14.05313">
        <ele>26</ele>
        <time>2021-07-04 15:57:42</time>
      </trkpt>
      <trkpt lat="28.56576" lon="-14.05315">
        <ele>26.2</ele>
        <time>2021-07-04 15:57:43</time>
      </trkpt>
      <trkpt lat="28.56574" lon="-14.05316">
        <ele>26.2</ele>
        <time>2021-07-04 15:57:44</time>
      </trkpt>
      <trkpt lat="28.56572" lon="-14.05317">
        <ele>26.2</ele>
        <time>2021-07-04 15:57:45</time>
      </trkpt>
      <trkpt lat="28.56571" lon="-14.05318">
        <ele>26.6</ele>
        <time>2021-07-04 15:57:46</time>
      </trkpt>
      <trkpt lat="28.5657" lon="-14.05319">
        <ele>26.6</ele>
        <time>2021-07-04 15:57:47</time>
      </trkpt>
      <trkpt lat="28.56568" lon="-14.0532">
        <ele>26.6</ele>
        <time>2021-07-04 15:57:48</time>
      </trkpt>
      <trkpt lat="28.56567" lon="-14.05322">
        <ele>26.8</ele>
        <time>2021-07-04 15:57:49</time>
      </trkpt>
      <trkpt lat="28.56566" lon="-14.05324">
        <ele>26.8</ele>
        <time>2021-07-04 15:57:50</time>
      </trkpt>
      <trkpt lat="28.56564" lon="-14.05327">
        <ele>26.8</ele>
        <time>2021-07-04 15:57:51</time>
      </trkpt>
      <trkpt lat="28.56563" lon="-14.05329">
        <ele>26.8</ele>
        <time>2021-07-04 15:57:52</time>
      </trkpt>
      <trkpt lat="28.56561" lon="-14.05331">
        <ele>27.2</ele>
        <time>2021-07-04 15:57:53</time>
      </trkpt>
      <trkpt lat="28.5656" lon="-14.05334">
        <ele>27.2</ele>
        <time>2021-07-04 15:57:54</time>
      </trkpt>
      <trkpt lat="28.56559" lon="-14.05337">
        <ele>27.4</ele>
        <time>2021-07-04 15:57:55</time>
      </trkpt>
      <trkpt lat="28.56557" lon="-14.05339">
        <ele>27.4</ele>
        <time>2021-07-04 15:57:56</time>
      </trkpt>
      <trkpt lat="28.56556" lon="-14.05342">
        <ele>27.8</ele>
        <time>2021-07-04 15:57:57</time>
      </trkpt>
      <trkpt lat="28.56555" lon="-14.05344">
        <ele>27.8</ele>
        <time>2021-07-04 15:57:58</time>
      </trkpt>
      <trkpt lat="28.56554" lon="-14.05347">
        <ele>27.8</ele>
        <time>2021-07-04 15:57:59</time>
      </trkpt>
      <trkpt lat="28.56553" lon="-14.0535">
        <ele>27.8</ele>
        <time>2021-07-04 15:58:00</time>
      </trkpt>
      <trkpt lat="28.56551" lon="-14.05353">
        <ele>28</ele>
        <time>2021-07-04 15:58:01</time>
      </trkpt>
      <trkpt lat="28.56543" lon="-14.05361">
        <ele>28</ele>
        <time>2021-07-04 15:58:02</time>
      </trkpt>
      <trkpt lat="28.56541" lon="-14.05364">
        <ele>28</ele>
        <time>2021-07-04 15:58:03</time>
      </trkpt>
      <trkpt lat="28.5654" lon="-14.05367">
        <ele>28</ele>
        <time>2021-07-04 15:58:04</time>
      </trkpt>
      <trkpt lat="28.56538" lon="-14.0537">
        <ele>28.2</ele>
        <time>2021-07-04 15:58:05</time>
      </trkpt>
      <trkpt lat="28.56537" lon="-14.05373">
        <ele>28.2</ele>
        <time>2021-07-04 15:58:06</time>
      </trkpt>
      <trkpt lat="28.56535" lon="-14.05376">
        <ele>28.6</ele>
        <time>2021-07-04 15:58:07</time>
      </trkpt>
      <trkpt lat="28.56533" lon="-14.05378">
        <ele>28.6</ele>
        <time>2021-07-04 15:58:08</time>
      </trkpt>
      <trkpt lat="28.5653" lon="-14.05379">
        <ele>28.6</ele>
        <time>2021-07-04 15:58:09</time>
      </trkpt>
      <trkpt lat="28.56528" lon="-14.0538">
        <ele>28.8</ele>
        <time>2021-07-04 15:58:10</time>
      </trkpt>
      <trkpt lat="28.56525" lon="-14.0538">
        <ele>28.8</ele>
        <time>2021-07-04 15:58:11</time>
      </trkpt>
      <trkpt lat="28.56522" lon="-14.05381">
        <ele>28.8</ele>
        <time>2021-07-04 15:58:12</time>
      </trkpt>
      <trkpt lat="28.5652" lon="-14.05383">
        <ele>29.2</ele>
        <time>2021-07-04 15:58:13</time>
      </trkpt>
      <trkpt lat="28.56517" lon="-14.05384">
        <ele>29.2</ele>
        <time>2021-07-04 15:58:14</time>
      </trkpt>
      <trkpt lat="28.56515" lon="-14.05386">
        <ele>29.4</ele>
        <time>2021-07-04 15:58:15</time>
      </trkpt>
      <trkpt lat="28.56513" lon="-14.05387">
        <ele>29.4</ele>
        <time>2021-07-04 15:58:16</time>
      </trkpt>
      <trkpt lat="28.5651" lon="-14.05388">
        <ele>29.4</ele>
        <time>2021-07-04 15:58:17</time>
      </trkpt>
      <trkpt lat="28.56508" lon="-14.05389">
        <ele>29.6</ele>
        <time>2021-07-04 15:58:18</time>
      </trkpt>
      <trkpt lat="28.56504" lon="-14.05392">
        <ele>29.6</ele>
        <time>2021-07-04 15:58:19</time>
      </trkpt>
      <trkpt lat="28.56501" lon="-14.05395">
        <ele>29.8</ele>
        <time>2021-07-04 15:58:20</time>
      </trkpt>
      <trkpt lat="28.56499" lon="-14.05398">
        <ele>29.8</ele>
        <time>2021-07-04 15:58:21</time>
      </trkpt>
      <trkpt lat="28.56497" lon="-14.054">
        <ele>29.8</ele>
        <time>2021-07-04 15:58:22</time>
      </trkpt>
      <trkpt lat="28.56495" lon="-14.05402">
        <ele>29.8</ele>
        <time>2021-07-04 15:58:23</time>
      </trkpt>
      <trkpt lat="28.56492" lon="-14.05404">
        <ele>29.8</ele>
        <time>2021-07-04 15:58:24</time>
      </trkpt>
      <trkpt lat="28.56489" lon="-14.05406">
        <ele>29.8</ele>
        <time>2021-07-04 15:58:25</time>
      </trkpt>
      <trkpt lat="28.56486" lon="-14.05408">
        <ele>29.8</ele>
        <time>2021-07-04 15:58:26</time>
      </trkpt>
      <trkpt lat="28.56483" lon="-14.05411">
        <ele>29.6</ele>
        <time>2021-07-04 15:58:27</time>
      </trkpt>
      <trkpt lat="28.5648" lon="-14.05414">
        <ele>29.6</ele>
        <time>2021-07-04 15:58:28</time>
      </trkpt>
      <trkpt lat="28.56478" lon="-14.05417">
        <ele>29.6</ele>
        <time>2021-07-04 15:58:29</time>
      </trkpt>
      <trkpt lat="28.56477" lon="-14.0542">
        <ele>29.6</ele>
        <time>2021-07-04 15:58:30</time>
      </trkpt>
      <trkpt lat="28.56475" lon="-14.05423">
        <ele>29.6</ele>
        <time>2021-07-04 15:58:31</time>
      </trkpt>
      <trkpt lat="28.56473" lon="-14.05426">
        <ele>29.6</ele>
        <time>2021-07-04 15:58:32</time>
      </trkpt>
      <trkpt lat="28.56472" lon="-14.05428">
        <ele>29.6</ele>
        <time>2021-07-04 15:58:33</time>
      </trkpt>
      <trkpt lat="28.5647" lon="-14.05431">
        <ele>29.6</ele>
        <time>2021-07-04 15:58:34</time>
      </trkpt>
      <trkpt lat="28.56468" lon="-14.05434">
        <ele>29.6</ele>
        <time>2021-07-04 15:58:35</time>
      </trkpt>
      <trkpt lat="28.56466" lon="-14.05437">
        <ele>29.6</ele>
        <time>2021-07-04 15:58:36</time>
      </trkpt>
      <trkpt lat="28.56463" lon="-14.0544">
        <ele>29.6</ele>
        <time>2021-07-04 15:58:37</time>
      </trkpt>
      <trkpt lat="28.56461" lon="-14.05443">
        <ele>29.6</ele>
        <time>2021-07-04 15:58:38</time>
      </trkpt>
      <trkpt lat="28.56457" lon="-14.05445">
        <ele>29.6</ele>
        <time>2021-07-04 15:58:39</time>
      </trkpt>
      <trkpt lat="28.56454" lon="-14.05448">
        <ele>29.6</ele>
        <time>2021-07-04 15:58:40</time>
      </trkpt>
      <trkpt lat="28.56451" lon="-14.0545">
        <ele>29.6</ele>
        <time>2021-07-04 15:58:41</time>
      </trkpt>
      <trkpt lat="28.56448" lon="-14.05453">
        <ele>29.6</ele>
        <time>2021-07-04 15:58:42</time>
      </trkpt>
      <trkpt lat="28.56444" lon="-14.05456">
        <ele>29.6</ele>
        <time>2021-07-04 15:58:43</time>
      </trkpt>
      <trkpt lat="28.56441" lon="-14.05459">
        <ele>29.6</ele>
        <time>2021-07-04 15:58:44</time>
      </trkpt>
      <trkpt lat="28.56439" lon="-14.05462">
        <ele>29.6</ele>
        <time>2021-07-04 15:58:45</time>
      </trkpt>
      <trkpt lat="28.56436" lon="-14.05465">
        <ele>29.8</ele>
        <time>2021-07-04 15:58:46</time>
      </trkpt>
      <trkpt lat="28.56433" lon="-14.05468">
        <ele>29.8</ele>
        <time>2021-07-04 15:58:47</time>
      </trkpt>
      <trkpt lat="28.56431" lon="-14.05471">
        <ele>29.8</ele>
        <time>2021-07-04 15:58:48</time>
      </trkpt>
      <trkpt lat="28.56428" lon="-14.05472">
        <ele>30</ele>
        <time>2021-07-04 15:58:49</time>
      </trkpt>
      <trkpt lat="28.56426" lon="-14.05473">
        <ele>30.2</ele>
        <time>2021-07-04 15:58:50</time>
      </trkpt>
      <trkpt lat="28.56423" lon="-14.05473">
        <ele>30.2</ele>
        <time>2021-07-04 15:58:51</time>
      </trkpt>
      <trkpt lat="28.56421" lon="-14.05473">
        <ele>30.6</ele>
        <time>2021-07-04 15:58:52</time>
      </trkpt>
      <trkpt lat="28.56418" lon="-14.05473">
        <ele>30.8</ele>
        <time>2021-07-04 15:58:53</time>
      </trkpt>
      <trkpt lat="28.56416" lon="-14.05474">
        <ele>30.8</ele>
        <time>2021-07-04 15:58:54</time>
      </trkpt>
      <trkpt lat="28.56413" lon="-14.05474">
        <ele>31.2</ele>
        <time>2021-07-04 15:58:55</time>
      </trkpt>
      <trkpt lat="28.56411" lon="-14.05475">
        <ele>31.2</ele>
        <time>2021-07-04 15:58:56</time>
      </trkpt>
      <trkpt lat="28.56409" lon="-14.05477">
        <ele>31.4</ele>
        <time>2021-07-04 15:58:57</time>
      </trkpt>
      <trkpt lat="28.56407" lon="-14.0548">
        <ele>31.4</ele>
        <time>2021-07-04 15:58:58</time>
      </trkpt>
      <trkpt lat="28.56405" lon="-14.05483">
        <ele>31.4</ele>
        <time>2021-07-04 15:58:59</time>
      </trkpt>
      <trkpt lat="28.56403" lon="-14.05486">
        <ele>31.4</ele>
        <time>2021-07-04 15:59:00</time>
      </trkpt>
      <trkpt lat="28.56401" lon="-14.05489">
        <ele>31.4</ele>
        <time>2021-07-04 15:59:01</time>
      </trkpt>
      <trkpt lat="28.564" lon="-14.05492">
        <ele>31.4</ele>
        <time>2021-07-04 15:59:02</time>
      </trkpt>
      <trkpt lat="28.56399" lon="-14.05495">
        <ele>31.4</ele>
        <time>2021-07-04 15:59:03</time>
      </trkpt>
      <trkpt lat="28.56397" lon="-14.05498">
        <ele>31.4</ele>
        <time>2021-07-04 15:59:04</time>
      </trkpt>
      <trkpt lat="28.56395" lon="-14.055">
        <ele>31.4</ele>
        <time>2021-07-04 15:59:05</time>
      </trkpt>
      <trkpt lat="28.56393" lon="-14.05503">
        <ele>31.4</ele>
        <time>2021-07-04 15:59:06</time>
      </trkpt>
      <trkpt lat="28.5639" lon="-14.05506">
        <ele>31.4</ele>
        <time>2021-07-04 15:59:07</time>
      </trkpt>
      <trkpt lat="28.56387" lon="-14.05508">
        <ele>31.4</ele>
        <time>2021-07-04 15:59:08</time>
      </trkpt>
      <trkpt lat="28.56383" lon="-14.0551">
        <ele>31.4</ele>
        <time>2021-07-04 15:59:09</time>
      </trkpt>
      <trkpt lat="28.56379" lon="-14.0551">
        <ele>31.4</ele>
        <time>2021-07-04 15:59:10</time>
      </trkpt>
      <trkpt lat="28.56375" lon="-14.0551">
        <ele>31.4</ele>
        <time>2021-07-04 15:59:11</time>
      </trkpt>
      <trkpt lat="28.5637" lon="-14.05508">
        <ele>31.2</ele>
        <time>2021-07-04 15:59:12</time>
      </trkpt>
      <trkpt lat="28.56365" lon="-14.05508">
        <ele>31.2</ele>
        <time>2021-07-04 15:59:13</time>
      </trkpt>
      <trkpt lat="28.56361" lon="-14.05509">
        <ele>31.2</ele>
        <time>2021-07-04 15:59:14</time>
      </trkpt>
      <trkpt lat="28.56357" lon="-14.05509">
        <ele>31</ele>
        <time>2021-07-04 15:59:15</time>
      </trkpt>
      <trkpt lat="28.56352" lon="-14.0551">
        <ele>31</ele>
        <time>2021-07-04 15:59:16</time>
      </trkpt>
      <trkpt lat="28.56348" lon="-14.05512">
        <ele>31</ele>
        <time>2021-07-04 15:59:17</time>
      </trkpt>
      <trkpt lat="28.56344" lon="-14.05514">
        <ele>30.6</ele>
        <time>2021-07-04 15:59:18</time>
      </trkpt>
      <trkpt lat="28.5634" lon="-14.05517">
        <ele>30.6</ele>
        <time>2021-07-04 15:59:19</time>
      </trkpt>
      <trkpt lat="28.56337" lon="-14.05519">
        <ele>30.6</ele>
        <time>2021-07-04 15:59:20</time>
      </trkpt>
      <trkpt lat="28.56333" lon="-14.05519">
        <ele>30.6</ele>
        <time>2021-07-04 15:59:21</time>
      </trkpt>
      <trkpt lat="28.56329" lon="-14.05521">
        <ele>30.6</ele>
        <time>2021-07-04 15:59:22</time>
      </trkpt>
      <trkpt lat="28.56326" lon="-14.05522">
        <ele>30.6</ele>
        <time>2021-07-04 15:59:23</time>
      </trkpt>
      <trkpt lat="28.56323" lon="-14.05523">
        <ele>30.6</ele>
        <time>2021-07-04 15:59:24</time>
      </trkpt>
      <trkpt lat="28.5632" lon="-14.05524">
        <ele>30.6</ele>
        <time>2021-07-04 15:59:25</time>
      </trkpt>
      <trkpt lat="28.56316" lon="-14.05525">
        <ele>30.6</ele>
        <time>2021-07-04 15:59:26</time>
      </trkpt>
      <trkpt lat="28.56312" lon="-14.05528">
        <ele>30.4</ele>
        <time>2021-07-04 15:59:27</time>
      </trkpt>
      <trkpt lat="28.56308" lon="-14.0553">
        <ele>30.4</ele>
        <time>2021-07-04 15:59:28</time>
      </trkpt>
      <trkpt lat="28.56305" lon="-14.05533">
        <ele>30.4</ele>
        <time>2021-07-04 15:59:29</time>
      </trkpt>
      <trkpt lat="28.563" lon="-14.05534">
        <ele>30.4</ele>
        <time>2021-07-04 15:59:30</time>
      </trkpt>
      <trkpt lat="28.56297" lon="-14.05536">
        <ele>30.4</ele>
        <time>2021-07-04 15:59:31</time>
      </trkpt>
      <trkpt lat="28.56293" lon="-14.05538">
        <ele>30.4</ele>
        <time>2021-07-04 15:59:32</time>
      </trkpt>
      <trkpt lat="28.5629" lon="-14.0554">
        <ele>30.4</ele>
        <time>2021-07-04 15:59:33</time>
      </trkpt>
      <trkpt lat="28.56287" lon="-14.05542">
        <ele>30.4</ele>
        <time>2021-07-04 15:59:34</time>
      </trkpt>
      <trkpt lat="28.56284" lon="-14.05544">
        <ele>30.4</ele>
        <time>2021-07-04 15:59:35</time>
      </trkpt>
      <trkpt lat="28.5628" lon="-14.05547">
        <ele>30.4</ele>
        <time>2021-07-04 15:59:36</time>
      </trkpt>
      <trkpt lat="28.56276" lon="-14.0555">
        <ele>30.4</ele>
        <time>2021-07-04 15:59:37</time>
      </trkpt>
      <trkpt lat="28.56272" lon="-14.05553">
        <ele>30.4</ele>
        <time>2021-07-04 15:59:38</time>
      </trkpt>
      <trkpt lat="28.56268" lon="-14.05556">
        <ele>30.4</ele>
        <time>2021-07-04 15:59:39</time>
      </trkpt>
      <trkpt lat="28.56264" lon="-14.05558">
        <ele>30.6</ele>
        <time>2021-07-04 15:59:40</time>
      </trkpt>
      <trkpt lat="28.56261" lon="-14.05561">
        <ele>30.6</ele>
        <time>2021-07-04 15:59:41</time>
      </trkpt>
      <trkpt lat="28.56257" lon="-14.05564">
        <ele>30.6</ele>
        <time>2021-07-04 15:59:42</time>
      </trkpt>
      <trkpt lat="28.56254" lon="-14.05567">
        <ele>30.8</ele>
        <time>2021-07-04 15:59:43</time>
      </trkpt>
      <trkpt lat="28.5625" lon="-14.0557">
        <ele>30.8</ele>
        <time>2021-07-04 15:59:44</time>
      </trkpt>
      <trkpt lat="28.56247" lon="-14.05573">
        <ele>30.8</ele>
        <time>2021-07-04 15:59:45</time>
      </trkpt>
      <trkpt lat="28.56243" lon="-14.05577">
        <ele>30.8</ele>
        <time>2021-07-04 15:59:46</time>
      </trkpt>
      <trkpt lat="28.56239" lon="-14.0558">
        <ele>30.8</ele>
        <time>2021-07-04 15:59:47</time>
      </trkpt>
      <trkpt lat="28.56235" lon="-14.05583">
        <ele>30.8</ele>
        <time>2021-07-04 15:59:48</time>
      </trkpt>
      <trkpt lat="28.5623" lon="-14.05586">
        <ele>30.6</ele>
        <time>2021-07-04 15:59:49</time>
      </trkpt>
      <trkpt lat="28.56225" lon="-14.05589">
        <ele>30.6</ele>
        <time>2021-07-04 15:59:50</time>
      </trkpt>
      <trkpt lat="28.56221" lon="-14.05593">
        <ele>30.6</ele>
        <time>2021-07-04 15:59:51</time>
      </trkpt>
      <trkpt lat="28.56218" lon="-14.05597">
        <ele>30.6</ele>
        <time>2021-07-04 15:59:52</time>
      </trkpt>
      <trkpt lat="28.56214" lon="-14.056">
        <ele>30.6</ele>
        <time>2021-07-04 15:59:53</time>
      </trkpt>
      <trkpt lat="28.5621" lon="-14.05603">
        <ele>30.6</ele>
        <time>2021-07-04 15:59:54</time>
      </trkpt>
      <trkpt lat="28.56206" lon="-14.05606">
        <ele>31</ele>
        <time>2021-07-04 15:59:55</time>
      </trkpt>
      <trkpt lat="28.56202" lon="-14.05608">
        <ele>31</ele>
        <time>2021-07-04 15:59:56</time>
      </trkpt>
      <trkpt lat="28.56198" lon="-14.0561">
        <ele>31</ele>
        <time>2021-07-04 15:59:57</time>
      </trkpt>
      <trkpt lat="28.56195" lon="-14.05612">
        <ele>31</ele>
        <time>2021-07-04 15:59:58</time>
      </trkpt>
      <trkpt lat="28.56191" lon="-14.05613">
        <ele>31</ele>
        <time>2021-07-04 15:59:59</time>
      </trkpt>
      <trkpt lat="28.56188" lon="-14.05613">
        <ele>31</ele>
        <time>2021-07-04 16:00:00</time>
      </trkpt>
      <trkpt lat="28.56183" lon="-14.05615">
        <ele>31</ele>
        <time>2021-07-04 16:00:01</time>
      </trkpt>
      <trkpt lat="28.56179" lon="-14.05616">
        <ele>31</ele>
        <time>2021-07-04 16:00:02</time>
      </trkpt>
      <trkpt lat="28.56175" lon="-14.05619">
        <ele>31</ele>
        <time>2021-07-04 16:00:03</time>
      </trkpt>
      <trkpt lat="28.56172" lon="-14.05622">
        <ele>30.8</ele>
        <time>2021-07-04 16:00:04</time>
      </trkpt>
      <trkpt lat="28.56169" lon="-14.05626">
        <ele>30.8</ele>
        <time>2021-07-04 16:00:05</time>
      </trkpt>
      <trkpt lat="28.56166" lon="-14.05628">
        <ele>30.8</ele>
        <time>2021-07-04 16:00:06</time>
      </trkpt>
      <trkpt lat="28.56163" lon="-14.05631">
        <ele>30.8</ele>
        <time>2021-07-04 16:00:07</time>
      </trkpt>
      <trkpt lat="28.56159" lon="-14.05632">
        <ele>30.8</ele>
        <time>2021-07-04 16:00:08</time>
      </trkpt>
      <trkpt lat="28.56156" lon="-14.05633">
        <ele>30.8</ele>
        <time>2021-07-04 16:00:09</time>
      </trkpt>
      <trkpt lat="28.56153" lon="-14.05634">
        <ele>30.8</ele>
        <time>2021-07-04 16:00:10</time>
      </trkpt>
      <trkpt lat="28.56148" lon="-14.05637">
        <ele>30.8</ele>
        <time>2021-07-04 16:00:11</time>
      </trkpt>
      <trkpt lat="28.56144" lon="-14.05638">
        <ele>30.8</ele>
        <time>2021-07-04 16:00:12</time>
      </trkpt>
      <trkpt lat="28.5614" lon="-14.0564">
        <ele>30.8</ele>
        <time>2021-07-04 16:00:13</time>
      </trkpt>
      <trkpt lat="28.56136" lon="-14.05641">
        <ele>30.8</ele>
        <time>2021-07-04 16:00:14</time>
      </trkpt>
      <trkpt lat="28.56133" lon="-14.05642">
        <ele>30.8</ele>
        <time>2021-07-04 16:00:15</time>
      </trkpt>
      <trkpt lat="28.56129" lon="-14.05642">
        <ele>30.6</ele>
        <time>2021-07-04 16:00:16</time>
      </trkpt>
      <trkpt lat="28.56126" lon="-14.05643">
        <ele>30.6</ele>
        <time>2021-07-04 16:00:17</time>
      </trkpt>
      <trkpt lat="28.56123" lon="-14.05643">
        <ele>30.6</ele>
        <time>2021-07-04 16:00:18</time>
      </trkpt>
      <trkpt lat="28.5612" lon="-14.05644">
        <ele>30.6</ele>
        <time>2021-07-04 16:00:19</time>
      </trkpt>
      <trkpt lat="28.56116" lon="-14.05645">
        <ele>30.6</ele>
        <time>2021-07-04 16:00:20</time>
      </trkpt>
      <trkpt lat="28.56113" lon="-14.05647">
        <ele>30.6</ele>
        <time>2021-07-04 16:00:21</time>
      </trkpt>
      <trkpt lat="28.5611" lon="-14.05649">
        <ele>30.6</ele>
        <time>2021-07-04 16:00:22</time>
      </trkpt>
      <trkpt lat="28.56106" lon="-14.05652">
        <ele>30.6</ele>
        <time>2021-07-04 16:00:23</time>
      </trkpt>
      <trkpt lat="28.56102" lon="-14.05653">
        <ele>30.8</ele>
        <time>2021-07-04 16:00:24</time>
      </trkpt>
      <trkpt lat="28.56098" lon="-14.05654">
        <ele>30.8</ele>
        <time>2021-07-04 16:00:25</time>
      </trkpt>
      <trkpt lat="28.56094" lon="-14.05655">
        <ele>30.8</ele>
        <time>2021-07-04 16:00:26</time>
      </trkpt>
      <trkpt lat="28.5609" lon="-14.05656">
        <ele>31</ele>
        <time>2021-07-04 16:00:27</time>
      </trkpt>
      <trkpt lat="28.56087" lon="-14.05658">
        <ele>31</ele>
        <time>2021-07-04 16:00:28</time>
      </trkpt>
      <trkpt lat="28.56084" lon="-14.0566">
        <ele>31</ele>
        <time>2021-07-04 16:00:29</time>
      </trkpt>
      <trkpt lat="28.5608" lon="-14.05663">
        <ele>31</ele>
        <time>2021-07-04 16:00:30</time>
      </trkpt>
      <trkpt lat="28.56077" lon="-14.05666">
        <ele>31</ele>
        <time>2021-07-04 16:00:31</time>
      </trkpt>
      <trkpt lat="28.56074" lon="-14.05669">
        <ele>31</ele>
        <time>2021-07-04 16:00:32</time>
      </trkpt>
      <trkpt lat="28.56071" lon="-14.05672">
        <ele>31.4</ele>
        <time>2021-07-04 16:00:33</time>
      </trkpt>
      <trkpt lat="28.56068" lon="-14.05675">
        <ele>31.4</ele>
        <time>2021-07-04 16:00:34</time>
      </trkpt>
      <trkpt lat="28.56065" lon="-14.05678">
        <ele>31.6</ele>
        <time>2021-07-04 16:00:35</time>
      </trkpt>
      <trkpt lat="28.56061" lon="-14.05681">
        <ele>31.6</ele>
        <time>2021-07-04 16:00:36</time>
      </trkpt>
      <trkpt lat="28.56058" lon="-14.05684">
        <ele>31.8</ele>
        <time>2021-07-04 16:00:37</time>
      </trkpt>
      <trkpt lat="28.56056" lon="-14.05685">
        <ele>31.8</ele>
        <time>2021-07-04 16:00:38</time>
      </trkpt>
      <trkpt lat="28.56053" lon="-14.05686">
        <ele>32.2</ele>
        <time>2021-07-04 16:00:39</time>
      </trkpt>
      <trkpt lat="28.5605" lon="-14.05688">
        <ele>32.2</ele>
        <time>2021-07-04 16:00:40</time>
      </trkpt>
      <trkpt lat="28.56047" lon="-14.0569">
        <ele>32.6</ele>
        <time>2021-07-04 16:00:41</time>
      </trkpt>
      <trkpt lat="28.56044" lon="-14.05692">
        <ele>32.8</ele>
        <time>2021-07-04 16:00:42</time>
      </trkpt>
      <trkpt lat="28.56042" lon="-14.05693">
        <ele>32.8</ele>
        <time>2021-07-04 16:00:43</time>
      </trkpt>
      <trkpt lat="28.56039" lon="-14.05695">
        <ele>33.2</ele>
        <time>2021-07-04 16:00:44</time>
      </trkpt>
      <trkpt lat="28.56036" lon="-14.05697">
        <ele>33.4</ele>
        <time>2021-07-04 16:00:45</time>
      </trkpt>
      <trkpt lat="28.56033" lon="-14.05698">
        <ele>33.4</ele>
        <time>2021-07-04 16:00:46</time>
      </trkpt>
      <trkpt lat="28.5603" lon="-14.05699">
        <ele>33.6</ele>
        <time>2021-07-04 16:00:47</time>
      </trkpt>
      <trkpt lat="28.56027" lon="-14.057">
        <ele>33.6</ele>
        <time>2021-07-04 16:00:48</time>
      </trkpt>
      <trkpt lat="28.56026" lon="-14.05701">
        <ele>34</ele>
        <time>2021-07-04 16:00:49</time>
      </trkpt>
      <trkpt lat="28.56024" lon="-14.05703">
        <ele>34.2</ele>
        <time>2021-07-04 16:00:50</time>
      </trkpt>
      <trkpt lat="28.56022" lon="-14.05706">
        <ele>34.2</ele>
        <time>2021-07-04 16:00:51</time>
      </trkpt>
      <trkpt lat="28.56019" lon="-14.05708">
        <ele>34.4</ele>
        <time>2021-07-04 16:00:52</time>
      </trkpt>
      <trkpt lat="28.56017" lon="-14.0571">
        <ele>34.4</ele>
        <time>2021-07-04 16:00:53</time>
      </trkpt>
      <trkpt lat="28.56015" lon="-14.05711">
        <ele>34.4</ele>
        <time>2021-07-04 16:00:54</time>
      </trkpt>
      <trkpt lat="28.56013" lon="-14.05712">
        <ele>34.4</ele>
        <time>2021-07-04 16:00:55</time>
      </trkpt>
      <trkpt lat="28.56011" lon="-14.05713">
        <ele>34.4</ele>
        <time>2021-07-04 16:00:56</time>
      </trkpt>
      <trkpt lat="28.56008" lon="-14.05714">
        <ele>34.4</ele>
        <time>2021-07-04 16:00:57</time>
      </trkpt>
      <trkpt lat="28.56005" lon="-14.05716">
        <ele>34.4</ele>
        <time>2021-07-04 16:00:58</time>
      </trkpt>
      <trkpt lat="28.56002" lon="-14.05717">
        <ele>34.4</ele>
        <time>2021-07-04 16:00:59</time>
      </trkpt>
      <trkpt lat="28.56" lon="-14.05718">
        <ele>34.4</ele>
        <time>2021-07-04 16:01:00</time>
      </trkpt>
      <trkpt lat="28.55997" lon="-14.05719">
        <ele>34.4</ele>
        <time>2021-07-04 16:01:01</time>
      </trkpt>
      <trkpt lat="28.55995" lon="-14.05719">
        <ele>34.4</ele>
        <time>2021-07-04 16:01:02</time>
      </trkpt>
      <trkpt lat="28.55992" lon="-14.0572">
        <ele>34.4</ele>
        <time>2021-07-04 16:01:03</time>
      </trkpt>
      <trkpt lat="28.55989" lon="-14.05719">
        <ele>34.4</ele>
        <time>2021-07-04 16:01:04</time>
      </trkpt>
      <trkpt lat="28.55986" lon="-14.05719">
        <ele>34.4</ele>
        <time>2021-07-04 16:01:05</time>
      </trkpt>
      <trkpt lat="28.55983" lon="-14.05718">
        <ele>34.4</ele>
        <time>2021-07-04 16:01:06</time>
      </trkpt>
      <trkpt lat="28.55979" lon="-14.05718">
        <ele>34.4</ele>
        <time>2021-07-04 16:01:07</time>
      </trkpt>
      <trkpt lat="28.55977" lon="-14.05719">
        <ele>34.4</ele>
        <time>2021-07-04 16:01:08</time>
      </trkpt>
      <trkpt lat="28.55975" lon="-14.05721">
        <ele>34.8</ele>
        <time>2021-07-04 16:01:09</time>
      </trkpt>
      <trkpt lat="28.55974" lon="-14.05722">
        <ele>34.8</ele>
        <time>2021-07-04 16:01:10</time>
      </trkpt>
      <trkpt lat="28.55974" lon="-14.05723">
        <ele>34</ele>
        <time>2021-07-04 16:01:11</time>
      </trkpt>
      <trkpt lat="28.55974" lon="-14.05723">
        <ele>34</ele>
        <time>2021-07-04 16:01:12</time>
      </trkpt>
      <trkpt lat="28.55974" lon="-14.05725">
        <ele>35</ele>
        <time>2021-07-04 16:01:13</time>
      </trkpt>
      <trkpt lat="28.55972" lon="-14.05726">
        <ele>35</ele>
        <time>2021-07-04 16:01:14</time>
      </trkpt>
      <trkpt lat="28.5597" lon="-14.05726">
        <ele>35</ele>
        <time>2021-07-04 16:01:15</time>
      </trkpt>
      <trkpt lat="28.55968" lon="-14.05727">
        <ele>35</ele>
        <time>2021-07-04 16:01:16</time>
      </trkpt>
      <trkpt lat="28.55965" lon="-14.05728">
        <ele>35</ele>
        <time>2021-07-04 16:01:17</time>
      </trkpt>
      <trkpt lat="28.55962" lon="-14.05729">
        <ele>35</ele>
        <time>2021-07-04 16:01:18</time>
      </trkpt>
      <trkpt lat="28.5596" lon="-14.0573">
        <ele>34.8</ele>
        <time>2021-07-04 16:01:19</time>
      </trkpt>
      <trkpt lat="28.55958" lon="-14.05732">
        <ele>34.8</ele>
        <time>2021-07-04 16:01:20</time>
      </trkpt>
      <trkpt lat="28.55957" lon="-14.05733">
        <ele>34.8</ele>
        <time>2021-07-04 16:01:21</time>
      </trkpt>
      <trkpt lat="28.55956" lon="-14.05734">
        <ele>34.8</ele>
        <time>2021-07-04 16:01:22</time>
      </trkpt>
      <trkpt lat="28.55955" lon="-14.05735">
        <ele>34.8</ele>
        <time>2021-07-04 16:01:23</time>
      </trkpt>
      <trkpt lat="28.55955" lon="-14.05736">
        <ele>34.8</ele>
        <time>2021-07-04 16:01:24</time>
      </trkpt>
      <trkpt lat="28.55955" lon="-14.05737">
        <ele>35.2</ele>
        <time>2021-07-04 16:01:25</time>
      </trkpt>
      <trkpt lat="28.55955" lon="-14.05737">
        <ele>35.2</ele>
        <time>2021-07-04 16:01:26</time>
      </trkpt>
      <trkpt lat="28.55955" lon="-14.05737">
        <ele>35.2</ele>
        <time>2021-07-04 16:01:27</time>
      </trkpt>
      <trkpt lat="28.55954" lon="-14.05737">
        <ele>35.2</ele>
        <time>2021-07-04 16:01:28</time>
      </trkpt>
      <trkpt lat="28.55953" lon="-14.05738">
        <ele>35.6</ele>
        <time>2021-07-04 16:01:29</time>
      </trkpt>
      <trkpt lat="28.55953" lon="-14.05739">
        <ele>36</ele>
        <time>2021-07-04 16:01:30</time>
      </trkpt>
      <trkpt lat="28.55952" lon="-14.05739">
        <ele>36.2</ele>
        <time>2021-07-04 16:01:31</time>
      </trkpt>
      <trkpt lat="28.55951" lon="-14.05739">
        <ele>36.2</ele>
        <time>2021-07-04 16:01:32</time>
      </trkpt>
      <trkpt lat="28.5595" lon="-14.0574">
        <ele>36.4</ele>
        <time>2021-07-04 16:01:33</time>
      </trkpt>
      <trkpt lat="28.5595" lon="-14.0574">
        <ele>36.4</ele>
        <time>2021-07-04 16:01:34</time>
      </trkpt>
      <trkpt lat="28.55949" lon="-14.05741">
        <ele>36.4</ele>
        <time>2021-07-04 16:01:35</time>
      </trkpt>
      <trkpt lat="28.55948" lon="-14.05741">
        <ele>36.8</ele>
        <time>2021-07-04 16:01:36</time>
      </trkpt>
      <trkpt lat="28.55947" lon="-14.05741">
        <ele>36.8</ele>
        <time>2021-07-04 16:01:37</time>
      </trkpt>
      <trkpt lat="28.55947" lon="-14.05741">
        <ele>36.8</ele>
        <time>2021-07-04 16:01:38</time>
      </trkpt>
      <trkpt lat="28.55948" lon="-14.05741">
        <ele>36.8</ele>
        <time>2021-07-04 16:01:39</time>
      </trkpt>
      <trkpt lat="28.55948" lon="-14.05739">
        <ele>38</ele>
        <time>2021-07-04 16:01:40</time>
      </trkpt>
      <trkpt lat="28.55947" lon="-14.0574">
        <ele>38</ele>
        <time>2021-07-04 16:01:41</time>
      </trkpt>
      <trkpt lat="28.55947" lon="-14.05739">
        <ele>38</ele>
        <time>2021-07-04 16:01:42</time>
      </trkpt>
      <trkpt lat="28.55947" lon="-14.0574">
        <ele>37</ele>
        <time>2021-07-04 16:01:43</time>
      </trkpt>
      <trkpt lat="28.55946" lon="-14.05741">
        <ele>37</ele>
        <time>2021-07-04 16:01:44</time>
      </trkpt>
      <trkpt lat="28.55946" lon="-14.05741">
        <ele>37.2</ele>
        <time>2021-07-04 16:01:45</time>
      </trkpt>
      <trkpt lat="28.55946" lon="-14.05741">
        <ele>37.2</ele>
        <time>2021-07-04 16:01:46</time>
      </trkpt>
      <trkpt lat="28.55946" lon="-14.05741">
        <ele>37.2</ele>
        <time>2021-07-04 16:01:47</time>
      </trkpt>
      <trkpt lat="28.55946" lon="-14.05742">
        <ele>36.8</ele>
        <time>2021-07-04 16:01:48</time>
      </trkpt>
      <trkpt lat="28.55946" lon="-14.05742">
        <ele>36.8</ele>
        <time>2021-07-04 16:01:49</time>
      </trkpt>
      <trkpt lat="28.55946" lon="-14.05742">
        <ele>36.2</ele>
        <time>2021-07-04 16:01:50</time>
      </trkpt>
      <trkpt lat="28.55945" lon="-14.05743">
        <ele>37</ele>
        <time>2021-07-04 16:01:51</time>
      </trkpt>
      <trkpt lat="28.55944" lon="-14.05743">
        <ele>37</ele>
        <time>2021-07-04 16:01:52</time>
      </trkpt>
      <trkpt lat="28.55943" lon="-14.05743">
        <ele>37</ele>
        <time>2021-07-04 16:01:53</time>
      </trkpt>
      <trkpt lat="28.55942" lon="-14.05743">
        <ele>37</ele>
        <time>2021-07-04 16:01:54</time>
      </trkpt>
      <trkpt lat="28.55941" lon="-14.05742">
        <ele>37</ele>
        <time>2021-07-04 16:01:55</time>
      </trkpt>
      <trkpt lat="28.5594" lon="-14.05742">
        <ele>37</ele>
        <time>2021-07-04 16:01:56</time>
      </trkpt>
      <trkpt lat="28.55939" lon="-14.05741">
        <ele>37</ele>
        <time>2021-07-04 16:01:57</time>
      </trkpt>
      <trkpt lat="28.55938" lon="-14.05741">
        <ele>36.8</ele>
        <time>2021-07-04 16:01:58</time>
      </trkpt>
      <trkpt lat="28.55937" lon="-14.05741">
        <ele>36.8</ele>
        <time>2021-07-04 16:01:59</time>
      </trkpt>
      <trkpt lat="28.55936" lon="-14.05742">
        <ele>36.8</ele>
        <time>2021-07-04 16:02:00</time>
      </trkpt>
      <trkpt lat="28.55935" lon="-14.05742">
        <ele>36.8</ele>
        <time>2021-07-04 16:02:01</time>
      </trkpt>
      <trkpt lat="28.55935" lon="-14.05742">
        <ele>36.8</ele>
        <time>2021-07-04 16:02:02</time>
      </trkpt>
      <trkpt lat="28.55935" lon="-14.05742">
        <ele>36.8</ele>
        <time>2021-07-04 16:02:03</time>
      </trkpt>
      <trkpt lat="28.55935" lon="-14.05742">
        <ele>36.8</ele>
        <time>2021-07-04 16:02:04</time>
      </trkpt>
      <trkpt lat="28.55934" lon="-14.05743">
        <ele>36.6</ele>
        <time>2021-07-04 16:02:05</time>
      </trkpt>
      <trkpt lat="28.55933" lon="-14.05744">
        <ele>36.6</ele>
        <time>2021-07-04 16:02:06</time>
      </trkpt>
      <trkpt lat="28.55931" lon="-14.05745">
        <ele>36.6</ele>
        <time>2021-07-04 16:02:07</time>
      </trkpt>
      <trkpt lat="28.5593" lon="-14.05747">
        <ele>36.6</ele>
        <time>2021-07-04 16:02:08</time>
      </trkpt>
      <trkpt lat="28.55928" lon="-14.05748">
        <ele>36.6</ele>
        <time>2021-07-04 16:02:09</time>
      </trkpt>
      <trkpt lat="28.55925" lon="-14.05749">
        <ele>36.4</ele>
        <time>2021-07-04 16:02:10</time>
      </trkpt>
      <trkpt lat="28.55923" lon="-14.0575">
        <ele>36.4</ele>
        <time>2021-07-04 16:02:11</time>
      </trkpt>
      <trkpt lat="28.5592" lon="-14.05751">
        <ele>36.4</ele>
        <time>2021-07-04 16:02:12</time>
      </trkpt>
      <trkpt lat="28.55918" lon="-14.05752">
        <ele>36.4</ele>
        <time>2021-07-04 16:02:13</time>
      </trkpt>
      <trkpt lat="28.55915" lon="-14.05754">
        <ele>36.4</ele>
        <time>2021-07-04 16:02:14</time>
      </trkpt>
      <trkpt lat="28.55912" lon="-14.05755">
        <ele>36</ele>
        <time>2021-07-04 16:02:15</time>
      </trkpt>
      <trkpt lat="28.5591" lon="-14.05757">
        <ele>36</ele>
        <time>2021-07-04 16:02:16</time>
      </trkpt>
      <trkpt lat="28.55907" lon="-14.05758">
        <ele>36</ele>
        <time>2021-07-04 16:02:17</time>
      </trkpt>
      <trkpt lat="28.55904" lon="-14.0576">
        <ele>36</ele>
        <time>2021-07-04 16:02:18</time>
      </trkpt>
      <trkpt lat="28.55901" lon="-14.05761">
        <ele>36</ele>
        <time>2021-07-04 16:02:19</time>
      </trkpt>
      <trkpt lat="28.55898" lon="-14.05762">
        <ele>36</ele>
        <time>2021-07-04 16:02:20</time>
      </trkpt>
      <trkpt lat="28.55895" lon="-14.05763">
        <ele>36</ele>
        <time>2021-07-04 16:02:21</time>
      </trkpt>
      <trkpt lat="28.55892" lon="-14.05764">
        <ele>36</ele>
        <time>2021-07-04 16:02:22</time>
      </trkpt>
      <trkpt lat="28.55889" lon="-14.05765">
        <ele>36</ele>
        <time>2021-07-04 16:02:23</time>
      </trkpt>
      <trkpt lat="28.55886" lon="-14.05766">
        <ele>36</ele>
        <time>2021-07-04 16:02:24</time>
      </trkpt>
      <trkpt lat="28.55883" lon="-14.05766">
        <ele>36</ele>
        <time>2021-07-04 16:02:25</time>
      </trkpt>
      <trkpt lat="28.55879" lon="-14.05766">
        <ele>36</ele>
        <time>2021-07-04 16:02:26</time>
      </trkpt>
      <trkpt lat="28.55877" lon="-14.05766">
        <ele>36</ele>
        <time>2021-07-04 16:02:27</time>
      </trkpt>
      <trkpt lat="28.55874" lon="-14.05766">
        <ele>36</ele>
        <time>2021-07-04 16:02:28</time>
      </trkpt>
      <trkpt lat="28.55871" lon="-14.05766">
        <ele>36</ele>
        <time>2021-07-04 16:02:29</time>
      </trkpt>
      <trkpt lat="28.55868" lon="-14.05766">
        <ele>36</ele>
        <time>2021-07-04 16:02:30</time>
      </trkpt>
      <trkpt lat="28.55865" lon="-14.05766">
        <ele>36</ele>
        <time>2021-07-04 16:02:47</time>
      </trkpt>
      <trkpt lat="28.55862" lon="-14.05766">
        <ele>36.4</ele>
        <time>2021-07-04 16:02:48</time>
      </trkpt>
      <trkpt lat="28.55859" lon="-14.05767">
        <ele>36.4</ele>
        <time>2021-07-04 16:02:49</time>
      </trkpt>
      <trkpt lat="28.55856" lon="-14.05767">
        <ele>36.4</ele>
        <time>2021-07-04 16:02:50</time>
      </trkpt>
      <trkpt lat="28.55854" lon="-14.05768">
        <ele>36.4</ele>
        <time>2021-07-04 16:02:51</time>
      </trkpt>
      <trkpt lat="28.55851" lon="-14.05768">
        <ele>36.6</ele>
        <time>2021-07-04 16:02:52</time>
      </trkpt>
      <trkpt lat="28.55849" lon="-14.05768">
        <ele>36.6</ele>
        <time>2021-07-04 16:02:53</time>
      </trkpt>
      <trkpt lat="28.55847" lon="-14.05768">
        <ele>36.6</ele>
        <time>2021-07-04 16:02:54</time>
      </trkpt>
      <trkpt lat="28.55844" lon="-14.05769">
        <ele>36.6</ele>
        <time>2021-07-04 16:02:55</time>
      </trkpt>
      <trkpt lat="28.55841" lon="-14.0577">
        <ele>36.6</ele>
        <time>2021-07-04 16:02:56</time>
      </trkpt>
      <trkpt lat="28.55838" lon="-14.05772">
        <ele>36.8</ele>
        <time>2021-07-04 16:02:57</time>
      </trkpt>
      <trkpt lat="28.55834" lon="-14.05773">
        <ele>36.8</ele>
        <time>2021-07-04 16:02:58</time>
      </trkpt>
      <trkpt lat="28.55831" lon="-14.05774">
        <ele>36.8</ele>
        <time>2021-07-04 16:02:59</time>
      </trkpt>
      <trkpt lat="28.55828" lon="-14.05775">
        <ele>36.8</ele>
        <time>2021-07-04 16:03:00</time>
      </trkpt>
      <trkpt lat="28.55824" lon="-14.05776">
        <ele>36.8</ele>
        <time>2021-07-04 16:03:01</time>
      </trkpt>
      <trkpt lat="28.55821" lon="-14.05778">
        <ele>36.8</ele>
        <time>2021-07-04 16:03:02</time>
      </trkpt>
      <trkpt lat="28.55818" lon="-14.05779">
        <ele>36.8</ele>
        <time>2021-07-04 16:03:03</time>
      </trkpt>
      <trkpt lat="28.55815" lon="-14.0578">
        <ele>36.8</ele>
        <time>2021-07-04 16:03:04</time>
      </trkpt>
      <trkpt lat="28.55812" lon="-14.05781">
        <ele>37</ele>
        <time>2021-07-04 16:03:05</time>
      </trkpt>
      <trkpt lat="28.55809" lon="-14.05781">
        <ele>37</ele>
        <time>2021-07-04 16:03:06</time>
      </trkpt>
      <trkpt lat="28.55806" lon="-14.05782">
        <ele>37</ele>
        <time>2021-07-04 16:03:07</time>
      </trkpt>
      <trkpt lat="28.55803" lon="-14.05783">
        <ele>37</ele>
        <time>2021-07-04 16:03:08</time>
      </trkpt>
      <trkpt lat="28.55799" lon="-14.05784">
        <ele>37</ele>
        <time>2021-07-04 16:03:09</time>
      </trkpt>
      <trkpt lat="28.55796" lon="-14.05784">
        <ele>37</ele>
        <time>2021-07-04 16:03:10</time>
      </trkpt>
      <trkpt lat="28.55792" lon="-14.05785">
        <ele>37</ele>
        <time>2021-07-04 16:03:11</time>
      </trkpt>
      <trkpt lat="28.55789" lon="-14.05785">
        <ele>37</ele>
        <time>2021-07-04 16:03:12</time>
      </trkpt>
      <trkpt lat="28.55786" lon="-14.05785">
        <ele>37</ele>
        <time>2021-07-04 16:03:13</time>
      </trkpt>
      <trkpt lat="28.55782" lon="-14.05786">
        <ele>37</ele>
        <time>2021-07-04 16:03:50</time>
      </trkpt>
      <trkpt lat="28.55779" lon="-14.05786">
        <ele>37</ele>
        <time>2021-07-04 16:03:51</time>
      </trkpt>
      <trkpt lat="28.55776" lon="-14.05786">
        <ele>37.2</ele>
        <time>2021-07-04 16:03:52</time>
      </trkpt>
      <trkpt lat="28.55773" lon="-14.05786">
        <ele>37.2</ele>
        <time>2021-07-04 16:04:37</time>
      </trkpt>
      <trkpt lat="28.55769" lon="-14.05786">
        <ele>37.2</ele>
        <time>2021-07-04 16:04:38</time>
      </trkpt>
      <trkpt lat="28.55766" lon="-14.05786">
        <ele>37.2</ele>
        <time>2021-07-04 16:04:39</time>
      </trkpt>
      <trkpt lat="28.55764" lon="-14.05786">
        <ele>37.2</ele>
        <time>2021-07-04 16:04:40</time>
      </trkpt>
      <trkpt lat="28.55761" lon="-14.05786">
        <ele>37.2</ele>
        <time>2021-07-04 16:04:41</time>
      </trkpt>
      <trkpt lat="28.55758" lon="-14.05786">
        <ele>37.2</ele>
        <time>2021-07-04 16:12:31</time>
      </trkpt>
      <trkpt lat="28.55755" lon="-14.05785">
        <ele>37.2</ele>
        <time>2021-07-04 16:12:32</time>
      </trkpt>
      <trkpt lat="28.55752" lon="-14.05785">
        <ele>37.4</ele>
        <time>2021-07-04 16:12:33</time>
      </trkpt>
      <trkpt lat="28.55749" lon="-14.05785">
        <ele>37.4</ele>
        <time>2021-07-04 16:12:34</time>
      </trkpt>
      <trkpt lat="28.55747" lon="-14.05785">
        <ele>37.4</ele>
        <time>2021-07-04 16:12:35</time>
      </trkpt>
      <trkpt lat="28.55744" lon="-14.05784">
        <ele>37.4</ele>
        <time>2021-07-04 16:12:36</time>
      </trkpt>
      <trkpt lat="28.55741" lon="-14.05784">
        <ele>37.4</ele>
        <time>2021-07-04 16:20:24</time>
      </trkpt>
      <trkpt lat="28.55738" lon="-14.05784">
        <ele>37.4</ele>
        <time>2021-07-04 16:20:25</time>
      </trkpt>
      <trkpt lat="28.55734" lon="-14.05784">
        <ele>37.4</ele>
        <time>2021-07-04 16:20:26</time>
      </trkpt>
      <trkpt lat="28.55731" lon="-14.05784">
        <ele>37.6</ele>
        <time>2021-07-04 16:20:27</time>
      </trkpt>
      <trkpt lat="28.55728" lon="-14.05784">
        <ele>37.6</ele>
        <time>2021-07-04 16:20:28</time>
      </trkpt>
      <trkpt lat="28.55724" lon="-14.05784">
        <ele>37.6</ele>
        <time>2021-07-04 16:20:29</time>
      </trkpt>
      <trkpt lat="28.55721" lon="-14.05785">
        <ele>37.6</ele>
        <time>2021-07-04 16:20:30</time>
      </trkpt>
      <trkpt lat="28.55717" lon="-14.05785">
        <ele>38</ele>
        <time>2021-07-04 16:20:31</time>
      </trkpt>
      <trkpt lat="28.55714" lon="-14.05786">
        <ele>38</ele>
        <time>2021-07-04 16:20:32</time>
      </trkpt>
      <trkpt lat="28.55711" lon="-14.05786">
        <ele>38.2</ele>
        <time>2021-07-04 16:20:33</time>
      </trkpt>
      <trkpt lat="28.55707" lon="-14.05787">
        <ele>38.2</ele>
        <time>2021-07-04 16:20:34</time>
      </trkpt>
      <trkpt lat="28.55704" lon="-14.05787">
        <ele>38.2</ele>
        <time>2021-07-04 16:20:35</time>
      </trkpt>
      <trkpt lat="28.557" lon="-14.05787">
        <ele>38.4</ele>
        <time>2021-07-04 16:20:36</time>
      </trkpt>
      <trkpt lat="28.55696" lon="-14.05787">
        <ele>38.4</ele>
        <time>2021-07-04 16:20:37</time>
      </trkpt>
      <trkpt lat="28.55693" lon="-14.05786">
        <ele>38.4</ele>
        <time>2021-07-04 16:20:43</time>
      </trkpt>
      <trkpt lat="28.55689" lon="-14.05785">
        <ele>38.4</ele>
        <time>2021-07-04 16:20:44</time>
      </trkpt>
      <trkpt lat="28.55687" lon="-14.05784">
        <ele>38.4</ele>
        <time>2021-07-04 16:20:45</time>
      </trkpt>
      <trkpt lat="28.55684" lon="-14.05784">
        <ele>38.4</ele>
        <time>2021-07-04 16:20:46</time>
      </trkpt>
      <trkpt lat="28.5568" lon="-14.05783">
        <ele>38.4</ele>
        <time>2021-07-04 16:20:47</time>
      </trkpt>
      <trkpt lat="28.55678" lon="-14.05782">
        <ele>38.6</ele>
        <time>2021-07-04 16:20:48</time>
      </trkpt>
      <trkpt lat="28.55675" lon="-14.05781">
        <ele>38.6</ele>
        <time>2021-07-04 16:20:49</time>
      </trkpt>
      <trkpt lat="28.55672" lon="-14.05781">
        <ele>38.6</ele>
        <time>2021-07-04 16:20:50</time>
      </trkpt>
      <trkpt lat="28.55669" lon="-14.05781">
        <ele>39</ele>
        <time>2021-07-04 16:20:51</time>
      </trkpt>
      <trkpt lat="28.55665" lon="-14.05781">
        <ele>39</ele>
        <time>2021-07-04 16:20:52</time>
      </trkpt>
      <trkpt lat="28.55662" lon="-14.05782">
        <ele>39</ele>
        <time>2021-07-04 16:20:53</time>
      </trkpt>
      <trkpt lat="28.55659" lon="-14.05784">
        <ele>39</ele>
        <time>2021-07-04 16:20:54</time>
      </trkpt>
      <trkpt lat="28.55657" lon="-14.05785">
        <ele>39.2</ele>
        <time>2021-07-04 16:20:55</time>
      </trkpt>
      <trkpt lat="28.55654" lon="-14.05785">
        <ele>39.2</ele>
        <time>2021-07-04 16:20:56</time>
      </trkpt>
      <trkpt lat="28.55651" lon="-14.05786">
        <ele>39.4</ele>
        <time>2021-07-04 16:20:57</time>
      </trkpt>
      <trkpt lat="28.55648" lon="-14.05786">
        <ele>39.4</ele>
        <time>2021-07-04 16:20:58</time>
      </trkpt>
      <trkpt lat="28.55645" lon="-14.05787">
        <ele>39.4</ele>
        <time>2021-07-04 16:20:59</time>
      </trkpt>
      <trkpt lat="28.55642" lon="-14.05787">
        <ele>39.4</ele>
        <time>2021-07-04 16:21:00</time>
      </trkpt>
      <trkpt lat="28.55639" lon="-14.05788">
        <ele>39.8</ele>
        <time>2021-07-04 16:21:01</time>
      </trkpt>
      <trkpt lat="28.55636" lon="-14.05788">
        <ele>39.8</ele>
        <time>2021-07-04 16:21:02</time>
      </trkpt>
      <trkpt lat="28.55634" lon="-14.05788">
        <ele>39.8</ele>
        <time>2021-07-04 16:21:03</time>
      </trkpt>
      <trkpt lat="28.55632" lon="-14.05788">
        <ele>39.8</ele>
        <time>2021-07-04 16:21:04</time>
      </trkpt>
      <trkpt lat="28.5563" lon="-14.05788">
        <ele>39.8</ele>
        <time>2021-07-04 16:21:05</time>
      </trkpt>
      <trkpt lat="28.55628" lon="-14.05787">
        <ele>40</ele>
        <time>2021-07-04 16:21:06</time>
      </trkpt>
      <trkpt lat="28.55626" lon="-14.05787">
        <ele>40</ele>
        <time>2021-07-04 16:21:07</time>
      </trkpt>
      <trkpt lat="28.55624" lon="-14.05786">
        <ele>40</ele>
        <time>2021-07-04 16:21:08</time>
      </trkpt>
      <trkpt lat="28.55622" lon="-14.05785">
        <ele>40.2</ele>
        <time>2021-07-04 16:21:09</time>
      </trkpt>
      <trkpt lat="28.55619" lon="-14.05785">
        <ele>40.2</ele>
        <time>2021-07-04 16:21:10</time>
      </trkpt>
      <trkpt lat="28.55617" lon="-14.05784">
        <ele>40.2</ele>
        <time>2021-07-04 16:21:11</time>
      </trkpt>
      <trkpt lat="28.55615" lon="-14.05783">
        <ele>40.2</ele>
        <time>2021-07-04 16:21:12</time>
      </trkpt>
      <trkpt lat="28.55612" lon="-14.05782">
        <ele>40.4</ele>
        <time>2021-07-04 16:21:13</time>
      </trkpt>
      <trkpt lat="28.5561" lon="-14.05781">
        <ele>40.4</ele>
        <time>2021-07-04 16:21:14</time>
      </trkpt>
      <trkpt lat="28.55607" lon="-14.05781">
        <ele>40.4</ele>
        <time>2021-07-04 16:21:15</time>
      </trkpt>
      <trkpt lat="28.55604" lon="-14.05781">
        <ele>40.6</ele>
        <time>2021-07-04 16:21:16</time>
      </trkpt>
      <trkpt lat="28.55602" lon="-14.05781">
        <ele>40.4</ele>
        <time>2021-07-04 16:21:17</time>
      </trkpt>
      <trkpt lat="28.55592" lon="-14.05783">
        <ele>40.6</ele>
        <time>2021-07-04 16:21:18</time>
      </trkpt>
      <trkpt lat="28.5559" lon="-14.05783">
        <ele>40.4</ele>
        <time>2021-07-04 16:21:19</time>
      </trkpt>
      <trkpt lat="28.55587" lon="-14.05785">
        <ele>40.2</ele>
        <time>2021-07-04 16:21:20</time>
      </trkpt>
      <trkpt lat="28.55584" lon="-14.05786">
        <ele>40</ele>
        <time>2021-07-04 16:21:21</time>
      </trkpt>
      <trkpt lat="28.55581" lon="-14.05789">
        <ele>40</ele>
        <time>2021-07-04 16:21:22</time>
      </trkpt>
      <trkpt lat="28.55578" lon="-14.05791">
        <ele>40</ele>
        <time>2021-07-04 16:21:23</time>
      </trkpt>
      <trkpt lat="28.55576" lon="-14.05793">
        <ele>40</ele>
        <time>2021-07-04 16:21:24</time>
      </trkpt>
      <trkpt lat="28.55575" lon="-14.05796">
        <ele>40.4</ele>
        <time>2021-07-04 16:21:25</time>
      </trkpt>
      <trkpt lat="28.55573" lon="-14.05799">
        <ele>40.6</ele>
        <time>2021-07-04 16:21:26</time>
      </trkpt>
      <trkpt lat="28.55571" lon="-14.05802">
        <ele>41</ele>
        <time>2021-07-04 16:21:27</time>
      </trkpt>
      <trkpt lat="28.55568" lon="-14.05804">
        <ele>41.2</ele>
        <time>2021-07-04 16:21:28</time>
      </trkpt>
      <trkpt lat="28.55565" lon="-14.05806">
        <ele>41.2</ele>
        <time>2021-07-04 16:21:29</time>
      </trkpt>
      <trkpt lat="28.55563" lon="-14.05807">
        <ele>41.6</ele>
        <time>2021-07-04 16:21:30</time>
      </trkpt>
      <trkpt lat="28.55562" lon="-14.05808">
        <ele>41.8</ele>
        <time>2021-07-04 16:21:31</time>
      </trkpt>
      <trkpt lat="28.55561" lon="-14.05809">
        <ele>42</ele>
        <time>2021-07-04 16:21:32</time>
      </trkpt>
      <trkpt lat="28.55559" lon="-14.05811">
        <ele>42.2</ele>
        <time>2021-07-04 16:21:33</time>
      </trkpt>
      <trkpt lat="28.55557" lon="-14.05813">
        <ele>42.2</ele>
        <time>2021-07-04 16:21:34</time>
      </trkpt>
      <trkpt lat="28.55555" lon="-14.05815">
        <ele>42.6</ele>
        <time>2021-07-04 16:21:35</time>
      </trkpt>
      <trkpt lat="28.5555" lon="-14.05822">
        <ele>43</ele>
        <time>2021-07-04 16:21:36</time>
      </trkpt>
      <trkpt lat="28.55548" lon="-14.05825">
        <ele>43</ele>
        <time>2021-07-04 16:21:37</time>
      </trkpt>
      <trkpt lat="28.55546" lon="-14.05827">
        <ele>43</ele>
        <time>2021-07-04 16:21:38</time>
      </trkpt>
      <trkpt lat="28.55544" lon="-14.05829">
        <ele>43</ele>
        <time>2021-07-04 16:21:39</time>
      </trkpt>
      <trkpt lat="28.55542" lon="-14.05832">
        <ele>43</ele>
        <time>2021-07-04 16:21:40</time>
      </trkpt>
      <trkpt lat="28.5554" lon="-14.05834">
        <ele>43</ele>
        <time>2021-07-04 16:21:41</time>
      </trkpt>
      <trkpt lat="28.55537" lon="-14.05837">
        <ele>43</ele>
        <time>2021-07-04 16:21:42</time>
      </trkpt>
      <trkpt lat="28.55535" lon="-14.0584">
        <ele>43</ele>
        <time>2021-07-04 16:21:43</time>
      </trkpt>
      <trkpt lat="28.55532" lon="-14.05843">
        <ele>42.6</ele>
        <time>2021-07-04 16:21:44</time>
      </trkpt>
      <trkpt lat="28.5553" lon="-14.05846">
        <ele>42.4</ele>
        <time>2021-07-04 16:21:45</time>
      </trkpt>
      <trkpt lat="28.55527" lon="-14.05848">
        <ele>42.2</ele>
        <time>2021-07-04 16:21:46</time>
      </trkpt>
      <trkpt lat="28.55525" lon="-14.05851">
        <ele>42.2</ele>
        <time>2021-07-04 16:21:47</time>
      </trkpt>
      <trkpt lat="28.55523" lon="-14.05853">
        <ele>42</ele>
        <time>2021-07-04 16:21:48</time>
      </trkpt>
      <trkpt lat="28.55521" lon="-14.05854">
        <ele>42</ele>
        <time>2021-07-04 16:21:49</time>
      </trkpt>
      <trkpt lat="28.55518" lon="-14.05856">
        <ele>42</ele>
        <time>2021-07-04 16:21:50</time>
      </trkpt>
      <trkpt lat="28.55516" lon="-14.05858">
        <ele>42</ele>
        <time>2021-07-04 16:21:51</time>
      </trkpt>
      <trkpt lat="28.55513" lon="-14.05859">
        <ele>42</ele>
        <time>2021-07-04 16:21:52</time>
      </trkpt>
      <trkpt lat="28.5551" lon="-14.0586">
        <ele>42</ele>
        <time>2021-07-04 16:21:53</time>
      </trkpt>
      <trkpt lat="28.55508" lon="-14.05861">
        <ele>42</ele>
        <time>2021-07-04 16:21:54</time>
      </trkpt>
      <trkpt lat="28.55503" lon="-14.05863">
        <ele>42.2</ele>
        <time>2021-07-04 16:21:55</time>
      </trkpt>
      <trkpt lat="28.55501" lon="-14.05863">
        <ele>42.4</ele>
        <time>2021-07-04 16:21:56</time>
      </trkpt>
      <trkpt lat="28.55499" lon="-14.05863">
        <ele>42.6</ele>
        <time>2021-07-04 16:21:57</time>
      </trkpt>
      <trkpt lat="28.55497" lon="-14.05863">
        <ele>43</ele>
        <time>2021-07-04 16:21:58</time>
      </trkpt>
      <trkpt lat="28.55496" lon="-14.05865">
        <ele>43.4</ele>
        <time>2021-07-04 16:21:59</time>
      </trkpt>
      <trkpt lat="28.55494" lon="-14.05868">
        <ele>43.6</ele>
        <time>2021-07-04 16:22:00</time>
      </trkpt>
      <trkpt lat="28.55493" lon="-14.0587">
        <ele>44</ele>
        <time>2021-07-04 16:22:01</time>
      </trkpt>
      <trkpt lat="28.55492" lon="-14.05873">
        <ele>44.4</ele>
        <time>2021-07-04 16:22:02</time>
      </trkpt>
      <trkpt lat="28.55491" lon="-14.05876">
        <ele>44.6</ele>
        <time>2021-07-04 16:22:03</time>
      </trkpt>
      <trkpt lat="28.55491" lon="-14.05879">
        <ele>45</ele>
        <time>2021-07-04 16:22:04</time>
      </trkpt>
      <trkpt lat="28.5549" lon="-14.05883">
        <ele>45.2</ele>
        <time>2021-07-04 16:22:05</time>
      </trkpt>
      <trkpt lat="28.55489" lon="-14.05885">
        <ele>45.6</ele>
        <time>2021-07-04 16:22:06</time>
      </trkpt>
      <trkpt lat="28.55487" lon="-14.05888">
        <ele>45.6</ele>
        <time>2021-07-04 16:22:07</time>
      </trkpt>
      <trkpt lat="28.55486" lon="-14.0589">
        <ele>46.2</ele>
        <time>2021-07-04 16:22:08</time>
      </trkpt>
      <trkpt lat="28.55484" lon="-14.05892">
        <ele>46.6</ele>
        <time>2021-07-04 16:22:09</time>
      </trkpt>
      <trkpt lat="28.55482" lon="-14.05894">
        <ele>47</ele>
        <time>2021-07-04 16:22:10</time>
      </trkpt>
      <trkpt lat="28.55479" lon="-14.05896">
        <ele>47.4</ele>
        <time>2021-07-04 16:22:11</time>
      </trkpt>
      <trkpt lat="28.55477" lon="-14.05898">
        <ele>47.4</ele>
        <time>2021-07-04 16:22:12</time>
      </trkpt>
      <trkpt lat="28.55474" lon="-14.059">
        <ele>47.4</ele>
        <time>2021-07-04 16:22:13</time>
      </trkpt>
      <trkpt lat="28.55472" lon="-14.05902">
        <ele>47.4</ele>
        <time>2021-07-04 16:22:14</time>
      </trkpt>
      <trkpt lat="28.5547" lon="-14.05903">
        <ele>47.4</ele>
        <time>2021-07-04 16:22:15</time>
      </trkpt>
      <trkpt lat="28.55468" lon="-14.05905">
        <ele>47.4</ele>
        <time>2021-07-04 16:22:16</time>
      </trkpt>
      <trkpt lat="28.55467" lon="-14.05906">
        <ele>47.4</ele>
        <time>2021-07-04 16:22:17</time>
      </trkpt>
      <trkpt lat="28.55466" lon="-14.05906">
        <ele>47.4</ele>
        <time>2021-07-04 16:22:18</time>
      </trkpt>
      <trkpt lat="28.55464" lon="-14.05907">
        <ele>47.4</ele>
        <time>2021-07-04 16:22:19</time>
      </trkpt>
      <trkpt lat="28.55463" lon="-14.05908">
        <ele>47.6</ele>
        <time>2021-07-04 16:22:20</time>
      </trkpt>
      <trkpt lat="28.55462" lon="-14.05909">
        <ele>47.6</ele>
        <time>2021-07-04 16:22:21</time>
      </trkpt>
      <trkpt lat="28.5546" lon="-14.05911">
        <ele>47.6</ele>
        <time>2021-07-04 16:22:22</time>
      </trkpt>
      <trkpt lat="28.55459" lon="-14.05913">
        <ele>47.8</ele>
        <time>2021-07-04 16:22:23</time>
      </trkpt>
      <trkpt lat="28.55457" lon="-14.05915">
        <ele>47.8</ele>
        <time>2021-07-04 16:22:24</time>
      </trkpt>
      <trkpt lat="28.55456" lon="-14.05917">
        <ele>47.8</ele>
        <time>2021-07-04 16:22:25</time>
      </trkpt>
      <trkpt lat="28.55454" lon="-14.05919">
        <ele>47.8</ele>
        <time>2021-07-04 16:22:26</time>
      </trkpt>
      <trkpt lat="28.55453" lon="-14.05922">
        <ele>47.8</ele>
        <time>2021-07-04 16:22:27</time>
      </trkpt>
      <trkpt lat="28.55451" lon="-14.05924">
        <ele>48</ele>
        <time>2021-07-04 16:22:28</time>
      </trkpt>
      <trkpt lat="28.5545" lon="-14.05927">
        <ele>48</ele>
        <time>2021-07-04 16:22:29</time>
      </trkpt>
      <trkpt lat="28.55449" lon="-14.05929">
        <ele>48.6</ele>
        <time>2021-07-04 16:22:30</time>
      </trkpt>
      <trkpt lat="28.55447" lon="-14.05932">
        <ele>48.8</ele>
        <time>2021-07-04 16:22:31</time>
      </trkpt>
      <trkpt lat="28.55445" lon="-14.05934">
        <ele>49</ele>
        <time>2021-07-04 16:22:32</time>
      </trkpt>
      <trkpt lat="28.55443" lon="-14.05936">
        <ele>49</ele>
        <time>2021-07-04 16:22:33</time>
      </trkpt>
      <trkpt lat="28.55441" lon="-14.05938">
        <ele>49</ele>
        <time>2021-07-04 16:22:34</time>
      </trkpt>
      <trkpt lat="28.55438" lon="-14.05939">
        <ele>49</ele>
        <time>2021-07-04 16:22:35</time>
      </trkpt>
      <trkpt lat="28.55436" lon="-14.05941">
        <ele>49</ele>
        <time>2021-07-04 16:22:36</time>
      </trkpt>
      <trkpt lat="28.55434" lon="-14.05942">
        <ele>48.8</ele>
        <time>2021-07-04 16:22:37</time>
      </trkpt>
      <trkpt lat="28.55431" lon="-14.05944">
        <ele>48.8</ele>
        <time>2021-07-04 16:22:38</time>
      </trkpt>
      <trkpt lat="28.55429" lon="-14.05946">
        <ele>48.4</ele>
        <time>2021-07-04 16:22:39</time>
      </trkpt>
      <trkpt lat="28.55427" lon="-14.05947">
        <ele>48.4</ele>
        <time>2021-07-04 16:22:40</time>
      </trkpt>
      <trkpt lat="28.55424" lon="-14.05949">
        <ele>48.4</ele>
        <time>2021-07-04 16:22:41</time>
      </trkpt>
      <trkpt lat="28.55421" lon="-14.0595">
        <ele>48.2</ele>
        <time>2021-07-04 16:22:42</time>
      </trkpt>
      <trkpt lat="28.55419" lon="-14.05951">
        <ele>48.2</ele>
        <time>2021-07-04 16:22:43</time>
      </trkpt>
      <trkpt lat="28.55419" lon="-14.05952">
        <ele>48.2</ele>
        <time>2021-07-04 16:22:44</time>
      </trkpt>
      <trkpt lat="28.55419" lon="-14.05952">
        <ele>48.2</ele>
        <time>2021-07-04 16:22:45</time>
      </trkpt>
      <trkpt lat="28.55419" lon="-14.05952">
        <ele>48.2</ele>
        <time>2021-07-04 16:22:46</time>
      </trkpt>
      <trkpt lat="28.55419" lon="-14.05952">
        <ele>47.8</ele>
        <time>2021-07-04 16:22:47</time>
      </trkpt>
      <trkpt lat="28.55417" lon="-14.05952">
        <ele>47.8</ele>
        <time>2021-07-04 16:22:48</time>
      </trkpt>
      <trkpt lat="28.55416" lon="-14.05952">
        <ele>47.6</ele>
        <time>2021-07-04 16:22:49</time>
      </trkpt>
      <trkpt lat="28.55414" lon="-14.05953">
        <ele>47.6</ele>
        <time>2021-07-04 16:22:50</time>
      </trkpt>
      <trkpt lat="28.55411" lon="-14.05954">
        <ele>47.6</ele>
        <time>2021-07-04 16:22:51</time>
      </trkpt>
      <trkpt lat="28.55409" lon="-14.05954">
        <ele>47.2</ele>
        <time>2021-07-04 16:22:52</time>
      </trkpt>
      <trkpt lat="28.55407" lon="-14.05954">
        <ele>47.2</ele>
        <time>2021-07-04 16:22:53</time>
      </trkpt>
      <trkpt lat="28.55405" lon="-14.05954">
        <ele>47.2</ele>
        <time>2021-07-04 16:22:54</time>
      </trkpt>
      <trkpt lat="28.55402" lon="-14.05954">
        <ele>47.2</ele>
        <time>2021-07-04 16:22:55</time>
      </trkpt>
      <trkpt lat="28.554" lon="-14.05954">
        <ele>47.6</ele>
        <time>2021-07-04 16:22:56</time>
      </trkpt>
      <trkpt lat="28.55398" lon="-14.05954">
        <ele>47.6</ele>
        <time>2021-07-04 16:22:57</time>
      </trkpt>
      <trkpt lat="28.55396" lon="-14.05954">
        <ele>47.6</ele>
        <time>2021-07-04 16:22:58</time>
      </trkpt>
      <trkpt lat="28.55394" lon="-14.05956">
        <ele>47.8</ele>
        <time>2021-07-04 16:22:59</time>
      </trkpt>
      <trkpt lat="28.55392" lon="-14.05958">
        <ele>47.8</ele>
        <time>2021-07-04 16:23:00</time>
      </trkpt>
      <trkpt lat="28.55391" lon="-14.05961">
        <ele>48</ele>
        <time>2021-07-04 16:23:01</time>
      </trkpt>
      <trkpt lat="28.5539" lon="-14.05965">
        <ele>48</ele>
        <time>2021-07-04 16:23:02</time>
      </trkpt>
      <trkpt lat="28.5539" lon="-14.05968">
        <ele>48.2</ele>
        <time>2021-07-04 16:23:03</time>
      </trkpt>
      <trkpt lat="28.55389" lon="-14.05971">
        <ele>48.2</ele>
        <time>2021-07-04 16:23:04</time>
      </trkpt>
      <trkpt lat="28.55389" lon="-14.05973">
        <ele>48.4</ele>
        <time>2021-07-04 16:23:05</time>
      </trkpt>
      <trkpt lat="28.55388" lon="-14.05976">
        <ele>48.4</ele>
        <time>2021-07-04 16:23:06</time>
      </trkpt>
      <trkpt lat="28.55386" lon="-14.05977">
        <ele>48.4</ele>
        <time>2021-07-04 16:23:07</time>
      </trkpt>
      <trkpt lat="28.55383" lon="-14.05979">
        <ele>48.4</ele>
        <time>2021-07-04 16:23:08</time>
      </trkpt>
      <trkpt lat="28.5538" lon="-14.0598">
        <ele>48.4</ele>
        <time>2021-07-04 16:23:09</time>
      </trkpt>
      <trkpt lat="28.55377" lon="-14.05982">
        <ele>48.2</ele>
        <time>2021-07-04 16:23:10</time>
      </trkpt>
      <trkpt lat="28.55374" lon="-14.05984">
        <ele>48</ele>
        <time>2021-07-04 16:23:11</time>
      </trkpt>
      <trkpt lat="28.55371" lon="-14.05986">
        <ele>48</ele>
        <time>2021-07-04 16:23:12</time>
      </trkpt>
      <trkpt lat="28.55368" lon="-14.05988">
        <ele>47.6</ele>
        <time>2021-07-04 16:23:13</time>
      </trkpt>
      <trkpt lat="28.55366" lon="-14.0599">
        <ele>47.6</ele>
        <time>2021-07-04 16:23:14</time>
      </trkpt>
      <trkpt lat="28.55364" lon="-14.05991">
        <ele>47.6</ele>
        <time>2021-07-04 16:23:15</time>
      </trkpt>
      <trkpt lat="28.55362" lon="-14.05993">
        <ele>47.6</ele>
        <time>2021-07-04 16:23:16</time>
      </trkpt>
      <trkpt lat="28.5536" lon="-14.05995">
        <ele>47.6</ele>
        <time>2021-07-04 16:23:17</time>
      </trkpt>
      <trkpt lat="28.55358" lon="-14.05997">
        <ele>47.6</ele>
        <time>2021-07-04 16:23:18</time>
      </trkpt>
      <trkpt lat="28.55357" lon="-14.06">
        <ele>47.6</ele>
        <time>2021-07-04 16:23:19</time>
      </trkpt>
      <trkpt lat="28.55356" lon="-14.06002">
        <ele>48</ele>
        <time>2021-07-04 16:23:20</time>
      </trkpt>
      <trkpt lat="28.55355" lon="-14.06004">
        <ele>48.2</ele>
        <time>2021-07-04 16:23:21</time>
      </trkpt>
      <trkpt lat="28.55354" lon="-14.06007">
        <ele>48.2</ele>
        <time>2021-07-04 16:23:22</time>
      </trkpt>
      <trkpt lat="28.55354" lon="-14.06009">
        <ele>48.6</ele>
        <time>2021-07-04 16:23:23</time>
      </trkpt>
      <trkpt lat="28.55354" lon="-14.06011">
        <ele>49</ele>
        <time>2021-07-04 16:23:24</time>
      </trkpt>
      <trkpt lat="28.55354" lon="-14.06014">
        <ele>49.4</ele>
        <time>2021-07-04 16:23:25</time>
      </trkpt>
      <trkpt lat="28.55355" lon="-14.06016">
        <ele>50</ele>
        <time>2021-07-04 16:23:26</time>
      </trkpt>
      <trkpt lat="28.55355" lon="-14.06018">
        <ele>50.4</ele>
        <time>2021-07-04 16:23:27</time>
      </trkpt>
      <trkpt lat="28.55354" lon="-14.0602">
        <ele>50.8</ele>
        <time>2021-07-04 16:23:28</time>
      </trkpt>
      <trkpt lat="28.55354" lon="-14.06022">
        <ele>51.4</ele>
        <time>2021-07-04 16:23:29</time>
      </trkpt>
      <trkpt lat="28.55353" lon="-14.06025">
        <ele>51.8</ele>
        <time>2021-07-04 16:23:30</time>
      </trkpt>
      <trkpt lat="28.55352" lon="-14.06027">
        <ele>52.4</ele>
        <time>2021-07-04 16:23:31</time>
      </trkpt>
      <trkpt lat="28.55351" lon="-14.0603">
        <ele>53</ele>
        <time>2021-07-04 16:23:32</time>
      </trkpt>
      <trkpt lat="28.55349" lon="-14.06032">
        <ele>53.4</ele>
        <time>2021-07-04 16:23:33</time>
      </trkpt>
      <trkpt lat="28.55347" lon="-14.06035">
        <ele>53.8</ele>
        <time>2021-07-04 16:23:34</time>
      </trkpt>
      <trkpt lat="28.55346" lon="-14.06037">
        <ele>54.2</ele>
        <time>2021-07-04 16:23:35</time>
      </trkpt>
      <trkpt lat="28.55344" lon="-14.06039">
        <ele>54.6</ele>
        <time>2021-07-04 16:23:36</time>
      </trkpt>
      <trkpt lat="28.55342" lon="-14.06042">
        <ele>55</ele>
        <time>2021-07-04 16:23:37</time>
      </trkpt>
      <trkpt lat="28.5534" lon="-14.06045">
        <ele>55.2</ele>
        <time>2021-07-04 16:23:38</time>
      </trkpt>
      <trkpt lat="28.55339" lon="-14.06049">
        <ele>55.4</ele>
        <time>2021-07-04 16:23:39</time>
      </trkpt>
      <trkpt lat="28.55337" lon="-14.06052">
        <ele>55.8</ele>
        <time>2021-07-04 16:23:40</time>
      </trkpt>
      <trkpt lat="28.55336" lon="-14.06055">
        <ele>56.2</ele>
        <time>2021-07-04 16:23:41</time>
      </trkpt>
      <trkpt lat="28.55334" lon="-14.06057">
        <ele>56.4</ele>
        <time>2021-07-04 16:23:42</time>
      </trkpt>
      <trkpt lat="28.55333" lon="-14.06059">
        <ele>56.8</ele>
        <time>2021-07-04 16:23:43</time>
      </trkpt>
      <trkpt lat="28.55331" lon="-14.06061">
        <ele>57</ele>
        <time>2021-07-04 16:23:44</time>
      </trkpt>
      <trkpt lat="28.5533" lon="-14.06064">
        <ele>57</ele>
        <time>2021-07-04 16:23:45</time>
      </trkpt>
      <trkpt lat="28.55329" lon="-14.06066">
        <ele>57</ele>
        <time>2021-07-04 16:23:46</time>
      </trkpt>
      <trkpt lat="28.55328" lon="-14.06069">
        <ele>57.4</ele>
        <time>2021-07-04 16:23:47</time>
      </trkpt>
      <trkpt lat="28.55327" lon="-14.06071">
        <ele>57.6</ele>
        <time>2021-07-04 16:23:48</time>
      </trkpt>
      <trkpt lat="28.55326" lon="-14.06074">
        <ele>57.8</ele>
        <time>2021-07-04 16:23:49</time>
      </trkpt>
      <trkpt lat="28.55324" lon="-14.06077">
        <ele>57.8</ele>
        <time>2021-07-04 16:23:50</time>
      </trkpt>
      <trkpt lat="28.55323" lon="-14.0608">
        <ele>57.8</ele>
        <time>2021-07-04 16:23:51</time>
      </trkpt>
      <trkpt lat="28.55322" lon="-14.06083">
        <ele>57.8</ele>
        <time>2021-07-04 16:23:52</time>
      </trkpt>
      <trkpt lat="28.5532" lon="-14.06085">
        <ele>57.6</ele>
        <time>2021-07-04 16:23:53</time>
      </trkpt>
      <trkpt lat="28.55319" lon="-14.06088">
        <ele>57.4</ele>
        <time>2021-07-04 16:23:54</time>
      </trkpt>
      <trkpt lat="28.55318" lon="-14.0609">
        <ele>57</ele>
        <time>2021-07-04 16:23:55</time>
      </trkpt>
      <trkpt lat="28.55317" lon="-14.06093">
        <ele>56.6</ele>
        <time>2021-07-04 16:23:56</time>
      </trkpt>
      <trkpt lat="28.55316" lon="-14.06097">
        <ele>56.4</ele>
        <time>2021-07-04 16:23:57</time>
      </trkpt>
      <trkpt lat="28.55315" lon="-14.061">
        <ele>56.2</ele>
        <time>2021-07-04 16:23:58</time>
      </trkpt>
      <trkpt lat="28.55314" lon="-14.06103">
        <ele>55.8</ele>
        <time>2021-07-04 16:23:59</time>
      </trkpt>
      <trkpt lat="28.55314" lon="-14.06107">
        <ele>55.8</ele>
        <time>2021-07-04 16:24:00</time>
      </trkpt>
      <trkpt lat="28.55313" lon="-14.0611">
        <ele>55.6</ele>
        <time>2021-07-04 16:24:01</time>
      </trkpt>
      <trkpt lat="28.55313" lon="-14.06113">
        <ele>55.6</ele>
        <time>2021-07-04 16:24:02</time>
      </trkpt>
      <trkpt lat="28.55313" lon="-14.06116">
        <ele>55.2</ele>
        <time>2021-07-04 16:24:03</time>
      </trkpt>
      <trkpt lat="28.55312" lon="-14.06118">
        <ele>55.2</ele>
        <time>2021-07-04 16:24:04</time>
      </trkpt>
      <trkpt lat="28.55312" lon="-14.06121">
        <ele>55.2</ele>
        <time>2021-07-04 16:24:05</time>
      </trkpt>
      <trkpt lat="28.55311" lon="-14.06125">
        <ele>55.2</ele>
        <time>2021-07-04 16:24:06</time>
      </trkpt>
      <trkpt lat="28.55312" lon="-14.06129">
        <ele>54.8</ele>
        <time>2021-07-04 16:24:07</time>
      </trkpt>
      <trkpt lat="28.55312" lon="-14.06132">
        <ele>54.8</ele>
        <time>2021-07-04 16:24:08</time>
      </trkpt>
      <trkpt lat="28.55312" lon="-14.06136">
        <ele>54.4</ele>
        <time>2021-07-04 16:24:09</time>
      </trkpt>
      <trkpt lat="28.55312" lon="-14.06139">
        <ele>54.4</ele>
        <time>2021-07-04 16:24:10</time>
      </trkpt>
      <trkpt lat="28.55313" lon="-14.06141">
        <ele>54.2</ele>
        <time>2021-07-04 16:24:11</time>
      </trkpt>
      <trkpt lat="28.55313" lon="-14.06144">
        <ele>54.2</ele>
        <time>2021-07-04 16:24:12</time>
      </trkpt>
      <trkpt lat="28.55313" lon="-14.06147">
        <ele>54.2</ele>
        <time>2021-07-04 16:24:13</time>
      </trkpt>
      <trkpt lat="28.55314" lon="-14.0615">
        <ele>54.2</ele>
        <time>2021-07-04 16:24:18</time>
      </trkpt>
      <trkpt lat="28.55314" lon="-14.06153">
        <ele>54.4</ele>
        <time>2021-07-04 16:24:19</time>
      </trkpt>
      <trkpt lat="28.55315" lon="-14.06155">
        <ele>54.4</ele>
        <time>2021-07-04 16:24:20</time>
      </trkpt>
      <trkpt lat="28.55316" lon="-14.06159">
        <ele>54.4</ele>
        <time>2021-07-04 16:24:21</time>
      </trkpt>
      <trkpt lat="28.55316" lon="-14.06162">
        <ele>54.8</ele>
        <time>2021-07-04 16:24:22</time>
      </trkpt>
      <trkpt lat="28.55317" lon="-14.06165">
        <ele>54.8</ele>
        <time>2021-07-04 16:24:23</time>
      </trkpt>
      <trkpt lat="28.55318" lon="-14.06167">
        <ele>55</ele>
        <time>2021-07-04 16:24:24</time>
      </trkpt>
      <trkpt lat="28.55318" lon="-14.0617">
        <ele>55.2</ele>
        <time>2021-07-04 16:24:25</time>
      </trkpt>
      <trkpt lat="28.55317" lon="-14.06173">
        <ele>55.2</ele>
        <time>2021-07-04 16:24:26</time>
      </trkpt>
      <trkpt lat="28.55317" lon="-14.06175">
        <ele>55.2</ele>
        <time>2021-07-04 16:24:27</time>
      </trkpt>
      <trkpt lat="28.55316" lon="-14.06177">
        <ele>55.2</ele>
        <time>2021-07-04 16:24:28</time>
      </trkpt>
      <trkpt lat="28.55317" lon="-14.06179">
        <ele>55.2</ele>
        <time>2021-07-04 16:24:29</time>
      </trkpt>
      <trkpt lat="28.55318" lon="-14.06182">
        <ele>55.2</ele>
        <time>2021-07-04 16:24:30</time>
      </trkpt>
      <trkpt lat="28.5532" lon="-14.06185">
        <ele>55</ele>
        <time>2021-07-04 16:24:31</time>
      </trkpt>
      <trkpt lat="28.55321" lon="-14.06187">
        <ele>55</ele>
        <time>2021-07-04 16:24:32</time>
      </trkpt>
      <trkpt lat="28.55322" lon="-14.06189">
        <ele>55</ele>
        <time>2021-07-04 16:24:33</time>
      </trkpt>
      <trkpt lat="28.55323" lon="-14.06191">
        <ele>55.2</ele>
        <time>2021-07-04 16:24:34</time>
      </trkpt>
      <trkpt lat="28.55323" lon="-14.06193">
        <ele>55.2</ele>
        <time>2021-07-04 16:24:35</time>
      </trkpt>
      <trkpt lat="28.55323" lon="-14.06196">
        <ele>55.2</ele>
        <time>2021-07-04 16:24:36</time>
      </trkpt>
      <trkpt lat="28.55324" lon="-14.06198">
        <ele>55.2</ele>
        <time>2021-07-04 16:24:37</time>
      </trkpt>
      <trkpt lat="28.55324" lon="-14.06201">
        <ele>55.2</ele>
        <time>2021-07-04 16:24:38</time>
      </trkpt>
      <trkpt lat="28.55324" lon="-14.06202">
        <ele>55.2</ele>
        <time>2021-07-04 16:24:39</time>
      </trkpt>
      <trkpt lat="28.55324" lon="-14.06203">
        <ele>55.2</ele>
        <time>2021-07-04 16:24:40</time>
      </trkpt>
      <trkpt lat="28.55324" lon="-14.06203">
        <ele>55.2</ele>
        <time>2021-07-04 16:24:41</time>
      </trkpt>
      <trkpt lat="28.55324" lon="-14.06202">
        <ele>55.4</ele>
        <time>2021-07-04 16:24:42</time>
      </trkpt>
      <trkpt lat="28.55325" lon="-14.06202">
        <ele>54.6</ele>
        <time>2021-07-04 16:24:43</time>
      </trkpt>
      <trkpt lat="28.55326" lon="-14.06203">
        <ele>54.2</ele>
        <time>2021-07-04 16:24:44</time>
      </trkpt>
      <trkpt lat="28.55326" lon="-14.06203">
        <ele>53.8</ele>
        <time>2021-07-04 16:24:45</time>
      </trkpt>
      <trkpt lat="28.55326" lon="-14.06203">
        <ele>53.8</ele>
        <time>2021-07-04 16:24:46</time>
      </trkpt>
      <trkpt lat="28.55326" lon="-14.06203">
        <ele>53.8</ele>
        <time>2021-07-04 16:24:47</time>
      </trkpt>
      <trkpt lat="28.55327" lon="-14.06205">
        <ele>56.2</ele>
        <time>2021-07-04 16:24:48</time>
      </trkpt>
      <trkpt lat="28.55326" lon="-14.06205">
        <ele>56.2</ele>
        <time>2021-07-04 16:24:49</time>
      </trkpt>
      <trkpt lat="28.55326" lon="-14.06205">
        <ele>56</ele>
        <time>2021-07-04 16:24:50</time>
      </trkpt>
      <trkpt lat="28.55326" lon="-14.06206">
        <ele>55.8</ele>
        <time>2021-07-04 16:24:51</time>
      </trkpt>
      <trkpt lat="28.55325" lon="-14.06208">
        <ele>55.4</ele>
        <time>2021-07-04 16:24:52</time>
      </trkpt>
      <trkpt lat="28.55324" lon="-14.06209">
        <ele>55.2</ele>
        <time>2021-07-04 16:24:53</time>
      </trkpt>
      <trkpt lat="28.55323" lon="-14.06211">
        <ele>55.2</ele>
        <time>2021-07-04 16:24:54</time>
      </trkpt>
      <trkpt lat="28.55324" lon="-14.06213">
        <ele>55.2</ele>
        <time>2021-07-04 16:24:55</time>
      </trkpt>
      <trkpt lat="28.55325" lon="-14.06216">
        <ele>54.8</ele>
        <time>2021-07-04 16:24:56</time>
      </trkpt>
      <trkpt lat="28.55326" lon="-14.06218">
        <ele>54.8</ele>
        <time>2021-07-04 16:24:57</time>
      </trkpt>
      <trkpt lat="28.55327" lon="-14.06221">
        <ele>54.4</ele>
        <time>2021-07-04 16:24:58</time>
      </trkpt>
      <trkpt lat="28.55329" lon="-14.06224">
        <ele>54.4</ele>
        <time>2021-07-04 16:24:59</time>
      </trkpt>
      <trkpt lat="28.5533" lon="-14.06227">
        <ele>54</ele>
        <time>2021-07-04 16:25:00</time>
      </trkpt>
      <trkpt lat="28.55332" lon="-14.0623">
        <ele>54</ele>
        <time>2021-07-04 16:25:01</time>
      </trkpt>
      <trkpt lat="28.55333" lon="-14.06232">
        <ele>54</ele>
        <time>2021-07-04 16:25:02</time>
      </trkpt>
      <trkpt lat="28.55334" lon="-14.06235">
        <ele>54</ele>
        <time>2021-07-04 16:25:03</time>
      </trkpt>
      <trkpt lat="28.55335" lon="-14.06237">
        <ele>54</ele>
        <time>2021-07-04 16:25:04</time>
      </trkpt>
      <trkpt lat="28.55337" lon="-14.0624">
        <ele>54</ele>
        <time>2021-07-04 16:25:05</time>
      </trkpt>
      <trkpt lat="28.55338" lon="-14.06243">
        <ele>54</ele>
        <time>2021-07-04 16:25:06</time>
      </trkpt>
      <trkpt lat="28.55339" lon="-14.06246">
        <ele>54</ele>
        <time>2021-07-04 16:25:07</time>
      </trkpt>
      <trkpt lat="28.5534" lon="-14.06249">
        <ele>54</ele>
        <time>2021-07-04 16:25:08</time>
      </trkpt>
      <trkpt lat="28.55341" lon="-14.06252">
        <ele>54</ele>
        <time>2021-07-04 16:25:09</time>
      </trkpt>
      <trkpt lat="28.55342" lon="-14.06255">
        <ele>53.8</ele>
        <time>2021-07-04 16:25:10</time>
      </trkpt>
      <trkpt lat="28.55342" lon="-14.06258">
        <ele>53.8</ele>
        <time>2021-07-04 16:25:11</time>
      </trkpt>
      <trkpt lat="28.55343" lon="-14.06261">
        <ele>53.8</ele>
        <time>2021-07-04 16:25:12</time>
      </trkpt>
      <trkpt lat="28.55343" lon="-14.06263">
        <ele>53.8</ele>
        <time>2021-07-04 16:25:13</time>
      </trkpt>
      <trkpt lat="28.55343" lon="-14.06266">
        <ele>53.4</ele>
        <time>2021-07-04 16:25:14</time>
      </trkpt>
      <trkpt lat="28.55342" lon="-14.06268">
        <ele>53.4</ele>
        <time>2021-07-04 16:25:15</time>
      </trkpt>
      <trkpt lat="28.55341" lon="-14.06271">
        <ele>53</ele>
        <time>2021-07-04 16:25:16</time>
      </trkpt>
      <trkpt lat="28.5534" lon="-14.06273">
        <ele>53</ele>
        <time>2021-07-04 16:25:17</time>
      </trkpt>
      <trkpt lat="28.55339" lon="-14.06275">
        <ele>52.6</ele>
        <time>2021-07-04 16:25:18</time>
      </trkpt>
      <trkpt lat="28.55339" lon="-14.06277">
        <ele>52.6</ele>
        <time>2021-07-04 16:25:19</time>
      </trkpt>
      <trkpt lat="28.55338" lon="-14.06279">
        <ele>52.2</ele>
        <time>2021-07-04 16:25:20</time>
      </trkpt>
      <trkpt lat="28.55336" lon="-14.06282">
        <ele>51.8</ele>
        <time>2021-07-04 16:25:21</time>
      </trkpt>
      <trkpt lat="28.55335" lon="-14.06285">
        <ele>51.4</ele>
        <time>2021-07-04 16:25:22</time>
      </trkpt>
      <trkpt lat="28.55333" lon="-14.06288">
        <ele>51.2</ele>
        <time>2021-07-04 16:25:23</time>
      </trkpt>
      <trkpt lat="28.55332" lon="-14.06291">
        <ele>50.8</ele>
        <time>2021-07-04 16:25:24</time>
      </trkpt>
      <trkpt lat="28.55332" lon="-14.06294">
        <ele>50.6</ele>
        <time>2021-07-04 16:25:25</time>
      </trkpt>
      <trkpt lat="28.55331" lon="-14.06297">
        <ele>50.6</ele>
        <time>2021-07-04 16:25:26</time>
      </trkpt>
      <trkpt lat="28.55331" lon="-14.063">
        <ele>50.2</ele>
        <time>2021-07-04 16:25:27</time>
      </trkpt>
      <trkpt lat="28.55331" lon="-14.06303">
        <ele>50.2</ele>
        <time>2021-07-04 16:25:28</time>
      </trkpt>
      <trkpt lat="28.55331" lon="-14.06306">
        <ele>50.2</ele>
        <time>2021-07-04 16:25:29</time>
      </trkpt>
      <trkpt lat="28.55331" lon="-14.06308">
        <ele>50.2</ele>
        <time>2021-07-04 16:25:30</time>
      </trkpt>
      <trkpt lat="28.55331" lon="-14.06311">
        <ele>50.2</ele>
        <time>2021-07-04 16:25:31</time>
      </trkpt>
      <trkpt lat="28.55331" lon="-14.06313">
        <ele>50.2</ele>
        <time>2021-07-04 16:25:32</time>
      </trkpt>
      <trkpt lat="28.5533" lon="-14.06315">
        <ele>50.2</ele>
        <time>2021-07-04 16:25:33</time>
      </trkpt>
      <trkpt lat="28.5533" lon="-14.06318">
        <ele>50.2</ele>
        <time>2021-07-04 16:25:34</time>
      </trkpt>
      <trkpt lat="28.55329" lon="-14.0632">
        <ele>50.2</ele>
        <time>2021-07-04 16:25:35</time>
      </trkpt>
      <trkpt lat="28.55329" lon="-14.06321">
        <ele>50</ele>
        <time>2021-07-04 16:25:36</time>
      </trkpt>
      <trkpt lat="28.55328" lon="-14.06324">
        <ele>50</ele>
        <time>2021-07-04 16:25:37</time>
      </trkpt>
      <trkpt lat="28.55326" lon="-14.06326">
        <ele>49.6</ele>
        <time>2021-07-04 16:25:38</time>
      </trkpt>
      <trkpt lat="28.55325" lon="-14.06328">
        <ele>49.6</ele>
        <time>2021-07-04 16:25:39</time>
      </trkpt>
      <trkpt lat="28.55324" lon="-14.0633">
        <ele>49.4</ele>
        <time>2021-07-04 16:25:40</time>
      </trkpt>
      <trkpt lat="28.55322" lon="-14.06332">
        <ele>49.4</ele>
        <time>2021-07-04 16:25:41</time>
      </trkpt>
      <trkpt lat="28.55321" lon="-14.06334">
        <ele>49</ele>
        <time>2021-07-04 16:25:42</time>
      </trkpt>
      <trkpt lat="28.5532" lon="-14.06337">
        <ele>49</ele>
        <time>2021-07-04 16:25:43</time>
      </trkpt>
      <trkpt lat="28.55319" lon="-14.0634">
        <ele>48.8</ele>
        <time>2021-07-04 16:25:44</time>
      </trkpt>
      <trkpt lat="28.55319" lon="-14.06343">
        <ele>48.8</ele>
        <time>2021-07-04 16:25:45</time>
      </trkpt>
      <trkpt lat="28.55319" lon="-14.06346">
        <ele>48.6</ele>
        <time>2021-07-04 16:25:46</time>
      </trkpt>
      <trkpt lat="28.55319" lon="-14.06349">
        <ele>48.2</ele>
        <time>2021-07-04 16:25:47</time>
      </trkpt>
      <trkpt lat="28.55319" lon="-14.06353">
        <ele>47.8</ele>
        <time>2021-07-04 16:25:48</time>
      </trkpt>
      <trkpt lat="28.5532" lon="-14.06357">
        <ele>47.6</ele>
        <time>2021-07-04 16:25:49</time>
      </trkpt>
      <trkpt lat="28.55321" lon="-14.06361">
        <ele>47.4</ele>
        <time>2021-07-04 16:25:50</time>
      </trkpt>
      <trkpt lat="28.55323" lon="-14.06364">
        <ele>47</ele>
        <time>2021-07-04 16:25:51</time>
      </trkpt>
      <trkpt lat="28.55324" lon="-14.06367">
        <ele>46.6</ele>
        <time>2021-07-04 16:25:52</time>
      </trkpt>
      <trkpt lat="28.55325" lon="-14.0637">
        <ele>46.6</ele>
        <time>2021-07-04 16:25:53</time>
      </trkpt>
      <trkpt lat="28.55325" lon="-14.06373">
        <ele>46.2</ele>
        <time>2021-07-04 16:25:54</time>
      </trkpt>
      <trkpt lat="28.55325" lon="-14.06376">
        <ele>46.2</ele>
        <time>2021-07-04 16:25:55</time>
      </trkpt>
      <trkpt lat="28.55324" lon="-14.06378">
        <ele>45.8</ele>
        <time>2021-07-04 16:25:56</time>
      </trkpt>
      <trkpt lat="28.55323" lon="-14.06381">
        <ele>45.8</ele>
        <time>2021-07-04 16:25:57</time>
      </trkpt>
      <trkpt lat="28.55322" lon="-14.06384">
        <ele>45.8</ele>
        <time>2021-07-04 16:25:58</time>
      </trkpt>
      <trkpt lat="28.55321" lon="-14.06386">
        <ele>45.4</ele>
        <time>2021-07-04 16:25:59</time>
      </trkpt>
      <trkpt lat="28.55319" lon="-14.06388">
        <ele>45.2</ele>
        <time>2021-07-04 16:26:00</time>
      </trkpt>
      <trkpt lat="28.55317" lon="-14.0639">
        <ele>44.8</ele>
        <time>2021-07-04 16:26:01</time>
      </trkpt>
      <trkpt lat="28.55315" lon="-14.06392">
        <ele>44.8</ele>
        <time>2021-07-04 16:26:02</time>
      </trkpt>
      <trkpt lat="28.55312" lon="-14.06394">
        <ele>44.4</ele>
        <time>2021-07-04 16:26:03</time>
      </trkpt>
      <trkpt lat="28.55309" lon="-14.06396">
        <ele>44.2</ele>
        <time>2021-07-04 16:26:04</time>
      </trkpt>
      <trkpt lat="28.55306" lon="-14.06397">
        <ele>44</ele>
        <time>2021-07-04 16:26:05</time>
      </trkpt>
      <trkpt lat="28.55303" lon="-14.06398">
        <ele>43.6</ele>
        <time>2021-07-04 16:26:06</time>
      </trkpt>
      <trkpt lat="28.55299" lon="-14.06399">
        <ele>43.2</ele>
        <time>2021-07-04 16:26:07</time>
      </trkpt>
      <trkpt lat="28.55296" lon="-14.064">
        <ele>43</ele>
        <time>2021-07-04 16:26:08</time>
      </trkpt>
      <trkpt lat="28.55292" lon="-14.064">
        <ele>42.8</ele>
        <time>2021-07-04 16:26:09</time>
      </trkpt>
      <trkpt lat="28.55288" lon="-14.06401">
        <ele>42.4</ele>
        <time>2021-07-04 16:26:12</time>
      </trkpt>
      <trkpt lat="28.55285" lon="-14.06403">
        <ele>42.4</ele>
        <time>2021-07-04 16:26:13</time>
      </trkpt>
      <trkpt lat="28.55281" lon="-14.06404">
        <ele>42.2</ele>
        <time>2021-07-04 16:26:14</time>
      </trkpt>
      <trkpt lat="28.55278" lon="-14.06405">
        <ele>42.2</ele>
        <time>2021-07-04 16:26:15</time>
      </trkpt>
      <trkpt lat="28.55275" lon="-14.06406">
        <ele>42</ele>
        <time>2021-07-04 16:26:16</time>
      </trkpt>
      <trkpt lat="28.55272" lon="-14.06407">
        <ele>42</ele>
        <time>2021-07-04 16:26:37</time>
      </trkpt>
      <trkpt lat="28.55269" lon="-14.06408">
        <ele>42</ele>
        <time>2021-07-04 16:26:38</time>
      </trkpt>
      <trkpt lat="28.55266" lon="-14.06408">
        <ele>42</ele>
        <time>2021-07-04 16:26:39</time>
      </trkpt>
      <trkpt lat="28.55263" lon="-14.06409">
        <ele>42</ele>
        <time>2021-07-04 16:26:40</time>
      </trkpt>
      <trkpt lat="28.5526" lon="-14.06409">
        <ele>42</ele>
        <time>2021-07-04 16:26:41</time>
      </trkpt>
      <trkpt lat="28.55256" lon="-14.0641">
        <ele>42</ele>
        <time>2021-07-04 16:26:42</time>
      </trkpt>
      <trkpt lat="28.55253" lon="-14.06411">
        <ele>42</ele>
        <time>2021-07-04 16:26:43</time>
      </trkpt>
      <trkpt lat="28.55249" lon="-14.06412">
        <ele>42</ele>
        <time>2021-07-04 16:26:44</time>
      </trkpt>
      <trkpt lat="28.55246" lon="-14.06414">
        <ele>42</ele>
        <time>2021-07-04 16:26:45</time>
      </trkpt>
      <trkpt lat="28.55243" lon="-14.06416">
        <ele>42</ele>
        <time>2021-07-04 16:26:46</time>
      </trkpt>
      <trkpt lat="28.55241" lon="-14.06419">
        <ele>42</ele>
        <time>2021-07-04 16:26:47</time>
      </trkpt>
      <trkpt lat="28.55238" lon="-14.06421">
        <ele>42</ele>
        <time>2021-07-04 16:26:48</time>
      </trkpt>
      <trkpt lat="28.55236" lon="-14.06424">
        <ele>42</ele>
        <time>2021-07-04 16:26:49</time>
      </trkpt>
      <trkpt lat="28.55234" lon="-14.06427">
        <ele>42</ele>
        <time>2021-07-04 16:26:50</time>
      </trkpt>
      <trkpt lat="28.55232" lon="-14.0643">
        <ele>42</ele>
        <time>2021-07-04 16:26:51</time>
      </trkpt>
      <trkpt lat="28.55231" lon="-14.06433">
        <ele>42</ele>
        <time>2021-07-04 16:26:52</time>
      </trkpt>
      <trkpt lat="28.5523" lon="-14.06436">
        <ele>42</ele>
        <time>2021-07-04 16:26:53</time>
      </trkpt>
      <trkpt lat="28.55229" lon="-14.06439">
        <ele>42.2</ele>
        <time>2021-07-04 16:26:54</time>
      </trkpt>
      <trkpt lat="28.55228" lon="-14.06443">
        <ele>42.2</ele>
        <time>2021-07-04 16:26:55</time>
      </trkpt>
      <trkpt lat="28.55226" lon="-14.06446">
        <ele>42.2</ele>
        <time>2021-07-04 16:26:56</time>
      </trkpt>
      <trkpt lat="28.55225" lon="-14.06449">
        <ele>42.2</ele>
        <time>2021-07-04 16:26:57</time>
      </trkpt>
      <trkpt lat="28.55223" lon="-14.06452">
        <ele>42</ele>
        <time>2021-07-04 16:26:58</time>
      </trkpt>
      <trkpt lat="28.55221" lon="-14.06455">
        <ele>42</ele>
        <time>2021-07-04 16:26:59</time>
      </trkpt>
      <trkpt lat="28.55219" lon="-14.06458">
        <ele>42</ele>
        <time>2021-07-04 16:27:00</time>
      </trkpt>
      <trkpt lat="28.55216" lon="-14.06461">
        <ele>41.6</ele>
        <time>2021-07-04 16:27:01</time>
      </trkpt>
      <trkpt lat="28.55213" lon="-14.06464">
        <ele>41.6</ele>
        <time>2021-07-04 16:27:02</time>
      </trkpt>
      <trkpt lat="28.5521" lon="-14.06467">
        <ele>41.2</ele>
        <time>2021-07-04 16:27:03</time>
      </trkpt>
      <trkpt lat="28.55208" lon="-14.0647">
        <ele>41.2</ele>
        <time>2021-07-04 16:27:04</time>
      </trkpt>
      <trkpt lat="28.55205" lon="-14.06473">
        <ele>40.8</ele>
        <time>2021-07-04 16:27:05</time>
      </trkpt>
      <trkpt lat="28.55202" lon="-14.06475">
        <ele>40.4</ele>
        <time>2021-07-04 16:27:06</time>
      </trkpt>
      <trkpt lat="28.55199" lon="-14.06478">
        <ele>40.2</ele>
        <time>2021-07-04 16:27:07</time>
      </trkpt>
      <trkpt lat="28.55197" lon="-14.0648">
        <ele>40</ele>
        <time>2021-07-04 16:27:08</time>
      </trkpt>
      <trkpt lat="28.55194" lon="-14.06483">
        <ele>40</ele>
        <time>2021-07-04 16:27:09</time>
      </trkpt>
      <trkpt lat="28.55192" lon="-14.06486">
        <ele>40</ele>
        <time>2021-07-04 16:27:10</time>
      </trkpt>
      <trkpt lat="28.55191" lon="-14.0649">
        <ele>39.8</ele>
        <time>2021-07-04 16:27:11</time>
      </trkpt>
      <trkpt lat="28.55189" lon="-14.06494">
        <ele>39.4</ele>
        <time>2021-07-04 16:27:12</time>
      </trkpt>
      <trkpt lat="28.55188" lon="-14.06498">
        <ele>39.4</ele>
        <time>2021-07-04 16:27:13</time>
      </trkpt>
      <trkpt lat="28.55187" lon="-14.06502">
        <ele>39.2</ele>
        <time>2021-07-04 16:27:14</time>
      </trkpt>
      <trkpt lat="28.55185" lon="-14.06505">
        <ele>39</ele>
        <time>2021-07-04 16:27:15</time>
      </trkpt>
      <trkpt lat="28.55183" lon="-14.06507">
        <ele>39</ele>
        <time>2021-07-04 16:27:16</time>
      </trkpt>
      <trkpt lat="28.55181" lon="-14.06509">
        <ele>39</ele>
        <time>2021-07-04 16:27:17</time>
      </trkpt>
      <trkpt lat="28.55179" lon="-14.06511">
        <ele>39</ele>
        <time>2021-07-04 16:27:18</time>
      </trkpt>
      <trkpt lat="28.55177" lon="-14.06512">
        <ele>39</ele>
        <time>2021-07-04 16:27:19</time>
      </trkpt>
      <trkpt lat="28.55175" lon="-14.06514">
        <ele>38.6</ele>
        <time>2021-07-04 16:27:20</time>
      </trkpt>
      <trkpt lat="28.55172" lon="-14.06515">
        <ele>38.6</ele>
        <time>2021-07-04 16:27:21</time>
      </trkpt>
      <trkpt lat="28.5517" lon="-14.06516">
        <ele>38.6</ele>
        <time>2021-07-04 16:27:22</time>
      </trkpt>
      <trkpt lat="28.55167" lon="-14.06517">
        <ele>38.6</ele>
        <time>2021-07-04 16:27:23</time>
      </trkpt>
      <trkpt lat="28.55164" lon="-14.06518">
        <ele>38.6</ele>
        <time>2021-07-04 16:27:24</time>
      </trkpt>
      <trkpt lat="28.55161" lon="-14.06519">
        <ele>38.6</ele>
        <time>2021-07-04 16:27:25</time>
      </trkpt>
      <trkpt lat="28.55158" lon="-14.06519">
        <ele>38.6</ele>
        <time>2021-07-04 16:27:26</time>
      </trkpt>
      <trkpt lat="28.55156" lon="-14.06519">
        <ele>38.6</ele>
        <time>2021-07-04 16:27:27</time>
      </trkpt>
      <trkpt lat="28.55153" lon="-14.06519">
        <ele>38.4</ele>
        <time>2021-07-04 16:27:28</time>
      </trkpt>
      <trkpt lat="28.55149" lon="-14.0652">
        <ele>38.4</ele>
        <time>2021-07-04 16:27:29</time>
      </trkpt>
      <trkpt lat="28.55146" lon="-14.0652">
        <ele>38.4</ele>
        <time>2021-07-04 16:27:30</time>
      </trkpt>
      <trkpt lat="28.55143" lon="-14.06521">
        <ele>38.4</ele>
        <time>2021-07-04 16:27:31</time>
      </trkpt>
      <trkpt lat="28.55141" lon="-14.06521">
        <ele>38.2</ele>
        <time>2021-07-04 16:27:32</time>
      </trkpt>
      <trkpt lat="28.55138" lon="-14.06522">
        <ele>38.2</ele>
        <time>2021-07-04 16:27:33</time>
      </trkpt>
      <trkpt lat="28.55135" lon="-14.06523">
        <ele>38.2</ele>
        <time>2021-07-04 16:27:34</time>
      </trkpt>
      <trkpt lat="28.55132" lon="-14.06524">
        <ele>38.2</ele>
        <time>2021-07-04 16:27:35</time>
      </trkpt>
      <trkpt lat="28.5513" lon="-14.06525">
        <ele>38.2</ele>
        <time>2021-07-04 16:27:36</time>
      </trkpt>
      <trkpt lat="28.55128" lon="-14.06527">
        <ele>38.2</ele>
        <time>2021-07-04 16:27:37</time>
      </trkpt>
      <trkpt lat="28.55125" lon="-14.06528">
        <ele>38.2</ele>
        <time>2021-07-04 16:27:38</time>
      </trkpt>
      <trkpt lat="28.55123" lon="-14.06529">
        <ele>38.2</ele>
        <time>2021-07-04 16:27:39</time>
      </trkpt>
      <trkpt lat="28.55121" lon="-14.0653">
        <ele>38.2</ele>
        <time>2021-07-04 16:27:40</time>
      </trkpt>
      <trkpt lat="28.55119" lon="-14.06531">
        <ele>38.4</ele>
        <time>2021-07-04 16:27:41</time>
      </trkpt>
      <trkpt lat="28.55117" lon="-14.06532">
        <ele>38.4</ele>
        <time>2021-07-04 16:27:42</time>
      </trkpt>
      <trkpt lat="28.55115" lon="-14.06533">
        <ele>38.8</ele>
        <time>2021-07-04 16:27:43</time>
      </trkpt>
      <trkpt lat="28.55114" lon="-14.06534">
        <ele>38.8</ele>
        <time>2021-07-04 16:27:44</time>
      </trkpt>
      <trkpt lat="28.55112" lon="-14.06535">
        <ele>39</ele>
        <time>2021-07-04 16:27:45</time>
      </trkpt>
      <trkpt lat="28.55109" lon="-14.06538">
        <ele>39</ele>
        <time>2021-07-04 16:27:46</time>
      </trkpt>
      <trkpt lat="28.55106" lon="-14.06539">
        <ele>39.2</ele>
        <time>2021-07-04 16:27:47</time>
      </trkpt>
      <trkpt lat="28.55103" lon="-14.0654">
        <ele>39.2</ele>
        <time>2021-07-04 16:27:48</time>
      </trkpt>
      <trkpt lat="28.551" lon="-14.06541">
        <ele>39.2</ele>
        <time>2021-07-04 16:27:49</time>
      </trkpt>
      <trkpt lat="28.55098" lon="-14.06543">
        <ele>39.2</ele>
        <time>2021-07-04 16:27:50</time>
      </trkpt>
      <trkpt lat="28.55096" lon="-14.06545">
        <ele>39.2</ele>
        <time>2021-07-04 16:27:51</time>
      </trkpt>
      <trkpt lat="28.55095" lon="-14.06546">
        <ele>39.2</ele>
        <time>2021-07-04 16:27:52</time>
      </trkpt>
      <trkpt lat="28.55093" lon="-14.06548">
        <ele>39.2</ele>
        <time>2021-07-04 16:27:53</time>
      </trkpt>
      <trkpt lat="28.55091" lon="-14.0655">
        <ele>39.2</ele>
        <time>2021-07-04 16:27:54</time>
      </trkpt>
      <trkpt lat="28.55089" lon="-14.06552">
        <ele>39.2</ele>
        <time>2021-07-04 16:27:55</time>
      </trkpt>
      <trkpt lat="28.55087" lon="-14.06554">
        <ele>39.6</ele>
        <time>2021-07-04 16:27:56</time>
      </trkpt>
      <trkpt lat="28.55085" lon="-14.06556">
        <ele>39.6</ele>
        <time>2021-07-04 16:27:57</time>
      </trkpt>
      <trkpt lat="28.55083" lon="-14.06558">
        <ele>39.6</ele>
        <time>2021-07-04 16:27:58</time>
      </trkpt>
      <trkpt lat="28.55081" lon="-14.0656">
        <ele>39.6</ele>
        <time>2021-07-04 16:27:59</time>
      </trkpt>
      <trkpt lat="28.55079" lon="-14.06561">
        <ele>39.6</ele>
        <time>2021-07-04 16:28:00</time>
      </trkpt>
      <trkpt lat="28.55077" lon="-14.06563">
        <ele>39.6</ele>
        <time>2021-07-04 16:28:01</time>
      </trkpt>
      <trkpt lat="28.55075" lon="-14.06563">
        <ele>39.6</ele>
        <time>2021-07-04 16:28:02</time>
      </trkpt>
      <trkpt lat="28.55072" lon="-14.06564">
        <ele>39.6</ele>
        <time>2021-07-04 16:28:03</time>
      </trkpt>
      <trkpt lat="28.5507" lon="-14.06564">
        <ele>39.4</ele>
        <time>2021-07-04 16:28:04</time>
      </trkpt>
      <trkpt lat="28.55067" lon="-14.06564">
        <ele>39.4</ele>
        <time>2021-07-04 16:28:05</time>
      </trkpt>
      <trkpt lat="28.55065" lon="-14.06564">
        <ele>39.4</ele>
        <time>2021-07-04 16:28:06</time>
      </trkpt>
      <trkpt lat="28.55062" lon="-14.06564">
        <ele>39.4</ele>
        <time>2021-07-04 16:28:07</time>
      </trkpt>
      <trkpt lat="28.5506" lon="-14.06563">
        <ele>39.4</ele>
        <time>2021-07-04 16:28:08</time>
      </trkpt>
      <trkpt lat="28.55057" lon="-14.06563">
        <ele>39.4</ele>
        <time>2021-07-04 16:28:09</time>
      </trkpt>
      <trkpt lat="28.55055" lon="-14.06562">
        <ele>39.4</ele>
        <time>2021-07-04 16:28:10</time>
      </trkpt>
      <trkpt lat="28.55053" lon="-14.06561">
        <ele>39.4</ele>
        <time>2021-07-04 16:28:11</time>
      </trkpt>
      <trkpt lat="28.55052" lon="-14.0656">
        <ele>39.4</ele>
        <time>2021-07-04 16:28:12</time>
      </trkpt>
      <trkpt lat="28.5505" lon="-14.06559">
        <ele>39.6</ele>
        <time>2021-07-04 16:28:13</time>
      </trkpt>
      <trkpt lat="28.55049" lon="-14.06558">
        <ele>39.6</ele>
        <time>2021-07-04 16:28:14</time>
      </trkpt>
      <trkpt lat="28.55047" lon="-14.06556">
        <ele>39.6</ele>
        <time>2021-07-04 16:28:15</time>
      </trkpt>
      <trkpt lat="28.55045" lon="-14.06555">
        <ele>39.8</ele>
        <time>2021-07-04 16:28:16</time>
      </trkpt>
      <trkpt lat="28.55043" lon="-14.06554">
        <ele>39.8</ele>
        <time>2021-07-04 16:28:17</time>
      </trkpt>
      <trkpt lat="28.5504" lon="-14.06553">
        <ele>40</ele>
        <time>2021-07-04 16:28:18</time>
      </trkpt>
      <trkpt lat="28.55038" lon="-14.06554">
        <ele>40</ele>
        <time>2021-07-04 16:28:19</time>
      </trkpt>
      <trkpt lat="28.55035" lon="-14.06555">
        <ele>40</ele>
        <time>2021-07-04 16:28:20</time>
      </trkpt>
      <trkpt lat="28.55033" lon="-14.06557">
        <ele>40</ele>
        <time>2021-07-04 16:28:21</time>
      </trkpt>
      <trkpt lat="28.5503" lon="-14.06559">
        <ele>40</ele>
        <time>2021-07-04 16:28:22</time>
      </trkpt>
      <trkpt lat="28.55028" lon="-14.06561">
        <ele>40</ele>
        <time>2021-07-04 16:28:23</time>
      </trkpt>
      <trkpt lat="28.55026" lon="-14.06563">
        <ele>40</ele>
        <time>2021-07-04 16:28:24</time>
      </trkpt>
      <trkpt lat="28.55023" lon="-14.06566">
        <ele>40</ele>
        <time>2021-07-04 16:28:25</time>
      </trkpt>
      <trkpt lat="28.55021" lon="-14.06568">
        <ele>40.2</ele>
        <time>2021-07-04 16:28:26</time>
      </trkpt>
      <trkpt lat="28.5502" lon="-14.0657">
        <ele>40.2</ele>
        <time>2021-07-04 16:28:27</time>
      </trkpt>
      <trkpt lat="28.55018" lon="-14.06572">
        <ele>40.2</ele>
        <time>2021-07-04 16:28:28</time>
      </trkpt>
      <trkpt lat="28.55017" lon="-14.06574">
        <ele>40.2</ele>
        <time>2021-07-04 16:28:29</time>
      </trkpt>
      <trkpt lat="28.55015" lon="-14.06575">
        <ele>40.2</ele>
        <time>2021-07-04 16:28:30</time>
      </trkpt>
      <trkpt lat="28.55014" lon="-14.06576">
        <ele>40.6</ele>
        <time>2021-07-04 16:28:31</time>
      </trkpt>
      <trkpt lat="28.55013" lon="-14.06578">
        <ele>40.6</ele>
        <time>2021-07-04 16:28:32</time>
      </trkpt>
      <trkpt lat="28.55012" lon="-14.06579">
        <ele>40.8</ele>
        <time>2021-07-04 16:28:33</time>
      </trkpt>
      <trkpt lat="28.55011" lon="-14.06579">
        <ele>40.8</ele>
        <time>2021-07-04 16:28:34</time>
      </trkpt>
      <trkpt lat="28.55009" lon="-14.0658">
        <ele>41</ele>
        <time>2021-07-04 16:28:35</time>
      </trkpt>
      <trkpt lat="28.55008" lon="-14.06581">
        <ele>41</ele>
        <time>2021-07-04 16:28:36</time>
      </trkpt>
      <trkpt lat="28.55007" lon="-14.06581">
        <ele>41.2</ele>
        <time>2021-07-04 16:28:37</time>
      </trkpt>
      <trkpt lat="28.55006" lon="-14.06582">
        <ele>41.2</ele>
        <time>2021-07-04 16:28:38</time>
      </trkpt>
      <trkpt lat="28.55005" lon="-14.06583">
        <ele>41.2</ele>
        <time>2021-07-04 16:28:39</time>
      </trkpt>
      <trkpt lat="28.55004" lon="-14.06583">
        <ele>41.6</ele>
        <time>2021-07-04 16:28:40</time>
      </trkpt>
      <trkpt lat="28.55003" lon="-14.06583">
        <ele>41.6</ele>
        <time>2021-07-04 16:28:41</time>
      </trkpt>
      <trkpt lat="28.55004" lon="-14.06583">
        <ele>41.6</ele>
        <time>2021-07-04 16:28:42</time>
      </trkpt>
      <trkpt lat="28.55004" lon="-14.06582">
        <ele>40.8</ele>
        <time>2021-07-04 16:28:43</time>
      </trkpt>
      <trkpt lat="28.55003" lon="-14.06581">
        <ele>40.8</ele>
        <time>2021-07-04 16:28:44</time>
      </trkpt>
      <trkpt lat="28.55003" lon="-14.0658">
        <ele>41.2</ele>
        <time>2021-07-04 16:28:45</time>
      </trkpt>
      <trkpt lat="28.55002" lon="-14.06579">
        <ele>41.2</ele>
        <time>2021-07-04 16:28:46</time>
      </trkpt>
      <trkpt lat="28.55001" lon="-14.06579">
        <ele>41.6</ele>
        <time>2021-07-04 16:28:47</time>
      </trkpt>
      <trkpt lat="28.55001" lon="-14.06578">
        <ele>41.6</ele>
        <time>2021-07-04 16:28:48</time>
      </trkpt>
      <trkpt lat="28.55" lon="-14.06577">
        <ele>41.8</ele>
        <time>2021-07-04 16:28:49</time>
      </trkpt>
      <trkpt lat="28.54999" lon="-14.06576">
        <ele>41.8</ele>
        <time>2021-07-04 16:28:50</time>
      </trkpt>
      <trkpt lat="28.54999" lon="-14.06575">
        <ele>42</ele>
        <time>2021-07-04 16:28:51</time>
      </trkpt>
      <trkpt lat="28.54998" lon="-14.06575">
        <ele>42</ele>
        <time>2021-07-04 16:28:52</time>
      </trkpt>
      <trkpt lat="28.54998" lon="-14.06574">
        <ele>42</ele>
        <time>2021-07-04 16:28:53</time>
      </trkpt>
      <trkpt lat="28.54998" lon="-14.06575">
        <ele>42</ele>
        <time>2021-07-04 16:28:54</time>
      </trkpt>
      <trkpt lat="28.54999" lon="-14.06575">
        <ele>42.2</ele>
        <time>2021-07-04 16:28:55</time>
      </trkpt>
      <trkpt lat="28.55" lon="-14.06575">
        <ele>43.8</ele>
        <time>2021-07-04 16:28:56</time>
      </trkpt>
      <trkpt lat="28.54999" lon="-14.06574">
        <ele>43.8</ele>
        <time>2021-07-04 16:28:57</time>
      </trkpt>
      <trkpt lat="28.54997" lon="-14.06572">
        <ele>43.8</ele>
        <time>2021-07-04 16:28:58</time>
      </trkpt>
      <trkpt lat="28.54996" lon="-14.06571">
        <ele>43.8</ele>
        <time>2021-07-04 16:28:59</time>
      </trkpt>
      <trkpt lat="28.54994" lon="-14.06568">
        <ele>43.8</ele>
        <time>2021-07-04 16:29:00</time>
      </trkpt>
      <trkpt lat="28.54992" lon="-14.06566">
        <ele>43.6</ele>
        <time>2021-07-04 16:29:01</time>
      </trkpt>
      <trkpt lat="28.54991" lon="-14.06564">
        <ele>43.6</ele>
        <time>2021-07-04 16:29:02</time>
      </trkpt>
      <trkpt lat="28.54989" lon="-14.06562">
        <ele>43.2</ele>
        <time>2021-07-04 16:29:03</time>
      </trkpt>
      <trkpt lat="28.54987" lon="-14.0656">
        <ele>43</ele>
        <time>2021-07-04 16:29:04</time>
      </trkpt>
      <trkpt lat="28.54986" lon="-14.06559">
        <ele>43</ele>
        <time>2021-07-04 16:29:05</time>
      </trkpt>
      <trkpt lat="28.54985" lon="-14.06557">
        <ele>42.6</ele>
        <time>2021-07-04 16:29:06</time>
      </trkpt>
      <trkpt lat="28.54984" lon="-14.06556">
        <ele>42.6</ele>
        <time>2021-07-04 16:29:07</time>
      </trkpt>
      <trkpt lat="28.54982" lon="-14.06555">
        <ele>42.4</ele>
        <time>2021-07-04 16:29:08</time>
      </trkpt>
      <trkpt lat="28.54981" lon="-14.06554">
        <ele>42.4</ele>
        <time>2021-07-04 16:29:09</time>
      </trkpt>
      <trkpt lat="28.54978" lon="-14.06554">
        <ele>42.4</ele>
        <time>2021-07-04 16:29:10</time>
      </trkpt>
      <trkpt lat="28.54976" lon="-14.06553">
        <ele>42.4</ele>
        <time>2021-07-04 16:29:11</time>
      </trkpt>
      <trkpt lat="28.54974" lon="-14.06553">
        <ele>42.2</ele>
        <time>2021-07-04 16:29:12</time>
      </trkpt>
      <trkpt lat="28.54972" lon="-14.06552">
        <ele>42.2</ele>
        <time>2021-07-04 16:29:13</time>
      </trkpt>
      <trkpt lat="28.5497" lon="-14.06551">
        <ele>42.2</ele>
        <time>2021-07-04 16:29:14</time>
      </trkpt>
      <trkpt lat="28.54968" lon="-14.06549">
        <ele>42.2</ele>
        <time>2021-07-04 16:29:15</time>
      </trkpt>
      <trkpt lat="28.54967" lon="-14.06546">
        <ele>42.2</ele>
        <time>2021-07-04 16:29:16</time>
      </trkpt>
      <trkpt lat="28.54966" lon="-14.06544">
        <ele>42.2</ele>
        <time>2021-07-04 16:29:17</time>
      </trkpt>
      <trkpt lat="28.54965" lon="-14.06541">
        <ele>42.2</ele>
        <time>2021-07-04 16:29:18</time>
      </trkpt>
      <trkpt lat="28.54964" lon="-14.06538">
        <ele>42.2</ele>
        <time>2021-07-04 16:29:19</time>
      </trkpt>
      <trkpt lat="28.54963" lon="-14.06535">
        <ele>42.4</ele>
        <time>2021-07-04 16:29:20</time>
      </trkpt>
      <trkpt lat="28.54963" lon="-14.06532">
        <ele>42.4</ele>
        <time>2021-07-04 16:29:21</time>
      </trkpt>
      <trkpt lat="28.54963" lon="-14.0653">
        <ele>42.4</ele>
        <time>2021-07-04 16:29:22</time>
      </trkpt>
      <trkpt lat="28.54962" lon="-14.06528">
        <ele>42.6</ele>
        <time>2021-07-04 16:29:23</time>
      </trkpt>
      <trkpt lat="28.54961" lon="-14.06526">
        <ele>42.6</ele>
        <time>2021-07-04 16:29:24</time>
      </trkpt>
      <trkpt lat="28.54959" lon="-14.06524">
        <ele>42.6</ele>
        <time>2021-07-04 16:29:25</time>
      </trkpt>
      <trkpt lat="28.54957" lon="-14.06522">
        <ele>42.6</ele>
        <time>2021-07-04 16:29:26</time>
      </trkpt>
      <trkpt lat="28.54955" lon="-14.06521">
        <ele>42.6</ele>
        <time>2021-07-04 16:29:27</time>
      </trkpt>
      <trkpt lat="28.54952" lon="-14.0652">
        <ele>42.4</ele>
        <time>2021-07-04 16:29:28</time>
      </trkpt>
      <trkpt lat="28.5495" lon="-14.0652">
        <ele>42.2</ele>
        <time>2021-07-04 16:29:29</time>
      </trkpt>
      <trkpt lat="28.54947" lon="-14.0652">
        <ele>42.2</ele>
        <time>2021-07-04 16:29:30</time>
      </trkpt>
      <trkpt lat="28.54945" lon="-14.0652">
        <ele>42</ele>
        <time>2021-07-04 16:29:31</time>
      </trkpt>
      <trkpt lat="28.54943" lon="-14.06521">
        <ele>42</ele>
        <time>2021-07-04 16:29:32</time>
      </trkpt>
      <trkpt lat="28.5494" lon="-14.06522">
        <ele>42</ele>
        <time>2021-07-04 16:29:33</time>
      </trkpt>
      <trkpt lat="28.54938" lon="-14.06522">
        <ele>42</ele>
        <time>2021-07-04 16:29:34</time>
      </trkpt>
      <trkpt lat="28.54935" lon="-14.06522">
        <ele>42</ele>
        <time>2021-07-04 16:29:35</time>
      </trkpt>
      <trkpt lat="28.54932" lon="-14.06522">
        <ele>42</ele>
        <time>2021-07-04 16:29:36</time>
      </trkpt>
      <trkpt lat="28.5493" lon="-14.0652">
        <ele>41.8</ele>
        <time>2021-07-04 16:29:37</time>
      </trkpt>
      <trkpt lat="28.54929" lon="-14.06519">
        <ele>41.8</ele>
        <time>2021-07-04 16:29:38</time>
      </trkpt>
      <trkpt lat="28.54927" lon="-14.06518">
        <ele>41.8</ele>
        <time>2021-07-04 16:29:39</time>
      </trkpt>
      <trkpt lat="28.54925" lon="-14.06517">
        <ele>41.8</ele>
        <time>2021-07-04 16:29:40</time>
      </trkpt>
      <trkpt lat="28.54922" lon="-14.06516">
        <ele>41.8</ele>
        <time>2021-07-04 16:29:41</time>
      </trkpt>
      <trkpt lat="28.5492" lon="-14.06515">
        <ele>41.8</ele>
        <time>2021-07-04 16:29:42</time>
      </trkpt>
      <trkpt lat="28.54917" lon="-14.06514">
        <ele>41.8</ele>
        <time>2021-07-04 16:29:43</time>
      </trkpt>
      <trkpt lat="28.54915" lon="-14.06514">
        <ele>41.8</ele>
        <time>2021-07-04 16:29:44</time>
      </trkpt>
      <trkpt lat="28.54914" lon="-14.06513">
        <ele>41.8</ele>
        <time>2021-07-04 16:29:45</time>
      </trkpt>
      <trkpt lat="28.54912" lon="-14.06513">
        <ele>41.8</ele>
        <time>2021-07-04 16:29:46</time>
      </trkpt>
      <trkpt lat="28.54909" lon="-14.06513">
        <ele>41.8</ele>
        <time>2021-07-04 16:29:47</time>
      </trkpt>
      <trkpt lat="28.54906" lon="-14.06512">
        <ele>41.8</ele>
        <time>2021-07-04 16:29:48</time>
      </trkpt>
      <trkpt lat="28.54903" lon="-14.06512">
        <ele>41.8</ele>
        <time>2021-07-04 16:29:49</time>
      </trkpt>
      <trkpt lat="28.549" lon="-14.06512">
        <ele>41.8</ele>
        <time>2021-07-04 16:29:50</time>
      </trkpt>
      <trkpt lat="28.54897" lon="-14.06512">
        <ele>41.8</ele>
        <time>2021-07-04 16:29:51</time>
      </trkpt>
      <trkpt lat="28.54894" lon="-14.06511">
        <ele>41.8</ele>
        <time>2021-07-04 16:29:52</time>
      </trkpt>
      <trkpt lat="28.54892" lon="-14.06511">
        <ele>41.8</ele>
        <time>2021-07-04 16:29:53</time>
      </trkpt>
      <trkpt lat="28.5489" lon="-14.0651">
        <ele>41.8</ele>
        <time>2021-07-04 16:29:54</time>
      </trkpt>
      <trkpt lat="28.54887" lon="-14.06509">
        <ele>42</ele>
        <time>2021-07-04 16:29:55</time>
      </trkpt>
      <trkpt lat="28.54885" lon="-14.06508">
        <ele>42</ele>
        <time>2021-07-04 16:29:56</time>
      </trkpt>
      <trkpt lat="28.54882" lon="-14.06507">
        <ele>42</ele>
        <time>2021-07-04 16:29:57</time>
      </trkpt>
      <trkpt lat="28.54879" lon="-14.06505">
        <ele>42</ele>
        <time>2021-07-04 16:29:58</time>
      </trkpt>
      <trkpt lat="28.54877" lon="-14.06504">
        <ele>42</ele>
        <time>2021-07-04 16:29:59</time>
      </trkpt>
      <trkpt lat="28.54875" lon="-14.06503">
        <ele>42</ele>
        <time>2021-07-04 16:30:00</time>
      </trkpt>
      <trkpt lat="28.54873" lon="-14.06503">
        <ele>42</ele>
        <time>2021-07-04 16:30:01</time>
      </trkpt>
      <trkpt lat="28.54872" lon="-14.06502">
        <ele>42</ele>
        <time>2021-07-04 16:30:02</time>
      </trkpt>
      <trkpt lat="28.5487" lon="-14.06501">
        <ele>42</ele>
        <time>2021-07-04 16:30:03</time>
      </trkpt>
      <trkpt lat="28.54867" lon="-14.065">
        <ele>42</ele>
        <time>2021-07-04 16:30:04</time>
      </trkpt>
      <trkpt lat="28.54865" lon="-14.065">
        <ele>42</ele>
        <time>2021-07-04 16:30:05</time>
      </trkpt>
      <trkpt lat="28.54862" lon="-14.06499">
        <ele>42</ele>
        <time>2021-07-04 16:30:06</time>
      </trkpt>
      <trkpt lat="28.54861" lon="-14.06499">
        <ele>42</ele>
        <time>2021-07-04 16:30:07</time>
      </trkpt>
      <trkpt lat="28.54859" lon="-14.06498">
        <ele>42</ele>
        <time>2021-07-04 16:30:08</time>
      </trkpt>
      <trkpt lat="28.54856" lon="-14.06497">
        <ele>42</ele>
        <time>2021-07-04 16:30:09</time>
      </trkpt>
      <trkpt lat="28.54854" lon="-14.06496">
        <ele>42</ele>
        <time>2021-07-04 16:30:33</time>
      </trkpt>
      <trkpt lat="28.54851" lon="-14.06496">
        <ele>42</ele>
        <time>2021-07-04 16:30:34</time>
      </trkpt>
      <trkpt lat="28.54849" lon="-14.06496">
        <ele>42</ele>
        <time>2021-07-04 16:30:35</time>
      </trkpt>
      <trkpt lat="28.54846" lon="-14.06497">
        <ele>42</ele>
        <time>2021-07-04 16:30:36</time>
      </trkpt>
      <trkpt lat="28.54844" lon="-14.06498">
        <ele>42</ele>
        <time>2021-07-04 16:30:37</time>
      </trkpt>
      <trkpt lat="28.54842" lon="-14.06498">
        <ele>42</ele>
        <time>2021-07-04 16:30:38</time>
      </trkpt>
      <trkpt lat="28.54839" lon="-14.06499">
        <ele>42</ele>
        <time>2021-07-04 16:30:39</time>
      </trkpt>
      <trkpt lat="28.54837" lon="-14.06499">
        <ele>42</ele>
        <time>2021-07-04 16:30:40</time>
      </trkpt>
      <trkpt lat="28.54835" lon="-14.065">
        <ele>42</ele>
        <time>2021-07-04 16:30:41</time>
      </trkpt>
      <trkpt lat="28.54832" lon="-14.065">
        <ele>42</ele>
        <time>2021-07-04 16:30:42</time>
      </trkpt>
      <trkpt lat="28.54829" lon="-14.065">
        <ele>42</ele>
        <time>2021-07-04 16:30:43</time>
      </trkpt>
      <trkpt lat="28.54827" lon="-14.06499">
        <ele>42</ele>
        <time>2021-07-04 16:30:44</time>
      </trkpt>
      <trkpt lat="28.54825" lon="-14.06498">
        <ele>41.8</ele>
        <time>2021-07-04 16:30:45</time>
      </trkpt>
      <trkpt lat="28.54822" lon="-14.06495">
        <ele>41.8</ele>
        <time>2021-07-04 16:31:24</time>
      </trkpt>
      <trkpt lat="28.5482" lon="-14.06493">
        <ele>41.8</ele>
        <time>2021-07-04 16:31:25</time>
      </trkpt>
      <trkpt lat="28.54817" lon="-14.06491">
        <ele>41.8</ele>
        <time>2021-07-04 16:31:26</time>
      </trkpt>
      <trkpt lat="28.54815" lon="-14.06489">
        <ele>41.8</ele>
        <time>2021-07-04 16:31:27</time>
      </trkpt>
      <trkpt lat="28.54812" lon="-14.06489">
        <ele>41.8</ele>
        <time>2021-07-04 16:31:28</time>
      </trkpt>
      <trkpt lat="28.5481" lon="-14.06488">
        <ele>41.8</ele>
        <time>2021-07-04 16:31:29</time>
      </trkpt>
      <trkpt lat="28.54808" lon="-14.06487">
        <ele>41.8</ele>
        <time>2021-07-04 16:31:30</time>
      </trkpt>
      <trkpt lat="28.54805" lon="-14.06487">
        <ele>41.8</ele>
        <time>2021-07-04 16:31:31</time>
      </trkpt>
      <trkpt lat="28.54802" lon="-14.06487">
        <ele>41.8</ele>
        <time>2021-07-04 16:31:32</time>
      </trkpt>
      <trkpt lat="28.54799" lon="-14.06486">
        <ele>41.8</ele>
        <time>2021-07-04 16:31:33</time>
      </trkpt>
      <trkpt lat="28.54796" lon="-14.06484">
        <ele>41.8</ele>
        <time>2021-07-04 16:31:34</time>
      </trkpt>
      <trkpt lat="28.54793" lon="-14.06484">
        <ele>41.8</ele>
        <time>2021-07-04 16:31:35</time>
      </trkpt>
      <trkpt lat="28.5479" lon="-14.06483">
        <ele>41.8</ele>
        <time>2021-07-04 16:31:36</time>
      </trkpt>
      <trkpt lat="28.54788" lon="-14.06481">
        <ele>41.8</ele>
        <time>2021-07-04 16:31:37</time>
      </trkpt>
      <trkpt lat="28.54785" lon="-14.06478">
        <ele>41.8</ele>
        <time>2021-07-04 16:31:38</time>
      </trkpt>
      <trkpt lat="28.54783" lon="-14.06476">
        <ele>41.8</ele>
        <time>2021-07-04 16:31:39</time>
      </trkpt>
      <trkpt lat="28.54781" lon="-14.06473">
        <ele>41.8</ele>
        <time>2021-07-04 16:31:40</time>
      </trkpt>
      <trkpt lat="28.5478" lon="-14.06469">
        <ele>41.8</ele>
        <time>2021-07-04 16:31:41</time>
      </trkpt>
      <trkpt lat="28.54778" lon="-14.06466">
        <ele>41.8</ele>
        <time>2021-07-04 16:31:42</time>
      </trkpt>
      <trkpt lat="28.54776" lon="-14.06463">
        <ele>41.8</ele>
        <time>2021-07-04 16:31:43</time>
      </trkpt>
      <trkpt lat="28.54774" lon="-14.06462">
        <ele>42</ele>
        <time>2021-07-04 16:31:44</time>
      </trkpt>
      <trkpt lat="28.54771" lon="-14.06461">
        <ele>42</ele>
        <time>2021-07-04 16:31:45</time>
      </trkpt>
      <trkpt lat="28.54768" lon="-14.06459">
        <ele>42</ele>
        <time>2021-07-04 16:31:46</time>
      </trkpt>
      <trkpt lat="28.54765" lon="-14.06458">
        <ele>42</ele>
        <time>2021-07-04 16:31:47</time>
      </trkpt>
      <trkpt lat="28.54761" lon="-14.06457">
        <ele>42</ele>
        <time>2021-07-04 16:31:48</time>
      </trkpt>
      <trkpt lat="28.54758" lon="-14.06457">
        <ele>42</ele>
        <time>2021-07-04 16:31:49</time>
      </trkpt>
      <trkpt lat="28.54755" lon="-14.06456">
        <ele>42</ele>
        <time>2021-07-04 16:31:50</time>
      </trkpt>
      <trkpt lat="28.54752" lon="-14.06456">
        <ele>42</ele>
        <time>2021-07-04 16:31:51</time>
      </trkpt>
      <trkpt lat="28.54749" lon="-14.06455">
        <ele>42</ele>
        <time>2021-07-04 16:31:52</time>
      </trkpt>
      <trkpt lat="28.54747" lon="-14.06454">
        <ele>42</ele>
        <time>2021-07-04 16:31:53</time>
      </trkpt>
      <trkpt lat="28.54744" lon="-14.06451">
        <ele>41.8</ele>
        <time>2021-07-04 16:31:54</time>
      </trkpt>
      <trkpt lat="28.54741" lon="-14.06449">
        <ele>41.8</ele>
        <time>2021-07-04 16:31:55</time>
      </trkpt>
      <trkpt lat="28.54739" lon="-14.06446">
        <ele>41.8</ele>
        <time>2021-07-04 16:31:56</time>
      </trkpt>
      <trkpt lat="28.54737" lon="-14.06443">
        <ele>41.8</ele>
        <time>2021-07-04 16:31:57</time>
      </trkpt>
      <trkpt lat="28.54735" lon="-14.06441">
        <ele>41.8</ele>
        <time>2021-07-04 16:31:58</time>
      </trkpt>
      <trkpt lat="28.54732" lon="-14.06439">
        <ele>41.8</ele>
        <time>2021-07-04 16:31:59</time>
      </trkpt>
      <trkpt lat="28.5473" lon="-14.06437">
        <ele>42</ele>
        <time>2021-07-04 16:32:00</time>
      </trkpt>
      <trkpt lat="28.54727" lon="-14.06435">
        <ele>42</ele>
        <time>2021-07-04 16:32:01</time>
      </trkpt>
      <trkpt lat="28.54725" lon="-14.06433">
        <ele>42</ele>
        <time>2021-07-04 16:32:02</time>
      </trkpt>
      <trkpt lat="28.54722" lon="-14.0643">
        <ele>42</ele>
        <time>2021-07-04 16:32:03</time>
      </trkpt>
      <trkpt lat="28.54719" lon="-14.06428">
        <ele>42</ele>
        <time>2021-07-04 16:32:04</time>
      </trkpt>
      <trkpt lat="28.54717" lon="-14.06425">
        <ele>42.2</ele>
        <time>2021-07-04 16:32:05</time>
      </trkpt>
      <trkpt lat="28.54714" lon="-14.06423">
        <ele>42.2</ele>
        <time>2021-07-04 16:32:06</time>
      </trkpt>
      <trkpt lat="28.54711" lon="-14.06421">
        <ele>42.2</ele>
        <time>2021-07-04 16:32:07</time>
      </trkpt>
      <trkpt lat="28.54709" lon="-14.0642">
        <ele>42.6</ele>
        <time>2021-07-04 16:32:08</time>
      </trkpt>
      <trkpt lat="28.54707" lon="-14.06418">
        <ele>42.8</ele>
        <time>2021-07-04 16:32:09</time>
      </trkpt>
      <trkpt lat="28.54704" lon="-14.06416">
        <ele>42.8</ele>
        <time>2021-07-04 16:32:10</time>
      </trkpt>
      <trkpt lat="28.54702" lon="-14.06414">
        <ele>43</ele>
        <time>2021-07-04 16:32:11</time>
      </trkpt>
      <trkpt lat="28.547" lon="-14.06411">
        <ele>43</ele>
        <time>2021-07-04 16:32:12</time>
      </trkpt>
      <trkpt lat="28.54698" lon="-14.06408">
        <ele>42.6</ele>
        <time>2021-07-04 16:32:13</time>
      </trkpt>
      <trkpt lat="28.5469" lon="-14.06395">
        <ele>42.6</ele>
        <time>2021-07-04 16:32:14</time>
      </trkpt>
      <trkpt lat="28.54688" lon="-14.06394">
        <ele>42.6</ele>
        <time>2021-07-04 16:32:15</time>
      </trkpt>
      <trkpt lat="28.54685" lon="-14.06393">
        <ele>42.6</ele>
        <time>2021-07-04 16:32:16</time>
      </trkpt>
      <trkpt lat="28.54684" lon="-14.06393">
        <ele>42.4</ele>
        <time>2021-07-04 16:32:17</time>
      </trkpt>
      <trkpt lat="28.54682" lon="-14.06392">
        <ele>42.4</ele>
        <time>2021-07-04 16:32:18</time>
      </trkpt>
      <trkpt lat="28.54681" lon="-14.06391">
        <ele>42.6</ele>
        <time>2021-07-04 16:32:19</time>
      </trkpt>
      <trkpt lat="28.5468" lon="-14.06388">
        <ele>43</ele>
        <time>2021-07-04 16:32:20</time>
      </trkpt>
      <trkpt lat="28.5468" lon="-14.06385">
        <ele>43</ele>
        <time>2021-07-04 16:32:21</time>
      </trkpt>
      <trkpt lat="28.5468" lon="-14.06382">
        <ele>43.4</ele>
        <time>2021-07-04 16:32:22</time>
      </trkpt>
      <trkpt lat="28.5468" lon="-14.06379">
        <ele>43.8</ele>
        <time>2021-07-04 16:32:23</time>
      </trkpt>
      <trkpt lat="28.54679" lon="-14.06375">
        <ele>43.8</ele>
        <time>2021-07-04 16:32:24</time>
      </trkpt>
      <trkpt lat="28.54677" lon="-14.06372">
        <ele>44</ele>
        <time>2021-07-04 16:32:25</time>
      </trkpt>
      <trkpt lat="28.54675" lon="-14.06369">
        <ele>44</ele>
        <time>2021-07-04 16:32:26</time>
      </trkpt>
      <trkpt lat="28.54673" lon="-14.06366">
        <ele>44</ele>
        <time>2021-07-04 16:32:27</time>
      </trkpt>
      <trkpt lat="28.5467" lon="-14.06363">
        <ele>44</ele>
        <time>2021-07-04 16:32:28</time>
      </trkpt>
      <trkpt lat="28.54668" lon="-14.06361">
        <ele>44</ele>
        <time>2021-07-04 16:32:29</time>
      </trkpt>
      <trkpt lat="28.54667" lon="-14.06358">
        <ele>44.2</ele>
        <time>2021-07-04 16:32:30</time>
      </trkpt>
      <trkpt lat="28.54665" lon="-14.06356">
        <ele>44.2</ele>
        <time>2021-07-04 16:32:31</time>
      </trkpt>
      <trkpt lat="28.54663" lon="-14.06353">
        <ele>44.2</ele>
        <time>2021-07-04 16:32:32</time>
      </trkpt>
      <trkpt lat="28.54661" lon="-14.06349">
        <ele>44.6</ele>
        <time>2021-07-04 16:32:33</time>
      </trkpt>
      <trkpt lat="28.54657" lon="-14.06342">
        <ele>44.6</ele>
        <time>2021-07-04 16:32:34</time>
      </trkpt>
      <trkpt lat="28.54655" lon="-14.06338">
        <ele>44.2</ele>
        <time>2021-07-04 16:32:35</time>
      </trkpt>
      <trkpt lat="28.54654" lon="-14.06334">
        <ele>44.2</ele>
        <time>2021-07-04 16:32:36</time>
      </trkpt>
      <trkpt lat="28.54652" lon="-14.0633">
        <ele>44.2</ele>
        <time>2021-07-04 16:32:37</time>
      </trkpt>
      <trkpt lat="28.5465" lon="-14.06325">
        <ele>44.2</ele>
        <time>2021-07-04 16:32:38</time>
      </trkpt>
      <trkpt lat="28.54649" lon="-14.06321">
        <ele>44.2</ele>
        <time>2021-07-04 16:32:39</time>
      </trkpt>
      <trkpt lat="28.54648" lon="-14.06316">
        <ele>44.2</ele>
        <time>2021-07-04 16:32:40</time>
      </trkpt>
      <trkpt lat="28.54646" lon="-14.06312">
        <ele>44.6</ele>
        <time>2021-07-04 16:32:41</time>
      </trkpt>
      <trkpt lat="28.54644" lon="-14.06307">
        <ele>44.6</ele>
        <time>2021-07-04 16:32:42</time>
      </trkpt>
      <trkpt lat="28.54642" lon="-14.06303">
        <ele>44.6</ele>
        <time>2021-07-04 16:32:43</time>
      </trkpt>
      <trkpt lat="28.5464" lon="-14.06299">
        <ele>44.6</ele>
        <time>2021-07-04 16:32:44</time>
      </trkpt>
      <trkpt lat="28.54637" lon="-14.06296">
        <ele>44.6</ele>
        <time>2021-07-04 16:32:45</time>
      </trkpt>
      <trkpt lat="28.54634" lon="-14.06294">
        <ele>44.6</ele>
        <time>2021-07-04 16:32:46</time>
      </trkpt>
      <trkpt lat="28.54631" lon="-14.06292">
        <ele>44.6</ele>
        <time>2021-07-04 16:32:47</time>
      </trkpt>
      <trkpt lat="28.54627" lon="-14.0629">
        <ele>44.4</ele>
        <time>2021-07-04 16:32:48</time>
      </trkpt>
      <trkpt lat="28.54624" lon="-14.0629">
        <ele>44.2</ele>
        <time>2021-07-04 16:32:49</time>
      </trkpt>
      <trkpt lat="28.54621" lon="-14.0629">
        <ele>44.2</ele>
        <time>2021-07-04 16:32:50</time>
      </trkpt>
      <trkpt lat="28.54618" lon="-14.06292">
        <ele>44</ele>
        <time>2021-07-04 16:32:51</time>
      </trkpt>
      <trkpt lat="28.54615" lon="-14.06293">
        <ele>43.6</ele>
        <time>2021-07-04 16:32:52</time>
      </trkpt>
      <trkpt lat="28.54613" lon="-14.06294">
        <ele>43.6</ele>
        <time>2021-07-04 16:32:53</time>
      </trkpt>
      <trkpt lat="28.54611" lon="-14.06295">
        <ele>43.6</ele>
        <time>2021-07-04 16:32:54</time>
      </trkpt>
      <trkpt lat="28.54608" lon="-14.06296">
        <ele>43.4</ele>
        <time>2021-07-04 16:32:55</time>
      </trkpt>
      <trkpt lat="28.54606" lon="-14.06297">
        <ele>43.4</ele>
        <time>2021-07-04 16:32:56</time>
      </trkpt>
      <trkpt lat="28.54603" lon="-14.06298">
        <ele>43.4</ele>
        <time>2021-07-04 16:32:57</time>
      </trkpt>
      <trkpt lat="28.546" lon="-14.063">
        <ele>43.4</ele>
        <time>2021-07-04 16:32:58</time>
      </trkpt>
      <trkpt lat="28.54596" lon="-14.06302">
        <ele>43.4</ele>
        <time>2021-07-04 16:32:59</time>
      </trkpt>
      <trkpt lat="28.54592" lon="-14.06305">
        <ele>43.2</ele>
        <time>2021-07-04 16:33:00</time>
      </trkpt>
      <trkpt lat="28.54589" lon="-14.06306">
        <ele>43.2</ele>
        <time>2021-07-04 16:33:01</time>
      </trkpt>
      <trkpt lat="28.54585" lon="-14.06308">
        <ele>43.2</ele>
        <time>2021-07-04 16:33:02</time>
      </trkpt>
      <trkpt lat="28.54582" lon="-14.06309">
        <ele>43.2</ele>
        <time>2021-07-04 16:33:03</time>
      </trkpt>
      <trkpt lat="28.54578" lon="-14.06311">
        <ele>42.8</ele>
        <time>2021-07-04 16:33:04</time>
      </trkpt>
      <trkpt lat="28.54575" lon="-14.06312">
        <ele>42.8</ele>
        <time>2021-07-04 16:33:05</time>
      </trkpt>
      <trkpt lat="28.54572" lon="-14.06314">
        <ele>42.6</ele>
        <time>2021-07-04 16:33:06</time>
      </trkpt>
      <trkpt lat="28.54568" lon="-14.06315">
        <ele>42.6</ele>
        <time>2021-07-04 16:33:07</time>
      </trkpt>
      <trkpt lat="28.54565" lon="-14.06315">
        <ele>42.2</ele>
        <time>2021-07-04 16:33:08</time>
      </trkpt>
      <trkpt lat="28.54563" lon="-14.06316">
        <ele>42.2</ele>
        <time>2021-07-04 16:33:09</time>
      </trkpt>
      <trkpt lat="28.54561" lon="-14.06316">
        <ele>41.8</ele>
        <time>2021-07-04 16:33:10</time>
      </trkpt>
      <trkpt lat="28.54558" lon="-14.06318">
        <ele>41.8</ele>
        <time>2021-07-04 16:33:11</time>
      </trkpt>
      <trkpt lat="28.54555" lon="-14.06319">
        <ele>41.8</ele>
        <time>2021-07-04 16:33:12</time>
      </trkpt>
      <trkpt lat="28.54551" lon="-14.0632">
        <ele>41.8</ele>
        <time>2021-07-04 16:33:13</time>
      </trkpt>
      <trkpt lat="28.54548" lon="-14.0632">
        <ele>41.8</ele>
        <time>2021-07-04 16:33:14</time>
      </trkpt>
      <trkpt lat="28.54544" lon="-14.06321">
        <ele>41.8</ele>
        <time>2021-07-04 16:33:15</time>
      </trkpt>
      <trkpt lat="28.54541" lon="-14.06321">
        <ele>41.8</ele>
        <time>2021-07-04 16:33:16</time>
      </trkpt>
      <trkpt lat="28.54537" lon="-14.06319">
        <ele>41.6</ele>
        <time>2021-07-04 16:33:17</time>
      </trkpt>
      <trkpt lat="28.54535" lon="-14.06317">
        <ele>41.6</ele>
        <time>2021-07-04 16:33:18</time>
      </trkpt>
      <trkpt lat="28.54533" lon="-14.06314">
        <ele>41.6</ele>
        <time>2021-07-04 16:33:19</time>
      </trkpt>
      <trkpt lat="28.5453" lon="-14.06311">
        <ele>41.6</ele>
        <time>2021-07-04 16:33:20</time>
      </trkpt>
      <trkpt lat="28.54527" lon="-14.06308">
        <ele>41.6</ele>
        <time>2021-07-04 16:33:21</time>
      </trkpt>
      <trkpt lat="28.54524" lon="-14.06304">
        <ele>42</ele>
        <time>2021-07-04 16:33:22</time>
      </trkpt>
      <trkpt lat="28.54522" lon="-14.06301">
        <ele>42</ele>
        <time>2021-07-04 16:33:23</time>
      </trkpt>
      <trkpt lat="28.54519" lon="-14.06297">
        <ele>42</ele>
        <time>2021-07-04 16:33:24</time>
      </trkpt>
      <trkpt lat="28.54517" lon="-14.06294">
        <ele>42</ele>
        <time>2021-07-04 16:33:25</time>
      </trkpt>
      <trkpt lat="28.54516" lon="-14.0629">
        <ele>42</ele>
        <time>2021-07-04 16:33:26</time>
      </trkpt>
      <trkpt lat="28.54515" lon="-14.06287">
        <ele>42</ele>
        <time>2021-07-04 16:33:27</time>
      </trkpt>
      <trkpt lat="28.54514" lon="-14.06283">
        <ele>42</ele>
        <time>2021-07-04 16:33:28</time>
      </trkpt>
      <trkpt lat="28.54513" lon="-14.06279">
        <ele>42.4</ele>
        <time>2021-07-04 16:33:29</time>
      </trkpt>
      <trkpt lat="28.54512" lon="-14.06276">
        <ele>42.6</ele>
        <time>2021-07-04 16:33:30</time>
      </trkpt>
      <trkpt lat="28.5451" lon="-14.06272">
        <ele>43</ele>
        <time>2021-07-04 16:33:31</time>
      </trkpt>
      <trkpt lat="28.54507" lon="-14.06269">
        <ele>43</ele>
        <time>2021-07-04 16:33:32</time>
      </trkpt>
      <trkpt lat="28.54504" lon="-14.06266">
        <ele>43.2</ele>
        <time>2021-07-04 16:33:33</time>
      </trkpt>
      <trkpt lat="28.54501" lon="-14.06263">
        <ele>43.2</ele>
        <time>2021-07-04 16:33:34</time>
      </trkpt>
      <trkpt lat="28.54498" lon="-14.06261">
        <ele>43.2</ele>
        <time>2021-07-04 16:33:35</time>
      </trkpt>
      <trkpt lat="28.54495" lon="-14.06258">
        <ele>43.2</ele>
        <time>2021-07-04 16:33:36</time>
      </trkpt>
      <trkpt lat="28.54493" lon="-14.06254">
        <ele>43.2</ele>
        <time>2021-07-04 16:33:37</time>
      </trkpt>
      <trkpt lat="28.54491" lon="-14.06251">
        <ele>43.2</ele>
        <time>2021-07-04 16:33:38</time>
      </trkpt>
      <trkpt lat="28.54489" lon="-14.06248">
        <ele>43.2</ele>
        <time>2021-07-04 16:33:39</time>
      </trkpt>
      <trkpt lat="28.54488" lon="-14.06246">
        <ele>43.2</ele>
        <time>2021-07-04 16:33:40</time>
      </trkpt>
      <trkpt lat="28.54486" lon="-14.06243">
        <ele>43.6</ele>
        <time>2021-07-04 16:33:41</time>
      </trkpt>
      <trkpt lat="28.54484" lon="-14.06241">
        <ele>43.6</ele>
        <time>2021-07-04 16:33:42</time>
      </trkpt>
      <trkpt lat="28.54481" lon="-14.06238">
        <ele>43.8</ele>
        <time>2021-07-04 16:33:43</time>
      </trkpt>
      <trkpt lat="28.54479" lon="-14.06237">
        <ele>43.8</ele>
        <time>2021-07-04 16:33:44</time>
      </trkpt>
      <trkpt lat="28.54476" lon="-14.06235">
        <ele>43.8</ele>
        <time>2021-07-04 16:33:45</time>
      </trkpt>
      <trkpt lat="28.54473" lon="-14.06234">
        <ele>43.8</ele>
        <time>2021-07-04 16:33:46</time>
      </trkpt>
      <trkpt lat="28.5447" lon="-14.06232">
        <ele>43.8</ele>
        <time>2021-07-04 16:33:47</time>
      </trkpt>
      <trkpt lat="28.54468" lon="-14.06229">
        <ele>43.8</ele>
        <time>2021-07-04 16:33:48</time>
      </trkpt>
      <trkpt lat="28.54466" lon="-14.06227">
        <ele>43.6</ele>
        <time>2021-07-04 16:33:49</time>
      </trkpt>
      <trkpt lat="28.54464" lon="-14.06225">
        <ele>43.6</ele>
        <time>2021-07-04 16:33:50</time>
      </trkpt>
      <trkpt lat="28.54461" lon="-14.06223">
        <ele>43.6</ele>
        <time>2021-07-04 16:33:51</time>
      </trkpt>
      <trkpt lat="28.54459" lon="-14.06222">
        <ele>43.6</ele>
        <time>2021-07-04 16:33:52</time>
      </trkpt>
      <trkpt lat="28.54456" lon="-14.06221">
        <ele>43.6</ele>
        <time>2021-07-04 16:33:53</time>
      </trkpt>
      <trkpt lat="28.54453" lon="-14.0622">
        <ele>43.6</ele>
        <time>2021-07-04 16:33:54</time>
      </trkpt>
      <trkpt lat="28.54451" lon="-14.06219">
        <ele>43.6</ele>
        <time>2021-07-04 16:33:55</time>
      </trkpt>
      <trkpt lat="28.54448" lon="-14.06219">
        <ele>43.6</ele>
        <time>2021-07-04 16:33:56</time>
      </trkpt>
      <trkpt lat="28.54446" lon="-14.06218">
        <ele>43.6</ele>
        <time>2021-07-04 16:33:57</time>
      </trkpt>
      <trkpt lat="28.54444" lon="-14.06217">
        <ele>43.6</ele>
        <time>2021-07-04 16:33:58</time>
      </trkpt>
      <trkpt lat="28.54441" lon="-14.06216">
        <ele>43.6</ele>
        <time>2021-07-04 16:33:59</time>
      </trkpt>
      <trkpt lat="28.54439" lon="-14.06215">
        <ele>43.2</ele>
        <time>2021-07-04 16:34:00</time>
      </trkpt>
      <trkpt lat="28.54437" lon="-14.06214">
        <ele>43</ele>
        <time>2021-07-04 16:34:01</time>
      </trkpt>
      <trkpt lat="28.54435" lon="-14.06213">
        <ele>42.6</ele>
        <time>2021-07-04 16:34:02</time>
      </trkpt>
      <trkpt lat="28.54434" lon="-14.06213">
        <ele>42.4</ele>
        <time>2021-07-04 16:34:03</time>
      </trkpt>
      <trkpt lat="28.54433" lon="-14.06213">
        <ele>42.4</ele>
        <time>2021-07-04 16:34:04</time>
      </trkpt>
      <trkpt lat="28.54432" lon="-14.06212">
        <ele>42.2</ele>
        <time>2021-07-04 16:34:05</time>
      </trkpt>
      <trkpt lat="28.54431" lon="-14.06211">
        <ele>42.2</ele>
        <time>2021-07-04 16:34:06</time>
      </trkpt>
      <trkpt lat="28.54429" lon="-14.06211">
        <ele>42.2</ele>
        <time>2021-07-04 16:34:07</time>
      </trkpt>
      <trkpt lat="28.54426" lon="-14.0621">
        <ele>41.8</ele>
        <time>2021-07-04 16:34:08</time>
      </trkpt>
      <trkpt lat="28.54423" lon="-14.0621">
        <ele>41.8</ele>
        <time>2021-07-04 16:34:09</time>
      </trkpt>
      <trkpt lat="28.54421" lon="-14.0621">
        <ele>41.4</ele>
        <time>2021-07-04 16:34:10</time>
      </trkpt>
      <trkpt lat="28.54419" lon="-14.0621">
        <ele>41.4</ele>
        <time>2021-07-04 16:34:11</time>
      </trkpt>
      <trkpt lat="28.54416" lon="-14.06209">
        <ele>41</ele>
        <time>2021-07-04 16:34:12</time>
      </trkpt>
      <trkpt lat="28.54413" lon="-14.06209">
        <ele>40.8</ele>
        <time>2021-07-04 16:34:13</time>
      </trkpt>
      <trkpt lat="28.5441" lon="-14.06208">
        <ele>40.6</ele>
        <time>2021-07-04 16:34:14</time>
      </trkpt>
      <trkpt lat="28.54407" lon="-14.06207">
        <ele>40.2</ele>
        <time>2021-07-04 16:34:15</time>
      </trkpt>
      <trkpt lat="28.54404" lon="-14.06207">
        <ele>39.8</ele>
        <time>2021-07-04 16:34:16</time>
      </trkpt>
      <trkpt lat="28.54402" lon="-14.06206">
        <ele>39.6</ele>
        <time>2021-07-04 16:34:17</time>
      </trkpt>
      <trkpt lat="28.544" lon="-14.06206">
        <ele>39.2</ele>
        <time>2021-07-04 16:34:18</time>
      </trkpt>
      <trkpt lat="28.54398" lon="-14.06206">
        <ele>39</ele>
        <time>2021-07-04 16:34:19</time>
      </trkpt>
      <trkpt lat="28.54397" lon="-14.06206">
        <ele>38.8</ele>
        <time>2021-07-04 16:34:20</time>
      </trkpt>
      <trkpt lat="28.54396" lon="-14.06206">
        <ele>38.8</ele>
        <time>2021-07-04 16:34:21</time>
      </trkpt>
      <trkpt lat="28.54397" lon="-14.06206">
        <ele>38.6</ele>
        <time>2021-07-04 16:34:22</time>
      </trkpt>
      <trkpt lat="28.54394" lon="-14.06205">
        <ele>38.4</ele>
        <time>2021-07-04 16:34:23</time>
      </trkpt>
      <trkpt lat="28.54391" lon="-14.06205">
        <ele>38.4</ele>
        <time>2021-07-04 16:34:24</time>
      </trkpt>
      <trkpt lat="28.54388" lon="-14.06204">
        <ele>37.8</ele>
        <time>2021-07-04 16:34:25</time>
      </trkpt>
      <trkpt lat="28.54382" lon="-14.06203">
        <ele>37.4</ele>
        <time>2021-07-04 16:34:26</time>
      </trkpt>
      <trkpt lat="28.54379" lon="-14.06203">
        <ele>37.2</ele>
        <time>2021-07-04 16:34:27</time>
      </trkpt>
      <trkpt lat="28.54376" lon="-14.06202">
        <ele>37</ele>
        <time>2021-07-04 16:34:28</time>
      </trkpt>
      <trkpt lat="28.54373" lon="-14.06201">
        <ele>36.8</ele>
        <time>2021-07-04 16:34:29</time>
      </trkpt>
      <trkpt lat="28.5437" lon="-14.062">
        <ele>36.4</ele>
        <time>2021-07-04 16:34:30</time>
      </trkpt>
      <trkpt lat="28.54367" lon="-14.06199">
        <ele>36</ele>
        <time>2021-07-04 16:34:31</time>
      </trkpt>
      <trkpt lat="28.54364" lon="-14.06197">
        <ele>35.8</ele>
        <time>2021-07-04 16:34:32</time>
      </trkpt>
      <trkpt lat="28.5436" lon="-14.06197">
        <ele>35.6</ele>
        <time>2021-07-04 16:34:33</time>
      </trkpt>
      <trkpt lat="28.54357" lon="-14.06197">
        <ele>35.2</ele>
        <time>2021-07-04 16:34:34</time>
      </trkpt>
      <trkpt lat="28.54354" lon="-14.06197">
        <ele>35</ele>
        <time>2021-07-04 16:34:35</time>
      </trkpt>
      <trkpt lat="28.54351" lon="-14.06199">
        <ele>34.6</ele>
        <time>2021-07-04 16:34:36</time>
      </trkpt>
      <trkpt lat="28.54349" lon="-14.062">
        <ele>34.4</ele>
        <time>2021-07-04 16:34:37</time>
      </trkpt>
      <trkpt lat="28.54347" lon="-14.06203">
        <ele>34</ele>
        <time>2021-07-04 16:34:38</time>
      </trkpt>
      <trkpt lat="28.54345" lon="-14.06206">
        <ele>33.8</ele>
        <time>2021-07-04 16:34:39</time>
      </trkpt>
      <trkpt lat="28.54344" lon="-14.06209">
        <ele>33.4</ele>
        <time>2021-07-04 16:34:40</time>
      </trkpt>
      <trkpt lat="28.54343" lon="-14.06213">
        <ele>33</ele>
        <time>2021-07-04 16:34:41</time>
      </trkpt>
      <trkpt lat="28.54343" lon="-14.06216">
        <ele>32.6</ele>
        <time>2021-07-04 16:34:42</time>
      </trkpt>
      <trkpt lat="28.54343" lon="-14.0622">
        <ele>32.2</ele>
        <time>2021-07-04 16:34:43</time>
      </trkpt>
      <trkpt lat="28.54343" lon="-14.06223">
        <ele>31.8</ele>
        <time>2021-07-04 16:34:44</time>
      </trkpt>
      <trkpt lat="28.54344" lon="-14.06227">
        <ele>31.6</ele>
        <time>2021-07-04 16:34:45</time>
      </trkpt>
      <trkpt lat="28.54344" lon="-14.0623">
        <ele>31.4</ele>
        <time>2021-07-04 16:34:46</time>
      </trkpt>
      <trkpt lat="28.54344" lon="-14.06234">
        <ele>31.4</ele>
        <time>2021-07-04 16:34:47</time>
      </trkpt>
      <trkpt lat="28.54345" lon="-14.06237">
        <ele>31</ele>
        <time>2021-07-04 16:34:48</time>
      </trkpt>
      <trkpt lat="28.54347" lon="-14.0624">
        <ele>31</ele>
        <time>2021-07-04 16:34:49</time>
      </trkpt>
      <trkpt lat="28.54349" lon="-14.06244">
        <ele>30.6</ele>
        <time>2021-07-04 16:34:50</time>
      </trkpt>
      <trkpt lat="28.54351" lon="-14.06247">
        <ele>30.2</ele>
        <time>2021-07-04 16:34:51</time>
      </trkpt>
      <trkpt lat="28.54352" lon="-14.06251">
        <ele>30.2</ele>
        <time>2021-07-04 16:34:52</time>
      </trkpt>
      <trkpt lat="28.54353" lon="-14.06253">
        <ele>29.8</ele>
        <time>2021-07-04 16:34:53</time>
      </trkpt>
      <trkpt lat="28.54354" lon="-14.06256">
        <ele>29.4</ele>
        <time>2021-07-04 16:34:54</time>
      </trkpt>
      <trkpt lat="28.54354" lon="-14.06258">
        <ele>29</ele>
        <time>2021-07-04 16:34:55</time>
      </trkpt>
      <trkpt lat="28.54354" lon="-14.0626">
        <ele>28.8</ele>
        <time>2021-07-04 16:34:56</time>
      </trkpt>
      <trkpt lat="28.54354" lon="-14.06262">
        <ele>28.8</ele>
        <time>2021-07-04 16:34:57</time>
      </trkpt>
      <trkpt lat="28.54354" lon="-14.06262">
        <ele>28.4</ele>
        <time>2021-07-04 16:34:58</time>
      </trkpt>
      <trkpt lat="28.54354" lon="-14.06261">
        <ele>28.4</ele>
        <time>2021-07-04 16:34:59</time>
      </trkpt>
      <trkpt lat="28.54354" lon="-14.06261">
        <ele>28.2</ele>
        <time>2021-07-04 16:35:00</time>
      </trkpt>
      <trkpt lat="28.54354" lon="-14.06261">
        <ele>26.8</ele>
        <time>2021-07-04 16:35:01</time>
      </trkpt>
      <trkpt lat="28.54354" lon="-14.06262">
        <ele>26.8</ele>
        <time>2021-07-04 16:35:02</time>
      </trkpt>
      <trkpt lat="28.54353" lon="-14.06264">
        <ele>26.8</ele>
        <time>2021-07-04 16:35:03</time>
      </trkpt>
      <trkpt lat="28.54351" lon="-14.06267">
        <ele>26.8</ele>
        <time>2021-07-04 16:35:04</time>
      </trkpt>
      <trkpt lat="28.54349" lon="-14.06269">
        <ele>26.8</ele>
        <time>2021-07-04 16:35:05</time>
      </trkpt>
      <trkpt lat="28.54347" lon="-14.06272">
        <ele>26.2</ele>
        <time>2021-07-04 16:35:06</time>
      </trkpt>
      <trkpt lat="28.54346" lon="-14.06275">
        <ele>25.8</ele>
        <time>2021-07-04 16:35:07</time>
      </trkpt>
      <trkpt lat="28.54344" lon="-14.06276">
        <ele>25.2</ele>
        <time>2021-07-04 16:35:08</time>
      </trkpt>
      <trkpt lat="28.54342" lon="-14.06278">
        <ele>24.6</ele>
        <time>2021-07-04 16:35:09</time>
      </trkpt>
      <trkpt lat="28.54339" lon="-14.06279">
        <ele>24.2</ele>
        <time>2021-07-04 16:35:10</time>
      </trkpt>
      <trkpt lat="28.54336" lon="-14.06279">
        <ele>23.6</ele>
        <time>2021-07-04 16:35:11</time>
      </trkpt>
      <trkpt lat="28.54334" lon="-14.06279">
        <ele>23</ele>
        <time>2021-07-04 16:35:12</time>
      </trkpt>
      <trkpt lat="28.54331" lon="-14.06278">
        <ele>22.4</ele>
        <time>2021-07-04 16:35:13</time>
      </trkpt>
      <trkpt lat="28.54328" lon="-14.06277">
        <ele>21.8</ele>
        <time>2021-07-04 16:35:14</time>
      </trkpt>
      <trkpt lat="28.54326" lon="-14.06275">
        <ele>21.2</ele>
        <time>2021-07-04 16:35:15</time>
      </trkpt>
      <trkpt lat="28.54323" lon="-14.06273">
        <ele>20.6</ele>
        <time>2021-07-04 16:35:16</time>
      </trkpt>
      <trkpt lat="28.5432" lon="-14.0627">
        <ele>20.2</ele>
        <time>2021-07-04 16:35:17</time>
      </trkpt>
      <trkpt lat="28.54318" lon="-14.06267">
        <ele>19.4</ele>
        <time>2021-07-04 16:35:18</time>
      </trkpt>
      <trkpt lat="28.54317" lon="-14.06263">
        <ele>19</ele>
        <time>2021-07-04 16:35:19</time>
      </trkpt>
      <trkpt lat="28.54315" lon="-14.0626">
        <ele>18.6</ele>
        <time>2021-07-04 16:35:20</time>
      </trkpt>
      <trkpt lat="28.54314" lon="-14.06256">
        <ele>18.2</ele>
        <time>2021-07-04 16:35:21</time>
      </trkpt>
      <trkpt lat="28.54313" lon="-14.06253">
        <ele>18</ele>
        <time>2021-07-04 16:35:22</time>
      </trkpt>
      <trkpt lat="28.54312" lon="-14.0625">
        <ele>17.6</ele>
        <time>2021-07-04 16:35:23</time>
      </trkpt>
      <trkpt lat="28.5431" lon="-14.06247">
        <ele>17.4</ele>
        <time>2021-07-04 16:35:24</time>
      </trkpt>
      <trkpt lat="28.54309" lon="-14.06244">
        <ele>17</ele>
        <time>2021-07-04 16:35:25</time>
      </trkpt>
      <trkpt lat="28.54308" lon="-14.06241">
        <ele>16.8</ele>
        <time>2021-07-04 16:35:26</time>
      </trkpt>
      <trkpt lat="28.54306" lon="-14.06238">
        <ele>16.2</ele>
        <time>2021-07-04 16:35:27</time>
      </trkpt>
      <trkpt lat="28.54305" lon="-14.06235">
        <ele>15.8</ele>
        <time>2021-07-04 16:35:28</time>
      </trkpt>
      <trkpt lat="28.54303" lon="-14.06234">
        <ele>15.4</ele>
        <time>2021-07-04 16:35:29</time>
      </trkpt>
      <trkpt lat="28.543" lon="-14.06233">
        <ele>14.8</ele>
        <time>2021-07-04 16:35:30</time>
      </trkpt>
      <trkpt lat="28.54297" lon="-14.06235">
        <ele>14.2</ele>
        <time>2021-07-04 16:35:31</time>
      </trkpt>
      <trkpt lat="28.54296" lon="-14.06239">
        <ele>13.6</ele>
        <time>2021-07-04 16:35:32</time>
      </trkpt>
      <trkpt lat="28.54296" lon="-14.06243">
        <ele>13</ele>
        <time>2021-07-04 16:35:33</time>
      </trkpt>
      <trkpt lat="28.54296" lon="-14.06247">
        <ele>12.4</ele>
        <time>2021-07-04 16:35:34</time>
      </trkpt>
      <trkpt lat="28.54297" lon="-14.06252">
        <ele>11.8</ele>
        <time>2021-07-04 16:35:35</time>
      </trkpt>
      <trkpt lat="28.54298" lon="-14.06256">
        <ele>11.2</ele>
        <time>2021-07-04 16:35:36</time>
      </trkpt>
      <trkpt lat="28.54299" lon="-14.0626">
        <ele>10.6</ele>
        <time>2021-07-04 16:35:37</time>
      </trkpt>
      <trkpt lat="28.54299" lon="-14.06265">
        <ele>10</ele>
        <time>2021-07-04 16:35:38</time>
      </trkpt>
      <trkpt lat="28.543" lon="-14.06268">
        <ele>9.4</ele>
        <time>2021-07-04 16:35:39</time>
      </trkpt>
      <trkpt lat="28.54301" lon="-14.06272">
        <ele>8.8</ele>
        <time>2021-07-04 16:35:40</time>
      </trkpt>
      <trkpt lat="28.54301" lon="-14.06275">
        <ele>8.2</ele>
        <time>2021-07-04 16:35:41</time>
      </trkpt>
      <trkpt lat="28.54302" lon="-14.06278">
        <ele>7.8</ele>
        <time>2021-07-04 16:35:42</time>
      </trkpt>
      <trkpt lat="28.54303" lon="-14.06281">
        <ele>7.2</ele>
        <time>2021-07-04 16:35:43</time>
      </trkpt>
      <trkpt lat="28.54304" lon="-14.06284">
        <ele>6.8</ele>
        <time>2021-07-04 16:35:44</time>
      </trkpt>
      <trkpt lat="28.54304" lon="-14.06287">
        <ele>6.4</ele>
        <time>2021-07-04 16:35:45</time>
      </trkpt>
      <trkpt lat="28.54304" lon="-14.0629">
        <ele>6</ele>
        <time>2021-07-04 16:35:46</time>
      </trkpt>
      <trkpt lat="28.54302" lon="-14.06292">
        <ele>5.8</ele>
        <time>2021-07-04 16:35:47</time>
      </trkpt>
      <trkpt lat="28.54299" lon="-14.06294">
        <ele>5.4</ele>
        <time>2021-07-04 16:35:48</time>
      </trkpt>
      <trkpt lat="28.54297" lon="-14.06293">
        <ele>5</ele>
        <time>2021-07-04 16:35:49</time>
      </trkpt>
      <trkpt lat="28.54294" lon="-14.06292">
        <ele>4.8</ele>
        <time>2021-07-04 16:35:50</time>
      </trkpt>
      <trkpt lat="28.54291" lon="-14.06289">
        <ele>4.6</ele>
        <time>2021-07-04 16:35:51</time>
      </trkpt>
      <trkpt lat="28.54288" lon="-14.06286">
        <ele>4.4</ele>
        <time>2021-07-04 16:35:52</time>
      </trkpt>
      <trkpt lat="28.54286" lon="-14.06283">
        <ele>4</ele>
        <time>2021-07-04 16:35:53</time>
      </trkpt>
      <trkpt lat="28.54283" lon="-14.06282">
        <ele>3.6</ele>
        <time>2021-07-04 16:35:54</time>
      </trkpt>
      <trkpt lat="28.5428" lon="-14.06281">
        <ele>3.2</ele>
        <time>2021-07-04 16:35:57</time>
      </trkpt>
      <trkpt lat="28.54276" lon="-14.06281">
        <ele>2.8</ele>
        <time>2021-07-04 16:35:58</time>
      </trkpt>
      <trkpt lat="28.54272" lon="-14.06281">
        <ele>2.4</ele>
        <time>2021-07-04 16:35:59</time>
      </trkpt>
      <trkpt lat="28.54269" lon="-14.06281">
        <ele>2</ele>
        <time>2021-07-04 16:36:00</time>
      </trkpt>
      <trkpt lat="28.54265" lon="-14.06282">
        <ele>1.8</ele>
        <time>2021-07-04 16:36:01</time>
      </trkpt>
      <trkpt lat="28.54263" lon="-14.06283">
        <ele>1.8</ele>
        <time>2021-07-04 16:36:02</time>
      </trkpt>
      <trkpt lat="28.5426" lon="-14.06285">
        <ele>1.4</ele>
        <time>2021-07-04 16:36:03</time>
      </trkpt>
      <trkpt lat="28.54257" lon="-14.06287">
        <ele>1.4</ele>
        <time>2021-07-04 16:36:04</time>
      </trkpt>
      <trkpt lat="28.54255" lon="-14.0629">
        <ele>1.4</ele>
        <time>2021-07-04 16:36:05</time>
      </trkpt>
      <trkpt lat="28.54254" lon="-14.06293">
        <ele>1.2</ele>
        <time>2021-07-04 16:36:06</time>
      </trkpt>
      <trkpt lat="28.54253" lon="-14.06296">
        <ele>1.2</ele>
        <time>2021-07-04 16:36:07</time>
      </trkpt>
      <trkpt lat="28.54253" lon="-14.06298">
        <ele>1.2</ele>
        <time>2021-07-04 16:36:08</time>
      </trkpt>
      <trkpt lat="28.54253" lon="-14.063">
        <ele>1.2</ele>
        <time>2021-07-04 16:36:09</time>
      </trkpt>
      <trkpt lat="28.54253" lon="-14.06303">
        <ele>1.2</ele>
        <time>2021-07-04 16:36:10</time>
      </trkpt>
      <trkpt lat="28.54253" lon="-14.06305">
        <ele>1.2</ele>
        <time>2021-07-04 16:36:11</time>
      </trkpt>
      <trkpt lat="28.54254" lon="-14.06308">
        <ele>1.2</ele>
        <time>2021-07-04 16:36:12</time>
      </trkpt>
      <trkpt lat="28.54254" lon="-14.0631">
        <ele>1.4</ele>
        <time>2021-07-04 16:36:13</time>
      </trkpt>
      <trkpt lat="28.54254" lon="-14.06311">
        <ele>1.8</ele>
        <time>2021-07-04 16:36:14</time>
      </trkpt>
      <trkpt lat="28.54254" lon="-14.06313">
        <ele>2.2</ele>
        <time>2021-07-04 16:36:15</time>
      </trkpt>
      <trkpt lat="28.54254" lon="-14.06314">
        <ele>2.6</ele>
        <time>2021-07-04 16:36:16</time>
      </trkpt>
      <trkpt lat="28.54253" lon="-14.06316">
        <ele>3</ele>
        <time>2021-07-04 16:36:17</time>
      </trkpt>
      <trkpt lat="28.54251" lon="-14.06317">
        <ele>3.4</ele>
        <time>2021-07-04 16:36:18</time>
      </trkpt>
      <trkpt lat="28.54248" lon="-14.06318">
        <ele>3.6</ele>
        <time>2021-07-04 16:36:19</time>
      </trkpt>
      <trkpt lat="28.54246" lon="-14.06318">
        <ele>3.8</ele>
        <time>2021-07-04 16:36:20</time>
      </trkpt>
      <trkpt lat="28.54244" lon="-14.06318">
        <ele>4</ele>
        <time>2021-07-04 16:36:21</time>
      </trkpt>
      <trkpt lat="28.54243" lon="-14.06317">
        <ele>4.2</ele>
        <time>2021-07-04 16:36:22</time>
      </trkpt>
      <trkpt lat="28.54241" lon="-14.06316">
        <ele>4.2</ele>
        <time>2021-07-04 16:36:23</time>
      </trkpt>
      <trkpt lat="28.54239" lon="-14.06315">
        <ele>4.2</ele>
        <time>2021-07-04 16:36:24</time>
      </trkpt>
      <trkpt lat="28.54237" lon="-14.06314">
        <ele>4.6</ele>
        <time>2021-07-04 16:36:25</time>
      </trkpt>
      <trkpt lat="28.54235" lon="-14.06313">
        <ele>4.6</ele>
        <time>2021-07-04 16:36:26</time>
      </trkpt>
      <trkpt lat="28.54233" lon="-14.06313">
        <ele>4.6</ele>
        <time>2021-07-04 16:36:27</time>
      </trkpt>
      <trkpt lat="28.54231" lon="-14.06312">
        <ele>5</ele>
        <time>2021-07-04 16:36:28</time>
      </trkpt>
      <trkpt lat="28.5423" lon="-14.06312">
        <ele>5</ele>
        <time>2021-07-04 16:36:29</time>
      </trkpt>
      <trkpt lat="28.54229" lon="-14.06311">
        <ele>5</ele>
        <time>2021-07-04 16:36:30</time>
      </trkpt>
      <trkpt lat="28.54229" lon="-14.06311">
        <ele>5</ele>
        <time>2021-07-04 16:36:31</time>
      </trkpt>
      <trkpt lat="28.54229" lon="-14.06311">
        <ele>5</ele>
        <time>2021-07-04 16:36:32</time>
      </trkpt>
      <trkpt lat="28.54229" lon="-14.0631">
        <ele>6.2</ele>
        <time>2021-07-04 16:36:33</time>
      </trkpt>
      <trkpt lat="28.54229" lon="-14.06308">
        <ele>6.2</ele>
        <time>2021-07-04 16:36:34</time>
      </trkpt>
      <trkpt lat="28.54228" lon="-14.06307">
        <ele>6.2</ele>
        <time>2021-07-04 16:36:35</time>
      </trkpt>
      <trkpt lat="28.54226" lon="-14.06305">
        <ele>6.2</ele>
        <time>2021-07-04 16:37:00</time>
      </trkpt>
      <trkpt lat="28.54225" lon="-14.06304">
        <ele>6.4</ele>
        <time>2021-07-04 16:37:01</time>
      </trkpt>
      <trkpt lat="28.54224" lon="-14.06303">
        <ele>6.4</ele>
        <time>2021-07-04 16:37:02</time>
      </trkpt>
      <trkpt lat="28.54222" lon="-14.06301">
        <ele>6.4</ele>
        <time>2021-07-04 16:37:03</time>
      </trkpt>
      <trkpt lat="28.54221" lon="-14.063">
        <ele>6.6</ele>
        <time>2021-07-04 16:37:04</time>
      </trkpt>
      <trkpt lat="28.5422" lon="-14.06298">
        <ele>6.6</ele>
        <time>2021-07-04 16:37:05</time>
      </trkpt>
      <trkpt lat="28.54218" lon="-14.06297">
        <ele>7</ele>
        <time>2021-07-04 16:37:06</time>
      </trkpt>
      <trkpt lat="28.54217" lon="-14.06295">
        <ele>7.2</ele>
        <time>2021-07-04 16:37:07</time>
      </trkpt>
      <trkpt lat="28.54216" lon="-14.06294">
        <ele>7.2</ele>
        <time>2021-07-04 16:37:08</time>
      </trkpt>
      <trkpt lat="28.54214" lon="-14.06293">
        <ele>7.6</ele>
        <time>2021-07-04 16:37:09</time>
      </trkpt>
      <trkpt lat="28.54212" lon="-14.06291">
        <ele>7.8</ele>
        <time>2021-07-04 16:37:10</time>
      </trkpt>
      <trkpt lat="28.54211" lon="-14.0629">
        <ele>7.8</ele>
        <time>2021-07-04 16:37:11</time>
      </trkpt>
      <trkpt lat="28.5421" lon="-14.06288">
        <ele>8.2</ele>
        <time>2021-07-04 16:37:12</time>
      </trkpt>
      <trkpt lat="28.54209" lon="-14.06286">
        <ele>8.2</ele>
        <time>2021-07-04 16:37:13</time>
      </trkpt>
      <trkpt lat="28.54209" lon="-14.06284">
        <ele>8.4</ele>
        <time>2021-07-04 16:37:14</time>
      </trkpt>
      <trkpt lat="28.54208" lon="-14.06283">
        <ele>8.4</ele>
        <time>2021-07-04 16:37:15</time>
      </trkpt>
      <trkpt lat="28.54207" lon="-14.06281">
        <ele>8.8</ele>
        <time>2021-07-04 16:37:16</time>
      </trkpt>
      <trkpt lat="28.54206" lon="-14.0628">
        <ele>8.8</ele>
        <time>2021-07-04 16:37:17</time>
      </trkpt>
      <trkpt lat="28.54205" lon="-14.06278">
        <ele>9.2</ele>
        <time>2021-07-04 16:37:18</time>
      </trkpt>
      <trkpt lat="28.54204" lon="-14.06276">
        <ele>9.2</ele>
        <time>2021-07-04 16:37:19</time>
      </trkpt>
      <trkpt lat="28.54204" lon="-14.06274">
        <ele>9.4</ele>
        <time>2021-07-04 16:37:20</time>
      </trkpt>
      <trkpt lat="28.54203" lon="-14.06273">
        <ele>9.6</ele>
        <time>2021-07-04 16:37:21</time>
      </trkpt>
      <trkpt lat="28.54203" lon="-14.06271">
        <ele>9.8</ele>
        <time>2021-07-04 16:37:22</time>
      </trkpt>
      <trkpt lat="28.54202" lon="-14.06269">
        <ele>10</ele>
        <time>2021-07-04 16:37:23</time>
      </trkpt>
      <trkpt lat="28.54202" lon="-14.06267">
        <ele>10.4</ele>
        <time>2021-07-04 16:37:24</time>
      </trkpt>
      <trkpt lat="28.54202" lon="-14.06265">
        <ele>10.6</ele>
        <time>2021-07-04 16:37:25</time>
      </trkpt>
      <trkpt lat="28.54202" lon="-14.06263">
        <ele>10.8</ele>
        <time>2021-07-04 16:37:26</time>
      </trkpt>
      <trkpt lat="28.54201" lon="-14.06261">
        <ele>11</ele>
        <time>2021-07-04 16:37:27</time>
      </trkpt>
      <trkpt lat="28.54201" lon="-14.06259">
        <ele>11.4</ele>
        <time>2021-07-04 16:37:28</time>
      </trkpt>
      <trkpt lat="28.542" lon="-14.06257">
        <ele>11.6</ele>
        <time>2021-07-04 16:37:29</time>
      </trkpt>
      <trkpt lat="28.542" lon="-14.06255">
        <ele>12</ele>
        <time>2021-07-04 16:37:30</time>
      </trkpt>
      <trkpt lat="28.542" lon="-14.06252">
        <ele>12.2</ele>
        <time>2021-07-04 16:37:31</time>
      </trkpt>
      <trkpt lat="28.542" lon="-14.0625">
        <ele>12.6</ele>
        <time>2021-07-04 16:37:32</time>
      </trkpt>
      <trkpt lat="28.542" lon="-14.06248">
        <ele>12.8</ele>
        <time>2021-07-04 16:37:33</time>
      </trkpt>
      <trkpt lat="28.542" lon="-14.06246">
        <ele>13.2</ele>
        <time>2021-07-04 16:37:34</time>
      </trkpt>
      <trkpt lat="28.542" lon="-14.06244">
        <ele>13.4</ele>
        <time>2021-07-04 16:37:35</time>
      </trkpt>
      <trkpt lat="28.542" lon="-14.06241">
        <ele>13.6</ele>
        <time>2021-07-04 16:37:36</time>
      </trkpt>
      <trkpt lat="28.54199" lon="-14.06239">
        <ele>13.6</ele>
        <time>2021-07-04 16:37:37</time>
      </trkpt>
      <trkpt lat="28.54199" lon="-14.06237">
        <ele>13.8</ele>
        <time>2021-07-04 16:37:38</time>
      </trkpt>
      <trkpt lat="28.54199" lon="-14.06235">
        <ele>13.8</ele>
        <time>2021-07-04 16:37:39</time>
      </trkpt>
      <trkpt lat="28.54199" lon="-14.06232">
        <ele>13.8</ele>
        <time>2021-07-04 16:37:40</time>
      </trkpt>
      <trkpt lat="28.54199" lon="-14.0623">
        <ele>14</ele>
        <time>2021-07-04 16:37:41</time>
      </trkpt>
      <trkpt lat="28.54199" lon="-14.06228">
        <ele>14</ele>
        <time>2021-07-04 16:37:42</time>
      </trkpt>
      <trkpt lat="28.54198" lon="-14.06226">
        <ele>14.4</ele>
        <time>2021-07-04 16:37:43</time>
      </trkpt>
      <trkpt lat="28.54198" lon="-14.06223">
        <ele>14.6</ele>
        <time>2021-07-04 16:37:44</time>
      </trkpt>
      <trkpt lat="28.54198" lon="-14.06221">
        <ele>14.6</ele>
        <time>2021-07-04 16:37:45</time>
      </trkpt>
      <trkpt lat="28.54198" lon="-14.06219">
        <ele>15</ele>
        <time>2021-07-04 16:37:46</time>
      </trkpt>
      <trkpt lat="28.54198" lon="-14.06217">
        <ele>15</ele>
        <time>2021-07-04 16:37:47</time>
      </trkpt>
      <trkpt lat="28.54197" lon="-14.06214">
        <ele>15.4</ele>
        <time>2021-07-04 16:37:48</time>
      </trkpt>
      <trkpt lat="28.54197" lon="-14.06212">
        <ele>15.6</ele>
        <time>2021-07-04 16:37:49</time>
      </trkpt>
      <trkpt lat="28.54197" lon="-14.0621">
        <ele>15.8</ele>
        <time>2021-07-04 16:37:50</time>
      </trkpt>
      <trkpt lat="28.54197" lon="-14.06208">
        <ele>16</ele>
        <time>2021-07-04 16:37:51</time>
      </trkpt>
      <trkpt lat="28.54197" lon="-14.06206">
        <ele>16.2</ele>
        <time>2021-07-04 16:37:52</time>
      </trkpt>
      <trkpt lat="28.54197" lon="-14.06204">
        <ele>16.6</ele>
        <time>2021-07-04 16:37:53</time>
      </trkpt>
      <trkpt lat="28.54197" lon="-14.06202">
        <ele>16.8</ele>
        <time>2021-07-04 16:37:54</time>
      </trkpt>
      <trkpt lat="28.54196" lon="-14.062">
        <ele>16.8</ele>
        <time>2021-07-04 16:37:55</time>
      </trkpt>
      <trkpt lat="28.54196" lon="-14.06197">
        <ele>17.2</ele>
        <time>2021-07-04 16:37:56</time>
      </trkpt>
      <trkpt lat="28.54196" lon="-14.06195">
        <ele>17.2</ele>
        <time>2021-07-04 16:37:57</time>
      </trkpt>
      <trkpt lat="28.54197" lon="-14.06193">
        <ele>17.4</ele>
        <time>2021-07-04 16:37:58</time>
      </trkpt>
      <trkpt lat="28.54197" lon="-14.06191">
        <ele>17.4</ele>
        <time>2021-07-04 16:37:59</time>
      </trkpt>
      <trkpt lat="28.54196" lon="-14.06188">
        <ele>17.8</ele>
        <time>2021-07-04 16:38:00</time>
      </trkpt>
      <trkpt lat="28.54196" lon="-14.06186">
        <ele>18</ele>
        <time>2021-07-04 16:38:01</time>
      </trkpt>
      <trkpt lat="28.54196" lon="-14.06183">
        <ele>18</ele>
        <time>2021-07-04 16:38:02</time>
      </trkpt>
      <trkpt lat="28.54196" lon="-14.06181">
        <ele>18.4</ele>
        <time>2021-07-04 16:38:03</time>
      </trkpt>
      <trkpt lat="28.54196" lon="-14.06179">
        <ele>18.4</ele>
        <time>2021-07-04 16:38:04</time>
      </trkpt>
      <trkpt lat="28.54196" lon="-14.06177">
        <ele>18.8</ele>
        <time>2021-07-04 16:38:05</time>
      </trkpt>
      <trkpt lat="28.54196" lon="-14.06175">
        <ele>18.8</ele>
        <time>2021-07-04 16:38:06</time>
      </trkpt>
      <trkpt lat="28.54196" lon="-14.06172">
        <ele>19.2</ele>
        <time>2021-07-04 16:38:07</time>
      </trkpt>
      <trkpt lat="28.54196" lon="-14.0617">
        <ele>19.4</ele>
        <time>2021-07-04 16:38:08</time>
      </trkpt>
      <trkpt lat="28.54196" lon="-14.06167">
        <ele>19.6</ele>
        <time>2021-07-04 16:38:09</time>
      </trkpt>
      <trkpt lat="28.54196" lon="-14.06165">
        <ele>20</ele>
        <time>2021-07-04 16:38:10</time>
      </trkpt>
      <trkpt lat="28.54197" lon="-14.06163">
        <ele>20.2</ele>
        <time>2021-07-04 16:38:11</time>
      </trkpt>
      <trkpt lat="28.54197" lon="-14.06161">
        <ele>20.4</ele>
        <time>2021-07-04 16:38:12</time>
      </trkpt>
      <trkpt lat="28.54197" lon="-14.06159">
        <ele>20.4</ele>
        <time>2021-07-04 16:38:13</time>
      </trkpt>
      <trkpt lat="28.54197" lon="-14.06156">
        <ele>20.6</ele>
        <time>2021-07-04 16:38:14</time>
      </trkpt>
      <trkpt lat="28.54197" lon="-14.06154">
        <ele>21</ele>
        <time>2021-07-04 16:38:15</time>
      </trkpt>
      <trkpt lat="28.54197" lon="-14.06152">
        <ele>21</ele>
        <time>2021-07-04 16:38:16</time>
      </trkpt>
      <trkpt lat="28.54197" lon="-14.0615">
        <ele>21.4</ele>
        <time>2021-07-04 16:38:17</time>
      </trkpt>
      <trkpt lat="28.54197" lon="-14.06148">
        <ele>21.6</ele>
        <time>2021-07-04 16:38:18</time>
      </trkpt>
      <trkpt lat="28.54197" lon="-14.06145">
        <ele>21.6</ele>
        <time>2021-07-04 16:38:19</time>
      </trkpt>
      <trkpt lat="28.54197" lon="-14.06143">
        <ele>21.8</ele>
        <time>2021-07-04 16:38:20</time>
      </trkpt>
      <trkpt lat="28.54197" lon="-14.06141">
        <ele>21.8</ele>
        <time>2021-07-04 16:38:21</time>
      </trkpt>
      <trkpt lat="28.54197" lon="-14.06139">
        <ele>22.2</ele>
        <time>2021-07-04 16:38:22</time>
      </trkpt>
      <trkpt lat="28.54197" lon="-14.06136">
        <ele>22.2</ele>
        <time>2021-07-04 16:38:23</time>
      </trkpt>
      <trkpt lat="28.54197" lon="-14.06134">
        <ele>22.6</ele>
        <time>2021-07-04 16:38:24</time>
      </trkpt>
      <trkpt lat="28.54197" lon="-14.06132">
        <ele>22.6</ele>
        <time>2021-07-04 16:38:25</time>
      </trkpt>
      <trkpt lat="28.54197" lon="-14.0613">
        <ele>23</ele>
        <time>2021-07-04 16:38:26</time>
      </trkpt>
      <trkpt lat="28.54197" lon="-14.06127">
        <ele>23</ele>
        <time>2021-07-04 16:38:27</time>
      </trkpt>
      <trkpt lat="28.54197" lon="-14.06125">
        <ele>23.4</ele>
        <time>2021-07-04 16:38:28</time>
      </trkpt>
      <trkpt lat="28.54197" lon="-14.06123">
        <ele>23.6</ele>
        <time>2021-07-04 16:38:29</time>
      </trkpt>
      <trkpt lat="28.54198" lon="-14.06121">
        <ele>23.6</ele>
        <time>2021-07-04 16:39:27</time>
      </trkpt>
      <trkpt lat="28.54198" lon="-14.06118">
        <ele>24</ele>
        <time>2021-07-04 16:39:28</time>
      </trkpt>
      <trkpt lat="28.54198" lon="-14.06116">
        <ele>24.4</ele>
        <time>2021-07-04 16:39:29</time>
      </trkpt>
      <trkpt lat="28.54199" lon="-14.06114">
        <ele>24.4</ele>
        <time>2021-07-04 16:39:30</time>
      </trkpt>
      <trkpt lat="28.54199" lon="-14.06112">
        <ele>24.6</ele>
        <time>2021-07-04 16:39:31</time>
      </trkpt>
      <trkpt lat="28.542" lon="-14.0611">
        <ele>24.6</ele>
        <time>2021-07-04 16:39:32</time>
      </trkpt>
      <trkpt lat="28.542" lon="-14.06108">
        <ele>24.8</ele>
        <time>2021-07-04 16:39:33</time>
      </trkpt>
      <trkpt lat="28.54201" lon="-14.06105">
        <ele>24.8</ele>
        <time>2021-07-04 16:39:34</time>
      </trkpt>
      <trkpt lat="28.54201" lon="-14.06103">
        <ele>24.8</ele>
        <time>2021-07-04 16:39:35</time>
      </trkpt>
      <trkpt lat="28.54201" lon="-14.06101">
        <ele>25.2</ele>
        <time>2021-07-04 16:39:36</time>
      </trkpt>
      <trkpt lat="28.54202" lon="-14.06099">
        <ele>25.2</ele>
        <time>2021-07-04 16:39:37</time>
      </trkpt>
      <trkpt lat="28.54202" lon="-14.06097">
        <ele>25.4</ele>
        <time>2021-07-04 16:39:38</time>
      </trkpt>
      <trkpt lat="28.54203" lon="-14.06095">
        <ele>25.4</ele>
        <time>2021-07-04 16:39:39</time>
      </trkpt>
      <trkpt lat="28.54204" lon="-14.06093">
        <ele>25.6</ele>
        <time>2021-07-04 16:39:40</time>
      </trkpt>
      <trkpt lat="28.54204" lon="-14.06091">
        <ele>25.6</ele>
        <time>2021-07-04 16:39:41</time>
      </trkpt>
      <trkpt lat="28.54205" lon="-14.0609">
        <ele>26</ele>
        <time>2021-07-04 16:39:42</time>
      </trkpt>
      <trkpt lat="28.54205" lon="-14.06088">
        <ele>26</ele>
        <time>2021-07-04 16:39:43</time>
      </trkpt>
      <trkpt lat="28.54206" lon="-14.06086">
        <ele>26.2</ele>
        <time>2021-07-04 16:39:44</time>
      </trkpt>
      <trkpt lat="28.54207" lon="-14.06084">
        <ele>26.2</ele>
        <time>2021-07-04 16:39:45</time>
      </trkpt>
      <trkpt lat="28.54208" lon="-14.06082">
        <ele>26.2</ele>
        <time>2021-07-04 16:39:46</time>
      </trkpt>
      <trkpt lat="28.54208" lon="-14.0608">
        <ele>26.4</ele>
        <time>2021-07-04 16:39:47</time>
      </trkpt>
      <trkpt lat="28.54209" lon="-14.06078">
        <ele>26.4</ele>
        <time>2021-07-04 16:39:48</time>
      </trkpt>
      <trkpt lat="28.5421" lon="-14.06076">
        <ele>26.8</ele>
        <time>2021-07-04 16:39:49</time>
      </trkpt>
      <trkpt lat="28.54211" lon="-14.06074">
        <ele>26.8</ele>
        <time>2021-07-04 16:39:50</time>
      </trkpt>
      <trkpt lat="28.54212" lon="-14.06072">
        <ele>27.2</ele>
        <time>2021-07-04 16:39:51</time>
      </trkpt>
      <trkpt lat="28.54212" lon="-14.0607">
        <ele>27.2</ele>
        <time>2021-07-04 16:39:52</time>
      </trkpt>
      <trkpt lat="28.54213" lon="-14.06068">
        <ele>27.6</ele>
        <time>2021-07-04 16:39:53</time>
      </trkpt>
      <trkpt lat="28.54214" lon="-14.06066">
        <ele>27.6</ele>
        <time>2021-07-04 16:39:54</time>
      </trkpt>
      <trkpt lat="28.54215" lon="-14.06064">
        <ele>27.8</ele>
        <time>2021-07-04 16:39:55</time>
      </trkpt>
      <trkpt lat="28.54216" lon="-14.06062">
        <ele>27.8</ele>
        <time>2021-07-04 16:39:56</time>
      </trkpt>
      <trkpt lat="28.54217" lon="-14.0606">
        <ele>27.8</ele>
        <time>2021-07-04 16:39:57</time>
      </trkpt>
      <trkpt lat="28.54218" lon="-14.06058">
        <ele>28</ele>
        <time>2021-07-04 16:39:58</time>
      </trkpt>
      <trkpt lat="28.54219" lon="-14.06056">
        <ele>28</ele>
        <time>2021-07-04 16:39:59</time>
      </trkpt>
      <trkpt lat="28.5422" lon="-14.06054">
        <ele>28.4</ele>
        <time>2021-07-04 16:40:00</time>
      </trkpt>
      <trkpt lat="28.54221" lon="-14.06052">
        <ele>28.4</ele>
        <time>2021-07-04 16:40:01</time>
      </trkpt>
      <trkpt lat="28.54222" lon="-14.0605">
        <ele>28.6</ele>
        <time>2021-07-04 16:40:02</time>
      </trkpt>
      <trkpt lat="28.54223" lon="-14.06048">
        <ele>28.6</ele>
        <time>2021-07-04 16:40:03</time>
      </trkpt>
      <trkpt lat="28.54224" lon="-14.06047">
        <ele>29</ele>
        <time>2021-07-04 16:40:04</time>
      </trkpt>
      <trkpt lat="28.54226" lon="-14.06045">
        <ele>29</ele>
        <time>2021-07-04 16:40:05</time>
      </trkpt>
      <trkpt lat="28.54227" lon="-14.06043">
        <ele>29</ele>
        <time>2021-07-04 16:40:06</time>
      </trkpt>
      <trkpt lat="28.54228" lon="-14.06041">
        <ele>29.2</ele>
        <time>2021-07-04 16:40:07</time>
      </trkpt>
      <trkpt lat="28.54229" lon="-14.0604">
        <ele>29.2</ele>
        <time>2021-07-04 16:40:08</time>
      </trkpt>
      <trkpt lat="28.5423" lon="-14.06038">
        <ele>29.6</ele>
        <time>2021-07-04 16:40:09</time>
      </trkpt>
      <trkpt lat="28.54232" lon="-14.06037">
        <ele>29.6</ele>
        <time>2021-07-04 16:40:10</time>
      </trkpt>
      <trkpt lat="28.54233" lon="-14.06036">
        <ele>30</ele>
        <time>2021-07-04 16:40:11</time>
      </trkpt>
      <trkpt lat="28.54234" lon="-14.06034">
        <ele>30.2</ele>
        <time>2021-07-04 16:40:12</time>
      </trkpt>
      <trkpt lat="28.54236" lon="-14.06033">
        <ele>30.4</ele>
        <time>2021-07-04 16:40:13</time>
      </trkpt>
      <trkpt lat="28.54237" lon="-14.06031">
        <ele>30.4</ele>
        <time>2021-07-04 16:40:14</time>
      </trkpt>
      <trkpt lat="28.54238" lon="-14.06029">
        <ele>30.8</ele>
        <time>2021-07-04 16:40:15</time>
      </trkpt>
      <trkpt lat="28.54239" lon="-14.06028">
        <ele>30.8</ele>
        <time>2021-07-04 16:40:16</time>
      </trkpt>
      <trkpt lat="28.54241" lon="-14.06026">
        <ele>31</ele>
        <time>2021-07-04 16:40:17</time>
      </trkpt>
      <trkpt lat="28.54243" lon="-14.06025">
        <ele>31.4</ele>
        <time>2021-07-04 16:40:18</time>
      </trkpt>
      <trkpt lat="28.54244" lon="-14.06023">
        <ele>31.4</ele>
        <time>2021-07-04 16:40:19</time>
      </trkpt>
      <trkpt lat="28.54246" lon="-14.06022">
        <ele>31.6</ele>
        <time>2021-07-04 16:40:20</time>
      </trkpt>
      <trkpt lat="28.54248" lon="-14.06021">
        <ele>31.6</ele>
        <time>2021-07-04 16:40:21</time>
      </trkpt>
      <trkpt lat="28.54249" lon="-14.0602">
        <ele>32</ele>
        <time>2021-07-04 16:40:22</time>
      </trkpt>
      <trkpt lat="28.5425" lon="-14.06018">
        <ele>32</ele>
        <time>2021-07-04 16:40:23</time>
      </trkpt>
      <trkpt lat="28.54252" lon="-14.06017">
        <ele>32.4</ele>
        <time>2021-07-04 16:40:24</time>
      </trkpt>
      <trkpt lat="28.54253" lon="-14.06016">
        <ele>32.4</ele>
        <time>2021-07-04 16:40:25</time>
      </trkpt>
      <trkpt lat="28.54255" lon="-14.06015">
        <ele>32.6</ele>
        <time>2021-07-04 16:40:26</time>
      </trkpt>
      <trkpt lat="28.54256" lon="-14.06015">
        <ele>32.6</ele>
        <time>2021-07-04 16:40:27</time>
      </trkpt>
      <trkpt lat="28.54258" lon="-14.06014">
        <ele>32.8</ele>
        <time>2021-07-04 16:40:28</time>
      </trkpt>
      <trkpt lat="28.5426" lon="-14.06013">
        <ele>32.8</ele>
        <time>2021-07-04 16:40:29</time>
      </trkpt>
      <trkpt lat="28.54261" lon="-14.06012">
        <ele>33.2</ele>
        <time>2021-07-04 16:40:30</time>
      </trkpt>
      <trkpt lat="28.54263" lon="-14.06011">
        <ele>33.2</ele>
        <time>2021-07-04 16:40:31</time>
      </trkpt>
      <trkpt lat="28.54265" lon="-14.0601">
        <ele>33.6</ele>
        <time>2021-07-04 16:40:32</time>
      </trkpt>
      <trkpt lat="28.54267" lon="-14.0601">
        <ele>33.6</ele>
        <time>2021-07-04 16:40:33</time>
      </trkpt>
      <trkpt lat="28.54269" lon="-14.06009">
        <ele>34</ele>
        <time>2021-07-04 16:40:34</time>
      </trkpt>
      <trkpt lat="28.54271" lon="-14.06008">
        <ele>34</ele>
        <time>2021-07-04 16:40:35</time>
      </trkpt>
      <trkpt lat="28.54273" lon="-14.06007">
        <ele>34.4</ele>
        <time>2021-07-04 16:40:36</time>
      </trkpt>
      <trkpt lat="28.54275" lon="-14.06007">
        <ele>34.6</ele>
        <time>2021-07-04 16:40:37</time>
      </trkpt>
      <trkpt lat="28.54277" lon="-14.06007">
        <ele>35</ele>
        <time>2021-07-04 16:40:38</time>
      </trkpt>
      <trkpt lat="28.54279" lon="-14.06006">
        <ele>35.2</ele>
        <time>2021-07-04 16:40:39</time>
      </trkpt>
      <trkpt lat="28.54281" lon="-14.06006">
        <ele>35.4</ele>
        <time>2021-07-04 16:40:40</time>
      </trkpt>
      <trkpt lat="28.54283" lon="-14.06005">
        <ele>35.8</ele>
        <time>2021-07-04 16:40:41</time>
      </trkpt>
      <trkpt lat="28.54285" lon="-14.06005">
        <ele>36</ele>
        <time>2021-07-04 16:40:42</time>
      </trkpt>
      <trkpt lat="28.54287" lon="-14.06005">
        <ele>36.2</ele>
        <time>2021-07-04 16:40:43</time>
      </trkpt>
      <trkpt lat="28.54289" lon="-14.06004">
        <ele>36.6</ele>
        <time>2021-07-04 16:40:44</time>
      </trkpt>
      <trkpt lat="28.54291" lon="-14.06004">
        <ele>36.8</ele>
        <time>2021-07-04 16:40:45</time>
      </trkpt>
      <trkpt lat="28.54294" lon="-14.06004">
        <ele>37</ele>
        <time>2021-07-04 16:40:46</time>
      </trkpt>
      <trkpt lat="28.54296" lon="-14.06004">
        <ele>37.2</ele>
        <time>2021-07-04 16:40:47</time>
      </trkpt>
      <trkpt lat="28.54298" lon="-14.06003">
        <ele>37.4</ele>
        <time>2021-07-04 16:40:48</time>
      </trkpt>
      <trkpt lat="28.543" lon="-14.06003">
        <ele>37.6</ele>
        <time>2021-07-04 16:40:49</time>
      </trkpt>
      <trkpt lat="28.54302" lon="-14.06003">
        <ele>38</ele>
        <time>2021-07-04 16:40:50</time>
      </trkpt>
      <trkpt lat="28.54304" lon="-14.06003">
        <ele>38.2</ele>
        <time>2021-07-04 16:40:51</time>
      </trkpt>
      <trkpt lat="28.54306" lon="-14.06003">
        <ele>38.6</ele>
        <time>2021-07-04 16:40:52</time>
      </trkpt>
      <trkpt lat="28.54308" lon="-14.06003">
        <ele>38.8</ele>
        <time>2021-07-04 16:40:53</time>
      </trkpt>
      <trkpt lat="28.5431" lon="-14.06004">
        <ele>39.2</ele>
        <time>2021-07-04 16:40:54</time>
      </trkpt>
      <trkpt lat="28.54313" lon="-14.06003">
        <ele>39.4</ele>
        <time>2021-07-04 16:40:55</time>
      </trkpt>
      <trkpt lat="28.54315" lon="-14.06003">
        <ele>39.6</ele>
        <time>2021-07-04 16:40:56</time>
      </trkpt>
      <trkpt lat="28.54317" lon="-14.06003">
        <ele>39.8</ele>
        <time>2021-07-04 16:40:57</time>
      </trkpt>
      <trkpt lat="28.54319" lon="-14.06003">
        <ele>39.8</ele>
        <time>2021-07-04 16:40:58</time>
      </trkpt>
      <trkpt lat="28.54321" lon="-14.06003">
        <ele>40.2</ele>
        <time>2021-07-04 16:40:59</time>
      </trkpt>
      <trkpt lat="28.54323" lon="-14.06003">
        <ele>40.4</ele>
        <time>2021-07-04 16:41:00</time>
      </trkpt>
      <trkpt lat="28.54325" lon="-14.06003">
        <ele>40.6</ele>
        <time>2021-07-04 16:41:01</time>
      </trkpt>
      <trkpt lat="28.54327" lon="-14.06003">
        <ele>41</ele>
        <time>2021-07-04 16:41:02</time>
      </trkpt>
      <trkpt lat="28.5433" lon="-14.06003">
        <ele>41.2</ele>
        <time>2021-07-04 16:41:03</time>
      </trkpt>
      <trkpt lat="28.54331" lon="-14.06002">
        <ele>41.6</ele>
        <time>2021-07-04 16:41:04</time>
      </trkpt>
      <trkpt lat="28.54333" lon="-14.06002">
        <ele>42</ele>
        <time>2021-07-04 16:41:05</time>
      </trkpt>
      <trkpt lat="28.54335" lon="-14.06">
        <ele>42.4</ele>
        <time>2021-07-04 16:41:06</time>
      </trkpt>
      <trkpt lat="28.54337" lon="-14.05998">
        <ele>42.6</ele>
        <time>2021-07-04 16:41:07</time>
      </trkpt>
      <trkpt lat="28.54338" lon="-14.05996">
        <ele>43</ele>
        <time>2021-07-04 16:41:08</time>
      </trkpt>
      <trkpt lat="28.54338" lon="-14.05993">
        <ele>43.4</ele>
        <time>2021-07-04 16:41:09</time>
      </trkpt>
      <trkpt lat="28.54339" lon="-14.05991">
        <ele>43.8</ele>
        <time>2021-07-04 16:41:10</time>
      </trkpt>
      <trkpt lat="28.54339" lon="-14.05988">
        <ele>44</ele>
        <time>2021-07-04 16:41:11</time>
      </trkpt>
      <trkpt lat="28.54339" lon="-14.05986">
        <ele>44.4</ele>
        <time>2021-07-04 16:41:12</time>
      </trkpt>
      <trkpt lat="28.54339" lon="-14.05983">
        <ele>44.6</ele>
        <time>2021-07-04 16:41:13</time>
      </trkpt>
      <trkpt lat="28.54338" lon="-14.05981">
        <ele>44.8</ele>
        <time>2021-07-04 16:41:14</time>
      </trkpt>
      <trkpt lat="28.54338" lon="-14.05978">
        <ele>45.2</ele>
        <time>2021-07-04 16:41:15</time>
      </trkpt>
      <trkpt lat="28.54337" lon="-14.05976">
        <ele>45.6</ele>
        <time>2021-07-04 16:41:16</time>
      </trkpt>
      <trkpt lat="28.54337" lon="-14.05974">
        <ele>45.6</ele>
        <time>2021-07-04 16:41:17</time>
      </trkpt>
      <trkpt lat="28.54336" lon="-14.05972">
        <ele>45.8</ele>
        <time>2021-07-04 16:41:18</time>
      </trkpt>
      <trkpt lat="28.54335" lon="-14.05969">
        <ele>45.8</ele>
        <time>2021-07-04 16:41:19</time>
      </trkpt>
      <trkpt lat="28.54334" lon="-14.05967">
        <ele>46.2</ele>
        <time>2021-07-04 16:41:20</time>
      </trkpt>
      <trkpt lat="28.54333" lon="-14.05965">
        <ele>46.2</ele>
        <time>2021-07-04 16:41:21</time>
      </trkpt>
      <trkpt lat="28.54332" lon="-14.05963">
        <ele>46.4</ele>
        <time>2021-07-04 16:41:22</time>
      </trkpt>
      <trkpt lat="28.54331" lon="-14.05961">
        <ele>46.4</ele>
        <time>2021-07-04 16:41:23</time>
      </trkpt>
      <trkpt lat="28.54331" lon="-14.05959">
        <ele>46.6</ele>
        <time>2021-07-04 16:41:24</time>
      </trkpt>
      <trkpt lat="28.5433" lon="-14.05957">
        <ele>46.6</ele>
        <time>2021-07-04 16:41:25</time>
      </trkpt>
      <trkpt lat="28.5433" lon="-14.05954">
        <ele>47</ele>
        <time>2021-07-04 16:41:26</time>
      </trkpt>
      <trkpt lat="28.54329" lon="-14.05952">
        <ele>47</ele>
        <time>2021-07-04 16:41:27</time>
      </trkpt>
      <trkpt lat="28.54328" lon="-14.0595">
        <ele>47.4</ele>
        <time>2021-07-04 16:41:28</time>
      </trkpt>
      <trkpt lat="28.54327" lon="-14.05948">
        <ele>47.6</ele>
        <time>2021-07-04 16:41:29</time>
      </trkpt>
      <trkpt lat="28.54327" lon="-14.05946">
        <ele>47.6</ele>
        <time>2021-07-04 16:41:30</time>
      </trkpt>
      <trkpt lat="28.54326" lon="-14.05943">
        <ele>48</ele>
        <time>2021-07-04 16:41:31</time>
      </trkpt>
      <trkpt lat="28.54325" lon="-14.05941">
        <ele>48.2</ele>
        <time>2021-07-04 16:41:32</time>
      </trkpt>
      <trkpt lat="28.54324" lon="-14.05939">
        <ele>48.4</ele>
        <time>2021-07-04 16:41:33</time>
      </trkpt>
      <trkpt lat="28.54322" lon="-14.05938">
        <ele>48.4</ele>
        <time>2021-07-04 16:41:34</time>
      </trkpt>
      <trkpt lat="28.54321" lon="-14.05935">
        <ele>48.8</ele>
        <time>2021-07-04 16:41:35</time>
      </trkpt>
      <trkpt lat="28.5432" lon="-14.05933">
        <ele>49.2</ele>
        <time>2021-07-04 16:41:36</time>
      </trkpt>
      <trkpt lat="28.5432" lon="-14.05931">
        <ele>49.4</ele>
        <time>2021-07-04 16:41:37</time>
      </trkpt>
      <trkpt lat="28.54319" lon="-14.05929">
        <ele>49.6</ele>
        <time>2021-07-04 16:41:38</time>
      </trkpt>
      <trkpt lat="28.54318" lon="-14.05927">
        <ele>49.6</ele>
        <time>2021-07-04 16:41:39</time>
      </trkpt>
      <trkpt lat="28.54317" lon="-14.05924">
        <ele>50</ele>
        <time>2021-07-04 16:41:40</time>
      </trkpt>
      <trkpt lat="28.54316" lon="-14.05922">
        <ele>50</ele>
        <time>2021-07-04 16:41:41</time>
      </trkpt>
      <trkpt lat="28.54315" lon="-14.0592">
        <ele>50.2</ele>
        <time>2021-07-04 16:41:42</time>
      </trkpt>
      <trkpt lat="28.54314" lon="-14.05918">
        <ele>50.2</ele>
        <time>2021-07-04 16:41:43</time>
      </trkpt>
      <trkpt lat="28.54313" lon="-14.05915">
        <ele>50.4</ele>
        <time>2021-07-04 16:41:44</time>
      </trkpt>
      <trkpt lat="28.54312" lon="-14.05913">
        <ele>50.4</ele>
        <time>2021-07-04 16:41:45</time>
      </trkpt>
      <trkpt lat="28.54311" lon="-14.05911">
        <ele>50.4</ele>
        <time>2021-07-04 16:41:46</time>
      </trkpt>
      <trkpt lat="28.5431" lon="-14.05909">
        <ele>50.4</ele>
        <time>2021-07-04 16:41:47</time>
      </trkpt>
      <trkpt lat="28.54309" lon="-14.05907">
        <ele>50.8</ele>
        <time>2021-07-04 16:41:48</time>
      </trkpt>
      <trkpt lat="28.54307" lon="-14.05904">
        <ele>50.8</ele>
        <time>2021-07-04 16:41:49</time>
      </trkpt>
      <trkpt lat="28.54306" lon="-14.05902">
        <ele>51</ele>
        <time>2021-07-04 16:41:50</time>
      </trkpt>
      <trkpt lat="28.54305" lon="-14.05899">
        <ele>51</ele>
        <time>2021-07-04 16:41:51</time>
      </trkpt>
      <trkpt lat="28.54304" lon="-14.05897">
        <ele>51.4</ele>
        <time>2021-07-04 16:41:52</time>
      </trkpt>
      <trkpt lat="28.54304" lon="-14.05895">
        <ele>51.6</ele>
        <time>2021-07-04 16:41:53</time>
      </trkpt>
      <trkpt lat="28.54303" lon="-14.05892">
        <ele>51.8</ele>
        <time>2021-07-04 16:41:54</time>
      </trkpt>
      <trkpt lat="28.54301" lon="-14.0589">
        <ele>52.2</ele>
        <time>2021-07-04 16:41:55</time>
      </trkpt>
      <trkpt lat="28.543" lon="-14.05888">
        <ele>52.4</ele>
        <time>2021-07-04 16:41:56</time>
      </trkpt>
      <trkpt lat="28.54299" lon="-14.05886">
        <ele>52.6</ele>
        <time>2021-07-04 16:41:57</time>
      </trkpt>
      <trkpt lat="28.54298" lon="-14.05883">
        <ele>52.6</ele>
        <time>2021-07-04 16:41:58</time>
      </trkpt>
      <trkpt lat="28.54296" lon="-14.05881">
        <ele>53</ele>
        <time>2021-07-04 16:41:59</time>
      </trkpt>
      <trkpt lat="28.54295" lon="-14.05879">
        <ele>53</ele>
        <time>2021-07-04 16:42:00</time>
      </trkpt>
      <trkpt lat="28.54294" lon="-14.05877">
        <ele>53.2</ele>
        <time>2021-07-04 16:42:01</time>
      </trkpt>
      <trkpt lat="28.54293" lon="-14.05874">
        <ele>53.2</ele>
        <time>2021-07-04 16:42:02</time>
      </trkpt>
      <trkpt lat="28.54291" lon="-14.05872">
        <ele>53.2</ele>
        <time>2021-07-04 16:42:03</time>
      </trkpt>
      <trkpt lat="28.5429" lon="-14.05869">
        <ele>53.4</ele>
        <time>2021-07-04 16:42:04</time>
      </trkpt>
      <trkpt lat="28.54289" lon="-14.05867">
        <ele>53.4</ele>
        <time>2021-07-04 16:42:05</time>
      </trkpt>
      <trkpt lat="28.54288" lon="-14.05865">
        <ele>53.4</ele>
        <time>2021-07-04 16:42:06</time>
      </trkpt>
      <trkpt lat="28.54286" lon="-14.05862">
        <ele>53.4</ele>
        <time>2021-07-04 16:42:07</time>
      </trkpt>
      <trkpt lat="28.54285" lon="-14.0586">
        <ele>53.6</ele>
        <time>2021-07-04 16:42:08</time>
      </trkpt>
      <trkpt lat="28.54284" lon="-14.05857">
        <ele>53.6</ele>
        <time>2021-07-04 16:42:09</time>
      </trkpt>
      <trkpt lat="28.54282" lon="-14.05854">
        <ele>54</ele>
        <time>2021-07-04 16:42:10</time>
      </trkpt>
      <trkpt lat="28.54281" lon="-14.05852">
        <ele>54</ele>
        <time>2021-07-04 16:42:11</time>
      </trkpt>
      <trkpt lat="28.54279" lon="-14.05849">
        <ele>54.2</ele>
        <time>2021-07-04 16:42:12</time>
      </trkpt>
      <trkpt lat="28.54278" lon="-14.05846">
        <ele>54.2</ele>
        <time>2021-07-04 16:42:13</time>
      </trkpt>
      <trkpt lat="28.54276" lon="-14.05844">
        <ele>54.6</ele>
        <time>2021-07-04 16:42:14</time>
      </trkpt>
      <trkpt lat="28.54275" lon="-14.05841">
        <ele>54.8</ele>
        <time>2021-07-04 16:42:15</time>
      </trkpt>
      <trkpt lat="28.54273" lon="-14.05838">
        <ele>55.2</ele>
        <time>2021-07-04 16:42:16</time>
      </trkpt>
      <trkpt lat="28.54272" lon="-14.05835">
        <ele>55.4</ele>
        <time>2021-07-04 16:42:17</time>
      </trkpt>
      <trkpt lat="28.5427" lon="-14.05833">
        <ele>55.6</ele>
        <time>2021-07-04 16:42:18</time>
      </trkpt>
      <trkpt lat="28.54269" lon="-14.0583">
        <ele>56</ele>
        <time>2021-07-04 16:42:19</time>
      </trkpt>
      <trkpt lat="28.54268" lon="-14.05828">
        <ele>56.2</ele>
        <time>2021-07-04 16:42:20</time>
      </trkpt>
      <trkpt lat="28.54266" lon="-14.05825">
        <ele>56.2</ele>
        <time>2021-07-04 16:42:21</time>
      </trkpt>
      <trkpt lat="28.54265" lon="-14.05822">
        <ele>56.4</ele>
        <time>2021-07-04 16:42:22</time>
      </trkpt>
      <trkpt lat="28.54264" lon="-14.05819">
        <ele>56.8</ele>
        <time>2021-07-04 16:42:23</time>
      </trkpt>
      <trkpt lat="28.54262" lon="-14.05816">
        <ele>56.8</ele>
        <time>2021-07-04 16:42:24</time>
      </trkpt>
      <trkpt lat="28.54261" lon="-14.05814">
        <ele>57</ele>
        <time>2021-07-04 16:42:25</time>
      </trkpt>
      <trkpt lat="28.54259" lon="-14.05811">
        <ele>57</ele>
        <time>2021-07-04 16:42:26</time>
      </trkpt>
      <trkpt lat="28.54257" lon="-14.05808">
        <ele>57.2</ele>
        <time>2021-07-04 16:42:27</time>
      </trkpt>
      <trkpt lat="28.54256" lon="-14.05805">
        <ele>57.2</ele>
        <time>2021-07-04 16:42:28</time>
      </trkpt>
      <trkpt lat="28.54255" lon="-14.05802">
        <ele>57.2</ele>
        <time>2021-07-04 16:42:29</time>
      </trkpt>
      <trkpt lat="28.54253" lon="-14.05799">
        <ele>57.6</ele>
        <time>2021-07-04 16:42:30</time>
      </trkpt>
      <trkpt lat="28.54252" lon="-14.05797">
        <ele>57.6</ele>
        <time>2021-07-04 16:42:31</time>
      </trkpt>
      <trkpt lat="28.5425" lon="-14.05794">
        <ele>57.6</ele>
        <time>2021-07-04 16:42:32</time>
      </trkpt>
      <trkpt lat="28.54248" lon="-14.05791">
        <ele>57.8</ele>
        <time>2021-07-04 16:42:33</time>
      </trkpt>
      <trkpt lat="28.54247" lon="-14.05788">
        <ele>57.8</ele>
        <time>2021-07-04 16:42:34</time>
      </trkpt>
      <trkpt lat="28.54245" lon="-14.05785">
        <ele>57.8</ele>
        <time>2021-07-04 16:42:35</time>
      </trkpt>
      <trkpt lat="28.54243" lon="-14.05782">
        <ele>58</ele>
        <time>2021-07-04 16:42:36</time>
      </trkpt>
      <trkpt lat="28.54241" lon="-14.05779">
        <ele>58</ele>
        <time>2021-07-04 16:42:37</time>
      </trkpt>
      <trkpt lat="28.5424" lon="-14.05776">
        <ele>58.2</ele>
        <time>2021-07-04 16:42:38</time>
      </trkpt>
      <trkpt lat="28.54238" lon="-14.05774">
        <ele>58.2</ele>
        <time>2021-07-04 16:42:39</time>
      </trkpt>
      <trkpt lat="28.54237" lon="-14.05771">
        <ele>58.6</ele>
        <time>2021-07-04 16:42:40</time>
      </trkpt>
      <trkpt lat="28.54235" lon="-14.05768">
        <ele>58.6</ele>
        <time>2021-07-04 16:42:41</time>
      </trkpt>
      <trkpt lat="28.54233" lon="-14.05765">
        <ele>58.8</ele>
        <time>2021-07-04 16:42:42</time>
      </trkpt>
      <trkpt lat="28.54231" lon="-14.05762">
        <ele>58.8</ele>
        <time>2021-07-04 16:42:43</time>
      </trkpt>
      <trkpt lat="28.54229" lon="-14.05759">
        <ele>59</ele>
        <time>2021-07-04 16:42:44</time>
      </trkpt>
      <trkpt lat="28.54228" lon="-14.05756">
        <ele>59.4</ele>
        <time>2021-07-04 16:42:45</time>
      </trkpt>
      <trkpt lat="28.54227" lon="-14.05754">
        <ele>59.6</ele>
        <time>2021-07-04 16:42:46</time>
      </trkpt>
      <trkpt lat="28.54225" lon="-14.05751">
        <ele>59.6</ele>
        <time>2021-07-04 16:42:47</time>
      </trkpt>
      <trkpt lat="28.54224" lon="-14.05749">
        <ele>59.6</ele>
        <time>2021-07-04 16:42:48</time>
      </trkpt>
      <trkpt lat="28.54222" lon="-14.05746">
        <ele>59.8</ele>
        <time>2021-07-04 16:42:49</time>
      </trkpt>
      <trkpt lat="28.54221" lon="-14.05743">
        <ele>59.8</ele>
        <time>2021-07-04 16:42:50</time>
      </trkpt>
      <trkpt lat="28.54219" lon="-14.0574">
        <ele>60</ele>
        <time>2021-07-04 16:42:51</time>
      </trkpt>
      <trkpt lat="28.54217" lon="-14.05737">
        <ele>60</ele>
        <time>2021-07-04 16:42:52</time>
      </trkpt>
      <trkpt lat="28.54216" lon="-14.05734">
        <ele>60</ele>
        <time>2021-07-04 16:42:53</time>
      </trkpt>
      <trkpt lat="28.54214" lon="-14.05731">
        <ele>60.4</ele>
        <time>2021-07-04 16:42:54</time>
      </trkpt>
      <trkpt lat="28.54213" lon="-14.05728">
        <ele>60.4</ele>
        <time>2021-07-04 16:42:55</time>
      </trkpt>
      <trkpt lat="28.54211" lon="-14.05726">
        <ele>60.6</ele>
        <time>2021-07-04 16:42:56</time>
      </trkpt>
      <trkpt lat="28.54209" lon="-14.05722">
        <ele>60.8</ele>
        <time>2021-07-04 16:42:57</time>
      </trkpt>
      <trkpt lat="28.54208" lon="-14.05719">
        <ele>60.8</ele>
        <time>2021-07-04 16:42:58</time>
      </trkpt>
      <trkpt lat="28.54206" lon="-14.05716">
        <ele>60.8</ele>
        <time>2021-07-04 16:42:59</time>
      </trkpt>
      <trkpt lat="28.54204" lon="-14.05713">
        <ele>61.2</ele>
        <time>2021-07-04 16:43:00</time>
      </trkpt>
      <trkpt lat="28.54202" lon="-14.05709">
        <ele>60.4</ele>
        <time>2021-07-04 16:43:01</time>
      </trkpt>
      <trkpt lat="28.542" lon="-14.05706">
        <ele>60.8</ele>
        <time>2021-07-04 16:43:02</time>
      </trkpt>
      <trkpt lat="28.54198" lon="-14.05703">
        <ele>60.8</ele>
        <time>2021-07-04 16:43:03</time>
      </trkpt>
      <trkpt lat="28.54196" lon="-14.057">
        <ele>61.2</ele>
        <time>2021-07-04 16:43:04</time>
      </trkpt>
      <trkpt lat="28.54195" lon="-14.05696">
        <ele>61.6</ele>
        <time>2021-07-04 16:43:05</time>
      </trkpt>
      <trkpt lat="28.54193" lon="-14.05693">
        <ele>61.8</ele>
        <time>2021-07-04 16:43:06</time>
      </trkpt>
      <trkpt lat="28.54191" lon="-14.05689">
        <ele>62</ele>
        <time>2021-07-04 16:43:07</time>
      </trkpt>
      <trkpt lat="28.54189" lon="-14.05686">
        <ele>62</ele>
        <time>2021-07-04 16:43:08</time>
      </trkpt>
      <trkpt lat="28.54187" lon="-14.05682">
        <ele>62.4</ele>
        <time>2021-07-04 16:43:09</time>
      </trkpt>
      <trkpt lat="28.54185" lon="-14.05679">
        <ele>62.4</ele>
        <time>2021-07-04 16:43:10</time>
      </trkpt>
      <trkpt lat="28.54183" lon="-14.05675">
        <ele>62.6</ele>
        <time>2021-07-04 16:43:11</time>
      </trkpt>
      <trkpt lat="28.54181" lon="-14.05672">
        <ele>62.6</ele>
        <time>2021-07-04 16:43:12</time>
      </trkpt>
      <trkpt lat="28.54179" lon="-14.05668">
        <ele>63</ele>
        <time>2021-07-04 16:43:13</time>
      </trkpt>
      <trkpt lat="28.54177" lon="-14.05665">
        <ele>63</ele>
        <time>2021-07-04 16:43:14</time>
      </trkpt>
      <trkpt lat="28.54175" lon="-14.05661">
        <ele>63.4</ele>
        <time>2021-07-04 16:43:15</time>
      </trkpt>
      <trkpt lat="28.54173" lon="-14.05658">
        <ele>63.4</ele>
        <time>2021-07-04 16:43:16</time>
      </trkpt>
      <trkpt lat="28.54171" lon="-14.05654">
        <ele>63.6</ele>
        <time>2021-07-04 16:43:17</time>
      </trkpt>
      <trkpt lat="28.5417" lon="-14.0565">
        <ele>63.6</ele>
        <time>2021-07-04 16:43:18</time>
      </trkpt>
      <trkpt lat="28.54168" lon="-14.05647">
        <ele>63.6</ele>
        <time>2021-07-04 16:43:19</time>
      </trkpt>
      <trkpt lat="28.54166" lon="-14.05643">
        <ele>63.8</ele>
        <time>2021-07-04 16:43:20</time>
      </trkpt>
      <trkpt lat="28.54164" lon="-14.0564">
        <ele>63.8</ele>
        <time>2021-07-04 16:43:21</time>
      </trkpt>
      <trkpt lat="28.54161" lon="-14.05636">
        <ele>63.8</ele>
        <time>2021-07-04 16:43:22</time>
      </trkpt>
      <trkpt lat="28.54159" lon="-14.05633">
        <ele>63.8</ele>
        <time>2021-07-04 16:43:23</time>
      </trkpt>
      <trkpt lat="28.54157" lon="-14.05629">
        <ele>64</ele>
        <time>2021-07-04 16:43:24</time>
      </trkpt>
      <trkpt lat="28.54155" lon="-14.05625">
        <ele>64</ele>
        <time>2021-07-04 16:43:25</time>
      </trkpt>
      <trkpt lat="28.54153" lon="-14.05622">
        <ele>64.4</ele>
        <time>2021-07-04 16:43:26</time>
      </trkpt>
      <trkpt lat="28.54151" lon="-14.05618">
        <ele>64.4</ele>
        <time>2021-07-04 16:43:27</time>
      </trkpt>
      <trkpt lat="28.54149" lon="-14.05614">
        <ele>64.8</ele>
        <time>2021-07-04 16:43:28</time>
      </trkpt>
      <trkpt lat="28.54147" lon="-14.05611">
        <ele>64.8</ele>
        <time>2021-07-04 16:43:29</time>
      </trkpt>
      <trkpt lat="28.54145" lon="-14.05607">
        <ele>65.2</ele>
        <time>2021-07-04 16:43:30</time>
      </trkpt>
      <trkpt lat="28.54143" lon="-14.05603">
        <ele>65.2</ele>
        <time>2021-07-04 16:43:31</time>
      </trkpt>
      <trkpt lat="28.54141" lon="-14.056">
        <ele>65.2</ele>
        <time>2021-07-04 16:43:32</time>
      </trkpt>
      <trkpt lat="28.54139" lon="-14.05596">
        <ele>65.4</ele>
        <time>2021-07-04 16:43:33</time>
      </trkpt>
      <trkpt lat="28.54136" lon="-14.05592">
        <ele>65.4</ele>
        <time>2021-07-04 16:43:34</time>
      </trkpt>
      <trkpt lat="28.54134" lon="-14.05588">
        <ele>65.4</ele>
        <time>2021-07-04 16:43:35</time>
      </trkpt>
      <trkpt lat="28.54132" lon="-14.05585">
        <ele>65.6</ele>
        <time>2021-07-04 16:43:36</time>
      </trkpt>
      <trkpt lat="28.5413" lon="-14.05581">
        <ele>65.6</ele>
        <time>2021-07-04 16:43:37</time>
      </trkpt>
      <trkpt lat="28.54128" lon="-14.05577">
        <ele>66</ele>
        <time>2021-07-04 16:43:38</time>
      </trkpt>
      <trkpt lat="28.54126" lon="-14.05573">
        <ele>66.2</ele>
        <time>2021-07-04 16:43:39</time>
      </trkpt>
      <trkpt lat="28.54124" lon="-14.0557">
        <ele>66.4</ele>
        <time>2021-07-04 16:43:40</time>
      </trkpt>
      <trkpt lat="28.54122" lon="-14.05566">
        <ele>66.4</ele>
        <time>2021-07-04 16:43:41</time>
      </trkpt>
      <trkpt lat="28.5412" lon="-14.05562">
        <ele>66.8</ele>
        <time>2021-07-04 16:43:42</time>
      </trkpt>
      <trkpt lat="28.54118" lon="-14.05559">
        <ele>66.8</ele>
        <time>2021-07-04 16:43:43</time>
      </trkpt>
      <trkpt lat="28.54116" lon="-14.05555">
        <ele>67.2</ele>
        <time>2021-07-04 16:43:44</time>
      </trkpt>
      <trkpt lat="28.54114" lon="-14.05551">
        <ele>67.4</ele>
        <time>2021-07-04 16:43:45</time>
      </trkpt>
      <trkpt lat="28.54112" lon="-14.05548">
        <ele>67.4</ele>
        <time>2021-07-04 16:43:46</time>
      </trkpt>
      <trkpt lat="28.5411" lon="-14.05544">
        <ele>67.8</ele>
        <time>2021-07-04 16:43:47</time>
      </trkpt>
      <trkpt lat="28.54108" lon="-14.0554">
        <ele>67.8</ele>
        <time>2021-07-04 16:43:48</time>
      </trkpt>
      <trkpt lat="28.54106" lon="-14.05537">
        <ele>67.8</ele>
        <time>2021-07-04 16:43:49</time>
      </trkpt>
      <trkpt lat="28.54104" lon="-14.05533">
        <ele>67.8</ele>
        <time>2021-07-04 16:43:50</time>
      </trkpt>
      <trkpt lat="28.54102" lon="-14.0553">
        <ele>68</ele>
        <time>2021-07-04 16:43:51</time>
      </trkpt>
      <trkpt lat="28.541" lon="-14.05526">
        <ele>68</ele>
        <time>2021-07-04 16:43:52</time>
      </trkpt>
      <trkpt lat="28.54098" lon="-14.05522">
        <ele>68.2</ele>
        <time>2021-07-04 16:43:53</time>
      </trkpt>
      <trkpt lat="28.54096" lon="-14.05519">
        <ele>68.2</ele>
        <time>2021-07-04 16:43:54</time>
      </trkpt>
      <trkpt lat="28.54094" lon="-14.05515">
        <ele>68.4</ele>
        <time>2021-07-04 16:43:55</time>
      </trkpt>
      <trkpt lat="28.54092" lon="-14.05511">
        <ele>68.4</ele>
        <time>2021-07-04 16:43:56</time>
      </trkpt>
      <trkpt lat="28.5409" lon="-14.05508">
        <ele>68.4</ele>
        <time>2021-07-04 16:43:57</time>
      </trkpt>
      <trkpt lat="28.54088" lon="-14.05504">
        <ele>68.8</ele>
        <time>2021-07-04 16:43:58</time>
      </trkpt>
      <trkpt lat="28.54085" lon="-14.055">
        <ele>68.8</ele>
        <time>2021-07-04 16:43:59</time>
      </trkpt>
      <trkpt lat="28.54083" lon="-14.05496">
        <ele>68.8</ele>
        <time>2021-07-04 16:44:00</time>
      </trkpt>
      <trkpt lat="28.54081" lon="-14.05493">
        <ele>68.8</ele>
        <time>2021-07-04 16:44:01</time>
      </trkpt>
      <trkpt lat="28.54079" lon="-14.05489">
        <ele>68.8</ele>
        <time>2021-07-04 16:44:02</time>
      </trkpt>
      <trkpt lat="28.54077" lon="-14.05485">
        <ele>69</ele>
        <time>2021-07-04 16:44:03</time>
      </trkpt>
      <trkpt lat="28.54075" lon="-14.05481">
        <ele>69</ele>
        <time>2021-07-04 16:44:04</time>
      </trkpt>
      <trkpt lat="28.54073" lon="-14.05477">
        <ele>69</ele>
        <time>2021-07-04 16:44:05</time>
      </trkpt>
      <trkpt lat="28.54071" lon="-14.05473">
        <ele>69.2</ele>
        <time>2021-07-04 16:44:06</time>
      </trkpt>
      <trkpt lat="28.54069" lon="-14.05469">
        <ele>69.2</ele>
        <time>2021-07-04 16:44:07</time>
      </trkpt>
      <trkpt lat="28.54067" lon="-14.05465">
        <ele>69.6</ele>
        <time>2021-07-04 16:44:08</time>
      </trkpt>
      <trkpt lat="28.54065" lon="-14.05462">
        <ele>69.8</ele>
        <time>2021-07-04 16:44:09</time>
      </trkpt>
      <trkpt lat="28.54063" lon="-14.05458">
        <ele>69.8</ele>
        <time>2021-07-04 16:44:10</time>
      </trkpt>
      <trkpt lat="28.54062" lon="-14.05455">
        <ele>69.8</ele>
        <time>2021-07-04 16:44:11</time>
      </trkpt>
      <trkpt lat="28.5406" lon="-14.05452">
        <ele>70</ele>
        <time>2021-07-04 16:44:12</time>
      </trkpt>
      <trkpt lat="28.54058" lon="-14.05449">
        <ele>70</ele>
        <time>2021-07-04 16:44:13</time>
      </trkpt>
      <trkpt lat="28.54056" lon="-14.05445">
        <ele>70</ele>
        <time>2021-07-04 16:44:14</time>
      </trkpt>
      <trkpt lat="28.54054" lon="-14.05442">
        <ele>70</ele>
        <time>2021-07-04 16:44:15</time>
      </trkpt>
      <trkpt lat="28.54052" lon="-14.05438">
        <ele>70</ele>
        <time>2021-07-04 16:44:16</time>
      </trkpt>
      <trkpt lat="28.5405" lon="-14.05434">
        <ele>70.2</ele>
        <time>2021-07-04 16:44:17</time>
      </trkpt>
      <trkpt lat="28.54049" lon="-14.05431">
        <ele>70.2</ele>
        <time>2021-07-04 16:44:18</time>
      </trkpt>
      <trkpt lat="28.54047" lon="-14.05427">
        <ele>70.2</ele>
        <time>2021-07-04 16:44:19</time>
      </trkpt>
      <trkpt lat="28.54045" lon="-14.05424">
        <ele>70.6</ele>
        <time>2021-07-04 16:44:20</time>
      </trkpt>
      <trkpt lat="28.54043" lon="-14.0542">
        <ele>70.6</ele>
        <time>2021-07-04 16:44:21</time>
      </trkpt>
      <trkpt lat="28.54041" lon="-14.05416">
        <ele>70.8</ele>
        <time>2021-07-04 16:44:22</time>
      </trkpt>
      <trkpt lat="28.54039" lon="-14.05412">
        <ele>70.8</ele>
        <time>2021-07-04 16:44:23</time>
      </trkpt>
      <trkpt lat="28.54037" lon="-14.05409">
        <ele>71</ele>
        <time>2021-07-04 16:44:24</time>
      </trkpt>
      <trkpt lat="28.54035" lon="-14.05405">
        <ele>71</ele>
        <time>2021-07-04 16:44:25</time>
      </trkpt>
      <trkpt lat="28.54033" lon="-14.05401">
        <ele>71</ele>
        <time>2021-07-04 16:44:26</time>
      </trkpt>
      <trkpt lat="28.54031" lon="-14.05397">
        <ele>71.4</ele>
        <time>2021-07-04 16:44:27</time>
      </trkpt>
      <trkpt lat="28.54029" lon="-14.05393">
        <ele>71.4</ele>
        <time>2021-07-04 16:44:28</time>
      </trkpt>
      <trkpt lat="28.54027" lon="-14.05389">
        <ele>71.6</ele>
        <time>2021-07-04 16:44:29</time>
      </trkpt>
      <trkpt lat="28.54025" lon="-14.05386">
        <ele>71.6</ele>
        <time>2021-07-04 16:44:30</time>
      </trkpt>
      <trkpt lat="28.54023" lon="-14.05382">
        <ele>72</ele>
        <time>2021-07-04 16:44:31</time>
      </trkpt>
      <trkpt lat="28.54021" lon="-14.05378">
        <ele>72</ele>
        <time>2021-07-04 16:44:32</time>
      </trkpt>
      <trkpt lat="28.54019" lon="-14.05374">
        <ele>72</ele>
        <time>2021-07-04 16:44:33</time>
      </trkpt>
      <trkpt lat="28.54017" lon="-14.0537">
        <ele>72.4</ele>
        <time>2021-07-04 16:44:34</time>
      </trkpt>
      <trkpt lat="28.54015" lon="-14.05366">
        <ele>72.4</ele>
        <time>2021-07-04 16:44:35</time>
      </trkpt>
      <trkpt lat="28.54013" lon="-14.05363">
        <ele>72.4</ele>
        <time>2021-07-04 16:44:36</time>
      </trkpt>
      <trkpt lat="28.54011" lon="-14.05359">
        <ele>72.6</ele>
        <time>2021-07-04 16:44:37</time>
      </trkpt>
      <trkpt lat="28.54009" lon="-14.05355">
        <ele>72.6</ele>
        <time>2021-07-04 16:44:38</time>
      </trkpt>
      <trkpt lat="28.54007" lon="-14.05351">
        <ele>72.8</ele>
        <time>2021-07-04 16:44:39</time>
      </trkpt>
      <trkpt lat="28.54005" lon="-14.05347">
        <ele>72.8</ele>
        <time>2021-07-04 16:44:40</time>
      </trkpt>
      <trkpt lat="28.54003" lon="-14.05343">
        <ele>73</ele>
        <time>2021-07-04 16:44:41</time>
      </trkpt>
      <trkpt lat="28.54001" lon="-14.0534">
        <ele>73</ele>
        <time>2021-07-04 16:44:42</time>
      </trkpt>
      <trkpt lat="28.53999" lon="-14.05336">
        <ele>73</ele>
        <time>2021-07-04 16:44:43</time>
      </trkpt>
      <trkpt lat="28.53997" lon="-14.05332">
        <ele>73.6</ele>
        <time>2021-07-04 16:44:44</time>
      </trkpt>
      <trkpt lat="28.53995" lon="-14.05329">
        <ele>70</ele>
        <time>2021-07-04 16:44:45</time>
      </trkpt>
      <trkpt lat="28.53994" lon="-14.05326">
        <ele>71.2</ele>
        <time>2021-07-04 16:44:46</time>
      </trkpt>
      <trkpt lat="28.53992" lon="-14.05323">
        <ele>72.4</ele>
        <time>2021-07-04 16:44:47</time>
      </trkpt>
      <trkpt lat="28.53991" lon="-14.0532">
        <ele>73</ele>
        <time>2021-07-04 16:44:48</time>
      </trkpt>
      <trkpt lat="28.53989" lon="-14.05317">
        <ele>73.6</ele>
        <time>2021-07-04 16:44:49</time>
      </trkpt>
      <trkpt lat="28.53987" lon="-14.05314">
        <ele>73.8</ele>
        <time>2021-07-04 16:44:50</time>
      </trkpt>
      <trkpt lat="28.53986" lon="-14.05312">
        <ele>74.2</ele>
        <time>2021-07-04 16:44:51</time>
      </trkpt>
      <trkpt lat="28.53985" lon="-14.05309">
        <ele>74.2</ele>
        <time>2021-07-04 16:44:52</time>
      </trkpt>
      <trkpt lat="28.53983" lon="-14.05306">
        <ele>74.6</ele>
        <time>2021-07-04 16:44:53</time>
      </trkpt>
      <trkpt lat="28.53982" lon="-14.05303">
        <ele>74.8</ele>
        <time>2021-07-04 16:44:54</time>
      </trkpt>
      <trkpt lat="28.5398" lon="-14.053">
        <ele>75</ele>
        <time>2021-07-04 16:44:55</time>
      </trkpt>
      <trkpt lat="28.53979" lon="-14.05297">
        <ele>75</ele>
        <time>2021-07-04 16:44:56</time>
      </trkpt>
      <trkpt lat="28.53977" lon="-14.05294">
        <ele>75</ele>
        <time>2021-07-04 16:44:57</time>
      </trkpt>
      <trkpt lat="28.53976" lon="-14.05291">
        <ele>75.4</ele>
        <time>2021-07-04 16:44:58</time>
      </trkpt>
      <trkpt lat="28.53974" lon="-14.05288">
        <ele>75.4</ele>
        <time>2021-07-04 16:44:59</time>
      </trkpt>
      <trkpt lat="28.53973" lon="-14.05285">
        <ele>75.6</ele>
        <time>2021-07-04 16:45:00</time>
      </trkpt>
      <trkpt lat="28.53971" lon="-14.05281">
        <ele>75.6</ele>
        <time>2021-07-04 16:45:01</time>
      </trkpt>
      <trkpt lat="28.53968" lon="-14.05278">
        <ele>75.6</ele>
        <time>2021-07-04 16:45:02</time>
      </trkpt>
      <trkpt lat="28.53966" lon="-14.05274">
        <ele>76</ele>
        <time>2021-07-04 16:45:03</time>
      </trkpt>
      <trkpt lat="28.53964" lon="-14.05271">
        <ele>76</ele>
        <time>2021-07-04 16:45:04</time>
      </trkpt>
      <trkpt lat="28.53963" lon="-14.05267">
        <ele>76.2</ele>
        <time>2021-07-04 16:45:05</time>
      </trkpt>
      <trkpt lat="28.53961" lon="-14.05263">
        <ele>76.2</ele>
        <time>2021-07-04 16:45:06</time>
      </trkpt>
      <trkpt lat="28.53959" lon="-14.0526">
        <ele>76.6</ele>
        <time>2021-07-04 16:45:07</time>
      </trkpt>
      <trkpt lat="28.53958" lon="-14.05256">
        <ele>76.6</ele>
        <time>2021-07-04 16:45:08</time>
      </trkpt>
      <trkpt lat="28.53956" lon="-14.05253">
        <ele>77</ele>
        <time>2021-07-04 16:45:09</time>
      </trkpt>
      <trkpt lat="28.53954" lon="-14.05249">
        <ele>77.2</ele>
        <time>2021-07-04 16:45:10</time>
      </trkpt>
      <trkpt lat="28.53952" lon="-14.05245">
        <ele>77.2</ele>
        <time>2021-07-04 16:45:11</time>
      </trkpt>
      <trkpt lat="28.5395" lon="-14.05242">
        <ele>77.4</ele>
        <time>2021-07-04 16:45:12</time>
      </trkpt>
      <trkpt lat="28.53948" lon="-14.05238">
        <ele>77.4</ele>
        <time>2021-07-04 16:45:13</time>
      </trkpt>
      <trkpt lat="28.53946" lon="-14.05235">
        <ele>77.8</ele>
        <time>2021-07-04 16:45:14</time>
      </trkpt>
      <trkpt lat="28.53944" lon="-14.05231">
        <ele>77.8</ele>
        <time>2021-07-04 16:45:15</time>
      </trkpt>
      <trkpt lat="28.53942" lon="-14.05228">
        <ele>78</ele>
        <time>2021-07-04 16:45:16</time>
      </trkpt>
      <trkpt lat="28.5394" lon="-14.05224">
        <ele>78</ele>
        <time>2021-07-04 16:45:17</time>
      </trkpt>
      <trkpt lat="28.53938" lon="-14.0522">
        <ele>78.2</ele>
        <time>2021-07-04 16:45:18</time>
      </trkpt>
      <trkpt lat="28.53936" lon="-14.05216">
        <ele>78.2</ele>
        <time>2021-07-04 16:45:19</time>
      </trkpt>
      <trkpt lat="28.53934" lon="-14.05212">
        <ele>78.6</ele>
        <time>2021-07-04 16:45:20</time>
      </trkpt>
      <trkpt lat="28.53932" lon="-14.05208">
        <ele>78.6</ele>
        <time>2021-07-04 16:45:21</time>
      </trkpt>
      <trkpt lat="28.5393" lon="-14.05205">
        <ele>79</ele>
        <time>2021-07-04 16:45:22</time>
      </trkpt>
      <trkpt lat="28.53929" lon="-14.05201">
        <ele>79</ele>
        <time>2021-07-04 16:45:23</time>
      </trkpt>
      <trkpt lat="28.53927" lon="-14.05197">
        <ele>79.4</ele>
        <time>2021-07-04 16:45:24</time>
      </trkpt>
      <trkpt lat="28.53924" lon="-14.05194">
        <ele>79.6</ele>
        <time>2021-07-04 16:45:25</time>
      </trkpt>
      <trkpt lat="28.53922" lon="-14.0519">
        <ele>79.6</ele>
        <time>2021-07-04 16:45:26</time>
      </trkpt>
      <trkpt lat="28.5392" lon="-14.05186">
        <ele>79.8</ele>
        <time>2021-07-04 16:45:27</time>
      </trkpt>
      <trkpt lat="28.53918" lon="-14.05182">
        <ele>79.8</ele>
        <time>2021-07-04 16:45:28</time>
      </trkpt>
      <trkpt lat="28.53916" lon="-14.05178">
        <ele>80.2</ele>
        <time>2021-07-04 16:45:29</time>
      </trkpt>
      <trkpt lat="28.53914" lon="-14.05174">
        <ele>80.2</ele>
        <time>2021-07-04 16:45:30</time>
      </trkpt>
      <trkpt lat="28.53912" lon="-14.0517">
        <ele>80.6</ele>
        <time>2021-07-04 16:45:31</time>
      </trkpt>
      <trkpt lat="28.5391" lon="-14.05166">
        <ele>80.6</ele>
        <time>2021-07-04 16:45:32</time>
      </trkpt>
      <trkpt lat="28.53908" lon="-14.05162">
        <ele>80.8</ele>
        <time>2021-07-04 16:45:33</time>
      </trkpt>
      <trkpt lat="28.53905" lon="-14.05159">
        <ele>80.8</ele>
        <time>2021-07-04 16:45:34</time>
      </trkpt>
      <trkpt lat="28.53903" lon="-14.05155">
        <ele>81</ele>
        <time>2021-07-04 16:45:35</time>
      </trkpt>
      <trkpt lat="28.539" lon="-14.05151">
        <ele>81</ele>
        <time>2021-07-04 16:45:36</time>
      </trkpt>
      <trkpt lat="28.53898" lon="-14.05148">
        <ele>81.2</ele>
        <time>2021-07-04 16:45:37</time>
      </trkpt>
      <trkpt lat="28.53895" lon="-14.05144">
        <ele>81.2</ele>
        <time>2021-07-04 16:45:38</time>
      </trkpt>
      <trkpt lat="28.53893" lon="-14.05141">
        <ele>81.2</ele>
        <time>2021-07-04 16:45:39</time>
      </trkpt>
      <trkpt lat="28.5389" lon="-14.05137">
        <ele>81.2</ele>
        <time>2021-07-04 16:45:40</time>
      </trkpt>
      <trkpt lat="28.53887" lon="-14.05134">
        <ele>81.2</ele>
        <time>2021-07-04 16:45:41</time>
      </trkpt>
      <trkpt lat="28.53884" lon="-14.05131">
        <ele>81.6</ele>
        <time>2021-07-04 16:45:42</time>
      </trkpt>
      <trkpt lat="28.53882" lon="-14.05127">
        <ele>81.6</ele>
        <time>2021-07-04 16:45:43</time>
      </trkpt>
      <trkpt lat="28.53879" lon="-14.05124">
        <ele>81.6</ele>
        <time>2021-07-04 16:45:44</time>
      </trkpt>
      <trkpt lat="28.53876" lon="-14.0512">
        <ele>81.6</ele>
        <time>2021-07-04 16:45:45</time>
      </trkpt>
      <trkpt lat="28.53873" lon="-14.05117">
        <ele>81.8</ele>
        <time>2021-07-04 16:45:46</time>
      </trkpt>
      <trkpt lat="28.5387" lon="-14.05113">
        <ele>81.8</ele>
        <time>2021-07-04 16:45:47</time>
      </trkpt>
      <trkpt lat="28.53867" lon="-14.0511">
        <ele>81.8</ele>
        <time>2021-07-04 16:45:48</time>
      </trkpt>
      <trkpt lat="28.53864" lon="-14.05106">
        <ele>82</ele>
        <time>2021-07-04 16:45:49</time>
      </trkpt>
      <trkpt lat="28.53861" lon="-14.05102">
        <ele>82</ele>
        <time>2021-07-04 16:45:50</time>
      </trkpt>
      <trkpt lat="28.53858" lon="-14.05099">
        <ele>82</ele>
        <time>2021-07-04 16:45:51</time>
      </trkpt>
      <trkpt lat="28.53855" lon="-14.05096">
        <ele>82</ele>
        <time>2021-07-04 16:45:52</time>
      </trkpt>
      <trkpt lat="28.53851" lon="-14.05092">
        <ele>82</ele>
        <time>2021-07-04 16:45:53</time>
      </trkpt>
      <trkpt lat="28.53848" lon="-14.05089">
        <ele>82</ele>
        <time>2021-07-04 16:45:54</time>
      </trkpt>
      <trkpt lat="28.53845" lon="-14.05086">
        <ele>82</ele>
        <time>2021-07-04 16:45:55</time>
      </trkpt>
      <trkpt lat="28.53842" lon="-14.05084">
        <ele>81.6</ele>
        <time>2021-07-04 16:45:56</time>
      </trkpt>
      <trkpt lat="28.5384" lon="-14.05081">
        <ele>82</ele>
        <time>2021-07-04 16:45:57</time>
      </trkpt>
      <trkpt lat="28.53837" lon="-14.05079">
        <ele>81.8</ele>
        <time>2021-07-04 16:45:58</time>
      </trkpt>
      <trkpt lat="28.53834" lon="-14.05076">
        <ele>82.2</ele>
        <time>2021-07-04 16:45:59</time>
      </trkpt>
      <trkpt lat="28.53832" lon="-14.05073">
        <ele>80.8</ele>
        <time>2021-07-04 16:46:00</time>
      </trkpt>
      <trkpt lat="28.53829" lon="-14.0507">
        <ele>81.4</ele>
        <time>2021-07-04 16:46:01</time>
      </trkpt>
      <trkpt lat="28.53826" lon="-14.05067">
        <ele>81.8</ele>
        <time>2021-07-04 16:46:02</time>
      </trkpt>
      <trkpt lat="28.53823" lon="-14.05064">
        <ele>81.8</ele>
        <time>2021-07-04 16:46:03</time>
      </trkpt>
      <trkpt lat="28.5382" lon="-14.05061">
        <ele>81.8</ele>
        <time>2021-07-04 16:46:04</time>
      </trkpt>
      <trkpt lat="28.53817" lon="-14.05059">
        <ele>81.8</ele>
        <time>2021-07-04 16:46:05</time>
      </trkpt>
      <trkpt lat="28.53814" lon="-14.05056">
        <ele>81.8</ele>
        <time>2021-07-04 16:46:06</time>
      </trkpt>
      <trkpt lat="28.53811" lon="-14.05053">
        <ele>81.8</ele>
        <time>2021-07-04 16:46:07</time>
      </trkpt>
      <trkpt lat="28.53808" lon="-14.0505">
        <ele>81.8</ele>
        <time>2021-07-04 16:46:08</time>
      </trkpt>
      <trkpt lat="28.53804" lon="-14.05048">
        <ele>81.8</ele>
        <time>2021-07-04 16:46:09</time>
      </trkpt>
      <trkpt lat="28.53801" lon="-14.05045">
        <ele>81.4</ele>
        <time>2021-07-04 16:46:10</time>
      </trkpt>
      <trkpt lat="28.53798" lon="-14.05042">
        <ele>81.4</ele>
        <time>2021-07-04 16:46:11</time>
      </trkpt>
      <trkpt lat="28.53795" lon="-14.0504">
        <ele>81.4</ele>
        <time>2021-07-04 16:46:12</time>
      </trkpt>
      <trkpt lat="28.53792" lon="-14.05037">
        <ele>81.4</ele>
        <time>2021-07-04 16:46:13</time>
      </trkpt>
      <trkpt lat="28.53789" lon="-14.05035">
        <ele>81.4</ele>
        <time>2021-07-04 16:46:14</time>
      </trkpt>
      <trkpt lat="28.53786" lon="-14.05032">
        <ele>81.6</ele>
        <time>2021-07-04 16:46:15</time>
      </trkpt>
      <trkpt lat="28.53783" lon="-14.0503">
        <ele>81.6</ele>
        <time>2021-07-04 16:46:16</time>
      </trkpt>
      <trkpt lat="28.5378" lon="-14.05027">
        <ele>81.6</ele>
        <time>2021-07-04 16:46:17</time>
      </trkpt>
      <trkpt lat="28.53777" lon="-14.05025">
        <ele>81.6</ele>
        <time>2021-07-04 16:46:18</time>
      </trkpt>
      <trkpt lat="28.53774" lon="-14.05022">
        <ele>81.6</ele>
        <time>2021-07-04 16:46:19</time>
      </trkpt>
      <trkpt lat="28.53771" lon="-14.0502">
        <ele>81.4</ele>
        <time>2021-07-04 16:46:20</time>
      </trkpt>
      <trkpt lat="28.53768" lon="-14.05017">
        <ele>81.4</ele>
        <time>2021-07-04 16:46:21</time>
      </trkpt>
      <trkpt lat="28.53765" lon="-14.05015">
        <ele>81.4</ele>
        <time>2021-07-04 16:46:22</time>
      </trkpt>
      <trkpt lat="28.53762" lon="-14.05012">
        <ele>81.4</ele>
        <time>2021-07-04 16:46:23</time>
      </trkpt>
      <trkpt lat="28.53759" lon="-14.05009">
        <ele>81.6</ele>
        <time>2021-07-04 16:46:24</time>
      </trkpt>
      <trkpt lat="28.53756" lon="-14.05006">
        <ele>81.8</ele>
        <time>2021-07-04 16:46:25</time>
      </trkpt>
      <trkpt lat="28.53752" lon="-14.05003">
        <ele>82.2</ele>
        <time>2021-07-04 16:46:26</time>
      </trkpt>
      <trkpt lat="28.53749" lon="-14.05">
        <ele>82.6</ele>
        <time>2021-07-04 16:46:27</time>
      </trkpt>
      <trkpt lat="28.53746" lon="-14.04998">
        <ele>83</ele>
        <time>2021-07-04 16:46:28</time>
      </trkpt>
      <trkpt lat="28.53742" lon="-14.04994">
        <ele>83.2</ele>
        <time>2021-07-04 16:46:29</time>
      </trkpt>
      <trkpt lat="28.53739" lon="-14.04991">
        <ele>83.2</ele>
        <time>2021-07-04 16:46:30</time>
      </trkpt>
      <trkpt lat="28.53735" lon="-14.04988">
        <ele>83.6</ele>
        <time>2021-07-04 16:46:31</time>
      </trkpt>
      <trkpt lat="28.53731" lon="-14.04985">
        <ele>83.6</ele>
        <time>2021-07-04 16:46:32</time>
      </trkpt>
      <trkpt lat="28.53727" lon="-14.04981">
        <ele>84</ele>
        <time>2021-07-04 16:46:33</time>
      </trkpt>
      <trkpt lat="28.53724" lon="-14.04978">
        <ele>84</ele>
        <time>2021-07-04 16:46:34</time>
      </trkpt>
      <trkpt lat="28.5372" lon="-14.04975">
        <ele>84.2</ele>
        <time>2021-07-04 16:46:35</time>
      </trkpt>
      <trkpt lat="28.53717" lon="-14.04972">
        <ele>84.2</ele>
        <time>2021-07-04 16:46:36</time>
      </trkpt>
      <trkpt lat="28.53713" lon="-14.04968">
        <ele>84.4</ele>
        <time>2021-07-04 16:46:37</time>
      </trkpt>
      <trkpt lat="28.53709" lon="-14.04965">
        <ele>84.4</ele>
        <time>2021-07-04 16:46:38</time>
      </trkpt>
      <trkpt lat="28.53706" lon="-14.04962">
        <ele>84.8</ele>
        <time>2021-07-04 16:46:39</time>
      </trkpt>
      <trkpt lat="28.53702" lon="-14.04959">
        <ele>84.8</ele>
        <time>2021-07-04 16:46:40</time>
      </trkpt>
      <trkpt lat="28.53698" lon="-14.04957">
        <ele>85</ele>
        <time>2021-07-04 16:46:41</time>
      </trkpt>
      <trkpt lat="28.53694" lon="-14.04954">
        <ele>85</ele>
        <time>2021-07-04 16:46:42</time>
      </trkpt>
      <trkpt lat="28.53691" lon="-14.0495">
        <ele>85.2</ele>
        <time>2021-07-04 16:46:43</time>
      </trkpt>
      <trkpt lat="28.53687" lon="-14.04947">
        <ele>85.2</ele>
        <time>2021-07-04 16:46:44</time>
      </trkpt>
      <trkpt lat="28.53683" lon="-14.04944">
        <ele>85.4</ele>
        <time>2021-07-04 16:46:45</time>
      </trkpt>
      <trkpt lat="28.5368" lon="-14.04941">
        <ele>85.4</ele>
        <time>2021-07-04 16:46:46</time>
      </trkpt>
      <trkpt lat="28.53676" lon="-14.04937">
        <ele>85.4</ele>
        <time>2021-07-04 16:46:47</time>
      </trkpt>
      <trkpt lat="28.53672" lon="-14.04934">
        <ele>85.8</ele>
        <time>2021-07-04 16:46:48</time>
      </trkpt>
      <trkpt lat="28.53668" lon="-14.04931">
        <ele>85.8</ele>
        <time>2021-07-04 16:46:49</time>
      </trkpt>
      <trkpt lat="28.53664" lon="-14.04927">
        <ele>85.8</ele>
        <time>2021-07-04 16:46:50</time>
      </trkpt>
      <trkpt lat="28.5366" lon="-14.04924">
        <ele>86</ele>
        <time>2021-07-04 16:46:51</time>
      </trkpt>
      <trkpt lat="28.53656" lon="-14.04921">
        <ele>86</ele>
        <time>2021-07-04 16:46:52</time>
      </trkpt>
      <trkpt lat="28.53635" lon="-14.04903">
        <ele>86</ele>
        <time>2021-07-04 16:46:53</time>
      </trkpt>
      <trkpt lat="28.53631" lon="-14.049">
        <ele>86</ele>
        <time>2021-07-04 16:46:54</time>
      </trkpt>
      <trkpt lat="28.53627" lon="-14.04896">
        <ele>86</ele>
        <time>2021-07-04 16:46:55</time>
      </trkpt>
      <trkpt lat="28.53623" lon="-14.04892">
        <ele>86.2</ele>
        <time>2021-07-04 16:46:56</time>
      </trkpt>
      <trkpt lat="28.53618" lon="-14.04889">
        <ele>86.2</ele>
        <time>2021-07-04 16:46:57</time>
      </trkpt>
      <trkpt lat="28.53614" lon="-14.04885">
        <ele>86.6</ele>
        <time>2021-07-04 16:46:58</time>
      </trkpt>
      <trkpt lat="28.5361" lon="-14.04882">
        <ele>86.6</ele>
        <time>2021-07-04 16:46:59</time>
      </trkpt>
      <trkpt lat="28.53606" lon="-14.04879">
        <ele>86.8</ele>
        <time>2021-07-04 16:47:00</time>
      </trkpt>
      <trkpt lat="28.53602" lon="-14.04875">
        <ele>86.8</ele>
        <time>2021-07-04 16:47:01</time>
      </trkpt>
      <trkpt lat="28.53597" lon="-14.04871">
        <ele>87.2</ele>
        <time>2021-07-04 16:47:02</time>
      </trkpt>
      <trkpt lat="28.53593" lon="-14.04868">
        <ele>87.2</ele>
        <time>2021-07-04 16:47:03</time>
      </trkpt>
      <trkpt lat="28.53589" lon="-14.04864">
        <ele>87.4</ele>
        <time>2021-07-04 16:47:04</time>
      </trkpt>
      <trkpt lat="28.53585" lon="-14.04861">
        <ele>87.4</ele>
        <time>2021-07-04 16:47:05</time>
      </trkpt>
      <trkpt lat="28.5358" lon="-14.04857">
        <ele>87.4</ele>
        <time>2021-07-04 16:47:06</time>
      </trkpt>
      <trkpt lat="28.53576" lon="-14.04853">
        <ele>87.4</ele>
        <time>2021-07-04 16:47:07</time>
      </trkpt>
      <trkpt lat="28.53572" lon="-14.0485">
        <ele>87.4</ele>
        <time>2021-07-04 16:47:08</time>
      </trkpt>
      <trkpt lat="28.53563" lon="-14.04843">
        <ele>87.4</ele>
        <time>2021-07-04 16:47:09</time>
      </trkpt>
      <trkpt lat="28.53559" lon="-14.04839">
        <ele>87.4</ele>
        <time>2021-07-04 16:47:10</time>
      </trkpt>
      <trkpt lat="28.53555" lon="-14.04835">
        <ele>87.4</ele>
        <time>2021-07-04 16:47:11</time>
      </trkpt>
      <trkpt lat="28.53551" lon="-14.04832">
        <ele>87.6</ele>
        <time>2021-07-04 16:47:12</time>
      </trkpt>
      <trkpt lat="28.53547" lon="-14.04828">
        <ele>87.6</ele>
        <time>2021-07-04 16:47:13</time>
      </trkpt>
      <trkpt lat="28.53543" lon="-14.04825">
        <ele>87.6</ele>
        <time>2021-07-04 16:47:14</time>
      </trkpt>
      <trkpt lat="28.53538" lon="-14.04821">
        <ele>87.6</ele>
        <time>2021-07-04 16:47:15</time>
      </trkpt>
      <trkpt lat="28.53534" lon="-14.04817">
        <ele>87.6</ele>
        <time>2021-07-04 16:47:16</time>
      </trkpt>
      <trkpt lat="28.5353" lon="-14.04814">
        <ele>87.6</ele>
        <time>2021-07-04 16:47:17</time>
      </trkpt>
      <trkpt lat="28.53526" lon="-14.0481">
        <ele>87.8</ele>
        <time>2021-07-04 16:47:18</time>
      </trkpt>
      <trkpt lat="28.53521" lon="-14.04807">
        <ele>87.8</ele>
        <time>2021-07-04 16:47:19</time>
      </trkpt>
      <trkpt lat="28.53517" lon="-14.04803">
        <ele>87.8</ele>
        <time>2021-07-04 16:47:20</time>
      </trkpt>
      <trkpt lat="28.53512" lon="-14.04799">
        <ele>88</ele>
        <time>2021-07-04 16:47:21</time>
      </trkpt>
      <trkpt lat="28.53508" lon="-14.04795">
        <ele>88</ele>
        <time>2021-07-04 16:47:22</time>
      </trkpt>
      <trkpt lat="28.53504" lon="-14.04791">
        <ele>88.2</ele>
        <time>2021-07-04 16:47:23</time>
      </trkpt>
      <trkpt lat="28.53499" lon="-14.04788">
        <ele>88.2</ele>
        <time>2021-07-04 16:47:24</time>
      </trkpt>
      <trkpt lat="28.53495" lon="-14.04785">
        <ele>88.2</ele>
        <time>2021-07-04 16:47:25</time>
      </trkpt>
      <trkpt lat="28.53491" lon="-14.04781">
        <ele>88.6</ele>
        <time>2021-07-04 16:47:26</time>
      </trkpt>
      <trkpt lat="28.53487" lon="-14.04778">
        <ele>88.6</ele>
        <time>2021-07-04 16:47:27</time>
      </trkpt>
      <trkpt lat="28.53482" lon="-14.04774">
        <ele>88.6</ele>
        <time>2021-07-04 16:47:28</time>
      </trkpt>
      <trkpt lat="28.53478" lon="-14.0477">
        <ele>88.6</ele>
        <time>2021-07-04 16:47:29</time>
      </trkpt>
      <trkpt lat="28.53474" lon="-14.04766">
        <ele>89</ele>
        <time>2021-07-04 16:47:30</time>
      </trkpt>
      <trkpt lat="28.5347" lon="-14.04762">
        <ele>89</ele>
        <time>2021-07-04 16:47:31</time>
      </trkpt>
      <trkpt lat="28.53465" lon="-14.04758">
        <ele>89</ele>
        <time>2021-07-04 16:47:32</time>
      </trkpt>
      <trkpt lat="28.53461" lon="-14.04754">
        <ele>89.2</ele>
        <time>2021-07-04 16:47:33</time>
      </trkpt>
      <trkpt lat="28.53457" lon="-14.0475">
        <ele>89.2</ele>
        <time>2021-07-04 16:47:34</time>
      </trkpt>
      <trkpt lat="28.53453" lon="-14.04747">
        <ele>89.4</ele>
        <time>2021-07-04 16:47:35</time>
      </trkpt>
      <trkpt lat="28.53449" lon="-14.04744">
        <ele>89.4</ele>
        <time>2021-07-04 16:47:36</time>
      </trkpt>
      <trkpt lat="28.53445" lon="-14.04741">
        <ele>89.6</ele>
        <time>2021-07-04 16:47:37</time>
      </trkpt>
      <trkpt lat="28.53441" lon="-14.04738">
        <ele>89.6</ele>
        <time>2021-07-04 16:47:38</time>
      </trkpt>
      <trkpt lat="28.53437" lon="-14.04734">
        <ele>89.6</ele>
        <time>2021-07-04 16:47:39</time>
      </trkpt>
      <trkpt lat="28.53434" lon="-14.04731">
        <ele>89.6</ele>
        <time>2021-07-04 16:47:40</time>
      </trkpt>
      <trkpt lat="28.5343" lon="-14.04728">
        <ele>90</ele>
        <time>2021-07-04 16:47:41</time>
      </trkpt>
      <trkpt lat="28.53427" lon="-14.04724">
        <ele>90</ele>
        <time>2021-07-04 16:47:42</time>
      </trkpt>
      <trkpt lat="28.53423" lon="-14.04721">
        <ele>90</ele>
        <time>2021-07-04 16:47:43</time>
      </trkpt>
      <trkpt lat="28.53419" lon="-14.04717">
        <ele>90</ele>
        <time>2021-07-04 16:47:44</time>
      </trkpt>
      <trkpt lat="28.53415" lon="-14.04713">
        <ele>90.2</ele>
        <time>2021-07-04 16:47:45</time>
      </trkpt>
      <trkpt lat="28.53412" lon="-14.04709">
        <ele>90.2</ele>
        <time>2021-07-04 16:47:46</time>
      </trkpt>
      <trkpt lat="28.53408" lon="-14.04705">
        <ele>90.2</ele>
        <time>2021-07-04 16:47:47</time>
      </trkpt>
      <trkpt lat="28.53404" lon="-14.04701">
        <ele>90.6</ele>
        <time>2021-07-04 16:47:48</time>
      </trkpt>
      <trkpt lat="28.53401" lon="-14.04697">
        <ele>90.6</ele>
        <time>2021-07-04 16:47:49</time>
      </trkpt>
      <trkpt lat="28.53397" lon="-14.04693">
        <ele>90.8</ele>
        <time>2021-07-04 16:47:50</time>
      </trkpt>
      <trkpt lat="28.53394" lon="-14.04688">
        <ele>90.8</ele>
        <time>2021-07-04 16:47:51</time>
      </trkpt>
      <trkpt lat="28.53391" lon="-14.04683">
        <ele>91.2</ele>
        <time>2021-07-04 16:47:52</time>
      </trkpt>
      <trkpt lat="28.53387" lon="-14.04679">
        <ele>91.2</ele>
        <time>2021-07-04 16:47:53</time>
      </trkpt>
      <trkpt lat="28.53384" lon="-14.04674">
        <ele>91.2</ele>
        <time>2021-07-04 16:47:54</time>
      </trkpt>
      <trkpt lat="28.5338" lon="-14.04669">
        <ele>91.4</ele>
        <time>2021-07-04 16:47:55</time>
      </trkpt>
      <trkpt lat="28.53377" lon="-14.04663">
        <ele>91.4</ele>
        <time>2021-07-04 16:47:56</time>
      </trkpt>
      <trkpt lat="28.53374" lon="-14.04659">
        <ele>91.6</ele>
        <time>2021-07-04 16:47:57</time>
      </trkpt>
      <trkpt lat="28.53371" lon="-14.04653">
        <ele>91.6</ele>
        <time>2021-07-04 16:47:58</time>
      </trkpt>
      <trkpt lat="28.53368" lon="-14.04648">
        <ele>92</ele>
        <time>2021-07-04 16:47:59</time>
      </trkpt>
      <trkpt lat="28.53366" lon="-14.04643">
        <ele>92</ele>
        <time>2021-07-04 16:48:00</time>
      </trkpt>
      <trkpt lat="28.53363" lon="-14.04638">
        <ele>92.2</ele>
        <time>2021-07-04 16:48:01</time>
      </trkpt>
      <trkpt lat="28.5336" lon="-14.04633">
        <ele>92.2</ele>
        <time>2021-07-04 16:48:02</time>
      </trkpt>
      <trkpt lat="28.53358" lon="-14.04627">
        <ele>92.2</ele>
        <time>2021-07-04 16:48:03</time>
      </trkpt>
      <trkpt lat="28.53355" lon="-14.04622">
        <ele>92.4</ele>
        <time>2021-07-04 16:48:04</time>
      </trkpt>
      <trkpt lat="28.53353" lon="-14.04617">
        <ele>92.4</ele>
        <time>2021-07-04 16:48:05</time>
      </trkpt>
      <trkpt lat="28.53351" lon="-14.04612">
        <ele>92.4</ele>
        <time>2021-07-04 16:48:06</time>
      </trkpt>
      <trkpt lat="28.53348" lon="-14.04606">
        <ele>92.4</ele>
        <time>2021-07-04 16:48:07</time>
      </trkpt>
      <trkpt lat="28.53346" lon="-14.04601">
        <ele>92.4</ele>
        <time>2021-07-04 16:48:08</time>
      </trkpt>
      <trkpt lat="28.53344" lon="-14.04596">
        <ele>92.4</ele>
        <time>2021-07-04 16:48:09</time>
      </trkpt>
      <trkpt lat="28.53342" lon="-14.04591">
        <ele>92.4</ele>
        <time>2021-07-04 16:48:10</time>
      </trkpt>
      <trkpt lat="28.5334" lon="-14.04586">
        <ele>92.4</ele>
        <time>2021-07-04 16:48:11</time>
      </trkpt>
      <trkpt lat="28.53338" lon="-14.0458">
        <ele>92.2</ele>
        <time>2021-07-04 16:48:12</time>
      </trkpt>
      <trkpt lat="28.53336" lon="-14.04575">
        <ele>92.2</ele>
        <time>2021-07-04 16:48:13</time>
      </trkpt>
      <trkpt lat="28.53333" lon="-14.0457">
        <ele>92.2</ele>
        <time>2021-07-04 16:48:14</time>
      </trkpt>
      <trkpt lat="28.53331" lon="-14.04564">
        <ele>92.2</ele>
        <time>2021-07-04 16:48:15</time>
      </trkpt>
      <trkpt lat="28.53328" lon="-14.04558">
        <ele>92</ele>
        <time>2021-07-04 16:48:16</time>
      </trkpt>
      <trkpt lat="28.53326" lon="-14.04552">
        <ele>92</ele>
        <time>2021-07-04 16:48:17</time>
      </trkpt>
      <trkpt lat="28.53324" lon="-14.04546">
        <ele>92</ele>
        <time>2021-07-04 16:48:18</time>
      </trkpt>
      <trkpt lat="28.53322" lon="-14.0454">
        <ele>92</ele>
        <time>2021-07-04 16:48:19</time>
      </trkpt>
      <trkpt lat="28.53319" lon="-14.04534">
        <ele>91.6</ele>
        <time>2021-07-04 16:48:20</time>
      </trkpt>
      <trkpt lat="28.53315" lon="-14.04528">
        <ele>91.6</ele>
        <time>2021-07-04 16:48:21</time>
      </trkpt>
      <trkpt lat="28.53313" lon="-14.04521">
        <ele>91.4</ele>
        <time>2021-07-04 16:48:22</time>
      </trkpt>
      <trkpt lat="28.5331" lon="-14.04514">
        <ele>91.4</ele>
        <time>2021-07-04 16:48:23</time>
      </trkpt>
      <trkpt lat="28.53307" lon="-14.04507">
        <ele>91</ele>
        <time>2021-07-04 16:48:24</time>
      </trkpt>
      <trkpt lat="28.53304" lon="-14.045">
        <ele>91</ele>
        <time>2021-07-04 16:48:25</time>
      </trkpt>
      <trkpt lat="28.53301" lon="-14.04493">
        <ele>90.8</ele>
        <time>2021-07-04 16:48:26</time>
      </trkpt>
      <trkpt lat="28.53299" lon="-14.04486">
        <ele>90.8</ele>
        <time>2021-07-04 16:48:27</time>
      </trkpt>
      <trkpt lat="28.53296" lon="-14.04479">
        <ele>90.6</ele>
        <time>2021-07-04 16:48:28</time>
      </trkpt>
      <trkpt lat="28.53293" lon="-14.04471">
        <ele>90.6</ele>
        <time>2021-07-04 16:48:29</time>
      </trkpt>
      <trkpt lat="28.5329" lon="-14.04464">
        <ele>90.2</ele>
        <time>2021-07-04 16:48:30</time>
      </trkpt>
      <trkpt lat="28.53288" lon="-14.04457">
        <ele>90.2</ele>
        <time>2021-07-04 16:48:31</time>
      </trkpt>
      <trkpt lat="28.53285" lon="-14.0445">
        <ele>89.8</ele>
        <time>2021-07-04 16:48:32</time>
      </trkpt>
      <trkpt lat="28.53282" lon="-14.04443">
        <ele>89.8</ele>
        <time>2021-07-04 16:48:33</time>
      </trkpt>
      <trkpt lat="28.53279" lon="-14.04435">
        <ele>89.8</ele>
        <time>2021-07-04 16:48:34</time>
      </trkpt>
      <trkpt lat="28.53276" lon="-14.04428">
        <ele>89.6</ele>
        <time>2021-07-04 16:48:35</time>
      </trkpt>
      <trkpt lat="28.53272" lon="-14.04421">
        <ele>89.6</ele>
        <time>2021-07-04 16:48:36</time>
      </trkpt>
      <trkpt lat="28.53267" lon="-14.04414">
        <ele>89</ele>
        <time>2021-07-04 16:48:37</time>
      </trkpt>
      <trkpt lat="28.53262" lon="-14.04408">
        <ele>88.8</ele>
        <time>2021-07-04 16:48:38</time>
      </trkpt>
      <trkpt lat="28.53256" lon="-14.04401">
        <ele>88.4</ele>
        <time>2021-07-04 16:48:39</time>
      </trkpt>
      <trkpt lat="28.5325" lon="-14.04395">
        <ele>88</ele>
        <time>2021-07-04 16:48:40</time>
      </trkpt>
      <trkpt lat="28.53242" lon="-14.04389">
        <ele>87.6</ele>
        <time>2021-07-04 16:48:41</time>
      </trkpt>
      <trkpt lat="28.53233" lon="-14.04385">
        <ele>87</ele>
        <time>2021-07-04 16:48:42</time>
      </trkpt>
      <trkpt lat="28.53223" lon="-14.04382">
        <ele>86.4</ele>
        <time>2021-07-04 16:48:43</time>
      </trkpt>
      <trkpt lat="28.53213" lon="-14.04379">
        <ele>85.6</ele>
        <time>2021-07-04 16:48:44</time>
      </trkpt>
      <trkpt lat="28.53201" lon="-14.04378">
        <ele>84.8</ele>
        <time>2021-07-04 16:48:45</time>
      </trkpt>
      <trkpt lat="28.5319" lon="-14.04377">
        <ele>84</ele>
        <time>2021-07-04 16:48:46</time>
      </trkpt>
      <trkpt lat="28.53179" lon="-14.04377">
        <ele>83.2</ele>
        <time>2021-07-04 16:48:47</time>
      </trkpt>
      <trkpt lat="28.53167" lon="-14.04376">
        <ele>82.6</ele>
        <time>2021-07-04 16:48:48</time>
      </trkpt>
      <trkpt lat="28.53156" lon="-14.04375">
        <ele>82</ele>
        <time>2021-07-04 16:48:49</time>
      </trkpt>
      <trkpt lat="28.53145" lon="-14.04375">
        <ele>81.4</ele>
        <time>2021-07-04 16:48:50</time>
      </trkpt>
      <trkpt lat="28.53133" lon="-14.04374">
        <ele>81</ele>
        <time>2021-07-04 16:48:51</time>
      </trkpt>
      <trkpt lat="28.53122" lon="-14.04373">
        <ele>80.6</ele>
        <time>2021-07-04 16:48:52</time>
      </trkpt>
      <trkpt lat="28.53111" lon="-14.04371">
        <ele>80.4</ele>
        <time>2021-07-04 16:48:53</time>
      </trkpt>
      <trkpt lat="28.531" lon="-14.04368">
        <ele>80.2</ele>
        <time>2021-07-04 16:48:54</time>
      </trkpt>
      <trkpt lat="28.5309" lon="-14.04365">
        <ele>80.2</ele>
        <time>2021-07-04 16:48:55</time>
      </trkpt>
      <trkpt lat="28.5308" lon="-14.0436">
        <ele>80.2</ele>
        <time>2021-07-04 16:48:56</time>
      </trkpt>
      <trkpt lat="28.53071" lon="-14.04356">
        <ele>80.2</ele>
        <time>2021-07-04 16:48:57</time>
      </trkpt>
      <trkpt lat="28.53061" lon="-14.04353">
        <ele>80.2</ele>
        <time>2021-07-04 16:48:58</time>
      </trkpt>
      <trkpt lat="28.53052" lon="-14.04349">
        <ele>80.2</ele>
        <time>2021-07-04 16:48:59</time>
      </trkpt>
      <trkpt lat="28.53043" lon="-14.04346">
        <ele>80.2</ele>
        <time>2021-07-04 16:49:00</time>
      </trkpt>
      <trkpt lat="28.53035" lon="-14.04343">
        <ele>80.2</ele>
        <time>2021-07-04 16:49:01</time>
      </trkpt>
      <trkpt lat="28.53027" lon="-14.0434">
        <ele>80.2</ele>
        <time>2021-07-04 16:49:02</time>
      </trkpt>
      <trkpt lat="28.53019" lon="-14.04337">
        <ele>80.2</ele>
        <time>2021-07-04 16:49:03</time>
      </trkpt>
      <trkpt lat="28.53013" lon="-14.04335">
        <ele>80.6</ele>
        <time>2021-07-04 16:49:04</time>
      </trkpt>
      <trkpt lat="28.53007" lon="-14.04332">
        <ele>80.8</ele>
        <time>2021-07-04 16:49:05</time>
      </trkpt>
      <trkpt lat="28.53001" lon="-14.04328">
        <ele>81.4</ele>
        <time>2021-07-04 16:49:06</time>
      </trkpt>
      <trkpt lat="28.52997" lon="-14.04325">
        <ele>82</ele>
        <time>2021-07-04 16:49:07</time>
      </trkpt>
      <trkpt lat="28.52994" lon="-14.04322">
        <ele>82.6</ele>
        <time>2021-07-04 16:49:08</time>
      </trkpt>
      <trkpt lat="28.52992" lon="-14.04318">
        <ele>83.4</ele>
        <time>2021-07-04 16:49:09</time>
      </trkpt>
      <trkpt lat="28.52991" lon="-14.04315">
        <ele>84.2</ele>
        <time>2021-07-04 16:49:10</time>
      </trkpt>
      <trkpt lat="28.5299" lon="-14.04312">
        <ele>85</ele>
        <time>2021-07-04 16:49:11</time>
      </trkpt>
      <trkpt lat="28.5299" lon="-14.0431">
        <ele>85.8</ele>
        <time>2021-07-04 16:49:12</time>
      </trkpt>
      <trkpt lat="28.52991" lon="-14.04307">
        <ele>86.4</ele>
        <time>2021-07-04 16:49:13</time>
      </trkpt>
      <trkpt lat="28.52992" lon="-14.04304">
        <ele>87</ele>
        <time>2021-07-04 16:49:14</time>
      </trkpt>
      <trkpt lat="28.52994" lon="-14.04302">
        <ele>87.4</ele>
        <time>2021-07-04 16:49:15</time>
      </trkpt>
      <trkpt lat="28.52996" lon="-14.043">
        <ele>87.8</ele>
        <time>2021-07-04 16:49:16</time>
      </trkpt>
      <trkpt lat="28.52998" lon="-14.04298">
        <ele>88.2</ele>
        <time>2021-07-04 16:49:17</time>
      </trkpt>
      <trkpt lat="28.53" lon="-14.04297">
        <ele>88.4</ele>
        <time>2021-07-04 16:49:18</time>
      </trkpt>
      <trkpt lat="28.53002" lon="-14.04296">
        <ele>88.6</ele>
        <time>2021-07-04 16:49:19</time>
      </trkpt>
      <trkpt lat="28.53005" lon="-14.04295">
        <ele>88.6</ele>
        <time>2021-07-04 16:49:20</time>
      </trkpt>
      <trkpt lat="28.53007" lon="-14.04294">
        <ele>89</ele>
        <time>2021-07-04 16:49:21</time>
      </trkpt>
      <trkpt lat="28.5301" lon="-14.04293">
        <ele>89</ele>
        <time>2021-07-04 16:49:22</time>
      </trkpt>
      <trkpt lat="28.53012" lon="-14.04292">
        <ele>89</ele>
        <time>2021-07-04 16:49:23</time>
      </trkpt>
      <trkpt lat="28.53015" lon="-14.04292">
        <ele>89.2</ele>
        <time>2021-07-04 16:49:24</time>
      </trkpt>
      <trkpt lat="28.53017" lon="-14.04291">
        <ele>89.2</ele>
        <time>2021-07-04 16:49:25</time>
      </trkpt>
      <trkpt lat="28.5302" lon="-14.04291">
        <ele>89.2</ele>
        <time>2021-07-04 16:49:26</time>
      </trkpt>
      <trkpt lat="28.53022" lon="-14.0429">
        <ele>89.2</ele>
        <time>2021-07-04 16:49:27</time>
      </trkpt>
      <trkpt lat="28.53024" lon="-14.0429">
        <ele>89.2</ele>
        <time>2021-07-04 16:49:28</time>
      </trkpt>
      <trkpt lat="28.53027" lon="-14.04289">
        <ele>89.6</ele>
        <time>2021-07-04 16:49:29</time>
      </trkpt>
      <trkpt lat="28.53029" lon="-14.04289">
        <ele>89.6</ele>
        <time>2021-07-04 16:49:30</time>
      </trkpt>
      <trkpt lat="28.53031" lon="-14.04289">
        <ele>89.8</ele>
        <time>2021-07-04 16:49:31</time>
      </trkpt>
      <trkpt lat="28.53034" lon="-14.04289">
        <ele>89.8</ele>
        <time>2021-07-04 16:49:32</time>
      </trkpt>
      <trkpt lat="28.53036" lon="-14.04288">
        <ele>90</ele>
        <time>2021-07-04 16:49:33</time>
      </trkpt>
      <trkpt lat="28.53039" lon="-14.04288">
        <ele>90</ele>
        <time>2021-07-04 16:49:34</time>
      </trkpt>
      <trkpt lat="28.53042" lon="-14.04288">
        <ele>90.4</ele>
        <time>2021-07-04 16:49:35</time>
      </trkpt>
      <trkpt lat="28.53044" lon="-14.04287">
        <ele>90.4</ele>
        <time>2021-07-04 16:49:36</time>
      </trkpt>
      <trkpt lat="28.53047" lon="-14.04286">
        <ele>90.8</ele>
        <time>2021-07-04 16:49:37</time>
      </trkpt>
      <trkpt lat="28.53049" lon="-14.04286">
        <ele>91</ele>
        <time>2021-07-04 16:49:38</time>
      </trkpt>
      <trkpt lat="28.53051" lon="-14.04285">
        <ele>91</ele>
        <time>2021-07-04 16:49:39</time>
      </trkpt>
      <trkpt lat="28.53054" lon="-14.04285">
        <ele>91.4</ele>
        <time>2021-07-04 16:49:40</time>
      </trkpt>
      <trkpt lat="28.53056" lon="-14.04285">
        <ele>91.4</ele>
        <time>2021-07-04 16:49:41</time>
      </trkpt>
      <trkpt lat="28.53059" lon="-14.04284">
        <ele>91.6</ele>
        <time>2021-07-04 16:49:42</time>
      </trkpt>
      <trkpt lat="28.53061" lon="-14.04284">
        <ele>91.8</ele>
        <time>2021-07-04 16:49:43</time>
      </trkpt>
      <trkpt lat="28.53064" lon="-14.04284">
        <ele>91.8</ele>
        <time>2021-07-04 16:49:44</time>
      </trkpt>
      <trkpt lat="28.53066" lon="-14.04283">
        <ele>92.2</ele>
        <time>2021-07-04 16:49:45</time>
      </trkpt>
      <trkpt lat="28.53069" lon="-14.04283">
        <ele>92.2</ele>
        <time>2021-07-04 16:49:46</time>
      </trkpt>
      <trkpt lat="28.53071" lon="-14.04282">
        <ele>92.4</ele>
        <time>2021-07-04 16:49:47</time>
      </trkpt>
      <trkpt lat="28.53074" lon="-14.04281">
        <ele>92.4</ele>
        <time>2021-07-04 16:49:48</time>
      </trkpt>
      <trkpt lat="28.53076" lon="-14.0428">
        <ele>92.8</ele>
        <time>2021-07-04 16:49:49</time>
      </trkpt>
      <trkpt lat="28.53079" lon="-14.0428">
        <ele>93</ele>
        <time>2021-07-04 16:49:50</time>
      </trkpt>
      <trkpt lat="28.53081" lon="-14.04279">
        <ele>93</ele>
        <time>2021-07-04 16:49:51</time>
      </trkpt>
      <trkpt lat="28.53084" lon="-14.04278">
        <ele>93.4</ele>
        <time>2021-07-04 16:49:52</time>
      </trkpt>
      <trkpt lat="28.53086" lon="-14.04277">
        <ele>93.6</ele>
        <time>2021-07-04 16:49:53</time>
      </trkpt>
      <trkpt lat="28.53089" lon="-14.04276">
        <ele>93.8</ele>
        <time>2021-07-04 16:49:54</time>
      </trkpt>
      <trkpt lat="28.53091" lon="-14.04275">
        <ele>94</ele>
        <time>2021-07-04 16:49:55</time>
      </trkpt>
      <trkpt lat="28.53094" lon="-14.04275">
        <ele>94.4</ele>
        <time>2021-07-04 16:49:56</time>
      </trkpt>
      <trkpt lat="28.53096" lon="-14.04274">
        <ele>94.4</ele>
        <time>2021-07-04 16:49:57</time>
      </trkpt>
      <trkpt lat="28.53099" lon="-14.04273">
        <ele>94.6</ele>
        <time>2021-07-04 16:49:58</time>
      </trkpt>
      <trkpt lat="28.53101" lon="-14.04272">
        <ele>94.6</ele>
        <time>2021-07-04 16:49:59</time>
      </trkpt>
      <trkpt lat="28.53104" lon="-14.0427">
        <ele>95</ele>
        <time>2021-07-04 16:50:00</time>
      </trkpt>
      <trkpt lat="28.53106" lon="-14.04269">
        <ele>95.4</ele>
        <time>2021-07-04 16:50:01</time>
      </trkpt>
      <trkpt lat="28.53108" lon="-14.04268">
        <ele>95.6</ele>
        <time>2021-07-04 16:50:02</time>
      </trkpt>
      <trkpt lat="28.5311" lon="-14.04266">
        <ele>95.8</ele>
        <time>2021-07-04 16:50:03</time>
      </trkpt>
      <trkpt lat="28.53112" lon="-14.04265">
        <ele>96</ele>
        <time>2021-07-04 16:50:04</time>
      </trkpt>
      <trkpt lat="28.53114" lon="-14.04264">
        <ele>96</ele>
        <time>2021-07-04 16:50:05</time>
      </trkpt>
      <trkpt lat="28.53116" lon="-14.04262">
        <ele>96.2</ele>
        <time>2021-07-04 16:50:06</time>
      </trkpt>
      <trkpt lat="28.53118" lon="-14.04261">
        <ele>96.2</ele>
        <time>2021-07-04 16:50:07</time>
      </trkpt>
      <trkpt lat="28.5312" lon="-14.04259">
        <ele>96.2</ele>
        <time>2021-07-04 16:50:08</time>
      </trkpt>
      <trkpt lat="28.53121" lon="-14.04257">
        <ele>96.2</ele>
        <time>2021-07-04 16:50:09</time>
      </trkpt>
      <trkpt lat="28.53123" lon="-14.04255">
        <ele>96.2</ele>
        <time>2021-07-04 16:50:10</time>
      </trkpt>
      <trkpt lat="28.53124" lon="-14.04253">
        <ele>96.2</ele>
        <time>2021-07-04 16:50:11</time>
      </trkpt>
      <trkpt lat="28.53125" lon="-14.0425">
        <ele>96.4</ele>
        <time>2021-07-04 16:50:12</time>
      </trkpt>
      <trkpt lat="28.53126" lon="-14.04247">
        <ele>96.4</ele>
        <time>2021-07-04 16:50:13</time>
      </trkpt>
      <trkpt lat="28.53127" lon="-14.04245">
        <ele>96.4</ele>
        <time>2021-07-04 16:50:14</time>
      </trkpt>
      <trkpt lat="28.53127" lon="-14.04242">
        <ele>96.4</ele>
        <time>2021-07-04 16:50:15</time>
      </trkpt>
      <trkpt lat="28.53128" lon="-14.04239">
        <ele>96.6</ele>
        <time>2021-07-04 16:50:16</time>
      </trkpt>
      <trkpt lat="28.53127" lon="-14.04237">
        <ele>96.8</ele>
        <time>2021-07-04 16:50:17</time>
      </trkpt>
      <trkpt lat="28.53127" lon="-14.04234">
        <ele>97.2</ele>
        <time>2021-07-04 16:50:18</time>
      </trkpt>
      <trkpt lat="28.53126" lon="-14.04231">
        <ele>97.4</ele>
        <time>2021-07-04 16:50:19</time>
      </trkpt>
      <trkpt lat="28.53126" lon="-14.04228">
        <ele>97.6</ele>
        <time>2021-07-04 16:50:20</time>
      </trkpt>
      <trkpt lat="28.53125" lon="-14.04225">
        <ele>97.8</ele>
        <time>2021-07-04 16:50:21</time>
      </trkpt>
      <trkpt lat="28.53123" lon="-14.0422">
        <ele>98</ele>
        <time>2021-07-04 16:50:22</time>
      </trkpt>
      <trkpt lat="28.53121" lon="-14.04217">
        <ele>98.4</ele>
        <time>2021-07-04 16:50:23</time>
      </trkpt>
      <trkpt lat="28.5312" lon="-14.04214">
        <ele>98.6</ele>
        <time>2021-07-04 16:50:24</time>
      </trkpt>
      <trkpt lat="28.53119" lon="-14.04212">
        <ele>98.6</ele>
        <time>2021-07-04 16:50:25</time>
      </trkpt>
      <trkpt lat="28.53117" lon="-14.0421">
        <ele>99</ele>
        <time>2021-07-04 16:50:26</time>
      </trkpt>
      <trkpt lat="28.53115" lon="-14.04207">
        <ele>99</ele>
        <time>2021-07-04 16:50:27</time>
      </trkpt>
      <trkpt lat="28.53114" lon="-14.04205">
        <ele>99.4</ele>
        <time>2021-07-04 16:50:28</time>
      </trkpt>
      <trkpt lat="28.53113" lon="-14.04202">
        <ele>99.4</ele>
        <time>2021-07-04 16:50:29</time>
      </trkpt>
      <trkpt lat="28.53111" lon="-14.04199">
        <ele>99.8</ele>
        <time>2021-07-04 16:50:30</time>
      </trkpt>
      <trkpt lat="28.53109" lon="-14.04197">
        <ele>99.8</ele>
        <time>2021-07-04 16:50:31</time>
      </trkpt>
      <trkpt lat="28.53107" lon="-14.04194">
        <ele>100</ele>
        <time>2021-07-04 16:50:32</time>
      </trkpt>
      <trkpt lat="28.53105" lon="-14.04191">
        <ele>100</ele>
        <time>2021-07-04 16:50:33</time>
      </trkpt>
      <trkpt lat="28.53103" lon="-14.04189">
        <ele>100.4</ele>
        <time>2021-07-04 16:50:34</time>
      </trkpt>
      <trkpt lat="28.53101" lon="-14.04186">
        <ele>100.4</ele>
        <time>2021-07-04 16:50:35</time>
      </trkpt>
      <trkpt lat="28.53099" lon="-14.04183">
        <ele>100.6</ele>
        <time>2021-07-04 16:50:36</time>
      </trkpt>
      <trkpt lat="28.53097" lon="-14.0418">
        <ele>100.6</ele>
        <time>2021-07-04 16:50:37</time>
      </trkpt>
      <trkpt lat="28.53095" lon="-14.04177">
        <ele>100.8</ele>
        <time>2021-07-04 16:50:38</time>
      </trkpt>
      <trkpt lat="28.53093" lon="-14.04174">
        <ele>100.8</ele>
        <time>2021-07-04 16:50:39</time>
      </trkpt>
      <trkpt lat="28.53091" lon="-14.04172">
        <ele>101.2</ele>
        <time>2021-07-04 16:50:40</time>
      </trkpt>
      <trkpt lat="28.53089" lon="-14.04168">
        <ele>101.2</ele>
        <time>2021-07-04 16:50:41</time>
      </trkpt>
      <trkpt lat="28.53087" lon="-14.04166">
        <ele>101.4</ele>
        <time>2021-07-04 16:50:42</time>
      </trkpt>
      <trkpt lat="28.53085" lon="-14.04163">
        <ele>101.4</ele>
        <time>2021-07-04 16:50:43</time>
      </trkpt>
      <trkpt lat="28.53082" lon="-14.0416">
        <ele>101.4</ele>
        <time>2021-07-04 16:50:44</time>
      </trkpt>
      <trkpt lat="28.5308" lon="-14.04157">
        <ele>101.8</ele>
        <time>2021-07-04 16:50:45</time>
      </trkpt>
      <trkpt lat="28.53078" lon="-14.04154">
        <ele>101.8</ele>
        <time>2021-07-04 16:50:46</time>
      </trkpt>
      <trkpt lat="28.53076" lon="-14.04151">
        <ele>102</ele>
        <time>2021-07-04 16:50:47</time>
      </trkpt>
      <trkpt lat="28.53073" lon="-14.04148">
        <ele>102</ele>
        <time>2021-07-04 16:50:48</time>
      </trkpt>
      <trkpt lat="28.53071" lon="-14.04144">
        <ele>102</ele>
        <time>2021-07-04 16:50:49</time>
      </trkpt>
      <trkpt lat="28.53069" lon="-14.04141">
        <ele>102.4</ele>
        <time>2021-07-04 16:50:50</time>
      </trkpt>
      <trkpt lat="28.53066" lon="-14.04138">
        <ele>102.4</ele>
        <time>2021-07-04 16:50:51</time>
      </trkpt>
      <trkpt lat="28.53064" lon="-14.04134">
        <ele>102.6</ele>
        <time>2021-07-04 16:50:52</time>
      </trkpt>
      <trkpt lat="28.53062" lon="-14.04131">
        <ele>102.6</ele>
        <time>2021-07-04 16:50:53</time>
      </trkpt>
      <trkpt lat="28.53059" lon="-14.04128">
        <ele>102.8</ele>
        <time>2021-07-04 16:50:54</time>
      </trkpt>
      <trkpt lat="28.53057" lon="-14.04125">
        <ele>102.8</ele>
        <time>2021-07-04 16:50:55</time>
      </trkpt>
      <trkpt lat="28.53055" lon="-14.04122">
        <ele>103</ele>
        <time>2021-07-04 16:50:56</time>
      </trkpt>
      <trkpt lat="28.53053" lon="-14.04118">
        <ele>103</ele>
        <time>2021-07-04 16:50:57</time>
      </trkpt>
      <trkpt lat="28.53051" lon="-14.04115">
        <ele>103.4</ele>
        <time>2021-07-04 16:50:58</time>
      </trkpt>
      <trkpt lat="28.53049" lon="-14.04111">
        <ele>103.6</ele>
        <time>2021-07-04 16:50:59</time>
      </trkpt>
      <trkpt lat="28.53048" lon="-14.04107">
        <ele>103.8</ele>
        <time>2021-07-04 16:51:00</time>
      </trkpt>
      <trkpt lat="28.53048" lon="-14.04103">
        <ele>104</ele>
        <time>2021-07-04 16:51:01</time>
      </trkpt>
      <trkpt lat="28.53048" lon="-14.04098">
        <ele>104</ele>
        <time>2021-07-04 16:51:02</time>
      </trkpt>
      <trkpt lat="28.53049" lon="-14.04093">
        <ele>104.2</ele>
        <time>2021-07-04 16:51:03</time>
      </trkpt>
      <trkpt lat="28.5305" lon="-14.04088">
        <ele>104.2</ele>
        <time>2021-07-04 16:51:04</time>
      </trkpt>
      <trkpt lat="28.53051" lon="-14.04084">
        <ele>104.2</ele>
        <time>2021-07-04 16:51:05</time>
      </trkpt>
      <trkpt lat="28.53053" lon="-14.0408">
        <ele>104.2</ele>
        <time>2021-07-04 16:51:06</time>
      </trkpt>
      <trkpt lat="28.53057" lon="-14.04075">
        <ele>104.2</ele>
        <time>2021-07-04 16:51:07</time>
      </trkpt>
      <trkpt lat="28.53059" lon="-14.04071">
        <ele>104.2</ele>
        <time>2021-07-04 16:51:08</time>
      </trkpt>
      <trkpt lat="28.53061" lon="-14.04066">
        <ele>104.2</ele>
        <time>2021-07-04 16:51:09</time>
      </trkpt>
      <trkpt lat="28.53063" lon="-14.04061">
        <ele>104</ele>
        <time>2021-07-04 16:51:10</time>
      </trkpt>
      <trkpt lat="28.53065" lon="-14.04057">
        <ele>104</ele>
        <time>2021-07-04 16:51:11</time>
      </trkpt>
      <trkpt lat="28.53067" lon="-14.04052">
        <ele>104</ele>
        <time>2021-07-04 16:51:12</time>
      </trkpt>
      <trkpt lat="28.5307" lon="-14.04046">
        <ele>104</ele>
        <time>2021-07-04 16:51:13</time>
      </trkpt>
      <trkpt lat="28.53072" lon="-14.04041">
        <ele>104</ele>
        <time>2021-07-04 16:51:14</time>
      </trkpt>
      <trkpt lat="28.53075" lon="-14.04036">
        <ele>104</ele>
        <time>2021-07-04 16:51:15</time>
      </trkpt>
      <trkpt lat="28.53078" lon="-14.04031">
        <ele>104</ele>
        <time>2021-07-04 16:51:16</time>
      </trkpt>
      <trkpt lat="28.5308" lon="-14.04026">
        <ele>104</ele>
        <time>2021-07-04 16:51:17</time>
      </trkpt>
      <trkpt lat="28.53082" lon="-14.04021">
        <ele>104</ele>
        <time>2021-07-04 16:51:18</time>
      </trkpt>
      <trkpt lat="28.53085" lon="-14.04016">
        <ele>104</ele>
        <time>2021-07-04 16:51:19</time>
      </trkpt>
      <trkpt lat="28.53087" lon="-14.04011">
        <ele>104</ele>
        <time>2021-07-04 16:51:20</time>
      </trkpt>
      <trkpt lat="28.5309" lon="-14.04006">
        <ele>104</ele>
        <time>2021-07-04 16:51:21</time>
      </trkpt>
      <trkpt lat="28.53093" lon="-14.04001">
        <ele>104</ele>
        <time>2021-07-04 16:51:22</time>
      </trkpt>
      <trkpt lat="28.53095" lon="-14.03996">
        <ele>104</ele>
        <time>2021-07-04 16:51:23</time>
      </trkpt>
      <trkpt lat="28.53098" lon="-14.03991">
        <ele>104</ele>
        <time>2021-07-04 16:51:24</time>
      </trkpt>
      <trkpt lat="28.53101" lon="-14.03986">
        <ele>104</ele>
        <time>2021-07-04 16:51:25</time>
      </trkpt>
      <trkpt lat="28.53103" lon="-14.03981">
        <ele>104</ele>
        <time>2021-07-04 16:51:26</time>
      </trkpt>
      <trkpt lat="28.53106" lon="-14.03976">
        <ele>104</ele>
        <time>2021-07-04 16:51:27</time>
      </trkpt>
      <trkpt lat="28.53108" lon="-14.03972">
        <ele>104.4</ele>
        <time>2021-07-04 16:51:28</time>
      </trkpt>
      <trkpt lat="28.53111" lon="-14.03967">
        <ele>104.4</ele>
        <time>2021-07-04 16:51:29</time>
      </trkpt>
      <trkpt lat="28.53113" lon="-14.03962">
        <ele>104.4</ele>
        <time>2021-07-04 16:51:30</time>
      </trkpt>
      <trkpt lat="28.53115" lon="-14.03957">
        <ele>104.4</ele>
        <time>2021-07-04 16:51:31</time>
      </trkpt>
      <trkpt lat="28.53118" lon="-14.03952">
        <ele>104.4</ele>
        <time>2021-07-04 16:51:32</time>
      </trkpt>
      <trkpt lat="28.5312" lon="-14.03948">
        <ele>104.6</ele>
        <time>2021-07-04 16:51:33</time>
      </trkpt>
      <trkpt lat="28.53122" lon="-14.03943">
        <ele>104.6</ele>
        <time>2021-07-04 16:51:34</time>
      </trkpt>
      <trkpt lat="28.53125" lon="-14.03938">
        <ele>104.6</ele>
        <time>2021-07-04 16:51:35</time>
      </trkpt>
      <trkpt lat="28.53128" lon="-14.03934">
        <ele>104.8</ele>
        <time>2021-07-04 16:51:36</time>
      </trkpt>
      <trkpt lat="28.53129" lon="-14.0393">
        <ele>104.8</ele>
        <time>2021-07-04 16:51:37</time>
      </trkpt>
      <trkpt lat="28.53132" lon="-14.03925">
        <ele>104.8</ele>
        <time>2021-07-04 16:51:38</time>
      </trkpt>
      <trkpt lat="28.53134" lon="-14.03921">
        <ele>104.8</ele>
        <time>2021-07-04 16:51:39</time>
      </trkpt>
      <trkpt lat="28.53136" lon="-14.03917">
        <ele>104.8</ele>
        <time>2021-07-04 16:51:40</time>
      </trkpt>
      <trkpt lat="28.53138" lon="-14.03912">
        <ele>104.8</ele>
        <time>2021-07-04 16:51:41</time>
      </trkpt>
      <trkpt lat="28.5314" lon="-14.03908">
        <ele>104.8</ele>
        <time>2021-07-04 16:51:42</time>
      </trkpt>
      <trkpt lat="28.53143" lon="-14.03904">
        <ele>104.8</ele>
        <time>2021-07-04 16:51:43</time>
      </trkpt>
      <trkpt lat="28.53145" lon="-14.039">
        <ele>104.8</ele>
        <time>2021-07-04 16:51:44</time>
      </trkpt>
      <trkpt lat="28.53147" lon="-14.03895">
        <ele>104.8</ele>
        <time>2021-07-04 16:51:45</time>
      </trkpt>
      <trkpt lat="28.53149" lon="-14.03891">
        <ele>104.8</ele>
        <time>2021-07-04 16:51:46</time>
      </trkpt>
      <trkpt lat="28.53151" lon="-14.03887">
        <ele>104.8</ele>
        <time>2021-07-04 16:51:47</time>
      </trkpt>
      <trkpt lat="28.53154" lon="-14.03882">
        <ele>104.8</ele>
        <time>2021-07-04 16:51:48</time>
      </trkpt>
      <trkpt lat="28.53156" lon="-14.03878">
        <ele>104.8</ele>
        <time>2021-07-04 16:51:49</time>
      </trkpt>
      <trkpt lat="28.53158" lon="-14.03873">
        <ele>105</ele>
        <time>2021-07-04 16:51:50</time>
      </trkpt>
      <trkpt lat="28.5316" lon="-14.03868">
        <ele>105</ele>
        <time>2021-07-04 16:51:51</time>
      </trkpt>
      <trkpt lat="28.53163" lon="-14.03864">
        <ele>105</ele>
        <time>2021-07-04 16:51:52</time>
      </trkpt>
      <trkpt lat="28.53165" lon="-14.0386">
        <ele>105.2</ele>
        <time>2021-07-04 16:51:53</time>
      </trkpt>
      <trkpt lat="28.53167" lon="-14.03855">
        <ele>105.2</ele>
        <time>2021-07-04 16:51:54</time>
      </trkpt>
      <trkpt lat="28.53169" lon="-14.03851">
        <ele>105.2</ele>
        <time>2021-07-04 16:51:55</time>
      </trkpt>
      <trkpt lat="28.53172" lon="-14.03847">
        <ele>105.4</ele>
        <time>2021-07-04 16:51:56</time>
      </trkpt>
      <trkpt lat="28.53174" lon="-14.03842">
        <ele>105.4</ele>
        <time>2021-07-04 16:51:57</time>
      </trkpt>
      <trkpt lat="28.53176" lon="-14.03837">
        <ele>105.4</ele>
        <time>2021-07-04 16:51:58</time>
      </trkpt>
      <trkpt lat="28.53178" lon="-14.03832">
        <ele>105.4</ele>
        <time>2021-07-04 16:51:59</time>
      </trkpt>
      <trkpt lat="28.5318" lon="-14.03827">
        <ele>105.2</ele>
        <time>2021-07-04 16:52:00</time>
      </trkpt>
      <trkpt lat="28.53183" lon="-14.03822">
        <ele>105.2</ele>
        <time>2021-07-04 16:52:01</time>
      </trkpt>
      <trkpt lat="28.53185" lon="-14.03817">
        <ele>105.2</ele>
        <time>2021-07-04 16:52:02</time>
      </trkpt>
      <trkpt lat="28.53187" lon="-14.03812">
        <ele>105.2</ele>
        <time>2021-07-04 16:52:03</time>
      </trkpt>
      <trkpt lat="28.53189" lon="-14.03807">
        <ele>105.2</ele>
        <time>2021-07-04 16:52:04</time>
      </trkpt>
      <trkpt lat="28.53191" lon="-14.03802">
        <ele>105.2</ele>
        <time>2021-07-04 16:52:05</time>
      </trkpt>
      <trkpt lat="28.53192" lon="-14.03797">
        <ele>105</ele>
        <time>2021-07-04 16:52:06</time>
      </trkpt>
      <trkpt lat="28.53194" lon="-14.03791">
        <ele>105</ele>
        <time>2021-07-04 16:52:07</time>
      </trkpt>
      <trkpt lat="28.53196" lon="-14.03786">
        <ele>105</ele>
        <time>2021-07-04 16:52:08</time>
      </trkpt>
      <trkpt lat="28.53197" lon="-14.0378">
        <ele>105</ele>
        <time>2021-07-04 16:52:09</time>
      </trkpt>
      <trkpt lat="28.53197" lon="-14.03775">
        <ele>105</ele>
        <time>2021-07-04 16:52:10</time>
      </trkpt>
      <trkpt lat="28.53198" lon="-14.03769">
        <ele>105</ele>
        <time>2021-07-04 16:52:11</time>
      </trkpt>
      <trkpt lat="28.53199" lon="-14.03764">
        <ele>105.2</ele>
        <time>2021-07-04 16:52:12</time>
      </trkpt>
      <trkpt lat="28.532" lon="-14.03759">
        <ele>105.2</ele>
        <time>2021-07-04 16:52:13</time>
      </trkpt>
      <trkpt lat="28.532" lon="-14.03753">
        <ele>105.2</ele>
        <time>2021-07-04 16:52:14</time>
      </trkpt>
      <trkpt lat="28.532" lon="-14.03748">
        <ele>105.2</ele>
        <time>2021-07-04 16:52:15</time>
      </trkpt>
      <trkpt lat="28.53201" lon="-14.03742">
        <ele>105.2</ele>
        <time>2021-07-04 16:52:16</time>
      </trkpt>
      <trkpt lat="28.53201" lon="-14.03737">
        <ele>105.2</ele>
        <time>2021-07-04 16:52:17</time>
      </trkpt>
      <trkpt lat="28.53201" lon="-14.03731">
        <ele>105.2</ele>
        <time>2021-07-04 16:52:18</time>
      </trkpt>
      <trkpt lat="28.53201" lon="-14.03725">
        <ele>105.2</ele>
        <time>2021-07-04 16:52:19</time>
      </trkpt>
      <trkpt lat="28.53201" lon="-14.0372">
        <ele>105.2</ele>
        <time>2021-07-04 16:52:20</time>
      </trkpt>
      <trkpt lat="28.532" lon="-14.03714">
        <ele>105.2</ele>
        <time>2021-07-04 16:52:21</time>
      </trkpt>
      <trkpt lat="28.532" lon="-14.03708">
        <ele>105.6</ele>
        <time>2021-07-04 16:52:22</time>
      </trkpt>
      <trkpt lat="28.53199" lon="-14.03703">
        <ele>105.6</ele>
        <time>2021-07-04 16:52:23</time>
      </trkpt>
      <trkpt lat="28.53198" lon="-14.03698">
        <ele>105.8</ele>
        <time>2021-07-04 16:52:24</time>
      </trkpt>
      <trkpt lat="28.53197" lon="-14.03692">
        <ele>105.8</ele>
        <time>2021-07-04 16:52:25</time>
      </trkpt>
      <trkpt lat="28.53195" lon="-14.03687">
        <ele>106</ele>
        <time>2021-07-04 16:52:26</time>
      </trkpt>
      <trkpt lat="28.53195" lon="-14.03682">
        <ele>106.4</ele>
        <time>2021-07-04 16:52:27</time>
      </trkpt>
      <trkpt lat="28.53193" lon="-14.03676">
        <ele>106.4</ele>
        <time>2021-07-04 16:52:28</time>
      </trkpt>
      <trkpt lat="28.53192" lon="-14.03671">
        <ele>106.6</ele>
        <time>2021-07-04 16:52:29</time>
      </trkpt>
      <trkpt lat="28.53191" lon="-14.03665">
        <ele>106.6</ele>
        <time>2021-07-04 16:52:30</time>
      </trkpt>
      <trkpt lat="28.5319" lon="-14.0366">
        <ele>107</ele>
        <time>2021-07-04 16:52:31</time>
      </trkpt>
      <trkpt lat="28.53189" lon="-14.03654">
        <ele>107</ele>
        <time>2021-07-04 16:52:32</time>
      </trkpt>
      <trkpt lat="28.53187" lon="-14.03649">
        <ele>107.2</ele>
        <time>2021-07-04 16:52:33</time>
      </trkpt>
      <trkpt lat="28.53185" lon="-14.03644">
        <ele>107.2</ele>
        <time>2021-07-04 16:52:34</time>
      </trkpt>
      <trkpt lat="28.53184" lon="-14.03639">
        <ele>107.4</ele>
        <time>2021-07-04 16:52:35</time>
      </trkpt>
      <trkpt lat="28.53182" lon="-14.03633">
        <ele>107.4</ele>
        <time>2021-07-04 16:52:36</time>
      </trkpt>
      <trkpt lat="28.5318" lon="-14.03628">
        <ele>107.4</ele>
        <time>2021-07-04 16:52:37</time>
      </trkpt>
      <trkpt lat="28.53178" lon="-14.03622">
        <ele>107.8</ele>
        <time>2021-07-04 16:52:38</time>
      </trkpt>
      <trkpt lat="28.53177" lon="-14.03616">
        <ele>107.8</ele>
        <time>2021-07-04 16:52:39</time>
      </trkpt>
      <trkpt lat="28.53175" lon="-14.03611">
        <ele>107.8</ele>
        <time>2021-07-04 16:52:40</time>
      </trkpt>
      <trkpt lat="28.53174" lon="-14.03605">
        <ele>107.8</ele>
        <time>2021-07-04 16:52:41</time>
      </trkpt>
      <trkpt lat="28.53172" lon="-14.03599">
        <ele>107.8</ele>
        <time>2021-07-04 16:52:42</time>
      </trkpt>
      <trkpt lat="28.5317" lon="-14.03593">
        <ele>107.8</ele>
        <time>2021-07-04 16:52:43</time>
      </trkpt>
      <trkpt lat="28.53168" lon="-14.03588">
        <ele>108</ele>
        <time>2021-07-04 16:52:44</time>
      </trkpt>
      <trkpt lat="28.53167" lon="-14.03581">
        <ele>108</ele>
        <time>2021-07-04 16:52:45</time>
      </trkpt>
      <trkpt lat="28.53164" lon="-14.03576">
        <ele>108</ele>
        <time>2021-07-04 16:52:46</time>
      </trkpt>
      <trkpt lat="28.53163" lon="-14.0357">
        <ele>108</ele>
        <time>2021-07-04 16:52:47</time>
      </trkpt>
      <trkpt lat="28.53161" lon="-14.03564">
        <ele>108.4</ele>
        <time>2021-07-04 16:52:48</time>
      </trkpt>
      <trkpt lat="28.53159" lon="-14.03559">
        <ele>108.4</ele>
        <time>2021-07-04 16:52:49</time>
      </trkpt>
      <trkpt lat="28.53157" lon="-14.03553">
        <ele>108.4</ele>
        <time>2021-07-04 16:52:50</time>
      </trkpt>
      <trkpt lat="28.53156" lon="-14.03548">
        <ele>108.6</ele>
        <time>2021-07-04 16:52:51</time>
      </trkpt>
      <trkpt lat="28.53154" lon="-14.03542">
        <ele>108.6</ele>
        <time>2021-07-04 16:52:52</time>
      </trkpt>
      <trkpt lat="28.53152" lon="-14.03537">
        <ele>108.6</ele>
        <time>2021-07-04 16:52:53</time>
      </trkpt>
      <trkpt lat="28.53151" lon="-14.03531">
        <ele>108.6</ele>
        <time>2021-07-04 16:52:54</time>
      </trkpt>
      <trkpt lat="28.53149" lon="-14.03526">
        <ele>108.8</ele>
        <time>2021-07-04 16:52:55</time>
      </trkpt>
      <trkpt lat="28.53148" lon="-14.03521">
        <ele>108.8</ele>
        <time>2021-07-04 16:52:56</time>
      </trkpt>
      <trkpt lat="28.53146" lon="-14.03515">
        <ele>108.8</ele>
        <time>2021-07-04 16:52:57</time>
      </trkpt>
      <trkpt lat="28.53145" lon="-14.0351">
        <ele>108.8</ele>
        <time>2021-07-04 16:52:58</time>
      </trkpt>
      <trkpt lat="28.53143" lon="-14.03505">
        <ele>108.8</ele>
        <time>2021-07-04 16:52:59</time>
      </trkpt>
      <trkpt lat="28.53142" lon="-14.035">
        <ele>109</ele>
        <time>2021-07-04 16:53:00</time>
      </trkpt>
      <trkpt lat="28.5314" lon="-14.03495">
        <ele>109</ele>
        <time>2021-07-04 16:53:01</time>
      </trkpt>
      <trkpt lat="28.53138" lon="-14.0349">
        <ele>109.4</ele>
        <time>2021-07-04 16:53:02</time>
      </trkpt>
      <trkpt lat="28.53137" lon="-14.03484">
        <ele>109.6</ele>
        <time>2021-07-04 16:53:03</time>
      </trkpt>
      <trkpt lat="28.53136" lon="-14.03479">
        <ele>109.6</ele>
        <time>2021-07-04 16:53:04</time>
      </trkpt>
      <trkpt lat="28.53134" lon="-14.03475">
        <ele>110</ele>
        <time>2021-07-04 16:53:05</time>
      </trkpt>
      <trkpt lat="28.53132" lon="-14.03469">
        <ele>110</ele>
        <time>2021-07-04 16:53:06</time>
      </trkpt>
      <trkpt lat="28.53131" lon="-14.03465">
        <ele>110.2</ele>
        <time>2021-07-04 16:53:07</time>
      </trkpt>
      <trkpt lat="28.53129" lon="-14.0346">
        <ele>110.2</ele>
        <time>2021-07-04 16:53:08</time>
      </trkpt>
      <trkpt lat="28.53127" lon="-14.03455">
        <ele>110.2</ele>
        <time>2021-07-04 16:53:09</time>
      </trkpt>
      <trkpt lat="28.53126" lon="-14.0345">
        <ele>110.6</ele>
        <time>2021-07-04 16:53:10</time>
      </trkpt>
      <trkpt lat="28.53125" lon="-14.03445">
        <ele>110.6</ele>
        <time>2021-07-04 16:53:11</time>
      </trkpt>
      <trkpt lat="28.53124" lon="-14.03439">
        <ele>110.6</ele>
        <time>2021-07-04 16:53:12</time>
      </trkpt>
      <trkpt lat="28.53122" lon="-14.03434">
        <ele>110.6</ele>
        <time>2021-07-04 16:53:13</time>
      </trkpt>
      <trkpt lat="28.5312" lon="-14.0343">
        <ele>110.6</ele>
        <time>2021-07-04 16:53:14</time>
      </trkpt>
      <trkpt lat="28.53118" lon="-14.03424">
        <ele>110.8</ele>
        <time>2021-07-04 16:53:15</time>
      </trkpt>
      <trkpt lat="28.53117" lon="-14.03419">
        <ele>110.8</ele>
        <time>2021-07-04 16:53:16</time>
      </trkpt>
      <trkpt lat="28.53115" lon="-14.03414">
        <ele>111.2</ele>
        <time>2021-07-04 16:53:17</time>
      </trkpt>
      <trkpt lat="28.53113" lon="-14.03409">
        <ele>111.2</ele>
        <time>2021-07-04 16:53:18</time>
      </trkpt>
      <trkpt lat="28.53112" lon="-14.03403">
        <ele>111.2</ele>
        <time>2021-07-04 16:53:19</time>
      </trkpt>
      <trkpt lat="28.5311" lon="-14.03397">
        <ele>111.2</ele>
        <time>2021-07-04 16:53:20</time>
      </trkpt>
      <trkpt lat="28.53108" lon="-14.03391">
        <ele>111.2</ele>
        <time>2021-07-04 16:53:21</time>
      </trkpt>
      <trkpt lat="28.53107" lon="-14.03386">
        <ele>111.2</ele>
        <time>2021-07-04 16:53:22</time>
      </trkpt>
      <trkpt lat="28.53105" lon="-14.0338">
        <ele>111.4</ele>
        <time>2021-07-04 16:53:23</time>
      </trkpt>
      <trkpt lat="28.53104" lon="-14.03375">
        <ele>111.4</ele>
        <time>2021-07-04 16:53:24</time>
      </trkpt>
      <trkpt lat="28.53103" lon="-14.03371">
        <ele>111.4</ele>
        <time>2021-07-04 16:53:25</time>
      </trkpt>
      <trkpt lat="28.53102" lon="-14.03366">
        <ele>111.4</ele>
        <time>2021-07-04 16:53:26</time>
      </trkpt>
      <trkpt lat="28.53101" lon="-14.03363">
        <ele>111.4</ele>
        <time>2021-07-04 16:53:27</time>
      </trkpt>
      <trkpt lat="28.53099" lon="-14.03358">
        <ele>111.4</ele>
        <time>2021-07-04 16:53:28</time>
      </trkpt>
      <trkpt lat="28.53098" lon="-14.03354">
        <ele>111.4</ele>
        <time>2021-07-04 16:53:29</time>
      </trkpt>
      <trkpt lat="28.53097" lon="-14.03349">
        <ele>111.6</ele>
        <time>2021-07-04 16:53:30</time>
      </trkpt>
      <trkpt lat="28.53096" lon="-14.03344">
        <ele>111.6</ele>
        <time>2021-07-04 16:53:31</time>
      </trkpt>
      <trkpt lat="28.53095" lon="-14.03339">
        <ele>111.6</ele>
        <time>2021-07-04 16:53:32</time>
      </trkpt>
      <trkpt lat="28.53094" lon="-14.03334">
        <ele>111.6</ele>
        <time>2021-07-04 16:53:33</time>
      </trkpt>
      <trkpt lat="28.53093" lon="-14.03329">
        <ele>112</ele>
        <time>2021-07-04 16:53:34</time>
      </trkpt>
      <trkpt lat="28.53092" lon="-14.03323">
        <ele>112</ele>
        <time>2021-07-04 16:53:35</time>
      </trkpt>
      <trkpt lat="28.53091" lon="-14.03319">
        <ele>112</ele>
        <time>2021-07-04 16:53:36</time>
      </trkpt>
      <trkpt lat="28.5309" lon="-14.03314">
        <ele>111</ele>
        <time>2021-07-04 16:53:37</time>
      </trkpt>
      <trkpt lat="28.5309" lon="-14.03309">
        <ele>111.2</ele>
        <time>2021-07-04 16:53:38</time>
      </trkpt>
      <trkpt lat="28.53089" lon="-14.03304">
        <ele>110.8</ele>
        <time>2021-07-04 16:53:39</time>
      </trkpt>
      <trkpt lat="28.53088" lon="-14.03299">
        <ele>111</ele>
        <time>2021-07-04 16:53:40</time>
      </trkpt>
      <trkpt lat="28.53087" lon="-14.03294">
        <ele>111.4</ele>
        <time>2021-07-04 16:53:41</time>
      </trkpt>
      <trkpt lat="28.53087" lon="-14.03289">
        <ele>111.6</ele>
        <time>2021-07-04 16:53:42</time>
      </trkpt>
      <trkpt lat="28.53087" lon="-14.03284">
        <ele>111.8</ele>
        <time>2021-07-04 16:53:43</time>
      </trkpt>
      <trkpt lat="28.53086" lon="-14.03279">
        <ele>111.8</ele>
        <time>2021-07-04 16:53:44</time>
      </trkpt>
      <trkpt lat="28.53085" lon="-14.03273">
        <ele>112.2</ele>
        <time>2021-07-04 16:53:45</time>
      </trkpt>
      <trkpt lat="28.53084" lon="-14.03268">
        <ele>112.2</ele>
        <time>2021-07-04 16:53:46</time>
      </trkpt>
      <trkpt lat="28.53084" lon="-14.03263">
        <ele>112.6</ele>
        <time>2021-07-04 16:53:47</time>
      </trkpt>
      <trkpt lat="28.53083" lon="-14.03257">
        <ele>112.6</ele>
        <time>2021-07-04 16:53:48</time>
      </trkpt>
      <trkpt lat="28.53083" lon="-14.03252">
        <ele>112.8</ele>
        <time>2021-07-04 16:53:49</time>
      </trkpt>
      <trkpt lat="28.53082" lon="-14.03246">
        <ele>112.8</ele>
        <time>2021-07-04 16:53:50</time>
      </trkpt>
      <trkpt lat="28.53081" lon="-14.0324">
        <ele>112.8</ele>
        <time>2021-07-04 16:53:51</time>
      </trkpt>
      <trkpt lat="28.53081" lon="-14.03234">
        <ele>112.8</ele>
        <time>2021-07-04 16:53:52</time>
      </trkpt>
      <trkpt lat="28.5308" lon="-14.03229">
        <ele>112.8</ele>
        <time>2021-07-04 16:53:53</time>
      </trkpt>
      <trkpt lat="28.53079" lon="-14.03223">
        <ele>112.8</ele>
        <time>2021-07-04 16:53:54</time>
      </trkpt>
      <trkpt lat="28.53079" lon="-14.03218">
        <ele>112.8</ele>
        <time>2021-07-04 16:53:55</time>
      </trkpt>
      <trkpt lat="28.53078" lon="-14.03212">
        <ele>112.8</ele>
        <time>2021-07-04 16:53:56</time>
      </trkpt>
      <trkpt lat="28.53078" lon="-14.03207">
        <ele>112.8</ele>
        <time>2021-07-04 16:53:57</time>
      </trkpt>
      <trkpt lat="28.53078" lon="-14.032">
        <ele>112.8</ele>
        <time>2021-07-04 16:53:58</time>
      </trkpt>
      <trkpt lat="28.53077" lon="-14.03194">
        <ele>112.8</ele>
        <time>2021-07-04 16:53:59</time>
      </trkpt>
      <trkpt lat="28.53076" lon="-14.03189">
        <ele>112.8</ele>
        <time>2021-07-04 16:54:00</time>
      </trkpt>
      <trkpt lat="28.53076" lon="-14.03183">
        <ele>112.8</ele>
        <time>2021-07-04 16:54:01</time>
      </trkpt>
      <trkpt lat="28.53076" lon="-14.03177">
        <ele>113</ele>
        <time>2021-07-04 16:54:02</time>
      </trkpt>
      <trkpt lat="28.53075" lon="-14.03172">
        <ele>113</ele>
        <time>2021-07-04 16:54:03</time>
      </trkpt>
      <trkpt lat="28.53075" lon="-14.03166">
        <ele>113</ele>
        <time>2021-07-04 16:54:04</time>
      </trkpt>
      <trkpt lat="28.53074" lon="-14.0316">
        <ele>113.2</ele>
        <time>2021-07-04 16:54:05</time>
      </trkpt>
      <trkpt lat="28.53074" lon="-14.03155">
        <ele>113.2</ele>
        <time>2021-07-04 16:54:06</time>
      </trkpt>
      <trkpt lat="28.53074" lon="-14.03149">
        <ele>113.4</ele>
        <time>2021-07-04 16:54:07</time>
      </trkpt>
      <trkpt lat="28.53073" lon="-14.03144">
        <ele>113.4</ele>
        <time>2021-07-04 16:54:08</time>
      </trkpt>
      <trkpt lat="28.53073" lon="-14.03137">
        <ele>113.8</ele>
        <time>2021-07-04 16:54:09</time>
      </trkpt>
      <trkpt lat="28.53073" lon="-14.03132">
        <ele>113.8</ele>
        <time>2021-07-04 16:54:10</time>
      </trkpt>
      <trkpt lat="28.53072" lon="-14.03126">
        <ele>114</ele>
        <time>2021-07-04 16:54:11</time>
      </trkpt>
      <trkpt lat="28.53072" lon="-14.03121">
        <ele>114</ele>
        <time>2021-07-04 16:54:12</time>
      </trkpt>
      <trkpt lat="28.53071" lon="-14.03116">
        <ele>114.4</ele>
        <time>2021-07-04 16:54:13</time>
      </trkpt>
      <trkpt lat="28.53071" lon="-14.03111">
        <ele>114.4</ele>
        <time>2021-07-04 16:54:14</time>
      </trkpt>
      <trkpt lat="28.53071" lon="-14.03105">
        <ele>114.4</ele>
        <time>2021-07-04 16:54:15</time>
      </trkpt>
      <trkpt lat="28.5307" lon="-14.03099">
        <ele>114.4</ele>
        <time>2021-07-04 16:54:16</time>
      </trkpt>
      <trkpt lat="28.5307" lon="-14.03094">
        <ele>114.4</ele>
        <time>2021-07-04 16:54:17</time>
      </trkpt>
      <trkpt lat="28.53069" lon="-14.03089">
        <ele>114.6</ele>
        <time>2021-07-04 16:54:18</time>
      </trkpt>
      <trkpt lat="28.53069" lon="-14.03084">
        <ele>114.6</ele>
        <time>2021-07-04 16:54:19</time>
      </trkpt>
      <trkpt lat="28.53069" lon="-14.03079">
        <ele>114.6</ele>
        <time>2021-07-04 16:54:20</time>
      </trkpt>
      <trkpt lat="28.53068" lon="-14.03074">
        <ele>114.6</ele>
        <time>2021-07-04 16:54:21</time>
      </trkpt>
      <trkpt lat="28.53068" lon="-14.03069">
        <ele>114.6</ele>
        <time>2021-07-04 16:54:22</time>
      </trkpt>
      <trkpt lat="28.53067" lon="-14.03063">
        <ele>114.6</ele>
        <time>2021-07-04 16:54:23</time>
      </trkpt>
      <trkpt lat="28.53067" lon="-14.03059">
        <ele>114.8</ele>
        <time>2021-07-04 16:54:24</time>
      </trkpt>
      <trkpt lat="28.53066" lon="-14.03054">
        <ele>114.8</ele>
        <time>2021-07-04 16:54:25</time>
      </trkpt>
      <trkpt lat="28.53065" lon="-14.03049">
        <ele>114.8</ele>
        <time>2021-07-04 16:54:26</time>
      </trkpt>
      <trkpt lat="28.53065" lon="-14.03043">
        <ele>115</ele>
        <time>2021-07-04 16:54:27</time>
      </trkpt>
      <trkpt lat="28.53065" lon="-14.03038">
        <ele>115</ele>
        <time>2021-07-04 16:54:28</time>
      </trkpt>
      <trkpt lat="28.53064" lon="-14.03033">
        <ele>115</ele>
        <time>2021-07-04 16:54:29</time>
      </trkpt>
      <trkpt lat="28.53064" lon="-14.03027">
        <ele>115</ele>
        <time>2021-07-04 16:54:30</time>
      </trkpt>
      <trkpt lat="28.53064" lon="-14.03022">
        <ele>115</ele>
        <time>2021-07-04 16:54:31</time>
      </trkpt>
      <trkpt lat="28.53064" lon="-14.03017">
        <ele>115</ele>
        <time>2021-07-04 16:54:32</time>
      </trkpt>
      <trkpt lat="28.53063" lon="-14.03011">
        <ele>115</ele>
        <time>2021-07-04 16:54:33</time>
      </trkpt>
      <trkpt lat="28.53063" lon="-14.03006">
        <ele>115</ele>
        <time>2021-07-04 16:54:34</time>
      </trkpt>
      <trkpt lat="28.53062" lon="-14.03001">
        <ele>115</ele>
        <time>2021-07-04 16:54:35</time>
      </trkpt>
      <trkpt lat="28.53062" lon="-14.02996">
        <ele>115.4</ele>
        <time>2021-07-04 16:54:36</time>
      </trkpt>
      <trkpt lat="28.53061" lon="-14.0299">
        <ele>115.4</ele>
        <time>2021-07-04 16:54:37</time>
      </trkpt>
      <trkpt lat="28.53061" lon="-14.02985">
        <ele>115.4</ele>
        <time>2021-07-04 16:54:38</time>
      </trkpt>
      <trkpt lat="28.5306" lon="-14.0298">
        <ele>115.4</ele>
        <time>2021-07-04 16:54:39</time>
      </trkpt>
      <trkpt lat="28.5306" lon="-14.02974">
        <ele>115.6</ele>
        <time>2021-07-04 16:54:40</time>
      </trkpt>
      <trkpt lat="28.5306" lon="-14.02969">
        <ele>115.6</ele>
        <time>2021-07-04 16:54:41</time>
      </trkpt>
      <trkpt lat="28.5306" lon="-14.02964">
        <ele>115.6</ele>
        <time>2021-07-04 16:54:42</time>
      </trkpt>
      <trkpt lat="28.5306" lon="-14.02958">
        <ele>115.6</ele>
        <time>2021-07-04 16:54:43</time>
      </trkpt>
      <trkpt lat="28.5306" lon="-14.02953">
        <ele>115.6</ele>
        <time>2021-07-04 16:54:44</time>
      </trkpt>
      <trkpt lat="28.53059" lon="-14.02948">
        <ele>115.8</ele>
        <time>2021-07-04 16:54:45</time>
      </trkpt>
      <trkpt lat="28.53059" lon="-14.02943">
        <ele>115.8</ele>
        <time>2021-07-04 16:54:46</time>
      </trkpt>
      <trkpt lat="28.53059" lon="-14.02938">
        <ele>115.8</ele>
        <time>2021-07-04 16:54:47</time>
      </trkpt>
      <trkpt lat="28.53058" lon="-14.02933">
        <ele>116.2</ele>
        <time>2021-07-04 16:54:48</time>
      </trkpt>
      <trkpt lat="28.53058" lon="-14.02929">
        <ele>116.2</ele>
        <time>2021-07-04 16:54:49</time>
      </trkpt>
      <trkpt lat="28.53058" lon="-14.02924">
        <ele>116.6</ele>
        <time>2021-07-04 16:54:50</time>
      </trkpt>
      <trkpt lat="28.53058" lon="-14.02919">
        <ele>116.8</ele>
        <time>2021-07-04 16:54:51</time>
      </trkpt>
      <trkpt lat="28.53058" lon="-14.02914">
        <ele>117</ele>
        <time>2021-07-04 16:54:52</time>
      </trkpt>
      <trkpt lat="28.53058" lon="-14.0291">
        <ele>117.2</ele>
        <time>2021-07-04 16:54:53</time>
      </trkpt>
      <trkpt lat="28.53058" lon="-14.02905">
        <ele>117.4</ele>
        <time>2021-07-04 16:54:54</time>
      </trkpt>
      <trkpt lat="28.53058" lon="-14.029">
        <ele>117.8</ele>
        <time>2021-07-04 16:54:55</time>
      </trkpt>
      <trkpt lat="28.53058" lon="-14.02896">
        <ele>118</ele>
        <time>2021-07-04 16:54:56</time>
      </trkpt>
      <trkpt lat="28.53058" lon="-14.02891">
        <ele>118</ele>
        <time>2021-07-04 16:54:57</time>
      </trkpt>
      <trkpt lat="28.53058" lon="-14.02887">
        <ele>118.4</ele>
        <time>2021-07-04 16:54:58</time>
      </trkpt>
      <trkpt lat="28.53058" lon="-14.02883">
        <ele>118.6</ele>
        <time>2021-07-04 16:54:59</time>
      </trkpt>
      <trkpt lat="28.53059" lon="-14.02878">
        <ele>118.8</ele>
        <time>2021-07-04 16:55:00</time>
      </trkpt>
      <trkpt lat="28.53059" lon="-14.02874">
        <ele>119.2</ele>
        <time>2021-07-04 16:55:01</time>
      </trkpt>
      <trkpt lat="28.5306" lon="-14.02869">
        <ele>119.4</ele>
        <time>2021-07-04 16:55:02</time>
      </trkpt>
      <trkpt lat="28.5306" lon="-14.02865">
        <ele>119.6</ele>
        <time>2021-07-04 16:55:03</time>
      </trkpt>
      <trkpt lat="28.53061" lon="-14.02861">
        <ele>119.6</ele>
        <time>2021-07-04 16:55:04</time>
      </trkpt>
      <trkpt lat="28.53062" lon="-14.02857">
        <ele>120</ele>
        <time>2021-07-04 16:55:05</time>
      </trkpt>
      <trkpt lat="28.53062" lon="-14.02853">
        <ele>120</ele>
        <time>2021-07-04 16:55:06</time>
      </trkpt>
      <trkpt lat="28.53063" lon="-14.02849">
        <ele>120</ele>
        <time>2021-07-04 16:55:07</time>
      </trkpt>
      <trkpt lat="28.53064" lon="-14.02844">
        <ele>120</ele>
        <time>2021-07-04 16:55:08</time>
      </trkpt>
      <trkpt lat="28.53065" lon="-14.0284">
        <ele>120.2</ele>
        <time>2021-07-04 16:55:09</time>
      </trkpt>
      <trkpt lat="28.53066" lon="-14.02836">
        <ele>120.2</ele>
        <time>2021-07-04 16:55:10</time>
      </trkpt>
      <trkpt lat="28.53067" lon="-14.02832">
        <ele>120.2</ele>
        <time>2021-07-04 16:55:11</time>
      </trkpt>
      <trkpt lat="28.53068" lon="-14.02828">
        <ele>120.4</ele>
        <time>2021-07-04 16:55:12</time>
      </trkpt>
      <trkpt lat="28.53069" lon="-14.02823">
        <ele>120.4</ele>
        <time>2021-07-04 16:55:13</time>
      </trkpt>
      <trkpt lat="28.5307" lon="-14.02819">
        <ele>120.4</ele>
        <time>2021-07-04 16:55:14</time>
      </trkpt>
      <trkpt lat="28.53071" lon="-14.02815">
        <ele>120.6</ele>
        <time>2021-07-04 16:55:15</time>
      </trkpt>
      <trkpt lat="28.53072" lon="-14.02812">
        <ele>120.6</ele>
        <time>2021-07-04 16:55:16</time>
      </trkpt>
      <trkpt lat="28.53073" lon="-14.02808">
        <ele>120.6</ele>
        <time>2021-07-04 16:55:17</time>
      </trkpt>
      <trkpt lat="28.53074" lon="-14.02804">
        <ele>121</ele>
        <time>2021-07-04 16:55:18</time>
      </trkpt>
      <trkpt lat="28.53076" lon="-14.028">
        <ele>121</ele>
        <time>2021-07-04 16:55:19</time>
      </trkpt>
      <trkpt lat="28.53077" lon="-14.02796">
        <ele>121.2</ele>
        <time>2021-07-04 16:55:20</time>
      </trkpt>
      <trkpt lat="28.53079" lon="-14.02793">
        <ele>121.2</ele>
        <time>2021-07-04 16:55:21</time>
      </trkpt>
      <trkpt lat="28.5308" lon="-14.02789">
        <ele>121.4</ele>
        <time>2021-07-04 16:55:22</time>
      </trkpt>
      <trkpt lat="28.53081" lon="-14.02785">
        <ele>121.4</ele>
        <time>2021-07-04 16:55:23</time>
      </trkpt>
      <trkpt lat="28.53083" lon="-14.02781">
        <ele>121.6</ele>
        <time>2021-07-04 16:55:24</time>
      </trkpt>
      <trkpt lat="28.53084" lon="-14.02777">
        <ele>121.6</ele>
        <time>2021-07-04 16:55:25</time>
      </trkpt>
      <trkpt lat="28.53086" lon="-14.02773">
        <ele>121.6</ele>
        <time>2021-07-04 16:55:26</time>
      </trkpt>
      <trkpt lat="28.53087" lon="-14.02769">
        <ele>121.6</ele>
        <time>2021-07-04 16:55:27</time>
      </trkpt>
      <trkpt lat="28.53088" lon="-14.02765">
        <ele>122</ele>
        <time>2021-07-04 16:55:28</time>
      </trkpt>
      <trkpt lat="28.5309" lon="-14.02761">
        <ele>122</ele>
        <time>2021-07-04 16:55:29</time>
      </trkpt>
      <trkpt lat="28.53091" lon="-14.02757">
        <ele>122.2</ele>
        <time>2021-07-04 16:55:30</time>
      </trkpt>
      <trkpt lat="28.53093" lon="-14.02753">
        <ele>122.2</ele>
        <time>2021-07-04 16:55:31</time>
      </trkpt>
      <trkpt lat="28.53094" lon="-14.02749">
        <ele>122.2</ele>
        <time>2021-07-04 16:55:32</time>
      </trkpt>
      <trkpt lat="28.53095" lon="-14.02745">
        <ele>122.2</ele>
        <time>2021-07-04 16:55:33</time>
      </trkpt>
      <trkpt lat="28.53096" lon="-14.02741">
        <ele>122.2</ele>
        <time>2021-07-04 16:55:34</time>
      </trkpt>
      <trkpt lat="28.53098" lon="-14.02738">
        <ele>122.2</ele>
        <time>2021-07-04 16:55:35</time>
      </trkpt>
      <trkpt lat="28.53099" lon="-14.02734">
        <ele>122.6</ele>
        <time>2021-07-04 16:55:36</time>
      </trkpt>
      <trkpt lat="28.53101" lon="-14.0273">
        <ele>122.6</ele>
        <time>2021-07-04 16:55:37</time>
      </trkpt>
      <trkpt lat="28.53102" lon="-14.02726">
        <ele>122.8</ele>
        <time>2021-07-04 16:55:38</time>
      </trkpt>
      <trkpt lat="28.53103" lon="-14.02722">
        <ele>122.8</ele>
        <time>2021-07-04 16:55:39</time>
      </trkpt>
      <trkpt lat="28.53105" lon="-14.02718">
        <ele>123</ele>
        <time>2021-07-04 16:55:40</time>
      </trkpt>
      <trkpt lat="28.53106" lon="-14.02714">
        <ele>123</ele>
        <time>2021-07-04 16:55:41</time>
      </trkpt>
      <trkpt lat="28.53108" lon="-14.0271">
        <ele>123</ele>
        <time>2021-07-04 16:55:42</time>
      </trkpt>
      <trkpt lat="28.5311" lon="-14.02706">
        <ele>123.4</ele>
        <time>2021-07-04 16:55:43</time>
      </trkpt>
      <trkpt lat="28.53111" lon="-14.02702">
        <ele>123.4</ele>
        <time>2021-07-04 16:55:44</time>
      </trkpt>
      <trkpt lat="28.53112" lon="-14.02698">
        <ele>123.8</ele>
        <time>2021-07-04 16:55:45</time>
      </trkpt>
      <trkpt lat="28.53114" lon="-14.02694">
        <ele>123.8</ele>
        <time>2021-07-04 16:55:46</time>
      </trkpt>
      <trkpt lat="28.53115" lon="-14.0269">
        <ele>124</ele>
        <time>2021-07-04 16:55:47</time>
      </trkpt>
      <trkpt lat="28.53117" lon="-14.02686">
        <ele>124</ele>
        <time>2021-07-04 16:55:48</time>
      </trkpt>
      <trkpt lat="28.53118" lon="-14.02682">
        <ele>124</ele>
        <time>2021-07-04 16:55:49</time>
      </trkpt>
      <trkpt lat="28.5312" lon="-14.02678">
        <ele>124</ele>
        <time>2021-07-04 16:55:50</time>
      </trkpt>
      <trkpt lat="28.53121" lon="-14.02674">
        <ele>124</ele>
        <time>2021-07-04 16:55:51</time>
      </trkpt>
      <trkpt lat="28.53123" lon="-14.02671">
        <ele>124</ele>
        <time>2021-07-04 16:55:52</time>
      </trkpt>
      <trkpt lat="28.53124" lon="-14.02667">
        <ele>124.2</ele>
        <time>2021-07-04 16:55:53</time>
      </trkpt>
      <trkpt lat="28.53125" lon="-14.02663">
        <ele>124.2</ele>
        <time>2021-07-04 16:55:54</time>
      </trkpt>
      <trkpt lat="28.53127" lon="-14.02659">
        <ele>124.2</ele>
        <time>2021-07-04 16:55:55</time>
      </trkpt>
      <trkpt lat="28.53128" lon="-14.02655">
        <ele>124.2</ele>
        <time>2021-07-04 16:55:56</time>
      </trkpt>
      <trkpt lat="28.53129" lon="-14.02651">
        <ele>124.2</ele>
        <time>2021-07-04 16:55:57</time>
      </trkpt>
      <trkpt lat="28.53131" lon="-14.02647">
        <ele>124.2</ele>
        <time>2021-07-04 16:55:58</time>
      </trkpt>
      <trkpt lat="28.53132" lon="-14.02644">
        <ele>124.2</ele>
        <time>2021-07-04 16:55:59</time>
      </trkpt>
      <trkpt lat="28.53133" lon="-14.0264">
        <ele>124.2</ele>
        <time>2021-07-04 16:56:00</time>
      </trkpt>
      <trkpt lat="28.53135" lon="-14.02636">
        <ele>124.4</ele>
        <time>2021-07-04 16:56:01</time>
      </trkpt>
      <trkpt lat="28.53136" lon="-14.02632">
        <ele>124.4</ele>
        <time>2021-07-04 16:56:02</time>
      </trkpt>
      <trkpt lat="28.53138" lon="-14.02629">
        <ele>124.4</ele>
        <time>2021-07-04 16:56:03</time>
      </trkpt>
      <trkpt lat="28.53139" lon="-14.02625">
        <ele>124.4</ele>
        <time>2021-07-04 16:56:04</time>
      </trkpt>
      <trkpt lat="28.53141" lon="-14.02621">
        <ele>124.4</ele>
        <time>2021-07-04 16:56:05</time>
      </trkpt>
      <trkpt lat="28.53142" lon="-14.02618">
        <ele>124.8</ele>
        <time>2021-07-04 16:56:06</time>
      </trkpt>
      <trkpt lat="28.53144" lon="-14.02614">
        <ele>124.8</ele>
        <time>2021-07-04 16:56:07</time>
      </trkpt>
      <trkpt lat="28.53145" lon="-14.0261">
        <ele>124.8</ele>
        <time>2021-07-04 16:56:08</time>
      </trkpt>
      <trkpt lat="28.53146" lon="-14.02606">
        <ele>124.8</ele>
        <time>2021-07-04 16:56:09</time>
      </trkpt>
      <trkpt lat="28.53148" lon="-14.02603">
        <ele>124.8</ele>
        <time>2021-07-04 16:56:10</time>
      </trkpt>
      <trkpt lat="28.53149" lon="-14.02599">
        <ele>125</ele>
        <time>2021-07-04 16:56:11</time>
      </trkpt>
      <trkpt lat="28.5315" lon="-14.02595">
        <ele>125</ele>
        <time>2021-07-04 16:56:12</time>
      </trkpt>
      <trkpt lat="28.53152" lon="-14.02591">
        <ele>125</ele>
        <time>2021-07-04 16:56:13</time>
      </trkpt>
      <trkpt lat="28.53153" lon="-14.02587">
        <ele>125</ele>
        <time>2021-07-04 16:56:14</time>
      </trkpt>
      <trkpt lat="28.53155" lon="-14.02584">
        <ele>125</ele>
        <time>2021-07-04 16:56:15</time>
      </trkpt>
      <trkpt lat="28.53156" lon="-14.0258">
        <ele>125.4</ele>
        <time>2021-07-04 16:56:16</time>
      </trkpt>
      <trkpt lat="28.53158" lon="-14.02576">
        <ele>125.4</ele>
        <time>2021-07-04 16:56:17</time>
      </trkpt>
      <trkpt lat="28.53159" lon="-14.02572">
        <ele>125.6</ele>
        <time>2021-07-04 16:56:18</time>
      </trkpt>
      <trkpt lat="28.5316" lon="-14.02568">
        <ele>125.6</ele>
        <time>2021-07-04 16:56:19</time>
      </trkpt>
      <trkpt lat="28.53162" lon="-14.02564">
        <ele>125.6</ele>
        <time>2021-07-04 16:56:20</time>
      </trkpt>
      <trkpt lat="28.53163" lon="-14.0256">
        <ele>126</ele>
        <time>2021-07-04 16:56:21</time>
      </trkpt>
      <trkpt lat="28.53165" lon="-14.02556">
        <ele>126</ele>
        <time>2021-07-04 16:56:22</time>
      </trkpt>
      <trkpt lat="28.53166" lon="-14.02552">
        <ele>126.2</ele>
        <time>2021-07-04 16:56:23</time>
      </trkpt>
      <trkpt lat="28.53168" lon="-14.02548">
        <ele>126.2</ele>
        <time>2021-07-04 16:56:24</time>
      </trkpt>
      <trkpt lat="28.53169" lon="-14.02544">
        <ele>126.2</ele>
        <time>2021-07-04 16:56:25</time>
      </trkpt>
      <trkpt lat="28.53171" lon="-14.0254">
        <ele>126.4</ele>
        <time>2021-07-04 16:56:26</time>
      </trkpt>
      <trkpt lat="28.53173" lon="-14.02536">
        <ele>126.4</ele>
        <time>2021-07-04 16:56:27</time>
      </trkpt>
      <trkpt lat="28.53174" lon="-14.02533">
        <ele>126.4</ele>
        <time>2021-07-04 16:56:28</time>
      </trkpt>
      <trkpt lat="28.53176" lon="-14.02529">
        <ele>126.6</ele>
        <time>2021-07-04 16:56:29</time>
      </trkpt>
      <trkpt lat="28.53177" lon="-14.02525">
        <ele>126.6</ele>
        <time>2021-07-04 16:56:30</time>
      </trkpt>
      <trkpt lat="28.53179" lon="-14.02521">
        <ele>127</ele>
        <time>2021-07-04 16:56:31</time>
      </trkpt>
      <trkpt lat="28.5318" lon="-14.02517">
        <ele>127.2</ele>
        <time>2021-07-04 16:56:32</time>
      </trkpt>
      <trkpt lat="28.53181" lon="-14.02514">
        <ele>127.2</ele>
        <time>2021-07-04 16:56:33</time>
      </trkpt>
      <trkpt lat="28.53182" lon="-14.0251">
        <ele>127.6</ele>
        <time>2021-07-04 16:56:34</time>
      </trkpt>
      <trkpt lat="28.53184" lon="-14.02506">
        <ele>128</ele>
        <time>2021-07-04 16:56:35</time>
      </trkpt>
      <trkpt lat="28.53185" lon="-14.02502">
        <ele>128.2</ele>
        <time>2021-07-04 16:56:36</time>
      </trkpt>
      <trkpt lat="28.53187" lon="-14.02498">
        <ele>128.4</ele>
        <time>2021-07-04 16:56:37</time>
      </trkpt>
      <trkpt lat="28.53188" lon="-14.02495">
        <ele>128.8</ele>
        <time>2021-07-04 16:56:38</time>
      </trkpt>
      <trkpt lat="28.5319" lon="-14.02491">
        <ele>129.2</ele>
        <time>2021-07-04 16:56:39</time>
      </trkpt>
      <trkpt lat="28.53192" lon="-14.02487">
        <ele>129.2</ele>
        <time>2021-07-04 16:56:40</time>
      </trkpt>
      <trkpt lat="28.53193" lon="-14.02483">
        <ele>129.4</ele>
        <time>2021-07-04 16:56:41</time>
      </trkpt>
      <trkpt lat="28.53195" lon="-14.02479">
        <ele>129.4</ele>
        <time>2021-07-04 16:56:42</time>
      </trkpt>
      <trkpt lat="28.53197" lon="-14.02475">
        <ele>129.4</ele>
        <time>2021-07-04 16:56:43</time>
      </trkpt>
      <trkpt lat="28.53199" lon="-14.02471">
        <ele>129.4</ele>
        <time>2021-07-04 16:56:44</time>
      </trkpt>
      <trkpt lat="28.532" lon="-14.02467">
        <ele>129.4</ele>
        <time>2021-07-04 16:56:45</time>
      </trkpt>
      <trkpt lat="28.53202" lon="-14.02463">
        <ele>129.4</ele>
        <time>2021-07-04 16:56:46</time>
      </trkpt>
      <trkpt lat="28.53203" lon="-14.02459">
        <ele>129.4</ele>
        <time>2021-07-04 16:56:47</time>
      </trkpt>
      <trkpt lat="28.53204" lon="-14.02455">
        <ele>129.4</ele>
        <time>2021-07-04 16:56:48</time>
      </trkpt>
      <trkpt lat="28.53206" lon="-14.02451">
        <ele>129.4</ele>
        <time>2021-07-04 16:56:49</time>
      </trkpt>
      <trkpt lat="28.53207" lon="-14.02447">
        <ele>129.4</ele>
        <time>2021-07-04 16:56:50</time>
      </trkpt>
      <trkpt lat="28.53209" lon="-14.02443">
        <ele>129.4</ele>
        <time>2021-07-04 16:56:51</time>
      </trkpt>
      <trkpt lat="28.5321" lon="-14.02439">
        <ele>129.4</ele>
        <time>2021-07-04 16:56:52</time>
      </trkpt>
      <trkpt lat="28.53211" lon="-14.02435">
        <ele>129.4</ele>
        <time>2021-07-04 16:56:53</time>
      </trkpt>
      <trkpt lat="28.53213" lon="-14.02431">
        <ele>129.4</ele>
        <time>2021-07-04 16:56:54</time>
      </trkpt>
      <trkpt lat="28.53214" lon="-14.02427">
        <ele>129.4</ele>
        <time>2021-07-04 16:56:55</time>
      </trkpt>
      <trkpt lat="28.53216" lon="-14.02423">
        <ele>129.8</ele>
        <time>2021-07-04 16:56:56</time>
      </trkpt>
      <trkpt lat="28.53217" lon="-14.02419">
        <ele>130.2</ele>
        <time>2021-07-04 16:56:57</time>
      </trkpt>
      <trkpt lat="28.53218" lon="-14.02415">
        <ele>130.2</ele>
        <time>2021-07-04 16:56:58</time>
      </trkpt>
      <trkpt lat="28.5322" lon="-14.02411">
        <ele>130.4</ele>
        <time>2021-07-04 16:56:59</time>
      </trkpt>
      <trkpt lat="28.53221" lon="-14.02407">
        <ele>130.6</ele>
        <time>2021-07-04 16:57:00</time>
      </trkpt>
      <trkpt lat="28.53222" lon="-14.02403">
        <ele>130.6</ele>
        <time>2021-07-04 16:57:01</time>
      </trkpt>
      <trkpt lat="28.53224" lon="-14.02399">
        <ele>131</ele>
        <time>2021-07-04 16:57:02</time>
      </trkpt>
      <trkpt lat="28.53225" lon="-14.02395">
        <ele>131</ele>
        <time>2021-07-04 16:57:03</time>
      </trkpt>
      <trkpt lat="28.53226" lon="-14.02391">
        <ele>131.2</ele>
        <time>2021-07-04 16:57:04</time>
      </trkpt>
      <trkpt lat="28.53228" lon="-14.02388">
        <ele>131.2</ele>
        <time>2021-07-04 16:57:05</time>
      </trkpt>
      <trkpt lat="28.53229" lon="-14.02384">
        <ele>131.2</ele>
        <time>2021-07-04 16:57:06</time>
      </trkpt>
      <trkpt lat="28.53231" lon="-14.0238">
        <ele>131.6</ele>
        <time>2021-07-04 16:57:07</time>
      </trkpt>
      <trkpt lat="28.53232" lon="-14.02376">
        <ele>131.6</ele>
        <time>2021-07-04 16:57:08</time>
      </trkpt>
      <trkpt lat="28.53234" lon="-14.02373">
        <ele>132</ele>
        <time>2021-07-04 16:57:09</time>
      </trkpt>
      <trkpt lat="28.53235" lon="-14.02369">
        <ele>132.2</ele>
        <time>2021-07-04 16:57:10</time>
      </trkpt>
      <trkpt lat="28.53236" lon="-14.02365">
        <ele>132.2</ele>
        <time>2021-07-04 16:57:11</time>
      </trkpt>
      <trkpt lat="28.53238" lon="-14.02361">
        <ele>132.4</ele>
        <time>2021-07-04 16:57:12</time>
      </trkpt>
      <trkpt lat="28.53239" lon="-14.02357">
        <ele>132.4</ele>
        <time>2021-07-04 16:57:13</time>
      </trkpt>
      <trkpt lat="28.53241" lon="-14.02353">
        <ele>132.6</ele>
        <time>2021-07-04 16:57:14</time>
      </trkpt>
      <trkpt lat="28.53242" lon="-14.02349">
        <ele>132.6</ele>
        <time>2021-07-04 16:57:15</time>
      </trkpt>
      <trkpt lat="28.53243" lon="-14.02345">
        <ele>132.6</ele>
        <time>2021-07-04 16:57:16</time>
      </trkpt>
      <trkpt lat="28.53245" lon="-14.02341">
        <ele>132.6</ele>
        <time>2021-07-04 16:57:17</time>
      </trkpt>
      <trkpt lat="28.53246" lon="-14.02338">
        <ele>132.4</ele>
        <time>2021-07-04 16:57:18</time>
      </trkpt>
      <trkpt lat="28.53247" lon="-14.02334">
        <ele>132</ele>
        <time>2021-07-04 16:57:19</time>
      </trkpt>
      <trkpt lat="28.53249" lon="-14.0233">
        <ele>132</ele>
        <time>2021-07-04 16:57:20</time>
      </trkpt>
      <trkpt lat="28.5325" lon="-14.02327">
        <ele>131.8</ele>
        <time>2021-07-04 16:57:21</time>
      </trkpt>
      <trkpt lat="28.53251" lon="-14.02323">
        <ele>131.8</ele>
        <time>2021-07-04 16:57:22</time>
      </trkpt>
      <trkpt lat="28.53253" lon="-14.0232">
        <ele>131.8</ele>
        <time>2021-07-04 16:57:23</time>
      </trkpt>
      <trkpt lat="28.53254" lon="-14.02316">
        <ele>131.8</ele>
        <time>2021-07-04 16:57:24</time>
      </trkpt>
      <trkpt lat="28.53256" lon="-14.02313">
        <ele>132</ele>
        <time>2021-07-04 16:57:25</time>
      </trkpt>
      <trkpt lat="28.53257" lon="-14.02309">
        <ele>132.4</ele>
        <time>2021-07-04 16:57:26</time>
      </trkpt>
      <trkpt lat="28.53258" lon="-14.02306">
        <ele>132.4</ele>
        <time>2021-07-04 16:57:27</time>
      </trkpt>
      <trkpt lat="28.5326" lon="-14.02302">
        <ele>132.8</ele>
        <time>2021-07-04 16:57:28</time>
      </trkpt>
      <trkpt lat="28.53261" lon="-14.02298">
        <ele>133</ele>
        <time>2021-07-04 16:57:29</time>
      </trkpt>
      <trkpt lat="28.53263" lon="-14.02294">
        <ele>133</ele>
        <time>2021-07-04 16:57:30</time>
      </trkpt>
      <trkpt lat="28.53264" lon="-14.0229">
        <ele>133.6</ele>
        <time>2021-07-04 16:57:31</time>
      </trkpt>
      <trkpt lat="28.53265" lon="-14.02286">
        <ele>133.8</ele>
        <time>2021-07-04 16:57:32</time>
      </trkpt>
      <trkpt lat="28.53267" lon="-14.02282">
        <ele>133.8</ele>
        <time>2021-07-04 16:57:33</time>
      </trkpt>
      <trkpt lat="28.53268" lon="-14.02278">
        <ele>134</ele>
        <time>2021-07-04 16:57:34</time>
      </trkpt>
      <trkpt lat="28.53269" lon="-14.02274">
        <ele>134</ele>
        <time>2021-07-04 16:57:35</time>
      </trkpt>
      <trkpt lat="28.53271" lon="-14.0227">
        <ele>134</ele>
        <time>2021-07-04 16:57:36</time>
      </trkpt>
      <trkpt lat="28.53272" lon="-14.02266">
        <ele>134</ele>
        <time>2021-07-04 16:57:37</time>
      </trkpt>
      <trkpt lat="28.53274" lon="-14.02262">
        <ele>133.8</ele>
        <time>2021-07-04 16:57:38</time>
      </trkpt>
      <trkpt lat="28.53276" lon="-14.02259">
        <ele>133.8</ele>
        <time>2021-07-04 16:57:39</time>
      </trkpt>
      <trkpt lat="28.53277" lon="-14.02255">
        <ele>133.6</ele>
        <time>2021-07-04 16:57:40</time>
      </trkpt>
      <trkpt lat="28.53279" lon="-14.02251">
        <ele>133.6</ele>
        <time>2021-07-04 16:57:41</time>
      </trkpt>
      <trkpt lat="28.5328" lon="-14.02247">
        <ele>133.6</ele>
        <time>2021-07-04 16:57:42</time>
      </trkpt>
      <trkpt lat="28.53281" lon="-14.02243">
        <ele>133.6</ele>
        <time>2021-07-04 16:57:43</time>
      </trkpt>
      <trkpt lat="28.53283" lon="-14.02239">
        <ele>133.6</ele>
        <time>2021-07-04 16:57:44</time>
      </trkpt>
      <trkpt lat="28.53284" lon="-14.02235">
        <ele>133.6</ele>
        <time>2021-07-04 16:57:45</time>
      </trkpt>
      <trkpt lat="28.53285" lon="-14.02231">
        <ele>133.6</ele>
        <time>2021-07-04 16:57:46</time>
      </trkpt>
      <trkpt lat="28.53287" lon="-14.02228">
        <ele>133.6</ele>
        <time>2021-07-04 16:57:47</time>
      </trkpt>
      <trkpt lat="28.53288" lon="-14.02224">
        <ele>133.8</ele>
        <time>2021-07-04 16:57:48</time>
      </trkpt>
      <trkpt lat="28.5329" lon="-14.0222">
        <ele>133.8</ele>
        <time>2021-07-04 16:57:49</time>
      </trkpt>
      <trkpt lat="28.53291" lon="-14.02217">
        <ele>134.2</ele>
        <time>2021-07-04 16:57:50</time>
      </trkpt>
      <trkpt lat="28.53293" lon="-14.02213">
        <ele>134.6</ele>
        <time>2021-07-04 16:57:51</time>
      </trkpt>
      <trkpt lat="28.53294" lon="-14.0221">
        <ele>134.8</ele>
        <time>2021-07-04 16:57:52</time>
      </trkpt>
      <trkpt lat="28.53295" lon="-14.02206">
        <ele>134.8</ele>
        <time>2021-07-04 16:57:53</time>
      </trkpt>
      <trkpt lat="28.53296" lon="-14.02202">
        <ele>135.2</ele>
        <time>2021-07-04 16:57:54</time>
      </trkpt>
      <trkpt lat="28.53297" lon="-14.02199">
        <ele>135.2</ele>
        <time>2021-07-04 16:57:55</time>
      </trkpt>
      <trkpt lat="28.53299" lon="-14.02195">
        <ele>135.2</ele>
        <time>2021-07-04 16:57:56</time>
      </trkpt>
      <trkpt lat="28.533" lon="-14.02191">
        <ele>135.2</ele>
        <time>2021-07-04 16:57:57</time>
      </trkpt>
      <trkpt lat="28.53301" lon="-14.02187">
        <ele>135</ele>
        <time>2021-07-04 16:57:58</time>
      </trkpt>
      <trkpt lat="28.53303" lon="-14.02184">
        <ele>135</ele>
        <time>2021-07-04 16:57:59</time>
      </trkpt>
      <trkpt lat="28.53304" lon="-14.0218">
        <ele>135</ele>
        <time>2021-07-04 16:58:00</time>
      </trkpt>
      <trkpt lat="28.53306" lon="-14.02177">
        <ele>135</ele>
        <time>2021-07-04 16:58:01</time>
      </trkpt>
      <trkpt lat="28.53307" lon="-14.02173">
        <ele>135</ele>
        <time>2021-07-04 16:58:02</time>
      </trkpt>
      <trkpt lat="28.53309" lon="-14.02169">
        <ele>135.2</ele>
        <time>2021-07-04 16:58:03</time>
      </trkpt>
      <trkpt lat="28.5331" lon="-14.02165">
        <ele>135.2</ele>
        <time>2021-07-04 16:58:04</time>
      </trkpt>
      <trkpt lat="28.53312" lon="-14.02162">
        <ele>135.2</ele>
        <time>2021-07-04 16:58:05</time>
      </trkpt>
      <trkpt lat="28.53313" lon="-14.02158">
        <ele>135</ele>
        <time>2021-07-04 16:58:06</time>
      </trkpt>
      <trkpt lat="28.53315" lon="-14.02154">
        <ele>135</ele>
        <time>2021-07-04 16:58:07</time>
      </trkpt>
      <trkpt lat="28.53316" lon="-14.0215">
        <ele>134.8</ele>
        <time>2021-07-04 16:58:08</time>
      </trkpt>
      <trkpt lat="28.53317" lon="-14.02147">
        <ele>134.8</ele>
        <time>2021-07-04 16:58:09</time>
      </trkpt>
      <trkpt lat="28.53318" lon="-14.02143">
        <ele>134.8</ele>
        <time>2021-07-04 16:58:10</time>
      </trkpt>
      <trkpt lat="28.5332" lon="-14.02139">
        <ele>134.8</ele>
        <time>2021-07-04 16:58:11</time>
      </trkpt>
      <trkpt lat="28.53321" lon="-14.02136">
        <ele>134.8</ele>
        <time>2021-07-04 16:58:12</time>
      </trkpt>
      <trkpt lat="28.53323" lon="-14.02132">
        <ele>134.8</ele>
        <time>2021-07-04 16:58:13</time>
      </trkpt>
      <trkpt lat="28.53324" lon="-14.02128">
        <ele>134.8</ele>
        <time>2021-07-04 16:58:14</time>
      </trkpt>
      <trkpt lat="28.53325" lon="-14.02124">
        <ele>134.8</ele>
        <time>2021-07-04 16:58:15</time>
      </trkpt>
      <trkpt lat="28.53326" lon="-14.02121">
        <ele>134.8</ele>
        <time>2021-07-04 16:58:16</time>
      </trkpt>
      <trkpt lat="28.53327" lon="-14.02117">
        <ele>134.8</ele>
        <time>2021-07-04 16:58:17</time>
      </trkpt>
      <trkpt lat="28.53328" lon="-14.02113">
        <ele>134.8</ele>
        <time>2021-07-04 16:58:18</time>
      </trkpt>
      <trkpt lat="28.5333" lon="-14.02109">
        <ele>134.8</ele>
        <time>2021-07-04 16:58:19</time>
      </trkpt>
      <trkpt lat="28.53331" lon="-14.02105">
        <ele>134.8</ele>
        <time>2021-07-04 16:58:20</time>
      </trkpt>
      <trkpt lat="28.53332" lon="-14.02102">
        <ele>134.8</ele>
        <time>2021-07-04 16:58:21</time>
      </trkpt>
      <trkpt lat="28.53333" lon="-14.02098">
        <ele>134.8</ele>
        <time>2021-07-04 16:58:22</time>
      </trkpt>
      <trkpt lat="28.53334" lon="-14.02094">
        <ele>134.8</ele>
        <time>2021-07-04 16:58:23</time>
      </trkpt>
      <trkpt lat="28.53335" lon="-14.0209">
        <ele>135.2</ele>
        <time>2021-07-04 16:58:24</time>
      </trkpt>
      <trkpt lat="28.53336" lon="-14.02087">
        <ele>135.2</ele>
        <time>2021-07-04 16:58:25</time>
      </trkpt>
      <trkpt lat="28.53336" lon="-14.02083">
        <ele>135.4</ele>
        <time>2021-07-04 16:58:26</time>
      </trkpt>
      <trkpt lat="28.53337" lon="-14.02079">
        <ele>135.4</ele>
        <time>2021-07-04 16:58:27</time>
      </trkpt>
      <trkpt lat="28.53337" lon="-14.02075">
        <ele>135.4</ele>
        <time>2021-07-04 16:58:28</time>
      </trkpt>
      <trkpt lat="28.53338" lon="-14.02071">
        <ele>135.4</ele>
        <time>2021-07-04 16:58:29</time>
      </trkpt>
      <trkpt lat="28.53338" lon="-14.02067">
        <ele>135.4</ele>
        <time>2021-07-04 16:58:30</time>
      </trkpt>
      <trkpt lat="28.53338" lon="-14.02062">
        <ele>135.4</ele>
        <time>2021-07-04 16:58:31</time>
      </trkpt>
      <trkpt lat="28.53339" lon="-14.02058">
        <ele>135.4</ele>
        <time>2021-07-04 16:58:32</time>
      </trkpt>
      <trkpt lat="28.53339" lon="-14.02054">
        <ele>135.6</ele>
        <time>2021-07-04 16:58:33</time>
      </trkpt>
      <trkpt lat="28.53339" lon="-14.0205">
        <ele>135.6</ele>
        <time>2021-07-04 16:58:34</time>
      </trkpt>
      <trkpt lat="28.53339" lon="-14.02046">
        <ele>135.6</ele>
        <time>2021-07-04 16:58:35</time>
      </trkpt>
      <trkpt lat="28.53339" lon="-14.02042">
        <ele>135.8</ele>
        <time>2021-07-04 16:58:36</time>
      </trkpt>
      <trkpt lat="28.53339" lon="-14.02038">
        <ele>135.8</ele>
        <time>2021-07-04 16:58:37</time>
      </trkpt>
      <trkpt lat="28.53338" lon="-14.02034">
        <ele>136</ele>
        <time>2021-07-04 16:58:38</time>
      </trkpt>
      <trkpt lat="28.53338" lon="-14.02029">
        <ele>136</ele>
        <time>2021-07-04 16:58:39</time>
      </trkpt>
      <trkpt lat="28.53338" lon="-14.02025">
        <ele>136</ele>
        <time>2021-07-04 16:58:40</time>
      </trkpt>
      <trkpt lat="28.53338" lon="-14.02021">
        <ele>136.4</ele>
        <time>2021-07-04 16:58:41</time>
      </trkpt>
      <trkpt lat="28.53338" lon="-14.02016">
        <ele>136.4</ele>
        <time>2021-07-04 16:58:42</time>
      </trkpt>
      <trkpt lat="28.53338" lon="-14.02012">
        <ele>136.6</ele>
        <time>2021-07-04 16:58:43</time>
      </trkpt>
      <trkpt lat="28.53337" lon="-14.02008">
        <ele>136.6</ele>
        <time>2021-07-04 16:58:44</time>
      </trkpt>
      <trkpt lat="28.53337" lon="-14.02004">
        <ele>136.6</ele>
        <time>2021-07-04 16:58:45</time>
      </trkpt>
      <trkpt lat="28.53336" lon="-14.01999">
        <ele>136.8</ele>
        <time>2021-07-04 16:58:46</time>
      </trkpt>
      <trkpt lat="28.53335" lon="-14.01995">
        <ele>136.8</ele>
        <time>2021-07-04 16:58:47</time>
      </trkpt>
      <trkpt lat="28.53335" lon="-14.01991">
        <ele>136.8</ele>
        <time>2021-07-04 16:58:48</time>
      </trkpt>
      <trkpt lat="28.53334" lon="-14.01987">
        <ele>137.2</ele>
        <time>2021-07-04 16:58:49</time>
      </trkpt>
      <trkpt lat="28.53333" lon="-14.01983">
        <ele>137.2</ele>
        <time>2021-07-04 16:58:50</time>
      </trkpt>
      <trkpt lat="28.53332" lon="-14.01979">
        <ele>137.2</ele>
        <time>2021-07-04 16:58:51</time>
      </trkpt>
      <trkpt lat="28.53331" lon="-14.01974">
        <ele>137.4</ele>
        <time>2021-07-04 16:58:52</time>
      </trkpt>
      <trkpt lat="28.5333" lon="-14.0197">
        <ele>137.4</ele>
        <time>2021-07-04 16:58:53</time>
      </trkpt>
      <trkpt lat="28.53329" lon="-14.01966">
        <ele>137.6</ele>
        <time>2021-07-04 16:58:54</time>
      </trkpt>
      <trkpt lat="28.53327" lon="-14.01961">
        <ele>137.6</ele>
        <time>2021-07-04 16:58:55</time>
      </trkpt>
      <trkpt lat="28.53325" lon="-14.01957">
        <ele>137.8</ele>
        <time>2021-07-04 16:58:56</time>
      </trkpt>
      <trkpt lat="28.53324" lon="-14.01953">
        <ele>137.8</ele>
        <time>2021-07-04 16:58:57</time>
      </trkpt>
      <trkpt lat="28.53323" lon="-14.01948">
        <ele>137.8</ele>
        <time>2021-07-04 16:58:58</time>
      </trkpt>
      <trkpt lat="28.53321" lon="-14.01944">
        <ele>138.2</ele>
        <time>2021-07-04 16:58:59</time>
      </trkpt>
      <trkpt lat="28.53319" lon="-14.01939">
        <ele>138.2</ele>
        <time>2021-07-04 16:59:00</time>
      </trkpt>
      <trkpt lat="28.53317" lon="-14.01935">
        <ele>138.2</ele>
        <time>2021-07-04 16:59:01</time>
      </trkpt>
      <trkpt lat="28.53315" lon="-14.0193">
        <ele>138.2</ele>
        <time>2021-07-04 16:59:02</time>
      </trkpt>
      <trkpt lat="28.53313" lon="-14.01925">
        <ele>138.4</ele>
        <time>2021-07-04 16:59:03</time>
      </trkpt>
      <trkpt lat="28.53311" lon="-14.01921">
        <ele>138.4</ele>
        <time>2021-07-04 16:59:04</time>
      </trkpt>
      <trkpt lat="28.53309" lon="-14.01916">
        <ele>138.4</ele>
        <time>2021-07-04 16:59:05</time>
      </trkpt>
      <trkpt lat="28.53306" lon="-14.01912">
        <ele>138.4</ele>
        <time>2021-07-04 16:59:06</time>
      </trkpt>
      <trkpt lat="28.53303" lon="-14.01908">
        <ele>138.4</ele>
        <time>2021-07-04 16:59:07</time>
      </trkpt>
      <trkpt lat="28.53301" lon="-14.01903">
        <ele>138.4</ele>
        <time>2021-07-04 16:59:08</time>
      </trkpt>
      <trkpt lat="28.53299" lon="-14.01899">
        <ele>138.4</ele>
        <time>2021-07-04 16:59:09</time>
      </trkpt>
      <trkpt lat="28.53297" lon="-14.01895">
        <ele>138.4</ele>
        <time>2021-07-04 16:59:10</time>
      </trkpt>
      <trkpt lat="28.53295" lon="-14.01892">
        <ele>138.4</ele>
        <time>2021-07-04 16:59:11</time>
      </trkpt>
      <trkpt lat="28.53293" lon="-14.01889">
        <ele>138.4</ele>
        <time>2021-07-04 16:59:12</time>
      </trkpt>
      <trkpt lat="28.53291" lon="-14.01885">
        <ele>138.4</ele>
        <time>2021-07-04 16:59:13</time>
      </trkpt>
      <trkpt lat="28.53288" lon="-14.01882">
        <ele>138.4</ele>
        <time>2021-07-04 16:59:14</time>
      </trkpt>
      <trkpt lat="28.53285" lon="-14.01879">
        <ele>138.2</ele>
        <time>2021-07-04 16:59:15</time>
      </trkpt>
      <trkpt lat="28.53282" lon="-14.01875">
        <ele>138.2</ele>
        <time>2021-07-04 16:59:16</time>
      </trkpt>
      <trkpt lat="28.53279" lon="-14.0187">
        <ele>138.2</ele>
        <time>2021-07-04 16:59:17</time>
      </trkpt>
      <trkpt lat="28.53275" lon="-14.01866">
        <ele>138.2</ele>
        <time>2021-07-04 16:59:18</time>
      </trkpt>
      <trkpt lat="28.53272" lon="-14.01861">
        <ele>138.2</ele>
        <time>2021-07-04 16:59:19</time>
      </trkpt>
      <trkpt lat="28.53269" lon="-14.01856">
        <ele>138.2</ele>
        <time>2021-07-04 16:59:20</time>
      </trkpt>
      <trkpt lat="28.53266" lon="-14.01852">
        <ele>138.2</ele>
        <time>2021-07-04 16:59:21</time>
      </trkpt>
      <trkpt lat="28.53262" lon="-14.01848">
        <ele>138.4</ele>
        <time>2021-07-04 16:59:22</time>
      </trkpt>
      <trkpt lat="28.53259" lon="-14.01844">
        <ele>138.4</ele>
        <time>2021-07-04 16:59:23</time>
      </trkpt>
      <trkpt lat="28.53256" lon="-14.0184">
        <ele>138.4</ele>
        <time>2021-07-04 16:59:24</time>
      </trkpt>
      <trkpt lat="28.53252" lon="-14.01837">
        <ele>138.4</ele>
        <time>2021-07-04 16:59:25</time>
      </trkpt>
      <trkpt lat="28.53249" lon="-14.01833">
        <ele>138.4</ele>
        <time>2021-07-04 16:59:26</time>
      </trkpt>
      <trkpt lat="28.53246" lon="-14.0183">
        <ele>138.4</ele>
        <time>2021-07-04 16:59:27</time>
      </trkpt>
      <trkpt lat="28.53243" lon="-14.01826">
        <ele>138.4</ele>
        <time>2021-07-04 16:59:28</time>
      </trkpt>
      <trkpt lat="28.53239" lon="-14.01821">
        <ele>138.4</ele>
        <time>2021-07-04 16:59:29</time>
      </trkpt>
      <trkpt lat="28.53235" lon="-14.01818">
        <ele>138.4</ele>
        <time>2021-07-04 16:59:30</time>
      </trkpt>
      <trkpt lat="28.53231" lon="-14.01814">
        <ele>138.2</ele>
        <time>2021-07-04 16:59:31</time>
      </trkpt>
      <trkpt lat="28.53227" lon="-14.01809">
        <ele>138.2</ele>
        <time>2021-07-04 16:59:32</time>
      </trkpt>
      <trkpt lat="28.53207" lon="-14.01788">
        <ele>137.4</ele>
        <time>2021-07-04 16:59:33</time>
      </trkpt>
      <trkpt lat="28.53202" lon="-14.01784">
        <ele>137.4</ele>
        <time>2021-07-04 16:59:34</time>
      </trkpt>
      <trkpt lat="28.53198" lon="-14.0178">
        <ele>137.2</ele>
        <time>2021-07-04 16:59:35</time>
      </trkpt>
      <trkpt lat="28.53194" lon="-14.01775">
        <ele>137.2</ele>
        <time>2021-07-04 16:59:36</time>
      </trkpt>
      <trkpt lat="28.5319" lon="-14.01771">
        <ele>137.2</ele>
        <time>2021-07-04 16:59:37</time>
      </trkpt>
      <trkpt lat="28.53186" lon="-14.01767">
        <ele>137.2</ele>
        <time>2021-07-04 16:59:38</time>
      </trkpt>
      <trkpt lat="28.53181" lon="-14.01763">
        <ele>137.2</ele>
        <time>2021-07-04 16:59:39</time>
      </trkpt>
      <trkpt lat="28.53177" lon="-14.01758">
        <ele>137.4</ele>
        <time>2021-07-04 16:59:40</time>
      </trkpt>
      <trkpt lat="28.53173" lon="-14.01754">
        <ele>137.4</ele>
        <time>2021-07-04 16:59:41</time>
      </trkpt>
      <trkpt lat="28.53168" lon="-14.01749">
        <ele>137.4</ele>
        <time>2021-07-04 16:59:42</time>
      </trkpt>
      <trkpt lat="28.53164" lon="-14.01745">
        <ele>137.4</ele>
        <time>2021-07-04 16:59:43</time>
      </trkpt>
      <trkpt lat="28.53159" lon="-14.01741">
        <ele>137.6</ele>
        <time>2021-07-04 16:59:44</time>
      </trkpt>
      <trkpt lat="28.53155" lon="-14.01737">
        <ele>137.6</ele>
        <time>2021-07-04 16:59:45</time>
      </trkpt>
      <trkpt lat="28.53151" lon="-14.01732">
        <ele>137.6</ele>
        <time>2021-07-04 16:59:46</time>
      </trkpt>
      <trkpt lat="28.53146" lon="-14.01727">
        <ele>138</ele>
        <time>2021-07-04 16:59:47</time>
      </trkpt>
      <trkpt lat="28.53142" lon="-14.01723">
        <ele>138</ele>
        <time>2021-07-04 16:59:48</time>
      </trkpt>
      <trkpt lat="28.53138" lon="-14.01719">
        <ele>138.2</ele>
        <time>2021-07-04 16:59:49</time>
      </trkpt>
      <trkpt lat="28.53133" lon="-14.01714">
        <ele>138.2</ele>
        <time>2021-07-04 16:59:50</time>
      </trkpt>
      <trkpt lat="28.53129" lon="-14.0171">
        <ele>138.2</ele>
        <time>2021-07-04 16:59:51</time>
      </trkpt>
      <trkpt lat="28.53124" lon="-14.01705">
        <ele>138.4</ele>
        <time>2021-07-04 16:59:52</time>
      </trkpt>
      <trkpt lat="28.53119" lon="-14.01701">
        <ele>138.4</ele>
        <time>2021-07-04 16:59:53</time>
      </trkpt>
      <trkpt lat="28.53115" lon="-14.01697">
        <ele>138.4</ele>
        <time>2021-07-04 16:59:54</time>
      </trkpt>
      <trkpt lat="28.5311" lon="-14.01692">
        <ele>138.8</ele>
        <time>2021-07-04 16:59:55</time>
      </trkpt>
      <trkpt lat="28.53106" lon="-14.01688">
        <ele>138.8</ele>
        <time>2021-07-04 16:59:56</time>
      </trkpt>
      <trkpt lat="28.53101" lon="-14.01683">
        <ele>138.8</ele>
        <time>2021-07-04 16:59:57</time>
      </trkpt>
      <trkpt lat="28.53096" lon="-14.01679">
        <ele>138.8</ele>
        <time>2021-07-04 16:59:58</time>
      </trkpt>
      <trkpt lat="28.53092" lon="-14.01674">
        <ele>138.8</ele>
        <time>2021-07-04 16:59:59</time>
      </trkpt>
      <trkpt lat="28.53088" lon="-14.01669">
        <ele>139.2</ele>
        <time>2021-07-04 17:00:00</time>
      </trkpt>
      <trkpt lat="28.53083" lon="-14.01665">
        <ele>139.2</ele>
        <time>2021-07-04 17:00:01</time>
      </trkpt>
      <trkpt lat="28.53079" lon="-14.0166">
        <ele>139.2</ele>
        <time>2021-07-04 17:00:02</time>
      </trkpt>
      <trkpt lat="28.53075" lon="-14.01657">
        <ele>139.2</ele>
        <time>2021-07-04 17:00:03</time>
      </trkpt>
      <trkpt lat="28.53071" lon="-14.01652">
        <ele>139.4</ele>
        <time>2021-07-04 17:00:04</time>
      </trkpt>
      <trkpt lat="28.53067" lon="-14.01647">
        <ele>139.4</ele>
        <time>2021-07-04 17:00:05</time>
      </trkpt>
      <trkpt lat="28.53062" lon="-14.01644">
        <ele>139.4</ele>
        <time>2021-07-04 17:00:06</time>
      </trkpt>
      <trkpt lat="28.53058" lon="-14.01639">
        <ele>139.6</ele>
        <time>2021-07-04 17:00:07</time>
      </trkpt>
      <trkpt lat="28.53054" lon="-14.01635">
        <ele>139.6</ele>
        <time>2021-07-04 17:00:08</time>
      </trkpt>
      <trkpt lat="28.5305" lon="-14.01631">
        <ele>139.6</ele>
        <time>2021-07-04 17:00:09</time>
      </trkpt>
      <trkpt lat="28.53045" lon="-14.01627">
        <ele>140</ele>
        <time>2021-07-04 17:00:10</time>
      </trkpt>
      <trkpt lat="28.53041" lon="-14.01622">
        <ele>140</ele>
        <time>2021-07-04 17:00:11</time>
      </trkpt>
      <trkpt lat="28.53037" lon="-14.01618">
        <ele>140.2</ele>
        <time>2021-07-04 17:00:12</time>
      </trkpt>
      <trkpt lat="28.53033" lon="-14.01614">
        <ele>140.2</ele>
        <time>2021-07-04 17:00:13</time>
      </trkpt>
      <trkpt lat="28.53029" lon="-14.01611">
        <ele>140.6</ele>
        <time>2021-07-04 17:00:14</time>
      </trkpt>
      <trkpt lat="28.53026" lon="-14.01607">
        <ele>140.6</ele>
        <time>2021-07-04 17:00:15</time>
      </trkpt>
      <trkpt lat="28.53022" lon="-14.01603">
        <ele>140.8</ele>
        <time>2021-07-04 17:00:16</time>
      </trkpt>
      <trkpt lat="28.53012" lon="-14.01593">
        <ele>141</ele>
        <time>2021-07-04 17:00:17</time>
      </trkpt>
      <trkpt lat="28.53008" lon="-14.01589">
        <ele>141</ele>
        <time>2021-07-04 17:00:18</time>
      </trkpt>
      <trkpt lat="28.53005" lon="-14.01586">
        <ele>141.2</ele>
        <time>2021-07-04 17:00:19</time>
      </trkpt>
      <trkpt lat="28.53002" lon="-14.01583">
        <ele>141.2</ele>
        <time>2021-07-04 17:00:20</time>
      </trkpt>
      <trkpt lat="28.52999" lon="-14.0158">
        <ele>141.6</ele>
        <time>2021-07-04 17:00:21</time>
      </trkpt>
      <trkpt lat="28.52996" lon="-14.01577">
        <ele>141.6</ele>
        <time>2021-07-04 17:00:22</time>
      </trkpt>
      <trkpt lat="28.52993" lon="-14.01574">
        <ele>142</ele>
        <time>2021-07-04 17:00:23</time>
      </trkpt>
      <trkpt lat="28.5299" lon="-14.01571">
        <ele>142</ele>
        <time>2021-07-04 17:00:24</time>
      </trkpt>
      <trkpt lat="28.52987" lon="-14.01568">
        <ele>142.4</ele>
        <time>2021-07-04 17:00:25</time>
      </trkpt>
      <trkpt lat="28.52984" lon="-14.01565">
        <ele>142.6</ele>
        <time>2021-07-04 17:00:26</time>
      </trkpt>
      <trkpt lat="28.52981" lon="-14.01562">
        <ele>142.8</ele>
        <time>2021-07-04 17:00:27</time>
      </trkpt>
      <trkpt lat="28.52978" lon="-14.01559">
        <ele>142.8</ele>
        <time>2021-07-04 17:00:28</time>
      </trkpt>
      <trkpt lat="28.52975" lon="-14.01556">
        <ele>143.2</ele>
        <time>2021-07-04 17:00:29</time>
      </trkpt>
      <trkpt lat="28.52972" lon="-14.01553">
        <ele>143.4</ele>
        <time>2021-07-04 17:00:30</time>
      </trkpt>
      <trkpt lat="28.52969" lon="-14.01549">
        <ele>143.6</ele>
        <time>2021-07-04 17:00:31</time>
      </trkpt>
      <trkpt lat="28.52966" lon="-14.01546">
        <ele>143.8</ele>
        <time>2021-07-04 17:00:32</time>
      </trkpt>
      <trkpt lat="28.52963" lon="-14.01543">
        <ele>143.8</ele>
        <time>2021-07-04 17:00:33</time>
      </trkpt>
      <trkpt lat="28.5296" lon="-14.0154">
        <ele>144.2</ele>
        <time>2021-07-04 17:00:34</time>
      </trkpt>
      <trkpt lat="28.52957" lon="-14.01537">
        <ele>144.2</ele>
        <time>2021-07-04 17:00:35</time>
      </trkpt>
      <trkpt lat="28.52953" lon="-14.01534">
        <ele>144.6</ele>
        <time>2021-07-04 17:00:36</time>
      </trkpt>
      <trkpt lat="28.5295" lon="-14.01531">
        <ele>144.6</ele>
        <time>2021-07-04 17:00:37</time>
      </trkpt>
      <trkpt lat="28.52947" lon="-14.01527">
        <ele>144.8</ele>
        <time>2021-07-04 17:00:38</time>
      </trkpt>
      <trkpt lat="28.52943" lon="-14.01524">
        <ele>144.8</ele>
        <time>2021-07-04 17:00:39</time>
      </trkpt>
      <trkpt lat="28.5294" lon="-14.01521">
        <ele>145</ele>
        <time>2021-07-04 17:00:40</time>
      </trkpt>
      <trkpt lat="28.52937" lon="-14.01518">
        <ele>145</ele>
        <time>2021-07-04 17:00:41</time>
      </trkpt>
      <trkpt lat="28.52934" lon="-14.01515">
        <ele>145.4</ele>
        <time>2021-07-04 17:00:42</time>
      </trkpt>
      <trkpt lat="28.5293" lon="-14.01511">
        <ele>145.4</ele>
        <time>2021-07-04 17:00:43</time>
      </trkpt>
      <trkpt lat="28.52927" lon="-14.01508">
        <ele>145.8</ele>
        <time>2021-07-04 17:00:44</time>
      </trkpt>
      <trkpt lat="28.52923" lon="-14.01505">
        <ele>146</ele>
        <time>2021-07-04 17:00:45</time>
      </trkpt>
      <trkpt lat="28.52919" lon="-14.01501">
        <ele>146</ele>
        <time>2021-07-04 17:00:46</time>
      </trkpt>
      <trkpt lat="28.52916" lon="-14.01498">
        <ele>146.2</ele>
        <time>2021-07-04 17:00:47</time>
      </trkpt>
      <trkpt lat="28.52913" lon="-14.01494">
        <ele>146.2</ele>
        <time>2021-07-04 17:00:48</time>
      </trkpt>
      <trkpt lat="28.52909" lon="-14.0149">
        <ele>146.6</ele>
        <time>2021-07-04 17:00:49</time>
      </trkpt>
      <trkpt lat="28.52906" lon="-14.01487">
        <ele>146.6</ele>
        <time>2021-07-04 17:00:50</time>
      </trkpt>
      <trkpt lat="28.52904" lon="-14.01484">
        <ele>147</ele>
        <time>2021-07-04 17:00:51</time>
      </trkpt>
      <trkpt lat="28.529" lon="-14.01481">
        <ele>147</ele>
        <time>2021-07-04 17:00:52</time>
      </trkpt>
      <trkpt lat="28.52897" lon="-14.01478">
        <ele>147.2</ele>
        <time>2021-07-04 17:00:53</time>
      </trkpt>
      <trkpt lat="28.52894" lon="-14.01475">
        <ele>147.2</ele>
        <time>2021-07-04 17:00:54</time>
      </trkpt>
      <trkpt lat="28.52891" lon="-14.01471">
        <ele>147.6</ele>
        <time>2021-07-04 17:00:55</time>
      </trkpt>
      <trkpt lat="28.52887" lon="-14.01468">
        <ele>147.6</ele>
        <time>2021-07-04 17:00:56</time>
      </trkpt>
      <trkpt lat="28.52884" lon="-14.01464">
        <ele>147.6</ele>
        <time>2021-07-04 17:00:57</time>
      </trkpt>
      <trkpt lat="28.52881" lon="-14.01461">
        <ele>147.6</ele>
        <time>2021-07-04 17:00:58</time>
      </trkpt>
      <trkpt lat="28.52877" lon="-14.01458">
        <ele>147.6</ele>
        <time>2021-07-04 17:00:59</time>
      </trkpt>
      <trkpt lat="28.52874" lon="-14.01455">
        <ele>147.8</ele>
        <time>2021-07-04 17:01:00</time>
      </trkpt>
      <trkpt lat="28.52871" lon="-14.01452">
        <ele>147.8</ele>
        <time>2021-07-04 17:01:01</time>
      </trkpt>
      <trkpt lat="28.52867" lon="-14.01448">
        <ele>147.8</ele>
        <time>2021-07-04 17:01:02</time>
      </trkpt>
      <trkpt lat="28.52864" lon="-14.01444">
        <ele>147.8</ele>
        <time>2021-07-04 17:01:03</time>
      </trkpt>
      <trkpt lat="28.52861" lon="-14.01441">
        <ele>148</ele>
        <time>2021-07-04 17:01:04</time>
      </trkpt>
      <trkpt lat="28.52857" lon="-14.01438">
        <ele>148</ele>
        <time>2021-07-04 17:01:05</time>
      </trkpt>
      <trkpt lat="28.52854" lon="-14.01434">
        <ele>148</ele>
        <time>2021-07-04 17:01:06</time>
      </trkpt>
      <trkpt lat="28.5285" lon="-14.01431">
        <ele>148</ele>
        <time>2021-07-04 17:01:07</time>
      </trkpt>
      <trkpt lat="28.52847" lon="-14.01427">
        <ele>148</ele>
        <time>2021-07-04 17:01:08</time>
      </trkpt>
      <trkpt lat="28.52844" lon="-14.01424">
        <ele>148.2</ele>
        <time>2021-07-04 17:01:09</time>
      </trkpt>
      <trkpt lat="28.5284" lon="-14.0142">
        <ele>148.2</ele>
        <time>2021-07-04 17:01:10</time>
      </trkpt>
      <trkpt lat="28.52837" lon="-14.01418">
        <ele>148.2</ele>
        <time>2021-07-04 17:01:11</time>
      </trkpt>
      <trkpt lat="28.52833" lon="-14.01414">
        <ele>148.6</ele>
        <time>2021-07-04 17:01:12</time>
      </trkpt>
      <trkpt lat="28.5283" lon="-14.01411">
        <ele>148.6</ele>
        <time>2021-07-04 17:01:13</time>
      </trkpt>
      <trkpt lat="28.52826" lon="-14.01407">
        <ele>148.8</ele>
        <time>2021-07-04 17:01:14</time>
      </trkpt>
      <trkpt lat="28.52823" lon="-14.01403">
        <ele>148.8</ele>
        <time>2021-07-04 17:01:15</time>
      </trkpt>
      <trkpt lat="28.52819" lon="-14.014">
        <ele>149</ele>
        <time>2021-07-04 17:01:16</time>
      </trkpt>
      <trkpt lat="28.52816" lon="-14.01397">
        <ele>149</ele>
        <time>2021-07-04 17:01:17</time>
      </trkpt>
      <trkpt lat="28.52812" lon="-14.01393">
        <ele>149.4</ele>
        <time>2021-07-04 17:01:18</time>
      </trkpt>
      <trkpt lat="28.52809" lon="-14.0139">
        <ele>149.4</ele>
        <time>2021-07-04 17:01:19</time>
      </trkpt>
      <trkpt lat="28.52806" lon="-14.01387">
        <ele>149.6</ele>
        <time>2021-07-04 17:01:20</time>
      </trkpt>
      <trkpt lat="28.52802" lon="-14.01383">
        <ele>149.6</ele>
        <time>2021-07-04 17:01:21</time>
      </trkpt>
      <trkpt lat="28.52799" lon="-14.0138">
        <ele>150</ele>
        <time>2021-07-04 17:01:22</time>
      </trkpt>
      <trkpt lat="28.52796" lon="-14.01376">
        <ele>150.2</ele>
        <time>2021-07-04 17:01:23</time>
      </trkpt>
      <trkpt lat="28.52793" lon="-14.01373">
        <ele>150.6</ele>
        <time>2021-07-04 17:01:24</time>
      </trkpt>
      <trkpt lat="28.5279" lon="-14.0137">
        <ele>150.8</ele>
        <time>2021-07-04 17:01:25</time>
      </trkpt>
      <trkpt lat="28.52786" lon="-14.01367">
        <ele>151</ele>
        <time>2021-07-04 17:01:26</time>
      </trkpt>
      <trkpt lat="28.52783" lon="-14.01364">
        <ele>151.4</ele>
        <time>2021-07-04 17:01:27</time>
      </trkpt>
      <trkpt lat="28.5278" lon="-14.01361">
        <ele>151.6</ele>
        <time>2021-07-04 17:01:28</time>
      </trkpt>
      <trkpt lat="28.52776" lon="-14.01358">
        <ele>151.8</ele>
        <time>2021-07-04 17:01:29</time>
      </trkpt>
      <trkpt lat="28.52773" lon="-14.01354">
        <ele>151.8</ele>
        <time>2021-07-04 17:01:30</time>
      </trkpt>
      <trkpt lat="28.5277" lon="-14.01351">
        <ele>152.2</ele>
        <time>2021-07-04 17:01:31</time>
      </trkpt>
      <trkpt lat="28.52767" lon="-14.01348">
        <ele>152.4</ele>
        <time>2021-07-04 17:01:32</time>
      </trkpt>
      <trkpt lat="28.52764" lon="-14.01345">
        <ele>152.6</ele>
        <time>2021-07-04 17:01:33</time>
      </trkpt>
      <trkpt lat="28.52761" lon="-14.01342">
        <ele>152.6</ele>
        <time>2021-07-04 17:01:34</time>
      </trkpt>
      <trkpt lat="28.52758" lon="-14.01339">
        <ele>153</ele>
        <time>2021-07-04 17:01:35</time>
      </trkpt>
      <trkpt lat="28.52755" lon="-14.01336">
        <ele>153.2</ele>
        <time>2021-07-04 17:01:36</time>
      </trkpt>
      <trkpt lat="28.52752" lon="-14.01333">
        <ele>153.2</ele>
        <time>2021-07-04 17:01:37</time>
      </trkpt>
      <trkpt lat="28.52749" lon="-14.0133">
        <ele>153.6</ele>
        <time>2021-07-04 17:01:38</time>
      </trkpt>
      <trkpt lat="28.52746" lon="-14.01327">
        <ele>153.8</ele>
        <time>2021-07-04 17:01:39</time>
      </trkpt>
      <trkpt lat="28.52743" lon="-14.01324">
        <ele>154</ele>
        <time>2021-07-04 17:01:40</time>
      </trkpt>
      <trkpt lat="28.52741" lon="-14.01321">
        <ele>154.2</ele>
        <time>2021-07-04 17:01:41</time>
      </trkpt>
      <trkpt lat="28.52738" lon="-14.01318">
        <ele>154.6</ele>
        <time>2021-07-04 17:01:42</time>
      </trkpt>
      <trkpt lat="28.52735" lon="-14.01315">
        <ele>154.8</ele>
        <time>2021-07-04 17:01:43</time>
      </trkpt>
      <trkpt lat="28.52732" lon="-14.01312">
        <ele>155</ele>
        <time>2021-07-04 17:01:44</time>
      </trkpt>
      <trkpt lat="28.52729" lon="-14.01309">
        <ele>155.2</ele>
        <time>2021-07-04 17:01:45</time>
      </trkpt>
      <trkpt lat="28.52727" lon="-14.01307">
        <ele>155.4</ele>
        <time>2021-07-04 17:01:46</time>
      </trkpt>
      <trkpt lat="28.52724" lon="-14.01304">
        <ele>155.6</ele>
        <time>2021-07-04 17:01:47</time>
      </trkpt>
      <trkpt lat="28.52722" lon="-14.01301">
        <ele>156</ele>
        <time>2021-07-04 17:01:48</time>
      </trkpt>
      <trkpt lat="28.5272" lon="-14.01298">
        <ele>156.2</ele>
        <time>2021-07-04 17:01:49</time>
      </trkpt>
      <trkpt lat="28.52717" lon="-14.01296">
        <ele>156.6</ele>
        <time>2021-07-04 17:01:50</time>
      </trkpt>
      <trkpt lat="28.52715" lon="-14.01293">
        <ele>156.6</ele>
        <time>2021-07-04 17:01:51</time>
      </trkpt>
      <trkpt lat="28.52712" lon="-14.0129">
        <ele>157</ele>
        <time>2021-07-04 17:01:52</time>
      </trkpt>
      <trkpt lat="28.5271" lon="-14.01287">
        <ele>157.4</ele>
        <time>2021-07-04 17:01:53</time>
      </trkpt>
      <trkpt lat="28.52708" lon="-14.01284">
        <ele>157.6</ele>
        <time>2021-07-04 17:01:54</time>
      </trkpt>
      <trkpt lat="28.52706" lon="-14.01281">
        <ele>158</ele>
        <time>2021-07-04 17:01:55</time>
      </trkpt>
      <trkpt lat="28.52703" lon="-14.01278">
        <ele>158.4</ele>
        <time>2021-07-04 17:01:56</time>
      </trkpt>
      <trkpt lat="28.52701" lon="-14.01275">
        <ele>158.6</ele>
        <time>2021-07-04 17:01:57</time>
      </trkpt>
      <trkpt lat="28.52699" lon="-14.01272">
        <ele>159</ele>
        <time>2021-07-04 17:01:58</time>
      </trkpt>
      <trkpt lat="28.52697" lon="-14.01269">
        <ele>159.4</ele>
        <time>2021-07-04 17:01:59</time>
      </trkpt>
      <trkpt lat="28.52695" lon="-14.01265">
        <ele>159.6</ele>
        <time>2021-07-04 17:02:00</time>
      </trkpt>
      <trkpt lat="28.52693" lon="-14.01262">
        <ele>160</ele>
        <time>2021-07-04 17:02:01</time>
      </trkpt>
      <trkpt lat="28.52692" lon="-14.01259">
        <ele>160.2</ele>
        <time>2021-07-04 17:02:02</time>
      </trkpt>
      <trkpt lat="28.5269" lon="-14.01255">
        <ele>160.4</ele>
        <time>2021-07-04 17:02:03</time>
      </trkpt>
      <trkpt lat="28.52688" lon="-14.01252">
        <ele>160.4</ele>
        <time>2021-07-04 17:02:04</time>
      </trkpt>
      <trkpt lat="28.52686" lon="-14.01248">
        <ele>160.8</ele>
        <time>2021-07-04 17:02:05</time>
      </trkpt>
      <trkpt lat="28.52685" lon="-14.01244">
        <ele>160.8</ele>
        <time>2021-07-04 17:02:06</time>
      </trkpt>
      <trkpt lat="28.52683" lon="-14.01241">
        <ele>161.2</ele>
        <time>2021-07-04 17:02:07</time>
      </trkpt>
      <trkpt lat="28.52681" lon="-14.01237">
        <ele>161.2</ele>
        <time>2021-07-04 17:02:08</time>
      </trkpt>
      <trkpt lat="28.5268" lon="-14.01233">
        <ele>161.6</ele>
        <time>2021-07-04 17:02:09</time>
      </trkpt>
      <trkpt lat="28.52678" lon="-14.0123">
        <ele>161.6</ele>
        <time>2021-07-04 17:02:10</time>
      </trkpt>
      <trkpt lat="28.52677" lon="-14.01226">
        <ele>161.8</ele>
        <time>2021-07-04 17:02:11</time>
      </trkpt>
      <trkpt lat="28.52675" lon="-14.01223">
        <ele>161.8</ele>
        <time>2021-07-04 17:02:12</time>
      </trkpt>
      <trkpt lat="28.52673" lon="-14.01219">
        <ele>162.2</ele>
        <time>2021-07-04 17:02:13</time>
      </trkpt>
      <trkpt lat="28.52672" lon="-14.01216">
        <ele>162.2</ele>
        <time>2021-07-04 17:02:14</time>
      </trkpt>
      <trkpt lat="28.52669" lon="-14.01209">
        <ele>162.4</ele>
        <time>2021-07-04 17:02:15</time>
      </trkpt>
      <trkpt lat="28.52667" lon="-14.01205">
        <ele>162.4</ele>
        <time>2021-07-04 17:02:16</time>
      </trkpt>
      <trkpt lat="28.52666" lon="-14.01201">
        <ele>162.4</ele>
        <time>2021-07-04 17:02:17</time>
      </trkpt>
      <trkpt lat="28.52664" lon="-14.01198">
        <ele>162.4</ele>
        <time>2021-07-04 17:02:18</time>
      </trkpt>
      <trkpt lat="28.52663" lon="-14.01194">
        <ele>162.4</ele>
        <time>2021-07-04 17:02:19</time>
      </trkpt>
      <trkpt lat="28.52662" lon="-14.01191">
        <ele>162.4</ele>
        <time>2021-07-04 17:02:20</time>
      </trkpt>
      <trkpt lat="28.52661" lon="-14.01187">
        <ele>162.6</ele>
        <time>2021-07-04 17:02:21</time>
      </trkpt>
      <trkpt lat="28.52659" lon="-14.01184">
        <ele>162.6</ele>
        <time>2021-07-04 17:02:22</time>
      </trkpt>
      <trkpt lat="28.52658" lon="-14.0118">
        <ele>162.6</ele>
        <time>2021-07-04 17:02:23</time>
      </trkpt>
      <trkpt lat="28.52656" lon="-14.01177">
        <ele>163</ele>
        <time>2021-07-04 17:02:24</time>
      </trkpt>
      <trkpt lat="28.52655" lon="-14.01173">
        <ele>163</ele>
        <time>2021-07-04 17:02:25</time>
      </trkpt>
      <trkpt lat="28.52653" lon="-14.01169">
        <ele>163.4</ele>
        <time>2021-07-04 17:02:26</time>
      </trkpt>
      <trkpt lat="28.52652" lon="-14.01166">
        <ele>163.4</ele>
        <time>2021-07-04 17:02:27</time>
      </trkpt>
      <trkpt lat="28.5265" lon="-14.01162">
        <ele>163.8</ele>
        <time>2021-07-04 17:02:28</time>
      </trkpt>
      <trkpt lat="28.52649" lon="-14.01159">
        <ele>163.8</ele>
        <time>2021-07-04 17:02:29</time>
      </trkpt>
      <trkpt lat="28.52648" lon="-14.01155">
        <ele>164</ele>
        <time>2021-07-04 17:02:30</time>
      </trkpt>
      <trkpt lat="28.52646" lon="-14.01151">
        <ele>164.2</ele>
        <time>2021-07-04 17:02:31</time>
      </trkpt>
      <trkpt lat="28.52645" lon="-14.01148">
        <ele>164.4</ele>
        <time>2021-07-04 17:02:32</time>
      </trkpt>
      <trkpt lat="28.52644" lon="-14.01144">
        <ele>164.4</ele>
        <time>2021-07-04 17:02:33</time>
      </trkpt>
      <trkpt lat="28.52642" lon="-14.01141">
        <ele>164.8</ele>
        <time>2021-07-04 17:02:34</time>
      </trkpt>
      <trkpt lat="28.52641" lon="-14.01138">
        <ele>164.8</ele>
        <time>2021-07-04 17:02:35</time>
      </trkpt>
      <trkpt lat="28.5264" lon="-14.01134">
        <ele>164.8</ele>
        <time>2021-07-04 17:02:36</time>
      </trkpt>
      <trkpt lat="28.52639" lon="-14.01131">
        <ele>165</ele>
        <time>2021-07-04 17:02:37</time>
      </trkpt>
      <trkpt lat="28.52637" lon="-14.01127">
        <ele>165</ele>
        <time>2021-07-04 17:02:38</time>
      </trkpt>
      <trkpt lat="28.52636" lon="-14.01123">
        <ele>165</ele>
        <time>2021-07-04 17:02:39</time>
      </trkpt>
      <trkpt lat="28.52634" lon="-14.0112">
        <ele>165</ele>
        <time>2021-07-04 17:02:40</time>
      </trkpt>
      <trkpt lat="28.52633" lon="-14.01116">
        <ele>165</ele>
        <time>2021-07-04 17:02:41</time>
      </trkpt>
      <trkpt lat="28.52631" lon="-14.01113">
        <ele>165.2</ele>
        <time>2021-07-04 17:02:42</time>
      </trkpt>
      <trkpt lat="28.5263" lon="-14.01109">
        <ele>165.2</ele>
        <time>2021-07-04 17:02:43</time>
      </trkpt>
      <trkpt lat="28.52629" lon="-14.01105">
        <ele>165.2</ele>
        <time>2021-07-04 17:02:44</time>
      </trkpt>
      <trkpt lat="28.52627" lon="-14.01101">
        <ele>165.2</ele>
        <time>2021-07-04 17:02:45</time>
      </trkpt>
      <trkpt lat="28.52626" lon="-14.01097">
        <ele>165.4</ele>
        <time>2021-07-04 17:02:46</time>
      </trkpt>
      <trkpt lat="28.52625" lon="-14.01094">
        <ele>165.4</ele>
        <time>2021-07-04 17:02:47</time>
      </trkpt>
      <trkpt lat="28.52624" lon="-14.0109">
        <ele>165.4</ele>
        <time>2021-07-04 17:02:48</time>
      </trkpt>
      <trkpt lat="28.52623" lon="-14.01087">
        <ele>165.4</ele>
        <time>2021-07-04 17:02:49</time>
      </trkpt>
      <trkpt lat="28.52621" lon="-14.01083">
        <ele>165.4</ele>
        <time>2021-07-04 17:02:50</time>
      </trkpt>
      <trkpt lat="28.5262" lon="-14.01079">
        <ele>165.4</ele>
        <time>2021-07-04 17:02:51</time>
      </trkpt>
      <trkpt lat="28.52618" lon="-14.01075">
        <ele>165.4</ele>
        <time>2021-07-04 17:02:52</time>
      </trkpt>
      <trkpt lat="28.52617" lon="-14.01071">
        <ele>165.6</ele>
        <time>2021-07-04 17:02:53</time>
      </trkpt>
      <trkpt lat="28.52615" lon="-14.01067">
        <ele>165.6</ele>
        <time>2021-07-04 17:02:54</time>
      </trkpt>
      <trkpt lat="28.52614" lon="-14.01063">
        <ele>165.8</ele>
        <time>2021-07-04 17:02:55</time>
      </trkpt>
      <trkpt lat="28.52612" lon="-14.01059">
        <ele>165.8</ele>
        <time>2021-07-04 17:02:56</time>
      </trkpt>
      <trkpt lat="28.52611" lon="-14.01055">
        <ele>165.8</ele>
        <time>2021-07-04 17:02:57</time>
      </trkpt>
      <trkpt lat="28.5261" lon="-14.01051">
        <ele>166.2</ele>
        <time>2021-07-04 17:02:58</time>
      </trkpt>
      <trkpt lat="28.52608" lon="-14.01047">
        <ele>166.2</ele>
        <time>2021-07-04 17:02:59</time>
      </trkpt>
      <trkpt lat="28.52607" lon="-14.01043">
        <ele>166.2</ele>
        <time>2021-07-04 17:03:00</time>
      </trkpt>
      <trkpt lat="28.52605" lon="-14.01039">
        <ele>166.4</ele>
        <time>2021-07-04 17:03:01</time>
      </trkpt>
      <trkpt lat="28.52604" lon="-14.01035">
        <ele>166.4</ele>
        <time>2021-07-04 17:03:02</time>
      </trkpt>
      <trkpt lat="28.52603" lon="-14.01031">
        <ele>166.6</ele>
        <time>2021-07-04 17:03:03</time>
      </trkpt>
      <trkpt lat="28.52601" lon="-14.01027">
        <ele>166.6</ele>
        <time>2021-07-04 17:03:04</time>
      </trkpt>
      <trkpt lat="28.526" lon="-14.01023">
        <ele>167</ele>
        <time>2021-07-04 17:03:05</time>
      </trkpt>
      <trkpt lat="28.52598" lon="-14.01019">
        <ele>167</ele>
        <time>2021-07-04 17:03:06</time>
      </trkpt>
      <trkpt lat="28.52597" lon="-14.01015">
        <ele>167</ele>
        <time>2021-07-04 17:03:07</time>
      </trkpt>
      <trkpt lat="28.52595" lon="-14.01011">
        <ele>167.2</ele>
        <time>2021-07-04 17:03:08</time>
      </trkpt>
      <trkpt lat="28.52594" lon="-14.01007">
        <ele>167.2</ele>
        <time>2021-07-04 17:03:09</time>
      </trkpt>
      <trkpt lat="28.52592" lon="-14.01003">
        <ele>167.2</ele>
        <time>2021-07-04 17:03:10</time>
      </trkpt>
      <trkpt lat="28.52591" lon="-14.00999">
        <ele>167.4</ele>
        <time>2021-07-04 17:03:11</time>
      </trkpt>
      <trkpt lat="28.52589" lon="-14.00995">
        <ele>167.4</ele>
        <time>2021-07-04 17:03:12</time>
      </trkpt>
      <trkpt lat="28.52588" lon="-14.00991">
        <ele>167.6</ele>
        <time>2021-07-04 17:03:13</time>
      </trkpt>
      <trkpt lat="28.52586" lon="-14.00987">
        <ele>167.6</ele>
        <time>2021-07-04 17:03:14</time>
      </trkpt>
      <trkpt lat="28.52584" lon="-14.00983">
        <ele>167.6</ele>
        <time>2021-07-04 17:03:15</time>
      </trkpt>
      <trkpt lat="28.52583" lon="-14.00979">
        <ele>168</ele>
        <time>2021-07-04 17:03:16</time>
      </trkpt>
      <trkpt lat="28.52581" lon="-14.00974">
        <ele>168</ele>
        <time>2021-07-04 17:03:17</time>
      </trkpt>
      <trkpt lat="28.5258" lon="-14.0097">
        <ele>168</ele>
        <time>2021-07-04 17:03:18</time>
      </trkpt>
      <trkpt lat="28.52578" lon="-14.00966">
        <ele>168</ele>
        <time>2021-07-04 17:03:19</time>
      </trkpt>
      <trkpt lat="28.52577" lon="-14.00962">
        <ele>166.8</ele>
        <time>2021-07-04 17:03:20</time>
      </trkpt>
      <trkpt lat="28.52575" lon="-14.00958">
        <ele>167.2</ele>
        <time>2021-07-04 17:03:21</time>
      </trkpt>
      <trkpt lat="28.52574" lon="-14.00955">
        <ele>167.6</ele>
        <time>2021-07-04 17:03:22</time>
      </trkpt>
      <trkpt lat="28.52572" lon="-14.00951">
        <ele>168</ele>
        <time>2021-07-04 17:03:23</time>
      </trkpt>
      <trkpt lat="28.52571" lon="-14.00947">
        <ele>168.4</ele>
        <time>2021-07-04 17:03:24</time>
      </trkpt>
      <trkpt lat="28.5257" lon="-14.00943">
        <ele>167.8</ele>
        <time>2021-07-04 17:03:25</time>
      </trkpt>
      <trkpt lat="28.52568" lon="-14.00939">
        <ele>168.4</ele>
        <time>2021-07-04 17:03:26</time>
      </trkpt>
      <trkpt lat="28.52567" lon="-14.00936">
        <ele>168.6</ele>
        <time>2021-07-04 17:03:27</time>
      </trkpt>
      <trkpt lat="28.52565" lon="-14.00932">
        <ele>168.6</ele>
        <time>2021-07-04 17:03:28</time>
      </trkpt>
      <trkpt lat="28.52564" lon="-14.00928">
        <ele>169</ele>
        <time>2021-07-04 17:03:29</time>
      </trkpt>
      <trkpt lat="28.52563" lon="-14.00924">
        <ele>169</ele>
        <time>2021-07-04 17:03:30</time>
      </trkpt>
      <trkpt lat="28.52561" lon="-14.0092">
        <ele>169.2</ele>
        <time>2021-07-04 17:03:31</time>
      </trkpt>
      <trkpt lat="28.5256" lon="-14.00916">
        <ele>169.2</ele>
        <time>2021-07-04 17:03:32</time>
      </trkpt>
      <trkpt lat="28.52558" lon="-14.00912">
        <ele>169.2</ele>
        <time>2021-07-04 17:03:33</time>
      </trkpt>
      <trkpt lat="28.52556" lon="-14.00908">
        <ele>169.2</ele>
        <time>2021-07-04 17:03:34</time>
      </trkpt>
      <trkpt lat="28.52555" lon="-14.00904">
        <ele>169.4</ele>
        <time>2021-07-04 17:03:35</time>
      </trkpt>
      <trkpt lat="28.52553" lon="-14.009">
        <ele>169.4</ele>
        <time>2021-07-04 17:03:36</time>
      </trkpt>
      <trkpt lat="28.52552" lon="-14.00896">
        <ele>169.8</ele>
        <time>2021-07-04 17:03:37</time>
      </trkpt>
      <trkpt lat="28.5255" lon="-14.00891">
        <ele>169.8</ele>
        <time>2021-07-04 17:03:38</time>
      </trkpt>
      <trkpt lat="28.52549" lon="-14.00887">
        <ele>170</ele>
        <time>2021-07-04 17:03:39</time>
      </trkpt>
      <trkpt lat="28.52547" lon="-14.00883">
        <ele>170</ele>
        <time>2021-07-04 17:03:40</time>
      </trkpt>
      <trkpt lat="28.52545" lon="-14.00879">
        <ele>170</ele>
        <time>2021-07-04 17:03:41</time>
      </trkpt>
      <trkpt lat="28.52544" lon="-14.00875">
        <ele>170</ele>
        <time>2021-07-04 17:03:42</time>
      </trkpt>
      <trkpt lat="28.52542" lon="-14.00871">
        <ele>170</ele>
        <time>2021-07-04 17:03:43</time>
      </trkpt>
      <trkpt lat="28.52541" lon="-14.00866">
        <ele>170.2</ele>
        <time>2021-07-04 17:03:44</time>
      </trkpt>
      <trkpt lat="28.5254" lon="-14.00862">
        <ele>170.2</ele>
        <time>2021-07-04 17:03:45</time>
      </trkpt>
      <trkpt lat="28.52538" lon="-14.00859">
        <ele>170.2</ele>
        <time>2021-07-04 17:03:46</time>
      </trkpt>
      <trkpt lat="28.52537" lon="-14.00855">
        <ele>170.2</ele>
        <time>2021-07-04 17:03:47</time>
      </trkpt>
      <trkpt lat="28.52535" lon="-14.00852">
        <ele>170.2</ele>
        <time>2021-07-04 17:03:48</time>
      </trkpt>
      <trkpt lat="28.52534" lon="-14.00849">
        <ele>170.4</ele>
        <time>2021-07-04 17:03:49</time>
      </trkpt>
      <trkpt lat="28.52533" lon="-14.00847">
        <ele>170.4</ele>
        <time>2021-07-04 17:03:50</time>
      </trkpt>
      <trkpt lat="28.52532" lon="-14.00844">
        <ele>170.4</ele>
        <time>2021-07-04 17:03:51</time>
      </trkpt>
      <trkpt lat="28.52531" lon="-14.00842">
        <ele>170.4</ele>
        <time>2021-07-04 17:03:52</time>
      </trkpt>
      <trkpt lat="28.5253" lon="-14.00841">
        <ele>170.4</ele>
        <time>2021-07-04 17:03:53</time>
      </trkpt>
      <trkpt lat="28.52528" lon="-14.0084">
        <ele>170</ele>
        <time>2021-07-04 17:03:54</time>
      </trkpt>
      <trkpt lat="28.52526" lon="-14.0084">
        <ele>169.8</ele>
        <time>2021-07-04 17:03:55</time>
      </trkpt>
      <trkpt lat="28.52526" lon="-14.0084">
        <ele>169.6</ele>
        <time>2021-07-04 17:03:56</time>
      </trkpt>
      <trkpt lat="28.52526" lon="-14.00841">
        <ele>169.4</ele>
        <time>2021-07-04 17:03:57</time>
      </trkpt>
      <trkpt lat="28.52526" lon="-14.00842">
        <ele>169.4</ele>
        <time>2021-07-04 17:03:58</time>
      </trkpt>
      <trkpt lat="28.52525" lon="-14.0084">
        <ele>170.4</ele>
        <time>2021-07-04 17:03:59</time>
      </trkpt>
      <trkpt lat="28.52525" lon="-14.00841">
        <ele>170.4</ele>
        <time>2021-07-04 17:04:00</time>
      </trkpt>
      <trkpt lat="28.52525" lon="-14.00841">
        <ele>170</ele>
        <time>2021-07-04 17:04:01</time>
      </trkpt>
      <trkpt lat="28.52524" lon="-14.00842">
        <ele>169.4</ele>
        <time>2021-07-04 17:04:02</time>
      </trkpt>
      <trkpt lat="28.52524" lon="-14.00842">
        <ele>169.4</ele>
        <time>2021-07-04 17:04:03</time>
      </trkpt>
      <trkpt lat="28.52524" lon="-14.00842">
        <ele>169.4</ele>
        <time>2021-07-04 17:04:04</time>
      </trkpt>
      <trkpt lat="28.52523" lon="-14.00843">
        <ele>169.4</ele>
        <time>2021-07-04 17:04:05</time>
      </trkpt>
      <trkpt lat="28.52523" lon="-14.00843">
        <ele>169.4</ele>
        <time>2021-07-04 17:04:06</time>
      </trkpt>
      <trkpt lat="28.52522" lon="-14.00843">
        <ele>169.4</ele>
        <time>2021-07-04 17:04:07</time>
      </trkpt>
      <trkpt lat="28.52522" lon="-14.00844">
        <ele>169.8</ele>
        <time>2021-07-04 17:04:08</time>
      </trkpt>
      <trkpt lat="28.52521" lon="-14.00844">
        <ele>169.8</ele>
        <time>2021-07-04 17:04:09</time>
      </trkpt>
      <trkpt lat="28.52521" lon="-14.00844">
        <ele>169.8</ele>
        <time>2021-07-04 17:04:10</time>
      </trkpt>
      <trkpt lat="28.52521" lon="-14.00843">
        <ele>169.8</ele>
        <time>2021-07-04 17:04:11</time>
      </trkpt>
      <trkpt lat="28.52521" lon="-14.00844">
        <ele>169.8</ele>
        <time>2021-07-04 17:04:12</time>
      </trkpt>
      <trkpt lat="28.52519" lon="-14.00845">
        <ele>170.4</ele>
        <time>2021-07-04 17:04:13</time>
      </trkpt>
      <trkpt lat="28.52518" lon="-14.00846">
        <ele>170.2</ele>
        <time>2021-07-04 17:04:14</time>
      </trkpt>
      <trkpt lat="28.52517" lon="-14.00846">
        <ele>170.2</ele>
        <time>2021-07-04 17:04:15</time>
      </trkpt>
      <trkpt lat="28.52515" lon="-14.00846">
        <ele>170.2</ele>
        <time>2021-07-04 17:04:16</time>
      </trkpt>
      <trkpt lat="28.52514" lon="-14.00846">
        <ele>170.2</ele>
        <time>2021-07-04 17:04:17</time>
      </trkpt>
      <trkpt lat="28.52512" lon="-14.00847">
        <ele>170.2</ele>
        <time>2021-07-04 17:04:18</time>
      </trkpt>
      <trkpt lat="28.5251" lon="-14.00847">
        <ele>169.8</ele>
        <time>2021-07-04 17:04:19</time>
      </trkpt>
      <trkpt lat="28.52508" lon="-14.00847">
        <ele>169.8</ele>
        <time>2021-07-04 17:04:20</time>
      </trkpt>
      <trkpt lat="28.52506" lon="-14.00848">
        <ele>169.8</ele>
        <time>2021-07-04 17:04:21</time>
      </trkpt>
      <trkpt lat="28.52504" lon="-14.00848">
        <ele>169.8</ele>
        <time>2021-07-04 17:04:22</time>
      </trkpt>
      <trkpt lat="28.52501" lon="-14.00848">
        <ele>169.8</ele>
        <time>2021-07-04 17:04:23</time>
      </trkpt>
      <trkpt lat="28.52499" lon="-14.00848">
        <ele>169.8</ele>
        <time>2021-07-04 17:04:24</time>
      </trkpt>
      <trkpt lat="28.52496" lon="-14.00848">
        <ele>169.8</ele>
        <time>2021-07-04 17:04:25</time>
      </trkpt>
      <trkpt lat="28.52494" lon="-14.00849">
        <ele>169.8</ele>
        <time>2021-07-04 17:04:26</time>
      </trkpt>
      <trkpt lat="28.52491" lon="-14.00849">
        <ele>169.8</ele>
        <time>2021-07-04 17:04:27</time>
      </trkpt>
      <trkpt lat="28.52488" lon="-14.00849">
        <ele>169.8</ele>
        <time>2021-07-04 17:04:28</time>
      </trkpt>
      <trkpt lat="28.52486" lon="-14.0085">
        <ele>169.8</ele>
        <time>2021-07-04 17:04:29</time>
      </trkpt>
      <trkpt lat="28.52483" lon="-14.0085">
        <ele>169.8</ele>
        <time>2021-07-04 17:04:30</time>
      </trkpt>
      <trkpt lat="28.5248" lon="-14.00851">
        <ele>169.8</ele>
        <time>2021-07-04 17:04:31</time>
      </trkpt>
      <trkpt lat="28.52478" lon="-14.00851">
        <ele>169.8</ele>
        <time>2021-07-04 17:04:32</time>
      </trkpt>
      <trkpt lat="28.52476" lon="-14.00852">
        <ele>169.8</ele>
        <time>2021-07-04 17:04:33</time>
      </trkpt>
      <trkpt lat="28.52476" lon="-14.00852">
        <ele>169.8</ele>
        <time>2021-07-04 17:04:34</time>
      </trkpt>
      <trkpt lat="28.52476" lon="-14.00852">
        <ele>170.2</ele>
        <time>2021-07-04 17:04:35</time>
      </trkpt>
      <trkpt lat="28.52476" lon="-14.00852">
        <ele>170.2</ele>
        <time>2021-07-04 17:04:36</time>
      </trkpt>
      <trkpt lat="28.52476" lon="-14.00852">
        <ele>170.6</ele>
        <time>2021-07-04 17:04:37</time>
      </trkpt>
      <trkpt lat="28.52472" lon="-14.00856">
        <ele>171.2</ele>
        <time>2021-07-04 17:04:38</time>
      </trkpt>
      <trkpt lat="28.5247" lon="-14.00856">
        <ele>171.2</ele>
        <time>2021-07-04 17:04:39</time>
      </trkpt>
      <trkpt lat="28.52467" lon="-14.00857">
        <ele>171.2</ele>
        <time>2021-07-04 17:04:40</time>
      </trkpt>
      <trkpt lat="28.52464" lon="-14.00858">
        <ele>171.2</ele>
        <time>2021-07-04 17:04:41</time>
      </trkpt>
      <trkpt lat="28.52461" lon="-14.00859">
        <ele>171.2</ele>
        <time>2021-07-04 17:04:42</time>
      </trkpt>
      <trkpt lat="28.52458" lon="-14.0086">
        <ele>171</ele>
        <time>2021-07-04 17:04:43</time>
      </trkpt>
      <trkpt lat="28.52455" lon="-14.00861">
        <ele>171</ele>
        <time>2021-07-04 17:04:44</time>
      </trkpt>
      <trkpt lat="28.52451" lon="-14.00861">
        <ele>171</ele>
        <time>2021-07-04 17:04:45</time>
      </trkpt>
      <trkpt lat="28.52448" lon="-14.00862">
        <ele>171</ele>
        <time>2021-07-04 17:04:46</time>
      </trkpt>
      <trkpt lat="28.52444" lon="-14.00863">
        <ele>171</ele>
        <time>2021-07-04 17:04:47</time>
      </trkpt>
      <trkpt lat="28.52441" lon="-14.00864">
        <ele>171</ele>
        <time>2021-07-04 17:04:48</time>
      </trkpt>
      <trkpt lat="28.52438" lon="-14.00865">
        <ele>171</ele>
        <time>2021-07-04 17:04:49</time>
      </trkpt>
      <trkpt lat="28.52435" lon="-14.00865">
        <ele>171</ele>
        <time>2021-07-04 17:04:50</time>
      </trkpt>
      <trkpt lat="28.52431" lon="-14.00866">
        <ele>171.2</ele>
        <time>2021-07-04 17:04:51</time>
      </trkpt>
      <trkpt lat="28.52428" lon="-14.00867">
        <ele>171.2</ele>
        <time>2021-07-04 17:04:52</time>
      </trkpt>
      <trkpt lat="28.52424" lon="-14.00867">
        <ele>171.4</ele>
        <time>2021-07-04 17:04:53</time>
      </trkpt>
      <trkpt lat="28.52421" lon="-14.00868">
        <ele>171.4</ele>
        <time>2021-07-04 17:04:54</time>
      </trkpt>
      <trkpt lat="28.52417" lon="-14.00869">
        <ele>171.4</ele>
        <time>2021-07-04 17:04:55</time>
      </trkpt>
      <trkpt lat="28.52413" lon="-14.0087">
        <ele>171.6</ele>
        <time>2021-07-04 17:04:56</time>
      </trkpt>
      <trkpt lat="28.5241" lon="-14.00871">
        <ele>171.6</ele>
        <time>2021-07-04 17:04:57</time>
      </trkpt>
      <trkpt lat="28.52406" lon="-14.00872">
        <ele>171.6</ele>
        <time>2021-07-04 17:04:58</time>
      </trkpt>
      <trkpt lat="28.52403" lon="-14.00873">
        <ele>171.6</ele>
        <time>2021-07-04 17:04:59</time>
      </trkpt>
      <trkpt lat="28.524" lon="-14.00874">
        <ele>171.8</ele>
        <time>2021-07-04 17:05:00</time>
      </trkpt>
      <trkpt lat="28.52396" lon="-14.00875">
        <ele>171.8</ele>
        <time>2021-07-04 17:05:01</time>
      </trkpt>
      <trkpt lat="28.52392" lon="-14.00876">
        <ele>171.8</ele>
        <time>2021-07-04 17:05:02</time>
      </trkpt>
      <trkpt lat="28.52388" lon="-14.00877">
        <ele>171.8</ele>
        <time>2021-07-04 17:05:03</time>
      </trkpt>
      <trkpt lat="28.52385" lon="-14.00878">
        <ele>172.2</ele>
        <time>2021-07-04 17:05:04</time>
      </trkpt>
      <trkpt lat="28.52381" lon="-14.00879">
        <ele>172.2</ele>
        <time>2021-07-04 17:05:05</time>
      </trkpt>
      <trkpt lat="28.52377" lon="-14.0088">
        <ele>172.2</ele>
        <time>2021-07-04 17:05:06</time>
      </trkpt>
      <trkpt lat="28.52374" lon="-14.00882">
        <ele>172.2</ele>
        <time>2021-07-04 17:05:07</time>
      </trkpt>
      <trkpt lat="28.52371" lon="-14.00883">
        <ele>172.2</ele>
        <time>2021-07-04 17:05:08</time>
      </trkpt>
      <trkpt lat="28.52368" lon="-14.00885">
        <ele>172.2</ele>
        <time>2021-07-04 17:05:09</time>
      </trkpt>
      <trkpt lat="28.52365" lon="-14.00886">
        <ele>172.2</ele>
        <time>2021-07-04 17:05:10</time>
      </trkpt>
      <trkpt lat="28.52362" lon="-14.00887">
        <ele>172.2</ele>
        <time>2021-07-04 17:05:11</time>
      </trkpt>
      <trkpt lat="28.52358" lon="-14.00888">
        <ele>172.2</ele>
        <time>2021-07-04 17:05:12</time>
      </trkpt>
      <trkpt lat="28.52355" lon="-14.00889">
        <ele>172.2</ele>
        <time>2021-07-04 17:05:13</time>
      </trkpt>
      <trkpt lat="28.52353" lon="-14.0089">
        <ele>172.2</ele>
        <time>2021-07-04 17:05:14</time>
      </trkpt>
      <trkpt lat="28.5235" lon="-14.00891">
        <ele>172.2</ele>
        <time>2021-07-04 17:05:15</time>
      </trkpt>
      <trkpt lat="28.52347" lon="-14.00891">
        <ele>172.2</ele>
        <time>2021-07-04 17:05:16</time>
      </trkpt>
      <trkpt lat="28.52344" lon="-14.00892">
        <ele>172.2</ele>
        <time>2021-07-04 17:05:17</time>
      </trkpt>
      <trkpt lat="28.52342" lon="-14.00892">
        <ele>172.2</ele>
        <time>2021-07-04 17:05:18</time>
      </trkpt>
      <trkpt lat="28.52339" lon="-14.00893">
        <ele>172.2</ele>
        <time>2021-07-04 17:05:19</time>
      </trkpt>
      <trkpt lat="28.52336" lon="-14.00893">
        <ele>172.2</ele>
        <time>2021-07-04 17:05:20</time>
      </trkpt>
      <trkpt lat="28.52334" lon="-14.00894">
        <ele>172.2</ele>
        <time>2021-07-04 17:05:21</time>
      </trkpt>
      <trkpt lat="28.52331" lon="-14.00895">
        <ele>172.4</ele>
        <time>2021-07-04 17:05:22</time>
      </trkpt>
      <trkpt lat="28.52329" lon="-14.00896">
        <ele>172.4</ele>
        <time>2021-07-04 17:05:23</time>
      </trkpt>
      <trkpt lat="28.52326" lon="-14.00898">
        <ele>172.4</ele>
        <time>2021-07-04 17:05:24</time>
      </trkpt>
      <trkpt lat="28.52324" lon="-14.00899">
        <ele>172.8</ele>
        <time>2021-07-04 17:05:25</time>
      </trkpt>
      <trkpt lat="28.52321" lon="-14.009">
        <ele>172.8</ele>
        <time>2021-07-04 17:05:26</time>
      </trkpt>
      <trkpt lat="28.52318" lon="-14.00902">
        <ele>172.8</ele>
        <time>2021-07-04 17:05:27</time>
      </trkpt>
      <trkpt lat="28.52315" lon="-14.00903">
        <ele>172.8</ele>
        <time>2021-07-04 17:05:28</time>
      </trkpt>
      <trkpt lat="28.52312" lon="-14.00904">
        <ele>172.8</ele>
        <time>2021-07-04 17:05:29</time>
      </trkpt>
      <trkpt lat="28.52309" lon="-14.00905">
        <ele>173</ele>
        <time>2021-07-04 17:05:30</time>
      </trkpt>
      <trkpt lat="28.52305" lon="-14.00907">
        <ele>173</ele>
        <time>2021-07-04 17:05:31</time>
      </trkpt>
      <trkpt lat="28.52302" lon="-14.00908">
        <ele>173</ele>
        <time>2021-07-04 17:05:32</time>
      </trkpt>
      <trkpt lat="28.52298" lon="-14.00909">
        <ele>173</ele>
        <time>2021-07-04 17:05:33</time>
      </trkpt>
      <trkpt lat="28.52295" lon="-14.0091">
        <ele>173</ele>
        <time>2021-07-04 17:05:34</time>
      </trkpt>
      <trkpt lat="28.52292" lon="-14.00911">
        <ele>173</ele>
        <time>2021-07-04 17:05:35</time>
      </trkpt>
      <trkpt lat="28.52288" lon="-14.00912">
        <ele>173</ele>
        <time>2021-07-04 17:05:36</time>
      </trkpt>
      <trkpt lat="28.52285" lon="-14.00913">
        <ele>173</ele>
        <time>2021-07-04 17:05:37</time>
      </trkpt>
      <trkpt lat="28.52281" lon="-14.00914">
        <ele>173</ele>
        <time>2021-07-04 17:05:38</time>
      </trkpt>
      <trkpt lat="28.52278" lon="-14.00915">
        <ele>173</ele>
        <time>2021-07-04 17:05:39</time>
      </trkpt>
      <trkpt lat="28.52274" lon="-14.00917">
        <ele>173</ele>
        <time>2021-07-04 17:05:40</time>
      </trkpt>
      <trkpt lat="28.52271" lon="-14.00918">
        <ele>173</ele>
        <time>2021-07-04 17:05:41</time>
      </trkpt>
      <trkpt lat="28.52268" lon="-14.00919">
        <ele>173</ele>
        <time>2021-07-04 17:05:42</time>
      </trkpt>
      <trkpt lat="28.52264" lon="-14.0092">
        <ele>173</ele>
        <time>2021-07-04 17:05:43</time>
      </trkpt>
      <trkpt lat="28.52261" lon="-14.00921">
        <ele>173</ele>
        <time>2021-07-04 17:05:44</time>
      </trkpt>
      <trkpt lat="28.52258" lon="-14.00923">
        <ele>173</ele>
        <time>2021-07-04 17:16:53</time>
      </trkpt>
      <trkpt lat="28.52256" lon="-14.00924">
        <ele>173.2</ele>
        <time>2021-07-04 17:16:54</time>
      </trkpt>
      <trkpt lat="28.52253" lon="-14.00925">
        <ele>173.2</ele>
        <time>2021-07-04 17:16:55</time>
      </trkpt>
      <trkpt lat="28.52251" lon="-14.00926">
        <ele>173.2</ele>
        <time>2021-07-04 17:16:56</time>
      </trkpt>
      <trkpt lat="28.52249" lon="-14.00927">
        <ele>173.2</ele>
        <time>2021-07-04 17:16:57</time>
      </trkpt>
      <trkpt lat="28.52247" lon="-14.00928">
        <ele>173.4</ele>
        <time>2021-07-04 17:16:58</time>
      </trkpt>
      <trkpt lat="28.52245" lon="-14.00929">
        <ele>173.4</ele>
        <time>2021-07-04 17:17:03</time>
      </trkpt>
      <trkpt lat="28.52242" lon="-14.00929">
        <ele>173.4</ele>
        <time>2021-07-04 17:17:04</time>
      </trkpt>
      <trkpt lat="28.52239" lon="-14.0093">
        <ele>173.4</ele>
        <time>2021-07-04 17:17:05</time>
      </trkpt>
      <trkpt lat="28.52236" lon="-14.00931">
        <ele>173.6</ele>
        <time>2021-07-04 17:17:06</time>
      </trkpt>
      <trkpt lat="28.52233" lon="-14.00931">
        <ele>173.6</ele>
        <time>2021-07-04 17:17:07</time>
      </trkpt>
      <trkpt lat="28.52231" lon="-14.00932">
        <ele>173.6</ele>
        <time>2021-07-04 17:17:08</time>
      </trkpt>
      <trkpt lat="28.52229" lon="-14.00933">
        <ele>173.8</ele>
        <time>2021-07-04 17:17:09</time>
      </trkpt>
      <trkpt lat="28.52226" lon="-14.00935">
        <ele>173.8</ele>
        <time>2021-07-04 17:17:10</time>
      </trkpt>
      <trkpt lat="28.52223" lon="-14.00936">
        <ele>173.8</ele>
        <time>2021-07-04 17:17:11</time>
      </trkpt>
      <trkpt lat="28.5222" lon="-14.00937">
        <ele>173.8</ele>
        <time>2021-07-04 17:17:12</time>
      </trkpt>
      <trkpt lat="28.52217" lon="-14.00939">
        <ele>173.8</ele>
        <time>2021-07-04 17:17:13</time>
      </trkpt>
      <trkpt lat="28.52214" lon="-14.0094">
        <ele>174</ele>
        <time>2021-07-04 17:17:31</time>
      </trkpt>
      <trkpt lat="28.52211" lon="-14.00941">
        <ele>174</ele>
        <time>2021-07-04 17:17:32</time>
      </trkpt>
      <trkpt lat="28.52208" lon="-14.00943">
        <ele>174</ele>
        <time>2021-07-04 17:17:33</time>
      </trkpt>
      <trkpt lat="28.52206" lon="-14.00944">
        <ele>174</ele>
        <time>2021-07-04 17:17:34</time>
      </trkpt>
      <trkpt lat="28.52203" lon="-14.00945">
        <ele>174</ele>
        <time>2021-07-04 17:17:35</time>
      </trkpt>
      <trkpt lat="28.52201" lon="-14.00946">
        <ele>174</ele>
        <time>2021-07-04 17:17:36</time>
      </trkpt>
      <trkpt lat="28.52199" lon="-14.00947">
        <ele>174</ele>
        <time>2021-07-04 17:17:37</time>
      </trkpt>
      <trkpt lat="28.52197" lon="-14.00947">
        <ele>174</ele>
        <time>2021-07-04 17:17:38</time>
      </trkpt>
      <trkpt lat="28.52194" lon="-14.00948">
        <ele>174</ele>
        <time>2021-07-04 17:17:39</time>
      </trkpt>
      <trkpt lat="28.52192" lon="-14.00949">
        <ele>174</ele>
        <time>2021-07-04 17:17:40</time>
      </trkpt>
      <trkpt lat="28.52189" lon="-14.00949">
        <ele>174</ele>
        <time>2021-07-04 17:17:41</time>
      </trkpt>
      <trkpt lat="28.52187" lon="-14.0095">
        <ele>174.2</ele>
        <time>2021-07-04 17:17:42</time>
      </trkpt>
      <trkpt lat="28.52184" lon="-14.0095">
        <ele>174.2</ele>
        <time>2021-07-04 17:17:43</time>
      </trkpt>
      <trkpt lat="28.52181" lon="-14.0095">
        <ele>174.2</ele>
        <time>2021-07-04 17:17:44</time>
      </trkpt>
      <trkpt lat="28.52179" lon="-14.0095">
        <ele>174.2</ele>
        <time>2021-07-04 17:17:45</time>
      </trkpt>
      <trkpt lat="28.52176" lon="-14.0095">
        <ele>174.2</ele>
        <time>2021-07-04 17:17:46</time>
      </trkpt>
      <trkpt lat="28.52173" lon="-14.00951">
        <ele>174.6</ele>
        <time>2021-07-04 17:17:47</time>
      </trkpt>
      <trkpt lat="28.52171" lon="-14.00951">
        <ele>174.6</ele>
        <time>2021-07-04 17:17:48</time>
      </trkpt>
      <trkpt lat="28.52168" lon="-14.00953">
        <ele>174.6</ele>
        <time>2021-07-04 17:17:49</time>
      </trkpt>
      <trkpt lat="28.52165" lon="-14.00954">
        <ele>174.6</ele>
        <time>2021-07-04 17:17:50</time>
      </trkpt>
      <trkpt lat="28.52162" lon="-14.00955">
        <ele>174.8</ele>
        <time>2021-07-04 17:17:51</time>
      </trkpt>
      <trkpt lat="28.52159" lon="-14.00957">
        <ele>174.8</ele>
        <time>2021-07-04 17:17:52</time>
      </trkpt>
      <trkpt lat="28.52157" lon="-14.00958">
        <ele>175.2</ele>
        <time>2021-07-04 17:17:53</time>
      </trkpt>
      <trkpt lat="28.52155" lon="-14.00958">
        <ele>175.2</ele>
        <time>2021-07-04 17:17:54</time>
      </trkpt>
      <trkpt lat="28.52153" lon="-14.00959">
        <ele>175.2</ele>
        <time>2021-07-04 17:17:55</time>
      </trkpt>
      <trkpt lat="28.5215" lon="-14.0096">
        <ele>175.2</ele>
        <time>2021-07-04 17:18:04</time>
      </trkpt>
      <trkpt lat="28.52148" lon="-14.00961">
        <ele>175.2</ele>
        <time>2021-07-04 17:18:05</time>
      </trkpt>
      <trkpt lat="28.52145" lon="-14.00962">
        <ele>175.4</ele>
        <time>2021-07-04 17:18:06</time>
      </trkpt>
      <trkpt lat="28.52143" lon="-14.00963">
        <ele>175.4</ele>
        <time>2021-07-04 17:18:07</time>
      </trkpt>
      <trkpt lat="28.5214" lon="-14.00964">
        <ele>175.4</ele>
        <time>2021-07-04 17:18:08</time>
      </trkpt>
      <trkpt lat="28.52137" lon="-14.00965">
        <ele>175.4</ele>
        <time>2021-07-04 17:18:09</time>
      </trkpt>
      <trkpt lat="28.52135" lon="-14.00966">
        <ele>175.4</ele>
        <time>2021-07-04 17:18:10</time>
      </trkpt>
      <trkpt lat="28.52132" lon="-14.00967">
        <ele>175.4</ele>
        <time>2021-07-04 17:18:11</time>
      </trkpt>
      <trkpt lat="28.5213" lon="-14.00968">
        <ele>175.4</ele>
        <time>2021-07-04 17:18:12</time>
      </trkpt>
      <trkpt lat="28.52127" lon="-14.00969">
        <ele>175.4</ele>
        <time>2021-07-04 17:18:13</time>
      </trkpt>
      <trkpt lat="28.52126" lon="-14.0097">
        <ele>175.4</ele>
        <time>2021-07-04 17:18:14</time>
      </trkpt>
      <trkpt lat="28.52124" lon="-14.00971">
        <ele>175.4</ele>
        <time>2021-07-04 17:18:15</time>
      </trkpt>
      <trkpt lat="28.52121" lon="-14.00972">
        <ele>175.4</ele>
        <time>2021-07-04 17:18:16</time>
      </trkpt>
      <trkpt lat="28.52118" lon="-14.00972">
        <ele>175.4</ele>
        <time>2021-07-04 17:18:17</time>
      </trkpt>
      <trkpt lat="28.52116" lon="-14.00973">
        <ele>175.4</ele>
        <time>2021-07-04 17:18:18</time>
      </trkpt>
      <trkpt lat="28.52113" lon="-14.00973">
        <ele>175.8</ele>
        <time>2021-07-04 17:18:19</time>
      </trkpt>
      <trkpt lat="28.52111" lon="-14.00974">
        <ele>175.8</ele>
        <time>2021-07-04 17:18:20</time>
      </trkpt>
      <trkpt lat="28.52108" lon="-14.00974">
        <ele>175.8</ele>
        <time>2021-07-04 17:18:21</time>
      </trkpt>
      <trkpt lat="28.52106" lon="-14.00976">
        <ele>175.8</ele>
        <time>2021-07-04 17:18:22</time>
      </trkpt>
      <trkpt lat="28.52103" lon="-14.00977">
        <ele>175.8</ele>
        <time>2021-07-04 17:18:23</time>
      </trkpt>
      <trkpt lat="28.521" lon="-14.00978">
        <ele>175.8</ele>
        <time>2021-07-04 17:18:24</time>
      </trkpt>
      <trkpt lat="28.52097" lon="-14.00979">
        <ele>176</ele>
        <time>2021-07-04 17:18:25</time>
      </trkpt>
      <trkpt lat="28.52094" lon="-14.0098">
        <ele>176</ele>
        <time>2021-07-04 17:18:26</time>
      </trkpt>
      <trkpt lat="28.52091" lon="-14.00981">
        <ele>176</ele>
        <time>2021-07-04 17:18:27</time>
      </trkpt>
      <trkpt lat="28.52088" lon="-14.00982">
        <ele>176.4</ele>
        <time>2021-07-04 17:18:28</time>
      </trkpt>
      <trkpt lat="28.52085" lon="-14.00982">
        <ele>176.4</ele>
        <time>2021-07-04 17:18:29</time>
      </trkpt>
      <trkpt lat="28.52082" lon="-14.00983">
        <ele>176.4</ele>
        <time>2021-07-04 17:18:30</time>
      </trkpt>
      <trkpt lat="28.52079" lon="-14.00985">
        <ele>176.4</ele>
        <time>2021-07-04 17:18:31</time>
      </trkpt>
      <trkpt lat="28.52077" lon="-14.00986">
        <ele>176.4</ele>
        <time>2021-07-04 17:18:32</time>
      </trkpt>
      <trkpt lat="28.52074" lon="-14.00987">
        <ele>176.4</ele>
        <time>2021-07-04 17:18:33</time>
      </trkpt>
      <trkpt lat="28.52071" lon="-14.00987">
        <ele>176.4</ele>
        <time>2021-07-04 17:18:34</time>
      </trkpt>
      <trkpt lat="28.52068" lon="-14.00989">
        <ele>176.4</ele>
        <time>2021-07-04 17:18:35</time>
      </trkpt>
      <trkpt lat="28.52065" lon="-14.0099">
        <ele>176.4</ele>
        <time>2021-07-04 17:18:36</time>
      </trkpt>
      <trkpt lat="28.52062" lon="-14.00991">
        <ele>176.6</ele>
        <time>2021-07-04 17:18:37</time>
      </trkpt>
      <trkpt lat="28.52059" lon="-14.00992">
        <ele>176.6</ele>
        <time>2021-07-04 17:18:38</time>
      </trkpt>
      <trkpt lat="28.52057" lon="-14.00992">
        <ele>176.6</ele>
        <time>2021-07-04 17:18:39</time>
      </trkpt>
      <trkpt lat="28.52054" lon="-14.00993">
        <ele>176.8</ele>
        <time>2021-07-04 17:18:40</time>
      </trkpt>
      <trkpt lat="28.52051" lon="-14.00993">
        <ele>176.8</ele>
        <time>2021-07-04 17:18:41</time>
      </trkpt>
      <trkpt lat="28.52048" lon="-14.00994">
        <ele>176.8</ele>
        <time>2021-07-04 17:18:42</time>
      </trkpt>
      <trkpt lat="28.52044" lon="-14.00994">
        <ele>177.2</ele>
        <time>2021-07-04 17:18:43</time>
      </trkpt>
      <trkpt lat="28.52041" lon="-14.00995">
        <ele>177.2</ele>
        <time>2021-07-04 17:18:44</time>
      </trkpt>
      <trkpt lat="28.52038" lon="-14.00996">
        <ele>177.4</ele>
        <time>2021-07-04 17:18:45</time>
      </trkpt>
      <trkpt lat="28.52035" lon="-14.00997">
        <ele>177.4</ele>
        <time>2021-07-04 17:18:46</time>
      </trkpt>
      <trkpt lat="28.52031" lon="-14.00998">
        <ele>177.4</ele>
        <time>2021-07-04 17:18:47</time>
      </trkpt>
      <trkpt lat="28.52028" lon="-14.00999">
        <ele>177.4</ele>
        <time>2021-07-04 17:18:48</time>
      </trkpt>
      <trkpt lat="28.52025" lon="-14.01">
        <ele>177.4</ele>
        <time>2021-07-04 17:18:49</time>
      </trkpt>
      <trkpt lat="28.52022" lon="-14.01001">
        <ele>177.6</ele>
        <time>2021-07-04 17:18:50</time>
      </trkpt>
      <trkpt lat="28.52019" lon="-14.01002">
        <ele>177.6</ele>
        <time>2021-07-04 17:18:51</time>
      </trkpt>
      <trkpt lat="28.52015" lon="-14.01004">
        <ele>177.6</ele>
        <time>2021-07-04 17:18:52</time>
      </trkpt>
      <trkpt lat="28.52012" lon="-14.01005">
        <ele>177.6</ele>
        <time>2021-07-04 17:18:53</time>
      </trkpt>
      <trkpt lat="28.52009" lon="-14.01006">
        <ele>177.6</ele>
        <time>2021-07-04 17:18:54</time>
      </trkpt>
      <trkpt lat="28.52006" lon="-14.01007">
        <ele>177.6</ele>
        <time>2021-07-04 17:18:55</time>
      </trkpt>
      <trkpt lat="28.52004" lon="-14.01008">
        <ele>177.6</ele>
        <time>2021-07-04 17:18:56</time>
      </trkpt>
      <trkpt lat="28.52001" lon="-14.01009">
        <ele>177.6</ele>
        <time>2021-07-04 17:18:57</time>
      </trkpt>
      <trkpt lat="28.51999" lon="-14.0101">
        <ele>177.6</ele>
        <time>2021-07-04 17:18:58</time>
      </trkpt>
      <trkpt lat="28.51996" lon="-14.01011">
        <ele>177.8</ele>
        <time>2021-07-04 17:18:59</time>
      </trkpt>
      <trkpt lat="28.51993" lon="-14.01012">
        <ele>177.8</ele>
        <time>2021-07-04 17:19:00</time>
      </trkpt>
      <trkpt lat="28.51989" lon="-14.01013">
        <ele>177.8</ele>
        <time>2021-07-04 17:19:01</time>
      </trkpt>
      <trkpt lat="28.51986" lon="-14.01015">
        <ele>177.8</ele>
        <time>2021-07-04 17:19:02</time>
      </trkpt>
      <trkpt lat="28.51982" lon="-14.01016">
        <ele>177.8</ele>
        <time>2021-07-04 17:19:03</time>
      </trkpt>
      <trkpt lat="28.51978" lon="-14.01017">
        <ele>177.8</ele>
        <time>2021-07-04 17:19:04</time>
      </trkpt>
      <trkpt lat="28.51975" lon="-14.01019">
        <ele>177.8</ele>
        <time>2021-07-04 17:19:05</time>
      </trkpt>
      <trkpt lat="28.51971" lon="-14.0102">
        <ele>177.8</ele>
        <time>2021-07-04 17:19:06</time>
      </trkpt>
      <trkpt lat="28.51967" lon="-14.01021">
        <ele>177.8</ele>
        <time>2021-07-04 17:19:07</time>
      </trkpt>
      <trkpt lat="28.51963" lon="-14.01023">
        <ele>177.8</ele>
        <time>2021-07-04 17:19:08</time>
      </trkpt>
      <trkpt lat="28.51959" lon="-14.01024">
        <ele>177.8</ele>
        <time>2021-07-04 17:19:09</time>
      </trkpt>
      <trkpt lat="28.51955" lon="-14.01026">
        <ele>177.8</ele>
        <time>2021-07-04 17:19:10</time>
      </trkpt>
      <trkpt lat="28.51951" lon="-14.01028">
        <ele>177.8</ele>
        <time>2021-07-04 17:19:11</time>
      </trkpt>
      <trkpt lat="28.51947" lon="-14.01029">
        <ele>178.2</ele>
        <time>2021-07-04 17:19:12</time>
      </trkpt>
      <trkpt lat="28.51943" lon="-14.01031">
        <ele>178.2</ele>
        <time>2021-07-04 17:19:13</time>
      </trkpt>
      <trkpt lat="28.51939" lon="-14.01032">
        <ele>178.2</ele>
        <time>2021-07-04 17:19:14</time>
      </trkpt>
      <trkpt lat="28.51935" lon="-14.01033">
        <ele>178.2</ele>
        <time>2021-07-04 17:19:15</time>
      </trkpt>
      <trkpt lat="28.51932" lon="-14.01034">
        <ele>178.2</ele>
        <time>2021-07-04 17:19:16</time>
      </trkpt>
      <trkpt lat="28.51927" lon="-14.01036">
        <ele>178.2</ele>
        <time>2021-07-04 17:19:17</time>
      </trkpt>
      <trkpt lat="28.51923" lon="-14.01037">
        <ele>178.2</ele>
        <time>2021-07-04 17:19:18</time>
      </trkpt>
      <trkpt lat="28.51919" lon="-14.01039">
        <ele>178.2</ele>
        <time>2021-07-04 17:19:19</time>
      </trkpt>
      <trkpt lat="28.51915" lon="-14.0104">
        <ele>178.2</ele>
        <time>2021-07-04 17:19:20</time>
      </trkpt>
      <trkpt lat="28.51911" lon="-14.01042">
        <ele>178.2</ele>
        <time>2021-07-04 17:19:21</time>
      </trkpt>
      <trkpt lat="28.51907" lon="-14.01043">
        <ele>177.8</ele>
        <time>2021-07-04 17:19:22</time>
      </trkpt>
      <trkpt lat="28.51903" lon="-14.01045">
        <ele>177.8</ele>
        <time>2021-07-04 17:19:23</time>
      </trkpt>
      <trkpt lat="28.519" lon="-14.01046">
        <ele>177.8</ele>
        <time>2021-07-04 17:19:24</time>
      </trkpt>
      <trkpt lat="28.51896" lon="-14.01047">
        <ele>177.8</ele>
        <time>2021-07-04 17:19:25</time>
      </trkpt>
      <trkpt lat="28.51893" lon="-14.01047">
        <ele>177.8</ele>
        <time>2021-07-04 17:19:26</time>
      </trkpt>
      <trkpt lat="28.51889" lon="-14.01048">
        <ele>177.8</ele>
        <time>2021-07-04 17:19:27</time>
      </trkpt>
      <trkpt lat="28.51885" lon="-14.0105">
        <ele>177.8</ele>
        <time>2021-07-04 17:19:28</time>
      </trkpt>
      <trkpt lat="28.51882" lon="-14.01051">
        <ele>177.8</ele>
        <time>2021-07-04 17:19:29</time>
      </trkpt>
      <trkpt lat="28.51878" lon="-14.01053">
        <ele>177.8</ele>
        <time>2021-07-04 17:19:30</time>
      </trkpt>
      <trkpt lat="28.51874" lon="-14.01054">
        <ele>177.8</ele>
        <time>2021-07-04 17:19:31</time>
      </trkpt>
      <trkpt lat="28.5187" lon="-14.01055">
        <ele>177.8</ele>
        <time>2021-07-04 17:19:32</time>
      </trkpt>
      <trkpt lat="28.51865" lon="-14.01057">
        <ele>177.8</ele>
        <time>2021-07-04 17:19:33</time>
      </trkpt>
      <trkpt lat="28.51861" lon="-14.01058">
        <ele>177.6</ele>
        <time>2021-07-04 17:19:34</time>
      </trkpt>
      <trkpt lat="28.51857" lon="-14.01059">
        <ele>177.6</ele>
        <time>2021-07-04 17:19:35</time>
      </trkpt>
      <trkpt lat="28.51853" lon="-14.01061">
        <ele>177.6</ele>
        <time>2021-07-04 17:19:36</time>
      </trkpt>
      <trkpt lat="28.51849" lon="-14.01063">
        <ele>177.6</ele>
        <time>2021-07-04 17:19:37</time>
      </trkpt>
      <trkpt lat="28.51844" lon="-14.01064">
        <ele>177.6</ele>
        <time>2021-07-04 17:19:38</time>
      </trkpt>
      <trkpt lat="28.51841" lon="-14.01066">
        <ele>177.6</ele>
        <time>2021-07-04 17:19:39</time>
      </trkpt>
      <trkpt lat="28.51837" lon="-14.01067">
        <ele>177.6</ele>
        <time>2021-07-04 17:19:40</time>
      </trkpt>
      <trkpt lat="28.51833" lon="-14.01068">
        <ele>177.6</ele>
        <time>2021-07-04 17:19:41</time>
      </trkpt>
      <trkpt lat="28.51828" lon="-14.0107">
        <ele>177.6</ele>
        <time>2021-07-04 17:19:42</time>
      </trkpt>
      <trkpt lat="28.51824" lon="-14.01071">
        <ele>177.6</ele>
        <time>2021-07-04 17:19:43</time>
      </trkpt>
      <trkpt lat="28.5182" lon="-14.01073">
        <ele>177.6</ele>
        <time>2021-07-04 17:19:44</time>
      </trkpt>
      <trkpt lat="28.51816" lon="-14.01075">
        <ele>177.6</ele>
        <time>2021-07-04 17:19:45</time>
      </trkpt>
      <trkpt lat="28.51812" lon="-14.01076">
        <ele>177.6</ele>
        <time>2021-07-04 17:19:46</time>
      </trkpt>
      <trkpt lat="28.51808" lon="-14.01077">
        <ele>177.6</ele>
        <time>2021-07-04 17:19:47</time>
      </trkpt>
      <trkpt lat="28.51805" lon="-14.01078">
        <ele>177.6</ele>
        <time>2021-07-04 17:19:48</time>
      </trkpt>
      <trkpt lat="28.51801" lon="-14.01079">
        <ele>177.8</ele>
        <time>2021-07-04 17:19:49</time>
      </trkpt>
      <trkpt lat="28.51798" lon="-14.0108">
        <ele>177.8</ele>
        <time>2021-07-04 17:19:50</time>
      </trkpt>
      <trkpt lat="28.51794" lon="-14.01081">
        <ele>177.8</ele>
        <time>2021-07-04 17:19:51</time>
      </trkpt>
      <trkpt lat="28.5179" lon="-14.01083">
        <ele>177.8</ele>
        <time>2021-07-04 17:19:52</time>
      </trkpt>
      <trkpt lat="28.51786" lon="-14.01084">
        <ele>177.8</ele>
        <time>2021-07-04 17:19:53</time>
      </trkpt>
      <trkpt lat="28.51782" lon="-14.01086">
        <ele>177.8</ele>
        <time>2021-07-04 17:19:54</time>
      </trkpt>
      <trkpt lat="28.51778" lon="-14.01087">
        <ele>177.8</ele>
        <time>2021-07-04 17:19:55</time>
      </trkpt>
      <trkpt lat="28.51774" lon="-14.01089">
        <ele>177.8</ele>
        <time>2021-07-04 17:19:56</time>
      </trkpt>
      <trkpt lat="28.5177" lon="-14.0109">
        <ele>177.8</ele>
        <time>2021-07-04 17:19:57</time>
      </trkpt>
      <trkpt lat="28.51766" lon="-14.01092">
        <ele>177.8</ele>
        <time>2021-07-04 17:19:58</time>
      </trkpt>
      <trkpt lat="28.51763" lon="-14.01093">
        <ele>177.8</ele>
        <time>2021-07-04 17:19:59</time>
      </trkpt>
      <trkpt lat="28.51759" lon="-14.01094">
        <ele>177.8</ele>
        <time>2021-07-04 17:20:00</time>
      </trkpt>
      <trkpt lat="28.51755" lon="-14.01096">
        <ele>177.8</ele>
        <time>2021-07-04 17:20:01</time>
      </trkpt>
      <trkpt lat="28.51751" lon="-14.01098">
        <ele>178.2</ele>
        <time>2021-07-04 17:20:02</time>
      </trkpt>
      <trkpt lat="28.51747" lon="-14.011">
        <ele>178.2</ele>
        <time>2021-07-04 17:20:03</time>
      </trkpt>
      <trkpt lat="28.51743" lon="-14.01102">
        <ele>178.2</ele>
        <time>2021-07-04 17:20:04</time>
      </trkpt>
      <trkpt lat="28.5174" lon="-14.01104">
        <ele>178.2</ele>
        <time>2021-07-04 17:20:05</time>
      </trkpt>
      <trkpt lat="28.51736" lon="-14.01107">
        <ele>178.2</ele>
        <time>2021-07-04 17:20:06</time>
      </trkpt>
      <trkpt lat="28.51733" lon="-14.01109">
        <ele>178.2</ele>
        <time>2021-07-04 17:20:07</time>
      </trkpt>
      <trkpt lat="28.5173" lon="-14.01111">
        <ele>178.2</ele>
        <time>2021-07-04 17:20:08</time>
      </trkpt>
      <trkpt lat="28.51726" lon="-14.01112">
        <ele>178.2</ele>
        <time>2021-07-04 17:20:09</time>
      </trkpt>
      <trkpt lat="28.51723" lon="-14.01114">
        <ele>178.2</ele>
        <time>2021-07-04 17:20:10</time>
      </trkpt>
      <trkpt lat="28.5172" lon="-14.01115">
        <ele>178.2</ele>
        <time>2021-07-04 17:20:11</time>
      </trkpt>
      <trkpt lat="28.51716" lon="-14.01117">
        <ele>178.2</ele>
        <time>2021-07-04 17:20:12</time>
      </trkpt>
      <trkpt lat="28.51713" lon="-14.01119">
        <ele>178.2</ele>
        <time>2021-07-04 17:20:13</time>
      </trkpt>
      <trkpt lat="28.5171" lon="-14.01121">
        <ele>178.2</ele>
        <time>2021-07-04 17:20:14</time>
      </trkpt>
      <trkpt lat="28.51706" lon="-14.01122">
        <ele>178.2</ele>
        <time>2021-07-04 17:20:15</time>
      </trkpt>
      <trkpt lat="28.51703" lon="-14.01124">
        <ele>178.2</ele>
        <time>2021-07-04 17:20:16</time>
      </trkpt>
      <trkpt lat="28.517" lon="-14.01125">
        <ele>178.2</ele>
        <time>2021-07-04 17:20:17</time>
      </trkpt>
      <trkpt lat="28.51698" lon="-14.01127">
        <ele>178.2</ele>
        <time>2021-07-04 17:20:18</time>
      </trkpt>
      <trkpt lat="28.51695" lon="-14.01129">
        <ele>178.2</ele>
        <time>2021-07-04 17:20:19</time>
      </trkpt>
      <trkpt lat="28.51692" lon="-14.0113">
        <ele>178.2</ele>
        <time>2021-07-04 17:20:20</time>
      </trkpt>
      <trkpt lat="28.51689" lon="-14.01131">
        <ele>178.2</ele>
        <time>2021-07-04 17:20:21</time>
      </trkpt>
      <trkpt lat="28.51686" lon="-14.01133">
        <ele>178.2</ele>
        <time>2021-07-04 17:20:22</time>
      </trkpt>
      <trkpt lat="28.51682" lon="-14.01134">
        <ele>177.8</ele>
        <time>2021-07-04 17:20:23</time>
      </trkpt>
      <trkpt lat="28.51679" lon="-14.01135">
        <ele>177.8</ele>
        <time>2021-07-04 17:20:24</time>
      </trkpt>
      <trkpt lat="28.51675" lon="-14.01137">
        <ele>177.8</ele>
        <time>2021-07-04 17:20:25</time>
      </trkpt>
      <trkpt lat="28.51672" lon="-14.01138">
        <ele>177.8</ele>
        <time>2021-07-04 17:20:26</time>
      </trkpt>
      <trkpt lat="28.51668" lon="-14.0114">
        <ele>177.8</ele>
        <time>2021-07-04 17:20:27</time>
      </trkpt>
      <trkpt lat="28.51665" lon="-14.01142">
        <ele>177.8</ele>
        <time>2021-07-04 17:20:28</time>
      </trkpt>
      <trkpt lat="28.51661" lon="-14.01144">
        <ele>177.6</ele>
        <time>2021-07-04 17:20:29</time>
      </trkpt>
      <trkpt lat="28.51658" lon="-14.01145">
        <ele>177.6</ele>
        <time>2021-07-04 17:20:30</time>
      </trkpt>
      <trkpt lat="28.51655" lon="-14.01147">
        <ele>177.6</ele>
        <time>2021-07-04 17:20:31</time>
      </trkpt>
      <trkpt lat="28.51652" lon="-14.01149">
        <ele>177.4</ele>
        <time>2021-07-04 17:20:32</time>
      </trkpt>
      <trkpt lat="28.5165" lon="-14.0115">
        <ele>177.4</ele>
        <time>2021-07-04 17:20:33</time>
      </trkpt>
      <trkpt lat="28.51647" lon="-14.01152">
        <ele>177.4</ele>
        <time>2021-07-04 17:20:34</time>
      </trkpt>
      <trkpt lat="28.51644" lon="-14.01154">
        <ele>177.4</ele>
        <time>2021-07-04 17:20:35</time>
      </trkpt>
      <trkpt lat="28.51641" lon="-14.01155">
        <ele>177.2</ele>
        <time>2021-07-04 17:20:36</time>
      </trkpt>
      <trkpt lat="28.51638" lon="-14.01157">
        <ele>177.2</ele>
        <time>2021-07-04 17:20:37</time>
      </trkpt>
      <trkpt lat="28.51635" lon="-14.01158">
        <ele>177.2</ele>
        <time>2021-07-04 17:20:38</time>
      </trkpt>
      <trkpt lat="28.51633" lon="-14.01159">
        <ele>177</ele>
        <time>2021-07-04 17:20:39</time>
      </trkpt>
      <trkpt lat="28.5163" lon="-14.01159">
        <ele>177</ele>
        <time>2021-07-04 17:20:40</time>
      </trkpt>
      <trkpt lat="28.51626" lon="-14.0116">
        <ele>177</ele>
        <time>2021-07-04 17:20:41</time>
      </trkpt>
      <trkpt lat="28.51622" lon="-14.01162">
        <ele>177</ele>
        <time>2021-07-04 17:20:42</time>
      </trkpt>
      <trkpt lat="28.51619" lon="-14.01162">
        <ele>177</ele>
        <time>2021-07-04 17:20:43</time>
      </trkpt>
      <trkpt lat="28.51615" lon="-14.01163">
        <ele>177</ele>
        <time>2021-07-04 17:20:44</time>
      </trkpt>
      <trkpt lat="28.51611" lon="-14.01163">
        <ele>177</ele>
        <time>2021-07-04 17:20:45</time>
      </trkpt>
      <trkpt lat="28.51608" lon="-14.01163">
        <ele>177</ele>
        <time>2021-07-04 17:20:46</time>
      </trkpt>
      <trkpt lat="28.51604" lon="-14.01163">
        <ele>177</ele>
        <time>2021-07-04 17:20:47</time>
      </trkpt>
      <trkpt lat="28.51601" lon="-14.01164">
        <ele>177</ele>
        <time>2021-07-04 17:20:48</time>
      </trkpt>
      <trkpt lat="28.51598" lon="-14.01164">
        <ele>176.6</ele>
        <time>2021-07-04 17:20:49</time>
      </trkpt>
      <trkpt lat="28.51594" lon="-14.01164">
        <ele>176.6</ele>
        <time>2021-07-04 17:20:50</time>
      </trkpt>
      <trkpt lat="28.51591" lon="-14.01164">
        <ele>176.6</ele>
        <time>2021-07-04 17:20:51</time>
      </trkpt>
      <trkpt lat="28.51588" lon="-14.01165">
        <ele>176.6</ele>
        <time>2021-07-04 17:20:52</time>
      </trkpt>
      <trkpt lat="28.51585" lon="-14.01165">
        <ele>176.6</ele>
        <time>2021-07-04 17:20:53</time>
      </trkpt>
      <trkpt lat="28.51581" lon="-14.01167">
        <ele>176.6</ele>
        <time>2021-07-04 17:20:54</time>
      </trkpt>
      <trkpt lat="28.51578" lon="-14.01168">
        <ele>176.4</ele>
        <time>2021-07-04 17:20:55</time>
      </trkpt>
      <trkpt lat="28.51575" lon="-14.0117">
        <ele>176.4</ele>
        <time>2021-07-04 17:20:56</time>
      </trkpt>
      <trkpt lat="28.51573" lon="-14.01172">
        <ele>176.2</ele>
        <time>2021-07-04 17:20:57</time>
      </trkpt>
      <trkpt lat="28.5157" lon="-14.01174">
        <ele>176.2</ele>
        <time>2021-07-04 17:20:58</time>
      </trkpt>
      <trkpt lat="28.51568" lon="-14.01176">
        <ele>176.2</ele>
        <time>2021-07-04 17:20:59</time>
      </trkpt>
      <trkpt lat="28.51567" lon="-14.01178">
        <ele>176.2</ele>
        <time>2021-07-04 17:21:00</time>
      </trkpt>
      <trkpt lat="28.51566" lon="-14.0118">
        <ele>176.2</ele>
        <time>2021-07-04 17:21:01</time>
      </trkpt>
      <trkpt lat="28.51565" lon="-14.01181">
        <ele>175.8</ele>
        <time>2021-07-04 17:21:02</time>
      </trkpt>
      <trkpt lat="28.51564" lon="-14.01181">
        <ele>175.8</ele>
        <time>2021-07-04 17:21:03</time>
      </trkpt>
      <trkpt lat="28.51565" lon="-14.01181">
        <ele>175.8</ele>
        <time>2021-07-04 17:21:04</time>
      </trkpt>
      <trkpt lat="28.51564" lon="-14.01182">
        <ele>175.8</ele>
        <time>2021-07-04 17:21:05</time>
      </trkpt>
      <trkpt lat="28.51563" lon="-14.01183">
        <ele>177</ele>
        <time>2021-07-04 17:21:06</time>
      </trkpt>
      <trkpt lat="28.51561" lon="-14.01185">
        <ele>177</ele>
        <time>2021-07-04 17:21:07</time>
      </trkpt>
      <trkpt lat="28.5156" lon="-14.01187">
        <ele>176.6</ele>
        <time>2021-07-04 17:21:08</time>
      </trkpt>
      <trkpt lat="28.51558" lon="-14.01189">
        <ele>176.4</ele>
        <time>2021-07-04 17:21:09</time>
      </trkpt>
      <trkpt lat="28.51556" lon="-14.0119">
        <ele>176</ele>
        <time>2021-07-04 17:21:10</time>
      </trkpt>
      <trkpt lat="28.51554" lon="-14.01192">
        <ele>175.6</ele>
        <time>2021-07-04 17:21:11</time>
      </trkpt>
      <trkpt lat="28.51552" lon="-14.01193">
        <ele>175.2</ele>
        <time>2021-07-04 17:21:12</time>
      </trkpt>
      <trkpt lat="28.5155" lon="-14.01196">
        <ele>174.8</ele>
        <time>2021-07-04 17:21:13</time>
      </trkpt>
      <trkpt lat="28.51548" lon="-14.01199">
        <ele>174.4</ele>
        <time>2021-07-04 17:21:14</time>
      </trkpt>
      <trkpt lat="28.51546" lon="-14.01201">
        <ele>174</ele>
        <time>2021-07-04 17:21:15</time>
      </trkpt>
      <trkpt lat="28.51544" lon="-14.01203">
        <ele>173.8</ele>
        <time>2021-07-04 17:21:16</time>
      </trkpt>
      <trkpt lat="28.51543" lon="-14.01205">
        <ele>173.8</ele>
        <time>2021-07-04 17:21:17</time>
      </trkpt>
      <trkpt lat="28.51543" lon="-14.01207">
        <ele>173.8</ele>
        <time>2021-07-04 17:21:18</time>
      </trkpt>
      <trkpt lat="28.51543" lon="-14.01209">
        <ele>173.8</ele>
        <time>2021-07-04 17:21:19</time>
      </trkpt>
      <trkpt lat="28.51542" lon="-14.01212">
        <ele>173.8</ele>
        <time>2021-07-04 17:21:20</time>
      </trkpt>
      <trkpt lat="28.51541" lon="-14.01216">
        <ele>173.8</ele>
        <time>2021-07-04 17:21:21</time>
      </trkpt>
      <trkpt lat="28.51539" lon="-14.0122">
        <ele>173.8</ele>
        <time>2021-07-04 17:21:22</time>
      </trkpt>
      <trkpt lat="28.51537" lon="-14.01224">
        <ele>174.2</ele>
        <time>2021-07-04 17:21:23</time>
      </trkpt>
      <trkpt lat="28.51535" lon="-14.01227">
        <ele>174.2</ele>
        <time>2021-07-04 17:21:24</time>
      </trkpt>
      <trkpt lat="28.51532" lon="-14.0123">
        <ele>174.2</ele>
        <time>2021-07-04 17:21:25</time>
      </trkpt>
      <trkpt lat="28.5153" lon="-14.01233">
        <ele>174.2</ele>
        <time>2021-07-04 17:21:26</time>
      </trkpt>
      <trkpt lat="28.51527" lon="-14.01236">
        <ele>174.4</ele>
        <time>2021-07-04 17:21:27</time>
      </trkpt>
      <trkpt lat="28.51524" lon="-14.01238">
        <ele>174.4</ele>
        <time>2021-07-04 17:21:28</time>
      </trkpt>
      <trkpt lat="28.51521" lon="-14.01241">
        <ele>174.4</ele>
        <time>2021-07-04 17:21:29</time>
      </trkpt>
      <trkpt lat="28.51517" lon="-14.01243">
        <ele>174.4</ele>
        <time>2021-07-04 17:21:30</time>
      </trkpt>
      <trkpt lat="28.51514" lon="-14.01245">
        <ele>174.4</ele>
        <time>2021-07-04 17:21:31</time>
      </trkpt>
      <trkpt lat="28.51511" lon="-14.01247">
        <ele>174.4</ele>
        <time>2021-07-04 17:21:32</time>
      </trkpt>
      <trkpt lat="28.51508" lon="-14.01248">
        <ele>174.4</ele>
        <time>2021-07-04 17:21:33</time>
      </trkpt>
      <trkpt lat="28.51505" lon="-14.0125">
        <ele>174.4</ele>
        <time>2021-07-04 17:21:34</time>
      </trkpt>
      <trkpt lat="28.51502" lon="-14.01252">
        <ele>174.4</ele>
        <time>2021-07-04 17:21:35</time>
      </trkpt>
      <trkpt lat="28.51499" lon="-14.01254">
        <ele>174</ele>
        <time>2021-07-04 17:21:36</time>
      </trkpt>
      <trkpt lat="28.51496" lon="-14.01256">
        <ele>174</ele>
        <time>2021-07-04 17:21:37</time>
      </trkpt>
      <trkpt lat="28.51493" lon="-14.01258">
        <ele>174</ele>
        <time>2021-07-04 17:21:38</time>
      </trkpt>
      <trkpt lat="28.5149" lon="-14.0126">
        <ele>174</ele>
        <time>2021-07-04 17:21:39</time>
      </trkpt>
      <trkpt lat="28.51488" lon="-14.01262">
        <ele>174</ele>
        <time>2021-07-04 17:21:40</time>
      </trkpt>
      <trkpt lat="28.51485" lon="-14.01265">
        <ele>174.4</ele>
        <time>2021-07-04 17:21:41</time>
      </trkpt>
      <trkpt lat="28.51482" lon="-14.01267">
        <ele>174.4</ele>
        <time>2021-07-04 17:21:42</time>
      </trkpt>
      <trkpt lat="28.51478" lon="-14.01269">
        <ele>174.4</ele>
        <time>2021-07-04 17:21:43</time>
      </trkpt>
      <trkpt lat="28.51475" lon="-14.0127">
        <ele>174.4</ele>
        <time>2021-07-04 17:21:44</time>
      </trkpt>
      <trkpt lat="28.51472" lon="-14.01272">
        <ele>174.4</ele>
        <time>2021-07-04 17:21:45</time>
      </trkpt>
      <trkpt lat="28.51469" lon="-14.01274">
        <ele>174.4</ele>
        <time>2021-07-04 17:21:46</time>
      </trkpt>
      <trkpt lat="28.51466" lon="-14.01276">
        <ele>174.4</ele>
        <time>2021-07-04 17:21:47</time>
      </trkpt>
      <trkpt lat="28.51463" lon="-14.01278">
        <ele>174.4</ele>
        <time>2021-07-04 17:21:48</time>
      </trkpt>
      <trkpt lat="28.5146" lon="-14.0128">
        <ele>174.4</ele>
        <time>2021-07-04 17:21:49</time>
      </trkpt>
      <trkpt lat="28.51459" lon="-14.01282">
        <ele>174.6</ele>
        <time>2021-07-04 17:21:50</time>
      </trkpt>
      <trkpt lat="28.51459" lon="-14.01282">
        <ele>174.6</ele>
        <time>2021-07-04 17:21:51</time>
      </trkpt>
      <trkpt lat="28.51459" lon="-14.01282">
        <ele>174.8</ele>
        <time>2021-07-04 17:21:52</time>
      </trkpt>
      <trkpt lat="28.51458" lon="-14.01283">
        <ele>176.8</ele>
        <time>2021-07-04 17:21:53</time>
      </trkpt>
      <trkpt lat="28.51451" lon="-14.0129">
        <ele>175.4</ele>
        <time>2021-07-04 17:21:54</time>
      </trkpt>
      <trkpt lat="28.51449" lon="-14.01293">
        <ele>175</ele>
        <time>2021-07-04 17:21:55</time>
      </trkpt>
      <trkpt lat="28.51447" lon="-14.01295">
        <ele>174.8</ele>
        <time>2021-07-04 17:21:56</time>
      </trkpt>
      <trkpt lat="28.51445" lon="-14.01298">
        <ele>174.4</ele>
        <time>2021-07-04 17:21:57</time>
      </trkpt>
      <trkpt lat="28.51443" lon="-14.01301">
        <ele>174.4</ele>
        <time>2021-07-04 17:21:58</time>
      </trkpt>
      <trkpt lat="28.5144" lon="-14.01304">
        <ele>174.4</ele>
        <time>2021-07-04 17:21:59</time>
      </trkpt>
      <trkpt lat="28.51438" lon="-14.01306">
        <ele>174.4</ele>
        <time>2021-07-04 17:22:00</time>
      </trkpt>
      <trkpt lat="28.51437" lon="-14.01309">
        <ele>174.4</ele>
        <time>2021-07-04 17:22:01</time>
      </trkpt>
      <trkpt lat="28.51435" lon="-14.01312">
        <ele>174.4</ele>
        <time>2021-07-04 17:22:02</time>
      </trkpt>
      <trkpt lat="28.51434" lon="-14.01314">
        <ele>174.4</ele>
        <time>2021-07-04 17:22:03</time>
      </trkpt>
      <trkpt lat="28.51432" lon="-14.01316">
        <ele>174.8</ele>
        <time>2021-07-04 17:22:04</time>
      </trkpt>
      <trkpt lat="28.51429" lon="-14.01318">
        <ele>174.8</ele>
        <time>2021-07-04 17:22:05</time>
      </trkpt>
      <trkpt lat="28.51427" lon="-14.01321">
        <ele>174.8</ele>
        <time>2021-07-04 17:22:06</time>
      </trkpt>
      <trkpt lat="28.51424" lon="-14.01323">
        <ele>174.8</ele>
        <time>2021-07-04 17:22:07</time>
      </trkpt>
      <trkpt lat="28.51422" lon="-14.01326">
        <ele>174.8</ele>
        <time>2021-07-04 17:22:08</time>
      </trkpt>
      <trkpt lat="28.5142" lon="-14.01328">
        <ele>175</ele>
        <time>2021-07-04 17:22:09</time>
      </trkpt>
      <trkpt lat="28.51418" lon="-14.0133">
        <ele>175</ele>
        <time>2021-07-04 17:22:10</time>
      </trkpt>
      <trkpt lat="28.51416" lon="-14.01333">
        <ele>175</ele>
        <time>2021-07-04 17:22:11</time>
      </trkpt>
      <trkpt lat="28.51413" lon="-14.01336">
        <ele>175</ele>
        <time>2021-07-04 17:22:12</time>
      </trkpt>
      <trkpt lat="28.5141" lon="-14.01339">
        <ele>175</ele>
        <time>2021-07-04 17:22:13</time>
      </trkpt>
      <trkpt lat="28.51408" lon="-14.01341">
        <ele>175</ele>
        <time>2021-07-04 17:22:14</time>
      </trkpt>
      <trkpt lat="28.51405" lon="-14.01344">
        <ele>175</ele>
        <time>2021-07-04 17:22:15</time>
      </trkpt>
      <trkpt lat="28.51403" lon="-14.01347">
        <ele>175</ele>
        <time>2021-07-04 17:22:16</time>
      </trkpt>
      <trkpt lat="28.514" lon="-14.01351">
        <ele>175</ele>
        <time>2021-07-04 17:22:17</time>
      </trkpt>
      <trkpt lat="28.51397" lon="-14.01354">
        <ele>175</ele>
        <time>2021-07-04 17:22:18</time>
      </trkpt>
      <trkpt lat="28.51395" lon="-14.01358">
        <ele>175</ele>
        <time>2021-07-04 17:22:19</time>
      </trkpt>
      <trkpt lat="28.51392" lon="-14.01362">
        <ele>175</ele>
        <time>2021-07-04 17:22:20</time>
      </trkpt>
      <trkpt lat="28.51389" lon="-14.01365">
        <ele>175</ele>
        <time>2021-07-04 17:22:21</time>
      </trkpt>
      <trkpt lat="28.51387" lon="-14.01368">
        <ele>175</ele>
        <time>2021-07-04 17:22:22</time>
      </trkpt>
      <trkpt lat="28.51384" lon="-14.01371">
        <ele>175</ele>
        <time>2021-07-04 17:22:23</time>
      </trkpt>
      <trkpt lat="28.51382" lon="-14.01374">
        <ele>175.2</ele>
        <time>2021-07-04 17:22:24</time>
      </trkpt>
      <trkpt lat="28.51379" lon="-14.01377">
        <ele>175.2</ele>
        <time>2021-07-04 17:22:25</time>
      </trkpt>
      <trkpt lat="28.51377" lon="-14.01379">
        <ele>175.2</ele>
        <time>2021-07-04 17:22:26</time>
      </trkpt>
      <trkpt lat="28.51374" lon="-14.01382">
        <ele>175.2</ele>
        <time>2021-07-04 17:22:27</time>
      </trkpt>
      <trkpt lat="28.51372" lon="-14.01383">
        <ele>175.2</ele>
        <time>2021-07-04 17:22:28</time>
      </trkpt>
      <trkpt lat="28.51372" lon="-14.01383">
        <ele>175.2</ele>
        <time>2021-07-04 17:22:29</time>
      </trkpt>
      <trkpt lat="28.51367" lon="-14.01386">
        <ele>175.2</ele>
        <time>2021-07-04 17:22:30</time>
      </trkpt>
      <trkpt lat="28.51365" lon="-14.01388">
        <ele>175.2</ele>
        <time>2021-07-04 17:22:31</time>
      </trkpt>
      <trkpt lat="28.51362" lon="-14.0139">
        <ele>175.6</ele>
        <time>2021-07-04 17:22:32</time>
      </trkpt>
      <trkpt lat="28.5136" lon="-14.01391">
        <ele>175.8</ele>
        <time>2021-07-04 17:22:33</time>
      </trkpt>
      <trkpt lat="28.51358" lon="-14.01394">
        <ele>175.8</ele>
        <time>2021-07-04 17:22:34</time>
      </trkpt>
      <trkpt lat="28.51356" lon="-14.01396">
        <ele>175.8</ele>
        <time>2021-07-04 17:22:35</time>
      </trkpt>
      <trkpt lat="28.51354" lon="-14.01399">
        <ele>176.2</ele>
        <time>2021-07-04 17:22:36</time>
      </trkpt>
      <trkpt lat="28.51352" lon="-14.01402">
        <ele>176.2</ele>
        <time>2021-07-04 17:22:37</time>
      </trkpt>
      <trkpt lat="28.5135" lon="-14.01404">
        <ele>176.6</ele>
        <time>2021-07-04 17:22:38</time>
      </trkpt>
      <trkpt lat="28.51348" lon="-14.01406">
        <ele>176.6</ele>
        <time>2021-07-04 17:22:39</time>
      </trkpt>
      <trkpt lat="28.51345" lon="-14.01408">
        <ele>176.8</ele>
        <time>2021-07-04 17:22:40</time>
      </trkpt>
      <trkpt lat="28.51343" lon="-14.01409">
        <ele>177</ele>
        <time>2021-07-04 17:22:41</time>
      </trkpt>
      <trkpt lat="28.51341" lon="-14.01411">
        <ele>177.4</ele>
        <time>2021-07-04 17:22:42</time>
      </trkpt>
      <trkpt lat="28.51339" lon="-14.01411">
        <ele>177.6</ele>
        <time>2021-07-04 17:22:43</time>
      </trkpt>
      <trkpt lat="28.51338" lon="-14.01412">
        <ele>178</ele>
        <time>2021-07-04 17:22:44</time>
      </trkpt>
      <trkpt lat="28.51336" lon="-14.01413">
        <ele>178.2</ele>
        <time>2021-07-04 17:22:45</time>
      </trkpt>
      <trkpt lat="28.51334" lon="-14.01414">
        <ele>178.6</ele>
        <time>2021-07-04 17:22:46</time>
      </trkpt>
      <trkpt lat="28.51332" lon="-14.01416">
        <ele>179</ele>
        <time>2021-07-04 17:22:47</time>
      </trkpt>
      <trkpt lat="28.5133" lon="-14.01417">
        <ele>179.4</ele>
        <time>2021-07-04 17:22:48</time>
      </trkpt>
      <trkpt lat="28.51328" lon="-14.01418">
        <ele>179.6</ele>
        <time>2021-07-04 17:22:49</time>
      </trkpt>
      <trkpt lat="28.51327" lon="-14.01419">
        <ele>180</ele>
        <time>2021-07-04 17:22:50</time>
      </trkpt>
      <trkpt lat="28.51324" lon="-14.0142">
        <ele>180.2</ele>
        <time>2021-07-04 17:22:51</time>
      </trkpt>
      <trkpt lat="28.51322" lon="-14.01422">
        <ele>180.4</ele>
        <time>2021-07-04 17:22:52</time>
      </trkpt>
      <trkpt lat="28.5132" lon="-14.01423">
        <ele>180.6</ele>
        <time>2021-07-04 17:22:53</time>
      </trkpt>
      <trkpt lat="28.51319" lon="-14.01425">
        <ele>180.6</ele>
        <time>2021-07-04 17:22:54</time>
      </trkpt>
      <trkpt lat="28.51317" lon="-14.01428">
        <ele>181</ele>
        <time>2021-07-04 17:25:17</time>
      </trkpt>
      <trkpt lat="28.51315" lon="-14.01431">
        <ele>181</ele>
        <time>2021-07-04 17:25:18</time>
      </trkpt>
      <trkpt lat="28.51314" lon="-14.01434">
        <ele>181</ele>
        <time>2021-07-04 17:25:19</time>
      </trkpt>
      <trkpt lat="28.51312" lon="-14.01437">
        <ele>181</ele>
        <time>2021-07-04 17:25:20</time>
      </trkpt>
      <trkpt lat="28.51311" lon="-14.0144">
        <ele>181</ele>
        <time>2021-07-04 17:25:21</time>
      </trkpt>
      <trkpt lat="28.5131" lon="-14.01443">
        <ele>181</ele>
        <time>2021-07-04 17:25:22</time>
      </trkpt>
      <trkpt lat="28.51309" lon="-14.01447">
        <ele>181</ele>
        <time>2021-07-04 17:25:23</time>
      </trkpt>
      <trkpt lat="28.51309" lon="-14.01451">
        <ele>181</ele>
        <time>2021-07-04 17:25:24</time>
      </trkpt>
      <trkpt lat="28.51308" lon="-14.01454">
        <ele>181</ele>
        <time>2021-07-04 17:25:25</time>
      </trkpt>
      <trkpt lat="28.51306" lon="-14.01458">
        <ele>181</ele>
        <time>2021-07-04 17:25:26</time>
      </trkpt>
      <trkpt lat="28.51305" lon="-14.01461">
        <ele>181</ele>
        <time>2021-07-04 17:25:27</time>
      </trkpt>
      <trkpt lat="28.51303" lon="-14.01464">
        <ele>181</ele>
        <time>2021-07-04 17:25:28</time>
      </trkpt>
      <trkpt lat="28.513" lon="-14.01466">
        <ele>181</ele>
        <time>2021-07-04 17:25:29</time>
      </trkpt>
      <trkpt lat="28.51298" lon="-14.01469">
        <ele>181</ele>
        <time>2021-07-04 17:25:30</time>
      </trkpt>
      <trkpt lat="28.51295" lon="-14.01471">
        <ele>181</ele>
        <time>2021-07-04 17:25:31</time>
      </trkpt>
      <trkpt lat="28.51292" lon="-14.01473">
        <ele>181</ele>
        <time>2021-07-04 17:25:32</time>
      </trkpt>
      <trkpt lat="28.5129" lon="-14.01475">
        <ele>181</ele>
        <time>2021-07-04 17:25:33</time>
      </trkpt>
      <trkpt lat="28.51287" lon="-14.01477">
        <ele>181</ele>
        <time>2021-07-04 17:25:34</time>
      </trkpt>
      <trkpt lat="28.51284" lon="-14.01479">
        <ele>181</ele>
        <time>2021-07-04 17:25:35</time>
      </trkpt>
      <trkpt lat="28.51281" lon="-14.01481">
        <ele>181</ele>
        <time>2021-07-04 17:25:36</time>
      </trkpt>
      <trkpt lat="28.51278" lon="-14.01483">
        <ele>181</ele>
        <time>2021-07-04 17:25:37</time>
      </trkpt>
      <trkpt lat="28.51275" lon="-14.01485">
        <ele>181</ele>
        <time>2021-07-04 17:25:38</time>
      </trkpt>
      <trkpt lat="28.51272" lon="-14.01486">
        <ele>181</ele>
        <time>2021-07-04 17:25:39</time>
      </trkpt>
      <trkpt lat="28.51269" lon="-14.01488">
        <ele>181</ele>
        <time>2021-07-04 17:25:40</time>
      </trkpt>
      <trkpt lat="28.51267" lon="-14.01489">
        <ele>181.2</ele>
        <time>2021-07-04 17:25:41</time>
      </trkpt>
      <trkpt lat="28.51264" lon="-14.01491">
        <ele>181.2</ele>
        <time>2021-07-04 17:25:42</time>
      </trkpt>
      <trkpt lat="28.51262" lon="-14.01492">
        <ele>181.2</ele>
        <time>2021-07-04 17:25:43</time>
      </trkpt>
      <trkpt lat="28.51259" lon="-14.01494">
        <ele>181.6</ele>
        <time>2021-07-04 17:25:44</time>
      </trkpt>
      <trkpt lat="28.51256" lon="-14.01495">
        <ele>181.6</ele>
        <time>2021-07-04 17:25:45</time>
      </trkpt>
      <trkpt lat="28.51254" lon="-14.01497">
        <ele>181.8</ele>
        <time>2021-07-04 17:25:46</time>
      </trkpt>
      <trkpt lat="28.51251" lon="-14.01498">
        <ele>181.8</ele>
        <time>2021-07-04 17:25:47</time>
      </trkpt>
      <trkpt lat="28.51248" lon="-14.015">
        <ele>182.2</ele>
        <time>2021-07-04 17:25:48</time>
      </trkpt>
      <trkpt lat="28.51245" lon="-14.01502">
        <ele>182.2</ele>
        <time>2021-07-04 17:25:49</time>
      </trkpt>
      <trkpt lat="28.51243" lon="-14.01504">
        <ele>182.6</ele>
        <time>2021-07-04 17:25:50</time>
      </trkpt>
      <trkpt lat="28.51241" lon="-14.01506">
        <ele>182.8</ele>
        <time>2021-07-04 17:25:51</time>
      </trkpt>
      <trkpt lat="28.51239" lon="-14.01508">
        <ele>182.8</ele>
        <time>2021-07-04 17:25:52</time>
      </trkpt>
      <trkpt lat="28.51238" lon="-14.01511">
        <ele>183.4</ele>
        <time>2021-07-04 17:25:53</time>
      </trkpt>
      <trkpt lat="28.51237" lon="-14.01514">
        <ele>183.6</ele>
        <time>2021-07-04 17:25:54</time>
      </trkpt>
      <trkpt lat="28.51236" lon="-14.01517">
        <ele>184</ele>
        <time>2021-07-04 17:25:55</time>
      </trkpt>
      <trkpt lat="28.51236" lon="-14.01519">
        <ele>184.4</ele>
        <time>2021-07-04 17:25:56</time>
      </trkpt>
      <trkpt lat="28.51236" lon="-14.01522">
        <ele>184.8</ele>
        <time>2021-07-04 17:25:57</time>
      </trkpt>
      <trkpt lat="28.51235" lon="-14.01525">
        <ele>185</ele>
        <time>2021-07-04 17:25:58</time>
      </trkpt>
      <trkpt lat="28.51235" lon="-14.01528">
        <ele>185.4</ele>
        <time>2021-07-04 17:25:59</time>
      </trkpt>
      <trkpt lat="28.51235" lon="-14.01531">
        <ele>185.8</ele>
        <time>2021-07-04 17:26:00</time>
      </trkpt>
      <trkpt lat="28.51234" lon="-14.01534">
        <ele>186</ele>
        <time>2021-07-04 17:26:01</time>
      </trkpt>
      <trkpt lat="28.51234" lon="-14.01537">
        <ele>186.4</ele>
        <time>2021-07-04 17:26:02</time>
      </trkpt>
      <trkpt lat="28.51234" lon="-14.01541">
        <ele>186.4</ele>
        <time>2021-07-04 17:26:03</time>
      </trkpt>
      <trkpt lat="28.51234" lon="-14.01545">
        <ele>186.4</ele>
        <time>2021-07-04 17:28:40</time>
      </trkpt>
      <trkpt lat="28.51234" lon="-14.01549">
        <ele>186.4</ele>
        <time>2021-07-04 17:28:41</time>
      </trkpt>
      <trkpt lat="28.51233" lon="-14.01553">
        <ele>186.4</ele>
        <time>2021-07-04 17:28:42</time>
      </trkpt>
      <trkpt lat="28.51233" lon="-14.01557">
        <ele>186</ele>
        <time>2021-07-04 17:28:43</time>
      </trkpt>
      <trkpt lat="28.51232" lon="-14.01561">
        <ele>186</ele>
        <time>2021-07-04 17:28:44</time>
      </trkpt>
      <trkpt lat="28.51231" lon="-14.01564">
        <ele>186</ele>
        <time>2021-07-04 17:28:45</time>
      </trkpt>
      <trkpt lat="28.51229" lon="-14.01568">
        <ele>185.8</ele>
        <time>2021-07-04 17:28:46</time>
      </trkpt>
      <trkpt lat="28.51227" lon="-14.01571">
        <ele>185.8</ele>
        <time>2021-07-04 17:28:47</time>
      </trkpt>
      <trkpt lat="28.51225" lon="-14.01574">
        <ele>185.6</ele>
        <time>2021-07-04 17:28:48</time>
      </trkpt>
      <trkpt lat="28.51223" lon="-14.01576">
        <ele>185.6</ele>
        <time>2021-07-04 17:28:49</time>
      </trkpt>
      <trkpt lat="28.51221" lon="-14.01579">
        <ele>185.2</ele>
        <time>2021-07-04 17:28:50</time>
      </trkpt>
      <trkpt lat="28.51219" lon="-14.01582">
        <ele>185.2</ele>
        <time>2021-07-04 17:28:51</time>
      </trkpt>
      <trkpt lat="28.51217" lon="-14.01585">
        <ele>184.8</ele>
        <time>2021-07-04 17:28:52</time>
      </trkpt>
      <trkpt lat="28.51215" lon="-14.01588">
        <ele>184.8</ele>
        <time>2021-07-04 17:28:53</time>
      </trkpt>
      <trkpt lat="28.51213" lon="-14.01591">
        <ele>184.4</ele>
        <time>2021-07-04 17:28:54</time>
      </trkpt>
      <trkpt lat="28.5121" lon="-14.01594">
        <ele>184.4</ele>
        <time>2021-07-04 17:28:55</time>
      </trkpt>
      <trkpt lat="28.51207" lon="-14.01596">
        <ele>184</ele>
        <time>2021-07-04 17:28:56</time>
      </trkpt>
      <trkpt lat="28.51204" lon="-14.01599">
        <ele>183.8</ele>
        <time>2021-07-04 17:28:57</time>
      </trkpt>
      <trkpt lat="28.51201" lon="-14.01602">
        <ele>183.6</ele>
        <time>2021-07-04 17:28:58</time>
      </trkpt>
      <trkpt lat="28.51198" lon="-14.01605">
        <ele>183.4</ele>
        <time>2021-07-04 17:28:59</time>
      </trkpt>
      <trkpt lat="28.51195" lon="-14.01608">
        <ele>183</ele>
        <time>2021-07-04 17:29:00</time>
      </trkpt>
      <trkpt lat="28.51192" lon="-14.0161">
        <ele>183</ele>
        <time>2021-07-04 17:29:01</time>
      </trkpt>
      <trkpt lat="28.51189" lon="-14.01612">
        <ele>182.6</ele>
        <time>2021-07-04 17:29:02</time>
      </trkpt>
      <trkpt lat="28.51186" lon="-14.01615">
        <ele>182.4</ele>
        <time>2021-07-04 17:29:03</time>
      </trkpt>
      <trkpt lat="28.51183" lon="-14.01617">
        <ele>182.2</ele>
        <time>2021-07-04 17:29:04</time>
      </trkpt>
      <trkpt lat="28.5118" lon="-14.01619">
        <ele>182.2</ele>
        <time>2021-07-04 17:29:05</time>
      </trkpt>
      <trkpt lat="28.51177" lon="-14.0162">
        <ele>181.8</ele>
        <time>2021-07-04 17:29:06</time>
      </trkpt>
      <trkpt lat="28.51174" lon="-14.01622">
        <ele>181.8</ele>
        <time>2021-07-04 17:29:07</time>
      </trkpt>
      <trkpt lat="28.51172" lon="-14.01623">
        <ele>181.8</ele>
        <time>2021-07-04 17:29:08</time>
      </trkpt>
      <trkpt lat="28.51169" lon="-14.01624">
        <ele>181.6</ele>
        <time>2021-07-04 17:29:09</time>
      </trkpt>
      <trkpt lat="28.51165" lon="-14.01625">
        <ele>181.6</ele>
        <time>2021-07-04 17:29:10</time>
      </trkpt>
      <trkpt lat="28.51161" lon="-14.01627">
        <ele>181.6</ele>
        <time>2021-07-04 17:29:11</time>
      </trkpt>
      <trkpt lat="28.51157" lon="-14.01628">
        <ele>181.4</ele>
        <time>2021-07-04 17:29:12</time>
      </trkpt>
      <trkpt lat="28.51154" lon="-14.01628">
        <ele>181.4</ele>
        <time>2021-07-04 17:29:13</time>
      </trkpt>
      <trkpt lat="28.5115" lon="-14.0163">
        <ele>181.4</ele>
        <time>2021-07-04 17:29:14</time>
      </trkpt>
      <trkpt lat="28.51147" lon="-14.01631">
        <ele>181.4</ele>
        <time>2021-07-04 17:29:15</time>
      </trkpt>
      <trkpt lat="28.51144" lon="-14.01633">
        <ele>181.2</ele>
        <time>2021-07-04 17:29:16</time>
      </trkpt>
      <trkpt lat="28.5114" lon="-14.01634">
        <ele>181.2</ele>
        <time>2021-07-04 17:29:17</time>
      </trkpt>
      <trkpt lat="28.51137" lon="-14.01636">
        <ele>181.2</ele>
        <time>2021-07-04 17:29:18</time>
      </trkpt>
      <trkpt lat="28.51134" lon="-14.01637">
        <ele>181.2</ele>
        <time>2021-07-04 17:29:19</time>
      </trkpt>
      <trkpt lat="28.51131" lon="-14.01639">
        <ele>181.2</ele>
        <time>2021-07-04 17:29:20</time>
      </trkpt>
      <trkpt lat="28.51127" lon="-14.01642">
        <ele>181.2</ele>
        <time>2021-07-04 17:29:21</time>
      </trkpt>
      <trkpt lat="28.51124" lon="-14.01643">
        <ele>181.2</ele>
        <time>2021-07-04 17:29:22</time>
      </trkpt>
      <trkpt lat="28.51121" lon="-14.01645">
        <ele>180.8</ele>
        <time>2021-07-04 17:29:23</time>
      </trkpt>
      <trkpt lat="28.51117" lon="-14.01647">
        <ele>180.8</ele>
        <time>2021-07-04 17:29:24</time>
      </trkpt>
      <trkpt lat="28.51114" lon="-14.01649">
        <ele>180.8</ele>
        <time>2021-07-04 17:29:25</time>
      </trkpt>
      <trkpt lat="28.51111" lon="-14.0165">
        <ele>180.8</ele>
        <time>2021-07-04 17:29:26</time>
      </trkpt>
      <trkpt lat="28.51108" lon="-14.01652">
        <ele>180.8</ele>
        <time>2021-07-04 17:29:27</time>
      </trkpt>
      <trkpt lat="28.51106" lon="-14.01653">
        <ele>180.8</ele>
        <time>2021-07-04 17:29:28</time>
      </trkpt>
      <trkpt lat="28.51102" lon="-14.01655">
        <ele>180.8</ele>
        <time>2021-07-04 17:29:29</time>
      </trkpt>
      <trkpt lat="28.51099" lon="-14.01657">
        <ele>180.8</ele>
        <time>2021-07-04 17:29:30</time>
      </trkpt>
      <trkpt lat="28.51097" lon="-14.01658">
        <ele>180.8</ele>
        <time>2021-07-04 17:29:31</time>
      </trkpt>
      <trkpt lat="28.51094" lon="-14.0166">
        <ele>180.8</ele>
        <time>2021-07-04 17:29:32</time>
      </trkpt>
      <trkpt lat="28.51092" lon="-14.01661">
        <ele>180.8</ele>
        <time>2021-07-04 17:29:33</time>
      </trkpt>
      <trkpt lat="28.51089" lon="-14.01663">
        <ele>180.8</ele>
        <time>2021-07-04 17:29:34</time>
      </trkpt>
      <trkpt lat="28.51086" lon="-14.01664">
        <ele>180.8</ele>
        <time>2021-07-04 17:29:35</time>
      </trkpt>
      <trkpt lat="28.51083" lon="-14.01667">
        <ele>180.8</ele>
        <time>2021-07-04 17:29:36</time>
      </trkpt>
      <trkpt lat="28.51079" lon="-14.01669">
        <ele>180.6</ele>
        <time>2021-07-04 17:29:37</time>
      </trkpt>
      <trkpt lat="28.51076" lon="-14.01671">
        <ele>180.6</ele>
        <time>2021-07-04 17:29:38</time>
      </trkpt>
      <trkpt lat="28.51072" lon="-14.01672">
        <ele>180.2</ele>
        <time>2021-07-04 17:29:39</time>
      </trkpt>
      <trkpt lat="28.51069" lon="-14.01674">
        <ele>180</ele>
        <time>2021-07-04 17:29:40</time>
      </trkpt>
      <trkpt lat="28.51066" lon="-14.01676">
        <ele>179.6</ele>
        <time>2021-07-04 17:29:41</time>
      </trkpt>
      <trkpt lat="28.51062" lon="-14.01677">
        <ele>179.6</ele>
        <time>2021-07-04 17:29:42</time>
      </trkpt>
      <trkpt lat="28.51059" lon="-14.01678">
        <ele>179.4</ele>
        <time>2021-07-04 17:29:43</time>
      </trkpt>
      <trkpt lat="28.51056" lon="-14.0168">
        <ele>179.2</ele>
        <time>2021-07-04 17:29:44</time>
      </trkpt>
      <trkpt lat="28.51053" lon="-14.01681">
        <ele>179.2</ele>
        <time>2021-07-04 17:29:45</time>
      </trkpt>
      <trkpt lat="28.5105" lon="-14.01682">
        <ele>179.2</ele>
        <time>2021-07-04 17:29:46</time>
      </trkpt>
      <trkpt lat="28.51047" lon="-14.01684">
        <ele>179.2</ele>
        <time>2021-07-04 17:29:47</time>
      </trkpt>
      <trkpt lat="28.51043" lon="-14.01685">
        <ele>179.2</ele>
        <time>2021-07-04 17:29:48</time>
      </trkpt>
      <trkpt lat="28.5104" lon="-14.01687">
        <ele>179.2</ele>
        <time>2021-07-04 17:29:49</time>
      </trkpt>
      <trkpt lat="28.51037" lon="-14.01688">
        <ele>179.2</ele>
        <time>2021-07-04 17:29:50</time>
      </trkpt>
      <trkpt lat="28.51033" lon="-14.0169">
        <ele>179.2</ele>
        <time>2021-07-04 17:29:51</time>
      </trkpt>
      <trkpt lat="28.51029" lon="-14.01692">
        <ele>179.2</ele>
        <time>2021-07-04 17:29:52</time>
      </trkpt>
      <trkpt lat="28.51026" lon="-14.01694">
        <ele>178.8</ele>
        <time>2021-07-04 17:29:53</time>
      </trkpt>
      <trkpt lat="28.51022" lon="-14.01696">
        <ele>178.8</ele>
        <time>2021-07-04 17:29:54</time>
      </trkpt>
      <trkpt lat="28.51018" lon="-14.01698">
        <ele>178.4</ele>
        <time>2021-07-04 17:29:55</time>
      </trkpt>
      <trkpt lat="28.51014" lon="-14.01701">
        <ele>178.4</ele>
        <time>2021-07-04 17:29:56</time>
      </trkpt>
      <trkpt lat="28.5101" lon="-14.01702">
        <ele>178.2</ele>
        <time>2021-07-04 17:29:57</time>
      </trkpt>
      <trkpt lat="28.51006" lon="-14.01705">
        <ele>178.2</ele>
        <time>2021-07-04 17:29:58</time>
      </trkpt>
      <trkpt lat="28.51003" lon="-14.01708">
        <ele>178.2</ele>
        <time>2021-07-04 17:29:59</time>
      </trkpt>
      <trkpt lat="28.50999" lon="-14.0171">
        <ele>177.8</ele>
        <time>2021-07-04 17:30:00</time>
      </trkpt>
      <trkpt lat="28.50995" lon="-14.01712">
        <ele>177.8</ele>
        <time>2021-07-04 17:30:01</time>
      </trkpt>
      <trkpt lat="28.50991" lon="-14.01714">
        <ele>177.4</ele>
        <time>2021-07-04 17:30:02</time>
      </trkpt>
      <trkpt lat="28.50987" lon="-14.01716">
        <ele>177.4</ele>
        <time>2021-07-04 17:30:03</time>
      </trkpt>
      <trkpt lat="28.50983" lon="-14.01719">
        <ele>177.2</ele>
        <time>2021-07-04 17:30:04</time>
      </trkpt>
      <trkpt lat="28.50979" lon="-14.01722">
        <ele>177.2</ele>
        <time>2021-07-04 17:30:05</time>
      </trkpt>
      <trkpt lat="28.50975" lon="-14.01724">
        <ele>177</ele>
        <time>2021-07-04 17:30:06</time>
      </trkpt>
      <trkpt lat="28.50972" lon="-14.01726">
        <ele>177</ele>
        <time>2021-07-04 17:30:07</time>
      </trkpt>
      <trkpt lat="28.50967" lon="-14.01728">
        <ele>176.6</ele>
        <time>2021-07-04 17:30:08</time>
      </trkpt>
      <trkpt lat="28.50964" lon="-14.0173">
        <ele>176.4</ele>
        <time>2021-07-04 17:30:09</time>
      </trkpt>
      <trkpt lat="28.5096" lon="-14.0173">
        <ele>176.2</ele>
        <time>2021-07-04 17:30:10</time>
      </trkpt>
      <trkpt lat="28.50956" lon="-14.0173">
        <ele>176</ele>
        <time>2021-07-04 17:30:11</time>
      </trkpt>
      <trkpt lat="28.50953" lon="-14.01727">
        <ele>175.6</ele>
        <time>2021-07-04 17:30:12</time>
      </trkpt>
      <trkpt lat="28.50949" lon="-14.01725">
        <ele>175.6</ele>
        <time>2021-07-04 17:30:13</time>
      </trkpt>
      <trkpt lat="28.50946" lon="-14.01723">
        <ele>175.4</ele>
        <time>2021-07-04 17:30:14</time>
      </trkpt>
      <trkpt lat="28.50942" lon="-14.01721">
        <ele>175.4</ele>
        <time>2021-07-04 17:30:15</time>
      </trkpt>
      <trkpt lat="28.50939" lon="-14.01718">
        <ele>175.4</ele>
        <time>2021-07-04 17:30:16</time>
      </trkpt>
      <trkpt lat="28.50936" lon="-14.01716">
        <ele>175.4</ele>
        <time>2021-07-04 17:30:17</time>
      </trkpt>
      <trkpt lat="28.50932" lon="-14.01714">
        <ele>175.4</ele>
        <time>2021-07-04 17:30:18</time>
      </trkpt>
      <trkpt lat="28.50929" lon="-14.01711">
        <ele>175.4</ele>
        <time>2021-07-04 17:30:19</time>
      </trkpt>
      <trkpt lat="28.50926" lon="-14.01709">
        <ele>175.4</ele>
        <time>2021-07-04 17:30:20</time>
      </trkpt>
      <trkpt lat="28.50923" lon="-14.01707">
        <ele>175.4</ele>
        <time>2021-07-04 17:30:21</time>
      </trkpt>
      <trkpt lat="28.50919" lon="-14.01704">
        <ele>175.2</ele>
        <time>2021-07-04 17:30:22</time>
      </trkpt>
      <trkpt lat="28.50916" lon="-14.01702">
        <ele>175.2</ele>
        <time>2021-07-04 17:30:23</time>
      </trkpt>
      <trkpt lat="28.50912" lon="-14.01701">
        <ele>175.2</ele>
        <time>2021-07-04 17:30:24</time>
      </trkpt>
      <trkpt lat="28.50909" lon="-14.01699">
        <ele>175.2</ele>
        <time>2021-07-04 17:30:25</time>
      </trkpt>
      <trkpt lat="28.50905" lon="-14.01697">
        <ele>175.2</ele>
        <time>2021-07-04 17:30:26</time>
      </trkpt>
      <trkpt lat="28.50901" lon="-14.01695">
        <ele>175</ele>
        <time>2021-07-04 17:30:27</time>
      </trkpt>
      <trkpt lat="28.50898" lon="-14.01693">
        <ele>175</ele>
        <time>2021-07-04 17:30:28</time>
      </trkpt>
      <trkpt lat="28.50894" lon="-14.01692">
        <ele>175</ele>
        <time>2021-07-04 17:30:29</time>
      </trkpt>
      <trkpt lat="28.5089" lon="-14.0169">
        <ele>175</ele>
        <time>2021-07-04 17:30:30</time>
      </trkpt>
      <trkpt lat="28.50886" lon="-14.01688">
        <ele>175</ele>
        <time>2021-07-04 17:30:31</time>
      </trkpt>
      <trkpt lat="28.50881" lon="-14.01687">
        <ele>175</ele>
        <time>2021-07-04 17:30:32</time>
      </trkpt>
      <trkpt lat="28.50877" lon="-14.01685">
        <ele>175</ele>
        <time>2021-07-04 17:30:33</time>
      </trkpt>
      <trkpt lat="28.50873" lon="-14.01683">
        <ele>175</ele>
        <time>2021-07-04 17:30:34</time>
      </trkpt>
      <trkpt lat="28.50868" lon="-14.01681">
        <ele>175</ele>
        <time>2021-07-04 17:30:35</time>
      </trkpt>
      <trkpt lat="28.50864" lon="-14.01678">
        <ele>175</ele>
        <time>2021-07-04 17:30:36</time>
      </trkpt>
      <trkpt lat="28.50859" lon="-14.01676">
        <ele>174.8</ele>
        <time>2021-07-04 17:30:37</time>
      </trkpt>
      <trkpt lat="28.50855" lon="-14.01674">
        <ele>174.8</ele>
        <time>2021-07-04 17:30:38</time>
      </trkpt>
      <trkpt lat="28.5085" lon="-14.01672">
        <ele>174.8</ele>
        <time>2021-07-04 17:30:39</time>
      </trkpt>
      <trkpt lat="28.50846" lon="-14.0167">
        <ele>174.8</ele>
        <time>2021-07-04 17:30:40</time>
      </trkpt>
      <trkpt lat="28.50841" lon="-14.01667">
        <ele>174.8</ele>
        <time>2021-07-04 17:30:41</time>
      </trkpt>
      <trkpt lat="28.50837" lon="-14.01663">
        <ele>174.8</ele>
        <time>2021-07-04 17:30:42</time>
      </trkpt>
      <trkpt lat="28.50833" lon="-14.0166">
        <ele>174.8</ele>
        <time>2021-07-04 17:30:43</time>
      </trkpt>
      <trkpt lat="28.50829" lon="-14.01656">
        <ele>174.8</ele>
        <time>2021-07-04 17:30:44</time>
      </trkpt>
      <trkpt lat="28.50824" lon="-14.01653">
        <ele>174.2</ele>
        <time>2021-07-04 17:30:45</time>
      </trkpt>
      <trkpt lat="28.5082" lon="-14.0165">
        <ele>174.2</ele>
        <time>2021-07-04 17:30:46</time>
      </trkpt>
      <trkpt lat="28.50815" lon="-14.01646">
        <ele>174.2</ele>
        <time>2021-07-04 17:30:47</time>
      </trkpt>
      <trkpt lat="28.50811" lon="-14.01642">
        <ele>174.2</ele>
        <time>2021-07-04 17:30:48</time>
      </trkpt>
      <trkpt lat="28.50806" lon="-14.0164">
        <ele>174.2</ele>
        <time>2021-07-04 17:30:49</time>
      </trkpt>
      <trkpt lat="28.50802" lon="-14.01637">
        <ele>174.2</ele>
        <time>2021-07-04 17:30:50</time>
      </trkpt>
      <trkpt lat="28.50799" lon="-14.01635">
        <ele>174.4</ele>
        <time>2021-07-04 17:30:51</time>
      </trkpt>
      <trkpt lat="28.50796" lon="-14.01632">
        <ele>174.4</ele>
        <time>2021-07-04 17:30:52</time>
      </trkpt>
      <trkpt lat="28.50794" lon="-14.0163">
        <ele>174.4</ele>
        <time>2021-07-04 17:30:53</time>
      </trkpt>
      <trkpt lat="28.50792" lon="-14.01628">
        <ele>174.6</ele>
        <time>2021-07-04 17:30:54</time>
      </trkpt>
      <trkpt lat="28.50789" lon="-14.01626">
        <ele>174.6</ele>
        <time>2021-07-04 17:30:55</time>
      </trkpt>
      <trkpt lat="28.50788" lon="-14.01624">
        <ele>174.6</ele>
        <time>2021-07-04 17:30:56</time>
      </trkpt>
      <trkpt lat="28.50786" lon="-14.01623">
        <ele>174.8</ele>
        <time>2021-07-04 17:30:57</time>
      </trkpt>
      <trkpt lat="28.50785" lon="-14.01622">
        <ele>174.8</ele>
        <time>2021-07-04 17:30:58</time>
      </trkpt>
      <trkpt lat="28.50784" lon="-14.0162">
        <ele>174.8</ele>
        <time>2021-07-04 17:30:59</time>
      </trkpt>
      <trkpt lat="28.50783" lon="-14.0162">
        <ele>174.8</ele>
        <time>2021-07-04 17:31:00</time>
      </trkpt>
      <trkpt lat="28.50781" lon="-14.01619">
        <ele>174.8</ele>
        <time>2021-07-04 17:31:01</time>
      </trkpt>
      <trkpt lat="28.5078" lon="-14.0162">
        <ele>174.8</ele>
        <time>2021-07-04 17:31:02</time>
      </trkpt>
      <trkpt lat="28.5078" lon="-14.01621">
        <ele>174.8</ele>
        <time>2021-07-04 17:31:03</time>
      </trkpt>
      <trkpt lat="28.5078" lon="-14.01622">
        <ele>174.8</ele>
        <time>2021-07-04 17:31:04</time>
      </trkpt>
      <trkpt lat="28.50781" lon="-14.01623">
        <ele>174.8</ele>
        <time>2021-07-04 17:31:05</time>
      </trkpt>
      <trkpt lat="28.50782" lon="-14.01624">
        <ele>174.8</ele>
        <time>2021-07-04 17:31:06</time>
      </trkpt>
      <trkpt lat="28.50784" lon="-14.01625">
        <ele>174.8</ele>
        <time>2021-07-04 17:31:07</time>
      </trkpt>
      <trkpt lat="28.50786" lon="-14.01625">
        <ele>174.8</ele>
        <time>2021-07-04 17:31:08</time>
      </trkpt>
      <trkpt lat="28.50787" lon="-14.01626">
        <ele>174.8</ele>
        <time>2021-07-04 17:31:09</time>
      </trkpt>
      <trkpt lat="28.5079" lon="-14.01627">
        <ele>175.2</ele>
        <time>2021-07-04 17:31:10</time>
      </trkpt>
      <trkpt lat="28.50792" lon="-14.01628">
        <ele>175.4</ele>
        <time>2021-07-04 17:31:11</time>
      </trkpt>
      <trkpt lat="28.50793" lon="-14.01631">
        <ele>175.4</ele>
        <time>2021-07-04 17:31:12</time>
      </trkpt>
      <trkpt lat="28.50795" lon="-14.01633">
        <ele>175.6</ele>
        <time>2021-07-04 17:31:13</time>
      </trkpt>
      <trkpt lat="28.50797" lon="-14.01635">
        <ele>175.6</ele>
        <time>2021-07-04 17:31:14</time>
      </trkpt>
      <trkpt lat="28.508" lon="-14.01637">
        <ele>175.6</ele>
        <time>2021-07-04 17:31:15</time>
      </trkpt>
      <trkpt lat="28.50802" lon="-14.01639">
        <ele>175.6</ele>
        <time>2021-07-04 17:31:16</time>
      </trkpt>
      <trkpt lat="28.50804" lon="-14.0164">
        <ele>176</ele>
        <time>2021-07-04 17:31:17</time>
      </trkpt>
      <trkpt lat="28.50806" lon="-14.01641">
        <ele>176</ele>
        <time>2021-07-04 17:31:18</time>
      </trkpt>
      <trkpt lat="28.50808" lon="-14.01642">
        <ele>176</ele>
        <time>2021-07-04 17:31:19</time>
      </trkpt>
      <trkpt lat="28.50809" lon="-14.01644">
        <ele>176.2</ele>
        <time>2021-07-04 17:31:20</time>
      </trkpt>
      <trkpt lat="28.50809" lon="-14.01646">
        <ele>176.2</ele>
        <time>2021-07-04 17:31:21</time>
      </trkpt>
      <trkpt lat="28.50808" lon="-14.01648">
        <ele>176.2</ele>
        <time>2021-07-04 17:31:22</time>
      </trkpt>
      <trkpt lat="28.50806" lon="-14.01649">
        <ele>176.2</ele>
        <time>2021-07-04 17:31:23</time>
      </trkpt>
      <trkpt lat="28.50803" lon="-14.01651">
        <ele>175.8</ele>
        <time>2021-07-04 17:31:24</time>
      </trkpt>
      <trkpt lat="28.50801" lon="-14.01652">
        <ele>175.8</ele>
        <time>2021-07-04 17:31:25</time>
      </trkpt>
      <trkpt lat="28.50797" lon="-14.01655">
        <ele>175.4</ele>
        <time>2021-07-04 17:31:26</time>
      </trkpt>
      <trkpt lat="28.50794" lon="-14.01657">
        <ele>175.4</ele>
        <time>2021-07-04 17:31:27</time>
      </trkpt>
      <trkpt lat="28.50791" lon="-14.01658">
        <ele>175</ele>
        <time>2021-07-04 17:31:28</time>
      </trkpt>
      <trkpt lat="28.50787" lon="-14.0166">
        <ele>175</ele>
        <time>2021-07-04 17:31:29</time>
      </trkpt>
      <trkpt lat="28.50783" lon="-14.01661">
        <ele>174.8</ele>
        <time>2021-07-04 17:31:30</time>
      </trkpt>
      <trkpt lat="28.50779" lon="-14.01663">
        <ele>174.6</ele>
        <time>2021-07-04 17:31:31</time>
      </trkpt>
      <trkpt lat="28.50776" lon="-14.01665">
        <ele>174.6</ele>
        <time>2021-07-04 17:31:32</time>
      </trkpt>
      <trkpt lat="28.50772" lon="-14.01667">
        <ele>174.2</ele>
        <time>2021-07-04 17:31:33</time>
      </trkpt>
      <trkpt lat="28.50767" lon="-14.0167">
        <ele>174</ele>
        <time>2021-07-04 17:31:34</time>
      </trkpt>
      <trkpt lat="28.50763" lon="-14.01672">
        <ele>173.8</ele>
        <time>2021-07-04 17:31:35</time>
      </trkpt>
      <trkpt lat="28.50758" lon="-14.01674">
        <ele>173.4</ele>
        <time>2021-07-04 17:31:36</time>
      </trkpt>
      <trkpt lat="28.50753" lon="-14.01677">
        <ele>173.4</ele>
        <time>2021-07-04 17:31:37</time>
      </trkpt>
      <trkpt lat="28.50747" lon="-14.01679">
        <ele>172.8</ele>
        <time>2021-07-04 17:31:38</time>
      </trkpt>
      <trkpt lat="28.50742" lon="-14.01682">
        <ele>172.4</ele>
        <time>2021-07-04 17:31:39</time>
      </trkpt>
      <trkpt lat="28.50736" lon="-14.01685">
        <ele>171.8</ele>
        <time>2021-07-04 17:31:40</time>
      </trkpt>
      <trkpt lat="28.5073" lon="-14.01688">
        <ele>171.4</ele>
        <time>2021-07-04 17:31:41</time>
      </trkpt>
      <trkpt lat="28.50724" lon="-14.01692">
        <ele>171</ele>
        <time>2021-07-04 17:31:42</time>
      </trkpt>
      <trkpt lat="28.50718" lon="-14.01696">
        <ele>170.6</ele>
        <time>2021-07-04 17:31:43</time>
      </trkpt>
      <trkpt lat="28.50712" lon="-14.017">
        <ele>170.2</ele>
        <time>2021-07-04 17:31:44</time>
      </trkpt>
      <trkpt lat="28.50706" lon="-14.01704">
        <ele>170</ele>
        <time>2021-07-04 17:31:45</time>
      </trkpt>
      <trkpt lat="28.507" lon="-14.01707">
        <ele>169.6</ele>
        <time>2021-07-04 17:31:46</time>
      </trkpt>
      <trkpt lat="28.50693" lon="-14.01709">
        <ele>169.4</ele>
        <time>2021-07-04 17:31:47</time>
      </trkpt>
      <trkpt lat="28.50686" lon="-14.0171">
        <ele>169.2</ele>
        <time>2021-07-04 17:31:48</time>
      </trkpt>
      <trkpt lat="28.50679" lon="-14.01713">
        <ele>168.8</ele>
        <time>2021-07-04 17:31:49</time>
      </trkpt>
      <trkpt lat="28.50671" lon="-14.01715">
        <ele>168.6</ele>
        <time>2021-07-04 17:31:50</time>
      </trkpt>
      <trkpt lat="28.50664" lon="-14.01718">
        <ele>168.4</ele>
        <time>2021-07-04 17:31:51</time>
      </trkpt>
      <trkpt lat="28.50657" lon="-14.0172">
        <ele>168</ele>
        <time>2021-07-04 17:31:52</time>
      </trkpt>
      <trkpt lat="28.50649" lon="-14.01724">
        <ele>167.8</ele>
        <time>2021-07-04 17:31:53</time>
      </trkpt>
      <trkpt lat="28.50642" lon="-14.01726">
        <ele>167.8</ele>
        <time>2021-07-04 17:31:54</time>
      </trkpt>
      <trkpt lat="28.50635" lon="-14.01728">
        <ele>167.2</ele>
        <time>2021-07-04 17:31:55</time>
      </trkpt>
      <trkpt lat="28.50628" lon="-14.01731">
        <ele>167</ele>
        <time>2021-07-04 17:31:56</time>
      </trkpt>
      <trkpt lat="28.50622" lon="-14.01734">
        <ele>166.6</ele>
        <time>2021-07-04 17:31:57</time>
      </trkpt>
      <trkpt lat="28.50615" lon="-14.01737">
        <ele>166.4</ele>
        <time>2021-07-04 17:31:58</time>
      </trkpt>
      <trkpt lat="28.50609" lon="-14.0174">
        <ele>166</ele>
        <time>2021-07-04 17:31:59</time>
      </trkpt>
      <trkpt lat="28.50602" lon="-14.01742">
        <ele>165.8</ele>
        <time>2021-07-04 17:32:00</time>
      </trkpt>
      <trkpt lat="28.50596" lon="-14.01745">
        <ele>165.6</ele>
        <time>2021-07-04 17:32:01</time>
      </trkpt>
      <trkpt lat="28.50589" lon="-14.01747">
        <ele>165.6</ele>
        <time>2021-07-04 17:32:02</time>
      </trkpt>
      <trkpt lat="28.50582" lon="-14.0175">
        <ele>165.6</ele>
        <time>2021-07-04 17:32:03</time>
      </trkpt>
      <trkpt lat="28.50575" lon="-14.01753">
        <ele>165.6</ele>
        <time>2021-07-04 17:32:04</time>
      </trkpt>
      <trkpt lat="28.50568" lon="-14.01756">
        <ele>165.2</ele>
        <time>2021-07-04 17:32:05</time>
      </trkpt>
      <trkpt lat="28.50562" lon="-14.01758">
        <ele>165.2</ele>
        <time>2021-07-04 17:32:06</time>
      </trkpt>
      <trkpt lat="28.50554" lon="-14.0176">
        <ele>165.2</ele>
        <time>2021-07-04 17:32:07</time>
      </trkpt>
      <trkpt lat="28.50547" lon="-14.01761">
        <ele>165</ele>
        <time>2021-07-04 17:32:08</time>
      </trkpt>
      <trkpt lat="28.5054" lon="-14.01765">
        <ele>164.6</ele>
        <time>2021-07-04 17:32:09</time>
      </trkpt>
      <trkpt lat="28.50533" lon="-14.01768">
        <ele>164.4</ele>
        <time>2021-07-04 17:32:10</time>
      </trkpt>
      <trkpt lat="28.50527" lon="-14.01772">
        <ele>164.2</ele>
        <time>2021-07-04 17:32:11</time>
      </trkpt>
      <trkpt lat="28.5052" lon="-14.01775">
        <ele>164.2</ele>
        <time>2021-07-04 17:32:12</time>
      </trkpt>
      <trkpt lat="28.50513" lon="-14.01777">
        <ele>164.2</ele>
        <time>2021-07-04 17:32:13</time>
      </trkpt>
      <trkpt lat="28.50506" lon="-14.0178">
        <ele>163.8</ele>
        <time>2021-07-04 17:32:14</time>
      </trkpt>
      <trkpt lat="28.50498" lon="-14.01783">
        <ele>163.8</ele>
        <time>2021-07-04 17:32:15</time>
      </trkpt>
      <trkpt lat="28.50491" lon="-14.01786">
        <ele>163.6</ele>
        <time>2021-07-04 17:32:16</time>
      </trkpt>
      <trkpt lat="28.50484" lon="-14.01788">
        <ele>163.2</ele>
        <time>2021-07-04 17:32:17</time>
      </trkpt>
      <trkpt lat="28.50477" lon="-14.0179">
        <ele>163</ele>
        <time>2021-07-04 17:32:18</time>
      </trkpt>
      <trkpt lat="28.50469" lon="-14.01792">
        <ele>162.8</ele>
        <time>2021-07-04 17:32:19</time>
      </trkpt>
      <trkpt lat="28.50462" lon="-14.01795">
        <ele>162.8</ele>
        <time>2021-07-04 17:32:20</time>
      </trkpt>
      <trkpt lat="28.50456" lon="-14.01797">
        <ele>162.6</ele>
        <time>2021-07-04 17:32:21</time>
      </trkpt>
      <trkpt lat="28.5045" lon="-14.01798">
        <ele>162.2</ele>
        <time>2021-07-04 17:32:22</time>
      </trkpt>
      <trkpt lat="28.50444" lon="-14.01801">
        <ele>162</ele>
        <time>2021-07-04 17:32:23</time>
      </trkpt>
      <trkpt lat="28.50439" lon="-14.01802">
        <ele>161.6</ele>
        <time>2021-07-04 17:32:24</time>
      </trkpt>
      <trkpt lat="28.50434" lon="-14.01803">
        <ele>161.6</ele>
        <time>2021-07-04 17:32:25</time>
      </trkpt>
      <trkpt lat="28.5043" lon="-14.01804">
        <ele>161.4</ele>
        <time>2021-07-04 17:32:26</time>
      </trkpt>
      <trkpt lat="28.50425" lon="-14.01806">
        <ele>161.4</ele>
        <time>2021-07-04 17:32:27</time>
      </trkpt>
      <trkpt lat="28.50421" lon="-14.01808">
        <ele>161</ele>
        <time>2021-07-04 17:32:28</time>
      </trkpt>
      <trkpt lat="28.50417" lon="-14.01809">
        <ele>161</ele>
        <time>2021-07-04 17:32:29</time>
      </trkpt>
      <trkpt lat="28.50413" lon="-14.01811">
        <ele>160.8</ele>
        <time>2021-07-04 17:32:30</time>
      </trkpt>
      <trkpt lat="28.50409" lon="-14.01812">
        <ele>160.8</ele>
        <time>2021-07-04 17:32:31</time>
      </trkpt>
      <trkpt lat="28.50404" lon="-14.01814">
        <ele>160.4</ele>
        <time>2021-07-04 17:32:32</time>
      </trkpt>
      <trkpt lat="28.504" lon="-14.01815">
        <ele>160.4</ele>
        <time>2021-07-04 17:32:33</time>
      </trkpt>
      <trkpt lat="28.50396" lon="-14.01817">
        <ele>160.4</ele>
        <time>2021-07-04 17:32:34</time>
      </trkpt>
      <trkpt lat="28.50391" lon="-14.01818">
        <ele>160.2</ele>
        <time>2021-07-04 17:32:35</time>
      </trkpt>
      <trkpt lat="28.50387" lon="-14.01819">
        <ele>160.2</ele>
        <time>2021-07-04 17:32:36</time>
      </trkpt>
      <trkpt lat="28.50383" lon="-14.0182">
        <ele>159.8</ele>
        <time>2021-07-04 17:32:37</time>
      </trkpt>
      <trkpt lat="28.50378" lon="-14.01822">
        <ele>159.8</ele>
        <time>2021-07-04 17:32:38</time>
      </trkpt>
      <trkpt lat="28.50374" lon="-14.01823">
        <ele>159.4</ele>
        <time>2021-07-04 17:32:39</time>
      </trkpt>
      <trkpt lat="28.50371" lon="-14.01824">
        <ele>159.4</ele>
        <time>2021-07-04 17:32:40</time>
      </trkpt>
      <trkpt lat="28.50366" lon="-14.01826">
        <ele>159.2</ele>
        <time>2021-07-04 17:32:41</time>
      </trkpt>
      <trkpt lat="28.50362" lon="-14.01827">
        <ele>159.2</ele>
        <time>2021-07-04 17:32:42</time>
      </trkpt>
      <trkpt lat="28.50358" lon="-14.01828">
        <ele>158.8</ele>
        <time>2021-07-04 17:32:43</time>
      </trkpt>
      <trkpt lat="28.50355" lon="-14.01829">
        <ele>158.8</ele>
        <time>2021-07-04 17:32:44</time>
      </trkpt>
      <trkpt lat="28.5035" lon="-14.01831">
        <ele>158.6</ele>
        <time>2021-07-04 17:32:45</time>
      </trkpt>
      <trkpt lat="28.50346" lon="-14.01833">
        <ele>158.6</ele>
        <time>2021-07-04 17:32:46</time>
      </trkpt>
      <trkpt lat="28.50342" lon="-14.01834">
        <ele>158.2</ele>
        <time>2021-07-04 17:32:47</time>
      </trkpt>
      <trkpt lat="28.50337" lon="-14.01835">
        <ele>158.2</ele>
        <time>2021-07-04 17:32:48</time>
      </trkpt>
      <trkpt lat="28.50333" lon="-14.01836">
        <ele>158.2</ele>
        <time>2021-07-04 17:32:49</time>
      </trkpt>
      <trkpt lat="28.50329" lon="-14.01836">
        <ele>158</ele>
        <time>2021-07-04 17:32:50</time>
      </trkpt>
      <trkpt lat="28.50324" lon="-14.01837">
        <ele>158</ele>
        <time>2021-07-04 17:32:51</time>
      </trkpt>
      <trkpt lat="28.5032" lon="-14.01837">
        <ele>158</ele>
        <time>2021-07-04 17:32:52</time>
      </trkpt>
      <trkpt lat="28.50315" lon="-14.01837">
        <ele>157.6</ele>
        <time>2021-07-04 17:32:53</time>
      </trkpt>
      <trkpt lat="28.5031" lon="-14.01836">
        <ele>157.4</ele>
        <time>2021-07-04 17:32:54</time>
      </trkpt>
      <trkpt lat="28.50306" lon="-14.01836">
        <ele>157.4</ele>
        <time>2021-07-04 17:32:55</time>
      </trkpt>
      <trkpt lat="28.50302" lon="-14.01836">
        <ele>157.4</ele>
        <time>2021-07-04 17:32:56</time>
      </trkpt>
      <trkpt lat="28.50298" lon="-14.01836">
        <ele>157</ele>
        <time>2021-07-04 17:32:57</time>
      </trkpt>
      <trkpt lat="28.50294" lon="-14.01836">
        <ele>157</ele>
        <time>2021-07-04 17:32:58</time>
      </trkpt>
      <trkpt lat="28.5029" lon="-14.01838">
        <ele>157</ele>
        <time>2021-07-04 17:32:59</time>
      </trkpt>
      <trkpt lat="28.50286" lon="-14.01838">
        <ele>157</ele>
        <time>2021-07-04 17:33:00</time>
      </trkpt>
      <trkpt lat="28.50282" lon="-14.0184">
        <ele>156.8</ele>
        <time>2021-07-04 17:33:01</time>
      </trkpt>
      <trkpt lat="28.50279" lon="-14.01842">
        <ele>156.8</ele>
        <time>2021-07-04 17:33:02</time>
      </trkpt>
      <trkpt lat="28.50276" lon="-14.01845">
        <ele>156.8</ele>
        <time>2021-07-04 17:33:03</time>
      </trkpt>
      <trkpt lat="28.50273" lon="-14.01847">
        <ele>156.8</ele>
        <time>2021-07-04 17:33:04</time>
      </trkpt>
      <trkpt lat="28.5027" lon="-14.01849">
        <ele>156.6</ele>
        <time>2021-07-04 17:33:05</time>
      </trkpt>
      <trkpt lat="28.50268" lon="-14.01852">
        <ele>156.6</ele>
        <time>2021-07-04 17:33:06</time>
      </trkpt>
      <trkpt lat="28.50266" lon="-14.01854">
        <ele>156.6</ele>
        <time>2021-07-04 17:33:07</time>
      </trkpt>
      <trkpt lat="28.50263" lon="-14.01857">
        <ele>156.6</ele>
        <time>2021-07-04 17:33:08</time>
      </trkpt>
      <trkpt lat="28.5026" lon="-14.01859">
        <ele>156.4</ele>
        <time>2021-07-04 17:33:09</time>
      </trkpt>
      <trkpt lat="28.50257" lon="-14.01862">
        <ele>156</ele>
        <time>2021-07-04 17:33:10</time>
      </trkpt>
      <trkpt lat="28.50253" lon="-14.01865">
        <ele>155.8</ele>
        <time>2021-07-04 17:33:11</time>
      </trkpt>
      <trkpt lat="28.5025" lon="-14.01868">
        <ele>155.4</ele>
        <time>2021-07-04 17:33:12</time>
      </trkpt>
      <trkpt lat="28.50247" lon="-14.01871">
        <ele>155.4</ele>
        <time>2021-07-04 17:33:13</time>
      </trkpt>
      <trkpt lat="28.50244" lon="-14.01874">
        <ele>155.2</ele>
        <time>2021-07-04 17:33:14</time>
      </trkpt>
      <trkpt lat="28.5024" lon="-14.01877">
        <ele>155.2</ele>
        <time>2021-07-04 17:33:15</time>
      </trkpt>
      <trkpt lat="28.50237" lon="-14.0188">
        <ele>155.2</ele>
        <time>2021-07-04 17:33:16</time>
      </trkpt>
      <trkpt lat="28.50234" lon="-14.01883">
        <ele>155.2</ele>
        <time>2021-07-04 17:33:17</time>
      </trkpt>
      <trkpt lat="28.5023" lon="-14.01886">
        <ele>155</ele>
        <time>2021-07-04 17:33:18</time>
      </trkpt>
      <trkpt lat="28.50227" lon="-14.01889">
        <ele>155</ele>
        <time>2021-07-04 17:33:19</time>
      </trkpt>
      <trkpt lat="28.50223" lon="-14.01892">
        <ele>155</ele>
        <time>2021-07-04 17:33:20</time>
      </trkpt>
      <trkpt lat="28.50219" lon="-14.01894">
        <ele>155</ele>
        <time>2021-07-04 17:33:21</time>
      </trkpt>
      <trkpt lat="28.50216" lon="-14.01897">
        <ele>155</ele>
        <time>2021-07-04 17:33:22</time>
      </trkpt>
      <trkpt lat="28.50212" lon="-14.019">
        <ele>154.8</ele>
        <time>2021-07-04 17:33:23</time>
      </trkpt>
      <trkpt lat="28.50208" lon="-14.01902">
        <ele>154.8</ele>
        <time>2021-07-04 17:33:24</time>
      </trkpt>
      <trkpt lat="28.50205" lon="-14.01905">
        <ele>154.8</ele>
        <time>2021-07-04 17:33:25</time>
      </trkpt>
      <trkpt lat="28.50201" lon="-14.01907">
        <ele>154.8</ele>
        <time>2021-07-04 17:33:26</time>
      </trkpt>
      <trkpt lat="28.50197" lon="-14.0191">
        <ele>154.8</ele>
        <time>2021-07-04 17:33:27</time>
      </trkpt>
      <trkpt lat="28.50193" lon="-14.01913">
        <ele>154.8</ele>
        <time>2021-07-04 17:33:28</time>
      </trkpt>
      <trkpt lat="28.50189" lon="-14.01915">
        <ele>154.8</ele>
        <time>2021-07-04 17:33:29</time>
      </trkpt>
      <trkpt lat="28.50185" lon="-14.01917">
        <ele>154.8</ele>
        <time>2021-07-04 17:33:30</time>
      </trkpt>
      <trkpt lat="28.50181" lon="-14.01919">
        <ele>154.8</ele>
        <time>2021-07-04 17:33:31</time>
      </trkpt>
      <trkpt lat="28.50177" lon="-14.01921">
        <ele>154.8</ele>
        <time>2021-07-04 17:33:32</time>
      </trkpt>
      <trkpt lat="28.50174" lon="-14.01924">
        <ele>154.8</ele>
        <time>2021-07-04 17:33:33</time>
      </trkpt>
      <trkpt lat="28.5017" lon="-14.01926">
        <ele>154.8</ele>
        <time>2021-07-04 17:33:34</time>
      </trkpt>
      <trkpt lat="28.50167" lon="-14.01929">
        <ele>154.8</ele>
        <time>2021-07-04 17:33:35</time>
      </trkpt>
      <trkpt lat="28.50164" lon="-14.01932">
        <ele>154.8</ele>
        <time>2021-07-04 17:33:36</time>
      </trkpt>
      <trkpt lat="28.50161" lon="-14.01935">
        <ele>154.8</ele>
        <time>2021-07-04 17:33:37</time>
      </trkpt>
      <trkpt lat="28.50159" lon="-14.01937">
        <ele>154.8</ele>
        <time>2021-07-04 17:33:38</time>
      </trkpt>
      <trkpt lat="28.50158" lon="-14.01938">
        <ele>154.8</ele>
        <time>2021-07-04 17:33:39</time>
      </trkpt>
      <trkpt lat="28.50157" lon="-14.01939">
        <ele>154.8</ele>
        <time>2021-07-04 17:33:40</time>
      </trkpt>
      <trkpt lat="28.50156" lon="-14.01939">
        <ele>154.8</ele>
        <time>2021-07-04 17:33:41</time>
      </trkpt>
      <trkpt lat="28.50155" lon="-14.0194">
        <ele>154.8</ele>
        <time>2021-07-04 17:33:42</time>
      </trkpt>
      <trkpt lat="28.50153" lon="-14.0194">
        <ele>154.8</ele>
        <time>2021-07-04 17:33:43</time>
      </trkpt>
      <trkpt lat="28.50151" lon="-14.01941">
        <ele>154.4</ele>
        <time>2021-07-04 17:33:44</time>
      </trkpt>
      <trkpt lat="28.50147" lon="-14.0194">
        <ele>154.2</ele>
        <time>2021-07-04 17:33:45</time>
      </trkpt>
      <trkpt lat="28.50143" lon="-14.01938">
        <ele>154</ele>
        <time>2021-07-04 17:33:46</time>
      </trkpt>
      <trkpt lat="28.50138" lon="-14.01936">
        <ele>153.6</ele>
        <time>2021-07-04 17:33:47</time>
      </trkpt>
      <trkpt lat="28.50135" lon="-14.01931">
        <ele>153.2</ele>
        <time>2021-07-04 17:33:48</time>
      </trkpt>
      <trkpt lat="28.50132" lon="-14.01925">
        <ele>153</ele>
        <time>2021-07-04 17:33:49</time>
      </trkpt>
      <trkpt lat="28.50128" lon="-14.0192">
        <ele>152.6</ele>
        <time>2021-07-04 17:33:50</time>
      </trkpt>
      <trkpt lat="28.50125" lon="-14.01915">
        <ele>152.4</ele>
        <time>2021-07-04 17:33:51</time>
      </trkpt>
      <trkpt lat="28.50121" lon="-14.01912">
        <ele>152</ele>
        <time>2021-07-04 17:33:52</time>
      </trkpt>
      <trkpt lat="28.50116" lon="-14.01908">
        <ele>151.6</ele>
        <time>2021-07-04 17:33:53</time>
      </trkpt>
      <trkpt lat="28.50111" lon="-14.01907">
        <ele>151.4</ele>
        <time>2021-07-04 17:33:54</time>
      </trkpt>
      <trkpt lat="28.50106" lon="-14.01909">
        <ele>151.2</ele>
        <time>2021-07-04 17:33:55</time>
      </trkpt>
      <trkpt lat="28.50104" lon="-14.01912">
        <ele>151.2</ele>
        <time>2021-07-04 17:33:56</time>
      </trkpt>
      <trkpt lat="28.50101" lon="-14.01915">
        <ele>150.8</ele>
        <time>2021-07-04 17:33:57</time>
      </trkpt>
      <trkpt lat="28.501" lon="-14.01919">
        <ele>150.8</ele>
        <time>2021-07-04 17:33:58</time>
      </trkpt>
      <trkpt lat="28.50098" lon="-14.01924">
        <ele>150.8</ele>
        <time>2021-07-04 17:33:59</time>
      </trkpt>
      <trkpt lat="28.50096" lon="-14.01927">
        <ele>150.8</ele>
        <time>2021-07-04 17:34:00</time>
      </trkpt>
      <trkpt lat="28.50094" lon="-14.01931">
        <ele>151.2</ele>
        <time>2021-07-04 17:34:01</time>
      </trkpt>
      <trkpt lat="28.50091" lon="-14.01934">
        <ele>151.2</ele>
        <time>2021-07-04 17:34:02</time>
      </trkpt>
      <trkpt lat="28.50088" lon="-14.01936">
        <ele>151.2</ele>
        <time>2021-07-04 17:34:03</time>
      </trkpt>
      <trkpt lat="28.50086" lon="-14.0194">
        <ele>151.2</ele>
        <time>2021-07-04 17:34:04</time>
      </trkpt>
      <trkpt lat="28.50083" lon="-14.01942">
        <ele>151.2</ele>
        <time>2021-07-04 17:34:05</time>
      </trkpt>
      <trkpt lat="28.5008" lon="-14.01945">
        <ele>151.2</ele>
        <time>2021-07-04 17:34:06</time>
      </trkpt>
      <trkpt lat="28.50077" lon="-14.01948">
        <ele>151.2</ele>
        <time>2021-07-04 17:34:07</time>
      </trkpt>
      <trkpt lat="28.50074" lon="-14.01951">
        <ele>151.2</ele>
        <time>2021-07-04 17:34:08</time>
      </trkpt>
      <trkpt lat="28.50071" lon="-14.01954">
        <ele>151.2</ele>
        <time>2021-07-04 17:34:09</time>
      </trkpt>
      <trkpt lat="28.50068" lon="-14.01956">
        <ele>151.2</ele>
        <time>2021-07-04 17:34:10</time>
      </trkpt>
      <trkpt lat="28.50065" lon="-14.01959">
        <ele>151.4</ele>
        <time>2021-07-04 17:34:11</time>
      </trkpt>
      <trkpt lat="28.50062" lon="-14.01962">
        <ele>151.4</ele>
        <time>2021-07-04 17:34:12</time>
      </trkpt>
      <trkpt lat="28.50059" lon="-14.01964">
        <ele>151.6</ele>
        <time>2021-07-04 17:34:13</time>
      </trkpt>
      <trkpt lat="28.50056" lon="-14.01967">
        <ele>151.6</ele>
        <time>2021-07-04 17:34:14</time>
      </trkpt>
      <trkpt lat="28.50053" lon="-14.0197">
        <ele>151.6</ele>
        <time>2021-07-04 17:34:15</time>
      </trkpt>
      <trkpt lat="28.5005" lon="-14.01973">
        <ele>151.6</ele>
        <time>2021-07-04 17:34:16</time>
      </trkpt>
      <trkpt lat="28.50046" lon="-14.01976">
        <ele>151.6</ele>
        <time>2021-07-04 17:34:17</time>
      </trkpt>
      <trkpt lat="28.50043" lon="-14.0198">
        <ele>151.6</ele>
        <time>2021-07-04 17:34:18</time>
      </trkpt>
      <trkpt lat="28.5004" lon="-14.01983">
        <ele>151.6</ele>
        <time>2021-07-04 17:34:19</time>
      </trkpt>
      <trkpt lat="28.50036" lon="-14.01986">
        <ele>151.6</ele>
        <time>2021-07-04 17:34:20</time>
      </trkpt>
      <trkpt lat="28.50032" lon="-14.01989">
        <ele>151.6</ele>
        <time>2021-07-04 17:34:21</time>
      </trkpt>
      <trkpt lat="28.50028" lon="-14.01992">
        <ele>151.6</ele>
        <time>2021-07-04 17:34:22</time>
      </trkpt>
      <trkpt lat="28.50023" lon="-14.01996">
        <ele>151.2</ele>
        <time>2021-07-04 17:34:23</time>
      </trkpt>
      <trkpt lat="28.50019" lon="-14.02">
        <ele>151.2</ele>
        <time>2021-07-04 17:34:24</time>
      </trkpt>
      <trkpt lat="28.50013" lon="-14.02003">
        <ele>151</ele>
        <time>2021-07-04 17:34:25</time>
      </trkpt>
      <trkpt lat="28.50008" lon="-14.02006">
        <ele>150.8</ele>
        <time>2021-07-04 17:34:26</time>
      </trkpt>
      <trkpt lat="28.50003" lon="-14.02009">
        <ele>150.8</ele>
        <time>2021-07-04 17:34:27</time>
      </trkpt>
      <trkpt lat="28.49998" lon="-14.02012">
        <ele>150.6</ele>
        <time>2021-07-04 17:34:28</time>
      </trkpt>
      <trkpt lat="28.49992" lon="-14.02014">
        <ele>150.6</ele>
        <time>2021-07-04 17:34:29</time>
      </trkpt>
      <trkpt lat="28.49986" lon="-14.02017">
        <ele>150.2</ele>
        <time>2021-07-04 17:34:30</time>
      </trkpt>
      <trkpt lat="28.4998" lon="-14.02019">
        <ele>150.2</ele>
        <time>2021-07-04 17:34:31</time>
      </trkpt>
      <trkpt lat="28.49974" lon="-14.02021">
        <ele>150.2</ele>
        <time>2021-07-04 17:34:32</time>
      </trkpt>
      <trkpt lat="28.49968" lon="-14.02022">
        <ele>150.2</ele>
        <time>2021-07-04 17:34:33</time>
      </trkpt>
      <trkpt lat="28.49962" lon="-14.02023">
        <ele>149.8</ele>
        <time>2021-07-04 17:34:34</time>
      </trkpt>
      <trkpt lat="28.49956" lon="-14.02025">
        <ele>149.8</ele>
        <time>2021-07-04 17:34:35</time>
      </trkpt>
      <trkpt lat="28.49951" lon="-14.02026">
        <ele>149.8</ele>
        <time>2021-07-04 17:34:36</time>
      </trkpt>
      <trkpt lat="28.49945" lon="-14.02029">
        <ele>149.6</ele>
        <time>2021-07-04 17:34:37</time>
      </trkpt>
      <trkpt lat="28.49938" lon="-14.02031">
        <ele>149.4</ele>
        <time>2021-07-04 17:34:38</time>
      </trkpt>
      <trkpt lat="28.49932" lon="-14.02033">
        <ele>149.4</ele>
        <time>2021-07-04 17:34:39</time>
      </trkpt>
      <trkpt lat="28.49926" lon="-14.02036">
        <ele>148.8</ele>
        <time>2021-07-04 17:34:40</time>
      </trkpt>
      <trkpt lat="28.49919" lon="-14.02039">
        <ele>148.8</ele>
        <time>2021-07-04 17:34:41</time>
      </trkpt>
      <trkpt lat="28.49912" lon="-14.02042">
        <ele>148.4</ele>
        <time>2021-07-04 17:34:42</time>
      </trkpt>
      <trkpt lat="28.49905" lon="-14.02046">
        <ele>148.2</ele>
        <time>2021-07-04 17:34:43</time>
      </trkpt>
      <trkpt lat="28.49898" lon="-14.0205">
        <ele>148</ele>
        <time>2021-07-04 17:34:44</time>
      </trkpt>
      <trkpt lat="28.49891" lon="-14.02055">
        <ele>147.8</ele>
        <time>2021-07-04 17:34:45</time>
      </trkpt>
      <trkpt lat="28.49883" lon="-14.02059">
        <ele>147.8</ele>
        <time>2021-07-04 17:34:46</time>
      </trkpt>
      <trkpt lat="28.49876" lon="-14.02063">
        <ele>147.4</ele>
        <time>2021-07-04 17:34:47</time>
      </trkpt>
      <trkpt lat="28.49869" lon="-14.02066">
        <ele>147.2</ele>
        <time>2021-07-04 17:34:48</time>
      </trkpt>
      <trkpt lat="28.49861" lon="-14.02067">
        <ele>147.2</ele>
        <time>2021-07-04 17:34:49</time>
      </trkpt>
      <trkpt lat="28.49853" lon="-14.02068">
        <ele>146.8</ele>
        <time>2021-07-04 17:34:50</time>
      </trkpt>
      <trkpt lat="28.49845" lon="-14.02068">
        <ele>146.6</ele>
        <time>2021-07-04 17:34:51</time>
      </trkpt>
      <trkpt lat="28.49838" lon="-14.02068">
        <ele>146.4</ele>
        <time>2021-07-04 17:34:52</time>
      </trkpt>
      <trkpt lat="28.4983" lon="-14.02067">
        <ele>146.4</ele>
        <time>2021-07-04 17:34:53</time>
      </trkpt>
      <trkpt lat="28.49822" lon="-14.02066">
        <ele>146</ele>
        <time>2021-07-04 17:34:54</time>
      </trkpt>
      <trkpt lat="28.49814" lon="-14.02066">
        <ele>145.8</ele>
        <time>2021-07-04 17:34:55</time>
      </trkpt>
      <trkpt lat="28.49806" lon="-14.02067">
        <ele>145.4</ele>
        <time>2021-07-04 17:34:56</time>
      </trkpt>
      <trkpt lat="28.49798" lon="-14.0207">
        <ele>145.2</ele>
        <time>2021-07-04 17:34:57</time>
      </trkpt>
      <trkpt lat="28.4979" lon="-14.02073">
        <ele>145</ele>
        <time>2021-07-04 17:34:58</time>
      </trkpt>
      <trkpt lat="28.49781" lon="-14.02075">
        <ele>145</ele>
        <time>2021-07-04 17:34:59</time>
      </trkpt>
      <trkpt lat="28.49771" lon="-14.02075">
        <ele>144.6</ele>
        <time>2021-07-04 17:35:00</time>
      </trkpt>
      <trkpt lat="28.49763" lon="-14.02073">
        <ele>144.4</ele>
        <time>2021-07-04 17:35:01</time>
      </trkpt>
      <trkpt lat="28.49755" lon="-14.02071">
        <ele>144.4</ele>
        <time>2021-07-04 17:35:02</time>
      </trkpt>
      <trkpt lat="28.49746" lon="-14.02069">
        <ele>144.2</ele>
        <time>2021-07-04 17:35:03</time>
      </trkpt>
      <trkpt lat="28.49737" lon="-14.02067">
        <ele>144.2</ele>
        <time>2021-07-04 17:35:04</time>
      </trkpt>
      <trkpt lat="28.49729" lon="-14.02065">
        <ele>144</ele>
        <time>2021-07-04 17:35:05</time>
      </trkpt>
      <trkpt lat="28.4972" lon="-14.02063">
        <ele>144</ele>
        <time>2021-07-04 17:35:06</time>
      </trkpt>
      <trkpt lat="28.49712" lon="-14.0206">
        <ele>144</ele>
        <time>2021-07-04 17:35:07</time>
      </trkpt>
      <trkpt lat="28.49705" lon="-14.02057">
        <ele>144</ele>
        <time>2021-07-04 17:35:08</time>
      </trkpt>
      <trkpt lat="28.49698" lon="-14.02054">
        <ele>144</ele>
        <time>2021-07-04 17:35:09</time>
      </trkpt>
      <trkpt lat="28.4969" lon="-14.02052">
        <ele>144</ele>
        <time>2021-07-04 17:35:10</time>
      </trkpt>
      <trkpt lat="28.49683" lon="-14.0205">
        <ele>144</ele>
        <time>2021-07-04 17:35:11</time>
      </trkpt>
      <trkpt lat="28.49677" lon="-14.02048">
        <ele>144</ele>
        <time>2021-07-04 17:35:12</time>
      </trkpt>
      <trkpt lat="28.4967" lon="-14.02047">
        <ele>144</ele>
        <time>2021-07-04 17:35:13</time>
      </trkpt>
      <trkpt lat="28.49664" lon="-14.02046">
        <ele>144.4</ele>
        <time>2021-07-04 17:35:14</time>
      </trkpt>
      <trkpt lat="28.49659" lon="-14.02046">
        <ele>144.4</ele>
        <time>2021-07-04 17:35:15</time>
      </trkpt>
      <trkpt lat="28.49654" lon="-14.02046">
        <ele>144.4</ele>
        <time>2021-07-04 17:35:16</time>
      </trkpt>
      <trkpt lat="28.49649" lon="-14.02047">
        <ele>144.4</ele>
        <time>2021-07-04 17:35:17</time>
      </trkpt>
      <trkpt lat="28.49645" lon="-14.02048">
        <ele>144.6</ele>
        <time>2021-07-04 17:35:18</time>
      </trkpt>
      <trkpt lat="28.4964" lon="-14.02049">
        <ele>144.6</ele>
        <time>2021-07-04 17:35:19</time>
      </trkpt>
      <trkpt lat="28.49634" lon="-14.0205">
        <ele>144.6</ele>
        <time>2021-07-04 17:35:20</time>
      </trkpt>
      <trkpt lat="28.49629" lon="-14.02051">
        <ele>145</ele>
        <time>2021-07-04 17:35:21</time>
      </trkpt>
      <trkpt lat="28.49623" lon="-14.02052">
        <ele>145</ele>
        <time>2021-07-04 17:35:22</time>
      </trkpt>
      <trkpt lat="28.49618" lon="-14.02053">
        <ele>145.4</ele>
        <time>2021-07-04 17:35:23</time>
      </trkpt>
      <trkpt lat="28.49612" lon="-14.02054">
        <ele>145.4</ele>
        <time>2021-07-04 17:35:24</time>
      </trkpt>
      <trkpt lat="28.49607" lon="-14.02054">
        <ele>145.6</ele>
        <time>2021-07-04 17:35:25</time>
      </trkpt>
      <trkpt lat="28.49601" lon="-14.02055">
        <ele>145.6</ele>
        <time>2021-07-04 17:35:26</time>
      </trkpt>
      <trkpt lat="28.49595" lon="-14.02056">
        <ele>145.6</ele>
        <time>2021-07-04 17:35:27</time>
      </trkpt>
      <trkpt lat="28.4959" lon="-14.02057">
        <ele>146</ele>
        <time>2021-07-04 17:35:28</time>
      </trkpt>
      <trkpt lat="28.49584" lon="-14.02059">
        <ele>146</ele>
        <time>2021-07-04 17:35:29</time>
      </trkpt>
      <trkpt lat="28.49579" lon="-14.02061">
        <ele>146.2</ele>
        <time>2021-07-04 17:35:30</time>
      </trkpt>
      <trkpt lat="28.49573" lon="-14.02062">
        <ele>146.2</ele>
        <time>2021-07-04 17:35:31</time>
      </trkpt>
      <trkpt lat="28.49568" lon="-14.02064">
        <ele>146.6</ele>
        <time>2021-07-04 17:35:32</time>
      </trkpt>
      <trkpt lat="28.49563" lon="-14.02067">
        <ele>146.6</ele>
        <time>2021-07-04 17:35:33</time>
      </trkpt>
      <trkpt lat="28.49558" lon="-14.0207">
        <ele>147</ele>
        <time>2021-07-04 17:35:34</time>
      </trkpt>
      <trkpt lat="28.49553" lon="-14.02072">
        <ele>147.2</ele>
        <time>2021-07-04 17:35:35</time>
      </trkpt>
      <trkpt lat="28.49549" lon="-14.02074">
        <ele>147.4</ele>
        <time>2021-07-04 17:35:36</time>
      </trkpt>
      <trkpt lat="28.49544" lon="-14.02077">
        <ele>147.8</ele>
        <time>2021-07-04 17:35:37</time>
      </trkpt>
      <trkpt lat="28.4954" lon="-14.02079">
        <ele>148</ele>
        <time>2021-07-04 17:35:38</time>
      </trkpt>
      <trkpt lat="28.49535" lon="-14.02081">
        <ele>148.2</ele>
        <time>2021-07-04 17:35:39</time>
      </trkpt>
      <trkpt lat="28.49531" lon="-14.02082">
        <ele>148.6</ele>
        <time>2021-07-04 17:35:40</time>
      </trkpt>
      <trkpt lat="28.49526" lon="-14.02084">
        <ele>148.6</ele>
        <time>2021-07-04 17:35:41</time>
      </trkpt>
      <trkpt lat="28.49522" lon="-14.02085">
        <ele>149</ele>
        <time>2021-07-04 17:35:42</time>
      </trkpt>
      <trkpt lat="28.49517" lon="-14.02087">
        <ele>149.2</ele>
        <time>2021-07-04 17:35:43</time>
      </trkpt>
      <trkpt lat="28.49513" lon="-14.02088">
        <ele>149.2</ele>
        <time>2021-07-04 17:35:44</time>
      </trkpt>
      <trkpt lat="28.49508" lon="-14.02089">
        <ele>149.2</ele>
        <time>2021-07-04 17:35:45</time>
      </trkpt>
      <trkpt lat="28.49504" lon="-14.02091">
        <ele>149.4</ele>
        <time>2021-07-04 17:35:46</time>
      </trkpt>
      <trkpt lat="28.49499" lon="-14.02092">
        <ele>149.4</ele>
        <time>2021-07-04 17:35:47</time>
      </trkpt>
      <trkpt lat="28.49494" lon="-14.02093">
        <ele>149.4</ele>
        <time>2021-07-04 17:35:48</time>
      </trkpt>
      <trkpt lat="28.4949" lon="-14.02094">
        <ele>149.6</ele>
        <time>2021-07-04 17:35:49</time>
      </trkpt>
      <trkpt lat="28.49485" lon="-14.02095">
        <ele>149.6</ele>
        <time>2021-07-04 17:35:50</time>
      </trkpt>
      <trkpt lat="28.4948" lon="-14.02096">
        <ele>149.6</ele>
        <time>2021-07-04 17:35:51</time>
      </trkpt>
      <trkpt lat="28.49475" lon="-14.02097">
        <ele>150</ele>
        <time>2021-07-04 17:35:52</time>
      </trkpt>
      <trkpt lat="28.49471" lon="-14.02099">
        <ele>150</ele>
        <time>2021-07-04 17:35:53</time>
      </trkpt>
      <trkpt lat="28.49466" lon="-14.021">
        <ele>150.2</ele>
        <time>2021-07-04 17:35:54</time>
      </trkpt>
      <trkpt lat="28.49461" lon="-14.021">
        <ele>150.2</ele>
        <time>2021-07-04 17:35:55</time>
      </trkpt>
      <trkpt lat="28.49456" lon="-14.02101">
        <ele>150.6</ele>
        <time>2021-07-04 17:35:56</time>
      </trkpt>
      <trkpt lat="28.49451" lon="-14.02102">
        <ele>150.6</ele>
        <time>2021-07-04 17:35:57</time>
      </trkpt>
      <trkpt lat="28.49446" lon="-14.02103">
        <ele>150.8</ele>
        <time>2021-07-04 17:35:58</time>
      </trkpt>
      <trkpt lat="28.49441" lon="-14.02104">
        <ele>150.8</ele>
        <time>2021-07-04 17:35:59</time>
      </trkpt>
      <trkpt lat="28.49436" lon="-14.02105">
        <ele>151</ele>
        <time>2021-07-04 17:36:00</time>
      </trkpt>
      <trkpt lat="28.49431" lon="-14.02107">
        <ele>151</ele>
        <time>2021-07-04 17:36:01</time>
      </trkpt>
      <trkpt lat="28.49426" lon="-14.02109">
        <ele>151</ele>
        <time>2021-07-04 17:36:02</time>
      </trkpt>
      <trkpt lat="28.49421" lon="-14.0211">
        <ele>151.2</ele>
        <time>2021-07-04 17:36:03</time>
      </trkpt>
      <trkpt lat="28.49416" lon="-14.02112">
        <ele>151.2</ele>
        <time>2021-07-04 17:36:04</time>
      </trkpt>
      <trkpt lat="28.49411" lon="-14.02113">
        <ele>151.2</ele>
        <time>2021-07-04 17:36:05</time>
      </trkpt>
      <trkpt lat="28.49406" lon="-14.02115">
        <ele>151.2</ele>
        <time>2021-07-04 17:36:06</time>
      </trkpt>
      <trkpt lat="28.49402" lon="-14.02117">
        <ele>151.4</ele>
        <time>2021-07-04 17:36:07</time>
      </trkpt>
      <trkpt lat="28.49396" lon="-14.02119">
        <ele>151.4</ele>
        <time>2021-07-04 17:36:08</time>
      </trkpt>
      <trkpt lat="28.49391" lon="-14.0212">
        <ele>151.4</ele>
        <time>2021-07-04 17:36:09</time>
      </trkpt>
      <trkpt lat="28.49386" lon="-14.02121">
        <ele>151.4</ele>
        <time>2021-07-04 17:36:10</time>
      </trkpt>
      <trkpt lat="28.49381" lon="-14.02122">
        <ele>151.8</ele>
        <time>2021-07-04 17:36:11</time>
      </trkpt>
      <trkpt lat="28.49376" lon="-14.02123">
        <ele>151.8</ele>
        <time>2021-07-04 17:36:12</time>
      </trkpt>
      <trkpt lat="28.49372" lon="-14.02124">
        <ele>152.2</ele>
        <time>2021-07-04 17:36:13</time>
      </trkpt>
      <trkpt lat="28.49368" lon="-14.02125">
        <ele>151.6</ele>
        <time>2021-07-04 17:36:14</time>
      </trkpt>
      <trkpt lat="28.49364" lon="-14.02126">
        <ele>152</ele>
        <time>2021-07-04 17:36:15</time>
      </trkpt>
      <trkpt lat="28.4936" lon="-14.02127">
        <ele>152.6</ele>
        <time>2021-07-04 17:36:16</time>
      </trkpt>
      <trkpt lat="28.49356" lon="-14.02127">
        <ele>152.8</ele>
        <time>2021-07-04 17:36:17</time>
      </trkpt>
      <trkpt lat="28.49351" lon="-14.02127">
        <ele>153</ele>
        <time>2021-07-04 17:36:18</time>
      </trkpt>
      <trkpt lat="28.49347" lon="-14.02128">
        <ele>153</ele>
        <time>2021-07-04 17:36:19</time>
      </trkpt>
      <trkpt lat="28.49343" lon="-14.02128">
        <ele>153.4</ele>
        <time>2021-07-04 17:36:20</time>
      </trkpt>
      <trkpt lat="28.49339" lon="-14.02129">
        <ele>153.6</ele>
        <time>2021-07-04 17:36:21</time>
      </trkpt>
      <trkpt lat="28.49334" lon="-14.0213">
        <ele>153.8</ele>
        <time>2021-07-04 17:36:22</time>
      </trkpt>
      <trkpt lat="28.49329" lon="-14.0213">
        <ele>154</ele>
        <time>2021-07-04 17:36:23</time>
      </trkpt>
      <trkpt lat="28.49325" lon="-14.0213">
        <ele>154</ele>
        <time>2021-07-04 17:36:24</time>
      </trkpt>
      <trkpt lat="28.4932" lon="-14.0213">
        <ele>154.4</ele>
        <time>2021-07-04 17:36:25</time>
      </trkpt>
      <trkpt lat="28.49315" lon="-14.0213">
        <ele>154.4</ele>
        <time>2021-07-04 17:36:26</time>
      </trkpt>
      <trkpt lat="28.4931" lon="-14.0213">
        <ele>154.6</ele>
        <time>2021-07-04 17:36:27</time>
      </trkpt>
      <trkpt lat="28.49304" lon="-14.0213">
        <ele>154.6</ele>
        <time>2021-07-04 17:36:28</time>
      </trkpt>
      <trkpt lat="28.49299" lon="-14.0213">
        <ele>154.6</ele>
        <time>2021-07-04 17:36:29</time>
      </trkpt>
      <trkpt lat="28.49294" lon="-14.0213">
        <ele>154.8</ele>
        <time>2021-07-04 17:36:30</time>
      </trkpt>
      <trkpt lat="28.4929" lon="-14.0213">
        <ele>154.8</ele>
        <time>2021-07-04 17:36:31</time>
      </trkpt>
      <trkpt lat="28.49285" lon="-14.0213">
        <ele>154.8</ele>
        <time>2021-07-04 17:36:32</time>
      </trkpt>
      <trkpt lat="28.4928" lon="-14.0213">
        <ele>155</ele>
        <time>2021-07-04 17:36:33</time>
      </trkpt>
      <trkpt lat="28.49275" lon="-14.02131">
        <ele>155</ele>
        <time>2021-07-04 17:36:34</time>
      </trkpt>
      <trkpt lat="28.4927" lon="-14.02131">
        <ele>155.4</ele>
        <time>2021-07-04 17:36:35</time>
      </trkpt>
      <trkpt lat="28.49265" lon="-14.02131">
        <ele>155.4</ele>
        <time>2021-07-04 17:36:36</time>
      </trkpt>
      <trkpt lat="28.49259" lon="-14.02132">
        <ele>155.4</ele>
        <time>2021-07-04 17:36:37</time>
      </trkpt>
      <trkpt lat="28.49253" lon="-14.02132">
        <ele>155.6</ele>
        <time>2021-07-04 17:36:38</time>
      </trkpt>
      <trkpt lat="28.49248" lon="-14.02133">
        <ele>155.6</ele>
        <time>2021-07-04 17:36:39</time>
      </trkpt>
      <trkpt lat="28.49243" lon="-14.02133">
        <ele>155.6</ele>
        <time>2021-07-04 17:36:40</time>
      </trkpt>
      <trkpt lat="28.49237" lon="-14.02134">
        <ele>155.8</ele>
        <time>2021-07-04 17:36:41</time>
      </trkpt>
      <trkpt lat="28.49232" lon="-14.02135">
        <ele>155.8</ele>
        <time>2021-07-04 17:36:42</time>
      </trkpt>
      <trkpt lat="28.49226" lon="-14.02136">
        <ele>155.8</ele>
        <time>2021-07-04 17:36:43</time>
      </trkpt>
      <trkpt lat="28.49221" lon="-14.02137">
        <ele>155.8</ele>
        <time>2021-07-04 17:36:44</time>
      </trkpt>
      <trkpt lat="28.49215" lon="-14.02139">
        <ele>156</ele>
        <time>2021-07-04 17:36:45</time>
      </trkpt>
      <trkpt lat="28.49209" lon="-14.02141">
        <ele>156</ele>
        <time>2021-07-04 17:36:46</time>
      </trkpt>
      <trkpt lat="28.49204" lon="-14.02142">
        <ele>156.2</ele>
        <time>2021-07-04 17:36:47</time>
      </trkpt>
      <trkpt lat="28.49199" lon="-14.02144">
        <ele>155.4</ele>
        <time>2021-07-04 17:36:48</time>
      </trkpt>
      <trkpt lat="28.49193" lon="-14.02146">
        <ele>155.8</ele>
        <time>2021-07-04 17:36:49</time>
      </trkpt>
      <trkpt lat="28.49188" lon="-14.02148">
        <ele>156.2</ele>
        <time>2021-07-04 17:36:50</time>
      </trkpt>
      <trkpt lat="28.49183" lon="-14.02151">
        <ele>156.4</ele>
        <time>2021-07-04 17:36:51</time>
      </trkpt>
      <trkpt lat="28.49178" lon="-14.02154">
        <ele>156.6</ele>
        <time>2021-07-04 17:36:52</time>
      </trkpt>
      <trkpt lat="28.49174" lon="-14.02157">
        <ele>156.6</ele>
        <time>2021-07-04 17:36:53</time>
      </trkpt>
      <trkpt lat="28.49169" lon="-14.02159">
        <ele>156.8</ele>
        <time>2021-07-04 17:36:54</time>
      </trkpt>
      <trkpt lat="28.49164" lon="-14.02162">
        <ele>156.8</ele>
        <time>2021-07-04 17:36:55</time>
      </trkpt>
      <trkpt lat="28.49159" lon="-14.02165">
        <ele>156.8</ele>
        <time>2021-07-04 17:36:56</time>
      </trkpt>
      <trkpt lat="28.49154" lon="-14.02168">
        <ele>157</ele>
        <time>2021-07-04 17:36:57</time>
      </trkpt>
      <trkpt lat="28.49149" lon="-14.02171">
        <ele>157</ele>
        <time>2021-07-04 17:36:58</time>
      </trkpt>
      <trkpt lat="28.49144" lon="-14.02174">
        <ele>157</ele>
        <time>2021-07-04 17:36:59</time>
      </trkpt>
      <trkpt lat="28.49139" lon="-14.02178">
        <ele>157</ele>
        <time>2021-07-04 17:37:00</time>
      </trkpt>
      <trkpt lat="28.49135" lon="-14.02181">
        <ele>157</ele>
        <time>2021-07-04 17:37:01</time>
      </trkpt>
      <trkpt lat="28.4913" lon="-14.02184">
        <ele>157.2</ele>
        <time>2021-07-04 17:37:02</time>
      </trkpt>
      <trkpt lat="28.49125" lon="-14.02188">
        <ele>157.2</ele>
        <time>2021-07-04 17:37:03</time>
      </trkpt>
      <trkpt lat="28.4912" lon="-14.02192">
        <ele>157.2</ele>
        <time>2021-07-04 17:37:04</time>
      </trkpt>
      <trkpt lat="28.49115" lon="-14.02196">
        <ele>157.6</ele>
        <time>2021-07-04 17:37:05</time>
      </trkpt>
      <trkpt lat="28.4911" lon="-14.02199">
        <ele>157.6</ele>
        <time>2021-07-04 17:37:06</time>
      </trkpt>
      <trkpt lat="28.49106" lon="-14.02203">
        <ele>157.8</ele>
        <time>2021-07-04 17:37:07</time>
      </trkpt>
      <trkpt lat="28.49101" lon="-14.02207">
        <ele>158</ele>
        <time>2021-07-04 17:37:08</time>
      </trkpt>
      <trkpt lat="28.49096" lon="-14.02211">
        <ele>158</ele>
        <time>2021-07-04 17:37:09</time>
      </trkpt>
      <trkpt lat="28.49091" lon="-14.02214">
        <ele>158</ele>
        <time>2021-07-04 17:37:10</time>
      </trkpt>
      <trkpt lat="28.49086" lon="-14.02218">
        <ele>158.4</ele>
        <time>2021-07-04 17:37:11</time>
      </trkpt>
      <trkpt lat="28.49081" lon="-14.0222">
        <ele>158.4</ele>
        <time>2021-07-04 17:37:12</time>
      </trkpt>
      <trkpt lat="28.49076" lon="-14.02224">
        <ele>158.8</ele>
        <time>2021-07-04 17:37:13</time>
      </trkpt>
      <trkpt lat="28.49071" lon="-14.02227">
        <ele>158.8</ele>
        <time>2021-07-04 17:37:14</time>
      </trkpt>
      <trkpt lat="28.49066" lon="-14.0223">
        <ele>158.8</ele>
        <time>2021-07-04 17:37:15</time>
      </trkpt>
      <trkpt lat="28.49062" lon="-14.02233">
        <ele>159.2</ele>
        <time>2021-07-04 17:37:16</time>
      </trkpt>
      <trkpt lat="28.49057" lon="-14.02237">
        <ele>159.2</ele>
        <time>2021-07-04 17:37:17</time>
      </trkpt>
      <trkpt lat="28.49053" lon="-14.02241">
        <ele>159.4</ele>
        <time>2021-07-04 17:37:18</time>
      </trkpt>
      <trkpt lat="28.49048" lon="-14.02244">
        <ele>159.6</ele>
        <time>2021-07-04 17:37:19</time>
      </trkpt>
      <trkpt lat="28.49043" lon="-14.02247">
        <ele>159.6</ele>
        <time>2021-07-04 17:37:20</time>
      </trkpt>
      <trkpt lat="28.49039" lon="-14.0225">
        <ele>160</ele>
        <time>2021-07-04 17:37:21</time>
      </trkpt>
      <trkpt lat="28.49035" lon="-14.02254">
        <ele>160</ele>
        <time>2021-07-04 17:37:22</time>
      </trkpt>
      <trkpt lat="28.4903" lon="-14.02257">
        <ele>160.4</ele>
        <time>2021-07-04 17:37:23</time>
      </trkpt>
      <trkpt lat="28.49027" lon="-14.0226">
        <ele>160.4</ele>
        <time>2021-07-04 17:37:24</time>
      </trkpt>
      <trkpt lat="28.49022" lon="-14.02263">
        <ele>160.8</ele>
        <time>2021-07-04 17:37:25</time>
      </trkpt>
      <trkpt lat="28.49018" lon="-14.02266">
        <ele>160.8</ele>
        <time>2021-07-04 17:37:26</time>
      </trkpt>
      <trkpt lat="28.49001" lon="-14.02277">
        <ele>161</ele>
        <time>2021-07-04 17:37:27</time>
      </trkpt>
      <trkpt lat="28.48997" lon="-14.02279">
        <ele>161.4</ele>
        <time>2021-07-04 17:37:28</time>
      </trkpt>
      <trkpt lat="28.48993" lon="-14.02281">
        <ele>161.4</ele>
        <time>2021-07-04 17:37:29</time>
      </trkpt>
      <trkpt lat="28.48989" lon="-14.02283">
        <ele>161.6</ele>
        <time>2021-07-04 17:37:30</time>
      </trkpt>
      <trkpt lat="28.48984" lon="-14.02286">
        <ele>161.6</ele>
        <time>2021-07-04 17:37:31</time>
      </trkpt>
      <trkpt lat="28.4898" lon="-14.02288">
        <ele>162</ele>
        <time>2021-07-04 17:37:32</time>
      </trkpt>
      <trkpt lat="28.48975" lon="-14.0229">
        <ele>162</ele>
        <time>2021-07-04 17:37:33</time>
      </trkpt>
      <trkpt lat="28.48971" lon="-14.02291">
        <ele>162.4</ele>
        <time>2021-07-04 17:37:34</time>
      </trkpt>
      <trkpt lat="28.48966" lon="-14.02293">
        <ele>162.4</ele>
        <time>2021-07-04 17:37:35</time>
      </trkpt>
      <trkpt lat="28.48962" lon="-14.02295">
        <ele>162.6</ele>
        <time>2021-07-04 17:37:36</time>
      </trkpt>
      <trkpt lat="28.48958" lon="-14.02298">
        <ele>162.8</ele>
        <time>2021-07-04 17:37:37</time>
      </trkpt>
      <trkpt lat="28.48954" lon="-14.023">
        <ele>162.8</ele>
        <time>2021-07-04 17:37:38</time>
      </trkpt>
      <trkpt lat="28.4895" lon="-14.02302">
        <ele>163.2</ele>
        <time>2021-07-04 17:37:39</time>
      </trkpt>
      <trkpt lat="28.48946" lon="-14.02305">
        <ele>163.2</ele>
        <time>2021-07-04 17:37:40</time>
      </trkpt>
      <trkpt lat="28.48941" lon="-14.02307">
        <ele>163.2</ele>
        <time>2021-07-04 17:37:41</time>
      </trkpt>
      <trkpt lat="28.48937" lon="-14.0231">
        <ele>163.4</ele>
        <time>2021-07-04 17:37:42</time>
      </trkpt>
      <trkpt lat="28.48934" lon="-14.02313">
        <ele>163.4</ele>
        <time>2021-07-04 17:37:43</time>
      </trkpt>
      <trkpt lat="28.48927" lon="-14.02319">
        <ele>163.6</ele>
        <time>2021-07-04 17:37:44</time>
      </trkpt>
      <trkpt lat="28.48923" lon="-14.02322">
        <ele>163.6</ele>
        <time>2021-07-04 17:37:45</time>
      </trkpt>
      <trkpt lat="28.48919" lon="-14.02325">
        <ele>163.8</ele>
        <time>2021-07-04 17:37:46</time>
      </trkpt>
      <trkpt lat="28.48916" lon="-14.02328">
        <ele>163.8</ele>
        <time>2021-07-04 17:37:47</time>
      </trkpt>
      <trkpt lat="28.48912" lon="-14.02331">
        <ele>163.8</ele>
        <time>2021-07-04 17:37:48</time>
      </trkpt>
      <trkpt lat="28.48908" lon="-14.02334">
        <ele>164</ele>
        <time>2021-07-04 17:37:49</time>
      </trkpt>
      <trkpt lat="28.48904" lon="-14.02338">
        <ele>164</ele>
        <time>2021-07-04 17:37:50</time>
      </trkpt>
      <trkpt lat="28.48901" lon="-14.02341">
        <ele>164</ele>
        <time>2021-07-04 17:37:51</time>
      </trkpt>
      <trkpt lat="28.48897" lon="-14.02345">
        <ele>164.4</ele>
        <time>2021-07-04 17:37:52</time>
      </trkpt>
      <trkpt lat="28.48894" lon="-14.02349">
        <ele>164.4</ele>
        <time>2021-07-04 17:37:53</time>
      </trkpt>
      <trkpt lat="28.4889" lon="-14.02352">
        <ele>164.4</ele>
        <time>2021-07-04 17:37:54</time>
      </trkpt>
      <trkpt lat="28.48886" lon="-14.02356">
        <ele>164.4</ele>
        <time>2021-07-04 17:37:55</time>
      </trkpt>
      <trkpt lat="28.48882" lon="-14.02359">
        <ele>164.6</ele>
        <time>2021-07-04 17:37:56</time>
      </trkpt>
      <trkpt lat="28.48878" lon="-14.02362">
        <ele>164.6</ele>
        <time>2021-07-04 17:37:57</time>
      </trkpt>
      <trkpt lat="28.48874" lon="-14.02366">
        <ele>165</ele>
        <time>2021-07-04 17:37:58</time>
      </trkpt>
      <trkpt lat="28.4887" lon="-14.02369">
        <ele>165.2</ele>
        <time>2021-07-04 17:37:59</time>
      </trkpt>
      <trkpt lat="28.48867" lon="-14.02372">
        <ele>165.4</ele>
        <time>2021-07-04 17:38:00</time>
      </trkpt>
      <trkpt lat="28.48862" lon="-14.02375">
        <ele>165.8</ele>
        <time>2021-07-04 17:38:01</time>
      </trkpt>
      <trkpt lat="28.48859" lon="-14.02378">
        <ele>166</ele>
        <time>2021-07-04 17:38:02</time>
      </trkpt>
      <trkpt lat="28.48855" lon="-14.02381">
        <ele>166.2</ele>
        <time>2021-07-04 17:38:03</time>
      </trkpt>
      <trkpt lat="28.48851" lon="-14.02384">
        <ele>166.4</ele>
        <time>2021-07-04 17:38:04</time>
      </trkpt>
      <trkpt lat="28.48847" lon="-14.02387">
        <ele>166.6</ele>
        <time>2021-07-04 17:38:05</time>
      </trkpt>
      <trkpt lat="28.48843" lon="-14.0239">
        <ele>166.6</ele>
        <time>2021-07-04 17:38:06</time>
      </trkpt>
      <trkpt lat="28.48839" lon="-14.02392">
        <ele>167</ele>
        <time>2021-07-04 17:38:07</time>
      </trkpt>
      <trkpt lat="28.48835" lon="-14.02395">
        <ele>167</ele>
        <time>2021-07-04 17:38:08</time>
      </trkpt>
      <trkpt lat="28.48831" lon="-14.02398">
        <ele>167</ele>
        <time>2021-07-04 17:38:09</time>
      </trkpt>
      <trkpt lat="28.48826" lon="-14.02401">
        <ele>167</ele>
        <time>2021-07-04 17:38:10</time>
      </trkpt>
      <trkpt lat="28.48822" lon="-14.02404">
        <ele>167</ele>
        <time>2021-07-04 17:38:11</time>
      </trkpt>
      <trkpt lat="28.48817" lon="-14.02406">
        <ele>167.2</ele>
        <time>2021-07-04 17:38:12</time>
      </trkpt>
      <trkpt lat="28.48813" lon="-14.02408">
        <ele>167.2</ele>
        <time>2021-07-04 17:38:13</time>
      </trkpt>
      <trkpt lat="28.48809" lon="-14.0241">
        <ele>167.2</ele>
        <time>2021-07-04 17:38:14</time>
      </trkpt>
      <trkpt lat="28.48804" lon="-14.02412">
        <ele>167.4</ele>
        <time>2021-07-04 17:38:15</time>
      </trkpt>
      <trkpt lat="28.48799" lon="-14.02413">
        <ele>167.4</ele>
        <time>2021-07-04 17:38:16</time>
      </trkpt>
      <trkpt lat="28.48794" lon="-14.02415">
        <ele>167.4</ele>
        <time>2021-07-04 17:38:17</time>
      </trkpt>
      <trkpt lat="28.4879" lon="-14.02416">
        <ele>167.4</ele>
        <time>2021-07-04 17:38:18</time>
      </trkpt>
      <trkpt lat="28.48786" lon="-14.02416">
        <ele>167.6</ele>
        <time>2021-07-04 17:38:19</time>
      </trkpt>
      <trkpt lat="28.48782" lon="-14.02417">
        <ele>167.6</ele>
        <time>2021-07-04 17:38:20</time>
      </trkpt>
      <trkpt lat="28.48777" lon="-14.02419">
        <ele>167.6</ele>
        <time>2021-07-04 17:38:21</time>
      </trkpt>
      <trkpt lat="28.48774" lon="-14.0242">
        <ele>168</ele>
        <time>2021-07-04 17:38:22</time>
      </trkpt>
      <trkpt lat="28.4877" lon="-14.02422">
        <ele>168</ele>
        <time>2021-07-04 17:38:23</time>
      </trkpt>
      <trkpt lat="28.48765" lon="-14.02423">
        <ele>168</ele>
        <time>2021-07-04 17:38:24</time>
      </trkpt>
      <trkpt lat="28.48761" lon="-14.02424">
        <ele>168.2</ele>
        <time>2021-07-04 17:38:25</time>
      </trkpt>
      <trkpt lat="28.48757" lon="-14.02425">
        <ele>168.2</ele>
        <time>2021-07-04 17:38:26</time>
      </trkpt>
      <trkpt lat="28.48753" lon="-14.02427">
        <ele>168.2</ele>
        <time>2021-07-04 17:38:27</time>
      </trkpt>
      <trkpt lat="28.4875" lon="-14.02429">
        <ele>168.2</ele>
        <time>2021-07-04 17:38:28</time>
      </trkpt>
      <trkpt lat="28.48746" lon="-14.0243">
        <ele>168.2</ele>
        <time>2021-07-04 17:38:29</time>
      </trkpt>
      <trkpt lat="28.48742" lon="-14.02432">
        <ele>168.4</ele>
        <time>2021-07-04 17:38:30</time>
      </trkpt>
      <trkpt lat="28.48738" lon="-14.02433">
        <ele>168.4</ele>
        <time>2021-07-04 17:38:31</time>
      </trkpt>
      <trkpt lat="28.48734" lon="-14.02435">
        <ele>168.8</ele>
        <time>2021-07-04 17:38:32</time>
      </trkpt>
      <trkpt lat="28.4873" lon="-14.02436">
        <ele>168.8</ele>
        <time>2021-07-04 17:38:33</time>
      </trkpt>
      <trkpt lat="28.48726" lon="-14.02437">
        <ele>169</ele>
        <time>2021-07-04 17:38:34</time>
      </trkpt>
      <trkpt lat="28.48722" lon="-14.02439">
        <ele>169</ele>
        <time>2021-07-04 17:38:35</time>
      </trkpt>
      <trkpt lat="28.48718" lon="-14.02441">
        <ele>169.4</ele>
        <time>2021-07-04 17:38:36</time>
      </trkpt>
      <trkpt lat="28.48714" lon="-14.02442">
        <ele>169.4</ele>
        <time>2021-07-04 17:38:37</time>
      </trkpt>
      <trkpt lat="28.4871" lon="-14.02444">
        <ele>169.8</ele>
        <time>2021-07-04 17:38:38</time>
      </trkpt>
      <trkpt lat="28.48705" lon="-14.02446">
        <ele>169.8</ele>
        <time>2021-07-04 17:38:39</time>
      </trkpt>
      <trkpt lat="28.48701" lon="-14.02447">
        <ele>170</ele>
        <time>2021-07-04 17:38:40</time>
      </trkpt>
      <trkpt lat="28.48697" lon="-14.02449">
        <ele>170</ele>
        <time>2021-07-04 17:38:41</time>
      </trkpt>
      <trkpt lat="28.48693" lon="-14.0245">
        <ele>170</ele>
        <time>2021-07-04 17:38:42</time>
      </trkpt>
      <trkpt lat="28.48689" lon="-14.02452">
        <ele>170</ele>
        <time>2021-07-04 17:38:43</time>
      </trkpt>
      <trkpt lat="28.48684" lon="-14.02453">
        <ele>170.2</ele>
        <time>2021-07-04 17:38:44</time>
      </trkpt>
      <trkpt lat="28.4868" lon="-14.02455">
        <ele>170.2</ele>
        <time>2021-07-04 17:38:45</time>
      </trkpt>
      <trkpt lat="28.48676" lon="-14.02457">
        <ele>170.2</ele>
        <time>2021-07-04 17:38:46</time>
      </trkpt>
      <trkpt lat="28.48672" lon="-14.02458">
        <ele>170.2</ele>
        <time>2021-07-04 17:38:47</time>
      </trkpt>
      <trkpt lat="28.48668" lon="-14.0246">
        <ele>170.2</ele>
        <time>2021-07-04 17:38:48</time>
      </trkpt>
      <trkpt lat="28.48664" lon="-14.02462">
        <ele>170.4</ele>
        <time>2021-07-04 17:38:49</time>
      </trkpt>
      <trkpt lat="28.48659" lon="-14.02464">
        <ele>170.4</ele>
        <time>2021-07-04 17:38:50</time>
      </trkpt>
      <trkpt lat="28.48656" lon="-14.02467">
        <ele>170.4</ele>
        <time>2021-07-04 17:38:51</time>
      </trkpt>
      <trkpt lat="28.48651" lon="-14.02469">
        <ele>170.4</ele>
        <time>2021-07-04 17:38:52</time>
      </trkpt>
      <trkpt lat="28.48647" lon="-14.0247">
        <ele>170.6</ele>
        <time>2021-07-04 17:38:53</time>
      </trkpt>
      <trkpt lat="28.48643" lon="-14.02472">
        <ele>170.6</ele>
        <time>2021-07-04 17:38:54</time>
      </trkpt>
      <trkpt lat="28.48638" lon="-14.02474">
        <ele>171</ele>
        <time>2021-07-04 17:38:55</time>
      </trkpt>
      <trkpt lat="28.48634" lon="-14.02476">
        <ele>171.2</ele>
        <time>2021-07-04 17:38:56</time>
      </trkpt>
      <trkpt lat="28.4863" lon="-14.02477">
        <ele>171.2</ele>
        <time>2021-07-04 17:38:57</time>
      </trkpt>
      <trkpt lat="28.48626" lon="-14.02479">
        <ele>171.6</ele>
        <time>2021-07-04 17:38:58</time>
      </trkpt>
      <trkpt lat="28.48622" lon="-14.0248">
        <ele>171.6</ele>
        <time>2021-07-04 17:38:59</time>
      </trkpt>
      <trkpt lat="28.48617" lon="-14.02482">
        <ele>171.8</ele>
        <time>2021-07-04 17:39:00</time>
      </trkpt>
      <trkpt lat="28.48613" lon="-14.02483">
        <ele>171.8</ele>
        <time>2021-07-04 17:39:01</time>
      </trkpt>
      <trkpt lat="28.48608" lon="-14.02485">
        <ele>172</ele>
        <time>2021-07-04 17:39:02</time>
      </trkpt>
      <trkpt lat="28.48603" lon="-14.02487">
        <ele>172</ele>
        <time>2021-07-04 17:39:03</time>
      </trkpt>
      <trkpt lat="28.48599" lon="-14.02489">
        <ele>172</ele>
        <time>2021-07-04 17:39:04</time>
      </trkpt>
      <trkpt lat="28.48594" lon="-14.02491">
        <ele>172</ele>
        <time>2021-07-04 17:39:05</time>
      </trkpt>
      <trkpt lat="28.4859" lon="-14.02492">
        <ele>172</ele>
        <time>2021-07-04 17:39:06</time>
      </trkpt>
      <trkpt lat="28.48586" lon="-14.02494">
        <ele>172.4</ele>
        <time>2021-07-04 17:39:07</time>
      </trkpt>
      <trkpt lat="28.48581" lon="-14.02496">
        <ele>172.4</ele>
        <time>2021-07-04 17:39:08</time>
      </trkpt>
      <trkpt lat="28.48578" lon="-14.02498">
        <ele>172.4</ele>
        <time>2021-07-04 17:39:09</time>
      </trkpt>
      <trkpt lat="28.48573" lon="-14.025">
        <ele>172.6</ele>
        <time>2021-07-04 17:39:10</time>
      </trkpt>
      <trkpt lat="28.48569" lon="-14.02503">
        <ele>172.6</ele>
        <time>2021-07-04 17:39:11</time>
      </trkpt>
      <trkpt lat="28.48565" lon="-14.02505">
        <ele>172.6</ele>
        <time>2021-07-04 17:39:12</time>
      </trkpt>
      <trkpt lat="28.48562" lon="-14.02508">
        <ele>172.6</ele>
        <time>2021-07-04 17:39:13</time>
      </trkpt>
      <trkpt lat="28.48559" lon="-14.02512">
        <ele>172.6</ele>
        <time>2021-07-04 17:39:14</time>
      </trkpt>
      <trkpt lat="28.48556" lon="-14.02516">
        <ele>172.8</ele>
        <time>2021-07-04 17:39:15</time>
      </trkpt>
      <trkpt lat="28.48552" lon="-14.02519">
        <ele>172.8</ele>
        <time>2021-07-04 17:39:16</time>
      </trkpt>
      <trkpt lat="28.48549" lon="-14.02522">
        <ele>172.8</ele>
        <time>2021-07-04 17:39:17</time>
      </trkpt>
      <trkpt lat="28.48545" lon="-14.02525">
        <ele>173.2</ele>
        <time>2021-07-04 17:39:18</time>
      </trkpt>
      <trkpt lat="28.48542" lon="-14.02529">
        <ele>173.2</ele>
        <time>2021-07-04 17:39:19</time>
      </trkpt>
      <trkpt lat="28.48538" lon="-14.02531">
        <ele>173.4</ele>
        <time>2021-07-04 17:39:20</time>
      </trkpt>
      <trkpt lat="28.48534" lon="-14.02533">
        <ele>173.4</ele>
        <time>2021-07-04 17:39:21</time>
      </trkpt>
      <trkpt lat="28.4853" lon="-14.02535">
        <ele>173.6</ele>
        <time>2021-07-04 17:39:22</time>
      </trkpt>
      <trkpt lat="28.48527" lon="-14.02538">
        <ele>173.6</ele>
        <time>2021-07-04 17:39:23</time>
      </trkpt>
      <trkpt lat="28.48523" lon="-14.0254">
        <ele>173.8</ele>
        <time>2021-07-04 17:39:24</time>
      </trkpt>
      <trkpt lat="28.48518" lon="-14.02542">
        <ele>173.8</ele>
        <time>2021-07-04 17:39:25</time>
      </trkpt>
      <trkpt lat="28.48514" lon="-14.02543">
        <ele>173.8</ele>
        <time>2021-07-04 17:39:26</time>
      </trkpt>
      <trkpt lat="28.48509" lon="-14.02545">
        <ele>173.8</ele>
        <time>2021-07-04 17:39:27</time>
      </trkpt>
      <trkpt lat="28.48505" lon="-14.02547">
        <ele>173.8</ele>
        <time>2021-07-04 17:39:28</time>
      </trkpt>
      <trkpt lat="28.48501" lon="-14.02549">
        <ele>173.8</ele>
        <time>2021-07-04 17:39:29</time>
      </trkpt>
      <trkpt lat="28.48496" lon="-14.02551">
        <ele>173.8</ele>
        <time>2021-07-04 17:39:30</time>
      </trkpt>
      <trkpt lat="28.48492" lon="-14.02554">
        <ele>173.6</ele>
        <time>2021-07-04 17:39:31</time>
      </trkpt>
      <trkpt lat="28.48487" lon="-14.02557">
        <ele>173.6</ele>
        <time>2021-07-04 17:39:32</time>
      </trkpt>
      <trkpt lat="28.48484" lon="-14.0256">
        <ele>173.6</ele>
        <time>2021-07-04 17:39:33</time>
      </trkpt>
      <trkpt lat="28.4848" lon="-14.02563">
        <ele>173.6</ele>
        <time>2021-07-04 17:39:34</time>
      </trkpt>
      <trkpt lat="28.48476" lon="-14.02566">
        <ele>173.8</ele>
        <time>2021-07-04 17:39:35</time>
      </trkpt>
      <trkpt lat="28.48472" lon="-14.02569">
        <ele>174</ele>
        <time>2021-07-04 17:39:36</time>
      </trkpt>
      <trkpt lat="28.48469" lon="-14.02572">
        <ele>174</ele>
        <time>2021-07-04 17:39:37</time>
      </trkpt>
      <trkpt lat="28.48465" lon="-14.02576">
        <ele>174.4</ele>
        <time>2021-07-04 17:39:38</time>
      </trkpt>
      <trkpt lat="28.48461" lon="-14.02579">
        <ele>174.4</ele>
        <time>2021-07-04 17:39:39</time>
      </trkpt>
      <trkpt lat="28.48457" lon="-14.02583">
        <ele>174.6</ele>
        <time>2021-07-04 17:39:40</time>
      </trkpt>
      <trkpt lat="28.48453" lon="-14.02586">
        <ele>174.6</ele>
        <time>2021-07-04 17:39:41</time>
      </trkpt>
      <trkpt lat="28.48449" lon="-14.0259">
        <ele>174.6</ele>
        <time>2021-07-04 17:39:42</time>
      </trkpt>
      <trkpt lat="28.48445" lon="-14.02593">
        <ele>174.6</ele>
        <time>2021-07-04 17:39:43</time>
      </trkpt>
      <trkpt lat="28.48441" lon="-14.02595">
        <ele>174.8</ele>
        <time>2021-07-04 17:39:44</time>
      </trkpt>
      <trkpt lat="28.48437" lon="-14.02597">
        <ele>174.6</ele>
        <time>2021-07-04 17:39:45</time>
      </trkpt>
      <trkpt lat="28.48433" lon="-14.026">
        <ele>175</ele>
        <time>2021-07-04 17:39:46</time>
      </trkpt>
      <trkpt lat="28.4843" lon="-14.02602">
        <ele>175.2</ele>
        <time>2021-07-04 17:39:47</time>
      </trkpt>
      <trkpt lat="28.48426" lon="-14.02605">
        <ele>175.4</ele>
        <time>2021-07-04 17:39:48</time>
      </trkpt>
      <trkpt lat="28.48423" lon="-14.02607">
        <ele>175.4</ele>
        <time>2021-07-04 17:39:49</time>
      </trkpt>
      <trkpt lat="28.48419" lon="-14.0261">
        <ele>175.4</ele>
        <time>2021-07-04 17:39:50</time>
      </trkpt>
      <trkpt lat="28.48416" lon="-14.02614">
        <ele>175.4</ele>
        <time>2021-07-04 17:39:51</time>
      </trkpt>
      <trkpt lat="28.48412" lon="-14.02618">
        <ele>175.4</ele>
        <time>2021-07-04 17:39:52</time>
      </trkpt>
      <trkpt lat="28.48409" lon="-14.02621">
        <ele>175.6</ele>
        <time>2021-07-04 17:39:53</time>
      </trkpt>
      <trkpt lat="28.48405" lon="-14.02625">
        <ele>175.6</ele>
        <time>2021-07-04 17:39:54</time>
      </trkpt>
      <trkpt lat="28.48402" lon="-14.02628">
        <ele>176</ele>
        <time>2021-07-04 17:39:55</time>
      </trkpt>
      <trkpt lat="28.48397" lon="-14.02631">
        <ele>176</ele>
        <time>2021-07-04 17:39:56</time>
      </trkpt>
      <trkpt lat="28.48393" lon="-14.02633">
        <ele>176.2</ele>
        <time>2021-07-04 17:39:57</time>
      </trkpt>
      <trkpt lat="28.48388" lon="-14.02634">
        <ele>176.2</ele>
        <time>2021-07-04 17:39:58</time>
      </trkpt>
      <trkpt lat="28.48384" lon="-14.02633">
        <ele>176.2</ele>
        <time>2021-07-04 17:39:59</time>
      </trkpt>
      <trkpt lat="28.48379" lon="-14.02633">
        <ele>176.2</ele>
        <time>2021-07-04 17:40:00</time>
      </trkpt>
      <trkpt lat="28.48374" lon="-14.02631">
        <ele>176.2</ele>
        <time>2021-07-04 17:40:01</time>
      </trkpt>
      <trkpt lat="28.48369" lon="-14.0263">
        <ele>176.2</ele>
        <time>2021-07-04 17:40:02</time>
      </trkpt>
      <trkpt lat="28.48364" lon="-14.02628">
        <ele>176.2</ele>
        <time>2021-07-04 17:40:03</time>
      </trkpt>
      <trkpt lat="28.4836" lon="-14.02626">
        <ele>176.2</ele>
        <time>2021-07-04 17:40:04</time>
      </trkpt>
      <trkpt lat="28.48355" lon="-14.02625">
        <ele>176.2</ele>
        <time>2021-07-04 17:40:05</time>
      </trkpt>
      <trkpt lat="28.4835" lon="-14.02625">
        <ele>176.4</ele>
        <time>2021-07-04 17:40:06</time>
      </trkpt>
      <trkpt lat="28.48345" lon="-14.02624">
        <ele>176.4</ele>
        <time>2021-07-04 17:40:07</time>
      </trkpt>
      <trkpt lat="28.48341" lon="-14.02623">
        <ele>176.8</ele>
        <time>2021-07-04 17:40:08</time>
      </trkpt>
      <trkpt lat="28.48336" lon="-14.02622">
        <ele>176.8</ele>
        <time>2021-07-04 17:40:09</time>
      </trkpt>
      <trkpt lat="28.48331" lon="-14.02622">
        <ele>177</ele>
        <time>2021-07-04 17:40:10</time>
      </trkpt>
      <trkpt lat="28.48326" lon="-14.02621">
        <ele>177</ele>
        <time>2021-07-04 17:40:11</time>
      </trkpt>
      <trkpt lat="28.4832" lon="-14.0262">
        <ele>177</ele>
        <time>2021-07-04 17:40:12</time>
      </trkpt>
      <trkpt lat="28.48315" lon="-14.02619">
        <ele>177.4</ele>
        <time>2021-07-04 17:40:13</time>
      </trkpt>
      <trkpt lat="28.4831" lon="-14.02617">
        <ele>177.4</ele>
        <time>2021-07-04 17:40:14</time>
      </trkpt>
      <trkpt lat="28.48305" lon="-14.02616">
        <ele>177.6</ele>
        <time>2021-07-04 17:40:15</time>
      </trkpt>
      <trkpt lat="28.483" lon="-14.02615">
        <ele>177.6</ele>
        <time>2021-07-04 17:40:16</time>
      </trkpt>
      <trkpt lat="28.48295" lon="-14.02615">
        <ele>177.8</ele>
        <time>2021-07-04 17:40:17</time>
      </trkpt>
      <trkpt lat="28.4829" lon="-14.02615">
        <ele>177.8</ele>
        <time>2021-07-04 17:40:18</time>
      </trkpt>
      <trkpt lat="28.48285" lon="-14.02615">
        <ele>178.2</ele>
        <time>2021-07-04 17:40:19</time>
      </trkpt>
      <trkpt lat="28.4828" lon="-14.02616">
        <ele>178.2</ele>
        <time>2021-07-04 17:40:20</time>
      </trkpt>
      <trkpt lat="28.48274" lon="-14.02616">
        <ele>178.4</ele>
        <time>2021-07-04 17:40:21</time>
      </trkpt>
      <trkpt lat="28.48269" lon="-14.02616">
        <ele>178.4</ele>
        <time>2021-07-04 17:40:22</time>
      </trkpt>
      <trkpt lat="28.48263" lon="-14.02616">
        <ele>178.8</ele>
        <time>2021-07-04 17:40:23</time>
      </trkpt>
      <trkpt lat="28.48258" lon="-14.02616">
        <ele>178.8</ele>
        <time>2021-07-04 17:40:24</time>
      </trkpt>
      <trkpt lat="28.48252" lon="-14.02615">
        <ele>179</ele>
        <time>2021-07-04 17:40:25</time>
      </trkpt>
      <trkpt lat="28.48247" lon="-14.02614">
        <ele>179</ele>
        <time>2021-07-04 17:40:26</time>
      </trkpt>
      <trkpt lat="28.48241" lon="-14.02614">
        <ele>177.8</ele>
        <time>2021-07-04 17:40:27</time>
      </trkpt>
      <trkpt lat="28.48236" lon="-14.02613">
        <ele>178.4</ele>
        <time>2021-07-04 17:40:28</time>
      </trkpt>
      <trkpt lat="28.48231" lon="-14.02613">
        <ele>179</ele>
        <time>2021-07-04 17:40:29</time>
      </trkpt>
      <trkpt lat="28.48226" lon="-14.02612">
        <ele>179.4</ele>
        <time>2021-07-04 17:40:30</time>
      </trkpt>
      <trkpt lat="28.48221" lon="-14.02611">
        <ele>179.4</ele>
        <time>2021-07-04 17:40:31</time>
      </trkpt>
      <trkpt lat="28.48217" lon="-14.0261">
        <ele>180</ele>
        <time>2021-07-04 17:40:32</time>
      </trkpt>
      <trkpt lat="28.48212" lon="-14.02609">
        <ele>180.2</ele>
        <time>2021-07-04 17:40:33</time>
      </trkpt>
      <trkpt lat="28.48207" lon="-14.02609">
        <ele>180.2</ele>
        <time>2021-07-04 17:40:34</time>
      </trkpt>
      <trkpt lat="28.48201" lon="-14.02608">
        <ele>180.2</ele>
        <time>2021-07-04 17:40:35</time>
      </trkpt>
      <trkpt lat="28.48196" lon="-14.02607">
        <ele>180.4</ele>
        <time>2021-07-04 17:40:36</time>
      </trkpt>
      <trkpt lat="28.48191" lon="-14.02606">
        <ele>180.4</ele>
        <time>2021-07-04 17:40:37</time>
      </trkpt>
      <trkpt lat="28.48186" lon="-14.02605">
        <ele>180.4</ele>
        <time>2021-07-04 17:40:38</time>
      </trkpt>
      <trkpt lat="28.48181" lon="-14.02604">
        <ele>180.6</ele>
        <time>2021-07-04 17:40:39</time>
      </trkpt>
      <trkpt lat="28.48175" lon="-14.02603">
        <ele>180.6</ele>
        <time>2021-07-04 17:40:40</time>
      </trkpt>
      <trkpt lat="28.48169" lon="-14.02603">
        <ele>180.6</ele>
        <time>2021-07-04 17:40:41</time>
      </trkpt>
      <trkpt lat="28.48163" lon="-14.02602">
        <ele>180.6</ele>
        <time>2021-07-04 17:40:42</time>
      </trkpt>
      <trkpt lat="28.48158" lon="-14.02601">
        <ele>180.6</ele>
        <time>2021-07-04 17:40:43</time>
      </trkpt>
      <trkpt lat="28.48152" lon="-14.02601">
        <ele>180.6</ele>
        <time>2021-07-04 17:40:44</time>
      </trkpt>
      <trkpt lat="28.48146" lon="-14.026">
        <ele>180.6</ele>
        <time>2021-07-04 17:40:45</time>
      </trkpt>
      <trkpt lat="28.4814" lon="-14.026">
        <ele>181</ele>
        <time>2021-07-04 17:40:46</time>
      </trkpt>
      <trkpt lat="28.48135" lon="-14.026">
        <ele>181</ele>
        <time>2021-07-04 17:40:47</time>
      </trkpt>
      <trkpt lat="28.48129" lon="-14.02601">
        <ele>181</ele>
        <time>2021-07-04 17:40:48</time>
      </trkpt>
      <trkpt lat="28.48124" lon="-14.02601">
        <ele>181</ele>
        <time>2021-07-04 17:40:49</time>
      </trkpt>
      <trkpt lat="28.48118" lon="-14.02601">
        <ele>181.2</ele>
        <time>2021-07-04 17:40:50</time>
      </trkpt>
      <trkpt lat="28.48113" lon="-14.026">
        <ele>181.2</ele>
        <time>2021-07-04 17:40:51</time>
      </trkpt>
      <trkpt lat="28.48107" lon="-14.026">
        <ele>181.2</ele>
        <time>2021-07-04 17:40:52</time>
      </trkpt>
      <trkpt lat="28.48102" lon="-14.026">
        <ele>181.4</ele>
        <time>2021-07-04 17:40:53</time>
      </trkpt>
      <trkpt lat="28.48097" lon="-14.026">
        <ele>181.4</ele>
        <time>2021-07-04 17:40:54</time>
      </trkpt>
      <trkpt lat="28.48091" lon="-14.02599">
        <ele>181.4</ele>
        <time>2021-07-04 17:40:55</time>
      </trkpt>
      <trkpt lat="28.48086" lon="-14.02599">
        <ele>181.6</ele>
        <time>2021-07-04 17:40:56</time>
      </trkpt>
      <trkpt lat="28.48081" lon="-14.02598">
        <ele>181.6</ele>
        <time>2021-07-04 17:40:57</time>
      </trkpt>
      <trkpt lat="28.48076" lon="-14.02597">
        <ele>181.6</ele>
        <time>2021-07-04 17:40:58</time>
      </trkpt>
      <trkpt lat="28.48071" lon="-14.02596">
        <ele>182</ele>
        <time>2021-07-04 17:40:59</time>
      </trkpt>
      <trkpt lat="28.48065" lon="-14.02596">
        <ele>182</ele>
        <time>2021-07-04 17:41:00</time>
      </trkpt>
      <trkpt lat="28.4806" lon="-14.02596">
        <ele>182.2</ele>
        <time>2021-07-04 17:41:01</time>
      </trkpt>
      <trkpt lat="28.48055" lon="-14.02595">
        <ele>182.2</ele>
        <time>2021-07-04 17:41:02</time>
      </trkpt>
      <trkpt lat="28.4805" lon="-14.02594">
        <ele>182.6</ele>
        <time>2021-07-04 17:41:03</time>
      </trkpt>
      <trkpt lat="28.48045" lon="-14.02595">
        <ele>182.6</ele>
        <time>2021-07-04 17:41:04</time>
      </trkpt>
      <trkpt lat="28.48039" lon="-14.02594">
        <ele>182.6</ele>
        <time>2021-07-04 17:41:05</time>
      </trkpt>
      <trkpt lat="28.48034" lon="-14.02594">
        <ele>182.6</ele>
        <time>2021-07-04 17:41:06</time>
      </trkpt>
      <trkpt lat="28.48029" lon="-14.02593">
        <ele>182.6</ele>
        <time>2021-07-04 17:41:07</time>
      </trkpt>
      <trkpt lat="28.48023" lon="-14.02592">
        <ele>182.8</ele>
        <time>2021-07-04 17:41:08</time>
      </trkpt>
      <trkpt lat="28.48018" lon="-14.02592">
        <ele>182.8</ele>
        <time>2021-07-04 17:41:09</time>
      </trkpt>
      <trkpt lat="28.48013" lon="-14.02592">
        <ele>183.2</ele>
        <time>2021-07-04 17:41:10</time>
      </trkpt>
      <trkpt lat="28.48008" lon="-14.02592">
        <ele>183.2</ele>
        <time>2021-07-04 17:41:11</time>
      </trkpt>
      <trkpt lat="28.48004" lon="-14.02592">
        <ele>183.4</ele>
        <time>2021-07-04 17:41:12</time>
      </trkpt>
      <trkpt lat="28.47999" lon="-14.02591">
        <ele>183.4</ele>
        <time>2021-07-04 17:41:13</time>
      </trkpt>
      <trkpt lat="28.47995" lon="-14.02591">
        <ele>183.8</ele>
        <time>2021-07-04 17:41:14</time>
      </trkpt>
      <trkpt lat="28.47991" lon="-14.02592">
        <ele>183.8</ele>
        <time>2021-07-04 17:41:15</time>
      </trkpt>
      <trkpt lat="28.47987" lon="-14.02592">
        <ele>184</ele>
        <time>2021-07-04 17:41:16</time>
      </trkpt>
      <trkpt lat="28.47983" lon="-14.02591">
        <ele>184</ele>
        <time>2021-07-04 17:41:17</time>
      </trkpt>
      <trkpt lat="28.4798" lon="-14.02591">
        <ele>184</ele>
        <time>2021-07-04 17:41:18</time>
      </trkpt>
      <trkpt lat="28.47976" lon="-14.02591">
        <ele>184</ele>
        <time>2021-07-04 17:41:19</time>
      </trkpt>
      <trkpt lat="28.47973" lon="-14.02591">
        <ele>184.2</ele>
        <time>2021-07-04 17:41:20</time>
      </trkpt>
      <trkpt lat="28.47969" lon="-14.0259">
        <ele>184.2</ele>
        <time>2021-07-04 17:41:21</time>
      </trkpt>
      <trkpt lat="28.47966" lon="-14.02589">
        <ele>184.6</ele>
        <time>2021-07-04 17:41:22</time>
      </trkpt>
      <trkpt lat="28.47962" lon="-14.02589">
        <ele>184.6</ele>
        <time>2021-07-04 17:41:23</time>
      </trkpt>
      <trkpt lat="28.47959" lon="-14.02589">
        <ele>184.6</ele>
        <time>2021-07-04 17:41:24</time>
      </trkpt>
      <trkpt lat="28.47955" lon="-14.02589">
        <ele>184.8</ele>
        <time>2021-07-04 17:41:25</time>
      </trkpt>
      <trkpt lat="28.47951" lon="-14.02589">
        <ele>184.8</ele>
        <time>2021-07-04 17:41:26</time>
      </trkpt>
      <trkpt lat="28.47947" lon="-14.02589">
        <ele>184.8</ele>
        <time>2021-07-04 17:41:27</time>
      </trkpt>
      <trkpt lat="28.47944" lon="-14.02589">
        <ele>185</ele>
        <time>2021-07-04 17:41:28</time>
      </trkpt>
      <trkpt lat="28.4794" lon="-14.02589">
        <ele>185</ele>
        <time>2021-07-04 17:41:29</time>
      </trkpt>
      <trkpt lat="28.47937" lon="-14.0259">
        <ele>185.4</ele>
        <time>2021-07-04 17:41:30</time>
      </trkpt>
      <trkpt lat="28.47933" lon="-14.0259">
        <ele>185.4</ele>
        <time>2021-07-04 17:41:31</time>
      </trkpt>
      <trkpt lat="28.47929" lon="-14.02591">
        <ele>185.6</ele>
        <time>2021-07-04 17:41:32</time>
      </trkpt>
      <trkpt lat="28.47925" lon="-14.02591">
        <ele>185.6</ele>
        <time>2021-07-04 17:41:33</time>
      </trkpt>
      <trkpt lat="28.47921" lon="-14.02591">
        <ele>185.6</ele>
        <time>2021-07-04 17:41:34</time>
      </trkpt>
      <trkpt lat="28.47917" lon="-14.02591">
        <ele>185.8</ele>
        <time>2021-07-04 17:41:35</time>
      </trkpt>
      <trkpt lat="28.47913" lon="-14.02591">
        <ele>185.8</ele>
        <time>2021-07-04 17:41:36</time>
      </trkpt>
      <trkpt lat="28.47909" lon="-14.02591">
        <ele>185.8</ele>
        <time>2021-07-04 17:41:37</time>
      </trkpt>
      <trkpt lat="28.47905" lon="-14.02589">
        <ele>185.8</ele>
        <time>2021-07-04 17:41:38</time>
      </trkpt>
      <trkpt lat="28.479" lon="-14.02587">
        <ele>185.8</ele>
        <time>2021-07-04 17:41:39</time>
      </trkpt>
      <trkpt lat="28.47896" lon="-14.02587">
        <ele>185.8</ele>
        <time>2021-07-04 17:41:40</time>
      </trkpt>
      <trkpt lat="28.47891" lon="-14.02585">
        <ele>185.8</ele>
        <time>2021-07-04 17:41:41</time>
      </trkpt>
      <trkpt lat="28.47886" lon="-14.02584">
        <ele>185.8</ele>
        <time>2021-07-04 17:41:42</time>
      </trkpt>
      <trkpt lat="28.47881" lon="-14.02584">
        <ele>186</ele>
        <time>2021-07-04 17:41:43</time>
      </trkpt>
      <trkpt lat="28.47876" lon="-14.02583">
        <ele>186</ele>
        <time>2021-07-04 17:41:44</time>
      </trkpt>
      <trkpt lat="28.47871" lon="-14.02583">
        <ele>186</ele>
        <time>2021-07-04 17:41:45</time>
      </trkpt>
      <trkpt lat="28.47866" lon="-14.02583">
        <ele>186.2</ele>
        <time>2021-07-04 17:41:46</time>
      </trkpt>
      <trkpt lat="28.47861" lon="-14.02583">
        <ele>186.2</ele>
        <time>2021-07-04 17:41:47</time>
      </trkpt>
      <trkpt lat="28.47856" lon="-14.02583">
        <ele>186.6</ele>
        <time>2021-07-04 17:41:48</time>
      </trkpt>
      <trkpt lat="28.47852" lon="-14.02583">
        <ele>186.6</ele>
        <time>2021-07-04 17:41:49</time>
      </trkpt>
      <trkpt lat="28.47847" lon="-14.02584">
        <ele>186.8</ele>
        <time>2021-07-04 17:41:50</time>
      </trkpt>
      <trkpt lat="28.47842" lon="-14.02583">
        <ele>186.8</ele>
        <time>2021-07-04 17:41:51</time>
      </trkpt>
      <trkpt lat="28.47837" lon="-14.02583">
        <ele>186.8</ele>
        <time>2021-07-04 17:41:52</time>
      </trkpt>
      <trkpt lat="28.47832" lon="-14.02583">
        <ele>187</ele>
        <time>2021-07-04 17:41:53</time>
      </trkpt>
      <trkpt lat="28.47827" lon="-14.02584">
        <ele>187</ele>
        <time>2021-07-04 17:41:54</time>
      </trkpt>
      <trkpt lat="28.47823" lon="-14.02584">
        <ele>187.2</ele>
        <time>2021-07-04 17:41:55</time>
      </trkpt>
      <trkpt lat="28.47818" lon="-14.02584">
        <ele>187.2</ele>
        <time>2021-07-04 17:41:56</time>
      </trkpt>
      <trkpt lat="28.47814" lon="-14.02583">
        <ele>187.2</ele>
        <time>2021-07-04 17:41:57</time>
      </trkpt>
      <trkpt lat="28.47809" lon="-14.02583">
        <ele>187.6</ele>
        <time>2021-07-04 17:41:58</time>
      </trkpt>
      <trkpt lat="28.47805" lon="-14.02582">
        <ele>187.8</ele>
        <time>2021-07-04 17:41:59</time>
      </trkpt>
      <trkpt lat="28.47801" lon="-14.02582">
        <ele>188.2</ele>
        <time>2021-07-04 17:42:00</time>
      </trkpt>
      <trkpt lat="28.47797" lon="-14.02581">
        <ele>188.4</ele>
        <time>2021-07-04 17:42:01</time>
      </trkpt>
      <trkpt lat="28.47793" lon="-14.0258">
        <ele>188.4</ele>
        <time>2021-07-04 17:42:02</time>
      </trkpt>
      <trkpt lat="28.47789" lon="-14.02579">
        <ele>188.4</ele>
        <time>2021-07-04 17:42:03</time>
      </trkpt>
      <trkpt lat="28.47785" lon="-14.02579">
        <ele>188.6</ele>
        <time>2021-07-04 17:42:04</time>
      </trkpt>
      <trkpt lat="28.47781" lon="-14.02579">
        <ele>188.6</ele>
        <time>2021-07-04 17:42:05</time>
      </trkpt>
      <trkpt lat="28.47777" lon="-14.02578">
        <ele>188.8</ele>
        <time>2021-07-04 17:42:06</time>
      </trkpt>
      <trkpt lat="28.47773" lon="-14.02578">
        <ele>188.8</ele>
        <time>2021-07-04 17:42:07</time>
      </trkpt>
      <trkpt lat="28.47769" lon="-14.02577">
        <ele>188.8</ele>
        <time>2021-07-04 17:42:08</time>
      </trkpt>
      <trkpt lat="28.47765" lon="-14.02577">
        <ele>189</ele>
        <time>2021-07-04 17:42:09</time>
      </trkpt>
      <trkpt lat="28.47762" lon="-14.02577">
        <ele>189</ele>
        <time>2021-07-04 17:42:10</time>
      </trkpt>
      <trkpt lat="28.47758" lon="-14.02577">
        <ele>189.4</ele>
        <time>2021-07-04 17:42:11</time>
      </trkpt>
      <trkpt lat="28.47754" lon="-14.02577">
        <ele>189.4</ele>
        <time>2021-07-04 17:42:12</time>
      </trkpt>
      <trkpt lat="28.47751" lon="-14.02576">
        <ele>189.6</ele>
        <time>2021-07-04 17:42:13</time>
      </trkpt>
      <trkpt lat="28.47748" lon="-14.02576">
        <ele>189.6</ele>
        <time>2021-07-04 17:42:14</time>
      </trkpt>
      <trkpt lat="28.47745" lon="-14.02576">
        <ele>189.6</ele>
        <time>2021-07-04 17:42:15</time>
      </trkpt>
      <trkpt lat="28.47742" lon="-14.02577">
        <ele>189.8</ele>
        <time>2021-07-04 17:42:16</time>
      </trkpt>
      <trkpt lat="28.47739" lon="-14.02579">
        <ele>189.8</ele>
        <time>2021-07-04 17:42:17</time>
      </trkpt>
      <trkpt lat="28.47737" lon="-14.02582">
        <ele>189.8</ele>
        <time>2021-07-04 17:42:18</time>
      </trkpt>
      <trkpt lat="28.47737" lon="-14.02585">
        <ele>189.8</ele>
        <time>2021-07-04 17:42:19</time>
      </trkpt>
      <trkpt lat="28.47738" lon="-14.02589">
        <ele>190.2</ele>
        <time>2021-07-04 17:42:20</time>
      </trkpt>
      <trkpt lat="28.4774" lon="-14.02592">
        <ele>190.2</ele>
        <time>2021-07-04 17:42:21</time>
      </trkpt>
      <trkpt lat="28.47742" lon="-14.02595">
        <ele>190.6</ele>
        <time>2021-07-04 17:42:22</time>
      </trkpt>
      <trkpt lat="28.47743" lon="-14.02599">
        <ele>190.6</ele>
        <time>2021-07-04 17:42:23</time>
      </trkpt>
      <trkpt lat="28.47744" lon="-14.02602">
        <ele>191</ele>
        <time>2021-07-04 17:42:24</time>
      </trkpt>
      <trkpt lat="28.47745" lon="-14.02605">
        <ele>191</ele>
        <time>2021-07-04 17:42:25</time>
      </trkpt>
      <trkpt lat="28.47746" lon="-14.02608">
        <ele>191.2</ele>
        <time>2021-07-04 17:42:26</time>
      </trkpt>
      <trkpt lat="28.47747" lon="-14.02611">
        <ele>191.6</ele>
        <time>2021-07-04 17:42:27</time>
      </trkpt>
      <trkpt lat="28.47747" lon="-14.02613">
        <ele>191.8</ele>
        <time>2021-07-04 17:42:28</time>
      </trkpt>
      <trkpt lat="28.47745" lon="-14.02615">
        <ele>191.8</ele>
        <time>2021-07-04 17:42:29</time>
      </trkpt>
      <trkpt lat="28.47743" lon="-14.02615">
        <ele>191.8</ele>
        <time>2021-07-04 17:42:30</time>
      </trkpt>
      <trkpt lat="28.47741" lon="-14.02612">
        <ele>191.4</ele>
        <time>2021-07-04 17:42:31</time>
      </trkpt>
      <trkpt lat="28.4774" lon="-14.02609">
        <ele>191.2</ele>
        <time>2021-07-04 17:42:32</time>
      </trkpt>
      <trkpt lat="28.4774" lon="-14.02605">
        <ele>191.2</ele>
        <time>2021-07-04 17:42:33</time>
      </trkpt>
      <trkpt lat="28.47741" lon="-14.02602">
        <ele>191.2</ele>
        <time>2021-07-04 17:42:34</time>
      </trkpt>
      <trkpt lat="28.47741" lon="-14.02597">
        <ele>191.2</ele>
        <time>2021-07-04 17:42:35</time>
      </trkpt>
      <trkpt lat="28.47741" lon="-14.02593">
        <ele>191.2</ele>
        <time>2021-07-04 17:42:36</time>
      </trkpt>
      <trkpt lat="28.4774" lon="-14.02588">
        <ele>191.2</ele>
        <time>2021-07-04 17:42:37</time>
      </trkpt>
      <trkpt lat="28.47739" lon="-14.02584">
        <ele>191.6</ele>
        <time>2021-07-04 17:42:38</time>
      </trkpt>
      <trkpt lat="28.47737" lon="-14.0258">
        <ele>191.6</ele>
        <time>2021-07-04 17:42:39</time>
      </trkpt>
      <trkpt lat="28.47736" lon="-14.02577">
        <ele>191.8</ele>
        <time>2021-07-04 17:42:40</time>
      </trkpt>
      <trkpt lat="28.47734" lon="-14.02574">
        <ele>191.8</ele>
        <time>2021-07-04 17:42:41</time>
      </trkpt>
      <trkpt lat="28.47732" lon="-14.02571">
        <ele>192.2</ele>
        <time>2021-07-04 17:42:42</time>
      </trkpt>
      <trkpt lat="28.47729" lon="-14.0257">
        <ele>192.2</ele>
        <time>2021-07-04 17:42:43</time>
      </trkpt>
      <trkpt lat="28.47727" lon="-14.0257">
        <ele>192.6</ele>
        <time>2021-07-04 17:42:44</time>
      </trkpt>
      <trkpt lat="28.47724" lon="-14.02572">
        <ele>192.6</ele>
        <time>2021-07-04 17:42:45</time>
      </trkpt>
      <trkpt lat="28.47723" lon="-14.02574">
        <ele>192.8</ele>
        <time>2021-07-04 17:42:46</time>
      </trkpt>
      <trkpt lat="28.47721" lon="-14.02577">
        <ele>192.8</ele>
        <time>2021-07-04 17:42:47</time>
      </trkpt>
      <trkpt lat="28.47719" lon="-14.0258">
        <ele>193.2</ele>
        <time>2021-07-04 17:42:48</time>
      </trkpt>
      <trkpt lat="28.47717" lon="-14.02582">
        <ele>193.2</ele>
        <time>2021-07-04 17:42:49</time>
      </trkpt>
      <trkpt lat="28.47716" lon="-14.02585">
        <ele>193.4</ele>
        <time>2021-07-04 17:42:50</time>
      </trkpt>
      <trkpt lat="28.47714" lon="-14.02589">
        <ele>193.4</ele>
        <time>2021-07-04 17:42:51</time>
      </trkpt>
      <trkpt lat="28.47713" lon="-14.02592">
        <ele>193.6</ele>
        <time>2021-07-04 17:42:52</time>
      </trkpt>
      <trkpt lat="28.47711" lon="-14.02595">
        <ele>193.6</ele>
        <time>2021-07-04 17:42:53</time>
      </trkpt>
      <trkpt lat="28.47709" lon="-14.02598">
        <ele>193.6</ele>
        <time>2021-07-04 17:42:54</time>
      </trkpt>
      <trkpt lat="28.47707" lon="-14.02601">
        <ele>193.6</ele>
        <time>2021-07-04 17:42:55</time>
      </trkpt>
      <trkpt lat="28.47704" lon="-14.02604">
        <ele>193.8</ele>
        <time>2021-07-04 17:42:56</time>
      </trkpt>
      <trkpt lat="28.47703" lon="-14.02607">
        <ele>193.8</ele>
        <time>2021-07-04 17:42:57</time>
      </trkpt>
      <trkpt lat="28.47701" lon="-14.0261">
        <ele>193.8</ele>
        <time>2021-07-04 17:42:58</time>
      </trkpt>
      <trkpt lat="28.47699" lon="-14.02614">
        <ele>194.2</ele>
        <time>2021-07-04 17:42:59</time>
      </trkpt>
      <trkpt lat="28.47696" lon="-14.02617">
        <ele>194.2</ele>
        <time>2021-07-04 17:43:00</time>
      </trkpt>
      <trkpt lat="28.47694" lon="-14.0262">
        <ele>194.4</ele>
        <time>2021-07-04 17:43:01</time>
      </trkpt>
      <trkpt lat="28.47692" lon="-14.02624">
        <ele>194.4</ele>
        <time>2021-07-04 17:43:02</time>
      </trkpt>
      <trkpt lat="28.4769" lon="-14.02627">
        <ele>194.4</ele>
        <time>2021-07-04 17:43:03</time>
      </trkpt>
      <trkpt lat="28.47687" lon="-14.02631">
        <ele>194.6</ele>
        <time>2021-07-04 17:43:04</time>
      </trkpt>
      <trkpt lat="28.47685" lon="-14.02634">
        <ele>194.6</ele>
        <time>2021-07-04 17:43:05</time>
      </trkpt>
      <trkpt lat="28.47683" lon="-14.02638">
        <ele>195</ele>
        <time>2021-07-04 17:43:06</time>
      </trkpt>
      <trkpt lat="28.4768" lon="-14.02642">
        <ele>194.6</ele>
        <time>2021-07-04 17:43:07</time>
      </trkpt>
      <trkpt lat="28.47678" lon="-14.02645">
        <ele>194.8</ele>
        <time>2021-07-04 17:43:08</time>
      </trkpt>
      <trkpt lat="28.47675" lon="-14.02649">
        <ele>194.8</ele>
        <time>2021-07-04 17:43:09</time>
      </trkpt>
      <trkpt lat="28.47673" lon="-14.02652">
        <ele>195.2</ele>
        <time>2021-07-04 17:43:10</time>
      </trkpt>
      <trkpt lat="28.47671" lon="-14.02656">
        <ele>195.2</ele>
        <time>2021-07-04 17:43:11</time>
      </trkpt>
      <trkpt lat="28.47668" lon="-14.0266">
        <ele>195.2</ele>
        <time>2021-07-04 17:43:12</time>
      </trkpt>
      <trkpt lat="28.47666" lon="-14.02664">
        <ele>195.4</ele>
        <time>2021-07-04 17:43:13</time>
      </trkpt>
      <trkpt lat="28.47663" lon="-14.02668">
        <ele>195.4</ele>
        <time>2021-07-04 17:43:14</time>
      </trkpt>
      <trkpt lat="28.47661" lon="-14.02672">
        <ele>195.8</ele>
        <time>2021-07-04 17:43:15</time>
      </trkpt>
      <trkpt lat="28.47658" lon="-14.02676">
        <ele>195.8</ele>
        <time>2021-07-04 17:43:16</time>
      </trkpt>
      <trkpt lat="28.47655" lon="-14.02679">
        <ele>196</ele>
        <time>2021-07-04 17:43:17</time>
      </trkpt>
      <trkpt lat="28.47653" lon="-14.02683">
        <ele>196</ele>
        <time>2021-07-04 17:43:18</time>
      </trkpt>
      <trkpt lat="28.4765" lon="-14.02687">
        <ele>196</ele>
        <time>2021-07-04 17:43:19</time>
      </trkpt>
      <trkpt lat="28.47647" lon="-14.02692">
        <ele>196</ele>
        <time>2021-07-04 17:43:20</time>
      </trkpt>
      <trkpt lat="28.47645" lon="-14.02696">
        <ele>196</ele>
        <time>2021-07-04 17:43:21</time>
      </trkpt>
      <trkpt lat="28.47642" lon="-14.027">
        <ele>196</ele>
        <time>2021-07-04 17:43:22</time>
      </trkpt>
      <trkpt lat="28.4764" lon="-14.02704">
        <ele>196</ele>
        <time>2021-07-04 17:43:23</time>
      </trkpt>
      <trkpt lat="28.47637" lon="-14.02708">
        <ele>196.4</ele>
        <time>2021-07-04 17:43:24</time>
      </trkpt>
      <trkpt lat="28.47634" lon="-14.02712">
        <ele>196.4</ele>
        <time>2021-07-04 17:43:25</time>
      </trkpt>
      <trkpt lat="28.47631" lon="-14.02716">
        <ele>196.8</ele>
        <time>2021-07-04 17:43:26</time>
      </trkpt>
      <trkpt lat="28.47629" lon="-14.0272">
        <ele>197</ele>
        <time>2021-07-04 17:43:27</time>
      </trkpt>
      <trkpt lat="28.47626" lon="-14.02725">
        <ele>197</ele>
        <time>2021-07-04 17:43:28</time>
      </trkpt>
      <trkpt lat="28.47623" lon="-14.02728">
        <ele>197.2</ele>
        <time>2021-07-04 17:43:29</time>
      </trkpt>
      <trkpt lat="28.4762" lon="-14.02733">
        <ele>197.2</ele>
        <time>2021-07-04 17:43:30</time>
      </trkpt>
      <trkpt lat="28.47617" lon="-14.02736">
        <ele>197.2</ele>
        <time>2021-07-04 17:43:31</time>
      </trkpt>
      <trkpt lat="28.47614" lon="-14.0274">
        <ele>197.2</ele>
        <time>2021-07-04 17:43:32</time>
      </trkpt>
      <trkpt lat="28.47612" lon="-14.02744">
        <ele>197.6</ele>
        <time>2021-07-04 17:43:33</time>
      </trkpt>
      <trkpt lat="28.47609" lon="-14.02748">
        <ele>197.6</ele>
        <time>2021-07-04 17:43:34</time>
      </trkpt>
      <trkpt lat="28.47606" lon="-14.02752">
        <ele>197.6</ele>
        <time>2021-07-04 17:43:35</time>
      </trkpt>
      <trkpt lat="28.47604" lon="-14.02756">
        <ele>197.8</ele>
        <time>2021-07-04 17:43:36</time>
      </trkpt>
      <trkpt lat="28.47601" lon="-14.02759">
        <ele>198.2</ele>
        <time>2021-07-04 17:43:37</time>
      </trkpt>
      <trkpt lat="28.47598" lon="-14.02763">
        <ele>198.4</ele>
        <time>2021-07-04 17:43:38</time>
      </trkpt>
      <trkpt lat="28.47594" lon="-14.02766">
        <ele>198.6</ele>
        <time>2021-07-04 17:43:39</time>
      </trkpt>
      <trkpt lat="28.47591" lon="-14.02769">
        <ele>198.8</ele>
        <time>2021-07-04 17:43:40</time>
      </trkpt>
      <trkpt lat="28.47588" lon="-14.02773">
        <ele>198.8</ele>
        <time>2021-07-04 17:43:41</time>
      </trkpt>
      <trkpt lat="28.47585" lon="-14.02776">
        <ele>198.8</ele>
        <time>2021-07-04 17:43:42</time>
      </trkpt>
      <trkpt lat="28.47582" lon="-14.02779">
        <ele>198.8</ele>
        <time>2021-07-04 17:43:43</time>
      </trkpt>
      <trkpt lat="28.47578" lon="-14.02781">
        <ele>198.8</ele>
        <time>2021-07-04 17:43:44</time>
      </trkpt>
      <trkpt lat="28.47574" lon="-14.02783">
        <ele>198.8</ele>
        <time>2021-07-04 17:43:45</time>
      </trkpt>
      <trkpt lat="28.4757" lon="-14.02786">
        <ele>198.8</ele>
        <time>2021-07-04 17:43:46</time>
      </trkpt>
      <trkpt lat="28.47566" lon="-14.02788">
        <ele>198.6</ele>
        <time>2021-07-04 17:43:47</time>
      </trkpt>
      <trkpt lat="28.47562" lon="-14.0279">
        <ele>198.6</ele>
        <time>2021-07-04 17:43:48</time>
      </trkpt>
      <trkpt lat="28.47558" lon="-14.02792">
        <ele>198.6</ele>
        <time>2021-07-04 17:43:49</time>
      </trkpt>
      <trkpt lat="28.47554" lon="-14.02794">
        <ele>198.2</ele>
        <time>2021-07-04 17:43:50</time>
      </trkpt>
      <trkpt lat="28.47551" lon="-14.02796">
        <ele>198.2</ele>
        <time>2021-07-04 17:43:51</time>
      </trkpt>
      <trkpt lat="28.47547" lon="-14.02798">
        <ele>198.2</ele>
        <time>2021-07-04 17:43:52</time>
      </trkpt>
      <trkpt lat="28.47543" lon="-14.02799">
        <ele>198.2</ele>
        <time>2021-07-04 17:43:53</time>
      </trkpt>
      <trkpt lat="28.47539" lon="-14.02802">
        <ele>198</ele>
        <time>2021-07-04 17:43:54</time>
      </trkpt>
      <trkpt lat="28.47535" lon="-14.02803">
        <ele>198</ele>
        <time>2021-07-04 17:43:55</time>
      </trkpt>
      <trkpt lat="28.47531" lon="-14.02805">
        <ele>198</ele>
        <time>2021-07-04 17:43:56</time>
      </trkpt>
      <trkpt lat="28.47527" lon="-14.02807">
        <ele>198</ele>
        <time>2021-07-04 17:43:57</time>
      </trkpt>
      <trkpt lat="28.47524" lon="-14.02808">
        <ele>198</ele>
        <time>2021-07-04 17:43:58</time>
      </trkpt>
      <trkpt lat="28.47519" lon="-14.0281">
        <ele>198</ele>
        <time>2021-07-04 17:43:59</time>
      </trkpt>
      <trkpt lat="28.47515" lon="-14.02812">
        <ele>198</ele>
        <time>2021-07-04 17:44:00</time>
      </trkpt>
      <trkpt lat="28.47511" lon="-14.02813">
        <ele>198</ele>
        <time>2021-07-04 17:44:01</time>
      </trkpt>
      <trkpt lat="28.47507" lon="-14.02815">
        <ele>198</ele>
        <time>2021-07-04 17:44:02</time>
      </trkpt>
      <trkpt lat="28.47503" lon="-14.02816">
        <ele>198</ele>
        <time>2021-07-04 17:44:03</time>
      </trkpt>
      <trkpt lat="28.47499" lon="-14.02818">
        <ele>198</ele>
        <time>2021-07-04 17:44:04</time>
      </trkpt>
      <trkpt lat="28.47495" lon="-14.0282">
        <ele>198.2</ele>
        <time>2021-07-04 17:44:05</time>
      </trkpt>
      <trkpt lat="28.47491" lon="-14.02821">
        <ele>198.2</ele>
        <time>2021-07-04 17:44:06</time>
      </trkpt>
      <trkpt lat="28.47487" lon="-14.02823">
        <ele>198.2</ele>
        <time>2021-07-04 17:44:07</time>
      </trkpt>
      <trkpt lat="28.47483" lon="-14.02825">
        <ele>198.6</ele>
        <time>2021-07-04 17:44:08</time>
      </trkpt>
      <trkpt lat="28.47479" lon="-14.02827">
        <ele>198.6</ele>
        <time>2021-07-04 17:44:09</time>
      </trkpt>
      <trkpt lat="28.47475" lon="-14.02828">
        <ele>198.8</ele>
        <time>2021-07-04 17:44:10</time>
      </trkpt>
      <trkpt lat="28.47471" lon="-14.0283">
        <ele>198.8</ele>
        <time>2021-07-04 17:44:11</time>
      </trkpt>
      <trkpt lat="28.47467" lon="-14.02831">
        <ele>199</ele>
        <time>2021-07-04 17:44:12</time>
      </trkpt>
      <trkpt lat="28.47463" lon="-14.02833">
        <ele>199</ele>
        <time>2021-07-04 17:44:13</time>
      </trkpt>
      <trkpt lat="28.47459" lon="-14.02834">
        <ele>199.4</ele>
        <time>2021-07-04 17:44:14</time>
      </trkpt>
      <trkpt lat="28.47455" lon="-14.02836">
        <ele>199.4</ele>
        <time>2021-07-04 17:44:15</time>
      </trkpt>
      <trkpt lat="28.47451" lon="-14.02838">
        <ele>199.6</ele>
        <time>2021-07-04 17:44:16</time>
      </trkpt>
      <trkpt lat="28.47447" lon="-14.02839">
        <ele>199.8</ele>
        <time>2021-07-04 17:44:17</time>
      </trkpt>
      <trkpt lat="28.47443" lon="-14.02841">
        <ele>199.8</ele>
        <time>2021-07-04 17:44:18</time>
      </trkpt>
      <trkpt lat="28.47439" lon="-14.02843">
        <ele>200.2</ele>
        <time>2021-07-04 17:44:19</time>
      </trkpt>
      <trkpt lat="28.47435" lon="-14.02844">
        <ele>200.2</ele>
        <time>2021-07-04 17:44:20</time>
      </trkpt>
      <trkpt lat="28.47431" lon="-14.02846">
        <ele>200.4</ele>
        <time>2021-07-04 17:44:21</time>
      </trkpt>
      <trkpt lat="28.47427" lon="-14.02847">
        <ele>200.6</ele>
        <time>2021-07-04 17:44:22</time>
      </trkpt>
      <trkpt lat="28.47423" lon="-14.02849">
        <ele>200.6</ele>
        <time>2021-07-04 17:44:23</time>
      </trkpt>
      <trkpt lat="28.47418" lon="-14.0285">
        <ele>200.8</ele>
        <time>2021-07-04 17:44:24</time>
      </trkpt>
      <trkpt lat="28.47414" lon="-14.02852">
        <ele>200.8</ele>
        <time>2021-07-04 17:44:25</time>
      </trkpt>
      <trkpt lat="28.4741" lon="-14.02854">
        <ele>200.8</ele>
        <time>2021-07-04 17:44:26</time>
      </trkpt>
      <trkpt lat="28.47406" lon="-14.02856">
        <ele>201.2</ele>
        <time>2021-07-04 17:44:27</time>
      </trkpt>
      <trkpt lat="28.47402" lon="-14.02859">
        <ele>201.2</ele>
        <time>2021-07-04 17:44:28</time>
      </trkpt>
      <trkpt lat="28.47399" lon="-14.02862">
        <ele>201.2</ele>
        <time>2021-07-04 17:44:29</time>
      </trkpt>
      <trkpt lat="28.47395" lon="-14.02864">
        <ele>201.4</ele>
        <time>2021-07-04 17:44:30</time>
      </trkpt>
      <trkpt lat="28.47391" lon="-14.02867">
        <ele>201.4</ele>
        <time>2021-07-04 17:44:31</time>
      </trkpt>
      <trkpt lat="28.47388" lon="-14.02871">
        <ele>201.4</ele>
        <time>2021-07-04 17:44:32</time>
      </trkpt>
      <trkpt lat="28.47385" lon="-14.02873">
        <ele>201.4</ele>
        <time>2021-07-04 17:44:33</time>
      </trkpt>
      <trkpt lat="28.47382" lon="-14.02877">
        <ele>201.6</ele>
        <time>2021-07-04 17:44:34</time>
      </trkpt>
      <trkpt lat="28.47379" lon="-14.02881">
        <ele>201.6</ele>
        <time>2021-07-04 17:44:35</time>
      </trkpt>
      <trkpt lat="28.47376" lon="-14.02885">
        <ele>201.8</ele>
        <time>2021-07-04 17:44:36</time>
      </trkpt>
      <trkpt lat="28.47374" lon="-14.0289">
        <ele>201.8</ele>
        <time>2021-07-04 17:44:37</time>
      </trkpt>
      <trkpt lat="28.47371" lon="-14.02894">
        <ele>201.8</ele>
        <time>2021-07-04 17:44:38</time>
      </trkpt>
      <trkpt lat="28.47369" lon="-14.02898">
        <ele>202.2</ele>
        <time>2021-07-04 17:44:39</time>
      </trkpt>
      <trkpt lat="28.47367" lon="-14.02902">
        <ele>202.2</ele>
        <time>2021-07-04 17:44:40</time>
      </trkpt>
      <trkpt lat="28.47366" lon="-14.02907">
        <ele>202.6</ele>
        <time>2021-07-04 17:44:41</time>
      </trkpt>
      <trkpt lat="28.47364" lon="-14.02912">
        <ele>202.8</ele>
        <time>2021-07-04 17:44:42</time>
      </trkpt>
      <trkpt lat="28.47363" lon="-14.02917">
        <ele>202.8</ele>
        <time>2021-07-04 17:44:43</time>
      </trkpt>
      <trkpt lat="28.47362" lon="-14.02922">
        <ele>203.2</ele>
        <time>2021-07-04 17:44:44</time>
      </trkpt>
      <trkpt lat="28.47362" lon="-14.02927">
        <ele>203.4</ele>
        <time>2021-07-04 17:44:45</time>
      </trkpt>
      <trkpt lat="28.47362" lon="-14.02932">
        <ele>203.4</ele>
        <time>2021-07-04 17:44:46</time>
      </trkpt>
      <trkpt lat="28.47362" lon="-14.02937">
        <ele>204</ele>
        <time>2021-07-04 17:44:47</time>
      </trkpt>
      <trkpt lat="28.47362" lon="-14.02942">
        <ele>204</ele>
        <time>2021-07-04 17:44:48</time>
      </trkpt>
      <trkpt lat="28.47362" lon="-14.02947">
        <ele>204</ele>
        <time>2021-07-04 17:44:49</time>
      </trkpt>
      <trkpt lat="28.47362" lon="-14.02953">
        <ele>204</ele>
        <time>2021-07-04 17:44:50</time>
      </trkpt>
      <trkpt lat="28.47362" lon="-14.02958">
        <ele>204</ele>
        <time>2021-07-04 17:44:51</time>
      </trkpt>
      <trkpt lat="28.47362" lon="-14.02963">
        <ele>204</ele>
        <time>2021-07-04 17:44:52</time>
      </trkpt>
      <trkpt lat="28.47362" lon="-14.02969">
        <ele>204</ele>
        <time>2021-07-04 17:44:53</time>
      </trkpt>
      <trkpt lat="28.47363" lon="-14.02974">
        <ele>203.8</ele>
        <time>2021-07-04 17:44:54</time>
      </trkpt>
      <trkpt lat="28.47363" lon="-14.02979">
        <ele>203.8</ele>
        <time>2021-07-04 17:44:55</time>
      </trkpt>
      <trkpt lat="28.47364" lon="-14.02985">
        <ele>203.8</ele>
        <time>2021-07-04 17:44:56</time>
      </trkpt>
      <trkpt lat="28.47364" lon="-14.0299">
        <ele>203.8</ele>
        <time>2021-07-04 17:44:57</time>
      </trkpt>
      <trkpt lat="28.47364" lon="-14.02996">
        <ele>203.8</ele>
        <time>2021-07-04 17:44:58</time>
      </trkpt>
      <trkpt lat="28.47365" lon="-14.03002">
        <ele>203.8</ele>
        <time>2021-07-04 17:44:59</time>
      </trkpt>
      <trkpt lat="28.47364" lon="-14.03008">
        <ele>203.8</ele>
        <time>2021-07-04 17:45:00</time>
      </trkpt>
      <trkpt lat="28.47365" lon="-14.03013">
        <ele>203.8</ele>
        <time>2021-07-04 17:45:01</time>
      </trkpt>
      <trkpt lat="28.47365" lon="-14.03019">
        <ele>203.8</ele>
        <time>2021-07-04 17:45:02</time>
      </trkpt>
      <trkpt lat="28.47365" lon="-14.03024">
        <ele>203.4</ele>
        <time>2021-07-04 17:45:03</time>
      </trkpt>
      <trkpt lat="28.47365" lon="-14.03029">
        <ele>203.4</ele>
        <time>2021-07-04 17:45:04</time>
      </trkpt>
      <trkpt lat="28.47366" lon="-14.03034">
        <ele>203.2</ele>
        <time>2021-07-04 17:45:05</time>
      </trkpt>
      <trkpt lat="28.47366" lon="-14.03038">
        <ele>203.2</ele>
        <time>2021-07-04 17:45:06</time>
      </trkpt>
      <trkpt lat="28.47366" lon="-14.03043">
        <ele>203.2</ele>
        <time>2021-07-04 17:45:07</time>
      </trkpt>
      <trkpt lat="28.47366" lon="-14.03049">
        <ele>203.2</ele>
        <time>2021-07-04 17:45:08</time>
      </trkpt>
      <trkpt lat="28.47366" lon="-14.03054">
        <ele>203.2</ele>
        <time>2021-07-04 17:45:09</time>
      </trkpt>
      <trkpt lat="28.47366" lon="-14.0306">
        <ele>203.2</ele>
        <time>2021-07-04 17:45:10</time>
      </trkpt>
      <trkpt lat="28.47367" lon="-14.03065">
        <ele>202.8</ele>
        <time>2021-07-04 17:45:11</time>
      </trkpt>
      <trkpt lat="28.47366" lon="-14.03071">
        <ele>202.8</ele>
        <time>2021-07-04 17:45:12</time>
      </trkpt>
      <trkpt lat="28.47366" lon="-14.03076">
        <ele>202.8</ele>
        <time>2021-07-04 17:45:13</time>
      </trkpt>
      <trkpt lat="28.47366" lon="-14.03081">
        <ele>202.8</ele>
        <time>2021-07-04 17:45:14</time>
      </trkpt>
      <trkpt lat="28.47367" lon="-14.03085">
        <ele>202.8</ele>
        <time>2021-07-04 17:45:15</time>
      </trkpt>
      <trkpt lat="28.47367" lon="-14.0309">
        <ele>203.2</ele>
        <time>2021-07-04 17:45:16</time>
      </trkpt>
      <trkpt lat="28.47367" lon="-14.03094">
        <ele>203.2</ele>
        <time>2021-07-04 17:45:17</time>
      </trkpt>
      <trkpt lat="28.47367" lon="-14.03098">
        <ele>203.6</ele>
        <time>2021-07-04 17:45:18</time>
      </trkpt>
      <trkpt lat="28.47367" lon="-14.03102">
        <ele>203.8</ele>
        <time>2021-07-04 17:45:19</time>
      </trkpt>
      <trkpt lat="28.47368" lon="-14.03107">
        <ele>203.8</ele>
        <time>2021-07-04 17:45:20</time>
      </trkpt>
      <trkpt lat="28.47368" lon="-14.03112">
        <ele>203.8</ele>
        <time>2021-07-04 17:45:21</time>
      </trkpt>
      <trkpt lat="28.47368" lon="-14.03117">
        <ele>203.8</ele>
        <time>2021-07-04 17:45:22</time>
      </trkpt>
      <trkpt lat="28.47368" lon="-14.03121">
        <ele>203.8</ele>
        <time>2021-07-04 17:45:23</time>
      </trkpt>
      <trkpt lat="28.47367" lon="-14.03127">
        <ele>203.8</ele>
        <time>2021-07-04 17:45:24</time>
      </trkpt>
      <trkpt lat="28.47367" lon="-14.03133">
        <ele>203.8</ele>
        <time>2021-07-04 17:45:25</time>
      </trkpt>
      <trkpt lat="28.47367" lon="-14.03139">
        <ele>203.8</ele>
        <time>2021-07-04 17:45:26</time>
      </trkpt>
      <trkpt lat="28.47366" lon="-14.03145">
        <ele>203.8</ele>
        <time>2021-07-04 17:45:27</time>
      </trkpt>
      <trkpt lat="28.47366" lon="-14.0315">
        <ele>204</ele>
        <time>2021-07-04 17:45:28</time>
      </trkpt>
      <trkpt lat="28.47366" lon="-14.03155">
        <ele>204</ele>
        <time>2021-07-04 17:45:29</time>
      </trkpt>
      <trkpt lat="28.47365" lon="-14.0316">
        <ele>204</ele>
        <time>2021-07-04 17:45:30</time>
      </trkpt>
      <trkpt lat="28.47364" lon="-14.03166">
        <ele>204.2</ele>
        <time>2021-07-04 17:45:31</time>
      </trkpt>
      <trkpt lat="28.47363" lon="-14.03171">
        <ele>204.2</ele>
        <time>2021-07-04 17:45:32</time>
      </trkpt>
      <trkpt lat="28.47362" lon="-14.03177">
        <ele>204.2</ele>
        <time>2021-07-04 17:45:33</time>
      </trkpt>
      <trkpt lat="28.47361" lon="-14.03183">
        <ele>204.2</ele>
        <time>2021-07-04 17:45:34</time>
      </trkpt>
      <trkpt lat="28.4736" lon="-14.03189">
        <ele>203.8</ele>
        <time>2021-07-04 17:45:35</time>
      </trkpt>
      <trkpt lat="28.47358" lon="-14.03194">
        <ele>203.6</ele>
        <time>2021-07-04 17:45:36</time>
      </trkpt>
      <trkpt lat="28.47357" lon="-14.032">
        <ele>203.4</ele>
        <time>2021-07-04 17:45:37</time>
      </trkpt>
      <trkpt lat="28.47355" lon="-14.03206">
        <ele>203.4</ele>
        <time>2021-07-04 17:45:38</time>
      </trkpt>
      <trkpt lat="28.47354" lon="-14.03211">
        <ele>203</ele>
        <time>2021-07-04 17:45:39</time>
      </trkpt>
      <trkpt lat="28.47352" lon="-14.03216">
        <ele>203</ele>
        <time>2021-07-04 17:45:40</time>
      </trkpt>
      <trkpt lat="28.4735" lon="-14.03221">
        <ele>203</ele>
        <time>2021-07-04 17:45:41</time>
      </trkpt>
      <trkpt lat="28.47349" lon="-14.03225">
        <ele>203</ele>
        <time>2021-07-04 17:45:42</time>
      </trkpt>
      <trkpt lat="28.47347" lon="-14.0323">
        <ele>203.2</ele>
        <time>2021-07-04 17:45:43</time>
      </trkpt>
      <trkpt lat="28.47345" lon="-14.03234">
        <ele>203.6</ele>
        <time>2021-07-04 17:45:44</time>
      </trkpt>
      <trkpt lat="28.47344" lon="-14.03238">
        <ele>203.8</ele>
        <time>2021-07-04 17:45:45</time>
      </trkpt>
      <trkpt lat="28.47342" lon="-14.03243">
        <ele>204</ele>
        <time>2021-07-04 17:45:46</time>
      </trkpt>
      <trkpt lat="28.47341" lon="-14.03246">
        <ele>204.2</ele>
        <time>2021-07-04 17:45:47</time>
      </trkpt>
      <trkpt lat="28.47341" lon="-14.0325">
        <ele>204.6</ele>
        <time>2021-07-04 17:45:48</time>
      </trkpt>
      <trkpt lat="28.4734" lon="-14.03253">
        <ele>204.8</ele>
        <time>2021-07-04 17:45:49</time>
      </trkpt>
      <trkpt lat="28.47338" lon="-14.03255">
        <ele>204.8</ele>
        <time>2021-07-04 17:45:50</time>
      </trkpt>
      <trkpt lat="28.47337" lon="-14.03258">
        <ele>204.8</ele>
        <time>2021-07-04 17:45:51</time>
      </trkpt>
      <trkpt lat="28.47336" lon="-14.03261">
        <ele>205.2</ele>
        <time>2021-07-04 17:45:52</time>
      </trkpt>
      <trkpt lat="28.47335" lon="-14.03263">
        <ele>205.2</ele>
        <time>2021-07-04 17:45:53</time>
      </trkpt>
      <trkpt lat="28.47334" lon="-14.03264">
        <ele>205.2</ele>
        <time>2021-07-04 17:45:54</time>
      </trkpt>
      <trkpt lat="28.47334" lon="-14.03264">
        <ele>205.2</ele>
        <time>2021-07-04 17:45:55</time>
      </trkpt>
      <trkpt lat="28.47334" lon="-14.03264">
        <ele>205.2</ele>
        <time>2021-07-04 17:45:56</time>
      </trkpt>
      <trkpt lat="28.47334" lon="-14.03264">
        <ele>205.2</ele>
        <time>2021-07-04 17:45:57</time>
      </trkpt>
      <trkpt lat="28.47334" lon="-14.03265">
        <ele>204.4</ele>
        <time>2021-07-04 17:45:58</time>
      </trkpt>
      <trkpt lat="28.47334" lon="-14.03267">
        <ele>204.4</ele>
        <time>2021-07-04 17:45:59</time>
      </trkpt>
      <trkpt lat="28.47334" lon="-14.03269">
        <ele>204.4</ele>
        <time>2021-07-04 17:46:00</time>
      </trkpt>
      <trkpt lat="28.47335" lon="-14.0327">
        <ele>204.4</ele>
        <time>2021-07-04 17:46:01</time>
      </trkpt>
      <trkpt lat="28.47335" lon="-14.03271">
        <ele>204.4</ele>
        <time>2021-07-04 17:46:02</time>
      </trkpt>
      <trkpt lat="28.47335" lon="-14.03271">
        <ele>204.4</ele>
        <time>2021-07-04 17:46:03</time>
      </trkpt>
      <trkpt lat="28.47335" lon="-14.03271">
        <ele>204.4</ele>
        <time>2021-07-04 17:46:04</time>
      </trkpt>
      <trkpt lat="28.47335" lon="-14.03271">
        <ele>204.8</ele>
        <time>2021-07-04 17:46:05</time>
      </trkpt>
      <trkpt lat="28.47335" lon="-14.03271">
        <ele>204.8</ele>
        <time>2021-07-04 17:46:06</time>
      </trkpt>
      <trkpt lat="28.47335" lon="-14.03268">
        <ele>204</ele>
        <time>2021-07-04 17:46:07</time>
      </trkpt>
      <trkpt lat="28.47335" lon="-14.03267">
        <ele>204</ele>
        <time>2021-07-04 17:46:08</time>
      </trkpt>
      <trkpt lat="28.47335" lon="-14.03267">
        <ele>204</ele>
        <time>2021-07-04 17:46:09</time>
      </trkpt>
      <trkpt lat="28.47335" lon="-14.03266">
        <ele>204</ele>
        <time>2021-07-04 17:46:10</time>
      </trkpt>
      <trkpt lat="28.47335" lon="-14.03265">
        <ele>204</ele>
        <time>2021-07-04 17:46:11</time>
      </trkpt>
      <trkpt lat="28.47335" lon="-14.03265">
        <ele>204</ele>
        <time>2021-07-04 17:46:12</time>
      </trkpt>
      <trkpt lat="28.47335" lon="-14.03266">
        <ele>204.2</ele>
        <time>2021-07-04 17:46:13</time>
      </trkpt>
      <trkpt lat="28.47337" lon="-14.03266">
        <ele>204.2</ele>
        <time>2021-07-04 17:46:14</time>
      </trkpt>
      <trkpt lat="28.47337" lon="-14.03266">
        <ele>204.2</ele>
        <time>2021-07-04 17:46:15</time>
      </trkpt>
      <trkpt lat="28.47337" lon="-14.03265">
        <ele>204.2</ele>
        <time>2021-07-04 17:46:16</time>
      </trkpt>
      <trkpt lat="28.47337" lon="-14.03265">
        <ele>204.2</ele>
        <time>2021-07-04 17:46:17</time>
      </trkpt>
      <trkpt lat="28.47337" lon="-14.03264">
        <ele>204.2</ele>
        <time>2021-07-04 17:46:18</time>
      </trkpt>
      <trkpt lat="28.47337" lon="-14.03264">
        <ele>204</ele>
        <time>2021-07-04 17:46:19</time>
      </trkpt>
      <trkpt lat="28.47337" lon="-14.03263">
        <ele>204</ele>
        <time>2021-07-04 17:46:20</time>
      </trkpt>
      <trkpt lat="28.47337" lon="-14.03263">
        <ele>204</ele>
        <time>2021-07-04 17:46:21</time>
      </trkpt>
      <trkpt lat="28.47336" lon="-14.03262">
        <ele>203.8</ele>
        <time>2021-07-04 17:46:22</time>
      </trkpt>
      <trkpt lat="28.47336" lon="-14.03262">
        <ele>203.8</ele>
        <time>2021-07-04 17:46:23</time>
      </trkpt>
      <trkpt lat="28.47336" lon="-14.03261">
        <ele>203.8</ele>
        <time>2021-07-04 17:46:24</time>
      </trkpt>
      <trkpt lat="28.47336" lon="-14.03261">
        <ele>203.8</ele>
        <time>2021-07-04 17:46:25</time>
      </trkpt>
      <trkpt lat="28.47334" lon="-14.03261">
        <ele>203.8</ele>
        <time>2021-07-04 17:46:26</time>
      </trkpt>
      <trkpt lat="28.47333" lon="-14.03261">
        <ele>203.8</ele>
        <time>2021-07-04 17:46:27</time>
      </trkpt>
      <trkpt lat="28.47332" lon="-14.03262">
        <ele>203.8</ele>
        <time>2021-07-04 17:46:28</time>
      </trkpt>
      <trkpt lat="28.47331" lon="-14.03264">
        <ele>203.8</ele>
        <time>2021-07-04 17:46:29</time>
      </trkpt>
      <trkpt lat="28.4733" lon="-14.03265">
        <ele>203.8</ele>
        <time>2021-07-04 17:46:30</time>
      </trkpt>
      <trkpt lat="28.47328" lon="-14.03267">
        <ele>203.8</ele>
        <time>2021-07-04 17:46:31</time>
      </trkpt>
      <trkpt lat="28.47327" lon="-14.03269">
        <ele>203.8</ele>
        <time>2021-07-04 17:46:32</time>
      </trkpt>
      <trkpt lat="28.47326" lon="-14.0327">
        <ele>203.8</ele>
        <time>2021-07-04 17:46:33</time>
      </trkpt>
      <trkpt lat="28.47324" lon="-14.03272">
        <ele>203.8</ele>
        <time>2021-07-04 17:46:34</time>
      </trkpt>
      <trkpt lat="28.47322" lon="-14.03274">
        <ele>203.8</ele>
        <time>2021-07-04 17:46:35</time>
      </trkpt>
      <trkpt lat="28.4732" lon="-14.03276">
        <ele>204</ele>
        <time>2021-07-04 17:46:36</time>
      </trkpt>
      <trkpt lat="28.47318" lon="-14.03278">
        <ele>204</ele>
        <time>2021-07-04 17:46:37</time>
      </trkpt>
      <trkpt lat="28.47316" lon="-14.03279">
        <ele>204</ele>
        <time>2021-07-04 17:46:38</time>
      </trkpt>
      <trkpt lat="28.47313" lon="-14.03281">
        <ele>204.2</ele>
        <time>2021-07-04 17:46:39</time>
      </trkpt>
      <trkpt lat="28.47311" lon="-14.03283">
        <ele>204.2</ele>
        <time>2021-07-04 17:46:40</time>
      </trkpt>
      <trkpt lat="28.47309" lon="-14.03285">
        <ele>204.6</ele>
        <time>2021-07-04 17:46:41</time>
      </trkpt>
      <trkpt lat="28.47307" lon="-14.03287">
        <ele>204.6</ele>
        <time>2021-07-04 17:46:42</time>
      </trkpt>
      <trkpt lat="28.47304" lon="-14.03289">
        <ele>204.8</ele>
        <time>2021-07-04 17:46:43</time>
      </trkpt>
      <trkpt lat="28.47302" lon="-14.03291">
        <ele>204.8</ele>
        <time>2021-07-04 17:46:44</time>
      </trkpt>
      <trkpt lat="28.473" lon="-14.03294">
        <ele>204.8</ele>
        <time>2021-07-04 17:46:45</time>
      </trkpt>
      <trkpt lat="28.47298" lon="-14.03296">
        <ele>204.8</ele>
        <time>2021-07-04 17:46:46</time>
      </trkpt>
      <trkpt lat="28.47296" lon="-14.03298">
        <ele>204.8</ele>
        <time>2021-07-04 17:46:47</time>
      </trkpt>
      <trkpt lat="28.47293" lon="-14.033">
        <ele>204.8</ele>
        <time>2021-07-04 17:46:48</time>
      </trkpt>
      <trkpt lat="28.47291" lon="-14.03301">
        <ele>204.8</ele>
        <time>2021-07-04 17:46:49</time>
      </trkpt>
      <trkpt lat="28.47288" lon="-14.03303">
        <ele>204.8</ele>
        <time>2021-07-04 17:46:50</time>
      </trkpt>
      <trkpt lat="28.47285" lon="-14.03305">
        <ele>204.8</ele>
        <time>2021-07-04 17:46:51</time>
      </trkpt>
      <trkpt lat="28.47283" lon="-14.03307">
        <ele>205</ele>
        <time>2021-07-04 17:46:52</time>
      </trkpt>
      <trkpt lat="28.4728" lon="-14.03309">
        <ele>205.2</ele>
        <time>2021-07-04 17:46:53</time>
      </trkpt>
      <trkpt lat="28.47278" lon="-14.03311">
        <ele>205.6</ele>
        <time>2021-07-04 17:46:54</time>
      </trkpt>
      <trkpt lat="28.47276" lon="-14.03313">
        <ele>206</ele>
        <time>2021-07-04 17:46:55</time>
      </trkpt>
      <trkpt lat="28.47273" lon="-14.03315">
        <ele>206.2</ele>
        <time>2021-07-04 17:46:56</time>
      </trkpt>
      <trkpt lat="28.47271" lon="-14.03317">
        <ele>206.4</ele>
        <time>2021-07-04 17:46:57</time>
      </trkpt>
      <trkpt lat="28.47268" lon="-14.03319">
        <ele>206.8</ele>
        <time>2021-07-04 17:46:58</time>
      </trkpt>
      <trkpt lat="28.47266" lon="-14.0332">
        <ele>207</ele>
        <time>2021-07-04 17:46:59</time>
      </trkpt>
      <trkpt lat="28.47263" lon="-14.03322">
        <ele>207.4</ele>
        <time>2021-07-04 17:47:00</time>
      </trkpt>
      <trkpt lat="28.47261" lon="-14.03324">
        <ele>207.8</ele>
        <time>2021-07-04 17:47:01</time>
      </trkpt>
      <trkpt lat="28.47259" lon="-14.03326">
        <ele>208</ele>
        <time>2021-07-04 17:47:02</time>
      </trkpt>
      <trkpt lat="28.47257" lon="-14.03327">
        <ele>208.4</ele>
        <time>2021-07-04 17:47:03</time>
      </trkpt>
      <trkpt lat="28.47255" lon="-14.03329">
        <ele>208.6</ele>
        <time>2021-07-04 17:47:04</time>
      </trkpt>
      <trkpt lat="28.47253" lon="-14.03331">
        <ele>208.8</ele>
        <time>2021-07-04 17:47:05</time>
      </trkpt>
      <trkpt lat="28.47251" lon="-14.03333">
        <ele>209</ele>
        <time>2021-07-04 17:47:06</time>
      </trkpt>
      <trkpt lat="28.47249" lon="-14.03334">
        <ele>209.2</ele>
        <time>2021-07-04 17:47:07</time>
      </trkpt>
      <trkpt lat="28.47247" lon="-14.03336">
        <ele>209.4</ele>
        <time>2021-07-04 17:47:08</time>
      </trkpt>
      <trkpt lat="28.47245" lon="-14.03338">
        <ele>209.8</ele>
        <time>2021-07-04 17:47:09</time>
      </trkpt>
      <trkpt lat="28.47243" lon="-14.03339">
        <ele>209.8</ele>
        <time>2021-07-04 17:47:10</time>
      </trkpt>
      <trkpt lat="28.47241" lon="-14.03341">
        <ele>210</ele>
        <time>2021-07-04 17:47:11</time>
      </trkpt>
      <trkpt lat="28.47239" lon="-14.03342">
        <ele>210</ele>
        <time>2021-07-04 17:47:12</time>
      </trkpt>
      <trkpt lat="28.47236" lon="-14.03344">
        <ele>210.4</ele>
        <time>2021-07-04 17:47:13</time>
      </trkpt>
      <trkpt lat="28.47235" lon="-14.03346">
        <ele>210.4</ele>
        <time>2021-07-04 17:47:14</time>
      </trkpt>
      <trkpt lat="28.47233" lon="-14.03348">
        <ele>210.6</ele>
        <time>2021-07-04 17:47:15</time>
      </trkpt>
      <trkpt lat="28.47231" lon="-14.0335">
        <ele>210.6</ele>
        <time>2021-07-04 17:47:16</time>
      </trkpt>
      <trkpt lat="28.47229" lon="-14.03351">
        <ele>210.8</ele>
        <time>2021-07-04 17:47:17</time>
      </trkpt>
      <trkpt lat="28.47226" lon="-14.03353">
        <ele>210.8</ele>
        <time>2021-07-04 17:47:18</time>
      </trkpt>
      <trkpt lat="28.47224" lon="-14.03354">
        <ele>211.2</ele>
        <time>2021-07-04 17:47:19</time>
      </trkpt>
      <trkpt lat="28.47222" lon="-14.03355">
        <ele>211.2</ele>
        <time>2021-07-04 17:47:20</time>
      </trkpt>
      <trkpt lat="28.4722" lon="-14.03357">
        <ele>211.6</ele>
        <time>2021-07-04 17:47:21</time>
      </trkpt>
      <trkpt lat="28.47218" lon="-14.03358">
        <ele>211.6</ele>
        <time>2021-07-04 17:47:22</time>
      </trkpt>
      <trkpt lat="28.47216" lon="-14.0336">
        <ele>212</ele>
        <time>2021-07-04 17:47:23</time>
      </trkpt>
      <trkpt lat="28.47214" lon="-14.03361">
        <ele>212</ele>
        <time>2021-07-04 17:47:24</time>
      </trkpt>
      <trkpt lat="28.47212" lon="-14.03363">
        <ele>212.2</ele>
        <time>2021-07-04 17:47:25</time>
      </trkpt>
      <trkpt lat="28.4721" lon="-14.03364">
        <ele>212.2</ele>
        <time>2021-07-04 17:47:26</time>
      </trkpt>
      <trkpt lat="28.47208" lon="-14.03366">
        <ele>212.6</ele>
        <time>2021-07-04 17:47:27</time>
      </trkpt>
      <trkpt lat="28.47206" lon="-14.03368">
        <ele>212.6</ele>
        <time>2021-07-04 17:47:28</time>
      </trkpt>
      <trkpt lat="28.47204" lon="-14.03369">
        <ele>213</ele>
        <time>2021-07-04 17:47:29</time>
      </trkpt>
      <trkpt lat="28.47201" lon="-14.03371">
        <ele>213.2</ele>
        <time>2021-07-04 17:47:30</time>
      </trkpt>
      <trkpt lat="28.47199" lon="-14.03373">
        <ele>213.2</ele>
        <time>2021-07-04 17:47:31</time>
      </trkpt>
      <trkpt lat="28.47197" lon="-14.03374">
        <ele>213.4</ele>
        <time>2021-07-04 17:47:32</time>
      </trkpt>
      <trkpt lat="28.47195" lon="-14.03376">
        <ele>213.4</ele>
        <time>2021-07-04 17:47:33</time>
      </trkpt>
      <trkpt lat="28.47193" lon="-14.03378">
        <ele>213.8</ele>
        <time>2021-07-04 17:47:34</time>
      </trkpt>
      <trkpt lat="28.47191" lon="-14.0338">
        <ele>214</ele>
        <time>2021-07-04 17:47:35</time>
      </trkpt>
      <trkpt lat="28.47189" lon="-14.03381">
        <ele>214.2</ele>
        <time>2021-07-04 17:47:36</time>
      </trkpt>
      <trkpt lat="28.47187" lon="-14.03383">
        <ele>214.6</ele>
        <time>2021-07-04 17:47:37</time>
      </trkpt>
      <trkpt lat="28.47185" lon="-14.03385">
        <ele>214.6</ele>
        <time>2021-07-04 17:47:38</time>
      </trkpt>
      <trkpt lat="28.47183" lon="-14.03387">
        <ele>215</ele>
        <time>2021-07-04 17:47:39</time>
      </trkpt>
      <trkpt lat="28.47181" lon="-14.03389">
        <ele>215.2</ele>
        <time>2021-07-04 17:47:40</time>
      </trkpt>
      <trkpt lat="28.47178" lon="-14.0339">
        <ele>215.4</ele>
        <time>2021-07-04 17:47:41</time>
      </trkpt>
      <trkpt lat="28.47176" lon="-14.03392">
        <ele>215.6</ele>
        <time>2021-07-04 17:47:42</time>
      </trkpt>
      <trkpt lat="28.47174" lon="-14.03394">
        <ele>215.8</ele>
        <time>2021-07-04 17:47:43</time>
      </trkpt>
      <trkpt lat="28.47172" lon="-14.03395">
        <ele>215.8</ele>
        <time>2021-07-04 17:47:44</time>
      </trkpt>
      <trkpt lat="28.4717" lon="-14.03397">
        <ele>216.2</ele>
        <time>2021-07-04 17:47:45</time>
      </trkpt>
      <trkpt lat="28.47168" lon="-14.03399">
        <ele>216.2</ele>
        <time>2021-07-04 17:47:46</time>
      </trkpt>
      <trkpt lat="28.47166" lon="-14.03401">
        <ele>216.6</ele>
        <time>2021-07-04 17:47:47</time>
      </trkpt>
      <trkpt lat="28.47164" lon="-14.03402">
        <ele>216.6</ele>
        <time>2021-07-04 17:47:48</time>
      </trkpt>
      <trkpt lat="28.47161" lon="-14.03404">
        <ele>217</ele>
        <time>2021-07-04 17:47:49</time>
      </trkpt>
      <trkpt lat="28.47159" lon="-14.03406">
        <ele>217</ele>
        <time>2021-07-04 17:47:50</time>
      </trkpt>
      <trkpt lat="28.47157" lon="-14.03408">
        <ele>217.2</ele>
        <time>2021-07-04 17:47:51</time>
      </trkpt>
      <trkpt lat="28.47155" lon="-14.03409">
        <ele>217.6</ele>
        <time>2021-07-04 17:47:52</time>
      </trkpt>
      <trkpt lat="28.47153" lon="-14.03411">
        <ele>217.8</ele>
        <time>2021-07-04 17:47:53</time>
      </trkpt>
      <trkpt lat="28.47151" lon="-14.03413">
        <ele>218</ele>
        <time>2021-07-04 17:47:54</time>
      </trkpt>
      <trkpt lat="28.47149" lon="-14.03415">
        <ele>218.2</ele>
        <time>2021-07-04 17:48:12</time>
      </trkpt>
      <trkpt lat="28.47147" lon="-14.03417">
        <ele>218.6</ele>
        <time>2021-07-04 17:48:13</time>
      </trkpt>
      <trkpt lat="28.47145" lon="-14.03418">
        <ele>218.8</ele>
        <time>2021-07-04 17:48:14</time>
      </trkpt>
      <trkpt lat="28.47143" lon="-14.0342">
        <ele>219</ele>
        <time>2021-07-04 17:48:15</time>
      </trkpt>
      <trkpt lat="28.4714" lon="-14.03422">
        <ele>219.2</ele>
        <time>2021-07-04 17:48:16</time>
      </trkpt>
      <trkpt lat="28.47138" lon="-14.03424">
        <ele>219.4</ele>
        <time>2021-07-04 17:48:17</time>
      </trkpt>
      <trkpt lat="28.47136" lon="-14.03425">
        <ele>219.6</ele>
        <time>2021-07-04 17:48:18</time>
      </trkpt>
      <trkpt lat="28.47134" lon="-14.03427">
        <ele>219.8</ele>
        <time>2021-07-04 17:48:19</time>
      </trkpt>
      <trkpt lat="28.47132" lon="-14.03429">
        <ele>219.8</ele>
        <time>2021-07-04 17:48:20</time>
      </trkpt>
      <trkpt lat="28.47129" lon="-14.03431">
        <ele>220.2</ele>
        <time>2021-07-04 18:21:10</time>
      </trkpt>
      <trkpt lat="28.47127" lon="-14.03433">
        <ele>220.2</ele>
        <time>2021-07-04 18:21:11</time>
      </trkpt>
      <trkpt lat="28.47125" lon="-14.03435">
        <ele>220.6</ele>
        <time>2021-07-04 18:21:12</time>
      </trkpt>
      <trkpt lat="28.47123" lon="-14.03436">
        <ele>220.8</ele>
        <time>2021-07-04 18:21:13</time>
      </trkpt>
      <trkpt lat="28.47121" lon="-14.03438">
        <ele>220.8</ele>
        <time>2021-07-04 18:21:14</time>
      </trkpt>
      <trkpt lat="28.47118" lon="-14.0344">
        <ele>221.2</ele>
        <time>2021-07-04 18:21:15</time>
      </trkpt>
      <trkpt lat="28.47116" lon="-14.03442">
        <ele>221.4</ele>
        <time>2021-07-04 18:21:16</time>
      </trkpt>
      <trkpt lat="28.47114" lon="-14.03444">
        <ele>221.6</ele>
        <time>2021-07-04 18:21:25</time>
      </trkpt>
      <trkpt lat="28.47111" lon="-14.03445">
        <ele>221.8</ele>
        <time>2021-07-04 18:21:26</time>
      </trkpt>
      <trkpt lat="28.47109" lon="-14.03447">
        <ele>221.8</ele>
        <time>2021-07-04 18:21:27</time>
      </trkpt>
      <trkpt lat="28.47107" lon="-14.03449">
        <ele>222.2</ele>
        <time>2021-07-04 18:21:28</time>
      </trkpt>
      <trkpt lat="28.47105" lon="-14.03451">
        <ele>222.2</ele>
        <time>2021-07-04 18:21:29</time>
      </trkpt>
      <trkpt lat="28.47102" lon="-14.03453">
        <ele>222.6</ele>
        <time>2021-07-04 18:21:30</time>
      </trkpt>
      <trkpt lat="28.471" lon="-14.03455">
        <ele>222.8</ele>
        <time>2021-07-04 18:21:31</time>
      </trkpt>
      <trkpt lat="28.47098" lon="-14.03457">
        <ele>223</ele>
        <time>2021-07-04 18:21:32</time>
      </trkpt>
      <trkpt lat="28.47096" lon="-14.03459">
        <ele>223</ele>
        <time>2021-07-04 18:21:46</time>
      </trkpt>
      <trkpt lat="28.47094" lon="-14.03461">
        <ele>223.2</ele>
        <time>2021-07-04 18:21:47</time>
      </trkpt>
      <trkpt lat="28.47091" lon="-14.03463">
        <ele>223.4</ele>
        <time>2021-07-04 18:21:48</time>
      </trkpt>
      <trkpt lat="28.47089" lon="-14.03465">
        <ele>223.4</ele>
        <time>2021-07-04 18:21:49</time>
      </trkpt>
      <trkpt lat="28.47087" lon="-14.03467">
        <ele>223.4</ele>
        <time>2021-07-04 18:21:52</time>
      </trkpt>
      <trkpt lat="28.47085" lon="-14.03469">
        <ele>223.4</ele>
        <time>2021-07-04 18:21:53</time>
      </trkpt>
      <trkpt lat="28.47083" lon="-14.03471">
        <ele>223.8</ele>
        <time>2021-07-04 18:21:54</time>
      </trkpt>
      <trkpt lat="28.47081" lon="-14.03473">
        <ele>223.8</ele>
        <time>2021-07-04 18:21:55</time>
      </trkpt>
      <trkpt lat="28.47079" lon="-14.03476">
        <ele>223.8</ele>
        <time>2021-07-04 18:21:56</time>
      </trkpt>
      <trkpt lat="28.47077" lon="-14.03478">
        <ele>223.6</ele>
        <time>2021-07-04 18:21:57</time>
      </trkpt>
      <trkpt lat="28.47075" lon="-14.0348">
        <ele>224</ele>
        <time>2021-07-04 18:21:58</time>
      </trkpt>
      <trkpt lat="28.47073" lon="-14.03482">
        <ele>224.4</ele>
        <time>2021-07-04 18:21:59</time>
      </trkpt>
      <trkpt lat="28.47071" lon="-14.03484">
        <ele>224.6</ele>
        <time>2021-07-04 18:22:00</time>
      </trkpt>
      <trkpt lat="28.47069" lon="-14.03487">
        <ele>225</ele>
        <time>2021-07-04 18:22:01</time>
      </trkpt>
      <trkpt lat="28.47066" lon="-14.03489">
        <ele>225.2</ele>
        <time>2021-07-04 18:22:02</time>
      </trkpt>
      <trkpt lat="28.47064" lon="-14.03492">
        <ele>225.2</ele>
        <time>2021-07-04 18:22:03</time>
      </trkpt>
      <trkpt lat="28.47062" lon="-14.03494">
        <ele>225.4</ele>
        <time>2021-07-04 18:22:04</time>
      </trkpt>
      <trkpt lat="28.4706" lon="-14.03497">
        <ele>225.4</ele>
        <time>2021-07-04 18:22:05</time>
      </trkpt>
      <trkpt lat="28.47058" lon="-14.03499">
        <ele>225.8</ele>
        <time>2021-07-04 18:22:06</time>
      </trkpt>
      <trkpt lat="28.47056" lon="-14.03502">
        <ele>226</ele>
        <time>2021-07-04 18:22:07</time>
      </trkpt>
      <trkpt lat="28.47054" lon="-14.03504">
        <ele>226.4</ele>
        <time>2021-07-04 18:22:08</time>
      </trkpt>
      <trkpt lat="28.47052" lon="-14.03507">
        <ele>226.6</ele>
        <time>2021-07-04 18:22:09</time>
      </trkpt>
      <trkpt lat="28.4705" lon="-14.03509">
        <ele>226.6</ele>
        <time>2021-07-04 18:22:10</time>
      </trkpt>
      <trkpt lat="28.47049" lon="-14.03512">
        <ele>226.6</ele>
        <time>2021-07-04 18:22:11</time>
      </trkpt>
      <trkpt lat="28.47047" lon="-14.03515">
        <ele>226.6</ele>
        <time>2021-07-04 18:22:12</time>
      </trkpt>
      <trkpt lat="28.47045" lon="-14.03518">
        <ele>226.6</ele>
        <time>2021-07-04 18:22:13</time>
      </trkpt>
      <trkpt lat="28.47044" lon="-14.03521">
        <ele>226.6</ele>
        <time>2021-07-04 18:22:14</time>
      </trkpt>
      <trkpt lat="28.47042" lon="-14.03524">
        <ele>226.8</ele>
        <time>2021-07-04 18:22:15</time>
      </trkpt>
      <trkpt lat="28.4704" lon="-14.03526">
        <ele>226.8</ele>
        <time>2021-07-04 18:22:16</time>
      </trkpt>
      <trkpt lat="28.47038" lon="-14.03529">
        <ele>226.8</ele>
        <time>2021-07-04 18:22:17</time>
      </trkpt>
      <trkpt lat="28.47037" lon="-14.03532">
        <ele>226.8</ele>
        <time>2021-07-04 18:22:18</time>
      </trkpt>
      <trkpt lat="28.47035" lon="-14.03535">
        <ele>226.8</ele>
        <time>2021-07-04 18:22:19</time>
      </trkpt>
      <trkpt lat="28.47033" lon="-14.03538">
        <ele>226.8</ele>
        <time>2021-07-04 18:22:20</time>
      </trkpt>
      <trkpt lat="28.47032" lon="-14.03541">
        <ele>226.8</ele>
        <time>2021-07-04 18:22:21</time>
      </trkpt>
      <trkpt lat="28.4703" lon="-14.03544">
        <ele>227</ele>
        <time>2021-07-04 18:22:22</time>
      </trkpt>
      <trkpt lat="28.47028" lon="-14.03548">
        <ele>227</ele>
        <time>2021-07-04 18:22:23</time>
      </trkpt>
      <trkpt lat="28.47027" lon="-14.03551">
        <ele>227.2</ele>
        <time>2021-07-04 18:22:24</time>
      </trkpt>
      <trkpt lat="28.47026" lon="-14.03554">
        <ele>227.2</ele>
        <time>2021-07-04 18:22:25</time>
      </trkpt>
      <trkpt lat="28.47024" lon="-14.03557">
        <ele>227.4</ele>
        <time>2021-07-04 18:22:26</time>
      </trkpt>
      <trkpt lat="28.47023" lon="-14.03561">
        <ele>227.4</ele>
        <time>2021-07-04 18:22:27</time>
      </trkpt>
      <trkpt lat="28.47022" lon="-14.03565">
        <ele>227.4</ele>
        <time>2021-07-04 18:22:28</time>
      </trkpt>
      <trkpt lat="28.47021" lon="-14.03568">
        <ele>227.4</ele>
        <time>2021-07-04 18:22:29</time>
      </trkpt>
      <trkpt lat="28.4702" lon="-14.03572">
        <ele>227.8</ele>
        <time>2021-07-04 18:22:30</time>
      </trkpt>
      <trkpt lat="28.47019" lon="-14.03575">
        <ele>227.8</ele>
        <time>2021-07-04 18:22:31</time>
      </trkpt>
      <trkpt lat="28.47017" lon="-14.03579">
        <ele>227.8</ele>
        <time>2021-07-04 18:22:32</time>
      </trkpt>
      <trkpt lat="28.47017" lon="-14.03582">
        <ele>227.8</ele>
        <time>2021-07-04 18:22:33</time>
      </trkpt>
      <trkpt lat="28.47016" lon="-14.03586">
        <ele>228</ele>
        <time>2021-07-04 18:22:34</time>
      </trkpt>
      <trkpt lat="28.47015" lon="-14.03589">
        <ele>228</ele>
        <time>2021-07-04 18:22:35</time>
      </trkpt>
      <trkpt lat="28.47015" lon="-14.03593">
        <ele>228.2</ele>
        <time>2021-07-04 18:22:36</time>
      </trkpt>
      <trkpt lat="28.47015" lon="-14.03597">
        <ele>228.2</ele>
        <time>2021-07-04 18:22:37</time>
      </trkpt>
      <trkpt lat="28.47014" lon="-14.036">
        <ele>228.4</ele>
        <time>2021-07-04 18:22:38</time>
      </trkpt>
      <trkpt lat="28.47014" lon="-14.03604">
        <ele>228.4</ele>
        <time>2021-07-04 18:22:39</time>
      </trkpt>
      <trkpt lat="28.47014" lon="-14.03607">
        <ele>228.8</ele>
        <time>2021-07-04 18:22:40</time>
      </trkpt>
      <trkpt lat="28.47014" lon="-14.03611">
        <ele>228.8</ele>
        <time>2021-07-04 18:22:41</time>
      </trkpt>
      <trkpt lat="28.47013" lon="-14.03614">
        <ele>229</ele>
        <time>2021-07-04 18:22:42</time>
      </trkpt>
      <trkpt lat="28.47013" lon="-14.03618">
        <ele>229</ele>
        <time>2021-07-04 18:22:43</time>
      </trkpt>
      <trkpt lat="28.47013" lon="-14.03621">
        <ele>229.2</ele>
        <time>2021-07-04 18:22:44</time>
      </trkpt>
      <trkpt lat="28.47013" lon="-14.03625">
        <ele>229.2</ele>
        <time>2021-07-04 18:22:45</time>
      </trkpt>
      <trkpt lat="28.47013" lon="-14.03629">
        <ele>229.2</ele>
        <time>2021-07-04 18:22:46</time>
      </trkpt>
      <trkpt lat="28.47013" lon="-14.03632">
        <ele>229.6</ele>
        <time>2021-07-04 18:22:47</time>
      </trkpt>
      <trkpt lat="28.47014" lon="-14.03636">
        <ele>229.8</ele>
        <time>2021-07-04 18:22:48</time>
      </trkpt>
      <trkpt lat="28.47014" lon="-14.0364">
        <ele>230</ele>
        <time>2021-07-04 18:22:49</time>
      </trkpt>
      <trkpt lat="28.47014" lon="-14.03643">
        <ele>230.2</ele>
        <time>2021-07-04 18:22:50</time>
      </trkpt>
      <trkpt lat="28.47014" lon="-14.03647">
        <ele>230.6</ele>
        <time>2021-07-04 18:22:51</time>
      </trkpt>
      <trkpt lat="28.47015" lon="-14.0365">
        <ele>230.8</ele>
        <time>2021-07-04 18:22:52</time>
      </trkpt>
      <trkpt lat="28.47015" lon="-14.03654">
        <ele>231.2</ele>
        <time>2021-07-04 18:22:53</time>
      </trkpt>
      <trkpt lat="28.47016" lon="-14.03657">
        <ele>231.6</ele>
        <time>2021-07-04 18:22:54</time>
      </trkpt>
      <trkpt lat="28.47016" lon="-14.03661">
        <ele>231.8</ele>
        <time>2021-07-04 18:22:55</time>
      </trkpt>
      <trkpt lat="28.47016" lon="-14.03664">
        <ele>232.2</ele>
        <time>2021-07-04 18:22:56</time>
      </trkpt>
      <trkpt lat="28.47016" lon="-14.03668">
        <ele>232.4</ele>
        <time>2021-07-04 18:22:57</time>
      </trkpt>
      <trkpt lat="28.47017" lon="-14.03671">
        <ele>232.6</ele>
        <time>2021-07-04 18:22:58</time>
      </trkpt>
      <trkpt lat="28.47017" lon="-14.03675">
        <ele>232.8</ele>
        <time>2021-07-04 18:22:59</time>
      </trkpt>
      <trkpt lat="28.47017" lon="-14.03678">
        <ele>233</ele>
        <time>2021-07-04 18:23:00</time>
      </trkpt>
      <trkpt lat="28.47017" lon="-14.03682">
        <ele>233.2</ele>
        <time>2021-07-04 18:23:01</time>
      </trkpt>
      <trkpt lat="28.47017" lon="-14.03685">
        <ele>233.2</ele>
        <time>2021-07-04 18:23:02</time>
      </trkpt>
      <trkpt lat="28.47017" lon="-14.03689">
        <ele>233.6</ele>
        <time>2021-07-04 18:23:03</time>
      </trkpt>
      <trkpt lat="28.47017" lon="-14.03693">
        <ele>233.6</ele>
        <time>2021-07-04 18:23:04</time>
      </trkpt>
      <trkpt lat="28.47017" lon="-14.03696">
        <ele>233.8</ele>
        <time>2021-07-04 18:23:05</time>
      </trkpt>
      <trkpt lat="28.47017" lon="-14.037">
        <ele>233.8</ele>
        <time>2021-07-04 18:23:06</time>
      </trkpt>
      <trkpt lat="28.47017" lon="-14.03703">
        <ele>234.2</ele>
        <time>2021-07-04 18:23:07</time>
      </trkpt>
      <trkpt lat="28.47017" lon="-14.03707">
        <ele>234.2</ele>
        <time>2021-07-04 18:23:08</time>
      </trkpt>
      <trkpt lat="28.47017" lon="-14.03711">
        <ele>234.4</ele>
        <time>2021-07-04 18:23:09</time>
      </trkpt>
      <trkpt lat="28.47017" lon="-14.03714">
        <ele>234.4</ele>
        <time>2021-07-04 18:23:10</time>
      </trkpt>
      <trkpt lat="28.47017" lon="-14.03718">
        <ele>234.8</ele>
        <time>2021-07-04 18:23:11</time>
      </trkpt>
      <trkpt lat="28.47016" lon="-14.03721">
        <ele>234.8</ele>
        <time>2021-07-04 18:23:12</time>
      </trkpt>
      <trkpt lat="28.47016" lon="-14.03725">
        <ele>234.8</ele>
        <time>2021-07-04 18:23:13</time>
      </trkpt>
      <trkpt lat="28.47015" lon="-14.03728">
        <ele>234.8</ele>
        <time>2021-07-04 18:23:14</time>
      </trkpt>
      <trkpt lat="28.47014" lon="-14.03731">
        <ele>234.8</ele>
        <time>2021-07-04 18:23:15</time>
      </trkpt>
      <trkpt lat="28.47014" lon="-14.03735">
        <ele>234.8</ele>
        <time>2021-07-04 18:23:16</time>
      </trkpt>
      <trkpt lat="28.47013" lon="-14.03739">
        <ele>234.8</ele>
        <time>2021-07-04 18:23:17</time>
      </trkpt>
      <trkpt lat="28.47012" lon="-14.03742">
        <ele>234.8</ele>
        <time>2021-07-04 18:23:18</time>
      </trkpt>
      <trkpt lat="28.47011" lon="-14.03745">
        <ele>234.8</ele>
        <time>2021-07-04 18:23:19</time>
      </trkpt>
      <trkpt lat="28.4701" lon="-14.03749">
        <ele>234.8</ele>
        <time>2021-07-04 18:23:20</time>
      </trkpt>
      <trkpt lat="28.47009" lon="-14.03752">
        <ele>235</ele>
        <time>2021-07-04 18:23:21</time>
      </trkpt>
      <trkpt lat="28.47007" lon="-14.03755">
        <ele>235</ele>
        <time>2021-07-04 18:23:22</time>
      </trkpt>
      <trkpt lat="28.47006" lon="-14.03758">
        <ele>235</ele>
        <time>2021-07-04 18:23:23</time>
      </trkpt>
      <trkpt lat="28.47005" lon="-14.03761">
        <ele>235</ele>
        <time>2021-07-04 18:23:24</time>
      </trkpt>
      <trkpt lat="28.47004" lon="-14.03764">
        <ele>235.4</ele>
        <time>2021-07-04 18:23:25</time>
      </trkpt>
      <trkpt lat="28.47002" lon="-14.03768">
        <ele>235.4</ele>
        <time>2021-07-04 18:23:26</time>
      </trkpt>
      <trkpt lat="28.47001" lon="-14.03771">
        <ele>235.4</ele>
        <time>2021-07-04 18:23:27</time>
      </trkpt>
      <trkpt lat="28.46999" lon="-14.03774">
        <ele>235.4</ele>
        <time>2021-07-04 18:23:28</time>
      </trkpt>
      <trkpt lat="28.46997" lon="-14.03777">
        <ele>235.6</ele>
        <time>2021-07-04 18:23:29</time>
      </trkpt>
      <trkpt lat="28.46996" lon="-14.03779">
        <ele>235.6</ele>
        <time>2021-07-04 18:23:30</time>
      </trkpt>
      <trkpt lat="28.46994" lon="-14.03782">
        <ele>235.8</ele>
        <time>2021-07-04 18:23:31</time>
      </trkpt>
      <trkpt lat="28.46992" lon="-14.03785">
        <ele>235.8</ele>
        <time>2021-07-04 18:23:32</time>
      </trkpt>
      <trkpt lat="28.4699" lon="-14.03788">
        <ele>236</ele>
        <time>2021-07-04 18:23:33</time>
      </trkpt>
      <trkpt lat="28.46988" lon="-14.03791">
        <ele>236</ele>
        <time>2021-07-04 18:23:34</time>
      </trkpt>
      <trkpt lat="28.46986" lon="-14.03794">
        <ele>236.2</ele>
        <time>2021-07-04 18:23:35</time>
      </trkpt>
      <trkpt lat="28.46984" lon="-14.03796">
        <ele>236.2</ele>
        <time>2021-07-04 18:23:36</time>
      </trkpt>
      <trkpt lat="28.46982" lon="-14.03799">
        <ele>236.6</ele>
        <time>2021-07-04 18:23:37</time>
      </trkpt>
      <trkpt lat="28.46979" lon="-14.03801">
        <ele>236.8</ele>
        <time>2021-07-04 18:23:38</time>
      </trkpt>
      <trkpt lat="28.46977" lon="-14.03803">
        <ele>237</ele>
        <time>2021-07-04 18:23:39</time>
      </trkpt>
      <trkpt lat="28.46975" lon="-14.03805">
        <ele>237.2</ele>
        <time>2021-07-04 18:23:40</time>
      </trkpt>
      <trkpt lat="28.46972" lon="-14.03807">
        <ele>237.4</ele>
        <time>2021-07-04 18:23:41</time>
      </trkpt>
      <trkpt lat="28.4697" lon="-14.0381">
        <ele>237.8</ele>
        <time>2021-07-04 18:23:42</time>
      </trkpt>
      <trkpt lat="28.46967" lon="-14.03812">
        <ele>238</ele>
        <time>2021-07-04 18:23:43</time>
      </trkpt>
      <trkpt lat="28.46964" lon="-14.03814">
        <ele>238.2</ele>
        <time>2021-07-04 18:23:44</time>
      </trkpt>
      <trkpt lat="28.46962" lon="-14.03815">
        <ele>238.2</ele>
        <time>2021-07-04 18:23:45</time>
      </trkpt>
      <trkpt lat="28.46959" lon="-14.03817">
        <ele>238.6</ele>
        <time>2021-07-04 18:23:46</time>
      </trkpt>
      <trkpt lat="28.46956" lon="-14.03819">
        <ele>238.6</ele>
        <time>2021-07-04 18:23:47</time>
      </trkpt>
      <trkpt lat="28.46953" lon="-14.03821">
        <ele>238.6</ele>
        <time>2021-07-04 18:23:48</time>
      </trkpt>
      <trkpt lat="28.4695" lon="-14.03822">
        <ele>238.8</ele>
        <time>2021-07-04 18:23:49</time>
      </trkpt>
      <trkpt lat="28.46947" lon="-14.03823">
        <ele>238.8</ele>
        <time>2021-07-04 18:23:50</time>
      </trkpt>
      <trkpt lat="28.46944" lon="-14.03825">
        <ele>238.8</ele>
        <time>2021-07-04 18:23:51</time>
      </trkpt>
      <trkpt lat="28.46941" lon="-14.03826">
        <ele>238.8</ele>
        <time>2021-07-04 18:23:52</time>
      </trkpt>
      <trkpt lat="28.46938" lon="-14.03828">
        <ele>239</ele>
        <time>2021-07-04 18:23:53</time>
      </trkpt>
      <trkpt lat="28.46934" lon="-14.03829">
        <ele>239</ele>
        <time>2021-07-04 18:23:54</time>
      </trkpt>
      <trkpt lat="28.46931" lon="-14.0383">
        <ele>239</ele>
        <time>2021-07-04 18:23:55</time>
      </trkpt>
      <trkpt lat="28.46928" lon="-14.03831">
        <ele>239</ele>
        <time>2021-07-04 18:23:56</time>
      </trkpt>
      <trkpt lat="28.46924" lon="-14.03832">
        <ele>239</ele>
        <time>2021-07-04 18:23:57</time>
      </trkpt>
      <trkpt lat="28.46921" lon="-14.03833">
        <ele>239</ele>
        <time>2021-07-04 18:23:58</time>
      </trkpt>
      <trkpt lat="28.46918" lon="-14.03834">
        <ele>239.4</ele>
        <time>2021-07-04 18:23:59</time>
      </trkpt>
      <trkpt lat="28.46914" lon="-14.03834">
        <ele>239.4</ele>
        <time>2021-07-04 18:24:00</time>
      </trkpt>
      <trkpt lat="28.46911" lon="-14.03835">
        <ele>239.4</ele>
        <time>2021-07-04 18:24:01</time>
      </trkpt>
      <trkpt lat="28.46907" lon="-14.03836">
        <ele>239.6</ele>
        <time>2021-07-04 18:24:02</time>
      </trkpt>
      <trkpt lat="28.46904" lon="-14.03836">
        <ele>239.6</ele>
        <time>2021-07-04 18:24:03</time>
      </trkpt>
      <trkpt lat="28.469" lon="-14.03837">
        <ele>239.8</ele>
        <time>2021-07-04 18:24:04</time>
      </trkpt>
      <trkpt lat="28.46897" lon="-14.03837">
        <ele>239.8</ele>
        <time>2021-07-04 18:24:05</time>
      </trkpt>
      <trkpt lat="28.46894" lon="-14.03838">
        <ele>240</ele>
        <time>2021-07-04 18:24:06</time>
      </trkpt>
      <trkpt lat="28.4689" lon="-14.03838">
        <ele>240</ele>
        <time>2021-07-04 18:24:07</time>
      </trkpt>
      <trkpt lat="28.46887" lon="-14.03839">
        <ele>240.2</ele>
        <time>2021-07-04 18:24:08</time>
      </trkpt>
      <trkpt lat="28.46883" lon="-14.03839">
        <ele>240.2</ele>
        <time>2021-07-04 18:24:09</time>
      </trkpt>
      <trkpt lat="28.46879" lon="-14.0384">
        <ele>240.6</ele>
        <time>2021-07-04 18:24:10</time>
      </trkpt>
      <trkpt lat="28.46876" lon="-14.0384">
        <ele>240.6</ele>
        <time>2021-07-04 18:24:11</time>
      </trkpt>
      <trkpt lat="28.46872" lon="-14.03841">
        <ele>240.6</ele>
        <time>2021-07-04 18:24:12</time>
      </trkpt>
      <trkpt lat="28.46869" lon="-14.03841">
        <ele>240.8</ele>
        <time>2021-07-04 18:24:13</time>
      </trkpt>
      <trkpt lat="28.46865" lon="-14.03842">
        <ele>240.8</ele>
        <time>2021-07-04 18:24:14</time>
      </trkpt>
      <trkpt lat="28.46862" lon="-14.03842">
        <ele>241</ele>
        <time>2021-07-04 18:24:15</time>
      </trkpt>
      <trkpt lat="28.46858" lon="-14.03843">
        <ele>241.2</ele>
        <time>2021-07-04 18:24:16</time>
      </trkpt>
      <trkpt lat="28.46854" lon="-14.03844">
        <ele>241.6</ele>
        <time>2021-07-04 18:24:17</time>
      </trkpt>
      <trkpt lat="28.46851" lon="-14.03844">
        <ele>241.8</ele>
        <time>2021-07-04 18:24:18</time>
      </trkpt>
      <trkpt lat="28.46847" lon="-14.03845">
        <ele>241.8</ele>
        <time>2021-07-04 18:24:19</time>
      </trkpt>
      <trkpt lat="28.46844" lon="-14.03846">
        <ele>242</ele>
        <time>2021-07-04 18:24:20</time>
      </trkpt>
      <trkpt lat="28.4684" lon="-14.03847">
        <ele>242</ele>
        <time>2021-07-04 18:24:21</time>
      </trkpt>
      <trkpt lat="28.46837" lon="-14.03848">
        <ele>242.4</ele>
        <time>2021-07-04 18:24:22</time>
      </trkpt>
      <trkpt lat="28.46833" lon="-14.0385">
        <ele>242.6</ele>
        <time>2021-07-04 18:24:23</time>
      </trkpt>
      <trkpt lat="28.4683" lon="-14.03851">
        <ele>242.6</ele>
        <time>2021-07-04 18:24:24</time>
      </trkpt>
      <trkpt lat="28.46826" lon="-14.03853">
        <ele>242.6</ele>
        <time>2021-07-04 18:24:25</time>
      </trkpt>
      <trkpt lat="28.46823" lon="-14.03854">
        <ele>242.8</ele>
        <time>2021-07-04 18:24:26</time>
      </trkpt>
      <trkpt lat="28.46819" lon="-14.03856">
        <ele>242.8</ele>
        <time>2021-07-04 18:24:27</time>
      </trkpt>
      <trkpt lat="28.46816" lon="-14.03858">
        <ele>242.8</ele>
        <time>2021-07-04 18:24:28</time>
      </trkpt>
      <trkpt lat="28.46813" lon="-14.0386">
        <ele>243.2</ele>
        <time>2021-07-04 18:24:29</time>
      </trkpt>
      <trkpt lat="28.4681" lon="-14.03862">
        <ele>243.2</ele>
        <time>2021-07-04 18:24:30</time>
      </trkpt>
      <trkpt lat="28.46807" lon="-14.03865">
        <ele>243.2</ele>
        <time>2021-07-04 18:24:31</time>
      </trkpt>
      <trkpt lat="28.46804" lon="-14.03867">
        <ele>243.4</ele>
        <time>2021-07-04 18:24:32</time>
      </trkpt>
      <trkpt lat="28.468" lon="-14.03869">
        <ele>243.4</ele>
        <time>2021-07-04 18:24:33</time>
      </trkpt>
      <trkpt lat="28.46798" lon="-14.03872">
        <ele>243.4</ele>
        <time>2021-07-04 18:24:34</time>
      </trkpt>
      <trkpt lat="28.46795" lon="-14.03874">
        <ele>243.6</ele>
        <time>2021-07-04 18:24:35</time>
      </trkpt>
      <trkpt lat="28.46792" lon="-14.03877">
        <ele>243.6</ele>
        <time>2021-07-04 18:24:36</time>
      </trkpt>
      <trkpt lat="28.46789" lon="-14.03879">
        <ele>243.6</ele>
        <time>2021-07-04 18:24:37</time>
      </trkpt>
      <trkpt lat="28.46786" lon="-14.03882">
        <ele>244</ele>
        <time>2021-07-04 18:24:38</time>
      </trkpt>
      <trkpt lat="28.46783" lon="-14.03885">
        <ele>244.2</ele>
        <time>2021-07-04 18:24:39</time>
      </trkpt>
      <trkpt lat="28.46781" lon="-14.03888">
        <ele>244.2</ele>
        <time>2021-07-04 18:24:40</time>
      </trkpt>
      <trkpt lat="28.46778" lon="-14.0389">
        <ele>244.6</ele>
        <time>2021-07-04 18:24:41</time>
      </trkpt>
      <trkpt lat="28.46775" lon="-14.03893">
        <ele>244.6</ele>
        <time>2021-07-04 18:24:42</time>
      </trkpt>
      <trkpt lat="28.46773" lon="-14.03896">
        <ele>245</ele>
        <time>2021-07-04 18:24:43</time>
      </trkpt>
      <trkpt lat="28.4677" lon="-14.03899">
        <ele>245.2</ele>
        <time>2021-07-04 18:24:44</time>
      </trkpt>
      <trkpt lat="28.46767" lon="-14.03902">
        <ele>245.4</ele>
        <time>2021-07-04 18:24:45</time>
      </trkpt>
      <trkpt lat="28.46765" lon="-14.03905">
        <ele>245.6</ele>
        <time>2021-07-04 18:24:46</time>
      </trkpt>
      <trkpt lat="28.46762" lon="-14.03908">
        <ele>245.6</ele>
        <time>2021-07-04 18:24:47</time>
      </trkpt>
      <trkpt lat="28.46759" lon="-14.03911">
        <ele>246</ele>
        <time>2021-07-04 18:24:48</time>
      </trkpt>
      <trkpt lat="28.46757" lon="-14.03914">
        <ele>246</ele>
        <time>2021-07-04 18:24:49</time>
      </trkpt>
      <trkpt lat="28.46754" lon="-14.03917">
        <ele>246.4</ele>
        <time>2021-07-04 18:24:50</time>
      </trkpt>
      <trkpt lat="28.46751" lon="-14.03919">
        <ele>246.6</ele>
        <time>2021-07-04 18:24:51</time>
      </trkpt>
      <trkpt lat="28.46749" lon="-14.03922">
        <ele>246.8</ele>
        <time>2021-07-04 18:24:52</time>
      </trkpt>
      <trkpt lat="28.46746" lon="-14.03925">
        <ele>247</ele>
        <time>2021-07-04 18:24:53</time>
      </trkpt>
      <trkpt lat="28.46743" lon="-14.03928">
        <ele>247.2</ele>
        <time>2021-07-04 18:24:54</time>
      </trkpt>
      <trkpt lat="28.4674" lon="-14.03931">
        <ele>247.2</ele>
        <time>2021-07-04 18:24:55</time>
      </trkpt>
      <trkpt lat="28.46738" lon="-14.03933">
        <ele>247.6</ele>
        <time>2021-07-04 18:24:56</time>
      </trkpt>
      <trkpt lat="28.46735" lon="-14.03936">
        <ele>247.6</ele>
        <time>2021-07-04 18:24:57</time>
      </trkpt>
      <trkpt lat="28.46732" lon="-14.03939">
        <ele>248</ele>
        <time>2021-07-04 18:24:58</time>
      </trkpt>
      <trkpt lat="28.4673" lon="-14.03941">
        <ele>248</ele>
        <time>2021-07-04 18:24:59</time>
      </trkpt>
      <trkpt lat="28.46727" lon="-14.03944">
        <ele>248.2</ele>
        <time>2021-07-04 18:25:00</time>
      </trkpt>
      <trkpt lat="28.46724" lon="-14.03947">
        <ele>248.2</ele>
        <time>2021-07-04 18:25:01</time>
      </trkpt>
      <trkpt lat="28.46721" lon="-14.03949">
        <ele>248.6</ele>
        <time>2021-07-04 18:25:02</time>
      </trkpt>
      <trkpt lat="28.46718" lon="-14.03951">
        <ele>248.6</ele>
        <time>2021-07-04 18:25:03</time>
      </trkpt>
      <trkpt lat="28.46715" lon="-14.03953">
        <ele>248.6</ele>
        <time>2021-07-04 18:25:04</time>
      </trkpt>
      <trkpt lat="28.46712" lon="-14.03956">
        <ele>248.6</ele>
        <time>2021-07-04 18:25:05</time>
      </trkpt>
      <trkpt lat="28.46709" lon="-14.03958">
        <ele>248.6</ele>
        <time>2021-07-04 18:25:06</time>
      </trkpt>
      <trkpt lat="28.46706" lon="-14.0396">
        <ele>248.6</ele>
        <time>2021-07-04 18:25:07</time>
      </trkpt>
      <trkpt lat="28.46703" lon="-14.03962">
        <ele>248.6</ele>
        <time>2021-07-04 18:25:08</time>
      </trkpt>
      <trkpt lat="28.467" lon="-14.03964">
        <ele>248.6</ele>
        <time>2021-07-04 18:25:09</time>
      </trkpt>
      <trkpt lat="28.46697" lon="-14.03966">
        <ele>248.8</ele>
        <time>2021-07-04 18:25:10</time>
      </trkpt>
      <trkpt lat="28.46693" lon="-14.03967">
        <ele>248.8</ele>
        <time>2021-07-04 18:25:11</time>
      </trkpt>
      <trkpt lat="28.4669" lon="-14.03969">
        <ele>248.8</ele>
        <time>2021-07-04 18:25:12</time>
      </trkpt>
      <trkpt lat="28.46686" lon="-14.0397">
        <ele>249</ele>
        <time>2021-07-04 18:25:13</time>
      </trkpt>
      <trkpt lat="28.46683" lon="-14.03972">
        <ele>249</ele>
        <time>2021-07-04 18:25:14</time>
      </trkpt>
      <trkpt lat="28.46679" lon="-14.03973">
        <ele>249.2</ele>
        <time>2021-07-04 18:25:15</time>
      </trkpt>
      <trkpt lat="28.46675" lon="-14.03974">
        <ele>249.2</ele>
        <time>2021-07-04 18:25:16</time>
      </trkpt>
      <trkpt lat="28.46671" lon="-14.03974">
        <ele>249.4</ele>
        <time>2021-07-04 18:25:17</time>
      </trkpt>
      <trkpt lat="28.46667" lon="-14.03975">
        <ele>249.4</ele>
        <time>2021-07-04 18:25:18</time>
      </trkpt>
      <trkpt lat="28.46663" lon="-14.03975">
        <ele>249.6</ele>
        <time>2021-07-04 18:25:19</time>
      </trkpt>
      <trkpt lat="28.4666" lon="-14.03976">
        <ele>249.6</ele>
        <time>2021-07-04 18:25:20</time>
      </trkpt>
      <trkpt lat="28.46656" lon="-14.03976">
        <ele>249.6</ele>
        <time>2021-07-04 18:25:21</time>
      </trkpt>
      <trkpt lat="28.46652" lon="-14.03976">
        <ele>250</ele>
        <time>2021-07-04 18:25:22</time>
      </trkpt>
      <trkpt lat="28.46648" lon="-14.03977">
        <ele>250</ele>
        <time>2021-07-04 18:25:23</time>
      </trkpt>
      <trkpt lat="28.46645" lon="-14.03977">
        <ele>250</ele>
        <time>2021-07-04 18:25:24</time>
      </trkpt>
      <trkpt lat="28.46641" lon="-14.03976">
        <ele>250.2</ele>
        <time>2021-07-04 18:25:25</time>
      </trkpt>
      <trkpt lat="28.46637" lon="-14.03977">
        <ele>250.2</ele>
        <time>2021-07-04 18:25:26</time>
      </trkpt>
      <trkpt lat="28.46634" lon="-14.03976">
        <ele>250.2</ele>
        <time>2021-07-04 18:25:27</time>
      </trkpt>
      <trkpt lat="28.4663" lon="-14.03976">
        <ele>250.4</ele>
        <time>2021-07-04 18:25:28</time>
      </trkpt>
      <trkpt lat="28.46626" lon="-14.03975">
        <ele>250.4</ele>
        <time>2021-07-04 18:25:29</time>
      </trkpt>
      <trkpt lat="28.46622" lon="-14.03974">
        <ele>250.4</ele>
        <time>2021-07-04 18:25:30</time>
      </trkpt>
      <trkpt lat="28.46619" lon="-14.03974">
        <ele>250.6</ele>
        <time>2021-07-04 18:25:31</time>
      </trkpt>
      <trkpt lat="28.46615" lon="-14.03974">
        <ele>250.6</ele>
        <time>2021-07-04 18:25:32</time>
      </trkpt>
      <trkpt lat="28.46611" lon="-14.03973">
        <ele>250.6</ele>
        <time>2021-07-04 18:25:33</time>
      </trkpt>
      <trkpt lat="28.46608" lon="-14.03972">
        <ele>251</ele>
        <time>2021-07-04 18:25:34</time>
      </trkpt>
      <trkpt lat="28.46604" lon="-14.03971">
        <ele>251</ele>
        <time>2021-07-04 18:25:35</time>
      </trkpt>
      <trkpt lat="28.46601" lon="-14.0397">
        <ele>251.2</ele>
        <time>2021-07-04 18:25:36</time>
      </trkpt>
      <trkpt lat="28.46597" lon="-14.03969">
        <ele>251.2</ele>
        <time>2021-07-04 18:25:37</time>
      </trkpt>
      <trkpt lat="28.46594" lon="-14.03967">
        <ele>251.6</ele>
        <time>2021-07-04 18:25:38</time>
      </trkpt>
      <trkpt lat="28.4659" lon="-14.03966">
        <ele>251.6</ele>
        <time>2021-07-04 18:25:39</time>
      </trkpt>
      <trkpt lat="28.46586" lon="-14.03964">
        <ele>251.8</ele>
        <time>2021-07-04 18:25:40</time>
      </trkpt>
      <trkpt lat="28.46583" lon="-14.03962">
        <ele>251.8</ele>
        <time>2021-07-04 18:25:41</time>
      </trkpt>
      <trkpt lat="28.46579" lon="-14.0396">
        <ele>252.2</ele>
        <time>2021-07-04 18:25:42</time>
      </trkpt>
      <trkpt lat="28.46576" lon="-14.03958">
        <ele>252.4</ele>
        <time>2021-07-04 18:25:43</time>
      </trkpt>
      <trkpt lat="28.46573" lon="-14.03956">
        <ele>252.8</ele>
        <time>2021-07-04 18:25:44</time>
      </trkpt>
      <trkpt lat="28.4657" lon="-14.03954">
        <ele>253</ele>
        <time>2021-07-04 18:25:45</time>
      </trkpt>
      <trkpt lat="28.46566" lon="-14.03952">
        <ele>253.2</ele>
        <time>2021-07-04 18:25:46</time>
      </trkpt>
      <trkpt lat="28.46563" lon="-14.03949">
        <ele>253.6</ele>
        <time>2021-07-04 18:25:47</time>
      </trkpt>
      <trkpt lat="28.4656" lon="-14.03947">
        <ele>253.8</ele>
        <time>2021-07-04 18:25:48</time>
      </trkpt>
      <trkpt lat="28.46558" lon="-14.03944">
        <ele>254.2</ele>
        <time>2021-07-04 18:25:49</time>
      </trkpt>
      <trkpt lat="28.46555" lon="-14.03942">
        <ele>254.4</ele>
        <time>2021-07-04 18:25:50</time>
      </trkpt>
      <trkpt lat="28.46552" lon="-14.0394">
        <ele>254.8</ele>
        <time>2021-07-04 18:25:51</time>
      </trkpt>
      <trkpt lat="28.46549" lon="-14.03937">
        <ele>255.2</ele>
        <time>2021-07-04 18:25:52</time>
      </trkpt>
      <trkpt lat="28.46547" lon="-14.03934">
        <ele>255.4</ele>
        <time>2021-07-04 18:25:53</time>
      </trkpt>
      <trkpt lat="28.46544" lon="-14.03932">
        <ele>255.8</ele>
        <time>2021-07-04 18:25:54</time>
      </trkpt>
      <trkpt lat="28.46542" lon="-14.03929">
        <ele>256.2</ele>
        <time>2021-07-04 18:25:55</time>
      </trkpt>
      <trkpt lat="28.46539" lon="-14.03926">
        <ele>256.6</ele>
        <time>2021-07-04 18:25:56</time>
      </trkpt>
      <trkpt lat="28.46537" lon="-14.03923">
        <ele>257</ele>
        <time>2021-07-04 18:25:57</time>
      </trkpt>
      <trkpt lat="28.46535" lon="-14.03921">
        <ele>257.6</ele>
        <time>2021-07-04 18:25:58</time>
      </trkpt>
      <trkpt lat="28.46533" lon="-14.03917">
        <ele>258</ele>
        <time>2021-07-04 18:25:59</time>
      </trkpt>
      <trkpt lat="28.46531" lon="-14.03914">
        <ele>258.4</ele>
        <time>2021-07-04 18:26:00</time>
      </trkpt>
      <trkpt lat="28.46529" lon="-14.03911">
        <ele>258.6</ele>
        <time>2021-07-04 18:26:01</time>
      </trkpt>
      <trkpt lat="28.46527" lon="-14.03907">
        <ele>258.8</ele>
        <time>2021-07-04 18:26:02</time>
      </trkpt>
      <trkpt lat="28.46525" lon="-14.03904">
        <ele>258.8</ele>
        <time>2021-07-04 18:26:03</time>
      </trkpt>
      <trkpt lat="28.46523" lon="-14.03901">
        <ele>259.2</ele>
        <time>2021-07-04 18:26:04</time>
      </trkpt>
      <trkpt lat="28.46521" lon="-14.03897">
        <ele>259.2</ele>
        <time>2021-07-04 18:26:05</time>
      </trkpt>
      <trkpt lat="28.4652" lon="-14.03894">
        <ele>259.2</ele>
        <time>2021-07-04 18:26:06</time>
      </trkpt>
      <trkpt lat="28.46518" lon="-14.03891">
        <ele>259.4</ele>
        <time>2021-07-04 18:26:07</time>
      </trkpt>
      <trkpt lat="28.46517" lon="-14.03887">
        <ele>259.4</ele>
        <time>2021-07-04 18:26:08</time>
      </trkpt>
      <trkpt lat="28.46515" lon="-14.03884">
        <ele>259.4</ele>
        <time>2021-07-04 18:26:09</time>
      </trkpt>
      <trkpt lat="28.46513" lon="-14.03881">
        <ele>259.4</ele>
        <time>2021-07-04 18:26:10</time>
      </trkpt>
      <trkpt lat="28.46512" lon="-14.03878">
        <ele>259.6</ele>
        <time>2021-07-04 18:26:11</time>
      </trkpt>
      <trkpt lat="28.4651" lon="-14.03875">
        <ele>259.6</ele>
        <time>2021-07-04 18:26:12</time>
      </trkpt>
      <trkpt lat="28.46508" lon="-14.03871">
        <ele>259.6</ele>
        <time>2021-07-04 18:26:13</time>
      </trkpt>
      <trkpt lat="28.46507" lon="-14.03868">
        <ele>259.8</ele>
        <time>2021-07-04 18:26:14</time>
      </trkpt>
      <trkpt lat="28.46506" lon="-14.03865">
        <ele>259.8</ele>
        <time>2021-07-04 18:26:15</time>
      </trkpt>
      <trkpt lat="28.46504" lon="-14.03861">
        <ele>260.2</ele>
        <time>2021-07-04 18:26:16</time>
      </trkpt>
      <trkpt lat="28.46502" lon="-14.03858">
        <ele>260.2</ele>
        <time>2021-07-04 18:26:17</time>
      </trkpt>
      <trkpt lat="28.46501" lon="-14.03855">
        <ele>260.2</ele>
        <time>2021-07-04 18:26:18</time>
      </trkpt>
      <trkpt lat="28.46499" lon="-14.03851">
        <ele>260.4</ele>
        <time>2021-07-04 18:26:19</time>
      </trkpt>
      <trkpt lat="28.46497" lon="-14.03848">
        <ele>260.4</ele>
        <time>2021-07-04 18:26:20</time>
      </trkpt>
      <trkpt lat="28.46495" lon="-14.03845">
        <ele>260.4</ele>
        <time>2021-07-04 18:26:21</time>
      </trkpt>
      <trkpt lat="28.46494" lon="-14.03842">
        <ele>260.8</ele>
        <time>2021-07-04 18:26:22</time>
      </trkpt>
      <trkpt lat="28.46492" lon="-14.03839">
        <ele>260.8</ele>
        <time>2021-07-04 18:26:23</time>
      </trkpt>
      <trkpt lat="28.4649" lon="-14.03836">
        <ele>261</ele>
        <time>2021-07-04 18:26:24</time>
      </trkpt>
      <trkpt lat="28.46488" lon="-14.03833">
        <ele>261</ele>
        <time>2021-07-04 18:26:25</time>
      </trkpt>
      <trkpt lat="28.46486" lon="-14.03831">
        <ele>261.2</ele>
        <time>2021-07-04 18:26:26</time>
      </trkpt>
      <trkpt lat="28.46484" lon="-14.03828">
        <ele>261.2</ele>
        <time>2021-07-04 18:26:27</time>
      </trkpt>
      <trkpt lat="28.46482" lon="-14.03826">
        <ele>261.6</ele>
        <time>2021-07-04 18:26:28</time>
      </trkpt>
      <trkpt lat="28.4648" lon="-14.03824">
        <ele>261.6</ele>
        <time>2021-07-04 18:26:29</time>
      </trkpt>
      <trkpt lat="28.46477" lon="-14.03822">
        <ele>262</ele>
        <time>2021-07-04 18:26:30</time>
      </trkpt>
      <trkpt lat="28.46475" lon="-14.0382">
        <ele>262.4</ele>
        <time>2021-07-04 18:26:31</time>
      </trkpt>
      <trkpt lat="28.46472" lon="-14.03819">
        <ele>262.4</ele>
        <time>2021-07-04 18:26:32</time>
      </trkpt>
      <trkpt lat="28.4647" lon="-14.03817">
        <ele>262.6</ele>
        <time>2021-07-04 18:26:33</time>
      </trkpt>
      <trkpt lat="28.46467" lon="-14.03815">
        <ele>262.6</ele>
        <time>2021-07-04 18:26:34</time>
      </trkpt>
      <trkpt lat="28.46464" lon="-14.03814">
        <ele>263</ele>
        <time>2021-07-04 18:26:35</time>
      </trkpt>
      <trkpt lat="28.46462" lon="-14.03812">
        <ele>263.2</ele>
        <time>2021-07-04 18:26:36</time>
      </trkpt>
      <trkpt lat="28.46459" lon="-14.03811">
        <ele>263.4</ele>
        <time>2021-07-04 18:26:37</time>
      </trkpt>
      <trkpt lat="28.46456" lon="-14.0381">
        <ele>263.6</ele>
        <time>2021-07-04 18:26:38</time>
      </trkpt>
      <trkpt lat="28.46453" lon="-14.03809">
        <ele>263.8</ele>
        <time>2021-07-04 18:26:39</time>
      </trkpt>
      <trkpt lat="28.46449" lon="-14.03809">
        <ele>264</ele>
        <time>2021-07-04 18:26:40</time>
      </trkpt>
      <trkpt lat="28.46446" lon="-14.03808">
        <ele>264.4</ele>
        <time>2021-07-04 18:26:41</time>
      </trkpt>
      <trkpt lat="28.46443" lon="-14.03808">
        <ele>264.6</ele>
        <time>2021-07-04 18:26:42</time>
      </trkpt>
      <trkpt lat="28.4644" lon="-14.03808">
        <ele>264.8</ele>
        <time>2021-07-04 18:26:43</time>
      </trkpt>
      <trkpt lat="28.46437" lon="-14.03808">
        <ele>264.8</ele>
        <time>2021-07-04 18:26:44</time>
      </trkpt>
      <trkpt lat="28.46433" lon="-14.03808">
        <ele>265.2</ele>
        <time>2021-07-04 18:26:45</time>
      </trkpt>
      <trkpt lat="28.4643" lon="-14.03808">
        <ele>265.2</ele>
        <time>2021-07-04 18:26:46</time>
      </trkpt>
      <trkpt lat="28.46427" lon="-14.03809">
        <ele>265.4</ele>
        <time>2021-07-04 18:26:47</time>
      </trkpt>
      <trkpt lat="28.46423" lon="-14.0381">
        <ele>265.4</ele>
        <time>2021-07-04 18:26:48</time>
      </trkpt>
      <trkpt lat="28.4642" lon="-14.03811">
        <ele>265.6</ele>
        <time>2021-07-04 18:26:49</time>
      </trkpt>
      <trkpt lat="28.46417" lon="-14.03812">
        <ele>265.6</ele>
        <time>2021-07-04 18:26:50</time>
      </trkpt>
      <trkpt lat="28.46414" lon="-14.03814">
        <ele>266</ele>
        <time>2021-07-04 18:26:51</time>
      </trkpt>
      <trkpt lat="28.4641" lon="-14.03815">
        <ele>266</ele>
        <time>2021-07-04 18:26:52</time>
      </trkpt>
      <trkpt lat="28.46407" lon="-14.03817">
        <ele>266</ele>
        <time>2021-07-04 18:26:53</time>
      </trkpt>
      <trkpt lat="28.46404" lon="-14.03819">
        <ele>266.2</ele>
        <time>2021-07-04 18:26:54</time>
      </trkpt>
      <trkpt lat="28.46401" lon="-14.03821">
        <ele>266.2</ele>
        <time>2021-07-04 18:26:55</time>
      </trkpt>
      <trkpt lat="28.46398" lon="-14.03823">
        <ele>266.2</ele>
        <time>2021-07-04 18:26:56</time>
      </trkpt>
      <trkpt lat="28.46395" lon="-14.03825">
        <ele>266.4</ele>
        <time>2021-07-04 18:26:57</time>
      </trkpt>
      <trkpt lat="28.46393" lon="-14.03827">
        <ele>266.4</ele>
        <time>2021-07-04 18:26:58</time>
      </trkpt>
      <trkpt lat="28.4639" lon="-14.0383">
        <ele>266.8</ele>
        <time>2021-07-04 18:26:59</time>
      </trkpt>
      <trkpt lat="28.46387" lon="-14.03832">
        <ele>266.8</ele>
        <time>2021-07-04 18:27:00</time>
      </trkpt>
      <trkpt lat="28.46384" lon="-14.03835">
        <ele>267</ele>
        <time>2021-07-04 18:27:01</time>
      </trkpt>
      <trkpt lat="28.46382" lon="-14.03837">
        <ele>267</ele>
        <time>2021-07-04 18:27:02</time>
      </trkpt>
      <trkpt lat="28.46376" lon="-14.03841">
        <ele>267.2</ele>
        <time>2021-07-04 18:27:03</time>
      </trkpt>
      <trkpt lat="28.46373" lon="-14.03843">
        <ele>267.2</ele>
        <time>2021-07-04 18:27:04</time>
      </trkpt>
      <trkpt lat="28.46371" lon="-14.03846">
        <ele>267.6</ele>
        <time>2021-07-04 18:27:05</time>
      </trkpt>
      <trkpt lat="28.46368" lon="-14.03848">
        <ele>267.6</ele>
        <time>2021-07-04 18:27:06</time>
      </trkpt>
      <trkpt lat="28.46365" lon="-14.03851">
        <ele>267.8</ele>
        <time>2021-07-04 18:27:07</time>
      </trkpt>
      <trkpt lat="28.46362" lon="-14.03853">
        <ele>267.8</ele>
        <time>2021-07-04 18:27:08</time>
      </trkpt>
      <trkpt lat="28.46359" lon="-14.03855">
        <ele>267.8</ele>
        <time>2021-07-04 18:27:09</time>
      </trkpt>
      <trkpt lat="28.46356" lon="-14.03858">
        <ele>267.8</ele>
        <time>2021-07-04 18:27:10</time>
      </trkpt>
      <trkpt lat="28.46353" lon="-14.0386">
        <ele>267.8</ele>
        <time>2021-07-04 18:27:11</time>
      </trkpt>
      <trkpt lat="28.4635" lon="-14.03863">
        <ele>267.8</ele>
        <time>2021-07-04 18:27:12</time>
      </trkpt>
      <trkpt lat="28.46347" lon="-14.03865">
        <ele>267.8</ele>
        <time>2021-07-04 18:27:13</time>
      </trkpt>
      <trkpt lat="28.46344" lon="-14.03868">
        <ele>267.8</ele>
        <time>2021-07-04 18:27:14</time>
      </trkpt>
      <trkpt lat="28.46342" lon="-14.03871">
        <ele>267.8</ele>
        <time>2021-07-04 18:27:15</time>
      </trkpt>
      <trkpt lat="28.46338" lon="-14.03873">
        <ele>268</ele>
        <time>2021-07-04 18:27:16</time>
      </trkpt>
      <trkpt lat="28.46335" lon="-14.03875">
        <ele>268</ele>
        <time>2021-07-04 18:27:17</time>
      </trkpt>
      <trkpt lat="28.46332" lon="-14.03878">
        <ele>268</ele>
        <time>2021-07-04 18:27:18</time>
      </trkpt>
      <trkpt lat="28.46329" lon="-14.0388">
        <ele>268</ele>
        <time>2021-07-04 18:27:19</time>
      </trkpt>
      <trkpt lat="28.46326" lon="-14.03883">
        <ele>268.2</ele>
        <time>2021-07-04 18:27:20</time>
      </trkpt>
      <trkpt lat="28.46323" lon="-14.03886">
        <ele>268.2</ele>
        <time>2021-07-04 18:27:21</time>
      </trkpt>
      <trkpt lat="28.4632" lon="-14.03888">
        <ele>268.2</ele>
        <time>2021-07-04 18:27:22</time>
      </trkpt>
      <trkpt lat="28.46317" lon="-14.03891">
        <ele>268.6</ele>
        <time>2021-07-04 18:27:23</time>
      </trkpt>
      <trkpt lat="28.46314" lon="-14.03894">
        <ele>268.6</ele>
        <time>2021-07-04 18:27:24</time>
      </trkpt>
      <trkpt lat="28.46311" lon="-14.03896">
        <ele>268.8</ele>
        <time>2021-07-04 18:27:25</time>
      </trkpt>
      <trkpt lat="28.46308" lon="-14.03899">
        <ele>268.8</ele>
        <time>2021-07-04 18:27:26</time>
      </trkpt>
      <trkpt lat="28.46304" lon="-14.03901">
        <ele>268.8</ele>
        <time>2021-07-04 18:27:27</time>
      </trkpt>
      <trkpt lat="28.46301" lon="-14.03904">
        <ele>268.8</ele>
        <time>2021-07-04 18:27:28</time>
      </trkpt>
      <trkpt lat="28.46298" lon="-14.03906">
        <ele>268.8</ele>
        <time>2021-07-04 18:27:29</time>
      </trkpt>
      <trkpt lat="28.46295" lon="-14.03909">
        <ele>269</ele>
        <time>2021-07-04 18:27:30</time>
      </trkpt>
      <trkpt lat="28.46292" lon="-14.03912">
        <ele>269</ele>
        <time>2021-07-04 18:27:31</time>
      </trkpt>
      <trkpt lat="28.46289" lon="-14.03914">
        <ele>269</ele>
        <time>2021-07-04 18:27:32</time>
      </trkpt>
      <trkpt lat="28.46285" lon="-14.03917">
        <ele>269.2</ele>
        <time>2021-07-04 18:27:33</time>
      </trkpt>
      <trkpt lat="28.46282" lon="-14.03919">
        <ele>269.2</ele>
        <time>2021-07-04 18:27:34</time>
      </trkpt>
      <trkpt lat="28.46279" lon="-14.03922">
        <ele>269.4</ele>
        <time>2021-07-04 18:27:35</time>
      </trkpt>
      <trkpt lat="28.46276" lon="-14.03925">
        <ele>269.6</ele>
        <time>2021-07-04 18:27:36</time>
      </trkpt>
      <trkpt lat="28.46273" lon="-14.03927">
        <ele>269.8</ele>
        <time>2021-07-04 18:27:37</time>
      </trkpt>
      <trkpt lat="28.4627" lon="-14.0393">
        <ele>270.2</ele>
        <time>2021-07-04 18:27:38</time>
      </trkpt>
      <trkpt lat="28.46267" lon="-14.03932">
        <ele>270.4</ele>
        <time>2021-07-04 18:27:39</time>
      </trkpt>
      <trkpt lat="28.46264" lon="-14.03935">
        <ele>270.4</ele>
        <time>2021-07-04 18:27:40</time>
      </trkpt>
      <trkpt lat="28.46261" lon="-14.03937">
        <ele>270.8</ele>
        <time>2021-07-04 18:27:41</time>
      </trkpt>
      <trkpt lat="28.46258" lon="-14.0394">
        <ele>271</ele>
        <time>2021-07-04 18:27:42</time>
      </trkpt>
      <trkpt lat="28.46255" lon="-14.03942">
        <ele>271.2</ele>
        <time>2021-07-04 18:27:43</time>
      </trkpt>
      <trkpt lat="28.46252" lon="-14.03945">
        <ele>271.2</ele>
        <time>2021-07-04 18:27:44</time>
      </trkpt>
      <trkpt lat="28.46249" lon="-14.03947">
        <ele>271.6</ele>
        <time>2021-07-04 18:27:45</time>
      </trkpt>
      <trkpt lat="28.46246" lon="-14.03949">
        <ele>271.6</ele>
        <time>2021-07-04 18:27:46</time>
      </trkpt>
      <trkpt lat="28.46243" lon="-14.03951">
        <ele>272</ele>
        <time>2021-07-04 18:27:47</time>
      </trkpt>
      <trkpt lat="28.46241" lon="-14.03953">
        <ele>272</ele>
        <time>2021-07-04 18:27:48</time>
      </trkpt>
      <trkpt lat="28.46238" lon="-14.03955">
        <ele>272</ele>
        <time>2021-07-04 18:27:49</time>
      </trkpt>
      <trkpt lat="28.46235" lon="-14.03957">
        <ele>272</ele>
        <time>2021-07-04 18:27:50</time>
      </trkpt>
      <trkpt lat="28.46232" lon="-14.03959">
        <ele>272</ele>
        <time>2021-07-04 18:27:51</time>
      </trkpt>
      <trkpt lat="28.46228" lon="-14.0396">
        <ele>272</ele>
        <time>2021-07-04 18:27:52</time>
      </trkpt>
      <trkpt lat="28.46225" lon="-14.03962">
        <ele>272</ele>
        <time>2021-07-04 18:27:53</time>
      </trkpt>
      <trkpt lat="28.46221" lon="-14.03963">
        <ele>272.2</ele>
        <time>2021-07-04 18:27:54</time>
      </trkpt>
      <trkpt lat="28.46217" lon="-14.03963">
        <ele>272.2</ele>
        <time>2021-07-04 18:27:55</time>
      </trkpt>
      <trkpt lat="28.46213" lon="-14.03964">
        <ele>272.2</ele>
        <time>2021-07-04 18:27:56</time>
      </trkpt>
      <trkpt lat="28.46209" lon="-14.03964">
        <ele>272.4</ele>
        <time>2021-07-04 18:27:57</time>
      </trkpt>
      <trkpt lat="28.46205" lon="-14.03964">
        <ele>272.4</ele>
        <time>2021-07-04 18:27:58</time>
      </trkpt>
      <trkpt lat="28.46201" lon="-14.03965">
        <ele>272.4</ele>
        <time>2021-07-04 18:27:59</time>
      </trkpt>
      <trkpt lat="28.46197" lon="-14.03965">
        <ele>272.4</ele>
        <time>2021-07-04 18:28:00</time>
      </trkpt>
      <trkpt lat="28.46193" lon="-14.03965">
        <ele>272.8</ele>
        <time>2021-07-04 18:28:01</time>
      </trkpt>
      <trkpt lat="28.46188" lon="-14.03965">
        <ele>272.8</ele>
        <time>2021-07-04 18:28:02</time>
      </trkpt>
      <trkpt lat="28.46184" lon="-14.03965">
        <ele>272.8</ele>
        <time>2021-07-04 18:28:03</time>
      </trkpt>
      <trkpt lat="28.4618" lon="-14.03965">
        <ele>272.8</ele>
        <time>2021-07-04 18:28:04</time>
      </trkpt>
      <trkpt lat="28.46176" lon="-14.03965">
        <ele>272.8</ele>
        <time>2021-07-04 18:28:05</time>
      </trkpt>
      <trkpt lat="28.46172" lon="-14.03965">
        <ele>273</ele>
        <time>2021-07-04 18:28:06</time>
      </trkpt>
      <trkpt lat="28.46168" lon="-14.03965">
        <ele>273</ele>
        <time>2021-07-04 18:28:07</time>
      </trkpt>
      <trkpt lat="28.46164" lon="-14.03965">
        <ele>273</ele>
        <time>2021-07-04 18:28:08</time>
      </trkpt>
      <trkpt lat="28.4616" lon="-14.03965">
        <ele>273</ele>
        <time>2021-07-04 18:28:09</time>
      </trkpt>
      <trkpt lat="28.46157" lon="-14.03966">
        <ele>273</ele>
        <time>2021-07-04 18:28:10</time>
      </trkpt>
      <trkpt lat="28.46154" lon="-14.03966">
        <ele>273</ele>
        <time>2021-07-04 18:28:11</time>
      </trkpt>
      <trkpt lat="28.46152" lon="-14.03967">
        <ele>273</ele>
        <time>2021-07-04 18:28:12</time>
      </trkpt>
      <trkpt lat="28.46152" lon="-14.03967">
        <ele>273</ele>
        <time>2021-07-04 18:28:13</time>
      </trkpt>
      <trkpt lat="28.46152" lon="-14.03967">
        <ele>273</ele>
        <time>2021-07-04 18:28:14</time>
      </trkpt>
      <trkpt lat="28.46153" lon="-14.03966">
        <ele>273</ele>
        <time>2021-07-04 18:28:15</time>
      </trkpt>
      <trkpt lat="28.46151" lon="-14.03965">
        <ele>273</ele>
        <time>2021-07-04 18:28:16</time>
      </trkpt>
      <trkpt lat="28.46149" lon="-14.03965">
        <ele>273</ele>
        <time>2021-07-04 18:28:17</time>
      </trkpt>
      <trkpt lat="28.46146" lon="-14.03964">
        <ele>273</ele>
        <time>2021-07-04 18:28:18</time>
      </trkpt>
      <trkpt lat="28.46144" lon="-14.03965">
        <ele>273</ele>
        <time>2021-07-04 18:28:19</time>
      </trkpt>
      <trkpt lat="28.46141" lon="-14.03965">
        <ele>273</ele>
        <time>2021-07-04 18:28:20</time>
      </trkpt>
      <trkpt lat="28.46138" lon="-14.03965">
        <ele>273</ele>
        <time>2021-07-04 18:28:21</time>
      </trkpt>
      <trkpt lat="28.46135" lon="-14.03966">
        <ele>273</ele>
        <time>2021-07-04 18:28:22</time>
      </trkpt>
      <trkpt lat="28.46132" lon="-14.03966">
        <ele>273</ele>
        <time>2021-07-04 18:28:23</time>
      </trkpt>
      <trkpt lat="28.46129" lon="-14.03966">
        <ele>273</ele>
        <time>2021-07-04 18:28:24</time>
      </trkpt>
      <trkpt lat="28.46126" lon="-14.03966">
        <ele>273</ele>
        <time>2021-07-04 18:28:25</time>
      </trkpt>
      <trkpt lat="28.46123" lon="-14.03966">
        <ele>273</ele>
        <time>2021-07-04 18:28:26</time>
      </trkpt>
      <trkpt lat="28.46119" lon="-14.03966">
        <ele>273</ele>
        <time>2021-07-04 18:28:27</time>
      </trkpt>
      <trkpt lat="28.46116" lon="-14.03966">
        <ele>273</ele>
        <time>2021-07-04 18:28:28</time>
      </trkpt>
      <trkpt lat="28.46113" lon="-14.03966">
        <ele>273</ele>
        <time>2021-07-04 18:28:29</time>
      </trkpt>
      <trkpt lat="28.46109" lon="-14.03966">
        <ele>273</ele>
        <time>2021-07-04 18:28:30</time>
      </trkpt>
      <trkpt lat="28.46106" lon="-14.03966">
        <ele>273</ele>
        <time>2021-07-04 18:28:31</time>
      </trkpt>
      <trkpt lat="28.46103" lon="-14.03966">
        <ele>273</ele>
        <time>2021-07-04 18:28:32</time>
      </trkpt>
      <trkpt lat="28.46099" lon="-14.03965">
        <ele>273.2</ele>
        <time>2021-07-04 18:28:33</time>
      </trkpt>
      <trkpt lat="28.46096" lon="-14.03965">
        <ele>273.2</ele>
        <time>2021-07-04 18:28:34</time>
      </trkpt>
      <trkpt lat="28.46092" lon="-14.03965">
        <ele>273.2</ele>
        <time>2021-07-04 18:28:35</time>
      </trkpt>
      <trkpt lat="28.46089" lon="-14.03964">
        <ele>273.2</ele>
        <time>2021-07-04 18:28:36</time>
      </trkpt>
      <trkpt lat="28.46085" lon="-14.03964">
        <ele>273.4</ele>
        <time>2021-07-04 18:28:37</time>
      </trkpt>
      <trkpt lat="28.46082" lon="-14.03963">
        <ele>273.4</ele>
        <time>2021-07-04 18:28:38</time>
      </trkpt>
      <trkpt lat="28.46078" lon="-14.03962">
        <ele>273.4</ele>
        <time>2021-07-04 18:28:39</time>
      </trkpt>
      <trkpt lat="28.46075" lon="-14.03962">
        <ele>273.8</ele>
        <time>2021-07-04 18:28:40</time>
      </trkpt>
      <trkpt lat="28.46071" lon="-14.03961">
        <ele>273.8</ele>
        <time>2021-07-04 18:28:41</time>
      </trkpt>
      <trkpt lat="28.46068" lon="-14.03959">
        <ele>274</ele>
        <time>2021-07-04 18:28:42</time>
      </trkpt>
      <trkpt lat="28.46065" lon="-14.03958">
        <ele>274</ele>
        <time>2021-07-04 18:28:43</time>
      </trkpt>
      <trkpt lat="28.46061" lon="-14.03956">
        <ele>274.2</ele>
        <time>2021-07-04 18:28:44</time>
      </trkpt>
      <trkpt lat="28.46058" lon="-14.03955">
        <ele>274.2</ele>
        <time>2021-07-04 18:28:45</time>
      </trkpt>
      <trkpt lat="28.46055" lon="-14.03953">
        <ele>274.6</ele>
        <time>2021-07-04 18:28:46</time>
      </trkpt>
      <trkpt lat="28.46052" lon="-14.03951">
        <ele>274.6</ele>
        <time>2021-07-04 18:28:47</time>
      </trkpt>
      <trkpt lat="28.46049" lon="-14.03949">
        <ele>275</ele>
        <time>2021-07-04 18:28:48</time>
      </trkpt>
      <trkpt lat="28.46046" lon="-14.03947">
        <ele>275</ele>
        <time>2021-07-04 18:28:49</time>
      </trkpt>
      <trkpt lat="28.46043" lon="-14.03945">
        <ele>275.2</ele>
        <time>2021-07-04 18:28:50</time>
      </trkpt>
      <trkpt lat="28.4604" lon="-14.03943">
        <ele>275.2</ele>
        <time>2021-07-04 18:28:51</time>
      </trkpt>
      <trkpt lat="28.46037" lon="-14.0394">
        <ele>275.4</ele>
        <time>2021-07-04 18:28:52</time>
      </trkpt>
      <trkpt lat="28.46035" lon="-14.03938">
        <ele>275.4</ele>
        <time>2021-07-04 18:28:53</time>
      </trkpt>
      <trkpt lat="28.46032" lon="-14.03936">
        <ele>275.8</ele>
        <time>2021-07-04 18:28:54</time>
      </trkpt>
      <trkpt lat="28.46029" lon="-14.03934">
        <ele>276</ele>
        <time>2021-07-04 18:28:55</time>
      </trkpt>
      <trkpt lat="28.46026" lon="-14.03932">
        <ele>276</ele>
        <time>2021-07-04 18:28:56</time>
      </trkpt>
      <trkpt lat="28.46024" lon="-14.0393">
        <ele>276.4</ele>
        <time>2021-07-04 18:28:57</time>
      </trkpt>
      <trkpt lat="28.46021" lon="-14.03928">
        <ele>276.4</ele>
        <time>2021-07-04 18:28:58</time>
      </trkpt>
      <trkpt lat="28.46018" lon="-14.03926">
        <ele>276.6</ele>
        <time>2021-07-04 18:28:59</time>
      </trkpt>
      <trkpt lat="28.46015" lon="-14.03924">
        <ele>276.6</ele>
        <time>2021-07-04 18:29:00</time>
      </trkpt>
      <trkpt lat="28.46013" lon="-14.03922">
        <ele>277</ele>
        <time>2021-07-04 18:29:01</time>
      </trkpt>
      <trkpt lat="28.4601" lon="-14.0392">
        <ele>277</ele>
        <time>2021-07-04 18:29:02</time>
      </trkpt>
      <trkpt lat="28.46007" lon="-14.03918">
        <ele>277.4</ele>
        <time>2021-07-04 18:29:03</time>
      </trkpt>
      <trkpt lat="28.46005" lon="-14.03916">
        <ele>277.6</ele>
        <time>2021-07-04 18:29:04</time>
      </trkpt>
      <trkpt lat="28.46002" lon="-14.03915">
        <ele>277.8</ele>
        <time>2021-07-04 18:29:05</time>
      </trkpt>
      <trkpt lat="28.45999" lon="-14.03913">
        <ele>277.8</ele>
        <time>2021-07-04 18:29:06</time>
      </trkpt>
      <trkpt lat="28.45997" lon="-14.03911">
        <ele>278.2</ele>
        <time>2021-07-04 18:29:07</time>
      </trkpt>
      <trkpt lat="28.45994" lon="-14.03909">
        <ele>278.4</ele>
        <time>2021-07-04 18:29:08</time>
      </trkpt>
      <trkpt lat="28.45991" lon="-14.03907">
        <ele>278.4</ele>
        <time>2021-07-04 18:29:09</time>
      </trkpt>
      <trkpt lat="28.45989" lon="-14.03906">
        <ele>278.8</ele>
        <time>2021-07-04 18:29:10</time>
      </trkpt>
      <trkpt lat="28.45986" lon="-14.03904">
        <ele>278.8</ele>
        <time>2021-07-04 18:29:11</time>
      </trkpt>
      <trkpt lat="28.45983" lon="-14.03903">
        <ele>279.2</ele>
        <time>2021-07-04 18:29:12</time>
      </trkpt>
      <trkpt lat="28.4598" lon="-14.03901">
        <ele>279.4</ele>
        <time>2021-07-04 18:29:13</time>
      </trkpt>
      <trkpt lat="28.45978" lon="-14.03899">
        <ele>279.6</ele>
        <time>2021-07-04 18:29:14</time>
      </trkpt>
      <trkpt lat="28.45975" lon="-14.03897">
        <ele>279.6</ele>
        <time>2021-07-04 18:29:15</time>
      </trkpt>
      <trkpt lat="28.45972" lon="-14.03895">
        <ele>280</ele>
        <time>2021-07-04 18:29:16</time>
      </trkpt>
      <trkpt lat="28.45969" lon="-14.03893">
        <ele>280.2</ele>
        <time>2021-07-04 18:29:17</time>
      </trkpt>
      <trkpt lat="28.45967" lon="-14.03891">
        <ele>280.2</ele>
        <time>2021-07-04 18:29:18</time>
      </trkpt>
      <trkpt lat="28.45964" lon="-14.03889">
        <ele>280.6</ele>
        <time>2021-07-04 18:29:19</time>
      </trkpt>
      <trkpt lat="28.45961" lon="-14.03888">
        <ele>281</ele>
        <time>2021-07-04 18:29:20</time>
      </trkpt>
      <trkpt lat="28.45958" lon="-14.03886">
        <ele>281</ele>
        <time>2021-07-04 18:29:21</time>
      </trkpt>
      <trkpt lat="28.45956" lon="-14.03884">
        <ele>281.2</ele>
        <time>2021-07-04 18:29:22</time>
      </trkpt>
      <trkpt lat="28.45953" lon="-14.03882">
        <ele>281.6</ele>
        <time>2021-07-04 18:29:23</time>
      </trkpt>
      <trkpt lat="28.4595" lon="-14.03881">
        <ele>281.8</ele>
        <time>2021-07-04 18:29:24</time>
      </trkpt>
      <trkpt lat="28.45947" lon="-14.03879">
        <ele>281.8</ele>
        <time>2021-07-04 18:29:25</time>
      </trkpt>
      <trkpt lat="28.45945" lon="-14.03877">
        <ele>282.2</ele>
        <time>2021-07-04 18:29:26</time>
      </trkpt>
      <trkpt lat="28.45942" lon="-14.03875">
        <ele>282.2</ele>
        <time>2021-07-04 18:29:27</time>
      </trkpt>
      <trkpt lat="28.4594" lon="-14.03873">
        <ele>282.4</ele>
        <time>2021-07-04 18:29:28</time>
      </trkpt>
      <trkpt lat="28.45937" lon="-14.03871">
        <ele>282.4</ele>
        <time>2021-07-04 18:29:29</time>
      </trkpt>
      <trkpt lat="28.45935" lon="-14.03869">
        <ele>282.8</ele>
        <time>2021-07-04 18:29:30</time>
      </trkpt>
      <trkpt lat="28.45932" lon="-14.03867">
        <ele>283</ele>
        <time>2021-07-04 18:29:31</time>
      </trkpt>
      <trkpt lat="28.45929" lon="-14.03865">
        <ele>283</ele>
        <time>2021-07-04 18:29:32</time>
      </trkpt>
      <trkpt lat="28.45926" lon="-14.03864">
        <ele>283.4</ele>
        <time>2021-07-04 18:29:33</time>
      </trkpt>
      <trkpt lat="28.45923" lon="-14.03862">
        <ele>283.4</ele>
        <time>2021-07-04 18:29:34</time>
      </trkpt>
      <trkpt lat="28.4592" lon="-14.03861">
        <ele>283.6</ele>
        <time>2021-07-04 18:29:35</time>
      </trkpt>
      <trkpt lat="28.45918" lon="-14.03859">
        <ele>283.6</ele>
        <time>2021-07-04 18:29:36</time>
      </trkpt>
      <trkpt lat="28.45915" lon="-14.03858">
        <ele>284</ele>
        <time>2021-07-04 18:29:37</time>
      </trkpt>
      <trkpt lat="28.45912" lon="-14.03857">
        <ele>284</ele>
        <time>2021-07-04 18:29:38</time>
      </trkpt>
      <trkpt lat="28.45909" lon="-14.03856">
        <ele>284.4</ele>
        <time>2021-07-04 18:29:39</time>
      </trkpt>
      <trkpt lat="28.45906" lon="-14.03855">
        <ele>284.4</ele>
        <time>2021-07-04 18:29:40</time>
      </trkpt>
      <trkpt lat="28.45904" lon="-14.03854">
        <ele>284.6</ele>
        <time>2021-07-04 18:29:41</time>
      </trkpt>
      <trkpt lat="28.45901" lon="-14.03853">
        <ele>284.6</ele>
        <time>2021-07-04 18:29:42</time>
      </trkpt>
      <trkpt lat="28.45898" lon="-14.03851">
        <ele>285</ele>
        <time>2021-07-04 18:29:43</time>
      </trkpt>
      <trkpt lat="28.45894" lon="-14.0385">
        <ele>285</ele>
        <time>2021-07-04 18:29:44</time>
      </trkpt>
      <trkpt lat="28.45891" lon="-14.03849">
        <ele>285</ele>
        <time>2021-07-04 18:29:45</time>
      </trkpt>
      <trkpt lat="28.45888" lon="-14.03848">
        <ele>285.2</ele>
        <time>2021-07-04 18:29:46</time>
      </trkpt>
      <trkpt lat="28.45885" lon="-14.03847">
        <ele>285.2</ele>
        <time>2021-07-04 18:29:47</time>
      </trkpt>
      <trkpt lat="28.45882" lon="-14.03846">
        <ele>285.4</ele>
        <time>2021-07-04 18:29:48</time>
      </trkpt>
      <trkpt lat="28.45879" lon="-14.03846">
        <ele>285.4</ele>
        <time>2021-07-04 18:29:49</time>
      </trkpt>
      <trkpt lat="28.45876" lon="-14.03845">
        <ele>285.8</ele>
        <time>2021-07-04 18:29:50</time>
      </trkpt>
      <trkpt lat="28.45873" lon="-14.03844">
        <ele>286</ele>
        <time>2021-07-04 18:29:51</time>
      </trkpt>
      <trkpt lat="28.45869" lon="-14.03844">
        <ele>286</ele>
        <time>2021-07-04 18:29:52</time>
      </trkpt>
      <trkpt lat="28.45866" lon="-14.03843">
        <ele>286.4</ele>
        <time>2021-07-04 18:29:53</time>
      </trkpt>
      <trkpt lat="28.45863" lon="-14.03843">
        <ele>286.4</ele>
        <time>2021-07-04 18:29:54</time>
      </trkpt>
      <trkpt lat="28.4586" lon="-14.03843">
        <ele>286.8</ele>
        <time>2021-07-04 18:29:55</time>
      </trkpt>
      <trkpt lat="28.45857" lon="-14.03842">
        <ele>287</ele>
        <time>2021-07-04 18:29:56</time>
      </trkpt>
      <trkpt lat="28.45854" lon="-14.03842">
        <ele>287.4</ele>
        <time>2021-07-04 18:29:57</time>
      </trkpt>
      <trkpt lat="28.4585" lon="-14.03842">
        <ele>287.6</ele>
        <time>2021-07-04 18:29:58</time>
      </trkpt>
      <trkpt lat="28.45847" lon="-14.03842">
        <ele>287.8</ele>
        <time>2021-07-04 18:29:59</time>
      </trkpt>
      <trkpt lat="28.45844" lon="-14.03842">
        <ele>288</ele>
        <time>2021-07-04 18:30:00</time>
      </trkpt>
      <trkpt lat="28.45841" lon="-14.03842">
        <ele>288.4</ele>
        <time>2021-07-04 18:30:01</time>
      </trkpt>
      <trkpt lat="28.45837" lon="-14.03842">
        <ele>288.6</ele>
        <time>2021-07-04 18:30:02</time>
      </trkpt>
      <trkpt lat="28.45834" lon="-14.03842">
        <ele>288.6</ele>
        <time>2021-07-04 18:30:03</time>
      </trkpt>
      <trkpt lat="28.45831" lon="-14.03842">
        <ele>289</ele>
        <time>2021-07-04 18:30:04</time>
      </trkpt>
      <trkpt lat="28.45827" lon="-14.03842">
        <ele>289.2</ele>
        <time>2021-07-04 18:30:05</time>
      </trkpt>
      <trkpt lat="28.45824" lon="-14.03842">
        <ele>289.2</ele>
        <time>2021-07-04 18:30:06</time>
      </trkpt>
      <trkpt lat="28.45821" lon="-14.03842">
        <ele>289.6</ele>
        <time>2021-07-04 18:30:07</time>
      </trkpt>
      <trkpt lat="28.45817" lon="-14.03842">
        <ele>289.8</ele>
        <time>2021-07-04 18:30:08</time>
      </trkpt>
      <trkpt lat="28.45814" lon="-14.03842">
        <ele>290</ele>
        <time>2021-07-04 18:30:09</time>
      </trkpt>
      <trkpt lat="28.45811" lon="-14.03842">
        <ele>290.2</ele>
        <time>2021-07-04 18:30:10</time>
      </trkpt>
      <trkpt lat="28.45807" lon="-14.03841">
        <ele>290.6</ele>
        <time>2021-07-04 18:30:11</time>
      </trkpt>
      <trkpt lat="28.45804" lon="-14.03841">
        <ele>290.8</ele>
        <time>2021-07-04 18:30:12</time>
      </trkpt>
      <trkpt lat="28.45801" lon="-14.0384">
        <ele>290.8</ele>
        <time>2021-07-04 18:30:55</time>
      </trkpt>
      <trkpt lat="28.45797" lon="-14.0384">
        <ele>291.2</ele>
        <time>2021-07-04 18:30:56</time>
      </trkpt>
      <trkpt lat="28.45794" lon="-14.0384">
        <ele>291.2</ele>
        <time>2021-07-04 18:30:57</time>
      </trkpt>
      <trkpt lat="28.45791" lon="-14.03839">
        <ele>291.6</ele>
        <time>2021-07-04 18:30:58</time>
      </trkpt>
      <trkpt lat="28.45788" lon="-14.03839">
        <ele>291.8</ele>
        <time>2021-07-04 18:30:59</time>
      </trkpt>
      <trkpt lat="28.45785" lon="-14.03838">
        <ele>292</ele>
        <time>2021-07-04 18:31:00</time>
      </trkpt>
      <trkpt lat="28.45781" lon="-14.03838">
        <ele>292.2</ele>
        <time>2021-07-04 18:31:01</time>
      </trkpt>
      <trkpt lat="28.45778" lon="-14.03837">
        <ele>292.4</ele>
        <time>2021-07-04 18:31:02</time>
      </trkpt>
      <trkpt lat="28.45775" lon="-14.03837">
        <ele>292.4</ele>
        <time>2021-07-04 18:31:03</time>
      </trkpt>
      <trkpt lat="28.45772" lon="-14.03836">
        <ele>292.8</ele>
        <time>2021-07-04 18:31:04</time>
      </trkpt>
      <trkpt lat="28.45769" lon="-14.03835">
        <ele>293.2</ele>
        <time>2021-07-04 18:31:05</time>
      </trkpt>
      <trkpt lat="28.45766" lon="-14.03834">
        <ele>293.4</ele>
        <time>2021-07-04 18:31:06</time>
      </trkpt>
      <trkpt lat="28.45763" lon="-14.03833">
        <ele>293.4</ele>
        <time>2021-07-04 18:31:07</time>
      </trkpt>
      <trkpt lat="28.45759" lon="-14.03832">
        <ele>293.8</ele>
        <time>2021-07-04 18:31:08</time>
      </trkpt>
      <trkpt lat="28.45756" lon="-14.03831">
        <ele>294</ele>
        <time>2021-07-04 18:31:09</time>
      </trkpt>
      <trkpt lat="28.45753" lon="-14.0383">
        <ele>294.2</ele>
        <time>2021-07-04 18:31:10</time>
      </trkpt>
      <trkpt lat="28.4575" lon="-14.03828">
        <ele>294.2</ele>
        <time>2021-07-04 18:31:11</time>
      </trkpt>
      <trkpt lat="28.45747" lon="-14.03827">
        <ele>294.6</ele>
        <time>2021-07-04 18:31:12</time>
      </trkpt>
      <trkpt lat="28.45744" lon="-14.03825">
        <ele>294.6</ele>
        <time>2021-07-04 18:31:13</time>
      </trkpt>
      <trkpt lat="28.4574" lon="-14.03824">
        <ele>295</ele>
        <time>2021-07-04 18:31:14</time>
      </trkpt>
      <trkpt lat="28.45737" lon="-14.03822">
        <ele>295.2</ele>
        <time>2021-07-04 18:31:15</time>
      </trkpt>
      <trkpt lat="28.45734" lon="-14.03821">
        <ele>295.2</ele>
        <time>2021-07-04 18:31:16</time>
      </trkpt>
      <trkpt lat="28.45731" lon="-14.03819">
        <ele>295.4</ele>
        <time>2021-07-04 18:31:17</time>
      </trkpt>
      <trkpt lat="28.45728" lon="-14.03818">
        <ele>295.4</ele>
        <time>2021-07-04 18:31:18</time>
      </trkpt>
      <trkpt lat="28.45725" lon="-14.03816">
        <ele>295.8</ele>
        <time>2021-07-04 18:31:19</time>
      </trkpt>
      <trkpt lat="28.45722" lon="-14.03814">
        <ele>295.8</ele>
        <time>2021-07-04 18:31:20</time>
      </trkpt>
      <trkpt lat="28.45718" lon="-14.03812">
        <ele>296</ele>
        <time>2021-07-04 18:31:21</time>
      </trkpt>
      <trkpt lat="28.45715" lon="-14.0381">
        <ele>296</ele>
        <time>2021-07-04 18:31:22</time>
      </trkpt>
      <trkpt lat="28.45712" lon="-14.03807">
        <ele>296.4</ele>
        <time>2021-07-04 18:31:23</time>
      </trkpt>
      <trkpt lat="28.45709" lon="-14.03805">
        <ele>296.4</ele>
        <time>2021-07-04 18:31:24</time>
      </trkpt>
      <trkpt lat="28.45706" lon="-14.03803">
        <ele>296.8</ele>
        <time>2021-07-04 18:31:25</time>
      </trkpt>
      <trkpt lat="28.45703" lon="-14.03801">
        <ele>297</ele>
        <time>2021-07-04 18:31:26</time>
      </trkpt>
      <trkpt lat="28.45699" lon="-14.03799">
        <ele>297</ele>
        <time>2021-07-04 18:31:27</time>
      </trkpt>
      <trkpt lat="28.45696" lon="-14.03797">
        <ele>297.2</ele>
        <time>2021-07-04 18:31:28</time>
      </trkpt>
      <trkpt lat="28.45693" lon="-14.03795">
        <ele>297.2</ele>
        <time>2021-07-04 18:31:29</time>
      </trkpt>
      <trkpt lat="28.45689" lon="-14.03793">
        <ele>297.6</ele>
        <time>2021-07-04 18:31:30</time>
      </trkpt>
      <trkpt lat="28.45686" lon="-14.03791">
        <ele>297.6</ele>
        <time>2021-07-04 18:31:31</time>
      </trkpt>
      <trkpt lat="28.45683" lon="-14.03789">
        <ele>297.8</ele>
        <time>2021-07-04 18:31:32</time>
      </trkpt>
      <trkpt lat="28.4568" lon="-14.03787">
        <ele>297.8</ele>
        <time>2021-07-04 18:31:33</time>
      </trkpt>
      <trkpt lat="28.45676" lon="-14.03785">
        <ele>298.2</ele>
        <time>2021-07-04 18:31:34</time>
      </trkpt>
      <trkpt lat="28.45673" lon="-14.03783">
        <ele>298.2</ele>
        <time>2021-07-04 18:31:35</time>
      </trkpt>
      <trkpt lat="28.4567" lon="-14.03781">
        <ele>298.6</ele>
        <time>2021-07-04 18:31:36</time>
      </trkpt>
      <trkpt lat="28.45666" lon="-14.03779">
        <ele>298.6</ele>
        <time>2021-07-04 18:31:37</time>
      </trkpt>
      <trkpt lat="28.45663" lon="-14.03777">
        <ele>298.8</ele>
        <time>2021-07-04 18:31:38</time>
      </trkpt>
      <trkpt lat="28.4566" lon="-14.03775">
        <ele>298.8</ele>
        <time>2021-07-04 18:31:39</time>
      </trkpt>
      <trkpt lat="28.45656" lon="-14.03773">
        <ele>299.2</ele>
        <time>2021-07-04 18:31:40</time>
      </trkpt>
      <trkpt lat="28.45653" lon="-14.03771">
        <ele>299.2</ele>
        <time>2021-07-04 18:31:41</time>
      </trkpt>
      <trkpt lat="28.45649" lon="-14.03768">
        <ele>299.6</ele>
        <time>2021-07-04 18:31:42</time>
      </trkpt>
      <trkpt lat="28.45646" lon="-14.03766">
        <ele>299.6</ele>
        <time>2021-07-04 18:31:43</time>
      </trkpt>
      <trkpt lat="28.45643" lon="-14.03764">
        <ele>299.8</ele>
        <time>2021-07-04 18:31:44</time>
      </trkpt>
      <trkpt lat="28.4564" lon="-14.03762">
        <ele>299.8</ele>
        <time>2021-07-04 18:31:45</time>
      </trkpt>
      <trkpt lat="28.45636" lon="-14.0376">
        <ele>300</ele>
        <time>2021-07-04 18:31:46</time>
      </trkpt>
      <trkpt lat="28.45633" lon="-14.03758">
        <ele>300</ele>
        <time>2021-07-04 18:31:47</time>
      </trkpt>
      <trkpt lat="28.4563" lon="-14.03756">
        <ele>300.2</ele>
        <time>2021-07-04 18:31:48</time>
      </trkpt>
      <trkpt lat="28.45626" lon="-14.03754">
        <ele>300.2</ele>
        <time>2021-07-04 18:31:49</time>
      </trkpt>
      <trkpt lat="28.45623" lon="-14.03752">
        <ele>300.4</ele>
        <time>2021-07-04 18:31:50</time>
      </trkpt>
      <trkpt lat="28.45619" lon="-14.0375">
        <ele>300.4</ele>
        <time>2021-07-04 18:31:51</time>
      </trkpt>
      <trkpt lat="28.45616" lon="-14.03748">
        <ele>300.4</ele>
        <time>2021-07-04 18:31:52</time>
      </trkpt>
      <trkpt lat="28.45613" lon="-14.03746">
        <ele>300.8</ele>
        <time>2021-07-04 18:31:53</time>
      </trkpt>
      <trkpt lat="28.45609" lon="-14.03744">
        <ele>300.8</ele>
        <time>2021-07-04 18:31:54</time>
      </trkpt>
      <trkpt lat="28.45606" lon="-14.03742">
        <ele>300.8</ele>
        <time>2021-07-04 18:31:55</time>
      </trkpt>
      <trkpt lat="28.45602" lon="-14.0374">
        <ele>300.8</ele>
        <time>2021-07-04 18:31:56</time>
      </trkpt>
      <trkpt lat="28.45599" lon="-14.03737">
        <ele>301</ele>
        <time>2021-07-04 18:31:57</time>
      </trkpt>
      <trkpt lat="28.45596" lon="-14.03735">
        <ele>301</ele>
        <time>2021-07-04 18:31:58</time>
      </trkpt>
      <trkpt lat="28.45592" lon="-14.03733">
        <ele>301.2</ele>
        <time>2021-07-04 18:31:59</time>
      </trkpt>
      <trkpt lat="28.45589" lon="-14.03731">
        <ele>301.2</ele>
        <time>2021-07-04 18:32:00</time>
      </trkpt>
      <trkpt lat="28.45585" lon="-14.03729">
        <ele>301.2</ele>
        <time>2021-07-04 18:32:01</time>
      </trkpt>
      <trkpt lat="28.45582" lon="-14.03727">
        <ele>301.6</ele>
        <time>2021-07-04 18:32:02</time>
      </trkpt>
      <trkpt lat="28.45579" lon="-14.03725">
        <ele>301.6</ele>
        <time>2021-07-04 18:32:03</time>
      </trkpt>
      <trkpt lat="28.45576" lon="-14.03723">
        <ele>301.8</ele>
        <time>2021-07-04 18:32:04</time>
      </trkpt>
      <trkpt lat="28.45572" lon="-14.0372">
        <ele>301.8</ele>
        <time>2021-07-04 18:32:05</time>
      </trkpt>
      <trkpt lat="28.45569" lon="-14.03718">
        <ele>302</ele>
        <time>2021-07-04 18:32:06</time>
      </trkpt>
      <trkpt lat="28.45566" lon="-14.03716">
        <ele>302</ele>
        <time>2021-07-04 18:32:07</time>
      </trkpt>
      <trkpt lat="28.45563" lon="-14.03714">
        <ele>302.4</ele>
        <time>2021-07-04 18:32:08</time>
      </trkpt>
      <trkpt lat="28.4556" lon="-14.03712">
        <ele>302.4</ele>
        <time>2021-07-04 18:32:09</time>
      </trkpt>
      <trkpt lat="28.45556" lon="-14.0371">
        <ele>302.6</ele>
        <time>2021-07-04 18:32:10</time>
      </trkpt>
      <trkpt lat="28.45553" lon="-14.03708">
        <ele>302.6</ele>
        <time>2021-07-04 18:32:11</time>
      </trkpt>
      <trkpt lat="28.4555" lon="-14.03706">
        <ele>303</ele>
        <time>2021-07-04 18:32:12</time>
      </trkpt>
      <trkpt lat="28.45547" lon="-14.03704">
        <ele>303</ele>
        <time>2021-07-04 18:32:13</time>
      </trkpt>
      <trkpt lat="28.45543" lon="-14.03702">
        <ele>303.4</ele>
        <time>2021-07-04 18:32:14</time>
      </trkpt>
      <trkpt lat="28.4554" lon="-14.037">
        <ele>303.4</ele>
        <time>2021-07-04 18:32:15</time>
      </trkpt>
      <trkpt lat="28.45537" lon="-14.03698">
        <ele>303.6</ele>
        <time>2021-07-04 18:32:16</time>
      </trkpt>
      <trkpt lat="28.45534" lon="-14.03697">
        <ele>303.6</ele>
        <time>2021-07-04 18:32:17</time>
      </trkpt>
      <trkpt lat="28.4553" lon="-14.03695">
        <ele>304</ele>
        <time>2021-07-04 18:32:18</time>
      </trkpt>
      <trkpt lat="28.45527" lon="-14.03693">
        <ele>304</ele>
        <time>2021-07-04 18:32:19</time>
      </trkpt>
      <trkpt lat="28.45524" lon="-14.03692">
        <ele>304.4</ele>
        <time>2021-07-04 18:32:20</time>
      </trkpt>
      <trkpt lat="28.45521" lon="-14.0369">
        <ele>304.4</ele>
        <time>2021-07-04 18:32:21</time>
      </trkpt>
      <trkpt lat="28.45518" lon="-14.03688">
        <ele>304.6</ele>
        <time>2021-07-04 18:32:22</time>
      </trkpt>
      <trkpt lat="28.45515" lon="-14.03687">
        <ele>304.6</ele>
        <time>2021-07-04 18:32:23</time>
      </trkpt>
      <trkpt lat="28.45512" lon="-14.03685">
        <ele>305.2</ele>
        <time>2021-07-04 18:32:24</time>
      </trkpt>
      <trkpt lat="28.45508" lon="-14.03684">
        <ele>305.4</ele>
        <time>2021-07-04 18:32:25</time>
      </trkpt>
      <trkpt lat="28.45505" lon="-14.03683">
        <ele>305.4</ele>
        <time>2021-07-04 18:32:26</time>
      </trkpt>
      <trkpt lat="28.45502" lon="-14.03681">
        <ele>305.6</ele>
        <time>2021-07-04 18:32:27</time>
      </trkpt>
      <trkpt lat="28.45499" lon="-14.0368">
        <ele>305.6</ele>
        <time>2021-07-04 18:32:28</time>
      </trkpt>
      <trkpt lat="28.45496" lon="-14.03678">
        <ele>306</ele>
        <time>2021-07-04 18:32:29</time>
      </trkpt>
      <trkpt lat="28.45493" lon="-14.03677">
        <ele>306</ele>
        <time>2021-07-04 18:32:30</time>
      </trkpt>
      <trkpt lat="28.4549" lon="-14.03676">
        <ele>306.4</ele>
        <time>2021-07-04 18:32:31</time>
      </trkpt>
      <trkpt lat="28.45487" lon="-14.03675">
        <ele>306.4</ele>
        <time>2021-07-04 18:32:32</time>
      </trkpt>
      <trkpt lat="28.45484" lon="-14.03674">
        <ele>306.8</ele>
        <time>2021-07-04 18:32:33</time>
      </trkpt>
      <trkpt lat="28.45481" lon="-14.03673">
        <ele>306.8</ele>
        <time>2021-07-04 18:32:34</time>
      </trkpt>
      <trkpt lat="28.45478" lon="-14.03672">
        <ele>307.2</ele>
        <time>2021-07-04 18:32:35</time>
      </trkpt>
      <trkpt lat="28.45475" lon="-14.03671">
        <ele>307.2</ele>
        <time>2021-07-04 18:32:36</time>
      </trkpt>
      <trkpt lat="28.45472" lon="-14.0367">
        <ele>307.6</ele>
        <time>2021-07-04 18:32:37</time>
      </trkpt>
      <trkpt lat="28.45469" lon="-14.03669">
        <ele>307.8</ele>
        <time>2021-07-04 18:32:38</time>
      </trkpt>
      <trkpt lat="28.45466" lon="-14.03668">
        <ele>308</ele>
        <time>2021-07-04 18:32:39</time>
      </trkpt>
      <trkpt lat="28.45463" lon="-14.03667">
        <ele>308</ele>
        <time>2021-07-04 18:32:40</time>
      </trkpt>
      <trkpt lat="28.4546" lon="-14.03666">
        <ele>308.6</ele>
        <time>2021-07-04 18:32:41</time>
      </trkpt>
      <trkpt lat="28.45457" lon="-14.03666">
        <ele>308.6</ele>
        <time>2021-07-04 18:32:42</time>
      </trkpt>
      <trkpt lat="28.45454" lon="-14.03665">
        <ele>308.8</ele>
        <time>2021-07-04 18:32:43</time>
      </trkpt>
      <trkpt lat="28.45451" lon="-14.03664">
        <ele>309</ele>
        <time>2021-07-04 18:32:44</time>
      </trkpt>
      <trkpt lat="28.45448" lon="-14.03663">
        <ele>309</ele>
        <time>2021-07-04 18:32:45</time>
      </trkpt>
      <trkpt lat="28.45445" lon="-14.03662">
        <ele>309.2</ele>
        <time>2021-07-04 18:32:46</time>
      </trkpt>
      <trkpt lat="28.45442" lon="-14.03661">
        <ele>309.2</ele>
        <time>2021-07-04 18:32:47</time>
      </trkpt>
      <trkpt lat="28.45439" lon="-14.0366">
        <ele>309.6</ele>
        <time>2021-07-04 18:32:48</time>
      </trkpt>
      <trkpt lat="28.45436" lon="-14.0366">
        <ele>309.6</ele>
        <time>2021-07-04 18:32:49</time>
      </trkpt>
      <trkpt lat="28.45432" lon="-14.03659">
        <ele>309.8</ele>
        <time>2021-07-04 18:32:50</time>
      </trkpt>
      <trkpt lat="28.45429" lon="-14.03658">
        <ele>309.8</ele>
        <time>2021-07-04 18:32:51</time>
      </trkpt>
      <trkpt lat="28.45426" lon="-14.03657">
        <ele>310.2</ele>
        <time>2021-07-04 18:32:52</time>
      </trkpt>
      <trkpt lat="28.45423" lon="-14.03656">
        <ele>310.4</ele>
        <time>2021-07-04 18:32:53</time>
      </trkpt>
      <trkpt lat="28.4542" lon="-14.03655">
        <ele>310.4</ele>
        <time>2021-07-04 18:32:54</time>
      </trkpt>
      <trkpt lat="28.45417" lon="-14.03654">
        <ele>310.8</ele>
        <time>2021-07-04 18:32:55</time>
      </trkpt>
      <trkpt lat="28.45413" lon="-14.03653">
        <ele>311</ele>
        <time>2021-07-04 18:32:56</time>
      </trkpt>
      <trkpt lat="28.4541" lon="-14.03652">
        <ele>311.2</ele>
        <time>2021-07-04 18:32:57</time>
      </trkpt>
      <trkpt lat="28.45407" lon="-14.03651">
        <ele>311.6</ele>
        <time>2021-07-04 18:32:58</time>
      </trkpt>
      <trkpt lat="28.45404" lon="-14.0365">
        <ele>311.8</ele>
        <time>2021-07-04 18:32:59</time>
      </trkpt>
      <trkpt lat="28.45401" lon="-14.03649">
        <ele>312</ele>
        <time>2021-07-04 18:33:00</time>
      </trkpt>
      <trkpt lat="28.45398" lon="-14.03649">
        <ele>312.2</ele>
        <time>2021-07-04 18:33:01</time>
      </trkpt>
      <trkpt lat="28.45394" lon="-14.03648">
        <ele>312.4</ele>
        <time>2021-07-04 18:33:02</time>
      </trkpt>
      <trkpt lat="28.45391" lon="-14.03647">
        <ele>312.8</ele>
        <time>2021-07-04 18:33:03</time>
      </trkpt>
      <trkpt lat="28.45388" lon="-14.03646">
        <ele>313</ele>
        <time>2021-07-04 18:33:04</time>
      </trkpt>
      <trkpt lat="28.45385" lon="-14.03646">
        <ele>313.2</ele>
        <time>2021-07-04 18:33:05</time>
      </trkpt>
      <trkpt lat="28.45382" lon="-14.03645">
        <ele>313.4</ele>
        <time>2021-07-04 18:33:06</time>
      </trkpt>
      <trkpt lat="28.45378" lon="-14.03645">
        <ele>313.8</ele>
        <time>2021-07-04 18:33:07</time>
      </trkpt>
      <trkpt lat="28.45375" lon="-14.03644">
        <ele>314</ele>
        <time>2021-07-04 18:33:08</time>
      </trkpt>
      <trkpt lat="28.45372" lon="-14.03644">
        <ele>314.2</ele>
        <time>2021-07-04 18:33:09</time>
      </trkpt>
      <trkpt lat="28.45369" lon="-14.03643">
        <ele>314.4</ele>
        <time>2021-07-04 18:33:10</time>
      </trkpt>
      <trkpt lat="28.45366" lon="-14.03642">
        <ele>314.6</ele>
        <time>2021-07-04 18:33:11</time>
      </trkpt>
      <trkpt lat="28.45363" lon="-14.03642">
        <ele>315</ele>
        <time>2021-07-04 18:33:12</time>
      </trkpt>
      <trkpt lat="28.45359" lon="-14.03641">
        <ele>315.2</ele>
        <time>2021-07-04 18:33:13</time>
      </trkpt>
      <trkpt lat="28.45356" lon="-14.0364">
        <ele>315.2</ele>
        <time>2021-07-04 18:33:14</time>
      </trkpt>
      <trkpt lat="28.45353" lon="-14.03639">
        <ele>315.4</ele>
        <time>2021-07-04 18:33:15</time>
      </trkpt>
      <trkpt lat="28.4535" lon="-14.03638">
        <ele>315.4</ele>
        <time>2021-07-04 18:33:16</time>
      </trkpt>
      <trkpt lat="28.45347" lon="-14.03638">
        <ele>315.8</ele>
        <time>2021-07-04 18:33:17</time>
      </trkpt>
      <trkpt lat="28.45344" lon="-14.03637">
        <ele>315.8</ele>
        <time>2021-07-04 18:33:18</time>
      </trkpt>
      <trkpt lat="28.4534" lon="-14.03636">
        <ele>316.2</ele>
        <time>2021-07-04 18:33:19</time>
      </trkpt>
      <trkpt lat="28.45337" lon="-14.03635">
        <ele>316.4</ele>
        <time>2021-07-04 18:33:20</time>
      </trkpt>
      <trkpt lat="28.45334" lon="-14.03634">
        <ele>316.6</ele>
        <time>2021-07-04 18:33:21</time>
      </trkpt>
      <trkpt lat="28.45331" lon="-14.03633">
        <ele>316.6</ele>
        <time>2021-07-04 18:33:22</time>
      </trkpt>
      <trkpt lat="28.45328" lon="-14.03632">
        <ele>317</ele>
        <time>2021-07-04 18:33:23</time>
      </trkpt>
      <trkpt lat="28.45325" lon="-14.0363">
        <ele>317.4</ele>
        <time>2021-07-04 18:33:24</time>
      </trkpt>
      <trkpt lat="28.45322" lon="-14.03629">
        <ele>317.6</ele>
        <time>2021-07-04 18:33:25</time>
      </trkpt>
      <trkpt lat="28.45319" lon="-14.03627">
        <ele>317.8</ele>
        <time>2021-07-04 18:33:26</time>
      </trkpt>
      <trkpt lat="28.45315" lon="-14.03625">
        <ele>318</ele>
        <time>2021-07-04 18:33:27</time>
      </trkpt>
      <trkpt lat="28.45312" lon="-14.03623">
        <ele>318</ele>
        <time>2021-07-04 18:33:28</time>
      </trkpt>
      <trkpt lat="28.45309" lon="-14.03622">
        <ele>318.4</ele>
        <time>2021-07-04 18:33:29</time>
      </trkpt>
      <trkpt lat="28.45306" lon="-14.03619">
        <ele>318.8</ele>
        <time>2021-07-04 18:33:30</time>
      </trkpt>
      <trkpt lat="28.45302" lon="-14.03617">
        <ele>319.2</ele>
        <time>2021-07-04 18:33:31</time>
      </trkpt>
      <trkpt lat="28.453" lon="-14.03615">
        <ele>319.4</ele>
        <time>2021-07-04 18:33:32</time>
      </trkpt>
      <trkpt lat="28.45297" lon="-14.03613">
        <ele>319.6</ele>
        <time>2021-07-04 18:33:33</time>
      </trkpt>
      <trkpt lat="28.45293" lon="-14.03611">
        <ele>320</ele>
        <time>2021-07-04 18:33:34</time>
      </trkpt>
      <trkpt lat="28.4529" lon="-14.03609">
        <ele>320.2</ele>
        <time>2021-07-04 18:33:35</time>
      </trkpt>
      <trkpt lat="28.45287" lon="-14.03607">
        <ele>320.4</ele>
        <time>2021-07-04 18:33:36</time>
      </trkpt>
      <trkpt lat="28.45285" lon="-14.03605">
        <ele>320.8</ele>
        <time>2021-07-04 18:33:37</time>
      </trkpt>
      <trkpt lat="28.45282" lon="-14.03603">
        <ele>321</ele>
        <time>2021-07-04 18:33:38</time>
      </trkpt>
      <trkpt lat="28.45278" lon="-14.03601">
        <ele>321.2</ele>
        <time>2021-07-04 18:33:39</time>
      </trkpt>
      <trkpt lat="28.45275" lon="-14.03599">
        <ele>321.6</ele>
        <time>2021-07-04 18:33:40</time>
      </trkpt>
      <trkpt lat="28.45272" lon="-14.03597">
        <ele>322</ele>
        <time>2021-07-04 18:33:41</time>
      </trkpt>
      <trkpt lat="28.45269" lon="-14.03595">
        <ele>322.2</ele>
        <time>2021-07-04 18:33:42</time>
      </trkpt>
      <trkpt lat="28.45266" lon="-14.03593">
        <ele>322.4</ele>
        <time>2021-07-04 18:33:43</time>
      </trkpt>
      <trkpt lat="28.45264" lon="-14.03591">
        <ele>322.8</ele>
        <time>2021-07-04 18:33:44</time>
      </trkpt>
      <trkpt lat="28.45261" lon="-14.03589">
        <ele>323.2</ele>
        <time>2021-07-04 18:33:45</time>
      </trkpt>
      <trkpt lat="28.45259" lon="-14.03587">
        <ele>323.4</ele>
        <time>2021-07-04 18:33:46</time>
      </trkpt>
      <trkpt lat="28.45256" lon="-14.03585">
        <ele>323.6</ele>
        <time>2021-07-04 18:33:47</time>
      </trkpt>
      <trkpt lat="28.45253" lon="-14.03583">
        <ele>323.6</ele>
        <time>2021-07-04 18:33:48</time>
      </trkpt>
      <trkpt lat="28.45249" lon="-14.03581">
        <ele>324</ele>
        <time>2021-07-04 18:33:49</time>
      </trkpt>
      <trkpt lat="28.45246" lon="-14.03579">
        <ele>324</ele>
        <time>2021-07-04 18:33:50</time>
      </trkpt>
      <trkpt lat="28.45243" lon="-14.03577">
        <ele>324.4</ele>
        <time>2021-07-04 18:33:51</time>
      </trkpt>
      <trkpt lat="28.4524" lon="-14.03576">
        <ele>324.4</ele>
        <time>2021-07-04 18:33:52</time>
      </trkpt>
      <trkpt lat="28.45237" lon="-14.03574">
        <ele>324.8</ele>
        <time>2021-07-04 18:33:53</time>
      </trkpt>
      <trkpt lat="28.45233" lon="-14.03573">
        <ele>325</ele>
        <time>2021-07-04 18:33:54</time>
      </trkpt>
      <trkpt lat="28.4523" lon="-14.03571">
        <ele>325.4</ele>
        <time>2021-07-04 18:33:55</time>
      </trkpt>
      <trkpt lat="28.45227" lon="-14.0357">
        <ele>325.6</ele>
        <time>2021-07-04 18:33:56</time>
      </trkpt>
      <trkpt lat="28.45224" lon="-14.03569">
        <ele>325.8</ele>
        <time>2021-07-04 18:33:57</time>
      </trkpt>
      <trkpt lat="28.45221" lon="-14.03567">
        <ele>326</ele>
        <time>2021-07-04 18:33:58</time>
      </trkpt>
      <trkpt lat="28.45218" lon="-14.03566">
        <ele>326.2</ele>
        <time>2021-07-04 18:33:59</time>
      </trkpt>
      <trkpt lat="28.45215" lon="-14.03565">
        <ele>326.2</ele>
        <time>2021-07-04 18:34:00</time>
      </trkpt>
      <trkpt lat="28.45212" lon="-14.03564">
        <ele>326.6</ele>
        <time>2021-07-04 18:34:01</time>
      </trkpt>
      <trkpt lat="28.45209" lon="-14.03563">
        <ele>326.8</ele>
        <time>2021-07-04 18:34:02</time>
      </trkpt>
      <trkpt lat="28.45206" lon="-14.03562">
        <ele>326.8</ele>
        <time>2021-07-04 18:34:03</time>
      </trkpt>
      <trkpt lat="28.45203" lon="-14.0356">
        <ele>327.2</ele>
        <time>2021-07-04 18:34:04</time>
      </trkpt>
      <trkpt lat="28.452" lon="-14.03559">
        <ele>327.2</ele>
        <time>2021-07-04 18:34:05</time>
      </trkpt>
      <trkpt lat="28.45197" lon="-14.03558">
        <ele>327.4</ele>
        <time>2021-07-04 18:34:06</time>
      </trkpt>
      <trkpt lat="28.45194" lon="-14.03557">
        <ele>327.4</ele>
        <time>2021-07-04 18:34:07</time>
      </trkpt>
      <trkpt lat="28.45191" lon="-14.03557">
        <ele>327.8</ele>
        <time>2021-07-04 18:34:08</time>
      </trkpt>
      <trkpt lat="28.45188" lon="-14.03556">
        <ele>327.8</ele>
        <time>2021-07-04 18:34:09</time>
      </trkpt>
      <trkpt lat="28.45185" lon="-14.03556">
        <ele>328</ele>
        <time>2021-07-04 18:34:10</time>
      </trkpt>
      <trkpt lat="28.45182" lon="-14.03555">
        <ele>328.2</ele>
        <time>2021-07-04 18:34:11</time>
      </trkpt>
      <trkpt lat="28.45178" lon="-14.03554">
        <ele>328.2</ele>
        <time>2021-07-04 18:34:12</time>
      </trkpt>
      <trkpt lat="28.45175" lon="-14.03554">
        <ele>328.6</ele>
        <time>2021-07-04 18:34:13</time>
      </trkpt>
      <trkpt lat="28.45171" lon="-14.03554">
        <ele>328.6</ele>
        <time>2021-07-04 18:34:14</time>
      </trkpt>
      <trkpt lat="28.45168" lon="-14.03553">
        <ele>328.8</ele>
        <time>2021-07-04 18:34:15</time>
      </trkpt>
      <trkpt lat="28.45164" lon="-14.03553">
        <ele>328.8</ele>
        <time>2021-07-04 18:34:16</time>
      </trkpt>
      <trkpt lat="28.45161" lon="-14.03553">
        <ele>329.2</ele>
        <time>2021-07-04 18:34:17</time>
      </trkpt>
      <trkpt lat="28.45158" lon="-14.03553">
        <ele>329.2</ele>
        <time>2021-07-04 18:34:18</time>
      </trkpt>
      <trkpt lat="28.45155" lon="-14.03552">
        <ele>329.4</ele>
        <time>2021-07-04 18:34:19</time>
      </trkpt>
      <trkpt lat="28.45151" lon="-14.03552">
        <ele>329.4</ele>
        <time>2021-07-04 18:34:20</time>
      </trkpt>
      <trkpt lat="28.45148" lon="-14.03552">
        <ele>329.4</ele>
        <time>2021-07-04 18:34:21</time>
      </trkpt>
      <trkpt lat="28.45144" lon="-14.03552">
        <ele>329.4</ele>
        <time>2021-07-04 18:34:22</time>
      </trkpt>
      <trkpt lat="28.45141" lon="-14.03552">
        <ele>329.8</ele>
        <time>2021-07-04 18:34:23</time>
      </trkpt>
      <trkpt lat="28.45138" lon="-14.03552">
        <ele>330</ele>
        <time>2021-07-04 18:34:24</time>
      </trkpt>
      <trkpt lat="28.45135" lon="-14.03551">
        <ele>330</ele>
        <time>2021-07-04 18:34:25</time>
      </trkpt>
      <trkpt lat="28.45132" lon="-14.03551">
        <ele>330.8</ele>
        <time>2021-07-04 18:34:26</time>
      </trkpt>
      <trkpt lat="28.45129" lon="-14.03551">
        <ele>330.8</ele>
        <time>2021-07-04 18:34:27</time>
      </trkpt>
      <trkpt lat="28.45126" lon="-14.03551">
        <ele>331.2</ele>
        <time>2021-07-04 18:34:28</time>
      </trkpt>
      <trkpt lat="28.45123" lon="-14.03551">
        <ele>331.2</ele>
        <time>2021-07-04 18:34:29</time>
      </trkpt>
      <trkpt lat="28.45119" lon="-14.03551">
        <ele>331.2</ele>
        <time>2021-07-04 18:34:30</time>
      </trkpt>
      <trkpt lat="28.45116" lon="-14.03551">
        <ele>331.2</ele>
        <time>2021-07-04 18:34:31</time>
      </trkpt>
      <trkpt lat="28.45113" lon="-14.0355">
        <ele>331.4</ele>
        <time>2021-07-04 18:34:32</time>
      </trkpt>
      <trkpt lat="28.45109" lon="-14.0355">
        <ele>331.4</ele>
        <time>2021-07-04 18:34:33</time>
      </trkpt>
      <trkpt lat="28.45106" lon="-14.0355">
        <ele>331.6</ele>
        <time>2021-07-04 18:34:34</time>
      </trkpt>
      <trkpt lat="28.45102" lon="-14.0355">
        <ele>331.6</ele>
        <time>2021-07-04 18:34:35</time>
      </trkpt>
      <trkpt lat="28.45099" lon="-14.0355">
        <ele>332</ele>
        <time>2021-07-04 18:34:36</time>
      </trkpt>
      <trkpt lat="28.45096" lon="-14.03549">
        <ele>332</ele>
        <time>2021-07-04 18:34:37</time>
      </trkpt>
      <trkpt lat="28.45092" lon="-14.03549">
        <ele>332.2</ele>
        <time>2021-07-04 18:34:38</time>
      </trkpt>
      <trkpt lat="28.45089" lon="-14.03549">
        <ele>332.4</ele>
        <time>2021-07-04 18:34:39</time>
      </trkpt>
      <trkpt lat="28.45085" lon="-14.03549">
        <ele>332.4</ele>
        <time>2021-07-04 18:34:40</time>
      </trkpt>
      <trkpt lat="28.45082" lon="-14.03548">
        <ele>332.8</ele>
        <time>2021-07-04 18:34:41</time>
      </trkpt>
      <trkpt lat="28.45078" lon="-14.03548">
        <ele>332.8</ele>
        <time>2021-07-04 18:34:42</time>
      </trkpt>
      <trkpt lat="28.45075" lon="-14.03548">
        <ele>333.2</ele>
        <time>2021-07-04 18:34:43</time>
      </trkpt>
      <trkpt lat="28.45071" lon="-14.03548">
        <ele>333.6</ele>
        <time>2021-07-04 18:34:44</time>
      </trkpt>
      <trkpt lat="28.45068" lon="-14.03548">
        <ele>333.8</ele>
        <time>2021-07-04 18:34:45</time>
      </trkpt>
      <trkpt lat="28.45064" lon="-14.03547">
        <ele>334</ele>
        <time>2021-07-04 18:34:46</time>
      </trkpt>
      <trkpt lat="28.45061" lon="-14.03547">
        <ele>334.2</ele>
        <time>2021-07-04 18:34:47</time>
      </trkpt>
      <trkpt lat="28.45057" lon="-14.03547">
        <ele>334.2</ele>
        <time>2021-07-04 18:34:48</time>
      </trkpt>
      <trkpt lat="28.45054" lon="-14.03547">
        <ele>334.6</ele>
        <time>2021-07-04 18:34:49</time>
      </trkpt>
      <trkpt lat="28.4505" lon="-14.03546">
        <ele>334.8</ele>
        <time>2021-07-04 18:34:50</time>
      </trkpt>
      <trkpt lat="28.45047" lon="-14.03546">
        <ele>334.8</ele>
        <time>2021-07-04 18:34:51</time>
      </trkpt>
      <trkpt lat="28.45043" lon="-14.03546">
        <ele>335.2</ele>
        <time>2021-07-04 18:34:52</time>
      </trkpt>
      <trkpt lat="28.4504" lon="-14.03546">
        <ele>335.2</ele>
        <time>2021-07-04 18:34:53</time>
      </trkpt>
      <trkpt lat="28.45036" lon="-14.03545">
        <ele>335.4</ele>
        <time>2021-07-04 18:34:54</time>
      </trkpt>
      <trkpt lat="28.45033" lon="-14.03545">
        <ele>335.4</ele>
        <time>2021-07-04 18:34:55</time>
      </trkpt>
      <trkpt lat="28.45029" lon="-14.03545">
        <ele>335.8</ele>
        <time>2021-07-04 18:34:56</time>
      </trkpt>
      <trkpt lat="28.45026" lon="-14.03545">
        <ele>335.8</ele>
        <time>2021-07-04 18:34:57</time>
      </trkpt>
      <trkpt lat="28.45022" lon="-14.03544">
        <ele>336</ele>
        <time>2021-07-04 18:34:58</time>
      </trkpt>
      <trkpt lat="28.45019" lon="-14.03544">
        <ele>336</ele>
        <time>2021-07-04 18:34:59</time>
      </trkpt>
      <trkpt lat="28.45015" lon="-14.03544">
        <ele>336</ele>
        <time>2021-07-04 18:35:00</time>
      </trkpt>
      <trkpt lat="28.45012" lon="-14.03544">
        <ele>336.4</ele>
        <time>2021-07-04 18:35:01</time>
      </trkpt>
      <trkpt lat="28.45008" lon="-14.03543">
        <ele>336.4</ele>
        <time>2021-07-04 18:35:02</time>
      </trkpt>
      <trkpt lat="28.45005" lon="-14.03543">
        <ele>336.8</ele>
        <time>2021-07-04 18:35:03</time>
      </trkpt>
      <trkpt lat="28.45001" lon="-14.03542">
        <ele>336.8</ele>
        <time>2021-07-04 18:35:04</time>
      </trkpt>
      <trkpt lat="28.44997" lon="-14.03542">
        <ele>337</ele>
        <time>2021-07-04 18:35:05</time>
      </trkpt>
      <trkpt lat="28.44994" lon="-14.03541">
        <ele>337</ele>
        <time>2021-07-04 18:35:06</time>
      </trkpt>
      <trkpt lat="28.4499" lon="-14.0354">
        <ele>337.4</ele>
        <time>2021-07-04 18:35:07</time>
      </trkpt>
      <trkpt lat="28.44986" lon="-14.03539">
        <ele>337.4</ele>
        <time>2021-07-04 18:35:08</time>
      </trkpt>
      <trkpt lat="28.44983" lon="-14.03538">
        <ele>337.6</ele>
        <time>2021-07-04 18:35:09</time>
      </trkpt>
      <trkpt lat="28.4498" lon="-14.03537">
        <ele>337.6</ele>
        <time>2021-07-04 18:35:10</time>
      </trkpt>
      <trkpt lat="28.44976" lon="-14.03535">
        <ele>338</ele>
        <time>2021-07-04 18:35:11</time>
      </trkpt>
      <trkpt lat="28.44973" lon="-14.03534">
        <ele>338</ele>
        <time>2021-07-04 18:35:12</time>
      </trkpt>
      <trkpt lat="28.44969" lon="-14.03533">
        <ele>338.2</ele>
        <time>2021-07-04 18:35:13</time>
      </trkpt>
      <trkpt lat="28.44965" lon="-14.03531">
        <ele>338.2</ele>
        <time>2021-07-04 18:35:14</time>
      </trkpt>
      <trkpt lat="28.44962" lon="-14.0353">
        <ele>338.6</ele>
        <time>2021-07-04 18:35:15</time>
      </trkpt>
      <trkpt lat="28.44959" lon="-14.03528">
        <ele>338.6</ele>
        <time>2021-07-04 18:35:16</time>
      </trkpt>
      <trkpt lat="28.44955" lon="-14.03526">
        <ele>338.8</ele>
        <time>2021-07-04 18:35:17</time>
      </trkpt>
      <trkpt lat="28.44952" lon="-14.03524">
        <ele>338.8</ele>
        <time>2021-07-04 18:35:18</time>
      </trkpt>
      <trkpt lat="28.44948" lon="-14.03523">
        <ele>339.2</ele>
        <time>2021-07-04 18:35:19</time>
      </trkpt>
      <trkpt lat="28.44945" lon="-14.03521">
        <ele>339.2</ele>
        <time>2021-07-04 18:35:20</time>
      </trkpt>
      <trkpt lat="28.44941" lon="-14.03519">
        <ele>339.4</ele>
        <time>2021-07-04 18:35:21</time>
      </trkpt>
      <trkpt lat="28.44938" lon="-14.03517">
        <ele>339.4</ele>
        <time>2021-07-04 18:35:22</time>
      </trkpt>
      <trkpt lat="28.44935" lon="-14.03515">
        <ele>339.6</ele>
        <time>2021-07-04 18:35:23</time>
      </trkpt>
      <trkpt lat="28.44931" lon="-14.03512">
        <ele>339.6</ele>
        <time>2021-07-04 18:35:24</time>
      </trkpt>
      <trkpt lat="28.44928" lon="-14.0351">
        <ele>340</ele>
        <time>2021-07-04 18:35:25</time>
      </trkpt>
      <trkpt lat="28.44925" lon="-14.03508">
        <ele>340</ele>
        <time>2021-07-04 18:35:26</time>
      </trkpt>
      <trkpt lat="28.44921" lon="-14.03506">
        <ele>340.4</ele>
        <time>2021-07-04 18:35:27</time>
      </trkpt>
      <trkpt lat="28.44918" lon="-14.03503">
        <ele>340.4</ele>
        <time>2021-07-04 18:35:28</time>
      </trkpt>
      <trkpt lat="28.44915" lon="-14.03501">
        <ele>340.6</ele>
        <time>2021-07-04 18:35:29</time>
      </trkpt>
      <trkpt lat="28.44911" lon="-14.03498">
        <ele>340.8</ele>
        <time>2021-07-04 18:35:30</time>
      </trkpt>
      <trkpt lat="28.44908" lon="-14.03496">
        <ele>341.2</ele>
        <time>2021-07-04 18:35:31</time>
      </trkpt>
      <trkpt lat="28.44905" lon="-14.03493">
        <ele>341.2</ele>
        <time>2021-07-04 18:35:32</time>
      </trkpt>
      <trkpt lat="28.44902" lon="-14.0349">
        <ele>341.6</ele>
        <time>2021-07-04 18:35:33</time>
      </trkpt>
      <trkpt lat="28.44899" lon="-14.03488">
        <ele>341.6</ele>
        <time>2021-07-04 18:35:34</time>
      </trkpt>
      <trkpt lat="28.44896" lon="-14.03485">
        <ele>341.8</ele>
        <time>2021-07-04 18:35:35</time>
      </trkpt>
      <trkpt lat="28.44893" lon="-14.03482">
        <ele>341.8</ele>
        <time>2021-07-04 18:35:36</time>
      </trkpt>
      <trkpt lat="28.4489" lon="-14.0348">
        <ele>342.2</ele>
        <time>2021-07-04 18:35:37</time>
      </trkpt>
      <trkpt lat="28.44887" lon="-14.03478">
        <ele>342.2</ele>
        <time>2021-07-04 18:35:38</time>
      </trkpt>
      <trkpt lat="28.44884" lon="-14.03475">
        <ele>342.4</ele>
        <time>2021-07-04 18:35:39</time>
      </trkpt>
      <trkpt lat="28.44881" lon="-14.03473">
        <ele>342.4</ele>
        <time>2021-07-04 18:35:40</time>
      </trkpt>
      <trkpt lat="28.44877" lon="-14.0347">
        <ele>342.8</ele>
        <time>2021-07-04 18:35:41</time>
      </trkpt>
      <trkpt lat="28.44874" lon="-14.03467">
        <ele>343</ele>
        <time>2021-07-04 18:35:42</time>
      </trkpt>
      <trkpt lat="28.44871" lon="-14.03465">
        <ele>343.2</ele>
        <time>2021-07-04 18:35:43</time>
      </trkpt>
      <trkpt lat="28.44868" lon="-14.03462">
        <ele>343.6</ele>
        <time>2021-07-04 18:35:44</time>
      </trkpt>
      <trkpt lat="28.44864" lon="-14.0346">
        <ele>343.8</ele>
        <time>2021-07-04 18:35:45</time>
      </trkpt>
      <trkpt lat="28.44861" lon="-14.03457">
        <ele>344</ele>
        <time>2021-07-04 18:35:46</time>
      </trkpt>
      <trkpt lat="28.44857" lon="-14.03454">
        <ele>344.2</ele>
        <time>2021-07-04 18:35:47</time>
      </trkpt>
      <trkpt lat="28.44854" lon="-14.03451">
        <ele>344.4</ele>
        <time>2021-07-04 18:35:48</time>
      </trkpt>
      <trkpt lat="28.4485" lon="-14.03449">
        <ele>344.4</ele>
        <time>2021-07-04 18:35:49</time>
      </trkpt>
      <trkpt lat="28.44847" lon="-14.03446">
        <ele>344.8</ele>
        <time>2021-07-04 18:35:50</time>
      </trkpt>
      <trkpt lat="28.44843" lon="-14.03443">
        <ele>344.8</ele>
        <time>2021-07-04 18:35:51</time>
      </trkpt>
      <trkpt lat="28.44839" lon="-14.03441">
        <ele>345</ele>
        <time>2021-07-04 18:35:52</time>
      </trkpt>
      <trkpt lat="28.44836" lon="-14.03438">
        <ele>345.4</ele>
        <time>2021-07-04 18:35:53</time>
      </trkpt>
      <trkpt lat="28.44832" lon="-14.03436">
        <ele>345.4</ele>
        <time>2021-07-04 18:35:54</time>
      </trkpt>
      <trkpt lat="28.44828" lon="-14.03434">
        <ele>345.6</ele>
        <time>2021-07-04 18:35:55</time>
      </trkpt>
      <trkpt lat="28.44824" lon="-14.03432">
        <ele>346</ele>
        <time>2021-07-04 18:35:56</time>
      </trkpt>
      <trkpt lat="28.44821" lon="-14.03429">
        <ele>346.2</ele>
        <time>2021-07-04 18:35:57</time>
      </trkpt>
      <trkpt lat="28.44817" lon="-14.03427">
        <ele>346.6</ele>
        <time>2021-07-04 18:35:58</time>
      </trkpt>
      <trkpt lat="28.44813" lon="-14.03425">
        <ele>346.8</ele>
        <time>2021-07-04 18:35:59</time>
      </trkpt>
      <trkpt lat="28.44809" lon="-14.03423">
        <ele>347.2</ele>
        <time>2021-07-04 18:36:00</time>
      </trkpt>
      <trkpt lat="28.44805" lon="-14.03421">
        <ele>347.6</ele>
        <time>2021-07-04 18:36:01</time>
      </trkpt>
      <trkpt lat="28.44801" lon="-14.03419">
        <ele>347.8</ele>
        <time>2021-07-04 18:36:02</time>
      </trkpt>
      <trkpt lat="28.44797" lon="-14.03417">
        <ele>348</ele>
        <time>2021-07-04 18:36:03</time>
      </trkpt>
      <trkpt lat="28.44793" lon="-14.03415">
        <ele>348.4</ele>
        <time>2021-07-04 18:36:04</time>
      </trkpt>
      <trkpt lat="28.44789" lon="-14.03413">
        <ele>348.6</ele>
        <time>2021-07-04 18:36:05</time>
      </trkpt>
      <trkpt lat="28.44785" lon="-14.03411">
        <ele>349</ele>
        <time>2021-07-04 18:36:06</time>
      </trkpt>
      <trkpt lat="28.44781" lon="-14.0341">
        <ele>349.2</ele>
        <time>2021-07-04 18:36:07</time>
      </trkpt>
      <trkpt lat="28.44776" lon="-14.03408">
        <ele>349.6</ele>
        <time>2021-07-04 18:36:08</time>
      </trkpt>
      <trkpt lat="28.44772" lon="-14.03406">
        <ele>349.6</ele>
        <time>2021-07-04 18:36:09</time>
      </trkpt>
      <trkpt lat="28.44768" lon="-14.03405">
        <ele>349.8</ele>
        <time>2021-07-04 18:36:10</time>
      </trkpt>
      <trkpt lat="28.44764" lon="-14.03403">
        <ele>349.8</ele>
        <time>2021-07-04 18:36:11</time>
      </trkpt>
      <trkpt lat="28.44759" lon="-14.03402">
        <ele>349.8</ele>
        <time>2021-07-04 18:36:12</time>
      </trkpt>
      <trkpt lat="28.44755" lon="-14.03401">
        <ele>350</ele>
        <time>2021-07-04 18:36:13</time>
      </trkpt>
      <trkpt lat="28.4475" lon="-14.03399">
        <ele>350</ele>
        <time>2021-07-04 18:36:14</time>
      </trkpt>
      <trkpt lat="28.44746" lon="-14.03398">
        <ele>350</ele>
        <time>2021-07-04 18:36:15</time>
      </trkpt>
      <trkpt lat="28.44741" lon="-14.03396">
        <ele>350</ele>
        <time>2021-07-04 18:36:16</time>
      </trkpt>
      <trkpt lat="28.44737" lon="-14.03395">
        <ele>350</ele>
        <time>2021-07-04 18:36:17</time>
      </trkpt>
      <trkpt lat="28.44733" lon="-14.03393">
        <ele>350</ele>
        <time>2021-07-04 18:36:18</time>
      </trkpt>
      <trkpt lat="28.44728" lon="-14.03391">
        <ele>350</ele>
        <time>2021-07-04 18:36:19</time>
      </trkpt>
      <trkpt lat="28.44724" lon="-14.03389">
        <ele>350</ele>
        <time>2021-07-04 18:36:20</time>
      </trkpt>
      <trkpt lat="28.44719" lon="-14.03387">
        <ele>350</ele>
        <time>2021-07-04 18:36:21</time>
      </trkpt>
      <trkpt lat="28.44715" lon="-14.03384">
        <ele>350</ele>
        <time>2021-07-04 18:36:22</time>
      </trkpt>
      <trkpt lat="28.44711" lon="-14.03381">
        <ele>349.8</ele>
        <time>2021-07-04 18:36:23</time>
      </trkpt>
      <trkpt lat="28.44707" lon="-14.03379">
        <ele>349.8</ele>
        <time>2021-07-04 18:36:24</time>
      </trkpt>
      <trkpt lat="28.44703" lon="-14.03377">
        <ele>349.8</ele>
        <time>2021-07-04 18:36:25</time>
      </trkpt>
      <trkpt lat="28.44699" lon="-14.03374">
        <ele>349.8</ele>
        <time>2021-07-04 18:36:26</time>
      </trkpt>
      <trkpt lat="28.44695" lon="-14.03372">
        <ele>349.8</ele>
        <time>2021-07-04 18:36:27</time>
      </trkpt>
      <trkpt lat="28.44692" lon="-14.03369">
        <ele>349.8</ele>
        <time>2021-07-04 18:36:28</time>
      </trkpt>
      <trkpt lat="28.44688" lon="-14.03366">
        <ele>350</ele>
        <time>2021-07-04 18:36:29</time>
      </trkpt>
      <trkpt lat="28.44684" lon="-14.03362">
        <ele>350</ele>
        <time>2021-07-04 18:36:30</time>
      </trkpt>
      <trkpt lat="28.44681" lon="-14.03358">
        <ele>350</ele>
        <time>2021-07-04 18:36:31</time>
      </trkpt>
      <trkpt lat="28.44678" lon="-14.03354">
        <ele>350.2</ele>
        <time>2021-07-04 18:36:32</time>
      </trkpt>
      <trkpt lat="28.44674" lon="-14.03351">
        <ele>350.2</ele>
        <time>2021-07-04 18:36:33</time>
      </trkpt>
      <trkpt lat="28.4467" lon="-14.03347">
        <ele>350.6</ele>
        <time>2021-07-04 18:36:34</time>
      </trkpt>
      <trkpt lat="28.44667" lon="-14.03344">
        <ele>350.6</ele>
        <time>2021-07-04 18:36:35</time>
      </trkpt>
      <trkpt lat="28.44663" lon="-14.0334">
        <ele>350.8</ele>
        <time>2021-07-04 18:36:36</time>
      </trkpt>
      <trkpt lat="28.4466" lon="-14.03337">
        <ele>351.2</ele>
        <time>2021-07-04 18:36:37</time>
      </trkpt>
      <trkpt lat="28.44656" lon="-14.03333">
        <ele>351.4</ele>
        <time>2021-07-04 18:36:38</time>
      </trkpt>
      <trkpt lat="28.44652" lon="-14.0333">
        <ele>351.8</ele>
        <time>2021-07-04 18:36:39</time>
      </trkpt>
      <trkpt lat="28.44648" lon="-14.03327">
        <ele>352</ele>
        <time>2021-07-04 18:36:40</time>
      </trkpt>
      <trkpt lat="28.44644" lon="-14.03324">
        <ele>352.4</ele>
        <time>2021-07-04 18:36:41</time>
      </trkpt>
      <trkpt lat="28.4464" lon="-14.03321">
        <ele>352.8</ele>
        <time>2021-07-04 18:36:42</time>
      </trkpt>
      <trkpt lat="28.44636" lon="-14.03318">
        <ele>353.2</ele>
        <time>2021-07-04 18:36:43</time>
      </trkpt>
      <trkpt lat="28.44632" lon="-14.03315">
        <ele>353.4</ele>
        <time>2021-07-04 18:36:44</time>
      </trkpt>
      <trkpt lat="28.44628" lon="-14.03312">
        <ele>353.6</ele>
        <time>2021-07-04 18:36:45</time>
      </trkpt>
      <trkpt lat="28.44624" lon="-14.0331">
        <ele>353.6</ele>
        <time>2021-07-04 18:36:46</time>
      </trkpt>
      <trkpt lat="28.44619" lon="-14.03307">
        <ele>354</ele>
        <time>2021-07-04 18:36:47</time>
      </trkpt>
      <trkpt lat="28.44615" lon="-14.03305">
        <ele>354</ele>
        <time>2021-07-04 18:36:48</time>
      </trkpt>
      <trkpt lat="28.44611" lon="-14.03302">
        <ele>354.4</ele>
        <time>2021-07-04 18:36:49</time>
      </trkpt>
      <trkpt lat="28.44606" lon="-14.03299">
        <ele>354.4</ele>
        <time>2021-07-04 18:36:50</time>
      </trkpt>
      <trkpt lat="28.44602" lon="-14.03297">
        <ele>354.8</ele>
        <time>2021-07-04 18:36:51</time>
      </trkpt>
      <trkpt lat="28.44598" lon="-14.03295">
        <ele>355</ele>
        <time>2021-07-04 18:36:52</time>
      </trkpt>
      <trkpt lat="28.44593" lon="-14.03293">
        <ele>355.2</ele>
        <time>2021-07-04 18:36:53</time>
      </trkpt>
      <trkpt lat="28.44589" lon="-14.03291">
        <ele>355.6</ele>
        <time>2021-07-04 18:36:54</time>
      </trkpt>
      <trkpt lat="28.44585" lon="-14.0329">
        <ele>355.8</ele>
        <time>2021-07-04 18:36:55</time>
      </trkpt>
      <trkpt lat="28.44581" lon="-14.03288">
        <ele>356.2</ele>
        <time>2021-07-04 18:36:56</time>
      </trkpt>
      <trkpt lat="28.44577" lon="-14.03288">
        <ele>356.4</ele>
        <time>2021-07-04 18:36:57</time>
      </trkpt>
      <trkpt lat="28.44573" lon="-14.03287">
        <ele>356.8</ele>
        <time>2021-07-04 18:36:58</time>
      </trkpt>
      <trkpt lat="28.44569" lon="-14.03287">
        <ele>357</ele>
        <time>2021-07-04 18:36:59</time>
      </trkpt>
      <trkpt lat="28.44566" lon="-14.03287">
        <ele>357.4</ele>
        <time>2021-07-04 18:37:00</time>
      </trkpt>
      <trkpt lat="28.44564" lon="-14.03288">
        <ele>357.6</ele>
        <time>2021-07-04 18:37:01</time>
      </trkpt>
      <trkpt lat="28.44562" lon="-14.03288">
        <ele>358</ele>
        <time>2021-07-04 18:37:02</time>
      </trkpt>
      <trkpt lat="28.44559" lon="-14.03288">
        <ele>358.2</ele>
        <time>2021-07-04 18:37:03</time>
      </trkpt>
      <trkpt lat="28.44556" lon="-14.03288">
        <ele>358.2</ele>
        <time>2021-07-04 18:37:04</time>
      </trkpt>
      <trkpt lat="28.44554" lon="-14.03287">
        <ele>358.4</ele>
        <time>2021-07-04 18:37:05</time>
      </trkpt>
      <trkpt lat="28.44551" lon="-14.03286">
        <ele>358.4</ele>
        <time>2021-07-04 18:37:06</time>
      </trkpt>
      <trkpt lat="28.44549" lon="-14.03284">
        <ele>358.8</ele>
        <time>2021-07-04 18:37:07</time>
      </trkpt>
      <trkpt lat="28.44547" lon="-14.03282">
        <ele>358.8</ele>
        <time>2021-07-04 18:37:08</time>
      </trkpt>
      <trkpt lat="28.44545" lon="-14.03279">
        <ele>359.2</ele>
        <time>2021-07-04 18:37:09</time>
      </trkpt>
      <trkpt lat="28.44544" lon="-14.03275">
        <ele>359.2</ele>
        <time>2021-07-04 18:37:10</time>
      </trkpt>
      <trkpt lat="28.44544" lon="-14.03271">
        <ele>359.6</ele>
        <time>2021-07-04 18:37:11</time>
      </trkpt>
      <trkpt lat="28.44545" lon="-14.03266">
        <ele>359.4</ele>
        <time>2021-07-04 18:37:12</time>
      </trkpt>
      <trkpt lat="28.44546" lon="-14.03262">
        <ele>359.8</ele>
        <time>2021-07-04 18:37:13</time>
      </trkpt>
      <trkpt lat="28.44547" lon="-14.03257">
        <ele>359.2</ele>
        <time>2021-07-04 18:37:14</time>
      </trkpt>
      <trkpt lat="28.44547" lon="-14.03252">
        <ele>359.8</ele>
        <time>2021-07-04 18:37:15</time>
      </trkpt>
      <trkpt lat="28.44549" lon="-14.03246">
        <ele>360.2</ele>
        <time>2021-07-04 18:37:16</time>
      </trkpt>
      <trkpt lat="28.44549" lon="-14.03241">
        <ele>360.2</ele>
        <time>2021-07-04 18:37:17</time>
      </trkpt>
      <trkpt lat="28.44549" lon="-14.03234">
        <ele>360.4</ele>
        <time>2021-07-04 18:37:18</time>
      </trkpt>
      <trkpt lat="28.44548" lon="-14.03228">
        <ele>360.4</ele>
        <time>2021-07-04 18:37:19</time>
      </trkpt>
      <trkpt lat="28.44548" lon="-14.03221">
        <ele>360.4</ele>
        <time>2021-07-04 18:37:20</time>
      </trkpt>
      <trkpt lat="28.44548" lon="-14.03213">
        <ele>360.4</ele>
        <time>2021-07-04 18:37:21</time>
      </trkpt>
      <trkpt lat="28.44548" lon="-14.03206">
        <ele>360</ele>
        <time>2021-07-04 18:37:22</time>
      </trkpt>
      <trkpt lat="28.44547" lon="-14.03199">
        <ele>359.8</ele>
        <time>2021-07-04 18:37:23</time>
      </trkpt>
      <trkpt lat="28.44547" lon="-14.03191">
        <ele>359.6</ele>
        <time>2021-07-04 18:37:24</time>
      </trkpt>
      <trkpt lat="28.44546" lon="-14.03183">
        <ele>359.2</ele>
        <time>2021-07-04 18:37:25</time>
      </trkpt>
      <trkpt lat="28.44546" lon="-14.03175">
        <ele>358.8</ele>
        <time>2021-07-04 18:37:26</time>
      </trkpt>
      <trkpt lat="28.44546" lon="-14.03167">
        <ele>358.6</ele>
        <time>2021-07-04 18:37:27</time>
      </trkpt>
      <trkpt lat="28.44546" lon="-14.03158">
        <ele>358.4</ele>
        <time>2021-07-04 18:37:28</time>
      </trkpt>
      <trkpt lat="28.44546" lon="-14.03149">
        <ele>358.2</ele>
        <time>2021-07-04 18:37:29</time>
      </trkpt>
      <trkpt lat="28.44546" lon="-14.0314">
        <ele>357.8</ele>
        <time>2021-07-04 18:37:30</time>
      </trkpt>
      <trkpt lat="28.44548" lon="-14.03132">
        <ele>357.4</ele>
        <time>2021-07-04 18:37:31</time>
      </trkpt>
      <trkpt lat="28.44551" lon="-14.03123">
        <ele>357</ele>
        <time>2021-07-04 18:37:32</time>
      </trkpt>
      <trkpt lat="28.44554" lon="-14.03114">
        <ele>356.4</ele>
        <time>2021-07-04 18:37:33</time>
      </trkpt>
      <trkpt lat="28.44558" lon="-14.03106">
        <ele>356</ele>
        <time>2021-07-04 18:37:34</time>
      </trkpt>
      <trkpt lat="28.44563" lon="-14.03099">
        <ele>355.4</ele>
        <time>2021-07-04 18:37:35</time>
      </trkpt>
      <trkpt lat="28.44568" lon="-14.03092">
        <ele>354.8</ele>
        <time>2021-07-04 18:37:36</time>
      </trkpt>
      <trkpt lat="28.44572" lon="-14.03086">
        <ele>354.2</ele>
        <time>2021-07-04 18:37:37</time>
      </trkpt>
      <trkpt lat="28.44577" lon="-14.0308">
        <ele>353.8</ele>
        <time>2021-07-04 18:37:38</time>
      </trkpt>
      <trkpt lat="28.44581" lon="-14.03073">
        <ele>353</ele>
        <time>2021-07-04 18:37:39</time>
      </trkpt>
      <trkpt lat="28.44585" lon="-14.03066">
        <ele>352.4</ele>
        <time>2021-07-04 18:37:40</time>
      </trkpt>
      <trkpt lat="28.44588" lon="-14.0306">
        <ele>351.6</ele>
        <time>2021-07-04 18:37:41</time>
      </trkpt>
      <trkpt lat="28.4459" lon="-14.03052">
        <ele>351</ele>
        <time>2021-07-04 18:37:42</time>
      </trkpt>
      <trkpt lat="28.44591" lon="-14.03044">
        <ele>350.2</ele>
        <time>2021-07-04 18:37:43</time>
      </trkpt>
      <trkpt lat="28.44592" lon="-14.03036">
        <ele>349.8</ele>
        <time>2021-07-04 18:37:44</time>
      </trkpt>
      <trkpt lat="28.44591" lon="-14.03028">
        <ele>349</ele>
        <time>2021-07-04 18:37:45</time>
      </trkpt>
      <trkpt lat="28.44589" lon="-14.03019">
        <ele>348.2</ele>
        <time>2021-07-04 18:37:46</time>
      </trkpt>
      <trkpt lat="28.44587" lon="-14.03009">
        <ele>347.6</ele>
        <time>2021-07-04 18:37:47</time>
      </trkpt>
      <trkpt lat="28.44584" lon="-14.02999">
        <ele>346.6</ele>
        <time>2021-07-04 18:37:48</time>
      </trkpt>
      <trkpt lat="28.44581" lon="-14.0299">
        <ele>345.8</ele>
        <time>2021-07-04 18:37:49</time>
      </trkpt>
      <trkpt lat="28.44578" lon="-14.0298">
        <ele>344.8</ele>
        <time>2021-07-04 18:37:50</time>
      </trkpt>
      <trkpt lat="28.44563" lon="-14.02932">
        <ele>340.6</ele>
        <time>2021-07-04 18:37:51</time>
      </trkpt>
      <trkpt lat="28.44561" lon="-14.02923">
        <ele>339.8</ele>
        <time>2021-07-04 18:37:52</time>
      </trkpt>
      <trkpt lat="28.44558" lon="-14.02913">
        <ele>339</ele>
        <time>2021-07-04 18:37:53</time>
      </trkpt>
      <trkpt lat="28.44555" lon="-14.02904">
        <ele>338.4</ele>
        <time>2021-07-04 18:37:54</time>
      </trkpt>
      <trkpt lat="28.44552" lon="-14.02895">
        <ele>337.8</ele>
        <time>2021-07-04 18:37:55</time>
      </trkpt>
      <trkpt lat="28.44549" lon="-14.02886">
        <ele>337.2</ele>
        <time>2021-07-04 18:37:56</time>
      </trkpt>
      <trkpt lat="28.44547" lon="-14.02878">
        <ele>336.6</ele>
        <time>2021-07-04 18:37:57</time>
      </trkpt>
      <trkpt lat="28.44544" lon="-14.02869">
        <ele>336</ele>
        <time>2021-07-04 18:37:58</time>
      </trkpt>
      <trkpt lat="28.44541" lon="-14.02859">
        <ele>335.4</ele>
        <time>2021-07-04 18:37:59</time>
      </trkpt>
      <trkpt lat="28.44538" lon="-14.0285">
        <ele>335</ele>
        <time>2021-07-04 18:38:00</time>
      </trkpt>
      <trkpt lat="28.44536" lon="-14.0284">
        <ele>334.4</ele>
        <time>2021-07-04 18:38:01</time>
      </trkpt>
      <trkpt lat="28.44533" lon="-14.0283">
        <ele>333.8</ele>
        <time>2021-07-04 18:38:02</time>
      </trkpt>
      <trkpt lat="28.4453" lon="-14.0282">
        <ele>333.4</ele>
        <time>2021-07-04 18:38:03</time>
      </trkpt>
      <trkpt lat="28.44527" lon="-14.02809">
        <ele>333</ele>
        <time>2021-07-04 18:38:04</time>
      </trkpt>
      <trkpt lat="28.44524" lon="-14.02799">
        <ele>332.6</ele>
        <time>2021-07-04 18:38:05</time>
      </trkpt>
      <trkpt lat="28.44521" lon="-14.02789">
        <ele>332</ele>
        <time>2021-07-04 18:38:06</time>
      </trkpt>
      <trkpt lat="28.44512" lon="-14.02759">
        <ele>330.8</ele>
        <time>2021-07-04 18:38:07</time>
      </trkpt>
      <trkpt lat="28.44509" lon="-14.0275">
        <ele>330.4</ele>
        <time>2021-07-04 18:38:08</time>
      </trkpt>
      <trkpt lat="28.44506" lon="-14.02741">
        <ele>330</ele>
        <time>2021-07-04 18:38:09</time>
      </trkpt>
      <trkpt lat="28.44503" lon="-14.02732">
        <ele>329.6</ele>
        <time>2021-07-04 18:38:10</time>
      </trkpt>
      <trkpt lat="28.44501" lon="-14.02723">
        <ele>329.2</ele>
        <time>2021-07-04 18:38:11</time>
      </trkpt>
      <trkpt lat="28.44498" lon="-14.02714">
        <ele>328.8</ele>
        <time>2021-07-04 18:38:12</time>
      </trkpt>
      <trkpt lat="28.44495" lon="-14.02706">
        <ele>328.4</ele>
        <time>2021-07-04 18:38:13</time>
      </trkpt>
      <trkpt lat="28.44492" lon="-14.02697">
        <ele>328</ele>
        <time>2021-07-04 18:38:14</time>
      </trkpt>
      <trkpt lat="28.44489" lon="-14.02689">
        <ele>327.4</ele>
        <time>2021-07-04 18:38:15</time>
      </trkpt>
      <trkpt lat="28.44487" lon="-14.0268">
        <ele>326.8</ele>
        <time>2021-07-04 18:38:16</time>
      </trkpt>
      <trkpt lat="28.44484" lon="-14.02672">
        <ele>326.4</ele>
        <time>2021-07-04 18:38:17</time>
      </trkpt>
      <trkpt lat="28.44481" lon="-14.02663">
        <ele>325.8</ele>
        <time>2021-07-04 18:38:18</time>
      </trkpt>
      <trkpt lat="28.44479" lon="-14.02654">
        <ele>325.2</ele>
        <time>2021-07-04 18:38:19</time>
      </trkpt>
      <trkpt lat="28.44476" lon="-14.02645">
        <ele>324.8</ele>
        <time>2021-07-04 18:38:20</time>
      </trkpt>
      <trkpt lat="28.44473" lon="-14.02637">
        <ele>324.2</ele>
        <time>2021-07-04 18:38:21</time>
      </trkpt>
      <trkpt lat="28.4447" lon="-14.02628">
        <ele>323.6</ele>
        <time>2021-07-04 18:38:22</time>
      </trkpt>
      <trkpt lat="28.44467" lon="-14.02619">
        <ele>323.2</ele>
        <time>2021-07-04 18:38:23</time>
      </trkpt>
      <trkpt lat="28.44463" lon="-14.02611">
        <ele>322.6</ele>
        <time>2021-07-04 18:38:24</time>
      </trkpt>
      <trkpt lat="28.4446" lon="-14.02601">
        <ele>322</ele>
        <time>2021-07-04 18:38:25</time>
      </trkpt>
      <trkpt lat="28.44456" lon="-14.02592">
        <ele>321.6</ele>
        <time>2021-07-04 18:38:26</time>
      </trkpt>
      <trkpt lat="28.44452" lon="-14.02584">
        <ele>321.2</ele>
        <time>2021-07-04 18:38:27</time>
      </trkpt>
      <trkpt lat="28.44448" lon="-14.02575">
        <ele>320.6</ele>
        <time>2021-07-04 18:38:28</time>
      </trkpt>
      <trkpt lat="28.44443" lon="-14.02567">
        <ele>320</ele>
        <time>2021-07-04 18:38:29</time>
      </trkpt>
      <trkpt lat="28.44437" lon="-14.02559">
        <ele>319.6</ele>
        <time>2021-07-04 18:38:30</time>
      </trkpt>
      <trkpt lat="28.4443" lon="-14.02552">
        <ele>319</ele>
        <time>2021-07-04 18:38:31</time>
      </trkpt>
      <trkpt lat="28.44423" lon="-14.02545">
        <ele>318.4</ele>
        <time>2021-07-04 18:38:32</time>
      </trkpt>
      <trkpt lat="28.44416" lon="-14.02538">
        <ele>318</ele>
        <time>2021-07-04 18:38:33</time>
      </trkpt>
      <trkpt lat="28.44408" lon="-14.02531">
        <ele>317.4</ele>
        <time>2021-07-04 18:38:34</time>
      </trkpt>
      <trkpt lat="28.44399" lon="-14.02525">
        <ele>317</ele>
        <time>2021-07-04 18:38:35</time>
      </trkpt>
      <trkpt lat="28.4439" lon="-14.02519">
        <ele>316.6</ele>
        <time>2021-07-04 18:38:36</time>
      </trkpt>
      <trkpt lat="28.44381" lon="-14.02514">
        <ele>316</ele>
        <time>2021-07-04 18:38:37</time>
      </trkpt>
      <trkpt lat="28.4437" lon="-14.02509">
        <ele>315.4</ele>
        <time>2021-07-04 18:38:38</time>
      </trkpt>
      <trkpt lat="28.4436" lon="-14.02504">
        <ele>315</ele>
        <time>2021-07-04 18:38:39</time>
      </trkpt>
      <trkpt lat="28.4435" lon="-14.02499">
        <ele>314.4</ele>
        <time>2021-07-04 18:38:40</time>
      </trkpt>
      <trkpt lat="28.44339" lon="-14.02494">
        <ele>314</ele>
        <time>2021-07-04 18:38:41</time>
      </trkpt>
      <trkpt lat="28.44328" lon="-14.02489">
        <ele>313.8</ele>
        <time>2021-07-04 18:38:42</time>
      </trkpt>
      <trkpt lat="28.44318" lon="-14.02484">
        <ele>313.2</ele>
        <time>2021-07-04 18:38:43</time>
      </trkpt>
      <trkpt lat="28.44307" lon="-14.02479">
        <ele>312.8</ele>
        <time>2021-07-04 18:38:44</time>
      </trkpt>
      <trkpt lat="28.44296" lon="-14.02474">
        <ele>312.4</ele>
        <time>2021-07-04 18:38:45</time>
      </trkpt>
      <trkpt lat="28.44285" lon="-14.02469">
        <ele>312</ele>
        <time>2021-07-04 18:38:46</time>
      </trkpt>
      <trkpt lat="28.44274" lon="-14.02464">
        <ele>311.6</ele>
        <time>2021-07-04 18:38:47</time>
      </trkpt>
      <trkpt lat="28.44263" lon="-14.02459">
        <ele>311.2</ele>
        <time>2021-07-04 18:38:48</time>
      </trkpt>
      <trkpt lat="28.44251" lon="-14.02454">
        <ele>310.6</ele>
        <time>2021-07-04 18:38:49</time>
      </trkpt>
      <trkpt lat="28.44239" lon="-14.02448">
        <ele>310.2</ele>
        <time>2021-07-04 18:38:50</time>
      </trkpt>
      <trkpt lat="28.44228" lon="-14.02443">
        <ele>309.8</ele>
        <time>2021-07-04 18:38:51</time>
      </trkpt>
      <trkpt lat="28.44216" lon="-14.02437">
        <ele>309.4</ele>
        <time>2021-07-04 18:38:52</time>
      </trkpt>
      <trkpt lat="28.44205" lon="-14.02432">
        <ele>309</ele>
        <time>2021-07-04 18:38:53</time>
      </trkpt>
      <trkpt lat="28.44193" lon="-14.02426">
        <ele>308.8</ele>
        <time>2021-07-04 18:38:54</time>
      </trkpt>
      <trkpt lat="28.44181" lon="-14.0242">
        <ele>308.4</ele>
        <time>2021-07-04 18:38:55</time>
      </trkpt>
      <trkpt lat="28.4417" lon="-14.02415">
        <ele>308</ele>
        <time>2021-07-04 18:38:56</time>
      </trkpt>
      <trkpt lat="28.44158" lon="-14.0241">
        <ele>307.6</ele>
        <time>2021-07-04 18:38:57</time>
      </trkpt>
      <trkpt lat="28.44147" lon="-14.02405">
        <ele>306.8</ele>
        <time>2021-07-04 18:38:58</time>
      </trkpt>
      <trkpt lat="28.44135" lon="-14.02399">
        <ele>306.4</ele>
        <time>2021-07-04 18:38:59</time>
      </trkpt>
      <trkpt lat="28.44123" lon="-14.02394">
        <ele>305.8</ele>
        <time>2021-07-04 18:39:00</time>
      </trkpt>
      <trkpt lat="28.44111" lon="-14.02389">
        <ele>305.4</ele>
        <time>2021-07-04 18:39:01</time>
      </trkpt>
      <trkpt lat="28.44099" lon="-14.02383">
        <ele>304.4</ele>
        <time>2021-07-04 18:39:02</time>
      </trkpt>
      <trkpt lat="28.44087" lon="-14.02378">
        <ele>303.6</ele>
        <time>2021-07-04 18:39:03</time>
      </trkpt>
      <trkpt lat="28.44076" lon="-14.02373">
        <ele>303.8</ele>
        <time>2021-07-04 18:39:04</time>
      </trkpt>
      <trkpt lat="28.44065" lon="-14.02368">
        <ele>303.8</ele>
        <time>2021-07-04 18:39:05</time>
      </trkpt>
      <trkpt lat="28.44053" lon="-14.02363">
        <ele>303.8</ele>
        <time>2021-07-04 18:39:06</time>
      </trkpt>
      <trkpt lat="28.44041" lon="-14.02358">
        <ele>303.8</ele>
        <time>2021-07-04 18:39:07</time>
      </trkpt>
      <trkpt lat="28.44029" lon="-14.02353">
        <ele>303.4</ele>
        <time>2021-07-04 18:39:08</time>
      </trkpt>
      <trkpt lat="28.44018" lon="-14.02348">
        <ele>303.4</ele>
        <time>2021-07-04 18:39:09</time>
      </trkpt>
      <trkpt lat="28.44006" lon="-14.02344">
        <ele>303</ele>
        <time>2021-07-04 18:39:10</time>
      </trkpt>
      <trkpt lat="28.43994" lon="-14.0234">
        <ele>303</ele>
        <time>2021-07-04 18:39:11</time>
      </trkpt>
      <trkpt lat="28.43982" lon="-14.02336">
        <ele>302.4</ele>
        <time>2021-07-04 18:39:12</time>
      </trkpt>
      <trkpt lat="28.4397" lon="-14.02332">
        <ele>302.4</ele>
        <time>2021-07-04 18:39:13</time>
      </trkpt>
      <trkpt lat="28.43958" lon="-14.02329">
        <ele>302.2</ele>
        <time>2021-07-04 18:39:14</time>
      </trkpt>
      <trkpt lat="28.43946" lon="-14.02325">
        <ele>302.2</ele>
        <time>2021-07-04 18:39:15</time>
      </trkpt>
      <trkpt lat="28.43934" lon="-14.02322">
        <ele>301.8</ele>
        <time>2021-07-04 18:39:16</time>
      </trkpt>
      <trkpt lat="28.43923" lon="-14.02319">
        <ele>301.6</ele>
        <time>2021-07-04 18:39:17</time>
      </trkpt>
      <trkpt lat="28.43911" lon="-14.02315">
        <ele>301.4</ele>
        <time>2021-07-04 18:39:18</time>
      </trkpt>
      <trkpt lat="28.43899" lon="-14.02312">
        <ele>301.4</ele>
        <time>2021-07-04 18:39:19</time>
      </trkpt>
      <trkpt lat="28.43887" lon="-14.02309">
        <ele>301</ele>
        <time>2021-07-04 18:39:20</time>
      </trkpt>
      <trkpt lat="28.43875" lon="-14.02305">
        <ele>301</ele>
        <time>2021-07-04 18:39:21</time>
      </trkpt>
      <trkpt lat="28.43864" lon="-14.02303">
        <ele>300.8</ele>
        <time>2021-07-04 18:39:22</time>
      </trkpt>
      <trkpt lat="28.43852" lon="-14.02299">
        <ele>300.8</ele>
        <time>2021-07-04 18:39:23</time>
      </trkpt>
      <trkpt lat="28.4384" lon="-14.02295">
        <ele>300.4</ele>
        <time>2021-07-04 18:39:24</time>
      </trkpt>
      <trkpt lat="28.43828" lon="-14.02292">
        <ele>300.2</ele>
        <time>2021-07-04 18:39:25</time>
      </trkpt>
      <trkpt lat="28.43816" lon="-14.02289">
        <ele>300.2</ele>
        <time>2021-07-04 18:39:26</time>
      </trkpt>
      <trkpt lat="28.43804" lon="-14.02285">
        <ele>299.8</ele>
        <time>2021-07-04 18:39:27</time>
      </trkpt>
      <trkpt lat="28.43792" lon="-14.02283">
        <ele>299.8</ele>
        <time>2021-07-04 18:39:28</time>
      </trkpt>
      <trkpt lat="28.4378" lon="-14.02279">
        <ele>299.6</ele>
        <time>2021-07-04 18:39:29</time>
      </trkpt>
      <trkpt lat="28.43768" lon="-14.02276">
        <ele>299.2</ele>
        <time>2021-07-04 18:39:30</time>
      </trkpt>
      <trkpt lat="28.43756" lon="-14.02273">
        <ele>299</ele>
        <time>2021-07-04 18:39:31</time>
      </trkpt>
      <trkpt lat="28.43744" lon="-14.0227">
        <ele>298.6</ele>
        <time>2021-07-04 18:39:32</time>
      </trkpt>
      <trkpt lat="28.43732" lon="-14.02266">
        <ele>298.4</ele>
        <time>2021-07-04 18:39:33</time>
      </trkpt>
      <trkpt lat="28.4372" lon="-14.02262">
        <ele>298</ele>
        <time>2021-07-04 18:39:34</time>
      </trkpt>
      <trkpt lat="28.43707" lon="-14.02258">
        <ele>297.6</ele>
        <time>2021-07-04 18:39:35</time>
      </trkpt>
      <trkpt lat="28.43695" lon="-14.02254">
        <ele>297.2</ele>
        <time>2021-07-04 18:39:36</time>
      </trkpt>
      <trkpt lat="28.43683" lon="-14.02249">
        <ele>296.8</ele>
        <time>2021-07-04 18:39:37</time>
      </trkpt>
      <trkpt lat="28.4367" lon="-14.02245">
        <ele>296.4</ele>
        <time>2021-07-04 18:39:38</time>
      </trkpt>
      <trkpt lat="28.43658" lon="-14.0224">
        <ele>296</ele>
        <time>2021-07-04 18:39:39</time>
      </trkpt>
      <trkpt lat="28.43646" lon="-14.02234">
        <ele>295.6</ele>
        <time>2021-07-04 18:39:40</time>
      </trkpt>
      <trkpt lat="28.43634" lon="-14.02229">
        <ele>295.4</ele>
        <time>2021-07-04 18:39:41</time>
      </trkpt>
      <trkpt lat="28.43621" lon="-14.02223">
        <ele>295</ele>
        <time>2021-07-04 18:39:42</time>
      </trkpt>
      <trkpt lat="28.43609" lon="-14.02217">
        <ele>294.8</ele>
        <time>2021-07-04 18:39:43</time>
      </trkpt>
      <trkpt lat="28.43597" lon="-14.02212">
        <ele>294.6</ele>
        <time>2021-07-04 18:39:44</time>
      </trkpt>
      <trkpt lat="28.43584" lon="-14.02205">
        <ele>294.2</ele>
        <time>2021-07-04 18:39:45</time>
      </trkpt>
      <trkpt lat="28.43572" lon="-14.022">
        <ele>294</ele>
        <time>2021-07-04 18:39:46</time>
      </trkpt>
      <trkpt lat="28.43559" lon="-14.02194">
        <ele>293.6</ele>
        <time>2021-07-04 18:39:47</time>
      </trkpt>
      <trkpt lat="28.43547" lon="-14.02188">
        <ele>293.4</ele>
        <time>2021-07-04 18:39:48</time>
      </trkpt>
      <trkpt lat="28.43534" lon="-14.02182">
        <ele>293</ele>
        <time>2021-07-04 18:39:49</time>
      </trkpt>
      <trkpt lat="28.43522" lon="-14.02177">
        <ele>292.6</ele>
        <time>2021-07-04 18:39:50</time>
      </trkpt>
      <trkpt lat="28.43509" lon="-14.02171">
        <ele>292.4</ele>
        <time>2021-07-04 18:39:51</time>
      </trkpt>
      <trkpt lat="28.43497" lon="-14.02165">
        <ele>292</ele>
        <time>2021-07-04 18:39:52</time>
      </trkpt>
      <trkpt lat="28.43484" lon="-14.02159">
        <ele>291.4</ele>
        <time>2021-07-04 18:39:53</time>
      </trkpt>
      <trkpt lat="28.43472" lon="-14.02154">
        <ele>291.2</ele>
        <time>2021-07-04 18:39:54</time>
      </trkpt>
      <trkpt lat="28.43459" lon="-14.02148">
        <ele>290.8</ele>
        <time>2021-07-04 18:39:55</time>
      </trkpt>
      <trkpt lat="28.43446" lon="-14.02142">
        <ele>290.4</ele>
        <time>2021-07-04 18:39:56</time>
      </trkpt>
      <trkpt lat="28.43434" lon="-14.02136">
        <ele>290</ele>
        <time>2021-07-04 18:39:57</time>
      </trkpt>
      <trkpt lat="28.43421" lon="-14.02131">
        <ele>289.6</ele>
        <time>2021-07-04 18:39:58</time>
      </trkpt>
      <trkpt lat="28.43409" lon="-14.02125">
        <ele>289.2</ele>
        <time>2021-07-04 18:39:59</time>
      </trkpt>
      <trkpt lat="28.43396" lon="-14.02119">
        <ele>288.8</ele>
        <time>2021-07-04 18:40:00</time>
      </trkpt>
      <trkpt lat="28.43384" lon="-14.02113">
        <ele>288.6</ele>
        <time>2021-07-04 18:40:01</time>
      </trkpt>
      <trkpt lat="28.43372" lon="-14.02107">
        <ele>288.2</ele>
        <time>2021-07-04 18:40:02</time>
      </trkpt>
      <trkpt lat="28.4336" lon="-14.02101">
        <ele>288</ele>
        <time>2021-07-04 18:40:03</time>
      </trkpt>
      <trkpt lat="28.43349" lon="-14.02094">
        <ele>287.6</ele>
        <time>2021-07-04 18:40:04</time>
      </trkpt>
      <trkpt lat="28.43337" lon="-14.02087">
        <ele>287.4</ele>
        <time>2021-07-04 18:40:05</time>
      </trkpt>
      <trkpt lat="28.43326" lon="-14.02079">
        <ele>287.2</ele>
        <time>2021-07-04 18:40:06</time>
      </trkpt>
      <trkpt lat="28.43316" lon="-14.02071">
        <ele>286.8</ele>
        <time>2021-07-04 18:40:07</time>
      </trkpt>
      <trkpt lat="28.43305" lon="-14.02063">
        <ele>286.6</ele>
        <time>2021-07-04 18:40:08</time>
      </trkpt>
      <trkpt lat="28.43295" lon="-14.02054">
        <ele>286.4</ele>
        <time>2021-07-04 18:40:09</time>
      </trkpt>
      <trkpt lat="28.43285" lon="-14.02045">
        <ele>286</ele>
        <time>2021-07-04 18:40:10</time>
      </trkpt>
      <trkpt lat="28.43275" lon="-14.02036">
        <ele>285.6</ele>
        <time>2021-07-04 18:40:11</time>
      </trkpt>
      <trkpt lat="28.43264" lon="-14.02028">
        <ele>285.4</ele>
        <time>2021-07-04 18:40:12</time>
      </trkpt>
      <trkpt lat="28.43254" lon="-14.02019">
        <ele>285</ele>
        <time>2021-07-04 18:40:13</time>
      </trkpt>
      <trkpt lat="28.43244" lon="-14.0201">
        <ele>284.6</ele>
        <time>2021-07-04 18:40:14</time>
      </trkpt>
      <trkpt lat="28.43234" lon="-14.02002">
        <ele>284.2</ele>
        <time>2021-07-04 18:40:15</time>
      </trkpt>
      <trkpt lat="28.43224" lon="-14.01993">
        <ele>283.8</ele>
        <time>2021-07-04 18:40:16</time>
      </trkpt>
      <trkpt lat="28.43214" lon="-14.01985">
        <ele>283.4</ele>
        <time>2021-07-04 18:40:17</time>
      </trkpt>
      <trkpt lat="28.43204" lon="-14.01976">
        <ele>283</ele>
        <time>2021-07-04 18:40:18</time>
      </trkpt>
      <trkpt lat="28.43194" lon="-14.01967">
        <ele>282.8</ele>
        <time>2021-07-04 18:40:19</time>
      </trkpt>
      <trkpt lat="28.43184" lon="-14.01959">
        <ele>282.4</ele>
        <time>2021-07-04 18:40:20</time>
      </trkpt>
      <trkpt lat="28.43173" lon="-14.0195">
        <ele>282.2</ele>
        <time>2021-07-04 18:40:21</time>
      </trkpt>
      <trkpt lat="28.43163" lon="-14.01941">
        <ele>282</ele>
        <time>2021-07-04 18:40:22</time>
      </trkpt>
      <trkpt lat="28.43153" lon="-14.01932">
        <ele>281.6</ele>
        <time>2021-07-04 18:40:23</time>
      </trkpt>
      <trkpt lat="28.43144" lon="-14.01923">
        <ele>281.4</ele>
        <time>2021-07-04 18:40:24</time>
      </trkpt>
      <trkpt lat="28.43134" lon="-14.01915">
        <ele>281</ele>
        <time>2021-07-04 18:40:25</time>
      </trkpt>
      <trkpt lat="28.43124" lon="-14.01907">
        <ele>281</ele>
        <time>2021-07-04 18:40:26</time>
      </trkpt>
      <trkpt lat="28.43115" lon="-14.01898">
        <ele>280.8</ele>
        <time>2021-07-04 18:40:27</time>
      </trkpt>
      <trkpt lat="28.43105" lon="-14.0189">
        <ele>280.8</ele>
        <time>2021-07-04 18:40:28</time>
      </trkpt>
      <trkpt lat="28.43096" lon="-14.01882">
        <ele>280.4</ele>
        <time>2021-07-04 18:40:29</time>
      </trkpt>
      <trkpt lat="28.43086" lon="-14.01874">
        <ele>280.4</ele>
        <time>2021-07-04 18:40:30</time>
      </trkpt>
      <trkpt lat="28.43077" lon="-14.01866">
        <ele>280</ele>
        <time>2021-07-04 18:40:31</time>
      </trkpt>
      <trkpt lat="28.43068" lon="-14.01859">
        <ele>279.8</ele>
        <time>2021-07-04 18:40:32</time>
      </trkpt>
      <trkpt lat="28.43058" lon="-14.01851">
        <ele>279.4</ele>
        <time>2021-07-04 18:40:33</time>
      </trkpt>
      <trkpt lat="28.43049" lon="-14.01843">
        <ele>279.2</ele>
        <time>2021-07-04 18:40:34</time>
      </trkpt>
      <trkpt lat="28.4304" lon="-14.01835">
        <ele>278.8</ele>
        <time>2021-07-04 18:40:35</time>
      </trkpt>
      <trkpt lat="28.43031" lon="-14.01827">
        <ele>278.8</ele>
        <time>2021-07-04 18:40:36</time>
      </trkpt>
      <trkpt lat="28.43022" lon="-14.01819">
        <ele>278.6</ele>
        <time>2021-07-04 18:40:37</time>
      </trkpt>
      <trkpt lat="28.43014" lon="-14.01812">
        <ele>278.6</ele>
        <time>2021-07-04 18:40:38</time>
      </trkpt>
      <trkpt lat="28.43005" lon="-14.01804">
        <ele>278.2</ele>
        <time>2021-07-04 18:40:39</time>
      </trkpt>
      <trkpt lat="28.42996" lon="-14.01797">
        <ele>278.2</ele>
        <time>2021-07-04 18:40:40</time>
      </trkpt>
      <trkpt lat="28.42988" lon="-14.01789">
        <ele>278.2</ele>
        <time>2021-07-04 18:40:41</time>
      </trkpt>
      <trkpt lat="28.4298" lon="-14.01782">
        <ele>278.2</ele>
        <time>2021-07-04 18:40:42</time>
      </trkpt>
      <trkpt lat="28.42972" lon="-14.01775">
        <ele>278</ele>
        <time>2021-07-04 18:40:43</time>
      </trkpt>
      <trkpt lat="28.42963" lon="-14.01769">
        <ele>277.6</ele>
        <time>2021-07-04 18:40:44</time>
      </trkpt>
      <trkpt lat="28.42955" lon="-14.01763">
        <ele>277.4</ele>
        <time>2021-07-04 18:40:45</time>
      </trkpt>
      <trkpt lat="28.42946" lon="-14.01757">
        <ele>277.2</ele>
        <time>2021-07-04 18:40:46</time>
      </trkpt>
      <trkpt lat="28.42937" lon="-14.01751">
        <ele>276.8</ele>
        <time>2021-07-04 18:40:47</time>
      </trkpt>
      <trkpt lat="28.42928" lon="-14.01746">
        <ele>276.6</ele>
        <time>2021-07-04 18:40:48</time>
      </trkpt>
      <trkpt lat="28.42918" lon="-14.01742">
        <ele>276.2</ele>
        <time>2021-07-04 18:40:49</time>
      </trkpt>
      <trkpt lat="28.42908" lon="-14.01738">
        <ele>276</ele>
        <time>2021-07-04 18:40:50</time>
      </trkpt>
      <trkpt lat="28.42898" lon="-14.01735">
        <ele>275.6</ele>
        <time>2021-07-04 18:40:51</time>
      </trkpt>
      <trkpt lat="28.42888" lon="-14.01732">
        <ele>275.4</ele>
        <time>2021-07-04 18:40:52</time>
      </trkpt>
      <trkpt lat="28.42878" lon="-14.01729">
        <ele>275</ele>
        <time>2021-07-04 18:40:53</time>
      </trkpt>
      <trkpt lat="28.42868" lon="-14.01726">
        <ele>274.6</ele>
        <time>2021-07-04 18:40:54</time>
      </trkpt>
      <trkpt lat="28.42858" lon="-14.01723">
        <ele>274.4</ele>
        <time>2021-07-04 18:40:55</time>
      </trkpt>
      <trkpt lat="28.42847" lon="-14.01721">
        <ele>274.2</ele>
        <time>2021-07-04 18:40:56</time>
      </trkpt>
      <trkpt lat="28.42838" lon="-14.01718">
        <ele>273.8</ele>
        <time>2021-07-04 18:40:57</time>
      </trkpt>
      <trkpt lat="28.42827" lon="-14.01716">
        <ele>273.4</ele>
        <time>2021-07-04 18:40:58</time>
      </trkpt>
      <trkpt lat="28.42817" lon="-14.01714">
        <ele>273.4</ele>
        <time>2021-07-04 18:40:59</time>
      </trkpt>
      <trkpt lat="28.42807" lon="-14.01711">
        <ele>273.2</ele>
        <time>2021-07-04 18:41:00</time>
      </trkpt>
      <trkpt lat="28.42797" lon="-14.01708">
        <ele>273.2</ele>
        <time>2021-07-04 18:41:01</time>
      </trkpt>
      <trkpt lat="28.42786" lon="-14.01705">
        <ele>272.8</ele>
        <time>2021-07-04 18:41:02</time>
      </trkpt>
      <trkpt lat="28.42776" lon="-14.01701">
        <ele>272.6</ele>
        <time>2021-07-04 18:41:03</time>
      </trkpt>
      <trkpt lat="28.42766" lon="-14.01697">
        <ele>272.4</ele>
        <time>2021-07-04 18:41:04</time>
      </trkpt>
      <trkpt lat="28.42756" lon="-14.01693">
        <ele>272</ele>
        <time>2021-07-04 18:41:05</time>
      </trkpt>
      <trkpt lat="28.42745" lon="-14.01689">
        <ele>271.8</ele>
        <time>2021-07-04 18:41:06</time>
      </trkpt>
      <trkpt lat="28.42735" lon="-14.01685">
        <ele>271.6</ele>
        <time>2021-07-04 18:41:07</time>
      </trkpt>
      <trkpt lat="28.42725" lon="-14.01681">
        <ele>271.2</ele>
        <time>2021-07-04 18:41:08</time>
      </trkpt>
      <trkpt lat="28.42714" lon="-14.01679">
        <ele>271</ele>
        <time>2021-07-04 18:41:09</time>
      </trkpt>
      <trkpt lat="28.42704" lon="-14.01676">
        <ele>271</ele>
        <time>2021-07-04 18:41:10</time>
      </trkpt>
      <trkpt lat="28.42694" lon="-14.01673">
        <ele>270.4</ele>
        <time>2021-07-04 18:41:11</time>
      </trkpt>
      <trkpt lat="28.42684" lon="-14.01671">
        <ele>270.2</ele>
        <time>2021-07-04 18:41:12</time>
      </trkpt>
      <trkpt lat="28.42674" lon="-14.01668">
        <ele>270</ele>
        <time>2021-07-04 18:41:13</time>
      </trkpt>
      <trkpt lat="28.42664" lon="-14.01665">
        <ele>269.6</ele>
        <time>2021-07-04 18:41:14</time>
      </trkpt>
      <trkpt lat="28.42654" lon="-14.01662">
        <ele>269.2</ele>
        <time>2021-07-04 18:41:15</time>
      </trkpt>
      <trkpt lat="28.42644" lon="-14.01658">
        <ele>269</ele>
        <time>2021-07-04 18:41:16</time>
      </trkpt>
      <trkpt lat="28.42635" lon="-14.01654">
        <ele>268.6</ele>
        <time>2021-07-04 18:41:17</time>
      </trkpt>
      <trkpt lat="28.42626" lon="-14.01649">
        <ele>268.4</ele>
        <time>2021-07-04 18:41:18</time>
      </trkpt>
      <trkpt lat="28.42616" lon="-14.01643">
        <ele>268</ele>
        <time>2021-07-04 18:41:19</time>
      </trkpt>
      <trkpt lat="28.42607" lon="-14.01637">
        <ele>267.8</ele>
        <time>2021-07-04 18:41:20</time>
      </trkpt>
      <trkpt lat="28.42599" lon="-14.01631">
        <ele>267.8</ele>
        <time>2021-07-04 18:41:21</time>
      </trkpt>
      <trkpt lat="28.42591" lon="-14.01625">
        <ele>267.8</ele>
        <time>2021-07-04 18:41:22</time>
      </trkpt>
      <trkpt lat="28.42582" lon="-14.01619">
        <ele>267.4</ele>
        <time>2021-07-04 18:41:23</time>
      </trkpt>
      <trkpt lat="28.42574" lon="-14.01613">
        <ele>267.2</ele>
        <time>2021-07-04 18:41:24</time>
      </trkpt>
      <trkpt lat="28.42566" lon="-14.01608">
        <ele>267</ele>
        <time>2021-07-04 18:41:25</time>
      </trkpt>
      <trkpt lat="28.42559" lon="-14.01602">
        <ele>266.6</ele>
        <time>2021-07-04 18:41:26</time>
      </trkpt>
      <trkpt lat="28.42551" lon="-14.01596">
        <ele>266.4</ele>
        <time>2021-07-04 18:41:27</time>
      </trkpt>
      <trkpt lat="28.42543" lon="-14.0159">
        <ele>266</ele>
        <time>2021-07-04 18:41:28</time>
      </trkpt>
      <trkpt lat="28.42535" lon="-14.01584">
        <ele>265.8</ele>
        <time>2021-07-04 18:41:29</time>
      </trkpt>
      <trkpt lat="28.42528" lon="-14.01578">
        <ele>265.6</ele>
        <time>2021-07-04 18:41:30</time>
      </trkpt>
      <trkpt lat="28.4252" lon="-14.01573">
        <ele>265.4</ele>
        <time>2021-07-04 18:41:31</time>
      </trkpt>
      <trkpt lat="28.42512" lon="-14.01568">
        <ele>265.4</ele>
        <time>2021-07-04 18:41:32</time>
      </trkpt>
      <trkpt lat="28.42504" lon="-14.01563">
        <ele>265</ele>
        <time>2021-07-04 18:41:33</time>
      </trkpt>
      <trkpt lat="28.42496" lon="-14.01558">
        <ele>264.8</ele>
        <time>2021-07-04 18:41:34</time>
      </trkpt>
      <trkpt lat="28.42487" lon="-14.01554">
        <ele>264.8</ele>
        <time>2021-07-04 18:41:35</time>
      </trkpt>
      <trkpt lat="28.42478" lon="-14.0155">
        <ele>264.2</ele>
        <time>2021-07-04 18:41:36</time>
      </trkpt>
      <trkpt lat="28.42469" lon="-14.01546">
        <ele>263.8</ele>
        <time>2021-07-04 18:41:37</time>
      </trkpt>
      <trkpt lat="28.4246" lon="-14.01542">
        <ele>263.4</ele>
        <time>2021-07-04 18:41:38</time>
      </trkpt>
      <trkpt lat="28.42452" lon="-14.01538">
        <ele>263</ele>
        <time>2021-07-04 18:41:39</time>
      </trkpt>
      <trkpt lat="28.42442" lon="-14.01535">
        <ele>262.6</ele>
        <time>2021-07-04 18:41:40</time>
      </trkpt>
      <trkpt lat="28.42433" lon="-14.01531">
        <ele>262.2</ele>
        <time>2021-07-04 18:41:41</time>
      </trkpt>
      <trkpt lat="28.42424" lon="-14.01528">
        <ele>261.8</ele>
        <time>2021-07-04 18:41:42</time>
      </trkpt>
      <trkpt lat="28.42415" lon="-14.01525">
        <ele>261.4</ele>
        <time>2021-07-04 18:41:43</time>
      </trkpt>
      <trkpt lat="28.42406" lon="-14.01522">
        <ele>261.2</ele>
        <time>2021-07-04 18:41:44</time>
      </trkpt>
      <trkpt lat="28.42397" lon="-14.0152">
        <ele>260.8</ele>
        <time>2021-07-04 18:41:45</time>
      </trkpt>
      <trkpt lat="28.42389" lon="-14.01517">
        <ele>260.8</ele>
        <time>2021-07-04 18:41:46</time>
      </trkpt>
      <trkpt lat="28.42381" lon="-14.01515">
        <ele>260.6</ele>
        <time>2021-07-04 18:41:47</time>
      </trkpt>
      <trkpt lat="28.42374" lon="-14.01512">
        <ele>260.6</ele>
        <time>2021-07-04 18:41:48</time>
      </trkpt>
      <trkpt lat="28.42367" lon="-14.0151">
        <ele>260.2</ele>
        <time>2021-07-04 18:41:49</time>
      </trkpt>
      <trkpt lat="28.42361" lon="-14.01508">
        <ele>259.8</ele>
        <time>2021-07-04 18:41:50</time>
      </trkpt>
      <trkpt lat="28.42356" lon="-14.01506">
        <ele>259.6</ele>
        <time>2021-07-04 18:41:51</time>
      </trkpt>
      <trkpt lat="28.42352" lon="-14.01505">
        <ele>259.2</ele>
        <time>2021-07-04 18:41:52</time>
      </trkpt>
      <trkpt lat="28.42348" lon="-14.01503">
        <ele>259</ele>
        <time>2021-07-04 18:41:53</time>
      </trkpt>
      <trkpt lat="28.42345" lon="-14.01503">
        <ele>258.6</ele>
        <time>2021-07-04 18:41:54</time>
      </trkpt>
      <trkpt lat="28.42343" lon="-14.01504">
        <ele>258.4</ele>
        <time>2021-07-04 18:41:55</time>
      </trkpt>
      <trkpt lat="28.42342" lon="-14.01505">
        <ele>258</ele>
        <time>2021-07-04 18:41:56</time>
      </trkpt>
      <trkpt lat="28.42341" lon="-14.01508">
        <ele>258</ele>
        <time>2021-07-04 18:41:57</time>
      </trkpt>
      <trkpt lat="28.42339" lon="-14.01511">
        <ele>258</ele>
        <time>2021-07-04 18:41:58</time>
      </trkpt>
      <trkpt lat="28.42338" lon="-14.01514">
        <ele>257.8</ele>
        <time>2021-07-04 18:41:59</time>
      </trkpt>
      <trkpt lat="28.42337" lon="-14.01518">
        <ele>257.8</ele>
        <time>2021-07-04 18:42:00</time>
      </trkpt>
      <trkpt lat="28.42337" lon="-14.01522">
        <ele>257.8</ele>
        <time>2021-07-04 18:42:01</time>
      </trkpt>
      <trkpt lat="28.42337" lon="-14.01526">
        <ele>257.8</ele>
        <time>2021-07-04 18:42:02</time>
      </trkpt>
      <trkpt lat="28.42336" lon="-14.0153">
        <ele>257.8</ele>
        <time>2021-07-04 18:42:03</time>
      </trkpt>
      <trkpt lat="28.42335" lon="-14.01533">
        <ele>257.8</ele>
        <time>2021-07-04 18:42:04</time>
      </trkpt>
      <trkpt lat="28.42334" lon="-14.01536">
        <ele>257.8</ele>
        <time>2021-07-04 18:42:05</time>
      </trkpt>
      <trkpt lat="28.42333" lon="-14.01539">
        <ele>257.8</ele>
        <time>2021-07-04 18:42:06</time>
      </trkpt>
      <trkpt lat="28.42332" lon="-14.01541">
        <ele>257.8</ele>
        <time>2021-07-04 18:42:07</time>
      </trkpt>
      <trkpt lat="28.42331" lon="-14.01543">
        <ele>257.8</ele>
        <time>2021-07-04 18:42:08</time>
      </trkpt>
      <trkpt lat="28.42329" lon="-14.01544">
        <ele>257.8</ele>
        <time>2021-07-04 18:42:09</time>
      </trkpt>
      <trkpt lat="28.42326" lon="-14.01544">
        <ele>257.8</ele>
        <time>2021-07-04 18:42:10</time>
      </trkpt>
      <trkpt lat="28.42324" lon="-14.01543">
        <ele>257.8</ele>
        <time>2021-07-04 18:42:11</time>
      </trkpt>
      <trkpt lat="28.42322" lon="-14.01543">
        <ele>257.8</ele>
        <time>2021-07-04 18:42:12</time>
      </trkpt>
      <trkpt lat="28.42319" lon="-14.01542">
        <ele>257.8</ele>
        <time>2021-07-04 18:42:13</time>
      </trkpt>
      <trkpt lat="28.42317" lon="-14.01541">
        <ele>257.8</ele>
        <time>2021-07-04 18:42:14</time>
      </trkpt>
      <trkpt lat="28.42313" lon="-14.0154">
        <ele>257.8</ele>
        <time>2021-07-04 18:42:15</time>
      </trkpt>
      <trkpt lat="28.42311" lon="-14.01538">
        <ele>257.8</ele>
        <time>2021-07-04 18:42:16</time>
      </trkpt>
      <trkpt lat="28.42308" lon="-14.01535">
        <ele>257.8</ele>
        <time>2021-07-04 18:42:17</time>
      </trkpt>
      <trkpt lat="28.42306" lon="-14.01532">
        <ele>257.8</ele>
        <time>2021-07-04 18:42:18</time>
      </trkpt>
      <trkpt lat="28.42304" lon="-14.01528">
        <ele>257.8</ele>
        <time>2021-07-04 18:42:19</time>
      </trkpt>
      <trkpt lat="28.42303" lon="-14.01524">
        <ele>257.8</ele>
        <time>2021-07-04 18:42:20</time>
      </trkpt>
      <trkpt lat="28.42304" lon="-14.01521">
        <ele>257.8</ele>
        <time>2021-07-04 18:42:21</time>
      </trkpt>
      <trkpt lat="28.42304" lon="-14.01518">
        <ele>257.8</ele>
        <time>2021-07-04 18:42:22</time>
      </trkpt>
      <trkpt lat="28.42304" lon="-14.01514">
        <ele>257.8</ele>
        <time>2021-07-04 18:42:23</time>
      </trkpt>
      <trkpt lat="28.42304" lon="-14.01511">
        <ele>257.6</ele>
        <time>2021-07-04 18:42:24</time>
      </trkpt>
      <trkpt lat="28.42304" lon="-14.01508">
        <ele>257.6</ele>
        <time>2021-07-04 18:42:25</time>
      </trkpt>
      <trkpt lat="28.42305" lon="-14.01506">
        <ele>257.6</ele>
        <time>2021-07-04 18:42:26</time>
      </trkpt>
      <trkpt lat="28.42305" lon="-14.01504">
        <ele>257.6</ele>
        <time>2021-07-04 18:42:27</time>
      </trkpt>
      <trkpt lat="28.42305" lon="-14.01501">
        <ele>257.8</ele>
        <time>2021-07-04 18:42:28</time>
      </trkpt>
      <trkpt lat="28.42305" lon="-14.01499">
        <ele>257.8</ele>
        <time>2021-07-04 18:42:29</time>
      </trkpt>
      <trkpt lat="28.42303" lon="-14.01497">
        <ele>258.2</ele>
        <time>2021-07-04 18:42:30</time>
      </trkpt>
      <trkpt lat="28.42301" lon="-14.01496">
        <ele>258.2</ele>
        <time>2021-07-04 18:42:31</time>
      </trkpt>
      <trkpt lat="28.42299" lon="-14.01496">
        <ele>258.6</ele>
        <time>2021-07-04 18:42:32</time>
      </trkpt>
      <trkpt lat="28.42298" lon="-14.01496">
        <ele>258.6</ele>
        <time>2021-07-04 18:42:33</time>
      </trkpt>
      <trkpt lat="28.42297" lon="-14.01496">
        <ele>258.8</ele>
        <time>2021-07-04 18:42:34</time>
      </trkpt>
      <trkpt lat="28.42297" lon="-14.01496">
        <ele>258.8</ele>
        <time>2021-07-04 18:42:35</time>
      </trkpt>
      <trkpt lat="28.42299" lon="-14.01496">
        <ele>259.2</ele>
        <time>2021-07-04 18:42:36</time>
      </trkpt>
      <trkpt lat="28.423" lon="-14.01494">
        <ele>259.2</ele>
        <time>2021-07-04 18:42:37</time>
      </trkpt>
      <trkpt lat="28.423" lon="-14.01493">
        <ele>259.2</ele>
        <time>2021-07-04 18:42:38</time>
      </trkpt>
      <trkpt lat="28.42301" lon="-14.01492">
        <ele>258.6</ele>
        <time>2021-07-04 18:42:39</time>
      </trkpt>
      <trkpt lat="28.42301" lon="-14.0149">
        <ele>258.4</ele>
        <time>2021-07-04 18:42:40</time>
      </trkpt>
      <trkpt lat="28.42303" lon="-14.0149">
        <ele>258</ele>
        <time>2021-07-04 18:42:41</time>
      </trkpt>
      <trkpt lat="28.42304" lon="-14.01491">
        <ele>257.8</ele>
        <time>2021-07-04 18:42:42</time>
      </trkpt>
      <trkpt lat="28.42305" lon="-14.01493">
        <ele>257.8</ele>
        <time>2021-07-04 18:42:43</time>
      </trkpt>
      <trkpt lat="28.42305" lon="-14.01494">
        <ele>257.8</ele>
        <time>2021-07-04 18:42:44</time>
      </trkpt>
      <trkpt lat="28.42305" lon="-14.01495">
        <ele>257.8</ele>
        <time>2021-07-04 18:42:45</time>
      </trkpt>
      <trkpt lat="28.42306" lon="-14.01496">
        <ele>257.8</ele>
        <time>2021-07-04 18:42:46</time>
      </trkpt>
      <trkpt lat="28.42306" lon="-14.01497">
        <ele>257.8</ele>
        <time>2021-07-04 18:42:47</time>
      </trkpt>
      <trkpt lat="28.42306" lon="-14.01497">
        <ele>257.8</ele>
        <time>2021-07-04 18:42:48</time>
      </trkpt>
      <trkpt lat="28.42304" lon="-14.01497">
        <ele>258.4</ele>
        <time>2021-07-04 18:42:49</time>
      </trkpt>
      <trkpt lat="28.42304" lon="-14.01498">
        <ele>258.4</ele>
        <time>2021-07-04 18:42:50</time>
      </trkpt>
      <trkpt lat="28.42303" lon="-14.01498">
        <ele>258.8</ele>
        <time>2021-07-04 18:42:51</time>
      </trkpt>
      <trkpt lat="28.42303" lon="-14.01498">
        <ele>259</ele>
        <time>2021-07-04 18:42:52</time>
      </trkpt>
      <trkpt lat="28.42303" lon="-14.01498">
        <ele>259</ele>
        <time>2021-07-04 18:42:53</time>
      </trkpt>
      <trkpt lat="28.42302" lon="-14.01498">
        <ele>259.2</ele>
        <time>2021-07-04 18:42:54</time>
      </trkpt>
      <trkpt lat="28.42302" lon="-14.01494">
        <ele>258.6</ele>
        <time>2021-07-04 18:42:55</time>
      </trkpt>
      <trkpt lat="28.42302" lon="-14.01494">
        <ele>258.6</ele>
        <time>2021-07-04 18:42:56</time>
      </trkpt>
      <trkpt lat="28.42302" lon="-14.01495">
        <ele>258.6</ele>
        <time>2021-07-04 18:42:57</time>
      </trkpt>
      <trkpt lat="28.42302" lon="-14.01494">
        <ele>259.6</ele>
        <time>2021-07-04 18:42:58</time>
      </trkpt>
      <trkpt lat="28.42303" lon="-14.01493">
        <ele>259.6</ele>
        <time>2021-07-04 18:42:59</time>
      </trkpt>
      <trkpt lat="28.42304" lon="-14.01493">
        <ele>259.6</ele>
        <time>2021-07-04 18:43:00</time>
      </trkpt>
      <trkpt lat="28.42305" lon="-14.01493">
        <ele>259.2</ele>
        <time>2021-07-04 18:43:01</time>
      </trkpt>
      <trkpt lat="28.42307" lon="-14.01494">
        <ele>258.2</ele>
        <time>2021-07-04 18:43:02</time>
      </trkpt>
      <trkpt lat="28.42308" lon="-14.01495">
        <ele>258.2</ele>
        <time>2021-07-04 18:43:03</time>
      </trkpt>
      <trkpt lat="28.42309" lon="-14.01498">
        <ele>258.2</ele>
        <time>2021-07-04 18:43:04</time>
      </trkpt>
      <trkpt lat="28.42309" lon="-14.015">
        <ele>258.2</ele>
        <time>2021-07-04 18:43:05</time>
      </trkpt>
      <trkpt lat="28.42309" lon="-14.01503">
        <ele>258.4</ele>
        <time>2021-07-04 18:43:06</time>
      </trkpt>
      <trkpt lat="28.42309" lon="-14.01505">
        <ele>258.4</ele>
        <time>2021-07-04 18:43:07</time>
      </trkpt>
      <trkpt lat="28.42308" lon="-14.01508">
        <ele>258.4</ele>
        <time>2021-07-04 18:43:08</time>
      </trkpt>
      <trkpt lat="28.42308" lon="-14.01512">
        <ele>258.4</ele>
        <time>2021-07-04 18:43:09</time>
      </trkpt>
      <trkpt lat="28.42307" lon="-14.01515">
        <ele>258.2</ele>
        <time>2021-07-04 18:43:10</time>
      </trkpt>
      <trkpt lat="28.42307" lon="-14.01519">
        <ele>258.2</ele>
        <time>2021-07-04 18:43:11</time>
      </trkpt>
      <trkpt lat="28.42306" lon="-14.01522">
        <ele>257.8</ele>
        <time>2021-07-04 18:43:12</time>
      </trkpt>
      <trkpt lat="28.42305" lon="-14.01526">
        <ele>257.8</ele>
        <time>2021-07-04 18:43:13</time>
      </trkpt>
      <trkpt lat="28.42304" lon="-14.01529">
        <ele>257.6</ele>
        <time>2021-07-04 18:43:14</time>
      </trkpt>
      <trkpt lat="28.42303" lon="-14.01532">
        <ele>257.6</ele>
        <time>2021-07-04 18:43:15</time>
      </trkpt>
      <trkpt lat="28.42301" lon="-14.01535">
        <ele>257.2</ele>
        <time>2021-07-04 18:43:16</time>
      </trkpt>
      <trkpt lat="28.42298" lon="-14.01537">
        <ele>257.2</ele>
        <time>2021-07-04 18:43:17</time>
      </trkpt>
      <trkpt lat="28.42296" lon="-14.0154">
        <ele>257.2</ele>
        <time>2021-07-04 18:43:18</time>
      </trkpt>
      <trkpt lat="28.42294" lon="-14.01542">
        <ele>257.2</ele>
        <time>2021-07-04 18:43:19</time>
      </trkpt>
      <trkpt lat="28.42291" lon="-14.01544">
        <ele>257</ele>
        <time>2021-07-04 18:43:20</time>
      </trkpt>
      <trkpt lat="28.4229" lon="-14.01548">
        <ele>257</ele>
        <time>2021-07-04 18:43:21</time>
      </trkpt>
      <trkpt lat="28.42288" lon="-14.01551">
        <ele>256.6</ele>
        <time>2021-07-04 18:43:22</time>
      </trkpt>
      <trkpt lat="28.42287" lon="-14.01554">
        <ele>256.4</ele>
        <time>2021-07-04 18:43:23</time>
      </trkpt>
      <trkpt lat="28.42285" lon="-14.01556">
        <ele>256.2</ele>
        <time>2021-07-04 18:43:24</time>
      </trkpt>
      <trkpt lat="28.42284" lon="-14.01559">
        <ele>256.2</ele>
        <time>2021-07-04 18:43:25</time>
      </trkpt>
      <trkpt lat="28.42283" lon="-14.01561">
        <ele>256.2</ele>
        <time>2021-07-04 18:43:26</time>
      </trkpt>
      <trkpt lat="28.42283" lon="-14.01565">
        <ele>256</ele>
        <time>2021-07-04 18:43:27</time>
      </trkpt>
      <trkpt lat="28.42283" lon="-14.01568">
        <ele>256</ele>
        <time>2021-07-04 18:43:28</time>
      </trkpt>
      <trkpt lat="28.42284" lon="-14.01572">
        <ele>255.6</ele>
        <time>2021-07-04 18:43:29</time>
      </trkpt>
      <trkpt lat="28.42285" lon="-14.01575">
        <ele>255.6</ele>
        <time>2021-07-04 18:43:30</time>
      </trkpt>
      <trkpt lat="28.42287" lon="-14.01578">
        <ele>255.4</ele>
        <time>2021-07-04 18:43:31</time>
      </trkpt>
      <trkpt lat="28.42288" lon="-14.01581">
        <ele>255.4</ele>
        <time>2021-07-04 18:43:32</time>
      </trkpt>
      <trkpt lat="28.42289" lon="-14.01582">
        <ele>255</ele>
        <time>2021-07-04 18:43:33</time>
      </trkpt>
      <trkpt lat="28.42289" lon="-14.01583">
        <ele>255</ele>
        <time>2021-07-04 18:43:34</time>
      </trkpt>
      <trkpt lat="28.42287" lon="-14.01583">
        <ele>255</ele>
        <time>2021-07-04 18:43:35</time>
      </trkpt>
      <trkpt lat="28.42286" lon="-14.01582">
        <ele>254.8</ele>
        <time>2021-07-04 18:43:36</time>
      </trkpt>
      <trkpt lat="28.42285" lon="-14.01581">
        <ele>254.8</ele>
        <time>2021-07-04 18:43:37</time>
      </trkpt>
      <trkpt lat="28.42284" lon="-14.01579">
        <ele>254.8</ele>
        <time>2021-07-04 18:43:38</time>
      </trkpt>
      <trkpt lat="28.42283" lon="-14.01577">
        <ele>254.8</ele>
        <time>2021-07-04 18:43:39</time>
      </trkpt>
      <trkpt lat="28.42282" lon="-14.01574">
        <ele>254.8</ele>
        <time>2021-07-04 18:43:40</time>
      </trkpt>
      <trkpt lat="28.42282" lon="-14.01572">
        <ele>254.8</ele>
        <time>2021-07-04 18:43:41</time>
      </trkpt>
      <trkpt lat="28.42281" lon="-14.0157">
        <ele>254.8</ele>
        <time>2021-07-04 18:43:42</time>
      </trkpt>
      <trkpt lat="28.42281" lon="-14.01567">
        <ele>254.8</ele>
        <time>2021-07-04 18:43:43</time>
      </trkpt>
      <trkpt lat="28.42281" lon="-14.01564">
        <ele>254.8</ele>
        <time>2021-07-04 18:43:44</time>
      </trkpt>
      <trkpt lat="28.42281" lon="-14.01561">
        <ele>254.8</ele>
        <time>2021-07-04 18:43:45</time>
      </trkpt>
      <trkpt lat="28.42281" lon="-14.01559">
        <ele>254.8</ele>
        <time>2021-07-04 18:43:46</time>
      </trkpt>
      <trkpt lat="28.42281" lon="-14.01556">
        <ele>255</ele>
        <time>2021-07-04 18:43:47</time>
      </trkpt>
      <trkpt lat="28.4228" lon="-14.01552">
        <ele>255</ele>
        <time>2021-07-04 18:43:48</time>
      </trkpt>
      <trkpt lat="28.42277" lon="-14.0155">
        <ele>255.4</ele>
        <time>2021-07-04 18:43:49</time>
      </trkpt>
      <trkpt lat="28.42274" lon="-14.01548">
        <ele>255.4</ele>
        <time>2021-07-04 18:43:50</time>
      </trkpt>
      <trkpt lat="28.42271" lon="-14.01547">
        <ele>255.4</ele>
        <time>2021-07-04 18:43:51</time>
      </trkpt>
      <trkpt lat="28.42268" lon="-14.01545">
        <ele>255.4</ele>
        <time>2021-07-04 18:43:52</time>
      </trkpt>
      <trkpt lat="28.42265" lon="-14.01542">
        <ele>255.4</ele>
        <time>2021-07-04 18:43:53</time>
      </trkpt>
      <trkpt lat="28.42261" lon="-14.0154">
        <ele>255.4</ele>
        <time>2021-07-04 18:43:54</time>
      </trkpt>
      <trkpt lat="28.42258" lon="-14.01538">
        <ele>255.2</ele>
        <time>2021-07-04 18:43:55</time>
      </trkpt>
      <trkpt lat="28.42254" lon="-14.01536">
        <ele>255</ele>
        <time>2021-07-04 18:43:56</time>
      </trkpt>
      <trkpt lat="28.4225" lon="-14.01534">
        <ele>254.6</ele>
        <time>2021-07-04 18:43:57</time>
      </trkpt>
      <trkpt lat="28.42247" lon="-14.01532">
        <ele>254.4</ele>
        <time>2021-07-04 18:43:58</time>
      </trkpt>
      <trkpt lat="28.42243" lon="-14.01529">
        <ele>254</ele>
        <time>2021-07-04 18:43:59</time>
      </trkpt>
      <trkpt lat="28.42239" lon="-14.01526">
        <ele>253.8</ele>
        <time>2021-07-04 18:44:00</time>
      </trkpt>
      <trkpt lat="28.42235" lon="-14.01524">
        <ele>253.8</ele>
        <time>2021-07-04 18:44:01</time>
      </trkpt>
      <trkpt lat="28.42232" lon="-14.01521">
        <ele>253.6</ele>
        <time>2021-07-04 18:44:02</time>
      </trkpt>
      <trkpt lat="28.42229" lon="-14.01519">
        <ele>253.6</ele>
        <time>2021-07-04 18:44:03</time>
      </trkpt>
      <trkpt lat="28.42227" lon="-14.01517">
        <ele>253.4</ele>
        <time>2021-07-04 18:44:04</time>
      </trkpt>
      <trkpt lat="28.42225" lon="-14.01515">
        <ele>253.4</ele>
        <time>2021-07-04 18:44:05</time>
      </trkpt>
      <trkpt lat="28.42223" lon="-14.01513">
        <ele>253</ele>
        <time>2021-07-04 18:44:06</time>
      </trkpt>
      <trkpt lat="28.42221" lon="-14.01511">
        <ele>253</ele>
        <time>2021-07-04 18:44:07</time>
      </trkpt>
      <trkpt lat="28.4222" lon="-14.01508">
        <ele>253</ele>
        <time>2021-07-04 18:44:08</time>
      </trkpt>
      <trkpt lat="28.42219" lon="-14.01505">
        <ele>253</ele>
        <time>2021-07-04 18:44:09</time>
      </trkpt>
      <trkpt lat="28.42219" lon="-14.01503">
        <ele>253</ele>
        <time>2021-07-04 18:44:10</time>
      </trkpt>
      <trkpt lat="28.42219" lon="-14.015">
        <ele>253.2</ele>
        <time>2021-07-04 18:44:11</time>
      </trkpt>
      <trkpt lat="28.4222" lon="-14.01497">
        <ele>253.2</ele>
        <time>2021-07-04 18:44:12</time>
      </trkpt>
      <trkpt lat="28.42221" lon="-14.01493">
        <ele>253.6</ele>
        <time>2021-07-04 18:44:13</time>
      </trkpt>
      <trkpt lat="28.42221" lon="-14.01489">
        <ele>253.6</ele>
        <time>2021-07-04 18:44:14</time>
      </trkpt>
      <trkpt lat="28.42222" lon="-14.01486">
        <ele>254</ele>
        <time>2021-07-04 18:44:15</time>
      </trkpt>
      <trkpt lat="28.42222" lon="-14.01482">
        <ele>254</ele>
        <time>2021-07-04 18:44:16</time>
      </trkpt>
      <trkpt lat="28.42222" lon="-14.01479">
        <ele>254.2</ele>
        <time>2021-07-04 18:44:17</time>
      </trkpt>
      <trkpt lat="28.42222" lon="-14.01477">
        <ele>254.4</ele>
        <time>2021-07-04 18:44:18</time>
      </trkpt>
      <trkpt lat="28.42221" lon="-14.01475">
        <ele>254.6</ele>
        <time>2021-07-04 18:44:19</time>
      </trkpt>
      <trkpt lat="28.42221" lon="-14.01472">
        <ele>255</ele>
        <time>2021-07-04 18:44:20</time>
      </trkpt>
      <trkpt lat="28.42221" lon="-14.01469">
        <ele>255</ele>
        <time>2021-07-04 18:44:21</time>
      </trkpt>
      <trkpt lat="28.42221" lon="-14.01466">
        <ele>255</ele>
        <time>2021-07-04 18:44:22</time>
      </trkpt>
      <trkpt lat="28.42221" lon="-14.01463">
        <ele>255</ele>
        <time>2021-07-04 18:44:23</time>
      </trkpt>
      <trkpt lat="28.42221" lon="-14.01461">
        <ele>255</ele>
        <time>2021-07-04 18:44:24</time>
      </trkpt>
      <trkpt lat="28.42221" lon="-14.01458">
        <ele>255.2</ele>
        <time>2021-07-04 18:44:25</time>
      </trkpt>
      <trkpt lat="28.4222" lon="-14.01455">
        <ele>255.2</ele>
        <time>2021-07-04 18:44:26</time>
      </trkpt>
      <trkpt lat="28.4222" lon="-14.01452">
        <ele>255.4</ele>
        <time>2021-07-04 18:44:27</time>
      </trkpt>
      <trkpt lat="28.4222" lon="-14.01449">
        <ele>255.4</ele>
        <time>2021-07-04 18:44:28</time>
      </trkpt>
      <trkpt lat="28.42219" lon="-14.01445">
        <ele>255.4</ele>
        <time>2021-07-04 18:44:29</time>
      </trkpt>
      <trkpt lat="28.42219" lon="-14.01442">
        <ele>255.6</ele>
        <time>2021-07-04 18:44:30</time>
      </trkpt>
      <trkpt lat="28.42218" lon="-14.01438">
        <ele>255.6</ele>
        <time>2021-07-04 18:44:31</time>
      </trkpt>
      <trkpt lat="28.42218" lon="-14.01434">
        <ele>255.6</ele>
        <time>2021-07-04 18:44:32</time>
      </trkpt>
      <trkpt lat="28.42217" lon="-14.0143">
        <ele>255.6</ele>
        <time>2021-07-04 18:44:33</time>
      </trkpt>
      <trkpt lat="28.42216" lon="-14.01426">
        <ele>255.6</ele>
        <time>2021-07-04 18:44:34</time>
      </trkpt>
      <trkpt lat="28.42215" lon="-14.01423">
        <ele>256</ele>
        <time>2021-07-04 18:44:35</time>
      </trkpt>
      <trkpt lat="28.42215" lon="-14.01419">
        <ele>256</ele>
        <time>2021-07-04 18:44:36</time>
      </trkpt>
      <trkpt lat="28.42212" lon="-14.01417">
        <ele>256</ele>
        <time>2021-07-04 18:44:37</time>
      </trkpt>
      <trkpt lat="28.42209" lon="-14.01415">
        <ele>256.2</ele>
        <time>2021-07-04 18:44:38</time>
      </trkpt>
      <trkpt lat="28.42206" lon="-14.01414">
        <ele>256.2</ele>
        <time>2021-07-04 18:44:39</time>
      </trkpt>
      <trkpt lat="28.42202" lon="-14.01413">
        <ele>256.2</ele>
        <time>2021-07-04 18:47:16</time>
      </trkpt>
      <trkpt lat="28.42198" lon="-14.01412">
        <ele>256.2</ele>
        <time>2021-07-04 18:47:17</time>
      </trkpt>
      <trkpt lat="28.42195" lon="-14.01411">
        <ele>256</ele>
        <time>2021-07-04 18:47:18</time>
      </trkpt>
      <trkpt lat="28.42191" lon="-14.0141">
        <ele>255.8</ele>
        <time>2021-07-04 18:47:19</time>
      </trkpt>
      <trkpt lat="28.42187" lon="-14.01409">
        <ele>255.8</ele>
        <time>2021-07-04 18:47:20</time>
      </trkpt>
      <trkpt lat="28.42183" lon="-14.01408">
        <ele>255.4</ele>
        <time>2021-07-04 18:47:21</time>
      </trkpt>
      <trkpt lat="28.42179" lon="-14.01408">
        <ele>255.4</ele>
        <time>2021-07-04 18:47:22</time>
      </trkpt>
      <trkpt lat="28.42174" lon="-14.01408">
        <ele>253.8</ele>
        <time>2021-07-04 18:47:23</time>
      </trkpt>
      <trkpt lat="28.4217" lon="-14.01407">
        <ele>254.2</ele>
        <time>2021-07-04 18:47:24</time>
      </trkpt>
      <trkpt lat="28.42165" lon="-14.01406">
        <ele>254.4</ele>
        <time>2021-07-04 18:47:25</time>
      </trkpt>
      <trkpt lat="28.42161" lon="-14.01403">
        <ele>254.4</ele>
        <time>2021-07-04 18:47:26</time>
      </trkpt>
      <trkpt lat="28.42157" lon="-14.01403">
        <ele>254.4</ele>
        <time>2021-07-04 18:47:27</time>
      </trkpt>
      <trkpt lat="28.42152" lon="-14.01402">
        <ele>253.8</ele>
        <time>2021-07-04 18:47:28</time>
      </trkpt>
      <trkpt lat="28.42147" lon="-14.014">
        <ele>253.6</ele>
        <time>2021-07-04 18:47:31</time>
      </trkpt>
      <trkpt lat="28.42142" lon="-14.014">
        <ele>254</ele>
        <time>2021-07-04 18:47:32</time>
      </trkpt>
      <trkpt lat="28.42138" lon="-14.01399">
        <ele>254.2</ele>
        <time>2021-07-04 18:47:33</time>
      </trkpt>
      <trkpt lat="28.42132" lon="-14.01399">
        <ele>254.2</ele>
        <time>2021-07-04 18:47:34</time>
      </trkpt>
      <trkpt lat="28.42128" lon="-14.01397">
        <ele>254.2</ele>
        <time>2021-07-04 18:47:35</time>
      </trkpt>
      <trkpt lat="28.42123" lon="-14.01397">
        <ele>254.2</ele>
        <time>2021-07-04 18:47:36</time>
      </trkpt>
      <trkpt lat="28.42117" lon="-14.01396">
        <ele>253.8</ele>
        <time>2021-07-04 19:54:55</time>
      </trkpt>
      <trkpt lat="28.42112" lon="-14.01395">
        <ele>253.8</ele>
        <time>2021-07-04 19:54:56</time>
      </trkpt>
      <trkpt lat="28.42107" lon="-14.01394">
        <ele>253.8</ele>
        <time>2021-07-04 19:54:57</time>
      </trkpt>
      <trkpt lat="28.42102" lon="-14.01392">
        <ele>253.2</ele>
        <time>2021-07-04 19:56:07</time>
      </trkpt>
      <trkpt lat="28.42096" lon="-14.01391">
        <ele>253.2</ele>
        <time>2021-07-04 19:56:08</time>
      </trkpt>
      <trkpt lat="28.4209" lon="-14.0139">
        <ele>252.4</ele>
        <time>2021-07-04 19:56:09</time>
      </trkpt>
      <trkpt lat="28.42085" lon="-14.01389">
        <ele>252.4</ele>
        <time>2021-07-04 19:56:10</time>
      </trkpt>
      <trkpt lat="28.42079" lon="-14.01387">
        <ele>252.4</ele>
        <time>2021-07-04 19:56:11</time>
      </trkpt>
      <trkpt lat="28.42073" lon="-14.01386">
        <ele>252.4</ele>
        <time>2021-07-04 19:56:12</time>
      </trkpt>
      <trkpt lat="28.42067" lon="-14.01385">
        <ele>252.4</ele>
        <time>2021-07-04 19:56:13</time>
      </trkpt>
      <trkpt lat="28.42061" lon="-14.01384">
        <ele>252.4</ele>
        <time>2021-07-04 19:56:14</time>
      </trkpt>
      <trkpt lat="28.42055" lon="-14.01383">
        <ele>252.4</ele>
        <time>2021-07-04 19:56:15</time>
      </trkpt>
      <trkpt lat="28.42049" lon="-14.01382">
        <ele>252</ele>
        <time>2021-07-04 19:56:16</time>
      </trkpt>
      <trkpt lat="28.42042" lon="-14.0138">
        <ele>252</ele>
        <time>2021-07-04 19:56:17</time>
      </trkpt>
      <trkpt lat="28.42036" lon="-14.01378">
        <ele>251.8</ele>
        <time>2021-07-04 19:56:18</time>
      </trkpt>
      <trkpt lat="28.42029" lon="-14.01376">
        <ele>251.8</ele>
        <time>2021-07-04 19:56:19</time>
      </trkpt>
      <trkpt lat="28.42022" lon="-14.01375">
        <ele>251.4</ele>
        <time>2021-07-04 19:56:20</time>
      </trkpt>
      <trkpt lat="28.42015" lon="-14.01373">
        <ele>251.4</ele>
        <time>2021-07-04 19:56:21</time>
      </trkpt>
      <trkpt lat="28.42008" lon="-14.01372">
        <ele>251.2</ele>
        <time>2021-07-04 19:56:22</time>
      </trkpt>
      <trkpt lat="28.42001" lon="-14.0137">
        <ele>251.2</ele>
        <time>2021-07-04 19:56:23</time>
      </trkpt>
      <trkpt lat="28.41994" lon="-14.01369">
        <ele>250.8</ele>
        <time>2021-07-04 19:56:24</time>
      </trkpt>
      <trkpt lat="28.41988" lon="-14.01368">
        <ele>250.6</ele>
        <time>2021-07-04 19:56:25</time>
      </trkpt>
      <trkpt lat="28.41981" lon="-14.01366">
        <ele>250.4</ele>
        <time>2021-07-04 19:56:26</time>
      </trkpt>
      <trkpt lat="28.41975" lon="-14.01365">
        <ele>250.2</ele>
        <time>2021-07-04 19:56:27</time>
      </trkpt>
      <trkpt lat="28.41969" lon="-14.01364">
        <ele>250.2</ele>
        <time>2021-07-04 19:56:28</time>
      </trkpt>
      <trkpt lat="28.41964" lon="-14.01364">
        <ele>249.8</ele>
        <time>2021-07-04 19:56:29</time>
      </trkpt>
      <trkpt lat="28.41959" lon="-14.01363">
        <ele>249.8</ele>
        <time>2021-07-04 19:56:30</time>
      </trkpt>
      <trkpt lat="28.41955" lon="-14.01362">
        <ele>249.6</ele>
        <time>2021-07-04 19:56:31</time>
      </trkpt>
      <trkpt lat="28.41951" lon="-14.01361">
        <ele>249.6</ele>
        <time>2021-07-04 19:56:32</time>
      </trkpt>
      <trkpt lat="28.41948" lon="-14.01361">
        <ele>249.4</ele>
        <time>2021-07-04 19:56:33</time>
      </trkpt>
      <trkpt lat="28.41946" lon="-14.0136">
        <ele>249.4</ele>
        <time>2021-07-04 19:56:34</time>
      </trkpt>
      <trkpt lat="28.41943" lon="-14.0136">
        <ele>249.4</ele>
        <time>2021-07-04 19:56:35</time>
      </trkpt>
      <trkpt lat="28.4194" lon="-14.0136">
        <ele>249</ele>
        <time>2021-07-04 19:56:36</time>
      </trkpt>
      <trkpt lat="28.41935" lon="-14.01361">
        <ele>249</ele>
        <time>2021-07-04 19:56:37</time>
      </trkpt>
      <trkpt lat="28.41932" lon="-14.01363">
        <ele>248.8</ele>
        <time>2021-07-04 19:56:38</time>
      </trkpt>
      <trkpt lat="28.41928" lon="-14.01365">
        <ele>248.8</ele>
        <time>2021-07-04 19:56:39</time>
      </trkpt>
      <trkpt lat="28.41922" lon="-14.01367">
        <ele>248.6</ele>
        <time>2021-07-04 19:56:40</time>
      </trkpt>
      <trkpt lat="28.41918" lon="-14.0137">
        <ele>248.6</ele>
        <time>2021-07-04 19:56:41</time>
      </trkpt>
      <trkpt lat="28.41912" lon="-14.01371">
        <ele>248.2</ele>
        <time>2021-07-04 19:56:42</time>
      </trkpt>
      <trkpt lat="28.41906" lon="-14.01374">
        <ele>248.2</ele>
        <time>2021-07-04 19:56:43</time>
      </trkpt>
      <trkpt lat="28.419" lon="-14.01376">
        <ele>248</ele>
        <time>2021-07-04 19:56:44</time>
      </trkpt>
      <trkpt lat="28.41894" lon="-14.01378">
        <ele>248</ele>
        <time>2021-07-04 19:56:45</time>
      </trkpt>
      <trkpt lat="28.41887" lon="-14.01381">
        <ele>247.6</ele>
        <time>2021-07-04 19:56:46</time>
      </trkpt>
      <trkpt lat="28.4188" lon="-14.01383">
        <ele>247.4</ele>
        <time>2021-07-04 19:56:47</time>
      </trkpt>
      <trkpt lat="28.41873" lon="-14.01385">
        <ele>247.4</ele>
        <time>2021-07-04 19:56:48</time>
      </trkpt>
      <trkpt lat="28.41865" lon="-14.01386">
        <ele>247</ele>
        <time>2021-07-04 19:56:49</time>
      </trkpt>
      <trkpt lat="28.41857" lon="-14.01387">
        <ele>246.8</ele>
        <time>2021-07-04 19:56:50</time>
      </trkpt>
      <trkpt lat="28.41849" lon="-14.01388">
        <ele>246.6</ele>
        <time>2021-07-04 19:56:51</time>
      </trkpt>
      <trkpt lat="28.41841" lon="-14.01387">
        <ele>246.2</ele>
        <time>2021-07-04 19:56:52</time>
      </trkpt>
      <trkpt lat="28.41832" lon="-14.01388">
        <ele>246</ele>
        <time>2021-07-04 19:56:53</time>
      </trkpt>
      <trkpt lat="28.41823" lon="-14.01388">
        <ele>245.6</ele>
        <time>2021-07-04 19:56:54</time>
      </trkpt>
      <trkpt lat="28.41814" lon="-14.01388">
        <ele>245.2</ele>
        <time>2021-07-04 19:56:55</time>
      </trkpt>
      <trkpt lat="28.41805" lon="-14.01387">
        <ele>245</ele>
        <time>2021-07-04 19:56:56</time>
      </trkpt>
      <trkpt lat="28.41795" lon="-14.01387">
        <ele>244.6</ele>
        <time>2021-07-04 19:56:57</time>
      </trkpt>
      <trkpt lat="28.41785" lon="-14.01386">
        <ele>244.2</ele>
        <time>2021-07-04 19:56:58</time>
      </trkpt>
      <trkpt lat="28.41775" lon="-14.01386">
        <ele>243.8</ele>
        <time>2021-07-04 19:56:59</time>
      </trkpt>
      <trkpt lat="28.41765" lon="-14.01386">
        <ele>243.4</ele>
        <time>2021-07-04 19:57:00</time>
      </trkpt>
      <trkpt lat="28.41755" lon="-14.01386">
        <ele>243</ele>
        <time>2021-07-04 19:57:01</time>
      </trkpt>
      <trkpt lat="28.41744" lon="-14.01385">
        <ele>242.6</ele>
        <time>2021-07-04 19:57:02</time>
      </trkpt>
      <trkpt lat="28.41735" lon="-14.01386">
        <ele>242.2</ele>
        <time>2021-07-04 19:57:03</time>
      </trkpt>
      <trkpt lat="28.41725" lon="-14.01386">
        <ele>241.6</ele>
        <time>2021-07-04 19:57:04</time>
      </trkpt>
      <trkpt lat="28.41716" lon="-14.01386">
        <ele>241.2</ele>
        <time>2021-07-04 19:57:05</time>
      </trkpt>
      <trkpt lat="28.41706" lon="-14.01388">
        <ele>240.4</ele>
        <time>2021-07-04 19:57:06</time>
      </trkpt>
      <trkpt lat="28.41697" lon="-14.0139">
        <ele>239.8</ele>
        <time>2021-07-04 19:57:07</time>
      </trkpt>
      <trkpt lat="28.41688" lon="-14.01393">
        <ele>239.4</ele>
        <time>2021-07-04 19:57:08</time>
      </trkpt>
      <trkpt lat="28.41679" lon="-14.01397">
        <ele>238.8</ele>
        <time>2021-07-04 19:57:09</time>
      </trkpt>
      <trkpt lat="28.4167" lon="-14.01402">
        <ele>238.2</ele>
        <time>2021-07-04 19:57:10</time>
      </trkpt>
      <trkpt lat="28.41661" lon="-14.01406">
        <ele>237.8</ele>
        <time>2021-07-04 19:57:11</time>
      </trkpt>
      <trkpt lat="28.41653" lon="-14.01411">
        <ele>237.4</ele>
        <time>2021-07-04 19:57:12</time>
      </trkpt>
      <trkpt lat="28.41644" lon="-14.01416">
        <ele>237</ele>
        <time>2021-07-04 19:57:13</time>
      </trkpt>
      <trkpt lat="28.41635" lon="-14.01421">
        <ele>236.6</ele>
        <time>2021-07-04 19:57:14</time>
      </trkpt>
      <trkpt lat="28.41626" lon="-14.01425">
        <ele>236.4</ele>
        <time>2021-07-04 19:57:15</time>
      </trkpt>
      <trkpt lat="28.41617" lon="-14.01429">
        <ele>236</ele>
        <time>2021-07-04 19:57:16</time>
      </trkpt>
      <trkpt lat="28.41607" lon="-14.01432">
        <ele>235.4</ele>
        <time>2021-07-04 19:57:17</time>
      </trkpt>
      <trkpt lat="28.41597" lon="-14.01434">
        <ele>235</ele>
        <time>2021-07-04 19:57:18</time>
      </trkpt>
      <trkpt lat="28.41587" lon="-14.01436">
        <ele>234.4</ele>
        <time>2021-07-04 19:57:19</time>
      </trkpt>
      <trkpt lat="28.41577" lon="-14.01437">
        <ele>234</ele>
        <time>2021-07-04 19:57:20</time>
      </trkpt>
      <trkpt lat="28.41566" lon="-14.01438">
        <ele>233.6</ele>
        <time>2021-07-04 19:57:21</time>
      </trkpt>
      <trkpt lat="28.41556" lon="-14.01439">
        <ele>233.2</ele>
        <time>2021-07-04 19:57:22</time>
      </trkpt>
      <trkpt lat="28.41547" lon="-14.0144">
        <ele>232.8</ele>
        <time>2021-07-04 19:57:23</time>
      </trkpt>
      <trkpt lat="28.41537" lon="-14.01441">
        <ele>232.4</ele>
        <time>2021-07-04 19:57:24</time>
      </trkpt>
      <trkpt lat="28.41527" lon="-14.01443">
        <ele>232.2</ele>
        <time>2021-07-04 19:57:25</time>
      </trkpt>
      <trkpt lat="28.41518" lon="-14.01443">
        <ele>232</ele>
        <time>2021-07-04 19:57:26</time>
      </trkpt>
      <trkpt lat="28.41507" lon="-14.01444">
        <ele>232</ele>
        <time>2021-07-04 19:57:27</time>
      </trkpt>
      <trkpt lat="28.41498" lon="-14.01445">
        <ele>231.6</ele>
        <time>2021-07-04 19:57:28</time>
      </trkpt>
      <trkpt lat="28.41488" lon="-14.01446">
        <ele>231.6</ele>
        <time>2021-07-04 19:57:29</time>
      </trkpt>
      <trkpt lat="28.41478" lon="-14.01447">
        <ele>231.4</ele>
        <time>2021-07-04 19:57:30</time>
      </trkpt>
      <trkpt lat="28.41468" lon="-14.01447">
        <ele>231.4</ele>
        <time>2021-07-04 19:57:31</time>
      </trkpt>
      <trkpt lat="28.41458" lon="-14.01448">
        <ele>231.2</ele>
        <time>2021-07-04 19:57:32</time>
      </trkpt>
      <trkpt lat="28.41448" lon="-14.01449">
        <ele>231.2</ele>
        <time>2021-07-04 19:57:33</time>
      </trkpt>
      <trkpt lat="28.41439" lon="-14.0145">
        <ele>230.8</ele>
        <time>2021-07-04 19:57:34</time>
      </trkpt>
      <trkpt lat="28.4143" lon="-14.01451">
        <ele>230.8</ele>
        <time>2021-07-04 19:57:35</time>
      </trkpt>
      <trkpt lat="28.41421" lon="-14.01452">
        <ele>230.8</ele>
        <time>2021-07-04 19:57:36</time>
      </trkpt>
      <trkpt lat="28.41412" lon="-14.01453">
        <ele>230.8</ele>
        <time>2021-07-04 19:57:37</time>
      </trkpt>
      <trkpt lat="28.41403" lon="-14.01453">
        <ele>230.8</ele>
        <time>2021-07-04 19:57:38</time>
      </trkpt>
      <trkpt lat="28.41395" lon="-14.01454">
        <ele>230.8</ele>
        <time>2021-07-04 19:57:39</time>
      </trkpt>
      <trkpt lat="28.41387" lon="-14.01455">
        <ele>230.8</ele>
        <time>2021-07-04 19:57:40</time>
      </trkpt>
      <trkpt lat="28.41379" lon="-14.01455">
        <ele>231.2</ele>
        <time>2021-07-04 19:57:41</time>
      </trkpt>
      <trkpt lat="28.41371" lon="-14.01456">
        <ele>231.2</ele>
        <time>2021-07-04 19:57:42</time>
      </trkpt>
      <trkpt lat="28.41363" lon="-14.01457">
        <ele>231.6</ele>
        <time>2021-07-04 19:57:43</time>
      </trkpt>
      <trkpt lat="28.41355" lon="-14.01458">
        <ele>231.8</ele>
        <time>2021-07-04 19:57:44</time>
      </trkpt>
      <trkpt lat="28.41348" lon="-14.01459">
        <ele>232.2</ele>
        <time>2021-07-04 19:57:45</time>
      </trkpt>
      <trkpt lat="28.41341" lon="-14.01459">
        <ele>232.4</ele>
        <time>2021-07-04 19:57:46</time>
      </trkpt>
      <trkpt lat="28.41334" lon="-14.0146">
        <ele>232.8</ele>
        <time>2021-07-04 19:57:47</time>
      </trkpt>
      <trkpt lat="28.41328" lon="-14.01461">
        <ele>233</ele>
        <time>2021-07-04 19:57:48</time>
      </trkpt>
      <trkpt lat="28.41321" lon="-14.01461">
        <ele>233.4</ele>
        <time>2021-07-04 19:57:49</time>
      </trkpt>
      <trkpt lat="28.41315" lon="-14.01462">
        <ele>233.8</ele>
        <time>2021-07-04 19:57:50</time>
      </trkpt>
      <trkpt lat="28.41309" lon="-14.01462">
        <ele>234</ele>
        <time>2021-07-04 19:57:51</time>
      </trkpt>
      <trkpt lat="28.41303" lon="-14.01463">
        <ele>234.2</ele>
        <time>2021-07-04 19:57:52</time>
      </trkpt>
      <trkpt lat="28.41297" lon="-14.01463">
        <ele>234.4</ele>
        <time>2021-07-04 19:57:53</time>
      </trkpt>
      <trkpt lat="28.41291" lon="-14.01464">
        <ele>234.6</ele>
        <time>2021-07-04 19:57:54</time>
      </trkpt>
      <trkpt lat="28.41285" lon="-14.01464">
        <ele>235</ele>
        <time>2021-07-04 19:57:55</time>
      </trkpt>
      <trkpt lat="28.4128" lon="-14.01465">
        <ele>235.2</ele>
        <time>2021-07-04 19:57:56</time>
      </trkpt>
      <trkpt lat="28.41274" lon="-14.01466">
        <ele>235.4</ele>
        <time>2021-07-04 19:57:57</time>
      </trkpt>
      <trkpt lat="28.41269" lon="-14.01466">
        <ele>235.6</ele>
        <time>2021-07-04 19:57:58</time>
      </trkpt>
      <trkpt lat="28.41263" lon="-14.01467">
        <ele>235.8</ele>
        <time>2021-07-04 19:57:59</time>
      </trkpt>
      <trkpt lat="28.41258" lon="-14.01467">
        <ele>236</ele>
        <time>2021-07-04 19:58:00</time>
      </trkpt>
      <trkpt lat="28.41252" lon="-14.01468">
        <ele>236.4</ele>
        <time>2021-07-04 19:58:01</time>
      </trkpt>
      <trkpt lat="28.41247" lon="-14.01468">
        <ele>236.4</ele>
        <time>2021-07-04 19:58:02</time>
      </trkpt>
      <trkpt lat="28.41242" lon="-14.01468">
        <ele>236.6</ele>
        <time>2021-07-04 19:58:03</time>
      </trkpt>
      <trkpt lat="28.41236" lon="-14.01469">
        <ele>236.6</ele>
        <time>2021-07-04 19:58:04</time>
      </trkpt>
      <trkpt lat="28.41231" lon="-14.01469">
        <ele>237</ele>
        <time>2021-07-04 19:58:05</time>
      </trkpt>
      <trkpt lat="28.41226" lon="-14.0147">
        <ele>237</ele>
        <time>2021-07-04 19:58:06</time>
      </trkpt>
      <trkpt lat="28.4122" lon="-14.01471">
        <ele>237.4</ele>
        <time>2021-07-04 19:58:07</time>
      </trkpt>
      <trkpt lat="28.41215" lon="-14.01471">
        <ele>236.6</ele>
        <time>2021-07-04 19:58:08</time>
      </trkpt>
      <trkpt lat="28.4121" lon="-14.01471">
        <ele>237.2</ele>
        <time>2021-07-04 19:58:09</time>
      </trkpt>
      <trkpt lat="28.41205" lon="-14.01472">
        <ele>237.4</ele>
        <time>2021-07-04 19:58:10</time>
      </trkpt>
      <trkpt lat="28.412" lon="-14.01473">
        <ele>237.4</ele>
        <time>2021-07-04 19:58:11</time>
      </trkpt>
      <trkpt lat="28.41194" lon="-14.01473">
        <ele>237.6</ele>
        <time>2021-07-04 19:58:12</time>
      </trkpt>
      <trkpt lat="28.41189" lon="-14.01474">
        <ele>237.6</ele>
        <time>2021-07-04 19:58:13</time>
      </trkpt>
      <trkpt lat="28.41184" lon="-14.01474">
        <ele>237.6</ele>
        <time>2021-07-04 19:58:14</time>
      </trkpt>
      <trkpt lat="28.41178" lon="-14.01474">
        <ele>237.6</ele>
        <time>2021-07-04 19:58:15</time>
      </trkpt>
      <trkpt lat="28.41173" lon="-14.01475">
        <ele>237.6</ele>
        <time>2021-07-04 19:58:16</time>
      </trkpt>
      <trkpt lat="28.41167" lon="-14.01475">
        <ele>238</ele>
        <time>2021-07-04 19:58:17</time>
      </trkpt>
      <trkpt lat="28.41162" lon="-14.01476">
        <ele>238</ele>
        <time>2021-07-04 19:58:18</time>
      </trkpt>
      <trkpt lat="28.41156" lon="-14.01476">
        <ele>238.2</ele>
        <time>2021-07-04 19:58:19</time>
      </trkpt>
      <trkpt lat="28.41151" lon="-14.01477">
        <ele>238.2</ele>
        <time>2021-07-04 19:58:20</time>
      </trkpt>
      <trkpt lat="28.41145" lon="-14.01478">
        <ele>238.2</ele>
        <time>2021-07-04 19:58:21</time>
      </trkpt>
      <trkpt lat="28.41139" lon="-14.01478">
        <ele>238.4</ele>
        <time>2021-07-04 19:58:22</time>
      </trkpt>
      <trkpt lat="28.41133" lon="-14.01479">
        <ele>238.4</ele>
        <time>2021-07-04 19:58:23</time>
      </trkpt>
      <trkpt lat="28.41128" lon="-14.0148">
        <ele>238.4</ele>
        <time>2021-07-04 19:58:24</time>
      </trkpt>
      <trkpt lat="28.41122" lon="-14.0148">
        <ele>238.4</ele>
        <time>2021-07-04 19:58:25</time>
      </trkpt>
      <trkpt lat="28.41116" lon="-14.0148">
        <ele>238.4</ele>
        <time>2021-07-04 19:58:26</time>
      </trkpt>
      <trkpt lat="28.4111" lon="-14.01481">
        <ele>238.4</ele>
        <time>2021-07-04 19:58:27</time>
      </trkpt>
      <trkpt lat="28.41104" lon="-14.01481">
        <ele>238.4</ele>
        <time>2021-07-04 19:58:28</time>
      </trkpt>
      <trkpt lat="28.41099" lon="-14.01481">
        <ele>238.4</ele>
        <time>2021-07-04 19:58:29</time>
      </trkpt>
      <trkpt lat="28.41093" lon="-14.01482">
        <ele>238.4</ele>
        <time>2021-07-04 19:58:30</time>
      </trkpt>
      <trkpt lat="28.41087" lon="-14.01483">
        <ele>238.6</ele>
        <time>2021-07-04 19:58:31</time>
      </trkpt>
      <trkpt lat="28.41082" lon="-14.01483">
        <ele>238.6</ele>
        <time>2021-07-04 19:58:32</time>
      </trkpt>
      <trkpt lat="28.41076" lon="-14.01484">
        <ele>238.8</ele>
        <time>2021-07-04 19:58:33</time>
      </trkpt>
      <trkpt lat="28.4107" lon="-14.01485">
        <ele>238.8</ele>
        <time>2021-07-04 19:58:34</time>
      </trkpt>
      <trkpt lat="28.41065" lon="-14.01485">
        <ele>239.2</ele>
        <time>2021-07-04 19:58:35</time>
      </trkpt>
      <trkpt lat="28.41059" lon="-14.01485">
        <ele>239.2</ele>
        <time>2021-07-04 19:58:36</time>
      </trkpt>
      <trkpt lat="28.41053" lon="-14.01485">
        <ele>239.2</ele>
        <time>2021-07-04 19:58:37</time>
      </trkpt>
      <trkpt lat="28.41047" lon="-14.01486">
        <ele>239.4</ele>
        <time>2021-07-04 19:58:38</time>
      </trkpt>
      <trkpt lat="28.41042" lon="-14.01487">
        <ele>239.4</ele>
        <time>2021-07-04 19:58:39</time>
      </trkpt>
      <trkpt lat="28.41036" lon="-14.01487">
        <ele>239.6</ele>
        <time>2021-07-04 19:58:40</time>
      </trkpt>
      <trkpt lat="28.41031" lon="-14.01488">
        <ele>239.6</ele>
        <time>2021-07-04 19:58:41</time>
      </trkpt>
      <trkpt lat="28.41025" lon="-14.01488">
        <ele>240</ele>
        <time>2021-07-04 19:58:42</time>
      </trkpt>
      <trkpt lat="28.4102" lon="-14.01489">
        <ele>240</ele>
        <time>2021-07-04 19:58:43</time>
      </trkpt>
      <trkpt lat="28.41014" lon="-14.0149">
        <ele>240.2</ele>
        <time>2021-07-04 19:58:44</time>
      </trkpt>
      <trkpt lat="28.41008" lon="-14.0149">
        <ele>240</ele>
        <time>2021-07-04 19:58:45</time>
      </trkpt>
      <trkpt lat="28.41003" lon="-14.0149">
        <ele>240</ele>
        <time>2021-07-04 19:58:46</time>
      </trkpt>
      <trkpt lat="28.40998" lon="-14.01491">
        <ele>240.2</ele>
        <time>2021-07-04 19:58:47</time>
      </trkpt>
      <trkpt lat="28.40993" lon="-14.01491">
        <ele>240.4</ele>
        <time>2021-07-04 19:58:48</time>
      </trkpt>
      <trkpt lat="28.40987" lon="-14.01492">
        <ele>240.4</ele>
        <time>2021-07-04 19:58:49</time>
      </trkpt>
      <trkpt lat="28.40982" lon="-14.01492">
        <ele>240.8</ele>
        <time>2021-07-04 19:58:50</time>
      </trkpt>
      <trkpt lat="28.40976" lon="-14.01493">
        <ele>240.8</ele>
        <time>2021-07-04 19:58:51</time>
      </trkpt>
      <trkpt lat="28.40971" lon="-14.01493">
        <ele>241</ele>
        <time>2021-07-04 19:58:52</time>
      </trkpt>
      <trkpt lat="28.40966" lon="-14.01494">
        <ele>241</ele>
        <time>2021-07-04 19:58:53</time>
      </trkpt>
      <trkpt lat="28.4096" lon="-14.01494">
        <ele>241</ele>
        <time>2021-07-04 19:58:54</time>
      </trkpt>
      <trkpt lat="28.40955" lon="-14.01495">
        <ele>241</ele>
        <time>2021-07-04 19:58:55</time>
      </trkpt>
      <trkpt lat="28.4095" lon="-14.01496">
        <ele>241</ele>
        <time>2021-07-04 19:58:56</time>
      </trkpt>
      <trkpt lat="28.40944" lon="-14.01496">
        <ele>241</ele>
        <time>2021-07-04 19:58:57</time>
      </trkpt>
      <trkpt lat="28.40938" lon="-14.01496">
        <ele>241</ele>
        <time>2021-07-04 19:58:58</time>
      </trkpt>
      <trkpt lat="28.40933" lon="-14.01497">
        <ele>241.4</ele>
        <time>2021-07-04 19:58:59</time>
      </trkpt>
      <trkpt lat="28.40928" lon="-14.01497">
        <ele>241.4</ele>
        <time>2021-07-04 19:59:00</time>
      </trkpt>
      <trkpt lat="28.40922" lon="-14.01498">
        <ele>241.4</ele>
        <time>2021-07-04 19:59:01</time>
      </trkpt>
      <trkpt lat="28.40917" lon="-14.01498">
        <ele>241.4</ele>
        <time>2021-07-04 19:59:02</time>
      </trkpt>
      <trkpt lat="28.40911" lon="-14.01499">
        <ele>241.4</ele>
        <time>2021-07-04 19:59:03</time>
      </trkpt>
      <trkpt lat="28.40906" lon="-14.01499">
        <ele>241.4</ele>
        <time>2021-07-04 19:59:04</time>
      </trkpt>
      <trkpt lat="28.409" lon="-14.01499">
        <ele>241.6</ele>
        <time>2021-07-04 19:59:05</time>
      </trkpt>
      <trkpt lat="28.40894" lon="-14.015">
        <ele>241.6</ele>
        <time>2021-07-04 19:59:06</time>
      </trkpt>
      <trkpt lat="28.40888" lon="-14.015">
        <ele>241.8</ele>
        <time>2021-07-04 19:59:07</time>
      </trkpt>
      <trkpt lat="28.40882" lon="-14.015">
        <ele>241.8</ele>
        <time>2021-07-04 19:59:08</time>
      </trkpt>
      <trkpt lat="28.40876" lon="-14.01501">
        <ele>241.8</ele>
        <time>2021-07-04 19:59:09</time>
      </trkpt>
      <trkpt lat="28.4087" lon="-14.01502">
        <ele>241.8</ele>
        <time>2021-07-04 19:59:10</time>
      </trkpt>
      <trkpt lat="28.40865" lon="-14.01502">
        <ele>241.8</ele>
        <time>2021-07-04 19:59:11</time>
      </trkpt>
      <trkpt lat="28.40859" lon="-14.01503">
        <ele>241.6</ele>
        <time>2021-07-04 19:59:12</time>
      </trkpt>
      <trkpt lat="28.40852" lon="-14.01503">
        <ele>241.6</ele>
        <time>2021-07-04 19:59:13</time>
      </trkpt>
      <trkpt lat="28.40846" lon="-14.01504">
        <ele>241.2</ele>
        <time>2021-07-04 19:59:14</time>
      </trkpt>
      <trkpt lat="28.4084" lon="-14.01505">
        <ele>241.2</ele>
        <time>2021-07-04 19:59:15</time>
      </trkpt>
      <trkpt lat="28.40834" lon="-14.01505">
        <ele>241.2</ele>
        <time>2021-07-04 19:59:16</time>
      </trkpt>
      <trkpt lat="28.40827" lon="-14.01506">
        <ele>241.2</ele>
        <time>2021-07-04 19:59:17</time>
      </trkpt>
      <trkpt lat="28.40821" lon="-14.01506">
        <ele>241.2</ele>
        <time>2021-07-04 19:59:18</time>
      </trkpt>
      <trkpt lat="28.40815" lon="-14.01507">
        <ele>241</ele>
        <time>2021-07-04 19:59:19</time>
      </trkpt>
      <trkpt lat="28.40808" lon="-14.01507">
        <ele>241</ele>
        <time>2021-07-04 19:59:20</time>
      </trkpt>
      <trkpt lat="28.40802" lon="-14.01507">
        <ele>241</ele>
        <time>2021-07-04 19:59:21</time>
      </trkpt>
      <trkpt lat="28.40795" lon="-14.01508">
        <ele>241</ele>
        <time>2021-07-04 19:59:22</time>
      </trkpt>
      <trkpt lat="28.40789" lon="-14.01509">
        <ele>240.8</ele>
        <time>2021-07-04 19:59:23</time>
      </trkpt>
      <trkpt lat="28.40782" lon="-14.0151">
        <ele>240.8</ele>
        <time>2021-07-04 19:59:24</time>
      </trkpt>
      <trkpt lat="28.40775" lon="-14.01511">
        <ele>240.8</ele>
        <time>2021-07-04 19:59:25</time>
      </trkpt>
      <trkpt lat="28.40768" lon="-14.01511">
        <ele>240.8</ele>
        <time>2021-07-04 19:59:26</time>
      </trkpt>
      <trkpt lat="28.40761" lon="-14.01512">
        <ele>240.8</ele>
        <time>2021-07-04 19:59:27</time>
      </trkpt>
      <trkpt lat="28.40754" lon="-14.01512">
        <ele>240.8</ele>
        <time>2021-07-04 19:59:28</time>
      </trkpt>
      <trkpt lat="28.40747" lon="-14.01512">
        <ele>241</ele>
        <time>2021-07-04 19:59:29</time>
      </trkpt>
      <trkpt lat="28.4074" lon="-14.01513">
        <ele>241</ele>
        <time>2021-07-04 19:59:30</time>
      </trkpt>
      <trkpt lat="28.40733" lon="-14.01514">
        <ele>241</ele>
        <time>2021-07-04 19:59:31</time>
      </trkpt>
      <trkpt lat="28.40726" lon="-14.01514">
        <ele>241.2</ele>
        <time>2021-07-04 19:59:32</time>
      </trkpt>
      <trkpt lat="28.40718" lon="-14.01514">
        <ele>241.2</ele>
        <time>2021-07-04 19:59:33</time>
      </trkpt>
      <trkpt lat="28.40711" lon="-14.01515">
        <ele>241.2</ele>
        <time>2021-07-04 19:59:34</time>
      </trkpt>
      <trkpt lat="28.40704" lon="-14.01516">
        <ele>241.2</ele>
        <time>2021-07-04 19:59:35</time>
      </trkpt>
      <trkpt lat="28.40696" lon="-14.01516">
        <ele>241.4</ele>
        <time>2021-07-04 19:59:36</time>
      </trkpt>
      <trkpt lat="28.40689" lon="-14.01517">
        <ele>241.4</ele>
        <time>2021-07-04 19:59:37</time>
      </trkpt>
      <trkpt lat="28.40681" lon="-14.01517">
        <ele>241.4</ele>
        <time>2021-07-04 19:59:38</time>
      </trkpt>
      <trkpt lat="28.40674" lon="-14.01518">
        <ele>241.8</ele>
        <time>2021-07-04 19:59:39</time>
      </trkpt>
      <trkpt lat="28.40666" lon="-14.01518">
        <ele>241.8</ele>
        <time>2021-07-04 19:59:40</time>
      </trkpt>
      <trkpt lat="28.40658" lon="-14.01519">
        <ele>241.8</ele>
        <time>2021-07-04 19:59:41</time>
      </trkpt>
      <trkpt lat="28.40651" lon="-14.01519">
        <ele>241.8</ele>
        <time>2021-07-04 19:59:42</time>
      </trkpt>
      <trkpt lat="28.40643" lon="-14.0152">
        <ele>241.8</ele>
        <time>2021-07-04 19:59:43</time>
      </trkpt>
      <trkpt lat="28.40635" lon="-14.0152">
        <ele>241.8</ele>
        <time>2021-07-04 19:59:44</time>
      </trkpt>
      <trkpt lat="28.40628" lon="-14.01521">
        <ele>241.4</ele>
        <time>2021-07-04 19:59:45</time>
      </trkpt>
      <trkpt lat="28.4062" lon="-14.01522">
        <ele>241.4</ele>
        <time>2021-07-04 19:59:46</time>
      </trkpt>
      <trkpt lat="28.40613" lon="-14.01522">
        <ele>241.2</ele>
        <time>2021-07-04 19:59:47</time>
      </trkpt>
      <trkpt lat="28.40605" lon="-14.01523">
        <ele>241.2</ele>
        <time>2021-07-04 19:59:48</time>
      </trkpt>
      <trkpt lat="28.40597" lon="-14.01523">
        <ele>240.6</ele>
        <time>2021-07-04 19:59:49</time>
      </trkpt>
      <trkpt lat="28.4059" lon="-14.01524">
        <ele>240.6</ele>
        <time>2021-07-04 19:59:50</time>
      </trkpt>
      <trkpt lat="28.40583" lon="-14.01525">
        <ele>240.4</ele>
        <time>2021-07-04 19:59:51</time>
      </trkpt>
      <trkpt lat="28.40577" lon="-14.01525">
        <ele>240.4</ele>
        <time>2021-07-04 19:59:52</time>
      </trkpt>
      <trkpt lat="28.4057" lon="-14.01526">
        <ele>240.2</ele>
        <time>2021-07-04 19:59:53</time>
      </trkpt>
      <trkpt lat="28.40562" lon="-14.01527">
        <ele>240.2</ele>
        <time>2021-07-04 19:59:54</time>
      </trkpt>
      <trkpt lat="28.40555" lon="-14.01528">
        <ele>240.2</ele>
        <time>2021-07-04 19:59:55</time>
      </trkpt>
      <trkpt lat="28.40547" lon="-14.01528">
        <ele>240.2</ele>
        <time>2021-07-04 19:59:56</time>
      </trkpt>
      <trkpt lat="28.40539" lon="-14.01529">
        <ele>240.2</ele>
        <time>2021-07-04 19:59:57</time>
      </trkpt>
      <trkpt lat="28.40532" lon="-14.01529">
        <ele>240.2</ele>
        <time>2021-07-04 19:59:58</time>
      </trkpt>
      <trkpt lat="28.40524" lon="-14.0153">
        <ele>240.2</ele>
        <time>2021-07-04 19:59:59</time>
      </trkpt>
      <trkpt lat="28.40517" lon="-14.01531">
        <ele>240.2</ele>
        <time>2021-07-04 20:00:00</time>
      </trkpt>
      <trkpt lat="28.40509" lon="-14.01532">
        <ele>240.2</ele>
        <time>2021-07-04 20:00:01</time>
      </trkpt>
      <trkpt lat="28.40501" lon="-14.01532">
        <ele>240.4</ele>
        <time>2021-07-04 20:00:02</time>
      </trkpt>
      <trkpt lat="28.40493" lon="-14.01533">
        <ele>240.4</ele>
        <time>2021-07-04 20:00:03</time>
      </trkpt>
      <trkpt lat="28.40485" lon="-14.01534">
        <ele>240.6</ele>
        <time>2021-07-04 20:00:04</time>
      </trkpt>
      <trkpt lat="28.40476" lon="-14.01535">
        <ele>240.6</ele>
        <time>2021-07-04 20:00:05</time>
      </trkpt>
      <trkpt lat="28.40468" lon="-14.01536">
        <ele>241</ele>
        <time>2021-07-04 20:00:06</time>
      </trkpt>
      <trkpt lat="28.4046" lon="-14.01537">
        <ele>241</ele>
        <time>2021-07-04 20:00:07</time>
      </trkpt>
      <trkpt lat="28.40452" lon="-14.01538">
        <ele>241.2</ele>
        <time>2021-07-04 20:00:08</time>
      </trkpt>
      <trkpt lat="28.40444" lon="-14.01538">
        <ele>241</ele>
        <time>2021-07-04 20:00:09</time>
      </trkpt>
      <trkpt lat="28.40435" lon="-14.01539">
        <ele>241</ele>
        <time>2021-07-04 20:00:10</time>
      </trkpt>
      <trkpt lat="28.40428" lon="-14.01539">
        <ele>241.4</ele>
        <time>2021-07-04 20:00:11</time>
      </trkpt>
      <trkpt lat="28.4042" lon="-14.0154">
        <ele>241.4</ele>
        <time>2021-07-04 20:00:12</time>
      </trkpt>
      <trkpt lat="28.40413" lon="-14.01541">
        <ele>241.4</ele>
        <time>2021-07-04 20:00:13</time>
      </trkpt>
      <trkpt lat="28.40405" lon="-14.01541">
        <ele>241</ele>
        <time>2021-07-04 20:00:14</time>
      </trkpt>
      <trkpt lat="28.40397" lon="-14.01542">
        <ele>241</ele>
        <time>2021-07-04 20:00:15</time>
      </trkpt>
      <trkpt lat="28.40389" lon="-14.01543">
        <ele>241</ele>
        <time>2021-07-04 20:00:16</time>
      </trkpt>
      <trkpt lat="28.40381" lon="-14.01544">
        <ele>241</ele>
        <time>2021-07-04 20:00:17</time>
      </trkpt>
      <trkpt lat="28.40373" lon="-14.01544">
        <ele>241</ele>
        <time>2021-07-04 20:00:18</time>
      </trkpt>
      <trkpt lat="28.40365" lon="-14.01545">
        <ele>241</ele>
        <time>2021-07-04 20:00:19</time>
      </trkpt>
      <trkpt lat="28.40357" lon="-14.01545">
        <ele>241.4</ele>
        <time>2021-07-04 20:00:20</time>
      </trkpt>
      <trkpt lat="28.40348" lon="-14.01546">
        <ele>241.4</ele>
        <time>2021-07-04 20:00:21</time>
      </trkpt>
      <trkpt lat="28.4034" lon="-14.01546">
        <ele>241.4</ele>
        <time>2021-07-04 20:00:22</time>
      </trkpt>
      <trkpt lat="28.40331" lon="-14.01547">
        <ele>241.6</ele>
        <time>2021-07-04 20:00:23</time>
      </trkpt>
      <trkpt lat="28.40323" lon="-14.01547">
        <ele>241.6</ele>
        <time>2021-07-04 20:00:24</time>
      </trkpt>
      <trkpt lat="28.40314" lon="-14.01549">
        <ele>241.6</ele>
        <time>2021-07-04 20:00:25</time>
      </trkpt>
      <trkpt lat="28.40306" lon="-14.01549">
        <ele>241.6</ele>
        <time>2021-07-04 20:00:26</time>
      </trkpt>
      <trkpt lat="28.40297" lon="-14.0155">
        <ele>241.6</ele>
        <time>2021-07-04 20:00:27</time>
      </trkpt>
      <trkpt lat="28.40288" lon="-14.01551">
        <ele>241.6</ele>
        <time>2021-07-04 20:00:28</time>
      </trkpt>
      <trkpt lat="28.40279" lon="-14.01552">
        <ele>241.8</ele>
        <time>2021-07-04 20:00:29</time>
      </trkpt>
      <trkpt lat="28.40271" lon="-14.01553">
        <ele>241.8</ele>
        <time>2021-07-04 20:00:30</time>
      </trkpt>
      <trkpt lat="28.40262" lon="-14.01554">
        <ele>241.8</ele>
        <time>2021-07-04 20:00:31</time>
      </trkpt>
      <trkpt lat="28.40254" lon="-14.01555">
        <ele>241.8</ele>
        <time>2021-07-04 20:00:32</time>
      </trkpt>
      <trkpt lat="28.40245" lon="-14.01555">
        <ele>241.8</ele>
        <time>2021-07-04 20:00:33</time>
      </trkpt>
      <trkpt lat="28.40236" lon="-14.01555">
        <ele>241.8</ele>
        <time>2021-07-04 20:00:34</time>
      </trkpt>
      <trkpt lat="28.40227" lon="-14.01556">
        <ele>241.8</ele>
        <time>2021-07-04 20:00:35</time>
      </trkpt>
      <trkpt lat="28.40219" lon="-14.01557">
        <ele>241.8</ele>
        <time>2021-07-04 20:00:36</time>
      </trkpt>
      <trkpt lat="28.4021" lon="-14.01557">
        <ele>241.8</ele>
        <time>2021-07-04 20:00:37</time>
      </trkpt>
      <trkpt lat="28.40201" lon="-14.01558">
        <ele>241.8</ele>
        <time>2021-07-04 20:00:38</time>
      </trkpt>
      <trkpt lat="28.40191" lon="-14.01559">
        <ele>241.8</ele>
        <time>2021-07-04 20:00:39</time>
      </trkpt>
      <trkpt lat="28.40182" lon="-14.0156">
        <ele>241.6</ele>
        <time>2021-07-04 20:00:40</time>
      </trkpt>
      <trkpt lat="28.40172" lon="-14.01561">
        <ele>241.6</ele>
        <time>2021-07-04 20:00:41</time>
      </trkpt>
      <trkpt lat="28.40163" lon="-14.01561">
        <ele>241.2</ele>
        <time>2021-07-04 20:00:42</time>
      </trkpt>
      <trkpt lat="28.40153" lon="-14.01563">
        <ele>241.2</ele>
        <time>2021-07-04 20:00:43</time>
      </trkpt>
      <trkpt lat="28.40143" lon="-14.01564">
        <ele>241</ele>
        <time>2021-07-04 20:00:44</time>
      </trkpt>
      <trkpt lat="28.40133" lon="-14.01564">
        <ele>241</ele>
        <time>2021-07-04 20:00:45</time>
      </trkpt>
      <trkpt lat="28.40123" lon="-14.01565">
        <ele>241</ele>
        <time>2021-07-04 20:00:46</time>
      </trkpt>
      <trkpt lat="28.40114" lon="-14.01566">
        <ele>241</ele>
        <time>2021-07-04 20:00:47</time>
      </trkpt>
      <trkpt lat="28.40104" lon="-14.01567">
        <ele>240.8</ele>
        <time>2021-07-04 20:00:48</time>
      </trkpt>
      <trkpt lat="28.40094" lon="-14.01567">
        <ele>240.8</ele>
        <time>2021-07-04 20:00:49</time>
      </trkpt>
      <trkpt lat="28.40083" lon="-14.01568">
        <ele>240.8</ele>
        <time>2021-07-04 20:00:50</time>
      </trkpt>
      <trkpt lat="28.40073" lon="-14.01569">
        <ele>240.8</ele>
        <time>2021-07-04 20:00:51</time>
      </trkpt>
      <trkpt lat="28.40063" lon="-14.0157">
        <ele>241</ele>
        <time>2021-07-04 20:00:52</time>
      </trkpt>
      <trkpt lat="28.40053" lon="-14.0157">
        <ele>241</ele>
        <time>2021-07-04 20:00:53</time>
      </trkpt>
      <trkpt lat="28.40043" lon="-14.01572">
        <ele>241</ele>
        <time>2021-07-04 20:00:54</time>
      </trkpt>
      <trkpt lat="28.40033" lon="-14.01572">
        <ele>241</ele>
        <time>2021-07-04 20:00:55</time>
      </trkpt>
      <trkpt lat="28.40023" lon="-14.01573">
        <ele>241</ele>
        <time>2021-07-04 20:00:56</time>
      </trkpt>
      <trkpt lat="28.40013" lon="-14.01574">
        <ele>241.2</ele>
        <time>2021-07-04 20:00:57</time>
      </trkpt>
      <trkpt lat="28.40003" lon="-14.01575">
        <ele>241.2</ele>
        <time>2021-07-04 20:00:58</time>
      </trkpt>
      <trkpt lat="28.39993" lon="-14.01576">
        <ele>241.2</ele>
        <time>2021-07-04 20:00:59</time>
      </trkpt>
      <trkpt lat="28.39983" lon="-14.01577">
        <ele>241.2</ele>
        <time>2021-07-04 20:01:00</time>
      </trkpt>
      <trkpt lat="28.39973" lon="-14.01578">
        <ele>241.2</ele>
        <time>2021-07-04 20:01:01</time>
      </trkpt>
      <trkpt lat="28.39963" lon="-14.01579">
        <ele>241.2</ele>
        <time>2021-07-04 20:01:02</time>
      </trkpt>
      <trkpt lat="28.39953" lon="-14.0158">
        <ele>241.2</ele>
        <time>2021-07-04 20:01:03</time>
      </trkpt>
      <trkpt lat="28.39943" lon="-14.01581">
        <ele>241.2</ele>
        <time>2021-07-04 20:01:04</time>
      </trkpt>
      <trkpt lat="28.39932" lon="-14.01582">
        <ele>241.2</ele>
        <time>2021-07-04 20:01:05</time>
      </trkpt>
      <trkpt lat="28.39922" lon="-14.01583">
        <ele>241.2</ele>
        <time>2021-07-04 20:01:06</time>
      </trkpt>
      <trkpt lat="28.39912" lon="-14.01584">
        <ele>241.2</ele>
        <time>2021-07-04 20:01:07</time>
      </trkpt>
      <trkpt lat="28.39902" lon="-14.01585">
        <ele>241.2</ele>
        <time>2021-07-04 20:01:08</time>
      </trkpt>
      <trkpt lat="28.39892" lon="-14.01586">
        <ele>241.2</ele>
        <time>2021-07-04 20:01:09</time>
      </trkpt>
      <trkpt lat="28.39882" lon="-14.01587">
        <ele>241.2</ele>
        <time>2021-07-04 20:01:10</time>
      </trkpt>
      <trkpt lat="28.39871" lon="-14.01588">
        <ele>241.2</ele>
        <time>2021-07-04 20:01:11</time>
      </trkpt>
      <trkpt lat="28.39861" lon="-14.01588">
        <ele>241.2</ele>
        <time>2021-07-04 20:01:12</time>
      </trkpt>
      <trkpt lat="28.39851" lon="-14.01589">
        <ele>241.2</ele>
        <time>2021-07-04 20:01:13</time>
      </trkpt>
      <trkpt lat="28.39841" lon="-14.0159">
        <ele>241.2</ele>
        <time>2021-07-04 20:01:14</time>
      </trkpt>
      <trkpt lat="28.39831" lon="-14.01591">
        <ele>241.2</ele>
        <time>2021-07-04 20:01:15</time>
      </trkpt>
      <trkpt lat="28.39821" lon="-14.01591">
        <ele>241.4</ele>
        <time>2021-07-04 20:01:16</time>
      </trkpt>
      <trkpt lat="28.39811" lon="-14.01592">
        <ele>241.4</ele>
        <time>2021-07-04 20:01:17</time>
      </trkpt>
      <trkpt lat="28.39801" lon="-14.01593">
        <ele>241.4</ele>
        <time>2021-07-04 20:01:18</time>
      </trkpt>
      <trkpt lat="28.39791" lon="-14.01594">
        <ele>241.4</ele>
        <time>2021-07-04 20:01:19</time>
      </trkpt>
      <trkpt lat="28.39781" lon="-14.01594">
        <ele>241.4</ele>
        <time>2021-07-04 20:01:20</time>
      </trkpt>
      <trkpt lat="28.39771" lon="-14.01595">
        <ele>241.4</ele>
        <time>2021-07-04 20:01:21</time>
      </trkpt>
      <trkpt lat="28.39761" lon="-14.01596">
        <ele>241.4</ele>
        <time>2021-07-04 20:01:22</time>
      </trkpt>
      <trkpt lat="28.39752" lon="-14.01597">
        <ele>241.4</ele>
        <time>2021-07-04 20:01:23</time>
      </trkpt>
      <trkpt lat="28.39742" lon="-14.01598">
        <ele>241.6</ele>
        <time>2021-07-04 20:01:24</time>
      </trkpt>
      <trkpt lat="28.39731" lon="-14.01599">
        <ele>241.6</ele>
        <time>2021-07-04 20:01:25</time>
      </trkpt>
      <trkpt lat="28.39721" lon="-14.016">
        <ele>241.6</ele>
        <time>2021-07-04 20:01:26</time>
      </trkpt>
      <trkpt lat="28.39711" lon="-14.016">
        <ele>241.6</ele>
        <time>2021-07-04 20:01:27</time>
      </trkpt>
      <trkpt lat="28.39701" lon="-14.01602">
        <ele>241.4</ele>
        <time>2021-07-04 20:01:28</time>
      </trkpt>
      <trkpt lat="28.39691" lon="-14.01602">
        <ele>241.4</ele>
        <time>2021-07-04 20:01:29</time>
      </trkpt>
      <trkpt lat="28.39681" lon="-14.01604">
        <ele>241.4</ele>
        <time>2021-07-04 20:01:30</time>
      </trkpt>
      <trkpt lat="28.39671" lon="-14.01604">
        <ele>241.4</ele>
        <time>2021-07-04 20:01:31</time>
      </trkpt>
      <trkpt lat="28.39661" lon="-14.01605">
        <ele>241.4</ele>
        <time>2021-07-04 20:01:32</time>
      </trkpt>
      <trkpt lat="28.39652" lon="-14.01606">
        <ele>241.4</ele>
        <time>2021-07-04 20:01:33</time>
      </trkpt>
      <trkpt lat="28.39642" lon="-14.01607">
        <ele>241.4</ele>
        <time>2021-07-04 20:01:34</time>
      </trkpt>
      <trkpt lat="28.39633" lon="-14.01608">
        <ele>241.8</ele>
        <time>2021-07-04 20:01:35</time>
      </trkpt>
      <trkpt lat="28.39624" lon="-14.01608">
        <ele>242</ele>
        <time>2021-07-04 20:01:36</time>
      </trkpt>
      <trkpt lat="28.39616" lon="-14.01609">
        <ele>242.4</ele>
        <time>2021-07-04 20:01:37</time>
      </trkpt>
      <trkpt lat="28.39607" lon="-14.0161">
        <ele>242.8</ele>
        <time>2021-07-04 20:01:38</time>
      </trkpt>
      <trkpt lat="28.39599" lon="-14.0161">
        <ele>243.2</ele>
        <time>2021-07-04 20:01:39</time>
      </trkpt>
      <trkpt lat="28.39591" lon="-14.01611">
        <ele>243.8</ele>
        <time>2021-07-04 20:01:40</time>
      </trkpt>
      <trkpt lat="28.39583" lon="-14.01611">
        <ele>244.2</ele>
        <time>2021-07-04 20:01:41</time>
      </trkpt>
      <trkpt lat="28.39576" lon="-14.01612">
        <ele>244.6</ele>
        <time>2021-07-04 20:01:42</time>
      </trkpt>
      <trkpt lat="28.39569" lon="-14.01613">
        <ele>245</ele>
        <time>2021-07-04 20:01:43</time>
      </trkpt>
      <trkpt lat="28.39561" lon="-14.01614">
        <ele>245.4</ele>
        <time>2021-07-04 20:01:44</time>
      </trkpt>
      <trkpt lat="28.39554" lon="-14.01614">
        <ele>245.8</ele>
        <time>2021-07-04 20:01:45</time>
      </trkpt>
      <trkpt lat="28.39547" lon="-14.01615">
        <ele>246.4</ele>
        <time>2021-07-04 20:01:46</time>
      </trkpt>
      <trkpt lat="28.39539" lon="-14.01615">
        <ele>246.6</ele>
        <time>2021-07-04 20:01:47</time>
      </trkpt>
      <trkpt lat="28.39532" lon="-14.01616">
        <ele>247</ele>
        <time>2021-07-04 20:01:48</time>
      </trkpt>
      <trkpt lat="28.39524" lon="-14.01617">
        <ele>247.2</ele>
        <time>2021-07-04 20:01:49</time>
      </trkpt>
      <trkpt lat="28.39517" lon="-14.01618">
        <ele>247.6</ele>
        <time>2021-07-04 20:01:50</time>
      </trkpt>
      <trkpt lat="28.39509" lon="-14.01619">
        <ele>247.8</ele>
        <time>2021-07-04 20:01:51</time>
      </trkpt>
      <trkpt lat="28.39502" lon="-14.01619">
        <ele>247.8</ele>
        <time>2021-07-04 20:01:52</time>
      </trkpt>
      <trkpt lat="28.39494" lon="-14.0162">
        <ele>247.8</ele>
        <time>2021-07-04 20:01:53</time>
      </trkpt>
      <trkpt lat="28.39487" lon="-14.0162">
        <ele>247.8</ele>
        <time>2021-07-04 20:01:54</time>
      </trkpt>
      <trkpt lat="28.39478" lon="-14.01621">
        <ele>247.8</ele>
        <time>2021-07-04 20:01:55</time>
      </trkpt>
      <trkpt lat="28.3947" lon="-14.01622">
        <ele>247.8</ele>
        <time>2021-07-04 20:01:56</time>
      </trkpt>
      <trkpt lat="28.39461" lon="-14.01623">
        <ele>247.4</ele>
        <time>2021-07-04 20:01:57</time>
      </trkpt>
      <trkpt lat="28.39451" lon="-14.01624">
        <ele>247.2</ele>
        <time>2021-07-04 20:01:58</time>
      </trkpt>
      <trkpt lat="28.39442" lon="-14.01625">
        <ele>246.8</ele>
        <time>2021-07-04 20:01:59</time>
      </trkpt>
      <trkpt lat="28.39432" lon="-14.01626">
        <ele>246.6</ele>
        <time>2021-07-04 20:02:00</time>
      </trkpt>
      <trkpt lat="28.39422" lon="-14.01627">
        <ele>246.2</ele>
        <time>2021-07-04 20:02:01</time>
      </trkpt>
      <trkpt lat="28.39413" lon="-14.01628">
        <ele>246</ele>
        <time>2021-07-04 20:02:02</time>
      </trkpt>
      <trkpt lat="28.39404" lon="-14.01629">
        <ele>245.8</ele>
        <time>2021-07-04 20:02:03</time>
      </trkpt>
      <trkpt lat="28.39394" lon="-14.0163">
        <ele>245.8</ele>
        <time>2021-07-04 20:02:04</time>
      </trkpt>
      <trkpt lat="28.39385" lon="-14.01631">
        <ele>245.8</ele>
        <time>2021-07-04 20:02:05</time>
      </trkpt>
      <trkpt lat="28.39376" lon="-14.01632">
        <ele>245.8</ele>
        <time>2021-07-04 20:02:06</time>
      </trkpt>
      <trkpt lat="28.39366" lon="-14.01634">
        <ele>245.4</ele>
        <time>2021-07-04 20:02:07</time>
      </trkpt>
      <trkpt lat="28.39357" lon="-14.01635">
        <ele>245.4</ele>
        <time>2021-07-04 20:02:08</time>
      </trkpt>
      <trkpt lat="28.39348" lon="-14.01637">
        <ele>245.2</ele>
        <time>2021-07-04 20:02:09</time>
      </trkpt>
      <trkpt lat="28.39339" lon="-14.01639">
        <ele>245.2</ele>
        <time>2021-07-04 20:02:10</time>
      </trkpt>
      <trkpt lat="28.39329" lon="-14.0164">
        <ele>245.2</ele>
        <time>2021-07-04 20:02:11</time>
      </trkpt>
      <trkpt lat="28.39319" lon="-14.01642">
        <ele>244.8</ele>
        <time>2021-07-04 20:02:12</time>
      </trkpt>
      <trkpt lat="28.39309" lon="-14.01644">
        <ele>244.6</ele>
        <time>2021-07-04 20:02:13</time>
      </trkpt>
      <trkpt lat="28.39299" lon="-14.01646">
        <ele>244.2</ele>
        <time>2021-07-04 20:02:14</time>
      </trkpt>
      <trkpt lat="28.39288" lon="-14.01648">
        <ele>244</ele>
        <time>2021-07-04 20:02:15</time>
      </trkpt>
      <trkpt lat="28.39278" lon="-14.0165">
        <ele>243.6</ele>
        <time>2021-07-04 20:02:16</time>
      </trkpt>
      <trkpt lat="28.39267" lon="-14.01652">
        <ele>243</ele>
        <time>2021-07-04 20:02:17</time>
      </trkpt>
      <trkpt lat="28.39257" lon="-14.01654">
        <ele>242.2</ele>
        <time>2021-07-04 20:02:18</time>
      </trkpt>
      <trkpt lat="28.39247" lon="-14.01657">
        <ele>241.8</ele>
        <time>2021-07-04 20:02:19</time>
      </trkpt>
      <trkpt lat="28.39236" lon="-14.01658">
        <ele>241.4</ele>
        <time>2021-07-04 20:02:20</time>
      </trkpt>
      <trkpt lat="28.39227" lon="-14.0166">
        <ele>240.8</ele>
        <time>2021-07-04 20:02:21</time>
      </trkpt>
      <trkpt lat="28.39217" lon="-14.01662">
        <ele>240.2</ele>
        <time>2021-07-04 20:02:22</time>
      </trkpt>
      <trkpt lat="28.39208" lon="-14.01664">
        <ele>239.8</ele>
        <time>2021-07-04 20:02:23</time>
      </trkpt>
      <trkpt lat="28.39198" lon="-14.01665">
        <ele>239.4</ele>
        <time>2021-07-04 20:02:24</time>
      </trkpt>
      <trkpt lat="28.39188" lon="-14.01667">
        <ele>239</ele>
        <time>2021-07-04 20:02:25</time>
      </trkpt>
      <trkpt lat="28.39178" lon="-14.01668">
        <ele>238.6</ele>
        <time>2021-07-04 20:02:26</time>
      </trkpt>
      <trkpt lat="28.39168" lon="-14.01668">
        <ele>238.4</ele>
        <time>2021-07-04 20:02:27</time>
      </trkpt>
      <trkpt lat="28.39158" lon="-14.01668">
        <ele>238</ele>
        <time>2021-07-04 20:02:28</time>
      </trkpt>
      <trkpt lat="28.39148" lon="-14.01667">
        <ele>237.8</ele>
        <time>2021-07-04 20:02:29</time>
      </trkpt>
      <trkpt lat="28.39139" lon="-14.01665">
        <ele>237.4</ele>
        <time>2021-07-04 20:02:30</time>
      </trkpt>
      <trkpt lat="28.39129" lon="-14.01662">
        <ele>237.2</ele>
        <time>2021-07-04 20:02:31</time>
      </trkpt>
      <trkpt lat="28.39119" lon="-14.01659">
        <ele>237.2</ele>
        <time>2021-07-04 20:02:32</time>
      </trkpt>
      <trkpt lat="28.3911" lon="-14.01655">
        <ele>236.8</ele>
        <time>2021-07-04 20:02:33</time>
      </trkpt>
      <trkpt lat="28.39101" lon="-14.0165">
        <ele>236.8</ele>
        <time>2021-07-04 20:02:34</time>
      </trkpt>
      <trkpt lat="28.39092" lon="-14.01645">
        <ele>236.4</ele>
        <time>2021-07-04 20:02:35</time>
      </trkpt>
      <trkpt lat="28.39083" lon="-14.01641">
        <ele>236.4</ele>
        <time>2021-07-04 20:02:36</time>
      </trkpt>
      <trkpt lat="28.39074" lon="-14.01636">
        <ele>236.4</ele>
        <time>2021-07-04 20:02:37</time>
      </trkpt>
      <trkpt lat="28.39066" lon="-14.01632">
        <ele>236.4</ele>
        <time>2021-07-04 20:02:38</time>
      </trkpt>
      <trkpt lat="28.39058" lon="-14.01627">
        <ele>236.6</ele>
        <time>2021-07-04 20:02:39</time>
      </trkpt>
      <trkpt lat="28.3905" lon="-14.01623">
        <ele>237</ele>
        <time>2021-07-04 20:02:40</time>
      </trkpt>
      <trkpt lat="28.39043" lon="-14.01618">
        <ele>237.2</ele>
        <time>2021-07-04 20:02:41</time>
      </trkpt>
      <trkpt lat="28.39036" lon="-14.01614">
        <ele>237.6</ele>
        <time>2021-07-04 20:02:42</time>
      </trkpt>
      <trkpt lat="28.39029" lon="-14.01611">
        <ele>238</ele>
        <time>2021-07-04 20:02:43</time>
      </trkpt>
      <trkpt lat="28.39023" lon="-14.01608">
        <ele>238.4</ele>
        <time>2021-07-04 20:02:44</time>
      </trkpt>
      <trkpt lat="28.39017" lon="-14.01605">
        <ele>238.8</ele>
        <time>2021-07-04 20:02:45</time>
      </trkpt>
      <trkpt lat="28.39011" lon="-14.01603">
        <ele>239.2</ele>
        <time>2021-07-04 20:02:46</time>
      </trkpt>
      <trkpt lat="28.39006" lon="-14.016">
        <ele>239.6</ele>
        <time>2021-07-04 20:02:47</time>
      </trkpt>
      <trkpt lat="28.39001" lon="-14.01599">
        <ele>240</ele>
        <time>2021-07-04 20:02:48</time>
      </trkpt>
      <trkpt lat="28.38996" lon="-14.01597">
        <ele>240.2</ele>
        <time>2021-07-04 20:02:49</time>
      </trkpt>
      <trkpt lat="28.38991" lon="-14.01596">
        <ele>240.6</ele>
        <time>2021-07-04 20:02:50</time>
      </trkpt>
      <trkpt lat="28.38986" lon="-14.01595">
        <ele>240.8</ele>
        <time>2021-07-04 20:02:51</time>
      </trkpt>
      <trkpt lat="28.38982" lon="-14.01594">
        <ele>241</ele>
        <time>2021-07-04 20:02:52</time>
      </trkpt>
      <trkpt lat="28.38977" lon="-14.01594">
        <ele>241.2</ele>
        <time>2021-07-04 20:02:53</time>
      </trkpt>
      <trkpt lat="28.38973" lon="-14.01593">
        <ele>241.2</ele>
        <time>2021-07-04 20:02:54</time>
      </trkpt>
      <trkpt lat="28.38969" lon="-14.01594">
        <ele>241.8</ele>
        <time>2021-07-04 20:02:55</time>
      </trkpt>
      <trkpt lat="28.38965" lon="-14.01594">
        <ele>241.8</ele>
        <time>2021-07-04 20:02:56</time>
      </trkpt>
      <trkpt lat="28.38962" lon="-14.01595">
        <ele>242.2</ele>
        <time>2021-07-04 20:02:57</time>
      </trkpt>
      <trkpt lat="28.38959" lon="-14.01596">
        <ele>242.4</ele>
        <time>2021-07-04 20:02:58</time>
      </trkpt>
      <trkpt lat="28.38956" lon="-14.01597">
        <ele>242.4</ele>
        <time>2021-07-04 20:02:59</time>
      </trkpt>
      <trkpt lat="28.38955" lon="-14.01597">
        <ele>242.6</ele>
        <time>2021-07-04 20:03:00</time>
      </trkpt>
      <trkpt lat="28.38952" lon="-14.01598">
        <ele>242.6</ele>
        <time>2021-07-04 20:03:01</time>
      </trkpt>
      <trkpt lat="28.38951" lon="-14.01598">
        <ele>242.6</ele>
        <time>2021-07-04 20:03:02</time>
      </trkpt>
      <trkpt lat="28.3895" lon="-14.01598">
        <ele>243</ele>
        <time>2021-07-04 20:03:03</time>
      </trkpt>
      <trkpt lat="28.3895" lon="-14.01598">
        <ele>243</ele>
        <time>2021-07-04 20:03:04</time>
      </trkpt>
      <trkpt lat="28.3895" lon="-14.01598">
        <ele>243</ele>
        <time>2021-07-04 20:03:05</time>
      </trkpt>
      <trkpt lat="28.38951" lon="-14.01598">
        <ele>243.2</ele>
        <time>2021-07-04 20:03:06</time>
      </trkpt>
      <trkpt lat="28.3895" lon="-14.01597">
        <ele>244.4</ele>
        <time>2021-07-04 20:03:07</time>
      </trkpt>
      <trkpt lat="28.38949" lon="-14.01596">
        <ele>244.2</ele>
        <time>2021-07-04 20:03:08</time>
      </trkpt>
      <trkpt lat="28.38948" lon="-14.01595">
        <ele>243.8</ele>
        <time>2021-07-04 20:03:09</time>
      </trkpt>
      <trkpt lat="28.38947" lon="-14.01594">
        <ele>243.4</ele>
        <time>2021-07-04 20:03:10</time>
      </trkpt>
      <trkpt lat="28.38947" lon="-14.01593">
        <ele>243.2</ele>
        <time>2021-07-04 20:03:11</time>
      </trkpt>
      <trkpt lat="28.38946" lon="-14.01591">
        <ele>243</ele>
        <time>2021-07-04 20:03:12</time>
      </trkpt>
      <trkpt lat="28.38946" lon="-14.01591">
        <ele>243</ele>
        <time>2021-07-04 20:03:13</time>
      </trkpt>
      <trkpt lat="28.38946" lon="-14.0159">
        <ele>243</ele>
        <time>2021-07-04 20:03:14</time>
      </trkpt>
      <trkpt lat="28.38946" lon="-14.01588">
        <ele>242.8</ele>
        <time>2021-07-04 20:03:15</time>
      </trkpt>
      <trkpt lat="28.38946" lon="-14.01586">
        <ele>242.8</ele>
        <time>2021-07-04 20:03:16</time>
      </trkpt>
      <trkpt lat="28.38946" lon="-14.01583">
        <ele>242.8</ele>
        <time>2021-07-04 20:03:17</time>
      </trkpt>
      <trkpt lat="28.38946" lon="-14.01581">
        <ele>242.8</ele>
        <time>2021-07-04 20:03:18</time>
      </trkpt>
      <trkpt lat="28.38947" lon="-14.01578">
        <ele>242.8</ele>
        <time>2021-07-04 20:03:19</time>
      </trkpt>
      <trkpt lat="28.38948" lon="-14.01576">
        <ele>242.8</ele>
        <time>2021-07-04 20:03:20</time>
      </trkpt>
      <trkpt lat="28.38949" lon="-14.01575">
        <ele>242.8</ele>
        <time>2021-07-04 20:03:21</time>
      </trkpt>
      <trkpt lat="28.3895" lon="-14.01572">
        <ele>242.8</ele>
        <time>2021-07-04 20:03:22</time>
      </trkpt>
      <trkpt lat="28.38951" lon="-14.0157">
        <ele>243</ele>
        <time>2021-07-04 20:03:23</time>
      </trkpt>
      <trkpt lat="28.38952" lon="-14.01567">
        <ele>243</ele>
        <time>2021-07-04 20:03:24</time>
      </trkpt>
      <trkpt lat="28.38952" lon="-14.01563">
        <ele>243</ele>
        <time>2021-07-04 20:03:25</time>
      </trkpt>
      <trkpt lat="28.38952" lon="-14.0156">
        <ele>243</ele>
        <time>2021-07-04 20:03:26</time>
      </trkpt>
      <trkpt lat="28.38952" lon="-14.01556">
        <ele>243.2</ele>
        <time>2021-07-04 20:03:27</time>
      </trkpt>
      <trkpt lat="28.38951" lon="-14.01552">
        <ele>243.2</ele>
        <time>2021-07-04 20:03:28</time>
      </trkpt>
      <trkpt lat="28.3895" lon="-14.01547">
        <ele>243.2</ele>
        <time>2021-07-04 20:03:29</time>
      </trkpt>
      <trkpt lat="28.38949" lon="-14.01543">
        <ele>243</ele>
        <time>2021-07-04 20:03:30</time>
      </trkpt>
      <trkpt lat="28.38949" lon="-14.01538">
        <ele>243</ele>
        <time>2021-07-04 20:03:31</time>
      </trkpt>
      <trkpt lat="28.38948" lon="-14.01534">
        <ele>242.8</ele>
        <time>2021-07-04 20:03:32</time>
      </trkpt>
      <trkpt lat="28.38946" lon="-14.01529">
        <ele>242.8</ele>
        <time>2021-07-04 20:03:33</time>
      </trkpt>
      <trkpt lat="28.38945" lon="-14.01525">
        <ele>242.8</ele>
        <time>2021-07-04 20:03:34</time>
      </trkpt>
      <trkpt lat="28.38944" lon="-14.0152">
        <ele>242.6</ele>
        <time>2021-07-04 20:03:35</time>
      </trkpt>
      <trkpt lat="28.38943" lon="-14.01514">
        <ele>242.6</ele>
        <time>2021-07-04 20:03:36</time>
      </trkpt>
      <trkpt lat="28.38943" lon="-14.01509">
        <ele>242.6</ele>
        <time>2021-07-04 20:03:37</time>
      </trkpt>
      <trkpt lat="28.38942" lon="-14.01503">
        <ele>242.6</ele>
        <time>2021-07-04 20:03:38</time>
      </trkpt>
      <trkpt lat="28.38941" lon="-14.01498">
        <ele>242.8</ele>
        <time>2021-07-04 20:03:39</time>
      </trkpt>
      <trkpt lat="28.3894" lon="-14.01493">
        <ele>242.8</ele>
        <time>2021-07-04 20:03:40</time>
      </trkpt>
      <trkpt lat="28.38939" lon="-14.01488">
        <ele>242.8</ele>
        <time>2021-07-04 20:03:41</time>
      </trkpt>
      <trkpt lat="28.38938" lon="-14.01483">
        <ele>242.8</ele>
        <time>2021-07-04 20:03:42</time>
      </trkpt>
      <trkpt lat="28.38937" lon="-14.01478">
        <ele>242.8</ele>
        <time>2021-07-04 20:03:43</time>
      </trkpt>
      <trkpt lat="28.38936" lon="-14.01474">
        <ele>242.8</ele>
        <time>2021-07-04 20:03:44</time>
      </trkpt>
      <trkpt lat="28.38935" lon="-14.01469">
        <ele>242.6</ele>
        <time>2021-07-04 20:03:45</time>
      </trkpt>
      <trkpt lat="28.38935" lon="-14.01465">
        <ele>242.6</ele>
        <time>2021-07-04 20:03:46</time>
      </trkpt>
      <trkpt lat="28.38934" lon="-14.01461">
        <ele>242.2</ele>
        <time>2021-07-04 20:03:47</time>
      </trkpt>
      <trkpt lat="28.38933" lon="-14.01456">
        <ele>242.2</ele>
        <time>2021-07-04 20:03:48</time>
      </trkpt>
      <trkpt lat="28.38933" lon="-14.01452">
        <ele>241.8</ele>
        <time>2021-07-04 20:03:49</time>
      </trkpt>
      <trkpt lat="28.38932" lon="-14.01447">
        <ele>241.8</ele>
        <time>2021-07-04 20:03:50</time>
      </trkpt>
      <trkpt lat="28.38932" lon="-14.01442">
        <ele>241.6</ele>
        <time>2021-07-04 20:03:51</time>
      </trkpt>
      <trkpt lat="28.38931" lon="-14.01437">
        <ele>241.4</ele>
        <time>2021-07-04 20:03:52</time>
      </trkpt>
      <trkpt lat="28.3893" lon="-14.01432">
        <ele>241</ele>
        <time>2021-07-04 20:03:53</time>
      </trkpt>
      <trkpt lat="28.38929" lon="-14.01427">
        <ele>241</ele>
        <time>2021-07-04 20:03:54</time>
      </trkpt>
      <trkpt lat="28.38929" lon="-14.01422">
        <ele>240.8</ele>
        <time>2021-07-04 20:03:55</time>
      </trkpt>
      <trkpt lat="28.38927" lon="-14.01417">
        <ele>240.8</ele>
        <time>2021-07-04 20:03:56</time>
      </trkpt>
      <trkpt lat="28.38927" lon="-14.01411">
        <ele>240.4</ele>
        <time>2021-07-04 20:03:57</time>
      </trkpt>
      <trkpt lat="28.38926" lon="-14.01407">
        <ele>240.4</ele>
        <time>2021-07-04 20:03:58</time>
      </trkpt>
      <trkpt lat="28.38925" lon="-14.01402">
        <ele>240.2</ele>
        <time>2021-07-04 20:03:59</time>
      </trkpt>
      <trkpt lat="28.38925" lon="-14.01398">
        <ele>240.2</ele>
        <time>2021-07-04 20:04:00</time>
      </trkpt>
      <trkpt lat="28.38924" lon="-14.01394">
        <ele>240.2</ele>
        <time>2021-07-04 20:04:01</time>
      </trkpt>
      <trkpt lat="28.38923" lon="-14.01392">
        <ele>240.2</ele>
        <time>2021-07-04 20:04:02</time>
      </trkpt>
      <trkpt lat="28.38923" lon="-14.0139">
        <ele>239.8</ele>
        <time>2021-07-04 20:04:03</time>
      </trkpt>
      <trkpt lat="28.38923" lon="-14.01388">
        <ele>239.8</ele>
        <time>2021-07-04 20:04:04</time>
      </trkpt>
      <trkpt lat="28.38924" lon="-14.01386">
        <ele>239.8</ele>
        <time>2021-07-04 20:04:05</time>
      </trkpt>
      <trkpt lat="28.38924" lon="-14.01384">
        <ele>239.8</ele>
        <time>2021-07-04 20:04:06</time>
      </trkpt>
      <trkpt lat="28.38924" lon="-14.01382">
        <ele>239.8</ele>
        <time>2021-07-04 20:04:07</time>
      </trkpt>
      <trkpt lat="28.38925" lon="-14.01381">
        <ele>239.6</ele>
        <time>2021-07-04 20:04:08</time>
      </trkpt>
      <trkpt lat="28.38924" lon="-14.0138">
        <ele>239.6</ele>
        <time>2021-07-04 20:04:09</time>
      </trkpt>
      <trkpt lat="28.38924" lon="-14.01379">
        <ele>239.6</ele>
        <time>2021-07-04 20:04:10</time>
      </trkpt>
      <trkpt lat="28.38924" lon="-14.01378">
        <ele>239.2</ele>
        <time>2021-07-04 20:04:11</time>
      </trkpt>
      <trkpt lat="28.38924" lon="-14.01377">
        <ele>239.2</ele>
        <time>2021-07-04 20:04:12</time>
      </trkpt>
      <trkpt lat="28.38923" lon="-14.01375">
        <ele>239.2</ele>
        <time>2021-07-04 20:04:13</time>
      </trkpt>
      <trkpt lat="28.38923" lon="-14.01373">
        <ele>239.2</ele>
        <time>2021-07-04 20:04:14</time>
      </trkpt>
      <trkpt lat="28.38923" lon="-14.01372">
        <ele>239.2</ele>
        <time>2021-07-04 20:04:15</time>
      </trkpt>
      <trkpt lat="28.38923" lon="-14.01372">
        <ele>239.2</ele>
        <time>2021-07-04 20:04:16</time>
      </trkpt>
      <trkpt lat="28.38923" lon="-14.01373">
        <ele>239.2</ele>
        <time>2021-07-04 20:04:17</time>
      </trkpt>
      <trkpt lat="28.38922" lon="-14.01373">
        <ele>239.2</ele>
        <time>2021-07-04 20:04:18</time>
      </trkpt>
      <trkpt lat="28.38921" lon="-14.01374">
        <ele>239</ele>
        <time>2021-07-04 20:04:19</time>
      </trkpt>
      <trkpt lat="28.3892" lon="-14.01376">
        <ele>239</ele>
        <time>2021-07-04 20:04:20</time>
      </trkpt>
      <trkpt lat="28.3892" lon="-14.01378">
        <ele>238.6</ele>
        <time>2021-07-04 20:04:21</time>
      </trkpt>
      <trkpt lat="28.3892" lon="-14.0138">
        <ele>238.4</ele>
        <time>2021-07-04 20:04:22</time>
      </trkpt>
      <trkpt lat="28.38921" lon="-14.01382">
        <ele>238.4</ele>
        <time>2021-07-04 20:04:23</time>
      </trkpt>
      <trkpt lat="28.38922" lon="-14.01384">
        <ele>238.2</ele>
        <time>2021-07-04 20:04:24</time>
      </trkpt>
      <trkpt lat="28.38922" lon="-14.01386">
        <ele>238.2</ele>
        <time>2021-07-04 20:04:25</time>
      </trkpt>
      <trkpt lat="28.38922" lon="-14.01388">
        <ele>238.2</ele>
        <time>2021-07-04 20:04:26</time>
      </trkpt>
      <trkpt lat="28.38923" lon="-14.0139">
        <ele>238.2</ele>
        <time>2021-07-04 20:04:27</time>
      </trkpt>
      <trkpt lat="28.38924" lon="-14.01392">
        <ele>238.4</ele>
        <time>2021-07-04 20:04:28</time>
      </trkpt>
      <trkpt lat="28.38924" lon="-14.01394">
        <ele>238.4</ele>
        <time>2021-07-04 20:04:29</time>
      </trkpt>
      <trkpt lat="28.38924" lon="-14.01397">
        <ele>238.4</ele>
        <time>2021-07-04 20:04:30</time>
      </trkpt>
      <trkpt lat="28.38924" lon="-14.014">
        <ele>238.4</ele>
        <time>2021-07-04 20:04:31</time>
      </trkpt>
      <trkpt lat="28.38925" lon="-14.01402">
        <ele>238.6</ele>
        <time>2021-07-04 20:04:32</time>
      </trkpt>
      <trkpt lat="28.38925" lon="-14.01406">
        <ele>238.6</ele>
        <time>2021-07-04 20:04:33</time>
      </trkpt>
      <trkpt lat="28.38926" lon="-14.01408">
        <ele>238.6</ele>
        <time>2021-07-04 20:04:34</time>
      </trkpt>
      <trkpt lat="28.38927" lon="-14.0141">
        <ele>238.6</ele>
        <time>2021-07-04 20:04:35</time>
      </trkpt>
      <trkpt lat="28.38927" lon="-14.01412">
        <ele>238.8</ele>
        <time>2021-07-04 20:04:36</time>
      </trkpt>
      <trkpt lat="28.38927" lon="-14.01414">
        <ele>238.8</ele>
        <time>2021-07-04 20:04:37</time>
      </trkpt>
      <trkpt lat="28.38928" lon="-14.01416">
        <ele>238.8</ele>
        <time>2021-07-04 20:04:38</time>
      </trkpt>
      <trkpt lat="28.38928" lon="-14.01417">
        <ele>239</ele>
        <time>2021-07-04 20:04:39</time>
      </trkpt>
      <trkpt lat="28.38928" lon="-14.01419">
        <ele>239</ele>
        <time>2021-07-04 20:04:40</time>
      </trkpt>
      <trkpt lat="28.38929" lon="-14.01421">
        <ele>239</ele>
        <time>2021-07-04 20:04:41</time>
      </trkpt>
      <trkpt lat="28.3893" lon="-14.01423">
        <ele>239.4</ele>
        <time>2021-07-04 20:04:42</time>
      </trkpt>
      <trkpt lat="28.3893" lon="-14.01425">
        <ele>239.4</ele>
        <time>2021-07-04 20:04:43</time>
      </trkpt>
      <trkpt lat="28.38931" lon="-14.01427">
        <ele>239.6</ele>
        <time>2021-07-04 20:04:44</time>
      </trkpt>
      <trkpt lat="28.38931" lon="-14.0143">
        <ele>239.6</ele>
        <time>2021-07-04 20:04:45</time>
      </trkpt>
      <trkpt lat="28.38931" lon="-14.01432">
        <ele>239.6</ele>
        <time>2021-07-04 20:04:46</time>
      </trkpt>
      <trkpt lat="28.38932" lon="-14.01434">
        <ele>239.8</ele>
        <time>2021-07-04 20:04:47</time>
      </trkpt>
      <trkpt lat="28.38932" lon="-14.01436">
        <ele>239.8</ele>
        <time>2021-07-04 20:04:48</time>
      </trkpt>
      <trkpt lat="28.38933" lon="-14.01437">
        <ele>239.8</ele>
        <time>2021-07-04 20:04:49</time>
      </trkpt>
      <trkpt lat="28.38933" lon="-14.01439">
        <ele>240.2</ele>
        <time>2021-07-04 20:04:50</time>
      </trkpt>
      <trkpt lat="28.38934" lon="-14.01441">
        <ele>240.2</ele>
        <time>2021-07-04 20:04:51</time>
      </trkpt>
      <trkpt lat="28.38934" lon="-14.01442">
        <ele>240.2</ele>
        <time>2021-07-04 20:04:52</time>
      </trkpt>
      <trkpt lat="28.38935" lon="-14.01443">
        <ele>240.2</ele>
        <time>2021-07-04 20:04:53</time>
      </trkpt>
      <trkpt lat="28.38935" lon="-14.01445">
        <ele>240.4</ele>
        <time>2021-07-04 20:04:54</time>
      </trkpt>
      <trkpt lat="28.38936" lon="-14.01447">
        <ele>240.4</ele>
        <time>2021-07-04 20:04:55</time>
      </trkpt>
      <trkpt lat="28.38936" lon="-14.01449">
        <ele>240.4</ele>
        <time>2021-07-04 20:04:56</time>
      </trkpt>
      <trkpt lat="28.38937" lon="-14.0145">
        <ele>240.4</ele>
        <time>2021-07-04 20:04:57</time>
      </trkpt>
      <trkpt lat="28.38937" lon="-14.01451">
        <ele>240.6</ele>
        <time>2021-07-04 20:04:58</time>
      </trkpt>
      <trkpt lat="28.38937" lon="-14.0145">
        <ele>240.6</ele>
        <time>2021-07-04 20:04:59</time>
      </trkpt>
      <trkpt lat="28.38937" lon="-14.0145">
        <ele>240.8</ele>
        <time>2021-07-04 20:05:00</time>
      </trkpt>
      <trkpt lat="28.38938" lon="-14.0145">
        <ele>241.2</ele>
        <time>2021-07-04 20:05:01</time>
      </trkpt>
      <trkpt lat="28.38938" lon="-14.01451">
        <ele>241.2</ele>
        <time>2021-07-04 20:05:02</time>
      </trkpt>
      <trkpt lat="28.38938" lon="-14.01452">
        <ele>241.2</ele>
        <time>2021-07-04 20:05:03</time>
      </trkpt>
      <trkpt lat="28.38938" lon="-14.01453">
        <ele>241.2</ele>
        <time>2021-07-04 20:05:04</time>
      </trkpt>
      <trkpt lat="28.38939" lon="-14.01453">
        <ele>241.2</ele>
        <time>2021-07-04 20:05:05</time>
      </trkpt>
      <trkpt lat="28.38939" lon="-14.01453">
        <ele>241.2</ele>
        <time>2021-07-04 20:05:06</time>
      </trkpt>
      <trkpt lat="28.38937" lon="-14.01453">
        <ele>241.2</ele>
        <time>2021-07-04 20:05:07</time>
      </trkpt>
      <trkpt lat="28.38936" lon="-14.01453">
        <ele>241.2</ele>
        <time>2021-07-04 20:05:08</time>
      </trkpt>
      <trkpt lat="28.38936" lon="-14.01453">
        <ele>241</ele>
        <time>2021-07-04 20:05:09</time>
      </trkpt>
      <trkpt lat="28.38935" lon="-14.01455">
        <ele>241</ele>
        <time>2021-07-04 20:05:10</time>
      </trkpt>
      <trkpt lat="28.38935" lon="-14.01457">
        <ele>241</ele>
        <time>2021-07-04 20:06:13</time>
      </trkpt>
      <trkpt lat="28.38935" lon="-14.01459">
        <ele>241</ele>
        <time>2021-07-04 20:06:14</time>
      </trkpt>
      <trkpt lat="28.38935" lon="-14.01461">
        <ele>241</ele>
        <time>2021-07-04 20:06:15</time>
      </trkpt>
      <trkpt lat="28.38936" lon="-14.01462">
        <ele>241</ele>
        <time>2021-07-04 20:06:16</time>
      </trkpt>
      <trkpt lat="28.38937" lon="-14.01464">
        <ele>241</ele>
        <time>2021-07-04 20:06:17</time>
      </trkpt>
      <trkpt lat="28.38937" lon="-14.01465">
        <ele>241.2</ele>
        <time>2021-07-04 20:06:18</time>
      </trkpt>
      <trkpt lat="28.38938" lon="-14.01466">
        <ele>241.2</ele>
        <time>2021-07-04 20:06:19</time>
      </trkpt>
      <trkpt lat="28.38938" lon="-14.01467">
        <ele>241.4</ele>
        <time>2021-07-04 20:06:20</time>
      </trkpt>
      <trkpt lat="28.38939" lon="-14.01468">
        <ele>241.4</ele>
        <time>2021-07-04 20:06:21</time>
      </trkpt>
      <trkpt lat="28.3894" lon="-14.01468">
        <ele>241.6</ele>
        <time>2021-07-04 20:06:22</time>
      </trkpt>
      <trkpt lat="28.3894" lon="-14.0147">
        <ele>241.6</ele>
        <time>2021-07-04 20:06:23</time>
      </trkpt>
      <trkpt lat="28.38941" lon="-14.01472">
        <ele>241.6</ele>
        <time>2021-07-04 20:06:24</time>
      </trkpt>
      <trkpt lat="28.38941" lon="-14.01474">
        <ele>241.6</ele>
        <time>2021-07-04 20:06:25</time>
      </trkpt>
      <trkpt lat="28.38941" lon="-14.01476">
        <ele>241.6</ele>
        <time>2021-07-04 20:06:26</time>
      </trkpt>
      <trkpt lat="28.38941" lon="-14.01478">
        <ele>241.6</ele>
        <time>2021-07-04 20:06:27</time>
      </trkpt>
      <trkpt lat="28.38942" lon="-14.01479">
        <ele>241.6</ele>
        <time>2021-07-04 20:06:28</time>
      </trkpt>
      <trkpt lat="28.38942" lon="-14.01481">
        <ele>241.6</ele>
        <time>2021-07-04 20:06:29</time>
      </trkpt>
      <trkpt lat="28.38942" lon="-14.01483">
        <ele>241.6</ele>
        <time>2021-07-04 20:06:30</time>
      </trkpt>
      <trkpt lat="28.38942" lon="-14.01484">
        <ele>242</ele>
        <time>2021-07-04 20:06:31</time>
      </trkpt>
      <trkpt lat="28.38943" lon="-14.01484">
        <ele>242</ele>
        <time>2021-07-04 20:06:32</time>
      </trkpt>
      <trkpt lat="28.38942" lon="-14.01484">
        <ele>242</ele>
        <time>2021-07-04 20:06:33</time>
      </trkpt>
      <trkpt lat="28.38942" lon="-14.01484">
        <ele>242</ele>
        <time>2021-07-04 20:06:34</time>
      </trkpt>
      <trkpt lat="28.38942" lon="-14.01486">
        <ele>237.8</ele>
        <time>2021-07-05 09:29:14</time>
      </trkpt>
      <trkpt lat="28.38941" lon="-14.01486">
        <ele>237.8</ele>
        <time>2021-07-05 09:29:15</time>
      </trkpt>
      <trkpt lat="28.3894" lon="-14.01485">
        <ele>237.8</ele>
        <time>2021-07-05 09:29:16</time>
      </trkpt>
      <trkpt lat="28.38939" lon="-14.01483">
        <ele>237.4</ele>
        <time>2021-07-05 09:29:17</time>
      </trkpt>
      <trkpt lat="28.38938" lon="-14.01481">
        <ele>237.2</ele>
        <time>2021-07-05 09:29:18</time>
      </trkpt>
      <trkpt lat="28.38937" lon="-14.01478">
        <ele>237.2</ele>
        <time>2021-07-05 09:29:19</time>
      </trkpt>
      <trkpt lat="28.38937" lon="-14.01475">
        <ele>237</ele>
        <time>2021-07-05 09:29:20</time>
      </trkpt>
      <trkpt lat="28.38936" lon="-14.01472">
        <ele>237</ele>
        <time>2021-07-05 09:29:21</time>
      </trkpt>
      <trkpt lat="28.38936" lon="-14.01469">
        <ele>236.6</ele>
        <time>2021-07-05 09:29:22</time>
      </trkpt>
      <trkpt lat="28.38935" lon="-14.01465">
        <ele>236.6</ele>
        <time>2021-07-05 09:29:23</time>
      </trkpt>
      <trkpt lat="28.38935" lon="-14.01461">
        <ele>236.4</ele>
        <time>2021-07-05 09:29:24</time>
      </trkpt>
      <trkpt lat="28.38934" lon="-14.01457">
        <ele>236.4</ele>
        <time>2021-07-05 09:29:25</time>
      </trkpt>
      <trkpt lat="28.38933" lon="-14.01453">
        <ele>236.4</ele>
        <time>2021-07-05 09:29:26</time>
      </trkpt>
      <trkpt lat="28.38933" lon="-14.01449">
        <ele>236</ele>
        <time>2021-07-05 09:29:27</time>
      </trkpt>
      <trkpt lat="28.38932" lon="-14.01444">
        <ele>236</ele>
        <time>2021-07-05 09:29:28</time>
      </trkpt>
      <trkpt lat="28.38932" lon="-14.0144">
        <ele>235.8</ele>
        <time>2021-07-05 09:29:29</time>
      </trkpt>
      <trkpt lat="28.38931" lon="-14.01435">
        <ele>235.8</ele>
        <time>2021-07-05 09:29:30</time>
      </trkpt>
      <trkpt lat="28.3893" lon="-14.0143">
        <ele>235.4</ele>
        <time>2021-07-05 09:29:31</time>
      </trkpt>
      <trkpt lat="28.38929" lon="-14.01425">
        <ele>235</ele>
        <time>2021-07-05 09:29:32</time>
      </trkpt>
      <trkpt lat="28.38928" lon="-14.01419">
        <ele>234.8</ele>
        <time>2021-07-05 09:29:33</time>
      </trkpt>
      <trkpt lat="28.38927" lon="-14.01414">
        <ele>234.8</ele>
        <time>2021-07-05 09:29:34</time>
      </trkpt>
      <trkpt lat="28.38927" lon="-14.01409">
        <ele>234.6</ele>
        <time>2021-07-05 09:29:35</time>
      </trkpt>
      <trkpt lat="28.38926" lon="-14.01403">
        <ele>234.6</ele>
        <time>2021-07-05 09:29:36</time>
      </trkpt>
      <trkpt lat="28.38924" lon="-14.01398">
        <ele>234.4</ele>
        <time>2021-07-05 09:29:37</time>
      </trkpt>
      <trkpt lat="28.38923" lon="-14.01392">
        <ele>234.4</ele>
        <time>2021-07-05 09:29:38</time>
      </trkpt>
      <trkpt lat="28.38922" lon="-14.01387">
        <ele>234</ele>
        <time>2021-07-05 09:29:39</time>
      </trkpt>
      <trkpt lat="28.38921" lon="-14.01381">
        <ele>234</ele>
        <time>2021-07-05 09:29:40</time>
      </trkpt>
      <trkpt lat="28.38919" lon="-14.01376">
        <ele>233.8</ele>
        <time>2021-07-05 09:29:41</time>
      </trkpt>
      <trkpt lat="28.3892" lon="-14.0137">
        <ele>233.4</ele>
        <time>2021-07-05 09:29:42</time>
      </trkpt>
      <trkpt lat="28.38918" lon="-14.01364">
        <ele>233.4</ele>
        <time>2021-07-05 09:29:43</time>
      </trkpt>
      <trkpt lat="28.38918" lon="-14.01359">
        <ele>233.4</ele>
        <time>2021-07-05 09:29:44</time>
      </trkpt>
      <trkpt lat="28.38916" lon="-14.01353">
        <ele>233.4</ele>
        <time>2021-07-05 09:29:45</time>
      </trkpt>
      <trkpt lat="28.38915" lon="-14.01347">
        <ele>233.2</ele>
        <time>2021-07-05 09:29:46</time>
      </trkpt>
      <trkpt lat="28.38914" lon="-14.01342">
        <ele>233.2</ele>
        <time>2021-07-05 09:29:47</time>
      </trkpt>
      <trkpt lat="28.38912" lon="-14.01337">
        <ele>233.2</ele>
        <time>2021-07-05 09:29:48</time>
      </trkpt>
      <trkpt lat="28.38911" lon="-14.01331">
        <ele>232.8</ele>
        <time>2021-07-05 09:29:49</time>
      </trkpt>
      <trkpt lat="28.38909" lon="-14.01325">
        <ele>232.6</ele>
        <time>2021-07-05 09:29:50</time>
      </trkpt>
      <trkpt lat="28.38907" lon="-14.01319">
        <ele>232</ele>
        <time>2021-07-05 09:29:51</time>
      </trkpt>
      <trkpt lat="28.38905" lon="-14.01313">
        <ele>232</ele>
        <time>2021-07-05 09:29:52</time>
      </trkpt>
      <trkpt lat="28.38903" lon="-14.01307">
        <ele>231.8</ele>
        <time>2021-07-05 09:29:53</time>
      </trkpt>
      <trkpt lat="28.38902" lon="-14.013">
        <ele>231.6</ele>
        <time>2021-07-05 09:29:54</time>
      </trkpt>
      <trkpt lat="28.38901" lon="-14.01293">
        <ele>231.2</ele>
        <time>2021-07-05 09:29:55</time>
      </trkpt>
      <trkpt lat="28.38899" lon="-14.01287">
        <ele>231</ele>
        <time>2021-07-05 09:29:56</time>
      </trkpt>
      <trkpt lat="28.38898" lon="-14.01281">
        <ele>230.8</ele>
        <time>2021-07-05 09:29:57</time>
      </trkpt>
      <trkpt lat="28.38896" lon="-14.01276">
        <ele>230.8</ele>
        <time>2021-07-05 09:29:58</time>
      </trkpt>
      <trkpt lat="28.38895" lon="-14.01271">
        <ele>230.4</ele>
        <time>2021-07-05 09:29:59</time>
      </trkpt>
      <trkpt lat="28.38893" lon="-14.01266">
        <ele>230.2</ele>
        <time>2021-07-05 09:30:00</time>
      </trkpt>
      <trkpt lat="28.38892" lon="-14.01261">
        <ele>230</ele>
        <time>2021-07-05 09:30:01</time>
      </trkpt>
      <trkpt lat="28.3889" lon="-14.01258">
        <ele>230</ele>
        <time>2021-07-05 09:30:02</time>
      </trkpt>
      <trkpt lat="28.3889" lon="-14.01255">
        <ele>229.6</ele>
        <time>2021-07-05 09:30:03</time>
      </trkpt>
      <trkpt lat="28.3889" lon="-14.01252">
        <ele>229.6</ele>
        <time>2021-07-05 09:30:04</time>
      </trkpt>
      <trkpt lat="28.38889" lon="-14.0125">
        <ele>229.2</ele>
        <time>2021-07-05 09:30:05</time>
      </trkpt>
      <trkpt lat="28.3889" lon="-14.01247">
        <ele>229.2</ele>
        <time>2021-07-05 09:30:06</time>
      </trkpt>
      <trkpt lat="28.38892" lon="-14.01245">
        <ele>228.8</ele>
        <time>2021-07-05 09:30:07</time>
      </trkpt>
      <trkpt lat="28.38894" lon="-14.01242">
        <ele>228.8</ele>
        <time>2021-07-05 09:30:08</time>
      </trkpt>
      <trkpt lat="28.38897" lon="-14.01241">
        <ele>228.8</ele>
        <time>2021-07-05 09:30:09</time>
      </trkpt>
      <trkpt lat="28.389" lon="-14.01239">
        <ele>228.8</ele>
        <time>2021-07-05 09:30:10</time>
      </trkpt>
      <trkpt lat="28.38903" lon="-14.01238">
        <ele>228.8</ele>
        <time>2021-07-05 09:30:11</time>
      </trkpt>
      <trkpt lat="28.38907" lon="-14.01236">
        <ele>229</ele>
        <time>2021-07-05 09:30:12</time>
      </trkpt>
      <trkpt lat="28.3891" lon="-14.01234">
        <ele>229</ele>
        <time>2021-07-05 09:30:13</time>
      </trkpt>
      <trkpt lat="28.38913" lon="-14.01232">
        <ele>229</ele>
        <time>2021-07-05 09:30:14</time>
      </trkpt>
      <trkpt lat="28.38917" lon="-14.0123">
        <ele>229.2</ele>
        <time>2021-07-05 09:30:15</time>
      </trkpt>
      <trkpt lat="28.38921" lon="-14.01229">
        <ele>229.2</ele>
        <time>2021-07-05 09:30:16</time>
      </trkpt>
      <trkpt lat="28.38924" lon="-14.01227">
        <ele>229.6</ele>
        <time>2021-07-05 09:30:17</time>
      </trkpt>
      <trkpt lat="28.38928" lon="-14.01225">
        <ele>229.6</ele>
        <time>2021-07-05 09:30:18</time>
      </trkpt>
      <trkpt lat="28.38932" lon="-14.01223">
        <ele>229.8</ele>
        <time>2021-07-05 09:30:19</time>
      </trkpt>
      <trkpt lat="28.38936" lon="-14.01222">
        <ele>229.8</ele>
        <time>2021-07-05 09:30:20</time>
      </trkpt>
      <trkpt lat="28.38939" lon="-14.0122">
        <ele>229.8</ele>
        <time>2021-07-05 09:30:21</time>
      </trkpt>
      <trkpt lat="28.38943" lon="-14.01218">
        <ele>229.8</ele>
        <time>2021-07-05 09:30:22</time>
      </trkpt>
      <trkpt lat="28.38947" lon="-14.01216">
        <ele>229.8</ele>
        <time>2021-07-05 09:30:23</time>
      </trkpt>
      <trkpt lat="28.3895" lon="-14.01214">
        <ele>229.8</ele>
        <time>2021-07-05 09:30:24</time>
      </trkpt>
      <trkpt lat="28.38954" lon="-14.01212">
        <ele>229.8</ele>
        <time>2021-07-05 09:30:25</time>
      </trkpt>
      <trkpt lat="28.38958" lon="-14.0121">
        <ele>229.8</ele>
        <time>2021-07-05 09:30:26</time>
      </trkpt>
      <trkpt lat="28.38961" lon="-14.01208">
        <ele>229.8</ele>
        <time>2021-07-05 09:30:27</time>
      </trkpt>
      <trkpt lat="28.38965" lon="-14.01206">
        <ele>230</ele>
        <time>2021-07-05 09:30:28</time>
      </trkpt>
      <trkpt lat="28.38969" lon="-14.01204">
        <ele>230</ele>
        <time>2021-07-05 09:30:29</time>
      </trkpt>
      <trkpt lat="28.38972" lon="-14.01203">
        <ele>230</ele>
        <time>2021-07-05 09:30:30</time>
      </trkpt>
      <trkpt lat="28.38976" lon="-14.01201">
        <ele>230</ele>
        <time>2021-07-05 09:30:31</time>
      </trkpt>
      <trkpt lat="28.3898" lon="-14.01199">
        <ele>230</ele>
        <time>2021-07-05 09:30:32</time>
      </trkpt>
      <trkpt lat="28.38984" lon="-14.01197">
        <ele>230</ele>
        <time>2021-07-05 09:30:33</time>
      </trkpt>
      <trkpt lat="28.38987" lon="-14.01195">
        <ele>229.8</ele>
        <time>2021-07-05 09:30:34</time>
      </trkpt>
      <trkpt lat="28.38991" lon="-14.01194">
        <ele>229.8</ele>
        <time>2021-07-05 09:30:35</time>
      </trkpt>
      <trkpt lat="28.38994" lon="-14.01192">
        <ele>229.4</ele>
        <time>2021-07-05 09:30:36</time>
      </trkpt>
      <trkpt lat="28.38998" lon="-14.01191">
        <ele>229.4</ele>
        <time>2021-07-05 09:30:37</time>
      </trkpt>
      <trkpt lat="28.39001" lon="-14.01189">
        <ele>229.4</ele>
        <time>2021-07-05 09:30:38</time>
      </trkpt>
      <trkpt lat="28.39005" lon="-14.01187">
        <ele>229.2</ele>
        <time>2021-07-05 09:30:39</time>
      </trkpt>
      <trkpt lat="28.39009" lon="-14.01186">
        <ele>229.2</ele>
        <time>2021-07-05 09:30:40</time>
      </trkpt>
      <trkpt lat="28.39013" lon="-14.01185">
        <ele>229.2</ele>
        <time>2021-07-05 09:30:41</time>
      </trkpt>
      <trkpt lat="28.39017" lon="-14.01183">
        <ele>229.2</ele>
        <time>2021-07-05 09:30:42</time>
      </trkpt>
      <trkpt lat="28.39021" lon="-14.01182">
        <ele>229.2</ele>
        <time>2021-07-05 09:30:43</time>
      </trkpt>
      <trkpt lat="28.39025" lon="-14.01181">
        <ele>229</ele>
        <time>2021-07-05 09:30:44</time>
      </trkpt>
      <trkpt lat="28.39029" lon="-14.0118">
        <ele>229</ele>
        <time>2021-07-05 09:30:45</time>
      </trkpt>
      <trkpt lat="28.39033" lon="-14.01179">
        <ele>229</ele>
        <time>2021-07-05 09:30:46</time>
      </trkpt>
      <trkpt lat="28.39038" lon="-14.01178">
        <ele>229</ele>
        <time>2021-07-05 09:30:47</time>
      </trkpt>
      <trkpt lat="28.39043" lon="-14.01178">
        <ele>228.8</ele>
        <time>2021-07-05 09:30:48</time>
      </trkpt>
      <trkpt lat="28.39048" lon="-14.01177">
        <ele>228.8</ele>
        <time>2021-07-05 09:30:49</time>
      </trkpt>
      <trkpt lat="28.39054" lon="-14.01175">
        <ele>228.4</ele>
        <time>2021-07-05 09:30:50</time>
      </trkpt>
      <trkpt lat="28.39059" lon="-14.01174">
        <ele>228.4</ele>
        <time>2021-07-05 09:30:51</time>
      </trkpt>
      <trkpt lat="28.39066" lon="-14.01172">
        <ele>228.2</ele>
        <time>2021-07-05 09:30:52</time>
      </trkpt>
      <trkpt lat="28.39072" lon="-14.01171">
        <ele>227.2</ele>
        <time>2021-07-05 09:30:53</time>
      </trkpt>
      <trkpt lat="28.39079" lon="-14.0117">
        <ele>226.6</ele>
        <time>2021-07-05 09:30:54</time>
      </trkpt>
      <trkpt lat="28.39086" lon="-14.01169">
        <ele>226.6</ele>
        <time>2021-07-05 09:30:55</time>
      </trkpt>
      <trkpt lat="28.39094" lon="-14.01167">
        <ele>226</ele>
        <time>2021-07-05 09:30:56</time>
      </trkpt>
      <trkpt lat="28.39102" lon="-14.01166">
        <ele>225.4</ele>
        <time>2021-07-05 09:30:57</time>
      </trkpt>
      <trkpt lat="28.39109" lon="-14.01166">
        <ele>223.6</ele>
        <time>2021-07-05 09:30:58</time>
      </trkpt>
      <trkpt lat="28.39117" lon="-14.01166">
        <ele>223.6</ele>
        <time>2021-07-05 09:30:59</time>
      </trkpt>
      <trkpt lat="28.39125" lon="-14.01167">
        <ele>223</ele>
        <time>2021-07-05 09:31:00</time>
      </trkpt>
      <trkpt lat="28.39132" lon="-14.01167">
        <ele>222.2</ele>
        <time>2021-07-05 09:31:01</time>
      </trkpt>
      <trkpt lat="28.3914" lon="-14.01167">
        <ele>221.6</ele>
        <time>2021-07-05 09:31:02</time>
      </trkpt>
      <trkpt lat="28.39146" lon="-14.01167">
        <ele>220.8</ele>
        <time>2021-07-05 09:31:03</time>
      </trkpt>
      <trkpt lat="28.39153" lon="-14.01167">
        <ele>220.8</ele>
        <time>2021-07-05 09:31:04</time>
      </trkpt>
      <trkpt lat="28.39159" lon="-14.01167">
        <ele>220</ele>
        <time>2021-07-05 09:31:05</time>
      </trkpt>
      <trkpt lat="28.39165" lon="-14.01166">
        <ele>220</ele>
        <time>2021-07-05 09:31:06</time>
      </trkpt>
      <trkpt lat="28.3917" lon="-14.01165">
        <ele>219.4</ele>
        <time>2021-07-05 09:31:07</time>
      </trkpt>
      <trkpt lat="28.39175" lon="-14.01163">
        <ele>219</ele>
        <time>2021-07-05 09:31:08</time>
      </trkpt>
      <trkpt lat="28.3918" lon="-14.01162">
        <ele>218.8</ele>
        <time>2021-07-05 09:31:09</time>
      </trkpt>
      <trkpt lat="28.39184" lon="-14.0116">
        <ele>218.8</ele>
        <time>2021-07-05 09:31:10</time>
      </trkpt>
      <trkpt lat="28.39188" lon="-14.01159">
        <ele>218.8</ele>
        <time>2021-07-05 09:31:11</time>
      </trkpt>
      <trkpt lat="28.39192" lon="-14.01157">
        <ele>218.8</ele>
        <time>2021-07-05 09:31:12</time>
      </trkpt>
      <trkpt lat="28.39196" lon="-14.01156">
        <ele>218.8</ele>
        <time>2021-07-05 09:31:13</time>
      </trkpt>
      <trkpt lat="28.39199" lon="-14.01155">
        <ele>218.6</ele>
        <time>2021-07-05 09:31:14</time>
      </trkpt>
      <trkpt lat="28.39203" lon="-14.01154">
        <ele>218.6</ele>
        <time>2021-07-05 09:31:15</time>
      </trkpt>
      <trkpt lat="28.39206" lon="-14.01153">
        <ele>218.6</ele>
        <time>2021-07-05 09:31:16</time>
      </trkpt>
      <trkpt lat="28.39209" lon="-14.01151">
        <ele>218.6</ele>
        <time>2021-07-05 09:31:17</time>
      </trkpt>
      <trkpt lat="28.39212" lon="-14.0115">
        <ele>218.6</ele>
        <time>2021-07-05 09:31:18</time>
      </trkpt>
      <trkpt lat="28.39216" lon="-14.01149">
        <ele>218.8</ele>
        <time>2021-07-05 09:31:19</time>
      </trkpt>
      <trkpt lat="28.39219" lon="-14.01148">
        <ele>218.8</ele>
        <time>2021-07-05 09:31:20</time>
      </trkpt>
      <trkpt lat="28.39222" lon="-14.01147">
        <ele>218.8</ele>
        <time>2021-07-05 09:31:21</time>
      </trkpt>
      <trkpt lat="28.39225" lon="-14.01146">
        <ele>219</ele>
        <time>2021-07-05 09:31:22</time>
      </trkpt>
      <trkpt lat="28.39228" lon="-14.01145">
        <ele>219</ele>
        <time>2021-07-05 09:31:23</time>
      </trkpt>
      <trkpt lat="28.39231" lon="-14.01144">
        <ele>219.2</ele>
        <time>2021-07-05 09:31:24</time>
      </trkpt>
      <trkpt lat="28.39234" lon="-14.01143">
        <ele>219.2</ele>
        <time>2021-07-05 09:31:25</time>
      </trkpt>
      <trkpt lat="28.39237" lon="-14.01142">
        <ele>219.2</ele>
        <time>2021-07-05 09:31:26</time>
      </trkpt>
      <trkpt lat="28.3924" lon="-14.01141">
        <ele>219.4</ele>
        <time>2021-07-05 09:31:27</time>
      </trkpt>
      <trkpt lat="28.39243" lon="-14.0114">
        <ele>219.4</ele>
        <time>2021-07-05 09:31:28</time>
      </trkpt>
      <trkpt lat="28.39246" lon="-14.01139">
        <ele>219.4</ele>
        <time>2021-07-05 09:31:29</time>
      </trkpt>
      <trkpt lat="28.39249" lon="-14.01138">
        <ele>219.6</ele>
        <time>2021-07-05 09:31:30</time>
      </trkpt>
      <trkpt lat="28.39252" lon="-14.01137">
        <ele>219.6</ele>
        <time>2021-07-05 09:31:31</time>
      </trkpt>
      <trkpt lat="28.39255" lon="-14.01137">
        <ele>220</ele>
        <time>2021-07-05 09:31:32</time>
      </trkpt>
      <trkpt lat="28.39257" lon="-14.01136">
        <ele>220.2</ele>
        <time>2021-07-05 09:31:33</time>
      </trkpt>
      <trkpt lat="28.39259" lon="-14.01136">
        <ele>220.2</ele>
        <time>2021-07-05 09:31:34</time>
      </trkpt>
      <trkpt lat="28.39262" lon="-14.01135">
        <ele>220.6</ele>
        <time>2021-07-05 09:31:35</time>
      </trkpt>
      <trkpt lat="28.39264" lon="-14.01135">
        <ele>221</ele>
        <time>2021-07-05 09:31:36</time>
      </trkpt>
      <trkpt lat="28.39267" lon="-14.01134">
        <ele>221</ele>
        <time>2021-07-05 09:31:37</time>
      </trkpt>
      <trkpt lat="28.39269" lon="-14.01134">
        <ele>221</ele>
        <time>2021-07-05 09:31:38</time>
      </trkpt>
      <trkpt lat="28.39271" lon="-14.01133">
        <ele>221.2</ele>
        <time>2021-07-05 09:31:39</time>
      </trkpt>
      <trkpt lat="28.39273" lon="-14.01132">
        <ele>221.2</ele>
        <time>2021-07-05 09:31:40</time>
      </trkpt>
      <trkpt lat="28.39275" lon="-14.01131">
        <ele>221.8</ele>
        <time>2021-07-05 09:31:41</time>
      </trkpt>
      <trkpt lat="28.39277" lon="-14.01131">
        <ele>222</ele>
        <time>2021-07-05 09:31:42</time>
      </trkpt>
      <trkpt lat="28.3928" lon="-14.0113">
        <ele>222</ele>
        <time>2021-07-05 09:31:43</time>
      </trkpt>
      <trkpt lat="28.39282" lon="-14.01129">
        <ele>222.4</ele>
        <time>2021-07-05 09:31:44</time>
      </trkpt>
      <trkpt lat="28.39284" lon="-14.01129">
        <ele>222.6</ele>
        <time>2021-07-05 09:31:45</time>
      </trkpt>
      <trkpt lat="28.39287" lon="-14.01128">
        <ele>222.8</ele>
        <time>2021-07-05 09:31:46</time>
      </trkpt>
      <trkpt lat="28.39289" lon="-14.01128">
        <ele>223.2</ele>
        <time>2021-07-05 09:31:47</time>
      </trkpt>
      <trkpt lat="28.39292" lon="-14.01128">
        <ele>223.4</ele>
        <time>2021-07-05 09:31:48</time>
      </trkpt>
      <trkpt lat="28.39294" lon="-14.01128">
        <ele>223.8</ele>
        <time>2021-07-05 09:31:49</time>
      </trkpt>
      <trkpt lat="28.39296" lon="-14.01128">
        <ele>224</ele>
        <time>2021-07-05 09:31:50</time>
      </trkpt>
      <trkpt lat="28.39299" lon="-14.01127">
        <ele>224</ele>
        <time>2021-07-05 09:31:51</time>
      </trkpt>
      <trkpt lat="28.39301" lon="-14.01127">
        <ele>224.2</ele>
        <time>2021-07-05 09:31:52</time>
      </trkpt>
      <trkpt lat="28.39303" lon="-14.01127">
        <ele>224.2</ele>
        <time>2021-07-05 09:31:53</time>
      </trkpt>
      <trkpt lat="28.39306" lon="-14.01127">
        <ele>224.2</ele>
        <time>2021-07-05 09:31:54</time>
      </trkpt>
      <trkpt lat="28.39307" lon="-14.01127">
        <ele>224.2</ele>
        <time>2021-07-05 09:31:55</time>
      </trkpt>
      <trkpt lat="28.39308" lon="-14.01127">
        <ele>224.2</ele>
        <time>2021-07-05 09:31:56</time>
      </trkpt>
      <trkpt lat="28.39308" lon="-14.01127">
        <ele>224.2</ele>
        <time>2021-07-05 09:31:57</time>
      </trkpt>
      <trkpt lat="28.39308" lon="-14.01127">
        <ele>224.2</ele>
        <time>2021-07-05 09:31:58</time>
      </trkpt>
      <trkpt lat="28.39308" lon="-14.01127">
        <ele>224.2</ele>
        <time>2021-07-05 09:31:59</time>
      </trkpt>
      <trkpt lat="28.39309" lon="-14.0113">
        <ele>224</ele>
        <time>2021-07-05 09:32:05</time>
      </trkpt>
      <trkpt lat="28.39309" lon="-14.01131">
        <ele>224</ele>
        <time>2021-07-05 09:32:06</time>
      </trkpt>
      <trkpt lat="28.3931" lon="-14.01131">
        <ele>224.2</ele>
        <time>2021-07-05 09:32:07</time>
      </trkpt>
      <trkpt lat="28.3931" lon="-14.01131">
        <ele>224.2</ele>
        <time>2021-07-05 09:32:08</time>
      </trkpt>
      <trkpt lat="28.39309" lon="-14.01131">
        <ele>224.6</ele>
        <time>2021-07-05 09:32:09</time>
      </trkpt>
      <trkpt lat="28.39309" lon="-14.01131">
        <ele>224.6</ele>
        <time>2021-07-05 09:32:10</time>
      </trkpt>
      <trkpt lat="28.39312" lon="-14.01129">
        <ele>224.6</ele>
        <time>2021-07-05 09:32:55</time>
      </trkpt>
      <trkpt lat="28.39314" lon="-14.01128">
        <ele>223.2</ele>
        <time>2021-07-05 09:32:56</time>
      </trkpt>
      <trkpt lat="28.39316" lon="-14.01128">
        <ele>223.4</ele>
        <time>2021-07-05 09:32:57</time>
      </trkpt>
      <trkpt lat="28.39319" lon="-14.01128">
        <ele>223.4</ele>
        <time>2021-07-05 09:32:58</time>
      </trkpt>
      <trkpt lat="28.39321" lon="-14.01128">
        <ele>223.8</ele>
        <time>2021-07-05 09:32:59</time>
      </trkpt>
      <trkpt lat="28.39324" lon="-14.01129">
        <ele>223.8</ele>
        <time>2021-07-05 09:33:00</time>
      </trkpt>
      <trkpt lat="28.39327" lon="-14.01129">
        <ele>224.2</ele>
        <time>2021-07-05 09:33:01</time>
      </trkpt>
      <trkpt lat="28.3933" lon="-14.01129">
        <ele>224.2</ele>
        <time>2021-07-05 09:33:02</time>
      </trkpt>
      <trkpt lat="28.39334" lon="-14.01129">
        <ele>224.2</ele>
        <time>2021-07-05 09:33:03</time>
      </trkpt>
      <trkpt lat="28.39337" lon="-14.01129">
        <ele>224.2</ele>
        <time>2021-07-05 09:33:04</time>
      </trkpt>
      <trkpt lat="28.3934" lon="-14.01129">
        <ele>224.4</ele>
        <time>2021-07-05 09:33:05</time>
      </trkpt>
      <trkpt lat="28.39343" lon="-14.01128">
        <ele>224.4</ele>
        <time>2021-07-05 09:33:06</time>
      </trkpt>
      <trkpt lat="28.39347" lon="-14.01128">
        <ele>224.4</ele>
        <time>2021-07-05 09:33:07</time>
      </trkpt>
      <trkpt lat="28.3935" lon="-14.01127">
        <ele>224.4</ele>
        <time>2021-07-05 09:33:08</time>
      </trkpt>
      <trkpt lat="28.39354" lon="-14.01127">
        <ele>224.4</ele>
        <time>2021-07-05 09:33:09</time>
      </trkpt>
      <trkpt lat="28.39357" lon="-14.01127">
        <ele>224.4</ele>
        <time>2021-07-05 09:33:10</time>
      </trkpt>
      <trkpt lat="28.39361" lon="-14.01127">
        <ele>224.4</ele>
        <time>2021-07-05 09:33:11</time>
      </trkpt>
      <trkpt lat="28.39365" lon="-14.01127">
        <ele>224.4</ele>
        <time>2021-07-05 09:33:12</time>
      </trkpt>
      <trkpt lat="28.39369" lon="-14.01126">
        <ele>224.4</ele>
        <time>2021-07-05 09:33:13</time>
      </trkpt>
      <trkpt lat="28.39373" lon="-14.01126">
        <ele>224.4</ele>
        <time>2021-07-05 09:33:14</time>
      </trkpt>
      <trkpt lat="28.39377" lon="-14.01126">
        <ele>224.4</ele>
        <time>2021-07-05 09:33:15</time>
      </trkpt>
      <trkpt lat="28.39381" lon="-14.01126">
        <ele>224</ele>
        <time>2021-07-05 09:33:16</time>
      </trkpt>
      <trkpt lat="28.39386" lon="-14.01127">
        <ele>223.8</ele>
        <time>2021-07-05 09:33:17</time>
      </trkpt>
      <trkpt lat="28.39391" lon="-14.01126">
        <ele>223.6</ele>
        <time>2021-07-05 09:33:18</time>
      </trkpt>
      <trkpt lat="28.39395" lon="-14.01126">
        <ele>223.6</ele>
        <time>2021-07-05 09:33:19</time>
      </trkpt>
      <trkpt lat="28.394" lon="-14.01126">
        <ele>223.6</ele>
        <time>2021-07-05 09:33:20</time>
      </trkpt>
      <trkpt lat="28.39405" lon="-14.01125">
        <ele>223.2</ele>
        <time>2021-07-05 09:33:21</time>
      </trkpt>
      <trkpt lat="28.3941" lon="-14.01125">
        <ele>222.8</ele>
        <time>2021-07-05 09:33:22</time>
      </trkpt>
      <trkpt lat="28.39415" lon="-14.01124">
        <ele>222.6</ele>
        <time>2021-07-05 09:33:23</time>
      </trkpt>
      <trkpt lat="28.3942" lon="-14.01123">
        <ele>222.4</ele>
        <time>2021-07-05 09:33:24</time>
      </trkpt>
      <trkpt lat="28.39425" lon="-14.01122">
        <ele>222</ele>
        <time>2021-07-05 09:33:25</time>
      </trkpt>
      <trkpt lat="28.3943" lon="-14.01122">
        <ele>221.8</ele>
        <time>2021-07-05 09:33:26</time>
      </trkpt>
      <trkpt lat="28.39435" lon="-14.01121">
        <ele>221.6</ele>
        <time>2021-07-05 09:33:27</time>
      </trkpt>
      <trkpt lat="28.39439" lon="-14.0112">
        <ele>221.4</ele>
        <time>2021-07-05 09:33:28</time>
      </trkpt>
      <trkpt lat="28.39444" lon="-14.0112">
        <ele>221</ele>
        <time>2021-07-05 09:33:29</time>
      </trkpt>
      <trkpt lat="28.39449" lon="-14.0112">
        <ele>220.8</ele>
        <time>2021-07-05 09:33:30</time>
      </trkpt>
      <trkpt lat="28.39454" lon="-14.01118">
        <ele>220.6</ele>
        <time>2021-07-05 09:33:31</time>
      </trkpt>
      <trkpt lat="28.39458" lon="-14.01117">
        <ele>220.6</ele>
        <time>2021-07-05 09:33:32</time>
      </trkpt>
      <trkpt lat="28.39463" lon="-14.01117">
        <ele>220.4</ele>
        <time>2021-07-05 09:33:33</time>
      </trkpt>
      <trkpt lat="28.39468" lon="-14.01116">
        <ele>220</ele>
        <time>2021-07-05 09:33:34</time>
      </trkpt>
      <trkpt lat="28.39472" lon="-14.01115">
        <ele>220</ele>
        <time>2021-07-05 09:33:35</time>
      </trkpt>
      <trkpt lat="28.39476" lon="-14.01113">
        <ele>220</ele>
        <time>2021-07-05 09:33:36</time>
      </trkpt>
      <trkpt lat="28.39481" lon="-14.01113">
        <ele>220</ele>
        <time>2021-07-05 09:33:37</time>
      </trkpt>
      <trkpt lat="28.39484" lon="-14.01112">
        <ele>220</ele>
        <time>2021-07-05 09:33:38</time>
      </trkpt>
      <trkpt lat="28.39488" lon="-14.01111">
        <ele>220</ele>
        <time>2021-07-05 09:33:39</time>
      </trkpt>
      <trkpt lat="28.39493" lon="-14.0111">
        <ele>220</ele>
        <time>2021-07-05 09:33:40</time>
      </trkpt>
      <trkpt lat="28.39496" lon="-14.01109">
        <ele>220</ele>
        <time>2021-07-05 09:33:41</time>
      </trkpt>
      <trkpt lat="28.395" lon="-14.01108">
        <ele>220.4</ele>
        <time>2021-07-05 09:33:42</time>
      </trkpt>
      <trkpt lat="28.39504" lon="-14.01107">
        <ele>220.4</ele>
        <time>2021-07-05 09:33:43</time>
      </trkpt>
      <trkpt lat="28.39508" lon="-14.01106">
        <ele>220.6</ele>
        <time>2021-07-05 09:33:44</time>
      </trkpt>
      <trkpt lat="28.39512" lon="-14.01105">
        <ele>220.6</ele>
        <time>2021-07-05 09:33:45</time>
      </trkpt>
      <trkpt lat="28.39515" lon="-14.01104">
        <ele>220.6</ele>
        <time>2021-07-05 09:33:46</time>
      </trkpt>
      <trkpt lat="28.39519" lon="-14.01103">
        <ele>220.8</ele>
        <time>2021-07-05 09:33:47</time>
      </trkpt>
      <trkpt lat="28.39523" lon="-14.01103">
        <ele>220.8</ele>
        <time>2021-07-05 09:33:48</time>
      </trkpt>
      <trkpt lat="28.39526" lon="-14.01102">
        <ele>220.8</ele>
        <time>2021-07-05 09:33:49</time>
      </trkpt>
      <trkpt lat="28.3953" lon="-14.01101">
        <ele>221</ele>
        <time>2021-07-05 09:33:50</time>
      </trkpt>
      <trkpt lat="28.39534" lon="-14.01101">
        <ele>221</ele>
        <time>2021-07-05 09:33:51</time>
      </trkpt>
      <trkpt lat="28.39537" lon="-14.011">
        <ele>221</ele>
        <time>2021-07-05 09:33:52</time>
      </trkpt>
      <trkpt lat="28.39541" lon="-14.011">
        <ele>221.2</ele>
        <time>2021-07-05 09:33:53</time>
      </trkpt>
      <trkpt lat="28.39544" lon="-14.011">
        <ele>221.2</ele>
        <time>2021-07-05 09:33:54</time>
      </trkpt>
      <trkpt lat="28.39548" lon="-14.01099">
        <ele>221.6</ele>
        <time>2021-07-05 09:33:55</time>
      </trkpt>
      <trkpt lat="28.39551" lon="-14.01099">
        <ele>221.6</ele>
        <time>2021-07-05 09:33:56</time>
      </trkpt>
      <trkpt lat="28.39554" lon="-14.01098">
        <ele>221.8</ele>
        <time>2021-07-05 09:33:57</time>
      </trkpt>
      <trkpt lat="28.39558" lon="-14.01097">
        <ele>221.8</ele>
        <time>2021-07-05 09:33:58</time>
      </trkpt>
      <trkpt lat="28.39561" lon="-14.01096">
        <ele>222</ele>
        <time>2021-07-05 09:33:59</time>
      </trkpt>
      <trkpt lat="28.39565" lon="-14.01096">
        <ele>222.4</ele>
        <time>2021-07-05 09:34:00</time>
      </trkpt>
      <trkpt lat="28.39568" lon="-14.01095">
        <ele>222.4</ele>
        <time>2021-07-05 09:34:01</time>
      </trkpt>
      <trkpt lat="28.39572" lon="-14.01094">
        <ele>222.4</ele>
        <time>2021-07-05 09:34:02</time>
      </trkpt>
      <trkpt lat="28.39575" lon="-14.01093">
        <ele>222.6</ele>
        <time>2021-07-05 09:34:03</time>
      </trkpt>
      <trkpt lat="28.39579" lon="-14.01093">
        <ele>222.6</ele>
        <time>2021-07-05 09:34:04</time>
      </trkpt>
      <trkpt lat="28.39582" lon="-14.01092">
        <ele>223</ele>
        <time>2021-07-05 09:34:05</time>
      </trkpt>
      <trkpt lat="28.39586" lon="-14.01091">
        <ele>223</ele>
        <time>2021-07-05 09:34:06</time>
      </trkpt>
      <trkpt lat="28.39589" lon="-14.0109">
        <ele>223.2</ele>
        <time>2021-07-05 09:34:07</time>
      </trkpt>
      <trkpt lat="28.39593" lon="-14.01089">
        <ele>223.2</ele>
        <time>2021-07-05 09:34:08</time>
      </trkpt>
      <trkpt lat="28.39597" lon="-14.01088">
        <ele>223.2</ele>
        <time>2021-07-05 09:34:09</time>
      </trkpt>
      <trkpt lat="28.396" lon="-14.01087">
        <ele>223.4</ele>
        <time>2021-07-05 09:34:10</time>
      </trkpt>
      <trkpt lat="28.39604" lon="-14.01087">
        <ele>223.4</ele>
        <time>2021-07-05 09:34:11</time>
      </trkpt>
      <trkpt lat="28.39607" lon="-14.01086">
        <ele>223.4</ele>
        <time>2021-07-05 09:34:12</time>
      </trkpt>
      <trkpt lat="28.39611" lon="-14.01085">
        <ele>223.8</ele>
        <time>2021-07-05 09:34:13</time>
      </trkpt>
      <trkpt lat="28.39615" lon="-14.01083">
        <ele>223.8</ele>
        <time>2021-07-05 09:34:14</time>
      </trkpt>
      <trkpt lat="28.39618" lon="-14.01082">
        <ele>223.8</ele>
        <time>2021-07-05 09:34:15</time>
      </trkpt>
      <trkpt lat="28.39622" lon="-14.01082">
        <ele>223.8</ele>
        <time>2021-07-05 09:34:16</time>
      </trkpt>
      <trkpt lat="28.39626" lon="-14.01081">
        <ele>224</ele>
        <time>2021-07-05 09:34:17</time>
      </trkpt>
      <trkpt lat="28.39629" lon="-14.0108">
        <ele>224</ele>
        <time>2021-07-05 09:34:18</time>
      </trkpt>
      <trkpt lat="28.39633" lon="-14.0108">
        <ele>224</ele>
        <time>2021-07-05 09:34:19</time>
      </trkpt>
      <trkpt lat="28.39637" lon="-14.01079">
        <ele>224</ele>
        <time>2021-07-05 09:34:20</time>
      </trkpt>
      <trkpt lat="28.39641" lon="-14.01078">
        <ele>224</ele>
        <time>2021-07-05 09:34:21</time>
      </trkpt>
      <trkpt lat="28.39645" lon="-14.01077">
        <ele>224</ele>
        <time>2021-07-05 09:34:22</time>
      </trkpt>
      <trkpt lat="28.39648" lon="-14.01077">
        <ele>224</ele>
        <time>2021-07-05 09:34:23</time>
      </trkpt>
      <trkpt lat="28.39652" lon="-14.01076">
        <ele>224</ele>
        <time>2021-07-05 09:34:24</time>
      </trkpt>
      <trkpt lat="28.39656" lon="-14.01076">
        <ele>224</ele>
        <time>2021-07-05 09:34:25</time>
      </trkpt>
      <trkpt lat="28.3966" lon="-14.01076">
        <ele>224</ele>
        <time>2021-07-05 09:34:26</time>
      </trkpt>
      <trkpt lat="28.39664" lon="-14.01075">
        <ele>224</ele>
        <time>2021-07-05 09:34:27</time>
      </trkpt>
      <trkpt lat="28.39668" lon="-14.01074">
        <ele>224</ele>
        <time>2021-07-05 09:34:28</time>
      </trkpt>
      <trkpt lat="28.39673" lon="-14.01073">
        <ele>223.6</ele>
        <time>2021-07-05 09:34:29</time>
      </trkpt>
      <trkpt lat="28.39677" lon="-14.01072">
        <ele>223.6</ele>
        <time>2021-07-05 09:34:30</time>
      </trkpt>
      <trkpt lat="28.39681" lon="-14.01071">
        <ele>223.4</ele>
        <time>2021-07-05 09:34:31</time>
      </trkpt>
      <trkpt lat="28.39685" lon="-14.01071">
        <ele>223</ele>
        <time>2021-07-05 09:34:32</time>
      </trkpt>
      <trkpt lat="28.3969" lon="-14.01071">
        <ele>222.8</ele>
        <time>2021-07-05 09:34:33</time>
      </trkpt>
      <trkpt lat="28.39694" lon="-14.01071">
        <ele>222.8</ele>
        <time>2021-07-05 09:34:34</time>
      </trkpt>
      <trkpt lat="28.39699" lon="-14.01071">
        <ele>222.8</ele>
        <time>2021-07-05 09:34:35</time>
      </trkpt>
      <trkpt lat="28.39703" lon="-14.0107">
        <ele>222.4</ele>
        <time>2021-07-05 09:34:36</time>
      </trkpt>
      <trkpt lat="28.39707" lon="-14.0107">
        <ele>222.4</ele>
        <time>2021-07-05 09:34:37</time>
      </trkpt>
      <trkpt lat="28.39712" lon="-14.01069">
        <ele>222</ele>
        <time>2021-07-05 09:34:38</time>
      </trkpt>
      <trkpt lat="28.39716" lon="-14.01068">
        <ele>221.6</ele>
        <time>2021-07-05 09:34:39</time>
      </trkpt>
      <trkpt lat="28.39721" lon="-14.01067">
        <ele>221.6</ele>
        <time>2021-07-05 09:34:40</time>
      </trkpt>
      <trkpt lat="28.39725" lon="-14.01067">
        <ele>221.4</ele>
        <time>2021-07-05 09:34:41</time>
      </trkpt>
      <trkpt lat="28.39729" lon="-14.01066">
        <ele>221.4</ele>
        <time>2021-07-05 09:34:42</time>
      </trkpt>
      <trkpt lat="28.39734" lon="-14.01065">
        <ele>221.4</ele>
        <time>2021-07-05 09:34:43</time>
      </trkpt>
      <trkpt lat="28.39738" lon="-14.01064">
        <ele>221</ele>
        <time>2021-07-05 09:34:44</time>
      </trkpt>
      <trkpt lat="28.39743" lon="-14.01063">
        <ele>221</ele>
        <time>2021-07-05 09:34:45</time>
      </trkpt>
      <trkpt lat="28.39747" lon="-14.01061">
        <ele>220.8</ele>
        <time>2021-07-05 09:34:46</time>
      </trkpt>
      <trkpt lat="28.39752" lon="-14.0106">
        <ele>220.8</ele>
        <time>2021-07-05 09:34:47</time>
      </trkpt>
      <trkpt lat="28.39756" lon="-14.01058">
        <ele>220.8</ele>
        <time>2021-07-05 09:34:48</time>
      </trkpt>
      <trkpt lat="28.3976" lon="-14.01057">
        <ele>220.4</ele>
        <time>2021-07-05 09:34:49</time>
      </trkpt>
      <trkpt lat="28.39765" lon="-14.01056">
        <ele>220.4</ele>
        <time>2021-07-05 09:34:50</time>
      </trkpt>
      <trkpt lat="28.39769" lon="-14.01054">
        <ele>220.2</ele>
        <time>2021-07-05 09:34:51</time>
      </trkpt>
      <trkpt lat="28.39773" lon="-14.01053">
        <ele>220.2</ele>
        <time>2021-07-05 09:34:52</time>
      </trkpt>
      <trkpt lat="28.39778" lon="-14.01052">
        <ele>220.2</ele>
        <time>2021-07-05 09:34:53</time>
      </trkpt>
      <trkpt lat="28.39782" lon="-14.0105">
        <ele>220.2</ele>
        <time>2021-07-05 09:34:54</time>
      </trkpt>
      <trkpt lat="28.39786" lon="-14.01049">
        <ele>220</ele>
        <time>2021-07-05 09:34:55</time>
      </trkpt>
      <trkpt lat="28.39791" lon="-14.01048">
        <ele>220</ele>
        <time>2021-07-05 09:34:56</time>
      </trkpt>
      <trkpt lat="28.39795" lon="-14.01047">
        <ele>220</ele>
        <time>2021-07-05 09:34:57</time>
      </trkpt>
      <trkpt lat="28.39799" lon="-14.01045">
        <ele>220</ele>
        <time>2021-07-05 09:34:58</time>
      </trkpt>
      <trkpt lat="28.39803" lon="-14.01043">
        <ele>219.6</ele>
        <time>2021-07-05 09:34:59</time>
      </trkpt>
      <trkpt lat="28.39808" lon="-14.01042">
        <ele>219.6</ele>
        <time>2021-07-05 09:35:00</time>
      </trkpt>
      <trkpt lat="28.39812" lon="-14.0104">
        <ele>219.6</ele>
        <time>2021-07-05 09:35:01</time>
      </trkpt>
      <trkpt lat="28.39817" lon="-14.01039">
        <ele>219.6</ele>
        <time>2021-07-05 09:35:02</time>
      </trkpt>
      <trkpt lat="28.39821" lon="-14.01038">
        <ele>219.6</ele>
        <time>2021-07-05 09:35:03</time>
      </trkpt>
      <trkpt lat="28.39825" lon="-14.01036">
        <ele>219.6</ele>
        <time>2021-07-05 09:35:04</time>
      </trkpt>
      <trkpt lat="28.39829" lon="-14.01035">
        <ele>219.6</ele>
        <time>2021-07-05 09:35:05</time>
      </trkpt>
      <trkpt lat="28.39833" lon="-14.01033">
        <ele>220</ele>
        <time>2021-07-05 09:35:06</time>
      </trkpt>
      <trkpt lat="28.39837" lon="-14.01033">
        <ele>220</ele>
        <time>2021-07-05 09:35:07</time>
      </trkpt>
      <trkpt lat="28.39841" lon="-14.01031">
        <ele>220</ele>
        <time>2021-07-05 09:35:08</time>
      </trkpt>
      <trkpt lat="28.39845" lon="-14.0103">
        <ele>220</ele>
        <time>2021-07-05 09:35:09</time>
      </trkpt>
      <trkpt lat="28.39849" lon="-14.01029">
        <ele>220.2</ele>
        <time>2021-07-05 09:35:10</time>
      </trkpt>
      <trkpt lat="28.39853" lon="-14.01028">
        <ele>220.2</ele>
        <time>2021-07-05 09:35:11</time>
      </trkpt>
      <trkpt lat="28.39857" lon="-14.01028">
        <ele>220.4</ele>
        <time>2021-07-05 09:35:12</time>
      </trkpt>
      <trkpt lat="28.39861" lon="-14.01027">
        <ele>220.4</ele>
        <time>2021-07-05 09:35:13</time>
      </trkpt>
      <trkpt lat="28.39865" lon="-14.01027">
        <ele>220.4</ele>
        <time>2021-07-05 09:35:14</time>
      </trkpt>
      <trkpt lat="28.3987" lon="-14.01026">
        <ele>220.6</ele>
        <time>2021-07-05 09:35:15</time>
      </trkpt>
      <trkpt lat="28.39874" lon="-14.01026">
        <ele>220.6</ele>
        <time>2021-07-05 09:35:16</time>
      </trkpt>
      <trkpt lat="28.39878" lon="-14.01025">
        <ele>220.6</ele>
        <time>2021-07-05 09:35:17</time>
      </trkpt>
      <trkpt lat="28.39882" lon="-14.01025">
        <ele>220.6</ele>
        <time>2021-07-05 09:35:18</time>
      </trkpt>
      <trkpt lat="28.39886" lon="-14.01024">
        <ele>220.6</ele>
        <time>2021-07-05 09:35:19</time>
      </trkpt>
      <trkpt lat="28.3989" lon="-14.01024">
        <ele>220.8</ele>
        <time>2021-07-05 09:35:20</time>
      </trkpt>
      <trkpt lat="28.39894" lon="-14.01024">
        <ele>220.8</ele>
        <time>2021-07-05 09:35:21</time>
      </trkpt>
      <trkpt lat="28.39898" lon="-14.01024">
        <ele>220.8</ele>
        <time>2021-07-05 09:35:22</time>
      </trkpt>
      <trkpt lat="28.39902" lon="-14.01024">
        <ele>220.8</ele>
        <time>2021-07-05 09:35:23</time>
      </trkpt>
      <trkpt lat="28.39906" lon="-14.01024">
        <ele>220.8</ele>
        <time>2021-07-05 09:35:24</time>
      </trkpt>
      <trkpt lat="28.39911" lon="-14.01024">
        <ele>220.8</ele>
        <time>2021-07-05 09:35:25</time>
      </trkpt>
      <trkpt lat="28.39915" lon="-14.01024">
        <ele>220.8</ele>
        <time>2021-07-05 09:35:26</time>
      </trkpt>
      <trkpt lat="28.39919" lon="-14.01023">
        <ele>220.6</ele>
        <time>2021-07-05 09:35:27</time>
      </trkpt>
      <trkpt lat="28.39924" lon="-14.01022">
        <ele>220.6</ele>
        <time>2021-07-05 09:35:28</time>
      </trkpt>
      <trkpt lat="28.39928" lon="-14.01022">
        <ele>220.4</ele>
        <time>2021-07-05 09:35:29</time>
      </trkpt>
      <trkpt lat="28.39933" lon="-14.01021">
        <ele>220.4</ele>
        <time>2021-07-05 09:35:30</time>
      </trkpt>
      <trkpt lat="28.39937" lon="-14.0102">
        <ele>220.2</ele>
        <time>2021-07-05 09:35:31</time>
      </trkpt>
      <trkpt lat="28.39941" lon="-14.01019">
        <ele>220.2</ele>
        <time>2021-07-05 09:35:32</time>
      </trkpt>
      <trkpt lat="28.39945" lon="-14.01018">
        <ele>220.2</ele>
        <time>2021-07-05 09:35:33</time>
      </trkpt>
      <trkpt lat="28.39949" lon="-14.01017">
        <ele>220.2</ele>
        <time>2021-07-05 09:35:34</time>
      </trkpt>
      <trkpt lat="28.39953" lon="-14.01016">
        <ele>220.2</ele>
        <time>2021-07-05 09:35:35</time>
      </trkpt>
      <trkpt lat="28.39957" lon="-14.01015">
        <ele>220.2</ele>
        <time>2021-07-05 09:35:36</time>
      </trkpt>
      <trkpt lat="28.3996" lon="-14.01014">
        <ele>220.2</ele>
        <time>2021-07-05 09:35:37</time>
      </trkpt>
      <trkpt lat="28.39964" lon="-14.01013">
        <ele>220.2</ele>
        <time>2021-07-05 09:35:38</time>
      </trkpt>
      <trkpt lat="28.39968" lon="-14.01012">
        <ele>220.2</ele>
        <time>2021-07-05 09:35:39</time>
      </trkpt>
      <trkpt lat="28.39972" lon="-14.01011">
        <ele>220.2</ele>
        <time>2021-07-05 09:35:40</time>
      </trkpt>
      <trkpt lat="28.39975" lon="-14.01009">
        <ele>220.2</ele>
        <time>2021-07-05 09:35:41</time>
      </trkpt>
      <trkpt lat="28.39979" lon="-14.01008">
        <ele>220.2</ele>
        <time>2021-07-05 09:35:42</time>
      </trkpt>
      <trkpt lat="28.39983" lon="-14.01007">
        <ele>220.2</ele>
        <time>2021-07-05 09:35:43</time>
      </trkpt>
      <trkpt lat="28.39987" lon="-14.01006">
        <ele>220.2</ele>
        <time>2021-07-05 09:35:44</time>
      </trkpt>
      <trkpt lat="28.39991" lon="-14.01005">
        <ele>220.4</ele>
        <time>2021-07-05 09:35:45</time>
      </trkpt>
      <trkpt lat="28.39995" lon="-14.01004">
        <ele>220.4</ele>
        <time>2021-07-05 09:35:46</time>
      </trkpt>
      <trkpt lat="28.39999" lon="-14.01003">
        <ele>220.4</ele>
        <time>2021-07-05 09:35:47</time>
      </trkpt>
      <trkpt lat="28.40003" lon="-14.01001">
        <ele>220.4</ele>
        <time>2021-07-05 09:35:48</time>
      </trkpt>
      <trkpt lat="28.40007" lon="-14.01">
        <ele>220.8</ele>
        <time>2021-07-05 09:35:49</time>
      </trkpt>
      <trkpt lat="28.40011" lon="-14.00999">
        <ele>220.8</ele>
        <time>2021-07-05 09:35:50</time>
      </trkpt>
      <trkpt lat="28.40015" lon="-14.00998">
        <ele>220.8</ele>
        <time>2021-07-05 09:35:51</time>
      </trkpt>
      <trkpt lat="28.40019" lon="-14.00996">
        <ele>220.8</ele>
        <time>2021-07-05 09:35:52</time>
      </trkpt>
      <trkpt lat="28.40023" lon="-14.00995">
        <ele>220.8</ele>
        <time>2021-07-05 09:35:53</time>
      </trkpt>
      <trkpt lat="28.40027" lon="-14.00994">
        <ele>220.8</ele>
        <time>2021-07-05 09:35:54</time>
      </trkpt>
      <trkpt lat="28.40031" lon="-14.00992">
        <ele>220.8</ele>
        <time>2021-07-05 09:35:55</time>
      </trkpt>
      <trkpt lat="28.40035" lon="-14.00991">
        <ele>220.8</ele>
        <time>2021-07-05 09:35:56</time>
      </trkpt>
      <trkpt lat="28.40039" lon="-14.0099">
        <ele>220.8</ele>
        <time>2021-07-05 09:35:57</time>
      </trkpt>
      <trkpt lat="28.40043" lon="-14.00988">
        <ele>220.8</ele>
        <time>2021-07-05 09:35:58</time>
      </trkpt>
      <trkpt lat="28.40047" lon="-14.00987">
        <ele>220.8</ele>
        <time>2021-07-05 09:35:59</time>
      </trkpt>
      <trkpt lat="28.40051" lon="-14.00986">
        <ele>220.8</ele>
        <time>2021-07-05 09:36:00</time>
      </trkpt>
      <trkpt lat="28.40055" lon="-14.00984">
        <ele>220.8</ele>
        <time>2021-07-05 09:36:01</time>
      </trkpt>
      <trkpt lat="28.40059" lon="-14.00983">
        <ele>220.8</ele>
        <time>2021-07-05 09:36:02</time>
      </trkpt>
      <trkpt lat="28.40063" lon="-14.00982">
        <ele>220.8</ele>
        <time>2021-07-05 09:36:03</time>
      </trkpt>
      <trkpt lat="28.40067" lon="-14.0098">
        <ele>220.8</ele>
        <time>2021-07-05 09:36:04</time>
      </trkpt>
      <trkpt lat="28.40071" lon="-14.00979">
        <ele>220.8</ele>
        <time>2021-07-05 09:36:05</time>
      </trkpt>
      <trkpt lat="28.40074" lon="-14.00978">
        <ele>220.8</ele>
        <time>2021-07-05 09:36:06</time>
      </trkpt>
      <trkpt lat="28.40078" lon="-14.00976">
        <ele>220.8</ele>
        <time>2021-07-05 09:36:07</time>
      </trkpt>
      <trkpt lat="28.40082" lon="-14.00975">
        <ele>220.8</ele>
        <time>2021-07-05 09:36:08</time>
      </trkpt>
      <trkpt lat="28.40086" lon="-14.00974">
        <ele>220.8</ele>
        <time>2021-07-05 09:36:09</time>
      </trkpt>
      <trkpt lat="28.40089" lon="-14.00973">
        <ele>220.8</ele>
        <time>2021-07-05 09:36:10</time>
      </trkpt>
      <trkpt lat="28.40093" lon="-14.00972">
        <ele>221</ele>
        <time>2021-07-05 09:36:11</time>
      </trkpt>
      <trkpt lat="28.40097" lon="-14.00971">
        <ele>221</ele>
        <time>2021-07-05 09:36:12</time>
      </trkpt>
      <trkpt lat="28.40101" lon="-14.0097">
        <ele>221</ele>
        <time>2021-07-05 09:36:13</time>
      </trkpt>
      <trkpt lat="28.40105" lon="-14.00969">
        <ele>221</ele>
        <time>2021-07-05 09:36:14</time>
      </trkpt>
      <trkpt lat="28.4011" lon="-14.00968">
        <ele>221</ele>
        <time>2021-07-05 09:36:15</time>
      </trkpt>
      <trkpt lat="28.40114" lon="-14.00967">
        <ele>221</ele>
        <time>2021-07-05 09:36:16</time>
      </trkpt>
      <trkpt lat="28.40118" lon="-14.00966">
        <ele>221</ele>
        <time>2021-07-05 09:36:17</time>
      </trkpt>
      <trkpt lat="28.40122" lon="-14.00965">
        <ele>220.8</ele>
        <time>2021-07-05 09:36:18</time>
      </trkpt>
      <trkpt lat="28.40126" lon="-14.00963">
        <ele>220.8</ele>
        <time>2021-07-05 09:36:19</time>
      </trkpt>
      <trkpt lat="28.4013" lon="-14.00962">
        <ele>220.8</ele>
        <time>2021-07-05 09:36:20</time>
      </trkpt>
      <trkpt lat="28.40134" lon="-14.00961">
        <ele>220.8</ele>
        <time>2021-07-05 09:36:21</time>
      </trkpt>
      <trkpt lat="28.40138" lon="-14.0096">
        <ele>220.4</ele>
        <time>2021-07-05 09:36:22</time>
      </trkpt>
      <trkpt lat="28.40142" lon="-14.00959">
        <ele>220.4</ele>
        <time>2021-07-05 09:36:23</time>
      </trkpt>
      <trkpt lat="28.40145" lon="-14.00958">
        <ele>220.4</ele>
        <time>2021-07-05 09:36:24</time>
      </trkpt>
      <trkpt lat="28.40148" lon="-14.00958">
        <ele>220.4</ele>
        <time>2021-07-05 09:36:25</time>
      </trkpt>
      <trkpt lat="28.40152" lon="-14.00958">
        <ele>220.4</ele>
        <time>2021-07-05 09:36:26</time>
      </trkpt>
      <trkpt lat="28.40155" lon="-14.00957">
        <ele>220.4</ele>
        <time>2021-07-05 09:36:27</time>
      </trkpt>
      <trkpt lat="28.40159" lon="-14.00957">
        <ele>220.4</ele>
        <time>2021-07-05 09:36:28</time>
      </trkpt>
      <trkpt lat="28.40163" lon="-14.00958">
        <ele>220.4</ele>
        <time>2021-07-05 09:36:29</time>
      </trkpt>
      <trkpt lat="28.40167" lon="-14.00958">
        <ele>220.4</ele>
        <time>2021-07-05 09:36:30</time>
      </trkpt>
      <trkpt lat="28.4017" lon="-14.00959">
        <ele>220.4</ele>
        <time>2021-07-05 09:36:31</time>
      </trkpt>
      <trkpt lat="28.40174" lon="-14.0096">
        <ele>220.8</ele>
        <time>2021-07-05 09:36:32</time>
      </trkpt>
      <trkpt lat="28.40177" lon="-14.0096">
        <ele>220.8</ele>
        <time>2021-07-05 09:36:33</time>
      </trkpt>
      <trkpt lat="28.40181" lon="-14.00962">
        <ele>221</ele>
        <time>2021-07-05 09:36:34</time>
      </trkpt>
      <trkpt lat="28.40184" lon="-14.00963">
        <ele>221</ele>
        <time>2021-07-05 09:36:35</time>
      </trkpt>
      <trkpt lat="28.40188" lon="-14.00963">
        <ele>221</ele>
        <time>2021-07-05 09:36:36</time>
      </trkpt>
      <trkpt lat="28.40191" lon="-14.00964">
        <ele>221</ele>
        <time>2021-07-05 09:36:37</time>
      </trkpt>
      <trkpt lat="28.40195" lon="-14.00965">
        <ele>221</ele>
        <time>2021-07-05 09:36:38</time>
      </trkpt>
      <trkpt lat="28.40199" lon="-14.00966">
        <ele>221</ele>
        <time>2021-07-05 09:36:39</time>
      </trkpt>
      <trkpt lat="28.40202" lon="-14.00967">
        <ele>221</ele>
        <time>2021-07-05 09:36:40</time>
      </trkpt>
      <trkpt lat="28.40206" lon="-14.00968">
        <ele>221</ele>
        <time>2021-07-05 09:36:41</time>
      </trkpt>
      <trkpt lat="28.4021" lon="-14.00969">
        <ele>221</ele>
        <time>2021-07-05 09:36:42</time>
      </trkpt>
      <trkpt lat="28.40213" lon="-14.00971">
        <ele>221.2</ele>
        <time>2021-07-05 09:36:43</time>
      </trkpt>
      <trkpt lat="28.40217" lon="-14.00972">
        <ele>221.2</ele>
        <time>2021-07-05 09:36:44</time>
      </trkpt>
      <trkpt lat="28.4022" lon="-14.00973">
        <ele>221.2</ele>
        <time>2021-07-05 09:36:45</time>
      </trkpt>
      <trkpt lat="28.40223" lon="-14.00974">
        <ele>221.4</ele>
        <time>2021-07-05 09:36:46</time>
      </trkpt>
      <trkpt lat="28.40227" lon="-14.00975">
        <ele>221.4</ele>
        <time>2021-07-05 09:36:47</time>
      </trkpt>
      <trkpt lat="28.4023" lon="-14.00976">
        <ele>221.4</ele>
        <time>2021-07-05 09:36:48</time>
      </trkpt>
      <trkpt lat="28.40233" lon="-14.00978">
        <ele>221.4</ele>
        <time>2021-07-05 09:36:49</time>
      </trkpt>
      <trkpt lat="28.40237" lon="-14.00979">
        <ele>221.6</ele>
        <time>2021-07-05 09:36:50</time>
      </trkpt>
      <trkpt lat="28.4024" lon="-14.0098">
        <ele>221.6</ele>
        <time>2021-07-05 09:36:51</time>
      </trkpt>
      <trkpt lat="28.40244" lon="-14.00981">
        <ele>221.6</ele>
        <time>2021-07-05 09:36:52</time>
      </trkpt>
      <trkpt lat="28.40247" lon="-14.00982">
        <ele>221.6</ele>
        <time>2021-07-05 09:36:53</time>
      </trkpt>
      <trkpt lat="28.40251" lon="-14.00984">
        <ele>221.6</ele>
        <time>2021-07-05 09:36:54</time>
      </trkpt>
      <trkpt lat="28.40255" lon="-14.00985">
        <ele>221.6</ele>
        <time>2021-07-05 09:36:55</time>
      </trkpt>
      <trkpt lat="28.40258" lon="-14.00986">
        <ele>221.6</ele>
        <time>2021-07-05 09:36:56</time>
      </trkpt>
      <trkpt lat="28.40262" lon="-14.00988">
        <ele>221.6</ele>
        <time>2021-07-05 09:36:57</time>
      </trkpt>
      <trkpt lat="28.40266" lon="-14.00989">
        <ele>221.6</ele>
        <time>2021-07-05 09:36:58</time>
      </trkpt>
      <trkpt lat="28.4027" lon="-14.0099">
        <ele>221.6</ele>
        <time>2021-07-05 09:36:59</time>
      </trkpt>
      <trkpt lat="28.40274" lon="-14.00992">
        <ele>221.6</ele>
        <time>2021-07-05 09:37:00</time>
      </trkpt>
      <trkpt lat="28.40278" lon="-14.00993">
        <ele>221.6</ele>
        <time>2021-07-05 09:37:01</time>
      </trkpt>
      <trkpt lat="28.40282" lon="-14.00994">
        <ele>221.4</ele>
        <time>2021-07-05 09:37:02</time>
      </trkpt>
      <trkpt lat="28.40287" lon="-14.00995">
        <ele>221.4</ele>
        <time>2021-07-05 09:37:03</time>
      </trkpt>
      <trkpt lat="28.40291" lon="-14.00997">
        <ele>221.2</ele>
        <time>2021-07-05 09:37:04</time>
      </trkpt>
      <trkpt lat="28.40295" lon="-14.00998">
        <ele>221.2</ele>
        <time>2021-07-05 09:37:05</time>
      </trkpt>
      <trkpt lat="28.40299" lon="-14.00999">
        <ele>221.2</ele>
        <time>2021-07-05 09:37:06</time>
      </trkpt>
      <trkpt lat="28.40303" lon="-14.01">
        <ele>221.2</ele>
        <time>2021-07-05 09:37:07</time>
      </trkpt>
      <trkpt lat="28.40307" lon="-14.01001">
        <ele>221.2</ele>
        <time>2021-07-05 09:37:08</time>
      </trkpt>
      <trkpt lat="28.40311" lon="-14.01003">
        <ele>221.2</ele>
        <time>2021-07-05 09:37:09</time>
      </trkpt>
      <trkpt lat="28.40315" lon="-14.01004">
        <ele>221.2</ele>
        <time>2021-07-05 09:37:10</time>
      </trkpt>
      <trkpt lat="28.40319" lon="-14.01005">
        <ele>221.2</ele>
        <time>2021-07-05 09:37:11</time>
      </trkpt>
      <trkpt lat="28.40323" lon="-14.01007">
        <ele>221.2</ele>
        <time>2021-07-05 09:37:12</time>
      </trkpt>
      <trkpt lat="28.40327" lon="-14.01008">
        <ele>221.4</ele>
        <time>2021-07-05 09:37:13</time>
      </trkpt>
      <trkpt lat="28.4033" lon="-14.01009">
        <ele>221.4</ele>
        <time>2021-07-05 09:37:14</time>
      </trkpt>
      <trkpt lat="28.40334" lon="-14.0101">
        <ele>221.4</ele>
        <time>2021-07-05 09:37:15</time>
      </trkpt>
      <trkpt lat="28.40338" lon="-14.01011">
        <ele>221.4</ele>
        <time>2021-07-05 09:37:16</time>
      </trkpt>
      <trkpt lat="28.40342" lon="-14.01012">
        <ele>221.4</ele>
        <time>2021-07-05 09:37:17</time>
      </trkpt>
      <trkpt lat="28.40345" lon="-14.01013">
        <ele>221.6</ele>
        <time>2021-07-05 09:37:18</time>
      </trkpt>
      <trkpt lat="28.40349" lon="-14.01014">
        <ele>221.6</ele>
        <time>2021-07-05 09:37:19</time>
      </trkpt>
      <trkpt lat="28.40353" lon="-14.01014">
        <ele>221.6</ele>
        <time>2021-07-05 09:37:20</time>
      </trkpt>
      <trkpt lat="28.40357" lon="-14.01015">
        <ele>221.6</ele>
        <time>2021-07-05 09:37:21</time>
      </trkpt>
      <trkpt lat="28.40361" lon="-14.01016">
        <ele>221.6</ele>
        <time>2021-07-05 09:37:22</time>
      </trkpt>
      <trkpt lat="28.40364" lon="-14.01016">
        <ele>221.6</ele>
        <time>2021-07-05 09:37:23</time>
      </trkpt>
      <trkpt lat="28.40368" lon="-14.01017">
        <ele>222</ele>
        <time>2021-07-05 09:37:24</time>
      </trkpt>
      <trkpt lat="28.40372" lon="-14.01018">
        <ele>222.2</ele>
        <time>2021-07-05 09:37:25</time>
      </trkpt>
      <trkpt lat="28.40376" lon="-14.01019">
        <ele>222.2</ele>
        <time>2021-07-05 09:37:26</time>
      </trkpt>
      <trkpt lat="28.40379" lon="-14.01019">
        <ele>222.2</ele>
        <time>2021-07-05 09:37:27</time>
      </trkpt>
      <trkpt lat="28.40383" lon="-14.0102">
        <ele>222.4</ele>
        <time>2021-07-05 09:37:28</time>
      </trkpt>
      <trkpt lat="28.40386" lon="-14.01021">
        <ele>222.4</ele>
        <time>2021-07-05 09:37:29</time>
      </trkpt>
      <trkpt lat="28.4039" lon="-14.01022">
        <ele>222.8</ele>
        <time>2021-07-05 09:37:30</time>
      </trkpt>
      <trkpt lat="28.40394" lon="-14.01023">
        <ele>222.8</ele>
        <time>2021-07-05 09:37:31</time>
      </trkpt>
      <trkpt lat="28.40397" lon="-14.01023">
        <ele>222.8</ele>
        <time>2021-07-05 09:37:32</time>
      </trkpt>
      <trkpt lat="28.40401" lon="-14.01024">
        <ele>222.8</ele>
        <time>2021-07-05 09:37:33</time>
      </trkpt>
      <trkpt lat="28.40405" lon="-14.01025">
        <ele>222.8</ele>
        <time>2021-07-05 09:37:34</time>
      </trkpt>
      <trkpt lat="28.40409" lon="-14.01026">
        <ele>222.8</ele>
        <time>2021-07-05 09:37:35</time>
      </trkpt>
      <trkpt lat="28.40412" lon="-14.01028">
        <ele>222.8</ele>
        <time>2021-07-05 09:37:36</time>
      </trkpt>
      <trkpt lat="28.40416" lon="-14.01029">
        <ele>223</ele>
        <time>2021-07-05 09:37:37</time>
      </trkpt>
      <trkpt lat="28.4042" lon="-14.0103">
        <ele>223</ele>
        <time>2021-07-05 09:37:38</time>
      </trkpt>
      <trkpt lat="28.40423" lon="-14.01032">
        <ele>223</ele>
        <time>2021-07-05 09:37:39</time>
      </trkpt>
      <trkpt lat="28.40427" lon="-14.01033">
        <ele>223</ele>
        <time>2021-07-05 09:37:40</time>
      </trkpt>
      <trkpt lat="28.40431" lon="-14.01034">
        <ele>223</ele>
        <time>2021-07-05 09:37:41</time>
      </trkpt>
      <trkpt lat="28.40434" lon="-14.01035">
        <ele>223</ele>
        <time>2021-07-05 09:37:42</time>
      </trkpt>
      <trkpt lat="28.40438" lon="-14.01036">
        <ele>223</ele>
        <time>2021-07-05 09:37:43</time>
      </trkpt>
      <trkpt lat="28.40441" lon="-14.01038">
        <ele>223</ele>
        <time>2021-07-05 09:37:44</time>
      </trkpt>
      <trkpt lat="28.40445" lon="-14.01039">
        <ele>223</ele>
        <time>2021-07-05 09:37:45</time>
      </trkpt>
      <trkpt lat="28.40448" lon="-14.0104">
        <ele>223</ele>
        <time>2021-07-05 09:37:46</time>
      </trkpt>
      <trkpt lat="28.40452" lon="-14.01042">
        <ele>223</ele>
        <time>2021-07-05 09:37:47</time>
      </trkpt>
      <trkpt lat="28.40455" lon="-14.01042">
        <ele>223</ele>
        <time>2021-07-05 09:37:48</time>
      </trkpt>
      <trkpt lat="28.40459" lon="-14.01043">
        <ele>223</ele>
        <time>2021-07-05 09:37:49</time>
      </trkpt>
      <trkpt lat="28.40462" lon="-14.01044">
        <ele>223.2</ele>
        <time>2021-07-05 09:37:50</time>
      </trkpt>
      <trkpt lat="28.40466" lon="-14.01045">
        <ele>223.2</ele>
        <time>2021-07-05 09:37:51</time>
      </trkpt>
      <trkpt lat="28.4047" lon="-14.01045">
        <ele>223.6</ele>
        <time>2021-07-05 09:37:52</time>
      </trkpt>
      <trkpt lat="28.40473" lon="-14.01046">
        <ele>223.6</ele>
        <time>2021-07-05 09:37:53</time>
      </trkpt>
      <trkpt lat="28.40477" lon="-14.01047">
        <ele>223.8</ele>
        <time>2021-07-05 09:37:54</time>
      </trkpt>
      <trkpt lat="28.40481" lon="-14.01047">
        <ele>223.8</ele>
        <time>2021-07-05 09:37:55</time>
      </trkpt>
      <trkpt lat="28.40484" lon="-14.01048">
        <ele>224</ele>
        <time>2021-07-05 09:37:56</time>
      </trkpt>
      <trkpt lat="28.40488" lon="-14.01049">
        <ele>224</ele>
        <time>2021-07-05 09:37:57</time>
      </trkpt>
      <trkpt lat="28.40492" lon="-14.01051">
        <ele>224</ele>
        <time>2021-07-05 09:37:58</time>
      </trkpt>
      <trkpt lat="28.40495" lon="-14.01052">
        <ele>224</ele>
        <time>2021-07-05 09:37:59</time>
      </trkpt>
      <trkpt lat="28.40499" lon="-14.01053">
        <ele>224</ele>
        <time>2021-07-05 09:38:00</time>
      </trkpt>
      <trkpt lat="28.40503" lon="-14.01055">
        <ele>224</ele>
        <time>2021-07-05 09:38:01</time>
      </trkpt>
      <trkpt lat="28.40506" lon="-14.01056">
        <ele>224</ele>
        <time>2021-07-05 09:38:02</time>
      </trkpt>
      <trkpt lat="28.4051" lon="-14.01058">
        <ele>224</ele>
        <time>2021-07-05 09:38:03</time>
      </trkpt>
      <trkpt lat="28.40514" lon="-14.01059">
        <ele>224</ele>
        <time>2021-07-05 09:38:04</time>
      </trkpt>
      <trkpt lat="28.40517" lon="-14.01061">
        <ele>224</ele>
        <time>2021-07-05 09:38:05</time>
      </trkpt>
      <trkpt lat="28.40521" lon="-14.01063">
        <ele>224</ele>
        <time>2021-07-05 09:38:06</time>
      </trkpt>
      <trkpt lat="28.40524" lon="-14.01065">
        <ele>224</ele>
        <time>2021-07-05 09:38:07</time>
      </trkpt>
      <trkpt lat="28.40528" lon="-14.01066">
        <ele>224</ele>
        <time>2021-07-05 09:38:08</time>
      </trkpt>
      <trkpt lat="28.40532" lon="-14.01068">
        <ele>224</ele>
        <time>2021-07-05 09:38:09</time>
      </trkpt>
      <trkpt lat="28.40535" lon="-14.01069">
        <ele>224</ele>
        <time>2021-07-05 09:38:10</time>
      </trkpt>
      <trkpt lat="28.40539" lon="-14.0107">
        <ele>224.4</ele>
        <time>2021-07-05 09:38:11</time>
      </trkpt>
      <trkpt lat="28.40543" lon="-14.01071">
        <ele>224.4</ele>
        <time>2021-07-05 09:38:12</time>
      </trkpt>
      <trkpt lat="28.40547" lon="-14.01073">
        <ele>224.4</ele>
        <time>2021-07-05 09:38:13</time>
      </trkpt>
      <trkpt lat="28.40551" lon="-14.01074">
        <ele>224.4</ele>
        <time>2021-07-05 09:38:14</time>
      </trkpt>
      <trkpt lat="28.40554" lon="-14.01075">
        <ele>224.4</ele>
        <time>2021-07-05 09:38:15</time>
      </trkpt>
      <trkpt lat="28.40558" lon="-14.01077">
        <ele>224.6</ele>
        <time>2021-07-05 09:38:16</time>
      </trkpt>
      <trkpt lat="28.40562" lon="-14.01078">
        <ele>224.6</ele>
        <time>2021-07-05 09:38:17</time>
      </trkpt>
      <trkpt lat="28.40566" lon="-14.0108">
        <ele>224.6</ele>
        <time>2021-07-05 09:38:18</time>
      </trkpt>
      <trkpt lat="28.4057" lon="-14.01081">
        <ele>224.6</ele>
        <time>2021-07-05 09:38:19</time>
      </trkpt>
      <trkpt lat="28.40574" lon="-14.01082">
        <ele>224.6</ele>
        <time>2021-07-05 09:38:20</time>
      </trkpt>
      <trkpt lat="28.40577" lon="-14.01083">
        <ele>224.6</ele>
        <time>2021-07-05 09:38:21</time>
      </trkpt>
      <trkpt lat="28.40581" lon="-14.01084">
        <ele>224.8</ele>
        <time>2021-07-05 09:38:22</time>
      </trkpt>
      <trkpt lat="28.40585" lon="-14.01085">
        <ele>224.8</ele>
        <time>2021-07-05 09:38:23</time>
      </trkpt>
      <trkpt lat="28.40589" lon="-14.01086">
        <ele>224.8</ele>
        <time>2021-07-05 09:38:24</time>
      </trkpt>
      <trkpt lat="28.40593" lon="-14.01087">
        <ele>224.8</ele>
        <time>2021-07-05 09:38:25</time>
      </trkpt>
      <trkpt lat="28.40597" lon="-14.01088">
        <ele>224.8</ele>
        <time>2021-07-05 09:38:26</time>
      </trkpt>
      <trkpt lat="28.406" lon="-14.01089">
        <ele>224.8</ele>
        <time>2021-07-05 09:38:27</time>
      </trkpt>
      <trkpt lat="28.40604" lon="-14.0109">
        <ele>225</ele>
        <time>2021-07-05 09:38:28</time>
      </trkpt>
      <trkpt lat="28.40608" lon="-14.01091">
        <ele>225</ele>
        <time>2021-07-05 09:38:29</time>
      </trkpt>
      <trkpt lat="28.40612" lon="-14.01092">
        <ele>225</ele>
        <time>2021-07-05 09:38:30</time>
      </trkpt>
      <trkpt lat="28.40615" lon="-14.01093">
        <ele>225.2</ele>
        <time>2021-07-05 09:38:31</time>
      </trkpt>
      <trkpt lat="28.40619" lon="-14.01094">
        <ele>225.2</ele>
        <time>2021-07-05 09:38:32</time>
      </trkpt>
      <trkpt lat="28.40623" lon="-14.01095">
        <ele>225.6</ele>
        <time>2021-07-05 09:38:33</time>
      </trkpt>
      <trkpt lat="28.40627" lon="-14.01096">
        <ele>225.6</ele>
        <time>2021-07-05 09:38:34</time>
      </trkpt>
      <trkpt lat="28.4063" lon="-14.01097">
        <ele>225.6</ele>
        <time>2021-07-05 09:38:35</time>
      </trkpt>
      <trkpt lat="28.40634" lon="-14.01098">
        <ele>226</ele>
        <time>2021-07-05 09:38:36</time>
      </trkpt>
      <trkpt lat="28.40637" lon="-14.01099">
        <ele>226</ele>
        <time>2021-07-05 09:38:37</time>
      </trkpt>
      <trkpt lat="28.40641" lon="-14.011">
        <ele>226</ele>
        <time>2021-07-05 09:38:38</time>
      </trkpt>
      <trkpt lat="28.40644" lon="-14.01102">
        <ele>226.4</ele>
        <time>2021-07-05 09:38:39</time>
      </trkpt>
      <trkpt lat="28.40647" lon="-14.01103">
        <ele>226.4</ele>
        <time>2021-07-05 09:38:40</time>
      </trkpt>
      <trkpt lat="28.40651" lon="-14.01104">
        <ele>226.4</ele>
        <time>2021-07-05 09:38:41</time>
      </trkpt>
      <trkpt lat="28.40654" lon="-14.01105">
        <ele>226.4</ele>
        <time>2021-07-05 09:38:42</time>
      </trkpt>
      <trkpt lat="28.40658" lon="-14.01106">
        <ele>226.4</ele>
        <time>2021-07-05 09:38:43</time>
      </trkpt>
      <trkpt lat="28.40661" lon="-14.01107">
        <ele>226.4</ele>
        <time>2021-07-05 09:38:44</time>
      </trkpt>
      <trkpt lat="28.40665" lon="-14.01108">
        <ele>226.4</ele>
        <time>2021-07-05 09:38:45</time>
      </trkpt>
      <trkpt lat="28.40668" lon="-14.0111">
        <ele>226</ele>
        <time>2021-07-05 09:38:46</time>
      </trkpt>
      <trkpt lat="28.40671" lon="-14.01111">
        <ele>226</ele>
        <time>2021-07-05 09:38:47</time>
      </trkpt>
      <trkpt lat="28.40675" lon="-14.01112">
        <ele>226</ele>
        <time>2021-07-05 09:38:48</time>
      </trkpt>
      <trkpt lat="28.40678" lon="-14.01114">
        <ele>226</ele>
        <time>2021-07-05 09:38:49</time>
      </trkpt>
      <trkpt lat="28.40682" lon="-14.01115">
        <ele>226</ele>
        <time>2021-07-05 09:38:50</time>
      </trkpt>
      <trkpt lat="28.40685" lon="-14.01117">
        <ele>226</ele>
        <time>2021-07-05 09:38:51</time>
      </trkpt>
      <trkpt lat="28.40689" lon="-14.01118">
        <ele>226</ele>
        <time>2021-07-05 09:38:52</time>
      </trkpt>
      <trkpt lat="28.40692" lon="-14.01119">
        <ele>226</ele>
        <time>2021-07-05 09:38:53</time>
      </trkpt>
      <trkpt lat="28.40696" lon="-14.01121">
        <ele>226</ele>
        <time>2021-07-05 09:38:54</time>
      </trkpt>
      <trkpt lat="28.407" lon="-14.01122">
        <ele>226</ele>
        <time>2021-07-05 09:38:55</time>
      </trkpt>
      <trkpt lat="28.40703" lon="-14.01123">
        <ele>226</ele>
        <time>2021-07-05 09:38:56</time>
      </trkpt>
      <trkpt lat="28.40707" lon="-14.01125">
        <ele>226</ele>
        <time>2021-07-05 09:38:57</time>
      </trkpt>
      <trkpt lat="28.40711" lon="-14.01126">
        <ele>225.8</ele>
        <time>2021-07-05 09:38:58</time>
      </trkpt>
      <trkpt lat="28.40714" lon="-14.01127">
        <ele>225.8</ele>
        <time>2021-07-05 09:38:59</time>
      </trkpt>
      <trkpt lat="28.40718" lon="-14.01128">
        <ele>225.8</ele>
        <time>2021-07-05 09:39:00</time>
      </trkpt>
      <trkpt lat="28.40722" lon="-14.01129">
        <ele>225.6</ele>
        <time>2021-07-05 09:39:01</time>
      </trkpt>
      <trkpt lat="28.40726" lon="-14.01131">
        <ele>225.6</ele>
        <time>2021-07-05 09:39:02</time>
      </trkpt>
      <trkpt lat="28.4073" lon="-14.01132">
        <ele>225.6</ele>
        <time>2021-07-05 09:39:03</time>
      </trkpt>
      <trkpt lat="28.40733" lon="-14.01134">
        <ele>225.6</ele>
        <time>2021-07-05 09:39:04</time>
      </trkpt>
      <trkpt lat="28.40737" lon="-14.01135">
        <ele>225.6</ele>
        <time>2021-07-05 09:39:05</time>
      </trkpt>
      <trkpt lat="28.40741" lon="-14.01136">
        <ele>225.8</ele>
        <time>2021-07-05 09:39:06</time>
      </trkpt>
      <trkpt lat="28.40745" lon="-14.01137">
        <ele>225.8</ele>
        <time>2021-07-05 09:39:07</time>
      </trkpt>
      <trkpt lat="28.40748" lon="-14.01138">
        <ele>226.2</ele>
        <time>2021-07-05 09:39:08</time>
      </trkpt>
      <trkpt lat="28.40752" lon="-14.01139">
        <ele>226.2</ele>
        <time>2021-07-05 09:39:09</time>
      </trkpt>
      <trkpt lat="28.40756" lon="-14.0114">
        <ele>226.2</ele>
        <time>2021-07-05 09:39:10</time>
      </trkpt>
      <trkpt lat="28.4076" lon="-14.01141">
        <ele>226.4</ele>
        <time>2021-07-05 09:39:11</time>
      </trkpt>
      <trkpt lat="28.40764" lon="-14.01142">
        <ele>226.4</ele>
        <time>2021-07-05 09:39:12</time>
      </trkpt>
      <trkpt lat="28.40768" lon="-14.01143">
        <ele>226.4</ele>
        <time>2021-07-05 09:39:13</time>
      </trkpt>
      <trkpt lat="28.40772" lon="-14.01144">
        <ele>226.4</ele>
        <time>2021-07-05 09:39:14</time>
      </trkpt>
      <trkpt lat="28.40776" lon="-14.01144">
        <ele>226.4</ele>
        <time>2021-07-05 09:39:15</time>
      </trkpt>
      <trkpt lat="28.4078" lon="-14.01145">
        <ele>226.6</ele>
        <time>2021-07-05 09:39:16</time>
      </trkpt>
      <trkpt lat="28.40783" lon="-14.01146">
        <ele>226.6</ele>
        <time>2021-07-05 09:39:17</time>
      </trkpt>
      <trkpt lat="28.40787" lon="-14.01147">
        <ele>226.6</ele>
        <time>2021-07-05 09:39:18</time>
      </trkpt>
      <trkpt lat="28.40791" lon="-14.01148">
        <ele>226.6</ele>
        <time>2021-07-05 09:39:19</time>
      </trkpt>
      <trkpt lat="28.40795" lon="-14.01149">
        <ele>226.6</ele>
        <time>2021-07-05 09:39:20</time>
      </trkpt>
      <trkpt lat="28.40799" lon="-14.0115">
        <ele>226.6</ele>
        <time>2021-07-05 09:39:21</time>
      </trkpt>
      <trkpt lat="28.40802" lon="-14.01151">
        <ele>226.6</ele>
        <time>2021-07-05 09:39:22</time>
      </trkpt>
      <trkpt lat="28.40806" lon="-14.01152">
        <ele>226.6</ele>
        <time>2021-07-05 09:39:23</time>
      </trkpt>
      <trkpt lat="28.4081" lon="-14.01153">
        <ele>226.8</ele>
        <time>2021-07-05 09:39:24</time>
      </trkpt>
      <trkpt lat="28.40814" lon="-14.01154">
        <ele>226.8</ele>
        <time>2021-07-05 09:39:25</time>
      </trkpt>
      <trkpt lat="28.40818" lon="-14.01155">
        <ele>226.8</ele>
        <time>2021-07-05 09:39:26</time>
      </trkpt>
      <trkpt lat="28.40821" lon="-14.01156">
        <ele>227</ele>
        <time>2021-07-05 09:39:27</time>
      </trkpt>
      <trkpt lat="28.40825" lon="-14.01157">
        <ele>227</ele>
        <time>2021-07-05 09:39:28</time>
      </trkpt>
      <trkpt lat="28.40829" lon="-14.01158">
        <ele>227</ele>
        <time>2021-07-05 09:39:29</time>
      </trkpt>
      <trkpt lat="28.40833" lon="-14.01158">
        <ele>227</ele>
        <time>2021-07-05 09:39:30</time>
      </trkpt>
      <trkpt lat="28.40837" lon="-14.01159">
        <ele>227</ele>
        <time>2021-07-05 09:39:31</time>
      </trkpt>
      <trkpt lat="28.40841" lon="-14.0116">
        <ele>227</ele>
        <time>2021-07-05 09:39:32</time>
      </trkpt>
      <trkpt lat="28.40845" lon="-14.0116">
        <ele>227</ele>
        <time>2021-07-05 09:39:33</time>
      </trkpt>
      <trkpt lat="28.40849" lon="-14.01161">
        <ele>226.8</ele>
        <time>2021-07-05 09:39:34</time>
      </trkpt>
      <trkpt lat="28.40853" lon="-14.01161">
        <ele>226.8</ele>
        <time>2021-07-05 09:39:35</time>
      </trkpt>
      <trkpt lat="28.40856" lon="-14.01162">
        <ele>226.8</ele>
        <time>2021-07-05 09:39:36</time>
      </trkpt>
      <trkpt lat="28.4086" lon="-14.01162">
        <ele>226.8</ele>
        <time>2021-07-05 09:39:37</time>
      </trkpt>
      <trkpt lat="28.40864" lon="-14.01163">
        <ele>226.8</ele>
        <time>2021-07-05 09:39:38</time>
      </trkpt>
      <trkpt lat="28.40868" lon="-14.01164">
        <ele>226.8</ele>
        <time>2021-07-05 09:39:39</time>
      </trkpt>
      <trkpt lat="28.40872" lon="-14.01164">
        <ele>226.8</ele>
        <time>2021-07-05 09:39:40</time>
      </trkpt>
      <trkpt lat="28.40875" lon="-14.01165">
        <ele>226.8</ele>
        <time>2021-07-05 09:39:41</time>
      </trkpt>
      <trkpt lat="28.40879" lon="-14.01166">
        <ele>226.8</ele>
        <time>2021-07-05 09:39:42</time>
      </trkpt>
      <trkpt lat="28.40883" lon="-14.01166">
        <ele>227.2</ele>
        <time>2021-07-05 09:39:43</time>
      </trkpt>
      <trkpt lat="28.40886" lon="-14.01166">
        <ele>227.2</ele>
        <time>2021-07-05 09:39:44</time>
      </trkpt>
      <trkpt lat="28.4089" lon="-14.01167">
        <ele>227.4</ele>
        <time>2021-07-05 09:39:45</time>
      </trkpt>
      <trkpt lat="28.40894" lon="-14.01167">
        <ele>227.4</ele>
        <time>2021-07-05 09:39:46</time>
      </trkpt>
      <trkpt lat="28.40897" lon="-14.01168">
        <ele>227.8</ele>
        <time>2021-07-05 09:39:47</time>
      </trkpt>
      <trkpt lat="28.40901" lon="-14.01169">
        <ele>227.8</ele>
        <time>2021-07-05 09:39:48</time>
      </trkpt>
      <trkpt lat="28.40904" lon="-14.0117">
        <ele>227.8</ele>
        <time>2021-07-05 09:39:49</time>
      </trkpt>
      <trkpt lat="28.40908" lon="-14.01171">
        <ele>227.8</ele>
        <time>2021-07-05 09:39:50</time>
      </trkpt>
      <trkpt lat="28.40912" lon="-14.01172">
        <ele>227.8</ele>
        <time>2021-07-05 09:39:51</time>
      </trkpt>
      <trkpt lat="28.40915" lon="-14.01172">
        <ele>227.8</ele>
        <time>2021-07-05 09:39:52</time>
      </trkpt>
      <trkpt lat="28.40919" lon="-14.01173">
        <ele>227.8</ele>
        <time>2021-07-05 09:39:53</time>
      </trkpt>
      <trkpt lat="28.40922" lon="-14.01174">
        <ele>227.8</ele>
        <time>2021-07-05 09:39:54</time>
      </trkpt>
      <trkpt lat="28.40926" lon="-14.01175">
        <ele>227.8</ele>
        <time>2021-07-05 09:39:55</time>
      </trkpt>
      <trkpt lat="28.4093" lon="-14.01176">
        <ele>228</ele>
        <time>2021-07-05 09:39:56</time>
      </trkpt>
      <trkpt lat="28.40933" lon="-14.01176">
        <ele>228</ele>
        <time>2021-07-05 09:39:57</time>
      </trkpt>
      <trkpt lat="28.40937" lon="-14.01176">
        <ele>228</ele>
        <time>2021-07-05 09:39:58</time>
      </trkpt>
      <trkpt lat="28.4094" lon="-14.01176">
        <ele>228</ele>
        <time>2021-07-05 09:39:59</time>
      </trkpt>
      <trkpt lat="28.40943" lon="-14.01177">
        <ele>228</ele>
        <time>2021-07-05 09:40:00</time>
      </trkpt>
      <trkpt lat="28.40947" lon="-14.01177">
        <ele>228</ele>
        <time>2021-07-05 09:40:01</time>
      </trkpt>
      <trkpt lat="28.4095" lon="-14.01178">
        <ele>228.2</ele>
        <time>2021-07-05 09:40:02</time>
      </trkpt>
      <trkpt lat="28.40953" lon="-14.01179">
        <ele>228.2</ele>
        <time>2021-07-05 09:40:03</time>
      </trkpt>
      <trkpt lat="28.40957" lon="-14.01181">
        <ele>228.2</ele>
        <time>2021-07-05 09:40:04</time>
      </trkpt>
      <trkpt lat="28.4096" lon="-14.01182">
        <ele>228.2</ele>
        <time>2021-07-05 09:40:05</time>
      </trkpt>
      <trkpt lat="28.40963" lon="-14.01183">
        <ele>228.2</ele>
        <time>2021-07-05 09:40:06</time>
      </trkpt>
      <trkpt lat="28.40966" lon="-14.01184">
        <ele>228.4</ele>
        <time>2021-07-05 09:40:07</time>
      </trkpt>
      <trkpt lat="28.4097" lon="-14.01186">
        <ele>228.4</ele>
        <time>2021-07-05 09:40:08</time>
      </trkpt>
      <trkpt lat="28.40973" lon="-14.01187">
        <ele>228.4</ele>
        <time>2021-07-05 09:40:09</time>
      </trkpt>
      <trkpt lat="28.40977" lon="-14.01189">
        <ele>228.8</ele>
        <time>2021-07-05 09:40:10</time>
      </trkpt>
      <trkpt lat="28.4098" lon="-14.0119">
        <ele>229</ele>
        <time>2021-07-05 09:40:11</time>
      </trkpt>
      <trkpt lat="28.40983" lon="-14.01192">
        <ele>229</ele>
        <time>2021-07-05 09:40:12</time>
      </trkpt>
      <trkpt lat="28.40986" lon="-14.01194">
        <ele>229</ele>
        <time>2021-07-05 09:40:13</time>
      </trkpt>
      <trkpt lat="28.4099" lon="-14.01195">
        <ele>229</ele>
        <time>2021-07-05 09:40:14</time>
      </trkpt>
      <trkpt lat="28.40993" lon="-14.01197">
        <ele>229</ele>
        <time>2021-07-05 09:40:15</time>
      </trkpt>
      <trkpt lat="28.40996" lon="-14.01198">
        <ele>229</ele>
        <time>2021-07-05 09:40:16</time>
      </trkpt>
      <trkpt lat="28.40999" lon="-14.012">
        <ele>229</ele>
        <time>2021-07-05 09:40:17</time>
      </trkpt>
      <trkpt lat="28.41003" lon="-14.01201">
        <ele>229</ele>
        <time>2021-07-05 09:40:18</time>
      </trkpt>
      <trkpt lat="28.41006" lon="-14.01202">
        <ele>229</ele>
        <time>2021-07-05 09:40:19</time>
      </trkpt>
      <trkpt lat="28.4101" lon="-14.01203">
        <ele>229</ele>
        <time>2021-07-05 09:40:20</time>
      </trkpt>
      <trkpt lat="28.41013" lon="-14.01204">
        <ele>229</ele>
        <time>2021-07-05 09:40:21</time>
      </trkpt>
      <trkpt lat="28.41016" lon="-14.01204">
        <ele>229</ele>
        <time>2021-07-05 09:40:22</time>
      </trkpt>
      <trkpt lat="28.4102" lon="-14.01205">
        <ele>229</ele>
        <time>2021-07-05 09:40:23</time>
      </trkpt>
      <trkpt lat="28.41023" lon="-14.01205">
        <ele>229</ele>
        <time>2021-07-05 09:40:24</time>
      </trkpt>
      <trkpt lat="28.41027" lon="-14.01205">
        <ele>229</ele>
        <time>2021-07-05 09:40:25</time>
      </trkpt>
      <trkpt lat="28.41031" lon="-14.01205">
        <ele>228.8</ele>
        <time>2021-07-05 09:40:26</time>
      </trkpt>
      <trkpt lat="28.41035" lon="-14.01205">
        <ele>228.6</ele>
        <time>2021-07-05 09:40:27</time>
      </trkpt>
      <trkpt lat="28.41039" lon="-14.01205">
        <ele>228.6</ele>
        <time>2021-07-05 09:40:28</time>
      </trkpt>
      <trkpt lat="28.41043" lon="-14.01205">
        <ele>228.2</ele>
        <time>2021-07-05 09:40:29</time>
      </trkpt>
      <trkpt lat="28.41047" lon="-14.01205">
        <ele>228.2</ele>
        <time>2021-07-05 09:40:30</time>
      </trkpt>
      <trkpt lat="28.41051" lon="-14.01205">
        <ele>228.2</ele>
        <time>2021-07-05 09:40:31</time>
      </trkpt>
      <trkpt lat="28.41056" lon="-14.01204">
        <ele>228</ele>
        <time>2021-07-05 09:40:32</time>
      </trkpt>
      <trkpt lat="28.4106" lon="-14.01202">
        <ele>228</ele>
        <time>2021-07-05 09:40:33</time>
      </trkpt>
      <trkpt lat="28.41063" lon="-14.01199">
        <ele>227.8</ele>
        <time>2021-07-05 09:40:34</time>
      </trkpt>
      <trkpt lat="28.41067" lon="-14.01196">
        <ele>227.8</ele>
        <time>2021-07-05 09:40:35</time>
      </trkpt>
      <trkpt lat="28.41071" lon="-14.01193">
        <ele>227.4</ele>
        <time>2021-07-05 09:40:36</time>
      </trkpt>
      <trkpt lat="28.41075" lon="-14.0119">
        <ele>227.4</ele>
        <time>2021-07-05 09:40:37</time>
      </trkpt>
      <trkpt lat="28.41079" lon="-14.01186">
        <ele>227.4</ele>
        <time>2021-07-05 09:40:38</time>
      </trkpt>
      <trkpt lat="28.41084" lon="-14.01184">
        <ele>227.2</ele>
        <time>2021-07-05 09:40:39</time>
      </trkpt>
      <trkpt lat="28.41089" lon="-14.01181">
        <ele>227.2</ele>
        <time>2021-07-05 09:40:40</time>
      </trkpt>
      <trkpt lat="28.41094" lon="-14.01178">
        <ele>227</ele>
        <time>2021-07-05 09:40:41</time>
      </trkpt>
      <trkpt lat="28.41099" lon="-14.01176">
        <ele>227</ele>
        <time>2021-07-05 09:40:42</time>
      </trkpt>
      <trkpt lat="28.41104" lon="-14.01174">
        <ele>226.6</ele>
        <time>2021-07-05 09:40:43</time>
      </trkpt>
      <trkpt lat="28.41109" lon="-14.01171">
        <ele>226.6</ele>
        <time>2021-07-05 09:40:44</time>
      </trkpt>
      <trkpt lat="28.41115" lon="-14.01169">
        <ele>226.2</ele>
        <time>2021-07-05 09:40:45</time>
      </trkpt>
      <trkpt lat="28.4112" lon="-14.01167">
        <ele>226.2</ele>
        <time>2021-07-05 09:40:46</time>
      </trkpt>
      <trkpt lat="28.41125" lon="-14.01164">
        <ele>225.8</ele>
        <time>2021-07-05 09:40:47</time>
      </trkpt>
      <trkpt lat="28.4113" lon="-14.01162">
        <ele>225.4</ele>
        <time>2021-07-05 09:40:48</time>
      </trkpt>
      <trkpt lat="28.41134" lon="-14.01159">
        <ele>225.2</ele>
        <time>2021-07-05 09:40:49</time>
      </trkpt>
      <trkpt lat="28.41137" lon="-14.01155">
        <ele>224.8</ele>
        <time>2021-07-05 09:40:50</time>
      </trkpt>
      <trkpt lat="28.41141" lon="-14.01153">
        <ele>224.4</ele>
        <time>2021-07-05 09:40:51</time>
      </trkpt>
      <trkpt lat="28.41144" lon="-14.01152">
        <ele>224.4</ele>
        <time>2021-07-05 09:40:52</time>
      </trkpt>
      <trkpt lat="28.41148" lon="-14.01152">
        <ele>224.2</ele>
        <time>2021-07-05 09:40:53</time>
      </trkpt>
      <trkpt lat="28.41152" lon="-14.01153">
        <ele>223.8</ele>
        <time>2021-07-05 09:40:54</time>
      </trkpt>
      <trkpt lat="28.41155" lon="-14.01154">
        <ele>223.6</ele>
        <time>2021-07-05 09:40:55</time>
      </trkpt>
      <trkpt lat="28.41159" lon="-14.01156">
        <ele>223.6</ele>
        <time>2021-07-05 09:40:56</time>
      </trkpt>
      <trkpt lat="28.41163" lon="-14.01158">
        <ele>223.6</ele>
        <time>2021-07-05 09:40:57</time>
      </trkpt>
      <trkpt lat="28.41166" lon="-14.0116">
        <ele>223.2</ele>
        <time>2021-07-05 09:40:58</time>
      </trkpt>
      <trkpt lat="28.4117" lon="-14.01163">
        <ele>223</ele>
        <time>2021-07-05 09:40:59</time>
      </trkpt>
      <trkpt lat="28.41174" lon="-14.01166">
        <ele>223</ele>
        <time>2021-07-05 09:41:00</time>
      </trkpt>
      <trkpt lat="28.41177" lon="-14.01169">
        <ele>223</ele>
        <time>2021-07-05 09:41:01</time>
      </trkpt>
      <trkpt lat="28.41181" lon="-14.01172">
        <ele>222.4</ele>
        <time>2021-07-05 09:41:02</time>
      </trkpt>
      <trkpt lat="28.41184" lon="-14.01175">
        <ele>222.4</ele>
        <time>2021-07-05 09:41:03</time>
      </trkpt>
      <trkpt lat="28.41188" lon="-14.01178">
        <ele>222.4</ele>
        <time>2021-07-05 09:41:04</time>
      </trkpt>
      <trkpt lat="28.41192" lon="-14.01181">
        <ele>222.2</ele>
        <time>2021-07-05 09:41:05</time>
      </trkpt>
      <trkpt lat="28.41196" lon="-14.01183">
        <ele>222.2</ele>
        <time>2021-07-05 09:41:06</time>
      </trkpt>
      <trkpt lat="28.412" lon="-14.01186">
        <ele>222.2</ele>
        <time>2021-07-05 09:41:07</time>
      </trkpt>
      <trkpt lat="28.41204" lon="-14.01189">
        <ele>222.2</ele>
        <time>2021-07-05 09:41:08</time>
      </trkpt>
      <trkpt lat="28.41208" lon="-14.01191">
        <ele>222.2</ele>
        <time>2021-07-05 09:41:09</time>
      </trkpt>
      <trkpt lat="28.41212" lon="-14.01194">
        <ele>222.2</ele>
        <time>2021-07-05 09:41:10</time>
      </trkpt>
      <trkpt lat="28.41216" lon="-14.01196">
        <ele>222.2</ele>
        <time>2021-07-05 09:41:11</time>
      </trkpt>
      <trkpt lat="28.4122" lon="-14.01198">
        <ele>222.2</ele>
        <time>2021-07-05 09:41:12</time>
      </trkpt>
      <trkpt lat="28.41224" lon="-14.01201">
        <ele>222.2</ele>
        <time>2021-07-05 09:41:13</time>
      </trkpt>
      <trkpt lat="28.41228" lon="-14.01203">
        <ele>222.2</ele>
        <time>2021-07-05 09:41:14</time>
      </trkpt>
      <trkpt lat="28.41232" lon="-14.01206">
        <ele>222.2</ele>
        <time>2021-07-05 09:41:15</time>
      </trkpt>
      <trkpt lat="28.41235" lon="-14.01208">
        <ele>222.2</ele>
        <time>2021-07-05 09:41:16</time>
      </trkpt>
      <trkpt lat="28.41239" lon="-14.01211">
        <ele>222.2</ele>
        <time>2021-07-05 09:41:17</time>
      </trkpt>
      <trkpt lat="28.41243" lon="-14.01212">
        <ele>222.4</ele>
        <time>2021-07-05 09:41:18</time>
      </trkpt>
      <trkpt lat="28.41247" lon="-14.01215">
        <ele>222.4</ele>
        <time>2021-07-05 09:41:19</time>
      </trkpt>
      <trkpt lat="28.41251" lon="-14.01217">
        <ele>222.6</ele>
        <time>2021-07-05 09:41:20</time>
      </trkpt>
      <trkpt lat="28.41255" lon="-14.01219">
        <ele>222.6</ele>
        <time>2021-07-05 09:41:21</time>
      </trkpt>
      <trkpt lat="28.41259" lon="-14.01221">
        <ele>222.6</ele>
        <time>2021-07-05 09:41:22</time>
      </trkpt>
      <trkpt lat="28.41263" lon="-14.01224">
        <ele>222.6</ele>
        <time>2021-07-05 09:41:23</time>
      </trkpt>
      <trkpt lat="28.41267" lon="-14.01226">
        <ele>222.6</ele>
        <time>2021-07-05 09:41:24</time>
      </trkpt>
      <trkpt lat="28.41271" lon="-14.01228">
        <ele>222.6</ele>
        <time>2021-07-05 09:41:25</time>
      </trkpt>
      <trkpt lat="28.41275" lon="-14.01231">
        <ele>222.6</ele>
        <time>2021-07-05 09:41:26</time>
      </trkpt>
      <trkpt lat="28.41279" lon="-14.01233">
        <ele>222.6</ele>
        <time>2021-07-05 09:41:27</time>
      </trkpt>
      <trkpt lat="28.41283" lon="-14.01236">
        <ele>222.6</ele>
        <time>2021-07-05 09:41:28</time>
      </trkpt>
      <trkpt lat="28.41287" lon="-14.01238">
        <ele>222.6</ele>
        <time>2021-07-05 09:41:29</time>
      </trkpt>
      <trkpt lat="28.4129" lon="-14.0124">
        <ele>222.6</ele>
        <time>2021-07-05 09:41:30</time>
      </trkpt>
      <trkpt lat="28.41294" lon="-14.01242">
        <ele>222.6</ele>
        <time>2021-07-05 09:41:31</time>
      </trkpt>
      <trkpt lat="28.41298" lon="-14.01245">
        <ele>222.6</ele>
        <time>2021-07-05 09:41:32</time>
      </trkpt>
      <trkpt lat="28.41302" lon="-14.01247">
        <ele>222.6</ele>
        <time>2021-07-05 09:41:33</time>
      </trkpt>
      <trkpt lat="28.41306" lon="-14.01249">
        <ele>222.6</ele>
        <time>2021-07-05 09:41:34</time>
      </trkpt>
      <trkpt lat="28.4131" lon="-14.01252">
        <ele>222.6</ele>
        <time>2021-07-05 09:41:35</time>
      </trkpt>
      <trkpt lat="28.41314" lon="-14.01254">
        <ele>222.6</ele>
        <time>2021-07-05 09:41:36</time>
      </trkpt>
      <trkpt lat="28.41318" lon="-14.01255">
        <ele>222.6</ele>
        <time>2021-07-05 09:41:37</time>
      </trkpt>
      <trkpt lat="28.41322" lon="-14.01257">
        <ele>222.6</ele>
        <time>2021-07-05 09:41:38</time>
      </trkpt>
      <trkpt lat="28.41326" lon="-14.01258">
        <ele>222.4</ele>
        <time>2021-07-05 09:41:39</time>
      </trkpt>
      <trkpt lat="28.4133" lon="-14.0126">
        <ele>222.4</ele>
        <time>2021-07-05 09:41:40</time>
      </trkpt>
      <trkpt lat="28.41335" lon="-14.01261">
        <ele>222.4</ele>
        <time>2021-07-05 09:41:41</time>
      </trkpt>
      <trkpt lat="28.41339" lon="-14.01264">
        <ele>222.4</ele>
        <time>2021-07-05 09:41:42</time>
      </trkpt>
      <trkpt lat="28.41343" lon="-14.01265">
        <ele>222.4</ele>
        <time>2021-07-05 09:41:43</time>
      </trkpt>
      <trkpt lat="28.41347" lon="-14.01266">
        <ele>222.4</ele>
        <time>2021-07-05 09:41:44</time>
      </trkpt>
      <trkpt lat="28.41351" lon="-14.01268">
        <ele>222.4</ele>
        <time>2021-07-05 09:41:45</time>
      </trkpt>
      <trkpt lat="28.41356" lon="-14.0127">
        <ele>222.4</ele>
        <time>2021-07-05 09:41:46</time>
      </trkpt>
      <trkpt lat="28.4136" lon="-14.01271">
        <ele>222.6</ele>
        <time>2021-07-05 09:41:47</time>
      </trkpt>
      <trkpt lat="28.41364" lon="-14.01272">
        <ele>222.6</ele>
        <time>2021-07-05 09:41:48</time>
      </trkpt>
      <trkpt lat="28.41368" lon="-14.01274">
        <ele>222.6</ele>
        <time>2021-07-05 09:41:49</time>
      </trkpt>
      <trkpt lat="28.41373" lon="-14.01275">
        <ele>222.6</ele>
        <time>2021-07-05 09:41:50</time>
      </trkpt>
      <trkpt lat="28.41377" lon="-14.01276">
        <ele>222.6</ele>
        <time>2021-07-05 09:41:51</time>
      </trkpt>
      <trkpt lat="28.41382" lon="-14.01277">
        <ele>222.6</ele>
        <time>2021-07-05 09:41:52</time>
      </trkpt>
      <trkpt lat="28.41386" lon="-14.01279">
        <ele>222.6</ele>
        <time>2021-07-05 09:41:53</time>
      </trkpt>
      <trkpt lat="28.41391" lon="-14.0128">
        <ele>222.6</ele>
        <time>2021-07-05 09:41:54</time>
      </trkpt>
      <trkpt lat="28.41395" lon="-14.0128">
        <ele>222.6</ele>
        <time>2021-07-05 09:41:55</time>
      </trkpt>
      <trkpt lat="28.414" lon="-14.01282">
        <ele>222.6</ele>
        <time>2021-07-05 09:41:56</time>
      </trkpt>
      <trkpt lat="28.41404" lon="-14.01282">
        <ele>222.6</ele>
        <time>2021-07-05 09:41:57</time>
      </trkpt>
      <trkpt lat="28.41408" lon="-14.01282">
        <ele>222.8</ele>
        <time>2021-07-05 09:41:58</time>
      </trkpt>
      <trkpt lat="28.41412" lon="-14.01283">
        <ele>222.8</ele>
        <time>2021-07-05 09:41:59</time>
      </trkpt>
      <trkpt lat="28.41417" lon="-14.01284">
        <ele>222.8</ele>
        <time>2021-07-05 09:42:00</time>
      </trkpt>
      <trkpt lat="28.41421" lon="-14.01284">
        <ele>222.8</ele>
        <time>2021-07-05 09:42:01</time>
      </trkpt>
      <trkpt lat="28.41425" lon="-14.01285">
        <ele>222.8</ele>
        <time>2021-07-05 09:42:02</time>
      </trkpt>
      <trkpt lat="28.41429" lon="-14.01285">
        <ele>222.8</ele>
        <time>2021-07-05 09:42:03</time>
      </trkpt>
      <trkpt lat="28.41434" lon="-14.01286">
        <ele>223</ele>
        <time>2021-07-05 09:42:04</time>
      </trkpt>
      <trkpt lat="28.41438" lon="-14.01286">
        <ele>223</ele>
        <time>2021-07-05 09:42:05</time>
      </trkpt>
      <trkpt lat="28.41442" lon="-14.01287">
        <ele>223</ele>
        <time>2021-07-05 09:42:06</time>
      </trkpt>
      <trkpt lat="28.41446" lon="-14.01287">
        <ele>223.4</ele>
        <time>2021-07-05 09:42:07</time>
      </trkpt>
      <trkpt lat="28.4145" lon="-14.01288">
        <ele>223.6</ele>
        <time>2021-07-05 09:42:08</time>
      </trkpt>
      <trkpt lat="28.41454" lon="-14.01288">
        <ele>223.6</ele>
        <time>2021-07-05 09:42:09</time>
      </trkpt>
      <trkpt lat="28.41458" lon="-14.01288">
        <ele>223.6</ele>
        <time>2021-07-05 09:42:10</time>
      </trkpt>
      <trkpt lat="28.41461" lon="-14.01288">
        <ele>223.8</ele>
        <time>2021-07-05 09:42:11</time>
      </trkpt>
      <trkpt lat="28.41465" lon="-14.01288">
        <ele>223.8</ele>
        <time>2021-07-05 09:42:12</time>
      </trkpt>
      <trkpt lat="28.41469" lon="-14.01288">
        <ele>224</ele>
        <time>2021-07-05 09:42:13</time>
      </trkpt>
      <trkpt lat="28.41473" lon="-14.01289">
        <ele>224</ele>
        <time>2021-07-05 09:42:14</time>
      </trkpt>
      <trkpt lat="28.41477" lon="-14.01289">
        <ele>224.4</ele>
        <time>2021-07-05 09:42:15</time>
      </trkpt>
      <trkpt lat="28.4148" lon="-14.0129">
        <ele>224.4</ele>
        <time>2021-07-05 09:42:16</time>
      </trkpt>
      <trkpt lat="28.41484" lon="-14.0129">
        <ele>224.6</ele>
        <time>2021-07-05 09:42:17</time>
      </trkpt>
      <trkpt lat="28.41487" lon="-14.01291">
        <ele>225</ele>
        <time>2021-07-05 09:42:18</time>
      </trkpt>
      <trkpt lat="28.41491" lon="-14.01291">
        <ele>225</ele>
        <time>2021-07-05 09:42:19</time>
      </trkpt>
      <trkpt lat="28.41494" lon="-14.01291">
        <ele>225.2</ele>
        <time>2021-07-05 09:42:20</time>
      </trkpt>
      <trkpt lat="28.41497" lon="-14.01291">
        <ele>225.4</ele>
        <time>2021-07-05 09:42:21</time>
      </trkpt>
      <trkpt lat="28.415" lon="-14.01291">
        <ele>226</ele>
        <time>2021-07-05 09:42:22</time>
      </trkpt>
      <trkpt lat="28.41504" lon="-14.01291">
        <ele>226</ele>
        <time>2021-07-05 09:42:23</time>
      </trkpt>
      <trkpt lat="28.41507" lon="-14.01291">
        <ele>226.2</ele>
        <time>2021-07-05 09:42:24</time>
      </trkpt>
      <trkpt lat="28.4151" lon="-14.01291">
        <ele>226.6</ele>
        <time>2021-07-05 09:42:25</time>
      </trkpt>
      <trkpt lat="28.41512" lon="-14.01291">
        <ele>226.8</ele>
        <time>2021-07-05 09:42:26</time>
      </trkpt>
      <trkpt lat="28.41515" lon="-14.01291">
        <ele>227</ele>
        <time>2021-07-05 09:42:27</time>
      </trkpt>
      <trkpt lat="28.41518" lon="-14.01291">
        <ele>227.2</ele>
        <time>2021-07-05 09:42:28</time>
      </trkpt>
      <trkpt lat="28.41521" lon="-14.01291">
        <ele>227.2</ele>
        <time>2021-07-05 09:42:29</time>
      </trkpt>
      <trkpt lat="28.41524" lon="-14.01291">
        <ele>227.4</ele>
        <time>2021-07-05 09:42:30</time>
      </trkpt>
      <trkpt lat="28.41526" lon="-14.01291">
        <ele>227.4</ele>
        <time>2021-07-05 09:42:31</time>
      </trkpt>
      <trkpt lat="28.41529" lon="-14.01291">
        <ele>227.8</ele>
        <time>2021-07-05 09:42:32</time>
      </trkpt>
      <trkpt lat="28.41531" lon="-14.01291">
        <ele>227.8</ele>
        <time>2021-07-05 09:42:33</time>
      </trkpt>
      <trkpt lat="28.41534" lon="-14.01291">
        <ele>228</ele>
        <time>2021-07-05 09:42:34</time>
      </trkpt>
      <trkpt lat="28.41536" lon="-14.0129">
        <ele>228</ele>
        <time>2021-07-05 09:42:35</time>
      </trkpt>
      <trkpt lat="28.41539" lon="-14.0129">
        <ele>228</ele>
        <time>2021-07-05 09:42:36</time>
      </trkpt>
      <trkpt lat="28.41541" lon="-14.0129">
        <ele>228</ele>
        <time>2021-07-05 09:42:37</time>
      </trkpt>
      <trkpt lat="28.41544" lon="-14.0129">
        <ele>228.2</ele>
        <time>2021-07-05 09:42:38</time>
      </trkpt>
      <trkpt lat="28.41546" lon="-14.0129">
        <ele>228.2</ele>
        <time>2021-07-05 09:42:39</time>
      </trkpt>
      <trkpt lat="28.41548" lon="-14.0129">
        <ele>228.4</ele>
        <time>2021-07-05 09:42:40</time>
      </trkpt>
      <trkpt lat="28.41551" lon="-14.01289">
        <ele>228.8</ele>
        <time>2021-07-05 09:42:41</time>
      </trkpt>
      <trkpt lat="28.41554" lon="-14.01289">
        <ele>228.8</ele>
        <time>2021-07-05 09:42:42</time>
      </trkpt>
      <trkpt lat="28.41556" lon="-14.01289">
        <ele>229.2</ele>
        <time>2021-07-05 09:42:43</time>
      </trkpt>
      <trkpt lat="28.41558" lon="-14.01289">
        <ele>229.2</ele>
        <time>2021-07-05 09:42:44</time>
      </trkpt>
      <trkpt lat="28.41561" lon="-14.01289">
        <ele>229.4</ele>
        <time>2021-07-05 09:42:45</time>
      </trkpt>
      <trkpt lat="28.41564" lon="-14.01289">
        <ele>229.4</ele>
        <time>2021-07-05 09:42:46</time>
      </trkpt>
      <trkpt lat="28.41566" lon="-14.0129">
        <ele>229.8</ele>
        <time>2021-07-05 09:42:47</time>
      </trkpt>
      <trkpt lat="28.41568" lon="-14.0129">
        <ele>230.2</ele>
        <time>2021-07-05 09:42:48</time>
      </trkpt>
      <trkpt lat="28.41571" lon="-14.0129">
        <ele>230.6</ele>
        <time>2021-07-05 09:42:49</time>
      </trkpt>
      <trkpt lat="28.41574" lon="-14.0129">
        <ele>230.6</ele>
        <time>2021-07-05 09:42:50</time>
      </trkpt>
      <trkpt lat="28.41576" lon="-14.0129">
        <ele>231</ele>
        <time>2021-07-05 09:42:51</time>
      </trkpt>
      <trkpt lat="28.41579" lon="-14.0129">
        <ele>231.2</ele>
        <time>2021-07-05 09:42:52</time>
      </trkpt>
      <trkpt lat="28.41581" lon="-14.0129">
        <ele>231.4</ele>
        <time>2021-07-05 09:42:53</time>
      </trkpt>
      <trkpt lat="28.41584" lon="-14.01291">
        <ele>231.6</ele>
        <time>2021-07-05 09:42:54</time>
      </trkpt>
      <trkpt lat="28.41586" lon="-14.01291">
        <ele>231.8</ele>
        <time>2021-07-05 09:42:55</time>
      </trkpt>
      <trkpt lat="28.41588" lon="-14.01291">
        <ele>232.2</ele>
        <time>2021-07-05 09:42:56</time>
      </trkpt>
      <trkpt lat="28.4159" lon="-14.01292">
        <ele>232.4</ele>
        <time>2021-07-05 09:42:57</time>
      </trkpt>
      <trkpt lat="28.41593" lon="-14.01292">
        <ele>232.6</ele>
        <time>2021-07-05 09:42:58</time>
      </trkpt>
      <trkpt lat="28.41595" lon="-14.01292">
        <ele>233</ele>
        <time>2021-07-05 09:42:59</time>
      </trkpt>
      <trkpt lat="28.41598" lon="-14.01293">
        <ele>233.2</ele>
        <time>2021-07-05 09:43:00</time>
      </trkpt>
      <trkpt lat="28.416" lon="-14.01293">
        <ele>233.4</ele>
        <time>2021-07-05 09:43:01</time>
      </trkpt>
      <trkpt lat="28.41602" lon="-14.01293">
        <ele>233.8</ele>
        <time>2021-07-05 09:43:02</time>
      </trkpt>
      <trkpt lat="28.41605" lon="-14.01294">
        <ele>234</ele>
        <time>2021-07-05 09:43:03</time>
      </trkpt>
      <trkpt lat="28.41607" lon="-14.01294">
        <ele>234.2</ele>
        <time>2021-07-05 09:43:04</time>
      </trkpt>
      <trkpt lat="28.41609" lon="-14.01294">
        <ele>234.6</ele>
        <time>2021-07-05 09:43:05</time>
      </trkpt>
      <trkpt lat="28.41612" lon="-14.01294">
        <ele>234.6</ele>
        <time>2021-07-05 09:43:06</time>
      </trkpt>
      <trkpt lat="28.41614" lon="-14.01294">
        <ele>234.6</ele>
        <time>2021-07-05 09:43:07</time>
      </trkpt>
      <trkpt lat="28.41617" lon="-14.01294">
        <ele>235</ele>
        <time>2021-07-05 09:43:08</time>
      </trkpt>
      <trkpt lat="28.41619" lon="-14.01294">
        <ele>235.2</ele>
        <time>2021-07-05 09:43:09</time>
      </trkpt>
      <trkpt lat="28.41621" lon="-14.01295">
        <ele>235.2</ele>
        <time>2021-07-05 09:43:10</time>
      </trkpt>
      <trkpt lat="28.41624" lon="-14.01295">
        <ele>235.4</ele>
        <time>2021-07-05 09:43:11</time>
      </trkpt>
      <trkpt lat="28.41627" lon="-14.01295">
        <ele>235.4</ele>
        <time>2021-07-05 09:43:12</time>
      </trkpt>
      <trkpt lat="28.41629" lon="-14.01296">
        <ele>235.8</ele>
        <time>2021-07-05 09:43:13</time>
      </trkpt>
      <trkpt lat="28.41632" lon="-14.01296">
        <ele>236.2</ele>
        <time>2021-07-05 09:43:14</time>
      </trkpt>
      <trkpt lat="28.41634" lon="-14.01295">
        <ele>236.2</ele>
        <time>2021-07-05 09:43:15</time>
      </trkpt>
      <trkpt lat="28.41637" lon="-14.01295">
        <ele>236.6</ele>
        <time>2021-07-05 09:43:16</time>
      </trkpt>
      <trkpt lat="28.4164" lon="-14.01295">
        <ele>236.8</ele>
        <time>2021-07-05 09:43:17</time>
      </trkpt>
      <trkpt lat="28.41642" lon="-14.01295">
        <ele>236.8</ele>
        <time>2021-07-05 09:43:18</time>
      </trkpt>
      <trkpt lat="28.41645" lon="-14.01295">
        <ele>237</ele>
        <time>2021-07-05 09:43:19</time>
      </trkpt>
      <trkpt lat="28.41648" lon="-14.01296">
        <ele>237</ele>
        <time>2021-07-05 09:43:20</time>
      </trkpt>
      <trkpt lat="28.4165" lon="-14.01296">
        <ele>237.4</ele>
        <time>2021-07-05 09:43:21</time>
      </trkpt>
      <trkpt lat="28.41653" lon="-14.01297">
        <ele>237.4</ele>
        <time>2021-07-05 09:43:22</time>
      </trkpt>
      <trkpt lat="28.41655" lon="-14.01297">
        <ele>237.6</ele>
        <time>2021-07-05 09:43:23</time>
      </trkpt>
      <trkpt lat="28.41658" lon="-14.01298">
        <ele>237.6</ele>
        <time>2021-07-05 09:43:24</time>
      </trkpt>
      <trkpt lat="28.4166" lon="-14.01298">
        <ele>238</ele>
        <time>2021-07-05 09:43:25</time>
      </trkpt>
      <trkpt lat="28.41663" lon="-14.01298">
        <ele>238.2</ele>
        <time>2021-07-05 09:43:26</time>
      </trkpt>
      <trkpt lat="28.41665" lon="-14.01298">
        <ele>238.2</ele>
        <time>2021-07-05 09:43:27</time>
      </trkpt>
      <trkpt lat="28.41668" lon="-14.01298">
        <ele>238.6</ele>
        <time>2021-07-05 09:43:28</time>
      </trkpt>
      <trkpt lat="28.4167" lon="-14.01298">
        <ele>238.6</ele>
        <time>2021-07-05 09:43:29</time>
      </trkpt>
      <trkpt lat="28.41673" lon="-14.01298">
        <ele>238.6</ele>
        <time>2021-07-05 09:43:30</time>
      </trkpt>
      <trkpt lat="28.41676" lon="-14.01299">
        <ele>238.8</ele>
        <time>2021-07-05 09:43:31</time>
      </trkpt>
      <trkpt lat="28.41678" lon="-14.01299">
        <ele>238.8</ele>
        <time>2021-07-05 09:43:32</time>
      </trkpt>
      <trkpt lat="28.41681" lon="-14.01299">
        <ele>238.8</ele>
        <time>2021-07-05 09:43:33</time>
      </trkpt>
      <trkpt lat="28.41683" lon="-14.01299">
        <ele>238.8</ele>
        <time>2021-07-05 09:43:34</time>
      </trkpt>
      <trkpt lat="28.41686" lon="-14.01299">
        <ele>238.8</ele>
        <time>2021-07-05 09:43:35</time>
      </trkpt>
      <trkpt lat="28.41689" lon="-14.01299">
        <ele>239</ele>
        <time>2021-07-05 09:43:36</time>
      </trkpt>
      <trkpt lat="28.41691" lon="-14.01299">
        <ele>239</ele>
        <time>2021-07-05 09:43:37</time>
      </trkpt>
      <trkpt lat="28.41694" lon="-14.01299">
        <ele>239</ele>
        <time>2021-07-05 09:43:38</time>
      </trkpt>
      <trkpt lat="28.41696" lon="-14.01299">
        <ele>239</ele>
        <time>2021-07-05 09:43:39</time>
      </trkpt>
      <trkpt lat="28.41699" lon="-14.013">
        <ele>239</ele>
        <time>2021-07-05 09:43:40</time>
      </trkpt>
      <trkpt lat="28.41702" lon="-14.013">
        <ele>239</ele>
        <time>2021-07-05 09:43:41</time>
      </trkpt>
      <trkpt lat="28.41705" lon="-14.013">
        <ele>239</ele>
        <time>2021-07-05 09:43:42</time>
      </trkpt>
      <trkpt lat="28.41707" lon="-14.013">
        <ele>239</ele>
        <time>2021-07-05 09:43:43</time>
      </trkpt>
      <trkpt lat="28.4171" lon="-14.01301">
        <ele>239</ele>
        <time>2021-07-05 09:43:44</time>
      </trkpt>
      <trkpt lat="28.41713" lon="-14.01301">
        <ele>239</ele>
        <time>2021-07-05 09:43:45</time>
      </trkpt>
      <trkpt lat="28.41716" lon="-14.01301">
        <ele>239</ele>
        <time>2021-07-05 09:43:46</time>
      </trkpt>
      <trkpt lat="28.41719" lon="-14.01302">
        <ele>239</ele>
        <time>2021-07-05 09:43:47</time>
      </trkpt>
      <trkpt lat="28.41722" lon="-14.01302">
        <ele>239</ele>
        <time>2021-07-05 09:43:48</time>
      </trkpt>
      <trkpt lat="28.41725" lon="-14.01303">
        <ele>239</ele>
        <time>2021-07-05 09:43:49</time>
      </trkpt>
      <trkpt lat="28.41728" lon="-14.01304">
        <ele>239.4</ele>
        <time>2021-07-05 09:43:50</time>
      </trkpt>
      <trkpt lat="28.41731" lon="-14.01305">
        <ele>239.4</ele>
        <time>2021-07-05 09:43:51</time>
      </trkpt>
      <trkpt lat="28.41734" lon="-14.01306">
        <ele>239.4</ele>
        <time>2021-07-05 09:43:52</time>
      </trkpt>
      <trkpt lat="28.41737" lon="-14.01306">
        <ele>239.4</ele>
        <time>2021-07-05 09:43:53</time>
      </trkpt>
      <trkpt lat="28.4174" lon="-14.01307">
        <ele>239.4</ele>
        <time>2021-07-05 09:43:54</time>
      </trkpt>
      <trkpt lat="28.41744" lon="-14.01308">
        <ele>239.6</ele>
        <time>2021-07-05 09:43:55</time>
      </trkpt>
      <trkpt lat="28.41747" lon="-14.01309">
        <ele>239.6</ele>
        <time>2021-07-05 09:43:56</time>
      </trkpt>
      <trkpt lat="28.4175" lon="-14.01309">
        <ele>239.6</ele>
        <time>2021-07-05 09:43:57</time>
      </trkpt>
      <trkpt lat="28.41753" lon="-14.0131">
        <ele>239.6</ele>
        <time>2021-07-05 09:43:58</time>
      </trkpt>
      <trkpt lat="28.41756" lon="-14.01311">
        <ele>239.8</ele>
        <time>2021-07-05 09:43:59</time>
      </trkpt>
      <trkpt lat="28.41759" lon="-14.01312">
        <ele>239.8</ele>
        <time>2021-07-05 09:44:00</time>
      </trkpt>
      <trkpt lat="28.41762" lon="-14.01313">
        <ele>240.2</ele>
        <time>2021-07-05 09:44:01</time>
      </trkpt>
      <trkpt lat="28.41765" lon="-14.01314">
        <ele>240.2</ele>
        <time>2021-07-05 09:44:02</time>
      </trkpt>
      <trkpt lat="28.41768" lon="-14.01314">
        <ele>240.2</ele>
        <time>2021-07-05 09:44:03</time>
      </trkpt>
      <trkpt lat="28.41771" lon="-14.01315">
        <ele>240.4</ele>
        <time>2021-07-05 09:44:04</time>
      </trkpt>
      <trkpt lat="28.41774" lon="-14.01317">
        <ele>240.4</ele>
        <time>2021-07-05 09:44:05</time>
      </trkpt>
      <trkpt lat="28.41777" lon="-14.01318">
        <ele>240.4</ele>
        <time>2021-07-05 09:44:06</time>
      </trkpt>
      <trkpt lat="28.4178" lon="-14.01319">
        <ele>240.6</ele>
        <time>2021-07-05 09:44:07</time>
      </trkpt>
      <trkpt lat="28.41783" lon="-14.0132">
        <ele>240.8</ele>
        <time>2021-07-05 09:44:08</time>
      </trkpt>
      <trkpt lat="28.41786" lon="-14.01321">
        <ele>240.8</ele>
        <time>2021-07-05 09:44:09</time>
      </trkpt>
      <trkpt lat="28.41789" lon="-14.01321">
        <ele>240.8</ele>
        <time>2021-07-05 09:44:10</time>
      </trkpt>
      <trkpt lat="28.41791" lon="-14.01322">
        <ele>240.8</ele>
        <time>2021-07-05 09:44:11</time>
      </trkpt>
      <trkpt lat="28.41794" lon="-14.01322">
        <ele>240.8</ele>
        <time>2021-07-05 09:44:12</time>
      </trkpt>
      <trkpt lat="28.41796" lon="-14.01323">
        <ele>241</ele>
        <time>2021-07-05 09:44:13</time>
      </trkpt>
      <trkpt lat="28.41799" lon="-14.01324">
        <ele>241</ele>
        <time>2021-07-05 09:44:14</time>
      </trkpt>
      <trkpt lat="28.41802" lon="-14.01324">
        <ele>241</ele>
        <time>2021-07-05 09:44:15</time>
      </trkpt>
      <trkpt lat="28.41805" lon="-14.01325">
        <ele>241</ele>
        <time>2021-07-05 09:44:16</time>
      </trkpt>
      <trkpt lat="28.41808" lon="-14.01326">
        <ele>241</ele>
        <time>2021-07-05 09:44:17</time>
      </trkpt>
      <trkpt lat="28.41811" lon="-14.01326">
        <ele>241</ele>
        <time>2021-07-05 09:44:18</time>
      </trkpt>
      <trkpt lat="28.41814" lon="-14.01327">
        <ele>241</ele>
        <time>2021-07-05 09:44:19</time>
      </trkpt>
      <trkpt lat="28.41818" lon="-14.01328">
        <ele>241</ele>
        <time>2021-07-05 09:44:20</time>
      </trkpt>
      <trkpt lat="28.41821" lon="-14.01328">
        <ele>241.2</ele>
        <time>2021-07-05 09:44:21</time>
      </trkpt>
      <trkpt lat="28.41824" lon="-14.01329">
        <ele>241.4</ele>
        <time>2021-07-05 09:44:22</time>
      </trkpt>
      <trkpt lat="28.41828" lon="-14.01329">
        <ele>241.4</ele>
        <time>2021-07-05 09:44:23</time>
      </trkpt>
      <trkpt lat="28.41831" lon="-14.0133">
        <ele>241.6</ele>
        <time>2021-07-05 09:44:24</time>
      </trkpt>
      <trkpt lat="28.41834" lon="-14.0133">
        <ele>241.6</ele>
        <time>2021-07-05 09:44:25</time>
      </trkpt>
      <trkpt lat="28.41838" lon="-14.0133">
        <ele>242</ele>
        <time>2021-07-05 09:44:26</time>
      </trkpt>
      <trkpt lat="28.41841" lon="-14.01331">
        <ele>242</ele>
        <time>2021-07-05 09:44:27</time>
      </trkpt>
      <trkpt lat="28.41844" lon="-14.01332">
        <ele>242</ele>
        <time>2021-07-05 09:44:28</time>
      </trkpt>
      <trkpt lat="28.41848" lon="-14.01332">
        <ele>242</ele>
        <time>2021-07-05 09:44:29</time>
      </trkpt>
      <trkpt lat="28.41851" lon="-14.01333">
        <ele>242</ele>
        <time>2021-07-05 09:44:30</time>
      </trkpt>
      <trkpt lat="28.41855" lon="-14.01333">
        <ele>242</ele>
        <time>2021-07-05 09:44:31</time>
      </trkpt>
      <trkpt lat="28.41859" lon="-14.01334">
        <ele>242.2</ele>
        <time>2021-07-05 09:44:32</time>
      </trkpt>
      <trkpt lat="28.41862" lon="-14.01334">
        <ele>242.4</ele>
        <time>2021-07-05 09:44:33</time>
      </trkpt>
      <trkpt lat="28.41866" lon="-14.01335">
        <ele>242.4</ele>
        <time>2021-07-05 09:44:34</time>
      </trkpt>
      <trkpt lat="28.41869" lon="-14.01336">
        <ele>242.4</ele>
        <time>2021-07-05 09:44:35</time>
      </trkpt>
      <trkpt lat="28.41873" lon="-14.01337">
        <ele>242.8</ele>
        <time>2021-07-05 09:44:36</time>
      </trkpt>
      <trkpt lat="28.41876" lon="-14.01337">
        <ele>242.8</ele>
        <time>2021-07-05 09:44:37</time>
      </trkpt>
      <trkpt lat="28.41879" lon="-14.01337">
        <ele>243</ele>
        <time>2021-07-05 09:44:38</time>
      </trkpt>
      <trkpt lat="28.41883" lon="-14.01338">
        <ele>243</ele>
        <time>2021-07-05 09:44:39</time>
      </trkpt>
      <trkpt lat="28.41886" lon="-14.01339">
        <ele>243</ele>
        <time>2021-07-05 09:44:40</time>
      </trkpt>
      <trkpt lat="28.41889" lon="-14.01339">
        <ele>243</ele>
        <time>2021-07-05 09:44:41</time>
      </trkpt>
      <trkpt lat="28.41893" lon="-14.0134">
        <ele>243</ele>
        <time>2021-07-05 09:44:42</time>
      </trkpt>
      <trkpt lat="28.41896" lon="-14.01341">
        <ele>243</ele>
        <time>2021-07-05 09:44:43</time>
      </trkpt>
      <trkpt lat="28.419" lon="-14.01341">
        <ele>243</ele>
        <time>2021-07-05 09:44:44</time>
      </trkpt>
      <trkpt lat="28.41903" lon="-14.01342">
        <ele>243</ele>
        <time>2021-07-05 09:44:45</time>
      </trkpt>
      <trkpt lat="28.41906" lon="-14.01342">
        <ele>243.2</ele>
        <time>2021-07-05 09:44:46</time>
      </trkpt>
      <trkpt lat="28.4191" lon="-14.01343">
        <ele>243.2</ele>
        <time>2021-07-05 09:44:47</time>
      </trkpt>
      <trkpt lat="28.41913" lon="-14.01343">
        <ele>243.2</ele>
        <time>2021-07-05 09:44:48</time>
      </trkpt>
      <trkpt lat="28.41916" lon="-14.01343">
        <ele>243.4</ele>
        <time>2021-07-05 09:44:49</time>
      </trkpt>
      <trkpt lat="28.41919" lon="-14.01344">
        <ele>243.4</ele>
        <time>2021-07-05 09:44:50</time>
      </trkpt>
      <trkpt lat="28.41921" lon="-14.01344">
        <ele>243.4</ele>
        <time>2021-07-05 09:44:51</time>
      </trkpt>
      <trkpt lat="28.41923" lon="-14.01345">
        <ele>243.8</ele>
        <time>2021-07-05 09:44:52</time>
      </trkpt>
      <trkpt lat="28.41925" lon="-14.01345">
        <ele>243.8</ele>
        <time>2021-07-05 09:44:53</time>
      </trkpt>
      <trkpt lat="28.41927" lon="-14.01346">
        <ele>243.8</ele>
        <time>2021-07-05 09:44:54</time>
      </trkpt>
      <trkpt lat="28.41928" lon="-14.01347">
        <ele>243.8</ele>
        <time>2021-07-05 09:44:55</time>
      </trkpt>
      <trkpt lat="28.41931" lon="-14.01348">
        <ele>243.8</ele>
        <time>2021-07-05 09:44:56</time>
      </trkpt>
      <trkpt lat="28.41933" lon="-14.01349">
        <ele>243.8</ele>
        <time>2021-07-05 09:44:57</time>
      </trkpt>
      <trkpt lat="28.41936" lon="-14.0135">
        <ele>243.8</ele>
        <time>2021-07-05 09:44:58</time>
      </trkpt>
      <trkpt lat="28.41938" lon="-14.0135">
        <ele>243.8</ele>
        <time>2021-07-05 09:44:59</time>
      </trkpt>
      <trkpt lat="28.4194" lon="-14.0135">
        <ele>243.8</ele>
        <time>2021-07-05 09:45:00</time>
      </trkpt>
      <trkpt lat="28.41942" lon="-14.0135">
        <ele>243.8</ele>
        <time>2021-07-05 09:45:01</time>
      </trkpt>
      <trkpt lat="28.41944" lon="-14.01349">
        <ele>244</ele>
        <time>2021-07-05 09:45:02</time>
      </trkpt>
      <trkpt lat="28.41947" lon="-14.01349">
        <ele>244</ele>
        <time>2021-07-05 09:45:03</time>
      </trkpt>
      <trkpt lat="28.4195" lon="-14.0135">
        <ele>244</ele>
        <time>2021-07-05 09:45:04</time>
      </trkpt>
      <trkpt lat="28.41953" lon="-14.01351">
        <ele>244</ele>
        <time>2021-07-05 09:45:05</time>
      </trkpt>
      <trkpt lat="28.41956" lon="-14.01352">
        <ele>244</ele>
        <time>2021-07-05 09:45:06</time>
      </trkpt>
      <trkpt lat="28.41959" lon="-14.01354">
        <ele>244.2</ele>
        <time>2021-07-05 09:45:07</time>
      </trkpt>
      <trkpt lat="28.41963" lon="-14.01355">
        <ele>244.2</ele>
        <time>2021-07-05 09:45:08</time>
      </trkpt>
      <trkpt lat="28.41966" lon="-14.01355">
        <ele>244.2</ele>
        <time>2021-07-05 09:45:09</time>
      </trkpt>
      <trkpt lat="28.4197" lon="-14.01356">
        <ele>244.4</ele>
        <time>2021-07-05 09:45:10</time>
      </trkpt>
      <trkpt lat="28.41973" lon="-14.01357">
        <ele>244.4</ele>
        <time>2021-07-05 09:45:11</time>
      </trkpt>
      <trkpt lat="28.41977" lon="-14.01358">
        <ele>244.4</ele>
        <time>2021-07-05 09:45:12</time>
      </trkpt>
      <trkpt lat="28.4198" lon="-14.01359">
        <ele>244.4</ele>
        <time>2021-07-05 09:45:13</time>
      </trkpt>
      <trkpt lat="28.41983" lon="-14.01359">
        <ele>244.4</ele>
        <time>2021-07-05 09:45:14</time>
      </trkpt>
      <trkpt lat="28.41986" lon="-14.0136">
        <ele>244.8</ele>
        <time>2021-07-05 09:45:15</time>
      </trkpt>
      <trkpt lat="28.4199" lon="-14.01361">
        <ele>244.8</ele>
        <time>2021-07-05 09:45:16</time>
      </trkpt>
      <trkpt lat="28.41993" lon="-14.01362">
        <ele>245</ele>
        <time>2021-07-05 09:45:17</time>
      </trkpt>
      <trkpt lat="28.41996" lon="-14.01363">
        <ele>245</ele>
        <time>2021-07-05 09:45:18</time>
      </trkpt>
      <trkpt lat="28.41999" lon="-14.01364">
        <ele>245</ele>
        <time>2021-07-05 09:45:19</time>
      </trkpt>
      <trkpt lat="28.42003" lon="-14.01365">
        <ele>245</ele>
        <time>2021-07-05 09:45:20</time>
      </trkpt>
      <trkpt lat="28.42006" lon="-14.01366">
        <ele>245.2</ele>
        <time>2021-07-05 09:45:21</time>
      </trkpt>
      <trkpt lat="28.4201" lon="-14.01366">
        <ele>245.2</ele>
        <time>2021-07-05 09:45:22</time>
      </trkpt>
      <trkpt lat="28.42013" lon="-14.01367">
        <ele>245.2</ele>
        <time>2021-07-05 09:45:23</time>
      </trkpt>
      <trkpt lat="28.42016" lon="-14.01367">
        <ele>245.6</ele>
        <time>2021-07-05 09:45:24</time>
      </trkpt>
      <trkpt lat="28.4202" lon="-14.01368">
        <ele>245.6</ele>
        <time>2021-07-05 09:45:25</time>
      </trkpt>
      <trkpt lat="28.42024" lon="-14.01368">
        <ele>245.8</ele>
        <time>2021-07-05 09:45:26</time>
      </trkpt>
      <trkpt lat="28.42027" lon="-14.01369">
        <ele>245.8</ele>
        <time>2021-07-05 09:45:27</time>
      </trkpt>
      <trkpt lat="28.42031" lon="-14.0137">
        <ele>245.8</ele>
        <time>2021-07-05 09:45:28</time>
      </trkpt>
      <trkpt lat="28.42034" lon="-14.01371">
        <ele>246</ele>
        <time>2021-07-05 09:45:29</time>
      </trkpt>
      <trkpt lat="28.42038" lon="-14.01371">
        <ele>246</ele>
        <time>2021-07-05 09:45:30</time>
      </trkpt>
      <trkpt lat="28.42041" lon="-14.01372">
        <ele>246</ele>
        <time>2021-07-05 09:45:31</time>
      </trkpt>
      <trkpt lat="28.42044" lon="-14.01373">
        <ele>246.4</ele>
        <time>2021-07-05 09:45:32</time>
      </trkpt>
      <trkpt lat="28.42047" lon="-14.01374">
        <ele>246.4</ele>
        <time>2021-07-05 09:45:33</time>
      </trkpt>
      <trkpt lat="28.42051" lon="-14.01375">
        <ele>246.6</ele>
        <time>2021-07-05 09:45:34</time>
      </trkpt>
      <trkpt lat="28.42054" lon="-14.01376">
        <ele>246.6</ele>
        <time>2021-07-05 09:45:35</time>
      </trkpt>
      <trkpt lat="28.42057" lon="-14.01376">
        <ele>247</ele>
        <time>2021-07-05 09:45:36</time>
      </trkpt>
      <trkpt lat="28.4206" lon="-14.01376">
        <ele>247</ele>
        <time>2021-07-05 09:45:37</time>
      </trkpt>
      <trkpt lat="28.42062" lon="-14.01376">
        <ele>247.2</ele>
        <time>2021-07-05 09:45:38</time>
      </trkpt>
      <trkpt lat="28.42064" lon="-14.01376">
        <ele>247.2</ele>
        <time>2021-07-05 09:45:39</time>
      </trkpt>
      <trkpt lat="28.42066" lon="-14.01375">
        <ele>247.6</ele>
        <time>2021-07-05 09:45:40</time>
      </trkpt>
      <trkpt lat="28.42068" lon="-14.01374">
        <ele>247.6</ele>
        <time>2021-07-05 09:45:41</time>
      </trkpt>
      <trkpt lat="28.42068" lon="-14.01373">
        <ele>247.6</ele>
        <time>2021-07-05 09:45:42</time>
      </trkpt>
      <trkpt lat="28.42069" lon="-14.01371">
        <ele>247.8</ele>
        <time>2021-07-05 09:45:43</time>
      </trkpt>
      <trkpt lat="28.42069" lon="-14.01369">
        <ele>247.8</ele>
        <time>2021-07-05 09:45:44</time>
      </trkpt>
      <trkpt lat="28.4207" lon="-14.01368">
        <ele>247.6</ele>
        <time>2021-07-05 09:45:45</time>
      </trkpt>
      <trkpt lat="28.4207" lon="-14.01367">
        <ele>247.6</ele>
        <time>2021-07-05 09:45:46</time>
      </trkpt>
      <trkpt lat="28.42069" lon="-14.01367">
        <ele>247.2</ele>
        <time>2021-07-05 09:45:47</time>
      </trkpt>
      <trkpt lat="28.42069" lon="-14.01367">
        <ele>247.2</ele>
        <time>2021-07-05 09:45:48</time>
      </trkpt>
      <trkpt lat="28.42069" lon="-14.01367">
        <ele>247.2</ele>
        <time>2021-07-05 09:45:49</time>
      </trkpt>
      <trkpt lat="28.42068" lon="-14.01367">
        <ele>247.2</ele>
        <time>2021-07-05 09:45:50</time>
      </trkpt>
      <trkpt lat="28.42068" lon="-14.01369">
        <ele>247.2</ele>
        <time>2021-07-05 09:49:09</time>
      </trkpt>
      <trkpt lat="28.42068" lon="-14.0137">
        <ele>247.2</ele>
        <time>2021-07-05 09:49:10</time>
      </trkpt>
      <trkpt lat="28.42067" lon="-14.0137">
        <ele>247</ele>
        <time>2021-07-05 09:49:11</time>
      </trkpt>
      <trkpt lat="28.42065" lon="-14.0137">
        <ele>247</ele>
        <time>2021-07-05 09:49:12</time>
      </trkpt>
      <trkpt lat="28.42064" lon="-14.01369">
        <ele>247</ele>
        <time>2021-07-05 09:49:13</time>
      </trkpt>
      <trkpt lat="28.42064" lon="-14.01371">
        <ele>246.4</ele>
        <time>2021-07-05 09:49:17</time>
      </trkpt>
      <trkpt lat="28.42064" lon="-14.01372">
        <ele>246.4</ele>
        <time>2021-07-05 09:49:18</time>
      </trkpt>
      <trkpt lat="28.42065" lon="-14.01372">
        <ele>246.2</ele>
        <time>2021-07-05 09:49:19</time>
      </trkpt>
      <trkpt lat="28.42066" lon="-14.01373">
        <ele>246.2</ele>
        <time>2021-07-05 09:49:20</time>
      </trkpt>
      <trkpt lat="28.42067" lon="-14.01374">
        <ele>246</ele>
        <time>2021-07-05 09:49:21</time>
      </trkpt>
      <trkpt lat="28.42069" lon="-14.01374">
        <ele>246</ele>
        <time>2021-07-05 09:49:22</time>
      </trkpt>
      <trkpt lat="28.42071" lon="-14.01374">
        <ele>246</ele>
        <time>2021-07-05 09:49:23</time>
      </trkpt>
      <trkpt lat="28.42073" lon="-14.01374">
        <ele>246</ele>
        <time>2021-07-05 09:49:24</time>
      </trkpt>
      <trkpt lat="28.42074" lon="-14.01375">
        <ele>246.4</ele>
        <time>2021-07-05 09:49:25</time>
      </trkpt>
      <trkpt lat="28.42076" lon="-14.01375">
        <ele>246.4</ele>
        <time>2021-07-05 09:49:26</time>
      </trkpt>
      <trkpt lat="28.42078" lon="-14.01376">
        <ele>246.4</ele>
        <time>2021-07-05 09:49:27</time>
      </trkpt>
      <trkpt lat="28.4208" lon="-14.01376">
        <ele>246.6</ele>
        <time>2021-07-05 09:49:28</time>
      </trkpt>
      <trkpt lat="28.42081" lon="-14.01376">
        <ele>247</ele>
        <time>2021-07-05 09:49:29</time>
      </trkpt>
      <trkpt lat="28.42082" lon="-14.01376">
        <ele>247</ele>
        <time>2021-07-05 09:49:30</time>
      </trkpt>
      <trkpt lat="28.42084" lon="-14.01377">
        <ele>247</ele>
        <time>2021-07-05 09:49:31</time>
      </trkpt>
      <trkpt lat="28.42085" lon="-14.01377">
        <ele>247.2</ele>
        <time>2021-07-05 09:49:32</time>
      </trkpt>
      <trkpt lat="28.42086" lon="-14.01378">
        <ele>247.2</ele>
        <time>2021-07-05 09:49:33</time>
      </trkpt>
      <trkpt lat="28.42087" lon="-14.01379">
        <ele>247.2</ele>
        <time>2021-07-05 09:49:34</time>
      </trkpt>
      <trkpt lat="28.42088" lon="-14.01379">
        <ele>247.6</ele>
        <time>2021-07-05 09:49:35</time>
      </trkpt>
      <trkpt lat="28.42089" lon="-14.01379">
        <ele>247.6</ele>
        <time>2021-07-05 09:49:36</time>
      </trkpt>
      <trkpt lat="28.42091" lon="-14.01379">
        <ele>247.6</ele>
        <time>2021-07-05 09:49:37</time>
      </trkpt>
      <trkpt lat="28.42092" lon="-14.01379">
        <ele>247.6</ele>
        <time>2021-07-05 09:49:38</time>
      </trkpt>
      <trkpt lat="28.42093" lon="-14.01379">
        <ele>247.6</ele>
        <time>2021-07-05 09:49:39</time>
      </trkpt>
      <trkpt lat="28.42093" lon="-14.01379">
        <ele>247.6</ele>
        <time>2021-07-05 09:49:40</time>
      </trkpt>
      <trkpt lat="28.42094" lon="-14.0138">
        <ele>247.8</ele>
        <time>2021-07-05 09:49:41</time>
      </trkpt>
      <trkpt lat="28.42095" lon="-14.0138">
        <ele>247.8</ele>
        <time>2021-07-05 09:49:42</time>
      </trkpt>
      <trkpt lat="28.42095" lon="-14.01382">
        <ele>247.8</ele>
        <time>2021-07-05 09:49:43</time>
      </trkpt>
      <trkpt lat="28.42095" lon="-14.01383">
        <ele>247.8</ele>
        <time>2021-07-05 09:49:44</time>
      </trkpt>
      <trkpt lat="28.42095" lon="-14.01383">
        <ele>247.8</ele>
        <time>2021-07-05 09:49:45</time>
      </trkpt>
      <trkpt lat="28.42095" lon="-14.01384">
        <ele>247.4</ele>
        <time>2021-07-05 09:49:46</time>
      </trkpt>
      <trkpt lat="28.42095" lon="-14.01384">
        <ele>247.4</ele>
        <time>2021-07-05 09:49:47</time>
      </trkpt>
      <trkpt lat="28.42096" lon="-14.01384">
        <ele>247</ele>
        <time>2021-07-05 09:49:48</time>
      </trkpt>
      <trkpt lat="28.42097" lon="-14.01386">
        <ele>247</ele>
        <time>2021-07-05 09:49:49</time>
      </trkpt>
      <trkpt lat="28.42098" lon="-14.01386">
        <ele>246.8</ele>
        <time>2021-07-05 09:49:50</time>
      </trkpt>
      <trkpt lat="28.421" lon="-14.01387">
        <ele>246.8</ele>
        <time>2021-07-05 09:49:51</time>
      </trkpt>
      <trkpt lat="28.42101" lon="-14.01387">
        <ele>246.6</ele>
        <time>2021-07-05 09:49:52</time>
      </trkpt>
      <trkpt lat="28.42104" lon="-14.01386">
        <ele>246.6</ele>
        <time>2021-07-05 09:49:53</time>
      </trkpt>
      <trkpt lat="28.42106" lon="-14.01387">
        <ele>246.8</ele>
        <time>2021-07-05 09:49:54</time>
      </trkpt>
      <trkpt lat="28.42108" lon="-14.01387">
        <ele>246.8</ele>
        <time>2021-07-05 09:49:55</time>
      </trkpt>
      <trkpt lat="28.42111" lon="-14.01388">
        <ele>246.8</ele>
        <time>2021-07-05 09:49:56</time>
      </trkpt>
      <trkpt lat="28.42113" lon="-14.01389">
        <ele>247</ele>
        <time>2021-07-05 09:49:57</time>
      </trkpt>
      <trkpt lat="28.42116" lon="-14.0139">
        <ele>247.2</ele>
        <time>2021-07-05 09:49:58</time>
      </trkpt>
      <trkpt lat="28.42119" lon="-14.01391">
        <ele>247.2</ele>
        <time>2021-07-05 09:49:59</time>
      </trkpt>
      <trkpt lat="28.42121" lon="-14.01392">
        <ele>247.6</ele>
        <time>2021-07-05 09:50:00</time>
      </trkpt>
      <trkpt lat="28.42124" lon="-14.01393">
        <ele>247.8</ele>
        <time>2021-07-05 09:50:01</time>
      </trkpt>
      <trkpt lat="28.42127" lon="-14.01393">
        <ele>247.8</ele>
        <time>2021-07-05 09:50:02</time>
      </trkpt>
      <trkpt lat="28.4213" lon="-14.01394">
        <ele>248.2</ele>
        <time>2021-07-05 09:50:03</time>
      </trkpt>
      <trkpt lat="28.42133" lon="-14.01394">
        <ele>248.4</ele>
        <time>2021-07-05 09:50:04</time>
      </trkpt>
      <trkpt lat="28.42136" lon="-14.01394">
        <ele>248.4</ele>
        <time>2021-07-05 09:50:05</time>
      </trkpt>
      <trkpt lat="28.42139" lon="-14.01395">
        <ele>248.4</ele>
        <time>2021-07-05 09:50:06</time>
      </trkpt>
      <trkpt lat="28.42141" lon="-14.01396">
        <ele>248.8</ele>
        <time>2021-07-05 09:50:07</time>
      </trkpt>
      <trkpt lat="28.42144" lon="-14.01396">
        <ele>248.8</ele>
        <time>2021-07-05 09:50:08</time>
      </trkpt>
      <trkpt lat="28.42147" lon="-14.01396">
        <ele>249.2</ele>
        <time>2021-07-05 09:50:09</time>
      </trkpt>
      <trkpt lat="28.4215" lon="-14.01397">
        <ele>249.2</ele>
        <time>2021-07-05 09:50:10</time>
      </trkpt>
      <trkpt lat="28.42153" lon="-14.01397">
        <ele>249.4</ele>
        <time>2021-07-05 09:50:11</time>
      </trkpt>
      <trkpt lat="28.42156" lon="-14.01398">
        <ele>249.6</ele>
        <time>2021-07-05 09:50:12</time>
      </trkpt>
      <trkpt lat="28.42159" lon="-14.01399">
        <ele>249.6</ele>
        <time>2021-07-05 09:50:13</time>
      </trkpt>
      <trkpt lat="28.42162" lon="-14.014">
        <ele>249.6</ele>
        <time>2021-07-05 09:50:14</time>
      </trkpt>
      <trkpt lat="28.42165" lon="-14.01401">
        <ele>249.4</ele>
        <time>2021-07-05 09:50:15</time>
      </trkpt>
      <trkpt lat="28.42168" lon="-14.01402">
        <ele>249.4</ele>
        <time>2021-07-05 09:50:16</time>
      </trkpt>
      <trkpt lat="28.42172" lon="-14.01402">
        <ele>249.4</ele>
        <time>2021-07-05 09:50:17</time>
      </trkpt>
      <trkpt lat="28.42175" lon="-14.01403">
        <ele>249.4</ele>
        <time>2021-07-05 09:50:18</time>
      </trkpt>
      <trkpt lat="28.42178" lon="-14.01403">
        <ele>249.4</ele>
        <time>2021-07-05 09:50:19</time>
      </trkpt>
      <trkpt lat="28.42181" lon="-14.01404">
        <ele>249.2</ele>
        <time>2021-07-05 09:50:20</time>
      </trkpt>
      <trkpt lat="28.42184" lon="-14.01404">
        <ele>249.2</ele>
        <time>2021-07-05 09:50:21</time>
      </trkpt>
      <trkpt lat="28.42188" lon="-14.01405">
        <ele>249.2</ele>
        <time>2021-07-05 09:50:22</time>
      </trkpt>
      <trkpt lat="28.42191" lon="-14.01405">
        <ele>249.2</ele>
        <time>2021-07-05 09:50:23</time>
      </trkpt>
      <trkpt lat="28.42194" lon="-14.01406">
        <ele>249.4</ele>
        <time>2021-07-05 09:50:24</time>
      </trkpt>
      <trkpt lat="28.42197" lon="-14.01407">
        <ele>249.4</ele>
        <time>2021-07-05 09:50:25</time>
      </trkpt>
      <trkpt lat="28.422" lon="-14.01407">
        <ele>249.8</ele>
        <time>2021-07-05 09:50:26</time>
      </trkpt>
      <trkpt lat="28.42203" lon="-14.01408">
        <ele>249.8</ele>
        <time>2021-07-05 09:50:27</time>
      </trkpt>
      <trkpt lat="28.42205" lon="-14.01409">
        <ele>249.8</ele>
        <time>2021-07-05 09:50:28</time>
      </trkpt>
      <trkpt lat="28.42207" lon="-14.01409">
        <ele>249.8</ele>
        <time>2021-07-05 09:50:29</time>
      </trkpt>
      <trkpt lat="28.42209" lon="-14.01409">
        <ele>249.8</ele>
        <time>2021-07-05 09:50:30</time>
      </trkpt>
      <trkpt lat="28.42211" lon="-14.0141">
        <ele>249.8</ele>
        <time>2021-07-05 09:50:31</time>
      </trkpt>
      <trkpt lat="28.42213" lon="-14.01411">
        <ele>249.8</ele>
        <time>2021-07-05 09:50:32</time>
      </trkpt>
      <trkpt lat="28.42214" lon="-14.01412">
        <ele>249.4</ele>
        <time>2021-07-05 09:50:33</time>
      </trkpt>
      <trkpt lat="28.42215" lon="-14.01414">
        <ele>249.4</ele>
        <time>2021-07-05 09:50:34</time>
      </trkpt>
      <trkpt lat="28.42216" lon="-14.01418">
        <ele>249.4</ele>
        <time>2021-07-05 09:50:35</time>
      </trkpt>
      <trkpt lat="28.42217" lon="-14.01421">
        <ele>249.4</ele>
        <time>2021-07-05 09:50:36</time>
      </trkpt>
      <trkpt lat="28.42218" lon="-14.01425">
        <ele>249.4</ele>
        <time>2021-07-05 09:50:37</time>
      </trkpt>
      <trkpt lat="28.42219" lon="-14.01428">
        <ele>249.4</ele>
        <time>2021-07-05 09:50:38</time>
      </trkpt>
      <trkpt lat="28.4222" lon="-14.01431">
        <ele>249.8</ele>
        <time>2021-07-05 09:50:39</time>
      </trkpt>
      <trkpt lat="28.42222" lon="-14.01433">
        <ele>249.8</ele>
        <time>2021-07-05 09:50:40</time>
      </trkpt>
      <trkpt lat="28.42224" lon="-14.01435">
        <ele>250</ele>
        <time>2021-07-05 09:50:41</time>
      </trkpt>
      <trkpt lat="28.42228" lon="-14.01435">
        <ele>250</ele>
        <time>2021-07-05 09:50:42</time>
      </trkpt>
      <trkpt lat="28.42231" lon="-14.01434">
        <ele>250</ele>
        <time>2021-07-05 09:50:43</time>
      </trkpt>
      <trkpt lat="28.42234" lon="-14.01433">
        <ele>250.4</ele>
        <time>2021-07-05 09:50:44</time>
      </trkpt>
      <trkpt lat="28.42237" lon="-14.01432">
        <ele>250.4</ele>
        <time>2021-07-05 09:50:45</time>
      </trkpt>
      <trkpt lat="28.42241" lon="-14.01431">
        <ele>250.6</ele>
        <time>2021-07-05 09:50:46</time>
      </trkpt>
      <trkpt lat="28.42244" lon="-14.0143">
        <ele>250.6</ele>
        <time>2021-07-05 09:50:47</time>
      </trkpt>
      <trkpt lat="28.42247" lon="-14.0143">
        <ele>250.8</ele>
        <time>2021-07-05 09:50:48</time>
      </trkpt>
      <trkpt lat="28.4225" lon="-14.01429">
        <ele>250.8</ele>
        <time>2021-07-05 09:50:49</time>
      </trkpt>
      <trkpt lat="28.42253" lon="-14.01429">
        <ele>250.8</ele>
        <time>2021-07-05 09:50:50</time>
      </trkpt>
      <trkpt lat="28.42256" lon="-14.01428">
        <ele>251</ele>
        <time>2021-07-05 09:50:51</time>
      </trkpt>
      <trkpt lat="28.42259" lon="-14.01427">
        <ele>251</ele>
        <time>2021-07-05 09:50:52</time>
      </trkpt>
      <trkpt lat="28.42262" lon="-14.01427">
        <ele>251</ele>
        <time>2021-07-05 09:50:53</time>
      </trkpt>
      <trkpt lat="28.42265" lon="-14.01426">
        <ele>251.6</ele>
        <time>2021-07-05 09:50:54</time>
      </trkpt>
      <trkpt lat="28.42268" lon="-14.01426">
        <ele>251.6</ele>
        <time>2021-07-05 09:50:55</time>
      </trkpt>
      <trkpt lat="28.42272" lon="-14.01425">
        <ele>251.6</ele>
        <time>2021-07-05 09:50:56</time>
      </trkpt>
      <trkpt lat="28.42275" lon="-14.01424">
        <ele>251.8</ele>
        <time>2021-07-05 09:50:57</time>
      </trkpt>
      <trkpt lat="28.42278" lon="-14.01424">
        <ele>252.2</ele>
        <time>2021-07-05 09:50:58</time>
      </trkpt>
      <trkpt lat="28.42281" lon="-14.01423">
        <ele>252.2</ele>
        <time>2021-07-05 09:50:59</time>
      </trkpt>
      <trkpt lat="28.42284" lon="-14.01422">
        <ele>252.2</ele>
        <time>2021-07-05 09:51:00</time>
      </trkpt>
      <trkpt lat="28.42287" lon="-14.01421">
        <ele>252.2</ele>
        <time>2021-07-05 09:51:01</time>
      </trkpt>
      <trkpt lat="28.4229" lon="-14.0142">
        <ele>252.4</ele>
        <time>2021-07-05 09:51:02</time>
      </trkpt>
      <trkpt lat="28.42293" lon="-14.01419">
        <ele>252.4</ele>
        <time>2021-07-05 09:51:03</time>
      </trkpt>
      <trkpt lat="28.42295" lon="-14.01418">
        <ele>252.4</ele>
        <time>2021-07-05 09:51:04</time>
      </trkpt>
      <trkpt lat="28.42298" lon="-14.01417">
        <ele>252.4</ele>
        <time>2021-07-05 09:51:05</time>
      </trkpt>
      <trkpt lat="28.423" lon="-14.01417">
        <ele>252.6</ele>
        <time>2021-07-05 09:51:06</time>
      </trkpt>
      <trkpt lat="28.42303" lon="-14.01416">
        <ele>252.6</ele>
        <time>2021-07-05 09:51:07</time>
      </trkpt>
      <trkpt lat="28.42306" lon="-14.01415">
        <ele>252.6</ele>
        <time>2021-07-05 09:51:08</time>
      </trkpt>
      <trkpt lat="28.42309" lon="-14.01415">
        <ele>252.6</ele>
        <time>2021-07-05 09:51:09</time>
      </trkpt>
      <trkpt lat="28.42312" lon="-14.01414">
        <ele>252.8</ele>
        <time>2021-07-05 09:51:10</time>
      </trkpt>
      <trkpt lat="28.42315" lon="-14.01414">
        <ele>252.8</ele>
        <time>2021-07-05 09:51:11</time>
      </trkpt>
      <trkpt lat="28.42318" lon="-14.01413">
        <ele>252.8</ele>
        <time>2021-07-05 09:51:12</time>
      </trkpt>
      <trkpt lat="28.42321" lon="-14.01413">
        <ele>253</ele>
        <time>2021-07-05 09:51:13</time>
      </trkpt>
      <trkpt lat="28.42324" lon="-14.01413">
        <ele>253</ele>
        <time>2021-07-05 09:51:14</time>
      </trkpt>
      <trkpt lat="28.42327" lon="-14.01412">
        <ele>253</ele>
        <time>2021-07-05 09:51:15</time>
      </trkpt>
      <trkpt lat="28.42329" lon="-14.01412">
        <ele>253</ele>
        <time>2021-07-05 09:51:16</time>
      </trkpt>
      <trkpt lat="28.42332" lon="-14.01411">
        <ele>253.2</ele>
        <time>2021-07-05 09:51:17</time>
      </trkpt>
      <trkpt lat="28.42334" lon="-14.01411">
        <ele>253.2</ele>
        <time>2021-07-05 09:51:18</time>
      </trkpt>
      <trkpt lat="28.42337" lon="-14.0141">
        <ele>253.4</ele>
        <time>2021-07-05 09:51:19</time>
      </trkpt>
      <trkpt lat="28.42339" lon="-14.0141">
        <ele>253.4</ele>
        <time>2021-07-05 09:51:20</time>
      </trkpt>
      <trkpt lat="28.42341" lon="-14.01409">
        <ele>253.8</ele>
        <time>2021-07-05 09:51:21</time>
      </trkpt>
      <trkpt lat="28.42344" lon="-14.01409">
        <ele>253.8</ele>
        <time>2021-07-05 09:51:22</time>
      </trkpt>
      <trkpt lat="28.42346" lon="-14.01409">
        <ele>253.8</ele>
        <time>2021-07-05 09:51:23</time>
      </trkpt>
      <trkpt lat="28.42347" lon="-14.01409">
        <ele>253.8</ele>
        <time>2021-07-05 09:51:24</time>
      </trkpt>
      <trkpt lat="28.42349" lon="-14.01409">
        <ele>254</ele>
        <time>2021-07-05 09:51:25</time>
      </trkpt>
      <trkpt lat="28.42351" lon="-14.01409">
        <ele>254</ele>
        <time>2021-07-05 09:51:26</time>
      </trkpt>
      <trkpt lat="28.42352" lon="-14.0141">
        <ele>254</ele>
        <time>2021-07-05 09:51:27</time>
      </trkpt>
      <trkpt lat="28.42354" lon="-14.01411">
        <ele>254</ele>
        <time>2021-07-05 09:51:28</time>
      </trkpt>
      <trkpt lat="28.42355" lon="-14.01412">
        <ele>253.6</ele>
        <time>2021-07-05 09:51:29</time>
      </trkpt>
      <trkpt lat="28.42356" lon="-14.01414">
        <ele>253.6</ele>
        <time>2021-07-05 09:51:30</time>
      </trkpt>
      <trkpt lat="28.42357" lon="-14.01416">
        <ele>253.6</ele>
        <time>2021-07-05 09:51:31</time>
      </trkpt>
      <trkpt lat="28.42358" lon="-14.01418">
        <ele>253.6</ele>
        <time>2021-07-05 09:51:32</time>
      </trkpt>
      <trkpt lat="28.42358" lon="-14.01421">
        <ele>253.6</ele>
        <time>2021-07-05 09:51:33</time>
      </trkpt>
      <trkpt lat="28.42358" lon="-14.01423">
        <ele>253.4</ele>
        <time>2021-07-05 09:51:34</time>
      </trkpt>
      <trkpt lat="28.42358" lon="-14.01423">
        <ele>253.4</ele>
        <time>2021-07-05 09:51:35</time>
      </trkpt>
      <trkpt lat="28.42358" lon="-14.01424">
        <ele>253.4</ele>
        <time>2021-07-05 09:51:36</time>
      </trkpt>
      <trkpt lat="28.42357" lon="-14.01423">
        <ele>253.4</ele>
        <time>2021-07-05 09:51:37</time>
      </trkpt>
      <trkpt lat="28.42356" lon="-14.01424">
        <ele>253</ele>
        <time>2021-07-05 09:52:54</time>
      </trkpt>
      <trkpt lat="28.42355" lon="-14.01424">
        <ele>252.6</ele>
        <time>2021-07-05 09:52:55</time>
      </trkpt>
      <trkpt lat="28.42353" lon="-14.01424">
        <ele>252.6</ele>
        <time>2021-07-05 09:52:56</time>
      </trkpt>
      <trkpt lat="28.42351" lon="-14.01421">
        <ele>252.6</ele>
        <time>2021-07-05 09:52:57</time>
      </trkpt>
      <trkpt lat="28.4235" lon="-14.01418">
        <ele>252.4</ele>
        <time>2021-07-05 09:52:58</time>
      </trkpt>
      <trkpt lat="28.42349" lon="-14.01414">
        <ele>252.4</ele>
        <time>2021-07-05 09:52:59</time>
      </trkpt>
      <trkpt lat="28.42347" lon="-14.01411">
        <ele>252.2</ele>
        <time>2021-07-05 09:53:00</time>
      </trkpt>
      <trkpt lat="28.42344" lon="-14.01409">
        <ele>252.2</ele>
        <time>2021-07-05 09:53:01</time>
      </trkpt>
      <trkpt lat="28.42341" lon="-14.01409">
        <ele>252.2</ele>
        <time>2021-07-05 09:53:02</time>
      </trkpt>
      <trkpt lat="28.42337" lon="-14.01409">
        <ele>252.2</ele>
        <time>2021-07-05 09:53:03</time>
      </trkpt>
      <trkpt lat="28.42334" lon="-14.01411">
        <ele>252.2</ele>
        <time>2021-07-05 09:53:04</time>
      </trkpt>
      <trkpt lat="28.4233" lon="-14.01412">
        <ele>252.2</ele>
        <time>2021-07-05 09:53:05</time>
      </trkpt>
      <trkpt lat="28.42326" lon="-14.01411">
        <ele>252.2</ele>
        <time>2021-07-05 09:53:06</time>
      </trkpt>
      <trkpt lat="28.42327" lon="-14.01405">
        <ele>252</ele>
        <time>2021-07-05 09:53:07</time>
      </trkpt>
      <trkpt lat="28.42327" lon="-14.01401">
        <ele>252</ele>
        <time>2021-07-05 09:53:08</time>
      </trkpt>
      <trkpt lat="28.42327" lon="-14.01396">
        <ele>252</ele>
        <time>2021-07-05 09:53:09</time>
      </trkpt>
      <trkpt lat="28.42328" lon="-14.01393">
        <ele>252.2</ele>
        <time>2021-07-05 09:53:10</time>
      </trkpt>
      <trkpt lat="28.42327" lon="-14.01387">
        <ele>252.2</ele>
        <time>2021-07-05 09:53:11</time>
      </trkpt>
      <trkpt lat="28.42326" lon="-14.01382">
        <ele>252.2</ele>
        <time>2021-07-05 09:53:12</time>
      </trkpt>
      <trkpt lat="28.42326" lon="-14.01377">
        <ele>252.4</ele>
        <time>2021-07-05 09:53:13</time>
      </trkpt>
      <trkpt lat="28.42325" lon="-14.01372">
        <ele>252.4</ele>
        <time>2021-07-05 09:53:14</time>
      </trkpt>
      <trkpt lat="28.42325" lon="-14.01367">
        <ele>252.4</ele>
        <time>2021-07-05 09:53:15</time>
      </trkpt>
      <trkpt lat="28.42325" lon="-14.01362">
        <ele>252.4</ele>
        <time>2021-07-05 09:53:16</time>
      </trkpt>
      <trkpt lat="28.42325" lon="-14.01357">
        <ele>252.4</ele>
        <time>2021-07-05 09:53:17</time>
      </trkpt>
      <trkpt lat="28.42325" lon="-14.01352">
        <ele>252.4</ele>
        <time>2021-07-05 09:53:18</time>
      </trkpt>
      <trkpt lat="28.42324" lon="-14.01348">
        <ele>252.4</ele>
        <time>2021-07-05 09:53:19</time>
      </trkpt>
      <trkpt lat="28.42323" lon="-14.01342">
        <ele>252.4</ele>
        <time>2021-07-05 09:53:20</time>
      </trkpt>
      <trkpt lat="28.42324" lon="-14.01338">
        <ele>252.4</ele>
        <time>2021-07-05 09:53:21</time>
      </trkpt>
      <trkpt lat="28.42323" lon="-14.01333">
        <ele>252.8</ele>
        <time>2021-07-05 09:53:22</time>
      </trkpt>
      <trkpt lat="28.42323" lon="-14.01328">
        <ele>252.8</ele>
        <time>2021-07-05 09:53:23</time>
      </trkpt>
      <trkpt lat="28.42323" lon="-14.01323">
        <ele>252.8</ele>
        <time>2021-07-05 09:53:24</time>
      </trkpt>
      <trkpt lat="28.42322" lon="-14.01318">
        <ele>252.8</ele>
        <time>2021-07-05 09:53:25</time>
      </trkpt>
      <trkpt lat="28.42322" lon="-14.01313">
        <ele>252.8</ele>
        <time>2021-07-05 09:53:26</time>
      </trkpt>
      <trkpt lat="28.42322" lon="-14.01308">
        <ele>252.8</ele>
        <time>2021-07-05 09:53:27</time>
      </trkpt>
      <trkpt lat="28.42321" lon="-14.01303">
        <ele>253</ele>
        <time>2021-07-05 09:53:28</time>
      </trkpt>
      <trkpt lat="28.42321" lon="-14.01299">
        <ele>253.4</ele>
        <time>2021-07-05 09:53:29</time>
      </trkpt>
      <trkpt lat="28.42321" lon="-14.01294">
        <ele>253.4</ele>
        <time>2021-07-05 09:53:30</time>
      </trkpt>
      <trkpt lat="28.4232" lon="-14.01289">
        <ele>253.4</ele>
        <time>2021-07-05 09:53:31</time>
      </trkpt>
      <trkpt lat="28.4232" lon="-14.01285">
        <ele>253.4</ele>
        <time>2021-07-05 09:53:32</time>
      </trkpt>
      <trkpt lat="28.4232" lon="-14.01281">
        <ele>253.4</ele>
        <time>2021-07-05 09:53:33</time>
      </trkpt>
      <trkpt lat="28.4232" lon="-14.01277">
        <ele>253.4</ele>
        <time>2021-07-05 09:53:34</time>
      </trkpt>
      <trkpt lat="28.4232" lon="-14.01273">
        <ele>253.4</ele>
        <time>2021-07-05 09:53:35</time>
      </trkpt>
      <trkpt lat="28.42319" lon="-14.0127">
        <ele>253.4</ele>
        <time>2021-07-05 09:53:36</time>
      </trkpt>
      <trkpt lat="28.42319" lon="-14.01267">
        <ele>253.4</ele>
        <time>2021-07-05 09:53:37</time>
      </trkpt>
      <trkpt lat="28.42317" lon="-14.01264">
        <ele>253.6</ele>
        <time>2021-07-05 09:53:38</time>
      </trkpt>
      <trkpt lat="28.42315" lon="-14.01262">
        <ele>253.6</ele>
        <time>2021-07-05 09:53:39</time>
      </trkpt>
      <trkpt lat="28.42311" lon="-14.01261">
        <ele>253.6</ele>
        <time>2021-07-05 09:53:40</time>
      </trkpt>
      <trkpt lat="28.42307" lon="-14.01261">
        <ele>253.8</ele>
        <time>2021-07-05 09:53:41</time>
      </trkpt>
      <trkpt lat="28.42303" lon="-14.01261">
        <ele>253.8</ele>
        <time>2021-07-05 09:53:42</time>
      </trkpt>
      <trkpt lat="28.42298" lon="-14.01261">
        <ele>253.8</ele>
        <time>2021-07-05 09:53:43</time>
      </trkpt>
      <trkpt lat="28.42293" lon="-14.01263">
        <ele>253.8</ele>
        <time>2021-07-05 09:53:44</time>
      </trkpt>
      <trkpt lat="28.42289" lon="-14.01263">
        <ele>253.8</ele>
        <time>2021-07-05 09:53:45</time>
      </trkpt>
      <trkpt lat="28.42284" lon="-14.01263">
        <ele>253.8</ele>
        <time>2021-07-05 09:53:46</time>
      </trkpt>
      <trkpt lat="28.42279" lon="-14.01264">
        <ele>253.8</ele>
        <time>2021-07-05 09:53:47</time>
      </trkpt>
      <trkpt lat="28.42274" lon="-14.01265">
        <ele>253.8</ele>
        <time>2021-07-05 09:53:48</time>
      </trkpt>
      <trkpt lat="28.42269" lon="-14.01266">
        <ele>253.6</ele>
        <time>2021-07-05 09:53:49</time>
      </trkpt>
      <trkpt lat="28.42264" lon="-14.01267">
        <ele>253.6</ele>
        <time>2021-07-05 09:53:50</time>
      </trkpt>
      <trkpt lat="28.42258" lon="-14.01268">
        <ele>253.2</ele>
        <time>2021-07-05 09:53:51</time>
      </trkpt>
      <trkpt lat="28.42253" lon="-14.01269">
        <ele>253</ele>
        <time>2021-07-05 09:53:52</time>
      </trkpt>
      <trkpt lat="28.42247" lon="-14.01271">
        <ele>253</ele>
        <time>2021-07-05 09:53:53</time>
      </trkpt>
      <trkpt lat="28.42241" lon="-14.01273">
        <ele>252.6</ele>
        <time>2021-07-05 09:53:54</time>
      </trkpt>
      <trkpt lat="28.42235" lon="-14.01274">
        <ele>252.6</ele>
        <time>2021-07-05 09:53:55</time>
      </trkpt>
      <trkpt lat="28.42228" lon="-14.01276">
        <ele>252.4</ele>
        <time>2021-07-05 09:53:56</time>
      </trkpt>
      <trkpt lat="28.42221" lon="-14.01278">
        <ele>252.4</ele>
        <time>2021-07-05 09:53:57</time>
      </trkpt>
      <trkpt lat="28.42215" lon="-14.01279">
        <ele>252.2</ele>
        <time>2021-07-05 09:53:58</time>
      </trkpt>
      <trkpt lat="28.42209" lon="-14.01281">
        <ele>252.2</ele>
        <time>2021-07-05 09:53:59</time>
      </trkpt>
      <trkpt lat="28.42204" lon="-14.01282">
        <ele>251.8</ele>
        <time>2021-07-05 09:54:00</time>
      </trkpt>
      <trkpt lat="28.42198" lon="-14.01282">
        <ele>251.8</ele>
        <time>2021-07-05 09:54:01</time>
      </trkpt>
      <trkpt lat="28.42192" lon="-14.01284">
        <ele>251.6</ele>
        <time>2021-07-05 09:54:02</time>
      </trkpt>
      <trkpt lat="28.42187" lon="-14.01285">
        <ele>251.2</ele>
        <time>2021-07-05 09:54:03</time>
      </trkpt>
      <trkpt lat="28.42181" lon="-14.01286">
        <ele>251.2</ele>
        <time>2021-07-05 09:54:04</time>
      </trkpt>
      <trkpt lat="28.42175" lon="-14.01287">
        <ele>251.2</ele>
        <time>2021-07-05 09:54:05</time>
      </trkpt>
      <trkpt lat="28.42169" lon="-14.01287">
        <ele>250.8</ele>
        <time>2021-07-05 09:54:06</time>
      </trkpt>
      <trkpt lat="28.42164" lon="-14.01287">
        <ele>250.8</ele>
        <time>2021-07-05 09:54:07</time>
      </trkpt>
      <trkpt lat="28.42159" lon="-14.01288">
        <ele>250.4</ele>
        <time>2021-07-05 09:54:08</time>
      </trkpt>
      <trkpt lat="28.42155" lon="-14.01288">
        <ele>250.4</ele>
        <time>2021-07-05 09:54:09</time>
      </trkpt>
      <trkpt lat="28.4215" lon="-14.01287">
        <ele>250.2</ele>
        <time>2021-07-05 09:54:10</time>
      </trkpt>
      <trkpt lat="28.42147" lon="-14.01286">
        <ele>250.2</ele>
        <time>2021-07-05 09:54:11</time>
      </trkpt>
      <trkpt lat="28.42144" lon="-14.01285">
        <ele>249.8</ele>
        <time>2021-07-05 09:54:12</time>
      </trkpt>
      <trkpt lat="28.42144" lon="-14.01281">
        <ele>249.8</ele>
        <time>2021-07-05 09:54:13</time>
      </trkpt>
      <trkpt lat="28.42146" lon="-14.01278">
        <ele>249.2</ele>
        <time>2021-07-05 09:54:14</time>
      </trkpt>
      <trkpt lat="28.42147" lon="-14.01277">
        <ele>249.2</ele>
        <time>2021-07-05 09:54:15</time>
      </trkpt>
      <trkpt lat="28.42149" lon="-14.01276">
        <ele>249</ele>
        <time>2021-07-05 09:54:16</time>
      </trkpt>
      <trkpt lat="28.42148" lon="-14.01276">
        <ele>249</ele>
        <time>2021-07-05 09:54:17</time>
      </trkpt>
      <trkpt lat="28.42148" lon="-14.01277">
        <ele>249</ele>
        <time>2021-07-05 09:54:18</time>
      </trkpt>
      <trkpt lat="28.42148" lon="-14.01277">
        <ele>249</ele>
        <time>2021-07-05 09:54:19</time>
      </trkpt>
      <trkpt lat="28.42148" lon="-14.01277">
        <ele>249</ele>
        <time>2021-07-05 10:01:14</time>
      </trkpt>
      <trkpt lat="28.42146" lon="-14.01277">
        <ele>248.8</ele>
        <time>2021-07-05 10:01:15</time>
      </trkpt>
      <trkpt lat="28.42146" lon="-14.01278">
        <ele>248.4</ele>
        <time>2021-07-05 10:01:16</time>
      </trkpt>
      <trkpt lat="28.42145" lon="-14.01279">
        <ele>247.8</ele>
        <time>2021-07-05 10:01:17</time>
      </trkpt>
      <trkpt lat="28.42145" lon="-14.01279">
        <ele>247.8</ele>
        <time>2021-07-05 10:01:18</time>
      </trkpt>
      <trkpt lat="28.42146" lon="-14.0128">
        <ele>247.4</ele>
        <time>2021-07-05 10:01:19</time>
      </trkpt>
      <trkpt lat="28.42146" lon="-14.0128">
        <ele>247.4</ele>
        <time>2021-07-05 10:01:20</time>
      </trkpt>
      <trkpt lat="28.42146" lon="-14.01281">
        <ele>247.4</ele>
        <time>2021-07-05 10:01:30</time>
      </trkpt>
      <trkpt lat="28.42146" lon="-14.01283">
        <ele>248.2</ele>
        <time>2021-07-05 10:01:31</time>
      </trkpt>
      <trkpt lat="28.42146" lon="-14.01285">
        <ele>248.2</ele>
        <time>2021-07-05 10:01:32</time>
      </trkpt>
      <trkpt lat="28.42146" lon="-14.01286">
        <ele>248.2</ele>
        <time>2021-07-05 10:01:33</time>
      </trkpt>
      <trkpt lat="28.42147" lon="-14.01288">
        <ele>248.2</ele>
        <time>2021-07-05 10:01:34</time>
      </trkpt>
      <trkpt lat="28.42148" lon="-14.01289">
        <ele>248.2</ele>
        <time>2021-07-05 10:01:35</time>
      </trkpt>
      <trkpt lat="28.4215" lon="-14.0129">
        <ele>248.4</ele>
        <time>2021-07-05 10:01:36</time>
      </trkpt>
      <trkpt lat="28.42151" lon="-14.0129">
        <ele>248.2</ele>
        <time>2021-07-05 10:01:37</time>
      </trkpt>
      <trkpt lat="28.42151" lon="-14.0129">
        <ele>248.2</ele>
        <time>2021-07-05 10:01:38</time>
      </trkpt>
      <trkpt lat="28.42151" lon="-14.01289">
        <ele>247.8</ele>
        <time>2021-07-05 10:01:39</time>
      </trkpt>
      <trkpt lat="28.42151" lon="-14.01288">
        <ele>247.8</ele>
        <time>2021-07-05 10:01:40</time>
      </trkpt>
      <trkpt lat="28.42153" lon="-14.01288">
        <ele>247.8</ele>
        <time>2021-07-05 10:02:09</time>
      </trkpt>
      <trkpt lat="28.42154" lon="-14.01289">
        <ele>248.2</ele>
        <time>2021-07-05 10:02:10</time>
      </trkpt>
      <trkpt lat="28.42156" lon="-14.01289">
        <ele>248.2</ele>
        <time>2021-07-05 10:02:11</time>
      </trkpt>
      <trkpt lat="28.42158" lon="-14.01288">
        <ele>248.2</ele>
        <time>2021-07-05 10:02:12</time>
      </trkpt>
      <trkpt lat="28.42161" lon="-14.01288">
        <ele>248.2</ele>
        <time>2021-07-05 10:02:13</time>
      </trkpt>
      <trkpt lat="28.42163" lon="-14.01287">
        <ele>248.2</ele>
        <time>2021-07-05 10:02:14</time>
      </trkpt>
      <trkpt lat="28.42166" lon="-14.01287">
        <ele>248.2</ele>
        <time>2021-07-05 10:02:15</time>
      </trkpt>
      <trkpt lat="28.42169" lon="-14.01286">
        <ele>248.4</ele>
        <time>2021-07-05 10:02:16</time>
      </trkpt>
      <trkpt lat="28.42172" lon="-14.01285">
        <ele>248.4</ele>
        <time>2021-07-05 10:02:17</time>
      </trkpt>
      <trkpt lat="28.42175" lon="-14.01284">
        <ele>248.4</ele>
        <time>2021-07-05 10:02:18</time>
      </trkpt>
      <trkpt lat="28.42178" lon="-14.01283">
        <ele>248.6</ele>
        <time>2021-07-05 10:02:19</time>
      </trkpt>
      <trkpt lat="28.42181" lon="-14.01282">
        <ele>248.6</ele>
        <time>2021-07-05 10:02:20</time>
      </trkpt>
      <trkpt lat="28.42184" lon="-14.01282">
        <ele>248.6</ele>
        <time>2021-07-05 10:02:21</time>
      </trkpt>
      <trkpt lat="28.42187" lon="-14.01281">
        <ele>248.8</ele>
        <time>2021-07-05 10:02:22</time>
      </trkpt>
      <trkpt lat="28.4219" lon="-14.0128">
        <ele>248.8</ele>
        <time>2021-07-05 10:02:23</time>
      </trkpt>
      <trkpt lat="28.42193" lon="-14.01279">
        <ele>249.2</ele>
        <time>2021-07-05 10:02:24</time>
      </trkpt>
      <trkpt lat="28.42196" lon="-14.01279">
        <ele>249.2</ele>
        <time>2021-07-05 10:02:25</time>
      </trkpt>
      <trkpt lat="28.42199" lon="-14.01278">
        <ele>249.6</ele>
        <time>2021-07-05 10:02:26</time>
      </trkpt>
      <trkpt lat="28.42202" lon="-14.01278">
        <ele>249.6</ele>
        <time>2021-07-05 10:02:27</time>
      </trkpt>
      <trkpt lat="28.42205" lon="-14.01277">
        <ele>250</ele>
        <time>2021-07-05 10:02:28</time>
      </trkpt>
      <trkpt lat="28.42209" lon="-14.01276">
        <ele>250</ele>
        <time>2021-07-05 10:02:29</time>
      </trkpt>
      <trkpt lat="28.42212" lon="-14.01275">
        <ele>250</ele>
        <time>2021-07-05 10:02:30</time>
      </trkpt>
      <trkpt lat="28.42215" lon="-14.01273">
        <ele>250.2</ele>
        <time>2021-07-05 10:02:31</time>
      </trkpt>
      <trkpt lat="28.42219" lon="-14.01273">
        <ele>250.2</ele>
        <time>2021-07-05 10:02:32</time>
      </trkpt>
      <trkpt lat="28.42222" lon="-14.01272">
        <ele>250.2</ele>
        <time>2021-07-05 10:02:33</time>
      </trkpt>
      <trkpt lat="28.42225" lon="-14.01271">
        <ele>250.2</ele>
        <time>2021-07-05 10:02:34</time>
      </trkpt>
      <trkpt lat="28.42229" lon="-14.0127">
        <ele>250.2</ele>
        <time>2021-07-05 10:02:35</time>
      </trkpt>
      <trkpt lat="28.42232" lon="-14.01269">
        <ele>250.4</ele>
        <time>2021-07-05 10:02:36</time>
      </trkpt>
      <trkpt lat="28.42235" lon="-14.01268">
        <ele>250.8</ele>
        <time>2021-07-05 10:02:37</time>
      </trkpt>
      <trkpt lat="28.42238" lon="-14.01267">
        <ele>250.8</ele>
        <time>2021-07-05 10:02:38</time>
      </trkpt>
      <trkpt lat="28.42242" lon="-14.01266">
        <ele>251.2</ele>
        <time>2021-07-05 10:02:39</time>
      </trkpt>
      <trkpt lat="28.42245" lon="-14.01265">
        <ele>251.2</ele>
        <time>2021-07-05 10:02:40</time>
      </trkpt>
      <trkpt lat="28.42248" lon="-14.01264">
        <ele>251.2</ele>
        <time>2021-07-05 10:02:41</time>
      </trkpt>
      <trkpt lat="28.42251" lon="-14.01262">
        <ele>251.2</ele>
        <time>2021-07-05 10:02:42</time>
      </trkpt>
      <trkpt lat="28.42254" lon="-14.01261">
        <ele>251.2</ele>
        <time>2021-07-05 10:02:43</time>
      </trkpt>
      <trkpt lat="28.42257" lon="-14.0126">
        <ele>251.4</ele>
        <time>2021-07-05 10:02:44</time>
      </trkpt>
      <trkpt lat="28.4226" lon="-14.0126">
        <ele>251.4</ele>
        <time>2021-07-05 10:02:45</time>
      </trkpt>
      <trkpt lat="28.42263" lon="-14.0126">
        <ele>251.4</ele>
        <time>2021-07-05 10:02:46</time>
      </trkpt>
      <trkpt lat="28.42266" lon="-14.01259">
        <ele>251.6</ele>
        <time>2021-07-05 10:02:47</time>
      </trkpt>
      <trkpt lat="28.4227" lon="-14.01259">
        <ele>251.6</ele>
        <time>2021-07-05 10:02:48</time>
      </trkpt>
      <trkpt lat="28.42273" lon="-14.01259">
        <ele>252</ele>
        <time>2021-07-05 10:02:49</time>
      </trkpt>
      <trkpt lat="28.42276" lon="-14.01259">
        <ele>252.2</ele>
        <time>2021-07-05 10:02:50</time>
      </trkpt>
      <trkpt lat="28.42279" lon="-14.01258">
        <ele>252.6</ele>
        <time>2021-07-05 10:02:51</time>
      </trkpt>
      <trkpt lat="28.42281" lon="-14.01257">
        <ele>252.6</ele>
        <time>2021-07-05 10:02:52</time>
      </trkpt>
      <trkpt lat="28.42284" lon="-14.01257">
        <ele>252.8</ele>
        <time>2021-07-05 10:02:53</time>
      </trkpt>
      <trkpt lat="28.42287" lon="-14.01256">
        <ele>252.8</ele>
        <time>2021-07-05 10:02:54</time>
      </trkpt>
      <trkpt lat="28.4229" lon="-14.01255">
        <ele>253.2</ele>
        <time>2021-07-05 10:02:55</time>
      </trkpt>
      <trkpt lat="28.42293" lon="-14.01255">
        <ele>253.4</ele>
        <time>2021-07-05 10:02:56</time>
      </trkpt>
      <trkpt lat="28.42295" lon="-14.01255">
        <ele>253.6</ele>
        <time>2021-07-05 10:02:57</time>
      </trkpt>
      <trkpt lat="28.42298" lon="-14.01255">
        <ele>253.6</ele>
        <time>2021-07-05 10:02:58</time>
      </trkpt>
      <trkpt lat="28.42301" lon="-14.01255">
        <ele>253.8</ele>
        <time>2021-07-05 10:02:59</time>
      </trkpt>
      <trkpt lat="28.42304" lon="-14.01255">
        <ele>253.8</ele>
        <time>2021-07-05 10:03:00</time>
      </trkpt>
      <trkpt lat="28.42307" lon="-14.01256">
        <ele>254.2</ele>
        <time>2021-07-05 10:03:01</time>
      </trkpt>
      <trkpt lat="28.4231" lon="-14.01256">
        <ele>254.2</ele>
        <time>2021-07-05 10:03:02</time>
      </trkpt>
      <trkpt lat="28.42313" lon="-14.01257">
        <ele>254.2</ele>
        <time>2021-07-05 10:03:03</time>
      </trkpt>
      <trkpt lat="28.42316" lon="-14.01257">
        <ele>254.4</ele>
        <time>2021-07-05 10:03:04</time>
      </trkpt>
      <trkpt lat="28.42319" lon="-14.01258">
        <ele>254.4</ele>
        <time>2021-07-05 10:03:05</time>
      </trkpt>
      <trkpt lat="28.42322" lon="-14.01258">
        <ele>254.4</ele>
        <time>2021-07-05 10:03:06</time>
      </trkpt>
      <trkpt lat="28.42325" lon="-14.01259">
        <ele>254.4</ele>
        <time>2021-07-05 10:03:07</time>
      </trkpt>
      <trkpt lat="28.42328" lon="-14.01259">
        <ele>254.4</ele>
        <time>2021-07-05 10:03:08</time>
      </trkpt>
      <trkpt lat="28.42331" lon="-14.01259">
        <ele>254.6</ele>
        <time>2021-07-05 10:03:09</time>
      </trkpt>
      <trkpt lat="28.42334" lon="-14.01259">
        <ele>254.6</ele>
        <time>2021-07-05 10:03:10</time>
      </trkpt>
      <trkpt lat="28.42338" lon="-14.0126">
        <ele>255</ele>
        <time>2021-07-05 10:03:11</time>
      </trkpt>
      <trkpt lat="28.42341" lon="-14.0126">
        <ele>255</ele>
        <time>2021-07-05 10:03:12</time>
      </trkpt>
      <trkpt lat="28.42344" lon="-14.0126">
        <ele>255</ele>
        <time>2021-07-05 10:03:13</time>
      </trkpt>
      <trkpt lat="28.42347" lon="-14.01261">
        <ele>255.2</ele>
        <time>2021-07-05 10:03:14</time>
      </trkpt>
      <trkpt lat="28.4235" lon="-14.01261">
        <ele>255.2</ele>
        <time>2021-07-05 10:03:15</time>
      </trkpt>
      <trkpt lat="28.42354" lon="-14.01262">
        <ele>255.2</ele>
        <time>2021-07-05 10:03:16</time>
      </trkpt>
      <trkpt lat="28.42357" lon="-14.01262">
        <ele>255.2</ele>
        <time>2021-07-05 10:03:17</time>
      </trkpt>
      <trkpt lat="28.4236" lon="-14.01262">
        <ele>255.2</ele>
        <time>2021-07-05 10:03:18</time>
      </trkpt>
      <trkpt lat="28.42364" lon="-14.01263">
        <ele>255.4</ele>
        <time>2021-07-05 10:03:19</time>
      </trkpt>
      <trkpt lat="28.42367" lon="-14.01263">
        <ele>255.4</ele>
        <time>2021-07-05 10:03:20</time>
      </trkpt>
      <trkpt lat="28.4237" lon="-14.01263">
        <ele>255.4</ele>
        <time>2021-07-05 10:03:21</time>
      </trkpt>
      <trkpt lat="28.42373" lon="-14.01264">
        <ele>255.4</ele>
        <time>2021-07-05 10:03:22</time>
      </trkpt>
      <trkpt lat="28.42377" lon="-14.01264">
        <ele>255.4</ele>
        <time>2021-07-05 10:03:23</time>
      </trkpt>
      <trkpt lat="28.4238" lon="-14.01265">
        <ele>255.8</ele>
        <time>2021-07-05 10:03:24</time>
      </trkpt>
      <trkpt lat="28.42383" lon="-14.01266">
        <ele>255.8</ele>
        <time>2021-07-05 10:03:25</time>
      </trkpt>
      <trkpt lat="28.42387" lon="-14.01267">
        <ele>255.8</ele>
        <time>2021-07-05 10:03:26</time>
      </trkpt>
      <trkpt lat="28.4239" lon="-14.01269">
        <ele>255.8</ele>
        <time>2021-07-05 10:03:27</time>
      </trkpt>
      <trkpt lat="28.42393" lon="-14.0127">
        <ele>255.8</ele>
        <time>2021-07-05 10:03:28</time>
      </trkpt>
      <trkpt lat="28.42396" lon="-14.01271">
        <ele>256</ele>
        <time>2021-07-05 10:03:29</time>
      </trkpt>
      <trkpt lat="28.424" lon="-14.01272">
        <ele>256</ele>
        <time>2021-07-05 10:03:30</time>
      </trkpt>
      <trkpt lat="28.42402" lon="-14.01275">
        <ele>256.4</ele>
        <time>2021-07-05 10:03:31</time>
      </trkpt>
      <trkpt lat="28.42403" lon="-14.01279">
        <ele>256.8</ele>
        <time>2021-07-05 10:03:32</time>
      </trkpt>
      <trkpt lat="28.42403" lon="-14.01283">
        <ele>256.6</ele>
        <time>2021-07-05 10:03:33</time>
      </trkpt>
      <trkpt lat="28.42401" lon="-14.01288">
        <ele>256.4</ele>
        <time>2021-07-05 10:03:34</time>
      </trkpt>
      <trkpt lat="28.42399" lon="-14.01292">
        <ele>256.4</ele>
        <time>2021-07-05 10:03:35</time>
      </trkpt>
      <trkpt lat="28.42395" lon="-14.01297">
        <ele>256.4</ele>
        <time>2021-07-05 10:03:36</time>
      </trkpt>
      <trkpt lat="28.42393" lon="-14.01302">
        <ele>256.4</ele>
        <time>2021-07-05 10:03:37</time>
      </trkpt>
      <trkpt lat="28.42391" lon="-14.01306">
        <ele>256.4</ele>
        <time>2021-07-05 10:03:38</time>
      </trkpt>
      <trkpt lat="28.4239" lon="-14.01311">
        <ele>256.4</ele>
        <time>2021-07-05 10:03:39</time>
      </trkpt>
      <trkpt lat="28.42387" lon="-14.01316">
        <ele>256.2</ele>
        <time>2021-07-05 10:03:40</time>
      </trkpt>
      <trkpt lat="28.42385" lon="-14.01322">
        <ele>256.2</ele>
        <time>2021-07-05 10:03:41</time>
      </trkpt>
      <trkpt lat="28.42382" lon="-14.01327">
        <ele>256.2</ele>
        <time>2021-07-05 10:03:42</time>
      </trkpt>
      <trkpt lat="28.4238" lon="-14.01333">
        <ele>255.8</ele>
        <time>2021-07-05 10:03:43</time>
      </trkpt>
      <trkpt lat="28.42378" lon="-14.01339">
        <ele>255.6</ele>
        <time>2021-07-05 10:03:44</time>
      </trkpt>
      <trkpt lat="28.42375" lon="-14.01346">
        <ele>255.2</ele>
        <time>2021-07-05 10:03:45</time>
      </trkpt>
      <trkpt lat="28.42373" lon="-14.01352">
        <ele>255</ele>
        <time>2021-07-05 10:03:46</time>
      </trkpt>
      <trkpt lat="28.4237" lon="-14.01359">
        <ele>255</ele>
        <time>2021-07-05 10:03:47</time>
      </trkpt>
      <trkpt lat="28.42368" lon="-14.01366">
        <ele>254.6</ele>
        <time>2021-07-05 10:03:48</time>
      </trkpt>
      <trkpt lat="28.42366" lon="-14.01372">
        <ele>254.6</ele>
        <time>2021-07-05 10:03:49</time>
      </trkpt>
      <trkpt lat="28.42364" lon="-14.01379">
        <ele>254.6</ele>
        <time>2021-07-05 10:03:50</time>
      </trkpt>
      <trkpt lat="28.42363" lon="-14.01386">
        <ele>254.2</ele>
        <time>2021-07-05 10:03:51</time>
      </trkpt>
      <trkpt lat="28.42361" lon="-14.01392">
        <ele>254.2</ele>
        <time>2021-07-05 10:03:52</time>
      </trkpt>
      <trkpt lat="28.4236" lon="-14.01399">
        <ele>253.8</ele>
        <time>2021-07-05 10:03:53</time>
      </trkpt>
      <trkpt lat="28.42358" lon="-14.01405">
        <ele>253.6</ele>
        <time>2021-07-05 10:03:54</time>
      </trkpt>
      <trkpt lat="28.42356" lon="-14.01411">
        <ele>253.6</ele>
        <time>2021-07-05 10:03:55</time>
      </trkpt>
      <trkpt lat="28.42355" lon="-14.01418">
        <ele>253.4</ele>
        <time>2021-07-05 10:03:56</time>
      </trkpt>
      <trkpt lat="28.42354" lon="-14.01425">
        <ele>253.4</ele>
        <time>2021-07-05 10:03:57</time>
      </trkpt>
      <trkpt lat="28.42353" lon="-14.01431">
        <ele>253.4</ele>
        <time>2021-07-05 10:03:58</time>
      </trkpt>
      <trkpt lat="28.42351" lon="-14.01438">
        <ele>253</ele>
        <time>2021-07-05 10:03:59</time>
      </trkpt>
      <trkpt lat="28.4235" lon="-14.01444">
        <ele>253</ele>
        <time>2021-07-05 10:04:00</time>
      </trkpt>
      <trkpt lat="28.42349" lon="-14.01451">
        <ele>253</ele>
        <time>2021-07-05 10:04:01</time>
      </trkpt>
      <trkpt lat="28.42347" lon="-14.01457">
        <ele>252.6</ele>
        <time>2021-07-05 10:04:02</time>
      </trkpt>
      <trkpt lat="28.42346" lon="-14.01463">
        <ele>252.6</ele>
        <time>2021-07-05 10:04:03</time>
      </trkpt>
      <trkpt lat="28.42345" lon="-14.01468">
        <ele>252.6</ele>
        <time>2021-07-05 10:04:04</time>
      </trkpt>
      <trkpt lat="28.42344" lon="-14.01474">
        <ele>252.4</ele>
        <time>2021-07-05 10:04:05</time>
      </trkpt>
      <trkpt lat="28.42343" lon="-14.0148">
        <ele>252.2</ele>
        <time>2021-07-05 10:04:06</time>
      </trkpt>
      <trkpt lat="28.42343" lon="-14.01485">
        <ele>252.2</ele>
        <time>2021-07-05 10:04:07</time>
      </trkpt>
      <trkpt lat="28.42343" lon="-14.01491">
        <ele>251.8</ele>
        <time>2021-07-05 10:04:08</time>
      </trkpt>
      <trkpt lat="28.42345" lon="-14.01495">
        <ele>251.8</ele>
        <time>2021-07-05 10:04:09</time>
      </trkpt>
      <trkpt lat="28.42349" lon="-14.01499">
        <ele>251.8</ele>
        <time>2021-07-05 10:04:10</time>
      </trkpt>
      <trkpt lat="28.42353" lon="-14.01501">
        <ele>251.6</ele>
        <time>2021-07-05 10:04:11</time>
      </trkpt>
      <trkpt lat="28.42357" lon="-14.01502">
        <ele>251.2</ele>
        <time>2021-07-05 10:04:12</time>
      </trkpt>
      <trkpt lat="28.42361" lon="-14.01504">
        <ele>251.2</ele>
        <time>2021-07-05 10:04:13</time>
      </trkpt>
      <trkpt lat="28.42365" lon="-14.01506">
        <ele>251.2</ele>
        <time>2021-07-05 10:04:14</time>
      </trkpt>
      <trkpt lat="28.4237" lon="-14.01507">
        <ele>251.2</ele>
        <time>2021-07-05 10:04:15</time>
      </trkpt>
      <trkpt lat="28.42375" lon="-14.01508">
        <ele>251.2</ele>
        <time>2021-07-05 10:04:16</time>
      </trkpt>
      <trkpt lat="28.42379" lon="-14.0151">
        <ele>251.2</ele>
        <time>2021-07-05 10:04:17</time>
      </trkpt>
      <trkpt lat="28.42383" lon="-14.01511">
        <ele>251.6</ele>
        <time>2021-07-05 10:04:18</time>
      </trkpt>
      <trkpt lat="28.42387" lon="-14.01512">
        <ele>251.6</ele>
        <time>2021-07-05 10:04:19</time>
      </trkpt>
      <trkpt lat="28.42391" lon="-14.01513">
        <ele>251.8</ele>
        <time>2021-07-05 10:04:20</time>
      </trkpt>
      <trkpt lat="28.42395" lon="-14.01515">
        <ele>251.8</ele>
        <time>2021-07-05 10:04:21</time>
      </trkpt>
      <trkpt lat="28.42399" lon="-14.01517">
        <ele>251.8</ele>
        <time>2021-07-05 10:04:22</time>
      </trkpt>
      <trkpt lat="28.42403" lon="-14.01518">
        <ele>251.8</ele>
        <time>2021-07-05 10:04:23</time>
      </trkpt>
      <trkpt lat="28.42406" lon="-14.0152">
        <ele>251.8</ele>
        <time>2021-07-05 10:04:24</time>
      </trkpt>
      <trkpt lat="28.4241" lon="-14.01521">
        <ele>252.2</ele>
        <time>2021-07-05 10:04:25</time>
      </trkpt>
      <trkpt lat="28.42415" lon="-14.01522">
        <ele>252.2</ele>
        <time>2021-07-05 10:04:26</time>
      </trkpt>
      <trkpt lat="28.42419" lon="-14.01523">
        <ele>252.2</ele>
        <time>2021-07-05 10:04:27</time>
      </trkpt>
      <trkpt lat="28.42423" lon="-14.01525">
        <ele>252.2</ele>
        <time>2021-07-05 10:04:28</time>
      </trkpt>
      <trkpt lat="28.42427" lon="-14.01526">
        <ele>252.2</ele>
        <time>2021-07-05 10:04:29</time>
      </trkpt>
      <trkpt lat="28.42431" lon="-14.01528">
        <ele>252.2</ele>
        <time>2021-07-05 10:04:30</time>
      </trkpt>
      <trkpt lat="28.42434" lon="-14.0153">
        <ele>252.2</ele>
        <time>2021-07-05 10:04:31</time>
      </trkpt>
      <trkpt lat="28.42438" lon="-14.01531">
        <ele>252.2</ele>
        <time>2021-07-05 10:04:32</time>
      </trkpt>
      <trkpt lat="28.42442" lon="-14.01532">
        <ele>252.2</ele>
        <time>2021-07-05 10:04:33</time>
      </trkpt>
      <trkpt lat="28.42446" lon="-14.01534">
        <ele>252.4</ele>
        <time>2021-07-05 10:04:34</time>
      </trkpt>
      <trkpt lat="28.4245" lon="-14.01535">
        <ele>252.4</ele>
        <time>2021-07-05 10:04:35</time>
      </trkpt>
      <trkpt lat="28.42453" lon="-14.01536">
        <ele>253</ele>
        <time>2021-07-05 10:04:36</time>
      </trkpt>
      <trkpt lat="28.42456" lon="-14.01538">
        <ele>253</ele>
        <time>2021-07-05 10:04:37</time>
      </trkpt>
      <trkpt lat="28.4246" lon="-14.01539">
        <ele>253.2</ele>
        <time>2021-07-05 10:04:38</time>
      </trkpt>
      <trkpt lat="28.42463" lon="-14.01541">
        <ele>253.2</ele>
        <time>2021-07-05 10:04:39</time>
      </trkpt>
      <trkpt lat="28.42466" lon="-14.01542">
        <ele>253.2</ele>
        <time>2021-07-05 10:04:40</time>
      </trkpt>
      <trkpt lat="28.4247" lon="-14.01543">
        <ele>253.2</ele>
        <time>2021-07-05 10:04:41</time>
      </trkpt>
      <trkpt lat="28.42473" lon="-14.01544">
        <ele>253.6</ele>
        <time>2021-07-05 10:04:42</time>
      </trkpt>
      <trkpt lat="28.42476" lon="-14.01546">
        <ele>253.8</ele>
        <time>2021-07-05 10:04:43</time>
      </trkpt>
      <trkpt lat="28.42479" lon="-14.01547">
        <ele>253.8</ele>
        <time>2021-07-05 10:04:44</time>
      </trkpt>
      <trkpt lat="28.42483" lon="-14.01549">
        <ele>253.8</ele>
        <time>2021-07-05 10:04:45</time>
      </trkpt>
      <trkpt lat="28.42486" lon="-14.0155">
        <ele>253.8</ele>
        <time>2021-07-05 10:04:46</time>
      </trkpt>
      <trkpt lat="28.42489" lon="-14.01552">
        <ele>253.8</ele>
        <time>2021-07-05 10:04:47</time>
      </trkpt>
      <trkpt lat="28.42492" lon="-14.01554">
        <ele>253.8</ele>
        <time>2021-07-05 10:04:48</time>
      </trkpt>
      <trkpt lat="28.42495" lon="-14.01555">
        <ele>254</ele>
        <time>2021-07-05 10:04:49</time>
      </trkpt>
      <trkpt lat="28.42499" lon="-14.01557">
        <ele>254</ele>
        <time>2021-07-05 10:04:50</time>
      </trkpt>
      <trkpt lat="28.42502" lon="-14.01559">
        <ele>254</ele>
        <time>2021-07-05 10:04:51</time>
      </trkpt>
      <trkpt lat="28.42505" lon="-14.01561">
        <ele>254</ele>
        <time>2021-07-05 10:04:52</time>
      </trkpt>
      <trkpt lat="28.42508" lon="-14.01563">
        <ele>254.4</ele>
        <time>2021-07-05 10:04:53</time>
      </trkpt>
      <trkpt lat="28.42511" lon="-14.01564">
        <ele>254.6</ele>
        <time>2021-07-05 10:04:54</time>
      </trkpt>
      <trkpt lat="28.42514" lon="-14.01566">
        <ele>255</ele>
        <time>2021-07-05 10:04:55</time>
      </trkpt>
      <trkpt lat="28.42517" lon="-14.01568">
        <ele>255</ele>
        <time>2021-07-05 10:04:56</time>
      </trkpt>
      <trkpt lat="28.4252" lon="-14.0157">
        <ele>255.2</ele>
        <time>2021-07-05 10:04:57</time>
      </trkpt>
      <trkpt lat="28.42523" lon="-14.01572">
        <ele>255.2</ele>
        <time>2021-07-05 10:04:58</time>
      </trkpt>
      <trkpt lat="28.42526" lon="-14.01574">
        <ele>255.6</ele>
        <time>2021-07-05 10:04:59</time>
      </trkpt>
      <trkpt lat="28.42529" lon="-14.01576">
        <ele>255.8</ele>
        <time>2021-07-05 10:05:00</time>
      </trkpt>
      <trkpt lat="28.42532" lon="-14.01579">
        <ele>255.8</ele>
        <time>2021-07-05 10:05:01</time>
      </trkpt>
      <trkpt lat="28.42535" lon="-14.01581">
        <ele>256.2</ele>
        <time>2021-07-05 10:05:02</time>
      </trkpt>
      <trkpt lat="28.42537" lon="-14.01583">
        <ele>256.2</ele>
        <time>2021-07-05 10:05:03</time>
      </trkpt>
      <trkpt lat="28.4254" lon="-14.01586">
        <ele>256.2</ele>
        <time>2021-07-05 10:05:04</time>
      </trkpt>
      <trkpt lat="28.42543" lon="-14.01588">
        <ele>256.2</ele>
        <time>2021-07-05 10:05:05</time>
      </trkpt>
      <trkpt lat="28.42546" lon="-14.0159">
        <ele>256.2</ele>
        <time>2021-07-05 10:05:06</time>
      </trkpt>
      <trkpt lat="28.42549" lon="-14.01592">
        <ele>256.4</ele>
        <time>2021-07-05 10:05:07</time>
      </trkpt>
      <trkpt lat="28.42552" lon="-14.01594">
        <ele>256.4</ele>
        <time>2021-07-05 10:05:08</time>
      </trkpt>
      <trkpt lat="28.42555" lon="-14.01596">
        <ele>256.4</ele>
        <time>2021-07-05 10:05:09</time>
      </trkpt>
      <trkpt lat="28.42558" lon="-14.01599">
        <ele>256.4</ele>
        <time>2021-07-05 10:05:10</time>
      </trkpt>
      <trkpt lat="28.42561" lon="-14.01601">
        <ele>256.6</ele>
        <time>2021-07-05 10:05:11</time>
      </trkpt>
      <trkpt lat="28.42564" lon="-14.01603">
        <ele>256.6</ele>
        <time>2021-07-05 10:05:12</time>
      </trkpt>
      <trkpt lat="28.42567" lon="-14.01606">
        <ele>256.6</ele>
        <time>2021-07-05 10:05:13</time>
      </trkpt>
      <trkpt lat="28.4257" lon="-14.01608">
        <ele>256.6</ele>
        <time>2021-07-05 10:05:14</time>
      </trkpt>
      <trkpt lat="28.42573" lon="-14.0161">
        <ele>257</ele>
        <time>2021-07-05 10:05:15</time>
      </trkpt>
      <trkpt lat="28.42576" lon="-14.01612">
        <ele>257</ele>
        <time>2021-07-05 10:05:16</time>
      </trkpt>
      <trkpt lat="28.42579" lon="-14.01614">
        <ele>257</ele>
        <time>2021-07-05 10:05:17</time>
      </trkpt>
      <trkpt lat="28.42583" lon="-14.01617">
        <ele>257.4</ele>
        <time>2021-07-05 10:05:18</time>
      </trkpt>
      <trkpt lat="28.42586" lon="-14.01619">
        <ele>257.6</ele>
        <time>2021-07-05 10:05:19</time>
      </trkpt>
      <trkpt lat="28.42589" lon="-14.01621">
        <ele>257.6</ele>
        <time>2021-07-05 10:05:20</time>
      </trkpt>
      <trkpt lat="28.42592" lon="-14.01623">
        <ele>257.6</ele>
        <time>2021-07-05 10:05:21</time>
      </trkpt>
      <trkpt lat="28.42595" lon="-14.01626">
        <ele>257.6</ele>
        <time>2021-07-05 10:05:22</time>
      </trkpt>
      <trkpt lat="28.42598" lon="-14.01628">
        <ele>258</ele>
        <time>2021-07-05 10:05:23</time>
      </trkpt>
      <trkpt lat="28.42601" lon="-14.01631">
        <ele>258</ele>
        <time>2021-07-05 10:05:24</time>
      </trkpt>
      <trkpt lat="28.42604" lon="-14.01633">
        <ele>258</ele>
        <time>2021-07-05 10:05:25</time>
      </trkpt>
      <trkpt lat="28.42607" lon="-14.01635">
        <ele>258</ele>
        <time>2021-07-05 10:05:26</time>
      </trkpt>
      <trkpt lat="28.42611" lon="-14.01638">
        <ele>258.2</ele>
        <time>2021-07-05 10:05:27</time>
      </trkpt>
      <trkpt lat="28.42614" lon="-14.0164">
        <ele>258.2</ele>
        <time>2021-07-05 10:05:28</time>
      </trkpt>
      <trkpt lat="28.42617" lon="-14.01642">
        <ele>258.6</ele>
        <time>2021-07-05 10:05:29</time>
      </trkpt>
      <trkpt lat="28.4262" lon="-14.01644">
        <ele>258.6</ele>
        <time>2021-07-05 10:05:30</time>
      </trkpt>
      <trkpt lat="28.42624" lon="-14.01646">
        <ele>258.8</ele>
        <time>2021-07-05 10:05:31</time>
      </trkpt>
      <trkpt lat="28.42627" lon="-14.01648">
        <ele>258.8</ele>
        <time>2021-07-05 10:05:32</time>
      </trkpt>
      <trkpt lat="28.4263" lon="-14.0165">
        <ele>259.2</ele>
        <time>2021-07-05 10:05:33</time>
      </trkpt>
      <trkpt lat="28.42633" lon="-14.01651">
        <ele>259.2</ele>
        <time>2021-07-05 10:05:34</time>
      </trkpt>
      <trkpt lat="28.42636" lon="-14.01653">
        <ele>259.2</ele>
        <time>2021-07-05 10:05:35</time>
      </trkpt>
      <trkpt lat="28.4264" lon="-14.01654">
        <ele>259.4</ele>
        <time>2021-07-05 10:05:36</time>
      </trkpt>
      <trkpt lat="28.42643" lon="-14.01656">
        <ele>259.4</ele>
        <time>2021-07-05 10:05:37</time>
      </trkpt>
      <trkpt lat="28.42646" lon="-14.01657">
        <ele>259.4</ele>
        <time>2021-07-05 10:05:38</time>
      </trkpt>
      <trkpt lat="28.42649" lon="-14.01658">
        <ele>259.4</ele>
        <time>2021-07-05 10:05:39</time>
      </trkpt>
      <trkpt lat="28.42653" lon="-14.01659">
        <ele>259.6</ele>
        <time>2021-07-05 10:05:40</time>
      </trkpt>
      <trkpt lat="28.42656" lon="-14.0166">
        <ele>260</ele>
        <time>2021-07-05 10:05:41</time>
      </trkpt>
      <trkpt lat="28.42659" lon="-14.01661">
        <ele>260</ele>
        <time>2021-07-05 10:05:42</time>
      </trkpt>
      <trkpt lat="28.42663" lon="-14.01662">
        <ele>260</ele>
        <time>2021-07-05 10:05:43</time>
      </trkpt>
      <trkpt lat="28.42666" lon="-14.01663">
        <ele>260.2</ele>
        <time>2021-07-05 10:05:44</time>
      </trkpt>
      <trkpt lat="28.42669" lon="-14.01664">
        <ele>260.2</ele>
        <time>2021-07-05 10:05:45</time>
      </trkpt>
      <trkpt lat="28.42672" lon="-14.01664">
        <ele>260.6</ele>
        <time>2021-07-05 10:05:46</time>
      </trkpt>
      <trkpt lat="28.42675" lon="-14.01665">
        <ele>260.8</ele>
        <time>2021-07-05 10:05:47</time>
      </trkpt>
      <trkpt lat="28.42679" lon="-14.01666">
        <ele>260.8</ele>
        <time>2021-07-05 10:05:48</time>
      </trkpt>
      <trkpt lat="28.42682" lon="-14.01667">
        <ele>260.8</ele>
        <time>2021-07-05 10:05:49</time>
      </trkpt>
      <trkpt lat="28.42685" lon="-14.01668">
        <ele>260.8</ele>
        <time>2021-07-05 10:05:50</time>
      </trkpt>
      <trkpt lat="28.42688" lon="-14.01669">
        <ele>260.8</ele>
        <time>2021-07-05 10:05:51</time>
      </trkpt>
      <trkpt lat="28.42691" lon="-14.01669">
        <ele>261</ele>
        <time>2021-07-05 10:05:52</time>
      </trkpt>
      <trkpt lat="28.42694" lon="-14.0167">
        <ele>261</ele>
        <time>2021-07-05 10:05:53</time>
      </trkpt>
      <trkpt lat="28.42697" lon="-14.01671">
        <ele>261.4</ele>
        <time>2021-07-05 10:05:54</time>
      </trkpt>
      <trkpt lat="28.427" lon="-14.01672">
        <ele>261.6</ele>
        <time>2021-07-05 10:05:55</time>
      </trkpt>
      <trkpt lat="28.42703" lon="-14.01673">
        <ele>261.6</ele>
        <time>2021-07-05 10:05:56</time>
      </trkpt>
      <trkpt lat="28.42707" lon="-14.01673">
        <ele>261.8</ele>
        <time>2021-07-05 10:05:57</time>
      </trkpt>
      <trkpt lat="28.4271" lon="-14.01674">
        <ele>261.8</ele>
        <time>2021-07-05 10:05:58</time>
      </trkpt>
      <trkpt lat="28.42713" lon="-14.01675">
        <ele>262</ele>
        <time>2021-07-05 10:05:59</time>
      </trkpt>
      <trkpt lat="28.42716" lon="-14.01676">
        <ele>262</ele>
        <time>2021-07-05 10:06:00</time>
      </trkpt>
      <trkpt lat="28.42719" lon="-14.01678">
        <ele>262</ele>
        <time>2021-07-05 10:06:01</time>
      </trkpt>
      <trkpt lat="28.42723" lon="-14.01679">
        <ele>262.4</ele>
        <time>2021-07-05 10:06:02</time>
      </trkpt>
      <trkpt lat="28.42726" lon="-14.01679">
        <ele>262.6</ele>
        <time>2021-07-05 10:06:03</time>
      </trkpt>
      <trkpt lat="28.42729" lon="-14.0168">
        <ele>262.6</ele>
        <time>2021-07-05 10:06:04</time>
      </trkpt>
      <trkpt lat="28.42732" lon="-14.01681">
        <ele>262.6</ele>
        <time>2021-07-05 10:06:05</time>
      </trkpt>
      <trkpt lat="28.42736" lon="-14.01682">
        <ele>262.8</ele>
        <time>2021-07-05 10:06:06</time>
      </trkpt>
      <trkpt lat="28.42739" lon="-14.01684">
        <ele>262.8</ele>
        <time>2021-07-05 10:06:07</time>
      </trkpt>
      <trkpt lat="28.42742" lon="-14.01685">
        <ele>262.8</ele>
        <time>2021-07-05 10:06:08</time>
      </trkpt>
      <trkpt lat="28.42745" lon="-14.01686">
        <ele>262.8</ele>
        <time>2021-07-05 10:06:09</time>
      </trkpt>
      <trkpt lat="28.42748" lon="-14.01687">
        <ele>263</ele>
        <time>2021-07-05 10:06:10</time>
      </trkpt>
      <trkpt lat="28.42751" lon="-14.01688">
        <ele>263.4</ele>
        <time>2021-07-05 10:06:11</time>
      </trkpt>
      <trkpt lat="28.42755" lon="-14.0169">
        <ele>263.4</ele>
        <time>2021-07-05 10:06:12</time>
      </trkpt>
      <trkpt lat="28.42758" lon="-14.01691">
        <ele>263.6</ele>
        <time>2021-07-05 10:06:13</time>
      </trkpt>
      <trkpt lat="28.42761" lon="-14.01693">
        <ele>264</ele>
        <time>2021-07-05 10:06:14</time>
      </trkpt>
      <trkpt lat="28.42764" lon="-14.01694">
        <ele>264</ele>
        <time>2021-07-05 10:06:15</time>
      </trkpt>
      <trkpt lat="28.42767" lon="-14.01696">
        <ele>264</ele>
        <time>2021-07-05 10:06:16</time>
      </trkpt>
      <trkpt lat="28.42771" lon="-14.01697">
        <ele>264.2</ele>
        <time>2021-07-05 10:06:17</time>
      </trkpt>
      <trkpt lat="28.42774" lon="-14.01698">
        <ele>264.2</ele>
        <time>2021-07-05 10:06:18</time>
      </trkpt>
      <trkpt lat="28.42777" lon="-14.01699">
        <ele>264.2</ele>
        <time>2021-07-05 10:06:19</time>
      </trkpt>
      <trkpt lat="28.42781" lon="-14.017">
        <ele>264.2</ele>
        <time>2021-07-05 10:06:20</time>
      </trkpt>
      <trkpt lat="28.42784" lon="-14.01701">
        <ele>264.2</ele>
        <time>2021-07-05 10:06:21</time>
      </trkpt>
      <trkpt lat="28.42787" lon="-14.01702">
        <ele>264.4</ele>
        <time>2021-07-05 10:06:22</time>
      </trkpt>
      <trkpt lat="28.4279" lon="-14.01704">
        <ele>264.4</ele>
        <time>2021-07-05 10:06:23</time>
      </trkpt>
      <trkpt lat="28.42794" lon="-14.01705">
        <ele>264.4</ele>
        <time>2021-07-05 10:06:24</time>
      </trkpt>
      <trkpt lat="28.42797" lon="-14.01705">
        <ele>264.4</ele>
        <time>2021-07-05 10:06:25</time>
      </trkpt>
      <trkpt lat="28.428" lon="-14.01706">
        <ele>264.8</ele>
        <time>2021-07-05 10:06:26</time>
      </trkpt>
      <trkpt lat="28.42804" lon="-14.01707">
        <ele>264.8</ele>
        <time>2021-07-05 10:06:27</time>
      </trkpt>
      <trkpt lat="28.42807" lon="-14.01708">
        <ele>265.2</ele>
        <time>2021-07-05 10:06:28</time>
      </trkpt>
      <trkpt lat="28.4281" lon="-14.01709">
        <ele>265.2</ele>
        <time>2021-07-05 10:06:29</time>
      </trkpt>
      <trkpt lat="28.42814" lon="-14.0171">
        <ele>265.2</ele>
        <time>2021-07-05 10:06:30</time>
      </trkpt>
      <trkpt lat="28.42817" lon="-14.01711">
        <ele>265.2</ele>
        <time>2021-07-05 10:06:31</time>
      </trkpt>
      <trkpt lat="28.4282" lon="-14.01712">
        <ele>265.2</ele>
        <time>2021-07-05 10:06:32</time>
      </trkpt>
      <trkpt lat="28.42824" lon="-14.01712">
        <ele>265.4</ele>
        <time>2021-07-05 10:06:33</time>
      </trkpt>
      <trkpt lat="28.42827" lon="-14.01713">
        <ele>265.4</ele>
        <time>2021-07-05 10:06:34</time>
      </trkpt>
      <trkpt lat="28.4283" lon="-14.01714">
        <ele>265.4</ele>
        <time>2021-07-05 10:06:35</time>
      </trkpt>
      <trkpt lat="28.42834" lon="-14.01715">
        <ele>265.4</ele>
        <time>2021-07-05 10:06:36</time>
      </trkpt>
      <trkpt lat="28.42837" lon="-14.01716">
        <ele>265.4</ele>
        <time>2021-07-05 10:06:37</time>
      </trkpt>
      <trkpt lat="28.4284" lon="-14.01717">
        <ele>265.4</ele>
        <time>2021-07-05 10:06:38</time>
      </trkpt>
      <trkpt lat="28.42844" lon="-14.01718">
        <ele>265.4</ele>
        <time>2021-07-05 10:06:39</time>
      </trkpt>
      <trkpt lat="28.42847" lon="-14.01719">
        <ele>265.4</ele>
        <time>2021-07-05 10:06:40</time>
      </trkpt>
      <trkpt lat="28.42851" lon="-14.0172">
        <ele>265.4</ele>
        <time>2021-07-05 10:06:41</time>
      </trkpt>
      <trkpt lat="28.42854" lon="-14.0172">
        <ele>265.4</ele>
        <time>2021-07-05 10:06:42</time>
      </trkpt>
      <trkpt lat="28.42857" lon="-14.01721">
        <ele>265.4</ele>
        <time>2021-07-05 10:06:43</time>
      </trkpt>
      <trkpt lat="28.42861" lon="-14.01721">
        <ele>265.4</ele>
        <time>2021-07-05 10:06:44</time>
      </trkpt>
      <trkpt lat="28.42864" lon="-14.01722">
        <ele>265.6</ele>
        <time>2021-07-05 10:06:45</time>
      </trkpt>
      <trkpt lat="28.42868" lon="-14.01723">
        <ele>265.6</ele>
        <time>2021-07-05 10:06:46</time>
      </trkpt>
      <trkpt lat="28.42871" lon="-14.01724">
        <ele>265.6</ele>
        <time>2021-07-05 10:06:47</time>
      </trkpt>
      <trkpt lat="28.42874" lon="-14.01725">
        <ele>265.6</ele>
        <time>2021-07-05 10:06:48</time>
      </trkpt>
      <trkpt lat="28.42878" lon="-14.01726">
        <ele>265.6</ele>
        <time>2021-07-05 10:06:49</time>
      </trkpt>
      <trkpt lat="28.42881" lon="-14.01727">
        <ele>265.8</ele>
        <time>2021-07-05 10:06:50</time>
      </trkpt>
      <trkpt lat="28.42885" lon="-14.01728">
        <ele>265.8</ele>
        <time>2021-07-05 10:06:51</time>
      </trkpt>
      <trkpt lat="28.42888" lon="-14.01729">
        <ele>265.8</ele>
        <time>2021-07-05 10:06:52</time>
      </trkpt>
      <trkpt lat="28.42891" lon="-14.0173">
        <ele>266.2</ele>
        <time>2021-07-05 10:06:53</time>
      </trkpt>
      <trkpt lat="28.42895" lon="-14.01731">
        <ele>266.2</ele>
        <time>2021-07-05 10:06:54</time>
      </trkpt>
      <trkpt lat="28.42898" lon="-14.01732">
        <ele>266.4</ele>
        <time>2021-07-05 10:06:55</time>
      </trkpt>
      <trkpt lat="28.42901" lon="-14.01733">
        <ele>266.4</ele>
        <time>2021-07-05 10:06:56</time>
      </trkpt>
      <trkpt lat="28.42905" lon="-14.01734">
        <ele>266.4</ele>
        <time>2021-07-05 10:06:57</time>
      </trkpt>
      <trkpt lat="28.42908" lon="-14.01735">
        <ele>266.8</ele>
        <time>2021-07-05 10:06:58</time>
      </trkpt>
      <trkpt lat="28.42912" lon="-14.01736">
        <ele>266.8</ele>
        <time>2021-07-05 10:06:59</time>
      </trkpt>
      <trkpt lat="28.42915" lon="-14.01737">
        <ele>266.8</ele>
        <time>2021-07-05 10:07:00</time>
      </trkpt>
      <trkpt lat="28.42918" lon="-14.01739">
        <ele>267.2</ele>
        <time>2021-07-05 10:07:01</time>
      </trkpt>
      <trkpt lat="28.42921" lon="-14.0174">
        <ele>267.2</ele>
        <time>2021-07-05 10:07:02</time>
      </trkpt>
      <trkpt lat="28.42924" lon="-14.01742">
        <ele>267.4</ele>
        <time>2021-07-05 10:07:03</time>
      </trkpt>
      <trkpt lat="28.42928" lon="-14.01743">
        <ele>267.4</ele>
        <time>2021-07-05 10:07:04</time>
      </trkpt>
      <trkpt lat="28.42931" lon="-14.01745">
        <ele>267.4</ele>
        <time>2021-07-05 10:07:05</time>
      </trkpt>
      <trkpt lat="28.42934" lon="-14.01747">
        <ele>267.6</ele>
        <time>2021-07-05 10:07:06</time>
      </trkpt>
      <trkpt lat="28.42937" lon="-14.01748">
        <ele>267.6</ele>
        <time>2021-07-05 10:07:07</time>
      </trkpt>
      <trkpt lat="28.4294" lon="-14.0175">
        <ele>267.6</ele>
        <time>2021-07-05 10:07:08</time>
      </trkpt>
      <trkpt lat="28.42944" lon="-14.01752">
        <ele>267.8</ele>
        <time>2021-07-05 10:07:09</time>
      </trkpt>
      <trkpt lat="28.42947" lon="-14.01754">
        <ele>267.8</ele>
        <time>2021-07-05 10:07:10</time>
      </trkpt>
      <trkpt lat="28.4295" lon="-14.01756">
        <ele>267.8</ele>
        <time>2021-07-05 10:07:11</time>
      </trkpt>
      <trkpt lat="28.42953" lon="-14.01758">
        <ele>267.8</ele>
        <time>2021-07-05 10:07:12</time>
      </trkpt>
      <trkpt lat="28.42956" lon="-14.0176">
        <ele>268.2</ele>
        <time>2021-07-05 10:07:13</time>
      </trkpt>
      <trkpt lat="28.42959" lon="-14.01763">
        <ele>268.2</ele>
        <time>2021-07-05 10:07:14</time>
      </trkpt>
      <trkpt lat="28.42962" lon="-14.01765">
        <ele>268.2</ele>
        <time>2021-07-05 10:07:15</time>
      </trkpt>
      <trkpt lat="28.42965" lon="-14.01768">
        <ele>268.2</ele>
        <time>2021-07-05 10:07:16</time>
      </trkpt>
      <trkpt lat="28.42968" lon="-14.0177">
        <ele>268.2</ele>
        <time>2021-07-05 10:07:17</time>
      </trkpt>
      <trkpt lat="28.42971" lon="-14.01772">
        <ele>268.2</ele>
        <time>2021-07-05 10:07:18</time>
      </trkpt>
      <trkpt lat="28.42974" lon="-14.01775">
        <ele>268.4</ele>
        <time>2021-07-05 10:07:19</time>
      </trkpt>
      <trkpt lat="28.42977" lon="-14.01777">
        <ele>268.4</ele>
        <time>2021-07-05 10:07:20</time>
      </trkpt>
      <trkpt lat="28.4298" lon="-14.0178">
        <ele>268.4</ele>
        <time>2021-07-05 10:07:21</time>
      </trkpt>
      <trkpt lat="28.42983" lon="-14.01783">
        <ele>268.6</ele>
        <time>2021-07-05 10:07:22</time>
      </trkpt>
      <trkpt lat="28.42986" lon="-14.01785">
        <ele>268.6</ele>
        <time>2021-07-05 10:07:23</time>
      </trkpt>
      <trkpt lat="28.42989" lon="-14.01788">
        <ele>269</ele>
        <time>2021-07-05 10:07:24</time>
      </trkpt>
      <trkpt lat="28.42992" lon="-14.0179">
        <ele>269.4</ele>
        <time>2021-07-05 10:07:25</time>
      </trkpt>
      <trkpt lat="28.42994" lon="-14.01793">
        <ele>269.4</ele>
        <time>2021-07-05 10:07:26</time>
      </trkpt>
      <trkpt lat="28.42998" lon="-14.01795">
        <ele>269.4</ele>
        <time>2021-07-05 10:07:27</time>
      </trkpt>
      <trkpt lat="28.43001" lon="-14.01798">
        <ele>269.6</ele>
        <time>2021-07-05 10:07:28</time>
      </trkpt>
      <trkpt lat="28.43004" lon="-14.01801">
        <ele>269.6</ele>
        <time>2021-07-05 10:07:29</time>
      </trkpt>
      <trkpt lat="28.43007" lon="-14.01804">
        <ele>269.6</ele>
        <time>2021-07-05 10:07:30</time>
      </trkpt>
      <trkpt lat="28.4301" lon="-14.01806">
        <ele>269.6</ele>
        <time>2021-07-05 10:07:31</time>
      </trkpt>
      <trkpt lat="28.43013" lon="-14.01809">
        <ele>269.6</ele>
        <time>2021-07-05 10:07:32</time>
      </trkpt>
      <trkpt lat="28.43016" lon="-14.01811">
        <ele>269.6</ele>
        <time>2021-07-05 10:07:33</time>
      </trkpt>
      <trkpt lat="28.43019" lon="-14.01814">
        <ele>269.6</ele>
        <time>2021-07-05 10:07:34</time>
      </trkpt>
      <trkpt lat="28.43022" lon="-14.01816">
        <ele>269.6</ele>
        <time>2021-07-05 10:07:35</time>
      </trkpt>
      <trkpt lat="28.43024" lon="-14.01819">
        <ele>269.6</ele>
        <time>2021-07-05 10:07:36</time>
      </trkpt>
      <trkpt lat="28.43027" lon="-14.01822">
        <ele>269.6</ele>
        <time>2021-07-05 10:07:37</time>
      </trkpt>
      <trkpt lat="28.4303" lon="-14.01824">
        <ele>269.6</ele>
        <time>2021-07-05 10:07:38</time>
      </trkpt>
      <trkpt lat="28.43033" lon="-14.01827">
        <ele>269.6</ele>
        <time>2021-07-05 10:07:39</time>
      </trkpt>
      <trkpt lat="28.43036" lon="-14.01829">
        <ele>269.8</ele>
        <time>2021-07-05 10:07:40</time>
      </trkpt>
      <trkpt lat="28.43039" lon="-14.01832">
        <ele>269.8</ele>
        <time>2021-07-05 10:07:41</time>
      </trkpt>
      <trkpt lat="28.43042" lon="-14.01834">
        <ele>270.2</ele>
        <time>2021-07-05 10:07:42</time>
      </trkpt>
      <trkpt lat="28.43045" lon="-14.01837">
        <ele>270.2</ele>
        <time>2021-07-05 10:07:43</time>
      </trkpt>
      <trkpt lat="28.43048" lon="-14.01839">
        <ele>270.2</ele>
        <time>2021-07-05 10:07:44</time>
      </trkpt>
      <trkpt lat="28.4305" lon="-14.01842">
        <ele>270.2</ele>
        <time>2021-07-05 10:07:45</time>
      </trkpt>
      <trkpt lat="28.43053" lon="-14.01844">
        <ele>270.2</ele>
        <time>2021-07-05 10:07:46</time>
      </trkpt>
      <trkpt lat="28.43056" lon="-14.01846">
        <ele>270.2</ele>
        <time>2021-07-05 10:07:47</time>
      </trkpt>
      <trkpt lat="28.43059" lon="-14.01849">
        <ele>270.2</ele>
        <time>2021-07-05 10:07:48</time>
      </trkpt>
      <trkpt lat="28.43062" lon="-14.01851">
        <ele>270.2</ele>
        <time>2021-07-05 10:07:49</time>
      </trkpt>
      <trkpt lat="28.43065" lon="-14.01854">
        <ele>270.2</ele>
        <time>2021-07-05 10:07:50</time>
      </trkpt>
      <trkpt lat="28.43067" lon="-14.01857">
        <ele>270.4</ele>
        <time>2021-07-05 10:07:51</time>
      </trkpt>
      <trkpt lat="28.4307" lon="-14.01859">
        <ele>270.4</ele>
        <time>2021-07-05 10:07:52</time>
      </trkpt>
      <trkpt lat="28.43073" lon="-14.01861">
        <ele>270.4</ele>
        <time>2021-07-05 10:07:53</time>
      </trkpt>
      <trkpt lat="28.43076" lon="-14.01864">
        <ele>270.4</ele>
        <time>2021-07-05 10:07:54</time>
      </trkpt>
      <trkpt lat="28.43079" lon="-14.01866">
        <ele>270.6</ele>
        <time>2021-07-05 10:07:55</time>
      </trkpt>
      <trkpt lat="28.43082" lon="-14.01868">
        <ele>270.6</ele>
        <time>2021-07-05 10:07:56</time>
      </trkpt>
      <trkpt lat="28.43085" lon="-14.0187">
        <ele>270.6</ele>
        <time>2021-07-05 10:07:57</time>
      </trkpt>
      <trkpt lat="28.43087" lon="-14.01873">
        <ele>270.6</ele>
        <time>2021-07-05 10:07:58</time>
      </trkpt>
      <trkpt lat="28.4309" lon="-14.01875">
        <ele>270.8</ele>
        <time>2021-07-05 10:07:59</time>
      </trkpt>
      <trkpt lat="28.43093" lon="-14.01878">
        <ele>270.8</ele>
        <time>2021-07-05 10:08:00</time>
      </trkpt>
      <trkpt lat="28.43096" lon="-14.0188">
        <ele>271.2</ele>
        <time>2021-07-05 10:08:01</time>
      </trkpt>
      <trkpt lat="28.43099" lon="-14.01882">
        <ele>271.2</ele>
        <time>2021-07-05 10:08:02</time>
      </trkpt>
      <trkpt lat="28.43101" lon="-14.01885">
        <ele>271.2</ele>
        <time>2021-07-05 10:08:03</time>
      </trkpt>
      <trkpt lat="28.43104" lon="-14.01887">
        <ele>271.4</ele>
        <time>2021-07-05 10:08:04</time>
      </trkpt>
      <trkpt lat="28.43107" lon="-14.0189">
        <ele>271.4</ele>
        <time>2021-07-05 10:08:05</time>
      </trkpt>
      <trkpt lat="28.4311" lon="-14.01892">
        <ele>271.4</ele>
        <time>2021-07-05 10:08:06</time>
      </trkpt>
      <trkpt lat="28.43112" lon="-14.01894">
        <ele>271.4</ele>
        <time>2021-07-05 10:08:07</time>
      </trkpt>
      <trkpt lat="28.43115" lon="-14.01897">
        <ele>271.4</ele>
        <time>2021-07-05 10:08:08</time>
      </trkpt>
      <trkpt lat="28.43118" lon="-14.01899">
        <ele>271.8</ele>
        <time>2021-07-05 10:08:09</time>
      </trkpt>
      <trkpt lat="28.43121" lon="-14.01902">
        <ele>271.8</ele>
        <time>2021-07-05 10:08:10</time>
      </trkpt>
      <trkpt lat="28.43124" lon="-14.01904">
        <ele>271.8</ele>
        <time>2021-07-05 10:08:11</time>
      </trkpt>
      <trkpt lat="28.43126" lon="-14.01907">
        <ele>271.8</ele>
        <time>2021-07-05 10:08:12</time>
      </trkpt>
      <trkpt lat="28.43129" lon="-14.0191">
        <ele>271.8</ele>
        <time>2021-07-05 10:08:13</time>
      </trkpt>
      <trkpt lat="28.43132" lon="-14.01912">
        <ele>271.8</ele>
        <time>2021-07-05 10:08:14</time>
      </trkpt>
      <trkpt lat="28.43135" lon="-14.01914">
        <ele>271.8</ele>
        <time>2021-07-05 10:08:15</time>
      </trkpt>
      <trkpt lat="28.43138" lon="-14.01917">
        <ele>272</ele>
        <time>2021-07-05 10:08:16</time>
      </trkpt>
      <trkpt lat="28.43141" lon="-14.01919">
        <ele>272</ele>
        <time>2021-07-05 10:08:17</time>
      </trkpt>
      <trkpt lat="28.43144" lon="-14.01922">
        <ele>272</ele>
        <time>2021-07-05 10:08:18</time>
      </trkpt>
      <trkpt lat="28.43147" lon="-14.01924">
        <ele>272</ele>
        <time>2021-07-05 10:08:19</time>
      </trkpt>
      <trkpt lat="28.4315" lon="-14.01927">
        <ele>272</ele>
        <time>2021-07-05 10:08:20</time>
      </trkpt>
      <trkpt lat="28.43153" lon="-14.01929">
        <ele>272.2</ele>
        <time>2021-07-05 10:08:21</time>
      </trkpt>
      <trkpt lat="28.43156" lon="-14.01932">
        <ele>272.2</ele>
        <time>2021-07-05 10:08:22</time>
      </trkpt>
      <trkpt lat="28.43159" lon="-14.01934">
        <ele>272.6</ele>
        <time>2021-07-05 10:08:23</time>
      </trkpt>
      <trkpt lat="28.43162" lon="-14.01937">
        <ele>272.6</ele>
        <time>2021-07-05 10:08:24</time>
      </trkpt>
      <trkpt lat="28.43164" lon="-14.0194">
        <ele>272.6</ele>
        <time>2021-07-05 10:08:25</time>
      </trkpt>
      <trkpt lat="28.43167" lon="-14.01942">
        <ele>272.6</ele>
        <time>2021-07-05 10:08:26</time>
      </trkpt>
      <trkpt lat="28.4317" lon="-14.01945">
        <ele>272.6</ele>
        <time>2021-07-05 10:08:27</time>
      </trkpt>
      <trkpt lat="28.43173" lon="-14.01947">
        <ele>272.6</ele>
        <time>2021-07-05 10:08:28</time>
      </trkpt>
      <trkpt lat="28.43176" lon="-14.0195">
        <ele>272.8</ele>
        <time>2021-07-05 10:08:29</time>
      </trkpt>
      <trkpt lat="28.43179" lon="-14.01952">
        <ele>272.8</ele>
        <time>2021-07-05 10:08:30</time>
      </trkpt>
      <trkpt lat="28.43182" lon="-14.01954">
        <ele>273.2</ele>
        <time>2021-07-05 10:08:31</time>
      </trkpt>
      <trkpt lat="28.43185" lon="-14.01957">
        <ele>273.2</ele>
        <time>2021-07-05 10:08:32</time>
      </trkpt>
      <trkpt lat="28.43188" lon="-14.01959">
        <ele>273.2</ele>
        <time>2021-07-05 10:08:33</time>
      </trkpt>
      <trkpt lat="28.4319" lon="-14.01962">
        <ele>273.4</ele>
        <time>2021-07-05 10:08:34</time>
      </trkpt>
      <trkpt lat="28.43193" lon="-14.01964">
        <ele>273.4</ele>
        <time>2021-07-05 10:08:35</time>
      </trkpt>
      <trkpt lat="28.43196" lon="-14.01967">
        <ele>273.4</ele>
        <time>2021-07-05 10:08:36</time>
      </trkpt>
      <trkpt lat="28.43199" lon="-14.01969">
        <ele>273.4</ele>
        <time>2021-07-05 10:08:37</time>
      </trkpt>
      <trkpt lat="28.43202" lon="-14.01972">
        <ele>273.4</ele>
        <time>2021-07-05 10:08:38</time>
      </trkpt>
      <trkpt lat="28.43205" lon="-14.01975">
        <ele>272.8</ele>
        <time>2021-07-05 10:08:39</time>
      </trkpt>
      <trkpt lat="28.43207" lon="-14.01977">
        <ele>272.8</ele>
        <time>2021-07-05 10:08:40</time>
      </trkpt>
      <trkpt lat="28.4321" lon="-14.0198">
        <ele>273.4</ele>
        <time>2021-07-05 10:08:41</time>
      </trkpt>
      <trkpt lat="28.43213" lon="-14.01983">
        <ele>273.4</ele>
        <time>2021-07-05 10:08:42</time>
      </trkpt>
      <trkpt lat="28.43216" lon="-14.01985">
        <ele>273.4</ele>
        <time>2021-07-05 10:08:43</time>
      </trkpt>
      <trkpt lat="28.43219" lon="-14.01987">
        <ele>273.8</ele>
        <time>2021-07-05 10:08:44</time>
      </trkpt>
      <trkpt lat="28.43222" lon="-14.0199">
        <ele>273.8</ele>
        <time>2021-07-05 10:08:45</time>
      </trkpt>
      <trkpt lat="28.43225" lon="-14.01992">
        <ele>274.2</ele>
        <time>2021-07-05 10:08:46</time>
      </trkpt>
      <trkpt lat="28.43228" lon="-14.01995">
        <ele>274.2</ele>
        <time>2021-07-05 10:08:47</time>
      </trkpt>
      <trkpt lat="28.43231" lon="-14.01997">
        <ele>274.4</ele>
        <time>2021-07-05 10:08:48</time>
      </trkpt>
      <trkpt lat="28.43233" lon="-14.01999">
        <ele>274.4</ele>
        <time>2021-07-05 10:08:49</time>
      </trkpt>
      <trkpt lat="28.43236" lon="-14.02002">
        <ele>274.6</ele>
        <time>2021-07-05 10:08:50</time>
      </trkpt>
      <trkpt lat="28.43239" lon="-14.02004">
        <ele>274.8</ele>
        <time>2021-07-05 10:08:51</time>
      </trkpt>
      <trkpt lat="28.43242" lon="-14.02007">
        <ele>274.8</ele>
        <time>2021-07-05 10:08:52</time>
      </trkpt>
      <trkpt lat="28.43245" lon="-14.02009">
        <ele>274.8</ele>
        <time>2021-07-05 10:08:53</time>
      </trkpt>
      <trkpt lat="28.43248" lon="-14.02012">
        <ele>274.8</ele>
        <time>2021-07-05 10:08:54</time>
      </trkpt>
      <trkpt lat="28.43251" lon="-14.02014">
        <ele>274.8</ele>
        <time>2021-07-05 10:08:55</time>
      </trkpt>
      <trkpt lat="28.43254" lon="-14.02016">
        <ele>275</ele>
        <time>2021-07-05 10:08:56</time>
      </trkpt>
      <trkpt lat="28.43256" lon="-14.02019">
        <ele>275</ele>
        <time>2021-07-05 10:08:57</time>
      </trkpt>
      <trkpt lat="28.43259" lon="-14.02022">
        <ele>275</ele>
        <time>2021-07-05 10:08:58</time>
      </trkpt>
      <trkpt lat="28.43262" lon="-14.02024">
        <ele>275</ele>
        <time>2021-07-05 10:08:59</time>
      </trkpt>
      <trkpt lat="28.43265" lon="-14.02026">
        <ele>275.2</ele>
        <time>2021-07-05 10:09:00</time>
      </trkpt>
      <trkpt lat="28.43268" lon="-14.02028">
        <ele>275.2</ele>
        <time>2021-07-05 10:09:01</time>
      </trkpt>
      <trkpt lat="28.43271" lon="-14.02031">
        <ele>275.2</ele>
        <time>2021-07-05 10:09:02</time>
      </trkpt>
      <trkpt lat="28.43273" lon="-14.02033">
        <ele>275.2</ele>
        <time>2021-07-05 10:09:03</time>
      </trkpt>
      <trkpt lat="28.43276" lon="-14.02036">
        <ele>275.6</ele>
        <time>2021-07-05 10:09:04</time>
      </trkpt>
      <trkpt lat="28.43279" lon="-14.02038">
        <ele>275.8</ele>
        <time>2021-07-05 10:09:05</time>
      </trkpt>
      <trkpt lat="28.43282" lon="-14.02041">
        <ele>275.8</ele>
        <time>2021-07-05 10:09:06</time>
      </trkpt>
      <trkpt lat="28.43285" lon="-14.02043">
        <ele>275.8</ele>
        <time>2021-07-05 10:09:07</time>
      </trkpt>
      <trkpt lat="28.43287" lon="-14.02045">
        <ele>276</ele>
        <time>2021-07-05 10:09:08</time>
      </trkpt>
      <trkpt lat="28.4329" lon="-14.02047">
        <ele>276</ele>
        <time>2021-07-05 10:09:09</time>
      </trkpt>
      <trkpt lat="28.43293" lon="-14.0205">
        <ele>276.4</ele>
        <time>2021-07-05 10:09:10</time>
      </trkpt>
      <trkpt lat="28.43296" lon="-14.02052">
        <ele>276.4</ele>
        <time>2021-07-05 10:09:11</time>
      </trkpt>
      <trkpt lat="28.43298" lon="-14.02055">
        <ele>276.6</ele>
        <time>2021-07-05 10:09:12</time>
      </trkpt>
      <trkpt lat="28.43301" lon="-14.02057">
        <ele>276.6</ele>
        <time>2021-07-05 10:09:13</time>
      </trkpt>
      <trkpt lat="28.43304" lon="-14.02059">
        <ele>276.8</ele>
        <time>2021-07-05 10:09:14</time>
      </trkpt>
      <trkpt lat="28.43306" lon="-14.02062">
        <ele>276.8</ele>
        <time>2021-07-05 10:09:15</time>
      </trkpt>
      <trkpt lat="28.43309" lon="-14.02064">
        <ele>276.8</ele>
        <time>2021-07-05 10:09:16</time>
      </trkpt>
      <trkpt lat="28.43312" lon="-14.02067">
        <ele>276.8</ele>
        <time>2021-07-05 10:09:17</time>
      </trkpt>
      <trkpt lat="28.43315" lon="-14.02069">
        <ele>276.8</ele>
        <time>2021-07-05 10:09:18</time>
      </trkpt>
      <trkpt lat="28.43317" lon="-14.02071">
        <ele>277.2</ele>
        <time>2021-07-05 10:09:19</time>
      </trkpt>
      <trkpt lat="28.4332" lon="-14.02073">
        <ele>277.4</ele>
        <time>2021-07-05 10:09:20</time>
      </trkpt>
      <trkpt lat="28.43323" lon="-14.02075">
        <ele>277.4</ele>
        <time>2021-07-05 10:09:21</time>
      </trkpt>
      <trkpt lat="28.43326" lon="-14.02077">
        <ele>277.4</ele>
        <time>2021-07-05 10:09:22</time>
      </trkpt>
      <trkpt lat="28.43329" lon="-14.02079">
        <ele>277.4</ele>
        <time>2021-07-05 10:09:23</time>
      </trkpt>
      <trkpt lat="28.43332" lon="-14.02081">
        <ele>277.8</ele>
        <time>2021-07-05 10:09:24</time>
      </trkpt>
      <trkpt lat="28.43335" lon="-14.02083">
        <ele>277.8</ele>
        <time>2021-07-05 10:09:25</time>
      </trkpt>
      <trkpt lat="28.43338" lon="-14.02085">
        <ele>277.8</ele>
        <time>2021-07-05 10:09:26</time>
      </trkpt>
      <trkpt lat="28.43341" lon="-14.02087">
        <ele>277.8</ele>
        <time>2021-07-05 10:09:27</time>
      </trkpt>
      <trkpt lat="28.43344" lon="-14.02089">
        <ele>277.8</ele>
        <time>2021-07-05 10:09:28</time>
      </trkpt>
      <trkpt lat="28.43347" lon="-14.0209">
        <ele>277.8</ele>
        <time>2021-07-05 10:09:29</time>
      </trkpt>
      <trkpt lat="28.4335" lon="-14.02092">
        <ele>278</ele>
        <time>2021-07-05 10:09:30</time>
      </trkpt>
      <trkpt lat="28.43353" lon="-14.02094">
        <ele>278.2</ele>
        <time>2021-07-05 10:09:31</time>
      </trkpt>
      <trkpt lat="28.43356" lon="-14.02096">
        <ele>278.2</ele>
        <time>2021-07-05 10:09:32</time>
      </trkpt>
      <trkpt lat="28.43359" lon="-14.02097">
        <ele>278.2</ele>
        <time>2021-07-05 10:09:33</time>
      </trkpt>
      <trkpt lat="28.43362" lon="-14.02099">
        <ele>278.2</ele>
        <time>2021-07-05 10:09:34</time>
      </trkpt>
      <trkpt lat="28.43365" lon="-14.02101">
        <ele>278.6</ele>
        <time>2021-07-05 10:09:35</time>
      </trkpt>
      <trkpt lat="28.43368" lon="-14.02102">
        <ele>278.6</ele>
        <time>2021-07-05 10:09:36</time>
      </trkpt>
      <trkpt lat="28.43371" lon="-14.02103">
        <ele>278.6</ele>
        <time>2021-07-05 10:09:37</time>
      </trkpt>
      <trkpt lat="28.43374" lon="-14.02105">
        <ele>278.8</ele>
        <time>2021-07-05 10:09:38</time>
      </trkpt>
      <trkpt lat="28.43377" lon="-14.02107">
        <ele>278.8</ele>
        <time>2021-07-05 10:09:39</time>
      </trkpt>
      <trkpt lat="28.4338" lon="-14.02108">
        <ele>279.2</ele>
        <time>2021-07-05 10:09:40</time>
      </trkpt>
      <trkpt lat="28.43383" lon="-14.0211">
        <ele>279.2</ele>
        <time>2021-07-05 10:09:41</time>
      </trkpt>
      <trkpt lat="28.43386" lon="-14.02111">
        <ele>279.2</ele>
        <time>2021-07-05 10:09:42</time>
      </trkpt>
      <trkpt lat="28.43389" lon="-14.02112">
        <ele>279.4</ele>
        <time>2021-07-05 10:09:43</time>
      </trkpt>
      <trkpt lat="28.43392" lon="-14.02114">
        <ele>279.4</ele>
        <time>2021-07-05 10:09:44</time>
      </trkpt>
      <trkpt lat="28.43395" lon="-14.02115">
        <ele>279.6</ele>
        <time>2021-07-05 10:09:45</time>
      </trkpt>
      <trkpt lat="28.43398" lon="-14.02117">
        <ele>279.6</ele>
        <time>2021-07-05 10:09:46</time>
      </trkpt>
      <trkpt lat="28.43402" lon="-14.02118">
        <ele>279.6</ele>
        <time>2021-07-05 10:09:47</time>
      </trkpt>
      <trkpt lat="28.43405" lon="-14.0212">
        <ele>279.6</ele>
        <time>2021-07-05 10:09:48</time>
      </trkpt>
      <trkpt lat="28.43408" lon="-14.02121">
        <ele>279.8</ele>
        <time>2021-07-05 10:09:49</time>
      </trkpt>
      <trkpt lat="28.43411" lon="-14.02123">
        <ele>279.8</ele>
        <time>2021-07-05 10:09:50</time>
      </trkpt>
      <trkpt lat="28.43415" lon="-14.02125">
        <ele>280</ele>
        <time>2021-07-05 10:09:51</time>
      </trkpt>
      <trkpt lat="28.43418" lon="-14.02126">
        <ele>280</ele>
        <time>2021-07-05 10:09:52</time>
      </trkpt>
      <trkpt lat="28.43421" lon="-14.02128">
        <ele>280</ele>
        <time>2021-07-05 10:09:53</time>
      </trkpt>
      <trkpt lat="28.43425" lon="-14.02129">
        <ele>280</ele>
        <time>2021-07-05 10:09:54</time>
      </trkpt>
      <trkpt lat="28.43428" lon="-14.02131">
        <ele>280.2</ele>
        <time>2021-07-05 10:09:55</time>
      </trkpt>
      <trkpt lat="28.43431" lon="-14.02132">
        <ele>280.2</ele>
        <time>2021-07-05 10:09:56</time>
      </trkpt>
      <trkpt lat="28.43434" lon="-14.02134">
        <ele>280.6</ele>
        <time>2021-07-05 10:09:57</time>
      </trkpt>
      <trkpt lat="28.43438" lon="-14.02135">
        <ele>280.6</ele>
        <time>2021-07-05 10:09:58</time>
      </trkpt>
      <trkpt lat="28.43441" lon="-14.02136">
        <ele>280.6</ele>
        <time>2021-07-05 10:09:59</time>
      </trkpt>
      <trkpt lat="28.43444" lon="-14.02138">
        <ele>280.8</ele>
        <time>2021-07-05 10:10:00</time>
      </trkpt>
      <trkpt lat="28.43447" lon="-14.02139">
        <ele>280.8</ele>
        <time>2021-07-05 10:10:01</time>
      </trkpt>
      <trkpt lat="28.4345" lon="-14.02141">
        <ele>280.8</ele>
        <time>2021-07-05 10:10:02</time>
      </trkpt>
      <trkpt lat="28.43453" lon="-14.02142">
        <ele>280.8</ele>
        <time>2021-07-05 10:10:03</time>
      </trkpt>
      <trkpt lat="28.43456" lon="-14.02144">
        <ele>280.8</ele>
        <time>2021-07-05 10:10:04</time>
      </trkpt>
      <trkpt lat="28.43459" lon="-14.02145">
        <ele>281.2</ele>
        <time>2021-07-05 10:10:05</time>
      </trkpt>
      <trkpt lat="28.43463" lon="-14.02147">
        <ele>281.2</ele>
        <time>2021-07-05 10:10:06</time>
      </trkpt>
      <trkpt lat="28.43466" lon="-14.02148">
        <ele>281.2</ele>
        <time>2021-07-05 10:10:07</time>
      </trkpt>
      <trkpt lat="28.43469" lon="-14.0215">
        <ele>281.2</ele>
        <time>2021-07-05 10:10:08</time>
      </trkpt>
      <trkpt lat="28.43472" lon="-14.02151">
        <ele>281.2</ele>
        <time>2021-07-05 10:10:09</time>
      </trkpt>
      <trkpt lat="28.43475" lon="-14.02152">
        <ele>281.6</ele>
        <time>2021-07-05 10:10:10</time>
      </trkpt>
      <trkpt lat="28.43479" lon="-14.02154">
        <ele>281.6</ele>
        <time>2021-07-05 10:10:11</time>
      </trkpt>
      <trkpt lat="28.43482" lon="-14.02155">
        <ele>281.8</ele>
        <time>2021-07-05 10:10:12</time>
      </trkpt>
      <trkpt lat="28.43485" lon="-14.02157">
        <ele>281.8</ele>
        <time>2021-07-05 10:10:13</time>
      </trkpt>
      <trkpt lat="28.43488" lon="-14.02158">
        <ele>282</ele>
        <time>2021-07-05 10:10:14</time>
      </trkpt>
      <trkpt lat="28.43491" lon="-14.02159">
        <ele>282</ele>
        <time>2021-07-05 10:10:15</time>
      </trkpt>
      <trkpt lat="28.43494" lon="-14.02161">
        <ele>282</ele>
        <time>2021-07-05 10:10:16</time>
      </trkpt>
      <trkpt lat="28.43497" lon="-14.02162">
        <ele>282</ele>
        <time>2021-07-05 10:10:17</time>
      </trkpt>
      <trkpt lat="28.43499" lon="-14.02163">
        <ele>282.2</ele>
        <time>2021-07-05 10:10:18</time>
      </trkpt>
      <trkpt lat="28.43502" lon="-14.02165">
        <ele>282.2</ele>
        <time>2021-07-05 10:10:19</time>
      </trkpt>
      <trkpt lat="28.43505" lon="-14.02166">
        <ele>282.2</ele>
        <time>2021-07-05 10:10:20</time>
      </trkpt>
      <trkpt lat="28.43508" lon="-14.02167">
        <ele>282.6</ele>
        <time>2021-07-05 10:10:21</time>
      </trkpt>
      <trkpt lat="28.43511" lon="-14.02169">
        <ele>282.6</ele>
        <time>2021-07-05 10:10:22</time>
      </trkpt>
      <trkpt lat="28.43514" lon="-14.0217">
        <ele>282.8</ele>
        <time>2021-07-05 10:10:23</time>
      </trkpt>
      <trkpt lat="28.43517" lon="-14.02171">
        <ele>282.8</ele>
        <time>2021-07-05 10:10:24</time>
      </trkpt>
      <trkpt lat="28.43519" lon="-14.02172">
        <ele>282.8</ele>
        <time>2021-07-05 10:10:25</time>
      </trkpt>
      <trkpt lat="28.43522" lon="-14.02174">
        <ele>282.8</ele>
        <time>2021-07-05 10:10:26</time>
      </trkpt>
      <trkpt lat="28.43525" lon="-14.02175">
        <ele>283</ele>
        <time>2021-07-05 10:10:27</time>
      </trkpt>
      <trkpt lat="28.43528" lon="-14.02176">
        <ele>283</ele>
        <time>2021-07-05 10:10:28</time>
      </trkpt>
      <trkpt lat="28.4353" lon="-14.02178">
        <ele>283</ele>
        <time>2021-07-05 10:10:29</time>
      </trkpt>
      <trkpt lat="28.43533" lon="-14.02179">
        <ele>283.2</ele>
        <time>2021-07-05 10:10:30</time>
      </trkpt>
      <trkpt lat="28.43536" lon="-14.0218">
        <ele>283.2</ele>
        <time>2021-07-05 10:10:31</time>
      </trkpt>
      <trkpt lat="28.43539" lon="-14.02182">
        <ele>283.4</ele>
        <time>2021-07-05 10:10:32</time>
      </trkpt>
      <trkpt lat="28.43542" lon="-14.02183">
        <ele>283.4</ele>
        <time>2021-07-05 10:10:33</time>
      </trkpt>
      <trkpt lat="28.43544" lon="-14.02184">
        <ele>283.4</ele>
        <time>2021-07-05 10:10:34</time>
      </trkpt>
      <trkpt lat="28.43547" lon="-14.02185">
        <ele>283.8</ele>
        <time>2021-07-05 10:10:35</time>
      </trkpt>
      <trkpt lat="28.4355" lon="-14.02187">
        <ele>283.8</ele>
        <time>2021-07-05 10:10:36</time>
      </trkpt>
      <trkpt lat="28.43553" lon="-14.02188">
        <ele>283.8</ele>
        <time>2021-07-05 10:10:37</time>
      </trkpt>
      <trkpt lat="28.43555" lon="-14.02189">
        <ele>284</ele>
        <time>2021-07-05 10:10:38</time>
      </trkpt>
      <trkpt lat="28.43558" lon="-14.02191">
        <ele>284</ele>
        <time>2021-07-05 10:10:39</time>
      </trkpt>
      <trkpt lat="28.43561" lon="-14.02192">
        <ele>284</ele>
        <time>2021-07-05 10:10:40</time>
      </trkpt>
      <trkpt lat="28.43564" lon="-14.02193">
        <ele>284.2</ele>
        <time>2021-07-05 10:10:41</time>
      </trkpt>
      <trkpt lat="28.43567" lon="-14.02195">
        <ele>284.2</ele>
        <time>2021-07-05 10:10:42</time>
      </trkpt>
      <trkpt lat="28.43569" lon="-14.02196">
        <ele>284.4</ele>
        <time>2021-07-05 10:10:43</time>
      </trkpt>
      <trkpt lat="28.43572" lon="-14.02197">
        <ele>284.4</ele>
        <time>2021-07-05 10:10:44</time>
      </trkpt>
      <trkpt lat="28.43575" lon="-14.02199">
        <ele>284.6</ele>
        <time>2021-07-05 10:10:45</time>
      </trkpt>
      <trkpt lat="28.43578" lon="-14.022">
        <ele>284.6</ele>
        <time>2021-07-05 10:10:46</time>
      </trkpt>
      <trkpt lat="28.43581" lon="-14.02201">
        <ele>285</ele>
        <time>2021-07-05 10:10:47</time>
      </trkpt>
      <trkpt lat="28.43584" lon="-14.02202">
        <ele>285</ele>
        <time>2021-07-05 10:10:48</time>
      </trkpt>
      <trkpt lat="28.43587" lon="-14.02204">
        <ele>285.2</ele>
        <time>2021-07-05 10:10:49</time>
      </trkpt>
      <trkpt lat="28.43589" lon="-14.02205">
        <ele>285.2</ele>
        <time>2021-07-05 10:10:50</time>
      </trkpt>
      <trkpt lat="28.43592" lon="-14.02206">
        <ele>285.2</ele>
        <time>2021-07-05 10:10:51</time>
      </trkpt>
      <trkpt lat="28.43595" lon="-14.02208">
        <ele>285.2</ele>
        <time>2021-07-05 10:10:52</time>
      </trkpt>
      <trkpt lat="28.43598" lon="-14.02209">
        <ele>285.4</ele>
        <time>2021-07-05 10:10:53</time>
      </trkpt>
      <trkpt lat="28.43601" lon="-14.0221">
        <ele>285.4</ele>
        <time>2021-07-05 10:10:54</time>
      </trkpt>
      <trkpt lat="28.43604" lon="-14.02211">
        <ele>285.4</ele>
        <time>2021-07-05 10:10:55</time>
      </trkpt>
      <trkpt lat="28.43607" lon="-14.02213">
        <ele>285.8</ele>
        <time>2021-07-05 10:10:56</time>
      </trkpt>
      <trkpt lat="28.43609" lon="-14.02214">
        <ele>285.8</ele>
        <time>2021-07-05 10:10:57</time>
      </trkpt>
      <trkpt lat="28.43612" lon="-14.02216">
        <ele>286</ele>
        <time>2021-07-05 10:10:58</time>
      </trkpt>
      <trkpt lat="28.43615" lon="-14.02217">
        <ele>286.4</ele>
        <time>2021-07-05 10:10:59</time>
      </trkpt>
      <trkpt lat="28.43618" lon="-14.02218">
        <ele>286.4</ele>
        <time>2021-07-05 10:11:00</time>
      </trkpt>
      <trkpt lat="28.4362" lon="-14.02219">
        <ele>286.4</ele>
        <time>2021-07-05 10:11:01</time>
      </trkpt>
      <trkpt lat="28.43623" lon="-14.02221">
        <ele>286.4</ele>
        <time>2021-07-05 10:11:02</time>
      </trkpt>
      <trkpt lat="28.43626" lon="-14.02222">
        <ele>286.4</ele>
        <time>2021-07-05 10:11:03</time>
      </trkpt>
      <trkpt lat="28.43629" lon="-14.02223">
        <ele>286.8</ele>
        <time>2021-07-05 10:11:04</time>
      </trkpt>
      <trkpt lat="28.43631" lon="-14.02225">
        <ele>286.8</ele>
        <time>2021-07-05 10:11:05</time>
      </trkpt>
      <trkpt lat="28.43634" lon="-14.02226">
        <ele>286.8</ele>
        <time>2021-07-05 10:11:06</time>
      </trkpt>
      <trkpt lat="28.43637" lon="-14.02227">
        <ele>286.8</ele>
        <time>2021-07-05 10:11:07</time>
      </trkpt>
      <trkpt lat="28.4364" lon="-14.02228">
        <ele>286.8</ele>
        <time>2021-07-05 10:11:08</time>
      </trkpt>
      <trkpt lat="28.43642" lon="-14.02229">
        <ele>286.8</ele>
        <time>2021-07-05 10:11:09</time>
      </trkpt>
      <trkpt lat="28.43645" lon="-14.02231">
        <ele>287</ele>
        <time>2021-07-05 10:11:10</time>
      </trkpt>
      <trkpt lat="28.43648" lon="-14.02232">
        <ele>287</ele>
        <time>2021-07-05 10:11:11</time>
      </trkpt>
      <trkpt lat="28.4365" lon="-14.02233">
        <ele>287</ele>
        <time>2021-07-05 10:11:12</time>
      </trkpt>
      <trkpt lat="28.43653" lon="-14.02234">
        <ele>287.2</ele>
        <time>2021-07-05 10:11:13</time>
      </trkpt>
      <trkpt lat="28.43656" lon="-14.02235">
        <ele>287.2</ele>
        <time>2021-07-05 10:11:14</time>
      </trkpt>
      <trkpt lat="28.43659" lon="-14.02236">
        <ele>287.2</ele>
        <time>2021-07-05 10:11:15</time>
      </trkpt>
      <trkpt lat="28.43662" lon="-14.02237">
        <ele>287.6</ele>
        <time>2021-07-05 10:11:16</time>
      </trkpt>
      <trkpt lat="28.43665" lon="-14.02239">
        <ele>287.6</ele>
        <time>2021-07-05 10:11:17</time>
      </trkpt>
      <trkpt lat="28.43668" lon="-14.0224">
        <ele>287.6</ele>
        <time>2021-07-05 10:11:18</time>
      </trkpt>
      <trkpt lat="28.43671" lon="-14.02241">
        <ele>287.8</ele>
        <time>2021-07-05 10:11:19</time>
      </trkpt>
      <trkpt lat="28.43674" lon="-14.02242">
        <ele>287.8</ele>
        <time>2021-07-05 10:11:20</time>
      </trkpt>
      <trkpt lat="28.43677" lon="-14.02243">
        <ele>288.2</ele>
        <time>2021-07-05 10:11:21</time>
      </trkpt>
      <trkpt lat="28.43679" lon="-14.02244">
        <ele>288.2</ele>
        <time>2021-07-05 10:11:22</time>
      </trkpt>
      <trkpt lat="28.43682" lon="-14.02246">
        <ele>288.2</ele>
        <time>2021-07-05 10:11:23</time>
      </trkpt>
      <trkpt lat="28.43685" lon="-14.02247">
        <ele>288.2</ele>
        <time>2021-07-05 10:11:24</time>
      </trkpt>
      <trkpt lat="28.43688" lon="-14.02248">
        <ele>288.2</ele>
        <time>2021-07-05 10:11:25</time>
      </trkpt>
      <trkpt lat="28.43691" lon="-14.02249">
        <ele>288.4</ele>
        <time>2021-07-05 10:11:26</time>
      </trkpt>
      <trkpt lat="28.43694" lon="-14.0225">
        <ele>288.4</ele>
        <time>2021-07-05 10:11:27</time>
      </trkpt>
      <trkpt lat="28.43697" lon="-14.0225">
        <ele>288.6</ele>
        <time>2021-07-05 10:11:28</time>
      </trkpt>
      <trkpt lat="28.437" lon="-14.02251">
        <ele>288.6</ele>
        <time>2021-07-05 10:11:29</time>
      </trkpt>
      <trkpt lat="28.43703" lon="-14.02252">
        <ele>289</ele>
        <time>2021-07-05 10:11:30</time>
      </trkpt>
      <trkpt lat="28.43706" lon="-14.02253">
        <ele>289</ele>
        <time>2021-07-05 10:11:31</time>
      </trkpt>
      <trkpt lat="28.43709" lon="-14.02254">
        <ele>289.2</ele>
        <time>2021-07-05 10:11:32</time>
      </trkpt>
      <trkpt lat="28.43712" lon="-14.02255">
        <ele>289.2</ele>
        <time>2021-07-05 10:11:33</time>
      </trkpt>
      <trkpt lat="28.43715" lon="-14.02256">
        <ele>289.2</ele>
        <time>2021-07-05 10:11:34</time>
      </trkpt>
      <trkpt lat="28.43718" lon="-14.02257">
        <ele>289.2</ele>
        <time>2021-07-05 10:11:35</time>
      </trkpt>
      <trkpt lat="28.43721" lon="-14.02257">
        <ele>289.4</ele>
        <time>2021-07-05 10:11:36</time>
      </trkpt>
      <trkpt lat="28.43724" lon="-14.02258">
        <ele>289.4</ele>
        <time>2021-07-05 10:11:37</time>
      </trkpt>
      <trkpt lat="28.43727" lon="-14.02259">
        <ele>289.8</ele>
        <time>2021-07-05 10:11:38</time>
      </trkpt>
      <trkpt lat="28.4373" lon="-14.0226">
        <ele>289.8</ele>
        <time>2021-07-05 10:11:39</time>
      </trkpt>
      <trkpt lat="28.43733" lon="-14.02261">
        <ele>289.8</ele>
        <time>2021-07-05 10:11:40</time>
      </trkpt>
      <trkpt lat="28.43736" lon="-14.02262">
        <ele>290</ele>
        <time>2021-07-05 10:11:41</time>
      </trkpt>
      <trkpt lat="28.43739" lon="-14.02263">
        <ele>290</ele>
        <time>2021-07-05 10:11:42</time>
      </trkpt>
      <trkpt lat="28.43742" lon="-14.02264">
        <ele>290</ele>
        <time>2021-07-05 10:11:43</time>
      </trkpt>
      <trkpt lat="28.43745" lon="-14.02264">
        <ele>290</ele>
        <time>2021-07-05 10:11:44</time>
      </trkpt>
      <trkpt lat="28.43748" lon="-14.02265">
        <ele>290.4</ele>
        <time>2021-07-05 10:11:45</time>
      </trkpt>
      <trkpt lat="28.43751" lon="-14.02266">
        <ele>291</ele>
        <time>2021-07-05 10:11:46</time>
      </trkpt>
      <trkpt lat="28.43754" lon="-14.02267">
        <ele>291</ele>
        <time>2021-07-05 10:11:47</time>
      </trkpt>
      <trkpt lat="28.43757" lon="-14.02268">
        <ele>291</ele>
        <time>2021-07-05 10:11:48</time>
      </trkpt>
      <trkpt lat="28.4376" lon="-14.02269">
        <ele>291</ele>
        <time>2021-07-05 10:11:49</time>
      </trkpt>
      <trkpt lat="28.43763" lon="-14.02269">
        <ele>291</ele>
        <time>2021-07-05 10:11:50</time>
      </trkpt>
      <trkpt lat="28.43766" lon="-14.0227">
        <ele>291</ele>
        <time>2021-07-05 10:11:51</time>
      </trkpt>
      <trkpt lat="28.43769" lon="-14.02271">
        <ele>291</ele>
        <time>2021-07-05 10:11:52</time>
      </trkpt>
      <trkpt lat="28.43772" lon="-14.02271">
        <ele>291</ele>
        <time>2021-07-05 10:11:53</time>
      </trkpt>
      <trkpt lat="28.43775" lon="-14.02272">
        <ele>291.2</ele>
        <time>2021-07-05 10:11:54</time>
      </trkpt>
      <trkpt lat="28.43778" lon="-14.02273">
        <ele>291.2</ele>
        <time>2021-07-05 10:11:55</time>
      </trkpt>
      <trkpt lat="28.43781" lon="-14.02274">
        <ele>291.4</ele>
        <time>2021-07-05 10:11:56</time>
      </trkpt>
      <trkpt lat="28.43784" lon="-14.02275">
        <ele>291.4</ele>
        <time>2021-07-05 10:11:57</time>
      </trkpt>
      <trkpt lat="28.43787" lon="-14.02275">
        <ele>292</ele>
        <time>2021-07-05 10:11:58</time>
      </trkpt>
      <trkpt lat="28.43789" lon="-14.02276">
        <ele>292</ele>
        <time>2021-07-05 10:11:59</time>
      </trkpt>
      <trkpt lat="28.43792" lon="-14.02277">
        <ele>292</ele>
        <time>2021-07-05 10:12:00</time>
      </trkpt>
      <trkpt lat="28.43795" lon="-14.02278">
        <ele>292</ele>
        <time>2021-07-05 10:12:01</time>
      </trkpt>
      <trkpt lat="28.43798" lon="-14.02279">
        <ele>292.2</ele>
        <time>2021-07-05 10:12:02</time>
      </trkpt>
      <trkpt lat="28.43801" lon="-14.0228">
        <ele>292.2</ele>
        <time>2021-07-05 10:12:03</time>
      </trkpt>
      <trkpt lat="28.43804" lon="-14.0228">
        <ele>292.6</ele>
        <time>2021-07-05 10:12:04</time>
      </trkpt>
      <trkpt lat="28.43807" lon="-14.02281">
        <ele>292.8</ele>
        <time>2021-07-05 10:12:05</time>
      </trkpt>
      <trkpt lat="28.4381" lon="-14.02282">
        <ele>292.8</ele>
        <time>2021-07-05 10:12:06</time>
      </trkpt>
      <trkpt lat="28.43813" lon="-14.02283">
        <ele>292.8</ele>
        <time>2021-07-05 10:12:07</time>
      </trkpt>
      <trkpt lat="28.43815" lon="-14.02284">
        <ele>292.8</ele>
        <time>2021-07-05 10:12:08</time>
      </trkpt>
      <trkpt lat="28.43818" lon="-14.02285">
        <ele>292.8</ele>
        <time>2021-07-05 10:12:09</time>
      </trkpt>
      <trkpt lat="28.43821" lon="-14.02286">
        <ele>293</ele>
        <time>2021-07-05 10:12:10</time>
      </trkpt>
      <trkpt lat="28.43825" lon="-14.02286">
        <ele>293</ele>
        <time>2021-07-05 10:12:11</time>
      </trkpt>
      <trkpt lat="28.43828" lon="-14.02287">
        <ele>293</ele>
        <time>2021-07-05 10:12:12</time>
      </trkpt>
      <trkpt lat="28.4383" lon="-14.02288">
        <ele>293</ele>
        <time>2021-07-05 10:12:13</time>
      </trkpt>
      <trkpt lat="28.43834" lon="-14.02289">
        <ele>293.4</ele>
        <time>2021-07-05 10:12:14</time>
      </trkpt>
      <trkpt lat="28.43837" lon="-14.0229">
        <ele>293.4</ele>
        <time>2021-07-05 10:12:15</time>
      </trkpt>
      <trkpt lat="28.4384" lon="-14.02291">
        <ele>293.4</ele>
        <time>2021-07-05 10:12:16</time>
      </trkpt>
      <trkpt lat="28.43843" lon="-14.02292">
        <ele>293.6</ele>
        <time>2021-07-05 10:12:17</time>
      </trkpt>
      <trkpt lat="28.43846" lon="-14.02293">
        <ele>293.6</ele>
        <time>2021-07-05 10:12:18</time>
      </trkpt>
      <trkpt lat="28.43849" lon="-14.02294">
        <ele>294.2</ele>
        <time>2021-07-05 10:12:19</time>
      </trkpt>
      <trkpt lat="28.43852" lon="-14.02295">
        <ele>294.2</ele>
        <time>2021-07-05 10:12:20</time>
      </trkpt>
      <trkpt lat="28.43855" lon="-14.02296">
        <ele>294</ele>
        <time>2021-07-05 10:12:21</time>
      </trkpt>
      <trkpt lat="28.43859" lon="-14.02296">
        <ele>294</ele>
        <time>2021-07-05 10:12:22</time>
      </trkpt>
      <trkpt lat="28.43862" lon="-14.02297">
        <ele>294</ele>
        <time>2021-07-05 10:12:23</time>
      </trkpt>
      <trkpt lat="28.43865" lon="-14.02298">
        <ele>294</ele>
        <time>2021-07-05 10:12:24</time>
      </trkpt>
      <trkpt lat="28.43868" lon="-14.02299">
        <ele>294</ele>
        <time>2021-07-05 10:12:25</time>
      </trkpt>
      <trkpt lat="28.43872" lon="-14.023">
        <ele>294</ele>
        <time>2021-07-05 10:12:26</time>
      </trkpt>
      <trkpt lat="28.43875" lon="-14.02301">
        <ele>294</ele>
        <time>2021-07-05 10:12:27</time>
      </trkpt>
      <trkpt lat="28.43878" lon="-14.02301">
        <ele>294</ele>
        <time>2021-07-05 10:12:28</time>
      </trkpt>
      <trkpt lat="28.43882" lon="-14.02302">
        <ele>294</ele>
        <time>2021-07-05 10:12:29</time>
      </trkpt>
      <trkpt lat="28.43885" lon="-14.02303">
        <ele>294</ele>
        <time>2021-07-05 10:12:30</time>
      </trkpt>
      <trkpt lat="28.43888" lon="-14.02304">
        <ele>294</ele>
        <time>2021-07-05 10:12:31</time>
      </trkpt>
      <trkpt lat="28.43892" lon="-14.02305">
        <ele>294</ele>
        <time>2021-07-05 10:12:32</time>
      </trkpt>
      <trkpt lat="28.43895" lon="-14.02306">
        <ele>294</ele>
        <time>2021-07-05 10:12:33</time>
      </trkpt>
      <trkpt lat="28.43898" lon="-14.02307">
        <ele>294</ele>
        <time>2021-07-05 10:12:34</time>
      </trkpt>
      <trkpt lat="28.43901" lon="-14.02308">
        <ele>294</ele>
        <time>2021-07-05 10:12:35</time>
      </trkpt>
      <trkpt lat="28.43905" lon="-14.02309">
        <ele>294.2</ele>
        <time>2021-07-05 10:12:36</time>
      </trkpt>
      <trkpt lat="28.43908" lon="-14.0231">
        <ele>294.2</ele>
        <time>2021-07-05 10:12:37</time>
      </trkpt>
      <trkpt lat="28.43911" lon="-14.02311">
        <ele>294.6</ele>
        <time>2021-07-05 10:12:38</time>
      </trkpt>
      <trkpt lat="28.43914" lon="-14.02311">
        <ele>294.6</ele>
        <time>2021-07-05 10:12:39</time>
      </trkpt>
      <trkpt lat="28.43917" lon="-14.02312">
        <ele>294.6</ele>
        <time>2021-07-05 10:12:40</time>
      </trkpt>
      <trkpt lat="28.4392" lon="-14.02313">
        <ele>294.8</ele>
        <time>2021-07-05 10:12:41</time>
      </trkpt>
      <trkpt lat="28.43924" lon="-14.02314">
        <ele>294.8</ele>
        <time>2021-07-05 10:12:42</time>
      </trkpt>
      <trkpt lat="28.43927" lon="-14.02315">
        <ele>294.8</ele>
        <time>2021-07-05 10:12:43</time>
      </trkpt>
      <trkpt lat="28.4393" lon="-14.02316">
        <ele>294.8</ele>
        <time>2021-07-05 10:12:44</time>
      </trkpt>
      <trkpt lat="28.43933" lon="-14.02317">
        <ele>294.8</ele>
        <time>2021-07-05 10:12:45</time>
      </trkpt>
      <trkpt lat="28.43936" lon="-14.02318">
        <ele>295</ele>
        <time>2021-07-05 10:12:46</time>
      </trkpt>
      <trkpt lat="28.43939" lon="-14.02319">
        <ele>295</ele>
        <time>2021-07-05 10:12:47</time>
      </trkpt>
      <trkpt lat="28.43942" lon="-14.0232">
        <ele>295</ele>
        <time>2021-07-05 10:12:48</time>
      </trkpt>
      <trkpt lat="28.43945" lon="-14.02321">
        <ele>295.2</ele>
        <time>2021-07-05 10:12:49</time>
      </trkpt>
      <trkpt lat="28.43949" lon="-14.02322">
        <ele>295.2</ele>
        <time>2021-07-05 10:12:50</time>
      </trkpt>
      <trkpt lat="28.43952" lon="-14.02323">
        <ele>295.2</ele>
        <time>2021-07-05 10:12:51</time>
      </trkpt>
      <trkpt lat="28.43955" lon="-14.02323">
        <ele>295.6</ele>
        <time>2021-07-05 10:12:52</time>
      </trkpt>
      <trkpt lat="28.43958" lon="-14.02324">
        <ele>295.6</ele>
        <time>2021-07-05 10:12:53</time>
      </trkpt>
      <trkpt lat="28.43961" lon="-14.02325">
        <ele>295.6</ele>
        <time>2021-07-05 10:12:54</time>
      </trkpt>
      <trkpt lat="28.43964" lon="-14.02326">
        <ele>295.8</ele>
        <time>2021-07-05 10:12:55</time>
      </trkpt>
      <trkpt lat="28.43967" lon="-14.02327">
        <ele>295.8</ele>
        <time>2021-07-05 10:12:56</time>
      </trkpt>
      <trkpt lat="28.4397" lon="-14.02328">
        <ele>295.8</ele>
        <time>2021-07-05 10:12:57</time>
      </trkpt>
      <trkpt lat="28.43973" lon="-14.02329">
        <ele>295.8</ele>
        <time>2021-07-05 10:12:58</time>
      </trkpt>
      <trkpt lat="28.43977" lon="-14.0233">
        <ele>295.8</ele>
        <time>2021-07-05 10:12:59</time>
      </trkpt>
      <trkpt lat="28.4398" lon="-14.02332">
        <ele>295.8</ele>
        <time>2021-07-05 10:13:00</time>
      </trkpt>
      <trkpt lat="28.43983" lon="-14.02333">
        <ele>296.2</ele>
        <time>2021-07-05 10:13:01</time>
      </trkpt>
      <trkpt lat="28.43986" lon="-14.02334">
        <ele>296.2</ele>
        <time>2021-07-05 10:13:02</time>
      </trkpt>
      <trkpt lat="28.43989" lon="-14.02335">
        <ele>296.2</ele>
        <time>2021-07-05 10:13:03</time>
      </trkpt>
      <trkpt lat="28.43992" lon="-14.02336">
        <ele>296.2</ele>
        <time>2021-07-05 10:13:04</time>
      </trkpt>
      <trkpt lat="28.43996" lon="-14.02337">
        <ele>296.2</ele>
        <time>2021-07-05 10:13:05</time>
      </trkpt>
      <trkpt lat="28.43999" lon="-14.02338">
        <ele>296.2</ele>
        <time>2021-07-05 10:13:06</time>
      </trkpt>
      <trkpt lat="28.44002" lon="-14.02339">
        <ele>296.4</ele>
        <time>2021-07-05 10:13:07</time>
      </trkpt>
      <trkpt lat="28.44005" lon="-14.0234">
        <ele>296.4</ele>
        <time>2021-07-05 10:13:08</time>
      </trkpt>
      <trkpt lat="28.44008" lon="-14.02341">
        <ele>296.4</ele>
        <time>2021-07-05 10:13:09</time>
      </trkpt>
      <trkpt lat="28.44011" lon="-14.02342">
        <ele>296.4</ele>
        <time>2021-07-05 10:13:10</time>
      </trkpt>
      <trkpt lat="28.44015" lon="-14.02344">
        <ele>296.6</ele>
        <time>2021-07-05 10:13:11</time>
      </trkpt>
      <trkpt lat="28.44018" lon="-14.02345">
        <ele>296.6</ele>
        <time>2021-07-05 10:13:12</time>
      </trkpt>
      <trkpt lat="28.44021" lon="-14.02346">
        <ele>296.6</ele>
        <time>2021-07-05 10:13:13</time>
      </trkpt>
      <trkpt lat="28.44024" lon="-14.02347">
        <ele>296.8</ele>
        <time>2021-07-05 10:13:14</time>
      </trkpt>
      <trkpt lat="28.44027" lon="-14.02349">
        <ele>296.8</ele>
        <time>2021-07-05 10:13:15</time>
      </trkpt>
      <trkpt lat="28.44031" lon="-14.0235">
        <ele>296.8</ele>
        <time>2021-07-05 10:13:16</time>
      </trkpt>
      <trkpt lat="28.44034" lon="-14.02351">
        <ele>297</ele>
        <time>2021-07-05 10:13:17</time>
      </trkpt>
      <trkpt lat="28.44037" lon="-14.02353">
        <ele>297</ele>
        <time>2021-07-05 10:13:18</time>
      </trkpt>
      <trkpt lat="28.4404" lon="-14.02354">
        <ele>297</ele>
        <time>2021-07-05 10:13:19</time>
      </trkpt>
      <trkpt lat="28.44043" lon="-14.02355">
        <ele>297</ele>
        <time>2021-07-05 10:13:20</time>
      </trkpt>
      <trkpt lat="28.44046" lon="-14.02357">
        <ele>297</ele>
        <time>2021-07-05 10:13:21</time>
      </trkpt>
      <trkpt lat="28.44049" lon="-14.02358">
        <ele>297.2</ele>
        <time>2021-07-05 10:13:22</time>
      </trkpt>
      <trkpt lat="28.44052" lon="-14.0236">
        <ele>297.2</ele>
        <time>2021-07-05 10:13:23</time>
      </trkpt>
      <trkpt lat="28.44056" lon="-14.02361">
        <ele>297.2</ele>
        <time>2021-07-05 10:13:24</time>
      </trkpt>
      <trkpt lat="28.44059" lon="-14.02362">
        <ele>297.2</ele>
        <time>2021-07-05 10:13:25</time>
      </trkpt>
      <trkpt lat="28.44062" lon="-14.02364">
        <ele>297.6</ele>
        <time>2021-07-05 10:13:26</time>
      </trkpt>
      <trkpt lat="28.44065" lon="-14.02365">
        <ele>297.6</ele>
        <time>2021-07-05 10:13:27</time>
      </trkpt>
      <trkpt lat="28.44068" lon="-14.02366">
        <ele>297.6</ele>
        <time>2021-07-05 10:13:28</time>
      </trkpt>
      <trkpt lat="28.44072" lon="-14.02368">
        <ele>297.6</ele>
        <time>2021-07-05 10:13:29</time>
      </trkpt>
      <trkpt lat="28.44075" lon="-14.0237">
        <ele>298</ele>
        <time>2021-07-05 10:13:30</time>
      </trkpt>
      <trkpt lat="28.44078" lon="-14.02371">
        <ele>298</ele>
        <time>2021-07-05 10:13:31</time>
      </trkpt>
      <trkpt lat="28.44081" lon="-14.02372">
        <ele>298</ele>
        <time>2021-07-05 10:13:32</time>
      </trkpt>
      <trkpt lat="28.44084" lon="-14.02374">
        <ele>298</ele>
        <time>2021-07-05 10:13:33</time>
      </trkpt>
      <trkpt lat="28.44087" lon="-14.02376">
        <ele>298</ele>
        <time>2021-07-05 10:13:34</time>
      </trkpt>
      <trkpt lat="28.44091" lon="-14.02377">
        <ele>298</ele>
        <time>2021-07-05 10:13:35</time>
      </trkpt>
      <trkpt lat="28.44094" lon="-14.02379">
        <ele>298</ele>
        <time>2021-07-05 10:13:36</time>
      </trkpt>
      <trkpt lat="28.44097" lon="-14.0238">
        <ele>298</ele>
        <time>2021-07-05 10:13:37</time>
      </trkpt>
      <trkpt lat="28.441" lon="-14.02381">
        <ele>298</ele>
        <time>2021-07-05 10:13:38</time>
      </trkpt>
      <trkpt lat="28.44104" lon="-14.02383">
        <ele>298</ele>
        <time>2021-07-05 10:13:39</time>
      </trkpt>
      <trkpt lat="28.44107" lon="-14.02384">
        <ele>298</ele>
        <time>2021-07-05 10:13:40</time>
      </trkpt>
      <trkpt lat="28.4411" lon="-14.02386">
        <ele>298.2</ele>
        <time>2021-07-05 10:13:41</time>
      </trkpt>
      <trkpt lat="28.44113" lon="-14.02387">
        <ele>298.2</ele>
        <time>2021-07-05 10:13:42</time>
      </trkpt>
      <trkpt lat="28.44117" lon="-14.02388">
        <ele>298.4</ele>
        <time>2021-07-05 10:13:43</time>
      </trkpt>
      <trkpt lat="28.4412" lon="-14.0239">
        <ele>298.4</ele>
        <time>2021-07-05 10:13:44</time>
      </trkpt>
      <trkpt lat="28.44123" lon="-14.02392">
        <ele>298.4</ele>
        <time>2021-07-05 10:13:45</time>
      </trkpt>
      <trkpt lat="28.44126" lon="-14.02393">
        <ele>298.6</ele>
        <time>2021-07-05 10:13:46</time>
      </trkpt>
      <trkpt lat="28.44129" lon="-14.02394">
        <ele>298.6</ele>
        <time>2021-07-05 10:13:47</time>
      </trkpt>
      <trkpt lat="28.44133" lon="-14.02396">
        <ele>299</ele>
        <time>2021-07-05 10:13:48</time>
      </trkpt>
      <trkpt lat="28.44136" lon="-14.02397">
        <ele>299</ele>
        <time>2021-07-05 10:13:49</time>
      </trkpt>
      <trkpt lat="28.44139" lon="-14.02399">
        <ele>299</ele>
        <time>2021-07-05 10:13:50</time>
      </trkpt>
      <trkpt lat="28.44142" lon="-14.024">
        <ele>299</ele>
        <time>2021-07-05 10:13:51</time>
      </trkpt>
      <trkpt lat="28.44145" lon="-14.02402">
        <ele>299</ele>
        <time>2021-07-05 10:13:52</time>
      </trkpt>
      <trkpt lat="28.44148" lon="-14.02403">
        <ele>299.2</ele>
        <time>2021-07-05 10:13:53</time>
      </trkpt>
      <trkpt lat="28.44152" lon="-14.02405">
        <ele>299.2</ele>
        <time>2021-07-05 10:13:54</time>
      </trkpt>
      <trkpt lat="28.44155" lon="-14.02406">
        <ele>299.2</ele>
        <time>2021-07-05 10:13:55</time>
      </trkpt>
      <trkpt lat="28.44158" lon="-14.02408">
        <ele>299.4</ele>
        <time>2021-07-05 10:13:56</time>
      </trkpt>
      <trkpt lat="28.44161" lon="-14.02409">
        <ele>299.6</ele>
        <time>2021-07-05 10:13:57</time>
      </trkpt>
      <trkpt lat="28.44163" lon="-14.02411">
        <ele>299.6</ele>
        <time>2021-07-05 10:13:58</time>
      </trkpt>
      <trkpt lat="28.44166" lon="-14.02412">
        <ele>299.6</ele>
        <time>2021-07-05 10:13:59</time>
      </trkpt>
      <trkpt lat="28.44169" lon="-14.02414">
        <ele>299.6</ele>
        <time>2021-07-05 10:14:00</time>
      </trkpt>
      <trkpt lat="28.44172" lon="-14.02415">
        <ele>299.6</ele>
        <time>2021-07-05 10:14:01</time>
      </trkpt>
      <trkpt lat="28.44175" lon="-14.02416">
        <ele>299.6</ele>
        <time>2021-07-05 10:14:02</time>
      </trkpt>
      <trkpt lat="28.44179" lon="-14.02418">
        <ele>299.6</ele>
        <time>2021-07-05 10:14:03</time>
      </trkpt>
      <trkpt lat="28.44182" lon="-14.02419">
        <ele>300</ele>
        <time>2021-07-05 10:14:04</time>
      </trkpt>
      <trkpt lat="28.44185" lon="-14.0242">
        <ele>300</ele>
        <time>2021-07-05 10:14:05</time>
      </trkpt>
      <trkpt lat="28.44188" lon="-14.02422">
        <ele>300.2</ele>
        <time>2021-07-05 10:14:06</time>
      </trkpt>
      <trkpt lat="28.44191" lon="-14.02423">
        <ele>300.2</ele>
        <time>2021-07-05 10:14:07</time>
      </trkpt>
      <trkpt lat="28.44194" lon="-14.02425">
        <ele>300.2</ele>
        <time>2021-07-05 10:14:08</time>
      </trkpt>
      <trkpt lat="28.44197" lon="-14.02426">
        <ele>300.6</ele>
        <time>2021-07-05 10:14:09</time>
      </trkpt>
      <trkpt lat="28.442" lon="-14.02427">
        <ele>300.6</ele>
        <time>2021-07-05 10:14:10</time>
      </trkpt>
      <trkpt lat="28.44203" lon="-14.02429">
        <ele>300.6</ele>
        <time>2021-07-05 10:14:11</time>
      </trkpt>
      <trkpt lat="28.44206" lon="-14.0243">
        <ele>300.8</ele>
        <time>2021-07-05 10:14:12</time>
      </trkpt>
      <trkpt lat="28.44209" lon="-14.02431">
        <ele>300.8</ele>
        <time>2021-07-05 10:14:13</time>
      </trkpt>
      <trkpt lat="28.44212" lon="-14.02432">
        <ele>301.2</ele>
        <time>2021-07-05 10:14:14</time>
      </trkpt>
      <trkpt lat="28.44215" lon="-14.02434">
        <ele>301.2</ele>
        <time>2021-07-05 10:14:15</time>
      </trkpt>
      <trkpt lat="28.44218" lon="-14.02435">
        <ele>301.2</ele>
        <time>2021-07-05 10:14:16</time>
      </trkpt>
      <trkpt lat="28.4422" lon="-14.02436">
        <ele>301.6</ele>
        <time>2021-07-05 10:14:17</time>
      </trkpt>
      <trkpt lat="28.44223" lon="-14.02438">
        <ele>301.6</ele>
        <time>2021-07-05 10:14:18</time>
      </trkpt>
      <trkpt lat="28.44226" lon="-14.02439">
        <ele>301.6</ele>
        <time>2021-07-05 10:14:19</time>
      </trkpt>
      <trkpt lat="28.44229" lon="-14.0244">
        <ele>301.6</ele>
        <time>2021-07-05 10:14:20</time>
      </trkpt>
      <trkpt lat="28.44232" lon="-14.02441">
        <ele>301.8</ele>
        <time>2021-07-05 10:14:21</time>
      </trkpt>
      <trkpt lat="28.44235" lon="-14.02443">
        <ele>301.8</ele>
        <time>2021-07-05 10:14:22</time>
      </trkpt>
      <trkpt lat="28.44238" lon="-14.02444">
        <ele>301.8</ele>
        <time>2021-07-05 10:14:23</time>
      </trkpt>
      <trkpt lat="28.44241" lon="-14.02446">
        <ele>302.2</ele>
        <time>2021-07-05 10:14:24</time>
      </trkpt>
      <trkpt lat="28.44244" lon="-14.02447">
        <ele>302.2</ele>
        <time>2021-07-05 10:14:25</time>
      </trkpt>
      <trkpt lat="28.44247" lon="-14.02448">
        <ele>302.2</ele>
        <time>2021-07-05 10:14:26</time>
      </trkpt>
      <trkpt lat="28.4425" lon="-14.0245">
        <ele>302.2</ele>
        <time>2021-07-05 10:14:27</time>
      </trkpt>
      <trkpt lat="28.44253" lon="-14.02451">
        <ele>302.2</ele>
        <time>2021-07-05 10:14:28</time>
      </trkpt>
      <trkpt lat="28.44256" lon="-14.02453">
        <ele>302.2</ele>
        <time>2021-07-05 10:14:29</time>
      </trkpt>
      <trkpt lat="28.44259" lon="-14.02454">
        <ele>302.2</ele>
        <time>2021-07-05 10:14:30</time>
      </trkpt>
      <trkpt lat="28.44262" lon="-14.02456">
        <ele>302.6</ele>
        <time>2021-07-05 10:14:31</time>
      </trkpt>
      <trkpt lat="28.44265" lon="-14.02457">
        <ele>302.6</ele>
        <time>2021-07-05 10:14:32</time>
      </trkpt>
      <trkpt lat="28.44268" lon="-14.02458">
        <ele>302.8</ele>
        <time>2021-07-05 10:14:33</time>
      </trkpt>
      <trkpt lat="28.44271" lon="-14.0246">
        <ele>302.8</ele>
        <time>2021-07-05 10:14:34</time>
      </trkpt>
      <trkpt lat="28.44274" lon="-14.02461">
        <ele>303</ele>
        <time>2021-07-05 10:14:35</time>
      </trkpt>
      <trkpt lat="28.44277" lon="-14.02463">
        <ele>303</ele>
        <time>2021-07-05 10:14:36</time>
      </trkpt>
      <trkpt lat="28.4428" lon="-14.02464">
        <ele>303</ele>
        <time>2021-07-05 10:14:37</time>
      </trkpt>
      <trkpt lat="28.44282" lon="-14.02465">
        <ele>303.4</ele>
        <time>2021-07-05 10:14:38</time>
      </trkpt>
      <trkpt lat="28.44285" lon="-14.02466">
        <ele>303.6</ele>
        <time>2021-07-05 10:14:39</time>
      </trkpt>
      <trkpt lat="28.44288" lon="-14.02468">
        <ele>303.6</ele>
        <time>2021-07-05 10:14:40</time>
      </trkpt>
      <trkpt lat="28.44291" lon="-14.02469">
        <ele>303.8</ele>
        <time>2021-07-05 10:14:41</time>
      </trkpt>
      <trkpt lat="28.44294" lon="-14.0247">
        <ele>304.2</ele>
        <time>2021-07-05 10:14:42</time>
      </trkpt>
      <trkpt lat="28.44294" lon="-14.0247">
        <ele>304.2</ele>
        <time>2021-07-05 10:14:43</time>
      </trkpt>
      <trkpt lat="28.443" lon="-14.02473">
        <ele>304.2</ele>
        <time>2021-07-05 10:14:44</time>
      </trkpt>
      <trkpt lat="28.44303" lon="-14.02474">
        <ele>304.2</ele>
        <time>2021-07-05 10:14:45</time>
      </trkpt>
      <trkpt lat="28.44306" lon="-14.02476">
        <ele>304.2</ele>
        <time>2021-07-05 10:14:46</time>
      </trkpt>
      <trkpt lat="28.44309" lon="-14.02477">
        <ele>304.2</ele>
        <time>2021-07-05 10:14:47</time>
      </trkpt>
      <trkpt lat="28.44312" lon="-14.02478">
        <ele>304.4</ele>
        <time>2021-07-05 10:14:48</time>
      </trkpt>
      <trkpt lat="28.44315" lon="-14.0248">
        <ele>304.4</ele>
        <time>2021-07-05 10:14:49</time>
      </trkpt>
      <trkpt lat="28.44318" lon="-14.02481">
        <ele>304.4</ele>
        <time>2021-07-05 10:14:50</time>
      </trkpt>
      <trkpt lat="28.44321" lon="-14.02483">
        <ele>304.8</ele>
        <time>2021-07-05 10:14:51</time>
      </trkpt>
      <trkpt lat="28.44324" lon="-14.02484">
        <ele>304.8</ele>
        <time>2021-07-05 10:14:52</time>
      </trkpt>
      <trkpt lat="28.44327" lon="-14.02485">
        <ele>304.8</ele>
        <time>2021-07-05 10:14:53</time>
      </trkpt>
      <trkpt lat="28.4433" lon="-14.02487">
        <ele>305.2</ele>
        <time>2021-07-05 10:14:54</time>
      </trkpt>
      <trkpt lat="28.44333" lon="-14.02488">
        <ele>305.2</ele>
        <time>2021-07-05 10:14:55</time>
      </trkpt>
      <trkpt lat="28.44335" lon="-14.02489">
        <ele>305.2</ele>
        <time>2021-07-05 10:14:56</time>
      </trkpt>
      <trkpt lat="28.44338" lon="-14.02491">
        <ele>305.4</ele>
        <time>2021-07-05 10:14:57</time>
      </trkpt>
      <trkpt lat="28.44341" lon="-14.02492">
        <ele>305.6</ele>
        <time>2021-07-05 10:14:58</time>
      </trkpt>
      <trkpt lat="28.44344" lon="-14.02493">
        <ele>305.6</ele>
        <time>2021-07-05 10:14:59</time>
      </trkpt>
      <trkpt lat="28.44347" lon="-14.02495">
        <ele>306</ele>
        <time>2021-07-05 10:15:00</time>
      </trkpt>
      <trkpt lat="28.4435" lon="-14.02496">
        <ele>306.2</ele>
        <time>2021-07-05 10:15:01</time>
      </trkpt>
      <trkpt lat="28.44353" lon="-14.02497">
        <ele>306.4</ele>
        <time>2021-07-05 10:15:02</time>
      </trkpt>
      <trkpt lat="28.44356" lon="-14.02498">
        <ele>306.4</ele>
        <time>2021-07-05 10:15:03</time>
      </trkpt>
      <trkpt lat="28.44358" lon="-14.025">
        <ele>306.4</ele>
        <time>2021-07-05 10:15:04</time>
      </trkpt>
      <trkpt lat="28.44361" lon="-14.02501">
        <ele>306.4</ele>
        <time>2021-07-05 10:15:05</time>
      </trkpt>
      <trkpt lat="28.44364" lon="-14.02502">
        <ele>306.8</ele>
        <time>2021-07-05 10:15:06</time>
      </trkpt>
      <trkpt lat="28.44367" lon="-14.02503">
        <ele>306.8</ele>
        <time>2021-07-05 10:15:07</time>
      </trkpt>
      <trkpt lat="28.44369" lon="-14.02505">
        <ele>306.8</ele>
        <time>2021-07-05 10:15:08</time>
      </trkpt>
      <trkpt lat="28.44372" lon="-14.02506">
        <ele>307.2</ele>
        <time>2021-07-05 10:15:09</time>
      </trkpt>
      <trkpt lat="28.44375" lon="-14.02507">
        <ele>307.2</ele>
        <time>2021-07-05 10:15:10</time>
      </trkpt>
      <trkpt lat="28.44378" lon="-14.02509">
        <ele>307.2</ele>
        <time>2021-07-05 10:15:11</time>
      </trkpt>
      <trkpt lat="28.4438" lon="-14.0251">
        <ele>307.2</ele>
        <time>2021-07-05 10:15:12</time>
      </trkpt>
      <trkpt lat="28.44383" lon="-14.02512">
        <ele>307.2</ele>
        <time>2021-07-05 10:15:13</time>
      </trkpt>
      <trkpt lat="28.44385" lon="-14.02513">
        <ele>307.4</ele>
        <time>2021-07-05 10:15:14</time>
      </trkpt>
      <trkpt lat="28.44388" lon="-14.02515">
        <ele>307.4</ele>
        <time>2021-07-05 10:15:15</time>
      </trkpt>
      <trkpt lat="28.4439" lon="-14.02516">
        <ele>307.8</ele>
        <time>2021-07-05 10:15:16</time>
      </trkpt>
      <trkpt lat="28.44393" lon="-14.02517">
        <ele>308</ele>
        <time>2021-07-05 10:15:17</time>
      </trkpt>
      <trkpt lat="28.44396" lon="-14.02519">
        <ele>308</ele>
        <time>2021-07-05 10:15:18</time>
      </trkpt>
      <trkpt lat="28.44398" lon="-14.0252">
        <ele>308</ele>
        <time>2021-07-05 10:15:19</time>
      </trkpt>
      <trkpt lat="28.44401" lon="-14.02522">
        <ele>308</ele>
        <time>2021-07-05 10:15:20</time>
      </trkpt>
      <trkpt lat="28.44404" lon="-14.02524">
        <ele>308</ele>
        <time>2021-07-05 10:15:21</time>
      </trkpt>
      <trkpt lat="28.44406" lon="-14.02525">
        <ele>308</ele>
        <time>2021-07-05 10:15:22</time>
      </trkpt>
      <trkpt lat="28.44409" lon="-14.02527">
        <ele>308.4</ele>
        <time>2021-07-05 10:15:23</time>
      </trkpt>
      <trkpt lat="28.44412" lon="-14.02529">
        <ele>308.4</ele>
        <time>2021-07-05 10:15:24</time>
      </trkpt>
      <trkpt lat="28.44414" lon="-14.02531">
        <ele>308.6</ele>
        <time>2021-07-05 10:15:25</time>
      </trkpt>
      <trkpt lat="28.44416" lon="-14.02533">
        <ele>308.8</ele>
        <time>2021-07-05 10:15:26</time>
      </trkpt>
      <trkpt lat="28.44419" lon="-14.02535">
        <ele>308.8</ele>
        <time>2021-07-05 10:15:27</time>
      </trkpt>
      <trkpt lat="28.44421" lon="-14.02538">
        <ele>309</ele>
        <time>2021-07-05 10:15:28</time>
      </trkpt>
      <trkpt lat="28.44423" lon="-14.0254">
        <ele>309</ele>
        <time>2021-07-05 10:15:29</time>
      </trkpt>
      <trkpt lat="28.44425" lon="-14.02542">
        <ele>309.2</ele>
        <time>2021-07-05 10:15:30</time>
      </trkpt>
      <trkpt lat="28.44428" lon="-14.02544">
        <ele>309.6</ele>
        <time>2021-07-05 10:15:31</time>
      </trkpt>
      <trkpt lat="28.4443" lon="-14.02546">
        <ele>309.6</ele>
        <time>2021-07-05 10:15:32</time>
      </trkpt>
      <trkpt lat="28.44432" lon="-14.02549">
        <ele>310</ele>
        <time>2021-07-05 10:15:33</time>
      </trkpt>
      <trkpt lat="28.44434" lon="-14.02551">
        <ele>310</ele>
        <time>2021-07-05 10:15:34</time>
      </trkpt>
      <trkpt lat="28.44436" lon="-14.02554">
        <ele>310.2</ele>
        <time>2021-07-05 10:15:35</time>
      </trkpt>
      <trkpt lat="28.44438" lon="-14.02556">
        <ele>310.2</ele>
        <time>2021-07-05 10:15:36</time>
      </trkpt>
      <trkpt lat="28.4444" lon="-14.02559">
        <ele>310.2</ele>
        <time>2021-07-05 10:15:37</time>
      </trkpt>
      <trkpt lat="28.44442" lon="-14.02562">
        <ele>310.4</ele>
        <time>2021-07-05 10:15:38</time>
      </trkpt>
      <trkpt lat="28.44444" lon="-14.02564">
        <ele>310.6</ele>
        <time>2021-07-05 10:15:39</time>
      </trkpt>
      <trkpt lat="28.44446" lon="-14.02567">
        <ele>310.6</ele>
        <time>2021-07-05 10:15:40</time>
      </trkpt>
      <trkpt lat="28.44449" lon="-14.0257">
        <ele>311</ele>
        <time>2021-07-05 10:15:41</time>
      </trkpt>
      <trkpt lat="28.4445" lon="-14.02573">
        <ele>311</ele>
        <time>2021-07-05 10:15:42</time>
      </trkpt>
      <trkpt lat="28.44452" lon="-14.02576">
        <ele>311</ele>
        <time>2021-07-05 10:15:43</time>
      </trkpt>
      <trkpt lat="28.44453" lon="-14.02579">
        <ele>311.6</ele>
        <time>2021-07-05 10:15:44</time>
      </trkpt>
      <trkpt lat="28.44455" lon="-14.02582">
        <ele>311.8</ele>
        <time>2021-07-05 10:15:45</time>
      </trkpt>
      <trkpt lat="28.44456" lon="-14.02585">
        <ele>311.8</ele>
        <time>2021-07-05 10:15:46</time>
      </trkpt>
      <trkpt lat="28.44458" lon="-14.02589">
        <ele>312</ele>
        <time>2021-07-05 10:15:47</time>
      </trkpt>
      <trkpt lat="28.44459" lon="-14.02592">
        <ele>312.8</ele>
        <time>2021-07-05 10:15:48</time>
      </trkpt>
      <trkpt lat="28.44461" lon="-14.02595">
        <ele>312.8</ele>
        <time>2021-07-05 10:15:49</time>
      </trkpt>
      <trkpt lat="28.44462" lon="-14.02598">
        <ele>312.8</ele>
        <time>2021-07-05 10:15:50</time>
      </trkpt>
      <trkpt lat="28.44463" lon="-14.02601">
        <ele>312.8</ele>
        <time>2021-07-05 10:15:51</time>
      </trkpt>
      <trkpt lat="28.44464" lon="-14.02605">
        <ele>313</ele>
        <time>2021-07-05 10:15:52</time>
      </trkpt>
      <trkpt lat="28.44465" lon="-14.02608">
        <ele>313</ele>
        <time>2021-07-05 10:15:53</time>
      </trkpt>
      <trkpt lat="28.44467" lon="-14.02611">
        <ele>313</ele>
        <time>2021-07-05 10:15:54</time>
      </trkpt>
      <trkpt lat="28.44468" lon="-14.02615">
        <ele>313.2</ele>
        <time>2021-07-05 10:15:55</time>
      </trkpt>
      <trkpt lat="28.44469" lon="-14.02618">
        <ele>313.2</ele>
        <time>2021-07-05 10:15:56</time>
      </trkpt>
      <trkpt lat="28.4447" lon="-14.02622">
        <ele>313.6</ele>
        <time>2021-07-05 10:15:57</time>
      </trkpt>
      <trkpt lat="28.44472" lon="-14.02625">
        <ele>313.6</ele>
        <time>2021-07-05 10:15:58</time>
      </trkpt>
      <trkpt lat="28.44473" lon="-14.02628">
        <ele>313.6</ele>
        <time>2021-07-05 10:15:59</time>
      </trkpt>
      <trkpt lat="28.44474" lon="-14.02632">
        <ele>313.6</ele>
        <time>2021-07-05 10:16:00</time>
      </trkpt>
      <trkpt lat="28.44475" lon="-14.02635">
        <ele>314</ele>
        <time>2021-07-05 10:16:01</time>
      </trkpt>
      <trkpt lat="28.44476" lon="-14.02639">
        <ele>314.2</ele>
        <time>2021-07-05 10:16:02</time>
      </trkpt>
      <trkpt lat="28.44477" lon="-14.02642">
        <ele>314.2</ele>
        <time>2021-07-05 10:16:03</time>
      </trkpt>
      <trkpt lat="28.44478" lon="-14.02645">
        <ele>314.6</ele>
        <time>2021-07-05 10:16:04</time>
      </trkpt>
      <trkpt lat="28.4448" lon="-14.02649">
        <ele>314.8</ele>
        <time>2021-07-05 10:16:05</time>
      </trkpt>
      <trkpt lat="28.44481" lon="-14.02652">
        <ele>315.4</ele>
        <time>2021-07-05 10:16:06</time>
      </trkpt>
      <trkpt lat="28.44482" lon="-14.02655">
        <ele>315.4</ele>
        <time>2021-07-05 10:16:07</time>
      </trkpt>
      <trkpt lat="28.44483" lon="-14.02659">
        <ele>315.6</ele>
        <time>2021-07-05 10:16:08</time>
      </trkpt>
      <trkpt lat="28.44483" lon="-14.02662">
        <ele>316</ele>
        <time>2021-07-05 10:16:09</time>
      </trkpt>
      <trkpt lat="28.44484" lon="-14.02665">
        <ele>316</ele>
        <time>2021-07-05 10:16:10</time>
      </trkpt>
      <trkpt lat="28.44485" lon="-14.02668">
        <ele>316</ele>
        <time>2021-07-05 10:16:11</time>
      </trkpt>
      <trkpt lat="28.44486" lon="-14.02672">
        <ele>316.2</ele>
        <time>2021-07-05 10:16:12</time>
      </trkpt>
      <trkpt lat="28.44487" lon="-14.02675">
        <ele>316.2</ele>
        <time>2021-07-05 10:16:13</time>
      </trkpt>
      <trkpt lat="28.44488" lon="-14.02678">
        <ele>316.2</ele>
        <time>2021-07-05 10:16:14</time>
      </trkpt>
      <trkpt lat="28.44489" lon="-14.02681">
        <ele>316.6</ele>
        <time>2021-07-05 10:16:15</time>
      </trkpt>
      <trkpt lat="28.4449" lon="-14.02685">
        <ele>316.6</ele>
        <time>2021-07-05 10:16:16</time>
      </trkpt>
      <trkpt lat="28.44491" lon="-14.02687">
        <ele>316.6</ele>
        <time>2021-07-05 10:16:17</time>
      </trkpt>
      <trkpt lat="28.44492" lon="-14.0269">
        <ele>316.8</ele>
        <time>2021-07-05 10:16:18</time>
      </trkpt>
      <trkpt lat="28.44493" lon="-14.02693">
        <ele>316.8</ele>
        <time>2021-07-05 10:16:19</time>
      </trkpt>
      <trkpt lat="28.44494" lon="-14.02696">
        <ele>317.2</ele>
        <time>2021-07-05 10:16:20</time>
      </trkpt>
      <trkpt lat="28.44495" lon="-14.02699">
        <ele>317.4</ele>
        <time>2021-07-05 10:16:21</time>
      </trkpt>
      <trkpt lat="28.44496" lon="-14.02701">
        <ele>317.4</ele>
        <time>2021-07-05 10:16:22</time>
      </trkpt>
      <trkpt lat="28.44497" lon="-14.02704">
        <ele>317.8</ele>
        <time>2021-07-05 10:16:23</time>
      </trkpt>
      <trkpt lat="28.44498" lon="-14.02707">
        <ele>318.2</ele>
        <time>2021-07-05 10:16:24</time>
      </trkpt>
      <trkpt lat="28.44498" lon="-14.02709">
        <ele>318.2</ele>
        <time>2021-07-05 10:16:25</time>
      </trkpt>
      <trkpt lat="28.44499" lon="-14.02712">
        <ele>318.2</ele>
        <time>2021-07-05 10:16:26</time>
      </trkpt>
      <trkpt lat="28.445" lon="-14.02715">
        <ele>318.2</ele>
        <time>2021-07-05 10:16:27</time>
      </trkpt>
      <trkpt lat="28.44501" lon="-14.02718">
        <ele>318.4</ele>
        <time>2021-07-05 10:16:28</time>
      </trkpt>
      <trkpt lat="28.44502" lon="-14.02721">
        <ele>318.4</ele>
        <time>2021-07-05 10:16:29</time>
      </trkpt>
      <trkpt lat="28.44503" lon="-14.02724">
        <ele>318.8</ele>
        <time>2021-07-05 10:16:30</time>
      </trkpt>
      <trkpt lat="28.44503" lon="-14.02726">
        <ele>319.2</ele>
        <time>2021-07-05 10:16:31</time>
      </trkpt>
      <trkpt lat="28.44504" lon="-14.02729">
        <ele>319.2</ele>
        <time>2021-07-05 10:16:32</time>
      </trkpt>
      <trkpt lat="28.44505" lon="-14.02732">
        <ele>319.4</ele>
        <time>2021-07-05 10:16:33</time>
      </trkpt>
      <trkpt lat="28.44506" lon="-14.02735">
        <ele>319.4</ele>
        <time>2021-07-05 10:16:34</time>
      </trkpt>
      <trkpt lat="28.44507" lon="-14.02737">
        <ele>319.4</ele>
        <time>2021-07-05 10:16:35</time>
      </trkpt>
      <trkpt lat="28.44507" lon="-14.0274">
        <ele>319.8</ele>
        <time>2021-07-05 10:16:36</time>
      </trkpt>
      <trkpt lat="28.44508" lon="-14.02743">
        <ele>319.8</ele>
        <time>2021-07-05 10:16:37</time>
      </trkpt>
      <trkpt lat="28.44509" lon="-14.02746">
        <ele>319.8</ele>
        <time>2021-07-05 10:16:38</time>
      </trkpt>
      <trkpt lat="28.4451" lon="-14.02749">
        <ele>319.8</ele>
        <time>2021-07-05 10:16:39</time>
      </trkpt>
      <trkpt lat="28.44511" lon="-14.02751">
        <ele>319.8</ele>
        <time>2021-07-05 10:16:40</time>
      </trkpt>
      <trkpt lat="28.44512" lon="-14.02754">
        <ele>319.8</ele>
        <time>2021-07-05 10:16:41</time>
      </trkpt>
      <trkpt lat="28.44513" lon="-14.02757">
        <ele>320</ele>
        <time>2021-07-05 10:16:42</time>
      </trkpt>
      <trkpt lat="28.44514" lon="-14.02759">
        <ele>320.2</ele>
        <time>2021-07-05 10:16:43</time>
      </trkpt>
      <trkpt lat="28.44514" lon="-14.02762">
        <ele>320.2</ele>
        <time>2021-07-05 10:16:44</time>
      </trkpt>
      <trkpt lat="28.44515" lon="-14.02765">
        <ele>320.2</ele>
        <time>2021-07-05 10:16:45</time>
      </trkpt>
      <trkpt lat="28.44516" lon="-14.02768">
        <ele>320.6</ele>
        <time>2021-07-05 10:16:46</time>
      </trkpt>
      <trkpt lat="28.44517" lon="-14.02771">
        <ele>320.8</ele>
        <time>2021-07-05 10:16:47</time>
      </trkpt>
      <trkpt lat="28.44518" lon="-14.02773">
        <ele>320.8</ele>
        <time>2021-07-05 10:16:48</time>
      </trkpt>
      <trkpt lat="28.44519" lon="-14.02776">
        <ele>320.8</ele>
        <time>2021-07-05 10:16:49</time>
      </trkpt>
      <trkpt lat="28.4452" lon="-14.02779">
        <ele>321.2</ele>
        <time>2021-07-05 10:16:50</time>
      </trkpt>
      <trkpt lat="28.44521" lon="-14.02782">
        <ele>321.2</ele>
        <time>2021-07-05 10:16:51</time>
      </trkpt>
      <trkpt lat="28.44522" lon="-14.02785">
        <ele>321.2</ele>
        <time>2021-07-05 10:16:52</time>
      </trkpt>
      <trkpt lat="28.44523" lon="-14.02788">
        <ele>321.6</ele>
        <time>2021-07-05 10:16:53</time>
      </trkpt>
      <trkpt lat="28.44523" lon="-14.02791">
        <ele>321.8</ele>
        <time>2021-07-05 10:16:54</time>
      </trkpt>
      <trkpt lat="28.44524" lon="-14.02794">
        <ele>321.8</ele>
        <time>2021-07-05 10:16:55</time>
      </trkpt>
      <trkpt lat="28.44525" lon="-14.02796">
        <ele>322</ele>
        <time>2021-07-05 10:16:56</time>
      </trkpt>
      <trkpt lat="28.44526" lon="-14.02799">
        <ele>322</ele>
        <time>2021-07-05 10:16:57</time>
      </trkpt>
      <trkpt lat="28.44527" lon="-14.02802">
        <ele>322.4</ele>
        <time>2021-07-05 10:16:58</time>
      </trkpt>
      <trkpt lat="28.44528" lon="-14.02805">
        <ele>322.4</ele>
        <time>2021-07-05 10:16:59</time>
      </trkpt>
      <trkpt lat="28.44528" lon="-14.02808">
        <ele>322.4</ele>
        <time>2021-07-05 10:17:00</time>
      </trkpt>
      <trkpt lat="28.44529" lon="-14.02811">
        <ele>322.8</ele>
        <time>2021-07-05 10:17:01</time>
      </trkpt>
      <trkpt lat="28.4453" lon="-14.02814">
        <ele>322.8</ele>
        <time>2021-07-05 10:17:02</time>
      </trkpt>
      <trkpt lat="28.4453" lon="-14.02817">
        <ele>323</ele>
        <time>2021-07-05 10:17:03</time>
      </trkpt>
      <trkpt lat="28.44531" lon="-14.0282">
        <ele>323</ele>
        <time>2021-07-05 10:17:04</time>
      </trkpt>
      <trkpt lat="28.44532" lon="-14.02822">
        <ele>323.2</ele>
        <time>2021-07-05 10:17:05</time>
      </trkpt>
      <trkpt lat="28.44533" lon="-14.02825">
        <ele>323.2</ele>
        <time>2021-07-05 10:17:06</time>
      </trkpt>
      <trkpt lat="28.44534" lon="-14.02828">
        <ele>323.6</ele>
        <time>2021-07-05 10:17:07</time>
      </trkpt>
      <trkpt lat="28.44535" lon="-14.02831">
        <ele>323.6</ele>
        <time>2021-07-05 10:17:08</time>
      </trkpt>
      <trkpt lat="28.44536" lon="-14.02834">
        <ele>324.2</ele>
        <time>2021-07-05 10:17:09</time>
      </trkpt>
      <trkpt lat="28.44537" lon="-14.02836">
        <ele>324.2</ele>
        <time>2021-07-05 10:17:10</time>
      </trkpt>
      <trkpt lat="28.44538" lon="-14.02839">
        <ele>324.4</ele>
        <time>2021-07-05 10:17:11</time>
      </trkpt>
      <trkpt lat="28.44538" lon="-14.02842">
        <ele>324.8</ele>
        <time>2021-07-05 10:17:12</time>
      </trkpt>
      <trkpt lat="28.44539" lon="-14.02845">
        <ele>324.8</ele>
        <time>2021-07-05 10:17:13</time>
      </trkpt>
      <trkpt lat="28.4454" lon="-14.02848">
        <ele>324.8</ele>
        <time>2021-07-05 10:17:14</time>
      </trkpt>
      <trkpt lat="28.44541" lon="-14.02851">
        <ele>325</ele>
        <time>2021-07-05 10:17:15</time>
      </trkpt>
      <trkpt lat="28.44542" lon="-14.02854">
        <ele>325</ele>
        <time>2021-07-05 10:17:16</time>
      </trkpt>
      <trkpt lat="28.44543" lon="-14.02856">
        <ele>325</ele>
        <time>2021-07-05 10:17:17</time>
      </trkpt>
      <trkpt lat="28.44544" lon="-14.02859">
        <ele>325</ele>
        <time>2021-07-05 10:17:18</time>
      </trkpt>
      <trkpt lat="28.44544" lon="-14.02862">
        <ele>325</ele>
        <time>2021-07-05 10:17:19</time>
      </trkpt>
      <trkpt lat="28.44545" lon="-14.02865">
        <ele>325.4</ele>
        <time>2021-07-05 10:17:20</time>
      </trkpt>
      <trkpt lat="28.44546" lon="-14.02868">
        <ele>325.4</ele>
        <time>2021-07-05 10:17:21</time>
      </trkpt>
      <trkpt lat="28.44547" lon="-14.02871">
        <ele>325.6</ele>
        <time>2021-07-05 10:17:22</time>
      </trkpt>
      <trkpt lat="28.44548" lon="-14.02874">
        <ele>326</ele>
        <time>2021-07-05 10:17:23</time>
      </trkpt>
      <trkpt lat="28.44549" lon="-14.02876">
        <ele>326</ele>
        <time>2021-07-05 10:17:24</time>
      </trkpt>
      <trkpt lat="28.44549" lon="-14.02879">
        <ele>326</ele>
        <time>2021-07-05 10:17:25</time>
      </trkpt>
      <trkpt lat="28.4455" lon="-14.02882">
        <ele>326.2</ele>
        <time>2021-07-05 10:17:26</time>
      </trkpt>
      <trkpt lat="28.44551" lon="-14.02884">
        <ele>326.2</ele>
        <time>2021-07-05 10:17:27</time>
      </trkpt>
      <trkpt lat="28.44552" lon="-14.02887">
        <ele>326.6</ele>
        <time>2021-07-05 10:17:28</time>
      </trkpt>
      <trkpt lat="28.44553" lon="-14.0289">
        <ele>326.8</ele>
        <time>2021-07-05 10:17:29</time>
      </trkpt>
      <trkpt lat="28.44554" lon="-14.02893">
        <ele>326.8</ele>
        <time>2021-07-05 10:17:30</time>
      </trkpt>
      <trkpt lat="28.44555" lon="-14.02896">
        <ele>327.2</ele>
        <time>2021-07-05 10:17:31</time>
      </trkpt>
      <trkpt lat="28.44555" lon="-14.02898">
        <ele>327.2</ele>
        <time>2021-07-05 10:17:32</time>
      </trkpt>
      <trkpt lat="28.44556" lon="-14.02901">
        <ele>327.4</ele>
        <time>2021-07-05 10:17:33</time>
      </trkpt>
      <trkpt lat="28.44557" lon="-14.02904">
        <ele>327.4</ele>
        <time>2021-07-05 10:17:34</time>
      </trkpt>
      <trkpt lat="28.44558" lon="-14.02907">
        <ele>327.8</ele>
        <time>2021-07-05 10:17:35</time>
      </trkpt>
      <trkpt lat="28.44558" lon="-14.0291">
        <ele>328</ele>
        <time>2021-07-05 10:17:36</time>
      </trkpt>
      <trkpt lat="28.44559" lon="-14.02913">
        <ele>328</ele>
        <time>2021-07-05 10:17:37</time>
      </trkpt>
      <trkpt lat="28.4456" lon="-14.02916">
        <ele>328</ele>
        <time>2021-07-05 10:17:38</time>
      </trkpt>
      <trkpt lat="28.44561" lon="-14.02919">
        <ele>328.4</ele>
        <time>2021-07-05 10:17:39</time>
      </trkpt>
      <trkpt lat="28.44562" lon="-14.02922">
        <ele>328.4</ele>
        <time>2021-07-05 10:17:40</time>
      </trkpt>
      <trkpt lat="28.44563" lon="-14.02925">
        <ele>328.6</ele>
        <time>2021-07-05 10:17:41</time>
      </trkpt>
      <trkpt lat="28.44564" lon="-14.02927">
        <ele>328.6</ele>
        <time>2021-07-05 10:17:42</time>
      </trkpt>
      <trkpt lat="28.44565" lon="-14.0293">
        <ele>329.2</ele>
        <time>2021-07-05 10:17:43</time>
      </trkpt>
      <trkpt lat="28.44565" lon="-14.02933">
        <ele>329.2</ele>
        <time>2021-07-05 10:17:44</time>
      </trkpt>
      <trkpt lat="28.44566" lon="-14.02936">
        <ele>329.6</ele>
        <time>2021-07-05 10:17:45</time>
      </trkpt>
      <trkpt lat="28.44567" lon="-14.02939">
        <ele>329.6</ele>
        <time>2021-07-05 10:17:46</time>
      </trkpt>
      <trkpt lat="28.44568" lon="-14.02942">
        <ele>329.6</ele>
        <time>2021-07-05 10:17:47</time>
      </trkpt>
      <trkpt lat="28.44569" lon="-14.02944">
        <ele>330</ele>
        <time>2021-07-05 10:17:48</time>
      </trkpt>
      <trkpt lat="28.4457" lon="-14.02947">
        <ele>330.2</ele>
        <time>2021-07-05 10:17:49</time>
      </trkpt>
      <trkpt lat="28.4457" lon="-14.0295">
        <ele>330.2</ele>
        <time>2021-07-05 10:17:50</time>
      </trkpt>
      <trkpt lat="28.44571" lon="-14.02953">
        <ele>330.6</ele>
        <time>2021-07-05 10:17:51</time>
      </trkpt>
      <trkpt lat="28.44572" lon="-14.02956">
        <ele>330.6</ele>
        <time>2021-07-05 10:17:52</time>
      </trkpt>
      <trkpt lat="28.44573" lon="-14.02958">
        <ele>330.8</ele>
        <time>2021-07-05 10:17:53</time>
      </trkpt>
      <trkpt lat="28.44574" lon="-14.02961">
        <ele>331</ele>
        <time>2021-07-05 10:17:54</time>
      </trkpt>
      <trkpt lat="28.44575" lon="-14.02963">
        <ele>331.2</ele>
        <time>2021-07-05 10:17:55</time>
      </trkpt>
      <trkpt lat="28.44576" lon="-14.02966">
        <ele>331.2</ele>
        <time>2021-07-05 10:17:56</time>
      </trkpt>
      <trkpt lat="28.44577" lon="-14.02969">
        <ele>332</ele>
        <time>2021-07-05 10:17:57</time>
      </trkpt>
      <trkpt lat="28.44577" lon="-14.02971">
        <ele>332</ele>
        <time>2021-07-05 10:17:58</time>
      </trkpt>
      <trkpt lat="28.44578" lon="-14.02974">
        <ele>332.2</ele>
        <time>2021-07-05 10:17:59</time>
      </trkpt>
      <trkpt lat="28.44579" lon="-14.02977">
        <ele>332.2</ele>
        <time>2021-07-05 10:18:00</time>
      </trkpt>
      <trkpt lat="28.4458" lon="-14.02979">
        <ele>332.4</ele>
        <time>2021-07-05 10:18:01</time>
      </trkpt>
      <trkpt lat="28.44581" lon="-14.02982">
        <ele>332.8</ele>
        <time>2021-07-05 10:18:02</time>
      </trkpt>
      <trkpt lat="28.44581" lon="-14.02985">
        <ele>332.8</ele>
        <time>2021-07-05 10:18:03</time>
      </trkpt>
      <trkpt lat="28.44582" lon="-14.02988">
        <ele>333.2</ele>
        <time>2021-07-05 10:18:04</time>
      </trkpt>
      <trkpt lat="28.44583" lon="-14.02991">
        <ele>333.2</ele>
        <time>2021-07-05 10:18:05</time>
      </trkpt>
      <trkpt lat="28.44584" lon="-14.02993">
        <ele>333.4</ele>
        <time>2021-07-05 10:18:06</time>
      </trkpt>
      <trkpt lat="28.44585" lon="-14.02996">
        <ele>333.4</ele>
        <time>2021-07-05 10:18:07</time>
      </trkpt>
      <trkpt lat="28.44586" lon="-14.02999">
        <ele>333.6</ele>
        <time>2021-07-05 10:18:08</time>
      </trkpt>
      <trkpt lat="28.44586" lon="-14.03002">
        <ele>333.8</ele>
        <time>2021-07-05 10:18:09</time>
      </trkpt>
      <trkpt lat="28.44587" lon="-14.03004">
        <ele>333.8</ele>
        <time>2021-07-05 10:18:10</time>
      </trkpt>
      <trkpt lat="28.44588" lon="-14.03007">
        <ele>334.2</ele>
        <time>2021-07-05 10:18:11</time>
      </trkpt>
      <trkpt lat="28.44589" lon="-14.0301">
        <ele>334.4</ele>
        <time>2021-07-05 10:18:12</time>
      </trkpt>
      <trkpt lat="28.4459" lon="-14.03012">
        <ele>335</ele>
        <time>2021-07-05 10:18:13</time>
      </trkpt>
      <trkpt lat="28.44591" lon="-14.03015">
        <ele>335</ele>
        <time>2021-07-05 10:18:14</time>
      </trkpt>
      <trkpt lat="28.44591" lon="-14.03018">
        <ele>335.2</ele>
        <time>2021-07-05 10:18:15</time>
      </trkpt>
      <trkpt lat="28.44592" lon="-14.0302">
        <ele>335.6</ele>
        <time>2021-07-05 10:18:16</time>
      </trkpt>
      <trkpt lat="28.44593" lon="-14.03023">
        <ele>335.8</ele>
        <time>2021-07-05 10:18:17</time>
      </trkpt>
      <trkpt lat="28.44593" lon="-14.03025">
        <ele>336.2</ele>
        <time>2021-07-05 10:18:18</time>
      </trkpt>
      <trkpt lat="28.44594" lon="-14.03028">
        <ele>336.6</ele>
        <time>2021-07-05 10:18:19</time>
      </trkpt>
      <trkpt lat="28.44594" lon="-14.0303">
        <ele>336.6</ele>
        <time>2021-07-05 10:18:20</time>
      </trkpt>
      <trkpt lat="28.44595" lon="-14.03032">
        <ele>336.8</ele>
        <time>2021-07-05 10:18:21</time>
      </trkpt>
      <trkpt lat="28.44595" lon="-14.03035">
        <ele>337</ele>
        <time>2021-07-05 10:18:22</time>
      </trkpt>
      <trkpt lat="28.44595" lon="-14.03038">
        <ele>337</ele>
        <time>2021-07-05 10:18:23</time>
      </trkpt>
      <trkpt lat="28.44594" lon="-14.0304">
        <ele>337.6</ele>
        <time>2021-07-05 10:18:24</time>
      </trkpt>
      <trkpt lat="28.44594" lon="-14.03043">
        <ele>337.8</ele>
        <time>2021-07-05 10:18:25</time>
      </trkpt>
      <trkpt lat="28.44594" lon="-14.03046">
        <ele>338.2</ele>
        <time>2021-07-05 10:18:26</time>
      </trkpt>
      <trkpt lat="28.44593" lon="-14.03048">
        <ele>338.4</ele>
        <time>2021-07-05 10:18:27</time>
      </trkpt>
      <trkpt lat="28.44593" lon="-14.03051">
        <ele>338.6</ele>
        <time>2021-07-05 10:18:28</time>
      </trkpt>
      <trkpt lat="28.44593" lon="-14.03054">
        <ele>339</ele>
        <time>2021-07-05 10:18:29</time>
      </trkpt>
      <trkpt lat="28.44592" lon="-14.03056">
        <ele>339</ele>
        <time>2021-07-05 10:18:30</time>
      </trkpt>
      <trkpt lat="28.44591" lon="-14.03059">
        <ele>339.2</ele>
        <time>2021-07-05 10:18:31</time>
      </trkpt>
      <trkpt lat="28.4459" lon="-14.03061">
        <ele>339.6</ele>
        <time>2021-07-05 10:18:32</time>
      </trkpt>
      <trkpt lat="28.44589" lon="-14.03063">
        <ele>339.6</ele>
        <time>2021-07-05 10:18:33</time>
      </trkpt>
      <trkpt lat="28.44587" lon="-14.03066">
        <ele>339.8</ele>
        <time>2021-07-05 10:18:34</time>
      </trkpt>
      <trkpt lat="28.44586" lon="-14.03068">
        <ele>339.8</ele>
        <time>2021-07-05 10:18:35</time>
      </trkpt>
      <trkpt lat="28.44585" lon="-14.0307">
        <ele>340.2</ele>
        <time>2021-07-05 10:18:36</time>
      </trkpt>
      <trkpt lat="28.44583" lon="-14.03072">
        <ele>340.2</ele>
        <time>2021-07-05 10:18:37</time>
      </trkpt>
      <trkpt lat="28.44582" lon="-14.03075">
        <ele>340.4</ele>
        <time>2021-07-05 10:18:38</time>
      </trkpt>
      <trkpt lat="28.44581" lon="-14.03077">
        <ele>340.4</ele>
        <time>2021-07-05 10:18:39</time>
      </trkpt>
      <trkpt lat="28.44579" lon="-14.03079">
        <ele>340.8</ele>
        <time>2021-07-05 10:18:40</time>
      </trkpt>
      <trkpt lat="28.44578" lon="-14.03081">
        <ele>340.8</ele>
        <time>2021-07-05 10:18:41</time>
      </trkpt>
      <trkpt lat="28.44576" lon="-14.03084">
        <ele>341.2</ele>
        <time>2021-07-05 10:18:42</time>
      </trkpt>
      <trkpt lat="28.44575" lon="-14.03086">
        <ele>341.2</ele>
        <time>2021-07-05 10:18:43</time>
      </trkpt>
      <trkpt lat="28.44573" lon="-14.03088">
        <ele>341.4</ele>
        <time>2021-07-05 10:18:44</time>
      </trkpt>
      <trkpt lat="28.44571" lon="-14.0309">
        <ele>341.4</ele>
        <time>2021-07-05 10:18:45</time>
      </trkpt>
      <trkpt lat="28.44569" lon="-14.03092">
        <ele>341.4</ele>
        <time>2021-07-05 10:18:46</time>
      </trkpt>
      <trkpt lat="28.44568" lon="-14.03094">
        <ele>341.6</ele>
        <time>2021-07-05 10:18:47</time>
      </trkpt>
      <trkpt lat="28.44566" lon="-14.03096">
        <ele>342</ele>
        <time>2021-07-05 10:18:48</time>
      </trkpt>
      <trkpt lat="28.44565" lon="-14.03099">
        <ele>342</ele>
        <time>2021-07-05 10:18:49</time>
      </trkpt>
      <trkpt lat="28.44563" lon="-14.03101">
        <ele>342.2</ele>
        <time>2021-07-05 10:18:50</time>
      </trkpt>
      <trkpt lat="28.44562" lon="-14.03104">
        <ele>342.6</ele>
        <time>2021-07-05 10:18:51</time>
      </trkpt>
      <trkpt lat="28.44561" lon="-14.03106">
        <ele>343</ele>
        <time>2021-07-05 10:18:52</time>
      </trkpt>
      <trkpt lat="28.44559" lon="-14.03108">
        <ele>343.4</ele>
        <time>2021-07-05 10:18:53</time>
      </trkpt>
      <trkpt lat="28.44558" lon="-14.03111">
        <ele>343.4</ele>
        <time>2021-07-05 10:18:54</time>
      </trkpt>
      <trkpt lat="28.44557" lon="-14.03113">
        <ele>343.4</ele>
        <time>2021-07-05 10:18:55</time>
      </trkpt>
      <trkpt lat="28.44556" lon="-14.03116">
        <ele>343.6</ele>
        <time>2021-07-05 10:18:56</time>
      </trkpt>
      <trkpt lat="28.44555" lon="-14.03119">
        <ele>344</ele>
        <time>2021-07-05 10:18:57</time>
      </trkpt>
      <trkpt lat="28.44554" lon="-14.03121">
        <ele>344.2</ele>
        <time>2021-07-05 10:18:58</time>
      </trkpt>
      <trkpt lat="28.44552" lon="-14.03124">
        <ele>344.2</ele>
        <time>2021-07-05 10:18:59</time>
      </trkpt>
      <trkpt lat="28.44552" lon="-14.03127">
        <ele>344.6</ele>
        <time>2021-07-05 10:19:00</time>
      </trkpt>
      <trkpt lat="28.4455" lon="-14.03129">
        <ele>344.6</ele>
        <time>2021-07-05 10:19:01</time>
      </trkpt>
      <trkpt lat="28.4455" lon="-14.03132">
        <ele>345</ele>
        <time>2021-07-05 10:19:02</time>
      </trkpt>
      <trkpt lat="28.44549" lon="-14.03135">
        <ele>345.4</ele>
        <time>2021-07-05 10:19:03</time>
      </trkpt>
      <trkpt lat="28.44548" lon="-14.03137">
        <ele>345.6</ele>
        <time>2021-07-05 10:19:04</time>
      </trkpt>
      <trkpt lat="28.44548" lon="-14.0314">
        <ele>345.6</ele>
        <time>2021-07-05 10:19:05</time>
      </trkpt>
      <trkpt lat="28.44548" lon="-14.03144">
        <ele>346</ele>
        <time>2021-07-05 10:19:06</time>
      </trkpt>
      <trkpt lat="28.44548" lon="-14.03147">
        <ele>346.8</ele>
        <time>2021-07-05 10:19:07</time>
      </trkpt>
      <trkpt lat="28.44548" lon="-14.03149">
        <ele>346.8</ele>
        <time>2021-07-05 10:19:08</time>
      </trkpt>
      <trkpt lat="28.44547" lon="-14.03152">
        <ele>347.2</ele>
        <time>2021-07-05 10:19:09</time>
      </trkpt>
      <trkpt lat="28.44547" lon="-14.03155">
        <ele>347.6</ele>
        <time>2021-07-05 10:19:10</time>
      </trkpt>
      <trkpt lat="28.44547" lon="-14.03158">
        <ele>348</ele>
        <time>2021-07-05 10:19:11</time>
      </trkpt>
      <trkpt lat="28.44547" lon="-14.03161">
        <ele>348.2</ele>
        <time>2021-07-05 10:19:12</time>
      </trkpt>
      <trkpt lat="28.44547" lon="-14.03164">
        <ele>348.6</ele>
        <time>2021-07-05 10:19:13</time>
      </trkpt>
      <trkpt lat="28.44548" lon="-14.03167">
        <ele>349</ele>
        <time>2021-07-05 10:19:14</time>
      </trkpt>
      <trkpt lat="28.44548" lon="-14.0317">
        <ele>349.6</ele>
        <time>2021-07-05 10:19:15</time>
      </trkpt>
      <trkpt lat="28.44548" lon="-14.03173">
        <ele>349.6</ele>
        <time>2021-07-05 10:19:16</time>
      </trkpt>
      <trkpt lat="28.44548" lon="-14.03176">
        <ele>349.6</ele>
        <time>2021-07-05 10:19:17</time>
      </trkpt>
      <trkpt lat="28.44549" lon="-14.03179">
        <ele>350</ele>
        <time>2021-07-05 10:19:18</time>
      </trkpt>
      <trkpt lat="28.44549" lon="-14.03181">
        <ele>350.2</ele>
        <time>2021-07-05 10:19:19</time>
      </trkpt>
      <trkpt lat="28.44549" lon="-14.03185">
        <ele>350.4</ele>
        <time>2021-07-05 10:19:20</time>
      </trkpt>
      <trkpt lat="28.44549" lon="-14.03187">
        <ele>350.8</ele>
        <time>2021-07-05 10:19:21</time>
      </trkpt>
      <trkpt lat="28.44549" lon="-14.03191">
        <ele>350.8</ele>
        <time>2021-07-05 10:19:22</time>
      </trkpt>
      <trkpt lat="28.44549" lon="-14.03194">
        <ele>351</ele>
        <time>2021-07-05 10:19:23</time>
      </trkpt>
      <trkpt lat="28.44549" lon="-14.03197">
        <ele>351.2</ele>
        <time>2021-07-05 10:19:24</time>
      </trkpt>
      <trkpt lat="28.44549" lon="-14.032">
        <ele>351.2</ele>
        <time>2021-07-05 10:19:25</time>
      </trkpt>
      <trkpt lat="28.44549" lon="-14.03203">
        <ele>351.2</ele>
        <time>2021-07-05 10:19:26</time>
      </trkpt>
      <trkpt lat="28.4455" lon="-14.03206">
        <ele>351.6</ele>
        <time>2021-07-05 10:19:27</time>
      </trkpt>
      <trkpt lat="28.44551" lon="-14.03209">
        <ele>351.6</ele>
        <time>2021-07-05 10:19:28</time>
      </trkpt>
      <trkpt lat="28.44552" lon="-14.03212">
        <ele>351.6</ele>
        <time>2021-07-05 10:19:29</time>
      </trkpt>
      <trkpt lat="28.44552" lon="-14.03215">
        <ele>351.6</ele>
        <time>2021-07-05 10:19:30</time>
      </trkpt>
      <trkpt lat="28.44553" lon="-14.03218">
        <ele>351.8</ele>
        <time>2021-07-05 10:19:31</time>
      </trkpt>
      <trkpt lat="28.44553" lon="-14.03221">
        <ele>351.8</ele>
        <time>2021-07-05 10:19:32</time>
      </trkpt>
      <trkpt lat="28.44554" lon="-14.03224">
        <ele>352.2</ele>
        <time>2021-07-05 10:19:33</time>
      </trkpt>
      <trkpt lat="28.44555" lon="-14.03227">
        <ele>352.2</ele>
        <time>2021-07-05 10:19:34</time>
      </trkpt>
      <trkpt lat="28.44556" lon="-14.03231">
        <ele>352.2</ele>
        <time>2021-07-05 10:19:35</time>
      </trkpt>
      <trkpt lat="28.44557" lon="-14.03234">
        <ele>352.2</ele>
        <time>2021-07-05 10:19:36</time>
      </trkpt>
      <trkpt lat="28.44557" lon="-14.03237">
        <ele>352.4</ele>
        <time>2021-07-05 10:19:37</time>
      </trkpt>
      <trkpt lat="28.44558" lon="-14.0324">
        <ele>352.4</ele>
        <time>2021-07-05 10:19:38</time>
      </trkpt>
      <trkpt lat="28.44559" lon="-14.03243">
        <ele>353</ele>
        <time>2021-07-05 10:19:39</time>
      </trkpt>
      <trkpt lat="28.44559" lon="-14.03247">
        <ele>353</ele>
        <time>2021-07-05 10:19:40</time>
      </trkpt>
      <trkpt lat="28.4456" lon="-14.0325">
        <ele>353.2</ele>
        <time>2021-07-05 10:19:41</time>
      </trkpt>
      <trkpt lat="28.44561" lon="-14.03253">
        <ele>353.6</ele>
        <time>2021-07-05 10:19:42</time>
      </trkpt>
      <trkpt lat="28.44563" lon="-14.03256">
        <ele>353.6</ele>
        <time>2021-07-05 10:19:43</time>
      </trkpt>
      <trkpt lat="28.44564" lon="-14.03259">
        <ele>353.8</ele>
        <time>2021-07-05 10:19:44</time>
      </trkpt>
      <trkpt lat="28.44565" lon="-14.03262">
        <ele>354.2</ele>
        <time>2021-07-05 10:19:45</time>
      </trkpt>
      <trkpt lat="28.44566" lon="-14.03265">
        <ele>354.2</ele>
        <time>2021-07-05 10:19:46</time>
      </trkpt>
      <trkpt lat="28.44567" lon="-14.03268">
        <ele>354.2</ele>
        <time>2021-07-05 10:19:47</time>
      </trkpt>
      <trkpt lat="28.44568" lon="-14.03271">
        <ele>354.2</ele>
        <time>2021-07-05 10:19:48</time>
      </trkpt>
      <trkpt lat="28.44569" lon="-14.03275">
        <ele>354.2</ele>
        <time>2021-07-05 10:19:49</time>
      </trkpt>
      <trkpt lat="28.44569" lon="-14.03278">
        <ele>354.2</ele>
        <time>2021-07-05 10:19:50</time>
      </trkpt>
      <trkpt lat="28.44568" lon="-14.03282">
        <ele>354.4</ele>
        <time>2021-07-05 10:19:51</time>
      </trkpt>
      <trkpt lat="28.44566" lon="-14.03285">
        <ele>354.4</ele>
        <time>2021-07-05 10:19:52</time>
      </trkpt>
      <trkpt lat="28.44563" lon="-14.03288">
        <ele>354.4</ele>
        <time>2021-07-05 10:19:53</time>
      </trkpt>
      <trkpt lat="28.4456" lon="-14.03289">
        <ele>354</ele>
        <time>2021-07-05 10:19:54</time>
      </trkpt>
      <trkpt lat="28.44557" lon="-14.03291">
        <ele>354</ele>
        <time>2021-07-05 10:19:55</time>
      </trkpt>
      <trkpt lat="28.44555" lon="-14.03293">
        <ele>353.8</ele>
        <time>2021-07-05 10:19:56</time>
      </trkpt>
      <trkpt lat="28.44552" lon="-14.03295">
        <ele>353.6</ele>
        <time>2021-07-05 10:19:57</time>
      </trkpt>
      <trkpt lat="28.4455" lon="-14.03297">
        <ele>353.2</ele>
        <time>2021-07-05 10:19:58</time>
      </trkpt>
      <trkpt lat="28.44547" lon="-14.033">
        <ele>353.2</ele>
        <time>2021-07-05 10:19:59</time>
      </trkpt>
      <trkpt lat="28.44545" lon="-14.03303">
        <ele>353</ele>
        <time>2021-07-05 10:20:00</time>
      </trkpt>
      <trkpt lat="28.44544" lon="-14.03306">
        <ele>352.8</ele>
        <time>2021-07-05 10:20:01</time>
      </trkpt>
      <trkpt lat="28.44542" lon="-14.0331">
        <ele>352.6</ele>
        <time>2021-07-05 10:20:02</time>
      </trkpt>
      <trkpt lat="28.4454" lon="-14.03313">
        <ele>352.6</ele>
        <time>2021-07-05 10:20:03</time>
      </trkpt>
      <trkpt lat="28.44539" lon="-14.03316">
        <ele>352.2</ele>
        <time>2021-07-05 10:20:04</time>
      </trkpt>
      <trkpt lat="28.44537" lon="-14.03319">
        <ele>352.2</ele>
        <time>2021-07-05 10:20:05</time>
      </trkpt>
      <trkpt lat="28.44536" lon="-14.03323">
        <ele>352</ele>
        <time>2021-07-05 10:20:06</time>
      </trkpt>
      <trkpt lat="28.44534" lon="-14.03326">
        <ele>352</ele>
        <time>2021-07-05 10:20:07</time>
      </trkpt>
      <trkpt lat="28.44533" lon="-14.0333">
        <ele>352</ele>
        <time>2021-07-05 10:20:08</time>
      </trkpt>
      <trkpt lat="28.44531" lon="-14.03333">
        <ele>352</ele>
        <time>2021-07-05 10:20:09</time>
      </trkpt>
      <trkpt lat="28.4453" lon="-14.03337">
        <ele>352</ele>
        <time>2021-07-05 10:20:10</time>
      </trkpt>
      <trkpt lat="28.44528" lon="-14.0334">
        <ele>352</ele>
        <time>2021-07-05 10:20:11</time>
      </trkpt>
      <trkpt lat="28.44526" lon="-14.03344">
        <ele>351.8</ele>
        <time>2021-07-05 10:20:12</time>
      </trkpt>
      <trkpt lat="28.44525" lon="-14.03348">
        <ele>351.8</ele>
        <time>2021-07-05 10:20:13</time>
      </trkpt>
      <trkpt lat="28.44523" lon="-14.03351">
        <ele>351.8</ele>
        <time>2021-07-05 10:20:14</time>
      </trkpt>
      <trkpt lat="28.44521" lon="-14.03355">
        <ele>351.8</ele>
        <time>2021-07-05 10:20:15</time>
      </trkpt>
      <trkpt lat="28.44519" lon="-14.03358">
        <ele>351.8</ele>
        <time>2021-07-05 10:20:16</time>
      </trkpt>
      <trkpt lat="28.44517" lon="-14.03362">
        <ele>351.8</ele>
        <time>2021-07-05 10:20:17</time>
      </trkpt>
      <trkpt lat="28.44516" lon="-14.03365">
        <ele>352</ele>
        <time>2021-07-05 10:20:18</time>
      </trkpt>
      <trkpt lat="28.44514" lon="-14.03369">
        <ele>352</ele>
        <time>2021-07-05 10:20:19</time>
      </trkpt>
      <trkpt lat="28.44513" lon="-14.03372">
        <ele>352.4</ele>
        <time>2021-07-05 10:20:20</time>
      </trkpt>
      <trkpt lat="28.44511" lon="-14.03375">
        <ele>352.4</ele>
        <time>2021-07-05 10:20:21</time>
      </trkpt>
      <trkpt lat="28.44509" lon="-14.03379">
        <ele>352.4</ele>
        <time>2021-07-05 10:20:22</time>
      </trkpt>
      <trkpt lat="28.44508" lon="-14.03382">
        <ele>352.6</ele>
        <time>2021-07-05 10:20:23</time>
      </trkpt>
      <trkpt lat="28.44506" lon="-14.03385">
        <ele>352.6</ele>
        <time>2021-07-05 10:20:24</time>
      </trkpt>
      <trkpt lat="28.44504" lon="-14.03388">
        <ele>352.8</ele>
        <time>2021-07-05 10:20:25</time>
      </trkpt>
      <trkpt lat="28.44503" lon="-14.03391">
        <ele>353</ele>
        <time>2021-07-05 10:20:26</time>
      </trkpt>
      <trkpt lat="28.44502" lon="-14.03394">
        <ele>353</ele>
        <time>2021-07-05 10:20:27</time>
      </trkpt>
      <trkpt lat="28.445" lon="-14.03398">
        <ele>353</ele>
        <time>2021-07-05 10:20:28</time>
      </trkpt>
      <trkpt lat="28.44499" lon="-14.03401">
        <ele>353.4</ele>
        <time>2021-07-05 10:20:29</time>
      </trkpt>
      <trkpt lat="28.44497" lon="-14.03404">
        <ele>353.4</ele>
        <time>2021-07-05 10:20:30</time>
      </trkpt>
      <trkpt lat="28.44496" lon="-14.03407">
        <ele>353.6</ele>
        <time>2021-07-05 10:20:31</time>
      </trkpt>
      <trkpt lat="28.44494" lon="-14.0341">
        <ele>354</ele>
        <time>2021-07-05 10:20:32</time>
      </trkpt>
      <trkpt lat="28.44493" lon="-14.03413">
        <ele>354.2</ele>
        <time>2021-07-05 10:20:33</time>
      </trkpt>
      <trkpt lat="28.44492" lon="-14.03416">
        <ele>354.2</ele>
        <time>2021-07-05 10:20:34</time>
      </trkpt>
      <trkpt lat="28.44491" lon="-14.03419">
        <ele>354.2</ele>
        <time>2021-07-05 10:20:35</time>
      </trkpt>
      <trkpt lat="28.4449" lon="-14.03422">
        <ele>354.6</ele>
        <time>2021-07-05 10:20:36</time>
      </trkpt>
      <trkpt lat="28.4449" lon="-14.03424">
        <ele>354.8</ele>
        <time>2021-07-05 10:20:37</time>
      </trkpt>
      <trkpt lat="28.44489" lon="-14.03427">
        <ele>354.8</ele>
        <time>2021-07-05 10:20:38</time>
      </trkpt>
      <trkpt lat="28.44489" lon="-14.0343">
        <ele>354.8</ele>
        <time>2021-07-05 10:20:39</time>
      </trkpt>
      <trkpt lat="28.44488" lon="-14.03433">
        <ele>355.2</ele>
        <time>2021-07-05 10:20:40</time>
      </trkpt>
      <trkpt lat="28.44488" lon="-14.03436">
        <ele>355.4</ele>
        <time>2021-07-05 10:20:41</time>
      </trkpt>
      <trkpt lat="28.44488" lon="-14.03438">
        <ele>355.8</ele>
        <time>2021-07-05 10:20:42</time>
      </trkpt>
      <trkpt lat="28.44488" lon="-14.03441">
        <ele>355.8</ele>
        <time>2021-07-05 10:20:43</time>
      </trkpt>
      <trkpt lat="28.44489" lon="-14.03444">
        <ele>356</ele>
        <time>2021-07-05 10:20:44</time>
      </trkpt>
      <trkpt lat="28.44489" lon="-14.03447">
        <ele>356</ele>
        <time>2021-07-05 10:20:45</time>
      </trkpt>
      <trkpt lat="28.4449" lon="-14.03449">
        <ele>356.4</ele>
        <time>2021-07-05 10:20:46</time>
      </trkpt>
      <trkpt lat="28.4449" lon="-14.03452">
        <ele>356.8</ele>
        <time>2021-07-05 10:20:47</time>
      </trkpt>
      <trkpt lat="28.44491" lon="-14.03455">
        <ele>356.8</ele>
        <time>2021-07-05 10:20:48</time>
      </trkpt>
      <trkpt lat="28.44492" lon="-14.03457">
        <ele>357</ele>
        <time>2021-07-05 10:20:49</time>
      </trkpt>
      <trkpt lat="28.44492" lon="-14.0346">
        <ele>357</ele>
        <time>2021-07-05 10:20:50</time>
      </trkpt>
      <trkpt lat="28.44493" lon="-14.03463">
        <ele>357.4</ele>
        <time>2021-07-05 10:20:51</time>
      </trkpt>
      <trkpt lat="28.44493" lon="-14.03465">
        <ele>357.4</ele>
        <time>2021-07-05 10:20:52</time>
      </trkpt>
      <trkpt lat="28.44494" lon="-14.03468">
        <ele>357.8</ele>
        <time>2021-07-05 10:20:53</time>
      </trkpt>
      <trkpt lat="28.44494" lon="-14.03471">
        <ele>357.8</ele>
        <time>2021-07-05 10:20:54</time>
      </trkpt>
      <trkpt lat="28.44495" lon="-14.03474">
        <ele>358</ele>
        <time>2021-07-05 10:20:55</time>
      </trkpt>
      <trkpt lat="28.44496" lon="-14.03476">
        <ele>358.4</ele>
        <time>2021-07-05 10:20:56</time>
      </trkpt>
      <trkpt lat="28.44496" lon="-14.03479">
        <ele>358.4</ele>
        <time>2021-07-05 10:20:57</time>
      </trkpt>
      <trkpt lat="28.44496" lon="-14.03482">
        <ele>358.8</ele>
        <time>2021-07-05 10:20:58</time>
      </trkpt>
      <trkpt lat="28.44496" lon="-14.03485">
        <ele>358.8</ele>
        <time>2021-07-05 10:20:59</time>
      </trkpt>
      <trkpt lat="28.44496" lon="-14.03488">
        <ele>359</ele>
        <time>2021-07-05 10:21:00</time>
      </trkpt>
      <trkpt lat="28.44495" lon="-14.0349">
        <ele>359</ele>
        <time>2021-07-05 10:21:01</time>
      </trkpt>
      <trkpt lat="28.44495" lon="-14.03493">
        <ele>359.4</ele>
        <time>2021-07-05 10:21:02</time>
      </trkpt>
      <trkpt lat="28.44494" lon="-14.03496">
        <ele>359.4</ele>
        <time>2021-07-05 10:21:03</time>
      </trkpt>
      <trkpt lat="28.44492" lon="-14.03499">
        <ele>359.8</ele>
        <time>2021-07-05 10:21:04</time>
      </trkpt>
      <trkpt lat="28.44491" lon="-14.03501">
        <ele>359.8</ele>
        <time>2021-07-05 10:21:05</time>
      </trkpt>
      <trkpt lat="28.44489" lon="-14.03503">
        <ele>360.2</ele>
        <time>2021-07-05 10:21:06</time>
      </trkpt>
      <trkpt lat="28.44487" lon="-14.03505">
        <ele>360.2</ele>
        <time>2021-07-05 10:21:07</time>
      </trkpt>
      <trkpt lat="28.44485" lon="-14.03507">
        <ele>360.4</ele>
        <time>2021-07-05 10:21:08</time>
      </trkpt>
      <trkpt lat="28.44483" lon="-14.03509">
        <ele>360.4</ele>
        <time>2021-07-05 10:21:09</time>
      </trkpt>
      <trkpt lat="28.44481" lon="-14.03511">
        <ele>360.6</ele>
        <time>2021-07-05 10:21:10</time>
      </trkpt>
      <trkpt lat="28.44479" lon="-14.03513">
        <ele>360.6</ele>
        <time>2021-07-05 10:21:11</time>
      </trkpt>
      <trkpt lat="28.44476" lon="-14.03514">
        <ele>360.6</ele>
        <time>2021-07-05 10:21:12</time>
      </trkpt>
      <trkpt lat="28.44473" lon="-14.03515">
        <ele>360.6</ele>
        <time>2021-07-05 10:21:13</time>
      </trkpt>
      <trkpt lat="28.44471" lon="-14.03515">
        <ele>360.6</ele>
        <time>2021-07-05 10:21:14</time>
      </trkpt>
      <trkpt lat="28.44468" lon="-14.03516">
        <ele>361</ele>
        <time>2021-07-05 10:21:15</time>
      </trkpt>
      <trkpt lat="28.44465" lon="-14.03515">
        <ele>361</ele>
        <time>2021-07-05 10:21:16</time>
      </trkpt>
      <trkpt lat="28.44462" lon="-14.03515">
        <ele>361</ele>
        <time>2021-07-05 10:21:17</time>
      </trkpt>
      <trkpt lat="28.44459" lon="-14.03514">
        <ele>361</ele>
        <time>2021-07-05 10:21:18</time>
      </trkpt>
      <trkpt lat="28.44457" lon="-14.03514">
        <ele>361.2</ele>
        <time>2021-07-05 10:21:19</time>
      </trkpt>
      <trkpt lat="28.44454" lon="-14.03514">
        <ele>361.2</ele>
        <time>2021-07-05 10:21:20</time>
      </trkpt>
      <trkpt lat="28.44452" lon="-14.03513">
        <ele>361.4</ele>
        <time>2021-07-05 10:21:21</time>
      </trkpt>
      <trkpt lat="28.44449" lon="-14.03513">
        <ele>361.4</ele>
        <time>2021-07-05 10:21:22</time>
      </trkpt>
      <trkpt lat="28.44447" lon="-14.03513">
        <ele>361.8</ele>
        <time>2021-07-05 10:21:23</time>
      </trkpt>
      <trkpt lat="28.44444" lon="-14.03513">
        <ele>362.2</ele>
        <time>2021-07-05 10:21:24</time>
      </trkpt>
      <trkpt lat="28.44442" lon="-14.03513">
        <ele>362.2</ele>
        <time>2021-07-05 10:21:25</time>
      </trkpt>
      <trkpt lat="28.4444" lon="-14.03513">
        <ele>362.4</ele>
        <time>2021-07-05 10:21:26</time>
      </trkpt>
      <trkpt lat="28.44438" lon="-14.03513">
        <ele>362.8</ele>
        <time>2021-07-05 10:21:27</time>
      </trkpt>
      <trkpt lat="28.44435" lon="-14.03513">
        <ele>362.8</ele>
        <time>2021-07-05 10:21:28</time>
      </trkpt>
      <trkpt lat="28.44433" lon="-14.03514">
        <ele>362.8</ele>
        <time>2021-07-05 10:21:29</time>
      </trkpt>
      <trkpt lat="28.44431" lon="-14.03514">
        <ele>363.2</ele>
        <time>2021-07-05 10:21:30</time>
      </trkpt>
      <trkpt lat="28.44429" lon="-14.03514">
        <ele>363.6</ele>
        <time>2021-07-05 10:21:31</time>
      </trkpt>
      <trkpt lat="28.44427" lon="-14.03515">
        <ele>363.8</ele>
        <time>2021-07-05 10:21:32</time>
      </trkpt>
      <trkpt lat="28.44424" lon="-14.03516">
        <ele>364</ele>
        <time>2021-07-05 10:21:33</time>
      </trkpt>
      <trkpt lat="28.44423" lon="-14.03518">
        <ele>364.4</ele>
        <time>2021-07-05 10:21:34</time>
      </trkpt>
      <trkpt lat="28.44421" lon="-14.03519">
        <ele>365</ele>
        <time>2021-07-05 10:21:35</time>
      </trkpt>
      <trkpt lat="28.44419" lon="-14.03521">
        <ele>365.2</ele>
        <time>2021-07-05 10:21:36</time>
      </trkpt>
      <trkpt lat="28.44417" lon="-14.03523">
        <ele>365.6</ele>
        <time>2021-07-05 10:21:37</time>
      </trkpt>
      <trkpt lat="28.44416" lon="-14.03525">
        <ele>365.6</ele>
        <time>2021-07-05 10:21:38</time>
      </trkpt>
      <trkpt lat="28.44415" lon="-14.03527">
        <ele>365.8</ele>
        <time>2021-07-05 10:21:39</time>
      </trkpt>
      <trkpt lat="28.44414" lon="-14.0353">
        <ele>366.2</ele>
        <time>2021-07-05 10:21:40</time>
      </trkpt>
      <trkpt lat="28.44413" lon="-14.03532">
        <ele>366.6</ele>
        <time>2021-07-05 10:21:41</time>
      </trkpt>
      <trkpt lat="28.44412" lon="-14.03535">
        <ele>366.8</ele>
        <time>2021-07-05 10:21:42</time>
      </trkpt>
      <trkpt lat="28.44411" lon="-14.03537">
        <ele>367.2</ele>
        <time>2021-07-05 10:21:43</time>
      </trkpt>
      <trkpt lat="28.4441" lon="-14.0354">
        <ele>367.4</ele>
        <time>2021-07-05 10:21:44</time>
      </trkpt>
      <trkpt lat="28.44409" lon="-14.03543">
        <ele>367.6</ele>
        <time>2021-07-05 10:21:45</time>
      </trkpt>
      <trkpt lat="28.44409" lon="-14.03546">
        <ele>368</ele>
        <time>2021-07-05 10:21:46</time>
      </trkpt>
      <trkpt lat="28.44409" lon="-14.03549">
        <ele>368.2</ele>
        <time>2021-07-05 10:21:47</time>
      </trkpt>
      <trkpt lat="28.44408" lon="-14.03551">
        <ele>368.2</ele>
        <time>2021-07-05 10:21:48</time>
      </trkpt>
      <trkpt lat="28.44408" lon="-14.03554">
        <ele>368.6</ele>
        <time>2021-07-05 10:21:49</time>
      </trkpt>
      <trkpt lat="28.44407" lon="-14.03557">
        <ele>368.6</ele>
        <time>2021-07-05 10:21:50</time>
      </trkpt>
      <trkpt lat="28.44407" lon="-14.0356">
        <ele>369</ele>
        <time>2021-07-05 10:21:51</time>
      </trkpt>
      <trkpt lat="28.44406" lon="-14.03562">
        <ele>369.2</ele>
        <time>2021-07-05 10:21:52</time>
      </trkpt>
      <trkpt lat="28.44405" lon="-14.03564">
        <ele>369.2</ele>
        <time>2021-07-05 10:21:53</time>
      </trkpt>
      <trkpt lat="28.44405" lon="-14.03567">
        <ele>369.2</ele>
        <time>2021-07-05 10:21:54</time>
      </trkpt>
      <trkpt lat="28.44404" lon="-14.03569">
        <ele>369.8</ele>
        <time>2021-07-05 10:21:55</time>
      </trkpt>
      <trkpt lat="28.44404" lon="-14.03572">
        <ele>369.8</ele>
        <time>2021-07-05 10:21:56</time>
      </trkpt>
      <trkpt lat="28.44403" lon="-14.03574">
        <ele>370</ele>
        <time>2021-07-05 10:21:57</time>
      </trkpt>
      <trkpt lat="28.44402" lon="-14.03577">
        <ele>370</ele>
        <time>2021-07-05 10:21:58</time>
      </trkpt>
      <trkpt lat="28.444" lon="-14.03579">
        <ele>370.2</ele>
        <time>2021-07-05 10:21:59</time>
      </trkpt>
      <trkpt lat="28.44399" lon="-14.03581">
        <ele>370.4</ele>
        <time>2021-07-05 10:22:00</time>
      </trkpt>
      <trkpt lat="28.44397" lon="-14.03583">
        <ele>370.4</ele>
        <time>2021-07-05 10:22:01</time>
      </trkpt>
      <trkpt lat="28.44396" lon="-14.03585">
        <ele>370.4</ele>
        <time>2021-07-05 10:22:02</time>
      </trkpt>
      <trkpt lat="28.44394" lon="-14.03586">
        <ele>370.4</ele>
        <time>2021-07-05 10:22:03</time>
      </trkpt>
      <trkpt lat="28.44392" lon="-14.03588">
        <ele>370.8</ele>
        <time>2021-07-05 10:22:04</time>
      </trkpt>
      <trkpt lat="28.4439" lon="-14.03589">
        <ele>370.8</ele>
        <time>2021-07-05 10:22:05</time>
      </trkpt>
      <trkpt lat="28.44388" lon="-14.0359">
        <ele>371</ele>
        <time>2021-07-05 10:22:06</time>
      </trkpt>
      <trkpt lat="28.44386" lon="-14.0359">
        <ele>371</ele>
        <time>2021-07-05 10:22:07</time>
      </trkpt>
      <trkpt lat="28.44383" lon="-14.03591">
        <ele>371.4</ele>
        <time>2021-07-05 10:22:08</time>
      </trkpt>
      <trkpt lat="28.44381" lon="-14.03591">
        <ele>371.6</ele>
        <time>2021-07-05 10:22:09</time>
      </trkpt>
      <trkpt lat="28.44379" lon="-14.03591">
        <ele>371.6</ele>
        <time>2021-07-05 10:22:10</time>
      </trkpt>
      <trkpt lat="28.44376" lon="-14.03592">
        <ele>372</ele>
        <time>2021-07-05 10:22:11</time>
      </trkpt>
      <trkpt lat="28.44374" lon="-14.03592">
        <ele>372.2</ele>
        <time>2021-07-05 10:22:12</time>
      </trkpt>
      <trkpt lat="28.44371" lon="-14.03592">
        <ele>372.6</ele>
        <time>2021-07-05 10:22:13</time>
      </trkpt>
      <trkpt lat="28.44369" lon="-14.03592">
        <ele>372.8</ele>
        <time>2021-07-05 10:22:14</time>
      </trkpt>
      <trkpt lat="28.44367" lon="-14.03592">
        <ele>373.4</ele>
        <time>2021-07-05 10:22:15</time>
      </trkpt>
      <trkpt lat="28.44364" lon="-14.03593">
        <ele>373.8</ele>
        <time>2021-07-05 10:22:16</time>
      </trkpt>
      <trkpt lat="28.44362" lon="-14.03593">
        <ele>373.8</ele>
        <time>2021-07-05 10:22:17</time>
      </trkpt>
      <trkpt lat="28.44359" lon="-14.03593">
        <ele>374</ele>
        <time>2021-07-05 10:22:18</time>
      </trkpt>
      <trkpt lat="28.44357" lon="-14.03593">
        <ele>374.4</ele>
        <time>2021-07-05 10:22:19</time>
      </trkpt>
      <trkpt lat="28.44354" lon="-14.03593">
        <ele>374.8</ele>
        <time>2021-07-05 10:22:20</time>
      </trkpt>
      <trkpt lat="28.44352" lon="-14.03593">
        <ele>375</ele>
        <time>2021-07-05 10:22:21</time>
      </trkpt>
      <trkpt lat="28.4435" lon="-14.03593">
        <ele>375.6</ele>
        <time>2021-07-05 10:22:22</time>
      </trkpt>
      <trkpt lat="28.44347" lon="-14.03593">
        <ele>375.6</ele>
        <time>2021-07-05 10:22:23</time>
      </trkpt>
      <trkpt lat="28.44345" lon="-14.03593">
        <ele>376</ele>
        <time>2021-07-05 10:22:24</time>
      </trkpt>
      <trkpt lat="28.44343" lon="-14.03593">
        <ele>376.2</ele>
        <time>2021-07-05 10:22:25</time>
      </trkpt>
      <trkpt lat="28.4434" lon="-14.03593">
        <ele>376.6</ele>
        <time>2021-07-05 10:22:26</time>
      </trkpt>
      <trkpt lat="28.44337" lon="-14.03594">
        <ele>376.8</ele>
        <time>2021-07-05 10:22:27</time>
      </trkpt>
      <trkpt lat="28.44335" lon="-14.03595">
        <ele>377.2</ele>
        <time>2021-07-05 10:22:28</time>
      </trkpt>
      <trkpt lat="28.44333" lon="-14.03596">
        <ele>377.4</ele>
        <time>2021-07-05 10:22:29</time>
      </trkpt>
      <trkpt lat="28.44331" lon="-14.03598">
        <ele>377.8</ele>
        <time>2021-07-05 10:22:30</time>
      </trkpt>
      <trkpt lat="28.44329" lon="-14.036">
        <ele>378.2</ele>
        <time>2021-07-05 10:22:31</time>
      </trkpt>
      <trkpt lat="28.44328" lon="-14.03602">
        <ele>378.4</ele>
        <time>2021-07-05 10:22:32</time>
      </trkpt>
      <trkpt lat="28.44326" lon="-14.03604">
        <ele>378.6</ele>
        <time>2021-07-05 10:22:33</time>
      </trkpt>
      <trkpt lat="28.44324" lon="-14.03606">
        <ele>378.8</ele>
        <time>2021-07-05 10:22:34</time>
      </trkpt>
      <trkpt lat="28.44323" lon="-14.03608">
        <ele>378.8</ele>
        <time>2021-07-05 10:22:35</time>
      </trkpt>
      <trkpt lat="28.44321" lon="-14.03609">
        <ele>379.2</ele>
        <time>2021-07-05 10:22:36</time>
      </trkpt>
      <trkpt lat="28.4432" lon="-14.03611">
        <ele>379.2</ele>
        <time>2021-07-05 10:22:37</time>
      </trkpt>
      <trkpt lat="28.44318" lon="-14.03613">
        <ele>379.6</ele>
        <time>2021-07-05 10:22:38</time>
      </trkpt>
      <trkpt lat="28.44317" lon="-14.03615">
        <ele>379.6</ele>
        <time>2021-07-05 10:22:39</time>
      </trkpt>
      <trkpt lat="28.44316" lon="-14.03617">
        <ele>380</ele>
        <time>2021-07-05 10:22:40</time>
      </trkpt>
      <trkpt lat="28.44314" lon="-14.03619">
        <ele>380</ele>
        <time>2021-07-05 10:22:41</time>
      </trkpt>
      <trkpt lat="28.44313" lon="-14.03621">
        <ele>380.2</ele>
        <time>2021-07-05 10:22:42</time>
      </trkpt>
      <trkpt lat="28.44312" lon="-14.03623">
        <ele>380.2</ele>
        <time>2021-07-05 10:22:43</time>
      </trkpt>
      <trkpt lat="28.44311" lon="-14.03625">
        <ele>380.8</ele>
        <time>2021-07-05 10:22:44</time>
      </trkpt>
      <trkpt lat="28.44309" lon="-14.03627">
        <ele>380.8</ele>
        <time>2021-07-05 10:22:45</time>
      </trkpt>
      <trkpt lat="28.44308" lon="-14.03629">
        <ele>381</ele>
        <time>2021-07-05 10:22:46</time>
      </trkpt>
      <trkpt lat="28.44307" lon="-14.03631">
        <ele>381.4</ele>
        <time>2021-07-05 10:22:47</time>
      </trkpt>
      <trkpt lat="28.44306" lon="-14.03634">
        <ele>381.4</ele>
        <time>2021-07-05 10:22:48</time>
      </trkpt>
      <trkpt lat="28.44304" lon="-14.03636">
        <ele>381.6</ele>
        <time>2021-07-05 10:22:49</time>
      </trkpt>
      <trkpt lat="28.44303" lon="-14.03638">
        <ele>381.6</ele>
        <time>2021-07-05 10:22:50</time>
      </trkpt>
      <trkpt lat="28.44302" lon="-14.0364">
        <ele>382</ele>
        <time>2021-07-05 10:22:51</time>
      </trkpt>
      <trkpt lat="28.443" lon="-14.03642">
        <ele>382</ele>
        <time>2021-07-05 10:22:52</time>
      </trkpt>
      <trkpt lat="28.44299" lon="-14.03644">
        <ele>382.4</ele>
        <time>2021-07-05 10:22:53</time>
      </trkpt>
      <trkpt lat="28.44298" lon="-14.03646">
        <ele>382.6</ele>
        <time>2021-07-05 10:22:54</time>
      </trkpt>
      <trkpt lat="28.44297" lon="-14.03648">
        <ele>382.6</ele>
        <time>2021-07-05 10:22:55</time>
      </trkpt>
      <trkpt lat="28.44296" lon="-14.03651">
        <ele>383.2</ele>
        <time>2021-07-05 10:22:56</time>
      </trkpt>
      <trkpt lat="28.44295" lon="-14.03653">
        <ele>383.2</ele>
        <time>2021-07-05 10:22:57</time>
      </trkpt>
      <trkpt lat="28.44295" lon="-14.03655">
        <ele>383.4</ele>
        <time>2021-07-05 10:22:58</time>
      </trkpt>
      <trkpt lat="28.44294" lon="-14.03658">
        <ele>383.4</ele>
        <time>2021-07-05 10:22:59</time>
      </trkpt>
      <trkpt lat="28.44293" lon="-14.03661">
        <ele>383.8</ele>
        <time>2021-07-05 10:23:00</time>
      </trkpt>
      <trkpt lat="28.44293" lon="-14.03663">
        <ele>383.8</ele>
        <time>2021-07-05 10:23:01</time>
      </trkpt>
      <trkpt lat="28.44292" lon="-14.03665">
        <ele>384.2</ele>
        <time>2021-07-05 10:23:02</time>
      </trkpt>
      <trkpt lat="28.44291" lon="-14.03668">
        <ele>384.4</ele>
        <time>2021-07-05 10:23:03</time>
      </trkpt>
      <trkpt lat="28.44291" lon="-14.0367">
        <ele>384.8</ele>
        <time>2021-07-05 10:23:04</time>
      </trkpt>
      <trkpt lat="28.44291" lon="-14.03672">
        <ele>384.8</ele>
        <time>2021-07-05 10:23:05</time>
      </trkpt>
      <trkpt lat="28.4429" lon="-14.03675">
        <ele>384.8</ele>
        <time>2021-07-05 10:23:06</time>
      </trkpt>
      <trkpt lat="28.4429" lon="-14.03677">
        <ele>385.2</ele>
        <time>2021-07-05 10:23:07</time>
      </trkpt>
      <trkpt lat="28.4429" lon="-14.03679">
        <ele>385.6</ele>
        <time>2021-07-05 10:23:08</time>
      </trkpt>
      <trkpt lat="28.44289" lon="-14.03682">
        <ele>386</ele>
        <time>2021-07-05 10:23:09</time>
      </trkpt>
      <trkpt lat="28.44289" lon="-14.03684">
        <ele>386</ele>
        <time>2021-07-05 10:23:10</time>
      </trkpt>
      <trkpt lat="28.44288" lon="-14.03687">
        <ele>386.4</ele>
        <time>2021-07-05 10:23:11</time>
      </trkpt>
      <trkpt lat="28.44288" lon="-14.03689">
        <ele>386.4</ele>
        <time>2021-07-05 10:23:12</time>
      </trkpt>
      <trkpt lat="28.44288" lon="-14.03692">
        <ele>386.6</ele>
        <time>2021-07-05 10:23:13</time>
      </trkpt>
      <trkpt lat="28.44288" lon="-14.03694">
        <ele>387</ele>
        <time>2021-07-05 10:23:14</time>
      </trkpt>
      <trkpt lat="28.44288" lon="-14.03697">
        <ele>387.2</ele>
        <time>2021-07-05 10:23:15</time>
      </trkpt>
      <trkpt lat="28.44288" lon="-14.03699">
        <ele>387.2</ele>
        <time>2021-07-05 10:23:16</time>
      </trkpt>
      <trkpt lat="28.44288" lon="-14.03702">
        <ele>387.6</ele>
        <time>2021-07-05 10:23:17</time>
      </trkpt>
      <trkpt lat="28.44288" lon="-14.03704">
        <ele>387.8</ele>
        <time>2021-07-05 10:23:18</time>
      </trkpt>
      <trkpt lat="28.44288" lon="-14.03707">
        <ele>388</ele>
        <time>2021-07-05 10:23:19</time>
      </trkpt>
      <trkpt lat="28.44288" lon="-14.03709">
        <ele>388.4</ele>
        <time>2021-07-05 10:23:20</time>
      </trkpt>
      <trkpt lat="28.44288" lon="-14.03711">
        <ele>388.6</ele>
        <time>2021-07-05 10:23:21</time>
      </trkpt>
      <trkpt lat="28.44288" lon="-14.03714">
        <ele>388.8</ele>
        <time>2021-07-05 10:23:22</time>
      </trkpt>
      <trkpt lat="28.44288" lon="-14.03716">
        <ele>389.2</ele>
        <time>2021-07-05 10:23:23</time>
      </trkpt>
      <trkpt lat="28.44289" lon="-14.03719">
        <ele>389.2</ele>
        <time>2021-07-05 10:23:24</time>
      </trkpt>
      <trkpt lat="28.44289" lon="-14.03722">
        <ele>389.6</ele>
        <time>2021-07-05 10:23:25</time>
      </trkpt>
      <trkpt lat="28.44289" lon="-14.03724">
        <ele>389.6</ele>
        <time>2021-07-05 10:23:26</time>
      </trkpt>
      <trkpt lat="28.44289" lon="-14.03727">
        <ele>389.8</ele>
        <time>2021-07-05 10:23:27</time>
      </trkpt>
      <trkpt lat="28.44289" lon="-14.03729">
        <ele>389.8</ele>
        <time>2021-07-05 10:23:28</time>
      </trkpt>
      <trkpt lat="28.4429" lon="-14.03732">
        <ele>390.2</ele>
        <time>2021-07-05 10:23:29</time>
      </trkpt>
      <trkpt lat="28.4429" lon="-14.03735">
        <ele>390.2</ele>
        <time>2021-07-05 10:23:30</time>
      </trkpt>
      <trkpt lat="28.4429" lon="-14.03737">
        <ele>390.4</ele>
        <time>2021-07-05 10:23:31</time>
      </trkpt>
      <trkpt lat="28.4429" lon="-14.0374">
        <ele>390.4</ele>
        <time>2021-07-05 10:23:32</time>
      </trkpt>
      <trkpt lat="28.44291" lon="-14.03742">
        <ele>390.8</ele>
        <time>2021-07-05 10:23:33</time>
      </trkpt>
      <trkpt lat="28.44291" lon="-14.03745">
        <ele>391</ele>
        <time>2021-07-05 10:23:34</time>
      </trkpt>
      <trkpt lat="28.44292" lon="-14.03748">
        <ele>391</ele>
        <time>2021-07-05 10:23:35</time>
      </trkpt>
      <trkpt lat="28.44292" lon="-14.0375">
        <ele>391.4</ele>
        <time>2021-07-05 10:23:36</time>
      </trkpt>
      <trkpt lat="28.44293" lon="-14.03753">
        <ele>391.4</ele>
        <time>2021-07-05 10:23:37</time>
      </trkpt>
      <trkpt lat="28.44294" lon="-14.03755">
        <ele>391.8</ele>
        <time>2021-07-05 10:23:38</time>
      </trkpt>
      <trkpt lat="28.44295" lon="-14.03757">
        <ele>391.8</ele>
        <time>2021-07-05 10:23:39</time>
      </trkpt>
      <trkpt lat="28.44296" lon="-14.0376">
        <ele>392</ele>
        <time>2021-07-05 10:23:40</time>
      </trkpt>
      <trkpt lat="28.44297" lon="-14.03762">
        <ele>392</ele>
        <time>2021-07-05 10:23:41</time>
      </trkpt>
      <trkpt lat="28.44299" lon="-14.03764">
        <ele>392.4</ele>
        <time>2021-07-05 10:23:42</time>
      </trkpt>
      <trkpt lat="28.443" lon="-14.03767">
        <ele>392.4</ele>
        <time>2021-07-05 10:23:43</time>
      </trkpt>
      <trkpt lat="28.44301" lon="-14.03769">
        <ele>393</ele>
        <time>2021-07-05 10:23:44</time>
      </trkpt>
      <trkpt lat="28.44303" lon="-14.03771">
        <ele>393</ele>
        <time>2021-07-05 10:23:45</time>
      </trkpt>
      <trkpt lat="28.44304" lon="-14.03773">
        <ele>393</ele>
        <time>2021-07-05 10:23:46</time>
      </trkpt>
      <trkpt lat="28.44306" lon="-14.03775">
        <ele>393.2</ele>
        <time>2021-07-05 10:23:47</time>
      </trkpt>
      <trkpt lat="28.44308" lon="-14.03777">
        <ele>393.2</ele>
        <time>2021-07-05 10:23:48</time>
      </trkpt>
      <trkpt lat="28.44309" lon="-14.03779">
        <ele>393.6</ele>
        <time>2021-07-05 10:23:49</time>
      </trkpt>
      <trkpt lat="28.4431" lon="-14.03782">
        <ele>393.6</ele>
        <time>2021-07-05 10:23:50</time>
      </trkpt>
      <trkpt lat="28.44312" lon="-14.03784">
        <ele>394</ele>
        <time>2021-07-05 10:23:51</time>
      </trkpt>
      <trkpt lat="28.44313" lon="-14.03786">
        <ele>394.4</ele>
        <time>2021-07-05 10:23:52</time>
      </trkpt>
      <trkpt lat="28.44315" lon="-14.03788">
        <ele>394.4</ele>
        <time>2021-07-05 10:23:53</time>
      </trkpt>
      <trkpt lat="28.44316" lon="-14.0379">
        <ele>394.4</ele>
        <time>2021-07-05 10:23:54</time>
      </trkpt>
      <trkpt lat="28.44318" lon="-14.03793">
        <ele>394.6</ele>
        <time>2021-07-05 10:23:55</time>
      </trkpt>
      <trkpt lat="28.44319" lon="-14.03795">
        <ele>394.2</ele>
        <time>2021-07-05 10:23:56</time>
      </trkpt>
      <trkpt lat="28.44321" lon="-14.03797">
        <ele>394.4</ele>
        <time>2021-07-05 10:23:57</time>
      </trkpt>
      <trkpt lat="28.44322" lon="-14.03799">
        <ele>394.4</ele>
        <time>2021-07-05 10:23:58</time>
      </trkpt>
      <trkpt lat="28.44324" lon="-14.03801">
        <ele>395</ele>
        <time>2021-07-05 10:23:59</time>
      </trkpt>
      <trkpt lat="28.44325" lon="-14.03803">
        <ele>395</ele>
        <time>2021-07-05 10:24:00</time>
      </trkpt>
      <trkpt lat="28.44327" lon="-14.03805">
        <ele>395.4</ele>
        <time>2021-07-05 10:24:01</time>
      </trkpt>
      <trkpt lat="28.44328" lon="-14.03807">
        <ele>395.8</ele>
        <time>2021-07-05 10:24:02</time>
      </trkpt>
      <trkpt lat="28.44329" lon="-14.03809">
        <ele>395.2</ele>
        <time>2021-07-05 10:24:03</time>
      </trkpt>
      <trkpt lat="28.44331" lon="-14.03811">
        <ele>395.8</ele>
        <time>2021-07-05 10:24:04</time>
      </trkpt>
      <trkpt lat="28.44332" lon="-14.03813">
        <ele>396.2</ele>
        <time>2021-07-05 10:24:05</time>
      </trkpt>
      <trkpt lat="28.44333" lon="-14.03815">
        <ele>396.8</ele>
        <time>2021-07-05 10:24:06</time>
      </trkpt>
      <trkpt lat="28.44335" lon="-14.03817">
        <ele>397</ele>
        <time>2021-07-05 10:24:07</time>
      </trkpt>
      <trkpt lat="28.44336" lon="-14.03819">
        <ele>397.4</ele>
        <time>2021-07-05 10:24:08</time>
      </trkpt>
      <trkpt lat="28.44338" lon="-14.03821">
        <ele>397.4</ele>
        <time>2021-07-05 10:24:09</time>
      </trkpt>
      <trkpt lat="28.44339" lon="-14.03823">
        <ele>397.6</ele>
        <time>2021-07-05 10:24:10</time>
      </trkpt>
      <trkpt lat="28.44341" lon="-14.03825">
        <ele>398.2</ele>
        <time>2021-07-05 10:24:11</time>
      </trkpt>
      <trkpt lat="28.44342" lon="-14.03827">
        <ele>398.2</ele>
        <time>2021-07-05 10:24:12</time>
      </trkpt>
      <trkpt lat="28.44344" lon="-14.03828">
        <ele>398.4</ele>
        <time>2021-07-05 10:24:13</time>
      </trkpt>
      <trkpt lat="28.44345" lon="-14.0383">
        <ele>398.6</ele>
        <time>2021-07-05 10:24:14</time>
      </trkpt>
      <trkpt lat="28.44347" lon="-14.03832">
        <ele>399</ele>
        <time>2021-07-05 10:24:15</time>
      </trkpt>
      <trkpt lat="28.44348" lon="-14.03834">
        <ele>399</ele>
        <time>2021-07-05 10:24:16</time>
      </trkpt>
      <trkpt lat="28.4435" lon="-14.03836">
        <ele>399.2</ele>
        <time>2021-07-05 10:24:17</time>
      </trkpt>
      <trkpt lat="28.44351" lon="-14.03838">
        <ele>399.4</ele>
        <time>2021-07-05 10:24:18</time>
      </trkpt>
      <trkpt lat="28.44353" lon="-14.03839">
        <ele>400</ele>
        <time>2021-07-05 10:24:19</time>
      </trkpt>
      <trkpt lat="28.44354" lon="-14.03841">
        <ele>400</ele>
        <time>2021-07-05 10:24:20</time>
      </trkpt>
      <trkpt lat="28.44356" lon="-14.03843">
        <ele>400.2</ele>
        <time>2021-07-05 10:24:21</time>
      </trkpt>
      <trkpt lat="28.44358" lon="-14.03845">
        <ele>400.4</ele>
        <time>2021-07-05 10:24:22</time>
      </trkpt>
      <trkpt lat="28.44359" lon="-14.03847">
        <ele>400.6</ele>
        <time>2021-07-05 10:24:23</time>
      </trkpt>
      <trkpt lat="28.4436" lon="-14.03848">
        <ele>400.6</ele>
        <time>2021-07-05 10:24:24</time>
      </trkpt>
      <trkpt lat="28.44362" lon="-14.0385">
        <ele>401.2</ele>
        <time>2021-07-05 10:24:25</time>
      </trkpt>
      <trkpt lat="28.44363" lon="-14.03852">
        <ele>401.4</ele>
        <time>2021-07-05 10:24:26</time>
      </trkpt>
      <trkpt lat="28.44365" lon="-14.03853">
        <ele>401.6</ele>
        <time>2021-07-05 10:24:27</time>
      </trkpt>
      <trkpt lat="28.44366" lon="-14.03855">
        <ele>402</ele>
        <time>2021-07-05 10:24:28</time>
      </trkpt>
      <trkpt lat="28.44367" lon="-14.03857">
        <ele>402</ele>
        <time>2021-07-05 10:24:29</time>
      </trkpt>
      <trkpt lat="28.44369" lon="-14.03859">
        <ele>402.4</ele>
        <time>2021-07-05 10:24:30</time>
      </trkpt>
      <trkpt lat="28.4437" lon="-14.03862">
        <ele>402.6</ele>
        <time>2021-07-05 10:24:31</time>
      </trkpt>
      <trkpt lat="28.44371" lon="-14.03864">
        <ele>402.6</ele>
        <time>2021-07-05 10:24:32</time>
      </trkpt>
      <trkpt lat="28.44373" lon="-14.03865">
        <ele>403</ele>
        <time>2021-07-05 10:24:33</time>
      </trkpt>
      <trkpt lat="28.44374" lon="-14.03867">
        <ele>403.6</ele>
        <time>2021-07-05 10:24:34</time>
      </trkpt>
      <trkpt lat="28.44375" lon="-14.03869">
        <ele>403.6</ele>
        <time>2021-07-05 10:24:35</time>
      </trkpt>
      <trkpt lat="28.44376" lon="-14.03871">
        <ele>403.8</ele>
        <time>2021-07-05 10:24:36</time>
      </trkpt>
      <trkpt lat="28.44378" lon="-14.03873">
        <ele>403.8</ele>
        <time>2021-07-05 10:24:37</time>
      </trkpt>
      <trkpt lat="28.44379" lon="-14.03876">
        <ele>404.2</ele>
        <time>2021-07-05 10:24:38</time>
      </trkpt>
      <trkpt lat="28.4438" lon="-14.03878">
        <ele>404.6</ele>
        <time>2021-07-05 10:24:39</time>
      </trkpt>
      <trkpt lat="28.44381" lon="-14.0388">
        <ele>404.6</ele>
        <time>2021-07-05 10:24:40</time>
      </trkpt>
      <trkpt lat="28.44382" lon="-14.03882">
        <ele>404.6</ele>
        <time>2021-07-05 10:24:41</time>
      </trkpt>
      <trkpt lat="28.44383" lon="-14.03885">
        <ele>405.2</ele>
        <time>2021-07-05 10:24:42</time>
      </trkpt>
      <trkpt lat="28.44384" lon="-14.03887">
        <ele>405.6</ele>
        <time>2021-07-05 10:24:43</time>
      </trkpt>
      <trkpt lat="28.44384" lon="-14.0389">
        <ele>405.8</ele>
        <time>2021-07-05 10:24:44</time>
      </trkpt>
      <trkpt lat="28.44385" lon="-14.03892">
        <ele>405.8</ele>
        <time>2021-07-05 10:24:45</time>
      </trkpt>
      <trkpt lat="28.44386" lon="-14.03895">
        <ele>406.2</ele>
        <time>2021-07-05 10:24:46</time>
      </trkpt>
      <trkpt lat="28.44387" lon="-14.03897">
        <ele>406.4</ele>
        <time>2021-07-05 10:24:47</time>
      </trkpt>
      <trkpt lat="28.44389" lon="-14.03899">
        <ele>407</ele>
        <time>2021-07-05 10:24:48</time>
      </trkpt>
      <trkpt lat="28.4439" lon="-14.03902">
        <ele>407.4</ele>
        <time>2021-07-05 10:24:49</time>
      </trkpt>
      <trkpt lat="28.44391" lon="-14.03904">
        <ele>407.4</ele>
        <time>2021-07-05 10:24:50</time>
      </trkpt>
      <trkpt lat="28.44391" lon="-14.03907">
        <ele>408</ele>
        <time>2021-07-05 10:24:51</time>
      </trkpt>
      <trkpt lat="28.44392" lon="-14.03909">
        <ele>408</ele>
        <time>2021-07-05 10:24:52</time>
      </trkpt>
      <trkpt lat="28.44393" lon="-14.03911">
        <ele>408.4</ele>
        <time>2021-07-05 10:24:53</time>
      </trkpt>
      <trkpt lat="28.44394" lon="-14.03914">
        <ele>408.8</ele>
        <time>2021-07-05 10:24:54</time>
      </trkpt>
      <trkpt lat="28.44395" lon="-14.03916">
        <ele>409</ele>
        <time>2021-07-05 10:24:55</time>
      </trkpt>
      <trkpt lat="28.44396" lon="-14.03918">
        <ele>409.4</ele>
        <time>2021-07-05 10:24:56</time>
      </trkpt>
      <trkpt lat="28.44397" lon="-14.03921">
        <ele>409.6</ele>
        <time>2021-07-05 10:24:57</time>
      </trkpt>
      <trkpt lat="28.44398" lon="-14.03923">
        <ele>410</ele>
        <time>2021-07-05 10:24:58</time>
      </trkpt>
      <trkpt lat="28.44399" lon="-14.03925">
        <ele>410.2</ele>
        <time>2021-07-05 10:24:59</time>
      </trkpt>
      <trkpt lat="28.444" lon="-14.03928">
        <ele>410.6</ele>
        <time>2021-07-05 10:25:00</time>
      </trkpt>
      <trkpt lat="28.44401" lon="-14.0393">
        <ele>411.2</ele>
        <time>2021-07-05 10:25:01</time>
      </trkpt>
      <trkpt lat="28.44402" lon="-14.03932">
        <ele>411.6</ele>
        <time>2021-07-05 10:25:02</time>
      </trkpt>
      <trkpt lat="28.44403" lon="-14.03935">
        <ele>412.4</ele>
        <time>2021-07-05 10:25:03</time>
      </trkpt>
      <trkpt lat="28.44403" lon="-14.03937">
        <ele>413.2</ele>
        <time>2021-07-05 10:25:04</time>
      </trkpt>
      <trkpt lat="28.44404" lon="-14.03939">
        <ele>413.8</ele>
        <time>2021-07-05 10:25:05</time>
      </trkpt>
      <trkpt lat="28.44405" lon="-14.03942">
        <ele>414.2</ele>
        <time>2021-07-05 10:25:06</time>
      </trkpt>
      <trkpt lat="28.44405" lon="-14.03945">
        <ele>414.4</ele>
        <time>2021-07-05 10:25:07</time>
      </trkpt>
      <trkpt lat="28.44406" lon="-14.03947">
        <ele>414.4</ele>
        <time>2021-07-05 10:25:08</time>
      </trkpt>
      <trkpt lat="28.44406" lon="-14.0395">
        <ele>414.4</ele>
        <time>2021-07-05 10:25:09</time>
      </trkpt>
      <trkpt lat="28.44407" lon="-14.03952">
        <ele>414.4</ele>
        <time>2021-07-05 10:25:10</time>
      </trkpt>
      <trkpt lat="28.44407" lon="-14.03955">
        <ele>414.4</ele>
        <time>2021-07-05 10:25:11</time>
      </trkpt>
      <trkpt lat="28.44407" lon="-14.03958">
        <ele>414.4</ele>
        <time>2021-07-05 10:25:12</time>
      </trkpt>
      <trkpt lat="28.44408" lon="-14.0396">
        <ele>414.4</ele>
        <time>2021-07-05 10:25:13</time>
      </trkpt>
      <trkpt lat="28.44407" lon="-14.03963">
        <ele>414.4</ele>
        <time>2021-07-05 10:25:14</time>
      </trkpt>
      <trkpt lat="28.44407" lon="-14.03966">
        <ele>414.4</ele>
        <time>2021-07-05 10:25:15</time>
      </trkpt>
      <trkpt lat="28.44407" lon="-14.03969">
        <ele>414.6</ele>
        <time>2021-07-05 10:25:16</time>
      </trkpt>
      <trkpt lat="28.44407" lon="-14.03972">
        <ele>414.6</ele>
        <time>2021-07-05 10:25:17</time>
      </trkpt>
      <trkpt lat="28.44407" lon="-14.03974">
        <ele>414.6</ele>
        <time>2021-07-05 10:25:18</time>
      </trkpt>
      <trkpt lat="28.44406" lon="-14.03977">
        <ele>414.6</ele>
        <time>2021-07-05 10:25:19</time>
      </trkpt>
      <trkpt lat="28.44406" lon="-14.0398">
        <ele>415</ele>
        <time>2021-07-05 10:25:20</time>
      </trkpt>
      <trkpt lat="28.44405" lon="-14.03982">
        <ele>415</ele>
        <time>2021-07-05 10:25:21</time>
      </trkpt>
      <trkpt lat="28.44405" lon="-14.03985">
        <ele>415.2</ele>
        <time>2021-07-05 10:25:22</time>
      </trkpt>
      <trkpt lat="28.44404" lon="-14.03987">
        <ele>415.4</ele>
        <time>2021-07-05 10:25:23</time>
      </trkpt>
      <trkpt lat="28.44404" lon="-14.0399">
        <ele>415.4</ele>
        <time>2021-07-05 10:25:24</time>
      </trkpt>
      <trkpt lat="28.44404" lon="-14.03992">
        <ele>415.4</ele>
        <time>2021-07-05 10:25:25</time>
      </trkpt>
      <trkpt lat="28.44403" lon="-14.03995">
        <ele>415.4</ele>
        <time>2021-07-05 10:25:26</time>
      </trkpt>
      <trkpt lat="28.44403" lon="-14.03998">
        <ele>415.6</ele>
        <time>2021-07-05 10:25:27</time>
      </trkpt>
      <trkpt lat="28.44403" lon="-14.04">
        <ele>415.6</ele>
        <time>2021-07-05 10:25:28</time>
      </trkpt>
      <trkpt lat="28.44402" lon="-14.04003">
        <ele>416</ele>
        <time>2021-07-05 10:25:29</time>
      </trkpt>
      <trkpt lat="28.44402" lon="-14.04005">
        <ele>416.2</ele>
        <time>2021-07-05 10:25:30</time>
      </trkpt>
      <trkpt lat="28.44402" lon="-14.04008">
        <ele>416.2</ele>
        <time>2021-07-05 10:25:31</time>
      </trkpt>
      <trkpt lat="28.44401" lon="-14.0401">
        <ele>416.6</ele>
        <time>2021-07-05 10:25:32</time>
      </trkpt>
      <trkpt lat="28.44401" lon="-14.04013">
        <ele>416.8</ele>
        <time>2021-07-05 10:25:33</time>
      </trkpt>
      <trkpt lat="28.444" lon="-14.04016">
        <ele>417.4</ele>
        <time>2021-07-05 10:25:34</time>
      </trkpt>
      <trkpt lat="28.444" lon="-14.04018">
        <ele>417.4</ele>
        <time>2021-07-05 10:25:35</time>
      </trkpt>
      <trkpt lat="28.44399" lon="-14.04021">
        <ele>417.6</ele>
        <time>2021-07-05 10:25:36</time>
      </trkpt>
      <trkpt lat="28.44399" lon="-14.04023">
        <ele>417.8</ele>
        <time>2021-07-05 10:25:37</time>
      </trkpt>
      <trkpt lat="28.44399" lon="-14.04026">
        <ele>417.8</ele>
        <time>2021-07-05 10:25:38</time>
      </trkpt>
      <trkpt lat="28.44398" lon="-14.04029">
        <ele>418.2</ele>
        <time>2021-07-05 10:25:39</time>
      </trkpt>
      <trkpt lat="28.44398" lon="-14.04031">
        <ele>418.2</ele>
        <time>2021-07-05 10:25:40</time>
      </trkpt>
      <trkpt lat="28.44397" lon="-14.04034">
        <ele>418.6</ele>
        <time>2021-07-05 10:25:41</time>
      </trkpt>
      <trkpt lat="28.44397" lon="-14.04037">
        <ele>418.6</ele>
        <time>2021-07-05 10:25:42</time>
      </trkpt>
      <trkpt lat="28.44397" lon="-14.04039">
        <ele>418.8</ele>
        <time>2021-07-05 10:25:43</time>
      </trkpt>
      <trkpt lat="28.44396" lon="-14.04042">
        <ele>418.8</ele>
        <time>2021-07-05 10:25:44</time>
      </trkpt>
      <trkpt lat="28.44396" lon="-14.04044">
        <ele>419.2</ele>
        <time>2021-07-05 10:25:45</time>
      </trkpt>
      <trkpt lat="28.44395" lon="-14.04047">
        <ele>419.2</ele>
        <time>2021-07-05 10:25:46</time>
      </trkpt>
      <trkpt lat="28.44395" lon="-14.04049">
        <ele>419.4</ele>
        <time>2021-07-05 10:25:47</time>
      </trkpt>
      <trkpt lat="28.44395" lon="-14.04051">
        <ele>419.4</ele>
        <time>2021-07-05 10:25:48</time>
      </trkpt>
      <trkpt lat="28.44394" lon="-14.04054">
        <ele>419.6</ele>
        <time>2021-07-05 10:25:49</time>
      </trkpt>
      <trkpt lat="28.44394" lon="-14.04056">
        <ele>419.8</ele>
        <time>2021-07-05 10:25:50</time>
      </trkpt>
      <trkpt lat="28.44394" lon="-14.04059">
        <ele>420.2</ele>
        <time>2021-07-05 10:25:51</time>
      </trkpt>
      <trkpt lat="28.44394" lon="-14.04061">
        <ele>420.2</ele>
        <time>2021-07-05 10:25:52</time>
      </trkpt>
      <trkpt lat="28.44394" lon="-14.04064">
        <ele>420.2</ele>
        <time>2021-07-05 10:25:53</time>
      </trkpt>
      <trkpt lat="28.44393" lon="-14.04066">
        <ele>420.4</ele>
        <time>2021-07-05 10:25:54</time>
      </trkpt>
      <trkpt lat="28.44393" lon="-14.04069">
        <ele>420.4</ele>
        <time>2021-07-05 10:25:55</time>
      </trkpt>
      <trkpt lat="28.44393" lon="-14.04071">
        <ele>420.6</ele>
        <time>2021-07-05 10:25:56</time>
      </trkpt>
      <trkpt lat="28.44393" lon="-14.04074">
        <ele>421</ele>
        <time>2021-07-05 10:25:57</time>
      </trkpt>
      <trkpt lat="28.44393" lon="-14.04077">
        <ele>421</ele>
        <time>2021-07-05 10:25:58</time>
      </trkpt>
      <trkpt lat="28.44392" lon="-14.04079">
        <ele>421</ele>
        <time>2021-07-05 10:25:59</time>
      </trkpt>
      <trkpt lat="28.44392" lon="-14.04082">
        <ele>421.2</ele>
        <time>2021-07-05 10:26:00</time>
      </trkpt>
      <trkpt lat="28.44392" lon="-14.04084">
        <ele>421.2</ele>
        <time>2021-07-05 10:26:01</time>
      </trkpt>
      <trkpt lat="28.44391" lon="-14.04087">
        <ele>421.2</ele>
        <time>2021-07-05 10:26:02</time>
      </trkpt>
      <trkpt lat="28.44391" lon="-14.04089">
        <ele>421.2</ele>
        <time>2021-07-05 10:26:03</time>
      </trkpt>
      <trkpt lat="28.44391" lon="-14.04092">
        <ele>421.2</ele>
        <time>2021-07-05 10:26:04</time>
      </trkpt>
      <trkpt lat="28.44391" lon="-14.04094">
        <ele>421.2</ele>
        <time>2021-07-05 10:26:05</time>
      </trkpt>
      <trkpt lat="28.4439" lon="-14.04097">
        <ele>421.2</ele>
        <time>2021-07-05 10:26:06</time>
      </trkpt>
      <trkpt lat="28.4439" lon="-14.04099">
        <ele>421.2</ele>
        <time>2021-07-05 10:26:07</time>
      </trkpt>
      <trkpt lat="28.44389" lon="-14.04102">
        <ele>421.2</ele>
        <time>2021-07-05 10:26:08</time>
      </trkpt>
      <trkpt lat="28.44389" lon="-14.04104">
        <ele>421.2</ele>
        <time>2021-07-05 10:26:09</time>
      </trkpt>
      <trkpt lat="28.44388" lon="-14.04107">
        <ele>421.2</ele>
        <time>2021-07-05 10:26:10</time>
      </trkpt>
      <trkpt lat="28.44388" lon="-14.0411">
        <ele>421.2</ele>
        <time>2021-07-05 10:26:11</time>
      </trkpt>
      <trkpt lat="28.44387" lon="-14.04112">
        <ele>421.2</ele>
        <time>2021-07-05 10:26:12</time>
      </trkpt>
      <trkpt lat="28.44386" lon="-14.04114">
        <ele>421.2</ele>
        <time>2021-07-05 10:26:13</time>
      </trkpt>
      <trkpt lat="28.44385" lon="-14.04117">
        <ele>421.2</ele>
        <time>2021-07-05 10:26:14</time>
      </trkpt>
      <trkpt lat="28.44384" lon="-14.04119">
        <ele>421.4</ele>
        <time>2021-07-05 10:26:15</time>
      </trkpt>
      <trkpt lat="28.44383" lon="-14.04122">
        <ele>421.4</ele>
        <time>2021-07-05 10:26:16</time>
      </trkpt>
      <trkpt lat="28.44382" lon="-14.04124">
        <ele>421.4</ele>
        <time>2021-07-05 10:26:17</time>
      </trkpt>
      <trkpt lat="28.44381" lon="-14.04127">
        <ele>421.4</ele>
        <time>2021-07-05 10:26:18</time>
      </trkpt>
      <trkpt lat="28.44381" lon="-14.04129">
        <ele>421.4</ele>
        <time>2021-07-05 10:26:19</time>
      </trkpt>
      <trkpt lat="28.44379" lon="-14.04132">
        <ele>421.8</ele>
        <time>2021-07-05 10:26:20</time>
      </trkpt>
      <trkpt lat="28.44378" lon="-14.04134">
        <ele>421.8</ele>
        <time>2021-07-05 10:26:21</time>
      </trkpt>
      <trkpt lat="28.44377" lon="-14.04136">
        <ele>422</ele>
        <time>2021-07-05 10:26:22</time>
      </trkpt>
      <trkpt lat="28.44375" lon="-14.04138">
        <ele>422</ele>
        <time>2021-07-05 10:26:23</time>
      </trkpt>
      <trkpt lat="28.44374" lon="-14.04141">
        <ele>422.4</ele>
        <time>2021-07-05 10:26:24</time>
      </trkpt>
      <trkpt lat="28.44372" lon="-14.04143">
        <ele>422.4</ele>
        <time>2021-07-05 10:26:25</time>
      </trkpt>
      <trkpt lat="28.44371" lon="-14.04145">
        <ele>422.8</ele>
        <time>2021-07-05 10:26:26</time>
      </trkpt>
      <trkpt lat="28.4437" lon="-14.04147">
        <ele>423</ele>
        <time>2021-07-05 10:26:27</time>
      </trkpt>
      <trkpt lat="28.44368" lon="-14.04149">
        <ele>423.4</ele>
        <time>2021-07-05 10:26:28</time>
      </trkpt>
      <trkpt lat="28.44367" lon="-14.04152">
        <ele>423.6</ele>
        <time>2021-07-05 10:26:29</time>
      </trkpt>
      <trkpt lat="28.44365" lon="-14.04154">
        <ele>423.6</ele>
        <time>2021-07-05 10:26:30</time>
      </trkpt>
      <trkpt lat="28.44364" lon="-14.04156">
        <ele>424</ele>
        <time>2021-07-05 10:26:31</time>
      </trkpt>
      <trkpt lat="28.44363" lon="-14.04158">
        <ele>424</ele>
        <time>2021-07-05 10:26:32</time>
      </trkpt>
      <trkpt lat="28.44361" lon="-14.04161">
        <ele>424.2</ele>
        <time>2021-07-05 10:26:33</time>
      </trkpt>
      <trkpt lat="28.4436" lon="-14.04163">
        <ele>424.2</ele>
        <time>2021-07-05 10:26:34</time>
      </trkpt>
      <trkpt lat="28.44359" lon="-14.04165">
        <ele>424.4</ele>
        <time>2021-07-05 10:26:35</time>
      </trkpt>
      <trkpt lat="28.44357" lon="-14.04167">
        <ele>424.4</ele>
        <time>2021-07-05 10:26:36</time>
      </trkpt>
      <trkpt lat="28.44356" lon="-14.0417">
        <ele>425</ele>
        <time>2021-07-05 10:26:37</time>
      </trkpt>
      <trkpt lat="28.44354" lon="-14.04172">
        <ele>425</ele>
        <time>2021-07-05 10:26:38</time>
      </trkpt>
      <trkpt lat="28.44353" lon="-14.04174">
        <ele>425.4</ele>
        <time>2021-07-05 10:26:39</time>
      </trkpt>
      <trkpt lat="28.44352" lon="-14.04176">
        <ele>425.4</ele>
        <time>2021-07-05 10:26:40</time>
      </trkpt>
      <trkpt lat="28.4435" lon="-14.04179">
        <ele>425.6</ele>
        <time>2021-07-05 10:26:41</time>
      </trkpt>
      <trkpt lat="28.44349" lon="-14.04181">
        <ele>425.6</ele>
        <time>2021-07-05 10:26:42</time>
      </trkpt>
      <trkpt lat="28.44349" lon="-14.04184">
        <ele>426</ele>
        <time>2021-07-05 10:26:43</time>
      </trkpt>
      <trkpt lat="28.44348" lon="-14.04186">
        <ele>426.2</ele>
        <time>2021-07-05 10:26:44</time>
      </trkpt>
      <trkpt lat="28.44347" lon="-14.04189">
        <ele>426.2</ele>
        <time>2021-07-05 10:26:45</time>
      </trkpt>
      <trkpt lat="28.44345" lon="-14.04191">
        <ele>426.4</ele>
        <time>2021-07-05 10:26:46</time>
      </trkpt>
      <trkpt lat="28.44345" lon="-14.04193">
        <ele>426.8</ele>
        <time>2021-07-05 10:26:47</time>
      </trkpt>
      <trkpt lat="28.44344" lon="-14.04196">
        <ele>426.8</ele>
        <time>2021-07-05 10:26:48</time>
      </trkpt>
      <trkpt lat="28.44343" lon="-14.04198">
        <ele>426.8</ele>
        <time>2021-07-05 10:26:49</time>
      </trkpt>
      <trkpt lat="28.44342" lon="-14.04201">
        <ele>427.2</ele>
        <time>2021-07-05 10:26:50</time>
      </trkpt>
      <trkpt lat="28.44341" lon="-14.04204">
        <ele>427.4</ele>
        <time>2021-07-05 10:26:51</time>
      </trkpt>
      <trkpt lat="28.44341" lon="-14.04206">
        <ele>427.4</ele>
        <time>2021-07-05 10:26:52</time>
      </trkpt>
      <trkpt lat="28.4434" lon="-14.04209">
        <ele>427.4</ele>
        <time>2021-07-05 10:26:53</time>
      </trkpt>
      <trkpt lat="28.44339" lon="-14.04211">
        <ele>427.8</ele>
        <time>2021-07-05 10:26:54</time>
      </trkpt>
      <trkpt lat="28.44339" lon="-14.04214">
        <ele>427.8</ele>
        <time>2021-07-05 10:26:55</time>
      </trkpt>
      <trkpt lat="28.44339" lon="-14.04217">
        <ele>428</ele>
        <time>2021-07-05 10:26:56</time>
      </trkpt>
      <trkpt lat="28.44339" lon="-14.04219">
        <ele>428</ele>
        <time>2021-07-05 10:26:57</time>
      </trkpt>
      <trkpt lat="28.44338" lon="-14.04222">
        <ele>428</ele>
        <time>2021-07-05 10:26:58</time>
      </trkpt>
      <trkpt lat="28.44338" lon="-14.04225">
        <ele>428.4</ele>
        <time>2021-07-05 10:26:59</time>
      </trkpt>
      <trkpt lat="28.44338" lon="-14.04228">
        <ele>428.4</ele>
        <time>2021-07-05 10:27:00</time>
      </trkpt>
      <trkpt lat="28.44338" lon="-14.04231">
        <ele>428.4</ele>
        <time>2021-07-05 10:27:01</time>
      </trkpt>
      <trkpt lat="28.44338" lon="-14.04233">
        <ele>428.6</ele>
        <time>2021-07-05 10:27:02</time>
      </trkpt>
      <trkpt lat="28.44338" lon="-14.04236">
        <ele>428.6</ele>
        <time>2021-07-05 10:27:03</time>
      </trkpt>
      <trkpt lat="28.44338" lon="-14.04239">
        <ele>428.6</ele>
        <time>2021-07-05 10:27:04</time>
      </trkpt>
      <trkpt lat="28.44339" lon="-14.04241">
        <ele>428.8</ele>
        <time>2021-07-05 10:27:05</time>
      </trkpt>
      <trkpt lat="28.44339" lon="-14.04244">
        <ele>428.8</ele>
        <time>2021-07-05 10:27:06</time>
      </trkpt>
      <trkpt lat="28.44339" lon="-14.04247">
        <ele>428.8</ele>
        <time>2021-07-05 10:27:07</time>
      </trkpt>
      <trkpt lat="28.4434" lon="-14.04249">
        <ele>429</ele>
        <time>2021-07-05 10:27:08</time>
      </trkpt>
      <trkpt lat="28.4434" lon="-14.04252">
        <ele>429</ele>
        <time>2021-07-05 10:27:09</time>
      </trkpt>
      <trkpt lat="28.44341" lon="-14.04255">
        <ele>429.4</ele>
        <time>2021-07-05 10:27:10</time>
      </trkpt>
      <trkpt lat="28.44341" lon="-14.04258">
        <ele>429.4</ele>
        <time>2021-07-05 10:27:11</time>
      </trkpt>
      <trkpt lat="28.44342" lon="-14.0426">
        <ele>429.6</ele>
        <time>2021-07-05 10:27:12</time>
      </trkpt>
      <trkpt lat="28.44342" lon="-14.04263">
        <ele>429.6</ele>
        <time>2021-07-05 10:27:13</time>
      </trkpt>
      <trkpt lat="28.44343" lon="-14.04266">
        <ele>429.6</ele>
        <time>2021-07-05 10:27:14</time>
      </trkpt>
      <trkpt lat="28.44344" lon="-14.04268">
        <ele>429.8</ele>
        <time>2021-07-05 10:27:15</time>
      </trkpt>
      <trkpt lat="28.44344" lon="-14.04271">
        <ele>429.8</ele>
        <time>2021-07-05 10:27:16</time>
      </trkpt>
      <trkpt lat="28.44345" lon="-14.04273">
        <ele>429.8</ele>
        <time>2021-07-05 10:27:17</time>
      </trkpt>
      <trkpt lat="28.44346" lon="-14.04276">
        <ele>429.8</ele>
        <time>2021-07-05 10:27:18</time>
      </trkpt>
      <trkpt lat="28.44347" lon="-14.04279">
        <ele>430</ele>
        <time>2021-07-05 10:27:19</time>
      </trkpt>
      <trkpt lat="28.44349" lon="-14.04281">
        <ele>430</ele>
        <time>2021-07-05 10:27:20</time>
      </trkpt>
      <trkpt lat="28.4435" lon="-14.04283">
        <ele>430</ele>
        <time>2021-07-05 10:27:21</time>
      </trkpt>
      <trkpt lat="28.44352" lon="-14.04286">
        <ele>430</ele>
        <time>2021-07-05 10:27:22</time>
      </trkpt>
      <trkpt lat="28.44353" lon="-14.04288">
        <ele>430</ele>
        <time>2021-07-05 10:27:23</time>
      </trkpt>
      <trkpt lat="28.44355" lon="-14.0429">
        <ele>430</ele>
        <time>2021-07-05 10:27:24</time>
      </trkpt>
      <trkpt lat="28.44357" lon="-14.04293">
        <ele>430.4</ele>
        <time>2021-07-05 10:27:25</time>
      </trkpt>
      <trkpt lat="28.44359" lon="-14.04295">
        <ele>430.4</ele>
        <time>2021-07-05 10:27:26</time>
      </trkpt>
      <trkpt lat="28.44361" lon="-14.04297">
        <ele>430.4</ele>
        <time>2021-07-05 10:27:27</time>
      </trkpt>
      <trkpt lat="28.44363" lon="-14.04299">
        <ele>430.4</ele>
        <time>2021-07-05 10:27:28</time>
      </trkpt>
      <trkpt lat="28.44365" lon="-14.04301">
        <ele>430.8</ele>
        <time>2021-07-05 10:27:29</time>
      </trkpt>
      <trkpt lat="28.44366" lon="-14.04302">
        <ele>430.8</ele>
        <time>2021-07-05 10:27:30</time>
      </trkpt>
      <trkpt lat="28.44368" lon="-14.04304">
        <ele>430.8</ele>
        <time>2021-07-05 10:27:31</time>
      </trkpt>
      <trkpt lat="28.4437" lon="-14.04305">
        <ele>430.8</ele>
        <time>2021-07-05 10:27:32</time>
      </trkpt>
      <trkpt lat="28.44371" lon="-14.04307">
        <ele>431</ele>
        <time>2021-07-05 10:27:33</time>
      </trkpt>
      <trkpt lat="28.44373" lon="-14.04308">
        <ele>431</ele>
        <time>2021-07-05 10:27:34</time>
      </trkpt>
      <trkpt lat="28.44375" lon="-14.04309">
        <ele>431</ele>
        <time>2021-07-05 10:27:35</time>
      </trkpt>
      <trkpt lat="28.44376" lon="-14.0431">
        <ele>431</ele>
        <time>2021-07-05 10:27:36</time>
      </trkpt>
      <trkpt lat="28.44378" lon="-14.04311">
        <ele>431.4</ele>
        <time>2021-07-05 10:27:37</time>
      </trkpt>
      <trkpt lat="28.4438" lon="-14.04313">
        <ele>431.4</ele>
        <time>2021-07-05 10:27:38</time>
      </trkpt>
      <trkpt lat="28.44381" lon="-14.04314">
        <ele>431.6</ele>
        <time>2021-07-05 10:27:39</time>
      </trkpt>
      <trkpt lat="28.44383" lon="-14.04315">
        <ele>431.6</ele>
        <time>2021-07-05 10:27:40</time>
      </trkpt>
      <trkpt lat="28.44385" lon="-14.04316">
        <ele>432</ele>
        <time>2021-07-05 10:27:41</time>
      </trkpt>
      <trkpt lat="28.44386" lon="-14.04318">
        <ele>432</ele>
        <time>2021-07-05 10:27:42</time>
      </trkpt>
      <trkpt lat="28.44388" lon="-14.04319">
        <ele>432.4</ele>
        <time>2021-07-05 10:27:43</time>
      </trkpt>
      <trkpt lat="28.4439" lon="-14.0432">
        <ele>432.4</ele>
        <time>2021-07-05 10:27:44</time>
      </trkpt>
      <trkpt lat="28.44392" lon="-14.04321">
        <ele>432.6</ele>
        <time>2021-07-05 10:27:45</time>
      </trkpt>
      <trkpt lat="28.44393" lon="-14.04323">
        <ele>432.8</ele>
        <time>2021-07-05 10:27:46</time>
      </trkpt>
      <trkpt lat="28.44395" lon="-14.04324">
        <ele>432.8</ele>
        <time>2021-07-05 10:27:47</time>
      </trkpt>
      <trkpt lat="28.44397" lon="-14.04326">
        <ele>433.2</ele>
        <time>2021-07-05 10:27:48</time>
      </trkpt>
      <trkpt lat="28.44398" lon="-14.04327">
        <ele>433.2</ele>
        <time>2021-07-05 10:27:49</time>
      </trkpt>
      <trkpt lat="28.444" lon="-14.04328">
        <ele>433.4</ele>
        <time>2021-07-05 10:27:50</time>
      </trkpt>
      <trkpt lat="28.44402" lon="-14.0433">
        <ele>433.8</ele>
        <time>2021-07-05 10:27:51</time>
      </trkpt>
      <trkpt lat="28.44404" lon="-14.04331">
        <ele>433.8</ele>
        <time>2021-07-05 10:27:52</time>
      </trkpt>
      <trkpt lat="28.44406" lon="-14.04332">
        <ele>434</ele>
        <time>2021-07-05 10:27:53</time>
      </trkpt>
      <trkpt lat="28.44407" lon="-14.04333">
        <ele>434</ele>
        <time>2021-07-05 10:27:54</time>
      </trkpt>
      <trkpt lat="28.44409" lon="-14.04335">
        <ele>434</ele>
        <time>2021-07-05 10:27:55</time>
      </trkpt>
      <trkpt lat="28.44411" lon="-14.04336">
        <ele>434.2</ele>
        <time>2021-07-05 10:27:56</time>
      </trkpt>
      <trkpt lat="28.44413" lon="-14.04337">
        <ele>434.2</ele>
        <time>2021-07-05 10:27:57</time>
      </trkpt>
      <trkpt lat="28.44414" lon="-14.04339">
        <ele>434.6</ele>
        <time>2021-07-05 10:27:58</time>
      </trkpt>
      <trkpt lat="28.44416" lon="-14.0434">
        <ele>434.6</ele>
        <time>2021-07-05 10:27:59</time>
      </trkpt>
      <trkpt lat="28.44418" lon="-14.04342">
        <ele>434.8</ele>
        <time>2021-07-05 10:28:00</time>
      </trkpt>
      <trkpt lat="28.4442" lon="-14.04343">
        <ele>434.8</ele>
        <time>2021-07-05 10:28:01</time>
      </trkpt>
      <trkpt lat="28.44421" lon="-14.04345">
        <ele>435</ele>
        <time>2021-07-05 10:28:02</time>
      </trkpt>
      <trkpt lat="28.44423" lon="-14.04347">
        <ele>435</ele>
        <time>2021-07-05 10:28:03</time>
      </trkpt>
      <trkpt lat="28.44425" lon="-14.04348">
        <ele>435</ele>
        <time>2021-07-05 10:28:04</time>
      </trkpt>
      <trkpt lat="28.44427" lon="-14.04349">
        <ele>435.4</ele>
        <time>2021-07-05 10:28:05</time>
      </trkpt>
      <trkpt lat="28.44429" lon="-14.04351">
        <ele>435.4</ele>
        <time>2021-07-05 10:28:06</time>
      </trkpt>
      <trkpt lat="28.44431" lon="-14.04352">
        <ele>436</ele>
        <time>2021-07-05 10:28:07</time>
      </trkpt>
      <trkpt lat="28.44432" lon="-14.04354">
        <ele>436</ele>
        <time>2021-07-05 10:28:08</time>
      </trkpt>
      <trkpt lat="28.44434" lon="-14.04356">
        <ele>436.2</ele>
        <time>2021-07-05 10:28:09</time>
      </trkpt>
      <trkpt lat="28.44435" lon="-14.04357">
        <ele>436.4</ele>
        <time>2021-07-05 10:28:10</time>
      </trkpt>
      <trkpt lat="28.44437" lon="-14.04359">
        <ele>436.4</ele>
        <time>2021-07-05 10:28:11</time>
      </trkpt>
      <trkpt lat="28.44438" lon="-14.04361">
        <ele>436.8</ele>
        <time>2021-07-05 10:28:12</time>
      </trkpt>
      <trkpt lat="28.4444" lon="-14.04363">
        <ele>437.2</ele>
        <time>2021-07-05 10:28:13</time>
      </trkpt>
      <trkpt lat="28.44441" lon="-14.04365">
        <ele>437.4</ele>
        <time>2021-07-05 10:28:14</time>
      </trkpt>
      <trkpt lat="28.44442" lon="-14.04367">
        <ele>437.6</ele>
        <time>2021-07-05 10:28:15</time>
      </trkpt>
      <trkpt lat="28.44443" lon="-14.04369">
        <ele>438</ele>
        <time>2021-07-05 10:28:16</time>
      </trkpt>
      <trkpt lat="28.44444" lon="-14.04372">
        <ele>438.2</ele>
        <time>2021-07-05 10:28:17</time>
      </trkpt>
      <trkpt lat="28.44445" lon="-14.04374">
        <ele>438.8</ele>
        <time>2021-07-05 10:28:18</time>
      </trkpt>
      <trkpt lat="28.44445" lon="-14.04376">
        <ele>438.8</ele>
        <time>2021-07-05 10:28:19</time>
      </trkpt>
      <trkpt lat="28.44445" lon="-14.04379">
        <ele>439.2</ele>
        <time>2021-07-05 10:28:20</time>
      </trkpt>
      <trkpt lat="28.44446" lon="-14.04381">
        <ele>439.4</ele>
        <time>2021-07-05 10:28:21</time>
      </trkpt>
      <trkpt lat="28.44446" lon="-14.04384">
        <ele>439.8</ele>
        <time>2021-07-05 10:28:22</time>
      </trkpt>
      <trkpt lat="28.44446" lon="-14.04386">
        <ele>440</ele>
        <time>2021-07-05 10:28:23</time>
      </trkpt>
      <trkpt lat="28.44445" lon="-14.04388">
        <ele>440.4</ele>
        <time>2021-07-05 10:28:24</time>
      </trkpt>
      <trkpt lat="28.44444" lon="-14.0439">
        <ele>440.8</ele>
        <time>2021-07-05 10:28:25</time>
      </trkpt>
      <trkpt lat="28.44443" lon="-14.04392">
        <ele>441</ele>
        <time>2021-07-05 10:28:26</time>
      </trkpt>
      <trkpt lat="28.44443" lon="-14.04393">
        <ele>441.2</ele>
        <time>2021-07-05 10:28:27</time>
      </trkpt>
      <trkpt lat="28.44442" lon="-14.04394">
        <ele>441.6</ele>
        <time>2021-07-05 10:28:28</time>
      </trkpt>
      <trkpt lat="28.44442" lon="-14.04394">
        <ele>441.6</ele>
        <time>2021-07-05 10:28:29</time>
      </trkpt>
      <trkpt lat="28.44442" lon="-14.04393">
        <ele>441.6</ele>
        <time>2021-07-05 10:28:30</time>
      </trkpt>
      <trkpt lat="28.44442" lon="-14.04394">
        <ele>441.8</ele>
        <time>2021-07-05 10:29:03</time>
      </trkpt>
      <trkpt lat="28.44441" lon="-14.04395">
        <ele>441.8</ele>
        <time>2021-07-05 10:29:04</time>
      </trkpt>
      <trkpt lat="28.44439" lon="-14.04395">
        <ele>441.8</ele>
        <time>2021-07-05 10:29:05</time>
      </trkpt>
      <trkpt lat="28.44438" lon="-14.04396">
        <ele>441.6</ele>
        <time>2021-07-05 10:29:06</time>
      </trkpt>
      <trkpt lat="28.44436" lon="-14.04398">
        <ele>441.6</ele>
        <time>2021-07-05 10:29:07</time>
      </trkpt>
      <trkpt lat="28.44434" lon="-14.044">
        <ele>441.6</ele>
        <time>2021-07-05 10:29:08</time>
      </trkpt>
      <trkpt lat="28.44432" lon="-14.04401">
        <ele>441.6</ele>
        <time>2021-07-05 10:29:09</time>
      </trkpt>
      <trkpt lat="28.4443" lon="-14.04402">
        <ele>441.8</ele>
        <time>2021-07-05 10:29:10</time>
      </trkpt>
      <trkpt lat="28.44428" lon="-14.04404">
        <ele>441.8</ele>
        <time>2021-07-05 10:29:11</time>
      </trkpt>
      <trkpt lat="28.44426" lon="-14.04405">
        <ele>441.8</ele>
        <time>2021-07-05 10:29:12</time>
      </trkpt>
      <trkpt lat="28.44424" lon="-14.04406">
        <ele>442</ele>
        <time>2021-07-05 10:29:13</time>
      </trkpt>
      <trkpt lat="28.44422" lon="-14.04407">
        <ele>442</ele>
        <time>2021-07-05 10:29:14</time>
      </trkpt>
      <trkpt lat="28.4442" lon="-14.04408">
        <ele>442</ele>
        <time>2021-07-05 10:29:15</time>
      </trkpt>
      <trkpt lat="28.44417" lon="-14.04408">
        <ele>442.2</ele>
        <time>2021-07-05 10:29:16</time>
      </trkpt>
      <trkpt lat="28.44415" lon="-14.04409">
        <ele>442.2</ele>
        <time>2021-07-05 10:29:17</time>
      </trkpt>
      <trkpt lat="28.44412" lon="-14.0441">
        <ele>442.6</ele>
        <time>2021-07-05 10:29:18</time>
      </trkpt>
      <trkpt lat="28.4441" lon="-14.0441">
        <ele>442.6</ele>
        <time>2021-07-05 10:29:19</time>
      </trkpt>
      <trkpt lat="28.44408" lon="-14.04411">
        <ele>442.8</ele>
        <time>2021-07-05 10:29:20</time>
      </trkpt>
      <trkpt lat="28.44405" lon="-14.04412">
        <ele>443</ele>
        <time>2021-07-05 10:29:21</time>
      </trkpt>
      <trkpt lat="28.44403" lon="-14.04412">
        <ele>443</ele>
        <time>2021-07-05 10:29:22</time>
      </trkpt>
      <trkpt lat="28.444" lon="-14.04412">
        <ele>443</ele>
        <time>2021-07-05 10:29:23</time>
      </trkpt>
      <trkpt lat="28.44398" lon="-14.04413">
        <ele>443.4</ele>
        <time>2021-07-05 10:29:24</time>
      </trkpt>
      <trkpt lat="28.44395" lon="-14.04414">
        <ele>443.6</ele>
        <time>2021-07-05 10:29:25</time>
      </trkpt>
      <trkpt lat="28.44393" lon="-14.04414">
        <ele>443.6</ele>
        <time>2021-07-05 10:29:26</time>
      </trkpt>
      <trkpt lat="28.44391" lon="-14.04415">
        <ele>443.6</ele>
        <time>2021-07-05 10:29:27</time>
      </trkpt>
      <trkpt lat="28.44388" lon="-14.04415">
        <ele>443.8</ele>
        <time>2021-07-05 10:29:28</time>
      </trkpt>
      <trkpt lat="28.44386" lon="-14.04416">
        <ele>443.8</ele>
        <time>2021-07-05 10:29:29</time>
      </trkpt>
      <trkpt lat="28.44383" lon="-14.04417">
        <ele>444</ele>
        <time>2021-07-05 10:29:30</time>
      </trkpt>
      <trkpt lat="28.44381" lon="-14.04417">
        <ele>444</ele>
        <time>2021-07-05 10:29:31</time>
      </trkpt>
      <trkpt lat="28.44378" lon="-14.04418">
        <ele>444.4</ele>
        <time>2021-07-05 10:29:32</time>
      </trkpt>
      <trkpt lat="28.44376" lon="-14.04419">
        <ele>444.4</ele>
        <time>2021-07-05 10:29:33</time>
      </trkpt>
      <trkpt lat="28.44373" lon="-14.0442">
        <ele>444.6</ele>
        <time>2021-07-05 10:29:34</time>
      </trkpt>
      <trkpt lat="28.4437" lon="-14.04421">
        <ele>444.6</ele>
        <time>2021-07-05 10:29:35</time>
      </trkpt>
      <trkpt lat="28.44368" lon="-14.04422">
        <ele>444.8</ele>
        <time>2021-07-05 10:29:36</time>
      </trkpt>
      <trkpt lat="28.44365" lon="-14.04423">
        <ele>444.8</ele>
        <time>2021-07-05 10:29:37</time>
      </trkpt>
      <trkpt lat="28.44363" lon="-14.04424">
        <ele>445.2</ele>
        <time>2021-07-05 10:29:38</time>
      </trkpt>
      <trkpt lat="28.4436" lon="-14.04425">
        <ele>445.4</ele>
        <time>2021-07-05 10:29:39</time>
      </trkpt>
      <trkpt lat="28.44358" lon="-14.04426">
        <ele>445.4</ele>
        <time>2021-07-05 10:29:40</time>
      </trkpt>
      <trkpt lat="28.44355" lon="-14.04427">
        <ele>445.4</ele>
        <time>2021-07-05 10:29:41</time>
      </trkpt>
      <trkpt lat="28.44353" lon="-14.04428">
        <ele>446</ele>
        <time>2021-07-05 10:29:42</time>
      </trkpt>
      <trkpt lat="28.4435" lon="-14.04429">
        <ele>446</ele>
        <time>2021-07-05 10:29:43</time>
      </trkpt>
      <trkpt lat="28.4435" lon="-14.04429">
        <ele>446.2</ele>
        <time>2021-07-05 10:29:44</time>
      </trkpt>
      <trkpt lat="28.44345" lon="-14.04431">
        <ele>446.2</ele>
        <time>2021-07-05 10:29:45</time>
      </trkpt>
      <trkpt lat="28.44343" lon="-14.04432">
        <ele>446.6</ele>
        <time>2021-07-05 10:29:46</time>
      </trkpt>
      <trkpt lat="28.44341" lon="-14.04434">
        <ele>447</ele>
        <time>2021-07-05 10:29:47</time>
      </trkpt>
      <trkpt lat="28.44338" lon="-14.04435">
        <ele>447</ele>
        <time>2021-07-05 10:29:48</time>
      </trkpt>
      <trkpt lat="28.44336" lon="-14.04436">
        <ele>447.2</ele>
        <time>2021-07-05 10:29:49</time>
      </trkpt>
      <trkpt lat="28.44333" lon="-14.04438">
        <ele>447.4</ele>
        <time>2021-07-05 10:29:50</time>
      </trkpt>
      <trkpt lat="28.44331" lon="-14.04439">
        <ele>447.4</ele>
        <time>2021-07-05 10:29:51</time>
      </trkpt>
      <trkpt lat="28.44328" lon="-14.0444">
        <ele>447.4</ele>
        <time>2021-07-05 10:29:52</time>
      </trkpt>
      <trkpt lat="28.44326" lon="-14.04442">
        <ele>447.8</ele>
        <time>2021-07-05 10:29:53</time>
      </trkpt>
      <trkpt lat="28.44326" lon="-14.04442">
        <ele>448.2</ele>
        <time>2021-07-05 10:29:54</time>
      </trkpt>
      <trkpt lat="28.44321" lon="-14.04445">
        <ele>448.2</ele>
        <time>2021-07-05 10:29:55</time>
      </trkpt>
      <trkpt lat="28.44319" lon="-14.04446">
        <ele>448.4</ele>
        <time>2021-07-05 10:29:56</time>
      </trkpt>
      <trkpt lat="28.44317" lon="-14.04448">
        <ele>448.8</ele>
        <time>2021-07-05 10:29:57</time>
      </trkpt>
      <trkpt lat="28.44315" lon="-14.04449">
        <ele>448.8</ele>
        <time>2021-07-05 10:29:58</time>
      </trkpt>
      <trkpt lat="28.44312" lon="-14.04451">
        <ele>448.8</ele>
        <time>2021-07-05 10:29:59</time>
      </trkpt>
      <trkpt lat="28.4431" lon="-14.04452">
        <ele>449.2</ele>
        <time>2021-07-05 10:30:00</time>
      </trkpt>
      <trkpt lat="28.44308" lon="-14.04454">
        <ele>449.2</ele>
        <time>2021-07-05 10:30:01</time>
      </trkpt>
      <trkpt lat="28.44306" lon="-14.04455">
        <ele>449.6</ele>
        <time>2021-07-05 10:30:02</time>
      </trkpt>
      <trkpt lat="28.44304" lon="-14.04457">
        <ele>449.8</ele>
        <time>2021-07-05 10:30:03</time>
      </trkpt>
      <trkpt lat="28.44302" lon="-14.04459">
        <ele>450</ele>
        <time>2021-07-05 10:30:04</time>
      </trkpt>
      <trkpt lat="28.443" lon="-14.04461">
        <ele>450.2</ele>
        <time>2021-07-05 10:30:05</time>
      </trkpt>
      <trkpt lat="28.44298" lon="-14.04463">
        <ele>450.6</ele>
        <time>2021-07-05 10:30:06</time>
      </trkpt>
      <trkpt lat="28.44296" lon="-14.04465">
        <ele>450.8</ele>
        <time>2021-07-05 10:30:07</time>
      </trkpt>
      <trkpt lat="28.44295" lon="-14.04467">
        <ele>451.4</ele>
        <time>2021-07-05 10:30:08</time>
      </trkpt>
      <trkpt lat="28.44293" lon="-14.04469">
        <ele>451.4</ele>
        <time>2021-07-05 10:30:09</time>
      </trkpt>
      <trkpt lat="28.44292" lon="-14.04471">
        <ele>451.8</ele>
        <time>2021-07-05 10:30:10</time>
      </trkpt>
      <trkpt lat="28.4429" lon="-14.04473">
        <ele>451.8</ele>
        <time>2021-07-05 10:30:11</time>
      </trkpt>
      <trkpt lat="28.44288" lon="-14.04475">
        <ele>452.2</ele>
        <time>2021-07-05 10:30:12</time>
      </trkpt>
      <trkpt lat="28.44287" lon="-14.04476">
        <ele>452.6</ele>
        <time>2021-07-05 10:30:13</time>
      </trkpt>
      <trkpt lat="28.44285" lon="-14.04478">
        <ele>452.6</ele>
        <time>2021-07-05 10:30:14</time>
      </trkpt>
      <trkpt lat="28.44283" lon="-14.0448">
        <ele>452.6</ele>
        <time>2021-07-05 10:30:15</time>
      </trkpt>
      <trkpt lat="28.44282" lon="-14.04482">
        <ele>453</ele>
        <time>2021-07-05 10:30:16</time>
      </trkpt>
      <trkpt lat="28.4428" lon="-14.04484">
        <ele>453</ele>
        <time>2021-07-05 10:30:17</time>
      </trkpt>
      <trkpt lat="28.44279" lon="-14.04486">
        <ele>453.4</ele>
        <time>2021-07-05 10:30:18</time>
      </trkpt>
      <trkpt lat="28.44277" lon="-14.04488">
        <ele>453.8</ele>
        <time>2021-07-05 10:30:19</time>
      </trkpt>
      <trkpt lat="28.44276" lon="-14.0449">
        <ele>453.8</ele>
        <time>2021-07-05 10:30:20</time>
      </trkpt>
      <trkpt lat="28.44274" lon="-14.04492">
        <ele>453.8</ele>
        <time>2021-07-05 10:30:21</time>
      </trkpt>
      <trkpt lat="28.44273" lon="-14.04493">
        <ele>454</ele>
        <time>2021-07-05 10:30:22</time>
      </trkpt>
      <trkpt lat="28.44271" lon="-14.04495">
        <ele>454.4</ele>
        <time>2021-07-05 10:30:23</time>
      </trkpt>
      <trkpt lat="28.44269" lon="-14.04497">
        <ele>454.4</ele>
        <time>2021-07-05 10:30:24</time>
      </trkpt>
      <trkpt lat="28.44268" lon="-14.04499">
        <ele>454.6</ele>
        <time>2021-07-05 10:30:25</time>
      </trkpt>
      <trkpt lat="28.44266" lon="-14.045">
        <ele>454.8</ele>
        <time>2021-07-05 10:30:26</time>
      </trkpt>
      <trkpt lat="28.44265" lon="-14.04502">
        <ele>454.8</ele>
        <time>2021-07-05 10:30:27</time>
      </trkpt>
      <trkpt lat="28.44263" lon="-14.04504">
        <ele>455.2</ele>
        <time>2021-07-05 10:30:28</time>
      </trkpt>
      <trkpt lat="28.44262" lon="-14.04506">
        <ele>455.2</ele>
        <time>2021-07-05 10:30:29</time>
      </trkpt>
      <trkpt lat="28.4426" lon="-14.04507">
        <ele>455.6</ele>
        <time>2021-07-05 10:30:30</time>
      </trkpt>
      <trkpt lat="28.44258" lon="-14.04509">
        <ele>456</ele>
        <time>2021-07-05 10:30:31</time>
      </trkpt>
      <trkpt lat="28.44257" lon="-14.04511">
        <ele>456</ele>
        <time>2021-07-05 10:30:32</time>
      </trkpt>
      <trkpt lat="28.44255" lon="-14.04513">
        <ele>456</ele>
        <time>2021-07-05 10:30:33</time>
      </trkpt>
      <trkpt lat="28.44253" lon="-14.04515">
        <ele>456.4</ele>
        <time>2021-07-05 10:30:34</time>
      </trkpt>
      <trkpt lat="28.44251" lon="-14.04517">
        <ele>456.4</ele>
        <time>2021-07-05 10:30:35</time>
      </trkpt>
      <trkpt lat="28.44249" lon="-14.04518">
        <ele>456.8</ele>
        <time>2021-07-05 10:30:36</time>
      </trkpt>
      <trkpt lat="28.44247" lon="-14.0452">
        <ele>457</ele>
        <time>2021-07-05 10:30:37</time>
      </trkpt>
      <trkpt lat="28.44245" lon="-14.04521">
        <ele>457</ele>
        <time>2021-07-05 10:30:38</time>
      </trkpt>
      <trkpt lat="28.44243" lon="-14.04523">
        <ele>457</ele>
        <time>2021-07-05 10:30:39</time>
      </trkpt>
      <trkpt lat="28.44241" lon="-14.04524">
        <ele>457.2</ele>
        <time>2021-07-05 10:30:40</time>
      </trkpt>
      <trkpt lat="28.44239" lon="-14.04525">
        <ele>457.2</ele>
        <time>2021-07-05 10:30:41</time>
      </trkpt>
      <trkpt lat="28.44236" lon="-14.04527">
        <ele>457.4</ele>
        <time>2021-07-05 10:30:42</time>
      </trkpt>
      <trkpt lat="28.44234" lon="-14.04528">
        <ele>457.8</ele>
        <time>2021-07-05 10:30:43</time>
      </trkpt>
      <trkpt lat="28.44232" lon="-14.04529">
        <ele>457.8</ele>
        <time>2021-07-05 10:30:44</time>
      </trkpt>
      <trkpt lat="28.44229" lon="-14.04531">
        <ele>457.8</ele>
        <time>2021-07-05 10:30:45</time>
      </trkpt>
      <trkpt lat="28.44227" lon="-14.04532">
        <ele>458</ele>
        <time>2021-07-05 10:30:46</time>
      </trkpt>
      <trkpt lat="28.44225" lon="-14.04534">
        <ele>458</ele>
        <time>2021-07-05 10:30:47</time>
      </trkpt>
      <trkpt lat="28.44223" lon="-14.04535">
        <ele>458.4</ele>
        <time>2021-07-05 10:30:48</time>
      </trkpt>
      <trkpt lat="28.44221" lon="-14.04537">
        <ele>458.6</ele>
        <time>2021-07-05 10:30:49</time>
      </trkpt>
      <trkpt lat="28.44219" lon="-14.04538">
        <ele>458.6</ele>
        <time>2021-07-05 10:30:50</time>
      </trkpt>
      <trkpt lat="28.44216" lon="-14.0454">
        <ele>458.8</ele>
        <time>2021-07-05 10:30:51</time>
      </trkpt>
      <trkpt lat="28.44214" lon="-14.04542">
        <ele>459.2</ele>
        <time>2021-07-05 10:30:52</time>
      </trkpt>
      <trkpt lat="28.44212" lon="-14.04543">
        <ele>459.2</ele>
        <time>2021-07-05 10:30:53</time>
      </trkpt>
      <trkpt lat="28.4421" lon="-14.04545">
        <ele>459.2</ele>
        <time>2021-07-05 10:30:54</time>
      </trkpt>
      <trkpt lat="28.44208" lon="-14.04546">
        <ele>459.6</ele>
        <time>2021-07-05 10:30:55</time>
      </trkpt>
      <trkpt lat="28.44206" lon="-14.04548">
        <ele>459.8</ele>
        <time>2021-07-05 10:30:56</time>
      </trkpt>
      <trkpt lat="28.44204" lon="-14.04549">
        <ele>460</ele>
        <time>2021-07-05 10:30:57</time>
      </trkpt>
      <trkpt lat="28.44202" lon="-14.04551">
        <ele>460.4</ele>
        <time>2021-07-05 10:30:58</time>
      </trkpt>
      <trkpt lat="28.442" lon="-14.04553">
        <ele>460.4</ele>
        <time>2021-07-05 10:30:59</time>
      </trkpt>
      <trkpt lat="28.44198" lon="-14.04555">
        <ele>461</ele>
        <time>2021-07-05 10:31:00</time>
      </trkpt>
      <trkpt lat="28.44196" lon="-14.04556">
        <ele>461</ele>
        <time>2021-07-05 10:31:01</time>
      </trkpt>
      <trkpt lat="28.44194" lon="-14.04558">
        <ele>461.4</ele>
        <time>2021-07-05 10:31:02</time>
      </trkpt>
      <trkpt lat="28.44192" lon="-14.0456">
        <ele>461.4</ele>
        <time>2021-07-05 10:31:03</time>
      </trkpt>
      <trkpt lat="28.4419" lon="-14.04562">
        <ele>461.8</ele>
        <time>2021-07-05 10:31:04</time>
      </trkpt>
      <trkpt lat="28.44189" lon="-14.04564">
        <ele>461.8</ele>
        <time>2021-07-05 10:31:05</time>
      </trkpt>
      <trkpt lat="28.44187" lon="-14.04566">
        <ele>462.4</ele>
        <time>2021-07-05 10:31:06</time>
      </trkpt>
      <trkpt lat="28.44186" lon="-14.04568">
        <ele>462.6</ele>
        <time>2021-07-05 10:31:07</time>
      </trkpt>
      <trkpt lat="28.44184" lon="-14.0457">
        <ele>462.6</ele>
        <time>2021-07-05 10:31:08</time>
      </trkpt>
      <trkpt lat="28.44182" lon="-14.04572">
        <ele>462.8</ele>
        <time>2021-07-05 10:31:09</time>
      </trkpt>
      <trkpt lat="28.4418" lon="-14.04574">
        <ele>463.2</ele>
        <time>2021-07-05 10:31:10</time>
      </trkpt>
      <trkpt lat="28.44179" lon="-14.04576">
        <ele>463.2</ele>
        <time>2021-07-05 10:31:11</time>
      </trkpt>
      <trkpt lat="28.44177" lon="-14.04578">
        <ele>463.4</ele>
        <time>2021-07-05 10:31:12</time>
      </trkpt>
      <trkpt lat="28.44176" lon="-14.0458">
        <ele>463.8</ele>
        <time>2021-07-05 10:31:13</time>
      </trkpt>
      <trkpt lat="28.44174" lon="-14.04581">
        <ele>464</ele>
        <time>2021-07-05 10:31:14</time>
      </trkpt>
      <trkpt lat="28.44173" lon="-14.04583">
        <ele>464</ele>
        <time>2021-07-05 10:31:15</time>
      </trkpt>
      <trkpt lat="28.44171" lon="-14.04585">
        <ele>464.4</ele>
        <time>2021-07-05 10:31:16</time>
      </trkpt>
      <trkpt lat="28.44169" lon="-14.04586">
        <ele>464.4</ele>
        <time>2021-07-05 10:31:17</time>
      </trkpt>
      <trkpt lat="28.44168" lon="-14.04588">
        <ele>464.6</ele>
        <time>2021-07-05 10:31:18</time>
      </trkpt>
      <trkpt lat="28.44166" lon="-14.04589">
        <ele>464.6</ele>
        <time>2021-07-05 10:31:19</time>
      </trkpt>
      <trkpt lat="28.44164" lon="-14.0459">
        <ele>464.6</ele>
        <time>2021-07-05 10:31:20</time>
      </trkpt>
      <trkpt lat="28.44163" lon="-14.04592">
        <ele>464.8</ele>
        <time>2021-07-05 10:31:21</time>
      </trkpt>
      <trkpt lat="28.44161" lon="-14.04593">
        <ele>464.8</ele>
        <time>2021-07-05 10:31:22</time>
      </trkpt>
      <trkpt lat="28.44159" lon="-14.04595">
        <ele>465.2</ele>
        <time>2021-07-05 10:31:23</time>
      </trkpt>
      <trkpt lat="28.44158" lon="-14.04596">
        <ele>465.4</ele>
        <time>2021-07-05 10:31:24</time>
      </trkpt>
      <trkpt lat="28.44156" lon="-14.04598">
        <ele>465.8</ele>
        <time>2021-07-05 10:31:25</time>
      </trkpt>
      <trkpt lat="28.44154" lon="-14.04599">
        <ele>465.8</ele>
        <time>2021-07-05 10:31:26</time>
      </trkpt>
      <trkpt lat="28.44153" lon="-14.046">
        <ele>466.2</ele>
        <time>2021-07-05 10:31:27</time>
      </trkpt>
      <trkpt lat="28.4415" lon="-14.04602">
        <ele>466.4</ele>
        <time>2021-07-05 10:31:28</time>
      </trkpt>
      <trkpt lat="28.44148" lon="-14.04603">
        <ele>466.6</ele>
        <time>2021-07-05 10:31:29</time>
      </trkpt>
      <trkpt lat="28.44147" lon="-14.04604">
        <ele>466.8</ele>
        <time>2021-07-05 10:31:30</time>
      </trkpt>
      <trkpt lat="28.44145" lon="-14.04606">
        <ele>467.2</ele>
        <time>2021-07-05 10:31:31</time>
      </trkpt>
      <trkpt lat="28.44143" lon="-14.04607">
        <ele>467.2</ele>
        <time>2021-07-05 10:31:32</time>
      </trkpt>
      <trkpt lat="28.44141" lon="-14.04608">
        <ele>467.4</ele>
        <time>2021-07-05 10:31:33</time>
      </trkpt>
      <trkpt lat="28.44139" lon="-14.0461">
        <ele>467.8</ele>
        <time>2021-07-05 10:31:34</time>
      </trkpt>
      <trkpt lat="28.44137" lon="-14.04611">
        <ele>468.2</ele>
        <time>2021-07-05 10:31:35</time>
      </trkpt>
      <trkpt lat="28.44136" lon="-14.04612">
        <ele>468.2</ele>
        <time>2021-07-05 10:31:36</time>
      </trkpt>
      <trkpt lat="28.44134" lon="-14.04613">
        <ele>468.8</ele>
        <time>2021-07-05 10:31:37</time>
      </trkpt>
      <trkpt lat="28.44132" lon="-14.04615">
        <ele>468.8</ele>
        <time>2021-07-05 10:31:38</time>
      </trkpt>
      <trkpt lat="28.4413" lon="-14.04616">
        <ele>469</ele>
        <time>2021-07-05 10:31:39</time>
      </trkpt>
      <trkpt lat="28.44128" lon="-14.04618">
        <ele>469.4</ele>
        <time>2021-07-05 10:31:40</time>
      </trkpt>
      <trkpt lat="28.44127" lon="-14.04619">
        <ele>469.6</ele>
        <time>2021-07-05 10:31:41</time>
      </trkpt>
      <trkpt lat="28.44125" lon="-14.04621">
        <ele>470</ele>
        <time>2021-07-05 10:31:42</time>
      </trkpt>
      <trkpt lat="28.44123" lon="-14.04622">
        <ele>470.2</ele>
        <time>2021-07-05 10:31:43</time>
      </trkpt>
      <trkpt lat="28.44122" lon="-14.04624">
        <ele>470.4</ele>
        <time>2021-07-05 10:31:44</time>
      </trkpt>
      <trkpt lat="28.4412" lon="-14.04625">
        <ele>470.4</ele>
        <time>2021-07-05 10:31:45</time>
      </trkpt>
      <trkpt lat="28.44119" lon="-14.04627">
        <ele>470.8</ele>
        <time>2021-07-05 10:31:46</time>
      </trkpt>
      <trkpt lat="28.44117" lon="-14.04628">
        <ele>470.8</ele>
        <time>2021-07-05 10:31:47</time>
      </trkpt>
      <trkpt lat="28.44115" lon="-14.04629">
        <ele>471.2</ele>
        <time>2021-07-05 10:31:48</time>
      </trkpt>
      <trkpt lat="28.44113" lon="-14.04631">
        <ele>471.4</ele>
        <time>2021-07-05 10:31:49</time>
      </trkpt>
      <trkpt lat="28.44112" lon="-14.04632">
        <ele>471.4</ele>
        <time>2021-07-05 10:31:50</time>
      </trkpt>
      <trkpt lat="28.4411" lon="-14.04634">
        <ele>471.4</ele>
        <time>2021-07-05 10:31:51</time>
      </trkpt>
      <trkpt lat="28.44109" lon="-14.04635">
        <ele>471.8</ele>
        <time>2021-07-05 10:31:52</time>
      </trkpt>
      <trkpt lat="28.44107" lon="-14.04636">
        <ele>472</ele>
        <time>2021-07-05 10:31:53</time>
      </trkpt>
      <trkpt lat="28.44105" lon="-14.04638">
        <ele>472.2</ele>
        <time>2021-07-05 10:31:54</time>
      </trkpt>
      <trkpt lat="28.44104" lon="-14.04639">
        <ele>472.2</ele>
        <time>2021-07-05 10:31:55</time>
      </trkpt>
      <trkpt lat="28.44102" lon="-14.0464">
        <ele>472.6</ele>
        <time>2021-07-05 10:31:56</time>
      </trkpt>
      <trkpt lat="28.441" lon="-14.04642">
        <ele>472.8</ele>
        <time>2021-07-05 10:31:57</time>
      </trkpt>
      <trkpt lat="28.44099" lon="-14.04643">
        <ele>473.2</ele>
        <time>2021-07-05 10:31:58</time>
      </trkpt>
      <trkpt lat="28.44097" lon="-14.04645">
        <ele>473.4</ele>
        <time>2021-07-05 10:31:59</time>
      </trkpt>
      <trkpt lat="28.44095" lon="-14.04646">
        <ele>473.8</ele>
        <time>2021-07-05 10:32:00</time>
      </trkpt>
      <trkpt lat="28.44094" lon="-14.04647">
        <ele>474</ele>
        <time>2021-07-05 10:32:01</time>
      </trkpt>
      <trkpt lat="28.44092" lon="-14.04649">
        <ele>474.2</ele>
        <time>2021-07-05 10:32:02</time>
      </trkpt>
      <trkpt lat="28.44091" lon="-14.0465">
        <ele>474.4</ele>
        <time>2021-07-05 10:32:03</time>
      </trkpt>
      <trkpt lat="28.44089" lon="-14.04652">
        <ele>474.8</ele>
        <time>2021-07-05 10:32:04</time>
      </trkpt>
      <trkpt lat="28.44088" lon="-14.04653">
        <ele>475</ele>
        <time>2021-07-05 10:32:05</time>
      </trkpt>
      <trkpt lat="28.44086" lon="-14.04655">
        <ele>475</ele>
        <time>2021-07-05 10:32:06</time>
      </trkpt>
      <trkpt lat="28.44085" lon="-14.04656">
        <ele>475</ele>
        <time>2021-07-05 10:32:07</time>
      </trkpt>
      <trkpt lat="28.44083" lon="-14.04657">
        <ele>475.4</ele>
        <time>2021-07-05 10:32:08</time>
      </trkpt>
      <trkpt lat="28.44082" lon="-14.04659">
        <ele>475.8</ele>
        <time>2021-07-05 10:32:09</time>
      </trkpt>
      <trkpt lat="28.4408" lon="-14.0466">
        <ele>475.8</ele>
        <time>2021-07-05 10:32:10</time>
      </trkpt>
      <trkpt lat="28.44079" lon="-14.04661">
        <ele>475.8</ele>
        <time>2021-07-05 10:32:11</time>
      </trkpt>
      <trkpt lat="28.44078" lon="-14.04662">
        <ele>476</ele>
        <time>2021-07-05 10:32:12</time>
      </trkpt>
      <trkpt lat="28.44076" lon="-14.04664">
        <ele>476.2</ele>
        <time>2021-07-05 10:32:13</time>
      </trkpt>
      <trkpt lat="28.44075" lon="-14.04665">
        <ele>476.2</ele>
        <time>2021-07-05 10:32:14</time>
      </trkpt>
      <trkpt lat="28.44073" lon="-14.04666">
        <ele>476.8</ele>
        <time>2021-07-05 10:32:15</time>
      </trkpt>
      <trkpt lat="28.44072" lon="-14.04668">
        <ele>476.8</ele>
        <time>2021-07-05 10:32:16</time>
      </trkpt>
      <trkpt lat="28.4407" lon="-14.04669">
        <ele>476.8</ele>
        <time>2021-07-05 10:32:17</time>
      </trkpt>
      <trkpt lat="28.44069" lon="-14.04671">
        <ele>477.2</ele>
        <time>2021-07-05 10:32:18</time>
      </trkpt>
      <trkpt lat="28.44068" lon="-14.04672">
        <ele>477.2</ele>
        <time>2021-07-05 10:32:19</time>
      </trkpt>
      <trkpt lat="28.44066" lon="-14.04674">
        <ele>477.4</ele>
        <time>2021-07-05 10:32:20</time>
      </trkpt>
      <trkpt lat="28.44065" lon="-14.04675">
        <ele>477.4</ele>
        <time>2021-07-05 10:32:21</time>
      </trkpt>
      <trkpt lat="28.44063" lon="-14.04676">
        <ele>477.8</ele>
        <time>2021-07-05 10:32:22</time>
      </trkpt>
      <trkpt lat="28.44062" lon="-14.04678">
        <ele>478.2</ele>
        <time>2021-07-05 10:32:23</time>
      </trkpt>
      <trkpt lat="28.44061" lon="-14.04679">
        <ele>478.4</ele>
        <time>2021-07-05 10:32:24</time>
      </trkpt>
      <trkpt lat="28.44059" lon="-14.0468">
        <ele>478.6</ele>
        <time>2021-07-05 10:32:25</time>
      </trkpt>
      <trkpt lat="28.44058" lon="-14.04682">
        <ele>478.6</ele>
        <time>2021-07-05 10:32:26</time>
      </trkpt>
      <trkpt lat="28.44056" lon="-14.04683">
        <ele>479</ele>
        <time>2021-07-05 10:32:27</time>
      </trkpt>
      <trkpt lat="28.44055" lon="-14.04684">
        <ele>479</ele>
        <time>2021-07-05 10:32:28</time>
      </trkpt>
      <trkpt lat="28.44054" lon="-14.04686">
        <ele>479.4</ele>
        <time>2021-07-05 10:32:29</time>
      </trkpt>
      <trkpt lat="28.44052" lon="-14.04687">
        <ele>479.4</ele>
        <time>2021-07-05 10:32:30</time>
      </trkpt>
      <trkpt lat="28.44051" lon="-14.04688">
        <ele>479.6</ele>
        <time>2021-07-05 10:32:31</time>
      </trkpt>
      <trkpt lat="28.44049" lon="-14.04689">
        <ele>479.8</ele>
        <time>2021-07-05 10:32:32</time>
      </trkpt>
      <trkpt lat="28.44048" lon="-14.04691">
        <ele>480.2</ele>
        <time>2021-07-05 10:32:33</time>
      </trkpt>
      <trkpt lat="28.44047" lon="-14.04692">
        <ele>480.4</ele>
        <time>2021-07-05 10:32:34</time>
      </trkpt>
      <trkpt lat="28.44045" lon="-14.04693">
        <ele>480.4</ele>
        <time>2021-07-05 10:32:35</time>
      </trkpt>
      <trkpt lat="28.44044" lon="-14.04695">
        <ele>480.8</ele>
        <time>2021-07-05 10:32:36</time>
      </trkpt>
      <trkpt lat="28.44042" lon="-14.04696">
        <ele>480.8</ele>
        <time>2021-07-05 10:32:37</time>
      </trkpt>
      <trkpt lat="28.44041" lon="-14.04698">
        <ele>481.2</ele>
        <time>2021-07-05 10:32:38</time>
      </trkpt>
      <trkpt lat="28.44039" lon="-14.04699">
        <ele>481.2</ele>
        <time>2021-07-05 10:32:39</time>
      </trkpt>
      <trkpt lat="28.44038" lon="-14.047">
        <ele>481.4</ele>
        <time>2021-07-05 10:32:40</time>
      </trkpt>
      <trkpt lat="28.44036" lon="-14.04702">
        <ele>481.4</ele>
        <time>2021-07-05 10:32:41</time>
      </trkpt>
      <trkpt lat="28.44035" lon="-14.04703">
        <ele>481.8</ele>
        <time>2021-07-05 10:32:42</time>
      </trkpt>
      <trkpt lat="28.44034" lon="-14.04705">
        <ele>482.2</ele>
        <time>2021-07-05 10:32:43</time>
      </trkpt>
      <trkpt lat="28.44032" lon="-14.04706">
        <ele>482.2</ele>
        <time>2021-07-05 10:32:44</time>
      </trkpt>
      <trkpt lat="28.44031" lon="-14.04707">
        <ele>482.6</ele>
        <time>2021-07-05 10:32:45</time>
      </trkpt>
      <trkpt lat="28.4403" lon="-14.04709">
        <ele>482.6</ele>
        <time>2021-07-05 10:32:46</time>
      </trkpt>
      <trkpt lat="28.44028" lon="-14.0471">
        <ele>482.8</ele>
        <time>2021-07-05 10:32:47</time>
      </trkpt>
      <trkpt lat="28.44027" lon="-14.04712">
        <ele>482.8</ele>
        <time>2021-07-05 10:32:48</time>
      </trkpt>
      <trkpt lat="28.44026" lon="-14.04713">
        <ele>483.2</ele>
        <time>2021-07-05 10:32:49</time>
      </trkpt>
      <trkpt lat="28.44024" lon="-14.04715">
        <ele>483.6</ele>
        <time>2021-07-05 10:32:50</time>
      </trkpt>
      <trkpt lat="28.44023" lon="-14.04716">
        <ele>483.6</ele>
        <time>2021-07-05 10:32:51</time>
      </trkpt>
      <trkpt lat="28.44022" lon="-14.04718">
        <ele>484.2</ele>
        <time>2021-07-05 10:32:52</time>
      </trkpt>
      <trkpt lat="28.44021" lon="-14.0472">
        <ele>484.2</ele>
        <time>2021-07-05 10:32:53</time>
      </trkpt>
      <trkpt lat="28.44019" lon="-14.04722">
        <ele>484.8</ele>
        <time>2021-07-05 10:32:54</time>
      </trkpt>
      <trkpt lat="28.44018" lon="-14.04723">
        <ele>485</ele>
        <time>2021-07-05 10:32:55</time>
      </trkpt>
      <trkpt lat="28.44017" lon="-14.04725">
        <ele>485</ele>
        <time>2021-07-05 10:32:56</time>
      </trkpt>
      <trkpt lat="28.44016" lon="-14.04727">
        <ele>485.4</ele>
        <time>2021-07-05 10:32:57</time>
      </trkpt>
      <trkpt lat="28.44015" lon="-14.04729">
        <ele>485.6</ele>
        <time>2021-07-05 10:32:58</time>
      </trkpt>
      <trkpt lat="28.44015" lon="-14.04732">
        <ele>485.8</ele>
        <time>2021-07-05 10:32:59</time>
      </trkpt>
      <trkpt lat="28.44014" lon="-14.04734">
        <ele>486</ele>
        <time>2021-07-05 10:33:00</time>
      </trkpt>
      <trkpt lat="28.44014" lon="-14.04737">
        <ele>486.2</ele>
        <time>2021-07-05 10:33:01</time>
      </trkpt>
      <trkpt lat="28.44014" lon="-14.04739">
        <ele>486.6</ele>
        <time>2021-07-05 10:33:02</time>
      </trkpt>
      <trkpt lat="28.44015" lon="-14.04742">
        <ele>486.8</ele>
        <time>2021-07-05 10:33:03</time>
      </trkpt>
      <trkpt lat="28.44016" lon="-14.04745">
        <ele>487</ele>
        <time>2021-07-05 10:33:04</time>
      </trkpt>
      <trkpt lat="28.44017" lon="-14.04747">
        <ele>487</ele>
        <time>2021-07-05 10:33:05</time>
      </trkpt>
      <trkpt lat="28.44019" lon="-14.0475">
        <ele>487.4</ele>
        <time>2021-07-05 10:33:06</time>
      </trkpt>
      <trkpt lat="28.4402" lon="-14.04752">
        <ele>487.6</ele>
        <time>2021-07-05 10:33:07</time>
      </trkpt>
      <trkpt lat="28.44022" lon="-14.04754">
        <ele>487.6</ele>
        <time>2021-07-05 10:33:08</time>
      </trkpt>
      <trkpt lat="28.44024" lon="-14.04757">
        <ele>487.8</ele>
        <time>2021-07-05 10:33:09</time>
      </trkpt>
      <trkpt lat="28.44026" lon="-14.04759">
        <ele>487.8</ele>
        <time>2021-07-05 10:33:10</time>
      </trkpt>
      <trkpt lat="28.44028" lon="-14.04761">
        <ele>488.2</ele>
        <time>2021-07-05 10:33:11</time>
      </trkpt>
      <trkpt lat="28.4403" lon="-14.04763">
        <ele>488.2</ele>
        <time>2021-07-05 10:33:12</time>
      </trkpt>
      <trkpt lat="28.44033" lon="-14.04765">
        <ele>488.2</ele>
        <time>2021-07-05 10:33:13</time>
      </trkpt>
      <trkpt lat="28.44036" lon="-14.04767">
        <ele>488.4</ele>
        <time>2021-07-05 10:33:14</time>
      </trkpt>
      <trkpt lat="28.44039" lon="-14.04769">
        <ele>488.4</ele>
        <time>2021-07-05 10:33:15</time>
      </trkpt>
      <trkpt lat="28.44042" lon="-14.04771">
        <ele>488.4</ele>
        <time>2021-07-05 10:33:16</time>
      </trkpt>
      <trkpt lat="28.44045" lon="-14.04774">
        <ele>488.4</ele>
        <time>2021-07-05 10:33:17</time>
      </trkpt>
      <trkpt lat="28.44048" lon="-14.04776">
        <ele>488.4</ele>
        <time>2021-07-05 10:33:18</time>
      </trkpt>
      <trkpt lat="28.44051" lon="-14.04778">
        <ele>488.6</ele>
        <time>2021-07-05 10:33:19</time>
      </trkpt>
      <trkpt lat="28.44054" lon="-14.0478">
        <ele>488.8</ele>
        <time>2021-07-05 10:33:20</time>
      </trkpt>
      <trkpt lat="28.44057" lon="-14.04783">
        <ele>488.8</ele>
        <time>2021-07-05 10:33:21</time>
      </trkpt>
      <trkpt lat="28.4406" lon="-14.04785">
        <ele>488.8</ele>
        <time>2021-07-05 10:33:22</time>
      </trkpt>
      <trkpt lat="28.44063" lon="-14.04787">
        <ele>489</ele>
        <time>2021-07-05 10:33:23</time>
      </trkpt>
      <trkpt lat="28.44067" lon="-14.0479">
        <ele>489</ele>
        <time>2021-07-05 10:33:24</time>
      </trkpt>
      <trkpt lat="28.4407" lon="-14.04792">
        <ele>489</ele>
        <time>2021-07-05 10:33:25</time>
      </trkpt>
      <trkpt lat="28.44073" lon="-14.04793">
        <ele>489.2</ele>
        <time>2021-07-05 10:33:26</time>
      </trkpt>
      <trkpt lat="28.44076" lon="-14.04795">
        <ele>489.2</ele>
        <time>2021-07-05 10:33:27</time>
      </trkpt>
      <trkpt lat="28.44079" lon="-14.04796">
        <ele>489.4</ele>
        <time>2021-07-05 10:33:28</time>
      </trkpt>
      <trkpt lat="28.44082" lon="-14.04797">
        <ele>489.4</ele>
        <time>2021-07-05 10:33:29</time>
      </trkpt>
      <trkpt lat="28.44085" lon="-14.04798">
        <ele>489.4</ele>
        <time>2021-07-05 10:33:30</time>
      </trkpt>
      <trkpt lat="28.44088" lon="-14.04799">
        <ele>489.4</ele>
        <time>2021-07-05 10:33:31</time>
      </trkpt>
      <trkpt lat="28.44091" lon="-14.04801">
        <ele>489.8</ele>
        <time>2021-07-05 10:33:32</time>
      </trkpt>
      <trkpt lat="28.44094" lon="-14.04801">
        <ele>489.8</ele>
        <time>2021-07-05 10:33:33</time>
      </trkpt>
      <trkpt lat="28.44097" lon="-14.04802">
        <ele>490</ele>
        <time>2021-07-05 10:33:34</time>
      </trkpt>
      <trkpt lat="28.441" lon="-14.04803">
        <ele>490</ele>
        <time>2021-07-05 10:33:35</time>
      </trkpt>
      <trkpt lat="28.44103" lon="-14.04804">
        <ele>490.2</ele>
        <time>2021-07-05 10:33:36</time>
      </trkpt>
      <trkpt lat="28.44106" lon="-14.04805">
        <ele>490.2</ele>
        <time>2021-07-05 10:33:37</time>
      </trkpt>
      <trkpt lat="28.44109" lon="-14.04806">
        <ele>490.6</ele>
        <time>2021-07-05 10:33:38</time>
      </trkpt>
      <trkpt lat="28.44111" lon="-14.04807">
        <ele>491.2</ele>
        <time>2021-07-05 10:33:39</time>
      </trkpt>
      <trkpt lat="28.44114" lon="-14.04808">
        <ele>491.4</ele>
        <time>2021-07-05 10:33:40</time>
      </trkpt>
      <trkpt lat="28.44116" lon="-14.04809">
        <ele>491.8</ele>
        <time>2021-07-05 10:33:41</time>
      </trkpt>
      <trkpt lat="28.44119" lon="-14.04809">
        <ele>491.8</ele>
        <time>2021-07-05 10:33:42</time>
      </trkpt>
      <trkpt lat="28.44122" lon="-14.0481">
        <ele>492</ele>
        <time>2021-07-05 10:33:43</time>
      </trkpt>
      <trkpt lat="28.44125" lon="-14.04811">
        <ele>492.2</ele>
        <time>2021-07-05 10:33:44</time>
      </trkpt>
      <trkpt lat="28.44127" lon="-14.04812">
        <ele>492.2</ele>
        <time>2021-07-05 10:33:45</time>
      </trkpt>
      <trkpt lat="28.44129" lon="-14.04812">
        <ele>492.6</ele>
        <time>2021-07-05 10:33:46</time>
      </trkpt>
      <trkpt lat="28.44132" lon="-14.04813">
        <ele>493</ele>
        <time>2021-07-05 10:33:47</time>
      </trkpt>
      <trkpt lat="28.44134" lon="-14.04814">
        <ele>493</ele>
        <time>2021-07-05 10:33:48</time>
      </trkpt>
      <trkpt lat="28.44137" lon="-14.04815">
        <ele>493</ele>
        <time>2021-07-05 10:33:49</time>
      </trkpt>
      <trkpt lat="28.44139" lon="-14.04816">
        <ele>493.4</ele>
        <time>2021-07-05 10:33:50</time>
      </trkpt>
      <trkpt lat="28.44142" lon="-14.04817">
        <ele>493.4</ele>
        <time>2021-07-05 10:33:51</time>
      </trkpt>
      <trkpt lat="28.44144" lon="-14.04818">
        <ele>493.8</ele>
        <time>2021-07-05 10:33:52</time>
      </trkpt>
      <trkpt lat="28.44147" lon="-14.04819">
        <ele>494</ele>
        <time>2021-07-05 10:33:53</time>
      </trkpt>
      <trkpt lat="28.44149" lon="-14.0482">
        <ele>494.2</ele>
        <time>2021-07-05 10:33:54</time>
      </trkpt>
      <trkpt lat="28.44151" lon="-14.04821">
        <ele>494.4</ele>
        <time>2021-07-05 10:33:55</time>
      </trkpt>
      <trkpt lat="28.44153" lon="-14.04822">
        <ele>494.4</ele>
        <time>2021-07-05 10:33:56</time>
      </trkpt>
      <trkpt lat="28.44155" lon="-14.04823">
        <ele>494.6</ele>
        <time>2021-07-05 10:33:57</time>
      </trkpt>
      <trkpt lat="28.44158" lon="-14.04824">
        <ele>494.6</ele>
        <time>2021-07-05 10:33:58</time>
      </trkpt>
      <trkpt lat="28.4416" lon="-14.04826">
        <ele>495</ele>
        <time>2021-07-05 10:33:59</time>
      </trkpt>
      <trkpt lat="28.44162" lon="-14.04827">
        <ele>495</ele>
        <time>2021-07-05 10:34:00</time>
      </trkpt>
      <trkpt lat="28.44164" lon="-14.04829">
        <ele>495.4</ele>
        <time>2021-07-05 10:34:01</time>
      </trkpt>
      <trkpt lat="28.44166" lon="-14.0483">
        <ele>495.4</ele>
        <time>2021-07-05 10:34:02</time>
      </trkpt>
      <trkpt lat="28.44168" lon="-14.04832">
        <ele>495.6</ele>
        <time>2021-07-05 10:34:03</time>
      </trkpt>
      <trkpt lat="28.4417" lon="-14.04833">
        <ele>495.8</ele>
        <time>2021-07-05 10:34:04</time>
      </trkpt>
      <trkpt lat="28.44172" lon="-14.04835">
        <ele>496</ele>
        <time>2021-07-05 10:34:05</time>
      </trkpt>
      <trkpt lat="28.44174" lon="-14.04836">
        <ele>496</ele>
        <time>2021-07-05 10:34:06</time>
      </trkpt>
      <trkpt lat="28.44175" lon="-14.04838">
        <ele>496.6</ele>
        <time>2021-07-05 10:34:07</time>
      </trkpt>
      <trkpt lat="28.44177" lon="-14.04839">
        <ele>496.6</ele>
        <time>2021-07-05 10:34:08</time>
      </trkpt>
      <trkpt lat="28.44179" lon="-14.04841">
        <ele>497</ele>
        <time>2021-07-05 10:34:09</time>
      </trkpt>
      <trkpt lat="28.44181" lon="-14.04842">
        <ele>497</ele>
        <time>2021-07-05 10:34:10</time>
      </trkpt>
      <trkpt lat="28.44183" lon="-14.04844">
        <ele>497.4</ele>
        <time>2021-07-05 10:34:11</time>
      </trkpt>
      <trkpt lat="28.44185" lon="-14.04845">
        <ele>497.4</ele>
        <time>2021-07-05 10:34:12</time>
      </trkpt>
      <trkpt lat="28.44186" lon="-14.04847">
        <ele>497.8</ele>
        <time>2021-07-05 10:34:13</time>
      </trkpt>
      <trkpt lat="28.44188" lon="-14.04848">
        <ele>498</ele>
        <time>2021-07-05 10:34:14</time>
      </trkpt>
      <trkpt lat="28.4419" lon="-14.04849">
        <ele>498.2</ele>
        <time>2021-07-05 10:34:15</time>
      </trkpt>
      <trkpt lat="28.44192" lon="-14.0485">
        <ele>498.6</ele>
        <time>2021-07-05 10:34:16</time>
      </trkpt>
      <trkpt lat="28.44194" lon="-14.04851">
        <ele>498.8</ele>
        <time>2021-07-05 10:34:17</time>
      </trkpt>
      <trkpt lat="28.44196" lon="-14.04852">
        <ele>498.8</ele>
        <time>2021-07-05 10:34:18</time>
      </trkpt>
      <trkpt lat="28.44198" lon="-14.04854">
        <ele>499.2</ele>
        <time>2021-07-05 10:34:19</time>
      </trkpt>
      <trkpt lat="28.442" lon="-14.04856">
        <ele>499.4</ele>
        <time>2021-07-05 10:34:20</time>
      </trkpt>
      <trkpt lat="28.44202" lon="-14.04857">
        <ele>499.8</ele>
        <time>2021-07-05 10:34:21</time>
      </trkpt>
      <trkpt lat="28.44203" lon="-14.0486">
        <ele>500</ele>
        <time>2021-07-05 10:34:22</time>
      </trkpt>
      <trkpt lat="28.44205" lon="-14.04862">
        <ele>500.2</ele>
        <time>2021-07-05 10:34:23</time>
      </trkpt>
      <trkpt lat="28.44206" lon="-14.04863">
        <ele>500.2</ele>
        <time>2021-07-05 10:34:24</time>
      </trkpt>
      <trkpt lat="28.44208" lon="-14.04865">
        <ele>500.6</ele>
        <time>2021-07-05 10:34:25</time>
      </trkpt>
      <trkpt lat="28.44209" lon="-14.04867">
        <ele>501</ele>
        <time>2021-07-05 10:34:26</time>
      </trkpt>
      <trkpt lat="28.44211" lon="-14.0487">
        <ele>501.2</ele>
        <time>2021-07-05 10:34:27</time>
      </trkpt>
      <trkpt lat="28.44212" lon="-14.04873">
        <ele>501.2</ele>
        <time>2021-07-05 10:34:28</time>
      </trkpt>
      <trkpt lat="28.44213" lon="-14.04875">
        <ele>501.4</ele>
        <time>2021-07-05 10:34:29</time>
      </trkpt>
      <trkpt lat="28.44214" lon="-14.04877">
        <ele>501.4</ele>
        <time>2021-07-05 10:34:30</time>
      </trkpt>
      <trkpt lat="28.44216" lon="-14.04879">
        <ele>501.8</ele>
        <time>2021-07-05 10:34:31</time>
      </trkpt>
      <trkpt lat="28.44217" lon="-14.04881">
        <ele>502</ele>
        <time>2021-07-05 10:34:32</time>
      </trkpt>
      <trkpt lat="28.44219" lon="-14.04883">
        <ele>502.2</ele>
        <time>2021-07-05 10:34:33</time>
      </trkpt>
      <trkpt lat="28.4422" lon="-14.04885">
        <ele>502.6</ele>
        <time>2021-07-05 10:34:34</time>
      </trkpt>
      <trkpt lat="28.44221" lon="-14.04887">
        <ele>502.8</ele>
        <time>2021-07-05 10:34:35</time>
      </trkpt>
      <trkpt lat="28.44223" lon="-14.04889">
        <ele>502.8</ele>
        <time>2021-07-05 10:34:36</time>
      </trkpt>
      <trkpt lat="28.44224" lon="-14.04891">
        <ele>503</ele>
        <time>2021-07-05 10:34:37</time>
      </trkpt>
      <trkpt lat="28.44225" lon="-14.04893">
        <ele>503</ele>
        <time>2021-07-05 10:34:38</time>
      </trkpt>
      <trkpt lat="28.44226" lon="-14.04895">
        <ele>503.4</ele>
        <time>2021-07-05 10:34:39</time>
      </trkpt>
      <trkpt lat="28.44228" lon="-14.04897">
        <ele>503.8</ele>
        <time>2021-07-05 10:34:40</time>
      </trkpt>
      <trkpt lat="28.44229" lon="-14.04899">
        <ele>503.8</ele>
        <time>2021-07-05 10:34:41</time>
      </trkpt>
      <trkpt lat="28.4423" lon="-14.04901">
        <ele>504</ele>
        <time>2021-07-05 10:34:42</time>
      </trkpt>
      <trkpt lat="28.44232" lon="-14.04903">
        <ele>504.2</ele>
        <time>2021-07-05 10:34:43</time>
      </trkpt>
      <trkpt lat="28.44233" lon="-14.04905">
        <ele>504.6</ele>
        <time>2021-07-05 10:34:44</time>
      </trkpt>
      <trkpt lat="28.44234" lon="-14.04907">
        <ele>504.8</ele>
        <time>2021-07-05 10:34:45</time>
      </trkpt>
      <trkpt lat="28.44236" lon="-14.04909">
        <ele>505</ele>
        <time>2021-07-05 10:34:46</time>
      </trkpt>
      <trkpt lat="28.44237" lon="-14.04911">
        <ele>505.2</ele>
        <time>2021-07-05 10:34:47</time>
      </trkpt>
      <trkpt lat="28.44238" lon="-14.04913">
        <ele>505.4</ele>
        <time>2021-07-05 10:34:48</time>
      </trkpt>
      <trkpt lat="28.44239" lon="-14.04915">
        <ele>505.4</ele>
        <time>2021-07-05 10:34:49</time>
      </trkpt>
      <trkpt lat="28.44241" lon="-14.04917">
        <ele>505.8</ele>
        <time>2021-07-05 10:34:50</time>
      </trkpt>
      <trkpt lat="28.44242" lon="-14.04919">
        <ele>505.8</ele>
        <time>2021-07-05 10:34:51</time>
      </trkpt>
      <trkpt lat="28.44243" lon="-14.04921">
        <ele>506</ele>
        <time>2021-07-05 10:34:52</time>
      </trkpt>
      <trkpt lat="28.44244" lon="-14.04923">
        <ele>506</ele>
        <time>2021-07-05 10:34:53</time>
      </trkpt>
      <trkpt lat="28.44246" lon="-14.04924">
        <ele>506.4</ele>
        <time>2021-07-05 10:34:54</time>
      </trkpt>
      <trkpt lat="28.44247" lon="-14.04926">
        <ele>506.4</ele>
        <time>2021-07-05 10:34:55</time>
      </trkpt>
      <trkpt lat="28.44248" lon="-14.04928">
        <ele>506.8</ele>
        <time>2021-07-05 10:34:56</time>
      </trkpt>
      <trkpt lat="28.44249" lon="-14.0493">
        <ele>507</ele>
        <time>2021-07-05 10:34:57</time>
      </trkpt>
      <trkpt lat="28.4425" lon="-14.04932">
        <ele>507.2</ele>
        <time>2021-07-05 10:34:58</time>
      </trkpt>
      <trkpt lat="28.44251" lon="-14.04934">
        <ele>507.2</ele>
        <time>2021-07-05 10:34:59</time>
      </trkpt>
      <trkpt lat="28.44252" lon="-14.04936">
        <ele>507.6</ele>
        <time>2021-07-05 10:35:00</time>
      </trkpt>
      <trkpt lat="28.44253" lon="-14.04939">
        <ele>507.6</ele>
        <time>2021-07-05 10:35:01</time>
      </trkpt>
      <trkpt lat="28.44254" lon="-14.04941">
        <ele>508</ele>
        <time>2021-07-05 10:35:02</time>
      </trkpt>
      <trkpt lat="28.44254" lon="-14.04944">
        <ele>508.2</ele>
        <time>2021-07-05 10:35:03</time>
      </trkpt>
      <trkpt lat="28.44253" lon="-14.04946">
        <ele>508.8</ele>
        <time>2021-07-05 10:35:04</time>
      </trkpt>
      <trkpt lat="28.44253" lon="-14.04949">
        <ele>509</ele>
        <time>2021-07-05 10:35:05</time>
      </trkpt>
      <trkpt lat="28.44252" lon="-14.04951">
        <ele>509</ele>
        <time>2021-07-05 10:35:06</time>
      </trkpt>
      <trkpt lat="28.44251" lon="-14.04953">
        <ele>509.4</ele>
        <time>2021-07-05 10:35:07</time>
      </trkpt>
      <trkpt lat="28.4425" lon="-14.04956">
        <ele>509.6</ele>
        <time>2021-07-05 10:35:08</time>
      </trkpt>
      <trkpt lat="28.44249" lon="-14.04958">
        <ele>509.6</ele>
        <time>2021-07-05 10:35:09</time>
      </trkpt>
      <trkpt lat="28.44248" lon="-14.0496">
        <ele>509.8</ele>
        <time>2021-07-05 10:35:10</time>
      </trkpt>
      <trkpt lat="28.44246" lon="-14.04962">
        <ele>509.8</ele>
        <time>2021-07-05 10:35:11</time>
      </trkpt>
      <trkpt lat="28.44244" lon="-14.04964">
        <ele>509.8</ele>
        <time>2021-07-05 10:35:12</time>
      </trkpt>
      <trkpt lat="28.44242" lon="-14.04966">
        <ele>510</ele>
        <time>2021-07-05 10:35:13</time>
      </trkpt>
      <trkpt lat="28.44241" lon="-14.04967">
        <ele>510</ele>
        <time>2021-07-05 10:35:14</time>
      </trkpt>
      <trkpt lat="28.44239" lon="-14.04969">
        <ele>510</ele>
        <time>2021-07-05 10:35:15</time>
      </trkpt>
      <trkpt lat="28.44236" lon="-14.0497">
        <ele>510.2</ele>
        <time>2021-07-05 10:35:16</time>
      </trkpt>
      <trkpt lat="28.44234" lon="-14.04971">
        <ele>510.2</ele>
        <time>2021-07-05 10:35:17</time>
      </trkpt>
      <trkpt lat="28.44231" lon="-14.04972">
        <ele>510.6</ele>
        <time>2021-07-05 10:35:18</time>
      </trkpt>
      <trkpt lat="28.44229" lon="-14.04973">
        <ele>510.6</ele>
        <time>2021-07-05 10:35:19</time>
      </trkpt>
      <trkpt lat="28.44227" lon="-14.04973">
        <ele>510.8</ele>
        <time>2021-07-05 10:35:20</time>
      </trkpt>
      <trkpt lat="28.44224" lon="-14.04974">
        <ele>510.8</ele>
        <time>2021-07-05 10:35:21</time>
      </trkpt>
      <trkpt lat="28.44222" lon="-14.04975">
        <ele>511</ele>
        <time>2021-07-05 10:35:22</time>
      </trkpt>
      <trkpt lat="28.44219" lon="-14.04976">
        <ele>511</ele>
        <time>2021-07-05 10:35:23</time>
      </trkpt>
      <trkpt lat="28.44217" lon="-14.04977">
        <ele>511.4</ele>
        <time>2021-07-05 10:35:24</time>
      </trkpt>
      <trkpt lat="28.44214" lon="-14.04978">
        <ele>511.4</ele>
        <time>2021-07-05 10:35:25</time>
      </trkpt>
      <trkpt lat="28.44212" lon="-14.04979">
        <ele>511.6</ele>
        <time>2021-07-05 10:35:26</time>
      </trkpt>
      <trkpt lat="28.44209" lon="-14.04979">
        <ele>511.8</ele>
        <time>2021-07-05 10:35:27</time>
      </trkpt>
      <trkpt lat="28.44207" lon="-14.0498">
        <ele>511.8</ele>
        <time>2021-07-05 10:35:28</time>
      </trkpt>
      <trkpt lat="28.44204" lon="-14.04981">
        <ele>511.8</ele>
        <time>2021-07-05 10:35:29</time>
      </trkpt>
      <trkpt lat="28.44202" lon="-14.04981">
        <ele>512</ele>
        <time>2021-07-05 10:35:30</time>
      </trkpt>
      <trkpt lat="28.44199" lon="-14.04982">
        <ele>512</ele>
        <time>2021-07-05 10:35:31</time>
      </trkpt>
      <trkpt lat="28.44196" lon="-14.04983">
        <ele>512.2</ele>
        <time>2021-07-05 10:35:32</time>
      </trkpt>
      <trkpt lat="28.44194" lon="-14.04984">
        <ele>512.6</ele>
        <time>2021-07-05 10:35:33</time>
      </trkpt>
      <trkpt lat="28.44191" lon="-14.04984">
        <ele>512.6</ele>
        <time>2021-07-05 10:35:34</time>
      </trkpt>
      <trkpt lat="28.44189" lon="-14.04985">
        <ele>512.6</ele>
        <time>2021-07-05 10:35:35</time>
      </trkpt>
      <trkpt lat="28.44186" lon="-14.04986">
        <ele>513</ele>
        <time>2021-07-05 10:35:36</time>
      </trkpt>
      <trkpt lat="28.44184" lon="-14.04987">
        <ele>513</ele>
        <time>2021-07-05 10:35:37</time>
      </trkpt>
      <trkpt lat="28.44182" lon="-14.04987">
        <ele>513.4</ele>
        <time>2021-07-05 10:35:38</time>
      </trkpt>
      <trkpt lat="28.44179" lon="-14.04988">
        <ele>513.6</ele>
        <time>2021-07-05 10:35:39</time>
      </trkpt>
      <trkpt lat="28.44177" lon="-14.04989">
        <ele>513.8</ele>
        <time>2021-07-05 10:35:40</time>
      </trkpt>
      <trkpt lat="28.44174" lon="-14.0499">
        <ele>514</ele>
        <time>2021-07-05 10:35:41</time>
      </trkpt>
      <trkpt lat="28.44172" lon="-14.04991">
        <ele>514</ele>
        <time>2021-07-05 10:35:42</time>
      </trkpt>
      <trkpt lat="28.4417" lon="-14.04991">
        <ele>514</ele>
        <time>2021-07-05 10:35:43</time>
      </trkpt>
      <trkpt lat="28.44167" lon="-14.04992">
        <ele>514.4</ele>
        <time>2021-07-05 10:35:44</time>
      </trkpt>
      <trkpt lat="28.44165" lon="-14.04993">
        <ele>514.4</ele>
        <time>2021-07-05 10:35:45</time>
      </trkpt>
      <trkpt lat="28.44162" lon="-14.04994">
        <ele>514.6</ele>
        <time>2021-07-05 10:35:46</time>
      </trkpt>
      <trkpt lat="28.4416" lon="-14.04995">
        <ele>514.6</ele>
        <time>2021-07-05 10:35:47</time>
      </trkpt>
      <trkpt lat="28.44157" lon="-14.04996">
        <ele>515</ele>
        <time>2021-07-05 10:35:48</time>
      </trkpt>
      <trkpt lat="28.44155" lon="-14.04997">
        <ele>515.2</ele>
        <time>2021-07-05 10:35:49</time>
      </trkpt>
      <trkpt lat="28.44153" lon="-14.04999">
        <ele>515.2</ele>
        <time>2021-07-05 10:35:50</time>
      </trkpt>
      <trkpt lat="28.4415" lon="-14.05">
        <ele>515.4</ele>
        <time>2021-07-05 10:35:51</time>
      </trkpt>
      <trkpt lat="28.44148" lon="-14.05001">
        <ele>515.8</ele>
        <time>2021-07-05 10:35:52</time>
      </trkpt>
      <trkpt lat="28.44146" lon="-14.05002">
        <ele>515.8</ele>
        <time>2021-07-05 10:35:53</time>
      </trkpt>
      <trkpt lat="28.44144" lon="-14.05003">
        <ele>515.8</ele>
        <time>2021-07-05 10:35:54</time>
      </trkpt>
      <trkpt lat="28.44141" lon="-14.05004">
        <ele>516.2</ele>
        <time>2021-07-05 10:35:55</time>
      </trkpt>
      <trkpt lat="28.44139" lon="-14.05005">
        <ele>516.6</ele>
        <time>2021-07-05 10:35:56</time>
      </trkpt>
      <trkpt lat="28.44137" lon="-14.05006">
        <ele>516.6</ele>
        <time>2021-07-05 10:35:57</time>
      </trkpt>
      <trkpt lat="28.44135" lon="-14.05007">
        <ele>516.8</ele>
        <time>2021-07-05 10:35:58</time>
      </trkpt>
      <trkpt lat="28.44133" lon="-14.05009">
        <ele>516.8</ele>
        <time>2021-07-05 10:35:59</time>
      </trkpt>
      <trkpt lat="28.4413" lon="-14.0501">
        <ele>517.4</ele>
        <time>2021-07-05 10:36:00</time>
      </trkpt>
      <trkpt lat="28.44128" lon="-14.05012">
        <ele>517.6</ele>
        <time>2021-07-05 10:36:01</time>
      </trkpt>
      <trkpt lat="28.44126" lon="-14.05013">
        <ele>517.6</ele>
        <time>2021-07-05 10:36:02</time>
      </trkpt>
      <trkpt lat="28.44124" lon="-14.05015">
        <ele>518</ele>
        <time>2021-07-05 10:36:03</time>
      </trkpt>
      <trkpt lat="28.44122" lon="-14.05017">
        <ele>518.4</ele>
        <time>2021-07-05 10:36:04</time>
      </trkpt>
      <trkpt lat="28.4412" lon="-14.05018">
        <ele>518.4</ele>
        <time>2021-07-05 10:36:05</time>
      </trkpt>
      <trkpt lat="28.44118" lon="-14.0502">
        <ele>518.4</ele>
        <time>2021-07-05 10:36:06</time>
      </trkpt>
      <trkpt lat="28.44116" lon="-14.05022">
        <ele>518.8</ele>
        <time>2021-07-05 10:36:07</time>
      </trkpt>
      <trkpt lat="28.44114" lon="-14.05024">
        <ele>519</ele>
        <time>2021-07-05 10:36:08</time>
      </trkpt>
      <trkpt lat="28.44112" lon="-14.05025">
        <ele>519.4</ele>
        <time>2021-07-05 10:36:09</time>
      </trkpt>
      <trkpt lat="28.4411" lon="-14.05027">
        <ele>519.6</ele>
        <time>2021-07-05 10:36:10</time>
      </trkpt>
      <trkpt lat="28.44108" lon="-14.05029">
        <ele>519.8</ele>
        <time>2021-07-05 10:36:11</time>
      </trkpt>
      <trkpt lat="28.44106" lon="-14.0503">
        <ele>520.4</ele>
        <time>2021-07-05 10:36:12</time>
      </trkpt>
      <trkpt lat="28.44104" lon="-14.05032">
        <ele>520.4</ele>
        <time>2021-07-05 10:36:13</time>
      </trkpt>
      <trkpt lat="28.44102" lon="-14.05034">
        <ele>520.8</ele>
        <time>2021-07-05 10:36:14</time>
      </trkpt>
      <trkpt lat="28.441" lon="-14.05036">
        <ele>521.2</ele>
        <time>2021-07-05 10:36:15</time>
      </trkpt>
      <trkpt lat="28.44098" lon="-14.05038">
        <ele>521.2</ele>
        <time>2021-07-05 10:36:16</time>
      </trkpt>
      <trkpt lat="28.44096" lon="-14.0504">
        <ele>521.4</ele>
        <time>2021-07-05 10:36:17</time>
      </trkpt>
      <trkpt lat="28.44095" lon="-14.05042">
        <ele>521.6</ele>
        <time>2021-07-05 10:36:18</time>
      </trkpt>
      <trkpt lat="28.44093" lon="-14.05043">
        <ele>521.8</ele>
        <time>2021-07-05 10:36:19</time>
      </trkpt>
      <trkpt lat="28.44091" lon="-14.05045">
        <ele>522.2</ele>
        <time>2021-07-05 10:36:20</time>
      </trkpt>
      <trkpt lat="28.4409" lon="-14.05047">
        <ele>522.4</ele>
        <time>2021-07-05 10:36:21</time>
      </trkpt>
      <trkpt lat="28.44088" lon="-14.05048">
        <ele>522.4</ele>
        <time>2021-07-05 10:36:22</time>
      </trkpt>
      <trkpt lat="28.44086" lon="-14.0505">
        <ele>522.8</ele>
        <time>2021-07-05 10:36:23</time>
      </trkpt>
      <trkpt lat="28.44084" lon="-14.05052">
        <ele>523.2</ele>
        <time>2021-07-05 10:36:24</time>
      </trkpt>
      <trkpt lat="28.44082" lon="-14.05054">
        <ele>523.4</ele>
        <time>2021-07-05 10:36:25</time>
      </trkpt>
      <trkpt lat="28.44081" lon="-14.05055">
        <ele>523.8</ele>
        <time>2021-07-05 10:36:26</time>
      </trkpt>
      <trkpt lat="28.44079" lon="-14.05057">
        <ele>524</ele>
        <time>2021-07-05 10:36:27</time>
      </trkpt>
      <trkpt lat="28.44077" lon="-14.05058">
        <ele>524.4</ele>
        <time>2021-07-05 10:36:28</time>
      </trkpt>
      <trkpt lat="28.44076" lon="-14.0506">
        <ele>524.6</ele>
        <time>2021-07-05 10:36:29</time>
      </trkpt>
      <trkpt lat="28.44074" lon="-14.05062">
        <ele>525</ele>
        <time>2021-07-05 10:36:30</time>
      </trkpt>
      <trkpt lat="28.44072" lon="-14.05064">
        <ele>525.6</ele>
        <time>2021-07-05 10:36:31</time>
      </trkpt>
      <trkpt lat="28.44071" lon="-14.05066">
        <ele>525.6</ele>
        <time>2021-07-05 10:36:32</time>
      </trkpt>
      <trkpt lat="28.44069" lon="-14.05068">
        <ele>526</ele>
        <time>2021-07-05 10:36:33</time>
      </trkpt>
      <trkpt lat="28.44067" lon="-14.05069">
        <ele>526.2</ele>
        <time>2021-07-05 10:36:34</time>
      </trkpt>
      <trkpt lat="28.44066" lon="-14.05071">
        <ele>526.6</ele>
        <time>2021-07-05 10:36:35</time>
      </trkpt>
      <trkpt lat="28.44064" lon="-14.05073">
        <ele>526.8</ele>
        <time>2021-07-05 10:36:36</time>
      </trkpt>
      <trkpt lat="28.44063" lon="-14.05075">
        <ele>527.4</ele>
        <time>2021-07-05 10:36:37</time>
      </trkpt>
      <trkpt lat="28.44061" lon="-14.05077">
        <ele>527.4</ele>
        <time>2021-07-05 10:36:38</time>
      </trkpt>
      <trkpt lat="28.4406" lon="-14.05079">
        <ele>527.6</ele>
        <time>2021-07-05 10:36:39</time>
      </trkpt>
      <trkpt lat="28.44058" lon="-14.05081">
        <ele>528.4</ele>
        <time>2021-07-05 10:36:40</time>
      </trkpt>
      <trkpt lat="28.44057" lon="-14.05083">
        <ele>528.4</ele>
        <time>2021-07-05 10:36:41</time>
      </trkpt>
      <trkpt lat="28.44056" lon="-14.05085">
        <ele>528.8</ele>
        <time>2021-07-05 10:36:42</time>
      </trkpt>
      <trkpt lat="28.44055" lon="-14.05087">
        <ele>529.2</ele>
        <time>2021-07-05 10:36:43</time>
      </trkpt>
      <trkpt lat="28.44054" lon="-14.0509">
        <ele>529.6</ele>
        <time>2021-07-05 10:36:44</time>
      </trkpt>
      <trkpt lat="28.44054" lon="-14.05092">
        <ele>530.2</ele>
        <time>2021-07-05 10:36:45</time>
      </trkpt>
      <trkpt lat="28.44054" lon="-14.05095">
        <ele>532</ele>
        <time>2021-07-05 10:36:46</time>
      </trkpt>
      <trkpt lat="28.44055" lon="-14.05097">
        <ele>532</ele>
        <time>2021-07-05 10:36:47</time>
      </trkpt>
      <trkpt lat="28.44055" lon="-14.051">
        <ele>532</ele>
        <time>2021-07-05 10:36:48</time>
      </trkpt>
      <trkpt lat="28.44056" lon="-14.05102">
        <ele>532</ele>
        <time>2021-07-05 10:36:49</time>
      </trkpt>
      <trkpt lat="28.44056" lon="-14.05105">
        <ele>532.2</ele>
        <time>2021-07-05 10:36:50</time>
      </trkpt>
      <trkpt lat="28.44057" lon="-14.05107">
        <ele>532.4</ele>
        <time>2021-07-05 10:36:51</time>
      </trkpt>
      <trkpt lat="28.44058" lon="-14.0511">
        <ele>532.8</ele>
        <time>2021-07-05 10:36:52</time>
      </trkpt>
      <trkpt lat="28.44059" lon="-14.05112">
        <ele>533</ele>
        <time>2021-07-05 10:36:53</time>
      </trkpt>
      <trkpt lat="28.4406" lon="-14.05114">
        <ele>533.4</ele>
        <time>2021-07-05 10:36:54</time>
      </trkpt>
      <trkpt lat="28.44061" lon="-14.05117">
        <ele>533.6</ele>
        <time>2021-07-05 10:36:55</time>
      </trkpt>
      <trkpt lat="28.44061" lon="-14.05119">
        <ele>534</ele>
        <time>2021-07-05 10:36:56</time>
      </trkpt>
      <trkpt lat="28.44062" lon="-14.05122">
        <ele>534.2</ele>
        <time>2021-07-05 10:36:57</time>
      </trkpt>
      <trkpt lat="28.44063" lon="-14.05124">
        <ele>534.6</ele>
        <time>2021-07-05 10:36:58</time>
      </trkpt>
      <trkpt lat="28.44065" lon="-14.05126">
        <ele>534.6</ele>
        <time>2021-07-05 10:36:59</time>
      </trkpt>
      <trkpt lat="28.44066" lon="-14.05128">
        <ele>534.6</ele>
        <time>2021-07-05 10:37:00</time>
      </trkpt>
      <trkpt lat="28.44067" lon="-14.05131">
        <ele>535</ele>
        <time>2021-07-05 10:37:01</time>
      </trkpt>
      <trkpt lat="28.44068" lon="-14.05133">
        <ele>535</ele>
        <time>2021-07-05 10:37:02</time>
      </trkpt>
      <trkpt lat="28.44069" lon="-14.05135">
        <ele>535.4</ele>
        <time>2021-07-05 10:37:03</time>
      </trkpt>
      <trkpt lat="28.4407" lon="-14.05137">
        <ele>535.8</ele>
        <time>2021-07-05 10:37:04</time>
      </trkpt>
      <trkpt lat="28.44071" lon="-14.05139">
        <ele>536</ele>
        <time>2021-07-05 10:37:05</time>
      </trkpt>
      <trkpt lat="28.44072" lon="-14.05141">
        <ele>536</ele>
        <time>2021-07-05 10:37:06</time>
      </trkpt>
      <trkpt lat="28.44073" lon="-14.05144">
        <ele>536.2</ele>
        <time>2021-07-05 10:37:07</time>
      </trkpt>
      <trkpt lat="28.44074" lon="-14.05146">
        <ele>536.4</ele>
        <time>2021-07-05 10:37:08</time>
      </trkpt>
      <trkpt lat="28.44075" lon="-14.05148">
        <ele>536.6</ele>
        <time>2021-07-05 10:37:09</time>
      </trkpt>
      <trkpt lat="28.44076" lon="-14.0515">
        <ele>537</ele>
        <time>2021-07-05 10:37:10</time>
      </trkpt>
      <trkpt lat="28.44077" lon="-14.05152">
        <ele>537.2</ele>
        <time>2021-07-05 10:37:11</time>
      </trkpt>
      <trkpt lat="28.44078" lon="-14.05154">
        <ele>537.4</ele>
        <time>2021-07-05 10:37:12</time>
      </trkpt>
      <trkpt lat="28.4408" lon="-14.05156">
        <ele>537.8</ele>
        <time>2021-07-05 10:37:13</time>
      </trkpt>
      <trkpt lat="28.4408" lon="-14.05159">
        <ele>537.8</ele>
        <time>2021-07-05 10:37:14</time>
      </trkpt>
      <trkpt lat="28.44081" lon="-14.05161">
        <ele>538.4</ele>
        <time>2021-07-05 10:37:15</time>
      </trkpt>
      <trkpt lat="28.44082" lon="-14.05163">
        <ele>538.6</ele>
        <time>2021-07-05 10:37:16</time>
      </trkpt>
      <trkpt lat="28.44083" lon="-14.05166">
        <ele>538.8</ele>
        <time>2021-07-05 10:37:17</time>
      </trkpt>
      <trkpt lat="28.44083" lon="-14.05168">
        <ele>539.2</ele>
        <time>2021-07-05 10:37:18</time>
      </trkpt>
      <trkpt lat="28.44084" lon="-14.0517">
        <ele>539.2</ele>
        <time>2021-07-05 10:37:19</time>
      </trkpt>
      <trkpt lat="28.44084" lon="-14.05173">
        <ele>539.4</ele>
        <time>2021-07-05 10:37:20</time>
      </trkpt>
      <trkpt lat="28.44084" lon="-14.05175">
        <ele>539.6</ele>
        <time>2021-07-05 10:37:21</time>
      </trkpt>
      <trkpt lat="28.44084" lon="-14.05177">
        <ele>540.2</ele>
        <time>2021-07-05 10:37:22</time>
      </trkpt>
      <trkpt lat="28.44084" lon="-14.0518">
        <ele>540.2</ele>
        <time>2021-07-05 10:37:23</time>
      </trkpt>
      <trkpt lat="28.44083" lon="-14.05183">
        <ele>540.2</ele>
        <time>2021-07-05 10:37:24</time>
      </trkpt>
      <trkpt lat="28.44083" lon="-14.05185">
        <ele>540.6</ele>
        <time>2021-07-05 10:37:25</time>
      </trkpt>
      <trkpt lat="28.44082" lon="-14.05187">
        <ele>540.8</ele>
        <time>2021-07-05 10:37:26</time>
      </trkpt>
      <trkpt lat="28.44081" lon="-14.05189">
        <ele>541</ele>
        <time>2021-07-05 10:37:27</time>
      </trkpt>
      <trkpt lat="28.44079" lon="-14.05191">
        <ele>541</ele>
        <time>2021-07-05 10:37:28</time>
      </trkpt>
      <trkpt lat="28.44078" lon="-14.05193">
        <ele>541.4</ele>
        <time>2021-07-05 10:37:29</time>
      </trkpt>
      <trkpt lat="28.44076" lon="-14.05195">
        <ele>541.8</ele>
        <time>2021-07-05 10:37:30</time>
      </trkpt>
      <trkpt lat="28.44074" lon="-14.05197">
        <ele>541.8</ele>
        <time>2021-07-05 10:37:31</time>
      </trkpt>
      <trkpt lat="28.44073" lon="-14.05198">
        <ele>541.8</ele>
        <time>2021-07-05 10:37:32</time>
      </trkpt>
      <trkpt lat="28.44071" lon="-14.05199">
        <ele>542</ele>
        <time>2021-07-05 10:37:33</time>
      </trkpt>
      <trkpt lat="28.44069" lon="-14.05201">
        <ele>542</ele>
        <time>2021-07-05 10:37:34</time>
      </trkpt>
      <trkpt lat="28.44067" lon="-14.05202">
        <ele>542.2</ele>
        <time>2021-07-05 10:37:35</time>
      </trkpt>
      <trkpt lat="28.44066" lon="-14.05204">
        <ele>542.2</ele>
        <time>2021-07-05 10:37:36</time>
      </trkpt>
      <trkpt lat="28.44064" lon="-14.05205">
        <ele>542.6</ele>
        <time>2021-07-05 10:37:37</time>
      </trkpt>
      <trkpt lat="28.44062" lon="-14.05207">
        <ele>542.6</ele>
        <time>2021-07-05 10:37:38</time>
      </trkpt>
      <trkpt lat="28.4406" lon="-14.05209">
        <ele>542.8</ele>
        <time>2021-07-05 10:37:39</time>
      </trkpt>
      <trkpt lat="28.44059" lon="-14.05211">
        <ele>543.2</ele>
        <time>2021-07-05 10:37:40</time>
      </trkpt>
      <trkpt lat="28.44058" lon="-14.05212">
        <ele>543.2</ele>
        <time>2021-07-05 10:37:41</time>
      </trkpt>
      <trkpt lat="28.44056" lon="-14.05214">
        <ele>543.4</ele>
        <time>2021-07-05 10:37:42</time>
      </trkpt>
      <trkpt lat="28.44054" lon="-14.05216">
        <ele>543.8</ele>
        <time>2021-07-05 10:37:43</time>
      </trkpt>
      <trkpt lat="28.44053" lon="-14.05219">
        <ele>543.8</ele>
        <time>2021-07-05 10:37:44</time>
      </trkpt>
      <trkpt lat="28.44052" lon="-14.05221">
        <ele>544</ele>
        <time>2021-07-05 10:37:45</time>
      </trkpt>
      <trkpt lat="28.44051" lon="-14.05224">
        <ele>544.4</ele>
        <time>2021-07-05 10:37:46</time>
      </trkpt>
      <trkpt lat="28.4405" lon="-14.05226">
        <ele>544.6</ele>
        <time>2021-07-05 10:37:47</time>
      </trkpt>
      <trkpt lat="28.44049" lon="-14.05228">
        <ele>545</ele>
        <time>2021-07-05 10:37:48</time>
      </trkpt>
      <trkpt lat="28.44049" lon="-14.05231">
        <ele>545.2</ele>
        <time>2021-07-05 10:37:49</time>
      </trkpt>
      <trkpt lat="28.44049" lon="-14.05234">
        <ele>546</ele>
        <time>2021-07-05 10:37:50</time>
      </trkpt>
      <trkpt lat="28.44048" lon="-14.05236">
        <ele>546.4</ele>
        <time>2021-07-05 10:37:51</time>
      </trkpt>
      <trkpt lat="28.44048" lon="-14.05239">
        <ele>546.4</ele>
        <time>2021-07-05 10:37:52</time>
      </trkpt>
      <trkpt lat="28.44048" lon="-14.05241">
        <ele>547.2</ele>
        <time>2021-07-05 10:37:53</time>
      </trkpt>
      <trkpt lat="28.44047" lon="-14.05244">
        <ele>547.4</ele>
        <time>2021-07-05 10:37:54</time>
      </trkpt>
      <trkpt lat="28.44047" lon="-14.05246">
        <ele>547.4</ele>
        <time>2021-07-05 10:37:55</time>
      </trkpt>
      <trkpt lat="28.44046" lon="-14.05249">
        <ele>547.8</ele>
        <time>2021-07-05 10:37:56</time>
      </trkpt>
      <trkpt lat="28.44046" lon="-14.05251">
        <ele>548.2</ele>
        <time>2021-07-05 10:37:57</time>
      </trkpt>
      <trkpt lat="28.44045" lon="-14.05254">
        <ele>548.6</ele>
        <time>2021-07-05 10:37:58</time>
      </trkpt>
      <trkpt lat="28.44044" lon="-14.05257">
        <ele>549</ele>
        <time>2021-07-05 10:37:59</time>
      </trkpt>
      <trkpt lat="28.44044" lon="-14.05259">
        <ele>549.2</ele>
        <time>2021-07-05 10:38:00</time>
      </trkpt>
      <trkpt lat="28.44043" lon="-14.05262">
        <ele>549.8</ele>
        <time>2021-07-05 10:38:01</time>
      </trkpt>
      <trkpt lat="28.44041" lon="-14.05264">
        <ele>549.8</ele>
        <time>2021-07-05 10:38:02</time>
      </trkpt>
      <trkpt lat="28.4404" lon="-14.05267">
        <ele>550</ele>
        <time>2021-07-05 10:38:03</time>
      </trkpt>
      <trkpt lat="28.44039" lon="-14.0527">
        <ele>550.4</ele>
        <time>2021-07-05 10:38:04</time>
      </trkpt>
      <trkpt lat="28.44038" lon="-14.05272">
        <ele>550.8</ele>
        <time>2021-07-05 10:38:05</time>
      </trkpt>
      <trkpt lat="28.44037" lon="-14.05275">
        <ele>551</ele>
        <time>2021-07-05 10:38:06</time>
      </trkpt>
      <trkpt lat="28.44035" lon="-14.05277">
        <ele>551.4</ele>
        <time>2021-07-05 10:38:07</time>
      </trkpt>
      <trkpt lat="28.44034" lon="-14.0528">
        <ele>552</ele>
        <time>2021-07-05 10:38:08</time>
      </trkpt>
      <trkpt lat="28.44034" lon="-14.05283">
        <ele>552</ele>
        <time>2021-07-05 10:38:09</time>
      </trkpt>
      <trkpt lat="28.44033" lon="-14.05286">
        <ele>552.2</ele>
        <time>2021-07-05 10:38:10</time>
      </trkpt>
      <trkpt lat="28.44032" lon="-14.05289">
        <ele>552.6</ele>
        <time>2021-07-05 10:38:11</time>
      </trkpt>
      <trkpt lat="28.44031" lon="-14.05291">
        <ele>553</ele>
        <time>2021-07-05 10:38:12</time>
      </trkpt>
      <trkpt lat="28.44031" lon="-14.05294">
        <ele>553.8</ele>
        <time>2021-07-05 10:38:13</time>
      </trkpt>
      <trkpt lat="28.4403" lon="-14.05297">
        <ele>553.8</ele>
        <time>2021-07-05 10:38:14</time>
      </trkpt>
      <trkpt lat="28.4403" lon="-14.053">
        <ele>554.2</ele>
        <time>2021-07-05 10:38:15</time>
      </trkpt>
      <trkpt lat="28.4403" lon="-14.05303">
        <ele>554.6</ele>
        <time>2021-07-05 10:38:16</time>
      </trkpt>
      <trkpt lat="28.4403" lon="-14.05306">
        <ele>555</ele>
        <time>2021-07-05 10:38:17</time>
      </trkpt>
      <trkpt lat="28.4403" lon="-14.05309">
        <ele>555.4</ele>
        <time>2021-07-05 10:38:18</time>
      </trkpt>
      <trkpt lat="28.4403" lon="-14.05312">
        <ele>555.4</ele>
        <time>2021-07-05 10:38:19</time>
      </trkpt>
      <trkpt lat="28.4403" lon="-14.05315">
        <ele>555.8</ele>
        <time>2021-07-05 10:38:20</time>
      </trkpt>
      <trkpt lat="28.4403" lon="-14.05317">
        <ele>556</ele>
        <time>2021-07-05 10:38:21</time>
      </trkpt>
      <trkpt lat="28.4403" lon="-14.0532">
        <ele>557</ele>
        <time>2021-07-05 10:38:22</time>
      </trkpt>
      <trkpt lat="28.44031" lon="-14.05323">
        <ele>557</ele>
        <time>2021-07-05 10:38:23</time>
      </trkpt>
      <trkpt lat="28.44031" lon="-14.05326">
        <ele>557.4</ele>
        <time>2021-07-05 10:38:24</time>
      </trkpt>
      <trkpt lat="28.44032" lon="-14.05329">
        <ele>557.8</ele>
        <time>2021-07-05 10:38:25</time>
      </trkpt>
      <trkpt lat="28.44032" lon="-14.05332">
        <ele>558.4</ele>
        <time>2021-07-05 10:38:26</time>
      </trkpt>
      <trkpt lat="28.44033" lon="-14.05336">
        <ele>558.8</ele>
        <time>2021-07-05 10:38:27</time>
      </trkpt>
      <trkpt lat="28.44033" lon="-14.05339">
        <ele>559.2</ele>
        <time>2021-07-05 10:38:28</time>
      </trkpt>
      <trkpt lat="28.44033" lon="-14.05342">
        <ele>559.8</ele>
        <time>2021-07-05 10:38:29</time>
      </trkpt>
      <trkpt lat="28.44034" lon="-14.05345">
        <ele>560.2</ele>
        <time>2021-07-05 10:38:30</time>
      </trkpt>
      <trkpt lat="28.44034" lon="-14.05348">
        <ele>560.6</ele>
        <time>2021-07-05 10:38:31</time>
      </trkpt>
      <trkpt lat="28.44035" lon="-14.05351">
        <ele>561</ele>
        <time>2021-07-05 10:38:32</time>
      </trkpt>
      <trkpt lat="28.44035" lon="-14.05354">
        <ele>561.4</ele>
        <time>2021-07-05 10:38:33</time>
      </trkpt>
      <trkpt lat="28.44036" lon="-14.05357">
        <ele>561.6</ele>
        <time>2021-07-05 10:38:34</time>
      </trkpt>
      <trkpt lat="28.44036" lon="-14.0536">
        <ele>561.8</ele>
        <time>2021-07-05 10:38:35</time>
      </trkpt>
      <trkpt lat="28.44036" lon="-14.05362">
        <ele>562.2</ele>
        <time>2021-07-05 10:38:36</time>
      </trkpt>
      <trkpt lat="28.44036" lon="-14.05366">
        <ele>562.8</ele>
        <time>2021-07-05 10:38:37</time>
      </trkpt>
      <trkpt lat="28.44036" lon="-14.05369">
        <ele>563.2</ele>
        <time>2021-07-05 10:38:38</time>
      </trkpt>
      <trkpt lat="28.44036" lon="-14.05372">
        <ele>563.6</ele>
        <time>2021-07-05 10:38:39</time>
      </trkpt>
      <trkpt lat="28.44036" lon="-14.05375">
        <ele>564.4</ele>
        <time>2021-07-05 10:38:40</time>
      </trkpt>
      <trkpt lat="28.44036" lon="-14.05378">
        <ele>564.4</ele>
        <time>2021-07-05 10:38:41</time>
      </trkpt>
      <trkpt lat="28.44036" lon="-14.05381">
        <ele>565</ele>
        <time>2021-07-05 10:38:42</time>
      </trkpt>
      <trkpt lat="28.44036" lon="-14.05384">
        <ele>565</ele>
        <time>2021-07-05 10:38:43</time>
      </trkpt>
      <trkpt lat="28.44036" lon="-14.05387">
        <ele>565.2</ele>
        <time>2021-07-05 10:38:44</time>
      </trkpt>
      <trkpt lat="28.44036" lon="-14.0539">
        <ele>565.6</ele>
        <time>2021-07-05 10:38:45</time>
      </trkpt>
      <trkpt lat="28.44036" lon="-14.05393">
        <ele>565.8</ele>
        <time>2021-07-05 10:38:46</time>
      </trkpt>
      <trkpt lat="28.44036" lon="-14.05396">
        <ele>566.2</ele>
        <time>2021-07-05 10:38:47</time>
      </trkpt>
      <trkpt lat="28.44036" lon="-14.05399">
        <ele>566.6</ele>
        <time>2021-07-05 10:38:48</time>
      </trkpt>
      <trkpt lat="28.44035" lon="-14.05402">
        <ele>566.6</ele>
        <time>2021-07-05 10:38:49</time>
      </trkpt>
      <trkpt lat="28.44035" lon="-14.05404">
        <ele>566.8</ele>
        <time>2021-07-05 10:38:50</time>
      </trkpt>
      <trkpt lat="28.44033" lon="-14.05406">
        <ele>566.8</ele>
        <time>2021-07-05 10:38:51</time>
      </trkpt>
      <trkpt lat="28.44031" lon="-14.05408">
        <ele>567</ele>
        <time>2021-07-05 10:38:52</time>
      </trkpt>
      <trkpt lat="28.44029" lon="-14.05409">
        <ele>567</ele>
        <time>2021-07-05 10:38:53</time>
      </trkpt>
      <trkpt lat="28.44027" lon="-14.05411">
        <ele>567</ele>
        <time>2021-07-05 10:38:54</time>
      </trkpt>
      <trkpt lat="28.44025" lon="-14.05413">
        <ele>567</ele>
        <time>2021-07-05 10:38:55</time>
      </trkpt>
      <trkpt lat="28.44022" lon="-14.05414">
        <ele>567</ele>
        <time>2021-07-05 10:38:56</time>
      </trkpt>
      <trkpt lat="28.4402" lon="-14.05415">
        <ele>567.2</ele>
        <time>2021-07-05 10:38:57</time>
      </trkpt>
      <trkpt lat="28.44017" lon="-14.05416">
        <ele>567.2</ele>
        <time>2021-07-05 10:38:58</time>
      </trkpt>
      <trkpt lat="28.44015" lon="-14.05416">
        <ele>567.6</ele>
        <time>2021-07-05 10:38:59</time>
      </trkpt>
      <trkpt lat="28.44012" lon="-14.05417">
        <ele>567.6</ele>
        <time>2021-07-05 10:39:00</time>
      </trkpt>
      <trkpt lat="28.4401" lon="-14.05417">
        <ele>568</ele>
        <time>2021-07-05 10:39:01</time>
      </trkpt>
      <trkpt lat="28.44008" lon="-14.05417">
        <ele>568</ele>
        <time>2021-07-05 10:39:02</time>
      </trkpt>
      <trkpt lat="28.44006" lon="-14.05417">
        <ele>568</ele>
        <time>2021-07-05 10:39:03</time>
      </trkpt>
      <trkpt lat="28.44004" lon="-14.05416">
        <ele>568.2</ele>
        <time>2021-07-05 10:39:04</time>
      </trkpt>
      <trkpt lat="28.44002" lon="-14.05416">
        <ele>568.2</ele>
        <time>2021-07-05 10:39:05</time>
      </trkpt>
      <trkpt lat="28.44" lon="-14.05415">
        <ele>568.4</ele>
        <time>2021-07-05 10:39:06</time>
      </trkpt>
      <trkpt lat="28.43997" lon="-14.05414">
        <ele>568.4</ele>
        <time>2021-07-05 10:39:07</time>
      </trkpt>
      <trkpt lat="28.43995" lon="-14.05413">
        <ele>568.8</ele>
        <time>2021-07-05 10:39:08</time>
      </trkpt>
      <trkpt lat="28.43993" lon="-14.05413">
        <ele>569.2</ele>
        <time>2021-07-05 10:39:09</time>
      </trkpt>
      <trkpt lat="28.43991" lon="-14.05412">
        <ele>569.2</ele>
        <time>2021-07-05 10:39:10</time>
      </trkpt>
      <trkpt lat="28.43989" lon="-14.05412">
        <ele>569.2</ele>
        <time>2021-07-05 10:39:11</time>
      </trkpt>
      <trkpt lat="28.43986" lon="-14.05411">
        <ele>570</ele>
        <time>2021-07-05 10:39:12</time>
      </trkpt>
      <trkpt lat="28.43984" lon="-14.05411">
        <ele>570</ele>
        <time>2021-07-05 10:39:13</time>
      </trkpt>
      <trkpt lat="28.43982" lon="-14.0541">
        <ele>570</ele>
        <time>2021-07-05 10:39:14</time>
      </trkpt>
      <trkpt lat="28.4398" lon="-14.05409">
        <ele>570</ele>
        <time>2021-07-05 10:39:15</time>
      </trkpt>
      <trkpt lat="28.43978" lon="-14.05408">
        <ele>571.4</ele>
        <time>2021-07-05 10:39:16</time>
      </trkpt>
      <trkpt lat="28.43977" lon="-14.05407">
        <ele>572.4</ele>
        <time>2021-07-05 10:39:17</time>
      </trkpt>
      <trkpt lat="28.43975" lon="-14.05407">
        <ele>572.4</ele>
        <time>2021-07-05 10:39:18</time>
      </trkpt>
      <trkpt lat="28.43974" lon="-14.05408">
        <ele>572.8</ele>
        <time>2021-07-05 10:39:19</time>
      </trkpt>
      <trkpt lat="28.43973" lon="-14.05408">
        <ele>573</ele>
        <time>2021-07-05 10:39:20</time>
      </trkpt>
      <trkpt lat="28.43972" lon="-14.05409">
        <ele>573.8</ele>
        <time>2021-07-05 10:39:21</time>
      </trkpt>
      <trkpt lat="28.43972" lon="-14.05409">
        <ele>574.2</ele>
        <time>2021-07-05 10:39:22</time>
      </trkpt>
      <trkpt lat="28.43972" lon="-14.05409">
        <ele>575</ele>
        <time>2021-07-05 10:39:23</time>
      </trkpt>
      <trkpt lat="28.43973" lon="-14.05409">
        <ele>575.6</ele>
        <time>2021-07-05 10:39:24</time>
      </trkpt>
      <trkpt lat="28.43973" lon="-14.05412">
        <ele>575.6</ele>
        <time>2021-07-05 10:39:28</time>
      </trkpt>
      <trkpt lat="28.43974" lon="-14.05412">
        <ele>578.4</ele>
        <time>2021-07-05 10:39:29</time>
      </trkpt>
      <trkpt lat="28.43975" lon="-14.05411">
        <ele>578.4</ele>
        <time>2021-07-05 10:39:30</time>
      </trkpt>
      <trkpt lat="28.43975" lon="-14.0541">
        <ele>578.4</ele>
        <time>2021-07-05 10:39:31</time>
      </trkpt>
      <trkpt lat="28.43977" lon="-14.05408">
        <ele>577.4</ele>
        <time>2021-07-05 10:39:32</time>
      </trkpt>
      <trkpt lat="28.43979" lon="-14.05406">
        <ele>577.4</ele>
        <time>2021-07-05 10:39:33</time>
      </trkpt>
      <trkpt lat="28.43981" lon="-14.05406">
        <ele>577</ele>
        <time>2021-07-05 10:39:34</time>
      </trkpt>
      <trkpt lat="28.43984" lon="-14.05406">
        <ele>577</ele>
        <time>2021-07-05 10:39:35</time>
      </trkpt>
      <trkpt lat="28.43987" lon="-14.05406">
        <ele>576.6</ele>
        <time>2021-07-05 10:39:36</time>
      </trkpt>
      <trkpt lat="28.4399" lon="-14.05406">
        <ele>576.2</ele>
        <time>2021-07-05 10:39:37</time>
      </trkpt>
      <trkpt lat="28.43993" lon="-14.05406">
        <ele>576</ele>
        <time>2021-07-05 10:39:38</time>
      </trkpt>
      <trkpt lat="28.43996" lon="-14.05406">
        <ele>575.4</ele>
        <time>2021-07-05 10:39:39</time>
      </trkpt>
      <trkpt lat="28.43999" lon="-14.05407">
        <ele>575.4</ele>
        <time>2021-07-05 10:39:40</time>
      </trkpt>
      <trkpt lat="28.44003" lon="-14.05408">
        <ele>575.4</ele>
        <time>2021-07-05 10:39:41</time>
      </trkpt>
      <trkpt lat="28.44006" lon="-14.05408">
        <ele>574.2</ele>
        <time>2021-07-05 10:39:42</time>
      </trkpt>
      <trkpt lat="28.44011" lon="-14.05407">
        <ele>573.8</ele>
        <time>2021-07-05 10:39:43</time>
      </trkpt>
      <trkpt lat="28.44015" lon="-14.05406">
        <ele>573.8</ele>
        <time>2021-07-05 10:39:44</time>
      </trkpt>
      <trkpt lat="28.44019" lon="-14.05405">
        <ele>573.4</ele>
        <time>2021-07-05 10:39:45</time>
      </trkpt>
      <trkpt lat="28.44023" lon="-14.05405">
        <ele>573</ele>
        <time>2021-07-05 10:39:46</time>
      </trkpt>
      <trkpt lat="28.44027" lon="-14.05404">
        <ele>572.6</ele>
        <time>2021-07-05 10:39:47</time>
      </trkpt>
      <trkpt lat="28.4403" lon="-14.05405">
        <ele>572</ele>
        <time>2021-07-05 10:39:48</time>
      </trkpt>
      <trkpt lat="28.44033" lon="-14.05406">
        <ele>571</ele>
        <time>2021-07-05 10:39:49</time>
      </trkpt>
      <trkpt lat="28.44036" lon="-14.05408">
        <ele>570.6</ele>
        <time>2021-07-05 10:39:50</time>
      </trkpt>
      <trkpt lat="28.44039" lon="-14.0541">
        <ele>570.2</ele>
        <time>2021-07-05 10:39:51</time>
      </trkpt>
      <trkpt lat="28.44041" lon="-14.05411">
        <ele>570.2</ele>
        <time>2021-07-05 10:39:52</time>
      </trkpt>
      <trkpt lat="28.44044" lon="-14.05413">
        <ele>570</ele>
        <time>2021-07-05 10:39:53</time>
      </trkpt>
      <trkpt lat="28.44046" lon="-14.05415">
        <ele>570</ele>
        <time>2021-07-05 10:39:54</time>
      </trkpt>
      <trkpt lat="28.44049" lon="-14.05417">
        <ele>570</ele>
        <time>2021-07-05 10:39:55</time>
      </trkpt>
      <trkpt lat="28.44051" lon="-14.05419">
        <ele>570</ele>
        <time>2021-07-05 10:39:56</time>
      </trkpt>
      <trkpt lat="28.44053" lon="-14.05421">
        <ele>570</ele>
        <time>2021-07-05 10:39:57</time>
      </trkpt>
      <trkpt lat="28.44056" lon="-14.05423">
        <ele>570</ele>
        <time>2021-07-05 10:39:58</time>
      </trkpt>
      <trkpt lat="28.44058" lon="-14.05425">
        <ele>570</ele>
        <time>2021-07-05 10:39:59</time>
      </trkpt>
      <trkpt lat="28.44061" lon="-14.05427">
        <ele>570</ele>
        <time>2021-07-05 10:40:00</time>
      </trkpt>
      <trkpt lat="28.44063" lon="-14.05428">
        <ele>570</ele>
        <time>2021-07-05 10:40:01</time>
      </trkpt>
      <trkpt lat="28.44065" lon="-14.0543">
        <ele>570</ele>
        <time>2021-07-05 10:40:02</time>
      </trkpt>
      <trkpt lat="28.44067" lon="-14.05432">
        <ele>569.8</ele>
        <time>2021-07-05 10:40:03</time>
      </trkpt>
      <trkpt lat="28.4407" lon="-14.05434">
        <ele>569.8</ele>
        <time>2021-07-05 10:40:04</time>
      </trkpt>
      <trkpt lat="28.44072" lon="-14.05435">
        <ele>569.8</ele>
        <time>2021-07-05 10:40:05</time>
      </trkpt>
      <trkpt lat="28.44074" lon="-14.05437">
        <ele>569.8</ele>
        <time>2021-07-05 10:40:06</time>
      </trkpt>
      <trkpt lat="28.44076" lon="-14.05439">
        <ele>569.8</ele>
        <time>2021-07-05 10:40:07</time>
      </trkpt>
      <trkpt lat="28.44078" lon="-14.05441">
        <ele>569.8</ele>
        <time>2021-07-05 10:40:08</time>
      </trkpt>
      <trkpt lat="28.4408" lon="-14.05443">
        <ele>569.8</ele>
        <time>2021-07-05 10:40:09</time>
      </trkpt>
      <trkpt lat="28.44082" lon="-14.05445">
        <ele>569.8</ele>
        <time>2021-07-05 10:40:10</time>
      </trkpt>
      <trkpt lat="28.44085" lon="-14.05447">
        <ele>569.8</ele>
        <time>2021-07-05 10:40:11</time>
      </trkpt>
      <trkpt lat="28.44087" lon="-14.05449">
        <ele>569.8</ele>
        <time>2021-07-05 10:40:12</time>
      </trkpt>
      <trkpt lat="28.44089" lon="-14.05451">
        <ele>569.8</ele>
        <time>2021-07-05 10:40:13</time>
      </trkpt>
      <trkpt lat="28.44091" lon="-14.05453">
        <ele>570</ele>
        <time>2021-07-05 10:40:14</time>
      </trkpt>
      <trkpt lat="28.44094" lon="-14.05455">
        <ele>570</ele>
        <time>2021-07-05 10:40:15</time>
      </trkpt>
      <trkpt lat="28.44096" lon="-14.05457">
        <ele>570.2</ele>
        <time>2021-07-05 10:40:16</time>
      </trkpt>
      <trkpt lat="28.44098" lon="-14.0546">
        <ele>570.2</ele>
        <time>2021-07-05 10:40:17</time>
      </trkpt>
      <trkpt lat="28.44101" lon="-14.05462">
        <ele>570.4</ele>
        <time>2021-07-05 10:40:18</time>
      </trkpt>
      <trkpt lat="28.44103" lon="-14.05463">
        <ele>570.4</ele>
        <time>2021-07-05 10:40:19</time>
      </trkpt>
      <trkpt lat="28.44105" lon="-14.05465">
        <ele>570.8</ele>
        <time>2021-07-05 10:40:20</time>
      </trkpt>
      <trkpt lat="28.44107" lon="-14.05467">
        <ele>570.8</ele>
        <time>2021-07-05 10:40:21</time>
      </trkpt>
      <trkpt lat="28.44109" lon="-14.05469">
        <ele>571</ele>
        <time>2021-07-05 10:40:22</time>
      </trkpt>
      <trkpt lat="28.44111" lon="-14.05471">
        <ele>571</ele>
        <time>2021-07-05 10:40:23</time>
      </trkpt>
      <trkpt lat="28.44113" lon="-14.05473">
        <ele>571</ele>
        <time>2021-07-05 10:40:24</time>
      </trkpt>
      <trkpt lat="28.44115" lon="-14.05475">
        <ele>571</ele>
        <time>2021-07-05 10:40:25</time>
      </trkpt>
      <trkpt lat="28.44117" lon="-14.05477">
        <ele>571</ele>
        <time>2021-07-05 10:40:26</time>
      </trkpt>
      <trkpt lat="28.44119" lon="-14.05479">
        <ele>571</ele>
        <time>2021-07-05 10:40:27</time>
      </trkpt>
      <trkpt lat="28.44121" lon="-14.05481">
        <ele>571.2</ele>
        <time>2021-07-05 10:40:28</time>
      </trkpt>
      <trkpt lat="28.44122" lon="-14.05484">
        <ele>571.2</ele>
        <time>2021-07-05 10:40:29</time>
      </trkpt>
      <trkpt lat="28.44124" lon="-14.05486">
        <ele>571.4</ele>
        <time>2021-07-05 10:40:30</time>
      </trkpt>
      <trkpt lat="28.44125" lon="-14.05489">
        <ele>571.4</ele>
        <time>2021-07-05 10:40:31</time>
      </trkpt>
      <trkpt lat="28.44127" lon="-14.05492">
        <ele>571.6</ele>
        <time>2021-07-05 10:40:32</time>
      </trkpt>
      <trkpt lat="28.44127" lon="-14.05495">
        <ele>571.6</ele>
        <time>2021-07-05 10:40:33</time>
      </trkpt>
      <trkpt lat="28.44128" lon="-14.05498">
        <ele>571.8</ele>
        <time>2021-07-05 10:40:34</time>
      </trkpt>
      <trkpt lat="28.44129" lon="-14.05501">
        <ele>572.2</ele>
        <time>2021-07-05 10:40:35</time>
      </trkpt>
      <trkpt lat="28.44129" lon="-14.05504">
        <ele>572.2</ele>
        <time>2021-07-05 10:40:36</time>
      </trkpt>
      <trkpt lat="28.44128" lon="-14.05508">
        <ele>572.6</ele>
        <time>2021-07-05 10:40:37</time>
      </trkpt>
      <trkpt lat="28.44128" lon="-14.05511">
        <ele>572.8</ele>
        <time>2021-07-05 10:40:38</time>
      </trkpt>
      <trkpt lat="28.44127" lon="-14.05514">
        <ele>573.4</ele>
        <time>2021-07-05 10:40:39</time>
      </trkpt>
      <trkpt lat="28.44126" lon="-14.05517">
        <ele>573.4</ele>
        <time>2021-07-05 10:40:40</time>
      </trkpt>
      <trkpt lat="28.44125" lon="-14.0552">
        <ele>573.6</ele>
        <time>2021-07-05 10:40:41</time>
      </trkpt>
      <trkpt lat="28.44124" lon="-14.05523">
        <ele>573.6</ele>
        <time>2021-07-05 10:40:42</time>
      </trkpt>
      <trkpt lat="28.44123" lon="-14.05526">
        <ele>573.8</ele>
        <time>2021-07-05 10:40:43</time>
      </trkpt>
      <trkpt lat="28.44121" lon="-14.05529">
        <ele>573.8</ele>
        <time>2021-07-05 10:40:44</time>
      </trkpt>
      <trkpt lat="28.4412" lon="-14.05532">
        <ele>574.4</ele>
        <time>2021-07-05 10:40:45</time>
      </trkpt>
      <trkpt lat="28.44118" lon="-14.05535">
        <ele>574.4</ele>
        <time>2021-07-05 10:40:46</time>
      </trkpt>
      <trkpt lat="28.44117" lon="-14.05538">
        <ele>574.6</ele>
        <time>2021-07-05 10:40:47</time>
      </trkpt>
      <trkpt lat="28.44115" lon="-14.05541">
        <ele>574.8</ele>
        <time>2021-07-05 10:40:48</time>
      </trkpt>
      <trkpt lat="28.44113" lon="-14.05544">
        <ele>575</ele>
        <time>2021-07-05 10:40:49</time>
      </trkpt>
      <trkpt lat="28.44112" lon="-14.05546">
        <ele>575.2</ele>
        <time>2021-07-05 10:40:50</time>
      </trkpt>
      <trkpt lat="28.4411" lon="-14.05549">
        <ele>575.6</ele>
        <time>2021-07-05 10:40:51</time>
      </trkpt>
      <trkpt lat="28.44108" lon="-14.05552">
        <ele>575.8</ele>
        <time>2021-07-05 10:40:52</time>
      </trkpt>
      <trkpt lat="28.44107" lon="-14.05555">
        <ele>576.2</ele>
        <time>2021-07-05 10:40:53</time>
      </trkpt>
      <trkpt lat="28.44105" lon="-14.05558">
        <ele>577</ele>
        <time>2021-07-05 10:40:54</time>
      </trkpt>
      <trkpt lat="28.44103" lon="-14.05561">
        <ele>577</ele>
        <time>2021-07-05 10:40:55</time>
      </trkpt>
      <trkpt lat="28.44102" lon="-14.05564">
        <ele>577.2</ele>
        <time>2021-07-05 10:40:56</time>
      </trkpt>
      <trkpt lat="28.441" lon="-14.05566">
        <ele>577.6</ele>
        <time>2021-07-05 10:40:57</time>
      </trkpt>
      <trkpt lat="28.44098" lon="-14.05569">
        <ele>578.2</ele>
        <time>2021-07-05 10:40:58</time>
      </trkpt>
      <trkpt lat="28.44097" lon="-14.05572">
        <ele>578.6</ele>
        <time>2021-07-05 10:40:59</time>
      </trkpt>
      <trkpt lat="28.44095" lon="-14.05575">
        <ele>578.6</ele>
        <time>2021-07-05 10:41:00</time>
      </trkpt>
      <trkpt lat="28.44094" lon="-14.05578">
        <ele>579.4</ele>
        <time>2021-07-05 10:41:01</time>
      </trkpt>
      <trkpt lat="28.44092" lon="-14.05581">
        <ele>579.6</ele>
        <time>2021-07-05 10:41:02</time>
      </trkpt>
      <trkpt lat="28.44091" lon="-14.05583">
        <ele>579.6</ele>
        <time>2021-07-05 10:41:03</time>
      </trkpt>
      <trkpt lat="28.4409" lon="-14.05586">
        <ele>579.6</ele>
        <time>2021-07-05 10:41:04</time>
      </trkpt>
      <trkpt lat="28.44088" lon="-14.05588">
        <ele>580</ele>
        <time>2021-07-05 10:41:05</time>
      </trkpt>
      <trkpt lat="28.44087" lon="-14.0559">
        <ele>580</ele>
        <time>2021-07-05 10:41:06</time>
      </trkpt>
      <trkpt lat="28.44086" lon="-14.05593">
        <ele>580</ele>
        <time>2021-07-05 10:41:07</time>
      </trkpt>
      <trkpt lat="28.44085" lon="-14.05595">
        <ele>580.2</ele>
        <time>2021-07-05 10:41:08</time>
      </trkpt>
      <trkpt lat="28.44084" lon="-14.05598">
        <ele>580.2</ele>
        <time>2021-07-05 10:41:09</time>
      </trkpt>
      <trkpt lat="28.44083" lon="-14.056">
        <ele>580.2</ele>
        <time>2021-07-05 10:41:10</time>
      </trkpt>
      <trkpt lat="28.44082" lon="-14.05603">
        <ele>580.6</ele>
        <time>2021-07-05 10:41:11</time>
      </trkpt>
      <trkpt lat="28.44082" lon="-14.05605">
        <ele>580.6</ele>
        <time>2021-07-05 10:41:12</time>
      </trkpt>
      <trkpt lat="28.44082" lon="-14.05608">
        <ele>580.8</ele>
        <time>2021-07-05 10:41:13</time>
      </trkpt>
      <trkpt lat="28.44082" lon="-14.0561">
        <ele>581.4</ele>
        <time>2021-07-05 10:41:14</time>
      </trkpt>
      <trkpt lat="28.44083" lon="-14.05613">
        <ele>582.2</ele>
        <time>2021-07-05 10:41:15</time>
      </trkpt>
      <trkpt lat="28.44085" lon="-14.05615">
        <ele>582.2</ele>
        <time>2021-07-05 10:41:16</time>
      </trkpt>
      <trkpt lat="28.44086" lon="-14.05616">
        <ele>583</ele>
        <time>2021-07-05 10:41:17</time>
      </trkpt>
      <trkpt lat="28.44086" lon="-14.05618">
        <ele>583.6</ele>
        <time>2021-07-05 10:41:18</time>
      </trkpt>
      <trkpt lat="28.44086" lon="-14.0562">
        <ele>584</ele>
        <time>2021-07-05 10:41:19</time>
      </trkpt>
      <trkpt lat="28.44087" lon="-14.05622">
        <ele>584.4</ele>
        <time>2021-07-05 10:41:20</time>
      </trkpt>
      <trkpt lat="28.44087" lon="-14.05624">
        <ele>585</ele>
        <time>2021-07-05 10:41:21</time>
      </trkpt>
      <trkpt lat="28.44089" lon="-14.05625">
        <ele>585</ele>
        <time>2021-07-05 10:41:22</time>
      </trkpt>
      <trkpt lat="28.4409" lon="-14.05627">
        <ele>585.2</ele>
        <time>2021-07-05 10:41:23</time>
      </trkpt>
      <trkpt lat="28.44091" lon="-14.05628">
        <ele>585.2</ele>
        <time>2021-07-05 10:41:24</time>
      </trkpt>
      <trkpt lat="28.44092" lon="-14.05629">
        <ele>585.2</ele>
        <time>2021-07-05 10:41:25</time>
      </trkpt>
      <trkpt lat="28.44093" lon="-14.05631">
        <ele>585.4</ele>
        <time>2021-07-05 10:41:26</time>
      </trkpt>
      <trkpt lat="28.44093" lon="-14.05631">
        <ele>585.4</ele>
        <time>2021-07-05 10:41:27</time>
      </trkpt>
      <trkpt lat="28.44093" lon="-14.05631">
        <ele>585.4</ele>
        <time>2021-07-05 10:41:28</time>
      </trkpt>
      <trkpt lat="28.44093" lon="-14.05631">
        <ele>585.4</ele>
        <time>2021-07-05 10:41:29</time>
      </trkpt>
      <trkpt lat="28.44093" lon="-14.05631">
        <ele>585.4</ele>
        <time>2021-07-05 10:41:30</time>
      </trkpt>
      <trkpt lat="28.44094" lon="-14.05634">
        <ele>585.6</ele>
        <time>2021-07-05 10:41:33</time>
      </trkpt>
      <trkpt lat="28.44095" lon="-14.05636">
        <ele>585.6</ele>
        <time>2021-07-05 10:41:34</time>
      </trkpt>
      <trkpt lat="28.44095" lon="-14.05637">
        <ele>586.4</ele>
        <time>2021-07-05 10:41:35</time>
      </trkpt>
      <trkpt lat="28.44094" lon="-14.05639">
        <ele>586.4</ele>
        <time>2021-07-05 10:41:36</time>
      </trkpt>
      <trkpt lat="28.44093" lon="-14.05639">
        <ele>586.4</ele>
        <time>2021-07-05 10:41:37</time>
      </trkpt>
      <trkpt lat="28.44091" lon="-14.0564">
        <ele>586</ele>
        <time>2021-07-05 10:41:38</time>
      </trkpt>
      <trkpt lat="28.4409" lon="-14.05639">
        <ele>585.8</ele>
        <time>2021-07-05 10:41:39</time>
      </trkpt>
      <trkpt lat="28.44089" lon="-14.05638">
        <ele>585.8</ele>
        <time>2021-07-05 10:41:40</time>
      </trkpt>
      <trkpt lat="28.44088" lon="-14.05637">
        <ele>585.8</ele>
        <time>2021-07-05 10:41:41</time>
      </trkpt>
      <trkpt lat="28.44087" lon="-14.05636">
        <ele>585.4</ele>
        <time>2021-07-05 10:41:42</time>
      </trkpt>
      <trkpt lat="28.44086" lon="-14.05635">
        <ele>585.4</ele>
        <time>2021-07-05 10:41:43</time>
      </trkpt>
      <trkpt lat="28.44084" lon="-14.05635">
        <ele>585.4</ele>
        <time>2021-07-05 10:41:44</time>
      </trkpt>
      <trkpt lat="28.44084" lon="-14.05636">
        <ele>585.4</ele>
        <time>2021-07-05 10:41:45</time>
      </trkpt>
      <trkpt lat="28.44084" lon="-14.05638">
        <ele>585.4</ele>
        <time>2021-07-05 10:41:46</time>
      </trkpt>
      <trkpt lat="28.44085" lon="-14.05639">
        <ele>585.4</ele>
        <time>2021-07-05 10:41:47</time>
      </trkpt>
      <trkpt lat="28.44085" lon="-14.05639">
        <ele>585.4</ele>
        <time>2021-07-05 10:41:48</time>
      </trkpt>
      <trkpt lat="28.44086" lon="-14.0564">
        <ele>585.8</ele>
        <time>2021-07-05 10:41:49</time>
      </trkpt>
      <trkpt lat="28.44087" lon="-14.0564">
        <ele>585.8</ele>
        <time>2021-07-05 10:41:50</time>
      </trkpt>
      <trkpt lat="28.44087" lon="-14.0564">
        <ele>586</ele>
        <time>2021-07-05 10:41:51</time>
      </trkpt>
      <trkpt lat="28.44088" lon="-14.0564">
        <ele>586</ele>
        <time>2021-07-05 10:41:52</time>
      </trkpt>
      <trkpt lat="28.44088" lon="-14.0564">
        <ele>586</ele>
        <time>2021-07-05 10:41:53</time>
      </trkpt>
      <trkpt lat="28.44088" lon="-14.0564">
        <ele>586.4</ele>
        <time>2021-07-05 10:41:54</time>
      </trkpt>
      <trkpt lat="28.44089" lon="-14.05641">
        <ele>586.4</ele>
        <time>2021-07-05 10:42:00</time>
      </trkpt>
      <trkpt lat="28.4409" lon="-14.05642">
        <ele>586.8</ele>
        <time>2021-07-05 10:42:01</time>
      </trkpt>
      <trkpt lat="28.44091" lon="-14.05643">
        <ele>586.8</ele>
        <time>2021-07-05 10:42:02</time>
      </trkpt>
      <trkpt lat="28.44091" lon="-14.05644">
        <ele>586.8</ele>
        <time>2021-07-05 10:42:03</time>
      </trkpt>
      <trkpt lat="28.44092" lon="-14.05645">
        <ele>586.8</ele>
        <time>2021-07-05 10:42:04</time>
      </trkpt>
      <trkpt lat="28.44092" lon="-14.05645">
        <ele>586.8</ele>
        <time>2021-07-05 10:42:05</time>
      </trkpt>
      <trkpt lat="28.44092" lon="-14.05645">
        <ele>586.8</ele>
        <time>2021-07-05 10:42:06</time>
      </trkpt>
      <trkpt lat="28.44092" lon="-14.05645">
        <ele>586.8</ele>
        <time>2021-07-05 10:42:07</time>
      </trkpt>
      <trkpt lat="28.44091" lon="-14.05645">
        <ele>586.8</ele>
        <time>2021-07-05 10:42:08</time>
      </trkpt>
      <trkpt lat="28.4409" lon="-14.05643">
        <ele>584</ele>
        <time>2021-07-05 10:43:40</time>
      </trkpt>
      <trkpt lat="28.44089" lon="-14.05643">
        <ele>584</ele>
        <time>2021-07-05 10:43:41</time>
      </trkpt>
      <trkpt lat="28.44088" lon="-14.05641">
        <ele>584</ele>
        <time>2021-07-05 10:43:42</time>
      </trkpt>
      <trkpt lat="28.44088" lon="-14.05641">
        <ele>584.4</ele>
        <time>2021-07-05 10:43:43</time>
      </trkpt>
      <trkpt lat="28.44088" lon="-14.0564">
        <ele>584.4</ele>
        <time>2021-07-05 10:43:44</time>
      </trkpt>
      <trkpt lat="28.44087" lon="-14.05639">
        <ele>584</ele>
        <time>2021-07-05 10:43:45</time>
      </trkpt>
      <trkpt lat="28.44087" lon="-14.05639">
        <ele>584</ele>
        <time>2021-07-05 10:43:46</time>
      </trkpt>
      <trkpt lat="28.44087" lon="-14.05639">
        <ele>584</ele>
        <time>2021-07-05 10:43:47</time>
      </trkpt>
      <trkpt lat="28.44087" lon="-14.05639">
        <ele>583.6</ele>
        <time>2021-07-05 10:43:48</time>
      </trkpt>
      <trkpt lat="28.44087" lon="-14.05638">
        <ele>583.6</ele>
        <time>2021-07-05 10:44:02</time>
      </trkpt>
      <trkpt lat="28.44087" lon="-14.05637">
        <ele>582.4</ele>
        <time>2021-07-05 10:44:03</time>
      </trkpt>
      <trkpt lat="28.44086" lon="-14.05636">
        <ele>582.4</ele>
        <time>2021-07-05 10:44:04</time>
      </trkpt>
      <trkpt lat="28.44086" lon="-14.05634">
        <ele>582.4</ele>
        <time>2021-07-05 10:44:05</time>
      </trkpt>
      <trkpt lat="28.44086" lon="-14.05633">
        <ele>582.4</ele>
        <time>2021-07-05 10:44:06</time>
      </trkpt>
      <trkpt lat="28.44088" lon="-14.05632">
        <ele>582.4</ele>
        <time>2021-07-05 10:44:07</time>
      </trkpt>
      <trkpt lat="28.44089" lon="-14.05632">
        <ele>582.4</ele>
        <time>2021-07-05 10:44:08</time>
      </trkpt>
      <trkpt lat="28.4409" lon="-14.05633">
        <ele>582.4</ele>
        <time>2021-07-05 10:44:09</time>
      </trkpt>
      <trkpt lat="28.4409" lon="-14.05635">
        <ele>582.4</ele>
        <time>2021-07-05 10:44:10</time>
      </trkpt>
      <trkpt lat="28.44091" lon="-14.05636">
        <ele>582.4</ele>
        <time>2021-07-05 10:44:11</time>
      </trkpt>
      <trkpt lat="28.44091" lon="-14.05636">
        <ele>582.2</ele>
        <time>2021-07-05 10:44:12</time>
      </trkpt>
      <trkpt lat="28.44092" lon="-14.05637">
        <ele>582.2</ele>
        <time>2021-07-05 10:44:13</time>
      </trkpt>
      <trkpt lat="28.44092" lon="-14.05638">
        <ele>582.2</ele>
        <time>2021-07-05 10:44:14</time>
      </trkpt>
      <trkpt lat="28.44092" lon="-14.05638">
        <ele>582.2</ele>
        <time>2021-07-05 10:44:15</time>
      </trkpt>
      <trkpt lat="28.44092" lon="-14.05638">
        <ele>582.4</ele>
        <time>2021-07-05 10:44:16</time>
      </trkpt>
      <trkpt lat="28.44092" lon="-14.05638">
        <ele>582.4</ele>
        <time>2021-07-05 10:44:17</time>
      </trkpt>
      <trkpt lat="28.44094" lon="-14.05639">
        <ele>582.4</ele>
        <time>2021-07-05 10:44:47</time>
      </trkpt>
      <trkpt lat="28.44094" lon="-14.05638">
        <ele>584</ele>
        <time>2021-07-05 10:44:48</time>
      </trkpt>
      <trkpt lat="28.44095" lon="-14.05637">
        <ele>584</ele>
        <time>2021-07-05 10:44:49</time>
      </trkpt>
      <trkpt lat="28.44095" lon="-14.05636">
        <ele>584</ele>
        <time>2021-07-05 10:44:50</time>
      </trkpt>
      <trkpt lat="28.44095" lon="-14.05634">
        <ele>584.2</ele>
        <time>2021-07-05 10:44:51</time>
      </trkpt>
      <trkpt lat="28.44094" lon="-14.05632">
        <ele>584</ele>
        <time>2021-07-05 10:44:52</time>
      </trkpt>
      <trkpt lat="28.44093" lon="-14.05632">
        <ele>583.8</ele>
        <time>2021-07-05 10:44:53</time>
      </trkpt>
      <trkpt lat="28.44091" lon="-14.05632">
        <ele>583.6</ele>
        <time>2021-07-05 10:44:54</time>
      </trkpt>
      <trkpt lat="28.44091" lon="-14.05632">
        <ele>583.6</ele>
        <time>2021-07-05 10:44:55</time>
      </trkpt>
      <trkpt lat="28.4409" lon="-14.05632">
        <ele>583.2</ele>
        <time>2021-07-05 10:44:56</time>
      </trkpt>
      <trkpt lat="28.4409" lon="-14.05632">
        <ele>583.2</ele>
        <time>2021-07-05 10:44:57</time>
      </trkpt>
      <trkpt lat="28.4409" lon="-14.05632">
        <ele>583</ele>
        <time>2021-07-05 10:44:58</time>
      </trkpt>
      <trkpt lat="28.44088" lon="-14.05632">
        <ele>582</ele>
        <time>2021-07-05 10:50:27</time>
      </trkpt>
      <trkpt lat="28.44088" lon="-14.05632">
        <ele>582</ele>
        <time>2021-07-05 10:50:28</time>
      </trkpt>
      <trkpt lat="28.44088" lon="-14.05631">
        <ele>582</ele>
        <time>2021-07-05 10:50:29</time>
      </trkpt>
      <trkpt lat="28.44088" lon="-14.0563">
        <ele>582</ele>
        <time>2021-07-05 10:50:30</time>
      </trkpt>
      <trkpt lat="28.44088" lon="-14.0563">
        <ele>582</ele>
        <time>2021-07-05 10:50:31</time>
      </trkpt>
      <trkpt lat="28.44088" lon="-14.05629">
        <ele>581.6</ele>
        <time>2021-07-05 10:50:32</time>
      </trkpt>
      <trkpt lat="28.44088" lon="-14.05629">
        <ele>581.6</ele>
        <time>2021-07-05 10:50:33</time>
      </trkpt>
      <trkpt lat="28.44089" lon="-14.05628">
        <ele>581</ele>
        <time>2021-07-05 10:51:24</time>
      </trkpt>
      <trkpt lat="28.44089" lon="-14.05627">
        <ele>581</ele>
        <time>2021-07-05 10:51:25</time>
      </trkpt>
      <trkpt lat="28.44088" lon="-14.05626">
        <ele>581</ele>
        <time>2021-07-05 10:51:26</time>
      </trkpt>
      <trkpt lat="28.44087" lon="-14.05625">
        <ele>581</ele>
        <time>2021-07-05 10:51:27</time>
      </trkpt>
      <trkpt lat="28.44086" lon="-14.05624">
        <ele>581</ele>
        <time>2021-07-05 10:51:28</time>
      </trkpt>
      <trkpt lat="28.44086" lon="-14.05622">
        <ele>581</ele>
        <time>2021-07-05 10:51:29</time>
      </trkpt>
      <trkpt lat="28.44085" lon="-14.05621">
        <ele>581</ele>
        <time>2021-07-05 10:51:30</time>
      </trkpt>
      <trkpt lat="28.44084" lon="-14.05619">
        <ele>581</ele>
        <time>2021-07-05 10:51:31</time>
      </trkpt>
      <trkpt lat="28.44084" lon="-14.05617">
        <ele>581</ele>
        <time>2021-07-05 10:51:32</time>
      </trkpt>
      <trkpt lat="28.44084" lon="-14.05616">
        <ele>581</ele>
        <time>2021-07-05 10:51:33</time>
      </trkpt>
      <trkpt lat="28.44084" lon="-14.05614">
        <ele>581</ele>
        <time>2021-07-05 10:51:34</time>
      </trkpt>
      <trkpt lat="28.44083" lon="-14.05612">
        <ele>581</ele>
        <time>2021-07-05 10:51:35</time>
      </trkpt>
      <trkpt lat="28.44082" lon="-14.05612">
        <ele>581</ele>
        <time>2021-07-05 10:51:36</time>
      </trkpt>
      <trkpt lat="28.4408" lon="-14.05613">
        <ele>581</ele>
        <time>2021-07-05 10:51:37</time>
      </trkpt>
      <trkpt lat="28.44078" lon="-14.05616">
        <ele>581</ele>
        <time>2021-07-05 10:51:38</time>
      </trkpt>
      <trkpt lat="28.44077" lon="-14.05618">
        <ele>581</ele>
        <time>2021-07-05 10:51:39</time>
      </trkpt>
      <trkpt lat="28.44076" lon="-14.05621">
        <ele>581.2</ele>
        <time>2021-07-05 10:51:40</time>
      </trkpt>
      <trkpt lat="28.44075" lon="-14.05624">
        <ele>581.2</ele>
        <time>2021-07-05 10:51:41</time>
      </trkpt>
      <trkpt lat="28.44074" lon="-14.05627">
        <ele>581.6</ele>
        <time>2021-07-05 10:51:42</time>
      </trkpt>
      <trkpt lat="28.44074" lon="-14.0563">
        <ele>581.6</ele>
        <time>2021-07-05 10:51:43</time>
      </trkpt>
      <trkpt lat="28.44073" lon="-14.05634">
        <ele>581.8</ele>
        <time>2021-07-05 10:51:44</time>
      </trkpt>
      <trkpt lat="28.44072" lon="-14.05638">
        <ele>581.8</ele>
        <time>2021-07-05 10:51:45</time>
      </trkpt>
      <trkpt lat="28.44072" lon="-14.05642">
        <ele>581.8</ele>
        <time>2021-07-05 10:51:46</time>
      </trkpt>
      <trkpt lat="28.44071" lon="-14.05647">
        <ele>581.8</ele>
        <time>2021-07-05 10:51:47</time>
      </trkpt>
      <trkpt lat="28.4407" lon="-14.05651">
        <ele>582</ele>
        <time>2021-07-05 10:51:48</time>
      </trkpt>
      <trkpt lat="28.4407" lon="-14.05657">
        <ele>582</ele>
        <time>2021-07-05 10:51:49</time>
      </trkpt>
      <trkpt lat="28.4407" lon="-14.05662">
        <ele>582</ele>
        <time>2021-07-05 10:51:50</time>
      </trkpt>
      <trkpt lat="28.44069" lon="-14.05668">
        <ele>582</ele>
        <time>2021-07-05 10:51:51</time>
      </trkpt>
      <trkpt lat="28.44069" lon="-14.05675">
        <ele>581.8</ele>
        <time>2021-07-05 10:51:52</time>
      </trkpt>
      <trkpt lat="28.44069" lon="-14.05681">
        <ele>581.4</ele>
        <time>2021-07-05 10:51:53</time>
      </trkpt>
      <trkpt lat="28.44068" lon="-14.05688">
        <ele>581.4</ele>
        <time>2021-07-05 10:51:54</time>
      </trkpt>
      <trkpt lat="28.44068" lon="-14.05695">
        <ele>581.4</ele>
        <time>2021-07-05 10:51:55</time>
      </trkpt>
      <trkpt lat="28.44069" lon="-14.05703">
        <ele>580.8</ele>
        <time>2021-07-05 10:51:56</time>
      </trkpt>
      <trkpt lat="28.44068" lon="-14.05711">
        <ele>580.8</ele>
        <time>2021-07-05 10:51:57</time>
      </trkpt>
      <trkpt lat="28.44068" lon="-14.0572">
        <ele>580.6</ele>
        <time>2021-07-05 10:51:58</time>
      </trkpt>
      <trkpt lat="28.44068" lon="-14.05729">
        <ele>580.2</ele>
        <time>2021-07-05 10:51:59</time>
      </trkpt>
      <trkpt lat="28.44068" lon="-14.05738">
        <ele>579.6</ele>
        <time>2021-07-05 10:52:00</time>
      </trkpt>
      <trkpt lat="28.44069" lon="-14.05748">
        <ele>579.2</ele>
        <time>2021-07-05 10:52:01</time>
      </trkpt>
      <trkpt lat="28.44069" lon="-14.05759">
        <ele>578.8</ele>
        <time>2021-07-05 10:52:02</time>
      </trkpt>
      <trkpt lat="28.44069" lon="-14.0577">
        <ele>577.8</ele>
        <time>2021-07-05 10:52:03</time>
      </trkpt>
      <trkpt lat="28.44068" lon="-14.05782">
        <ele>577.4</ele>
        <time>2021-07-05 10:52:04</time>
      </trkpt>
      <trkpt lat="28.44066" lon="-14.05793">
        <ele>577</ele>
        <time>2021-07-05 10:52:05</time>
      </trkpt>
      <trkpt lat="28.44063" lon="-14.05805">
        <ele>576.6</ele>
        <time>2021-07-05 10:52:06</time>
      </trkpt>
      <trkpt lat="28.44059" lon="-14.05815">
        <ele>576.6</ele>
        <time>2021-07-05 10:52:07</time>
      </trkpt>
      <trkpt lat="28.44054" lon="-14.05825">
        <ele>576.2</ele>
        <time>2021-07-05 10:52:08</time>
      </trkpt>
      <trkpt lat="28.44049" lon="-14.05835">
        <ele>575.4</ele>
        <time>2021-07-05 10:52:09</time>
      </trkpt>
      <trkpt lat="28.44044" lon="-14.05845">
        <ele>575.4</ele>
        <time>2021-07-05 10:52:10</time>
      </trkpt>
      <trkpt lat="28.4404" lon="-14.05854">
        <ele>575</ele>
        <time>2021-07-05 10:52:11</time>
      </trkpt>
      <trkpt lat="28.44038" lon="-14.05864">
        <ele>574</ele>
        <time>2021-07-05 10:52:12</time>
      </trkpt>
      <trkpt lat="28.44038" lon="-14.05874">
        <ele>574</ele>
        <time>2021-07-05 10:52:13</time>
      </trkpt>
      <trkpt lat="28.44036" lon="-14.05883">
        <ele>573.6</ele>
        <time>2021-07-05 10:52:14</time>
      </trkpt>
      <trkpt lat="28.44032" lon="-14.05891">
        <ele>573.2</ele>
        <time>2021-07-05 10:52:15</time>
      </trkpt>
      <trkpt lat="28.44026" lon="-14.05897">
        <ele>573</ele>
        <time>2021-07-05 10:52:16</time>
      </trkpt>
      <trkpt lat="28.4402" lon="-14.05902">
        <ele>572.8</ele>
        <time>2021-07-05 10:52:17</time>
      </trkpt>
      <trkpt lat="28.44012" lon="-14.05906">
        <ele>572.4</ele>
        <time>2021-07-05 10:52:18</time>
      </trkpt>
      <trkpt lat="28.44005" lon="-14.0591">
        <ele>571.8</ele>
        <time>2021-07-05 10:52:19</time>
      </trkpt>
      <trkpt lat="28.43997" lon="-14.05915">
        <ele>571.2</ele>
        <time>2021-07-05 10:52:20</time>
      </trkpt>
      <trkpt lat="28.4399" lon="-14.05921">
        <ele>570.6</ele>
        <time>2021-07-05 10:52:21</time>
      </trkpt>
      <trkpt lat="28.43982" lon="-14.05926">
        <ele>570</ele>
        <time>2021-07-05 10:52:22</time>
      </trkpt>
      <trkpt lat="28.43973" lon="-14.0593">
        <ele>569.2</ele>
        <time>2021-07-05 10:52:23</time>
      </trkpt>
      <trkpt lat="28.43963" lon="-14.05931">
        <ele>568.4</ele>
        <time>2021-07-05 10:52:24</time>
      </trkpt>
      <trkpt lat="28.43953" lon="-14.05932">
        <ele>567.8</ele>
        <time>2021-07-05 10:52:25</time>
      </trkpt>
      <trkpt lat="28.43943" lon="-14.05932">
        <ele>567</ele>
        <time>2021-07-05 10:52:26</time>
      </trkpt>
      <trkpt lat="28.43932" lon="-14.05931">
        <ele>565.4</ele>
        <time>2021-07-05 10:52:27</time>
      </trkpt>
      <trkpt lat="28.43923" lon="-14.0593">
        <ele>565.4</ele>
        <time>2021-07-05 10:52:28</time>
      </trkpt>
      <trkpt lat="28.43914" lon="-14.05931">
        <ele>564.4</ele>
        <time>2021-07-05 10:52:29</time>
      </trkpt>
      <trkpt lat="28.43906" lon="-14.05934">
        <ele>563.6</ele>
        <time>2021-07-05 10:52:30</time>
      </trkpt>
      <trkpt lat="28.439" lon="-14.05941">
        <ele>562.8</ele>
        <time>2021-07-05 10:52:31</time>
      </trkpt>
      <trkpt lat="28.43897" lon="-14.0595">
        <ele>562</ele>
        <time>2021-07-05 10:52:32</time>
      </trkpt>
      <trkpt lat="28.43891" lon="-14.05957">
        <ele>561.2</ele>
        <time>2021-07-05 10:52:33</time>
      </trkpt>
      <trkpt lat="28.43882" lon="-14.05962">
        <ele>558.8</ele>
        <time>2021-07-05 10:52:34</time>
      </trkpt>
      <trkpt lat="28.43873" lon="-14.05964">
        <ele>558.8</ele>
        <time>2021-07-05 10:52:35</time>
      </trkpt>
      <trkpt lat="28.43864" lon="-14.05962">
        <ele>557.6</ele>
        <time>2021-07-05 10:52:36</time>
      </trkpt>
      <trkpt lat="28.43854" lon="-14.0596">
        <ele>556.4</ele>
        <time>2021-07-05 10:52:37</time>
      </trkpt>
      <trkpt lat="28.43845" lon="-14.05957">
        <ele>555.6</ele>
        <time>2021-07-05 10:52:38</time>
      </trkpt>
      <trkpt lat="28.43836" lon="-14.05953">
        <ele>554</ele>
        <time>2021-07-05 10:52:39</time>
      </trkpt>
      <trkpt lat="28.43826" lon="-14.05951">
        <ele>554</ele>
        <time>2021-07-05 10:52:40</time>
      </trkpt>
      <trkpt lat="28.43817" lon="-14.05951">
        <ele>552.6</ele>
        <time>2021-07-05 10:52:41</time>
      </trkpt>
      <trkpt lat="28.43807" lon="-14.05954">
        <ele>551.8</ele>
        <time>2021-07-05 10:52:42</time>
      </trkpt>
      <trkpt lat="28.43797" lon="-14.05958">
        <ele>551.8</ele>
        <time>2021-07-05 10:52:43</time>
      </trkpt>
      <trkpt lat="28.43787" lon="-14.05963">
        <ele>550.2</ele>
        <time>2021-07-05 10:52:44</time>
      </trkpt>
      <trkpt lat="28.43778" lon="-14.05969">
        <ele>550.2</ele>
        <time>2021-07-05 10:52:45</time>
      </trkpt>
      <trkpt lat="28.4377" lon="-14.05974">
        <ele>548.8</ele>
        <time>2021-07-05 10:52:46</time>
      </trkpt>
      <trkpt lat="28.43762" lon="-14.05981">
        <ele>548.8</ele>
        <time>2021-07-05 10:52:47</time>
      </trkpt>
      <trkpt lat="28.43756" lon="-14.0599">
        <ele>548.2</ele>
        <time>2021-07-05 10:52:48</time>
      </trkpt>
      <trkpt lat="28.43751" lon="-14.06">
        <ele>547.4</ele>
        <time>2021-07-05 10:52:49</time>
      </trkpt>
      <trkpt lat="28.43747" lon="-14.06011">
        <ele>546.6</ele>
        <time>2021-07-05 10:52:50</time>
      </trkpt>
      <trkpt lat="28.43745" lon="-14.06023">
        <ele>545.2</ele>
        <time>2021-07-05 10:52:51</time>
      </trkpt>
      <trkpt lat="28.43744" lon="-14.06036">
        <ele>545.2</ele>
        <time>2021-07-05 10:52:52</time>
      </trkpt>
      <trkpt lat="28.43744" lon="-14.06049">
        <ele>543.8</ele>
        <time>2021-07-05 10:52:53</time>
      </trkpt>
      <trkpt lat="28.43747" lon="-14.06062">
        <ele>543.8</ele>
        <time>2021-07-05 10:52:54</time>
      </trkpt>
      <trkpt lat="28.4375" lon="-14.06075">
        <ele>542.8</ele>
        <time>2021-07-05 10:52:55</time>
      </trkpt>
      <trkpt lat="28.43754" lon="-14.06087">
        <ele>542.8</ele>
        <time>2021-07-05 10:52:56</time>
      </trkpt>
      <trkpt lat="28.43758" lon="-14.06098">
        <ele>542</ele>
        <time>2021-07-05 10:52:57</time>
      </trkpt>
      <trkpt lat="28.43761" lon="-14.06109">
        <ele>541.4</ele>
        <time>2021-07-05 10:52:58</time>
      </trkpt>
      <trkpt lat="28.43763" lon="-14.06118">
        <ele>541.4</ele>
        <time>2021-07-05 10:52:59</time>
      </trkpt>
      <trkpt lat="28.43764" lon="-14.06128">
        <ele>541</ele>
        <time>2021-07-05 10:53:00</time>
      </trkpt>
      <trkpt lat="28.43761" lon="-14.06137">
        <ele>540.4</ele>
        <time>2021-07-05 10:53:01</time>
      </trkpt>
      <trkpt lat="28.43755" lon="-14.06144">
        <ele>539.8</ele>
        <time>2021-07-05 10:53:02</time>
      </trkpt>
      <trkpt lat="28.43748" lon="-14.06149">
        <ele>539</ele>
        <time>2021-07-05 10:53:03</time>
      </trkpt>
      <trkpt lat="28.43739" lon="-14.06153">
        <ele>537.4</ele>
        <time>2021-07-05 10:53:04</time>
      </trkpt>
      <trkpt lat="28.4373" lon="-14.06157">
        <ele>537.4</ele>
        <time>2021-07-05 10:53:05</time>
      </trkpt>
      <trkpt lat="28.4372" lon="-14.06161">
        <ele>536.4</ele>
        <time>2021-07-05 10:53:06</time>
      </trkpt>
      <trkpt lat="28.4371" lon="-14.06165">
        <ele>535.4</ele>
        <time>2021-07-05 10:53:07</time>
      </trkpt>
      <trkpt lat="28.437" lon="-14.06169">
        <ele>534.2</ele>
        <time>2021-07-05 10:53:08</time>
      </trkpt>
      <trkpt lat="28.4369" lon="-14.06172">
        <ele>533.4</ele>
        <time>2021-07-05 10:53:09</time>
      </trkpt>
      <trkpt lat="28.43679" lon="-14.06176">
        <ele>532.4</ele>
        <time>2021-07-05 10:53:10</time>
      </trkpt>
      <trkpt lat="28.43668" lon="-14.0618">
        <ele>531.8</ele>
        <time>2021-07-05 10:53:11</time>
      </trkpt>
      <trkpt lat="28.43657" lon="-14.06184">
        <ele>531</ele>
        <time>2021-07-05 10:53:12</time>
      </trkpt>
      <trkpt lat="28.43646" lon="-14.06187">
        <ele>530.2</ele>
        <time>2021-07-05 10:53:13</time>
      </trkpt>
      <trkpt lat="28.43636" lon="-14.06191">
        <ele>528.8</ele>
        <time>2021-07-05 10:53:14</time>
      </trkpt>
      <trkpt lat="28.43626" lon="-14.06195">
        <ele>528.8</ele>
        <time>2021-07-05 10:53:15</time>
      </trkpt>
      <trkpt lat="28.43617" lon="-14.06201">
        <ele>528.2</ele>
        <time>2021-07-05 10:53:16</time>
      </trkpt>
      <trkpt lat="28.43608" lon="-14.0621">
        <ele>527.4</ele>
        <time>2021-07-05 10:53:17</time>
      </trkpt>
      <trkpt lat="28.43602" lon="-14.06219">
        <ele>526.8</ele>
        <time>2021-07-05 10:53:18</time>
      </trkpt>
      <trkpt lat="28.43597" lon="-14.06229">
        <ele>525.4</ele>
        <time>2021-07-05 10:53:19</time>
      </trkpt>
      <trkpt lat="28.43589" lon="-14.06237">
        <ele>524.6</ele>
        <time>2021-07-05 10:53:20</time>
      </trkpt>
      <trkpt lat="28.43581" lon="-14.06242">
        <ele>524.6</ele>
        <time>2021-07-05 10:53:21</time>
      </trkpt>
      <trkpt lat="28.43571" lon="-14.06244">
        <ele>523.8</ele>
        <time>2021-07-05 10:53:22</time>
      </trkpt>
      <trkpt lat="28.43561" lon="-14.06243">
        <ele>523</ele>
        <time>2021-07-05 10:53:23</time>
      </trkpt>
      <trkpt lat="28.43551" lon="-14.06238">
        <ele>522.4</ele>
        <time>2021-07-05 10:53:24</time>
      </trkpt>
      <trkpt lat="28.43541" lon="-14.06235">
        <ele>521.8</ele>
        <time>2021-07-05 10:53:25</time>
      </trkpt>
      <trkpt lat="28.4353" lon="-14.06233">
        <ele>521.2</ele>
        <time>2021-07-05 10:53:26</time>
      </trkpt>
      <trkpt lat="28.43519" lon="-14.06234">
        <ele>521</ele>
        <time>2021-07-05 10:53:27</time>
      </trkpt>
      <trkpt lat="28.43508" lon="-14.06236">
        <ele>520.8</ele>
        <time>2021-07-05 10:53:28</time>
      </trkpt>
      <trkpt lat="28.43497" lon="-14.06241">
        <ele>520</ele>
        <time>2021-07-05 10:53:29</time>
      </trkpt>
      <trkpt lat="28.43487" lon="-14.06246">
        <ele>520</ele>
        <time>2021-07-05 10:53:30</time>
      </trkpt>
      <trkpt lat="28.43476" lon="-14.06253">
        <ele>519.6</ele>
        <time>2021-07-05 10:53:31</time>
      </trkpt>
      <trkpt lat="28.43466" lon="-14.06262">
        <ele>519</ele>
        <time>2021-07-05 10:53:32</time>
      </trkpt>
      <trkpt lat="28.43457" lon="-14.06272">
        <ele>518.6</ele>
        <time>2021-07-05 10:53:33</time>
      </trkpt>
      <trkpt lat="28.43448" lon="-14.06283">
        <ele>517.4</ele>
        <time>2021-07-05 10:53:34</time>
      </trkpt>
      <trkpt lat="28.4344" lon="-14.06294">
        <ele>517.4</ele>
        <time>2021-07-05 10:53:35</time>
      </trkpt>
      <trkpt lat="28.43431" lon="-14.06303">
        <ele>516.6</ele>
        <time>2021-07-05 10:53:36</time>
      </trkpt>
      <trkpt lat="28.43424" lon="-14.06311">
        <ele>515</ele>
        <time>2021-07-05 10:53:37</time>
      </trkpt>
      <trkpt lat="28.43417" lon="-14.06317">
        <ele>515</ele>
        <time>2021-07-05 10:53:38</time>
      </trkpt>
      <trkpt lat="28.43409" lon="-14.06321">
        <ele>514</ele>
        <time>2021-07-05 10:53:39</time>
      </trkpt>
      <trkpt lat="28.43402" lon="-14.06322">
        <ele>513</ele>
        <time>2021-07-05 10:53:40</time>
      </trkpt>
      <trkpt lat="28.43395" lon="-14.06317">
        <ele>511.8</ele>
        <time>2021-07-05 10:53:41</time>
      </trkpt>
      <trkpt lat="28.43389" lon="-14.06309">
        <ele>510.8</ele>
        <time>2021-07-05 10:53:42</time>
      </trkpt>
      <trkpt lat="28.43386" lon="-14.06301">
        <ele>509.8</ele>
        <time>2021-07-05 10:53:43</time>
      </trkpt>
      <trkpt lat="28.43385" lon="-14.0629">
        <ele>508.8</ele>
        <time>2021-07-05 10:53:44</time>
      </trkpt>
      <trkpt lat="28.43385" lon="-14.06279">
        <ele>508</ele>
        <time>2021-07-05 10:53:45</time>
      </trkpt>
      <trkpt lat="28.43386" lon="-14.06268">
        <ele>507.4</ele>
        <time>2021-07-05 10:53:46</time>
      </trkpt>
      <trkpt lat="28.43388" lon="-14.06257">
        <ele>506.6</ele>
        <time>2021-07-05 10:53:47</time>
      </trkpt>
      <trkpt lat="28.4339" lon="-14.06246">
        <ele>506</ele>
        <time>2021-07-05 10:53:48</time>
      </trkpt>
      <trkpt lat="28.43392" lon="-14.06235">
        <ele>505.4</ele>
        <time>2021-07-05 10:53:49</time>
      </trkpt>
      <trkpt lat="28.43394" lon="-14.06224">
        <ele>504.2</ele>
        <time>2021-07-05 10:53:50</time>
      </trkpt>
      <trkpt lat="28.43397" lon="-14.06213">
        <ele>504.2</ele>
        <time>2021-07-05 10:53:51</time>
      </trkpt>
      <trkpt lat="28.434" lon="-14.06203">
        <ele>503.2</ele>
        <time>2021-07-05 10:53:52</time>
      </trkpt>
      <trkpt lat="28.43403" lon="-14.06193">
        <ele>503.2</ele>
        <time>2021-07-05 10:53:53</time>
      </trkpt>
      <trkpt lat="28.43407" lon="-14.06183">
        <ele>502</ele>
        <time>2021-07-05 10:53:54</time>
      </trkpt>
      <trkpt lat="28.43412" lon="-14.06174">
        <ele>502</ele>
        <time>2021-07-05 10:53:55</time>
      </trkpt>
      <trkpt lat="28.43417" lon="-14.06166">
        <ele>501.4</ele>
        <time>2021-07-05 10:53:56</time>
      </trkpt>
      <trkpt lat="28.43424" lon="-14.06158">
        <ele>500.8</ele>
        <time>2021-07-05 10:53:57</time>
      </trkpt>
      <trkpt lat="28.4343" lon="-14.06151">
        <ele>500.2</ele>
        <time>2021-07-05 10:53:58</time>
      </trkpt>
      <trkpt lat="28.43437" lon="-14.06144">
        <ele>499.6</ele>
        <time>2021-07-05 10:53:59</time>
      </trkpt>
      <trkpt lat="28.43445" lon="-14.06137">
        <ele>499</ele>
        <time>2021-07-05 10:54:00</time>
      </trkpt>
      <trkpt lat="28.43453" lon="-14.06131">
        <ele>498.2</ele>
        <time>2021-07-05 10:54:01</time>
      </trkpt>
      <trkpt lat="28.43463" lon="-14.06127">
        <ele>497.2</ele>
        <time>2021-07-05 10:54:02</time>
      </trkpt>
      <trkpt lat="28.43473" lon="-14.06124">
        <ele>496.4</ele>
        <time>2021-07-05 10:54:03</time>
      </trkpt>
      <trkpt lat="28.43483" lon="-14.06123">
        <ele>495.4</ele>
        <time>2021-07-05 10:54:04</time>
      </trkpt>
      <trkpt lat="28.43493" lon="-14.06121">
        <ele>493.4</ele>
        <time>2021-07-05 10:54:05</time>
      </trkpt>
      <trkpt lat="28.43504" lon="-14.0612">
        <ele>493.4</ele>
        <time>2021-07-05 10:54:06</time>
      </trkpt>
      <trkpt lat="28.43514" lon="-14.06118">
        <ele>492.4</ele>
        <time>2021-07-05 10:54:07</time>
      </trkpt>
      <trkpt lat="28.43524" lon="-14.06115">
        <ele>491.4</ele>
        <time>2021-07-05 10:54:08</time>
      </trkpt>
      <trkpt lat="28.43533" lon="-14.06109">
        <ele>490.2</ele>
        <time>2021-07-05 10:54:09</time>
      </trkpt>
      <trkpt lat="28.43542" lon="-14.06101">
        <ele>488</ele>
        <time>2021-07-05 10:54:10</time>
      </trkpt>
      <trkpt lat="28.43548" lon="-14.06091">
        <ele>487</ele>
        <time>2021-07-05 10:54:11</time>
      </trkpt>
      <trkpt lat="28.43554" lon="-14.06083">
        <ele>487</ele>
        <time>2021-07-05 10:54:12</time>
      </trkpt>
      <trkpt lat="28.43558" lon="-14.06074">
        <ele>485.8</ele>
        <time>2021-07-05 10:54:13</time>
      </trkpt>
      <trkpt lat="28.4356" lon="-14.06065">
        <ele>484.6</ele>
        <time>2021-07-05 10:54:14</time>
      </trkpt>
      <trkpt lat="28.4356" lon="-14.06057">
        <ele>483.4</ele>
        <time>2021-07-05 10:54:15</time>
      </trkpt>
      <trkpt lat="28.43556" lon="-14.06049">
        <ele>482</ele>
        <time>2021-07-05 10:54:16</time>
      </trkpt>
      <trkpt lat="28.43549" lon="-14.06045">
        <ele>480.8</ele>
        <time>2021-07-05 10:54:17</time>
      </trkpt>
      <trkpt lat="28.4354" lon="-14.06043">
        <ele>479.6</ele>
        <time>2021-07-05 10:54:18</time>
      </trkpt>
      <trkpt lat="28.4353" lon="-14.06041">
        <ele>478.4</ele>
        <time>2021-07-05 10:54:19</time>
      </trkpt>
      <trkpt lat="28.4352" lon="-14.0604">
        <ele>477</ele>
        <time>2021-07-05 10:54:20</time>
      </trkpt>
      <trkpt lat="28.43508" lon="-14.0604">
        <ele>475.8</ele>
        <time>2021-07-05 10:54:21</time>
      </trkpt>
      <trkpt lat="28.43496" lon="-14.06041">
        <ele>474.6</ele>
        <time>2021-07-05 10:54:22</time>
      </trkpt>
      <trkpt lat="28.43484" lon="-14.06041">
        <ele>473.4</ele>
        <time>2021-07-05 10:54:23</time>
      </trkpt>
      <trkpt lat="28.43472" lon="-14.06041">
        <ele>472.2</ele>
        <time>2021-07-05 10:54:24</time>
      </trkpt>
      <trkpt lat="28.4346" lon="-14.06039">
        <ele>471.2</ele>
        <time>2021-07-05 10:54:25</time>
      </trkpt>
      <trkpt lat="28.4345" lon="-14.06037">
        <ele>470.2</ele>
        <time>2021-07-05 10:54:26</time>
      </trkpt>
      <trkpt lat="28.43441" lon="-14.06031">
        <ele>469.2</ele>
        <time>2021-07-05 10:54:27</time>
      </trkpt>
      <trkpt lat="28.43434" lon="-14.06023">
        <ele>467.4</ele>
        <time>2021-07-05 10:54:28</time>
      </trkpt>
      <trkpt lat="28.43431" lon="-14.06013">
        <ele>466.8</ele>
        <time>2021-07-05 10:54:29</time>
      </trkpt>
      <trkpt lat="28.43427" lon="-14.06002">
        <ele>466.2</ele>
        <time>2021-07-05 10:54:30</time>
      </trkpt>
      <trkpt lat="28.43423" lon="-14.05992">
        <ele>465.6</ele>
        <time>2021-07-05 10:54:31</time>
      </trkpt>
      <trkpt lat="28.43419" lon="-14.0598">
        <ele>465</ele>
        <time>2021-07-05 10:54:32</time>
      </trkpt>
      <trkpt lat="28.43415" lon="-14.05969">
        <ele>465</ele>
        <time>2021-07-05 10:54:33</time>
      </trkpt>
      <trkpt lat="28.43411" lon="-14.05957">
        <ele>464.6</ele>
        <time>2021-07-05 10:54:34</time>
      </trkpt>
      <trkpt lat="28.43408" lon="-14.05944">
        <ele>463.2</ele>
        <time>2021-07-05 10:54:35</time>
      </trkpt>
      <trkpt lat="28.43405" lon="-14.05932">
        <ele>462.6</ele>
        <time>2021-07-05 10:54:36</time>
      </trkpt>
      <trkpt lat="28.43402" lon="-14.05921">
        <ele>462.6</ele>
        <time>2021-07-05 10:54:37</time>
      </trkpt>
      <trkpt lat="28.43398" lon="-14.0591">
        <ele>461.4</ele>
        <time>2021-07-05 10:54:38</time>
      </trkpt>
      <trkpt lat="28.43393" lon="-14.059">
        <ele>461.4</ele>
        <time>2021-07-05 10:54:39</time>
      </trkpt>
      <trkpt lat="28.43386" lon="-14.05891">
        <ele>460.8</ele>
        <time>2021-07-05 10:54:40</time>
      </trkpt>
      <trkpt lat="28.43377" lon="-14.05883">
        <ele>459.4</ele>
        <time>2021-07-05 10:54:41</time>
      </trkpt>
      <trkpt lat="28.43368" lon="-14.05876">
        <ele>459.4</ele>
        <time>2021-07-05 10:54:42</time>
      </trkpt>
      <trkpt lat="28.43358" lon="-14.05872">
        <ele>458</ele>
        <time>2021-07-05 10:54:43</time>
      </trkpt>
      <trkpt lat="28.43347" lon="-14.0587">
        <ele>458</ele>
        <time>2021-07-05 10:54:44</time>
      </trkpt>
      <trkpt lat="28.43336" lon="-14.0587">
        <ele>456.6</ele>
        <time>2021-07-05 10:54:45</time>
      </trkpt>
      <trkpt lat="28.43325" lon="-14.05871">
        <ele>456.6</ele>
        <time>2021-07-05 10:54:46</time>
      </trkpt>
      <trkpt lat="28.43314" lon="-14.05871">
        <ele>454.8</ele>
        <time>2021-07-05 10:54:47</time>
      </trkpt>
      <trkpt lat="28.43301" lon="-14.05872">
        <ele>453.8</ele>
        <time>2021-07-05 10:54:48</time>
      </trkpt>
      <trkpt lat="28.43289" lon="-14.05873">
        <ele>453.8</ele>
        <time>2021-07-05 10:54:49</time>
      </trkpt>
      <trkpt lat="28.43277" lon="-14.05874">
        <ele>453</ele>
        <time>2021-07-05 10:54:50</time>
      </trkpt>
      <trkpt lat="28.43265" lon="-14.05875">
        <ele>451.2</ele>
        <time>2021-07-05 10:54:51</time>
      </trkpt>
      <trkpt lat="28.43253" lon="-14.05877">
        <ele>451.2</ele>
        <time>2021-07-05 10:54:52</time>
      </trkpt>
      <trkpt lat="28.43243" lon="-14.05879">
        <ele>450.4</ele>
        <time>2021-07-05 10:54:53</time>
      </trkpt>
      <trkpt lat="28.43232" lon="-14.05884">
        <ele>448.4</ele>
        <time>2021-07-05 10:54:54</time>
      </trkpt>
      <trkpt lat="28.43223" lon="-14.05892">
        <ele>448.4</ele>
        <time>2021-07-05 10:54:55</time>
      </trkpt>
      <trkpt lat="28.43213" lon="-14.05901">
        <ele>447.4</ele>
        <time>2021-07-05 10:54:56</time>
      </trkpt>
      <trkpt lat="28.43204" lon="-14.0591">
        <ele>446.4</ele>
        <time>2021-07-05 10:54:57</time>
      </trkpt>
      <trkpt lat="28.43194" lon="-14.05919">
        <ele>445.6</ele>
        <time>2021-07-05 10:54:58</time>
      </trkpt>
      <trkpt lat="28.43183" lon="-14.05926">
        <ele>444.6</ele>
        <time>2021-07-05 10:54:59</time>
      </trkpt>
      <trkpt lat="28.43171" lon="-14.05933">
        <ele>442.2</ele>
        <time>2021-07-05 10:55:00</time>
      </trkpt>
      <trkpt lat="28.43159" lon="-14.05938">
        <ele>441</ele>
        <time>2021-07-05 10:55:01</time>
      </trkpt>
      <trkpt lat="28.43146" lon="-14.05942">
        <ele>439.8</ele>
        <time>2021-07-05 10:55:02</time>
      </trkpt>
      <trkpt lat="28.43133" lon="-14.05947">
        <ele>439.8</ele>
        <time>2021-07-05 10:55:03</time>
      </trkpt>
      <trkpt lat="28.4312" lon="-14.0595">
        <ele>438.8</ele>
        <time>2021-07-05 10:55:04</time>
      </trkpt>
      <trkpt lat="28.43107" lon="-14.05955">
        <ele>437.6</ele>
        <time>2021-07-05 10:55:05</time>
      </trkpt>
      <trkpt lat="28.43095" lon="-14.05959">
        <ele>436.6</ele>
        <time>2021-07-05 10:55:06</time>
      </trkpt>
      <trkpt lat="28.43084" lon="-14.05964">
        <ele>435.4</ele>
        <time>2021-07-05 10:55:07</time>
      </trkpt>
      <trkpt lat="28.43072" lon="-14.05967">
        <ele>434.4</ele>
        <time>2021-07-05 10:55:08</time>
      </trkpt>
      <trkpt lat="28.4306" lon="-14.05967">
        <ele>433.4</ele>
        <time>2021-07-05 10:55:09</time>
      </trkpt>
      <trkpt lat="28.43048" lon="-14.05965">
        <ele>431.6</ele>
        <time>2021-07-05 10:55:10</time>
      </trkpt>
      <trkpt lat="28.43037" lon="-14.05961">
        <ele>431.6</ele>
        <time>2021-07-05 10:55:11</time>
      </trkpt>
      <trkpt lat="28.43026" lon="-14.05956">
        <ele>430.6</ele>
        <time>2021-07-05 10:55:12</time>
      </trkpt>
      <trkpt lat="28.43015" lon="-14.05951">
        <ele>429.8</ele>
        <time>2021-07-05 10:55:13</time>
      </trkpt>
      <trkpt lat="28.43004" lon="-14.05946">
        <ele>429</ele>
        <time>2021-07-05 10:55:14</time>
      </trkpt>
      <trkpt lat="28.42993" lon="-14.0594">
        <ele>428.2</ele>
        <time>2021-07-05 10:55:15</time>
      </trkpt>
      <trkpt lat="28.42982" lon="-14.05933">
        <ele>427.2</ele>
        <time>2021-07-05 10:55:16</time>
      </trkpt>
      <trkpt lat="28.42971" lon="-14.05926">
        <ele>426.4</ele>
        <time>2021-07-05 10:55:17</time>
      </trkpt>
      <trkpt lat="28.42961" lon="-14.05919">
        <ele>425.4</ele>
        <time>2021-07-05 10:55:18</time>
      </trkpt>
      <trkpt lat="28.42951" lon="-14.05912">
        <ele>424.6</ele>
        <time>2021-07-05 10:55:19</time>
      </trkpt>
      <trkpt lat="28.4294" lon="-14.05904">
        <ele>423.8</ele>
        <time>2021-07-05 10:55:20</time>
      </trkpt>
      <trkpt lat="28.42931" lon="-14.05895">
        <ele>423</ele>
        <time>2021-07-05 10:55:21</time>
      </trkpt>
      <trkpt lat="28.42923" lon="-14.05884">
        <ele>422</ele>
        <time>2021-07-05 10:55:22</time>
      </trkpt>
      <trkpt lat="28.42916" lon="-14.05873">
        <ele>420.8</ele>
        <time>2021-07-05 10:55:23</time>
      </trkpt>
      <trkpt lat="28.42909" lon="-14.05863">
        <ele>420.8</ele>
        <time>2021-07-05 10:55:24</time>
      </trkpt>
      <trkpt lat="28.42903" lon="-14.05855">
        <ele>420</ele>
        <time>2021-07-05 10:55:25</time>
      </trkpt>
      <trkpt lat="28.42898" lon="-14.05847">
        <ele>419</ele>
        <time>2021-07-05 10:55:26</time>
      </trkpt>
      <trkpt lat="28.42891" lon="-14.0584">
        <ele>418.2</ele>
        <time>2021-07-05 10:55:27</time>
      </trkpt>
      <trkpt lat="28.42884" lon="-14.05833">
        <ele>416.4</ele>
        <time>2021-07-05 10:55:28</time>
      </trkpt>
      <trkpt lat="28.42876" lon="-14.05828">
        <ele>416.4</ele>
        <time>2021-07-05 10:55:29</time>
      </trkpt>
      <trkpt lat="28.42868" lon="-14.05823">
        <ele>415.4</ele>
        <time>2021-07-05 10:55:30</time>
      </trkpt>
      <trkpt lat="28.42859" lon="-14.0582">
        <ele>414.4</ele>
        <time>2021-07-05 10:55:31</time>
      </trkpt>
      <trkpt lat="28.42851" lon="-14.05817">
        <ele>413.6</ele>
        <time>2021-07-05 10:55:32</time>
      </trkpt>
      <trkpt lat="28.42842" lon="-14.05815">
        <ele>412.8</ele>
        <time>2021-07-05 10:55:33</time>
      </trkpt>
      <trkpt lat="28.42838" lon="-14.05814">
        <ele>412</ele>
        <time>2021-07-05 10:55:34</time>
      </trkpt>
      <trkpt lat="28.42832" lon="-14.05812">
        <ele>410.6</ele>
        <time>2021-07-05 10:55:35</time>
      </trkpt>
      <trkpt lat="28.42827" lon="-14.05811">
        <ele>410.6</ele>
        <time>2021-07-05 10:55:36</time>
      </trkpt>
      <trkpt lat="28.42823" lon="-14.0581">
        <ele>409.8</ele>
        <time>2021-07-05 10:55:37</time>
      </trkpt>
      <trkpt lat="28.42818" lon="-14.05808">
        <ele>409.2</ele>
        <time>2021-07-05 10:55:38</time>
      </trkpt>
      <trkpt lat="28.42814" lon="-14.05807">
        <ele>408.6</ele>
        <time>2021-07-05 10:55:39</time>
      </trkpt>
      <trkpt lat="28.42809" lon="-14.05806">
        <ele>408.2</ele>
        <time>2021-07-05 10:55:40</time>
      </trkpt>
      <trkpt lat="28.42806" lon="-14.05806">
        <ele>407.6</ele>
        <time>2021-07-05 10:55:41</time>
      </trkpt>
      <trkpt lat="28.42804" lon="-14.05806">
        <ele>407</ele>
        <time>2021-07-05 10:55:42</time>
      </trkpt>
      <trkpt lat="28.42803" lon="-14.05806">
        <ele>406.6</ele>
        <time>2021-07-05 10:55:43</time>
      </trkpt>
      <trkpt lat="28.42803" lon="-14.05806">
        <ele>406.6</ele>
        <time>2021-07-05 10:55:44</time>
      </trkpt>
      <trkpt lat="28.42803" lon="-14.05806">
        <ele>406.2</ele>
        <time>2021-07-05 10:55:45</time>
      </trkpt>
      <trkpt lat="28.428" lon="-14.05806">
        <ele>405.6</ele>
        <time>2021-07-05 10:55:49</time>
      </trkpt>
      <trkpt lat="28.42798" lon="-14.05805">
        <ele>405.6</ele>
        <time>2021-07-05 10:55:50</time>
      </trkpt>
      <trkpt lat="28.42795" lon="-14.05804">
        <ele>405.6</ele>
        <time>2021-07-05 10:55:51</time>
      </trkpt>
      <trkpt lat="28.42792" lon="-14.05803">
        <ele>405.2</ele>
        <time>2021-07-05 10:55:52</time>
      </trkpt>
      <trkpt lat="28.42788" lon="-14.05802">
        <ele>405.2</ele>
        <time>2021-07-05 10:55:53</time>
      </trkpt>
      <trkpt lat="28.42784" lon="-14.058">
        <ele>405</ele>
        <time>2021-07-05 10:55:54</time>
      </trkpt>
      <trkpt lat="28.4278" lon="-14.05798">
        <ele>404.8</ele>
        <time>2021-07-05 10:55:55</time>
      </trkpt>
      <trkpt lat="28.42775" lon="-14.05796">
        <ele>404.8</ele>
        <time>2021-07-05 10:55:56</time>
      </trkpt>
      <trkpt lat="28.4277" lon="-14.05795">
        <ele>404.2</ele>
        <time>2021-07-05 10:55:57</time>
      </trkpt>
      <trkpt lat="28.42764" lon="-14.05793">
        <ele>404.2</ele>
        <time>2021-07-05 10:55:58</time>
      </trkpt>
      <trkpt lat="28.42758" lon="-14.05792">
        <ele>404</ele>
        <time>2021-07-05 10:55:59</time>
      </trkpt>
      <trkpt lat="28.42752" lon="-14.0579">
        <ele>404</ele>
        <time>2021-07-05 10:56:00</time>
      </trkpt>
      <trkpt lat="28.42746" lon="-14.05789">
        <ele>403.2</ele>
        <time>2021-07-05 10:56:01</time>
      </trkpt>
      <trkpt lat="28.42738" lon="-14.05787">
        <ele>403.2</ele>
        <time>2021-07-05 10:56:02</time>
      </trkpt>
      <trkpt lat="28.42731" lon="-14.05785">
        <ele>402.8</ele>
        <time>2021-07-05 10:56:03</time>
      </trkpt>
      <trkpt lat="28.42723" lon="-14.05782">
        <ele>402.6</ele>
        <time>2021-07-05 10:56:04</time>
      </trkpt>
      <trkpt lat="28.42716" lon="-14.0578">
        <ele>402.2</ele>
        <time>2021-07-05 10:56:05</time>
      </trkpt>
      <trkpt lat="28.42708" lon="-14.05778">
        <ele>401.8</ele>
        <time>2021-07-05 10:56:06</time>
      </trkpt>
      <trkpt lat="28.42699" lon="-14.05776">
        <ele>401.6</ele>
        <time>2021-07-05 10:56:07</time>
      </trkpt>
      <trkpt lat="28.42691" lon="-14.05774">
        <ele>401.2</ele>
        <time>2021-07-05 10:56:08</time>
      </trkpt>
      <trkpt lat="28.42683" lon="-14.05772">
        <ele>400.4</ele>
        <time>2021-07-05 10:56:09</time>
      </trkpt>
      <trkpt lat="28.42674" lon="-14.0577">
        <ele>400.4</ele>
        <time>2021-07-05 10:56:10</time>
      </trkpt>
      <trkpt lat="28.42666" lon="-14.05769">
        <ele>400</ele>
        <time>2021-07-05 10:56:11</time>
      </trkpt>
      <trkpt lat="28.42658" lon="-14.05768">
        <ele>399</ele>
        <time>2021-07-05 10:56:12</time>
      </trkpt>
      <trkpt lat="28.42649" lon="-14.05768">
        <ele>398.4</ele>
        <time>2021-07-05 10:56:13</time>
      </trkpt>
      <trkpt lat="28.42641" lon="-14.05768">
        <ele>398.4</ele>
        <time>2021-07-05 10:56:14</time>
      </trkpt>
      <trkpt lat="28.42634" lon="-14.05769">
        <ele>397.8</ele>
        <time>2021-07-05 10:56:15</time>
      </trkpt>
      <trkpt lat="28.42627" lon="-14.05769">
        <ele>397.2</ele>
        <time>2021-07-05 10:56:16</time>
      </trkpt>
      <trkpt lat="28.42619" lon="-14.05767">
        <ele>396.4</ele>
        <time>2021-07-05 10:56:17</time>
      </trkpt>
      <trkpt lat="28.42612" lon="-14.05764">
        <ele>395.6</ele>
        <time>2021-07-05 10:56:18</time>
      </trkpt>
      <trkpt lat="28.42605" lon="-14.05758">
        <ele>393.8</ele>
        <time>2021-07-05 10:56:19</time>
      </trkpt>
      <trkpt lat="28.426" lon="-14.05751">
        <ele>393</ele>
        <time>2021-07-05 10:56:20</time>
      </trkpt>
      <trkpt lat="28.42595" lon="-14.05745">
        <ele>393</ele>
        <time>2021-07-05 10:56:21</time>
      </trkpt>
      <trkpt lat="28.4259" lon="-14.05739">
        <ele>392.2</ele>
        <time>2021-07-05 10:56:22</time>
      </trkpt>
      <trkpt lat="28.42584" lon="-14.05733">
        <ele>391.2</ele>
        <time>2021-07-05 10:56:23</time>
      </trkpt>
      <trkpt lat="28.42579" lon="-14.05728">
        <ele>390.2</ele>
        <time>2021-07-05 10:56:24</time>
      </trkpt>
      <trkpt lat="28.42574" lon="-14.05722">
        <ele>389.2</ele>
        <time>2021-07-05 10:56:25</time>
      </trkpt>
      <trkpt lat="28.42569" lon="-14.05716">
        <ele>388.2</ele>
        <time>2021-07-05 10:56:26</time>
      </trkpt>
      <trkpt lat="28.42565" lon="-14.05712">
        <ele>387.2</ele>
        <time>2021-07-05 10:56:27</time>
      </trkpt>
      <trkpt lat="28.4256" lon="-14.05707">
        <ele>386.2</ele>
        <time>2021-07-05 10:56:28</time>
      </trkpt>
      <trkpt lat="28.42556" lon="-14.05702">
        <ele>385.4</ele>
        <time>2021-07-05 10:56:29</time>
      </trkpt>
      <trkpt lat="28.42553" lon="-14.05698">
        <ele>384.6</ele>
        <time>2021-07-05 10:56:30</time>
      </trkpt>
      <trkpt lat="28.4255" lon="-14.05692">
        <ele>384</ele>
        <time>2021-07-05 10:56:31</time>
      </trkpt>
      <trkpt lat="28.42547" lon="-14.05686">
        <ele>383.4</ele>
        <time>2021-07-05 10:56:32</time>
      </trkpt>
      <trkpt lat="28.42547" lon="-14.05678">
        <ele>382.8</ele>
        <time>2021-07-05 10:56:33</time>
      </trkpt>
      <trkpt lat="28.42544" lon="-14.05672">
        <ele>382.4</ele>
        <time>2021-07-05 10:56:34</time>
      </trkpt>
      <trkpt lat="28.42539" lon="-14.05666">
        <ele>382.2</ele>
        <time>2021-07-05 10:56:35</time>
      </trkpt>
      <trkpt lat="28.42534" lon="-14.05661">
        <ele>381.8</ele>
        <time>2021-07-05 10:56:36</time>
      </trkpt>
      <trkpt lat="28.42528" lon="-14.05658">
        <ele>381.4</ele>
        <time>2021-07-05 10:56:37</time>
      </trkpt>
      <trkpt lat="28.42522" lon="-14.05656">
        <ele>381.2</ele>
        <time>2021-07-05 10:56:38</time>
      </trkpt>
      <trkpt lat="28.42516" lon="-14.05655">
        <ele>380.8</ele>
        <time>2021-07-05 10:56:39</time>
      </trkpt>
      <trkpt lat="28.4251" lon="-14.05655">
        <ele>380.8</ele>
        <time>2021-07-05 10:56:40</time>
      </trkpt>
      <trkpt lat="28.42504" lon="-14.05654">
        <ele>380.8</ele>
        <time>2021-07-05 10:56:41</time>
      </trkpt>
      <trkpt lat="28.42498" lon="-14.05653">
        <ele>380.4</ele>
        <time>2021-07-05 10:56:42</time>
      </trkpt>
      <trkpt lat="28.42492" lon="-14.05653">
        <ele>380.4</ele>
        <time>2021-07-05 10:56:43</time>
      </trkpt>
      <trkpt lat="28.42486" lon="-14.05652">
        <ele>380.4</ele>
        <time>2021-07-05 10:56:44</time>
      </trkpt>
      <trkpt lat="28.42481" lon="-14.05652">
        <ele>380.2</ele>
        <time>2021-07-05 10:56:45</time>
      </trkpt>
      <trkpt lat="28.42475" lon="-14.05651">
        <ele>380.2</ele>
        <time>2021-07-05 10:56:46</time>
      </trkpt>
      <trkpt lat="28.4247" lon="-14.0565">
        <ele>380.2</ele>
        <time>2021-07-05 10:56:47</time>
      </trkpt>
      <trkpt lat="28.42465" lon="-14.0565">
        <ele>380.2</ele>
        <time>2021-07-05 10:56:48</time>
      </trkpt>
      <trkpt lat="28.4246" lon="-14.05649">
        <ele>380.2</ele>
        <time>2021-07-05 10:56:49</time>
      </trkpt>
      <trkpt lat="28.42454" lon="-14.05648">
        <ele>380.2</ele>
        <time>2021-07-05 10:56:50</time>
      </trkpt>
      <trkpt lat="28.42449" lon="-14.05648">
        <ele>380.2</ele>
        <time>2021-07-05 10:56:51</time>
      </trkpt>
      <trkpt lat="28.42443" lon="-14.05648">
        <ele>380.2</ele>
        <time>2021-07-05 10:56:52</time>
      </trkpt>
      <trkpt lat="28.42438" lon="-14.05647">
        <ele>380.2</ele>
        <time>2021-07-05 10:56:53</time>
      </trkpt>
      <trkpt lat="28.42432" lon="-14.05647">
        <ele>380.2</ele>
        <time>2021-07-05 10:56:54</time>
      </trkpt>
      <trkpt lat="28.42427" lon="-14.05647">
        <ele>380.2</ele>
        <time>2021-07-05 10:56:55</time>
      </trkpt>
      <trkpt lat="28.42421" lon="-14.05648">
        <ele>380.2</ele>
        <time>2021-07-05 10:56:56</time>
      </trkpt>
      <trkpt lat="28.42416" lon="-14.05648">
        <ele>380.4</ele>
        <time>2021-07-05 10:56:57</time>
      </trkpt>
      <trkpt lat="28.42411" lon="-14.05649">
        <ele>380.4</ele>
        <time>2021-07-05 10:56:58</time>
      </trkpt>
      <trkpt lat="28.42405" lon="-14.05649">
        <ele>380.4</ele>
        <time>2021-07-05 10:56:59</time>
      </trkpt>
      <trkpt lat="28.424" lon="-14.05651">
        <ele>380.4</ele>
        <time>2021-07-05 10:57:00</time>
      </trkpt>
      <trkpt lat="28.42395" lon="-14.05652">
        <ele>380.4</ele>
        <time>2021-07-05 10:57:01</time>
      </trkpt>
      <trkpt lat="28.4239" lon="-14.05653">
        <ele>380.4</ele>
        <time>2021-07-05 10:57:02</time>
      </trkpt>
      <trkpt lat="28.42384" lon="-14.05655">
        <ele>380.4</ele>
        <time>2021-07-05 10:57:03</time>
      </trkpt>
      <trkpt lat="28.42379" lon="-14.05656">
        <ele>380.2</ele>
        <time>2021-07-05 10:57:04</time>
      </trkpt>
      <trkpt lat="28.42374" lon="-14.05657">
        <ele>380.2</ele>
        <time>2021-07-05 10:57:05</time>
      </trkpt>
      <trkpt lat="28.42369" lon="-14.05659">
        <ele>380.2</ele>
        <time>2021-07-05 10:57:06</time>
      </trkpt>
      <trkpt lat="28.42365" lon="-14.05661">
        <ele>380.2</ele>
        <time>2021-07-05 10:57:07</time>
      </trkpt>
      <trkpt lat="28.4236" lon="-14.05663">
        <ele>380.2</ele>
        <time>2021-07-05 10:57:08</time>
      </trkpt>
      <trkpt lat="28.42355" lon="-14.05665">
        <ele>380.2</ele>
        <time>2021-07-05 10:57:09</time>
      </trkpt>
      <trkpt lat="28.4235" lon="-14.05668">
        <ele>380.2</ele>
        <time>2021-07-05 10:57:10</time>
      </trkpt>
      <trkpt lat="28.42345" lon="-14.05671">
        <ele>380.2</ele>
        <time>2021-07-05 10:57:11</time>
      </trkpt>
      <trkpt lat="28.42341" lon="-14.05675">
        <ele>380</ele>
        <time>2021-07-05 10:57:12</time>
      </trkpt>
      <trkpt lat="28.42336" lon="-14.05679">
        <ele>380</ele>
        <time>2021-07-05 10:57:13</time>
      </trkpt>
      <trkpt lat="28.42331" lon="-14.05683">
        <ele>380</ele>
        <time>2021-07-05 10:57:14</time>
      </trkpt>
      <trkpt lat="28.42325" lon="-14.05687">
        <ele>379.8</ele>
        <time>2021-07-05 10:57:15</time>
      </trkpt>
      <trkpt lat="28.4232" lon="-14.05692">
        <ele>379.8</ele>
        <time>2021-07-05 10:57:16</time>
      </trkpt>
      <trkpt lat="28.42315" lon="-14.05697">
        <ele>379.6</ele>
        <time>2021-07-05 10:57:17</time>
      </trkpt>
      <trkpt lat="28.4231" lon="-14.05702">
        <ele>379.6</ele>
        <time>2021-07-05 10:57:18</time>
      </trkpt>
      <trkpt lat="28.42305" lon="-14.05708">
        <ele>379.2</ele>
        <time>2021-07-05 10:57:19</time>
      </trkpt>
      <trkpt lat="28.423" lon="-14.05714">
        <ele>379.2</ele>
        <time>2021-07-05 10:57:20</time>
      </trkpt>
      <trkpt lat="28.42296" lon="-14.05721">
        <ele>379</ele>
        <time>2021-07-05 10:57:21</time>
      </trkpt>
      <trkpt lat="28.42292" lon="-14.05728">
        <ele>379</ele>
        <time>2021-07-05 10:57:22</time>
      </trkpt>
      <trkpt lat="28.42288" lon="-14.05735">
        <ele>379</ele>
        <time>2021-07-05 10:57:23</time>
      </trkpt>
      <trkpt lat="28.42284" lon="-14.05741">
        <ele>379</ele>
        <time>2021-07-05 10:57:24</time>
      </trkpt>
      <trkpt lat="28.4228" lon="-14.05748">
        <ele>378.6</ele>
        <time>2021-07-05 10:57:25</time>
      </trkpt>
      <trkpt lat="28.42275" lon="-14.05754">
        <ele>378.6</ele>
        <time>2021-07-05 10:57:26</time>
      </trkpt>
      <trkpt lat="28.4227" lon="-14.05759">
        <ele>378.6</ele>
        <time>2021-07-05 10:57:27</time>
      </trkpt>
      <trkpt lat="28.42265" lon="-14.05765">
        <ele>378.4</ele>
        <time>2021-07-05 10:57:28</time>
      </trkpt>
      <trkpt lat="28.42259" lon="-14.0577">
        <ele>378.4</ele>
        <time>2021-07-05 10:57:29</time>
      </trkpt>
      <trkpt lat="28.42253" lon="-14.05774">
        <ele>378</ele>
        <time>2021-07-05 10:57:30</time>
      </trkpt>
      <trkpt lat="28.42247" lon="-14.05779">
        <ele>377.8</ele>
        <time>2021-07-05 10:57:31</time>
      </trkpt>
      <trkpt lat="28.42241" lon="-14.05784">
        <ele>377.4</ele>
        <time>2021-07-05 10:57:32</time>
      </trkpt>
      <trkpt lat="28.42234" lon="-14.05789">
        <ele>377.2</ele>
        <time>2021-07-05 10:57:33</time>
      </trkpt>
      <trkpt lat="28.42227" lon="-14.05794">
        <ele>376.6</ele>
        <time>2021-07-05 10:57:34</time>
      </trkpt>
      <trkpt lat="28.4222" lon="-14.05799">
        <ele>376.2</ele>
        <time>2021-07-05 10:57:35</time>
      </trkpt>
      <trkpt lat="28.42212" lon="-14.05804">
        <ele>376.2</ele>
        <time>2021-07-05 10:57:36</time>
      </trkpt>
      <trkpt lat="28.42204" lon="-14.0581">
        <ele>376</ele>
        <time>2021-07-05 10:57:37</time>
      </trkpt>
      <trkpt lat="28.42196" lon="-14.05814">
        <ele>375.4</ele>
        <time>2021-07-05 10:57:38</time>
      </trkpt>
      <trkpt lat="28.42188" lon="-14.05819">
        <ele>375.4</ele>
        <time>2021-07-05 10:57:39</time>
      </trkpt>
      <trkpt lat="28.42179" lon="-14.05823">
        <ele>375</ele>
        <time>2021-07-05 10:57:40</time>
      </trkpt>
      <trkpt lat="28.4217" lon="-14.05828">
        <ele>374</ele>
        <time>2021-07-05 10:57:41</time>
      </trkpt>
      <trkpt lat="28.4216" lon="-14.05832">
        <ele>373.4</ele>
        <time>2021-07-05 10:57:42</time>
      </trkpt>
      <trkpt lat="28.4215" lon="-14.05834">
        <ele>373.4</ele>
        <time>2021-07-05 10:57:43</time>
      </trkpt>
      <trkpt lat="28.42139" lon="-14.05836">
        <ele>372.8</ele>
        <time>2021-07-05 10:57:44</time>
      </trkpt>
      <trkpt lat="28.42127" lon="-14.05835">
        <ele>372</ele>
        <time>2021-07-05 10:57:45</time>
      </trkpt>
      <trkpt lat="28.42116" lon="-14.05833">
        <ele>371.2</ele>
        <time>2021-07-05 10:57:46</time>
      </trkpt>
      <trkpt lat="28.42104" lon="-14.05831">
        <ele>370.4</ele>
        <time>2021-07-05 10:57:47</time>
      </trkpt>
      <trkpt lat="28.42093" lon="-14.05829">
        <ele>369.8</ele>
        <time>2021-07-05 10:57:48</time>
      </trkpt>
      <trkpt lat="28.42081" lon="-14.05829">
        <ele>369.4</ele>
        <time>2021-07-05 10:57:49</time>
      </trkpt>
      <trkpt lat="28.4207" lon="-14.05831">
        <ele>368.8</ele>
        <time>2021-07-05 10:57:50</time>
      </trkpt>
      <trkpt lat="28.42059" lon="-14.05834">
        <ele>368.2</ele>
        <time>2021-07-05 10:57:51</time>
      </trkpt>
      <trkpt lat="28.42049" lon="-14.05838">
        <ele>367.8</ele>
        <time>2021-07-05 10:57:52</time>
      </trkpt>
      <trkpt lat="28.42039" lon="-14.05842">
        <ele>367.4</ele>
        <time>2021-07-05 10:57:53</time>
      </trkpt>
      <trkpt lat="28.4203" lon="-14.05846">
        <ele>366.6</ele>
        <time>2021-07-05 10:57:54</time>
      </trkpt>
      <trkpt lat="28.42021" lon="-14.0585">
        <ele>366.2</ele>
        <time>2021-07-05 10:57:55</time>
      </trkpt>
      <trkpt lat="28.42012" lon="-14.05854">
        <ele>366</ele>
        <time>2021-07-05 10:57:56</time>
      </trkpt>
      <trkpt lat="28.42005" lon="-14.05858">
        <ele>366</ele>
        <time>2021-07-05 10:57:57</time>
      </trkpt>
      <trkpt lat="28.41999" lon="-14.05861">
        <ele>365.4</ele>
        <time>2021-07-05 10:57:58</time>
      </trkpt>
      <trkpt lat="28.41995" lon="-14.05863">
        <ele>365.4</ele>
        <time>2021-07-05 10:57:59</time>
      </trkpt>
      <trkpt lat="28.41993" lon="-14.05865">
        <ele>365.4</ele>
        <time>2021-07-05 10:58:00</time>
      </trkpt>
      <trkpt lat="28.41993" lon="-14.05868">
        <ele>365.2</ele>
        <time>2021-07-05 10:58:01</time>
      </trkpt>
      <trkpt lat="28.41994" lon="-14.0587">
        <ele>365.2</ele>
        <time>2021-07-05 10:58:02</time>
      </trkpt>
      <trkpt lat="28.41995" lon="-14.0587">
        <ele>364.8</ele>
        <time>2021-07-05 10:58:03</time>
      </trkpt>
      <trkpt lat="28.41997" lon="-14.05871">
        <ele>364.6</ele>
        <time>2021-07-05 10:58:04</time>
      </trkpt>
      <trkpt lat="28.41998" lon="-14.05871">
        <ele>364.4</ele>
        <time>2021-07-05 10:58:05</time>
      </trkpt>
      <trkpt lat="28.42" lon="-14.05871">
        <ele>364</ele>
        <time>2021-07-05 10:58:06</time>
      </trkpt>
      <trkpt lat="28.42001" lon="-14.0587">
        <ele>363.8</ele>
        <time>2021-07-05 10:58:07</time>
      </trkpt>
      <trkpt lat="28.42003" lon="-14.05869">
        <ele>363.8</ele>
        <time>2021-07-05 10:58:08</time>
      </trkpt>
      <trkpt lat="28.42004" lon="-14.05867">
        <ele>363.4</ele>
        <time>2021-07-05 10:58:09</time>
      </trkpt>
      <trkpt lat="28.42006" lon="-14.05865">
        <ele>363.2</ele>
        <time>2021-07-05 10:58:10</time>
      </trkpt>
      <trkpt lat="28.42007" lon="-14.05863">
        <ele>363.2</ele>
        <time>2021-07-05 10:58:11</time>
      </trkpt>
      <trkpt lat="28.42009" lon="-14.05862">
        <ele>363.2</ele>
        <time>2021-07-05 10:58:12</time>
      </trkpt>
      <trkpt lat="28.42011" lon="-14.0586">
        <ele>363.2</ele>
        <time>2021-07-05 10:58:13</time>
      </trkpt>
      <trkpt lat="28.42013" lon="-14.05859">
        <ele>363.2</ele>
        <time>2021-07-05 10:58:14</time>
      </trkpt>
      <trkpt lat="28.42015" lon="-14.05858">
        <ele>363.2</ele>
        <time>2021-07-05 10:58:15</time>
      </trkpt>
      <trkpt lat="28.42017" lon="-14.05856">
        <ele>363.2</ele>
        <time>2021-07-05 10:58:16</time>
      </trkpt>
      <trkpt lat="28.42019" lon="-14.05855">
        <ele>363.2</ele>
        <time>2021-07-05 10:58:17</time>
      </trkpt>
      <trkpt lat="28.42022" lon="-14.05853">
        <ele>363.2</ele>
        <time>2021-07-05 10:58:18</time>
      </trkpt>
      <trkpt lat="28.42024" lon="-14.05851">
        <ele>363.2</ele>
        <time>2021-07-05 10:58:19</time>
      </trkpt>
      <trkpt lat="28.42026" lon="-14.05849">
        <ele>363.6</ele>
        <time>2021-07-05 10:58:20</time>
      </trkpt>
      <trkpt lat="28.42028" lon="-14.05847">
        <ele>363.8</ele>
        <time>2021-07-05 10:58:21</time>
      </trkpt>
      <trkpt lat="28.4203" lon="-14.05844">
        <ele>363.8</ele>
        <time>2021-07-05 10:58:22</time>
      </trkpt>
      <trkpt lat="28.42032" lon="-14.05842">
        <ele>363.8</ele>
        <time>2021-07-05 10:58:23</time>
      </trkpt>
      <trkpt lat="28.42035" lon="-14.05839">
        <ele>363.8</ele>
        <time>2021-07-05 10:58:24</time>
      </trkpt>
      <trkpt lat="28.42038" lon="-14.05837">
        <ele>363.8</ele>
        <time>2021-07-05 10:58:25</time>
      </trkpt>
      <trkpt lat="28.42042" lon="-14.05836">
        <ele>363.8</ele>
        <time>2021-07-05 10:58:26</time>
      </trkpt>
      <trkpt lat="28.42046" lon="-14.05835">
        <ele>363.8</ele>
        <time>2021-07-05 10:58:27</time>
      </trkpt>
      <trkpt lat="28.42049" lon="-14.05834">
        <ele>363.8</ele>
        <time>2021-07-05 10:58:28</time>
      </trkpt>
      <trkpt lat="28.42053" lon="-14.05832">
        <ele>363.8</ele>
        <time>2021-07-05 10:58:29</time>
      </trkpt>
      <trkpt lat="28.42057" lon="-14.0583">
        <ele>363.8</ele>
        <time>2021-07-05 10:58:30</time>
      </trkpt>
      <trkpt lat="28.42061" lon="-14.05829">
        <ele>363.8</ele>
        <time>2021-07-05 10:58:31</time>
      </trkpt>
      <trkpt lat="28.42064" lon="-14.05828">
        <ele>364.2</ele>
        <time>2021-07-05 10:58:32</time>
      </trkpt>
      <trkpt lat="28.42068" lon="-14.05827">
        <ele>364.2</ele>
        <time>2021-07-05 10:58:33</time>
      </trkpt>
      <trkpt lat="28.42072" lon="-14.05826">
        <ele>364.2</ele>
        <time>2021-07-05 10:58:34</time>
      </trkpt>
      <trkpt lat="28.42076" lon="-14.05825">
        <ele>364.2</ele>
        <time>2021-07-05 10:58:35</time>
      </trkpt>
      <trkpt lat="28.4208" lon="-14.05825">
        <ele>364.4</ele>
        <time>2021-07-05 10:58:36</time>
      </trkpt>
      <trkpt lat="28.42085" lon="-14.05824">
        <ele>364.6</ele>
        <time>2021-07-05 10:58:37</time>
      </trkpt>
      <trkpt lat="28.42089" lon="-14.05824">
        <ele>364.6</ele>
        <time>2021-07-05 10:58:38</time>
      </trkpt>
      <trkpt lat="28.42093" lon="-14.05824">
        <ele>365</ele>
        <time>2021-07-05 10:58:39</time>
      </trkpt>
      <trkpt lat="28.42097" lon="-14.05825">
        <ele>365</ele>
        <time>2021-07-05 10:58:40</time>
      </trkpt>
      <trkpt lat="28.42101" lon="-14.05826">
        <ele>365</ele>
        <time>2021-07-05 10:58:41</time>
      </trkpt>
      <trkpt lat="28.42105" lon="-14.05827">
        <ele>365</ele>
        <time>2021-07-05 10:58:42</time>
      </trkpt>
      <trkpt lat="28.42109" lon="-14.05828">
        <ele>365</ele>
        <time>2021-07-05 10:58:43</time>
      </trkpt>
      <trkpt lat="28.42113" lon="-14.05829">
        <ele>365.2</ele>
        <time>2021-07-05 10:58:44</time>
      </trkpt>
      <trkpt lat="28.42116" lon="-14.0583">
        <ele>365.2</ele>
        <time>2021-07-05 10:58:45</time>
      </trkpt>
      <trkpt lat="28.42119" lon="-14.05831">
        <ele>365.2</ele>
        <time>2021-07-05 10:58:46</time>
      </trkpt>
      <trkpt lat="28.42123" lon="-14.05832">
        <ele>365.2</ele>
        <time>2021-07-05 10:58:47</time>
      </trkpt>
      <trkpt lat="28.42125" lon="-14.05833">
        <ele>365.4</ele>
        <time>2021-07-05 10:58:48</time>
      </trkpt>
      <trkpt lat="28.42128" lon="-14.05834">
        <ele>365.4</ele>
        <time>2021-07-05 10:58:49</time>
      </trkpt>
      <trkpt lat="28.4213" lon="-14.05836">
        <ele>365.4</ele>
        <time>2021-07-05 10:58:50</time>
      </trkpt>
      <trkpt lat="28.42131" lon="-14.05837">
        <ele>365.6</ele>
        <time>2021-07-05 10:58:51</time>
      </trkpt>
      <trkpt lat="28.42131" lon="-14.05839">
        <ele>366</ele>
        <time>2021-07-05 10:58:52</time>
      </trkpt>
      <trkpt lat="28.42129" lon="-14.05841">
        <ele>366</ele>
        <time>2021-07-05 10:58:53</time>
      </trkpt>
      <trkpt lat="28.42125" lon="-14.05844">
        <ele>366</ele>
        <time>2021-07-05 10:58:54</time>
      </trkpt>
      <trkpt lat="28.42121" lon="-14.05845">
        <ele>366</ele>
        <time>2021-07-05 10:58:55</time>
      </trkpt>
      <trkpt lat="28.42117" lon="-14.05846">
        <ele>365.6</ele>
        <time>2021-07-05 10:58:56</time>
      </trkpt>
      <trkpt lat="28.42111" lon="-14.05842">
        <ele>365.2</ele>
        <time>2021-07-05 10:58:57</time>
      </trkpt>
      <trkpt lat="28.42106" lon="-14.0584">
        <ele>364.8</ele>
        <time>2021-07-05 10:58:58</time>
      </trkpt>
      <trkpt lat="28.42101" lon="-14.05838">
        <ele>364.4</ele>
        <time>2021-07-05 10:58:59</time>
      </trkpt>
      <trkpt lat="28.42094" lon="-14.05837">
        <ele>364</ele>
        <time>2021-07-05 10:59:00</time>
      </trkpt>
      <trkpt lat="28.42088" lon="-14.05838">
        <ele>363.6</ele>
        <time>2021-07-05 10:59:01</time>
      </trkpt>
      <trkpt lat="28.42082" lon="-14.05839">
        <ele>362.8</ele>
        <time>2021-07-05 10:59:02</time>
      </trkpt>
      <trkpt lat="28.42076" lon="-14.0584">
        <ele>362.8</ele>
        <time>2021-07-05 10:59:03</time>
      </trkpt>
      <trkpt lat="28.4207" lon="-14.05842">
        <ele>362.2</ele>
        <time>2021-07-05 10:59:04</time>
      </trkpt>
      <trkpt lat="28.42064" lon="-14.05844">
        <ele>362</ele>
        <time>2021-07-05 10:59:05</time>
      </trkpt>
      <trkpt lat="28.42057" lon="-14.05847">
        <ele>361.6</ele>
        <time>2021-07-05 10:59:06</time>
      </trkpt>
      <trkpt lat="28.42052" lon="-14.0585">
        <ele>361.4</ele>
        <time>2021-07-05 10:59:07</time>
      </trkpt>
      <trkpt lat="28.42046" lon="-14.05854">
        <ele>360.8</ele>
        <time>2021-07-05 10:59:08</time>
      </trkpt>
      <trkpt lat="28.4204" lon="-14.05858">
        <ele>360.8</ele>
        <time>2021-07-05 10:59:09</time>
      </trkpt>
      <trkpt lat="28.42034" lon="-14.05862">
        <ele>360.8</ele>
        <time>2021-07-05 10:59:10</time>
      </trkpt>
      <trkpt lat="28.42028" lon="-14.05867">
        <ele>360.4</ele>
        <time>2021-07-05 10:59:11</time>
      </trkpt>
      <trkpt lat="28.42022" lon="-14.05872">
        <ele>360.2</ele>
        <time>2021-07-05 10:59:12</time>
      </trkpt>
      <trkpt lat="28.42016" lon="-14.05877">
        <ele>360</ele>
        <time>2021-07-05 10:59:13</time>
      </trkpt>
      <trkpt lat="28.4201" lon="-14.05881">
        <ele>360</ele>
        <time>2021-07-05 10:59:14</time>
      </trkpt>
      <trkpt lat="28.42004" lon="-14.05884">
        <ele>359.8</ele>
        <time>2021-07-05 10:59:15</time>
      </trkpt>
      <trkpt lat="28.41997" lon="-14.05888">
        <ele>359.4</ele>
        <time>2021-07-05 10:59:16</time>
      </trkpt>
      <trkpt lat="28.41989" lon="-14.05892">
        <ele>359</ele>
        <time>2021-07-05 10:59:17</time>
      </trkpt>
      <trkpt lat="28.41982" lon="-14.05897">
        <ele>359</ele>
        <time>2021-07-05 10:59:18</time>
      </trkpt>
      <trkpt lat="28.41974" lon="-14.05901">
        <ele>358.2</ele>
        <time>2021-07-05 10:59:19</time>
      </trkpt>
      <trkpt lat="28.41968" lon="-14.05905">
        <ele>358.2</ele>
        <time>2021-07-05 10:59:20</time>
      </trkpt>
      <trkpt lat="28.41962" lon="-14.0591">
        <ele>357.8</ele>
        <time>2021-07-05 10:59:21</time>
      </trkpt>
      <trkpt lat="28.41956" lon="-14.05915">
        <ele>357.4</ele>
        <time>2021-07-05 10:59:22</time>
      </trkpt>
      <trkpt lat="28.41952" lon="-14.05921">
        <ele>357</ele>
        <time>2021-07-05 10:59:23</time>
      </trkpt>
      <trkpt lat="28.41948" lon="-14.05926">
        <ele>356.6</ele>
        <time>2021-07-05 10:59:24</time>
      </trkpt>
      <trkpt lat="28.41944" lon="-14.05931">
        <ele>356.6</ele>
        <time>2021-07-05 10:59:25</time>
      </trkpt>
      <trkpt lat="28.4194" lon="-14.05937">
        <ele>356.2</ele>
        <time>2021-07-05 10:59:26</time>
      </trkpt>
      <trkpt lat="28.41936" lon="-14.05942">
        <ele>355.8</ele>
        <time>2021-07-05 10:59:27</time>
      </trkpt>
      <trkpt lat="28.41933" lon="-14.05948">
        <ele>355.8</ele>
        <time>2021-07-05 10:59:28</time>
      </trkpt>
      <trkpt lat="28.4193" lon="-14.05954">
        <ele>355.8</ele>
        <time>2021-07-05 10:59:29</time>
      </trkpt>
      <trkpt lat="28.41925" lon="-14.05958">
        <ele>355.4</ele>
        <time>2021-07-05 10:59:30</time>
      </trkpt>
      <trkpt lat="28.41922" lon="-14.05963">
        <ele>355.4</ele>
        <time>2021-07-05 10:59:31</time>
      </trkpt>
      <trkpt lat="28.41917" lon="-14.05967">
        <ele>355.2</ele>
        <time>2021-07-05 10:59:32</time>
      </trkpt>
      <trkpt lat="28.41913" lon="-14.05971">
        <ele>355.2</ele>
        <time>2021-07-05 10:59:33</time>
      </trkpt>
      <trkpt lat="28.41908" lon="-14.05975">
        <ele>354.8</ele>
        <time>2021-07-05 10:59:34</time>
      </trkpt>
      <trkpt lat="28.41904" lon="-14.05978">
        <ele>354.2</ele>
        <time>2021-07-05 10:59:35</time>
      </trkpt>
      <trkpt lat="28.41899" lon="-14.05982">
        <ele>354</ele>
        <time>2021-07-05 10:59:36</time>
      </trkpt>
      <trkpt lat="28.41895" lon="-14.05986">
        <ele>354</ele>
        <time>2021-07-05 10:59:37</time>
      </trkpt>
      <trkpt lat="28.41891" lon="-14.05991">
        <ele>353.6</ele>
        <time>2021-07-05 10:59:38</time>
      </trkpt>
      <trkpt lat="28.41887" lon="-14.05995">
        <ele>353.6</ele>
        <time>2021-07-05 10:59:39</time>
      </trkpt>
      <trkpt lat="28.41883" lon="-14.06">
        <ele>353.2</ele>
        <time>2021-07-05 10:59:40</time>
      </trkpt>
      <trkpt lat="28.41879" lon="-14.06004">
        <ele>353</ele>
        <time>2021-07-05 10:59:41</time>
      </trkpt>
      <trkpt lat="28.41876" lon="-14.0601">
        <ele>353</ele>
        <time>2021-07-05 10:59:42</time>
      </trkpt>
      <trkpt lat="28.41873" lon="-14.06014">
        <ele>353</ele>
        <time>2021-07-05 10:59:43</time>
      </trkpt>
      <trkpt lat="28.4187" lon="-14.0602">
        <ele>353</ele>
        <time>2021-07-05 10:59:44</time>
      </trkpt>
      <trkpt lat="28.41868" lon="-14.06026">
        <ele>353</ele>
        <time>2021-07-05 10:59:45</time>
      </trkpt>
      <trkpt lat="28.41866" lon="-14.06032">
        <ele>352.6</ele>
        <time>2021-07-05 10:59:46</time>
      </trkpt>
      <trkpt lat="28.41864" lon="-14.06037">
        <ele>352.6</ele>
        <time>2021-07-05 10:59:47</time>
      </trkpt>
      <trkpt lat="28.41862" lon="-14.06043">
        <ele>352.6</ele>
        <time>2021-07-05 10:59:48</time>
      </trkpt>
      <trkpt lat="28.41861" lon="-14.06048">
        <ele>352.4</ele>
        <time>2021-07-05 10:59:49</time>
      </trkpt>
      <trkpt lat="28.41858" lon="-14.06054">
        <ele>352.4</ele>
        <time>2021-07-05 10:59:50</time>
      </trkpt>
      <trkpt lat="28.41855" lon="-14.06059">
        <ele>352.4</ele>
        <time>2021-07-05 10:59:51</time>
      </trkpt>
      <trkpt lat="28.41852" lon="-14.06063">
        <ele>352.4</ele>
        <time>2021-07-05 10:59:52</time>
      </trkpt>
      <trkpt lat="28.41848" lon="-14.06068">
        <ele>352.4</ele>
        <time>2021-07-05 10:59:53</time>
      </trkpt>
      <trkpt lat="28.41843" lon="-14.06071">
        <ele>352.2</ele>
        <time>2021-07-05 10:59:54</time>
      </trkpt>
      <trkpt lat="28.41838" lon="-14.06073">
        <ele>352.2</ele>
        <time>2021-07-05 10:59:55</time>
      </trkpt>
      <trkpt lat="28.41833" lon="-14.06074">
        <ele>351.8</ele>
        <time>2021-07-05 10:59:56</time>
      </trkpt>
      <trkpt lat="28.41828" lon="-14.06074">
        <ele>351.6</ele>
        <time>2021-07-05 10:59:57</time>
      </trkpt>
      <trkpt lat="28.41823" lon="-14.06073">
        <ele>351.6</ele>
        <time>2021-07-05 10:59:58</time>
      </trkpt>
      <trkpt lat="28.41818" lon="-14.06071">
        <ele>351.2</ele>
        <time>2021-07-05 10:59:59</time>
      </trkpt>
      <trkpt lat="28.41812" lon="-14.06069">
        <ele>351</ele>
        <time>2021-07-05 11:00:00</time>
      </trkpt>
      <trkpt lat="28.41807" lon="-14.06067">
        <ele>351</ele>
        <time>2021-07-05 11:00:01</time>
      </trkpt>
      <trkpt lat="28.41802" lon="-14.06065">
        <ele>350.6</ele>
        <time>2021-07-05 11:00:02</time>
      </trkpt>
      <trkpt lat="28.41797" lon="-14.06062">
        <ele>350.2</ele>
        <time>2021-07-05 11:00:03</time>
      </trkpt>
      <trkpt lat="28.41791" lon="-14.06059">
        <ele>349.8</ele>
        <time>2021-07-05 11:00:04</time>
      </trkpt>
      <trkpt lat="28.41787" lon="-14.06055">
        <ele>349.8</ele>
        <time>2021-07-05 11:00:05</time>
      </trkpt>
      <trkpt lat="28.41782" lon="-14.06051">
        <ele>349.4</ele>
        <time>2021-07-05 11:00:06</time>
      </trkpt>
      <trkpt lat="28.41778" lon="-14.06046">
        <ele>349.4</ele>
        <time>2021-07-05 11:00:07</time>
      </trkpt>
      <trkpt lat="28.41774" lon="-14.06041">
        <ele>349.4</ele>
        <time>2021-07-05 11:00:08</time>
      </trkpt>
      <trkpt lat="28.4177" lon="-14.06035">
        <ele>349.2</ele>
        <time>2021-07-05 11:00:09</time>
      </trkpt>
      <trkpt lat="28.41767" lon="-14.06029">
        <ele>349.2</ele>
        <time>2021-07-05 11:00:10</time>
      </trkpt>
      <trkpt lat="28.41763" lon="-14.06024">
        <ele>348.8</ele>
        <time>2021-07-05 11:00:11</time>
      </trkpt>
      <trkpt lat="28.4176" lon="-14.06018">
        <ele>348.8</ele>
        <time>2021-07-05 11:00:12</time>
      </trkpt>
      <trkpt lat="28.41757" lon="-14.06012">
        <ele>348.8</ele>
        <time>2021-07-05 11:00:13</time>
      </trkpt>
      <trkpt lat="28.41754" lon="-14.06006">
        <ele>348.8</ele>
        <time>2021-07-05 11:00:14</time>
      </trkpt>
      <trkpt lat="28.4175" lon="-14.06001">
        <ele>348.8</ele>
        <time>2021-07-05 11:00:15</time>
      </trkpt>
      <trkpt lat="28.41746" lon="-14.05996">
        <ele>348.6</ele>
        <time>2021-07-05 11:00:16</time>
      </trkpt>
      <trkpt lat="28.41742" lon="-14.05992">
        <ele>348.6</ele>
        <time>2021-07-05 11:00:17</time>
      </trkpt>
      <trkpt lat="28.41738" lon="-14.05988">
        <ele>348.6</ele>
        <time>2021-07-05 11:00:18</time>
      </trkpt>
      <trkpt lat="28.41733" lon="-14.05984">
        <ele>348.6</ele>
        <time>2021-07-05 11:00:19</time>
      </trkpt>
      <trkpt lat="28.41729" lon="-14.05981">
        <ele>348.2</ele>
        <time>2021-07-05 11:00:20</time>
      </trkpt>
      <trkpt lat="28.41724" lon="-14.05978">
        <ele>348.2</ele>
        <time>2021-07-05 11:00:21</time>
      </trkpt>
      <trkpt lat="28.41719" lon="-14.05975">
        <ele>347.8</ele>
        <time>2021-07-05 11:00:22</time>
      </trkpt>
      <trkpt lat="28.41713" lon="-14.05973">
        <ele>347.6</ele>
        <time>2021-07-05 11:00:23</time>
      </trkpt>
      <trkpt lat="28.41708" lon="-14.05971">
        <ele>347.6</ele>
        <time>2021-07-05 11:00:24</time>
      </trkpt>
      <trkpt lat="28.41703" lon="-14.0597">
        <ele>347.4</ele>
        <time>2021-07-05 11:00:25</time>
      </trkpt>
      <trkpt lat="28.41698" lon="-14.05968">
        <ele>347.4</ele>
        <time>2021-07-05 11:00:26</time>
      </trkpt>
      <trkpt lat="28.41693" lon="-14.05966">
        <ele>347</ele>
        <time>2021-07-05 11:00:27</time>
      </trkpt>
      <trkpt lat="28.41687" lon="-14.05964">
        <ele>347</ele>
        <time>2021-07-05 11:00:28</time>
      </trkpt>
      <trkpt lat="28.41682" lon="-14.05962">
        <ele>346.8</ele>
        <time>2021-07-05 11:00:29</time>
      </trkpt>
      <trkpt lat="28.41677" lon="-14.0596">
        <ele>346.8</ele>
        <time>2021-07-05 11:00:30</time>
      </trkpt>
      <trkpt lat="28.41672" lon="-14.05957">
        <ele>346.8</ele>
        <time>2021-07-05 11:00:31</time>
      </trkpt>
      <trkpt lat="28.41667" lon="-14.05955">
        <ele>346.8</ele>
        <time>2021-07-05 11:00:32</time>
      </trkpt>
      <trkpt lat="28.41662" lon="-14.05953">
        <ele>346.6</ele>
        <time>2021-07-05 11:00:33</time>
      </trkpt>
      <trkpt lat="28.41657" lon="-14.0595">
        <ele>346.2</ele>
        <time>2021-07-05 11:00:34</time>
      </trkpt>
      <trkpt lat="28.41652" lon="-14.05947">
        <ele>346.2</ele>
        <time>2021-07-05 11:00:35</time>
      </trkpt>
      <trkpt lat="28.41647" lon="-14.05945">
        <ele>346.2</ele>
        <time>2021-07-05 11:00:36</time>
      </trkpt>
      <trkpt lat="28.41643" lon="-14.05942">
        <ele>346</ele>
        <time>2021-07-05 11:00:37</time>
      </trkpt>
      <trkpt lat="28.41638" lon="-14.0594">
        <ele>346</ele>
        <time>2021-07-05 11:00:38</time>
      </trkpt>
      <trkpt lat="28.41633" lon="-14.05939">
        <ele>345.8</ele>
        <time>2021-07-05 11:00:39</time>
      </trkpt>
      <trkpt lat="28.41628" lon="-14.0594">
        <ele>345.6</ele>
        <time>2021-07-05 11:00:40</time>
      </trkpt>
      <trkpt lat="28.41624" lon="-14.0594">
        <ele>345.6</ele>
        <time>2021-07-05 11:00:41</time>
      </trkpt>
      <trkpt lat="28.41619" lon="-14.0594">
        <ele>345.2</ele>
        <time>2021-07-05 11:00:42</time>
      </trkpt>
      <trkpt lat="28.41614" lon="-14.05941">
        <ele>345.2</ele>
        <time>2021-07-05 11:00:43</time>
      </trkpt>
      <trkpt lat="28.41609" lon="-14.05942">
        <ele>345</ele>
        <time>2021-07-05 11:00:44</time>
      </trkpt>
      <trkpt lat="28.41604" lon="-14.05943">
        <ele>345</ele>
        <time>2021-07-05 11:00:45</time>
      </trkpt>
      <trkpt lat="28.416" lon="-14.05944">
        <ele>344.6</ele>
        <time>2021-07-05 11:00:46</time>
      </trkpt>
      <trkpt lat="28.41596" lon="-14.05946">
        <ele>344.6</ele>
        <time>2021-07-05 11:00:47</time>
      </trkpt>
      <trkpt lat="28.41592" lon="-14.05948">
        <ele>344.4</ele>
        <time>2021-07-05 11:00:48</time>
      </trkpt>
      <trkpt lat="28.41589" lon="-14.05951">
        <ele>344.4</ele>
        <time>2021-07-05 11:00:49</time>
      </trkpt>
      <trkpt lat="28.41585" lon="-14.05954">
        <ele>344.2</ele>
        <time>2021-07-05 11:00:50</time>
      </trkpt>
      <trkpt lat="28.41583" lon="-14.05958">
        <ele>344.2</ele>
        <time>2021-07-05 11:00:51</time>
      </trkpt>
      <trkpt lat="28.41581" lon="-14.05962">
        <ele>344.2</ele>
        <time>2021-07-05 11:00:52</time>
      </trkpt>
      <trkpt lat="28.41579" lon="-14.05966">
        <ele>344.2</ele>
        <time>2021-07-05 11:00:53</time>
      </trkpt>
      <trkpt lat="28.41577" lon="-14.05969">
        <ele>344.2</ele>
        <time>2021-07-05 11:00:54</time>
      </trkpt>
      <trkpt lat="28.41574" lon="-14.05972">
        <ele>344.2</ele>
        <time>2021-07-05 11:00:55</time>
      </trkpt>
      <trkpt lat="28.41571" lon="-14.05976">
        <ele>344.2</ele>
        <time>2021-07-05 11:00:56</time>
      </trkpt>
      <trkpt lat="28.41567" lon="-14.0598">
        <ele>344.2</ele>
        <time>2021-07-05 11:00:57</time>
      </trkpt>
      <trkpt lat="28.41563" lon="-14.05984">
        <ele>344.2</ele>
        <time>2021-07-05 11:00:58</time>
      </trkpt>
      <trkpt lat="28.41559" lon="-14.05987">
        <ele>343.6</ele>
        <time>2021-07-05 11:00:59</time>
      </trkpt>
      <trkpt lat="28.41554" lon="-14.0599">
        <ele>343.6</ele>
        <time>2021-07-05 11:01:00</time>
      </trkpt>
      <trkpt lat="28.41549" lon="-14.05992">
        <ele>343</ele>
        <time>2021-07-05 11:01:01</time>
      </trkpt>
      <trkpt lat="28.41543" lon="-14.05993">
        <ele>343</ele>
        <time>2021-07-05 11:01:02</time>
      </trkpt>
      <trkpt lat="28.41537" lon="-14.05993">
        <ele>342.8</ele>
        <time>2021-07-05 11:01:03</time>
      </trkpt>
      <trkpt lat="28.4153" lon="-14.05992">
        <ele>342.4</ele>
        <time>2021-07-05 11:01:04</time>
      </trkpt>
      <trkpt lat="28.41523" lon="-14.05994">
        <ele>342</ele>
        <time>2021-07-05 11:01:05</time>
      </trkpt>
      <trkpt lat="28.41517" lon="-14.05996">
        <ele>341.8</ele>
        <time>2021-07-05 11:01:06</time>
      </trkpt>
      <trkpt lat="28.41513" lon="-14.06001">
        <ele>341.6</ele>
        <time>2021-07-05 11:01:07</time>
      </trkpt>
      <trkpt lat="28.41509" lon="-14.06005">
        <ele>341.6</ele>
        <time>2021-07-05 11:01:08</time>
      </trkpt>
      <trkpt lat="28.41504" lon="-14.0601">
        <ele>341.6</ele>
        <time>2021-07-05 11:01:09</time>
      </trkpt>
      <trkpt lat="28.41499" lon="-14.06015">
        <ele>341.2</ele>
        <time>2021-07-05 11:01:10</time>
      </trkpt>
      <trkpt lat="28.41494" lon="-14.06019">
        <ele>340.8</ele>
        <time>2021-07-05 11:01:11</time>
      </trkpt>
      <trkpt lat="28.41489" lon="-14.06022">
        <ele>340.8</ele>
        <time>2021-07-05 11:01:12</time>
      </trkpt>
      <trkpt lat="28.41483" lon="-14.06024">
        <ele>340.6</ele>
        <time>2021-07-05 11:01:13</time>
      </trkpt>
      <trkpt lat="28.41477" lon="-14.06025">
        <ele>340.4</ele>
        <time>2021-07-05 11:01:14</time>
      </trkpt>
      <trkpt lat="28.41471" lon="-14.06026">
        <ele>340.4</ele>
        <time>2021-07-05 11:01:15</time>
      </trkpt>
      <trkpt lat="28.41464" lon="-14.06026">
        <ele>340</ele>
        <time>2021-07-05 11:01:16</time>
      </trkpt>
      <trkpt lat="28.41458" lon="-14.06026">
        <ele>339.8</ele>
        <time>2021-07-05 11:01:17</time>
      </trkpt>
      <trkpt lat="28.41452" lon="-14.06025">
        <ele>339.6</ele>
        <time>2021-07-05 11:01:18</time>
      </trkpt>
      <trkpt lat="28.41445" lon="-14.06024">
        <ele>339</ele>
        <time>2021-07-05 11:01:19</time>
      </trkpt>
      <trkpt lat="28.41439" lon="-14.06022">
        <ele>339</ele>
        <time>2021-07-05 11:01:20</time>
      </trkpt>
      <trkpt lat="28.41432" lon="-14.0602">
        <ele>338.6</ele>
        <time>2021-07-05 11:01:21</time>
      </trkpt>
      <trkpt lat="28.41425" lon="-14.06018">
        <ele>338.6</ele>
        <time>2021-07-05 11:01:22</time>
      </trkpt>
      <trkpt lat="28.41418" lon="-14.06017">
        <ele>338</ele>
        <time>2021-07-05 11:01:23</time>
      </trkpt>
      <trkpt lat="28.41411" lon="-14.06015">
        <ele>338</ele>
        <time>2021-07-05 11:01:24</time>
      </trkpt>
      <trkpt lat="28.41403" lon="-14.06014">
        <ele>337.8</ele>
        <time>2021-07-05 11:01:25</time>
      </trkpt>
      <trkpt lat="28.41396" lon="-14.06012">
        <ele>337.8</ele>
        <time>2021-07-05 11:01:26</time>
      </trkpt>
      <trkpt lat="28.41388" lon="-14.06011">
        <ele>337.4</ele>
        <time>2021-07-05 11:01:27</time>
      </trkpt>
      <trkpt lat="28.41381" lon="-14.06009">
        <ele>337.4</ele>
        <time>2021-07-05 11:01:28</time>
      </trkpt>
      <trkpt lat="28.41373" lon="-14.06008">
        <ele>337</ele>
        <time>2021-07-05 11:01:29</time>
      </trkpt>
      <trkpt lat="28.41366" lon="-14.06006">
        <ele>337</ele>
        <time>2021-07-05 11:01:30</time>
      </trkpt>
      <trkpt lat="28.4136" lon="-14.06005">
        <ele>337</ele>
        <time>2021-07-05 11:01:31</time>
      </trkpt>
      <trkpt lat="28.41353" lon="-14.06004">
        <ele>336.6</ele>
        <time>2021-07-05 11:01:32</time>
      </trkpt>
      <trkpt lat="28.41345" lon="-14.06005">
        <ele>336.6</ele>
        <time>2021-07-05 11:01:33</time>
      </trkpt>
      <trkpt lat="28.41338" lon="-14.06006">
        <ele>336.4</ele>
        <time>2021-07-05 11:01:34</time>
      </trkpt>
      <trkpt lat="28.41331" lon="-14.06008">
        <ele>336.4</ele>
        <time>2021-07-05 11:01:35</time>
      </trkpt>
      <trkpt lat="28.41324" lon="-14.06012">
        <ele>336</ele>
        <time>2021-07-05 11:01:36</time>
      </trkpt>
      <trkpt lat="28.41318" lon="-14.06017">
        <ele>335.8</ele>
        <time>2021-07-05 11:01:37</time>
      </trkpt>
      <trkpt lat="28.41312" lon="-14.06022">
        <ele>335.4</ele>
        <time>2021-07-05 11:01:38</time>
      </trkpt>
      <trkpt lat="28.41305" lon="-14.06026">
        <ele>335.4</ele>
        <time>2021-07-05 11:01:39</time>
      </trkpt>
      <trkpt lat="28.41298" lon="-14.06032">
        <ele>334.6</ele>
        <time>2021-07-05 11:01:40</time>
      </trkpt>
      <trkpt lat="28.4129" lon="-14.06038">
        <ele>334.6</ele>
        <time>2021-07-05 11:01:41</time>
      </trkpt>
      <trkpt lat="28.41283" lon="-14.06044">
        <ele>334.2</ele>
        <time>2021-07-05 11:01:42</time>
      </trkpt>
      <trkpt lat="28.41275" lon="-14.0605">
        <ele>333.6</ele>
        <time>2021-07-05 11:01:43</time>
      </trkpt>
      <trkpt lat="28.41267" lon="-14.06055">
        <ele>333.2</ele>
        <time>2021-07-05 11:01:44</time>
      </trkpt>
      <trkpt lat="28.41259" lon="-14.0606">
        <ele>332.8</ele>
        <time>2021-07-05 11:01:45</time>
      </trkpt>
      <trkpt lat="28.4125" lon="-14.06065">
        <ele>332</ele>
        <time>2021-07-05 11:01:46</time>
      </trkpt>
      <trkpt lat="28.41242" lon="-14.06069">
        <ele>332</ele>
        <time>2021-07-05 11:01:47</time>
      </trkpt>
      <trkpt lat="28.41234" lon="-14.06073">
        <ele>331.6</ele>
        <time>2021-07-05 11:01:48</time>
      </trkpt>
      <trkpt lat="28.41226" lon="-14.06077">
        <ele>331.2</ele>
        <time>2021-07-05 11:01:49</time>
      </trkpt>
      <trkpt lat="28.41219" lon="-14.06082">
        <ele>330.6</ele>
        <time>2021-07-05 11:01:50</time>
      </trkpt>
      <trkpt lat="28.41213" lon="-14.06087">
        <ele>330.6</ele>
        <time>2021-07-05 11:01:51</time>
      </trkpt>
      <trkpt lat="28.41207" lon="-14.06092">
        <ele>330.4</ele>
        <time>2021-07-05 11:01:52</time>
      </trkpt>
      <trkpt lat="28.412" lon="-14.06098">
        <ele>330.2</ele>
        <time>2021-07-05 11:01:53</time>
      </trkpt>
      <trkpt lat="28.41195" lon="-14.06104">
        <ele>330.2</ele>
        <time>2021-07-05 11:01:54</time>
      </trkpt>
      <trkpt lat="28.41189" lon="-14.06109">
        <ele>329.4</ele>
        <time>2021-07-05 11:01:55</time>
      </trkpt>
      <trkpt lat="28.41183" lon="-14.06115">
        <ele>329.2</ele>
        <time>2021-07-05 11:01:56</time>
      </trkpt>
      <trkpt lat="28.41178" lon="-14.0612">
        <ele>329.2</ele>
        <time>2021-07-05 11:01:57</time>
      </trkpt>
      <trkpt lat="28.41173" lon="-14.06126">
        <ele>329</ele>
        <time>2021-07-05 11:01:58</time>
      </trkpt>
      <trkpt lat="28.41168" lon="-14.06132">
        <ele>328.8</ele>
        <time>2021-07-05 11:01:59</time>
      </trkpt>
      <trkpt lat="28.41164" lon="-14.06139">
        <ele>328.8</ele>
        <time>2021-07-05 11:02:00</time>
      </trkpt>
      <trkpt lat="28.41161" lon="-14.06146">
        <ele>328.6</ele>
        <time>2021-07-05 11:02:01</time>
      </trkpt>
      <trkpt lat="28.4116" lon="-14.06152">
        <ele>328.6</ele>
        <time>2021-07-05 11:02:02</time>
      </trkpt>
      <trkpt lat="28.41158" lon="-14.06158">
        <ele>328.2</ele>
        <time>2021-07-05 11:02:03</time>
      </trkpt>
      <trkpt lat="28.41157" lon="-14.06165">
        <ele>328.2</ele>
        <time>2021-07-05 11:02:04</time>
      </trkpt>
      <trkpt lat="28.41156" lon="-14.0617">
        <ele>328</ele>
        <time>2021-07-05 11:02:05</time>
      </trkpt>
      <trkpt lat="28.41156" lon="-14.06175">
        <ele>328</ele>
        <time>2021-07-05 11:02:06</time>
      </trkpt>
      <trkpt lat="28.41156" lon="-14.0618">
        <ele>328</ele>
        <time>2021-07-05 11:02:07</time>
      </trkpt>
      <trkpt lat="28.41156" lon="-14.06183">
        <ele>327.6</ele>
        <time>2021-07-05 11:02:08</time>
      </trkpt>
      <trkpt lat="28.41157" lon="-14.06187">
        <ele>327.4</ele>
        <time>2021-07-05 11:02:09</time>
      </trkpt>
      <trkpt lat="28.41159" lon="-14.0619">
        <ele>327.4</ele>
        <time>2021-07-05 11:02:10</time>
      </trkpt>
      <trkpt lat="28.41161" lon="-14.06194">
        <ele>327.4</ele>
        <time>2021-07-05 11:02:11</time>
      </trkpt>
      <trkpt lat="28.41163" lon="-14.06198">
        <ele>327</ele>
        <time>2021-07-05 11:02:12</time>
      </trkpt>
      <trkpt lat="28.41166" lon="-14.06201">
        <ele>327</ele>
        <time>2021-07-05 11:02:13</time>
      </trkpt>
      <trkpt lat="28.41168" lon="-14.06205">
        <ele>327</ele>
        <time>2021-07-05 11:02:14</time>
      </trkpt>
      <trkpt lat="28.41172" lon="-14.06209">
        <ele>326.8</ele>
        <time>2021-07-05 11:02:15</time>
      </trkpt>
      <trkpt lat="28.41175" lon="-14.06212">
        <ele>326.8</ele>
        <time>2021-07-05 11:02:16</time>
      </trkpt>
      <trkpt lat="28.41177" lon="-14.06216">
        <ele>326.8</ele>
        <time>2021-07-05 11:02:17</time>
      </trkpt>
      <trkpt lat="28.4118" lon="-14.06221">
        <ele>326.6</ele>
        <time>2021-07-05 11:02:18</time>
      </trkpt>
      <trkpt lat="28.41183" lon="-14.06226">
        <ele>326.6</ele>
        <time>2021-07-05 11:02:19</time>
      </trkpt>
      <trkpt lat="28.41185" lon="-14.0623">
        <ele>326.2</ele>
        <time>2021-07-05 11:02:20</time>
      </trkpt>
      <trkpt lat="28.41187" lon="-14.06236">
        <ele>326.2</ele>
        <time>2021-07-05 11:02:21</time>
      </trkpt>
      <trkpt lat="28.41189" lon="-14.06242">
        <ele>326</ele>
        <time>2021-07-05 11:02:22</time>
      </trkpt>
      <trkpt lat="28.4119" lon="-14.06247">
        <ele>325.8</ele>
        <time>2021-07-05 11:02:23</time>
      </trkpt>
      <trkpt lat="28.41191" lon="-14.06253">
        <ele>325.8</ele>
        <time>2021-07-05 11:02:24</time>
      </trkpt>
      <trkpt lat="28.41192" lon="-14.06259">
        <ele>325.8</ele>
        <time>2021-07-05 11:02:25</time>
      </trkpt>
      <trkpt lat="28.41194" lon="-14.06264">
        <ele>325.8</ele>
        <time>2021-07-05 11:02:26</time>
      </trkpt>
      <trkpt lat="28.41195" lon="-14.0627">
        <ele>325.6</ele>
        <time>2021-07-05 11:02:27</time>
      </trkpt>
      <trkpt lat="28.41195" lon="-14.06276">
        <ele>325.2</ele>
        <time>2021-07-05 11:02:28</time>
      </trkpt>
      <trkpt lat="28.41195" lon="-14.06282">
        <ele>325.2</ele>
        <time>2021-07-05 11:02:29</time>
      </trkpt>
      <trkpt lat="28.41196" lon="-14.06287">
        <ele>325.2</ele>
        <time>2021-07-05 11:02:30</time>
      </trkpt>
      <trkpt lat="28.41195" lon="-14.06293">
        <ele>325.2</ele>
        <time>2021-07-05 11:02:31</time>
      </trkpt>
      <trkpt lat="28.41195" lon="-14.06299">
        <ele>325</ele>
        <time>2021-07-05 11:02:32</time>
      </trkpt>
      <trkpt lat="28.41195" lon="-14.06304">
        <ele>325</ele>
        <time>2021-07-05 11:02:33</time>
      </trkpt>
      <trkpt lat="28.41194" lon="-14.0631">
        <ele>324.8</ele>
        <time>2021-07-05 11:02:34</time>
      </trkpt>
      <trkpt lat="28.41194" lon="-14.06316">
        <ele>324.8</ele>
        <time>2021-07-05 11:02:35</time>
      </trkpt>
      <trkpt lat="28.41193" lon="-14.06322">
        <ele>324.6</ele>
        <time>2021-07-05 11:02:36</time>
      </trkpt>
      <trkpt lat="28.41192" lon="-14.06327">
        <ele>324.6</ele>
        <time>2021-07-05 11:02:37</time>
      </trkpt>
      <trkpt lat="28.4119" lon="-14.06333">
        <ele>324.4</ele>
        <time>2021-07-05 11:02:38</time>
      </trkpt>
      <trkpt lat="28.41189" lon="-14.06339">
        <ele>324.4</ele>
        <time>2021-07-05 11:02:39</time>
      </trkpt>
      <trkpt lat="28.41187" lon="-14.06344">
        <ele>324</ele>
        <time>2021-07-05 11:02:40</time>
      </trkpt>
      <trkpt lat="28.41185" lon="-14.06349">
        <ele>324</ele>
        <time>2021-07-05 11:02:41</time>
      </trkpt>
      <trkpt lat="28.41183" lon="-14.06355">
        <ele>324</ele>
        <time>2021-07-05 11:02:42</time>
      </trkpt>
      <trkpt lat="28.41181" lon="-14.0636">
        <ele>323.8</ele>
        <time>2021-07-05 11:02:43</time>
      </trkpt>
      <trkpt lat="28.41179" lon="-14.06365">
        <ele>323.8</ele>
        <time>2021-07-05 11:02:44</time>
      </trkpt>
      <trkpt lat="28.41177" lon="-14.0637">
        <ele>323.8</ele>
        <time>2021-07-05 11:02:45</time>
      </trkpt>
      <trkpt lat="28.41175" lon="-14.06376">
        <ele>323.4</ele>
        <time>2021-07-05 11:02:46</time>
      </trkpt>
      <trkpt lat="28.41172" lon="-14.06381">
        <ele>323.4</ele>
        <time>2021-07-05 11:02:47</time>
      </trkpt>
      <trkpt lat="28.41169" lon="-14.06385">
        <ele>323.4</ele>
        <time>2021-07-05 11:02:48</time>
      </trkpt>
      <trkpt lat="28.41165" lon="-14.0639">
        <ele>323</ele>
        <time>2021-07-05 11:02:49</time>
      </trkpt>
      <trkpt lat="28.41162" lon="-14.06394">
        <ele>323</ele>
        <time>2021-07-05 11:02:50</time>
      </trkpt>
      <trkpt lat="28.41157" lon="-14.06397">
        <ele>323</ele>
        <time>2021-07-05 11:02:51</time>
      </trkpt>
      <trkpt lat="28.41152" lon="-14.064">
        <ele>322.8</ele>
        <time>2021-07-05 11:02:52</time>
      </trkpt>
      <trkpt lat="28.41148" lon="-14.06402">
        <ele>322.4</ele>
        <time>2021-07-05 11:02:53</time>
      </trkpt>
      <trkpt lat="28.41142" lon="-14.06403">
        <ele>322.2</ele>
        <time>2021-07-05 11:02:54</time>
      </trkpt>
      <trkpt lat="28.41137" lon="-14.06403">
        <ele>322.2</ele>
        <time>2021-07-05 11:02:55</time>
      </trkpt>
      <trkpt lat="28.41132" lon="-14.06402">
        <ele>322.2</ele>
        <time>2021-07-05 11:02:56</time>
      </trkpt>
      <trkpt lat="28.41127" lon="-14.064">
        <ele>321.8</ele>
        <time>2021-07-05 11:02:57</time>
      </trkpt>
      <trkpt lat="28.41123" lon="-14.06398">
        <ele>321.4</ele>
        <time>2021-07-05 11:02:58</time>
      </trkpt>
      <trkpt lat="28.41118" lon="-14.06395">
        <ele>321.2</ele>
        <time>2021-07-05 11:02:59</time>
      </trkpt>
      <trkpt lat="28.41113" lon="-14.06393">
        <ele>321</ele>
        <time>2021-07-05 11:03:00</time>
      </trkpt>
      <trkpt lat="28.41109" lon="-14.06391">
        <ele>321</ele>
        <time>2021-07-05 11:03:01</time>
      </trkpt>
      <trkpt lat="28.41104" lon="-14.06389">
        <ele>320.6</ele>
        <time>2021-07-05 11:03:02</time>
      </trkpt>
      <trkpt lat="28.41099" lon="-14.06387">
        <ele>320.6</ele>
        <time>2021-07-05 11:03:03</time>
      </trkpt>
      <trkpt lat="28.41094" lon="-14.06385">
        <ele>320.4</ele>
        <time>2021-07-05 11:03:04</time>
      </trkpt>
      <trkpt lat="28.41089" lon="-14.06383">
        <ele>320.4</ele>
        <time>2021-07-05 11:03:05</time>
      </trkpt>
      <trkpt lat="28.41084" lon="-14.06381">
        <ele>320.2</ele>
        <time>2021-07-05 11:03:06</time>
      </trkpt>
      <trkpt lat="28.41079" lon="-14.06379">
        <ele>320.2</ele>
        <time>2021-07-05 11:03:07</time>
      </trkpt>
      <trkpt lat="28.41075" lon="-14.06377">
        <ele>320.2</ele>
        <time>2021-07-05 11:03:08</time>
      </trkpt>
      <trkpt lat="28.4107" lon="-14.06375">
        <ele>319.8</ele>
        <time>2021-07-05 11:03:09</time>
      </trkpt>
      <trkpt lat="28.41065" lon="-14.06373">
        <ele>319.8</ele>
        <time>2021-07-05 11:03:10</time>
      </trkpt>
      <trkpt lat="28.41061" lon="-14.0637">
        <ele>319.6</ele>
        <time>2021-07-05 11:03:11</time>
      </trkpt>
      <trkpt lat="28.41056" lon="-14.06368">
        <ele>319.2</ele>
        <time>2021-07-05 11:03:12</time>
      </trkpt>
      <trkpt lat="28.41051" lon="-14.06366">
        <ele>319.2</ele>
        <time>2021-07-05 11:03:13</time>
      </trkpt>
      <trkpt lat="28.41046" lon="-14.06364">
        <ele>319</ele>
        <time>2021-07-05 11:03:14</time>
      </trkpt>
      <trkpt lat="28.4104" lon="-14.06362">
        <ele>318.6</ele>
        <time>2021-07-05 11:03:15</time>
      </trkpt>
      <trkpt lat="28.41035" lon="-14.0636">
        <ele>318.6</ele>
        <time>2021-07-05 11:03:16</time>
      </trkpt>
      <trkpt lat="28.41029" lon="-14.06357">
        <ele>318.4</ele>
        <time>2021-07-05 11:03:17</time>
      </trkpt>
      <trkpt lat="28.41024" lon="-14.06354">
        <ele>318.2</ele>
        <time>2021-07-05 11:03:18</time>
      </trkpt>
      <trkpt lat="28.41018" lon="-14.06352">
        <ele>318</ele>
        <time>2021-07-05 11:03:19</time>
      </trkpt>
      <trkpt lat="28.41012" lon="-14.06349">
        <ele>318</ele>
        <time>2021-07-05 11:03:20</time>
      </trkpt>
      <trkpt lat="28.41006" lon="-14.06347">
        <ele>318</ele>
        <time>2021-07-05 11:03:21</time>
      </trkpt>
      <trkpt lat="28.41" lon="-14.06346">
        <ele>317.8</ele>
        <time>2021-07-05 11:03:22</time>
      </trkpt>
      <trkpt lat="28.40995" lon="-14.06343">
        <ele>317.4</ele>
        <time>2021-07-05 11:03:23</time>
      </trkpt>
      <trkpt lat="28.40991" lon="-14.06339">
        <ele>317.4</ele>
        <time>2021-07-05 11:03:24</time>
      </trkpt>
      <trkpt lat="28.40987" lon="-14.06336">
        <ele>317.2</ele>
        <time>2021-07-05 11:03:25</time>
      </trkpt>
      <trkpt lat="28.40984" lon="-14.06333">
        <ele>317.2</ele>
        <time>2021-07-05 11:03:26</time>
      </trkpt>
      <trkpt lat="28.40983" lon="-14.0633">
        <ele>317.2</ele>
        <time>2021-07-05 11:03:27</time>
      </trkpt>
      <trkpt lat="28.40981" lon="-14.06326">
        <ele>317.2</ele>
        <time>2021-07-05 11:03:28</time>
      </trkpt>
      <trkpt lat="28.40981" lon="-14.06323">
        <ele>317</ele>
        <time>2021-07-05 11:03:29</time>
      </trkpt>
      <trkpt lat="28.40979" lon="-14.0632">
        <ele>317</ele>
        <time>2021-07-05 11:03:30</time>
      </trkpt>
      <trkpt lat="28.40977" lon="-14.06318">
        <ele>317</ele>
        <time>2021-07-05 11:03:31</time>
      </trkpt>
      <trkpt lat="28.40974" lon="-14.06316">
        <ele>317</ele>
        <time>2021-07-05 11:03:32</time>
      </trkpt>
      <trkpt lat="28.40971" lon="-14.06313">
        <ele>316.6</ele>
        <time>2021-07-05 11:03:33</time>
      </trkpt>
      <trkpt lat="28.40968" lon="-14.06311">
        <ele>316.6</ele>
        <time>2021-07-05 11:03:34</time>
      </trkpt>
      <trkpt lat="28.40964" lon="-14.06308">
        <ele>316.4</ele>
        <time>2021-07-05 11:03:35</time>
      </trkpt>
      <trkpt lat="28.4096" lon="-14.06306">
        <ele>316.4</ele>
        <time>2021-07-05 11:03:36</time>
      </trkpt>
      <trkpt lat="28.40955" lon="-14.06303">
        <ele>316.2</ele>
        <time>2021-07-05 11:03:37</time>
      </trkpt>
      <trkpt lat="28.4095" lon="-14.06301">
        <ele>316.2</ele>
        <time>2021-07-05 11:03:38</time>
      </trkpt>
      <trkpt lat="28.40944" lon="-14.06299">
        <ele>315.8</ele>
        <time>2021-07-05 11:03:39</time>
      </trkpt>
      <trkpt lat="28.40939" lon="-14.06297">
        <ele>315.6</ele>
        <time>2021-07-05 11:03:40</time>
      </trkpt>
      <trkpt lat="28.40934" lon="-14.06294">
        <ele>315.6</ele>
        <time>2021-07-05 11:03:41</time>
      </trkpt>
      <trkpt lat="28.40928" lon="-14.06292">
        <ele>315.4</ele>
        <time>2021-07-05 11:03:42</time>
      </trkpt>
      <trkpt lat="28.40923" lon="-14.0629">
        <ele>315.4</ele>
        <time>2021-07-05 11:03:43</time>
      </trkpt>
      <trkpt lat="28.40917" lon="-14.06288">
        <ele>315</ele>
        <time>2021-07-05 11:03:44</time>
      </trkpt>
      <trkpt lat="28.40912" lon="-14.06287">
        <ele>315</ele>
        <time>2021-07-05 11:03:45</time>
      </trkpt>
      <trkpt lat="28.40906" lon="-14.06286">
        <ele>314.4</ele>
        <time>2021-07-05 11:03:46</time>
      </trkpt>
      <trkpt lat="28.40901" lon="-14.06285">
        <ele>314.4</ele>
        <time>2021-07-05 11:03:47</time>
      </trkpt>
      <trkpt lat="28.40895" lon="-14.06284">
        <ele>314.4</ele>
        <time>2021-07-05 11:03:48</time>
      </trkpt>
      <trkpt lat="28.4089" lon="-14.06283">
        <ele>314</ele>
        <time>2021-07-05 11:03:49</time>
      </trkpt>
      <trkpt lat="28.40884" lon="-14.06282">
        <ele>314</ele>
        <time>2021-07-05 11:03:50</time>
      </trkpt>
      <trkpt lat="28.40879" lon="-14.06282">
        <ele>313.6</ele>
        <time>2021-07-05 11:03:51</time>
      </trkpt>
      <trkpt lat="28.40873" lon="-14.06282">
        <ele>313.6</ele>
        <time>2021-07-05 11:03:52</time>
      </trkpt>
      <trkpt lat="28.40867" lon="-14.06282">
        <ele>313.4</ele>
        <time>2021-07-05 11:03:53</time>
      </trkpt>
      <trkpt lat="28.40862" lon="-14.06283">
        <ele>313.2</ele>
        <time>2021-07-05 11:03:54</time>
      </trkpt>
      <trkpt lat="28.40857" lon="-14.06283">
        <ele>313.2</ele>
        <time>2021-07-05 11:03:55</time>
      </trkpt>
      <trkpt lat="28.40851" lon="-14.06283">
        <ele>313</ele>
        <time>2021-07-05 11:03:56</time>
      </trkpt>
      <trkpt lat="28.40846" lon="-14.06283">
        <ele>313</ele>
        <time>2021-07-05 11:03:57</time>
      </trkpt>
      <trkpt lat="28.40841" lon="-14.06284">
        <ele>312.8</ele>
        <time>2021-07-05 11:03:58</time>
      </trkpt>
      <trkpt lat="28.40836" lon="-14.06286">
        <ele>312.8</ele>
        <time>2021-07-05 11:03:59</time>
      </trkpt>
      <trkpt lat="28.40831" lon="-14.06287">
        <ele>312.8</ele>
        <time>2021-07-05 11:04:00</time>
      </trkpt>
      <trkpt lat="28.40826" lon="-14.06288">
        <ele>312.8</ele>
        <time>2021-07-05 11:04:01</time>
      </trkpt>
      <trkpt lat="28.40821" lon="-14.06288">
        <ele>312.8</ele>
        <time>2021-07-05 11:04:02</time>
      </trkpt>
      <trkpt lat="28.40816" lon="-14.06289">
        <ele>312.8</ele>
        <time>2021-07-05 11:04:03</time>
      </trkpt>
      <trkpt lat="28.40812" lon="-14.0629">
        <ele>312.6</ele>
        <time>2021-07-05 11:04:04</time>
      </trkpt>
      <trkpt lat="28.40808" lon="-14.06291">
        <ele>312.6</ele>
        <time>2021-07-05 11:04:05</time>
      </trkpt>
      <trkpt lat="28.40803" lon="-14.06292">
        <ele>312.6</ele>
        <time>2021-07-05 11:04:06</time>
      </trkpt>
      <trkpt lat="28.40798" lon="-14.06293">
        <ele>312.2</ele>
        <time>2021-07-05 11:04:07</time>
      </trkpt>
      <trkpt lat="28.40794" lon="-14.06294">
        <ele>312.2</ele>
        <time>2021-07-05 11:04:08</time>
      </trkpt>
      <trkpt lat="28.40789" lon="-14.06295">
        <ele>312</ele>
        <time>2021-07-05 11:04:09</time>
      </trkpt>
      <trkpt lat="28.40784" lon="-14.06296">
        <ele>312</ele>
        <time>2021-07-05 11:04:10</time>
      </trkpt>
      <trkpt lat="28.40779" lon="-14.06297">
        <ele>312</ele>
        <time>2021-07-05 11:04:11</time>
      </trkpt>
      <trkpt lat="28.40775" lon="-14.06297">
        <ele>311.6</ele>
        <time>2021-07-05 11:04:12</time>
      </trkpt>
      <trkpt lat="28.4077" lon="-14.06298">
        <ele>311.6</ele>
        <time>2021-07-05 11:04:13</time>
      </trkpt>
      <trkpt lat="28.40766" lon="-14.063">
        <ele>311.6</ele>
        <time>2021-07-05 11:04:14</time>
      </trkpt>
      <trkpt lat="28.40762" lon="-14.06301">
        <ele>311.6</ele>
        <time>2021-07-05 11:04:15</time>
      </trkpt>
      <trkpt lat="28.40757" lon="-14.06302">
        <ele>311.2</ele>
        <time>2021-07-05 11:04:16</time>
      </trkpt>
      <trkpt lat="28.40754" lon="-14.06302">
        <ele>311.2</ele>
        <time>2021-07-05 11:04:17</time>
      </trkpt>
      <trkpt lat="28.4075" lon="-14.06303">
        <ele>310.8</ele>
        <time>2021-07-05 11:04:18</time>
      </trkpt>
      <trkpt lat="28.40746" lon="-14.06304">
        <ele>310.8</ele>
        <time>2021-07-05 11:04:19</time>
      </trkpt>
      <trkpt lat="28.40742" lon="-14.06304">
        <ele>310.8</ele>
        <time>2021-07-05 11:04:20</time>
      </trkpt>
      <trkpt lat="28.40739" lon="-14.06305">
        <ele>310.6</ele>
        <time>2021-07-05 11:04:21</time>
      </trkpt>
      <trkpt lat="28.40736" lon="-14.06306">
        <ele>310.6</ele>
        <time>2021-07-05 11:04:22</time>
      </trkpt>
      <trkpt lat="28.40733" lon="-14.06307">
        <ele>310.4</ele>
        <time>2021-07-05 11:04:23</time>
      </trkpt>
      <trkpt lat="28.40729" lon="-14.06307">
        <ele>310.2</ele>
        <time>2021-07-05 11:04:24</time>
      </trkpt>
      <trkpt lat="28.40726" lon="-14.06307">
        <ele>310.2</ele>
        <time>2021-07-05 11:04:25</time>
      </trkpt>
      <trkpt lat="28.40724" lon="-14.06307">
        <ele>310.2</ele>
        <time>2021-07-05 11:04:26</time>
      </trkpt>
      <trkpt lat="28.40722" lon="-14.06307">
        <ele>309.8</ele>
        <time>2021-07-05 11:04:27</time>
      </trkpt>
      <trkpt lat="28.4072" lon="-14.06308">
        <ele>309.8</ele>
        <time>2021-07-05 11:04:28</time>
      </trkpt>
      <trkpt lat="28.40718" lon="-14.06309">
        <ele>309.8</ele>
        <time>2021-07-05 11:04:29</time>
      </trkpt>
      <trkpt lat="28.40715" lon="-14.0631">
        <ele>309.6</ele>
        <time>2021-07-05 11:04:30</time>
      </trkpt>
      <trkpt lat="28.40713" lon="-14.06311">
        <ele>309.6</ele>
        <time>2021-07-05 11:04:31</time>
      </trkpt>
      <trkpt lat="28.4071" lon="-14.06312">
        <ele>309.6</ele>
        <time>2021-07-05 11:04:32</time>
      </trkpt>
      <trkpt lat="28.40707" lon="-14.06314">
        <ele>309.6</ele>
        <time>2021-07-05 11:04:33</time>
      </trkpt>
      <trkpt lat="28.40704" lon="-14.06315">
        <ele>309.6</ele>
        <time>2021-07-05 11:04:34</time>
      </trkpt>
      <trkpt lat="28.40701" lon="-14.06316">
        <ele>309.4</ele>
        <time>2021-07-05 11:04:35</time>
      </trkpt>
      <trkpt lat="28.40697" lon="-14.06317">
        <ele>309.4</ele>
        <time>2021-07-05 11:04:36</time>
      </trkpt>
      <trkpt lat="28.40694" lon="-14.06318">
        <ele>309.4</ele>
        <time>2021-07-05 11:04:37</time>
      </trkpt>
      <trkpt lat="28.4069" lon="-14.06319">
        <ele>309.4</ele>
        <time>2021-07-05 11:04:38</time>
      </trkpt>
      <trkpt lat="28.40686" lon="-14.06319">
        <ele>309.2</ele>
        <time>2021-07-05 11:04:39</time>
      </trkpt>
      <trkpt lat="28.40682" lon="-14.0632">
        <ele>309.2</ele>
        <time>2021-07-05 11:04:40</time>
      </trkpt>
      <trkpt lat="28.40678" lon="-14.06321">
        <ele>309.2</ele>
        <time>2021-07-05 11:04:41</time>
      </trkpt>
      <trkpt lat="28.40674" lon="-14.06322">
        <ele>309.2</ele>
        <time>2021-07-05 11:04:42</time>
      </trkpt>
      <trkpt lat="28.4067" lon="-14.06323">
        <ele>309.2</ele>
        <time>2021-07-05 11:04:43</time>
      </trkpt>
      <trkpt lat="28.40665" lon="-14.06324">
        <ele>309.2</ele>
        <time>2021-07-05 11:04:44</time>
      </trkpt>
      <trkpt lat="28.40661" lon="-14.06324">
        <ele>309</ele>
        <time>2021-07-05 11:04:45</time>
      </trkpt>
      <trkpt lat="28.40656" lon="-14.06325">
        <ele>309</ele>
        <time>2021-07-05 11:04:46</time>
      </trkpt>
      <trkpt lat="28.40651" lon="-14.06326">
        <ele>308.6</ele>
        <time>2021-07-05 11:04:47</time>
      </trkpt>
      <trkpt lat="28.40647" lon="-14.06326">
        <ele>308.6</ele>
        <time>2021-07-05 11:04:48</time>
      </trkpt>
      <trkpt lat="28.40642" lon="-14.06327">
        <ele>308.4</ele>
        <time>2021-07-05 11:04:49</time>
      </trkpt>
      <trkpt lat="28.40637" lon="-14.06329">
        <ele>308.4</ele>
        <time>2021-07-05 11:04:50</time>
      </trkpt>
      <trkpt lat="28.40632" lon="-14.0633">
        <ele>308</ele>
        <time>2021-07-05 11:04:51</time>
      </trkpt>
      <trkpt lat="28.40626" lon="-14.06331">
        <ele>308</ele>
        <time>2021-07-05 11:04:52</time>
      </trkpt>
      <trkpt lat="28.40621" lon="-14.06332">
        <ele>307.8</ele>
        <time>2021-07-05 11:04:53</time>
      </trkpt>
      <trkpt lat="28.40616" lon="-14.06333">
        <ele>307.8</ele>
        <time>2021-07-05 11:04:54</time>
      </trkpt>
      <trkpt lat="28.40611" lon="-14.06334">
        <ele>307.4</ele>
        <time>2021-07-05 11:04:55</time>
      </trkpt>
      <trkpt lat="28.40607" lon="-14.06336">
        <ele>307.2</ele>
        <time>2021-07-05 11:04:56</time>
      </trkpt>
      <trkpt lat="28.40602" lon="-14.06337">
        <ele>307.2</ele>
        <time>2021-07-05 11:04:57</time>
      </trkpt>
      <trkpt lat="28.40598" lon="-14.06337">
        <ele>306.8</ele>
        <time>2021-07-05 11:04:58</time>
      </trkpt>
      <trkpt lat="28.40594" lon="-14.06339">
        <ele>306.8</ele>
        <time>2021-07-05 11:04:59</time>
      </trkpt>
      <trkpt lat="28.40589" lon="-14.0634">
        <ele>306.4</ele>
        <time>2021-07-05 11:05:00</time>
      </trkpt>
      <trkpt lat="28.40585" lon="-14.06341">
        <ele>306.4</ele>
        <time>2021-07-05 11:05:01</time>
      </trkpt>
      <trkpt lat="28.40582" lon="-14.06342">
        <ele>306.2</ele>
        <time>2021-07-05 11:05:02</time>
      </trkpt>
      <trkpt lat="28.40579" lon="-14.06343">
        <ele>306.2</ele>
        <time>2021-07-05 11:05:03</time>
      </trkpt>
      <trkpt lat="28.40577" lon="-14.06344">
        <ele>306</ele>
        <time>2021-07-05 11:05:04</time>
      </trkpt>
      <trkpt lat="28.40573" lon="-14.06345">
        <ele>306</ele>
        <time>2021-07-05 11:05:05</time>
      </trkpt>
      <trkpt lat="28.4057" lon="-14.06345">
        <ele>305.6</ele>
        <time>2021-07-05 11:05:06</time>
      </trkpt>
      <trkpt lat="28.40567" lon="-14.06346">
        <ele>305.6</ele>
        <time>2021-07-05 11:05:07</time>
      </trkpt>
      <trkpt lat="28.40563" lon="-14.06347">
        <ele>305.4</ele>
        <time>2021-07-05 11:05:08</time>
      </trkpt>
      <trkpt lat="28.40559" lon="-14.06348">
        <ele>305.4</ele>
        <time>2021-07-05 11:05:09</time>
      </trkpt>
      <trkpt lat="28.40555" lon="-14.06349">
        <ele>305.2</ele>
        <time>2021-07-05 11:05:10</time>
      </trkpt>
      <trkpt lat="28.40551" lon="-14.0635">
        <ele>305.2</ele>
        <time>2021-07-05 11:05:11</time>
      </trkpt>
      <trkpt lat="28.40548" lon="-14.06351">
        <ele>305</ele>
        <time>2021-07-05 11:05:12</time>
      </trkpt>
      <trkpt lat="28.40544" lon="-14.06353">
        <ele>305</ele>
        <time>2021-07-05 11:05:13</time>
      </trkpt>
      <trkpt lat="28.4054" lon="-14.06354">
        <ele>305</ele>
        <time>2021-07-05 11:05:14</time>
      </trkpt>
      <trkpt lat="28.40536" lon="-14.06356">
        <ele>305</ele>
        <time>2021-07-05 11:05:15</time>
      </trkpt>
      <trkpt lat="28.40532" lon="-14.06358">
        <ele>304.6</ele>
        <time>2021-07-05 11:05:16</time>
      </trkpt>
      <trkpt lat="28.40528" lon="-14.06359">
        <ele>304.6</ele>
        <time>2021-07-05 11:05:17</time>
      </trkpt>
      <trkpt lat="28.40524" lon="-14.0636">
        <ele>304.6</ele>
        <time>2021-07-05 11:05:18</time>
      </trkpt>
      <trkpt lat="28.4052" lon="-14.06361">
        <ele>304.4</ele>
        <time>2021-07-05 11:05:19</time>
      </trkpt>
      <trkpt lat="28.40517" lon="-14.06362">
        <ele>304.2</ele>
        <time>2021-07-05 11:05:20</time>
      </trkpt>
      <trkpt lat="28.40513" lon="-14.06363">
        <ele>304.2</ele>
        <time>2021-07-05 11:05:21</time>
      </trkpt>
      <trkpt lat="28.4051" lon="-14.06365">
        <ele>304.2</ele>
        <time>2021-07-05 11:05:22</time>
      </trkpt>
      <trkpt lat="28.4051" lon="-14.06365">
        <ele>303.8</ele>
        <time>2021-07-05 11:05:23</time>
      </trkpt>
      <trkpt lat="28.40504" lon="-14.06368">
        <ele>303.8</ele>
        <time>2021-07-05 11:05:24</time>
      </trkpt>
      <trkpt lat="28.40501" lon="-14.0637">
        <ele>303.6</ele>
        <time>2021-07-05 11:05:25</time>
      </trkpt>
      <trkpt lat="28.40499" lon="-14.06372">
        <ele>303.6</ele>
        <time>2021-07-05 11:05:26</time>
      </trkpt>
      <trkpt lat="28.40496" lon="-14.06374">
        <ele>303.4</ele>
        <time>2021-07-05 11:05:27</time>
      </trkpt>
      <trkpt lat="28.40493" lon="-14.06375">
        <ele>303.4</ele>
        <time>2021-07-05 11:05:28</time>
      </trkpt>
      <trkpt lat="28.4049" lon="-14.06377">
        <ele>303.4</ele>
        <time>2021-07-05 11:05:29</time>
      </trkpt>
      <trkpt lat="28.40487" lon="-14.06379">
        <ele>303.4</ele>
        <time>2021-07-05 11:05:30</time>
      </trkpt>
      <trkpt lat="28.40484" lon="-14.06381">
        <ele>303.4</ele>
        <time>2021-07-05 11:05:31</time>
      </trkpt>
      <trkpt lat="28.40481" lon="-14.06382">
        <ele>303</ele>
        <time>2021-07-05 11:05:32</time>
      </trkpt>
      <trkpt lat="28.40478" lon="-14.06384">
        <ele>303</ele>
        <time>2021-07-05 11:05:33</time>
      </trkpt>
      <trkpt lat="28.40475" lon="-14.06386">
        <ele>303</ele>
        <time>2021-07-05 11:05:34</time>
      </trkpt>
      <trkpt lat="28.40472" lon="-14.06387">
        <ele>302.8</ele>
        <time>2021-07-05 11:05:35</time>
      </trkpt>
      <trkpt lat="28.4047" lon="-14.06389">
        <ele>302.8</ele>
        <time>2021-07-05 11:05:36</time>
      </trkpt>
      <trkpt lat="28.40467" lon="-14.0639">
        <ele>302.8</ele>
        <time>2021-07-05 11:05:37</time>
      </trkpt>
      <trkpt lat="28.40464" lon="-14.06392">
        <ele>302.8</ele>
        <time>2021-07-05 11:05:38</time>
      </trkpt>
      <trkpt lat="28.40462" lon="-14.06393">
        <ele>302.6</ele>
        <time>2021-07-05 11:05:39</time>
      </trkpt>
      <trkpt lat="28.40459" lon="-14.06395">
        <ele>302.6</ele>
        <time>2021-07-05 11:05:40</time>
      </trkpt>
      <trkpt lat="28.40457" lon="-14.06396">
        <ele>302.6</ele>
        <time>2021-07-05 11:05:41</time>
      </trkpt>
      <trkpt lat="28.40454" lon="-14.06397">
        <ele>302.6</ele>
        <time>2021-07-05 11:05:42</time>
      </trkpt>
      <trkpt lat="28.40451" lon="-14.06398">
        <ele>302.2</ele>
        <time>2021-07-05 11:05:43</time>
      </trkpt>
      <trkpt lat="28.40448" lon="-14.064">
        <ele>302.2</ele>
        <time>2021-07-05 11:05:44</time>
      </trkpt>
      <trkpt lat="28.40445" lon="-14.06401">
        <ele>302</ele>
        <time>2021-07-05 11:05:45</time>
      </trkpt>
      <trkpt lat="28.40442" lon="-14.06402">
        <ele>302</ele>
        <time>2021-07-05 11:05:46</time>
      </trkpt>
      <trkpt lat="28.40439" lon="-14.06404">
        <ele>301.8</ele>
        <time>2021-07-05 11:05:47</time>
      </trkpt>
      <trkpt lat="28.40436" lon="-14.06405">
        <ele>301.8</ele>
        <time>2021-07-05 11:05:48</time>
      </trkpt>
      <trkpt lat="28.40432" lon="-14.06406">
        <ele>301.4</ele>
        <time>2021-07-05 11:05:49</time>
      </trkpt>
      <trkpt lat="28.40429" lon="-14.06407">
        <ele>301.4</ele>
        <time>2021-07-05 11:05:50</time>
      </trkpt>
      <trkpt lat="28.40427" lon="-14.06408">
        <ele>301.4</ele>
        <time>2021-07-05 11:05:51</time>
      </trkpt>
      <trkpt lat="28.40424" lon="-14.06408">
        <ele>301</ele>
        <time>2021-07-05 11:05:52</time>
      </trkpt>
      <trkpt lat="28.40421" lon="-14.06409">
        <ele>301</ele>
        <time>2021-07-05 11:05:53</time>
      </trkpt>
      <trkpt lat="28.40418" lon="-14.06409">
        <ele>300.8</ele>
        <time>2021-07-05 11:05:54</time>
      </trkpt>
      <trkpt lat="28.40415" lon="-14.06409">
        <ele>300.8</ele>
        <time>2021-07-05 11:05:55</time>
      </trkpt>
      <trkpt lat="28.40412" lon="-14.06409">
        <ele>300.6</ele>
        <time>2021-07-05 11:05:56</time>
      </trkpt>
      <trkpt lat="28.4041" lon="-14.0641">
        <ele>300.6</ele>
        <time>2021-07-05 11:05:57</time>
      </trkpt>
      <trkpt lat="28.40407" lon="-14.0641">
        <ele>300.6</ele>
        <time>2021-07-05 11:05:58</time>
      </trkpt>
      <trkpt lat="28.40406" lon="-14.0641">
        <ele>300.6</ele>
        <time>2021-07-05 11:05:59</time>
      </trkpt>
      <trkpt lat="28.40405" lon="-14.06409">
        <ele>300.6</ele>
        <time>2021-07-05 11:06:00</time>
      </trkpt>
      <trkpt lat="28.40404" lon="-14.06409">
        <ele>300.6</ele>
        <time>2021-07-05 11:06:01</time>
      </trkpt>
      <trkpt lat="28.40404" lon="-14.06409">
        <ele>300.4</ele>
        <time>2021-07-05 11:06:02</time>
      </trkpt>
      <trkpt lat="28.40402" lon="-14.06409">
        <ele>300.4</ele>
        <time>2021-07-05 11:06:03</time>
      </trkpt>
      <trkpt lat="28.40401" lon="-14.06409">
        <ele>300.4</ele>
        <time>2021-07-05 11:06:04</time>
      </trkpt>
      <trkpt lat="28.40399" lon="-14.06409">
        <ele>300</ele>
        <time>2021-07-05 11:06:05</time>
      </trkpt>
      <trkpt lat="28.40397" lon="-14.06409">
        <ele>300</ele>
        <time>2021-07-05 11:06:06</time>
      </trkpt>
      <trkpt lat="28.40395" lon="-14.06409">
        <ele>299.8</ele>
        <time>2021-07-05 11:06:07</time>
      </trkpt>
      <trkpt lat="28.40393" lon="-14.06408">
        <ele>299.8</ele>
        <time>2021-07-05 11:06:08</time>
      </trkpt>
      <trkpt lat="28.40391" lon="-14.06408">
        <ele>299.6</ele>
        <time>2021-07-05 11:06:09</time>
      </trkpt>
      <trkpt lat="28.40389" lon="-14.06408">
        <ele>299.6</ele>
        <time>2021-07-05 11:06:10</time>
      </trkpt>
      <trkpt lat="28.40387" lon="-14.06407">
        <ele>299.2</ele>
        <time>2021-07-05 11:06:11</time>
      </trkpt>
      <trkpt lat="28.40385" lon="-14.06407">
        <ele>299.2</ele>
        <time>2021-07-05 11:06:12</time>
      </trkpt>
      <trkpt lat="28.40384" lon="-14.06407">
        <ele>299.2</ele>
        <time>2021-07-05 11:06:13</time>
      </trkpt>
      <trkpt lat="28.40382" lon="-14.06406">
        <ele>299</ele>
        <time>2021-07-05 11:06:14</time>
      </trkpt>
      <trkpt lat="28.4038" lon="-14.06406">
        <ele>299</ele>
        <time>2021-07-05 11:06:15</time>
      </trkpt>
      <trkpt lat="28.40378" lon="-14.06405">
        <ele>299</ele>
        <time>2021-07-05 11:06:16</time>
      </trkpt>
      <trkpt lat="28.40376" lon="-14.06405">
        <ele>299</ele>
        <time>2021-07-05 11:06:17</time>
      </trkpt>
      <trkpt lat="28.40374" lon="-14.06404">
        <ele>299</ele>
        <time>2021-07-05 11:06:18</time>
      </trkpt>
      <trkpt lat="28.40372" lon="-14.06404">
        <ele>299</ele>
        <time>2021-07-05 11:06:19</time>
      </trkpt>
      <trkpt lat="28.40369" lon="-14.06403">
        <ele>299</ele>
        <time>2021-07-05 11:06:20</time>
      </trkpt>
      <trkpt lat="28.40367" lon="-14.06402">
        <ele>299</ele>
        <time>2021-07-05 11:06:21</time>
      </trkpt>
      <trkpt lat="28.40364" lon="-14.06401">
        <ele>299</ele>
        <time>2021-07-05 11:06:22</time>
      </trkpt>
      <trkpt lat="28.40362" lon="-14.064">
        <ele>299</ele>
        <time>2021-07-05 11:06:23</time>
      </trkpt>
      <trkpt lat="28.40359" lon="-14.06399">
        <ele>299</ele>
        <time>2021-07-05 11:06:24</time>
      </trkpt>
      <trkpt lat="28.40357" lon="-14.06397">
        <ele>299</ele>
        <time>2021-07-05 11:06:25</time>
      </trkpt>
      <trkpt lat="28.40355" lon="-14.06396">
        <ele>299</ele>
        <time>2021-07-05 11:06:26</time>
      </trkpt>
      <trkpt lat="28.40353" lon="-14.06394">
        <ele>299</ele>
        <time>2021-07-05 11:06:27</time>
      </trkpt>
      <trkpt lat="28.40351" lon="-14.06393">
        <ele>299.2</ele>
        <time>2021-07-05 11:06:28</time>
      </trkpt>
      <trkpt lat="28.40349" lon="-14.06391">
        <ele>299.2</ele>
        <time>2021-07-05 11:06:29</time>
      </trkpt>
      <trkpt lat="28.40346" lon="-14.0639">
        <ele>299.2</ele>
        <time>2021-07-05 11:06:30</time>
      </trkpt>
      <trkpt lat="28.40344" lon="-14.06388">
        <ele>299.2</ele>
        <time>2021-07-05 11:06:31</time>
      </trkpt>
      <trkpt lat="28.40341" lon="-14.06386">
        <ele>299.2</ele>
        <time>2021-07-05 11:06:32</time>
      </trkpt>
      <trkpt lat="28.40338" lon="-14.06384">
        <ele>299.2</ele>
        <time>2021-07-05 11:06:33</time>
      </trkpt>
      <trkpt lat="28.40336" lon="-14.06381">
        <ele>298.8</ele>
        <time>2021-07-05 11:06:34</time>
      </trkpt>
      <trkpt lat="28.40333" lon="-14.06379">
        <ele>298.8</ele>
        <time>2021-07-05 11:06:35</time>
      </trkpt>
      <trkpt lat="28.40331" lon="-14.06376">
        <ele>298.8</ele>
        <time>2021-07-05 11:06:36</time>
      </trkpt>
      <trkpt lat="28.40328" lon="-14.06374">
        <ele>298.8</ele>
        <time>2021-07-05 11:06:37</time>
      </trkpt>
      <trkpt lat="28.40326" lon="-14.06371">
        <ele>298.8</ele>
        <time>2021-07-05 11:06:38</time>
      </trkpt>
      <trkpt lat="28.40323" lon="-14.06369">
        <ele>298.8</ele>
        <time>2021-07-05 11:06:39</time>
      </trkpt>
      <trkpt lat="28.40322" lon="-14.06367">
        <ele>298.6</ele>
        <time>2021-07-05 11:06:40</time>
      </trkpt>
      <trkpt lat="28.4032" lon="-14.06365">
        <ele>298.6</ele>
        <time>2021-07-05 11:06:41</time>
      </trkpt>
      <trkpt lat="28.40318" lon="-14.06363">
        <ele>298.6</ele>
        <time>2021-07-05 11:06:42</time>
      </trkpt>
      <trkpt lat="28.40316" lon="-14.06361">
        <ele>298.6</ele>
        <time>2021-07-05 11:06:43</time>
      </trkpt>
      <trkpt lat="28.40314" lon="-14.06359">
        <ele>298.6</ele>
        <time>2021-07-05 11:06:44</time>
      </trkpt>
      <trkpt lat="28.40312" lon="-14.06357">
        <ele>298.4</ele>
        <time>2021-07-05 11:06:45</time>
      </trkpt>
      <trkpt lat="28.40311" lon="-14.06355">
        <ele>298.4</ele>
        <time>2021-07-05 11:06:46</time>
      </trkpt>
      <trkpt lat="28.40308" lon="-14.06353">
        <ele>298.4</ele>
        <time>2021-07-05 11:06:47</time>
      </trkpt>
      <trkpt lat="28.40306" lon="-14.06351">
        <ele>298.4</ele>
        <time>2021-07-05 11:06:48</time>
      </trkpt>
      <trkpt lat="28.40303" lon="-14.06349">
        <ele>298.4</ele>
        <time>2021-07-05 11:06:49</time>
      </trkpt>
      <trkpt lat="28.40301" lon="-14.06346">
        <ele>298.4</ele>
        <time>2021-07-05 11:06:50</time>
      </trkpt>
      <trkpt lat="28.40299" lon="-14.06344">
        <ele>298.2</ele>
        <time>2021-07-05 11:06:51</time>
      </trkpt>
      <trkpt lat="28.40297" lon="-14.06342">
        <ele>298.2</ele>
        <time>2021-07-05 11:06:52</time>
      </trkpt>
      <trkpt lat="28.40295" lon="-14.06339">
        <ele>298.2</ele>
        <time>2021-07-05 11:06:53</time>
      </trkpt>
      <trkpt lat="28.40292" lon="-14.06336">
        <ele>298.2</ele>
        <time>2021-07-05 11:06:54</time>
      </trkpt>
      <trkpt lat="28.4029" lon="-14.06333">
        <ele>298.2</ele>
        <time>2021-07-05 11:06:55</time>
      </trkpt>
      <trkpt lat="28.40288" lon="-14.0633">
        <ele>298</ele>
        <time>2021-07-05 11:06:56</time>
      </trkpt>
      <trkpt lat="28.40286" lon="-14.06327">
        <ele>298</ele>
        <time>2021-07-05 11:06:57</time>
      </trkpt>
      <trkpt lat="28.40284" lon="-14.06324">
        <ele>298</ele>
        <time>2021-07-05 11:06:58</time>
      </trkpt>
      <trkpt lat="28.40282" lon="-14.06321">
        <ele>297.6</ele>
        <time>2021-07-05 11:06:59</time>
      </trkpt>
      <trkpt lat="28.4028" lon="-14.06318">
        <ele>297.6</ele>
        <time>2021-07-05 11:07:00</time>
      </trkpt>
      <trkpt lat="28.40278" lon="-14.06315">
        <ele>297.4</ele>
        <time>2021-07-05 11:07:01</time>
      </trkpt>
      <trkpt lat="28.40276" lon="-14.06313">
        <ele>297.4</ele>
        <time>2021-07-05 11:07:02</time>
      </trkpt>
      <trkpt lat="28.40274" lon="-14.0631">
        <ele>297.4</ele>
        <time>2021-07-05 11:07:03</time>
      </trkpt>
      <trkpt lat="28.40272" lon="-14.06308">
        <ele>297.4</ele>
        <time>2021-07-05 11:07:04</time>
      </trkpt>
      <trkpt lat="28.4027" lon="-14.06306">
        <ele>297.2</ele>
        <time>2021-07-05 11:07:05</time>
      </trkpt>
      <trkpt lat="28.40268" lon="-14.06305">
        <ele>297.2</ele>
        <time>2021-07-05 11:07:06</time>
      </trkpt>
      <trkpt lat="28.40266" lon="-14.06303">
        <ele>297.2</ele>
        <time>2021-07-05 11:07:07</time>
      </trkpt>
      <trkpt lat="28.40263" lon="-14.06301">
        <ele>297</ele>
        <time>2021-07-05 11:07:08</time>
      </trkpt>
      <trkpt lat="28.40261" lon="-14.06299">
        <ele>297</ele>
        <time>2021-07-05 11:07:09</time>
      </trkpt>
      <trkpt lat="28.40258" lon="-14.06297">
        <ele>297</ele>
        <time>2021-07-05 11:07:10</time>
      </trkpt>
      <trkpt lat="28.40256" lon="-14.06295">
        <ele>297</ele>
        <time>2021-07-05 11:07:11</time>
      </trkpt>
      <trkpt lat="28.40254" lon="-14.06294">
        <ele>297</ele>
        <time>2021-07-05 11:07:12</time>
      </trkpt>
      <trkpt lat="28.40252" lon="-14.06292">
        <ele>296.8</ele>
        <time>2021-07-05 11:07:13</time>
      </trkpt>
      <trkpt lat="28.40249" lon="-14.0629">
        <ele>296.8</ele>
        <time>2021-07-05 11:07:14</time>
      </trkpt>
      <trkpt lat="28.40247" lon="-14.06288">
        <ele>296.8</ele>
        <time>2021-07-05 11:07:15</time>
      </trkpt>
      <trkpt lat="28.40244" lon="-14.06286">
        <ele>296.6</ele>
        <time>2021-07-05 11:07:16</time>
      </trkpt>
      <trkpt lat="28.40241" lon="-14.06284">
        <ele>296.6</ele>
        <time>2021-07-05 11:07:17</time>
      </trkpt>
      <trkpt lat="28.40239" lon="-14.06282">
        <ele>296.6</ele>
        <time>2021-07-05 11:07:18</time>
      </trkpt>
      <trkpt lat="28.40237" lon="-14.06281">
        <ele>296.2</ele>
        <time>2021-07-05 11:07:19</time>
      </trkpt>
      <trkpt lat="28.40234" lon="-14.0628">
        <ele>296.2</ele>
        <time>2021-07-05 11:07:20</time>
      </trkpt>
      <trkpt lat="28.40232" lon="-14.06278">
        <ele>296</ele>
        <time>2021-07-05 11:07:21</time>
      </trkpt>
      <trkpt lat="28.4023" lon="-14.06277">
        <ele>296</ele>
        <time>2021-07-05 11:07:22</time>
      </trkpt>
      <trkpt lat="28.40229" lon="-14.06276">
        <ele>296</ele>
        <time>2021-07-05 11:07:23</time>
      </trkpt>
      <trkpt lat="28.40227" lon="-14.06275">
        <ele>295.6</ele>
        <time>2021-07-05 11:07:24</time>
      </trkpt>
      <trkpt lat="28.40225" lon="-14.06273">
        <ele>295.6</ele>
        <time>2021-07-05 11:07:25</time>
      </trkpt>
      <trkpt lat="28.40222" lon="-14.06272">
        <ele>295.6</ele>
        <time>2021-07-05 11:07:26</time>
      </trkpt>
      <trkpt lat="28.4022" lon="-14.0627">
        <ele>295.6</ele>
        <time>2021-07-05 11:07:27</time>
      </trkpt>
      <trkpt lat="28.40217" lon="-14.06268">
        <ele>295.6</ele>
        <time>2021-07-05 11:07:28</time>
      </trkpt>
      <trkpt lat="28.40215" lon="-14.06268">
        <ele>295.6</ele>
        <time>2021-07-05 11:07:29</time>
      </trkpt>
      <trkpt lat="28.40212" lon="-14.06267">
        <ele>295.6</ele>
        <time>2021-07-05 11:07:30</time>
      </trkpt>
      <trkpt lat="28.40209" lon="-14.06266">
        <ele>295.4</ele>
        <time>2021-07-05 11:07:31</time>
      </trkpt>
      <trkpt lat="28.40207" lon="-14.06265">
        <ele>295.4</ele>
        <time>2021-07-05 11:07:32</time>
      </trkpt>
      <trkpt lat="28.40203" lon="-14.06265">
        <ele>295.4</ele>
        <time>2021-07-05 11:07:33</time>
      </trkpt>
      <trkpt lat="28.402" lon="-14.06264">
        <ele>295.4</ele>
        <time>2021-07-05 11:07:34</time>
      </trkpt>
      <trkpt lat="28.40196" lon="-14.06264">
        <ele>295.2</ele>
        <time>2021-07-05 11:07:35</time>
      </trkpt>
      <trkpt lat="28.40193" lon="-14.06264">
        <ele>294.8</ele>
        <time>2021-07-05 11:07:36</time>
      </trkpt>
      <trkpt lat="28.4019" lon="-14.06263">
        <ele>294.8</ele>
        <time>2021-07-05 11:07:37</time>
      </trkpt>
      <trkpt lat="28.40187" lon="-14.06262">
        <ele>294.8</ele>
        <time>2021-07-05 11:07:38</time>
      </trkpt>
      <trkpt lat="28.40185" lon="-14.06261">
        <ele>294.8</ele>
        <time>2021-07-05 11:07:39</time>
      </trkpt>
      <trkpt lat="28.40183" lon="-14.06261">
        <ele>294.6</ele>
        <time>2021-07-05 11:07:40</time>
      </trkpt>
      <trkpt lat="28.40181" lon="-14.0626">
        <ele>294.6</ele>
        <time>2021-07-05 11:07:41</time>
      </trkpt>
      <trkpt lat="28.40179" lon="-14.0626">
        <ele>294.4</ele>
        <time>2021-07-05 11:07:42</time>
      </trkpt>
      <trkpt lat="28.40176" lon="-14.06259">
        <ele>294.4</ele>
        <time>2021-07-05 11:07:43</time>
      </trkpt>
      <trkpt lat="28.40173" lon="-14.06259">
        <ele>294.4</ele>
        <time>2021-07-05 11:07:44</time>
      </trkpt>
      <trkpt lat="28.4017" lon="-14.06258">
        <ele>294.2</ele>
        <time>2021-07-05 11:07:45</time>
      </trkpt>
      <trkpt lat="28.40167" lon="-14.06258">
        <ele>294.2</ele>
        <time>2021-07-05 11:07:46</time>
      </trkpt>
      <trkpt lat="28.40164" lon="-14.06258">
        <ele>294.2</ele>
        <time>2021-07-05 11:07:47</time>
      </trkpt>
      <trkpt lat="28.40161" lon="-14.06257">
        <ele>293.8</ele>
        <time>2021-07-05 11:07:48</time>
      </trkpt>
      <trkpt lat="28.40159" lon="-14.06257">
        <ele>293.8</ele>
        <time>2021-07-05 11:07:49</time>
      </trkpt>
      <trkpt lat="28.40156" lon="-14.06257">
        <ele>293.6</ele>
        <time>2021-07-05 11:07:50</time>
      </trkpt>
      <trkpt lat="28.40154" lon="-14.06257">
        <ele>293.6</ele>
        <time>2021-07-05 11:07:51</time>
      </trkpt>
      <trkpt lat="28.40151" lon="-14.06257">
        <ele>293.6</ele>
        <time>2021-07-05 11:07:52</time>
      </trkpt>
      <trkpt lat="28.40149" lon="-14.06258">
        <ele>293.6</ele>
        <time>2021-07-05 11:07:53</time>
      </trkpt>
      <trkpt lat="28.40145" lon="-14.06258">
        <ele>293.4</ele>
        <time>2021-07-05 11:07:54</time>
      </trkpt>
      <trkpt lat="28.40142" lon="-14.06258">
        <ele>293.4</ele>
        <time>2021-07-05 11:07:55</time>
      </trkpt>
      <trkpt lat="28.40139" lon="-14.06259">
        <ele>293.2</ele>
        <time>2021-07-05 11:07:56</time>
      </trkpt>
      <trkpt lat="28.40135" lon="-14.06259">
        <ele>293.2</ele>
        <time>2021-07-05 11:07:57</time>
      </trkpt>
      <trkpt lat="28.40131" lon="-14.0626">
        <ele>293</ele>
        <time>2021-07-05 11:07:58</time>
      </trkpt>
      <trkpt lat="28.40128" lon="-14.06261">
        <ele>293</ele>
        <time>2021-07-05 11:07:59</time>
      </trkpt>
      <trkpt lat="28.40124" lon="-14.06262">
        <ele>292.8</ele>
        <time>2021-07-05 11:08:00</time>
      </trkpt>
      <trkpt lat="28.40121" lon="-14.06263">
        <ele>292.4</ele>
        <time>2021-07-05 11:08:01</time>
      </trkpt>
      <trkpt lat="28.40117" lon="-14.06264">
        <ele>292.4</ele>
        <time>2021-07-05 11:08:02</time>
      </trkpt>
      <trkpt lat="28.40114" lon="-14.06265">
        <ele>292.4</ele>
        <time>2021-07-05 11:08:03</time>
      </trkpt>
      <trkpt lat="28.4011" lon="-14.06266">
        <ele>292.4</ele>
        <time>2021-07-05 11:08:04</time>
      </trkpt>
      <trkpt lat="28.40107" lon="-14.06268">
        <ele>292.2</ele>
        <time>2021-07-05 11:08:05</time>
      </trkpt>
      <trkpt lat="28.40103" lon="-14.0627">
        <ele>292.2</ele>
        <time>2021-07-05 11:08:06</time>
      </trkpt>
      <trkpt lat="28.401" lon="-14.06272">
        <ele>292.2</ele>
        <time>2021-07-05 11:08:07</time>
      </trkpt>
      <trkpt lat="28.40097" lon="-14.06275">
        <ele>292.2</ele>
        <time>2021-07-05 11:08:08</time>
      </trkpt>
      <trkpt lat="28.40094" lon="-14.06277">
        <ele>292</ele>
        <time>2021-07-05 11:08:09</time>
      </trkpt>
      <trkpt lat="28.40091" lon="-14.06279">
        <ele>292</ele>
        <time>2021-07-05 11:08:10</time>
      </trkpt>
      <trkpt lat="28.40088" lon="-14.06282">
        <ele>292</ele>
        <time>2021-07-05 11:08:11</time>
      </trkpt>
      <trkpt lat="28.40086" lon="-14.06285">
        <ele>292</ele>
        <time>2021-07-05 11:08:12</time>
      </trkpt>
      <trkpt lat="28.40083" lon="-14.06288">
        <ele>291.8</ele>
        <time>2021-07-05 11:08:13</time>
      </trkpt>
      <trkpt lat="28.4008" lon="-14.06291">
        <ele>291.8</ele>
        <time>2021-07-05 11:08:14</time>
      </trkpt>
      <trkpt lat="28.40078" lon="-14.06295">
        <ele>291.8</ele>
        <time>2021-07-05 11:08:15</time>
      </trkpt>
      <trkpt lat="28.40075" lon="-14.06298">
        <ele>291.8</ele>
        <time>2021-07-05 11:08:16</time>
      </trkpt>
      <trkpt lat="28.40073" lon="-14.06301">
        <ele>291.8</ele>
        <time>2021-07-05 11:08:17</time>
      </trkpt>
      <trkpt lat="28.4007" lon="-14.06304">
        <ele>291.8</ele>
        <time>2021-07-05 11:08:18</time>
      </trkpt>
      <trkpt lat="28.40068" lon="-14.06308">
        <ele>291.8</ele>
        <time>2021-07-05 11:08:19</time>
      </trkpt>
      <trkpt lat="28.40066" lon="-14.06311">
        <ele>291.8</ele>
        <time>2021-07-05 11:08:20</time>
      </trkpt>
      <trkpt lat="28.40064" lon="-14.06314">
        <ele>291.8</ele>
        <time>2021-07-05 11:08:21</time>
      </trkpt>
      <trkpt lat="28.40062" lon="-14.06318">
        <ele>291.8</ele>
        <time>2021-07-05 11:08:22</time>
      </trkpt>
      <trkpt lat="28.4006" lon="-14.0632">
        <ele>291.8</ele>
        <time>2021-07-05 11:08:23</time>
      </trkpt>
      <trkpt lat="28.40058" lon="-14.06323">
        <ele>291.8</ele>
        <time>2021-07-05 11:08:24</time>
      </trkpt>
      <trkpt lat="28.40056" lon="-14.06325">
        <ele>291.8</ele>
        <time>2021-07-05 11:08:25</time>
      </trkpt>
      <trkpt lat="28.40054" lon="-14.06327">
        <ele>291.8</ele>
        <time>2021-07-05 11:08:26</time>
      </trkpt>
      <trkpt lat="28.40053" lon="-14.06329">
        <ele>291.8</ele>
        <time>2021-07-05 11:08:27</time>
      </trkpt>
      <trkpt lat="28.40051" lon="-14.06332">
        <ele>291.8</ele>
        <time>2021-07-05 11:08:28</time>
      </trkpt>
      <trkpt lat="28.40051" lon="-14.06335">
        <ele>291.8</ele>
        <time>2021-07-05 11:08:29</time>
      </trkpt>
      <trkpt lat="28.40051" lon="-14.06336">
        <ele>291.8</ele>
        <time>2021-07-05 11:08:30</time>
      </trkpt>
      <trkpt lat="28.4005" lon="-14.06336">
        <ele>291.8</ele>
        <time>2021-07-05 11:08:31</time>
      </trkpt>
      <trkpt lat="28.40051" lon="-14.06336">
        <ele>291.8</ele>
        <time>2021-07-05 11:08:32</time>
      </trkpt>
      <trkpt lat="28.40051" lon="-14.06336">
        <ele>291.8</ele>
        <time>2021-07-05 11:08:33</time>
      </trkpt>
      <trkpt lat="28.4005" lon="-14.06337">
        <ele>292</ele>
        <time>2021-07-05 11:08:38</time>
      </trkpt>
      <trkpt lat="28.4005" lon="-14.0634">
        <ele>292</ele>
        <time>2021-07-05 11:08:39</time>
      </trkpt>
      <trkpt lat="28.40048" lon="-14.06342">
        <ele>291.8</ele>
        <time>2021-07-05 11:08:40</time>
      </trkpt>
      <trkpt lat="28.40046" lon="-14.06345">
        <ele>291.8</ele>
        <time>2021-07-05 11:08:41</time>
      </trkpt>
      <trkpt lat="28.40045" lon="-14.06348">
        <ele>291.8</ele>
        <time>2021-07-05 11:08:42</time>
      </trkpt>
      <trkpt lat="28.40043" lon="-14.06351">
        <ele>291.8</ele>
        <time>2021-07-05 11:08:43</time>
      </trkpt>
      <trkpt lat="28.40042" lon="-14.06355">
        <ele>291.8</ele>
        <time>2021-07-05 11:08:44</time>
      </trkpt>
      <trkpt lat="28.40041" lon="-14.06358">
        <ele>291.8</ele>
        <time>2021-07-05 11:08:45</time>
      </trkpt>
      <trkpt lat="28.40039" lon="-14.06362">
        <ele>291.8</ele>
        <time>2021-07-05 11:08:46</time>
      </trkpt>
      <trkpt lat="28.40038" lon="-14.06366">
        <ele>291.8</ele>
        <time>2021-07-05 11:08:47</time>
      </trkpt>
      <trkpt lat="28.40036" lon="-14.0637">
        <ele>291.8</ele>
        <time>2021-07-05 11:08:48</time>
      </trkpt>
      <trkpt lat="28.40035" lon="-14.06374">
        <ele>291.8</ele>
        <time>2021-07-05 11:08:49</time>
      </trkpt>
      <trkpt lat="28.40033" lon="-14.06378">
        <ele>291.8</ele>
        <time>2021-07-05 11:08:50</time>
      </trkpt>
      <trkpt lat="28.40032" lon="-14.06383">
        <ele>291.6</ele>
        <time>2021-07-05 11:08:51</time>
      </trkpt>
      <trkpt lat="28.40031" lon="-14.06387">
        <ele>291.6</ele>
        <time>2021-07-05 11:08:52</time>
      </trkpt>
      <trkpt lat="28.4003" lon="-14.06391">
        <ele>291.6</ele>
        <time>2021-07-05 11:08:53</time>
      </trkpt>
      <trkpt lat="28.40029" lon="-14.06395">
        <ele>291.4</ele>
        <time>2021-07-05 11:08:54</time>
      </trkpt>
      <trkpt lat="28.40028" lon="-14.06399">
        <ele>291.4</ele>
        <time>2021-07-05 11:08:55</time>
      </trkpt>
      <trkpt lat="28.40026" lon="-14.06404">
        <ele>291.4</ele>
        <time>2021-07-05 11:08:56</time>
      </trkpt>
      <trkpt lat="28.40025" lon="-14.06408">
        <ele>291.4</ele>
        <time>2021-07-05 11:08:57</time>
      </trkpt>
      <trkpt lat="28.40024" lon="-14.06413">
        <ele>291.4</ele>
        <time>2021-07-05 11:08:58</time>
      </trkpt>
      <trkpt lat="28.40023" lon="-14.06417">
        <ele>291.4</ele>
        <time>2021-07-05 11:08:59</time>
      </trkpt>
      <trkpt lat="28.40021" lon="-14.06422">
        <ele>291</ele>
        <time>2021-07-05 11:09:00</time>
      </trkpt>
      <trkpt lat="28.4002" lon="-14.06426">
        <ele>291</ele>
        <time>2021-07-05 11:09:01</time>
      </trkpt>
      <trkpt lat="28.40019" lon="-14.06431">
        <ele>291</ele>
        <time>2021-07-05 11:09:02</time>
      </trkpt>
      <trkpt lat="28.40017" lon="-14.06435">
        <ele>291</ele>
        <time>2021-07-05 11:09:03</time>
      </trkpt>
      <trkpt lat="28.40016" lon="-14.0644">
        <ele>290.8</ele>
        <time>2021-07-05 11:09:04</time>
      </trkpt>
      <trkpt lat="28.40014" lon="-14.06444">
        <ele>290.8</ele>
        <time>2021-07-05 11:09:05</time>
      </trkpt>
      <trkpt lat="28.40013" lon="-14.06448">
        <ele>290.6</ele>
        <time>2021-07-05 11:09:06</time>
      </trkpt>
      <trkpt lat="28.40011" lon="-14.06452">
        <ele>290.6</ele>
        <time>2021-07-05 11:09:07</time>
      </trkpt>
      <trkpt lat="28.40009" lon="-14.06456">
        <ele>290.6</ele>
        <time>2021-07-05 11:09:08</time>
      </trkpt>
      <trkpt lat="28.40007" lon="-14.0646">
        <ele>290.4</ele>
        <time>2021-07-05 11:09:09</time>
      </trkpt>
      <trkpt lat="28.40005" lon="-14.06463">
        <ele>290.4</ele>
        <time>2021-07-05 11:09:10</time>
      </trkpt>
      <trkpt lat="28.40002" lon="-14.06467">
        <ele>290.4</ele>
        <time>2021-07-05 11:09:11</time>
      </trkpt>
      <trkpt lat="28.4" lon="-14.06471">
        <ele>290</ele>
        <time>2021-07-05 11:09:12</time>
      </trkpt>
      <trkpt lat="28.39997" lon="-14.06475">
        <ele>290</ele>
        <time>2021-07-05 11:09:13</time>
      </trkpt>
      <trkpt lat="28.39995" lon="-14.06479">
        <ele>290</ele>
        <time>2021-07-05 11:09:14</time>
      </trkpt>
      <trkpt lat="28.39992" lon="-14.06483">
        <ele>290</ele>
        <time>2021-07-05 11:09:15</time>
      </trkpt>
      <trkpt lat="28.3999" lon="-14.06487">
        <ele>289.8</ele>
        <time>2021-07-05 11:09:16</time>
      </trkpt>
      <trkpt lat="28.39987" lon="-14.0649">
        <ele>289.8</ele>
        <time>2021-07-05 11:09:17</time>
      </trkpt>
      <trkpt lat="28.39984" lon="-14.06494">
        <ele>289.4</ele>
        <time>2021-07-05 11:09:18</time>
      </trkpt>
      <trkpt lat="28.39981" lon="-14.06497">
        <ele>289.2</ele>
        <time>2021-07-05 11:09:19</time>
      </trkpt>
      <trkpt lat="28.39977" lon="-14.065">
        <ele>289.2</ele>
        <time>2021-07-05 11:09:20</time>
      </trkpt>
      <trkpt lat="28.39974" lon="-14.06504">
        <ele>289.2</ele>
        <time>2021-07-05 11:09:21</time>
      </trkpt>
      <trkpt lat="28.39971" lon="-14.06508">
        <ele>288.8</ele>
        <time>2021-07-05 11:09:22</time>
      </trkpt>
      <trkpt lat="28.39968" lon="-14.06511">
        <ele>288.8</ele>
        <time>2021-07-05 11:09:23</time>
      </trkpt>
      <trkpt lat="28.39965" lon="-14.06515">
        <ele>288.8</ele>
        <time>2021-07-05 11:09:24</time>
      </trkpt>
      <trkpt lat="28.39961" lon="-14.06519">
        <ele>288.6</ele>
        <time>2021-07-05 11:09:25</time>
      </trkpt>
      <trkpt lat="28.39958" lon="-14.06522">
        <ele>288.4</ele>
        <time>2021-07-05 11:09:26</time>
      </trkpt>
      <trkpt lat="28.39954" lon="-14.06525">
        <ele>288.4</ele>
        <time>2021-07-05 11:09:27</time>
      </trkpt>
      <trkpt lat="28.3995" lon="-14.06528">
        <ele>288</ele>
        <time>2021-07-05 11:09:28</time>
      </trkpt>
      <trkpt lat="28.39947" lon="-14.06531">
        <ele>288</ele>
        <time>2021-07-05 11:09:29</time>
      </trkpt>
      <trkpt lat="28.39943" lon="-14.06534">
        <ele>287.8</ele>
        <time>2021-07-05 11:09:30</time>
      </trkpt>
      <trkpt lat="28.39939" lon="-14.06537">
        <ele>287.8</ele>
        <time>2021-07-05 11:09:31</time>
      </trkpt>
      <trkpt lat="28.39935" lon="-14.0654">
        <ele>287.4</ele>
        <time>2021-07-05 11:09:32</time>
      </trkpt>
      <trkpt lat="28.39931" lon="-14.06543">
        <ele>287.4</ele>
        <time>2021-07-05 11:09:33</time>
      </trkpt>
      <trkpt lat="28.39928" lon="-14.06546">
        <ele>287</ele>
        <time>2021-07-05 11:09:34</time>
      </trkpt>
      <trkpt lat="28.39924" lon="-14.0655">
        <ele>287</ele>
        <time>2021-07-05 11:09:35</time>
      </trkpt>
      <trkpt lat="28.3992" lon="-14.06553">
        <ele>286.8</ele>
        <time>2021-07-05 11:09:36</time>
      </trkpt>
      <trkpt lat="28.39916" lon="-14.06556">
        <ele>286.6</ele>
        <time>2021-07-05 11:09:37</time>
      </trkpt>
      <trkpt lat="28.39912" lon="-14.0656">
        <ele>286.6</ele>
        <time>2021-07-05 11:09:38</time>
      </trkpt>
      <trkpt lat="28.39908" lon="-14.06563">
        <ele>286.6</ele>
        <time>2021-07-05 11:09:39</time>
      </trkpt>
      <trkpt lat="28.39905" lon="-14.06567">
        <ele>286.4</ele>
        <time>2021-07-05 11:09:40</time>
      </trkpt>
      <trkpt lat="28.39902" lon="-14.0657">
        <ele>286.2</ele>
        <time>2021-07-05 11:09:41</time>
      </trkpt>
      <trkpt lat="28.39899" lon="-14.06573">
        <ele>286.2</ele>
        <time>2021-07-05 11:09:42</time>
      </trkpt>
      <trkpt lat="28.39895" lon="-14.06576">
        <ele>285.8</ele>
        <time>2021-07-05 11:09:43</time>
      </trkpt>
      <trkpt lat="28.39891" lon="-14.06579">
        <ele>285.8</ele>
        <time>2021-07-05 11:09:44</time>
      </trkpt>
      <trkpt lat="28.39888" lon="-14.06581">
        <ele>285.4</ele>
        <time>2021-07-05 11:09:45</time>
      </trkpt>
      <trkpt lat="28.39884" lon="-14.06583">
        <ele>285.4</ele>
        <time>2021-07-05 11:09:46</time>
      </trkpt>
      <trkpt lat="28.39881" lon="-14.06585">
        <ele>285.4</ele>
        <time>2021-07-05 11:09:47</time>
      </trkpt>
      <trkpt lat="28.39877" lon="-14.06587">
        <ele>285.2</ele>
        <time>2021-07-05 11:09:48</time>
      </trkpt>
      <trkpt lat="28.39874" lon="-14.06589">
        <ele>285.2</ele>
        <time>2021-07-05 11:09:49</time>
      </trkpt>
      <trkpt lat="28.39871" lon="-14.0659">
        <ele>285.2</ele>
        <time>2021-07-05 11:09:50</time>
      </trkpt>
      <trkpt lat="28.39867" lon="-14.06592">
        <ele>285.2</ele>
        <time>2021-07-05 11:09:51</time>
      </trkpt>
      <trkpt lat="28.39863" lon="-14.06595">
        <ele>285.2</ele>
        <time>2021-07-05 11:09:52</time>
      </trkpt>
      <trkpt lat="28.39859" lon="-14.06597">
        <ele>284.8</ele>
        <time>2021-07-05 11:09:53</time>
      </trkpt>
      <trkpt lat="28.39855" lon="-14.066">
        <ele>284.8</ele>
        <time>2021-07-05 11:09:54</time>
      </trkpt>
      <trkpt lat="28.3985" lon="-14.06603">
        <ele>284.6</ele>
        <time>2021-07-05 11:09:55</time>
      </trkpt>
      <trkpt lat="28.39846" lon="-14.06606">
        <ele>284.4</ele>
        <time>2021-07-05 11:09:56</time>
      </trkpt>
      <trkpt lat="28.39842" lon="-14.06608">
        <ele>284.4</ele>
        <time>2021-07-05 11:09:57</time>
      </trkpt>
      <trkpt lat="28.39837" lon="-14.06611">
        <ele>284.4</ele>
        <time>2021-07-05 11:09:58</time>
      </trkpt>
      <trkpt lat="28.39833" lon="-14.06615">
        <ele>284.4</ele>
        <time>2021-07-05 11:09:59</time>
      </trkpt>
      <trkpt lat="28.39829" lon="-14.06618">
        <ele>284</ele>
        <time>2021-07-05 11:10:00</time>
      </trkpt>
      <trkpt lat="28.39824" lon="-14.06621">
        <ele>284</ele>
        <time>2021-07-05 11:10:01</time>
      </trkpt>
      <trkpt lat="28.39821" lon="-14.06625">
        <ele>283.8</ele>
        <time>2021-07-05 11:10:02</time>
      </trkpt>
      <trkpt lat="28.39817" lon="-14.06629">
        <ele>283.8</ele>
        <time>2021-07-05 11:10:03</time>
      </trkpt>
      <trkpt lat="28.39814" lon="-14.06634">
        <ele>283.8</ele>
        <time>2021-07-05 11:10:04</time>
      </trkpt>
      <trkpt lat="28.3981" lon="-14.06638">
        <ele>283.6</ele>
        <time>2021-07-05 11:10:05</time>
      </trkpt>
      <trkpt lat="28.39807" lon="-14.06642">
        <ele>283.6</ele>
        <time>2021-07-05 11:10:06</time>
      </trkpt>
      <trkpt lat="28.39804" lon="-14.06647">
        <ele>283.2</ele>
        <time>2021-07-05 11:10:07</time>
      </trkpt>
      <trkpt lat="28.39801" lon="-14.06651">
        <ele>283.2</ele>
        <time>2021-07-05 11:10:08</time>
      </trkpt>
      <trkpt lat="28.39797" lon="-14.06656">
        <ele>283.2</ele>
        <time>2021-07-05 11:10:09</time>
      </trkpt>
      <trkpt lat="28.39794" lon="-14.0666">
        <ele>283</ele>
        <time>2021-07-05 11:10:10</time>
      </trkpt>
      <trkpt lat="28.39791" lon="-14.06664">
        <ele>283</ele>
        <time>2021-07-05 11:10:11</time>
      </trkpt>
      <trkpt lat="28.39788" lon="-14.06669">
        <ele>283</ele>
        <time>2021-07-05 11:10:12</time>
      </trkpt>
      <trkpt lat="28.39785" lon="-14.06674">
        <ele>282.8</ele>
        <time>2021-07-05 11:10:13</time>
      </trkpt>
      <trkpt lat="28.39782" lon="-14.06679">
        <ele>282.8</ele>
        <time>2021-07-05 11:10:14</time>
      </trkpt>
      <trkpt lat="28.39779" lon="-14.06684">
        <ele>282.8</ele>
        <time>2021-07-05 11:10:15</time>
      </trkpt>
      <trkpt lat="28.39776" lon="-14.06689">
        <ele>282.6</ele>
        <time>2021-07-05 11:10:16</time>
      </trkpt>
      <trkpt lat="28.39774" lon="-14.06694">
        <ele>282.6</ele>
        <time>2021-07-05 11:10:17</time>
      </trkpt>
      <trkpt lat="28.39771" lon="-14.06699">
        <ele>282.6</ele>
        <time>2021-07-05 11:10:18</time>
      </trkpt>
      <trkpt lat="28.39768" lon="-14.06705">
        <ele>282.6</ele>
        <time>2021-07-05 11:10:19</time>
      </trkpt>
      <trkpt lat="28.39766" lon="-14.0671">
        <ele>282.4</ele>
        <time>2021-07-05 11:10:20</time>
      </trkpt>
      <trkpt lat="28.39763" lon="-14.06716">
        <ele>282.4</ele>
        <time>2021-07-05 11:10:21</time>
      </trkpt>
      <trkpt lat="28.3976" lon="-14.06721">
        <ele>282.4</ele>
        <time>2021-07-05 11:10:22</time>
      </trkpt>
      <trkpt lat="28.39757" lon="-14.06727">
        <ele>282</ele>
        <time>2021-07-05 11:10:23</time>
      </trkpt>
      <trkpt lat="28.39755" lon="-14.06733">
        <ele>282</ele>
        <time>2021-07-05 11:10:24</time>
      </trkpt>
      <trkpt lat="28.39752" lon="-14.06739">
        <ele>281.8</ele>
        <time>2021-07-05 11:10:25</time>
      </trkpt>
      <trkpt lat="28.3975" lon="-14.06744">
        <ele>281.8</ele>
        <time>2021-07-05 11:10:26</time>
      </trkpt>
      <trkpt lat="28.39747" lon="-14.0675">
        <ele>281.8</ele>
        <time>2021-07-05 11:10:27</time>
      </trkpt>
      <trkpt lat="28.39744" lon="-14.06756">
        <ele>281.8</ele>
        <time>2021-07-05 11:10:28</time>
      </trkpt>
      <trkpt lat="28.39741" lon="-14.06761">
        <ele>281.8</ele>
        <time>2021-07-05 11:10:29</time>
      </trkpt>
      <trkpt lat="28.39737" lon="-14.06766">
        <ele>281.6</ele>
        <time>2021-07-05 11:10:30</time>
      </trkpt>
      <trkpt lat="28.39734" lon="-14.06771">
        <ele>281.2</ele>
        <time>2021-07-05 11:10:31</time>
      </trkpt>
      <trkpt lat="28.39731" lon="-14.06775">
        <ele>281.2</ele>
        <time>2021-07-05 11:10:32</time>
      </trkpt>
      <trkpt lat="28.39727" lon="-14.0678">
        <ele>281.2</ele>
        <time>2021-07-05 11:10:33</time>
      </trkpt>
      <trkpt lat="28.39723" lon="-14.06785">
        <ele>281.2</ele>
        <time>2021-07-05 11:10:34</time>
      </trkpt>
      <trkpt lat="28.39719" lon="-14.06789">
        <ele>280.8</ele>
        <time>2021-07-05 11:10:35</time>
      </trkpt>
      <trkpt lat="28.39715" lon="-14.06793">
        <ele>280.8</ele>
        <time>2021-07-05 11:10:36</time>
      </trkpt>
      <trkpt lat="28.39711" lon="-14.06798">
        <ele>280.6</ele>
        <time>2021-07-05 11:10:37</time>
      </trkpt>
      <trkpt lat="28.39706" lon="-14.06803">
        <ele>280.6</ele>
        <time>2021-07-05 11:10:38</time>
      </trkpt>
      <trkpt lat="28.39702" lon="-14.06807">
        <ele>280.2</ele>
        <time>2021-07-05 11:10:39</time>
      </trkpt>
      <trkpt lat="28.39698" lon="-14.06812">
        <ele>280.2</ele>
        <time>2021-07-05 11:10:40</time>
      </trkpt>
      <trkpt lat="28.39694" lon="-14.06817">
        <ele>279.8</ele>
        <time>2021-07-05 11:10:41</time>
      </trkpt>
      <trkpt lat="28.39691" lon="-14.06823">
        <ele>279.6</ele>
        <time>2021-07-05 11:10:42</time>
      </trkpt>
      <trkpt lat="28.39688" lon="-14.06828">
        <ele>279.6</ele>
        <time>2021-07-05 11:10:43</time>
      </trkpt>
      <trkpt lat="28.39684" lon="-14.06833">
        <ele>279.2</ele>
        <time>2021-07-05 11:10:44</time>
      </trkpt>
      <trkpt lat="28.39681" lon="-14.06838">
        <ele>279</ele>
        <time>2021-07-05 11:10:45</time>
      </trkpt>
      <trkpt lat="28.39677" lon="-14.06843">
        <ele>279</ele>
        <time>2021-07-05 11:10:46</time>
      </trkpt>
      <trkpt lat="28.39673" lon="-14.06848">
        <ele>278.8</ele>
        <time>2021-07-05 11:10:47</time>
      </trkpt>
      <trkpt lat="28.39669" lon="-14.06853">
        <ele>278.8</ele>
        <time>2021-07-05 11:10:48</time>
      </trkpt>
      <trkpt lat="28.39665" lon="-14.06858">
        <ele>278.8</ele>
        <time>2021-07-05 11:10:49</time>
      </trkpt>
      <trkpt lat="28.39661" lon="-14.06862">
        <ele>278.6</ele>
        <time>2021-07-05 11:10:50</time>
      </trkpt>
      <trkpt lat="28.39657" lon="-14.06867">
        <ele>278.6</ele>
        <time>2021-07-05 11:10:51</time>
      </trkpt>
      <trkpt lat="28.39653" lon="-14.06871">
        <ele>278.4</ele>
        <time>2021-07-05 11:10:52</time>
      </trkpt>
      <trkpt lat="28.39648" lon="-14.06876">
        <ele>278</ele>
        <time>2021-07-05 11:10:53</time>
      </trkpt>
      <trkpt lat="28.39643" lon="-14.0688">
        <ele>278</ele>
        <time>2021-07-05 11:10:54</time>
      </trkpt>
      <trkpt lat="28.39638" lon="-14.06884">
        <ele>277.8</ele>
        <time>2021-07-05 11:10:55</time>
      </trkpt>
      <trkpt lat="28.39633" lon="-14.06888">
        <ele>277.8</ele>
        <time>2021-07-05 11:10:56</time>
      </trkpt>
      <trkpt lat="28.39628" lon="-14.06892">
        <ele>277.4</ele>
        <time>2021-07-05 11:10:57</time>
      </trkpt>
      <trkpt lat="28.39623" lon="-14.06896">
        <ele>277.4</ele>
        <time>2021-07-05 11:10:58</time>
      </trkpt>
      <trkpt lat="28.39618" lon="-14.069">
        <ele>277.4</ele>
        <time>2021-07-05 11:10:59</time>
      </trkpt>
      <trkpt lat="28.39613" lon="-14.06903">
        <ele>277</ele>
        <time>2021-07-05 11:11:00</time>
      </trkpt>
      <trkpt lat="28.39607" lon="-14.06906">
        <ele>277</ele>
        <time>2021-07-05 11:11:01</time>
      </trkpt>
      <trkpt lat="28.39602" lon="-14.06909">
        <ele>276.8</ele>
        <time>2021-07-05 11:11:02</time>
      </trkpt>
      <trkpt lat="28.39596" lon="-14.06912">
        <ele>276.8</ele>
        <time>2021-07-05 11:11:03</time>
      </trkpt>
      <trkpt lat="28.39591" lon="-14.06914">
        <ele>276.4</ele>
        <time>2021-07-05 11:11:04</time>
      </trkpt>
      <trkpt lat="28.39585" lon="-14.06917">
        <ele>276.4</ele>
        <time>2021-07-05 11:11:05</time>
      </trkpt>
      <trkpt lat="28.3958" lon="-14.0692">
        <ele>276.2</ele>
        <time>2021-07-05 11:11:06</time>
      </trkpt>
      <trkpt lat="28.39574" lon="-14.06922">
        <ele>276.2</ele>
        <time>2021-07-05 11:11:07</time>
      </trkpt>
      <trkpt lat="28.39569" lon="-14.06925">
        <ele>275.8</ele>
        <time>2021-07-05 11:11:08</time>
      </trkpt>
      <trkpt lat="28.39564" lon="-14.06927">
        <ele>275.8</ele>
        <time>2021-07-05 11:11:09</time>
      </trkpt>
      <trkpt lat="28.39559" lon="-14.06929">
        <ele>275.6</ele>
        <time>2021-07-05 11:11:10</time>
      </trkpt>
      <trkpt lat="28.39554" lon="-14.06932">
        <ele>275.4</ele>
        <time>2021-07-05 11:11:11</time>
      </trkpt>
      <trkpt lat="28.39548" lon="-14.06934">
        <ele>275.4</ele>
        <time>2021-07-05 11:11:12</time>
      </trkpt>
      <trkpt lat="28.39543" lon="-14.06935">
        <ele>275.4</ele>
        <time>2021-07-05 11:11:13</time>
      </trkpt>
      <trkpt lat="28.39538" lon="-14.06937">
        <ele>275</ele>
        <time>2021-07-05 11:11:14</time>
      </trkpt>
      <trkpt lat="28.39532" lon="-14.06938">
        <ele>275</ele>
        <time>2021-07-05 11:11:15</time>
      </trkpt>
      <trkpt lat="28.39527" lon="-14.06941">
        <ele>274.8</ele>
        <time>2021-07-05 11:11:16</time>
      </trkpt>
      <trkpt lat="28.39522" lon="-14.06943">
        <ele>274.6</ele>
        <time>2021-07-05 11:11:17</time>
      </trkpt>
      <trkpt lat="28.39516" lon="-14.06945">
        <ele>274.6</ele>
        <time>2021-07-05 11:11:18</time>
      </trkpt>
      <trkpt lat="28.39511" lon="-14.06948">
        <ele>274.2</ele>
        <time>2021-07-05 11:11:19</time>
      </trkpt>
      <trkpt lat="28.39506" lon="-14.06951">
        <ele>274.2</ele>
        <time>2021-07-05 11:11:20</time>
      </trkpt>
      <trkpt lat="28.395" lon="-14.06953">
        <ele>273.8</ele>
        <time>2021-07-05 11:11:21</time>
      </trkpt>
      <trkpt lat="28.39495" lon="-14.06957">
        <ele>273.8</ele>
        <time>2021-07-05 11:11:22</time>
      </trkpt>
      <trkpt lat="28.3949" lon="-14.0696">
        <ele>273.4</ele>
        <time>2021-07-05 11:11:23</time>
      </trkpt>
      <trkpt lat="28.39485" lon="-14.06963">
        <ele>273.2</ele>
        <time>2021-07-05 11:11:24</time>
      </trkpt>
      <trkpt lat="28.3948" lon="-14.06966">
        <ele>273.2</ele>
        <time>2021-07-05 11:11:25</time>
      </trkpt>
      <trkpt lat="28.39475" lon="-14.06969">
        <ele>273.2</ele>
        <time>2021-07-05 11:11:26</time>
      </trkpt>
      <trkpt lat="28.3947" lon="-14.06973">
        <ele>273</ele>
        <time>2021-07-05 11:11:27</time>
      </trkpt>
      <trkpt lat="28.39466" lon="-14.06976">
        <ele>273</ele>
        <time>2021-07-05 11:11:28</time>
      </trkpt>
      <trkpt lat="28.39461" lon="-14.06981">
        <ele>272.4</ele>
        <time>2021-07-05 11:11:29</time>
      </trkpt>
      <trkpt lat="28.39456" lon="-14.06985">
        <ele>272.2</ele>
        <time>2021-07-05 11:11:30</time>
      </trkpt>
      <trkpt lat="28.39452" lon="-14.06989">
        <ele>272</ele>
        <time>2021-07-05 11:11:31</time>
      </trkpt>
      <trkpt lat="28.39448" lon="-14.06994">
        <ele>272</ele>
        <time>2021-07-05 11:11:32</time>
      </trkpt>
      <trkpt lat="28.39443" lon="-14.07">
        <ele>271.4</ele>
        <time>2021-07-05 11:11:33</time>
      </trkpt>
      <trkpt lat="28.39439" lon="-14.07004">
        <ele>271.4</ele>
        <time>2021-07-05 11:11:34</time>
      </trkpt>
      <trkpt lat="28.39435" lon="-14.07009">
        <ele>271.2</ele>
        <time>2021-07-05 11:11:35</time>
      </trkpt>
      <trkpt lat="28.3943" lon="-14.07014">
        <ele>271</ele>
        <time>2021-07-05 11:11:36</time>
      </trkpt>
      <trkpt lat="28.39426" lon="-14.07018">
        <ele>271</ele>
        <time>2021-07-05 11:11:37</time>
      </trkpt>
      <trkpt lat="28.39422" lon="-14.07023">
        <ele>271</ele>
        <time>2021-07-05 11:11:38</time>
      </trkpt>
      <trkpt lat="28.39418" lon="-14.07029">
        <ele>270.6</ele>
        <time>2021-07-05 11:11:39</time>
      </trkpt>
      <trkpt lat="28.39415" lon="-14.07035">
        <ele>270.6</ele>
        <time>2021-07-05 11:11:40</time>
      </trkpt>
      <trkpt lat="28.39411" lon="-14.07041">
        <ele>270.6</ele>
        <time>2021-07-05 11:11:41</time>
      </trkpt>
      <trkpt lat="28.39408" lon="-14.07046">
        <ele>270.4</ele>
        <time>2021-07-05 11:11:42</time>
      </trkpt>
      <trkpt lat="28.39404" lon="-14.07051">
        <ele>270.4</ele>
        <time>2021-07-05 11:11:43</time>
      </trkpt>
      <trkpt lat="28.39401" lon="-14.07057">
        <ele>270.4</ele>
        <time>2021-07-05 11:11:44</time>
      </trkpt>
      <trkpt lat="28.39398" lon="-14.07062">
        <ele>270.4</ele>
        <time>2021-07-05 11:11:45</time>
      </trkpt>
      <trkpt lat="28.39394" lon="-14.07068">
        <ele>270.4</ele>
        <time>2021-07-05 11:11:46</time>
      </trkpt>
      <trkpt lat="28.39391" lon="-14.07074">
        <ele>270.4</ele>
        <time>2021-07-05 11:11:47</time>
      </trkpt>
      <trkpt lat="28.39389" lon="-14.0708">
        <ele>270.2</ele>
        <time>2021-07-05 11:11:48</time>
      </trkpt>
      <trkpt lat="28.39386" lon="-14.07087">
        <ele>270.2</ele>
        <time>2021-07-05 11:11:49</time>
      </trkpt>
      <trkpt lat="28.39384" lon="-14.07093">
        <ele>270.2</ele>
        <time>2021-07-05 11:11:50</time>
      </trkpt>
      <trkpt lat="28.39381" lon="-14.07099">
        <ele>270.2</ele>
        <time>2021-07-05 11:11:51</time>
      </trkpt>
      <trkpt lat="28.39379" lon="-14.07106">
        <ele>270.2</ele>
        <time>2021-07-05 11:11:52</time>
      </trkpt>
      <trkpt lat="28.39377" lon="-14.07112">
        <ele>270</ele>
        <time>2021-07-05 11:11:53</time>
      </trkpt>
      <trkpt lat="28.39375" lon="-14.07119">
        <ele>270</ele>
        <time>2021-07-05 11:11:54</time>
      </trkpt>
      <trkpt lat="28.39374" lon="-14.07126">
        <ele>269.8</ele>
        <time>2021-07-05 11:11:55</time>
      </trkpt>
      <trkpt lat="28.39372" lon="-14.07132">
        <ele>269.8</ele>
        <time>2021-07-05 11:11:56</time>
      </trkpt>
      <trkpt lat="28.39371" lon="-14.07139">
        <ele>269.8</ele>
        <time>2021-07-05 11:11:57</time>
      </trkpt>
      <trkpt lat="28.3937" lon="-14.07146">
        <ele>269.8</ele>
        <time>2021-07-05 11:11:58</time>
      </trkpt>
      <trkpt lat="28.3937" lon="-14.07152">
        <ele>269.4</ele>
        <time>2021-07-05 11:11:59</time>
      </trkpt>
      <trkpt lat="28.3937" lon="-14.07159">
        <ele>269</ele>
        <time>2021-07-05 11:12:00</time>
      </trkpt>
      <trkpt lat="28.3937" lon="-14.07166">
        <ele>269</ele>
        <time>2021-07-05 11:12:01</time>
      </trkpt>
      <trkpt lat="28.39371" lon="-14.07173">
        <ele>269</ele>
        <time>2021-07-05 11:12:02</time>
      </trkpt>
      <trkpt lat="28.39371" lon="-14.07179">
        <ele>269</ele>
        <time>2021-07-05 11:12:03</time>
      </trkpt>
      <trkpt lat="28.39372" lon="-14.07185">
        <ele>268.8</ele>
        <time>2021-07-05 11:12:04</time>
      </trkpt>
      <trkpt lat="28.39374" lon="-14.07191">
        <ele>268.8</ele>
        <time>2021-07-05 11:12:05</time>
      </trkpt>
      <trkpt lat="28.39375" lon="-14.07198">
        <ele>268.8</ele>
        <time>2021-07-05 11:12:06</time>
      </trkpt>
      <trkpt lat="28.39377" lon="-14.07204">
        <ele>268.8</ele>
        <time>2021-07-05 11:12:07</time>
      </trkpt>
      <trkpt lat="28.39378" lon="-14.0721">
        <ele>268.4</ele>
        <time>2021-07-05 11:12:08</time>
      </trkpt>
      <trkpt lat="28.39381" lon="-14.07215">
        <ele>268.4</ele>
        <time>2021-07-05 11:12:09</time>
      </trkpt>
      <trkpt lat="28.39383" lon="-14.0722">
        <ele>268.2</ele>
        <time>2021-07-05 11:12:10</time>
      </trkpt>
      <trkpt lat="28.39386" lon="-14.07226">
        <ele>268.2</ele>
        <time>2021-07-05 11:12:11</time>
      </trkpt>
      <trkpt lat="28.39388" lon="-14.07231">
        <ele>268.2</ele>
        <time>2021-07-05 11:12:12</time>
      </trkpt>
      <trkpt lat="28.39391" lon="-14.07236">
        <ele>268.2</ele>
        <time>2021-07-05 11:12:13</time>
      </trkpt>
      <trkpt lat="28.39394" lon="-14.07241">
        <ele>268</ele>
        <time>2021-07-05 11:12:14</time>
      </trkpt>
      <trkpt lat="28.39397" lon="-14.07246">
        <ele>268</ele>
        <time>2021-07-05 11:12:15</time>
      </trkpt>
      <trkpt lat="28.394" lon="-14.07251">
        <ele>268</ele>
        <time>2021-07-05 11:12:16</time>
      </trkpt>
      <trkpt lat="28.39403" lon="-14.07255">
        <ele>267.6</ele>
        <time>2021-07-05 11:12:17</time>
      </trkpt>
      <trkpt lat="28.39406" lon="-14.0726">
        <ele>267.6</ele>
        <time>2021-07-05 11:12:18</time>
      </trkpt>
      <trkpt lat="28.39409" lon="-14.07265">
        <ele>267.4</ele>
        <time>2021-07-05 11:12:19</time>
      </trkpt>
      <trkpt lat="28.39413" lon="-14.07269">
        <ele>267.2</ele>
        <time>2021-07-05 11:12:20</time>
      </trkpt>
      <trkpt lat="28.39416" lon="-14.07274">
        <ele>267.2</ele>
        <time>2021-07-05 11:12:21</time>
      </trkpt>
      <trkpt lat="28.39419" lon="-14.07279">
        <ele>267.2</ele>
        <time>2021-07-05 11:12:22</time>
      </trkpt>
      <trkpt lat="28.39422" lon="-14.07283">
        <ele>267.2</ele>
        <time>2021-07-05 11:12:23</time>
      </trkpt>
      <trkpt lat="28.39426" lon="-14.07287">
        <ele>266.8</ele>
        <time>2021-07-05 11:12:24</time>
      </trkpt>
      <trkpt lat="28.39429" lon="-14.07291">
        <ele>266.8</ele>
        <time>2021-07-05 11:12:25</time>
      </trkpt>
      <trkpt lat="28.39432" lon="-14.07296">
        <ele>266.6</ele>
        <time>2021-07-05 11:12:26</time>
      </trkpt>
      <trkpt lat="28.39435" lon="-14.073">
        <ele>266.6</ele>
        <time>2021-07-05 11:12:27</time>
      </trkpt>
      <trkpt lat="28.39437" lon="-14.07305">
        <ele>266.6</ele>
        <time>2021-07-05 11:12:28</time>
      </trkpt>
      <trkpt lat="28.3944" lon="-14.07309">
        <ele>266.6</ele>
        <time>2021-07-05 11:12:29</time>
      </trkpt>
      <trkpt lat="28.39443" lon="-14.07313">
        <ele>266.4</ele>
        <time>2021-07-05 11:12:30</time>
      </trkpt>
      <trkpt lat="28.39447" lon="-14.07318">
        <ele>266.4</ele>
        <time>2021-07-05 11:12:31</time>
      </trkpt>
      <trkpt lat="28.3945" lon="-14.07322">
        <ele>266.4</ele>
        <time>2021-07-05 11:12:32</time>
      </trkpt>
      <trkpt lat="28.39453" lon="-14.07326">
        <ele>266.2</ele>
        <time>2021-07-05 11:12:33</time>
      </trkpt>
      <trkpt lat="28.39456" lon="-14.0733">
        <ele>266.2</ele>
        <time>2021-07-05 11:12:34</time>
      </trkpt>
      <trkpt lat="28.39459" lon="-14.07335">
        <ele>265.8</ele>
        <time>2021-07-05 11:12:35</time>
      </trkpt>
      <trkpt lat="28.39461" lon="-14.0734">
        <ele>265.8</ele>
        <time>2021-07-05 11:12:36</time>
      </trkpt>
      <trkpt lat="28.39464" lon="-14.07345">
        <ele>265.4</ele>
        <time>2021-07-05 11:12:37</time>
      </trkpt>
      <trkpt lat="28.39466" lon="-14.0735">
        <ele>265.4</ele>
        <time>2021-07-05 11:12:38</time>
      </trkpt>
      <trkpt lat="28.39469" lon="-14.07355">
        <ele>265.2</ele>
        <time>2021-07-05 11:12:39</time>
      </trkpt>
      <trkpt lat="28.39471" lon="-14.0736">
        <ele>265.2</ele>
        <time>2021-07-05 11:12:40</time>
      </trkpt>
      <trkpt lat="28.39473" lon="-14.07365">
        <ele>265.2</ele>
        <time>2021-07-05 11:12:41</time>
      </trkpt>
      <trkpt lat="28.39474" lon="-14.0737">
        <ele>265.2</ele>
        <time>2021-07-05 11:12:42</time>
      </trkpt>
      <trkpt lat="28.39475" lon="-14.07375">
        <ele>265</ele>
        <time>2021-07-05 11:12:43</time>
      </trkpt>
      <trkpt lat="28.39475" lon="-14.0738">
        <ele>265</ele>
        <time>2021-07-05 11:12:44</time>
      </trkpt>
      <trkpt lat="28.39474" lon="-14.07386">
        <ele>264.6</ele>
        <time>2021-07-05 11:12:45</time>
      </trkpt>
      <trkpt lat="28.39474" lon="-14.07391">
        <ele>264.6</ele>
        <time>2021-07-05 11:12:46</time>
      </trkpt>
      <trkpt lat="28.39473" lon="-14.07396">
        <ele>264.4</ele>
        <time>2021-07-05 11:12:47</time>
      </trkpt>
      <trkpt lat="28.39471" lon="-14.07401">
        <ele>264.4</ele>
        <time>2021-07-05 11:12:48</time>
      </trkpt>
      <trkpt lat="28.39469" lon="-14.07406">
        <ele>264.2</ele>
        <time>2021-07-05 11:12:49</time>
      </trkpt>
      <trkpt lat="28.39468" lon="-14.07411">
        <ele>264</ele>
        <time>2021-07-05 11:12:50</time>
      </trkpt>
      <trkpt lat="28.39466" lon="-14.07416">
        <ele>264</ele>
        <time>2021-07-05 11:12:51</time>
      </trkpt>
      <trkpt lat="28.39465" lon="-14.07421">
        <ele>263.6</ele>
        <time>2021-07-05 11:12:52</time>
      </trkpt>
      <trkpt lat="28.39464" lon="-14.07426">
        <ele>263.6</ele>
        <time>2021-07-05 11:12:53</time>
      </trkpt>
      <trkpt lat="28.39462" lon="-14.07431">
        <ele>263.4</ele>
        <time>2021-07-05 11:12:54</time>
      </trkpt>
      <trkpt lat="28.39461" lon="-14.07437">
        <ele>263.4</ele>
        <time>2021-07-05 11:12:55</time>
      </trkpt>
      <trkpt lat="28.39461" lon="-14.07442">
        <ele>263.2</ele>
        <time>2021-07-05 11:12:56</time>
      </trkpt>
      <trkpt lat="28.39459" lon="-14.07447">
        <ele>263.2</ele>
        <time>2021-07-05 11:12:57</time>
      </trkpt>
      <trkpt lat="28.39459" lon="-14.07453">
        <ele>263.2</ele>
        <time>2021-07-05 11:12:58</time>
      </trkpt>
      <trkpt lat="28.39458" lon="-14.07458">
        <ele>262.8</ele>
        <time>2021-07-05 11:12:59</time>
      </trkpt>
      <trkpt lat="28.39458" lon="-14.07464">
        <ele>262.8</ele>
        <time>2021-07-05 11:13:00</time>
      </trkpt>
      <trkpt lat="28.39457" lon="-14.07469">
        <ele>262.6</ele>
        <time>2021-07-05 11:13:01</time>
      </trkpt>
      <trkpt lat="28.39457" lon="-14.07475">
        <ele>262.6</ele>
        <time>2021-07-05 11:13:02</time>
      </trkpt>
      <trkpt lat="28.39456" lon="-14.07481">
        <ele>262.6</ele>
        <time>2021-07-05 11:13:03</time>
      </trkpt>
      <trkpt lat="28.39456" lon="-14.07486">
        <ele>262.4</ele>
        <time>2021-07-05 11:13:04</time>
      </trkpt>
      <trkpt lat="28.39455" lon="-14.07492">
        <ele>262.4</ele>
        <time>2021-07-05 11:13:05</time>
      </trkpt>
      <trkpt lat="28.39455" lon="-14.07497">
        <ele>262.2</ele>
        <time>2021-07-05 11:13:06</time>
      </trkpt>
      <trkpt lat="28.39455" lon="-14.07502">
        <ele>262.2</ele>
        <time>2021-07-05 11:13:07</time>
      </trkpt>
      <trkpt lat="28.39455" lon="-14.07507">
        <ele>262.2</ele>
        <time>2021-07-05 11:13:08</time>
      </trkpt>
      <trkpt lat="28.39454" lon="-14.07512">
        <ele>261.8</ele>
        <time>2021-07-05 11:13:09</time>
      </trkpt>
      <trkpt lat="28.39454" lon="-14.07518">
        <ele>261.8</ele>
        <time>2021-07-05 11:13:10</time>
      </trkpt>
      <trkpt lat="28.39454" lon="-14.07523">
        <ele>261.6</ele>
        <time>2021-07-05 11:13:11</time>
      </trkpt>
      <trkpt lat="28.39454" lon="-14.07529">
        <ele>261.6</ele>
        <time>2021-07-05 11:13:12</time>
      </trkpt>
      <trkpt lat="28.39453" lon="-14.07534">
        <ele>261.4</ele>
        <time>2021-07-05 11:13:13</time>
      </trkpt>
      <trkpt lat="28.39453" lon="-14.0754">
        <ele>261.4</ele>
        <time>2021-07-05 11:13:14</time>
      </trkpt>
      <trkpt lat="28.39453" lon="-14.07546">
        <ele>261</ele>
        <time>2021-07-05 11:13:15</time>
      </trkpt>
      <trkpt lat="28.39452" lon="-14.07552">
        <ele>260.8</ele>
        <time>2021-07-05 11:13:16</time>
      </trkpt>
      <trkpt lat="28.39451" lon="-14.07558">
        <ele>260.8</ele>
        <time>2021-07-05 11:13:17</time>
      </trkpt>
      <trkpt lat="28.39451" lon="-14.07564">
        <ele>260.8</ele>
        <time>2021-07-05 11:13:18</time>
      </trkpt>
      <trkpt lat="28.39451" lon="-14.07569">
        <ele>260.4</ele>
        <time>2021-07-05 11:13:19</time>
      </trkpt>
      <trkpt lat="28.39451" lon="-14.07575">
        <ele>260.4</ele>
        <time>2021-07-05 11:13:20</time>
      </trkpt>
      <trkpt lat="28.3945" lon="-14.0758">
        <ele>260</ele>
        <time>2021-07-05 11:13:21</time>
      </trkpt>
      <trkpt lat="28.3945" lon="-14.07586">
        <ele>260</ele>
        <time>2021-07-05 11:13:22</time>
      </trkpt>
      <trkpt lat="28.39449" lon="-14.07591">
        <ele>260</ele>
        <time>2021-07-05 11:13:23</time>
      </trkpt>
      <trkpt lat="28.39449" lon="-14.07596">
        <ele>260</ele>
        <time>2021-07-05 11:13:24</time>
      </trkpt>
      <trkpt lat="28.39449" lon="-14.07602">
        <ele>259.8</ele>
        <time>2021-07-05 11:13:25</time>
      </trkpt>
      <trkpt lat="28.39448" lon="-14.07608">
        <ele>259.8</ele>
        <time>2021-07-05 11:13:26</time>
      </trkpt>
      <trkpt lat="28.39446" lon="-14.07614">
        <ele>259.6</ele>
        <time>2021-07-05 11:13:27</time>
      </trkpt>
      <trkpt lat="28.39445" lon="-14.07619">
        <ele>259.6</ele>
        <time>2021-07-05 11:13:28</time>
      </trkpt>
      <trkpt lat="28.39444" lon="-14.07625">
        <ele>259.4</ele>
        <time>2021-07-05 11:13:29</time>
      </trkpt>
      <trkpt lat="28.39443" lon="-14.0763">
        <ele>259.4</ele>
        <time>2021-07-05 11:13:30</time>
      </trkpt>
      <trkpt lat="28.39441" lon="-14.07636">
        <ele>259.4</ele>
        <time>2021-07-05 11:13:31</time>
      </trkpt>
      <trkpt lat="28.3944" lon="-14.07642">
        <ele>259</ele>
        <time>2021-07-05 11:13:32</time>
      </trkpt>
      <trkpt lat="28.39439" lon="-14.07647">
        <ele>259</ele>
        <time>2021-07-05 11:13:33</time>
      </trkpt>
      <trkpt lat="28.39437" lon="-14.07653">
        <ele>258.8</ele>
        <time>2021-07-05 11:13:34</time>
      </trkpt>
      <trkpt lat="28.39435" lon="-14.07658">
        <ele>258.6</ele>
        <time>2021-07-05 11:13:35</time>
      </trkpt>
      <trkpt lat="28.39433" lon="-14.07663">
        <ele>258.6</ele>
        <time>2021-07-05 11:13:36</time>
      </trkpt>
      <trkpt lat="28.3943" lon="-14.07668">
        <ele>258.6</ele>
        <time>2021-07-05 11:13:37</time>
      </trkpt>
      <trkpt lat="28.39427" lon="-14.07673">
        <ele>258.2</ele>
        <time>2021-07-05 11:13:38</time>
      </trkpt>
      <trkpt lat="28.39424" lon="-14.07678">
        <ele>258.2</ele>
        <time>2021-07-05 11:13:39</time>
      </trkpt>
      <trkpt lat="28.39421" lon="-14.07682">
        <ele>258</ele>
        <time>2021-07-05 11:13:40</time>
      </trkpt>
      <trkpt lat="28.39417" lon="-14.07687">
        <ele>258</ele>
        <time>2021-07-05 11:13:41</time>
      </trkpt>
      <trkpt lat="28.39415" lon="-14.0769">
        <ele>257.6</ele>
        <time>2021-07-05 11:13:42</time>
      </trkpt>
      <trkpt lat="28.39412" lon="-14.07694">
        <ele>257.6</ele>
        <time>2021-07-05 11:13:43</time>
      </trkpt>
      <trkpt lat="28.3941" lon="-14.07697">
        <ele>257.2</ele>
        <time>2021-07-05 11:13:44</time>
      </trkpt>
      <trkpt lat="28.39408" lon="-14.07699">
        <ele>257.2</ele>
        <time>2021-07-05 11:13:45</time>
      </trkpt>
      <trkpt lat="28.39406" lon="-14.07703">
        <ele>257</ele>
        <time>2021-07-05 11:13:46</time>
      </trkpt>
      <trkpt lat="28.39406" lon="-14.07706">
        <ele>257</ele>
        <time>2021-07-05 11:13:47</time>
      </trkpt>
      <trkpt lat="28.39405" lon="-14.07708">
        <ele>257</ele>
        <time>2021-07-05 11:13:48</time>
      </trkpt>
      <trkpt lat="28.39406" lon="-14.07711">
        <ele>257</ele>
        <time>2021-07-05 11:13:49</time>
      </trkpt>
      <trkpt lat="28.39404" lon="-14.07713">
        <ele>257</ele>
        <time>2021-07-05 11:13:50</time>
      </trkpt>
      <trkpt lat="28.39403" lon="-14.07712">
        <ele>257</ele>
        <time>2021-07-05 11:13:51</time>
      </trkpt>
      <trkpt lat="28.39402" lon="-14.07712">
        <ele>257</ele>
        <time>2021-07-05 11:13:52</time>
      </trkpt>
      <trkpt lat="28.39402" lon="-14.07712">
        <ele>257</ele>
        <time>2021-07-05 11:13:53</time>
      </trkpt>
      <trkpt lat="28.39402" lon="-14.07712">
        <ele>257</ele>
        <time>2021-07-05 11:13:54</time>
      </trkpt>
      <trkpt lat="28.39402" lon="-14.07712">
        <ele>257</ele>
        <time>2021-07-05 11:14:00</time>
      </trkpt>
      <trkpt lat="28.39402" lon="-14.0771">
        <ele>257</ele>
        <time>2021-07-05 11:14:01</time>
      </trkpt>
      <trkpt lat="28.39402" lon="-14.07709">
        <ele>257</ele>
        <time>2021-07-05 11:14:02</time>
      </trkpt>
      <trkpt lat="28.39402" lon="-14.07707">
        <ele>257</ele>
        <time>2021-07-05 11:14:03</time>
      </trkpt>
      <trkpt lat="28.39403" lon="-14.07704">
        <ele>257</ele>
        <time>2021-07-05 11:14:04</time>
      </trkpt>
      <trkpt lat="28.39403" lon="-14.07702">
        <ele>257</ele>
        <time>2021-07-05 11:14:05</time>
      </trkpt>
      <trkpt lat="28.39403" lon="-14.077">
        <ele>257</ele>
        <time>2021-07-05 11:14:06</time>
      </trkpt>
      <trkpt lat="28.39403" lon="-14.07698">
        <ele>257</ele>
        <time>2021-07-05 11:14:07</time>
      </trkpt>
      <trkpt lat="28.39404" lon="-14.07696">
        <ele>256.8</ele>
        <time>2021-07-05 11:14:08</time>
      </trkpt>
      <trkpt lat="28.39404" lon="-14.07693">
        <ele>256.8</ele>
        <time>2021-07-05 11:14:09</time>
      </trkpt>
      <trkpt lat="28.39404" lon="-14.0769">
        <ele>256.8</ele>
        <time>2021-07-05 11:14:10</time>
      </trkpt>
      <trkpt lat="28.39404" lon="-14.07687">
        <ele>256.8</ele>
        <time>2021-07-05 11:14:11</time>
      </trkpt>
      <trkpt lat="28.39404" lon="-14.07684">
        <ele>256.8</ele>
        <time>2021-07-05 11:14:12</time>
      </trkpt>
      <trkpt lat="28.39404" lon="-14.0768">
        <ele>256.8</ele>
        <time>2021-07-05 11:14:13</time>
      </trkpt>
      <trkpt lat="28.39404" lon="-14.07678">
        <ele>256.8</ele>
        <time>2021-07-05 11:14:14</time>
      </trkpt>
      <trkpt lat="28.39404" lon="-14.07674">
        <ele>256.8</ele>
        <time>2021-07-05 11:14:15</time>
      </trkpt>
      <trkpt lat="28.39404" lon="-14.0767">
        <ele>256.8</ele>
        <time>2021-07-05 11:14:16</time>
      </trkpt>
      <trkpt lat="28.39404" lon="-14.07667">
        <ele>256.8</ele>
        <time>2021-07-05 11:14:17</time>
      </trkpt>
      <trkpt lat="28.39404" lon="-14.07663">
        <ele>257</ele>
        <time>2021-07-05 11:14:18</time>
      </trkpt>
      <trkpt lat="28.39404" lon="-14.0766">
        <ele>257</ele>
        <time>2021-07-05 11:14:19</time>
      </trkpt>
      <trkpt lat="28.39404" lon="-14.07657">
        <ele>257.2</ele>
        <time>2021-07-05 11:14:20</time>
      </trkpt>
      <trkpt lat="28.39404" lon="-14.07654">
        <ele>257.2</ele>
        <time>2021-07-05 11:14:21</time>
      </trkpt>
      <trkpt lat="28.39403" lon="-14.0765">
        <ele>257.4</ele>
        <time>2021-07-05 11:14:22</time>
      </trkpt>
      <trkpt lat="28.39402" lon="-14.07647">
        <ele>257.4</ele>
        <time>2021-07-05 11:14:23</time>
      </trkpt>
      <trkpt lat="28.39401" lon="-14.07644">
        <ele>257.6</ele>
        <time>2021-07-05 11:14:24</time>
      </trkpt>
      <trkpt lat="28.39399" lon="-14.07642">
        <ele>257.6</ele>
        <time>2021-07-05 11:14:25</time>
      </trkpt>
      <trkpt lat="28.39398" lon="-14.0764">
        <ele>258</ele>
        <time>2021-07-05 11:14:26</time>
      </trkpt>
      <trkpt lat="28.39396" lon="-14.07639">
        <ele>258</ele>
        <time>2021-07-05 11:14:27</time>
      </trkpt>
      <trkpt lat="28.39394" lon="-14.07637">
        <ele>258.2</ele>
        <time>2021-07-05 11:14:28</time>
      </trkpt>
      <trkpt lat="28.39392" lon="-14.07636">
        <ele>258.2</ele>
        <time>2021-07-05 11:14:29</time>
      </trkpt>
      <trkpt lat="28.39389" lon="-14.07635">
        <ele>258.2</ele>
        <time>2021-07-05 11:14:30</time>
      </trkpt>
      <trkpt lat="28.39388" lon="-14.07633">
        <ele>258.6</ele>
        <time>2021-07-05 11:14:31</time>
      </trkpt>
      <trkpt lat="28.39386" lon="-14.07631">
        <ele>258.6</ele>
        <time>2021-07-05 11:14:32</time>
      </trkpt>
      <trkpt lat="28.39384" lon="-14.0763">
        <ele>259</ele>
        <time>2021-07-05 11:14:33</time>
      </trkpt>
      <trkpt lat="28.39383" lon="-14.07628">
        <ele>259</ele>
        <time>2021-07-05 11:14:34</time>
      </trkpt>
      <trkpt lat="28.39382" lon="-14.07626">
        <ele>259.2</ele>
        <time>2021-07-05 11:14:35</time>
      </trkpt>
      <trkpt lat="28.39381" lon="-14.07623">
        <ele>259.2</ele>
        <time>2021-07-05 11:14:36</time>
      </trkpt>
      <trkpt lat="28.3938" lon="-14.07621">
        <ele>259.2</ele>
        <time>2021-07-05 11:14:37</time>
      </trkpt>
      <trkpt lat="28.39379" lon="-14.07618">
        <ele>259.4</ele>
        <time>2021-07-05 11:14:38</time>
      </trkpt>
      <trkpt lat="28.39379" lon="-14.07616">
        <ele>259.8</ele>
        <time>2021-07-05 11:14:39</time>
      </trkpt>
      <trkpt lat="28.39378" lon="-14.07613">
        <ele>260</ele>
        <time>2021-07-05 11:14:40</time>
      </trkpt>
      <trkpt lat="28.39378" lon="-14.07611">
        <ele>260.2</ele>
        <time>2021-07-05 11:14:41</time>
      </trkpt>
      <trkpt lat="28.39378" lon="-14.07608">
        <ele>260.4</ele>
        <time>2021-07-05 11:14:42</time>
      </trkpt>
      <trkpt lat="28.39378" lon="-14.07606">
        <ele>260.6</ele>
        <time>2021-07-05 11:14:43</time>
      </trkpt>
      <trkpt lat="28.39378" lon="-14.07603">
        <ele>260.6</ele>
        <time>2021-07-05 11:14:44</time>
      </trkpt>
      <trkpt lat="28.39378" lon="-14.07601">
        <ele>261.2</ele>
        <time>2021-07-05 11:14:45</time>
      </trkpt>
      <trkpt lat="28.39377" lon="-14.07598">
        <ele>261.4</ele>
        <time>2021-07-05 11:14:46</time>
      </trkpt>
      <trkpt lat="28.39377" lon="-14.07596">
        <ele>261.4</ele>
        <time>2021-07-05 11:14:47</time>
      </trkpt>
      <trkpt lat="28.39376" lon="-14.07594">
        <ele>262</ele>
        <time>2021-07-05 11:14:48</time>
      </trkpt>
      <trkpt lat="28.39375" lon="-14.07592">
        <ele>262</ele>
        <time>2021-07-05 11:14:49</time>
      </trkpt>
      <trkpt lat="28.39374" lon="-14.0759">
        <ele>262.2</ele>
        <time>2021-07-05 11:14:50</time>
      </trkpt>
      <trkpt lat="28.39373" lon="-14.07589">
        <ele>262.4</ele>
        <time>2021-07-05 11:14:51</time>
      </trkpt>
      <trkpt lat="28.3937" lon="-14.07589">
        <ele>262.8</ele>
        <time>2021-07-05 11:14:52</time>
      </trkpt>
      <trkpt lat="28.39368" lon="-14.07589">
        <ele>263</ele>
        <time>2021-07-05 11:14:53</time>
      </trkpt>
      <trkpt lat="28.39366" lon="-14.07591">
        <ele>263</ele>
        <time>2021-07-05 11:14:54</time>
      </trkpt>
      <trkpt lat="28.39365" lon="-14.07593">
        <ele>263.6</ele>
        <time>2021-07-05 11:14:55</time>
      </trkpt>
      <trkpt lat="28.39364" lon="-14.07596">
        <ele>263.6</ele>
        <time>2021-07-05 11:14:56</time>
      </trkpt>
      <trkpt lat="28.39363" lon="-14.07599">
        <ele>263.6</ele>
        <time>2021-07-05 11:14:57</time>
      </trkpt>
      <trkpt lat="28.39363" lon="-14.07602">
        <ele>263.8</ele>
        <time>2021-07-05 11:14:58</time>
      </trkpt>
      <trkpt lat="28.39362" lon="-14.07605">
        <ele>263.8</ele>
        <time>2021-07-05 11:14:59</time>
      </trkpt>
      <trkpt lat="28.39361" lon="-14.07608">
        <ele>264.2</ele>
        <time>2021-07-05 11:15:00</time>
      </trkpt>
      <trkpt lat="28.39361" lon="-14.07611">
        <ele>264.2</ele>
        <time>2021-07-05 11:15:01</time>
      </trkpt>
      <trkpt lat="28.3936" lon="-14.07614">
        <ele>264.6</ele>
        <time>2021-07-05 11:15:02</time>
      </trkpt>
      <trkpt lat="28.39359" lon="-14.07617">
        <ele>264.6</ele>
        <time>2021-07-05 11:15:03</time>
      </trkpt>
      <trkpt lat="28.39359" lon="-14.0762">
        <ele>264.8</ele>
        <time>2021-07-05 11:15:04</time>
      </trkpt>
      <trkpt lat="28.39358" lon="-14.07622">
        <ele>264.8</ele>
        <time>2021-07-05 11:15:05</time>
      </trkpt>
      <trkpt lat="28.39358" lon="-14.07625">
        <ele>265</ele>
        <time>2021-07-05 11:15:06</time>
      </trkpt>
      <trkpt lat="28.39357" lon="-14.07629">
        <ele>265</ele>
        <time>2021-07-05 11:15:07</time>
      </trkpt>
      <trkpt lat="28.39356" lon="-14.07632">
        <ele>265</ele>
        <time>2021-07-05 11:15:08</time>
      </trkpt>
      <trkpt lat="28.39355" lon="-14.07636">
        <ele>265.2</ele>
        <time>2021-07-05 11:15:09</time>
      </trkpt>
      <trkpt lat="28.39354" lon="-14.07639">
        <ele>265.2</ele>
        <time>2021-07-05 11:15:10</time>
      </trkpt>
      <trkpt lat="28.39353" lon="-14.07643">
        <ele>265.4</ele>
        <time>2021-07-05 11:15:11</time>
      </trkpt>
      <trkpt lat="28.39352" lon="-14.07647">
        <ele>265.4</ele>
        <time>2021-07-05 11:15:12</time>
      </trkpt>
      <trkpt lat="28.39351" lon="-14.07651">
        <ele>265.4</ele>
        <time>2021-07-05 11:15:13</time>
      </trkpt>
      <trkpt lat="28.3935" lon="-14.07655">
        <ele>265.8</ele>
        <time>2021-07-05 11:15:14</time>
      </trkpt>
      <trkpt lat="28.39349" lon="-14.07659">
        <ele>265.8</ele>
        <time>2021-07-05 11:15:15</time>
      </trkpt>
      <trkpt lat="28.39348" lon="-14.07663">
        <ele>265.8</ele>
        <time>2021-07-05 11:15:16</time>
      </trkpt>
      <trkpt lat="28.39347" lon="-14.07667">
        <ele>265.8</ele>
        <time>2021-07-05 11:15:17</time>
      </trkpt>
      <trkpt lat="28.39346" lon="-14.07671">
        <ele>266</ele>
        <time>2021-07-05 11:15:18</time>
      </trkpt>
      <trkpt lat="28.39345" lon="-14.07675">
        <ele>266</ele>
        <time>2021-07-05 11:15:19</time>
      </trkpt>
      <trkpt lat="28.39344" lon="-14.07679">
        <ele>266</ele>
        <time>2021-07-05 11:15:20</time>
      </trkpt>
      <trkpt lat="28.39342" lon="-14.07683">
        <ele>266.2</ele>
        <time>2021-07-05 11:15:21</time>
      </trkpt>
      <trkpt lat="28.39341" lon="-14.07687">
        <ele>266.2</ele>
        <time>2021-07-05 11:15:22</time>
      </trkpt>
      <trkpt lat="28.39339" lon="-14.07692">
        <ele>266.2</ele>
        <time>2021-07-05 11:15:23</time>
      </trkpt>
      <trkpt lat="28.39337" lon="-14.07696">
        <ele>266.6</ele>
        <time>2021-07-05 11:15:24</time>
      </trkpt>
      <trkpt lat="28.39335" lon="-14.077">
        <ele>266.6</ele>
        <time>2021-07-05 11:15:25</time>
      </trkpt>
      <trkpt lat="28.39333" lon="-14.07704">
        <ele>266.6</ele>
        <time>2021-07-05 11:15:26</time>
      </trkpt>
      <trkpt lat="28.39331" lon="-14.07708">
        <ele>266.6</ele>
        <time>2021-07-05 11:15:27</time>
      </trkpt>
      <trkpt lat="28.39329" lon="-14.07712">
        <ele>266.6</ele>
        <time>2021-07-05 11:15:28</time>
      </trkpt>
      <trkpt lat="28.39326" lon="-14.07716">
        <ele>266.6</ele>
        <time>2021-07-05 11:15:29</time>
      </trkpt>
      <trkpt lat="28.39324" lon="-14.0772">
        <ele>266.8</ele>
        <time>2021-07-05 11:15:30</time>
      </trkpt>
      <trkpt lat="28.39321" lon="-14.07724">
        <ele>266.8</ele>
        <time>2021-07-05 11:15:31</time>
      </trkpt>
      <trkpt lat="28.39319" lon="-14.07728">
        <ele>266.8</ele>
        <time>2021-07-05 11:15:32</time>
      </trkpt>
      <trkpt lat="28.39316" lon="-14.07732">
        <ele>266.8</ele>
        <time>2021-07-05 11:15:33</time>
      </trkpt>
      <trkpt lat="28.39314" lon="-14.07736">
        <ele>266.8</ele>
        <time>2021-07-05 11:15:34</time>
      </trkpt>
      <trkpt lat="28.39311" lon="-14.07739">
        <ele>267</ele>
        <time>2021-07-05 11:15:35</time>
      </trkpt>
      <trkpt lat="28.39308" lon="-14.07743">
        <ele>267</ele>
        <time>2021-07-05 11:15:36</time>
      </trkpt>
      <trkpt lat="28.39306" lon="-14.07747">
        <ele>267</ele>
        <time>2021-07-05 11:15:37</time>
      </trkpt>
      <trkpt lat="28.39303" lon="-14.07751">
        <ele>267</ele>
        <time>2021-07-05 11:15:38</time>
      </trkpt>
      <trkpt lat="28.39301" lon="-14.07754">
        <ele>267</ele>
        <time>2021-07-05 11:15:39</time>
      </trkpt>
      <trkpt lat="28.39299" lon="-14.07758">
        <ele>267.4</ele>
        <time>2021-07-05 11:15:40</time>
      </trkpt>
      <trkpt lat="28.39296" lon="-14.07762">
        <ele>267.4</ele>
        <time>2021-07-05 11:15:41</time>
      </trkpt>
      <trkpt lat="28.39293" lon="-14.07766">
        <ele>267.4</ele>
        <time>2021-07-05 11:15:42</time>
      </trkpt>
      <trkpt lat="28.3929" lon="-14.0777">
        <ele>267.6</ele>
        <time>2021-07-05 11:15:43</time>
      </trkpt>
      <trkpt lat="28.39288" lon="-14.07774">
        <ele>267.6</ele>
        <time>2021-07-05 11:15:44</time>
      </trkpt>
      <trkpt lat="28.39285" lon="-14.07778">
        <ele>267.6</ele>
        <time>2021-07-05 11:15:45</time>
      </trkpt>
      <trkpt lat="28.39283" lon="-14.07782">
        <ele>267.6</ele>
        <time>2021-07-05 11:15:46</time>
      </trkpt>
      <trkpt lat="28.3928" lon="-14.07786">
        <ele>267.6</ele>
        <time>2021-07-05 11:15:47</time>
      </trkpt>
      <trkpt lat="28.39278" lon="-14.0779">
        <ele>267.6</ele>
        <time>2021-07-05 11:15:48</time>
      </trkpt>
      <trkpt lat="28.39275" lon="-14.07794">
        <ele>267.6</ele>
        <time>2021-07-05 11:15:49</time>
      </trkpt>
      <trkpt lat="28.39273" lon="-14.07797">
        <ele>267.6</ele>
        <time>2021-07-05 11:15:50</time>
      </trkpt>
      <trkpt lat="28.3927" lon="-14.07801">
        <ele>267.6</ele>
        <time>2021-07-05 11:15:51</time>
      </trkpt>
      <trkpt lat="28.39268" lon="-14.07805">
        <ele>267.6</ele>
        <time>2021-07-05 11:15:52</time>
      </trkpt>
      <trkpt lat="28.39265" lon="-14.07808">
        <ele>267.6</ele>
        <time>2021-07-05 11:15:53</time>
      </trkpt>
      <trkpt lat="28.39263" lon="-14.07812">
        <ele>267.8</ele>
        <time>2021-07-05 11:15:54</time>
      </trkpt>
      <trkpt lat="28.3926" lon="-14.07816">
        <ele>267.8</ele>
        <time>2021-07-05 11:15:55</time>
      </trkpt>
      <trkpt lat="28.39258" lon="-14.0782">
        <ele>267.8</ele>
        <time>2021-07-05 11:15:56</time>
      </trkpt>
      <trkpt lat="28.39256" lon="-14.07824">
        <ele>267.8</ele>
        <time>2021-07-05 11:15:57</time>
      </trkpt>
      <trkpt lat="28.39253" lon="-14.07828">
        <ele>268</ele>
        <time>2021-07-05 11:15:58</time>
      </trkpt>
      <trkpt lat="28.3925" lon="-14.07831">
        <ele>268</ele>
        <time>2021-07-05 11:15:59</time>
      </trkpt>
      <trkpt lat="28.39248" lon="-14.07835">
        <ele>268</ele>
        <time>2021-07-05 11:16:00</time>
      </trkpt>
      <trkpt lat="28.39245" lon="-14.07839">
        <ele>268</ele>
        <time>2021-07-05 11:16:01</time>
      </trkpt>
      <trkpt lat="28.39243" lon="-14.07844">
        <ele>268</ele>
        <time>2021-07-05 11:16:02</time>
      </trkpt>
      <trkpt lat="28.39241" lon="-14.07848">
        <ele>268</ele>
        <time>2021-07-05 11:16:03</time>
      </trkpt>
      <trkpt lat="28.39238" lon="-14.07852">
        <ele>268.2</ele>
        <time>2021-07-05 11:16:04</time>
      </trkpt>
      <trkpt lat="28.39236" lon="-14.07856">
        <ele>268.2</ele>
        <time>2021-07-05 11:16:05</time>
      </trkpt>
      <trkpt lat="28.39234" lon="-14.07859">
        <ele>268.2</ele>
        <time>2021-07-05 11:16:06</time>
      </trkpt>
      <trkpt lat="28.39232" lon="-14.07863">
        <ele>268.4</ele>
        <time>2021-07-05 11:16:07</time>
      </trkpt>
      <trkpt lat="28.39229" lon="-14.07867">
        <ele>268.4</ele>
        <time>2021-07-05 11:16:08</time>
      </trkpt>
      <trkpt lat="28.39227" lon="-14.07871">
        <ele>268.4</ele>
        <time>2021-07-05 11:16:09</time>
      </trkpt>
      <trkpt lat="28.39224" lon="-14.07875">
        <ele>268.4</ele>
        <time>2021-07-05 11:16:10</time>
      </trkpt>
      <trkpt lat="28.39222" lon="-14.07879">
        <ele>268.6</ele>
        <time>2021-07-05 11:16:11</time>
      </trkpt>
      <trkpt lat="28.3922" lon="-14.07882">
        <ele>268.6</ele>
        <time>2021-07-05 11:16:12</time>
      </trkpt>
      <trkpt lat="28.39217" lon="-14.07886">
        <ele>268.6</ele>
        <time>2021-07-05 11:16:13</time>
      </trkpt>
      <trkpt lat="28.39214" lon="-14.0789">
        <ele>269</ele>
        <time>2021-07-05 11:16:14</time>
      </trkpt>
      <trkpt lat="28.39212" lon="-14.07894">
        <ele>269</ele>
        <time>2021-07-05 11:16:15</time>
      </trkpt>
      <trkpt lat="28.39209" lon="-14.07897">
        <ele>269</ele>
        <time>2021-07-05 11:16:16</time>
      </trkpt>
      <trkpt lat="28.39206" lon="-14.07901">
        <ele>269</ele>
        <time>2021-07-05 11:16:17</time>
      </trkpt>
      <trkpt lat="28.39203" lon="-14.07904">
        <ele>269.2</ele>
        <time>2021-07-05 11:16:18</time>
      </trkpt>
      <trkpt lat="28.392" lon="-14.07907">
        <ele>269.2</ele>
        <time>2021-07-05 11:16:19</time>
      </trkpt>
      <trkpt lat="28.39196" lon="-14.0791">
        <ele>269.2</ele>
        <time>2021-07-05 11:16:20</time>
      </trkpt>
      <trkpt lat="28.39192" lon="-14.07913">
        <ele>269.2</ele>
        <time>2021-07-05 11:16:21</time>
      </trkpt>
      <trkpt lat="28.39188" lon="-14.07914">
        <ele>269.2</ele>
        <time>2021-07-05 11:16:22</time>
      </trkpt>
      <trkpt lat="28.39184" lon="-14.07916">
        <ele>269.2</ele>
        <time>2021-07-05 11:16:23</time>
      </trkpt>
      <trkpt lat="28.3918" lon="-14.07918">
        <ele>269.2</ele>
        <time>2021-07-05 11:16:24</time>
      </trkpt>
      <trkpt lat="28.39175" lon="-14.0792">
        <ele>269.2</ele>
        <time>2021-07-05 11:16:25</time>
      </trkpt>
      <trkpt lat="28.39171" lon="-14.07922">
        <ele>269.2</ele>
        <time>2021-07-05 11:16:26</time>
      </trkpt>
      <trkpt lat="28.39166" lon="-14.07924">
        <ele>269.2</ele>
        <time>2021-07-05 11:16:27</time>
      </trkpt>
      <trkpt lat="28.39162" lon="-14.07925">
        <ele>269.2</ele>
        <time>2021-07-05 11:16:28</time>
      </trkpt>
      <trkpt lat="28.39157" lon="-14.07927">
        <ele>269.2</ele>
        <time>2021-07-05 11:16:29</time>
      </trkpt>
      <trkpt lat="28.39153" lon="-14.07928">
        <ele>269.2</ele>
        <time>2021-07-05 11:16:30</time>
      </trkpt>
      <trkpt lat="28.39148" lon="-14.07929">
        <ele>269.2</ele>
        <time>2021-07-05 11:16:31</time>
      </trkpt>
      <trkpt lat="28.39144" lon="-14.0793">
        <ele>269.2</ele>
        <time>2021-07-05 11:16:32</time>
      </trkpt>
      <trkpt lat="28.39139" lon="-14.07931">
        <ele>269.2</ele>
        <time>2021-07-05 11:16:33</time>
      </trkpt>
      <trkpt lat="28.39135" lon="-14.07932">
        <ele>269.2</ele>
        <time>2021-07-05 11:16:34</time>
      </trkpt>
      <trkpt lat="28.3913" lon="-14.07932">
        <ele>269.2</ele>
        <time>2021-07-05 11:16:35</time>
      </trkpt>
      <trkpt lat="28.39125" lon="-14.07933">
        <ele>269.2</ele>
        <time>2021-07-05 11:16:36</time>
      </trkpt>
      <trkpt lat="28.3912" lon="-14.07934">
        <ele>269.2</ele>
        <time>2021-07-05 11:16:37</time>
      </trkpt>
      <trkpt lat="28.39116" lon="-14.07934">
        <ele>269.2</ele>
        <time>2021-07-05 11:16:38</time>
      </trkpt>
      <trkpt lat="28.39111" lon="-14.07934">
        <ele>269.2</ele>
        <time>2021-07-05 11:16:39</time>
      </trkpt>
      <trkpt lat="28.39106" lon="-14.07934">
        <ele>269.2</ele>
        <time>2021-07-05 11:16:40</time>
      </trkpt>
      <trkpt lat="28.39101" lon="-14.07934">
        <ele>269.2</ele>
        <time>2021-07-05 11:16:41</time>
      </trkpt>
      <trkpt lat="28.39097" lon="-14.07934">
        <ele>269.2</ele>
        <time>2021-07-05 11:16:42</time>
      </trkpt>
      <trkpt lat="28.39091" lon="-14.07934">
        <ele>269.2</ele>
        <time>2021-07-05 11:16:43</time>
      </trkpt>
      <trkpt lat="28.39086" lon="-14.07934">
        <ele>269.2</ele>
        <time>2021-07-05 11:16:44</time>
      </trkpt>
      <trkpt lat="28.39081" lon="-14.07934">
        <ele>269.2</ele>
        <time>2021-07-05 11:16:45</time>
      </trkpt>
      <trkpt lat="28.39076" lon="-14.07934">
        <ele>269.2</ele>
        <time>2021-07-05 11:16:46</time>
      </trkpt>
      <trkpt lat="28.3907" lon="-14.07935">
        <ele>269.2</ele>
        <time>2021-07-05 11:16:47</time>
      </trkpt>
      <trkpt lat="28.39065" lon="-14.07937">
        <ele>269.2</ele>
        <time>2021-07-05 11:16:48</time>
      </trkpt>
      <trkpt lat="28.3906" lon="-14.07939">
        <ele>269.2</ele>
        <time>2021-07-05 11:16:49</time>
      </trkpt>
      <trkpt lat="28.39056" lon="-14.07942">
        <ele>269.2</ele>
        <time>2021-07-05 11:16:50</time>
      </trkpt>
      <trkpt lat="28.39052" lon="-14.07947">
        <ele>269.2</ele>
        <time>2021-07-05 11:16:51</time>
      </trkpt>
      <trkpt lat="28.3905" lon="-14.07952">
        <ele>269.2</ele>
        <time>2021-07-05 11:16:52</time>
      </trkpt>
      <trkpt lat="28.39047" lon="-14.07957">
        <ele>269.2</ele>
        <time>2021-07-05 11:16:53</time>
      </trkpt>
      <trkpt lat="28.39046" lon="-14.07962">
        <ele>269.2</ele>
        <time>2021-07-05 11:16:54</time>
      </trkpt>
      <trkpt lat="28.39045" lon="-14.07968">
        <ele>269.2</ele>
        <time>2021-07-05 11:16:55</time>
      </trkpt>
      <trkpt lat="28.39046" lon="-14.07973">
        <ele>269.6</ele>
        <time>2021-07-05 11:16:56</time>
      </trkpt>
      <trkpt lat="28.39047" lon="-14.07978">
        <ele>269.6</ele>
        <time>2021-07-05 11:16:57</time>
      </trkpt>
      <trkpt lat="28.39049" lon="-14.07983">
        <ele>269.8</ele>
        <time>2021-07-05 11:16:58</time>
      </trkpt>
      <trkpt lat="28.39051" lon="-14.07988">
        <ele>270.2</ele>
        <time>2021-07-05 11:16:59</time>
      </trkpt>
      <trkpt lat="28.39054" lon="-14.07992">
        <ele>270.2</ele>
        <time>2021-07-05 11:17:00</time>
      </trkpt>
      <trkpt lat="28.39058" lon="-14.07996">
        <ele>270.6</ele>
        <time>2021-07-05 11:17:01</time>
      </trkpt>
      <trkpt lat="28.39062" lon="-14.07998">
        <ele>270.8</ele>
        <time>2021-07-05 11:17:02</time>
      </trkpt>
      <trkpt lat="28.39066" lon="-14.08001">
        <ele>270.8</ele>
        <time>2021-07-05 11:17:03</time>
      </trkpt>
      <trkpt lat="28.3907" lon="-14.08003">
        <ele>270.8</ele>
        <time>2021-07-05 11:17:04</time>
      </trkpt>
      <trkpt lat="28.39075" lon="-14.08004">
        <ele>271.2</ele>
        <time>2021-07-05 11:17:05</time>
      </trkpt>
      <trkpt lat="28.39079" lon="-14.08006">
        <ele>271.4</ele>
        <time>2021-07-05 11:17:06</time>
      </trkpt>
      <trkpt lat="28.39083" lon="-14.08007">
        <ele>271.4</ele>
        <time>2021-07-05 11:17:07</time>
      </trkpt>
      <trkpt lat="28.39087" lon="-14.08008">
        <ele>271.6</ele>
        <time>2021-07-05 11:17:08</time>
      </trkpt>
      <trkpt lat="28.39092" lon="-14.08008">
        <ele>271.6</ele>
        <time>2021-07-05 11:17:09</time>
      </trkpt>
      <trkpt lat="28.39095" lon="-14.08009">
        <ele>272</ele>
        <time>2021-07-05 11:17:10</time>
      </trkpt>
      <trkpt lat="28.391" lon="-14.0801">
        <ele>272.2</ele>
        <time>2021-07-05 11:17:11</time>
      </trkpt>
      <trkpt lat="28.39104" lon="-14.08011">
        <ele>272.2</ele>
        <time>2021-07-05 11:17:12</time>
      </trkpt>
      <trkpt lat="28.39108" lon="-14.08012">
        <ele>272.2</ele>
        <time>2021-07-05 11:17:13</time>
      </trkpt>
      <trkpt lat="28.39112" lon="-14.08013">
        <ele>272.2</ele>
        <time>2021-07-05 11:17:14</time>
      </trkpt>
      <trkpt lat="28.39116" lon="-14.08014">
        <ele>272.4</ele>
        <time>2021-07-05 11:17:15</time>
      </trkpt>
      <trkpt lat="28.39121" lon="-14.08015">
        <ele>272.4</ele>
        <time>2021-07-05 11:17:16</time>
      </trkpt>
      <trkpt lat="28.39125" lon="-14.08016">
        <ele>272.8</ele>
        <time>2021-07-05 11:17:17</time>
      </trkpt>
      <trkpt lat="28.39129" lon="-14.08017">
        <ele>272.8</ele>
        <time>2021-07-05 11:17:18</time>
      </trkpt>
      <trkpt lat="28.39133" lon="-14.08019">
        <ele>273</ele>
        <time>2021-07-05 11:17:19</time>
      </trkpt>
      <trkpt lat="28.39137" lon="-14.08022">
        <ele>273</ele>
        <time>2021-07-05 11:17:20</time>
      </trkpt>
      <trkpt lat="28.39141" lon="-14.08024">
        <ele>273</ele>
        <time>2021-07-05 11:17:21</time>
      </trkpt>
      <trkpt lat="28.39145" lon="-14.08027">
        <ele>273.2</ele>
        <time>2021-07-05 11:17:22</time>
      </trkpt>
      <trkpt lat="28.39148" lon="-14.08031">
        <ele>273.2</ele>
        <time>2021-07-05 11:17:23</time>
      </trkpt>
      <trkpt lat="28.39151" lon="-14.08035">
        <ele>273.2</ele>
        <time>2021-07-05 11:17:24</time>
      </trkpt>
      <trkpt lat="28.39154" lon="-14.08039">
        <ele>273.2</ele>
        <time>2021-07-05 11:17:25</time>
      </trkpt>
      <trkpt lat="28.39156" lon="-14.08044">
        <ele>273.6</ele>
        <time>2021-07-05 11:17:26</time>
      </trkpt>
      <trkpt lat="28.39158" lon="-14.08049">
        <ele>273.6</ele>
        <time>2021-07-05 11:17:27</time>
      </trkpt>
      <trkpt lat="28.39159" lon="-14.08054">
        <ele>273.8</ele>
        <time>2021-07-05 11:17:28</time>
      </trkpt>
      <trkpt lat="28.3916" lon="-14.0806">
        <ele>274.2</ele>
        <time>2021-07-05 11:17:29</time>
      </trkpt>
      <trkpt lat="28.39161" lon="-14.08065">
        <ele>274.2</ele>
        <time>2021-07-05 11:17:30</time>
      </trkpt>
      <trkpt lat="28.39162" lon="-14.08071">
        <ele>274.2</ele>
        <time>2021-07-05 11:17:31</time>
      </trkpt>
      <trkpt lat="28.39163" lon="-14.08077">
        <ele>274.2</ele>
        <time>2021-07-05 11:17:32</time>
      </trkpt>
      <trkpt lat="28.39164" lon="-14.08082">
        <ele>274.6</ele>
        <time>2021-07-05 11:17:33</time>
      </trkpt>
      <trkpt lat="28.39165" lon="-14.08088">
        <ele>274.6</ele>
        <time>2021-07-05 11:17:34</time>
      </trkpt>
      <trkpt lat="28.39165" lon="-14.08093">
        <ele>274.8</ele>
        <time>2021-07-05 11:17:35</time>
      </trkpt>
      <trkpt lat="28.39166" lon="-14.08099">
        <ele>275</ele>
        <time>2021-07-05 11:17:36</time>
      </trkpt>
      <trkpt lat="28.39167" lon="-14.08104">
        <ele>275</ele>
        <time>2021-07-05 11:17:37</time>
      </trkpt>
      <trkpt lat="28.39167" lon="-14.0811">
        <ele>275</ele>
        <time>2021-07-05 11:17:38</time>
      </trkpt>
      <trkpt lat="28.39168" lon="-14.08115">
        <ele>275.4</ele>
        <time>2021-07-05 11:17:39</time>
      </trkpt>
      <trkpt lat="28.39169" lon="-14.0812">
        <ele>275.4</ele>
        <time>2021-07-05 11:17:40</time>
      </trkpt>
      <trkpt lat="28.39169" lon="-14.08126">
        <ele>275.4</ele>
        <time>2021-07-05 11:17:41</time>
      </trkpt>
      <trkpt lat="28.3917" lon="-14.08132">
        <ele>275.6</ele>
        <time>2021-07-05 11:17:42</time>
      </trkpt>
      <trkpt lat="28.39171" lon="-14.08137">
        <ele>275.6</ele>
        <time>2021-07-05 11:17:43</time>
      </trkpt>
      <trkpt lat="28.39172" lon="-14.08142">
        <ele>275.6</ele>
        <time>2021-07-05 11:17:44</time>
      </trkpt>
      <trkpt lat="28.39173" lon="-14.08148">
        <ele>275.8</ele>
        <time>2021-07-05 11:17:45</time>
      </trkpt>
      <trkpt lat="28.39173" lon="-14.08153">
        <ele>275.8</ele>
        <time>2021-07-05 11:17:46</time>
      </trkpt>
      <trkpt lat="28.39174" lon="-14.08159">
        <ele>276</ele>
        <time>2021-07-05 11:17:47</time>
      </trkpt>
      <trkpt lat="28.39174" lon="-14.08165">
        <ele>276</ele>
        <time>2021-07-05 11:17:48</time>
      </trkpt>
      <trkpt lat="28.39175" lon="-14.08171">
        <ele>276</ele>
        <time>2021-07-05 11:17:49</time>
      </trkpt>
      <trkpt lat="28.39176" lon="-14.08176">
        <ele>276</ele>
        <time>2021-07-05 11:17:50</time>
      </trkpt>
      <trkpt lat="28.39176" lon="-14.08182">
        <ele>276.2</ele>
        <time>2021-07-05 11:17:51</time>
      </trkpt>
      <trkpt lat="28.39177" lon="-14.08187">
        <ele>276.2</ele>
        <time>2021-07-05 11:17:52</time>
      </trkpt>
      <trkpt lat="28.39177" lon="-14.08193">
        <ele>276.2</ele>
        <time>2021-07-05 11:17:53</time>
      </trkpt>
      <trkpt lat="28.39177" lon="-14.08198">
        <ele>276.4</ele>
        <time>2021-07-05 11:17:54</time>
      </trkpt>
      <trkpt lat="28.39177" lon="-14.08204">
        <ele>276.6</ele>
        <time>2021-07-05 11:17:55</time>
      </trkpt>
      <trkpt lat="28.39177" lon="-14.08209">
        <ele>276.6</ele>
        <time>2021-07-05 11:17:56</time>
      </trkpt>
      <trkpt lat="28.39176" lon="-14.08215">
        <ele>276.6</ele>
        <time>2021-07-05 11:17:57</time>
      </trkpt>
      <trkpt lat="28.39175" lon="-14.0822">
        <ele>277</ele>
        <time>2021-07-05 11:17:58</time>
      </trkpt>
      <trkpt lat="28.39174" lon="-14.08226">
        <ele>277</ele>
        <time>2021-07-05 11:17:59</time>
      </trkpt>
      <trkpt lat="28.39172" lon="-14.08232">
        <ele>277</ele>
        <time>2021-07-05 11:18:00</time>
      </trkpt>
      <trkpt lat="28.39171" lon="-14.08237">
        <ele>277.2</ele>
        <time>2021-07-05 11:18:01</time>
      </trkpt>
      <trkpt lat="28.39169" lon="-14.08243">
        <ele>277.2</ele>
        <time>2021-07-05 11:18:02</time>
      </trkpt>
      <trkpt lat="28.39168" lon="-14.08249">
        <ele>277.2</ele>
        <time>2021-07-05 11:18:03</time>
      </trkpt>
      <trkpt lat="28.39166" lon="-14.08254">
        <ele>277.6</ele>
        <time>2021-07-05 11:18:04</time>
      </trkpt>
      <trkpt lat="28.39165" lon="-14.0826">
        <ele>277.6</ele>
        <time>2021-07-05 11:18:05</time>
      </trkpt>
      <trkpt lat="28.39164" lon="-14.08266">
        <ele>277.6</ele>
        <time>2021-07-05 11:18:06</time>
      </trkpt>
      <trkpt lat="28.39163" lon="-14.08272">
        <ele>277.6</ele>
        <time>2021-07-05 11:18:07</time>
      </trkpt>
      <trkpt lat="28.39162" lon="-14.08278">
        <ele>277.8</ele>
        <time>2021-07-05 11:18:08</time>
      </trkpt>
      <trkpt lat="28.39161" lon="-14.08283">
        <ele>277.8</ele>
        <time>2021-07-05 11:18:09</time>
      </trkpt>
      <trkpt lat="28.39161" lon="-14.08289">
        <ele>278</ele>
        <time>2021-07-05 11:18:10</time>
      </trkpt>
      <trkpt lat="28.39161" lon="-14.08295">
        <ele>278</ele>
        <time>2021-07-05 11:18:11</time>
      </trkpt>
      <trkpt lat="28.39161" lon="-14.083">
        <ele>278.4</ele>
        <time>2021-07-05 11:18:12</time>
      </trkpt>
      <trkpt lat="28.3916" lon="-14.08306">
        <ele>278.6</ele>
        <time>2021-07-05 11:18:13</time>
      </trkpt>
      <trkpt lat="28.3916" lon="-14.08312">
        <ele>278.6</ele>
        <time>2021-07-05 11:18:14</time>
      </trkpt>
      <trkpt lat="28.3916" lon="-14.08317">
        <ele>278.6</ele>
        <time>2021-07-05 11:18:15</time>
      </trkpt>
      <trkpt lat="28.39161" lon="-14.08323">
        <ele>279</ele>
        <time>2021-07-05 11:18:16</time>
      </trkpt>
      <trkpt lat="28.39161" lon="-14.08329">
        <ele>279</ele>
        <time>2021-07-05 11:18:17</time>
      </trkpt>
      <trkpt lat="28.3916" lon="-14.08334">
        <ele>279.2</ele>
        <time>2021-07-05 11:18:18</time>
      </trkpt>
      <trkpt lat="28.3916" lon="-14.08339">
        <ele>279.2</ele>
        <time>2021-07-05 11:18:19</time>
      </trkpt>
      <trkpt lat="28.39159" lon="-14.08345">
        <ele>279.2</ele>
        <time>2021-07-05 11:18:20</time>
      </trkpt>
      <trkpt lat="28.39158" lon="-14.0835">
        <ele>279.6</ele>
        <time>2021-07-05 11:18:21</time>
      </trkpt>
      <trkpt lat="28.39156" lon="-14.08355">
        <ele>279.6</ele>
        <time>2021-07-05 11:18:22</time>
      </trkpt>
      <trkpt lat="28.39155" lon="-14.0836">
        <ele>279.8</ele>
        <time>2021-07-05 11:18:23</time>
      </trkpt>
      <trkpt lat="28.39153" lon="-14.08365">
        <ele>279.8</ele>
        <time>2021-07-05 11:18:24</time>
      </trkpt>
      <trkpt lat="28.39151" lon="-14.0837">
        <ele>280</ele>
        <time>2021-07-05 11:18:25</time>
      </trkpt>
      <trkpt lat="28.39149" lon="-14.08375">
        <ele>280</ele>
        <time>2021-07-05 11:18:26</time>
      </trkpt>
      <trkpt lat="28.39146" lon="-14.0838">
        <ele>280</ele>
        <time>2021-07-05 11:18:27</time>
      </trkpt>
      <trkpt lat="28.39143" lon="-14.08384">
        <ele>280</ele>
        <time>2021-07-05 11:18:28</time>
      </trkpt>
      <trkpt lat="28.3914" lon="-14.08388">
        <ele>280</ele>
        <time>2021-07-05 11:18:29</time>
      </trkpt>
      <trkpt lat="28.39136" lon="-14.08392">
        <ele>280</ele>
        <time>2021-07-05 11:18:30</time>
      </trkpt>
      <trkpt lat="28.39132" lon="-14.08396">
        <ele>279.8</ele>
        <time>2021-07-05 11:18:31</time>
      </trkpt>
      <trkpt lat="28.39128" lon="-14.08399">
        <ele>279.8</ele>
        <time>2021-07-05 11:18:32</time>
      </trkpt>
      <trkpt lat="28.39123" lon="-14.08402">
        <ele>279.8</ele>
        <time>2021-07-05 11:18:33</time>
      </trkpt>
      <trkpt lat="28.39119" lon="-14.08405">
        <ele>279.6</ele>
        <time>2021-07-05 11:18:34</time>
      </trkpt>
      <trkpt lat="28.39115" lon="-14.08408">
        <ele>279.6</ele>
        <time>2021-07-05 11:18:35</time>
      </trkpt>
      <trkpt lat="28.3911" lon="-14.08411">
        <ele>279.6</ele>
        <time>2021-07-05 11:18:36</time>
      </trkpt>
      <trkpt lat="28.39106" lon="-14.08414">
        <ele>279.6</ele>
        <time>2021-07-05 11:18:37</time>
      </trkpt>
      <trkpt lat="28.39101" lon="-14.08416">
        <ele>279.6</ele>
        <time>2021-07-05 11:18:38</time>
      </trkpt>
      <trkpt lat="28.39097" lon="-14.08419">
        <ele>279.6</ele>
        <time>2021-07-05 11:18:39</time>
      </trkpt>
      <trkpt lat="28.39093" lon="-14.08421">
        <ele>279.6</ele>
        <time>2021-07-05 11:18:40</time>
      </trkpt>
      <trkpt lat="28.39088" lon="-14.08423">
        <ele>279.8</ele>
        <time>2021-07-05 11:18:41</time>
      </trkpt>
      <trkpt lat="28.39084" lon="-14.08424">
        <ele>279.8</ele>
        <time>2021-07-05 11:18:42</time>
      </trkpt>
      <trkpt lat="28.39079" lon="-14.08425">
        <ele>279.8</ele>
        <time>2021-07-05 11:18:43</time>
      </trkpt>
      <trkpt lat="28.39074" lon="-14.08426">
        <ele>279.8</ele>
        <time>2021-07-05 11:18:44</time>
      </trkpt>
      <trkpt lat="28.3907" lon="-14.08426">
        <ele>280</ele>
        <time>2021-07-05 11:18:45</time>
      </trkpt>
      <trkpt lat="28.39065" lon="-14.08426">
        <ele>280</ele>
        <time>2021-07-05 11:18:46</time>
      </trkpt>
      <trkpt lat="28.3906" lon="-14.08426">
        <ele>280</ele>
        <time>2021-07-05 11:18:47</time>
      </trkpt>
      <trkpt lat="28.39055" lon="-14.08425">
        <ele>280</ele>
        <time>2021-07-05 11:18:48</time>
      </trkpt>
      <trkpt lat="28.39051" lon="-14.08425">
        <ele>280</ele>
        <time>2021-07-05 11:18:49</time>
      </trkpt>
      <trkpt lat="28.39046" lon="-14.08423">
        <ele>280.2</ele>
        <time>2021-07-05 11:18:50</time>
      </trkpt>
      <trkpt lat="28.39041" lon="-14.08423">
        <ele>280.2</ele>
        <time>2021-07-05 11:18:51</time>
      </trkpt>
      <trkpt lat="28.39037" lon="-14.08422">
        <ele>280.2</ele>
        <time>2021-07-05 11:18:52</time>
      </trkpt>
      <trkpt lat="28.39032" lon="-14.08421">
        <ele>280.2</ele>
        <time>2021-07-05 11:18:53</time>
      </trkpt>
      <trkpt lat="28.39027" lon="-14.08419">
        <ele>280.2</ele>
        <time>2021-07-05 11:18:54</time>
      </trkpt>
      <trkpt lat="28.39022" lon="-14.08418">
        <ele>280.2</ele>
        <time>2021-07-05 11:18:55</time>
      </trkpt>
      <trkpt lat="28.39018" lon="-14.08416">
        <ele>280.2</ele>
        <time>2021-07-05 11:18:56</time>
      </trkpt>
      <trkpt lat="28.39013" lon="-14.08414">
        <ele>280.4</ele>
        <time>2021-07-05 11:18:57</time>
      </trkpt>
      <trkpt lat="28.39008" lon="-14.08413">
        <ele>280.4</ele>
        <time>2021-07-05 11:18:58</time>
      </trkpt>
      <trkpt lat="28.39004" lon="-14.08411">
        <ele>280.4</ele>
        <time>2021-07-05 11:18:59</time>
      </trkpt>
      <trkpt lat="28.38999" lon="-14.08409">
        <ele>280.4</ele>
        <time>2021-07-05 11:19:00</time>
      </trkpt>
      <trkpt lat="28.38995" lon="-14.08407">
        <ele>280.6</ele>
        <time>2021-07-05 11:19:01</time>
      </trkpt>
      <trkpt lat="28.38991" lon="-14.08405">
        <ele>280.6</ele>
        <time>2021-07-05 11:19:02</time>
      </trkpt>
      <trkpt lat="28.38986" lon="-14.08402">
        <ele>280.6</ele>
        <time>2021-07-05 11:19:03</time>
      </trkpt>
      <trkpt lat="28.38982" lon="-14.084">
        <ele>280.6</ele>
        <time>2021-07-05 11:19:04</time>
      </trkpt>
      <trkpt lat="28.38977" lon="-14.08398">
        <ele>281</ele>
        <time>2021-07-05 11:19:05</time>
      </trkpt>
      <trkpt lat="28.38973" lon="-14.08395">
        <ele>281</ele>
        <time>2021-07-05 11:19:06</time>
      </trkpt>
      <trkpt lat="28.38968" lon="-14.08393">
        <ele>281.2</ele>
        <time>2021-07-05 11:19:07</time>
      </trkpt>
      <trkpt lat="28.38964" lon="-14.0839">
        <ele>281.2</ele>
        <time>2021-07-05 11:19:08</time>
      </trkpt>
      <trkpt lat="28.3896" lon="-14.08387">
        <ele>281.2</ele>
        <time>2021-07-05 11:19:09</time>
      </trkpt>
      <trkpt lat="28.38955" lon="-14.08385">
        <ele>281.4</ele>
        <time>2021-07-05 11:19:10</time>
      </trkpt>
      <trkpt lat="28.3895" lon="-14.08382">
        <ele>281.4</ele>
        <time>2021-07-05 11:19:11</time>
      </trkpt>
      <trkpt lat="28.38945" lon="-14.08381">
        <ele>281.4</ele>
        <time>2021-07-05 11:19:12</time>
      </trkpt>
      <trkpt lat="28.3894" lon="-14.08379">
        <ele>281.6</ele>
        <time>2021-07-05 11:19:13</time>
      </trkpt>
      <trkpt lat="28.38935" lon="-14.08378">
        <ele>281.6</ele>
        <time>2021-07-05 11:19:14</time>
      </trkpt>
      <trkpt lat="28.3893" lon="-14.08378">
        <ele>281.6</ele>
        <time>2021-07-05 11:19:15</time>
      </trkpt>
      <trkpt lat="28.38925" lon="-14.08378">
        <ele>282</ele>
        <time>2021-07-05 11:19:16</time>
      </trkpt>
      <trkpt lat="28.38921" lon="-14.0838">
        <ele>282.2</ele>
        <time>2021-07-05 11:19:17</time>
      </trkpt>
      <trkpt lat="28.38917" lon="-14.08383">
        <ele>282.2</ele>
        <time>2021-07-05 11:19:18</time>
      </trkpt>
      <trkpt lat="28.38914" lon="-14.08386">
        <ele>282.2</ele>
        <time>2021-07-05 11:19:19</time>
      </trkpt>
      <trkpt lat="28.38911" lon="-14.0839">
        <ele>282.6</ele>
        <time>2021-07-05 11:19:20</time>
      </trkpt>
      <trkpt lat="28.3891" lon="-14.08394">
        <ele>282.6</ele>
        <time>2021-07-05 11:19:21</time>
      </trkpt>
      <trkpt lat="28.38909" lon="-14.08398">
        <ele>283.4</ele>
        <time>2021-07-05 11:19:22</time>
      </trkpt>
      <trkpt lat="28.38909" lon="-14.08402">
        <ele>283.6</ele>
        <time>2021-07-05 11:19:23</time>
      </trkpt>
      <trkpt lat="28.38909" lon="-14.08407">
        <ele>283.8</ele>
        <time>2021-07-05 11:19:24</time>
      </trkpt>
      <trkpt lat="28.38909" lon="-14.08411">
        <ele>284.2</ele>
        <time>2021-07-05 11:19:25</time>
      </trkpt>
      <trkpt lat="28.3891" lon="-14.08415">
        <ele>284.2</ele>
        <time>2021-07-05 11:19:26</time>
      </trkpt>
      <trkpt lat="28.38911" lon="-14.08419">
        <ele>284.4</ele>
        <time>2021-07-05 11:19:27</time>
      </trkpt>
      <trkpt lat="28.38911" lon="-14.08423">
        <ele>284.6</ele>
        <time>2021-07-05 11:19:28</time>
      </trkpt>
      <trkpt lat="28.38911" lon="-14.08426">
        <ele>285</ele>
        <time>2021-07-05 11:19:29</time>
      </trkpt>
      <trkpt lat="28.38912" lon="-14.0843">
        <ele>285</ele>
        <time>2021-07-05 11:19:30</time>
      </trkpt>
      <trkpt lat="28.38912" lon="-14.08434">
        <ele>285.4</ele>
        <time>2021-07-05 11:19:31</time>
      </trkpt>
      <trkpt lat="28.38913" lon="-14.08438">
        <ele>285.4</ele>
        <time>2021-07-05 11:19:32</time>
      </trkpt>
      <trkpt lat="28.38913" lon="-14.08442">
        <ele>285.4</ele>
        <time>2021-07-05 11:19:33</time>
      </trkpt>
      <trkpt lat="28.38913" lon="-14.08446">
        <ele>285.8</ele>
        <time>2021-07-05 11:19:34</time>
      </trkpt>
      <trkpt lat="28.38913" lon="-14.0845">
        <ele>286</ele>
        <time>2021-07-05 11:19:35</time>
      </trkpt>
      <trkpt lat="28.38912" lon="-14.08454">
        <ele>286.2</ele>
        <time>2021-07-05 11:19:36</time>
      </trkpt>
      <trkpt lat="28.38911" lon="-14.08459">
        <ele>286.6</ele>
        <time>2021-07-05 11:19:37</time>
      </trkpt>
      <trkpt lat="28.3891" lon="-14.08463">
        <ele>286.6</ele>
        <time>2021-07-05 11:19:38</time>
      </trkpt>
      <trkpt lat="28.38908" lon="-14.08467">
        <ele>287</ele>
        <time>2021-07-05 11:19:39</time>
      </trkpt>
      <trkpt lat="28.38907" lon="-14.08471">
        <ele>287</ele>
        <time>2021-07-05 11:19:40</time>
      </trkpt>
      <trkpt lat="28.38905" lon="-14.08474">
        <ele>287</ele>
        <time>2021-07-05 11:19:41</time>
      </trkpt>
      <trkpt lat="28.38903" lon="-14.08478">
        <ele>287.2</ele>
        <time>2021-07-05 11:19:42</time>
      </trkpt>
      <trkpt lat="28.38901" lon="-14.08482">
        <ele>287.2</ele>
        <time>2021-07-05 11:19:43</time>
      </trkpt>
      <trkpt lat="28.38898" lon="-14.08485">
        <ele>287.2</ele>
        <time>2021-07-05 11:19:44</time>
      </trkpt>
      <trkpt lat="28.38896" lon="-14.08489">
        <ele>287.4</ele>
        <time>2021-07-05 11:19:45</time>
      </trkpt>
      <trkpt lat="28.38893" lon="-14.08492">
        <ele>287.4</ele>
        <time>2021-07-05 11:19:46</time>
      </trkpt>
      <trkpt lat="28.3889" lon="-14.08495">
        <ele>287.4</ele>
        <time>2021-07-05 11:19:47</time>
      </trkpt>
      <trkpt lat="28.38888" lon="-14.08498">
        <ele>287.4</ele>
        <time>2021-07-05 11:19:48</time>
      </trkpt>
      <trkpt lat="28.38885" lon="-14.08501">
        <ele>287.4</ele>
        <time>2021-07-05 11:19:49</time>
      </trkpt>
      <trkpt lat="28.38883" lon="-14.08505">
        <ele>287.8</ele>
        <time>2021-07-05 11:19:50</time>
      </trkpt>
      <trkpt lat="28.38881" lon="-14.08508">
        <ele>287.8</ele>
        <time>2021-07-05 11:19:51</time>
      </trkpt>
      <trkpt lat="28.38878" lon="-14.08511">
        <ele>287.8</ele>
        <time>2021-07-05 11:19:52</time>
      </trkpt>
      <trkpt lat="28.38875" lon="-14.08513">
        <ele>288</ele>
        <time>2021-07-05 11:19:53</time>
      </trkpt>
      <trkpt lat="28.38873" lon="-14.08516">
        <ele>288.2</ele>
        <time>2021-07-05 11:19:54</time>
      </trkpt>
      <trkpt lat="28.3887" lon="-14.08518">
        <ele>288.2</ele>
        <time>2021-07-05 11:19:55</time>
      </trkpt>
      <trkpt lat="28.38867" lon="-14.0852">
        <ele>288.2</ele>
        <time>2021-07-05 11:19:56</time>
      </trkpt>
      <trkpt lat="28.38864" lon="-14.08522">
        <ele>288.6</ele>
        <time>2021-07-05 11:19:57</time>
      </trkpt>
      <trkpt lat="28.3886" lon="-14.08524">
        <ele>288.6</ele>
        <time>2021-07-05 11:19:58</time>
      </trkpt>
      <trkpt lat="28.38857" lon="-14.08526">
        <ele>288.6</ele>
        <time>2021-07-05 11:19:59</time>
      </trkpt>
      <trkpt lat="28.38853" lon="-14.08528">
        <ele>288.8</ele>
        <time>2021-07-05 11:20:00</time>
      </trkpt>
      <trkpt lat="28.3885" lon="-14.08529">
        <ele>289</ele>
        <time>2021-07-05 11:20:01</time>
      </trkpt>
      <trkpt lat="28.38846" lon="-14.08532">
        <ele>289</ele>
        <time>2021-07-05 11:20:02</time>
      </trkpt>
      <trkpt lat="28.38844" lon="-14.08535">
        <ele>289.2</ele>
        <time>2021-07-05 11:20:03</time>
      </trkpt>
      <trkpt lat="28.38841" lon="-14.08538">
        <ele>289.2</ele>
        <time>2021-07-05 11:20:04</time>
      </trkpt>
      <trkpt lat="28.38841" lon="-14.08543">
        <ele>289.8</ele>
        <time>2021-07-05 11:20:05</time>
      </trkpt>
      <trkpt lat="28.38841" lon="-14.08547">
        <ele>290</ele>
        <time>2021-07-05 11:20:06</time>
      </trkpt>
      <trkpt lat="28.38842" lon="-14.08551">
        <ele>290.2</ele>
        <time>2021-07-05 11:20:07</time>
      </trkpt>
      <trkpt lat="28.38844" lon="-14.08555">
        <ele>290.4</ele>
        <time>2021-07-05 11:20:08</time>
      </trkpt>
      <trkpt lat="28.38845" lon="-14.08558">
        <ele>290.6</ele>
        <time>2021-07-05 11:20:09</time>
      </trkpt>
      <trkpt lat="28.38847" lon="-14.08562">
        <ele>290.6</ele>
        <time>2021-07-05 11:20:10</time>
      </trkpt>
      <trkpt lat="28.38849" lon="-14.08565">
        <ele>291.2</ele>
        <time>2021-07-05 11:20:11</time>
      </trkpt>
      <trkpt lat="28.38851" lon="-14.08568">
        <ele>291.2</ele>
        <time>2021-07-05 11:20:12</time>
      </trkpt>
      <trkpt lat="28.38852" lon="-14.08571">
        <ele>291.4</ele>
        <time>2021-07-05 11:20:13</time>
      </trkpt>
      <trkpt lat="28.38853" lon="-14.08574">
        <ele>291.6</ele>
        <time>2021-07-05 11:20:14</time>
      </trkpt>
      <trkpt lat="28.38855" lon="-14.08578">
        <ele>292</ele>
        <time>2021-07-05 11:20:15</time>
      </trkpt>
      <trkpt lat="28.38855" lon="-14.08581">
        <ele>292</ele>
        <time>2021-07-05 11:20:16</time>
      </trkpt>
      <trkpt lat="28.38856" lon="-14.08584">
        <ele>292.6</ele>
        <time>2021-07-05 11:20:17</time>
      </trkpt>
      <trkpt lat="28.38856" lon="-14.08588">
        <ele>292.6</ele>
        <time>2021-07-05 11:20:18</time>
      </trkpt>
      <trkpt lat="28.38856" lon="-14.08591">
        <ele>293.2</ele>
        <time>2021-07-05 11:20:19</time>
      </trkpt>
      <trkpt lat="28.38855" lon="-14.08595">
        <ele>293.4</ele>
        <time>2021-07-05 11:20:20</time>
      </trkpt>
      <trkpt lat="28.38854" lon="-14.08599">
        <ele>293.6</ele>
        <time>2021-07-05 11:20:21</time>
      </trkpt>
      <trkpt lat="28.38853" lon="-14.08602">
        <ele>293.8</ele>
        <time>2021-07-05 11:20:22</time>
      </trkpt>
      <trkpt lat="28.38852" lon="-14.08606">
        <ele>293.8</ele>
        <time>2021-07-05 11:20:23</time>
      </trkpt>
      <trkpt lat="28.38852" lon="-14.08606">
        <ele>294.2</ele>
        <time>2021-07-05 11:20:24</time>
      </trkpt>
      <trkpt lat="28.38852" lon="-14.08613">
        <ele>294.2</ele>
        <time>2021-07-05 11:20:25</time>
      </trkpt>
      <trkpt lat="28.38852" lon="-14.08616">
        <ele>294.2</ele>
        <time>2021-07-05 11:20:26</time>
      </trkpt>
      <trkpt lat="28.38852" lon="-14.0862">
        <ele>294.6</ele>
        <time>2021-07-05 11:20:27</time>
      </trkpt>
      <trkpt lat="28.38852" lon="-14.08624">
        <ele>294.8</ele>
        <time>2021-07-05 11:20:28</time>
      </trkpt>
      <trkpt lat="28.38852" lon="-14.08627">
        <ele>295</ele>
        <time>2021-07-05 11:20:29</time>
      </trkpt>
      <trkpt lat="28.38853" lon="-14.08631">
        <ele>295.2</ele>
        <time>2021-07-05 11:20:30</time>
      </trkpt>
      <trkpt lat="28.38854" lon="-14.08634">
        <ele>295.4</ele>
        <time>2021-07-05 11:20:31</time>
      </trkpt>
      <trkpt lat="28.38854" lon="-14.08637">
        <ele>295.6</ele>
        <time>2021-07-05 11:20:32</time>
      </trkpt>
      <trkpt lat="28.38855" lon="-14.08641">
        <ele>295.8</ele>
        <time>2021-07-05 11:20:33</time>
      </trkpt>
      <trkpt lat="28.38855" lon="-14.08644">
        <ele>296</ele>
        <time>2021-07-05 11:20:34</time>
      </trkpt>
      <trkpt lat="28.38856" lon="-14.08647">
        <ele>296</ele>
        <time>2021-07-05 11:20:35</time>
      </trkpt>
      <trkpt lat="28.38857" lon="-14.08651">
        <ele>296.4</ele>
        <time>2021-07-05 11:20:36</time>
      </trkpt>
      <trkpt lat="28.38858" lon="-14.08654">
        <ele>296.4</ele>
        <time>2021-07-05 11:20:37</time>
      </trkpt>
      <trkpt lat="28.38858" lon="-14.08658">
        <ele>296.8</ele>
        <time>2021-07-05 11:20:38</time>
      </trkpt>
      <trkpt lat="28.38857" lon="-14.08661">
        <ele>297.2</ele>
        <time>2021-07-05 11:20:39</time>
      </trkpt>
      <trkpt lat="28.38856" lon="-14.08665">
        <ele>297.2</ele>
        <time>2021-07-05 11:20:40</time>
      </trkpt>
      <trkpt lat="28.38854" lon="-14.08668">
        <ele>297.2</ele>
        <time>2021-07-05 11:20:41</time>
      </trkpt>
      <trkpt lat="28.38852" lon="-14.08671">
        <ele>297.4</ele>
        <time>2021-07-05 11:20:42</time>
      </trkpt>
      <trkpt lat="28.38849" lon="-14.08673">
        <ele>297.4</ele>
        <time>2021-07-05 11:20:43</time>
      </trkpt>
      <trkpt lat="28.38846" lon="-14.08675">
        <ele>297.4</ele>
        <time>2021-07-05 11:20:44</time>
      </trkpt>
      <trkpt lat="28.38843" lon="-14.08677">
        <ele>297.6</ele>
        <time>2021-07-05 11:20:45</time>
      </trkpt>
      <trkpt lat="28.38839" lon="-14.08678">
        <ele>297.6</ele>
        <time>2021-07-05 11:20:46</time>
      </trkpt>
      <trkpt lat="28.38836" lon="-14.08679">
        <ele>297.6</ele>
        <time>2021-07-05 11:20:47</time>
      </trkpt>
      <trkpt lat="28.38833" lon="-14.0868">
        <ele>297.6</ele>
        <time>2021-07-05 11:20:48</time>
      </trkpt>
      <trkpt lat="28.3883" lon="-14.08681">
        <ele>297.8</ele>
        <time>2021-07-05 11:20:49</time>
      </trkpt>
      <trkpt lat="28.38827" lon="-14.08682">
        <ele>297.8</ele>
        <time>2021-07-05 11:20:50</time>
      </trkpt>
      <trkpt lat="28.38823" lon="-14.08683">
        <ele>297.8</ele>
        <time>2021-07-05 11:20:51</time>
      </trkpt>
      <trkpt lat="28.3882" lon="-14.08684">
        <ele>297.8</ele>
        <time>2021-07-05 11:20:52</time>
      </trkpt>
      <trkpt lat="28.38816" lon="-14.08685">
        <ele>297.8</ele>
        <time>2021-07-05 11:20:53</time>
      </trkpt>
      <trkpt lat="28.38813" lon="-14.08687">
        <ele>298</ele>
        <time>2021-07-05 11:20:54</time>
      </trkpt>
      <trkpt lat="28.38809" lon="-14.08689">
        <ele>298</ele>
        <time>2021-07-05 11:20:55</time>
      </trkpt>
      <trkpt lat="28.38806" lon="-14.08691">
        <ele>298</ele>
        <time>2021-07-05 11:20:56</time>
      </trkpt>
      <trkpt lat="28.38804" lon="-14.08694">
        <ele>298</ele>
        <time>2021-07-05 11:20:57</time>
      </trkpt>
      <trkpt lat="28.38802" lon="-14.08699">
        <ele>298</ele>
        <time>2021-07-05 11:20:58</time>
      </trkpt>
      <trkpt lat="28.38802" lon="-14.08703">
        <ele>298.4</ele>
        <time>2021-07-05 11:20:59</time>
      </trkpt>
      <trkpt lat="28.38803" lon="-14.08708">
        <ele>298.8</ele>
        <time>2021-07-05 11:21:00</time>
      </trkpt>
      <trkpt lat="28.38805" lon="-14.08712">
        <ele>298.8</ele>
        <time>2021-07-05 11:21:01</time>
      </trkpt>
      <trkpt lat="28.38809" lon="-14.08715">
        <ele>298.8</ele>
        <time>2021-07-05 11:21:02</time>
      </trkpt>
      <trkpt lat="28.38812" lon="-14.08717">
        <ele>299</ele>
        <time>2021-07-05 11:21:03</time>
      </trkpt>
      <trkpt lat="28.38815" lon="-14.08718">
        <ele>299</ele>
        <time>2021-07-05 11:21:04</time>
      </trkpt>
      <trkpt lat="28.38819" lon="-14.0872">
        <ele>299</ele>
        <time>2021-07-05 11:21:05</time>
      </trkpt>
      <trkpt lat="28.38822" lon="-14.08722">
        <ele>299.4</ele>
        <time>2021-07-05 11:21:06</time>
      </trkpt>
      <trkpt lat="28.38825" lon="-14.08724">
        <ele>299.4</ele>
        <time>2021-07-05 11:21:07</time>
      </trkpt>
      <trkpt lat="28.38827" lon="-14.08727">
        <ele>299.6</ele>
        <time>2021-07-05 11:21:08</time>
      </trkpt>
      <trkpt lat="28.3883" lon="-14.08729">
        <ele>299.6</ele>
        <time>2021-07-05 11:21:09</time>
      </trkpt>
      <trkpt lat="28.38832" lon="-14.08732">
        <ele>300</ele>
        <time>2021-07-05 11:21:10</time>
      </trkpt>
      <trkpt lat="28.38835" lon="-14.08735">
        <ele>300</ele>
        <time>2021-07-05 11:21:11</time>
      </trkpt>
      <trkpt lat="28.38836" lon="-14.08738">
        <ele>300.6</ele>
        <time>2021-07-05 11:21:12</time>
      </trkpt>
      <trkpt lat="28.38837" lon="-14.08741">
        <ele>300.6</ele>
        <time>2021-07-05 11:21:13</time>
      </trkpt>
      <trkpt lat="28.38837" lon="-14.08745">
        <ele>300.8</ele>
        <time>2021-07-05 11:21:14</time>
      </trkpt>
      <trkpt lat="28.38837" lon="-14.08749">
        <ele>301</ele>
        <time>2021-07-05 11:21:15</time>
      </trkpt>
      <trkpt lat="28.38836" lon="-14.08753">
        <ele>301.4</ele>
        <time>2021-07-05 11:21:16</time>
      </trkpt>
      <trkpt lat="28.38836" lon="-14.08756">
        <ele>301.8</ele>
        <time>2021-07-05 11:21:17</time>
      </trkpt>
      <trkpt lat="28.38835" lon="-14.0876">
        <ele>301.8</ele>
        <time>2021-07-05 11:21:18</time>
      </trkpt>
      <trkpt lat="28.38834" lon="-14.08763">
        <ele>302.2</ele>
        <time>2021-07-05 11:21:19</time>
      </trkpt>
      <trkpt lat="28.38834" lon="-14.08767">
        <ele>302.4</ele>
        <time>2021-07-05 11:21:20</time>
      </trkpt>
      <trkpt lat="28.38834" lon="-14.0877">
        <ele>302.8</ele>
        <time>2021-07-05 11:21:21</time>
      </trkpt>
      <trkpt lat="28.38833" lon="-14.08773">
        <ele>303.2</ele>
        <time>2021-07-05 11:21:22</time>
      </trkpt>
      <trkpt lat="28.38833" lon="-14.08777">
        <ele>303.2</ele>
        <time>2021-07-05 11:21:23</time>
      </trkpt>
      <trkpt lat="28.38832" lon="-14.0878">
        <ele>303.4</ele>
        <time>2021-07-05 11:21:24</time>
      </trkpt>
      <trkpt lat="28.38832" lon="-14.08784">
        <ele>303.6</ele>
        <time>2021-07-05 11:21:25</time>
      </trkpt>
      <trkpt lat="28.38832" lon="-14.08787">
        <ele>303.8</ele>
        <time>2021-07-05 11:21:26</time>
      </trkpt>
      <trkpt lat="28.38833" lon="-14.0879">
        <ele>304.2</ele>
        <time>2021-07-05 11:21:27</time>
      </trkpt>
      <trkpt lat="28.38834" lon="-14.08794">
        <ele>304.2</ele>
        <time>2021-07-05 11:21:28</time>
      </trkpt>
      <trkpt lat="28.38835" lon="-14.08797">
        <ele>304.2</ele>
        <time>2021-07-05 11:21:29</time>
      </trkpt>
      <trkpt lat="28.38836" lon="-14.088">
        <ele>304.8</ele>
        <time>2021-07-05 11:21:30</time>
      </trkpt>
      <trkpt lat="28.38837" lon="-14.08803">
        <ele>304.8</ele>
        <time>2021-07-05 11:21:31</time>
      </trkpt>
      <trkpt lat="28.38839" lon="-14.08806">
        <ele>305</ele>
        <time>2021-07-05 11:21:32</time>
      </trkpt>
      <trkpt lat="28.3884" lon="-14.08808">
        <ele>305</ele>
        <time>2021-07-05 11:21:33</time>
      </trkpt>
      <trkpt lat="28.38841" lon="-14.08811">
        <ele>305.2</ele>
        <time>2021-07-05 11:21:34</time>
      </trkpt>
      <trkpt lat="28.38842" lon="-14.08814">
        <ele>305.2</ele>
        <time>2021-07-05 11:21:35</time>
      </trkpt>
      <trkpt lat="28.38843" lon="-14.08818">
        <ele>305.6</ele>
        <time>2021-07-05 11:21:36</time>
      </trkpt>
      <trkpt lat="28.38843" lon="-14.08821">
        <ele>306</ele>
        <time>2021-07-05 11:21:37</time>
      </trkpt>
      <trkpt lat="28.38844" lon="-14.08824">
        <ele>306.4</ele>
        <time>2021-07-05 11:21:38</time>
      </trkpt>
      <trkpt lat="28.38844" lon="-14.08827">
        <ele>306.4</ele>
        <time>2021-07-05 11:21:39</time>
      </trkpt>
      <trkpt lat="28.38844" lon="-14.0883">
        <ele>306.6</ele>
        <time>2021-07-05 11:21:40</time>
      </trkpt>
      <trkpt lat="28.38844" lon="-14.08834">
        <ele>306.6</ele>
        <time>2021-07-05 11:21:41</time>
      </trkpt>
      <trkpt lat="28.38844" lon="-14.08837">
        <ele>307</ele>
        <time>2021-07-05 11:21:42</time>
      </trkpt>
      <trkpt lat="28.38844" lon="-14.0884">
        <ele>307</ele>
        <time>2021-07-05 11:21:43</time>
      </trkpt>
      <trkpt lat="28.38844" lon="-14.08843">
        <ele>307</ele>
        <time>2021-07-05 11:21:44</time>
      </trkpt>
      <trkpt lat="28.38844" lon="-14.08846">
        <ele>307.6</ele>
        <time>2021-07-05 11:21:45</time>
      </trkpt>
      <trkpt lat="28.38844" lon="-14.08849">
        <ele>307.8</ele>
        <time>2021-07-05 11:21:46</time>
      </trkpt>
      <trkpt lat="28.38844" lon="-14.08853">
        <ele>307.8</ele>
        <time>2021-07-05 11:21:47</time>
      </trkpt>
      <trkpt lat="28.38844" lon="-14.08856">
        <ele>308.2</ele>
        <time>2021-07-05 11:21:48</time>
      </trkpt>
      <trkpt lat="28.38844" lon="-14.08859">
        <ele>308.2</ele>
        <time>2021-07-05 11:21:49</time>
      </trkpt>
      <trkpt lat="28.38844" lon="-14.08863">
        <ele>308.4</ele>
        <time>2021-07-05 11:21:50</time>
      </trkpt>
      <trkpt lat="28.38844" lon="-14.08866">
        <ele>308.6</ele>
        <time>2021-07-05 11:21:51</time>
      </trkpt>
      <trkpt lat="28.38844" lon="-14.08869">
        <ele>308.6</ele>
        <time>2021-07-05 11:21:52</time>
      </trkpt>
      <trkpt lat="28.38844" lon="-14.08872">
        <ele>308.6</ele>
        <time>2021-07-05 11:21:53</time>
      </trkpt>
      <trkpt lat="28.38843" lon="-14.08875">
        <ele>309</ele>
        <time>2021-07-05 11:21:54</time>
      </trkpt>
      <trkpt lat="28.38843" lon="-14.08879">
        <ele>309.4</ele>
        <time>2021-07-05 11:21:55</time>
      </trkpt>
      <trkpt lat="28.38843" lon="-14.08882">
        <ele>309.4</ele>
        <time>2021-07-05 11:21:56</time>
      </trkpt>
      <trkpt lat="28.38842" lon="-14.08885">
        <ele>309.8</ele>
        <time>2021-07-05 11:21:57</time>
      </trkpt>
      <trkpt lat="28.38842" lon="-14.08889">
        <ele>309.8</ele>
        <time>2021-07-05 11:21:58</time>
      </trkpt>
      <trkpt lat="28.38842" lon="-14.08892">
        <ele>310.4</ele>
        <time>2021-07-05 11:21:59</time>
      </trkpt>
      <trkpt lat="28.38842" lon="-14.08895">
        <ele>310.4</ele>
        <time>2021-07-05 11:22:00</time>
      </trkpt>
      <trkpt lat="28.38842" lon="-14.08898">
        <ele>310.6</ele>
        <time>2021-07-05 11:22:01</time>
      </trkpt>
      <trkpt lat="28.38841" lon="-14.08901">
        <ele>310.8</ele>
        <time>2021-07-05 11:22:02</time>
      </trkpt>
      <trkpt lat="28.38841" lon="-14.08905">
        <ele>311.2</ele>
        <time>2021-07-05 11:22:03</time>
      </trkpt>
      <trkpt lat="28.3884" lon="-14.08908">
        <ele>311.2</ele>
        <time>2021-07-05 11:22:04</time>
      </trkpt>
      <trkpt lat="28.3884" lon="-14.08911">
        <ele>311.4</ele>
        <time>2021-07-05 11:22:05</time>
      </trkpt>
      <trkpt lat="28.38839" lon="-14.08914">
        <ele>311.8</ele>
        <time>2021-07-05 11:22:06</time>
      </trkpt>
      <trkpt lat="28.38839" lon="-14.08918">
        <ele>311.8</ele>
        <time>2021-07-05 11:22:07</time>
      </trkpt>
      <trkpt lat="28.38838" lon="-14.08921">
        <ele>311.8</ele>
        <time>2021-07-05 11:22:08</time>
      </trkpt>
      <trkpt lat="28.38838" lon="-14.08924">
        <ele>311.8</ele>
        <time>2021-07-05 11:22:09</time>
      </trkpt>
      <trkpt lat="28.38837" lon="-14.08927">
        <ele>312</ele>
        <time>2021-07-05 11:22:10</time>
      </trkpt>
      <trkpt lat="28.38836" lon="-14.08931">
        <ele>312</ele>
        <time>2021-07-05 11:22:11</time>
      </trkpt>
      <trkpt lat="28.38836" lon="-14.08934">
        <ele>312.2</ele>
        <time>2021-07-05 11:22:12</time>
      </trkpt>
      <trkpt lat="28.38835" lon="-14.08938">
        <ele>312.4</ele>
        <time>2021-07-05 11:22:13</time>
      </trkpt>
      <trkpt lat="28.38835" lon="-14.08941">
        <ele>312.4</ele>
        <time>2021-07-05 11:22:14</time>
      </trkpt>
      <trkpt lat="28.38834" lon="-14.08944">
        <ele>312.8</ele>
        <time>2021-07-05 11:22:15</time>
      </trkpt>
      <trkpt lat="28.38833" lon="-14.08948">
        <ele>312.8</ele>
        <time>2021-07-05 11:22:16</time>
      </trkpt>
      <trkpt lat="28.38832" lon="-14.08951">
        <ele>313.2</ele>
        <time>2021-07-05 11:22:17</time>
      </trkpt>
      <trkpt lat="28.38831" lon="-14.08954">
        <ele>313.2</ele>
        <time>2021-07-05 11:22:18</time>
      </trkpt>
      <trkpt lat="28.3883" lon="-14.08957">
        <ele>313.2</ele>
        <time>2021-07-05 11:22:19</time>
      </trkpt>
      <trkpt lat="28.38829" lon="-14.0896">
        <ele>313.4</ele>
        <time>2021-07-05 11:22:20</time>
      </trkpt>
      <trkpt lat="28.38827" lon="-14.08963">
        <ele>313.6</ele>
        <time>2021-07-05 11:22:21</time>
      </trkpt>
      <trkpt lat="28.38826" lon="-14.08967">
        <ele>313.6</ele>
        <time>2021-07-05 11:22:22</time>
      </trkpt>
      <trkpt lat="28.38825" lon="-14.0897">
        <ele>313.6</ele>
        <time>2021-07-05 11:22:23</time>
      </trkpt>
      <trkpt lat="28.38823" lon="-14.08973">
        <ele>313.8</ele>
        <time>2021-07-05 11:22:24</time>
      </trkpt>
      <trkpt lat="28.38822" lon="-14.08976">
        <ele>313.8</ele>
        <time>2021-07-05 11:22:25</time>
      </trkpt>
      <trkpt lat="28.3882" lon="-14.08978">
        <ele>314.2</ele>
        <time>2021-07-05 11:22:26</time>
      </trkpt>
      <trkpt lat="28.38818" lon="-14.08981">
        <ele>314.2</ele>
        <time>2021-07-05 11:22:27</time>
      </trkpt>
      <trkpt lat="28.38816" lon="-14.08984">
        <ele>314.2</ele>
        <time>2021-07-05 11:22:28</time>
      </trkpt>
      <trkpt lat="28.38814" lon="-14.08987">
        <ele>314.4</ele>
        <time>2021-07-05 11:22:29</time>
      </trkpt>
      <trkpt lat="28.38813" lon="-14.0899">
        <ele>314.4</ele>
        <time>2021-07-05 11:22:30</time>
      </trkpt>
      <trkpt lat="28.38811" lon="-14.08993">
        <ele>314.6</ele>
        <time>2021-07-05 11:22:31</time>
      </trkpt>
      <trkpt lat="28.38809" lon="-14.08996">
        <ele>314.6</ele>
        <time>2021-07-05 11:22:32</time>
      </trkpt>
      <trkpt lat="28.38807" lon="-14.08999">
        <ele>314.6</ele>
        <time>2021-07-05 11:22:33</time>
      </trkpt>
      <trkpt lat="28.38805" lon="-14.09001">
        <ele>314.8</ele>
        <time>2021-07-05 11:22:34</time>
      </trkpt>
      <trkpt lat="28.38803" lon="-14.09004">
        <ele>314.8</ele>
        <time>2021-07-05 11:22:35</time>
      </trkpt>
      <trkpt lat="28.38802" lon="-14.09007">
        <ele>314.8</ele>
        <time>2021-07-05 11:22:36</time>
      </trkpt>
      <trkpt lat="28.38801" lon="-14.0901">
        <ele>315.2</ele>
        <time>2021-07-05 11:22:37</time>
      </trkpt>
      <trkpt lat="28.38799" lon="-14.09014">
        <ele>315.6</ele>
        <time>2021-07-05 11:22:38</time>
      </trkpt>
      <trkpt lat="28.38798" lon="-14.09017">
        <ele>315.6</ele>
        <time>2021-07-05 11:22:39</time>
      </trkpt>
      <trkpt lat="28.38798" lon="-14.0902">
        <ele>316.4</ele>
        <time>2021-07-05 11:22:40</time>
      </trkpt>
      <trkpt lat="28.38797" lon="-14.09024">
        <ele>316.4</ele>
        <time>2021-07-05 11:22:41</time>
      </trkpt>
      <trkpt lat="28.38798" lon="-14.09027">
        <ele>316.8</ele>
        <time>2021-07-05 11:22:42</time>
      </trkpt>
      <trkpt lat="28.38798" lon="-14.0903">
        <ele>317.2</ele>
        <time>2021-07-05 11:22:43</time>
      </trkpt>
      <trkpt lat="28.38798" lon="-14.09034">
        <ele>317.6</ele>
        <time>2021-07-05 11:22:44</time>
      </trkpt>
      <trkpt lat="28.38799" lon="-14.09037">
        <ele>317.8</ele>
        <time>2021-07-05 11:22:45</time>
      </trkpt>
      <trkpt lat="28.38799" lon="-14.0904">
        <ele>318</ele>
        <time>2021-07-05 11:22:46</time>
      </trkpt>
      <trkpt lat="28.38799" lon="-14.09044">
        <ele>318.2</ele>
        <time>2021-07-05 11:22:47</time>
      </trkpt>
      <trkpt lat="28.38799" lon="-14.09047">
        <ele>318.6</ele>
        <time>2021-07-05 11:22:48</time>
      </trkpt>
      <trkpt lat="28.38799" lon="-14.0905">
        <ele>318.8</ele>
        <time>2021-07-05 11:22:49</time>
      </trkpt>
      <trkpt lat="28.38799" lon="-14.09054">
        <ele>319</ele>
        <time>2021-07-05 11:22:50</time>
      </trkpt>
      <trkpt lat="28.38799" lon="-14.09057">
        <ele>319</ele>
        <time>2021-07-05 11:22:51</time>
      </trkpt>
      <trkpt lat="28.38799" lon="-14.09061">
        <ele>319.4</ele>
        <time>2021-07-05 11:22:52</time>
      </trkpt>
      <trkpt lat="28.38798" lon="-14.09064">
        <ele>319.8</ele>
        <time>2021-07-05 11:22:53</time>
      </trkpt>
      <trkpt lat="28.38797" lon="-14.09067">
        <ele>319.8</ele>
        <time>2021-07-05 11:22:54</time>
      </trkpt>
      <trkpt lat="28.38796" lon="-14.09071">
        <ele>319.8</ele>
        <time>2021-07-05 11:22:55</time>
      </trkpt>
      <trkpt lat="28.38795" lon="-14.09074">
        <ele>320</ele>
        <time>2021-07-05 11:22:56</time>
      </trkpt>
      <trkpt lat="28.38795" lon="-14.09077">
        <ele>320</ele>
        <time>2021-07-05 11:22:57</time>
      </trkpt>
      <trkpt lat="28.38794" lon="-14.09081">
        <ele>320.4</ele>
        <time>2021-07-05 11:22:58</time>
      </trkpt>
      <trkpt lat="28.38793" lon="-14.09084">
        <ele>320.4</ele>
        <time>2021-07-05 11:22:59</time>
      </trkpt>
      <trkpt lat="28.38792" lon="-14.09088">
        <ele>320.6</ele>
        <time>2021-07-05 11:23:00</time>
      </trkpt>
      <trkpt lat="28.38791" lon="-14.09091">
        <ele>320.6</ele>
        <time>2021-07-05 11:23:01</time>
      </trkpt>
      <trkpt lat="28.3879" lon="-14.09094">
        <ele>321</ele>
        <time>2021-07-05 11:23:02</time>
      </trkpt>
      <trkpt lat="28.38788" lon="-14.09097">
        <ele>321.2</ele>
        <time>2021-07-05 11:23:03</time>
      </trkpt>
      <trkpt lat="28.38787" lon="-14.09101">
        <ele>321.4</ele>
        <time>2021-07-05 11:23:04</time>
      </trkpt>
      <trkpt lat="28.38786" lon="-14.09104">
        <ele>321.4</ele>
        <time>2021-07-05 11:23:05</time>
      </trkpt>
      <trkpt lat="28.38785" lon="-14.09107">
        <ele>321.6</ele>
        <time>2021-07-05 11:23:06</time>
      </trkpt>
      <trkpt lat="28.38784" lon="-14.0911">
        <ele>321.6</ele>
        <time>2021-07-05 11:23:07</time>
      </trkpt>
      <trkpt lat="28.38783" lon="-14.09113">
        <ele>321.8</ele>
        <time>2021-07-05 11:23:08</time>
      </trkpt>
      <trkpt lat="28.38782" lon="-14.09117">
        <ele>321.8</ele>
        <time>2021-07-05 11:23:09</time>
      </trkpt>
      <trkpt lat="28.38781" lon="-14.0912">
        <ele>322.2</ele>
        <time>2021-07-05 11:23:10</time>
      </trkpt>
      <trkpt lat="28.38779" lon="-14.09123">
        <ele>322.2</ele>
        <time>2021-07-05 11:23:11</time>
      </trkpt>
      <trkpt lat="28.38778" lon="-14.09126">
        <ele>322.4</ele>
        <time>2021-07-05 11:23:12</time>
      </trkpt>
      <trkpt lat="28.38777" lon="-14.0913">
        <ele>322.4</ele>
        <time>2021-07-05 11:23:13</time>
      </trkpt>
      <trkpt lat="28.38775" lon="-14.09133">
        <ele>322.8</ele>
        <time>2021-07-05 11:23:14</time>
      </trkpt>
      <trkpt lat="28.38774" lon="-14.09136">
        <ele>323</ele>
        <time>2021-07-05 11:23:15</time>
      </trkpt>
      <trkpt lat="28.38773" lon="-14.09139">
        <ele>323.2</ele>
        <time>2021-07-05 11:23:16</time>
      </trkpt>
      <trkpt lat="28.38772" lon="-14.09142">
        <ele>323.2</ele>
        <time>2021-07-05 11:23:17</time>
      </trkpt>
      <trkpt lat="28.38771" lon="-14.09146">
        <ele>323.6</ele>
        <time>2021-07-05 11:23:18</time>
      </trkpt>
      <trkpt lat="28.3877" lon="-14.09149">
        <ele>323.8</ele>
        <time>2021-07-05 11:23:19</time>
      </trkpt>
      <trkpt lat="28.38769" lon="-14.09153">
        <ele>324</ele>
        <time>2021-07-05 11:23:20</time>
      </trkpt>
      <trkpt lat="28.38767" lon="-14.09156">
        <ele>324.2</ele>
        <time>2021-07-05 11:23:21</time>
      </trkpt>
      <trkpt lat="28.38766" lon="-14.09159">
        <ele>324.4</ele>
        <time>2021-07-05 11:23:22</time>
      </trkpt>
      <trkpt lat="28.38764" lon="-14.09163">
        <ele>324.8</ele>
        <time>2021-07-05 11:23:23</time>
      </trkpt>
      <trkpt lat="28.38763" lon="-14.09166">
        <ele>324.8</ele>
        <time>2021-07-05 11:23:24</time>
      </trkpt>
      <trkpt lat="28.38761" lon="-14.09169">
        <ele>325</ele>
        <time>2021-07-05 11:23:25</time>
      </trkpt>
      <trkpt lat="28.38759" lon="-14.09172">
        <ele>325.4</ele>
        <time>2021-07-05 11:23:26</time>
      </trkpt>
      <trkpt lat="28.38756" lon="-14.09174">
        <ele>325.4</ele>
        <time>2021-07-05 11:23:27</time>
      </trkpt>
      <trkpt lat="28.38754" lon="-14.09177">
        <ele>325.4</ele>
        <time>2021-07-05 11:23:28</time>
      </trkpt>
      <trkpt lat="28.38752" lon="-14.0918">
        <ele>325.6</ele>
        <time>2021-07-05 11:23:29</time>
      </trkpt>
      <trkpt lat="28.3875" lon="-14.09183">
        <ele>325.6</ele>
        <time>2021-07-05 11:23:30</time>
      </trkpt>
      <trkpt lat="28.38748" lon="-14.09186">
        <ele>325.6</ele>
        <time>2021-07-05 11:23:31</time>
      </trkpt>
      <trkpt lat="28.38746" lon="-14.09188">
        <ele>325.6</ele>
        <time>2021-07-05 11:23:32</time>
      </trkpt>
      <trkpt lat="28.38743" lon="-14.09191">
        <ele>326</ele>
        <time>2021-07-05 11:23:33</time>
      </trkpt>
      <trkpt lat="28.38741" lon="-14.09194">
        <ele>326</ele>
        <time>2021-07-05 11:23:34</time>
      </trkpt>
      <trkpt lat="28.38739" lon="-14.09197">
        <ele>326.2</ele>
        <time>2021-07-05 11:23:35</time>
      </trkpt>
      <trkpt lat="28.38737" lon="-14.092">
        <ele>326.2</ele>
        <time>2021-07-05 11:23:36</time>
      </trkpt>
      <trkpt lat="28.38735" lon="-14.09203">
        <ele>326.4</ele>
        <time>2021-07-05 11:23:37</time>
      </trkpt>
      <trkpt lat="28.38732" lon="-14.09206">
        <ele>326.8</ele>
        <time>2021-07-05 11:23:38</time>
      </trkpt>
      <trkpt lat="28.3873" lon="-14.09208">
        <ele>326.8</ele>
        <time>2021-07-05 11:23:39</time>
      </trkpt>
      <trkpt lat="28.38728" lon="-14.09211">
        <ele>326.8</ele>
        <time>2021-07-05 11:23:40</time>
      </trkpt>
      <trkpt lat="28.38726" lon="-14.09214">
        <ele>326.8</ele>
        <time>2021-07-05 11:23:41</time>
      </trkpt>
      <trkpt lat="28.38723" lon="-14.09216">
        <ele>327</ele>
        <time>2021-07-05 11:23:42</time>
      </trkpt>
      <trkpt lat="28.38721" lon="-14.09219">
        <ele>327</ele>
        <time>2021-07-05 11:23:43</time>
      </trkpt>
      <trkpt lat="28.38718" lon="-14.09221">
        <ele>327.4</ele>
        <time>2021-07-05 11:23:44</time>
      </trkpt>
      <trkpt lat="28.38716" lon="-14.09224">
        <ele>327.4</ele>
        <time>2021-07-05 11:23:45</time>
      </trkpt>
      <trkpt lat="28.38714" lon="-14.09226">
        <ele>327.6</ele>
        <time>2021-07-05 11:23:46</time>
      </trkpt>
      <trkpt lat="28.38712" lon="-14.09228">
        <ele>327.6</ele>
        <time>2021-07-05 11:23:47</time>
      </trkpt>
      <trkpt lat="28.38711" lon="-14.0923">
        <ele>328.2</ele>
        <time>2021-07-05 11:23:48</time>
      </trkpt>
      <trkpt lat="28.3871" lon="-14.09231">
        <ele>328.2</ele>
        <time>2021-07-05 11:23:49</time>
      </trkpt>
      <trkpt lat="28.38709" lon="-14.09233">
        <ele>328.6</ele>
        <time>2021-07-05 11:23:50</time>
      </trkpt>
      <trkpt lat="28.38708" lon="-14.09235">
        <ele>328.8</ele>
        <time>2021-07-05 11:23:51</time>
      </trkpt>
      <trkpt lat="28.38708" lon="-14.09237">
        <ele>329.6</ele>
        <time>2021-07-05 11:23:52</time>
      </trkpt>
      <trkpt lat="28.38708" lon="-14.09238">
        <ele>329.6</ele>
        <time>2021-07-05 11:23:53</time>
      </trkpt>
      <trkpt lat="28.38707" lon="-14.0924">
        <ele>329.8</ele>
        <time>2021-07-05 11:23:54</time>
      </trkpt>
      <trkpt lat="28.38707" lon="-14.09241">
        <ele>329.8</ele>
        <time>2021-07-05 11:23:55</time>
      </trkpt>
      <trkpt lat="28.38706" lon="-14.09243">
        <ele>330</ele>
        <time>2021-07-05 11:23:56</time>
      </trkpt>
      <trkpt lat="28.38706" lon="-14.09243">
        <ele>330</ele>
        <time>2021-07-05 11:23:57</time>
      </trkpt>
      <trkpt lat="28.38706" lon="-14.09243">
        <ele>330</ele>
        <time>2021-07-05 11:23:58</time>
      </trkpt>
      <trkpt lat="28.38707" lon="-14.09243">
        <ele>330</ele>
        <time>2021-07-05 11:23:59</time>
      </trkpt>
      <trkpt lat="28.38706" lon="-14.09243">
        <ele>331.4</ele>
        <time>2021-07-05 11:25:19</time>
      </trkpt>
      <trkpt lat="28.38705" lon="-14.09245">
        <ele>331.4</ele>
        <time>2021-07-05 11:25:20</time>
      </trkpt>
      <trkpt lat="28.38704" lon="-14.09246">
        <ele>331</ele>
        <time>2021-07-05 11:25:21</time>
      </trkpt>
      <trkpt lat="28.38702" lon="-14.09247">
        <ele>331</ele>
        <time>2021-07-05 11:25:22</time>
      </trkpt>
      <trkpt lat="28.38701" lon="-14.09247">
        <ele>331</ele>
        <time>2021-07-05 11:25:23</time>
      </trkpt>
      <trkpt lat="28.387" lon="-14.09246">
        <ele>330.6</ele>
        <time>2021-07-05 11:25:24</time>
      </trkpt>
      <trkpt lat="28.38699" lon="-14.09246">
        <ele>330.6</ele>
        <time>2021-07-05 11:25:25</time>
      </trkpt>
      <trkpt lat="28.38697" lon="-14.09246">
        <ele>330.2</ele>
        <time>2021-07-05 11:25:26</time>
      </trkpt>
      <trkpt lat="28.38694" lon="-14.09245">
        <ele>330.2</ele>
        <time>2021-07-05 11:25:27</time>
      </trkpt>
      <trkpt lat="28.38691" lon="-14.09243">
        <ele>330</ele>
        <time>2021-07-05 11:25:28</time>
      </trkpt>
      <trkpt lat="28.38689" lon="-14.0924">
        <ele>330</ele>
        <time>2021-07-05 11:25:29</time>
      </trkpt>
      <trkpt lat="28.38688" lon="-14.09237">
        <ele>329.8</ele>
        <time>2021-07-05 11:25:30</time>
      </trkpt>
      <trkpt lat="28.38686" lon="-14.09234">
        <ele>329.8</ele>
        <time>2021-07-05 11:25:31</time>
      </trkpt>
      <trkpt lat="28.38684" lon="-14.09231">
        <ele>329.8</ele>
        <time>2021-07-05 11:25:32</time>
      </trkpt>
      <trkpt lat="28.38682" lon="-14.09228">
        <ele>329.8</ele>
        <time>2021-07-05 11:25:33</time>
      </trkpt>
      <trkpt lat="28.3868" lon="-14.09225">
        <ele>329.8</ele>
        <time>2021-07-05 11:25:34</time>
      </trkpt>
      <trkpt lat="28.38678" lon="-14.09223">
        <ele>329.8</ele>
        <time>2021-07-05 11:25:35</time>
      </trkpt>
      <trkpt lat="28.38675" lon="-14.09221">
        <ele>329.6</ele>
        <time>2021-07-05 11:25:36</time>
      </trkpt>
      <trkpt lat="28.38672" lon="-14.0922">
        <ele>329.6</ele>
        <time>2021-07-05 11:25:37</time>
      </trkpt>
      <trkpt lat="28.38669" lon="-14.09219">
        <ele>329.6</ele>
        <time>2021-07-05 11:25:38</time>
      </trkpt>
      <trkpt lat="28.38666" lon="-14.09218">
        <ele>329.6</ele>
        <time>2021-07-05 11:25:39</time>
      </trkpt>
      <trkpt lat="28.38662" lon="-14.09217">
        <ele>329.6</ele>
        <time>2021-07-05 11:25:40</time>
      </trkpt>
      <trkpt lat="28.38659" lon="-14.09216">
        <ele>329.6</ele>
        <time>2021-07-05 11:25:41</time>
      </trkpt>
      <trkpt lat="28.38656" lon="-14.09214">
        <ele>329.6</ele>
        <time>2021-07-05 11:25:42</time>
      </trkpt>
      <trkpt lat="28.38653" lon="-14.09213">
        <ele>329.6</ele>
        <time>2021-07-05 11:25:43</time>
      </trkpt>
      <trkpt lat="28.3865" lon="-14.09212">
        <ele>329.6</ele>
        <time>2021-07-05 11:25:44</time>
      </trkpt>
      <trkpt lat="28.38647" lon="-14.09211">
        <ele>329.6</ele>
        <time>2021-07-05 11:25:45</time>
      </trkpt>
      <trkpt lat="28.38644" lon="-14.09209">
        <ele>329.6</ele>
        <time>2021-07-05 11:25:46</time>
      </trkpt>
      <trkpt lat="28.38641" lon="-14.09208">
        <ele>329.8</ele>
        <time>2021-07-05 11:25:47</time>
      </trkpt>
      <trkpt lat="28.38638" lon="-14.09206">
        <ele>329.8</ele>
        <time>2021-07-05 11:25:48</time>
      </trkpt>
      <trkpt lat="28.38634" lon="-14.09205">
        <ele>329.8</ele>
        <time>2021-07-05 11:25:49</time>
      </trkpt>
      <trkpt lat="28.38631" lon="-14.09204">
        <ele>330</ele>
        <time>2021-07-05 11:25:50</time>
      </trkpt>
      <trkpt lat="28.38628" lon="-14.09203">
        <ele>330</ele>
        <time>2021-07-05 11:25:51</time>
      </trkpt>
      <trkpt lat="28.38625" lon="-14.09202">
        <ele>330</ele>
        <time>2021-07-05 11:25:52</time>
      </trkpt>
      <trkpt lat="28.38622" lon="-14.092">
        <ele>330.2</ele>
        <time>2021-07-05 11:25:53</time>
      </trkpt>
      <trkpt lat="28.38619" lon="-14.09199">
        <ele>330.2</ele>
        <time>2021-07-05 11:25:54</time>
      </trkpt>
      <trkpt lat="28.38616" lon="-14.09198">
        <ele>330.4</ele>
        <time>2021-07-05 11:25:55</time>
      </trkpt>
      <trkpt lat="28.38613" lon="-14.09197">
        <ele>330.4</ele>
        <time>2021-07-05 11:25:56</time>
      </trkpt>
      <trkpt lat="28.3861" lon="-14.09195">
        <ele>330.4</ele>
        <time>2021-07-05 11:25:57</time>
      </trkpt>
      <trkpt lat="28.38607" lon="-14.09194">
        <ele>330.6</ele>
        <time>2021-07-05 11:25:58</time>
      </trkpt>
      <trkpt lat="28.38604" lon="-14.09193">
        <ele>330.6</ele>
        <time>2021-07-05 11:25:59</time>
      </trkpt>
      <trkpt lat="28.38601" lon="-14.09192">
        <ele>330.8</ele>
        <time>2021-07-05 11:26:00</time>
      </trkpt>
      <trkpt lat="28.38598" lon="-14.0919">
        <ele>330.8</ele>
        <time>2021-07-05 11:26:01</time>
      </trkpt>
      <trkpt lat="28.38595" lon="-14.09189">
        <ele>330.8</ele>
        <time>2021-07-05 11:26:02</time>
      </trkpt>
      <trkpt lat="28.38592" lon="-14.09188">
        <ele>331.2</ele>
        <time>2021-07-05 11:26:03</time>
      </trkpt>
      <trkpt lat="28.38589" lon="-14.09186">
        <ele>331.2</ele>
        <time>2021-07-05 11:26:04</time>
      </trkpt>
      <trkpt lat="28.38586" lon="-14.09185">
        <ele>331.4</ele>
        <time>2021-07-05 11:26:05</time>
      </trkpt>
      <trkpt lat="28.38583" lon="-14.09183">
        <ele>331.8</ele>
        <time>2021-07-05 11:26:06</time>
      </trkpt>
      <trkpt lat="28.3858" lon="-14.09182">
        <ele>331.8</ele>
        <time>2021-07-05 11:26:07</time>
      </trkpt>
      <trkpt lat="28.38578" lon="-14.0918">
        <ele>332</ele>
        <time>2021-07-05 11:26:08</time>
      </trkpt>
      <trkpt lat="28.38575" lon="-14.09179">
        <ele>332.4</ele>
        <time>2021-07-05 11:26:09</time>
      </trkpt>
      <trkpt lat="28.38572" lon="-14.09177">
        <ele>332.4</ele>
        <time>2021-07-05 11:26:10</time>
      </trkpt>
      <trkpt lat="28.38569" lon="-14.09175">
        <ele>332.6</ele>
        <time>2021-07-05 11:26:11</time>
      </trkpt>
      <trkpt lat="28.38567" lon="-14.09172">
        <ele>332.6</ele>
        <time>2021-07-05 11:26:12</time>
      </trkpt>
      <trkpt lat="28.38565" lon="-14.0917">
        <ele>333</ele>
        <time>2021-07-05 11:26:13</time>
      </trkpt>
      <trkpt lat="28.38562" lon="-14.09167">
        <ele>333</ele>
        <time>2021-07-05 11:26:14</time>
      </trkpt>
      <trkpt lat="28.3856" lon="-14.09165">
        <ele>333.4</ele>
        <time>2021-07-05 11:26:15</time>
      </trkpt>
      <trkpt lat="28.38558" lon="-14.09162">
        <ele>333.4</ele>
        <time>2021-07-05 11:26:16</time>
      </trkpt>
      <trkpt lat="28.38557" lon="-14.09158">
        <ele>333.6</ele>
        <time>2021-07-05 11:26:17</time>
      </trkpt>
      <trkpt lat="28.38556" lon="-14.09155">
        <ele>333.6</ele>
        <time>2021-07-05 11:26:18</time>
      </trkpt>
      <trkpt lat="28.38555" lon="-14.09152">
        <ele>334</ele>
        <time>2021-07-05 11:26:19</time>
      </trkpt>
      <trkpt lat="28.38553" lon="-14.09149">
        <ele>334</ele>
        <time>2021-07-05 11:26:20</time>
      </trkpt>
      <trkpt lat="28.38552" lon="-14.09145">
        <ele>334.2</ele>
        <time>2021-07-05 11:26:21</time>
      </trkpt>
      <trkpt lat="28.38551" lon="-14.09142">
        <ele>334.2</ele>
        <time>2021-07-05 11:26:22</time>
      </trkpt>
      <trkpt lat="28.3855" lon="-14.09139">
        <ele>334.6</ele>
        <time>2021-07-05 11:26:23</time>
      </trkpt>
      <trkpt lat="28.38549" lon="-14.09135">
        <ele>334.6</ele>
        <time>2021-07-05 11:26:24</time>
      </trkpt>
      <trkpt lat="28.38548" lon="-14.09132">
        <ele>334.8</ele>
        <time>2021-07-05 11:26:25</time>
      </trkpt>
      <trkpt lat="28.38547" lon="-14.09129">
        <ele>334.8</ele>
        <time>2021-07-05 11:26:26</time>
      </trkpt>
      <trkpt lat="28.38546" lon="-14.09126">
        <ele>335.2</ele>
        <time>2021-07-05 11:26:27</time>
      </trkpt>
      <trkpt lat="28.38545" lon="-14.09123">
        <ele>335.4</ele>
        <time>2021-07-05 11:26:28</time>
      </trkpt>
      <trkpt lat="28.38544" lon="-14.0912">
        <ele>335.8</ele>
        <time>2021-07-05 11:26:29</time>
      </trkpt>
      <trkpt lat="28.38543" lon="-14.09116">
        <ele>336.4</ele>
        <time>2021-07-05 11:26:30</time>
      </trkpt>
      <trkpt lat="28.38541" lon="-14.09113">
        <ele>336.4</ele>
        <time>2021-07-05 11:26:31</time>
      </trkpt>
      <trkpt lat="28.38539" lon="-14.09111">
        <ele>336.6</ele>
        <time>2021-07-05 11:26:32</time>
      </trkpt>
      <trkpt lat="28.38537" lon="-14.09109">
        <ele>336.8</ele>
        <time>2021-07-05 11:26:33</time>
      </trkpt>
      <trkpt lat="28.38534" lon="-14.09107">
        <ele>336.8</ele>
        <time>2021-07-05 11:26:34</time>
      </trkpt>
      <trkpt lat="28.38531" lon="-14.09106">
        <ele>337.2</ele>
        <time>2021-07-05 11:26:35</time>
      </trkpt>
      <trkpt lat="28.38528" lon="-14.09105">
        <ele>337.4</ele>
        <time>2021-07-05 11:26:36</time>
      </trkpt>
      <trkpt lat="28.38525" lon="-14.09105">
        <ele>337.8</ele>
        <time>2021-07-05 11:26:37</time>
      </trkpt>
      <trkpt lat="28.38522" lon="-14.09105">
        <ele>337.8</ele>
        <time>2021-07-05 11:26:38</time>
      </trkpt>
      <trkpt lat="28.38519" lon="-14.09106">
        <ele>337.8</ele>
        <time>2021-07-05 11:26:39</time>
      </trkpt>
      <trkpt lat="28.38515" lon="-14.09107">
        <ele>337.8</ele>
        <time>2021-07-05 11:26:40</time>
      </trkpt>
      <trkpt lat="28.38512" lon="-14.09108">
        <ele>337.8</ele>
        <time>2021-07-05 11:26:41</time>
      </trkpt>
      <trkpt lat="28.38509" lon="-14.09108">
        <ele>337.8</ele>
        <time>2021-07-05 11:26:42</time>
      </trkpt>
      <trkpt lat="28.38506" lon="-14.09108">
        <ele>337.8</ele>
        <time>2021-07-05 11:26:43</time>
      </trkpt>
      <trkpt lat="28.38502" lon="-14.09108">
        <ele>338</ele>
        <time>2021-07-05 11:26:44</time>
      </trkpt>
      <trkpt lat="28.38499" lon="-14.09107">
        <ele>338</ele>
        <time>2021-07-05 11:26:45</time>
      </trkpt>
      <trkpt lat="28.38496" lon="-14.09106">
        <ele>338</ele>
        <time>2021-07-05 11:26:46</time>
      </trkpt>
      <trkpt lat="28.38494" lon="-14.09105">
        <ele>338.2</ele>
        <time>2021-07-05 11:26:47</time>
      </trkpt>
      <trkpt lat="28.38491" lon="-14.09103">
        <ele>338.2</ele>
        <time>2021-07-05 11:26:48</time>
      </trkpt>
      <trkpt lat="28.38488" lon="-14.09102">
        <ele>338.2</ele>
        <time>2021-07-05 11:26:49</time>
      </trkpt>
      <trkpt lat="28.38486" lon="-14.091">
        <ele>338.2</ele>
        <time>2021-07-05 11:26:50</time>
      </trkpt>
      <trkpt lat="28.38483" lon="-14.09098">
        <ele>338.6</ele>
        <time>2021-07-05 11:26:51</time>
      </trkpt>
      <trkpt lat="28.3848" lon="-14.09096">
        <ele>338.6</ele>
        <time>2021-07-05 11:26:52</time>
      </trkpt>
      <trkpt lat="28.38478" lon="-14.09093">
        <ele>338.6</ele>
        <time>2021-07-05 11:26:53</time>
      </trkpt>
      <trkpt lat="28.38476" lon="-14.09091">
        <ele>338.8</ele>
        <time>2021-07-05 11:26:54</time>
      </trkpt>
      <trkpt lat="28.38473" lon="-14.09089">
        <ele>338.8</ele>
        <time>2021-07-05 11:26:55</time>
      </trkpt>
      <trkpt lat="28.38471" lon="-14.09086">
        <ele>339.2</ele>
        <time>2021-07-05 11:26:56</time>
      </trkpt>
      <trkpt lat="28.38469" lon="-14.09084">
        <ele>339.2</ele>
        <time>2021-07-05 11:26:57</time>
      </trkpt>
      <trkpt lat="28.38467" lon="-14.09082">
        <ele>339.6</ele>
        <time>2021-07-05 11:26:58</time>
      </trkpt>
      <trkpt lat="28.38464" lon="-14.0908">
        <ele>339.8</ele>
        <time>2021-07-05 11:26:59</time>
      </trkpt>
      <trkpt lat="28.38462" lon="-14.09078">
        <ele>340.2</ele>
        <time>2021-07-05 11:27:00</time>
      </trkpt>
      <trkpt lat="28.38459" lon="-14.09077">
        <ele>340.4</ele>
        <time>2021-07-05 11:27:01</time>
      </trkpt>
      <trkpt lat="28.38456" lon="-14.09077">
        <ele>340.8</ele>
        <time>2021-07-05 11:27:02</time>
      </trkpt>
      <trkpt lat="28.38453" lon="-14.09077">
        <ele>340.8</ele>
        <time>2021-07-05 11:27:03</time>
      </trkpt>
      <trkpt lat="28.3845" lon="-14.09078">
        <ele>341</ele>
        <time>2021-07-05 11:27:04</time>
      </trkpt>
      <trkpt lat="28.38447" lon="-14.09079">
        <ele>341</ele>
        <time>2021-07-05 11:27:05</time>
      </trkpt>
      <trkpt lat="28.38444" lon="-14.0908">
        <ele>341.4</ele>
        <time>2021-07-05 11:27:06</time>
      </trkpt>
      <trkpt lat="28.38441" lon="-14.09081">
        <ele>341.4</ele>
        <time>2021-07-05 11:27:07</time>
      </trkpt>
      <trkpt lat="28.38439" lon="-14.09082">
        <ele>341.6</ele>
        <time>2021-07-05 11:27:08</time>
      </trkpt>
      <trkpt lat="28.38436" lon="-14.09084">
        <ele>341.6</ele>
        <time>2021-07-05 11:27:09</time>
      </trkpt>
      <trkpt lat="28.38433" lon="-14.09085">
        <ele>341.8</ele>
        <time>2021-07-05 11:27:10</time>
      </trkpt>
      <trkpt lat="28.38431" lon="-14.09087">
        <ele>341.8</ele>
        <time>2021-07-05 11:27:11</time>
      </trkpt>
      <trkpt lat="28.38428" lon="-14.09088">
        <ele>342.2</ele>
        <time>2021-07-05 11:27:12</time>
      </trkpt>
      <trkpt lat="28.38425" lon="-14.09089">
        <ele>342.2</ele>
        <time>2021-07-05 11:27:13</time>
      </trkpt>
      <trkpt lat="28.38422" lon="-14.0909">
        <ele>342.4</ele>
        <time>2021-07-05 11:27:14</time>
      </trkpt>
      <trkpt lat="28.3842" lon="-14.09091">
        <ele>342.8</ele>
        <time>2021-07-05 11:27:15</time>
      </trkpt>
      <trkpt lat="28.38417" lon="-14.09092">
        <ele>342.8</ele>
        <time>2021-07-05 11:27:16</time>
      </trkpt>
      <trkpt lat="28.38414" lon="-14.09093">
        <ele>343</ele>
        <time>2021-07-05 11:27:17</time>
      </trkpt>
      <trkpt lat="28.38412" lon="-14.09094">
        <ele>343.4</ele>
        <time>2021-07-05 11:27:18</time>
      </trkpt>
      <trkpt lat="28.38409" lon="-14.09094">
        <ele>343.4</ele>
        <time>2021-07-05 11:27:19</time>
      </trkpt>
      <trkpt lat="28.38406" lon="-14.09094">
        <ele>343.4</ele>
        <time>2021-07-05 11:27:20</time>
      </trkpt>
      <trkpt lat="28.38403" lon="-14.09094">
        <ele>343.8</ele>
        <time>2021-07-05 11:27:21</time>
      </trkpt>
      <trkpt lat="28.384" lon="-14.09094">
        <ele>343.8</ele>
        <time>2021-07-05 11:27:22</time>
      </trkpt>
      <trkpt lat="28.38397" lon="-14.09094">
        <ele>344</ele>
        <time>2021-07-05 11:27:23</time>
      </trkpt>
      <trkpt lat="28.38394" lon="-14.09095">
        <ele>344</ele>
        <time>2021-07-05 11:27:24</time>
      </trkpt>
      <trkpt lat="28.38391" lon="-14.09095">
        <ele>344.2</ele>
        <time>2021-07-05 11:27:25</time>
      </trkpt>
      <trkpt lat="28.38388" lon="-14.09095">
        <ele>344.2</ele>
        <time>2021-07-05 11:27:26</time>
      </trkpt>
      <trkpt lat="28.38385" lon="-14.09095">
        <ele>344.6</ele>
        <time>2021-07-05 11:27:27</time>
      </trkpt>
      <trkpt lat="28.38383" lon="-14.09096">
        <ele>344.6</ele>
        <time>2021-07-05 11:27:28</time>
      </trkpt>
      <trkpt lat="28.3838" lon="-14.09096">
        <ele>344.8</ele>
        <time>2021-07-05 11:27:29</time>
      </trkpt>
      <trkpt lat="28.38377" lon="-14.09096">
        <ele>344.8</ele>
        <time>2021-07-05 11:27:30</time>
      </trkpt>
      <trkpt lat="28.38374" lon="-14.09097">
        <ele>345.2</ele>
        <time>2021-07-05 11:27:31</time>
      </trkpt>
      <trkpt lat="28.38371" lon="-14.09097">
        <ele>345.2</ele>
        <time>2021-07-05 11:27:32</time>
      </trkpt>
      <trkpt lat="28.38368" lon="-14.09097">
        <ele>345.4</ele>
        <time>2021-07-05 11:27:33</time>
      </trkpt>
      <trkpt lat="28.38365" lon="-14.09097">
        <ele>345.6</ele>
        <time>2021-07-05 11:27:34</time>
      </trkpt>
      <trkpt lat="28.38362" lon="-14.09097">
        <ele>345.6</ele>
        <time>2021-07-05 11:27:35</time>
      </trkpt>
      <trkpt lat="28.3836" lon="-14.09096">
        <ele>345.6</ele>
        <time>2021-07-05 11:27:36</time>
      </trkpt>
      <trkpt lat="28.38357" lon="-14.09096">
        <ele>345.8</ele>
        <time>2021-07-05 11:27:37</time>
      </trkpt>
      <trkpt lat="28.38354" lon="-14.09095">
        <ele>345.8</ele>
        <time>2021-07-05 11:27:38</time>
      </trkpt>
      <trkpt lat="28.38352" lon="-14.09094">
        <ele>346.2</ele>
        <time>2021-07-05 11:27:39</time>
      </trkpt>
      <trkpt lat="28.38349" lon="-14.09093">
        <ele>346.4</ele>
        <time>2021-07-05 11:27:40</time>
      </trkpt>
      <trkpt lat="28.38346" lon="-14.09091">
        <ele>346.8</ele>
        <time>2021-07-05 11:27:41</time>
      </trkpt>
      <trkpt lat="28.38344" lon="-14.09089">
        <ele>346.8</ele>
        <time>2021-07-05 11:27:42</time>
      </trkpt>
      <trkpt lat="28.38342" lon="-14.09087">
        <ele>346.8</ele>
        <time>2021-07-05 11:27:43</time>
      </trkpt>
      <trkpt lat="28.38341" lon="-14.09084">
        <ele>346.8</ele>
        <time>2021-07-05 11:27:44</time>
      </trkpt>
      <trkpt lat="28.3834" lon="-14.09081">
        <ele>346.8</ele>
        <time>2021-07-05 11:27:45</time>
      </trkpt>
      <trkpt lat="28.38339" lon="-14.09077">
        <ele>346.8</ele>
        <time>2021-07-05 11:27:46</time>
      </trkpt>
      <trkpt lat="28.38339" lon="-14.09073">
        <ele>347</ele>
        <time>2021-07-05 11:27:47</time>
      </trkpt>
      <trkpt lat="28.38339" lon="-14.0907">
        <ele>347</ele>
        <time>2021-07-05 11:27:48</time>
      </trkpt>
      <trkpt lat="28.3834" lon="-14.09066">
        <ele>347</ele>
        <time>2021-07-05 11:27:49</time>
      </trkpt>
      <trkpt lat="28.3834" lon="-14.09063">
        <ele>347.2</ele>
        <time>2021-07-05 11:27:50</time>
      </trkpt>
      <trkpt lat="28.38341" lon="-14.09059">
        <ele>347.2</ele>
        <time>2021-07-05 11:27:51</time>
      </trkpt>
      <trkpt lat="28.38342" lon="-14.09056">
        <ele>347.6</ele>
        <time>2021-07-05 11:27:52</time>
      </trkpt>
      <trkpt lat="28.38342" lon="-14.09052">
        <ele>348</ele>
        <time>2021-07-05 11:27:53</time>
      </trkpt>
      <trkpt lat="28.38342" lon="-14.09049">
        <ele>348</ele>
        <time>2021-07-05 11:27:54</time>
      </trkpt>
      <trkpt lat="28.38341" lon="-14.09045">
        <ele>348.4</ele>
        <time>2021-07-05 11:27:55</time>
      </trkpt>
      <trkpt lat="28.3834" lon="-14.09042">
        <ele>348.4</ele>
        <time>2021-07-05 11:27:56</time>
      </trkpt>
      <trkpt lat="28.38338" lon="-14.09039">
        <ele>348.6</ele>
        <time>2021-07-05 11:27:57</time>
      </trkpt>
      <trkpt lat="28.38335" lon="-14.09037">
        <ele>348.6</ele>
        <time>2021-07-05 11:27:58</time>
      </trkpt>
      <trkpt lat="28.38332" lon="-14.09035">
        <ele>348.6</ele>
        <time>2021-07-05 11:27:59</time>
      </trkpt>
      <trkpt lat="28.38329" lon="-14.09035">
        <ele>348.6</ele>
        <time>2021-07-05 11:28:00</time>
      </trkpt>
      <trkpt lat="28.38325" lon="-14.09035">
        <ele>348.6</ele>
        <time>2021-07-05 11:28:01</time>
      </trkpt>
      <trkpt lat="28.38322" lon="-14.09035">
        <ele>348.6</ele>
        <time>2021-07-05 11:28:02</time>
      </trkpt>
      <trkpt lat="28.38318" lon="-14.09036">
        <ele>348.8</ele>
        <time>2021-07-05 11:28:03</time>
      </trkpt>
      <trkpt lat="28.38315" lon="-14.09036">
        <ele>348.8</ele>
        <time>2021-07-05 11:28:04</time>
      </trkpt>
      <trkpt lat="28.38311" lon="-14.09037">
        <ele>348.8</ele>
        <time>2021-07-05 11:28:05</time>
      </trkpt>
      <trkpt lat="28.38308" lon="-14.09037">
        <ele>349</ele>
        <time>2021-07-05 11:28:06</time>
      </trkpt>
      <trkpt lat="28.38305" lon="-14.09037">
        <ele>349</ele>
        <time>2021-07-05 11:28:07</time>
      </trkpt>
      <trkpt lat="28.38301" lon="-14.09037">
        <ele>349.2</ele>
        <time>2021-07-05 11:28:08</time>
      </trkpt>
      <trkpt lat="28.38298" lon="-14.09037">
        <ele>349.6</ele>
        <time>2021-07-05 11:28:09</time>
      </trkpt>
      <trkpt lat="28.38294" lon="-14.09037">
        <ele>349.8</ele>
        <time>2021-07-05 11:28:10</time>
      </trkpt>
      <trkpt lat="28.38291" lon="-14.09036">
        <ele>350</ele>
        <time>2021-07-05 11:28:11</time>
      </trkpt>
      <trkpt lat="28.38288" lon="-14.09035">
        <ele>350.4</ele>
        <time>2021-07-05 11:28:12</time>
      </trkpt>
      <trkpt lat="28.38285" lon="-14.09033">
        <ele>350.6</ele>
        <time>2021-07-05 11:28:13</time>
      </trkpt>
      <trkpt lat="28.38282" lon="-14.09031">
        <ele>350.8</ele>
        <time>2021-07-05 11:28:14</time>
      </trkpt>
      <trkpt lat="28.38279" lon="-14.09029">
        <ele>351.2</ele>
        <time>2021-07-05 11:28:15</time>
      </trkpt>
      <trkpt lat="28.38276" lon="-14.09027">
        <ele>351.2</ele>
        <time>2021-07-05 11:28:16</time>
      </trkpt>
      <trkpt lat="28.38274" lon="-14.09025">
        <ele>351.4</ele>
        <time>2021-07-05 11:28:17</time>
      </trkpt>
      <trkpt lat="28.38271" lon="-14.09022">
        <ele>351.4</ele>
        <time>2021-07-05 11:28:18</time>
      </trkpt>
      <trkpt lat="28.38269" lon="-14.09019">
        <ele>351.6</ele>
        <time>2021-07-05 11:28:19</time>
      </trkpt>
      <trkpt lat="28.38266" lon="-14.09016">
        <ele>351.6</ele>
        <time>2021-07-05 11:28:20</time>
      </trkpt>
      <trkpt lat="28.38265" lon="-14.09013">
        <ele>351.8</ele>
        <time>2021-07-05 11:28:21</time>
      </trkpt>
      <trkpt lat="28.38263" lon="-14.0901">
        <ele>352.2</ele>
        <time>2021-07-05 11:28:22</time>
      </trkpt>
      <trkpt lat="28.38261" lon="-14.09007">
        <ele>352.2</ele>
        <time>2021-07-05 11:28:23</time>
      </trkpt>
      <trkpt lat="28.3826" lon="-14.09003">
        <ele>352.2</ele>
        <time>2021-07-05 11:28:24</time>
      </trkpt>
      <trkpt lat="28.38259" lon="-14.08999">
        <ele>352.6</ele>
        <time>2021-07-05 11:28:25</time>
      </trkpt>
      <trkpt lat="28.38259" lon="-14.08995">
        <ele>352.8</ele>
        <time>2021-07-05 11:28:26</time>
      </trkpt>
      <trkpt lat="28.38258" lon="-14.08991">
        <ele>352.8</ele>
        <time>2021-07-05 11:28:27</time>
      </trkpt>
      <trkpt lat="28.38258" lon="-14.08987">
        <ele>352.8</ele>
        <time>2021-07-05 11:28:28</time>
      </trkpt>
      <trkpt lat="28.38257" lon="-14.08983">
        <ele>353</ele>
        <time>2021-07-05 11:28:29</time>
      </trkpt>
      <trkpt lat="28.38256" lon="-14.08979">
        <ele>353</ele>
        <time>2021-07-05 11:28:30</time>
      </trkpt>
      <trkpt lat="28.38255" lon="-14.08975">
        <ele>353.4</ele>
        <time>2021-07-05 11:28:31</time>
      </trkpt>
      <trkpt lat="28.38254" lon="-14.08972">
        <ele>353.4</ele>
        <time>2021-07-05 11:28:32</time>
      </trkpt>
      <trkpt lat="28.38252" lon="-14.08968">
        <ele>353.8</ele>
        <time>2021-07-05 11:28:33</time>
      </trkpt>
      <trkpt lat="28.3825" lon="-14.08965">
        <ele>353.8</ele>
        <time>2021-07-05 11:28:34</time>
      </trkpt>
      <trkpt lat="28.38247" lon="-14.08963">
        <ele>353.8</ele>
        <time>2021-07-05 11:28:35</time>
      </trkpt>
      <trkpt lat="28.38244" lon="-14.08961">
        <ele>354</ele>
        <time>2021-07-05 11:28:36</time>
      </trkpt>
      <trkpt lat="28.3824" lon="-14.0896">
        <ele>354</ele>
        <time>2021-07-05 11:28:37</time>
      </trkpt>
      <trkpt lat="28.38237" lon="-14.08958">
        <ele>354.6</ele>
        <time>2021-07-05 11:28:38</time>
      </trkpt>
      <trkpt lat="28.38233" lon="-14.08957">
        <ele>354.6</ele>
        <time>2021-07-05 11:28:39</time>
      </trkpt>
      <trkpt lat="28.38229" lon="-14.08956">
        <ele>354.8</ele>
        <time>2021-07-05 11:28:40</time>
      </trkpt>
      <trkpt lat="28.38225" lon="-14.08955">
        <ele>354.8</ele>
        <time>2021-07-05 11:28:41</time>
      </trkpt>
      <trkpt lat="28.38222" lon="-14.08954">
        <ele>354.8</ele>
        <time>2021-07-05 11:28:42</time>
      </trkpt>
      <trkpt lat="28.38219" lon="-14.08954">
        <ele>355.2</ele>
        <time>2021-07-05 11:28:43</time>
      </trkpt>
      <trkpt lat="28.38215" lon="-14.08953">
        <ele>355.4</ele>
        <time>2021-07-05 11:28:44</time>
      </trkpt>
      <trkpt lat="28.38212" lon="-14.08952">
        <ele>355.6</ele>
        <time>2021-07-05 11:28:45</time>
      </trkpt>
      <trkpt lat="28.38209" lon="-14.08951">
        <ele>356</ele>
        <time>2021-07-05 11:28:46</time>
      </trkpt>
      <trkpt lat="28.38205" lon="-14.08949">
        <ele>356.2</ele>
        <time>2021-07-05 11:28:47</time>
      </trkpt>
      <trkpt lat="28.38202" lon="-14.08948">
        <ele>356.4</ele>
        <time>2021-07-05 11:28:48</time>
      </trkpt>
      <trkpt lat="28.38199" lon="-14.08947">
        <ele>356.4</ele>
        <time>2021-07-05 11:28:49</time>
      </trkpt>
      <trkpt lat="28.38196" lon="-14.08946">
        <ele>356.8</ele>
        <time>2021-07-05 11:28:50</time>
      </trkpt>
      <trkpt lat="28.38193" lon="-14.08944">
        <ele>356.8</ele>
        <time>2021-07-05 11:28:51</time>
      </trkpt>
      <trkpt lat="28.3819" lon="-14.08941">
        <ele>357</ele>
        <time>2021-07-05 11:28:52</time>
      </trkpt>
      <trkpt lat="28.38187" lon="-14.08939">
        <ele>357</ele>
        <time>2021-07-05 11:28:53</time>
      </trkpt>
      <trkpt lat="28.38185" lon="-14.08936">
        <ele>357.2</ele>
        <time>2021-07-05 11:28:54</time>
      </trkpt>
      <trkpt lat="28.38183" lon="-14.08932">
        <ele>357.2</ele>
        <time>2021-07-05 11:28:55</time>
      </trkpt>
      <trkpt lat="28.38182" lon="-14.08928">
        <ele>357.2</ele>
        <time>2021-07-05 11:28:56</time>
      </trkpt>
      <trkpt lat="28.38181" lon="-14.08924">
        <ele>357.6</ele>
        <time>2021-07-05 11:28:57</time>
      </trkpt>
      <trkpt lat="28.3818" lon="-14.0892">
        <ele>357.6</ele>
        <time>2021-07-05 11:28:58</time>
      </trkpt>
      <trkpt lat="28.38179" lon="-14.08917">
        <ele>357.6</ele>
        <time>2021-07-05 11:28:59</time>
      </trkpt>
      <trkpt lat="28.38177" lon="-14.08913">
        <ele>357.8</ele>
        <time>2021-07-05 11:29:00</time>
      </trkpt>
      <trkpt lat="28.38175" lon="-14.0891">
        <ele>357.8</ele>
        <time>2021-07-05 11:29:01</time>
      </trkpt>
      <trkpt lat="28.38173" lon="-14.08907">
        <ele>357.8</ele>
        <time>2021-07-05 11:29:02</time>
      </trkpt>
      <trkpt lat="28.38171" lon="-14.08904">
        <ele>358</ele>
        <time>2021-07-05 11:29:03</time>
      </trkpt>
      <trkpt lat="28.38169" lon="-14.08902">
        <ele>358</ele>
        <time>2021-07-05 11:29:04</time>
      </trkpt>
      <trkpt lat="28.38166" lon="-14.08899">
        <ele>358</ele>
        <time>2021-07-05 11:29:05</time>
      </trkpt>
      <trkpt lat="28.38164" lon="-14.08896">
        <ele>358.4</ele>
        <time>2021-07-05 11:29:06</time>
      </trkpt>
      <trkpt lat="28.38161" lon="-14.08894">
        <ele>358.4</ele>
        <time>2021-07-05 11:29:07</time>
      </trkpt>
      <trkpt lat="28.38158" lon="-14.08891">
        <ele>358.4</ele>
        <time>2021-07-05 11:29:08</time>
      </trkpt>
      <trkpt lat="28.38156" lon="-14.08888">
        <ele>358.6</ele>
        <time>2021-07-05 11:29:09</time>
      </trkpt>
      <trkpt lat="28.38154" lon="-14.08886">
        <ele>358.6</ele>
        <time>2021-07-05 11:29:10</time>
      </trkpt>
      <trkpt lat="28.38151" lon="-14.08883">
        <ele>358.6</ele>
        <time>2021-07-05 11:29:11</time>
      </trkpt>
      <trkpt lat="28.38149" lon="-14.0888">
        <ele>358.6</ele>
        <time>2021-07-05 11:29:12</time>
      </trkpt>
      <trkpt lat="28.38146" lon="-14.08877">
        <ele>359</ele>
        <time>2021-07-05 11:29:13</time>
      </trkpt>
      <trkpt lat="28.38144" lon="-14.08875">
        <ele>359.2</ele>
        <time>2021-07-05 11:29:14</time>
      </trkpt>
      <trkpt lat="28.38141" lon="-14.08872">
        <ele>359.2</ele>
        <time>2021-07-05 11:29:15</time>
      </trkpt>
      <trkpt lat="28.38139" lon="-14.08869">
        <ele>359.2</ele>
        <time>2021-07-05 11:29:16</time>
      </trkpt>
      <trkpt lat="28.38136" lon="-14.08866">
        <ele>359.6</ele>
        <time>2021-07-05 11:29:17</time>
      </trkpt>
      <trkpt lat="28.38133" lon="-14.08863">
        <ele>359.6</ele>
        <time>2021-07-05 11:29:18</time>
      </trkpt>
      <trkpt lat="28.38131" lon="-14.08861">
        <ele>359.6</ele>
        <time>2021-07-05 11:29:19</time>
      </trkpt>
      <trkpt lat="28.38129" lon="-14.08858">
        <ele>359.8</ele>
        <time>2021-07-05 11:29:20</time>
      </trkpt>
      <trkpt lat="28.38126" lon="-14.08855">
        <ele>359.8</ele>
        <time>2021-07-05 11:29:21</time>
      </trkpt>
      <trkpt lat="28.38124" lon="-14.08853">
        <ele>359.8</ele>
        <time>2021-07-05 11:29:22</time>
      </trkpt>
      <trkpt lat="28.38121" lon="-14.0885">
        <ele>359.8</ele>
        <time>2021-07-05 11:29:23</time>
      </trkpt>
      <trkpt lat="28.38119" lon="-14.08847">
        <ele>359.8</ele>
        <time>2021-07-05 11:29:24</time>
      </trkpt>
      <trkpt lat="28.38117" lon="-14.08845">
        <ele>360</ele>
        <time>2021-07-05 11:29:25</time>
      </trkpt>
      <trkpt lat="28.38114" lon="-14.08843">
        <ele>360</ele>
        <time>2021-07-05 11:29:26</time>
      </trkpt>
      <trkpt lat="28.38112" lon="-14.0884">
        <ele>360.4</ele>
        <time>2021-07-05 11:29:27</time>
      </trkpt>
      <trkpt lat="28.38109" lon="-14.08838">
        <ele>360.4</ele>
        <time>2021-07-05 11:29:28</time>
      </trkpt>
      <trkpt lat="28.38107" lon="-14.08836">
        <ele>360.8</ele>
        <time>2021-07-05 11:29:29</time>
      </trkpt>
      <trkpt lat="28.38105" lon="-14.08834">
        <ele>360.8</ele>
        <time>2021-07-05 11:29:30</time>
      </trkpt>
      <trkpt lat="28.38102" lon="-14.08832">
        <ele>361</ele>
        <time>2021-07-05 11:29:31</time>
      </trkpt>
      <trkpt lat="28.38099" lon="-14.0883">
        <ele>361</ele>
        <time>2021-07-05 11:29:32</time>
      </trkpt>
      <trkpt lat="28.38097" lon="-14.08828">
        <ele>361.4</ele>
        <time>2021-07-05 11:29:33</time>
      </trkpt>
      <trkpt lat="28.38094" lon="-14.08826">
        <ele>361.6</ele>
        <time>2021-07-05 11:29:34</time>
      </trkpt>
      <trkpt lat="28.38091" lon="-14.08825">
        <ele>361.6</ele>
        <time>2021-07-05 11:29:35</time>
      </trkpt>
      <trkpt lat="28.38088" lon="-14.08823">
        <ele>361.6</ele>
        <time>2021-07-05 11:29:36</time>
      </trkpt>
      <trkpt lat="28.38086" lon="-14.08821">
        <ele>362</ele>
        <time>2021-07-05 11:29:37</time>
      </trkpt>
      <trkpt lat="28.38083" lon="-14.08818">
        <ele>362</ele>
        <time>2021-07-05 11:29:38</time>
      </trkpt>
      <trkpt lat="28.3808" lon="-14.08816">
        <ele>362.6</ele>
        <time>2021-07-05 11:29:39</time>
      </trkpt>
      <trkpt lat="28.38078" lon="-14.08815">
        <ele>362.6</ele>
        <time>2021-07-05 11:29:40</time>
      </trkpt>
      <trkpt lat="28.38075" lon="-14.08813">
        <ele>362.8</ele>
        <time>2021-07-05 11:29:41</time>
      </trkpt>
      <trkpt lat="28.38073" lon="-14.08811">
        <ele>362.8</ele>
        <time>2021-07-05 11:29:42</time>
      </trkpt>
      <trkpt lat="28.3807" lon="-14.08809">
        <ele>363.2</ele>
        <time>2021-07-05 11:29:43</time>
      </trkpt>
      <trkpt lat="28.38068" lon="-14.08807">
        <ele>363.2</ele>
        <time>2021-07-05 11:29:44</time>
      </trkpt>
      <trkpt lat="28.38065" lon="-14.08805">
        <ele>363.6</ele>
        <time>2021-07-05 11:29:45</time>
      </trkpt>
      <trkpt lat="28.38063" lon="-14.08803">
        <ele>363.8</ele>
        <time>2021-07-05 11:29:46</time>
      </trkpt>
      <trkpt lat="28.38061" lon="-14.088">
        <ele>364.2</ele>
        <time>2021-07-05 11:29:47</time>
      </trkpt>
      <trkpt lat="28.38058" lon="-14.08798">
        <ele>364.2</ele>
        <time>2021-07-05 11:29:48</time>
      </trkpt>
      <trkpt lat="28.38056" lon="-14.08797">
        <ele>364.2</ele>
        <time>2021-07-05 11:29:49</time>
      </trkpt>
      <trkpt lat="28.38053" lon="-14.08795">
        <ele>364.6</ele>
        <time>2021-07-05 11:29:50</time>
      </trkpt>
      <trkpt lat="28.38051" lon="-14.08793">
        <ele>364.8</ele>
        <time>2021-07-05 11:29:51</time>
      </trkpt>
      <trkpt lat="28.38048" lon="-14.08792">
        <ele>365</ele>
        <time>2021-07-05 11:29:52</time>
      </trkpt>
      <trkpt lat="28.38046" lon="-14.0879">
        <ele>365.4</ele>
        <time>2021-07-05 11:29:53</time>
      </trkpt>
      <trkpt lat="28.38043" lon="-14.08789">
        <ele>365.4</ele>
        <time>2021-07-05 11:29:54</time>
      </trkpt>
      <trkpt lat="28.38041" lon="-14.08787">
        <ele>365.6</ele>
        <time>2021-07-05 11:29:55</time>
      </trkpt>
      <trkpt lat="28.38038" lon="-14.08785">
        <ele>365.6</ele>
        <time>2021-07-05 11:29:56</time>
      </trkpt>
      <trkpt lat="28.38036" lon="-14.08783">
        <ele>366</ele>
        <time>2021-07-05 11:29:57</time>
      </trkpt>
      <trkpt lat="28.38034" lon="-14.08781">
        <ele>366</ele>
        <time>2021-07-05 11:29:58</time>
      </trkpt>
      <trkpt lat="28.38031" lon="-14.0878">
        <ele>366.2</ele>
        <time>2021-07-05 11:29:59</time>
      </trkpt>
      <trkpt lat="28.38029" lon="-14.08778">
        <ele>366.4</ele>
        <time>2021-07-05 11:30:00</time>
      </trkpt>
      <trkpt lat="28.38027" lon="-14.08777">
        <ele>366.6</ele>
        <time>2021-07-05 11:30:01</time>
      </trkpt>
      <trkpt lat="28.38024" lon="-14.08775">
        <ele>366.6</ele>
        <time>2021-07-05 11:30:02</time>
      </trkpt>
      <trkpt lat="28.38022" lon="-14.08773">
        <ele>367</ele>
        <time>2021-07-05 11:30:03</time>
      </trkpt>
      <trkpt lat="28.3802" lon="-14.08771">
        <ele>367</ele>
        <time>2021-07-05 11:30:04</time>
      </trkpt>
      <trkpt lat="28.38018" lon="-14.08769">
        <ele>367.4</ele>
        <time>2021-07-05 11:30:05</time>
      </trkpt>
      <trkpt lat="28.38016" lon="-14.08767">
        <ele>367.8</ele>
        <time>2021-07-05 11:30:06</time>
      </trkpt>
      <trkpt lat="28.38014" lon="-14.08766">
        <ele>367.8</ele>
        <time>2021-07-05 11:30:07</time>
      </trkpt>
      <trkpt lat="28.38011" lon="-14.08764">
        <ele>368</ele>
        <time>2021-07-05 11:30:08</time>
      </trkpt>
      <trkpt lat="28.38009" lon="-14.08762">
        <ele>368</ele>
        <time>2021-07-05 11:30:09</time>
      </trkpt>
      <trkpt lat="28.38007" lon="-14.0876">
        <ele>368.4</ele>
        <time>2021-07-05 11:30:10</time>
      </trkpt>
      <trkpt lat="28.38004" lon="-14.08758">
        <ele>368.6</ele>
        <time>2021-07-05 11:30:11</time>
      </trkpt>
      <trkpt lat="28.38001" lon="-14.08756">
        <ele>368.8</ele>
        <time>2021-07-05 11:30:12</time>
      </trkpt>
      <trkpt lat="28.37999" lon="-14.08754">
        <ele>368.8</ele>
        <time>2021-07-05 11:30:13</time>
      </trkpt>
      <trkpt lat="28.37997" lon="-14.08752">
        <ele>369.2</ele>
        <time>2021-07-05 11:30:14</time>
      </trkpt>
      <trkpt lat="28.37995" lon="-14.0875">
        <ele>369.6</ele>
        <time>2021-07-05 11:30:15</time>
      </trkpt>
      <trkpt lat="28.37993" lon="-14.08748">
        <ele>369.6</ele>
        <time>2021-07-05 11:30:16</time>
      </trkpt>
      <trkpt lat="28.37991" lon="-14.08747">
        <ele>369.8</ele>
        <time>2021-07-05 11:30:17</time>
      </trkpt>
      <trkpt lat="28.37989" lon="-14.08745">
        <ele>369.8</ele>
        <time>2021-07-05 11:30:18</time>
      </trkpt>
      <trkpt lat="28.37987" lon="-14.08743">
        <ele>369.8</ele>
        <time>2021-07-05 11:30:19</time>
      </trkpt>
      <trkpt lat="28.37985" lon="-14.08742">
        <ele>370</ele>
        <time>2021-07-05 11:30:20</time>
      </trkpt>
      <trkpt lat="28.37983" lon="-14.0874">
        <ele>370</ele>
        <time>2021-07-05 11:30:21</time>
      </trkpt>
      <trkpt lat="28.37981" lon="-14.08738">
        <ele>370</ele>
        <time>2021-07-05 11:30:22</time>
      </trkpt>
      <trkpt lat="28.37979" lon="-14.08736">
        <ele>370.4</ele>
        <time>2021-07-05 11:30:23</time>
      </trkpt>
      <trkpt lat="28.37977" lon="-14.08735">
        <ele>370.4</ele>
        <time>2021-07-05 11:30:24</time>
      </trkpt>
      <trkpt lat="28.37975" lon="-14.08733">
        <ele>370.4</ele>
        <time>2021-07-05 11:30:25</time>
      </trkpt>
      <trkpt lat="28.37973" lon="-14.08732">
        <ele>370.4</ele>
        <time>2021-07-05 11:30:26</time>
      </trkpt>
      <trkpt lat="28.3797" lon="-14.08731">
        <ele>370.6</ele>
        <time>2021-07-05 11:30:27</time>
      </trkpt>
      <trkpt lat="28.37968" lon="-14.0873">
        <ele>370.6</ele>
        <time>2021-07-05 11:30:28</time>
      </trkpt>
      <trkpt lat="28.37966" lon="-14.08728">
        <ele>370.8</ele>
        <time>2021-07-05 11:30:29</time>
      </trkpt>
      <trkpt lat="28.37964" lon="-14.08727">
        <ele>371</ele>
        <time>2021-07-05 11:30:30</time>
      </trkpt>
      <trkpt lat="28.37962" lon="-14.08726">
        <ele>371</ele>
        <time>2021-07-05 11:30:31</time>
      </trkpt>
      <trkpt lat="28.3796" lon="-14.08725">
        <ele>371</ele>
        <time>2021-07-05 11:30:32</time>
      </trkpt>
      <trkpt lat="28.37958" lon="-14.08724">
        <ele>371.4</ele>
        <time>2021-07-05 11:30:33</time>
      </trkpt>
      <trkpt lat="28.37956" lon="-14.08723">
        <ele>371.4</ele>
        <time>2021-07-05 11:30:34</time>
      </trkpt>
      <trkpt lat="28.37954" lon="-14.08723">
        <ele>372</ele>
        <time>2021-07-05 11:30:35</time>
      </trkpt>
      <trkpt lat="28.37951" lon="-14.08723">
        <ele>372</ele>
        <time>2021-07-05 11:30:36</time>
      </trkpt>
      <trkpt lat="28.37949" lon="-14.08724">
        <ele>372.4</ele>
        <time>2021-07-05 11:30:37</time>
      </trkpt>
      <trkpt lat="28.37947" lon="-14.08725">
        <ele>372.6</ele>
        <time>2021-07-05 11:30:38</time>
      </trkpt>
      <trkpt lat="28.37945" lon="-14.08726">
        <ele>372.8</ele>
        <time>2021-07-05 11:30:39</time>
      </trkpt>
      <trkpt lat="28.37943" lon="-14.08728">
        <ele>373</ele>
        <time>2021-07-05 11:30:40</time>
      </trkpt>
      <trkpt lat="28.37941" lon="-14.0873">
        <ele>373.4</ele>
        <time>2021-07-05 11:30:41</time>
      </trkpt>
      <trkpt lat="28.3794" lon="-14.08733">
        <ele>373.6</ele>
        <time>2021-07-05 11:30:42</time>
      </trkpt>
      <trkpt lat="28.37939" lon="-14.08735">
        <ele>373.6</ele>
        <time>2021-07-05 11:30:43</time>
      </trkpt>
      <trkpt lat="28.37938" lon="-14.08738">
        <ele>373.6</ele>
        <time>2021-07-05 11:30:44</time>
      </trkpt>
      <trkpt lat="28.37937" lon="-14.08742">
        <ele>374</ele>
        <time>2021-07-05 11:30:45</time>
      </trkpt>
      <trkpt lat="28.37936" lon="-14.08745">
        <ele>374</ele>
        <time>2021-07-05 11:30:46</time>
      </trkpt>
      <trkpt lat="28.37936" lon="-14.08748">
        <ele>374.4</ele>
        <time>2021-07-05 11:30:47</time>
      </trkpt>
      <trkpt lat="28.37935" lon="-14.08751">
        <ele>374.6</ele>
        <time>2021-07-05 11:30:48</time>
      </trkpt>
      <trkpt lat="28.37934" lon="-14.08754">
        <ele>374.8</ele>
        <time>2021-07-05 11:30:49</time>
      </trkpt>
      <trkpt lat="28.37933" lon="-14.08757">
        <ele>374.8</ele>
        <time>2021-07-05 11:30:50</time>
      </trkpt>
      <trkpt lat="28.37933" lon="-14.0876">
        <ele>374.8</ele>
        <time>2021-07-05 11:30:51</time>
      </trkpt>
      <trkpt lat="28.37932" lon="-14.08763">
        <ele>375.2</ele>
        <time>2021-07-05 11:30:52</time>
      </trkpt>
      <trkpt lat="28.37931" lon="-14.08766">
        <ele>375.4</ele>
        <time>2021-07-05 11:30:53</time>
      </trkpt>
      <trkpt lat="28.3793" lon="-14.08768">
        <ele>375.6</ele>
        <time>2021-07-05 11:30:54</time>
      </trkpt>
      <trkpt lat="28.37929" lon="-14.08771">
        <ele>375.6</ele>
        <time>2021-07-05 11:30:55</time>
      </trkpt>
      <trkpt lat="28.37928" lon="-14.08774">
        <ele>376</ele>
        <time>2021-07-05 11:30:56</time>
      </trkpt>
      <trkpt lat="28.37927" lon="-14.08777">
        <ele>376</ele>
        <time>2021-07-05 11:30:57</time>
      </trkpt>
      <trkpt lat="28.37926" lon="-14.0878">
        <ele>376</ele>
        <time>2021-07-05 11:30:58</time>
      </trkpt>
      <trkpt lat="28.37925" lon="-14.08783">
        <ele>376.6</ele>
        <time>2021-07-05 11:30:59</time>
      </trkpt>
      <trkpt lat="28.37925" lon="-14.08786">
        <ele>376.6</ele>
        <time>2021-07-05 11:31:00</time>
      </trkpt>
      <trkpt lat="28.37924" lon="-14.08789">
        <ele>376.6</ele>
        <time>2021-07-05 11:31:01</time>
      </trkpt>
      <trkpt lat="28.37923" lon="-14.08792">
        <ele>376.8</ele>
        <time>2021-07-05 11:31:02</time>
      </trkpt>
      <trkpt lat="28.37923" lon="-14.08796">
        <ele>376.8</ele>
        <time>2021-07-05 11:31:03</time>
      </trkpt>
      <trkpt lat="28.37922" lon="-14.08799">
        <ele>377.2</ele>
        <time>2021-07-05 11:31:04</time>
      </trkpt>
      <trkpt lat="28.37921" lon="-14.08802">
        <ele>377.2</ele>
        <time>2021-07-05 11:31:05</time>
      </trkpt>
      <trkpt lat="28.3792" lon="-14.08805">
        <ele>377.6</ele>
        <time>2021-07-05 11:31:06</time>
      </trkpt>
      <trkpt lat="28.37919" lon="-14.08808">
        <ele>377.6</ele>
        <time>2021-07-05 11:31:07</time>
      </trkpt>
      <trkpt lat="28.37918" lon="-14.08811">
        <ele>377.8</ele>
        <time>2021-07-05 11:31:08</time>
      </trkpt>
      <trkpt lat="28.37916" lon="-14.08814">
        <ele>377.8</ele>
        <time>2021-07-05 11:31:09</time>
      </trkpt>
      <trkpt lat="28.37915" lon="-14.08816">
        <ele>378</ele>
        <time>2021-07-05 11:31:10</time>
      </trkpt>
      <trkpt lat="28.37913" lon="-14.08819">
        <ele>378</ele>
        <time>2021-07-05 11:31:11</time>
      </trkpt>
      <trkpt lat="28.37911" lon="-14.08821">
        <ele>378</ele>
        <time>2021-07-05 11:31:12</time>
      </trkpt>
      <trkpt lat="28.37908" lon="-14.08823">
        <ele>378</ele>
        <time>2021-07-05 11:31:13</time>
      </trkpt>
      <trkpt lat="28.37906" lon="-14.08824">
        <ele>378.4</ele>
        <time>2021-07-05 11:31:14</time>
      </trkpt>
      <trkpt lat="28.37903" lon="-14.08826">
        <ele>378.4</ele>
        <time>2021-07-05 11:31:15</time>
      </trkpt>
      <trkpt lat="28.379" lon="-14.08827">
        <ele>378.4</ele>
        <time>2021-07-05 11:31:16</time>
      </trkpt>
      <trkpt lat="28.37898" lon="-14.08828">
        <ele>378.4</ele>
        <time>2021-07-05 11:31:17</time>
      </trkpt>
      <trkpt lat="28.37895" lon="-14.0883">
        <ele>378.6</ele>
        <time>2021-07-05 11:31:18</time>
      </trkpt>
      <trkpt lat="28.37892" lon="-14.08831">
        <ele>378.6</ele>
        <time>2021-07-05 11:31:19</time>
      </trkpt>
      <trkpt lat="28.3789" lon="-14.08833">
        <ele>378.6</ele>
        <time>2021-07-05 11:31:20</time>
      </trkpt>
      <trkpt lat="28.37888" lon="-14.08836">
        <ele>378.6</ele>
        <time>2021-07-05 11:31:21</time>
      </trkpt>
      <trkpt lat="28.37887" lon="-14.08839">
        <ele>378.6</ele>
        <time>2021-07-05 11:31:22</time>
      </trkpt>
      <trkpt lat="28.37886" lon="-14.0884">
        <ele>378.8</ele>
        <time>2021-07-05 11:31:23</time>
      </trkpt>
      <trkpt lat="28.37886" lon="-14.08841">
        <ele>378.8</ele>
        <time>2021-07-05 11:31:24</time>
      </trkpt>
      <trkpt lat="28.37887" lon="-14.08841">
        <ele>378.8</ele>
        <time>2021-07-05 11:31:25</time>
      </trkpt>
      <trkpt lat="28.37887" lon="-14.08841">
        <ele>379.6</ele>
        <time>2021-07-05 11:31:26</time>
      </trkpt>
      <trkpt lat="28.37887" lon="-14.08842">
        <ele>379.4</ele>
        <time>2021-07-05 11:32:23</time>
      </trkpt>
      <trkpt lat="28.37886" lon="-14.08844">
        <ele>379.4</ele>
        <time>2021-07-05 11:32:24</time>
      </trkpt>
      <trkpt lat="28.37885" lon="-14.08846">
        <ele>379.4</ele>
        <time>2021-07-05 11:32:25</time>
      </trkpt>
      <trkpt lat="28.37885" lon="-14.08849">
        <ele>379</ele>
        <time>2021-07-05 11:32:26</time>
      </trkpt>
      <trkpt lat="28.37885" lon="-14.08853">
        <ele>379</ele>
        <time>2021-07-05 11:32:27</time>
      </trkpt>
      <trkpt lat="28.37886" lon="-14.08856">
        <ele>379</ele>
        <time>2021-07-05 11:32:28</time>
      </trkpt>
      <trkpt lat="28.37887" lon="-14.08859">
        <ele>379.4</ele>
        <time>2021-07-05 11:32:29</time>
      </trkpt>
      <trkpt lat="28.37887" lon="-14.08863">
        <ele>379.4</ele>
        <time>2021-07-05 11:32:30</time>
      </trkpt>
      <trkpt lat="28.37888" lon="-14.08866">
        <ele>379.6</ele>
        <time>2021-07-05 11:32:31</time>
      </trkpt>
      <trkpt lat="28.37888" lon="-14.08869">
        <ele>380</ele>
        <time>2021-07-05 11:32:32</time>
      </trkpt>
      <trkpt lat="28.37889" lon="-14.08873">
        <ele>380</ele>
        <time>2021-07-05 11:32:33</time>
      </trkpt>
      <trkpt lat="28.37889" lon="-14.08876">
        <ele>380.4</ele>
        <time>2021-07-05 11:32:34</time>
      </trkpt>
      <trkpt lat="28.3789" lon="-14.0888">
        <ele>380.6</ele>
        <time>2021-07-05 11:32:35</time>
      </trkpt>
      <trkpt lat="28.37891" lon="-14.08883">
        <ele>381</ele>
        <time>2021-07-05 11:32:36</time>
      </trkpt>
      <trkpt lat="28.37891" lon="-14.08886">
        <ele>381</ele>
        <time>2021-07-05 11:32:37</time>
      </trkpt>
      <trkpt lat="28.37892" lon="-14.0889">
        <ele>381.2</ele>
        <time>2021-07-05 11:32:38</time>
      </trkpt>
      <trkpt lat="28.37893" lon="-14.08893">
        <ele>381.2</ele>
        <time>2021-07-05 11:32:39</time>
      </trkpt>
      <trkpt lat="28.37894" lon="-14.08897">
        <ele>381.6</ele>
        <time>2021-07-05 11:32:40</time>
      </trkpt>
      <trkpt lat="28.37894" lon="-14.089">
        <ele>381.8</ele>
        <time>2021-07-05 11:32:41</time>
      </trkpt>
      <trkpt lat="28.37895" lon="-14.08903">
        <ele>382.2</ele>
        <time>2021-07-05 11:32:42</time>
      </trkpt>
      <trkpt lat="28.37896" lon="-14.08906">
        <ele>382.2</ele>
        <time>2021-07-05 11:32:43</time>
      </trkpt>
      <trkpt lat="28.37896" lon="-14.08909">
        <ele>382.6</ele>
        <time>2021-07-05 11:32:44</time>
      </trkpt>
      <trkpt lat="28.37896" lon="-14.08912">
        <ele>382.8</ele>
        <time>2021-07-05 11:32:45</time>
      </trkpt>
      <trkpt lat="28.37895" lon="-14.08915">
        <ele>383</ele>
        <time>2021-07-05 11:32:46</time>
      </trkpt>
      <trkpt lat="28.37894" lon="-14.08918">
        <ele>383.4</ele>
        <time>2021-07-05 11:32:47</time>
      </trkpt>
      <trkpt lat="28.37893" lon="-14.08922">
        <ele>383.4</ele>
        <time>2021-07-05 11:32:48</time>
      </trkpt>
      <trkpt lat="28.37892" lon="-14.08925">
        <ele>383.8</ele>
        <time>2021-07-05 11:32:49</time>
      </trkpt>
      <trkpt lat="28.37891" lon="-14.08928">
        <ele>383.8</ele>
        <time>2021-07-05 11:32:50</time>
      </trkpt>
      <trkpt lat="28.37889" lon="-14.08932">
        <ele>383.8</ele>
        <time>2021-07-05 11:32:51</time>
      </trkpt>
      <trkpt lat="28.37888" lon="-14.08935">
        <ele>383.8</ele>
        <time>2021-07-05 11:32:52</time>
      </trkpt>
      <trkpt lat="28.37887" lon="-14.08938">
        <ele>384.2</ele>
        <time>2021-07-05 11:32:53</time>
      </trkpt>
      <trkpt lat="28.37886" lon="-14.08941">
        <ele>384.6</ele>
        <time>2021-07-05 11:32:54</time>
      </trkpt>
      <trkpt lat="28.37885" lon="-14.08945">
        <ele>384.6</ele>
        <time>2021-07-05 11:32:55</time>
      </trkpt>
      <trkpt lat="28.37885" lon="-14.08948">
        <ele>384.8</ele>
        <time>2021-07-05 11:32:56</time>
      </trkpt>
      <trkpt lat="28.37885" lon="-14.08951">
        <ele>385.2</ele>
        <time>2021-07-05 11:32:57</time>
      </trkpt>
      <trkpt lat="28.37885" lon="-14.08954">
        <ele>385.2</ele>
        <time>2021-07-05 11:32:58</time>
      </trkpt>
      <trkpt lat="28.37884" lon="-14.08958">
        <ele>385.2</ele>
        <time>2021-07-05 11:32:59</time>
      </trkpt>
      <trkpt lat="28.37884" lon="-14.08961">
        <ele>385.6</ele>
        <time>2021-07-05 11:33:00</time>
      </trkpt>
      <trkpt lat="28.37884" lon="-14.08965">
        <ele>385.6</ele>
        <time>2021-07-05 11:33:01</time>
      </trkpt>
      <trkpt lat="28.37884" lon="-14.08968">
        <ele>385.8</ele>
        <time>2021-07-05 11:33:02</time>
      </trkpt>
      <trkpt lat="28.37883" lon="-14.08971">
        <ele>385.8</ele>
        <time>2021-07-05 11:33:03</time>
      </trkpt>
      <trkpt lat="28.37882" lon="-14.08975">
        <ele>386.2</ele>
        <time>2021-07-05 11:33:04</time>
      </trkpt>
      <trkpt lat="28.37882" lon="-14.08978">
        <ele>386.4</ele>
        <time>2021-07-05 11:33:05</time>
      </trkpt>
      <trkpt lat="28.37882" lon="-14.08981">
        <ele>386.4</ele>
        <time>2021-07-05 11:33:06</time>
      </trkpt>
      <trkpt lat="28.37882" lon="-14.08985">
        <ele>386.4</ele>
        <time>2021-07-05 11:33:07</time>
      </trkpt>
      <trkpt lat="28.37882" lon="-14.08988">
        <ele>386.8</ele>
        <time>2021-07-05 11:33:08</time>
      </trkpt>
      <trkpt lat="28.37883" lon="-14.08991">
        <ele>386.8</ele>
        <time>2021-07-05 11:33:09</time>
      </trkpt>
      <trkpt lat="28.37884" lon="-14.08995">
        <ele>387</ele>
        <time>2021-07-05 11:33:10</time>
      </trkpt>
      <trkpt lat="28.37885" lon="-14.08998">
        <ele>387.2</ele>
        <time>2021-07-05 11:33:11</time>
      </trkpt>
      <trkpt lat="28.37886" lon="-14.09001">
        <ele>387.2</ele>
        <time>2021-07-05 11:33:12</time>
      </trkpt>
      <trkpt lat="28.37887" lon="-14.09005">
        <ele>387.2</ele>
        <time>2021-07-05 11:33:13</time>
      </trkpt>
      <trkpt lat="28.37889" lon="-14.09008">
        <ele>387.4</ele>
        <time>2021-07-05 11:33:14</time>
      </trkpt>
      <trkpt lat="28.37891" lon="-14.09011">
        <ele>387.4</ele>
        <time>2021-07-05 11:33:15</time>
      </trkpt>
      <trkpt lat="28.37892" lon="-14.09014">
        <ele>387.4</ele>
        <time>2021-07-05 11:33:16</time>
      </trkpt>
      <trkpt lat="28.37895" lon="-14.09017">
        <ele>387.4</ele>
        <time>2021-07-05 11:33:17</time>
      </trkpt>
      <trkpt lat="28.37897" lon="-14.09019">
        <ele>387.8</ele>
        <time>2021-07-05 11:33:18</time>
      </trkpt>
      <trkpt lat="28.37899" lon="-14.09022">
        <ele>387.8</ele>
        <time>2021-07-05 11:33:19</time>
      </trkpt>
      <trkpt lat="28.379" lon="-14.09025">
        <ele>388</ele>
        <time>2021-07-05 11:33:20</time>
      </trkpt>
      <trkpt lat="28.37902" lon="-14.09028">
        <ele>388</ele>
        <time>2021-07-05 11:33:21</time>
      </trkpt>
      <trkpt lat="28.37903" lon="-14.0903">
        <ele>388.4</ele>
        <time>2021-07-05 11:33:22</time>
      </trkpt>
      <trkpt lat="28.37905" lon="-14.09033">
        <ele>388.6</ele>
        <time>2021-07-05 11:33:23</time>
      </trkpt>
      <trkpt lat="28.37906" lon="-14.09036">
        <ele>388.6</ele>
        <time>2021-07-05 11:33:24</time>
      </trkpt>
      <trkpt lat="28.37907" lon="-14.09039">
        <ele>388.6</ele>
        <time>2021-07-05 11:33:25</time>
      </trkpt>
      <trkpt lat="28.37907" lon="-14.09043">
        <ele>389</ele>
        <time>2021-07-05 11:33:26</time>
      </trkpt>
      <trkpt lat="28.37907" lon="-14.09046">
        <ele>389.2</ele>
        <time>2021-07-05 11:33:27</time>
      </trkpt>
      <trkpt lat="28.37907" lon="-14.0905">
        <ele>389.6</ele>
        <time>2021-07-05 11:33:28</time>
      </trkpt>
      <trkpt lat="28.37906" lon="-14.09053">
        <ele>389.8</ele>
        <time>2021-07-05 11:33:29</time>
      </trkpt>
      <trkpt lat="28.37905" lon="-14.09056">
        <ele>390</ele>
        <time>2021-07-05 11:33:30</time>
      </trkpt>
      <trkpt lat="28.37904" lon="-14.09059">
        <ele>390.2</ele>
        <time>2021-07-05 11:33:31</time>
      </trkpt>
      <trkpt lat="28.37903" lon="-14.09062">
        <ele>390.2</ele>
        <time>2021-07-05 11:33:32</time>
      </trkpt>
      <trkpt lat="28.37902" lon="-14.09066">
        <ele>390.6</ele>
        <time>2021-07-05 11:33:33</time>
      </trkpt>
      <trkpt lat="28.37901" lon="-14.09069">
        <ele>391</ele>
        <time>2021-07-05 11:33:34</time>
      </trkpt>
      <trkpt lat="28.37899" lon="-14.09072">
        <ele>391.2</ele>
        <time>2021-07-05 11:33:35</time>
      </trkpt>
      <trkpt lat="28.37898" lon="-14.09075">
        <ele>391.6</ele>
        <time>2021-07-05 11:33:36</time>
      </trkpt>
      <trkpt lat="28.37897" lon="-14.09077">
        <ele>392</ele>
        <time>2021-07-05 11:33:37</time>
      </trkpt>
      <trkpt lat="28.37896" lon="-14.0908">
        <ele>392</ele>
        <time>2021-07-05 11:33:38</time>
      </trkpt>
      <trkpt lat="28.37895" lon="-14.09083">
        <ele>392.2</ele>
        <time>2021-07-05 11:33:39</time>
      </trkpt>
      <trkpt lat="28.37894" lon="-14.09086">
        <ele>392.6</ele>
        <time>2021-07-05 11:33:40</time>
      </trkpt>
      <trkpt lat="28.37893" lon="-14.09089">
        <ele>392.8</ele>
        <time>2021-07-05 11:33:41</time>
      </trkpt>
      <trkpt lat="28.37892" lon="-14.09092">
        <ele>393.2</ele>
        <time>2021-07-05 11:33:42</time>
      </trkpt>
      <trkpt lat="28.37891" lon="-14.09096">
        <ele>393.2</ele>
        <time>2021-07-05 11:33:43</time>
      </trkpt>
      <trkpt lat="28.3789" lon="-14.09099">
        <ele>393.2</ele>
        <time>2021-07-05 11:33:44</time>
      </trkpt>
      <trkpt lat="28.37889" lon="-14.09102">
        <ele>393.4</ele>
        <time>2021-07-05 11:33:45</time>
      </trkpt>
      <trkpt lat="28.37889" lon="-14.09105">
        <ele>393.4</ele>
        <time>2021-07-05 11:33:46</time>
      </trkpt>
      <trkpt lat="28.37889" lon="-14.09108">
        <ele>393.6</ele>
        <time>2021-07-05 11:33:47</time>
      </trkpt>
      <trkpt lat="28.37889" lon="-14.09111">
        <ele>394</ele>
        <time>2021-07-05 11:33:48</time>
      </trkpt>
      <trkpt lat="28.37889" lon="-14.09115">
        <ele>394</ele>
        <time>2021-07-05 11:33:49</time>
      </trkpt>
      <trkpt lat="28.3789" lon="-14.09118">
        <ele>394</ele>
        <time>2021-07-05 11:33:50</time>
      </trkpt>
      <trkpt lat="28.37891" lon="-14.09121">
        <ele>394.4</ele>
        <time>2021-07-05 11:33:51</time>
      </trkpt>
      <trkpt lat="28.37892" lon="-14.09124">
        <ele>394.4</ele>
        <time>2021-07-05 11:33:52</time>
      </trkpt>
      <trkpt lat="28.37893" lon="-14.09128">
        <ele>394.4</ele>
        <time>2021-07-05 11:33:53</time>
      </trkpt>
      <trkpt lat="28.37894" lon="-14.09131">
        <ele>394.4</ele>
        <time>2021-07-05 11:33:54</time>
      </trkpt>
      <trkpt lat="28.37895" lon="-14.09134">
        <ele>394.4</ele>
        <time>2021-07-05 11:33:55</time>
      </trkpt>
      <trkpt lat="28.37895" lon="-14.09138">
        <ele>394.4</ele>
        <time>2021-07-05 11:33:56</time>
      </trkpt>
      <trkpt lat="28.37896" lon="-14.09141">
        <ele>394.4</ele>
        <time>2021-07-05 11:33:57</time>
      </trkpt>
      <trkpt lat="28.37896" lon="-14.09145">
        <ele>394.6</ele>
        <time>2021-07-05 11:33:58</time>
      </trkpt>
      <trkpt lat="28.37897" lon="-14.09148">
        <ele>394.6</ele>
        <time>2021-07-05 11:33:59</time>
      </trkpt>
      <trkpt lat="28.37897" lon="-14.09152">
        <ele>394.6</ele>
        <time>2021-07-05 11:34:00</time>
      </trkpt>
      <trkpt lat="28.37897" lon="-14.09155">
        <ele>394.8</ele>
        <time>2021-07-05 11:34:01</time>
      </trkpt>
      <trkpt lat="28.37897" lon="-14.09159">
        <ele>394.8</ele>
        <time>2021-07-05 11:34:02</time>
      </trkpt>
      <trkpt lat="28.37896" lon="-14.09162">
        <ele>394.8</ele>
        <time>2021-07-05 11:34:03</time>
      </trkpt>
      <trkpt lat="28.37896" lon="-14.09165">
        <ele>395.2</ele>
        <time>2021-07-05 11:34:04</time>
      </trkpt>
      <trkpt lat="28.37897" lon="-14.09168">
        <ele>395.2</ele>
        <time>2021-07-05 11:34:05</time>
      </trkpt>
      <trkpt lat="28.37897" lon="-14.09172">
        <ele>395.4</ele>
        <time>2021-07-05 11:34:06</time>
      </trkpt>
      <trkpt lat="28.37898" lon="-14.09175">
        <ele>395.4</ele>
        <time>2021-07-05 11:34:07</time>
      </trkpt>
      <trkpt lat="28.37898" lon="-14.09179">
        <ele>395.8</ele>
        <time>2021-07-05 11:34:08</time>
      </trkpt>
      <trkpt lat="28.37898" lon="-14.09182">
        <ele>395.8</ele>
        <time>2021-07-05 11:34:09</time>
      </trkpt>
      <trkpt lat="28.37898" lon="-14.09185">
        <ele>396</ele>
        <time>2021-07-05 11:34:10</time>
      </trkpt>
      <trkpt lat="28.37898" lon="-14.09188">
        <ele>396</ele>
        <time>2021-07-05 11:34:11</time>
      </trkpt>
      <trkpt lat="28.37898" lon="-14.09191">
        <ele>396.4</ele>
        <time>2021-07-05 11:34:12</time>
      </trkpt>
      <trkpt lat="28.37898" lon="-14.09195">
        <ele>396.6</ele>
        <time>2021-07-05 11:34:13</time>
      </trkpt>
      <trkpt lat="28.37898" lon="-14.09198">
        <ele>396.8</ele>
        <time>2021-07-05 11:34:14</time>
      </trkpt>
      <trkpt lat="28.37898" lon="-14.09201">
        <ele>397</ele>
        <time>2021-07-05 11:34:15</time>
      </trkpt>
      <trkpt lat="28.37898" lon="-14.09204">
        <ele>397</ele>
        <time>2021-07-05 11:34:16</time>
      </trkpt>
      <trkpt lat="28.37897" lon="-14.09207">
        <ele>397.4</ele>
        <time>2021-07-05 11:34:17</time>
      </trkpt>
      <trkpt lat="28.37897" lon="-14.0921">
        <ele>397.8</ele>
        <time>2021-07-05 11:34:18</time>
      </trkpt>
      <trkpt lat="28.37898" lon="-14.09214">
        <ele>397.8</ele>
        <time>2021-07-05 11:34:19</time>
      </trkpt>
      <trkpt lat="28.37898" lon="-14.09217">
        <ele>397.8</ele>
        <time>2021-07-05 11:34:20</time>
      </trkpt>
      <trkpt lat="28.37898" lon="-14.0922">
        <ele>398.2</ele>
        <time>2021-07-05 11:34:21</time>
      </trkpt>
      <trkpt lat="28.37898" lon="-14.09223">
        <ele>398.4</ele>
        <time>2021-07-05 11:34:22</time>
      </trkpt>
      <trkpt lat="28.37898" lon="-14.09227">
        <ele>398.4</ele>
        <time>2021-07-05 11:34:23</time>
      </trkpt>
      <trkpt lat="28.37898" lon="-14.0923">
        <ele>398.8</ele>
        <time>2021-07-05 11:34:24</time>
      </trkpt>
      <trkpt lat="28.37898" lon="-14.09233">
        <ele>399</ele>
        <time>2021-07-05 11:34:25</time>
      </trkpt>
      <trkpt lat="28.37898" lon="-14.09236">
        <ele>399</ele>
        <time>2021-07-05 11:34:26</time>
      </trkpt>
      <trkpt lat="28.37898" lon="-14.09239">
        <ele>399.4</ele>
        <time>2021-07-05 11:34:27</time>
      </trkpt>
      <trkpt lat="28.37898" lon="-14.09242">
        <ele>399.6</ele>
        <time>2021-07-05 11:34:28</time>
      </trkpt>
      <trkpt lat="28.37899" lon="-14.09246">
        <ele>399.6</ele>
        <time>2021-07-05 11:34:29</time>
      </trkpt>
      <trkpt lat="28.37899" lon="-14.09249">
        <ele>399.6</ele>
        <time>2021-07-05 11:34:30</time>
      </trkpt>
      <trkpt lat="28.379" lon="-14.09252">
        <ele>400</ele>
        <time>2021-07-05 11:34:31</time>
      </trkpt>
      <trkpt lat="28.379" lon="-14.09255">
        <ele>400</ele>
        <time>2021-07-05 11:34:32</time>
      </trkpt>
      <trkpt lat="28.37901" lon="-14.09259">
        <ele>400.2</ele>
        <time>2021-07-05 11:34:33</time>
      </trkpt>
      <trkpt lat="28.37902" lon="-14.09262">
        <ele>400.4</ele>
        <time>2021-07-05 11:34:34</time>
      </trkpt>
      <trkpt lat="28.37903" lon="-14.09265">
        <ele>400.4</ele>
        <time>2021-07-05 11:34:35</time>
      </trkpt>
      <trkpt lat="28.37904" lon="-14.09268">
        <ele>400.8</ele>
        <time>2021-07-05 11:34:36</time>
      </trkpt>
      <trkpt lat="28.37906" lon="-14.09271">
        <ele>400.8</ele>
        <time>2021-07-05 11:34:37</time>
      </trkpt>
      <trkpt lat="28.37907" lon="-14.09274">
        <ele>401</ele>
        <time>2021-07-05 11:34:38</time>
      </trkpt>
      <trkpt lat="28.37908" lon="-14.09277">
        <ele>401</ele>
        <time>2021-07-05 11:34:39</time>
      </trkpt>
      <trkpt lat="28.3791" lon="-14.0928">
        <ele>401.6</ele>
        <time>2021-07-05 11:34:40</time>
      </trkpt>
      <trkpt lat="28.37911" lon="-14.09283">
        <ele>401.6</ele>
        <time>2021-07-05 11:34:41</time>
      </trkpt>
      <trkpt lat="28.37913" lon="-14.09287">
        <ele>401.6</ele>
        <time>2021-07-05 11:34:42</time>
      </trkpt>
      <trkpt lat="28.37914" lon="-14.0929">
        <ele>402.2</ele>
        <time>2021-07-05 11:34:43</time>
      </trkpt>
      <trkpt lat="28.37915" lon="-14.09293">
        <ele>402.2</ele>
        <time>2021-07-05 11:34:44</time>
      </trkpt>
      <trkpt lat="28.37916" lon="-14.09296">
        <ele>402.6</ele>
        <time>2021-07-05 11:34:45</time>
      </trkpt>
      <trkpt lat="28.37917" lon="-14.093">
        <ele>402.8</ele>
        <time>2021-07-05 11:34:46</time>
      </trkpt>
      <trkpt lat="28.37917" lon="-14.09302">
        <ele>403.2</ele>
        <time>2021-07-05 11:34:47</time>
      </trkpt>
      <trkpt lat="28.37917" lon="-14.09304">
        <ele>403.4</ele>
        <time>2021-07-05 11:34:48</time>
      </trkpt>
      <trkpt lat="28.37918" lon="-14.09306">
        <ele>403.6</ele>
        <time>2021-07-05 11:34:49</time>
      </trkpt>
      <trkpt lat="28.37918" lon="-14.09308">
        <ele>404</ele>
        <time>2021-07-05 11:34:50</time>
      </trkpt>
      <trkpt lat="28.37917" lon="-14.09311">
        <ele>404.2</ele>
        <time>2021-07-05 11:34:51</time>
      </trkpt>
      <trkpt lat="28.37917" lon="-14.09313">
        <ele>404.6</ele>
        <time>2021-07-05 11:34:52</time>
      </trkpt>
      <trkpt lat="28.37917" lon="-14.09315">
        <ele>404.8</ele>
        <time>2021-07-05 11:34:53</time>
      </trkpt>
      <trkpt lat="28.37916" lon="-14.09317">
        <ele>405</ele>
        <time>2021-07-05 11:34:54</time>
      </trkpt>
      <trkpt lat="28.37916" lon="-14.09319">
        <ele>405</ele>
        <time>2021-07-05 11:34:55</time>
      </trkpt>
      <trkpt lat="28.37915" lon="-14.09321">
        <ele>405.2</ele>
        <time>2021-07-05 11:34:56</time>
      </trkpt>
      <trkpt lat="28.37915" lon="-14.09323">
        <ele>405.2</ele>
        <time>2021-07-05 11:34:57</time>
      </trkpt>
      <trkpt lat="28.37915" lon="-14.09324">
        <ele>405.2</ele>
        <time>2021-07-05 11:34:58</time>
      </trkpt>
      <trkpt lat="28.37915" lon="-14.09326">
        <ele>405.2</ele>
        <time>2021-07-05 11:34:59</time>
      </trkpt>
      <trkpt lat="28.37915" lon="-14.09327">
        <ele>405.6</ele>
        <time>2021-07-05 11:35:00</time>
      </trkpt>
      <trkpt lat="28.37915" lon="-14.09328">
        <ele>405.6</ele>
        <time>2021-07-05 11:35:01</time>
      </trkpt>
      <trkpt lat="28.37915" lon="-14.09329">
        <ele>405.6</ele>
        <time>2021-07-05 11:35:02</time>
      </trkpt>
      <trkpt lat="28.37915" lon="-14.09329">
        <ele>405.6</ele>
        <time>2021-07-05 11:35:03</time>
      </trkpt>
      <trkpt lat="28.37915" lon="-14.09329">
        <ele>405.6</ele>
        <time>2021-07-05 11:35:04</time>
      </trkpt>
      <trkpt lat="28.37915" lon="-14.09329">
        <ele>405.6</ele>
        <time>2021-07-05 11:35:05</time>
      </trkpt>
      <trkpt lat="28.37915" lon="-14.09329">
        <ele>405.6</ele>
        <time>2021-07-05 11:35:06</time>
      </trkpt>
      <trkpt lat="28.37914" lon="-14.09332">
        <ele>405.4</ele>
        <time>2021-07-05 11:35:18</time>
      </trkpt>
      <trkpt lat="28.37914" lon="-14.09334">
        <ele>405.4</ele>
        <time>2021-07-05 11:35:19</time>
      </trkpt>
      <trkpt lat="28.37913" lon="-14.09337">
        <ele>405.4</ele>
        <time>2021-07-05 11:35:20</time>
      </trkpt>
      <trkpt lat="28.37913" lon="-14.09339">
        <ele>405.4</ele>
        <time>2021-07-05 11:35:21</time>
      </trkpt>
      <trkpt lat="28.37913" lon="-14.09342">
        <ele>405.4</ele>
        <time>2021-07-05 11:35:22</time>
      </trkpt>
      <trkpt lat="28.37913" lon="-14.09345">
        <ele>405.4</ele>
        <time>2021-07-05 11:35:23</time>
      </trkpt>
      <trkpt lat="28.37913" lon="-14.09345">
        <ele>405.6</ele>
        <time>2021-07-05 11:35:24</time>
      </trkpt>
      <trkpt lat="28.37914" lon="-14.09351">
        <ele>405.6</ele>
        <time>2021-07-05 11:35:25</time>
      </trkpt>
      <trkpt lat="28.37914" lon="-14.09355">
        <ele>406</ele>
        <time>2021-07-05 11:35:26</time>
      </trkpt>
      <trkpt lat="28.37915" lon="-14.09358">
        <ele>406.2</ele>
        <time>2021-07-05 11:35:27</time>
      </trkpt>
      <trkpt lat="28.37916" lon="-14.09361">
        <ele>406.2</ele>
        <time>2021-07-05 11:35:28</time>
      </trkpt>
      <trkpt lat="28.37916" lon="-14.09364">
        <ele>406.4</ele>
        <time>2021-07-05 11:35:29</time>
      </trkpt>
      <trkpt lat="28.37918" lon="-14.09367">
        <ele>406.4</ele>
        <time>2021-07-05 11:35:30</time>
      </trkpt>
      <trkpt lat="28.37919" lon="-14.09371">
        <ele>406.8</ele>
        <time>2021-07-05 11:35:31</time>
      </trkpt>
      <trkpt lat="28.3792" lon="-14.09374">
        <ele>407</ele>
        <time>2021-07-05 11:35:32</time>
      </trkpt>
      <trkpt lat="28.37921" lon="-14.09377">
        <ele>407</ele>
        <time>2021-07-05 11:35:33</time>
      </trkpt>
      <trkpt lat="28.37922" lon="-14.0938">
        <ele>407.4</ele>
        <time>2021-07-05 11:35:34</time>
      </trkpt>
      <trkpt lat="28.37924" lon="-14.09384">
        <ele>407.4</ele>
        <time>2021-07-05 11:35:35</time>
      </trkpt>
      <trkpt lat="28.37925" lon="-14.09387">
        <ele>407.4</ele>
        <time>2021-07-05 11:35:36</time>
      </trkpt>
      <trkpt lat="28.37926" lon="-14.0939">
        <ele>407.8</ele>
        <time>2021-07-05 11:35:37</time>
      </trkpt>
      <trkpt lat="28.37927" lon="-14.09394">
        <ele>408</ele>
        <time>2021-07-05 11:35:38</time>
      </trkpt>
      <trkpt lat="28.37928" lon="-14.09397">
        <ele>408</ele>
        <time>2021-07-05 11:35:39</time>
      </trkpt>
      <trkpt lat="28.37929" lon="-14.09401">
        <ele>408.4</ele>
        <time>2021-07-05 11:35:40</time>
      </trkpt>
      <trkpt lat="28.3793" lon="-14.09404">
        <ele>408.6</ele>
        <time>2021-07-05 11:35:41</time>
      </trkpt>
      <trkpt lat="28.37932" lon="-14.09407">
        <ele>408.6</ele>
        <time>2021-07-05 11:35:42</time>
      </trkpt>
      <trkpt lat="28.37933" lon="-14.09411">
        <ele>409.2</ele>
        <time>2021-07-05 11:35:43</time>
      </trkpt>
      <trkpt lat="28.37934" lon="-14.09414">
        <ele>409.2</ele>
        <time>2021-07-05 11:35:44</time>
      </trkpt>
      <trkpt lat="28.37935" lon="-14.09417">
        <ele>409.4</ele>
        <time>2021-07-05 11:35:45</time>
      </trkpt>
      <trkpt lat="28.37935" lon="-14.09421">
        <ele>409.6</ele>
        <time>2021-07-05 11:35:46</time>
      </trkpt>
      <trkpt lat="28.37936" lon="-14.09425">
        <ele>410</ele>
        <time>2021-07-05 11:35:47</time>
      </trkpt>
      <trkpt lat="28.37937" lon="-14.09428">
        <ele>410.4</ele>
        <time>2021-07-05 11:35:48</time>
      </trkpt>
      <trkpt lat="28.37937" lon="-14.09433">
        <ele>410.4</ele>
        <time>2021-07-05 11:35:49</time>
      </trkpt>
      <trkpt lat="28.37937" lon="-14.09437">
        <ele>410.8</ele>
        <time>2021-07-05 11:35:50</time>
      </trkpt>
      <trkpt lat="28.37937" lon="-14.09441">
        <ele>411</ele>
        <time>2021-07-05 11:35:51</time>
      </trkpt>
      <trkpt lat="28.37936" lon="-14.09446">
        <ele>411.2</ele>
        <time>2021-07-05 11:35:52</time>
      </trkpt>
      <trkpt lat="28.37936" lon="-14.0945">
        <ele>411.8</ele>
        <time>2021-07-05 11:35:53</time>
      </trkpt>
      <trkpt lat="28.37936" lon="-14.09453">
        <ele>411.8</ele>
        <time>2021-07-05 11:35:54</time>
      </trkpt>
      <trkpt lat="28.37935" lon="-14.09457">
        <ele>412</ele>
        <time>2021-07-05 11:35:55</time>
      </trkpt>
      <trkpt lat="28.37935" lon="-14.09461">
        <ele>412.2</ele>
        <time>2021-07-05 11:35:56</time>
      </trkpt>
      <trkpt lat="28.37935" lon="-14.09464">
        <ele>412.4</ele>
        <time>2021-07-05 11:35:57</time>
      </trkpt>
      <trkpt lat="28.37935" lon="-14.09468">
        <ele>412.8</ele>
        <time>2021-07-05 11:35:58</time>
      </trkpt>
      <trkpt lat="28.37936" lon="-14.0947">
        <ele>412.8</ele>
        <time>2021-07-05 11:35:59</time>
      </trkpt>
      <trkpt lat="28.37937" lon="-14.09473">
        <ele>412.8</ele>
        <time>2021-07-05 11:36:00</time>
      </trkpt>
      <trkpt lat="28.37938" lon="-14.09475">
        <ele>413</ele>
        <time>2021-07-05 11:36:01</time>
      </trkpt>
      <trkpt lat="28.3794" lon="-14.09477">
        <ele>413</ele>
        <time>2021-07-05 11:36:02</time>
      </trkpt>
      <trkpt lat="28.37942" lon="-14.0948">
        <ele>413</ele>
        <time>2021-07-05 11:36:03</time>
      </trkpt>
      <trkpt lat="28.37944" lon="-14.09482">
        <ele>413.2</ele>
        <time>2021-07-05 11:36:04</time>
      </trkpt>
      <trkpt lat="28.37947" lon="-14.09484">
        <ele>413.2</ele>
        <time>2021-07-05 11:36:05</time>
      </trkpt>
      <trkpt lat="28.37949" lon="-14.09486">
        <ele>413.6</ele>
        <time>2021-07-05 11:36:06</time>
      </trkpt>
      <trkpt lat="28.3795" lon="-14.09488">
        <ele>413.8</ele>
        <time>2021-07-05 11:36:07</time>
      </trkpt>
      <trkpt lat="28.37952" lon="-14.09491">
        <ele>414</ele>
        <time>2021-07-05 11:36:08</time>
      </trkpt>
      <trkpt lat="28.37952" lon="-14.09493">
        <ele>414.4</ele>
        <time>2021-07-05 11:36:09</time>
      </trkpt>
      <trkpt lat="28.37953" lon="-14.09496">
        <ele>414.8</ele>
        <time>2021-07-05 11:36:10</time>
      </trkpt>
      <trkpt lat="28.37953" lon="-14.09498">
        <ele>414.8</ele>
        <time>2021-07-05 11:36:11</time>
      </trkpt>
      <trkpt lat="28.37952" lon="-14.095">
        <ele>415</ele>
        <time>2021-07-05 11:36:12</time>
      </trkpt>
      <trkpt lat="28.37952" lon="-14.09502">
        <ele>415</ele>
        <time>2021-07-05 11:36:13</time>
      </trkpt>
      <trkpt lat="28.37952" lon="-14.09503">
        <ele>415.2</ele>
        <time>2021-07-05 11:36:14</time>
      </trkpt>
      <trkpt lat="28.37951" lon="-14.09505">
        <ele>415.2</ele>
        <time>2021-07-05 11:36:15</time>
      </trkpt>
      <trkpt lat="28.37951" lon="-14.09507">
        <ele>415.4</ele>
        <time>2021-07-05 11:36:16</time>
      </trkpt>
      <trkpt lat="28.3795" lon="-14.09509">
        <ele>415.4</ele>
        <time>2021-07-05 11:36:17</time>
      </trkpt>
      <trkpt lat="28.3795" lon="-14.09511">
        <ele>415.4</ele>
        <time>2021-07-05 11:36:18</time>
      </trkpt>
      <trkpt lat="28.37949" lon="-14.09513">
        <ele>415.4</ele>
        <time>2021-07-05 11:36:19</time>
      </trkpt>
      <trkpt lat="28.37949" lon="-14.09515">
        <ele>415.4</ele>
        <time>2021-07-05 11:36:20</time>
      </trkpt>
      <trkpt lat="28.37948" lon="-14.09517">
        <ele>415.4</ele>
        <time>2021-07-05 11:36:21</time>
      </trkpt>
      <trkpt lat="28.37948" lon="-14.09517">
        <ele>415.4</ele>
        <time>2021-07-05 11:36:22</time>
      </trkpt>
      <trkpt lat="28.37948" lon="-14.09517">
        <ele>415.4</ele>
        <time>2021-07-05 11:36:23</time>
      </trkpt>
      <trkpt lat="28.37948" lon="-14.09517">
        <ele>415.4</ele>
        <time>2021-07-05 11:36:24</time>
      </trkpt>
      <trkpt lat="28.37948" lon="-14.09517">
        <ele>415.4</ele>
        <time>2021-07-05 11:36:25</time>
      </trkpt>
      <trkpt lat="28.37948" lon="-14.09518">
        <ele>415.4</ele>
        <time>2021-07-05 11:36:37</time>
      </trkpt>
      <trkpt lat="28.37948" lon="-14.09519">
        <ele>415.2</ele>
        <time>2021-07-05 11:36:38</time>
      </trkpt>
      <trkpt lat="28.37948" lon="-14.09519">
        <ele>414.8</ele>
        <time>2021-07-05 11:36:39</time>
      </trkpt>
      <trkpt lat="28.37947" lon="-14.0952">
        <ele>414.8</ele>
        <time>2021-07-05 11:36:40</time>
      </trkpt>
      <trkpt lat="28.37946" lon="-14.09521">
        <ele>414.4</ele>
        <time>2021-07-05 11:36:41</time>
      </trkpt>
      <trkpt lat="28.37946" lon="-14.09522">
        <ele>414.4</ele>
        <time>2021-07-05 11:36:42</time>
      </trkpt>
      <trkpt lat="28.37945" lon="-14.09522">
        <ele>414.2</ele>
        <time>2021-07-05 11:36:43</time>
      </trkpt>
      <trkpt lat="28.37945" lon="-14.09523">
        <ele>414</ele>
        <time>2021-07-05 11:36:44</time>
      </trkpt>
      <trkpt lat="28.37945" lon="-14.09522">
        <ele>414</ele>
        <time>2021-07-05 11:36:45</time>
      </trkpt>
      <trkpt lat="28.37945" lon="-14.09522">
        <ele>413.6</ele>
        <time>2021-07-05 11:36:46</time>
      </trkpt>
      <trkpt lat="28.37945" lon="-14.09522">
        <ele>413.6</ele>
        <time>2021-07-05 11:36:47</time>
      </trkpt>
      <trkpt lat="28.37945" lon="-14.09524">
        <ele>413.2</ele>
        <time>2021-07-05 11:37:10</time>
      </trkpt>
      <trkpt lat="28.37945" lon="-14.09525">
        <ele>413.2</ele>
        <time>2021-07-05 11:37:11</time>
      </trkpt>
      <trkpt lat="28.37946" lon="-14.09526">
        <ele>413.2</ele>
        <time>2021-07-05 11:37:12</time>
      </trkpt>
      <trkpt lat="28.37946" lon="-14.09526">
        <ele>413.2</ele>
        <time>2021-07-05 11:37:13</time>
      </trkpt>
      <trkpt lat="28.37946" lon="-14.09527">
        <ele>413</ele>
        <time>2021-07-05 11:37:14</time>
      </trkpt>
      <trkpt lat="28.37946" lon="-14.09527">
        <ele>413</ele>
        <time>2021-07-05 11:37:15</time>
      </trkpt>
      <trkpt lat="28.37946" lon="-14.09526">
        <ele>413</ele>
        <time>2021-07-05 11:37:16</time>
      </trkpt>
      <trkpt lat="28.37946" lon="-14.09528">
        <ele>413</ele>
        <time>2021-07-05 11:37:35</time>
      </trkpt>
      <trkpt lat="28.37946" lon="-14.09529">
        <ele>414.2</ele>
        <time>2021-07-05 11:37:36</time>
      </trkpt>
      <trkpt lat="28.37946" lon="-14.0953">
        <ele>414.2</ele>
        <time>2021-07-05 11:37:37</time>
      </trkpt>
      <trkpt lat="28.37946" lon="-14.09531">
        <ele>414.2</ele>
        <time>2021-07-05 11:37:38</time>
      </trkpt>
      <trkpt lat="28.37946" lon="-14.09532">
        <ele>414.2</ele>
        <time>2021-07-05 11:37:39</time>
      </trkpt>
      <trkpt lat="28.37946" lon="-14.09533">
        <ele>414.2</ele>
        <time>2021-07-05 11:37:40</time>
      </trkpt>
      <trkpt lat="28.37946" lon="-14.09533">
        <ele>414.2</ele>
        <time>2021-07-05 11:37:41</time>
      </trkpt>
      <trkpt lat="28.37946" lon="-14.09533">
        <ele>414.2</ele>
        <time>2021-07-05 11:37:42</time>
      </trkpt>
      <trkpt lat="28.37945" lon="-14.09533">
        <ele>414.2</ele>
        <time>2021-07-05 11:37:45</time>
      </trkpt>
      <trkpt lat="28.37945" lon="-14.09533">
        <ele>414</ele>
        <time>2021-07-05 11:37:46</time>
      </trkpt>
      <trkpt lat="28.37945" lon="-14.09533">
        <ele>414</ele>
        <time>2021-07-05 11:37:47</time>
      </trkpt>
      <trkpt lat="28.37945" lon="-14.09533">
        <ele>413.6</ele>
        <time>2021-07-05 11:41:39</time>
      </trkpt>
      <trkpt lat="28.37945" lon="-14.09531">
        <ele>413.6</ele>
        <time>2021-07-05 11:41:40</time>
      </trkpt>
      <trkpt lat="28.37945" lon="-14.0953">
        <ele>413.6</ele>
        <time>2021-07-05 11:41:41</time>
      </trkpt>
      <trkpt lat="28.37946" lon="-14.09528">
        <ele>413.6</ele>
        <time>2021-07-05 11:41:42</time>
      </trkpt>
      <trkpt lat="28.37946" lon="-14.09527">
        <ele>413.6</ele>
        <time>2021-07-05 11:41:43</time>
      </trkpt>
      <trkpt lat="28.37946" lon="-14.09526">
        <ele>413.6</ele>
        <time>2021-07-05 11:41:44</time>
      </trkpt>
      <trkpt lat="28.37946" lon="-14.09525">
        <ele>413.6</ele>
        <time>2021-07-05 11:41:45</time>
      </trkpt>
      <trkpt lat="28.37946" lon="-14.09523">
        <ele>413.6</ele>
        <time>2021-07-05 11:41:46</time>
      </trkpt>
      <trkpt lat="28.37946" lon="-14.09522">
        <ele>413.6</ele>
        <time>2021-07-05 11:41:47</time>
      </trkpt>
      <trkpt lat="28.37946" lon="-14.09521">
        <ele>413.6</ele>
        <time>2021-07-05 11:41:48</time>
      </trkpt>
      <trkpt lat="28.37946" lon="-14.0952">
        <ele>413.6</ele>
        <time>2021-07-05 11:41:49</time>
      </trkpt>
      <trkpt lat="28.37945" lon="-14.0952">
        <ele>413.6</ele>
        <time>2021-07-05 11:41:50</time>
      </trkpt>
      <trkpt lat="28.37946" lon="-14.0952">
        <ele>413.6</ele>
        <time>2021-07-05 11:41:51</time>
      </trkpt>
      <trkpt lat="28.37945" lon="-14.0952">
        <ele>413.8</ele>
        <time>2021-07-05 11:41:57</time>
      </trkpt>
      <trkpt lat="28.37945" lon="-14.09518">
        <ele>413.8</ele>
        <time>2021-07-05 11:41:58</time>
      </trkpt>
      <trkpt lat="28.37945" lon="-14.09516">
        <ele>414.2</ele>
        <time>2021-07-05 11:41:59</time>
      </trkpt>
      <trkpt lat="28.37944" lon="-14.09515">
        <ele>414.2</ele>
        <time>2021-07-05 11:42:00</time>
      </trkpt>
      <trkpt lat="28.37944" lon="-14.09513">
        <ele>414.2</ele>
        <time>2021-07-05 11:42:01</time>
      </trkpt>
      <trkpt lat="28.37944" lon="-14.09511">
        <ele>414.2</ele>
        <time>2021-07-05 11:42:02</time>
      </trkpt>
      <trkpt lat="28.37943" lon="-14.09509">
        <ele>414.2</ele>
        <time>2021-07-05 11:42:03</time>
      </trkpt>
      <trkpt lat="28.37943" lon="-14.09508">
        <ele>414.2</ele>
        <time>2021-07-05 11:42:04</time>
      </trkpt>
      <trkpt lat="28.37942" lon="-14.09507">
        <ele>414.2</ele>
        <time>2021-07-05 11:42:05</time>
      </trkpt>
      <trkpt lat="28.37941" lon="-14.09506">
        <ele>414.2</ele>
        <time>2021-07-05 11:42:06</time>
      </trkpt>
      <trkpt lat="28.37939" lon="-14.09505">
        <ele>414.4</ele>
        <time>2021-07-05 11:42:07</time>
      </trkpt>
      <trkpt lat="28.37938" lon="-14.09505">
        <ele>414.4</ele>
        <time>2021-07-05 11:42:08</time>
      </trkpt>
      <trkpt lat="28.37936" lon="-14.09505">
        <ele>414.4</ele>
        <time>2021-07-05 11:42:09</time>
      </trkpt>
      <trkpt lat="28.37934" lon="-14.09506">
        <ele>414.4</ele>
        <time>2021-07-05 11:42:10</time>
      </trkpt>
      <trkpt lat="28.37931" lon="-14.09507">
        <ele>414.4</ele>
        <time>2021-07-05 11:42:11</time>
      </trkpt>
      <trkpt lat="28.37929" lon="-14.09506">
        <ele>414.4</ele>
        <time>2021-07-05 11:42:12</time>
      </trkpt>
      <trkpt lat="28.37926" lon="-14.09505">
        <ele>414.2</ele>
        <time>2021-07-05 11:42:13</time>
      </trkpt>
      <trkpt lat="28.37923" lon="-14.09502">
        <ele>414.2</ele>
        <time>2021-07-05 11:42:14</time>
      </trkpt>
      <trkpt lat="28.37922" lon="-14.095">
        <ele>413.8</ele>
        <time>2021-07-05 11:42:15</time>
      </trkpt>
      <trkpt lat="28.37921" lon="-14.09499">
        <ele>413.8</ele>
        <time>2021-07-05 11:42:16</time>
      </trkpt>
      <trkpt lat="28.37921" lon="-14.09499">
        <ele>413.8</ele>
        <time>2021-07-05 11:42:17</time>
      </trkpt>
      <trkpt lat="28.37921" lon="-14.09499">
        <ele>413.6</ele>
        <time>2021-07-05 11:42:18</time>
      </trkpt>
      <trkpt lat="28.37921" lon="-14.09498">
        <ele>413.6</ele>
        <time>2021-07-05 11:42:42</time>
      </trkpt>
      <trkpt lat="28.37919" lon="-14.09496">
        <ele>413.6</ele>
        <time>2021-07-05 11:42:43</time>
      </trkpt>
      <trkpt lat="28.37917" lon="-14.09493">
        <ele>413.6</ele>
        <time>2021-07-05 11:42:44</time>
      </trkpt>
      <trkpt lat="28.37915" lon="-14.09491">
        <ele>413.6</ele>
        <time>2021-07-05 11:42:45</time>
      </trkpt>
      <trkpt lat="28.37912" lon="-14.09489">
        <ele>413.6</ele>
        <time>2021-07-05 11:42:46</time>
      </trkpt>
      <trkpt lat="28.37909" lon="-14.09487">
        <ele>413.2</ele>
        <time>2021-07-05 11:42:47</time>
      </trkpt>
      <trkpt lat="28.37905" lon="-14.09485">
        <ele>413.2</ele>
        <time>2021-07-05 11:42:48</time>
      </trkpt>
      <trkpt lat="28.37899" lon="-14.09485">
        <ele>413</ele>
        <time>2021-07-05 11:42:49</time>
      </trkpt>
      <trkpt lat="28.37895" lon="-14.09484">
        <ele>413</ele>
        <time>2021-07-05 11:42:50</time>
      </trkpt>
      <trkpt lat="28.3789" lon="-14.09481">
        <ele>413</ele>
        <time>2021-07-05 11:42:51</time>
      </trkpt>
      <trkpt lat="28.37886" lon="-14.09478">
        <ele>412.8</ele>
        <time>2021-07-05 11:42:52</time>
      </trkpt>
      <trkpt lat="28.37881" lon="-14.09475">
        <ele>412.8</ele>
        <time>2021-07-05 11:42:53</time>
      </trkpt>
      <trkpt lat="28.37876" lon="-14.09472">
        <ele>412.8</ele>
        <time>2021-07-05 11:42:54</time>
      </trkpt>
      <trkpt lat="28.3787" lon="-14.09468">
        <ele>412.8</ele>
        <time>2021-07-05 11:42:55</time>
      </trkpt>
      <trkpt lat="28.37865" lon="-14.09464">
        <ele>412.4</ele>
        <time>2021-07-05 11:42:56</time>
      </trkpt>
      <trkpt lat="28.3786" lon="-14.0946">
        <ele>412.4</ele>
        <time>2021-07-05 11:42:57</time>
      </trkpt>
      <trkpt lat="28.37854" lon="-14.09456">
        <ele>412</ele>
        <time>2021-07-05 11:42:58</time>
      </trkpt>
      <trkpt lat="28.37849" lon="-14.09451">
        <ele>411.8</ele>
        <time>2021-07-05 11:42:59</time>
      </trkpt>
      <trkpt lat="28.37843" lon="-14.09447">
        <ele>411.8</ele>
        <time>2021-07-05 11:43:00</time>
      </trkpt>
      <trkpt lat="28.37837" lon="-14.09443">
        <ele>411.4</ele>
        <time>2021-07-05 11:43:01</time>
      </trkpt>
      <trkpt lat="28.3783" lon="-14.09439">
        <ele>411.4</ele>
        <time>2021-07-05 11:43:02</time>
      </trkpt>
      <trkpt lat="28.37824" lon="-14.09434">
        <ele>410.8</ele>
        <time>2021-07-05 11:43:03</time>
      </trkpt>
      <trkpt lat="28.37817" lon="-14.0943">
        <ele>410.8</ele>
        <time>2021-07-05 11:43:04</time>
      </trkpt>
      <trkpt lat="28.37811" lon="-14.09426">
        <ele>410.6</ele>
        <time>2021-07-05 11:43:05</time>
      </trkpt>
      <trkpt lat="28.37804" lon="-14.09421">
        <ele>410.6</ele>
        <time>2021-07-05 11:43:06</time>
      </trkpt>
      <trkpt lat="28.37797" lon="-14.09417">
        <ele>410.4</ele>
        <time>2021-07-05 11:43:07</time>
      </trkpt>
      <trkpt lat="28.3779" lon="-14.09413">
        <ele>410.2</ele>
        <time>2021-07-05 11:43:08</time>
      </trkpt>
      <trkpt lat="28.37783" lon="-14.09409">
        <ele>410.2</ele>
        <time>2021-07-05 11:43:09</time>
      </trkpt>
      <trkpt lat="28.37776" lon="-14.09405">
        <ele>409.6</ele>
        <time>2021-07-05 11:43:10</time>
      </trkpt>
      <trkpt lat="28.37768" lon="-14.09401">
        <ele>409.4</ele>
        <time>2021-07-05 11:43:11</time>
      </trkpt>
      <trkpt lat="28.37761" lon="-14.09396">
        <ele>409.2</ele>
        <time>2021-07-05 11:43:12</time>
      </trkpt>
      <trkpt lat="28.37754" lon="-14.09391">
        <ele>408.8</ele>
        <time>2021-07-05 11:43:13</time>
      </trkpt>
      <trkpt lat="28.37747" lon="-14.09386">
        <ele>408.6</ele>
        <time>2021-07-05 11:43:14</time>
      </trkpt>
      <trkpt lat="28.3774" lon="-14.09381">
        <ele>408.4</ele>
        <time>2021-07-05 11:43:15</time>
      </trkpt>
      <trkpt lat="28.37733" lon="-14.09376">
        <ele>408</ele>
        <time>2021-07-05 11:43:16</time>
      </trkpt>
      <trkpt lat="28.37725" lon="-14.09372">
        <ele>407.6</ele>
        <time>2021-07-05 11:43:17</time>
      </trkpt>
      <trkpt lat="28.37717" lon="-14.09369">
        <ele>407.6</ele>
        <time>2021-07-05 11:43:18</time>
      </trkpt>
      <trkpt lat="28.37709" lon="-14.09366">
        <ele>407.2</ele>
        <time>2021-07-05 11:43:19</time>
      </trkpt>
      <trkpt lat="28.377" lon="-14.09363">
        <ele>407.2</ele>
        <time>2021-07-05 11:43:20</time>
      </trkpt>
      <trkpt lat="28.37692" lon="-14.0936">
        <ele>406.8</ele>
        <time>2021-07-05 11:43:21</time>
      </trkpt>
      <trkpt lat="28.37684" lon="-14.09356">
        <ele>406.6</ele>
        <time>2021-07-05 11:43:22</time>
      </trkpt>
      <trkpt lat="28.37677" lon="-14.09351">
        <ele>406.6</ele>
        <time>2021-07-05 11:43:23</time>
      </trkpt>
      <trkpt lat="28.37669" lon="-14.09346">
        <ele>406.2</ele>
        <time>2021-07-05 11:43:24</time>
      </trkpt>
      <trkpt lat="28.37662" lon="-14.0934">
        <ele>406</ele>
        <time>2021-07-05 11:43:25</time>
      </trkpt>
      <trkpt lat="28.37654" lon="-14.09336">
        <ele>405.8</ele>
        <time>2021-07-05 11:43:26</time>
      </trkpt>
      <trkpt lat="28.37647" lon="-14.09332">
        <ele>405.6</ele>
        <time>2021-07-05 11:43:27</time>
      </trkpt>
      <trkpt lat="28.37639" lon="-14.0933">
        <ele>405.6</ele>
        <time>2021-07-05 11:43:28</time>
      </trkpt>
      <trkpt lat="28.3763" lon="-14.09331">
        <ele>405</ele>
        <time>2021-07-05 11:43:29</time>
      </trkpt>
      <trkpt lat="28.37623" lon="-14.09334">
        <ele>404.8</ele>
        <time>2021-07-05 11:43:30</time>
      </trkpt>
      <trkpt lat="28.37617" lon="-14.0934">
        <ele>404.4</ele>
        <time>2021-07-05 11:43:31</time>
      </trkpt>
      <trkpt lat="28.37613" lon="-14.09348">
        <ele>404.2</ele>
        <time>2021-07-05 11:43:32</time>
      </trkpt>
      <trkpt lat="28.37608" lon="-14.09356">
        <ele>404.2</ele>
        <time>2021-07-05 11:43:33</time>
      </trkpt>
      <trkpt lat="28.37604" lon="-14.09364">
        <ele>403.8</ele>
        <time>2021-07-05 11:43:34</time>
      </trkpt>
      <trkpt lat="28.376" lon="-14.09373">
        <ele>403.6</ele>
        <time>2021-07-05 11:43:35</time>
      </trkpt>
      <trkpt lat="28.37597" lon="-14.09382">
        <ele>403.4</ele>
        <time>2021-07-05 11:43:36</time>
      </trkpt>
      <trkpt lat="28.37593" lon="-14.09391">
        <ele>403</ele>
        <time>2021-07-05 11:43:37</time>
      </trkpt>
      <trkpt lat="28.37589" lon="-14.09401">
        <ele>402.8</ele>
        <time>2021-07-05 11:43:38</time>
      </trkpt>
      <trkpt lat="28.37586" lon="-14.09411">
        <ele>402.4</ele>
        <time>2021-07-05 11:43:39</time>
      </trkpt>
      <trkpt lat="28.37584" lon="-14.09421">
        <ele>402.2</ele>
        <time>2021-07-05 11:43:40</time>
      </trkpt>
      <trkpt lat="28.37583" lon="-14.09432">
        <ele>401.6</ele>
        <time>2021-07-05 11:43:41</time>
      </trkpt>
      <trkpt lat="28.37585" lon="-14.09442">
        <ele>401.6</ele>
        <time>2021-07-05 11:43:42</time>
      </trkpt>
      <trkpt lat="28.37588" lon="-14.09452">
        <ele>401.2</ele>
        <time>2021-07-05 11:43:43</time>
      </trkpt>
      <trkpt lat="28.37592" lon="-14.09462">
        <ele>400.8</ele>
        <time>2021-07-05 11:43:44</time>
      </trkpt>
      <trkpt lat="28.37596" lon="-14.09472">
        <ele>400</ele>
        <time>2021-07-05 11:43:45</time>
      </trkpt>
      <trkpt lat="28.37599" lon="-14.09482">
        <ele>400</ele>
        <time>2021-07-05 11:43:46</time>
      </trkpt>
      <trkpt lat="28.37602" lon="-14.09492">
        <ele>399.8</ele>
        <time>2021-07-05 11:43:47</time>
      </trkpt>
      <trkpt lat="28.37604" lon="-14.09502">
        <ele>399.4</ele>
        <time>2021-07-05 11:43:48</time>
      </trkpt>
      <trkpt lat="28.37605" lon="-14.09513">
        <ele>398.6</ele>
        <time>2021-07-05 11:43:49</time>
      </trkpt>
      <trkpt lat="28.37604" lon="-14.09523">
        <ele>398.2</ele>
        <time>2021-07-05 11:43:50</time>
      </trkpt>
      <trkpt lat="28.37602" lon="-14.09534">
        <ele>398.2</ele>
        <time>2021-07-05 11:43:51</time>
      </trkpt>
      <trkpt lat="28.37597" lon="-14.09543">
        <ele>397.8</ele>
        <time>2021-07-05 11:43:52</time>
      </trkpt>
      <trkpt lat="28.37591" lon="-14.09551">
        <ele>397.4</ele>
        <time>2021-07-05 11:43:53</time>
      </trkpt>
      <trkpt lat="28.37587" lon="-14.09561">
        <ele>396.2</ele>
        <time>2021-07-05 11:43:54</time>
      </trkpt>
      <trkpt lat="28.37582" lon="-14.09571">
        <ele>395.8</ele>
        <time>2021-07-05 11:43:55</time>
      </trkpt>
      <trkpt lat="28.37579" lon="-14.09581">
        <ele>395.8</ele>
        <time>2021-07-05 11:43:56</time>
      </trkpt>
      <trkpt lat="28.37577" lon="-14.09592">
        <ele>395.2</ele>
        <time>2021-07-05 11:43:57</time>
      </trkpt>
      <trkpt lat="28.37574" lon="-14.09603">
        <ele>394.4</ele>
        <time>2021-07-05 11:43:58</time>
      </trkpt>
      <trkpt lat="28.37572" lon="-14.09613">
        <ele>394</ele>
        <time>2021-07-05 11:43:59</time>
      </trkpt>
      <trkpt lat="28.37573" lon="-14.09624">
        <ele>394</ele>
        <time>2021-07-05 11:44:00</time>
      </trkpt>
      <trkpt lat="28.37576" lon="-14.09635">
        <ele>393</ele>
        <time>2021-07-05 11:44:01</time>
      </trkpt>
      <trkpt lat="28.3758" lon="-14.09645">
        <ele>393</ele>
        <time>2021-07-05 11:44:02</time>
      </trkpt>
      <trkpt lat="28.37587" lon="-14.09654">
        <ele>392</ele>
        <time>2021-07-05 11:44:03</time>
      </trkpt>
      <trkpt lat="28.37594" lon="-14.09662">
        <ele>391.4</ele>
        <time>2021-07-05 11:44:04</time>
      </trkpt>
      <trkpt lat="28.37601" lon="-14.09668">
        <ele>391.4</ele>
        <time>2021-07-05 11:44:05</time>
      </trkpt>
      <trkpt lat="28.37609" lon="-14.09674">
        <ele>390.8</ele>
        <time>2021-07-05 11:44:06</time>
      </trkpt>
      <trkpt lat="28.37616" lon="-14.0968">
        <ele>390</ele>
        <time>2021-07-05 11:44:07</time>
      </trkpt>
      <trkpt lat="28.37623" lon="-14.09687">
        <ele>390</ele>
        <time>2021-07-05 11:44:08</time>
      </trkpt>
      <trkpt lat="28.37628" lon="-14.09695">
        <ele>389.4</ele>
        <time>2021-07-05 11:44:09</time>
      </trkpt>
      <trkpt lat="28.37633" lon="-14.09703">
        <ele>389.2</ele>
        <time>2021-07-05 11:44:10</time>
      </trkpt>
      <trkpt lat="28.37637" lon="-14.09712">
        <ele>388.4</ele>
        <time>2021-07-05 11:44:11</time>
      </trkpt>
      <trkpt lat="28.3764" lon="-14.09721">
        <ele>388.2</ele>
        <time>2021-07-05 11:44:12</time>
      </trkpt>
      <trkpt lat="28.37641" lon="-14.09731">
        <ele>388.2</ele>
        <time>2021-07-05 11:44:13</time>
      </trkpt>
      <trkpt lat="28.37641" lon="-14.09741">
        <ele>387.4</ele>
        <time>2021-07-05 11:44:14</time>
      </trkpt>
      <trkpt lat="28.37639" lon="-14.0975">
        <ele>387</ele>
        <time>2021-07-05 11:44:15</time>
      </trkpt>
      <trkpt lat="28.37637" lon="-14.0976">
        <ele>387</ele>
        <time>2021-07-05 11:44:16</time>
      </trkpt>
      <trkpt lat="28.37634" lon="-14.09769">
        <ele>386.2</ele>
        <time>2021-07-05 11:44:17</time>
      </trkpt>
      <trkpt lat="28.37633" lon="-14.09778">
        <ele>386.2</ele>
        <time>2021-07-05 11:44:18</time>
      </trkpt>
      <trkpt lat="28.37632" lon="-14.09789">
        <ele>385.8</ele>
        <time>2021-07-05 11:44:19</time>
      </trkpt>
      <trkpt lat="28.37634" lon="-14.09798">
        <ele>385.4</ele>
        <time>2021-07-05 11:44:20</time>
      </trkpt>
      <trkpt lat="28.37637" lon="-14.09807">
        <ele>384.8</ele>
        <time>2021-07-05 11:44:21</time>
      </trkpt>
      <trkpt lat="28.3764" lon="-14.09817">
        <ele>384.4</ele>
        <time>2021-07-05 11:44:22</time>
      </trkpt>
      <trkpt lat="28.37644" lon="-14.09826">
        <ele>383.8</ele>
        <time>2021-07-05 11:44:23</time>
      </trkpt>
      <trkpt lat="28.37649" lon="-14.09834">
        <ele>382.8</ele>
        <time>2021-07-05 11:44:24</time>
      </trkpt>
      <trkpt lat="28.37655" lon="-14.09842">
        <ele>382.8</ele>
        <time>2021-07-05 11:44:25</time>
      </trkpt>
      <trkpt lat="28.37661" lon="-14.09849">
        <ele>382.4</ele>
        <time>2021-07-05 11:44:26</time>
      </trkpt>
      <trkpt lat="28.37666" lon="-14.09856">
        <ele>381.8</ele>
        <time>2021-07-05 11:44:27</time>
      </trkpt>
      <trkpt lat="28.37673" lon="-14.09861">
        <ele>380.6</ele>
        <time>2021-07-05 11:44:28</time>
      </trkpt>
      <trkpt lat="28.3768" lon="-14.09865">
        <ele>380.6</ele>
        <time>2021-07-05 11:44:29</time>
      </trkpt>
      <trkpt lat="28.37688" lon="-14.09869">
        <ele>380</ele>
        <time>2021-07-05 11:44:30</time>
      </trkpt>
      <trkpt lat="28.37694" lon="-14.09873">
        <ele>379.6</ele>
        <time>2021-07-05 11:44:31</time>
      </trkpt>
      <trkpt lat="28.37701" lon="-14.09879">
        <ele>379</ele>
        <time>2021-07-05 11:44:32</time>
      </trkpt>
      <trkpt lat="28.37706" lon="-14.09886">
        <ele>378.2</ele>
        <time>2021-07-05 11:44:33</time>
      </trkpt>
      <trkpt lat="28.37711" lon="-14.09893">
        <ele>378.2</ele>
        <time>2021-07-05 11:44:34</time>
      </trkpt>
      <trkpt lat="28.37715" lon="-14.09901">
        <ele>377.2</ele>
        <time>2021-07-05 11:44:35</time>
      </trkpt>
      <trkpt lat="28.37719" lon="-14.09909">
        <ele>377.2</ele>
        <time>2021-07-05 11:44:36</time>
      </trkpt>
      <trkpt lat="28.37722" lon="-14.09917">
        <ele>376.6</ele>
        <time>2021-07-05 11:44:37</time>
      </trkpt>
      <trkpt lat="28.37725" lon="-14.09925">
        <ele>376.6</ele>
        <time>2021-07-05 11:44:38</time>
      </trkpt>
      <trkpt lat="28.37727" lon="-14.09933">
        <ele>376.2</ele>
        <time>2021-07-05 11:44:39</time>
      </trkpt>
      <trkpt lat="28.37729" lon="-14.0994">
        <ele>376</ele>
        <time>2021-07-05 11:44:40</time>
      </trkpt>
      <trkpt lat="28.3773" lon="-14.09947">
        <ele>376</ele>
        <time>2021-07-05 11:44:41</time>
      </trkpt>
      <trkpt lat="28.37731" lon="-14.09953">
        <ele>375.2</ele>
        <time>2021-07-05 11:44:42</time>
      </trkpt>
      <trkpt lat="28.37732" lon="-14.09959">
        <ele>375.2</ele>
        <time>2021-07-05 11:44:43</time>
      </trkpt>
      <trkpt lat="28.37732" lon="-14.09965">
        <ele>374.8</ele>
        <time>2021-07-05 11:44:44</time>
      </trkpt>
      <trkpt lat="28.37732" lon="-14.09969">
        <ele>374.4</ele>
        <time>2021-07-05 11:44:45</time>
      </trkpt>
      <trkpt lat="28.37733" lon="-14.09973">
        <ele>373.8</ele>
        <time>2021-07-05 11:44:46</time>
      </trkpt>
      <trkpt lat="28.37733" lon="-14.09976">
        <ele>373.4</ele>
        <time>2021-07-05 11:44:47</time>
      </trkpt>
      <trkpt lat="28.37732" lon="-14.09979">
        <ele>372.8</ele>
        <time>2021-07-05 11:44:48</time>
      </trkpt>
      <trkpt lat="28.37732" lon="-14.09982">
        <ele>371.8</ele>
        <time>2021-07-05 11:44:49</time>
      </trkpt>
      <trkpt lat="28.37733" lon="-14.09985">
        <ele>371.8</ele>
        <time>2021-07-05 11:44:50</time>
      </trkpt>
      <trkpt lat="28.37733" lon="-14.09988">
        <ele>371</ele>
        <time>2021-07-05 11:44:51</time>
      </trkpt>
      <trkpt lat="28.37733" lon="-14.0999">
        <ele>371</ele>
        <time>2021-07-05 11:44:52</time>
      </trkpt>
      <trkpt lat="28.37733" lon="-14.09991">
        <ele>370.2</ele>
        <time>2021-07-05 11:44:53</time>
      </trkpt>
      <trkpt lat="28.37733" lon="-14.09991">
        <ele>370.2</ele>
        <time>2021-07-05 11:44:54</time>
      </trkpt>
      <trkpt lat="28.37733" lon="-14.09991">
        <ele>369.8</ele>
        <time>2021-07-05 11:44:55</time>
      </trkpt>
      <trkpt lat="28.37733" lon="-14.09994">
        <ele>369.8</ele>
        <time>2021-07-05 11:45:09</time>
      </trkpt>
      <trkpt lat="28.37734" lon="-14.09995">
        <ele>369</ele>
        <time>2021-07-05 11:45:10</time>
      </trkpt>
      <trkpt lat="28.37734" lon="-14.09996">
        <ele>369</ele>
        <time>2021-07-05 11:45:11</time>
      </trkpt>
      <trkpt lat="28.37734" lon="-14.09997">
        <ele>368.8</ele>
        <time>2021-07-05 11:45:12</time>
      </trkpt>
      <trkpt lat="28.37734" lon="-14.09996">
        <ele>368.8</ele>
        <time>2021-07-05 11:45:13</time>
      </trkpt>
      <trkpt lat="28.37734" lon="-14.09997">
        <ele>368.8</ele>
        <time>2021-07-05 11:45:16</time>
      </trkpt>
      <trkpt lat="28.37734" lon="-14.09997">
        <ele>368.8</ele>
        <time>2021-07-05 11:45:17</time>
      </trkpt>
      <trkpt lat="28.37734" lon="-14.09997">
        <ele>368.8</ele>
        <time>2021-07-05 11:45:18</time>
      </trkpt>
      <trkpt lat="28.37734" lon="-14.09996">
        <ele>368.4</ele>
        <time>2021-07-05 11:45:19</time>
      </trkpt>
      <trkpt lat="28.37733" lon="-14.1">
        <ele>366.8</ele>
        <time>2021-07-05 11:45:40</time>
      </trkpt>
      <trkpt lat="28.37733" lon="-14.10002">
        <ele>366.8</ele>
        <time>2021-07-05 11:45:41</time>
      </trkpt>
      <trkpt lat="28.37733" lon="-14.10006">
        <ele>366.8</ele>
        <time>2021-07-05 11:45:42</time>
      </trkpt>
      <trkpt lat="28.37733" lon="-14.10008">
        <ele>366.8</ele>
        <time>2021-07-05 11:45:43</time>
      </trkpt>
      <trkpt lat="28.37734" lon="-14.10011">
        <ele>366.6</ele>
        <time>2021-07-05 11:45:44</time>
      </trkpt>
      <trkpt lat="28.37734" lon="-14.10014">
        <ele>366.6</ele>
        <time>2021-07-05 11:45:45</time>
      </trkpt>
      <trkpt lat="28.37735" lon="-14.10017">
        <ele>366.2</ele>
        <time>2021-07-05 11:45:46</time>
      </trkpt>
      <trkpt lat="28.37735" lon="-14.10019">
        <ele>366.2</ele>
        <time>2021-07-05 11:45:47</time>
      </trkpt>
      <trkpt lat="28.37735" lon="-14.1002">
        <ele>366</ele>
        <time>2021-07-05 11:45:48</time>
      </trkpt>
      <trkpt lat="28.37735" lon="-14.1002">
        <ele>366</ele>
        <time>2021-07-05 11:45:49</time>
      </trkpt>
      <trkpt lat="28.37735" lon="-14.10019">
        <ele>366</ele>
        <time>2021-07-05 11:45:50</time>
      </trkpt>
      <trkpt lat="28.37735" lon="-14.10019">
        <ele>366</ele>
        <time>2021-07-05 11:45:51</time>
      </trkpt>
      <trkpt lat="28.37736" lon="-14.10024">
        <ele>365.2</ele>
        <time>2021-07-05 11:46:12</time>
      </trkpt>
      <trkpt lat="28.37736" lon="-14.10027">
        <ele>364.8</ele>
        <time>2021-07-05 11:46:13</time>
      </trkpt>
      <trkpt lat="28.37736" lon="-14.1003">
        <ele>364.8</ele>
        <time>2021-07-05 11:46:14</time>
      </trkpt>
      <trkpt lat="28.37736" lon="-14.10033">
        <ele>364.6</ele>
        <time>2021-07-05 11:46:15</time>
      </trkpt>
      <trkpt lat="28.37736" lon="-14.10037">
        <ele>364.6</ele>
        <time>2021-07-05 11:46:16</time>
      </trkpt>
      <trkpt lat="28.37736" lon="-14.10041">
        <ele>364.6</ele>
        <time>2021-07-05 11:46:17</time>
      </trkpt>
      <trkpt lat="28.37736" lon="-14.10045">
        <ele>364.4</ele>
        <time>2021-07-05 11:46:18</time>
      </trkpt>
      <trkpt lat="28.37737" lon="-14.1005">
        <ele>364</ele>
        <time>2021-07-05 11:46:19</time>
      </trkpt>
      <trkpt lat="28.37739" lon="-14.10054">
        <ele>364</ele>
        <time>2021-07-05 11:46:20</time>
      </trkpt>
      <trkpt lat="28.37741" lon="-14.10059">
        <ele>363.6</ele>
        <time>2021-07-05 11:46:21</time>
      </trkpt>
      <trkpt lat="28.37742" lon="-14.10065">
        <ele>363.6</ele>
        <time>2021-07-05 11:46:22</time>
      </trkpt>
      <trkpt lat="28.37744" lon="-14.10071">
        <ele>363.6</ele>
        <time>2021-07-05 11:46:23</time>
      </trkpt>
      <trkpt lat="28.37746" lon="-14.10077">
        <ele>363.2</ele>
        <time>2021-07-05 11:46:24</time>
      </trkpt>
      <trkpt lat="28.37747" lon="-14.10083">
        <ele>363</ele>
        <time>2021-07-05 11:46:25</time>
      </trkpt>
      <trkpt lat="28.37748" lon="-14.1009">
        <ele>362.8</ele>
        <time>2021-07-05 11:46:26</time>
      </trkpt>
      <trkpt lat="28.3775" lon="-14.10097">
        <ele>362.6</ele>
        <time>2021-07-05 11:46:27</time>
      </trkpt>
      <trkpt lat="28.37751" lon="-14.10104">
        <ele>362.2</ele>
        <time>2021-07-05 11:46:28</time>
      </trkpt>
      <trkpt lat="28.37751" lon="-14.10111">
        <ele>361.6</ele>
        <time>2021-07-05 11:46:29</time>
      </trkpt>
      <trkpt lat="28.37751" lon="-14.10118">
        <ele>361.4</ele>
        <time>2021-07-05 11:46:30</time>
      </trkpt>
      <trkpt lat="28.37751" lon="-14.10125">
        <ele>361</ele>
        <time>2021-07-05 11:46:31</time>
      </trkpt>
      <trkpt lat="28.37752" lon="-14.10131">
        <ele>361</ele>
        <time>2021-07-05 11:46:32</time>
      </trkpt>
      <trkpt lat="28.37753" lon="-14.10138">
        <ele>360.8</ele>
        <time>2021-07-05 11:46:33</time>
      </trkpt>
      <trkpt lat="28.37755" lon="-14.10145">
        <ele>360.4</ele>
        <time>2021-07-05 11:46:34</time>
      </trkpt>
      <trkpt lat="28.37758" lon="-14.10152">
        <ele>360.2</ele>
        <time>2021-07-05 11:46:35</time>
      </trkpt>
      <trkpt lat="28.3776" lon="-14.10159">
        <ele>359.8</ele>
        <time>2021-07-05 11:46:36</time>
      </trkpt>
      <trkpt lat="28.37763" lon="-14.10166">
        <ele>359.4</ele>
        <time>2021-07-05 11:46:37</time>
      </trkpt>
      <trkpt lat="28.37765" lon="-14.10172">
        <ele>359</ele>
        <time>2021-07-05 11:46:38</time>
      </trkpt>
      <trkpt lat="28.37766" lon="-14.1018">
        <ele>358.6</ele>
        <time>2021-07-05 11:46:39</time>
      </trkpt>
      <trkpt lat="28.37768" lon="-14.10187">
        <ele>357.8</ele>
        <time>2021-07-05 11:46:40</time>
      </trkpt>
      <trkpt lat="28.37769" lon="-14.10194">
        <ele>357.8</ele>
        <time>2021-07-05 11:46:41</time>
      </trkpt>
      <trkpt lat="28.3777" lon="-14.10202">
        <ele>357.6</ele>
        <time>2021-07-05 11:46:42</time>
      </trkpt>
      <trkpt lat="28.37771" lon="-14.1021">
        <ele>357.2</ele>
        <time>2021-07-05 11:46:43</time>
      </trkpt>
      <trkpt lat="28.3777" lon="-14.10218">
        <ele>356.6</ele>
        <time>2021-07-05 11:46:44</time>
      </trkpt>
      <trkpt lat="28.37768" lon="-14.10226">
        <ele>356.6</ele>
        <time>2021-07-05 11:46:45</time>
      </trkpt>
      <trkpt lat="28.37766" lon="-14.10233">
        <ele>356.2</ele>
        <time>2021-07-05 11:46:46</time>
      </trkpt>
      <trkpt lat="28.37764" lon="-14.1024">
        <ele>356</ele>
        <time>2021-07-05 11:46:47</time>
      </trkpt>
      <trkpt lat="28.37762" lon="-14.10246">
        <ele>355.6</ele>
        <time>2021-07-05 11:46:48</time>
      </trkpt>
      <trkpt lat="28.3776" lon="-14.10251">
        <ele>355.2</ele>
        <time>2021-07-05 11:46:49</time>
      </trkpt>
      <trkpt lat="28.37758" lon="-14.10254">
        <ele>354.8</ele>
        <time>2021-07-05 11:46:50</time>
      </trkpt>
      <trkpt lat="28.37756" lon="-14.10257">
        <ele>354.8</ele>
        <time>2021-07-05 11:46:51</time>
      </trkpt>
      <trkpt lat="28.37755" lon="-14.1026">
        <ele>354.2</ele>
        <time>2021-07-05 11:46:52</time>
      </trkpt>
      <trkpt lat="28.37754" lon="-14.10261">
        <ele>354.2</ele>
        <time>2021-07-05 11:46:53</time>
      </trkpt>
      <trkpt lat="28.37752" lon="-14.10262">
        <ele>354.2</ele>
        <time>2021-07-05 11:46:54</time>
      </trkpt>
      <trkpt lat="28.37751" lon="-14.10264">
        <ele>353.4</ele>
        <time>2021-07-05 11:46:55</time>
      </trkpt>
      <trkpt lat="28.37749" lon="-14.10266">
        <ele>353</ele>
        <time>2021-07-05 11:46:56</time>
      </trkpt>
      <trkpt lat="28.37747" lon="-14.10268">
        <ele>353</ele>
        <time>2021-07-05 11:46:57</time>
      </trkpt>
      <trkpt lat="28.37745" lon="-14.1027">
        <ele>352.6</ele>
        <time>2021-07-05 11:46:58</time>
      </trkpt>
      <trkpt lat="28.37743" lon="-14.10272">
        <ele>352.4</ele>
        <time>2021-07-05 11:46:59</time>
      </trkpt>
      <trkpt lat="28.37742" lon="-14.10273">
        <ele>352.4</ele>
        <time>2021-07-05 11:47:00</time>
      </trkpt>
      <trkpt lat="28.37742" lon="-14.10274">
        <ele>352.2</ele>
        <time>2021-07-05 11:47:01</time>
      </trkpt>
      <trkpt lat="28.37742" lon="-14.10274">
        <ele>351.8</ele>
        <time>2021-07-05 11:47:02</time>
      </trkpt>
      <trkpt lat="28.37742" lon="-14.10273">
        <ele>351.8</ele>
        <time>2021-07-05 11:47:03</time>
      </trkpt>
      <trkpt lat="28.37742" lon="-14.10273">
        <ele>351.8</ele>
        <time>2021-07-05 11:47:04</time>
      </trkpt>
      <trkpt lat="28.37739" lon="-14.10275">
        <ele>351.8</ele>
        <time>2021-07-05 11:47:31</time>
      </trkpt>
      <trkpt lat="28.37736" lon="-14.10276">
        <ele>351.2</ele>
        <time>2021-07-05 11:47:32</time>
      </trkpt>
      <trkpt lat="28.37734" lon="-14.10278">
        <ele>350.8</ele>
        <time>2021-07-05 11:47:33</time>
      </trkpt>
      <trkpt lat="28.37731" lon="-14.1028">
        <ele>350.8</ele>
        <time>2021-07-05 11:47:34</time>
      </trkpt>
      <trkpt lat="28.37727" lon="-14.10282">
        <ele>350.6</ele>
        <time>2021-07-05 11:47:35</time>
      </trkpt>
      <trkpt lat="28.37723" lon="-14.10284">
        <ele>350</ele>
        <time>2021-07-05 11:47:36</time>
      </trkpt>
      <trkpt lat="28.37718" lon="-14.10285">
        <ele>350</ele>
        <time>2021-07-05 11:47:37</time>
      </trkpt>
      <trkpt lat="28.37714" lon="-14.10286">
        <ele>349.8</ele>
        <time>2021-07-05 11:47:38</time>
      </trkpt>
      <trkpt lat="28.37709" lon="-14.10287">
        <ele>349.4</ele>
        <time>2021-07-05 11:47:39</time>
      </trkpt>
      <trkpt lat="28.37703" lon="-14.10288">
        <ele>349.2</ele>
        <time>2021-07-05 11:47:40</time>
      </trkpt>
      <trkpt lat="28.37698" lon="-14.10289">
        <ele>349</ele>
        <time>2021-07-05 11:47:41</time>
      </trkpt>
      <trkpt lat="28.37692" lon="-14.1029">
        <ele>348.4</ele>
        <time>2021-07-05 11:47:42</time>
      </trkpt>
      <trkpt lat="28.37685" lon="-14.10292">
        <ele>348.4</ele>
        <time>2021-07-05 11:47:43</time>
      </trkpt>
      <trkpt lat="28.37679" lon="-14.10294">
        <ele>347.8</ele>
        <time>2021-07-05 11:47:44</time>
      </trkpt>
      <trkpt lat="28.37671" lon="-14.10295">
        <ele>347.8</ele>
        <time>2021-07-05 11:47:45</time>
      </trkpt>
      <trkpt lat="28.37664" lon="-14.10297">
        <ele>347.2</ele>
        <time>2021-07-05 11:47:46</time>
      </trkpt>
      <trkpt lat="28.37657" lon="-14.10299">
        <ele>347.2</ele>
        <time>2021-07-05 11:47:47</time>
      </trkpt>
      <trkpt lat="28.37649" lon="-14.10301">
        <ele>347</ele>
        <time>2021-07-05 11:47:48</time>
      </trkpt>
      <trkpt lat="28.37641" lon="-14.10303">
        <ele>346.6</ele>
        <time>2021-07-05 11:47:49</time>
      </trkpt>
      <trkpt lat="28.37633" lon="-14.10305">
        <ele>345.8</ele>
        <time>2021-07-05 11:47:50</time>
      </trkpt>
      <trkpt lat="28.37625" lon="-14.10306">
        <ele>345.6</ele>
        <time>2021-07-05 11:47:51</time>
      </trkpt>
      <trkpt lat="28.37616" lon="-14.10307">
        <ele>345.6</ele>
        <time>2021-07-05 11:47:52</time>
      </trkpt>
      <trkpt lat="28.37607" lon="-14.10307">
        <ele>345.2</ele>
        <time>2021-07-05 11:47:53</time>
      </trkpt>
      <trkpt lat="28.37598" lon="-14.10308">
        <ele>344.8</ele>
        <time>2021-07-05 11:47:54</time>
      </trkpt>
      <trkpt lat="28.3759" lon="-14.10307">
        <ele>344.2</ele>
        <time>2021-07-05 11:47:55</time>
      </trkpt>
      <trkpt lat="28.37581" lon="-14.10307">
        <ele>344.2</ele>
        <time>2021-07-05 11:47:56</time>
      </trkpt>
      <trkpt lat="28.37572" lon="-14.10306">
        <ele>343.8</ele>
        <time>2021-07-05 11:47:57</time>
      </trkpt>
      <trkpt lat="28.37563" lon="-14.10304">
        <ele>343.8</ele>
        <time>2021-07-05 11:47:58</time>
      </trkpt>
      <trkpt lat="28.37554" lon="-14.10302">
        <ele>343.6</ele>
        <time>2021-07-05 11:47:59</time>
      </trkpt>
      <trkpt lat="28.37546" lon="-14.103">
        <ele>343.4</ele>
        <time>2021-07-05 11:48:00</time>
      </trkpt>
      <trkpt lat="28.37538" lon="-14.10297">
        <ele>343</ele>
        <time>2021-07-05 11:48:01</time>
      </trkpt>
      <trkpt lat="28.37529" lon="-14.10295">
        <ele>342.8</ele>
        <time>2021-07-05 11:48:02</time>
      </trkpt>
      <trkpt lat="28.37521" lon="-14.10292">
        <ele>342.4</ele>
        <time>2021-07-05 11:48:03</time>
      </trkpt>
      <trkpt lat="28.37513" lon="-14.10289">
        <ele>342</ele>
        <time>2021-07-05 11:48:04</time>
      </trkpt>
      <trkpt lat="28.37505" lon="-14.10286">
        <ele>341.8</ele>
        <time>2021-07-05 11:48:05</time>
      </trkpt>
      <trkpt lat="28.37496" lon="-14.10284">
        <ele>341.6</ele>
        <time>2021-07-05 11:48:06</time>
      </trkpt>
      <trkpt lat="28.37488" lon="-14.10281">
        <ele>341.4</ele>
        <time>2021-07-05 11:48:07</time>
      </trkpt>
      <trkpt lat="28.3748" lon="-14.10278">
        <ele>340.8</ele>
        <time>2021-07-05 11:48:08</time>
      </trkpt>
      <trkpt lat="28.37472" lon="-14.10276">
        <ele>340.8</ele>
        <time>2021-07-05 11:48:09</time>
      </trkpt>
      <trkpt lat="28.37464" lon="-14.10273">
        <ele>340.8</ele>
        <time>2021-07-05 11:48:10</time>
      </trkpt>
      <trkpt lat="28.37456" lon="-14.10269">
        <ele>340.6</ele>
        <time>2021-07-05 11:48:11</time>
      </trkpt>
      <trkpt lat="28.37448" lon="-14.10265">
        <ele>340.4</ele>
        <time>2021-07-05 11:48:12</time>
      </trkpt>
      <trkpt lat="28.37441" lon="-14.1026">
        <ele>339.8</ele>
        <time>2021-07-05 11:48:13</time>
      </trkpt>
      <trkpt lat="28.37434" lon="-14.10255">
        <ele>339.4</ele>
        <time>2021-07-05 11:48:14</time>
      </trkpt>
      <trkpt lat="28.37427" lon="-14.10248">
        <ele>339.2</ele>
        <time>2021-07-05 11:48:15</time>
      </trkpt>
      <trkpt lat="28.37421" lon="-14.1024">
        <ele>339.2</ele>
        <time>2021-07-05 11:48:16</time>
      </trkpt>
      <trkpt lat="28.37415" lon="-14.10232">
        <ele>338.4</ele>
        <time>2021-07-05 11:48:17</time>
      </trkpt>
      <trkpt lat="28.37409" lon="-14.10223">
        <ele>338.2</ele>
        <time>2021-07-05 11:48:18</time>
      </trkpt>
      <trkpt lat="28.37405" lon="-14.10214">
        <ele>338.2</ele>
        <time>2021-07-05 11:48:19</time>
      </trkpt>
      <trkpt lat="28.37401" lon="-14.10204">
        <ele>337.8</ele>
        <time>2021-07-05 11:48:20</time>
      </trkpt>
      <trkpt lat="28.37398" lon="-14.10194">
        <ele>337</ele>
        <time>2021-07-05 11:48:21</time>
      </trkpt>
      <trkpt lat="28.37395" lon="-14.10184">
        <ele>336.6</ele>
        <time>2021-07-05 11:48:22</time>
      </trkpt>
      <trkpt lat="28.37392" lon="-14.10175">
        <ele>336.6</ele>
        <time>2021-07-05 11:48:23</time>
      </trkpt>
      <trkpt lat="28.37389" lon="-14.10166">
        <ele>336.2</ele>
        <time>2021-07-05 11:48:24</time>
      </trkpt>
      <trkpt lat="28.37386" lon="-14.10158">
        <ele>335.8</ele>
        <time>2021-07-05 11:48:25</time>
      </trkpt>
      <trkpt lat="28.37382" lon="-14.10149">
        <ele>335.2</ele>
        <time>2021-07-05 11:48:26</time>
      </trkpt>
      <trkpt lat="28.37378" lon="-14.10142">
        <ele>334.8</ele>
        <time>2021-07-05 11:48:27</time>
      </trkpt>
      <trkpt lat="28.37372" lon="-14.10136">
        <ele>334.8</ele>
        <time>2021-07-05 11:48:28</time>
      </trkpt>
      <trkpt lat="28.37366" lon="-14.10131">
        <ele>334.4</ele>
        <time>2021-07-05 11:48:29</time>
      </trkpt>
      <trkpt lat="28.37359" lon="-14.10127">
        <ele>333.8</ele>
        <time>2021-07-05 11:48:30</time>
      </trkpt>
      <trkpt lat="28.37352" lon="-14.10124">
        <ele>333.8</ele>
        <time>2021-07-05 11:48:31</time>
      </trkpt>
      <trkpt lat="28.37344" lon="-14.10123">
        <ele>333.4</ele>
        <time>2021-07-05 11:48:32</time>
      </trkpt>
      <trkpt lat="28.37337" lon="-14.10126">
        <ele>333.2</ele>
        <time>2021-07-05 11:48:33</time>
      </trkpt>
      <trkpt lat="28.37331" lon="-14.10131">
        <ele>333.2</ele>
        <time>2021-07-05 11:48:34</time>
      </trkpt>
      <trkpt lat="28.37327" lon="-14.10138">
        <ele>333</ele>
        <time>2021-07-05 11:48:35</time>
      </trkpt>
      <trkpt lat="28.37325" lon="-14.10146">
        <ele>333</ele>
        <time>2021-07-05 11:48:36</time>
      </trkpt>
      <trkpt lat="28.37323" lon="-14.10154">
        <ele>332.6</ele>
        <time>2021-07-05 11:48:37</time>
      </trkpt>
      <trkpt lat="28.37321" lon="-14.10162">
        <ele>332.6</ele>
        <time>2021-07-05 11:48:38</time>
      </trkpt>
      <trkpt lat="28.37319" lon="-14.1017">
        <ele>332.4</ele>
        <time>2021-07-05 11:48:39</time>
      </trkpt>
      <trkpt lat="28.37316" lon="-14.10178">
        <ele>332.4</ele>
        <time>2021-07-05 11:48:40</time>
      </trkpt>
      <trkpt lat="28.37314" lon="-14.10186">
        <ele>332.2</ele>
        <time>2021-07-05 11:48:41</time>
      </trkpt>
      <trkpt lat="28.37312" lon="-14.10194">
        <ele>332.2</ele>
        <time>2021-07-05 11:48:42</time>
      </trkpt>
      <trkpt lat="28.3731" lon="-14.10202">
        <ele>332.2</ele>
        <time>2021-07-05 11:48:43</time>
      </trkpt>
      <trkpt lat="28.37308" lon="-14.1021">
        <ele>331.8</ele>
        <time>2021-07-05 11:48:44</time>
      </trkpt>
      <trkpt lat="28.37306" lon="-14.10218">
        <ele>331.8</ele>
        <time>2021-07-05 11:48:45</time>
      </trkpt>
      <trkpt lat="28.37305" lon="-14.10226">
        <ele>331.4</ele>
        <time>2021-07-05 11:48:46</time>
      </trkpt>
      <trkpt lat="28.37304" lon="-14.10234">
        <ele>331.2</ele>
        <time>2021-07-05 11:48:47</time>
      </trkpt>
      <trkpt lat="28.37302" lon="-14.10241">
        <ele>331.2</ele>
        <time>2021-07-05 11:48:48</time>
      </trkpt>
      <trkpt lat="28.37301" lon="-14.10249">
        <ele>330.8</ele>
        <time>2021-07-05 11:48:49</time>
      </trkpt>
      <trkpt lat="28.37299" lon="-14.10256">
        <ele>330.6</ele>
        <time>2021-07-05 11:48:50</time>
      </trkpt>
      <trkpt lat="28.37298" lon="-14.10263">
        <ele>330</ele>
        <time>2021-07-05 11:48:51</time>
      </trkpt>
      <trkpt lat="28.37296" lon="-14.1027">
        <ele>330</ele>
        <time>2021-07-05 11:48:52</time>
      </trkpt>
      <trkpt lat="28.37294" lon="-14.10277">
        <ele>329.8</ele>
        <time>2021-07-05 11:48:53</time>
      </trkpt>
      <trkpt lat="28.37293" lon="-14.10284">
        <ele>329.8</ele>
        <time>2021-07-05 11:48:54</time>
      </trkpt>
      <trkpt lat="28.37291" lon="-14.10291">
        <ele>329.8</ele>
        <time>2021-07-05 11:48:55</time>
      </trkpt>
      <trkpt lat="28.3729" lon="-14.10298">
        <ele>329.8</ele>
        <time>2021-07-05 11:48:56</time>
      </trkpt>
      <trkpt lat="28.37288" lon="-14.10305">
        <ele>329.6</ele>
        <time>2021-07-05 11:48:57</time>
      </trkpt>
      <trkpt lat="28.37286" lon="-14.10312">
        <ele>329.6</ele>
        <time>2021-07-05 11:48:58</time>
      </trkpt>
      <trkpt lat="28.37284" lon="-14.10319">
        <ele>329.4</ele>
        <time>2021-07-05 11:48:59</time>
      </trkpt>
      <trkpt lat="28.37282" lon="-14.10326">
        <ele>329.4</ele>
        <time>2021-07-05 11:49:00</time>
      </trkpt>
      <trkpt lat="28.3728" lon="-14.10333">
        <ele>329</ele>
        <time>2021-07-05 11:49:01</time>
      </trkpt>
      <trkpt lat="28.37279" lon="-14.1034">
        <ele>329</ele>
        <time>2021-07-05 11:49:02</time>
      </trkpt>
      <trkpt lat="28.37277" lon="-14.10348">
        <ele>329</ele>
        <time>2021-07-05 11:49:03</time>
      </trkpt>
      <trkpt lat="28.37276" lon="-14.10355">
        <ele>329</ele>
        <time>2021-07-05 11:49:04</time>
      </trkpt>
      <trkpt lat="28.37275" lon="-14.10362">
        <ele>329</ele>
        <time>2021-07-05 11:49:05</time>
      </trkpt>
      <trkpt lat="28.37273" lon="-14.10369">
        <ele>329</ele>
        <time>2021-07-05 11:49:06</time>
      </trkpt>
      <trkpt lat="28.37272" lon="-14.10376">
        <ele>329</ele>
        <time>2021-07-05 11:49:07</time>
      </trkpt>
      <trkpt lat="28.37271" lon="-14.10384">
        <ele>329</ele>
        <time>2021-07-05 11:49:08</time>
      </trkpt>
      <trkpt lat="28.3727" lon="-14.10391">
        <ele>329</ele>
        <time>2021-07-05 11:49:09</time>
      </trkpt>
      <trkpt lat="28.37268" lon="-14.10398">
        <ele>329</ele>
        <time>2021-07-05 11:49:10</time>
      </trkpt>
      <trkpt lat="28.37266" lon="-14.10405">
        <ele>328.8</ele>
        <time>2021-07-05 11:49:11</time>
      </trkpt>
      <trkpt lat="28.37264" lon="-14.10412">
        <ele>328.8</ele>
        <time>2021-07-05 11:49:12</time>
      </trkpt>
      <trkpt lat="28.37261" lon="-14.10419">
        <ele>328.8</ele>
        <time>2021-07-05 11:49:13</time>
      </trkpt>
      <trkpt lat="28.37259" lon="-14.10426">
        <ele>328</ele>
        <time>2021-07-05 11:49:14</time>
      </trkpt>
      <trkpt lat="28.37255" lon="-14.10433">
        <ele>328</ele>
        <time>2021-07-05 11:49:15</time>
      </trkpt>
      <trkpt lat="28.37252" lon="-14.1044">
        <ele>328</ele>
        <time>2021-07-05 11:49:16</time>
      </trkpt>
      <trkpt lat="28.37249" lon="-14.10446">
        <ele>327.8</ele>
        <time>2021-07-05 11:49:17</time>
      </trkpt>
      <trkpt lat="28.37244" lon="-14.10451">
        <ele>327.8</ele>
        <time>2021-07-05 11:49:18</time>
      </trkpt>
      <trkpt lat="28.3724" lon="-14.10457">
        <ele>327.6</ele>
        <time>2021-07-05 11:49:19</time>
      </trkpt>
      <trkpt lat="28.37235" lon="-14.10462">
        <ele>327.6</ele>
        <time>2021-07-05 11:49:20</time>
      </trkpt>
      <trkpt lat="28.3723" lon="-14.10467">
        <ele>327.2</ele>
        <time>2021-07-05 11:49:21</time>
      </trkpt>
      <trkpt lat="28.37224" lon="-14.10471">
        <ele>327.2</ele>
        <time>2021-07-05 11:49:22</time>
      </trkpt>
      <trkpt lat="28.37218" lon="-14.10475">
        <ele>327</ele>
        <time>2021-07-05 11:49:23</time>
      </trkpt>
      <trkpt lat="28.37211" lon="-14.10477">
        <ele>326.6</ele>
        <time>2021-07-05 11:49:24</time>
      </trkpt>
      <trkpt lat="28.37205" lon="-14.10479">
        <ele>326.6</ele>
        <time>2021-07-05 11:49:25</time>
      </trkpt>
      <trkpt lat="28.37198" lon="-14.10481">
        <ele>326.2</ele>
        <time>2021-07-05 11:49:26</time>
      </trkpt>
      <trkpt lat="28.3719" lon="-14.10482">
        <ele>326.2</ele>
        <time>2021-07-05 11:49:27</time>
      </trkpt>
      <trkpt lat="28.37183" lon="-14.10483">
        <ele>326.2</ele>
        <time>2021-07-05 11:49:28</time>
      </trkpt>
      <trkpt lat="28.37175" lon="-14.10482">
        <ele>325.8</ele>
        <time>2021-07-05 11:49:29</time>
      </trkpt>
      <trkpt lat="28.37168" lon="-14.1048">
        <ele>325.4</ele>
        <time>2021-07-05 11:49:30</time>
      </trkpt>
      <trkpt lat="28.37161" lon="-14.10477">
        <ele>325</ele>
        <time>2021-07-05 11:49:31</time>
      </trkpt>
      <trkpt lat="28.37155" lon="-14.10472">
        <ele>324.8</ele>
        <time>2021-07-05 11:49:32</time>
      </trkpt>
      <trkpt lat="28.37149" lon="-14.10466">
        <ele>324</ele>
        <time>2021-07-05 11:49:33</time>
      </trkpt>
      <trkpt lat="28.37144" lon="-14.10458">
        <ele>324</ele>
        <time>2021-07-05 11:49:34</time>
      </trkpt>
      <trkpt lat="28.37141" lon="-14.10449">
        <ele>323.4</ele>
        <time>2021-07-05 11:49:35</time>
      </trkpt>
      <trkpt lat="28.37137" lon="-14.1044">
        <ele>323.2</ele>
        <time>2021-07-05 11:49:36</time>
      </trkpt>
      <trkpt lat="28.37134" lon="-14.10431">
        <ele>322.6</ele>
        <time>2021-07-05 11:49:37</time>
      </trkpt>
      <trkpt lat="28.37131" lon="-14.10421">
        <ele>322.2</ele>
        <time>2021-07-05 11:49:38</time>
      </trkpt>
      <trkpt lat="28.37127" lon="-14.10411">
        <ele>321.8</ele>
        <time>2021-07-05 11:49:39</time>
      </trkpt>
      <trkpt lat="28.37124" lon="-14.10402">
        <ele>321</ele>
        <time>2021-07-05 11:49:40</time>
      </trkpt>
      <trkpt lat="28.37118" lon="-14.10393">
        <ele>321</ele>
        <time>2021-07-05 11:49:41</time>
      </trkpt>
      <trkpt lat="28.37112" lon="-14.10386">
        <ele>320.6</ele>
        <time>2021-07-05 11:49:42</time>
      </trkpt>
      <trkpt lat="28.37106" lon="-14.10378">
        <ele>320.4</ele>
        <time>2021-07-05 11:49:43</time>
      </trkpt>
      <trkpt lat="28.371" lon="-14.1037">
        <ele>319.6</ele>
        <time>2021-07-05 11:49:44</time>
      </trkpt>
      <trkpt lat="28.37094" lon="-14.10363">
        <ele>319.6</ele>
        <time>2021-07-05 11:49:45</time>
      </trkpt>
      <trkpt lat="28.37088" lon="-14.10356">
        <ele>319.2</ele>
        <time>2021-07-05 11:49:46</time>
      </trkpt>
      <trkpt lat="28.37082" lon="-14.1035">
        <ele>319.2</ele>
        <time>2021-07-05 11:49:47</time>
      </trkpt>
      <trkpt lat="28.37076" lon="-14.10343">
        <ele>318.6</ele>
        <time>2021-07-05 11:49:48</time>
      </trkpt>
      <trkpt lat="28.37071" lon="-14.10336">
        <ele>318.4</ele>
        <time>2021-07-05 11:49:49</time>
      </trkpt>
      <trkpt lat="28.37066" lon="-14.10329">
        <ele>318.4</ele>
        <time>2021-07-05 11:49:50</time>
      </trkpt>
      <trkpt lat="28.3706" lon="-14.10322">
        <ele>318</ele>
        <time>2021-07-05 11:49:51</time>
      </trkpt>
      <trkpt lat="28.37055" lon="-14.10314">
        <ele>318</ele>
        <time>2021-07-05 11:49:52</time>
      </trkpt>
      <trkpt lat="28.3705" lon="-14.10307">
        <ele>317.8</ele>
        <time>2021-07-05 11:49:53</time>
      </trkpt>
      <trkpt lat="28.37045" lon="-14.103">
        <ele>317.6</ele>
        <time>2021-07-05 11:49:54</time>
      </trkpt>
      <trkpt lat="28.3704" lon="-14.10293">
        <ele>317</ele>
        <time>2021-07-05 11:49:55</time>
      </trkpt>
      <trkpt lat="28.37035" lon="-14.10287">
        <ele>317</ele>
        <time>2021-07-05 11:49:56</time>
      </trkpt>
      <trkpt lat="28.37028" lon="-14.10282">
        <ele>316.6</ele>
        <time>2021-07-05 11:49:57</time>
      </trkpt>
      <trkpt lat="28.37021" lon="-14.10279">
        <ele>316.4</ele>
        <time>2021-07-05 11:49:58</time>
      </trkpt>
      <trkpt lat="28.37014" lon="-14.10279">
        <ele>316.4</ele>
        <time>2021-07-05 11:49:59</time>
      </trkpt>
      <trkpt lat="28.37007" lon="-14.10282">
        <ele>316</ele>
        <time>2021-07-05 11:50:00</time>
      </trkpt>
      <trkpt lat="28.37002" lon="-14.10288">
        <ele>316</ele>
        <time>2021-07-05 11:50:01</time>
      </trkpt>
      <trkpt lat="28.36998" lon="-14.10295">
        <ele>315.6</ele>
        <time>2021-07-05 11:50:02</time>
      </trkpt>
      <trkpt lat="28.36997" lon="-14.10302">
        <ele>315.6</ele>
        <time>2021-07-05 11:50:03</time>
      </trkpt>
      <trkpt lat="28.36998" lon="-14.10311">
        <ele>315.6</ele>
        <time>2021-07-05 11:50:04</time>
      </trkpt>
      <trkpt lat="28.36998" lon="-14.1032">
        <ele>315.6</ele>
        <time>2021-07-05 11:50:05</time>
      </trkpt>
      <trkpt lat="28.36998" lon="-14.10328">
        <ele>315.6</ele>
        <time>2021-07-05 11:50:06</time>
      </trkpt>
      <trkpt lat="28.36998" lon="-14.10337">
        <ele>315.2</ele>
        <time>2021-07-05 11:50:07</time>
      </trkpt>
      <trkpt lat="28.36999" lon="-14.10345">
        <ele>315.2</ele>
        <time>2021-07-05 11:50:08</time>
      </trkpt>
      <trkpt lat="28.36999" lon="-14.10354">
        <ele>315</ele>
        <time>2021-07-05 11:50:09</time>
      </trkpt>
      <trkpt lat="28.37" lon="-14.10362">
        <ele>315</ele>
        <time>2021-07-05 11:50:10</time>
      </trkpt>
      <trkpt lat="28.37" lon="-14.10371">
        <ele>315</ele>
        <time>2021-07-05 11:50:11</time>
      </trkpt>
      <trkpt lat="28.37001" lon="-14.1038">
        <ele>314.8</ele>
        <time>2021-07-05 11:50:12</time>
      </trkpt>
      <trkpt lat="28.37001" lon="-14.10388">
        <ele>314.8</ele>
        <time>2021-07-05 11:50:13</time>
      </trkpt>
      <trkpt lat="28.37002" lon="-14.10396">
        <ele>314.8</ele>
        <time>2021-07-05 11:50:14</time>
      </trkpt>
      <trkpt lat="28.37002" lon="-14.10404">
        <ele>314.6</ele>
        <time>2021-07-05 11:50:15</time>
      </trkpt>
      <trkpt lat="28.37001" lon="-14.10413">
        <ele>314.6</ele>
        <time>2021-07-05 11:50:16</time>
      </trkpt>
      <trkpt lat="28.36999" lon="-14.10421">
        <ele>314.6</ele>
        <time>2021-07-05 11:50:17</time>
      </trkpt>
      <trkpt lat="28.36998" lon="-14.1043">
        <ele>314.4</ele>
        <time>2021-07-05 11:50:18</time>
      </trkpt>
      <trkpt lat="28.36996" lon="-14.10438">
        <ele>314.4</ele>
        <time>2021-07-05 11:50:19</time>
      </trkpt>
      <trkpt lat="28.36994" lon="-14.10447">
        <ele>314.4</ele>
        <time>2021-07-05 11:50:20</time>
      </trkpt>
      <trkpt lat="28.36991" lon="-14.10455">
        <ele>314</ele>
        <time>2021-07-05 11:50:21</time>
      </trkpt>
      <trkpt lat="28.36989" lon="-14.10463">
        <ele>313.6</ele>
        <time>2021-07-05 11:50:22</time>
      </trkpt>
      <trkpt lat="28.36987" lon="-14.10472">
        <ele>313.6</ele>
        <time>2021-07-05 11:50:23</time>
      </trkpt>
      <trkpt lat="28.36985" lon="-14.1048">
        <ele>313.2</ele>
        <time>2021-07-05 11:50:24</time>
      </trkpt>
      <trkpt lat="28.36985" lon="-14.1048">
        <ele>313</ele>
        <time>2021-07-05 11:50:25</time>
      </trkpt>
      <trkpt lat="28.3698" lon="-14.10496">
        <ele>313</ele>
        <time>2021-07-05 11:50:26</time>
      </trkpt>
      <trkpt lat="28.36977" lon="-14.10504">
        <ele>313</ele>
        <time>2021-07-05 11:50:27</time>
      </trkpt>
      <trkpt lat="28.36975" lon="-14.10512">
        <ele>312.8</ele>
        <time>2021-07-05 11:50:28</time>
      </trkpt>
      <trkpt lat="28.36972" lon="-14.1052">
        <ele>312.6</ele>
        <time>2021-07-05 11:50:29</time>
      </trkpt>
      <trkpt lat="28.36969" lon="-14.10528">
        <ele>312.6</ele>
        <time>2021-07-05 11:50:30</time>
      </trkpt>
      <trkpt lat="28.36965" lon="-14.10535">
        <ele>312.2</ele>
        <time>2021-07-05 11:50:31</time>
      </trkpt>
      <trkpt lat="28.36961" lon="-14.10542">
        <ele>312.2</ele>
        <time>2021-07-05 11:50:32</time>
      </trkpt>
      <trkpt lat="28.36955" lon="-14.10549">
        <ele>312.2</ele>
        <time>2021-07-05 11:50:33</time>
      </trkpt>
      <trkpt lat="28.3695" lon="-14.10555">
        <ele>311.8</ele>
        <time>2021-07-05 11:50:34</time>
      </trkpt>
      <trkpt lat="28.36943" lon="-14.10559">
        <ele>311.6</ele>
        <time>2021-07-05 11:50:35</time>
      </trkpt>
      <trkpt lat="28.36935" lon="-14.10563">
        <ele>311.4</ele>
        <time>2021-07-05 11:50:36</time>
      </trkpt>
      <trkpt lat="28.36928" lon="-14.10565">
        <ele>311.2</ele>
        <time>2021-07-05 11:50:37</time>
      </trkpt>
      <trkpt lat="28.3692" lon="-14.10565">
        <ele>310.8</ele>
        <time>2021-07-05 11:50:38</time>
      </trkpt>
      <trkpt lat="28.36912" lon="-14.10564">
        <ele>310.4</ele>
        <time>2021-07-05 11:50:39</time>
      </trkpt>
      <trkpt lat="28.36905" lon="-14.10562">
        <ele>310</ele>
        <time>2021-07-05 11:50:40</time>
      </trkpt>
      <trkpt lat="28.36898" lon="-14.10559">
        <ele>309.6</ele>
        <time>2021-07-05 11:50:41</time>
      </trkpt>
      <trkpt lat="28.3689" lon="-14.10555">
        <ele>309.2</ele>
        <time>2021-07-05 11:50:42</time>
      </trkpt>
      <trkpt lat="28.36883" lon="-14.1055">
        <ele>309.2</ele>
        <time>2021-07-05 11:50:43</time>
      </trkpt>
      <trkpt lat="28.36877" lon="-14.10546">
        <ele>308.6</ele>
        <time>2021-07-05 11:50:44</time>
      </trkpt>
      <trkpt lat="28.3687" lon="-14.10541">
        <ele>308.6</ele>
        <time>2021-07-05 11:50:45</time>
      </trkpt>
      <trkpt lat="28.36864" lon="-14.10535">
        <ele>308.4</ele>
        <time>2021-07-05 11:50:46</time>
      </trkpt>
      <trkpt lat="28.36858" lon="-14.10529">
        <ele>307.8</ele>
        <time>2021-07-05 11:50:47</time>
      </trkpt>
      <trkpt lat="28.36853" lon="-14.10523">
        <ele>307.8</ele>
        <time>2021-07-05 11:50:48</time>
      </trkpt>
      <trkpt lat="28.36848" lon="-14.10516">
        <ele>307.4</ele>
        <time>2021-07-05 11:50:49</time>
      </trkpt>
      <trkpt lat="28.36843" lon="-14.10508">
        <ele>306.8</ele>
        <time>2021-07-05 11:50:50</time>
      </trkpt>
      <trkpt lat="28.36839" lon="-14.105">
        <ele>306.6</ele>
        <time>2021-07-05 11:50:51</time>
      </trkpt>
      <trkpt lat="28.36835" lon="-14.10492">
        <ele>306.6</ele>
        <time>2021-07-05 11:50:52</time>
      </trkpt>
      <trkpt lat="28.36831" lon="-14.10484">
        <ele>306.2</ele>
        <time>2021-07-05 11:50:53</time>
      </trkpt>
      <trkpt lat="28.36825" lon="-14.10478">
        <ele>305.6</ele>
        <time>2021-07-05 11:50:54</time>
      </trkpt>
      <trkpt lat="28.36818" lon="-14.10475">
        <ele>305.6</ele>
        <time>2021-07-05 11:50:55</time>
      </trkpt>
      <trkpt lat="28.36811" lon="-14.10476">
        <ele>305.6</ele>
        <time>2021-07-05 11:50:56</time>
      </trkpt>
      <trkpt lat="28.36805" lon="-14.1048">
        <ele>305.2</ele>
        <time>2021-07-05 11:50:57</time>
      </trkpt>
      <trkpt lat="28.36802" lon="-14.10486">
        <ele>305.2</ele>
        <time>2021-07-05 11:50:58</time>
      </trkpt>
      <trkpt lat="28.368" lon="-14.10493">
        <ele>305</ele>
        <time>2021-07-05 11:50:59</time>
      </trkpt>
      <trkpt lat="28.36797" lon="-14.10501">
        <ele>305</ele>
        <time>2021-07-05 11:51:00</time>
      </trkpt>
      <trkpt lat="28.36795" lon="-14.10508">
        <ele>305</ele>
        <time>2021-07-05 11:51:01</time>
      </trkpt>
      <trkpt lat="28.36792" lon="-14.10516">
        <ele>304.8</ele>
        <time>2021-07-05 11:51:02</time>
      </trkpt>
      <trkpt lat="28.3679" lon="-14.10524">
        <ele>304.8</ele>
        <time>2021-07-05 11:51:03</time>
      </trkpt>
      <trkpt lat="28.36788" lon="-14.10532">
        <ele>304.8</ele>
        <time>2021-07-05 11:51:04</time>
      </trkpt>
      <trkpt lat="28.36786" lon="-14.1054">
        <ele>304.6</ele>
        <time>2021-07-05 11:51:05</time>
      </trkpt>
      <trkpt lat="28.36784" lon="-14.10548">
        <ele>304.6</ele>
        <time>2021-07-05 11:51:06</time>
      </trkpt>
      <trkpt lat="28.36782" lon="-14.10556">
        <ele>304.6</ele>
        <time>2021-07-05 11:51:07</time>
      </trkpt>
      <trkpt lat="28.36781" lon="-14.10564">
        <ele>304.6</ele>
        <time>2021-07-05 11:51:08</time>
      </trkpt>
      <trkpt lat="28.36779" lon="-14.10572">
        <ele>304.6</ele>
        <time>2021-07-05 11:51:09</time>
      </trkpt>
      <trkpt lat="28.36778" lon="-14.1058">
        <ele>304.6</ele>
        <time>2021-07-05 11:51:10</time>
      </trkpt>
      <trkpt lat="28.36777" lon="-14.10588">
        <ele>304.4</ele>
        <time>2021-07-05 11:51:11</time>
      </trkpt>
      <trkpt lat="28.36775" lon="-14.10596">
        <ele>304.4</ele>
        <time>2021-07-05 11:51:12</time>
      </trkpt>
      <trkpt lat="28.36774" lon="-14.10603">
        <ele>304.4</ele>
        <time>2021-07-05 11:51:13</time>
      </trkpt>
      <trkpt lat="28.36773" lon="-14.10611">
        <ele>304.4</ele>
        <time>2021-07-05 11:51:14</time>
      </trkpt>
      <trkpt lat="28.36772" lon="-14.10619">
        <ele>304.4</ele>
        <time>2021-07-05 11:51:15</time>
      </trkpt>
      <trkpt lat="28.36771" lon="-14.10627">
        <ele>304.4</ele>
        <time>2021-07-05 11:51:16</time>
      </trkpt>
      <trkpt lat="28.36769" lon="-14.10634">
        <ele>304.4</ele>
        <time>2021-07-05 11:51:17</time>
      </trkpt>
      <trkpt lat="28.36768" lon="-14.10642">
        <ele>304.2</ele>
        <time>2021-07-05 11:51:18</time>
      </trkpt>
      <trkpt lat="28.36767" lon="-14.1065">
        <ele>304.2</ele>
        <time>2021-07-05 11:51:19</time>
      </trkpt>
      <trkpt lat="28.36766" lon="-14.10658">
        <ele>304.2</ele>
        <time>2021-07-05 11:51:20</time>
      </trkpt>
      <trkpt lat="28.36765" lon="-14.10666">
        <ele>304.2</ele>
        <time>2021-07-05 11:51:21</time>
      </trkpt>
      <trkpt lat="28.36763" lon="-14.10673">
        <ele>304.2</ele>
        <time>2021-07-05 11:51:22</time>
      </trkpt>
      <trkpt lat="28.36762" lon="-14.10681">
        <ele>304.2</ele>
        <time>2021-07-05 11:51:23</time>
      </trkpt>
      <trkpt lat="28.3676" lon="-14.10689">
        <ele>304.2</ele>
        <time>2021-07-05 11:51:24</time>
      </trkpt>
      <trkpt lat="28.36759" lon="-14.10697">
        <ele>304.2</ele>
        <time>2021-07-05 11:51:25</time>
      </trkpt>
      <trkpt lat="28.36756" lon="-14.10705">
        <ele>304.2</ele>
        <time>2021-07-05 11:51:26</time>
      </trkpt>
      <trkpt lat="28.36753" lon="-14.10712">
        <ele>304.2</ele>
        <time>2021-07-05 11:51:27</time>
      </trkpt>
      <trkpt lat="28.36749" lon="-14.10719">
        <ele>304.2</ele>
        <time>2021-07-05 11:51:28</time>
      </trkpt>
      <trkpt lat="28.36745" lon="-14.10726">
        <ele>303.8</ele>
        <time>2021-07-05 11:51:29</time>
      </trkpt>
      <trkpt lat="28.3674" lon="-14.10732">
        <ele>303.6</ele>
        <time>2021-07-05 11:51:30</time>
      </trkpt>
      <trkpt lat="28.36734" lon="-14.10737">
        <ele>303.2</ele>
        <time>2021-07-05 11:51:31</time>
      </trkpt>
      <trkpt lat="28.36728" lon="-14.10742">
        <ele>302.8</ele>
        <time>2021-07-05 11:51:32</time>
      </trkpt>
      <trkpt lat="28.3672" lon="-14.10745">
        <ele>302.8</ele>
        <time>2021-07-05 11:51:33</time>
      </trkpt>
      <trkpt lat="28.36712" lon="-14.10747">
        <ele>302.2</ele>
        <time>2021-07-05 11:51:34</time>
      </trkpt>
      <trkpt lat="28.36704" lon="-14.10748">
        <ele>301.8</ele>
        <time>2021-07-05 11:51:35</time>
      </trkpt>
      <trkpt lat="28.36696" lon="-14.10747">
        <ele>301.8</ele>
        <time>2021-07-05 11:51:36</time>
      </trkpt>
      <trkpt lat="28.36688" lon="-14.10746">
        <ele>301.4</ele>
        <time>2021-07-05 11:51:37</time>
      </trkpt>
      <trkpt lat="28.36679" lon="-14.10745">
        <ele>300.4</ele>
        <time>2021-07-05 11:51:38</time>
      </trkpt>
      <trkpt lat="28.3667" lon="-14.10745">
        <ele>300</ele>
        <time>2021-07-05 11:51:39</time>
      </trkpt>
      <trkpt lat="28.36661" lon="-14.10745">
        <ele>300</ele>
        <time>2021-07-05 11:51:40</time>
      </trkpt>
      <trkpt lat="28.36652" lon="-14.10745">
        <ele>299.6</ele>
        <time>2021-07-05 11:51:41</time>
      </trkpt>
      <trkpt lat="28.36643" lon="-14.10746">
        <ele>299.2</ele>
        <time>2021-07-05 11:51:42</time>
      </trkpt>
      <trkpt lat="28.36634" lon="-14.10745">
        <ele>298.8</ele>
        <time>2021-07-05 11:51:43</time>
      </trkpt>
      <trkpt lat="28.36625" lon="-14.10744">
        <ele>298.6</ele>
        <time>2021-07-05 11:51:44</time>
      </trkpt>
      <trkpt lat="28.36616" lon="-14.10742">
        <ele>298.2</ele>
        <time>2021-07-05 11:51:45</time>
      </trkpt>
      <trkpt lat="28.36607" lon="-14.10738">
        <ele>297.8</ele>
        <time>2021-07-05 11:51:46</time>
      </trkpt>
      <trkpt lat="28.36599" lon="-14.10731">
        <ele>297.4</ele>
        <time>2021-07-05 11:51:47</time>
      </trkpt>
      <trkpt lat="28.36593" lon="-14.10724">
        <ele>297.2</ele>
        <time>2021-07-05 11:51:48</time>
      </trkpt>
      <trkpt lat="28.36587" lon="-14.10715">
        <ele>296</ele>
        <time>2021-07-05 11:51:49</time>
      </trkpt>
      <trkpt lat="28.36582" lon="-14.10705">
        <ele>295.6</ele>
        <time>2021-07-05 11:51:50</time>
      </trkpt>
      <trkpt lat="28.36579" lon="-14.10695">
        <ele>295.6</ele>
        <time>2021-07-05 11:51:51</time>
      </trkpt>
      <trkpt lat="28.36576" lon="-14.10685">
        <ele>295</ele>
        <time>2021-07-05 11:51:52</time>
      </trkpt>
      <trkpt lat="28.36575" lon="-14.10674">
        <ele>293.8</ele>
        <time>2021-07-05 11:51:53</time>
      </trkpt>
      <trkpt lat="28.36574" lon="-14.10664">
        <ele>293.8</ele>
        <time>2021-07-05 11:51:54</time>
      </trkpt>
      <trkpt lat="28.36574" lon="-14.10654">
        <ele>293.2</ele>
        <time>2021-07-05 11:51:55</time>
      </trkpt>
      <trkpt lat="28.36572" lon="-14.10645">
        <ele>292.6</ele>
        <time>2021-07-05 11:51:56</time>
      </trkpt>
      <trkpt lat="28.3657" lon="-14.10637">
        <ele>292.2</ele>
        <time>2021-07-05 11:51:57</time>
      </trkpt>
      <trkpt lat="28.36565" lon="-14.10631">
        <ele>291.2</ele>
        <time>2021-07-05 11:51:58</time>
      </trkpt>
      <trkpt lat="28.36559" lon="-14.10627">
        <ele>290.8</ele>
        <time>2021-07-05 11:51:59</time>
      </trkpt>
      <trkpt lat="28.36552" lon="-14.10627">
        <ele>290.8</ele>
        <time>2021-07-05 11:52:00</time>
      </trkpt>
      <trkpt lat="28.36546" lon="-14.10631">
        <ele>290.4</ele>
        <time>2021-07-05 11:52:01</time>
      </trkpt>
      <trkpt lat="28.36542" lon="-14.10637">
        <ele>289.8</ele>
        <time>2021-07-05 11:52:02</time>
      </trkpt>
      <trkpt lat="28.36536" lon="-14.10643">
        <ele>289.8</ele>
        <time>2021-07-05 11:52:03</time>
      </trkpt>
      <trkpt lat="28.36532" lon="-14.10648">
        <ele>289.2</ele>
        <time>2021-07-05 11:52:04</time>
      </trkpt>
      <trkpt lat="28.36527" lon="-14.10654">
        <ele>289</ele>
        <time>2021-07-05 11:52:05</time>
      </trkpt>
      <trkpt lat="28.36523" lon="-14.1066">
        <ele>289</ele>
        <time>2021-07-05 11:52:06</time>
      </trkpt>
      <trkpt lat="28.36518" lon="-14.10666">
        <ele>288.6</ele>
        <time>2021-07-05 11:52:07</time>
      </trkpt>
      <trkpt lat="28.36513" lon="-14.10671">
        <ele>288.4</ele>
        <time>2021-07-05 11:52:08</time>
      </trkpt>
      <trkpt lat="28.36507" lon="-14.10676">
        <ele>288</ele>
        <time>2021-07-05 11:52:09</time>
      </trkpt>
      <trkpt lat="28.36501" lon="-14.10679">
        <ele>288</ele>
        <time>2021-07-05 11:52:10</time>
      </trkpt>
      <trkpt lat="28.36495" lon="-14.10682">
        <ele>287.4</ele>
        <time>2021-07-05 11:52:11</time>
      </trkpt>
      <trkpt lat="28.36488" lon="-14.10684">
        <ele>287.4</ele>
        <time>2021-07-05 11:52:12</time>
      </trkpt>
      <trkpt lat="28.36481" lon="-14.10686">
        <ele>287</ele>
        <time>2021-07-05 11:52:13</time>
      </trkpt>
      <trkpt lat="28.36473" lon="-14.10688">
        <ele>286.8</ele>
        <time>2021-07-05 11:52:14</time>
      </trkpt>
      <trkpt lat="28.36466" lon="-14.10689">
        <ele>286.4</ele>
        <time>2021-07-05 11:52:15</time>
      </trkpt>
      <trkpt lat="28.36458" lon="-14.10691">
        <ele>286.4</ele>
        <time>2021-07-05 11:52:16</time>
      </trkpt>
      <trkpt lat="28.36451" lon="-14.10693">
        <ele>286</ele>
        <time>2021-07-05 11:52:17</time>
      </trkpt>
      <trkpt lat="28.36443" lon="-14.10694">
        <ele>285.6</ele>
        <time>2021-07-05 11:52:18</time>
      </trkpt>
      <trkpt lat="28.36436" lon="-14.10695">
        <ele>285.4</ele>
        <time>2021-07-05 11:52:19</time>
      </trkpt>
      <trkpt lat="28.36429" lon="-14.10696">
        <ele>284.6</ele>
        <time>2021-07-05 11:52:20</time>
      </trkpt>
      <trkpt lat="28.36421" lon="-14.10698">
        <ele>284.6</ele>
        <time>2021-07-05 11:52:21</time>
      </trkpt>
      <trkpt lat="28.36413" lon="-14.10699">
        <ele>284</ele>
        <time>2021-07-05 11:52:22</time>
      </trkpt>
      <trkpt lat="28.36405" lon="-14.10701">
        <ele>284</ele>
        <time>2021-07-05 11:52:23</time>
      </trkpt>
      <trkpt lat="28.36396" lon="-14.10703">
        <ele>283.6</ele>
        <time>2021-07-05 11:52:24</time>
      </trkpt>
      <trkpt lat="28.36388" lon="-14.10704">
        <ele>283.4</ele>
        <time>2021-07-05 11:52:25</time>
      </trkpt>
      <trkpt lat="28.36379" lon="-14.10706">
        <ele>283</ele>
        <time>2021-07-05 11:52:26</time>
      </trkpt>
      <trkpt lat="28.3637" lon="-14.10708">
        <ele>282.6</ele>
        <time>2021-07-05 11:52:27</time>
      </trkpt>
      <trkpt lat="28.36362" lon="-14.1071">
        <ele>282.2</ele>
        <time>2021-07-05 11:52:28</time>
      </trkpt>
      <trkpt lat="28.36353" lon="-14.10713">
        <ele>281.8</ele>
        <time>2021-07-05 11:52:29</time>
      </trkpt>
      <trkpt lat="28.36345" lon="-14.10718">
        <ele>281.2</ele>
        <time>2021-07-05 11:52:30</time>
      </trkpt>
      <trkpt lat="28.36336" lon="-14.10722">
        <ele>280.8</ele>
        <time>2021-07-05 11:52:31</time>
      </trkpt>
      <trkpt lat="28.36328" lon="-14.10727">
        <ele>280.4</ele>
        <time>2021-07-05 11:52:32</time>
      </trkpt>
      <trkpt lat="28.36319" lon="-14.10732">
        <ele>279.8</ele>
        <time>2021-07-05 11:52:33</time>
      </trkpt>
      <trkpt lat="28.36311" lon="-14.10737">
        <ele>279.6</ele>
        <time>2021-07-05 11:52:34</time>
      </trkpt>
      <trkpt lat="28.36303" lon="-14.10742">
        <ele>279.6</ele>
        <time>2021-07-05 11:52:35</time>
      </trkpt>
      <trkpt lat="28.36295" lon="-14.10748">
        <ele>279.6</ele>
        <time>2021-07-05 11:52:36</time>
      </trkpt>
      <trkpt lat="28.36286" lon="-14.10753">
        <ele>279.2</ele>
        <time>2021-07-05 11:52:37</time>
      </trkpt>
      <trkpt lat="28.36278" lon="-14.10758">
        <ele>278.8</ele>
        <time>2021-07-05 11:52:38</time>
      </trkpt>
      <trkpt lat="28.36269" lon="-14.10763">
        <ele>278.2</ele>
        <time>2021-07-05 11:52:39</time>
      </trkpt>
      <trkpt lat="28.36261" lon="-14.10769">
        <ele>278.2</ele>
        <time>2021-07-05 11:52:40</time>
      </trkpt>
      <trkpt lat="28.36253" lon="-14.10774">
        <ele>277.6</ele>
        <time>2021-07-05 11:52:41</time>
      </trkpt>
      <trkpt lat="28.36245" lon="-14.10779">
        <ele>277.4</ele>
        <time>2021-07-05 11:52:42</time>
      </trkpt>
      <trkpt lat="28.36236" lon="-14.10784">
        <ele>277.4</ele>
        <time>2021-07-05 11:52:43</time>
      </trkpt>
      <trkpt lat="28.36228" lon="-14.10789">
        <ele>277.2</ele>
        <time>2021-07-05 11:52:44</time>
      </trkpt>
      <trkpt lat="28.3622" lon="-14.10794">
        <ele>277.2</ele>
        <time>2021-07-05 11:52:45</time>
      </trkpt>
      <trkpt lat="28.36211" lon="-14.10799">
        <ele>276.8</ele>
        <time>2021-07-05 11:52:46</time>
      </trkpt>
      <trkpt lat="28.36203" lon="-14.10804">
        <ele>276.4</ele>
        <time>2021-07-05 11:52:47</time>
      </trkpt>
      <trkpt lat="28.36194" lon="-14.10809">
        <ele>276.2</ele>
        <time>2021-07-05 11:52:48</time>
      </trkpt>
      <trkpt lat="28.36185" lon="-14.10814">
        <ele>276</ele>
        <time>2021-07-05 11:52:49</time>
      </trkpt>
      <trkpt lat="28.36176" lon="-14.10818">
        <ele>275.6</ele>
        <time>2021-07-05 11:52:50</time>
      </trkpt>
      <trkpt lat="28.36167" lon="-14.10823">
        <ele>274.8</ele>
        <time>2021-07-05 11:52:51</time>
      </trkpt>
      <trkpt lat="28.36158" lon="-14.10828">
        <ele>274.4</ele>
        <time>2021-07-05 11:52:52</time>
      </trkpt>
      <trkpt lat="28.36149" lon="-14.10832">
        <ele>274</ele>
        <time>2021-07-05 11:52:53</time>
      </trkpt>
      <trkpt lat="28.36139" lon="-14.10837">
        <ele>274</ele>
        <time>2021-07-05 11:52:54</time>
      </trkpt>
      <trkpt lat="28.36129" lon="-14.1084">
        <ele>273.6</ele>
        <time>2021-07-05 11:52:55</time>
      </trkpt>
      <trkpt lat="28.36119" lon="-14.10844">
        <ele>273</ele>
        <time>2021-07-05 11:52:56</time>
      </trkpt>
      <trkpt lat="28.36109" lon="-14.10847">
        <ele>272.4</ele>
        <time>2021-07-05 11:52:57</time>
      </trkpt>
      <trkpt lat="28.36098" lon="-14.1085">
        <ele>272</ele>
        <time>2021-07-05 11:52:58</time>
      </trkpt>
      <trkpt lat="28.36087" lon="-14.10853">
        <ele>270.8</ele>
        <time>2021-07-05 11:52:59</time>
      </trkpt>
      <trkpt lat="28.36076" lon="-14.10855">
        <ele>270.8</ele>
        <time>2021-07-05 11:53:00</time>
      </trkpt>
      <trkpt lat="28.36065" lon="-14.10856">
        <ele>270.2</ele>
        <time>2021-07-05 11:53:01</time>
      </trkpt>
      <trkpt lat="28.36055" lon="-14.10858">
        <ele>269</ele>
        <time>2021-07-05 11:53:02</time>
      </trkpt>
      <trkpt lat="28.36045" lon="-14.10859">
        <ele>268.4</ele>
        <time>2021-07-05 11:53:03</time>
      </trkpt>
      <trkpt lat="28.36035" lon="-14.10859">
        <ele>267.8</ele>
        <time>2021-07-05 11:53:04</time>
      </trkpt>
      <trkpt lat="28.36025" lon="-14.10858">
        <ele>267</ele>
        <time>2021-07-05 11:53:05</time>
      </trkpt>
      <trkpt lat="28.36016" lon="-14.10857">
        <ele>267</ele>
        <time>2021-07-05 11:53:06</time>
      </trkpt>
      <trkpt lat="28.36008" lon="-14.10856">
        <ele>266.6</ele>
        <time>2021-07-05 11:53:07</time>
      </trkpt>
      <trkpt lat="28.35999" lon="-14.10857">
        <ele>266</ele>
        <time>2021-07-05 11:53:08</time>
      </trkpt>
      <trkpt lat="28.35991" lon="-14.10862">
        <ele>265.6</ele>
        <time>2021-07-05 11:53:09</time>
      </trkpt>
      <trkpt lat="28.35985" lon="-14.10869">
        <ele>265</ele>
        <time>2021-07-05 11:53:10</time>
      </trkpt>
      <trkpt lat="28.3598" lon="-14.10877">
        <ele>265</ele>
        <time>2021-07-05 11:53:11</time>
      </trkpt>
      <trkpt lat="28.35976" lon="-14.10886">
        <ele>264.6</ele>
        <time>2021-07-05 11:53:12</time>
      </trkpt>
      <trkpt lat="28.35971" lon="-14.10894">
        <ele>264.4</ele>
        <time>2021-07-05 11:53:13</time>
      </trkpt>
      <trkpt lat="28.35966" lon="-14.10902">
        <ele>264.2</ele>
        <time>2021-07-05 11:53:14</time>
      </trkpt>
      <trkpt lat="28.35959" lon="-14.1091">
        <ele>263.8</ele>
        <time>2021-07-05 11:53:15</time>
      </trkpt>
      <trkpt lat="28.35953" lon="-14.10918">
        <ele>263.4</ele>
        <time>2021-07-05 11:53:16</time>
      </trkpt>
      <trkpt lat="28.35947" lon="-14.10925">
        <ele>263</ele>
        <time>2021-07-05 11:53:17</time>
      </trkpt>
      <trkpt lat="28.35941" lon="-14.10933">
        <ele>262.6</ele>
        <time>2021-07-05 11:53:18</time>
      </trkpt>
      <trkpt lat="28.35934" lon="-14.1094">
        <ele>262.2</ele>
        <time>2021-07-05 11:53:19</time>
      </trkpt>
      <trkpt lat="28.35927" lon="-14.10947">
        <ele>261.6</ele>
        <time>2021-07-05 11:53:20</time>
      </trkpt>
      <trkpt lat="28.3592" lon="-14.10955">
        <ele>261.6</ele>
        <time>2021-07-05 11:53:21</time>
      </trkpt>
      <trkpt lat="28.35912" lon="-14.10962">
        <ele>261.2</ele>
        <time>2021-07-05 11:53:22</time>
      </trkpt>
      <trkpt lat="28.35904" lon="-14.10969">
        <ele>260.6</ele>
        <time>2021-07-05 11:53:23</time>
      </trkpt>
      <trkpt lat="28.35897" lon="-14.10977">
        <ele>260.6</ele>
        <time>2021-07-05 11:53:24</time>
      </trkpt>
      <trkpt lat="28.3589" lon="-14.10984">
        <ele>260.2</ele>
        <time>2021-07-05 11:53:25</time>
      </trkpt>
      <trkpt lat="28.35883" lon="-14.1099">
        <ele>259.8</ele>
        <time>2021-07-05 11:53:26</time>
      </trkpt>
      <trkpt lat="28.35875" lon="-14.10997">
        <ele>259.2</ele>
        <time>2021-07-05 11:53:27</time>
      </trkpt>
      <trkpt lat="28.35869" lon="-14.11003">
        <ele>258.6</ele>
        <time>2021-07-05 11:53:28</time>
      </trkpt>
      <trkpt lat="28.35862" lon="-14.1101">
        <ele>258.2</ele>
        <time>2021-07-05 11:53:29</time>
      </trkpt>
      <trkpt lat="28.35856" lon="-14.11018">
        <ele>257.4</ele>
        <time>2021-07-05 11:53:30</time>
      </trkpt>
      <trkpt lat="28.35852" lon="-14.11027">
        <ele>257</ele>
        <time>2021-07-05 11:53:31</time>
      </trkpt>
      <trkpt lat="28.35847" lon="-14.11035">
        <ele>256.4</ele>
        <time>2021-07-05 11:53:32</time>
      </trkpt>
      <trkpt lat="28.35844" lon="-14.11045">
        <ele>256</ele>
        <time>2021-07-05 11:53:33</time>
      </trkpt>
      <trkpt lat="28.3584" lon="-14.11054">
        <ele>255.6</ele>
        <time>2021-07-05 11:53:34</time>
      </trkpt>
      <trkpt lat="28.35837" lon="-14.11063">
        <ele>255.2</ele>
        <time>2021-07-05 11:53:35</time>
      </trkpt>
      <trkpt lat="28.35834" lon="-14.11073">
        <ele>255</ele>
        <time>2021-07-05 11:53:36</time>
      </trkpt>
      <trkpt lat="28.35831" lon="-14.11081">
        <ele>254.2</ele>
        <time>2021-07-05 11:53:37</time>
      </trkpt>
      <trkpt lat="28.35827" lon="-14.1109">
        <ele>253.8</ele>
        <time>2021-07-05 11:53:38</time>
      </trkpt>
      <trkpt lat="28.35824" lon="-14.111">
        <ele>253.8</ele>
        <time>2021-07-05 11:53:39</time>
      </trkpt>
      <trkpt lat="28.35821" lon="-14.11109">
        <ele>253.4</ele>
        <time>2021-07-05 11:53:40</time>
      </trkpt>
      <trkpt lat="28.35818" lon="-14.11117">
        <ele>253</ele>
        <time>2021-07-05 11:53:41</time>
      </trkpt>
      <trkpt lat="28.35815" lon="-14.11126">
        <ele>252.2</ele>
        <time>2021-07-05 11:53:42</time>
      </trkpt>
      <trkpt lat="28.35811" lon="-14.11135">
        <ele>251.8</ele>
        <time>2021-07-05 11:53:43</time>
      </trkpt>
      <trkpt lat="28.35808" lon="-14.11144">
        <ele>251.6</ele>
        <time>2021-07-05 11:53:44</time>
      </trkpt>
      <trkpt lat="28.35804" lon="-14.11153">
        <ele>251.6</ele>
        <time>2021-07-05 11:53:45</time>
      </trkpt>
      <trkpt lat="28.358" lon="-14.11162">
        <ele>250.8</ele>
        <time>2021-07-05 11:53:46</time>
      </trkpt>
      <trkpt lat="28.35795" lon="-14.1117">
        <ele>250.6</ele>
        <time>2021-07-05 11:53:47</time>
      </trkpt>
      <trkpt lat="28.3579" lon="-14.11178">
        <ele>250.6</ele>
        <time>2021-07-05 11:53:48</time>
      </trkpt>
      <trkpt lat="28.35786" lon="-14.11186">
        <ele>250.2</ele>
        <time>2021-07-05 11:53:49</time>
      </trkpt>
      <trkpt lat="28.35781" lon="-14.11194">
        <ele>249.8</ele>
        <time>2021-07-05 11:53:50</time>
      </trkpt>
      <trkpt lat="28.35776" lon="-14.11201">
        <ele>249.6</ele>
        <time>2021-07-05 11:53:51</time>
      </trkpt>
      <trkpt lat="28.35771" lon="-14.11209">
        <ele>249.4</ele>
        <time>2021-07-05 11:53:52</time>
      </trkpt>
      <trkpt lat="28.35766" lon="-14.11216">
        <ele>248.6</ele>
        <time>2021-07-05 11:53:53</time>
      </trkpt>
      <trkpt lat="28.35759" lon="-14.11222">
        <ele>248.6</ele>
        <time>2021-07-05 11:53:54</time>
      </trkpt>
      <trkpt lat="28.35751" lon="-14.11225">
        <ele>247.8</ele>
        <time>2021-07-05 11:53:55</time>
      </trkpt>
      <trkpt lat="28.35743" lon="-14.11228">
        <ele>247.8</ele>
        <time>2021-07-05 11:53:56</time>
      </trkpt>
      <trkpt lat="28.35735" lon="-14.1123">
        <ele>247.2</ele>
        <time>2021-07-05 11:53:57</time>
      </trkpt>
      <trkpt lat="28.35727" lon="-14.11229">
        <ele>246.6</ele>
        <time>2021-07-05 11:53:58</time>
      </trkpt>
      <trkpt lat="28.35719" lon="-14.11226">
        <ele>246</ele>
        <time>2021-07-05 11:53:59</time>
      </trkpt>
      <trkpt lat="28.35714" lon="-14.1122">
        <ele>245.2</ele>
        <time>2021-07-05 11:54:00</time>
      </trkpt>
      <trkpt lat="28.3571" lon="-14.11212">
        <ele>244.4</ele>
        <time>2021-07-05 11:54:01</time>
      </trkpt>
      <trkpt lat="28.3571" lon="-14.11203">
        <ele>243.4</ele>
        <time>2021-07-05 11:54:02</time>
      </trkpt>
      <trkpt lat="28.35709" lon="-14.11194">
        <ele>242.6</ele>
        <time>2021-07-05 11:54:03</time>
      </trkpt>
      <trkpt lat="28.3571" lon="-14.11186">
        <ele>241.8</ele>
        <time>2021-07-05 11:54:04</time>
      </trkpt>
      <trkpt lat="28.35711" lon="-14.11177">
        <ele>241</ele>
        <time>2021-07-05 11:54:05</time>
      </trkpt>
      <trkpt lat="28.35712" lon="-14.11169">
        <ele>240.4</ele>
        <time>2021-07-05 11:54:06</time>
      </trkpt>
      <trkpt lat="28.35714" lon="-14.11161">
        <ele>239.6</ele>
        <time>2021-07-05 11:54:07</time>
      </trkpt>
      <trkpt lat="28.35717" lon="-14.11153">
        <ele>239</ele>
        <time>2021-07-05 11:54:08</time>
      </trkpt>
      <trkpt lat="28.35721" lon="-14.11145">
        <ele>238.2</ele>
        <time>2021-07-05 11:54:09</time>
      </trkpt>
      <trkpt lat="28.35723" lon="-14.11136">
        <ele>237.6</ele>
        <time>2021-07-05 11:54:10</time>
      </trkpt>
      <trkpt lat="28.35726" lon="-14.11127">
        <ele>236.4</ele>
        <time>2021-07-05 11:54:11</time>
      </trkpt>
      <trkpt lat="28.35728" lon="-14.11118">
        <ele>236.4</ele>
        <time>2021-07-05 11:54:12</time>
      </trkpt>
      <trkpt lat="28.35728" lon="-14.11109">
        <ele>235.8</ele>
        <time>2021-07-05 11:54:13</time>
      </trkpt>
      <trkpt lat="28.35726" lon="-14.11099">
        <ele>235.2</ele>
        <time>2021-07-05 11:54:14</time>
      </trkpt>
      <trkpt lat="28.3572" lon="-14.11091">
        <ele>234.6</ele>
        <time>2021-07-05 11:54:15</time>
      </trkpt>
      <trkpt lat="28.35713" lon="-14.11085">
        <ele>233.2</ele>
        <time>2021-07-05 11:54:16</time>
      </trkpt>
      <trkpt lat="28.35705" lon="-14.11083">
        <ele>233.2</ele>
        <time>2021-07-05 11:54:17</time>
      </trkpt>
      <trkpt lat="28.35696" lon="-14.11084">
        <ele>232.6</ele>
        <time>2021-07-05 11:54:18</time>
      </trkpt>
      <trkpt lat="28.35688" lon="-14.11084">
        <ele>231.8</ele>
        <time>2021-07-05 11:54:19</time>
      </trkpt>
      <trkpt lat="28.35679" lon="-14.11085">
        <ele>231.2</ele>
        <time>2021-07-05 11:54:20</time>
      </trkpt>
      <trkpt lat="28.3567" lon="-14.11085">
        <ele>230.6</ele>
        <time>2021-07-05 11:54:21</time>
      </trkpt>
      <trkpt lat="28.35661" lon="-14.11086">
        <ele>230.2</ele>
        <time>2021-07-05 11:54:22</time>
      </trkpt>
      <trkpt lat="28.35652" lon="-14.11087">
        <ele>229.6</ele>
        <time>2021-07-05 11:54:23</time>
      </trkpt>
      <trkpt lat="28.35643" lon="-14.11088">
        <ele>229.2</ele>
        <time>2021-07-05 11:54:24</time>
      </trkpt>
      <trkpt lat="28.35633" lon="-14.11088">
        <ele>228.6</ele>
        <time>2021-07-05 11:54:25</time>
      </trkpt>
      <trkpt lat="28.35624" lon="-14.11089">
        <ele>228.6</ele>
        <time>2021-07-05 11:54:26</time>
      </trkpt>
      <trkpt lat="28.35614" lon="-14.11089">
        <ele>228</ele>
        <time>2021-07-05 11:54:27</time>
      </trkpt>
      <trkpt lat="28.35604" lon="-14.1109">
        <ele>228</ele>
        <time>2021-07-05 11:54:28</time>
      </trkpt>
      <trkpt lat="28.35595" lon="-14.11091">
        <ele>227.6</ele>
        <time>2021-07-05 11:54:29</time>
      </trkpt>
      <trkpt lat="28.35585" lon="-14.11092">
        <ele>227.2</ele>
        <time>2021-07-05 11:54:30</time>
      </trkpt>
      <trkpt lat="28.35575" lon="-14.11093">
        <ele>227</ele>
        <time>2021-07-05 11:54:31</time>
      </trkpt>
      <trkpt lat="28.35565" lon="-14.11093">
        <ele>226.6</ele>
        <time>2021-07-05 11:54:32</time>
      </trkpt>
      <trkpt lat="28.35555" lon="-14.11095">
        <ele>226.4</ele>
        <time>2021-07-05 11:54:33</time>
      </trkpt>
      <trkpt lat="28.35545" lon="-14.11096">
        <ele>226.2</ele>
        <time>2021-07-05 11:54:34</time>
      </trkpt>
      <trkpt lat="28.35534" lon="-14.11096">
        <ele>225.8</ele>
        <time>2021-07-05 11:54:35</time>
      </trkpt>
      <trkpt lat="28.35524" lon="-14.11096">
        <ele>225.6</ele>
        <time>2021-07-05 11:54:36</time>
      </trkpt>
      <trkpt lat="28.35513" lon="-14.11095">
        <ele>225.2</ele>
        <time>2021-07-05 11:54:37</time>
      </trkpt>
      <trkpt lat="28.35503" lon="-14.11093">
        <ele>224.8</ele>
        <time>2021-07-05 11:54:38</time>
      </trkpt>
      <trkpt lat="28.35492" lon="-14.11091">
        <ele>224.4</ele>
        <time>2021-07-05 11:54:39</time>
      </trkpt>
      <trkpt lat="28.35482" lon="-14.11088">
        <ele>224.2</ele>
        <time>2021-07-05 11:54:40</time>
      </trkpt>
      <trkpt lat="28.35473" lon="-14.11085">
        <ele>223.6</ele>
        <time>2021-07-05 11:54:41</time>
      </trkpt>
      <trkpt lat="28.35463" lon="-14.1108">
        <ele>223.2</ele>
        <time>2021-07-05 11:54:42</time>
      </trkpt>
      <trkpt lat="28.35455" lon="-14.11074">
        <ele>222.2</ele>
        <time>2021-07-05 11:54:43</time>
      </trkpt>
      <trkpt lat="28.35448" lon="-14.11066">
        <ele>222.2</ele>
        <time>2021-07-05 11:54:44</time>
      </trkpt>
      <trkpt lat="28.35442" lon="-14.11058">
        <ele>221.8</ele>
        <time>2021-07-05 11:54:45</time>
      </trkpt>
      <trkpt lat="28.35437" lon="-14.1105">
        <ele>221.4</ele>
        <time>2021-07-05 11:54:46</time>
      </trkpt>
      <trkpt lat="28.35434" lon="-14.1104">
        <ele>220.4</ele>
        <time>2021-07-05 11:54:47</time>
      </trkpt>
      <trkpt lat="28.35435" lon="-14.11029">
        <ele>220.4</ele>
        <time>2021-07-05 11:54:48</time>
      </trkpt>
      <trkpt lat="28.35436" lon="-14.11019">
        <ele>220</ele>
        <time>2021-07-05 11:54:49</time>
      </trkpt>
      <trkpt lat="28.35437" lon="-14.11009">
        <ele>219.2</ele>
        <time>2021-07-05 11:54:50</time>
      </trkpt>
      <trkpt lat="28.3544" lon="-14.11">
        <ele>219.2</ele>
        <time>2021-07-05 11:54:51</time>
      </trkpt>
      <trkpt lat="28.35444" lon="-14.1099">
        <ele>218.4</ele>
        <time>2021-07-05 11:54:52</time>
      </trkpt>
      <trkpt lat="28.35448" lon="-14.10981">
        <ele>218</ele>
        <time>2021-07-05 11:54:53</time>
      </trkpt>
      <trkpt lat="28.35454" lon="-14.10973">
        <ele>218</ele>
        <time>2021-07-05 11:54:54</time>
      </trkpt>
      <trkpt lat="28.35459" lon="-14.10965">
        <ele>217.4</ele>
        <time>2021-07-05 11:54:55</time>
      </trkpt>
      <trkpt lat="28.35464" lon="-14.10957">
        <ele>217.4</ele>
        <time>2021-07-05 11:54:56</time>
      </trkpt>
      <trkpt lat="28.3547" lon="-14.10949">
        <ele>216.8</ele>
        <time>2021-07-05 11:54:57</time>
      </trkpt>
      <trkpt lat="28.35476" lon="-14.10941">
        <ele>216.8</ele>
        <time>2021-07-05 11:54:58</time>
      </trkpt>
      <trkpt lat="28.35482" lon="-14.10934">
        <ele>216.4</ele>
        <time>2021-07-05 11:54:59</time>
      </trkpt>
      <trkpt lat="28.35489" lon="-14.10928">
        <ele>216</ele>
        <time>2021-07-05 11:55:00</time>
      </trkpt>
      <trkpt lat="28.35495" lon="-14.10922">
        <ele>215.6</ele>
        <time>2021-07-05 11:55:01</time>
      </trkpt>
      <trkpt lat="28.35501" lon="-14.10916">
        <ele>214.8</ele>
        <time>2021-07-05 11:55:02</time>
      </trkpt>
      <trkpt lat="28.35507" lon="-14.10909">
        <ele>214.2</ele>
        <time>2021-07-05 11:55:03</time>
      </trkpt>
      <trkpt lat="28.35511" lon="-14.10902">
        <ele>214.2</ele>
        <time>2021-07-05 11:55:04</time>
      </trkpt>
      <trkpt lat="28.35512" lon="-14.10894">
        <ele>213.8</ele>
        <time>2021-07-05 11:55:05</time>
      </trkpt>
      <trkpt lat="28.35509" lon="-14.10886">
        <ele>213</ele>
        <time>2021-07-05 11:55:06</time>
      </trkpt>
      <trkpt lat="28.35503" lon="-14.10881">
        <ele>213</ele>
        <time>2021-07-05 11:55:07</time>
      </trkpt>
      <trkpt lat="28.35497" lon="-14.10879">
        <ele>212.6</ele>
        <time>2021-07-05 11:55:08</time>
      </trkpt>
      <trkpt lat="28.3549" lon="-14.10879">
        <ele>212.2</ele>
        <time>2021-07-05 11:55:09</time>
      </trkpt>
      <trkpt lat="28.35483" lon="-14.1088">
        <ele>211.6</ele>
        <time>2021-07-05 11:55:10</time>
      </trkpt>
      <trkpt lat="28.35476" lon="-14.10882">
        <ele>211.2</ele>
        <time>2021-07-05 11:55:11</time>
      </trkpt>
      <trkpt lat="28.35469" lon="-14.10884">
        <ele>211</ele>
        <time>2021-07-05 11:55:12</time>
      </trkpt>
      <trkpt lat="28.35462" lon="-14.10886">
        <ele>210.4</ele>
        <time>2021-07-05 11:55:13</time>
      </trkpt>
      <trkpt lat="28.35455" lon="-14.10889">
        <ele>210.4</ele>
        <time>2021-07-05 11:55:14</time>
      </trkpt>
      <trkpt lat="28.35449" lon="-14.10891">
        <ele>210</ele>
        <time>2021-07-05 11:55:15</time>
      </trkpt>
      <trkpt lat="28.35442" lon="-14.10893">
        <ele>210</ele>
        <time>2021-07-05 11:55:16</time>
      </trkpt>
      <trkpt lat="28.35435" lon="-14.10895">
        <ele>209.6</ele>
        <time>2021-07-05 11:55:17</time>
      </trkpt>
      <trkpt lat="28.35429" lon="-14.10897">
        <ele>209.6</ele>
        <time>2021-07-05 11:55:18</time>
      </trkpt>
      <trkpt lat="28.35422" lon="-14.109">
        <ele>209.4</ele>
        <time>2021-07-05 11:55:19</time>
      </trkpt>
      <trkpt lat="28.35416" lon="-14.10902">
        <ele>209</ele>
        <time>2021-07-05 11:55:20</time>
      </trkpt>
      <trkpt lat="28.35409" lon="-14.10905">
        <ele>208.6</ele>
        <time>2021-07-05 11:55:21</time>
      </trkpt>
      <trkpt lat="28.35401" lon="-14.10907">
        <ele>208.6</ele>
        <time>2021-07-05 11:55:22</time>
      </trkpt>
      <trkpt lat="28.35394" lon="-14.10909">
        <ele>208.4</ele>
        <time>2021-07-05 11:55:23</time>
      </trkpt>
      <trkpt lat="28.35387" lon="-14.1091">
        <ele>208</ele>
        <time>2021-07-05 11:55:24</time>
      </trkpt>
      <trkpt lat="28.35378" lon="-14.10914">
        <ele>208</ele>
        <time>2021-07-05 11:55:25</time>
      </trkpt>
      <trkpt lat="28.35371" lon="-14.10916">
        <ele>207.8</ele>
        <time>2021-07-05 11:55:26</time>
      </trkpt>
      <trkpt lat="28.35363" lon="-14.10918">
        <ele>207.4</ele>
        <time>2021-07-05 11:55:27</time>
      </trkpt>
      <trkpt lat="28.35356" lon="-14.10919">
        <ele>207.2</ele>
        <time>2021-07-05 11:55:28</time>
      </trkpt>
      <trkpt lat="28.35349" lon="-14.1092">
        <ele>206.6</ele>
        <time>2021-07-05 11:55:29</time>
      </trkpt>
      <trkpt lat="28.35342" lon="-14.10922">
        <ele>206.6</ele>
        <time>2021-07-05 11:55:30</time>
      </trkpt>
      <trkpt lat="28.35335" lon="-14.10924">
        <ele>206.4</ele>
        <time>2021-07-05 11:55:31</time>
      </trkpt>
      <trkpt lat="28.35328" lon="-14.10925">
        <ele>206.4</ele>
        <time>2021-07-05 11:55:32</time>
      </trkpt>
      <trkpt lat="28.35322" lon="-14.10927">
        <ele>205.6</ele>
        <time>2021-07-05 11:55:33</time>
      </trkpt>
      <trkpt lat="28.35316" lon="-14.10929">
        <ele>205.6</ele>
        <time>2021-07-05 11:55:34</time>
      </trkpt>
      <trkpt lat="28.35309" lon="-14.10931">
        <ele>205.4</ele>
        <time>2021-07-05 11:55:35</time>
      </trkpt>
      <trkpt lat="28.35303" lon="-14.10935">
        <ele>205</ele>
        <time>2021-07-05 11:55:36</time>
      </trkpt>
      <trkpt lat="28.35297" lon="-14.10939">
        <ele>205</ele>
        <time>2021-07-05 11:55:37</time>
      </trkpt>
      <trkpt lat="28.3529" lon="-14.10943">
        <ele>204.6</ele>
        <time>2021-07-05 11:55:38</time>
      </trkpt>
      <trkpt lat="28.35284" lon="-14.10947">
        <ele>204.6</ele>
        <time>2021-07-05 11:55:39</time>
      </trkpt>
      <trkpt lat="28.35278" lon="-14.10952">
        <ele>204</ele>
        <time>2021-07-05 11:55:40</time>
      </trkpt>
      <trkpt lat="28.35272" lon="-14.10957">
        <ele>204</ele>
        <time>2021-07-05 11:55:41</time>
      </trkpt>
      <trkpt lat="28.35267" lon="-14.10961">
        <ele>203.2</ele>
        <time>2021-07-05 11:55:42</time>
      </trkpt>
      <trkpt lat="28.3526" lon="-14.10966">
        <ele>203.2</ele>
        <time>2021-07-05 11:55:43</time>
      </trkpt>
      <trkpt lat="28.35254" lon="-14.10971">
        <ele>202.6</ele>
        <time>2021-07-05 11:55:44</time>
      </trkpt>
      <trkpt lat="28.35247" lon="-14.10975">
        <ele>202.6</ele>
        <time>2021-07-05 11:55:45</time>
      </trkpt>
      <trkpt lat="28.3524" lon="-14.10978">
        <ele>202.2</ele>
        <time>2021-07-05 11:55:46</time>
      </trkpt>
      <trkpt lat="28.35232" lon="-14.10981">
        <ele>201.8</ele>
        <time>2021-07-05 11:55:47</time>
      </trkpt>
      <trkpt lat="28.35226" lon="-14.10983">
        <ele>201.4</ele>
        <time>2021-07-05 11:55:48</time>
      </trkpt>
      <trkpt lat="28.35219" lon="-14.10986">
        <ele>201</ele>
        <time>2021-07-05 11:55:49</time>
      </trkpt>
      <trkpt lat="28.35213" lon="-14.10987">
        <ele>200.6</ele>
        <time>2021-07-05 11:55:50</time>
      </trkpt>
      <trkpt lat="28.35206" lon="-14.10987">
        <ele>199.8</ele>
        <time>2021-07-05 11:55:51</time>
      </trkpt>
      <trkpt lat="28.352" lon="-14.10985">
        <ele>199.8</ele>
        <time>2021-07-05 11:55:52</time>
      </trkpt>
      <trkpt lat="28.35195" lon="-14.10983">
        <ele>199.4</ele>
        <time>2021-07-05 11:55:53</time>
      </trkpt>
      <trkpt lat="28.3519" lon="-14.10978">
        <ele>199</ele>
        <time>2021-07-05 11:55:54</time>
      </trkpt>
      <trkpt lat="28.35187" lon="-14.10971">
        <ele>198.2</ele>
        <time>2021-07-05 11:55:55</time>
      </trkpt>
      <trkpt lat="28.35185" lon="-14.10964">
        <ele>198</ele>
        <time>2021-07-05 11:55:56</time>
      </trkpt>
      <trkpt lat="28.35185" lon="-14.10956">
        <ele>198</ele>
        <time>2021-07-05 11:55:57</time>
      </trkpt>
      <trkpt lat="28.35184" lon="-14.10948">
        <ele>197.6</ele>
        <time>2021-07-05 11:55:58</time>
      </trkpt>
      <trkpt lat="28.35184" lon="-14.10939">
        <ele>197.4</ele>
        <time>2021-07-05 11:55:59</time>
      </trkpt>
      <trkpt lat="28.35183" lon="-14.10931">
        <ele>197.4</ele>
        <time>2021-07-05 11:56:00</time>
      </trkpt>
      <trkpt lat="28.3518" lon="-14.10922">
        <ele>197</ele>
        <time>2021-07-05 11:56:01</time>
      </trkpt>
      <trkpt lat="28.35176" lon="-14.10913">
        <ele>196.6</ele>
        <time>2021-07-05 11:56:02</time>
      </trkpt>
      <trkpt lat="28.35171" lon="-14.10906">
        <ele>196.2</ele>
        <time>2021-07-05 11:56:03</time>
      </trkpt>
      <trkpt lat="28.35164" lon="-14.109">
        <ele>195.8</ele>
        <time>2021-07-05 11:56:04</time>
      </trkpt>
      <trkpt lat="28.35157" lon="-14.10896">
        <ele>195.2</ele>
        <time>2021-07-05 11:56:05</time>
      </trkpt>
      <trkpt lat="28.35149" lon="-14.10893">
        <ele>194.2</ele>
        <time>2021-07-05 11:56:06</time>
      </trkpt>
      <trkpt lat="28.35142" lon="-14.10889">
        <ele>194.2</ele>
        <time>2021-07-05 11:56:07</time>
      </trkpt>
      <trkpt lat="28.35135" lon="-14.10885">
        <ele>193.6</ele>
        <time>2021-07-05 11:56:08</time>
      </trkpt>
      <trkpt lat="28.35128" lon="-14.1088">
        <ele>193.6</ele>
        <time>2021-07-05 11:56:09</time>
      </trkpt>
      <trkpt lat="28.35123" lon="-14.10875">
        <ele>193</ele>
        <time>2021-07-05 11:56:10</time>
      </trkpt>
      <trkpt lat="28.35118" lon="-14.1087">
        <ele>193</ele>
        <time>2021-07-05 11:56:11</time>
      </trkpt>
      <trkpt lat="28.35113" lon="-14.10865">
        <ele>192.6</ele>
        <time>2021-07-05 11:56:12</time>
      </trkpt>
      <trkpt lat="28.35109" lon="-14.10861">
        <ele>192.4</ele>
        <time>2021-07-05 11:56:13</time>
      </trkpt>
      <trkpt lat="28.35105" lon="-14.10857">
        <ele>192.4</ele>
        <time>2021-07-05 11:56:14</time>
      </trkpt>
      <trkpt lat="28.35102" lon="-14.10853">
        <ele>192.4</ele>
        <time>2021-07-05 11:56:15</time>
      </trkpt>
      <trkpt lat="28.35099" lon="-14.10849">
        <ele>192.4</ele>
        <time>2021-07-05 11:56:16</time>
      </trkpt>
      <trkpt lat="28.35097" lon="-14.10845">
        <ele>192.4</ele>
        <time>2021-07-05 11:56:17</time>
      </trkpt>
      <trkpt lat="28.35095" lon="-14.10841">
        <ele>192.4</ele>
        <time>2021-07-05 11:56:18</time>
      </trkpt>
      <trkpt lat="28.35093" lon="-14.10837">
        <ele>192.4</ele>
        <time>2021-07-05 11:56:19</time>
      </trkpt>
      <trkpt lat="28.35091" lon="-14.10833">
        <ele>192.4</ele>
        <time>2021-07-05 11:56:20</time>
      </trkpt>
      <trkpt lat="28.35089" lon="-14.1083">
        <ele>192.4</ele>
        <time>2021-07-05 11:56:21</time>
      </trkpt>
      <trkpt lat="28.35088" lon="-14.10825">
        <ele>192.4</ele>
        <time>2021-07-05 11:56:22</time>
      </trkpt>
      <trkpt lat="28.35086" lon="-14.10821">
        <ele>192.4</ele>
        <time>2021-07-05 11:56:23</time>
      </trkpt>
      <trkpt lat="28.35083" lon="-14.10817">
        <ele>192.4</ele>
        <time>2021-07-05 11:56:24</time>
      </trkpt>
      <trkpt lat="28.35082" lon="-14.10813">
        <ele>192.4</ele>
        <time>2021-07-05 11:56:25</time>
      </trkpt>
      <trkpt lat="28.3508" lon="-14.10809">
        <ele>192.4</ele>
        <time>2021-07-05 11:56:26</time>
      </trkpt>
      <trkpt lat="28.35078" lon="-14.10805">
        <ele>192.4</ele>
        <time>2021-07-05 11:56:27</time>
      </trkpt>
      <trkpt lat="28.35076" lon="-14.108">
        <ele>192.4</ele>
        <time>2021-07-05 11:56:28</time>
      </trkpt>
      <trkpt lat="28.35074" lon="-14.10796">
        <ele>192.4</ele>
        <time>2021-07-05 11:56:29</time>
      </trkpt>
      <trkpt lat="28.35072" lon="-14.10792">
        <ele>192.4</ele>
        <time>2021-07-05 11:56:30</time>
      </trkpt>
      <trkpt lat="28.3507" lon="-14.10787">
        <ele>192.4</ele>
        <time>2021-07-05 11:56:31</time>
      </trkpt>
      <trkpt lat="28.35068" lon="-14.10783">
        <ele>192.4</ele>
        <time>2021-07-05 11:56:32</time>
      </trkpt>
      <trkpt lat="28.35067" lon="-14.10779">
        <ele>192.4</ele>
        <time>2021-07-05 11:56:33</time>
      </trkpt>
      <trkpt lat="28.35065" lon="-14.10775">
        <ele>192.4</ele>
        <time>2021-07-05 11:56:34</time>
      </trkpt>
      <trkpt lat="28.35063" lon="-14.10771">
        <ele>192.4</ele>
        <time>2021-07-05 11:56:35</time>
      </trkpt>
      <trkpt lat="28.35062" lon="-14.10767">
        <ele>192.6</ele>
        <time>2021-07-05 11:56:36</time>
      </trkpt>
      <trkpt lat="28.35061" lon="-14.10764">
        <ele>192.6</ele>
        <time>2021-07-05 11:56:37</time>
      </trkpt>
      <trkpt lat="28.3506" lon="-14.10761">
        <ele>193</ele>
        <time>2021-07-05 11:56:38</time>
      </trkpt>
      <trkpt lat="28.35059" lon="-14.1076">
        <ele>193</ele>
        <time>2021-07-05 11:56:39</time>
      </trkpt>
      <trkpt lat="28.35058" lon="-14.10757">
        <ele>193</ele>
        <time>2021-07-05 11:56:40</time>
      </trkpt>
      <trkpt lat="28.35057" lon="-14.10755">
        <ele>193</ele>
        <time>2021-07-05 11:56:41</time>
      </trkpt>
      <trkpt lat="28.35057" lon="-14.10752">
        <ele>193</ele>
        <time>2021-07-05 11:56:42</time>
      </trkpt>
      <trkpt lat="28.35057" lon="-14.1075">
        <ele>193.2</ele>
        <time>2021-07-05 11:56:43</time>
      </trkpt>
      <trkpt lat="28.35057" lon="-14.10747">
        <ele>193.2</ele>
        <time>2021-07-05 11:56:44</time>
      </trkpt>
      <trkpt lat="28.35058" lon="-14.10745">
        <ele>193.2</ele>
        <time>2021-07-05 11:56:45</time>
      </trkpt>
      <trkpt lat="28.35058" lon="-14.10743">
        <ele>193.2</ele>
        <time>2021-07-05 11:56:46</time>
      </trkpt>
      <trkpt lat="28.35058" lon="-14.1074">
        <ele>193.2</ele>
        <time>2021-07-05 11:56:47</time>
      </trkpt>
      <trkpt lat="28.35058" lon="-14.10738">
        <ele>193.2</ele>
        <time>2021-07-05 11:56:48</time>
      </trkpt>
      <trkpt lat="28.35058" lon="-14.10736">
        <ele>193.4</ele>
        <time>2021-07-05 11:56:49</time>
      </trkpt>
      <trkpt lat="28.35059" lon="-14.10734">
        <ele>193.4</ele>
        <time>2021-07-05 11:56:50</time>
      </trkpt>
      <trkpt lat="28.35059" lon="-14.10732">
        <ele>193.4</ele>
        <time>2021-07-05 11:56:51</time>
      </trkpt>
      <trkpt lat="28.35059" lon="-14.10731">
        <ele>193.4</ele>
        <time>2021-07-05 11:56:52</time>
      </trkpt>
      <trkpt lat="28.3506" lon="-14.10729">
        <ele>193.6</ele>
        <time>2021-07-05 11:56:53</time>
      </trkpt>
      <trkpt lat="28.35061" lon="-14.10727">
        <ele>193.6</ele>
        <time>2021-07-05 11:56:54</time>
      </trkpt>
      <trkpt lat="28.35061" lon="-14.10725">
        <ele>193.6</ele>
        <time>2021-07-05 11:56:55</time>
      </trkpt>
      <trkpt lat="28.35062" lon="-14.10724">
        <ele>193.8</ele>
        <time>2021-07-05 11:56:56</time>
      </trkpt>
      <trkpt lat="28.35062" lon="-14.10722">
        <ele>193.8</ele>
        <time>2021-07-05 11:56:57</time>
      </trkpt>
      <trkpt lat="28.35062" lon="-14.10721">
        <ele>193.8</ele>
        <time>2021-07-05 11:56:58</time>
      </trkpt>
      <trkpt lat="28.35063" lon="-14.10718">
        <ele>193.8</ele>
        <time>2021-07-05 11:56:59</time>
      </trkpt>
      <trkpt lat="28.35063" lon="-14.10716">
        <ele>193.8</ele>
        <time>2021-07-05 11:57:00</time>
      </trkpt>
      <trkpt lat="28.35063" lon="-14.10715">
        <ele>193.8</ele>
        <time>2021-07-05 11:57:01</time>
      </trkpt>
      <trkpt lat="28.35063" lon="-14.10714">
        <ele>193.8</ele>
        <time>2021-07-05 11:57:02</time>
      </trkpt>
      <trkpt lat="28.35063" lon="-14.10712">
        <ele>193.8</ele>
        <time>2021-07-05 11:57:03</time>
      </trkpt>
      <trkpt lat="28.35063" lon="-14.10711">
        <ele>193.8</ele>
        <time>2021-07-05 11:57:04</time>
      </trkpt>
      <trkpt lat="28.35064" lon="-14.1071">
        <ele>193.6</ele>
        <time>2021-07-05 11:57:05</time>
      </trkpt>
      <trkpt lat="28.35064" lon="-14.10709">
        <ele>193.6</ele>
        <time>2021-07-05 11:57:06</time>
      </trkpt>
      <trkpt lat="28.35063" lon="-14.10708">
        <ele>193.4</ele>
        <time>2021-07-05 11:57:07</time>
      </trkpt>
      <trkpt lat="28.35063" lon="-14.10708">
        <ele>193.4</ele>
        <time>2021-07-05 11:57:08</time>
      </trkpt>
      <trkpt lat="28.35062" lon="-14.10708">
        <ele>193.4</ele>
        <time>2021-07-05 11:57:09</time>
      </trkpt>
      <trkpt lat="28.35062" lon="-14.10708">
        <ele>193.4</ele>
        <time>2021-07-05 11:57:10</time>
      </trkpt>
      <trkpt lat="28.35061" lon="-14.10708">
        <ele>193.4</ele>
        <time>2021-07-05 11:57:11</time>
      </trkpt>
      <trkpt lat="28.35061" lon="-14.10708">
        <ele>193.4</ele>
        <time>2021-07-05 11:57:12</time>
      </trkpt>
      <trkpt lat="28.35061" lon="-14.10708">
        <ele>193.4</ele>
        <time>2021-07-05 11:57:13</time>
      </trkpt>
      <trkpt lat="28.35061" lon="-14.10708">
        <ele>192.8</ele>
        <time>2021-07-05 11:57:14</time>
      </trkpt>
      <trkpt lat="28.3507" lon="-14.10709">
        <ele>192.8</ele>
        <time>2021-07-05 12:24:12</time>
      </trkpt>
      <trkpt lat="28.3507" lon="-14.10709">
        <ele>192.2</ele>
        <time>2021-07-05 12:24:13</time>
      </trkpt>
      <trkpt lat="28.35068" lon="-14.10709">
        <ele>191.2</ele>
        <time>2021-07-05 12:24:14</time>
      </trkpt>
      <trkpt lat="28.35067" lon="-14.10713">
        <ele>191.4</ele>
        <time>2021-07-05 12:24:16</time>
      </trkpt>
      <trkpt lat="28.35068" lon="-14.10715">
        <ele>191.4</ele>
        <time>2021-07-05 12:24:17</time>
      </trkpt>
      <trkpt lat="28.35068" lon="-14.10718">
        <ele>191.4</ele>
        <time>2021-07-05 12:24:40</time>
      </trkpt>
      <trkpt lat="28.35068" lon="-14.10721">
        <ele>191.6</ele>
        <time>2021-07-05 12:24:41</time>
      </trkpt>
      <trkpt lat="28.35067" lon="-14.10724">
        <ele>191.6</ele>
        <time>2021-07-05 12:24:42</time>
      </trkpt>
      <trkpt lat="28.35066" lon="-14.10726">
        <ele>191.6</ele>
        <time>2021-07-05 12:24:43</time>
      </trkpt>
      <trkpt lat="28.35064" lon="-14.10728">
        <ele>191.4</ele>
        <time>2021-07-05 12:24:44</time>
      </trkpt>
      <trkpt lat="28.35064" lon="-14.1073">
        <ele>191.4</ele>
        <time>2021-07-05 12:24:45</time>
      </trkpt>
      <trkpt lat="28.35063" lon="-14.10733">
        <ele>191.4</ele>
        <time>2021-07-05 12:24:46</time>
      </trkpt>
      <trkpt lat="28.35062" lon="-14.10735">
        <ele>191.4</ele>
        <time>2021-07-05 12:24:47</time>
      </trkpt>
      <trkpt lat="28.35062" lon="-14.10737">
        <ele>191.4</ele>
        <time>2021-07-05 12:24:48</time>
      </trkpt>
      <trkpt lat="28.35061" lon="-14.1074">
        <ele>191.4</ele>
        <time>2021-07-05 12:24:49</time>
      </trkpt>
      <trkpt lat="28.35061" lon="-14.10742">
        <ele>191.4</ele>
        <time>2021-07-05 12:24:50</time>
      </trkpt>
      <trkpt lat="28.3506" lon="-14.10745">
        <ele>191.4</ele>
        <time>2021-07-05 12:24:51</time>
      </trkpt>
      <trkpt lat="28.3506" lon="-14.10748">
        <ele>191.4</ele>
        <time>2021-07-05 12:24:52</time>
      </trkpt>
      <trkpt lat="28.3506" lon="-14.10751">
        <ele>191.6</ele>
        <time>2021-07-05 12:24:53</time>
      </trkpt>
      <trkpt lat="28.3506" lon="-14.10753">
        <ele>191.6</ele>
        <time>2021-07-05 12:24:54</time>
      </trkpt>
      <trkpt lat="28.3506" lon="-14.10756">
        <ele>191.6</ele>
        <time>2021-07-05 12:24:55</time>
      </trkpt>
      <trkpt lat="28.35062" lon="-14.10758">
        <ele>191.6</ele>
        <time>2021-07-05 12:24:56</time>
      </trkpt>
      <trkpt lat="28.35064" lon="-14.10759">
        <ele>191.2</ele>
        <time>2021-07-05 12:24:57</time>
      </trkpt>
      <trkpt lat="28.35066" lon="-14.1076">
        <ele>191.2</ele>
        <time>2021-07-05 12:24:58</time>
      </trkpt>
      <trkpt lat="28.35069" lon="-14.1076">
        <ele>191</ele>
        <time>2021-07-05 12:24:59</time>
      </trkpt>
      <trkpt lat="28.35072" lon="-14.10761">
        <ele>191</ele>
        <time>2021-07-05 12:25:00</time>
      </trkpt>
      <trkpt lat="28.35074" lon="-14.10761">
        <ele>191</ele>
        <time>2021-07-05 12:25:01</time>
      </trkpt>
      <trkpt lat="28.35077" lon="-14.10761">
        <ele>191</ele>
        <time>2021-07-05 12:25:02</time>
      </trkpt>
      <trkpt lat="28.35079" lon="-14.10761">
        <ele>191</ele>
        <time>2021-07-05 12:25:03</time>
      </trkpt>
      <trkpt lat="28.35081" lon="-14.1076">
        <ele>191</ele>
        <time>2021-07-05 12:25:04</time>
      </trkpt>
      <trkpt lat="28.35082" lon="-14.1076">
        <ele>191</ele>
        <time>2021-07-05 12:25:05</time>
      </trkpt>
      <trkpt lat="28.35085" lon="-14.10759">
        <ele>191</ele>
        <time>2021-07-05 12:25:06</time>
      </trkpt>
      <trkpt lat="28.35086" lon="-14.10759">
        <ele>190.6</ele>
        <time>2021-07-05 12:25:07</time>
      </trkpt>
      <trkpt lat="28.35087" lon="-14.10758">
        <ele>190.4</ele>
        <time>2021-07-05 12:25:08</time>
      </trkpt>
      <trkpt lat="28.35087" lon="-14.10758">
        <ele>190</ele>
        <time>2021-07-05 12:25:09</time>
      </trkpt>
      <trkpt lat="28.35087" lon="-14.10757">
        <ele>190</ele>
        <time>2021-07-05 12:25:10</time>
      </trkpt>
      <trkpt lat="28.35087" lon="-14.10757">
        <ele>189.8</ele>
        <time>2021-07-05 12:25:11</time>
      </trkpt>
      <trkpt lat="28.35087" lon="-14.10756">
        <ele>189.8</ele>
        <time>2021-07-05 12:25:12</time>
      </trkpt>
      <trkpt lat="28.35086" lon="-14.10756">
        <ele>189.6</ele>
        <time>2021-07-05 12:25:13</time>
      </trkpt>
      <trkpt lat="28.35086" lon="-14.10756">
        <ele>189.6</ele>
        <time>2021-07-05 12:25:14</time>
      </trkpt>
      <trkpt lat="28.35087" lon="-14.10756">
        <ele>189.6</ele>
        <time>2021-07-05 12:25:15</time>
      </trkpt>
      <trkpt lat="28.35087" lon="-14.10756">
        <ele>189.8</ele>
        <time>2021-07-05 12:25:16</time>
      </trkpt>
      <trkpt lat="28.35087" lon="-14.10756">
        <ele>191.4</ele>
        <time>2021-07-05 12:25:17</time>
      </trkpt>
      <trkpt lat="28.35087" lon="-14.10755">
        <ele>191.4</ele>
        <time>2021-07-05 12:25:18</time>
      </trkpt>
      <trkpt lat="28.35088" lon="-14.10754">
        <ele>191.4</ele>
        <time>2021-07-05 12:26:28</time>
      </trkpt>
      <trkpt lat="28.35088" lon="-14.10754">
        <ele>191.4</ele>
        <time>2021-07-05 12:26:29</time>
      </trkpt>
      <trkpt lat="28.35088" lon="-14.10753">
        <ele>191.4</ele>
        <time>2021-07-05 12:26:30</time>
      </trkpt>
      <trkpt lat="28.35088" lon="-14.10752">
        <ele>191.4</ele>
        <time>2021-07-05 12:26:31</time>
      </trkpt>
      <trkpt lat="28.35087" lon="-14.10751">
        <ele>191.4</ele>
        <time>2021-07-05 12:26:32</time>
      </trkpt>
      <trkpt lat="28.35086" lon="-14.10749">
        <ele>191.4</ele>
        <time>2021-07-05 12:26:33</time>
      </trkpt>
      <trkpt lat="28.35084" lon="-14.10748">
        <ele>191.2</ele>
        <time>2021-07-05 12:26:34</time>
      </trkpt>
      <trkpt lat="28.35084" lon="-14.10747">
        <ele>191.2</ele>
        <time>2021-07-05 12:26:35</time>
      </trkpt>
      <trkpt lat="28.35082" lon="-14.10745">
        <ele>191.2</ele>
        <time>2021-07-05 12:26:36</time>
      </trkpt>
      <trkpt lat="28.35081" lon="-14.10744">
        <ele>190.8</ele>
        <time>2021-07-05 12:26:37</time>
      </trkpt>
      <trkpt lat="28.35079" lon="-14.10744">
        <ele>190.8</ele>
        <time>2021-07-05 12:26:38</time>
      </trkpt>
      <trkpt lat="28.35077" lon="-14.10745">
        <ele>190.8</ele>
        <time>2021-07-05 12:26:39</time>
      </trkpt>
      <trkpt lat="28.35075" lon="-14.10745">
        <ele>190.8</ele>
        <time>2021-07-05 12:26:40</time>
      </trkpt>
      <trkpt lat="28.35074" lon="-14.10745">
        <ele>190.8</ele>
        <time>2021-07-05 12:26:41</time>
      </trkpt>
      <trkpt lat="28.35072" lon="-14.10745">
        <ele>190.8</ele>
        <time>2021-07-05 12:26:42</time>
      </trkpt>
      <trkpt lat="28.35071" lon="-14.10744">
        <ele>190.8</ele>
        <time>2021-07-05 12:26:43</time>
      </trkpt>
      <trkpt lat="28.3507" lon="-14.10742">
        <ele>190.8</ele>
        <time>2021-07-05 12:26:44</time>
      </trkpt>
      <trkpt lat="28.3507" lon="-14.10739">
        <ele>190.8</ele>
        <time>2021-07-05 12:26:45</time>
      </trkpt>
      <trkpt lat="28.3507" lon="-14.10736">
        <ele>191.2</ele>
        <time>2021-07-05 12:26:46</time>
      </trkpt>
      <trkpt lat="28.35069" lon="-14.10734">
        <ele>191.2</ele>
        <time>2021-07-05 12:26:47</time>
      </trkpt>
      <trkpt lat="28.35068" lon="-14.10732">
        <ele>191.2</ele>
        <time>2021-07-05 12:26:48</time>
      </trkpt>
      <trkpt lat="28.35068" lon="-14.10731">
        <ele>191.2</ele>
        <time>2021-07-05 12:26:49</time>
      </trkpt>
      <trkpt lat="28.35067" lon="-14.10729">
        <ele>191.4</ele>
        <time>2021-07-05 12:26:50</time>
      </trkpt>
      <trkpt lat="28.35066" lon="-14.10728">
        <ele>191.4</ele>
        <time>2021-07-05 12:26:51</time>
      </trkpt>
      <trkpt lat="28.35065" lon="-14.10725">
        <ele>191.4</ele>
        <time>2021-07-05 12:26:52</time>
      </trkpt>
      <trkpt lat="28.35066" lon="-14.10722">
        <ele>191.4</ele>
        <time>2021-07-05 12:26:53</time>
      </trkpt>
      <trkpt lat="28.35066" lon="-14.10719">
        <ele>191.4</ele>
        <time>2021-07-05 12:26:54</time>
      </trkpt>
      <trkpt lat="28.35067" lon="-14.10716">
        <ele>191.4</ele>
        <time>2021-07-05 12:26:55</time>
      </trkpt>
      <trkpt lat="28.35068" lon="-14.10712">
        <ele>191.4</ele>
        <time>2021-07-05 12:26:56</time>
      </trkpt>
      <trkpt lat="28.35069" lon="-14.10709">
        <ele>191.2</ele>
        <time>2021-07-05 12:26:57</time>
      </trkpt>
      <trkpt lat="28.3507" lon="-14.10706">
        <ele>191.2</ele>
        <time>2021-07-05 12:26:58</time>
      </trkpt>
      <trkpt lat="28.35071" lon="-14.10702">
        <ele>191.2</ele>
        <time>2021-07-05 12:26:59</time>
      </trkpt>
      <trkpt lat="28.35072" lon="-14.10698">
        <ele>191</ele>
        <time>2021-07-05 12:27:00</time>
      </trkpt>
      <trkpt lat="28.35073" lon="-14.10695">
        <ele>191</ele>
        <time>2021-07-05 12:27:01</time>
      </trkpt>
      <trkpt lat="28.35074" lon="-14.10691">
        <ele>191</ele>
        <time>2021-07-05 12:27:02</time>
      </trkpt>
      <trkpt lat="28.35076" lon="-14.10687">
        <ele>191</ele>
        <time>2021-07-05 12:27:03</time>
      </trkpt>
      <trkpt lat="28.35077" lon="-14.10684">
        <ele>191.2</ele>
        <time>2021-07-05 12:27:04</time>
      </trkpt>
      <trkpt lat="28.35079" lon="-14.1068">
        <ele>191.2</ele>
        <time>2021-07-05 12:27:05</time>
      </trkpt>
      <trkpt lat="28.3508" lon="-14.10676">
        <ele>191.6</ele>
        <time>2021-07-05 12:27:06</time>
      </trkpt>
      <trkpt lat="28.35082" lon="-14.10672">
        <ele>191.6</ele>
        <time>2021-07-05 12:27:07</time>
      </trkpt>
      <trkpt lat="28.35083" lon="-14.10668">
        <ele>191.6</ele>
        <time>2021-07-05 12:27:08</time>
      </trkpt>
      <trkpt lat="28.35085" lon="-14.10664">
        <ele>191.6</ele>
        <time>2021-07-05 12:27:09</time>
      </trkpt>
      <trkpt lat="28.35086" lon="-14.1066">
        <ele>191.8</ele>
        <time>2021-07-05 12:27:10</time>
      </trkpt>
      <trkpt lat="28.35087" lon="-14.10657">
        <ele>191.8</ele>
        <time>2021-07-05 12:27:11</time>
      </trkpt>
      <trkpt lat="28.35088" lon="-14.10654">
        <ele>191.8</ele>
        <time>2021-07-05 12:27:12</time>
      </trkpt>
      <trkpt lat="28.3509" lon="-14.1065">
        <ele>192</ele>
        <time>2021-07-05 12:27:13</time>
      </trkpt>
      <trkpt lat="28.35092" lon="-14.10647">
        <ele>192</ele>
        <time>2021-07-05 12:27:14</time>
      </trkpt>
      <trkpt lat="28.35094" lon="-14.10643">
        <ele>192</ele>
        <time>2021-07-05 12:27:15</time>
      </trkpt>
      <trkpt lat="28.35096" lon="-14.10639">
        <ele>192</ele>
        <time>2021-07-05 12:27:16</time>
      </trkpt>
      <trkpt lat="28.35097" lon="-14.10635">
        <ele>191.8</ele>
        <time>2021-07-05 12:27:17</time>
      </trkpt>
      <trkpt lat="28.35098" lon="-14.10632">
        <ele>191.8</ele>
        <time>2021-07-05 12:27:18</time>
      </trkpt>
      <trkpt lat="28.351" lon="-14.10628">
        <ele>191.8</ele>
        <time>2021-07-05 12:27:19</time>
      </trkpt>
      <trkpt lat="28.35102" lon="-14.10625">
        <ele>191.8</ele>
        <time>2021-07-05 12:27:20</time>
      </trkpt>
      <trkpt lat="28.35104" lon="-14.10622">
        <ele>191.8</ele>
        <time>2021-07-05 12:27:21</time>
      </trkpt>
      <trkpt lat="28.35106" lon="-14.10619">
        <ele>192.2</ele>
        <time>2021-07-05 12:27:22</time>
      </trkpt>
      <trkpt lat="28.35108" lon="-14.10616">
        <ele>192.2</ele>
        <time>2021-07-05 12:27:23</time>
      </trkpt>
      <trkpt lat="28.35111" lon="-14.10614">
        <ele>192.8</ele>
        <time>2021-07-05 12:27:24</time>
      </trkpt>
      <trkpt lat="28.35113" lon="-14.10611">
        <ele>192.8</ele>
        <time>2021-07-05 12:27:25</time>
      </trkpt>
      <trkpt lat="28.35116" lon="-14.10608">
        <ele>193</ele>
        <time>2021-07-05 12:27:26</time>
      </trkpt>
      <trkpt lat="28.35119" lon="-14.10606">
        <ele>193</ele>
        <time>2021-07-05 12:27:27</time>
      </trkpt>
      <trkpt lat="28.35122" lon="-14.10603">
        <ele>193</ele>
        <time>2021-07-05 12:27:28</time>
      </trkpt>
      <trkpt lat="28.35125" lon="-14.10601">
        <ele>193</ele>
        <time>2021-07-05 12:27:29</time>
      </trkpt>
      <trkpt lat="28.35128" lon="-14.106">
        <ele>193</ele>
        <time>2021-07-05 12:27:30</time>
      </trkpt>
      <trkpt lat="28.35131" lon="-14.10598">
        <ele>193</ele>
        <time>2021-07-05 12:27:31</time>
      </trkpt>
      <trkpt lat="28.35134" lon="-14.10596">
        <ele>193</ele>
        <time>2021-07-05 12:27:32</time>
      </trkpt>
      <trkpt lat="28.35137" lon="-14.10594">
        <ele>193</ele>
        <time>2021-07-05 12:27:33</time>
      </trkpt>
      <trkpt lat="28.35141" lon="-14.10592">
        <ele>193</ele>
        <time>2021-07-05 12:27:34</time>
      </trkpt>
      <trkpt lat="28.35143" lon="-14.1059">
        <ele>193</ele>
        <time>2021-07-05 12:27:35</time>
      </trkpt>
      <trkpt lat="28.35146" lon="-14.10588">
        <ele>193</ele>
        <time>2021-07-05 12:27:36</time>
      </trkpt>
      <trkpt lat="28.35148" lon="-14.10586">
        <ele>193</ele>
        <time>2021-07-05 12:27:37</time>
      </trkpt>
      <trkpt lat="28.35151" lon="-14.10584">
        <ele>193</ele>
        <time>2021-07-05 12:27:38</time>
      </trkpt>
      <trkpt lat="28.35153" lon="-14.10583">
        <ele>192.8</ele>
        <time>2021-07-05 12:27:39</time>
      </trkpt>
      <trkpt lat="28.35155" lon="-14.10581">
        <ele>192.8</ele>
        <time>2021-07-05 12:27:40</time>
      </trkpt>
      <trkpt lat="28.35157" lon="-14.1058">
        <ele>192.8</ele>
        <time>2021-07-05 12:27:41</time>
      </trkpt>
      <trkpt lat="28.3516" lon="-14.10579">
        <ele>192.8</ele>
        <time>2021-07-05 12:27:42</time>
      </trkpt>
      <trkpt lat="28.35162" lon="-14.10578">
        <ele>192.8</ele>
        <time>2021-07-05 12:27:43</time>
      </trkpt>
      <trkpt lat="28.35164" lon="-14.10576">
        <ele>192.8</ele>
        <time>2021-07-05 12:27:44</time>
      </trkpt>
      <trkpt lat="28.35167" lon="-14.10575">
        <ele>193</ele>
        <time>2021-07-05 12:27:45</time>
      </trkpt>
      <trkpt lat="28.35169" lon="-14.10573">
        <ele>193</ele>
        <time>2021-07-05 12:27:46</time>
      </trkpt>
      <trkpt lat="28.35172" lon="-14.10571">
        <ele>193.2</ele>
        <time>2021-07-05 12:27:47</time>
      </trkpt>
      <trkpt lat="28.35175" lon="-14.10569">
        <ele>193.6</ele>
        <time>2021-07-05 12:27:48</time>
      </trkpt>
      <trkpt lat="28.35178" lon="-14.10567">
        <ele>193.6</ele>
        <time>2021-07-05 12:27:49</time>
      </trkpt>
      <trkpt lat="28.35181" lon="-14.10564">
        <ele>193.8</ele>
        <time>2021-07-05 12:27:50</time>
      </trkpt>
      <trkpt lat="28.35184" lon="-14.10562">
        <ele>193.8</ele>
        <time>2021-07-05 12:27:51</time>
      </trkpt>
      <trkpt lat="28.35186" lon="-14.10559">
        <ele>194</ele>
        <time>2021-07-05 12:27:52</time>
      </trkpt>
      <trkpt lat="28.35188" lon="-14.10555">
        <ele>194</ele>
        <time>2021-07-05 12:27:53</time>
      </trkpt>
      <trkpt lat="28.3519" lon="-14.10551">
        <ele>193.8</ele>
        <time>2021-07-05 12:27:54</time>
      </trkpt>
      <trkpt lat="28.35191" lon="-14.10547">
        <ele>193.8</ele>
        <time>2021-07-05 12:27:55</time>
      </trkpt>
      <trkpt lat="28.35192" lon="-14.10543">
        <ele>193.8</ele>
        <time>2021-07-05 12:27:56</time>
      </trkpt>
      <trkpt lat="28.35193" lon="-14.10539">
        <ele>193.4</ele>
        <time>2021-07-05 12:27:57</time>
      </trkpt>
      <trkpt lat="28.35194" lon="-14.10535">
        <ele>193.4</ele>
        <time>2021-07-05 12:27:58</time>
      </trkpt>
      <trkpt lat="28.35195" lon="-14.10531">
        <ele>193.4</ele>
        <time>2021-07-05 12:27:59</time>
      </trkpt>
      <trkpt lat="28.35195" lon="-14.10526">
        <ele>193.4</ele>
        <time>2021-07-05 12:28:00</time>
      </trkpt>
      <trkpt lat="28.35196" lon="-14.10522">
        <ele>193.4</ele>
        <time>2021-07-05 12:28:01</time>
      </trkpt>
      <trkpt lat="28.35197" lon="-14.10518">
        <ele>193.8</ele>
        <time>2021-07-05 12:28:02</time>
      </trkpt>
      <trkpt lat="28.35198" lon="-14.10514">
        <ele>193.8</ele>
        <time>2021-07-05 12:28:03</time>
      </trkpt>
      <trkpt lat="28.35198" lon="-14.10511">
        <ele>194</ele>
        <time>2021-07-05 12:28:04</time>
      </trkpt>
      <trkpt lat="28.35199" lon="-14.10507">
        <ele>194</ele>
        <time>2021-07-05 12:28:05</time>
      </trkpt>
      <trkpt lat="28.35199" lon="-14.10503">
        <ele>194</ele>
        <time>2021-07-05 12:28:06</time>
      </trkpt>
      <trkpt lat="28.35199" lon="-14.10499">
        <ele>194.2</ele>
        <time>2021-07-05 12:28:07</time>
      </trkpt>
      <trkpt lat="28.352" lon="-14.10495">
        <ele>194.2</ele>
        <time>2021-07-05 12:28:08</time>
      </trkpt>
      <trkpt lat="28.352" lon="-14.10492">
        <ele>194.6</ele>
        <time>2021-07-05 12:28:09</time>
      </trkpt>
      <trkpt lat="28.35201" lon="-14.10489">
        <ele>194.6</ele>
        <time>2021-07-05 12:28:10</time>
      </trkpt>
      <trkpt lat="28.35202" lon="-14.10485">
        <ele>194.8</ele>
        <time>2021-07-05 12:28:11</time>
      </trkpt>
      <trkpt lat="28.35202" lon="-14.10482">
        <ele>194.8</ele>
        <time>2021-07-05 12:28:12</time>
      </trkpt>
      <trkpt lat="28.35203" lon="-14.10478">
        <ele>194.8</ele>
        <time>2021-07-05 12:28:13</time>
      </trkpt>
      <trkpt lat="28.35203" lon="-14.10475">
        <ele>194.8</ele>
        <time>2021-07-05 12:28:14</time>
      </trkpt>
      <trkpt lat="28.35204" lon="-14.10471">
        <ele>195.2</ele>
        <time>2021-07-05 12:28:15</time>
      </trkpt>
      <trkpt lat="28.35205" lon="-14.10467">
        <ele>195.2</ele>
        <time>2021-07-05 12:28:16</time>
      </trkpt>
      <trkpt lat="28.35205" lon="-14.10463">
        <ele>195.2</ele>
        <time>2021-07-05 12:28:17</time>
      </trkpt>
      <trkpt lat="28.35206" lon="-14.10458">
        <ele>195.4</ele>
        <time>2021-07-05 12:28:18</time>
      </trkpt>
      <trkpt lat="28.35207" lon="-14.10454">
        <ele>195.4</ele>
        <time>2021-07-05 12:28:19</time>
      </trkpt>
      <trkpt lat="28.35208" lon="-14.10451">
        <ele>195.4</ele>
        <time>2021-07-05 12:28:20</time>
      </trkpt>
      <trkpt lat="28.35209" lon="-14.10447">
        <ele>195.4</ele>
        <time>2021-07-05 12:28:21</time>
      </trkpt>
      <trkpt lat="28.3521" lon="-14.10443">
        <ele>195.4</ele>
        <time>2021-07-05 12:28:22</time>
      </trkpt>
      <trkpt lat="28.3521" lon="-14.10439">
        <ele>195.6</ele>
        <time>2021-07-05 12:28:23</time>
      </trkpt>
      <trkpt lat="28.35211" lon="-14.10435">
        <ele>195.6</ele>
        <time>2021-07-05 12:28:24</time>
      </trkpt>
      <trkpt lat="28.35212" lon="-14.10432">
        <ele>196.2</ele>
        <time>2021-07-05 12:28:25</time>
      </trkpt>
      <trkpt lat="28.35213" lon="-14.10428">
        <ele>196.2</ele>
        <time>2021-07-05 12:28:26</time>
      </trkpt>
      <trkpt lat="28.35213" lon="-14.10424">
        <ele>196.4</ele>
        <time>2021-07-05 12:28:27</time>
      </trkpt>
      <trkpt lat="28.35214" lon="-14.1042">
        <ele>196.4</ele>
        <time>2021-07-05 12:28:28</time>
      </trkpt>
      <trkpt lat="28.35215" lon="-14.10416">
        <ele>196.8</ele>
        <time>2021-07-05 12:28:29</time>
      </trkpt>
      <trkpt lat="28.35216" lon="-14.10412">
        <ele>196.8</ele>
        <time>2021-07-05 12:28:30</time>
      </trkpt>
      <trkpt lat="28.35216" lon="-14.10408">
        <ele>197</ele>
        <time>2021-07-05 12:28:31</time>
      </trkpt>
      <trkpt lat="28.35217" lon="-14.10404">
        <ele>197</ele>
        <time>2021-07-05 12:28:32</time>
      </trkpt>
      <trkpt lat="28.35217" lon="-14.104">
        <ele>197.4</ele>
        <time>2021-07-05 12:28:33</time>
      </trkpt>
      <trkpt lat="28.35217" lon="-14.10396">
        <ele>197.4</ele>
        <time>2021-07-05 12:28:34</time>
      </trkpt>
      <trkpt lat="28.35216" lon="-14.10392">
        <ele>197.6</ele>
        <time>2021-07-05 12:28:35</time>
      </trkpt>
      <trkpt lat="28.35216" lon="-14.10388">
        <ele>197.6</ele>
        <time>2021-07-05 12:28:36</time>
      </trkpt>
      <trkpt lat="28.35216" lon="-14.10384">
        <ele>197.6</ele>
        <time>2021-07-05 12:28:37</time>
      </trkpt>
      <trkpt lat="28.35216" lon="-14.1038">
        <ele>197.8</ele>
        <time>2021-07-05 12:28:38</time>
      </trkpt>
      <trkpt lat="28.35215" lon="-14.10375">
        <ele>197.8</ele>
        <time>2021-07-05 12:28:39</time>
      </trkpt>
      <trkpt lat="28.35215" lon="-14.10371">
        <ele>197.8</ele>
        <time>2021-07-05 12:28:40</time>
      </trkpt>
      <trkpt lat="28.35215" lon="-14.10367">
        <ele>198</ele>
        <time>2021-07-05 12:28:41</time>
      </trkpt>
      <trkpt lat="28.35213" lon="-14.10363">
        <ele>198</ele>
        <time>2021-07-05 12:28:42</time>
      </trkpt>
      <trkpt lat="28.35211" lon="-14.10359">
        <ele>198.2</ele>
        <time>2021-07-05 12:28:43</time>
      </trkpt>
      <trkpt lat="28.35208" lon="-14.10357">
        <ele>198.2</ele>
        <time>2021-07-05 12:28:44</time>
      </trkpt>
      <trkpt lat="28.35205" lon="-14.10354">
        <ele>198.2</ele>
        <time>2021-07-05 12:28:45</time>
      </trkpt>
      <trkpt lat="28.35201" lon="-14.10351">
        <ele>198.2</ele>
        <time>2021-07-05 12:28:46</time>
      </trkpt>
      <trkpt lat="28.35199" lon="-14.10349">
        <ele>198.6</ele>
        <time>2021-07-05 12:28:47</time>
      </trkpt>
      <trkpt lat="28.35196" lon="-14.10346">
        <ele>198.6</ele>
        <time>2021-07-05 12:28:48</time>
      </trkpt>
      <trkpt lat="28.35193" lon="-14.10343">
        <ele>198.6</ele>
        <time>2021-07-05 12:28:49</time>
      </trkpt>
      <trkpt lat="28.3519" lon="-14.1034">
        <ele>198.8</ele>
        <time>2021-07-05 12:28:50</time>
      </trkpt>
      <trkpt lat="28.35187" lon="-14.10336">
        <ele>198.8</ele>
        <time>2021-07-05 12:28:51</time>
      </trkpt>
      <trkpt lat="28.35185" lon="-14.10332">
        <ele>199</ele>
        <time>2021-07-05 12:28:52</time>
      </trkpt>
      <trkpt lat="28.35183" lon="-14.10329">
        <ele>199</ele>
        <time>2021-07-05 12:28:53</time>
      </trkpt>
      <trkpt lat="28.35178" lon="-14.10327">
        <ele>199</ele>
        <time>2021-07-05 12:28:54</time>
      </trkpt>
      <trkpt lat="28.35173" lon="-14.10326">
        <ele>199</ele>
        <time>2021-07-05 12:28:55</time>
      </trkpt>
      <trkpt lat="28.35168" lon="-14.10325">
        <ele>199</ele>
        <time>2021-07-05 12:28:56</time>
      </trkpt>
      <trkpt lat="28.35162" lon="-14.10325">
        <ele>199</ele>
        <time>2021-07-05 12:28:57</time>
      </trkpt>
      <trkpt lat="28.35157" lon="-14.10325">
        <ele>198.8</ele>
        <time>2021-07-05 12:28:58</time>
      </trkpt>
      <trkpt lat="28.35152" lon="-14.10326">
        <ele>198.8</ele>
        <time>2021-07-05 12:28:59</time>
      </trkpt>
      <trkpt lat="28.35147" lon="-14.10326">
        <ele>198.4</ele>
        <time>2021-07-05 12:29:00</time>
      </trkpt>
      <trkpt lat="28.35142" lon="-14.10326">
        <ele>198.4</ele>
        <time>2021-07-05 12:29:01</time>
      </trkpt>
      <trkpt lat="28.35137" lon="-14.10326">
        <ele>198.4</ele>
        <time>2021-07-05 12:29:02</time>
      </trkpt>
      <trkpt lat="28.35133" lon="-14.10325">
        <ele>198.4</ele>
        <time>2021-07-05 12:29:03</time>
      </trkpt>
      <trkpt lat="28.35128" lon="-14.10324">
        <ele>198.4</ele>
        <time>2021-07-05 12:29:04</time>
      </trkpt>
      <trkpt lat="28.35123" lon="-14.10324">
        <ele>198.4</ele>
        <time>2021-07-05 12:29:05</time>
      </trkpt>
      <trkpt lat="28.35118" lon="-14.10322">
        <ele>198.4</ele>
        <time>2021-07-05 12:29:06</time>
      </trkpt>
      <trkpt lat="28.35114" lon="-14.1032">
        <ele>198.6</ele>
        <time>2021-07-05 12:29:07</time>
      </trkpt>
      <trkpt lat="28.3511" lon="-14.10318">
        <ele>198.6</ele>
        <time>2021-07-05 12:29:08</time>
      </trkpt>
      <trkpt lat="28.35105" lon="-14.10315">
        <ele>198.6</ele>
        <time>2021-07-05 12:29:09</time>
      </trkpt>
      <trkpt lat="28.35101" lon="-14.10312">
        <ele>198.6</ele>
        <time>2021-07-05 12:29:10</time>
      </trkpt>
      <trkpt lat="28.35097" lon="-14.10309">
        <ele>198.6</ele>
        <time>2021-07-05 12:29:11</time>
      </trkpt>
      <trkpt lat="28.35093" lon="-14.10306">
        <ele>198.6</ele>
        <time>2021-07-05 12:29:12</time>
      </trkpt>
      <trkpt lat="28.35089" lon="-14.10302">
        <ele>198.6</ele>
        <time>2021-07-05 12:29:13</time>
      </trkpt>
      <trkpt lat="28.35085" lon="-14.10299">
        <ele>199</ele>
        <time>2021-07-05 12:29:14</time>
      </trkpt>
      <trkpt lat="28.35081" lon="-14.10296">
        <ele>199</ele>
        <time>2021-07-05 12:29:15</time>
      </trkpt>
      <trkpt lat="28.35077" lon="-14.10292">
        <ele>199</ele>
        <time>2021-07-05 12:29:16</time>
      </trkpt>
      <trkpt lat="28.35074" lon="-14.10289">
        <ele>199.2</ele>
        <time>2021-07-05 12:29:17</time>
      </trkpt>
      <trkpt lat="28.3507" lon="-14.10285">
        <ele>199.2</ele>
        <time>2021-07-05 12:29:18</time>
      </trkpt>
      <trkpt lat="28.35066" lon="-14.10281">
        <ele>199.2</ele>
        <time>2021-07-05 12:29:19</time>
      </trkpt>
      <trkpt lat="28.35062" lon="-14.10278">
        <ele>199.4</ele>
        <time>2021-07-05 12:29:20</time>
      </trkpt>
      <trkpt lat="28.35058" lon="-14.10275">
        <ele>199.4</ele>
        <time>2021-07-05 12:29:21</time>
      </trkpt>
      <trkpt lat="28.35054" lon="-14.10271">
        <ele>199.4</ele>
        <time>2021-07-05 12:29:22</time>
      </trkpt>
      <trkpt lat="28.3505" lon="-14.10268">
        <ele>199.8</ele>
        <time>2021-07-05 12:29:23</time>
      </trkpt>
      <trkpt lat="28.35047" lon="-14.10264">
        <ele>199.8</ele>
        <time>2021-07-05 12:29:24</time>
      </trkpt>
      <trkpt lat="28.35044" lon="-14.10261">
        <ele>199.8</ele>
        <time>2021-07-05 12:29:25</time>
      </trkpt>
      <trkpt lat="28.3504" lon="-14.10257">
        <ele>199.8</ele>
        <time>2021-07-05 12:29:26</time>
      </trkpt>
      <trkpt lat="28.35037" lon="-14.10254">
        <ele>200</ele>
        <time>2021-07-05 12:29:27</time>
      </trkpt>
      <trkpt lat="28.35034" lon="-14.1025">
        <ele>200</ele>
        <time>2021-07-05 12:29:28</time>
      </trkpt>
      <trkpt lat="28.35032" lon="-14.10246">
        <ele>200</ele>
        <time>2021-07-05 12:29:29</time>
      </trkpt>
      <trkpt lat="28.3503" lon="-14.10242">
        <ele>200</ele>
        <time>2021-07-05 12:29:30</time>
      </trkpt>
      <trkpt lat="28.35028" lon="-14.10238">
        <ele>200.2</ele>
        <time>2021-07-05 12:29:31</time>
      </trkpt>
      <trkpt lat="28.35026" lon="-14.10235">
        <ele>200.2</ele>
        <time>2021-07-05 12:29:32</time>
      </trkpt>
      <trkpt lat="28.35024" lon="-14.10231">
        <ele>200.2</ele>
        <time>2021-07-05 12:29:33</time>
      </trkpt>
      <trkpt lat="28.35022" lon="-14.10228">
        <ele>200.2</ele>
        <time>2021-07-05 12:29:34</time>
      </trkpt>
      <trkpt lat="28.35021" lon="-14.10224">
        <ele>200.2</ele>
        <time>2021-07-05 12:29:35</time>
      </trkpt>
      <trkpt lat="28.3502" lon="-14.10221">
        <ele>200.2</ele>
        <time>2021-07-05 12:29:36</time>
      </trkpt>
      <trkpt lat="28.35019" lon="-14.10217">
        <ele>200.2</ele>
        <time>2021-07-05 12:29:37</time>
      </trkpt>
      <trkpt lat="28.35018" lon="-14.10213">
        <ele>200.4</ele>
        <time>2021-07-05 12:29:38</time>
      </trkpt>
      <trkpt lat="28.35017" lon="-14.1021">
        <ele>200.4</ele>
        <time>2021-07-05 12:29:39</time>
      </trkpt>
      <trkpt lat="28.35016" lon="-14.10206">
        <ele>200.4</ele>
        <time>2021-07-05 12:29:40</time>
      </trkpt>
      <trkpt lat="28.35015" lon="-14.10202">
        <ele>200.8</ele>
        <time>2021-07-05 12:29:41</time>
      </trkpt>
      <trkpt lat="28.35013" lon="-14.10198">
        <ele>200.8</ele>
        <time>2021-07-05 12:29:42</time>
      </trkpt>
      <trkpt lat="28.35012" lon="-14.10194">
        <ele>201</ele>
        <time>2021-07-05 12:29:43</time>
      </trkpt>
      <trkpt lat="28.3501" lon="-14.1019">
        <ele>201</ele>
        <time>2021-07-05 12:29:44</time>
      </trkpt>
      <trkpt lat="28.35009" lon="-14.10187">
        <ele>201.4</ele>
        <time>2021-07-05 12:29:45</time>
      </trkpt>
      <trkpt lat="28.35007" lon="-14.10183">
        <ele>201.4</ele>
        <time>2021-07-05 12:29:46</time>
      </trkpt>
      <trkpt lat="28.35005" lon="-14.10179">
        <ele>201.8</ele>
        <time>2021-07-05 12:29:47</time>
      </trkpt>
      <trkpt lat="28.35003" lon="-14.10176">
        <ele>201.8</ele>
        <time>2021-07-05 12:29:48</time>
      </trkpt>
      <trkpt lat="28.35" lon="-14.10172">
        <ele>201.8</ele>
        <time>2021-07-05 12:29:49</time>
      </trkpt>
      <trkpt lat="28.34998" lon="-14.10169">
        <ele>201.8</ele>
        <time>2021-07-05 12:29:50</time>
      </trkpt>
      <trkpt lat="28.34996" lon="-14.10166">
        <ele>202</ele>
        <time>2021-07-05 12:29:51</time>
      </trkpt>
      <trkpt lat="28.34993" lon="-14.10163">
        <ele>202</ele>
        <time>2021-07-05 12:29:52</time>
      </trkpt>
      <trkpt lat="28.3499" lon="-14.1016">
        <ele>202</ele>
        <time>2021-07-05 12:29:53</time>
      </trkpt>
      <trkpt lat="28.34988" lon="-14.10157">
        <ele>202</ele>
        <time>2021-07-05 12:29:54</time>
      </trkpt>
      <trkpt lat="28.34985" lon="-14.10154">
        <ele>202.2</ele>
        <time>2021-07-05 12:29:55</time>
      </trkpt>
      <trkpt lat="28.34982" lon="-14.10152">
        <ele>202.2</ele>
        <time>2021-07-05 12:29:56</time>
      </trkpt>
      <trkpt lat="28.34979" lon="-14.10149">
        <ele>202.2</ele>
        <time>2021-07-05 12:29:57</time>
      </trkpt>
      <trkpt lat="28.34977" lon="-14.10146">
        <ele>202.4</ele>
        <time>2021-07-05 12:29:58</time>
      </trkpt>
      <trkpt lat="28.34974" lon="-14.10143">
        <ele>202.4</ele>
        <time>2021-07-05 12:29:59</time>
      </trkpt>
      <trkpt lat="28.34972" lon="-14.1014">
        <ele>202.4</ele>
        <time>2021-07-05 12:30:00</time>
      </trkpt>
      <trkpt lat="28.34969" lon="-14.10137">
        <ele>202.6</ele>
        <time>2021-07-05 12:30:01</time>
      </trkpt>
      <trkpt lat="28.34967" lon="-14.10133">
        <ele>203</ele>
        <time>2021-07-05 12:30:02</time>
      </trkpt>
      <trkpt lat="28.34966" lon="-14.10129">
        <ele>203</ele>
        <time>2021-07-05 12:30:03</time>
      </trkpt>
      <trkpt lat="28.34964" lon="-14.10125">
        <ele>203</ele>
        <time>2021-07-05 12:30:04</time>
      </trkpt>
      <trkpt lat="28.34962" lon="-14.10121">
        <ele>203</ele>
        <time>2021-07-05 12:30:05</time>
      </trkpt>
      <trkpt lat="28.3496" lon="-14.10118">
        <ele>203.2</ele>
        <time>2021-07-05 12:30:06</time>
      </trkpt>
      <trkpt lat="28.34958" lon="-14.10115">
        <ele>203.2</ele>
        <time>2021-07-05 12:30:07</time>
      </trkpt>
      <trkpt lat="28.34956" lon="-14.10111">
        <ele>203.8</ele>
        <time>2021-07-05 12:30:08</time>
      </trkpt>
      <trkpt lat="28.34954" lon="-14.10108">
        <ele>203.8</ele>
        <time>2021-07-05 12:30:09</time>
      </trkpt>
      <trkpt lat="28.34952" lon="-14.10104">
        <ele>204</ele>
        <time>2021-07-05 12:30:10</time>
      </trkpt>
      <trkpt lat="28.3495" lon="-14.10101">
        <ele>204.2</ele>
        <time>2021-07-05 12:30:11</time>
      </trkpt>
      <trkpt lat="28.34948" lon="-14.10097">
        <ele>204.2</ele>
        <time>2021-07-05 12:30:12</time>
      </trkpt>
      <trkpt lat="28.34947" lon="-14.10094">
        <ele>204.2</ele>
        <time>2021-07-05 12:30:13</time>
      </trkpt>
      <trkpt lat="28.34945" lon="-14.10091">
        <ele>204.6</ele>
        <time>2021-07-05 12:30:14</time>
      </trkpt>
      <trkpt lat="28.34943" lon="-14.10089">
        <ele>204.6</ele>
        <time>2021-07-05 12:30:15</time>
      </trkpt>
      <trkpt lat="28.34941" lon="-14.10086">
        <ele>204.8</ele>
        <time>2021-07-05 12:30:16</time>
      </trkpt>
      <trkpt lat="28.34938" lon="-14.10084">
        <ele>204.8</ele>
        <time>2021-07-05 12:30:17</time>
      </trkpt>
      <trkpt lat="28.34935" lon="-14.10082">
        <ele>205.2</ele>
        <time>2021-07-05 12:30:18</time>
      </trkpt>
      <trkpt lat="28.34932" lon="-14.1008">
        <ele>205.2</ele>
        <time>2021-07-05 12:30:19</time>
      </trkpt>
      <trkpt lat="28.34929" lon="-14.10078">
        <ele>205.2</ele>
        <time>2021-07-05 12:30:20</time>
      </trkpt>
      <trkpt lat="28.34926" lon="-14.10076">
        <ele>205.4</ele>
        <time>2021-07-05 12:30:21</time>
      </trkpt>
      <trkpt lat="28.34923" lon="-14.10074">
        <ele>205.4</ele>
        <time>2021-07-05 12:30:22</time>
      </trkpt>
      <trkpt lat="28.3492" lon="-14.10071">
        <ele>205.6</ele>
        <time>2021-07-05 12:30:23</time>
      </trkpt>
      <trkpt lat="28.34917" lon="-14.10069">
        <ele>205.6</ele>
        <time>2021-07-05 12:30:24</time>
      </trkpt>
      <trkpt lat="28.34914" lon="-14.10066">
        <ele>205.6</ele>
        <time>2021-07-05 12:30:25</time>
      </trkpt>
      <trkpt lat="28.34911" lon="-14.10063">
        <ele>206</ele>
        <time>2021-07-05 12:30:26</time>
      </trkpt>
      <trkpt lat="28.34908" lon="-14.10061">
        <ele>206</ele>
        <time>2021-07-05 12:30:27</time>
      </trkpt>
      <trkpt lat="28.34906" lon="-14.10058">
        <ele>206</ele>
        <time>2021-07-05 12:30:28</time>
      </trkpt>
      <trkpt lat="28.34903" lon="-14.10055">
        <ele>206</ele>
        <time>2021-07-05 12:30:29</time>
      </trkpt>
      <trkpt lat="28.349" lon="-14.10053">
        <ele>206.2</ele>
        <time>2021-07-05 12:30:30</time>
      </trkpt>
      <trkpt lat="28.34897" lon="-14.1005">
        <ele>206.2</ele>
        <time>2021-07-05 12:30:31</time>
      </trkpt>
      <trkpt lat="28.34894" lon="-14.10048">
        <ele>206.4</ele>
        <time>2021-07-05 12:30:32</time>
      </trkpt>
      <trkpt lat="28.3489" lon="-14.10046">
        <ele>206.6</ele>
        <time>2021-07-05 12:30:33</time>
      </trkpt>
      <trkpt lat="28.34887" lon="-14.10046">
        <ele>207</ele>
        <time>2021-07-05 12:30:34</time>
      </trkpt>
      <trkpt lat="28.34883" lon="-14.10045">
        <ele>207.2</ele>
        <time>2021-07-05 12:30:35</time>
      </trkpt>
      <trkpt lat="28.3488" lon="-14.10045">
        <ele>207.4</ele>
        <time>2021-07-05 12:30:36</time>
      </trkpt>
      <trkpt lat="28.34878" lon="-14.10044">
        <ele>207.8</ele>
        <time>2021-07-05 12:30:37</time>
      </trkpt>
      <trkpt lat="28.34875" lon="-14.10043">
        <ele>208</ele>
        <time>2021-07-05 12:30:38</time>
      </trkpt>
      <trkpt lat="28.34873" lon="-14.10041">
        <ele>208.6</ele>
        <time>2021-07-05 12:30:39</time>
      </trkpt>
      <trkpt lat="28.3487" lon="-14.10039">
        <ele>208.8</ele>
        <time>2021-07-05 12:30:40</time>
      </trkpt>
      <trkpt lat="28.34868" lon="-14.10038">
        <ele>209.6</ele>
        <time>2021-07-05 12:30:41</time>
      </trkpt>
      <trkpt lat="28.34864" lon="-14.10036">
        <ele>209.6</ele>
        <time>2021-07-05 12:30:42</time>
      </trkpt>
      <trkpt lat="28.34861" lon="-14.10035">
        <ele>209.8</ele>
        <time>2021-07-05 12:30:43</time>
      </trkpt>
      <trkpt lat="28.34858" lon="-14.10033">
        <ele>210.2</ele>
        <time>2021-07-05 12:30:44</time>
      </trkpt>
      <trkpt lat="28.34855" lon="-14.10031">
        <ele>210.2</ele>
        <time>2021-07-05 12:30:45</time>
      </trkpt>
      <trkpt lat="28.34852" lon="-14.10029">
        <ele>210.2</ele>
        <time>2021-07-05 12:30:46</time>
      </trkpt>
      <trkpt lat="28.34849" lon="-14.10027">
        <ele>210.2</ele>
        <time>2021-07-05 12:30:47</time>
      </trkpt>
      <trkpt lat="28.34846" lon="-14.10025">
        <ele>210.2</ele>
        <time>2021-07-05 12:30:48</time>
      </trkpt>
      <trkpt lat="28.34843" lon="-14.10024">
        <ele>210.2</ele>
        <time>2021-07-05 12:30:49</time>
      </trkpt>
      <trkpt lat="28.34841" lon="-14.10022">
        <ele>210.4</ele>
        <time>2021-07-05 12:30:50</time>
      </trkpt>
      <trkpt lat="28.34837" lon="-14.10021">
        <ele>210.4</ele>
        <time>2021-07-05 12:30:51</time>
      </trkpt>
      <trkpt lat="28.34834" lon="-14.1002">
        <ele>210.4</ele>
        <time>2021-07-05 12:30:52</time>
      </trkpt>
      <trkpt lat="28.34831" lon="-14.10019">
        <ele>210.4</ele>
        <time>2021-07-05 12:30:53</time>
      </trkpt>
      <trkpt lat="28.34827" lon="-14.10019">
        <ele>210.6</ele>
        <time>2021-07-05 12:30:54</time>
      </trkpt>
      <trkpt lat="28.34823" lon="-14.10019">
        <ele>210.6</ele>
        <time>2021-07-05 12:30:55</time>
      </trkpt>
      <trkpt lat="28.3482" lon="-14.10019">
        <ele>210.6</ele>
        <time>2021-07-05 12:30:56</time>
      </trkpt>
      <trkpt lat="28.34816" lon="-14.1002">
        <ele>210.6</ele>
        <time>2021-07-05 12:30:57</time>
      </trkpt>
      <trkpt lat="28.34812" lon="-14.1002">
        <ele>210.6</ele>
        <time>2021-07-05 12:30:58</time>
      </trkpt>
      <trkpt lat="28.34808" lon="-14.10021">
        <ele>211</ele>
        <time>2021-07-05 12:30:59</time>
      </trkpt>
      <trkpt lat="28.34805" lon="-14.10021">
        <ele>211.2</ele>
        <time>2021-07-05 12:31:00</time>
      </trkpt>
      <trkpt lat="28.34801" lon="-14.10021">
        <ele>211.2</ele>
        <time>2021-07-05 12:31:01</time>
      </trkpt>
      <trkpt lat="28.34797" lon="-14.1002">
        <ele>211.6</ele>
        <time>2021-07-05 12:31:02</time>
      </trkpt>
      <trkpt lat="28.34793" lon="-14.1002">
        <ele>211.6</ele>
        <time>2021-07-05 12:31:03</time>
      </trkpt>
      <trkpt lat="28.34789" lon="-14.10019">
        <ele>211.6</ele>
        <time>2021-07-05 12:31:04</time>
      </trkpt>
      <trkpt lat="28.34785" lon="-14.10018">
        <ele>211.6</ele>
        <time>2021-07-05 12:31:05</time>
      </trkpt>
      <trkpt lat="28.34781" lon="-14.10017">
        <ele>211.8</ele>
        <time>2021-07-05 12:31:06</time>
      </trkpt>
      <trkpt lat="28.34778" lon="-14.10016">
        <ele>211.8</ele>
        <time>2021-07-05 12:31:07</time>
      </trkpt>
      <trkpt lat="28.34774" lon="-14.10015">
        <ele>212.2</ele>
        <time>2021-07-05 12:31:08</time>
      </trkpt>
      <trkpt lat="28.3477" lon="-14.10014">
        <ele>212.2</ele>
        <time>2021-07-05 12:31:09</time>
      </trkpt>
      <trkpt lat="28.34766" lon="-14.10013">
        <ele>212.2</ele>
        <time>2021-07-05 12:31:10</time>
      </trkpt>
      <trkpt lat="28.34763" lon="-14.10012">
        <ele>212.2</ele>
        <time>2021-07-05 12:31:11</time>
      </trkpt>
      <trkpt lat="28.34759" lon="-14.10011">
        <ele>212.4</ele>
        <time>2021-07-05 12:31:12</time>
      </trkpt>
      <trkpt lat="28.34756" lon="-14.10009">
        <ele>212.4</ele>
        <time>2021-07-05 12:31:13</time>
      </trkpt>
      <trkpt lat="28.34752" lon="-14.10008">
        <ele>212.8</ele>
        <time>2021-07-05 12:31:14</time>
      </trkpt>
      <trkpt lat="28.34749" lon="-14.10007">
        <ele>212.8</ele>
        <time>2021-07-05 12:31:15</time>
      </trkpt>
      <trkpt lat="28.34745" lon="-14.10006">
        <ele>212.8</ele>
        <time>2021-07-05 12:31:16</time>
      </trkpt>
      <trkpt lat="28.34741" lon="-14.10005">
        <ele>213</ele>
        <time>2021-07-05 12:31:17</time>
      </trkpt>
      <trkpt lat="28.34738" lon="-14.10005">
        <ele>213</ele>
        <time>2021-07-05 12:31:18</time>
      </trkpt>
      <trkpt lat="28.34734" lon="-14.10004">
        <ele>213</ele>
        <time>2021-07-05 12:31:19</time>
      </trkpt>
      <trkpt lat="28.3473" lon="-14.10003">
        <ele>213</ele>
        <time>2021-07-05 12:31:20</time>
      </trkpt>
      <trkpt lat="28.34726" lon="-14.10001">
        <ele>213.2</ele>
        <time>2021-07-05 12:31:21</time>
      </trkpt>
      <trkpt lat="28.34723" lon="-14.1">
        <ele>213.2</ele>
        <time>2021-07-05 12:31:22</time>
      </trkpt>
      <trkpt lat="28.34719" lon="-14.09999">
        <ele>213.2</ele>
        <time>2021-07-05 12:31:23</time>
      </trkpt>
      <trkpt lat="28.34715" lon="-14.09998">
        <ele>213.2</ele>
        <time>2021-07-05 12:31:24</time>
      </trkpt>
      <trkpt lat="28.34712" lon="-14.09997">
        <ele>213.4</ele>
        <time>2021-07-05 12:31:25</time>
      </trkpt>
      <trkpt lat="28.34708" lon="-14.09995">
        <ele>213.4</ele>
        <time>2021-07-05 12:31:26</time>
      </trkpt>
      <trkpt lat="28.34705" lon="-14.09994">
        <ele>213.8</ele>
        <time>2021-07-05 12:31:27</time>
      </trkpt>
      <trkpt lat="28.34701" lon="-14.09992">
        <ele>213.8</ele>
        <time>2021-07-05 12:31:28</time>
      </trkpt>
      <trkpt lat="28.34698" lon="-14.0999">
        <ele>213.8</ele>
        <time>2021-07-05 12:31:29</time>
      </trkpt>
      <trkpt lat="28.34695" lon="-14.09988">
        <ele>214</ele>
        <time>2021-07-05 12:31:30</time>
      </trkpt>
      <trkpt lat="28.34691" lon="-14.09987">
        <ele>214</ele>
        <time>2021-07-05 12:31:31</time>
      </trkpt>
      <trkpt lat="28.34687" lon="-14.09985">
        <ele>214.4</ele>
        <time>2021-07-05 12:31:32</time>
      </trkpt>
      <trkpt lat="28.34683" lon="-14.09984">
        <ele>214.6</ele>
        <time>2021-07-05 12:31:33</time>
      </trkpt>
      <trkpt lat="28.3468" lon="-14.09983">
        <ele>214.6</ele>
        <time>2021-07-05 12:31:34</time>
      </trkpt>
      <trkpt lat="28.34676" lon="-14.09983">
        <ele>214.6</ele>
        <time>2021-07-05 12:31:35</time>
      </trkpt>
      <trkpt lat="28.34672" lon="-14.09982">
        <ele>214.6</ele>
        <time>2021-07-05 12:31:36</time>
      </trkpt>
      <trkpt lat="28.34668" lon="-14.0998">
        <ele>214.6</ele>
        <time>2021-07-05 12:31:37</time>
      </trkpt>
      <trkpt lat="28.34664" lon="-14.09979">
        <ele>214.8</ele>
        <time>2021-07-05 12:31:38</time>
      </trkpt>
      <trkpt lat="28.3466" lon="-14.09978">
        <ele>214.8</ele>
        <time>2021-07-05 12:31:39</time>
      </trkpt>
      <trkpt lat="28.34657" lon="-14.09977">
        <ele>214.8</ele>
        <time>2021-07-05 12:31:40</time>
      </trkpt>
      <trkpt lat="28.34653" lon="-14.09976">
        <ele>214.8</ele>
        <time>2021-07-05 12:31:41</time>
      </trkpt>
      <trkpt lat="28.3465" lon="-14.09974">
        <ele>214.8</ele>
        <time>2021-07-05 12:31:42</time>
      </trkpt>
      <trkpt lat="28.34646" lon="-14.09973">
        <ele>215</ele>
        <time>2021-07-05 12:31:43</time>
      </trkpt>
      <trkpt lat="28.34642" lon="-14.09972">
        <ele>215</ele>
        <time>2021-07-05 12:31:44</time>
      </trkpt>
      <trkpt lat="28.34638" lon="-14.09971">
        <ele>215</ele>
        <time>2021-07-05 12:31:45</time>
      </trkpt>
      <trkpt lat="28.34634" lon="-14.0997">
        <ele>215.4</ele>
        <time>2021-07-05 12:31:46</time>
      </trkpt>
      <trkpt lat="28.34631" lon="-14.09969">
        <ele>215.4</ele>
        <time>2021-07-05 12:31:47</time>
      </trkpt>
      <trkpt lat="28.34627" lon="-14.09968">
        <ele>215.6</ele>
        <time>2021-07-05 12:31:48</time>
      </trkpt>
      <trkpt lat="28.34622" lon="-14.09968">
        <ele>215.6</ele>
        <time>2021-07-05 12:31:49</time>
      </trkpt>
      <trkpt lat="28.34618" lon="-14.09967">
        <ele>215.6</ele>
        <time>2021-07-05 12:31:50</time>
      </trkpt>
      <trkpt lat="28.34614" lon="-14.09967">
        <ele>215.6</ele>
        <time>2021-07-05 12:31:51</time>
      </trkpt>
      <trkpt lat="28.3461" lon="-14.09968">
        <ele>215.6</ele>
        <time>2021-07-05 12:31:52</time>
      </trkpt>
      <trkpt lat="28.34606" lon="-14.09968">
        <ele>215.6</ele>
        <time>2021-07-05 12:31:53</time>
      </trkpt>
      <trkpt lat="28.34602" lon="-14.09969">
        <ele>215.6</ele>
        <time>2021-07-05 12:31:54</time>
      </trkpt>
      <trkpt lat="28.34598" lon="-14.09968">
        <ele>215.6</ele>
        <time>2021-07-05 12:31:55</time>
      </trkpt>
      <trkpt lat="28.34594" lon="-14.09968">
        <ele>215.6</ele>
        <time>2021-07-05 12:31:56</time>
      </trkpt>
      <trkpt lat="28.3459" lon="-14.09968">
        <ele>215.8</ele>
        <time>2021-07-05 12:31:57</time>
      </trkpt>
      <trkpt lat="28.34586" lon="-14.09968">
        <ele>215.8</ele>
        <time>2021-07-05 12:31:58</time>
      </trkpt>
      <trkpt lat="28.34582" lon="-14.09969">
        <ele>215.8</ele>
        <time>2021-07-05 12:31:59</time>
      </trkpt>
      <trkpt lat="28.34578" lon="-14.09968">
        <ele>215.8</ele>
        <time>2021-07-05 12:32:00</time>
      </trkpt>
      <trkpt lat="28.34574" lon="-14.09967">
        <ele>215.8</ele>
        <time>2021-07-05 12:32:01</time>
      </trkpt>
      <trkpt lat="28.34571" lon="-14.09966">
        <ele>215.8</ele>
        <time>2021-07-05 12:32:02</time>
      </trkpt>
      <trkpt lat="28.34568" lon="-14.09965">
        <ele>215.8</ele>
        <time>2021-07-05 12:32:03</time>
      </trkpt>
      <trkpt lat="28.34564" lon="-14.09965">
        <ele>215.8</ele>
        <time>2021-07-05 12:32:04</time>
      </trkpt>
      <trkpt lat="28.34561" lon="-14.09964">
        <ele>215.8</ele>
        <time>2021-07-05 12:32:05</time>
      </trkpt>
      <trkpt lat="28.34559" lon="-14.09963">
        <ele>215.8</ele>
        <time>2021-07-05 12:32:06</time>
      </trkpt>
      <trkpt lat="28.34559" lon="-14.09963">
        <ele>215.8</ele>
        <time>2021-07-05 12:32:07</time>
      </trkpt>
      <trkpt lat="28.34558" lon="-14.09963">
        <ele>215.8</ele>
        <time>2021-07-05 12:32:08</time>
      </trkpt>
      <trkpt lat="28.34559" lon="-14.09963">
        <ele>216</ele>
        <time>2021-07-05 12:32:09</time>
      </trkpt>
      <trkpt lat="28.34559" lon="-14.09963">
        <ele>216</ele>
        <time>2021-07-05 12:32:10</time>
      </trkpt>
      <trkpt lat="28.34558" lon="-14.09962">
        <ele>216.4</ele>
        <time>2021-07-05 12:32:11</time>
      </trkpt>
      <trkpt lat="28.34557" lon="-14.09962">
        <ele>216.4</ele>
        <time>2021-07-05 12:32:12</time>
      </trkpt>
      <trkpt lat="28.34557" lon="-14.09961">
        <ele>216.4</ele>
        <time>2021-07-05 12:32:34</time>
      </trkpt>
      <trkpt lat="28.34557" lon="-14.09961">
        <ele>216.4</ele>
        <time>2021-07-05 12:32:35</time>
      </trkpt>
      <trkpt lat="28.34557" lon="-14.09961">
        <ele>216.4</ele>
        <time>2021-07-05 12:32:36</time>
      </trkpt>
      <trkpt lat="28.34556" lon="-14.09961">
        <ele>216.2</ele>
        <time>2021-07-05 12:32:37</time>
      </trkpt>
      <trkpt lat="28.34555" lon="-14.09961">
        <ele>216.2</ele>
        <time>2021-07-05 12:32:38</time>
      </trkpt>
      <trkpt lat="28.34554" lon="-14.09961">
        <ele>216.2</ele>
        <time>2021-07-05 12:32:53</time>
      </trkpt>
      <trkpt lat="28.34551" lon="-14.0996">
        <ele>216.2</ele>
        <time>2021-07-05 12:32:54</time>
      </trkpt>
      <trkpt lat="28.34549" lon="-14.0996">
        <ele>216.2</ele>
        <time>2021-07-05 12:32:55</time>
      </trkpt>
      <trkpt lat="28.34547" lon="-14.09959">
        <ele>216.2</ele>
        <time>2021-07-05 12:32:56</time>
      </trkpt>
      <trkpt lat="28.34545" lon="-14.09959">
        <ele>216.2</ele>
        <time>2021-07-05 12:32:57</time>
      </trkpt>
      <trkpt lat="28.34543" lon="-14.09959">
        <ele>215.8</ele>
        <time>2021-07-05 12:32:58</time>
      </trkpt>
      <trkpt lat="28.34542" lon="-14.09959">
        <ele>215.8</ele>
        <time>2021-07-05 12:32:59</time>
      </trkpt>
      <trkpt lat="28.3454" lon="-14.09959">
        <ele>215.8</ele>
        <time>2021-07-05 12:33:00</time>
      </trkpt>
      <trkpt lat="28.34539" lon="-14.0996">
        <ele>215.8</ele>
        <time>2021-07-05 12:33:01</time>
      </trkpt>
      <trkpt lat="28.34538" lon="-14.0996">
        <ele>215.8</ele>
        <time>2021-07-05 12:33:02</time>
      </trkpt>
      <trkpt lat="28.34538" lon="-14.0996">
        <ele>215.8</ele>
        <time>2021-07-05 12:33:03</time>
      </trkpt>
      <trkpt lat="28.34538" lon="-14.0996">
        <ele>216</ele>
        <time>2021-07-05 12:33:04</time>
      </trkpt>
      <trkpt lat="28.34538" lon="-14.09961">
        <ele>218.2</ele>
        <time>2021-07-05 12:33:05</time>
      </trkpt>
      <trkpt lat="28.34537" lon="-14.09961">
        <ele>218.2</ele>
        <time>2021-07-05 12:33:06</time>
      </trkpt>
      <trkpt lat="28.34536" lon="-14.09962">
        <ele>218.2</ele>
        <time>2021-07-05 12:33:45</time>
      </trkpt>
      <trkpt lat="28.34534" lon="-14.09963">
        <ele>218.2</ele>
        <time>2021-07-05 12:33:46</time>
      </trkpt>
      <trkpt lat="28.34531" lon="-14.09965">
        <ele>218.2</ele>
        <time>2021-07-05 12:33:47</time>
      </trkpt>
      <trkpt lat="28.34529" lon="-14.09967">
        <ele>218.2</ele>
        <time>2021-07-05 12:33:48</time>
      </trkpt>
      <trkpt lat="28.34526" lon="-14.09969">
        <ele>218</ele>
        <time>2021-07-05 12:33:49</time>
      </trkpt>
      <trkpt lat="28.34524" lon="-14.09972">
        <ele>218</ele>
        <time>2021-07-05 12:33:50</time>
      </trkpt>
      <trkpt lat="28.34521" lon="-14.09975">
        <ele>218</ele>
        <time>2021-07-05 12:33:51</time>
      </trkpt>
      <trkpt lat="28.34518" lon="-14.09977">
        <ele>218</ele>
        <time>2021-07-05 12:33:52</time>
      </trkpt>
      <trkpt lat="28.34515" lon="-14.0998">
        <ele>218</ele>
        <time>2021-07-05 12:33:53</time>
      </trkpt>
      <trkpt lat="28.34513" lon="-14.09983">
        <ele>218</ele>
        <time>2021-07-05 12:33:54</time>
      </trkpt>
      <trkpt lat="28.3451" lon="-14.09987">
        <ele>218</ele>
        <time>2021-07-05 12:33:55</time>
      </trkpt>
      <trkpt lat="28.34507" lon="-14.0999">
        <ele>218</ele>
        <time>2021-07-05 12:33:56</time>
      </trkpt>
      <trkpt lat="28.34504" lon="-14.09993">
        <ele>218</ele>
        <time>2021-07-05 12:33:57</time>
      </trkpt>
      <trkpt lat="28.34501" lon="-14.09995">
        <ele>218</ele>
        <time>2021-07-05 12:33:58</time>
      </trkpt>
      <trkpt lat="28.34498" lon="-14.09999">
        <ele>218</ele>
        <time>2021-07-05 12:33:59</time>
      </trkpt>
      <trkpt lat="28.34495" lon="-14.10002">
        <ele>218</ele>
        <time>2021-07-05 12:34:00</time>
      </trkpt>
      <trkpt lat="28.34492" lon="-14.10005">
        <ele>218</ele>
        <time>2021-07-05 12:34:01</time>
      </trkpt>
      <trkpt lat="28.34489" lon="-14.10009">
        <ele>218</ele>
        <time>2021-07-05 12:34:02</time>
      </trkpt>
      <trkpt lat="28.34487" lon="-14.10012">
        <ele>218</ele>
        <time>2021-07-05 12:34:03</time>
      </trkpt>
      <trkpt lat="28.34484" lon="-14.10015">
        <ele>218</ele>
        <time>2021-07-05 12:34:04</time>
      </trkpt>
      <trkpt lat="28.34482" lon="-14.10018">
        <ele>218</ele>
        <time>2021-07-05 12:34:05</time>
      </trkpt>
      <trkpt lat="28.3448" lon="-14.10021">
        <ele>218</ele>
        <time>2021-07-05 12:34:06</time>
      </trkpt>
      <trkpt lat="28.34478" lon="-14.10023">
        <ele>218</ele>
        <time>2021-07-05 12:34:07</time>
      </trkpt>
      <trkpt lat="28.34476" lon="-14.10025">
        <ele>218</ele>
        <time>2021-07-05 12:34:08</time>
      </trkpt>
      <trkpt lat="28.34474" lon="-14.10028">
        <ele>218</ele>
        <time>2021-07-05 12:34:09</time>
      </trkpt>
      <trkpt lat="28.34472" lon="-14.1003">
        <ele>218</ele>
        <time>2021-07-05 12:34:10</time>
      </trkpt>
      <trkpt lat="28.34471" lon="-14.10032">
        <ele>218</ele>
        <time>2021-07-05 12:34:11</time>
      </trkpt>
      <trkpt lat="28.34469" lon="-14.10034">
        <ele>218</ele>
        <time>2021-07-05 12:34:12</time>
      </trkpt>
      <trkpt lat="28.34468" lon="-14.10036">
        <ele>218</ele>
        <time>2021-07-05 12:34:13</time>
      </trkpt>
      <trkpt lat="28.34466" lon="-14.10037">
        <ele>218</ele>
        <time>2021-07-05 12:34:14</time>
      </trkpt>
      <trkpt lat="28.34464" lon="-14.10039">
        <ele>218</ele>
        <time>2021-07-05 12:34:15</time>
      </trkpt>
      <trkpt lat="28.34462" lon="-14.10041">
        <ele>218</ele>
        <time>2021-07-05 12:34:16</time>
      </trkpt>
      <trkpt lat="28.3446" lon="-14.10043">
        <ele>218</ele>
        <time>2021-07-05 12:34:17</time>
      </trkpt>
      <trkpt lat="28.34458" lon="-14.10045">
        <ele>218</ele>
        <time>2021-07-05 12:34:18</time>
      </trkpt>
      <trkpt lat="28.34457" lon="-14.10047">
        <ele>218</ele>
        <time>2021-07-05 12:34:19</time>
      </trkpt>
      <trkpt lat="28.34455" lon="-14.10048">
        <ele>218</ele>
        <time>2021-07-05 12:34:20</time>
      </trkpt>
      <trkpt lat="28.34453" lon="-14.1005">
        <ele>218</ele>
        <time>2021-07-05 12:34:21</time>
      </trkpt>
      <trkpt lat="28.34451" lon="-14.10052">
        <ele>218</ele>
        <time>2021-07-05 12:34:22</time>
      </trkpt>
      <trkpt lat="28.34449" lon="-14.10055">
        <ele>218</ele>
        <time>2021-07-05 12:34:23</time>
      </trkpt>
      <trkpt lat="28.34447" lon="-14.10057">
        <ele>218</ele>
        <time>2021-07-05 12:34:24</time>
      </trkpt>
      <trkpt lat="28.34445" lon="-14.10059">
        <ele>218</ele>
        <time>2021-07-05 12:34:25</time>
      </trkpt>
      <trkpt lat="28.34443" lon="-14.10061">
        <ele>218</ele>
        <time>2021-07-05 12:34:26</time>
      </trkpt>
      <trkpt lat="28.34441" lon="-14.10063">
        <ele>218</ele>
        <time>2021-07-05 12:34:27</time>
      </trkpt>
      <trkpt lat="28.34439" lon="-14.10065">
        <ele>218.2</ele>
        <time>2021-07-05 12:34:28</time>
      </trkpt>
      <trkpt lat="28.34438" lon="-14.10067">
        <ele>218.2</ele>
        <time>2021-07-05 12:34:29</time>
      </trkpt>
      <trkpt lat="28.34436" lon="-14.10069">
        <ele>218.2</ele>
        <time>2021-07-05 12:34:30</time>
      </trkpt>
      <trkpt lat="28.34434" lon="-14.10071">
        <ele>218.2</ele>
        <time>2021-07-05 12:34:31</time>
      </trkpt>
      <trkpt lat="28.34433" lon="-14.10074">
        <ele>218.2</ele>
        <time>2021-07-05 12:34:32</time>
      </trkpt>
      <trkpt lat="28.34432" lon="-14.10076">
        <ele>218.2</ele>
        <time>2021-07-05 12:34:33</time>
      </trkpt>
      <trkpt lat="28.3443" lon="-14.10078">
        <ele>218</ele>
        <time>2021-07-05 12:34:34</time>
      </trkpt>
      <trkpt lat="28.34429" lon="-14.1008">
        <ele>218</ele>
        <time>2021-07-05 12:34:35</time>
      </trkpt>
      <trkpt lat="28.34428" lon="-14.10083">
        <ele>218</ele>
        <time>2021-07-05 12:34:36</time>
      </trkpt>
      <trkpt lat="28.34427" lon="-14.10085">
        <ele>218</ele>
        <time>2021-07-05 12:34:37</time>
      </trkpt>
      <trkpt lat="28.34426" lon="-14.10087">
        <ele>218</ele>
        <time>2021-07-05 12:34:38</time>
      </trkpt>
      <trkpt lat="28.34425" lon="-14.10089">
        <ele>217.8</ele>
        <time>2021-07-05 12:34:39</time>
      </trkpt>
      <trkpt lat="28.34424" lon="-14.10091">
        <ele>217.8</ele>
        <time>2021-07-05 12:34:40</time>
      </trkpt>
      <trkpt lat="28.34424" lon="-14.10093">
        <ele>217.8</ele>
        <time>2021-07-05 12:34:41</time>
      </trkpt>
      <trkpt lat="28.34423" lon="-14.10095">
        <ele>217.8</ele>
        <time>2021-07-05 12:34:42</time>
      </trkpt>
      <trkpt lat="28.34423" lon="-14.10098">
        <ele>217.8</ele>
        <time>2021-07-05 12:34:43</time>
      </trkpt>
      <trkpt lat="28.34421" lon="-14.10103">
        <ele>217.6</ele>
        <time>2021-07-05 12:34:44</time>
      </trkpt>
      <trkpt lat="28.34418" lon="-14.10107">
        <ele>217.6</ele>
        <time>2021-07-05 12:34:45</time>
      </trkpt>
      <trkpt lat="28.34414" lon="-14.1011">
        <ele>217.4</ele>
        <time>2021-07-05 12:34:46</time>
      </trkpt>
      <trkpt lat="28.34411" lon="-14.10112">
        <ele>217.4</ele>
        <time>2021-07-05 12:34:47</time>
      </trkpt>
      <trkpt lat="28.34407" lon="-14.10114">
        <ele>217.4</ele>
        <time>2021-07-05 12:34:48</time>
      </trkpt>
      <trkpt lat="28.34404" lon="-14.10115">
        <ele>217.4</ele>
        <time>2021-07-05 12:34:49</time>
      </trkpt>
      <trkpt lat="28.34401" lon="-14.10116">
        <ele>217.4</ele>
        <time>2021-07-05 12:34:50</time>
      </trkpt>
      <trkpt lat="28.34398" lon="-14.10117">
        <ele>217.4</ele>
        <time>2021-07-05 12:34:51</time>
      </trkpt>
      <trkpt lat="28.34395" lon="-14.10118">
        <ele>217.4</ele>
        <time>2021-07-05 12:34:52</time>
      </trkpt>
      <trkpt lat="28.34391" lon="-14.1012">
        <ele>217.4</ele>
        <time>2021-07-05 12:34:53</time>
      </trkpt>
      <trkpt lat="28.34388" lon="-14.1012">
        <ele>217.4</ele>
        <time>2021-07-05 12:34:54</time>
      </trkpt>
      <trkpt lat="28.34384" lon="-14.10121">
        <ele>217.4</ele>
        <time>2021-07-05 12:34:55</time>
      </trkpt>
      <trkpt lat="28.34381" lon="-14.10122">
        <ele>217.4</ele>
        <time>2021-07-05 12:34:56</time>
      </trkpt>
      <trkpt lat="28.34378" lon="-14.10123">
        <ele>217.4</ele>
        <time>2021-07-05 12:34:57</time>
      </trkpt>
      <trkpt lat="28.34374" lon="-14.10124">
        <ele>217.4</ele>
        <time>2021-07-05 12:34:58</time>
      </trkpt>
      <trkpt lat="28.34371" lon="-14.10126">
        <ele>217.4</ele>
        <time>2021-07-05 12:34:59</time>
      </trkpt>
      <trkpt lat="28.34368" lon="-14.10128">
        <ele>217.4</ele>
        <time>2021-07-05 12:35:00</time>
      </trkpt>
      <trkpt lat="28.34366" lon="-14.10129">
        <ele>217.6</ele>
        <time>2021-07-05 12:35:01</time>
      </trkpt>
      <trkpt lat="28.34363" lon="-14.10131">
        <ele>217.6</ele>
        <time>2021-07-05 12:35:02</time>
      </trkpt>
      <trkpt lat="28.3436" lon="-14.10133">
        <ele>217.6</ele>
        <time>2021-07-05 12:35:03</time>
      </trkpt>
      <trkpt lat="28.34358" lon="-14.10134">
        <ele>217.6</ele>
        <time>2021-07-05 12:35:04</time>
      </trkpt>
      <trkpt lat="28.34356" lon="-14.10135">
        <ele>218</ele>
        <time>2021-07-05 12:35:05</time>
      </trkpt>
      <trkpt lat="28.34354" lon="-14.10136">
        <ele>218</ele>
        <time>2021-07-05 12:35:06</time>
      </trkpt>
      <trkpt lat="28.34352" lon="-14.10137">
        <ele>218.2</ele>
        <time>2021-07-05 12:35:07</time>
      </trkpt>
      <trkpt lat="28.34349" lon="-14.10138">
        <ele>218.2</ele>
        <time>2021-07-05 12:35:08</time>
      </trkpt>
      <trkpt lat="28.34346" lon="-14.10139">
        <ele>218.2</ele>
        <time>2021-07-05 12:35:09</time>
      </trkpt>
      <trkpt lat="28.34343" lon="-14.1014">
        <ele>218.4</ele>
        <time>2021-07-05 12:35:10</time>
      </trkpt>
      <trkpt lat="28.3434" lon="-14.10141">
        <ele>218.4</ele>
        <time>2021-07-05 12:35:11</time>
      </trkpt>
      <trkpt lat="28.34337" lon="-14.10142">
        <ele>218.4</ele>
        <time>2021-07-05 12:35:12</time>
      </trkpt>
      <trkpt lat="28.34334" lon="-14.10142">
        <ele>218.4</ele>
        <time>2021-07-05 12:35:13</time>
      </trkpt>
      <trkpt lat="28.34331" lon="-14.10143">
        <ele>218.4</ele>
        <time>2021-07-05 12:35:14</time>
      </trkpt>
      <trkpt lat="28.34328" lon="-14.10143">
        <ele>218.6</ele>
        <time>2021-07-05 12:35:15</time>
      </trkpt>
      <trkpt lat="28.34325" lon="-14.10143">
        <ele>218.6</ele>
        <time>2021-07-05 12:35:16</time>
      </trkpt>
      <trkpt lat="28.34322" lon="-14.10142">
        <ele>218.6</ele>
        <time>2021-07-05 12:35:17</time>
      </trkpt>
      <trkpt lat="28.34318" lon="-14.10143">
        <ele>219</ele>
        <time>2021-07-05 12:35:18</time>
      </trkpt>
      <trkpt lat="28.34315" lon="-14.10143">
        <ele>219</ele>
        <time>2021-07-05 12:35:19</time>
      </trkpt>
      <trkpt lat="28.34312" lon="-14.10145">
        <ele>219</ele>
        <time>2021-07-05 12:35:20</time>
      </trkpt>
      <trkpt lat="28.34309" lon="-14.10146">
        <ele>219.2</ele>
        <time>2021-07-05 12:35:21</time>
      </trkpt>
      <trkpt lat="28.34306" lon="-14.10147">
        <ele>219.2</ele>
        <time>2021-07-05 12:35:22</time>
      </trkpt>
      <trkpt lat="28.34303" lon="-14.10148">
        <ele>219.2</ele>
        <time>2021-07-05 12:35:23</time>
      </trkpt>
      <trkpt lat="28.343" lon="-14.1015">
        <ele>219.2</ele>
        <time>2021-07-05 12:35:24</time>
      </trkpt>
      <trkpt lat="28.34297" lon="-14.10151">
        <ele>219.2</ele>
        <time>2021-07-05 12:35:25</time>
      </trkpt>
      <trkpt lat="28.34294" lon="-14.10152">
        <ele>219.2</ele>
        <time>2021-07-05 12:35:26</time>
      </trkpt>
      <trkpt lat="28.34291" lon="-14.10153">
        <ele>219.6</ele>
        <time>2021-07-05 12:35:27</time>
      </trkpt>
      <trkpt lat="28.34288" lon="-14.10155">
        <ele>219.6</ele>
        <time>2021-07-05 12:35:28</time>
      </trkpt>
      <trkpt lat="28.34285" lon="-14.10156">
        <ele>219.6</ele>
        <time>2021-07-05 12:35:29</time>
      </trkpt>
      <trkpt lat="28.34282" lon="-14.10157">
        <ele>219.8</ele>
        <time>2021-07-05 12:35:30</time>
      </trkpt>
      <trkpt lat="28.34279" lon="-14.10158">
        <ele>219.8</ele>
        <time>2021-07-05 12:35:31</time>
      </trkpt>
      <trkpt lat="28.34276" lon="-14.10159">
        <ele>220.2</ele>
        <time>2021-07-05 12:35:32</time>
      </trkpt>
      <trkpt lat="28.34274" lon="-14.1016">
        <ele>220.2</ele>
        <time>2021-07-05 12:35:33</time>
      </trkpt>
      <trkpt lat="28.34271" lon="-14.10161">
        <ele>220.2</ele>
        <time>2021-07-05 12:35:34</time>
      </trkpt>
      <trkpt lat="28.34269" lon="-14.10161">
        <ele>220.4</ele>
        <time>2021-07-05 12:35:35</time>
      </trkpt>
      <trkpt lat="28.34267" lon="-14.10161">
        <ele>220.4</ele>
        <time>2021-07-05 12:35:36</time>
      </trkpt>
      <trkpt lat="28.34265" lon="-14.10162">
        <ele>220.4</ele>
        <time>2021-07-05 12:35:37</time>
      </trkpt>
      <trkpt lat="28.34263" lon="-14.10163">
        <ele>220.6</ele>
        <time>2021-07-05 12:35:38</time>
      </trkpt>
      <trkpt lat="28.34261" lon="-14.10164">
        <ele>220.6</ele>
        <time>2021-07-05 12:35:39</time>
      </trkpt>
      <trkpt lat="28.34258" lon="-14.10165">
        <ele>220.6</ele>
        <time>2021-07-05 12:35:40</time>
      </trkpt>
      <trkpt lat="28.34254" lon="-14.10166">
        <ele>220.8</ele>
        <time>2021-07-05 12:35:41</time>
      </trkpt>
      <trkpt lat="28.34251" lon="-14.10167">
        <ele>220.8</ele>
        <time>2021-07-05 12:35:42</time>
      </trkpt>
      <trkpt lat="28.34248" lon="-14.10168">
        <ele>220.8</ele>
        <time>2021-07-05 12:35:43</time>
      </trkpt>
      <trkpt lat="28.34245" lon="-14.10169">
        <ele>220.8</ele>
        <time>2021-07-05 12:35:44</time>
      </trkpt>
      <trkpt lat="28.34242" lon="-14.1017">
        <ele>220.8</ele>
        <time>2021-07-05 12:35:45</time>
      </trkpt>
      <trkpt lat="28.34239" lon="-14.10172">
        <ele>221</ele>
        <time>2021-07-05 12:35:46</time>
      </trkpt>
      <trkpt lat="28.34236" lon="-14.10173">
        <ele>221</ele>
        <time>2021-07-05 12:35:47</time>
      </trkpt>
      <trkpt lat="28.34233" lon="-14.10175">
        <ele>221</ele>
        <time>2021-07-05 12:35:48</time>
      </trkpt>
      <trkpt lat="28.34229" lon="-14.10176">
        <ele>221.2</ele>
        <time>2021-07-05 12:35:49</time>
      </trkpt>
      <trkpt lat="28.34226" lon="-14.10177">
        <ele>221.2</ele>
        <time>2021-07-05 12:35:50</time>
      </trkpt>
      <trkpt lat="28.34223" lon="-14.10178">
        <ele>221.6</ele>
        <time>2021-07-05 12:35:51</time>
      </trkpt>
      <trkpt lat="28.34219" lon="-14.10179">
        <ele>221.6</ele>
        <time>2021-07-05 12:35:52</time>
      </trkpt>
      <trkpt lat="28.34216" lon="-14.10181">
        <ele>221.8</ele>
        <time>2021-07-05 12:35:53</time>
      </trkpt>
      <trkpt lat="28.34213" lon="-14.10182">
        <ele>221.8</ele>
        <time>2021-07-05 12:35:54</time>
      </trkpt>
      <trkpt lat="28.3421" lon="-14.10183">
        <ele>221.8</ele>
        <time>2021-07-05 12:35:55</time>
      </trkpt>
      <trkpt lat="28.34207" lon="-14.10184">
        <ele>222</ele>
        <time>2021-07-05 12:35:56</time>
      </trkpt>
      <trkpt lat="28.34203" lon="-14.10185">
        <ele>222</ele>
        <time>2021-07-05 12:35:57</time>
      </trkpt>
      <trkpt lat="28.342" lon="-14.10185">
        <ele>222</ele>
        <time>2021-07-05 12:35:58</time>
      </trkpt>
      <trkpt lat="28.34197" lon="-14.10186">
        <ele>222.2</ele>
        <time>2021-07-05 12:35:59</time>
      </trkpt>
      <trkpt lat="28.34193" lon="-14.10186">
        <ele>222.2</ele>
        <time>2021-07-05 12:36:00</time>
      </trkpt>
      <trkpt lat="28.3419" lon="-14.10187">
        <ele>222.2</ele>
        <time>2021-07-05 12:36:01</time>
      </trkpt>
      <trkpt lat="28.34187" lon="-14.10187">
        <ele>222.2</ele>
        <time>2021-07-05 12:36:02</time>
      </trkpt>
      <trkpt lat="28.34183" lon="-14.10187">
        <ele>222.2</ele>
        <time>2021-07-05 12:36:03</time>
      </trkpt>
      <trkpt lat="28.3418" lon="-14.10186">
        <ele>222.2</ele>
        <time>2021-07-05 12:36:04</time>
      </trkpt>
      <trkpt lat="28.34177" lon="-14.10186">
        <ele>222.2</ele>
        <time>2021-07-05 12:36:05</time>
      </trkpt>
      <trkpt lat="28.34173" lon="-14.10186">
        <ele>222.2</ele>
        <time>2021-07-05 12:36:06</time>
      </trkpt>
      <trkpt lat="28.3417" lon="-14.10185">
        <ele>222.4</ele>
        <time>2021-07-05 12:36:07</time>
      </trkpt>
      <trkpt lat="28.34166" lon="-14.10185">
        <ele>222.4</ele>
        <time>2021-07-05 12:36:08</time>
      </trkpt>
      <trkpt lat="28.34163" lon="-14.10185">
        <ele>222.4</ele>
        <time>2021-07-05 12:36:09</time>
      </trkpt>
      <trkpt lat="28.3416" lon="-14.10184">
        <ele>222.4</ele>
        <time>2021-07-05 12:36:10</time>
      </trkpt>
      <trkpt lat="28.34156" lon="-14.10184">
        <ele>222.4</ele>
        <time>2021-07-05 12:36:11</time>
      </trkpt>
      <trkpt lat="28.34153" lon="-14.10184">
        <ele>222.4</ele>
        <time>2021-07-05 12:36:12</time>
      </trkpt>
      <trkpt lat="28.34149" lon="-14.10184">
        <ele>222.8</ele>
        <time>2021-07-05 12:36:13</time>
      </trkpt>
      <trkpt lat="28.34146" lon="-14.10184">
        <ele>222.8</ele>
        <time>2021-07-05 12:36:14</time>
      </trkpt>
      <trkpt lat="28.34143" lon="-14.10184">
        <ele>222.8</ele>
        <time>2021-07-05 12:36:15</time>
      </trkpt>
      <trkpt lat="28.3414" lon="-14.10184">
        <ele>222.8</ele>
        <time>2021-07-05 12:36:16</time>
      </trkpt>
      <trkpt lat="28.34138" lon="-14.10184">
        <ele>222.8</ele>
        <time>2021-07-05 12:36:17</time>
      </trkpt>
      <trkpt lat="28.34135" lon="-14.10184">
        <ele>223</ele>
        <time>2021-07-05 12:36:18</time>
      </trkpt>
      <trkpt lat="28.34132" lon="-14.10184">
        <ele>223</ele>
        <time>2021-07-05 12:36:19</time>
      </trkpt>
      <trkpt lat="28.34129" lon="-14.10185">
        <ele>223</ele>
        <time>2021-07-05 12:36:20</time>
      </trkpt>
      <trkpt lat="28.34126" lon="-14.10186">
        <ele>223</ele>
        <time>2021-07-05 12:36:21</time>
      </trkpt>
      <trkpt lat="28.34123" lon="-14.10187">
        <ele>223.2</ele>
        <time>2021-07-05 12:36:22</time>
      </trkpt>
      <trkpt lat="28.34121" lon="-14.10188">
        <ele>223.2</ele>
        <time>2021-07-05 12:36:23</time>
      </trkpt>
      <trkpt lat="28.34118" lon="-14.10189">
        <ele>223.2</ele>
        <time>2021-07-05 12:36:24</time>
      </trkpt>
      <trkpt lat="28.34116" lon="-14.10191">
        <ele>223.6</ele>
        <time>2021-07-05 12:36:25</time>
      </trkpt>
      <trkpt lat="28.34115" lon="-14.10192">
        <ele>223.6</ele>
        <time>2021-07-05 12:36:26</time>
      </trkpt>
      <trkpt lat="28.34113" lon="-14.10193">
        <ele>223.6</ele>
        <time>2021-07-05 12:36:27</time>
      </trkpt>
      <trkpt lat="28.34111" lon="-14.10195">
        <ele>223.6</ele>
        <time>2021-07-05 12:36:28</time>
      </trkpt>
      <trkpt lat="28.34108" lon="-14.10196">
        <ele>223.6</ele>
        <time>2021-07-05 12:36:29</time>
      </trkpt>
      <trkpt lat="28.34106" lon="-14.10197">
        <ele>223.6</ele>
        <time>2021-07-05 12:36:30</time>
      </trkpt>
      <trkpt lat="28.34103" lon="-14.10198">
        <ele>223.6</ele>
        <time>2021-07-05 12:36:31</time>
      </trkpt>
      <trkpt lat="28.34101" lon="-14.102">
        <ele>223.6</ele>
        <time>2021-07-05 12:36:32</time>
      </trkpt>
      <trkpt lat="28.34098" lon="-14.10201">
        <ele>223.6</ele>
        <time>2021-07-05 12:36:33</time>
      </trkpt>
      <trkpt lat="28.34095" lon="-14.10203">
        <ele>223.6</ele>
        <time>2021-07-05 12:36:34</time>
      </trkpt>
      <trkpt lat="28.34092" lon="-14.10204">
        <ele>223.6</ele>
        <time>2021-07-05 12:36:35</time>
      </trkpt>
      <trkpt lat="28.34089" lon="-14.10205">
        <ele>223.6</ele>
        <time>2021-07-05 12:36:36</time>
      </trkpt>
      <trkpt lat="28.34086" lon="-14.10207">
        <ele>223.6</ele>
        <time>2021-07-05 12:36:37</time>
      </trkpt>
      <trkpt lat="28.34083" lon="-14.10209">
        <ele>223.8</ele>
        <time>2021-07-05 12:36:38</time>
      </trkpt>
      <trkpt lat="28.3408" lon="-14.10211">
        <ele>223.8</ele>
        <time>2021-07-05 12:36:39</time>
      </trkpt>
      <trkpt lat="28.34077" lon="-14.10213">
        <ele>223.8</ele>
        <time>2021-07-05 12:36:40</time>
      </trkpt>
      <trkpt lat="28.34074" lon="-14.10215">
        <ele>223.8</ele>
        <time>2021-07-05 12:36:41</time>
      </trkpt>
      <trkpt lat="28.34071" lon="-14.10217">
        <ele>223.8</ele>
        <time>2021-07-05 12:36:42</time>
      </trkpt>
      <trkpt lat="28.34068" lon="-14.10219">
        <ele>223.8</ele>
        <time>2021-07-05 12:36:43</time>
      </trkpt>
      <trkpt lat="28.34066" lon="-14.10221">
        <ele>223.8</ele>
        <time>2021-07-05 12:36:44</time>
      </trkpt>
      <trkpt lat="28.34063" lon="-14.10223">
        <ele>223.8</ele>
        <time>2021-07-05 12:36:45</time>
      </trkpt>
      <trkpt lat="28.3406" lon="-14.10225">
        <ele>223.8</ele>
        <time>2021-07-05 12:36:46</time>
      </trkpt>
      <trkpt lat="28.34057" lon="-14.10227">
        <ele>224</ele>
        <time>2021-07-05 12:36:47</time>
      </trkpt>
      <trkpt lat="28.34054" lon="-14.10229">
        <ele>224</ele>
        <time>2021-07-05 12:36:48</time>
      </trkpt>
      <trkpt lat="28.34051" lon="-14.10231">
        <ele>224.2</ele>
        <time>2021-07-05 12:36:49</time>
      </trkpt>
      <trkpt lat="28.34048" lon="-14.10233">
        <ele>224.2</ele>
        <time>2021-07-05 12:36:50</time>
      </trkpt>
      <trkpt lat="28.34045" lon="-14.10235">
        <ele>224.2</ele>
        <time>2021-07-05 12:36:51</time>
      </trkpt>
      <trkpt lat="28.34042" lon="-14.10236">
        <ele>224.4</ele>
        <time>2021-07-05 12:36:52</time>
      </trkpt>
      <trkpt lat="28.34039" lon="-14.10238">
        <ele>224.4</ele>
        <time>2021-07-05 12:36:53</time>
      </trkpt>
      <trkpt lat="28.34035" lon="-14.1024">
        <ele>224.8</ele>
        <time>2021-07-05 12:36:54</time>
      </trkpt>
      <trkpt lat="28.34032" lon="-14.10242">
        <ele>224.8</ele>
        <time>2021-07-05 12:36:55</time>
      </trkpt>
      <trkpt lat="28.3403" lon="-14.10244">
        <ele>224.8</ele>
        <time>2021-07-05 12:36:56</time>
      </trkpt>
      <trkpt lat="28.34027" lon="-14.10246">
        <ele>224.8</ele>
        <time>2021-07-05 12:36:57</time>
      </trkpt>
      <trkpt lat="28.34024" lon="-14.10248">
        <ele>225.2</ele>
        <time>2021-07-05 12:36:58</time>
      </trkpt>
      <trkpt lat="28.34021" lon="-14.1025">
        <ele>225.2</ele>
        <time>2021-07-05 12:36:59</time>
      </trkpt>
      <trkpt lat="28.34018" lon="-14.10252">
        <ele>225.2</ele>
        <time>2021-07-05 12:37:00</time>
      </trkpt>
      <trkpt lat="28.34014" lon="-14.10254">
        <ele>225.2</ele>
        <time>2021-07-05 12:37:01</time>
      </trkpt>
      <trkpt lat="28.34011" lon="-14.10256">
        <ele>225.2</ele>
        <time>2021-07-05 12:37:02</time>
      </trkpt>
      <trkpt lat="28.34008" lon="-14.10257">
        <ele>225.4</ele>
        <time>2021-07-05 12:37:03</time>
      </trkpt>
      <trkpt lat="28.34004" lon="-14.10259">
        <ele>225.4</ele>
        <time>2021-07-05 12:37:04</time>
      </trkpt>
      <trkpt lat="28.34001" lon="-14.1026">
        <ele>225.4</ele>
        <time>2021-07-05 12:37:05</time>
      </trkpt>
      <trkpt lat="28.33998" lon="-14.10262">
        <ele>225.4</ele>
        <time>2021-07-05 12:37:06</time>
      </trkpt>
      <trkpt lat="28.33994" lon="-14.10263">
        <ele>225.2</ele>
        <time>2021-07-05 12:37:07</time>
      </trkpt>
      <trkpt lat="28.33991" lon="-14.10264">
        <ele>225.2</ele>
        <time>2021-07-05 12:37:08</time>
      </trkpt>
      <trkpt lat="28.33988" lon="-14.10265">
        <ele>225.2</ele>
        <time>2021-07-05 12:37:09</time>
      </trkpt>
      <trkpt lat="28.33984" lon="-14.10266">
        <ele>225.2</ele>
        <time>2021-07-05 12:37:10</time>
      </trkpt>
      <trkpt lat="28.33981" lon="-14.10267">
        <ele>225.2</ele>
        <time>2021-07-05 12:37:11</time>
      </trkpt>
      <trkpt lat="28.33977" lon="-14.10268">
        <ele>225.2</ele>
        <time>2021-07-05 12:37:12</time>
      </trkpt>
      <trkpt lat="28.33974" lon="-14.10269">
        <ele>225.4</ele>
        <time>2021-07-05 12:37:13</time>
      </trkpt>
      <trkpt lat="28.3397" lon="-14.1027">
        <ele>225.8</ele>
        <time>2021-07-05 12:37:14</time>
      </trkpt>
      <trkpt lat="28.33967" lon="-14.1027">
        <ele>225.8</ele>
        <time>2021-07-05 12:37:15</time>
      </trkpt>
      <trkpt lat="28.33963" lon="-14.10271">
        <ele>225.8</ele>
        <time>2021-07-05 12:37:16</time>
      </trkpt>
      <trkpt lat="28.3396" lon="-14.10272">
        <ele>226</ele>
        <time>2021-07-05 12:37:17</time>
      </trkpt>
      <trkpt lat="28.33957" lon="-14.10272">
        <ele>226</ele>
        <time>2021-07-05 12:37:18</time>
      </trkpt>
      <trkpt lat="28.33954" lon="-14.10273">
        <ele>226</ele>
        <time>2021-07-05 12:37:19</time>
      </trkpt>
      <trkpt lat="28.3395" lon="-14.10274">
        <ele>226.2</ele>
        <time>2021-07-05 12:37:20</time>
      </trkpt>
      <trkpt lat="28.33947" lon="-14.10276">
        <ele>226.2</ele>
        <time>2021-07-05 12:37:21</time>
      </trkpt>
      <trkpt lat="28.33944" lon="-14.10277">
        <ele>226.2</ele>
        <time>2021-07-05 12:37:22</time>
      </trkpt>
      <trkpt lat="28.33941" lon="-14.10278">
        <ele>226.2</ele>
        <time>2021-07-05 12:37:23</time>
      </trkpt>
      <trkpt lat="28.33939" lon="-14.1028">
        <ele>226.4</ele>
        <time>2021-07-05 12:37:24</time>
      </trkpt>
      <trkpt lat="28.33936" lon="-14.10281">
        <ele>226.4</ele>
        <time>2021-07-05 12:37:25</time>
      </trkpt>
      <trkpt lat="28.33934" lon="-14.10283">
        <ele>226.4</ele>
        <time>2021-07-05 12:37:26</time>
      </trkpt>
      <trkpt lat="28.33931" lon="-14.10285">
        <ele>226.4</ele>
        <time>2021-07-05 12:37:27</time>
      </trkpt>
      <trkpt lat="28.33929" lon="-14.10287">
        <ele>226.6</ele>
        <time>2021-07-05 12:37:28</time>
      </trkpt>
      <trkpt lat="28.33926" lon="-14.1029">
        <ele>226.6</ele>
        <time>2021-07-05 12:37:29</time>
      </trkpt>
      <trkpt lat="28.33924" lon="-14.10292">
        <ele>226.6</ele>
        <time>2021-07-05 12:37:30</time>
      </trkpt>
      <trkpt lat="28.33922" lon="-14.10295">
        <ele>227</ele>
        <time>2021-07-05 12:37:31</time>
      </trkpt>
      <trkpt lat="28.33919" lon="-14.10297">
        <ele>227</ele>
        <time>2021-07-05 12:37:32</time>
      </trkpt>
      <trkpt lat="28.33917" lon="-14.103">
        <ele>227</ele>
        <time>2021-07-05 12:37:33</time>
      </trkpt>
      <trkpt lat="28.33915" lon="-14.10303">
        <ele>227.2</ele>
        <time>2021-07-05 12:37:34</time>
      </trkpt>
      <trkpt lat="28.33913" lon="-14.10306">
        <ele>227.2</ele>
        <time>2021-07-05 12:37:35</time>
      </trkpt>
      <trkpt lat="28.3391" lon="-14.10309">
        <ele>227.2</ele>
        <time>2021-07-05 12:37:36</time>
      </trkpt>
      <trkpt lat="28.33908" lon="-14.10312">
        <ele>227.6</ele>
        <time>2021-07-05 12:37:37</time>
      </trkpt>
      <trkpt lat="28.33906" lon="-14.10314">
        <ele>227.6</ele>
        <time>2021-07-05 12:37:38</time>
      </trkpt>
      <trkpt lat="28.33904" lon="-14.10317">
        <ele>227.6</ele>
        <time>2021-07-05 12:37:39</time>
      </trkpt>
      <trkpt lat="28.33902" lon="-14.10319">
        <ele>228.2</ele>
        <time>2021-07-05 12:37:40</time>
      </trkpt>
      <trkpt lat="28.33899" lon="-14.10322">
        <ele>228.6</ele>
        <time>2021-07-05 12:37:41</time>
      </trkpt>
      <trkpt lat="28.33896" lon="-14.10324">
        <ele>228.6</ele>
        <time>2021-07-05 12:37:42</time>
      </trkpt>
      <trkpt lat="28.33894" lon="-14.10327">
        <ele>228.8</ele>
        <time>2021-07-05 12:37:43</time>
      </trkpt>
      <trkpt lat="28.33891" lon="-14.10329">
        <ele>228.8</ele>
        <time>2021-07-05 12:37:44</time>
      </trkpt>
      <trkpt lat="28.33888" lon="-14.10331">
        <ele>229</ele>
        <time>2021-07-05 12:37:45</time>
      </trkpt>
      <trkpt lat="28.33886" lon="-14.10333">
        <ele>229</ele>
        <time>2021-07-05 12:37:46</time>
      </trkpt>
      <trkpt lat="28.33883" lon="-14.10336">
        <ele>229.4</ele>
        <time>2021-07-05 12:37:47</time>
      </trkpt>
      <trkpt lat="28.3388" lon="-14.10338">
        <ele>229.4</ele>
        <time>2021-07-05 12:37:48</time>
      </trkpt>
      <trkpt lat="28.33878" lon="-14.10341">
        <ele>229.4</ele>
        <time>2021-07-05 12:37:49</time>
      </trkpt>
      <trkpt lat="28.33875" lon="-14.10343">
        <ele>229.4</ele>
        <time>2021-07-05 12:37:50</time>
      </trkpt>
      <trkpt lat="28.33873" lon="-14.10345">
        <ele>229.4</ele>
        <time>2021-07-05 12:37:51</time>
      </trkpt>
      <trkpt lat="28.3387" lon="-14.10347">
        <ele>229.6</ele>
        <time>2021-07-05 12:37:52</time>
      </trkpt>
      <trkpt lat="28.33868" lon="-14.10349">
        <ele>229.6</ele>
        <time>2021-07-05 12:37:53</time>
      </trkpt>
      <trkpt lat="28.33865" lon="-14.1035">
        <ele>229.6</ele>
        <time>2021-07-05 12:37:54</time>
      </trkpt>
      <trkpt lat="28.33862" lon="-14.10352">
        <ele>229.8</ele>
        <time>2021-07-05 12:37:55</time>
      </trkpt>
      <trkpt lat="28.33858" lon="-14.10353">
        <ele>229.8</ele>
        <time>2021-07-05 12:37:56</time>
      </trkpt>
      <trkpt lat="28.33855" lon="-14.10354">
        <ele>229.8</ele>
        <time>2021-07-05 12:37:57</time>
      </trkpt>
      <trkpt lat="28.33852" lon="-14.10354">
        <ele>229.8</ele>
        <time>2021-07-05 12:37:58</time>
      </trkpt>
      <trkpt lat="28.33848" lon="-14.10354">
        <ele>229.8</ele>
        <time>2021-07-05 12:37:59</time>
      </trkpt>
      <trkpt lat="28.33845" lon="-14.10354">
        <ele>230</ele>
        <time>2021-07-05 12:38:00</time>
      </trkpt>
      <trkpt lat="28.33841" lon="-14.10353">
        <ele>230</ele>
        <time>2021-07-05 12:38:01</time>
      </trkpt>
      <trkpt lat="28.33838" lon="-14.10352">
        <ele>230</ele>
        <time>2021-07-05 12:38:02</time>
      </trkpt>
      <trkpt lat="28.33835" lon="-14.10351">
        <ele>230.2</ele>
        <time>2021-07-05 12:38:03</time>
      </trkpt>
      <trkpt lat="28.33832" lon="-14.10349">
        <ele>230.2</ele>
        <time>2021-07-05 12:38:04</time>
      </trkpt>
      <trkpt lat="28.33829" lon="-14.10347">
        <ele>230.4</ele>
        <time>2021-07-05 12:38:05</time>
      </trkpt>
      <trkpt lat="28.33826" lon="-14.10345">
        <ele>230.4</ele>
        <time>2021-07-05 12:38:06</time>
      </trkpt>
      <trkpt lat="28.33823" lon="-14.10343">
        <ele>230.4</ele>
        <time>2021-07-05 12:38:07</time>
      </trkpt>
      <trkpt lat="28.33821" lon="-14.1034">
        <ele>230.4</ele>
        <time>2021-07-05 12:38:08</time>
      </trkpt>
      <trkpt lat="28.33819" lon="-14.10338">
        <ele>230.6</ele>
        <time>2021-07-05 12:38:09</time>
      </trkpt>
      <trkpt lat="28.33816" lon="-14.10335">
        <ele>230.6</ele>
        <time>2021-07-05 12:38:10</time>
      </trkpt>
      <trkpt lat="28.33814" lon="-14.10332">
        <ele>231</ele>
        <time>2021-07-05 12:38:11</time>
      </trkpt>
      <trkpt lat="28.33812" lon="-14.10329">
        <ele>231</ele>
        <time>2021-07-05 12:38:12</time>
      </trkpt>
      <trkpt lat="28.3381" lon="-14.10326">
        <ele>231.4</ele>
        <time>2021-07-05 12:38:13</time>
      </trkpt>
      <trkpt lat="28.33808" lon="-14.10323">
        <ele>231.4</ele>
        <time>2021-07-05 12:38:14</time>
      </trkpt>
      <trkpt lat="28.33806" lon="-14.1032">
        <ele>231.4</ele>
        <time>2021-07-05 12:38:15</time>
      </trkpt>
      <trkpt lat="28.33804" lon="-14.10317">
        <ele>231.4</ele>
        <time>2021-07-05 12:38:16</time>
      </trkpt>
      <trkpt lat="28.33802" lon="-14.10314">
        <ele>231.4</ele>
        <time>2021-07-05 12:38:17</time>
      </trkpt>
      <trkpt lat="28.338" lon="-14.10311">
        <ele>231.6</ele>
        <time>2021-07-05 12:38:18</time>
      </trkpt>
      <trkpt lat="28.33798" lon="-14.10308">
        <ele>231.6</ele>
        <time>2021-07-05 12:38:19</time>
      </trkpt>
      <trkpt lat="28.33796" lon="-14.10305">
        <ele>232</ele>
        <time>2021-07-05 12:38:20</time>
      </trkpt>
      <trkpt lat="28.33795" lon="-14.10302">
        <ele>232.2</ele>
        <time>2021-07-05 12:38:21</time>
      </trkpt>
      <trkpt lat="28.33793" lon="-14.10299">
        <ele>232.6</ele>
        <time>2021-07-05 12:38:22</time>
      </trkpt>
      <trkpt lat="28.33791" lon="-14.10296">
        <ele>232.6</ele>
        <time>2021-07-05 12:38:23</time>
      </trkpt>
      <trkpt lat="28.33789" lon="-14.10294">
        <ele>232.8</ele>
        <time>2021-07-05 12:38:24</time>
      </trkpt>
      <trkpt lat="28.33786" lon="-14.10291">
        <ele>232.8</ele>
        <time>2021-07-05 12:38:25</time>
      </trkpt>
      <trkpt lat="28.33784" lon="-14.10288">
        <ele>233</ele>
        <time>2021-07-05 12:38:26</time>
      </trkpt>
      <trkpt lat="28.33782" lon="-14.10286">
        <ele>233</ele>
        <time>2021-07-05 12:38:27</time>
      </trkpt>
      <trkpt lat="28.3378" lon="-14.10283">
        <ele>233</ele>
        <time>2021-07-05 12:38:28</time>
      </trkpt>
      <trkpt lat="28.33779" lon="-14.10282">
        <ele>233</ele>
        <time>2021-07-05 12:38:29</time>
      </trkpt>
      <trkpt lat="28.33778" lon="-14.10281">
        <ele>233</ele>
        <time>2021-07-05 12:38:30</time>
      </trkpt>
      <trkpt lat="28.33777" lon="-14.10279">
        <ele>233.4</ele>
        <time>2021-07-05 12:38:31</time>
      </trkpt>
      <trkpt lat="28.33776" lon="-14.10278">
        <ele>233.4</ele>
        <time>2021-07-05 12:38:32</time>
      </trkpt>
      <trkpt lat="28.33773" lon="-14.10276">
        <ele>233.8</ele>
        <time>2021-07-05 12:38:33</time>
      </trkpt>
      <trkpt lat="28.3377" lon="-14.10274">
        <ele>233.8</ele>
        <time>2021-07-05 12:38:34</time>
      </trkpt>
      <trkpt lat="28.33767" lon="-14.10273">
        <ele>233.8</ele>
        <time>2021-07-05 12:38:35</time>
      </trkpt>
      <trkpt lat="28.33764" lon="-14.10272">
        <ele>234</ele>
        <time>2021-07-05 12:38:36</time>
      </trkpt>
      <trkpt lat="28.3376" lon="-14.10271">
        <ele>234</ele>
        <time>2021-07-05 12:38:37</time>
      </trkpt>
      <trkpt lat="28.33757" lon="-14.10271">
        <ele>234</ele>
        <time>2021-07-05 12:38:38</time>
      </trkpt>
      <trkpt lat="28.33753" lon="-14.10271">
        <ele>234</ele>
        <time>2021-07-05 12:38:39</time>
      </trkpt>
      <trkpt lat="28.3375" lon="-14.10271">
        <ele>234.4</ele>
        <time>2021-07-05 12:38:40</time>
      </trkpt>
      <trkpt lat="28.33747" lon="-14.10272">
        <ele>234.4</ele>
        <time>2021-07-05 12:38:41</time>
      </trkpt>
      <trkpt lat="28.33743" lon="-14.10273">
        <ele>234.4</ele>
        <time>2021-07-05 12:38:42</time>
      </trkpt>
      <trkpt lat="28.3374" lon="-14.10274">
        <ele>234.4</ele>
        <time>2021-07-05 12:38:43</time>
      </trkpt>
      <trkpt lat="28.33736" lon="-14.10274">
        <ele>234.6</ele>
        <time>2021-07-05 12:38:44</time>
      </trkpt>
      <trkpt lat="28.33733" lon="-14.10276">
        <ele>234.6</ele>
        <time>2021-07-05 12:38:45</time>
      </trkpt>
      <trkpt lat="28.33729" lon="-14.10277">
        <ele>235</ele>
        <time>2021-07-05 12:38:46</time>
      </trkpt>
      <trkpt lat="28.33726" lon="-14.10278">
        <ele>235</ele>
        <time>2021-07-05 12:38:47</time>
      </trkpt>
      <trkpt lat="28.33723" lon="-14.10279">
        <ele>235.2</ele>
        <time>2021-07-05 12:38:48</time>
      </trkpt>
      <trkpt lat="28.33719" lon="-14.10279">
        <ele>235.2</ele>
        <time>2021-07-05 12:38:49</time>
      </trkpt>
      <trkpt lat="28.33716" lon="-14.10279">
        <ele>235.2</ele>
        <time>2021-07-05 12:38:50</time>
      </trkpt>
      <trkpt lat="28.33712" lon="-14.1028">
        <ele>235.4</ele>
        <time>2021-07-05 12:38:51</time>
      </trkpt>
      <trkpt lat="28.33709" lon="-14.1028">
        <ele>235.4</ele>
        <time>2021-07-05 12:38:52</time>
      </trkpt>
      <trkpt lat="28.33705" lon="-14.1028">
        <ele>236</ele>
        <time>2021-07-05 12:38:53</time>
      </trkpt>
      <trkpt lat="28.33702" lon="-14.1028">
        <ele>236</ele>
        <time>2021-07-05 12:38:54</time>
      </trkpt>
      <trkpt lat="28.33699" lon="-14.1028">
        <ele>236.2</ele>
        <time>2021-07-05 12:38:55</time>
      </trkpt>
      <trkpt lat="28.33695" lon="-14.1028">
        <ele>236.2</ele>
        <time>2021-07-05 12:38:56</time>
      </trkpt>
      <trkpt lat="28.33692" lon="-14.1028">
        <ele>236.2</ele>
        <time>2021-07-05 12:38:57</time>
      </trkpt>
      <trkpt lat="28.33689" lon="-14.1028">
        <ele>236.2</ele>
        <time>2021-07-05 12:38:58</time>
      </trkpt>
      <trkpt lat="28.33686" lon="-14.1028">
        <ele>236.2</ele>
        <time>2021-07-05 12:38:59</time>
      </trkpt>
      <trkpt lat="28.33683" lon="-14.10279">
        <ele>236.2</ele>
        <time>2021-07-05 12:39:00</time>
      </trkpt>
      <trkpt lat="28.3368" lon="-14.10279">
        <ele>236.2</ele>
        <time>2021-07-05 12:39:01</time>
      </trkpt>
      <trkpt lat="28.33676" lon="-14.10278">
        <ele>236.2</ele>
        <time>2021-07-05 12:39:02</time>
      </trkpt>
      <trkpt lat="28.33673" lon="-14.10278">
        <ele>236.2</ele>
        <time>2021-07-05 12:39:03</time>
      </trkpt>
      <trkpt lat="28.3367" lon="-14.10277">
        <ele>236.2</ele>
        <time>2021-07-05 12:39:04</time>
      </trkpt>
      <trkpt lat="28.33666" lon="-14.10276">
        <ele>236.4</ele>
        <time>2021-07-05 12:39:05</time>
      </trkpt>
      <trkpt lat="28.33663" lon="-14.10275">
        <ele>236.4</ele>
        <time>2021-07-05 12:39:06</time>
      </trkpt>
      <trkpt lat="28.33659" lon="-14.10274">
        <ele>236.6</ele>
        <time>2021-07-05 12:39:07</time>
      </trkpt>
      <trkpt lat="28.33656" lon="-14.10273">
        <ele>236.6</ele>
        <time>2021-07-05 12:39:08</time>
      </trkpt>
      <trkpt lat="28.33652" lon="-14.10271">
        <ele>236.6</ele>
        <time>2021-07-05 12:39:09</time>
      </trkpt>
      <trkpt lat="28.33649" lon="-14.1027">
        <ele>236.6</ele>
        <time>2021-07-05 12:39:10</time>
      </trkpt>
      <trkpt lat="28.33646" lon="-14.10269">
        <ele>236.6</ele>
        <time>2021-07-05 12:39:11</time>
      </trkpt>
      <trkpt lat="28.33642" lon="-14.10268">
        <ele>236.8</ele>
        <time>2021-07-05 12:39:12</time>
      </trkpt>
      <trkpt lat="28.33639" lon="-14.10266">
        <ele>236.8</ele>
        <time>2021-07-05 12:39:13</time>
      </trkpt>
      <trkpt lat="28.33635" lon="-14.10265">
        <ele>236.8</ele>
        <time>2021-07-05 12:39:14</time>
      </trkpt>
      <trkpt lat="28.33632" lon="-14.10264">
        <ele>236.8</ele>
        <time>2021-07-05 12:39:15</time>
      </trkpt>
      <trkpt lat="28.33629" lon="-14.10262">
        <ele>236.8</ele>
        <time>2021-07-05 12:39:16</time>
      </trkpt>
      <trkpt lat="28.33626" lon="-14.10261">
        <ele>236.8</ele>
        <time>2021-07-05 12:39:17</time>
      </trkpt>
      <trkpt lat="28.33623" lon="-14.1026">
        <ele>236.8</ele>
        <time>2021-07-05 12:39:18</time>
      </trkpt>
      <trkpt lat="28.33619" lon="-14.10259">
        <ele>236.8</ele>
        <time>2021-07-05 12:39:19</time>
      </trkpt>
      <trkpt lat="28.33616" lon="-14.10258">
        <ele>236.8</ele>
        <time>2021-07-05 12:39:20</time>
      </trkpt>
      <trkpt lat="28.33613" lon="-14.10258">
        <ele>237</ele>
        <time>2021-07-05 12:39:21</time>
      </trkpt>
      <trkpt lat="28.33609" lon="-14.10257">
        <ele>237.4</ele>
        <time>2021-07-05 12:39:22</time>
      </trkpt>
      <trkpt lat="28.33606" lon="-14.10256">
        <ele>237.4</ele>
        <time>2021-07-05 12:39:23</time>
      </trkpt>
      <trkpt lat="28.33602" lon="-14.10256">
        <ele>237.4</ele>
        <time>2021-07-05 12:39:24</time>
      </trkpt>
      <trkpt lat="28.33599" lon="-14.10256">
        <ele>237.4</ele>
        <time>2021-07-05 12:39:25</time>
      </trkpt>
      <trkpt lat="28.33595" lon="-14.10256">
        <ele>237.6</ele>
        <time>2021-07-05 12:39:26</time>
      </trkpt>
      <trkpt lat="28.33592" lon="-14.10256">
        <ele>237.6</ele>
        <time>2021-07-05 12:39:27</time>
      </trkpt>
      <trkpt lat="28.33589" lon="-14.10255">
        <ele>237.6</ele>
        <time>2021-07-05 12:39:28</time>
      </trkpt>
      <trkpt lat="28.33585" lon="-14.10255">
        <ele>237.8</ele>
        <time>2021-07-05 12:39:29</time>
      </trkpt>
      <trkpt lat="28.33582" lon="-14.10254">
        <ele>237.8</ele>
        <time>2021-07-05 12:39:30</time>
      </trkpt>
      <trkpt lat="28.33578" lon="-14.10254">
        <ele>237.8</ele>
        <time>2021-07-05 12:39:31</time>
      </trkpt>
      <trkpt lat="28.33578" lon="-14.10254">
        <ele>238</ele>
        <time>2021-07-05 12:39:32</time>
      </trkpt>
      <trkpt lat="28.33571" lon="-14.10254">
        <ele>238</ele>
        <time>2021-07-05 12:39:33</time>
      </trkpt>
      <trkpt lat="28.33568" lon="-14.10254">
        <ele>238</ele>
        <time>2021-07-05 12:39:34</time>
      </trkpt>
      <trkpt lat="28.33564" lon="-14.10254">
        <ele>238</ele>
        <time>2021-07-05 12:39:35</time>
      </trkpt>
      <trkpt lat="28.33561" lon="-14.10254">
        <ele>238</ele>
        <time>2021-07-05 12:39:36</time>
      </trkpt>
      <trkpt lat="28.33557" lon="-14.10254">
        <ele>238.2</ele>
        <time>2021-07-05 12:39:37</time>
      </trkpt>
      <trkpt lat="28.33554" lon="-14.10254">
        <ele>238.2</ele>
        <time>2021-07-05 12:39:38</time>
      </trkpt>
      <trkpt lat="28.3355" lon="-14.10255">
        <ele>238.2</ele>
        <time>2021-07-05 12:39:39</time>
      </trkpt>
      <trkpt lat="28.33547" lon="-14.10255">
        <ele>238.4</ele>
        <time>2021-07-05 12:39:40</time>
      </trkpt>
      <trkpt lat="28.33543" lon="-14.10255">
        <ele>238.4</ele>
        <time>2021-07-05 12:39:41</time>
      </trkpt>
      <trkpt lat="28.3354" lon="-14.10255">
        <ele>238.4</ele>
        <time>2021-07-05 12:39:42</time>
      </trkpt>
      <trkpt lat="28.33536" lon="-14.10255">
        <ele>238.4</ele>
        <time>2021-07-05 12:39:43</time>
      </trkpt>
      <trkpt lat="28.33533" lon="-14.10255">
        <ele>238.8</ele>
        <time>2021-07-05 12:39:44</time>
      </trkpt>
      <trkpt lat="28.3353" lon="-14.10255">
        <ele>238.8</ele>
        <time>2021-07-05 12:39:45</time>
      </trkpt>
      <trkpt lat="28.33527" lon="-14.10256">
        <ele>238.8</ele>
        <time>2021-07-05 12:39:46</time>
      </trkpt>
      <trkpt lat="28.33524" lon="-14.10256">
        <ele>238.8</ele>
        <time>2021-07-05 12:39:47</time>
      </trkpt>
      <trkpt lat="28.3352" lon="-14.10257">
        <ele>238.8</ele>
        <time>2021-07-05 12:39:48</time>
      </trkpt>
      <trkpt lat="28.33517" lon="-14.10257">
        <ele>239</ele>
        <time>2021-07-05 12:39:49</time>
      </trkpt>
      <trkpt lat="28.33514" lon="-14.10258">
        <ele>239</ele>
        <time>2021-07-05 12:39:50</time>
      </trkpt>
      <trkpt lat="28.33511" lon="-14.10259">
        <ele>239</ele>
        <time>2021-07-05 12:39:51</time>
      </trkpt>
      <trkpt lat="28.33508" lon="-14.10259">
        <ele>239.2</ele>
        <time>2021-07-05 12:39:52</time>
      </trkpt>
      <trkpt lat="28.33505" lon="-14.1026">
        <ele>239.2</ele>
        <time>2021-07-05 12:39:53</time>
      </trkpt>
      <trkpt lat="28.33503" lon="-14.10262">
        <ele>239.2</ele>
        <time>2021-07-05 12:39:54</time>
      </trkpt>
      <trkpt lat="28.335" lon="-14.10263">
        <ele>239.6</ele>
        <time>2021-07-05 12:39:55</time>
      </trkpt>
      <trkpt lat="28.33498" lon="-14.10265">
        <ele>239.8</ele>
        <time>2021-07-05 12:39:56</time>
      </trkpt>
      <trkpt lat="28.33495" lon="-14.10266">
        <ele>239.8</ele>
        <time>2021-07-05 12:39:57</time>
      </trkpt>
      <trkpt lat="28.33493" lon="-14.10268">
        <ele>239.8</ele>
        <time>2021-07-05 12:39:58</time>
      </trkpt>
      <trkpt lat="28.3349" lon="-14.1027">
        <ele>239.8</ele>
        <time>2021-07-05 12:39:59</time>
      </trkpt>
      <trkpt lat="28.33488" lon="-14.10273">
        <ele>240</ele>
        <time>2021-07-05 12:40:00</time>
      </trkpt>
      <trkpt lat="28.33486" lon="-14.10275">
        <ele>240</ele>
        <time>2021-07-05 12:40:01</time>
      </trkpt>
      <trkpt lat="28.33484" lon="-14.10278">
        <ele>240</ele>
        <time>2021-07-05 12:40:02</time>
      </trkpt>
      <trkpt lat="28.33482" lon="-14.1028">
        <ele>240.4</ele>
        <time>2021-07-05 12:40:03</time>
      </trkpt>
      <trkpt lat="28.3348" lon="-14.10284">
        <ele>240.8</ele>
        <time>2021-07-05 12:40:04</time>
      </trkpt>
      <trkpt lat="28.33478" lon="-14.10287">
        <ele>240.8</ele>
        <time>2021-07-05 12:40:05</time>
      </trkpt>
      <trkpt lat="28.33477" lon="-14.1029">
        <ele>241</ele>
        <time>2021-07-05 12:40:06</time>
      </trkpt>
      <trkpt lat="28.33475" lon="-14.10293">
        <ele>241.6</ele>
        <time>2021-07-05 12:40:07</time>
      </trkpt>
      <trkpt lat="28.33474" lon="-14.10296">
        <ele>242</ele>
        <time>2021-07-05 12:40:08</time>
      </trkpt>
      <trkpt lat="28.33472" lon="-14.103">
        <ele>242</ele>
        <time>2021-07-05 12:40:09</time>
      </trkpt>
      <trkpt lat="28.33471" lon="-14.10303">
        <ele>242</ele>
        <time>2021-07-05 12:40:10</time>
      </trkpt>
      <trkpt lat="28.3347" lon="-14.10307">
        <ele>242.2</ele>
        <time>2021-07-05 12:40:11</time>
      </trkpt>
      <trkpt lat="28.33469" lon="-14.10311">
        <ele>242.2</ele>
        <time>2021-07-05 12:40:12</time>
      </trkpt>
      <trkpt lat="28.33468" lon="-14.10315">
        <ele>242.6</ele>
        <time>2021-07-05 12:40:13</time>
      </trkpt>
      <trkpt lat="28.33466" lon="-14.10319">
        <ele>242.6</ele>
        <time>2021-07-05 12:40:14</time>
      </trkpt>
      <trkpt lat="28.33465" lon="-14.10323">
        <ele>242.6</ele>
        <time>2021-07-05 12:40:15</time>
      </trkpt>
      <trkpt lat="28.33464" lon="-14.10326">
        <ele>242.8</ele>
        <time>2021-07-05 12:40:16</time>
      </trkpt>
      <trkpt lat="28.33463" lon="-14.1033">
        <ele>242.8</ele>
        <time>2021-07-05 12:40:17</time>
      </trkpt>
      <trkpt lat="28.33461" lon="-14.10334">
        <ele>242.8</ele>
        <time>2021-07-05 12:40:18</time>
      </trkpt>
      <trkpt lat="28.33459" lon="-14.10338">
        <ele>242.8</ele>
        <time>2021-07-05 12:40:19</time>
      </trkpt>
      <trkpt lat="28.33457" lon="-14.10341">
        <ele>243</ele>
        <time>2021-07-05 12:40:20</time>
      </trkpt>
      <trkpt lat="28.33455" lon="-14.10344">
        <ele>243</ele>
        <time>2021-07-05 12:40:21</time>
      </trkpt>
      <trkpt lat="28.33453" lon="-14.10347">
        <ele>243</ele>
        <time>2021-07-05 12:40:22</time>
      </trkpt>
      <trkpt lat="28.33451" lon="-14.1035">
        <ele>243</ele>
        <time>2021-07-05 12:40:23</time>
      </trkpt>
      <trkpt lat="28.33449" lon="-14.10353">
        <ele>243</ele>
        <time>2021-07-05 12:40:24</time>
      </trkpt>
      <trkpt lat="28.33446" lon="-14.10356">
        <ele>243</ele>
        <time>2021-07-05 12:40:25</time>
      </trkpt>
      <trkpt lat="28.33444" lon="-14.10358">
        <ele>243</ele>
        <time>2021-07-05 12:40:26</time>
      </trkpt>
      <trkpt lat="28.33441" lon="-14.10361">
        <ele>243.4</ele>
        <time>2021-07-05 12:40:27</time>
      </trkpt>
      <trkpt lat="28.33438" lon="-14.10363">
        <ele>243.4</ele>
        <time>2021-07-05 12:40:28</time>
      </trkpt>
      <trkpt lat="28.33435" lon="-14.10365">
        <ele>243.6</ele>
        <time>2021-07-05 12:40:29</time>
      </trkpt>
      <trkpt lat="28.33432" lon="-14.10367">
        <ele>243.6</ele>
        <time>2021-07-05 12:40:30</time>
      </trkpt>
      <trkpt lat="28.33428" lon="-14.10368">
        <ele>243.6</ele>
        <time>2021-07-05 12:40:31</time>
      </trkpt>
      <trkpt lat="28.33425" lon="-14.1037">
        <ele>243.6</ele>
        <time>2021-07-05 12:40:32</time>
      </trkpt>
      <trkpt lat="28.33421" lon="-14.10371">
        <ele>243.8</ele>
        <time>2021-07-05 12:40:33</time>
      </trkpt>
      <trkpt lat="28.33418" lon="-14.10372">
        <ele>243.8</ele>
        <time>2021-07-05 12:40:34</time>
      </trkpt>
      <trkpt lat="28.33415" lon="-14.10373">
        <ele>244.6</ele>
        <time>2021-07-05 12:40:35</time>
      </trkpt>
      <trkpt lat="28.33412" lon="-14.10374">
        <ele>244.6</ele>
        <time>2021-07-05 12:40:36</time>
      </trkpt>
      <trkpt lat="28.33408" lon="-14.10375">
        <ele>244.6</ele>
        <time>2021-07-05 12:40:37</time>
      </trkpt>
      <trkpt lat="28.33405" lon="-14.10376">
        <ele>244.6</ele>
        <time>2021-07-05 12:40:38</time>
      </trkpt>
      <trkpt lat="28.33402" lon="-14.10377">
        <ele>244.8</ele>
        <time>2021-07-05 12:40:39</time>
      </trkpt>
      <trkpt lat="28.33399" lon="-14.10378">
        <ele>245</ele>
        <time>2021-07-05 12:40:40</time>
      </trkpt>
      <trkpt lat="28.33396" lon="-14.10379">
        <ele>245.4</ele>
        <time>2021-07-05 12:40:41</time>
      </trkpt>
      <trkpt lat="28.33393" lon="-14.1038">
        <ele>245.4</ele>
        <time>2021-07-05 12:40:42</time>
      </trkpt>
      <trkpt lat="28.3339" lon="-14.1038">
        <ele>245.8</ele>
        <time>2021-07-05 12:40:43</time>
      </trkpt>
      <trkpt lat="28.33387" lon="-14.1038">
        <ele>246</ele>
        <time>2021-07-05 12:40:44</time>
      </trkpt>
      <trkpt lat="28.33384" lon="-14.1038">
        <ele>246</ele>
        <time>2021-07-05 12:40:45</time>
      </trkpt>
      <trkpt lat="28.33382" lon="-14.10379">
        <ele>246.6</ele>
        <time>2021-07-05 12:40:46</time>
      </trkpt>
      <trkpt lat="28.33379" lon="-14.10379">
        <ele>246.6</ele>
        <time>2021-07-05 12:40:47</time>
      </trkpt>
      <trkpt lat="28.33377" lon="-14.10378">
        <ele>247</ele>
        <time>2021-07-05 12:40:48</time>
      </trkpt>
      <trkpt lat="28.33374" lon="-14.10377">
        <ele>247</ele>
        <time>2021-07-05 12:40:49</time>
      </trkpt>
      <trkpt lat="28.33372" lon="-14.10375">
        <ele>247</ele>
        <time>2021-07-05 12:40:50</time>
      </trkpt>
      <trkpt lat="28.33369" lon="-14.10374">
        <ele>247.2</ele>
        <time>2021-07-05 12:40:51</time>
      </trkpt>
      <trkpt lat="28.33367" lon="-14.10372">
        <ele>247.6</ele>
        <time>2021-07-05 12:40:52</time>
      </trkpt>
      <trkpt lat="28.33365" lon="-14.1037">
        <ele>247.6</ele>
        <time>2021-07-05 12:40:53</time>
      </trkpt>
      <trkpt lat="28.33363" lon="-14.10369">
        <ele>247.6</ele>
        <time>2021-07-05 12:40:54</time>
      </trkpt>
      <trkpt lat="28.33361" lon="-14.10367">
        <ele>248.2</ele>
        <time>2021-07-05 12:40:55</time>
      </trkpt>
      <trkpt lat="28.33358" lon="-14.10366">
        <ele>248.2</ele>
        <time>2021-07-05 12:40:56</time>
      </trkpt>
      <trkpt lat="28.33356" lon="-14.10364">
        <ele>248.4</ele>
        <time>2021-07-05 12:40:57</time>
      </trkpt>
      <trkpt lat="28.33353" lon="-14.10363">
        <ele>248.8</ele>
        <time>2021-07-05 12:40:58</time>
      </trkpt>
      <trkpt lat="28.33351" lon="-14.10362">
        <ele>248.8</ele>
        <time>2021-07-05 12:40:59</time>
      </trkpt>
      <trkpt lat="28.33348" lon="-14.10362">
        <ele>249</ele>
        <time>2021-07-05 12:41:00</time>
      </trkpt>
      <trkpt lat="28.33345" lon="-14.10361">
        <ele>249</ele>
        <time>2021-07-05 12:41:01</time>
      </trkpt>
      <trkpt lat="28.33342" lon="-14.10361">
        <ele>249</ele>
        <time>2021-07-05 12:41:02</time>
      </trkpt>
      <trkpt lat="28.3334" lon="-14.10361">
        <ele>249.2</ele>
        <time>2021-07-05 12:41:03</time>
      </trkpt>
      <trkpt lat="28.33338" lon="-14.10361">
        <ele>249.2</ele>
        <time>2021-07-05 12:41:04</time>
      </trkpt>
      <trkpt lat="28.33335" lon="-14.10362">
        <ele>249.6</ele>
        <time>2021-07-05 12:41:05</time>
      </trkpt>
      <trkpt lat="28.33333" lon="-14.10362">
        <ele>249.6</ele>
        <time>2021-07-05 12:41:06</time>
      </trkpt>
      <trkpt lat="28.33331" lon="-14.10363">
        <ele>249.8</ele>
        <time>2021-07-05 12:41:07</time>
      </trkpt>
      <trkpt lat="28.33329" lon="-14.10363">
        <ele>249.8</ele>
        <time>2021-07-05 12:41:08</time>
      </trkpt>
      <trkpt lat="28.33327" lon="-14.10364">
        <ele>250.2</ele>
        <time>2021-07-05 12:41:09</time>
      </trkpt>
      <trkpt lat="28.33325" lon="-14.10364">
        <ele>250.8</ele>
        <time>2021-07-05 12:41:10</time>
      </trkpt>
      <trkpt lat="28.33323" lon="-14.10365">
        <ele>250.8</ele>
        <time>2021-07-05 12:41:11</time>
      </trkpt>
      <trkpt lat="28.3332" lon="-14.10366">
        <ele>251.2</ele>
        <time>2021-07-05 12:41:12</time>
      </trkpt>
      <trkpt lat="28.33318" lon="-14.10367">
        <ele>251.6</ele>
        <time>2021-07-05 12:41:13</time>
      </trkpt>
      <trkpt lat="28.33316" lon="-14.10367">
        <ele>251.6</ele>
        <time>2021-07-05 12:41:14</time>
      </trkpt>
      <trkpt lat="28.33314" lon="-14.10367">
        <ele>251.6</ele>
        <time>2021-07-05 12:41:15</time>
      </trkpt>
      <trkpt lat="28.33312" lon="-14.10367">
        <ele>252</ele>
        <time>2021-07-05 12:41:16</time>
      </trkpt>
      <trkpt lat="28.33309" lon="-14.10367">
        <ele>252</ele>
        <time>2021-07-05 12:41:17</time>
      </trkpt>
      <trkpt lat="28.33307" lon="-14.10367">
        <ele>252.2</ele>
        <time>2021-07-05 12:41:18</time>
      </trkpt>
      <trkpt lat="28.33304" lon="-14.10366">
        <ele>252.2</ele>
        <time>2021-07-05 12:41:19</time>
      </trkpt>
      <trkpt lat="28.33302" lon="-14.10366">
        <ele>252.6</ele>
        <time>2021-07-05 12:41:20</time>
      </trkpt>
      <trkpt lat="28.333" lon="-14.10365">
        <ele>252.8</ele>
        <time>2021-07-05 12:41:21</time>
      </trkpt>
      <trkpt lat="28.33297" lon="-14.10365">
        <ele>253.4</ele>
        <time>2021-07-05 12:41:22</time>
      </trkpt>
      <trkpt lat="28.33295" lon="-14.10364">
        <ele>253.4</ele>
        <time>2021-07-05 12:41:23</time>
      </trkpt>
      <trkpt lat="28.33293" lon="-14.10364">
        <ele>253.8</ele>
        <time>2021-07-05 12:41:24</time>
      </trkpt>
      <trkpt lat="28.33291" lon="-14.10364">
        <ele>254</ele>
        <time>2021-07-05 12:41:25</time>
      </trkpt>
      <trkpt lat="28.33289" lon="-14.10364">
        <ele>254.2</ele>
        <time>2021-07-05 12:41:26</time>
      </trkpt>
      <trkpt lat="28.33287" lon="-14.10364">
        <ele>254.8</ele>
        <time>2021-07-05 12:41:27</time>
      </trkpt>
      <trkpt lat="28.33285" lon="-14.10365">
        <ele>255.2</ele>
        <time>2021-07-05 12:41:28</time>
      </trkpt>
      <trkpt lat="28.33283" lon="-14.10365">
        <ele>255.4</ele>
        <time>2021-07-05 12:41:29</time>
      </trkpt>
      <trkpt lat="28.33281" lon="-14.10365">
        <ele>255.6</ele>
        <time>2021-07-05 12:41:30</time>
      </trkpt>
      <trkpt lat="28.33278" lon="-14.10365">
        <ele>255.8</ele>
        <time>2021-07-05 12:41:31</time>
      </trkpt>
      <trkpt lat="28.33276" lon="-14.10365">
        <ele>256.2</ele>
        <time>2021-07-05 12:41:32</time>
      </trkpt>
      <trkpt lat="28.33273" lon="-14.10366">
        <ele>256.2</ele>
        <time>2021-07-05 12:41:33</time>
      </trkpt>
      <trkpt lat="28.33271" lon="-14.10366">
        <ele>256.4</ele>
        <time>2021-07-05 12:41:34</time>
      </trkpt>
      <trkpt lat="28.33268" lon="-14.10367">
        <ele>256.4</ele>
        <time>2021-07-05 12:41:35</time>
      </trkpt>
      <trkpt lat="28.33266" lon="-14.10367">
        <ele>256.6</ele>
        <time>2021-07-05 12:41:36</time>
      </trkpt>
      <trkpt lat="28.33263" lon="-14.10368">
        <ele>256.6</ele>
        <time>2021-07-05 12:41:37</time>
      </trkpt>
      <trkpt lat="28.33261" lon="-14.10368">
        <ele>256.6</ele>
        <time>2021-07-05 12:41:38</time>
      </trkpt>
      <trkpt lat="28.33259" lon="-14.10369">
        <ele>257</ele>
        <time>2021-07-05 12:41:39</time>
      </trkpt>
      <trkpt lat="28.33256" lon="-14.10369">
        <ele>257</ele>
        <time>2021-07-05 12:41:40</time>
      </trkpt>
      <trkpt lat="28.33254" lon="-14.1037">
        <ele>257.2</ele>
        <time>2021-07-05 12:41:41</time>
      </trkpt>
      <trkpt lat="28.33251" lon="-14.10371">
        <ele>257.4</ele>
        <time>2021-07-05 12:41:42</time>
      </trkpt>
      <trkpt lat="28.33249" lon="-14.10371">
        <ele>257.6</ele>
        <time>2021-07-05 12:41:43</time>
      </trkpt>
      <trkpt lat="28.33247" lon="-14.10372">
        <ele>257.8</ele>
        <time>2021-07-05 12:41:44</time>
      </trkpt>
      <trkpt lat="28.33244" lon="-14.10373">
        <ele>258.2</ele>
        <time>2021-07-05 12:41:45</time>
      </trkpt>
      <trkpt lat="28.33241" lon="-14.10374">
        <ele>258.2</ele>
        <time>2021-07-05 12:41:46</time>
      </trkpt>
      <trkpt lat="28.33239" lon="-14.10375">
        <ele>258.4</ele>
        <time>2021-07-05 12:41:47</time>
      </trkpt>
      <trkpt lat="28.33237" lon="-14.10376">
        <ele>258.6</ele>
        <time>2021-07-05 12:41:48</time>
      </trkpt>
      <trkpt lat="28.33234" lon="-14.10378">
        <ele>259</ele>
        <time>2021-07-05 12:41:49</time>
      </trkpt>
      <trkpt lat="28.33231" lon="-14.10379">
        <ele>259</ele>
        <time>2021-07-05 12:41:50</time>
      </trkpt>
      <trkpt lat="28.33229" lon="-14.1038">
        <ele>259.4</ele>
        <time>2021-07-05 12:41:51</time>
      </trkpt>
      <trkpt lat="28.33227" lon="-14.10382">
        <ele>259.4</ele>
        <time>2021-07-05 12:41:52</time>
      </trkpt>
      <trkpt lat="28.33225" lon="-14.10384">
        <ele>259.6</ele>
        <time>2021-07-05 12:41:53</time>
      </trkpt>
      <trkpt lat="28.33222" lon="-14.10385">
        <ele>259.6</ele>
        <time>2021-07-05 12:41:54</time>
      </trkpt>
      <trkpt lat="28.33219" lon="-14.10387">
        <ele>260.2</ele>
        <time>2021-07-05 12:41:55</time>
      </trkpt>
      <trkpt lat="28.33216" lon="-14.10388">
        <ele>260.4</ele>
        <time>2021-07-05 12:41:56</time>
      </trkpt>
      <trkpt lat="28.33214" lon="-14.1039">
        <ele>260.6</ele>
        <time>2021-07-05 12:41:57</time>
      </trkpt>
      <trkpt lat="28.33212" lon="-14.10391">
        <ele>261</ele>
        <time>2021-07-05 12:41:58</time>
      </trkpt>
      <trkpt lat="28.33209" lon="-14.10393">
        <ele>261</ele>
        <time>2021-07-05 12:41:59</time>
      </trkpt>
      <trkpt lat="28.33206" lon="-14.10395">
        <ele>261.2</ele>
        <time>2021-07-05 12:42:00</time>
      </trkpt>
      <trkpt lat="28.33202" lon="-14.10396">
        <ele>261.2</ele>
        <time>2021-07-05 12:42:01</time>
      </trkpt>
      <trkpt lat="28.33198" lon="-14.10397">
        <ele>261.2</ele>
        <time>2021-07-05 12:42:02</time>
      </trkpt>
      <trkpt lat="28.33194" lon="-14.10398">
        <ele>261.2</ele>
        <time>2021-07-05 12:42:03</time>
      </trkpt>
      <trkpt lat="28.33189" lon="-14.104">
        <ele>261.2</ele>
        <time>2021-07-05 12:42:04</time>
      </trkpt>
      <trkpt lat="28.33184" lon="-14.10401">
        <ele>261.2</ele>
        <time>2021-07-05 12:42:05</time>
      </trkpt>
      <trkpt lat="28.33179" lon="-14.10402">
        <ele>260.8</ele>
        <time>2021-07-05 12:42:06</time>
      </trkpt>
      <trkpt lat="28.33175" lon="-14.10404">
        <ele>260.8</ele>
        <time>2021-07-05 12:42:07</time>
      </trkpt>
      <trkpt lat="28.33169" lon="-14.10405">
        <ele>260.8</ele>
        <time>2021-07-05 12:42:08</time>
      </trkpt>
      <trkpt lat="28.33164" lon="-14.10407">
        <ele>260.4</ele>
        <time>2021-07-05 12:42:09</time>
      </trkpt>
      <trkpt lat="28.33158" lon="-14.10407">
        <ele>260.4</ele>
        <time>2021-07-05 12:42:10</time>
      </trkpt>
      <trkpt lat="28.33151" lon="-14.10408">
        <ele>260.4</ele>
        <time>2021-07-05 12:42:11</time>
      </trkpt>
      <trkpt lat="28.33145" lon="-14.10407">
        <ele>260.2</ele>
        <time>2021-07-05 12:42:12</time>
      </trkpt>
      <trkpt lat="28.33137" lon="-14.10406">
        <ele>259.6</ele>
        <time>2021-07-05 12:42:13</time>
      </trkpt>
      <trkpt lat="28.3313" lon="-14.10405">
        <ele>259.4</ele>
        <time>2021-07-05 12:42:14</time>
      </trkpt>
      <trkpt lat="28.33123" lon="-14.10405">
        <ele>259.2</ele>
        <time>2021-07-05 12:42:15</time>
      </trkpt>
      <trkpt lat="28.33116" lon="-14.10406">
        <ele>259.2</ele>
        <time>2021-07-05 12:42:16</time>
      </trkpt>
      <trkpt lat="28.33109" lon="-14.10407">
        <ele>258.8</ele>
        <time>2021-07-05 12:42:17</time>
      </trkpt>
      <trkpt lat="28.33102" lon="-14.10407">
        <ele>258.4</ele>
        <time>2021-07-05 12:42:18</time>
      </trkpt>
      <trkpt lat="28.33095" lon="-14.10408">
        <ele>258.2</ele>
        <time>2021-07-05 12:42:19</time>
      </trkpt>
      <trkpt lat="28.33088" lon="-14.10409">
        <ele>258.2</ele>
        <time>2021-07-05 12:42:20</time>
      </trkpt>
      <trkpt lat="28.33082" lon="-14.1041">
        <ele>258</ele>
        <time>2021-07-05 12:42:21</time>
      </trkpt>
      <trkpt lat="28.33077" lon="-14.10411">
        <ele>258</ele>
        <time>2021-07-05 12:42:22</time>
      </trkpt>
      <trkpt lat="28.33072" lon="-14.10412">
        <ele>258</ele>
        <time>2021-07-05 12:42:23</time>
      </trkpt>
      <trkpt lat="28.33067" lon="-14.10413">
        <ele>258.2</ele>
        <time>2021-07-05 12:42:24</time>
      </trkpt>
      <trkpt lat="28.33064" lon="-14.10414">
        <ele>258.2</ele>
        <time>2021-07-05 12:42:25</time>
      </trkpt>
      <trkpt lat="28.33061" lon="-14.10416">
        <ele>258.2</ele>
        <time>2021-07-05 12:42:26</time>
      </trkpt>
      <trkpt lat="28.33058" lon="-14.10418">
        <ele>258.2</ele>
        <time>2021-07-05 12:42:27</time>
      </trkpt>
      <trkpt lat="28.33056" lon="-14.10419">
        <ele>258.4</ele>
        <time>2021-07-05 12:42:28</time>
      </trkpt>
      <trkpt lat="28.33053" lon="-14.10421">
        <ele>258.4</ele>
        <time>2021-07-05 12:42:29</time>
      </trkpt>
      <trkpt lat="28.33051" lon="-14.10422">
        <ele>258.4</ele>
        <time>2021-07-05 12:42:30</time>
      </trkpt>
      <trkpt lat="28.33049" lon="-14.10424">
        <ele>258.4</ele>
        <time>2021-07-05 12:42:31</time>
      </trkpt>
      <trkpt lat="28.33047" lon="-14.10425">
        <ele>258.8</ele>
        <time>2021-07-05 12:42:32</time>
      </trkpt>
      <trkpt lat="28.33045" lon="-14.10426">
        <ele>259.2</ele>
        <time>2021-07-05 12:42:33</time>
      </trkpt>
      <trkpt lat="28.33043" lon="-14.10427">
        <ele>259.2</ele>
        <time>2021-07-05 12:42:34</time>
      </trkpt>
      <trkpt lat="28.3304" lon="-14.10427">
        <ele>259.2</ele>
        <time>2021-07-05 12:42:35</time>
      </trkpt>
      <trkpt lat="28.33038" lon="-14.10428">
        <ele>260</ele>
        <time>2021-07-05 12:42:36</time>
      </trkpt>
      <trkpt lat="28.33036" lon="-14.10428">
        <ele>260</ele>
        <time>2021-07-05 12:42:37</time>
      </trkpt>
      <trkpt lat="28.33034" lon="-14.10429">
        <ele>260.2</ele>
        <time>2021-07-05 12:42:38</time>
      </trkpt>
      <trkpt lat="28.33032" lon="-14.10429">
        <ele>260.2</ele>
        <time>2021-07-05 12:42:39</time>
      </trkpt>
      <trkpt lat="28.33029" lon="-14.10429">
        <ele>260.6</ele>
        <time>2021-07-05 12:42:40</time>
      </trkpt>
      <trkpt lat="28.33027" lon="-14.10429">
        <ele>260.6</ele>
        <time>2021-07-05 12:42:41</time>
      </trkpt>
      <trkpt lat="28.33025" lon="-14.10429">
        <ele>261</ele>
        <time>2021-07-05 12:42:42</time>
      </trkpt>
      <trkpt lat="28.33024" lon="-14.10429">
        <ele>261.2</ele>
        <time>2021-07-05 12:42:43</time>
      </trkpt>
      <trkpt lat="28.33022" lon="-14.10429">
        <ele>261.6</ele>
        <time>2021-07-05 12:42:44</time>
      </trkpt>
      <trkpt lat="28.3302" lon="-14.10428">
        <ele>262</ele>
        <time>2021-07-05 12:42:45</time>
      </trkpt>
      <trkpt lat="28.33018" lon="-14.10428">
        <ele>262.2</ele>
        <time>2021-07-05 12:42:46</time>
      </trkpt>
      <trkpt lat="28.33016" lon="-14.10427">
        <ele>262.4</ele>
        <time>2021-07-05 12:42:47</time>
      </trkpt>
      <trkpt lat="28.33014" lon="-14.10426">
        <ele>263</ele>
        <time>2021-07-05 12:42:48</time>
      </trkpt>
      <trkpt lat="28.33012" lon="-14.10425">
        <ele>263</ele>
        <time>2021-07-05 12:42:49</time>
      </trkpt>
      <trkpt lat="28.3301" lon="-14.10424">
        <ele>263</ele>
        <time>2021-07-05 12:42:50</time>
      </trkpt>
      <trkpt lat="28.33008" lon="-14.10424">
        <ele>263.4</ele>
        <time>2021-07-05 12:42:51</time>
      </trkpt>
      <trkpt lat="28.33006" lon="-14.10423">
        <ele>263.6</ele>
        <time>2021-07-05 12:42:52</time>
      </trkpt>
      <trkpt lat="28.33004" lon="-14.10422">
        <ele>263.6</ele>
        <time>2021-07-05 12:42:53</time>
      </trkpt>
      <trkpt lat="28.33002" lon="-14.10421">
        <ele>264</ele>
        <time>2021-07-05 12:42:54</time>
      </trkpt>
      <trkpt lat="28.33" lon="-14.1042">
        <ele>264.2</ele>
        <time>2021-07-05 12:42:55</time>
      </trkpt>
      <trkpt lat="28.32997" lon="-14.1042">
        <ele>264.4</ele>
        <time>2021-07-05 12:42:56</time>
      </trkpt>
      <trkpt lat="28.32996" lon="-14.1042">
        <ele>264.6</ele>
        <time>2021-07-05 12:42:57</time>
      </trkpt>
      <trkpt lat="28.32994" lon="-14.1042">
        <ele>264.6</ele>
        <time>2021-07-05 12:42:58</time>
      </trkpt>
      <trkpt lat="28.32991" lon="-14.1042">
        <ele>265</ele>
        <time>2021-07-05 12:42:59</time>
      </trkpt>
      <trkpt lat="28.32989" lon="-14.1042">
        <ele>265</ele>
        <time>2021-07-05 12:43:00</time>
      </trkpt>
      <trkpt lat="28.32987" lon="-14.10421">
        <ele>265.2</ele>
        <time>2021-07-05 12:43:01</time>
      </trkpt>
      <trkpt lat="28.32985" lon="-14.10421">
        <ele>265.4</ele>
        <time>2021-07-05 12:43:02</time>
      </trkpt>
      <trkpt lat="28.32983" lon="-14.10422">
        <ele>265.4</ele>
        <time>2021-07-05 12:43:03</time>
      </trkpt>
      <trkpt lat="28.32981" lon="-14.10422">
        <ele>266</ele>
        <time>2021-07-05 12:43:04</time>
      </trkpt>
      <trkpt lat="28.32979" lon="-14.10423">
        <ele>266.6</ele>
        <time>2021-07-05 12:43:05</time>
      </trkpt>
      <trkpt lat="28.32977" lon="-14.10423">
        <ele>266.6</ele>
        <time>2021-07-05 12:43:06</time>
      </trkpt>
      <trkpt lat="28.32976" lon="-14.10423">
        <ele>266.8</ele>
        <time>2021-07-05 12:43:07</time>
      </trkpt>
      <trkpt lat="28.32974" lon="-14.10423">
        <ele>267</ele>
        <time>2021-07-05 12:43:08</time>
      </trkpt>
      <trkpt lat="28.32972" lon="-14.10424">
        <ele>267.2</ele>
        <time>2021-07-05 12:43:09</time>
      </trkpt>
      <trkpt lat="28.3297" lon="-14.10424">
        <ele>267.6</ele>
        <time>2021-07-05 12:43:10</time>
      </trkpt>
      <trkpt lat="28.32969" lon="-14.10424">
        <ele>267.8</ele>
        <time>2021-07-05 12:43:11</time>
      </trkpt>
      <trkpt lat="28.32967" lon="-14.10424">
        <ele>268.2</ele>
        <time>2021-07-05 12:43:12</time>
      </trkpt>
      <trkpt lat="28.32965" lon="-14.10425">
        <ele>268.4</ele>
        <time>2021-07-05 12:43:13</time>
      </trkpt>
      <trkpt lat="28.32963" lon="-14.10425">
        <ele>268.6</ele>
        <time>2021-07-05 12:43:14</time>
      </trkpt>
      <trkpt lat="28.32961" lon="-14.10425">
        <ele>269</ele>
        <time>2021-07-05 12:43:15</time>
      </trkpt>
      <trkpt lat="28.32959" lon="-14.10426">
        <ele>269.6</ele>
        <time>2021-07-05 12:43:16</time>
      </trkpt>
      <trkpt lat="28.32957" lon="-14.10426">
        <ele>269.6</ele>
        <time>2021-07-05 12:43:17</time>
      </trkpt>
      <trkpt lat="28.32955" lon="-14.10426">
        <ele>269.8</ele>
        <time>2021-07-05 12:43:18</time>
      </trkpt>
      <trkpt lat="28.32953" lon="-14.10427">
        <ele>270.2</ele>
        <time>2021-07-05 12:43:19</time>
      </trkpt>
      <trkpt lat="28.32952" lon="-14.10428">
        <ele>270.2</ele>
        <time>2021-07-05 12:43:20</time>
      </trkpt>
      <trkpt lat="28.3295" lon="-14.10428">
        <ele>270.6</ele>
        <time>2021-07-05 12:43:21</time>
      </trkpt>
      <trkpt lat="28.32948" lon="-14.10429">
        <ele>270.6</ele>
        <time>2021-07-05 12:43:22</time>
      </trkpt>
      <trkpt lat="28.32946" lon="-14.10429">
        <ele>271</ele>
        <time>2021-07-05 12:43:23</time>
      </trkpt>
      <trkpt lat="28.32945" lon="-14.1043">
        <ele>271.2</ele>
        <time>2021-07-05 12:43:24</time>
      </trkpt>
      <trkpt lat="28.32942" lon="-14.10431">
        <ele>271.6</ele>
        <time>2021-07-05 12:43:25</time>
      </trkpt>
      <trkpt lat="28.3294" lon="-14.10432">
        <ele>272.2</ele>
        <time>2021-07-05 12:43:26</time>
      </trkpt>
      <trkpt lat="28.32938" lon="-14.10432">
        <ele>272.2</ele>
        <time>2021-07-05 12:43:27</time>
      </trkpt>
      <trkpt lat="28.32936" lon="-14.10433">
        <ele>272.4</ele>
        <time>2021-07-05 12:43:28</time>
      </trkpt>
      <trkpt lat="28.32933" lon="-14.10433">
        <ele>272.4</ele>
        <time>2021-07-05 12:43:29</time>
      </trkpt>
      <trkpt lat="28.32931" lon="-14.10432">
        <ele>272.8</ele>
        <time>2021-07-05 12:43:30</time>
      </trkpt>
      <trkpt lat="28.32929" lon="-14.10432">
        <ele>272.8</ele>
        <time>2021-07-05 12:43:31</time>
      </trkpt>
      <trkpt lat="28.32927" lon="-14.10431">
        <ele>273.2</ele>
        <time>2021-07-05 12:43:32</time>
      </trkpt>
      <trkpt lat="28.32925" lon="-14.1043">
        <ele>273.2</ele>
        <time>2021-07-05 12:43:33</time>
      </trkpt>
      <trkpt lat="28.32923" lon="-14.10429">
        <ele>273.6</ele>
        <time>2021-07-05 12:43:34</time>
      </trkpt>
      <trkpt lat="28.32921" lon="-14.10428">
        <ele>273.6</ele>
        <time>2021-07-05 12:43:35</time>
      </trkpt>
      <trkpt lat="28.32919" lon="-14.10426">
        <ele>273.8</ele>
        <time>2021-07-05 12:43:36</time>
      </trkpt>
      <trkpt lat="28.32917" lon="-14.10425">
        <ele>273.8</ele>
        <time>2021-07-05 12:43:37</time>
      </trkpt>
      <trkpt lat="28.32915" lon="-14.10424">
        <ele>274</ele>
        <time>2021-07-05 12:43:38</time>
      </trkpt>
      <trkpt lat="28.32913" lon="-14.10422">
        <ele>274</ele>
        <time>2021-07-05 12:43:39</time>
      </trkpt>
      <trkpt lat="28.32911" lon="-14.10421">
        <ele>274.4</ele>
        <time>2021-07-05 12:43:40</time>
      </trkpt>
      <trkpt lat="28.32909" lon="-14.10419">
        <ele>274.4</ele>
        <time>2021-07-05 12:43:41</time>
      </trkpt>
      <trkpt lat="28.32907" lon="-14.10417">
        <ele>274.6</ele>
        <time>2021-07-05 12:43:42</time>
      </trkpt>
      <trkpt lat="28.32904" lon="-14.10416">
        <ele>274.6</ele>
        <time>2021-07-05 12:43:43</time>
      </trkpt>
      <trkpt lat="28.32902" lon="-14.10414">
        <ele>275</ele>
        <time>2021-07-05 12:43:44</time>
      </trkpt>
      <trkpt lat="28.329" lon="-14.10412">
        <ele>275</ele>
        <time>2021-07-05 12:43:45</time>
      </trkpt>
      <trkpt lat="28.32898" lon="-14.1041">
        <ele>275.2</ele>
        <time>2021-07-05 12:43:46</time>
      </trkpt>
      <trkpt lat="28.32895" lon="-14.10408">
        <ele>275.2</ele>
        <time>2021-07-05 12:43:47</time>
      </trkpt>
      <trkpt lat="28.32893" lon="-14.10406">
        <ele>275.6</ele>
        <time>2021-07-05 12:43:48</time>
      </trkpt>
      <trkpt lat="28.3289" lon="-14.10404">
        <ele>275.6</ele>
        <time>2021-07-05 12:43:49</time>
      </trkpt>
      <trkpt lat="28.32888" lon="-14.10402">
        <ele>275.8</ele>
        <time>2021-07-05 12:43:50</time>
      </trkpt>
      <trkpt lat="28.32885" lon="-14.104">
        <ele>275.8</ele>
        <time>2021-07-05 12:43:51</time>
      </trkpt>
      <trkpt lat="28.32883" lon="-14.10399">
        <ele>276</ele>
        <time>2021-07-05 12:43:52</time>
      </trkpt>
      <trkpt lat="28.32881" lon="-14.10397">
        <ele>276</ele>
        <time>2021-07-05 12:43:53</time>
      </trkpt>
      <trkpt lat="28.32878" lon="-14.10395">
        <ele>276</ele>
        <time>2021-07-05 12:43:54</time>
      </trkpt>
      <trkpt lat="28.32876" lon="-14.10393">
        <ele>276.4</ele>
        <time>2021-07-05 12:43:55</time>
      </trkpt>
      <trkpt lat="28.32874" lon="-14.10391">
        <ele>276.4</ele>
        <time>2021-07-05 12:43:56</time>
      </trkpt>
      <trkpt lat="28.32872" lon="-14.10388">
        <ele>276.4</ele>
        <time>2021-07-05 12:43:57</time>
      </trkpt>
      <trkpt lat="28.32869" lon="-14.10386">
        <ele>276.6</ele>
        <time>2021-07-05 12:43:58</time>
      </trkpt>
      <trkpt lat="28.32867" lon="-14.10384">
        <ele>276.6</ele>
        <time>2021-07-05 12:43:59</time>
      </trkpt>
      <trkpt lat="28.32864" lon="-14.10382">
        <ele>276.6</ele>
        <time>2021-07-05 12:44:00</time>
      </trkpt>
      <trkpt lat="28.32862" lon="-14.1038">
        <ele>276.8</ele>
        <time>2021-07-05 12:44:01</time>
      </trkpt>
      <trkpt lat="28.32859" lon="-14.10378">
        <ele>276.8</ele>
        <time>2021-07-05 12:44:02</time>
      </trkpt>
      <trkpt lat="28.32856" lon="-14.10376">
        <ele>276.8</ele>
        <time>2021-07-05 12:44:03</time>
      </trkpt>
      <trkpt lat="28.32854" lon="-14.10373">
        <ele>276.8</ele>
        <time>2021-07-05 12:44:04</time>
      </trkpt>
      <trkpt lat="28.32851" lon="-14.10371">
        <ele>277</ele>
        <time>2021-07-05 12:44:05</time>
      </trkpt>
      <trkpt lat="28.32848" lon="-14.10369">
        <ele>277</ele>
        <time>2021-07-05 12:44:06</time>
      </trkpt>
      <trkpt lat="28.32845" lon="-14.10367">
        <ele>277</ele>
        <time>2021-07-05 12:44:07</time>
      </trkpt>
      <trkpt lat="28.32842" lon="-14.10365">
        <ele>277.4</ele>
        <time>2021-07-05 12:44:08</time>
      </trkpt>
      <trkpt lat="28.32839" lon="-14.10363">
        <ele>277.4</ele>
        <time>2021-07-05 12:44:09</time>
      </trkpt>
      <trkpt lat="28.32836" lon="-14.10361">
        <ele>277.4</ele>
        <time>2021-07-05 12:44:10</time>
      </trkpt>
      <trkpt lat="28.32833" lon="-14.10359">
        <ele>277.4</ele>
        <time>2021-07-05 12:44:11</time>
      </trkpt>
      <trkpt lat="28.32831" lon="-14.10357">
        <ele>277.6</ele>
        <time>2021-07-05 12:44:12</time>
      </trkpt>
      <trkpt lat="28.32828" lon="-14.10355">
        <ele>277.6</ele>
        <time>2021-07-05 12:44:13</time>
      </trkpt>
      <trkpt lat="28.32825" lon="-14.10354">
        <ele>277.8</ele>
        <time>2021-07-05 12:44:14</time>
      </trkpt>
      <trkpt lat="28.32822" lon="-14.10352">
        <ele>277.8</ele>
        <time>2021-07-05 12:44:15</time>
      </trkpt>
      <trkpt lat="28.32819" lon="-14.1035">
        <ele>278.2</ele>
        <time>2021-07-05 12:44:16</time>
      </trkpt>
      <trkpt lat="28.32816" lon="-14.10348">
        <ele>278.4</ele>
        <time>2021-07-05 12:44:17</time>
      </trkpt>
      <trkpt lat="28.32814" lon="-14.10346">
        <ele>278.6</ele>
        <time>2021-07-05 12:44:18</time>
      </trkpt>
      <trkpt lat="28.32811" lon="-14.10345">
        <ele>278.6</ele>
        <time>2021-07-05 12:44:19</time>
      </trkpt>
      <trkpt lat="28.32808" lon="-14.10343">
        <ele>278.8</ele>
        <time>2021-07-05 12:44:20</time>
      </trkpt>
      <trkpt lat="28.32806" lon="-14.10341">
        <ele>278.8</ele>
        <time>2021-07-05 12:44:21</time>
      </trkpt>
      <trkpt lat="28.32803" lon="-14.10339">
        <ele>279</ele>
        <time>2021-07-05 12:44:22</time>
      </trkpt>
      <trkpt lat="28.32801" lon="-14.10337">
        <ele>279.2</ele>
        <time>2021-07-05 12:44:23</time>
      </trkpt>
      <trkpt lat="28.32798" lon="-14.10335">
        <ele>279.2</ele>
        <time>2021-07-05 12:44:24</time>
      </trkpt>
      <trkpt lat="28.32796" lon="-14.10333">
        <ele>279.8</ele>
        <time>2021-07-05 12:44:25</time>
      </trkpt>
      <trkpt lat="28.32794" lon="-14.10332">
        <ele>279.8</ele>
        <time>2021-07-05 12:44:26</time>
      </trkpt>
      <trkpt lat="28.32792" lon="-14.1033">
        <ele>280.2</ele>
        <time>2021-07-05 12:44:27</time>
      </trkpt>
      <trkpt lat="28.3279" lon="-14.10328">
        <ele>280.6</ele>
        <time>2021-07-05 12:44:28</time>
      </trkpt>
      <trkpt lat="28.32788" lon="-14.10327">
        <ele>280.6</ele>
        <time>2021-07-05 12:44:29</time>
      </trkpt>
      <trkpt lat="28.32786" lon="-14.10325">
        <ele>280.8</ele>
        <time>2021-07-05 12:44:30</time>
      </trkpt>
      <trkpt lat="28.32784" lon="-14.10324">
        <ele>281</ele>
        <time>2021-07-05 12:44:31</time>
      </trkpt>
      <trkpt lat="28.32783" lon="-14.10322">
        <ele>281.2</ele>
        <time>2021-07-05 12:44:32</time>
      </trkpt>
      <trkpt lat="28.32781" lon="-14.1032">
        <ele>281.6</ele>
        <time>2021-07-05 12:44:33</time>
      </trkpt>
      <trkpt lat="28.32779" lon="-14.10318">
        <ele>281.8</ele>
        <time>2021-07-05 12:44:34</time>
      </trkpt>
      <trkpt lat="28.32777" lon="-14.10316">
        <ele>282</ele>
        <time>2021-07-05 12:44:35</time>
      </trkpt>
      <trkpt lat="28.32776" lon="-14.10314">
        <ele>282</ele>
        <time>2021-07-05 12:44:36</time>
      </trkpt>
      <trkpt lat="28.32774" lon="-14.10313">
        <ele>282.6</ele>
        <time>2021-07-05 12:44:37</time>
      </trkpt>
      <trkpt lat="28.32773" lon="-14.10311">
        <ele>282.6</ele>
        <time>2021-07-05 12:44:38</time>
      </trkpt>
      <trkpt lat="28.32771" lon="-14.10309">
        <ele>282.8</ele>
        <time>2021-07-05 12:44:39</time>
      </trkpt>
      <trkpt lat="28.3277" lon="-14.10307">
        <ele>282.8</ele>
        <time>2021-07-05 12:44:40</time>
      </trkpt>
      <trkpt lat="28.32769" lon="-14.10305">
        <ele>283.6</ele>
        <time>2021-07-05 12:44:41</time>
      </trkpt>
      <trkpt lat="28.32768" lon="-14.10303">
        <ele>283.6</ele>
        <time>2021-07-05 12:44:42</time>
      </trkpt>
      <trkpt lat="28.32767" lon="-14.10302">
        <ele>283.8</ele>
        <time>2021-07-05 12:44:43</time>
      </trkpt>
      <trkpt lat="28.32765" lon="-14.103">
        <ele>284.2</ele>
        <time>2021-07-05 12:44:44</time>
      </trkpt>
      <trkpt lat="28.32764" lon="-14.10299">
        <ele>284.4</ele>
        <time>2021-07-05 12:44:45</time>
      </trkpt>
      <trkpt lat="28.32762" lon="-14.10297">
        <ele>285</ele>
        <time>2021-07-05 12:44:46</time>
      </trkpt>
      <trkpt lat="28.32761" lon="-14.10296">
        <ele>285.2</ele>
        <time>2021-07-05 12:44:47</time>
      </trkpt>
      <trkpt lat="28.32759" lon="-14.10295">
        <ele>285.2</ele>
        <time>2021-07-05 12:44:48</time>
      </trkpt>
      <trkpt lat="28.32757" lon="-14.10294">
        <ele>285.6</ele>
        <time>2021-07-05 12:44:49</time>
      </trkpt>
      <trkpt lat="28.32756" lon="-14.10292">
        <ele>285.8</ele>
        <time>2021-07-05 12:44:50</time>
      </trkpt>
      <trkpt lat="28.32754" lon="-14.10291">
        <ele>286</ele>
        <time>2021-07-05 12:44:51</time>
      </trkpt>
      <trkpt lat="28.32752" lon="-14.1029">
        <ele>286.4</ele>
        <time>2021-07-05 12:44:52</time>
      </trkpt>
      <trkpt lat="28.32751" lon="-14.10289">
        <ele>286.6</ele>
        <time>2021-07-05 12:44:53</time>
      </trkpt>
      <trkpt lat="28.32749" lon="-14.10288">
        <ele>286.8</ele>
        <time>2021-07-05 12:44:54</time>
      </trkpt>
      <trkpt lat="28.32748" lon="-14.10287">
        <ele>287.2</ele>
        <time>2021-07-05 12:44:55</time>
      </trkpt>
      <trkpt lat="28.32746" lon="-14.10286">
        <ele>287.4</ele>
        <time>2021-07-05 12:44:56</time>
      </trkpt>
      <trkpt lat="28.32745" lon="-14.10285">
        <ele>287.6</ele>
        <time>2021-07-05 12:44:57</time>
      </trkpt>
      <trkpt lat="28.32743" lon="-14.10283">
        <ele>287.8</ele>
        <time>2021-07-05 12:44:58</time>
      </trkpt>
      <trkpt lat="28.32741" lon="-14.10282">
        <ele>288.2</ele>
        <time>2021-07-05 12:44:59</time>
      </trkpt>
      <trkpt lat="28.3274" lon="-14.10282">
        <ele>288.4</ele>
        <time>2021-07-05 12:45:00</time>
      </trkpt>
      <trkpt lat="28.32738" lon="-14.10281">
        <ele>288.6</ele>
        <time>2021-07-05 12:45:01</time>
      </trkpt>
      <trkpt lat="28.32736" lon="-14.10279">
        <ele>288.8</ele>
        <time>2021-07-05 12:45:02</time>
      </trkpt>
      <trkpt lat="28.32735" lon="-14.10278">
        <ele>289.2</ele>
        <time>2021-07-05 12:45:03</time>
      </trkpt>
      <trkpt lat="28.32734" lon="-14.10277">
        <ele>289.6</ele>
        <time>2021-07-05 12:45:04</time>
      </trkpt>
      <trkpt lat="28.32732" lon="-14.10276">
        <ele>289.6</ele>
        <time>2021-07-05 12:45:05</time>
      </trkpt>
      <trkpt lat="28.32731" lon="-14.10275">
        <ele>289.8</ele>
        <time>2021-07-05 12:45:06</time>
      </trkpt>
      <trkpt lat="28.3273" lon="-14.10274">
        <ele>289.8</ele>
        <time>2021-07-05 12:45:07</time>
      </trkpt>
      <trkpt lat="28.32728" lon="-14.10273">
        <ele>290.4</ele>
        <time>2021-07-05 12:45:08</time>
      </trkpt>
      <trkpt lat="28.32727" lon="-14.10272">
        <ele>290.4</ele>
        <time>2021-07-05 12:45:09</time>
      </trkpt>
      <trkpt lat="28.32725" lon="-14.10271">
        <ele>290.6</ele>
        <time>2021-07-05 12:45:10</time>
      </trkpt>
      <trkpt lat="28.32723" lon="-14.1027">
        <ele>290.8</ele>
        <time>2021-07-05 12:45:11</time>
      </trkpt>
      <trkpt lat="28.32722" lon="-14.10269">
        <ele>291</ele>
        <time>2021-07-05 12:45:12</time>
      </trkpt>
      <trkpt lat="28.3272" lon="-14.10269">
        <ele>291</ele>
        <time>2021-07-05 12:45:13</time>
      </trkpt>
      <trkpt lat="28.32719" lon="-14.10268">
        <ele>291.4</ele>
        <time>2021-07-05 12:45:14</time>
      </trkpt>
      <trkpt lat="28.32717" lon="-14.10267">
        <ele>292</ele>
        <time>2021-07-05 12:45:15</time>
      </trkpt>
      <trkpt lat="28.32716" lon="-14.10266">
        <ele>292</ele>
        <time>2021-07-05 12:45:16</time>
      </trkpt>
      <trkpt lat="28.32714" lon="-14.10264">
        <ele>292.2</ele>
        <time>2021-07-05 12:45:17</time>
      </trkpt>
      <trkpt lat="28.32713" lon="-14.10263">
        <ele>292.6</ele>
        <time>2021-07-05 12:45:18</time>
      </trkpt>
      <trkpt lat="28.32712" lon="-14.10262">
        <ele>292.8</ele>
        <time>2021-07-05 12:45:19</time>
      </trkpt>
      <trkpt lat="28.3271" lon="-14.1026">
        <ele>293</ele>
        <time>2021-07-05 12:45:20</time>
      </trkpt>
      <trkpt lat="28.32709" lon="-14.10259">
        <ele>293.2</ele>
        <time>2021-07-05 12:45:21</time>
      </trkpt>
      <trkpt lat="28.32707" lon="-14.10258">
        <ele>293.6</ele>
        <time>2021-07-05 12:45:22</time>
      </trkpt>
      <trkpt lat="28.32706" lon="-14.10257">
        <ele>293.8</ele>
        <time>2021-07-05 12:45:23</time>
      </trkpt>
      <trkpt lat="28.32704" lon="-14.10256">
        <ele>294.2</ele>
        <time>2021-07-05 12:45:24</time>
      </trkpt>
      <trkpt lat="28.32702" lon="-14.10255">
        <ele>295</ele>
        <time>2021-07-05 12:45:25</time>
      </trkpt>
      <trkpt lat="28.32701" lon="-14.10254">
        <ele>295</ele>
        <time>2021-07-05 12:45:26</time>
      </trkpt>
      <trkpt lat="28.327" lon="-14.10253">
        <ele>295.4</ele>
        <time>2021-07-05 12:45:27</time>
      </trkpt>
      <trkpt lat="28.32698" lon="-14.10252">
        <ele>295.6</ele>
        <time>2021-07-05 12:45:28</time>
      </trkpt>
      <trkpt lat="28.32696" lon="-14.10251">
        <ele>296</ele>
        <time>2021-07-05 12:45:29</time>
      </trkpt>
      <trkpt lat="28.32695" lon="-14.1025">
        <ele>296.2</ele>
        <time>2021-07-05 12:45:30</time>
      </trkpt>
      <trkpt lat="28.32693" lon="-14.1025">
        <ele>296.4</ele>
        <time>2021-07-05 12:45:31</time>
      </trkpt>
      <trkpt lat="28.32692" lon="-14.10249">
        <ele>296.4</ele>
        <time>2021-07-05 12:45:32</time>
      </trkpt>
      <trkpt lat="28.3269" lon="-14.10248">
        <ele>296.8</ele>
        <time>2021-07-05 12:45:33</time>
      </trkpt>
      <trkpt lat="28.32689" lon="-14.10248">
        <ele>297</ele>
        <time>2021-07-05 12:45:34</time>
      </trkpt>
      <trkpt lat="28.32688" lon="-14.10247">
        <ele>297.4</ele>
        <time>2021-07-05 12:45:35</time>
      </trkpt>
      <trkpt lat="28.32686" lon="-14.10246">
        <ele>297.6</ele>
        <time>2021-07-05 12:45:36</time>
      </trkpt>
      <trkpt lat="28.32685" lon="-14.10246">
        <ele>298</ele>
        <time>2021-07-05 12:45:37</time>
      </trkpt>
      <trkpt lat="28.32683" lon="-14.10245">
        <ele>298.4</ele>
        <time>2021-07-05 12:45:38</time>
      </trkpt>
      <trkpt lat="28.32682" lon="-14.10244">
        <ele>298.6</ele>
        <time>2021-07-05 12:45:39</time>
      </trkpt>
      <trkpt lat="28.3268" lon="-14.10244">
        <ele>298.8</ele>
        <time>2021-07-05 12:45:40</time>
      </trkpt>
      <trkpt lat="28.32679" lon="-14.10243">
        <ele>299.2</ele>
        <time>2021-07-05 12:45:41</time>
      </trkpt>
      <trkpt lat="28.32678" lon="-14.10241">
        <ele>299.2</ele>
        <time>2021-07-05 12:45:42</time>
      </trkpt>
      <trkpt lat="28.32676" lon="-14.1024">
        <ele>299.8</ele>
        <time>2021-07-05 12:45:43</time>
      </trkpt>
      <trkpt lat="28.32675" lon="-14.1024">
        <ele>300</ele>
        <time>2021-07-05 12:45:44</time>
      </trkpt>
      <trkpt lat="28.32674" lon="-14.10239">
        <ele>300</ele>
        <time>2021-07-05 12:45:45</time>
      </trkpt>
      <trkpt lat="28.32672" lon="-14.10238">
        <ele>300</ele>
        <time>2021-07-05 12:45:46</time>
      </trkpt>
      <trkpt lat="28.32671" lon="-14.10237">
        <ele>300.6</ele>
        <time>2021-07-05 12:45:47</time>
      </trkpt>
      <trkpt lat="28.32669" lon="-14.10236">
        <ele>300.8</ele>
        <time>2021-07-05 12:45:48</time>
      </trkpt>
      <trkpt lat="28.32668" lon="-14.10236">
        <ele>300.8</ele>
        <time>2021-07-05 12:45:49</time>
      </trkpt>
      <trkpt lat="28.32667" lon="-14.10235">
        <ele>301.2</ele>
        <time>2021-07-05 12:45:50</time>
      </trkpt>
      <trkpt lat="28.32665" lon="-14.10234">
        <ele>301.4</ele>
        <time>2021-07-05 12:45:51</time>
      </trkpt>
      <trkpt lat="28.32664" lon="-14.10233">
        <ele>301.6</ele>
        <time>2021-07-05 12:45:52</time>
      </trkpt>
      <trkpt lat="28.32662" lon="-14.10232">
        <ele>301.6</ele>
        <time>2021-07-05 12:45:53</time>
      </trkpt>
      <trkpt lat="28.32661" lon="-14.10231">
        <ele>302.2</ele>
        <time>2021-07-05 12:45:54</time>
      </trkpt>
      <trkpt lat="28.3266" lon="-14.10231">
        <ele>302.2</ele>
        <time>2021-07-05 12:45:55</time>
      </trkpt>
      <trkpt lat="28.32659" lon="-14.10229">
        <ele>302.6</ele>
        <time>2021-07-05 12:45:56</time>
      </trkpt>
      <trkpt lat="28.32657" lon="-14.10228">
        <ele>302.6</ele>
        <time>2021-07-05 12:45:57</time>
      </trkpt>
      <trkpt lat="28.32656" lon="-14.10227">
        <ele>303</ele>
        <time>2021-07-05 12:45:58</time>
      </trkpt>
      <trkpt lat="28.32655" lon="-14.10226">
        <ele>303.2</ele>
        <time>2021-07-05 12:45:59</time>
      </trkpt>
      <trkpt lat="28.32653" lon="-14.10225">
        <ele>303.2</ele>
        <time>2021-07-05 12:46:00</time>
      </trkpt>
      <trkpt lat="28.32653" lon="-14.10223">
        <ele>303.4</ele>
        <time>2021-07-05 12:46:01</time>
      </trkpt>
      <trkpt lat="28.32652" lon="-14.10222">
        <ele>303.8</ele>
        <time>2021-07-05 12:46:02</time>
      </trkpt>
      <trkpt lat="28.32652" lon="-14.10221">
        <ele>304.4</ele>
        <time>2021-07-05 12:46:03</time>
      </trkpt>
      <trkpt lat="28.32651" lon="-14.1022">
        <ele>304.4</ele>
        <time>2021-07-05 12:46:04</time>
      </trkpt>
      <trkpt lat="28.32651" lon="-14.1022">
        <ele>304.6</ele>
        <time>2021-07-05 12:46:05</time>
      </trkpt>
      <trkpt lat="28.3265" lon="-14.1022">
        <ele>304.6</ele>
        <time>2021-07-05 12:46:06</time>
      </trkpt>
      <trkpt lat="28.3265" lon="-14.1022">
        <ele>305</ele>
        <time>2021-07-05 12:46:07</time>
      </trkpt>
      <trkpt lat="28.3265" lon="-14.1022">
        <ele>305.2</ele>
        <time>2021-07-05 12:46:08</time>
      </trkpt>
      <trkpt lat="28.32649" lon="-14.10219">
        <ele>305.2</ele>
        <time>2021-07-05 12:46:09</time>
      </trkpt>
      <trkpt lat="28.32648" lon="-14.10218">
        <ele>305.2</ele>
        <time>2021-07-05 12:46:10</time>
      </trkpt>
      <trkpt lat="28.32648" lon="-14.10218">
        <ele>305.6</ele>
        <time>2021-07-05 12:46:11</time>
      </trkpt>
      <trkpt lat="28.32648" lon="-14.10217">
        <ele>305.8</ele>
        <time>2021-07-05 12:46:12</time>
      </trkpt>
      <trkpt lat="28.32647" lon="-14.10216">
        <ele>306.2</ele>
        <time>2021-07-05 12:46:13</time>
      </trkpt>
      <trkpt lat="28.32646" lon="-14.10215">
        <ele>306.2</ele>
        <time>2021-07-05 12:46:14</time>
      </trkpt>
      <trkpt lat="28.32645" lon="-14.10214">
        <ele>306.2</ele>
        <time>2021-07-05 12:46:15</time>
      </trkpt>
      <trkpt lat="28.32645" lon="-14.10212">
        <ele>306.2</ele>
        <time>2021-07-05 12:46:16</time>
      </trkpt>
      <trkpt lat="28.32644" lon="-14.1021">
        <ele>306.4</ele>
        <time>2021-07-05 12:46:17</time>
      </trkpt>
      <trkpt lat="28.32643" lon="-14.10208">
        <ele>306.4</ele>
        <time>2021-07-05 12:46:18</time>
      </trkpt>
      <trkpt lat="28.32642" lon="-14.10207">
        <ele>306.8</ele>
        <time>2021-07-05 12:46:19</time>
      </trkpt>
      <trkpt lat="28.3264" lon="-14.10205">
        <ele>306.8</ele>
        <time>2021-07-05 12:46:20</time>
      </trkpt>
      <trkpt lat="28.32639" lon="-14.10203">
        <ele>307.2</ele>
        <time>2021-07-05 12:46:21</time>
      </trkpt>
      <trkpt lat="28.32637" lon="-14.10202">
        <ele>307.2</ele>
        <time>2021-07-05 12:46:22</time>
      </trkpt>
      <trkpt lat="28.32636" lon="-14.102">
        <ele>307.6</ele>
        <time>2021-07-05 12:46:23</time>
      </trkpt>
      <trkpt lat="28.32634" lon="-14.10199">
        <ele>308</ele>
        <time>2021-07-05 12:46:24</time>
      </trkpt>
      <trkpt lat="28.32633" lon="-14.10197">
        <ele>308</ele>
        <time>2021-07-05 12:46:25</time>
      </trkpt>
      <trkpt lat="28.32631" lon="-14.10195">
        <ele>308.2</ele>
        <time>2021-07-05 12:46:26</time>
      </trkpt>
      <trkpt lat="28.3263" lon="-14.10194">
        <ele>308.6</ele>
        <time>2021-07-05 12:46:27</time>
      </trkpt>
      <trkpt lat="28.32628" lon="-14.10192">
        <ele>308.6</ele>
        <time>2021-07-05 12:46:28</time>
      </trkpt>
      <trkpt lat="28.32626" lon="-14.10191">
        <ele>308.8</ele>
        <time>2021-07-05 12:46:29</time>
      </trkpt>
      <trkpt lat="28.32624" lon="-14.1019">
        <ele>308.8</ele>
        <time>2021-07-05 12:46:30</time>
      </trkpt>
      <trkpt lat="28.32622" lon="-14.10188">
        <ele>309</ele>
        <time>2021-07-05 12:46:31</time>
      </trkpt>
      <trkpt lat="28.32621" lon="-14.10187">
        <ele>309.4</ele>
        <time>2021-07-05 12:46:32</time>
      </trkpt>
      <trkpt lat="28.32619" lon="-14.10185">
        <ele>309.6</ele>
        <time>2021-07-05 12:46:33</time>
      </trkpt>
      <trkpt lat="28.32618" lon="-14.10184">
        <ele>309.8</ele>
        <time>2021-07-05 12:46:34</time>
      </trkpt>
      <trkpt lat="28.32616" lon="-14.10182">
        <ele>310.2</ele>
        <time>2021-07-05 12:46:35</time>
      </trkpt>
      <trkpt lat="28.32614" lon="-14.10181">
        <ele>310.4</ele>
        <time>2021-07-05 12:46:36</time>
      </trkpt>
      <trkpt lat="28.32613" lon="-14.10179">
        <ele>310.6</ele>
        <time>2021-07-05 12:46:37</time>
      </trkpt>
      <trkpt lat="28.32611" lon="-14.10178">
        <ele>310.6</ele>
        <time>2021-07-05 12:46:38</time>
      </trkpt>
      <trkpt lat="28.32609" lon="-14.10176">
        <ele>310.8</ele>
        <time>2021-07-05 12:46:39</time>
      </trkpt>
      <trkpt lat="28.32608" lon="-14.10175">
        <ele>310.8</ele>
        <time>2021-07-05 12:46:40</time>
      </trkpt>
      <trkpt lat="28.32606" lon="-14.10174">
        <ele>311.2</ele>
        <time>2021-07-05 12:46:41</time>
      </trkpt>
      <trkpt lat="28.32605" lon="-14.10172">
        <ele>311.2</ele>
        <time>2021-07-05 12:46:42</time>
      </trkpt>
      <trkpt lat="28.32603" lon="-14.10171">
        <ele>311.2</ele>
        <time>2021-07-05 12:46:43</time>
      </trkpt>
      <trkpt lat="28.32602" lon="-14.1017">
        <ele>311.6</ele>
        <time>2021-07-05 12:46:44</time>
      </trkpt>
      <trkpt lat="28.326" lon="-14.10168">
        <ele>311.6</ele>
        <time>2021-07-05 12:46:45</time>
      </trkpt>
      <trkpt lat="28.32598" lon="-14.10167">
        <ele>311.8</ele>
        <time>2021-07-05 12:46:46</time>
      </trkpt>
      <trkpt lat="28.32596" lon="-14.10166">
        <ele>311.8</ele>
        <time>2021-07-05 12:46:47</time>
      </trkpt>
      <trkpt lat="28.32594" lon="-14.10164">
        <ele>312</ele>
        <time>2021-07-05 12:46:48</time>
      </trkpt>
      <trkpt lat="28.32592" lon="-14.10163">
        <ele>312</ele>
        <time>2021-07-05 12:46:49</time>
      </trkpt>
      <trkpt lat="28.32591" lon="-14.10161">
        <ele>312</ele>
        <time>2021-07-05 12:46:50</time>
      </trkpt>
      <trkpt lat="28.32589" lon="-14.1016">
        <ele>312.4</ele>
        <time>2021-07-05 12:46:51</time>
      </trkpt>
      <trkpt lat="28.32587" lon="-14.10158">
        <ele>312.6</ele>
        <time>2021-07-05 12:46:52</time>
      </trkpt>
      <trkpt lat="28.32585" lon="-14.10157">
        <ele>313</ele>
        <time>2021-07-05 12:46:53</time>
      </trkpt>
      <trkpt lat="28.32584" lon="-14.10156">
        <ele>313</ele>
        <time>2021-07-05 12:46:54</time>
      </trkpt>
      <trkpt lat="28.32582" lon="-14.10155">
        <ele>313</ele>
        <time>2021-07-05 12:46:55</time>
      </trkpt>
      <trkpt lat="28.3258" lon="-14.10153">
        <ele>313.2</ele>
        <time>2021-07-05 12:46:56</time>
      </trkpt>
      <trkpt lat="28.32578" lon="-14.10152">
        <ele>313.2</ele>
        <time>2021-07-05 12:46:57</time>
      </trkpt>
      <trkpt lat="28.32576" lon="-14.10151">
        <ele>313.4</ele>
        <time>2021-07-05 12:46:58</time>
      </trkpt>
      <trkpt lat="28.32575" lon="-14.10149">
        <ele>313.4</ele>
        <time>2021-07-05 12:46:59</time>
      </trkpt>
      <trkpt lat="28.32573" lon="-14.10147">
        <ele>313.8</ele>
        <time>2021-07-05 12:47:00</time>
      </trkpt>
      <trkpt lat="28.32571" lon="-14.10146">
        <ele>313.8</ele>
        <time>2021-07-05 12:47:01</time>
      </trkpt>
      <trkpt lat="28.32569" lon="-14.10144">
        <ele>314.2</ele>
        <time>2021-07-05 12:47:02</time>
      </trkpt>
      <trkpt lat="28.32567" lon="-14.10143">
        <ele>314.2</ele>
        <time>2021-07-05 12:47:03</time>
      </trkpt>
      <trkpt lat="28.32565" lon="-14.10141">
        <ele>314.8</ele>
        <time>2021-07-05 12:47:04</time>
      </trkpt>
      <trkpt lat="28.32564" lon="-14.10139">
        <ele>314.8</ele>
        <time>2021-07-05 12:47:05</time>
      </trkpt>
      <trkpt lat="28.32562" lon="-14.10137">
        <ele>314.8</ele>
        <time>2021-07-05 12:47:06</time>
      </trkpt>
      <trkpt lat="28.32561" lon="-14.10135">
        <ele>315</ele>
        <time>2021-07-05 12:47:07</time>
      </trkpt>
      <trkpt lat="28.32559" lon="-14.10133">
        <ele>315.2</ele>
        <time>2021-07-05 12:47:08</time>
      </trkpt>
      <trkpt lat="28.32557" lon="-14.10131">
        <ele>315.6</ele>
        <time>2021-07-05 12:47:09</time>
      </trkpt>
      <trkpt lat="28.32555" lon="-14.10129">
        <ele>315.6</ele>
        <time>2021-07-05 12:47:10</time>
      </trkpt>
      <trkpt lat="28.32552" lon="-14.10126">
        <ele>316</ele>
        <time>2021-07-05 12:47:11</time>
      </trkpt>
      <trkpt lat="28.3255" lon="-14.10124">
        <ele>316</ele>
        <time>2021-07-05 12:47:12</time>
      </trkpt>
      <trkpt lat="28.32548" lon="-14.10122">
        <ele>316</ele>
        <time>2021-07-05 12:47:13</time>
      </trkpt>
      <trkpt lat="28.32546" lon="-14.1012">
        <ele>316.4</ele>
        <time>2021-07-05 12:47:14</time>
      </trkpt>
      <trkpt lat="28.32543" lon="-14.10118">
        <ele>316.4</ele>
        <time>2021-07-05 12:47:15</time>
      </trkpt>
      <trkpt lat="28.32541" lon="-14.10116">
        <ele>316.4</ele>
        <time>2021-07-05 12:47:16</time>
      </trkpt>
      <trkpt lat="28.32538" lon="-14.10113">
        <ele>316.6</ele>
        <time>2021-07-05 12:47:17</time>
      </trkpt>
      <trkpt lat="28.32536" lon="-14.10111">
        <ele>316.6</ele>
        <time>2021-07-05 12:47:18</time>
      </trkpt>
      <trkpt lat="28.32533" lon="-14.10109">
        <ele>316.6</ele>
        <time>2021-07-05 12:47:19</time>
      </trkpt>
      <trkpt lat="28.32531" lon="-14.10107">
        <ele>316.6</ele>
        <time>2021-07-05 12:47:20</time>
      </trkpt>
      <trkpt lat="28.32528" lon="-14.10106">
        <ele>316.6</ele>
        <time>2021-07-05 12:47:21</time>
      </trkpt>
      <trkpt lat="28.32526" lon="-14.10104">
        <ele>316.8</ele>
        <time>2021-07-05 12:47:22</time>
      </trkpt>
      <trkpt lat="28.32524" lon="-14.10102">
        <ele>316.8</ele>
        <time>2021-07-05 12:47:23</time>
      </trkpt>
      <trkpt lat="28.32521" lon="-14.101">
        <ele>317</ele>
        <time>2021-07-05 12:47:24</time>
      </trkpt>
      <trkpt lat="28.32519" lon="-14.10097">
        <ele>317</ele>
        <time>2021-07-05 12:47:25</time>
      </trkpt>
      <trkpt lat="28.32517" lon="-14.10095">
        <ele>317.4</ele>
        <time>2021-07-05 12:47:26</time>
      </trkpt>
      <trkpt lat="28.32514" lon="-14.10093">
        <ele>317.4</ele>
        <time>2021-07-05 12:47:27</time>
      </trkpt>
      <trkpt lat="28.32512" lon="-14.10091">
        <ele>317.6</ele>
        <time>2021-07-05 12:47:28</time>
      </trkpt>
      <trkpt lat="28.32509" lon="-14.10089">
        <ele>317.6</ele>
        <time>2021-07-05 12:47:29</time>
      </trkpt>
      <trkpt lat="28.32507" lon="-14.10087">
        <ele>317.6</ele>
        <time>2021-07-05 12:47:30</time>
      </trkpt>
      <trkpt lat="28.32505" lon="-14.10085">
        <ele>317.6</ele>
        <time>2021-07-05 12:47:31</time>
      </trkpt>
      <trkpt lat="28.32503" lon="-14.10082">
        <ele>317.8</ele>
        <time>2021-07-05 12:47:32</time>
      </trkpt>
      <trkpt lat="28.32501" lon="-14.1008">
        <ele>318.2</ele>
        <time>2021-07-05 12:47:33</time>
      </trkpt>
      <trkpt lat="28.32499" lon="-14.10077">
        <ele>318.2</ele>
        <time>2021-07-05 12:47:34</time>
      </trkpt>
      <trkpt lat="28.32497" lon="-14.10075">
        <ele>318.6</ele>
        <time>2021-07-05 12:47:35</time>
      </trkpt>
      <trkpt lat="28.32495" lon="-14.10072">
        <ele>318.6</ele>
        <time>2021-07-05 12:47:36</time>
      </trkpt>
      <trkpt lat="28.32493" lon="-14.1007">
        <ele>318.6</ele>
        <time>2021-07-05 12:47:37</time>
      </trkpt>
      <trkpt lat="28.3249" lon="-14.10067">
        <ele>318.6</ele>
        <time>2021-07-05 12:47:38</time>
      </trkpt>
      <trkpt lat="28.32488" lon="-14.10064">
        <ele>318.8</ele>
        <time>2021-07-05 12:47:39</time>
      </trkpt>
      <trkpt lat="28.32486" lon="-14.10062">
        <ele>318.8</ele>
        <time>2021-07-05 12:47:40</time>
      </trkpt>
      <trkpt lat="28.32484" lon="-14.1006">
        <ele>319.2</ele>
        <time>2021-07-05 12:47:41</time>
      </trkpt>
      <trkpt lat="28.32481" lon="-14.10057">
        <ele>319.2</ele>
        <time>2021-07-05 12:47:42</time>
      </trkpt>
      <trkpt lat="28.32479" lon="-14.10053">
        <ele>319.2</ele>
        <time>2021-07-05 12:47:43</time>
      </trkpt>
      <trkpt lat="28.32477" lon="-14.1005">
        <ele>319.2</ele>
        <time>2021-07-05 12:47:44</time>
      </trkpt>
      <trkpt lat="28.32475" lon="-14.10046">
        <ele>319.4</ele>
        <time>2021-07-05 12:47:45</time>
      </trkpt>
      <trkpt lat="28.32473" lon="-14.10042">
        <ele>319.4</ele>
        <time>2021-07-05 12:47:46</time>
      </trkpt>
      <trkpt lat="28.32471" lon="-14.10038">
        <ele>319.4</ele>
        <time>2021-07-05 12:47:47</time>
      </trkpt>
      <trkpt lat="28.32469" lon="-14.10034">
        <ele>319.4</ele>
        <time>2021-07-05 12:47:48</time>
      </trkpt>
      <trkpt lat="28.32466" lon="-14.1003">
        <ele>319.8</ele>
        <time>2021-07-05 12:47:49</time>
      </trkpt>
      <trkpt lat="28.32464" lon="-14.10027">
        <ele>319.8</ele>
        <time>2021-07-05 12:47:50</time>
      </trkpt>
      <trkpt lat="28.32462" lon="-14.10023">
        <ele>320</ele>
        <time>2021-07-05 12:47:51</time>
      </trkpt>
      <trkpt lat="28.3246" lon="-14.1002">
        <ele>320</ele>
        <time>2021-07-05 12:47:52</time>
      </trkpt>
      <trkpt lat="28.32457" lon="-14.10016">
        <ele>320</ele>
        <time>2021-07-05 12:47:53</time>
      </trkpt>
      <trkpt lat="28.32455" lon="-14.10012">
        <ele>320</ele>
        <time>2021-07-05 12:47:54</time>
      </trkpt>
      <trkpt lat="28.32452" lon="-14.10008">
        <ele>320</ele>
        <time>2021-07-05 12:47:55</time>
      </trkpt>
      <trkpt lat="28.3245" lon="-14.10004">
        <ele>320.2</ele>
        <time>2021-07-05 12:47:56</time>
      </trkpt>
      <trkpt lat="28.32447" lon="-14.1">
        <ele>320.4</ele>
        <time>2021-07-05 12:47:57</time>
      </trkpt>
      <trkpt lat="28.32445" lon="-14.09997">
        <ele>320.4</ele>
        <time>2021-07-05 12:47:58</time>
      </trkpt>
      <trkpt lat="28.32442" lon="-14.09993">
        <ele>320.8</ele>
        <time>2021-07-05 12:47:59</time>
      </trkpt>
      <trkpt lat="28.32439" lon="-14.09991">
        <ele>320.8</ele>
        <time>2021-07-05 12:48:00</time>
      </trkpt>
      <trkpt lat="28.32436" lon="-14.09988">
        <ele>321</ele>
        <time>2021-07-05 12:48:01</time>
      </trkpt>
      <trkpt lat="28.32433" lon="-14.09986">
        <ele>321</ele>
        <time>2021-07-05 12:48:02</time>
      </trkpt>
      <trkpt lat="28.3243" lon="-14.09982">
        <ele>321.2</ele>
        <time>2021-07-05 12:48:03</time>
      </trkpt>
      <trkpt lat="28.32427" lon="-14.0998">
        <ele>321.2</ele>
        <time>2021-07-05 12:48:04</time>
      </trkpt>
      <trkpt lat="28.32423" lon="-14.09977">
        <ele>321.2</ele>
        <time>2021-07-05 12:48:05</time>
      </trkpt>
      <trkpt lat="28.3242" lon="-14.09975">
        <ele>321.2</ele>
        <time>2021-07-05 12:48:06</time>
      </trkpt>
      <trkpt lat="28.32417" lon="-14.09972">
        <ele>321.2</ele>
        <time>2021-07-05 12:48:07</time>
      </trkpt>
      <trkpt lat="28.32414" lon="-14.09969">
        <ele>321.2</ele>
        <time>2021-07-05 12:48:08</time>
      </trkpt>
      <trkpt lat="28.32412" lon="-14.09966">
        <ele>321.2</ele>
        <time>2021-07-05 12:48:09</time>
      </trkpt>
      <trkpt lat="28.32409" lon="-14.09962">
        <ele>321.2</ele>
        <time>2021-07-05 12:48:10</time>
      </trkpt>
      <trkpt lat="28.32407" lon="-14.09958">
        <ele>321.2</ele>
        <time>2021-07-05 12:48:11</time>
      </trkpt>
      <trkpt lat="28.32405" lon="-14.09953">
        <ele>321.6</ele>
        <time>2021-07-05 12:48:12</time>
      </trkpt>
      <trkpt lat="28.32403" lon="-14.0995">
        <ele>321.6</ele>
        <time>2021-07-05 12:48:13</time>
      </trkpt>
      <trkpt lat="28.32401" lon="-14.09946">
        <ele>321.8</ele>
        <time>2021-07-05 12:48:14</time>
      </trkpt>
      <trkpt lat="28.32399" lon="-14.09942">
        <ele>321.8</ele>
        <time>2021-07-05 12:48:15</time>
      </trkpt>
      <trkpt lat="28.32397" lon="-14.09939">
        <ele>322.2</ele>
        <time>2021-07-05 12:48:16</time>
      </trkpt>
      <trkpt lat="28.32395" lon="-14.09935">
        <ele>322.4</ele>
        <time>2021-07-05 12:48:17</time>
      </trkpt>
      <trkpt lat="28.32393" lon="-14.09932">
        <ele>322.4</ele>
        <time>2021-07-05 12:48:18</time>
      </trkpt>
      <trkpt lat="28.32392" lon="-14.09928">
        <ele>323.2</ele>
        <time>2021-07-05 12:48:19</time>
      </trkpt>
      <trkpt lat="28.3239" lon="-14.09925">
        <ele>323.2</ele>
        <time>2021-07-05 12:48:20</time>
      </trkpt>
      <trkpt lat="28.32388" lon="-14.09921">
        <ele>323.4</ele>
        <time>2021-07-05 12:48:21</time>
      </trkpt>
      <trkpt lat="28.32386" lon="-14.09918">
        <ele>323.6</ele>
        <time>2021-07-05 12:48:22</time>
      </trkpt>
      <trkpt lat="28.32384" lon="-14.09914">
        <ele>323.6</ele>
        <time>2021-07-05 12:48:23</time>
      </trkpt>
      <trkpt lat="28.32382" lon="-14.0991">
        <ele>323.6</ele>
        <time>2021-07-05 12:48:24</time>
      </trkpt>
      <trkpt lat="28.3238" lon="-14.09906">
        <ele>324</ele>
        <time>2021-07-05 12:48:25</time>
      </trkpt>
      <trkpt lat="28.32378" lon="-14.09902">
        <ele>324.2</ele>
        <time>2021-07-05 12:48:26</time>
      </trkpt>
      <trkpt lat="28.32377" lon="-14.09898">
        <ele>324.4</ele>
        <time>2021-07-05 12:48:27</time>
      </trkpt>
      <trkpt lat="28.32375" lon="-14.09895">
        <ele>324.4</ele>
        <time>2021-07-05 12:48:28</time>
      </trkpt>
      <trkpt lat="28.32374" lon="-14.09892">
        <ele>325</ele>
        <time>2021-07-05 12:48:29</time>
      </trkpt>
      <trkpt lat="28.32373" lon="-14.09888">
        <ele>325</ele>
        <time>2021-07-05 12:48:30</time>
      </trkpt>
      <trkpt lat="28.32371" lon="-14.09885">
        <ele>325.4</ele>
        <time>2021-07-05 12:48:31</time>
      </trkpt>
      <trkpt lat="28.3237" lon="-14.09882">
        <ele>325.6</ele>
        <time>2021-07-05 12:48:32</time>
      </trkpt>
      <trkpt lat="28.32368" lon="-14.09878">
        <ele>326</ele>
        <time>2021-07-05 12:48:33</time>
      </trkpt>
      <trkpt lat="28.32366" lon="-14.09875">
        <ele>326.2</ele>
        <time>2021-07-05 12:48:34</time>
      </trkpt>
      <trkpt lat="28.32364" lon="-14.09872">
        <ele>326.4</ele>
        <time>2021-07-05 12:48:35</time>
      </trkpt>
      <trkpt lat="28.32362" lon="-14.09869">
        <ele>326.8</ele>
        <time>2021-07-05 12:48:36</time>
      </trkpt>
      <trkpt lat="28.3236" lon="-14.09866">
        <ele>326.8</ele>
        <time>2021-07-05 12:48:37</time>
      </trkpt>
      <trkpt lat="28.32358" lon="-14.09863">
        <ele>327</ele>
        <time>2021-07-05 12:48:38</time>
      </trkpt>
      <trkpt lat="28.32356" lon="-14.0986">
        <ele>327</ele>
        <time>2021-07-05 12:48:39</time>
      </trkpt>
      <trkpt lat="28.32354" lon="-14.09857">
        <ele>327</ele>
        <time>2021-07-05 12:48:40</time>
      </trkpt>
      <trkpt lat="28.32352" lon="-14.09854">
        <ele>327.2</ele>
        <time>2021-07-05 12:48:41</time>
      </trkpt>
      <trkpt lat="28.32351" lon="-14.09851">
        <ele>327.2</ele>
        <time>2021-07-05 12:48:42</time>
      </trkpt>
      <trkpt lat="28.3235" lon="-14.09848">
        <ele>327.8</ele>
        <time>2021-07-05 12:48:43</time>
      </trkpt>
      <trkpt lat="28.32349" lon="-14.09845">
        <ele>327.8</ele>
        <time>2021-07-05 12:48:44</time>
      </trkpt>
      <trkpt lat="28.32348" lon="-14.09842">
        <ele>328.4</ele>
        <time>2021-07-05 12:48:45</time>
      </trkpt>
      <trkpt lat="28.32348" lon="-14.09839">
        <ele>328.4</ele>
        <time>2021-07-05 12:48:46</time>
      </trkpt>
      <trkpt lat="28.32347" lon="-14.09836">
        <ele>328.8</ele>
        <time>2021-07-05 12:48:47</time>
      </trkpt>
      <trkpt lat="28.32347" lon="-14.09834">
        <ele>329.2</ele>
        <time>2021-07-05 12:48:48</time>
      </trkpt>
      <trkpt lat="28.32346" lon="-14.09831">
        <ele>329.8</ele>
        <time>2021-07-05 12:48:49</time>
      </trkpt>
      <trkpt lat="28.32345" lon="-14.09828">
        <ele>330</ele>
        <time>2021-07-05 12:48:50</time>
      </trkpt>
      <trkpt lat="28.32343" lon="-14.09825">
        <ele>330.2</ele>
        <time>2021-07-05 12:48:51</time>
      </trkpt>
      <trkpt lat="28.32342" lon="-14.09822">
        <ele>330.4</ele>
        <time>2021-07-05 12:48:52</time>
      </trkpt>
      <trkpt lat="28.3234" lon="-14.0982">
        <ele>330.8</ele>
        <time>2021-07-05 12:48:53</time>
      </trkpt>
      <trkpt lat="28.32338" lon="-14.09817">
        <ele>331.2</ele>
        <time>2021-07-05 12:48:54</time>
      </trkpt>
      <trkpt lat="28.32336" lon="-14.09815">
        <ele>331.2</ele>
        <time>2021-07-05 12:48:55</time>
      </trkpt>
      <trkpt lat="28.32334" lon="-14.09813">
        <ele>331.4</ele>
        <time>2021-07-05 12:48:56</time>
      </trkpt>
      <trkpt lat="28.32332" lon="-14.0981">
        <ele>331.6</ele>
        <time>2021-07-05 12:48:57</time>
      </trkpt>
      <trkpt lat="28.32331" lon="-14.09808">
        <ele>332</ele>
        <time>2021-07-05 12:48:58</time>
      </trkpt>
      <trkpt lat="28.3233" lon="-14.09805">
        <ele>332.4</ele>
        <time>2021-07-05 12:48:59</time>
      </trkpt>
      <trkpt lat="28.32329" lon="-14.09803">
        <ele>332.4</ele>
        <time>2021-07-05 12:49:00</time>
      </trkpt>
      <trkpt lat="28.32328" lon="-14.09801">
        <ele>332.4</ele>
        <time>2021-07-05 12:49:01</time>
      </trkpt>
      <trkpt lat="28.32327" lon="-14.09799">
        <ele>332.8</ele>
        <time>2021-07-05 12:49:02</time>
      </trkpt>
      <trkpt lat="28.32325" lon="-14.09797">
        <ele>332.8</ele>
        <time>2021-07-05 12:49:03</time>
      </trkpt>
      <trkpt lat="28.32324" lon="-14.09795">
        <ele>333.2</ele>
        <time>2021-07-05 12:49:04</time>
      </trkpt>
      <trkpt lat="28.32323" lon="-14.09794">
        <ele>333.2</ele>
        <time>2021-07-05 12:49:05</time>
      </trkpt>
      <trkpt lat="28.32323" lon="-14.09793">
        <ele>333.6</ele>
        <time>2021-07-05 12:49:06</time>
      </trkpt>
      <trkpt lat="28.32323" lon="-14.09793">
        <ele>333.6</ele>
        <time>2021-07-05 12:49:07</time>
      </trkpt>
      <trkpt lat="28.32323" lon="-14.09793">
        <ele>333.6</ele>
        <time>2021-07-05 12:49:08</time>
      </trkpt>
      <trkpt lat="28.32323" lon="-14.09792">
        <ele>333.6</ele>
        <time>2021-07-05 12:49:09</time>
      </trkpt>
      <trkpt lat="28.32322" lon="-14.0979">
        <ele>335.4</ele>
        <time>2021-07-05 12:49:10</time>
      </trkpt>
      <trkpt lat="28.32322" lon="-14.09788">
        <ele>335.2</ele>
        <time>2021-07-05 12:49:34</time>
      </trkpt>
      <trkpt lat="28.32322" lon="-14.09785">
        <ele>335.2</ele>
        <time>2021-07-05 12:49:35</time>
      </trkpt>
      <trkpt lat="28.32321" lon="-14.09782">
        <ele>335</ele>
        <time>2021-07-05 12:49:36</time>
      </trkpt>
      <trkpt lat="28.3232" lon="-14.09778">
        <ele>335</ele>
        <time>2021-07-05 12:49:37</time>
      </trkpt>
      <trkpt lat="28.32319" lon="-14.09774">
        <ele>334.6</ele>
        <time>2021-07-05 12:49:38</time>
      </trkpt>
      <trkpt lat="28.32318" lon="-14.0977">
        <ele>334</ele>
        <time>2021-07-05 12:49:39</time>
      </trkpt>
      <trkpt lat="28.32317" lon="-14.09765">
        <ele>333.8</ele>
        <time>2021-07-05 12:49:40</time>
      </trkpt>
      <trkpt lat="28.32316" lon="-14.0976">
        <ele>333.8</ele>
        <time>2021-07-05 12:49:41</time>
      </trkpt>
      <trkpt lat="28.32315" lon="-14.09755">
        <ele>333.6</ele>
        <time>2021-07-05 12:49:42</time>
      </trkpt>
      <trkpt lat="28.32312" lon="-14.0975">
        <ele>333</ele>
        <time>2021-07-05 12:49:43</time>
      </trkpt>
      <trkpt lat="28.32309" lon="-14.09746">
        <ele>333</ele>
        <time>2021-07-05 12:49:44</time>
      </trkpt>
      <trkpt lat="28.32306" lon="-14.09742">
        <ele>332.8</ele>
        <time>2021-07-05 12:49:45</time>
      </trkpt>
      <trkpt lat="28.32302" lon="-14.09737">
        <ele>332.4</ele>
        <time>2021-07-05 12:49:46</time>
      </trkpt>
      <trkpt lat="28.32299" lon="-14.09731">
        <ele>332</ele>
        <time>2021-07-05 12:49:47</time>
      </trkpt>
      <trkpt lat="28.32295" lon="-14.09725">
        <ele>331.4</ele>
        <time>2021-07-05 12:49:48</time>
      </trkpt>
      <trkpt lat="28.32291" lon="-14.09719">
        <ele>330.8</ele>
        <time>2021-07-05 12:49:49</time>
      </trkpt>
      <trkpt lat="28.32287" lon="-14.09715">
        <ele>329.6</ele>
        <time>2021-07-05 12:49:50</time>
      </trkpt>
      <trkpt lat="28.32284" lon="-14.0971">
        <ele>329.6</ele>
        <time>2021-07-05 12:49:51</time>
      </trkpt>
      <trkpt lat="28.32281" lon="-14.09706">
        <ele>329</ele>
        <time>2021-07-05 12:49:52</time>
      </trkpt>
      <trkpt lat="28.32278" lon="-14.09701">
        <ele>328.4</ele>
        <time>2021-07-05 12:49:53</time>
      </trkpt>
      <trkpt lat="28.32275" lon="-14.09696">
        <ele>327.4</ele>
        <time>2021-07-05 12:49:54</time>
      </trkpt>
      <trkpt lat="28.32274" lon="-14.0969">
        <ele>327</ele>
        <time>2021-07-05 12:49:55</time>
      </trkpt>
      <trkpt lat="28.32273" lon="-14.09685">
        <ele>327</ele>
        <time>2021-07-05 12:49:56</time>
      </trkpt>
      <trkpt lat="28.32273" lon="-14.09681">
        <ele>326.6</ele>
        <time>2021-07-05 12:49:57</time>
      </trkpt>
      <trkpt lat="28.32273" lon="-14.09676">
        <ele>326</ele>
        <time>2021-07-05 12:49:58</time>
      </trkpt>
      <trkpt lat="28.32272" lon="-14.09672">
        <ele>325.2</ele>
        <time>2021-07-05 12:49:59</time>
      </trkpt>
      <trkpt lat="28.3227" lon="-14.09668">
        <ele>325.2</ele>
        <time>2021-07-05 12:50:00</time>
      </trkpt>
      <trkpt lat="28.32268" lon="-14.09666">
        <ele>324.6</ele>
        <time>2021-07-05 12:50:01</time>
      </trkpt>
      <trkpt lat="28.32265" lon="-14.09663">
        <ele>324.2</ele>
        <time>2021-07-05 12:50:02</time>
      </trkpt>
      <trkpt lat="28.32262" lon="-14.09659">
        <ele>323</ele>
        <time>2021-07-05 12:50:03</time>
      </trkpt>
      <trkpt lat="28.32258" lon="-14.09657">
        <ele>322.4</ele>
        <time>2021-07-05 12:50:04</time>
      </trkpt>
      <trkpt lat="28.32253" lon="-14.09654">
        <ele>322.4</ele>
        <time>2021-07-05 12:50:05</time>
      </trkpt>
      <trkpt lat="28.32249" lon="-14.09653">
        <ele>321</ele>
        <time>2021-07-05 12:50:06</time>
      </trkpt>
      <trkpt lat="28.32244" lon="-14.09651">
        <ele>321</ele>
        <time>2021-07-05 12:50:07</time>
      </trkpt>
      <trkpt lat="28.32239" lon="-14.09649">
        <ele>319.6</ele>
        <time>2021-07-05 12:50:08</time>
      </trkpt>
      <trkpt lat="28.32234" lon="-14.09647">
        <ele>319.6</ele>
        <time>2021-07-05 12:50:09</time>
      </trkpt>
      <trkpt lat="28.32229" lon="-14.09646">
        <ele>318.2</ele>
        <time>2021-07-05 12:50:10</time>
      </trkpt>
      <trkpt lat="28.32224" lon="-14.09644">
        <ele>318.2</ele>
        <time>2021-07-05 12:50:11</time>
      </trkpt>
      <trkpt lat="28.3222" lon="-14.09642">
        <ele>316.6</ele>
        <time>2021-07-05 12:50:12</time>
      </trkpt>
      <trkpt lat="28.32215" lon="-14.09642">
        <ele>316</ele>
        <time>2021-07-05 12:50:13</time>
      </trkpt>
      <trkpt lat="28.3221" lon="-14.0964">
        <ele>316</ele>
        <time>2021-07-05 12:50:14</time>
      </trkpt>
      <trkpt lat="28.32206" lon="-14.09639">
        <ele>315.4</ele>
        <time>2021-07-05 12:50:15</time>
      </trkpt>
      <trkpt lat="28.32201" lon="-14.09638">
        <ele>314.8</ele>
        <time>2021-07-05 12:50:16</time>
      </trkpt>
      <trkpt lat="28.32196" lon="-14.09636">
        <ele>314.4</ele>
        <time>2021-07-05 12:50:17</time>
      </trkpt>
      <trkpt lat="28.32191" lon="-14.09635">
        <ele>313.8</ele>
        <time>2021-07-05 12:50:18</time>
      </trkpt>
      <trkpt lat="28.32186" lon="-14.09633">
        <ele>313.4</ele>
        <time>2021-07-05 12:50:19</time>
      </trkpt>
      <trkpt lat="28.3218" lon="-14.09631">
        <ele>313</ele>
        <time>2021-07-05 12:50:20</time>
      </trkpt>
      <trkpt lat="28.32174" lon="-14.09628">
        <ele>312.6</ele>
        <time>2021-07-05 12:50:21</time>
      </trkpt>
      <trkpt lat="28.32169" lon="-14.09626">
        <ele>312.2</ele>
        <time>2021-07-05 12:50:22</time>
      </trkpt>
      <trkpt lat="28.32164" lon="-14.09624">
        <ele>311.6</ele>
        <time>2021-07-05 12:50:23</time>
      </trkpt>
      <trkpt lat="28.3216" lon="-14.09621">
        <ele>311.2</ele>
        <time>2021-07-05 12:50:24</time>
      </trkpt>
      <trkpt lat="28.32156" lon="-14.09619">
        <ele>310.6</ele>
        <time>2021-07-05 12:50:25</time>
      </trkpt>
      <trkpt lat="28.32152" lon="-14.09617">
        <ele>309.4</ele>
        <time>2021-07-05 12:50:26</time>
      </trkpt>
      <trkpt lat="28.32148" lon="-14.09615">
        <ele>309.4</ele>
        <time>2021-07-05 12:50:27</time>
      </trkpt>
      <trkpt lat="28.32145" lon="-14.09613">
        <ele>308.6</ele>
        <time>2021-07-05 12:50:28</time>
      </trkpt>
      <trkpt lat="28.32141" lon="-14.09612">
        <ele>308</ele>
        <time>2021-07-05 12:50:29</time>
      </trkpt>
      <trkpt lat="28.32137" lon="-14.0961">
        <ele>307.2</ele>
        <time>2021-07-05 12:50:30</time>
      </trkpt>
      <trkpt lat="28.32133" lon="-14.09608">
        <ele>306.4</ele>
        <time>2021-07-05 12:50:31</time>
      </trkpt>
      <trkpt lat="28.32129" lon="-14.09606">
        <ele>305.6</ele>
        <time>2021-07-05 12:50:32</time>
      </trkpt>
      <trkpt lat="28.32124" lon="-14.09604">
        <ele>304.8</ele>
        <time>2021-07-05 12:50:33</time>
      </trkpt>
      <trkpt lat="28.3212" lon="-14.09602">
        <ele>304</ele>
        <time>2021-07-05 12:50:34</time>
      </trkpt>
      <trkpt lat="28.32116" lon="-14.096">
        <ele>303.2</ele>
        <time>2021-07-05 12:50:35</time>
      </trkpt>
      <trkpt lat="28.32111" lon="-14.09598">
        <ele>302.4</ele>
        <time>2021-07-05 12:50:36</time>
      </trkpt>
      <trkpt lat="28.32107" lon="-14.09596">
        <ele>301.8</ele>
        <time>2021-07-05 12:50:37</time>
      </trkpt>
      <trkpt lat="28.32102" lon="-14.09595">
        <ele>301.2</ele>
        <time>2021-07-05 12:50:38</time>
      </trkpt>
      <trkpt lat="28.32097" lon="-14.09593">
        <ele>300.6</ele>
        <time>2021-07-05 12:50:39</time>
      </trkpt>
      <trkpt lat="28.32093" lon="-14.09592">
        <ele>299.8</ele>
        <time>2021-07-05 12:50:40</time>
      </trkpt>
      <trkpt lat="28.32088" lon="-14.0959">
        <ele>299.2</ele>
        <time>2021-07-05 12:50:41</time>
      </trkpt>
      <trkpt lat="28.32082" lon="-14.09588">
        <ele>298.6</ele>
        <time>2021-07-05 12:50:42</time>
      </trkpt>
      <trkpt lat="28.32077" lon="-14.09587">
        <ele>298</ele>
        <time>2021-07-05 12:50:43</time>
      </trkpt>
      <trkpt lat="28.32072" lon="-14.09585">
        <ele>297.4</ele>
        <time>2021-07-05 12:50:44</time>
      </trkpt>
      <trkpt lat="28.32067" lon="-14.09583">
        <ele>296.2</ele>
        <time>2021-07-05 12:50:45</time>
      </trkpt>
      <trkpt lat="28.3206" lon="-14.0958">
        <ele>296.2</ele>
        <time>2021-07-05 12:50:46</time>
      </trkpt>
      <trkpt lat="28.32055" lon="-14.09579">
        <ele>295.4</ele>
        <time>2021-07-05 12:50:47</time>
      </trkpt>
      <trkpt lat="28.32049" lon="-14.09577">
        <ele>294.2</ele>
        <time>2021-07-05 12:50:48</time>
      </trkpt>
      <trkpt lat="28.32044" lon="-14.09575">
        <ele>294.2</ele>
        <time>2021-07-05 12:50:49</time>
      </trkpt>
      <trkpt lat="28.32038" lon="-14.09574">
        <ele>293.6</ele>
        <time>2021-07-05 12:50:50</time>
      </trkpt>
      <trkpt lat="28.32033" lon="-14.09573">
        <ele>293.2</ele>
        <time>2021-07-05 12:50:51</time>
      </trkpt>
      <trkpt lat="28.32028" lon="-14.09573">
        <ele>292.6</ele>
        <time>2021-07-05 12:50:52</time>
      </trkpt>
      <trkpt lat="28.32022" lon="-14.09574">
        <ele>292.2</ele>
        <time>2021-07-05 12:50:53</time>
      </trkpt>
      <trkpt lat="28.32016" lon="-14.09575">
        <ele>292</ele>
        <time>2021-07-05 12:50:54</time>
      </trkpt>
      <trkpt lat="28.32011" lon="-14.09576">
        <ele>292</ele>
        <time>2021-07-05 12:50:55</time>
      </trkpt>
      <trkpt lat="28.32005" lon="-14.09577">
        <ele>291.6</ele>
        <time>2021-07-05 12:50:56</time>
      </trkpt>
      <trkpt lat="28.32" lon="-14.09578">
        <ele>291.6</ele>
        <time>2021-07-05 12:50:57</time>
      </trkpt>
      <trkpt lat="28.31995" lon="-14.09578">
        <ele>291.6</ele>
        <time>2021-07-05 12:50:58</time>
      </trkpt>
      <trkpt lat="28.31989" lon="-14.09578">
        <ele>291.6</ele>
        <time>2021-07-05 12:50:59</time>
      </trkpt>
      <trkpt lat="28.31984" lon="-14.09577">
        <ele>291.4</ele>
        <time>2021-07-05 12:51:00</time>
      </trkpt>
      <trkpt lat="28.31978" lon="-14.09574">
        <ele>291.4</ele>
        <time>2021-07-05 12:51:01</time>
      </trkpt>
      <trkpt lat="28.31972" lon="-14.09571">
        <ele>291.4</ele>
        <time>2021-07-05 12:51:02</time>
      </trkpt>
      <trkpt lat="28.31967" lon="-14.09568">
        <ele>291</ele>
        <time>2021-07-05 12:51:03</time>
      </trkpt>
      <trkpt lat="28.31962" lon="-14.09563">
        <ele>290.8</ele>
        <time>2021-07-05 12:51:04</time>
      </trkpt>
      <trkpt lat="28.31957" lon="-14.09559">
        <ele>290.6</ele>
        <time>2021-07-05 12:51:05</time>
      </trkpt>
      <trkpt lat="28.31951" lon="-14.09556">
        <ele>290.6</ele>
        <time>2021-07-05 12:51:06</time>
      </trkpt>
      <trkpt lat="28.31946" lon="-14.09552">
        <ele>290.2</ele>
        <time>2021-07-05 12:51:07</time>
      </trkpt>
      <trkpt lat="28.31941" lon="-14.09546">
        <ele>290</ele>
        <time>2021-07-05 12:51:08</time>
      </trkpt>
      <trkpt lat="28.31937" lon="-14.0954">
        <ele>289.6</ele>
        <time>2021-07-05 12:51:09</time>
      </trkpt>
      <trkpt lat="28.31934" lon="-14.09533">
        <ele>289.4</ele>
        <time>2021-07-05 12:51:10</time>
      </trkpt>
      <trkpt lat="28.3193" lon="-14.09526">
        <ele>289</ele>
        <time>2021-07-05 12:51:11</time>
      </trkpt>
      <trkpt lat="28.31928" lon="-14.09519">
        <ele>288.4</ele>
        <time>2021-07-05 12:51:12</time>
      </trkpt>
      <trkpt lat="28.31926" lon="-14.09511">
        <ele>288.4</ele>
        <time>2021-07-05 12:51:13</time>
      </trkpt>
      <trkpt lat="28.31923" lon="-14.09504">
        <ele>288.2</ele>
        <time>2021-07-05 12:51:14</time>
      </trkpt>
      <trkpt lat="28.31918" lon="-14.09499">
        <ele>288.2</ele>
        <time>2021-07-05 12:51:15</time>
      </trkpt>
      <trkpt lat="28.31913" lon="-14.09496">
        <ele>287.8</ele>
        <time>2021-07-05 12:51:16</time>
      </trkpt>
      <trkpt lat="28.31908" lon="-14.09493">
        <ele>287.8</ele>
        <time>2021-07-05 12:51:17</time>
      </trkpt>
      <trkpt lat="28.31903" lon="-14.09493">
        <ele>287.8</ele>
        <time>2021-07-05 12:51:18</time>
      </trkpt>
      <trkpt lat="28.31898" lon="-14.09491">
        <ele>287.8</ele>
        <time>2021-07-05 12:51:19</time>
      </trkpt>
      <trkpt lat="28.31893" lon="-14.09489">
        <ele>287.8</ele>
        <time>2021-07-05 12:51:20</time>
      </trkpt>
      <trkpt lat="28.31887" lon="-14.09489">
        <ele>287.6</ele>
        <time>2021-07-05 12:51:21</time>
      </trkpt>
      <trkpt lat="28.31881" lon="-14.09486">
        <ele>287.6</ele>
        <time>2021-07-05 12:51:22</time>
      </trkpt>
      <trkpt lat="28.31876" lon="-14.09484">
        <ele>287</ele>
        <time>2021-07-05 12:51:23</time>
      </trkpt>
      <trkpt lat="28.31872" lon="-14.09481">
        <ele>287</ele>
        <time>2021-07-05 12:51:24</time>
      </trkpt>
      <trkpt lat="28.31868" lon="-14.09479">
        <ele>286.6</ele>
        <time>2021-07-05 12:51:25</time>
      </trkpt>
      <trkpt lat="28.31866" lon="-14.09476">
        <ele>286.4</ele>
        <time>2021-07-05 12:51:26</time>
      </trkpt>
      <trkpt lat="28.31864" lon="-14.09474">
        <ele>286.4</ele>
        <time>2021-07-05 12:51:27</time>
      </trkpt>
      <trkpt lat="28.31862" lon="-14.09472">
        <ele>286.2</ele>
        <time>2021-07-05 12:51:28</time>
      </trkpt>
      <trkpt lat="28.31861" lon="-14.0947">
        <ele>286.2</ele>
        <time>2021-07-05 12:51:29</time>
      </trkpt>
      <trkpt lat="28.3186" lon="-14.09468">
        <ele>286</ele>
        <time>2021-07-05 12:51:30</time>
      </trkpt>
      <trkpt lat="28.31859" lon="-14.09467">
        <ele>286</ele>
        <time>2021-07-05 12:51:31</time>
      </trkpt>
      <trkpt lat="28.31858" lon="-14.09466">
        <ele>285.8</ele>
        <time>2021-07-05 12:51:32</time>
      </trkpt>
      <trkpt lat="28.31858" lon="-14.09466">
        <ele>285.4</ele>
        <time>2021-07-05 12:51:33</time>
      </trkpt>
      <trkpt lat="28.31857" lon="-14.09466">
        <ele>285.4</ele>
        <time>2021-07-05 12:51:34</time>
      </trkpt>
      <trkpt lat="28.31857" lon="-14.09466">
        <ele>285.4</ele>
        <time>2021-07-05 12:51:35</time>
      </trkpt>
      <trkpt lat="28.31856" lon="-14.09465">
        <ele>285.4</ele>
        <time>2021-07-05 12:51:36</time>
      </trkpt>
      <trkpt lat="28.31854" lon="-14.09463">
        <ele>284.8</ele>
        <time>2021-07-05 12:51:37</time>
      </trkpt>
      <trkpt lat="28.31852" lon="-14.0946">
        <ele>284.8</ele>
        <time>2021-07-05 12:52:01</time>
      </trkpt>
      <trkpt lat="28.31849" lon="-14.09456">
        <ele>284.8</ele>
        <time>2021-07-05 12:52:02</time>
      </trkpt>
      <trkpt lat="28.31846" lon="-14.09453">
        <ele>284.6</ele>
        <time>2021-07-05 12:52:03</time>
      </trkpt>
      <trkpt lat="28.31843" lon="-14.0945">
        <ele>284.2</ele>
        <time>2021-07-05 12:52:04</time>
      </trkpt>
      <trkpt lat="28.31839" lon="-14.09447">
        <ele>283.8</ele>
        <time>2021-07-05 12:52:05</time>
      </trkpt>
      <trkpt lat="28.31834" lon="-14.09444">
        <ele>283.8</ele>
        <time>2021-07-05 12:52:06</time>
      </trkpt>
      <trkpt lat="28.3183" lon="-14.09441">
        <ele>283.4</ele>
        <time>2021-07-05 12:52:07</time>
      </trkpt>
      <trkpt lat="28.31825" lon="-14.09437">
        <ele>282.8</ele>
        <time>2021-07-05 12:52:08</time>
      </trkpt>
      <trkpt lat="28.3182" lon="-14.09434">
        <ele>282.8</ele>
        <time>2021-07-05 12:52:09</time>
      </trkpt>
      <trkpt lat="28.31816" lon="-14.0943">
        <ele>282.4</ele>
        <time>2021-07-05 12:52:10</time>
      </trkpt>
      <trkpt lat="28.31814" lon="-14.09425">
        <ele>282.4</ele>
        <time>2021-07-05 12:52:11</time>
      </trkpt>
      <trkpt lat="28.31813" lon="-14.09421">
        <ele>281.8</ele>
        <time>2021-07-05 12:52:12</time>
      </trkpt>
      <trkpt lat="28.31811" lon="-14.09417">
        <ele>281.4</ele>
        <time>2021-07-05 12:52:13</time>
      </trkpt>
      <trkpt lat="28.3181" lon="-14.09413">
        <ele>281.2</ele>
        <time>2021-07-05 12:52:14</time>
      </trkpt>
      <trkpt lat="28.31811" lon="-14.09409">
        <ele>281.2</ele>
        <time>2021-07-05 12:52:15</time>
      </trkpt>
      <trkpt lat="28.3181" lon="-14.09405">
        <ele>281</ele>
        <time>2021-07-05 12:52:16</time>
      </trkpt>
      <trkpt lat="28.31809" lon="-14.09402">
        <ele>280.6</ele>
        <time>2021-07-05 12:52:17</time>
      </trkpt>
      <trkpt lat="28.31808" lon="-14.09399">
        <ele>280.6</ele>
        <time>2021-07-05 12:52:18</time>
      </trkpt>
      <trkpt lat="28.31806" lon="-14.09397">
        <ele>280.6</ele>
        <time>2021-07-05 12:52:19</time>
      </trkpt>
      <trkpt lat="28.31804" lon="-14.09395">
        <ele>280.2</ele>
        <time>2021-07-05 12:52:20</time>
      </trkpt>
      <trkpt lat="28.31802" lon="-14.09395">
        <ele>280.2</ele>
        <time>2021-07-05 12:52:21</time>
      </trkpt>
      <trkpt lat="28.31802" lon="-14.09394">
        <ele>280.2</ele>
        <time>2021-07-05 12:52:22</time>
      </trkpt>
      <trkpt lat="28.31802" lon="-14.09394">
        <ele>280</ele>
        <time>2021-07-05 12:52:23</time>
      </trkpt>
      <trkpt lat="28.31802" lon="-14.09394">
        <ele>280</ele>
        <time>2021-07-05 12:52:24</time>
      </trkpt>
      <trkpt lat="28.318" lon="-14.09394">
        <ele>280</ele>
        <time>2021-07-05 12:52:25</time>
      </trkpt>
      <trkpt lat="28.31799" lon="-14.09393">
        <ele>279.6</ele>
        <time>2021-07-05 12:52:26</time>
      </trkpt>
      <trkpt lat="28.31797" lon="-14.09392">
        <ele>279.6</ele>
        <time>2021-07-05 12:52:35</time>
      </trkpt>
      <trkpt lat="28.31796" lon="-14.09391">
        <ele>279.6</ele>
        <time>2021-07-05 12:52:36</time>
      </trkpt>
      <trkpt lat="28.31794" lon="-14.09389">
        <ele>279.8</ele>
        <time>2021-07-05 12:52:37</time>
      </trkpt>
      <trkpt lat="28.31793" lon="-14.09386">
        <ele>279.8</ele>
        <time>2021-07-05 12:52:38</time>
      </trkpt>
      <trkpt lat="28.31791" lon="-14.09385">
        <ele>279.8</ele>
        <time>2021-07-05 12:52:39</time>
      </trkpt>
      <trkpt lat="28.31789" lon="-14.09383">
        <ele>279.8</ele>
        <time>2021-07-05 12:52:40</time>
      </trkpt>
      <trkpt lat="28.31787" lon="-14.0938">
        <ele>280</ele>
        <time>2021-07-05 12:52:41</time>
      </trkpt>
      <trkpt lat="28.31786" lon="-14.09378">
        <ele>280</ele>
        <time>2021-07-05 12:52:42</time>
      </trkpt>
      <trkpt lat="28.31785" lon="-14.09375">
        <ele>280</ele>
        <time>2021-07-05 12:52:43</time>
      </trkpt>
      <trkpt lat="28.31783" lon="-14.09373">
        <ele>280</ele>
        <time>2021-07-05 12:52:44</time>
      </trkpt>
      <trkpt lat="28.3178" lon="-14.0937">
        <ele>280</ele>
        <time>2021-07-05 12:52:45</time>
      </trkpt>
      <trkpt lat="28.31777" lon="-14.09367">
        <ele>280</ele>
        <time>2021-07-05 12:52:46</time>
      </trkpt>
      <trkpt lat="28.31774" lon="-14.09364">
        <ele>280</ele>
        <time>2021-07-05 12:52:47</time>
      </trkpt>
      <trkpt lat="28.3177" lon="-14.09359">
        <ele>279.4</ele>
        <time>2021-07-05 12:52:48</time>
      </trkpt>
      <trkpt lat="28.31765" lon="-14.09354">
        <ele>279</ele>
        <time>2021-07-05 12:52:49</time>
      </trkpt>
      <trkpt lat="28.3176" lon="-14.09349">
        <ele>279</ele>
        <time>2021-07-05 12:52:50</time>
      </trkpt>
      <trkpt lat="28.31755" lon="-14.09345">
        <ele>278.6</ele>
        <time>2021-07-05 12:52:51</time>
      </trkpt>
      <trkpt lat="28.31749" lon="-14.09341">
        <ele>278.2</ele>
        <time>2021-07-05 12:52:52</time>
      </trkpt>
      <trkpt lat="28.31744" lon="-14.09337">
        <ele>277.6</ele>
        <time>2021-07-05 12:52:53</time>
      </trkpt>
      <trkpt lat="28.31739" lon="-14.09333">
        <ele>277</ele>
        <time>2021-07-05 12:52:54</time>
      </trkpt>
      <trkpt lat="28.31733" lon="-14.09328">
        <ele>275.6</ele>
        <time>2021-07-05 12:52:55</time>
      </trkpt>
      <trkpt lat="28.31728" lon="-14.09321">
        <ele>275.6</ele>
        <time>2021-07-05 12:52:56</time>
      </trkpt>
      <trkpt lat="28.31722" lon="-14.09314">
        <ele>275</ele>
        <time>2021-07-05 12:52:57</time>
      </trkpt>
      <trkpt lat="28.31717" lon="-14.09306">
        <ele>274.2</ele>
        <time>2021-07-05 12:52:58</time>
      </trkpt>
      <trkpt lat="28.3171" lon="-14.093">
        <ele>273.6</ele>
        <time>2021-07-05 12:52:59</time>
      </trkpt>
      <trkpt lat="28.31702" lon="-14.09296">
        <ele>272.6</ele>
        <time>2021-07-05 12:53:00</time>
      </trkpt>
      <trkpt lat="28.31695" lon="-14.09292">
        <ele>272.4</ele>
        <time>2021-07-05 12:53:01</time>
      </trkpt>
      <trkpt lat="28.31688" lon="-14.0929">
        <ele>272.4</ele>
        <time>2021-07-05 12:53:02</time>
      </trkpt>
      <trkpt lat="28.31682" lon="-14.09287">
        <ele>272.2</ele>
        <time>2021-07-05 12:53:03</time>
      </trkpt>
      <trkpt lat="28.31676" lon="-14.09284">
        <ele>272.2</ele>
        <time>2021-07-05 12:53:04</time>
      </trkpt>
      <trkpt lat="28.3167" lon="-14.09281">
        <ele>272.2</ele>
        <time>2021-07-05 12:53:05</time>
      </trkpt>
      <trkpt lat="28.31665" lon="-14.09277">
        <ele>272.4</ele>
        <time>2021-07-05 12:53:06</time>
      </trkpt>
      <trkpt lat="28.31662" lon="-14.09273">
        <ele>272.8</ele>
        <time>2021-07-05 12:53:07</time>
      </trkpt>
      <trkpt lat="28.31659" lon="-14.0927">
        <ele>272.8</ele>
        <time>2021-07-05 12:53:08</time>
      </trkpt>
      <trkpt lat="28.31657" lon="-14.09266">
        <ele>272.8</ele>
        <time>2021-07-05 12:53:09</time>
      </trkpt>
      <trkpt lat="28.31655" lon="-14.09262">
        <ele>273.2</ele>
        <time>2021-07-05 12:53:10</time>
      </trkpt>
      <trkpt lat="28.31654" lon="-14.09258">
        <ele>273.4</ele>
        <time>2021-07-05 12:53:11</time>
      </trkpt>
      <trkpt lat="28.31653" lon="-14.09255">
        <ele>273.6</ele>
        <time>2021-07-05 12:53:12</time>
      </trkpt>
      <trkpt lat="28.31652" lon="-14.09251">
        <ele>273.6</ele>
        <time>2021-07-05 12:53:13</time>
      </trkpt>
      <trkpt lat="28.31651" lon="-14.09247">
        <ele>273.8</ele>
        <time>2021-07-05 12:53:14</time>
      </trkpt>
      <trkpt lat="28.3165" lon="-14.09243">
        <ele>273.8</ele>
        <time>2021-07-05 12:53:15</time>
      </trkpt>
      <trkpt lat="28.31649" lon="-14.0924">
        <ele>273.8</ele>
        <time>2021-07-05 12:53:16</time>
      </trkpt>
      <trkpt lat="28.31647" lon="-14.09237">
        <ele>273.8</ele>
        <time>2021-07-05 12:53:17</time>
      </trkpt>
      <trkpt lat="28.31646" lon="-14.09235">
        <ele>273.8</ele>
        <time>2021-07-05 12:53:18</time>
      </trkpt>
      <trkpt lat="28.31644" lon="-14.09233">
        <ele>273.6</ele>
        <time>2021-07-05 12:53:19</time>
      </trkpt>
      <trkpt lat="28.31643" lon="-14.09231">
        <ele>273.6</ele>
        <time>2021-07-05 12:53:20</time>
      </trkpt>
      <trkpt lat="28.31641" lon="-14.0923">
        <ele>273.4</ele>
        <time>2021-07-05 12:53:21</time>
      </trkpt>
      <trkpt lat="28.3164" lon="-14.09229">
        <ele>273</ele>
        <time>2021-07-05 12:53:22</time>
      </trkpt>
      <trkpt lat="28.31638" lon="-14.0923">
        <ele>273</ele>
        <time>2021-07-05 12:53:23</time>
      </trkpt>
      <trkpt lat="28.31636" lon="-14.09232">
        <ele>273</ele>
        <time>2021-07-05 12:53:24</time>
      </trkpt>
      <trkpt lat="28.31634" lon="-14.09235">
        <ele>272.8</ele>
        <time>2021-07-05 12:53:25</time>
      </trkpt>
      <trkpt lat="28.31632" lon="-14.09238">
        <ele>272.8</ele>
        <time>2021-07-05 12:53:26</time>
      </trkpt>
      <trkpt lat="28.3163" lon="-14.0924">
        <ele>272.8</ele>
        <time>2021-07-05 12:53:27</time>
      </trkpt>
      <trkpt lat="28.31628" lon="-14.09243">
        <ele>272.8</ele>
        <time>2021-07-05 12:53:28</time>
      </trkpt>
      <trkpt lat="28.31626" lon="-14.09244">
        <ele>272.8</ele>
        <time>2021-07-05 12:53:29</time>
      </trkpt>
      <trkpt lat="28.31625" lon="-14.09244">
        <ele>272.8</ele>
        <time>2021-07-05 12:53:30</time>
      </trkpt>
      <trkpt lat="28.31624" lon="-14.09244">
        <ele>272.8</ele>
        <time>2021-07-05 12:53:31</time>
      </trkpt>
      <trkpt lat="28.31624" lon="-14.09244">
        <ele>272.4</ele>
        <time>2021-07-05 12:53:32</time>
      </trkpt>
      <trkpt lat="28.31624" lon="-14.09244">
        <ele>272.4</ele>
        <time>2021-07-05 12:53:33</time>
      </trkpt>
      <trkpt lat="28.3162" lon="-14.09247">
        <ele>271.2</ele>
        <time>2021-07-05 12:53:34</time>
      </trkpt>
      <trkpt lat="28.31616" lon="-14.09249">
        <ele>271.2</ele>
        <time>2021-07-05 12:53:35</time>
      </trkpt>
      <trkpt lat="28.31612" lon="-14.09252">
        <ele>270.6</ele>
        <time>2021-07-05 12:54:46</time>
      </trkpt>
      <trkpt lat="28.31608" lon="-14.09255">
        <ele>270.4</ele>
        <time>2021-07-05 12:54:47</time>
      </trkpt>
      <trkpt lat="28.31603" lon="-14.09258">
        <ele>270</ele>
        <time>2021-07-05 12:54:48</time>
      </trkpt>
      <trkpt lat="28.31597" lon="-14.09261">
        <ele>270</ele>
        <time>2021-07-05 12:54:49</time>
      </trkpt>
      <trkpt lat="28.31591" lon="-14.09264">
        <ele>269.2</ele>
        <time>2021-07-05 12:54:50</time>
      </trkpt>
      <trkpt lat="28.31584" lon="-14.09265">
        <ele>269.2</ele>
        <time>2021-07-05 12:54:51</time>
      </trkpt>
      <trkpt lat="28.31577" lon="-14.09265">
        <ele>268.8</ele>
        <time>2021-07-05 12:54:52</time>
      </trkpt>
      <trkpt lat="28.3157" lon="-14.09259">
        <ele>268.8</ele>
        <time>2021-07-05 12:54:53</time>
      </trkpt>
      <trkpt lat="28.31564" lon="-14.09253">
        <ele>268.8</ele>
        <time>2021-07-05 12:54:54</time>
      </trkpt>
      <trkpt lat="28.31559" lon="-14.09245">
        <ele>268.8</ele>
        <time>2021-07-05 12:54:55</time>
      </trkpt>
      <trkpt lat="28.31556" lon="-14.09236">
        <ele>268.8</ele>
        <time>2021-07-05 12:54:56</time>
      </trkpt>
      <trkpt lat="28.31551" lon="-14.09227">
        <ele>268.4</ele>
        <time>2021-07-05 12:54:57</time>
      </trkpt>
      <trkpt lat="28.31547" lon="-14.09218">
        <ele>267</ele>
        <time>2021-07-05 12:54:58</time>
      </trkpt>
      <trkpt lat="28.31542" lon="-14.09209">
        <ele>266.4</ele>
        <time>2021-07-05 12:54:59</time>
      </trkpt>
      <trkpt lat="28.31538" lon="-14.092">
        <ele>266.4</ele>
        <time>2021-07-05 12:55:00</time>
      </trkpt>
      <trkpt lat="28.31532" lon="-14.09192">
        <ele>265.6</ele>
        <time>2021-07-05 12:55:01</time>
      </trkpt>
      <trkpt lat="28.31526" lon="-14.09184">
        <ele>265</ele>
        <time>2021-07-05 12:55:02</time>
      </trkpt>
      <trkpt lat="28.3152" lon="-14.09176">
        <ele>264.4</ele>
        <time>2021-07-05 12:55:03</time>
      </trkpt>
      <trkpt lat="28.31513" lon="-14.09168">
        <ele>263.8</ele>
        <time>2021-07-05 12:55:04</time>
      </trkpt>
      <trkpt lat="28.31505" lon="-14.09162">
        <ele>262.8</ele>
        <time>2021-07-05 12:55:05</time>
      </trkpt>
      <trkpt lat="28.31498" lon="-14.09155">
        <ele>262.8</ele>
        <time>2021-07-05 12:55:06</time>
      </trkpt>
      <trkpt lat="28.3149" lon="-14.09149">
        <ele>262.4</ele>
        <time>2021-07-05 12:55:07</time>
      </trkpt>
      <trkpt lat="28.31482" lon="-14.09143">
        <ele>261.8</ele>
        <time>2021-07-05 12:55:08</time>
      </trkpt>
      <trkpt lat="28.31475" lon="-14.09139">
        <ele>261.8</ele>
        <time>2021-07-05 12:55:09</time>
      </trkpt>
      <trkpt lat="28.31468" lon="-14.09135">
        <ele>261.4</ele>
        <time>2021-07-05 12:55:10</time>
      </trkpt>
      <trkpt lat="28.3146" lon="-14.09133">
        <ele>261.4</ele>
        <time>2021-07-05 12:55:11</time>
      </trkpt>
      <trkpt lat="28.31452" lon="-14.0913">
        <ele>261</ele>
        <time>2021-07-05 12:55:12</time>
      </trkpt>
      <trkpt lat="28.31445" lon="-14.09129">
        <ele>261</ele>
        <time>2021-07-05 12:55:13</time>
      </trkpt>
      <trkpt lat="28.31437" lon="-14.09127">
        <ele>260.8</ele>
        <time>2021-07-05 12:55:14</time>
      </trkpt>
      <trkpt lat="28.31431" lon="-14.09125">
        <ele>260.8</ele>
        <time>2021-07-05 12:55:15</time>
      </trkpt>
      <trkpt lat="28.31425" lon="-14.09123">
        <ele>260.4</ele>
        <time>2021-07-05 12:55:16</time>
      </trkpt>
      <trkpt lat="28.31419" lon="-14.09122">
        <ele>260.2</ele>
        <time>2021-07-05 12:55:17</time>
      </trkpt>
      <trkpt lat="28.31413" lon="-14.0912">
        <ele>260.2</ele>
        <time>2021-07-05 12:55:18</time>
      </trkpt>
      <trkpt lat="28.31407" lon="-14.09117">
        <ele>259</ele>
        <time>2021-07-05 12:55:19</time>
      </trkpt>
      <trkpt lat="28.314" lon="-14.09114">
        <ele>258.6</ele>
        <time>2021-07-05 12:55:20</time>
      </trkpt>
      <trkpt lat="28.31394" lon="-14.09112">
        <ele>258</ele>
        <time>2021-07-05 12:55:21</time>
      </trkpt>
      <trkpt lat="28.31387" lon="-14.0911">
        <ele>258</ele>
        <time>2021-07-05 12:55:22</time>
      </trkpt>
      <trkpt lat="28.31381" lon="-14.09106">
        <ele>257.4</ele>
        <time>2021-07-05 12:55:23</time>
      </trkpt>
      <trkpt lat="28.31375" lon="-14.09103">
        <ele>256.6</ele>
        <time>2021-07-05 12:55:24</time>
      </trkpt>
      <trkpt lat="28.31369" lon="-14.09098">
        <ele>255.6</ele>
        <time>2021-07-05 12:55:25</time>
      </trkpt>
      <trkpt lat="28.31363" lon="-14.09095">
        <ele>255</ele>
        <time>2021-07-05 12:55:26</time>
      </trkpt>
      <trkpt lat="28.31358" lon="-14.09092">
        <ele>255</ele>
        <time>2021-07-05 12:55:27</time>
      </trkpt>
      <trkpt lat="28.31352" lon="-14.09089">
        <ele>253.8</ele>
        <time>2021-07-05 12:55:28</time>
      </trkpt>
      <trkpt lat="28.31347" lon="-14.09089">
        <ele>253.8</ele>
        <time>2021-07-05 12:55:29</time>
      </trkpt>
      <trkpt lat="28.31342" lon="-14.09088">
        <ele>253.4</ele>
        <time>2021-07-05 12:55:30</time>
      </trkpt>
      <trkpt lat="28.31337" lon="-14.09089">
        <ele>252.4</ele>
        <time>2021-07-05 12:55:31</time>
      </trkpt>
      <trkpt lat="28.31332" lon="-14.09089">
        <ele>252.4</ele>
        <time>2021-07-05 12:55:32</time>
      </trkpt>
      <trkpt lat="28.31327" lon="-14.0909">
        <ele>252</ele>
        <time>2021-07-05 12:55:33</time>
      </trkpt>
      <trkpt lat="28.31321" lon="-14.09091">
        <ele>251.8</ele>
        <time>2021-07-05 12:55:34</time>
      </trkpt>
      <trkpt lat="28.31316" lon="-14.09091">
        <ele>251.8</ele>
        <time>2021-07-05 12:55:35</time>
      </trkpt>
      <trkpt lat="28.3131" lon="-14.09091">
        <ele>251.8</ele>
        <time>2021-07-05 12:55:36</time>
      </trkpt>
      <trkpt lat="28.31304" lon="-14.09092">
        <ele>251.8</ele>
        <time>2021-07-05 12:55:37</time>
      </trkpt>
      <trkpt lat="28.31299" lon="-14.09092">
        <ele>251.8</ele>
        <time>2021-07-05 12:55:38</time>
      </trkpt>
      <trkpt lat="28.31293" lon="-14.09092">
        <ele>251.8</ele>
        <time>2021-07-05 12:55:39</time>
      </trkpt>
      <trkpt lat="28.31288" lon="-14.09093">
        <ele>251.8</ele>
        <time>2021-07-05 12:55:40</time>
      </trkpt>
      <trkpt lat="28.31282" lon="-14.09094">
        <ele>251.8</ele>
        <time>2021-07-05 12:55:41</time>
      </trkpt>
      <trkpt lat="28.31276" lon="-14.09094">
        <ele>251.8</ele>
        <time>2021-07-05 12:55:42</time>
      </trkpt>
      <trkpt lat="28.3127" lon="-14.09095">
        <ele>251.8</ele>
        <time>2021-07-05 12:55:43</time>
      </trkpt>
      <trkpt lat="28.31264" lon="-14.09096">
        <ele>251.8</ele>
        <time>2021-07-05 12:55:44</time>
      </trkpt>
      <trkpt lat="28.31259" lon="-14.09096">
        <ele>251.8</ele>
        <time>2021-07-05 12:55:45</time>
      </trkpt>
      <trkpt lat="28.31253" lon="-14.09096">
        <ele>251.8</ele>
        <time>2021-07-05 12:55:46</time>
      </trkpt>
      <trkpt lat="28.31247" lon="-14.09097">
        <ele>251.8</ele>
        <time>2021-07-05 12:55:47</time>
      </trkpt>
      <trkpt lat="28.31241" lon="-14.09097">
        <ele>251.8</ele>
        <time>2021-07-05 12:55:48</time>
      </trkpt>
      <trkpt lat="28.31235" lon="-14.09097">
        <ele>251.8</ele>
        <time>2021-07-05 12:55:49</time>
      </trkpt>
      <trkpt lat="28.31229" lon="-14.09097">
        <ele>251.6</ele>
        <time>2021-07-05 12:55:50</time>
      </trkpt>
      <trkpt lat="28.31224" lon="-14.09097">
        <ele>251.6</ele>
        <time>2021-07-05 12:55:51</time>
      </trkpt>
      <trkpt lat="28.31218" lon="-14.09097">
        <ele>251.6</ele>
        <time>2021-07-05 12:55:52</time>
      </trkpt>
      <trkpt lat="28.31212" lon="-14.09097">
        <ele>251.6</ele>
        <time>2021-07-05 12:55:53</time>
      </trkpt>
      <trkpt lat="28.31207" lon="-14.09097">
        <ele>252</ele>
        <time>2021-07-05 12:55:54</time>
      </trkpt>
      <trkpt lat="28.31202" lon="-14.09097">
        <ele>252.2</ele>
        <time>2021-07-05 12:55:55</time>
      </trkpt>
      <trkpt lat="28.31198" lon="-14.09098">
        <ele>252.2</ele>
        <time>2021-07-05 12:55:56</time>
      </trkpt>
      <trkpt lat="28.31193" lon="-14.09101">
        <ele>252.2</ele>
        <time>2021-07-05 12:55:57</time>
      </trkpt>
      <trkpt lat="28.31189" lon="-14.09104">
        <ele>252.2</ele>
        <time>2021-07-05 12:55:58</time>
      </trkpt>
      <trkpt lat="28.31186" lon="-14.09107">
        <ele>252.6</ele>
        <time>2021-07-05 12:55:59</time>
      </trkpt>
      <trkpt lat="28.31183" lon="-14.09111">
        <ele>252.6</ele>
        <time>2021-07-05 12:56:00</time>
      </trkpt>
      <trkpt lat="28.3118" lon="-14.09115">
        <ele>252.6</ele>
        <time>2021-07-05 12:56:01</time>
      </trkpt>
      <trkpt lat="28.31177" lon="-14.0912">
        <ele>252.8</ele>
        <time>2021-07-05 12:56:02</time>
      </trkpt>
      <trkpt lat="28.31174" lon="-14.09124">
        <ele>252.8</ele>
        <time>2021-07-05 12:56:03</time>
      </trkpt>
      <trkpt lat="28.31171" lon="-14.09129">
        <ele>252.8</ele>
        <time>2021-07-05 12:56:04</time>
      </trkpt>
      <trkpt lat="28.31169" lon="-14.09134">
        <ele>252.8</ele>
        <time>2021-07-05 12:56:05</time>
      </trkpt>
      <trkpt lat="28.31167" lon="-14.0914">
        <ele>252.8</ele>
        <time>2021-07-05 12:56:06</time>
      </trkpt>
      <trkpt lat="28.31165" lon="-14.09146">
        <ele>252.8</ele>
        <time>2021-07-05 12:56:07</time>
      </trkpt>
      <trkpt lat="28.31162" lon="-14.09152">
        <ele>252.8</ele>
        <time>2021-07-05 12:56:08</time>
      </trkpt>
      <trkpt lat="28.31159" lon="-14.09158">
        <ele>252.8</ele>
        <time>2021-07-05 12:56:09</time>
      </trkpt>
      <trkpt lat="28.31156" lon="-14.09165">
        <ele>252.8</ele>
        <time>2021-07-05 12:56:10</time>
      </trkpt>
      <trkpt lat="28.31153" lon="-14.09172">
        <ele>252.8</ele>
        <time>2021-07-05 12:56:11</time>
      </trkpt>
      <trkpt lat="28.31151" lon="-14.09178">
        <ele>252.8</ele>
        <time>2021-07-05 12:56:12</time>
      </trkpt>
      <trkpt lat="28.31149" lon="-14.09185">
        <ele>252.8</ele>
        <time>2021-07-05 12:56:13</time>
      </trkpt>
      <trkpt lat="28.31146" lon="-14.09191">
        <ele>252.8</ele>
        <time>2021-07-05 12:56:14</time>
      </trkpt>
      <trkpt lat="28.31144" lon="-14.09198">
        <ele>252.8</ele>
        <time>2021-07-05 12:56:15</time>
      </trkpt>
      <trkpt lat="28.31142" lon="-14.09205">
        <ele>252.8</ele>
        <time>2021-07-05 12:56:16</time>
      </trkpt>
      <trkpt lat="28.31139" lon="-14.09211">
        <ele>253</ele>
        <time>2021-07-05 12:56:17</time>
      </trkpt>
      <trkpt lat="28.31137" lon="-14.09218">
        <ele>253</ele>
        <time>2021-07-05 12:56:18</time>
      </trkpt>
      <trkpt lat="28.31134" lon="-14.09224">
        <ele>253</ele>
        <time>2021-07-05 12:56:19</time>
      </trkpt>
      <trkpt lat="28.31132" lon="-14.0923">
        <ele>253</ele>
        <time>2021-07-05 12:56:20</time>
      </trkpt>
      <trkpt lat="28.31129" lon="-14.09236">
        <ele>253</ele>
        <time>2021-07-05 12:56:21</time>
      </trkpt>
      <trkpt lat="28.31127" lon="-14.09243">
        <ele>252.8</ele>
        <time>2021-07-05 12:56:22</time>
      </trkpt>
      <trkpt lat="28.31124" lon="-14.09249">
        <ele>252.8</ele>
        <time>2021-07-05 12:56:23</time>
      </trkpt>
      <trkpt lat="28.31121" lon="-14.09255">
        <ele>252.8</ele>
        <time>2021-07-05 12:56:24</time>
      </trkpt>
      <trkpt lat="28.31118" lon="-14.0926">
        <ele>252.4</ele>
        <time>2021-07-05 12:56:25</time>
      </trkpt>
      <trkpt lat="28.31115" lon="-14.09266">
        <ele>252.4</ele>
        <time>2021-07-05 12:56:26</time>
      </trkpt>
      <trkpt lat="28.31113" lon="-14.09271">
        <ele>252.4</ele>
        <time>2021-07-05 12:56:27</time>
      </trkpt>
      <trkpt lat="28.3111" lon="-14.09276">
        <ele>252.4</ele>
        <time>2021-07-05 12:56:28</time>
      </trkpt>
      <trkpt lat="28.31109" lon="-14.09281">
        <ele>252.4</ele>
        <time>2021-07-05 12:56:29</time>
      </trkpt>
      <trkpt lat="28.31107" lon="-14.09286">
        <ele>252.4</ele>
        <time>2021-07-05 12:56:30</time>
      </trkpt>
      <trkpt lat="28.31105" lon="-14.09291">
        <ele>252.4</ele>
        <time>2021-07-05 12:56:31</time>
      </trkpt>
      <trkpt lat="28.31104" lon="-14.09295">
        <ele>252.6</ele>
        <time>2021-07-05 12:56:32</time>
      </trkpt>
      <trkpt lat="28.31104" lon="-14.093">
        <ele>253</ele>
        <time>2021-07-05 12:56:33</time>
      </trkpt>
      <trkpt lat="28.31103" lon="-14.09304">
        <ele>253</ele>
        <time>2021-07-05 12:56:34</time>
      </trkpt>
      <trkpt lat="28.31103" lon="-14.09309">
        <ele>253.2</ele>
        <time>2021-07-05 12:56:35</time>
      </trkpt>
      <trkpt lat="28.31103" lon="-14.09313">
        <ele>253.2</ele>
        <time>2021-07-05 12:56:36</time>
      </trkpt>
      <trkpt lat="28.31103" lon="-14.09317">
        <ele>253.6</ele>
        <time>2021-07-05 12:56:37</time>
      </trkpt>
      <trkpt lat="28.31103" lon="-14.09321">
        <ele>253.6</ele>
        <time>2021-07-05 12:56:38</time>
      </trkpt>
      <trkpt lat="28.31103" lon="-14.09324">
        <ele>254.2</ele>
        <time>2021-07-05 12:56:39</time>
      </trkpt>
      <trkpt lat="28.31103" lon="-14.09327">
        <ele>254.2</ele>
        <time>2021-07-05 12:56:40</time>
      </trkpt>
      <trkpt lat="28.31103" lon="-14.0933">
        <ele>254.8</ele>
        <time>2021-07-05 12:56:41</time>
      </trkpt>
      <trkpt lat="28.31103" lon="-14.09332">
        <ele>255</ele>
        <time>2021-07-05 12:56:42</time>
      </trkpt>
      <trkpt lat="28.31103" lon="-14.09334">
        <ele>255</ele>
        <time>2021-07-05 12:56:43</time>
      </trkpt>
      <trkpt lat="28.31103" lon="-14.09336">
        <ele>255.2</ele>
        <time>2021-07-05 12:56:44</time>
      </trkpt>
      <trkpt lat="28.31104" lon="-14.09338">
        <ele>255.2</ele>
        <time>2021-07-05 12:56:45</time>
      </trkpt>
      <trkpt lat="28.31104" lon="-14.0934">
        <ele>256</ele>
        <time>2021-07-05 12:56:46</time>
      </trkpt>
      <trkpt lat="28.31104" lon="-14.09343">
        <ele>256</ele>
        <time>2021-07-05 12:56:47</time>
      </trkpt>
      <trkpt lat="28.31105" lon="-14.09345">
        <ele>256.2</ele>
        <time>2021-07-05 12:56:48</time>
      </trkpt>
      <trkpt lat="28.31105" lon="-14.09346">
        <ele>256.6</ele>
        <time>2021-07-05 12:56:49</time>
      </trkpt>
      <trkpt lat="28.31106" lon="-14.09349">
        <ele>256.8</ele>
        <time>2021-07-05 12:56:50</time>
      </trkpt>
      <trkpt lat="28.31106" lon="-14.09351">
        <ele>257.2</ele>
        <time>2021-07-05 12:56:51</time>
      </trkpt>
      <trkpt lat="28.31107" lon="-14.09353">
        <ele>257.6</ele>
        <time>2021-07-05 12:56:52</time>
      </trkpt>
      <trkpt lat="28.31107" lon="-14.09356">
        <ele>258.2</ele>
        <time>2021-07-05 12:56:53</time>
      </trkpt>
      <trkpt lat="28.31108" lon="-14.09358">
        <ele>258.4</ele>
        <time>2021-07-05 12:56:54</time>
      </trkpt>
      <trkpt lat="28.31108" lon="-14.09361">
        <ele>258.8</ele>
        <time>2021-07-05 12:56:55</time>
      </trkpt>
      <trkpt lat="28.31109" lon="-14.09364">
        <ele>258.8</ele>
        <time>2021-07-05 12:56:56</time>
      </trkpt>
      <trkpt lat="28.31109" lon="-14.09366">
        <ele>259.2</ele>
        <time>2021-07-05 12:56:57</time>
      </trkpt>
      <trkpt lat="28.3111" lon="-14.09369">
        <ele>259.2</ele>
        <time>2021-07-05 12:56:58</time>
      </trkpt>
      <trkpt lat="28.3111" lon="-14.09372">
        <ele>259.6</ele>
        <time>2021-07-05 12:56:59</time>
      </trkpt>
      <trkpt lat="28.31111" lon="-14.09375">
        <ele>259.6</ele>
        <time>2021-07-05 12:57:00</time>
      </trkpt>
      <trkpt lat="28.31111" lon="-14.09378">
        <ele>260</ele>
        <time>2021-07-05 12:57:01</time>
      </trkpt>
      <trkpt lat="28.31112" lon="-14.09381">
        <ele>260.2</ele>
        <time>2021-07-05 12:57:02</time>
      </trkpt>
      <trkpt lat="28.31112" lon="-14.09383">
        <ele>260.4</ele>
        <time>2021-07-05 12:57:03</time>
      </trkpt>
      <trkpt lat="28.31113" lon="-14.09386">
        <ele>260.6</ele>
        <time>2021-07-05 12:57:04</time>
      </trkpt>
      <trkpt lat="28.31113" lon="-14.09389">
        <ele>260.6</ele>
        <time>2021-07-05 12:57:05</time>
      </trkpt>
      <trkpt lat="28.31114" lon="-14.09392">
        <ele>261</ele>
        <time>2021-07-05 12:57:06</time>
      </trkpt>
      <trkpt lat="28.31114" lon="-14.09394">
        <ele>261</ele>
        <time>2021-07-05 12:57:07</time>
      </trkpt>
      <trkpt lat="28.31115" lon="-14.09397">
        <ele>261.4</ele>
        <time>2021-07-05 12:57:08</time>
      </trkpt>
      <trkpt lat="28.31116" lon="-14.09399">
        <ele>261.6</ele>
        <time>2021-07-05 12:57:09</time>
      </trkpt>
      <trkpt lat="28.31116" lon="-14.09402">
        <ele>261.6</ele>
        <time>2021-07-05 12:57:10</time>
      </trkpt>
      <trkpt lat="28.31117" lon="-14.09404">
        <ele>261.6</ele>
        <time>2021-07-05 12:57:11</time>
      </trkpt>
      <trkpt lat="28.31117" lon="-14.09407">
        <ele>261.6</ele>
        <time>2021-07-05 12:57:12</time>
      </trkpt>
      <trkpt lat="28.31118" lon="-14.09409">
        <ele>262</ele>
        <time>2021-07-05 12:57:13</time>
      </trkpt>
      <trkpt lat="28.31118" lon="-14.09411">
        <ele>262.2</ele>
        <time>2021-07-05 12:57:14</time>
      </trkpt>
      <trkpt lat="28.31118" lon="-14.09414">
        <ele>262.6</ele>
        <time>2021-07-05 12:57:15</time>
      </trkpt>
      <trkpt lat="28.31119" lon="-14.09416">
        <ele>262.6</ele>
        <time>2021-07-05 12:57:16</time>
      </trkpt>
      <trkpt lat="28.31119" lon="-14.09418">
        <ele>262.6</ele>
        <time>2021-07-05 12:57:17</time>
      </trkpt>
      <trkpt lat="28.3112" lon="-14.09421">
        <ele>262.8</ele>
        <time>2021-07-05 12:57:18</time>
      </trkpt>
      <trkpt lat="28.3112" lon="-14.09423">
        <ele>262.8</ele>
        <time>2021-07-05 12:57:19</time>
      </trkpt>
      <trkpt lat="28.3112" lon="-14.09425">
        <ele>263.2</ele>
        <time>2021-07-05 12:57:20</time>
      </trkpt>
      <trkpt lat="28.3112" lon="-14.09427">
        <ele>263.4</ele>
        <time>2021-07-05 12:57:21</time>
      </trkpt>
      <trkpt lat="28.31121" lon="-14.09429">
        <ele>263.8</ele>
        <time>2021-07-05 12:57:22</time>
      </trkpt>
      <trkpt lat="28.31121" lon="-14.09431">
        <ele>263.8</ele>
        <time>2021-07-05 12:57:23</time>
      </trkpt>
      <trkpt lat="28.31121" lon="-14.09433">
        <ele>264</ele>
        <time>2021-07-05 12:57:24</time>
      </trkpt>
      <trkpt lat="28.31122" lon="-14.09435">
        <ele>264</ele>
        <time>2021-07-05 12:57:25</time>
      </trkpt>
      <trkpt lat="28.31122" lon="-14.09437">
        <ele>264.6</ele>
        <time>2021-07-05 12:57:26</time>
      </trkpt>
      <trkpt lat="28.31122" lon="-14.09439">
        <ele>264.6</ele>
        <time>2021-07-05 12:57:27</time>
      </trkpt>
      <trkpt lat="28.31122" lon="-14.09442">
        <ele>264.8</ele>
        <time>2021-07-05 12:57:28</time>
      </trkpt>
      <trkpt lat="28.31122" lon="-14.09444">
        <ele>264.8</ele>
        <time>2021-07-05 12:57:29</time>
      </trkpt>
      <trkpt lat="28.31122" lon="-14.09446">
        <ele>265</ele>
        <time>2021-07-05 12:57:30</time>
      </trkpt>
      <trkpt lat="28.31122" lon="-14.09448">
        <ele>265.4</ele>
        <time>2021-07-05 12:57:31</time>
      </trkpt>
      <trkpt lat="28.31121" lon="-14.0945">
        <ele>265.4</ele>
        <time>2021-07-05 12:57:32</time>
      </trkpt>
      <trkpt lat="28.31121" lon="-14.09452">
        <ele>265.6</ele>
        <time>2021-07-05 12:57:33</time>
      </trkpt>
      <trkpt lat="28.31121" lon="-14.09454">
        <ele>265.8</ele>
        <time>2021-07-05 12:57:34</time>
      </trkpt>
      <trkpt lat="28.3112" lon="-14.09456">
        <ele>265.8</ele>
        <time>2021-07-05 12:57:35</time>
      </trkpt>
      <trkpt lat="28.31119" lon="-14.09458">
        <ele>266.2</ele>
        <time>2021-07-05 12:57:36</time>
      </trkpt>
      <trkpt lat="28.31119" lon="-14.0946">
        <ele>266.2</ele>
        <time>2021-07-05 12:57:37</time>
      </trkpt>
      <trkpt lat="28.31118" lon="-14.09462">
        <ele>266.2</ele>
        <time>2021-07-05 12:57:38</time>
      </trkpt>
      <trkpt lat="28.31118" lon="-14.09465">
        <ele>266.4</ele>
        <time>2021-07-05 12:57:39</time>
      </trkpt>
      <trkpt lat="28.31118" lon="-14.09467">
        <ele>266.8</ele>
        <time>2021-07-05 12:57:40</time>
      </trkpt>
      <trkpt lat="28.31118" lon="-14.09469">
        <ele>266.8</ele>
        <time>2021-07-05 12:57:41</time>
      </trkpt>
      <trkpt lat="28.31117" lon="-14.09471">
        <ele>267</ele>
        <time>2021-07-05 12:57:42</time>
      </trkpt>
      <trkpt lat="28.31116" lon="-14.09473">
        <ele>267.2</ele>
        <time>2021-07-05 12:57:43</time>
      </trkpt>
      <trkpt lat="28.31115" lon="-14.09475">
        <ele>267.2</ele>
        <time>2021-07-05 12:57:44</time>
      </trkpt>
      <trkpt lat="28.31115" lon="-14.09477">
        <ele>267.2</ele>
        <time>2021-07-05 12:57:45</time>
      </trkpt>
      <trkpt lat="28.31113" lon="-14.0948">
        <ele>267.2</ele>
        <time>2021-07-05 12:57:46</time>
      </trkpt>
      <trkpt lat="28.31112" lon="-14.09482">
        <ele>267.2</ele>
        <time>2021-07-05 12:57:47</time>
      </trkpt>
      <trkpt lat="28.31111" lon="-14.09485">
        <ele>267.6</ele>
        <time>2021-07-05 12:57:48</time>
      </trkpt>
      <trkpt lat="28.3111" lon="-14.09488">
        <ele>267.6</ele>
        <time>2021-07-05 12:57:49</time>
      </trkpt>
      <trkpt lat="28.31109" lon="-14.0949">
        <ele>267.8</ele>
        <time>2021-07-05 12:57:50</time>
      </trkpt>
      <trkpt lat="28.31107" lon="-14.09493">
        <ele>267.8</ele>
        <time>2021-07-05 12:57:51</time>
      </trkpt>
      <trkpt lat="28.31106" lon="-14.09497">
        <ele>267.8</ele>
        <time>2021-07-05 12:57:52</time>
      </trkpt>
      <trkpt lat="28.31105" lon="-14.09501">
        <ele>267.8</ele>
        <time>2021-07-05 12:57:53</time>
      </trkpt>
      <trkpt lat="28.31104" lon="-14.09505">
        <ele>267.8</ele>
        <time>2021-07-05 12:57:54</time>
      </trkpt>
      <trkpt lat="28.31103" lon="-14.0951">
        <ele>267.2</ele>
        <time>2021-07-05 12:57:55</time>
      </trkpt>
      <trkpt lat="28.31102" lon="-14.09515">
        <ele>267.2</ele>
        <time>2021-07-05 12:57:56</time>
      </trkpt>
      <trkpt lat="28.311" lon="-14.09521">
        <ele>267</ele>
        <time>2021-07-05 12:57:57</time>
      </trkpt>
      <trkpt lat="28.31098" lon="-14.09528">
        <ele>266.6</ele>
        <time>2021-07-05 12:57:58</time>
      </trkpt>
      <trkpt lat="28.31096" lon="-14.09535">
        <ele>266.2</ele>
        <time>2021-07-05 12:57:59</time>
      </trkpt>
      <trkpt lat="28.31094" lon="-14.09543">
        <ele>265.6</ele>
        <time>2021-07-05 12:58:00</time>
      </trkpt>
      <trkpt lat="28.31092" lon="-14.09552">
        <ele>265.2</ele>
        <time>2021-07-05 12:58:01</time>
      </trkpt>
      <trkpt lat="28.31088" lon="-14.0956">
        <ele>264.8</ele>
        <time>2021-07-05 12:58:02</time>
      </trkpt>
      <trkpt lat="28.31086" lon="-14.0957">
        <ele>263.6</ele>
        <time>2021-07-05 12:58:03</time>
      </trkpt>
      <trkpt lat="28.31084" lon="-14.09578">
        <ele>263.2</ele>
        <time>2021-07-05 12:58:04</time>
      </trkpt>
      <trkpt lat="28.31081" lon="-14.09586">
        <ele>263.2</ele>
        <time>2021-07-05 12:58:05</time>
      </trkpt>
      <trkpt lat="28.31079" lon="-14.09592">
        <ele>263</ele>
        <time>2021-07-05 12:58:06</time>
      </trkpt>
      <trkpt lat="28.31077" lon="-14.09599">
        <ele>262.6</ele>
        <time>2021-07-05 12:58:07</time>
      </trkpt>
      <trkpt lat="28.31074" lon="-14.09605">
        <ele>262.2</ele>
        <time>2021-07-05 12:58:08</time>
      </trkpt>
      <trkpt lat="28.31072" lon="-14.09611">
        <ele>261.8</ele>
        <time>2021-07-05 12:58:09</time>
      </trkpt>
      <trkpt lat="28.31071" lon="-14.09616">
        <ele>261.2</ele>
        <time>2021-07-05 12:58:10</time>
      </trkpt>
      <trkpt lat="28.31071" lon="-14.09621">
        <ele>260.4</ele>
        <time>2021-07-05 12:58:11</time>
      </trkpt>
      <trkpt lat="28.31071" lon="-14.09625">
        <ele>260.4</ele>
        <time>2021-07-05 12:58:12</time>
      </trkpt>
      <trkpt lat="28.31072" lon="-14.09631">
        <ele>260.2</ele>
        <time>2021-07-05 12:58:13</time>
      </trkpt>
      <trkpt lat="28.31074" lon="-14.09635">
        <ele>260</ele>
        <time>2021-07-05 12:58:14</time>
      </trkpt>
      <trkpt lat="28.31076" lon="-14.09639">
        <ele>259.6</ele>
        <time>2021-07-05 12:58:15</time>
      </trkpt>
      <trkpt lat="28.31077" lon="-14.09643">
        <ele>259.2</ele>
        <time>2021-07-05 12:58:16</time>
      </trkpt>
      <trkpt lat="28.31076" lon="-14.09645">
        <ele>259</ele>
        <time>2021-07-05 12:58:17</time>
      </trkpt>
      <trkpt lat="28.31074" lon="-14.09646">
        <ele>258.4</ele>
        <time>2021-07-05 12:58:18</time>
      </trkpt>
      <trkpt lat="28.31072" lon="-14.09646">
        <ele>257.8</ele>
        <time>2021-07-05 12:58:19</time>
      </trkpt>
      <trkpt lat="28.3107" lon="-14.09644">
        <ele>257.8</ele>
        <time>2021-07-05 12:58:20</time>
      </trkpt>
      <trkpt lat="28.31067" lon="-14.09641">
        <ele>257.2</ele>
        <time>2021-07-05 12:58:21</time>
      </trkpt>
      <trkpt lat="28.31064" lon="-14.09639">
        <ele>256.6</ele>
        <time>2021-07-05 12:58:22</time>
      </trkpt>
      <trkpt lat="28.31061" lon="-14.09636">
        <ele>256.2</ele>
        <time>2021-07-05 12:58:23</time>
      </trkpt>
      <trkpt lat="28.31058" lon="-14.09633">
        <ele>255.8</ele>
        <time>2021-07-05 12:58:24</time>
      </trkpt>
      <trkpt lat="28.31056" lon="-14.0963">
        <ele>255.2</ele>
        <time>2021-07-05 12:58:25</time>
      </trkpt>
      <trkpt lat="28.31053" lon="-14.09626">
        <ele>255</ele>
        <time>2021-07-05 12:58:26</time>
      </trkpt>
      <trkpt lat="28.3105" lon="-14.09623">
        <ele>254.2</ele>
        <time>2021-07-05 12:58:27</time>
      </trkpt>
      <trkpt lat="28.31049" lon="-14.09621">
        <ele>254.2</ele>
        <time>2021-07-05 12:58:28</time>
      </trkpt>
      <trkpt lat="28.31048" lon="-14.0962">
        <ele>254</ele>
        <time>2021-07-05 12:58:29</time>
      </trkpt>
      <trkpt lat="28.31047" lon="-14.09619">
        <ele>253.4</ele>
        <time>2021-07-05 12:58:30</time>
      </trkpt>
      <trkpt lat="28.31047" lon="-14.09617">
        <ele>253.4</ele>
        <time>2021-07-05 12:58:31</time>
      </trkpt>
      <trkpt lat="28.31048" lon="-14.09616">
        <ele>253.4</ele>
        <time>2021-07-05 12:58:32</time>
      </trkpt>
      <trkpt lat="28.3105" lon="-14.09617">
        <ele>253.2</ele>
        <time>2021-07-05 12:58:33</time>
      </trkpt>
      <trkpt lat="28.31051" lon="-14.09619">
        <ele>253.2</ele>
        <time>2021-07-05 12:58:34</time>
      </trkpt>
      <trkpt lat="28.31052" lon="-14.09622">
        <ele>252.8</ele>
        <time>2021-07-05 12:58:35</time>
      </trkpt>
      <trkpt lat="28.31054" lon="-14.09625">
        <ele>252.8</ele>
        <time>2021-07-05 12:58:36</time>
      </trkpt>
      <trkpt lat="28.31056" lon="-14.09627">
        <ele>252.6</ele>
        <time>2021-07-05 12:58:37</time>
      </trkpt>
      <trkpt lat="28.31058" lon="-14.09629">
        <ele>252.6</ele>
        <time>2021-07-05 12:58:38</time>
      </trkpt>
      <trkpt lat="28.3106" lon="-14.09632">
        <ele>252.6</ele>
        <time>2021-07-05 12:58:39</time>
      </trkpt>
      <trkpt lat="28.31062" lon="-14.09634">
        <ele>252.6</ele>
        <time>2021-07-05 12:58:40</time>
      </trkpt>
      <trkpt lat="28.31064" lon="-14.09636">
        <ele>253</ele>
        <time>2021-07-05 12:58:41</time>
      </trkpt>
      <trkpt lat="28.31066" lon="-14.09638">
        <ele>253.2</ele>
        <time>2021-07-05 12:58:42</time>
      </trkpt>
      <trkpt lat="28.31068" lon="-14.0964">
        <ele>253.6</ele>
        <time>2021-07-05 12:58:43</time>
      </trkpt>
      <trkpt lat="28.3107" lon="-14.09642">
        <ele>253.6</ele>
        <time>2021-07-05 12:58:44</time>
      </trkpt>
      <trkpt lat="28.31072" lon="-14.09643">
        <ele>254</ele>
        <time>2021-07-05 12:58:45</time>
      </trkpt>
      <trkpt lat="28.31074" lon="-14.09645">
        <ele>254.2</ele>
        <time>2021-07-05 12:58:46</time>
      </trkpt>
      <trkpt lat="28.31076" lon="-14.09647">
        <ele>254.2</ele>
        <time>2021-07-05 12:58:47</time>
      </trkpt>
      <trkpt lat="28.31077" lon="-14.09648">
        <ele>254.6</ele>
        <time>2021-07-05 12:58:48</time>
      </trkpt>
      <trkpt lat="28.31079" lon="-14.0965">
        <ele>254.6</ele>
        <time>2021-07-05 12:58:49</time>
      </trkpt>
      <trkpt lat="28.31081" lon="-14.09653">
        <ele>255</ele>
        <time>2021-07-05 12:58:50</time>
      </trkpt>
      <trkpt lat="28.31083" lon="-14.09655">
        <ele>255.2</ele>
        <time>2021-07-05 12:58:51</time>
      </trkpt>
      <trkpt lat="28.31084" lon="-14.09658">
        <ele>255.4</ele>
        <time>2021-07-05 12:58:52</time>
      </trkpt>
      <trkpt lat="28.31085" lon="-14.09661">
        <ele>255.4</ele>
        <time>2021-07-05 12:58:53</time>
      </trkpt>
      <trkpt lat="28.31086" lon="-14.09665">
        <ele>255.8</ele>
        <time>2021-07-05 12:58:54</time>
      </trkpt>
      <trkpt lat="28.31087" lon="-14.09668">
        <ele>255.8</ele>
        <time>2021-07-05 12:58:55</time>
      </trkpt>
      <trkpt lat="28.31088" lon="-14.09671">
        <ele>256</ele>
        <time>2021-07-05 12:58:56</time>
      </trkpt>
      <trkpt lat="28.31088" lon="-14.09675">
        <ele>256</ele>
        <time>2021-07-05 12:58:57</time>
      </trkpt>
      <trkpt lat="28.31089" lon="-14.09678">
        <ele>256.4</ele>
        <time>2021-07-05 12:58:58</time>
      </trkpt>
      <trkpt lat="28.31089" lon="-14.09682">
        <ele>256.4</ele>
        <time>2021-07-05 12:58:59</time>
      </trkpt>
      <trkpt lat="28.31089" lon="-14.09685">
        <ele>256.4</ele>
        <time>2021-07-05 12:59:00</time>
      </trkpt>
      <trkpt lat="28.31089" lon="-14.09688">
        <ele>256.6</ele>
        <time>2021-07-05 12:59:01</time>
      </trkpt>
      <trkpt lat="28.31089" lon="-14.09692">
        <ele>256.6</ele>
        <time>2021-07-05 12:59:02</time>
      </trkpt>
      <trkpt lat="28.31089" lon="-14.09695">
        <ele>256.6</ele>
        <time>2021-07-05 12:59:03</time>
      </trkpt>
      <trkpt lat="28.31088" lon="-14.09698">
        <ele>256.6</ele>
        <time>2021-07-05 12:59:04</time>
      </trkpt>
      <trkpt lat="28.31088" lon="-14.09701">
        <ele>256.6</ele>
        <time>2021-07-05 12:59:05</time>
      </trkpt>
      <trkpt lat="28.31088" lon="-14.09704">
        <ele>256.8</ele>
        <time>2021-07-05 12:59:06</time>
      </trkpt>
      <trkpt lat="28.31088" lon="-14.09708">
        <ele>256.8</ele>
        <time>2021-07-05 12:59:07</time>
      </trkpt>
      <trkpt lat="28.31087" lon="-14.09711">
        <ele>257</ele>
        <time>2021-07-05 12:59:08</time>
      </trkpt>
      <trkpt lat="28.31085" lon="-14.09713">
        <ele>257</ele>
        <time>2021-07-05 12:59:09</time>
      </trkpt>
      <trkpt lat="28.31082" lon="-14.09715">
        <ele>257</ele>
        <time>2021-07-05 12:59:10</time>
      </trkpt>
      <trkpt lat="28.31079" lon="-14.09716">
        <ele>257</ele>
        <time>2021-07-05 12:59:11</time>
      </trkpt>
      <trkpt lat="28.31076" lon="-14.09716">
        <ele>257.2</ele>
        <time>2021-07-05 12:59:12</time>
      </trkpt>
      <trkpt lat="28.31072" lon="-14.09716">
        <ele>257.2</ele>
        <time>2021-07-05 12:59:13</time>
      </trkpt>
      <trkpt lat="28.31069" lon="-14.09715">
        <ele>257.2</ele>
        <time>2021-07-05 12:59:14</time>
      </trkpt>
      <trkpt lat="28.31066" lon="-14.09714">
        <ele>257.6</ele>
        <time>2021-07-05 12:59:15</time>
      </trkpt>
      <trkpt lat="28.31063" lon="-14.09713">
        <ele>257.6</ele>
        <time>2021-07-05 12:59:16</time>
      </trkpt>
      <trkpt lat="28.3106" lon="-14.09713">
        <ele>257.6</ele>
        <time>2021-07-05 12:59:17</time>
      </trkpt>
      <trkpt lat="28.31057" lon="-14.09712">
        <ele>257.8</ele>
        <time>2021-07-05 12:59:18</time>
      </trkpt>
      <trkpt lat="28.31054" lon="-14.09712">
        <ele>257.8</ele>
        <time>2021-07-05 12:59:19</time>
      </trkpt>
      <trkpt lat="28.31051" lon="-14.09712">
        <ele>257.8</ele>
        <time>2021-07-05 12:59:20</time>
      </trkpt>
      <trkpt lat="28.31048" lon="-14.09711">
        <ele>257.8</ele>
        <time>2021-07-05 12:59:21</time>
      </trkpt>
      <trkpt lat="28.31045" lon="-14.09711">
        <ele>257.8</ele>
        <time>2021-07-05 12:59:22</time>
      </trkpt>
      <trkpt lat="28.31042" lon="-14.09711">
        <ele>257.8</ele>
        <time>2021-07-05 12:59:23</time>
      </trkpt>
      <trkpt lat="28.31039" lon="-14.09711">
        <ele>258</ele>
        <time>2021-07-05 12:59:24</time>
      </trkpt>
      <trkpt lat="28.31035" lon="-14.09711">
        <ele>258</ele>
        <time>2021-07-05 12:59:25</time>
      </trkpt>
      <trkpt lat="28.31032" lon="-14.09711">
        <ele>258</ele>
        <time>2021-07-05 12:59:26</time>
      </trkpt>
      <trkpt lat="28.31029" lon="-14.09712">
        <ele>258</ele>
        <time>2021-07-05 12:59:27</time>
      </trkpt>
      <trkpt lat="28.31026" lon="-14.09713">
        <ele>258</ele>
        <time>2021-07-05 12:59:28</time>
      </trkpt>
      <trkpt lat="28.31023" lon="-14.09714">
        <ele>258</ele>
        <time>2021-07-05 12:59:29</time>
      </trkpt>
      <trkpt lat="28.3102" lon="-14.09714">
        <ele>258.2</ele>
        <time>2021-07-05 12:59:30</time>
      </trkpt>
      <trkpt lat="28.31016" lon="-14.09715">
        <ele>258.2</ele>
        <time>2021-07-05 12:59:31</time>
      </trkpt>
      <trkpt lat="28.31013" lon="-14.09717">
        <ele>258.2</ele>
        <time>2021-07-05 12:59:32</time>
      </trkpt>
      <trkpt lat="28.3101" lon="-14.09718">
        <ele>258.2</ele>
        <time>2021-07-05 12:59:33</time>
      </trkpt>
      <trkpt lat="28.31007" lon="-14.09719">
        <ele>258.2</ele>
        <time>2021-07-05 12:59:34</time>
      </trkpt>
      <trkpt lat="28.31003" lon="-14.09721">
        <ele>258.2</ele>
        <time>2021-07-05 12:59:35</time>
      </trkpt>
      <trkpt lat="28.31" lon="-14.09723">
        <ele>258.6</ele>
        <time>2021-07-05 12:59:36</time>
      </trkpt>
      <trkpt lat="28.30997" lon="-14.09725">
        <ele>258.6</ele>
        <time>2021-07-05 12:59:37</time>
      </trkpt>
      <trkpt lat="28.30994" lon="-14.09728">
        <ele>258.6</ele>
        <time>2021-07-05 12:59:38</time>
      </trkpt>
      <trkpt lat="28.3099" lon="-14.0973">
        <ele>258.6</ele>
        <time>2021-07-05 12:59:39</time>
      </trkpt>
      <trkpt lat="28.30987" lon="-14.09733">
        <ele>258.6</ele>
        <time>2021-07-05 12:59:40</time>
      </trkpt>
      <trkpt lat="28.30983" lon="-14.09736">
        <ele>258.6</ele>
        <time>2021-07-05 12:59:41</time>
      </trkpt>
      <trkpt lat="28.30979" lon="-14.09739">
        <ele>258.6</ele>
        <time>2021-07-05 12:59:42</time>
      </trkpt>
      <trkpt lat="28.30974" lon="-14.09741">
        <ele>258.6</ele>
        <time>2021-07-05 12:59:43</time>
      </trkpt>
      <trkpt lat="28.30969" lon="-14.09743">
        <ele>258.6</ele>
        <time>2021-07-05 12:59:44</time>
      </trkpt>
      <trkpt lat="28.30963" lon="-14.09746">
        <ele>258.6</ele>
        <time>2021-07-05 12:59:45</time>
      </trkpt>
      <trkpt lat="28.30956" lon="-14.09747">
        <ele>258</ele>
        <time>2021-07-05 12:59:46</time>
      </trkpt>
      <trkpt lat="28.30949" lon="-14.09749">
        <ele>257.6</ele>
        <time>2021-07-05 12:59:47</time>
      </trkpt>
      <trkpt lat="28.30941" lon="-14.09752">
        <ele>257</ele>
        <time>2021-07-05 12:59:48</time>
      </trkpt>
      <trkpt lat="28.30933" lon="-14.09754">
        <ele>257</ele>
        <time>2021-07-05 12:59:49</time>
      </trkpt>
      <trkpt lat="28.30925" lon="-14.09757">
        <ele>256.4</ele>
        <time>2021-07-05 12:59:50</time>
      </trkpt>
      <trkpt lat="28.30917" lon="-14.09762">
        <ele>256</ele>
        <time>2021-07-05 12:59:51</time>
      </trkpt>
      <trkpt lat="28.30908" lon="-14.09765">
        <ele>255</ele>
        <time>2021-07-05 12:59:52</time>
      </trkpt>
      <trkpt lat="28.30899" lon="-14.09768">
        <ele>255</ele>
        <time>2021-07-05 12:59:53</time>
      </trkpt>
      <trkpt lat="28.30891" lon="-14.09767">
        <ele>254.6</ele>
        <time>2021-07-05 12:59:54</time>
      </trkpt>
      <trkpt lat="28.30883" lon="-14.0977">
        <ele>254.4</ele>
        <time>2021-07-05 12:59:55</time>
      </trkpt>
      <trkpt lat="28.30876" lon="-14.09773">
        <ele>254.4</ele>
        <time>2021-07-05 12:59:56</time>
      </trkpt>
      <trkpt lat="28.3087" lon="-14.09776">
        <ele>254.2</ele>
        <time>2021-07-05 12:59:57</time>
      </trkpt>
      <trkpt lat="28.30865" lon="-14.09779">
        <ele>254.2</ele>
        <time>2021-07-05 12:59:58</time>
      </trkpt>
      <trkpt lat="28.3086" lon="-14.09782">
        <ele>254.2</ele>
        <time>2021-07-05 12:59:59</time>
      </trkpt>
      <trkpt lat="28.30855" lon="-14.09786">
        <ele>254.2</ele>
        <time>2021-07-05 13:00:00</time>
      </trkpt>
      <trkpt lat="28.3085" lon="-14.09789">
        <ele>254.2</ele>
        <time>2021-07-05 13:00:01</time>
      </trkpt>
      <trkpt lat="28.30846" lon="-14.09791">
        <ele>254.4</ele>
        <time>2021-07-05 13:00:02</time>
      </trkpt>
      <trkpt lat="28.30842" lon="-14.09794">
        <ele>254.4</ele>
        <time>2021-07-05 13:00:03</time>
      </trkpt>
      <trkpt lat="28.30837" lon="-14.09795">
        <ele>254.8</ele>
        <time>2021-07-05 13:00:04</time>
      </trkpt>
      <trkpt lat="28.30833" lon="-14.09797">
        <ele>254.8</ele>
        <time>2021-07-05 13:00:05</time>
      </trkpt>
      <trkpt lat="28.3083" lon="-14.09799">
        <ele>255.2</ele>
        <time>2021-07-05 13:00:06</time>
      </trkpt>
      <trkpt lat="28.30827" lon="-14.09801">
        <ele>255.2</ele>
        <time>2021-07-05 13:00:07</time>
      </trkpt>
      <trkpt lat="28.30824" lon="-14.09803">
        <ele>255.6</ele>
        <time>2021-07-05 13:00:08</time>
      </trkpt>
      <trkpt lat="28.30821" lon="-14.09804">
        <ele>255.8</ele>
        <time>2021-07-05 13:00:09</time>
      </trkpt>
      <trkpt lat="28.30819" lon="-14.09805">
        <ele>256</ele>
        <time>2021-07-05 13:00:10</time>
      </trkpt>
      <trkpt lat="28.30816" lon="-14.09807">
        <ele>256.2</ele>
        <time>2021-07-05 13:00:11</time>
      </trkpt>
      <trkpt lat="28.30813" lon="-14.09809">
        <ele>256.4</ele>
        <time>2021-07-05 13:00:12</time>
      </trkpt>
      <trkpt lat="28.30811" lon="-14.09811">
        <ele>256.4</ele>
        <time>2021-07-05 13:00:13</time>
      </trkpt>
      <trkpt lat="28.30808" lon="-14.09812">
        <ele>257</ele>
        <time>2021-07-05 13:00:14</time>
      </trkpt>
      <trkpt lat="28.30805" lon="-14.09813">
        <ele>257</ele>
        <time>2021-07-05 13:00:15</time>
      </trkpt>
      <trkpt lat="28.30803" lon="-14.09815">
        <ele>257.2</ele>
        <time>2021-07-05 13:00:16</time>
      </trkpt>
      <trkpt lat="28.308" lon="-14.09816">
        <ele>257.8</ele>
        <time>2021-07-05 13:00:17</time>
      </trkpt>
      <trkpt lat="28.30798" lon="-14.09818">
        <ele>257.8</ele>
        <time>2021-07-05 13:00:18</time>
      </trkpt>
      <trkpt lat="28.30796" lon="-14.0982">
        <ele>258.2</ele>
        <time>2021-07-05 13:00:19</time>
      </trkpt>
      <trkpt lat="28.30793" lon="-14.09821">
        <ele>258.2</ele>
        <time>2021-07-05 13:00:20</time>
      </trkpt>
      <trkpt lat="28.30791" lon="-14.09822">
        <ele>258.6</ele>
        <time>2021-07-05 13:00:21</time>
      </trkpt>
      <trkpt lat="28.30789" lon="-14.09823">
        <ele>258.8</ele>
        <time>2021-07-05 13:00:22</time>
      </trkpt>
      <trkpt lat="28.30786" lon="-14.09824">
        <ele>259</ele>
        <time>2021-07-05 13:00:23</time>
      </trkpt>
      <trkpt lat="28.30784" lon="-14.09826">
        <ele>259</ele>
        <time>2021-07-05 13:00:24</time>
      </trkpt>
      <trkpt lat="28.30781" lon="-14.09827">
        <ele>259.4</ele>
        <time>2021-07-05 13:00:25</time>
      </trkpt>
      <trkpt lat="28.30779" lon="-14.09829">
        <ele>259.4</ele>
        <time>2021-07-05 13:00:26</time>
      </trkpt>
      <trkpt lat="28.30776" lon="-14.0983">
        <ele>259.8</ele>
        <time>2021-07-05 13:00:27</time>
      </trkpt>
      <trkpt lat="28.30774" lon="-14.09832">
        <ele>259.8</ele>
        <time>2021-07-05 13:00:28</time>
      </trkpt>
      <trkpt lat="28.30771" lon="-14.09833">
        <ele>260</ele>
        <time>2021-07-05 13:00:29</time>
      </trkpt>
      <trkpt lat="28.30769" lon="-14.09835">
        <ele>260</ele>
        <time>2021-07-05 13:00:30</time>
      </trkpt>
      <trkpt lat="28.30767" lon="-14.09836">
        <ele>260</ele>
        <time>2021-07-05 13:00:31</time>
      </trkpt>
      <trkpt lat="28.30764" lon="-14.09838">
        <ele>260.4</ele>
        <time>2021-07-05 13:00:32</time>
      </trkpt>
      <trkpt lat="28.30762" lon="-14.09839">
        <ele>260.4</ele>
        <time>2021-07-05 13:00:33</time>
      </trkpt>
      <trkpt lat="28.3076" lon="-14.09841">
        <ele>260.8</ele>
        <time>2021-07-05 13:00:34</time>
      </trkpt>
      <trkpt lat="28.30757" lon="-14.09843">
        <ele>261</ele>
        <time>2021-07-05 13:00:35</time>
      </trkpt>
      <trkpt lat="28.30755" lon="-14.09844">
        <ele>261.2</ele>
        <time>2021-07-05 13:00:36</time>
      </trkpt>
      <trkpt lat="28.30753" lon="-14.09846">
        <ele>261.2</ele>
        <time>2021-07-05 13:00:37</time>
      </trkpt>
      <trkpt lat="28.30751" lon="-14.09847">
        <ele>261.6</ele>
        <time>2021-07-05 13:00:38</time>
      </trkpt>
      <trkpt lat="28.30748" lon="-14.09849">
        <ele>261.6</ele>
        <time>2021-07-05 13:00:39</time>
      </trkpt>
      <trkpt lat="28.30745" lon="-14.0985">
        <ele>261.6</ele>
        <time>2021-07-05 13:00:40</time>
      </trkpt>
      <trkpt lat="28.30743" lon="-14.0985">
        <ele>261.8</ele>
        <time>2021-07-05 13:00:41</time>
      </trkpt>
      <trkpt lat="28.3074" lon="-14.09851">
        <ele>261.8</ele>
        <time>2021-07-05 13:00:42</time>
      </trkpt>
      <trkpt lat="28.30737" lon="-14.09852">
        <ele>261.8</ele>
        <time>2021-07-05 13:00:43</time>
      </trkpt>
      <trkpt lat="28.30735" lon="-14.09852">
        <ele>262.2</ele>
        <time>2021-07-05 13:00:44</time>
      </trkpt>
      <trkpt lat="28.30732" lon="-14.09852">
        <ele>262.6</ele>
        <time>2021-07-05 13:00:45</time>
      </trkpt>
      <trkpt lat="28.3073" lon="-14.09852">
        <ele>262.8</ele>
        <time>2021-07-05 13:00:46</time>
      </trkpt>
      <trkpt lat="28.30727" lon="-14.09851">
        <ele>263</ele>
        <time>2021-07-05 13:00:47</time>
      </trkpt>
      <trkpt lat="28.30726" lon="-14.09851">
        <ele>263.2</ele>
        <time>2021-07-05 13:00:48</time>
      </trkpt>
      <trkpt lat="28.30724" lon="-14.0985">
        <ele>263.2</ele>
        <time>2021-07-05 13:00:49</time>
      </trkpt>
      <trkpt lat="28.30722" lon="-14.0985">
        <ele>263.8</ele>
        <time>2021-07-05 13:00:50</time>
      </trkpt>
      <trkpt lat="28.3072" lon="-14.09849">
        <ele>263.8</ele>
        <time>2021-07-05 13:00:51</time>
      </trkpt>
      <trkpt lat="28.30719" lon="-14.09848">
        <ele>264</ele>
        <time>2021-07-05 13:00:52</time>
      </trkpt>
      <trkpt lat="28.30717" lon="-14.09847">
        <ele>264.4</ele>
        <time>2021-07-05 13:00:53</time>
      </trkpt>
      <trkpt lat="28.30716" lon="-14.09846">
        <ele>264.6</ele>
        <time>2021-07-05 13:00:54</time>
      </trkpt>
      <trkpt lat="28.30714" lon="-14.09845">
        <ele>265.2</ele>
        <time>2021-07-05 13:00:55</time>
      </trkpt>
      <trkpt lat="28.30712" lon="-14.09844">
        <ele>265.2</ele>
        <time>2021-07-05 13:00:56</time>
      </trkpt>
      <trkpt lat="28.30711" lon="-14.09844">
        <ele>266</ele>
        <time>2021-07-05 13:00:57</time>
      </trkpt>
      <trkpt lat="28.30709" lon="-14.09843">
        <ele>266</ele>
        <time>2021-07-05 13:00:58</time>
      </trkpt>
      <trkpt lat="28.30707" lon="-14.09843">
        <ele>266.2</ele>
        <time>2021-07-05 13:00:59</time>
      </trkpt>
      <trkpt lat="28.30705" lon="-14.09843">
        <ele>266.6</ele>
        <time>2021-07-05 13:01:00</time>
      </trkpt>
      <trkpt lat="28.30703" lon="-14.09843">
        <ele>266.8</ele>
        <time>2021-07-05 13:01:01</time>
      </trkpt>
      <trkpt lat="28.30701" lon="-14.09843">
        <ele>267.2</ele>
        <time>2021-07-05 13:01:02</time>
      </trkpt>
      <trkpt lat="28.307" lon="-14.09842">
        <ele>267.8</ele>
        <time>2021-07-05 13:01:03</time>
      </trkpt>
      <trkpt lat="28.30698" lon="-14.09843">
        <ele>268.2</ele>
        <time>2021-07-05 13:01:04</time>
      </trkpt>
      <trkpt lat="28.30696" lon="-14.09843">
        <ele>268.2</ele>
        <time>2021-07-05 13:01:05</time>
      </trkpt>
      <trkpt lat="28.30694" lon="-14.09844">
        <ele>268.4</ele>
        <time>2021-07-05 13:01:06</time>
      </trkpt>
      <trkpt lat="28.30693" lon="-14.09844">
        <ele>268.6</ele>
        <time>2021-07-05 13:01:07</time>
      </trkpt>
      <trkpt lat="28.30691" lon="-14.09845">
        <ele>269</ele>
        <time>2021-07-05 13:01:08</time>
      </trkpt>
      <trkpt lat="28.30689" lon="-14.09845">
        <ele>269.2</ele>
        <time>2021-07-05 13:01:09</time>
      </trkpt>
      <trkpt lat="28.30687" lon="-14.09846">
        <ele>270</ele>
        <time>2021-07-05 13:01:10</time>
      </trkpt>
      <trkpt lat="28.30686" lon="-14.09847">
        <ele>270</ele>
        <time>2021-07-05 13:01:11</time>
      </trkpt>
      <trkpt lat="28.30684" lon="-14.09848">
        <ele>270.8</ele>
        <time>2021-07-05 13:01:12</time>
      </trkpt>
      <trkpt lat="28.30683" lon="-14.09849">
        <ele>271</ele>
        <time>2021-07-05 13:01:13</time>
      </trkpt>
      <trkpt lat="28.30681" lon="-14.0985">
        <ele>271</ele>
        <time>2021-07-05 13:01:14</time>
      </trkpt>
      <trkpt lat="28.3068" lon="-14.09851">
        <ele>271.6</ele>
        <time>2021-07-05 13:01:15</time>
      </trkpt>
      <trkpt lat="28.30679" lon="-14.09852">
        <ele>271.6</ele>
        <time>2021-07-05 13:01:16</time>
      </trkpt>
      <trkpt lat="28.30677" lon="-14.09853">
        <ele>272</ele>
        <time>2021-07-05 13:01:17</time>
      </trkpt>
      <trkpt lat="28.30676" lon="-14.09854">
        <ele>272.4</ele>
        <time>2021-07-05 13:01:18</time>
      </trkpt>
      <trkpt lat="28.30675" lon="-14.09856">
        <ele>272.6</ele>
        <time>2021-07-05 13:01:19</time>
      </trkpt>
      <trkpt lat="28.30673" lon="-14.09858">
        <ele>273.2</ele>
        <time>2021-07-05 13:01:20</time>
      </trkpt>
      <trkpt lat="28.30673" lon="-14.09859">
        <ele>273.4</ele>
        <time>2021-07-05 13:01:21</time>
      </trkpt>
      <trkpt lat="28.30671" lon="-14.0986">
        <ele>273.6</ele>
        <time>2021-07-05 13:01:22</time>
      </trkpt>
      <trkpt lat="28.3067" lon="-14.09862">
        <ele>274</ele>
        <time>2021-07-05 13:01:23</time>
      </trkpt>
      <trkpt lat="28.30669" lon="-14.09864">
        <ele>274.2</ele>
        <time>2021-07-05 13:01:24</time>
      </trkpt>
      <trkpt lat="28.30668" lon="-14.09866">
        <ele>274.2</ele>
        <time>2021-07-05 13:01:25</time>
      </trkpt>
      <trkpt lat="28.30667" lon="-14.09868">
        <ele>274.4</ele>
        <time>2021-07-05 13:01:26</time>
      </trkpt>
      <trkpt lat="28.30665" lon="-14.0987">
        <ele>274.4</ele>
        <time>2021-07-05 13:01:27</time>
      </trkpt>
      <trkpt lat="28.30664" lon="-14.09872">
        <ele>274.4</ele>
        <time>2021-07-05 13:01:28</time>
      </trkpt>
      <trkpt lat="28.30662" lon="-14.09875">
        <ele>274.6</ele>
        <time>2021-07-05 13:01:29</time>
      </trkpt>
      <trkpt lat="28.30661" lon="-14.09879">
        <ele>274.6</ele>
        <time>2021-07-05 13:01:30</time>
      </trkpt>
      <trkpt lat="28.30659" lon="-14.09883">
        <ele>274.6</ele>
        <time>2021-07-05 13:01:31</time>
      </trkpt>
      <trkpt lat="28.30655" lon="-14.09888">
        <ele>274.2</ele>
        <time>2021-07-05 13:01:32</time>
      </trkpt>
      <trkpt lat="28.30652" lon="-14.09894">
        <ele>274.2</ele>
        <time>2021-07-05 13:01:33</time>
      </trkpt>
      <trkpt lat="28.30647" lon="-14.099">
        <ele>273.4</ele>
        <time>2021-07-05 13:01:34</time>
      </trkpt>
      <trkpt lat="28.30642" lon="-14.09907">
        <ele>273</ele>
        <time>2021-07-05 13:01:35</time>
      </trkpt>
      <trkpt lat="28.30635" lon="-14.09913">
        <ele>273</ele>
        <time>2021-07-05 13:01:36</time>
      </trkpt>
      <trkpt lat="28.30629" lon="-14.09919">
        <ele>271.8</ele>
        <time>2021-07-05 13:01:37</time>
      </trkpt>
      <trkpt lat="28.30622" lon="-14.09925">
        <ele>271.8</ele>
        <time>2021-07-05 13:01:38</time>
      </trkpt>
      <trkpt lat="28.30614" lon="-14.09929">
        <ele>270.4</ele>
        <time>2021-07-05 13:01:39</time>
      </trkpt>
      <trkpt lat="28.30607" lon="-14.09934">
        <ele>270.4</ele>
        <time>2021-07-05 13:01:40</time>
      </trkpt>
      <trkpt lat="28.306" lon="-14.09939">
        <ele>270</ele>
        <time>2021-07-05 13:01:41</time>
      </trkpt>
      <trkpt lat="28.30592" lon="-14.09945">
        <ele>269.2</ele>
        <time>2021-07-05 13:01:42</time>
      </trkpt>
      <trkpt lat="28.30585" lon="-14.09952">
        <ele>268</ele>
        <time>2021-07-05 13:01:43</time>
      </trkpt>
      <trkpt lat="28.30578" lon="-14.09959">
        <ele>268</ele>
        <time>2021-07-05 13:01:44</time>
      </trkpt>
      <trkpt lat="28.3057" lon="-14.09965">
        <ele>267.2</ele>
        <time>2021-07-05 13:01:45</time>
      </trkpt>
      <trkpt lat="28.30561" lon="-14.09971">
        <ele>266.4</ele>
        <time>2021-07-05 13:01:46</time>
      </trkpt>
      <trkpt lat="28.30551" lon="-14.09978">
        <ele>265.6</ele>
        <time>2021-07-05 13:01:47</time>
      </trkpt>
      <trkpt lat="28.30542" lon="-14.09984">
        <ele>264.8</ele>
        <time>2021-07-05 13:01:48</time>
      </trkpt>
      <trkpt lat="28.30532" lon="-14.09991">
        <ele>264</ele>
        <time>2021-07-05 13:01:49</time>
      </trkpt>
      <trkpt lat="28.30523" lon="-14.09997">
        <ele>263.4</ele>
        <time>2021-07-05 13:01:50</time>
      </trkpt>
      <trkpt lat="28.30513" lon="-14.10002">
        <ele>262.6</ele>
        <time>2021-07-05 13:01:51</time>
      </trkpt>
      <trkpt lat="28.30504" lon="-14.10009">
        <ele>262.2</ele>
        <time>2021-07-05 13:01:52</time>
      </trkpt>
      <trkpt lat="28.30494" lon="-14.10015">
        <ele>261.6</ele>
        <time>2021-07-05 13:01:53</time>
      </trkpt>
      <trkpt lat="28.30484" lon="-14.1002">
        <ele>261</ele>
        <time>2021-07-05 13:01:54</time>
      </trkpt>
      <trkpt lat="28.30475" lon="-14.10023">
        <ele>260.6</ele>
        <time>2021-07-05 13:01:55</time>
      </trkpt>
      <trkpt lat="28.30465" lon="-14.10026">
        <ele>260.4</ele>
        <time>2021-07-05 13:01:56</time>
      </trkpt>
      <trkpt lat="28.30456" lon="-14.10028">
        <ele>260.4</ele>
        <time>2021-07-05 13:01:57</time>
      </trkpt>
      <trkpt lat="28.30447" lon="-14.10029">
        <ele>259.8</ele>
        <time>2021-07-05 13:01:58</time>
      </trkpt>
      <trkpt lat="28.30438" lon="-14.1003">
        <ele>259.8</ele>
        <time>2021-07-05 13:01:59</time>
      </trkpt>
      <trkpt lat="28.3043" lon="-14.10032">
        <ele>259.4</ele>
        <time>2021-07-05 13:02:00</time>
      </trkpt>
      <trkpt lat="28.3042" lon="-14.10032">
        <ele>259.2</ele>
        <time>2021-07-05 13:02:01</time>
      </trkpt>
      <trkpt lat="28.30412" lon="-14.10033">
        <ele>258.8</ele>
        <time>2021-07-05 13:02:02</time>
      </trkpt>
      <trkpt lat="28.30402" lon="-14.10033">
        <ele>258.2</ele>
        <time>2021-07-05 13:02:03</time>
      </trkpt>
      <trkpt lat="28.30393" lon="-14.10033">
        <ele>256.8</ele>
        <time>2021-07-05 13:02:04</time>
      </trkpt>
      <trkpt lat="28.30384" lon="-14.10034">
        <ele>256.8</ele>
        <time>2021-07-05 13:02:05</time>
      </trkpt>
      <trkpt lat="28.30375" lon="-14.10034">
        <ele>255.6</ele>
        <time>2021-07-05 13:02:06</time>
      </trkpt>
      <trkpt lat="28.30367" lon="-14.10034">
        <ele>255.6</ele>
        <time>2021-07-05 13:02:07</time>
      </trkpt>
      <trkpt lat="28.30358" lon="-14.10034">
        <ele>254.6</ele>
        <time>2021-07-05 13:02:08</time>
      </trkpt>
      <trkpt lat="28.30349" lon="-14.10035">
        <ele>253.6</ele>
        <time>2021-07-05 13:02:09</time>
      </trkpt>
      <trkpt lat="28.3034" lon="-14.10034">
        <ele>252.4</ele>
        <time>2021-07-05 13:02:10</time>
      </trkpt>
      <trkpt lat="28.30332" lon="-14.10034">
        <ele>251.4</ele>
        <time>2021-07-05 13:02:11</time>
      </trkpt>
      <trkpt lat="28.30323" lon="-14.10033">
        <ele>249.2</ele>
        <time>2021-07-05 13:02:12</time>
      </trkpt>
      <trkpt lat="28.30314" lon="-14.10032">
        <ele>249.2</ele>
        <time>2021-07-05 13:02:13</time>
      </trkpt>
      <trkpt lat="28.30306" lon="-14.10032">
        <ele>248.4</ele>
        <time>2021-07-05 13:02:14</time>
      </trkpt>
      <trkpt lat="28.30297" lon="-14.10032">
        <ele>247.2</ele>
        <time>2021-07-05 13:02:15</time>
      </trkpt>
      <trkpt lat="28.30288" lon="-14.10033">
        <ele>246.2</ele>
        <time>2021-07-05 13:02:16</time>
      </trkpt>
      <trkpt lat="28.30279" lon="-14.10036">
        <ele>244</ele>
        <time>2021-07-05 13:02:17</time>
      </trkpt>
      <trkpt lat="28.3027" lon="-14.1004">
        <ele>243</ele>
        <time>2021-07-05 13:02:18</time>
      </trkpt>
      <trkpt lat="28.3026" lon="-14.10043">
        <ele>243</ele>
        <time>2021-07-05 13:02:19</time>
      </trkpt>
      <trkpt lat="28.30251" lon="-14.10046">
        <ele>241.4</ele>
        <time>2021-07-05 13:02:20</time>
      </trkpt>
      <trkpt lat="28.30241" lon="-14.10046">
        <ele>240.6</ele>
        <time>2021-07-05 13:02:21</time>
      </trkpt>
      <trkpt lat="28.30231" lon="-14.10046">
        <ele>239.8</ele>
        <time>2021-07-05 13:02:22</time>
      </trkpt>
      <trkpt lat="28.3022" lon="-14.10043">
        <ele>239.8</ele>
        <time>2021-07-05 13:02:23</time>
      </trkpt>
      <trkpt lat="28.30211" lon="-14.1004">
        <ele>238.4</ele>
        <time>2021-07-05 13:02:24</time>
      </trkpt>
      <trkpt lat="28.30201" lon="-14.10037">
        <ele>238</ele>
        <time>2021-07-05 13:02:25</time>
      </trkpt>
      <trkpt lat="28.30192" lon="-14.10034">
        <ele>237.6</ele>
        <time>2021-07-05 13:02:26</time>
      </trkpt>
      <trkpt lat="28.30183" lon="-14.10033">
        <ele>237.2</ele>
        <time>2021-07-05 13:02:27</time>
      </trkpt>
      <trkpt lat="28.30174" lon="-14.10033">
        <ele>236.8</ele>
        <time>2021-07-05 13:02:28</time>
      </trkpt>
      <trkpt lat="28.30165" lon="-14.10036">
        <ele>236.8</ele>
        <time>2021-07-05 13:02:29</time>
      </trkpt>
      <trkpt lat="28.30157" lon="-14.10039">
        <ele>236.2</ele>
        <time>2021-07-05 13:02:30</time>
      </trkpt>
      <trkpt lat="28.30148" lon="-14.10043">
        <ele>236.2</ele>
        <time>2021-07-05 13:02:31</time>
      </trkpt>
      <trkpt lat="28.30139" lon="-14.10047">
        <ele>235.4</ele>
        <time>2021-07-05 13:02:32</time>
      </trkpt>
      <trkpt lat="28.3013" lon="-14.1005">
        <ele>235.4</ele>
        <time>2021-07-05 13:02:33</time>
      </trkpt>
      <trkpt lat="28.3012" lon="-14.10052">
        <ele>235</ele>
        <time>2021-07-05 13:02:34</time>
      </trkpt>
      <trkpt lat="28.30112" lon="-14.10054">
        <ele>234.8</ele>
        <time>2021-07-05 13:02:35</time>
      </trkpt>
      <trkpt lat="28.30103" lon="-14.10056">
        <ele>234.6</ele>
        <time>2021-07-05 13:02:36</time>
      </trkpt>
      <trkpt lat="28.30095" lon="-14.10057">
        <ele>234.6</ele>
        <time>2021-07-05 13:02:37</time>
      </trkpt>
      <trkpt lat="28.30087" lon="-14.10059">
        <ele>234.6</ele>
        <time>2021-07-05 13:02:38</time>
      </trkpt>
      <trkpt lat="28.3008" lon="-14.10061">
        <ele>234.2</ele>
        <time>2021-07-05 13:02:39</time>
      </trkpt>
      <trkpt lat="28.30072" lon="-14.10063">
        <ele>234.2</ele>
        <time>2021-07-05 13:02:40</time>
      </trkpt>
      <trkpt lat="28.30065" lon="-14.10066">
        <ele>234</ele>
        <time>2021-07-05 13:02:41</time>
      </trkpt>
      <trkpt lat="28.30057" lon="-14.10069">
        <ele>234</ele>
        <time>2021-07-05 13:02:42</time>
      </trkpt>
      <trkpt lat="28.30049" lon="-14.10073">
        <ele>233.6</ele>
        <time>2021-07-05 13:02:43</time>
      </trkpt>
      <trkpt lat="28.30042" lon="-14.10077">
        <ele>233.6</ele>
        <time>2021-07-05 13:02:44</time>
      </trkpt>
      <trkpt lat="28.30034" lon="-14.10081">
        <ele>233.4</ele>
        <time>2021-07-05 13:02:45</time>
      </trkpt>
      <trkpt lat="28.30026" lon="-14.10086">
        <ele>233.4</ele>
        <time>2021-07-05 13:02:46</time>
      </trkpt>
      <trkpt lat="28.30019" lon="-14.1009">
        <ele>233</ele>
        <time>2021-07-05 13:02:47</time>
      </trkpt>
      <trkpt lat="28.30011" lon="-14.10094">
        <ele>233</ele>
        <time>2021-07-05 13:02:48</time>
      </trkpt>
      <trkpt lat="28.30004" lon="-14.10098">
        <ele>233</ele>
        <time>2021-07-05 13:02:49</time>
      </trkpt>
      <trkpt lat="28.29996" lon="-14.10104">
        <ele>232.8</ele>
        <time>2021-07-05 13:02:50</time>
      </trkpt>
      <trkpt lat="28.2999" lon="-14.1011">
        <ele>232.6</ele>
        <time>2021-07-05 13:02:51</time>
      </trkpt>
      <trkpt lat="28.29984" lon="-14.10116">
        <ele>232.6</ele>
        <time>2021-07-05 13:02:52</time>
      </trkpt>
      <trkpt lat="28.29979" lon="-14.10122">
        <ele>232.2</ele>
        <time>2021-07-05 13:02:53</time>
      </trkpt>
      <trkpt lat="28.29973" lon="-14.10129">
        <ele>232.2</ele>
        <time>2021-07-05 13:02:54</time>
      </trkpt>
      <trkpt lat="28.29967" lon="-14.10134">
        <ele>232</ele>
        <time>2021-07-05 13:02:55</time>
      </trkpt>
      <trkpt lat="28.29961" lon="-14.10138">
        <ele>232</ele>
        <time>2021-07-05 13:02:56</time>
      </trkpt>
      <trkpt lat="28.29954" lon="-14.1014">
        <ele>232</ele>
        <time>2021-07-05 13:02:57</time>
      </trkpt>
      <trkpt lat="28.29947" lon="-14.10143">
        <ele>232</ele>
        <time>2021-07-05 13:02:58</time>
      </trkpt>
      <trkpt lat="28.29941" lon="-14.10147">
        <ele>231.6</ele>
        <time>2021-07-05 13:02:59</time>
      </trkpt>
      <trkpt lat="28.29934" lon="-14.10152">
        <ele>231.4</ele>
        <time>2021-07-05 13:03:00</time>
      </trkpt>
      <trkpt lat="28.29929" lon="-14.10158">
        <ele>231</ele>
        <time>2021-07-05 13:03:01</time>
      </trkpt>
      <trkpt lat="28.29923" lon="-14.10165">
        <ele>230.6</ele>
        <time>2021-07-05 13:03:02</time>
      </trkpt>
      <trkpt lat="28.29918" lon="-14.10174">
        <ele>230.2</ele>
        <time>2021-07-05 13:03:03</time>
      </trkpt>
      <trkpt lat="28.29913" lon="-14.10181">
        <ele>229.8</ele>
        <time>2021-07-05 13:03:04</time>
      </trkpt>
      <trkpt lat="28.29907" lon="-14.10189">
        <ele>229.4</ele>
        <time>2021-07-05 13:03:05</time>
      </trkpt>
      <trkpt lat="28.29901" lon="-14.10196">
        <ele>228.8</ele>
        <time>2021-07-05 13:03:06</time>
      </trkpt>
      <trkpt lat="28.29893" lon="-14.102">
        <ele>228.4</ele>
        <time>2021-07-05 13:03:07</time>
      </trkpt>
      <trkpt lat="28.29886" lon="-14.10202">
        <ele>228</ele>
        <time>2021-07-05 13:03:08</time>
      </trkpt>
      <trkpt lat="28.29879" lon="-14.10202">
        <ele>227.6</ele>
        <time>2021-07-05 13:03:09</time>
      </trkpt>
      <trkpt lat="28.29873" lon="-14.10202">
        <ele>227.4</ele>
        <time>2021-07-05 13:03:10</time>
      </trkpt>
      <trkpt lat="28.29868" lon="-14.10203">
        <ele>227.4</ele>
        <time>2021-07-05 13:03:11</time>
      </trkpt>
      <trkpt lat="28.29864" lon="-14.10203">
        <ele>227.4</ele>
        <time>2021-07-05 13:03:12</time>
      </trkpt>
      <trkpt lat="28.2986" lon="-14.10205">
        <ele>227.4</ele>
        <time>2021-07-05 13:03:13</time>
      </trkpt>
      <trkpt lat="28.29856" lon="-14.10206">
        <ele>227.4</ele>
        <time>2021-07-05 13:03:14</time>
      </trkpt>
      <trkpt lat="28.29852" lon="-14.10207">
        <ele>228.2</ele>
        <time>2021-07-05 13:03:15</time>
      </trkpt>
      <trkpt lat="28.29849" lon="-14.10208">
        <ele>228.2</ele>
        <time>2021-07-05 13:03:16</time>
      </trkpt>
      <trkpt lat="28.29846" lon="-14.1021">
        <ele>228.6</ele>
        <time>2021-07-05 13:03:17</time>
      </trkpt>
      <trkpt lat="28.29843" lon="-14.10211">
        <ele>229</ele>
        <time>2021-07-05 13:03:18</time>
      </trkpt>
      <trkpt lat="28.29839" lon="-14.10212">
        <ele>229.6</ele>
        <time>2021-07-05 13:03:19</time>
      </trkpt>
      <trkpt lat="28.29836" lon="-14.10214">
        <ele>229.8</ele>
        <time>2021-07-05 13:03:20</time>
      </trkpt>
      <trkpt lat="28.29833" lon="-14.10215">
        <ele>229.8</ele>
        <time>2021-07-05 13:03:21</time>
      </trkpt>
      <trkpt lat="28.29831" lon="-14.10216">
        <ele>230.2</ele>
        <time>2021-07-05 13:03:22</time>
      </trkpt>
      <trkpt lat="28.29827" lon="-14.10217">
        <ele>230.8</ele>
        <time>2021-07-05 13:03:23</time>
      </trkpt>
      <trkpt lat="28.29825" lon="-14.10218">
        <ele>230.8</ele>
        <time>2021-07-05 13:03:24</time>
      </trkpt>
      <trkpt lat="28.29822" lon="-14.10219">
        <ele>231.2</ele>
        <time>2021-07-05 13:03:25</time>
      </trkpt>
      <trkpt lat="28.29819" lon="-14.1022">
        <ele>231.6</ele>
        <time>2021-07-05 13:03:26</time>
      </trkpt>
      <trkpt lat="28.29818" lon="-14.10221">
        <ele>232</ele>
        <time>2021-07-05 13:03:27</time>
      </trkpt>
      <trkpt lat="28.29816" lon="-14.10222">
        <ele>232</ele>
        <time>2021-07-05 13:03:28</time>
      </trkpt>
      <trkpt lat="28.29814" lon="-14.10223">
        <ele>232</ele>
        <time>2021-07-05 13:03:29</time>
      </trkpt>
      <trkpt lat="28.29812" lon="-14.10224">
        <ele>232.6</ele>
        <time>2021-07-05 13:03:30</time>
      </trkpt>
      <trkpt lat="28.29809" lon="-14.10225">
        <ele>232.6</ele>
        <time>2021-07-05 13:03:31</time>
      </trkpt>
      <trkpt lat="28.29806" lon="-14.10226">
        <ele>232.6</ele>
        <time>2021-07-05 13:03:32</time>
      </trkpt>
      <trkpt lat="28.29803" lon="-14.10228">
        <ele>233</ele>
        <time>2021-07-05 13:03:33</time>
      </trkpt>
      <trkpt lat="28.298" lon="-14.1023">
        <ele>233</ele>
        <time>2021-07-05 13:03:34</time>
      </trkpt>
      <trkpt lat="28.29797" lon="-14.10231">
        <ele>233.2</ele>
        <time>2021-07-05 13:03:35</time>
      </trkpt>
      <trkpt lat="28.29794" lon="-14.10233">
        <ele>233.2</ele>
        <time>2021-07-05 13:03:36</time>
      </trkpt>
      <trkpt lat="28.29791" lon="-14.10235">
        <ele>233.4</ele>
        <time>2021-07-05 13:03:37</time>
      </trkpt>
      <trkpt lat="28.29789" lon="-14.10237">
        <ele>233.4</ele>
        <time>2021-07-05 13:03:38</time>
      </trkpt>
      <trkpt lat="28.29786" lon="-14.10238">
        <ele>233.8</ele>
        <time>2021-07-05 13:03:39</time>
      </trkpt>
      <trkpt lat="28.29784" lon="-14.1024">
        <ele>233.8</ele>
        <time>2021-07-05 13:03:40</time>
      </trkpt>
      <trkpt lat="28.29783" lon="-14.10241">
        <ele>233.8</ele>
        <time>2021-07-05 13:03:41</time>
      </trkpt>
      <trkpt lat="28.29781" lon="-14.10242">
        <ele>233.8</ele>
        <time>2021-07-05 13:03:42</time>
      </trkpt>
      <trkpt lat="28.29779" lon="-14.10243">
        <ele>234</ele>
        <time>2021-07-05 13:03:43</time>
      </trkpt>
      <trkpt lat="28.29777" lon="-14.10245">
        <ele>234</ele>
        <time>2021-07-05 13:03:44</time>
      </trkpt>
      <trkpt lat="28.29775" lon="-14.10246">
        <ele>234</ele>
        <time>2021-07-05 13:03:45</time>
      </trkpt>
      <trkpt lat="28.29772" lon="-14.10247">
        <ele>234</ele>
        <time>2021-07-05 13:03:46</time>
      </trkpt>
      <trkpt lat="28.2977" lon="-14.10248">
        <ele>234</ele>
        <time>2021-07-05 13:03:47</time>
      </trkpt>
      <trkpt lat="28.29767" lon="-14.10249">
        <ele>234</ele>
        <time>2021-07-05 13:03:48</time>
      </trkpt>
      <trkpt lat="28.29763" lon="-14.10249">
        <ele>234</ele>
        <time>2021-07-05 13:03:49</time>
      </trkpt>
      <trkpt lat="28.29759" lon="-14.10249">
        <ele>234</ele>
        <time>2021-07-05 13:03:50</time>
      </trkpt>
      <trkpt lat="28.29755" lon="-14.10249">
        <ele>234</ele>
        <time>2021-07-05 13:03:51</time>
      </trkpt>
      <trkpt lat="28.29751" lon="-14.1025">
        <ele>234</ele>
        <time>2021-07-05 13:03:52</time>
      </trkpt>
      <trkpt lat="28.29747" lon="-14.10251">
        <ele>234</ele>
        <time>2021-07-05 13:03:53</time>
      </trkpt>
      <trkpt lat="28.29744" lon="-14.10253">
        <ele>234</ele>
        <time>2021-07-05 13:03:54</time>
      </trkpt>
      <trkpt lat="28.2974" lon="-14.10256">
        <ele>234</ele>
        <time>2021-07-05 13:03:55</time>
      </trkpt>
      <trkpt lat="28.29736" lon="-14.1026">
        <ele>233.4</ele>
        <time>2021-07-05 13:03:56</time>
      </trkpt>
      <trkpt lat="28.29731" lon="-14.10265">
        <ele>233.4</ele>
        <time>2021-07-05 13:03:57</time>
      </trkpt>
      <trkpt lat="28.29726" lon="-14.1027">
        <ele>233</ele>
        <time>2021-07-05 13:03:58</time>
      </trkpt>
      <trkpt lat="28.29721" lon="-14.10275">
        <ele>233</ele>
        <time>2021-07-05 13:03:59</time>
      </trkpt>
      <trkpt lat="28.29715" lon="-14.1028">
        <ele>232.6</ele>
        <time>2021-07-05 13:04:00</time>
      </trkpt>
      <trkpt lat="28.29708" lon="-14.10286">
        <ele>232</ele>
        <time>2021-07-05 13:04:01</time>
      </trkpt>
      <trkpt lat="28.29701" lon="-14.10292">
        <ele>232</ele>
        <time>2021-07-05 13:04:02</time>
      </trkpt>
      <trkpt lat="28.29693" lon="-14.10297">
        <ele>231</ele>
        <time>2021-07-05 13:04:03</time>
      </trkpt>
      <trkpt lat="28.29685" lon="-14.10302">
        <ele>230.4</ele>
        <time>2021-07-05 13:04:04</time>
      </trkpt>
      <trkpt lat="28.29677" lon="-14.10308">
        <ele>230.4</ele>
        <time>2021-07-05 13:04:05</time>
      </trkpt>
      <trkpt lat="28.29668" lon="-14.10314">
        <ele>229.8</ele>
        <time>2021-07-05 13:04:06</time>
      </trkpt>
      <trkpt lat="28.2966" lon="-14.1032">
        <ele>229</ele>
        <time>2021-07-05 13:04:07</time>
      </trkpt>
      <trkpt lat="28.29652" lon="-14.10326">
        <ele>227.6</ele>
        <time>2021-07-05 13:04:08</time>
      </trkpt>
      <trkpt lat="28.29642" lon="-14.10332">
        <ele>227.6</ele>
        <time>2021-07-05 13:04:09</time>
      </trkpt>
      <trkpt lat="28.29633" lon="-14.10338">
        <ele>226.8</ele>
        <time>2021-07-05 13:04:10</time>
      </trkpt>
      <trkpt lat="28.29622" lon="-14.10343">
        <ele>225.2</ele>
        <time>2021-07-05 13:04:11</time>
      </trkpt>
      <trkpt lat="28.2961" lon="-14.10347">
        <ele>225.2</ele>
        <time>2021-07-05 13:04:12</time>
      </trkpt>
      <trkpt lat="28.29598" lon="-14.1035">
        <ele>224.4</ele>
        <time>2021-07-05 13:04:13</time>
      </trkpt>
      <trkpt lat="28.29587" lon="-14.10353">
        <ele>223.6</ele>
        <time>2021-07-05 13:04:14</time>
      </trkpt>
      <trkpt lat="28.29575" lon="-14.10355">
        <ele>222.8</ele>
        <time>2021-07-05 13:04:15</time>
      </trkpt>
      <trkpt lat="28.29564" lon="-14.10356">
        <ele>222.2</ele>
        <time>2021-07-05 13:04:16</time>
      </trkpt>
      <trkpt lat="28.29553" lon="-14.10356">
        <ele>222</ele>
        <time>2021-07-05 13:04:17</time>
      </trkpt>
      <trkpt lat="28.29543" lon="-14.10358">
        <ele>221.6</ele>
        <time>2021-07-05 13:04:18</time>
      </trkpt>
      <trkpt lat="28.29533" lon="-14.10359">
        <ele>221.6</ele>
        <time>2021-07-05 13:04:19</time>
      </trkpt>
      <trkpt lat="28.29524" lon="-14.1036">
        <ele>221.4</ele>
        <time>2021-07-05 13:04:20</time>
      </trkpt>
      <trkpt lat="28.29515" lon="-14.10362">
        <ele>221.4</ele>
        <time>2021-07-05 13:04:21</time>
      </trkpt>
      <trkpt lat="28.29506" lon="-14.10364">
        <ele>221.4</ele>
        <time>2021-07-05 13:04:22</time>
      </trkpt>
      <trkpt lat="28.29499" lon="-14.10365">
        <ele>221.2</ele>
        <time>2021-07-05 13:04:23</time>
      </trkpt>
      <trkpt lat="28.29492" lon="-14.10366">
        <ele>221.2</ele>
        <time>2021-07-05 13:04:24</time>
      </trkpt>
      <trkpt lat="28.29486" lon="-14.10367">
        <ele>221.8</ele>
        <time>2021-07-05 13:04:25</time>
      </trkpt>
      <trkpt lat="28.2948" lon="-14.10368">
        <ele>221.8</ele>
        <time>2021-07-05 13:04:26</time>
      </trkpt>
      <trkpt lat="28.29476" lon="-14.10368">
        <ele>222</ele>
        <time>2021-07-05 13:04:27</time>
      </trkpt>
      <trkpt lat="28.29472" lon="-14.10369">
        <ele>222.4</ele>
        <time>2021-07-05 13:04:28</time>
      </trkpt>
      <trkpt lat="28.29468" lon="-14.1037">
        <ele>222.8</ele>
        <time>2021-07-05 13:04:29</time>
      </trkpt>
      <trkpt lat="28.29463" lon="-14.1037">
        <ele>223</ele>
        <time>2021-07-05 13:04:30</time>
      </trkpt>
      <trkpt lat="28.29459" lon="-14.1037">
        <ele>223.8</ele>
        <time>2021-07-05 13:04:31</time>
      </trkpt>
      <trkpt lat="28.29456" lon="-14.10371">
        <ele>223.8</ele>
        <time>2021-07-05 13:04:32</time>
      </trkpt>
      <trkpt lat="28.29453" lon="-14.10371">
        <ele>224.6</ele>
        <time>2021-07-05 13:04:33</time>
      </trkpt>
      <trkpt lat="28.2945" lon="-14.10372">
        <ele>224.6</ele>
        <time>2021-07-05 13:04:34</time>
      </trkpt>
      <trkpt lat="28.29447" lon="-14.10372">
        <ele>225</ele>
        <time>2021-07-05 13:04:35</time>
      </trkpt>
      <trkpt lat="28.29443" lon="-14.10372">
        <ele>225.2</ele>
        <time>2021-07-05 13:04:36</time>
      </trkpt>
      <trkpt lat="28.2944" lon="-14.10373">
        <ele>225.6</ele>
        <time>2021-07-05 13:04:37</time>
      </trkpt>
      <trkpt lat="28.29436" lon="-14.10373">
        <ele>226.2</ele>
        <time>2021-07-05 13:04:38</time>
      </trkpt>
      <trkpt lat="28.29433" lon="-14.10374">
        <ele>226.2</ele>
        <time>2021-07-05 13:04:39</time>
      </trkpt>
      <trkpt lat="28.29429" lon="-14.10375">
        <ele>226.6</ele>
        <time>2021-07-05 13:04:40</time>
      </trkpt>
      <trkpt lat="28.29426" lon="-14.10376">
        <ele>227.2</ele>
        <time>2021-07-05 13:04:41</time>
      </trkpt>
      <trkpt lat="28.29423" lon="-14.10378">
        <ele>227.2</ele>
        <time>2021-07-05 13:04:42</time>
      </trkpt>
      <trkpt lat="28.29419" lon="-14.10379">
        <ele>227.4</ele>
        <time>2021-07-05 13:04:43</time>
      </trkpt>
      <trkpt lat="28.29416" lon="-14.10381">
        <ele>227.4</ele>
        <time>2021-07-05 13:04:44</time>
      </trkpt>
      <trkpt lat="28.29412" lon="-14.10384">
        <ele>227.6</ele>
        <time>2021-07-05 13:04:45</time>
      </trkpt>
      <trkpt lat="28.29409" lon="-14.10386">
        <ele>227.6</ele>
        <time>2021-07-05 13:04:46</time>
      </trkpt>
      <trkpt lat="28.29406" lon="-14.10388">
        <ele>228</ele>
        <time>2021-07-05 13:04:47</time>
      </trkpt>
      <trkpt lat="28.29403" lon="-14.10391">
        <ele>228.2</ele>
        <time>2021-07-05 13:04:48</time>
      </trkpt>
      <trkpt lat="28.29401" lon="-14.10394">
        <ele>228.2</ele>
        <time>2021-07-05 13:04:49</time>
      </trkpt>
      <trkpt lat="28.294" lon="-14.10397">
        <ele>228.2</ele>
        <time>2021-07-05 13:04:50</time>
      </trkpt>
      <trkpt lat="28.29398" lon="-14.10399">
        <ele>228.2</ele>
        <time>2021-07-05 13:04:51</time>
      </trkpt>
      <trkpt lat="28.29395" lon="-14.10402">
        <ele>228.4</ele>
        <time>2021-07-05 13:04:52</time>
      </trkpt>
      <trkpt lat="28.29393" lon="-14.10405">
        <ele>228.8</ele>
        <time>2021-07-05 13:04:53</time>
      </trkpt>
      <trkpt lat="28.2939" lon="-14.10407">
        <ele>228.8</ele>
        <time>2021-07-05 13:04:54</time>
      </trkpt>
      <trkpt lat="28.29388" lon="-14.1041">
        <ele>229</ele>
        <time>2021-07-05 13:04:55</time>
      </trkpt>
      <trkpt lat="28.29385" lon="-14.10413">
        <ele>229</ele>
        <time>2021-07-05 13:04:56</time>
      </trkpt>
      <trkpt lat="28.29382" lon="-14.10416">
        <ele>229</ele>
        <time>2021-07-05 13:04:57</time>
      </trkpt>
      <trkpt lat="28.2938" lon="-14.10419">
        <ele>229</ele>
        <time>2021-07-05 13:04:58</time>
      </trkpt>
      <trkpt lat="28.29377" lon="-14.10421">
        <ele>229</ele>
        <time>2021-07-05 13:04:59</time>
      </trkpt>
      <trkpt lat="28.29374" lon="-14.10424">
        <ele>229.2</ele>
        <time>2021-07-05 13:05:00</time>
      </trkpt>
      <trkpt lat="28.29371" lon="-14.10427">
        <ele>229.2</ele>
        <time>2021-07-05 13:05:01</time>
      </trkpt>
      <trkpt lat="28.29368" lon="-14.1043">
        <ele>229.2</ele>
        <time>2021-07-05 13:05:02</time>
      </trkpt>
      <trkpt lat="28.29365" lon="-14.10432">
        <ele>229.4</ele>
        <time>2021-07-05 13:05:03</time>
      </trkpt>
      <trkpt lat="28.29362" lon="-14.10435">
        <ele>229.4</ele>
        <time>2021-07-05 13:05:04</time>
      </trkpt>
      <trkpt lat="28.29359" lon="-14.10437">
        <ele>229.6</ele>
        <time>2021-07-05 13:05:05</time>
      </trkpt>
      <trkpt lat="28.29356" lon="-14.10439">
        <ele>229.6</ele>
        <time>2021-07-05 13:05:06</time>
      </trkpt>
      <trkpt lat="28.29352" lon="-14.10441">
        <ele>229.8</ele>
        <time>2021-07-05 13:05:07</time>
      </trkpt>
      <trkpt lat="28.29349" lon="-14.10442">
        <ele>230.2</ele>
        <time>2021-07-05 13:05:08</time>
      </trkpt>
      <trkpt lat="28.29346" lon="-14.10444">
        <ele>230.2</ele>
        <time>2021-07-05 13:05:09</time>
      </trkpt>
      <trkpt lat="28.29343" lon="-14.10446">
        <ele>230.2</ele>
        <time>2021-07-05 13:05:10</time>
      </trkpt>
      <trkpt lat="28.2934" lon="-14.10448">
        <ele>230.4</ele>
        <time>2021-07-05 13:05:11</time>
      </trkpt>
      <trkpt lat="28.29337" lon="-14.1045">
        <ele>230.6</ele>
        <time>2021-07-05 13:05:12</time>
      </trkpt>
      <trkpt lat="28.29334" lon="-14.10452">
        <ele>231</ele>
        <time>2021-07-05 13:05:13</time>
      </trkpt>
      <trkpt lat="28.29331" lon="-14.10454">
        <ele>231</ele>
        <time>2021-07-05 13:05:14</time>
      </trkpt>
      <trkpt lat="28.29329" lon="-14.10456">
        <ele>231.2</ele>
        <time>2021-07-05 13:05:15</time>
      </trkpt>
      <trkpt lat="28.29326" lon="-14.10458">
        <ele>231.4</ele>
        <time>2021-07-05 13:05:16</time>
      </trkpt>
      <trkpt lat="28.29323" lon="-14.10461">
        <ele>231.6</ele>
        <time>2021-07-05 13:05:17</time>
      </trkpt>
      <trkpt lat="28.29321" lon="-14.10463">
        <ele>231.6</ele>
        <time>2021-07-05 13:05:18</time>
      </trkpt>
      <trkpt lat="28.29318" lon="-14.10465">
        <ele>232</ele>
        <time>2021-07-05 13:05:19</time>
      </trkpt>
      <trkpt lat="28.29316" lon="-14.10468">
        <ele>232</ele>
        <time>2021-07-05 13:05:20</time>
      </trkpt>
      <trkpt lat="28.29314" lon="-14.1047">
        <ele>232.8</ele>
        <time>2021-07-05 13:05:21</time>
      </trkpt>
      <trkpt lat="28.29312" lon="-14.10472">
        <ele>232.8</ele>
        <time>2021-07-05 13:05:22</time>
      </trkpt>
      <trkpt lat="28.2931" lon="-14.10474">
        <ele>233</ele>
        <time>2021-07-05 13:05:23</time>
      </trkpt>
      <trkpt lat="28.29308" lon="-14.10475">
        <ele>233.4</ele>
        <time>2021-07-05 13:05:24</time>
      </trkpt>
      <trkpt lat="28.29306" lon="-14.10477">
        <ele>233.6</ele>
        <time>2021-07-05 13:05:25</time>
      </trkpt>
      <trkpt lat="28.29304" lon="-14.10479">
        <ele>234.2</ele>
        <time>2021-07-05 13:05:26</time>
      </trkpt>
      <trkpt lat="28.29303" lon="-14.10482">
        <ele>234.2</ele>
        <time>2021-07-05 13:05:27</time>
      </trkpt>
      <trkpt lat="28.29302" lon="-14.10485">
        <ele>234.4</ele>
        <time>2021-07-05 13:05:28</time>
      </trkpt>
      <trkpt lat="28.29301" lon="-14.10487">
        <ele>234.8</ele>
        <time>2021-07-05 13:05:29</time>
      </trkpt>
      <trkpt lat="28.293" lon="-14.1049">
        <ele>234.8</ele>
        <time>2021-07-05 13:05:30</time>
      </trkpt>
      <trkpt lat="28.29299" lon="-14.10493">
        <ele>235</ele>
        <time>2021-07-05 13:05:31</time>
      </trkpt>
      <trkpt lat="28.29299" lon="-14.10496">
        <ele>235</ele>
        <time>2021-07-05 13:05:32</time>
      </trkpt>
      <trkpt lat="28.29297" lon="-14.105">
        <ele>235.2</ele>
        <time>2021-07-05 13:05:33</time>
      </trkpt>
      <trkpt lat="28.29296" lon="-14.10502">
        <ele>235.2</ele>
        <time>2021-07-05 13:05:34</time>
      </trkpt>
      <trkpt lat="28.29295" lon="-14.10504">
        <ele>235.2</ele>
        <time>2021-07-05 13:05:35</time>
      </trkpt>
      <trkpt lat="28.29295" lon="-14.10505">
        <ele>235.6</ele>
        <time>2021-07-05 13:05:36</time>
      </trkpt>
      <trkpt lat="28.29295" lon="-14.10506">
        <ele>235.6</ele>
        <time>2021-07-05 13:05:37</time>
      </trkpt>
      <trkpt lat="28.29295" lon="-14.10506">
        <ele>235.6</ele>
        <time>2021-07-05 13:05:38</time>
      </trkpt>
      <trkpt lat="28.29295" lon="-14.10505">
        <ele>235.6</ele>
        <time>2021-07-05 13:05:39</time>
      </trkpt>
      <trkpt lat="28.29295" lon="-14.10505">
        <ele>235.4</ele>
        <time>2021-07-05 13:05:40</time>
      </trkpt>
      <trkpt lat="28.29294" lon="-14.10503">
        <ele>234.8</ele>
        <time>2021-07-05 13:05:41</time>
      </trkpt>
      <trkpt lat="28.29294" lon="-14.10502">
        <ele>234.8</ele>
        <time>2021-07-05 13:05:42</time>
      </trkpt>
      <trkpt lat="28.29294" lon="-14.10501">
        <ele>234.8</ele>
        <time>2021-07-05 13:07:47</time>
      </trkpt>
      <trkpt lat="28.29294" lon="-14.105">
        <ele>234.8</ele>
        <time>2021-07-05 13:07:48</time>
      </trkpt>
      <trkpt lat="28.29295" lon="-14.10499">
        <ele>234.6</ele>
        <time>2021-07-05 13:07:49</time>
      </trkpt>
      <trkpt lat="28.29295" lon="-14.10498">
        <ele>234.6</ele>
        <time>2021-07-05 13:07:50</time>
      </trkpt>
      <trkpt lat="28.29296" lon="-14.10497">
        <ele>234.6</ele>
        <time>2021-07-05 13:07:51</time>
      </trkpt>
      <trkpt lat="28.29297" lon="-14.10495">
        <ele>234.6</ele>
        <time>2021-07-05 13:07:52</time>
      </trkpt>
      <trkpt lat="28.29297" lon="-14.10494">
        <ele>234.6</ele>
        <time>2021-07-05 13:07:53</time>
      </trkpt>
      <trkpt lat="28.29297" lon="-14.10493">
        <ele>234.8</ele>
        <time>2021-07-05 13:07:54</time>
      </trkpt>
      <trkpt lat="28.29297" lon="-14.10492">
        <ele>234.8</ele>
        <time>2021-07-05 13:07:55</time>
      </trkpt>
      <trkpt lat="28.29297" lon="-14.10491">
        <ele>234.8</ele>
        <time>2021-07-05 13:07:56</time>
      </trkpt>
      <trkpt lat="28.29297" lon="-14.1049">
        <ele>234.8</ele>
        <time>2021-07-05 13:07:57</time>
      </trkpt>
      <trkpt lat="28.29297" lon="-14.10489">
        <ele>234.8</ele>
        <time>2021-07-05 13:07:58</time>
      </trkpt>
      <trkpt lat="28.29297" lon="-14.10488">
        <ele>234.8</ele>
        <time>2021-07-05 13:07:59</time>
      </trkpt>
      <trkpt lat="28.29297" lon="-14.10488">
        <ele>234.8</ele>
        <time>2021-07-05 13:08:00</time>
      </trkpt>
      <trkpt lat="28.29297" lon="-14.10487">
        <ele>234.8</ele>
        <time>2021-07-05 13:08:01</time>
      </trkpt>
      <trkpt lat="28.29297" lon="-14.10487">
        <ele>234.8</ele>
        <time>2021-07-05 13:08:02</time>
      </trkpt>
      <trkpt lat="28.29297" lon="-14.10487">
        <ele>234.8</ele>
        <time>2021-07-05 13:08:03</time>
      </trkpt>
      <trkpt lat="28.29297" lon="-14.10486">
        <ele>234.8</ele>
        <time>2021-07-05 13:08:04</time>
      </trkpt>
      <trkpt lat="28.29297" lon="-14.10487">
        <ele>235</ele>
        <time>2021-07-05 13:08:05</time>
      </trkpt>
      <trkpt lat="28.29297" lon="-14.10487">
        <ele>235</ele>
        <time>2021-07-05 13:08:06</time>
      </trkpt>
      <trkpt lat="28.29296" lon="-14.10484">
        <ele>235.2</ele>
        <time>2021-07-05 13:08:07</time>
      </trkpt>
      <trkpt lat="28.29296" lon="-14.10484">
        <ele>235.2</ele>
        <time>2021-07-05 13:08:08</time>
      </trkpt>
      <trkpt lat="28.29296" lon="-14.10483">
        <ele>235.2</ele>
        <time>2021-07-05 13:08:17</time>
      </trkpt>
      <trkpt lat="28.29296" lon="-14.10484">
        <ele>235</ele>
        <time>2021-07-05 13:08:18</time>
      </trkpt>
      <trkpt lat="28.29296" lon="-14.10484">
        <ele>235</ele>
        <time>2021-07-05 13:08:19</time>
      </trkpt>
      <trkpt lat="28.29297" lon="-14.10485">
        <ele>236.4</ele>
        <time>2021-07-05 13:08:20</time>
      </trkpt>
      <trkpt lat="28.29297" lon="-14.10486">
        <ele>236.4</ele>
        <time>2021-07-05 13:08:21</time>
      </trkpt>
      <trkpt lat="28.29296" lon="-14.10486">
        <ele>236.4</ele>
        <time>2021-07-05 13:10:05</time>
      </trkpt>
      <trkpt lat="28.29296" lon="-14.10486">
        <ele>236.4</ele>
        <time>2021-07-05 13:10:06</time>
      </trkpt>
      <trkpt lat="28.29296" lon="-14.10485">
        <ele>236.4</ele>
        <time>2021-07-05 13:10:07</time>
      </trkpt>
      <trkpt lat="28.29296" lon="-14.10485">
        <ele>236.4</ele>
        <time>2021-07-05 13:10:08</time>
      </trkpt>
      <trkpt lat="28.29296" lon="-14.10484">
        <ele>236.4</ele>
        <time>2021-07-05 13:10:09</time>
      </trkpt>
      <trkpt lat="28.29296" lon="-14.10484">
        <ele>236.4</ele>
        <time>2021-07-05 13:10:10</time>
      </trkpt>
      <trkpt lat="28.29296" lon="-14.10486">
        <ele>236.4</ele>
        <time>2021-07-05 13:10:11</time>
      </trkpt>
      <trkpt lat="28.29296" lon="-14.10487">
        <ele>235.6</ele>
        <time>2021-07-05 13:10:12</time>
      </trkpt>
      <trkpt lat="28.29296" lon="-14.10488">
        <ele>235.6</ele>
        <time>2021-07-05 13:11:08</time>
      </trkpt>
      <trkpt lat="28.29297" lon="-14.10489">
        <ele>235.6</ele>
        <time>2021-07-05 13:11:09</time>
      </trkpt>
      <trkpt lat="28.29298" lon="-14.1049">
        <ele>235.6</ele>
        <time>2021-07-05 13:11:10</time>
      </trkpt>
      <trkpt lat="28.29298" lon="-14.10491">
        <ele>235.6</ele>
        <time>2021-07-05 13:11:11</time>
      </trkpt>
      <trkpt lat="28.29299" lon="-14.10492">
        <ele>235.6</ele>
        <time>2021-07-05 13:11:12</time>
      </trkpt>
      <trkpt lat="28.29299" lon="-14.10493">
        <ele>235.6</ele>
        <time>2021-07-05 13:11:13</time>
      </trkpt>
      <trkpt lat="28.29299" lon="-14.10493">
        <ele>235.6</ele>
        <time>2021-07-05 13:11:14</time>
      </trkpt>
      <trkpt lat="28.29299" lon="-14.10495">
        <ele>235.6</ele>
        <time>2021-07-05 13:11:15</time>
      </trkpt>
      <trkpt lat="28.29299" lon="-14.10496">
        <ele>235.4</ele>
        <time>2021-07-05 13:11:16</time>
      </trkpt>
      <trkpt lat="28.29299" lon="-14.10497">
        <ele>235.4</ele>
        <time>2021-07-05 13:11:17</time>
      </trkpt>
      <trkpt lat="28.29299" lon="-14.10498">
        <ele>235.4</ele>
        <time>2021-07-05 13:11:18</time>
      </trkpt>
      <trkpt lat="28.29299" lon="-14.10499">
        <ele>235.4</ele>
        <time>2021-07-05 13:11:19</time>
      </trkpt>
      <trkpt lat="28.29299" lon="-14.105">
        <ele>235.4</ele>
        <time>2021-07-05 13:11:20</time>
      </trkpt>
      <trkpt lat="28.29298" lon="-14.10501">
        <ele>235.4</ele>
        <time>2021-07-05 13:11:21</time>
      </trkpt>
      <trkpt lat="28.29298" lon="-14.10501">
        <ele>235.4</ele>
        <time>2021-07-05 13:11:22</time>
      </trkpt>
      <trkpt lat="28.29297" lon="-14.10502">
        <ele>235.4</ele>
        <time>2021-07-05 13:11:23</time>
      </trkpt>
      <trkpt lat="28.29297" lon="-14.10501">
        <ele>235.6</ele>
        <time>2021-07-05 13:11:24</time>
      </trkpt>
      <trkpt lat="28.29297" lon="-14.10501">
        <ele>235.6</ele>
        <time>2021-07-05 13:11:25</time>
      </trkpt>
      <trkpt lat="28.29298" lon="-14.10503">
        <ele>235.8</ele>
        <time>2021-07-05 13:11:26</time>
      </trkpt>
      <trkpt lat="28.29296" lon="-14.10504">
        <ele>235.8</ele>
        <time>2021-07-05 13:11:27</time>
      </trkpt>
      <trkpt lat="28.29295" lon="-14.10506">
        <ele>235.8</ele>
        <time>2021-07-05 13:12:03</time>
      </trkpt>
      <trkpt lat="28.29293" lon="-14.10508">
        <ele>235.8</ele>
        <time>2021-07-05 13:12:04</time>
      </trkpt>
      <trkpt lat="28.2929" lon="-14.1051">
        <ele>235.8</ele>
        <time>2021-07-05 13:12:05</time>
      </trkpt>
      <trkpt lat="28.29286" lon="-14.10512">
        <ele>235.8</ele>
        <time>2021-07-05 13:12:06</time>
      </trkpt>
      <trkpt lat="28.29282" lon="-14.10516">
        <ele>235.8</ele>
        <time>2021-07-05 13:12:07</time>
      </trkpt>
      <trkpt lat="28.29277" lon="-14.1052">
        <ele>235.8</ele>
        <time>2021-07-05 13:12:08</time>
      </trkpt>
      <trkpt lat="28.29271" lon="-14.10523">
        <ele>235.4</ele>
        <time>2021-07-05 13:12:09</time>
      </trkpt>
      <trkpt lat="28.29265" lon="-14.10528">
        <ele>234.6</ele>
        <time>2021-07-05 13:12:10</time>
      </trkpt>
      <trkpt lat="28.29258" lon="-14.10533">
        <ele>234.6</ele>
        <time>2021-07-05 13:12:11</time>
      </trkpt>
      <trkpt lat="28.29251" lon="-14.10537">
        <ele>234.2</ele>
        <time>2021-07-05 13:12:12</time>
      </trkpt>
      <trkpt lat="28.29243" lon="-14.10543">
        <ele>233.6</ele>
        <time>2021-07-05 13:12:13</time>
      </trkpt>
      <trkpt lat="28.29235" lon="-14.10549">
        <ele>233</ele>
        <time>2021-07-05 13:12:14</time>
      </trkpt>
      <trkpt lat="28.29226" lon="-14.10554">
        <ele>231.4</ele>
        <time>2021-07-05 13:12:15</time>
      </trkpt>
      <trkpt lat="28.29218" lon="-14.1056">
        <ele>231.4</ele>
        <time>2021-07-05 13:12:16</time>
      </trkpt>
      <trkpt lat="28.29208" lon="-14.10566">
        <ele>230.6</ele>
        <time>2021-07-05 13:12:17</time>
      </trkpt>
      <trkpt lat="28.292" lon="-14.10572">
        <ele>229.6</ele>
        <time>2021-07-05 13:12:18</time>
      </trkpt>
      <trkpt lat="28.29191" lon="-14.10578">
        <ele>227.8</ele>
        <time>2021-07-05 13:12:19</time>
      </trkpt>
      <trkpt lat="28.29182" lon="-14.10583">
        <ele>227.8</ele>
        <time>2021-07-05 13:12:20</time>
      </trkpt>
      <trkpt lat="28.29173" lon="-14.10587">
        <ele>226.4</ele>
        <time>2021-07-05 13:12:21</time>
      </trkpt>
      <trkpt lat="28.29163" lon="-14.10591">
        <ele>225.4</ele>
        <time>2021-07-05 13:12:22</time>
      </trkpt>
      <trkpt lat="28.29154" lon="-14.10595">
        <ele>225.4</ele>
        <time>2021-07-05 13:12:23</time>
      </trkpt>
      <trkpt lat="28.29145" lon="-14.10598">
        <ele>224.8</ele>
        <time>2021-07-05 13:12:24</time>
      </trkpt>
      <trkpt lat="28.29136" lon="-14.10602">
        <ele>223.4</ele>
        <time>2021-07-05 13:12:25</time>
      </trkpt>
      <trkpt lat="28.29128" lon="-14.10605">
        <ele>223.4</ele>
        <time>2021-07-05 13:12:26</time>
      </trkpt>
      <trkpt lat="28.2912" lon="-14.10609">
        <ele>222.8</ele>
        <time>2021-07-05 13:12:27</time>
      </trkpt>
      <trkpt lat="28.29113" lon="-14.10612">
        <ele>222</ele>
        <time>2021-07-05 13:12:28</time>
      </trkpt>
      <trkpt lat="28.29107" lon="-14.10615">
        <ele>221.6</ele>
        <time>2021-07-05 13:12:29</time>
      </trkpt>
      <trkpt lat="28.29102" lon="-14.10619">
        <ele>221</ele>
        <time>2021-07-05 13:12:30</time>
      </trkpt>
      <trkpt lat="28.29097" lon="-14.10624">
        <ele>220.6</ele>
        <time>2021-07-05 13:12:31</time>
      </trkpt>
      <trkpt lat="28.29092" lon="-14.1063">
        <ele>220</ele>
        <time>2021-07-05 13:12:32</time>
      </trkpt>
      <trkpt lat="28.29085" lon="-14.10636">
        <ele>219.4</ele>
        <time>2021-07-05 13:12:33</time>
      </trkpt>
      <trkpt lat="28.29079" lon="-14.1064">
        <ele>218.4</ele>
        <time>2021-07-05 13:12:34</time>
      </trkpt>
      <trkpt lat="28.29073" lon="-14.10641">
        <ele>218.4</ele>
        <time>2021-07-05 13:12:35</time>
      </trkpt>
      <trkpt lat="28.29067" lon="-14.10641">
        <ele>217.8</ele>
        <time>2021-07-05 13:12:36</time>
      </trkpt>
      <trkpt lat="28.2906" lon="-14.10642">
        <ele>217.2</ele>
        <time>2021-07-05 13:12:37</time>
      </trkpt>
      <trkpt lat="28.29052" lon="-14.10642">
        <ele>216.6</ele>
        <time>2021-07-05 13:12:38</time>
      </trkpt>
      <trkpt lat="28.29044" lon="-14.10644">
        <ele>216</ele>
        <time>2021-07-05 13:12:39</time>
      </trkpt>
      <trkpt lat="28.29036" lon="-14.10645">
        <ele>215.6</ele>
        <time>2021-07-05 13:12:40</time>
      </trkpt>
      <trkpt lat="28.29029" lon="-14.10647">
        <ele>215</ele>
        <time>2021-07-05 13:12:41</time>
      </trkpt>
      <trkpt lat="28.29022" lon="-14.1065">
        <ele>214.6</ele>
        <time>2021-07-05 13:12:42</time>
      </trkpt>
      <trkpt lat="28.29016" lon="-14.10653">
        <ele>214.2</ele>
        <time>2021-07-05 13:12:43</time>
      </trkpt>
      <trkpt lat="28.2901" lon="-14.10657">
        <ele>213.8</ele>
        <time>2021-07-05 13:12:44</time>
      </trkpt>
      <trkpt lat="28.29005" lon="-14.10661">
        <ele>213.4</ele>
        <time>2021-07-05 13:12:45</time>
      </trkpt>
      <trkpt lat="28.28999" lon="-14.10666">
        <ele>213.4</ele>
        <time>2021-07-05 13:12:46</time>
      </trkpt>
      <trkpt lat="28.28994" lon="-14.1067">
        <ele>213.2</ele>
        <time>2021-07-05 13:12:47</time>
      </trkpt>
      <trkpt lat="28.28989" lon="-14.10675">
        <ele>213.2</ele>
        <time>2021-07-05 13:12:48</time>
      </trkpt>
      <trkpt lat="28.28983" lon="-14.10679">
        <ele>213</ele>
        <time>2021-07-05 13:12:49</time>
      </trkpt>
      <trkpt lat="28.28977" lon="-14.10683">
        <ele>213</ele>
        <time>2021-07-05 13:12:50</time>
      </trkpt>
      <trkpt lat="28.28971" lon="-14.10686">
        <ele>212.6</ele>
        <time>2021-07-05 13:12:51</time>
      </trkpt>
      <trkpt lat="28.28964" lon="-14.10687">
        <ele>212.6</ele>
        <time>2021-07-05 13:12:52</time>
      </trkpt>
      <trkpt lat="28.28957" lon="-14.10689">
        <ele>212.4</ele>
        <time>2021-07-05 13:12:53</time>
      </trkpt>
      <trkpt lat="28.28949" lon="-14.10689">
        <ele>212</ele>
        <time>2021-07-05 13:12:54</time>
      </trkpt>
      <trkpt lat="28.28942" lon="-14.10688">
        <ele>211.8</ele>
        <time>2021-07-05 13:12:55</time>
      </trkpt>
      <trkpt lat="28.28934" lon="-14.10689">
        <ele>211.4</ele>
        <time>2021-07-05 13:12:56</time>
      </trkpt>
      <trkpt lat="28.28925" lon="-14.1069">
        <ele>210.8</ele>
        <time>2021-07-05 13:12:57</time>
      </trkpt>
      <trkpt lat="28.28918" lon="-14.10692">
        <ele>210.8</ele>
        <time>2021-07-05 13:12:58</time>
      </trkpt>
      <trkpt lat="28.2891" lon="-14.10696">
        <ele>210.2</ele>
        <time>2021-07-05 13:12:59</time>
      </trkpt>
      <trkpt lat="28.28903" lon="-14.10699">
        <ele>209.8</ele>
        <time>2021-07-05 13:13:00</time>
      </trkpt>
      <trkpt lat="28.28895" lon="-14.10704">
        <ele>209.4</ele>
        <time>2021-07-05 13:13:01</time>
      </trkpt>
      <trkpt lat="28.28889" lon="-14.1071">
        <ele>209</ele>
        <time>2021-07-05 13:13:02</time>
      </trkpt>
      <trkpt lat="28.28882" lon="-14.10716">
        <ele>208.6</ele>
        <time>2021-07-05 13:13:03</time>
      </trkpt>
      <trkpt lat="28.28875" lon="-14.10723">
        <ele>208.2</ele>
        <time>2021-07-05 13:13:04</time>
      </trkpt>
      <trkpt lat="28.28869" lon="-14.1073">
        <ele>207.2</ele>
        <time>2021-07-05 13:13:05</time>
      </trkpt>
      <trkpt lat="28.28863" lon="-14.10737">
        <ele>207.2</ele>
        <time>2021-07-05 13:13:06</time>
      </trkpt>
      <trkpt lat="28.28858" lon="-14.10744">
        <ele>206.8</ele>
        <time>2021-07-05 13:13:07</time>
      </trkpt>
      <trkpt lat="28.28853" lon="-14.10752">
        <ele>206.4</ele>
        <time>2021-07-05 13:13:08</time>
      </trkpt>
      <trkpt lat="28.28848" lon="-14.1076">
        <ele>206.2</ele>
        <time>2021-07-05 13:13:09</time>
      </trkpt>
      <trkpt lat="28.28842" lon="-14.10767">
        <ele>205.8</ele>
        <time>2021-07-05 13:13:10</time>
      </trkpt>
      <trkpt lat="28.28837" lon="-14.10774">
        <ele>205.6</ele>
        <time>2021-07-05 13:13:11</time>
      </trkpt>
      <trkpt lat="28.28832" lon="-14.10781">
        <ele>205.4</ele>
        <time>2021-07-05 13:13:12</time>
      </trkpt>
      <trkpt lat="28.28827" lon="-14.10787">
        <ele>205</ele>
        <time>2021-07-05 13:13:13</time>
      </trkpt>
      <trkpt lat="28.28823" lon="-14.10792">
        <ele>204.8</ele>
        <time>2021-07-05 13:13:14</time>
      </trkpt>
      <trkpt lat="28.28819" lon="-14.10797">
        <ele>204.8</ele>
        <time>2021-07-05 13:13:15</time>
      </trkpt>
      <trkpt lat="28.28815" lon="-14.10802">
        <ele>204.6</ele>
        <time>2021-07-05 13:13:16</time>
      </trkpt>
      <trkpt lat="28.28812" lon="-14.10808">
        <ele>204.4</ele>
        <time>2021-07-05 13:13:17</time>
      </trkpt>
      <trkpt lat="28.28807" lon="-14.10813">
        <ele>204.4</ele>
        <time>2021-07-05 13:13:18</time>
      </trkpt>
      <trkpt lat="28.28802" lon="-14.10817">
        <ele>204</ele>
        <time>2021-07-05 13:13:19</time>
      </trkpt>
      <trkpt lat="28.28797" lon="-14.10822">
        <ele>203.8</ele>
        <time>2021-07-05 13:13:20</time>
      </trkpt>
      <trkpt lat="28.28792" lon="-14.10827">
        <ele>203.8</ele>
        <time>2021-07-05 13:13:21</time>
      </trkpt>
      <trkpt lat="28.28787" lon="-14.10832">
        <ele>203</ele>
        <time>2021-07-05 13:13:22</time>
      </trkpt>
      <trkpt lat="28.28782" lon="-14.10836">
        <ele>203</ele>
        <time>2021-07-05 13:13:23</time>
      </trkpt>
      <trkpt lat="28.28776" lon="-14.1084">
        <ele>202.8</ele>
        <time>2021-07-05 13:13:24</time>
      </trkpt>
      <trkpt lat="28.28771" lon="-14.10843">
        <ele>202.6</ele>
        <time>2021-07-05 13:13:25</time>
      </trkpt>
      <trkpt lat="28.28766" lon="-14.10848">
        <ele>202.2</ele>
        <time>2021-07-05 13:13:26</time>
      </trkpt>
      <trkpt lat="28.28761" lon="-14.10852">
        <ele>201.6</ele>
        <time>2021-07-05 13:13:27</time>
      </trkpt>
      <trkpt lat="28.28756" lon="-14.10856">
        <ele>201.6</ele>
        <time>2021-07-05 13:13:28</time>
      </trkpt>
      <trkpt lat="28.28751" lon="-14.10859">
        <ele>201.2</ele>
        <time>2021-07-05 13:13:29</time>
      </trkpt>
      <trkpt lat="28.28745" lon="-14.10862">
        <ele>201.2</ele>
        <time>2021-07-05 13:13:30</time>
      </trkpt>
      <trkpt lat="28.2874" lon="-14.10865">
        <ele>200.8</ele>
        <time>2021-07-05 13:13:31</time>
      </trkpt>
      <trkpt lat="28.28735" lon="-14.10868">
        <ele>200.8</ele>
        <time>2021-07-05 13:13:32</time>
      </trkpt>
      <trkpt lat="28.28729" lon="-14.1087">
        <ele>200.8</ele>
        <time>2021-07-05 13:13:33</time>
      </trkpt>
      <trkpt lat="28.28723" lon="-14.10873">
        <ele>200.4</ele>
        <time>2021-07-05 13:13:34</time>
      </trkpt>
      <trkpt lat="28.28718" lon="-14.10876">
        <ele>200.4</ele>
        <time>2021-07-05 13:13:35</time>
      </trkpt>
      <trkpt lat="28.28712" lon="-14.10878">
        <ele>200.2</ele>
        <time>2021-07-05 13:13:36</time>
      </trkpt>
      <trkpt lat="28.28707" lon="-14.1088">
        <ele>200.2</ele>
        <time>2021-07-05 13:13:37</time>
      </trkpt>
      <trkpt lat="28.28701" lon="-14.10883">
        <ele>199.8</ele>
        <time>2021-07-05 13:13:38</time>
      </trkpt>
      <trkpt lat="28.28695" lon="-14.10885">
        <ele>199.8</ele>
        <time>2021-07-05 13:13:39</time>
      </trkpt>
      <trkpt lat="28.28689" lon="-14.10888">
        <ele>199.6</ele>
        <time>2021-07-05 13:13:40</time>
      </trkpt>
      <trkpt lat="28.28682" lon="-14.10892">
        <ele>199.2</ele>
        <time>2021-07-05 13:13:41</time>
      </trkpt>
      <trkpt lat="28.28675" lon="-14.10895">
        <ele>198.8</ele>
        <time>2021-07-05 13:13:42</time>
      </trkpt>
      <trkpt lat="28.28668" lon="-14.10898">
        <ele>198.8</ele>
        <time>2021-07-05 13:13:43</time>
      </trkpt>
      <trkpt lat="28.28661" lon="-14.10902">
        <ele>198.4</ele>
        <time>2021-07-05 13:13:44</time>
      </trkpt>
      <trkpt lat="28.28653" lon="-14.10905">
        <ele>198</ele>
        <time>2021-07-05 13:13:45</time>
      </trkpt>
      <trkpt lat="28.28645" lon="-14.10908">
        <ele>197.4</ele>
        <time>2021-07-05 13:13:46</time>
      </trkpt>
      <trkpt lat="28.28637" lon="-14.10912">
        <ele>197</ele>
        <time>2021-07-05 13:13:47</time>
      </trkpt>
      <trkpt lat="28.28629" lon="-14.10915">
        <ele>196.6</ele>
        <time>2021-07-05 13:13:48</time>
      </trkpt>
      <trkpt lat="28.28621" lon="-14.10918">
        <ele>196.2</ele>
        <time>2021-07-05 13:13:49</time>
      </trkpt>
      <trkpt lat="28.28612" lon="-14.10921">
        <ele>195.8</ele>
        <time>2021-07-05 13:13:50</time>
      </trkpt>
      <trkpt lat="28.28604" lon="-14.10925">
        <ele>195.4</ele>
        <time>2021-07-05 13:13:51</time>
      </trkpt>
      <trkpt lat="28.28595" lon="-14.10928">
        <ele>195</ele>
        <time>2021-07-05 13:13:52</time>
      </trkpt>
      <trkpt lat="28.28587" lon="-14.10932">
        <ele>194.4</ele>
        <time>2021-07-05 13:13:53</time>
      </trkpt>
      <trkpt lat="28.28578" lon="-14.10935">
        <ele>194</ele>
        <time>2021-07-05 13:13:54</time>
      </trkpt>
      <trkpt lat="28.28569" lon="-14.10938">
        <ele>193.6</ele>
        <time>2021-07-05 13:13:55</time>
      </trkpt>
      <trkpt lat="28.28561" lon="-14.10939">
        <ele>193</ele>
        <time>2021-07-05 13:13:56</time>
      </trkpt>
      <trkpt lat="28.28552" lon="-14.10941">
        <ele>192.2</ele>
        <time>2021-07-05 13:13:57</time>
      </trkpt>
      <trkpt lat="28.28543" lon="-14.10943">
        <ele>192.2</ele>
        <time>2021-07-05 13:13:58</time>
      </trkpt>
      <trkpt lat="28.28535" lon="-14.10945">
        <ele>191.8</ele>
        <time>2021-07-05 13:13:59</time>
      </trkpt>
      <trkpt lat="28.28527" lon="-14.10948">
        <ele>191.4</ele>
        <time>2021-07-05 13:14:00</time>
      </trkpt>
      <trkpt lat="28.28519" lon="-14.10952">
        <ele>190.6</ele>
        <time>2021-07-05 13:14:01</time>
      </trkpt>
      <trkpt lat="28.28512" lon="-14.10956">
        <ele>190.6</ele>
        <time>2021-07-05 13:14:02</time>
      </trkpt>
      <trkpt lat="28.28504" lon="-14.10959">
        <ele>190</ele>
        <time>2021-07-05 13:14:03</time>
      </trkpt>
      <trkpt lat="28.28498" lon="-14.10964">
        <ele>189.6</ele>
        <time>2021-07-05 13:14:04</time>
      </trkpt>
      <trkpt lat="28.2849" lon="-14.10969">
        <ele>189.4</ele>
        <time>2021-07-05 13:14:05</time>
      </trkpt>
      <trkpt lat="28.28483" lon="-14.10973">
        <ele>189.4</ele>
        <time>2021-07-05 13:14:06</time>
      </trkpt>
      <trkpt lat="28.28477" lon="-14.10978">
        <ele>188.8</ele>
        <time>2021-07-05 13:14:07</time>
      </trkpt>
      <trkpt lat="28.28471" lon="-14.10983">
        <ele>188.4</ele>
        <time>2021-07-05 13:14:08</time>
      </trkpt>
      <trkpt lat="28.28465" lon="-14.10989">
        <ele>188.4</ele>
        <time>2021-07-05 13:14:09</time>
      </trkpt>
      <trkpt lat="28.2846" lon="-14.10994">
        <ele>188.4</ele>
        <time>2021-07-05 13:14:10</time>
      </trkpt>
      <trkpt lat="28.28455" lon="-14.10999">
        <ele>187.8</ele>
        <time>2021-07-05 13:14:11</time>
      </trkpt>
      <trkpt lat="28.28449" lon="-14.11004">
        <ele>187.8</ele>
        <time>2021-07-05 13:14:12</time>
      </trkpt>
      <trkpt lat="28.28443" lon="-14.11008">
        <ele>187.8</ele>
        <time>2021-07-05 13:14:13</time>
      </trkpt>
      <trkpt lat="28.28437" lon="-14.11012">
        <ele>187.6</ele>
        <time>2021-07-05 13:14:14</time>
      </trkpt>
      <trkpt lat="28.28431" lon="-14.11015">
        <ele>187.6</ele>
        <time>2021-07-05 13:14:15</time>
      </trkpt>
      <trkpt lat="28.28424" lon="-14.11019">
        <ele>187.6</ele>
        <time>2021-07-05 13:14:16</time>
      </trkpt>
      <trkpt lat="28.28418" lon="-14.11022">
        <ele>187.2</ele>
        <time>2021-07-05 13:14:17</time>
      </trkpt>
      <trkpt lat="28.28411" lon="-14.11026">
        <ele>186.8</ele>
        <time>2021-07-05 13:14:18</time>
      </trkpt>
      <trkpt lat="28.28404" lon="-14.1103">
        <ele>186.8</ele>
        <time>2021-07-05 13:14:19</time>
      </trkpt>
      <trkpt lat="28.28397" lon="-14.11034">
        <ele>186.6</ele>
        <time>2021-07-05 13:14:20</time>
      </trkpt>
      <trkpt lat="28.28391" lon="-14.11038">
        <ele>186.6</ele>
        <time>2021-07-05 13:14:21</time>
      </trkpt>
      <trkpt lat="28.28384" lon="-14.11041">
        <ele>186.6</ele>
        <time>2021-07-05 13:14:22</time>
      </trkpt>
      <trkpt lat="28.28377" lon="-14.11044">
        <ele>186.2</ele>
        <time>2021-07-05 13:14:23</time>
      </trkpt>
      <trkpt lat="28.2837" lon="-14.11045">
        <ele>186.2</ele>
        <time>2021-07-05 13:14:24</time>
      </trkpt>
      <trkpt lat="28.28363" lon="-14.11046">
        <ele>185.6</ele>
        <time>2021-07-05 13:14:25</time>
      </trkpt>
      <trkpt lat="28.28356" lon="-14.11046">
        <ele>185.6</ele>
        <time>2021-07-05 13:14:26</time>
      </trkpt>
      <trkpt lat="28.28348" lon="-14.11047">
        <ele>185.6</ele>
        <time>2021-07-05 13:14:27</time>
      </trkpt>
      <trkpt lat="28.28341" lon="-14.11048">
        <ele>185.2</ele>
        <time>2021-07-05 13:14:28</time>
      </trkpt>
      <trkpt lat="28.28334" lon="-14.11049">
        <ele>185</ele>
        <time>2021-07-05 13:14:29</time>
      </trkpt>
      <trkpt lat="28.28327" lon="-14.11051">
        <ele>184.6</ele>
        <time>2021-07-05 13:14:30</time>
      </trkpt>
      <trkpt lat="28.28321" lon="-14.11053">
        <ele>184.6</ele>
        <time>2021-07-05 13:14:31</time>
      </trkpt>
      <trkpt lat="28.28315" lon="-14.11054">
        <ele>184.2</ele>
        <time>2021-07-05 13:14:32</time>
      </trkpt>
      <trkpt lat="28.28309" lon="-14.11054">
        <ele>184.2</ele>
        <time>2021-07-05 13:14:33</time>
      </trkpt>
      <trkpt lat="28.28303" lon="-14.11056">
        <ele>183.6</ele>
        <time>2021-07-05 13:14:34</time>
      </trkpt>
      <trkpt lat="28.28298" lon="-14.11057">
        <ele>183.4</ele>
        <time>2021-07-05 13:14:35</time>
      </trkpt>
      <trkpt lat="28.28294" lon="-14.11061">
        <ele>183</ele>
        <time>2021-07-05 13:14:36</time>
      </trkpt>
      <trkpt lat="28.2829" lon="-14.11064">
        <ele>183</ele>
        <time>2021-07-05 13:14:37</time>
      </trkpt>
      <trkpt lat="28.28288" lon="-14.11068">
        <ele>183</ele>
        <time>2021-07-05 13:14:38</time>
      </trkpt>
      <trkpt lat="28.28286" lon="-14.11072">
        <ele>182.6</ele>
        <time>2021-07-05 13:14:39</time>
      </trkpt>
      <trkpt lat="28.28284" lon="-14.11077">
        <ele>182.6</ele>
        <time>2021-07-05 13:14:40</time>
      </trkpt>
      <trkpt lat="28.28281" lon="-14.11082">
        <ele>182.4</ele>
        <time>2021-07-05 13:14:41</time>
      </trkpt>
      <trkpt lat="28.28277" lon="-14.11085">
        <ele>182.4</ele>
        <time>2021-07-05 13:14:42</time>
      </trkpt>
      <trkpt lat="28.28276" lon="-14.11091">
        <ele>182.4</ele>
        <time>2021-07-05 13:14:43</time>
      </trkpt>
      <trkpt lat="28.28272" lon="-14.11096">
        <ele>182.4</ele>
        <time>2021-07-05 13:14:44</time>
      </trkpt>
      <trkpt lat="28.2827" lon="-14.11101">
        <ele>182.4</ele>
        <time>2021-07-05 13:14:45</time>
      </trkpt>
      <trkpt lat="28.28267" lon="-14.11106">
        <ele>182.4</ele>
        <time>2021-07-05 13:14:46</time>
      </trkpt>
      <trkpt lat="28.28265" lon="-14.1111">
        <ele>182.6</ele>
        <time>2021-07-05 13:14:47</time>
      </trkpt>
      <trkpt lat="28.28263" lon="-14.11115">
        <ele>182.6</ele>
        <time>2021-07-05 13:14:48</time>
      </trkpt>
      <trkpt lat="28.28261" lon="-14.11119">
        <ele>182.6</ele>
        <time>2021-07-05 13:14:49</time>
      </trkpt>
      <trkpt lat="28.28258" lon="-14.11123">
        <ele>182.8</ele>
        <time>2021-07-05 13:14:50</time>
      </trkpt>
      <trkpt lat="28.28257" lon="-14.11127">
        <ele>182.8</ele>
        <time>2021-07-05 13:14:51</time>
      </trkpt>
      <trkpt lat="28.28254" lon="-14.1113">
        <ele>183.2</ele>
        <time>2021-07-05 13:14:52</time>
      </trkpt>
      <trkpt lat="28.28253" lon="-14.11133">
        <ele>183.2</ele>
        <time>2021-07-05 13:14:53</time>
      </trkpt>
      <trkpt lat="28.28251" lon="-14.11137">
        <ele>183.6</ele>
        <time>2021-07-05 13:14:54</time>
      </trkpt>
      <trkpt lat="28.28249" lon="-14.1114">
        <ele>183.8</ele>
        <time>2021-07-05 13:14:55</time>
      </trkpt>
      <trkpt lat="28.28248" lon="-14.11144">
        <ele>184.2</ele>
        <time>2021-07-05 13:14:56</time>
      </trkpt>
      <trkpt lat="28.28248" lon="-14.11147">
        <ele>184.4</ele>
        <time>2021-07-05 13:14:57</time>
      </trkpt>
      <trkpt lat="28.28248" lon="-14.11151">
        <ele>184.4</ele>
        <time>2021-07-05 13:14:58</time>
      </trkpt>
      <trkpt lat="28.28249" lon="-14.11154">
        <ele>185</ele>
        <time>2021-07-05 13:14:59</time>
      </trkpt>
      <trkpt lat="28.2825" lon="-14.11157">
        <ele>185</ele>
        <time>2021-07-05 13:15:00</time>
      </trkpt>
      <trkpt lat="28.28252" lon="-14.1116">
        <ele>185.4</ele>
        <time>2021-07-05 13:15:01</time>
      </trkpt>
      <trkpt lat="28.28253" lon="-14.11162">
        <ele>185.6</ele>
        <time>2021-07-05 13:15:02</time>
      </trkpt>
      <trkpt lat="28.28254" lon="-14.11165">
        <ele>186</ele>
        <time>2021-07-05 13:15:03</time>
      </trkpt>
      <trkpt lat="28.28255" lon="-14.11168">
        <ele>186.4</ele>
        <time>2021-07-05 13:15:04</time>
      </trkpt>
      <trkpt lat="28.28256" lon="-14.11171">
        <ele>186.6</ele>
        <time>2021-07-05 13:15:05</time>
      </trkpt>
      <trkpt lat="28.28257" lon="-14.11174">
        <ele>186.8</ele>
        <time>2021-07-05 13:15:06</time>
      </trkpt>
      <trkpt lat="28.28258" lon="-14.11177">
        <ele>187.2</ele>
        <time>2021-07-05 13:15:07</time>
      </trkpt>
      <trkpt lat="28.28259" lon="-14.1118">
        <ele>187.6</ele>
        <time>2021-07-05 13:15:08</time>
      </trkpt>
      <trkpt lat="28.2826" lon="-14.11182">
        <ele>188</ele>
        <time>2021-07-05 13:15:09</time>
      </trkpt>
      <trkpt lat="28.28261" lon="-14.11185">
        <ele>188</ele>
        <time>2021-07-05 13:15:10</time>
      </trkpt>
      <trkpt lat="28.28261" lon="-14.11188">
        <ele>188.4</ele>
        <time>2021-07-05 13:15:11</time>
      </trkpt>
      <trkpt lat="28.28261" lon="-14.11191">
        <ele>188.6</ele>
        <time>2021-07-05 13:15:12</time>
      </trkpt>
      <trkpt lat="28.28262" lon="-14.11194">
        <ele>188.8</ele>
        <time>2021-07-05 13:15:13</time>
      </trkpt>
      <trkpt lat="28.28261" lon="-14.11197">
        <ele>188.8</ele>
        <time>2021-07-05 13:15:14</time>
      </trkpt>
      <trkpt lat="28.28261" lon="-14.112">
        <ele>189.2</ele>
        <time>2021-07-05 13:15:15</time>
      </trkpt>
      <trkpt lat="28.28261" lon="-14.11204">
        <ele>189.4</ele>
        <time>2021-07-05 13:15:16</time>
      </trkpt>
      <trkpt lat="28.28261" lon="-14.11207">
        <ele>189.4</ele>
        <time>2021-07-05 13:15:17</time>
      </trkpt>
      <trkpt lat="28.28261" lon="-14.1121">
        <ele>189.4</ele>
        <time>2021-07-05 13:15:18</time>
      </trkpt>
      <trkpt lat="28.28261" lon="-14.11214">
        <ele>189.8</ele>
        <time>2021-07-05 13:15:19</time>
      </trkpt>
      <trkpt lat="28.28261" lon="-14.11217">
        <ele>190</ele>
        <time>2021-07-05 13:15:20</time>
      </trkpt>
      <trkpt lat="28.28261" lon="-14.11221">
        <ele>190.2</ele>
        <time>2021-07-05 13:15:21</time>
      </trkpt>
      <trkpt lat="28.2826" lon="-14.11224">
        <ele>190.4</ele>
        <time>2021-07-05 13:15:22</time>
      </trkpt>
      <trkpt lat="28.2826" lon="-14.11228">
        <ele>190.4</ele>
        <time>2021-07-05 13:15:23</time>
      </trkpt>
      <trkpt lat="28.28259" lon="-14.11231">
        <ele>190.8</ele>
        <time>2021-07-05 13:15:24</time>
      </trkpt>
      <trkpt lat="28.28259" lon="-14.11235">
        <ele>190.8</ele>
        <time>2021-07-05 13:15:25</time>
      </trkpt>
      <trkpt lat="28.28258" lon="-14.11238">
        <ele>190.8</ele>
        <time>2021-07-05 13:15:26</time>
      </trkpt>
      <trkpt lat="28.28257" lon="-14.11242">
        <ele>190.8</ele>
        <time>2021-07-05 13:15:27</time>
      </trkpt>
      <trkpt lat="28.28256" lon="-14.11246">
        <ele>190.8</ele>
        <time>2021-07-05 13:15:28</time>
      </trkpt>
      <trkpt lat="28.28255" lon="-14.11249">
        <ele>190.8</ele>
        <time>2021-07-05 13:15:29</time>
      </trkpt>
      <trkpt lat="28.28255" lon="-14.11253">
        <ele>190.8</ele>
        <time>2021-07-05 13:15:30</time>
      </trkpt>
      <trkpt lat="28.28254" lon="-14.11257">
        <ele>190.8</ele>
        <time>2021-07-05 13:15:31</time>
      </trkpt>
      <trkpt lat="28.28253" lon="-14.1126">
        <ele>190.8</ele>
        <time>2021-07-05 13:15:32</time>
      </trkpt>
      <trkpt lat="28.28252" lon="-14.11264">
        <ele>191</ele>
        <time>2021-07-05 13:15:33</time>
      </trkpt>
      <trkpt lat="28.28251" lon="-14.11268">
        <ele>191</ele>
        <time>2021-07-05 13:15:34</time>
      </trkpt>
      <trkpt lat="28.2825" lon="-14.11271">
        <ele>191</ele>
        <time>2021-07-05 13:15:35</time>
      </trkpt>
      <trkpt lat="28.28249" lon="-14.11275">
        <ele>191.4</ele>
        <time>2021-07-05 13:15:36</time>
      </trkpt>
      <trkpt lat="28.28248" lon="-14.11278">
        <ele>191.4</ele>
        <time>2021-07-05 13:15:37</time>
      </trkpt>
      <trkpt lat="28.28246" lon="-14.11282">
        <ele>191.4</ele>
        <time>2021-07-05 13:15:38</time>
      </trkpt>
      <trkpt lat="28.28244" lon="-14.11285">
        <ele>191.4</ele>
        <time>2021-07-05 13:15:39</time>
      </trkpt>
      <trkpt lat="28.28243" lon="-14.11289">
        <ele>191.4</ele>
        <time>2021-07-05 13:15:40</time>
      </trkpt>
      <trkpt lat="28.28241" lon="-14.11292">
        <ele>191.4</ele>
        <time>2021-07-05 13:15:41</time>
      </trkpt>
      <trkpt lat="28.28239" lon="-14.11295">
        <ele>191.4</ele>
        <time>2021-07-05 13:15:42</time>
      </trkpt>
      <trkpt lat="28.28237" lon="-14.11298">
        <ele>191.4</ele>
        <time>2021-07-05 13:15:43</time>
      </trkpt>
      <trkpt lat="28.28234" lon="-14.11301">
        <ele>191.2</ele>
        <time>2021-07-05 13:15:44</time>
      </trkpt>
      <trkpt lat="28.28229" lon="-14.11303">
        <ele>190.8</ele>
        <time>2021-07-05 13:15:45</time>
      </trkpt>
      <trkpt lat="28.28224" lon="-14.11304">
        <ele>190.6</ele>
        <time>2021-07-05 13:15:46</time>
      </trkpt>
      <trkpt lat="28.28219" lon="-14.11305">
        <ele>190.6</ele>
        <time>2021-07-05 13:15:47</time>
      </trkpt>
      <trkpt lat="28.28214" lon="-14.11306">
        <ele>190.2</ele>
        <time>2021-07-05 13:15:48</time>
      </trkpt>
      <trkpt lat="28.28208" lon="-14.11308">
        <ele>190.2</ele>
        <time>2021-07-05 13:15:49</time>
      </trkpt>
      <trkpt lat="28.28202" lon="-14.11309">
        <ele>190.2</ele>
        <time>2021-07-05 13:15:50</time>
      </trkpt>
      <trkpt lat="28.28196" lon="-14.11311">
        <ele>189.8</ele>
        <time>2021-07-05 13:15:51</time>
      </trkpt>
      <trkpt lat="28.28191" lon="-14.11312">
        <ele>189.8</ele>
        <time>2021-07-05 13:15:52</time>
      </trkpt>
      <trkpt lat="28.28186" lon="-14.11314">
        <ele>189.6</ele>
        <time>2021-07-05 13:15:53</time>
      </trkpt>
      <trkpt lat="28.28181" lon="-14.11315">
        <ele>189.6</ele>
        <time>2021-07-05 13:15:54</time>
      </trkpt>
      <trkpt lat="28.28176" lon="-14.11316">
        <ele>189.2</ele>
        <time>2021-07-05 13:15:55</time>
      </trkpt>
      <trkpt lat="28.28173" lon="-14.1132">
        <ele>189.2</ele>
        <time>2021-07-05 13:15:56</time>
      </trkpt>
      <trkpt lat="28.2817" lon="-14.11325">
        <ele>189.2</ele>
        <time>2021-07-05 13:15:57</time>
      </trkpt>
      <trkpt lat="28.28171" lon="-14.11329">
        <ele>189</ele>
        <time>2021-07-05 13:15:58</time>
      </trkpt>
      <trkpt lat="28.28171" lon="-14.11334">
        <ele>189</ele>
        <time>2021-07-05 13:15:59</time>
      </trkpt>
      <trkpt lat="28.28171" lon="-14.11338">
        <ele>189</ele>
        <time>2021-07-05 13:16:00</time>
      </trkpt>
      <trkpt lat="28.28171" lon="-14.11343">
        <ele>189.4</ele>
        <time>2021-07-05 13:16:01</time>
      </trkpt>
      <trkpt lat="28.28171" lon="-14.11348">
        <ele>189.4</ele>
        <time>2021-07-05 13:16:02</time>
      </trkpt>
      <trkpt lat="28.28172" lon="-14.11352">
        <ele>189.4</ele>
        <time>2021-07-05 13:16:03</time>
      </trkpt>
      <trkpt lat="28.28172" lon="-14.11357">
        <ele>189.6</ele>
        <time>2021-07-05 13:16:04</time>
      </trkpt>
      <trkpt lat="28.28172" lon="-14.11361">
        <ele>190.2</ele>
        <time>2021-07-05 13:16:05</time>
      </trkpt>
      <trkpt lat="28.28171" lon="-14.11366">
        <ele>190.2</ele>
        <time>2021-07-05 13:16:06</time>
      </trkpt>
      <trkpt lat="28.28171" lon="-14.1137">
        <ele>190.4</ele>
        <time>2021-07-05 13:16:07</time>
      </trkpt>
      <trkpt lat="28.28171" lon="-14.11374">
        <ele>190.8</ele>
        <time>2021-07-05 13:16:08</time>
      </trkpt>
      <trkpt lat="28.28169" lon="-14.11378">
        <ele>191</ele>
        <time>2021-07-05 13:16:09</time>
      </trkpt>
      <trkpt lat="28.28166" lon="-14.11381">
        <ele>191.2</ele>
        <time>2021-07-05 13:16:10</time>
      </trkpt>
      <trkpt lat="28.28161" lon="-14.11381">
        <ele>191.4</ele>
        <time>2021-07-05 13:16:11</time>
      </trkpt>
      <trkpt lat="28.28156" lon="-14.11382">
        <ele>191.4</ele>
        <time>2021-07-05 13:16:12</time>
      </trkpt>
      <trkpt lat="28.28151" lon="-14.11382">
        <ele>191.8</ele>
        <time>2021-07-05 13:16:13</time>
      </trkpt>
      <trkpt lat="28.28147" lon="-14.11384">
        <ele>191.8</ele>
        <time>2021-07-05 13:16:14</time>
      </trkpt>
      <trkpt lat="28.28142" lon="-14.11384">
        <ele>191.8</ele>
        <time>2021-07-05 13:16:15</time>
      </trkpt>
      <trkpt lat="28.28138" lon="-14.11385">
        <ele>192</ele>
        <time>2021-07-05 13:16:16</time>
      </trkpt>
      <trkpt lat="28.28133" lon="-14.11385">
        <ele>192.4</ele>
        <time>2021-07-05 13:16:17</time>
      </trkpt>
      <trkpt lat="28.28129" lon="-14.11385">
        <ele>192.4</ele>
        <time>2021-07-05 13:16:18</time>
      </trkpt>
      <trkpt lat="28.28125" lon="-14.11385">
        <ele>192.4</ele>
        <time>2021-07-05 13:16:19</time>
      </trkpt>
      <trkpt lat="28.2812" lon="-14.11386">
        <ele>192.4</ele>
        <time>2021-07-05 13:16:20</time>
      </trkpt>
      <trkpt lat="28.28116" lon="-14.11388">
        <ele>192.4</ele>
        <time>2021-07-05 13:16:21</time>
      </trkpt>
      <trkpt lat="28.28111" lon="-14.1139">
        <ele>192.4</ele>
        <time>2021-07-05 13:16:22</time>
      </trkpt>
      <trkpt lat="28.28107" lon="-14.11393">
        <ele>192</ele>
        <time>2021-07-05 13:16:23</time>
      </trkpt>
      <trkpt lat="28.28103" lon="-14.11396">
        <ele>191.8</ele>
        <time>2021-07-05 13:16:24</time>
      </trkpt>
      <trkpt lat="28.28098" lon="-14.114">
        <ele>191.8</ele>
        <time>2021-07-05 13:16:25</time>
      </trkpt>
      <trkpt lat="28.28093" lon="-14.11405">
        <ele>191.4</ele>
        <time>2021-07-05 13:16:26</time>
      </trkpt>
      <trkpt lat="28.28087" lon="-14.11409">
        <ele>190.8</ele>
        <time>2021-07-05 13:16:27</time>
      </trkpt>
      <trkpt lat="28.2808" lon="-14.11414">
        <ele>190.8</ele>
        <time>2021-07-05 13:16:28</time>
      </trkpt>
      <trkpt lat="28.28074" lon="-14.11417">
        <ele>190.8</ele>
        <time>2021-07-05 13:16:29</time>
      </trkpt>
      <trkpt lat="28.28068" lon="-14.11421">
        <ele>190.4</ele>
        <time>2021-07-05 13:16:30</time>
      </trkpt>
      <trkpt lat="28.28063" lon="-14.11423">
        <ele>190.4</ele>
        <time>2021-07-05 13:16:31</time>
      </trkpt>
      <trkpt lat="28.28059" lon="-14.11426">
        <ele>190.4</ele>
        <time>2021-07-05 13:16:32</time>
      </trkpt>
      <trkpt lat="28.28055" lon="-14.11428">
        <ele>190.4</ele>
        <time>2021-07-05 13:16:33</time>
      </trkpt>
      <trkpt lat="28.28052" lon="-14.1143">
        <ele>191</ele>
        <time>2021-07-05 13:16:34</time>
      </trkpt>
      <trkpt lat="28.28049" lon="-14.11432">
        <ele>191</ele>
        <time>2021-07-05 13:16:35</time>
      </trkpt>
      <trkpt lat="28.28046" lon="-14.11433">
        <ele>191.2</ele>
        <time>2021-07-05 13:16:36</time>
      </trkpt>
      <trkpt lat="28.28044" lon="-14.11434">
        <ele>191.6</ele>
        <time>2021-07-05 13:16:37</time>
      </trkpt>
      <trkpt lat="28.28042" lon="-14.11436">
        <ele>192.2</ele>
        <time>2021-07-05 13:16:38</time>
      </trkpt>
      <trkpt lat="28.2804" lon="-14.11438">
        <ele>192.2</ele>
        <time>2021-07-05 13:16:39</time>
      </trkpt>
      <trkpt lat="28.28039" lon="-14.11439">
        <ele>192.6</ele>
        <time>2021-07-05 13:16:40</time>
      </trkpt>
      <trkpt lat="28.28039" lon="-14.11441">
        <ele>192.6</ele>
        <time>2021-07-05 13:16:41</time>
      </trkpt>
      <trkpt lat="28.28037" lon="-14.11442">
        <ele>193</ele>
        <time>2021-07-05 13:16:42</time>
      </trkpt>
      <trkpt lat="28.28036" lon="-14.11443">
        <ele>193</ele>
        <time>2021-07-05 13:16:43</time>
      </trkpt>
      <trkpt lat="28.28034" lon="-14.11444">
        <ele>193.2</ele>
        <time>2021-07-05 13:16:44</time>
      </trkpt>
      <trkpt lat="28.28033" lon="-14.11445">
        <ele>193.2</ele>
        <time>2021-07-05 13:16:45</time>
      </trkpt>
      <trkpt lat="28.28031" lon="-14.11447">
        <ele>193.2</ele>
        <time>2021-07-05 13:16:46</time>
      </trkpt>
      <trkpt lat="28.28028" lon="-14.11449">
        <ele>193.2</ele>
        <time>2021-07-05 13:16:47</time>
      </trkpt>
      <trkpt lat="28.28026" lon="-14.11451">
        <ele>193.2</ele>
        <time>2021-07-05 13:16:48</time>
      </trkpt>
      <trkpt lat="28.28024" lon="-14.11453">
        <ele>193.2</ele>
        <time>2021-07-05 13:16:49</time>
      </trkpt>
      <trkpt lat="28.28021" lon="-14.11456">
        <ele>193.2</ele>
        <time>2021-07-05 13:16:50</time>
      </trkpt>
      <trkpt lat="28.28019" lon="-14.1146">
        <ele>193</ele>
        <time>2021-07-05 13:16:51</time>
      </trkpt>
      <trkpt lat="28.28017" lon="-14.11464">
        <ele>192.8</ele>
        <time>2021-07-05 13:16:52</time>
      </trkpt>
      <trkpt lat="28.28015" lon="-14.11468">
        <ele>192.8</ele>
        <time>2021-07-05 13:16:53</time>
      </trkpt>
      <trkpt lat="28.28013" lon="-14.11472">
        <ele>192.8</ele>
        <time>2021-07-05 13:16:54</time>
      </trkpt>
      <trkpt lat="28.28012" lon="-14.11477">
        <ele>192.8</ele>
        <time>2021-07-05 13:16:55</time>
      </trkpt>
      <trkpt lat="28.2801" lon="-14.11481">
        <ele>192.8</ele>
        <time>2021-07-05 13:16:56</time>
      </trkpt>
      <trkpt lat="28.28008" lon="-14.11485">
        <ele>192.8</ele>
        <time>2021-07-05 13:16:57</time>
      </trkpt>
      <trkpt lat="28.28006" lon="-14.1149">
        <ele>192.8</ele>
        <time>2021-07-05 13:16:58</time>
      </trkpt>
      <trkpt lat="28.28005" lon="-14.11494">
        <ele>192.8</ele>
        <time>2021-07-05 13:16:59</time>
      </trkpt>
      <trkpt lat="28.28003" lon="-14.11498">
        <ele>193</ele>
        <time>2021-07-05 13:17:00</time>
      </trkpt>
      <trkpt lat="28.28001" lon="-14.11502">
        <ele>193</ele>
        <time>2021-07-05 13:17:01</time>
      </trkpt>
      <trkpt lat="28.28" lon="-14.11506">
        <ele>193</ele>
        <time>2021-07-05 13:17:02</time>
      </trkpt>
      <trkpt lat="28.27998" lon="-14.1151">
        <ele>193</ele>
        <time>2021-07-05 13:17:03</time>
      </trkpt>
      <trkpt lat="28.27997" lon="-14.11514">
        <ele>193</ele>
        <time>2021-07-05 13:17:04</time>
      </trkpt>
      <trkpt lat="28.27995" lon="-14.11517">
        <ele>193</ele>
        <time>2021-07-05 13:17:05</time>
      </trkpt>
      <trkpt lat="28.27994" lon="-14.11521">
        <ele>193.4</ele>
        <time>2021-07-05 13:17:06</time>
      </trkpt>
      <trkpt lat="28.27993" lon="-14.11523">
        <ele>193.4</ele>
        <time>2021-07-05 13:17:07</time>
      </trkpt>
      <trkpt lat="28.27993" lon="-14.11525">
        <ele>193.8</ele>
        <time>2021-07-05 13:17:08</time>
      </trkpt>
      <trkpt lat="28.27992" lon="-14.11527">
        <ele>193.8</ele>
        <time>2021-07-05 13:17:09</time>
      </trkpt>
      <trkpt lat="28.27991" lon="-14.11529">
        <ele>194</ele>
        <time>2021-07-05 13:17:10</time>
      </trkpt>
      <trkpt lat="28.2799" lon="-14.1153">
        <ele>194</ele>
        <time>2021-07-05 13:17:11</time>
      </trkpt>
      <trkpt lat="28.27989" lon="-14.11532">
        <ele>194.2</ele>
        <time>2021-07-05 13:17:12</time>
      </trkpt>
      <trkpt lat="28.27989" lon="-14.11534">
        <ele>194.2</ele>
        <time>2021-07-05 13:17:13</time>
      </trkpt>
      <trkpt lat="28.27987" lon="-14.11535">
        <ele>194.6</ele>
        <time>2021-07-05 13:17:14</time>
      </trkpt>
      <trkpt lat="28.27986" lon="-14.11537">
        <ele>194.8</ele>
        <time>2021-07-05 13:17:15</time>
      </trkpt>
      <trkpt lat="28.27985" lon="-14.11538">
        <ele>194.8</ele>
        <time>2021-07-05 13:17:16</time>
      </trkpt>
      <trkpt lat="28.27983" lon="-14.1154">
        <ele>194.8</ele>
        <time>2021-07-05 13:17:17</time>
      </trkpt>
      <trkpt lat="28.27982" lon="-14.11541">
        <ele>194.8</ele>
        <time>2021-07-05 13:17:18</time>
      </trkpt>
      <trkpt lat="28.2798" lon="-14.11543">
        <ele>195.2</ele>
        <time>2021-07-05 13:17:19</time>
      </trkpt>
      <trkpt lat="28.27979" lon="-14.11544">
        <ele>195.2</ele>
        <time>2021-07-05 13:17:20</time>
      </trkpt>
      <trkpt lat="28.27977" lon="-14.11546">
        <ele>195.2</ele>
        <time>2021-07-05 13:17:21</time>
      </trkpt>
      <trkpt lat="28.27975" lon="-14.11547">
        <ele>195.2</ele>
        <time>2021-07-05 13:17:22</time>
      </trkpt>
      <trkpt lat="28.27974" lon="-14.11549">
        <ele>195.8</ele>
        <time>2021-07-05 13:17:23</time>
      </trkpt>
      <trkpt lat="28.27972" lon="-14.1155">
        <ele>195.8</ele>
        <time>2021-07-05 13:17:24</time>
      </trkpt>
      <trkpt lat="28.2797" lon="-14.11552">
        <ele>195.8</ele>
        <time>2021-07-05 13:17:25</time>
      </trkpt>
      <trkpt lat="28.27969" lon="-14.11553">
        <ele>196</ele>
        <time>2021-07-05 13:17:26</time>
      </trkpt>
      <trkpt lat="28.27967" lon="-14.11554">
        <ele>196</ele>
        <time>2021-07-05 13:17:27</time>
      </trkpt>
      <trkpt lat="28.27965" lon="-14.11556">
        <ele>196.4</ele>
        <time>2021-07-05 13:17:28</time>
      </trkpt>
      <trkpt lat="28.27963" lon="-14.11558">
        <ele>196.6</ele>
        <time>2021-07-05 13:17:29</time>
      </trkpt>
      <trkpt lat="28.27961" lon="-14.11559">
        <ele>196.6</ele>
        <time>2021-07-05 13:17:30</time>
      </trkpt>
      <trkpt lat="28.27959" lon="-14.1156">
        <ele>197</ele>
        <time>2021-07-05 13:17:31</time>
      </trkpt>
      <trkpt lat="28.27957" lon="-14.11561">
        <ele>197</ele>
        <time>2021-07-05 13:17:32</time>
      </trkpt>
      <trkpt lat="28.27956" lon="-14.11562">
        <ele>197.2</ele>
        <time>2021-07-05 13:17:33</time>
      </trkpt>
      <trkpt lat="28.27955" lon="-14.11563">
        <ele>197.4</ele>
        <time>2021-07-05 13:17:34</time>
      </trkpt>
      <trkpt lat="28.27953" lon="-14.11564">
        <ele>197.4</ele>
        <time>2021-07-05 13:17:35</time>
      </trkpt>
      <trkpt lat="28.27951" lon="-14.11566">
        <ele>197.8</ele>
        <time>2021-07-05 13:17:36</time>
      </trkpt>
      <trkpt lat="28.2795" lon="-14.11567">
        <ele>197.8</ele>
        <time>2021-07-05 13:17:37</time>
      </trkpt>
      <trkpt lat="28.27948" lon="-14.11568">
        <ele>197.8</ele>
        <time>2021-07-05 13:17:38</time>
      </trkpt>
      <trkpt lat="28.27946" lon="-14.1157">
        <ele>198.2</ele>
        <time>2021-07-05 13:17:39</time>
      </trkpt>
      <trkpt lat="28.27945" lon="-14.11571">
        <ele>198.2</ele>
        <time>2021-07-05 13:17:40</time>
      </trkpt>
      <trkpt lat="28.27943" lon="-14.11572">
        <ele>198.4</ele>
        <time>2021-07-05 13:17:41</time>
      </trkpt>
      <trkpt lat="28.27942" lon="-14.11573">
        <ele>198.8</ele>
        <time>2021-07-05 13:17:42</time>
      </trkpt>
      <trkpt lat="28.2794" lon="-14.11574">
        <ele>198.8</ele>
        <time>2021-07-05 13:17:43</time>
      </trkpt>
      <trkpt lat="28.27939" lon="-14.11576">
        <ele>198.8</ele>
        <time>2021-07-05 13:17:44</time>
      </trkpt>
      <trkpt lat="28.27937" lon="-14.11577">
        <ele>199</ele>
        <time>2021-07-05 13:17:45</time>
      </trkpt>
      <trkpt lat="28.27935" lon="-14.11578">
        <ele>199.2</ele>
        <time>2021-07-05 13:17:46</time>
      </trkpt>
      <trkpt lat="28.27933" lon="-14.11578">
        <ele>199.2</ele>
        <time>2021-07-05 13:17:47</time>
      </trkpt>
      <trkpt lat="28.27932" lon="-14.11579">
        <ele>199.4</ele>
        <time>2021-07-05 13:17:48</time>
      </trkpt>
      <trkpt lat="28.2793" lon="-14.11579">
        <ele>199.6</ele>
        <time>2021-07-05 13:17:49</time>
      </trkpt>
      <trkpt lat="28.27929" lon="-14.1158">
        <ele>200</ele>
        <time>2021-07-05 13:17:50</time>
      </trkpt>
      <trkpt lat="28.27927" lon="-14.11581">
        <ele>200</ele>
        <time>2021-07-05 13:17:51</time>
      </trkpt>
      <trkpt lat="28.27925" lon="-14.11581">
        <ele>200</ele>
        <time>2021-07-05 13:17:52</time>
      </trkpt>
      <trkpt lat="28.27923" lon="-14.11582">
        <ele>200.2</ele>
        <time>2021-07-05 13:17:53</time>
      </trkpt>
      <trkpt lat="28.27922" lon="-14.11582">
        <ele>200.4</ele>
        <time>2021-07-05 13:17:54</time>
      </trkpt>
      <trkpt lat="28.2792" lon="-14.11582">
        <ele>200.8</ele>
        <time>2021-07-05 13:17:55</time>
      </trkpt>
      <trkpt lat="28.27918" lon="-14.11582">
        <ele>200.8</ele>
        <time>2021-07-05 13:17:56</time>
      </trkpt>
      <trkpt lat="28.27917" lon="-14.11583">
        <ele>201.2</ele>
        <time>2021-07-05 13:17:57</time>
      </trkpt>
      <trkpt lat="28.27916" lon="-14.11583">
        <ele>201.2</ele>
        <time>2021-07-05 13:17:58</time>
      </trkpt>
      <trkpt lat="28.27914" lon="-14.11584">
        <ele>201.2</ele>
        <time>2021-07-05 13:17:59</time>
      </trkpt>
      <trkpt lat="28.27913" lon="-14.11584">
        <ele>201.4</ele>
        <time>2021-07-05 13:18:00</time>
      </trkpt>
      <trkpt lat="28.27911" lon="-14.11585">
        <ele>201.8</ele>
        <time>2021-07-05 13:18:01</time>
      </trkpt>
      <trkpt lat="28.27911" lon="-14.11586">
        <ele>202</ele>
        <time>2021-07-05 13:18:02</time>
      </trkpt>
      <trkpt lat="28.2791" lon="-14.11586">
        <ele>202.2</ele>
        <time>2021-07-05 13:18:03</time>
      </trkpt>
      <trkpt lat="28.2791" lon="-14.11586">
        <ele>202.6</ele>
        <time>2021-07-05 13:18:04</time>
      </trkpt>
      <trkpt lat="28.2791" lon="-14.11586">
        <ele>202.8</ele>
        <time>2021-07-05 13:18:05</time>
      </trkpt>
      <trkpt lat="28.27909" lon="-14.11586">
        <ele>202.8</ele>
        <time>2021-07-05 13:18:06</time>
      </trkpt>
      <trkpt lat="28.27908" lon="-14.11586">
        <ele>203.6</ele>
        <time>2021-07-05 13:18:07</time>
      </trkpt>
      <trkpt lat="28.27907" lon="-14.11587">
        <ele>203.6</ele>
        <time>2021-07-05 13:18:10</time>
      </trkpt>
      <trkpt lat="28.27906" lon="-14.11587">
        <ele>204</ele>
        <time>2021-07-05 13:18:11</time>
      </trkpt>
      <trkpt lat="28.27906" lon="-14.11587">
        <ele>204.2</ele>
        <time>2021-07-05 13:18:12</time>
      </trkpt>
      <trkpt lat="28.27905" lon="-14.11587">
        <ele>204.4</ele>
        <time>2021-07-05 13:18:13</time>
      </trkpt>
      <trkpt lat="28.27904" lon="-14.11587">
        <ele>204.4</ele>
        <time>2021-07-05 13:18:14</time>
      </trkpt>
      <trkpt lat="28.27903" lon="-14.11588">
        <ele>204.8</ele>
        <time>2021-07-05 13:18:15</time>
      </trkpt>
      <trkpt lat="28.27902" lon="-14.11588">
        <ele>204.8</ele>
        <time>2021-07-05 13:18:16</time>
      </trkpt>
      <trkpt lat="28.27901" lon="-14.11588">
        <ele>205.2</ele>
        <time>2021-07-05 13:18:17</time>
      </trkpt>
      <trkpt lat="28.279" lon="-14.11589">
        <ele>205.4</ele>
        <time>2021-07-05 13:18:18</time>
      </trkpt>
      <trkpt lat="28.27899" lon="-14.11589">
        <ele>205.4</ele>
        <time>2021-07-05 13:18:19</time>
      </trkpt>
      <trkpt lat="28.27898" lon="-14.11589">
        <ele>206</ele>
        <time>2021-07-05 13:18:20</time>
      </trkpt>
      <trkpt lat="28.27897" lon="-14.1159">
        <ele>206</ele>
        <time>2021-07-05 13:18:21</time>
      </trkpt>
      <trkpt lat="28.27896" lon="-14.1159">
        <ele>206.2</ele>
        <time>2021-07-05 13:18:22</time>
      </trkpt>
      <trkpt lat="28.27896" lon="-14.1159">
        <ele>206.2</ele>
        <time>2021-07-05 13:18:23</time>
      </trkpt>
      <trkpt lat="28.27895" lon="-14.11591">
        <ele>206.2</ele>
        <time>2021-07-05 13:18:24</time>
      </trkpt>
      <trkpt lat="28.27894" lon="-14.11591">
        <ele>206.6</ele>
        <time>2021-07-05 13:18:25</time>
      </trkpt>
      <trkpt lat="28.27893" lon="-14.11592">
        <ele>206.8</ele>
        <time>2021-07-05 13:18:26</time>
      </trkpt>
      <trkpt lat="28.27892" lon="-14.11592">
        <ele>207</ele>
        <time>2021-07-05 13:18:27</time>
      </trkpt>
      <trkpt lat="28.27891" lon="-14.11593">
        <ele>207.4</ele>
        <time>2021-07-05 13:18:28</time>
      </trkpt>
      <trkpt lat="28.2789" lon="-14.11593">
        <ele>207.4</ele>
        <time>2021-07-05 13:18:29</time>
      </trkpt>
      <trkpt lat="28.27889" lon="-14.11594">
        <ele>207.8</ele>
        <time>2021-07-05 13:18:30</time>
      </trkpt>
      <trkpt lat="28.27888" lon="-14.11594">
        <ele>208.4</ele>
        <time>2021-07-05 13:18:31</time>
      </trkpt>
      <trkpt lat="28.27887" lon="-14.11594">
        <ele>208.4</ele>
        <time>2021-07-05 13:18:32</time>
      </trkpt>
      <trkpt lat="28.27886" lon="-14.11595">
        <ele>208.4</ele>
        <time>2021-07-05 13:18:33</time>
      </trkpt>
      <trkpt lat="28.27885" lon="-14.11595">
        <ele>208.8</ele>
        <time>2021-07-05 13:18:34</time>
      </trkpt>
      <trkpt lat="28.27884" lon="-14.11595">
        <ele>209</ele>
        <time>2021-07-05 13:18:35</time>
      </trkpt>
      <trkpt lat="28.27883" lon="-14.11596">
        <ele>209.2</ele>
        <time>2021-07-05 13:18:36</time>
      </trkpt>
      <trkpt lat="28.27881" lon="-14.11597">
        <ele>209.6</ele>
        <time>2021-07-05 13:18:37</time>
      </trkpt>
      <trkpt lat="28.2788" lon="-14.11597">
        <ele>209.6</ele>
        <time>2021-07-05 13:18:38</time>
      </trkpt>
      <trkpt lat="28.27879" lon="-14.11598">
        <ele>210</ele>
        <time>2021-07-05 13:18:39</time>
      </trkpt>
      <trkpt lat="28.27878" lon="-14.11598">
        <ele>210.4</ele>
        <time>2021-07-05 13:18:40</time>
      </trkpt>
      <trkpt lat="28.27878" lon="-14.11599">
        <ele>210.4</ele>
        <time>2021-07-05 13:18:41</time>
      </trkpt>
      <trkpt lat="28.27877" lon="-14.11599">
        <ele>211</ele>
        <time>2021-07-05 13:18:42</time>
      </trkpt>
      <trkpt lat="28.27877" lon="-14.11599">
        <ele>211</ele>
        <time>2021-07-05 13:18:43</time>
      </trkpt>
      <trkpt lat="28.27876" lon="-14.11599">
        <ele>211</ele>
        <time>2021-07-05 13:18:44</time>
      </trkpt>
      <trkpt lat="28.27876" lon="-14.11599">
        <ele>211.2</ele>
        <time>2021-07-05 13:18:45</time>
      </trkpt>
      <trkpt lat="28.27875" lon="-14.116">
        <ele>211.6</ele>
        <time>2021-07-05 13:18:46</time>
      </trkpt>
      <trkpt lat="28.27873" lon="-14.116">
        <ele>211.6</ele>
        <time>2021-07-05 13:18:47</time>
      </trkpt>
      <trkpt lat="28.27872" lon="-14.116">
        <ele>211.6</ele>
        <time>2021-07-05 13:18:48</time>
      </trkpt>
      <trkpt lat="28.27869" lon="-14.116">
        <ele>211.8</ele>
        <time>2021-07-05 13:18:49</time>
      </trkpt>
      <trkpt lat="28.27867" lon="-14.116">
        <ele>211.8</ele>
        <time>2021-07-05 13:18:50</time>
      </trkpt>
      <trkpt lat="28.27864" lon="-14.11599">
        <ele>211.8</ele>
        <time>2021-07-05 13:18:51</time>
      </trkpt>
      <trkpt lat="28.2786" lon="-14.11598">
        <ele>211.4</ele>
        <time>2021-07-05 13:18:52</time>
      </trkpt>
      <trkpt lat="28.27857" lon="-14.11596">
        <ele>211.4</ele>
        <time>2021-07-05 13:18:53</time>
      </trkpt>
      <trkpt lat="28.27852" lon="-14.11594">
        <ele>211</ele>
        <time>2021-07-05 13:18:54</time>
      </trkpt>
      <trkpt lat="28.27846" lon="-14.11593">
        <ele>210.6</ele>
        <time>2021-07-05 13:18:55</time>
      </trkpt>
      <trkpt lat="28.2784" lon="-14.11591">
        <ele>210.6</ele>
        <time>2021-07-05 13:18:56</time>
      </trkpt>
      <trkpt lat="28.27833" lon="-14.11589">
        <ele>209.8</ele>
        <time>2021-07-05 13:18:57</time>
      </trkpt>
      <trkpt lat="28.27826" lon="-14.11588">
        <ele>209.8</ele>
        <time>2021-07-05 13:18:58</time>
      </trkpt>
      <trkpt lat="28.27818" lon="-14.11588">
        <ele>209.2</ele>
        <time>2021-07-05 13:18:59</time>
      </trkpt>
      <trkpt lat="28.27812" lon="-14.11589">
        <ele>208.6</ele>
        <time>2021-07-05 13:19:00</time>
      </trkpt>
      <trkpt lat="28.27805" lon="-14.1159">
        <ele>208</ele>
        <time>2021-07-05 13:19:01</time>
      </trkpt>
      <trkpt lat="28.27799" lon="-14.11591">
        <ele>207.4</ele>
        <time>2021-07-05 13:19:02</time>
      </trkpt>
      <trkpt lat="28.27794" lon="-14.11591">
        <ele>207.2</ele>
        <time>2021-07-05 13:19:03</time>
      </trkpt>
      <trkpt lat="28.27791" lon="-14.11591">
        <ele>206.8</ele>
        <time>2021-07-05 13:19:04</time>
      </trkpt>
      <trkpt lat="28.27788" lon="-14.11589">
        <ele>206.8</ele>
        <time>2021-07-05 13:19:05</time>
      </trkpt>
      <trkpt lat="28.27784" lon="-14.11588">
        <ele>206.4</ele>
        <time>2021-07-05 13:19:06</time>
      </trkpt>
      <trkpt lat="28.2778" lon="-14.11587">
        <ele>206</ele>
        <time>2021-07-05 13:19:07</time>
      </trkpt>
      <trkpt lat="28.27777" lon="-14.11586">
        <ele>205.8</ele>
        <time>2021-07-05 13:19:08</time>
      </trkpt>
      <trkpt lat="28.27774" lon="-14.11584">
        <ele>205.4</ele>
        <time>2021-07-05 13:19:09</time>
      </trkpt>
      <trkpt lat="28.27771" lon="-14.11583">
        <ele>204.4</ele>
        <time>2021-07-05 13:19:10</time>
      </trkpt>
      <trkpt lat="28.27768" lon="-14.11582">
        <ele>203.8</ele>
        <time>2021-07-05 13:19:11</time>
      </trkpt>
      <trkpt lat="28.27764" lon="-14.11581">
        <ele>203.8</ele>
        <time>2021-07-05 13:19:12</time>
      </trkpt>
      <trkpt lat="28.27761" lon="-14.1158">
        <ele>202.8</ele>
        <time>2021-07-05 13:19:13</time>
      </trkpt>
      <trkpt lat="28.27758" lon="-14.11579">
        <ele>202.8</ele>
        <time>2021-07-05 13:19:14</time>
      </trkpt>
      <trkpt lat="28.27755" lon="-14.11579">
        <ele>202.4</ele>
        <time>2021-07-05 13:19:15</time>
      </trkpt>
      <trkpt lat="28.27752" lon="-14.11578">
        <ele>201.8</ele>
        <time>2021-07-05 13:19:16</time>
      </trkpt>
      <trkpt lat="28.27747" lon="-14.11577">
        <ele>201.2</ele>
        <time>2021-07-05 13:19:17</time>
      </trkpt>
      <trkpt lat="28.27744" lon="-14.11577">
        <ele>200.6</ele>
        <time>2021-07-05 13:19:18</time>
      </trkpt>
      <trkpt lat="28.27739" lon="-14.11577">
        <ele>200.2</ele>
        <time>2021-07-05 13:19:19</time>
      </trkpt>
      <trkpt lat="28.27735" lon="-14.11578">
        <ele>199.6</ele>
        <time>2021-07-05 13:19:20</time>
      </trkpt>
      <trkpt lat="28.27731" lon="-14.11579">
        <ele>199.2</ele>
        <time>2021-07-05 13:19:21</time>
      </trkpt>
      <trkpt lat="28.27728" lon="-14.1158">
        <ele>198.8</ele>
        <time>2021-07-05 13:19:22</time>
      </trkpt>
      <trkpt lat="28.27724" lon="-14.1158">
        <ele>198.4</ele>
        <time>2021-07-05 13:19:23</time>
      </trkpt>
      <trkpt lat="28.2772" lon="-14.11581">
        <ele>198.2</ele>
        <time>2021-07-05 13:19:24</time>
      </trkpt>
      <trkpt lat="28.27717" lon="-14.11582">
        <ele>197.8</ele>
        <time>2021-07-05 13:19:25</time>
      </trkpt>
      <trkpt lat="28.27713" lon="-14.11582">
        <ele>197.4</ele>
        <time>2021-07-05 13:19:26</time>
      </trkpt>
      <trkpt lat="28.2771" lon="-14.11583">
        <ele>197</ele>
        <time>2021-07-05 13:19:27</time>
      </trkpt>
      <trkpt lat="28.27706" lon="-14.11584">
        <ele>196.6</ele>
        <time>2021-07-05 13:19:28</time>
      </trkpt>
      <trkpt lat="28.27703" lon="-14.11585">
        <ele>196.2</ele>
        <time>2021-07-05 13:19:29</time>
      </trkpt>
      <trkpt lat="28.27699" lon="-14.11586">
        <ele>195.8</ele>
        <time>2021-07-05 13:19:30</time>
      </trkpt>
      <trkpt lat="28.27694" lon="-14.11586">
        <ele>195.4</ele>
        <time>2021-07-05 13:19:31</time>
      </trkpt>
      <trkpt lat="28.2769" lon="-14.11586">
        <ele>195</ele>
        <time>2021-07-05 13:19:32</time>
      </trkpt>
      <trkpt lat="28.27685" lon="-14.11587">
        <ele>194.4</ele>
        <time>2021-07-05 13:19:33</time>
      </trkpt>
      <trkpt lat="28.2768" lon="-14.11588">
        <ele>194</ele>
        <time>2021-07-05 13:19:34</time>
      </trkpt>
      <trkpt lat="28.27676" lon="-14.11589">
        <ele>193.6</ele>
        <time>2021-07-05 13:19:35</time>
      </trkpt>
      <trkpt lat="28.27673" lon="-14.1159">
        <ele>193.4</ele>
        <time>2021-07-05 13:19:36</time>
      </trkpt>
      <trkpt lat="28.27669" lon="-14.1159">
        <ele>193</ele>
        <time>2021-07-05 13:19:37</time>
      </trkpt>
      <trkpt lat="28.27666" lon="-14.11591">
        <ele>192.8</ele>
        <time>2021-07-05 13:19:38</time>
      </trkpt>
      <trkpt lat="28.27662" lon="-14.11592">
        <ele>192.6</ele>
        <time>2021-07-05 13:19:39</time>
      </trkpt>
      <trkpt lat="28.27659" lon="-14.11591">
        <ele>192.2</ele>
        <time>2021-07-05 13:19:40</time>
      </trkpt>
      <trkpt lat="28.27655" lon="-14.1159">
        <ele>192.2</ele>
        <time>2021-07-05 13:19:41</time>
      </trkpt>
      <trkpt lat="28.27651" lon="-14.1159">
        <ele>191.8</ele>
        <time>2021-07-05 13:19:42</time>
      </trkpt>
      <trkpt lat="28.27647" lon="-14.11589">
        <ele>191.6</ele>
        <time>2021-07-05 13:19:43</time>
      </trkpt>
      <trkpt lat="28.27643" lon="-14.11589">
        <ele>191.6</ele>
        <time>2021-07-05 13:19:44</time>
      </trkpt>
      <trkpt lat="28.27638" lon="-14.11589">
        <ele>191</ele>
        <time>2021-07-05 13:19:45</time>
      </trkpt>
      <trkpt lat="28.27634" lon="-14.11589">
        <ele>190.8</ele>
        <time>2021-07-05 13:19:46</time>
      </trkpt>
      <trkpt lat="28.2763" lon="-14.1159">
        <ele>190.4</ele>
        <time>2021-07-05 13:19:47</time>
      </trkpt>
      <trkpt lat="28.27625" lon="-14.11589">
        <ele>190</ele>
        <time>2021-07-05 13:19:48</time>
      </trkpt>
      <trkpt lat="28.27621" lon="-14.11588">
        <ele>190</ele>
        <time>2021-07-05 13:19:49</time>
      </trkpt>
      <trkpt lat="28.27616" lon="-14.11587">
        <ele>189.6</ele>
        <time>2021-07-05 13:19:50</time>
      </trkpt>
      <trkpt lat="28.27611" lon="-14.11586">
        <ele>189.4</ele>
        <time>2021-07-05 13:19:51</time>
      </trkpt>
      <trkpt lat="28.27606" lon="-14.11585">
        <ele>188.8</ele>
        <time>2021-07-05 13:19:52</time>
      </trkpt>
      <trkpt lat="28.27601" lon="-14.11584">
        <ele>188.4</ele>
        <time>2021-07-05 13:19:53</time>
      </trkpt>
      <trkpt lat="28.27597" lon="-14.11584">
        <ele>188</ele>
        <time>2021-07-05 13:19:54</time>
      </trkpt>
      <trkpt lat="28.27592" lon="-14.11584">
        <ele>187.6</ele>
        <time>2021-07-05 13:19:55</time>
      </trkpt>
      <trkpt lat="28.27588" lon="-14.11583">
        <ele>187.2</ele>
        <time>2021-07-05 13:19:56</time>
      </trkpt>
      <trkpt lat="28.27583" lon="-14.11583">
        <ele>186.8</ele>
        <time>2021-07-05 13:19:57</time>
      </trkpt>
      <trkpt lat="28.27579" lon="-14.11582">
        <ele>186.4</ele>
        <time>2021-07-05 13:19:58</time>
      </trkpt>
      <trkpt lat="28.27575" lon="-14.11581">
        <ele>186</ele>
        <time>2021-07-05 13:19:59</time>
      </trkpt>
      <trkpt lat="28.2757" lon="-14.11581">
        <ele>185.4</ele>
        <time>2021-07-05 13:20:00</time>
      </trkpt>
      <trkpt lat="28.27566" lon="-14.1158">
        <ele>185</ele>
        <time>2021-07-05 13:20:01</time>
      </trkpt>
      <trkpt lat="28.27561" lon="-14.1158">
        <ele>184.6</ele>
        <time>2021-07-05 13:20:02</time>
      </trkpt>
      <trkpt lat="28.27556" lon="-14.11578">
        <ele>184.2</ele>
        <time>2021-07-05 13:20:03</time>
      </trkpt>
      <trkpt lat="28.2755" lon="-14.11579">
        <ele>183.4</ele>
        <time>2021-07-05 13:20:04</time>
      </trkpt>
      <trkpt lat="28.27545" lon="-14.11579">
        <ele>183.4</ele>
        <time>2021-07-05 13:20:05</time>
      </trkpt>
      <trkpt lat="28.2754" lon="-14.1158">
        <ele>183</ele>
        <time>2021-07-05 13:20:06</time>
      </trkpt>
      <trkpt lat="28.27536" lon="-14.11581">
        <ele>182.4</ele>
        <time>2021-07-05 13:20:07</time>
      </trkpt>
      <trkpt lat="28.27532" lon="-14.11581">
        <ele>182</ele>
        <time>2021-07-05 13:20:08</time>
      </trkpt>
      <trkpt lat="28.27527" lon="-14.11582">
        <ele>181.4</ele>
        <time>2021-07-05 13:20:09</time>
      </trkpt>
      <trkpt lat="28.27523" lon="-14.11583">
        <ele>181.4</ele>
        <time>2021-07-05 13:20:10</time>
      </trkpt>
      <trkpt lat="28.27518" lon="-14.11586">
        <ele>180.8</ele>
        <time>2021-07-05 13:20:11</time>
      </trkpt>
      <trkpt lat="28.27512" lon="-14.11587">
        <ele>179.6</ele>
        <time>2021-07-05 13:20:12</time>
      </trkpt>
      <trkpt lat="28.27507" lon="-14.11589">
        <ele>179</ele>
        <time>2021-07-05 13:20:13</time>
      </trkpt>
      <trkpt lat="28.27502" lon="-14.11591">
        <ele>179</ele>
        <time>2021-07-05 13:20:14</time>
      </trkpt>
      <trkpt lat="28.27497" lon="-14.11592">
        <ele>178.6</ele>
        <time>2021-07-05 13:20:15</time>
      </trkpt>
      <trkpt lat="28.27491" lon="-14.11592">
        <ele>177.8</ele>
        <time>2021-07-05 13:20:16</time>
      </trkpt>
      <trkpt lat="28.27486" lon="-14.11591">
        <ele>177.8</ele>
        <time>2021-07-05 13:20:17</time>
      </trkpt>
      <trkpt lat="28.27481" lon="-14.11588">
        <ele>177.4</ele>
        <time>2021-07-05 13:20:18</time>
      </trkpt>
      <trkpt lat="28.27476" lon="-14.11585">
        <ele>177.2</ele>
        <time>2021-07-05 13:20:19</time>
      </trkpt>
      <trkpt lat="28.27471" lon="-14.11583">
        <ele>177</ele>
        <time>2021-07-05 13:20:20</time>
      </trkpt>
      <trkpt lat="28.27466" lon="-14.11582">
        <ele>177</ele>
        <time>2021-07-05 13:20:21</time>
      </trkpt>
      <trkpt lat="28.27462" lon="-14.11582">
        <ele>176.6</ele>
        <time>2021-07-05 13:20:22</time>
      </trkpt>
      <trkpt lat="28.27458" lon="-14.11582">
        <ele>176.4</ele>
        <time>2021-07-05 13:20:23</time>
      </trkpt>
      <trkpt lat="28.27454" lon="-14.11584">
        <ele>176.4</ele>
        <time>2021-07-05 13:20:24</time>
      </trkpt>
      <trkpt lat="28.2745" lon="-14.11585">
        <ele>176.4</ele>
        <time>2021-07-05 13:20:25</time>
      </trkpt>
      <trkpt lat="28.27446" lon="-14.11587">
        <ele>176</ele>
        <time>2021-07-05 13:20:26</time>
      </trkpt>
      <trkpt lat="28.27442" lon="-14.11587">
        <ele>176</ele>
        <time>2021-07-05 13:20:27</time>
      </trkpt>
      <trkpt lat="28.27438" lon="-14.11589">
        <ele>176</ele>
        <time>2021-07-05 13:20:28</time>
      </trkpt>
      <trkpt lat="28.27433" lon="-14.11591">
        <ele>176</ele>
        <time>2021-07-05 13:20:29</time>
      </trkpt>
      <trkpt lat="28.2743" lon="-14.11593">
        <ele>176</ele>
        <time>2021-07-05 13:20:30</time>
      </trkpt>
      <trkpt lat="28.27425" lon="-14.11595">
        <ele>176</ele>
        <time>2021-07-05 13:20:31</time>
      </trkpt>
      <trkpt lat="28.27421" lon="-14.11597">
        <ele>176</ele>
        <time>2021-07-05 13:20:32</time>
      </trkpt>
      <trkpt lat="28.27416" lon="-14.11598">
        <ele>176</ele>
        <time>2021-07-05 13:20:33</time>
      </trkpt>
      <trkpt lat="28.27412" lon="-14.11599">
        <ele>176</ele>
        <time>2021-07-05 13:20:34</time>
      </trkpt>
      <trkpt lat="28.27407" lon="-14.116">
        <ele>176</ele>
        <time>2021-07-05 13:20:35</time>
      </trkpt>
      <trkpt lat="28.27402" lon="-14.11599">
        <ele>176.2</ele>
        <time>2021-07-05 13:20:36</time>
      </trkpt>
      <trkpt lat="28.27398" lon="-14.11599">
        <ele>176.2</ele>
        <time>2021-07-05 13:20:37</time>
      </trkpt>
      <trkpt lat="28.27393" lon="-14.11599">
        <ele>176.2</ele>
        <time>2021-07-05 13:20:38</time>
      </trkpt>
      <trkpt lat="28.27389" lon="-14.116">
        <ele>176.2</ele>
        <time>2021-07-05 13:20:39</time>
      </trkpt>
      <trkpt lat="28.27385" lon="-14.11601">
        <ele>176.6</ele>
        <time>2021-07-05 13:20:40</time>
      </trkpt>
      <trkpt lat="28.2738" lon="-14.11603">
        <ele>176.6</ele>
        <time>2021-07-05 13:20:41</time>
      </trkpt>
      <trkpt lat="28.27376" lon="-14.11605">
        <ele>176.6</ele>
        <time>2021-07-05 13:20:42</time>
      </trkpt>
      <trkpt lat="28.27373" lon="-14.11607">
        <ele>176.8</ele>
        <time>2021-07-05 13:20:43</time>
      </trkpt>
      <trkpt lat="28.27369" lon="-14.11609">
        <ele>176.8</ele>
        <time>2021-07-05 13:20:44</time>
      </trkpt>
      <trkpt lat="28.27366" lon="-14.11611">
        <ele>177</ele>
        <time>2021-07-05 13:20:45</time>
      </trkpt>
      <trkpt lat="28.27364" lon="-14.11613">
        <ele>177</ele>
        <time>2021-07-05 13:20:46</time>
      </trkpt>
      <trkpt lat="28.27361" lon="-14.11615">
        <ele>177.6</ele>
        <time>2021-07-05 13:20:47</time>
      </trkpt>
      <trkpt lat="28.27359" lon="-14.11616">
        <ele>177.6</ele>
        <time>2021-07-05 13:20:48</time>
      </trkpt>
      <trkpt lat="28.27357" lon="-14.11618">
        <ele>177.8</ele>
        <time>2021-07-05 13:20:49</time>
      </trkpt>
      <trkpt lat="28.27355" lon="-14.1162">
        <ele>177.8</ele>
        <time>2021-07-05 13:20:50</time>
      </trkpt>
      <trkpt lat="28.27353" lon="-14.11622">
        <ele>178.2</ele>
        <time>2021-07-05 13:20:51</time>
      </trkpt>
      <trkpt lat="28.2735" lon="-14.11623">
        <ele>178.2</ele>
        <time>2021-07-05 13:20:52</time>
      </trkpt>
      <trkpt lat="28.27348" lon="-14.11625">
        <ele>178.6</ele>
        <time>2021-07-05 13:20:53</time>
      </trkpt>
      <trkpt lat="28.27346" lon="-14.11628">
        <ele>178.6</ele>
        <time>2021-07-05 13:20:54</time>
      </trkpt>
      <trkpt lat="28.27344" lon="-14.11631">
        <ele>178.8</ele>
        <time>2021-07-05 13:20:55</time>
      </trkpt>
      <trkpt lat="28.27342" lon="-14.11634">
        <ele>178.8</ele>
        <time>2021-07-05 13:20:56</time>
      </trkpt>
      <trkpt lat="28.2734" lon="-14.11638">
        <ele>178.8</ele>
        <time>2021-07-05 13:20:57</time>
      </trkpt>
      <trkpt lat="28.27337" lon="-14.11642">
        <ele>178.8</ele>
        <time>2021-07-05 13:20:58</time>
      </trkpt>
      <trkpt lat="28.27333" lon="-14.11646">
        <ele>179</ele>
        <time>2021-07-05 13:20:59</time>
      </trkpt>
      <trkpt lat="28.27329" lon="-14.11651">
        <ele>179</ele>
        <time>2021-07-05 13:21:00</time>
      </trkpt>
      <trkpt lat="28.27324" lon="-14.11655">
        <ele>178.8</ele>
        <time>2021-07-05 13:21:01</time>
      </trkpt>
      <trkpt lat="28.27318" lon="-14.11661">
        <ele>178.4</ele>
        <time>2021-07-05 13:21:02</time>
      </trkpt>
      <trkpt lat="28.27311" lon="-14.11667">
        <ele>178</ele>
        <time>2021-07-05 13:21:03</time>
      </trkpt>
      <trkpt lat="28.27305" lon="-14.11673">
        <ele>177.6</ele>
        <time>2021-07-05 13:21:04</time>
      </trkpt>
      <trkpt lat="28.273" lon="-14.11679">
        <ele>177</ele>
        <time>2021-07-05 13:21:05</time>
      </trkpt>
      <trkpt lat="28.27294" lon="-14.11686">
        <ele>176.6</ele>
        <time>2021-07-05 13:21:06</time>
      </trkpt>
      <trkpt lat="28.27289" lon="-14.11692">
        <ele>176.2</ele>
        <time>2021-07-05 13:21:07</time>
      </trkpt>
      <trkpt lat="28.27285" lon="-14.11699">
        <ele>176</ele>
        <time>2021-07-05 13:21:08</time>
      </trkpt>
      <trkpt lat="28.2728" lon="-14.11705">
        <ele>175.6</ele>
        <time>2021-07-05 13:21:09</time>
      </trkpt>
      <trkpt lat="28.27276" lon="-14.1171">
        <ele>175.6</ele>
        <time>2021-07-05 13:21:10</time>
      </trkpt>
      <trkpt lat="28.27271" lon="-14.11715">
        <ele>175.4</ele>
        <time>2021-07-05 13:21:11</time>
      </trkpt>
      <trkpt lat="28.27267" lon="-14.1172">
        <ele>175.4</ele>
        <time>2021-07-05 13:21:12</time>
      </trkpt>
      <trkpt lat="28.27262" lon="-14.11725">
        <ele>175.4</ele>
        <time>2021-07-05 13:21:13</time>
      </trkpt>
      <trkpt lat="28.27258" lon="-14.1173">
        <ele>175.6</ele>
        <time>2021-07-05 13:21:14</time>
      </trkpt>
      <trkpt lat="28.27253" lon="-14.11734">
        <ele>175.6</ele>
        <time>2021-07-05 13:21:15</time>
      </trkpt>
      <trkpt lat="28.27247" lon="-14.11739">
        <ele>175.6</ele>
        <time>2021-07-05 13:21:16</time>
      </trkpt>
      <trkpt lat="28.27241" lon="-14.11744">
        <ele>175.6</ele>
        <time>2021-07-05 13:21:17</time>
      </trkpt>
      <trkpt lat="28.27235" lon="-14.11749">
        <ele>175.6</ele>
        <time>2021-07-05 13:21:18</time>
      </trkpt>
      <trkpt lat="28.27228" lon="-14.11755">
        <ele>175.2</ele>
        <time>2021-07-05 13:21:19</time>
      </trkpt>
      <trkpt lat="28.27221" lon="-14.11759">
        <ele>175.2</ele>
        <time>2021-07-05 13:21:20</time>
      </trkpt>
      <trkpt lat="28.27212" lon="-14.11762">
        <ele>175</ele>
        <time>2021-07-05 13:21:21</time>
      </trkpt>
      <trkpt lat="28.27203" lon="-14.11763">
        <ele>174.4</ele>
        <time>2021-07-05 13:21:22</time>
      </trkpt>
      <trkpt lat="28.27192" lon="-14.11763">
        <ele>173.8</ele>
        <time>2021-07-05 13:21:23</time>
      </trkpt>
      <trkpt lat="28.27182" lon="-14.11764">
        <ele>173</ele>
        <time>2021-07-05 13:21:24</time>
      </trkpt>
      <trkpt lat="28.27172" lon="-14.11767">
        <ele>172.4</ele>
        <time>2021-07-05 13:21:25</time>
      </trkpt>
      <trkpt lat="28.27162" lon="-14.11772">
        <ele>171.4</ele>
        <time>2021-07-05 13:21:26</time>
      </trkpt>
      <trkpt lat="28.27154" lon="-14.11777">
        <ele>170.8</ele>
        <time>2021-07-05 13:21:27</time>
      </trkpt>
      <trkpt lat="28.27145" lon="-14.11783">
        <ele>170</ele>
        <time>2021-07-05 13:21:28</time>
      </trkpt>
      <trkpt lat="28.27137" lon="-14.11788">
        <ele>169.4</ele>
        <time>2021-07-05 13:21:29</time>
      </trkpt>
      <trkpt lat="28.27128" lon="-14.11794">
        <ele>168.6</ele>
        <time>2021-07-05 13:21:30</time>
      </trkpt>
      <trkpt lat="28.2712" lon="-14.118">
        <ele>167.8</ele>
        <time>2021-07-05 13:21:31</time>
      </trkpt>
      <trkpt lat="28.27112" lon="-14.11808">
        <ele>167</ele>
        <time>2021-07-05 13:21:32</time>
      </trkpt>
      <trkpt lat="28.27104" lon="-14.11815">
        <ele>165.4</ele>
        <time>2021-07-05 13:21:33</time>
      </trkpt>
      <trkpt lat="28.27096" lon="-14.11822">
        <ele>165.4</ele>
        <time>2021-07-05 13:21:34</time>
      </trkpt>
      <trkpt lat="28.27087" lon="-14.11829">
        <ele>164.6</ele>
        <time>2021-07-05 13:21:35</time>
      </trkpt>
      <trkpt lat="28.27079" lon="-14.11835">
        <ele>163.8</ele>
        <time>2021-07-05 13:21:36</time>
      </trkpt>
      <trkpt lat="28.2707" lon="-14.11841">
        <ele>162.4</ele>
        <time>2021-07-05 13:21:37</time>
      </trkpt>
      <trkpt lat="28.27061" lon="-14.11846">
        <ele>162.4</ele>
        <time>2021-07-05 13:21:38</time>
      </trkpt>
      <trkpt lat="28.27053" lon="-14.11853">
        <ele>161.8</ele>
        <time>2021-07-05 13:21:39</time>
      </trkpt>
      <trkpt lat="28.27043" lon="-14.11861">
        <ele>161</ele>
        <time>2021-07-05 13:21:40</time>
      </trkpt>
      <trkpt lat="28.27035" lon="-14.1187">
        <ele>159.2</ele>
        <time>2021-07-05 13:21:41</time>
      </trkpt>
      <trkpt lat="28.27027" lon="-14.11878">
        <ele>159.2</ele>
        <time>2021-07-05 13:21:42</time>
      </trkpt>
      <trkpt lat="28.27019" lon="-14.11887">
        <ele>158.2</ele>
        <time>2021-07-05 13:21:43</time>
      </trkpt>
      <trkpt lat="28.27012" lon="-14.11897">
        <ele>157.4</ele>
        <time>2021-07-05 13:21:44</time>
      </trkpt>
      <trkpt lat="28.27006" lon="-14.11906">
        <ele>156.6</ele>
        <time>2021-07-05 13:21:45</time>
      </trkpt>
      <trkpt lat="28.26998" lon="-14.11915">
        <ele>156</ele>
        <time>2021-07-05 13:21:46</time>
      </trkpt>
      <trkpt lat="28.2699" lon="-14.11923">
        <ele>155.6</ele>
        <time>2021-07-05 13:21:47</time>
      </trkpt>
      <trkpt lat="28.26981" lon="-14.11928">
        <ele>155</ele>
        <time>2021-07-05 13:21:48</time>
      </trkpt>
      <trkpt lat="28.26972" lon="-14.11932">
        <ele>154.6</ele>
        <time>2021-07-05 13:21:49</time>
      </trkpt>
      <trkpt lat="28.26963" lon="-14.11936">
        <ele>154.2</ele>
        <time>2021-07-05 13:21:50</time>
      </trkpt>
      <trkpt lat="28.26955" lon="-14.11941">
        <ele>153.8</ele>
        <time>2021-07-05 13:21:51</time>
      </trkpt>
      <trkpt lat="28.26947" lon="-14.11948">
        <ele>153.6</ele>
        <time>2021-07-05 13:21:52</time>
      </trkpt>
      <trkpt lat="28.2694" lon="-14.11954">
        <ele>153.4</ele>
        <time>2021-07-05 13:21:53</time>
      </trkpt>
      <trkpt lat="28.26933" lon="-14.11961">
        <ele>153</ele>
        <time>2021-07-05 13:21:54</time>
      </trkpt>
      <trkpt lat="28.26926" lon="-14.11969">
        <ele>152.8</ele>
        <time>2021-07-05 13:21:55</time>
      </trkpt>
      <trkpt lat="28.26919" lon="-14.11976">
        <ele>152.8</ele>
        <time>2021-07-05 13:21:56</time>
      </trkpt>
      <trkpt lat="28.26912" lon="-14.11983">
        <ele>152.4</ele>
        <time>2021-07-05 13:21:57</time>
      </trkpt>
      <trkpt lat="28.26904" lon="-14.1199">
        <ele>152.4</ele>
        <time>2021-07-05 13:21:58</time>
      </trkpt>
      <trkpt lat="28.26896" lon="-14.11997">
        <ele>152.2</ele>
        <time>2021-07-05 13:21:59</time>
      </trkpt>
      <trkpt lat="28.26888" lon="-14.12002">
        <ele>152.2</ele>
        <time>2021-07-05 13:22:00</time>
      </trkpt>
      <trkpt lat="28.26879" lon="-14.12007">
        <ele>151.6</ele>
        <time>2021-07-05 13:22:01</time>
      </trkpt>
      <trkpt lat="28.26871" lon="-14.12012">
        <ele>151.6</ele>
        <time>2021-07-05 13:22:02</time>
      </trkpt>
      <trkpt lat="28.26863" lon="-14.12017">
        <ele>151.4</ele>
        <time>2021-07-05 13:22:03</time>
      </trkpt>
      <trkpt lat="28.26855" lon="-14.12023">
        <ele>151.4</ele>
        <time>2021-07-05 13:22:04</time>
      </trkpt>
      <trkpt lat="28.26847" lon="-14.12028">
        <ele>151.4</ele>
        <time>2021-07-05 13:22:05</time>
      </trkpt>
      <trkpt lat="28.26839" lon="-14.12033">
        <ele>151.4</ele>
        <time>2021-07-05 13:22:06</time>
      </trkpt>
      <trkpt lat="28.26832" lon="-14.12039">
        <ele>151.4</ele>
        <time>2021-07-05 13:22:07</time>
      </trkpt>
      <trkpt lat="28.26825" lon="-14.12045">
        <ele>151.4</ele>
        <time>2021-07-05 13:22:08</time>
      </trkpt>
      <trkpt lat="28.26819" lon="-14.12051">
        <ele>151.4</ele>
        <time>2021-07-05 13:22:09</time>
      </trkpt>
      <trkpt lat="28.26813" lon="-14.12057">
        <ele>151.2</ele>
        <time>2021-07-05 13:22:10</time>
      </trkpt>
      <trkpt lat="28.26807" lon="-14.12063">
        <ele>150.8</ele>
        <time>2021-07-05 13:22:11</time>
      </trkpt>
      <trkpt lat="28.268" lon="-14.1207">
        <ele>150.8</ele>
        <time>2021-07-05 13:22:12</time>
      </trkpt>
      <trkpt lat="28.26794" lon="-14.12074">
        <ele>150.8</ele>
        <time>2021-07-05 13:22:13</time>
      </trkpt>
      <trkpt lat="28.26788" lon="-14.12079">
        <ele>150.8</ele>
        <time>2021-07-05 13:22:14</time>
      </trkpt>
      <trkpt lat="28.26782" lon="-14.12083">
        <ele>150.8</ele>
        <time>2021-07-05 13:22:15</time>
      </trkpt>
      <trkpt lat="28.26776" lon="-14.12088">
        <ele>151</ele>
        <time>2021-07-05 13:22:16</time>
      </trkpt>
      <trkpt lat="28.26771" lon="-14.12092">
        <ele>151</ele>
        <time>2021-07-05 13:22:17</time>
      </trkpt>
      <trkpt lat="28.26766" lon="-14.12095">
        <ele>151.2</ele>
        <time>2021-07-05 13:22:18</time>
      </trkpt>
      <trkpt lat="28.26761" lon="-14.12098">
        <ele>151.6</ele>
        <time>2021-07-05 13:22:19</time>
      </trkpt>
      <trkpt lat="28.26757" lon="-14.12101">
        <ele>152</ele>
        <time>2021-07-05 13:22:20</time>
      </trkpt>
      <trkpt lat="28.26753" lon="-14.12104">
        <ele>152.2</ele>
        <time>2021-07-05 13:22:21</time>
      </trkpt>
      <trkpt lat="28.26748" lon="-14.12107">
        <ele>152.8</ele>
        <time>2021-07-05 13:22:22</time>
      </trkpt>
      <trkpt lat="28.26744" lon="-14.1211">
        <ele>152.8</ele>
        <time>2021-07-05 13:22:23</time>
      </trkpt>
      <trkpt lat="28.26739" lon="-14.12112">
        <ele>153</ele>
        <time>2021-07-05 13:22:24</time>
      </trkpt>
      <trkpt lat="28.26735" lon="-14.12114">
        <ele>153.4</ele>
        <time>2021-07-05 13:22:25</time>
      </trkpt>
      <trkpt lat="28.26731" lon="-14.12116">
        <ele>153.4</ele>
        <time>2021-07-05 13:22:26</time>
      </trkpt>
      <trkpt lat="28.26727" lon="-14.12118">
        <ele>153.6</ele>
        <time>2021-07-05 13:22:27</time>
      </trkpt>
      <trkpt lat="28.26723" lon="-14.1212">
        <ele>154</ele>
        <time>2021-07-05 13:22:28</time>
      </trkpt>
      <trkpt lat="28.26718" lon="-14.12122">
        <ele>154</ele>
        <time>2021-07-05 13:22:29</time>
      </trkpt>
      <trkpt lat="28.26714" lon="-14.12124">
        <ele>154</ele>
        <time>2021-07-05 13:22:30</time>
      </trkpt>
      <trkpt lat="28.2671" lon="-14.12126">
        <ele>154.4</ele>
        <time>2021-07-05 13:22:31</time>
      </trkpt>
      <trkpt lat="28.26707" lon="-14.12128">
        <ele>154.4</ele>
        <time>2021-07-05 13:22:32</time>
      </trkpt>
      <trkpt lat="28.26704" lon="-14.1213">
        <ele>154.8</ele>
        <time>2021-07-05 13:22:33</time>
      </trkpt>
      <trkpt lat="28.267" lon="-14.12133">
        <ele>155</ele>
        <time>2021-07-05 13:22:34</time>
      </trkpt>
      <trkpt lat="28.26697" lon="-14.12135">
        <ele>155.2</ele>
        <time>2021-07-05 13:22:35</time>
      </trkpt>
      <trkpt lat="28.26694" lon="-14.12138">
        <ele>155.4</ele>
        <time>2021-07-05 13:22:36</time>
      </trkpt>
      <trkpt lat="28.2669" lon="-14.1214">
        <ele>155.8</ele>
        <time>2021-07-05 13:22:37</time>
      </trkpt>
      <trkpt lat="28.26686" lon="-14.12142">
        <ele>155.8</ele>
        <time>2021-07-05 13:22:38</time>
      </trkpt>
      <trkpt lat="28.26683" lon="-14.12144">
        <ele>155.8</ele>
        <time>2021-07-05 13:22:39</time>
      </trkpt>
      <trkpt lat="28.26679" lon="-14.12147">
        <ele>155.8</ele>
        <time>2021-07-05 13:22:40</time>
      </trkpt>
      <trkpt lat="28.26676" lon="-14.12149">
        <ele>155.8</ele>
        <time>2021-07-05 13:22:41</time>
      </trkpt>
      <trkpt lat="28.26672" lon="-14.12152">
        <ele>156</ele>
        <time>2021-07-05 13:22:42</time>
      </trkpt>
      <trkpt lat="28.26668" lon="-14.12154">
        <ele>156.2</ele>
        <time>2021-07-05 13:22:43</time>
      </trkpt>
      <trkpt lat="28.26665" lon="-14.12156">
        <ele>156.2</ele>
        <time>2021-07-05 13:22:44</time>
      </trkpt>
      <trkpt lat="28.26661" lon="-14.12159">
        <ele>156.2</ele>
        <time>2021-07-05 13:22:45</time>
      </trkpt>
      <trkpt lat="28.26657" lon="-14.12161">
        <ele>156.2</ele>
        <time>2021-07-05 13:22:46</time>
      </trkpt>
      <trkpt lat="28.26653" lon="-14.12163">
        <ele>156.6</ele>
        <time>2021-07-05 13:22:47</time>
      </trkpt>
      <trkpt lat="28.2665" lon="-14.12166">
        <ele>156.6</ele>
        <time>2021-07-05 13:22:48</time>
      </trkpt>
      <trkpt lat="28.26646" lon="-14.12169">
        <ele>156.6</ele>
        <time>2021-07-05 13:22:49</time>
      </trkpt>
      <trkpt lat="28.26642" lon="-14.12172">
        <ele>156.6</ele>
        <time>2021-07-05 13:22:50</time>
      </trkpt>
      <trkpt lat="28.26638" lon="-14.12175">
        <ele>156.6</ele>
        <time>2021-07-05 13:22:51</time>
      </trkpt>
      <trkpt lat="28.26632" lon="-14.12179">
        <ele>156.6</ele>
        <time>2021-07-05 13:22:52</time>
      </trkpt>
      <trkpt lat="28.26628" lon="-14.12182">
        <ele>156.6</ele>
        <time>2021-07-05 13:22:53</time>
      </trkpt>
      <trkpt lat="28.26625" lon="-14.12185">
        <ele>156.6</ele>
        <time>2021-07-05 13:22:54</time>
      </trkpt>
      <trkpt lat="28.26622" lon="-14.12188">
        <ele>156.8</ele>
        <time>2021-07-05 13:22:55</time>
      </trkpt>
      <trkpt lat="28.26618" lon="-14.1219">
        <ele>156.8</ele>
        <time>2021-07-05 13:22:56</time>
      </trkpt>
      <trkpt lat="28.26615" lon="-14.12193">
        <ele>157.4</ele>
        <time>2021-07-05 13:22:57</time>
      </trkpt>
      <trkpt lat="28.26612" lon="-14.12195">
        <ele>157.6</ele>
        <time>2021-07-05 13:22:58</time>
      </trkpt>
      <trkpt lat="28.26608" lon="-14.12198">
        <ele>157.6</ele>
        <time>2021-07-05 13:22:59</time>
      </trkpt>
      <trkpt lat="28.26604" lon="-14.12203">
        <ele>157.8</ele>
        <time>2021-07-05 13:23:00</time>
      </trkpt>
      <trkpt lat="28.266" lon="-14.12207">
        <ele>157.8</ele>
        <time>2021-07-05 13:23:01</time>
      </trkpt>
      <trkpt lat="28.26596" lon="-14.12211">
        <ele>157.8</ele>
        <time>2021-07-05 13:23:02</time>
      </trkpt>
      <trkpt lat="28.26593" lon="-14.12216">
        <ele>157.4</ele>
        <time>2021-07-05 13:23:03</time>
      </trkpt>
      <trkpt lat="28.26589" lon="-14.1222">
        <ele>157.4</ele>
        <time>2021-07-05 13:23:04</time>
      </trkpt>
      <trkpt lat="28.26585" lon="-14.12225">
        <ele>157.4</ele>
        <time>2021-07-05 13:23:05</time>
      </trkpt>
      <trkpt lat="28.26582" lon="-14.1223">
        <ele>157.2</ele>
        <time>2021-07-05 13:23:06</time>
      </trkpt>
      <trkpt lat="28.26579" lon="-14.12235">
        <ele>157.2</ele>
        <time>2021-07-05 13:23:07</time>
      </trkpt>
      <trkpt lat="28.26575" lon="-14.1224">
        <ele>157.2</ele>
        <time>2021-07-05 13:23:08</time>
      </trkpt>
      <trkpt lat="28.26572" lon="-14.12245">
        <ele>157.2</ele>
        <time>2021-07-05 13:23:09</time>
      </trkpt>
      <trkpt lat="28.26568" lon="-14.1225">
        <ele>157.2</ele>
        <time>2021-07-05 13:23:10</time>
      </trkpt>
      <trkpt lat="28.26562" lon="-14.12255">
        <ele>156.8</ele>
        <time>2021-07-05 13:23:11</time>
      </trkpt>
      <trkpt lat="28.26557" lon="-14.12259">
        <ele>156.2</ele>
        <time>2021-07-05 13:23:12</time>
      </trkpt>
      <trkpt lat="28.26553" lon="-14.12264">
        <ele>156.2</ele>
        <time>2021-07-05 13:23:13</time>
      </trkpt>
      <trkpt lat="28.26548" lon="-14.12269">
        <ele>156</ele>
        <time>2021-07-05 13:23:14</time>
      </trkpt>
      <trkpt lat="28.26542" lon="-14.12275">
        <ele>155.2</ele>
        <time>2021-07-05 13:23:15</time>
      </trkpt>
      <trkpt lat="28.26537" lon="-14.12282">
        <ele>155.2</ele>
        <time>2021-07-05 13:23:16</time>
      </trkpt>
      <trkpt lat="28.26531" lon="-14.12289">
        <ele>154.6</ele>
        <time>2021-07-05 13:23:17</time>
      </trkpt>
      <trkpt lat="28.26525" lon="-14.12294">
        <ele>154</ele>
        <time>2021-07-05 13:23:18</time>
      </trkpt>
      <trkpt lat="28.26519" lon="-14.123">
        <ele>154</ele>
        <time>2021-07-05 13:23:19</time>
      </trkpt>
      <trkpt lat="28.26512" lon="-14.12304">
        <ele>153.8</ele>
        <time>2021-07-05 13:23:20</time>
      </trkpt>
      <trkpt lat="28.26506" lon="-14.12309">
        <ele>153.6</ele>
        <time>2021-07-05 13:23:21</time>
      </trkpt>
      <trkpt lat="28.265" lon="-14.12313">
        <ele>153.2</ele>
        <time>2021-07-05 13:23:22</time>
      </trkpt>
      <trkpt lat="28.26494" lon="-14.12318">
        <ele>153.2</ele>
        <time>2021-07-05 13:23:23</time>
      </trkpt>
      <trkpt lat="28.26489" lon="-14.12323">
        <ele>153</ele>
        <time>2021-07-05 13:23:24</time>
      </trkpt>
      <trkpt lat="28.26483" lon="-14.12328">
        <ele>153</ele>
        <time>2021-07-05 13:23:25</time>
      </trkpt>
      <trkpt lat="28.26479" lon="-14.12332">
        <ele>153</ele>
        <time>2021-07-05 13:23:26</time>
      </trkpt>
      <trkpt lat="28.26474" lon="-14.12337">
        <ele>153</ele>
        <time>2021-07-05 13:23:27</time>
      </trkpt>
      <trkpt lat="28.2647" lon="-14.12342">
        <ele>153</ele>
        <time>2021-07-05 13:23:28</time>
      </trkpt>
      <trkpt lat="28.26465" lon="-14.12348">
        <ele>153</ele>
        <time>2021-07-05 13:23:29</time>
      </trkpt>
      <trkpt lat="28.26459" lon="-14.12354">
        <ele>153</ele>
        <time>2021-07-05 13:23:30</time>
      </trkpt>
      <trkpt lat="28.26452" lon="-14.12361">
        <ele>153</ele>
        <time>2021-07-05 13:23:31</time>
      </trkpt>
      <trkpt lat="28.26445" lon="-14.12367">
        <ele>152.6</ele>
        <time>2021-07-05 13:23:32</time>
      </trkpt>
      <trkpt lat="28.26438" lon="-14.1237">
        <ele>152.2</ele>
        <time>2021-07-05 13:23:33</time>
      </trkpt>
      <trkpt lat="28.2643" lon="-14.12373">
        <ele>152</ele>
        <time>2021-07-05 13:23:34</time>
      </trkpt>
      <trkpt lat="28.26422" lon="-14.12376">
        <ele>151.6</ele>
        <time>2021-07-05 13:23:35</time>
      </trkpt>
      <trkpt lat="28.26414" lon="-14.12379">
        <ele>151.2</ele>
        <time>2021-07-05 13:23:36</time>
      </trkpt>
      <trkpt lat="28.26406" lon="-14.12382">
        <ele>150.8</ele>
        <time>2021-07-05 13:23:37</time>
      </trkpt>
      <trkpt lat="28.264" lon="-14.12386">
        <ele>150.6</ele>
        <time>2021-07-05 13:23:38</time>
      </trkpt>
      <trkpt lat="28.26394" lon="-14.1239">
        <ele>150.4</ele>
        <time>2021-07-05 13:23:39</time>
      </trkpt>
      <trkpt lat="28.26388" lon="-14.12393">
        <ele>150</ele>
        <time>2021-07-05 13:23:40</time>
      </trkpt>
      <trkpt lat="28.26382" lon="-14.12397">
        <ele>150</ele>
        <time>2021-07-05 13:23:41</time>
      </trkpt>
      <trkpt lat="28.26376" lon="-14.12399">
        <ele>150</ele>
        <time>2021-07-05 13:23:42</time>
      </trkpt>
      <trkpt lat="28.2637" lon="-14.124">
        <ele>150</ele>
        <time>2021-07-05 13:23:43</time>
      </trkpt>
      <trkpt lat="28.26364" lon="-14.12401">
        <ele>150</ele>
        <time>2021-07-05 13:23:44</time>
      </trkpt>
      <trkpt lat="28.26359" lon="-14.12402">
        <ele>150</ele>
        <time>2021-07-05 13:23:45</time>
      </trkpt>
      <trkpt lat="28.26354" lon="-14.12403">
        <ele>150.2</ele>
        <time>2021-07-05 13:23:46</time>
      </trkpt>
      <trkpt lat="28.2635" lon="-14.12405">
        <ele>150.6</ele>
        <time>2021-07-05 13:23:47</time>
      </trkpt>
      <trkpt lat="28.26347" lon="-14.12406">
        <ele>150.8</ele>
        <time>2021-07-05 13:23:48</time>
      </trkpt>
      <trkpt lat="28.26344" lon="-14.12408">
        <ele>151.8</ele>
        <time>2021-07-05 13:23:49</time>
      </trkpt>
      <trkpt lat="28.26342" lon="-14.1241">
        <ele>151.8</ele>
        <time>2021-07-05 13:23:50</time>
      </trkpt>
      <trkpt lat="28.26339" lon="-14.12411">
        <ele>152.2</ele>
        <time>2021-07-05 13:23:51</time>
      </trkpt>
      <trkpt lat="28.26336" lon="-14.12414">
        <ele>152.6</ele>
        <time>2021-07-05 13:23:52</time>
      </trkpt>
      <trkpt lat="28.26334" lon="-14.12417">
        <ele>153.2</ele>
        <time>2021-07-05 13:23:53</time>
      </trkpt>
      <trkpt lat="28.26332" lon="-14.12419">
        <ele>153.8</ele>
        <time>2021-07-05 13:23:54</time>
      </trkpt>
      <trkpt lat="28.2633" lon="-14.12422">
        <ele>154.2</ele>
        <time>2021-07-05 13:23:55</time>
      </trkpt>
      <trkpt lat="28.26329" lon="-14.12424">
        <ele>154.6</ele>
        <time>2021-07-05 13:23:56</time>
      </trkpt>
      <trkpt lat="28.26328" lon="-14.12426">
        <ele>155</ele>
        <time>2021-07-05 13:23:57</time>
      </trkpt>
      <trkpt lat="28.26328" lon="-14.12429">
        <ele>155.6</ele>
        <time>2021-07-05 13:23:58</time>
      </trkpt>
      <trkpt lat="28.26327" lon="-14.12431">
        <ele>156</ele>
        <time>2021-07-05 13:23:59</time>
      </trkpt>
      <trkpt lat="28.26326" lon="-14.12435">
        <ele>156</ele>
        <time>2021-07-05 13:24:00</time>
      </trkpt>
      <trkpt lat="28.26326" lon="-14.12438">
        <ele>156</ele>
        <time>2021-07-05 13:24:01</time>
      </trkpt>
      <trkpt lat="28.26327" lon="-14.12442">
        <ele>156</ele>
        <time>2021-07-05 13:24:02</time>
      </trkpt>
      <trkpt lat="28.26328" lon="-14.12446">
        <ele>156</ele>
        <time>2021-07-05 13:24:03</time>
      </trkpt>
      <trkpt lat="28.26329" lon="-14.1245">
        <ele>156</ele>
        <time>2021-07-05 13:24:04</time>
      </trkpt>
      <trkpt lat="28.26331" lon="-14.12453">
        <ele>156.2</ele>
        <time>2021-07-05 13:24:05</time>
      </trkpt>
      <trkpt lat="28.26333" lon="-14.12457">
        <ele>156.2</ele>
        <time>2021-07-05 13:24:06</time>
      </trkpt>
      <trkpt lat="28.26336" lon="-14.12461">
        <ele>156.2</ele>
        <time>2021-07-05 13:24:07</time>
      </trkpt>
      <trkpt lat="28.2634" lon="-14.12465">
        <ele>156.2</ele>
        <time>2021-07-05 13:24:08</time>
      </trkpt>
      <trkpt lat="28.26343" lon="-14.12469">
        <ele>156</ele>
        <time>2021-07-05 13:24:09</time>
      </trkpt>
      <trkpt lat="28.26347" lon="-14.12473">
        <ele>156</ele>
        <time>2021-07-05 13:24:10</time>
      </trkpt>
      <trkpt lat="28.26348" lon="-14.12479">
        <ele>156</ele>
        <time>2021-07-05 13:24:11</time>
      </trkpt>
      <trkpt lat="28.26347" lon="-14.12484">
        <ele>155.6</ele>
        <time>2021-07-05 13:24:12</time>
      </trkpt>
      <trkpt lat="28.26343" lon="-14.12489">
        <ele>155.6</ele>
        <time>2021-07-05 13:24:13</time>
      </trkpt>
      <trkpt lat="28.26337" lon="-14.12489">
        <ele>155.2</ele>
        <time>2021-07-05 13:24:14</time>
      </trkpt>
      <trkpt lat="28.2633" lon="-14.12486">
        <ele>154.6</ele>
        <time>2021-07-05 13:24:15</time>
      </trkpt>
      <trkpt lat="28.26324" lon="-14.12483">
        <ele>154</ele>
        <time>2021-07-05 13:24:16</time>
      </trkpt>
      <trkpt lat="28.26316" lon="-14.12479">
        <ele>152.4</ele>
        <time>2021-07-05 13:24:17</time>
      </trkpt>
      <trkpt lat="28.26309" lon="-14.12476">
        <ele>152.4</ele>
        <time>2021-07-05 13:24:18</time>
      </trkpt>
      <trkpt lat="28.26302" lon="-14.12474">
        <ele>151.8</ele>
        <time>2021-07-05 13:24:19</time>
      </trkpt>
      <trkpt lat="28.26295" lon="-14.12473">
        <ele>150.8</ele>
        <time>2021-07-05 13:24:20</time>
      </trkpt>
      <trkpt lat="28.26287" lon="-14.12473">
        <ele>150.8</ele>
        <time>2021-07-05 13:24:21</time>
      </trkpt>
      <trkpt lat="28.26278" lon="-14.12474">
        <ele>149.6</ele>
        <time>2021-07-05 13:24:22</time>
      </trkpt>
      <trkpt lat="28.26271" lon="-14.12475">
        <ele>149.6</ele>
        <time>2021-07-05 13:24:23</time>
      </trkpt>
      <trkpt lat="28.26262" lon="-14.12477">
        <ele>149.2</ele>
        <time>2021-07-05 13:24:24</time>
      </trkpt>
      <trkpt lat="28.26255" lon="-14.12479">
        <ele>149</ele>
        <time>2021-07-05 13:24:25</time>
      </trkpt>
      <trkpt lat="28.26248" lon="-14.1248">
        <ele>148.8</ele>
        <time>2021-07-05 13:24:26</time>
      </trkpt>
      <trkpt lat="28.26242" lon="-14.12481">
        <ele>148.8</ele>
        <time>2021-07-05 13:24:27</time>
      </trkpt>
      <trkpt lat="28.26236" lon="-14.12482">
        <ele>148.6</ele>
        <time>2021-07-05 13:24:28</time>
      </trkpt>
      <trkpt lat="28.2623" lon="-14.12485">
        <ele>148.4</ele>
        <time>2021-07-05 13:24:29</time>
      </trkpt>
      <trkpt lat="28.26225" lon="-14.1249">
        <ele>148</ele>
        <time>2021-07-05 13:24:30</time>
      </trkpt>
      <trkpt lat="28.2622" lon="-14.12497">
        <ele>148</ele>
        <time>2021-07-05 13:24:31</time>
      </trkpt>
      <trkpt lat="28.26217" lon="-14.12504">
        <ele>147.8</ele>
        <time>2021-07-05 13:24:32</time>
      </trkpt>
      <trkpt lat="28.26213" lon="-14.12511">
        <ele>147.8</ele>
        <time>2021-07-05 13:24:33</time>
      </trkpt>
      <trkpt lat="28.26213" lon="-14.12511">
        <ele>147.6</ele>
        <time>2021-07-05 13:24:34</time>
      </trkpt>
      <trkpt lat="28.26204" lon="-14.12523">
        <ele>147.6</ele>
        <time>2021-07-05 13:24:35</time>
      </trkpt>
      <trkpt lat="28.26199" lon="-14.12528">
        <ele>147.4</ele>
        <time>2021-07-05 13:24:36</time>
      </trkpt>
      <trkpt lat="28.26194" lon="-14.12534">
        <ele>147.4</ele>
        <time>2021-07-05 13:24:37</time>
      </trkpt>
      <trkpt lat="28.26189" lon="-14.12539">
        <ele>147</ele>
        <time>2021-07-05 13:24:38</time>
      </trkpt>
      <trkpt lat="28.26182" lon="-14.12543">
        <ele>147</ele>
        <time>2021-07-05 13:24:39</time>
      </trkpt>
      <trkpt lat="28.26176" lon="-14.12545">
        <ele>147</ele>
        <time>2021-07-05 13:24:40</time>
      </trkpt>
      <trkpt lat="28.26171" lon="-14.12547">
        <ele>146.8</ele>
        <time>2021-07-05 13:24:41</time>
      </trkpt>
      <trkpt lat="28.26166" lon="-14.1255">
        <ele>146.8</ele>
        <time>2021-07-05 13:24:42</time>
      </trkpt>
      <trkpt lat="28.26161" lon="-14.12554">
        <ele>146.8</ele>
        <time>2021-07-05 13:24:43</time>
      </trkpt>
      <trkpt lat="28.26161" lon="-14.12554">
        <ele>146.8</ele>
        <time>2021-07-05 13:24:44</time>
      </trkpt>
      <trkpt lat="28.26153" lon="-14.12562">
        <ele>146.8</ele>
        <time>2021-07-05 13:24:45</time>
      </trkpt>
      <trkpt lat="28.26149" lon="-14.12566">
        <ele>146.8</ele>
        <time>2021-07-05 13:24:46</time>
      </trkpt>
      <trkpt lat="28.26146" lon="-14.12571">
        <ele>146.8</ele>
        <time>2021-07-05 13:24:47</time>
      </trkpt>
      <trkpt lat="28.26141" lon="-14.12576">
        <ele>147.2</ele>
        <time>2021-07-05 13:24:48</time>
      </trkpt>
      <trkpt lat="28.26137" lon="-14.12583">
        <ele>147.2</ele>
        <time>2021-07-05 13:24:49</time>
      </trkpt>
      <trkpt lat="28.26132" lon="-14.12589">
        <ele>147.2</ele>
        <time>2021-07-05 13:24:50</time>
      </trkpt>
      <trkpt lat="28.26127" lon="-14.12594">
        <ele>147.2</ele>
        <time>2021-07-05 13:24:51</time>
      </trkpt>
      <trkpt lat="28.26122" lon="-14.12598">
        <ele>146.8</ele>
        <time>2021-07-05 13:24:52</time>
      </trkpt>
      <trkpt lat="28.26118" lon="-14.12601">
        <ele>146.8</ele>
        <time>2021-07-05 13:24:53</time>
      </trkpt>
      <trkpt lat="28.26115" lon="-14.12604">
        <ele>146.8</ele>
        <time>2021-07-05 13:24:54</time>
      </trkpt>
      <trkpt lat="28.26111" lon="-14.12607">
        <ele>147</ele>
        <time>2021-07-05 13:24:55</time>
      </trkpt>
      <trkpt lat="28.26108" lon="-14.1261">
        <ele>147.2</ele>
        <time>2021-07-05 13:24:56</time>
      </trkpt>
      <trkpt lat="28.26106" lon="-14.12613">
        <ele>147.2</ele>
        <time>2021-07-05 13:24:57</time>
      </trkpt>
      <trkpt lat="28.26102" lon="-14.12617">
        <ele>147.2</ele>
        <time>2021-07-05 13:24:58</time>
      </trkpt>
      <trkpt lat="28.26099" lon="-14.12621">
        <ele>147.6</ele>
        <time>2021-07-05 13:24:59</time>
      </trkpt>
      <trkpt lat="28.26095" lon="-14.12625">
        <ele>147.6</ele>
        <time>2021-07-05 13:25:00</time>
      </trkpt>
      <trkpt lat="28.26091" lon="-14.1263">
        <ele>147.6</ele>
        <time>2021-07-05 13:25:01</time>
      </trkpt>
      <trkpt lat="28.26087" lon="-14.12636">
        <ele>147.6</ele>
        <time>2021-07-05 13:25:02</time>
      </trkpt>
      <trkpt lat="28.26082" lon="-14.12642">
        <ele>147.2</ele>
        <time>2021-07-05 13:25:03</time>
      </trkpt>
      <trkpt lat="28.26077" lon="-14.12648">
        <ele>147</ele>
        <time>2021-07-05 13:25:04</time>
      </trkpt>
      <trkpt lat="28.26072" lon="-14.12653">
        <ele>146.8</ele>
        <time>2021-07-05 13:25:05</time>
      </trkpt>
      <trkpt lat="28.26068" lon="-14.12659">
        <ele>146.2</ele>
        <time>2021-07-05 13:25:06</time>
      </trkpt>
      <trkpt lat="28.26064" lon="-14.12666">
        <ele>146.2</ele>
        <time>2021-07-05 13:25:07</time>
      </trkpt>
      <trkpt lat="28.26059" lon="-14.12673">
        <ele>145.8</ele>
        <time>2021-07-05 13:25:08</time>
      </trkpt>
      <trkpt lat="28.26054" lon="-14.12682">
        <ele>144.8</ele>
        <time>2021-07-05 13:25:09</time>
      </trkpt>
      <trkpt lat="28.26048" lon="-14.12691">
        <ele>144.8</ele>
        <time>2021-07-05 13:25:10</time>
      </trkpt>
      <trkpt lat="28.26042" lon="-14.12698">
        <ele>144.4</ele>
        <time>2021-07-05 13:25:11</time>
      </trkpt>
      <trkpt lat="28.26037" lon="-14.12705">
        <ele>144</ele>
        <time>2021-07-05 13:25:12</time>
      </trkpt>
      <trkpt lat="28.26032" lon="-14.12712">
        <ele>143</ele>
        <time>2021-07-05 13:25:13</time>
      </trkpt>
      <trkpt lat="28.26027" lon="-14.12719">
        <ele>142.6</ele>
        <time>2021-07-05 13:25:14</time>
      </trkpt>
      <trkpt lat="28.26023" lon="-14.12727">
        <ele>142</ele>
        <time>2021-07-05 13:25:15</time>
      </trkpt>
      <trkpt lat="28.2602" lon="-14.12736">
        <ele>142</ele>
        <time>2021-07-05 13:25:16</time>
      </trkpt>
      <trkpt lat="28.26018" lon="-14.12745">
        <ele>141.6</ele>
        <time>2021-07-05 13:25:17</time>
      </trkpt>
      <trkpt lat="28.26016" lon="-14.12754">
        <ele>141.2</ele>
        <time>2021-07-05 13:25:18</time>
      </trkpt>
      <trkpt lat="28.26014" lon="-14.12763">
        <ele>140.8</ele>
        <time>2021-07-05 13:25:19</time>
      </trkpt>
      <trkpt lat="28.26013" lon="-14.12771">
        <ele>140.4</ele>
        <time>2021-07-05 13:25:20</time>
      </trkpt>
      <trkpt lat="28.26012" lon="-14.12778">
        <ele>140</ele>
        <time>2021-07-05 13:25:21</time>
      </trkpt>
      <trkpt lat="28.26013" lon="-14.12784">
        <ele>139.4</ele>
        <time>2021-07-05 13:25:22</time>
      </trkpt>
      <trkpt lat="28.26012" lon="-14.12789">
        <ele>139.4</ele>
        <time>2021-07-05 13:25:23</time>
      </trkpt>
      <trkpt lat="28.2601" lon="-14.12793">
        <ele>139.4</ele>
        <time>2021-07-05 13:25:24</time>
      </trkpt>
      <trkpt lat="28.26008" lon="-14.12798">
        <ele>139</ele>
        <time>2021-07-05 13:25:25</time>
      </trkpt>
      <trkpt lat="28.26006" lon="-14.12802">
        <ele>138.6</ele>
        <time>2021-07-05 13:25:26</time>
      </trkpt>
      <trkpt lat="28.26002" lon="-14.12807">
        <ele>138.6</ele>
        <time>2021-07-05 13:25:27</time>
      </trkpt>
      <trkpt lat="28.25998" lon="-14.12812">
        <ele>138.4</ele>
        <time>2021-07-05 13:25:28</time>
      </trkpt>
      <trkpt lat="28.25995" lon="-14.12818">
        <ele>138</ele>
        <time>2021-07-05 13:25:29</time>
      </trkpt>
      <trkpt lat="28.25993" lon="-14.12824">
        <ele>137.6</ele>
        <time>2021-07-05 13:25:30</time>
      </trkpt>
      <trkpt lat="28.25991" lon="-14.1283">
        <ele>137.4</ele>
        <time>2021-07-05 13:25:31</time>
      </trkpt>
      <trkpt lat="28.2599" lon="-14.12835">
        <ele>137.2</ele>
        <time>2021-07-05 13:25:32</time>
      </trkpt>
      <trkpt lat="28.25989" lon="-14.12841">
        <ele>137.2</ele>
        <time>2021-07-05 13:25:33</time>
      </trkpt>
      <trkpt lat="28.25988" lon="-14.12846">
        <ele>136.8</ele>
        <time>2021-07-05 13:25:34</time>
      </trkpt>
      <trkpt lat="28.25986" lon="-14.12852">
        <ele>136.8</ele>
        <time>2021-07-05 13:25:35</time>
      </trkpt>
      <trkpt lat="28.25985" lon="-14.12857">
        <ele>136.8</ele>
        <time>2021-07-05 13:25:36</time>
      </trkpt>
      <trkpt lat="28.25984" lon="-14.12861">
        <ele>136.8</ele>
        <time>2021-07-05 13:25:37</time>
      </trkpt>
      <trkpt lat="28.25982" lon="-14.12866">
        <ele>136.8</ele>
        <time>2021-07-05 13:25:38</time>
      </trkpt>
      <trkpt lat="28.2598" lon="-14.1287">
        <ele>136.8</ele>
        <time>2021-07-05 13:25:39</time>
      </trkpt>
      <trkpt lat="28.25978" lon="-14.12875">
        <ele>136.8</ele>
        <time>2021-07-05 13:25:40</time>
      </trkpt>
      <trkpt lat="28.25976" lon="-14.1288">
        <ele>136.8</ele>
        <time>2021-07-05 13:25:41</time>
      </trkpt>
      <trkpt lat="28.25975" lon="-14.12885">
        <ele>136.8</ele>
        <time>2021-07-05 13:25:42</time>
      </trkpt>
      <trkpt lat="28.25974" lon="-14.1289">
        <ele>137.2</ele>
        <time>2021-07-05 13:25:43</time>
      </trkpt>
      <trkpt lat="28.25973" lon="-14.12895">
        <ele>137.4</ele>
        <time>2021-07-05 13:25:44</time>
      </trkpt>
      <trkpt lat="28.25973" lon="-14.129">
        <ele>137.4</ele>
        <time>2021-07-05 13:25:45</time>
      </trkpt>
      <trkpt lat="28.25973" lon="-14.12906">
        <ele>137.4</ele>
        <time>2021-07-05 13:25:46</time>
      </trkpt>
      <trkpt lat="28.25973" lon="-14.12911">
        <ele>137.8</ele>
        <time>2021-07-05 13:25:47</time>
      </trkpt>
      <trkpt lat="28.25973" lon="-14.12916">
        <ele>137.8</ele>
        <time>2021-07-05 13:25:48</time>
      </trkpt>
      <trkpt lat="28.25974" lon="-14.12921">
        <ele>137.8</ele>
        <time>2021-07-05 13:25:49</time>
      </trkpt>
      <trkpt lat="28.25974" lon="-14.12926">
        <ele>137.8</ele>
        <time>2021-07-05 13:25:50</time>
      </trkpt>
      <trkpt lat="28.25974" lon="-14.12932">
        <ele>138</ele>
        <time>2021-07-05 13:25:51</time>
      </trkpt>
      <trkpt lat="28.25974" lon="-14.12937">
        <ele>138.2</ele>
        <time>2021-07-05 13:25:52</time>
      </trkpt>
      <trkpt lat="28.25975" lon="-14.12942">
        <ele>138.2</ele>
        <time>2021-07-05 13:25:53</time>
      </trkpt>
      <trkpt lat="28.25974" lon="-14.12948">
        <ele>138.2</ele>
        <time>2021-07-05 13:25:54</time>
      </trkpt>
      <trkpt lat="28.25975" lon="-14.12953">
        <ele>138.2</ele>
        <time>2021-07-05 13:25:55</time>
      </trkpt>
      <trkpt lat="28.25975" lon="-14.12958">
        <ele>138.2</ele>
        <time>2021-07-05 13:25:56</time>
      </trkpt>
      <trkpt lat="28.25975" lon="-14.12962">
        <ele>138.2</ele>
        <time>2021-07-05 13:25:57</time>
      </trkpt>
      <trkpt lat="28.25975" lon="-14.12967">
        <ele>138.2</ele>
        <time>2021-07-05 13:25:58</time>
      </trkpt>
      <trkpt lat="28.25976" lon="-14.12972">
        <ele>138.4</ele>
        <time>2021-07-05 13:25:59</time>
      </trkpt>
      <trkpt lat="28.25976" lon="-14.12977">
        <ele>138.4</ele>
        <time>2021-07-05 13:26:00</time>
      </trkpt>
      <trkpt lat="28.25976" lon="-14.12982">
        <ele>138.6</ele>
        <time>2021-07-05 13:26:01</time>
      </trkpt>
      <trkpt lat="28.25977" lon="-14.12987">
        <ele>138.6</ele>
        <time>2021-07-05 13:26:02</time>
      </trkpt>
      <trkpt lat="28.25978" lon="-14.12992">
        <ele>138.6</ele>
        <time>2021-07-05 13:26:03</time>
      </trkpt>
      <trkpt lat="28.25979" lon="-14.12997">
        <ele>138.2</ele>
        <time>2021-07-05 13:26:04</time>
      </trkpt>
      <trkpt lat="28.25979" lon="-14.13002">
        <ele>138.2</ele>
        <time>2021-07-05 13:26:05</time>
      </trkpt>
      <trkpt lat="28.2598" lon="-14.13008">
        <ele>138.2</ele>
        <time>2021-07-05 13:26:06</time>
      </trkpt>
      <trkpt lat="28.25981" lon="-14.13013">
        <ele>138.2</ele>
        <time>2021-07-05 13:26:07</time>
      </trkpt>
      <trkpt lat="28.25982" lon="-14.13017">
        <ele>138</ele>
        <time>2021-07-05 13:26:08</time>
      </trkpt>
      <trkpt lat="28.25983" lon="-14.13022">
        <ele>138</ele>
        <time>2021-07-05 13:26:09</time>
      </trkpt>
      <trkpt lat="28.25984" lon="-14.13027">
        <ele>138</ele>
        <time>2021-07-05 13:26:10</time>
      </trkpt>
      <trkpt lat="28.25985" lon="-14.13032">
        <ele>138</ele>
        <time>2021-07-05 13:26:11</time>
      </trkpt>
      <trkpt lat="28.25985" lon="-14.13036">
        <ele>138</ele>
        <time>2021-07-05 13:26:12</time>
      </trkpt>
      <trkpt lat="28.25986" lon="-14.1304">
        <ele>138</ele>
        <time>2021-07-05 13:26:13</time>
      </trkpt>
      <trkpt lat="28.25987" lon="-14.13044">
        <ele>138</ele>
        <time>2021-07-05 13:26:14</time>
      </trkpt>
      <trkpt lat="28.25987" lon="-14.13048">
        <ele>138</ele>
        <time>2021-07-05 13:26:15</time>
      </trkpt>
      <trkpt lat="28.25988" lon="-14.13053">
        <ele>138</ele>
        <time>2021-07-05 13:26:16</time>
      </trkpt>
      <trkpt lat="28.25988" lon="-14.13056">
        <ele>138</ele>
        <time>2021-07-05 13:26:17</time>
      </trkpt>
      <trkpt lat="28.25989" lon="-14.1306">
        <ele>138.2</ele>
        <time>2021-07-05 13:26:18</time>
      </trkpt>
      <trkpt lat="28.25989" lon="-14.13063">
        <ele>138.2</ele>
        <time>2021-07-05 13:26:19</time>
      </trkpt>
      <trkpt lat="28.25989" lon="-14.13066">
        <ele>138.2</ele>
        <time>2021-07-05 13:26:20</time>
      </trkpt>
      <trkpt lat="28.25989" lon="-14.13068">
        <ele>138.2</ele>
        <time>2021-07-05 13:26:21</time>
      </trkpt>
      <trkpt lat="28.2599" lon="-14.13071">
        <ele>138.6</ele>
        <time>2021-07-05 13:26:22</time>
      </trkpt>
      <trkpt lat="28.2599" lon="-14.13073">
        <ele>138.6</ele>
        <time>2021-07-05 13:26:23</time>
      </trkpt>
      <trkpt lat="28.25991" lon="-14.13075">
        <ele>138.6</ele>
        <time>2021-07-05 13:26:24</time>
      </trkpt>
      <trkpt lat="28.25992" lon="-14.13078">
        <ele>139</ele>
        <time>2021-07-05 13:26:25</time>
      </trkpt>
      <trkpt lat="28.25992" lon="-14.1308">
        <ele>139</ele>
        <time>2021-07-05 13:26:26</time>
      </trkpt>
      <trkpt lat="28.25993" lon="-14.13082">
        <ele>139.4</ele>
        <time>2021-07-05 13:26:27</time>
      </trkpt>
      <trkpt lat="28.25994" lon="-14.13084">
        <ele>139.4</ele>
        <time>2021-07-05 13:26:28</time>
      </trkpt>
      <trkpt lat="28.25995" lon="-14.13086">
        <ele>139.8</ele>
        <time>2021-07-05 13:26:29</time>
      </trkpt>
      <trkpt lat="28.25997" lon="-14.13088">
        <ele>140</ele>
        <time>2021-07-05 13:26:30</time>
      </trkpt>
      <trkpt lat="28.25998" lon="-14.1309">
        <ele>140.4</ele>
        <time>2021-07-05 13:26:31</time>
      </trkpt>
      <trkpt lat="28.25999" lon="-14.13092">
        <ele>140.6</ele>
        <time>2021-07-05 13:26:32</time>
      </trkpt>
      <trkpt lat="28.26001" lon="-14.13094">
        <ele>141</ele>
        <time>2021-07-05 13:26:33</time>
      </trkpt>
      <trkpt lat="28.26002" lon="-14.13096">
        <ele>141.4</ele>
        <time>2021-07-05 13:26:34</time>
      </trkpt>
      <trkpt lat="28.26004" lon="-14.13098">
        <ele>141.8</ele>
        <time>2021-07-05 13:26:35</time>
      </trkpt>
      <trkpt lat="28.26005" lon="-14.13101">
        <ele>141.8</ele>
        <time>2021-07-05 13:26:36</time>
      </trkpt>
      <trkpt lat="28.26006" lon="-14.13104">
        <ele>141.8</ele>
        <time>2021-07-05 13:26:37</time>
      </trkpt>
      <trkpt lat="28.26006" lon="-14.13107">
        <ele>142</ele>
        <time>2021-07-05 13:26:38</time>
      </trkpt>
      <trkpt lat="28.26006" lon="-14.13111">
        <ele>142</ele>
        <time>2021-07-05 13:26:39</time>
      </trkpt>
      <trkpt lat="28.26006" lon="-14.13115">
        <ele>142</ele>
        <time>2021-07-05 13:26:40</time>
      </trkpt>
      <trkpt lat="28.26006" lon="-14.13118">
        <ele>142</ele>
        <time>2021-07-05 13:26:41</time>
      </trkpt>
      <trkpt lat="28.26006" lon="-14.13122">
        <ele>142</ele>
        <time>2021-07-05 13:26:42</time>
      </trkpt>
      <trkpt lat="28.26005" lon="-14.13125">
        <ele>142</ele>
        <time>2021-07-05 13:26:43</time>
      </trkpt>
      <trkpt lat="28.26005" lon="-14.13129">
        <ele>142</ele>
        <time>2021-07-05 13:26:44</time>
      </trkpt>
      <trkpt lat="28.26005" lon="-14.13133">
        <ele>142</ele>
        <time>2021-07-05 13:26:45</time>
      </trkpt>
      <trkpt lat="28.26004" lon="-14.13137">
        <ele>142</ele>
        <time>2021-07-05 13:26:46</time>
      </trkpt>
      <trkpt lat="28.26004" lon="-14.13141">
        <ele>142</ele>
        <time>2021-07-05 13:26:47</time>
      </trkpt>
      <trkpt lat="28.26004" lon="-14.13145">
        <ele>142</ele>
        <time>2021-07-05 13:26:48</time>
      </trkpt>
      <trkpt lat="28.26004" lon="-14.13149">
        <ele>142</ele>
        <time>2021-07-05 13:26:49</time>
      </trkpt>
      <trkpt lat="28.26004" lon="-14.13153">
        <ele>142</ele>
        <time>2021-07-05 13:26:50</time>
      </trkpt>
      <trkpt lat="28.26004" lon="-14.13156">
        <ele>142</ele>
        <time>2021-07-05 13:26:51</time>
      </trkpt>
      <trkpt lat="28.26004" lon="-14.1316">
        <ele>142</ele>
        <time>2021-07-05 13:26:52</time>
      </trkpt>
      <trkpt lat="28.26004" lon="-14.13164">
        <ele>142</ele>
        <time>2021-07-05 13:26:53</time>
      </trkpt>
      <trkpt lat="28.26004" lon="-14.13168">
        <ele>142</ele>
        <time>2021-07-05 13:26:54</time>
      </trkpt>
      <trkpt lat="28.26004" lon="-14.13172">
        <ele>142.2</ele>
        <time>2021-07-05 13:26:55</time>
      </trkpt>
      <trkpt lat="28.26004" lon="-14.13176">
        <ele>142.2</ele>
        <time>2021-07-05 13:26:56</time>
      </trkpt>
      <trkpt lat="28.26004" lon="-14.13179">
        <ele>142.2</ele>
        <time>2021-07-05 13:26:57</time>
      </trkpt>
      <trkpt lat="28.26004" lon="-14.13183">
        <ele>142.2</ele>
        <time>2021-07-05 13:26:58</time>
      </trkpt>
      <trkpt lat="28.26004" lon="-14.13187">
        <ele>142.2</ele>
        <time>2021-07-05 13:26:59</time>
      </trkpt>
      <trkpt lat="28.26004" lon="-14.13191">
        <ele>142.2</ele>
        <time>2021-07-05 13:27:00</time>
      </trkpt>
      <trkpt lat="28.26004" lon="-14.13195">
        <ele>142.2</ele>
        <time>2021-07-05 13:27:01</time>
      </trkpt>
      <trkpt lat="28.26004" lon="-14.13199">
        <ele>142.2</ele>
        <time>2021-07-05 13:27:02</time>
      </trkpt>
      <trkpt lat="28.26004" lon="-14.13203">
        <ele>142.2</ele>
        <time>2021-07-05 13:27:03</time>
      </trkpt>
      <trkpt lat="28.26003" lon="-14.13207">
        <ele>142.2</ele>
        <time>2021-07-05 13:27:04</time>
      </trkpt>
      <trkpt lat="28.26003" lon="-14.13211">
        <ele>142.2</ele>
        <time>2021-07-05 13:27:05</time>
      </trkpt>
      <trkpt lat="28.26003" lon="-14.13215">
        <ele>142.2</ele>
        <time>2021-07-05 13:27:06</time>
      </trkpt>
      <trkpt lat="28.26002" lon="-14.13219">
        <ele>142.2</ele>
        <time>2021-07-05 13:27:07</time>
      </trkpt>
      <trkpt lat="28.26002" lon="-14.13222">
        <ele>142.2</ele>
        <time>2021-07-05 13:27:08</time>
      </trkpt>
      <trkpt lat="28.26002" lon="-14.13226">
        <ele>142.2</ele>
        <time>2021-07-05 13:27:09</time>
      </trkpt>
      <trkpt lat="28.26001" lon="-14.1323">
        <ele>142.2</ele>
        <time>2021-07-05 13:27:10</time>
      </trkpt>
      <trkpt lat="28.26001" lon="-14.13234">
        <ele>142.2</ele>
        <time>2021-07-05 13:27:11</time>
      </trkpt>
      <trkpt lat="28.26002" lon="-14.13237">
        <ele>142.2</ele>
        <time>2021-07-05 13:27:12</time>
      </trkpt>
      <trkpt lat="28.26002" lon="-14.13241">
        <ele>142.4</ele>
        <time>2021-07-05 13:27:13</time>
      </trkpt>
      <trkpt lat="28.26002" lon="-14.13245">
        <ele>142.4</ele>
        <time>2021-07-05 13:27:14</time>
      </trkpt>
      <trkpt lat="28.26002" lon="-14.13248">
        <ele>142.8</ele>
        <time>2021-07-05 13:27:15</time>
      </trkpt>
      <trkpt lat="28.26002" lon="-14.13252">
        <ele>142.8</ele>
        <time>2021-07-05 13:27:16</time>
      </trkpt>
      <trkpt lat="28.26002" lon="-14.13255">
        <ele>143</ele>
        <time>2021-07-05 13:27:17</time>
      </trkpt>
      <trkpt lat="28.26003" lon="-14.13259">
        <ele>143</ele>
        <time>2021-07-05 13:27:18</time>
      </trkpt>
      <trkpt lat="28.26003" lon="-14.13263">
        <ele>143</ele>
        <time>2021-07-05 13:27:19</time>
      </trkpt>
      <trkpt lat="28.26004" lon="-14.13266">
        <ele>143.2</ele>
        <time>2021-07-05 13:27:20</time>
      </trkpt>
      <trkpt lat="28.26004" lon="-14.1327">
        <ele>143.2</ele>
        <time>2021-07-05 13:27:21</time>
      </trkpt>
      <trkpt lat="28.26004" lon="-14.13273">
        <ele>143.2</ele>
        <time>2021-07-05 13:27:22</time>
      </trkpt>
      <trkpt lat="28.26005" lon="-14.13277">
        <ele>143.2</ele>
        <time>2021-07-05 13:27:23</time>
      </trkpt>
      <trkpt lat="28.26005" lon="-14.13281">
        <ele>143.2</ele>
        <time>2021-07-05 13:27:24</time>
      </trkpt>
      <trkpt lat="28.26005" lon="-14.13284">
        <ele>143.4</ele>
        <time>2021-07-05 13:27:25</time>
      </trkpt>
      <trkpt lat="28.26006" lon="-14.13288">
        <ele>143.4</ele>
        <time>2021-07-05 13:27:26</time>
      </trkpt>
      <trkpt lat="28.26006" lon="-14.13291">
        <ele>143.4</ele>
        <time>2021-07-05 13:27:27</time>
      </trkpt>
      <trkpt lat="28.26005" lon="-14.13295">
        <ele>143.6</ele>
        <time>2021-07-05 13:27:28</time>
      </trkpt>
      <trkpt lat="28.26005" lon="-14.13298">
        <ele>143.6</ele>
        <time>2021-07-05 13:27:29</time>
      </trkpt>
      <trkpt lat="28.26005" lon="-14.13301">
        <ele>143.6</ele>
        <time>2021-07-05 13:27:30</time>
      </trkpt>
      <trkpt lat="28.26005" lon="-14.13305">
        <ele>143.6</ele>
        <time>2021-07-05 13:27:31</time>
      </trkpt>
      <trkpt lat="28.26004" lon="-14.13308">
        <ele>143.6</ele>
        <time>2021-07-05 13:27:32</time>
      </trkpt>
      <trkpt lat="28.26004" lon="-14.13311">
        <ele>143.6</ele>
        <time>2021-07-05 13:27:33</time>
      </trkpt>
      <trkpt lat="28.26003" lon="-14.13314">
        <ele>143.8</ele>
        <time>2021-07-05 13:27:34</time>
      </trkpt>
      <trkpt lat="28.26002" lon="-14.13317">
        <ele>144</ele>
        <time>2021-07-05 13:27:35</time>
      </trkpt>
      <trkpt lat="28.26001" lon="-14.1332">
        <ele>144</ele>
        <time>2021-07-05 13:27:36</time>
      </trkpt>
      <trkpt lat="28.26" lon="-14.13323">
        <ele>144.4</ele>
        <time>2021-07-05 13:27:37</time>
      </trkpt>
      <trkpt lat="28.25999" lon="-14.13325">
        <ele>144.4</ele>
        <time>2021-07-05 13:27:38</time>
      </trkpt>
      <trkpt lat="28.25999" lon="-14.13328">
        <ele>144.6</ele>
        <time>2021-07-05 13:27:39</time>
      </trkpt>
      <trkpt lat="28.25998" lon="-14.1333">
        <ele>145</ele>
        <time>2021-07-05 13:27:40</time>
      </trkpt>
      <trkpt lat="28.25997" lon="-14.13333">
        <ele>145</ele>
        <time>2021-07-05 13:27:41</time>
      </trkpt>
      <trkpt lat="28.25997" lon="-14.13335">
        <ele>145.2</ele>
        <time>2021-07-05 13:27:42</time>
      </trkpt>
      <trkpt lat="28.25997" lon="-14.13338">
        <ele>145.2</ele>
        <time>2021-07-05 13:27:43</time>
      </trkpt>
      <trkpt lat="28.25997" lon="-14.1334">
        <ele>145.6</ele>
        <time>2021-07-05 13:27:44</time>
      </trkpt>
      <trkpt lat="28.25997" lon="-14.13343">
        <ele>145.6</ele>
        <time>2021-07-05 13:27:45</time>
      </trkpt>
      <trkpt lat="28.25997" lon="-14.13346">
        <ele>145.6</ele>
        <time>2021-07-05 13:27:46</time>
      </trkpt>
      <trkpt lat="28.25997" lon="-14.13349">
        <ele>145.8</ele>
        <time>2021-07-05 13:27:47</time>
      </trkpt>
      <trkpt lat="28.25998" lon="-14.13351">
        <ele>145.8</ele>
        <time>2021-07-05 13:27:48</time>
      </trkpt>
      <trkpt lat="28.25998" lon="-14.13354">
        <ele>145.8</ele>
        <time>2021-07-05 13:27:49</time>
      </trkpt>
      <trkpt lat="28.25999" lon="-14.13357">
        <ele>146</ele>
        <time>2021-07-05 13:27:50</time>
      </trkpt>
      <trkpt lat="28.25999" lon="-14.13359">
        <ele>146</ele>
        <time>2021-07-05 13:27:51</time>
      </trkpt>
      <trkpt lat="28.25999" lon="-14.13362">
        <ele>146</ele>
        <time>2021-07-05 13:27:52</time>
      </trkpt>
      <trkpt lat="28.26" lon="-14.13365">
        <ele>146.2</ele>
        <time>2021-07-05 13:27:53</time>
      </trkpt>
      <trkpt lat="28.26" lon="-14.13368">
        <ele>146.2</ele>
        <time>2021-07-05 13:27:54</time>
      </trkpt>
      <trkpt lat="28.26" lon="-14.13371">
        <ele>146.2</ele>
        <time>2021-07-05 13:27:55</time>
      </trkpt>
      <trkpt lat="28.26" lon="-14.13373">
        <ele>146.2</ele>
        <time>2021-07-05 13:27:56</time>
      </trkpt>
      <trkpt lat="28.26" lon="-14.13376">
        <ele>146.6</ele>
        <time>2021-07-05 13:27:57</time>
      </trkpt>
      <trkpt lat="28.26" lon="-14.13379">
        <ele>146.6</ele>
        <time>2021-07-05 13:27:58</time>
      </trkpt>
      <trkpt lat="28.26" lon="-14.13382">
        <ele>146.8</ele>
        <time>2021-07-05 13:27:59</time>
      </trkpt>
      <trkpt lat="28.25999" lon="-14.13385">
        <ele>146.8</ele>
        <time>2021-07-05 13:28:00</time>
      </trkpt>
      <trkpt lat="28.25998" lon="-14.13388">
        <ele>146.8</ele>
        <time>2021-07-05 13:28:01</time>
      </trkpt>
      <trkpt lat="28.25998" lon="-14.13391">
        <ele>147</ele>
        <time>2021-07-05 13:28:02</time>
      </trkpt>
      <trkpt lat="28.25997" lon="-14.13394">
        <ele>147</ele>
        <time>2021-07-05 13:28:03</time>
      </trkpt>
      <trkpt lat="28.25997" lon="-14.13397">
        <ele>147.4</ele>
        <time>2021-07-05 13:28:04</time>
      </trkpt>
      <trkpt lat="28.25996" lon="-14.134">
        <ele>147.4</ele>
        <time>2021-07-05 13:28:05</time>
      </trkpt>
      <trkpt lat="28.25996" lon="-14.13403">
        <ele>147.6</ele>
        <time>2021-07-05 13:28:06</time>
      </trkpt>
      <trkpt lat="28.25996" lon="-14.13406">
        <ele>147.6</ele>
        <time>2021-07-05 13:28:07</time>
      </trkpt>
      <trkpt lat="28.25996" lon="-14.13408">
        <ele>148</ele>
        <time>2021-07-05 13:28:08</time>
      </trkpt>
      <trkpt lat="28.25995" lon="-14.13411">
        <ele>148.2</ele>
        <time>2021-07-05 13:28:09</time>
      </trkpt>
      <trkpt lat="28.25995" lon="-14.13414">
        <ele>148.2</ele>
        <time>2021-07-05 13:28:10</time>
      </trkpt>
      <trkpt lat="28.25995" lon="-14.13417">
        <ele>148.4</ele>
        <time>2021-07-05 13:28:11</time>
      </trkpt>
      <trkpt lat="28.25995" lon="-14.1342">
        <ele>148.4</ele>
        <time>2021-07-05 13:28:12</time>
      </trkpt>
      <trkpt lat="28.25996" lon="-14.13423">
        <ele>148.4</ele>
        <time>2021-07-05 13:28:13</time>
      </trkpt>
      <trkpt lat="28.25996" lon="-14.13426">
        <ele>148.8</ele>
        <time>2021-07-05 13:28:14</time>
      </trkpt>
      <trkpt lat="28.25996" lon="-14.13429">
        <ele>148.8</ele>
        <time>2021-07-05 13:28:15</time>
      </trkpt>
      <trkpt lat="28.25996" lon="-14.13431">
        <ele>149</ele>
        <time>2021-07-05 13:28:16</time>
      </trkpt>
      <trkpt lat="28.25996" lon="-14.13434">
        <ele>149</ele>
        <time>2021-07-05 13:28:17</time>
      </trkpt>
      <trkpt lat="28.25997" lon="-14.13437">
        <ele>149.8</ele>
        <time>2021-07-05 13:28:18</time>
      </trkpt>
      <trkpt lat="28.25998" lon="-14.13439">
        <ele>149.8</ele>
        <time>2021-07-05 13:28:19</time>
      </trkpt>
      <trkpt lat="28.25998" lon="-14.13442">
        <ele>150</ele>
        <time>2021-07-05 13:28:20</time>
      </trkpt>
      <trkpt lat="28.25999" lon="-14.13445">
        <ele>150.2</ele>
        <time>2021-07-05 13:28:21</time>
      </trkpt>
      <trkpt lat="28.25999" lon="-14.13447">
        <ele>150.8</ele>
        <time>2021-07-05 13:28:22</time>
      </trkpt>
      <trkpt lat="28.26" lon="-14.1345">
        <ele>150.8</ele>
        <time>2021-07-05 13:28:23</time>
      </trkpt>
      <trkpt lat="28.26" lon="-14.13452">
        <ele>151</ele>
        <time>2021-07-05 13:28:24</time>
      </trkpt>
      <trkpt lat="28.26001" lon="-14.13454">
        <ele>151.4</ele>
        <time>2021-07-05 13:28:25</time>
      </trkpt>
      <trkpt lat="28.26001" lon="-14.13457">
        <ele>151.6</ele>
        <time>2021-07-05 13:28:26</time>
      </trkpt>
      <trkpt lat="28.26002" lon="-14.13459">
        <ele>152</ele>
        <time>2021-07-05 13:28:27</time>
      </trkpt>
      <trkpt lat="28.26002" lon="-14.13461">
        <ele>152.2</ele>
        <time>2021-07-05 13:28:28</time>
      </trkpt>
      <trkpt lat="28.26003" lon="-14.13463">
        <ele>152.4</ele>
        <time>2021-07-05 13:28:29</time>
      </trkpt>
      <trkpt lat="28.26004" lon="-14.13466">
        <ele>152.8</ele>
        <time>2021-07-05 13:28:30</time>
      </trkpt>
      <trkpt lat="28.26004" lon="-14.13468">
        <ele>152.8</ele>
        <time>2021-07-05 13:28:31</time>
      </trkpt>
      <trkpt lat="28.26005" lon="-14.1347">
        <ele>153</ele>
        <time>2021-07-05 13:28:32</time>
      </trkpt>
      <trkpt lat="28.26006" lon="-14.13473">
        <ele>153.4</ele>
        <time>2021-07-05 13:28:33</time>
      </trkpt>
      <trkpt lat="28.26006" lon="-14.13475">
        <ele>153.6</ele>
        <time>2021-07-05 13:28:34</time>
      </trkpt>
      <trkpt lat="28.26006" lon="-14.13477">
        <ele>153.8</ele>
        <time>2021-07-05 13:28:35</time>
      </trkpt>
      <trkpt lat="28.26007" lon="-14.1348">
        <ele>153.8</ele>
        <time>2021-07-05 13:28:36</time>
      </trkpt>
      <trkpt lat="28.26007" lon="-14.13482">
        <ele>154</ele>
        <time>2021-07-05 13:28:37</time>
      </trkpt>
      <trkpt lat="28.26008" lon="-14.13484">
        <ele>154</ele>
        <time>2021-07-05 13:28:38</time>
      </trkpt>
      <trkpt lat="28.26009" lon="-14.13487">
        <ele>154.4</ele>
        <time>2021-07-05 13:28:39</time>
      </trkpt>
      <trkpt lat="28.26009" lon="-14.13489">
        <ele>154.4</ele>
        <time>2021-07-05 13:28:40</time>
      </trkpt>
      <trkpt lat="28.2601" lon="-14.13491">
        <ele>154.6</ele>
        <time>2021-07-05 13:28:41</time>
      </trkpt>
      <trkpt lat="28.2601" lon="-14.13494">
        <ele>154.6</ele>
        <time>2021-07-05 13:28:42</time>
      </trkpt>
      <trkpt lat="28.2601" lon="-14.13496">
        <ele>154.8</ele>
        <time>2021-07-05 13:28:43</time>
      </trkpt>
      <trkpt lat="28.2601" lon="-14.13499">
        <ele>154.8</ele>
        <time>2021-07-05 13:28:44</time>
      </trkpt>
      <trkpt lat="28.26011" lon="-14.13501">
        <ele>155.2</ele>
        <time>2021-07-05 13:28:45</time>
      </trkpt>
      <trkpt lat="28.26011" lon="-14.13503">
        <ele>155.2</ele>
        <time>2021-07-05 13:28:46</time>
      </trkpt>
      <trkpt lat="28.26011" lon="-14.13505">
        <ele>155.2</ele>
        <time>2021-07-05 13:28:47</time>
      </trkpt>
      <trkpt lat="28.26011" lon="-14.13508">
        <ele>155.4</ele>
        <time>2021-07-05 13:28:48</time>
      </trkpt>
      <trkpt lat="28.26011" lon="-14.1351">
        <ele>155.4</ele>
        <time>2021-07-05 13:28:49</time>
      </trkpt>
      <trkpt lat="28.26011" lon="-14.13512">
        <ele>155.8</ele>
        <time>2021-07-05 13:28:50</time>
      </trkpt>
      <trkpt lat="28.26011" lon="-14.13515">
        <ele>155.8</ele>
        <time>2021-07-05 13:28:51</time>
      </trkpt>
      <trkpt lat="28.26011" lon="-14.13517">
        <ele>156</ele>
        <time>2021-07-05 13:28:52</time>
      </trkpt>
      <trkpt lat="28.26011" lon="-14.13519">
        <ele>156</ele>
        <time>2021-07-05 13:28:53</time>
      </trkpt>
      <trkpt lat="28.26011" lon="-14.13521">
        <ele>156.4</ele>
        <time>2021-07-05 13:28:54</time>
      </trkpt>
      <trkpt lat="28.26011" lon="-14.13524">
        <ele>156.4</ele>
        <time>2021-07-05 13:28:55</time>
      </trkpt>
      <trkpt lat="28.2601" lon="-14.13526">
        <ele>156.8</ele>
        <time>2021-07-05 13:28:56</time>
      </trkpt>
      <trkpt lat="28.2601" lon="-14.13529">
        <ele>157.2</ele>
        <time>2021-07-05 13:28:57</time>
      </trkpt>
      <trkpt lat="28.2601" lon="-14.13531">
        <ele>157.4</ele>
        <time>2021-07-05 13:28:58</time>
      </trkpt>
      <trkpt lat="28.2601" lon="-14.13533">
        <ele>158.4</ele>
        <time>2021-07-05 13:28:59</time>
      </trkpt>
      <trkpt lat="28.2601" lon="-14.13536">
        <ele>158.4</ele>
        <time>2021-07-05 13:29:00</time>
      </trkpt>
      <trkpt lat="28.26011" lon="-14.13538">
        <ele>158.8</ele>
        <time>2021-07-05 13:29:01</time>
      </trkpt>
      <trkpt lat="28.26011" lon="-14.1354">
        <ele>159.4</ele>
        <time>2021-07-05 13:29:02</time>
      </trkpt>
      <trkpt lat="28.26011" lon="-14.13543">
        <ele>159.4</ele>
        <time>2021-07-05 13:29:03</time>
      </trkpt>
      <trkpt lat="28.26011" lon="-14.13545">
        <ele>159.8</ele>
        <time>2021-07-05 13:29:04</time>
      </trkpt>
      <trkpt lat="28.26011" lon="-14.13547">
        <ele>160.4</ele>
        <time>2021-07-05 13:29:05</time>
      </trkpt>
      <trkpt lat="28.26012" lon="-14.13549">
        <ele>161</ele>
        <time>2021-07-05 13:29:06</time>
      </trkpt>
      <trkpt lat="28.26012" lon="-14.13552">
        <ele>161.2</ele>
        <time>2021-07-05 13:29:07</time>
      </trkpt>
      <trkpt lat="28.26013" lon="-14.13554">
        <ele>161.8</ele>
        <time>2021-07-05 13:29:08</time>
      </trkpt>
      <trkpt lat="28.26014" lon="-14.13556">
        <ele>162.2</ele>
        <time>2021-07-05 13:29:09</time>
      </trkpt>
      <trkpt lat="28.26015" lon="-14.13557">
        <ele>161.4</ele>
        <time>2021-07-05 13:29:10</time>
      </trkpt>
      <trkpt lat="28.26015" lon="-14.13559">
        <ele>162</ele>
        <time>2021-07-05 13:29:11</time>
      </trkpt>
      <trkpt lat="28.26016" lon="-14.13561">
        <ele>162.4</ele>
        <time>2021-07-05 13:29:12</time>
      </trkpt>
      <trkpt lat="28.26017" lon="-14.13563">
        <ele>162.4</ele>
        <time>2021-07-05 13:29:13</time>
      </trkpt>
      <trkpt lat="28.26018" lon="-14.13565">
        <ele>162.4</ele>
        <time>2021-07-05 13:29:14</time>
      </trkpt>
      <trkpt lat="28.26019" lon="-14.13568">
        <ele>162.4</ele>
        <time>2021-07-05 13:29:15</time>
      </trkpt>
      <trkpt lat="28.2602" lon="-14.1357">
        <ele>162</ele>
        <time>2021-07-05 13:29:16</time>
      </trkpt>
      <trkpt lat="28.26021" lon="-14.13572">
        <ele>162</ele>
        <time>2021-07-05 13:29:17</time>
      </trkpt>
      <trkpt lat="28.26023" lon="-14.13574">
        <ele>162.4</ele>
        <time>2021-07-05 13:29:18</time>
      </trkpt>
      <trkpt lat="28.26024" lon="-14.13576">
        <ele>162.4</ele>
        <time>2021-07-05 13:29:19</time>
      </trkpt>
      <trkpt lat="28.26025" lon="-14.13579">
        <ele>162.6</ele>
        <time>2021-07-05 13:29:20</time>
      </trkpt>
      <trkpt lat="28.26026" lon="-14.1358">
        <ele>162.6</ele>
        <time>2021-07-05 13:29:21</time>
      </trkpt>
      <trkpt lat="28.26028" lon="-14.13582">
        <ele>162.6</ele>
        <time>2021-07-05 13:29:22</time>
      </trkpt>
      <trkpt lat="28.26029" lon="-14.13584">
        <ele>162.6</ele>
        <time>2021-07-05 13:29:23</time>
      </trkpt>
      <trkpt lat="28.26031" lon="-14.13586">
        <ele>162.6</ele>
        <time>2021-07-05 13:29:24</time>
      </trkpt>
      <trkpt lat="28.26032" lon="-14.13587">
        <ele>163</ele>
        <time>2021-07-05 13:29:25</time>
      </trkpt>
      <trkpt lat="28.26034" lon="-14.13589">
        <ele>163</ele>
        <time>2021-07-05 13:29:26</time>
      </trkpt>
      <trkpt lat="28.26035" lon="-14.1359">
        <ele>163</ele>
        <time>2021-07-05 13:29:27</time>
      </trkpt>
      <trkpt lat="28.26037" lon="-14.13591">
        <ele>163.2</ele>
        <time>2021-07-05 13:29:28</time>
      </trkpt>
      <trkpt lat="28.26039" lon="-14.13592">
        <ele>163.2</ele>
        <time>2021-07-05 13:29:29</time>
      </trkpt>
      <trkpt lat="28.26041" lon="-14.13594">
        <ele>163.6</ele>
        <time>2021-07-05 13:29:30</time>
      </trkpt>
      <trkpt lat="28.26042" lon="-14.13595">
        <ele>163.6</ele>
        <time>2021-07-05 13:29:31</time>
      </trkpt>
      <trkpt lat="28.26044" lon="-14.13596">
        <ele>163.8</ele>
        <time>2021-07-05 13:29:32</time>
      </trkpt>
      <trkpt lat="28.26046" lon="-14.13598">
        <ele>164.2</ele>
        <time>2021-07-05 13:29:33</time>
      </trkpt>
      <trkpt lat="28.26047" lon="-14.13599">
        <ele>164.6</ele>
        <time>2021-07-05 13:29:34</time>
      </trkpt>
      <trkpt lat="28.26049" lon="-14.13601">
        <ele>165</ele>
        <time>2021-07-05 13:29:35</time>
      </trkpt>
      <trkpt lat="28.26051" lon="-14.13602">
        <ele>165.2</ele>
        <time>2021-07-05 13:29:36</time>
      </trkpt>
      <trkpt lat="28.26053" lon="-14.13603">
        <ele>165.6</ele>
        <time>2021-07-05 13:29:37</time>
      </trkpt>
      <trkpt lat="28.26054" lon="-14.13605">
        <ele>166</ele>
        <time>2021-07-05 13:29:38</time>
      </trkpt>
      <trkpt lat="28.26056" lon="-14.13606">
        <ele>166.4</ele>
        <time>2021-07-05 13:29:39</time>
      </trkpt>
      <trkpt lat="28.26057" lon="-14.13608">
        <ele>166.8</ele>
        <time>2021-07-05 13:29:40</time>
      </trkpt>
      <trkpt lat="28.26058" lon="-14.13608">
        <ele>167.2</ele>
        <time>2021-07-05 13:29:41</time>
      </trkpt>
      <trkpt lat="28.2606" lon="-14.13609">
        <ele>167.6</ele>
        <time>2021-07-05 13:29:42</time>
      </trkpt>
      <trkpt lat="28.26061" lon="-14.13609">
        <ele>168</ele>
        <time>2021-07-05 13:29:43</time>
      </trkpt>
      <trkpt lat="28.26062" lon="-14.1361">
        <ele>168.4</ele>
        <time>2021-07-05 13:29:44</time>
      </trkpt>
      <trkpt lat="28.26063" lon="-14.13612">
        <ele>168.8</ele>
        <time>2021-07-05 13:29:45</time>
      </trkpt>
      <trkpt lat="28.26065" lon="-14.13613">
        <ele>169.2</ele>
        <time>2021-07-05 13:29:46</time>
      </trkpt>
      <trkpt lat="28.26066" lon="-14.13615">
        <ele>169.4</ele>
        <time>2021-07-05 13:29:47</time>
      </trkpt>
      <trkpt lat="28.26068" lon="-14.13617">
        <ele>169.8</ele>
        <time>2021-07-05 13:29:48</time>
      </trkpt>
      <trkpt lat="28.26069" lon="-14.13619">
        <ele>170.2</ele>
        <time>2021-07-05 13:29:49</time>
      </trkpt>
      <trkpt lat="28.2607" lon="-14.13621">
        <ele>170.4</ele>
        <time>2021-07-05 13:29:50</time>
      </trkpt>
      <trkpt lat="28.26071" lon="-14.13623">
        <ele>170.8</ele>
        <time>2021-07-05 13:29:51</time>
      </trkpt>
      <trkpt lat="28.26072" lon="-14.13624">
        <ele>171.8</ele>
        <time>2021-07-05 13:29:52</time>
      </trkpt>
      <trkpt lat="28.26073" lon="-14.13626">
        <ele>171.8</ele>
        <time>2021-07-05 13:29:53</time>
      </trkpt>
      <trkpt lat="28.26074" lon="-14.13628">
        <ele>172.2</ele>
        <time>2021-07-05 13:29:54</time>
      </trkpt>
      <trkpt lat="28.26075" lon="-14.1363">
        <ele>172.6</ele>
        <time>2021-07-05 13:29:55</time>
      </trkpt>
      <trkpt lat="28.26076" lon="-14.13632">
        <ele>173.2</ele>
        <time>2021-07-05 13:29:56</time>
      </trkpt>
      <trkpt lat="28.26076" lon="-14.13634">
        <ele>173.2</ele>
        <time>2021-07-05 13:29:57</time>
      </trkpt>
      <trkpt lat="28.26076" lon="-14.13636">
        <ele>173.6</ele>
        <time>2021-07-05 13:29:58</time>
      </trkpt>
      <trkpt lat="28.26077" lon="-14.13638">
        <ele>173.8</ele>
        <time>2021-07-05 13:29:59</time>
      </trkpt>
      <trkpt lat="28.26077" lon="-14.1364">
        <ele>174.2</ele>
        <time>2021-07-05 13:30:00</time>
      </trkpt>
      <trkpt lat="28.26077" lon="-14.13641">
        <ele>174.4</ele>
        <time>2021-07-05 13:30:01</time>
      </trkpt>
      <trkpt lat="28.26078" lon="-14.13643">
        <ele>174.8</ele>
        <time>2021-07-05 13:30:02</time>
      </trkpt>
      <trkpt lat="28.26078" lon="-14.13644">
        <ele>174.8</ele>
        <time>2021-07-05 13:30:03</time>
      </trkpt>
      <trkpt lat="28.26079" lon="-14.13645">
        <ele>175.2</ele>
        <time>2021-07-05 13:30:04</time>
      </trkpt>
      <trkpt lat="28.2608" lon="-14.13647">
        <ele>175.2</ele>
        <time>2021-07-05 13:30:05</time>
      </trkpt>
      <trkpt lat="28.26081" lon="-14.13649">
        <ele>175.2</ele>
        <time>2021-07-05 13:30:06</time>
      </trkpt>
      <trkpt lat="28.26082" lon="-14.13651">
        <ele>175.4</ele>
        <time>2021-07-05 13:30:07</time>
      </trkpt>
      <trkpt lat="28.26083" lon="-14.13653">
        <ele>175.4</ele>
        <time>2021-07-05 13:30:08</time>
      </trkpt>
      <trkpt lat="28.26084" lon="-14.13655">
        <ele>175.8</ele>
        <time>2021-07-05 13:30:09</time>
      </trkpt>
      <trkpt lat="28.26085" lon="-14.13658">
        <ele>175.8</ele>
        <time>2021-07-05 13:30:10</time>
      </trkpt>
      <trkpt lat="28.26086" lon="-14.1366">
        <ele>175.8</ele>
        <time>2021-07-05 13:30:11</time>
      </trkpt>
      <trkpt lat="28.26087" lon="-14.13662">
        <ele>176</ele>
        <time>2021-07-05 13:30:12</time>
      </trkpt>
      <trkpt lat="28.26088" lon="-14.13663">
        <ele>176</ele>
        <time>2021-07-05 13:30:13</time>
      </trkpt>
      <trkpt lat="28.2609" lon="-14.13665">
        <ele>176.4</ele>
        <time>2021-07-05 13:30:14</time>
      </trkpt>
      <trkpt lat="28.26091" lon="-14.13667">
        <ele>176.4</ele>
        <time>2021-07-05 13:30:15</time>
      </trkpt>
      <trkpt lat="28.26092" lon="-14.13669">
        <ele>176.8</ele>
        <time>2021-07-05 13:30:16</time>
      </trkpt>
      <trkpt lat="28.26092" lon="-14.13672">
        <ele>177</ele>
        <time>2021-07-05 13:30:17</time>
      </trkpt>
      <trkpt lat="28.26092" lon="-14.13674">
        <ele>177.4</ele>
        <time>2021-07-05 13:30:18</time>
      </trkpt>
      <trkpt lat="28.26092" lon="-14.13676">
        <ele>177.6</ele>
        <time>2021-07-05 13:30:19</time>
      </trkpt>
      <trkpt lat="28.26091" lon="-14.13678">
        <ele>177.8</ele>
        <time>2021-07-05 13:30:20</time>
      </trkpt>
      <trkpt lat="28.2609" lon="-14.1368">
        <ele>177.8</ele>
        <time>2021-07-05 13:30:21</time>
      </trkpt>
      <trkpt lat="28.26089" lon="-14.13681">
        <ele>178.2</ele>
        <time>2021-07-05 13:30:22</time>
      </trkpt>
      <trkpt lat="28.26088" lon="-14.13683">
        <ele>178.2</ele>
        <time>2021-07-05 13:30:23</time>
      </trkpt>
      <trkpt lat="28.26086" lon="-14.13685">
        <ele>178.4</ele>
        <time>2021-07-05 13:30:24</time>
      </trkpt>
      <trkpt lat="28.26084" lon="-14.13687">
        <ele>178.4</ele>
        <time>2021-07-05 13:30:25</time>
      </trkpt>
      <trkpt lat="28.26082" lon="-14.13689">
        <ele>178.6</ele>
        <time>2021-07-05 13:30:26</time>
      </trkpt>
      <trkpt lat="28.2608" lon="-14.13691">
        <ele>178.8</ele>
        <time>2021-07-05 13:30:27</time>
      </trkpt>
      <trkpt lat="28.26078" lon="-14.13693">
        <ele>178.8</ele>
        <time>2021-07-05 13:30:28</time>
      </trkpt>
      <trkpt lat="28.26076" lon="-14.13695">
        <ele>178.8</ele>
        <time>2021-07-05 13:30:29</time>
      </trkpt>
      <trkpt lat="28.26075" lon="-14.13698">
        <ele>178.8</ele>
        <time>2021-07-05 13:30:30</time>
      </trkpt>
      <trkpt lat="28.26073" lon="-14.137">
        <ele>179.2</ele>
        <time>2021-07-05 13:30:31</time>
      </trkpt>
      <trkpt lat="28.26071" lon="-14.13702">
        <ele>179.2</ele>
        <time>2021-07-05 13:30:32</time>
      </trkpt>
      <trkpt lat="28.26068" lon="-14.13705">
        <ele>179.2</ele>
        <time>2021-07-05 13:30:33</time>
      </trkpt>
      <trkpt lat="28.26065" lon="-14.13707">
        <ele>179.2</ele>
        <time>2021-07-05 13:30:34</time>
      </trkpt>
      <trkpt lat="28.26062" lon="-14.13709">
        <ele>179.2</ele>
        <time>2021-07-05 13:30:35</time>
      </trkpt>
      <trkpt lat="28.2606" lon="-14.13712">
        <ele>179.2</ele>
        <time>2021-07-05 13:30:36</time>
      </trkpt>
      <trkpt lat="28.26057" lon="-14.13715">
        <ele>179.4</ele>
        <time>2021-07-05 13:30:37</time>
      </trkpt>
      <trkpt lat="28.26054" lon="-14.13717">
        <ele>179.4</ele>
        <time>2021-07-05 13:30:38</time>
      </trkpt>
      <trkpt lat="28.26052" lon="-14.1372">
        <ele>179.4</ele>
        <time>2021-07-05 13:30:39</time>
      </trkpt>
      <trkpt lat="28.2605" lon="-14.13722">
        <ele>179.4</ele>
        <time>2021-07-05 13:30:40</time>
      </trkpt>
      <trkpt lat="28.26048" lon="-14.13724">
        <ele>179.4</ele>
        <time>2021-07-05 13:30:41</time>
      </trkpt>
      <trkpt lat="28.26045" lon="-14.13727">
        <ele>179.4</ele>
        <time>2021-07-05 13:30:42</time>
      </trkpt>
      <trkpt lat="28.26043" lon="-14.13729">
        <ele>179.4</ele>
        <time>2021-07-05 13:30:43</time>
      </trkpt>
      <trkpt lat="28.2604" lon="-14.13732">
        <ele>179.4</ele>
        <time>2021-07-05 13:30:44</time>
      </trkpt>
      <trkpt lat="28.26038" lon="-14.13734">
        <ele>179.4</ele>
        <time>2021-07-05 13:30:45</time>
      </trkpt>
      <trkpt lat="28.26036" lon="-14.13737">
        <ele>179.6</ele>
        <time>2021-07-05 13:30:46</time>
      </trkpt>
      <trkpt lat="28.26034" lon="-14.13739">
        <ele>179.6</ele>
        <time>2021-07-05 13:30:47</time>
      </trkpt>
      <trkpt lat="28.26032" lon="-14.13741">
        <ele>179.6</ele>
        <time>2021-07-05 13:30:48</time>
      </trkpt>
      <trkpt lat="28.2603" lon="-14.13743">
        <ele>180</ele>
        <time>2021-07-05 13:30:49</time>
      </trkpt>
      <trkpt lat="28.26028" lon="-14.13745">
        <ele>180</ele>
        <time>2021-07-05 13:30:50</time>
      </trkpt>
      <trkpt lat="28.26027" lon="-14.13747">
        <ele>180</ele>
        <time>2021-07-05 13:30:51</time>
      </trkpt>
      <trkpt lat="28.26025" lon="-14.13748">
        <ele>180.2</ele>
        <time>2021-07-05 13:30:52</time>
      </trkpt>
      <trkpt lat="28.26024" lon="-14.13749">
        <ele>180.2</ele>
        <time>2021-07-05 13:30:53</time>
      </trkpt>
      <trkpt lat="28.26022" lon="-14.13751">
        <ele>180.4</ele>
        <time>2021-07-05 13:30:54</time>
      </trkpt>
      <trkpt lat="28.2602" lon="-14.13752">
        <ele>180.4</ele>
        <time>2021-07-05 13:30:55</time>
      </trkpt>
      <trkpt lat="28.26018" lon="-14.13753">
        <ele>181</ele>
        <time>2021-07-05 13:30:56</time>
      </trkpt>
      <trkpt lat="28.26017" lon="-14.13755">
        <ele>181</ele>
        <time>2021-07-05 13:30:57</time>
      </trkpt>
      <trkpt lat="28.26015" lon="-14.13756">
        <ele>181.2</ele>
        <time>2021-07-05 13:30:58</time>
      </trkpt>
      <trkpt lat="28.26014" lon="-14.13757">
        <ele>181.4</ele>
        <time>2021-07-05 13:30:59</time>
      </trkpt>
      <trkpt lat="28.26012" lon="-14.13757">
        <ele>181.6</ele>
        <time>2021-07-05 13:31:00</time>
      </trkpt>
      <trkpt lat="28.26011" lon="-14.13757">
        <ele>182</ele>
        <time>2021-07-05 13:31:01</time>
      </trkpt>
      <trkpt lat="28.26009" lon="-14.13757">
        <ele>182.2</ele>
        <time>2021-07-05 13:31:02</time>
      </trkpt>
      <trkpt lat="28.26008" lon="-14.13757">
        <ele>182.4</ele>
        <time>2021-07-05 13:31:03</time>
      </trkpt>
      <trkpt lat="28.26006" lon="-14.13757">
        <ele>182.4</ele>
        <time>2021-07-05 13:31:04</time>
      </trkpt>
      <trkpt lat="28.26004" lon="-14.13756">
        <ele>182.6</ele>
        <time>2021-07-05 13:31:05</time>
      </trkpt>
      <trkpt lat="28.26002" lon="-14.13755">
        <ele>182.6</ele>
        <time>2021-07-05 13:31:06</time>
      </trkpt>
      <trkpt lat="28.26" lon="-14.13755">
        <ele>182.6</ele>
        <time>2021-07-05 13:31:07</time>
      </trkpt>
      <trkpt lat="28.25998" lon="-14.13754">
        <ele>183</ele>
        <time>2021-07-05 13:31:08</time>
      </trkpt>
      <trkpt lat="28.25997" lon="-14.13752">
        <ele>183</ele>
        <time>2021-07-05 13:31:09</time>
      </trkpt>
      <trkpt lat="28.25996" lon="-14.13751">
        <ele>183.2</ele>
        <time>2021-07-05 13:31:10</time>
      </trkpt>
      <trkpt lat="28.25996" lon="-14.1375">
        <ele>183.2</ele>
        <time>2021-07-05 13:31:11</time>
      </trkpt>
      <trkpt lat="28.25996" lon="-14.1375">
        <ele>183.6</ele>
        <time>2021-07-05 13:31:12</time>
      </trkpt>
      <trkpt lat="28.25997" lon="-14.1375">
        <ele>183.6</ele>
        <time>2021-07-05 13:31:13</time>
      </trkpt>
      <trkpt lat="28.25999" lon="-14.13747">
        <ele>183.6</ele>
        <time>2021-07-05 13:31:14</time>
      </trkpt>
      <trkpt lat="28.25999" lon="-14.13745">
        <ele>183.4</ele>
        <time>2021-07-05 13:31:15</time>
      </trkpt>
      <trkpt lat="28.25998" lon="-14.13743">
        <ele>183.2</ele>
        <time>2021-07-05 13:34:18</time>
      </trkpt>
      <trkpt lat="28.25997" lon="-14.1374">
        <ele>183.2</ele>
        <time>2021-07-05 13:34:19</time>
      </trkpt>
      <trkpt lat="28.25996" lon="-14.13737">
        <ele>182.6</ele>
        <time>2021-07-05 13:34:20</time>
      </trkpt>
      <trkpt lat="28.25995" lon="-14.13735">
        <ele>182.6</ele>
        <time>2021-07-05 13:34:21</time>
      </trkpt>
      <trkpt lat="28.25993" lon="-14.13732">
        <ele>182.6</ele>
        <time>2021-07-05 13:34:22</time>
      </trkpt>
      <trkpt lat="28.25992" lon="-14.13729">
        <ele>182.4</ele>
        <time>2021-07-05 13:34:23</time>
      </trkpt>
      <trkpt lat="28.2599" lon="-14.13726">
        <ele>182.4</ele>
        <time>2021-07-05 13:34:24</time>
      </trkpt>
      <trkpt lat="28.25989" lon="-14.13723">
        <ele>182.4</ele>
        <time>2021-07-05 13:34:25</time>
      </trkpt>
      <trkpt lat="28.25987" lon="-14.1372">
        <ele>182</ele>
        <time>2021-07-05 13:34:26</time>
      </trkpt>
      <trkpt lat="28.25985" lon="-14.13716">
        <ele>182</ele>
        <time>2021-07-05 13:34:27</time>
      </trkpt>
      <trkpt lat="28.25984" lon="-14.13713">
        <ele>181.8</ele>
        <time>2021-07-05 13:34:28</time>
      </trkpt>
      <trkpt lat="28.25982" lon="-14.1371">
        <ele>181.8</ele>
        <time>2021-07-05 13:34:29</time>
      </trkpt>
      <trkpt lat="28.2598" lon="-14.13707">
        <ele>181.8</ele>
        <time>2021-07-05 13:34:30</time>
      </trkpt>
      <trkpt lat="28.25978" lon="-14.13704">
        <ele>181.8</ele>
        <time>2021-07-05 13:34:31</time>
      </trkpt>
      <trkpt lat="28.25976" lon="-14.137">
        <ele>181.8</ele>
        <time>2021-07-05 13:34:32</time>
      </trkpt>
      <trkpt lat="28.25974" lon="-14.13697">
        <ele>181.8</ele>
        <time>2021-07-05 13:34:33</time>
      </trkpt>
      <trkpt lat="28.25972" lon="-14.13693">
        <ele>181.8</ele>
        <time>2021-07-05 13:34:34</time>
      </trkpt>
      <trkpt lat="28.25969" lon="-14.13689">
        <ele>181.8</ele>
        <time>2021-07-05 13:34:35</time>
      </trkpt>
      <trkpt lat="28.25967" lon="-14.13685">
        <ele>181.8</ele>
        <time>2021-07-05 13:34:36</time>
      </trkpt>
      <trkpt lat="28.25964" lon="-14.13682">
        <ele>181.8</ele>
        <time>2021-07-05 13:34:37</time>
      </trkpt>
      <trkpt lat="28.25961" lon="-14.13678">
        <ele>181.8</ele>
        <time>2021-07-05 13:34:38</time>
      </trkpt>
      <trkpt lat="28.25958" lon="-14.13675">
        <ele>181.8</ele>
        <time>2021-07-05 13:34:39</time>
      </trkpt>
      <trkpt lat="28.25954" lon="-14.13672">
        <ele>181.8</ele>
        <time>2021-07-05 13:34:40</time>
      </trkpt>
      <trkpt lat="28.2595" lon="-14.13669">
        <ele>181.8</ele>
        <time>2021-07-05 13:34:41</time>
      </trkpt>
      <trkpt lat="28.25945" lon="-14.13666">
        <ele>181.8</ele>
        <time>2021-07-05 13:34:42</time>
      </trkpt>
      <trkpt lat="28.2594" lon="-14.13663">
        <ele>181.6</ele>
        <time>2021-07-05 13:34:43</time>
      </trkpt>
      <trkpt lat="28.25936" lon="-14.13661">
        <ele>181.6</ele>
        <time>2021-07-05 13:34:44</time>
      </trkpt>
      <trkpt lat="28.25931" lon="-14.13659">
        <ele>181.4</ele>
        <time>2021-07-05 13:34:45</time>
      </trkpt>
      <trkpt lat="28.25925" lon="-14.13657">
        <ele>181.4</ele>
        <time>2021-07-05 13:34:46</time>
      </trkpt>
      <trkpt lat="28.2592" lon="-14.13655">
        <ele>181.4</ele>
        <time>2021-07-05 13:34:47</time>
      </trkpt>
      <trkpt lat="28.25915" lon="-14.13653">
        <ele>181</ele>
        <time>2021-07-05 13:34:48</time>
      </trkpt>
      <trkpt lat="28.2591" lon="-14.13651">
        <ele>181</ele>
        <time>2021-07-05 13:34:49</time>
      </trkpt>
      <trkpt lat="28.25904" lon="-14.13649">
        <ele>181</ele>
        <time>2021-07-05 13:34:50</time>
      </trkpt>
      <trkpt lat="28.25898" lon="-14.13648">
        <ele>180.6</ele>
        <time>2021-07-05 13:34:51</time>
      </trkpt>
      <trkpt lat="28.25892" lon="-14.13647">
        <ele>180.6</ele>
        <time>2021-07-05 13:34:52</time>
      </trkpt>
      <trkpt lat="28.25886" lon="-14.13645">
        <ele>180.6</ele>
        <time>2021-07-05 13:34:53</time>
      </trkpt>
      <trkpt lat="28.2588" lon="-14.13643">
        <ele>180.4</ele>
        <time>2021-07-05 13:34:54</time>
      </trkpt>
      <trkpt lat="28.25873" lon="-14.13641">
        <ele>180</ele>
        <time>2021-07-05 13:34:55</time>
      </trkpt>
      <trkpt lat="28.25867" lon="-14.13638">
        <ele>180</ele>
        <time>2021-07-05 13:34:56</time>
      </trkpt>
      <trkpt lat="28.25861" lon="-14.13635">
        <ele>180</ele>
        <time>2021-07-05 13:34:57</time>
      </trkpt>
      <trkpt lat="28.25855" lon="-14.13631">
        <ele>179.8</ele>
        <time>2021-07-05 13:34:58</time>
      </trkpt>
      <trkpt lat="28.2585" lon="-14.13627">
        <ele>179.6</ele>
        <time>2021-07-05 13:34:59</time>
      </trkpt>
      <trkpt lat="28.25844" lon="-14.13622">
        <ele>179.6</ele>
        <time>2021-07-05 13:35:00</time>
      </trkpt>
      <trkpt lat="28.2584" lon="-14.13617">
        <ele>179.6</ele>
        <time>2021-07-05 13:35:01</time>
      </trkpt>
      <trkpt lat="28.25835" lon="-14.13611">
        <ele>178.8</ele>
        <time>2021-07-05 13:35:02</time>
      </trkpt>
      <trkpt lat="28.25831" lon="-14.13604">
        <ele>178.4</ele>
        <time>2021-07-05 13:35:03</time>
      </trkpt>
      <trkpt lat="28.25826" lon="-14.13598">
        <ele>178.8</ele>
        <time>2021-07-05 13:35:04</time>
      </trkpt>
      <trkpt lat="28.25822" lon="-14.13592">
        <ele>178.8</ele>
        <time>2021-07-05 13:35:05</time>
      </trkpt>
      <trkpt lat="28.25817" lon="-14.13584">
        <ele>178.8</ele>
        <time>2021-07-05 13:35:06</time>
      </trkpt>
      <trkpt lat="28.25813" lon="-14.13577">
        <ele>178.6</ele>
        <time>2021-07-05 13:35:07</time>
      </trkpt>
      <trkpt lat="28.25808" lon="-14.13571">
        <ele>178.6</ele>
        <time>2021-07-05 13:35:08</time>
      </trkpt>
      <trkpt lat="28.25804" lon="-14.13563">
        <ele>178.6</ele>
        <time>2021-07-05 13:35:09</time>
      </trkpt>
      <trkpt lat="28.258" lon="-14.13555">
        <ele>178.6</ele>
        <time>2021-07-05 13:35:10</time>
      </trkpt>
      <trkpt lat="28.25795" lon="-14.13548">
        <ele>178.6</ele>
        <time>2021-07-05 13:35:11</time>
      </trkpt>
      <trkpt lat="28.25791" lon="-14.13541">
        <ele>178.6</ele>
        <time>2021-07-05 13:35:12</time>
      </trkpt>
      <trkpt lat="28.25787" lon="-14.13534">
        <ele>178.2</ele>
        <time>2021-07-05 13:35:13</time>
      </trkpt>
      <trkpt lat="28.25782" lon="-14.13527">
        <ele>178.2</ele>
        <time>2021-07-05 13:35:14</time>
      </trkpt>
      <trkpt lat="28.25778" lon="-14.1352">
        <ele>178.2</ele>
        <time>2021-07-05 13:35:15</time>
      </trkpt>
      <trkpt lat="28.25774" lon="-14.13513">
        <ele>178</ele>
        <time>2021-07-05 13:35:16</time>
      </trkpt>
      <trkpt lat="28.25769" lon="-14.13505">
        <ele>178</ele>
        <time>2021-07-05 13:35:17</time>
      </trkpt>
      <trkpt lat="28.25765" lon="-14.13498">
        <ele>177.8</ele>
        <time>2021-07-05 13:35:18</time>
      </trkpt>
      <trkpt lat="28.2576" lon="-14.13491">
        <ele>177.8</ele>
        <time>2021-07-05 13:35:19</time>
      </trkpt>
      <trkpt lat="28.25756" lon="-14.13483">
        <ele>177.6</ele>
        <time>2021-07-05 13:35:20</time>
      </trkpt>
      <trkpt lat="28.25752" lon="-14.13476">
        <ele>177.6</ele>
        <time>2021-07-05 13:35:21</time>
      </trkpt>
      <trkpt lat="28.25748" lon="-14.13468">
        <ele>177.6</ele>
        <time>2021-07-05 13:35:22</time>
      </trkpt>
      <trkpt lat="28.25744" lon="-14.1346">
        <ele>177.6</ele>
        <time>2021-07-05 13:35:23</time>
      </trkpt>
      <trkpt lat="28.25739" lon="-14.13453">
        <ele>177.6</ele>
        <time>2021-07-05 13:35:24</time>
      </trkpt>
      <trkpt lat="28.25735" lon="-14.13445">
        <ele>177.4</ele>
        <time>2021-07-05 13:35:25</time>
      </trkpt>
      <trkpt lat="28.25731" lon="-14.13437">
        <ele>177.4</ele>
        <time>2021-07-05 13:35:26</time>
      </trkpt>
      <trkpt lat="28.25726" lon="-14.1343">
        <ele>177</ele>
        <time>2021-07-05 13:35:27</time>
      </trkpt>
      <trkpt lat="28.25722" lon="-14.13422">
        <ele>177</ele>
        <time>2021-07-05 13:35:28</time>
      </trkpt>
      <trkpt lat="28.25718" lon="-14.13415">
        <ele>177</ele>
        <time>2021-07-05 13:35:29</time>
      </trkpt>
      <trkpt lat="28.25714" lon="-14.13408">
        <ele>176.8</ele>
        <time>2021-07-05 13:35:30</time>
      </trkpt>
      <trkpt lat="28.2571" lon="-14.13401">
        <ele>176.8</ele>
        <time>2021-07-05 13:35:31</time>
      </trkpt>
      <trkpt lat="28.25706" lon="-14.13394">
        <ele>176.6</ele>
        <time>2021-07-05 13:35:32</time>
      </trkpt>
      <trkpt lat="28.25702" lon="-14.13386">
        <ele>176.6</ele>
        <time>2021-07-05 13:35:33</time>
      </trkpt>
      <trkpt lat="28.25698" lon="-14.1338">
        <ele>176.6</ele>
        <time>2021-07-05 13:35:34</time>
      </trkpt>
      <trkpt lat="28.25694" lon="-14.13373">
        <ele>176.6</ele>
        <time>2021-07-05 13:35:35</time>
      </trkpt>
      <trkpt lat="28.2569" lon="-14.13366">
        <ele>176.2</ele>
        <time>2021-07-05 13:35:36</time>
      </trkpt>
      <trkpt lat="28.25686" lon="-14.13359">
        <ele>176.2</ele>
        <time>2021-07-05 13:35:37</time>
      </trkpt>
      <trkpt lat="28.25682" lon="-14.13353">
        <ele>176.2</ele>
        <time>2021-07-05 13:35:38</time>
      </trkpt>
      <trkpt lat="28.25678" lon="-14.13346">
        <ele>176</ele>
        <time>2021-07-05 13:35:39</time>
      </trkpt>
      <trkpt lat="28.25674" lon="-14.13339">
        <ele>176</ele>
        <time>2021-07-05 13:35:40</time>
      </trkpt>
      <trkpt lat="28.2567" lon="-14.13332">
        <ele>176</ele>
        <time>2021-07-05 13:35:41</time>
      </trkpt>
      <trkpt lat="28.25666" lon="-14.13325">
        <ele>176</ele>
        <time>2021-07-05 13:35:42</time>
      </trkpt>
      <trkpt lat="28.25662" lon="-14.13319">
        <ele>175.6</ele>
        <time>2021-07-05 13:35:43</time>
      </trkpt>
      <trkpt lat="28.25658" lon="-14.13312">
        <ele>175.6</ele>
        <time>2021-07-05 13:35:44</time>
      </trkpt>
      <trkpt lat="28.25654" lon="-14.13305">
        <ele>175.4</ele>
        <time>2021-07-05 13:35:45</time>
      </trkpt>
      <trkpt lat="28.2565" lon="-14.13298">
        <ele>175.4</ele>
        <time>2021-07-05 13:35:46</time>
      </trkpt>
      <trkpt lat="28.25646" lon="-14.13291">
        <ele>175.2</ele>
        <time>2021-07-05 13:35:47</time>
      </trkpt>
      <trkpt lat="28.25642" lon="-14.13285">
        <ele>175.2</ele>
        <time>2021-07-05 13:35:48</time>
      </trkpt>
      <trkpt lat="28.25638" lon="-14.13278">
        <ele>175.2</ele>
        <time>2021-07-05 13:35:49</time>
      </trkpt>
      <trkpt lat="28.25634" lon="-14.1327">
        <ele>174.8</ele>
        <time>2021-07-05 13:35:50</time>
      </trkpt>
      <trkpt lat="28.25629" lon="-14.13263">
        <ele>174.8</ele>
        <time>2021-07-05 13:35:51</time>
      </trkpt>
      <trkpt lat="28.25624" lon="-14.13256">
        <ele>174.6</ele>
        <time>2021-07-05 13:35:52</time>
      </trkpt>
      <trkpt lat="28.2562" lon="-14.13248">
        <ele>174.6</ele>
        <time>2021-07-05 13:35:53</time>
      </trkpt>
      <trkpt lat="28.25616" lon="-14.1324">
        <ele>174.4</ele>
        <time>2021-07-05 13:35:54</time>
      </trkpt>
      <trkpt lat="28.25611" lon="-14.13232">
        <ele>174.4</ele>
        <time>2021-07-05 13:35:55</time>
      </trkpt>
      <trkpt lat="28.25607" lon="-14.13224">
        <ele>174.2</ele>
        <time>2021-07-05 13:35:56</time>
      </trkpt>
      <trkpt lat="28.25603" lon="-14.13215">
        <ele>174.2</ele>
        <time>2021-07-05 13:35:57</time>
      </trkpt>
      <trkpt lat="28.25598" lon="-14.13207">
        <ele>173.6</ele>
        <time>2021-07-05 13:35:58</time>
      </trkpt>
      <trkpt lat="28.25593" lon="-14.13198">
        <ele>173.6</ele>
        <time>2021-07-05 13:35:59</time>
      </trkpt>
      <trkpt lat="28.25588" lon="-14.1319">
        <ele>173.2</ele>
        <time>2021-07-05 13:36:00</time>
      </trkpt>
      <trkpt lat="28.25583" lon="-14.13181">
        <ele>173.2</ele>
        <time>2021-07-05 13:36:01</time>
      </trkpt>
      <trkpt lat="28.25578" lon="-14.13172">
        <ele>173</ele>
        <time>2021-07-05 13:36:02</time>
      </trkpt>
      <trkpt lat="28.25573" lon="-14.13164">
        <ele>173</ele>
        <time>2021-07-05 13:36:03</time>
      </trkpt>
      <trkpt lat="28.25568" lon="-14.13155">
        <ele>173</ele>
        <time>2021-07-05 13:36:04</time>
      </trkpt>
      <trkpt lat="28.25563" lon="-14.13146">
        <ele>172.4</ele>
        <time>2021-07-05 13:36:05</time>
      </trkpt>
      <trkpt lat="28.25559" lon="-14.13137">
        <ele>172.4</ele>
        <time>2021-07-05 13:36:06</time>
      </trkpt>
      <trkpt lat="28.25553" lon="-14.13128">
        <ele>172.2</ele>
        <time>2021-07-05 13:36:07</time>
      </trkpt>
      <trkpt lat="28.25547" lon="-14.1312">
        <ele>172.2</ele>
        <time>2021-07-05 13:36:08</time>
      </trkpt>
      <trkpt lat="28.25541" lon="-14.13112">
        <ele>171.8</ele>
        <time>2021-07-05 13:36:09</time>
      </trkpt>
      <trkpt lat="28.25535" lon="-14.13104">
        <ele>171.6</ele>
        <time>2021-07-05 13:36:10</time>
      </trkpt>
      <trkpt lat="28.25528" lon="-14.13096">
        <ele>171.4</ele>
        <time>2021-07-05 13:36:11</time>
      </trkpt>
      <trkpt lat="28.25521" lon="-14.13089">
        <ele>171.4</ele>
        <time>2021-07-05 13:36:12</time>
      </trkpt>
      <trkpt lat="28.25514" lon="-14.13082">
        <ele>171.2</ele>
        <time>2021-07-05 13:36:13</time>
      </trkpt>
      <trkpt lat="28.25507" lon="-14.13075">
        <ele>171.2</ele>
        <time>2021-07-05 13:36:14</time>
      </trkpt>
      <trkpt lat="28.255" lon="-14.13067">
        <ele>171.2</ele>
        <time>2021-07-05 13:36:15</time>
      </trkpt>
      <trkpt lat="28.25493" lon="-14.1306">
        <ele>170.8</ele>
        <time>2021-07-05 13:36:16</time>
      </trkpt>
      <trkpt lat="28.25486" lon="-14.13053">
        <ele>170.8</ele>
        <time>2021-07-05 13:36:17</time>
      </trkpt>
      <trkpt lat="28.25479" lon="-14.13045">
        <ele>170.4</ele>
        <time>2021-07-05 13:36:18</time>
      </trkpt>
      <trkpt lat="28.25472" lon="-14.13038">
        <ele>170.2</ele>
        <time>2021-07-05 13:36:19</time>
      </trkpt>
      <trkpt lat="28.25465" lon="-14.1303">
        <ele>170</ele>
        <time>2021-07-05 13:36:20</time>
      </trkpt>
      <trkpt lat="28.25457" lon="-14.13023">
        <ele>170</ele>
        <time>2021-07-05 13:36:21</time>
      </trkpt>
      <trkpt lat="28.2545" lon="-14.13015">
        <ele>169.6</ele>
        <time>2021-07-05 13:36:22</time>
      </trkpt>
      <trkpt lat="28.25442" lon="-14.13007">
        <ele>169.2</ele>
        <time>2021-07-05 13:36:23</time>
      </trkpt>
      <trkpt lat="28.25434" lon="-14.13">
        <ele>169.2</ele>
        <time>2021-07-05 13:36:24</time>
      </trkpt>
      <trkpt lat="28.25427" lon="-14.12992">
        <ele>169.2</ele>
        <time>2021-07-05 13:36:25</time>
      </trkpt>
      <trkpt lat="28.25419" lon="-14.12984">
        <ele>169</ele>
        <time>2021-07-05 13:36:26</time>
      </trkpt>
      <trkpt lat="28.25411" lon="-14.12976">
        <ele>168.4</ele>
        <time>2021-07-05 13:36:27</time>
      </trkpt>
      <trkpt lat="28.25403" lon="-14.12968">
        <ele>168.2</ele>
        <time>2021-07-05 13:36:28</time>
      </trkpt>
      <trkpt lat="28.25395" lon="-14.12959">
        <ele>168</ele>
        <time>2021-07-05 13:36:29</time>
      </trkpt>
      <trkpt lat="28.25386" lon="-14.12951">
        <ele>168</ele>
        <time>2021-07-05 13:36:30</time>
      </trkpt>
      <trkpt lat="28.25378" lon="-14.12943">
        <ele>168</ele>
        <time>2021-07-05 13:36:31</time>
      </trkpt>
      <trkpt lat="28.2537" lon="-14.12934">
        <ele>167.2</ele>
        <time>2021-07-05 13:36:32</time>
      </trkpt>
      <trkpt lat="28.25361" lon="-14.12926">
        <ele>167.2</ele>
        <time>2021-07-05 13:36:33</time>
      </trkpt>
      <trkpt lat="28.25353" lon="-14.12917">
        <ele>166.4</ele>
        <time>2021-07-05 13:36:34</time>
      </trkpt>
      <trkpt lat="28.25344" lon="-14.12909">
        <ele>166.2</ele>
        <time>2021-07-05 13:36:35</time>
      </trkpt>
      <trkpt lat="28.25336" lon="-14.129">
        <ele>166</ele>
        <time>2021-07-05 13:36:36</time>
      </trkpt>
      <trkpt lat="28.25327" lon="-14.12892">
        <ele>165.6</ele>
        <time>2021-07-05 13:36:37</time>
      </trkpt>
      <trkpt lat="28.25319" lon="-14.12884">
        <ele>165.6</ele>
        <time>2021-07-05 13:36:38</time>
      </trkpt>
      <trkpt lat="28.2531" lon="-14.12876">
        <ele>165.4</ele>
        <time>2021-07-05 13:36:39</time>
      </trkpt>
      <trkpt lat="28.25301" lon="-14.12868">
        <ele>165</ele>
        <time>2021-07-05 13:36:40</time>
      </trkpt>
      <trkpt lat="28.25291" lon="-14.12861">
        <ele>164.6</ele>
        <time>2021-07-05 13:36:41</time>
      </trkpt>
      <trkpt lat="28.25282" lon="-14.12854">
        <ele>164</ele>
        <time>2021-07-05 13:36:42</time>
      </trkpt>
      <trkpt lat="28.25272" lon="-14.12848">
        <ele>164</ele>
        <time>2021-07-05 13:36:43</time>
      </trkpt>
      <trkpt lat="28.25262" lon="-14.12843">
        <ele>163.8</ele>
        <time>2021-07-05 13:36:44</time>
      </trkpt>
      <trkpt lat="28.25252" lon="-14.12838">
        <ele>163.2</ele>
        <time>2021-07-05 13:36:45</time>
      </trkpt>
      <trkpt lat="28.25242" lon="-14.12832">
        <ele>163.2</ele>
        <time>2021-07-05 13:36:46</time>
      </trkpt>
      <trkpt lat="28.25232" lon="-14.12827">
        <ele>163</ele>
        <time>2021-07-05 13:36:47</time>
      </trkpt>
      <trkpt lat="28.25222" lon="-14.12822">
        <ele>162.8</ele>
        <time>2021-07-05 13:36:48</time>
      </trkpt>
      <trkpt lat="28.25212" lon="-14.12817">
        <ele>162.4</ele>
        <time>2021-07-05 13:36:49</time>
      </trkpt>
      <trkpt lat="28.25202" lon="-14.12812">
        <ele>161.8</ele>
        <time>2021-07-05 13:36:50</time>
      </trkpt>
      <trkpt lat="28.25192" lon="-14.12806">
        <ele>161.8</ele>
        <time>2021-07-05 13:36:51</time>
      </trkpt>
      <trkpt lat="28.25182" lon="-14.12801">
        <ele>161.4</ele>
        <time>2021-07-05 13:36:52</time>
      </trkpt>
      <trkpt lat="28.25172" lon="-14.12795">
        <ele>160.8</ele>
        <time>2021-07-05 13:36:53</time>
      </trkpt>
      <trkpt lat="28.25161" lon="-14.1279">
        <ele>160.8</ele>
        <time>2021-07-05 13:36:54</time>
      </trkpt>
      <trkpt lat="28.25151" lon="-14.12784">
        <ele>160.6</ele>
        <time>2021-07-05 13:36:55</time>
      </trkpt>
      <trkpt lat="28.25141" lon="-14.12779">
        <ele>160.2</ele>
        <time>2021-07-05 13:36:56</time>
      </trkpt>
      <trkpt lat="28.25131" lon="-14.12773">
        <ele>159.8</ele>
        <time>2021-07-05 13:36:57</time>
      </trkpt>
      <trkpt lat="28.2512" lon="-14.12768">
        <ele>159</ele>
        <time>2021-07-05 13:36:58</time>
      </trkpt>
      <trkpt lat="28.2511" lon="-14.12763">
        <ele>159</ele>
        <time>2021-07-05 13:36:59</time>
      </trkpt>
      <trkpt lat="28.25099" lon="-14.12757">
        <ele>158.2</ele>
        <time>2021-07-05 13:37:00</time>
      </trkpt>
      <trkpt lat="28.25088" lon="-14.12751">
        <ele>157.8</ele>
        <time>2021-07-05 13:37:01</time>
      </trkpt>
      <trkpt lat="28.25078" lon="-14.12745">
        <ele>157.4</ele>
        <time>2021-07-05 13:37:02</time>
      </trkpt>
      <trkpt lat="28.25067" lon="-14.1274">
        <ele>157.4</ele>
        <time>2021-07-05 13:37:03</time>
      </trkpt>
      <trkpt lat="28.25056" lon="-14.12734">
        <ele>157</ele>
        <time>2021-07-05 13:37:04</time>
      </trkpt>
      <trkpt lat="28.25044" lon="-14.1273">
        <ele>156.4</ele>
        <time>2021-07-05 13:37:05</time>
      </trkpt>
      <trkpt lat="28.25032" lon="-14.12725">
        <ele>155.4</ele>
        <time>2021-07-05 13:37:06</time>
      </trkpt>
      <trkpt lat="28.2502" lon="-14.12722">
        <ele>155.4</ele>
        <time>2021-07-05 13:37:07</time>
      </trkpt>
      <trkpt lat="28.25008" lon="-14.12721">
        <ele>154.8</ele>
        <time>2021-07-05 13:37:08</time>
      </trkpt>
      <trkpt lat="28.24995" lon="-14.12721">
        <ele>154.2</ele>
        <time>2021-07-05 13:37:09</time>
      </trkpt>
      <trkpt lat="28.24982" lon="-14.12722">
        <ele>153.6</ele>
        <time>2021-07-05 13:37:10</time>
      </trkpt>
      <trkpt lat="28.24969" lon="-14.12723">
        <ele>153</ele>
        <time>2021-07-05 13:37:11</time>
      </trkpt>
      <trkpt lat="28.24956" lon="-14.12724">
        <ele>152.6</ele>
        <time>2021-07-05 13:37:12</time>
      </trkpt>
      <trkpt lat="28.24944" lon="-14.12725">
        <ele>152</ele>
        <time>2021-07-05 13:37:13</time>
      </trkpt>
      <trkpt lat="28.24931" lon="-14.12727">
        <ele>151.4</ele>
        <time>2021-07-05 13:37:14</time>
      </trkpt>
      <trkpt lat="28.24918" lon="-14.12728">
        <ele>150.6</ele>
        <time>2021-07-05 13:37:15</time>
      </trkpt>
      <trkpt lat="28.24906" lon="-14.1273">
        <ele>150.2</ele>
        <time>2021-07-05 13:37:16</time>
      </trkpt>
      <trkpt lat="28.24893" lon="-14.12731">
        <ele>149</ele>
        <time>2021-07-05 13:37:17</time>
      </trkpt>
      <trkpt lat="28.24881" lon="-14.12733">
        <ele>149</ele>
        <time>2021-07-05 13:37:18</time>
      </trkpt>
      <trkpt lat="28.24869" lon="-14.12735">
        <ele>148.4</ele>
        <time>2021-07-05 13:37:19</time>
      </trkpt>
      <trkpt lat="28.24856" lon="-14.12737">
        <ele>147.8</ele>
        <time>2021-07-05 13:37:20</time>
      </trkpt>
      <trkpt lat="28.24844" lon="-14.12739">
        <ele>147.2</ele>
        <time>2021-07-05 13:37:21</time>
      </trkpt>
      <trkpt lat="28.24831" lon="-14.1274">
        <ele>146.6</ele>
        <time>2021-07-05 13:37:22</time>
      </trkpt>
      <trkpt lat="28.24818" lon="-14.12741">
        <ele>146.2</ele>
        <time>2021-07-05 13:37:23</time>
      </trkpt>
      <trkpt lat="28.24806" lon="-14.12743">
        <ele>145.6</ele>
        <time>2021-07-05 13:37:24</time>
      </trkpt>
      <trkpt lat="28.24794" lon="-14.12745">
        <ele>144.8</ele>
        <time>2021-07-05 13:37:25</time>
      </trkpt>
      <trkpt lat="28.24782" lon="-14.12747">
        <ele>143.6</ele>
        <time>2021-07-05 13:37:26</time>
      </trkpt>
      <trkpt lat="28.2477" lon="-14.12748">
        <ele>143.6</ele>
        <time>2021-07-05 13:37:27</time>
      </trkpt>
      <trkpt lat="28.24758" lon="-14.1275">
        <ele>143</ele>
        <time>2021-07-05 13:37:28</time>
      </trkpt>
      <trkpt lat="28.24747" lon="-14.12751">
        <ele>142.6</ele>
        <time>2021-07-05 13:37:29</time>
      </trkpt>
      <trkpt lat="28.24735" lon="-14.12753">
        <ele>142</ele>
        <time>2021-07-05 13:37:30</time>
      </trkpt>
      <trkpt lat="28.24724" lon="-14.12754">
        <ele>141.2</ele>
        <time>2021-07-05 13:37:31</time>
      </trkpt>
      <trkpt lat="28.24712" lon="-14.12753">
        <ele>141.2</ele>
        <time>2021-07-05 13:37:32</time>
      </trkpt>
      <trkpt lat="28.24701" lon="-14.12753">
        <ele>140.8</ele>
        <time>2021-07-05 13:37:33</time>
      </trkpt>
      <trkpt lat="28.2469" lon="-14.12753">
        <ele>140</ele>
        <time>2021-07-05 13:37:34</time>
      </trkpt>
      <trkpt lat="28.24679" lon="-14.12751">
        <ele>140</ele>
        <time>2021-07-05 13:37:35</time>
      </trkpt>
      <trkpt lat="28.24668" lon="-14.12749">
        <ele>139.6</ele>
        <time>2021-07-05 13:37:36</time>
      </trkpt>
      <trkpt lat="28.24657" lon="-14.12746">
        <ele>139.2</ele>
        <time>2021-07-05 13:37:37</time>
      </trkpt>
      <trkpt lat="28.24647" lon="-14.12742">
        <ele>138.4</ele>
        <time>2021-07-05 13:37:38</time>
      </trkpt>
      <trkpt lat="28.24637" lon="-14.12739">
        <ele>138.4</ele>
        <time>2021-07-05 13:37:39</time>
      </trkpt>
      <trkpt lat="28.24627" lon="-14.12734">
        <ele>138</ele>
        <time>2021-07-05 13:37:40</time>
      </trkpt>
      <trkpt lat="28.24617" lon="-14.12728">
        <ele>137.6</ele>
        <time>2021-07-05 13:37:41</time>
      </trkpt>
      <trkpt lat="28.24607" lon="-14.12722">
        <ele>137.2</ele>
        <time>2021-07-05 13:37:42</time>
      </trkpt>
      <trkpt lat="28.24597" lon="-14.12717">
        <ele>136.8</ele>
        <time>2021-07-05 13:37:43</time>
      </trkpt>
      <trkpt lat="28.24587" lon="-14.12711">
        <ele>136.4</ele>
        <time>2021-07-05 13:37:44</time>
      </trkpt>
      <trkpt lat="28.24577" lon="-14.12705">
        <ele>135.8</ele>
        <time>2021-07-05 13:37:45</time>
      </trkpt>
      <trkpt lat="28.24567" lon="-14.12699">
        <ele>135.2</ele>
        <time>2021-07-05 13:37:46</time>
      </trkpt>
      <trkpt lat="28.24556" lon="-14.12693">
        <ele>135.2</ele>
        <time>2021-07-05 13:37:47</time>
      </trkpt>
      <trkpt lat="28.24546" lon="-14.12687">
        <ele>134.6</ele>
        <time>2021-07-05 13:37:48</time>
      </trkpt>
      <trkpt lat="28.24535" lon="-14.12681">
        <ele>134</ele>
        <time>2021-07-05 13:37:49</time>
      </trkpt>
      <trkpt lat="28.24525" lon="-14.12675">
        <ele>133.8</ele>
        <time>2021-07-05 13:37:50</time>
      </trkpt>
      <trkpt lat="28.24514" lon="-14.1267">
        <ele>132.6</ele>
        <time>2021-07-05 13:37:51</time>
      </trkpt>
      <trkpt lat="28.24504" lon="-14.12664">
        <ele>132.6</ele>
        <time>2021-07-05 13:37:52</time>
      </trkpt>
      <trkpt lat="28.24493" lon="-14.12658">
        <ele>132</ele>
        <time>2021-07-05 13:37:53</time>
      </trkpt>
      <trkpt lat="28.24482" lon="-14.12652">
        <ele>131.6</ele>
        <time>2021-07-05 13:37:54</time>
      </trkpt>
      <trkpt lat="28.24472" lon="-14.12646">
        <ele>130.6</ele>
        <time>2021-07-05 13:37:55</time>
      </trkpt>
      <trkpt lat="28.24461" lon="-14.1264">
        <ele>130.6</ele>
        <time>2021-07-05 13:37:56</time>
      </trkpt>
      <trkpt lat="28.24451" lon="-14.12634">
        <ele>129.8</ele>
        <time>2021-07-05 13:37:57</time>
      </trkpt>
      <trkpt lat="28.2444" lon="-14.12628">
        <ele>129.4</ele>
        <time>2021-07-05 13:37:58</time>
      </trkpt>
      <trkpt lat="28.2443" lon="-14.12622">
        <ele>129</ele>
        <time>2021-07-05 13:37:59</time>
      </trkpt>
      <trkpt lat="28.24419" lon="-14.12617">
        <ele>128.8</ele>
        <time>2021-07-05 13:38:00</time>
      </trkpt>
      <trkpt lat="28.24408" lon="-14.12611">
        <ele>128.4</ele>
        <time>2021-07-05 13:38:01</time>
      </trkpt>
      <trkpt lat="28.24397" lon="-14.12606">
        <ele>128</ele>
        <time>2021-07-05 13:38:02</time>
      </trkpt>
      <trkpt lat="28.24386" lon="-14.12601">
        <ele>127.6</ele>
        <time>2021-07-05 13:38:03</time>
      </trkpt>
      <trkpt lat="28.24374" lon="-14.12596">
        <ele>127.6</ele>
        <time>2021-07-05 13:38:04</time>
      </trkpt>
      <trkpt lat="28.24363" lon="-14.12592">
        <ele>127.2</ele>
        <time>2021-07-05 13:38:05</time>
      </trkpt>
      <trkpt lat="28.24351" lon="-14.12588">
        <ele>126.8</ele>
        <time>2021-07-05 13:38:06</time>
      </trkpt>
      <trkpt lat="28.24339" lon="-14.12584">
        <ele>126.4</ele>
        <time>2021-07-05 13:38:07</time>
      </trkpt>
      <trkpt lat="28.24327" lon="-14.12582">
        <ele>126</ele>
        <time>2021-07-05 13:38:08</time>
      </trkpt>
      <trkpt lat="28.24315" lon="-14.12579">
        <ele>125.8</ele>
        <time>2021-07-05 13:38:09</time>
      </trkpt>
      <trkpt lat="28.24302" lon="-14.12577">
        <ele>125.2</ele>
        <time>2021-07-05 13:38:10</time>
      </trkpt>
      <trkpt lat="28.2429" lon="-14.12575">
        <ele>124.8</ele>
        <time>2021-07-05 13:38:11</time>
      </trkpt>
      <trkpt lat="28.24277" lon="-14.12573">
        <ele>124.4</ele>
        <time>2021-07-05 13:38:12</time>
      </trkpt>
      <trkpt lat="28.24264" lon="-14.12571">
        <ele>124</ele>
        <time>2021-07-05 13:38:13</time>
      </trkpt>
      <trkpt lat="28.2425" lon="-14.1257">
        <ele>123.8</ele>
        <time>2021-07-05 13:38:14</time>
      </trkpt>
      <trkpt lat="28.24237" lon="-14.12568">
        <ele>123.2</ele>
        <time>2021-07-05 13:38:15</time>
      </trkpt>
      <trkpt lat="28.24224" lon="-14.12567">
        <ele>122.4</ele>
        <time>2021-07-05 13:38:16</time>
      </trkpt>
      <trkpt lat="28.2421" lon="-14.12565">
        <ele>121.6</ele>
        <time>2021-07-05 13:38:17</time>
      </trkpt>
      <trkpt lat="28.24197" lon="-14.12563">
        <ele>120.8</ele>
        <time>2021-07-05 13:38:18</time>
      </trkpt>
      <trkpt lat="28.24184" lon="-14.12561">
        <ele>119.8</ele>
        <time>2021-07-05 13:38:19</time>
      </trkpt>
      <trkpt lat="28.24171" lon="-14.1256">
        <ele>119</ele>
        <time>2021-07-05 13:38:20</time>
      </trkpt>
      <trkpt lat="28.24158" lon="-14.12558">
        <ele>117.2</ele>
        <time>2021-07-05 13:38:21</time>
      </trkpt>
      <trkpt lat="28.24145" lon="-14.12556">
        <ele>117.2</ele>
        <time>2021-07-05 13:38:22</time>
      </trkpt>
      <trkpt lat="28.24134" lon="-14.12553">
        <ele>116.4</ele>
        <time>2021-07-05 13:38:23</time>
      </trkpt>
      <trkpt lat="28.24123" lon="-14.12551">
        <ele>115.6</ele>
        <time>2021-07-05 13:38:24</time>
      </trkpt>
      <trkpt lat="28.24113" lon="-14.12546">
        <ele>114.4</ele>
        <time>2021-07-05 13:38:25</time>
      </trkpt>
      <trkpt lat="28.24102" lon="-14.12542">
        <ele>113.8</ele>
        <time>2021-07-05 13:38:26</time>
      </trkpt>
      <trkpt lat="28.24092" lon="-14.12537">
        <ele>113.8</ele>
        <time>2021-07-05 13:38:27</time>
      </trkpt>
      <trkpt lat="28.24082" lon="-14.12532">
        <ele>113.2</ele>
        <time>2021-07-05 13:38:28</time>
      </trkpt>
      <trkpt lat="28.24073" lon="-14.12526">
        <ele>112.6</ele>
        <time>2021-07-05 13:38:29</time>
      </trkpt>
      <trkpt lat="28.24063" lon="-14.12521">
        <ele>112.2</ele>
        <time>2021-07-05 13:38:30</time>
      </trkpt>
      <trkpt lat="28.24053" lon="-14.12515">
        <ele>111.8</ele>
        <time>2021-07-05 13:38:31</time>
      </trkpt>
      <trkpt lat="28.24043" lon="-14.1251">
        <ele>111.6</ele>
        <time>2021-07-05 13:38:32</time>
      </trkpt>
      <trkpt lat="28.24033" lon="-14.12505">
        <ele>111.2</ele>
        <time>2021-07-05 13:38:33</time>
      </trkpt>
      <trkpt lat="28.24024" lon="-14.12499">
        <ele>111</ele>
        <time>2021-07-05 13:38:34</time>
      </trkpt>
      <trkpt lat="28.24014" lon="-14.12494">
        <ele>110.6</ele>
        <time>2021-07-05 13:38:35</time>
      </trkpt>
      <trkpt lat="28.24005" lon="-14.12488">
        <ele>110.6</ele>
        <time>2021-07-05 13:38:36</time>
      </trkpt>
      <trkpt lat="28.23996" lon="-14.12484">
        <ele>110.4</ele>
        <time>2021-07-05 13:38:37</time>
      </trkpt>
      <trkpt lat="28.23987" lon="-14.1248">
        <ele>110.4</ele>
        <time>2021-07-05 13:38:38</time>
      </trkpt>
      <trkpt lat="28.23978" lon="-14.12476">
        <ele>110.2</ele>
        <time>2021-07-05 13:38:39</time>
      </trkpt>
      <trkpt lat="28.23968" lon="-14.12472">
        <ele>110.2</ele>
        <time>2021-07-05 13:38:40</time>
      </trkpt>
      <trkpt lat="28.2396" lon="-14.12469">
        <ele>110.2</ele>
        <time>2021-07-05 13:38:41</time>
      </trkpt>
      <trkpt lat="28.23952" lon="-14.12465">
        <ele>110.2</ele>
        <time>2021-07-05 13:38:42</time>
      </trkpt>
      <trkpt lat="28.23943" lon="-14.12462">
        <ele>110.2</ele>
        <time>2021-07-05 13:38:43</time>
      </trkpt>
      <trkpt lat="28.23934" lon="-14.12459">
        <ele>110.2</ele>
        <time>2021-07-05 13:38:44</time>
      </trkpt>
      <trkpt lat="28.23926" lon="-14.12455">
        <ele>110.2</ele>
        <time>2021-07-05 13:38:45</time>
      </trkpt>
      <trkpt lat="28.23917" lon="-14.12452">
        <ele>109.8</ele>
        <time>2021-07-05 13:38:46</time>
      </trkpt>
      <trkpt lat="28.23909" lon="-14.12449">
        <ele>109.8</ele>
        <time>2021-07-05 13:38:47</time>
      </trkpt>
      <trkpt lat="28.239" lon="-14.12445">
        <ele>109.6</ele>
        <time>2021-07-05 13:38:48</time>
      </trkpt>
      <trkpt lat="28.23892" lon="-14.12442">
        <ele>109.4</ele>
        <time>2021-07-05 13:38:49</time>
      </trkpt>
      <trkpt lat="28.23884" lon="-14.12438">
        <ele>109</ele>
        <time>2021-07-05 13:38:50</time>
      </trkpt>
      <trkpt lat="28.23875" lon="-14.12434">
        <ele>109</ele>
        <time>2021-07-05 13:38:51</time>
      </trkpt>
      <trkpt lat="28.23867" lon="-14.1243">
        <ele>108.8</ele>
        <time>2021-07-05 13:38:52</time>
      </trkpt>
      <trkpt lat="28.23858" lon="-14.12425">
        <ele>108.4</ele>
        <time>2021-07-05 13:38:53</time>
      </trkpt>
      <trkpt lat="28.23848" lon="-14.12421">
        <ele>108.2</ele>
        <time>2021-07-05 13:38:54</time>
      </trkpt>
      <trkpt lat="28.23839" lon="-14.12416">
        <ele>107.8</ele>
        <time>2021-07-05 13:38:55</time>
      </trkpt>
      <trkpt lat="28.2383" lon="-14.1241">
        <ele>107.2</ele>
        <time>2021-07-05 13:38:56</time>
      </trkpt>
      <trkpt lat="28.2382" lon="-14.12405">
        <ele>107.2</ele>
        <time>2021-07-05 13:38:57</time>
      </trkpt>
      <trkpt lat="28.2381" lon="-14.12399">
        <ele>106.6</ele>
        <time>2021-07-05 13:38:58</time>
      </trkpt>
      <trkpt lat="28.238" lon="-14.12393">
        <ele>105.6</ele>
        <time>2021-07-05 13:38:59</time>
      </trkpt>
      <trkpt lat="28.2379" lon="-14.12388">
        <ele>105.6</ele>
        <time>2021-07-05 13:39:00</time>
      </trkpt>
      <trkpt lat="28.23779" lon="-14.12381">
        <ele>105</ele>
        <time>2021-07-05 13:39:01</time>
      </trkpt>
      <trkpt lat="28.23768" lon="-14.12375">
        <ele>104.4</ele>
        <time>2021-07-05 13:39:02</time>
      </trkpt>
      <trkpt lat="28.23757" lon="-14.12369">
        <ele>103.8</ele>
        <time>2021-07-05 13:39:03</time>
      </trkpt>
      <trkpt lat="28.23747" lon="-14.12363">
        <ele>103.2</ele>
        <time>2021-07-05 13:39:04</time>
      </trkpt>
      <trkpt lat="28.23736" lon="-14.12357">
        <ele>102.8</ele>
        <time>2021-07-05 13:39:05</time>
      </trkpt>
      <trkpt lat="28.23725" lon="-14.1235">
        <ele>101.8</ele>
        <time>2021-07-05 13:39:06</time>
      </trkpt>
      <trkpt lat="28.23714" lon="-14.12344">
        <ele>101.8</ele>
        <time>2021-07-05 13:39:07</time>
      </trkpt>
      <trkpt lat="28.23703" lon="-14.12338">
        <ele>101.4</ele>
        <time>2021-07-05 13:39:08</time>
      </trkpt>
      <trkpt lat="28.23692" lon="-14.12331">
        <ele>100.8</ele>
        <time>2021-07-05 13:39:09</time>
      </trkpt>
      <trkpt lat="28.23681" lon="-14.12324">
        <ele>100.4</ele>
        <time>2021-07-05 13:39:10</time>
      </trkpt>
      <trkpt lat="28.2367" lon="-14.12318">
        <ele>99.8</ele>
        <time>2021-07-05 13:39:11</time>
      </trkpt>
      <trkpt lat="28.23659" lon="-14.12312">
        <ele>99.8</ele>
        <time>2021-07-05 13:39:12</time>
      </trkpt>
      <trkpt lat="28.23648" lon="-14.12305">
        <ele>99</ele>
        <time>2021-07-05 13:39:13</time>
      </trkpt>
      <trkpt lat="28.23637" lon="-14.12298">
        <ele>99</ele>
        <time>2021-07-05 13:39:14</time>
      </trkpt>
      <trkpt lat="28.23626" lon="-14.12292">
        <ele>98.2</ele>
        <time>2021-07-05 13:39:15</time>
      </trkpt>
      <trkpt lat="28.23615" lon="-14.12286">
        <ele>98.2</ele>
        <time>2021-07-05 13:39:16</time>
      </trkpt>
      <trkpt lat="28.23604" lon="-14.1228">
        <ele>98</ele>
        <time>2021-07-05 13:39:17</time>
      </trkpt>
      <trkpt lat="28.23593" lon="-14.12273">
        <ele>97.4</ele>
        <time>2021-07-05 13:39:18</time>
      </trkpt>
      <trkpt lat="28.23582" lon="-14.12267">
        <ele>97.4</ele>
        <time>2021-07-05 13:39:19</time>
      </trkpt>
      <trkpt lat="28.23571" lon="-14.1226">
        <ele>97</ele>
        <time>2021-07-05 13:39:20</time>
      </trkpt>
      <trkpt lat="28.2356" lon="-14.12254">
        <ele>96.4</ele>
        <time>2021-07-05 13:39:21</time>
      </trkpt>
      <trkpt lat="28.2355" lon="-14.12248">
        <ele>96.4</ele>
        <time>2021-07-05 13:39:22</time>
      </trkpt>
      <trkpt lat="28.23539" lon="-14.12241">
        <ele>95.8</ele>
        <time>2021-07-05 13:39:23</time>
      </trkpt>
      <trkpt lat="28.23528" lon="-14.12235">
        <ele>95.8</ele>
        <time>2021-07-05 13:39:24</time>
      </trkpt>
      <trkpt lat="28.23518" lon="-14.12229">
        <ele>95.4</ele>
        <time>2021-07-05 13:39:25</time>
      </trkpt>
      <trkpt lat="28.23507" lon="-14.12223">
        <ele>95</ele>
        <time>2021-07-05 13:39:26</time>
      </trkpt>
      <trkpt lat="28.23497" lon="-14.12216">
        <ele>94.6</ele>
        <time>2021-07-05 13:39:27</time>
      </trkpt>
      <trkpt lat="28.23486" lon="-14.1221">
        <ele>94.2</ele>
        <time>2021-07-05 13:39:28</time>
      </trkpt>
      <trkpt lat="28.23476" lon="-14.12204">
        <ele>94</ele>
        <time>2021-07-05 13:39:29</time>
      </trkpt>
      <trkpt lat="28.23466" lon="-14.12198">
        <ele>93.6</ele>
        <time>2021-07-05 13:39:30</time>
      </trkpt>
      <trkpt lat="28.23457" lon="-14.12192">
        <ele>93.6</ele>
        <time>2021-07-05 13:39:31</time>
      </trkpt>
      <trkpt lat="28.23446" lon="-14.12186">
        <ele>93.6</ele>
        <time>2021-07-05 13:39:32</time>
      </trkpt>
      <trkpt lat="28.23436" lon="-14.1218">
        <ele>93.2</ele>
        <time>2021-07-05 13:39:33</time>
      </trkpt>
      <trkpt lat="28.23426" lon="-14.12175">
        <ele>92.8</ele>
        <time>2021-07-05 13:39:34</time>
      </trkpt>
      <trkpt lat="28.23416" lon="-14.12168">
        <ele>92.8</ele>
        <time>2021-07-05 13:39:35</time>
      </trkpt>
      <trkpt lat="28.23406" lon="-14.12162">
        <ele>92.6</ele>
        <time>2021-07-05 13:39:36</time>
      </trkpt>
      <trkpt lat="28.23396" lon="-14.12156">
        <ele>92.2</ele>
        <time>2021-07-05 13:39:37</time>
      </trkpt>
      <trkpt lat="28.23386" lon="-14.1215">
        <ele>91.6</ele>
        <time>2021-07-05 13:39:38</time>
      </trkpt>
      <trkpt lat="28.23376" lon="-14.12144">
        <ele>91.6</ele>
        <time>2021-07-05 13:39:39</time>
      </trkpt>
      <trkpt lat="28.23366" lon="-14.12138">
        <ele>91.4</ele>
        <time>2021-07-05 13:39:40</time>
      </trkpt>
      <trkpt lat="28.23356" lon="-14.12132">
        <ele>91.2</ele>
        <time>2021-07-05 13:39:41</time>
      </trkpt>
      <trkpt lat="28.23346" lon="-14.12126">
        <ele>90.6</ele>
        <time>2021-07-05 13:39:42</time>
      </trkpt>
      <trkpt lat="28.23336" lon="-14.1212">
        <ele>90.6</ele>
        <time>2021-07-05 13:39:43</time>
      </trkpt>
      <trkpt lat="28.23325" lon="-14.12114">
        <ele>90.4</ele>
        <time>2021-07-05 13:39:44</time>
      </trkpt>
      <trkpt lat="28.23315" lon="-14.12108">
        <ele>89.8</ele>
        <time>2021-07-05 13:39:45</time>
      </trkpt>
      <trkpt lat="28.23306" lon="-14.12102">
        <ele>89.8</ele>
        <time>2021-07-05 13:39:46</time>
      </trkpt>
      <trkpt lat="28.23296" lon="-14.12096">
        <ele>89.6</ele>
        <time>2021-07-05 13:39:47</time>
      </trkpt>
      <trkpt lat="28.23286" lon="-14.12091">
        <ele>89.2</ele>
        <time>2021-07-05 13:39:48</time>
      </trkpt>
      <trkpt lat="28.23276" lon="-14.12085">
        <ele>88.8</ele>
        <time>2021-07-05 13:39:49</time>
      </trkpt>
      <trkpt lat="28.23265" lon="-14.12079">
        <ele>88.2</ele>
        <time>2021-07-05 13:39:50</time>
      </trkpt>
      <trkpt lat="28.23255" lon="-14.12072">
        <ele>88.2</ele>
        <time>2021-07-05 13:39:51</time>
      </trkpt>
      <trkpt lat="28.23245" lon="-14.12066">
        <ele>87.8</ele>
        <time>2021-07-05 13:39:52</time>
      </trkpt>
      <trkpt lat="28.23235" lon="-14.1206">
        <ele>87.6</ele>
        <time>2021-07-05 13:39:53</time>
      </trkpt>
      <trkpt lat="28.23224" lon="-14.12053">
        <ele>87.2</ele>
        <time>2021-07-05 13:39:54</time>
      </trkpt>
      <trkpt lat="28.23214" lon="-14.12047">
        <ele>86.6</ele>
        <time>2021-07-05 13:39:55</time>
      </trkpt>
      <trkpt lat="28.23203" lon="-14.12041">
        <ele>86.4</ele>
        <time>2021-07-05 13:39:56</time>
      </trkpt>
      <trkpt lat="28.23193" lon="-14.12035">
        <ele>86.4</ele>
        <time>2021-07-05 13:39:57</time>
      </trkpt>
      <trkpt lat="28.23182" lon="-14.12029">
        <ele>86</ele>
        <time>2021-07-05 13:39:58</time>
      </trkpt>
      <trkpt lat="28.23172" lon="-14.12023">
        <ele>85.6</ele>
        <time>2021-07-05 13:39:59</time>
      </trkpt>
      <trkpt lat="28.23162" lon="-14.12017">
        <ele>85.4</ele>
        <time>2021-07-05 13:40:00</time>
      </trkpt>
      <trkpt lat="28.23152" lon="-14.12011">
        <ele>85</ele>
        <time>2021-07-05 13:40:01</time>
      </trkpt>
      <trkpt lat="28.23141" lon="-14.12004">
        <ele>84.6</ele>
        <time>2021-07-05 13:40:02</time>
      </trkpt>
      <trkpt lat="28.23131" lon="-14.11998">
        <ele>84.4</ele>
        <time>2021-07-05 13:40:03</time>
      </trkpt>
      <trkpt lat="28.23121" lon="-14.11993">
        <ele>84</ele>
        <time>2021-07-05 13:40:04</time>
      </trkpt>
      <trkpt lat="28.23111" lon="-14.11987">
        <ele>83.2</ele>
        <time>2021-07-05 13:40:05</time>
      </trkpt>
      <trkpt lat="28.23101" lon="-14.11981">
        <ele>83.2</ele>
        <time>2021-07-05 13:40:06</time>
      </trkpt>
      <trkpt lat="28.23093" lon="-14.11977">
        <ele>83</ele>
        <time>2021-07-05 13:40:07</time>
      </trkpt>
      <trkpt lat="28.23085" lon="-14.11973">
        <ele>82.8</ele>
        <time>2021-07-05 13:40:08</time>
      </trkpt>
      <trkpt lat="28.23079" lon="-14.1197">
        <ele>82.4</ele>
        <time>2021-07-05 13:40:09</time>
      </trkpt>
      <trkpt lat="28.23072" lon="-14.11967">
        <ele>81.8</ele>
        <time>2021-07-05 13:40:10</time>
      </trkpt>
      <trkpt lat="28.23065" lon="-14.11965">
        <ele>81.8</ele>
        <time>2021-07-05 13:40:11</time>
      </trkpt>
      <trkpt lat="28.23058" lon="-14.11966">
        <ele>81.6</ele>
        <time>2021-07-05 13:40:12</time>
      </trkpt>
      <trkpt lat="28.23053" lon="-14.11968">
        <ele>81.4</ele>
        <time>2021-07-05 13:40:13</time>
      </trkpt>
      <trkpt lat="28.23048" lon="-14.11969">
        <ele>81.2</ele>
        <time>2021-07-05 13:40:14</time>
      </trkpt>
      <trkpt lat="28.23044" lon="-14.11972">
        <ele>81.2</ele>
        <time>2021-07-05 13:40:15</time>
      </trkpt>
      <trkpt lat="28.2304" lon="-14.11975">
        <ele>81.2</ele>
        <time>2021-07-05 13:40:16</time>
      </trkpt>
      <trkpt lat="28.23037" lon="-14.11979">
        <ele>81.2</ele>
        <time>2021-07-05 13:40:17</time>
      </trkpt>
      <trkpt lat="28.23035" lon="-14.11983">
        <ele>81.2</ele>
        <time>2021-07-05 13:40:18</time>
      </trkpt>
      <trkpt lat="28.23033" lon="-14.11988">
        <ele>81.4</ele>
        <time>2021-07-05 13:40:19</time>
      </trkpt>
      <trkpt lat="28.23032" lon="-14.11992">
        <ele>81.4</ele>
        <time>2021-07-05 13:40:20</time>
      </trkpt>
      <trkpt lat="28.23031" lon="-14.11997">
        <ele>81.8</ele>
        <time>2021-07-05 13:40:21</time>
      </trkpt>
      <trkpt lat="28.2303" lon="-14.12002">
        <ele>82</ele>
        <time>2021-07-05 13:40:22</time>
      </trkpt>
      <trkpt lat="28.23029" lon="-14.12006">
        <ele>82.4</ele>
        <time>2021-07-05 13:40:23</time>
      </trkpt>
      <trkpt lat="28.23028" lon="-14.12011">
        <ele>82.4</ele>
        <time>2021-07-05 13:40:24</time>
      </trkpt>
      <trkpt lat="28.23028" lon="-14.12015">
        <ele>82.6</ele>
        <time>2021-07-05 13:40:25</time>
      </trkpt>
      <trkpt lat="28.23027" lon="-14.1202">
        <ele>83</ele>
        <time>2021-07-05 13:40:26</time>
      </trkpt>
      <trkpt lat="28.23026" lon="-14.12024">
        <ele>83.4</ele>
        <time>2021-07-05 13:40:27</time>
      </trkpt>
      <trkpt lat="28.23025" lon="-14.12028">
        <ele>83.6</ele>
        <time>2021-07-05 13:40:28</time>
      </trkpt>
      <trkpt lat="28.23024" lon="-14.12033">
        <ele>83.8</ele>
        <time>2021-07-05 13:40:29</time>
      </trkpt>
      <trkpt lat="28.23024" lon="-14.12038">
        <ele>84</ele>
        <time>2021-07-05 13:40:30</time>
      </trkpt>
      <trkpt lat="28.23023" lon="-14.12042">
        <ele>84</ele>
        <time>2021-07-05 13:40:31</time>
      </trkpt>
      <trkpt lat="28.23023" lon="-14.12046">
        <ele>84.4</ele>
        <time>2021-07-05 13:40:32</time>
      </trkpt>
      <trkpt lat="28.23022" lon="-14.12049">
        <ele>84.6</ele>
        <time>2021-07-05 13:40:33</time>
      </trkpt>
      <trkpt lat="28.23021" lon="-14.12052">
        <ele>84.8</ele>
        <time>2021-07-05 13:40:34</time>
      </trkpt>
      <trkpt lat="28.23021" lon="-14.12054">
        <ele>84.8</ele>
        <time>2021-07-05 13:40:35</time>
      </trkpt>
      <trkpt lat="28.23021" lon="-14.12055">
        <ele>84.8</ele>
        <time>2021-07-05 13:40:36</time>
      </trkpt>
      <trkpt lat="28.23021" lon="-14.12055">
        <ele>84.8</ele>
        <time>2021-07-05 13:40:37</time>
      </trkpt>
      <trkpt lat="28.2302" lon="-14.12055">
        <ele>84.8</ele>
        <time>2021-07-05 13:40:38</time>
      </trkpt>
      <trkpt lat="28.2302" lon="-14.12056">
        <ele>85.2</ele>
        <time>2021-07-05 13:40:39</time>
      </trkpt>
      <trkpt lat="28.2302" lon="-14.12056">
        <ele>85.2</ele>
        <time>2021-07-05 13:40:40</time>
      </trkpt>
      <trkpt lat="28.2302" lon="-14.12056">
        <ele>85.2</ele>
        <time>2021-07-05 13:40:46</time>
      </trkpt>
      <trkpt lat="28.23019" lon="-14.12057">
        <ele>85</ele>
        <time>2021-07-05 13:40:47</time>
      </trkpt>
      <trkpt lat="28.23019" lon="-14.12059">
        <ele>85</ele>
        <time>2021-07-05 13:40:48</time>
      </trkpt>
      <trkpt lat="28.23018" lon="-14.1206">
        <ele>85</ele>
        <time>2021-07-05 13:42:36</time>
      </trkpt>
      <trkpt lat="28.23018" lon="-14.12062">
        <ele>85</ele>
        <time>2021-07-05 13:42:37</time>
      </trkpt>
      <trkpt lat="28.23017" lon="-14.12065">
        <ele>85</ele>
        <time>2021-07-05 13:42:38</time>
      </trkpt>
      <trkpt lat="28.23017" lon="-14.12068">
        <ele>85</ele>
        <time>2021-07-05 13:42:39</time>
      </trkpt>
      <trkpt lat="28.23016" lon="-14.12071">
        <ele>85</ele>
        <time>2021-07-05 13:42:40</time>
      </trkpt>
      <trkpt lat="28.23016" lon="-14.12075">
        <ele>84.6</ele>
        <time>2021-07-05 13:42:41</time>
      </trkpt>
      <trkpt lat="28.23015" lon="-14.12079">
        <ele>84.6</ele>
        <time>2021-07-05 13:42:42</time>
      </trkpt>
      <trkpt lat="28.23014" lon="-14.12083">
        <ele>84.4</ele>
        <time>2021-07-05 13:42:43</time>
      </trkpt>
      <trkpt lat="28.23013" lon="-14.12087">
        <ele>84.4</ele>
        <time>2021-07-05 13:42:44</time>
      </trkpt>
      <trkpt lat="28.23012" lon="-14.12091">
        <ele>84.4</ele>
        <time>2021-07-05 13:42:45</time>
      </trkpt>
      <trkpt lat="28.23012" lon="-14.12095">
        <ele>84.2</ele>
        <time>2021-07-05 13:42:46</time>
      </trkpt>
      <trkpt lat="28.23011" lon="-14.12099">
        <ele>84.2</ele>
        <time>2021-07-05 13:42:47</time>
      </trkpt>
      <trkpt lat="28.2301" lon="-14.12103">
        <ele>84.2</ele>
        <time>2021-07-05 13:42:48</time>
      </trkpt>
      <trkpt lat="28.23009" lon="-14.12107">
        <ele>84.2</ele>
        <time>2021-07-05 13:42:49</time>
      </trkpt>
      <trkpt lat="28.23008" lon="-14.12111">
        <ele>84.2</ele>
        <time>2021-07-05 13:42:50</time>
      </trkpt>
      <trkpt lat="28.23007" lon="-14.12115">
        <ele>84</ele>
        <time>2021-07-05 13:42:51</time>
      </trkpt>
      <trkpt lat="28.23007" lon="-14.12119">
        <ele>84</ele>
        <time>2021-07-05 13:42:52</time>
      </trkpt>
      <trkpt lat="28.23006" lon="-14.12124">
        <ele>84</ele>
        <time>2021-07-05 13:42:53</time>
      </trkpt>
      <trkpt lat="28.23005" lon="-14.12128">
        <ele>84</ele>
        <time>2021-07-05 13:42:54</time>
      </trkpt>
      <trkpt lat="28.23005" lon="-14.12132">
        <ele>84</ele>
        <time>2021-07-05 13:42:55</time>
      </trkpt>
      <trkpt lat="28.23004" lon="-14.12137">
        <ele>84</ele>
        <time>2021-07-05 13:42:56</time>
      </trkpt>
      <trkpt lat="28.23003" lon="-14.12141">
        <ele>84.2</ele>
        <time>2021-07-05 13:42:57</time>
      </trkpt>
      <trkpt lat="28.23002" lon="-14.12146">
        <ele>84.2</ele>
        <time>2021-07-05 13:42:58</time>
      </trkpt>
      <trkpt lat="28.23001" lon="-14.1215">
        <ele>84.6</ele>
        <time>2021-07-05 13:42:59</time>
      </trkpt>
      <trkpt lat="28.23" lon="-14.12155">
        <ele>84.6</ele>
        <time>2021-07-05 13:43:00</time>
      </trkpt>
      <trkpt lat="28.22999" lon="-14.12159">
        <ele>85</ele>
        <time>2021-07-05 13:43:01</time>
      </trkpt>
      <trkpt lat="28.22998" lon="-14.12164">
        <ele>85</ele>
        <time>2021-07-05 13:43:02</time>
      </trkpt>
      <trkpt lat="28.22997" lon="-14.12168">
        <ele>85.2</ele>
        <time>2021-07-05 13:43:03</time>
      </trkpt>
      <trkpt lat="28.22996" lon="-14.12173">
        <ele>85.2</ele>
        <time>2021-07-05 13:43:04</time>
      </trkpt>
      <trkpt lat="28.22996" lon="-14.12177">
        <ele>85.2</ele>
        <time>2021-07-05 13:43:05</time>
      </trkpt>
      <trkpt lat="28.22995" lon="-14.12182">
        <ele>85.2</ele>
        <time>2021-07-05 13:43:06</time>
      </trkpt>
      <trkpt lat="28.22994" lon="-14.12186">
        <ele>85.2</ele>
        <time>2021-07-05 13:43:07</time>
      </trkpt>
      <trkpt lat="28.22993" lon="-14.12191">
        <ele>85.2</ele>
        <time>2021-07-05 13:43:08</time>
      </trkpt>
      <trkpt lat="28.22992" lon="-14.12196">
        <ele>85.2</ele>
        <time>2021-07-05 13:43:09</time>
      </trkpt>
      <trkpt lat="28.22991" lon="-14.122">
        <ele>85</ele>
        <time>2021-07-05 13:43:10</time>
      </trkpt>
      <trkpt lat="28.22991" lon="-14.12205">
        <ele>85</ele>
        <time>2021-07-05 13:43:11</time>
      </trkpt>
      <trkpt lat="28.2299" lon="-14.1221">
        <ele>85</ele>
        <time>2021-07-05 13:43:12</time>
      </trkpt>
      <trkpt lat="28.22989" lon="-14.12214">
        <ele>85</ele>
        <time>2021-07-05 13:43:13</time>
      </trkpt>
      <trkpt lat="28.22988" lon="-14.12219">
        <ele>85</ele>
        <time>2021-07-05 13:43:14</time>
      </trkpt>
      <trkpt lat="28.22987" lon="-14.12224">
        <ele>85</ele>
        <time>2021-07-05 13:43:15</time>
      </trkpt>
      <trkpt lat="28.22986" lon="-14.12228">
        <ele>85</ele>
        <time>2021-07-05 13:43:16</time>
      </trkpt>
      <trkpt lat="28.22986" lon="-14.12233">
        <ele>85.2</ele>
        <time>2021-07-05 13:43:17</time>
      </trkpt>
      <trkpt lat="28.22985" lon="-14.12237">
        <ele>85.2</ele>
        <time>2021-07-05 13:43:18</time>
      </trkpt>
      <trkpt lat="28.22984" lon="-14.12242">
        <ele>85.2</ele>
        <time>2021-07-05 13:43:19</time>
      </trkpt>
      <trkpt lat="28.22984" lon="-14.12246">
        <ele>85.2</ele>
        <time>2021-07-05 13:43:20</time>
      </trkpt>
      <trkpt lat="28.22983" lon="-14.12251">
        <ele>85.2</ele>
        <time>2021-07-05 13:43:21</time>
      </trkpt>
      <trkpt lat="28.22982" lon="-14.12256">
        <ele>85.2</ele>
        <time>2021-07-05 13:43:22</time>
      </trkpt>
      <trkpt lat="28.22981" lon="-14.12261">
        <ele>85.2</ele>
        <time>2021-07-05 13:43:23</time>
      </trkpt>
      <trkpt lat="28.2298" lon="-14.12266">
        <ele>85.2</ele>
        <time>2021-07-05 13:43:24</time>
      </trkpt>
      <trkpt lat="28.22978" lon="-14.12271">
        <ele>85.2</ele>
        <time>2021-07-05 13:43:25</time>
      </trkpt>
      <trkpt lat="28.22977" lon="-14.12276">
        <ele>85.2</ele>
        <time>2021-07-05 13:43:26</time>
      </trkpt>
      <trkpt lat="28.22976" lon="-14.12281">
        <ele>85.2</ele>
        <time>2021-07-05 13:43:27</time>
      </trkpt>
      <trkpt lat="28.22976" lon="-14.12286">
        <ele>85.2</ele>
        <time>2021-07-05 13:43:28</time>
      </trkpt>
      <trkpt lat="28.22975" lon="-14.12291">
        <ele>85.2</ele>
        <time>2021-07-05 13:43:29</time>
      </trkpt>
      <trkpt lat="28.22974" lon="-14.12296">
        <ele>85.2</ele>
        <time>2021-07-05 13:43:30</time>
      </trkpt>
      <trkpt lat="28.22973" lon="-14.12301">
        <ele>85.2</ele>
        <time>2021-07-05 13:43:31</time>
      </trkpt>
      <trkpt lat="28.22972" lon="-14.12306">
        <ele>85.2</ele>
        <time>2021-07-05 13:43:32</time>
      </trkpt>
      <trkpt lat="28.22971" lon="-14.12311">
        <ele>85.2</ele>
        <time>2021-07-05 13:43:33</time>
      </trkpt>
      <trkpt lat="28.2297" lon="-14.12317">
        <ele>85.2</ele>
        <time>2021-07-05 13:43:34</time>
      </trkpt>
      <trkpt lat="28.22969" lon="-14.12322">
        <ele>85.2</ele>
        <time>2021-07-05 13:43:35</time>
      </trkpt>
      <trkpt lat="28.22968" lon="-14.12328">
        <ele>85.2</ele>
        <time>2021-07-05 13:43:36</time>
      </trkpt>
      <trkpt lat="28.22967" lon="-14.12333">
        <ele>85.2</ele>
        <time>2021-07-05 13:43:37</time>
      </trkpt>
      <trkpt lat="28.22966" lon="-14.12338">
        <ele>85.2</ele>
        <time>2021-07-05 13:43:38</time>
      </trkpt>
      <trkpt lat="28.22965" lon="-14.12344">
        <ele>85.2</ele>
        <time>2021-07-05 13:43:39</time>
      </trkpt>
      <trkpt lat="28.22964" lon="-14.12349">
        <ele>85.2</ele>
        <time>2021-07-05 13:43:40</time>
      </trkpt>
      <trkpt lat="28.22962" lon="-14.12355">
        <ele>85.2</ele>
        <time>2021-07-05 13:43:41</time>
      </trkpt>
      <trkpt lat="28.22961" lon="-14.1236">
        <ele>85</ele>
        <time>2021-07-05 13:43:42</time>
      </trkpt>
      <trkpt lat="28.2296" lon="-14.12366">
        <ele>85</ele>
        <time>2021-07-05 13:43:43</time>
      </trkpt>
      <trkpt lat="28.2296" lon="-14.12372">
        <ele>84.8</ele>
        <time>2021-07-05 13:43:44</time>
      </trkpt>
      <trkpt lat="28.22958" lon="-14.12378">
        <ele>84.8</ele>
        <time>2021-07-05 13:43:45</time>
      </trkpt>
      <trkpt lat="28.22958" lon="-14.12384">
        <ele>84.8</ele>
        <time>2021-07-05 13:43:46</time>
      </trkpt>
      <trkpt lat="28.22957" lon="-14.12391">
        <ele>84.8</ele>
        <time>2021-07-05 13:43:47</time>
      </trkpt>
      <trkpt lat="28.22957" lon="-14.12397">
        <ele>84.6</ele>
        <time>2021-07-05 13:43:48</time>
      </trkpt>
      <trkpt lat="28.22956" lon="-14.12404">
        <ele>84.6</ele>
        <time>2021-07-05 13:43:49</time>
      </trkpt>
      <trkpt lat="28.22956" lon="-14.12411">
        <ele>84.2</ele>
        <time>2021-07-05 13:43:50</time>
      </trkpt>
      <trkpt lat="28.22955" lon="-14.12419">
        <ele>84.2</ele>
        <time>2021-07-05 13:43:51</time>
      </trkpt>
      <trkpt lat="28.22955" lon="-14.12427">
        <ele>83.8</ele>
        <time>2021-07-05 13:43:52</time>
      </trkpt>
      <trkpt lat="28.22954" lon="-14.12435">
        <ele>83.4</ele>
        <time>2021-07-05 13:43:53</time>
      </trkpt>
      <trkpt lat="28.22954" lon="-14.12443">
        <ele>83</ele>
        <time>2021-07-05 13:43:54</time>
      </trkpt>
      <trkpt lat="28.22953" lon="-14.12451">
        <ele>82.8</ele>
        <time>2021-07-05 13:43:55</time>
      </trkpt>
      <trkpt lat="28.22953" lon="-14.1246">
        <ele>82.4</ele>
        <time>2021-07-05 13:43:56</time>
      </trkpt>
      <trkpt lat="28.22952" lon="-14.12468">
        <ele>81.6</ele>
        <time>2021-07-05 13:43:57</time>
      </trkpt>
      <trkpt lat="28.22952" lon="-14.12476">
        <ele>81.6</ele>
        <time>2021-07-05 13:43:58</time>
      </trkpt>
      <trkpt lat="28.22951" lon="-14.12484">
        <ele>81.2</ele>
        <time>2021-07-05 13:43:59</time>
      </trkpt>
      <trkpt lat="28.22951" lon="-14.12492">
        <ele>81</ele>
        <time>2021-07-05 13:44:00</time>
      </trkpt>
      <trkpt lat="28.22951" lon="-14.12499">
        <ele>80.8</ele>
        <time>2021-07-05 13:44:01</time>
      </trkpt>
      <trkpt lat="28.22951" lon="-14.12506">
        <ele>80.8</ele>
        <time>2021-07-05 13:44:02</time>
      </trkpt>
      <trkpt lat="28.2295" lon="-14.12513">
        <ele>80.8</ele>
        <time>2021-07-05 13:44:03</time>
      </trkpt>
      <trkpt lat="28.2295" lon="-14.12519">
        <ele>80.8</ele>
        <time>2021-07-05 13:44:04</time>
      </trkpt>
      <trkpt lat="28.2295" lon="-14.12525">
        <ele>80.8</ele>
        <time>2021-07-05 13:44:05</time>
      </trkpt>
      <trkpt lat="28.2295" lon="-14.1253">
        <ele>80.8</ele>
        <time>2021-07-05 13:44:06</time>
      </trkpt>
      <trkpt lat="28.2295" lon="-14.12535">
        <ele>80.8</ele>
        <time>2021-07-05 13:44:07</time>
      </trkpt>
      <trkpt lat="28.2295" lon="-14.1254">
        <ele>80.8</ele>
        <time>2021-07-05 13:44:08</time>
      </trkpt>
      <trkpt lat="28.2295" lon="-14.12544">
        <ele>80.8</ele>
        <time>2021-07-05 13:44:09</time>
      </trkpt>
      <trkpt lat="28.2295" lon="-14.12549">
        <ele>80.8</ele>
        <time>2021-07-05 13:44:10</time>
      </trkpt>
      <trkpt lat="28.2295" lon="-14.12554">
        <ele>80.8</ele>
        <time>2021-07-05 13:44:11</time>
      </trkpt>
      <trkpt lat="28.2295" lon="-14.12559">
        <ele>80.8</ele>
        <time>2021-07-05 13:44:12</time>
      </trkpt>
      <trkpt lat="28.2295" lon="-14.12564">
        <ele>80.8</ele>
        <time>2021-07-05 13:44:13</time>
      </trkpt>
      <trkpt lat="28.22949" lon="-14.12569">
        <ele>81</ele>
        <time>2021-07-05 13:44:14</time>
      </trkpt>
      <trkpt lat="28.22949" lon="-14.12574">
        <ele>81</ele>
        <time>2021-07-05 13:44:15</time>
      </trkpt>
      <trkpt lat="28.22949" lon="-14.12579">
        <ele>81</ele>
        <time>2021-07-05 13:44:16</time>
      </trkpt>
      <trkpt lat="28.22949" lon="-14.12584">
        <ele>81.2</ele>
        <time>2021-07-05 13:44:17</time>
      </trkpt>
      <trkpt lat="28.22949" lon="-14.12589">
        <ele>81.2</ele>
        <time>2021-07-05 13:44:18</time>
      </trkpt>
      <trkpt lat="28.22949" lon="-14.12594">
        <ele>81.2</ele>
        <time>2021-07-05 13:44:19</time>
      </trkpt>
      <trkpt lat="28.22949" lon="-14.126">
        <ele>81.2</ele>
        <time>2021-07-05 13:44:20</time>
      </trkpt>
      <trkpt lat="28.22949" lon="-14.12604">
        <ele>81.2</ele>
        <time>2021-07-05 13:44:21</time>
      </trkpt>
      <trkpt lat="28.22948" lon="-14.1261">
        <ele>81.4</ele>
        <time>2021-07-05 13:44:22</time>
      </trkpt>
      <trkpt lat="28.22948" lon="-14.12615">
        <ele>81.4</ele>
        <time>2021-07-05 13:44:23</time>
      </trkpt>
      <trkpt lat="28.22948" lon="-14.12619">
        <ele>81.8</ele>
        <time>2021-07-05 13:44:24</time>
      </trkpt>
      <trkpt lat="28.22948" lon="-14.12625">
        <ele>82</ele>
        <time>2021-07-05 13:44:25</time>
      </trkpt>
      <trkpt lat="28.22949" lon="-14.12629">
        <ele>82.2</ele>
        <time>2021-07-05 13:44:26</time>
      </trkpt>
      <trkpt lat="28.22948" lon="-14.12634">
        <ele>82.2</ele>
        <time>2021-07-05 13:44:27</time>
      </trkpt>
      <trkpt lat="28.22948" lon="-14.12638">
        <ele>82.2</ele>
        <time>2021-07-05 13:44:28</time>
      </trkpt>
      <trkpt lat="28.22949" lon="-14.12642">
        <ele>82.6</ele>
        <time>2021-07-05 13:44:29</time>
      </trkpt>
      <trkpt lat="28.22949" lon="-14.12647">
        <ele>82.6</ele>
        <time>2021-07-05 13:44:30</time>
      </trkpt>
      <trkpt lat="28.2295" lon="-14.12651">
        <ele>82.8</ele>
        <time>2021-07-05 13:44:31</time>
      </trkpt>
      <trkpt lat="28.2295" lon="-14.12655">
        <ele>82.8</ele>
        <time>2021-07-05 13:44:32</time>
      </trkpt>
      <trkpt lat="28.22951" lon="-14.12658">
        <ele>83</ele>
        <time>2021-07-05 13:44:33</time>
      </trkpt>
      <trkpt lat="28.22952" lon="-14.12662">
        <ele>83</ele>
        <time>2021-07-05 13:44:34</time>
      </trkpt>
      <trkpt lat="28.22952" lon="-14.12665">
        <ele>83</ele>
        <time>2021-07-05 13:44:35</time>
      </trkpt>
      <trkpt lat="28.22953" lon="-14.12668">
        <ele>83.4</ele>
        <time>2021-07-05 13:44:36</time>
      </trkpt>
      <trkpt lat="28.22954" lon="-14.12672">
        <ele>83.4</ele>
        <time>2021-07-05 13:44:37</time>
      </trkpt>
      <trkpt lat="28.22955" lon="-14.12676">
        <ele>83.6</ele>
        <time>2021-07-05 13:44:38</time>
      </trkpt>
      <trkpt lat="28.22956" lon="-14.12679">
        <ele>83.6</ele>
        <time>2021-07-05 13:44:39</time>
      </trkpt>
      <trkpt lat="28.22957" lon="-14.12682">
        <ele>83.8</ele>
        <time>2021-07-05 13:44:40</time>
      </trkpt>
      <trkpt lat="28.22959" lon="-14.12686">
        <ele>84.2</ele>
        <time>2021-07-05 13:44:41</time>
      </trkpt>
      <trkpt lat="28.2296" lon="-14.12689">
        <ele>84.2</ele>
        <time>2021-07-05 13:44:42</time>
      </trkpt>
      <trkpt lat="28.22961" lon="-14.12693">
        <ele>84.2</ele>
        <time>2021-07-05 13:44:43</time>
      </trkpt>
      <trkpt lat="28.22962" lon="-14.12697">
        <ele>84.6</ele>
        <time>2021-07-05 13:44:44</time>
      </trkpt>
      <trkpt lat="28.22963" lon="-14.127">
        <ele>84.6</ele>
        <time>2021-07-05 13:44:45</time>
      </trkpt>
      <trkpt lat="28.22964" lon="-14.12704">
        <ele>84.8</ele>
        <time>2021-07-05 13:44:46</time>
      </trkpt>
      <trkpt lat="28.22966" lon="-14.12707">
        <ele>85</ele>
        <time>2021-07-05 13:44:47</time>
      </trkpt>
      <trkpt lat="28.22967" lon="-14.12711">
        <ele>85</ele>
        <time>2021-07-05 13:44:48</time>
      </trkpt>
      <trkpt lat="28.22968" lon="-14.12714">
        <ele>85.2</ele>
        <time>2021-07-05 13:44:49</time>
      </trkpt>
      <trkpt lat="28.22969" lon="-14.12718">
        <ele>85.2</ele>
        <time>2021-07-05 13:44:50</time>
      </trkpt>
      <trkpt lat="28.22971" lon="-14.12721">
        <ele>85.2</ele>
        <time>2021-07-05 13:44:51</time>
      </trkpt>
      <trkpt lat="28.22972" lon="-14.12725">
        <ele>85.2</ele>
        <time>2021-07-05 13:44:52</time>
      </trkpt>
      <trkpt lat="28.22974" lon="-14.12729">
        <ele>85.4</ele>
        <time>2021-07-05 13:44:53</time>
      </trkpt>
      <trkpt lat="28.22975" lon="-14.12732">
        <ele>85.8</ele>
        <time>2021-07-05 13:44:54</time>
      </trkpt>
      <trkpt lat="28.22977" lon="-14.12736">
        <ele>85.8</ele>
        <time>2021-07-05 13:44:55</time>
      </trkpt>
      <trkpt lat="28.22978" lon="-14.12739">
        <ele>85.8</ele>
        <time>2021-07-05 13:44:56</time>
      </trkpt>
      <trkpt lat="28.2298" lon="-14.12743">
        <ele>86</ele>
        <time>2021-07-05 13:44:57</time>
      </trkpt>
      <trkpt lat="28.22982" lon="-14.12746">
        <ele>86</ele>
        <time>2021-07-05 13:44:58</time>
      </trkpt>
      <trkpt lat="28.22983" lon="-14.1275">
        <ele>86</ele>
        <time>2021-07-05 13:44:59</time>
      </trkpt>
      <trkpt lat="28.22985" lon="-14.12754">
        <ele>86.2</ele>
        <time>2021-07-05 13:45:00</time>
      </trkpt>
      <trkpt lat="28.22986" lon="-14.12758">
        <ele>86.2</ele>
        <time>2021-07-05 13:45:01</time>
      </trkpt>
      <trkpt lat="28.22988" lon="-14.12761">
        <ele>86.2</ele>
        <time>2021-07-05 13:45:02</time>
      </trkpt>
      <trkpt lat="28.22989" lon="-14.12765">
        <ele>86.2</ele>
        <time>2021-07-05 13:45:03</time>
      </trkpt>
      <trkpt lat="28.22991" lon="-14.12769">
        <ele>86.2</ele>
        <time>2021-07-05 13:45:04</time>
      </trkpt>
      <trkpt lat="28.22993" lon="-14.12772">
        <ele>86.2</ele>
        <time>2021-07-05 13:45:05</time>
      </trkpt>
      <trkpt lat="28.22994" lon="-14.12776">
        <ele>86.4</ele>
        <time>2021-07-05 13:45:06</time>
      </trkpt>
      <trkpt lat="28.22996" lon="-14.1278">
        <ele>86.4</ele>
        <time>2021-07-05 13:45:07</time>
      </trkpt>
      <trkpt lat="28.22998" lon="-14.12783">
        <ele>86.4</ele>
        <time>2021-07-05 13:45:08</time>
      </trkpt>
      <trkpt lat="28.22999" lon="-14.12787">
        <ele>86.8</ele>
        <time>2021-07-05 13:45:09</time>
      </trkpt>
      <trkpt lat="28.23001" lon="-14.12791">
        <ele>87</ele>
        <time>2021-07-05 13:45:10</time>
      </trkpt>
      <trkpt lat="28.23002" lon="-14.12795">
        <ele>87</ele>
        <time>2021-07-05 13:45:11</time>
      </trkpt>
      <trkpt lat="28.23004" lon="-14.12799">
        <ele>87</ele>
        <time>2021-07-05 13:45:12</time>
      </trkpt>
      <trkpt lat="28.23006" lon="-14.12803">
        <ele>87.2</ele>
        <time>2021-07-05 13:45:13</time>
      </trkpt>
      <trkpt lat="28.23008" lon="-14.12806">
        <ele>87.2</ele>
        <time>2021-07-05 13:45:14</time>
      </trkpt>
      <trkpt lat="28.23009" lon="-14.1281">
        <ele>87.2</ele>
        <time>2021-07-05 13:45:15</time>
      </trkpt>
      <trkpt lat="28.23011" lon="-14.12814">
        <ele>87.2</ele>
        <time>2021-07-05 13:45:16</time>
      </trkpt>
      <trkpt lat="28.23013" lon="-14.12818">
        <ele>87.2</ele>
        <time>2021-07-05 13:45:17</time>
      </trkpt>
      <trkpt lat="28.23015" lon="-14.12822">
        <ele>87.6</ele>
        <time>2021-07-05 13:45:18</time>
      </trkpt>
      <trkpt lat="28.23017" lon="-14.12826">
        <ele>87.6</ele>
        <time>2021-07-05 13:45:19</time>
      </trkpt>
      <trkpt lat="28.23018" lon="-14.1283">
        <ele>87.6</ele>
        <time>2021-07-05 13:45:20</time>
      </trkpt>
      <trkpt lat="28.2302" lon="-14.12834">
        <ele>87.6</ele>
        <time>2021-07-05 13:45:21</time>
      </trkpt>
      <trkpt lat="28.23022" lon="-14.12838">
        <ele>87.6</ele>
        <time>2021-07-05 13:45:22</time>
      </trkpt>
      <trkpt lat="28.23024" lon="-14.12842">
        <ele>87.8</ele>
        <time>2021-07-05 13:45:23</time>
      </trkpt>
      <trkpt lat="28.23026" lon="-14.12846">
        <ele>87.8</ele>
        <time>2021-07-05 13:45:24</time>
      </trkpt>
      <trkpt lat="28.23028" lon="-14.12851">
        <ele>87.8</ele>
        <time>2021-07-05 13:45:25</time>
      </trkpt>
      <trkpt lat="28.23029" lon="-14.12855">
        <ele>87.8</ele>
        <time>2021-07-05 13:45:26</time>
      </trkpt>
      <trkpt lat="28.23031" lon="-14.12859">
        <ele>87.4</ele>
        <time>2021-07-05 13:45:27</time>
      </trkpt>
      <trkpt lat="28.23033" lon="-14.12863">
        <ele>87.4</ele>
        <time>2021-07-05 13:45:28</time>
      </trkpt>
      <trkpt lat="28.23035" lon="-14.12868">
        <ele>87.4</ele>
        <time>2021-07-05 13:45:29</time>
      </trkpt>
      <trkpt lat="28.23037" lon="-14.12872">
        <ele>87.4</ele>
        <time>2021-07-05 13:45:30</time>
      </trkpt>
      <trkpt lat="28.23038" lon="-14.12876">
        <ele>87.2</ele>
        <time>2021-07-05 13:45:31</time>
      </trkpt>
      <trkpt lat="28.2304" lon="-14.1288">
        <ele>87.2</ele>
        <time>2021-07-05 13:45:32</time>
      </trkpt>
      <trkpt lat="28.23042" lon="-14.12884">
        <ele>87.2</ele>
        <time>2021-07-05 13:45:33</time>
      </trkpt>
      <trkpt lat="28.23044" lon="-14.12888">
        <ele>87.2</ele>
        <time>2021-07-05 13:45:34</time>
      </trkpt>
      <trkpt lat="28.23045" lon="-14.12893">
        <ele>87.2</ele>
        <time>2021-07-05 13:45:35</time>
      </trkpt>
      <trkpt lat="28.23047" lon="-14.12897">
        <ele>87.2</ele>
        <time>2021-07-05 13:45:36</time>
      </trkpt>
      <trkpt lat="28.23049" lon="-14.12901">
        <ele>87.2</ele>
        <time>2021-07-05 13:45:37</time>
      </trkpt>
      <trkpt lat="28.2305" lon="-14.12906">
        <ele>87.2</ele>
        <time>2021-07-05 13:45:38</time>
      </trkpt>
      <trkpt lat="28.23052" lon="-14.1291">
        <ele>87.2</ele>
        <time>2021-07-05 13:45:39</time>
      </trkpt>
      <trkpt lat="28.23054" lon="-14.12914">
        <ele>87.6</ele>
        <time>2021-07-05 13:45:40</time>
      </trkpt>
      <trkpt lat="28.23056" lon="-14.12919">
        <ele>87.6</ele>
        <time>2021-07-05 13:45:41</time>
      </trkpt>
      <trkpt lat="28.23057" lon="-14.12923">
        <ele>87.6</ele>
        <time>2021-07-05 13:45:42</time>
      </trkpt>
      <trkpt lat="28.23059" lon="-14.12928">
        <ele>87.6</ele>
        <time>2021-07-05 13:45:43</time>
      </trkpt>
      <trkpt lat="28.2306" lon="-14.12932">
        <ele>87.6</ele>
        <time>2021-07-05 13:45:44</time>
      </trkpt>
      <trkpt lat="28.23062" lon="-14.12936">
        <ele>87.6</ele>
        <time>2021-07-05 13:45:45</time>
      </trkpt>
      <trkpt lat="28.23063" lon="-14.1294">
        <ele>87.8</ele>
        <time>2021-07-05 13:45:46</time>
      </trkpt>
      <trkpt lat="28.23065" lon="-14.12945">
        <ele>87.8</ele>
        <time>2021-07-05 13:45:47</time>
      </trkpt>
      <trkpt lat="28.23066" lon="-14.12949">
        <ele>87.8</ele>
        <time>2021-07-05 13:45:48</time>
      </trkpt>
      <trkpt lat="28.23067" lon="-14.12953">
        <ele>87.8</ele>
        <time>2021-07-05 13:45:49</time>
      </trkpt>
      <trkpt lat="28.23068" lon="-14.12958">
        <ele>88</ele>
        <time>2021-07-05 13:45:50</time>
      </trkpt>
      <trkpt lat="28.23068" lon="-14.12962">
        <ele>88</ele>
        <time>2021-07-05 13:45:51</time>
      </trkpt>
      <trkpt lat="28.23069" lon="-14.12966">
        <ele>88</ele>
        <time>2021-07-05 13:45:52</time>
      </trkpt>
      <trkpt lat="28.2307" lon="-14.12971">
        <ele>88.2</ele>
        <time>2021-07-05 13:45:53</time>
      </trkpt>
      <trkpt lat="28.23071" lon="-14.12976">
        <ele>88.2</ele>
        <time>2021-07-05 13:45:54</time>
      </trkpt>
      <trkpt lat="28.23071" lon="-14.1298">
        <ele>88.2</ele>
        <time>2021-07-05 13:45:55</time>
      </trkpt>
      <trkpt lat="28.23072" lon="-14.12985">
        <ele>88.2</ele>
        <time>2021-07-05 13:45:56</time>
      </trkpt>
      <trkpt lat="28.23073" lon="-14.12989">
        <ele>88.2</ele>
        <time>2021-07-05 13:45:57</time>
      </trkpt>
      <trkpt lat="28.23074" lon="-14.12993">
        <ele>88.2</ele>
        <time>2021-07-05 13:45:58</time>
      </trkpt>
      <trkpt lat="28.23074" lon="-14.12997">
        <ele>88.2</ele>
        <time>2021-07-05 13:45:59</time>
      </trkpt>
      <trkpt lat="28.23075" lon="-14.13002">
        <ele>88.2</ele>
        <time>2021-07-05 13:46:00</time>
      </trkpt>
      <trkpt lat="28.23076" lon="-14.13006">
        <ele>88.4</ele>
        <time>2021-07-05 13:46:01</time>
      </trkpt>
      <trkpt lat="28.23076" lon="-14.1301">
        <ele>88.4</ele>
        <time>2021-07-05 13:46:02</time>
      </trkpt>
      <trkpt lat="28.23077" lon="-14.13015">
        <ele>88.8</ele>
        <time>2021-07-05 13:46:03</time>
      </trkpt>
      <trkpt lat="28.23077" lon="-14.13019">
        <ele>88.8</ele>
        <time>2021-07-05 13:46:04</time>
      </trkpt>
      <trkpt lat="28.23077" lon="-14.13024">
        <ele>88.8</ele>
        <time>2021-07-05 13:46:05</time>
      </trkpt>
      <trkpt lat="28.23077" lon="-14.13028">
        <ele>88.8</ele>
        <time>2021-07-05 13:46:06</time>
      </trkpt>
      <trkpt lat="28.23077" lon="-14.13033">
        <ele>88.8</ele>
        <time>2021-07-05 13:46:07</time>
      </trkpt>
      <trkpt lat="28.23076" lon="-14.13037">
        <ele>88.8</ele>
        <time>2021-07-05 13:46:08</time>
      </trkpt>
      <trkpt lat="28.23076" lon="-14.13042">
        <ele>89</ele>
        <time>2021-07-05 13:46:09</time>
      </trkpt>
      <trkpt lat="28.23076" lon="-14.13046">
        <ele>89</ele>
        <time>2021-07-05 13:46:10</time>
      </trkpt>
      <trkpt lat="28.23076" lon="-14.13051">
        <ele>89</ele>
        <time>2021-07-05 13:46:11</time>
      </trkpt>
      <trkpt lat="28.23076" lon="-14.13056">
        <ele>89</ele>
        <time>2021-07-05 13:46:12</time>
      </trkpt>
      <trkpt lat="28.23076" lon="-14.1306">
        <ele>89</ele>
        <time>2021-07-05 13:46:13</time>
      </trkpt>
      <trkpt lat="28.23075" lon="-14.13065">
        <ele>89</ele>
        <time>2021-07-05 13:46:14</time>
      </trkpt>
      <trkpt lat="28.23075" lon="-14.13069">
        <ele>89</ele>
        <time>2021-07-05 13:46:15</time>
      </trkpt>
      <trkpt lat="28.23075" lon="-14.13074">
        <ele>89</ele>
        <time>2021-07-05 13:46:16</time>
      </trkpt>
      <trkpt lat="28.23075" lon="-14.13079">
        <ele>89</ele>
        <time>2021-07-05 13:46:17</time>
      </trkpt>
      <trkpt lat="28.23075" lon="-14.13083">
        <ele>89</ele>
        <time>2021-07-05 13:46:18</time>
      </trkpt>
      <trkpt lat="28.23075" lon="-14.13088">
        <ele>89.2</ele>
        <time>2021-07-05 13:46:19</time>
      </trkpt>
      <trkpt lat="28.23074" lon="-14.13093">
        <ele>89.2</ele>
        <time>2021-07-05 13:46:20</time>
      </trkpt>
      <trkpt lat="28.23074" lon="-14.13097">
        <ele>89.2</ele>
        <time>2021-07-05 13:46:21</time>
      </trkpt>
      <trkpt lat="28.23074" lon="-14.13102">
        <ele>89.6</ele>
        <time>2021-07-05 13:46:22</time>
      </trkpt>
      <trkpt lat="28.23074" lon="-14.13107">
        <ele>89.6</ele>
        <time>2021-07-05 13:46:23</time>
      </trkpt>
      <trkpt lat="28.23074" lon="-14.13112">
        <ele>89.8</ele>
        <time>2021-07-05 13:46:24</time>
      </trkpt>
      <trkpt lat="28.23073" lon="-14.13117">
        <ele>89.8</ele>
        <time>2021-07-05 13:46:25</time>
      </trkpt>
      <trkpt lat="28.23073" lon="-14.13122">
        <ele>89.8</ele>
        <time>2021-07-05 13:46:26</time>
      </trkpt>
      <trkpt lat="28.23073" lon="-14.13127">
        <ele>90</ele>
        <time>2021-07-05 13:46:27</time>
      </trkpt>
      <trkpt lat="28.23073" lon="-14.13131">
        <ele>90</ele>
        <time>2021-07-05 13:46:28</time>
      </trkpt>
      <trkpt lat="28.23073" lon="-14.13136">
        <ele>90.2</ele>
        <time>2021-07-05 13:46:29</time>
      </trkpt>
      <trkpt lat="28.23073" lon="-14.13141">
        <ele>90.2</ele>
        <time>2021-07-05 13:46:30</time>
      </trkpt>
      <trkpt lat="28.23073" lon="-14.13146">
        <ele>90.2</ele>
        <time>2021-07-05 13:46:31</time>
      </trkpt>
      <trkpt lat="28.23072" lon="-14.13151">
        <ele>90.2</ele>
        <time>2021-07-05 13:46:32</time>
      </trkpt>
      <trkpt lat="28.23072" lon="-14.13155">
        <ele>90.2</ele>
        <time>2021-07-05 13:46:33</time>
      </trkpt>
      <trkpt lat="28.23072" lon="-14.1316">
        <ele>90.4</ele>
        <time>2021-07-05 13:46:34</time>
      </trkpt>
      <trkpt lat="28.23072" lon="-14.13165">
        <ele>90.4</ele>
        <time>2021-07-05 13:46:35</time>
      </trkpt>
      <trkpt lat="28.23072" lon="-14.1317">
        <ele>90.4</ele>
        <time>2021-07-05 13:46:36</time>
      </trkpt>
      <trkpt lat="28.23072" lon="-14.13175">
        <ele>90.4</ele>
        <time>2021-07-05 13:46:37</time>
      </trkpt>
      <trkpt lat="28.23072" lon="-14.1318">
        <ele>90.8</ele>
        <time>2021-07-05 13:46:38</time>
      </trkpt>
      <trkpt lat="28.23071" lon="-14.13184">
        <ele>90.8</ele>
        <time>2021-07-05 13:46:39</time>
      </trkpt>
      <trkpt lat="28.23071" lon="-14.13189">
        <ele>91</ele>
        <time>2021-07-05 13:46:40</time>
      </trkpt>
      <trkpt lat="28.23071" lon="-14.13194">
        <ele>91</ele>
        <time>2021-07-05 13:46:41</time>
      </trkpt>
      <trkpt lat="28.23071" lon="-14.13199">
        <ele>91</ele>
        <time>2021-07-05 13:46:42</time>
      </trkpt>
      <trkpt lat="28.23071" lon="-14.13204">
        <ele>91</ele>
        <time>2021-07-05 13:46:43</time>
      </trkpt>
      <trkpt lat="28.2307" lon="-14.13209">
        <ele>91</ele>
        <time>2021-07-05 13:46:44</time>
      </trkpt>
      <trkpt lat="28.23069" lon="-14.13214">
        <ele>91.2</ele>
        <time>2021-07-05 13:46:45</time>
      </trkpt>
      <trkpt lat="28.23069" lon="-14.13219">
        <ele>91.2</ele>
        <time>2021-07-05 13:46:46</time>
      </trkpt>
      <trkpt lat="28.23068" lon="-14.13223">
        <ele>91.2</ele>
        <time>2021-07-05 13:46:47</time>
      </trkpt>
      <trkpt lat="28.23068" lon="-14.13228">
        <ele>91.2</ele>
        <time>2021-07-05 13:46:48</time>
      </trkpt>
      <trkpt lat="28.23067" lon="-14.13233">
        <ele>91.4</ele>
        <time>2021-07-05 13:46:49</time>
      </trkpt>
      <trkpt lat="28.23067" lon="-14.13238">
        <ele>91.4</ele>
        <time>2021-07-05 13:46:50</time>
      </trkpt>
      <trkpt lat="28.23066" lon="-14.13243">
        <ele>91.8</ele>
        <time>2021-07-05 13:46:51</time>
      </trkpt>
      <trkpt lat="28.23065" lon="-14.13248">
        <ele>91.8</ele>
        <time>2021-07-05 13:46:52</time>
      </trkpt>
      <trkpt lat="28.23064" lon="-14.13253">
        <ele>91.8</ele>
        <time>2021-07-05 13:46:53</time>
      </trkpt>
      <trkpt lat="28.23064" lon="-14.13258">
        <ele>91.8</ele>
        <time>2021-07-05 13:46:54</time>
      </trkpt>
      <trkpt lat="28.23063" lon="-14.13263">
        <ele>91.8</ele>
        <time>2021-07-05 13:46:55</time>
      </trkpt>
      <trkpt lat="28.23063" lon="-14.13268">
        <ele>91.8</ele>
        <time>2021-07-05 13:46:56</time>
      </trkpt>
      <trkpt lat="28.23063" lon="-14.13273">
        <ele>91.8</ele>
        <time>2021-07-05 13:46:57</time>
      </trkpt>
      <trkpt lat="28.23062" lon="-14.13278">
        <ele>91.8</ele>
        <time>2021-07-05 13:46:58</time>
      </trkpt>
      <trkpt lat="28.23061" lon="-14.13283">
        <ele>91.8</ele>
        <time>2021-07-05 13:46:59</time>
      </trkpt>
      <trkpt lat="28.23061" lon="-14.13288">
        <ele>91.8</ele>
        <time>2021-07-05 13:47:00</time>
      </trkpt>
      <trkpt lat="28.2306" lon="-14.13293">
        <ele>91.8</ele>
        <time>2021-07-05 13:47:01</time>
      </trkpt>
      <trkpt lat="28.23059" lon="-14.13299">
        <ele>91.8</ele>
        <time>2021-07-05 13:47:02</time>
      </trkpt>
      <trkpt lat="28.23059" lon="-14.13303">
        <ele>91.8</ele>
        <time>2021-07-05 13:47:03</time>
      </trkpt>
      <trkpt lat="28.23059" lon="-14.13309">
        <ele>92</ele>
        <time>2021-07-05 13:47:04</time>
      </trkpt>
      <trkpt lat="28.23059" lon="-14.13313">
        <ele>92</ele>
        <time>2021-07-05 13:47:05</time>
      </trkpt>
      <trkpt lat="28.23057" lon="-14.13319">
        <ele>92</ele>
        <time>2021-07-05 13:47:06</time>
      </trkpt>
      <trkpt lat="28.23057" lon="-14.13324">
        <ele>92</ele>
        <time>2021-07-05 13:47:07</time>
      </trkpt>
      <trkpt lat="28.23056" lon="-14.13328">
        <ele>92</ele>
        <time>2021-07-05 13:47:08</time>
      </trkpt>
      <trkpt lat="28.23056" lon="-14.13333">
        <ele>92.2</ele>
        <time>2021-07-05 13:47:09</time>
      </trkpt>
      <trkpt lat="28.23055" lon="-14.13338">
        <ele>92.2</ele>
        <time>2021-07-05 13:47:10</time>
      </trkpt>
      <trkpt lat="28.23055" lon="-14.13343">
        <ele>92.2</ele>
        <time>2021-07-05 13:47:11</time>
      </trkpt>
      <trkpt lat="28.23054" lon="-14.13348">
        <ele>92.2</ele>
        <time>2021-07-05 13:47:12</time>
      </trkpt>
      <trkpt lat="28.23053" lon="-14.13353">
        <ele>92.6</ele>
        <time>2021-07-05 13:47:13</time>
      </trkpt>
      <trkpt lat="28.23052" lon="-14.13357">
        <ele>92.6</ele>
        <time>2021-07-05 13:47:14</time>
      </trkpt>
      <trkpt lat="28.23052" lon="-14.13362">
        <ele>92.6</ele>
        <time>2021-07-05 13:47:15</time>
      </trkpt>
      <trkpt lat="28.2305" lon="-14.13367">
        <ele>92.8</ele>
        <time>2021-07-05 13:47:16</time>
      </trkpt>
      <trkpt lat="28.23049" lon="-14.13372">
        <ele>92.8</ele>
        <time>2021-07-05 13:47:17</time>
      </trkpt>
      <trkpt lat="28.23048" lon="-14.13377">
        <ele>93.2</ele>
        <time>2021-07-05 13:47:18</time>
      </trkpt>
      <trkpt lat="28.23047" lon="-14.13382">
        <ele>93.2</ele>
        <time>2021-07-05 13:47:19</time>
      </trkpt>
      <trkpt lat="28.23045" lon="-14.13387">
        <ele>93.2</ele>
        <time>2021-07-05 13:47:20</time>
      </trkpt>
      <trkpt lat="28.23044" lon="-14.13392">
        <ele>93.4</ele>
        <time>2021-07-05 13:47:21</time>
      </trkpt>
      <trkpt lat="28.23042" lon="-14.13397">
        <ele>93.8</ele>
        <time>2021-07-05 13:47:22</time>
      </trkpt>
      <trkpt lat="28.2304" lon="-14.13402">
        <ele>93.8</ele>
        <time>2021-07-05 13:47:23</time>
      </trkpt>
      <trkpt lat="28.23038" lon="-14.13407">
        <ele>93.8</ele>
        <time>2021-07-05 13:47:24</time>
      </trkpt>
      <trkpt lat="28.23036" lon="-14.13412">
        <ele>94</ele>
        <time>2021-07-05 13:47:25</time>
      </trkpt>
      <trkpt lat="28.23035" lon="-14.13417">
        <ele>94</ele>
        <time>2021-07-05 13:47:26</time>
      </trkpt>
      <trkpt lat="28.23033" lon="-14.13421">
        <ele>94</ele>
        <time>2021-07-05 13:47:27</time>
      </trkpt>
      <trkpt lat="28.23031" lon="-14.13426">
        <ele>94</ele>
        <time>2021-07-05 13:47:28</time>
      </trkpt>
      <trkpt lat="28.23029" lon="-14.1343">
        <ele>94</ele>
        <time>2021-07-05 13:47:29</time>
      </trkpt>
      <trkpt lat="28.23028" lon="-14.13435">
        <ele>94</ele>
        <time>2021-07-05 13:47:30</time>
      </trkpt>
      <trkpt lat="28.23026" lon="-14.13439">
        <ele>94.4</ele>
        <time>2021-07-05 13:47:31</time>
      </trkpt>
      <trkpt lat="28.23024" lon="-14.13444">
        <ele>94.4</ele>
        <time>2021-07-05 13:47:32</time>
      </trkpt>
      <trkpt lat="28.23022" lon="-14.13449">
        <ele>94.4</ele>
        <time>2021-07-05 13:47:33</time>
      </trkpt>
      <trkpt lat="28.2302" lon="-14.13453">
        <ele>94.4</ele>
        <time>2021-07-05 13:47:34</time>
      </trkpt>
      <trkpt lat="28.23018" lon="-14.13458">
        <ele>94.6</ele>
        <time>2021-07-05 13:47:35</time>
      </trkpt>
      <trkpt lat="28.23016" lon="-14.13462">
        <ele>94.6</ele>
        <time>2021-07-05 13:47:36</time>
      </trkpt>
      <trkpt lat="28.23014" lon="-14.13467">
        <ele>94.6</ele>
        <time>2021-07-05 13:47:37</time>
      </trkpt>
      <trkpt lat="28.23013" lon="-14.13472">
        <ele>94.6</ele>
        <time>2021-07-05 13:47:38</time>
      </trkpt>
      <trkpt lat="28.23011" lon="-14.13477">
        <ele>94.6</ele>
        <time>2021-07-05 13:47:39</time>
      </trkpt>
      <trkpt lat="28.23009" lon="-14.13481">
        <ele>95</ele>
        <time>2021-07-05 13:47:40</time>
      </trkpt>
      <trkpt lat="28.23007" lon="-14.13485">
        <ele>95</ele>
        <time>2021-07-05 13:47:41</time>
      </trkpt>
      <trkpt lat="28.23006" lon="-14.1349">
        <ele>95.2</ele>
        <time>2021-07-05 13:47:42</time>
      </trkpt>
      <trkpt lat="28.23004" lon="-14.13494">
        <ele>95.2</ele>
        <time>2021-07-05 13:47:43</time>
      </trkpt>
      <trkpt lat="28.23002" lon="-14.13498">
        <ele>95.4</ele>
        <time>2021-07-05 13:47:44</time>
      </trkpt>
      <trkpt lat="28.23" lon="-14.13503">
        <ele>95.4</ele>
        <time>2021-07-05 13:47:45</time>
      </trkpt>
      <trkpt lat="28.22998" lon="-14.13507">
        <ele>95.4</ele>
        <time>2021-07-05 13:47:46</time>
      </trkpt>
      <trkpt lat="28.22996" lon="-14.13511">
        <ele>95.8</ele>
        <time>2021-07-05 13:47:47</time>
      </trkpt>
      <trkpt lat="28.22994" lon="-14.13516">
        <ele>95.8</ele>
        <time>2021-07-05 13:47:48</time>
      </trkpt>
      <trkpt lat="28.22992" lon="-14.1352">
        <ele>96</ele>
        <time>2021-07-05 13:47:49</time>
      </trkpt>
      <trkpt lat="28.2299" lon="-14.13525">
        <ele>96.2</ele>
        <time>2021-07-05 13:47:50</time>
      </trkpt>
      <trkpt lat="28.22988" lon="-14.13529">
        <ele>96.2</ele>
        <time>2021-07-05 13:47:51</time>
      </trkpt>
      <trkpt lat="28.22986" lon="-14.13533">
        <ele>96.2</ele>
        <time>2021-07-05 13:47:52</time>
      </trkpt>
      <trkpt lat="28.22983" lon="-14.13537">
        <ele>96.6</ele>
        <time>2021-07-05 13:47:53</time>
      </trkpt>
      <trkpt lat="28.22981" lon="-14.13541">
        <ele>96.6</ele>
        <time>2021-07-05 13:47:54</time>
      </trkpt>
      <trkpt lat="28.22978" lon="-14.13546">
        <ele>96.6</ele>
        <time>2021-07-05 13:47:55</time>
      </trkpt>
      <trkpt lat="28.22976" lon="-14.1355">
        <ele>97</ele>
        <time>2021-07-05 13:47:56</time>
      </trkpt>
      <trkpt lat="28.22973" lon="-14.13553">
        <ele>97</ele>
        <time>2021-07-05 13:47:57</time>
      </trkpt>
      <trkpt lat="28.2297" lon="-14.13557">
        <ele>97.2</ele>
        <time>2021-07-05 13:47:58</time>
      </trkpt>
      <trkpt lat="28.22967" lon="-14.13561">
        <ele>97.2</ele>
        <time>2021-07-05 13:47:59</time>
      </trkpt>
      <trkpt lat="28.22964" lon="-14.13566">
        <ele>97.2</ele>
        <time>2021-07-05 13:48:00</time>
      </trkpt>
      <trkpt lat="28.22962" lon="-14.1357">
        <ele>97.2</ele>
        <time>2021-07-05 13:48:01</time>
      </trkpt>
      <trkpt lat="28.22958" lon="-14.13574">
        <ele>97.2</ele>
        <time>2021-07-05 13:48:02</time>
      </trkpt>
      <trkpt lat="28.22955" lon="-14.13578">
        <ele>97.2</ele>
        <time>2021-07-05 13:48:03</time>
      </trkpt>
      <trkpt lat="28.22952" lon="-14.13582">
        <ele>97.2</ele>
        <time>2021-07-05 13:48:04</time>
      </trkpt>
      <trkpt lat="28.22949" lon="-14.13586">
        <ele>97.6</ele>
        <time>2021-07-05 13:48:05</time>
      </trkpt>
      <trkpt lat="28.22946" lon="-14.1359">
        <ele>97.6</ele>
        <time>2021-07-05 13:48:06</time>
      </trkpt>
      <trkpt lat="28.22943" lon="-14.13594">
        <ele>97.6</ele>
        <time>2021-07-05 13:48:07</time>
      </trkpt>
      <trkpt lat="28.2294" lon="-14.13598">
        <ele>97.6</ele>
        <time>2021-07-05 13:48:08</time>
      </trkpt>
      <trkpt lat="28.22937" lon="-14.13602">
        <ele>97.8</ele>
        <time>2021-07-05 13:48:09</time>
      </trkpt>
      <trkpt lat="28.22933" lon="-14.13606">
        <ele>98.2</ele>
        <time>2021-07-05 13:48:10</time>
      </trkpt>
      <trkpt lat="28.2293" lon="-14.1361">
        <ele>98.4</ele>
        <time>2021-07-05 13:48:11</time>
      </trkpt>
      <trkpt lat="28.22928" lon="-14.13614">
        <ele>98.4</ele>
        <time>2021-07-05 13:48:12</time>
      </trkpt>
      <trkpt lat="28.22925" lon="-14.13617">
        <ele>98.6</ele>
        <time>2021-07-05 13:48:13</time>
      </trkpt>
      <trkpt lat="28.22922" lon="-14.13621">
        <ele>99</ele>
        <time>2021-07-05 13:48:14</time>
      </trkpt>
      <trkpt lat="28.2292" lon="-14.13624">
        <ele>99</ele>
        <time>2021-07-05 13:48:15</time>
      </trkpt>
      <trkpt lat="28.22917" lon="-14.13628">
        <ele>99.4</ele>
        <time>2021-07-05 13:48:16</time>
      </trkpt>
      <trkpt lat="28.22914" lon="-14.13632">
        <ele>99.4</ele>
        <time>2021-07-05 13:48:17</time>
      </trkpt>
      <trkpt lat="28.22911" lon="-14.13636">
        <ele>99.4</ele>
        <time>2021-07-05 13:48:18</time>
      </trkpt>
      <trkpt lat="28.22909" lon="-14.13639">
        <ele>99.4</ele>
        <time>2021-07-05 13:48:19</time>
      </trkpt>
      <trkpt lat="28.22906" lon="-14.13643">
        <ele>99.6</ele>
        <time>2021-07-05 13:48:20</time>
      </trkpt>
      <trkpt lat="28.22903" lon="-14.13646">
        <ele>99.6</ele>
        <time>2021-07-05 13:48:21</time>
      </trkpt>
      <trkpt lat="28.229" lon="-14.1365">
        <ele>99.8</ele>
        <time>2021-07-05 13:48:22</time>
      </trkpt>
      <trkpt lat="28.22898" lon="-14.13654">
        <ele>99.8</ele>
        <time>2021-07-05 13:48:23</time>
      </trkpt>
      <trkpt lat="28.22895" lon="-14.13657">
        <ele>100.2</ele>
        <time>2021-07-05 13:48:24</time>
      </trkpt>
      <trkpt lat="28.22893" lon="-14.13661">
        <ele>100.2</ele>
        <time>2021-07-05 13:48:25</time>
      </trkpt>
      <trkpt lat="28.22889" lon="-14.13664">
        <ele>100.6</ele>
        <time>2021-07-05 13:48:26</time>
      </trkpt>
      <trkpt lat="28.22887" lon="-14.13668">
        <ele>100.8</ele>
        <time>2021-07-05 13:48:27</time>
      </trkpt>
      <trkpt lat="28.22884" lon="-14.13671">
        <ele>101</ele>
        <time>2021-07-05 13:48:28</time>
      </trkpt>
      <trkpt lat="28.22882" lon="-14.13674">
        <ele>101.2</ele>
        <time>2021-07-05 13:48:29</time>
      </trkpt>
      <trkpt lat="28.22879" lon="-14.13677">
        <ele>101.6</ele>
        <time>2021-07-05 13:48:30</time>
      </trkpt>
      <trkpt lat="28.22876" lon="-14.1368">
        <ele>101.8</ele>
        <time>2021-07-05 13:48:31</time>
      </trkpt>
      <trkpt lat="28.22874" lon="-14.13684">
        <ele>101.8</ele>
        <time>2021-07-05 13:48:32</time>
      </trkpt>
      <trkpt lat="28.22871" lon="-14.13687">
        <ele>102</ele>
        <time>2021-07-05 13:48:33</time>
      </trkpt>
      <trkpt lat="28.22868" lon="-14.13691">
        <ele>102</ele>
        <time>2021-07-05 13:48:34</time>
      </trkpt>
      <trkpt lat="28.22866" lon="-14.13694">
        <ele>102.2</ele>
        <time>2021-07-05 13:48:35</time>
      </trkpt>
      <trkpt lat="28.22864" lon="-14.13698">
        <ele>102.2</ele>
        <time>2021-07-05 13:48:36</time>
      </trkpt>
      <trkpt lat="28.22862" lon="-14.13701">
        <ele>102.2</ele>
        <time>2021-07-05 13:48:37</time>
      </trkpt>
      <trkpt lat="28.22861" lon="-14.13705">
        <ele>102.6</ele>
        <time>2021-07-05 13:48:38</time>
      </trkpt>
      <trkpt lat="28.2286" lon="-14.13709">
        <ele>102.8</ele>
        <time>2021-07-05 13:48:39</time>
      </trkpt>
      <trkpt lat="28.2286" lon="-14.13713">
        <ele>103.2</ele>
        <time>2021-07-05 13:48:40</time>
      </trkpt>
      <trkpt lat="28.2286" lon="-14.13718">
        <ele>103.4</ele>
        <time>2021-07-05 13:48:41</time>
      </trkpt>
      <trkpt lat="28.2286" lon="-14.13722">
        <ele>103.6</ele>
        <time>2021-07-05 13:48:42</time>
      </trkpt>
      <trkpt lat="28.2286" lon="-14.13726">
        <ele>104</ele>
        <time>2021-07-05 13:48:43</time>
      </trkpt>
      <trkpt lat="28.22861" lon="-14.1373">
        <ele>104</ele>
        <time>2021-07-05 13:48:44</time>
      </trkpt>
      <trkpt lat="28.22861" lon="-14.13735">
        <ele>104</ele>
        <time>2021-07-05 13:48:45</time>
      </trkpt>
      <trkpt lat="28.22862" lon="-14.13739">
        <ele>104.2</ele>
        <time>2021-07-05 13:48:46</time>
      </trkpt>
      <trkpt lat="28.22862" lon="-14.13743">
        <ele>104.2</ele>
        <time>2021-07-05 13:48:47</time>
      </trkpt>
      <trkpt lat="28.22863" lon="-14.13747">
        <ele>104.6</ele>
        <time>2021-07-05 13:48:48</time>
      </trkpt>
      <trkpt lat="28.22864" lon="-14.13751">
        <ele>104.6</ele>
        <time>2021-07-05 13:48:49</time>
      </trkpt>
      <trkpt lat="28.22864" lon="-14.13754">
        <ele>104.8</ele>
        <time>2021-07-05 13:48:50</time>
      </trkpt>
      <trkpt lat="28.22865" lon="-14.13758">
        <ele>104.8</ele>
        <time>2021-07-05 13:48:51</time>
      </trkpt>
      <trkpt lat="28.22866" lon="-14.13761">
        <ele>105.2</ele>
        <time>2021-07-05 13:48:52</time>
      </trkpt>
      <trkpt lat="28.22867" lon="-14.13765">
        <ele>105.4</ele>
        <time>2021-07-05 13:48:53</time>
      </trkpt>
      <trkpt lat="28.22868" lon="-14.13768">
        <ele>105.4</ele>
        <time>2021-07-05 13:48:54</time>
      </trkpt>
      <trkpt lat="28.22868" lon="-14.13771">
        <ele>105.8</ele>
        <time>2021-07-05 13:48:55</time>
      </trkpt>
      <trkpt lat="28.22869" lon="-14.13774">
        <ele>106</ele>
        <time>2021-07-05 13:48:56</time>
      </trkpt>
      <trkpt lat="28.2287" lon="-14.13777">
        <ele>106.4</ele>
        <time>2021-07-05 13:48:57</time>
      </trkpt>
      <trkpt lat="28.2287" lon="-14.1378">
        <ele>106.4</ele>
        <time>2021-07-05 13:48:58</time>
      </trkpt>
      <trkpt lat="28.22871" lon="-14.13783">
        <ele>106.6</ele>
        <time>2021-07-05 13:48:59</time>
      </trkpt>
      <trkpt lat="28.22871" lon="-14.13786">
        <ele>106.6</ele>
        <time>2021-07-05 13:49:00</time>
      </trkpt>
      <trkpt lat="28.22872" lon="-14.13789">
        <ele>106.8</ele>
        <time>2021-07-05 13:49:01</time>
      </trkpt>
      <trkpt lat="28.22873" lon="-14.13792">
        <ele>106.8</ele>
        <time>2021-07-05 13:49:02</time>
      </trkpt>
      <trkpt lat="28.22873" lon="-14.13795">
        <ele>107</ele>
        <time>2021-07-05 13:49:03</time>
      </trkpt>
      <trkpt lat="28.22874" lon="-14.13798">
        <ele>107</ele>
        <time>2021-07-05 13:49:04</time>
      </trkpt>
      <trkpt lat="28.22874" lon="-14.13801">
        <ele>107.2</ele>
        <time>2021-07-05 13:49:05</time>
      </trkpt>
      <trkpt lat="28.22875" lon="-14.13804">
        <ele>107.2</ele>
        <time>2021-07-05 13:49:06</time>
      </trkpt>
      <trkpt lat="28.22875" lon="-14.13807">
        <ele>107.6</ele>
        <time>2021-07-05 13:49:07</time>
      </trkpt>
      <trkpt lat="28.22876" lon="-14.1381">
        <ele>107.6</ele>
        <time>2021-07-05 13:49:08</time>
      </trkpt>
      <trkpt lat="28.22876" lon="-14.13813">
        <ele>107.8</ele>
        <time>2021-07-05 13:49:09</time>
      </trkpt>
      <trkpt lat="28.22877" lon="-14.13816">
        <ele>107.8</ele>
        <time>2021-07-05 13:49:10</time>
      </trkpt>
      <trkpt lat="28.22877" lon="-14.13819">
        <ele>108.2</ele>
        <time>2021-07-05 13:49:11</time>
      </trkpt>
      <trkpt lat="28.22878" lon="-14.13822">
        <ele>108.4</ele>
        <time>2021-07-05 13:49:12</time>
      </trkpt>
      <trkpt lat="28.22879" lon="-14.13825">
        <ele>108.4</ele>
        <time>2021-07-05 13:49:13</time>
      </trkpt>
      <trkpt lat="28.22879" lon="-14.13828">
        <ele>108.8</ele>
        <time>2021-07-05 13:49:14</time>
      </trkpt>
      <trkpt lat="28.2288" lon="-14.13831">
        <ele>108.8</ele>
        <time>2021-07-05 13:49:15</time>
      </trkpt>
      <trkpt lat="28.22881" lon="-14.13834">
        <ele>109.2</ele>
        <time>2021-07-05 13:49:16</time>
      </trkpt>
      <trkpt lat="28.22881" lon="-14.13837">
        <ele>109.4</ele>
        <time>2021-07-05 13:49:17</time>
      </trkpt>
      <trkpt lat="28.22882" lon="-14.1384">
        <ele>109.4</ele>
        <time>2021-07-05 13:49:18</time>
      </trkpt>
      <trkpt lat="28.22882" lon="-14.13843">
        <ele>110</ele>
        <time>2021-07-05 13:49:19</time>
      </trkpt>
      <trkpt lat="28.22883" lon="-14.13846">
        <ele>110</ele>
        <time>2021-07-05 13:49:20</time>
      </trkpt>
      <trkpt lat="28.22884" lon="-14.1385">
        <ele>110</ele>
        <time>2021-07-05 13:49:21</time>
      </trkpt>
      <trkpt lat="28.22884" lon="-14.13853">
        <ele>110.4</ele>
        <time>2021-07-05 13:49:22</time>
      </trkpt>
      <trkpt lat="28.22885" lon="-14.13856">
        <ele>110.6</ele>
        <time>2021-07-05 13:49:23</time>
      </trkpt>
      <trkpt lat="28.22885" lon="-14.13859">
        <ele>110.6</ele>
        <time>2021-07-05 13:49:24</time>
      </trkpt>
      <trkpt lat="28.22886" lon="-14.13862">
        <ele>110.6</ele>
        <time>2021-07-05 13:49:25</time>
      </trkpt>
      <trkpt lat="28.22886" lon="-14.13865">
        <ele>111</ele>
        <time>2021-07-05 13:49:26</time>
      </trkpt>
      <trkpt lat="28.22887" lon="-14.13868">
        <ele>111</ele>
        <time>2021-07-05 13:49:27</time>
      </trkpt>
      <trkpt lat="28.22887" lon="-14.13872">
        <ele>111.4</ele>
        <time>2021-07-05 13:49:28</time>
      </trkpt>
      <trkpt lat="28.22888" lon="-14.13875">
        <ele>111.8</ele>
        <time>2021-07-05 13:49:29</time>
      </trkpt>
      <trkpt lat="28.22888" lon="-14.13878">
        <ele>111.8</ele>
        <time>2021-07-05 13:49:30</time>
      </trkpt>
      <trkpt lat="28.22889" lon="-14.13881">
        <ele>111.8</ele>
        <time>2021-07-05 13:49:31</time>
      </trkpt>
      <trkpt lat="28.22889" lon="-14.13884">
        <ele>112.2</ele>
        <time>2021-07-05 13:49:32</time>
      </trkpt>
      <trkpt lat="28.2289" lon="-14.13888">
        <ele>112.6</ele>
        <time>2021-07-05 13:49:33</time>
      </trkpt>
      <trkpt lat="28.2289" lon="-14.13891">
        <ele>112.6</ele>
        <time>2021-07-05 13:49:34</time>
      </trkpt>
      <trkpt lat="28.22891" lon="-14.13894">
        <ele>112.8</ele>
        <time>2021-07-05 13:49:35</time>
      </trkpt>
      <trkpt lat="28.22891" lon="-14.13897">
        <ele>112.8</ele>
        <time>2021-07-05 13:49:36</time>
      </trkpt>
      <trkpt lat="28.22892" lon="-14.13901">
        <ele>113.2</ele>
        <time>2021-07-05 13:49:37</time>
      </trkpt>
      <trkpt lat="28.22892" lon="-14.13904">
        <ele>113.2</ele>
        <time>2021-07-05 13:49:38</time>
      </trkpt>
      <trkpt lat="28.22893" lon="-14.13907">
        <ele>113.2</ele>
        <time>2021-07-05 13:49:39</time>
      </trkpt>
      <trkpt lat="28.22894" lon="-14.1391">
        <ele>113.4</ele>
        <time>2021-07-05 13:49:40</time>
      </trkpt>
      <trkpt lat="28.22894" lon="-14.13912">
        <ele>113.4</ele>
        <time>2021-07-05 13:49:41</time>
      </trkpt>
      <trkpt lat="28.22894" lon="-14.13913">
        <ele>113.8</ele>
        <time>2021-07-05 13:49:42</time>
      </trkpt>
      <trkpt lat="28.22894" lon="-14.13913">
        <ele>113.8</ele>
        <time>2021-07-05 13:49:43</time>
      </trkpt>
      <trkpt lat="28.22894" lon="-14.13913">
        <ele>114</ele>
        <time>2021-07-05 13:49:44</time>
      </trkpt>
      <trkpt lat="28.22895" lon="-14.13914">
        <ele>113.8</ele>
        <time>2021-07-05 13:49:45</time>
      </trkpt>
      <trkpt lat="28.22895" lon="-14.13916">
        <ele>113.4</ele>
        <time>2021-07-05 13:49:46</time>
      </trkpt>
      <trkpt lat="28.22896" lon="-14.13918">
        <ele>113.4</ele>
        <time>2021-07-05 13:50:06</time>
      </trkpt>
      <trkpt lat="28.22895" lon="-14.13921">
        <ele>113.4</ele>
        <time>2021-07-05 13:50:07</time>
      </trkpt>
      <trkpt lat="28.22895" lon="-14.13925">
        <ele>113.4</ele>
        <time>2021-07-05 13:50:08</time>
      </trkpt>
      <trkpt lat="28.22896" lon="-14.13928">
        <ele>113.4</ele>
        <time>2021-07-05 13:50:09</time>
      </trkpt>
      <trkpt lat="28.22896" lon="-14.13932">
        <ele>113.4</ele>
        <time>2021-07-05 13:50:10</time>
      </trkpt>
      <trkpt lat="28.22897" lon="-14.13936">
        <ele>113.8</ele>
        <time>2021-07-05 13:50:11</time>
      </trkpt>
      <trkpt lat="28.22897" lon="-14.13939">
        <ele>113.8</ele>
        <time>2021-07-05 13:50:12</time>
      </trkpt>
      <trkpt lat="28.22898" lon="-14.13943">
        <ele>114</ele>
        <time>2021-07-05 13:50:13</time>
      </trkpt>
      <trkpt lat="28.22898" lon="-14.13946">
        <ele>114</ele>
        <time>2021-07-05 13:50:14</time>
      </trkpt>
      <trkpt lat="28.22899" lon="-14.1395">
        <ele>114</ele>
        <time>2021-07-05 13:50:15</time>
      </trkpt>
      <trkpt lat="28.22899" lon="-14.13953">
        <ele>114</ele>
        <time>2021-07-05 13:50:16</time>
      </trkpt>
      <trkpt lat="28.229" lon="-14.13956">
        <ele>114.2</ele>
        <time>2021-07-05 13:50:17</time>
      </trkpt>
      <trkpt lat="28.229" lon="-14.1396">
        <ele>114.2</ele>
        <time>2021-07-05 13:50:18</time>
      </trkpt>
      <trkpt lat="28.229" lon="-14.13964">
        <ele>114.6</ele>
        <time>2021-07-05 13:50:19</time>
      </trkpt>
      <trkpt lat="28.22901" lon="-14.13968">
        <ele>115</ele>
        <time>2021-07-05 13:50:20</time>
      </trkpt>
      <trkpt lat="28.22902" lon="-14.13972">
        <ele>115</ele>
        <time>2021-07-05 13:50:21</time>
      </trkpt>
      <trkpt lat="28.22904" lon="-14.13976">
        <ele>115.2</ele>
        <time>2021-07-05 13:50:22</time>
      </trkpt>
      <trkpt lat="28.22904" lon="-14.13979">
        <ele>115.2</ele>
        <time>2021-07-05 13:50:23</time>
      </trkpt>
      <trkpt lat="28.22905" lon="-14.13983">
        <ele>115.2</ele>
        <time>2021-07-05 13:50:24</time>
      </trkpt>
      <trkpt lat="28.22906" lon="-14.13988">
        <ele>115.2</ele>
        <time>2021-07-05 13:50:25</time>
      </trkpt>
      <trkpt lat="28.22906" lon="-14.13992">
        <ele>115.4</ele>
        <time>2021-07-05 13:50:26</time>
      </trkpt>
      <trkpt lat="28.22907" lon="-14.13996">
        <ele>115.4</ele>
        <time>2021-07-05 13:50:27</time>
      </trkpt>
      <trkpt lat="28.22908" lon="-14.14">
        <ele>115.6</ele>
        <time>2021-07-05 13:50:28</time>
      </trkpt>
      <trkpt lat="28.22908" lon="-14.14005">
        <ele>115.6</ele>
        <time>2021-07-05 13:50:29</time>
      </trkpt>
      <trkpt lat="28.22909" lon="-14.14009">
        <ele>116</ele>
        <time>2021-07-05 13:50:30</time>
      </trkpt>
      <trkpt lat="28.2291" lon="-14.14013">
        <ele>116</ele>
        <time>2021-07-05 13:50:31</time>
      </trkpt>
      <trkpt lat="28.2291" lon="-14.14017">
        <ele>116.4</ele>
        <time>2021-07-05 13:50:32</time>
      </trkpt>
      <trkpt lat="28.22911" lon="-14.14021">
        <ele>116.6</ele>
        <time>2021-07-05 13:50:33</time>
      </trkpt>
      <trkpt lat="28.22912" lon="-14.14026">
        <ele>116.6</ele>
        <time>2021-07-05 13:50:34</time>
      </trkpt>
      <trkpt lat="28.22913" lon="-14.1403">
        <ele>116.6</ele>
        <time>2021-07-05 13:50:35</time>
      </trkpt>
      <trkpt lat="28.22913" lon="-14.14034">
        <ele>116.8</ele>
        <time>2021-07-05 13:50:36</time>
      </trkpt>
      <trkpt lat="28.22914" lon="-14.14038">
        <ele>116.8</ele>
        <time>2021-07-05 13:50:37</time>
      </trkpt>
      <trkpt lat="28.22915" lon="-14.14043">
        <ele>116.8</ele>
        <time>2021-07-05 13:50:38</time>
      </trkpt>
      <trkpt lat="28.22916" lon="-14.14047">
        <ele>116.8</ele>
        <time>2021-07-05 13:50:39</time>
      </trkpt>
      <trkpt lat="28.22917" lon="-14.14051">
        <ele>116.8</ele>
        <time>2021-07-05 13:50:40</time>
      </trkpt>
      <trkpt lat="28.22918" lon="-14.14056">
        <ele>117.2</ele>
        <time>2021-07-05 13:50:41</time>
      </trkpt>
      <trkpt lat="28.22919" lon="-14.1406">
        <ele>117.2</ele>
        <time>2021-07-05 13:50:42</time>
      </trkpt>
      <trkpt lat="28.2292" lon="-14.14065">
        <ele>117.2</ele>
        <time>2021-07-05 13:50:43</time>
      </trkpt>
      <trkpt lat="28.2292" lon="-14.1407">
        <ele>117.2</ele>
        <time>2021-07-05 13:50:44</time>
      </trkpt>
      <trkpt lat="28.22921" lon="-14.14074">
        <ele>117.2</ele>
        <time>2021-07-05 13:50:45</time>
      </trkpt>
      <trkpt lat="28.22922" lon="-14.14079">
        <ele>117.2</ele>
        <time>2021-07-05 13:50:46</time>
      </trkpt>
      <trkpt lat="28.22923" lon="-14.14083">
        <ele>117</ele>
        <time>2021-07-05 13:50:47</time>
      </trkpt>
      <trkpt lat="28.22924" lon="-14.14088">
        <ele>117</ele>
        <time>2021-07-05 13:50:48</time>
      </trkpt>
      <trkpt lat="28.22925" lon="-14.14092">
        <ele>117.2</ele>
        <time>2021-07-05 13:50:49</time>
      </trkpt>
      <trkpt lat="28.22926" lon="-14.14097">
        <ele>117.2</ele>
        <time>2021-07-05 13:50:50</time>
      </trkpt>
      <trkpt lat="28.22927" lon="-14.14101">
        <ele>117.4</ele>
        <time>2021-07-05 13:50:51</time>
      </trkpt>
      <trkpt lat="28.22927" lon="-14.14106">
        <ele>117.6</ele>
        <time>2021-07-05 13:50:52</time>
      </trkpt>
      <trkpt lat="28.22928" lon="-14.1411">
        <ele>117.6</ele>
        <time>2021-07-05 13:50:53</time>
      </trkpt>
      <trkpt lat="28.22929" lon="-14.14115">
        <ele>117.8</ele>
        <time>2021-07-05 13:50:54</time>
      </trkpt>
      <trkpt lat="28.2293" lon="-14.14119">
        <ele>118</ele>
        <time>2021-07-05 13:50:55</time>
      </trkpt>
      <trkpt lat="28.2293" lon="-14.14124">
        <ele>118</ele>
        <time>2021-07-05 13:50:56</time>
      </trkpt>
      <trkpt lat="28.22931" lon="-14.14129">
        <ele>117.8</ele>
        <time>2021-07-05 13:50:57</time>
      </trkpt>
      <trkpt lat="28.22932" lon="-14.14135">
        <ele>117.8</ele>
        <time>2021-07-05 13:50:58</time>
      </trkpt>
      <trkpt lat="28.22933" lon="-14.1414">
        <ele>117.8</ele>
        <time>2021-07-05 13:50:59</time>
      </trkpt>
      <trkpt lat="28.22934" lon="-14.14144">
        <ele>117.4</ele>
        <time>2021-07-05 13:51:00</time>
      </trkpt>
      <trkpt lat="28.22936" lon="-14.1415">
        <ele>117.4</ele>
        <time>2021-07-05 13:51:01</time>
      </trkpt>
      <trkpt lat="28.22937" lon="-14.14155">
        <ele>117.2</ele>
        <time>2021-07-05 13:51:02</time>
      </trkpt>
      <trkpt lat="28.22937" lon="-14.14161">
        <ele>117.2</ele>
        <time>2021-07-05 13:51:03</time>
      </trkpt>
      <trkpt lat="28.22939" lon="-14.14166">
        <ele>117.2</ele>
        <time>2021-07-05 13:51:04</time>
      </trkpt>
      <trkpt lat="28.2294" lon="-14.14171">
        <ele>117.2</ele>
        <time>2021-07-05 13:51:05</time>
      </trkpt>
      <trkpt lat="28.22941" lon="-14.14176">
        <ele>117</ele>
        <time>2021-07-05 13:51:06</time>
      </trkpt>
      <trkpt lat="28.22942" lon="-14.14182">
        <ele>117</ele>
        <time>2021-07-05 13:51:07</time>
      </trkpt>
      <trkpt lat="28.22943" lon="-14.14187">
        <ele>117</ele>
        <time>2021-07-05 13:51:08</time>
      </trkpt>
      <trkpt lat="28.22944" lon="-14.14192">
        <ele>117</ele>
        <time>2021-07-05 13:51:09</time>
      </trkpt>
      <trkpt lat="28.22945" lon="-14.14197">
        <ele>117</ele>
        <time>2021-07-05 13:51:10</time>
      </trkpt>
      <trkpt lat="28.22946" lon="-14.14203">
        <ele>117</ele>
        <time>2021-07-05 13:51:11</time>
      </trkpt>
      <trkpt lat="28.22947" lon="-14.14208">
        <ele>117</ele>
        <time>2021-07-05 13:51:12</time>
      </trkpt>
      <trkpt lat="28.22948" lon="-14.14214">
        <ele>117</ele>
        <time>2021-07-05 13:51:13</time>
      </trkpt>
      <trkpt lat="28.22949" lon="-14.14219">
        <ele>117</ele>
        <time>2021-07-05 13:51:14</time>
      </trkpt>
      <trkpt lat="28.2295" lon="-14.14224">
        <ele>117.2</ele>
        <time>2021-07-05 13:51:15</time>
      </trkpt>
      <trkpt lat="28.22951" lon="-14.14229">
        <ele>117.8</ele>
        <time>2021-07-05 13:51:16</time>
      </trkpt>
      <trkpt lat="28.22952" lon="-14.14234">
        <ele>117.8</ele>
        <time>2021-07-05 13:51:17</time>
      </trkpt>
      <trkpt lat="28.22953" lon="-14.14239">
        <ele>117.8</ele>
        <time>2021-07-05 13:51:18</time>
      </trkpt>
      <trkpt lat="28.22954" lon="-14.14244">
        <ele>118</ele>
        <time>2021-07-05 13:51:19</time>
      </trkpt>
      <trkpt lat="28.22955" lon="-14.14249">
        <ele>118</ele>
        <time>2021-07-05 13:51:20</time>
      </trkpt>
      <trkpt lat="28.22956" lon="-14.14254">
        <ele>118</ele>
        <time>2021-07-05 13:51:21</time>
      </trkpt>
      <trkpt lat="28.22957" lon="-14.14258">
        <ele>118.2</ele>
        <time>2021-07-05 13:51:22</time>
      </trkpt>
      <trkpt lat="28.22958" lon="-14.14264">
        <ele>118.2</ele>
        <time>2021-07-05 13:51:23</time>
      </trkpt>
      <trkpt lat="28.22959" lon="-14.14269">
        <ele>118.2</ele>
        <time>2021-07-05 13:51:24</time>
      </trkpt>
      <trkpt lat="28.2296" lon="-14.14274">
        <ele>118.2</ele>
        <time>2021-07-05 13:51:25</time>
      </trkpt>
      <trkpt lat="28.22961" lon="-14.14279">
        <ele>117.8</ele>
        <time>2021-07-05 13:51:26</time>
      </trkpt>
      <trkpt lat="28.22962" lon="-14.14284">
        <ele>117.8</ele>
        <time>2021-07-05 13:51:27</time>
      </trkpt>
      <trkpt lat="28.22963" lon="-14.14288">
        <ele>117.8</ele>
        <time>2021-07-05 13:51:28</time>
      </trkpt>
      <trkpt lat="28.22964" lon="-14.14294">
        <ele>117.8</ele>
        <time>2021-07-05 13:51:29</time>
      </trkpt>
      <trkpt lat="28.22964" lon="-14.14299">
        <ele>117.8</ele>
        <time>2021-07-05 13:51:30</time>
      </trkpt>
      <trkpt lat="28.22965" lon="-14.14303">
        <ele>117.8</ele>
        <time>2021-07-05 13:51:31</time>
      </trkpt>
      <trkpt lat="28.22966" lon="-14.14308">
        <ele>117.8</ele>
        <time>2021-07-05 13:51:32</time>
      </trkpt>
      <trkpt lat="28.22966" lon="-14.14313">
        <ele>117.8</ele>
        <time>2021-07-05 13:51:33</time>
      </trkpt>
      <trkpt lat="28.22967" lon="-14.14317">
        <ele>117.8</ele>
        <time>2021-07-05 13:51:34</time>
      </trkpt>
      <trkpt lat="28.22968" lon="-14.14322">
        <ele>117.6</ele>
        <time>2021-07-05 13:51:35</time>
      </trkpt>
      <trkpt lat="28.22968" lon="-14.14327">
        <ele>117.6</ele>
        <time>2021-07-05 13:51:36</time>
      </trkpt>
      <trkpt lat="28.22969" lon="-14.14332">
        <ele>117.6</ele>
        <time>2021-07-05 13:51:37</time>
      </trkpt>
      <trkpt lat="28.2297" lon="-14.14337">
        <ele>117.6</ele>
        <time>2021-07-05 13:51:38</time>
      </trkpt>
      <trkpt lat="28.22971" lon="-14.14341">
        <ele>117.6</ele>
        <time>2021-07-05 13:51:39</time>
      </trkpt>
      <trkpt lat="28.22971" lon="-14.14346">
        <ele>117.6</ele>
        <time>2021-07-05 13:51:40</time>
      </trkpt>
      <trkpt lat="28.22972" lon="-14.1435">
        <ele>117.6</ele>
        <time>2021-07-05 13:51:41</time>
      </trkpt>
      <trkpt lat="28.22973" lon="-14.14355">
        <ele>117.6</ele>
        <time>2021-07-05 13:51:42</time>
      </trkpt>
      <trkpt lat="28.22974" lon="-14.1436">
        <ele>117.6</ele>
        <time>2021-07-05 13:51:43</time>
      </trkpt>
      <trkpt lat="28.22974" lon="-14.14365">
        <ele>117.6</ele>
        <time>2021-07-05 13:51:44</time>
      </trkpt>
      <trkpt lat="28.22975" lon="-14.14369">
        <ele>117.6</ele>
        <time>2021-07-05 13:51:45</time>
      </trkpt>
      <trkpt lat="28.22976" lon="-14.14374">
        <ele>117.6</ele>
        <time>2021-07-05 13:51:46</time>
      </trkpt>
      <trkpt lat="28.22977" lon="-14.14379">
        <ele>117.6</ele>
        <time>2021-07-05 13:51:47</time>
      </trkpt>
      <trkpt lat="28.22977" lon="-14.14384">
        <ele>117.6</ele>
        <time>2021-07-05 13:51:48</time>
      </trkpt>
      <trkpt lat="28.22977" lon="-14.1439">
        <ele>117.8</ele>
        <time>2021-07-05 13:51:49</time>
      </trkpt>
      <trkpt lat="28.22978" lon="-14.14394">
        <ele>117.8</ele>
        <time>2021-07-05 13:51:50</time>
      </trkpt>
      <trkpt lat="28.22979" lon="-14.14399">
        <ele>118.2</ele>
        <time>2021-07-05 13:51:51</time>
      </trkpt>
      <trkpt lat="28.22979" lon="-14.14404">
        <ele>118.4</ele>
        <time>2021-07-05 13:51:52</time>
      </trkpt>
      <trkpt lat="28.2298" lon="-14.14409">
        <ele>118.6</ele>
        <time>2021-07-05 13:51:53</time>
      </trkpt>
      <trkpt lat="28.22981" lon="-14.14414">
        <ele>118.6</ele>
        <time>2021-07-05 13:51:54</time>
      </trkpt>
      <trkpt lat="28.22982" lon="-14.14419">
        <ele>118.6</ele>
        <time>2021-07-05 13:51:55</time>
      </trkpt>
      <trkpt lat="28.22982" lon="-14.14424">
        <ele>118.8</ele>
        <time>2021-07-05 13:51:56</time>
      </trkpt>
      <trkpt lat="28.22983" lon="-14.14429">
        <ele>118.8</ele>
        <time>2021-07-05 13:51:57</time>
      </trkpt>
      <trkpt lat="28.22984" lon="-14.14434">
        <ele>118.8</ele>
        <time>2021-07-05 13:51:58</time>
      </trkpt>
      <trkpt lat="28.22984" lon="-14.1444">
        <ele>118.4</ele>
        <time>2021-07-05 13:51:59</time>
      </trkpt>
      <trkpt lat="28.22985" lon="-14.14444">
        <ele>118.4</ele>
        <time>2021-07-05 13:52:00</time>
      </trkpt>
      <trkpt lat="28.22986" lon="-14.14449">
        <ele>118.2</ele>
        <time>2021-07-05 13:52:01</time>
      </trkpt>
      <trkpt lat="28.22987" lon="-14.14454">
        <ele>118.2</ele>
        <time>2021-07-05 13:52:02</time>
      </trkpt>
      <trkpt lat="28.22988" lon="-14.14459">
        <ele>118</ele>
        <time>2021-07-05 13:52:03</time>
      </trkpt>
      <trkpt lat="28.22989" lon="-14.14464">
        <ele>118</ele>
        <time>2021-07-05 13:52:04</time>
      </trkpt>
      <trkpt lat="28.2299" lon="-14.14469">
        <ele>118</ele>
        <time>2021-07-05 13:52:05</time>
      </trkpt>
      <trkpt lat="28.22991" lon="-14.14473">
        <ele>118</ele>
        <time>2021-07-05 13:52:06</time>
      </trkpt>
      <trkpt lat="28.22992" lon="-14.14479">
        <ele>117.6</ele>
        <time>2021-07-05 13:52:07</time>
      </trkpt>
      <trkpt lat="28.22993" lon="-14.14484">
        <ele>117.6</ele>
        <time>2021-07-05 13:52:08</time>
      </trkpt>
      <trkpt lat="28.22993" lon="-14.14489">
        <ele>117.6</ele>
        <time>2021-07-05 13:52:09</time>
      </trkpt>
      <trkpt lat="28.22994" lon="-14.14494">
        <ele>117.6</ele>
        <time>2021-07-05 13:52:10</time>
      </trkpt>
      <trkpt lat="28.22994" lon="-14.14499">
        <ele>117.4</ele>
        <time>2021-07-05 13:52:11</time>
      </trkpt>
      <trkpt lat="28.22994" lon="-14.14505">
        <ele>117.4</ele>
        <time>2021-07-05 13:52:12</time>
      </trkpt>
      <trkpt lat="28.22996" lon="-14.1451">
        <ele>117.4</ele>
        <time>2021-07-05 13:52:13</time>
      </trkpt>
      <trkpt lat="28.22997" lon="-14.14514">
        <ele>117.4</ele>
        <time>2021-07-05 13:52:14</time>
      </trkpt>
      <trkpt lat="28.22997" lon="-14.14519">
        <ele>117.4</ele>
        <time>2021-07-05 13:52:15</time>
      </trkpt>
      <trkpt lat="28.22998" lon="-14.14525">
        <ele>117.4</ele>
        <time>2021-07-05 13:52:16</time>
      </trkpt>
      <trkpt lat="28.22999" lon="-14.1453">
        <ele>117.4</ele>
        <time>2021-07-05 13:52:17</time>
      </trkpt>
      <trkpt lat="28.23" lon="-14.14535">
        <ele>117.4</ele>
        <time>2021-07-05 13:52:18</time>
      </trkpt>
      <trkpt lat="28.23001" lon="-14.14541">
        <ele>117.4</ele>
        <time>2021-07-05 13:52:19</time>
      </trkpt>
      <trkpt lat="28.23002" lon="-14.14546">
        <ele>117.4</ele>
        <time>2021-07-05 13:52:20</time>
      </trkpt>
      <trkpt lat="28.23003" lon="-14.14551">
        <ele>117.4</ele>
        <time>2021-07-05 13:52:21</time>
      </trkpt>
      <trkpt lat="28.23003" lon="-14.14556">
        <ele>117.4</ele>
        <time>2021-07-05 13:52:22</time>
      </trkpt>
      <trkpt lat="28.23004" lon="-14.14561">
        <ele>117.4</ele>
        <time>2021-07-05 13:52:23</time>
      </trkpt>
      <trkpt lat="28.23005" lon="-14.14567">
        <ele>117.4</ele>
        <time>2021-07-05 13:52:24</time>
      </trkpt>
      <trkpt lat="28.23005" lon="-14.14572">
        <ele>117.4</ele>
        <time>2021-07-05 13:52:25</time>
      </trkpt>
      <trkpt lat="28.23006" lon="-14.14577">
        <ele>117.8</ele>
        <time>2021-07-05 13:52:26</time>
      </trkpt>
      <trkpt lat="28.23007" lon="-14.14582">
        <ele>117.8</ele>
        <time>2021-07-05 13:52:27</time>
      </trkpt>
      <trkpt lat="28.23008" lon="-14.14587">
        <ele>118</ele>
        <time>2021-07-05 13:52:28</time>
      </trkpt>
      <trkpt lat="28.23009" lon="-14.14592">
        <ele>118</ele>
        <time>2021-07-05 13:52:29</time>
      </trkpt>
      <trkpt lat="28.2301" lon="-14.14598">
        <ele>118</ele>
        <time>2021-07-05 13:52:30</time>
      </trkpt>
      <trkpt lat="28.2301" lon="-14.14603">
        <ele>118.2</ele>
        <time>2021-07-05 13:52:31</time>
      </trkpt>
      <trkpt lat="28.23011" lon="-14.14608">
        <ele>118.2</ele>
        <time>2021-07-05 13:52:32</time>
      </trkpt>
      <trkpt lat="28.23013" lon="-14.14613">
        <ele>118.2</ele>
        <time>2021-07-05 13:52:33</time>
      </trkpt>
      <trkpt lat="28.23014" lon="-14.14617">
        <ele>118.6</ele>
        <time>2021-07-05 13:52:34</time>
      </trkpt>
      <trkpt lat="28.23015" lon="-14.14622">
        <ele>118.8</ele>
        <time>2021-07-05 13:52:35</time>
      </trkpt>
      <trkpt lat="28.23015" lon="-14.14627">
        <ele>118.8</ele>
        <time>2021-07-05 13:52:36</time>
      </trkpt>
      <trkpt lat="28.23016" lon="-14.14632">
        <ele>118.8</ele>
        <time>2021-07-05 13:52:37</time>
      </trkpt>
      <trkpt lat="28.23017" lon="-14.14638">
        <ele>118.8</ele>
        <time>2021-07-05 13:52:38</time>
      </trkpt>
      <trkpt lat="28.23018" lon="-14.14642">
        <ele>118.8</ele>
        <time>2021-07-05 13:52:39</time>
      </trkpt>
      <trkpt lat="28.23018" lon="-14.14647">
        <ele>118.8</ele>
        <time>2021-07-05 13:52:40</time>
      </trkpt>
      <trkpt lat="28.23019" lon="-14.14652">
        <ele>118.8</ele>
        <time>2021-07-05 13:52:41</time>
      </trkpt>
      <trkpt lat="28.2302" lon="-14.14657">
        <ele>118.8</ele>
        <time>2021-07-05 13:52:42</time>
      </trkpt>
      <trkpt lat="28.2302" lon="-14.14662">
        <ele>118.8</ele>
        <time>2021-07-05 13:52:43</time>
      </trkpt>
      <trkpt lat="28.23021" lon="-14.14666">
        <ele>118.6</ele>
        <time>2021-07-05 13:52:44</time>
      </trkpt>
      <trkpt lat="28.23022" lon="-14.14671">
        <ele>118.6</ele>
        <time>2021-07-05 13:52:45</time>
      </trkpt>
      <trkpt lat="28.23023" lon="-14.14676">
        <ele>118.8</ele>
        <time>2021-07-05 13:52:46</time>
      </trkpt>
      <trkpt lat="28.23023" lon="-14.14681">
        <ele>118.8</ele>
        <time>2021-07-05 13:52:47</time>
      </trkpt>
      <trkpt lat="28.23024" lon="-14.14686">
        <ele>119</ele>
        <time>2021-07-05 13:52:48</time>
      </trkpt>
      <trkpt lat="28.23025" lon="-14.14691">
        <ele>119</ele>
        <time>2021-07-05 13:52:49</time>
      </trkpt>
      <trkpt lat="28.23026" lon="-14.14696">
        <ele>119.2</ele>
        <time>2021-07-05 13:52:50</time>
      </trkpt>
      <trkpt lat="28.23026" lon="-14.14701">
        <ele>119.2</ele>
        <time>2021-07-05 13:52:51</time>
      </trkpt>
      <trkpt lat="28.23027" lon="-14.14706">
        <ele>119.6</ele>
        <time>2021-07-05 13:52:52</time>
      </trkpt>
      <trkpt lat="28.23027" lon="-14.14711">
        <ele>119.6</ele>
        <time>2021-07-05 13:52:53</time>
      </trkpt>
      <trkpt lat="28.23028" lon="-14.14716">
        <ele>119.6</ele>
        <time>2021-07-05 13:52:54</time>
      </trkpt>
      <trkpt lat="28.23029" lon="-14.14721">
        <ele>119.6</ele>
        <time>2021-07-05 13:52:55</time>
      </trkpt>
      <trkpt lat="28.23029" lon="-14.14726">
        <ele>119.6</ele>
        <time>2021-07-05 13:52:56</time>
      </trkpt>
      <trkpt lat="28.2303" lon="-14.14731">
        <ele>119.6</ele>
        <time>2021-07-05 13:52:57</time>
      </trkpt>
      <trkpt lat="28.23031" lon="-14.14736">
        <ele>119.6</ele>
        <time>2021-07-05 13:52:58</time>
      </trkpt>
      <trkpt lat="28.23032" lon="-14.14741">
        <ele>119.6</ele>
        <time>2021-07-05 13:52:59</time>
      </trkpt>
      <trkpt lat="28.23032" lon="-14.14746">
        <ele>119.6</ele>
        <time>2021-07-05 13:53:00</time>
      </trkpt>
      <trkpt lat="28.23032" lon="-14.1475">
        <ele>119.6</ele>
        <time>2021-07-05 13:53:01</time>
      </trkpt>
      <trkpt lat="28.23033" lon="-14.14755">
        <ele>119.6</ele>
        <time>2021-07-05 13:53:02</time>
      </trkpt>
      <trkpt lat="28.23034" lon="-14.14759">
        <ele>119.6</ele>
        <time>2021-07-05 13:53:03</time>
      </trkpt>
      <trkpt lat="28.23034" lon="-14.14764">
        <ele>119.6</ele>
        <time>2021-07-05 13:53:04</time>
      </trkpt>
      <trkpt lat="28.23035" lon="-14.14769">
        <ele>119.8</ele>
        <time>2021-07-05 13:53:05</time>
      </trkpt>
      <trkpt lat="28.23036" lon="-14.14773">
        <ele>119.8</ele>
        <time>2021-07-05 13:53:06</time>
      </trkpt>
      <trkpt lat="28.23036" lon="-14.14778">
        <ele>119.8</ele>
        <time>2021-07-05 13:53:07</time>
      </trkpt>
      <trkpt lat="28.23037" lon="-14.14782">
        <ele>120</ele>
        <time>2021-07-05 13:53:08</time>
      </trkpt>
      <trkpt lat="28.23037" lon="-14.14785">
        <ele>120</ele>
        <time>2021-07-05 13:53:09</time>
      </trkpt>
      <trkpt lat="28.23038" lon="-14.14789">
        <ele>120</ele>
        <time>2021-07-05 13:53:10</time>
      </trkpt>
      <trkpt lat="28.23038" lon="-14.14793">
        <ele>120.2</ele>
        <time>2021-07-05 13:53:11</time>
      </trkpt>
      <trkpt lat="28.23038" lon="-14.14797">
        <ele>120.2</ele>
        <time>2021-07-05 13:53:12</time>
      </trkpt>
      <trkpt lat="28.23039" lon="-14.148">
        <ele>120.6</ele>
        <time>2021-07-05 13:53:13</time>
      </trkpt>
      <trkpt lat="28.23039" lon="-14.14804">
        <ele>120.8</ele>
        <time>2021-07-05 13:53:14</time>
      </trkpt>
      <trkpt lat="28.2304" lon="-14.14807">
        <ele>120.8</ele>
        <time>2021-07-05 13:53:15</time>
      </trkpt>
      <trkpt lat="28.2304" lon="-14.1481">
        <ele>121.2</ele>
        <time>2021-07-05 13:53:16</time>
      </trkpt>
      <trkpt lat="28.23041" lon="-14.14813">
        <ele>121.2</ele>
        <time>2021-07-05 13:53:17</time>
      </trkpt>
      <trkpt lat="28.23042" lon="-14.14816">
        <ele>121.6</ele>
        <time>2021-07-05 13:53:18</time>
      </trkpt>
      <trkpt lat="28.23042" lon="-14.14819">
        <ele>121.6</ele>
        <time>2021-07-05 13:53:19</time>
      </trkpt>
      <trkpt lat="28.23043" lon="-14.14822">
        <ele>122</ele>
        <time>2021-07-05 13:53:20</time>
      </trkpt>
      <trkpt lat="28.23043" lon="-14.14824">
        <ele>122.2</ele>
        <time>2021-07-05 13:53:21</time>
      </trkpt>
      <trkpt lat="28.23044" lon="-14.14827">
        <ele>122.6</ele>
        <time>2021-07-05 13:53:22</time>
      </trkpt>
      <trkpt lat="28.23044" lon="-14.14829">
        <ele>122.8</ele>
        <time>2021-07-05 13:53:23</time>
      </trkpt>
      <trkpt lat="28.23044" lon="-14.14832">
        <ele>123</ele>
        <time>2021-07-05 13:53:24</time>
      </trkpt>
      <trkpt lat="28.23045" lon="-14.14834">
        <ele>123.4</ele>
        <time>2021-07-05 13:53:25</time>
      </trkpt>
      <trkpt lat="28.23045" lon="-14.14836">
        <ele>123.4</ele>
        <time>2021-07-05 13:53:26</time>
      </trkpt>
      <trkpt lat="28.23045" lon="-14.14838">
        <ele>123.8</ele>
        <time>2021-07-05 13:53:27</time>
      </trkpt>
      <trkpt lat="28.23046" lon="-14.1484">
        <ele>123.8</ele>
        <time>2021-07-05 13:53:28</time>
      </trkpt>
      <trkpt lat="28.23046" lon="-14.14843">
        <ele>124</ele>
        <time>2021-07-05 13:53:29</time>
      </trkpt>
      <trkpt lat="28.23046" lon="-14.14845">
        <ele>124</ele>
        <time>2021-07-05 13:53:30</time>
      </trkpt>
      <trkpt lat="28.23046" lon="-14.14848">
        <ele>124.4</ele>
        <time>2021-07-05 13:53:31</time>
      </trkpt>
      <trkpt lat="28.23047" lon="-14.1485">
        <ele>124.4</ele>
        <time>2021-07-05 13:53:32</time>
      </trkpt>
      <trkpt lat="28.23047" lon="-14.14853">
        <ele>124.4</ele>
        <time>2021-07-05 13:53:33</time>
      </trkpt>
      <trkpt lat="28.23048" lon="-14.14855">
        <ele>124.4</ele>
        <time>2021-07-05 13:53:34</time>
      </trkpt>
      <trkpt lat="28.23048" lon="-14.14858">
        <ele>124.6</ele>
        <time>2021-07-05 13:53:35</time>
      </trkpt>
      <trkpt lat="28.23048" lon="-14.14861">
        <ele>124.6</ele>
        <time>2021-07-05 13:53:36</time>
      </trkpt>
      <trkpt lat="28.23049" lon="-14.14863">
        <ele>124.6</ele>
        <time>2021-07-05 13:53:37</time>
      </trkpt>
      <trkpt lat="28.2305" lon="-14.14866">
        <ele>124.6</ele>
        <time>2021-07-05 13:53:38</time>
      </trkpt>
      <trkpt lat="28.2305" lon="-14.14869">
        <ele>124.6</ele>
        <time>2021-07-05 13:53:39</time>
      </trkpt>
      <trkpt lat="28.23051" lon="-14.14872">
        <ele>124.8</ele>
        <time>2021-07-05 13:53:40</time>
      </trkpt>
      <trkpt lat="28.23051" lon="-14.14874">
        <ele>124.8</ele>
        <time>2021-07-05 13:53:41</time>
      </trkpt>
      <trkpt lat="28.23051" lon="-14.14877">
        <ele>124.8</ele>
        <time>2021-07-05 13:53:42</time>
      </trkpt>
      <trkpt lat="28.23052" lon="-14.1488">
        <ele>124.8</ele>
        <time>2021-07-05 13:53:43</time>
      </trkpt>
      <trkpt lat="28.23052" lon="-14.14883">
        <ele>124.8</ele>
        <time>2021-07-05 13:53:44</time>
      </trkpt>
      <trkpt lat="28.23053" lon="-14.14886">
        <ele>125</ele>
        <time>2021-07-05 13:53:45</time>
      </trkpt>
      <trkpt lat="28.23053" lon="-14.1489">
        <ele>125</ele>
        <time>2021-07-05 13:53:46</time>
      </trkpt>
      <trkpt lat="28.23053" lon="-14.14893">
        <ele>125</ele>
        <time>2021-07-05 13:53:47</time>
      </trkpt>
      <trkpt lat="28.23054" lon="-14.14896">
        <ele>125.4</ele>
        <time>2021-07-05 13:53:48</time>
      </trkpt>
      <trkpt lat="28.23054" lon="-14.14899">
        <ele>125.4</ele>
        <time>2021-07-05 13:53:49</time>
      </trkpt>
      <trkpt lat="28.23055" lon="-14.14903">
        <ele>125.6</ele>
        <time>2021-07-05 13:53:50</time>
      </trkpt>
      <trkpt lat="28.23055" lon="-14.14906">
        <ele>125.6</ele>
        <time>2021-07-05 13:53:51</time>
      </trkpt>
      <trkpt lat="28.23056" lon="-14.1491">
        <ele>125.6</ele>
        <time>2021-07-05 13:53:52</time>
      </trkpt>
      <trkpt lat="28.23056" lon="-14.14914">
        <ele>125.8</ele>
        <time>2021-07-05 13:53:53</time>
      </trkpt>
      <trkpt lat="28.23057" lon="-14.14917">
        <ele>125.8</ele>
        <time>2021-07-05 13:53:54</time>
      </trkpt>
      <trkpt lat="28.23057" lon="-14.14921">
        <ele>125.8</ele>
        <time>2021-07-05 13:53:55</time>
      </trkpt>
      <trkpt lat="28.23057" lon="-14.14924">
        <ele>126</ele>
        <time>2021-07-05 13:53:56</time>
      </trkpt>
      <trkpt lat="28.23058" lon="-14.14928">
        <ele>126</ele>
        <time>2021-07-05 13:53:57</time>
      </trkpt>
      <trkpt lat="28.23058" lon="-14.14932">
        <ele>126</ele>
        <time>2021-07-05 13:53:58</time>
      </trkpt>
      <trkpt lat="28.23059" lon="-14.14936">
        <ele>126</ele>
        <time>2021-07-05 13:53:59</time>
      </trkpt>
      <trkpt lat="28.2306" lon="-14.14939">
        <ele>126</ele>
        <time>2021-07-05 13:54:00</time>
      </trkpt>
      <trkpt lat="28.2306" lon="-14.14944">
        <ele>126</ele>
        <time>2021-07-05 13:54:01</time>
      </trkpt>
      <trkpt lat="28.23061" lon="-14.14948">
        <ele>126</ele>
        <time>2021-07-05 13:54:02</time>
      </trkpt>
      <trkpt lat="28.23061" lon="-14.14952">
        <ele>126</ele>
        <time>2021-07-05 13:54:03</time>
      </trkpt>
      <trkpt lat="28.23062" lon="-14.14956">
        <ele>126</ele>
        <time>2021-07-05 13:54:04</time>
      </trkpt>
      <trkpt lat="28.23062" lon="-14.1496">
        <ele>126</ele>
        <time>2021-07-05 13:54:05</time>
      </trkpt>
      <trkpt lat="28.23063" lon="-14.14965">
        <ele>126</ele>
        <time>2021-07-05 13:54:06</time>
      </trkpt>
      <trkpt lat="28.23064" lon="-14.14969">
        <ele>126</ele>
        <time>2021-07-05 13:54:07</time>
      </trkpt>
      <trkpt lat="28.23064" lon="-14.14973">
        <ele>126</ele>
        <time>2021-07-05 13:54:08</time>
      </trkpt>
      <trkpt lat="28.23065" lon="-14.14977">
        <ele>126</ele>
        <time>2021-07-05 13:54:09</time>
      </trkpt>
      <trkpt lat="28.23066" lon="-14.14981">
        <ele>126</ele>
        <time>2021-07-05 13:54:10</time>
      </trkpt>
      <trkpt lat="28.23066" lon="-14.14985">
        <ele>125.8</ele>
        <time>2021-07-05 13:54:11</time>
      </trkpt>
      <trkpt lat="28.23067" lon="-14.1499">
        <ele>125.8</ele>
        <time>2021-07-05 13:54:12</time>
      </trkpt>
      <trkpt lat="28.23067" lon="-14.14994">
        <ele>125.8</ele>
        <time>2021-07-05 13:54:13</time>
      </trkpt>
      <trkpt lat="28.23068" lon="-14.14998">
        <ele>125.8</ele>
        <time>2021-07-05 13:54:14</time>
      </trkpt>
      <trkpt lat="28.23069" lon="-14.15002">
        <ele>125.8</ele>
        <time>2021-07-05 13:54:15</time>
      </trkpt>
      <trkpt lat="28.2307" lon="-14.15006">
        <ele>125.8</ele>
        <time>2021-07-05 13:54:16</time>
      </trkpt>
      <trkpt lat="28.23071" lon="-14.1501">
        <ele>125.8</ele>
        <time>2021-07-05 13:54:17</time>
      </trkpt>
      <trkpt lat="28.23072" lon="-14.15013">
        <ele>125.8</ele>
        <time>2021-07-05 13:54:18</time>
      </trkpt>
      <trkpt lat="28.23074" lon="-14.15017">
        <ele>125.8</ele>
        <time>2021-07-05 13:54:19</time>
      </trkpt>
      <trkpt lat="28.23075" lon="-14.1502">
        <ele>126</ele>
        <time>2021-07-05 13:54:20</time>
      </trkpt>
      <trkpt lat="28.23077" lon="-14.15023">
        <ele>126</ele>
        <time>2021-07-05 13:54:21</time>
      </trkpt>
      <trkpt lat="28.23079" lon="-14.15026">
        <ele>126.2</ele>
        <time>2021-07-05 13:54:22</time>
      </trkpt>
      <trkpt lat="28.23081" lon="-14.15029">
        <ele>126.2</ele>
        <time>2021-07-05 13:54:23</time>
      </trkpt>
      <trkpt lat="28.23083" lon="-14.15032">
        <ele>126.2</ele>
        <time>2021-07-05 13:54:24</time>
      </trkpt>
      <trkpt lat="28.23086" lon="-14.15034">
        <ele>126.6</ele>
        <time>2021-07-05 13:54:25</time>
      </trkpt>
      <trkpt lat="28.23088" lon="-14.15036">
        <ele>126.6</ele>
        <time>2021-07-05 13:54:26</time>
      </trkpt>
      <trkpt lat="28.2309" lon="-14.15038">
        <ele>126.8</ele>
        <time>2021-07-05 13:54:27</time>
      </trkpt>
      <trkpt lat="28.23092" lon="-14.15041">
        <ele>127.2</ele>
        <time>2021-07-05 13:54:28</time>
      </trkpt>
      <trkpt lat="28.23094" lon="-14.15043">
        <ele>127.2</ele>
        <time>2021-07-05 13:54:29</time>
      </trkpt>
      <trkpt lat="28.23096" lon="-14.15045">
        <ele>127.2</ele>
        <time>2021-07-05 13:54:30</time>
      </trkpt>
      <trkpt lat="28.23099" lon="-14.15047">
        <ele>127.6</ele>
        <time>2021-07-05 13:54:31</time>
      </trkpt>
      <trkpt lat="28.23101" lon="-14.15049">
        <ele>127.8</ele>
        <time>2021-07-05 13:54:32</time>
      </trkpt>
      <trkpt lat="28.23104" lon="-14.15051">
        <ele>127.8</ele>
        <time>2021-07-05 13:54:33</time>
      </trkpt>
      <trkpt lat="28.23106" lon="-14.15053">
        <ele>127.8</ele>
        <time>2021-07-05 13:54:34</time>
      </trkpt>
      <trkpt lat="28.23108" lon="-14.15055">
        <ele>128</ele>
        <time>2021-07-05 13:54:35</time>
      </trkpt>
      <trkpt lat="28.2311" lon="-14.15057">
        <ele>128</ele>
        <time>2021-07-05 13:54:36</time>
      </trkpt>
      <trkpt lat="28.23112" lon="-14.15059">
        <ele>128.2</ele>
        <time>2021-07-05 13:54:37</time>
      </trkpt>
      <trkpt lat="28.23114" lon="-14.1506">
        <ele>128.2</ele>
        <time>2021-07-05 13:54:38</time>
      </trkpt>
      <trkpt lat="28.23117" lon="-14.15061">
        <ele>128.8</ele>
        <time>2021-07-05 13:54:39</time>
      </trkpt>
      <trkpt lat="28.23119" lon="-14.15063">
        <ele>128.8</ele>
        <time>2021-07-05 13:54:40</time>
      </trkpt>
      <trkpt lat="28.23121" lon="-14.15065">
        <ele>128.8</ele>
        <time>2021-07-05 13:54:41</time>
      </trkpt>
      <trkpt lat="28.23123" lon="-14.15067">
        <ele>129.2</ele>
        <time>2021-07-05 13:54:42</time>
      </trkpt>
      <trkpt lat="28.23126" lon="-14.15069">
        <ele>129.2</ele>
        <time>2021-07-05 13:54:43</time>
      </trkpt>
      <trkpt lat="28.23128" lon="-14.1507">
        <ele>129.6</ele>
        <time>2021-07-05 13:54:44</time>
      </trkpt>
      <trkpt lat="28.2313" lon="-14.15072">
        <ele>129.6</ele>
        <time>2021-07-05 13:54:45</time>
      </trkpt>
      <trkpt lat="28.23133" lon="-14.15073">
        <ele>129.8</ele>
        <time>2021-07-05 13:54:46</time>
      </trkpt>
      <trkpt lat="28.23135" lon="-14.15075">
        <ele>129.8</ele>
        <time>2021-07-05 13:54:47</time>
      </trkpt>
      <trkpt lat="28.23138" lon="-14.15076">
        <ele>130.2</ele>
        <time>2021-07-05 13:54:48</time>
      </trkpt>
      <trkpt lat="28.2314" lon="-14.15078">
        <ele>130.4</ele>
        <time>2021-07-05 13:54:49</time>
      </trkpt>
      <trkpt lat="28.23143" lon="-14.15079">
        <ele>130.4</ele>
        <time>2021-07-05 13:54:50</time>
      </trkpt>
      <trkpt lat="28.23146" lon="-14.15081">
        <ele>130.4</ele>
        <time>2021-07-05 13:54:51</time>
      </trkpt>
      <trkpt lat="28.23148" lon="-14.15082">
        <ele>130.4</ele>
        <time>2021-07-05 13:54:52</time>
      </trkpt>
      <trkpt lat="28.23151" lon="-14.15083">
        <ele>130.8</ele>
        <time>2021-07-05 13:54:53</time>
      </trkpt>
      <trkpt lat="28.23154" lon="-14.15085">
        <ele>130.8</ele>
        <time>2021-07-05 13:54:54</time>
      </trkpt>
      <trkpt lat="28.23156" lon="-14.15087">
        <ele>131</ele>
        <time>2021-07-05 13:54:55</time>
      </trkpt>
      <trkpt lat="28.23158" lon="-14.15088">
        <ele>131</ele>
        <time>2021-07-05 13:54:56</time>
      </trkpt>
      <trkpt lat="28.23161" lon="-14.15089">
        <ele>131</ele>
        <time>2021-07-05 13:54:57</time>
      </trkpt>
      <trkpt lat="28.23161" lon="-14.15089">
        <ele>131</ele>
        <time>2021-07-05 13:54:58</time>
      </trkpt>
      <trkpt lat="28.23165" lon="-14.1509">
        <ele>131</ele>
        <time>2021-07-05 13:54:59</time>
      </trkpt>
      <trkpt lat="28.23168" lon="-14.15092">
        <ele>131</ele>
        <time>2021-07-05 13:55:00</time>
      </trkpt>
      <trkpt lat="28.2317" lon="-14.15093">
        <ele>131</ele>
        <time>2021-07-05 13:55:01</time>
      </trkpt>
      <trkpt lat="28.23172" lon="-14.15094">
        <ele>131.4</ele>
        <time>2021-07-05 13:55:02</time>
      </trkpt>
      <trkpt lat="28.23174" lon="-14.15095">
        <ele>131.8</ele>
        <time>2021-07-05 13:55:03</time>
      </trkpt>
      <trkpt lat="28.23176" lon="-14.15095">
        <ele>131.8</ele>
        <time>2021-07-05 13:55:04</time>
      </trkpt>
      <trkpt lat="28.23178" lon="-14.15096">
        <ele>131.8</ele>
        <time>2021-07-05 13:55:05</time>
      </trkpt>
      <trkpt lat="28.23181" lon="-14.15097">
        <ele>132</ele>
        <time>2021-07-05 13:55:06</time>
      </trkpt>
      <trkpt lat="28.23183" lon="-14.15097">
        <ele>132.2</ele>
        <time>2021-07-05 13:55:07</time>
      </trkpt>
      <trkpt lat="28.23185" lon="-14.15097">
        <ele>132.2</ele>
        <time>2021-07-05 13:55:08</time>
      </trkpt>
      <trkpt lat="28.23187" lon="-14.15098">
        <ele>132.2</ele>
        <time>2021-07-05 13:55:09</time>
      </trkpt>
      <trkpt lat="28.2319" lon="-14.15099">
        <ele>132.4</ele>
        <time>2021-07-05 13:55:10</time>
      </trkpt>
      <trkpt lat="28.23192" lon="-14.15099">
        <ele>132.4</ele>
        <time>2021-07-05 13:55:11</time>
      </trkpt>
      <trkpt lat="28.23194" lon="-14.151">
        <ele>132.4</ele>
        <time>2021-07-05 13:55:12</time>
      </trkpt>
      <trkpt lat="28.23196" lon="-14.151">
        <ele>132.8</ele>
        <time>2021-07-05 13:55:13</time>
      </trkpt>
      <trkpt lat="28.23198" lon="-14.151">
        <ele>132.8</ele>
        <time>2021-07-05 13:55:14</time>
      </trkpt>
      <trkpt lat="28.23201" lon="-14.151">
        <ele>133</ele>
        <time>2021-07-05 13:55:15</time>
      </trkpt>
      <trkpt lat="28.23203" lon="-14.151">
        <ele>133</ele>
        <time>2021-07-05 13:55:16</time>
      </trkpt>
      <trkpt lat="28.23205" lon="-14.15101">
        <ele>133</ele>
        <time>2021-07-05 13:55:17</time>
      </trkpt>
      <trkpt lat="28.23208" lon="-14.15101">
        <ele>133.2</ele>
        <time>2021-07-05 13:55:18</time>
      </trkpt>
      <trkpt lat="28.2321" lon="-14.15101">
        <ele>133.2</ele>
        <time>2021-07-05 13:55:19</time>
      </trkpt>
      <trkpt lat="28.23212" lon="-14.15101">
        <ele>132.8</ele>
        <time>2021-07-05 13:55:20</time>
      </trkpt>
      <trkpt lat="28.23215" lon="-14.15101">
        <ele>133.4</ele>
        <time>2021-07-05 13:55:21</time>
      </trkpt>
      <trkpt lat="28.23217" lon="-14.15101">
        <ele>133.8</ele>
        <time>2021-07-05 13:55:22</time>
      </trkpt>
      <trkpt lat="28.23219" lon="-14.15101">
        <ele>134.2</ele>
        <time>2021-07-05 13:55:23</time>
      </trkpt>
      <trkpt lat="28.23221" lon="-14.15101">
        <ele>134.4</ele>
        <time>2021-07-05 13:55:24</time>
      </trkpt>
      <trkpt lat="28.23224" lon="-14.15101">
        <ele>134.4</ele>
        <time>2021-07-05 13:55:25</time>
      </trkpt>
      <trkpt lat="28.23226" lon="-14.15101">
        <ele>134.6</ele>
        <time>2021-07-05 13:55:26</time>
      </trkpt>
      <trkpt lat="28.23227" lon="-14.15101">
        <ele>134.6</ele>
        <time>2021-07-05 13:55:27</time>
      </trkpt>
      <trkpt lat="28.23229" lon="-14.15102">
        <ele>135</ele>
        <time>2021-07-05 13:55:28</time>
      </trkpt>
      <trkpt lat="28.23231" lon="-14.15101">
        <ele>135</ele>
        <time>2021-07-05 13:55:29</time>
      </trkpt>
      <trkpt lat="28.23233" lon="-14.15101">
        <ele>135.2</ele>
        <time>2021-07-05 13:55:30</time>
      </trkpt>
      <trkpt lat="28.23235" lon="-14.15101">
        <ele>135.6</ele>
        <time>2021-07-05 13:55:31</time>
      </trkpt>
      <trkpt lat="28.23237" lon="-14.15101">
        <ele>135.6</ele>
        <time>2021-07-05 13:55:32</time>
      </trkpt>
      <trkpt lat="28.23239" lon="-14.151">
        <ele>135.8</ele>
        <time>2021-07-05 13:55:33</time>
      </trkpt>
      <trkpt lat="28.23241" lon="-14.151">
        <ele>136</ele>
        <time>2021-07-05 13:55:34</time>
      </trkpt>
      <trkpt lat="28.23243" lon="-14.151">
        <ele>136.2</ele>
        <time>2021-07-05 13:55:35</time>
      </trkpt>
      <trkpt lat="28.23245" lon="-14.151">
        <ele>136.4</ele>
        <time>2021-07-05 13:55:36</time>
      </trkpt>
      <trkpt lat="28.23246" lon="-14.151">
        <ele>136.8</ele>
        <time>2021-07-05 13:55:37</time>
      </trkpt>
      <trkpt lat="28.23248" lon="-14.15099">
        <ele>136.8</ele>
        <time>2021-07-05 13:55:38</time>
      </trkpt>
      <trkpt lat="28.2325" lon="-14.15099">
        <ele>137.2</ele>
        <time>2021-07-05 13:55:39</time>
      </trkpt>
      <trkpt lat="28.23252" lon="-14.15098">
        <ele>137.6</ele>
        <time>2021-07-05 13:55:40</time>
      </trkpt>
      <trkpt lat="28.23254" lon="-14.15098">
        <ele>137.6</ele>
        <time>2021-07-05 13:55:41</time>
      </trkpt>
      <trkpt lat="28.23255" lon="-14.15097">
        <ele>137.6</ele>
        <time>2021-07-05 13:55:42</time>
      </trkpt>
      <trkpt lat="28.23257" lon="-14.15097">
        <ele>138</ele>
        <time>2021-07-05 13:55:43</time>
      </trkpt>
      <trkpt lat="28.23259" lon="-14.15097">
        <ele>138</ele>
        <time>2021-07-05 13:55:44</time>
      </trkpt>
      <trkpt lat="28.2326" lon="-14.15097">
        <ele>138.6</ele>
        <time>2021-07-05 13:55:45</time>
      </trkpt>
      <trkpt lat="28.23262" lon="-14.15096">
        <ele>138.6</ele>
        <time>2021-07-05 13:55:46</time>
      </trkpt>
      <trkpt lat="28.23264" lon="-14.15096">
        <ele>138.8</ele>
        <time>2021-07-05 13:55:47</time>
      </trkpt>
      <trkpt lat="28.23266" lon="-14.15095">
        <ele>139.4</ele>
        <time>2021-07-05 13:55:48</time>
      </trkpt>
      <trkpt lat="28.23268" lon="-14.15095">
        <ele>139.4</ele>
        <time>2021-07-05 13:55:49</time>
      </trkpt>
      <trkpt lat="28.2327" lon="-14.15095">
        <ele>139.4</ele>
        <time>2021-07-05 13:55:50</time>
      </trkpt>
      <trkpt lat="28.23271" lon="-14.15095">
        <ele>139.6</ele>
        <time>2021-07-05 13:55:51</time>
      </trkpt>
      <trkpt lat="28.23273" lon="-14.15094">
        <ele>139.6</ele>
        <time>2021-07-05 13:55:52</time>
      </trkpt>
      <trkpt lat="28.23275" lon="-14.15094">
        <ele>140.4</ele>
        <time>2021-07-05 13:55:53</time>
      </trkpt>
      <trkpt lat="28.23277" lon="-14.15094">
        <ele>140.4</ele>
        <time>2021-07-05 13:55:54</time>
      </trkpt>
      <trkpt lat="28.23279" lon="-14.15093">
        <ele>140.4</ele>
        <time>2021-07-05 13:55:55</time>
      </trkpt>
      <trkpt lat="28.23281" lon="-14.15093">
        <ele>140.6</ele>
        <time>2021-07-05 13:55:56</time>
      </trkpt>
      <trkpt lat="28.23282" lon="-14.15093">
        <ele>140.8</ele>
        <time>2021-07-05 13:55:57</time>
      </trkpt>
      <trkpt lat="28.23284" lon="-14.15092">
        <ele>141.2</ele>
        <time>2021-07-05 13:55:58</time>
      </trkpt>
      <trkpt lat="28.23286" lon="-14.15092">
        <ele>141.4</ele>
        <time>2021-07-05 13:55:59</time>
      </trkpt>
      <trkpt lat="28.23288" lon="-14.15092">
        <ele>141.6</ele>
        <time>2021-07-05 13:56:00</time>
      </trkpt>
      <trkpt lat="28.23289" lon="-14.15091">
        <ele>142.2</ele>
        <time>2021-07-05 13:56:01</time>
      </trkpt>
      <trkpt lat="28.23291" lon="-14.15091">
        <ele>142.2</ele>
        <time>2021-07-05 13:56:02</time>
      </trkpt>
      <trkpt lat="28.23293" lon="-14.15092">
        <ele>142.4</ele>
        <time>2021-07-05 13:56:03</time>
      </trkpt>
      <trkpt lat="28.23295" lon="-14.15091">
        <ele>142.4</ele>
        <time>2021-07-05 13:56:04</time>
      </trkpt>
      <trkpt lat="28.23297" lon="-14.15091">
        <ele>143</ele>
        <time>2021-07-05 13:56:05</time>
      </trkpt>
      <trkpt lat="28.23298" lon="-14.15091">
        <ele>143</ele>
        <time>2021-07-05 13:56:06</time>
      </trkpt>
      <trkpt lat="28.233" lon="-14.1509">
        <ele>143.2</ele>
        <time>2021-07-05 13:56:07</time>
      </trkpt>
      <trkpt lat="28.23301" lon="-14.1509">
        <ele>143.8</ele>
        <time>2021-07-05 13:56:08</time>
      </trkpt>
      <trkpt lat="28.23303" lon="-14.15089">
        <ele>143.8</ele>
        <time>2021-07-05 13:56:09</time>
      </trkpt>
      <trkpt lat="28.23304" lon="-14.15088">
        <ele>143.8</ele>
        <time>2021-07-05 13:56:10</time>
      </trkpt>
      <trkpt lat="28.23306" lon="-14.15088">
        <ele>144.4</ele>
        <time>2021-07-05 13:56:11</time>
      </trkpt>
      <trkpt lat="28.23307" lon="-14.15088">
        <ele>144.6</ele>
        <time>2021-07-05 13:56:12</time>
      </trkpt>
      <trkpt lat="28.23309" lon="-14.15088">
        <ele>144.8</ele>
        <time>2021-07-05 13:56:13</time>
      </trkpt>
      <trkpt lat="28.2331" lon="-14.15088">
        <ele>145.4</ele>
        <time>2021-07-05 13:56:14</time>
      </trkpt>
      <trkpt lat="28.23312" lon="-14.15088">
        <ele>145.4</ele>
        <time>2021-07-05 13:56:15</time>
      </trkpt>
      <trkpt lat="28.23313" lon="-14.15088">
        <ele>146</ele>
        <time>2021-07-05 13:56:16</time>
      </trkpt>
      <trkpt lat="28.23315" lon="-14.15087">
        <ele>146.4</ele>
        <time>2021-07-05 13:56:17</time>
      </trkpt>
      <trkpt lat="28.23316" lon="-14.15087">
        <ele>146.4</ele>
        <time>2021-07-05 13:56:18</time>
      </trkpt>
      <trkpt lat="28.23317" lon="-14.15087">
        <ele>146.4</ele>
        <time>2021-07-05 13:56:19</time>
      </trkpt>
      <trkpt lat="28.23319" lon="-14.15086">
        <ele>147</ele>
        <time>2021-07-05 13:56:20</time>
      </trkpt>
      <trkpt lat="28.2332" lon="-14.15085">
        <ele>147</ele>
        <time>2021-07-05 13:56:21</time>
      </trkpt>
      <trkpt lat="28.23322" lon="-14.15085">
        <ele>147.2</ele>
        <time>2021-07-05 13:56:22</time>
      </trkpt>
      <trkpt lat="28.23323" lon="-14.15085">
        <ele>147.8</ele>
        <time>2021-07-05 13:56:23</time>
      </trkpt>
      <trkpt lat="28.23325" lon="-14.15085">
        <ele>148.2</ele>
        <time>2021-07-05 13:56:24</time>
      </trkpt>
      <trkpt lat="28.23326" lon="-14.15084">
        <ele>148.2</ele>
        <time>2021-07-05 13:56:25</time>
      </trkpt>
      <trkpt lat="28.23328" lon="-14.15084">
        <ele>148.6</ele>
        <time>2021-07-05 13:56:26</time>
      </trkpt>
      <trkpt lat="28.23329" lon="-14.15084">
        <ele>148.6</ele>
        <time>2021-07-05 13:56:27</time>
      </trkpt>
      <trkpt lat="28.23331" lon="-14.15084">
        <ele>148.8</ele>
        <time>2021-07-05 13:56:28</time>
      </trkpt>
      <trkpt lat="28.23333" lon="-14.15084">
        <ele>148.8</ele>
        <time>2021-07-05 13:56:29</time>
      </trkpt>
      <trkpt lat="28.23334" lon="-14.15084">
        <ele>149.2</ele>
        <time>2021-07-05 13:56:30</time>
      </trkpt>
      <trkpt lat="28.23336" lon="-14.15083">
        <ele>149.2</ele>
        <time>2021-07-05 13:56:31</time>
      </trkpt>
      <trkpt lat="28.23337" lon="-14.15083">
        <ele>149.2</ele>
        <time>2021-07-05 13:56:32</time>
      </trkpt>
      <trkpt lat="28.23338" lon="-14.15082">
        <ele>149.6</ele>
        <time>2021-07-05 13:56:33</time>
      </trkpt>
      <trkpt lat="28.2334" lon="-14.15082">
        <ele>149.6</ele>
        <time>2021-07-05 13:56:34</time>
      </trkpt>
      <trkpt lat="28.23341" lon="-14.15082">
        <ele>150</ele>
        <time>2021-07-05 13:56:35</time>
      </trkpt>
      <trkpt lat="28.23343" lon="-14.15081">
        <ele>150.2</ele>
        <time>2021-07-05 13:56:36</time>
      </trkpt>
      <trkpt lat="28.23345" lon="-14.15081">
        <ele>150.2</ele>
        <time>2021-07-05 13:56:37</time>
      </trkpt>
      <trkpt lat="28.23346" lon="-14.15081">
        <ele>150.2</ele>
        <time>2021-07-05 13:56:38</time>
      </trkpt>
      <trkpt lat="28.23348" lon="-14.15081">
        <ele>150.6</ele>
        <time>2021-07-05 13:56:39</time>
      </trkpt>
      <trkpt lat="28.23349" lon="-14.15081">
        <ele>151</ele>
        <time>2021-07-05 13:56:40</time>
      </trkpt>
      <trkpt lat="28.23351" lon="-14.15081">
        <ele>151.6</ele>
        <time>2021-07-05 13:56:41</time>
      </trkpt>
      <trkpt lat="28.23353" lon="-14.15081">
        <ele>151.6</ele>
        <time>2021-07-05 13:56:42</time>
      </trkpt>
      <trkpt lat="28.23354" lon="-14.1508">
        <ele>151.6</ele>
        <time>2021-07-05 13:56:43</time>
      </trkpt>
      <trkpt lat="28.23356" lon="-14.1508">
        <ele>152</ele>
        <time>2021-07-05 13:56:44</time>
      </trkpt>
      <trkpt lat="28.23357" lon="-14.1508">
        <ele>152</ele>
        <time>2021-07-05 13:56:45</time>
      </trkpt>
      <trkpt lat="28.23359" lon="-14.1508">
        <ele>152.4</ele>
        <time>2021-07-05 13:56:46</time>
      </trkpt>
      <trkpt lat="28.23361" lon="-14.1508">
        <ele>153</ele>
        <time>2021-07-05 13:56:47</time>
      </trkpt>
      <trkpt lat="28.23362" lon="-14.15079">
        <ele>153.2</ele>
        <time>2021-07-05 13:56:48</time>
      </trkpt>
      <trkpt lat="28.23363" lon="-14.15078">
        <ele>153.2</ele>
        <time>2021-07-05 13:56:49</time>
      </trkpt>
      <trkpt lat="28.23365" lon="-14.15078">
        <ele>153.4</ele>
        <time>2021-07-05 13:56:50</time>
      </trkpt>
      <trkpt lat="28.23367" lon="-14.15078">
        <ele>153.8</ele>
        <time>2021-07-05 13:56:51</time>
      </trkpt>
      <trkpt lat="28.23368" lon="-14.15078">
        <ele>154</ele>
        <time>2021-07-05 13:56:52</time>
      </trkpt>
      <trkpt lat="28.2337" lon="-14.15078">
        <ele>154.2</ele>
        <time>2021-07-05 13:56:53</time>
      </trkpt>
      <trkpt lat="28.23371" lon="-14.15078">
        <ele>154.4</ele>
        <time>2021-07-05 13:56:54</time>
      </trkpt>
      <trkpt lat="28.23373" lon="-14.15078">
        <ele>154.8</ele>
        <time>2021-07-05 13:56:55</time>
      </trkpt>
      <trkpt lat="28.23374" lon="-14.15078">
        <ele>155</ele>
        <time>2021-07-05 13:56:56</time>
      </trkpt>
      <trkpt lat="28.23376" lon="-14.15078">
        <ele>155.2</ele>
        <time>2021-07-05 13:56:57</time>
      </trkpt>
      <trkpt lat="28.23377" lon="-14.15077">
        <ele>155.6</ele>
        <time>2021-07-05 13:56:58</time>
      </trkpt>
      <trkpt lat="28.23379" lon="-14.15077">
        <ele>156</ele>
        <time>2021-07-05 13:56:59</time>
      </trkpt>
      <trkpt lat="28.2338" lon="-14.15076">
        <ele>156</ele>
        <time>2021-07-05 13:57:00</time>
      </trkpt>
      <trkpt lat="28.23382" lon="-14.15076">
        <ele>156.2</ele>
        <time>2021-07-05 13:57:01</time>
      </trkpt>
      <trkpt lat="28.23383" lon="-14.15075">
        <ele>156.4</ele>
        <time>2021-07-05 13:57:02</time>
      </trkpt>
      <trkpt lat="28.23385" lon="-14.15075">
        <ele>156.8</ele>
        <time>2021-07-05 13:57:03</time>
      </trkpt>
      <trkpt lat="28.23387" lon="-14.15075">
        <ele>157.2</ele>
        <time>2021-07-05 13:57:04</time>
      </trkpt>
      <trkpt lat="28.23388" lon="-14.15075">
        <ele>157.2</ele>
        <time>2021-07-05 13:57:05</time>
      </trkpt>
      <trkpt lat="28.2339" lon="-14.15075">
        <ele>157.2</ele>
        <time>2021-07-05 13:57:06</time>
      </trkpt>
      <trkpt lat="28.23391" lon="-14.15075">
        <ele>157.6</ele>
        <time>2021-07-05 13:57:07</time>
      </trkpt>
      <trkpt lat="28.23393" lon="-14.15075">
        <ele>157.6</ele>
        <time>2021-07-05 13:57:08</time>
      </trkpt>
      <trkpt lat="28.23394" lon="-14.15074">
        <ele>158</ele>
        <time>2021-07-05 13:57:09</time>
      </trkpt>
      <trkpt lat="28.23396" lon="-14.15074">
        <ele>158.2</ele>
        <time>2021-07-05 13:57:10</time>
      </trkpt>
      <trkpt lat="28.23397" lon="-14.15073">
        <ele>158.4</ele>
        <time>2021-07-05 13:57:11</time>
      </trkpt>
      <trkpt lat="28.23399" lon="-14.15072">
        <ele>158.6</ele>
        <time>2021-07-05 13:57:12</time>
      </trkpt>
      <trkpt lat="28.234" lon="-14.15072">
        <ele>159.2</ele>
        <time>2021-07-05 13:57:13</time>
      </trkpt>
      <trkpt lat="28.23402" lon="-14.15072">
        <ele>159.2</ele>
        <time>2021-07-05 13:57:14</time>
      </trkpt>
      <trkpt lat="28.23404" lon="-14.15072">
        <ele>159.4</ele>
        <time>2021-07-05 13:57:15</time>
      </trkpt>
      <trkpt lat="28.23405" lon="-14.15071">
        <ele>159.6</ele>
        <time>2021-07-05 13:57:16</time>
      </trkpt>
      <trkpt lat="28.23407" lon="-14.15071">
        <ele>160</ele>
        <time>2021-07-05 13:57:17</time>
      </trkpt>
      <trkpt lat="28.23408" lon="-14.15071">
        <ele>160.2</ele>
        <time>2021-07-05 13:57:18</time>
      </trkpt>
      <trkpt lat="28.2341" lon="-14.15071">
        <ele>160.2</ele>
        <time>2021-07-05 13:57:19</time>
      </trkpt>
      <trkpt lat="28.23411" lon="-14.15071">
        <ele>160.6</ele>
        <time>2021-07-05 13:57:20</time>
      </trkpt>
      <trkpt lat="28.23413" lon="-14.1507">
        <ele>160.6</ele>
        <time>2021-07-05 13:57:21</time>
      </trkpt>
      <trkpt lat="28.23414" lon="-14.1507">
        <ele>161.2</ele>
        <time>2021-07-05 13:57:22</time>
      </trkpt>
      <trkpt lat="28.23416" lon="-14.15069">
        <ele>161.2</ele>
        <time>2021-07-05 13:57:23</time>
      </trkpt>
      <trkpt lat="28.23417" lon="-14.15069">
        <ele>161.2</ele>
        <time>2021-07-05 13:57:24</time>
      </trkpt>
      <trkpt lat="28.23418" lon="-14.15069">
        <ele>161.8</ele>
        <time>2021-07-05 13:57:25</time>
      </trkpt>
      <trkpt lat="28.2342" lon="-14.15069">
        <ele>161.8</ele>
        <time>2021-07-05 13:57:26</time>
      </trkpt>
      <trkpt lat="28.23422" lon="-14.15069">
        <ele>162</ele>
        <time>2021-07-05 13:57:27</time>
      </trkpt>
      <trkpt lat="28.23423" lon="-14.15069">
        <ele>162.2</ele>
        <time>2021-07-05 13:57:28</time>
      </trkpt>
      <trkpt lat="28.23425" lon="-14.15069">
        <ele>162.6</ele>
        <time>2021-07-05 13:57:29</time>
      </trkpt>
      <trkpt lat="28.23426" lon="-14.15068">
        <ele>162.8</ele>
        <time>2021-07-05 13:57:30</time>
      </trkpt>
      <trkpt lat="28.23428" lon="-14.15067">
        <ele>163.2</ele>
        <time>2021-07-05 13:57:31</time>
      </trkpt>
      <trkpt lat="28.23429" lon="-14.15067">
        <ele>163.8</ele>
        <time>2021-07-05 13:57:32</time>
      </trkpt>
      <trkpt lat="28.23431" lon="-14.15067">
        <ele>163.8</ele>
        <time>2021-07-05 13:57:33</time>
      </trkpt>
      <trkpt lat="28.23433" lon="-14.15067">
        <ele>164.2</ele>
        <time>2021-07-05 13:57:34</time>
      </trkpt>
      <trkpt lat="28.23434" lon="-14.15067">
        <ele>164.6</ele>
        <time>2021-07-05 13:57:35</time>
      </trkpt>
      <trkpt lat="28.23436" lon="-14.15066">
        <ele>165.4</ele>
        <time>2021-07-05 13:57:36</time>
      </trkpt>
      <trkpt lat="28.23437" lon="-14.15066">
        <ele>165.4</ele>
        <time>2021-07-05 13:57:37</time>
      </trkpt>
      <trkpt lat="28.23439" lon="-14.15066">
        <ele>165.8</ele>
        <time>2021-07-05 13:57:38</time>
      </trkpt>
      <trkpt lat="28.2344" lon="-14.15065">
        <ele>166</ele>
        <time>2021-07-05 13:57:39</time>
      </trkpt>
      <trkpt lat="28.23442" lon="-14.15065">
        <ele>166</ele>
        <time>2021-07-05 13:57:40</time>
      </trkpt>
      <trkpt lat="28.23443" lon="-14.15065">
        <ele>166.4</ele>
        <time>2021-07-05 13:57:41</time>
      </trkpt>
      <trkpt lat="28.23445" lon="-14.15065">
        <ele>166.6</ele>
        <time>2021-07-05 13:57:42</time>
      </trkpt>
      <trkpt lat="28.23446" lon="-14.15065">
        <ele>167</ele>
        <time>2021-07-05 13:57:43</time>
      </trkpt>
      <trkpt lat="28.23448" lon="-14.15065">
        <ele>167</ele>
        <time>2021-07-05 13:57:44</time>
      </trkpt>
      <trkpt lat="28.23449" lon="-14.15064">
        <ele>167.2</ele>
        <time>2021-07-05 13:57:45</time>
      </trkpt>
      <trkpt lat="28.2345" lon="-14.15064">
        <ele>167.6</ele>
        <time>2021-07-05 13:57:46</time>
      </trkpt>
      <trkpt lat="28.23452" lon="-14.15063">
        <ele>167.6</ele>
        <time>2021-07-05 13:57:47</time>
      </trkpt>
      <trkpt lat="28.23453" lon="-14.15063">
        <ele>167.6</ele>
        <time>2021-07-05 13:57:48</time>
      </trkpt>
      <trkpt lat="28.23455" lon="-14.15062">
        <ele>168</ele>
        <time>2021-07-05 13:57:49</time>
      </trkpt>
      <trkpt lat="28.23457" lon="-14.15062">
        <ele>168</ele>
        <time>2021-07-05 13:57:50</time>
      </trkpt>
      <trkpt lat="28.23458" lon="-14.15062">
        <ele>168.2</ele>
        <time>2021-07-05 13:57:51</time>
      </trkpt>
      <trkpt lat="28.2346" lon="-14.15062">
        <ele>168.2</ele>
        <time>2021-07-05 13:57:52</time>
      </trkpt>
      <trkpt lat="28.23461" lon="-14.15061">
        <ele>168.2</ele>
        <time>2021-07-05 13:57:53</time>
      </trkpt>
      <trkpt lat="28.23462" lon="-14.15061">
        <ele>168.4</ele>
        <time>2021-07-05 13:57:54</time>
      </trkpt>
      <trkpt lat="28.23463" lon="-14.15061">
        <ele>168.4</ele>
        <time>2021-07-05 13:57:55</time>
      </trkpt>
      <trkpt lat="28.23464" lon="-14.15061">
        <ele>168.8</ele>
        <time>2021-07-05 13:57:56</time>
      </trkpt>
      <trkpt lat="28.23466" lon="-14.1506">
        <ele>168.8</ele>
        <time>2021-07-05 13:57:57</time>
      </trkpt>
      <trkpt lat="28.23468" lon="-14.1506">
        <ele>168.8</ele>
        <time>2021-07-05 13:57:58</time>
      </trkpt>
      <trkpt lat="28.2347" lon="-14.1506">
        <ele>169</ele>
        <time>2021-07-05 13:57:59</time>
      </trkpt>
      <trkpt lat="28.23471" lon="-14.1506">
        <ele>169.2</ele>
        <time>2021-07-05 13:58:00</time>
      </trkpt>
      <trkpt lat="28.23473" lon="-14.1506">
        <ele>169.2</ele>
        <time>2021-07-05 13:58:01</time>
      </trkpt>
      <trkpt lat="28.23475" lon="-14.15061">
        <ele>169.6</ele>
        <time>2021-07-05 13:58:02</time>
      </trkpt>
      <trkpt lat="28.23477" lon="-14.15061">
        <ele>170</ele>
        <time>2021-07-05 13:58:03</time>
      </trkpt>
      <trkpt lat="28.23478" lon="-14.15061">
        <ele>170</ele>
        <time>2021-07-05 13:58:04</time>
      </trkpt>
      <trkpt lat="28.2348" lon="-14.1506">
        <ele>170</ele>
        <time>2021-07-05 13:58:05</time>
      </trkpt>
      <trkpt lat="28.23482" lon="-14.1506">
        <ele>170.6</ele>
        <time>2021-07-05 13:58:06</time>
      </trkpt>
      <trkpt lat="28.23483" lon="-14.15061">
        <ele>170.8</ele>
        <time>2021-07-05 13:58:07</time>
      </trkpt>
      <trkpt lat="28.23485" lon="-14.15061">
        <ele>170.8</ele>
        <time>2021-07-05 13:58:08</time>
      </trkpt>
      <trkpt lat="28.23487" lon="-14.15061">
        <ele>171</ele>
        <time>2021-07-05 13:58:09</time>
      </trkpt>
      <trkpt lat="28.23489" lon="-14.15061">
        <ele>171</ele>
        <time>2021-07-05 13:58:10</time>
      </trkpt>
      <trkpt lat="28.23491" lon="-14.15062">
        <ele>171.4</ele>
        <time>2021-07-05 13:58:11</time>
      </trkpt>
      <trkpt lat="28.23492" lon="-14.15062">
        <ele>171.4</ele>
        <time>2021-07-05 13:58:12</time>
      </trkpt>
      <trkpt lat="28.23494" lon="-14.15062">
        <ele>171.4</ele>
        <time>2021-07-05 13:58:13</time>
      </trkpt>
      <trkpt lat="28.23496" lon="-14.15063">
        <ele>171.6</ele>
        <time>2021-07-05 13:58:14</time>
      </trkpt>
      <trkpt lat="28.23498" lon="-14.15063">
        <ele>171.6</ele>
        <time>2021-07-05 13:58:15</time>
      </trkpt>
      <trkpt lat="28.235" lon="-14.15064">
        <ele>171.6</ele>
        <time>2021-07-05 13:58:16</time>
      </trkpt>
      <trkpt lat="28.23501" lon="-14.15064">
        <ele>172</ele>
        <time>2021-07-05 13:58:17</time>
      </trkpt>
      <trkpt lat="28.23503" lon="-14.15065">
        <ele>172</ele>
        <time>2021-07-05 13:58:18</time>
      </trkpt>
      <trkpt lat="28.23505" lon="-14.15065">
        <ele>172.2</ele>
        <time>2021-07-05 13:58:19</time>
      </trkpt>
      <trkpt lat="28.23507" lon="-14.15066">
        <ele>172.6</ele>
        <time>2021-07-05 13:58:20</time>
      </trkpt>
      <trkpt lat="28.23508" lon="-14.15066">
        <ele>172.6</ele>
        <time>2021-07-05 13:58:21</time>
      </trkpt>
      <trkpt lat="28.2351" lon="-14.15067">
        <ele>172.6</ele>
        <time>2021-07-05 13:58:22</time>
      </trkpt>
      <trkpt lat="28.23512" lon="-14.15068">
        <ele>172.8</ele>
        <time>2021-07-05 13:58:23</time>
      </trkpt>
      <trkpt lat="28.23513" lon="-14.15069">
        <ele>172.8</ele>
        <time>2021-07-05 13:58:24</time>
      </trkpt>
      <trkpt lat="28.23515" lon="-14.1507">
        <ele>173</ele>
        <time>2021-07-05 13:58:25</time>
      </trkpt>
      <trkpt lat="28.23516" lon="-14.15071">
        <ele>173.4</ele>
        <time>2021-07-05 13:58:26</time>
      </trkpt>
      <trkpt lat="28.23518" lon="-14.15072">
        <ele>173.4</ele>
        <time>2021-07-05 13:58:27</time>
      </trkpt>
      <trkpt lat="28.2352" lon="-14.15072">
        <ele>173.8</ele>
        <time>2021-07-05 13:58:28</time>
      </trkpt>
      <trkpt lat="28.23521" lon="-14.15074">
        <ele>173.8</ele>
        <time>2021-07-05 13:58:29</time>
      </trkpt>
      <trkpt lat="28.23523" lon="-14.15075">
        <ele>173.8</ele>
        <time>2021-07-05 13:58:30</time>
      </trkpt>
      <trkpt lat="28.23524" lon="-14.15076">
        <ele>174</ele>
        <time>2021-07-05 13:58:31</time>
      </trkpt>
      <trkpt lat="28.23526" lon="-14.15077">
        <ele>174</ele>
        <time>2021-07-05 13:58:32</time>
      </trkpt>
      <trkpt lat="28.23528" lon="-14.15078">
        <ele>174.2</ele>
        <time>2021-07-05 13:58:33</time>
      </trkpt>
      <trkpt lat="28.23529" lon="-14.1508">
        <ele>174.2</ele>
        <time>2021-07-05 13:58:34</time>
      </trkpt>
      <trkpt lat="28.2353" lon="-14.15082">
        <ele>174.6</ele>
        <time>2021-07-05 13:58:35</time>
      </trkpt>
      <trkpt lat="28.23532" lon="-14.15083">
        <ele>175</ele>
        <time>2021-07-05 13:58:36</time>
      </trkpt>
      <trkpt lat="28.23533" lon="-14.15085">
        <ele>175</ele>
        <time>2021-07-05 13:58:37</time>
      </trkpt>
      <trkpt lat="28.23534" lon="-14.15087">
        <ele>175.4</ele>
        <time>2021-07-05 13:58:38</time>
      </trkpt>
      <trkpt lat="28.23535" lon="-14.15088">
        <ele>175.4</ele>
        <time>2021-07-05 13:58:39</time>
      </trkpt>
      <trkpt lat="28.23536" lon="-14.1509">
        <ele>175.4</ele>
        <time>2021-07-05 13:58:40</time>
      </trkpt>
      <trkpt lat="28.23537" lon="-14.15092">
        <ele>176</ele>
        <time>2021-07-05 13:58:41</time>
      </trkpt>
      <trkpt lat="28.23537" lon="-14.15094">
        <ele>176</ele>
        <time>2021-07-05 13:58:42</time>
      </trkpt>
      <trkpt lat="28.23538" lon="-14.15096">
        <ele>176.2</ele>
        <time>2021-07-05 13:58:43</time>
      </trkpt>
      <trkpt lat="28.23539" lon="-14.15098">
        <ele>176.4</ele>
        <time>2021-07-05 13:58:44</time>
      </trkpt>
      <trkpt lat="28.2354" lon="-14.15099">
        <ele>176.8</ele>
        <time>2021-07-05 13:58:45</time>
      </trkpt>
      <trkpt lat="28.23541" lon="-14.15101">
        <ele>177</ele>
        <time>2021-07-05 13:58:46</time>
      </trkpt>
      <trkpt lat="28.23542" lon="-14.15103">
        <ele>177.2</ele>
        <time>2021-07-05 13:58:47</time>
      </trkpt>
      <trkpt lat="28.23543" lon="-14.15105">
        <ele>177.4</ele>
        <time>2021-07-05 13:58:48</time>
      </trkpt>
      <trkpt lat="28.23544" lon="-14.15107">
        <ele>177.8</ele>
        <time>2021-07-05 13:58:49</time>
      </trkpt>
      <trkpt lat="28.23544" lon="-14.15109">
        <ele>178</ele>
        <time>2021-07-05 13:58:50</time>
      </trkpt>
      <trkpt lat="28.23545" lon="-14.15111">
        <ele>178</ele>
        <time>2021-07-05 13:58:51</time>
      </trkpt>
      <trkpt lat="28.23547" lon="-14.15113">
        <ele>178.6</ele>
        <time>2021-07-05 13:58:52</time>
      </trkpt>
      <trkpt lat="28.23548" lon="-14.15114">
        <ele>178.8</ele>
        <time>2021-07-05 13:58:53</time>
      </trkpt>
      <trkpt lat="28.23548" lon="-14.15116">
        <ele>178.8</ele>
        <time>2021-07-05 13:58:54</time>
      </trkpt>
      <trkpt lat="28.23549" lon="-14.15119">
        <ele>179.4</ele>
        <time>2021-07-05 13:58:55</time>
      </trkpt>
      <trkpt lat="28.2355" lon="-14.15121">
        <ele>179.6</ele>
        <time>2021-07-05 13:58:56</time>
      </trkpt>
      <trkpt lat="28.23551" lon="-14.15122">
        <ele>179.6</ele>
        <time>2021-07-05 13:58:57</time>
      </trkpt>
      <trkpt lat="28.23552" lon="-14.15124">
        <ele>179.8</ele>
        <time>2021-07-05 13:58:58</time>
      </trkpt>
      <trkpt lat="28.23552" lon="-14.15126">
        <ele>179.8</ele>
        <time>2021-07-05 13:58:59</time>
      </trkpt>
      <trkpt lat="28.23553" lon="-14.15128">
        <ele>180.2</ele>
        <time>2021-07-05 13:59:00</time>
      </trkpt>
      <trkpt lat="28.23554" lon="-14.1513">
        <ele>180.2</ele>
        <time>2021-07-05 13:59:01</time>
      </trkpt>
      <trkpt lat="28.23555" lon="-14.15131">
        <ele>180.6</ele>
        <time>2021-07-05 13:59:02</time>
      </trkpt>
      <trkpt lat="28.23555" lon="-14.15133">
        <ele>181</ele>
        <time>2021-07-05 13:59:03</time>
      </trkpt>
      <trkpt lat="28.23556" lon="-14.15135">
        <ele>181</ele>
        <time>2021-07-05 13:59:04</time>
      </trkpt>
      <trkpt lat="28.23556" lon="-14.15137">
        <ele>181.2</ele>
        <time>2021-07-05 13:59:05</time>
      </trkpt>
      <trkpt lat="28.23557" lon="-14.15139">
        <ele>181.4</ele>
        <time>2021-07-05 13:59:06</time>
      </trkpt>
      <trkpt lat="28.23557" lon="-14.15141">
        <ele>181.8</ele>
        <time>2021-07-05 13:59:07</time>
      </trkpt>
      <trkpt lat="28.23558" lon="-14.15143">
        <ele>182</ele>
        <time>2021-07-05 13:59:08</time>
      </trkpt>
      <trkpt lat="28.23558" lon="-14.15145">
        <ele>182.2</ele>
        <time>2021-07-05 13:59:09</time>
      </trkpt>
      <trkpt lat="28.23559" lon="-14.15146">
        <ele>182.2</ele>
        <time>2021-07-05 13:59:10</time>
      </trkpt>
      <trkpt lat="28.23559" lon="-14.15148">
        <ele>182.6</ele>
        <time>2021-07-05 13:59:11</time>
      </trkpt>
      <trkpt lat="28.2356" lon="-14.1515">
        <ele>182.6</ele>
        <time>2021-07-05 13:59:12</time>
      </trkpt>
      <trkpt lat="28.2356" lon="-14.15152">
        <ele>182.8</ele>
        <time>2021-07-05 13:59:13</time>
      </trkpt>
      <trkpt lat="28.23561" lon="-14.15154">
        <ele>183.2</ele>
        <time>2021-07-05 13:59:14</time>
      </trkpt>
      <trkpt lat="28.23561" lon="-14.15155">
        <ele>183.2</ele>
        <time>2021-07-05 13:59:15</time>
      </trkpt>
      <trkpt lat="28.23562" lon="-14.15157">
        <ele>183.4</ele>
        <time>2021-07-05 13:59:16</time>
      </trkpt>
      <trkpt lat="28.23563" lon="-14.15159">
        <ele>183.4</ele>
        <time>2021-07-05 13:59:17</time>
      </trkpt>
      <trkpt lat="28.23564" lon="-14.1516">
        <ele>184</ele>
        <time>2021-07-05 13:59:18</time>
      </trkpt>
      <trkpt lat="28.23564" lon="-14.15162">
        <ele>184</ele>
        <time>2021-07-05 13:59:19</time>
      </trkpt>
      <trkpt lat="28.23565" lon="-14.15164">
        <ele>184</ele>
        <time>2021-07-05 13:59:20</time>
      </trkpt>
      <trkpt lat="28.23565" lon="-14.15166">
        <ele>184.2</ele>
        <time>2021-07-05 13:59:21</time>
      </trkpt>
      <trkpt lat="28.23566" lon="-14.15168">
        <ele>184.4</ele>
        <time>2021-07-05 13:59:22</time>
      </trkpt>
      <trkpt lat="28.23567" lon="-14.15169">
        <ele>184.4</ele>
        <time>2021-07-05 13:59:23</time>
      </trkpt>
      <trkpt lat="28.23567" lon="-14.15171">
        <ele>184.4</ele>
        <time>2021-07-05 13:59:24</time>
      </trkpt>
      <trkpt lat="28.23568" lon="-14.15172">
        <ele>185.2</ele>
        <time>2021-07-05 13:59:25</time>
      </trkpt>
      <trkpt lat="28.23568" lon="-14.15174">
        <ele>185.2</ele>
        <time>2021-07-05 13:59:26</time>
      </trkpt>
      <trkpt lat="28.23569" lon="-14.15176">
        <ele>185.2</ele>
        <time>2021-07-05 13:59:27</time>
      </trkpt>
      <trkpt lat="28.2357" lon="-14.15177">
        <ele>185.4</ele>
        <time>2021-07-05 13:59:28</time>
      </trkpt>
      <trkpt lat="28.2357" lon="-14.15179">
        <ele>185.4</ele>
        <time>2021-07-05 13:59:29</time>
      </trkpt>
      <trkpt lat="28.23571" lon="-14.15181">
        <ele>186</ele>
        <time>2021-07-05 13:59:30</time>
      </trkpt>
      <trkpt lat="28.23572" lon="-14.15183">
        <ele>186</ele>
        <time>2021-07-05 13:59:31</time>
      </trkpt>
      <trkpt lat="28.23572" lon="-14.15184">
        <ele>186.2</ele>
        <time>2021-07-05 13:59:32</time>
      </trkpt>
      <trkpt lat="28.23573" lon="-14.15186">
        <ele>186.4</ele>
        <time>2021-07-05 13:59:33</time>
      </trkpt>
      <trkpt lat="28.23574" lon="-14.15188">
        <ele>186.6</ele>
        <time>2021-07-05 13:59:34</time>
      </trkpt>
      <trkpt lat="28.23574" lon="-14.1519">
        <ele>186.6</ele>
        <time>2021-07-05 13:59:35</time>
      </trkpt>
      <trkpt lat="28.23574" lon="-14.15192">
        <ele>187</ele>
        <time>2021-07-05 13:59:36</time>
      </trkpt>
      <trkpt lat="28.23575" lon="-14.15194">
        <ele>187.2</ele>
        <time>2021-07-05 13:59:37</time>
      </trkpt>
      <trkpt lat="28.23575" lon="-14.15196">
        <ele>187.2</ele>
        <time>2021-07-05 13:59:38</time>
      </trkpt>
      <trkpt lat="28.23576" lon="-14.15198">
        <ele>187.2</ele>
        <time>2021-07-05 13:59:39</time>
      </trkpt>
      <trkpt lat="28.23576" lon="-14.15199">
        <ele>187.4</ele>
        <time>2021-07-05 13:59:40</time>
      </trkpt>
      <trkpt lat="28.23576" lon="-14.15201">
        <ele>187.4</ele>
        <time>2021-07-05 13:59:41</time>
      </trkpt>
      <trkpt lat="28.23577" lon="-14.15203">
        <ele>187.8</ele>
        <time>2021-07-05 13:59:42</time>
      </trkpt>
      <trkpt lat="28.23578" lon="-14.15205">
        <ele>187.8</ele>
        <time>2021-07-05 13:59:43</time>
      </trkpt>
      <trkpt lat="28.23578" lon="-14.15207">
        <ele>188</ele>
        <time>2021-07-05 13:59:44</time>
      </trkpt>
      <trkpt lat="28.23579" lon="-14.15208">
        <ele>188</ele>
        <time>2021-07-05 13:59:45</time>
      </trkpt>
      <trkpt lat="28.23579" lon="-14.1521">
        <ele>188.2</ele>
        <time>2021-07-05 13:59:46</time>
      </trkpt>
      <trkpt lat="28.2358" lon="-14.15212">
        <ele>188.2</ele>
        <time>2021-07-05 13:59:47</time>
      </trkpt>
      <trkpt lat="28.2358" lon="-14.15214">
        <ele>188.6</ele>
        <time>2021-07-05 13:59:48</time>
      </trkpt>
      <trkpt lat="28.2358" lon="-14.15216">
        <ele>188.6</ele>
        <time>2021-07-05 13:59:49</time>
      </trkpt>
      <trkpt lat="28.23581" lon="-14.15218">
        <ele>189</ele>
        <time>2021-07-05 13:59:50</time>
      </trkpt>
      <trkpt lat="28.23581" lon="-14.15219">
        <ele>189.2</ele>
        <time>2021-07-05 13:59:51</time>
      </trkpt>
      <trkpt lat="28.23582" lon="-14.15221">
        <ele>189.2</ele>
        <time>2021-07-05 13:59:52</time>
      </trkpt>
      <trkpt lat="28.23582" lon="-14.15223">
        <ele>189.4</ele>
        <time>2021-07-05 13:59:53</time>
      </trkpt>
      <trkpt lat="28.23583" lon="-14.15225">
        <ele>189.8</ele>
        <time>2021-07-05 13:59:54</time>
      </trkpt>
      <trkpt lat="28.23583" lon="-14.15227">
        <ele>190</ele>
        <time>2021-07-05 13:59:55</time>
      </trkpt>
      <trkpt lat="28.23584" lon="-14.15228">
        <ele>190</ele>
        <time>2021-07-05 13:59:56</time>
      </trkpt>
      <trkpt lat="28.23584" lon="-14.1523">
        <ele>190.2</ele>
        <time>2021-07-05 13:59:57</time>
      </trkpt>
      <trkpt lat="28.23585" lon="-14.15232">
        <ele>190.2</ele>
        <time>2021-07-05 13:59:58</time>
      </trkpt>
      <trkpt lat="28.23585" lon="-14.15234">
        <ele>190.6</ele>
        <time>2021-07-05 13:59:59</time>
      </trkpt>
      <trkpt lat="28.23586" lon="-14.15236">
        <ele>190.6</ele>
        <time>2021-07-05 14:00:00</time>
      </trkpt>
      <trkpt lat="28.23587" lon="-14.15238">
        <ele>191</ele>
        <time>2021-07-05 14:00:01</time>
      </trkpt>
      <trkpt lat="28.23588" lon="-14.15239">
        <ele>191.4</ele>
        <time>2021-07-05 14:00:02</time>
      </trkpt>
      <trkpt lat="28.23588" lon="-14.15241">
        <ele>191.4</ele>
        <time>2021-07-05 14:00:03</time>
      </trkpt>
      <trkpt lat="28.23588" lon="-14.15243">
        <ele>191.6</ele>
        <time>2021-07-05 14:00:04</time>
      </trkpt>
      <trkpt lat="28.23589" lon="-14.15245">
        <ele>191.8</ele>
        <time>2021-07-05 14:00:05</time>
      </trkpt>
      <trkpt lat="28.23589" lon="-14.15247">
        <ele>191.8</ele>
        <time>2021-07-05 14:00:06</time>
      </trkpt>
      <trkpt lat="28.2359" lon="-14.15249">
        <ele>192.2</ele>
        <time>2021-07-05 14:00:07</time>
      </trkpt>
      <trkpt lat="28.2359" lon="-14.15251">
        <ele>192.2</ele>
        <time>2021-07-05 14:00:08</time>
      </trkpt>
      <trkpt lat="28.23591" lon="-14.15253">
        <ele>192.6</ele>
        <time>2021-07-05 14:00:09</time>
      </trkpt>
      <trkpt lat="28.23591" lon="-14.15255">
        <ele>192.6</ele>
        <time>2021-07-05 14:00:10</time>
      </trkpt>
      <trkpt lat="28.23591" lon="-14.15257">
        <ele>192.8</ele>
        <time>2021-07-05 14:00:11</time>
      </trkpt>
      <trkpt lat="28.23592" lon="-14.15259">
        <ele>193</ele>
        <time>2021-07-05 14:00:12</time>
      </trkpt>
      <trkpt lat="28.23592" lon="-14.15261">
        <ele>193</ele>
        <time>2021-07-05 14:00:13</time>
      </trkpt>
      <trkpt lat="28.23593" lon="-14.15263">
        <ele>193.6</ele>
        <time>2021-07-05 14:00:14</time>
      </trkpt>
      <trkpt lat="28.23593" lon="-14.15265">
        <ele>193.6</ele>
        <time>2021-07-05 14:00:15</time>
      </trkpt>
      <trkpt lat="28.23594" lon="-14.15267">
        <ele>193.8</ele>
        <time>2021-07-05 14:00:16</time>
      </trkpt>
      <trkpt lat="28.23595" lon="-14.15269">
        <ele>194</ele>
        <time>2021-07-05 14:00:17</time>
      </trkpt>
      <trkpt lat="28.23595" lon="-14.15271">
        <ele>194</ele>
        <time>2021-07-05 14:00:18</time>
      </trkpt>
      <trkpt lat="28.23596" lon="-14.15273">
        <ele>194.2</ele>
        <time>2021-07-05 14:00:19</time>
      </trkpt>
      <trkpt lat="28.23596" lon="-14.15275">
        <ele>194.6</ele>
        <time>2021-07-05 14:00:20</time>
      </trkpt>
      <trkpt lat="28.23597" lon="-14.15276">
        <ele>194.8</ele>
        <time>2021-07-05 14:00:21</time>
      </trkpt>
      <trkpt lat="28.23597" lon="-14.15278">
        <ele>195.2</ele>
        <time>2021-07-05 14:00:22</time>
      </trkpt>
      <trkpt lat="28.23598" lon="-14.1528">
        <ele>195.2</ele>
        <time>2021-07-05 14:00:23</time>
      </trkpt>
      <trkpt lat="28.23598" lon="-14.15283">
        <ele>195.8</ele>
        <time>2021-07-05 14:00:24</time>
      </trkpt>
      <trkpt lat="28.23599" lon="-14.15285">
        <ele>195.8</ele>
        <time>2021-07-05 14:00:25</time>
      </trkpt>
      <trkpt lat="28.236" lon="-14.15287">
        <ele>195.8</ele>
        <time>2021-07-05 14:00:26</time>
      </trkpt>
      <trkpt lat="28.236" lon="-14.15289">
        <ele>196.2</ele>
        <time>2021-07-05 14:00:27</time>
      </trkpt>
      <trkpt lat="28.23601" lon="-14.15291">
        <ele>196.4</ele>
        <time>2021-07-05 14:00:28</time>
      </trkpt>
      <trkpt lat="28.23601" lon="-14.15293">
        <ele>196.6</ele>
        <time>2021-07-05 14:00:29</time>
      </trkpt>
      <trkpt lat="28.23602" lon="-14.15296">
        <ele>196.8</ele>
        <time>2021-07-05 14:00:30</time>
      </trkpt>
      <trkpt lat="28.23602" lon="-14.15298">
        <ele>197</ele>
        <time>2021-07-05 14:00:31</time>
      </trkpt>
      <trkpt lat="28.23603" lon="-14.153">
        <ele>197</ele>
        <time>2021-07-05 14:00:32</time>
      </trkpt>
      <trkpt lat="28.23603" lon="-14.15302">
        <ele>197.4</ele>
        <time>2021-07-05 14:00:33</time>
      </trkpt>
      <trkpt lat="28.23603" lon="-14.15304">
        <ele>197.4</ele>
        <time>2021-07-05 14:00:34</time>
      </trkpt>
      <trkpt lat="28.23604" lon="-14.15306">
        <ele>197.8</ele>
        <time>2021-07-05 14:00:35</time>
      </trkpt>
      <trkpt lat="28.23604" lon="-14.15308">
        <ele>198</ele>
        <time>2021-07-05 14:00:36</time>
      </trkpt>
      <trkpt lat="28.23605" lon="-14.1531">
        <ele>198.2</ele>
        <time>2021-07-05 14:00:37</time>
      </trkpt>
      <trkpt lat="28.23606" lon="-14.15312">
        <ele>198.2</ele>
        <time>2021-07-05 14:00:38</time>
      </trkpt>
      <trkpt lat="28.23606" lon="-14.15314">
        <ele>198.6</ele>
        <time>2021-07-05 14:00:39</time>
      </trkpt>
      <trkpt lat="28.23607" lon="-14.15316">
        <ele>198.6</ele>
        <time>2021-07-05 14:00:40</time>
      </trkpt>
      <trkpt lat="28.23607" lon="-14.15318">
        <ele>199</ele>
        <time>2021-07-05 14:00:41</time>
      </trkpt>
      <trkpt lat="28.23607" lon="-14.1532">
        <ele>199.2</ele>
        <time>2021-07-05 14:00:42</time>
      </trkpt>
      <trkpt lat="28.23608" lon="-14.15323">
        <ele>199.2</ele>
        <time>2021-07-05 14:00:43</time>
      </trkpt>
      <trkpt lat="28.23608" lon="-14.15325">
        <ele>199.8</ele>
        <time>2021-07-05 14:00:44</time>
      </trkpt>
      <trkpt lat="28.23609" lon="-14.15326">
        <ele>200</ele>
        <time>2021-07-05 14:00:45</time>
      </trkpt>
      <trkpt lat="28.23609" lon="-14.15328">
        <ele>200</ele>
        <time>2021-07-05 14:00:46</time>
      </trkpt>
      <trkpt lat="28.2361" lon="-14.15331">
        <ele>200.2</ele>
        <time>2021-07-05 14:00:47</time>
      </trkpt>
      <trkpt lat="28.2361" lon="-14.15332">
        <ele>200.4</ele>
        <time>2021-07-05 14:00:48</time>
      </trkpt>
      <trkpt lat="28.23611" lon="-14.15334">
        <ele>200.4</ele>
        <time>2021-07-05 14:00:49</time>
      </trkpt>
      <trkpt lat="28.23611" lon="-14.15336">
        <ele>201</ele>
        <time>2021-07-05 14:00:50</time>
      </trkpt>
      <trkpt lat="28.23612" lon="-14.15339">
        <ele>201</ele>
        <time>2021-07-05 14:00:51</time>
      </trkpt>
      <trkpt lat="28.23612" lon="-14.15341">
        <ele>201.4</ele>
        <time>2021-07-05 14:00:52</time>
      </trkpt>
      <trkpt lat="28.23612" lon="-14.15343">
        <ele>201.6</ele>
        <time>2021-07-05 14:00:53</time>
      </trkpt>
      <trkpt lat="28.23613" lon="-14.15345">
        <ele>202.2</ele>
        <time>2021-07-05 14:00:54</time>
      </trkpt>
      <trkpt lat="28.23613" lon="-14.15347">
        <ele>202.2</ele>
        <time>2021-07-05 14:00:55</time>
      </trkpt>
      <trkpt lat="28.23613" lon="-14.15349">
        <ele>202.4</ele>
        <time>2021-07-05 14:00:56</time>
      </trkpt>
      <trkpt lat="28.23614" lon="-14.15351">
        <ele>202.6</ele>
        <time>2021-07-05 14:00:57</time>
      </trkpt>
      <trkpt lat="28.23614" lon="-14.15353">
        <ele>202.8</ele>
        <time>2021-07-05 14:00:58</time>
      </trkpt>
      <trkpt lat="28.23615" lon="-14.15355">
        <ele>203</ele>
        <time>2021-07-05 14:00:59</time>
      </trkpt>
      <trkpt lat="28.23615" lon="-14.15357">
        <ele>203</ele>
        <time>2021-07-05 14:01:00</time>
      </trkpt>
      <trkpt lat="28.23616" lon="-14.15359">
        <ele>203.6</ele>
        <time>2021-07-05 14:01:01</time>
      </trkpt>
      <trkpt lat="28.23616" lon="-14.15361">
        <ele>203.8</ele>
        <time>2021-07-05 14:01:02</time>
      </trkpt>
      <trkpt lat="28.23616" lon="-14.15362">
        <ele>204</ele>
        <time>2021-07-05 14:01:03</time>
      </trkpt>
      <trkpt lat="28.23616" lon="-14.15364">
        <ele>204.4</ele>
        <time>2021-07-05 14:01:04</time>
      </trkpt>
      <trkpt lat="28.23617" lon="-14.15366">
        <ele>204.8</ele>
        <time>2021-07-05 14:01:05</time>
      </trkpt>
      <trkpt lat="28.23617" lon="-14.15368">
        <ele>204.8</ele>
        <time>2021-07-05 14:01:06</time>
      </trkpt>
      <trkpt lat="28.23617" lon="-14.1537">
        <ele>205</ele>
        <time>2021-07-05 14:01:07</time>
      </trkpt>
      <trkpt lat="28.23618" lon="-14.15372">
        <ele>205.4</ele>
        <time>2021-07-05 14:01:08</time>
      </trkpt>
      <trkpt lat="28.23618" lon="-14.15374">
        <ele>205.6</ele>
        <time>2021-07-05 14:01:09</time>
      </trkpt>
      <trkpt lat="28.23619" lon="-14.15375">
        <ele>205.8</ele>
        <time>2021-07-05 14:01:10</time>
      </trkpt>
      <trkpt lat="28.23619" lon="-14.15377">
        <ele>206.4</ele>
        <time>2021-07-05 14:01:11</time>
      </trkpt>
      <trkpt lat="28.2362" lon="-14.15379">
        <ele>206.4</ele>
        <time>2021-07-05 14:01:12</time>
      </trkpt>
      <trkpt lat="28.2362" lon="-14.15381">
        <ele>206.8</ele>
        <time>2021-07-05 14:01:13</time>
      </trkpt>
      <trkpt lat="28.2362" lon="-14.15384">
        <ele>207</ele>
        <time>2021-07-05 14:01:14</time>
      </trkpt>
      <trkpt lat="28.23621" lon="-14.15385">
        <ele>207.4</ele>
        <time>2021-07-05 14:01:15</time>
      </trkpt>
      <trkpt lat="28.23622" lon="-14.15387">
        <ele>207.6</ele>
        <time>2021-07-05 14:01:16</time>
      </trkpt>
      <trkpt lat="28.23622" lon="-14.15389">
        <ele>207.8</ele>
        <time>2021-07-05 14:01:17</time>
      </trkpt>
      <trkpt lat="28.23623" lon="-14.15391">
        <ele>208</ele>
        <time>2021-07-05 14:01:18</time>
      </trkpt>
      <trkpt lat="28.23623" lon="-14.15393">
        <ele>208.4</ele>
        <time>2021-07-05 14:01:19</time>
      </trkpt>
      <trkpt lat="28.23624" lon="-14.15395">
        <ele>208.6</ele>
        <time>2021-07-05 14:01:20</time>
      </trkpt>
      <trkpt lat="28.23624" lon="-14.15396">
        <ele>208.8</ele>
        <time>2021-07-05 14:01:21</time>
      </trkpt>
      <trkpt lat="28.23625" lon="-14.15398">
        <ele>208.8</ele>
        <time>2021-07-05 14:01:22</time>
      </trkpt>
      <trkpt lat="28.23625" lon="-14.154">
        <ele>209.6</ele>
        <time>2021-07-05 14:01:23</time>
      </trkpt>
      <trkpt lat="28.23626" lon="-14.15402">
        <ele>209.6</ele>
        <time>2021-07-05 14:01:24</time>
      </trkpt>
      <trkpt lat="28.23626" lon="-14.15404">
        <ele>210</ele>
        <time>2021-07-05 14:01:25</time>
      </trkpt>
      <trkpt lat="28.23626" lon="-14.15406">
        <ele>210.2</ele>
        <time>2021-07-05 14:01:26</time>
      </trkpt>
      <trkpt lat="28.23627" lon="-14.15408">
        <ele>210.6</ele>
        <time>2021-07-05 14:01:27</time>
      </trkpt>
      <trkpt lat="28.23627" lon="-14.15409">
        <ele>211</ele>
        <time>2021-07-05 14:01:28</time>
      </trkpt>
      <trkpt lat="28.23628" lon="-14.15411">
        <ele>211.2</ele>
        <time>2021-07-05 14:01:29</time>
      </trkpt>
      <trkpt lat="28.23628" lon="-14.15413">
        <ele>211.4</ele>
        <time>2021-07-05 14:01:30</time>
      </trkpt>
      <trkpt lat="28.23629" lon="-14.15415">
        <ele>211.8</ele>
        <time>2021-07-05 14:01:31</time>
      </trkpt>
      <trkpt lat="28.23629" lon="-14.15416">
        <ele>212</ele>
        <time>2021-07-05 14:01:32</time>
      </trkpt>
      <trkpt lat="28.23629" lon="-14.15418">
        <ele>212.2</ele>
        <time>2021-07-05 14:01:33</time>
      </trkpt>
      <trkpt lat="28.2363" lon="-14.1542">
        <ele>212.6</ele>
        <time>2021-07-05 14:01:34</time>
      </trkpt>
      <trkpt lat="28.2363" lon="-14.15422">
        <ele>212.8</ele>
        <time>2021-07-05 14:01:35</time>
      </trkpt>
      <trkpt lat="28.2363" lon="-14.15424">
        <ele>213</ele>
        <time>2021-07-05 14:01:36</time>
      </trkpt>
      <trkpt lat="28.23631" lon="-14.15426">
        <ele>213.2</ele>
        <time>2021-07-05 14:01:37</time>
      </trkpt>
      <trkpt lat="28.23631" lon="-14.15428">
        <ele>213.6</ele>
        <time>2021-07-05 14:01:38</time>
      </trkpt>
      <trkpt lat="28.23631" lon="-14.1543">
        <ele>213.6</ele>
        <time>2021-07-05 14:01:39</time>
      </trkpt>
      <trkpt lat="28.23632" lon="-14.15431">
        <ele>214</ele>
        <time>2021-07-05 14:01:40</time>
      </trkpt>
      <trkpt lat="28.23632" lon="-14.15433">
        <ele>214.2</ele>
        <time>2021-07-05 14:01:41</time>
      </trkpt>
      <trkpt lat="28.23633" lon="-14.15435">
        <ele>214.6</ele>
        <time>2021-07-05 14:01:42</time>
      </trkpt>
      <trkpt lat="28.23633" lon="-14.15437">
        <ele>214.6</ele>
        <time>2021-07-05 14:01:43</time>
      </trkpt>
      <trkpt lat="28.23634" lon="-14.15439">
        <ele>215</ele>
        <time>2021-07-05 14:01:44</time>
      </trkpt>
      <trkpt lat="28.23634" lon="-14.15441">
        <ele>215.2</ele>
        <time>2021-07-05 14:01:45</time>
      </trkpt>
      <trkpt lat="28.23635" lon="-14.15442">
        <ele>215.4</ele>
        <time>2021-07-05 14:01:46</time>
      </trkpt>
      <trkpt lat="28.23636" lon="-14.15444">
        <ele>215.4</ele>
        <time>2021-07-05 14:01:47</time>
      </trkpt>
      <trkpt lat="28.23636" lon="-14.15446">
        <ele>215.4</ele>
        <time>2021-07-05 14:01:48</time>
      </trkpt>
      <trkpt lat="28.23637" lon="-14.15447">
        <ele>215.8</ele>
        <time>2021-07-05 14:01:49</time>
      </trkpt>
      <trkpt lat="28.23638" lon="-14.15449">
        <ele>215.8</ele>
        <time>2021-07-05 14:01:50</time>
      </trkpt>
      <trkpt lat="28.23638" lon="-14.15451">
        <ele>216.2</ele>
        <time>2021-07-05 14:01:51</time>
      </trkpt>
      <trkpt lat="28.23639" lon="-14.15452">
        <ele>216.2</ele>
        <time>2021-07-05 14:01:52</time>
      </trkpt>
      <trkpt lat="28.2364" lon="-14.15454">
        <ele>216.4</ele>
        <time>2021-07-05 14:01:53</time>
      </trkpt>
      <trkpt lat="28.23641" lon="-14.15455">
        <ele>216.4</ele>
        <time>2021-07-05 14:01:54</time>
      </trkpt>
      <trkpt lat="28.23643" lon="-14.15456">
        <ele>216.8</ele>
        <time>2021-07-05 14:01:55</time>
      </trkpt>
      <trkpt lat="28.23644" lon="-14.15456">
        <ele>216.8</ele>
        <time>2021-07-05 14:01:56</time>
      </trkpt>
      <trkpt lat="28.23646" lon="-14.15457">
        <ele>216.8</ele>
        <time>2021-07-05 14:01:57</time>
      </trkpt>
      <trkpt lat="28.23647" lon="-14.15458">
        <ele>217</ele>
        <time>2021-07-05 14:01:58</time>
      </trkpt>
      <trkpt lat="28.23648" lon="-14.15459">
        <ele>217</ele>
        <time>2021-07-05 14:01:59</time>
      </trkpt>
      <trkpt lat="28.23649" lon="-14.1546">
        <ele>217</ele>
        <time>2021-07-05 14:02:00</time>
      </trkpt>
      <trkpt lat="28.23651" lon="-14.15461">
        <ele>217.2</ele>
        <time>2021-07-05 14:02:01</time>
      </trkpt>
      <trkpt lat="28.23652" lon="-14.15463">
        <ele>217.2</ele>
        <time>2021-07-05 14:02:02</time>
      </trkpt>
      <trkpt lat="28.23653" lon="-14.15464">
        <ele>217.4</ele>
        <time>2021-07-05 14:02:03</time>
      </trkpt>
      <trkpt lat="28.23654" lon="-14.15465">
        <ele>217.4</ele>
        <time>2021-07-05 14:02:04</time>
      </trkpt>
      <trkpt lat="28.23655" lon="-14.15466">
        <ele>217.8</ele>
        <time>2021-07-05 14:02:05</time>
      </trkpt>
      <trkpt lat="28.23657" lon="-14.15467">
        <ele>218.2</ele>
        <time>2021-07-05 14:02:06</time>
      </trkpt>
      <trkpt lat="28.23658" lon="-14.15468">
        <ele>218.4</ele>
        <time>2021-07-05 14:02:07</time>
      </trkpt>
      <trkpt lat="28.23659" lon="-14.15469">
        <ele>218.6</ele>
        <time>2021-07-05 14:02:08</time>
      </trkpt>
      <trkpt lat="28.2366" lon="-14.1547">
        <ele>219</ele>
        <time>2021-07-05 14:02:09</time>
      </trkpt>
      <trkpt lat="28.23662" lon="-14.1547">
        <ele>219.4</ele>
        <time>2021-07-05 14:02:10</time>
      </trkpt>
      <trkpt lat="28.23663" lon="-14.15472">
        <ele>219.8</ele>
        <time>2021-07-05 14:02:11</time>
      </trkpt>
      <trkpt lat="28.23664" lon="-14.15473">
        <ele>220.2</ele>
        <time>2021-07-05 14:02:12</time>
      </trkpt>
      <trkpt lat="28.23665" lon="-14.15474">
        <ele>220.6</ele>
        <time>2021-07-05 14:02:13</time>
      </trkpt>
      <trkpt lat="28.23666" lon="-14.15475">
        <ele>221.2</ele>
        <time>2021-07-05 14:02:14</time>
      </trkpt>
      <trkpt lat="28.23667" lon="-14.15476">
        <ele>221.6</ele>
        <time>2021-07-05 14:02:15</time>
      </trkpt>
      <trkpt lat="28.23669" lon="-14.15477">
        <ele>221.6</ele>
        <time>2021-07-05 14:02:16</time>
      </trkpt>
      <trkpt lat="28.23671" lon="-14.15478">
        <ele>222</ele>
        <time>2021-07-05 14:02:17</time>
      </trkpt>
      <trkpt lat="28.23672" lon="-14.15479">
        <ele>222.2</ele>
        <time>2021-07-05 14:02:18</time>
      </trkpt>
      <trkpt lat="28.23673" lon="-14.1548">
        <ele>222.4</ele>
        <time>2021-07-05 14:02:19</time>
      </trkpt>
      <trkpt lat="28.23674" lon="-14.15481">
        <ele>222.4</ele>
        <time>2021-07-05 14:02:20</time>
      </trkpt>
      <trkpt lat="28.23676" lon="-14.15482">
        <ele>222.8</ele>
        <time>2021-07-05 14:02:21</time>
      </trkpt>
      <trkpt lat="28.23677" lon="-14.15483">
        <ele>223</ele>
        <time>2021-07-05 14:02:22</time>
      </trkpt>
      <trkpt lat="28.23678" lon="-14.15484">
        <ele>223</ele>
        <time>2021-07-05 14:02:23</time>
      </trkpt>
      <trkpt lat="28.23679" lon="-14.15485">
        <ele>223.4</ele>
        <time>2021-07-05 14:02:24</time>
      </trkpt>
      <trkpt lat="28.23681" lon="-14.15486">
        <ele>223.4</ele>
        <time>2021-07-05 14:02:25</time>
      </trkpt>
      <trkpt lat="28.23682" lon="-14.15487">
        <ele>223.8</ele>
        <time>2021-07-05 14:02:26</time>
      </trkpt>
      <trkpt lat="28.23683" lon="-14.15488">
        <ele>223.8</ele>
        <time>2021-07-05 14:02:27</time>
      </trkpt>
      <trkpt lat="28.23684" lon="-14.15489">
        <ele>224</ele>
        <time>2021-07-05 14:02:28</time>
      </trkpt>
      <trkpt lat="28.23686" lon="-14.1549">
        <ele>224</ele>
        <time>2021-07-05 14:02:29</time>
      </trkpt>
      <trkpt lat="28.23687" lon="-14.15491">
        <ele>223.8</ele>
        <time>2021-07-05 14:02:30</time>
      </trkpt>
      <trkpt lat="28.23688" lon="-14.15492">
        <ele>224.2</ele>
        <time>2021-07-05 14:02:31</time>
      </trkpt>
      <trkpt lat="28.2369" lon="-14.15492">
        <ele>224.4</ele>
        <time>2021-07-05 14:02:32</time>
      </trkpt>
      <trkpt lat="28.23691" lon="-14.15493">
        <ele>225</ele>
        <time>2021-07-05 14:02:33</time>
      </trkpt>
      <trkpt lat="28.23693" lon="-14.15494">
        <ele>225</ele>
        <time>2021-07-05 14:02:34</time>
      </trkpt>
      <trkpt lat="28.23694" lon="-14.15495">
        <ele>225.4</ele>
        <time>2021-07-05 14:02:35</time>
      </trkpt>
      <trkpt lat="28.23695" lon="-14.15496">
        <ele>225.6</ele>
        <time>2021-07-05 14:02:36</time>
      </trkpt>
      <trkpt lat="28.23696" lon="-14.15497">
        <ele>226.2</ele>
        <time>2021-07-05 14:02:37</time>
      </trkpt>
      <trkpt lat="28.23697" lon="-14.15498">
        <ele>226.2</ele>
        <time>2021-07-05 14:02:38</time>
      </trkpt>
      <trkpt lat="28.23699" lon="-14.15499">
        <ele>226.4</ele>
        <time>2021-07-05 14:02:39</time>
      </trkpt>
      <trkpt lat="28.237" lon="-14.155">
        <ele>226.4</ele>
        <time>2021-07-05 14:02:40</time>
      </trkpt>
      <trkpt lat="28.23701" lon="-14.15501">
        <ele>227</ele>
        <time>2021-07-05 14:02:41</time>
      </trkpt>
      <trkpt lat="28.23702" lon="-14.15501">
        <ele>227.4</ele>
        <time>2021-07-05 14:02:42</time>
      </trkpt>
      <trkpt lat="28.23703" lon="-14.15502">
        <ele>227.4</ele>
        <time>2021-07-05 14:02:43</time>
      </trkpt>
      <trkpt lat="28.23705" lon="-14.15503">
        <ele>227.4</ele>
        <time>2021-07-05 14:02:44</time>
      </trkpt>
      <trkpt lat="28.23706" lon="-14.15504">
        <ele>227.8</ele>
        <time>2021-07-05 14:02:45</time>
      </trkpt>
      <trkpt lat="28.23707" lon="-14.15505">
        <ele>227.8</ele>
        <time>2021-07-05 14:02:46</time>
      </trkpt>
      <trkpt lat="28.23709" lon="-14.15506">
        <ele>228.2</ele>
        <time>2021-07-05 14:02:47</time>
      </trkpt>
      <trkpt lat="28.2371" lon="-14.15507">
        <ele>228.2</ele>
        <time>2021-07-05 14:02:48</time>
      </trkpt>
      <trkpt lat="28.23711" lon="-14.15508">
        <ele>228.4</ele>
        <time>2021-07-05 14:02:49</time>
      </trkpt>
      <trkpt lat="28.23712" lon="-14.15508">
        <ele>228.4</ele>
        <time>2021-07-05 14:02:50</time>
      </trkpt>
      <trkpt lat="28.23713" lon="-14.15509">
        <ele>228.8</ele>
        <time>2021-07-05 14:02:51</time>
      </trkpt>
      <trkpt lat="28.23714" lon="-14.15511">
        <ele>228.8</ele>
        <time>2021-07-05 14:02:52</time>
      </trkpt>
      <trkpt lat="28.23716" lon="-14.15512">
        <ele>229.2</ele>
        <time>2021-07-05 14:02:53</time>
      </trkpt>
      <trkpt lat="28.23717" lon="-14.15513">
        <ele>229.4</ele>
        <time>2021-07-05 14:02:54</time>
      </trkpt>
      <trkpt lat="28.23718" lon="-14.15514">
        <ele>229.4</ele>
        <time>2021-07-05 14:02:55</time>
      </trkpt>
      <trkpt lat="28.2372" lon="-14.15514">
        <ele>229.6</ele>
        <time>2021-07-05 14:02:56</time>
      </trkpt>
      <trkpt lat="28.23721" lon="-14.15515">
        <ele>229.6</ele>
        <time>2021-07-05 14:02:57</time>
      </trkpt>
      <trkpt lat="28.23723" lon="-14.15516">
        <ele>230</ele>
        <time>2021-07-05 14:02:58</time>
      </trkpt>
      <trkpt lat="28.23724" lon="-14.15517">
        <ele>230</ele>
        <time>2021-07-05 14:02:59</time>
      </trkpt>
      <trkpt lat="28.23725" lon="-14.15518">
        <ele>230.4</ele>
        <time>2021-07-05 14:03:00</time>
      </trkpt>
      <trkpt lat="28.23726" lon="-14.15519">
        <ele>230.4</ele>
        <time>2021-07-05 14:03:01</time>
      </trkpt>
      <trkpt lat="28.23728" lon="-14.1552">
        <ele>230.8</ele>
        <time>2021-07-05 14:03:02</time>
      </trkpt>
      <trkpt lat="28.23729" lon="-14.15521">
        <ele>231.2</ele>
        <time>2021-07-05 14:03:03</time>
      </trkpt>
      <trkpt lat="28.2373" lon="-14.15523">
        <ele>231.2</ele>
        <time>2021-07-05 14:03:04</time>
      </trkpt>
      <trkpt lat="28.23731" lon="-14.15524">
        <ele>231.4</ele>
        <time>2021-07-05 14:03:05</time>
      </trkpt>
      <trkpt lat="28.23733" lon="-14.15525">
        <ele>231.6</ele>
        <time>2021-07-05 14:03:06</time>
      </trkpt>
      <trkpt lat="28.23734" lon="-14.15526">
        <ele>231.6</ele>
        <time>2021-07-05 14:03:07</time>
      </trkpt>
      <trkpt lat="28.23735" lon="-14.15527">
        <ele>232.2</ele>
        <time>2021-07-05 14:03:08</time>
      </trkpt>
      <trkpt lat="28.23736" lon="-14.15528">
        <ele>232.4</ele>
        <time>2021-07-05 14:03:09</time>
      </trkpt>
      <trkpt lat="28.23737" lon="-14.15529">
        <ele>232.6</ele>
        <time>2021-07-05 14:03:10</time>
      </trkpt>
      <trkpt lat="28.23738" lon="-14.1553">
        <ele>232.6</ele>
        <time>2021-07-05 14:03:11</time>
      </trkpt>
      <trkpt lat="28.23739" lon="-14.15531">
        <ele>233</ele>
        <time>2021-07-05 14:03:12</time>
      </trkpt>
      <trkpt lat="28.2374" lon="-14.15532">
        <ele>233</ele>
        <time>2021-07-05 14:03:13</time>
      </trkpt>
      <trkpt lat="28.23741" lon="-14.15533">
        <ele>233.2</ele>
        <time>2021-07-05 14:03:14</time>
      </trkpt>
      <trkpt lat="28.23743" lon="-14.15533">
        <ele>233.6</ele>
        <time>2021-07-05 14:03:15</time>
      </trkpt>
      <trkpt lat="28.23744" lon="-14.15534">
        <ele>233.6</ele>
        <time>2021-07-05 14:03:16</time>
      </trkpt>
      <trkpt lat="28.23745" lon="-14.15535">
        <ele>233.6</ele>
        <time>2021-07-05 14:03:17</time>
      </trkpt>
      <trkpt lat="28.23746" lon="-14.15535">
        <ele>233.8</ele>
        <time>2021-07-05 14:03:18</time>
      </trkpt>
      <trkpt lat="28.23747" lon="-14.15536">
        <ele>234.2</ele>
        <time>2021-07-05 14:03:19</time>
      </trkpt>
      <trkpt lat="28.23748" lon="-14.15537">
        <ele>234.2</ele>
        <time>2021-07-05 14:03:20</time>
      </trkpt>
      <trkpt lat="28.2375" lon="-14.15538">
        <ele>234.2</ele>
        <time>2021-07-05 14:03:21</time>
      </trkpt>
      <trkpt lat="28.23751" lon="-14.1554">
        <ele>234.4</ele>
        <time>2021-07-05 14:03:22</time>
      </trkpt>
      <trkpt lat="28.23752" lon="-14.1554">
        <ele>234.4</ele>
        <time>2021-07-05 14:03:23</time>
      </trkpt>
      <trkpt lat="28.23753" lon="-14.15541">
        <ele>234.8</ele>
        <time>2021-07-05 14:03:24</time>
      </trkpt>
      <trkpt lat="28.23755" lon="-14.15542">
        <ele>234.8</ele>
        <time>2021-07-05 14:03:25</time>
      </trkpt>
      <trkpt lat="28.23757" lon="-14.15543">
        <ele>235</ele>
        <time>2021-07-05 14:03:26</time>
      </trkpt>
      <trkpt lat="28.23758" lon="-14.15544">
        <ele>235</ele>
        <time>2021-07-05 14:03:27</time>
      </trkpt>
      <trkpt lat="28.2376" lon="-14.15545">
        <ele>235.2</ele>
        <time>2021-07-05 14:03:28</time>
      </trkpt>
      <trkpt lat="28.23761" lon="-14.15546">
        <ele>235.6</ele>
        <time>2021-07-05 14:03:29</time>
      </trkpt>
      <trkpt lat="28.23762" lon="-14.15547">
        <ele>235.8</ele>
        <time>2021-07-05 14:03:30</time>
      </trkpt>
      <trkpt lat="28.23763" lon="-14.15549">
        <ele>235.8</ele>
        <time>2021-07-05 14:03:31</time>
      </trkpt>
      <trkpt lat="28.23765" lon="-14.1555">
        <ele>236</ele>
        <time>2021-07-05 14:03:32</time>
      </trkpt>
      <trkpt lat="28.23766" lon="-14.15551">
        <ele>236</ele>
        <time>2021-07-05 14:03:33</time>
      </trkpt>
      <trkpt lat="28.23767" lon="-14.15553">
        <ele>236.2</ele>
        <time>2021-07-05 14:03:34</time>
      </trkpt>
      <trkpt lat="28.23768" lon="-14.15554">
        <ele>236.2</ele>
        <time>2021-07-05 14:03:35</time>
      </trkpt>
      <trkpt lat="28.2377" lon="-14.15555">
        <ele>236.2</ele>
        <time>2021-07-05 14:03:36</time>
      </trkpt>
      <trkpt lat="28.23771" lon="-14.15556">
        <ele>236.6</ele>
        <time>2021-07-05 14:03:37</time>
      </trkpt>
      <trkpt lat="28.23772" lon="-14.15558">
        <ele>236.6</ele>
        <time>2021-07-05 14:03:38</time>
      </trkpt>
      <trkpt lat="28.23774" lon="-14.15559">
        <ele>236.8</ele>
        <time>2021-07-05 14:03:39</time>
      </trkpt>
      <trkpt lat="28.23775" lon="-14.15561">
        <ele>236.8</ele>
        <time>2021-07-05 14:03:40</time>
      </trkpt>
      <trkpt lat="28.23776" lon="-14.15562">
        <ele>237.2</ele>
        <time>2021-07-05 14:03:41</time>
      </trkpt>
      <trkpt lat="28.23777" lon="-14.15564">
        <ele>237.4</ele>
        <time>2021-07-05 14:03:42</time>
      </trkpt>
      <trkpt lat="28.23778" lon="-14.15566">
        <ele>237.4</ele>
        <time>2021-07-05 14:03:43</time>
      </trkpt>
      <trkpt lat="28.23779" lon="-14.15568">
        <ele>237.8</ele>
        <time>2021-07-05 14:03:44</time>
      </trkpt>
      <trkpt lat="28.2378" lon="-14.1557">
        <ele>237.8</ele>
        <time>2021-07-05 14:03:45</time>
      </trkpt>
      <trkpt lat="28.23781" lon="-14.15572">
        <ele>238</ele>
        <time>2021-07-05 14:03:46</time>
      </trkpt>
      <trkpt lat="28.23781" lon="-14.15575">
        <ele>238</ele>
        <time>2021-07-05 14:03:47</time>
      </trkpt>
      <trkpt lat="28.23783" lon="-14.15577">
        <ele>238.4</ele>
        <time>2021-07-05 14:03:48</time>
      </trkpt>
      <trkpt lat="28.23783" lon="-14.15579">
        <ele>238.6</ele>
        <time>2021-07-05 14:03:49</time>
      </trkpt>
      <trkpt lat="28.23784" lon="-14.15581">
        <ele>238.6</ele>
        <time>2021-07-05 14:03:50</time>
      </trkpt>
      <trkpt lat="28.23785" lon="-14.15583">
        <ele>239</ele>
        <time>2021-07-05 14:03:51</time>
      </trkpt>
      <trkpt lat="28.23786" lon="-14.15586">
        <ele>239</ele>
        <time>2021-07-05 14:03:52</time>
      </trkpt>
      <trkpt lat="28.23786" lon="-14.15589">
        <ele>239.2</ele>
        <time>2021-07-05 14:03:53</time>
      </trkpt>
      <trkpt lat="28.23787" lon="-14.15591">
        <ele>239.2</ele>
        <time>2021-07-05 14:03:54</time>
      </trkpt>
      <trkpt lat="28.23787" lon="-14.15594">
        <ele>239.2</ele>
        <time>2021-07-05 14:03:55</time>
      </trkpt>
      <trkpt lat="28.23788" lon="-14.15597">
        <ele>239.2</ele>
        <time>2021-07-05 14:03:56</time>
      </trkpt>
      <trkpt lat="28.23788" lon="-14.15599">
        <ele>239.2</ele>
        <time>2021-07-05 14:03:57</time>
      </trkpt>
      <trkpt lat="28.23789" lon="-14.15601">
        <ele>239.2</ele>
        <time>2021-07-05 14:03:58</time>
      </trkpt>
      <trkpt lat="28.23789" lon="-14.15604">
        <ele>239.2</ele>
        <time>2021-07-05 14:03:59</time>
      </trkpt>
      <trkpt lat="28.23788" lon="-14.15607">
        <ele>239.2</ele>
        <time>2021-07-05 14:04:00</time>
      </trkpt>
      <trkpt lat="28.23789" lon="-14.15611">
        <ele>239.2</ele>
        <time>2021-07-05 14:04:01</time>
      </trkpt>
      <trkpt lat="28.23789" lon="-14.15615">
        <ele>239</ele>
        <time>2021-07-05 14:04:02</time>
      </trkpt>
      <trkpt lat="28.23789" lon="-14.15619">
        <ele>239</ele>
        <time>2021-07-05 14:04:03</time>
      </trkpt>
      <trkpt lat="28.23789" lon="-14.15624">
        <ele>239</ele>
        <time>2021-07-05 14:04:04</time>
      </trkpt>
      <trkpt lat="28.23789" lon="-14.1563">
        <ele>238.6</ele>
        <time>2021-07-05 14:04:05</time>
      </trkpt>
      <trkpt lat="28.23788" lon="-14.15635">
        <ele>238.6</ele>
        <time>2021-07-05 14:04:06</time>
      </trkpt>
      <trkpt lat="28.23787" lon="-14.15641">
        <ele>238.4</ele>
        <time>2021-07-05 14:04:07</time>
      </trkpt>
      <trkpt lat="28.23787" lon="-14.15647">
        <ele>238.2</ele>
        <time>2021-07-05 14:04:08</time>
      </trkpt>
      <trkpt lat="28.23786" lon="-14.15652">
        <ele>237.8</ele>
        <time>2021-07-05 14:04:09</time>
      </trkpt>
      <trkpt lat="28.23785" lon="-14.15659">
        <ele>237.8</ele>
        <time>2021-07-05 14:04:10</time>
      </trkpt>
      <trkpt lat="28.23784" lon="-14.15665">
        <ele>237.8</ele>
        <time>2021-07-05 14:04:11</time>
      </trkpt>
      <trkpt lat="28.23783" lon="-14.1567">
        <ele>237.8</ele>
        <time>2021-07-05 14:04:12</time>
      </trkpt>
      <trkpt lat="28.23783" lon="-14.15676">
        <ele>237.8</ele>
        <time>2021-07-05 14:04:13</time>
      </trkpt>
      <trkpt lat="28.23781" lon="-14.15681">
        <ele>237.8</ele>
        <time>2021-07-05 14:04:14</time>
      </trkpt>
      <trkpt lat="28.2378" lon="-14.15685">
        <ele>237.8</ele>
        <time>2021-07-05 14:04:15</time>
      </trkpt>
      <trkpt lat="28.23779" lon="-14.1569">
        <ele>237.8</ele>
        <time>2021-07-05 14:04:16</time>
      </trkpt>
      <trkpt lat="28.23777" lon="-14.15694">
        <ele>238</ele>
        <time>2021-07-05 14:04:17</time>
      </trkpt>
      <trkpt lat="28.23776" lon="-14.15698">
        <ele>238</ele>
        <time>2021-07-05 14:04:18</time>
      </trkpt>
      <trkpt lat="28.23774" lon="-14.15702">
        <ele>238</ele>
        <time>2021-07-05 14:04:19</time>
      </trkpt>
      <trkpt lat="28.23772" lon="-14.15706">
        <ele>238.2</ele>
        <time>2021-07-05 14:04:20</time>
      </trkpt>
      <trkpt lat="28.2377" lon="-14.1571">
        <ele>238.2</ele>
        <time>2021-07-05 14:04:21</time>
      </trkpt>
      <trkpt lat="28.23768" lon="-14.15713">
        <ele>238.6</ele>
        <time>2021-07-05 14:04:22</time>
      </trkpt>
      <trkpt lat="28.23766" lon="-14.15717">
        <ele>238.6</ele>
        <time>2021-07-05 14:04:23</time>
      </trkpt>
      <trkpt lat="28.23764" lon="-14.1572">
        <ele>239.2</ele>
        <time>2021-07-05 14:04:24</time>
      </trkpt>
      <trkpt lat="28.23762" lon="-14.15723">
        <ele>239.4</ele>
        <time>2021-07-05 14:04:25</time>
      </trkpt>
      <trkpt lat="28.2376" lon="-14.15726">
        <ele>239.4</ele>
        <time>2021-07-05 14:04:26</time>
      </trkpt>
      <trkpt lat="28.23758" lon="-14.15729">
        <ele>239.4</ele>
        <time>2021-07-05 14:04:27</time>
      </trkpt>
      <trkpt lat="28.23756" lon="-14.15732">
        <ele>239.8</ele>
        <time>2021-07-05 14:04:28</time>
      </trkpt>
      <trkpt lat="28.23755" lon="-14.15735">
        <ele>240.2</ele>
        <time>2021-07-05 14:04:29</time>
      </trkpt>
      <trkpt lat="28.23753" lon="-14.15738">
        <ele>240.2</ele>
        <time>2021-07-05 14:04:30</time>
      </trkpt>
      <trkpt lat="28.23752" lon="-14.15742">
        <ele>240.2</ele>
        <time>2021-07-05 14:04:31</time>
      </trkpt>
      <trkpt lat="28.23751" lon="-14.15745">
        <ele>240.4</ele>
        <time>2021-07-05 14:04:32</time>
      </trkpt>
      <trkpt lat="28.2375" lon="-14.15749">
        <ele>240.6</ele>
        <time>2021-07-05 14:04:33</time>
      </trkpt>
      <trkpt lat="28.2375" lon="-14.15752">
        <ele>240.6</ele>
        <time>2021-07-05 14:04:34</time>
      </trkpt>
      <trkpt lat="28.23749" lon="-14.15756">
        <ele>240.6</ele>
        <time>2021-07-05 14:04:35</time>
      </trkpt>
      <trkpt lat="28.23749" lon="-14.1576">
        <ele>241</ele>
        <time>2021-07-05 14:04:36</time>
      </trkpt>
      <trkpt lat="28.23748" lon="-14.15764">
        <ele>241</ele>
        <time>2021-07-05 14:04:37</time>
      </trkpt>
      <trkpt lat="28.23748" lon="-14.15768">
        <ele>241</ele>
        <time>2021-07-05 14:04:38</time>
      </trkpt>
      <trkpt lat="28.23748" lon="-14.15772">
        <ele>241.2</ele>
        <time>2021-07-05 14:04:39</time>
      </trkpt>
      <trkpt lat="28.23747" lon="-14.15776">
        <ele>241.2</ele>
        <time>2021-07-05 14:04:40</time>
      </trkpt>
      <trkpt lat="28.23746" lon="-14.1578">
        <ele>241.2</ele>
        <time>2021-07-05 14:04:41</time>
      </trkpt>
      <trkpt lat="28.23746" lon="-14.15784">
        <ele>241.4</ele>
        <time>2021-07-05 14:04:42</time>
      </trkpt>
      <trkpt lat="28.23745" lon="-14.15788">
        <ele>241.4</ele>
        <time>2021-07-05 14:04:43</time>
      </trkpt>
      <trkpt lat="28.23744" lon="-14.15792">
        <ele>241.4</ele>
        <time>2021-07-05 14:04:44</time>
      </trkpt>
      <trkpt lat="28.23744" lon="-14.15796">
        <ele>241.4</ele>
        <time>2021-07-05 14:04:45</time>
      </trkpt>
      <trkpt lat="28.23744" lon="-14.158">
        <ele>241.4</ele>
        <time>2021-07-05 14:04:46</time>
      </trkpt>
      <trkpt lat="28.23743" lon="-14.15803">
        <ele>241.4</ele>
        <time>2021-07-05 14:04:47</time>
      </trkpt>
      <trkpt lat="28.23743" lon="-14.15807">
        <ele>241.6</ele>
        <time>2021-07-05 14:04:48</time>
      </trkpt>
      <trkpt lat="28.23742" lon="-14.1581">
        <ele>242</ele>
        <time>2021-07-05 14:04:49</time>
      </trkpt>
      <trkpt lat="28.23742" lon="-14.15814">
        <ele>242</ele>
        <time>2021-07-05 14:04:50</time>
      </trkpt>
      <trkpt lat="28.23741" lon="-14.15817">
        <ele>242</ele>
        <time>2021-07-05 14:04:51</time>
      </trkpt>
      <trkpt lat="28.2374" lon="-14.1582">
        <ele>242.4</ele>
        <time>2021-07-05 14:04:52</time>
      </trkpt>
      <trkpt lat="28.2374" lon="-14.15823">
        <ele>242.6</ele>
        <time>2021-07-05 14:04:53</time>
      </trkpt>
      <trkpt lat="28.23739" lon="-14.15826">
        <ele>242.8</ele>
        <time>2021-07-05 14:04:54</time>
      </trkpt>
      <trkpt lat="28.23738" lon="-14.15829">
        <ele>242.8</ele>
        <time>2021-07-05 14:04:55</time>
      </trkpt>
      <trkpt lat="28.23738" lon="-14.15832">
        <ele>243.6</ele>
        <time>2021-07-05 14:04:56</time>
      </trkpt>
      <trkpt lat="28.23737" lon="-14.15835">
        <ele>243.6</ele>
        <time>2021-07-05 14:04:57</time>
      </trkpt>
      <trkpt lat="28.23736" lon="-14.15838">
        <ele>243.8</ele>
        <time>2021-07-05 14:04:58</time>
      </trkpt>
      <trkpt lat="28.23735" lon="-14.15841">
        <ele>244</ele>
        <time>2021-07-05 14:04:59</time>
      </trkpt>
      <trkpt lat="28.23734" lon="-14.15844">
        <ele>244.4</ele>
        <time>2021-07-05 14:05:00</time>
      </trkpt>
      <trkpt lat="28.23734" lon="-14.15846">
        <ele>244.6</ele>
        <time>2021-07-05 14:05:01</time>
      </trkpt>
      <trkpt lat="28.23733" lon="-14.15849">
        <ele>244.6</ele>
        <time>2021-07-05 14:05:02</time>
      </trkpt>
      <trkpt lat="28.23733" lon="-14.15852">
        <ele>244.8</ele>
        <time>2021-07-05 14:05:03</time>
      </trkpt>
      <trkpt lat="28.23732" lon="-14.15855">
        <ele>244.8</ele>
        <time>2021-07-05 14:05:04</time>
      </trkpt>
      <trkpt lat="28.23732" lon="-14.15858">
        <ele>245.2</ele>
        <time>2021-07-05 14:05:05</time>
      </trkpt>
      <trkpt lat="28.23731" lon="-14.15861">
        <ele>245.2</ele>
        <time>2021-07-05 14:05:06</time>
      </trkpt>
      <trkpt lat="28.23731" lon="-14.15864">
        <ele>245.4</ele>
        <time>2021-07-05 14:05:07</time>
      </trkpt>
      <trkpt lat="28.23731" lon="-14.15867">
        <ele>245.4</ele>
        <time>2021-07-05 14:05:08</time>
      </trkpt>
      <trkpt lat="28.2373" lon="-14.1587">
        <ele>245.8</ele>
        <time>2021-07-05 14:05:09</time>
      </trkpt>
      <trkpt lat="28.2373" lon="-14.15873">
        <ele>245.8</ele>
        <time>2021-07-05 14:05:10</time>
      </trkpt>
      <trkpt lat="28.2373" lon="-14.15876">
        <ele>246.2</ele>
        <time>2021-07-05 14:05:11</time>
      </trkpt>
      <trkpt lat="28.2373" lon="-14.15879">
        <ele>246.2</ele>
        <time>2021-07-05 14:05:12</time>
      </trkpt>
      <trkpt lat="28.2373" lon="-14.15882">
        <ele>246.4</ele>
        <time>2021-07-05 14:05:13</time>
      </trkpt>
      <trkpt lat="28.2373" lon="-14.15885">
        <ele>246.4</ele>
        <time>2021-07-05 14:05:14</time>
      </trkpt>
      <trkpt lat="28.2373" lon="-14.15889">
        <ele>246.4</ele>
        <time>2021-07-05 14:05:15</time>
      </trkpt>
      <trkpt lat="28.2373" lon="-14.15892">
        <ele>246.4</ele>
        <time>2021-07-05 14:05:16</time>
      </trkpt>
      <trkpt lat="28.2373" lon="-14.15895">
        <ele>246.4</ele>
        <time>2021-07-05 14:05:17</time>
      </trkpt>
      <trkpt lat="28.2373" lon="-14.15899">
        <ele>246.6</ele>
        <time>2021-07-05 14:05:18</time>
      </trkpt>
      <trkpt lat="28.2373" lon="-14.15902">
        <ele>246.6</ele>
        <time>2021-07-05 14:05:19</time>
      </trkpt>
      <trkpt lat="28.2373" lon="-14.15905">
        <ele>247</ele>
        <time>2021-07-05 14:05:20</time>
      </trkpt>
      <trkpt lat="28.2373" lon="-14.15908">
        <ele>247</ele>
        <time>2021-07-05 14:05:21</time>
      </trkpt>
      <trkpt lat="28.2373" lon="-14.15911">
        <ele>247.2</ele>
        <time>2021-07-05 14:05:22</time>
      </trkpt>
      <trkpt lat="28.2373" lon="-14.15914">
        <ele>247.2</ele>
        <time>2021-07-05 14:05:23</time>
      </trkpt>
      <trkpt lat="28.2373" lon="-14.15917">
        <ele>247.6</ele>
        <time>2021-07-05 14:05:24</time>
      </trkpt>
      <trkpt lat="28.2373" lon="-14.1592">
        <ele>248</ele>
        <time>2021-07-05 14:05:25</time>
      </trkpt>
      <trkpt lat="28.2373" lon="-14.15923">
        <ele>248</ele>
        <time>2021-07-05 14:05:26</time>
      </trkpt>
      <trkpt lat="28.2373" lon="-14.15926">
        <ele>248.2</ele>
        <time>2021-07-05 14:05:27</time>
      </trkpt>
      <trkpt lat="28.2373" lon="-14.15928">
        <ele>248.2</ele>
        <time>2021-07-05 14:05:28</time>
      </trkpt>
      <trkpt lat="28.2373" lon="-14.15931">
        <ele>248.6</ele>
        <time>2021-07-05 14:05:29</time>
      </trkpt>
      <trkpt lat="28.23729" lon="-14.15933">
        <ele>249</ele>
        <time>2021-07-05 14:05:30</time>
      </trkpt>
      <trkpt lat="28.2373" lon="-14.15936">
        <ele>249.2</ele>
        <time>2021-07-05 14:05:31</time>
      </trkpt>
      <trkpt lat="28.2373" lon="-14.15938">
        <ele>249.6</ele>
        <time>2021-07-05 14:05:32</time>
      </trkpt>
      <trkpt lat="28.2373" lon="-14.1594">
        <ele>250.2</ele>
        <time>2021-07-05 14:05:33</time>
      </trkpt>
      <trkpt lat="28.2373" lon="-14.15943">
        <ele>250.2</ele>
        <time>2021-07-05 14:05:34</time>
      </trkpt>
      <trkpt lat="28.23731" lon="-14.15945">
        <ele>250.6</ele>
        <time>2021-07-05 14:05:35</time>
      </trkpt>
      <trkpt lat="28.2373" lon="-14.15948">
        <ele>250.8</ele>
        <time>2021-07-05 14:05:36</time>
      </trkpt>
      <trkpt lat="28.2373" lon="-14.1595">
        <ele>250.8</ele>
        <time>2021-07-05 14:05:37</time>
      </trkpt>
      <trkpt lat="28.2373" lon="-14.15952">
        <ele>251</ele>
        <time>2021-07-05 14:05:38</time>
      </trkpt>
      <trkpt lat="28.2373" lon="-14.15954">
        <ele>251</ele>
        <time>2021-07-05 14:05:39</time>
      </trkpt>
      <trkpt lat="28.23731" lon="-14.15956">
        <ele>251.4</ele>
        <time>2021-07-05 14:05:40</time>
      </trkpt>
      <trkpt lat="28.23731" lon="-14.15959">
        <ele>251.4</ele>
        <time>2021-07-05 14:05:41</time>
      </trkpt>
      <trkpt lat="28.23731" lon="-14.15961">
        <ele>251.8</ele>
        <time>2021-07-05 14:05:42</time>
      </trkpt>
      <trkpt lat="28.2373" lon="-14.15963">
        <ele>251.8</ele>
        <time>2021-07-05 14:05:43</time>
      </trkpt>
      <trkpt lat="28.2373" lon="-14.15965">
        <ele>252.2</ele>
        <time>2021-07-05 14:05:44</time>
      </trkpt>
      <trkpt lat="28.2373" lon="-14.15967">
        <ele>252.4</ele>
        <time>2021-07-05 14:05:45</time>
      </trkpt>
      <trkpt lat="28.2373" lon="-14.1597">
        <ele>252.8</ele>
        <time>2021-07-05 14:05:46</time>
      </trkpt>
      <trkpt lat="28.2373" lon="-14.15972">
        <ele>252.8</ele>
        <time>2021-07-05 14:05:47</time>
      </trkpt>
      <trkpt lat="28.23731" lon="-14.15975">
        <ele>253</ele>
        <time>2021-07-05 14:05:48</time>
      </trkpt>
      <trkpt lat="28.23731" lon="-14.15977">
        <ele>253.2</ele>
        <time>2021-07-05 14:05:49</time>
      </trkpt>
      <trkpt lat="28.23731" lon="-14.1598">
        <ele>253.6</ele>
        <time>2021-07-05 14:05:50</time>
      </trkpt>
      <trkpt lat="28.23731" lon="-14.15982">
        <ele>253.8</ele>
        <time>2021-07-05 14:05:51</time>
      </trkpt>
      <trkpt lat="28.23731" lon="-14.15984">
        <ele>254.2</ele>
        <time>2021-07-05 14:05:52</time>
      </trkpt>
      <trkpt lat="28.23731" lon="-14.15986">
        <ele>254.2</ele>
        <time>2021-07-05 14:05:53</time>
      </trkpt>
      <trkpt lat="28.23731" lon="-14.15989">
        <ele>254.4</ele>
        <time>2021-07-05 14:05:54</time>
      </trkpt>
      <trkpt lat="28.23731" lon="-14.15991">
        <ele>254.8</ele>
        <time>2021-07-05 14:05:55</time>
      </trkpt>
      <trkpt lat="28.23731" lon="-14.15993">
        <ele>254.8</ele>
        <time>2021-07-05 14:05:56</time>
      </trkpt>
      <trkpt lat="28.23731" lon="-14.15995">
        <ele>254.8</ele>
        <time>2021-07-05 14:05:57</time>
      </trkpt>
      <trkpt lat="28.23731" lon="-14.15998">
        <ele>255</ele>
        <time>2021-07-05 14:05:58</time>
      </trkpt>
      <trkpt lat="28.23731" lon="-14.16">
        <ele>255</ele>
        <time>2021-07-05 14:05:59</time>
      </trkpt>
      <trkpt lat="28.23731" lon="-14.16002">
        <ele>255.4</ele>
        <time>2021-07-05 14:06:00</time>
      </trkpt>
      <trkpt lat="28.23731" lon="-14.16005">
        <ele>255.4</ele>
        <time>2021-07-05 14:06:01</time>
      </trkpt>
      <trkpt lat="28.23731" lon="-14.16007">
        <ele>255.8</ele>
        <time>2021-07-05 14:06:02</time>
      </trkpt>
      <trkpt lat="28.2373" lon="-14.16009">
        <ele>255.8</ele>
        <time>2021-07-05 14:06:03</time>
      </trkpt>
      <trkpt lat="28.2373" lon="-14.16011">
        <ele>256.4</ele>
        <time>2021-07-05 14:06:04</time>
      </trkpt>
      <trkpt lat="28.2373" lon="-14.16014">
        <ele>256.4</ele>
        <time>2021-07-05 14:06:05</time>
      </trkpt>
      <trkpt lat="28.2373" lon="-14.16016">
        <ele>256.6</ele>
        <time>2021-07-05 14:06:06</time>
      </trkpt>
      <trkpt lat="28.2373" lon="-14.16018">
        <ele>256.8</ele>
        <time>2021-07-05 14:06:07</time>
      </trkpt>
      <trkpt lat="28.2373" lon="-14.1602">
        <ele>257.4</ele>
        <time>2021-07-05 14:06:08</time>
      </trkpt>
      <trkpt lat="28.2373" lon="-14.16022">
        <ele>257.4</ele>
        <time>2021-07-05 14:06:09</time>
      </trkpt>
      <trkpt lat="28.2373" lon="-14.16024">
        <ele>257.6</ele>
        <time>2021-07-05 14:06:10</time>
      </trkpt>
      <trkpt lat="28.2373" lon="-14.16026">
        <ele>257.6</ele>
        <time>2021-07-05 14:06:11</time>
      </trkpt>
      <trkpt lat="28.2373" lon="-14.16028">
        <ele>257.6</ele>
        <time>2021-07-05 14:06:12</time>
      </trkpt>
      <trkpt lat="28.2373" lon="-14.16031">
        <ele>258.2</ele>
        <time>2021-07-05 14:06:13</time>
      </trkpt>
      <trkpt lat="28.2373" lon="-14.16033">
        <ele>258.4</ele>
        <time>2021-07-05 14:06:14</time>
      </trkpt>
      <trkpt lat="28.23731" lon="-14.16035">
        <ele>258.6</ele>
        <time>2021-07-05 14:06:15</time>
      </trkpt>
      <trkpt lat="28.23731" lon="-14.16037">
        <ele>258.6</ele>
        <time>2021-07-05 14:06:16</time>
      </trkpt>
      <trkpt lat="28.23731" lon="-14.16039">
        <ele>259</ele>
        <time>2021-07-05 14:06:17</time>
      </trkpt>
      <trkpt lat="28.23731" lon="-14.16041">
        <ele>259.6</ele>
        <time>2021-07-05 14:06:18</time>
      </trkpt>
      <trkpt lat="28.23732" lon="-14.16043">
        <ele>259.8</ele>
        <time>2021-07-05 14:06:19</time>
      </trkpt>
      <trkpt lat="28.23732" lon="-14.16045">
        <ele>259.8</ele>
        <time>2021-07-05 14:06:20</time>
      </trkpt>
      <trkpt lat="28.23732" lon="-14.16047">
        <ele>260.2</ele>
        <time>2021-07-05 14:06:21</time>
      </trkpt>
      <trkpt lat="28.23732" lon="-14.16049">
        <ele>260.4</ele>
        <time>2021-07-05 14:06:22</time>
      </trkpt>
      <trkpt lat="28.23732" lon="-14.16051">
        <ele>260.6</ele>
        <time>2021-07-05 14:06:23</time>
      </trkpt>
      <trkpt lat="28.23732" lon="-14.16054">
        <ele>260.8</ele>
        <time>2021-07-05 14:06:24</time>
      </trkpt>
      <trkpt lat="28.23733" lon="-14.16056">
        <ele>261.2</ele>
        <time>2021-07-05 14:06:25</time>
      </trkpt>
      <trkpt lat="28.23733" lon="-14.16058">
        <ele>261.4</ele>
        <time>2021-07-05 14:06:26</time>
      </trkpt>
      <trkpt lat="28.23733" lon="-14.1606">
        <ele>261.6</ele>
        <time>2021-07-05 14:06:27</time>
      </trkpt>
      <trkpt lat="28.23734" lon="-14.16062">
        <ele>261.6</ele>
        <time>2021-07-05 14:06:28</time>
      </trkpt>
      <trkpt lat="28.23734" lon="-14.16064">
        <ele>262</ele>
        <time>2021-07-05 14:06:29</time>
      </trkpt>
      <trkpt lat="28.23734" lon="-14.16067">
        <ele>262</ele>
        <time>2021-07-05 14:06:30</time>
      </trkpt>
      <trkpt lat="28.23735" lon="-14.16069">
        <ele>262.4</ele>
        <time>2021-07-05 14:06:31</time>
      </trkpt>
      <trkpt lat="28.23735" lon="-14.16071">
        <ele>262.8</ele>
        <time>2021-07-05 14:06:32</time>
      </trkpt>
      <trkpt lat="28.23735" lon="-14.16073">
        <ele>262.8</ele>
        <time>2021-07-05 14:06:33</time>
      </trkpt>
      <trkpt lat="28.23735" lon="-14.16076">
        <ele>263.2</ele>
        <time>2021-07-05 14:06:34</time>
      </trkpt>
      <trkpt lat="28.23736" lon="-14.16078">
        <ele>263.4</ele>
        <time>2021-07-05 14:06:35</time>
      </trkpt>
      <trkpt lat="28.23736" lon="-14.1608">
        <ele>263.6</ele>
        <time>2021-07-05 14:06:36</time>
      </trkpt>
      <trkpt lat="28.23737" lon="-14.16083">
        <ele>263.8</ele>
        <time>2021-07-05 14:06:37</time>
      </trkpt>
      <trkpt lat="28.23737" lon="-14.16085">
        <ele>264</ele>
        <time>2021-07-05 14:06:38</time>
      </trkpt>
      <trkpt lat="28.23737" lon="-14.16087">
        <ele>264</ele>
        <time>2021-07-05 14:06:39</time>
      </trkpt>
      <trkpt lat="28.23738" lon="-14.16089">
        <ele>264.4</ele>
        <time>2021-07-05 14:06:40</time>
      </trkpt>
      <trkpt lat="28.23738" lon="-14.16091">
        <ele>264.8</ele>
        <time>2021-07-05 14:06:41</time>
      </trkpt>
      <trkpt lat="28.23738" lon="-14.16094">
        <ele>265.4</ele>
        <time>2021-07-05 14:06:42</time>
      </trkpt>
      <trkpt lat="28.23738" lon="-14.16096">
        <ele>265.6</ele>
        <time>2021-07-05 14:06:43</time>
      </trkpt>
      <trkpt lat="28.23739" lon="-14.16098">
        <ele>266</ele>
        <time>2021-07-05 14:06:44</time>
      </trkpt>
      <trkpt lat="28.23739" lon="-14.161">
        <ele>266</ele>
        <time>2021-07-05 14:06:45</time>
      </trkpt>
      <trkpt lat="28.2374" lon="-14.16102">
        <ele>266.2</ele>
        <time>2021-07-05 14:06:46</time>
      </trkpt>
      <trkpt lat="28.23741" lon="-14.16104">
        <ele>266.8</ele>
        <time>2021-07-05 14:06:47</time>
      </trkpt>
      <trkpt lat="28.23741" lon="-14.16106">
        <ele>266.8</ele>
        <time>2021-07-05 14:06:48</time>
      </trkpt>
      <trkpt lat="28.23742" lon="-14.16108">
        <ele>267</ele>
        <time>2021-07-05 14:06:49</time>
      </trkpt>
      <trkpt lat="28.23742" lon="-14.1611">
        <ele>267.2</ele>
        <time>2021-07-05 14:06:50</time>
      </trkpt>
      <trkpt lat="28.23743" lon="-14.16113">
        <ele>267.4</ele>
        <time>2021-07-05 14:06:51</time>
      </trkpt>
      <trkpt lat="28.23743" lon="-14.16115">
        <ele>267.8</ele>
        <time>2021-07-05 14:06:52</time>
      </trkpt>
      <trkpt lat="28.23744" lon="-14.16117">
        <ele>267.8</ele>
        <time>2021-07-05 14:06:53</time>
      </trkpt>
      <trkpt lat="28.23744" lon="-14.1612">
        <ele>268</ele>
        <time>2021-07-05 14:06:54</time>
      </trkpt>
      <trkpt lat="28.23745" lon="-14.16122">
        <ele>268.2</ele>
        <time>2021-07-05 14:06:55</time>
      </trkpt>
      <trkpt lat="28.23745" lon="-14.16124">
        <ele>268.2</ele>
        <time>2021-07-05 14:06:56</time>
      </trkpt>
      <trkpt lat="28.23746" lon="-14.16126">
        <ele>268.6</ele>
        <time>2021-07-05 14:06:57</time>
      </trkpt>
      <trkpt lat="28.23747" lon="-14.16128">
        <ele>268.8</ele>
        <time>2021-07-05 14:06:58</time>
      </trkpt>
      <trkpt lat="28.23748" lon="-14.1613">
        <ele>269</ele>
        <time>2021-07-05 14:06:59</time>
      </trkpt>
      <trkpt lat="28.23748" lon="-14.16133">
        <ele>269.2</ele>
        <time>2021-07-05 14:07:00</time>
      </trkpt>
      <trkpt lat="28.23748" lon="-14.16135">
        <ele>269.4</ele>
        <time>2021-07-05 14:07:01</time>
      </trkpt>
      <trkpt lat="28.23749" lon="-14.16138">
        <ele>269.4</ele>
        <time>2021-07-05 14:07:02</time>
      </trkpt>
      <trkpt lat="28.23749" lon="-14.16141">
        <ele>269.8</ele>
        <time>2021-07-05 14:07:03</time>
      </trkpt>
      <trkpt lat="28.23749" lon="-14.16143">
        <ele>270</ele>
        <time>2021-07-05 14:07:04</time>
      </trkpt>
      <trkpt lat="28.2375" lon="-14.16146">
        <ele>270.6</ele>
        <time>2021-07-05 14:07:05</time>
      </trkpt>
      <trkpt lat="28.2375" lon="-14.16148">
        <ele>270.6</ele>
        <time>2021-07-05 14:07:06</time>
      </trkpt>
      <trkpt lat="28.23751" lon="-14.16151">
        <ele>270.6</ele>
        <time>2021-07-05 14:07:07</time>
      </trkpt>
      <trkpt lat="28.23751" lon="-14.16153">
        <ele>271</ele>
        <time>2021-07-05 14:07:08</time>
      </trkpt>
      <trkpt lat="28.23751" lon="-14.16156">
        <ele>271</ele>
        <time>2021-07-05 14:07:09</time>
      </trkpt>
      <trkpt lat="28.23751" lon="-14.16159">
        <ele>271.4</ele>
        <time>2021-07-05 14:07:10</time>
      </trkpt>
      <trkpt lat="28.23751" lon="-14.16162">
        <ele>271.4</ele>
        <time>2021-07-05 14:07:11</time>
      </trkpt>
      <trkpt lat="28.23751" lon="-14.16165">
        <ele>271.6</ele>
        <time>2021-07-05 14:07:12</time>
      </trkpt>
      <trkpt lat="28.23751" lon="-14.16168">
        <ele>271.6</ele>
        <time>2021-07-05 14:07:13</time>
      </trkpt>
      <trkpt lat="28.2375" lon="-14.16171">
        <ele>272</ele>
        <time>2021-07-05 14:07:14</time>
      </trkpt>
      <trkpt lat="28.23749" lon="-14.16175">
        <ele>272.2</ele>
        <time>2021-07-05 14:07:15</time>
      </trkpt>
      <trkpt lat="28.23748" lon="-14.16178">
        <ele>272.2</ele>
        <time>2021-07-05 14:07:16</time>
      </trkpt>
      <trkpt lat="28.23747" lon="-14.16182">
        <ele>272.2</ele>
        <time>2021-07-05 14:07:17</time>
      </trkpt>
      <trkpt lat="28.23745" lon="-14.16185">
        <ele>272.4</ele>
        <time>2021-07-05 14:07:18</time>
      </trkpt>
      <trkpt lat="28.23743" lon="-14.16189">
        <ele>272.8</ele>
        <time>2021-07-05 14:07:19</time>
      </trkpt>
      <trkpt lat="28.23741" lon="-14.16192">
        <ele>272.8</ele>
        <time>2021-07-05 14:07:20</time>
      </trkpt>
      <trkpt lat="28.23739" lon="-14.16195">
        <ele>273</ele>
        <time>2021-07-05 14:07:21</time>
      </trkpt>
      <trkpt lat="28.23736" lon="-14.16197">
        <ele>272.6</ele>
        <time>2021-07-05 14:07:22</time>
      </trkpt>
      <trkpt lat="28.23734" lon="-14.16198">
        <ele>272.6</ele>
        <time>2021-07-05 14:07:23</time>
      </trkpt>
      <trkpt lat="28.23732" lon="-14.162">
        <ele>273.6</ele>
        <time>2021-07-05 14:07:24</time>
      </trkpt>
      <trkpt lat="28.2373" lon="-14.16201">
        <ele>273.8</ele>
        <time>2021-07-05 14:07:25</time>
      </trkpt>
      <trkpt lat="28.23728" lon="-14.16203">
        <ele>273.8</ele>
        <time>2021-07-05 14:07:26</time>
      </trkpt>
      <trkpt lat="28.23725" lon="-14.16205">
        <ele>273.8</ele>
        <time>2021-07-05 14:07:27</time>
      </trkpt>
      <trkpt lat="28.23722" lon="-14.16208">
        <ele>274</ele>
        <time>2021-07-05 14:07:28</time>
      </trkpt>
      <trkpt lat="28.23719" lon="-14.16209">
        <ele>274</ele>
        <time>2021-07-05 14:07:29</time>
      </trkpt>
      <trkpt lat="28.23715" lon="-14.16211">
        <ele>274</ele>
        <time>2021-07-05 14:07:30</time>
      </trkpt>
      <trkpt lat="28.23712" lon="-14.16213">
        <ele>274</ele>
        <time>2021-07-05 14:07:31</time>
      </trkpt>
      <trkpt lat="28.23708" lon="-14.16214">
        <ele>274</ele>
        <time>2021-07-05 14:07:32</time>
      </trkpt>
      <trkpt lat="28.23704" lon="-14.16216">
        <ele>274</ele>
        <time>2021-07-05 14:07:33</time>
      </trkpt>
      <trkpt lat="28.237" lon="-14.16217">
        <ele>274</ele>
        <time>2021-07-05 14:07:34</time>
      </trkpt>
      <trkpt lat="28.23697" lon="-14.16218">
        <ele>274</ele>
        <time>2021-07-05 14:07:35</time>
      </trkpt>
      <trkpt lat="28.23693" lon="-14.16219">
        <ele>274.2</ele>
        <time>2021-07-05 14:07:36</time>
      </trkpt>
      <trkpt lat="28.2369" lon="-14.1622">
        <ele>274.2</ele>
        <time>2021-07-05 14:07:37</time>
      </trkpt>
      <trkpt lat="28.23687" lon="-14.16221">
        <ele>274.2</ele>
        <time>2021-07-05 14:07:38</time>
      </trkpt>
      <trkpt lat="28.23684" lon="-14.16222">
        <ele>274.6</ele>
        <time>2021-07-05 14:07:39</time>
      </trkpt>
      <trkpt lat="28.23681" lon="-14.16223">
        <ele>274.6</ele>
        <time>2021-07-05 14:07:40</time>
      </trkpt>
      <trkpt lat="28.23677" lon="-14.16224">
        <ele>274.8</ele>
        <time>2021-07-05 14:07:41</time>
      </trkpt>
      <trkpt lat="28.23674" lon="-14.16225">
        <ele>275</ele>
        <time>2021-07-05 14:07:42</time>
      </trkpt>
      <trkpt lat="28.23672" lon="-14.16226">
        <ele>275</ele>
        <time>2021-07-05 14:07:43</time>
      </trkpt>
      <trkpt lat="28.23669" lon="-14.16227">
        <ele>275</ele>
        <time>2021-07-05 14:07:44</time>
      </trkpt>
      <trkpt lat="28.23666" lon="-14.16228">
        <ele>275.4</ele>
        <time>2021-07-05 14:07:45</time>
      </trkpt>
      <trkpt lat="28.23663" lon="-14.16228">
        <ele>275.4</ele>
        <time>2021-07-05 14:07:46</time>
      </trkpt>
      <trkpt lat="28.23661" lon="-14.16229">
        <ele>275.4</ele>
        <time>2021-07-05 14:07:47</time>
      </trkpt>
      <trkpt lat="28.23658" lon="-14.1623">
        <ele>275.8</ele>
        <time>2021-07-05 14:07:48</time>
      </trkpt>
      <trkpt lat="28.23655" lon="-14.16231">
        <ele>275.8</ele>
        <time>2021-07-05 14:07:49</time>
      </trkpt>
      <trkpt lat="28.23652" lon="-14.16231">
        <ele>276</ele>
        <time>2021-07-05 14:07:50</time>
      </trkpt>
      <trkpt lat="28.2365" lon="-14.16232">
        <ele>276</ele>
        <time>2021-07-05 14:07:51</time>
      </trkpt>
      <trkpt lat="28.23647" lon="-14.16233">
        <ele>276.4</ele>
        <time>2021-07-05 14:07:52</time>
      </trkpt>
      <trkpt lat="28.23645" lon="-14.16234">
        <ele>276.4</ele>
        <time>2021-07-05 14:07:53</time>
      </trkpt>
      <trkpt lat="28.23643" lon="-14.16235">
        <ele>276.8</ele>
        <time>2021-07-05 14:07:54</time>
      </trkpt>
      <trkpt lat="28.23642" lon="-14.16236">
        <ele>277</ele>
        <time>2021-07-05 14:07:55</time>
      </trkpt>
      <trkpt lat="28.23641" lon="-14.16236">
        <ele>277</ele>
        <time>2021-07-05 14:07:56</time>
      </trkpt>
      <trkpt lat="28.23639" lon="-14.16237">
        <ele>277.2</ele>
        <time>2021-07-05 14:07:57</time>
      </trkpt>
      <trkpt lat="28.23637" lon="-14.16237">
        <ele>277.4</ele>
        <time>2021-07-05 14:07:58</time>
      </trkpt>
      <trkpt lat="28.23634" lon="-14.16238">
        <ele>277.4</ele>
        <time>2021-07-05 14:07:59</time>
      </trkpt>
      <trkpt lat="28.23632" lon="-14.16239">
        <ele>277.4</ele>
        <time>2021-07-05 14:08:00</time>
      </trkpt>
      <trkpt lat="28.23629" lon="-14.1624">
        <ele>277.4</ele>
        <time>2021-07-05 14:08:01</time>
      </trkpt>
      <trkpt lat="28.23628" lon="-14.16241">
        <ele>277.4</ele>
        <time>2021-07-05 14:08:02</time>
      </trkpt>
      <trkpt lat="28.23626" lon="-14.16241">
        <ele>277.6</ele>
        <time>2021-07-05 14:08:03</time>
      </trkpt>
      <trkpt lat="28.23624" lon="-14.1624">
        <ele>277.6</ele>
        <time>2021-07-05 14:08:04</time>
      </trkpt>
      <trkpt lat="28.23621" lon="-14.1624">
        <ele>277.6</ele>
        <time>2021-07-05 14:08:05</time>
      </trkpt>
      <trkpt lat="28.23619" lon="-14.16241">
        <ele>277.6</ele>
        <time>2021-07-05 14:08:06</time>
      </trkpt>
      <trkpt lat="28.23617" lon="-14.16242">
        <ele>277.6</ele>
        <time>2021-07-05 14:08:07</time>
      </trkpt>
      <trkpt lat="28.23615" lon="-14.16243">
        <ele>277.6</ele>
        <time>2021-07-05 14:08:08</time>
      </trkpt>
      <trkpt lat="28.23614" lon="-14.16244">
        <ele>278</ele>
        <time>2021-07-05 14:08:09</time>
      </trkpt>
      <trkpt lat="28.23612" lon="-14.16245">
        <ele>278</ele>
        <time>2021-07-05 14:08:10</time>
      </trkpt>
      <trkpt lat="28.2361" lon="-14.16246">
        <ele>278</ele>
        <time>2021-07-05 14:08:11</time>
      </trkpt>
      <trkpt lat="28.23608" lon="-14.16246">
        <ele>278</ele>
        <time>2021-07-05 14:08:12</time>
      </trkpt>
      <trkpt lat="28.23607" lon="-14.16246">
        <ele>278</ele>
        <time>2021-07-05 14:08:13</time>
      </trkpt>
      <trkpt lat="28.23606" lon="-14.16246">
        <ele>278</ele>
        <time>2021-07-05 14:08:14</time>
      </trkpt>
      <trkpt lat="28.23605" lon="-14.16246">
        <ele>278</ele>
        <time>2021-07-05 14:08:15</time>
      </trkpt>
      <trkpt lat="28.23604" lon="-14.16246">
        <ele>278</ele>
        <time>2021-07-05 14:08:16</time>
      </trkpt>
      <trkpt lat="28.23603" lon="-14.16246">
        <ele>278</ele>
        <time>2021-07-05 14:08:17</time>
      </trkpt>
      <trkpt lat="28.23603" lon="-14.16247">
        <ele>278</ele>
        <time>2021-07-05 14:08:18</time>
      </trkpt>
      <trkpt lat="28.23602" lon="-14.16247">
        <ele>278</ele>
        <time>2021-07-05 14:08:19</time>
      </trkpt>
      <trkpt lat="28.23603" lon="-14.16247">
        <ele>278</ele>
        <time>2021-07-05 14:08:20</time>
      </trkpt>
      <trkpt lat="28.23605" lon="-14.16247">
        <ele>278</ele>
        <time>2021-07-05 14:08:21</time>
      </trkpt>
      <trkpt lat="28.23605" lon="-14.16248">
        <ele>278</ele>
        <time>2021-07-05 14:08:22</time>
      </trkpt>
      <trkpt lat="28.23605" lon="-14.16249">
        <ele>278</ele>
        <time>2021-07-05 14:09:01</time>
      </trkpt>
      <trkpt lat="28.23605" lon="-14.1625">
        <ele>278</ele>
        <time>2021-07-05 14:09:02</time>
      </trkpt>
      <trkpt lat="28.23605" lon="-14.1625">
        <ele>278</ele>
        <time>2021-07-05 14:09:03</time>
      </trkpt>
      <trkpt lat="28.23605" lon="-14.1625">
        <ele>278</ele>
        <time>2021-07-05 14:09:04</time>
      </trkpt>
      <trkpt lat="28.23602" lon="-14.16252">
        <ele>279.8</ele>
        <time>2021-07-05 14:09:05</time>
      </trkpt>
      <trkpt lat="28.23602" lon="-14.16252">
        <ele>279.8</ele>
        <time>2021-07-05 14:09:06</time>
      </trkpt>
      <trkpt lat="28.23602" lon="-14.16252">
        <ele>279.8</ele>
        <time>2021-07-05 14:12:45</time>
      </trkpt>
      <trkpt lat="28.23602" lon="-14.16252">
        <ele>279.8</ele>
        <time>2021-07-05 14:12:46</time>
      </trkpt>
      <trkpt lat="28.23602" lon="-14.16253">
        <ele>279.8</ele>
        <time>2021-07-05 14:12:47</time>
      </trkpt>
      <trkpt lat="28.23602" lon="-14.16253">
        <ele>279.6</ele>
        <time>2021-07-05 14:12:48</time>
      </trkpt>
      <trkpt lat="28.23602" lon="-14.16253">
        <ele>279.6</ele>
        <time>2021-07-05 14:13:20</time>
      </trkpt>
      <trkpt lat="28.23603" lon="-14.16253">
        <ele>279.6</ele>
        <time>2021-07-05 14:13:21</time>
      </trkpt>
      <trkpt lat="28.23604" lon="-14.16259">
        <ele>278.4</ele>
        <time>2021-07-05 14:13:22</time>
      </trkpt>
      <trkpt lat="28.23604" lon="-14.16262">
        <ele>278.4</ele>
        <time>2021-07-05 14:13:23</time>
      </trkpt>
      <trkpt lat="28.23602" lon="-14.16266">
        <ele>278.2</ele>
        <time>2021-07-05 14:14:35</time>
      </trkpt>
      <trkpt lat="28.236" lon="-14.16269">
        <ele>278.2</ele>
        <time>2021-07-05 14:14:36</time>
      </trkpt>
      <trkpt lat="28.23597" lon="-14.16273">
        <ele>278.2</ele>
        <time>2021-07-05 14:14:37</time>
      </trkpt>
      <trkpt lat="28.23595" lon="-14.16277">
        <ele>277.8</ele>
        <time>2021-07-05 14:14:38</time>
      </trkpt>
      <trkpt lat="28.23592" lon="-14.16281">
        <ele>277.4</ele>
        <time>2021-07-05 14:14:39</time>
      </trkpt>
      <trkpt lat="28.2359" lon="-14.16286">
        <ele>277.2</ele>
        <time>2021-07-05 14:14:40</time>
      </trkpt>
      <trkpt lat="28.23588" lon="-14.16292">
        <ele>276.8</ele>
        <time>2021-07-05 14:14:41</time>
      </trkpt>
      <trkpt lat="28.23586" lon="-14.16298">
        <ele>276.6</ele>
        <time>2021-07-05 14:14:42</time>
      </trkpt>
      <trkpt lat="28.23585" lon="-14.16305">
        <ele>276.6</ele>
        <time>2021-07-05 14:14:43</time>
      </trkpt>
      <trkpt lat="28.23584" lon="-14.16312">
        <ele>276.2</ele>
        <time>2021-07-05 14:14:44</time>
      </trkpt>
      <trkpt lat="28.23584" lon="-14.1632">
        <ele>275.8</ele>
        <time>2021-07-05 14:14:45</time>
      </trkpt>
      <trkpt lat="28.23584" lon="-14.16328">
        <ele>275.8</ele>
        <time>2021-07-05 14:14:46</time>
      </trkpt>
      <trkpt lat="28.23586" lon="-14.16336">
        <ele>275.6</ele>
        <time>2021-07-05 14:14:47</time>
      </trkpt>
      <trkpt lat="28.23589" lon="-14.16345">
        <ele>275</ele>
        <time>2021-07-05 14:14:48</time>
      </trkpt>
      <trkpt lat="28.23591" lon="-14.16354">
        <ele>275</ele>
        <time>2021-07-05 14:14:49</time>
      </trkpt>
      <trkpt lat="28.23594" lon="-14.16363">
        <ele>274.6</ele>
        <time>2021-07-05 14:14:50</time>
      </trkpt>
      <trkpt lat="28.23597" lon="-14.16373">
        <ele>274.4</ele>
        <time>2021-07-05 14:14:51</time>
      </trkpt>
      <trkpt lat="28.236" lon="-14.16383">
        <ele>274</ele>
        <time>2021-07-05 14:14:52</time>
      </trkpt>
      <trkpt lat="28.23604" lon="-14.16393">
        <ele>273.4</ele>
        <time>2021-07-05 14:14:53</time>
      </trkpt>
      <trkpt lat="28.23608" lon="-14.16403">
        <ele>273</ele>
        <time>2021-07-05 14:14:54</time>
      </trkpt>
      <trkpt lat="28.23612" lon="-14.16414">
        <ele>272.4</ele>
        <time>2021-07-05 14:14:55</time>
      </trkpt>
      <trkpt lat="28.23616" lon="-14.16425">
        <ele>271.8</ele>
        <time>2021-07-05 14:14:56</time>
      </trkpt>
      <trkpt lat="28.23621" lon="-14.16437">
        <ele>271.2</ele>
        <time>2021-07-05 14:14:57</time>
      </trkpt>
      <trkpt lat="28.23625" lon="-14.16448">
        <ele>270</ele>
        <time>2021-07-05 14:14:58</time>
      </trkpt>
      <trkpt lat="28.23629" lon="-14.1646">
        <ele>270</ele>
        <time>2021-07-05 14:14:59</time>
      </trkpt>
      <trkpt lat="28.23634" lon="-14.16472">
        <ele>269.6</ele>
        <time>2021-07-05 14:15:00</time>
      </trkpt>
      <trkpt lat="28.23638" lon="-14.16484">
        <ele>268.4</ele>
        <time>2021-07-05 14:15:01</time>
      </trkpt>
      <trkpt lat="28.23641" lon="-14.16496">
        <ele>268.4</ele>
        <time>2021-07-05 14:15:02</time>
      </trkpt>
      <trkpt lat="28.23642" lon="-14.16508">
        <ele>268</ele>
        <time>2021-07-05 14:15:03</time>
      </trkpt>
      <trkpt lat="28.23642" lon="-14.1652">
        <ele>267.2</ele>
        <time>2021-07-05 14:15:04</time>
      </trkpt>
      <trkpt lat="28.23642" lon="-14.16531">
        <ele>267.2</ele>
        <time>2021-07-05 14:15:05</time>
      </trkpt>
      <trkpt lat="28.23641" lon="-14.16542">
        <ele>267</ele>
        <time>2021-07-05 14:15:06</time>
      </trkpt>
      <trkpt lat="28.23639" lon="-14.16552">
        <ele>267</ele>
        <time>2021-07-05 14:15:07</time>
      </trkpt>
      <trkpt lat="28.23637" lon="-14.16562">
        <ele>267</ele>
        <time>2021-07-05 14:15:08</time>
      </trkpt>
      <trkpt lat="28.23635" lon="-14.16571">
        <ele>266.6</ele>
        <time>2021-07-05 14:15:09</time>
      </trkpt>
      <trkpt lat="28.23632" lon="-14.1658">
        <ele>266.6</ele>
        <time>2021-07-05 14:15:10</time>
      </trkpt>
      <trkpt lat="28.2363" lon="-14.16589">
        <ele>266.6</ele>
        <time>2021-07-05 14:15:11</time>
      </trkpt>
      <trkpt lat="28.23627" lon="-14.16598">
        <ele>266</ele>
        <time>2021-07-05 14:15:12</time>
      </trkpt>
      <trkpt lat="28.23625" lon="-14.16607">
        <ele>266</ele>
        <time>2021-07-05 14:15:13</time>
      </trkpt>
      <trkpt lat="28.23622" lon="-14.16616">
        <ele>265.8</ele>
        <time>2021-07-05 14:15:14</time>
      </trkpt>
      <trkpt lat="28.23619" lon="-14.16625">
        <ele>265.8</ele>
        <time>2021-07-05 14:15:15</time>
      </trkpt>
      <trkpt lat="28.23616" lon="-14.16635">
        <ele>265.8</ele>
        <time>2021-07-05 14:15:16</time>
      </trkpt>
      <trkpt lat="28.23613" lon="-14.16644">
        <ele>265.6</ele>
        <time>2021-07-05 14:15:17</time>
      </trkpt>
      <trkpt lat="28.23611" lon="-14.16654">
        <ele>265.2</ele>
        <time>2021-07-05 14:15:18</time>
      </trkpt>
      <trkpt lat="28.23607" lon="-14.16664">
        <ele>264.4</ele>
        <time>2021-07-05 14:15:19</time>
      </trkpt>
      <trkpt lat="28.23604" lon="-14.16674">
        <ele>264.4</ele>
        <time>2021-07-05 14:15:20</time>
      </trkpt>
      <trkpt lat="28.23601" lon="-14.16685">
        <ele>264</ele>
        <time>2021-07-05 14:15:21</time>
      </trkpt>
      <trkpt lat="28.23597" lon="-14.16696">
        <ele>263.4</ele>
        <time>2021-07-05 14:15:22</time>
      </trkpt>
      <trkpt lat="28.23594" lon="-14.16707">
        <ele>262.8</ele>
        <time>2021-07-05 14:15:23</time>
      </trkpt>
      <trkpt lat="28.2359" lon="-14.16717">
        <ele>262.4</ele>
        <time>2021-07-05 14:15:24</time>
      </trkpt>
      <trkpt lat="28.23587" lon="-14.16728">
        <ele>261.6</ele>
        <time>2021-07-05 14:15:25</time>
      </trkpt>
      <trkpt lat="28.23584" lon="-14.16738">
        <ele>261</ele>
        <time>2021-07-05 14:15:26</time>
      </trkpt>
      <trkpt lat="28.23581" lon="-14.16748">
        <ele>260.6</ele>
        <time>2021-07-05 14:15:27</time>
      </trkpt>
      <trkpt lat="28.23577" lon="-14.16758">
        <ele>260.2</ele>
        <time>2021-07-05 14:15:28</time>
      </trkpt>
      <trkpt lat="28.23574" lon="-14.16767">
        <ele>259.6</ele>
        <time>2021-07-05 14:15:29</time>
      </trkpt>
      <trkpt lat="28.2357" lon="-14.16776">
        <ele>258.8</ele>
        <time>2021-07-05 14:15:30</time>
      </trkpt>
      <trkpt lat="28.23568" lon="-14.16785">
        <ele>258.8</ele>
        <time>2021-07-05 14:15:31</time>
      </trkpt>
      <trkpt lat="28.23565" lon="-14.16794">
        <ele>258.2</ele>
        <time>2021-07-05 14:15:32</time>
      </trkpt>
      <trkpt lat="28.23562" lon="-14.16803">
        <ele>258.2</ele>
        <time>2021-07-05 14:15:33</time>
      </trkpt>
      <trkpt lat="28.23559" lon="-14.16812">
        <ele>258</ele>
        <time>2021-07-05 14:15:34</time>
      </trkpt>
      <trkpt lat="28.23556" lon="-14.16821">
        <ele>258</ele>
        <time>2021-07-05 14:15:35</time>
      </trkpt>
      <trkpt lat="28.23554" lon="-14.16831">
        <ele>257.6</ele>
        <time>2021-07-05 14:15:36</time>
      </trkpt>
      <trkpt lat="28.23551" lon="-14.1684">
        <ele>257.2</ele>
        <time>2021-07-05 14:15:37</time>
      </trkpt>
      <trkpt lat="28.23547" lon="-14.16849">
        <ele>257</ele>
        <time>2021-07-05 14:15:38</time>
      </trkpt>
      <trkpt lat="28.23544" lon="-14.16859">
        <ele>256.8</ele>
        <time>2021-07-05 14:15:39</time>
      </trkpt>
      <trkpt lat="28.23541" lon="-14.16869">
        <ele>256.4</ele>
        <time>2021-07-05 14:15:40</time>
      </trkpt>
      <trkpt lat="28.23538" lon="-14.16879">
        <ele>255.8</ele>
        <time>2021-07-05 14:15:41</time>
      </trkpt>
      <trkpt lat="28.23536" lon="-14.16889">
        <ele>255.8</ele>
        <time>2021-07-05 14:15:42</time>
      </trkpt>
      <trkpt lat="28.23534" lon="-14.16899">
        <ele>255.6</ele>
        <time>2021-07-05 14:15:43</time>
      </trkpt>
      <trkpt lat="28.23533" lon="-14.16909">
        <ele>254.6</ele>
        <time>2021-07-05 14:15:44</time>
      </trkpt>
      <trkpt lat="28.23534" lon="-14.16918">
        <ele>254.2</ele>
        <time>2021-07-05 14:15:45</time>
      </trkpt>
      <trkpt lat="28.23536" lon="-14.16926">
        <ele>254.2</ele>
        <time>2021-07-05 14:15:46</time>
      </trkpt>
      <trkpt lat="28.23538" lon="-14.16935">
        <ele>253.8</ele>
        <time>2021-07-05 14:15:47</time>
      </trkpt>
      <trkpt lat="28.23541" lon="-14.16943">
        <ele>253.2</ele>
        <time>2021-07-05 14:15:48</time>
      </trkpt>
      <trkpt lat="28.23543" lon="-14.16951">
        <ele>252.8</ele>
        <time>2021-07-05 14:15:49</time>
      </trkpt>
      <trkpt lat="28.23546" lon="-14.16956">
        <ele>251.6</ele>
        <time>2021-07-05 14:15:50</time>
      </trkpt>
      <trkpt lat="28.23549" lon="-14.16962">
        <ele>250.8</ele>
        <time>2021-07-05 14:15:51</time>
      </trkpt>
      <trkpt lat="28.23551" lon="-14.16966">
        <ele>250.8</ele>
        <time>2021-07-05 14:15:52</time>
      </trkpt>
      <trkpt lat="28.23552" lon="-14.16969">
        <ele>249.6</ele>
        <time>2021-07-05 14:15:53</time>
      </trkpt>
      <trkpt lat="28.23554" lon="-14.16971">
        <ele>249.6</ele>
        <time>2021-07-05 14:15:54</time>
      </trkpt>
      <trkpt lat="28.23554" lon="-14.16972">
        <ele>248.4</ele>
        <time>2021-07-05 14:15:55</time>
      </trkpt>
      <trkpt lat="28.23555" lon="-14.16973">
        <ele>248.4</ele>
        <time>2021-07-05 14:15:56</time>
      </trkpt>
      <trkpt lat="28.23554" lon="-14.16974">
        <ele>248.2</ele>
        <time>2021-07-05 14:15:57</time>
      </trkpt>
      <trkpt lat="28.23554" lon="-14.16974">
        <ele>247.8</ele>
        <time>2021-07-05 14:15:58</time>
      </trkpt>
      <trkpt lat="28.23554" lon="-14.16974">
        <ele>247.6</ele>
        <time>2021-07-05 14:15:59</time>
      </trkpt>
      <trkpt lat="28.23552" lon="-14.16977">
        <ele>247</ele>
        <time>2021-07-05 14:16:00</time>
      </trkpt>
      <trkpt lat="28.23551" lon="-14.16978">
        <ele>247</ele>
        <time>2021-07-05 14:16:01</time>
      </trkpt>
      <trkpt lat="28.2355" lon="-14.16977">
        <ele>247</ele>
        <time>2021-07-05 14:16:04</time>
      </trkpt>
      <trkpt lat="28.2355" lon="-14.16976">
        <ele>246.6</ele>
        <time>2021-07-05 14:16:05</time>
      </trkpt>
      <trkpt lat="28.23549" lon="-14.16975">
        <ele>246.2</ele>
        <time>2021-07-05 14:16:06</time>
      </trkpt>
      <trkpt lat="28.23549" lon="-14.16974">
        <ele>246</ele>
        <time>2021-07-05 14:16:07</time>
      </trkpt>
      <trkpt lat="28.23549" lon="-14.16973">
        <ele>245.6</ele>
        <time>2021-07-05 14:16:08</time>
      </trkpt>
      <trkpt lat="28.23548" lon="-14.16971">
        <ele>245.6</ele>
        <time>2021-07-05 14:16:09</time>
      </trkpt>
      <trkpt lat="28.23548" lon="-14.1697">
        <ele>245.6</ele>
        <time>2021-07-05 14:16:10</time>
      </trkpt>
      <trkpt lat="28.23548" lon="-14.1697">
        <ele>245.6</ele>
        <time>2021-07-05 14:16:11</time>
      </trkpt>
      <trkpt lat="28.23548" lon="-14.1697">
        <ele>245.6</ele>
        <time>2021-07-05 14:16:12</time>
      </trkpt>
      <trkpt lat="28.23547" lon="-14.16971">
        <ele>245.6</ele>
        <time>2021-07-05 14:16:13</time>
      </trkpt>
      <trkpt lat="28.23547" lon="-14.16971">
        <ele>245.6</ele>
        <time>2021-07-05 14:16:14</time>
      </trkpt>
      <trkpt lat="28.23546" lon="-14.16968">
        <ele>245.4</ele>
        <time>2021-07-05 14:16:15</time>
      </trkpt>
      <trkpt lat="28.23546" lon="-14.16967">
        <ele>245.4</ele>
        <time>2021-07-05 14:16:16</time>
      </trkpt>
      <trkpt lat="28.23545" lon="-14.16966">
        <ele>245.4</ele>
        <time>2021-07-05 14:16:20</time>
      </trkpt>
      <trkpt lat="28.23545" lon="-14.16965">
        <ele>245.4</ele>
        <time>2021-07-05 14:16:21</time>
      </trkpt>
      <trkpt lat="28.23545" lon="-14.16965">
        <ele>245.4</ele>
        <time>2021-07-05 14:16:22</time>
      </trkpt>
      <trkpt lat="28.23545" lon="-14.16964">
        <ele>245.4</ele>
        <time>2021-07-05 14:16:23</time>
      </trkpt>
      <trkpt lat="28.23544" lon="-14.16963">
        <ele>245.4</ele>
        <time>2021-07-05 14:16:24</time>
      </trkpt>
      <trkpt lat="28.23543" lon="-14.16961">
        <ele>245.4</ele>
        <time>2021-07-05 14:16:25</time>
      </trkpt>
      <trkpt lat="28.23542" lon="-14.1696">
        <ele>245.6</ele>
        <time>2021-07-05 14:16:26</time>
      </trkpt>
      <trkpt lat="28.23542" lon="-14.16958">
        <ele>245.6</ele>
        <time>2021-07-05 14:16:27</time>
      </trkpt>
      <trkpt lat="28.23541" lon="-14.16957">
        <ele>245.6</ele>
        <time>2021-07-05 14:16:28</time>
      </trkpt>
      <trkpt lat="28.2354" lon="-14.16954">
        <ele>246</ele>
        <time>2021-07-05 14:16:29</time>
      </trkpt>
      <trkpt lat="28.2354" lon="-14.16952">
        <ele>246</ele>
        <time>2021-07-05 14:16:30</time>
      </trkpt>
      <trkpt lat="28.23539" lon="-14.16951">
        <ele>246.2</ele>
        <time>2021-07-05 14:16:31</time>
      </trkpt>
      <trkpt lat="28.23539" lon="-14.16949">
        <ele>246.2</ele>
        <time>2021-07-05 14:16:32</time>
      </trkpt>
      <trkpt lat="28.23538" lon="-14.16948">
        <ele>246.2</ele>
        <time>2021-07-05 14:16:33</time>
      </trkpt>
      <trkpt lat="28.23537" lon="-14.16946">
        <ele>246.2</ele>
        <time>2021-07-05 14:16:34</time>
      </trkpt>
      <trkpt lat="28.23536" lon="-14.16944">
        <ele>246.2</ele>
        <time>2021-07-05 14:16:35</time>
      </trkpt>
      <trkpt lat="28.23535" lon="-14.16942">
        <ele>246.4</ele>
        <time>2021-07-05 14:16:36</time>
      </trkpt>
      <trkpt lat="28.23535" lon="-14.16939">
        <ele>246.6</ele>
        <time>2021-07-05 14:16:37</time>
      </trkpt>
      <trkpt lat="28.23534" lon="-14.16936">
        <ele>246.6</ele>
        <time>2021-07-05 14:16:38</time>
      </trkpt>
      <trkpt lat="28.23534" lon="-14.16934">
        <ele>246.6</ele>
        <time>2021-07-05 14:16:39</time>
      </trkpt>
      <trkpt lat="28.23533" lon="-14.16932">
        <ele>246.8</ele>
        <time>2021-07-05 14:16:40</time>
      </trkpt>
      <trkpt lat="28.23532" lon="-14.1693">
        <ele>246.8</ele>
        <time>2021-07-05 14:16:41</time>
      </trkpt>
      <trkpt lat="28.23531" lon="-14.16928">
        <ele>246.8</ele>
        <time>2021-07-05 14:16:42</time>
      </trkpt>
      <trkpt lat="28.23531" lon="-14.16926">
        <ele>247.2</ele>
        <time>2021-07-05 14:16:43</time>
      </trkpt>
      <trkpt lat="28.23531" lon="-14.16925">
        <ele>247.2</ele>
        <time>2021-07-05 14:16:44</time>
      </trkpt>
      <trkpt lat="28.23531" lon="-14.16922">
        <ele>247.2</ele>
        <time>2021-07-05 14:16:45</time>
      </trkpt>
      <trkpt lat="28.23531" lon="-14.1692">
        <ele>247.2</ele>
        <time>2021-07-05 14:16:46</time>
      </trkpt>
      <trkpt lat="28.2353" lon="-14.16918">
        <ele>247.4</ele>
        <time>2021-07-05 14:16:47</time>
      </trkpt>
      <trkpt lat="28.2353" lon="-14.16915">
        <ele>247.4</ele>
        <time>2021-07-05 14:16:48</time>
      </trkpt>
      <trkpt lat="28.2353" lon="-14.16913">
        <ele>247.8</ele>
        <time>2021-07-05 14:16:49</time>
      </trkpt>
      <trkpt lat="28.23529" lon="-14.1691">
        <ele>247.8</ele>
        <time>2021-07-05 14:16:50</time>
      </trkpt>
      <trkpt lat="28.23528" lon="-14.16909">
        <ele>248.2</ele>
        <time>2021-07-05 14:16:51</time>
      </trkpt>
      <trkpt lat="28.23526" lon="-14.16907">
        <ele>248.4</ele>
        <time>2021-07-05 14:16:52</time>
      </trkpt>
      <trkpt lat="28.23523" lon="-14.16907">
        <ele>248.4</ele>
        <time>2021-07-05 14:16:53</time>
      </trkpt>
      <trkpt lat="28.2352" lon="-14.16907">
        <ele>248.4</ele>
        <time>2021-07-05 14:16:54</time>
      </trkpt>
      <trkpt lat="28.23516" lon="-14.16912">
        <ele>248.4</ele>
        <time>2021-07-05 14:16:55</time>
      </trkpt>
      <trkpt lat="28.23512" lon="-14.16915">
        <ele>248.2</ele>
        <time>2021-07-05 14:16:56</time>
      </trkpt>
      <trkpt lat="28.23506" lon="-14.16919">
        <ele>248.2</ele>
        <time>2021-07-05 14:16:57</time>
      </trkpt>
      <trkpt lat="28.23501" lon="-14.16923">
        <ele>248</ele>
        <time>2021-07-05 14:16:58</time>
      </trkpt>
      <trkpt lat="28.23494" lon="-14.16926">
        <ele>247.8</ele>
        <time>2021-07-05 14:16:59</time>
      </trkpt>
      <trkpt lat="28.23487" lon="-14.16929">
        <ele>247.4</ele>
        <time>2021-07-05 14:17:00</time>
      </trkpt>
      <trkpt lat="28.23479" lon="-14.16932">
        <ele>247</ele>
        <time>2021-07-05 14:17:01</time>
      </trkpt>
      <trkpt lat="28.2347" lon="-14.16935">
        <ele>246.2</ele>
        <time>2021-07-05 14:17:02</time>
      </trkpt>
      <trkpt lat="28.23461" lon="-14.16938">
        <ele>246.2</ele>
        <time>2021-07-05 14:17:03</time>
      </trkpt>
      <trkpt lat="28.23453" lon="-14.16942">
        <ele>245.2</ele>
        <time>2021-07-05 14:17:04</time>
      </trkpt>
      <trkpt lat="28.23445" lon="-14.16944">
        <ele>245.2</ele>
        <time>2021-07-05 14:17:05</time>
      </trkpt>
      <trkpt lat="28.23438" lon="-14.16947">
        <ele>244.2</ele>
        <time>2021-07-05 14:17:06</time>
      </trkpt>
      <trkpt lat="28.23432" lon="-14.16946">
        <ele>243.8</ele>
        <time>2021-07-05 14:17:07</time>
      </trkpt>
      <trkpt lat="28.23425" lon="-14.16944">
        <ele>243.8</ele>
        <time>2021-07-05 14:17:08</time>
      </trkpt>
      <trkpt lat="28.23421" lon="-14.16939">
        <ele>243.2</ele>
        <time>2021-07-05 14:17:09</time>
      </trkpt>
      <trkpt lat="28.23418" lon="-14.16933">
        <ele>242.6</ele>
        <time>2021-07-05 14:17:10</time>
      </trkpt>
      <trkpt lat="28.23415" lon="-14.16926">
        <ele>242.2</ele>
        <time>2021-07-05 14:17:11</time>
      </trkpt>
      <trkpt lat="28.23413" lon="-14.16919">
        <ele>241.4</ele>
        <time>2021-07-05 14:17:12</time>
      </trkpt>
      <trkpt lat="28.23411" lon="-14.16912">
        <ele>241.4</ele>
        <time>2021-07-05 14:17:13</time>
      </trkpt>
      <trkpt lat="28.23409" lon="-14.16905">
        <ele>241.4</ele>
        <time>2021-07-05 14:17:14</time>
      </trkpt>
      <trkpt lat="28.23406" lon="-14.16897">
        <ele>241.2</ele>
        <time>2021-07-05 14:17:15</time>
      </trkpt>
      <trkpt lat="28.23402" lon="-14.16889">
        <ele>241</ele>
        <time>2021-07-05 14:17:16</time>
      </trkpt>
      <trkpt lat="28.23398" lon="-14.1688">
        <ele>241</ele>
        <time>2021-07-05 14:17:17</time>
      </trkpt>
      <trkpt lat="28.23394" lon="-14.1687">
        <ele>240.6</ele>
        <time>2021-07-05 14:17:18</time>
      </trkpt>
      <trkpt lat="28.23389" lon="-14.16861">
        <ele>240</ele>
        <time>2021-07-05 14:17:19</time>
      </trkpt>
      <trkpt lat="28.23383" lon="-14.16851">
        <ele>239.4</ele>
        <time>2021-07-05 14:17:20</time>
      </trkpt>
      <trkpt lat="28.23376" lon="-14.16841">
        <ele>238.8</ele>
        <time>2021-07-05 14:17:21</time>
      </trkpt>
      <trkpt lat="28.23368" lon="-14.16832">
        <ele>237.8</ele>
        <time>2021-07-05 14:17:22</time>
      </trkpt>
      <trkpt lat="28.23359" lon="-14.16824">
        <ele>236.8</ele>
        <time>2021-07-05 14:17:23</time>
      </trkpt>
      <trkpt lat="28.23349" lon="-14.16817">
        <ele>235.8</ele>
        <time>2021-07-05 14:17:24</time>
      </trkpt>
      <trkpt lat="28.23338" lon="-14.1681">
        <ele>234.2</ele>
        <time>2021-07-05 14:17:25</time>
      </trkpt>
      <trkpt lat="28.23327" lon="-14.16804">
        <ele>234.2</ele>
        <time>2021-07-05 14:17:26</time>
      </trkpt>
      <trkpt lat="28.23317" lon="-14.16799">
        <ele>233.6</ele>
        <time>2021-07-05 14:17:27</time>
      </trkpt>
      <trkpt lat="28.23306" lon="-14.16793">
        <ele>232.2</ele>
        <time>2021-07-05 14:17:28</time>
      </trkpt>
      <trkpt lat="28.23295" lon="-14.16788">
        <ele>232.2</ele>
        <time>2021-07-05 14:17:29</time>
      </trkpt>
      <trkpt lat="28.23283" lon="-14.16781">
        <ele>231.2</ele>
        <time>2021-07-05 14:17:30</time>
      </trkpt>
      <trkpt lat="28.23273" lon="-14.16775">
        <ele>231.2</ele>
        <time>2021-07-05 14:17:31</time>
      </trkpt>
      <trkpt lat="28.23262" lon="-14.16768">
        <ele>230.6</ele>
        <time>2021-07-05 14:17:32</time>
      </trkpt>
      <trkpt lat="28.23251" lon="-14.16761">
        <ele>230.2</ele>
        <time>2021-07-05 14:17:33</time>
      </trkpt>
      <trkpt lat="28.23241" lon="-14.16754">
        <ele>229.6</ele>
        <time>2021-07-05 14:17:34</time>
      </trkpt>
      <trkpt lat="28.2323" lon="-14.16747">
        <ele>229.2</ele>
        <time>2021-07-05 14:17:35</time>
      </trkpt>
      <trkpt lat="28.23219" lon="-14.1674">
        <ele>228.4</ele>
        <time>2021-07-05 14:17:36</time>
      </trkpt>
      <trkpt lat="28.23209" lon="-14.16733">
        <ele>228.4</ele>
        <time>2021-07-05 14:17:37</time>
      </trkpt>
      <trkpt lat="28.23197" lon="-14.16727">
        <ele>227.2</ele>
        <time>2021-07-05 14:17:38</time>
      </trkpt>
      <trkpt lat="28.23187" lon="-14.16719">
        <ele>227.2</ele>
        <time>2021-07-05 14:17:39</time>
      </trkpt>
      <trkpt lat="28.23176" lon="-14.16711">
        <ele>226.2</ele>
        <time>2021-07-05 14:17:40</time>
      </trkpt>
      <trkpt lat="28.23166" lon="-14.16703">
        <ele>226.2</ele>
        <time>2021-07-05 14:17:41</time>
      </trkpt>
      <trkpt lat="28.23155" lon="-14.16695">
        <ele>225.8</ele>
        <time>2021-07-05 14:17:42</time>
      </trkpt>
      <trkpt lat="28.23145" lon="-14.16687">
        <ele>224.8</ele>
        <time>2021-07-05 14:17:43</time>
      </trkpt>
      <trkpt lat="28.23135" lon="-14.1668">
        <ele>224.4</ele>
        <time>2021-07-05 14:17:44</time>
      </trkpt>
      <trkpt lat="28.23125" lon="-14.16673">
        <ele>224.4</ele>
        <time>2021-07-05 14:17:45</time>
      </trkpt>
      <trkpt lat="28.23114" lon="-14.16669">
        <ele>224</ele>
        <time>2021-07-05 14:17:46</time>
      </trkpt>
      <trkpt lat="28.23103" lon="-14.16666">
        <ele>223.2</ele>
        <time>2021-07-05 14:17:47</time>
      </trkpt>
      <trkpt lat="28.23093" lon="-14.16665">
        <ele>223.2</ele>
        <time>2021-07-05 14:17:48</time>
      </trkpt>
      <trkpt lat="28.23081" lon="-14.16664">
        <ele>222.6</ele>
        <time>2021-07-05 14:17:49</time>
      </trkpt>
      <trkpt lat="28.2307" lon="-14.16663">
        <ele>222</ele>
        <time>2021-07-05 14:17:50</time>
      </trkpt>
      <trkpt lat="28.23058" lon="-14.16662">
        <ele>221.6</ele>
        <time>2021-07-05 14:17:51</time>
      </trkpt>
      <trkpt lat="28.23046" lon="-14.16661">
        <ele>220.6</ele>
        <time>2021-07-05 14:17:52</time>
      </trkpt>
      <trkpt lat="28.23035" lon="-14.1666">
        <ele>220.6</ele>
        <time>2021-07-05 14:17:53</time>
      </trkpt>
      <trkpt lat="28.23023" lon="-14.16659">
        <ele>220</ele>
        <time>2021-07-05 14:17:54</time>
      </trkpt>
      <trkpt lat="28.23011" lon="-14.16658">
        <ele>219.6</ele>
        <time>2021-07-05 14:17:55</time>
      </trkpt>
      <trkpt lat="28.23" lon="-14.16657">
        <ele>219.2</ele>
        <time>2021-07-05 14:17:56</time>
      </trkpt>
      <trkpt lat="28.22988" lon="-14.16655">
        <ele>218.8</ele>
        <time>2021-07-05 14:17:57</time>
      </trkpt>
      <trkpt lat="28.22976" lon="-14.16654">
        <ele>218.4</ele>
        <time>2021-07-05 14:17:58</time>
      </trkpt>
      <trkpt lat="28.22964" lon="-14.16652">
        <ele>218</ele>
        <time>2021-07-05 14:17:59</time>
      </trkpt>
      <trkpt lat="28.22953" lon="-14.16651">
        <ele>217.6</ele>
        <time>2021-07-05 14:18:00</time>
      </trkpt>
      <trkpt lat="28.22941" lon="-14.1665">
        <ele>217</ele>
        <time>2021-07-05 14:18:01</time>
      </trkpt>
      <trkpt lat="28.22929" lon="-14.16648">
        <ele>216.8</ele>
        <time>2021-07-05 14:18:02</time>
      </trkpt>
      <trkpt lat="28.22918" lon="-14.16646">
        <ele>216.4</ele>
        <time>2021-07-05 14:18:03</time>
      </trkpt>
      <trkpt lat="28.22906" lon="-14.16644">
        <ele>216</ele>
        <time>2021-07-05 14:18:04</time>
      </trkpt>
      <trkpt lat="28.22895" lon="-14.16643">
        <ele>215.6</ele>
        <time>2021-07-05 14:18:05</time>
      </trkpt>
      <trkpt lat="28.22884" lon="-14.16642">
        <ele>215</ele>
        <time>2021-07-05 14:18:06</time>
      </trkpt>
      <trkpt lat="28.22875" lon="-14.16642">
        <ele>215</ele>
        <time>2021-07-05 14:18:07</time>
      </trkpt>
      <trkpt lat="28.22867" lon="-14.16642">
        <ele>214.6</ele>
        <time>2021-07-05 14:18:08</time>
      </trkpt>
      <trkpt lat="28.2286" lon="-14.16642">
        <ele>214.2</ele>
        <time>2021-07-05 14:18:09</time>
      </trkpt>
      <trkpt lat="28.22855" lon="-14.16643">
        <ele>214</ele>
        <time>2021-07-05 14:18:10</time>
      </trkpt>
      <trkpt lat="28.2285" lon="-14.16644">
        <ele>213.6</ele>
        <time>2021-07-05 14:18:11</time>
      </trkpt>
      <trkpt lat="28.22846" lon="-14.16646">
        <ele>213.4</ele>
        <time>2021-07-05 14:18:12</time>
      </trkpt>
      <trkpt lat="28.22844" lon="-14.1665">
        <ele>213</ele>
        <time>2021-07-05 14:18:13</time>
      </trkpt>
      <trkpt lat="28.22843" lon="-14.16654">
        <ele>212.8</ele>
        <time>2021-07-05 14:18:14</time>
      </trkpt>
      <trkpt lat="28.22844" lon="-14.16657">
        <ele>212.8</ele>
        <time>2021-07-05 14:18:15</time>
      </trkpt>
      <trkpt lat="28.22844" lon="-14.16661">
        <ele>212.6</ele>
        <time>2021-07-05 14:18:16</time>
      </trkpt>
      <trkpt lat="28.22844" lon="-14.16664">
        <ele>212.6</ele>
        <time>2021-07-05 14:18:17</time>
      </trkpt>
      <trkpt lat="28.22844" lon="-14.16668">
        <ele>213</ele>
        <time>2021-07-05 14:18:18</time>
      </trkpt>
      <trkpt lat="28.22844" lon="-14.16672">
        <ele>213</ele>
        <time>2021-07-05 14:18:19</time>
      </trkpt>
      <trkpt lat="28.22845" lon="-14.16675">
        <ele>213.2</ele>
        <time>2021-07-05 14:18:20</time>
      </trkpt>
      <trkpt lat="28.22846" lon="-14.16679">
        <ele>213.6</ele>
        <time>2021-07-05 14:18:21</time>
      </trkpt>
      <trkpt lat="28.22845" lon="-14.16682">
        <ele>214</ele>
        <time>2021-07-05 14:18:22</time>
      </trkpt>
      <trkpt lat="28.22845" lon="-14.16686">
        <ele>215</ele>
        <time>2021-07-05 14:18:23</time>
      </trkpt>
      <trkpt lat="28.22844" lon="-14.16689">
        <ele>215</ele>
        <time>2021-07-05 14:18:24</time>
      </trkpt>
      <trkpt lat="28.22843" lon="-14.16692">
        <ele>215.4</ele>
        <time>2021-07-05 14:18:25</time>
      </trkpt>
      <trkpt lat="28.22841" lon="-14.16695">
        <ele>215.6</ele>
        <time>2021-07-05 14:18:26</time>
      </trkpt>
      <trkpt lat="28.22838" lon="-14.16697">
        <ele>216</ele>
        <time>2021-07-05 14:18:27</time>
      </trkpt>
      <trkpt lat="28.22834" lon="-14.16697">
        <ele>216</ele>
        <time>2021-07-05 14:18:28</time>
      </trkpt>
      <trkpt lat="28.2283" lon="-14.16696">
        <ele>216.2</ele>
        <time>2021-07-05 14:18:29</time>
      </trkpt>
      <trkpt lat="28.22827" lon="-14.16693">
        <ele>216.2</ele>
        <time>2021-07-05 14:18:30</time>
      </trkpt>
      <trkpt lat="28.22823" lon="-14.16691">
        <ele>216</ele>
        <time>2021-07-05 14:18:31</time>
      </trkpt>
      <trkpt lat="28.2282" lon="-14.16688">
        <ele>216</ele>
        <time>2021-07-05 14:18:32</time>
      </trkpt>
      <trkpt lat="28.22816" lon="-14.16686">
        <ele>215.6</ele>
        <time>2021-07-05 14:18:33</time>
      </trkpt>
      <trkpt lat="28.22812" lon="-14.16684">
        <ele>215.6</ele>
        <time>2021-07-05 14:18:34</time>
      </trkpt>
      <trkpt lat="28.22807" lon="-14.16682">
        <ele>215.2</ele>
        <time>2021-07-05 14:18:35</time>
      </trkpt>
      <trkpt lat="28.22802" lon="-14.16681">
        <ele>214.8</ele>
        <time>2021-07-05 14:18:36</time>
      </trkpt>
      <trkpt lat="28.22797" lon="-14.1668">
        <ele>214.6</ele>
        <time>2021-07-05 14:18:37</time>
      </trkpt>
      <trkpt lat="28.22792" lon="-14.1668">
        <ele>214.4</ele>
        <time>2021-07-05 14:18:38</time>
      </trkpt>
      <trkpt lat="28.22787" lon="-14.16681">
        <ele>214.2</ele>
        <time>2021-07-05 14:18:39</time>
      </trkpt>
      <trkpt lat="28.22781" lon="-14.16682">
        <ele>214</ele>
        <time>2021-07-05 14:18:40</time>
      </trkpt>
      <trkpt lat="28.22777" lon="-14.16684">
        <ele>213.8</ele>
        <time>2021-07-05 14:18:41</time>
      </trkpt>
      <trkpt lat="28.22773" lon="-14.16686">
        <ele>213.8</ele>
        <time>2021-07-05 14:18:42</time>
      </trkpt>
      <trkpt lat="28.22768" lon="-14.16689">
        <ele>213.8</ele>
        <time>2021-07-05 14:18:43</time>
      </trkpt>
      <trkpt lat="28.22763" lon="-14.16692">
        <ele>213.8</ele>
        <time>2021-07-05 14:18:44</time>
      </trkpt>
      <trkpt lat="28.22757" lon="-14.16694">
        <ele>213.4</ele>
        <time>2021-07-05 14:18:45</time>
      </trkpt>
      <trkpt lat="28.22751" lon="-14.16696">
        <ele>213.4</ele>
        <time>2021-07-05 14:18:46</time>
      </trkpt>
      <trkpt lat="28.22745" lon="-14.16698">
        <ele>213.2</ele>
        <time>2021-07-05 14:18:47</time>
      </trkpt>
      <trkpt lat="28.22739" lon="-14.16698">
        <ele>213.2</ele>
        <time>2021-07-05 14:18:48</time>
      </trkpt>
      <trkpt lat="28.22733" lon="-14.16698">
        <ele>212.8</ele>
        <time>2021-07-05 14:18:49</time>
      </trkpt>
      <trkpt lat="28.22728" lon="-14.16699">
        <ele>212.8</ele>
        <time>2021-07-05 14:18:50</time>
      </trkpt>
      <trkpt lat="28.22722" lon="-14.16697">
        <ele>212.6</ele>
        <time>2021-07-05 14:18:51</time>
      </trkpt>
      <trkpt lat="28.22716" lon="-14.16694">
        <ele>212.6</ele>
        <time>2021-07-05 14:18:52</time>
      </trkpt>
      <trkpt lat="28.22711" lon="-14.16691">
        <ele>212.6</ele>
        <time>2021-07-05 14:18:53</time>
      </trkpt>
      <trkpt lat="28.22707" lon="-14.16685">
        <ele>212.2</ele>
        <time>2021-07-05 14:18:54</time>
      </trkpt>
      <trkpt lat="28.22704" lon="-14.16679">
        <ele>211.8</ele>
        <time>2021-07-05 14:18:55</time>
      </trkpt>
      <trkpt lat="28.22702" lon="-14.16672">
        <ele>211.8</ele>
        <time>2021-07-05 14:18:56</time>
      </trkpt>
      <trkpt lat="28.22699" lon="-14.16663">
        <ele>211</ele>
        <time>2021-07-05 14:18:57</time>
      </trkpt>
      <trkpt lat="28.22696" lon="-14.16655">
        <ele>210.6</ele>
        <time>2021-07-05 14:18:58</time>
      </trkpt>
      <trkpt lat="28.22694" lon="-14.16646">
        <ele>210.6</ele>
        <time>2021-07-05 14:18:59</time>
      </trkpt>
      <trkpt lat="28.22691" lon="-14.16637">
        <ele>209.8</ele>
        <time>2021-07-05 14:19:00</time>
      </trkpt>
      <trkpt lat="28.22688" lon="-14.16628">
        <ele>209.8</ele>
        <time>2021-07-05 14:19:01</time>
      </trkpt>
      <trkpt lat="28.22684" lon="-14.16621">
        <ele>209.4</ele>
        <time>2021-07-05 14:19:02</time>
      </trkpt>
      <trkpt lat="28.22679" lon="-14.16616">
        <ele>209</ele>
        <time>2021-07-05 14:19:03</time>
      </trkpt>
      <trkpt lat="28.22673" lon="-14.16613">
        <ele>208.6</ele>
        <time>2021-07-05 14:19:04</time>
      </trkpt>
      <trkpt lat="28.22667" lon="-14.16613">
        <ele>208.2</ele>
        <time>2021-07-05 14:19:05</time>
      </trkpt>
      <trkpt lat="28.2266" lon="-14.16615">
        <ele>207.4</ele>
        <time>2021-07-05 14:19:06</time>
      </trkpt>
      <trkpt lat="28.22654" lon="-14.16616">
        <ele>207.4</ele>
        <time>2021-07-05 14:19:07</time>
      </trkpt>
      <trkpt lat="28.22647" lon="-14.16617">
        <ele>207</ele>
        <time>2021-07-05 14:19:08</time>
      </trkpt>
      <trkpt lat="28.2264" lon="-14.16618">
        <ele>206.6</ele>
        <time>2021-07-05 14:19:09</time>
      </trkpt>
      <trkpt lat="28.22633" lon="-14.16619">
        <ele>206</ele>
        <time>2021-07-05 14:19:10</time>
      </trkpt>
      <trkpt lat="28.22626" lon="-14.1662">
        <ele>205.6</ele>
        <time>2021-07-05 14:19:11</time>
      </trkpt>
      <trkpt lat="28.22618" lon="-14.16621">
        <ele>205.6</ele>
        <time>2021-07-05 14:19:12</time>
      </trkpt>
      <trkpt lat="28.22611" lon="-14.16621">
        <ele>205.2</ele>
        <time>2021-07-05 14:19:13</time>
      </trkpt>
      <trkpt lat="28.22603" lon="-14.16621">
        <ele>204.6</ele>
        <time>2021-07-05 14:19:14</time>
      </trkpt>
      <trkpt lat="28.22596" lon="-14.16618">
        <ele>204.2</ele>
        <time>2021-07-05 14:19:15</time>
      </trkpt>
      <trkpt lat="28.22588" lon="-14.16617">
        <ele>204.2</ele>
        <time>2021-07-05 14:19:16</time>
      </trkpt>
      <trkpt lat="28.2258" lon="-14.16615">
        <ele>203.8</ele>
        <time>2021-07-05 14:19:17</time>
      </trkpt>
      <trkpt lat="28.22573" lon="-14.16615">
        <ele>203.4</ele>
        <time>2021-07-05 14:19:18</time>
      </trkpt>
      <trkpt lat="28.22565" lon="-14.16616">
        <ele>203</ele>
        <time>2021-07-05 14:19:19</time>
      </trkpt>
      <trkpt lat="28.22557" lon="-14.16618">
        <ele>202.8</ele>
        <time>2021-07-05 14:19:20</time>
      </trkpt>
      <trkpt lat="28.22549" lon="-14.16621">
        <ele>202.8</ele>
        <time>2021-07-05 14:19:21</time>
      </trkpt>
      <trkpt lat="28.22542" lon="-14.16625">
        <ele>202.2</ele>
        <time>2021-07-05 14:19:22</time>
      </trkpt>
      <trkpt lat="28.22534" lon="-14.16627">
        <ele>201.8</ele>
        <time>2021-07-05 14:19:23</time>
      </trkpt>
      <trkpt lat="28.22527" lon="-14.16631">
        <ele>201.8</ele>
        <time>2021-07-05 14:19:24</time>
      </trkpt>
      <trkpt lat="28.22519" lon="-14.16634">
        <ele>201.4</ele>
        <time>2021-07-05 14:19:25</time>
      </trkpt>
      <trkpt lat="28.22512" lon="-14.16636">
        <ele>201.4</ele>
        <time>2021-07-05 14:19:26</time>
      </trkpt>
      <trkpt lat="28.22504" lon="-14.16639">
        <ele>201</ele>
        <time>2021-07-05 14:19:27</time>
      </trkpt>
      <trkpt lat="28.22496" lon="-14.16642">
        <ele>200.4</ele>
        <time>2021-07-05 14:19:28</time>
      </trkpt>
      <trkpt lat="28.2249" lon="-14.16645">
        <ele>200.2</ele>
        <time>2021-07-05 14:19:29</time>
      </trkpt>
      <trkpt lat="28.22484" lon="-14.16647">
        <ele>200.2</ele>
        <time>2021-07-05 14:19:30</time>
      </trkpt>
      <trkpt lat="28.22478" lon="-14.16651">
        <ele>199.8</ele>
        <time>2021-07-05 14:19:31</time>
      </trkpt>
      <trkpt lat="28.22473" lon="-14.16654">
        <ele>199.4</ele>
        <time>2021-07-05 14:19:32</time>
      </trkpt>
      <trkpt lat="28.22467" lon="-14.16656">
        <ele>199.4</ele>
        <time>2021-07-05 14:19:33</time>
      </trkpt>
      <trkpt lat="28.22461" lon="-14.16658">
        <ele>199.2</ele>
        <time>2021-07-05 14:19:34</time>
      </trkpt>
      <trkpt lat="28.22455" lon="-14.16659">
        <ele>198.8</ele>
        <time>2021-07-05 14:19:35</time>
      </trkpt>
      <trkpt lat="28.22449" lon="-14.16662">
        <ele>198.6</ele>
        <time>2021-07-05 14:19:36</time>
      </trkpt>
      <trkpt lat="28.22443" lon="-14.16664">
        <ele>198.6</ele>
        <time>2021-07-05 14:19:37</time>
      </trkpt>
      <trkpt lat="28.22437" lon="-14.16666">
        <ele>198</ele>
        <time>2021-07-05 14:19:38</time>
      </trkpt>
      <trkpt lat="28.22431" lon="-14.16668">
        <ele>198</ele>
        <time>2021-07-05 14:19:39</time>
      </trkpt>
      <trkpt lat="28.22424" lon="-14.1667">
        <ele>198</ele>
        <time>2021-07-05 14:19:40</time>
      </trkpt>
      <trkpt lat="28.22418" lon="-14.16672">
        <ele>197.6</ele>
        <time>2021-07-05 14:19:41</time>
      </trkpt>
      <trkpt lat="28.22412" lon="-14.16675">
        <ele>197.6</ele>
        <time>2021-07-05 14:19:42</time>
      </trkpt>
      <trkpt lat="28.22406" lon="-14.16677">
        <ele>197.2</ele>
        <time>2021-07-05 14:19:43</time>
      </trkpt>
      <trkpt lat="28.22399" lon="-14.1668">
        <ele>197</ele>
        <time>2021-07-05 14:19:44</time>
      </trkpt>
      <trkpt lat="28.22393" lon="-14.16682">
        <ele>197</ele>
        <time>2021-07-05 14:19:45</time>
      </trkpt>
      <trkpt lat="28.22387" lon="-14.16685">
        <ele>197</ele>
        <time>2021-07-05 14:19:46</time>
      </trkpt>
      <trkpt lat="28.22381" lon="-14.16689">
        <ele>196.6</ele>
        <time>2021-07-05 14:19:47</time>
      </trkpt>
      <trkpt lat="28.22375" lon="-14.16693">
        <ele>196.4</ele>
        <time>2021-07-05 14:19:48</time>
      </trkpt>
      <trkpt lat="28.2237" lon="-14.16697">
        <ele>196</ele>
        <time>2021-07-05 14:19:49</time>
      </trkpt>
      <trkpt lat="28.22365" lon="-14.16701">
        <ele>196</ele>
        <time>2021-07-05 14:19:50</time>
      </trkpt>
      <trkpt lat="28.2236" lon="-14.16705">
        <ele>195.4</ele>
        <time>2021-07-05 14:19:51</time>
      </trkpt>
      <trkpt lat="28.22355" lon="-14.1671">
        <ele>195.4</ele>
        <time>2021-07-05 14:19:52</time>
      </trkpt>
      <trkpt lat="28.22349" lon="-14.16713">
        <ele>195.2</ele>
        <time>2021-07-05 14:19:53</time>
      </trkpt>
      <trkpt lat="28.22344" lon="-14.16716">
        <ele>195.2</ele>
        <time>2021-07-05 14:19:54</time>
      </trkpt>
      <trkpt lat="28.22338" lon="-14.16719">
        <ele>195.2</ele>
        <time>2021-07-05 14:19:55</time>
      </trkpt>
      <trkpt lat="28.22332" lon="-14.16722">
        <ele>195.2</ele>
        <time>2021-07-05 14:19:56</time>
      </trkpt>
      <trkpt lat="28.22327" lon="-14.16724">
        <ele>195.2</ele>
        <time>2021-07-05 14:19:57</time>
      </trkpt>
      <trkpt lat="28.22322" lon="-14.16727">
        <ele>195.2</ele>
        <time>2021-07-05 14:19:58</time>
      </trkpt>
      <trkpt lat="28.22316" lon="-14.1673">
        <ele>195.2</ele>
        <time>2021-07-05 14:19:59</time>
      </trkpt>
      <trkpt lat="28.2231" lon="-14.16732">
        <ele>195.2</ele>
        <time>2021-07-05 14:20:00</time>
      </trkpt>
      <trkpt lat="28.22305" lon="-14.16734">
        <ele>195.2</ele>
        <time>2021-07-05 14:20:01</time>
      </trkpt>
      <trkpt lat="28.22299" lon="-14.16735">
        <ele>195.2</ele>
        <time>2021-07-05 14:20:02</time>
      </trkpt>
      <trkpt lat="28.22293" lon="-14.16736">
        <ele>195.2</ele>
        <time>2021-07-05 14:20:03</time>
      </trkpt>
      <trkpt lat="28.22287" lon="-14.16737">
        <ele>195.2</ele>
        <time>2021-07-05 14:20:04</time>
      </trkpt>
      <trkpt lat="28.22281" lon="-14.16737">
        <ele>195</ele>
        <time>2021-07-05 14:20:05</time>
      </trkpt>
      <trkpt lat="28.22275" lon="-14.16737">
        <ele>194.8</ele>
        <time>2021-07-05 14:20:06</time>
      </trkpt>
      <trkpt lat="28.22269" lon="-14.16738">
        <ele>194.8</ele>
        <time>2021-07-05 14:20:07</time>
      </trkpt>
      <trkpt lat="28.22263" lon="-14.16738">
        <ele>194.8</ele>
        <time>2021-07-05 14:20:08</time>
      </trkpt>
      <trkpt lat="28.22256" lon="-14.16739">
        <ele>194.4</ele>
        <time>2021-07-05 14:20:09</time>
      </trkpt>
      <trkpt lat="28.2225" lon="-14.16739">
        <ele>194.4</ele>
        <time>2021-07-05 14:20:10</time>
      </trkpt>
      <trkpt lat="28.22244" lon="-14.16738">
        <ele>194.4</ele>
        <time>2021-07-05 14:20:11</time>
      </trkpt>
      <trkpt lat="28.22237" lon="-14.16738">
        <ele>194.4</ele>
        <time>2021-07-05 14:20:12</time>
      </trkpt>
      <trkpt lat="28.2223" lon="-14.16738">
        <ele>193.8</ele>
        <time>2021-07-05 14:20:13</time>
      </trkpt>
      <trkpt lat="28.22223" lon="-14.16739">
        <ele>193.8</ele>
        <time>2021-07-05 14:20:14</time>
      </trkpt>
      <trkpt lat="28.22217" lon="-14.1674">
        <ele>193.6</ele>
        <time>2021-07-05 14:20:15</time>
      </trkpt>
      <trkpt lat="28.2221" lon="-14.16741">
        <ele>193.4</ele>
        <time>2021-07-05 14:20:16</time>
      </trkpt>
      <trkpt lat="28.22203" lon="-14.16743">
        <ele>193</ele>
        <time>2021-07-05 14:20:17</time>
      </trkpt>
      <trkpt lat="28.22196" lon="-14.16745">
        <ele>192.4</ele>
        <time>2021-07-05 14:20:18</time>
      </trkpt>
      <trkpt lat="28.2219" lon="-14.16748">
        <ele>192.4</ele>
        <time>2021-07-05 14:20:19</time>
      </trkpt>
      <trkpt lat="28.22183" lon="-14.16751">
        <ele>191.8</ele>
        <time>2021-07-05 14:20:20</time>
      </trkpt>
      <trkpt lat="28.22177" lon="-14.16754">
        <ele>191.8</ele>
        <time>2021-07-05 14:20:21</time>
      </trkpt>
      <trkpt lat="28.22171" lon="-14.16758">
        <ele>191.8</ele>
        <time>2021-07-05 14:20:22</time>
      </trkpt>
      <trkpt lat="28.22165" lon="-14.16762">
        <ele>191.8</ele>
        <time>2021-07-05 14:20:23</time>
      </trkpt>
      <trkpt lat="28.22158" lon="-14.16766">
        <ele>191.4</ele>
        <time>2021-07-05 14:20:24</time>
      </trkpt>
      <trkpt lat="28.22153" lon="-14.16771">
        <ele>191.4</ele>
        <time>2021-07-05 14:20:25</time>
      </trkpt>
      <trkpt lat="28.22147" lon="-14.16776">
        <ele>191.4</ele>
        <time>2021-07-05 14:20:26</time>
      </trkpt>
      <trkpt lat="28.2214" lon="-14.1678">
        <ele>191.2</ele>
        <time>2021-07-05 14:20:27</time>
      </trkpt>
      <trkpt lat="28.22133" lon="-14.16784">
        <ele>191.2</ele>
        <time>2021-07-05 14:20:28</time>
      </trkpt>
      <trkpt lat="28.22127" lon="-14.16787">
        <ele>191.2</ele>
        <time>2021-07-05 14:20:29</time>
      </trkpt>
      <trkpt lat="28.2212" lon="-14.16791">
        <ele>191.2</ele>
        <time>2021-07-05 14:20:30</time>
      </trkpt>
      <trkpt lat="28.22113" lon="-14.16794">
        <ele>190.8</ele>
        <time>2021-07-05 14:20:31</time>
      </trkpt>
      <trkpt lat="28.22106" lon="-14.16796">
        <ele>190.8</ele>
        <time>2021-07-05 14:20:32</time>
      </trkpt>
      <trkpt lat="28.22098" lon="-14.16798">
        <ele>190.4</ele>
        <time>2021-07-05 14:20:33</time>
      </trkpt>
      <trkpt lat="28.22091" lon="-14.168">
        <ele>190.2</ele>
        <time>2021-07-05 14:20:34</time>
      </trkpt>
      <trkpt lat="28.22083" lon="-14.16802">
        <ele>190.2</ele>
        <time>2021-07-05 14:20:35</time>
      </trkpt>
      <trkpt lat="28.22075" lon="-14.16802">
        <ele>189.6</ele>
        <time>2021-07-05 14:20:36</time>
      </trkpt>
      <trkpt lat="28.22067" lon="-14.16803">
        <ele>189.6</ele>
        <time>2021-07-05 14:20:37</time>
      </trkpt>
      <trkpt lat="28.22059" lon="-14.16803">
        <ele>189.6</ele>
        <time>2021-07-05 14:20:38</time>
      </trkpt>
      <trkpt lat="28.2205" lon="-14.16803">
        <ele>189.6</ele>
        <time>2021-07-05 14:20:39</time>
      </trkpt>
      <trkpt lat="28.22042" lon="-14.16803">
        <ele>189.4</ele>
        <time>2021-07-05 14:20:40</time>
      </trkpt>
      <trkpt lat="28.22034" lon="-14.16804">
        <ele>188.8</ele>
        <time>2021-07-05 14:20:41</time>
      </trkpt>
      <trkpt lat="28.22026" lon="-14.16804">
        <ele>188.8</ele>
        <time>2021-07-05 14:20:42</time>
      </trkpt>
      <trkpt lat="28.22017" lon="-14.16805">
        <ele>188.8</ele>
        <time>2021-07-05 14:20:43</time>
      </trkpt>
      <trkpt lat="28.22009" lon="-14.16806">
        <ele>188.4</ele>
        <time>2021-07-05 14:20:44</time>
      </trkpt>
      <trkpt lat="28.22" lon="-14.16807">
        <ele>188</ele>
        <time>2021-07-05 14:20:45</time>
      </trkpt>
      <trkpt lat="28.21992" lon="-14.16809">
        <ele>187.6</ele>
        <time>2021-07-05 14:20:46</time>
      </trkpt>
      <trkpt lat="28.21984" lon="-14.16811">
        <ele>187.6</ele>
        <time>2021-07-05 14:20:47</time>
      </trkpt>
      <trkpt lat="28.21976" lon="-14.16814">
        <ele>187.4</ele>
        <time>2021-07-05 14:20:48</time>
      </trkpt>
      <trkpt lat="28.21967" lon="-14.16816">
        <ele>187.4</ele>
        <time>2021-07-05 14:20:49</time>
      </trkpt>
      <trkpt lat="28.21959" lon="-14.1682">
        <ele>187</ele>
        <time>2021-07-05 14:20:50</time>
      </trkpt>
      <trkpt lat="28.21951" lon="-14.16824">
        <ele>186.8</ele>
        <time>2021-07-05 14:20:51</time>
      </trkpt>
      <trkpt lat="28.21943" lon="-14.16828">
        <ele>186.2</ele>
        <time>2021-07-05 14:20:52</time>
      </trkpt>
      <trkpt lat="28.21935" lon="-14.16833">
        <ele>186.2</ele>
        <time>2021-07-05 14:20:53</time>
      </trkpt>
      <trkpt lat="28.21928" lon="-14.16837">
        <ele>186</ele>
        <time>2021-07-05 14:20:54</time>
      </trkpt>
      <trkpt lat="28.2192" lon="-14.16842">
        <ele>185.4</ele>
        <time>2021-07-05 14:20:55</time>
      </trkpt>
      <trkpt lat="28.21911" lon="-14.16846">
        <ele>185.4</ele>
        <time>2021-07-05 14:20:56</time>
      </trkpt>
      <trkpt lat="28.21903" lon="-14.1685">
        <ele>184.8</ele>
        <time>2021-07-05 14:20:57</time>
      </trkpt>
      <trkpt lat="28.21895" lon="-14.16852">
        <ele>184.8</ele>
        <time>2021-07-05 14:20:58</time>
      </trkpt>
      <trkpt lat="28.21886" lon="-14.16854">
        <ele>184.6</ele>
        <time>2021-07-05 14:20:59</time>
      </trkpt>
      <trkpt lat="28.21877" lon="-14.16855">
        <ele>184.6</ele>
        <time>2021-07-05 14:21:00</time>
      </trkpt>
      <trkpt lat="28.21868" lon="-14.16853">
        <ele>184.2</ele>
        <time>2021-07-05 14:21:01</time>
      </trkpt>
      <trkpt lat="28.2186" lon="-14.16851">
        <ele>184</ele>
        <time>2021-07-05 14:21:02</time>
      </trkpt>
      <trkpt lat="28.21852" lon="-14.16848">
        <ele>183.6</ele>
        <time>2021-07-05 14:21:03</time>
      </trkpt>
      <trkpt lat="28.21843" lon="-14.16845">
        <ele>183.4</ele>
        <time>2021-07-05 14:21:04</time>
      </trkpt>
      <trkpt lat="28.21835" lon="-14.16842">
        <ele>183</ele>
        <time>2021-07-05 14:21:05</time>
      </trkpt>
      <trkpt lat="28.21826" lon="-14.16841">
        <ele>182.6</ele>
        <time>2021-07-05 14:21:06</time>
      </trkpt>
      <trkpt lat="28.21818" lon="-14.1684">
        <ele>182.4</ele>
        <time>2021-07-05 14:21:07</time>
      </trkpt>
      <trkpt lat="28.21809" lon="-14.1684">
        <ele>182.4</ele>
        <time>2021-07-05 14:21:08</time>
      </trkpt>
      <trkpt lat="28.218" lon="-14.16841">
        <ele>181.8</ele>
        <time>2021-07-05 14:21:09</time>
      </trkpt>
      <trkpt lat="28.21792" lon="-14.16844">
        <ele>181.4</ele>
        <time>2021-07-05 14:21:10</time>
      </trkpt>
      <trkpt lat="28.21784" lon="-14.16848">
        <ele>181.4</ele>
        <time>2021-07-05 14:21:11</time>
      </trkpt>
      <trkpt lat="28.21775" lon="-14.16852">
        <ele>181</ele>
        <time>2021-07-05 14:21:12</time>
      </trkpt>
      <trkpt lat="28.21767" lon="-14.16857">
        <ele>180.6</ele>
        <time>2021-07-05 14:21:13</time>
      </trkpt>
      <trkpt lat="28.21759" lon="-14.16862">
        <ele>180.6</ele>
        <time>2021-07-05 14:21:14</time>
      </trkpt>
      <trkpt lat="28.21752" lon="-14.16869">
        <ele>180</ele>
        <time>2021-07-05 14:21:15</time>
      </trkpt>
      <trkpt lat="28.21745" lon="-14.16876">
        <ele>179.4</ele>
        <time>2021-07-05 14:21:16</time>
      </trkpt>
      <trkpt lat="28.21738" lon="-14.16884">
        <ele>179</ele>
        <time>2021-07-05 14:21:17</time>
      </trkpt>
      <trkpt lat="28.21731" lon="-14.16891">
        <ele>179</ele>
        <time>2021-07-05 14:21:18</time>
      </trkpt>
      <trkpt lat="28.21723" lon="-14.16898">
        <ele>178.8</ele>
        <time>2021-07-05 14:21:19</time>
      </trkpt>
      <trkpt lat="28.21715" lon="-14.16903">
        <ele>178.4</ele>
        <time>2021-07-05 14:21:20</time>
      </trkpt>
      <trkpt lat="28.21706" lon="-14.16907">
        <ele>178</ele>
        <time>2021-07-05 14:21:21</time>
      </trkpt>
      <trkpt lat="28.21697" lon="-14.1691">
        <ele>177.8</ele>
        <time>2021-07-05 14:21:22</time>
      </trkpt>
      <trkpt lat="28.21688" lon="-14.16912">
        <ele>177.2</ele>
        <time>2021-07-05 14:21:23</time>
      </trkpt>
      <trkpt lat="28.21678" lon="-14.16914">
        <ele>177.2</ele>
        <time>2021-07-05 14:21:24</time>
      </trkpt>
      <trkpt lat="28.21669" lon="-14.16917">
        <ele>177</ele>
        <time>2021-07-05 14:21:25</time>
      </trkpt>
      <trkpt lat="28.21659" lon="-14.16919">
        <ele>177</ele>
        <time>2021-07-05 14:21:26</time>
      </trkpt>
      <trkpt lat="28.2165" lon="-14.16922">
        <ele>176.8</ele>
        <time>2021-07-05 14:21:27</time>
      </trkpt>
      <trkpt lat="28.21641" lon="-14.16924">
        <ele>176.8</ele>
        <time>2021-07-05 14:21:28</time>
      </trkpt>
      <trkpt lat="28.21631" lon="-14.16927">
        <ele>176</ele>
        <time>2021-07-05 14:21:29</time>
      </trkpt>
      <trkpt lat="28.21622" lon="-14.16929">
        <ele>176</ele>
        <time>2021-07-05 14:21:30</time>
      </trkpt>
      <trkpt lat="28.21612" lon="-14.16931">
        <ele>175.4</ele>
        <time>2021-07-05 14:21:31</time>
      </trkpt>
      <trkpt lat="28.21602" lon="-14.16932">
        <ele>175</ele>
        <time>2021-07-05 14:21:32</time>
      </trkpt>
      <trkpt lat="28.21592" lon="-14.16933">
        <ele>175</ele>
        <time>2021-07-05 14:21:33</time>
      </trkpt>
      <trkpt lat="28.21581" lon="-14.16933">
        <ele>174.6</ele>
        <time>2021-07-05 14:21:34</time>
      </trkpt>
      <trkpt lat="28.21571" lon="-14.16934">
        <ele>174.2</ele>
        <time>2021-07-05 14:21:35</time>
      </trkpt>
      <trkpt lat="28.2156" lon="-14.16934">
        <ele>173.8</ele>
        <time>2021-07-05 14:21:36</time>
      </trkpt>
      <trkpt lat="28.2155" lon="-14.16935">
        <ele>173.6</ele>
        <time>2021-07-05 14:21:37</time>
      </trkpt>
      <trkpt lat="28.2154" lon="-14.16935">
        <ele>173.2</ele>
        <time>2021-07-05 14:21:38</time>
      </trkpt>
      <trkpt lat="28.21529" lon="-14.16935">
        <ele>173.2</ele>
        <time>2021-07-05 14:21:39</time>
      </trkpt>
      <trkpt lat="28.21518" lon="-14.16936">
        <ele>172.6</ele>
        <time>2021-07-05 14:21:40</time>
      </trkpt>
      <trkpt lat="28.21507" lon="-14.16937">
        <ele>172.6</ele>
        <time>2021-07-05 14:21:41</time>
      </trkpt>
      <trkpt lat="28.21497" lon="-14.16937">
        <ele>172.2</ele>
        <time>2021-07-05 14:21:42</time>
      </trkpt>
      <trkpt lat="28.21486" lon="-14.16936">
        <ele>171.8</ele>
        <time>2021-07-05 14:21:43</time>
      </trkpt>
      <trkpt lat="28.21475" lon="-14.16935">
        <ele>171.4</ele>
        <time>2021-07-05 14:21:44</time>
      </trkpt>
      <trkpt lat="28.21464" lon="-14.16935">
        <ele>170.8</ele>
        <time>2021-07-05 14:21:45</time>
      </trkpt>
      <trkpt lat="28.21452" lon="-14.16934">
        <ele>170.2</ele>
        <time>2021-07-05 14:21:46</time>
      </trkpt>
      <trkpt lat="28.21441" lon="-14.16933">
        <ele>170.2</ele>
        <time>2021-07-05 14:21:47</time>
      </trkpt>
      <trkpt lat="28.21431" lon="-14.16932">
        <ele>169.8</ele>
        <time>2021-07-05 14:21:48</time>
      </trkpt>
      <trkpt lat="28.21421" lon="-14.16933">
        <ele>169.8</ele>
        <time>2021-07-05 14:21:49</time>
      </trkpt>
      <trkpt lat="28.21411" lon="-14.16934">
        <ele>169.6</ele>
        <time>2021-07-05 14:21:50</time>
      </trkpt>
      <trkpt lat="28.21401" lon="-14.16937">
        <ele>168.8</ele>
        <time>2021-07-05 14:21:51</time>
      </trkpt>
      <trkpt lat="28.21392" lon="-14.16941">
        <ele>168.4</ele>
        <time>2021-07-05 14:21:52</time>
      </trkpt>
      <trkpt lat="28.21383" lon="-14.16946">
        <ele>168.4</ele>
        <time>2021-07-05 14:21:53</time>
      </trkpt>
      <trkpt lat="28.21376" lon="-14.16952">
        <ele>168</ele>
        <time>2021-07-05 14:21:54</time>
      </trkpt>
      <trkpt lat="28.21369" lon="-14.16959">
        <ele>167.2</ele>
        <time>2021-07-05 14:21:55</time>
      </trkpt>
      <trkpt lat="28.21362" lon="-14.16966">
        <ele>166.8</ele>
        <time>2021-07-05 14:21:56</time>
      </trkpt>
      <trkpt lat="28.21354" lon="-14.16973">
        <ele>166.8</ele>
        <time>2021-07-05 14:21:57</time>
      </trkpt>
      <trkpt lat="28.21346" lon="-14.16978">
        <ele>166.4</ele>
        <time>2021-07-05 14:21:58</time>
      </trkpt>
      <trkpt lat="28.21338" lon="-14.16983">
        <ele>165.8</ele>
        <time>2021-07-05 14:21:59</time>
      </trkpt>
      <trkpt lat="28.21329" lon="-14.16987">
        <ele>165.8</ele>
        <time>2021-07-05 14:22:00</time>
      </trkpt>
      <trkpt lat="28.2132" lon="-14.16991">
        <ele>165.2</ele>
        <time>2021-07-05 14:22:01</time>
      </trkpt>
      <trkpt lat="28.21311" lon="-14.16994">
        <ele>165</ele>
        <time>2021-07-05 14:22:02</time>
      </trkpt>
      <trkpt lat="28.21301" lon="-14.16997">
        <ele>165</ele>
        <time>2021-07-05 14:22:03</time>
      </trkpt>
      <trkpt lat="28.21292" lon="-14.17">
        <ele>165</ele>
        <time>2021-07-05 14:22:04</time>
      </trkpt>
      <trkpt lat="28.21283" lon="-14.17003">
        <ele>164.2</ele>
        <time>2021-07-05 14:22:05</time>
      </trkpt>
      <trkpt lat="28.21273" lon="-14.17007">
        <ele>164.2</ele>
        <time>2021-07-05 14:22:06</time>
      </trkpt>
      <trkpt lat="28.21265" lon="-14.1701">
        <ele>164</ele>
        <time>2021-07-05 14:22:07</time>
      </trkpt>
      <trkpt lat="28.21255" lon="-14.17014">
        <ele>163.6</ele>
        <time>2021-07-05 14:22:08</time>
      </trkpt>
      <trkpt lat="28.21246" lon="-14.17017">
        <ele>163.2</ele>
        <time>2021-07-05 14:22:09</time>
      </trkpt>
      <trkpt lat="28.21237" lon="-14.1702">
        <ele>162.8</ele>
        <time>2021-07-05 14:22:10</time>
      </trkpt>
      <trkpt lat="28.21228" lon="-14.17023">
        <ele>162.4</ele>
        <time>2021-07-05 14:22:11</time>
      </trkpt>
      <trkpt lat="28.21218" lon="-14.17026">
        <ele>162.4</ele>
        <time>2021-07-05 14:22:12</time>
      </trkpt>
      <trkpt lat="28.21209" lon="-14.17029">
        <ele>162.4</ele>
        <time>2021-07-05 14:22:13</time>
      </trkpt>
      <trkpt lat="28.21199" lon="-14.17033">
        <ele>161.6</ele>
        <time>2021-07-05 14:22:14</time>
      </trkpt>
      <trkpt lat="28.21191" lon="-14.17038">
        <ele>161.6</ele>
        <time>2021-07-05 14:22:15</time>
      </trkpt>
      <trkpt lat="28.21182" lon="-14.17043">
        <ele>160.8</ele>
        <time>2021-07-05 14:22:16</time>
      </trkpt>
      <trkpt lat="28.21173" lon="-14.17048">
        <ele>160.8</ele>
        <time>2021-07-05 14:22:17</time>
      </trkpt>
      <trkpt lat="28.21164" lon="-14.17053">
        <ele>160.6</ele>
        <time>2021-07-05 14:22:18</time>
      </trkpt>
      <trkpt lat="28.21155" lon="-14.17057">
        <ele>160</ele>
        <time>2021-07-05 14:22:19</time>
      </trkpt>
      <trkpt lat="28.21146" lon="-14.1706">
        <ele>160</ele>
        <time>2021-07-05 14:22:20</time>
      </trkpt>
      <trkpt lat="28.21136" lon="-14.17064">
        <ele>159.2</ele>
        <time>2021-07-05 14:22:21</time>
      </trkpt>
      <trkpt lat="28.21127" lon="-14.17067">
        <ele>159.2</ele>
        <time>2021-07-05 14:22:22</time>
      </trkpt>
      <trkpt lat="28.21117" lon="-14.17071">
        <ele>158.8</ele>
        <time>2021-07-05 14:22:23</time>
      </trkpt>
      <trkpt lat="28.21108" lon="-14.17073">
        <ele>158.8</ele>
        <time>2021-07-05 14:22:24</time>
      </trkpt>
      <trkpt lat="28.21099" lon="-14.17075">
        <ele>158.4</ele>
        <time>2021-07-05 14:22:25</time>
      </trkpt>
      <trkpt lat="28.2109" lon="-14.17078">
        <ele>158</ele>
        <time>2021-07-05 14:22:26</time>
      </trkpt>
      <trkpt lat="28.2108" lon="-14.1708">
        <ele>157.6</ele>
        <time>2021-07-05 14:22:27</time>
      </trkpt>
      <trkpt lat="28.21071" lon="-14.17083">
        <ele>157.2</ele>
        <time>2021-07-05 14:22:28</time>
      </trkpt>
      <trkpt lat="28.21061" lon="-14.17087">
        <ele>157.2</ele>
        <time>2021-07-05 14:22:29</time>
      </trkpt>
      <trkpt lat="28.21052" lon="-14.17091">
        <ele>156.8</ele>
        <time>2021-07-05 14:22:30</time>
      </trkpt>
      <trkpt lat="28.21043" lon="-14.17093">
        <ele>156.4</ele>
        <time>2021-07-05 14:22:31</time>
      </trkpt>
      <trkpt lat="28.21034" lon="-14.17097">
        <ele>156</ele>
        <time>2021-07-05 14:22:32</time>
      </trkpt>
      <trkpt lat="28.21025" lon="-14.17102">
        <ele>155.6</ele>
        <time>2021-07-05 14:22:33</time>
      </trkpt>
      <trkpt lat="28.21016" lon="-14.17106">
        <ele>154.8</ele>
        <time>2021-07-05 14:22:34</time>
      </trkpt>
      <trkpt lat="28.21008" lon="-14.17112">
        <ele>154.4</ele>
        <time>2021-07-05 14:22:35</time>
      </trkpt>
      <trkpt lat="28.21" lon="-14.17118">
        <ele>154</ele>
        <time>2021-07-05 14:22:36</time>
      </trkpt>
      <trkpt lat="28.20993" lon="-14.17124">
        <ele>154</ele>
        <time>2021-07-05 14:22:37</time>
      </trkpt>
      <trkpt lat="28.20985" lon="-14.17131">
        <ele>153.2</ele>
        <time>2021-07-05 14:22:38</time>
      </trkpt>
      <trkpt lat="28.20978" lon="-14.17138">
        <ele>153.2</ele>
        <time>2021-07-05 14:22:39</time>
      </trkpt>
      <trkpt lat="28.2097" lon="-14.17145">
        <ele>152.6</ele>
        <time>2021-07-05 14:22:40</time>
      </trkpt>
      <trkpt lat="28.20962" lon="-14.17152">
        <ele>152.2</ele>
        <time>2021-07-05 14:22:41</time>
      </trkpt>
      <trkpt lat="28.20955" lon="-14.17158">
        <ele>152.2</ele>
        <time>2021-07-05 14:22:42</time>
      </trkpt>
      <trkpt lat="28.20946" lon="-14.17164">
        <ele>151.8</ele>
        <time>2021-07-05 14:22:43</time>
      </trkpt>
      <trkpt lat="28.20938" lon="-14.1717">
        <ele>151.6</ele>
        <time>2021-07-05 14:22:44</time>
      </trkpt>
      <trkpt lat="28.2093" lon="-14.17176">
        <ele>151.2</ele>
        <time>2021-07-05 14:22:45</time>
      </trkpt>
      <trkpt lat="28.20922" lon="-14.17181">
        <ele>150.8</ele>
        <time>2021-07-05 14:22:46</time>
      </trkpt>
      <trkpt lat="28.20913" lon="-14.17186">
        <ele>150.6</ele>
        <time>2021-07-05 14:22:47</time>
      </trkpt>
      <trkpt lat="28.20905" lon="-14.17191">
        <ele>150.2</ele>
        <time>2021-07-05 14:22:48</time>
      </trkpt>
      <trkpt lat="28.20896" lon="-14.17196">
        <ele>149.6</ele>
        <time>2021-07-05 14:22:49</time>
      </trkpt>
      <trkpt lat="28.20888" lon="-14.17201">
        <ele>149</ele>
        <time>2021-07-05 14:22:50</time>
      </trkpt>
      <trkpt lat="28.2088" lon="-14.17207">
        <ele>148.8</ele>
        <time>2021-07-05 14:22:51</time>
      </trkpt>
      <trkpt lat="28.20872" lon="-14.17213">
        <ele>148.4</ele>
        <time>2021-07-05 14:22:52</time>
      </trkpt>
      <trkpt lat="28.20864" lon="-14.1722">
        <ele>148.4</ele>
        <time>2021-07-05 14:22:53</time>
      </trkpt>
      <trkpt lat="28.20857" lon="-14.17227">
        <ele>147.8</ele>
        <time>2021-07-05 14:22:54</time>
      </trkpt>
      <trkpt lat="28.2085" lon="-14.17235">
        <ele>147.6</ele>
        <time>2021-07-05 14:22:55</time>
      </trkpt>
      <trkpt lat="28.20842" lon="-14.17242">
        <ele>146.8</ele>
        <time>2021-07-05 14:22:56</time>
      </trkpt>
      <trkpt lat="28.20834" lon="-14.17249">
        <ele>146</ele>
        <time>2021-07-05 14:22:57</time>
      </trkpt>
      <trkpt lat="28.20826" lon="-14.17256">
        <ele>146</ele>
        <time>2021-07-05 14:22:58</time>
      </trkpt>
      <trkpt lat="28.20818" lon="-14.17263">
        <ele>145.8</ele>
        <time>2021-07-05 14:22:59</time>
      </trkpt>
      <trkpt lat="28.20809" lon="-14.17268">
        <ele>145.4</ele>
        <time>2021-07-05 14:23:00</time>
      </trkpt>
      <trkpt lat="28.208" lon="-14.17274">
        <ele>145</ele>
        <time>2021-07-05 14:23:01</time>
      </trkpt>
      <trkpt lat="28.20791" lon="-14.17279">
        <ele>144.2</ele>
        <time>2021-07-05 14:23:02</time>
      </trkpt>
      <trkpt lat="28.20783" lon="-14.17285">
        <ele>144.2</ele>
        <time>2021-07-05 14:23:03</time>
      </trkpt>
      <trkpt lat="28.20776" lon="-14.17289">
        <ele>144.2</ele>
        <time>2021-07-05 14:23:04</time>
      </trkpt>
      <trkpt lat="28.20769" lon="-14.17293">
        <ele>143.8</ele>
        <time>2021-07-05 14:23:05</time>
      </trkpt>
      <trkpt lat="28.20763" lon="-14.17296">
        <ele>143.4</ele>
        <time>2021-07-05 14:23:06</time>
      </trkpt>
      <trkpt lat="28.20758" lon="-14.17299">
        <ele>143.2</ele>
        <time>2021-07-05 14:23:07</time>
      </trkpt>
      <trkpt lat="28.20755" lon="-14.17301">
        <ele>143</ele>
        <time>2021-07-05 14:23:08</time>
      </trkpt>
      <trkpt lat="28.20752" lon="-14.17302">
        <ele>142.2</ele>
        <time>2021-07-05 14:23:09</time>
      </trkpt>
      <trkpt lat="28.20752" lon="-14.17303">
        <ele>142.2</ele>
        <time>2021-07-05 14:23:10</time>
      </trkpt>
      <trkpt lat="28.20752" lon="-14.17303">
        <ele>142</ele>
        <time>2021-07-05 14:23:11</time>
      </trkpt>
      <trkpt lat="28.20752" lon="-14.17303">
        <ele>141.6</ele>
        <time>2021-07-05 14:23:12</time>
      </trkpt>
      <trkpt lat="28.20752" lon="-14.17301">
        <ele>139.8</ele>
        <time>2021-07-05 14:23:13</time>
      </trkpt>
      <trkpt lat="28.20749" lon="-14.17303">
        <ele>139.8</ele>
        <time>2021-07-05 14:23:14</time>
      </trkpt>
      <trkpt lat="28.20746" lon="-14.17304">
        <ele>139.8</ele>
        <time>2021-07-05 14:23:35</time>
      </trkpt>
      <trkpt lat="28.20743" lon="-14.17306">
        <ele>139.8</ele>
        <time>2021-07-05 14:23:36</time>
      </trkpt>
      <trkpt lat="28.20739" lon="-14.17308">
        <ele>139.4</ele>
        <time>2021-07-05 14:23:37</time>
      </trkpt>
      <trkpt lat="28.20735" lon="-14.1731">
        <ele>139.4</ele>
        <time>2021-07-05 14:23:38</time>
      </trkpt>
      <trkpt lat="28.20731" lon="-14.17313">
        <ele>139</ele>
        <time>2021-07-05 14:23:39</time>
      </trkpt>
      <trkpt lat="28.20726" lon="-14.17315">
        <ele>139</ele>
        <time>2021-07-05 14:23:40</time>
      </trkpt>
      <trkpt lat="28.20722" lon="-14.17317">
        <ele>138.8</ele>
        <time>2021-07-05 14:23:41</time>
      </trkpt>
      <trkpt lat="28.20717" lon="-14.1732">
        <ele>138.6</ele>
        <time>2021-07-05 14:23:42</time>
      </trkpt>
      <trkpt lat="28.20712" lon="-14.17323">
        <ele>138.6</ele>
        <time>2021-07-05 14:23:43</time>
      </trkpt>
      <trkpt lat="28.20707" lon="-14.17325">
        <ele>138.2</ele>
        <time>2021-07-05 14:23:44</time>
      </trkpt>
      <trkpt lat="28.20702" lon="-14.17327">
        <ele>138.2</ele>
        <time>2021-07-05 14:23:45</time>
      </trkpt>
      <trkpt lat="28.20696" lon="-14.1733">
        <ele>138</ele>
        <time>2021-07-05 14:23:46</time>
      </trkpt>
      <trkpt lat="28.20691" lon="-14.17332">
        <ele>137.6</ele>
        <time>2021-07-05 14:23:47</time>
      </trkpt>
      <trkpt lat="28.20685" lon="-14.17334">
        <ele>137.6</ele>
        <time>2021-07-05 14:23:48</time>
      </trkpt>
      <trkpt lat="28.20679" lon="-14.17337">
        <ele>137.6</ele>
        <time>2021-07-05 14:23:49</time>
      </trkpt>
      <trkpt lat="28.20673" lon="-14.17339">
        <ele>137.6</ele>
        <time>2021-07-05 14:23:50</time>
      </trkpt>
      <trkpt lat="28.20667" lon="-14.17342">
        <ele>137.4</ele>
        <time>2021-07-05 14:23:51</time>
      </trkpt>
      <trkpt lat="28.20661" lon="-14.17344">
        <ele>137.4</ele>
        <time>2021-07-05 14:23:52</time>
      </trkpt>
      <trkpt lat="28.20655" lon="-14.17346">
        <ele>137.2</ele>
        <time>2021-07-05 14:23:53</time>
      </trkpt>
      <trkpt lat="28.20648" lon="-14.17348">
        <ele>137</ele>
        <time>2021-07-05 14:23:54</time>
      </trkpt>
      <trkpt lat="28.20641" lon="-14.1735">
        <ele>136.6</ele>
        <time>2021-07-05 14:23:55</time>
      </trkpt>
      <trkpt lat="28.20635" lon="-14.17352">
        <ele>136.4</ele>
        <time>2021-07-05 14:23:56</time>
      </trkpt>
      <trkpt lat="28.20628" lon="-14.17353">
        <ele>136.4</ele>
        <time>2021-07-05 14:23:57</time>
      </trkpt>
      <trkpt lat="28.20621" lon="-14.17354">
        <ele>136.2</ele>
        <time>2021-07-05 14:23:58</time>
      </trkpt>
      <trkpt lat="28.20613" lon="-14.17354">
        <ele>136</ele>
        <time>2021-07-05 14:23:59</time>
      </trkpt>
      <trkpt lat="28.20606" lon="-14.17354">
        <ele>135.6</ele>
        <time>2021-07-05 14:24:00</time>
      </trkpt>
      <trkpt lat="28.20598" lon="-14.17354">
        <ele>135.4</ele>
        <time>2021-07-05 14:24:01</time>
      </trkpt>
      <trkpt lat="28.20592" lon="-14.17353">
        <ele>135</ele>
        <time>2021-07-05 14:24:02</time>
      </trkpt>
      <trkpt lat="28.20586" lon="-14.17352">
        <ele>134.4</ele>
        <time>2021-07-05 14:24:03</time>
      </trkpt>
      <trkpt lat="28.20581" lon="-14.1735">
        <ele>134</ele>
        <time>2021-07-05 14:24:04</time>
      </trkpt>
      <trkpt lat="28.20575" lon="-14.1735">
        <ele>134</ele>
        <time>2021-07-05 14:24:05</time>
      </trkpt>
      <trkpt lat="28.20569" lon="-14.17348">
        <ele>134</ele>
        <time>2021-07-05 14:24:06</time>
      </trkpt>
      <trkpt lat="28.20564" lon="-14.17347">
        <ele>133.8</ele>
        <time>2021-07-05 14:24:07</time>
      </trkpt>
      <trkpt lat="28.20558" lon="-14.17348">
        <ele>133.8</ele>
        <time>2021-07-05 14:24:08</time>
      </trkpt>
      <trkpt lat="28.20552" lon="-14.17347">
        <ele>133.8</ele>
        <time>2021-07-05 14:24:09</time>
      </trkpt>
      <trkpt lat="28.20547" lon="-14.17346">
        <ele>133.8</ele>
        <time>2021-07-05 14:24:10</time>
      </trkpt>
      <trkpt lat="28.20542" lon="-14.17346">
        <ele>133.4</ele>
        <time>2021-07-05 14:24:11</time>
      </trkpt>
      <trkpt lat="28.20536" lon="-14.17346">
        <ele>133.2</ele>
        <time>2021-07-05 14:24:12</time>
      </trkpt>
      <trkpt lat="28.20531" lon="-14.17345">
        <ele>133.2</ele>
        <time>2021-07-05 14:24:13</time>
      </trkpt>
      <trkpt lat="28.20525" lon="-14.17345">
        <ele>133</ele>
        <time>2021-07-05 14:24:14</time>
      </trkpt>
      <trkpt lat="28.2052" lon="-14.17344">
        <ele>132.6</ele>
        <time>2021-07-05 14:24:15</time>
      </trkpt>
      <trkpt lat="28.20515" lon="-14.17344">
        <ele>132.2</ele>
        <time>2021-07-05 14:24:16</time>
      </trkpt>
      <trkpt lat="28.20509" lon="-14.17345">
        <ele>132.2</ele>
        <time>2021-07-05 14:24:17</time>
      </trkpt>
      <trkpt lat="28.20504" lon="-14.17346">
        <ele>132.2</ele>
        <time>2021-07-05 14:24:18</time>
      </trkpt>
      <trkpt lat="28.20499" lon="-14.17347">
        <ele>132</ele>
        <time>2021-07-05 14:24:19</time>
      </trkpt>
      <trkpt lat="28.20494" lon="-14.17349">
        <ele>132</ele>
        <time>2021-07-05 14:24:20</time>
      </trkpt>
      <trkpt lat="28.20489" lon="-14.17351">
        <ele>131.8</ele>
        <time>2021-07-05 14:24:21</time>
      </trkpt>
      <trkpt lat="28.20484" lon="-14.17353">
        <ele>131.4</ele>
        <time>2021-07-05 14:24:22</time>
      </trkpt>
      <trkpt lat="28.20479" lon="-14.17356">
        <ele>131.4</ele>
        <time>2021-07-05 14:24:23</time>
      </trkpt>
      <trkpt lat="28.20474" lon="-14.1736">
        <ele>131.2</ele>
        <time>2021-07-05 14:24:24</time>
      </trkpt>
      <trkpt lat="28.2047" lon="-14.17364">
        <ele>131.2</ele>
        <time>2021-07-05 14:24:25</time>
      </trkpt>
      <trkpt lat="28.20465" lon="-14.17367">
        <ele>131.2</ele>
        <time>2021-07-05 14:24:26</time>
      </trkpt>
      <trkpt lat="28.20461" lon="-14.17372">
        <ele>131</ele>
        <time>2021-07-05 14:24:27</time>
      </trkpt>
      <trkpt lat="28.20457" lon="-14.17377">
        <ele>131</ele>
        <time>2021-07-05 14:24:28</time>
      </trkpt>
      <trkpt lat="28.20453" lon="-14.17382">
        <ele>130.8</ele>
        <time>2021-07-05 14:24:29</time>
      </trkpt>
      <trkpt lat="28.2045" lon="-14.17387">
        <ele>130.8</ele>
        <time>2021-07-05 14:24:30</time>
      </trkpt>
      <trkpt lat="28.20446" lon="-14.17393">
        <ele>130.8</ele>
        <time>2021-07-05 14:24:31</time>
      </trkpt>
      <trkpt lat="28.20443" lon="-14.17399">
        <ele>130.8</ele>
        <time>2021-07-05 14:24:32</time>
      </trkpt>
      <trkpt lat="28.2044" lon="-14.17405">
        <ele>130.4</ele>
        <time>2021-07-05 14:24:33</time>
      </trkpt>
      <trkpt lat="28.20438" lon="-14.17411">
        <ele>130.4</ele>
        <time>2021-07-05 14:24:34</time>
      </trkpt>
      <trkpt lat="28.20435" lon="-14.17417">
        <ele>130.4</ele>
        <time>2021-07-05 14:24:35</time>
      </trkpt>
      <trkpt lat="28.20433" lon="-14.17423">
        <ele>130.2</ele>
        <time>2021-07-05 14:24:36</time>
      </trkpt>
      <trkpt lat="28.2043" lon="-14.1743">
        <ele>130</ele>
        <time>2021-07-05 14:24:37</time>
      </trkpt>
      <trkpt lat="28.20428" lon="-14.17436">
        <ele>129.8</ele>
        <time>2021-07-05 14:24:38</time>
      </trkpt>
      <trkpt lat="28.20426" lon="-14.17443">
        <ele>129.6</ele>
        <time>2021-07-05 14:24:39</time>
      </trkpt>
      <trkpt lat="28.20425" lon="-14.17449">
        <ele>129</ele>
        <time>2021-07-05 14:24:40</time>
      </trkpt>
      <trkpt lat="28.20423" lon="-14.17456">
        <ele>129</ele>
        <time>2021-07-05 14:24:41</time>
      </trkpt>
      <trkpt lat="28.20421" lon="-14.17463">
        <ele>128.8</ele>
        <time>2021-07-05 14:24:42</time>
      </trkpt>
      <trkpt lat="28.20419" lon="-14.17469">
        <ele>128.8</ele>
        <time>2021-07-05 14:24:43</time>
      </trkpt>
      <trkpt lat="28.20417" lon="-14.17476">
        <ele>128.6</ele>
        <time>2021-07-05 14:24:44</time>
      </trkpt>
      <trkpt lat="28.20415" lon="-14.17483">
        <ele>128.6</ele>
        <time>2021-07-05 14:24:45</time>
      </trkpt>
      <trkpt lat="28.20413" lon="-14.17489">
        <ele>128.2</ele>
        <time>2021-07-05 14:24:46</time>
      </trkpt>
      <trkpt lat="28.20412" lon="-14.17495">
        <ele>128.2</ele>
        <time>2021-07-05 14:24:47</time>
      </trkpt>
      <trkpt lat="28.2041" lon="-14.17502">
        <ele>128.2</ele>
        <time>2021-07-05 14:24:48</time>
      </trkpt>
      <trkpt lat="28.20409" lon="-14.17509">
        <ele>128.2</ele>
        <time>2021-07-05 14:24:49</time>
      </trkpt>
      <trkpt lat="28.20407" lon="-14.17515">
        <ele>128.2</ele>
        <time>2021-07-05 14:24:50</time>
      </trkpt>
      <trkpt lat="28.20405" lon="-14.17521">
        <ele>128.2</ele>
        <time>2021-07-05 14:24:51</time>
      </trkpt>
      <trkpt lat="28.20404" lon="-14.17527">
        <ele>128.2</ele>
        <time>2021-07-05 14:24:52</time>
      </trkpt>
      <trkpt lat="28.20402" lon="-14.17533">
        <ele>128.2</ele>
        <time>2021-07-05 14:24:53</time>
      </trkpt>
      <trkpt lat="28.204" lon="-14.1754">
        <ele>128</ele>
        <time>2021-07-05 14:24:54</time>
      </trkpt>
      <trkpt lat="28.20397" lon="-14.17546">
        <ele>128</ele>
        <time>2021-07-05 14:24:55</time>
      </trkpt>
      <trkpt lat="28.20396" lon="-14.17553">
        <ele>127.6</ele>
        <time>2021-07-05 14:24:56</time>
      </trkpt>
      <trkpt lat="28.20393" lon="-14.17558">
        <ele>127.4</ele>
        <time>2021-07-05 14:24:57</time>
      </trkpt>
      <trkpt lat="28.20393" lon="-14.17558">
        <ele>127.2</ele>
        <time>2021-07-05 14:24:58</time>
      </trkpt>
      <trkpt lat="28.20388" lon="-14.17572">
        <ele>126.8</ele>
        <time>2021-07-05 14:24:59</time>
      </trkpt>
      <trkpt lat="28.20385" lon="-14.17578">
        <ele>126.4</ele>
        <time>2021-07-05 14:25:00</time>
      </trkpt>
      <trkpt lat="28.20382" lon="-14.17584">
        <ele>126.4</ele>
        <time>2021-07-05 14:25:01</time>
      </trkpt>
      <trkpt lat="28.20379" lon="-14.1759">
        <ele>126</ele>
        <time>2021-07-05 14:25:02</time>
      </trkpt>
      <trkpt lat="28.20375" lon="-14.17595">
        <ele>125.8</ele>
        <time>2021-07-05 14:25:03</time>
      </trkpt>
      <trkpt lat="28.20371" lon="-14.17601">
        <ele>125.4</ele>
        <time>2021-07-05 14:25:04</time>
      </trkpt>
      <trkpt lat="28.20366" lon="-14.17606">
        <ele>125</ele>
        <time>2021-07-05 14:25:05</time>
      </trkpt>
      <trkpt lat="28.20361" lon="-14.1761">
        <ele>124.2</ele>
        <time>2021-07-05 14:25:06</time>
      </trkpt>
      <trkpt lat="28.20355" lon="-14.17613">
        <ele>124.2</ele>
        <time>2021-07-05 14:25:07</time>
      </trkpt>
      <trkpt lat="28.20348" lon="-14.17616">
        <ele>123.6</ele>
        <time>2021-07-05 14:25:08</time>
      </trkpt>
      <trkpt lat="28.20342" lon="-14.17618">
        <ele>123.2</ele>
        <time>2021-07-05 14:25:09</time>
      </trkpt>
      <trkpt lat="28.20335" lon="-14.17619">
        <ele>122.4</ele>
        <time>2021-07-05 14:25:10</time>
      </trkpt>
      <trkpt lat="28.20329" lon="-14.1762">
        <ele>122.4</ele>
        <time>2021-07-05 14:25:11</time>
      </trkpt>
      <trkpt lat="28.20321" lon="-14.17621">
        <ele>122</ele>
        <time>2021-07-05 14:25:12</time>
      </trkpt>
      <trkpt lat="28.20313" lon="-14.17621">
        <ele>121.6</ele>
        <time>2021-07-05 14:25:13</time>
      </trkpt>
      <trkpt lat="28.20305" lon="-14.17622">
        <ele>120.8</ele>
        <time>2021-07-05 14:25:14</time>
      </trkpt>
      <trkpt lat="28.20297" lon="-14.17622">
        <ele>120.8</ele>
        <time>2021-07-05 14:25:15</time>
      </trkpt>
      <trkpt lat="28.20289" lon="-14.17623">
        <ele>120.4</ele>
        <time>2021-07-05 14:25:16</time>
      </trkpt>
      <trkpt lat="28.20281" lon="-14.17624">
        <ele>119.4</ele>
        <time>2021-07-05 14:25:17</time>
      </trkpt>
      <trkpt lat="28.20272" lon="-14.17624">
        <ele>119.4</ele>
        <time>2021-07-05 14:25:18</time>
      </trkpt>
      <trkpt lat="28.20264" lon="-14.17625">
        <ele>119</ele>
        <time>2021-07-05 14:25:19</time>
      </trkpt>
      <trkpt lat="28.20256" lon="-14.17626">
        <ele>118.8</ele>
        <time>2021-07-05 14:25:20</time>
      </trkpt>
      <trkpt lat="28.20248" lon="-14.17626">
        <ele>118.6</ele>
        <time>2021-07-05 14:25:21</time>
      </trkpt>
      <trkpt lat="28.20239" lon="-14.17626">
        <ele>118.4</ele>
        <time>2021-07-05 14:25:22</time>
      </trkpt>
      <trkpt lat="28.20231" lon="-14.17627">
        <ele>117.8</ele>
        <time>2021-07-05 14:25:23</time>
      </trkpt>
      <trkpt lat="28.20222" lon="-14.17627">
        <ele>117.6</ele>
        <time>2021-07-05 14:25:24</time>
      </trkpt>
      <trkpt lat="28.20213" lon="-14.17627">
        <ele>117.6</ele>
        <time>2021-07-05 14:25:25</time>
      </trkpt>
      <trkpt lat="28.20205" lon="-14.17628">
        <ele>117.2</ele>
        <time>2021-07-05 14:25:26</time>
      </trkpt>
      <trkpt lat="28.20196" lon="-14.17627">
        <ele>117</ele>
        <time>2021-07-05 14:25:27</time>
      </trkpt>
      <trkpt lat="28.20187" lon="-14.17626">
        <ele>116.6</ele>
        <time>2021-07-05 14:25:28</time>
      </trkpt>
      <trkpt lat="28.20178" lon="-14.17626">
        <ele>116.2</ele>
        <time>2021-07-05 14:25:29</time>
      </trkpt>
      <trkpt lat="28.2017" lon="-14.17627">
        <ele>115.8</ele>
        <time>2021-07-05 14:25:30</time>
      </trkpt>
      <trkpt lat="28.20161" lon="-14.17627">
        <ele>115.8</ele>
        <time>2021-07-05 14:25:31</time>
      </trkpt>
      <trkpt lat="28.20152" lon="-14.17629">
        <ele>115.6</ele>
        <time>2021-07-05 14:25:32</time>
      </trkpt>
      <trkpt lat="28.20144" lon="-14.17631">
        <ele>115.2</ele>
        <time>2021-07-05 14:25:33</time>
      </trkpt>
      <trkpt lat="28.20136" lon="-14.17634">
        <ele>114.8</ele>
        <time>2021-07-05 14:25:34</time>
      </trkpt>
      <trkpt lat="28.20129" lon="-14.17638">
        <ele>114.6</ele>
        <time>2021-07-05 14:25:35</time>
      </trkpt>
      <trkpt lat="28.20122" lon="-14.17642">
        <ele>114.2</ele>
        <time>2021-07-05 14:25:36</time>
      </trkpt>
      <trkpt lat="28.20115" lon="-14.17646">
        <ele>113.8</ele>
        <time>2021-07-05 14:25:37</time>
      </trkpt>
      <trkpt lat="28.20108" lon="-14.17651">
        <ele>113.4</ele>
        <time>2021-07-05 14:25:38</time>
      </trkpt>
      <trkpt lat="28.20101" lon="-14.17656">
        <ele>113.4</ele>
        <time>2021-07-05 14:25:39</time>
      </trkpt>
      <trkpt lat="28.20093" lon="-14.1766">
        <ele>113</ele>
        <time>2021-07-05 14:25:40</time>
      </trkpt>
      <trkpt lat="28.20086" lon="-14.17664">
        <ele>112.6</ele>
        <time>2021-07-05 14:25:41</time>
      </trkpt>
      <trkpt lat="28.20079" lon="-14.17668">
        <ele>112.2</ele>
        <time>2021-07-05 14:25:42</time>
      </trkpt>
      <trkpt lat="28.20072" lon="-14.17672">
        <ele>111.8</ele>
        <time>2021-07-05 14:25:43</time>
      </trkpt>
      <trkpt lat="28.20064" lon="-14.17677">
        <ele>111.6</ele>
        <time>2021-07-05 14:25:44</time>
      </trkpt>
      <trkpt lat="28.20057" lon="-14.17682">
        <ele>111.2</ele>
        <time>2021-07-05 14:25:45</time>
      </trkpt>
      <trkpt lat="28.20051" lon="-14.17687">
        <ele>110.6</ele>
        <time>2021-07-05 14:25:46</time>
      </trkpt>
      <trkpt lat="28.20044" lon="-14.17692">
        <ele>110.6</ele>
        <time>2021-07-05 14:25:47</time>
      </trkpt>
      <trkpt lat="28.20038" lon="-14.17698">
        <ele>110.2</ele>
        <time>2021-07-05 14:25:48</time>
      </trkpt>
      <trkpt lat="28.20032" lon="-14.17703">
        <ele>110.2</ele>
        <time>2021-07-05 14:25:49</time>
      </trkpt>
      <trkpt lat="28.20026" lon="-14.17709">
        <ele>110</ele>
        <time>2021-07-05 14:25:50</time>
      </trkpt>
      <trkpt lat="28.20021" lon="-14.17715">
        <ele>109.6</ele>
        <time>2021-07-05 14:25:51</time>
      </trkpt>
      <trkpt lat="28.20016" lon="-14.17722">
        <ele>109.6</ele>
        <time>2021-07-05 14:25:52</time>
      </trkpt>
      <trkpt lat="28.20011" lon="-14.17728">
        <ele>109.6</ele>
        <time>2021-07-05 14:25:53</time>
      </trkpt>
      <trkpt lat="28.20006" lon="-14.17736">
        <ele>109.4</ele>
        <time>2021-07-05 14:25:54</time>
      </trkpt>
      <trkpt lat="28.20002" lon="-14.17744">
        <ele>109.4</ele>
        <time>2021-07-05 14:25:55</time>
      </trkpt>
      <trkpt lat="28.19999" lon="-14.17751">
        <ele>109.2</ele>
        <time>2021-07-05 14:25:56</time>
      </trkpt>
      <trkpt lat="28.19995" lon="-14.17758">
        <ele>109.2</ele>
        <time>2021-07-05 14:25:57</time>
      </trkpt>
      <trkpt lat="28.1999" lon="-14.17765">
        <ele>109.4</ele>
        <time>2021-07-05 14:25:58</time>
      </trkpt>
      <trkpt lat="28.19985" lon="-14.17771">
        <ele>109.4</ele>
        <time>2021-07-05 14:25:59</time>
      </trkpt>
      <trkpt lat="28.19981" lon="-14.17777">
        <ele>109.4</ele>
        <time>2021-07-05 14:26:00</time>
      </trkpt>
      <trkpt lat="28.19976" lon="-14.17783">
        <ele>109.4</ele>
        <time>2021-07-05 14:26:01</time>
      </trkpt>
      <trkpt lat="28.19971" lon="-14.1779">
        <ele>109.4</ele>
        <time>2021-07-05 14:26:02</time>
      </trkpt>
      <trkpt lat="28.19966" lon="-14.17796">
        <ele>109.4</ele>
        <time>2021-07-05 14:26:03</time>
      </trkpt>
      <trkpt lat="28.19961" lon="-14.17802">
        <ele>109.2</ele>
        <time>2021-07-05 14:26:04</time>
      </trkpt>
      <trkpt lat="28.19956" lon="-14.17808">
        <ele>109</ele>
        <time>2021-07-05 14:26:05</time>
      </trkpt>
      <trkpt lat="28.19952" lon="-14.17814">
        <ele>108.6</ele>
        <time>2021-07-05 14:26:06</time>
      </trkpt>
      <trkpt lat="28.19946" lon="-14.17819">
        <ele>108.4</ele>
        <time>2021-07-05 14:26:07</time>
      </trkpt>
      <trkpt lat="28.19941" lon="-14.17824">
        <ele>108.4</ele>
        <time>2021-07-05 14:26:08</time>
      </trkpt>
      <trkpt lat="28.19935" lon="-14.1783">
        <ele>108</ele>
        <time>2021-07-05 14:26:09</time>
      </trkpt>
      <trkpt lat="28.1993" lon="-14.17834">
        <ele>107.8</ele>
        <time>2021-07-05 14:26:10</time>
      </trkpt>
      <trkpt lat="28.19924" lon="-14.17839">
        <ele>107.2</ele>
        <time>2021-07-05 14:26:11</time>
      </trkpt>
      <trkpt lat="28.19918" lon="-14.17844">
        <ele>107.2</ele>
        <time>2021-07-05 14:26:12</time>
      </trkpt>
      <trkpt lat="28.19912" lon="-14.17849">
        <ele>106.8</ele>
        <time>2021-07-05 14:26:13</time>
      </trkpt>
      <trkpt lat="28.19905" lon="-14.17854">
        <ele>106.4</ele>
        <time>2021-07-05 14:26:14</time>
      </trkpt>
      <trkpt lat="28.19899" lon="-14.17858">
        <ele>106.2</ele>
        <time>2021-07-05 14:26:15</time>
      </trkpt>
      <trkpt lat="28.19892" lon="-14.17862">
        <ele>105.8</ele>
        <time>2021-07-05 14:26:16</time>
      </trkpt>
      <trkpt lat="28.19885" lon="-14.17866">
        <ele>105.4</ele>
        <time>2021-07-05 14:26:17</time>
      </trkpt>
      <trkpt lat="28.19879" lon="-14.1787">
        <ele>105.2</ele>
        <time>2021-07-05 14:26:18</time>
      </trkpt>
      <trkpt lat="28.19872" lon="-14.17874">
        <ele>104.8</ele>
        <time>2021-07-05 14:26:19</time>
      </trkpt>
      <trkpt lat="28.19865" lon="-14.17879">
        <ele>104.8</ele>
        <time>2021-07-05 14:26:20</time>
      </trkpt>
      <trkpt lat="28.19857" lon="-14.17884">
        <ele>104.4</ele>
        <time>2021-07-05 14:26:21</time>
      </trkpt>
      <trkpt lat="28.1985" lon="-14.17887">
        <ele>103.6</ele>
        <time>2021-07-05 14:26:22</time>
      </trkpt>
      <trkpt lat="28.19843" lon="-14.17891">
        <ele>103.6</ele>
        <time>2021-07-05 14:26:23</time>
      </trkpt>
      <trkpt lat="28.19835" lon="-14.17895">
        <ele>103.4</ele>
        <time>2021-07-05 14:26:24</time>
      </trkpt>
      <trkpt lat="28.19829" lon="-14.17899">
        <ele>102.8</ele>
        <time>2021-07-05 14:26:25</time>
      </trkpt>
      <trkpt lat="28.19822" lon="-14.17905">
        <ele>102</ele>
        <time>2021-07-05 14:26:26</time>
      </trkpt>
      <trkpt lat="28.19816" lon="-14.17911">
        <ele>102</ele>
        <time>2021-07-05 14:26:27</time>
      </trkpt>
      <trkpt lat="28.19809" lon="-14.17917">
        <ele>101.4</ele>
        <time>2021-07-05 14:26:28</time>
      </trkpt>
      <trkpt lat="28.19803" lon="-14.17924">
        <ele>101.4</ele>
        <time>2021-07-05 14:26:29</time>
      </trkpt>
      <trkpt lat="28.19796" lon="-14.1793">
        <ele>100.8</ele>
        <time>2021-07-05 14:26:30</time>
      </trkpt>
      <trkpt lat="28.19789" lon="-14.17937">
        <ele>100.8</ele>
        <time>2021-07-05 14:26:31</time>
      </trkpt>
      <trkpt lat="28.19783" lon="-14.17943">
        <ele>100.4</ele>
        <time>2021-07-05 14:26:32</time>
      </trkpt>
      <trkpt lat="28.19776" lon="-14.1795">
        <ele>100</ele>
        <time>2021-07-05 14:26:33</time>
      </trkpt>
      <trkpt lat="28.1977" lon="-14.17957">
        <ele>100</ele>
        <time>2021-07-05 14:26:34</time>
      </trkpt>
      <trkpt lat="28.19764" lon="-14.17964">
        <ele>99.8</ele>
        <time>2021-07-05 14:26:35</time>
      </trkpt>
      <trkpt lat="28.19758" lon="-14.1797">
        <ele>99.8</ele>
        <time>2021-07-05 14:26:36</time>
      </trkpt>
      <trkpt lat="28.19752" lon="-14.17977">
        <ele>99.6</ele>
        <time>2021-07-05 14:26:37</time>
      </trkpt>
      <trkpt lat="28.19747" lon="-14.17985">
        <ele>99.6</ele>
        <time>2021-07-05 14:26:38</time>
      </trkpt>
      <trkpt lat="28.19742" lon="-14.17993">
        <ele>99</ele>
        <time>2021-07-05 14:26:39</time>
      </trkpt>
      <trkpt lat="28.19737" lon="-14.18">
        <ele>99</ele>
        <time>2021-07-05 14:26:40</time>
      </trkpt>
      <trkpt lat="28.19732" lon="-14.18008">
        <ele>98.6</ele>
        <time>2021-07-05 14:26:41</time>
      </trkpt>
      <trkpt lat="28.19726" lon="-14.18015">
        <ele>98.2</ele>
        <time>2021-07-05 14:26:42</time>
      </trkpt>
      <trkpt lat="28.19721" lon="-14.18023">
        <ele>98</ele>
        <time>2021-07-05 14:26:43</time>
      </trkpt>
      <trkpt lat="28.19717" lon="-14.18031">
        <ele>97.6</ele>
        <time>2021-07-05 14:26:44</time>
      </trkpt>
      <trkpt lat="28.19713" lon="-14.1804">
        <ele>97.2</ele>
        <time>2021-07-05 14:26:45</time>
      </trkpt>
      <trkpt lat="28.19709" lon="-14.18048">
        <ele>97.2</ele>
        <time>2021-07-05 14:26:46</time>
      </trkpt>
      <trkpt lat="28.19703" lon="-14.18054">
        <ele>96.8</ele>
        <time>2021-07-05 14:26:47</time>
      </trkpt>
      <trkpt lat="28.19697" lon="-14.18061">
        <ele>96.6</ele>
        <time>2021-07-05 14:26:48</time>
      </trkpt>
      <trkpt lat="28.19692" lon="-14.18068">
        <ele>96.6</ele>
        <time>2021-07-05 14:26:49</time>
      </trkpt>
      <trkpt lat="28.19685" lon="-14.18075">
        <ele>96.4</ele>
        <time>2021-07-05 14:26:50</time>
      </trkpt>
      <trkpt lat="28.19679" lon="-14.18081">
        <ele>96.4</ele>
        <time>2021-07-05 14:26:51</time>
      </trkpt>
      <trkpt lat="28.19673" lon="-14.18087">
        <ele>96.4</ele>
        <time>2021-07-05 14:26:52</time>
      </trkpt>
      <trkpt lat="28.19666" lon="-14.18093">
        <ele>96</ele>
        <time>2021-07-05 14:26:53</time>
      </trkpt>
      <trkpt lat="28.1966" lon="-14.18099">
        <ele>96</ele>
        <time>2021-07-05 14:26:54</time>
      </trkpt>
      <trkpt lat="28.19654" lon="-14.18105">
        <ele>95.6</ele>
        <time>2021-07-05 14:26:55</time>
      </trkpt>
      <trkpt lat="28.19646" lon="-14.1811">
        <ele>95.4</ele>
        <time>2021-07-05 14:26:56</time>
      </trkpt>
      <trkpt lat="28.1964" lon="-14.18116">
        <ele>94.6</ele>
        <time>2021-07-05 14:26:57</time>
      </trkpt>
      <trkpt lat="28.19634" lon="-14.18122">
        <ele>94.6</ele>
        <time>2021-07-05 14:26:58</time>
      </trkpt>
      <trkpt lat="28.19628" lon="-14.18128">
        <ele>94.4</ele>
        <time>2021-07-05 14:26:59</time>
      </trkpt>
      <trkpt lat="28.19623" lon="-14.18134">
        <ele>94.2</ele>
        <time>2021-07-05 14:27:00</time>
      </trkpt>
      <trkpt lat="28.19617" lon="-14.1814">
        <ele>93.6</ele>
        <time>2021-07-05 14:27:01</time>
      </trkpt>
      <trkpt lat="28.19612" lon="-14.18147">
        <ele>93.4</ele>
        <time>2021-07-05 14:27:02</time>
      </trkpt>
      <trkpt lat="28.19606" lon="-14.18154">
        <ele>93.4</ele>
        <time>2021-07-05 14:27:03</time>
      </trkpt>
      <trkpt lat="28.196" lon="-14.18161">
        <ele>93.4</ele>
        <time>2021-07-05 14:27:04</time>
      </trkpt>
      <trkpt lat="28.19595" lon="-14.18167">
        <ele>92.8</ele>
        <time>2021-07-05 14:27:05</time>
      </trkpt>
      <trkpt lat="28.1959" lon="-14.18174">
        <ele>92.8</ele>
        <time>2021-07-05 14:27:06</time>
      </trkpt>
      <trkpt lat="28.19585" lon="-14.1818">
        <ele>92.8</ele>
        <time>2021-07-05 14:27:07</time>
      </trkpt>
      <trkpt lat="28.1958" lon="-14.18186">
        <ele>92.4</ele>
        <time>2021-07-05 14:27:08</time>
      </trkpt>
      <trkpt lat="28.19574" lon="-14.18191">
        <ele>92.4</ele>
        <time>2021-07-05 14:27:09</time>
      </trkpt>
      <trkpt lat="28.19567" lon="-14.18195">
        <ele>92.2</ele>
        <time>2021-07-05 14:27:10</time>
      </trkpt>
      <trkpt lat="28.19561" lon="-14.18199">
        <ele>91.6</ele>
        <time>2021-07-05 14:27:11</time>
      </trkpt>
      <trkpt lat="28.19554" lon="-14.18203">
        <ele>91.6</ele>
        <time>2021-07-05 14:27:12</time>
      </trkpt>
      <trkpt lat="28.19547" lon="-14.18207">
        <ele>91.4</ele>
        <time>2021-07-05 14:27:13</time>
      </trkpt>
      <trkpt lat="28.1954" lon="-14.18211">
        <ele>91.4</ele>
        <time>2021-07-05 14:27:14</time>
      </trkpt>
      <trkpt lat="28.19533" lon="-14.18215">
        <ele>91</ele>
        <time>2021-07-05 14:27:15</time>
      </trkpt>
      <trkpt lat="28.19527" lon="-14.18219">
        <ele>90.8</ele>
        <time>2021-07-05 14:27:16</time>
      </trkpt>
      <trkpt lat="28.1952" lon="-14.18222">
        <ele>90.4</ele>
        <time>2021-07-05 14:27:17</time>
      </trkpt>
      <trkpt lat="28.19513" lon="-14.18226">
        <ele>90.2</ele>
        <time>2021-07-05 14:27:18</time>
      </trkpt>
      <trkpt lat="28.19506" lon="-14.1823">
        <ele>90.2</ele>
        <time>2021-07-05 14:27:19</time>
      </trkpt>
      <trkpt lat="28.19499" lon="-14.18234">
        <ele>89.8</ele>
        <time>2021-07-05 14:27:20</time>
      </trkpt>
      <trkpt lat="28.19491" lon="-14.18238">
        <ele>89.6</ele>
        <time>2021-07-05 14:27:21</time>
      </trkpt>
      <trkpt lat="28.19484" lon="-14.18243">
        <ele>89.2</ele>
        <time>2021-07-05 14:27:22</time>
      </trkpt>
      <trkpt lat="28.19478" lon="-14.18248">
        <ele>88.6</ele>
        <time>2021-07-05 14:27:23</time>
      </trkpt>
      <trkpt lat="28.1947" lon="-14.18253">
        <ele>88.4</ele>
        <time>2021-07-05 14:27:24</time>
      </trkpt>
      <trkpt lat="28.19464" lon="-14.18259">
        <ele>88</ele>
        <time>2021-07-05 14:27:25</time>
      </trkpt>
      <trkpt lat="28.19457" lon="-14.18264">
        <ele>87.6</ele>
        <time>2021-07-05 14:27:26</time>
      </trkpt>
      <trkpt lat="28.19451" lon="-14.18269">
        <ele>87.6</ele>
        <time>2021-07-05 14:27:27</time>
      </trkpt>
      <trkpt lat="28.19446" lon="-14.18276">
        <ele>87.2</ele>
        <time>2021-07-05 14:27:28</time>
      </trkpt>
      <trkpt lat="28.19439" lon="-14.18281">
        <ele>86.4</ele>
        <time>2021-07-05 14:27:29</time>
      </trkpt>
      <trkpt lat="28.19433" lon="-14.18287">
        <ele>85.8</ele>
        <time>2021-07-05 14:27:30</time>
      </trkpt>
      <trkpt lat="28.19427" lon="-14.18293">
        <ele>85.8</ele>
        <time>2021-07-05 14:27:31</time>
      </trkpt>
      <trkpt lat="28.19421" lon="-14.18299">
        <ele>85.2</ele>
        <time>2021-07-05 14:27:32</time>
      </trkpt>
      <trkpt lat="28.19415" lon="-14.18305">
        <ele>85.2</ele>
        <time>2021-07-05 14:27:33</time>
      </trkpt>
      <trkpt lat="28.19409" lon="-14.1831">
        <ele>84.6</ele>
        <time>2021-07-05 14:27:34</time>
      </trkpt>
      <trkpt lat="28.19403" lon="-14.18316">
        <ele>84.6</ele>
        <time>2021-07-05 14:27:35</time>
      </trkpt>
      <trkpt lat="28.19398" lon="-14.18323">
        <ele>84.2</ele>
        <time>2021-07-05 14:27:36</time>
      </trkpt>
      <trkpt lat="28.19394" lon="-14.1833">
        <ele>83.8</ele>
        <time>2021-07-05 14:27:37</time>
      </trkpt>
      <trkpt lat="28.19389" lon="-14.18337">
        <ele>83.6</ele>
        <time>2021-07-05 14:27:38</time>
      </trkpt>
      <trkpt lat="28.19384" lon="-14.18344">
        <ele>83.6</ele>
        <time>2021-07-05 14:27:39</time>
      </trkpt>
      <trkpt lat="28.19379" lon="-14.1835">
        <ele>83.6</ele>
        <time>2021-07-05 14:27:40</time>
      </trkpt>
      <trkpt lat="28.19374" lon="-14.18356">
        <ele>83.4</ele>
        <time>2021-07-05 14:27:41</time>
      </trkpt>
      <trkpt lat="28.19368" lon="-14.18362">
        <ele>83.4</ele>
        <time>2021-07-05 14:27:42</time>
      </trkpt>
      <trkpt lat="28.19362" lon="-14.18368">
        <ele>83</ele>
        <time>2021-07-05 14:27:43</time>
      </trkpt>
      <trkpt lat="28.19356" lon="-14.18373">
        <ele>83</ele>
        <time>2021-07-05 14:27:44</time>
      </trkpt>
      <trkpt lat="28.19349" lon="-14.18376">
        <ele>83</ele>
        <time>2021-07-05 14:27:45</time>
      </trkpt>
      <trkpt lat="28.19341" lon="-14.18378">
        <ele>82.4</ele>
        <time>2021-07-05 14:27:46</time>
      </trkpt>
      <trkpt lat="28.19334" lon="-14.1838">
        <ele>82</ele>
        <time>2021-07-05 14:27:47</time>
      </trkpt>
      <trkpt lat="28.19325" lon="-14.18382">
        <ele>81.4</ele>
        <time>2021-07-05 14:27:48</time>
      </trkpt>
      <trkpt lat="28.19317" lon="-14.18383">
        <ele>81</ele>
        <time>2021-07-05 14:27:49</time>
      </trkpt>
      <trkpt lat="28.1931" lon="-14.18383">
        <ele>79.8</ele>
        <time>2021-07-05 14:27:50</time>
      </trkpt>
      <trkpt lat="28.19303" lon="-14.18383">
        <ele>79.8</ele>
        <time>2021-07-05 14:27:51</time>
      </trkpt>
      <trkpt lat="28.19296" lon="-14.18382">
        <ele>79.6</ele>
        <time>2021-07-05 14:27:52</time>
      </trkpt>
      <trkpt lat="28.1929" lon="-14.18382">
        <ele>79.4</ele>
        <time>2021-07-05 14:27:53</time>
      </trkpt>
      <trkpt lat="28.19284" lon="-14.18383">
        <ele>79.4</ele>
        <time>2021-07-05 14:27:54</time>
      </trkpt>
      <trkpt lat="28.19279" lon="-14.18382">
        <ele>79.4</ele>
        <time>2021-07-05 14:27:55</time>
      </trkpt>
      <trkpt lat="28.19274" lon="-14.18382">
        <ele>79.4</ele>
        <time>2021-07-05 14:27:56</time>
      </trkpt>
      <trkpt lat="28.19268" lon="-14.18383">
        <ele>79.4</ele>
        <time>2021-07-05 14:27:57</time>
      </trkpt>
      <trkpt lat="28.19263" lon="-14.18383">
        <ele>79</ele>
        <time>2021-07-05 14:27:58</time>
      </trkpt>
      <trkpt lat="28.19257" lon="-14.18383">
        <ele>79</ele>
        <time>2021-07-05 14:27:59</time>
      </trkpt>
      <trkpt lat="28.19252" lon="-14.18383">
        <ele>79</ele>
        <time>2021-07-05 14:28:00</time>
      </trkpt>
      <trkpt lat="28.19245" lon="-14.18383">
        <ele>79</ele>
        <time>2021-07-05 14:28:01</time>
      </trkpt>
      <trkpt lat="28.1924" lon="-14.18383">
        <ele>79</ele>
        <time>2021-07-05 14:28:02</time>
      </trkpt>
      <trkpt lat="28.19233" lon="-14.18383">
        <ele>79</ele>
        <time>2021-07-05 14:28:03</time>
      </trkpt>
      <trkpt lat="28.19227" lon="-14.18384">
        <ele>79</ele>
        <time>2021-07-05 14:28:04</time>
      </trkpt>
      <trkpt lat="28.19221" lon="-14.18385">
        <ele>79</ele>
        <time>2021-07-05 14:28:05</time>
      </trkpt>
      <trkpt lat="28.19215" lon="-14.18385">
        <ele>79</ele>
        <time>2021-07-05 14:28:06</time>
      </trkpt>
      <trkpt lat="28.19209" lon="-14.18385">
        <ele>79.4</ele>
        <time>2021-07-05 14:28:07</time>
      </trkpt>
      <trkpt lat="28.19203" lon="-14.18385">
        <ele>79.4</ele>
        <time>2021-07-05 14:28:08</time>
      </trkpt>
      <trkpt lat="28.19198" lon="-14.18384">
        <ele>79.8</ele>
        <time>2021-07-05 14:28:09</time>
      </trkpt>
      <trkpt lat="28.19192" lon="-14.18384">
        <ele>79.8</ele>
        <time>2021-07-05 14:28:10</time>
      </trkpt>
      <trkpt lat="28.19186" lon="-14.18384">
        <ele>79.8</ele>
        <time>2021-07-05 14:28:11</time>
      </trkpt>
      <trkpt lat="28.19181" lon="-14.18385">
        <ele>80.2</ele>
        <time>2021-07-05 14:28:12</time>
      </trkpt>
      <trkpt lat="28.19175" lon="-14.18386">
        <ele>80.2</ele>
        <time>2021-07-05 14:28:13</time>
      </trkpt>
      <trkpt lat="28.1917" lon="-14.18387">
        <ele>80.2</ele>
        <time>2021-07-05 14:28:14</time>
      </trkpt>
      <trkpt lat="28.19164" lon="-14.18388">
        <ele>80.2</ele>
        <time>2021-07-05 14:28:15</time>
      </trkpt>
      <trkpt lat="28.19159" lon="-14.18389">
        <ele>80.2</ele>
        <time>2021-07-05 14:28:16</time>
      </trkpt>
      <trkpt lat="28.19154" lon="-14.1839">
        <ele>80.2</ele>
        <time>2021-07-05 14:28:17</time>
      </trkpt>
      <trkpt lat="28.1915" lon="-14.18391">
        <ele>80.2</ele>
        <time>2021-07-05 14:28:18</time>
      </trkpt>
      <trkpt lat="28.19146" lon="-14.18393">
        <ele>80.6</ele>
        <time>2021-07-05 14:28:19</time>
      </trkpt>
      <trkpt lat="28.19143" lon="-14.18395">
        <ele>81</ele>
        <time>2021-07-05 14:28:20</time>
      </trkpt>
      <trkpt lat="28.19139" lon="-14.18396">
        <ele>81.4</ele>
        <time>2021-07-05 14:28:21</time>
      </trkpt>
      <trkpt lat="28.19136" lon="-14.18399">
        <ele>81.8</ele>
        <time>2021-07-05 14:28:22</time>
      </trkpt>
      <trkpt lat="28.19133" lon="-14.18401">
        <ele>82.8</ele>
        <time>2021-07-05 14:28:23</time>
      </trkpt>
      <trkpt lat="28.1913" lon="-14.18403">
        <ele>83.2</ele>
        <time>2021-07-05 14:28:24</time>
      </trkpt>
      <trkpt lat="28.19125" lon="-14.18405">
        <ele>83.2</ele>
        <time>2021-07-05 14:28:25</time>
      </trkpt>
      <trkpt lat="28.19121" lon="-14.18407">
        <ele>83.8</ele>
        <time>2021-07-05 14:28:26</time>
      </trkpt>
      <trkpt lat="28.19117" lon="-14.18408">
        <ele>84.2</ele>
        <time>2021-07-05 14:28:27</time>
      </trkpt>
      <trkpt lat="28.19112" lon="-14.1841">
        <ele>84.8</ele>
        <time>2021-07-05 14:28:28</time>
      </trkpt>
      <trkpt lat="28.19107" lon="-14.18413">
        <ele>85</ele>
        <time>2021-07-05 14:28:29</time>
      </trkpt>
      <trkpt lat="28.19102" lon="-14.18415">
        <ele>85.4</ele>
        <time>2021-07-05 14:28:30</time>
      </trkpt>
      <trkpt lat="28.19097" lon="-14.18417">
        <ele>85.4</ele>
        <time>2021-07-05 14:28:31</time>
      </trkpt>
      <trkpt lat="28.19092" lon="-14.18419">
        <ele>85.4</ele>
        <time>2021-07-05 14:28:32</time>
      </trkpt>
      <trkpt lat="28.19087" lon="-14.18421">
        <ele>85.4</ele>
        <time>2021-07-05 14:28:33</time>
      </trkpt>
      <trkpt lat="28.19082" lon="-14.18423">
        <ele>85</ele>
        <time>2021-07-05 14:28:34</time>
      </trkpt>
      <trkpt lat="28.19077" lon="-14.18425">
        <ele>85</ele>
        <time>2021-07-05 14:28:35</time>
      </trkpt>
      <trkpt lat="28.19072" lon="-14.18428">
        <ele>84.8</ele>
        <time>2021-07-05 14:28:36</time>
      </trkpt>
      <trkpt lat="28.19067" lon="-14.18431">
        <ele>84.6</ele>
        <time>2021-07-05 14:28:37</time>
      </trkpt>
      <trkpt lat="28.19062" lon="-14.18434">
        <ele>84.6</ele>
        <time>2021-07-05 14:28:38</time>
      </trkpt>
      <trkpt lat="28.19058" lon="-14.18438">
        <ele>84.6</ele>
        <time>2021-07-05 14:28:39</time>
      </trkpt>
      <trkpt lat="28.19054" lon="-14.18442">
        <ele>84.6</ele>
        <time>2021-07-05 14:28:40</time>
      </trkpt>
      <trkpt lat="28.19049" lon="-14.18446">
        <ele>84.6</ele>
        <time>2021-07-05 14:28:41</time>
      </trkpt>
      <trkpt lat="28.19045" lon="-14.18449">
        <ele>84.6</ele>
        <time>2021-07-05 14:28:42</time>
      </trkpt>
      <trkpt lat="28.1904" lon="-14.18454">
        <ele>84.6</ele>
        <time>2021-07-05 14:28:43</time>
      </trkpt>
      <trkpt lat="28.19037" lon="-14.18458">
        <ele>84.6</ele>
        <time>2021-07-05 14:28:44</time>
      </trkpt>
      <trkpt lat="28.19033" lon="-14.18461">
        <ele>84.8</ele>
        <time>2021-07-05 14:28:45</time>
      </trkpt>
      <trkpt lat="28.19031" lon="-14.18463">
        <ele>84.8</ele>
        <time>2021-07-05 14:28:46</time>
      </trkpt>
      <trkpt lat="28.19029" lon="-14.18465">
        <ele>84.8</ele>
        <time>2021-07-05 14:28:47</time>
      </trkpt>
      <trkpt lat="28.19027" lon="-14.18468">
        <ele>84.8</ele>
        <time>2021-07-05 14:28:48</time>
      </trkpt>
      <trkpt lat="28.19026" lon="-14.18471">
        <ele>84.6</ele>
        <time>2021-07-05 14:28:49</time>
      </trkpt>
      <trkpt lat="28.19024" lon="-14.18473">
        <ele>84.6</ele>
        <time>2021-07-05 14:28:50</time>
      </trkpt>
      <trkpt lat="28.19022" lon="-14.18476">
        <ele>84.6</ele>
        <time>2021-07-05 14:28:51</time>
      </trkpt>
      <trkpt lat="28.1902" lon="-14.18479">
        <ele>84.6</ele>
        <time>2021-07-05 14:28:52</time>
      </trkpt>
      <trkpt lat="28.19017" lon="-14.18482">
        <ele>84.4</ele>
        <time>2021-07-05 14:28:53</time>
      </trkpt>
      <trkpt lat="28.19015" lon="-14.18484">
        <ele>84</ele>
        <time>2021-07-05 14:28:54</time>
      </trkpt>
      <trkpt lat="28.19012" lon="-14.18487">
        <ele>83.8</ele>
        <time>2021-07-05 14:28:55</time>
      </trkpt>
      <trkpt lat="28.19009" lon="-14.18489">
        <ele>83.4</ele>
        <time>2021-07-05 14:28:56</time>
      </trkpt>
      <trkpt lat="28.19007" lon="-14.18492">
        <ele>83.4</ele>
        <time>2021-07-05 14:28:57</time>
      </trkpt>
      <trkpt lat="28.19004" lon="-14.18495">
        <ele>83.6</ele>
        <time>2021-07-05 14:28:58</time>
      </trkpt>
      <trkpt lat="28.19001" lon="-14.18497">
        <ele>84</ele>
        <time>2021-07-05 14:28:59</time>
      </trkpt>
      <trkpt lat="28.19" lon="-14.18499">
        <ele>84.6</ele>
        <time>2021-07-05 14:29:00</time>
      </trkpt>
      <trkpt lat="28.18999" lon="-14.185">
        <ele>85</ele>
        <time>2021-07-05 14:29:01</time>
      </trkpt>
      <trkpt lat="28.18998" lon="-14.185">
        <ele>85.4</ele>
        <time>2021-07-05 14:29:02</time>
      </trkpt>
      <trkpt lat="28.18998" lon="-14.18501">
        <ele>85.8</ele>
        <time>2021-07-05 14:29:03</time>
      </trkpt>
      <trkpt lat="28.18998" lon="-14.18502">
        <ele>86</ele>
        <time>2021-07-05 14:29:04</time>
      </trkpt>
      <trkpt lat="28.18997" lon="-14.18503">
        <ele>86</ele>
        <time>2021-07-05 14:29:05</time>
      </trkpt>
      <trkpt lat="28.18996" lon="-14.18504">
        <ele>86</ele>
        <time>2021-07-05 14:29:06</time>
      </trkpt>
      <trkpt lat="28.18995" lon="-14.18507">
        <ele>85.2</ele>
        <time>2021-07-05 14:29:07</time>
      </trkpt>
      <trkpt lat="28.18993" lon="-14.18509">
        <ele>85.2</ele>
        <time>2021-07-05 14:29:08</time>
      </trkpt>
      <trkpt lat="28.18992" lon="-14.18511">
        <ele>85</ele>
        <time>2021-07-05 14:29:09</time>
      </trkpt>
      <trkpt lat="28.1899" lon="-14.18514">
        <ele>85</ele>
        <time>2021-07-05 14:29:10</time>
      </trkpt>
      <trkpt lat="28.18987" lon="-14.18516">
        <ele>84.6</ele>
        <time>2021-07-05 14:29:11</time>
      </trkpt>
      <trkpt lat="28.18985" lon="-14.18519">
        <ele>84.6</ele>
        <time>2021-07-05 14:29:12</time>
      </trkpt>
      <trkpt lat="28.18982" lon="-14.18522">
        <ele>84.2</ele>
        <time>2021-07-05 14:29:13</time>
      </trkpt>
      <trkpt lat="28.18981" lon="-14.18524">
        <ele>84.2</ele>
        <time>2021-07-05 14:29:14</time>
      </trkpt>
      <trkpt lat="28.1898" lon="-14.18525">
        <ele>83.8</ele>
        <time>2021-07-05 14:29:15</time>
      </trkpt>
      <trkpt lat="28.1898" lon="-14.18526">
        <ele>83.6</ele>
        <time>2021-07-05 14:29:16</time>
      </trkpt>
      <trkpt lat="28.1898" lon="-14.18525">
        <ele>83.6</ele>
        <time>2021-07-05 14:29:17</time>
      </trkpt>
      <trkpt lat="28.1898" lon="-14.18525">
        <ele>83.6</ele>
        <time>2021-07-05 14:29:18</time>
      </trkpt>
      <trkpt lat="28.1898" lon="-14.18525">
        <ele>83.6</ele>
        <time>2021-07-05 14:29:19</time>
      </trkpt>
      <trkpt lat="28.18979" lon="-14.18525">
        <ele>82</ele>
        <time>2021-07-05 14:29:20</time>
      </trkpt>
      <trkpt lat="28.18978" lon="-14.18525">
        <ele>81.6</ele>
        <time>2021-07-05 14:29:59</time>
      </trkpt>
      <trkpt lat="28.18978" lon="-14.18525">
        <ele>81.2</ele>
        <time>2021-07-05 14:30:00</time>
      </trkpt>
      <trkpt lat="28.18978" lon="-14.18524">
        <ele>80.8</ele>
        <time>2021-07-05 14:30:01</time>
      </trkpt>
      <trkpt lat="28.18978" lon="-14.18524">
        <ele>80.6</ele>
        <time>2021-07-05 14:30:02</time>
      </trkpt>
      <trkpt lat="28.18979" lon="-14.18525">
        <ele>78.8</ele>
        <time>2021-07-05 14:30:03</time>
      </trkpt>
      <trkpt lat="28.18979" lon="-14.18526">
        <ele>78.8</ele>
        <time>2021-07-05 14:30:04</time>
      </trkpt>
      <trkpt lat="28.18979" lon="-14.18527">
        <ele>78.6</ele>
        <time>2021-07-05 14:30:54</time>
      </trkpt>
      <trkpt lat="28.18979" lon="-14.18528">
        <ele>78.6</ele>
        <time>2021-07-05 14:30:55</time>
      </trkpt>
      <trkpt lat="28.18978" lon="-14.18529">
        <ele>79</ele>
        <time>2021-07-05 14:30:56</time>
      </trkpt>
      <trkpt lat="28.18977" lon="-14.1853">
        <ele>79.2</ele>
        <time>2021-07-05 14:30:57</time>
      </trkpt>
      <trkpt lat="28.18976" lon="-14.18531">
        <ele>79.2</ele>
        <time>2021-07-05 14:30:58</time>
      </trkpt>
      <trkpt lat="28.18974" lon="-14.18532">
        <ele>79.6</ele>
        <time>2021-07-05 14:30:59</time>
      </trkpt>
      <trkpt lat="28.18973" lon="-14.18534">
        <ele>80</ele>
        <time>2021-07-05 14:31:00</time>
      </trkpt>
      <trkpt lat="28.18972" lon="-14.18534">
        <ele>80.2</ele>
        <time>2021-07-05 14:31:01</time>
      </trkpt>
      <trkpt lat="28.18972" lon="-14.18534">
        <ele>80.2</ele>
        <time>2021-07-05 14:31:02</time>
      </trkpt>
      <trkpt lat="28.18972" lon="-14.18534">
        <ele>80.2</ele>
        <time>2021-07-05 14:31:03</time>
      </trkpt>
      <trkpt lat="28.18972" lon="-14.18533">
        <ele>79.4</ele>
        <time>2021-07-05 14:31:04</time>
      </trkpt>
      <trkpt lat="28.18971" lon="-14.18535">
        <ele>79.4</ele>
        <time>2021-07-05 14:31:05</time>
      </trkpt>
      <trkpt lat="28.1897" lon="-14.18536">
        <ele>79.6</ele>
        <time>2021-07-05 14:31:44</time>
      </trkpt>
      <trkpt lat="28.18969" lon="-14.18538">
        <ele>79.6</ele>
        <time>2021-07-05 14:31:45</time>
      </trkpt>
      <trkpt lat="28.18968" lon="-14.1854">
        <ele>79.6</ele>
        <time>2021-07-05 14:31:46</time>
      </trkpt>
      <trkpt lat="28.18966" lon="-14.18543">
        <ele>80</ele>
        <time>2021-07-05 14:31:47</time>
      </trkpt>
      <trkpt lat="28.18964" lon="-14.18546">
        <ele>80</ele>
        <time>2021-07-05 14:31:48</time>
      </trkpt>
      <trkpt lat="28.18963" lon="-14.1855">
        <ele>80</ele>
        <time>2021-07-05 14:31:49</time>
      </trkpt>
      <trkpt lat="28.18961" lon="-14.18554">
        <ele>80</ele>
        <time>2021-07-05 14:31:50</time>
      </trkpt>
      <trkpt lat="28.18958" lon="-14.18558">
        <ele>80</ele>
        <time>2021-07-05 14:31:51</time>
      </trkpt>
      <trkpt lat="28.18956" lon="-14.18561">
        <ele>79.8</ele>
        <time>2021-07-05 14:31:52</time>
      </trkpt>
      <trkpt lat="28.18954" lon="-14.18565">
        <ele>79.8</ele>
        <time>2021-07-05 14:31:53</time>
      </trkpt>
      <trkpt lat="28.1895" lon="-14.18569">
        <ele>79.8</ele>
        <time>2021-07-05 14:31:54</time>
      </trkpt>
      <trkpt lat="28.18946" lon="-14.18572">
        <ele>79.4</ele>
        <time>2021-07-05 14:31:55</time>
      </trkpt>
      <trkpt lat="28.18942" lon="-14.18575">
        <ele>79</ele>
        <time>2021-07-05 14:31:56</time>
      </trkpt>
      <trkpt lat="28.18937" lon="-14.18578">
        <ele>78.4</ele>
        <time>2021-07-05 14:31:57</time>
      </trkpt>
      <trkpt lat="28.18932" lon="-14.18581">
        <ele>78</ele>
        <time>2021-07-05 14:31:58</time>
      </trkpt>
      <trkpt lat="28.18927" lon="-14.18584">
        <ele>77.6</ele>
        <time>2021-07-05 14:31:59</time>
      </trkpt>
      <trkpt lat="28.18922" lon="-14.18587">
        <ele>76.6</ele>
        <time>2021-07-05 14:32:00</time>
      </trkpt>
      <trkpt lat="28.18917" lon="-14.1859">
        <ele>76.6</ele>
        <time>2021-07-05 14:32:01</time>
      </trkpt>
      <trkpt lat="28.18911" lon="-14.18592">
        <ele>75.6</ele>
        <time>2021-07-05 14:32:02</time>
      </trkpt>
      <trkpt lat="28.18905" lon="-14.18595">
        <ele>75.6</ele>
        <time>2021-07-05 14:32:03</time>
      </trkpt>
      <trkpt lat="28.18898" lon="-14.18597">
        <ele>75.2</ele>
        <time>2021-07-05 14:32:04</time>
      </trkpt>
      <trkpt lat="28.18891" lon="-14.18599">
        <ele>74.8</ele>
        <time>2021-07-05 14:32:05</time>
      </trkpt>
      <trkpt lat="28.18883" lon="-14.18601">
        <ele>74.2</ele>
        <time>2021-07-05 14:32:06</time>
      </trkpt>
      <trkpt lat="28.18875" lon="-14.18603">
        <ele>73</ele>
        <time>2021-07-05 14:32:07</time>
      </trkpt>
      <trkpt lat="28.18867" lon="-14.18605">
        <ele>72.4</ele>
        <time>2021-07-05 14:32:08</time>
      </trkpt>
      <trkpt lat="28.18859" lon="-14.18606">
        <ele>72.4</ele>
        <time>2021-07-05 14:32:09</time>
      </trkpt>
      <trkpt lat="28.18851" lon="-14.18608">
        <ele>72</ele>
        <time>2021-07-05 14:32:10</time>
      </trkpt>
      <trkpt lat="28.18844" lon="-14.1861">
        <ele>71.2</ele>
        <time>2021-07-05 14:32:11</time>
      </trkpt>
      <trkpt lat="28.18837" lon="-14.18612">
        <ele>71.2</ele>
        <time>2021-07-05 14:32:12</time>
      </trkpt>
      <trkpt lat="28.18829" lon="-14.18614">
        <ele>70.6</ele>
        <time>2021-07-05 14:32:13</time>
      </trkpt>
      <trkpt lat="28.18823" lon="-14.18616">
        <ele>70.6</ele>
        <time>2021-07-05 14:32:14</time>
      </trkpt>
      <trkpt lat="28.18816" lon="-14.18618">
        <ele>70.4</ele>
        <time>2021-07-05 14:32:15</time>
      </trkpt>
      <trkpt lat="28.1881" lon="-14.1862">
        <ele>70.4</ele>
        <time>2021-07-05 14:32:16</time>
      </trkpt>
      <trkpt lat="28.18803" lon="-14.18623">
        <ele>70.4</ele>
        <time>2021-07-05 14:32:17</time>
      </trkpt>
      <trkpt lat="28.18796" lon="-14.18625">
        <ele>70.4</ele>
        <time>2021-07-05 14:32:18</time>
      </trkpt>
      <trkpt lat="28.18789" lon="-14.18628">
        <ele>70.4</ele>
        <time>2021-07-05 14:32:19</time>
      </trkpt>
      <trkpt lat="28.18782" lon="-14.1863">
        <ele>70.4</ele>
        <time>2021-07-05 14:32:20</time>
      </trkpt>
      <trkpt lat="28.18775" lon="-14.18633">
        <ele>70.2</ele>
        <time>2021-07-05 14:32:21</time>
      </trkpt>
      <trkpt lat="28.18768" lon="-14.18636">
        <ele>69.8</ele>
        <time>2021-07-05 14:32:22</time>
      </trkpt>
      <trkpt lat="28.1876" lon="-14.18638">
        <ele>69.6</ele>
        <time>2021-07-05 14:32:23</time>
      </trkpt>
      <trkpt lat="28.18753" lon="-14.18641">
        <ele>69.4</ele>
        <time>2021-07-05 14:32:24</time>
      </trkpt>
      <trkpt lat="28.18745" lon="-14.18644">
        <ele>69.2</ele>
        <time>2021-07-05 14:32:25</time>
      </trkpt>
      <trkpt lat="28.18738" lon="-14.18647">
        <ele>68.8</ele>
        <time>2021-07-05 14:32:26</time>
      </trkpt>
      <trkpt lat="28.18729" lon="-14.1865">
        <ele>68</ele>
        <time>2021-07-05 14:32:27</time>
      </trkpt>
      <trkpt lat="28.18722" lon="-14.18653">
        <ele>68</ele>
        <time>2021-07-05 14:32:28</time>
      </trkpt>
      <trkpt lat="28.18713" lon="-14.18655">
        <ele>67.6</ele>
        <time>2021-07-05 14:32:29</time>
      </trkpt>
      <trkpt lat="28.18705" lon="-14.18658">
        <ele>67.4</ele>
        <time>2021-07-05 14:32:30</time>
      </trkpt>
      <trkpt lat="28.18697" lon="-14.1866">
        <ele>67</ele>
        <time>2021-07-05 14:32:31</time>
      </trkpt>
      <trkpt lat="28.18688" lon="-14.18661">
        <ele>66.4</ele>
        <time>2021-07-05 14:32:32</time>
      </trkpt>
      <trkpt lat="28.18679" lon="-14.18661">
        <ele>66</ele>
        <time>2021-07-05 14:32:33</time>
      </trkpt>
      <trkpt lat="28.1867" lon="-14.18662">
        <ele>65</ele>
        <time>2021-07-05 14:32:34</time>
      </trkpt>
      <trkpt lat="28.1866" lon="-14.18661">
        <ele>65</ele>
        <time>2021-07-05 14:32:35</time>
      </trkpt>
      <trkpt lat="28.1865" lon="-14.18661">
        <ele>63.4</ele>
        <time>2021-07-05 14:32:36</time>
      </trkpt>
      <trkpt lat="28.1864" lon="-14.1866">
        <ele>62.8</ele>
        <time>2021-07-05 14:32:37</time>
      </trkpt>
      <trkpt lat="28.1863" lon="-14.18659">
        <ele>62.8</ele>
        <time>2021-07-05 14:32:38</time>
      </trkpt>
      <trkpt lat="28.18619" lon="-14.18659">
        <ele>62.2</ele>
        <time>2021-07-05 14:32:39</time>
      </trkpt>
      <trkpt lat="28.18608" lon="-14.18658">
        <ele>61.4</ele>
        <time>2021-07-05 14:32:40</time>
      </trkpt>
      <trkpt lat="28.18597" lon="-14.18658">
        <ele>60.6</ele>
        <time>2021-07-05 14:32:41</time>
      </trkpt>
      <trkpt lat="28.18585" lon="-14.18657">
        <ele>60</ele>
        <time>2021-07-05 14:32:42</time>
      </trkpt>
      <trkpt lat="28.18573" lon="-14.18657">
        <ele>59.2</ele>
        <time>2021-07-05 14:32:43</time>
      </trkpt>
      <trkpt lat="28.18562" lon="-14.18656">
        <ele>58.6</ele>
        <time>2021-07-05 14:32:44</time>
      </trkpt>
      <trkpt lat="28.1855" lon="-14.18654">
        <ele>58</ele>
        <time>2021-07-05 14:32:45</time>
      </trkpt>
      <trkpt lat="28.18539" lon="-14.18653">
        <ele>57.2</ele>
        <time>2021-07-05 14:32:46</time>
      </trkpt>
      <trkpt lat="28.18527" lon="-14.18651">
        <ele>56</ele>
        <time>2021-07-05 14:32:47</time>
      </trkpt>
      <trkpt lat="28.18516" lon="-14.18649">
        <ele>56</ele>
        <time>2021-07-05 14:32:48</time>
      </trkpt>
      <trkpt lat="28.18504" lon="-14.18646">
        <ele>54.8</ele>
        <time>2021-07-05 14:32:49</time>
      </trkpt>
      <trkpt lat="28.18493" lon="-14.18643">
        <ele>54.4</ele>
        <time>2021-07-05 14:32:50</time>
      </trkpt>
      <trkpt lat="28.18481" lon="-14.1864">
        <ele>54.4</ele>
        <time>2021-07-05 14:32:51</time>
      </trkpt>
      <trkpt lat="28.1847" lon="-14.18636">
        <ele>53.8</ele>
        <time>2021-07-05 14:32:52</time>
      </trkpt>
      <trkpt lat="28.18459" lon="-14.18633">
        <ele>53.4</ele>
        <time>2021-07-05 14:32:53</time>
      </trkpt>
      <trkpt lat="28.18447" lon="-14.1863">
        <ele>53.4</ele>
        <time>2021-07-05 14:32:54</time>
      </trkpt>
      <trkpt lat="28.18436" lon="-14.18627">
        <ele>53</ele>
        <time>2021-07-05 14:32:55</time>
      </trkpt>
      <trkpt lat="28.18424" lon="-14.18626">
        <ele>52.6</ele>
        <time>2021-07-05 14:32:56</time>
      </trkpt>
      <trkpt lat="28.18413" lon="-14.18624">
        <ele>52.6</ele>
        <time>2021-07-05 14:32:57</time>
      </trkpt>
      <trkpt lat="28.18403" lon="-14.18624">
        <ele>52</ele>
        <time>2021-07-05 14:32:58</time>
      </trkpt>
      <trkpt lat="28.18393" lon="-14.18624">
        <ele>51.8</ele>
        <time>2021-07-05 14:32:59</time>
      </trkpt>
      <trkpt lat="28.18383" lon="-14.18625">
        <ele>51.4</ele>
        <time>2021-07-05 14:33:00</time>
      </trkpt>
      <trkpt lat="28.18375" lon="-14.18625">
        <ele>51</ele>
        <time>2021-07-05 14:33:01</time>
      </trkpt>
      <trkpt lat="28.18366" lon="-14.18626">
        <ele>51</ele>
        <time>2021-07-05 14:33:02</time>
      </trkpt>
      <trkpt lat="28.18358" lon="-14.18628">
        <ele>50.8</ele>
        <time>2021-07-05 14:33:03</time>
      </trkpt>
      <trkpt lat="28.18349" lon="-14.18629">
        <ele>50.8</ele>
        <time>2021-07-05 14:33:04</time>
      </trkpt>
      <trkpt lat="28.1834" lon="-14.18631">
        <ele>50.2</ele>
        <time>2021-07-05 14:33:05</time>
      </trkpt>
      <trkpt lat="28.18331" lon="-14.18631">
        <ele>49.8</ele>
        <time>2021-07-05 14:33:06</time>
      </trkpt>
      <trkpt lat="28.18322" lon="-14.18631">
        <ele>49.4</ele>
        <time>2021-07-05 14:33:07</time>
      </trkpt>
      <trkpt lat="28.18311" lon="-14.1863">
        <ele>49.4</ele>
        <time>2021-07-05 14:33:08</time>
      </trkpt>
      <trkpt lat="28.18301" lon="-14.18629">
        <ele>48.8</ele>
        <time>2021-07-05 14:33:09</time>
      </trkpt>
      <trkpt lat="28.18291" lon="-14.18628">
        <ele>47.4</ele>
        <time>2021-07-05 14:33:10</time>
      </trkpt>
      <trkpt lat="28.18281" lon="-14.18627">
        <ele>47.4</ele>
        <time>2021-07-05 14:33:11</time>
      </trkpt>
      <trkpt lat="28.18271" lon="-14.18627">
        <ele>46</ele>
        <time>2021-07-05 14:33:12</time>
      </trkpt>
      <trkpt lat="28.18261" lon="-14.18626">
        <ele>46</ele>
        <time>2021-07-05 14:33:13</time>
      </trkpt>
      <trkpt lat="28.18251" lon="-14.18627">
        <ele>44.6</ele>
        <time>2021-07-05 14:33:14</time>
      </trkpt>
      <trkpt lat="28.18242" lon="-14.18628">
        <ele>44.6</ele>
        <time>2021-07-05 14:33:15</time>
      </trkpt>
      <trkpt lat="28.18233" lon="-14.1863">
        <ele>44.2</ele>
        <time>2021-07-05 14:33:16</time>
      </trkpt>
      <trkpt lat="28.18224" lon="-14.18633">
        <ele>43.8</ele>
        <time>2021-07-05 14:33:17</time>
      </trkpt>
      <trkpt lat="28.18215" lon="-14.18636">
        <ele>43.2</ele>
        <time>2021-07-05 14:33:18</time>
      </trkpt>
      <trkpt lat="28.18207" lon="-14.1864">
        <ele>43.2</ele>
        <time>2021-07-05 14:33:19</time>
      </trkpt>
      <trkpt lat="28.18199" lon="-14.18645">
        <ele>42.4</ele>
        <time>2021-07-05 14:33:20</time>
      </trkpt>
      <trkpt lat="28.18191" lon="-14.18648">
        <ele>42.4</ele>
        <time>2021-07-05 14:33:21</time>
      </trkpt>
      <trkpt lat="28.18182" lon="-14.18651">
        <ele>42.2</ele>
        <time>2021-07-05 14:33:22</time>
      </trkpt>
      <trkpt lat="28.18173" lon="-14.18654">
        <ele>41.6</ele>
        <time>2021-07-05 14:33:23</time>
      </trkpt>
      <trkpt lat="28.18164" lon="-14.18656">
        <ele>41</ele>
        <time>2021-07-05 14:33:24</time>
      </trkpt>
      <trkpt lat="28.18156" lon="-14.18657">
        <ele>40</ele>
        <time>2021-07-05 14:33:25</time>
      </trkpt>
      <trkpt lat="28.18148" lon="-14.18656">
        <ele>39.6</ele>
        <time>2021-07-05 14:33:26</time>
      </trkpt>
      <trkpt lat="28.18141" lon="-14.18653">
        <ele>39.6</ele>
        <time>2021-07-05 14:33:27</time>
      </trkpt>
      <trkpt lat="28.18136" lon="-14.1865">
        <ele>38.4</ele>
        <time>2021-07-05 14:33:28</time>
      </trkpt>
      <trkpt lat="28.18132" lon="-14.18649">
        <ele>38</ele>
        <time>2021-07-05 14:33:29</time>
      </trkpt>
      <trkpt lat="28.1813" lon="-14.18647">
        <ele>38</ele>
        <time>2021-07-05 14:33:30</time>
      </trkpt>
      <trkpt lat="28.18129" lon="-14.18647">
        <ele>37.6</ele>
        <time>2021-07-05 14:33:31</time>
      </trkpt>
      <trkpt lat="28.18129" lon="-14.18647">
        <ele>37.2</ele>
        <time>2021-07-05 14:33:32</time>
      </trkpt>
      <trkpt lat="28.18129" lon="-14.18647">
        <ele>37</ele>
        <time>2021-07-05 14:33:33</time>
      </trkpt>
      <trkpt lat="28.18127" lon="-14.18646">
        <ele>37</ele>
        <time>2021-07-05 14:33:34</time>
      </trkpt>
      <trkpt lat="28.18128" lon="-14.18647">
        <ele>36.6</ele>
        <time>2021-07-05 14:33:35</time>
      </trkpt>
      <trkpt lat="28.18128" lon="-14.18647">
        <ele>37</ele>
        <time>2021-07-05 14:34:31</time>
      </trkpt>
      <trkpt lat="28.18126" lon="-14.18645">
        <ele>37</ele>
        <time>2021-07-05 14:34:32</time>
      </trkpt>
      <trkpt lat="28.18125" lon="-14.18645">
        <ele>37</ele>
        <time>2021-07-05 14:34:33</time>
      </trkpt>
      <trkpt lat="28.18123" lon="-14.18644">
        <ele>37</ele>
        <time>2021-07-05 14:34:54</time>
      </trkpt>
      <trkpt lat="28.18121" lon="-14.18642">
        <ele>37</ele>
        <time>2021-07-05 14:34:55</time>
      </trkpt>
      <trkpt lat="28.18118" lon="-14.1864">
        <ele>37</ele>
        <time>2021-07-05 14:34:56</time>
      </trkpt>
      <trkpt lat="28.18115" lon="-14.18638">
        <ele>36.6</ele>
        <time>2021-07-05 14:34:57</time>
      </trkpt>
      <trkpt lat="28.18112" lon="-14.18636">
        <ele>36.6</ele>
        <time>2021-07-05 14:34:58</time>
      </trkpt>
      <trkpt lat="28.18109" lon="-14.18634">
        <ele>36.4</ele>
        <time>2021-07-05 14:34:59</time>
      </trkpt>
      <trkpt lat="28.18106" lon="-14.18632">
        <ele>36.4</ele>
        <time>2021-07-05 14:35:00</time>
      </trkpt>
      <trkpt lat="28.18103" lon="-14.1863">
        <ele>36</ele>
        <time>2021-07-05 14:35:01</time>
      </trkpt>
      <trkpt lat="28.18099" lon="-14.18628">
        <ele>36</ele>
        <time>2021-07-05 14:35:02</time>
      </trkpt>
      <trkpt lat="28.18096" lon="-14.18626">
        <ele>35.6</ele>
        <time>2021-07-05 14:35:03</time>
      </trkpt>
      <trkpt lat="28.18092" lon="-14.18626">
        <ele>35.6</ele>
        <time>2021-07-05 14:35:04</time>
      </trkpt>
      <trkpt lat="28.18088" lon="-14.18626">
        <ele>35.2</ele>
        <time>2021-07-05 14:35:05</time>
      </trkpt>
      <trkpt lat="28.18084" lon="-14.18626">
        <ele>35.2</ele>
        <time>2021-07-05 14:35:06</time>
      </trkpt>
      <trkpt lat="28.1808" lon="-14.18627">
        <ele>35.2</ele>
        <time>2021-07-05 14:35:07</time>
      </trkpt>
      <trkpt lat="28.18075" lon="-14.18629">
        <ele>35</ele>
        <time>2021-07-05 14:35:08</time>
      </trkpt>
      <trkpt lat="28.18071" lon="-14.1863">
        <ele>34.8</ele>
        <time>2021-07-05 14:35:09</time>
      </trkpt>
      <trkpt lat="28.18065" lon="-14.18632">
        <ele>34.4</ele>
        <time>2021-07-05 14:35:10</time>
      </trkpt>
      <trkpt lat="28.1806" lon="-14.18635">
        <ele>34.2</ele>
        <time>2021-07-05 14:35:11</time>
      </trkpt>
      <trkpt lat="28.18054" lon="-14.18637">
        <ele>34.2</ele>
        <time>2021-07-05 14:35:12</time>
      </trkpt>
      <trkpt lat="28.18048" lon="-14.18639">
        <ele>33.8</ele>
        <time>2021-07-05 14:35:13</time>
      </trkpt>
      <trkpt lat="28.18041" lon="-14.1864">
        <ele>33.8</ele>
        <time>2021-07-05 14:35:14</time>
      </trkpt>
      <trkpt lat="28.18033" lon="-14.18639">
        <ele>33.2</ele>
        <time>2021-07-05 14:35:15</time>
      </trkpt>
      <trkpt lat="28.18024" lon="-14.18638">
        <ele>32.8</ele>
        <time>2021-07-05 14:35:16</time>
      </trkpt>
      <trkpt lat="28.18015" lon="-14.18636">
        <ele>32.2</ele>
        <time>2021-07-05 14:35:17</time>
      </trkpt>
      <trkpt lat="28.18007" lon="-14.18633">
        <ele>31.8</ele>
        <time>2021-07-05 14:35:18</time>
      </trkpt>
      <trkpt lat="28.17999" lon="-14.18631">
        <ele>31.2</ele>
        <time>2021-07-05 14:35:19</time>
      </trkpt>
      <trkpt lat="28.17992" lon="-14.18628">
        <ele>30.6</ele>
        <time>2021-07-05 14:35:20</time>
      </trkpt>
      <trkpt lat="28.17985" lon="-14.18627">
        <ele>29.8</ele>
        <time>2021-07-05 14:35:21</time>
      </trkpt>
      <trkpt lat="28.17978" lon="-14.18627">
        <ele>29.2</ele>
        <time>2021-07-05 14:35:22</time>
      </trkpt>
      <trkpt lat="28.17972" lon="-14.18627">
        <ele>29</ele>
        <time>2021-07-05 14:35:23</time>
      </trkpt>
      <trkpt lat="28.17965" lon="-14.18628">
        <ele>28</ele>
        <time>2021-07-05 14:35:24</time>
      </trkpt>
      <trkpt lat="28.17958" lon="-14.1863">
        <ele>28</ele>
        <time>2021-07-05 14:35:25</time>
      </trkpt>
      <trkpt lat="28.17951" lon="-14.18632">
        <ele>27.6</ele>
        <time>2021-07-05 14:35:26</time>
      </trkpt>
      <trkpt lat="28.17945" lon="-14.18635">
        <ele>27.2</ele>
        <time>2021-07-05 14:35:27</time>
      </trkpt>
      <trkpt lat="28.17938" lon="-14.18637">
        <ele>27</ele>
        <time>2021-07-05 14:35:28</time>
      </trkpt>
      <trkpt lat="28.17933" lon="-14.18641">
        <ele>26.4</ele>
        <time>2021-07-05 14:35:29</time>
      </trkpt>
      <trkpt lat="28.17928" lon="-14.18645">
        <ele>26.4</ele>
        <time>2021-07-05 14:35:30</time>
      </trkpt>
      <trkpt lat="28.17924" lon="-14.18649">
        <ele>26.2</ele>
        <time>2021-07-05 14:35:31</time>
      </trkpt>
      <trkpt lat="28.17921" lon="-14.18653">
        <ele>26.2</ele>
        <time>2021-07-05 14:35:32</time>
      </trkpt>
      <trkpt lat="28.17919" lon="-14.18657">
        <ele>26.2</ele>
        <time>2021-07-05 14:35:33</time>
      </trkpt>
      <trkpt lat="28.17917" lon="-14.1866">
        <ele>26.2</ele>
        <time>2021-07-05 14:35:34</time>
      </trkpt>
      <trkpt lat="28.17916" lon="-14.18663">
        <ele>26.4</ele>
        <time>2021-07-05 14:35:35</time>
      </trkpt>
      <trkpt lat="28.17916" lon="-14.18665">
        <ele>26.4</ele>
        <time>2021-07-05 14:35:36</time>
      </trkpt>
      <trkpt lat="28.17917" lon="-14.18667">
        <ele>26.8</ele>
        <time>2021-07-05 14:35:37</time>
      </trkpt>
      <trkpt lat="28.17917" lon="-14.1867">
        <ele>26.8</ele>
        <time>2021-07-05 14:35:38</time>
      </trkpt>
      <trkpt lat="28.17918" lon="-14.18672">
        <ele>27</ele>
        <time>2021-07-05 14:35:39</time>
      </trkpt>
      <trkpt lat="28.17917" lon="-14.18674">
        <ele>27</ele>
        <time>2021-07-05 14:35:40</time>
      </trkpt>
      <trkpt lat="28.17918" lon="-14.18677">
        <ele>27.4</ele>
        <time>2021-07-05 14:35:41</time>
      </trkpt>
      <trkpt lat="28.1792" lon="-14.18679">
        <ele>27.4</ele>
        <time>2021-07-05 14:35:42</time>
      </trkpt>
      <trkpt lat="28.17922" lon="-14.18682">
        <ele>27.6</ele>
        <time>2021-07-05 14:35:43</time>
      </trkpt>
      <trkpt lat="28.17923" lon="-14.18685">
        <ele>28</ele>
        <time>2021-07-05 14:35:44</time>
      </trkpt>
      <trkpt lat="28.17924" lon="-14.18688">
        <ele>28</ele>
        <time>2021-07-05 14:35:45</time>
      </trkpt>
      <trkpt lat="28.17926" lon="-14.1869">
        <ele>28.2</ele>
        <time>2021-07-05 14:35:46</time>
      </trkpt>
      <trkpt lat="28.17927" lon="-14.18691">
        <ele>28.4</ele>
        <time>2021-07-05 14:35:47</time>
      </trkpt>
      <trkpt lat="28.17928" lon="-14.18693">
        <ele>28.8</ele>
        <time>2021-07-05 14:35:48</time>
      </trkpt>
      <trkpt lat="28.17929" lon="-14.18696">
        <ele>29.2</ele>
        <time>2021-07-05 14:35:49</time>
      </trkpt>
      <trkpt lat="28.17929" lon="-14.18698">
        <ele>29.2</ele>
        <time>2021-07-05 14:35:50</time>
      </trkpt>
      <trkpt lat="28.17928" lon="-14.18701">
        <ele>29.4</ele>
        <time>2021-07-05 14:35:51</time>
      </trkpt>
      <trkpt lat="28.17927" lon="-14.18704">
        <ele>29.6</ele>
        <time>2021-07-05 14:35:52</time>
      </trkpt>
      <trkpt lat="28.17926" lon="-14.18706">
        <ele>29.6</ele>
        <time>2021-07-05 14:35:53</time>
      </trkpt>
      <trkpt lat="28.17925" lon="-14.18709">
        <ele>30.2</ele>
        <time>2021-07-05 14:35:54</time>
      </trkpt>
      <trkpt lat="28.17924" lon="-14.18712">
        <ele>30.4</ele>
        <time>2021-07-05 14:35:55</time>
      </trkpt>
      <trkpt lat="28.17923" lon="-14.18714">
        <ele>30.4</ele>
        <time>2021-07-05 14:35:56</time>
      </trkpt>
      <trkpt lat="28.17923" lon="-14.18717">
        <ele>30.4</ele>
        <time>2021-07-05 14:35:57</time>
      </trkpt>
      <trkpt lat="28.17922" lon="-14.1872">
        <ele>30.6</ele>
        <time>2021-07-05 14:35:58</time>
      </trkpt>
      <trkpt lat="28.17921" lon="-14.18722">
        <ele>30.6</ele>
        <time>2021-07-05 14:35:59</time>
      </trkpt>
      <trkpt lat="28.17919" lon="-14.18724">
        <ele>31</ele>
        <time>2021-07-05 14:36:00</time>
      </trkpt>
      <trkpt lat="28.17917" lon="-14.18726">
        <ele>31</ele>
        <time>2021-07-05 14:36:01</time>
      </trkpt>
      <trkpt lat="28.17915" lon="-14.18727">
        <ele>31.2</ele>
        <time>2021-07-05 14:36:02</time>
      </trkpt>
      <trkpt lat="28.17912" lon="-14.18728">
        <ele>31.2</ele>
        <time>2021-07-05 14:36:03</time>
      </trkpt>
      <trkpt lat="28.17908" lon="-14.18728">
        <ele>31.2</ele>
        <time>2021-07-05 14:36:04</time>
      </trkpt>
      <trkpt lat="28.17905" lon="-14.18726">
        <ele>31.2</ele>
        <time>2021-07-05 14:36:05</time>
      </trkpt>
      <trkpt lat="28.17901" lon="-14.18723">
        <ele>31.2</ele>
        <time>2021-07-05 14:36:06</time>
      </trkpt>
      <trkpt lat="28.17898" lon="-14.1872">
        <ele>31.2</ele>
        <time>2021-07-05 14:36:07</time>
      </trkpt>
      <trkpt lat="28.17894" lon="-14.18718">
        <ele>31</ele>
        <time>2021-07-05 14:36:08</time>
      </trkpt>
      <trkpt lat="28.1789" lon="-14.18715">
        <ele>31</ele>
        <time>2021-07-05 14:36:09</time>
      </trkpt>
      <trkpt lat="28.17886" lon="-14.18713">
        <ele>30.6</ele>
        <time>2021-07-05 14:36:10</time>
      </trkpt>
      <trkpt lat="28.17881" lon="-14.18711">
        <ele>30.6</ele>
        <time>2021-07-05 14:36:11</time>
      </trkpt>
      <trkpt lat="28.17876" lon="-14.18709">
        <ele>29.8</ele>
        <time>2021-07-05 14:36:12</time>
      </trkpt>
      <trkpt lat="28.1787" lon="-14.18707">
        <ele>29.8</ele>
        <time>2021-07-05 14:36:13</time>
      </trkpt>
      <trkpt lat="28.17865" lon="-14.18705">
        <ele>29.6</ele>
        <time>2021-07-05 14:36:14</time>
      </trkpt>
      <trkpt lat="28.17858" lon="-14.18703">
        <ele>29.2</ele>
        <time>2021-07-05 14:36:15</time>
      </trkpt>
      <trkpt lat="28.17853" lon="-14.18702">
        <ele>28.8</ele>
        <time>2021-07-05 14:36:16</time>
      </trkpt>
      <trkpt lat="28.17847" lon="-14.187">
        <ele>29.2</ele>
        <time>2021-07-05 14:36:17</time>
      </trkpt>
      <trkpt lat="28.17841" lon="-14.187">
        <ele>29.4</ele>
        <time>2021-07-05 14:36:18</time>
      </trkpt>
      <trkpt lat="28.17834" lon="-14.18695">
        <ele>29.8</ele>
        <time>2021-07-05 14:36:19</time>
      </trkpt>
      <trkpt lat="28.17831" lon="-14.18695">
        <ele>30</ele>
        <time>2021-07-05 14:36:20</time>
      </trkpt>
      <trkpt lat="28.17823" lon="-14.18693">
        <ele>30</ele>
        <time>2021-07-05 14:36:21</time>
      </trkpt>
      <trkpt lat="28.17817" lon="-14.18692">
        <ele>30</ele>
        <time>2021-07-05 14:36:22</time>
      </trkpt>
      <trkpt lat="28.17811" lon="-14.1869">
        <ele>30</ele>
        <time>2021-07-05 14:36:23</time>
      </trkpt>
      <trkpt lat="28.17805" lon="-14.18688">
        <ele>29.8</ele>
        <time>2021-07-05 14:36:24</time>
      </trkpt>
      <trkpt lat="28.17799" lon="-14.18687">
        <ele>29.2</ele>
        <time>2021-07-05 14:36:25</time>
      </trkpt>
      <trkpt lat="28.17793" lon="-14.18685">
        <ele>29.2</ele>
        <time>2021-07-05 14:36:26</time>
      </trkpt>
      <trkpt lat="28.17787" lon="-14.18685">
        <ele>28.6</ele>
        <time>2021-07-05 14:36:27</time>
      </trkpt>
      <trkpt lat="28.17782" lon="-14.18685">
        <ele>28.4</ele>
        <time>2021-07-05 14:36:28</time>
      </trkpt>
      <trkpt lat="28.17777" lon="-14.18687">
        <ele>28.4</ele>
        <time>2021-07-05 14:36:29</time>
      </trkpt>
      <trkpt lat="28.17771" lon="-14.18688">
        <ele>28.4</ele>
        <time>2021-07-05 14:36:30</time>
      </trkpt>
      <trkpt lat="28.17766" lon="-14.1869">
        <ele>28.4</ele>
        <time>2021-07-05 14:36:31</time>
      </trkpt>
      <trkpt lat="28.17761" lon="-14.18694">
        <ele>28.4</ele>
        <time>2021-07-05 14:36:32</time>
      </trkpt>
      <trkpt lat="28.17757" lon="-14.18698">
        <ele>28.4</ele>
        <time>2021-07-05 14:36:33</time>
      </trkpt>
      <trkpt lat="28.17753" lon="-14.18702">
        <ele>28.4</ele>
        <time>2021-07-05 14:36:34</time>
      </trkpt>
      <trkpt lat="28.17749" lon="-14.18707">
        <ele>28.4</ele>
        <time>2021-07-05 14:36:35</time>
      </trkpt>
      <trkpt lat="28.17746" lon="-14.18712">
        <ele>28.4</ele>
        <time>2021-07-05 14:36:36</time>
      </trkpt>
      <trkpt lat="28.17743" lon="-14.18718">
        <ele>28.8</ele>
        <time>2021-07-05 14:36:37</time>
      </trkpt>
      <trkpt lat="28.17742" lon="-14.18723">
        <ele>28.8</ele>
        <time>2021-07-05 14:36:38</time>
      </trkpt>
      <trkpt lat="28.17741" lon="-14.18728">
        <ele>29.2</ele>
        <time>2021-07-05 14:36:39</time>
      </trkpt>
      <trkpt lat="28.1774" lon="-14.18732">
        <ele>30.2</ele>
        <time>2021-07-05 14:36:40</time>
      </trkpt>
      <trkpt lat="28.17739" lon="-14.18736">
        <ele>30.2</ele>
        <time>2021-07-05 14:36:41</time>
      </trkpt>
      <trkpt lat="28.17738" lon="-14.1874">
        <ele>31.2</ele>
        <time>2021-07-05 14:36:42</time>
      </trkpt>
      <trkpt lat="28.17738" lon="-14.18743">
        <ele>31.2</ele>
        <time>2021-07-05 14:36:43</time>
      </trkpt>
      <trkpt lat="28.17739" lon="-14.18746">
        <ele>32</ele>
        <time>2021-07-05 14:36:44</time>
      </trkpt>
      <trkpt lat="28.17738" lon="-14.1875">
        <ele>32</ele>
        <time>2021-07-05 14:36:45</time>
      </trkpt>
      <trkpt lat="28.17739" lon="-14.18754">
        <ele>32.8</ele>
        <time>2021-07-05 14:36:46</time>
      </trkpt>
      <trkpt lat="28.17739" lon="-14.18757">
        <ele>32.8</ele>
        <time>2021-07-05 14:36:47</time>
      </trkpt>
      <trkpt lat="28.17739" lon="-14.18761">
        <ele>33.2</ele>
        <time>2021-07-05 14:36:48</time>
      </trkpt>
      <trkpt lat="28.1774" lon="-14.18765">
        <ele>33.6</ele>
        <time>2021-07-05 14:36:49</time>
      </trkpt>
      <trkpt lat="28.1774" lon="-14.18768">
        <ele>34</ele>
        <time>2021-07-05 14:36:50</time>
      </trkpt>
      <trkpt lat="28.1774" lon="-14.18771">
        <ele>34.2</ele>
        <time>2021-07-05 14:36:51</time>
      </trkpt>
      <trkpt lat="28.17741" lon="-14.18774">
        <ele>34.4</ele>
        <time>2021-07-05 14:36:52</time>
      </trkpt>
      <trkpt lat="28.17741" lon="-14.18777">
        <ele>34.4</ele>
        <time>2021-07-05 14:36:53</time>
      </trkpt>
      <trkpt lat="28.17742" lon="-14.1878">
        <ele>34.8</ele>
        <time>2021-07-05 14:36:54</time>
      </trkpt>
      <trkpt lat="28.17742" lon="-14.18783">
        <ele>34.8</ele>
        <time>2021-07-05 14:36:55</time>
      </trkpt>
      <trkpt lat="28.17742" lon="-14.18786">
        <ele>35</ele>
        <time>2021-07-05 14:36:56</time>
      </trkpt>
      <trkpt lat="28.17743" lon="-14.18789">
        <ele>35.2</ele>
        <time>2021-07-05 14:36:57</time>
      </trkpt>
      <trkpt lat="28.17744" lon="-14.18791">
        <ele>35.6</ele>
        <time>2021-07-05 14:36:58</time>
      </trkpt>
      <trkpt lat="28.17745" lon="-14.18794">
        <ele>35.6</ele>
        <time>2021-07-05 14:36:59</time>
      </trkpt>
      <trkpt lat="28.17746" lon="-14.18796">
        <ele>35.8</ele>
        <time>2021-07-05 14:37:00</time>
      </trkpt>
      <trkpt lat="28.17747" lon="-14.18799">
        <ele>35.8</ele>
        <time>2021-07-05 14:37:01</time>
      </trkpt>
      <trkpt lat="28.17748" lon="-14.18801">
        <ele>36.2</ele>
        <time>2021-07-05 14:37:02</time>
      </trkpt>
      <trkpt lat="28.17749" lon="-14.18803">
        <ele>37.2</ele>
        <time>2021-07-05 14:37:03</time>
      </trkpt>
      <trkpt lat="28.1775" lon="-14.18805">
        <ele>37.2</ele>
        <time>2021-07-05 14:37:04</time>
      </trkpt>
      <trkpt lat="28.1775" lon="-14.18807">
        <ele>38</ele>
        <time>2021-07-05 14:37:05</time>
      </trkpt>
      <trkpt lat="28.17751" lon="-14.1881">
        <ele>38.6</ele>
        <time>2021-07-05 14:37:06</time>
      </trkpt>
      <trkpt lat="28.17752" lon="-14.18812">
        <ele>38.8</ele>
        <time>2021-07-05 14:37:07</time>
      </trkpt>
      <trkpt lat="28.17753" lon="-14.18814">
        <ele>40</ele>
        <time>2021-07-05 14:37:08</time>
      </trkpt>
      <trkpt lat="28.17754" lon="-14.18817">
        <ele>40.6</ele>
        <time>2021-07-05 14:37:09</time>
      </trkpt>
      <trkpt lat="28.17754" lon="-14.18819">
        <ele>40.6</ele>
        <time>2021-07-05 14:37:10</time>
      </trkpt>
      <trkpt lat="28.17755" lon="-14.18822">
        <ele>41.4</ele>
        <time>2021-07-05 14:37:11</time>
      </trkpt>
      <trkpt lat="28.17755" lon="-14.18825">
        <ele>41.6</ele>
        <time>2021-07-05 14:37:12</time>
      </trkpt>
      <trkpt lat="28.17756" lon="-14.18828">
        <ele>42</ele>
        <time>2021-07-05 14:37:13</time>
      </trkpt>
      <trkpt lat="28.17756" lon="-14.18831">
        <ele>42</ele>
        <time>2021-07-05 14:37:14</time>
      </trkpt>
      <trkpt lat="28.17757" lon="-14.18834">
        <ele>42.2</ele>
        <time>2021-07-05 14:37:15</time>
      </trkpt>
      <trkpt lat="28.17757" lon="-14.18837">
        <ele>42.2</ele>
        <time>2021-07-05 14:37:16</time>
      </trkpt>
      <trkpt lat="28.17758" lon="-14.1884">
        <ele>42.2</ele>
        <time>2021-07-05 14:37:17</time>
      </trkpt>
      <trkpt lat="28.17758" lon="-14.18843">
        <ele>42.2</ele>
        <time>2021-07-05 14:37:18</time>
      </trkpt>
      <trkpt lat="28.17758" lon="-14.18845">
        <ele>42.6</ele>
        <time>2021-07-05 14:37:19</time>
      </trkpt>
      <trkpt lat="28.17758" lon="-14.18848">
        <ele>43.6</ele>
        <time>2021-07-05 14:37:20</time>
      </trkpt>
      <trkpt lat="28.17758" lon="-14.18852">
        <ele>43.6</ele>
        <time>2021-07-05 14:37:21</time>
      </trkpt>
      <trkpt lat="28.17759" lon="-14.18855">
        <ele>44.2</ele>
        <time>2021-07-05 14:37:22</time>
      </trkpt>
      <trkpt lat="28.17759" lon="-14.18858">
        <ele>44.4</ele>
        <time>2021-07-05 14:37:23</time>
      </trkpt>
      <trkpt lat="28.17759" lon="-14.18861">
        <ele>44.8</ele>
        <time>2021-07-05 14:37:24</time>
      </trkpt>
      <trkpt lat="28.17759" lon="-14.18864">
        <ele>44.8</ele>
        <time>2021-07-05 14:37:25</time>
      </trkpt>
      <trkpt lat="28.17759" lon="-14.18867">
        <ele>45.2</ele>
        <time>2021-07-05 14:37:26</time>
      </trkpt>
      <trkpt lat="28.17759" lon="-14.18871">
        <ele>45.4</ele>
        <time>2021-07-05 14:37:27</time>
      </trkpt>
      <trkpt lat="28.17759" lon="-14.18874">
        <ele>45.4</ele>
        <time>2021-07-05 14:37:28</time>
      </trkpt>
      <trkpt lat="28.17759" lon="-14.18877">
        <ele>45.4</ele>
        <time>2021-07-05 14:37:29</time>
      </trkpt>
      <trkpt lat="28.17759" lon="-14.1888">
        <ele>45.4</ele>
        <time>2021-07-05 14:37:30</time>
      </trkpt>
      <trkpt lat="28.17759" lon="-14.18883">
        <ele>45.4</ele>
        <time>2021-07-05 14:37:31</time>
      </trkpt>
      <trkpt lat="28.17758" lon="-14.18887">
        <ele>45.4</ele>
        <time>2021-07-05 14:37:32</time>
      </trkpt>
      <trkpt lat="28.17758" lon="-14.1889">
        <ele>45.4</ele>
        <time>2021-07-05 14:37:33</time>
      </trkpt>
      <trkpt lat="28.17758" lon="-14.18893">
        <ele>45.4</ele>
        <time>2021-07-05 14:37:34</time>
      </trkpt>
      <trkpt lat="28.17758" lon="-14.18897">
        <ele>45</ele>
        <time>2021-07-05 14:37:35</time>
      </trkpt>
      <trkpt lat="28.17758" lon="-14.189">
        <ele>45</ele>
        <time>2021-07-05 14:37:36</time>
      </trkpt>
      <trkpt lat="28.17758" lon="-14.18903">
        <ele>45</ele>
        <time>2021-07-05 14:37:37</time>
      </trkpt>
      <trkpt lat="28.17758" lon="-14.18907">
        <ele>45</ele>
        <time>2021-07-05 14:37:38</time>
      </trkpt>
      <trkpt lat="28.17757" lon="-14.1891">
        <ele>45</ele>
        <time>2021-07-05 14:37:39</time>
      </trkpt>
      <trkpt lat="28.17757" lon="-14.18913">
        <ele>45</ele>
        <time>2021-07-05 14:37:40</time>
      </trkpt>
      <trkpt lat="28.17757" lon="-14.18917">
        <ele>45</ele>
        <time>2021-07-05 14:37:41</time>
      </trkpt>
      <trkpt lat="28.17756" lon="-14.18921">
        <ele>45</ele>
        <time>2021-07-05 14:37:42</time>
      </trkpt>
      <trkpt lat="28.17756" lon="-14.18924">
        <ele>45</ele>
        <time>2021-07-05 14:37:43</time>
      </trkpt>
      <trkpt lat="28.17756" lon="-14.18928">
        <ele>44.8</ele>
        <time>2021-07-05 14:37:44</time>
      </trkpt>
      <trkpt lat="28.17755" lon="-14.18931">
        <ele>44.8</ele>
        <time>2021-07-05 14:37:45</time>
      </trkpt>
      <trkpt lat="28.17755" lon="-14.18935">
        <ele>44.4</ele>
        <time>2021-07-05 14:37:46</time>
      </trkpt>
      <trkpt lat="28.17755" lon="-14.18938">
        <ele>44.4</ele>
        <time>2021-07-05 14:37:47</time>
      </trkpt>
      <trkpt lat="28.17755" lon="-14.18942">
        <ele>44.4</ele>
        <time>2021-07-05 14:37:48</time>
      </trkpt>
      <trkpt lat="28.17754" lon="-14.18945">
        <ele>44.4</ele>
        <time>2021-07-05 14:37:49</time>
      </trkpt>
      <trkpt lat="28.17754" lon="-14.18948">
        <ele>44.2</ele>
        <time>2021-07-05 14:37:50</time>
      </trkpt>
      <trkpt lat="28.17754" lon="-14.18952">
        <ele>44.2</ele>
        <time>2021-07-05 14:37:51</time>
      </trkpt>
      <trkpt lat="28.17754" lon="-14.18955">
        <ele>44.4</ele>
        <time>2021-07-05 14:37:52</time>
      </trkpt>
      <trkpt lat="28.17754" lon="-14.18959">
        <ele>44.4</ele>
        <time>2021-07-05 14:37:53</time>
      </trkpt>
      <trkpt lat="28.17754" lon="-14.18962">
        <ele>44.6</ele>
        <time>2021-07-05 14:37:54</time>
      </trkpt>
      <trkpt lat="28.17754" lon="-14.18965">
        <ele>44.6</ele>
        <time>2021-07-05 14:37:55</time>
      </trkpt>
      <trkpt lat="28.17754" lon="-14.18969">
        <ele>45.4</ele>
        <time>2021-07-05 14:37:56</time>
      </trkpt>
      <trkpt lat="28.17753" lon="-14.18972">
        <ele>45.4</ele>
        <time>2021-07-05 14:37:57</time>
      </trkpt>
      <trkpt lat="28.17753" lon="-14.18976">
        <ele>45.4</ele>
        <time>2021-07-05 14:37:58</time>
      </trkpt>
      <trkpt lat="28.17753" lon="-14.18979">
        <ele>45.6</ele>
        <time>2021-07-05 14:37:59</time>
      </trkpt>
      <trkpt lat="28.17753" lon="-14.18983">
        <ele>45.8</ele>
        <time>2021-07-05 14:38:00</time>
      </trkpt>
      <trkpt lat="28.17753" lon="-14.18987">
        <ele>45.8</ele>
        <time>2021-07-05 14:38:01</time>
      </trkpt>
      <trkpt lat="28.17753" lon="-14.18991">
        <ele>45.8</ele>
        <time>2021-07-05 14:38:02</time>
      </trkpt>
      <trkpt lat="28.17753" lon="-14.18995">
        <ele>46</ele>
        <time>2021-07-05 14:38:03</time>
      </trkpt>
      <trkpt lat="28.17753" lon="-14.18999">
        <ele>46</ele>
        <time>2021-07-05 14:38:04</time>
      </trkpt>
      <trkpt lat="28.17753" lon="-14.19003">
        <ele>46</ele>
        <time>2021-07-05 14:38:05</time>
      </trkpt>
      <trkpt lat="28.17753" lon="-14.19007">
        <ele>46</ele>
        <time>2021-07-05 14:38:06</time>
      </trkpt>
      <trkpt lat="28.17752" lon="-14.1901">
        <ele>46</ele>
        <time>2021-07-05 14:38:07</time>
      </trkpt>
      <trkpt lat="28.17752" lon="-14.19014">
        <ele>46</ele>
        <time>2021-07-05 14:38:08</time>
      </trkpt>
      <trkpt lat="28.17752" lon="-14.19018">
        <ele>46.4</ele>
        <time>2021-07-05 14:38:09</time>
      </trkpt>
      <trkpt lat="28.17752" lon="-14.19022">
        <ele>46.4</ele>
        <time>2021-07-05 14:38:10</time>
      </trkpt>
      <trkpt lat="28.17751" lon="-14.19026">
        <ele>46.4</ele>
        <time>2021-07-05 14:38:11</time>
      </trkpt>
      <trkpt lat="28.17751" lon="-14.1903">
        <ele>46.4</ele>
        <time>2021-07-05 14:38:12</time>
      </trkpt>
      <trkpt lat="28.17751" lon="-14.19035">
        <ele>46.4</ele>
        <time>2021-07-05 14:38:13</time>
      </trkpt>
      <trkpt lat="28.1775" lon="-14.19039">
        <ele>46.2</ele>
        <time>2021-07-05 14:38:14</time>
      </trkpt>
      <trkpt lat="28.1775" lon="-14.19043">
        <ele>46.2</ele>
        <time>2021-07-05 14:38:15</time>
      </trkpt>
      <trkpt lat="28.17749" lon="-14.19047">
        <ele>46</ele>
        <time>2021-07-05 14:38:16</time>
      </trkpt>
      <trkpt lat="28.17749" lon="-14.19052">
        <ele>46</ele>
        <time>2021-07-05 14:38:17</time>
      </trkpt>
      <trkpt lat="28.17748" lon="-14.19056">
        <ele>45.6</ele>
        <time>2021-07-05 14:38:18</time>
      </trkpt>
      <trkpt lat="28.17748" lon="-14.1906">
        <ele>45.6</ele>
        <time>2021-07-05 14:38:19</time>
      </trkpt>
      <trkpt lat="28.17747" lon="-14.19064">
        <ele>45.6</ele>
        <time>2021-07-05 14:38:20</time>
      </trkpt>
      <trkpt lat="28.17747" lon="-14.19068">
        <ele>45.4</ele>
        <time>2021-07-05 14:38:21</time>
      </trkpt>
      <trkpt lat="28.17746" lon="-14.19073">
        <ele>45.4</ele>
        <time>2021-07-05 14:38:22</time>
      </trkpt>
      <trkpt lat="28.17746" lon="-14.19077">
        <ele>45.4</ele>
        <time>2021-07-05 14:38:23</time>
      </trkpt>
      <trkpt lat="28.17745" lon="-14.19081">
        <ele>45.4</ele>
        <time>2021-07-05 14:38:24</time>
      </trkpt>
      <trkpt lat="28.17745" lon="-14.19085">
        <ele>45.4</ele>
        <time>2021-07-05 14:38:25</time>
      </trkpt>
      <trkpt lat="28.17744" lon="-14.19089">
        <ele>45.4</ele>
        <time>2021-07-05 14:38:26</time>
      </trkpt>
      <trkpt lat="28.17743" lon="-14.19093">
        <ele>45.4</ele>
        <time>2021-07-05 14:38:27</time>
      </trkpt>
      <trkpt lat="28.17743" lon="-14.19097">
        <ele>45.4</ele>
        <time>2021-07-05 14:38:28</time>
      </trkpt>
      <trkpt lat="28.17742" lon="-14.19101">
        <ele>45.4</ele>
        <time>2021-07-05 14:38:29</time>
      </trkpt>
      <trkpt lat="28.17741" lon="-14.19105">
        <ele>45.4</ele>
        <time>2021-07-05 14:38:30</time>
      </trkpt>
      <trkpt lat="28.17741" lon="-14.19109">
        <ele>45.4</ele>
        <time>2021-07-05 14:38:31</time>
      </trkpt>
      <trkpt lat="28.1774" lon="-14.19113">
        <ele>45.4</ele>
        <time>2021-07-05 14:38:32</time>
      </trkpt>
      <trkpt lat="28.17739" lon="-14.19116">
        <ele>45.4</ele>
        <time>2021-07-05 14:38:33</time>
      </trkpt>
      <trkpt lat="28.17737" lon="-14.19119">
        <ele>45</ele>
        <time>2021-07-05 14:38:34</time>
      </trkpt>
      <trkpt lat="28.17734" lon="-14.19121">
        <ele>45</ele>
        <time>2021-07-05 14:38:35</time>
      </trkpt>
      <trkpt lat="28.17732" lon="-14.19122">
        <ele>45</ele>
        <time>2021-07-05 14:38:36</time>
      </trkpt>
      <trkpt lat="28.17731" lon="-14.19124">
        <ele>45</ele>
        <time>2021-07-05 14:38:37</time>
      </trkpt>
      <trkpt lat="28.1773" lon="-14.19125">
        <ele>45</ele>
        <time>2021-07-05 14:38:38</time>
      </trkpt>
      <trkpt lat="28.17729" lon="-14.19126">
        <ele>44.8</ele>
        <time>2021-07-05 14:38:39</time>
      </trkpt>
      <trkpt lat="28.17728" lon="-14.19127">
        <ele>44.8</ele>
        <time>2021-07-05 14:38:40</time>
      </trkpt>
      <trkpt lat="28.17727" lon="-14.19128">
        <ele>44.8</ele>
        <time>2021-07-05 14:38:41</time>
      </trkpt>
      <trkpt lat="28.17726" lon="-14.19129">
        <ele>44.4</ele>
        <time>2021-07-05 14:38:42</time>
      </trkpt>
      <trkpt lat="28.17725" lon="-14.1913">
        <ele>43.8</ele>
        <time>2021-07-05 14:38:43</time>
      </trkpt>
      <trkpt lat="28.17724" lon="-14.19132">
        <ele>43.8</ele>
        <time>2021-07-05 14:38:44</time>
      </trkpt>
      <trkpt lat="28.17724" lon="-14.19135">
        <ele>43</ele>
        <time>2021-07-05 14:38:45</time>
      </trkpt>
      <trkpt lat="28.17724" lon="-14.19137">
        <ele>43</ele>
        <time>2021-07-05 14:38:46</time>
      </trkpt>
      <trkpt lat="28.17723" lon="-14.1914">
        <ele>42.6</ele>
        <time>2021-07-05 14:38:47</time>
      </trkpt>
      <trkpt lat="28.17723" lon="-14.19143">
        <ele>42.4</ele>
        <time>2021-07-05 14:38:48</time>
      </trkpt>
      <trkpt lat="28.17723" lon="-14.19146">
        <ele>42.4</ele>
        <time>2021-07-05 14:38:49</time>
      </trkpt>
      <trkpt lat="28.17722" lon="-14.19149">
        <ele>42.4</ele>
        <time>2021-07-05 14:38:50</time>
      </trkpt>
      <trkpt lat="28.17721" lon="-14.19152">
        <ele>42.4</ele>
        <time>2021-07-05 14:38:51</time>
      </trkpt>
      <trkpt lat="28.17721" lon="-14.19154">
        <ele>42.4</ele>
        <time>2021-07-05 14:38:52</time>
      </trkpt>
      <trkpt lat="28.17721" lon="-14.19157">
        <ele>42.2</ele>
        <time>2021-07-05 14:38:53</time>
      </trkpt>
      <trkpt lat="28.17721" lon="-14.19159">
        <ele>42.2</ele>
        <time>2021-07-05 14:38:54</time>
      </trkpt>
      <trkpt lat="28.1772" lon="-14.19161">
        <ele>42.6</ele>
        <time>2021-07-05 14:38:55</time>
      </trkpt>
      <trkpt lat="28.17719" lon="-14.19163">
        <ele>42.8</ele>
        <time>2021-07-05 14:38:56</time>
      </trkpt>
      <trkpt lat="28.17719" lon="-14.19166">
        <ele>42.8</ele>
        <time>2021-07-05 14:38:57</time>
      </trkpt>
      <trkpt lat="28.17718" lon="-14.19169">
        <ele>43.2</ele>
        <time>2021-07-05 14:38:58</time>
      </trkpt>
      <trkpt lat="28.17718" lon="-14.19172">
        <ele>43.2</ele>
        <time>2021-07-05 14:38:59</time>
      </trkpt>
      <trkpt lat="28.17718" lon="-14.19175">
        <ele>42.8</ele>
        <time>2021-07-05 14:39:00</time>
      </trkpt>
      <trkpt lat="28.17717" lon="-14.19178">
        <ele>42.8</ele>
        <time>2021-07-05 14:39:01</time>
      </trkpt>
      <trkpt lat="28.17716" lon="-14.19182">
        <ele>42.8</ele>
        <time>2021-07-05 14:39:02</time>
      </trkpt>
      <trkpt lat="28.17716" lon="-14.19185">
        <ele>42.8</ele>
        <time>2021-07-05 14:39:03</time>
      </trkpt>
      <trkpt lat="28.17715" lon="-14.19188">
        <ele>42.8</ele>
        <time>2021-07-05 14:39:04</time>
      </trkpt>
      <trkpt lat="28.17714" lon="-14.19191">
        <ele>42.8</ele>
        <time>2021-07-05 14:39:05</time>
      </trkpt>
      <trkpt lat="28.17714" lon="-14.19194">
        <ele>42.8</ele>
        <time>2021-07-05 14:39:06</time>
      </trkpt>
      <trkpt lat="28.17713" lon="-14.19197">
        <ele>42.8</ele>
        <time>2021-07-05 14:39:07</time>
      </trkpt>
      <trkpt lat="28.17712" lon="-14.192">
        <ele>42.8</ele>
        <time>2021-07-05 14:39:08</time>
      </trkpt>
      <trkpt lat="28.17711" lon="-14.19203">
        <ele>42.8</ele>
        <time>2021-07-05 14:39:09</time>
      </trkpt>
      <trkpt lat="28.17711" lon="-14.19206">
        <ele>42.8</ele>
        <time>2021-07-05 14:39:10</time>
      </trkpt>
      <trkpt lat="28.1771" lon="-14.19209">
        <ele>43</ele>
        <time>2021-07-05 14:39:11</time>
      </trkpt>
      <trkpt lat="28.17709" lon="-14.19212">
        <ele>43.6</ele>
        <time>2021-07-05 14:39:12</time>
      </trkpt>
      <trkpt lat="28.17708" lon="-14.19215">
        <ele>43.6</ele>
        <time>2021-07-05 14:39:13</time>
      </trkpt>
      <trkpt lat="28.17707" lon="-14.19218">
        <ele>43.6</ele>
        <time>2021-07-05 14:39:14</time>
      </trkpt>
      <trkpt lat="28.17706" lon="-14.19222">
        <ele>43.6</ele>
        <time>2021-07-05 14:39:15</time>
      </trkpt>
      <trkpt lat="28.17706" lon="-14.19225">
        <ele>43.6</ele>
        <time>2021-07-05 14:39:16</time>
      </trkpt>
      <trkpt lat="28.17705" lon="-14.19229">
        <ele>43.8</ele>
        <time>2021-07-05 14:39:17</time>
      </trkpt>
      <trkpt lat="28.17704" lon="-14.19232">
        <ele>43.8</ele>
        <time>2021-07-05 14:39:18</time>
      </trkpt>
      <trkpt lat="28.17704" lon="-14.19235">
        <ele>43.4</ele>
        <time>2021-07-05 14:39:19</time>
      </trkpt>
      <trkpt lat="28.17703" lon="-14.19239">
        <ele>43.4</ele>
        <time>2021-07-05 14:39:20</time>
      </trkpt>
      <trkpt lat="28.17703" lon="-14.19242">
        <ele>43</ele>
        <time>2021-07-05 14:39:21</time>
      </trkpt>
      <trkpt lat="28.17702" lon="-14.19245">
        <ele>43</ele>
        <time>2021-07-05 14:39:22</time>
      </trkpt>
      <trkpt lat="28.17701" lon="-14.19248">
        <ele>43</ele>
        <time>2021-07-05 14:39:23</time>
      </trkpt>
      <trkpt lat="28.17701" lon="-14.19252">
        <ele>43</ele>
        <time>2021-07-05 14:39:24</time>
      </trkpt>
      <trkpt lat="28.177" lon="-14.19255">
        <ele>42.8</ele>
        <time>2021-07-05 14:39:25</time>
      </trkpt>
      <trkpt lat="28.177" lon="-14.19258">
        <ele>42.8</ele>
        <time>2021-07-05 14:39:26</time>
      </trkpt>
      <trkpt lat="28.17699" lon="-14.19261">
        <ele>42.8</ele>
        <time>2021-07-05 14:39:27</time>
      </trkpt>
      <trkpt lat="28.17698" lon="-14.19264">
        <ele>42.8</ele>
        <time>2021-07-05 14:39:28</time>
      </trkpt>
      <trkpt lat="28.17697" lon="-14.19267">
        <ele>43.4</ele>
        <time>2021-07-05 14:39:29</time>
      </trkpt>
      <trkpt lat="28.17697" lon="-14.19269">
        <ele>43.4</ele>
        <time>2021-07-05 14:39:30</time>
      </trkpt>
      <trkpt lat="28.17696" lon="-14.19272">
        <ele>43.6</ele>
        <time>2021-07-05 14:39:31</time>
      </trkpt>
      <trkpt lat="28.17696" lon="-14.19275">
        <ele>43.6</ele>
        <time>2021-07-05 14:39:32</time>
      </trkpt>
      <trkpt lat="28.17696" lon="-14.19278">
        <ele>43.6</ele>
        <time>2021-07-05 14:39:33</time>
      </trkpt>
      <trkpt lat="28.17695" lon="-14.19282">
        <ele>43.6</ele>
        <time>2021-07-05 14:39:34</time>
      </trkpt>
      <trkpt lat="28.17694" lon="-14.19285">
        <ele>43.6</ele>
        <time>2021-07-05 14:39:35</time>
      </trkpt>
      <trkpt lat="28.17694" lon="-14.19288">
        <ele>43.6</ele>
        <time>2021-07-05 14:39:36</time>
      </trkpt>
      <trkpt lat="28.17693" lon="-14.19291">
        <ele>43.6</ele>
        <time>2021-07-05 14:39:37</time>
      </trkpt>
      <trkpt lat="28.17693" lon="-14.19294">
        <ele>43.6</ele>
        <time>2021-07-05 14:39:38</time>
      </trkpt>
      <trkpt lat="28.17692" lon="-14.19297">
        <ele>43.6</ele>
        <time>2021-07-05 14:39:39</time>
      </trkpt>
      <trkpt lat="28.17691" lon="-14.193">
        <ele>43.6</ele>
        <time>2021-07-05 14:39:40</time>
      </trkpt>
      <trkpt lat="28.17691" lon="-14.19303">
        <ele>43.4</ele>
        <time>2021-07-05 14:39:41</time>
      </trkpt>
      <trkpt lat="28.17691" lon="-14.19307">
        <ele>43.4</ele>
        <time>2021-07-05 14:39:42</time>
      </trkpt>
      <trkpt lat="28.1769" lon="-14.1931">
        <ele>43.4</ele>
        <time>2021-07-05 14:39:43</time>
      </trkpt>
      <trkpt lat="28.17689" lon="-14.19312">
        <ele>43</ele>
        <time>2021-07-05 14:39:44</time>
      </trkpt>
      <trkpt lat="28.17688" lon="-14.19315">
        <ele>43</ele>
        <time>2021-07-05 14:39:45</time>
      </trkpt>
      <trkpt lat="28.17688" lon="-14.19319">
        <ele>42.8</ele>
        <time>2021-07-05 14:39:46</time>
      </trkpt>
      <trkpt lat="28.17687" lon="-14.19322">
        <ele>42.8</ele>
        <time>2021-07-05 14:39:47</time>
      </trkpt>
      <trkpt lat="28.17687" lon="-14.19325">
        <ele>42.4</ele>
        <time>2021-07-05 14:39:48</time>
      </trkpt>
      <trkpt lat="28.17686" lon="-14.19329">
        <ele>42.4</ele>
        <time>2021-07-05 14:39:49</time>
      </trkpt>
      <trkpt lat="28.17686" lon="-14.19331">
        <ele>42.4</ele>
        <time>2021-07-05 14:39:50</time>
      </trkpt>
      <trkpt lat="28.17685" lon="-14.19333">
        <ele>42.4</ele>
        <time>2021-07-05 14:39:51</time>
      </trkpt>
      <trkpt lat="28.17685" lon="-14.19334">
        <ele>42.2</ele>
        <time>2021-07-05 14:39:52</time>
      </trkpt>
      <trkpt lat="28.17685" lon="-14.19334">
        <ele>42.2</ele>
        <time>2021-07-05 14:39:53</time>
      </trkpt>
      <trkpt lat="28.17685" lon="-14.19334">
        <ele>42.2</ele>
        <time>2021-07-05 14:39:54</time>
      </trkpt>
      <trkpt lat="28.17682" lon="-14.19334">
        <ele>41.6</ele>
        <time>2021-07-05 14:39:55</time>
      </trkpt>
      <trkpt lat="28.17682" lon="-14.19334">
        <ele>41.4</ele>
        <time>2021-07-05 14:39:56</time>
      </trkpt>
      <trkpt lat="28.17682" lon="-14.19334">
        <ele>41.4</ele>
        <time>2021-07-05 14:40:02</time>
      </trkpt>
      <trkpt lat="28.17682" lon="-14.19334">
        <ele>41</ele>
        <time>2021-07-05 14:40:03</time>
      </trkpt>
      <trkpt lat="28.1768" lon="-14.19334">
        <ele>40.6</ele>
        <time>2021-07-05 14:40:04</time>
      </trkpt>
      <trkpt lat="28.1768" lon="-14.19334">
        <ele>40.2</ele>
        <time>2021-07-05 14:40:05</time>
      </trkpt>
      <trkpt lat="28.17679" lon="-14.19334">
        <ele>39.8</ele>
        <time>2021-07-05 14:40:06</time>
      </trkpt>
      <trkpt lat="28.17679" lon="-14.19334">
        <ele>39</ele>
        <time>2021-07-05 14:40:07</time>
      </trkpt>
      <trkpt lat="28.1768" lon="-14.19334">
        <ele>38.8</ele>
        <time>2021-07-05 14:40:08</time>
      </trkpt>
      <trkpt lat="28.1768" lon="-14.19334">
        <ele>38.8</ele>
        <time>2021-07-05 14:40:09</time>
      </trkpt>
      <trkpt lat="28.17677" lon="-14.19332">
        <ele>38.4</ele>
        <time>2021-07-05 14:40:10</time>
      </trkpt>
      <trkpt lat="28.17675" lon="-14.19331">
        <ele>38</ele>
        <time>2021-07-05 14:40:11</time>
      </trkpt>
      <trkpt lat="28.17673" lon="-14.19329">
        <ele>38</ele>
        <time>2021-07-05 14:40:15</time>
      </trkpt>
      <trkpt lat="28.17671" lon="-14.19328">
        <ele>37.6</ele>
        <time>2021-07-05 14:40:16</time>
      </trkpt>
      <trkpt lat="28.17668" lon="-14.19326">
        <ele>37.6</ele>
        <time>2021-07-05 14:40:17</time>
      </trkpt>
      <trkpt lat="28.17664" lon="-14.19326">
        <ele>37.2</ele>
        <time>2021-07-05 14:40:18</time>
      </trkpt>
      <trkpt lat="28.17661" lon="-14.19325">
        <ele>37</ele>
        <time>2021-07-05 14:40:19</time>
      </trkpt>
      <trkpt lat="28.17659" lon="-14.19324">
        <ele>37</ele>
        <time>2021-07-05 14:40:20</time>
      </trkpt>
      <trkpt lat="28.17657" lon="-14.19323">
        <ele>36.6</ele>
        <time>2021-07-05 14:40:21</time>
      </trkpt>
      <trkpt lat="28.17654" lon="-14.19322">
        <ele>36.6</ele>
        <time>2021-07-05 14:40:22</time>
      </trkpt>
      <trkpt lat="28.17652" lon="-14.19321">
        <ele>36.2</ele>
        <time>2021-07-05 14:40:23</time>
      </trkpt>
      <trkpt lat="28.1765" lon="-14.19321">
        <ele>36.2</ele>
        <time>2021-07-05 14:40:24</time>
      </trkpt>
      <trkpt lat="28.17649" lon="-14.19322">
        <ele>36.2</ele>
        <time>2021-07-05 14:40:25</time>
      </trkpt>
      <trkpt lat="28.17647" lon="-14.19323">
        <ele>36.2</ele>
        <time>2021-07-05 14:40:26</time>
      </trkpt>
      <trkpt lat="28.17646" lon="-14.19325">
        <ele>36.6</ele>
        <time>2021-07-05 14:40:27</time>
      </trkpt>
      <trkpt lat="28.17646" lon="-14.19326">
        <ele>36.6</ele>
        <time>2021-07-05 14:40:28</time>
      </trkpt>
      <trkpt lat="28.17645" lon="-14.19327">
        <ele>36.8</ele>
        <time>2021-07-05 14:40:29</time>
      </trkpt>
      <trkpt lat="28.17646" lon="-14.19327">
        <ele>36.8</ele>
        <time>2021-07-05 14:40:30</time>
      </trkpt>
      <trkpt lat="28.17646" lon="-14.19327">
        <ele>36.8</ele>
        <time>2021-07-05 14:40:31</time>
      </trkpt>
      <trkpt lat="28.17646" lon="-14.19327">
        <ele>37.4</ele>
        <time>2021-07-05 14:40:32</time>
      </trkpt>
      <trkpt lat="28.17644" lon="-14.19329">
        <ele>37.4</ele>
        <time>2021-07-05 14:40:33</time>
      </trkpt>
      <trkpt lat="28.17642" lon="-14.1933">
        <ele>38</ele>
        <time>2021-07-05 14:40:34</time>
      </trkpt>
      <trkpt lat="28.17641" lon="-14.19332">
        <ele>38</ele>
        <time>2021-07-05 14:40:42</time>
      </trkpt>
      <trkpt lat="28.1764" lon="-14.19333">
        <ele>37.6</ele>
        <time>2021-07-05 14:40:43</time>
      </trkpt>
      <trkpt lat="28.17638" lon="-14.19335">
        <ele>37.6</ele>
        <time>2021-07-05 14:40:44</time>
      </trkpt>
      <trkpt lat="28.17637" lon="-14.19337">
        <ele>37.4</ele>
        <time>2021-07-05 14:40:45</time>
      </trkpt>
      <trkpt lat="28.17635" lon="-14.1934">
        <ele>37.4</ele>
        <time>2021-07-05 14:40:46</time>
      </trkpt>
      <trkpt lat="28.17633" lon="-14.19342">
        <ele>37.4</ele>
        <time>2021-07-05 14:40:47</time>
      </trkpt>
      <trkpt lat="28.17632" lon="-14.19345">
        <ele>37.4</ele>
        <time>2021-07-05 14:40:48</time>
      </trkpt>
      <trkpt lat="28.1763" lon="-14.19347">
        <ele>37.4</ele>
        <time>2021-07-05 14:40:49</time>
      </trkpt>
      <trkpt lat="28.17629" lon="-14.19349">
        <ele>37.6</ele>
        <time>2021-07-05 14:40:50</time>
      </trkpt>
      <trkpt lat="28.17627" lon="-14.19351">
        <ele>37.6</ele>
        <time>2021-07-05 14:40:51</time>
      </trkpt>
      <trkpt lat="28.17625" lon="-14.19353">
        <ele>37.6</ele>
        <time>2021-07-05 14:40:52</time>
      </trkpt>
      <trkpt lat="28.17623" lon="-14.19355">
        <ele>37.6</ele>
        <time>2021-07-05 14:40:53</time>
      </trkpt>
      <trkpt lat="28.1762" lon="-14.19357">
        <ele>37.2</ele>
        <time>2021-07-05 14:40:54</time>
      </trkpt>
      <trkpt lat="28.17618" lon="-14.19359">
        <ele>37</ele>
        <time>2021-07-05 14:40:55</time>
      </trkpt>
      <trkpt lat="28.17615" lon="-14.1936">
        <ele>36.6</ele>
        <time>2021-07-05 14:40:56</time>
      </trkpt>
      <trkpt lat="28.17612" lon="-14.19362">
        <ele>36.4</ele>
        <time>2021-07-05 14:40:57</time>
      </trkpt>
      <trkpt lat="28.17609" lon="-14.19364">
        <ele>36.4</ele>
        <time>2021-07-05 14:40:58</time>
      </trkpt>
      <trkpt lat="28.17607" lon="-14.19366">
        <ele>36.2</ele>
        <time>2021-07-05 14:40:59</time>
      </trkpt>
      <trkpt lat="28.17604" lon="-14.19368">
        <ele>36.2</ele>
        <time>2021-07-05 14:41:00</time>
      </trkpt>
      <trkpt lat="28.17601" lon="-14.1937">
        <ele>36.2</ele>
        <time>2021-07-05 14:41:01</time>
      </trkpt>
      <trkpt lat="28.17598" lon="-14.19372">
        <ele>36</ele>
        <time>2021-07-05 14:41:02</time>
      </trkpt>
      <trkpt lat="28.17595" lon="-14.19373">
        <ele>35.8</ele>
        <time>2021-07-05 14:41:03</time>
      </trkpt>
      <trkpt lat="28.17592" lon="-14.19375">
        <ele>35.8</ele>
        <time>2021-07-05 14:41:04</time>
      </trkpt>
      <trkpt lat="28.1759" lon="-14.19377">
        <ele>35.4</ele>
        <time>2021-07-05 14:41:05</time>
      </trkpt>
      <trkpt lat="28.17587" lon="-14.19379">
        <ele>35.2</ele>
        <time>2021-07-05 14:41:06</time>
      </trkpt>
      <trkpt lat="28.17584" lon="-14.19382">
        <ele>35.2</ele>
        <time>2021-07-05 14:41:07</time>
      </trkpt>
      <trkpt lat="28.17581" lon="-14.19384">
        <ele>35.2</ele>
        <time>2021-07-05 14:41:08</time>
      </trkpt>
      <trkpt lat="28.17578" lon="-14.19387">
        <ele>35.2</ele>
        <time>2021-07-05 14:41:09</time>
      </trkpt>
      <trkpt lat="28.17575" lon="-14.19389">
        <ele>35.2</ele>
        <time>2021-07-05 14:41:10</time>
      </trkpt>
      <trkpt lat="28.17572" lon="-14.19392">
        <ele>35</ele>
        <time>2021-07-05 14:41:11</time>
      </trkpt>
      <trkpt lat="28.17569" lon="-14.19394">
        <ele>35</ele>
        <time>2021-07-05 14:41:12</time>
      </trkpt>
      <trkpt lat="28.17567" lon="-14.19397">
        <ele>35</ele>
        <time>2021-07-05 14:41:13</time>
      </trkpt>
      <trkpt lat="28.17564" lon="-14.19398">
        <ele>35</ele>
        <time>2021-07-05 14:41:14</time>
      </trkpt>
      <trkpt lat="28.17561" lon="-14.194">
        <ele>35</ele>
        <time>2021-07-05 14:41:15</time>
      </trkpt>
      <trkpt lat="28.17559" lon="-14.19402">
        <ele>35</ele>
        <time>2021-07-05 14:41:16</time>
      </trkpt>
      <trkpt lat="28.17556" lon="-14.19404">
        <ele>35</ele>
        <time>2021-07-05 14:41:17</time>
      </trkpt>
      <trkpt lat="28.17553" lon="-14.19406">
        <ele>34.6</ele>
        <time>2021-07-05 14:41:18</time>
      </trkpt>
      <trkpt lat="28.1755" lon="-14.19407">
        <ele>34.4</ele>
        <time>2021-07-05 14:41:19</time>
      </trkpt>
      <trkpt lat="28.17547" lon="-14.19409">
        <ele>34.4</ele>
        <time>2021-07-05 14:41:20</time>
      </trkpt>
      <trkpt lat="28.17544" lon="-14.1941">
        <ele>34.4</ele>
        <time>2021-07-05 14:41:21</time>
      </trkpt>
      <trkpt lat="28.1754" lon="-14.19412">
        <ele>34.2</ele>
        <time>2021-07-05 14:41:22</time>
      </trkpt>
      <trkpt lat="28.17537" lon="-14.19414">
        <ele>34.2</ele>
        <time>2021-07-05 14:41:23</time>
      </trkpt>
      <trkpt lat="28.17533" lon="-14.19416">
        <ele>33.8</ele>
        <time>2021-07-05 14:41:24</time>
      </trkpt>
      <trkpt lat="28.17529" lon="-14.19419">
        <ele>33.6</ele>
        <time>2021-07-05 14:41:25</time>
      </trkpt>
      <trkpt lat="28.17525" lon="-14.19421">
        <ele>33</ele>
        <time>2021-07-05 14:41:26</time>
      </trkpt>
      <trkpt lat="28.17522" lon="-14.19423">
        <ele>33</ele>
        <time>2021-07-05 14:41:27</time>
      </trkpt>
      <trkpt lat="28.17518" lon="-14.19425">
        <ele>32.8</ele>
        <time>2021-07-05 14:41:28</time>
      </trkpt>
      <trkpt lat="28.17516" lon="-14.19428">
        <ele>32.6</ele>
        <time>2021-07-05 14:41:29</time>
      </trkpt>
      <trkpt lat="28.17513" lon="-14.1943">
        <ele>32.6</ele>
        <time>2021-07-05 14:41:30</time>
      </trkpt>
      <trkpt lat="28.1751" lon="-14.19433">
        <ele>32.6</ele>
        <time>2021-07-05 14:41:31</time>
      </trkpt>
      <trkpt lat="28.17508" lon="-14.19436">
        <ele>32.4</ele>
        <time>2021-07-05 14:41:32</time>
      </trkpt>
      <trkpt lat="28.17505" lon="-14.19438">
        <ele>32.4</ele>
        <time>2021-07-05 14:41:33</time>
      </trkpt>
      <trkpt lat="28.17503" lon="-14.19442">
        <ele>32.4</ele>
        <time>2021-07-05 14:41:34</time>
      </trkpt>
      <trkpt lat="28.17501" lon="-14.19445">
        <ele>32.4</ele>
        <time>2021-07-05 14:41:35</time>
      </trkpt>
      <trkpt lat="28.17498" lon="-14.19448">
        <ele>32.2</ele>
        <time>2021-07-05 14:41:36</time>
      </trkpt>
      <trkpt lat="28.17496" lon="-14.19452">
        <ele>32.2</ele>
        <time>2021-07-05 14:41:37</time>
      </trkpt>
      <trkpt lat="28.17494" lon="-14.19455">
        <ele>32.2</ele>
        <time>2021-07-05 14:41:38</time>
      </trkpt>
      <trkpt lat="28.17491" lon="-14.19459">
        <ele>31.8</ele>
        <time>2021-07-05 14:41:39</time>
      </trkpt>
      <trkpt lat="28.17489" lon="-14.19462">
        <ele>31.6</ele>
        <time>2021-07-05 14:41:40</time>
      </trkpt>
      <trkpt lat="28.17487" lon="-14.19464">
        <ele>31.2</ele>
        <time>2021-07-05 14:41:41</time>
      </trkpt>
      <trkpt lat="28.17485" lon="-14.19467">
        <ele>31</ele>
        <time>2021-07-05 14:41:42</time>
      </trkpt>
      <trkpt lat="28.17483" lon="-14.19469">
        <ele>31</ele>
        <time>2021-07-05 14:41:43</time>
      </trkpt>
      <trkpt lat="28.17482" lon="-14.19472">
        <ele>30.6</ele>
        <time>2021-07-05 14:41:44</time>
      </trkpt>
      <trkpt lat="28.1748" lon="-14.19474">
        <ele>30.6</ele>
        <time>2021-07-05 14:41:45</time>
      </trkpt>
      <trkpt lat="28.17479" lon="-14.19477">
        <ele>30.4</ele>
        <time>2021-07-05 14:41:46</time>
      </trkpt>
      <trkpt lat="28.17477" lon="-14.1948">
        <ele>30.4</ele>
        <time>2021-07-05 14:41:47</time>
      </trkpt>
      <trkpt lat="28.17476" lon="-14.19483">
        <ele>30.2</ele>
        <time>2021-07-05 14:41:48</time>
      </trkpt>
      <trkpt lat="28.17475" lon="-14.19485">
        <ele>30.2</ele>
        <time>2021-07-05 14:41:49</time>
      </trkpt>
      <trkpt lat="28.17474" lon="-14.19488">
        <ele>29.8</ele>
        <time>2021-07-05 14:41:50</time>
      </trkpt>
      <trkpt lat="28.17472" lon="-14.1949">
        <ele>29.8</ele>
        <time>2021-07-05 14:41:51</time>
      </trkpt>
      <trkpt lat="28.17471" lon="-14.19492">
        <ele>29.8</ele>
        <time>2021-07-05 14:41:52</time>
      </trkpt>
      <trkpt lat="28.1747" lon="-14.19494">
        <ele>29.6</ele>
        <time>2021-07-05 14:41:53</time>
      </trkpt>
      <trkpt lat="28.17469" lon="-14.19497">
        <ele>29.6</ele>
        <time>2021-07-05 14:41:54</time>
      </trkpt>
      <trkpt lat="28.17468" lon="-14.19499">
        <ele>29.4</ele>
        <time>2021-07-05 14:41:55</time>
      </trkpt>
      <trkpt lat="28.17467" lon="-14.19502">
        <ele>29.2</ele>
        <time>2021-07-05 14:41:56</time>
      </trkpt>
      <trkpt lat="28.17466" lon="-14.19505">
        <ele>29.2</ele>
        <time>2021-07-05 14:41:57</time>
      </trkpt>
      <trkpt lat="28.17465" lon="-14.19507">
        <ele>28.8</ele>
        <time>2021-07-05 14:41:58</time>
      </trkpt>
      <trkpt lat="28.17464" lon="-14.1951">
        <ele>28.4</ele>
        <time>2021-07-05 14:41:59</time>
      </trkpt>
      <trkpt lat="28.17463" lon="-14.19513">
        <ele>28.4</ele>
        <time>2021-07-05 14:42:00</time>
      </trkpt>
      <trkpt lat="28.17461" lon="-14.19516">
        <ele>28.4</ele>
        <time>2021-07-05 14:42:01</time>
      </trkpt>
      <trkpt lat="28.1746" lon="-14.19519">
        <ele>28.4</ele>
        <time>2021-07-05 14:42:02</time>
      </trkpt>
      <trkpt lat="28.17459" lon="-14.19522">
        <ele>28.4</ele>
        <time>2021-07-05 14:42:03</time>
      </trkpt>
      <trkpt lat="28.17459" lon="-14.19525">
        <ele>28.4</ele>
        <time>2021-07-05 14:42:04</time>
      </trkpt>
      <trkpt lat="28.17458" lon="-14.19527">
        <ele>28.2</ele>
        <time>2021-07-05 14:42:05</time>
      </trkpt>
      <trkpt lat="28.17457" lon="-14.1953">
        <ele>28.2</ele>
        <time>2021-07-05 14:42:06</time>
      </trkpt>
      <trkpt lat="28.17456" lon="-14.19533">
        <ele>28.2</ele>
        <time>2021-07-05 14:42:07</time>
      </trkpt>
      <trkpt lat="28.17456" lon="-14.19535">
        <ele>27.8</ele>
        <time>2021-07-05 14:42:08</time>
      </trkpt>
      <trkpt lat="28.17455" lon="-14.19538">
        <ele>27.6</ele>
        <time>2021-07-05 14:42:09</time>
      </trkpt>
      <trkpt lat="28.17454" lon="-14.19541">
        <ele>27.2</ele>
        <time>2021-07-05 14:42:10</time>
      </trkpt>
      <trkpt lat="28.17454" lon="-14.19544">
        <ele>27.2</ele>
        <time>2021-07-05 14:42:11</time>
      </trkpt>
      <trkpt lat="28.17454" lon="-14.19547">
        <ele>26.4</ele>
        <time>2021-07-05 14:42:12</time>
      </trkpt>
      <trkpt lat="28.17454" lon="-14.19551">
        <ele>24.6</ele>
        <time>2021-07-05 14:42:13</time>
      </trkpt>
      <trkpt lat="28.17454" lon="-14.19555">
        <ele>23.8</ele>
        <time>2021-07-05 14:42:14</time>
      </trkpt>
      <trkpt lat="28.17455" lon="-14.19559">
        <ele>23.8</ele>
        <time>2021-07-05 14:42:15</time>
      </trkpt>
      <trkpt lat="28.17455" lon="-14.19562">
        <ele>22.6</ele>
        <time>2021-07-05 14:42:16</time>
      </trkpt>
      <trkpt lat="28.17455" lon="-14.19565">
        <ele>22</ele>
        <time>2021-07-05 14:42:17</time>
      </trkpt>
      <trkpt lat="28.17455" lon="-14.19569">
        <ele>22</ele>
        <time>2021-07-05 14:42:18</time>
      </trkpt>
      <trkpt lat="28.17453" lon="-14.19571">
        <ele>21.6</ele>
        <time>2021-07-05 14:42:19</time>
      </trkpt>
      <trkpt lat="28.17451" lon="-14.19574">
        <ele>21.2</ele>
        <time>2021-07-05 14:42:20</time>
      </trkpt>
      <trkpt lat="28.17449" lon="-14.19577">
        <ele>21.2</ele>
        <time>2021-07-05 14:42:21</time>
      </trkpt>
      <trkpt lat="28.17447" lon="-14.1958">
        <ele>21.2</ele>
        <time>2021-07-05 14:42:22</time>
      </trkpt>
      <trkpt lat="28.17445" lon="-14.19583">
        <ele>21.2</ele>
        <time>2021-07-05 14:42:23</time>
      </trkpt>
      <trkpt lat="28.17443" lon="-14.19586">
        <ele>21.8</ele>
        <time>2021-07-05 14:42:24</time>
      </trkpt>
      <trkpt lat="28.17442" lon="-14.19589">
        <ele>22</ele>
        <time>2021-07-05 14:42:25</time>
      </trkpt>
      <trkpt lat="28.17441" lon="-14.19592">
        <ele>22</ele>
        <time>2021-07-05 14:42:26</time>
      </trkpt>
      <trkpt lat="28.1744" lon="-14.19596">
        <ele>22</ele>
        <time>2021-07-05 14:42:27</time>
      </trkpt>
      <trkpt lat="28.1744" lon="-14.19599">
        <ele>22.2</ele>
        <time>2021-07-05 14:42:28</time>
      </trkpt>
      <trkpt lat="28.17439" lon="-14.19601">
        <ele>22.2</ele>
        <time>2021-07-05 14:42:29</time>
      </trkpt>
      <trkpt lat="28.17439" lon="-14.19604">
        <ele>22.2</ele>
        <time>2021-07-05 14:42:30</time>
      </trkpt>
      <trkpt lat="28.17439" lon="-14.19606">
        <ele>22.2</ele>
        <time>2021-07-05 14:42:31</time>
      </trkpt>
      <trkpt lat="28.17438" lon="-14.19609">
        <ele>21.8</ele>
        <time>2021-07-05 14:42:32</time>
      </trkpt>
      <trkpt lat="28.17438" lon="-14.19613">
        <ele>21.8</ele>
        <time>2021-07-05 14:42:33</time>
      </trkpt>
      <trkpt lat="28.17438" lon="-14.19616">
        <ele>21.4</ele>
        <time>2021-07-05 14:42:34</time>
      </trkpt>
      <trkpt lat="28.17438" lon="-14.1962">
        <ele>21</ele>
        <time>2021-07-05 14:42:35</time>
      </trkpt>
      <trkpt lat="28.17437" lon="-14.19623">
        <ele>20.4</ele>
        <time>2021-07-05 14:42:36</time>
      </trkpt>
      <trkpt lat="28.17437" lon="-14.19627">
        <ele>19.6</ele>
        <time>2021-07-05 14:42:37</time>
      </trkpt>
      <trkpt lat="28.17437" lon="-14.1963">
        <ele>19</ele>
        <time>2021-07-05 14:42:38</time>
      </trkpt>
      <trkpt lat="28.17437" lon="-14.19633">
        <ele>18.4</ele>
        <time>2021-07-05 14:42:39</time>
      </trkpt>
      <trkpt lat="28.17438" lon="-14.19637">
        <ele>17.8</ele>
        <time>2021-07-05 14:42:40</time>
      </trkpt>
      <trkpt lat="28.17439" lon="-14.1964">
        <ele>17.2</ele>
        <time>2021-07-05 14:42:41</time>
      </trkpt>
      <trkpt lat="28.1744" lon="-14.19644">
        <ele>16.8</ele>
        <time>2021-07-05 14:42:42</time>
      </trkpt>
      <trkpt lat="28.17442" lon="-14.19647">
        <ele>16.4</ele>
        <time>2021-07-05 14:42:43</time>
      </trkpt>
      <trkpt lat="28.17443" lon="-14.19651">
        <ele>16</ele>
        <time>2021-07-05 14:42:44</time>
      </trkpt>
      <trkpt lat="28.17445" lon="-14.19654">
        <ele>15.6</ele>
        <time>2021-07-05 14:42:45</time>
      </trkpt>
      <trkpt lat="28.17446" lon="-14.19658">
        <ele>15.4</ele>
        <time>2021-07-05 14:42:46</time>
      </trkpt>
      <trkpt lat="28.17447" lon="-14.19662">
        <ele>15.2</ele>
        <time>2021-07-05 14:42:47</time>
      </trkpt>
      <trkpt lat="28.17448" lon="-14.19666">
        <ele>15.2</ele>
        <time>2021-07-05 14:42:48</time>
      </trkpt>
      <trkpt lat="28.17449" lon="-14.1967">
        <ele>15</ele>
        <time>2021-07-05 14:42:49</time>
      </trkpt>
      <trkpt lat="28.1745" lon="-14.19674">
        <ele>15</ele>
        <time>2021-07-05 14:42:50</time>
      </trkpt>
      <trkpt lat="28.17451" lon="-14.19678">
        <ele>15</ele>
        <time>2021-07-05 14:42:51</time>
      </trkpt>
      <trkpt lat="28.17451" lon="-14.19682">
        <ele>15</ele>
        <time>2021-07-05 14:42:52</time>
      </trkpt>
      <trkpt lat="28.17452" lon="-14.19686">
        <ele>15</ele>
        <time>2021-07-05 14:42:53</time>
      </trkpt>
      <trkpt lat="28.17453" lon="-14.1969">
        <ele>15</ele>
        <time>2021-07-05 14:42:54</time>
      </trkpt>
      <trkpt lat="28.17454" lon="-14.19693">
        <ele>15</ele>
        <time>2021-07-05 14:42:55</time>
      </trkpt>
      <trkpt lat="28.17454" lon="-14.19697">
        <ele>14.6</ele>
        <time>2021-07-05 14:42:56</time>
      </trkpt>
      <trkpt lat="28.17455" lon="-14.197">
        <ele>14.6</ele>
        <time>2021-07-05 14:42:57</time>
      </trkpt>
      <trkpt lat="28.17456" lon="-14.19703">
        <ele>14.2</ele>
        <time>2021-07-05 14:42:58</time>
      </trkpt>
      <trkpt lat="28.17457" lon="-14.19706">
        <ele>14.2</ele>
        <time>2021-07-05 14:42:59</time>
      </trkpt>
      <trkpt lat="28.17458" lon="-14.19709">
        <ele>14.2</ele>
        <time>2021-07-05 14:43:00</time>
      </trkpt>
      <trkpt lat="28.17458" lon="-14.19713">
        <ele>14.2</ele>
        <time>2021-07-05 14:43:01</time>
      </trkpt>
      <trkpt lat="28.17459" lon="-14.19717">
        <ele>14.2</ele>
        <time>2021-07-05 14:43:02</time>
      </trkpt>
      <trkpt lat="28.1746" lon="-14.19721">
        <ele>14.2</ele>
        <time>2021-07-05 14:43:03</time>
      </trkpt>
      <trkpt lat="28.17461" lon="-14.19724">
        <ele>14.2</ele>
        <time>2021-07-05 14:43:04</time>
      </trkpt>
      <trkpt lat="28.17461" lon="-14.19727">
        <ele>14.2</ele>
        <time>2021-07-05 14:43:05</time>
      </trkpt>
      <trkpt lat="28.17461" lon="-14.1973">
        <ele>14.2</ele>
        <time>2021-07-05 14:43:06</time>
      </trkpt>
      <trkpt lat="28.17461" lon="-14.19733">
        <ele>14.2</ele>
        <time>2021-07-05 14:43:07</time>
      </trkpt>
      <trkpt lat="28.17461" lon="-14.19736">
        <ele>14.2</ele>
        <time>2021-07-05 14:43:08</time>
      </trkpt>
      <trkpt lat="28.1746" lon="-14.19739">
        <ele>14.2</ele>
        <time>2021-07-05 14:43:09</time>
      </trkpt>
      <trkpt lat="28.17459" lon="-14.19742">
        <ele>14.2</ele>
        <time>2021-07-05 14:43:10</time>
      </trkpt>
      <trkpt lat="28.17458" lon="-14.19745">
        <ele>14.6</ele>
        <time>2021-07-05 14:43:11</time>
      </trkpt>
      <trkpt lat="28.17457" lon="-14.19748">
        <ele>14.6</ele>
        <time>2021-07-05 14:43:12</time>
      </trkpt>
      <trkpt lat="28.17456" lon="-14.1975">
        <ele>14.8</ele>
        <time>2021-07-05 14:43:13</time>
      </trkpt>
      <trkpt lat="28.17455" lon="-14.19753">
        <ele>14.8</ele>
        <time>2021-07-05 14:43:14</time>
      </trkpt>
      <trkpt lat="28.17454" lon="-14.19756">
        <ele>15.2</ele>
        <time>2021-07-05 14:43:15</time>
      </trkpt>
      <trkpt lat="28.17454" lon="-14.19759">
        <ele>15.2</ele>
        <time>2021-07-05 14:43:16</time>
      </trkpt>
      <trkpt lat="28.17454" lon="-14.19762">
        <ele>15.2</ele>
        <time>2021-07-05 14:43:17</time>
      </trkpt>
      <trkpt lat="28.17454" lon="-14.19765">
        <ele>15.2</ele>
        <time>2021-07-05 14:43:18</time>
      </trkpt>
      <trkpt lat="28.17453" lon="-14.19768">
        <ele>15.2</ele>
        <time>2021-07-05 14:43:19</time>
      </trkpt>
      <trkpt lat="28.17453" lon="-14.19771">
        <ele>15.2</ele>
        <time>2021-07-05 14:43:20</time>
      </trkpt>
      <trkpt lat="28.17452" lon="-14.19774">
        <ele>15.2</ele>
        <time>2021-07-05 14:43:21</time>
      </trkpt>
      <trkpt lat="28.17453" lon="-14.19776">
        <ele>15.2</ele>
        <time>2021-07-05 14:43:22</time>
      </trkpt>
      <trkpt lat="28.17454" lon="-14.19778">
        <ele>15.2</ele>
        <time>2021-07-05 14:43:23</time>
      </trkpt>
      <trkpt lat="28.17455" lon="-14.19779">
        <ele>15.2</ele>
        <time>2021-07-05 14:43:24</time>
      </trkpt>
      <trkpt lat="28.17456" lon="-14.1978">
        <ele>14.8</ele>
        <time>2021-07-05 14:43:25</time>
      </trkpt>
      <trkpt lat="28.17457" lon="-14.19781">
        <ele>14.8</ele>
        <time>2021-07-05 14:43:26</time>
      </trkpt>
      <trkpt lat="28.17458" lon="-14.19783">
        <ele>14.8</ele>
        <time>2021-07-05 14:43:27</time>
      </trkpt>
      <trkpt lat="28.17458" lon="-14.19785">
        <ele>14.8</ele>
        <time>2021-07-05 14:43:28</time>
      </trkpt>
      <trkpt lat="28.17459" lon="-14.19786">
        <ele>15</ele>
        <time>2021-07-05 14:43:29</time>
      </trkpt>
      <trkpt lat="28.1746" lon="-14.19788">
        <ele>15</ele>
        <time>2021-07-05 14:43:30</time>
      </trkpt>
      <trkpt lat="28.1746" lon="-14.1979">
        <ele>15.4</ele>
        <time>2021-07-05 14:43:31</time>
      </trkpt>
      <trkpt lat="28.17461" lon="-14.19792">
        <ele>15.4</ele>
        <time>2021-07-05 14:43:32</time>
      </trkpt>
      <trkpt lat="28.17462" lon="-14.19794">
        <ele>15.4</ele>
        <time>2021-07-05 14:43:33</time>
      </trkpt>
      <trkpt lat="28.17463" lon="-14.19796">
        <ele>15.4</ele>
        <time>2021-07-05 14:43:34</time>
      </trkpt>
      <trkpt lat="28.17464" lon="-14.19797">
        <ele>15.4</ele>
        <time>2021-07-05 14:43:35</time>
      </trkpt>
      <trkpt lat="28.17465" lon="-14.19798">
        <ele>15.4</ele>
        <time>2021-07-05 14:43:36</time>
      </trkpt>
      <trkpt lat="28.17465" lon="-14.198">
        <ele>15.4</ele>
        <time>2021-07-05 14:43:37</time>
      </trkpt>
      <trkpt lat="28.17466" lon="-14.19802">
        <ele>15.4</ele>
        <time>2021-07-05 14:43:38</time>
      </trkpt>
      <trkpt lat="28.17467" lon="-14.19803">
        <ele>15.4</ele>
        <time>2021-07-05 14:43:39</time>
      </trkpt>
      <trkpt lat="28.17468" lon="-14.19805">
        <ele>15.4</ele>
        <time>2021-07-05 14:43:40</time>
      </trkpt>
      <trkpt lat="28.17468" lon="-14.19807">
        <ele>15.8</ele>
        <time>2021-07-05 14:43:41</time>
      </trkpt>
      <trkpt lat="28.17468" lon="-14.19808">
        <ele>16.2</ele>
        <time>2021-07-05 14:43:42</time>
      </trkpt>
      <trkpt lat="28.17468" lon="-14.19809">
        <ele>16.8</ele>
        <time>2021-07-05 14:43:43</time>
      </trkpt>
      <trkpt lat="28.17468" lon="-14.1981">
        <ele>17.4</ele>
        <time>2021-07-05 14:43:44</time>
      </trkpt>
      <trkpt lat="28.17468" lon="-14.1981">
        <ele>17.6</ele>
        <time>2021-07-05 14:43:45</time>
      </trkpt>
      <trkpt lat="28.17468" lon="-14.1981">
        <ele>17.8</ele>
        <time>2021-07-05 14:43:46</time>
      </trkpt>
      <trkpt lat="28.17468" lon="-14.1981">
        <ele>17.8</ele>
        <time>2021-07-05 14:43:47</time>
      </trkpt>
      <trkpt lat="28.17468" lon="-14.1981">
        <ele>18.2</ele>
        <time>2021-07-05 14:43:48</time>
      </trkpt>
      <trkpt lat="28.17469" lon="-14.19809">
        <ele>19.6</ele>
        <time>2021-07-05 14:43:49</time>
      </trkpt>
      <trkpt lat="28.1747" lon="-14.1981">
        <ele>19.4</ele>
        <time>2021-07-05 14:43:50</time>
      </trkpt>
      <trkpt lat="28.1747" lon="-14.1981">
        <ele>19.4</ele>
        <time>2021-07-05 14:43:57</time>
      </trkpt>
      <trkpt lat="28.1747" lon="-14.19811">
        <ele>19.4</ele>
        <time>2021-07-05 14:43:58</time>
      </trkpt>
      <trkpt lat="28.1747" lon="-14.19811">
        <ele>19</ele>
        <time>2021-07-05 14:43:59</time>
      </trkpt>
      <trkpt lat="28.1747" lon="-14.19811">
        <ele>19</ele>
        <time>2021-07-05 14:44:00</time>
      </trkpt>
      <trkpt lat="28.1747" lon="-14.19811">
        <ele>19</ele>
        <time>2021-07-05 14:44:01</time>
      </trkpt>
      <trkpt lat="28.17468" lon="-14.19813">
        <ele>19</ele>
        <time>2021-07-05 14:44:02</time>
      </trkpt>
      <trkpt lat="28.17466" lon="-14.19814">
        <ele>19.6</ele>
        <time>2021-07-05 14:44:03</time>
      </trkpt>
      <trkpt lat="28.17465" lon="-14.19814">
        <ele>19.2</ele>
        <time>2021-07-05 14:44:06</time>
      </trkpt>
      <trkpt lat="28.17463" lon="-14.19813">
        <ele>19.2</ele>
        <time>2021-07-05 14:44:07</time>
      </trkpt>
      <trkpt lat="28.17462" lon="-14.19813">
        <ele>19.2</ele>
        <time>2021-07-05 14:44:08</time>
      </trkpt>
      <trkpt lat="28.17461" lon="-14.19813">
        <ele>18.8</ele>
        <time>2021-07-05 14:44:09</time>
      </trkpt>
      <trkpt lat="28.17459" lon="-14.19812">
        <ele>18.8</ele>
        <time>2021-07-05 14:44:10</time>
      </trkpt>
      <trkpt lat="28.17458" lon="-14.19812">
        <ele>18.4</ele>
        <time>2021-07-05 14:44:11</time>
      </trkpt>
      <trkpt lat="28.17457" lon="-14.19811">
        <ele>18.2</ele>
        <time>2021-07-05 14:44:12</time>
      </trkpt>
      <trkpt lat="28.17456" lon="-14.19811">
        <ele>17.8</ele>
        <time>2021-07-05 14:44:13</time>
      </trkpt>
      <trkpt lat="28.17454" lon="-14.1981">
        <ele>17.8</ele>
        <time>2021-07-05 14:44:14</time>
      </trkpt>
      <trkpt lat="28.17453" lon="-14.1981">
        <ele>17.8</ele>
        <time>2021-07-05 14:44:15</time>
      </trkpt>
      <trkpt lat="28.17452" lon="-14.1981">
        <ele>17.6</ele>
        <time>2021-07-05 14:44:16</time>
      </trkpt>
      <trkpt lat="28.17451" lon="-14.1981">
        <ele>17.6</ele>
        <time>2021-07-05 14:44:17</time>
      </trkpt>
      <trkpt lat="28.17449" lon="-14.1981">
        <ele>17.6</ele>
        <time>2021-07-05 14:44:18</time>
      </trkpt>
      <trkpt lat="28.17448" lon="-14.19811">
        <ele>17.6</ele>
        <time>2021-07-05 14:44:19</time>
      </trkpt>
      <trkpt lat="28.17448" lon="-14.19811">
        <ele>17.4</ele>
        <time>2021-07-05 14:44:20</time>
      </trkpt>
      <trkpt lat="28.17448" lon="-14.19811">
        <ele>17.4</ele>
        <time>2021-07-05 14:44:21</time>
      </trkpt>
      <trkpt lat="28.17448" lon="-14.19811">
        <ele>17.4</ele>
        <time>2021-07-05 14:44:22</time>
      </trkpt>
      <trkpt lat="28.17448" lon="-14.19811">
        <ele>17.2</ele>
        <time>2021-07-05 14:44:23</time>
      </trkpt>
      <trkpt lat="28.1745" lon="-14.1981">
        <ele>18.8</ele>
        <time>2021-07-05 14:44:24</time>
      </trkpt>
      <trkpt lat="28.17451" lon="-14.19809">
        <ele>18.6</ele>
        <time>2021-07-05 14:44:25</time>
      </trkpt>
      <trkpt lat="28.17451" lon="-14.19809">
        <ele>18.4</ele>
        <time>2021-07-05 14:46:36</time>
      </trkpt>
      <trkpt lat="28.17451" lon="-14.19809">
        <ele>18</ele>
        <time>2021-07-05 14:46:37</time>
      </trkpt>
      <trkpt lat="28.17451" lon="-14.19809">
        <ele>13.8</ele>
        <time>2021-07-05 14:46:38</time>
      </trkpt>
      <trkpt lat="28.17452" lon="-14.19809">
        <ele>13.8</ele>
        <time>2021-07-05 14:46:39</time>
      </trkpt>
      <trkpt lat="28.17453" lon="-14.19809">
        <ele>14.2</ele>
        <time>2021-07-05 14:48:50</time>
      </trkpt>
      <trkpt lat="28.17454" lon="-14.19808">
        <ele>14.2</ele>
        <time>2021-07-05 14:48:51</time>
      </trkpt>
      <trkpt lat="28.17456" lon="-14.19808">
        <ele>14.6</ele>
        <time>2021-07-05 14:48:52</time>
      </trkpt>
      <trkpt lat="28.17457" lon="-14.19808">
        <ele>14.8</ele>
        <time>2021-07-05 14:48:53</time>
      </trkpt>
      <trkpt lat="28.17458" lon="-14.19808">
        <ele>14.8</ele>
        <time>2021-07-05 14:48:54</time>
      </trkpt>
      <trkpt lat="28.17459" lon="-14.19808">
        <ele>14.8</ele>
        <time>2021-07-05 14:48:55</time>
      </trkpt>
      <trkpt lat="28.1746" lon="-14.19809">
        <ele>14.8</ele>
        <time>2021-07-05 14:48:56</time>
      </trkpt>
      <trkpt lat="28.17461" lon="-14.19809">
        <ele>14.6</ele>
        <time>2021-07-05 14:48:57</time>
      </trkpt>
      <trkpt lat="28.17462" lon="-14.1981">
        <ele>14.6</ele>
        <time>2021-07-05 14:48:58</time>
      </trkpt>
      <trkpt lat="28.17463" lon="-14.19811">
        <ele>14.6</ele>
        <time>2021-07-05 14:48:59</time>
      </trkpt>
      <trkpt lat="28.17464" lon="-14.19811">
        <ele>14.6</ele>
        <time>2021-07-05 14:49:00</time>
      </trkpt>
      <trkpt lat="28.17465" lon="-14.19812">
        <ele>15.2</ele>
        <time>2021-07-05 14:49:01</time>
      </trkpt>
      <trkpt lat="28.17466" lon="-14.19812">
        <ele>15.4</ele>
        <time>2021-07-05 14:49:02</time>
      </trkpt>
      <trkpt lat="28.17467" lon="-14.19812">
        <ele>15.8</ele>
        <time>2021-07-05 14:49:03</time>
      </trkpt>
      <trkpt lat="28.17468" lon="-14.19813">
        <ele>16</ele>
        <time>2021-07-05 14:49:04</time>
      </trkpt>
      <trkpt lat="28.17468" lon="-14.19813">
        <ele>16</ele>
        <time>2021-07-05 14:49:05</time>
      </trkpt>
      <trkpt lat="28.17469" lon="-14.19814">
        <ele>16.2</ele>
        <time>2021-07-05 14:49:06</time>
      </trkpt>
      <trkpt lat="28.1747" lon="-14.19814">
        <ele>16.6</ele>
        <time>2021-07-05 14:49:07</time>
      </trkpt>
      <trkpt lat="28.1747" lon="-14.19814">
        <ele>16.8</ele>
        <time>2021-07-05 14:49:08</time>
      </trkpt>
      <trkpt lat="28.17471" lon="-14.19814">
        <ele>16.8</ele>
        <time>2021-07-05 14:49:09</time>
      </trkpt>
      <trkpt lat="28.17471" lon="-14.19815">
        <ele>16.8</ele>
        <time>2021-07-05 14:49:10</time>
      </trkpt>
      <trkpt lat="28.17471" lon="-14.19815">
        <ele>16.8</ele>
        <time>2021-07-05 14:49:11</time>
      </trkpt>
      <trkpt lat="28.17471" lon="-14.19816">
        <ele>16.8</ele>
        <time>2021-07-05 14:49:12</time>
      </trkpt>
      <trkpt lat="28.17471" lon="-14.19816">
        <ele>17</ele>
        <time>2021-07-05 14:49:13</time>
      </trkpt>
      <trkpt lat="28.17472" lon="-14.19817">
        <ele>18.4</ele>
        <time>2021-07-05 14:49:14</time>
      </trkpt>
      <trkpt lat="28.17473" lon="-14.19818">
        <ele>18.2</ele>
        <time>2021-07-05 14:49:15</time>
      </trkpt>
      <trkpt lat="28.17474" lon="-14.19819">
        <ele>18.2</ele>
        <time>2021-07-05 14:49:28</time>
      </trkpt>
      <trkpt lat="28.17474" lon="-14.1982">
        <ele>17.8</ele>
        <time>2021-07-05 14:49:29</time>
      </trkpt>
      <trkpt lat="28.17475" lon="-14.19822">
        <ele>17.8</ele>
        <time>2021-07-05 14:49:30</time>
      </trkpt>
      <trkpt lat="28.17476" lon="-14.19824">
        <ele>17.8</ele>
        <time>2021-07-05 14:49:31</time>
      </trkpt>
      <trkpt lat="28.17477" lon="-14.19826">
        <ele>17.8</ele>
        <time>2021-07-05 14:49:32</time>
      </trkpt>
      <trkpt lat="28.17478" lon="-14.19828">
        <ele>18</ele>
        <time>2021-07-05 14:49:33</time>
      </trkpt>
      <trkpt lat="28.17479" lon="-14.1983">
        <ele>18</ele>
        <time>2021-07-05 14:49:34</time>
      </trkpt>
      <trkpt lat="28.1748" lon="-14.19832">
        <ele>18</ele>
        <time>2021-07-05 14:49:35</time>
      </trkpt>
      <trkpt lat="28.17481" lon="-14.19834">
        <ele>18.2</ele>
        <time>2021-07-05 14:49:36</time>
      </trkpt>
      <trkpt lat="28.17482" lon="-14.19836">
        <ele>18.2</ele>
        <time>2021-07-05 14:49:37</time>
      </trkpt>
      <trkpt lat="28.17482" lon="-14.19838">
        <ele>18.2</ele>
        <time>2021-07-05 14:49:38</time>
      </trkpt>
      <trkpt lat="28.17483" lon="-14.19841">
        <ele>18.2</ele>
        <time>2021-07-05 14:49:39</time>
      </trkpt>
      <trkpt lat="28.17484" lon="-14.19844">
        <ele>18.2</ele>
        <time>2021-07-05 14:49:40</time>
      </trkpt>
      <trkpt lat="28.17484" lon="-14.19846">
        <ele>18.2</ele>
        <time>2021-07-05 14:49:41</time>
      </trkpt>
      <trkpt lat="28.17485" lon="-14.19849">
        <ele>18.2</ele>
        <time>2021-07-05 14:49:42</time>
      </trkpt>
      <trkpt lat="28.17485" lon="-14.19852">
        <ele>18.2</ele>
        <time>2021-07-05 14:49:43</time>
      </trkpt>
      <trkpt lat="28.17485" lon="-14.19855">
        <ele>18.2</ele>
        <time>2021-07-05 14:49:44</time>
      </trkpt>
      <trkpt lat="28.17485" lon="-14.19858">
        <ele>18.2</ele>
        <time>2021-07-05 14:49:45</time>
      </trkpt>
      <trkpt lat="28.17485" lon="-14.1986">
        <ele>18.2</ele>
        <time>2021-07-05 14:49:46</time>
      </trkpt>
      <trkpt lat="28.17485" lon="-14.19863">
        <ele>18.6</ele>
        <time>2021-07-05 14:49:47</time>
      </trkpt>
      <trkpt lat="28.17485" lon="-14.19866">
        <ele>18.8</ele>
        <time>2021-07-05 14:49:48</time>
      </trkpt>
      <trkpt lat="28.17484" lon="-14.19869">
        <ele>19</ele>
        <time>2021-07-05 14:49:49</time>
      </trkpt>
      <trkpt lat="28.17483" lon="-14.19872">
        <ele>19</ele>
        <time>2021-07-05 14:49:50</time>
      </trkpt>
      <trkpt lat="28.17482" lon="-14.19875">
        <ele>19.4</ele>
        <time>2021-07-05 14:49:51</time>
      </trkpt>
      <trkpt lat="28.17481" lon="-14.19878">
        <ele>19.8</ele>
        <time>2021-07-05 14:49:52</time>
      </trkpt>
      <trkpt lat="28.1748" lon="-14.19881">
        <ele>20.2</ele>
        <time>2021-07-05 14:49:53</time>
      </trkpt>
      <trkpt lat="28.17479" lon="-14.19884">
        <ele>20.2</ele>
        <time>2021-07-05 14:49:54</time>
      </trkpt>
      <trkpt lat="28.17478" lon="-14.19887">
        <ele>20.4</ele>
        <time>2021-07-05 14:49:55</time>
      </trkpt>
      <trkpt lat="28.17477" lon="-14.1989">
        <ele>20.4</ele>
        <time>2021-07-05 14:49:56</time>
      </trkpt>
      <trkpt lat="28.17476" lon="-14.19893">
        <ele>20.6</ele>
        <time>2021-07-05 14:49:57</time>
      </trkpt>
      <trkpt lat="28.17475" lon="-14.19895">
        <ele>20.6</ele>
        <time>2021-07-05 14:49:58</time>
      </trkpt>
      <trkpt lat="28.17473" lon="-14.19898">
        <ele>20.8</ele>
        <time>2021-07-05 14:49:59</time>
      </trkpt>
      <trkpt lat="28.17472" lon="-14.19901">
        <ele>20.8</ele>
        <time>2021-07-05 14:50:00</time>
      </trkpt>
      <trkpt lat="28.17471" lon="-14.19903">
        <ele>20.8</ele>
        <time>2021-07-05 14:50:01</time>
      </trkpt>
      <trkpt lat="28.17469" lon="-14.19906">
        <ele>21.2</ele>
        <time>2021-07-05 14:50:02</time>
      </trkpt>
      <trkpt lat="28.17469" lon="-14.19908">
        <ele>21.2</ele>
        <time>2021-07-05 14:50:03</time>
      </trkpt>
      <trkpt lat="28.17468" lon="-14.1991">
        <ele>21.4</ele>
        <time>2021-07-05 14:50:04</time>
      </trkpt>
      <trkpt lat="28.17468" lon="-14.19912">
        <ele>22</ele>
        <time>2021-07-05 14:50:05</time>
      </trkpt>
      <trkpt lat="28.17467" lon="-14.19914">
        <ele>22</ele>
        <time>2021-07-05 14:50:06</time>
      </trkpt>
      <trkpt lat="28.17466" lon="-14.19916">
        <ele>22.4</ele>
        <time>2021-07-05 14:50:07</time>
      </trkpt>
      <trkpt lat="28.17466" lon="-14.19918">
        <ele>22.4</ele>
        <time>2021-07-05 14:50:08</time>
      </trkpt>
      <trkpt lat="28.17466" lon="-14.1992">
        <ele>22.4</ele>
        <time>2021-07-05 14:50:09</time>
      </trkpt>
      <trkpt lat="28.17466" lon="-14.19922">
        <ele>22.8</ele>
        <time>2021-07-05 14:50:10</time>
      </trkpt>
      <trkpt lat="28.17465" lon="-14.19924">
        <ele>23</ele>
        <time>2021-07-05 14:50:11</time>
      </trkpt>
      <trkpt lat="28.17465" lon="-14.19926">
        <ele>23.8</ele>
        <time>2021-07-05 14:50:12</time>
      </trkpt>
      <trkpt lat="28.17464" lon="-14.19928">
        <ele>23.8</ele>
        <time>2021-07-05 14:50:13</time>
      </trkpt>
      <trkpt lat="28.17464" lon="-14.1993">
        <ele>24</ele>
        <time>2021-07-05 14:50:14</time>
      </trkpt>
      <trkpt lat="28.17463" lon="-14.19933">
        <ele>24</ele>
        <time>2021-07-05 14:50:15</time>
      </trkpt>
      <trkpt lat="28.17464" lon="-14.19935">
        <ele>24</ele>
        <time>2021-07-05 14:50:16</time>
      </trkpt>
      <trkpt lat="28.17464" lon="-14.19937">
        <ele>24.2</ele>
        <time>2021-07-05 14:50:17</time>
      </trkpt>
      <trkpt lat="28.17465" lon="-14.19939">
        <ele>24.2</ele>
        <time>2021-07-05 14:50:18</time>
      </trkpt>
      <trkpt lat="28.17465" lon="-14.19941">
        <ele>24.4</ele>
        <time>2021-07-05 14:50:19</time>
      </trkpt>
      <trkpt lat="28.17465" lon="-14.19943">
        <ele>25</ele>
        <time>2021-07-05 14:50:20</time>
      </trkpt>
      <trkpt lat="28.17465" lon="-14.19944">
        <ele>25</ele>
        <time>2021-07-05 14:50:21</time>
      </trkpt>
      <trkpt lat="28.17465" lon="-14.19946">
        <ele>25</ele>
        <time>2021-07-05 14:50:22</time>
      </trkpt>
      <trkpt lat="28.17465" lon="-14.19948">
        <ele>25.4</ele>
        <time>2021-07-05 14:50:23</time>
      </trkpt>
      <trkpt lat="28.17466" lon="-14.1995">
        <ele>25.4</ele>
        <time>2021-07-05 14:50:24</time>
      </trkpt>
      <trkpt lat="28.17466" lon="-14.19951">
        <ele>26</ele>
        <time>2021-07-05 14:50:25</time>
      </trkpt>
      <trkpt lat="28.17466" lon="-14.19953">
        <ele>27</ele>
        <time>2021-07-05 14:50:26</time>
      </trkpt>
      <trkpt lat="28.17466" lon="-14.19955">
        <ele>27</ele>
        <time>2021-07-05 14:50:27</time>
      </trkpt>
      <trkpt lat="28.17465" lon="-14.19956">
        <ele>27.8</ele>
        <time>2021-07-05 14:50:28</time>
      </trkpt>
      <trkpt lat="28.17464" lon="-14.19958">
        <ele>27.8</ele>
        <time>2021-07-05 14:50:29</time>
      </trkpt>
      <trkpt lat="28.17464" lon="-14.19959">
        <ele>27.8</ele>
        <time>2021-07-05 14:50:30</time>
      </trkpt>
      <trkpt lat="28.17465" lon="-14.19961">
        <ele>27.8</ele>
        <time>2021-07-05 14:50:31</time>
      </trkpt>
      <trkpt lat="28.17465" lon="-14.19963">
        <ele>27.8</ele>
        <time>2021-07-05 14:50:32</time>
      </trkpt>
      <trkpt lat="28.17465" lon="-14.19965">
        <ele>28</ele>
        <time>2021-07-05 14:50:33</time>
      </trkpt>
      <trkpt lat="28.17464" lon="-14.19967">
        <ele>28</ele>
        <time>2021-07-05 14:50:34</time>
      </trkpt>
      <trkpt lat="28.17464" lon="-14.19969">
        <ele>28</ele>
        <time>2021-07-05 14:50:35</time>
      </trkpt>
      <trkpt lat="28.17464" lon="-14.19971">
        <ele>27.8</ele>
        <time>2021-07-05 14:50:36</time>
      </trkpt>
      <trkpt lat="28.17465" lon="-14.19973">
        <ele>27.8</ele>
        <time>2021-07-05 14:50:37</time>
      </trkpt>
      <trkpt lat="28.17465" lon="-14.19975">
        <ele>27.8</ele>
        <time>2021-07-05 14:50:38</time>
      </trkpt>
      <trkpt lat="28.17464" lon="-14.19977">
        <ele>27.8</ele>
        <time>2021-07-05 14:50:39</time>
      </trkpt>
      <trkpt lat="28.17464" lon="-14.19979">
        <ele>28</ele>
        <time>2021-07-05 14:50:40</time>
      </trkpt>
      <trkpt lat="28.17463" lon="-14.19981">
        <ele>28.2</ele>
        <time>2021-07-05 14:50:41</time>
      </trkpt>
      <trkpt lat="28.17462" lon="-14.19983">
        <ele>28.2</ele>
        <time>2021-07-05 14:50:42</time>
      </trkpt>
      <trkpt lat="28.17462" lon="-14.19985">
        <ele>28.2</ele>
        <time>2021-07-05 14:50:43</time>
      </trkpt>
      <trkpt lat="28.17461" lon="-14.19987">
        <ele>28.2</ele>
        <time>2021-07-05 14:50:44</time>
      </trkpt>
      <trkpt lat="28.17461" lon="-14.1999">
        <ele>28.6</ele>
        <time>2021-07-05 14:50:45</time>
      </trkpt>
      <trkpt lat="28.1746" lon="-14.19992">
        <ele>28.6</ele>
        <time>2021-07-05 14:50:46</time>
      </trkpt>
      <trkpt lat="28.17459" lon="-14.19994">
        <ele>29</ele>
        <time>2021-07-05 14:50:47</time>
      </trkpt>
      <trkpt lat="28.17459" lon="-14.19996">
        <ele>29.4</ele>
        <time>2021-07-05 14:50:48</time>
      </trkpt>
      <trkpt lat="28.17458" lon="-14.19998">
        <ele>29.4</ele>
        <time>2021-07-05 14:50:49</time>
      </trkpt>
      <trkpt lat="28.17457" lon="-14.2">
        <ele>29.8</ele>
        <time>2021-07-05 14:50:50</time>
      </trkpt>
      <trkpt lat="28.17457" lon="-14.20002">
        <ele>29.8</ele>
        <time>2021-07-05 14:50:51</time>
      </trkpt>
      <trkpt lat="28.17456" lon="-14.20004">
        <ele>29.8</ele>
        <time>2021-07-05 14:50:52</time>
      </trkpt>
      <trkpt lat="28.17455" lon="-14.20007">
        <ele>29.8</ele>
        <time>2021-07-05 14:50:53</time>
      </trkpt>
      <trkpt lat="28.17455" lon="-14.20009">
        <ele>29.8</ele>
        <time>2021-07-05 14:50:54</time>
      </trkpt>
      <trkpt lat="28.17454" lon="-14.20011">
        <ele>29.4</ele>
        <time>2021-07-05 14:50:55</time>
      </trkpt>
      <trkpt lat="28.17454" lon="-14.20013">
        <ele>29.2</ele>
        <time>2021-07-05 14:50:56</time>
      </trkpt>
      <trkpt lat="28.17453" lon="-14.20015">
        <ele>29.2</ele>
        <time>2021-07-05 14:50:57</time>
      </trkpt>
      <trkpt lat="28.17453" lon="-14.20017">
        <ele>29.2</ele>
        <time>2021-07-05 14:50:58</time>
      </trkpt>
      <trkpt lat="28.17452" lon="-14.20019">
        <ele>29.2</ele>
        <time>2021-07-05 14:50:59</time>
      </trkpt>
      <trkpt lat="28.17451" lon="-14.20021">
        <ele>29.2</ele>
        <time>2021-07-05 14:51:00</time>
      </trkpt>
      <trkpt lat="28.1745" lon="-14.20023">
        <ele>29.2</ele>
        <time>2021-07-05 14:51:01</time>
      </trkpt>
      <trkpt lat="28.1745" lon="-14.20026">
        <ele>29.6</ele>
        <time>2021-07-05 14:51:02</time>
      </trkpt>
      <trkpt lat="28.17449" lon="-14.20028">
        <ele>29.6</ele>
        <time>2021-07-05 14:51:03</time>
      </trkpt>
      <trkpt lat="28.17449" lon="-14.2003">
        <ele>29.8</ele>
        <time>2021-07-05 14:51:04</time>
      </trkpt>
      <trkpt lat="28.17448" lon="-14.20032">
        <ele>30</ele>
        <time>2021-07-05 14:51:05</time>
      </trkpt>
      <trkpt lat="28.17447" lon="-14.20034">
        <ele>30</ele>
        <time>2021-07-05 14:51:06</time>
      </trkpt>
      <trkpt lat="28.17446" lon="-14.20036">
        <ele>30.2</ele>
        <time>2021-07-05 14:51:07</time>
      </trkpt>
      <trkpt lat="28.17445" lon="-14.20038">
        <ele>30.2</ele>
        <time>2021-07-05 14:51:08</time>
      </trkpt>
      <trkpt lat="28.17445" lon="-14.2004">
        <ele>30.2</ele>
        <time>2021-07-05 14:51:09</time>
      </trkpt>
      <trkpt lat="28.17444" lon="-14.20042">
        <ele>29.6</ele>
        <time>2021-07-05 14:51:10</time>
      </trkpt>
      <trkpt lat="28.17443" lon="-14.20044">
        <ele>29.6</ele>
        <time>2021-07-05 14:51:11</time>
      </trkpt>
      <trkpt lat="28.17443" lon="-14.20046">
        <ele>29.6</ele>
        <time>2021-07-05 14:51:12</time>
      </trkpt>
      <trkpt lat="28.17442" lon="-14.20047">
        <ele>29.6</ele>
        <time>2021-07-05 14:51:13</time>
      </trkpt>
      <trkpt lat="28.17442" lon="-14.20049">
        <ele>29.6</ele>
        <time>2021-07-05 14:51:14</time>
      </trkpt>
      <trkpt lat="28.17442" lon="-14.20051">
        <ele>29.4</ele>
        <time>2021-07-05 14:51:15</time>
      </trkpt>
      <trkpt lat="28.17442" lon="-14.20054">
        <ele>29.4</ele>
        <time>2021-07-05 14:51:16</time>
      </trkpt>
      <trkpt lat="28.17441" lon="-14.20056">
        <ele>29.4</ele>
        <time>2021-07-05 14:51:17</time>
      </trkpt>
      <trkpt lat="28.17441" lon="-14.20058">
        <ele>29.8</ele>
        <time>2021-07-05 14:51:18</time>
      </trkpt>
      <trkpt lat="28.17439" lon="-14.2006">
        <ele>29.8</ele>
        <time>2021-07-05 14:51:19</time>
      </trkpt>
      <trkpt lat="28.17438" lon="-14.20062">
        <ele>29.8</ele>
        <time>2021-07-05 14:51:20</time>
      </trkpt>
      <trkpt lat="28.17437" lon="-14.20064">
        <ele>29.8</ele>
        <time>2021-07-05 14:51:21</time>
      </trkpt>
      <trkpt lat="28.17436" lon="-14.20065">
        <ele>30.4</ele>
        <time>2021-07-05 14:51:22</time>
      </trkpt>
      <trkpt lat="28.17434" lon="-14.20067">
        <ele>30.6</ele>
        <time>2021-07-05 14:51:23</time>
      </trkpt>
      <trkpt lat="28.17433" lon="-14.20069">
        <ele>30.8</ele>
        <time>2021-07-05 14:51:24</time>
      </trkpt>
      <trkpt lat="28.17431" lon="-14.20071">
        <ele>31.2</ele>
        <time>2021-07-05 14:51:25</time>
      </trkpt>
      <trkpt lat="28.1743" lon="-14.20073">
        <ele>32.2</ele>
        <time>2021-07-05 14:51:26</time>
      </trkpt>
      <trkpt lat="28.17428" lon="-14.20075">
        <ele>32.2</ele>
        <time>2021-07-05 14:51:27</time>
      </trkpt>
      <trkpt lat="28.17427" lon="-14.20077">
        <ele>33</ele>
        <time>2021-07-05 14:51:28</time>
      </trkpt>
      <trkpt lat="28.17426" lon="-14.20079">
        <ele>33.6</ele>
        <time>2021-07-05 14:51:29</time>
      </trkpt>
      <trkpt lat="28.17425" lon="-14.20081">
        <ele>34</ele>
        <time>2021-07-05 14:51:30</time>
      </trkpt>
      <trkpt lat="28.17424" lon="-14.20083">
        <ele>34.6</ele>
        <time>2021-07-05 14:51:31</time>
      </trkpt>
      <trkpt lat="28.17422" lon="-14.20085">
        <ele>34.6</ele>
        <time>2021-07-05 14:51:32</time>
      </trkpt>
      <trkpt lat="28.1742" lon="-14.20087">
        <ele>34.6</ele>
        <time>2021-07-05 14:51:33</time>
      </trkpt>
      <trkpt lat="28.17419" lon="-14.20089">
        <ele>34.8</ele>
        <time>2021-07-05 14:51:34</time>
      </trkpt>
      <trkpt lat="28.17417" lon="-14.20091">
        <ele>35</ele>
        <time>2021-07-05 14:51:35</time>
      </trkpt>
      <trkpt lat="28.17415" lon="-14.20093">
        <ele>35</ele>
        <time>2021-07-05 14:51:36</time>
      </trkpt>
      <trkpt lat="28.17414" lon="-14.20096">
        <ele>35.4</ele>
        <time>2021-07-05 14:51:37</time>
      </trkpt>
      <trkpt lat="28.17412" lon="-14.20098">
        <ele>35.4</ele>
        <time>2021-07-05 14:51:38</time>
      </trkpt>
      <trkpt lat="28.1741" lon="-14.201">
        <ele>35.4</ele>
        <time>2021-07-05 14:51:39</time>
      </trkpt>
      <trkpt lat="28.17408" lon="-14.20103">
        <ele>35.4</ele>
        <time>2021-07-05 14:51:40</time>
      </trkpt>
      <trkpt lat="28.17406" lon="-14.20105">
        <ele>35.4</ele>
        <time>2021-07-05 14:51:41</time>
      </trkpt>
      <trkpt lat="28.17405" lon="-14.20107">
        <ele>35.4</ele>
        <time>2021-07-05 14:51:42</time>
      </trkpt>
      <trkpt lat="28.17403" lon="-14.20109">
        <ele>35.6</ele>
        <time>2021-07-05 14:51:43</time>
      </trkpt>
      <trkpt lat="28.17401" lon="-14.20112">
        <ele>35.6</ele>
        <time>2021-07-05 14:51:44</time>
      </trkpt>
      <trkpt lat="28.17399" lon="-14.20115">
        <ele>35.8</ele>
        <time>2021-07-05 14:51:45</time>
      </trkpt>
      <trkpt lat="28.17398" lon="-14.20117">
        <ele>35.8</ele>
        <time>2021-07-05 14:51:46</time>
      </trkpt>
      <trkpt lat="28.17396" lon="-14.20119">
        <ele>35.8</ele>
        <time>2021-07-05 14:51:47</time>
      </trkpt>
      <trkpt lat="28.17394" lon="-14.20122">
        <ele>35.8</ele>
        <time>2021-07-05 14:51:48</time>
      </trkpt>
      <trkpt lat="28.17393" lon="-14.20124">
        <ele>35.6</ele>
        <time>2021-07-05 14:51:49</time>
      </trkpt>
      <trkpt lat="28.17391" lon="-14.20127">
        <ele>35.6</ele>
        <time>2021-07-05 14:51:50</time>
      </trkpt>
      <trkpt lat="28.17389" lon="-14.20129">
        <ele>35.4</ele>
        <time>2021-07-05 14:51:51</time>
      </trkpt>
      <trkpt lat="28.17386" lon="-14.20132">
        <ele>35.2</ele>
        <time>2021-07-05 14:51:52</time>
      </trkpt>
      <trkpt lat="28.17384" lon="-14.20135">
        <ele>35.2</ele>
        <time>2021-07-05 14:51:53</time>
      </trkpt>
      <trkpt lat="28.17382" lon="-14.20138">
        <ele>34.8</ele>
        <time>2021-07-05 14:51:54</time>
      </trkpt>
      <trkpt lat="28.17379" lon="-14.20141">
        <ele>34.6</ele>
        <time>2021-07-05 14:51:55</time>
      </trkpt>
      <trkpt lat="28.17377" lon="-14.20145">
        <ele>34.6</ele>
        <time>2021-07-05 14:51:56</time>
      </trkpt>
      <trkpt lat="28.17374" lon="-14.20148">
        <ele>34.4</ele>
        <time>2021-07-05 14:51:57</time>
      </trkpt>
      <trkpt lat="28.17372" lon="-14.20151">
        <ele>34.4</ele>
        <time>2021-07-05 14:51:58</time>
      </trkpt>
      <trkpt lat="28.17369" lon="-14.20154">
        <ele>34.4</ele>
        <time>2021-07-05 14:51:59</time>
      </trkpt>
      <trkpt lat="28.17367" lon="-14.20157">
        <ele>34.4</ele>
        <time>2021-07-05 14:52:00</time>
      </trkpt>
      <trkpt lat="28.17365" lon="-14.2016">
        <ele>34.4</ele>
        <time>2021-07-05 14:52:01</time>
      </trkpt>
      <trkpt lat="28.17363" lon="-14.20164">
        <ele>34.4</ele>
        <time>2021-07-05 14:52:02</time>
      </trkpt>
      <trkpt lat="28.17361" lon="-14.20167">
        <ele>34.4</ele>
        <time>2021-07-05 14:52:03</time>
      </trkpt>
      <trkpt lat="28.17359" lon="-14.20171">
        <ele>34.4</ele>
        <time>2021-07-05 14:52:04</time>
      </trkpt>
      <trkpt lat="28.17357" lon="-14.20175">
        <ele>34.6</ele>
        <time>2021-07-05 14:52:05</time>
      </trkpt>
      <trkpt lat="28.17355" lon="-14.20179">
        <ele>34.6</ele>
        <time>2021-07-05 14:52:06</time>
      </trkpt>
      <trkpt lat="28.17353" lon="-14.20182">
        <ele>35</ele>
        <time>2021-07-05 14:52:07</time>
      </trkpt>
      <trkpt lat="28.17351" lon="-14.20185">
        <ele>35</ele>
        <time>2021-07-05 14:52:08</time>
      </trkpt>
      <trkpt lat="28.1735" lon="-14.20189">
        <ele>35</ele>
        <time>2021-07-05 14:52:09</time>
      </trkpt>
      <trkpt lat="28.17349" lon="-14.20192">
        <ele>35</ele>
        <time>2021-07-05 14:52:10</time>
      </trkpt>
      <trkpt lat="28.17347" lon="-14.20196">
        <ele>34.4</ele>
        <time>2021-07-05 14:52:11</time>
      </trkpt>
      <trkpt lat="28.17347" lon="-14.20199">
        <ele>34</ele>
        <time>2021-07-05 14:52:12</time>
      </trkpt>
      <trkpt lat="28.17346" lon="-14.20201">
        <ele>34</ele>
        <time>2021-07-05 14:52:13</time>
      </trkpt>
      <trkpt lat="28.17346" lon="-14.20204">
        <ele>33.6</ele>
        <time>2021-07-05 14:52:14</time>
      </trkpt>
      <trkpt lat="28.17345" lon="-14.20206">
        <ele>33.6</ele>
        <time>2021-07-05 14:52:15</time>
      </trkpt>
      <trkpt lat="28.17345" lon="-14.20209">
        <ele>33</ele>
        <time>2021-07-05 14:52:16</time>
      </trkpt>
      <trkpt lat="28.17344" lon="-14.20212">
        <ele>33</ele>
        <time>2021-07-05 14:52:17</time>
      </trkpt>
      <trkpt lat="28.17344" lon="-14.20214">
        <ele>32.4</ele>
        <time>2021-07-05 14:52:18</time>
      </trkpt>
      <trkpt lat="28.17343" lon="-14.20217">
        <ele>31.6</ele>
        <time>2021-07-05 14:52:19</time>
      </trkpt>
      <trkpt lat="28.17342" lon="-14.2022">
        <ele>31</ele>
        <time>2021-07-05 14:52:20</time>
      </trkpt>
      <trkpt lat="28.17342" lon="-14.20222">
        <ele>30.2</ele>
        <time>2021-07-05 14:52:21</time>
      </trkpt>
      <trkpt lat="28.17341" lon="-14.20225">
        <ele>29.6</ele>
        <time>2021-07-05 14:52:22</time>
      </trkpt>
      <trkpt lat="28.1734" lon="-14.20228">
        <ele>28.8</ele>
        <time>2021-07-05 14:52:23</time>
      </trkpt>
      <trkpt lat="28.1734" lon="-14.20231">
        <ele>28.2</ele>
        <time>2021-07-05 14:52:24</time>
      </trkpt>
      <trkpt lat="28.17339" lon="-14.20234">
        <ele>26.8</ele>
        <time>2021-07-05 14:52:25</time>
      </trkpt>
      <trkpt lat="28.17338" lon="-14.20237">
        <ele>26.8</ele>
        <time>2021-07-05 14:52:26</time>
      </trkpt>
      <trkpt lat="28.17338" lon="-14.2024">
        <ele>26</ele>
        <time>2021-07-05 14:52:27</time>
      </trkpt>
      <trkpt lat="28.17337" lon="-14.20243">
        <ele>25.4</ele>
        <time>2021-07-05 14:52:28</time>
      </trkpt>
      <trkpt lat="28.17336" lon="-14.20246">
        <ele>25</ele>
        <time>2021-07-05 14:52:29</time>
      </trkpt>
      <trkpt lat="28.17334" lon="-14.20249">
        <ele>24.4</ele>
        <time>2021-07-05 14:52:30</time>
      </trkpt>
      <trkpt lat="28.17331" lon="-14.20252">
        <ele>24</ele>
        <time>2021-07-05 14:52:31</time>
      </trkpt>
      <trkpt lat="28.17328" lon="-14.20254">
        <ele>23.4</ele>
        <time>2021-07-05 14:52:32</time>
      </trkpt>
      <trkpt lat="28.17325" lon="-14.20256">
        <ele>22.8</ele>
        <time>2021-07-05 14:52:33</time>
      </trkpt>
      <trkpt lat="28.17321" lon="-14.20256">
        <ele>22</ele>
        <time>2021-07-05 14:52:34</time>
      </trkpt>
      <trkpt lat="28.17317" lon="-14.20256">
        <ele>21.4</ele>
        <time>2021-07-05 14:52:35</time>
      </trkpt>
      <trkpt lat="28.17313" lon="-14.20256">
        <ele>20.8</ele>
        <time>2021-07-05 14:52:36</time>
      </trkpt>
      <trkpt lat="28.17309" lon="-14.20255">
        <ele>20</ele>
        <time>2021-07-05 14:52:37</time>
      </trkpt>
      <trkpt lat="28.17305" lon="-14.20253">
        <ele>19.4</ele>
        <time>2021-07-05 14:52:38</time>
      </trkpt>
      <trkpt lat="28.17301" lon="-14.20253">
        <ele>18.4</ele>
        <time>2021-07-05 14:52:39</time>
      </trkpt>
      <trkpt lat="28.17298" lon="-14.20254">
        <ele>18.4</ele>
        <time>2021-07-05 14:52:40</time>
      </trkpt>
      <trkpt lat="28.17295" lon="-14.20257">
        <ele>17.8</ele>
        <time>2021-07-05 14:52:41</time>
      </trkpt>
      <trkpt lat="28.17292" lon="-14.20258">
        <ele>17.4</ele>
        <time>2021-07-05 14:52:42</time>
      </trkpt>
      <trkpt lat="28.17288" lon="-14.20259">
        <ele>17.4</ele>
        <time>2021-07-05 14:52:43</time>
      </trkpt>
      <trkpt lat="28.17287" lon="-14.2026">
        <ele>17.2</ele>
        <time>2021-07-05 14:52:44</time>
      </trkpt>
      <trkpt lat="28.17284" lon="-14.20261">
        <ele>17.2</ele>
        <time>2021-07-05 14:52:45</time>
      </trkpt>
      <trkpt lat="28.17281" lon="-14.20263">
        <ele>16.8</ele>
        <time>2021-07-05 14:52:46</time>
      </trkpt>
      <trkpt lat="28.17279" lon="-14.20264">
        <ele>16.8</ele>
        <time>2021-07-05 14:52:47</time>
      </trkpt>
      <trkpt lat="28.17276" lon="-14.20265">
        <ele>16.4</ele>
        <time>2021-07-05 14:52:48</time>
      </trkpt>
      <trkpt lat="28.17274" lon="-14.20267">
        <ele>16.4</ele>
        <time>2021-07-05 14:52:49</time>
      </trkpt>
      <trkpt lat="28.17271" lon="-14.20269">
        <ele>16.4</ele>
        <time>2021-07-05 14:52:50</time>
      </trkpt>
      <trkpt lat="28.17269" lon="-14.2027">
        <ele>16</ele>
        <time>2021-07-05 14:52:51</time>
      </trkpt>
      <trkpt lat="28.17266" lon="-14.20272">
        <ele>15.8</ele>
        <time>2021-07-05 14:52:52</time>
      </trkpt>
      <trkpt lat="28.17264" lon="-14.20274">
        <ele>15.6</ele>
        <time>2021-07-05 14:52:53</time>
      </trkpt>
      <trkpt lat="28.17261" lon="-14.20276">
        <ele>15.6</ele>
        <time>2021-07-05 14:52:54</time>
      </trkpt>
      <trkpt lat="28.17259" lon="-14.20279">
        <ele>15.4</ele>
        <time>2021-07-05 14:52:55</time>
      </trkpt>
      <trkpt lat="28.17257" lon="-14.20281">
        <ele>15.4</ele>
        <time>2021-07-05 14:52:56</time>
      </trkpt>
      <trkpt lat="28.17255" lon="-14.20284">
        <ele>15.4</ele>
        <time>2021-07-05 14:52:57</time>
      </trkpt>
      <trkpt lat="28.17253" lon="-14.20287">
        <ele>15.4</ele>
        <time>2021-07-05 14:52:58</time>
      </trkpt>
      <trkpt lat="28.17251" lon="-14.20289">
        <ele>15.4</ele>
        <time>2021-07-05 14:52:59</time>
      </trkpt>
      <trkpt lat="28.17249" lon="-14.20292">
        <ele>15</ele>
        <time>2021-07-05 14:53:00</time>
      </trkpt>
      <trkpt lat="28.17246" lon="-14.20295">
        <ele>15</ele>
        <time>2021-07-05 14:53:01</time>
      </trkpt>
      <trkpt lat="28.17244" lon="-14.20298">
        <ele>15</ele>
        <time>2021-07-05 14:53:02</time>
      </trkpt>
      <trkpt lat="28.17242" lon="-14.20301">
        <ele>15</ele>
        <time>2021-07-05 14:53:03</time>
      </trkpt>
      <trkpt lat="28.17239" lon="-14.20304">
        <ele>14.6</ele>
        <time>2021-07-05 14:53:04</time>
      </trkpt>
      <trkpt lat="28.17237" lon="-14.20307">
        <ele>14.6</ele>
        <time>2021-07-05 14:53:05</time>
      </trkpt>
      <trkpt lat="28.17235" lon="-14.20309">
        <ele>14.4</ele>
        <time>2021-07-05 14:53:06</time>
      </trkpt>
      <trkpt lat="28.17232" lon="-14.20312">
        <ele>14.4</ele>
        <time>2021-07-05 14:53:07</time>
      </trkpt>
      <trkpt lat="28.1723" lon="-14.20315">
        <ele>14</ele>
        <time>2021-07-05 14:53:08</time>
      </trkpt>
      <trkpt lat="28.17228" lon="-14.20318">
        <ele>14</ele>
        <time>2021-07-05 14:53:09</time>
      </trkpt>
      <trkpt lat="28.17226" lon="-14.20321">
        <ele>14</ele>
        <time>2021-07-05 14:53:10</time>
      </trkpt>
      <trkpt lat="28.17224" lon="-14.20324">
        <ele>14</ele>
        <time>2021-07-05 14:53:11</time>
      </trkpt>
      <trkpt lat="28.17222" lon="-14.20326">
        <ele>14.4</ele>
        <time>2021-07-05 14:53:12</time>
      </trkpt>
      <trkpt lat="28.17219" lon="-14.20328">
        <ele>14.8</ele>
        <time>2021-07-05 14:53:13</time>
      </trkpt>
      <trkpt lat="28.17217" lon="-14.20331">
        <ele>15</ele>
        <time>2021-07-05 14:53:14</time>
      </trkpt>
      <trkpt lat="28.17216" lon="-14.20333">
        <ele>15.4</ele>
        <time>2021-07-05 14:53:15</time>
      </trkpt>
      <trkpt lat="28.17214" lon="-14.20336">
        <ele>15.6</ele>
        <time>2021-07-05 14:53:16</time>
      </trkpt>
      <trkpt lat="28.17212" lon="-14.20339">
        <ele>16.2</ele>
        <time>2021-07-05 14:53:17</time>
      </trkpt>
      <trkpt lat="28.1721" lon="-14.20341">
        <ele>16.2</ele>
        <time>2021-07-05 14:53:18</time>
      </trkpt>
      <trkpt lat="28.17209" lon="-14.20343">
        <ele>16.6</ele>
        <time>2021-07-05 14:53:19</time>
      </trkpt>
      <trkpt lat="28.17208" lon="-14.20345">
        <ele>16.8</ele>
        <time>2021-07-05 14:53:20</time>
      </trkpt>
      <trkpt lat="28.17206" lon="-14.20347">
        <ele>17.2</ele>
        <time>2021-07-05 14:53:21</time>
      </trkpt>
      <trkpt lat="28.17205" lon="-14.20349">
        <ele>17.4</ele>
        <time>2021-07-05 14:53:22</time>
      </trkpt>
      <trkpt lat="28.17204" lon="-14.20351">
        <ele>18</ele>
        <time>2021-07-05 14:53:23</time>
      </trkpt>
      <trkpt lat="28.17203" lon="-14.20354">
        <ele>18.2</ele>
        <time>2021-07-05 14:53:24</time>
      </trkpt>
      <trkpt lat="28.17202" lon="-14.20356">
        <ele>19.2</ele>
        <time>2021-07-05 14:53:25</time>
      </trkpt>
      <trkpt lat="28.17201" lon="-14.20359">
        <ele>19.4</ele>
        <time>2021-07-05 14:53:26</time>
      </trkpt>
      <trkpt lat="28.17201" lon="-14.20361">
        <ele>19.4</ele>
        <time>2021-07-05 14:53:27</time>
      </trkpt>
      <trkpt lat="28.172" lon="-14.20364">
        <ele>19.4</ele>
        <time>2021-07-05 14:53:28</time>
      </trkpt>
      <trkpt lat="28.17199" lon="-14.20366">
        <ele>19.6</ele>
        <time>2021-07-05 14:53:29</time>
      </trkpt>
      <trkpt lat="28.17198" lon="-14.20368">
        <ele>19.6</ele>
        <time>2021-07-05 14:53:30</time>
      </trkpt>
      <trkpt lat="28.17197" lon="-14.20371">
        <ele>20</ele>
        <time>2021-07-05 14:53:31</time>
      </trkpt>
      <trkpt lat="28.17196" lon="-14.20374">
        <ele>20</ele>
        <time>2021-07-05 14:53:32</time>
      </trkpt>
      <trkpt lat="28.17194" lon="-14.20377">
        <ele>20</ele>
        <time>2021-07-05 14:53:33</time>
      </trkpt>
      <trkpt lat="28.17193" lon="-14.2038">
        <ele>20</ele>
        <time>2021-07-05 14:53:34</time>
      </trkpt>
      <trkpt lat="28.17192" lon="-14.20383">
        <ele>20</ele>
        <time>2021-07-05 14:53:35</time>
      </trkpt>
      <trkpt lat="28.1719" lon="-14.20385">
        <ele>19.6</ele>
        <time>2021-07-05 14:53:36</time>
      </trkpt>
      <trkpt lat="28.17189" lon="-14.20387">
        <ele>19.4</ele>
        <time>2021-07-05 14:53:37</time>
      </trkpt>
      <trkpt lat="28.17187" lon="-14.2039">
        <ele>19.4</ele>
        <time>2021-07-05 14:53:38</time>
      </trkpt>
      <trkpt lat="28.17186" lon="-14.20393">
        <ele>19</ele>
        <time>2021-07-05 14:53:39</time>
      </trkpt>
      <trkpt lat="28.17185" lon="-14.20396">
        <ele>19</ele>
        <time>2021-07-05 14:53:40</time>
      </trkpt>
      <trkpt lat="28.17184" lon="-14.20399">
        <ele>18.6</ele>
        <time>2021-07-05 14:53:41</time>
      </trkpt>
      <trkpt lat="28.17182" lon="-14.20402">
        <ele>17.8</ele>
        <time>2021-07-05 14:53:42</time>
      </trkpt>
      <trkpt lat="28.1718" lon="-14.20404">
        <ele>17.8</ele>
        <time>2021-07-05 14:53:43</time>
      </trkpt>
      <trkpt lat="28.17177" lon="-14.20406">
        <ele>17.4</ele>
        <time>2021-07-05 14:53:44</time>
      </trkpt>
      <trkpt lat="28.17175" lon="-14.20408">
        <ele>17</ele>
        <time>2021-07-05 14:53:45</time>
      </trkpt>
      <trkpt lat="28.17173" lon="-14.20411">
        <ele>16.2</ele>
        <time>2021-07-05 14:53:46</time>
      </trkpt>
      <trkpt lat="28.17171" lon="-14.20413">
        <ele>16.2</ele>
        <time>2021-07-05 14:53:47</time>
      </trkpt>
      <trkpt lat="28.17169" lon="-14.20415">
        <ele>16.2</ele>
        <time>2021-07-05 14:53:48</time>
      </trkpt>
      <trkpt lat="28.17167" lon="-14.20417">
        <ele>16.2</ele>
        <time>2021-07-05 14:53:49</time>
      </trkpt>
      <trkpt lat="28.17164" lon="-14.20419">
        <ele>16.2</ele>
        <time>2021-07-05 14:53:50</time>
      </trkpt>
      <trkpt lat="28.17162" lon="-14.2042">
        <ele>16.4</ele>
        <time>2021-07-05 14:53:51</time>
      </trkpt>
      <trkpt lat="28.17159" lon="-14.20422">
        <ele>16.8</ele>
        <time>2021-07-05 14:53:52</time>
      </trkpt>
      <trkpt lat="28.17157" lon="-14.20424">
        <ele>16.8</ele>
        <time>2021-07-05 14:53:53</time>
      </trkpt>
      <trkpt lat="28.17154" lon="-14.20426">
        <ele>17</ele>
        <time>2021-07-05 14:53:54</time>
      </trkpt>
      <trkpt lat="28.17152" lon="-14.20428">
        <ele>17</ele>
        <time>2021-07-05 14:53:55</time>
      </trkpt>
      <trkpt lat="28.1715" lon="-14.20431">
        <ele>17.2</ele>
        <time>2021-07-05 14:53:56</time>
      </trkpt>
      <trkpt lat="28.17148" lon="-14.20433">
        <ele>17.2</ele>
        <time>2021-07-05 14:53:57</time>
      </trkpt>
      <trkpt lat="28.17146" lon="-14.20436">
        <ele>17.6</ele>
        <time>2021-07-05 14:53:58</time>
      </trkpt>
      <trkpt lat="28.17144" lon="-14.20439">
        <ele>17.6</ele>
        <time>2021-07-05 14:53:59</time>
      </trkpt>
      <trkpt lat="28.17143" lon="-14.20442">
        <ele>17.6</ele>
        <time>2021-07-05 14:54:00</time>
      </trkpt>
      <trkpt lat="28.17142" lon="-14.20445">
        <ele>17.6</ele>
        <time>2021-07-05 14:54:01</time>
      </trkpt>
      <trkpt lat="28.17142" lon="-14.20448">
        <ele>18</ele>
        <time>2021-07-05 14:54:02</time>
      </trkpt>
      <trkpt lat="28.17141" lon="-14.20451">
        <ele>18.4</ele>
        <time>2021-07-05 14:54:03</time>
      </trkpt>
      <trkpt lat="28.1714" lon="-14.20454">
        <ele>18.4</ele>
        <time>2021-07-05 14:54:04</time>
      </trkpt>
      <trkpt lat="28.17139" lon="-14.20456">
        <ele>18.4</ele>
        <time>2021-07-05 14:54:05</time>
      </trkpt>
      <trkpt lat="28.17138" lon="-14.20459">
        <ele>18.6</ele>
        <time>2021-07-05 14:54:06</time>
      </trkpt>
      <trkpt lat="28.17138" lon="-14.20462">
        <ele>18.6</ele>
        <time>2021-07-05 14:54:07</time>
      </trkpt>
      <trkpt lat="28.17137" lon="-14.20465">
        <ele>18.6</ele>
        <time>2021-07-05 14:54:08</time>
      </trkpt>
      <trkpt lat="28.17136" lon="-14.20467">
        <ele>18.6</ele>
        <time>2021-07-05 14:54:09</time>
      </trkpt>
      <trkpt lat="28.17135" lon="-14.20471">
        <ele>19</ele>
        <time>2021-07-05 14:54:10</time>
      </trkpt>
      <trkpt lat="28.17134" lon="-14.20474">
        <ele>19</ele>
        <time>2021-07-05 14:54:11</time>
      </trkpt>
      <trkpt lat="28.17133" lon="-14.20477">
        <ele>19</ele>
        <time>2021-07-05 14:54:12</time>
      </trkpt>
      <trkpt lat="28.17132" lon="-14.20479">
        <ele>19</ele>
        <time>2021-07-05 14:54:13</time>
      </trkpt>
      <trkpt lat="28.17131" lon="-14.20482">
        <ele>19</ele>
        <time>2021-07-05 14:54:14</time>
      </trkpt>
      <trkpt lat="28.17131" lon="-14.20485">
        <ele>19</ele>
        <time>2021-07-05 14:54:15</time>
      </trkpt>
      <trkpt lat="28.1713" lon="-14.20488">
        <ele>19</ele>
        <time>2021-07-05 14:54:16</time>
      </trkpt>
      <trkpt lat="28.17129" lon="-14.20491">
        <ele>19</ele>
        <time>2021-07-05 14:54:17</time>
      </trkpt>
      <trkpt lat="28.17128" lon="-14.20493">
        <ele>19</ele>
        <time>2021-07-05 14:54:18</time>
      </trkpt>
      <trkpt lat="28.17128" lon="-14.20496">
        <ele>18.6</ele>
        <time>2021-07-05 14:54:19</time>
      </trkpt>
      <trkpt lat="28.17127" lon="-14.20499">
        <ele>18.6</ele>
        <time>2021-07-05 14:54:20</time>
      </trkpt>
      <trkpt lat="28.17127" lon="-14.20502">
        <ele>19</ele>
        <time>2021-07-05 14:54:21</time>
      </trkpt>
      <trkpt lat="28.17126" lon="-14.20504">
        <ele>19</ele>
        <time>2021-07-05 14:54:22</time>
      </trkpt>
      <trkpt lat="28.17126" lon="-14.20507">
        <ele>19</ele>
        <time>2021-07-05 14:54:23</time>
      </trkpt>
      <trkpt lat="28.17125" lon="-14.2051">
        <ele>19.2</ele>
        <time>2021-07-05 14:54:24</time>
      </trkpt>
      <trkpt lat="28.17124" lon="-14.20513">
        <ele>19.2</ele>
        <time>2021-07-05 14:54:25</time>
      </trkpt>
      <trkpt lat="28.17123" lon="-14.20515">
        <ele>19.2</ele>
        <time>2021-07-05 14:54:26</time>
      </trkpt>
      <trkpt lat="28.17122" lon="-14.20518">
        <ele>19.2</ele>
        <time>2021-07-05 14:54:27</time>
      </trkpt>
      <trkpt lat="28.17121" lon="-14.20521">
        <ele>19.2</ele>
        <time>2021-07-05 14:54:28</time>
      </trkpt>
      <trkpt lat="28.1712" lon="-14.20524">
        <ele>19.6</ele>
        <time>2021-07-05 14:54:29</time>
      </trkpt>
      <trkpt lat="28.17119" lon="-14.20526">
        <ele>19.6</ele>
        <time>2021-07-05 14:54:30</time>
      </trkpt>
      <trkpt lat="28.17118" lon="-14.20529">
        <ele>19.6</ele>
        <time>2021-07-05 14:54:31</time>
      </trkpt>
      <trkpt lat="28.17117" lon="-14.20532">
        <ele>19.8</ele>
        <time>2021-07-05 14:54:32</time>
      </trkpt>
      <trkpt lat="28.17117" lon="-14.20535">
        <ele>19.8</ele>
        <time>2021-07-05 14:54:33</time>
      </trkpt>
      <trkpt lat="28.17117" lon="-14.20537">
        <ele>19.8</ele>
        <time>2021-07-05 14:54:34</time>
      </trkpt>
      <trkpt lat="28.17116" lon="-14.2054">
        <ele>20</ele>
        <time>2021-07-05 14:54:35</time>
      </trkpt>
      <trkpt lat="28.17116" lon="-14.20542">
        <ele>20</ele>
        <time>2021-07-05 14:54:36</time>
      </trkpt>
      <trkpt lat="28.17116" lon="-14.20545">
        <ele>20.2</ele>
        <time>2021-07-05 14:54:37</time>
      </trkpt>
      <trkpt lat="28.17116" lon="-14.20547">
        <ele>20.2</ele>
        <time>2021-07-05 14:54:38</time>
      </trkpt>
      <trkpt lat="28.17116" lon="-14.20549">
        <ele>20.4</ele>
        <time>2021-07-05 14:54:39</time>
      </trkpt>
      <trkpt lat="28.17116" lon="-14.20552">
        <ele>20.4</ele>
        <time>2021-07-05 14:54:40</time>
      </trkpt>
      <trkpt lat="28.17116" lon="-14.20554">
        <ele>20.4</ele>
        <time>2021-07-05 14:54:41</time>
      </trkpt>
      <trkpt lat="28.17116" lon="-14.20556">
        <ele>20.4</ele>
        <time>2021-07-05 14:54:42</time>
      </trkpt>
      <trkpt lat="28.17115" lon="-14.20558">
        <ele>20.6</ele>
        <time>2021-07-05 14:54:43</time>
      </trkpt>
      <trkpt lat="28.17115" lon="-14.2056">
        <ele>20.6</ele>
        <time>2021-07-05 14:54:44</time>
      </trkpt>
      <trkpt lat="28.17115" lon="-14.20562">
        <ele>20.6</ele>
        <time>2021-07-05 14:54:45</time>
      </trkpt>
      <trkpt lat="28.17116" lon="-14.20565">
        <ele>20.6</ele>
        <time>2021-07-05 14:54:46</time>
      </trkpt>
      <trkpt lat="28.17116" lon="-14.20567">
        <ele>20.6</ele>
        <time>2021-07-05 14:54:47</time>
      </trkpt>
      <trkpt lat="28.17116" lon="-14.20569">
        <ele>20.6</ele>
        <time>2021-07-05 14:54:48</time>
      </trkpt>
      <trkpt lat="28.17115" lon="-14.20571">
        <ele>20.6</ele>
        <time>2021-07-05 14:54:49</time>
      </trkpt>
      <trkpt lat="28.17115" lon="-14.20573">
        <ele>20.6</ele>
        <time>2021-07-05 14:54:50</time>
      </trkpt>
      <trkpt lat="28.17115" lon="-14.20576">
        <ele>21</ele>
        <time>2021-07-05 14:54:51</time>
      </trkpt>
      <trkpt lat="28.17115" lon="-14.20578">
        <ele>21</ele>
        <time>2021-07-05 14:54:52</time>
      </trkpt>
      <trkpt lat="28.17115" lon="-14.2058">
        <ele>21.4</ele>
        <time>2021-07-05 14:54:53</time>
      </trkpt>
      <trkpt lat="28.17115" lon="-14.20583">
        <ele>21.4</ele>
        <time>2021-07-05 14:54:54</time>
      </trkpt>
      <trkpt lat="28.17114" lon="-14.20585">
        <ele>21.4</ele>
        <time>2021-07-05 14:54:55</time>
      </trkpt>
      <trkpt lat="28.17114" lon="-14.20587">
        <ele>21.6</ele>
        <time>2021-07-05 14:54:56</time>
      </trkpt>
      <trkpt lat="28.17113" lon="-14.20589">
        <ele>21.6</ele>
        <time>2021-07-05 14:54:57</time>
      </trkpt>
      <trkpt lat="28.17113" lon="-14.20589">
        <ele>21.8</ele>
        <time>2021-07-05 14:54:58</time>
      </trkpt>
      <trkpt lat="28.17113" lon="-14.20594">
        <ele>21.8</ele>
        <time>2021-07-05 14:54:59</time>
      </trkpt>
      <trkpt lat="28.17114" lon="-14.20596">
        <ele>21.8</ele>
        <time>2021-07-05 14:55:00</time>
      </trkpt>
      <trkpt lat="28.17115" lon="-14.20598">
        <ele>21.8</ele>
        <time>2021-07-05 14:55:01</time>
      </trkpt>
      <trkpt lat="28.17116" lon="-14.206">
        <ele>21.8</ele>
        <time>2021-07-05 14:55:02</time>
      </trkpt>
      <trkpt lat="28.17117" lon="-14.20601">
        <ele>22.2</ele>
        <time>2021-07-05 14:55:03</time>
      </trkpt>
      <trkpt lat="28.17117" lon="-14.20602">
        <ele>22.2</ele>
        <time>2021-07-05 14:55:04</time>
      </trkpt>
      <trkpt lat="28.17118" lon="-14.20604">
        <ele>22.8</ele>
        <time>2021-07-05 14:55:05</time>
      </trkpt>
      <trkpt lat="28.17118" lon="-14.20605">
        <ele>22.8</ele>
        <time>2021-07-05 14:55:06</time>
      </trkpt>
      <trkpt lat="28.17119" lon="-14.20606">
        <ele>23.2</ele>
        <time>2021-07-05 14:55:07</time>
      </trkpt>
      <trkpt lat="28.1712" lon="-14.20607">
        <ele>23.2</ele>
        <time>2021-07-05 14:55:08</time>
      </trkpt>
      <trkpt lat="28.17122" lon="-14.20608">
        <ele>23.6</ele>
        <time>2021-07-05 14:55:09</time>
      </trkpt>
      <trkpt lat="28.17123" lon="-14.20609">
        <ele>23.6</ele>
        <time>2021-07-05 14:55:10</time>
      </trkpt>
      <trkpt lat="28.17125" lon="-14.2061">
        <ele>23.8</ele>
        <time>2021-07-05 14:55:11</time>
      </trkpt>
      <trkpt lat="28.17126" lon="-14.20611">
        <ele>24.2</ele>
        <time>2021-07-05 14:55:12</time>
      </trkpt>
      <trkpt lat="28.17127" lon="-14.20612">
        <ele>24.2</ele>
        <time>2021-07-05 14:55:13</time>
      </trkpt>
      <trkpt lat="28.17128" lon="-14.20613">
        <ele>24.8</ele>
        <time>2021-07-05 14:55:14</time>
      </trkpt>
      <trkpt lat="28.17128" lon="-14.20614">
        <ele>25.4</ele>
        <time>2021-07-05 14:55:15</time>
      </trkpt>
      <trkpt lat="28.17127" lon="-14.20615">
        <ele>26.4</ele>
        <time>2021-07-05 14:55:16</time>
      </trkpt>
      <trkpt lat="28.17126" lon="-14.20615">
        <ele>26.4</ele>
        <time>2021-07-05 14:55:17</time>
      </trkpt>
      <trkpt lat="28.17125" lon="-14.20615">
        <ele>26.6</ele>
        <time>2021-07-05 14:55:18</time>
      </trkpt>
      <trkpt lat="28.17125" lon="-14.20614">
        <ele>26.6</ele>
        <time>2021-07-05 14:55:19</time>
      </trkpt>
      <trkpt lat="28.17125" lon="-14.20615">
        <ele>27</ele>
        <time>2021-07-05 14:55:20</time>
      </trkpt>
      <trkpt lat="28.17124" lon="-14.20615">
        <ele>27</ele>
        <time>2021-07-05 14:55:21</time>
      </trkpt>
      <trkpt lat="28.17123" lon="-14.20615">
        <ele>27</ele>
        <time>2021-07-05 14:55:34</time>
      </trkpt>
      <trkpt lat="28.17122" lon="-14.20615">
        <ele>26.8</ele>
        <time>2021-07-05 14:55:35</time>
      </trkpt>
      <trkpt lat="28.1712" lon="-14.20615">
        <ele>26.8</ele>
        <time>2021-07-05 14:55:36</time>
      </trkpt>
      <trkpt lat="28.17118" lon="-14.20616">
        <ele>26.8</ele>
        <time>2021-07-05 14:55:37</time>
      </trkpt>
      <trkpt lat="28.17117" lon="-14.20617">
        <ele>26.8</ele>
        <time>2021-07-05 14:55:38</time>
      </trkpt>
      <trkpt lat="28.17116" lon="-14.20618">
        <ele>26.8</ele>
        <time>2021-07-05 14:55:39</time>
      </trkpt>
      <trkpt lat="28.17115" lon="-14.20619">
        <ele>26.8</ele>
        <time>2021-07-05 14:55:40</time>
      </trkpt>
      <trkpt lat="28.17114" lon="-14.20621">
        <ele>26.8</ele>
        <time>2021-07-05 14:55:41</time>
      </trkpt>
      <trkpt lat="28.17113" lon="-14.20621">
        <ele>27.2</ele>
        <time>2021-07-05 14:55:42</time>
      </trkpt>
      <trkpt lat="28.17113" lon="-14.20622">
        <ele>27.2</ele>
        <time>2021-07-05 14:55:43</time>
      </trkpt>
      <trkpt lat="28.17113" lon="-14.20622">
        <ele>27.6</ele>
        <time>2021-07-05 14:55:44</time>
      </trkpt>
      <trkpt lat="28.17113" lon="-14.20622">
        <ele>27.6</ele>
        <time>2021-07-05 14:55:45</time>
      </trkpt>
      <trkpt lat="28.17112" lon="-14.20623">
        <ele>27.8</ele>
        <time>2021-07-05 14:55:46</time>
      </trkpt>
      <trkpt lat="28.17111" lon="-14.20624">
        <ele>27.8</ele>
        <time>2021-07-05 14:55:47</time>
      </trkpt>
      <trkpt lat="28.1711" lon="-14.20625">
        <ele>27.8</ele>
        <time>2021-07-05 14:55:48</time>
      </trkpt>
      <trkpt lat="28.1711" lon="-14.20625">
        <ele>28</ele>
        <time>2021-07-05 14:55:49</time>
      </trkpt>
      <trkpt lat="28.17109" lon="-14.20626">
        <ele>28.4</ele>
        <time>2021-07-05 14:55:50</time>
      </trkpt>
      <trkpt lat="28.17108" lon="-14.20627">
        <ele>28.4</ele>
        <time>2021-07-05 14:55:51</time>
      </trkpt>
      <trkpt lat="28.17108" lon="-14.20627">
        <ele>28.4</ele>
        <time>2021-07-05 14:55:52</time>
      </trkpt>
      <trkpt lat="28.17107" lon="-14.20628">
        <ele>28.6</ele>
        <time>2021-07-05 14:55:53</time>
      </trkpt>
      <trkpt lat="28.17107" lon="-14.20628">
        <ele>29</ele>
        <time>2021-07-05 14:55:54</time>
      </trkpt>
      <trkpt lat="28.17107" lon="-14.20629">
        <ele>29</ele>
        <time>2021-07-05 14:55:55</time>
      </trkpt>
      <trkpt lat="28.17106" lon="-14.2063">
        <ele>29</ele>
        <time>2021-07-05 14:55:56</time>
      </trkpt>
      <trkpt lat="28.17106" lon="-14.20631">
        <ele>29</ele>
        <time>2021-07-05 14:55:57</time>
      </trkpt>
      <trkpt lat="28.17105" lon="-14.20632">
        <ele>29</ele>
        <time>2021-07-05 14:55:58</time>
      </trkpt>
      <trkpt lat="28.17105" lon="-14.20633">
        <ele>29</ele>
        <time>2021-07-05 14:55:59</time>
      </trkpt>
      <trkpt lat="28.17104" lon="-14.20634">
        <ele>29</ele>
        <time>2021-07-05 14:56:00</time>
      </trkpt>
      <trkpt lat="28.17104" lon="-14.20635">
        <ele>29</ele>
        <time>2021-07-05 14:56:01</time>
      </trkpt>
      <trkpt lat="28.17103" lon="-14.20636">
        <ele>29</ele>
        <time>2021-07-05 14:56:02</time>
      </trkpt>
      <trkpt lat="28.17103" lon="-14.20637">
        <ele>29</ele>
        <time>2021-07-05 14:56:03</time>
      </trkpt>
      <trkpt lat="28.17102" lon="-14.20638">
        <ele>29</ele>
        <time>2021-07-05 14:56:04</time>
      </trkpt>
      <trkpt lat="28.17102" lon="-14.20638">
        <ele>29</ele>
        <time>2021-07-05 14:56:05</time>
      </trkpt>
      <trkpt lat="28.17101" lon="-14.20639">
        <ele>29</ele>
        <time>2021-07-05 14:56:06</time>
      </trkpt>
      <trkpt lat="28.17101" lon="-14.2064">
        <ele>29.2</ele>
        <time>2021-07-05 14:56:07</time>
      </trkpt>
      <trkpt lat="28.171" lon="-14.20641">
        <ele>29.4</ele>
        <time>2021-07-05 14:56:08</time>
      </trkpt>
      <trkpt lat="28.171" lon="-14.20642">
        <ele>29.6</ele>
        <time>2021-07-05 14:56:09</time>
      </trkpt>
      <trkpt lat="28.17099" lon="-14.20643">
        <ele>29.6</ele>
        <time>2021-07-05 14:56:10</time>
      </trkpt>
      <trkpt lat="28.17099" lon="-14.20644">
        <ele>29.8</ele>
        <time>2021-07-05 14:56:11</time>
      </trkpt>
      <trkpt lat="28.17099" lon="-14.20645">
        <ele>29.8</ele>
        <time>2021-07-05 14:56:12</time>
      </trkpt>
      <trkpt lat="28.17098" lon="-14.20646">
        <ele>29.8</ele>
        <time>2021-07-05 14:56:13</time>
      </trkpt>
      <trkpt lat="28.17098" lon="-14.20646">
        <ele>30</ele>
        <time>2021-07-05 14:56:14</time>
      </trkpt>
      <trkpt lat="28.17097" lon="-14.20647">
        <ele>30</ele>
        <time>2021-07-05 14:56:15</time>
      </trkpt>
      <trkpt lat="28.17097" lon="-14.20649">
        <ele>30</ele>
        <time>2021-07-05 14:56:16</time>
      </trkpt>
      <trkpt lat="28.17097" lon="-14.20649">
        <ele>30</ele>
        <time>2021-07-05 14:56:17</time>
      </trkpt>
      <trkpt lat="28.17096" lon="-14.2065">
        <ele>30</ele>
        <time>2021-07-05 14:56:18</time>
      </trkpt>
      <trkpt lat="28.17096" lon="-14.20651">
        <ele>30.4</ele>
        <time>2021-07-05 14:56:19</time>
      </trkpt>
      <trkpt lat="28.17095" lon="-14.20652">
        <ele>30.4</ele>
        <time>2021-07-05 14:56:20</time>
      </trkpt>
      <trkpt lat="28.17095" lon="-14.20653">
        <ele>30.8</ele>
        <time>2021-07-05 14:56:21</time>
      </trkpt>
      <trkpt lat="28.17094" lon="-14.20654">
        <ele>31.6</ele>
        <time>2021-07-05 14:56:22</time>
      </trkpt>
      <trkpt lat="28.17094" lon="-14.20654">
        <ele>31.6</ele>
        <time>2021-07-05 14:56:23</time>
      </trkpt>
      <trkpt lat="28.17093" lon="-14.20655">
        <ele>32</ele>
        <time>2021-07-05 14:56:24</time>
      </trkpt>
      <trkpt lat="28.17093" lon="-14.20657">
        <ele>32</ele>
        <time>2021-07-05 14:56:25</time>
      </trkpt>
      <trkpt lat="28.17093" lon="-14.20658">
        <ele>32.4</ele>
        <time>2021-07-05 14:56:26</time>
      </trkpt>
      <trkpt lat="28.17092" lon="-14.20659">
        <ele>32.8</ele>
        <time>2021-07-05 14:56:27</time>
      </trkpt>
      <trkpt lat="28.17092" lon="-14.2066">
        <ele>32.8</ele>
        <time>2021-07-05 14:56:28</time>
      </trkpt>
      <trkpt lat="28.17091" lon="-14.2066">
        <ele>33</ele>
        <time>2021-07-05 14:56:29</time>
      </trkpt>
      <trkpt lat="28.17091" lon="-14.20661">
        <ele>33</ele>
        <time>2021-07-05 14:56:30</time>
      </trkpt>
      <trkpt lat="28.17091" lon="-14.2066">
        <ele>33</ele>
        <time>2021-07-05 14:56:31</time>
      </trkpt>
      <trkpt lat="28.17091" lon="-14.2066">
        <ele>33</ele>
        <time>2021-07-05 14:56:32</time>
      </trkpt>
      <trkpt lat="28.17091" lon="-14.20661">
        <ele>33</ele>
        <time>2021-07-05 14:56:33</time>
      </trkpt>
      <trkpt lat="28.1709" lon="-14.20662">
        <ele>33</ele>
        <time>2021-07-05 14:56:34</time>
      </trkpt>
      <trkpt lat="28.1709" lon="-14.20663">
        <ele>33</ele>
        <time>2021-07-05 14:56:40</time>
      </trkpt>
      <trkpt lat="28.1709" lon="-14.20664">
        <ele>33</ele>
        <time>2021-07-05 14:56:41</time>
      </trkpt>
      <trkpt lat="28.1709" lon="-14.20665">
        <ele>33</ele>
        <time>2021-07-05 14:56:42</time>
      </trkpt>
      <trkpt lat="28.17089" lon="-14.20666">
        <ele>33</ele>
        <time>2021-07-05 14:56:43</time>
      </trkpt>
      <trkpt lat="28.17089" lon="-14.20666">
        <ele>33</ele>
        <time>2021-07-05 14:56:44</time>
      </trkpt>
      <trkpt lat="28.17088" lon="-14.20667">
        <ele>33</ele>
        <time>2021-07-05 14:56:45</time>
      </trkpt>
      <trkpt lat="28.17088" lon="-14.20668">
        <ele>33</ele>
        <time>2021-07-05 14:56:46</time>
      </trkpt>
      <trkpt lat="28.17087" lon="-14.20669">
        <ele>33.4</ele>
        <time>2021-07-05 14:56:47</time>
      </trkpt>
      <trkpt lat="28.17087" lon="-14.2067">
        <ele>33.6</ele>
        <time>2021-07-05 14:56:48</time>
      </trkpt>
      <trkpt lat="28.17087" lon="-14.2067">
        <ele>33.8</ele>
        <time>2021-07-05 14:56:49</time>
      </trkpt>
      <trkpt lat="28.17086" lon="-14.20671">
        <ele>34.6</ele>
        <time>2021-07-05 14:56:50</time>
      </trkpt>
      <trkpt lat="28.17086" lon="-14.20672">
        <ele>34.6</ele>
        <time>2021-07-05 14:56:51</time>
      </trkpt>
      <trkpt lat="28.17086" lon="-14.20672">
        <ele>35</ele>
        <time>2021-07-05 14:56:52</time>
      </trkpt>
      <trkpt lat="28.17085" lon="-14.20673">
        <ele>36.2</ele>
        <time>2021-07-05 14:56:53</time>
      </trkpt>
      <trkpt lat="28.17085" lon="-14.20674">
        <ele>36.2</ele>
        <time>2021-07-05 14:56:54</time>
      </trkpt>
      <trkpt lat="28.17084" lon="-14.20674">
        <ele>36.6</ele>
        <time>2021-07-05 14:56:55</time>
      </trkpt>
      <trkpt lat="28.17084" lon="-14.20675">
        <ele>36.6</ele>
        <time>2021-07-05 14:56:56</time>
      </trkpt>
      <trkpt lat="28.17083" lon="-14.20676">
        <ele>36.8</ele>
        <time>2021-07-05 14:56:57</time>
      </trkpt>
      <trkpt lat="28.17083" lon="-14.20677">
        <ele>36.8</ele>
        <time>2021-07-05 14:56:58</time>
      </trkpt>
      <trkpt lat="28.17082" lon="-14.20677">
        <ele>36.8</ele>
        <time>2021-07-05 14:56:59</time>
      </trkpt>
      <trkpt lat="28.17082" lon="-14.20678">
        <ele>36.8</ele>
        <time>2021-07-05 14:57:00</time>
      </trkpt>
      <trkpt lat="28.17081" lon="-14.20678">
        <ele>36.8</ele>
        <time>2021-07-05 14:57:01</time>
      </trkpt>
      <trkpt lat="28.1708" lon="-14.20679">
        <ele>36.8</ele>
        <time>2021-07-05 14:57:02</time>
      </trkpt>
      <trkpt lat="28.1708" lon="-14.2068">
        <ele>36.8</ele>
        <time>2021-07-05 14:57:03</time>
      </trkpt>
      <trkpt lat="28.17079" lon="-14.2068">
        <ele>36.8</ele>
        <time>2021-07-05 14:57:04</time>
      </trkpt>
      <trkpt lat="28.17079" lon="-14.20681">
        <ele>36.8</ele>
        <time>2021-07-05 14:57:05</time>
      </trkpt>
      <trkpt lat="28.17078" lon="-14.20682">
        <ele>36.8</ele>
        <time>2021-07-05 14:57:06</time>
      </trkpt>
      <trkpt lat="28.17077" lon="-14.20682">
        <ele>36.8</ele>
        <time>2021-07-05 14:57:07</time>
      </trkpt>
      <trkpt lat="28.17077" lon="-14.20683">
        <ele>37</ele>
        <time>2021-07-05 14:57:08</time>
      </trkpt>
      <trkpt lat="28.17076" lon="-14.20683">
        <ele>37</ele>
        <time>2021-07-05 14:57:09</time>
      </trkpt>
      <trkpt lat="28.17075" lon="-14.20684">
        <ele>37</ele>
        <time>2021-07-05 14:57:10</time>
      </trkpt>
      <trkpt lat="28.17074" lon="-14.20684">
        <ele>37</ele>
        <time>2021-07-05 14:57:11</time>
      </trkpt>
      <trkpt lat="28.17074" lon="-14.20684">
        <ele>37</ele>
        <time>2021-07-05 14:57:12</time>
      </trkpt>
      <trkpt lat="28.17073" lon="-14.20685">
        <ele>36.8</ele>
        <time>2021-07-05 14:57:13</time>
      </trkpt>
      <trkpt lat="28.17073" lon="-14.20685">
        <ele>36.8</ele>
        <time>2021-07-05 14:57:14</time>
      </trkpt>
      <trkpt lat="28.17072" lon="-14.20685">
        <ele>36.8</ele>
        <time>2021-07-05 14:57:15</time>
      </trkpt>
      <trkpt lat="28.17072" lon="-14.20686">
        <ele>36.8</ele>
        <time>2021-07-05 14:57:16</time>
      </trkpt>
      <trkpt lat="28.17071" lon="-14.20686">
        <ele>36.6</ele>
        <time>2021-07-05 14:57:17</time>
      </trkpt>
      <trkpt lat="28.1707" lon="-14.20686">
        <ele>36.6</ele>
        <time>2021-07-05 14:57:18</time>
      </trkpt>
      <trkpt lat="28.1707" lon="-14.20687">
        <ele>36.6</ele>
        <time>2021-07-05 14:57:19</time>
      </trkpt>
      <trkpt lat="28.17069" lon="-14.20687">
        <ele>36.6</ele>
        <time>2021-07-05 14:57:20</time>
      </trkpt>
      <trkpt lat="28.17068" lon="-14.20687">
        <ele>36.6</ele>
        <time>2021-07-05 14:57:21</time>
      </trkpt>
      <trkpt lat="28.17067" lon="-14.20688">
        <ele>36.8</ele>
        <time>2021-07-05 14:57:22</time>
      </trkpt>
      <trkpt lat="28.17067" lon="-14.20688">
        <ele>36.8</ele>
        <time>2021-07-05 14:57:23</time>
      </trkpt>
      <trkpt lat="28.17066" lon="-14.20688">
        <ele>36.8</ele>
        <time>2021-07-05 14:57:24</time>
      </trkpt>
      <trkpt lat="28.17065" lon="-14.20689">
        <ele>37</ele>
        <time>2021-07-05 14:57:25</time>
      </trkpt>
      <trkpt lat="28.17064" lon="-14.20689">
        <ele>37</ele>
        <time>2021-07-05 14:57:26</time>
      </trkpt>
      <trkpt lat="28.17063" lon="-14.20689">
        <ele>37</ele>
        <time>2021-07-05 14:57:27</time>
      </trkpt>
      <trkpt lat="28.17062" lon="-14.2069">
        <ele>37.2</ele>
        <time>2021-07-05 14:57:28</time>
      </trkpt>
      <trkpt lat="28.17061" lon="-14.2069">
        <ele>37.2</ele>
        <time>2021-07-05 14:57:29</time>
      </trkpt>
      <trkpt lat="28.17061" lon="-14.20691">
        <ele>37.2</ele>
        <time>2021-07-05 14:57:30</time>
      </trkpt>
      <trkpt lat="28.1706" lon="-14.20691">
        <ele>37.6</ele>
        <time>2021-07-05 14:57:31</time>
      </trkpt>
      <trkpt lat="28.17059" lon="-14.20691">
        <ele>37.6</ele>
        <time>2021-07-05 14:57:32</time>
      </trkpt>
      <trkpt lat="28.17058" lon="-14.20692">
        <ele>37.8</ele>
        <time>2021-07-05 14:57:33</time>
      </trkpt>
      <trkpt lat="28.17057" lon="-14.20692">
        <ele>37.8</ele>
        <time>2021-07-05 14:57:34</time>
      </trkpt>
      <trkpt lat="28.17056" lon="-14.20692">
        <ele>38</ele>
        <time>2021-07-05 14:57:35</time>
      </trkpt>
      <trkpt lat="28.17055" lon="-14.20693">
        <ele>38</ele>
        <time>2021-07-05 14:57:36</time>
      </trkpt>
      <trkpt lat="28.17055" lon="-14.20693">
        <ele>38.2</ele>
        <time>2021-07-05 14:57:37</time>
      </trkpt>
      <trkpt lat="28.17054" lon="-14.20693">
        <ele>38.2</ele>
        <time>2021-07-05 14:57:38</time>
      </trkpt>
      <trkpt lat="28.17053" lon="-14.20693">
        <ele>39</ele>
        <time>2021-07-05 14:57:39</time>
      </trkpt>
      <trkpt lat="28.17053" lon="-14.20693">
        <ele>39</ele>
        <time>2021-07-05 14:57:40</time>
      </trkpt>
      <trkpt lat="28.17052" lon="-14.20693">
        <ele>39.8</ele>
        <time>2021-07-05 14:57:41</time>
      </trkpt>
      <trkpt lat="28.17051" lon="-14.20694">
        <ele>39.8</ele>
        <time>2021-07-05 14:57:42</time>
      </trkpt>
      <trkpt lat="28.1705" lon="-14.20694">
        <ele>40</ele>
        <time>2021-07-05 14:57:43</time>
      </trkpt>
      <trkpt lat="28.1705" lon="-14.20695">
        <ele>40.4</ele>
        <time>2021-07-05 14:57:44</time>
      </trkpt>
      <trkpt lat="28.17049" lon="-14.20696">
        <ele>40.4</ele>
        <time>2021-07-05 14:57:45</time>
      </trkpt>
      <trkpt lat="28.17048" lon="-14.20696">
        <ele>40.8</ele>
        <time>2021-07-05 14:57:46</time>
      </trkpt>
      <trkpt lat="28.17047" lon="-14.20697">
        <ele>41.2</ele>
        <time>2021-07-05 14:57:47</time>
      </trkpt>
      <trkpt lat="28.17046" lon="-14.20697">
        <ele>41.2</ele>
        <time>2021-07-05 14:57:48</time>
      </trkpt>
      <trkpt lat="28.17046" lon="-14.20698">
        <ele>41.2</ele>
        <time>2021-07-05 14:57:49</time>
      </trkpt>
      <trkpt lat="28.17045" lon="-14.20699">
        <ele>41.2</ele>
        <time>2021-07-05 14:57:50</time>
      </trkpt>
      <trkpt lat="28.17044" lon="-14.207">
        <ele>41.4</ele>
        <time>2021-07-05 14:57:51</time>
      </trkpt>
      <trkpt lat="28.17043" lon="-14.20701">
        <ele>41.4</ele>
        <time>2021-07-05 14:57:52</time>
      </trkpt>
      <trkpt lat="28.17042" lon="-14.20702">
        <ele>41.4</ele>
        <time>2021-07-05 14:57:53</time>
      </trkpt>
      <trkpt lat="28.17041" lon="-14.20702">
        <ele>41.4</ele>
        <time>2021-07-05 14:57:54</time>
      </trkpt>
      <trkpt lat="28.1704" lon="-14.20703">
        <ele>41.4</ele>
        <time>2021-07-05 14:57:55</time>
      </trkpt>
      <trkpt lat="28.17039" lon="-14.20704">
        <ele>41.4</ele>
        <time>2021-07-05 14:57:56</time>
      </trkpt>
      <trkpt lat="28.17038" lon="-14.20704">
        <ele>41.4</ele>
        <time>2021-07-05 14:57:57</time>
      </trkpt>
      <trkpt lat="28.17037" lon="-14.20705">
        <ele>41.4</ele>
        <time>2021-07-05 14:57:58</time>
      </trkpt>
      <trkpt lat="28.17036" lon="-14.20705">
        <ele>41.4</ele>
        <time>2021-07-05 14:57:59</time>
      </trkpt>
      <trkpt lat="28.17035" lon="-14.20706">
        <ele>41.6</ele>
        <time>2021-07-05 14:58:00</time>
      </trkpt>
      <trkpt lat="28.17034" lon="-14.20707">
        <ele>41.6</ele>
        <time>2021-07-05 14:58:01</time>
      </trkpt>
      <trkpt lat="28.17033" lon="-14.20708">
        <ele>41.6</ele>
        <time>2021-07-05 14:58:02</time>
      </trkpt>
      <trkpt lat="28.17032" lon="-14.20708">
        <ele>41.6</ele>
        <time>2021-07-05 14:58:03</time>
      </trkpt>
      <trkpt lat="28.17031" lon="-14.20709">
        <ele>42</ele>
        <time>2021-07-05 14:58:04</time>
      </trkpt>
      <trkpt lat="28.1703" lon="-14.2071">
        <ele>42</ele>
        <time>2021-07-05 14:58:05</time>
      </trkpt>
      <trkpt lat="28.17029" lon="-14.20711">
        <ele>42</ele>
        <time>2021-07-05 14:58:06</time>
      </trkpt>
      <trkpt lat="28.17028" lon="-14.20711">
        <ele>42</ele>
        <time>2021-07-05 14:58:07</time>
      </trkpt>
      <trkpt lat="28.17028" lon="-14.20712">
        <ele>42</ele>
        <time>2021-07-05 14:58:08</time>
      </trkpt>
      <trkpt lat="28.17027" lon="-14.20713">
        <ele>42</ele>
        <time>2021-07-05 14:58:09</time>
      </trkpt>
      <trkpt lat="28.17026" lon="-14.20713">
        <ele>42</ele>
        <time>2021-07-05 14:58:10</time>
      </trkpt>
      <trkpt lat="28.17025" lon="-14.20714">
        <ele>42</ele>
        <time>2021-07-05 14:58:11</time>
      </trkpt>
      <trkpt lat="28.17023" lon="-14.20715">
        <ele>41.6</ele>
        <time>2021-07-05 14:58:12</time>
      </trkpt>
      <trkpt lat="28.17022" lon="-14.20716">
        <ele>41.6</ele>
        <time>2021-07-05 14:58:13</time>
      </trkpt>
      <trkpt lat="28.17021" lon="-14.20717">
        <ele>41.4</ele>
        <time>2021-07-05 14:58:14</time>
      </trkpt>
      <trkpt lat="28.1702" lon="-14.20718">
        <ele>41</ele>
        <time>2021-07-05 14:58:15</time>
      </trkpt>
      <trkpt lat="28.17019" lon="-14.20718">
        <ele>40.8</ele>
        <time>2021-07-05 14:58:16</time>
      </trkpt>
      <trkpt lat="28.17018" lon="-14.20719">
        <ele>40.6</ele>
        <time>2021-07-05 14:58:17</time>
      </trkpt>
      <trkpt lat="28.17017" lon="-14.2072">
        <ele>40.6</ele>
        <time>2021-07-05 14:58:18</time>
      </trkpt>
      <trkpt lat="28.17016" lon="-14.20721">
        <ele>40.4</ele>
        <time>2021-07-05 14:58:19</time>
      </trkpt>
      <trkpt lat="28.17014" lon="-14.20722">
        <ele>40.4</ele>
        <time>2021-07-05 14:58:20</time>
      </trkpt>
      <trkpt lat="28.17013" lon="-14.20723">
        <ele>40.4</ele>
        <time>2021-07-05 14:58:21</time>
      </trkpt>
      <trkpt lat="28.17012" lon="-14.20723">
        <ele>40.4</ele>
        <time>2021-07-05 14:58:22</time>
      </trkpt>
      <trkpt lat="28.17011" lon="-14.20724">
        <ele>39.8</ele>
        <time>2021-07-05 14:58:23</time>
      </trkpt>
      <trkpt lat="28.1701" lon="-14.20725">
        <ele>39.6</ele>
        <time>2021-07-05 14:58:24</time>
      </trkpt>
      <trkpt lat="28.17009" lon="-14.20725">
        <ele>39.6</ele>
        <time>2021-07-05 14:58:25</time>
      </trkpt>
      <trkpt lat="28.17008" lon="-14.20726">
        <ele>39.6</ele>
        <time>2021-07-05 14:58:26</time>
      </trkpt>
      <trkpt lat="28.17007" lon="-14.20727">
        <ele>39.2</ele>
        <time>2021-07-05 14:58:27</time>
      </trkpt>
      <trkpt lat="28.17006" lon="-14.20727">
        <ele>39.2</ele>
        <time>2021-07-05 14:58:28</time>
      </trkpt>
      <trkpt lat="28.17005" lon="-14.20728">
        <ele>39</ele>
        <time>2021-07-05 14:58:29</time>
      </trkpt>
      <trkpt lat="28.17003" lon="-14.20728">
        <ele>39</ele>
        <time>2021-07-05 14:58:30</time>
      </trkpt>
      <trkpt lat="28.17002" lon="-14.20729">
        <ele>38.8</ele>
        <time>2021-07-05 14:58:31</time>
      </trkpt>
      <trkpt lat="28.17002" lon="-14.20729">
        <ele>38.8</ele>
        <time>2021-07-05 14:58:32</time>
      </trkpt>
      <trkpt lat="28.17001" lon="-14.2073">
        <ele>38.8</ele>
        <time>2021-07-05 14:58:33</time>
      </trkpt>
      <trkpt lat="28.17" lon="-14.2073">
        <ele>38.8</ele>
        <time>2021-07-05 14:58:34</time>
      </trkpt>
      <trkpt lat="28.16999" lon="-14.20731">
        <ele>38.4</ele>
        <time>2021-07-05 14:58:35</time>
      </trkpt>
      <trkpt lat="28.16998" lon="-14.20731">
        <ele>38.4</ele>
        <time>2021-07-05 14:58:36</time>
      </trkpt>
      <trkpt lat="28.16996" lon="-14.20731">
        <ele>38.8</ele>
        <time>2021-07-05 14:58:37</time>
      </trkpt>
      <trkpt lat="28.16996" lon="-14.20732">
        <ele>39.2</ele>
        <time>2021-07-05 14:58:38</time>
      </trkpt>
      <trkpt lat="28.16995" lon="-14.20732">
        <ele>39.6</ele>
        <time>2021-07-05 14:58:39</time>
      </trkpt>
      <trkpt lat="28.16994" lon="-14.20733">
        <ele>40</ele>
        <time>2021-07-05 14:58:40</time>
      </trkpt>
      <trkpt lat="28.16993" lon="-14.20733">
        <ele>40.6</ele>
        <time>2021-07-05 14:58:41</time>
      </trkpt>
      <trkpt lat="28.16992" lon="-14.20734">
        <ele>41</ele>
        <time>2021-07-05 14:58:42</time>
      </trkpt>
      <trkpt lat="28.16992" lon="-14.20734">
        <ele>41.2</ele>
        <time>2021-07-05 14:58:43</time>
      </trkpt>
      <trkpt lat="28.16991" lon="-14.20734">
        <ele>41.8</ele>
        <time>2021-07-05 14:58:44</time>
      </trkpt>
      <trkpt lat="28.1699" lon="-14.20735">
        <ele>41.8</ele>
        <time>2021-07-05 14:58:45</time>
      </trkpt>
      <trkpt lat="28.16989" lon="-14.20735">
        <ele>42</ele>
        <time>2021-07-05 14:58:46</time>
      </trkpt>
      <trkpt lat="28.16989" lon="-14.20735">
        <ele>42.4</ele>
        <time>2021-07-05 14:58:47</time>
      </trkpt>
      <trkpt lat="28.16988" lon="-14.20735">
        <ele>42.4</ele>
        <time>2021-07-05 14:58:48</time>
      </trkpt>
      <trkpt lat="28.16987" lon="-14.20736">
        <ele>42.4</ele>
        <time>2021-07-05 14:58:49</time>
      </trkpt>
      <trkpt lat="28.16986" lon="-14.20736">
        <ele>42.4</ele>
        <time>2021-07-05 14:58:50</time>
      </trkpt>
      <trkpt lat="28.16985" lon="-14.20736">
        <ele>42.4</ele>
        <time>2021-07-05 14:58:51</time>
      </trkpt>
      <trkpt lat="28.16985" lon="-14.20737">
        <ele>42.4</ele>
        <time>2021-07-05 14:58:52</time>
      </trkpt>
      <trkpt lat="28.16984" lon="-14.20737">
        <ele>42.4</ele>
        <time>2021-07-05 14:58:53</time>
      </trkpt>
      <trkpt lat="28.16983" lon="-14.20737">
        <ele>42.4</ele>
        <time>2021-07-05 14:58:54</time>
      </trkpt>
      <trkpt lat="28.16983" lon="-14.20737">
        <ele>42.4</ele>
        <time>2021-07-05 14:58:55</time>
      </trkpt>
      <trkpt lat="28.16982" lon="-14.20737">
        <ele>42.6</ele>
        <time>2021-07-05 14:58:56</time>
      </trkpt>
      <trkpt lat="28.16981" lon="-14.20737">
        <ele>42.6</ele>
        <time>2021-07-05 14:58:57</time>
      </trkpt>
      <trkpt lat="28.1698" lon="-14.20737">
        <ele>42.6</ele>
        <time>2021-07-05 14:58:58</time>
      </trkpt>
      <trkpt lat="28.16979" lon="-14.20737">
        <ele>42.6</ele>
        <time>2021-07-05 14:58:59</time>
      </trkpt>
      <trkpt lat="28.16978" lon="-14.20737">
        <ele>43</ele>
        <time>2021-07-05 14:59:00</time>
      </trkpt>
      <trkpt lat="28.16977" lon="-14.20737">
        <ele>43.2</ele>
        <time>2021-07-05 14:59:01</time>
      </trkpt>
      <trkpt lat="28.16977" lon="-14.20737">
        <ele>43.4</ele>
        <time>2021-07-05 14:59:02</time>
      </trkpt>
      <trkpt lat="28.16976" lon="-14.20738">
        <ele>43.6</ele>
        <time>2021-07-05 14:59:03</time>
      </trkpt>
      <trkpt lat="28.16975" lon="-14.20738">
        <ele>44</ele>
        <time>2021-07-05 14:59:04</time>
      </trkpt>
      <trkpt lat="28.16975" lon="-14.20738">
        <ele>44</ele>
        <time>2021-07-05 14:59:05</time>
      </trkpt>
      <trkpt lat="28.16974" lon="-14.20738">
        <ele>44.2</ele>
        <time>2021-07-05 14:59:06</time>
      </trkpt>
      <trkpt lat="28.16972" lon="-14.20739">
        <ele>44.2</ele>
        <time>2021-07-05 14:59:07</time>
      </trkpt>
      <trkpt lat="28.16971" lon="-14.20739">
        <ele>44.6</ele>
        <time>2021-07-05 14:59:08</time>
      </trkpt>
      <trkpt lat="28.1697" lon="-14.20739">
        <ele>44.6</ele>
        <time>2021-07-05 14:59:09</time>
      </trkpt>
      <trkpt lat="28.16969" lon="-14.20739">
        <ele>44.8</ele>
        <time>2021-07-05 14:59:10</time>
      </trkpt>
      <trkpt lat="28.16968" lon="-14.20739">
        <ele>44.8</ele>
        <time>2021-07-05 14:59:11</time>
      </trkpt>
      <trkpt lat="28.16968" lon="-14.2074">
        <ele>45.2</ele>
        <time>2021-07-05 14:59:12</time>
      </trkpt>
      <trkpt lat="28.16967" lon="-14.2074">
        <ele>45.4</ele>
        <time>2021-07-05 14:59:13</time>
      </trkpt>
      <trkpt lat="28.16966" lon="-14.2074">
        <ele>45.4</ele>
        <time>2021-07-05 14:59:14</time>
      </trkpt>
      <trkpt lat="28.16965" lon="-14.2074">
        <ele>45.4</ele>
        <time>2021-07-05 14:59:15</time>
      </trkpt>
      <trkpt lat="28.16965" lon="-14.2074">
        <ele>45.8</ele>
        <time>2021-07-05 14:59:16</time>
      </trkpt>
      <trkpt lat="28.16964" lon="-14.2074">
        <ele>45.8</ele>
        <time>2021-07-05 14:59:17</time>
      </trkpt>
      <trkpt lat="28.16963" lon="-14.2074">
        <ele>46.2</ele>
        <time>2021-07-05 14:59:18</time>
      </trkpt>
      <trkpt lat="28.16962" lon="-14.20741">
        <ele>46.2</ele>
        <time>2021-07-05 14:59:19</time>
      </trkpt>
      <trkpt lat="28.16961" lon="-14.20741">
        <ele>46.4</ele>
        <time>2021-07-05 14:59:20</time>
      </trkpt>
      <trkpt lat="28.1696" lon="-14.20741">
        <ele>46.4</ele>
        <time>2021-07-05 14:59:21</time>
      </trkpt>
      <trkpt lat="28.1696" lon="-14.20741">
        <ele>46.8</ele>
        <time>2021-07-05 14:59:22</time>
      </trkpt>
      <trkpt lat="28.16959" lon="-14.20741">
        <ele>46.8</ele>
        <time>2021-07-05 14:59:23</time>
      </trkpt>
      <trkpt lat="28.16958" lon="-14.20741">
        <ele>47</ele>
        <time>2021-07-05 14:59:24</time>
      </trkpt>
      <trkpt lat="28.16957" lon="-14.20742">
        <ele>47</ele>
        <time>2021-07-05 14:59:25</time>
      </trkpt>
      <trkpt lat="28.16956" lon="-14.20742">
        <ele>47.4</ele>
        <time>2021-07-05 14:59:26</time>
      </trkpt>
      <trkpt lat="28.16955" lon="-14.20742">
        <ele>48</ele>
        <time>2021-07-05 14:59:27</time>
      </trkpt>
      <trkpt lat="28.16954" lon="-14.20743">
        <ele>48</ele>
        <time>2021-07-05 14:59:28</time>
      </trkpt>
      <trkpt lat="28.16953" lon="-14.20743">
        <ele>48.2</ele>
        <time>2021-07-05 14:59:29</time>
      </trkpt>
      <trkpt lat="28.16952" lon="-14.20743">
        <ele>48.6</ele>
        <time>2021-07-05 14:59:30</time>
      </trkpt>
      <trkpt lat="28.16951" lon="-14.20744">
        <ele>49</ele>
        <time>2021-07-05 14:59:31</time>
      </trkpt>
      <trkpt lat="28.1695" lon="-14.20744">
        <ele>49.4</ele>
        <time>2021-07-05 14:59:32</time>
      </trkpt>
      <trkpt lat="28.16949" lon="-14.20744">
        <ele>49.8</ele>
        <time>2021-07-05 14:59:33</time>
      </trkpt>
      <trkpt lat="28.16948" lon="-14.20745">
        <ele>50.2</ele>
        <time>2021-07-05 14:59:34</time>
      </trkpt>
      <trkpt lat="28.16947" lon="-14.20745">
        <ele>50.6</ele>
        <time>2021-07-05 14:59:35</time>
      </trkpt>
      <trkpt lat="28.16946" lon="-14.20745">
        <ele>51.2</ele>
        <time>2021-07-05 14:59:36</time>
      </trkpt>
      <trkpt lat="28.16945" lon="-14.20745">
        <ele>51.6</ele>
        <time>2021-07-05 14:59:37</time>
      </trkpt>
      <trkpt lat="28.16944" lon="-14.20746">
        <ele>52.2</ele>
        <time>2021-07-05 14:59:38</time>
      </trkpt>
      <trkpt lat="28.16943" lon="-14.20746">
        <ele>52.4</ele>
        <time>2021-07-05 14:59:39</time>
      </trkpt>
      <trkpt lat="28.16943" lon="-14.20746">
        <ele>52.8</ele>
        <time>2021-07-05 14:59:40</time>
      </trkpt>
      <trkpt lat="28.16943" lon="-14.20746">
        <ele>53</ele>
        <time>2021-07-05 14:59:41</time>
      </trkpt>
      <trkpt lat="28.16943" lon="-14.20746">
        <ele>53</ele>
        <time>2021-07-05 14:59:42</time>
      </trkpt>
      <trkpt lat="28.16942" lon="-14.20749">
        <ele>53</ele>
        <time>2021-07-05 14:59:43</time>
      </trkpt>
      <trkpt lat="28.16941" lon="-14.2075">
        <ele>53.4</ele>
        <time>2021-07-05 14:59:44</time>
      </trkpt>
      <trkpt lat="28.16941" lon="-14.20751">
        <ele>53.4</ele>
        <time>2021-07-05 14:59:47</time>
      </trkpt>
      <trkpt lat="28.16941" lon="-14.20752">
        <ele>53.6</ele>
        <time>2021-07-05 14:59:48</time>
      </trkpt>
      <trkpt lat="28.1694" lon="-14.20753">
        <ele>53.6</ele>
        <time>2021-07-05 14:59:49</time>
      </trkpt>
      <trkpt lat="28.1694" lon="-14.20754">
        <ele>54</ele>
        <time>2021-07-05 14:59:50</time>
      </trkpt>
      <trkpt lat="28.1694" lon="-14.20755">
        <ele>54</ele>
        <time>2021-07-05 14:59:51</time>
      </trkpt>
      <trkpt lat="28.1694" lon="-14.20754">
        <ele>54.2</ele>
        <time>2021-07-05 14:59:52</time>
      </trkpt>
      <trkpt lat="28.1694" lon="-14.20755">
        <ele>56</ele>
        <time>2021-07-05 14:59:53</time>
      </trkpt>
      <trkpt lat="28.1694" lon="-14.20756">
        <ele>56.4</ele>
        <time>2021-07-05 14:59:54</time>
      </trkpt>
      <trkpt lat="28.1694" lon="-14.20757">
        <ele>57</ele>
        <time>2021-07-05 14:59:58</time>
      </trkpt>
      <trkpt lat="28.1694" lon="-14.20758">
        <ele>57.8</ele>
        <time>2021-07-05 14:59:59</time>
      </trkpt>
      <trkpt lat="28.1694" lon="-14.20759">
        <ele>57.8</ele>
        <time>2021-07-05 15:00:00</time>
      </trkpt>
      <trkpt lat="28.16939" lon="-14.2076">
        <ele>57.8</ele>
        <time>2021-07-05 15:00:01</time>
      </trkpt>
      <trkpt lat="28.16939" lon="-14.20761">
        <ele>57.8</ele>
        <time>2021-07-05 15:00:02</time>
      </trkpt>
      <trkpt lat="28.16939" lon="-14.20762">
        <ele>57.4</ele>
        <time>2021-07-05 15:00:03</time>
      </trkpt>
      <trkpt lat="28.16939" lon="-14.20763">
        <ele>57.2</ele>
        <time>2021-07-05 15:00:04</time>
      </trkpt>
      <trkpt lat="28.16939" lon="-14.20764">
        <ele>57.2</ele>
        <time>2021-07-05 15:00:05</time>
      </trkpt>
      <trkpt lat="28.16939" lon="-14.20765">
        <ele>56.8</ele>
        <time>2021-07-05 15:00:06</time>
      </trkpt>
      <trkpt lat="28.1694" lon="-14.20765">
        <ele>56.8</ele>
        <time>2021-07-05 15:00:07</time>
      </trkpt>
      <trkpt lat="28.1694" lon="-14.20767">
        <ele>56.6</ele>
        <time>2021-07-05 15:00:08</time>
      </trkpt>
      <trkpt lat="28.1694" lon="-14.20768">
        <ele>56.6</ele>
        <time>2021-07-05 15:00:09</time>
      </trkpt>
      <trkpt lat="28.16939" lon="-14.20769">
        <ele>56.2</ele>
        <time>2021-07-05 15:00:10</time>
      </trkpt>
      <trkpt lat="28.16939" lon="-14.2077">
        <ele>56.2</ele>
        <time>2021-07-05 15:00:11</time>
      </trkpt>
      <trkpt lat="28.16939" lon="-14.20771">
        <ele>56.2</ele>
        <time>2021-07-05 15:00:12</time>
      </trkpt>
      <trkpt lat="28.16938" lon="-14.20772">
        <ele>56.2</ele>
        <time>2021-07-05 15:00:13</time>
      </trkpt>
      <trkpt lat="28.16937" lon="-14.20773">
        <ele>56</ele>
        <time>2021-07-05 15:00:14</time>
      </trkpt>
      <trkpt lat="28.16936" lon="-14.20774">
        <ele>56</ele>
        <time>2021-07-05 15:00:15</time>
      </trkpt>
      <trkpt lat="28.16936" lon="-14.20775">
        <ele>56</ele>
        <time>2021-07-05 15:00:16</time>
      </trkpt>
      <trkpt lat="28.16935" lon="-14.20776">
        <ele>56.4</ele>
        <time>2021-07-05 15:00:17</time>
      </trkpt>
      <trkpt lat="28.16935" lon="-14.20777">
        <ele>56.4</ele>
        <time>2021-07-05 15:00:18</time>
      </trkpt>
      <trkpt lat="28.16935" lon="-14.20778">
        <ele>56.6</ele>
        <time>2021-07-05 15:00:19</time>
      </trkpt>
      <trkpt lat="28.16934" lon="-14.20779">
        <ele>56.6</ele>
        <time>2021-07-05 15:00:20</time>
      </trkpt>
      <trkpt lat="28.16934" lon="-14.2078">
        <ele>56.6</ele>
        <time>2021-07-05 15:00:21</time>
      </trkpt>
      <trkpt lat="28.16934" lon="-14.20781">
        <ele>56.6</ele>
        <time>2021-07-05 15:00:22</time>
      </trkpt>
      <trkpt lat="28.16934" lon="-14.20781">
        <ele>56.4</ele>
        <time>2021-07-05 15:00:23</time>
      </trkpt>
      <trkpt lat="28.16934" lon="-14.20782">
        <ele>56.2</ele>
        <time>2021-07-05 15:00:24</time>
      </trkpt>
      <trkpt lat="28.16933" lon="-14.20783">
        <ele>55.8</ele>
        <time>2021-07-05 15:00:25</time>
      </trkpt>
      <trkpt lat="28.16933" lon="-14.20785">
        <ele>55.8</ele>
        <time>2021-07-05 15:00:26</time>
      </trkpt>
      <trkpt lat="28.16933" lon="-14.20786">
        <ele>55.8</ele>
        <time>2021-07-05 15:00:27</time>
      </trkpt>
      <trkpt lat="28.16932" lon="-14.20787">
        <ele>55.8</ele>
        <time>2021-07-05 15:00:28</time>
      </trkpt>
      <trkpt lat="28.16932" lon="-14.20788">
        <ele>55.6</ele>
        <time>2021-07-05 15:00:29</time>
      </trkpt>
      <trkpt lat="28.16932" lon="-14.20789">
        <ele>55.6</ele>
        <time>2021-07-05 15:00:30</time>
      </trkpt>
      <trkpt lat="28.16931" lon="-14.2079">
        <ele>55.6</ele>
        <time>2021-07-05 15:00:31</time>
      </trkpt>
      <trkpt lat="28.1693" lon="-14.20791">
        <ele>55.6</ele>
        <time>2021-07-05 15:00:32</time>
      </trkpt>
      <trkpt lat="28.16929" lon="-14.20792">
        <ele>55.6</ele>
        <time>2021-07-05 15:00:33</time>
      </trkpt>
      <trkpt lat="28.16929" lon="-14.20793">
        <ele>55.6</ele>
        <time>2021-07-05 15:00:34</time>
      </trkpt>
      <trkpt lat="28.16929" lon="-14.20793">
        <ele>55.6</ele>
        <time>2021-07-05 15:00:35</time>
      </trkpt>
      <trkpt lat="28.16928" lon="-14.20794">
        <ele>55.8</ele>
        <time>2021-07-05 15:00:36</time>
      </trkpt>
      <trkpt lat="28.16928" lon="-14.20795">
        <ele>56.2</ele>
        <time>2021-07-05 15:00:37</time>
      </trkpt>
      <trkpt lat="28.16927" lon="-14.20796">
        <ele>56.6</ele>
        <time>2021-07-05 15:00:38</time>
      </trkpt>
      <trkpt lat="28.16927" lon="-14.20798">
        <ele>56.8</ele>
        <time>2021-07-05 15:00:39</time>
      </trkpt>
      <trkpt lat="28.16927" lon="-14.20799">
        <ele>57.2</ele>
        <time>2021-07-05 15:00:40</time>
      </trkpt>
      <trkpt lat="28.16926" lon="-14.208">
        <ele>57.8</ele>
        <time>2021-07-05 15:00:41</time>
      </trkpt>
      <trkpt lat="28.16926" lon="-14.20801">
        <ele>58.4</ele>
        <time>2021-07-05 15:00:42</time>
      </trkpt>
      <trkpt lat="28.16925" lon="-14.20802">
        <ele>58.8</ele>
        <time>2021-07-05 15:00:43</time>
      </trkpt>
      <trkpt lat="28.16925" lon="-14.20803">
        <ele>59.2</ele>
        <time>2021-07-05 15:00:44</time>
      </trkpt>
      <trkpt lat="28.16924" lon="-14.20804">
        <ele>59.6</ele>
        <time>2021-07-05 15:00:45</time>
      </trkpt>
      <trkpt lat="28.16924" lon="-14.20805">
        <ele>59.8</ele>
        <time>2021-07-05 15:00:46</time>
      </trkpt>
      <trkpt lat="28.16923" lon="-14.20807">
        <ele>59.8</ele>
        <time>2021-07-05 15:00:47</time>
      </trkpt>
      <trkpt lat="28.16923" lon="-14.20808">
        <ele>60.2</ele>
        <time>2021-07-05 15:00:48</time>
      </trkpt>
      <trkpt lat="28.16922" lon="-14.20809">
        <ele>60.6</ele>
        <time>2021-07-05 15:00:49</time>
      </trkpt>
      <trkpt lat="28.16921" lon="-14.2081">
        <ele>60.6</ele>
        <time>2021-07-05 15:00:50</time>
      </trkpt>
      <trkpt lat="28.1692" lon="-14.20812">
        <ele>60.6</ele>
        <time>2021-07-05 15:00:51</time>
      </trkpt>
      <trkpt lat="28.1692" lon="-14.20813">
        <ele>60.6</ele>
        <time>2021-07-05 15:00:52</time>
      </trkpt>
      <trkpt lat="28.16919" lon="-14.20814">
        <ele>60.6</ele>
        <time>2021-07-05 15:00:53</time>
      </trkpt>
      <trkpt lat="28.16919" lon="-14.20815">
        <ele>60.6</ele>
        <time>2021-07-05 15:00:54</time>
      </trkpt>
      <trkpt lat="28.16918" lon="-14.20816">
        <ele>60.6</ele>
        <time>2021-07-05 15:00:55</time>
      </trkpt>
      <trkpt lat="28.16918" lon="-14.20817">
        <ele>60.8</ele>
        <time>2021-07-05 15:00:56</time>
      </trkpt>
      <trkpt lat="28.16918" lon="-14.20818">
        <ele>61</ele>
        <time>2021-07-05 15:00:57</time>
      </trkpt>
      <trkpt lat="28.16917" lon="-14.20819">
        <ele>61.6</ele>
        <time>2021-07-05 15:00:58</time>
      </trkpt>
      <trkpt lat="28.16917" lon="-14.2082">
        <ele>61.6</ele>
        <time>2021-07-05 15:00:59</time>
      </trkpt>
      <trkpt lat="28.16916" lon="-14.20821">
        <ele>62.4</ele>
        <time>2021-07-05 15:01:00</time>
      </trkpt>
      <trkpt lat="28.16916" lon="-14.20822">
        <ele>62.4</ele>
        <time>2021-07-05 15:01:01</time>
      </trkpt>
      <trkpt lat="28.16916" lon="-14.20823">
        <ele>62.4</ele>
        <time>2021-07-05 15:01:02</time>
      </trkpt>
      <trkpt lat="28.16916" lon="-14.20824">
        <ele>62.4</ele>
        <time>2021-07-05 15:01:03</time>
      </trkpt>
      <trkpt lat="28.16915" lon="-14.20825">
        <ele>62.4</ele>
        <time>2021-07-05 15:01:04</time>
      </trkpt>
      <trkpt lat="28.16915" lon="-14.20826">
        <ele>62.4</ele>
        <time>2021-07-05 15:01:05</time>
      </trkpt>
      <trkpt lat="28.16915" lon="-14.20827">
        <ele>61.8</ele>
        <time>2021-07-05 15:01:06</time>
      </trkpt>
      <trkpt lat="28.16915" lon="-14.20828">
        <ele>61.4</ele>
        <time>2021-07-05 15:01:07</time>
      </trkpt>
      <trkpt lat="28.16914" lon="-14.20829">
        <ele>61.4</ele>
        <time>2021-07-05 15:01:08</time>
      </trkpt>
      <trkpt lat="28.16914" lon="-14.2083">
        <ele>61.2</ele>
        <time>2021-07-05 15:01:09</time>
      </trkpt>
      <trkpt lat="28.16913" lon="-14.20831">
        <ele>61.2</ele>
        <time>2021-07-05 15:01:10</time>
      </trkpt>
      <trkpt lat="28.16913" lon="-14.20833">
        <ele>61</ele>
        <time>2021-07-05 15:01:11</time>
      </trkpt>
      <trkpt lat="28.16913" lon="-14.20834">
        <ele>60.6</ele>
        <time>2021-07-05 15:01:12</time>
      </trkpt>
      <trkpt lat="28.16913" lon="-14.20834">
        <ele>60.6</ele>
        <time>2021-07-05 15:01:13</time>
      </trkpt>
      <trkpt lat="28.16912" lon="-14.20836">
        <ele>60.6</ele>
        <time>2021-07-05 15:01:14</time>
      </trkpt>
      <trkpt lat="28.16912" lon="-14.20836">
        <ele>61</ele>
        <time>2021-07-05 15:01:15</time>
      </trkpt>
      <trkpt lat="28.16912" lon="-14.20837">
        <ele>61</ele>
        <time>2021-07-05 15:01:16</time>
      </trkpt>
      <trkpt lat="28.16911" lon="-14.20839">
        <ele>61.2</ele>
        <time>2021-07-05 15:01:17</time>
      </trkpt>
      <trkpt lat="28.16911" lon="-14.2084">
        <ele>61.6</ele>
        <time>2021-07-05 15:01:18</time>
      </trkpt>
      <trkpt lat="28.1691" lon="-14.20841">
        <ele>62.4</ele>
        <time>2021-07-05 15:01:19</time>
      </trkpt>
      <trkpt lat="28.1691" lon="-14.20842">
        <ele>62.4</ele>
        <time>2021-07-05 15:01:20</time>
      </trkpt>
      <trkpt lat="28.1691" lon="-14.20843">
        <ele>62.8</ele>
        <time>2021-07-05 15:01:21</time>
      </trkpt>
      <trkpt lat="28.1691" lon="-14.20844">
        <ele>63.2</ele>
        <time>2021-07-05 15:01:22</time>
      </trkpt>
      <trkpt lat="28.1691" lon="-14.20844">
        <ele>63.2</ele>
        <time>2021-07-05 15:01:23</time>
      </trkpt>
      <trkpt lat="28.16911" lon="-14.20843">
        <ele>63.2</ele>
        <time>2021-07-05 15:01:24</time>
      </trkpt>
      <trkpt lat="28.16911" lon="-14.20846">
        <ele>63.2</ele>
        <time>2021-07-05 15:01:25</time>
      </trkpt>
      <trkpt lat="28.16911" lon="-14.20847">
        <ele>62.8</ele>
        <time>2021-07-05 15:01:26</time>
      </trkpt>
      <trkpt lat="28.16911" lon="-14.20849">
        <ele>63</ele>
        <time>2021-07-05 15:01:30</time>
      </trkpt>
      <trkpt lat="28.16911" lon="-14.2085">
        <ele>63.4</ele>
        <time>2021-07-05 15:01:31</time>
      </trkpt>
      <trkpt lat="28.16911" lon="-14.20851">
        <ele>63.4</ele>
        <time>2021-07-05 15:01:32</time>
      </trkpt>
      <trkpt lat="28.16911" lon="-14.20853">
        <ele>63</ele>
        <time>2021-07-05 15:01:33</time>
      </trkpt>
      <trkpt lat="28.16912" lon="-14.20854">
        <ele>63</ele>
        <time>2021-07-05 15:01:34</time>
      </trkpt>
      <trkpt lat="28.16912" lon="-14.20855">
        <ele>62.8</ele>
        <time>2021-07-05 15:01:35</time>
      </trkpt>
      <trkpt lat="28.16912" lon="-14.20856">
        <ele>62.2</ele>
        <time>2021-07-05 15:01:36</time>
      </trkpt>
      <trkpt lat="28.16912" lon="-14.20857">
        <ele>61.8</ele>
        <time>2021-07-05 15:01:37</time>
      </trkpt>
      <trkpt lat="28.16913" lon="-14.20858">
        <ele>61.4</ele>
        <time>2021-07-05 15:01:38</time>
      </trkpt>
      <trkpt lat="28.16913" lon="-14.2086">
        <ele>61</ele>
        <time>2021-07-05 15:01:39</time>
      </trkpt>
      <trkpt lat="28.16914" lon="-14.2086">
        <ele>60.6</ele>
        <time>2021-07-05 15:01:40</time>
      </trkpt>
      <trkpt lat="28.16915" lon="-14.20861">
        <ele>60.2</ele>
        <time>2021-07-05 15:01:41</time>
      </trkpt>
      <trkpt lat="28.16915" lon="-14.20862">
        <ele>59.8</ele>
        <time>2021-07-05 15:01:42</time>
      </trkpt>
      <trkpt lat="28.16916" lon="-14.20863">
        <ele>59.6</ele>
        <time>2021-07-05 15:01:43</time>
      </trkpt>
      <trkpt lat="28.16917" lon="-14.20864">
        <ele>59.4</ele>
        <time>2021-07-05 15:01:44</time>
      </trkpt>
      <trkpt lat="28.16918" lon="-14.20865">
        <ele>59.4</ele>
        <time>2021-07-05 15:01:45</time>
      </trkpt>
      <trkpt lat="28.16919" lon="-14.20866">
        <ele>59</ele>
        <time>2021-07-05 15:01:46</time>
      </trkpt>
      <trkpt lat="28.1692" lon="-14.20866">
        <ele>59</ele>
        <time>2021-07-05 15:01:47</time>
      </trkpt>
      <trkpt lat="28.16921" lon="-14.20867">
        <ele>58.8</ele>
        <time>2021-07-05 15:01:48</time>
      </trkpt>
      <trkpt lat="28.16922" lon="-14.20868">
        <ele>58.4</ele>
        <time>2021-07-05 15:01:49</time>
      </trkpt>
      <trkpt lat="28.16924" lon="-14.20868">
        <ele>58.4</ele>
        <time>2021-07-05 15:01:50</time>
      </trkpt>
      <trkpt lat="28.16925" lon="-14.20869">
        <ele>58.2</ele>
        <time>2021-07-05 15:01:51</time>
      </trkpt>
      <trkpt lat="28.16925" lon="-14.2087">
        <ele>58.2</ele>
        <time>2021-07-05 15:01:52</time>
      </trkpt>
      <trkpt lat="28.16926" lon="-14.20871">
        <ele>58.2</ele>
        <time>2021-07-05 15:01:53</time>
      </trkpt>
      <trkpt lat="28.16927" lon="-14.20872">
        <ele>58.2</ele>
        <time>2021-07-05 15:01:54</time>
      </trkpt>
      <trkpt lat="28.16928" lon="-14.20873">
        <ele>58.4</ele>
        <time>2021-07-05 15:01:55</time>
      </trkpt>
      <trkpt lat="28.16929" lon="-14.20874">
        <ele>58.4</ele>
        <time>2021-07-05 15:01:56</time>
      </trkpt>
      <trkpt lat="28.1693" lon="-14.20874">
        <ele>58.4</ele>
        <time>2021-07-05 15:01:57</time>
      </trkpt>
      <trkpt lat="28.16931" lon="-14.20875">
        <ele>58.4</ele>
        <time>2021-07-05 15:01:58</time>
      </trkpt>
      <trkpt lat="28.16932" lon="-14.20875">
        <ele>58.4</ele>
        <time>2021-07-05 15:01:59</time>
      </trkpt>
      <trkpt lat="28.16933" lon="-14.20876">
        <ele>58.4</ele>
        <time>2021-07-05 15:02:00</time>
      </trkpt>
      <trkpt lat="28.16934" lon="-14.20877">
        <ele>58.4</ele>
        <time>2021-07-05 15:02:01</time>
      </trkpt>
      <trkpt lat="28.16935" lon="-14.20877">
        <ele>58.4</ele>
        <time>2021-07-05 15:02:02</time>
      </trkpt>
      <trkpt lat="28.16936" lon="-14.20878">
        <ele>58.4</ele>
        <time>2021-07-05 15:02:03</time>
      </trkpt>
      <trkpt lat="28.16937" lon="-14.20879">
        <ele>58.4</ele>
        <time>2021-07-05 15:02:04</time>
      </trkpt>
      <trkpt lat="28.16938" lon="-14.2088">
        <ele>58.4</ele>
        <time>2021-07-05 15:02:05</time>
      </trkpt>
      <trkpt lat="28.16939" lon="-14.2088">
        <ele>58.4</ele>
        <time>2021-07-05 15:02:06</time>
      </trkpt>
      <trkpt lat="28.1694" lon="-14.20881">
        <ele>58.4</ele>
        <time>2021-07-05 15:02:07</time>
      </trkpt>
      <trkpt lat="28.16941" lon="-14.20882">
        <ele>58.4</ele>
        <time>2021-07-05 15:02:08</time>
      </trkpt>
      <trkpt lat="28.16943" lon="-14.20882">
        <ele>58.4</ele>
        <time>2021-07-05 15:02:09</time>
      </trkpt>
      <trkpt lat="28.16944" lon="-14.20883">
        <ele>58.2</ele>
        <time>2021-07-05 15:02:10</time>
      </trkpt>
      <trkpt lat="28.16945" lon="-14.20884">
        <ele>58.2</ele>
        <time>2021-07-05 15:02:11</time>
      </trkpt>
      <trkpt lat="28.16946" lon="-14.20884">
        <ele>58.2</ele>
        <time>2021-07-05 15:02:12</time>
      </trkpt>
      <trkpt lat="28.16947" lon="-14.20885">
        <ele>58.2</ele>
        <time>2021-07-05 15:02:13</time>
      </trkpt>
      <trkpt lat="28.16948" lon="-14.20885">
        <ele>58.2</ele>
        <time>2021-07-05 15:02:14</time>
      </trkpt>
      <trkpt lat="28.16949" lon="-14.20886">
        <ele>58.2</ele>
        <time>2021-07-05 15:02:15</time>
      </trkpt>
      <trkpt lat="28.1695" lon="-14.20887">
        <ele>58.2</ele>
        <time>2021-07-05 15:02:16</time>
      </trkpt>
      <trkpt lat="28.16952" lon="-14.20887">
        <ele>58.2</ele>
        <time>2021-07-05 15:02:17</time>
      </trkpt>
      <trkpt lat="28.16952" lon="-14.20888">
        <ele>58.2</ele>
        <time>2021-07-05 15:02:18</time>
      </trkpt>
      <trkpt lat="28.16953" lon="-14.20889">
        <ele>58.2</ele>
        <time>2021-07-05 15:02:19</time>
      </trkpt>
      <trkpt lat="28.16954" lon="-14.20889">
        <ele>58.2</ele>
        <time>2021-07-05 15:02:20</time>
      </trkpt>
      <trkpt lat="28.16955" lon="-14.2089">
        <ele>58.2</ele>
        <time>2021-07-05 15:02:21</time>
      </trkpt>
      <trkpt lat="28.16956" lon="-14.20891">
        <ele>58.2</ele>
        <time>2021-07-05 15:02:22</time>
      </trkpt>
      <trkpt lat="28.16957" lon="-14.20892">
        <ele>58.4</ele>
        <time>2021-07-05 15:02:23</time>
      </trkpt>
      <trkpt lat="28.16958" lon="-14.20892">
        <ele>58.4</ele>
        <time>2021-07-05 15:02:24</time>
      </trkpt>
      <trkpt lat="28.16959" lon="-14.20893">
        <ele>58.8</ele>
        <time>2021-07-05 15:02:25</time>
      </trkpt>
      <trkpt lat="28.1696" lon="-14.20893">
        <ele>58.8</ele>
        <time>2021-07-05 15:02:26</time>
      </trkpt>
      <trkpt lat="28.16961" lon="-14.20894">
        <ele>58.8</ele>
        <time>2021-07-05 15:02:27</time>
      </trkpt>
      <trkpt lat="28.16962" lon="-14.20895">
        <ele>58.8</ele>
        <time>2021-07-05 15:02:28</time>
      </trkpt>
      <trkpt lat="28.16963" lon="-14.20895">
        <ele>58.8</ele>
        <time>2021-07-05 15:02:29</time>
      </trkpt>
      <trkpt lat="28.16965" lon="-14.20896">
        <ele>58.8</ele>
        <time>2021-07-05 15:02:30</time>
      </trkpt>
      <trkpt lat="28.16966" lon="-14.20897">
        <ele>58.8</ele>
        <time>2021-07-05 15:02:31</time>
      </trkpt>
      <trkpt lat="28.16967" lon="-14.20897">
        <ele>59</ele>
        <time>2021-07-05 15:02:32</time>
      </trkpt>
      <trkpt lat="28.16968" lon="-14.20898">
        <ele>59</ele>
        <time>2021-07-05 15:02:33</time>
      </trkpt>
      <trkpt lat="28.1697" lon="-14.20898">
        <ele>59.2</ele>
        <time>2021-07-05 15:02:34</time>
      </trkpt>
      <trkpt lat="28.16971" lon="-14.20899">
        <ele>59.2</ele>
        <time>2021-07-05 15:02:35</time>
      </trkpt>
      <trkpt lat="28.16972" lon="-14.209">
        <ele>59.2</ele>
        <time>2021-07-05 15:02:36</time>
      </trkpt>
      <trkpt lat="28.16973" lon="-14.209">
        <ele>59.2</ele>
        <time>2021-07-05 15:02:37</time>
      </trkpt>
      <trkpt lat="28.16975" lon="-14.20901">
        <ele>59.2</ele>
        <time>2021-07-05 15:02:38</time>
      </trkpt>
      <trkpt lat="28.16976" lon="-14.20902">
        <ele>59.2</ele>
        <time>2021-07-05 15:02:39</time>
      </trkpt>
      <trkpt lat="28.16977" lon="-14.20903">
        <ele>59.2</ele>
        <time>2021-07-05 15:02:40</time>
      </trkpt>
      <trkpt lat="28.16978" lon="-14.20904">
        <ele>59.2</ele>
        <time>2021-07-05 15:02:41</time>
      </trkpt>
      <trkpt lat="28.16979" lon="-14.20905">
        <ele>59.2</ele>
        <time>2021-07-05 15:02:42</time>
      </trkpt>
      <trkpt lat="28.1698" lon="-14.20906">
        <ele>59.2</ele>
        <time>2021-07-05 15:02:43</time>
      </trkpt>
      <trkpt lat="28.16981" lon="-14.20907">
        <ele>59.2</ele>
        <time>2021-07-05 15:02:44</time>
      </trkpt>
      <trkpt lat="28.16982" lon="-14.20908">
        <ele>59.2</ele>
        <time>2021-07-05 15:02:45</time>
      </trkpt>
      <trkpt lat="28.16983" lon="-14.20909">
        <ele>59.2</ele>
        <time>2021-07-05 15:02:46</time>
      </trkpt>
      <trkpt lat="28.16985" lon="-14.20909">
        <ele>59.2</ele>
        <time>2021-07-05 15:02:47</time>
      </trkpt>
      <trkpt lat="28.16986" lon="-14.2091">
        <ele>59.2</ele>
        <time>2021-07-05 15:02:48</time>
      </trkpt>
      <trkpt lat="28.16987" lon="-14.20911">
        <ele>59.2</ele>
        <time>2021-07-05 15:02:49</time>
      </trkpt>
      <trkpt lat="28.16988" lon="-14.20911">
        <ele>59.2</ele>
        <time>2021-07-05 15:02:50</time>
      </trkpt>
      <trkpt lat="28.16989" lon="-14.20912">
        <ele>59.2</ele>
        <time>2021-07-05 15:02:51</time>
      </trkpt>
      <trkpt lat="28.1699" lon="-14.20913">
        <ele>59.6</ele>
        <time>2021-07-05 15:02:52</time>
      </trkpt>
      <trkpt lat="28.16991" lon="-14.20914">
        <ele>59.8</ele>
        <time>2021-07-05 15:02:53</time>
      </trkpt>
      <trkpt lat="28.16992" lon="-14.20915">
        <ele>59.8</ele>
        <time>2021-07-05 15:02:54</time>
      </trkpt>
      <trkpt lat="28.16993" lon="-14.20916">
        <ele>59.8</ele>
        <time>2021-07-05 15:02:55</time>
      </trkpt>
      <trkpt lat="28.16994" lon="-14.20917">
        <ele>59.8</ele>
        <time>2021-07-05 15:02:56</time>
      </trkpt>
      <trkpt lat="28.16995" lon="-14.20917">
        <ele>59.8</ele>
        <time>2021-07-05 15:02:57</time>
      </trkpt>
      <trkpt lat="28.16996" lon="-14.20918">
        <ele>60</ele>
        <time>2021-07-05 15:02:58</time>
      </trkpt>
      <trkpt lat="28.16997" lon="-14.20919">
        <ele>60</ele>
        <time>2021-07-05 15:02:59</time>
      </trkpt>
      <trkpt lat="28.16998" lon="-14.20919">
        <ele>60.4</ele>
        <time>2021-07-05 15:03:00</time>
      </trkpt>
      <trkpt lat="28.16999" lon="-14.2092">
        <ele>60.4</ele>
        <time>2021-07-05 15:03:01</time>
      </trkpt>
      <trkpt lat="28.17" lon="-14.20921">
        <ele>60.4</ele>
        <time>2021-07-05 15:03:02</time>
      </trkpt>
      <trkpt lat="28.17001" lon="-14.20922">
        <ele>60.4</ele>
        <time>2021-07-05 15:03:03</time>
      </trkpt>
      <trkpt lat="28.17001" lon="-14.20923">
        <ele>60.4</ele>
        <time>2021-07-05 15:03:04</time>
      </trkpt>
      <trkpt lat="28.17002" lon="-14.20924">
        <ele>60.4</ele>
        <time>2021-07-05 15:03:05</time>
      </trkpt>
      <trkpt lat="28.17002" lon="-14.20925">
        <ele>60.8</ele>
        <time>2021-07-05 15:03:06</time>
      </trkpt>
      <trkpt lat="28.17002" lon="-14.20927">
        <ele>61</ele>
        <time>2021-07-05 15:03:07</time>
      </trkpt>
      <trkpt lat="28.17002" lon="-14.20928">
        <ele>61.2</ele>
        <time>2021-07-05 15:03:08</time>
      </trkpt>
      <trkpt lat="28.17002" lon="-14.20929">
        <ele>61.4</ele>
        <time>2021-07-05 15:03:09</time>
      </trkpt>
      <trkpt lat="28.17002" lon="-14.2093">
        <ele>62</ele>
        <time>2021-07-05 15:03:10</time>
      </trkpt>
      <trkpt lat="28.17001" lon="-14.20931">
        <ele>62</ele>
        <time>2021-07-05 15:03:11</time>
      </trkpt>
      <trkpt lat="28.17001" lon="-14.20932">
        <ele>62</ele>
        <time>2021-07-05 15:03:12</time>
      </trkpt>
      <trkpt lat="28.17001" lon="-14.20933">
        <ele>62.2</ele>
        <time>2021-07-05 15:03:13</time>
      </trkpt>
      <trkpt lat="28.17" lon="-14.20934">
        <ele>62.4</ele>
        <time>2021-07-05 15:03:14</time>
      </trkpt>
      <trkpt lat="28.17" lon="-14.20934">
        <ele>62.4</ele>
        <time>2021-07-05 15:03:15</time>
      </trkpt>
      <trkpt lat="28.17" lon="-14.20935">
        <ele>62.8</ele>
        <time>2021-07-05 15:03:16</time>
      </trkpt>
      <trkpt lat="28.17" lon="-14.20935">
        <ele>63.2</ele>
        <time>2021-07-05 15:03:17</time>
      </trkpt>
      <trkpt lat="28.16999" lon="-14.20934">
        <ele>63.8</ele>
        <time>2021-07-05 15:03:18</time>
      </trkpt>
      <trkpt lat="28.16998" lon="-14.20935">
        <ele>63.6</ele>
        <time>2021-07-05 15:03:19</time>
      </trkpt>
      <trkpt lat="28.16998" lon="-14.20935">
        <ele>63.4</ele>
        <time>2021-07-05 15:03:20</time>
      </trkpt>
      <trkpt lat="28.16998" lon="-14.20935">
        <ele>63.4</ele>
        <time>2021-07-05 15:03:31</time>
      </trkpt>
      <trkpt lat="28.16998" lon="-14.20936">
        <ele>63.2</ele>
        <time>2021-07-05 15:03:32</time>
      </trkpt>
      <trkpt lat="28.16996" lon="-14.20935">
        <ele>62.8</ele>
        <time>2021-07-05 15:03:33</time>
      </trkpt>
      <trkpt lat="28.16994" lon="-14.20935">
        <ele>62.4</ele>
        <time>2021-07-05 15:03:34</time>
      </trkpt>
      <trkpt lat="28.16992" lon="-14.20933">
        <ele>62</ele>
        <time>2021-07-05 15:03:35</time>
      </trkpt>
      <trkpt lat="28.1699" lon="-14.20931">
        <ele>61.6</ele>
        <time>2021-07-05 15:03:36</time>
      </trkpt>
      <trkpt lat="28.16988" lon="-14.20929">
        <ele>60.8</ele>
        <time>2021-07-05 15:03:37</time>
      </trkpt>
      <trkpt lat="28.16985" lon="-14.20927">
        <ele>60.8</ele>
        <time>2021-07-05 15:03:38</time>
      </trkpt>
      <trkpt lat="28.16982" lon="-14.20924">
        <ele>60.4</ele>
        <time>2021-07-05 15:03:39</time>
      </trkpt>
      <trkpt lat="28.16978" lon="-14.20922">
        <ele>60</ele>
        <time>2021-07-05 15:03:40</time>
      </trkpt>
      <trkpt lat="28.16974" lon="-14.20921">
        <ele>59.6</ele>
        <time>2021-07-05 15:03:41</time>
      </trkpt>
      <trkpt lat="28.16969" lon="-14.20919">
        <ele>59</ele>
        <time>2021-07-05 15:03:42</time>
      </trkpt>
      <trkpt lat="28.16964" lon="-14.20916">
        <ele>59</ele>
        <time>2021-07-05 15:03:43</time>
      </trkpt>
      <trkpt lat="28.16959" lon="-14.20914">
        <ele>58.8</ele>
        <time>2021-07-05 15:03:44</time>
      </trkpt>
      <trkpt lat="28.16955" lon="-14.20911">
        <ele>58.8</ele>
        <time>2021-07-05 15:03:45</time>
      </trkpt>
      <trkpt lat="28.1695" lon="-14.20909">
        <ele>58.4</ele>
        <time>2021-07-05 15:03:46</time>
      </trkpt>
      <trkpt lat="28.16945" lon="-14.20906">
        <ele>58.4</ele>
        <time>2021-07-05 15:03:47</time>
      </trkpt>
      <trkpt lat="28.16941" lon="-14.20904">
        <ele>58.2</ele>
        <time>2021-07-05 15:03:48</time>
      </trkpt>
      <trkpt lat="28.16937" lon="-14.209">
        <ele>58.2</ele>
        <time>2021-07-05 15:03:49</time>
      </trkpt>
      <trkpt lat="28.16933" lon="-14.20898">
        <ele>57.8</ele>
        <time>2021-07-05 15:03:50</time>
      </trkpt>
      <trkpt lat="28.16929" lon="-14.20895">
        <ele>57.6</ele>
        <time>2021-07-05 15:03:51</time>
      </trkpt>
      <trkpt lat="28.16924" lon="-14.20893">
        <ele>57</ele>
        <time>2021-07-05 15:03:52</time>
      </trkpt>
      <trkpt lat="28.1692" lon="-14.20891">
        <ele>56.2</ele>
        <time>2021-07-05 15:03:53</time>
      </trkpt>
      <trkpt lat="28.16915" lon="-14.20889">
        <ele>56.2</ele>
        <time>2021-07-05 15:03:54</time>
      </trkpt>
      <trkpt lat="28.16911" lon="-14.20888">
        <ele>55.8</ele>
        <time>2021-07-05 15:03:55</time>
      </trkpt>
      <trkpt lat="28.16906" lon="-14.20885">
        <ele>55.6</ele>
        <time>2021-07-05 15:03:56</time>
      </trkpt>
      <trkpt lat="28.16902" lon="-14.20883">
        <ele>55.2</ele>
        <time>2021-07-05 15:03:57</time>
      </trkpt>
      <trkpt lat="28.16897" lon="-14.20881">
        <ele>55</ele>
        <time>2021-07-05 15:03:58</time>
      </trkpt>
      <trkpt lat="28.16893" lon="-14.2088">
        <ele>54.8</ele>
        <time>2021-07-05 15:03:59</time>
      </trkpt>
      <trkpt lat="28.16889" lon="-14.20878">
        <ele>54.4</ele>
        <time>2021-07-05 15:04:00</time>
      </trkpt>
      <trkpt lat="28.16884" lon="-14.20879">
        <ele>53.8</ele>
        <time>2021-07-05 15:04:01</time>
      </trkpt>
      <trkpt lat="28.1688" lon="-14.2088">
        <ele>53.8</ele>
        <time>2021-07-05 15:04:02</time>
      </trkpt>
      <trkpt lat="28.16876" lon="-14.20883">
        <ele>53</ele>
        <time>2021-07-05 15:04:03</time>
      </trkpt>
      <trkpt lat="28.16871" lon="-14.20886">
        <ele>53</ele>
        <time>2021-07-05 15:04:04</time>
      </trkpt>
      <trkpt lat="28.16867" lon="-14.2089">
        <ele>52.8</ele>
        <time>2021-07-05 15:04:05</time>
      </trkpt>
      <trkpt lat="28.16863" lon="-14.20894">
        <ele>51.8</ele>
        <time>2021-07-05 15:04:06</time>
      </trkpt>
      <trkpt lat="28.1686" lon="-14.20899">
        <ele>51.8</ele>
        <time>2021-07-05 15:04:07</time>
      </trkpt>
      <trkpt lat="28.16857" lon="-14.20905">
        <ele>51.2</ele>
        <time>2021-07-05 15:04:08</time>
      </trkpt>
      <trkpt lat="28.16854" lon="-14.2091">
        <ele>51.2</ele>
        <time>2021-07-05 15:04:09</time>
      </trkpt>
      <trkpt lat="28.16852" lon="-14.20915">
        <ele>50.8</ele>
        <time>2021-07-05 15:04:10</time>
      </trkpt>
      <trkpt lat="28.1685" lon="-14.20921">
        <ele>50.8</ele>
        <time>2021-07-05 15:04:11</time>
      </trkpt>
      <trkpt lat="28.16848" lon="-14.20926">
        <ele>50.6</ele>
        <time>2021-07-05 15:04:12</time>
      </trkpt>
      <trkpt lat="28.16846" lon="-14.20931">
        <ele>50.6</ele>
        <time>2021-07-05 15:04:13</time>
      </trkpt>
      <trkpt lat="28.16843" lon="-14.20935">
        <ele>50.6</ele>
        <time>2021-07-05 15:04:14</time>
      </trkpt>
      <trkpt lat="28.16841" lon="-14.20941">
        <ele>50.6</ele>
        <time>2021-07-05 15:04:15</time>
      </trkpt>
      <trkpt lat="28.16839" lon="-14.20945">
        <ele>50.2</ele>
        <time>2021-07-05 15:04:16</time>
      </trkpt>
      <trkpt lat="28.16837" lon="-14.2095">
        <ele>50.2</ele>
        <time>2021-07-05 15:04:17</time>
      </trkpt>
      <trkpt lat="28.16835" lon="-14.20954">
        <ele>50</ele>
        <time>2021-07-05 15:04:18</time>
      </trkpt>
      <trkpt lat="28.16834" lon="-14.20959">
        <ele>49.8</ele>
        <time>2021-07-05 15:04:19</time>
      </trkpt>
      <trkpt lat="28.16834" lon="-14.20963">
        <ele>49.8</ele>
        <time>2021-07-05 15:04:20</time>
      </trkpt>
      <trkpt lat="28.16834" lon="-14.20967">
        <ele>49.8</ele>
        <time>2021-07-05 15:04:21</time>
      </trkpt>
      <trkpt lat="28.16834" lon="-14.2097">
        <ele>49.6</ele>
        <time>2021-07-05 15:04:22</time>
      </trkpt>
      <trkpt lat="28.16834" lon="-14.20973">
        <ele>49.2</ele>
        <time>2021-07-05 15:04:23</time>
      </trkpt>
      <trkpt lat="28.16833" lon="-14.20977">
        <ele>49.2</ele>
        <time>2021-07-05 15:04:24</time>
      </trkpt>
      <trkpt lat="28.16832" lon="-14.2098">
        <ele>49</ele>
        <time>2021-07-05 15:04:25</time>
      </trkpt>
      <trkpt lat="28.16831" lon="-14.20984">
        <ele>49</ele>
        <time>2021-07-05 15:04:26</time>
      </trkpt>
      <trkpt lat="28.16829" lon="-14.20987">
        <ele>49</ele>
        <time>2021-07-05 15:04:27</time>
      </trkpt>
      <trkpt lat="28.16827" lon="-14.2099">
        <ele>48.8</ele>
        <time>2021-07-05 15:04:28</time>
      </trkpt>
      <trkpt lat="28.16824" lon="-14.20993">
        <ele>48.8</ele>
        <time>2021-07-05 15:04:29</time>
      </trkpt>
      <trkpt lat="28.16821" lon="-14.20996">
        <ele>48.4</ele>
        <time>2021-07-05 15:04:30</time>
      </trkpt>
      <trkpt lat="28.16818" lon="-14.20999">
        <ele>48.4</ele>
        <time>2021-07-05 15:04:31</time>
      </trkpt>
      <trkpt lat="28.16815" lon="-14.21001">
        <ele>48.4</ele>
        <time>2021-07-05 15:04:32</time>
      </trkpt>
      <trkpt lat="28.16811" lon="-14.21003">
        <ele>48.4</ele>
        <time>2021-07-05 15:04:33</time>
      </trkpt>
      <trkpt lat="28.16808" lon="-14.21006">
        <ele>48.6</ele>
        <time>2021-07-05 15:04:34</time>
      </trkpt>
      <trkpt lat="28.16805" lon="-14.21008">
        <ele>48.6</ele>
        <time>2021-07-05 15:04:35</time>
      </trkpt>
      <trkpt lat="28.16802" lon="-14.21011">
        <ele>48.6</ele>
        <time>2021-07-05 15:04:36</time>
      </trkpt>
      <trkpt lat="28.16799" lon="-14.21014">
        <ele>48.6</ele>
        <time>2021-07-05 15:04:37</time>
      </trkpt>
      <trkpt lat="28.16796" lon="-14.21017">
        <ele>48.6</ele>
        <time>2021-07-05 15:04:38</time>
      </trkpt>
      <trkpt lat="28.16793" lon="-14.2102">
        <ele>48.6</ele>
        <time>2021-07-05 15:04:39</time>
      </trkpt>
      <trkpt lat="28.1679" lon="-14.21023">
        <ele>48.6</ele>
        <time>2021-07-05 15:04:40</time>
      </trkpt>
      <trkpt lat="28.16787" lon="-14.21026">
        <ele>48.6</ele>
        <time>2021-07-05 15:04:41</time>
      </trkpt>
      <trkpt lat="28.16784" lon="-14.2103">
        <ele>48.6</ele>
        <time>2021-07-05 15:04:42</time>
      </trkpt>
      <trkpt lat="28.16781" lon="-14.21034">
        <ele>48.4</ele>
        <time>2021-07-05 15:04:43</time>
      </trkpt>
      <trkpt lat="28.16778" lon="-14.21037">
        <ele>48.4</ele>
        <time>2021-07-05 15:04:44</time>
      </trkpt>
      <trkpt lat="28.16775" lon="-14.21041">
        <ele>48.4</ele>
        <time>2021-07-05 15:04:45</time>
      </trkpt>
      <trkpt lat="28.16773" lon="-14.21045">
        <ele>48.4</ele>
        <time>2021-07-05 15:04:46</time>
      </trkpt>
      <trkpt lat="28.1677" lon="-14.21049">
        <ele>48.4</ele>
        <time>2021-07-05 15:04:47</time>
      </trkpt>
      <trkpt lat="28.16768" lon="-14.21053">
        <ele>48.4</ele>
        <time>2021-07-05 15:04:48</time>
      </trkpt>
      <trkpt lat="28.16767" lon="-14.21058">
        <ele>48.4</ele>
        <time>2021-07-05 15:04:49</time>
      </trkpt>
      <trkpt lat="28.16766" lon="-14.21063">
        <ele>48.4</ele>
        <time>2021-07-05 15:04:50</time>
      </trkpt>
      <trkpt lat="28.16764" lon="-14.21067">
        <ele>48.4</ele>
        <time>2021-07-05 15:04:51</time>
      </trkpt>
      <trkpt lat="28.16762" lon="-14.21072">
        <ele>48.4</ele>
        <time>2021-07-05 15:04:52</time>
      </trkpt>
      <trkpt lat="28.16761" lon="-14.21077">
        <ele>48.4</ele>
        <time>2021-07-05 15:04:53</time>
      </trkpt>
      <trkpt lat="28.16759" lon="-14.21082">
        <ele>48.4</ele>
        <time>2021-07-05 15:04:54</time>
      </trkpt>
      <trkpt lat="28.16758" lon="-14.21087">
        <ele>48.4</ele>
        <time>2021-07-05 15:04:55</time>
      </trkpt>
      <trkpt lat="28.16757" lon="-14.21092">
        <ele>48.2</ele>
        <time>2021-07-05 15:04:56</time>
      </trkpt>
      <trkpt lat="28.16756" lon="-14.21097">
        <ele>48.2</ele>
        <time>2021-07-05 15:04:57</time>
      </trkpt>
      <trkpt lat="28.16755" lon="-14.21102">
        <ele>48.2</ele>
        <time>2021-07-05 15:04:58</time>
      </trkpt>
      <trkpt lat="28.16754" lon="-14.21107">
        <ele>48.2</ele>
        <time>2021-07-05 15:04:59</time>
      </trkpt>
      <trkpt lat="28.16754" lon="-14.21112">
        <ele>48.2</ele>
        <time>2021-07-05 15:05:00</time>
      </trkpt>
      <trkpt lat="28.16753" lon="-14.21118">
        <ele>48.2</ele>
        <time>2021-07-05 15:05:01</time>
      </trkpt>
      <trkpt lat="28.16752" lon="-14.21123">
        <ele>48.2</ele>
        <time>2021-07-05 15:05:02</time>
      </trkpt>
      <trkpt lat="28.16751" lon="-14.21128">
        <ele>48.2</ele>
        <time>2021-07-05 15:05:03</time>
      </trkpt>
      <trkpt lat="28.1675" lon="-14.21133">
        <ele>48.2</ele>
        <time>2021-07-05 15:05:04</time>
      </trkpt>
      <trkpt lat="28.16749" lon="-14.21138">
        <ele>48</ele>
        <time>2021-07-05 15:05:05</time>
      </trkpt>
      <trkpt lat="28.16748" lon="-14.21144">
        <ele>48</ele>
        <time>2021-07-05 15:05:06</time>
      </trkpt>
      <trkpt lat="28.16747" lon="-14.21149">
        <ele>47</ele>
        <time>2021-07-05 15:05:07</time>
      </trkpt>
      <trkpt lat="28.16746" lon="-14.21154">
        <ele>47</ele>
        <time>2021-07-05 15:05:08</time>
      </trkpt>
      <trkpt lat="28.16745" lon="-14.2116">
        <ele>46.8</ele>
        <time>2021-07-05 15:05:09</time>
      </trkpt>
      <trkpt lat="28.16744" lon="-14.21165">
        <ele>46.6</ele>
        <time>2021-07-05 15:05:10</time>
      </trkpt>
      <trkpt lat="28.16742" lon="-14.21171">
        <ele>46.4</ele>
        <time>2021-07-05 15:05:11</time>
      </trkpt>
      <trkpt lat="28.16741" lon="-14.21176">
        <ele>46.4</ele>
        <time>2021-07-05 15:05:12</time>
      </trkpt>
      <trkpt lat="28.16739" lon="-14.21181">
        <ele>46.4</ele>
        <time>2021-07-05 15:05:13</time>
      </trkpt>
      <trkpt lat="28.16736" lon="-14.21186">
        <ele>46.4</ele>
        <time>2021-07-05 15:05:14</time>
      </trkpt>
      <trkpt lat="28.16734" lon="-14.21191">
        <ele>46.4</ele>
        <time>2021-07-05 15:05:15</time>
      </trkpt>
      <trkpt lat="28.16732" lon="-14.21197">
        <ele>46.4</ele>
        <time>2021-07-05 15:05:16</time>
      </trkpt>
      <trkpt lat="28.1673" lon="-14.21202">
        <ele>46.4</ele>
        <time>2021-07-05 15:05:17</time>
      </trkpt>
      <trkpt lat="28.16727" lon="-14.21209">
        <ele>45.8</ele>
        <time>2021-07-05 15:05:18</time>
      </trkpt>
      <trkpt lat="28.16724" lon="-14.21215">
        <ele>45.6</ele>
        <time>2021-07-05 15:05:19</time>
      </trkpt>
      <trkpt lat="28.16721" lon="-14.21221">
        <ele>45.4</ele>
        <time>2021-07-05 15:05:20</time>
      </trkpt>
      <trkpt lat="28.16719" lon="-14.21227">
        <ele>44.8</ele>
        <time>2021-07-05 15:05:21</time>
      </trkpt>
      <trkpt lat="28.16716" lon="-14.21233">
        <ele>44.8</ele>
        <time>2021-07-05 15:05:22</time>
      </trkpt>
      <trkpt lat="28.16714" lon="-14.2124">
        <ele>44.4</ele>
        <time>2021-07-05 15:05:23</time>
      </trkpt>
      <trkpt lat="28.1671" lon="-14.21247">
        <ele>44.4</ele>
        <time>2021-07-05 15:05:24</time>
      </trkpt>
      <trkpt lat="28.16708" lon="-14.21254">
        <ele>44</ele>
        <time>2021-07-05 15:05:25</time>
      </trkpt>
      <trkpt lat="28.16705" lon="-14.2126">
        <ele>43.6</ele>
        <time>2021-07-05 15:05:26</time>
      </trkpt>
      <trkpt lat="28.16701" lon="-14.21267">
        <ele>43.2</ele>
        <time>2021-07-05 15:05:27</time>
      </trkpt>
      <trkpt lat="28.16698" lon="-14.21273">
        <ele>42.8</ele>
        <time>2021-07-05 15:05:28</time>
      </trkpt>
      <trkpt lat="28.16696" lon="-14.2128">
        <ele>42.2</ele>
        <time>2021-07-05 15:05:29</time>
      </trkpt>
      <trkpt lat="28.16693" lon="-14.21287">
        <ele>41.6</ele>
        <time>2021-07-05 15:05:30</time>
      </trkpt>
      <trkpt lat="28.1669" lon="-14.21294">
        <ele>41</ele>
        <time>2021-07-05 15:05:31</time>
      </trkpt>
      <trkpt lat="28.16687" lon="-14.21302">
        <ele>40.6</ele>
        <time>2021-07-05 15:05:32</time>
      </trkpt>
      <trkpt lat="28.16683" lon="-14.21308">
        <ele>40.2</ele>
        <time>2021-07-05 15:05:33</time>
      </trkpt>
      <trkpt lat="28.16681" lon="-14.21315">
        <ele>39.8</ele>
        <time>2021-07-05 15:05:34</time>
      </trkpt>
      <trkpt lat="28.16679" lon="-14.21321">
        <ele>39</ele>
        <time>2021-07-05 15:05:35</time>
      </trkpt>
      <trkpt lat="28.16677" lon="-14.21327">
        <ele>38</ele>
        <time>2021-07-05 15:05:36</time>
      </trkpt>
      <trkpt lat="28.16673" lon="-14.21333">
        <ele>37.2</ele>
        <time>2021-07-05 15:05:37</time>
      </trkpt>
      <trkpt lat="28.16669" lon="-14.2134">
        <ele>36.4</ele>
        <time>2021-07-05 15:05:38</time>
      </trkpt>
      <trkpt lat="28.16666" lon="-14.21346">
        <ele>35.8</ele>
        <time>2021-07-05 15:05:39</time>
      </trkpt>
      <trkpt lat="28.16664" lon="-14.21354">
        <ele>35</ele>
        <time>2021-07-05 15:05:40</time>
      </trkpt>
      <trkpt lat="28.16661" lon="-14.21361">
        <ele>33.8</ele>
        <time>2021-07-05 15:05:41</time>
      </trkpt>
      <trkpt lat="28.16657" lon="-14.21369">
        <ele>33.8</ele>
        <time>2021-07-05 15:05:42</time>
      </trkpt>
      <trkpt lat="28.16654" lon="-14.21377">
        <ele>33.2</ele>
        <time>2021-07-05 15:05:43</time>
      </trkpt>
      <trkpt lat="28.1665" lon="-14.21385">
        <ele>32.2</ele>
        <time>2021-07-05 15:05:44</time>
      </trkpt>
      <trkpt lat="28.16646" lon="-14.21393">
        <ele>32.2</ele>
        <time>2021-07-05 15:05:45</time>
      </trkpt>
      <trkpt lat="28.16643" lon="-14.21402">
        <ele>31.6</ele>
        <time>2021-07-05 15:05:46</time>
      </trkpt>
      <trkpt lat="28.1664" lon="-14.21409">
        <ele>31.2</ele>
        <time>2021-07-05 15:05:47</time>
      </trkpt>
      <trkpt lat="28.16637" lon="-14.21417">
        <ele>30.6</ele>
        <time>2021-07-05 15:05:48</time>
      </trkpt>
      <trkpt lat="28.16634" lon="-14.21423">
        <ele>30</ele>
        <time>2021-07-05 15:05:49</time>
      </trkpt>
      <trkpt lat="28.16631" lon="-14.2143">
        <ele>29.6</ele>
        <time>2021-07-05 15:05:50</time>
      </trkpt>
      <trkpt lat="28.16628" lon="-14.21436">
        <ele>29.4</ele>
        <time>2021-07-05 15:05:51</time>
      </trkpt>
      <trkpt lat="28.16626" lon="-14.21442">
        <ele>28.6</ele>
        <time>2021-07-05 15:05:52</time>
      </trkpt>
      <trkpt lat="28.16623" lon="-14.21448">
        <ele>28.6</ele>
        <time>2021-07-05 15:05:53</time>
      </trkpt>
      <trkpt lat="28.16622" lon="-14.21454">
        <ele>28.2</ele>
        <time>2021-07-05 15:05:54</time>
      </trkpt>
      <trkpt lat="28.16621" lon="-14.2146">
        <ele>27.2</ele>
        <time>2021-07-05 15:05:55</time>
      </trkpt>
      <trkpt lat="28.16622" lon="-14.21465">
        <ele>27.2</ele>
        <time>2021-07-05 15:05:56</time>
      </trkpt>
      <trkpt lat="28.16624" lon="-14.21469">
        <ele>26.8</ele>
        <time>2021-07-05 15:05:57</time>
      </trkpt>
      <trkpt lat="28.16626" lon="-14.21473">
        <ele>26.8</ele>
        <time>2021-07-05 15:05:58</time>
      </trkpt>
      <trkpt lat="28.1663" lon="-14.21474">
        <ele>26.8</ele>
        <time>2021-07-05 15:05:59</time>
      </trkpt>
      <trkpt lat="28.16632" lon="-14.21475">
        <ele>26.8</ele>
        <time>2021-07-05 15:06:00</time>
      </trkpt>
      <trkpt lat="28.16634" lon="-14.21474">
        <ele>26.8</ele>
        <time>2021-07-05 15:06:01</time>
      </trkpt>
      <trkpt lat="28.16636" lon="-14.21474">
        <ele>27</ele>
        <time>2021-07-05 15:06:02</time>
      </trkpt>
      <trkpt lat="28.16638" lon="-14.21473">
        <ele>27</ele>
        <time>2021-07-05 15:06:03</time>
      </trkpt>
      <trkpt lat="28.16641" lon="-14.21473">
        <ele>27.2</ele>
        <time>2021-07-05 15:06:04</time>
      </trkpt>
      <trkpt lat="28.16643" lon="-14.21473">
        <ele>27.2</ele>
        <time>2021-07-05 15:06:05</time>
      </trkpt>
      <trkpt lat="28.16645" lon="-14.21474">
        <ele>27.6</ele>
        <time>2021-07-05 15:06:06</time>
      </trkpt>
      <trkpt lat="28.16647" lon="-14.21475">
        <ele>27.6</ele>
        <time>2021-07-05 15:06:07</time>
      </trkpt>
      <trkpt lat="28.16649" lon="-14.21475">
        <ele>27.6</ele>
        <time>2021-07-05 15:06:08</time>
      </trkpt>
      <trkpt lat="28.16652" lon="-14.21476">
        <ele>27.6</ele>
        <time>2021-07-05 15:06:09</time>
      </trkpt>
      <trkpt lat="28.16654" lon="-14.21476">
        <ele>27.8</ele>
        <time>2021-07-05 15:06:10</time>
      </trkpt>
      <trkpt lat="28.16657" lon="-14.21477">
        <ele>27.8</ele>
        <time>2021-07-05 15:06:11</time>
      </trkpt>
      <trkpt lat="28.16659" lon="-14.21478">
        <ele>28.2</ele>
        <time>2021-07-05 15:06:12</time>
      </trkpt>
      <trkpt lat="28.16661" lon="-14.21478">
        <ele>28.2</ele>
        <time>2021-07-05 15:06:13</time>
      </trkpt>
      <trkpt lat="28.16663" lon="-14.21479">
        <ele>28.4</ele>
        <time>2021-07-05 15:06:14</time>
      </trkpt>
      <trkpt lat="28.16666" lon="-14.2148">
        <ele>28.8</ele>
        <time>2021-07-05 15:06:15</time>
      </trkpt>
      <trkpt lat="28.16668" lon="-14.2148">
        <ele>28.8</ele>
        <time>2021-07-05 15:06:16</time>
      </trkpt>
      <trkpt lat="28.1667" lon="-14.21482">
        <ele>29</ele>
        <time>2021-07-05 15:06:17</time>
      </trkpt>
      <trkpt lat="28.16672" lon="-14.21483">
        <ele>29</ele>
        <time>2021-07-05 15:06:18</time>
      </trkpt>
      <trkpt lat="28.16675" lon="-14.21484">
        <ele>29.4</ele>
        <time>2021-07-05 15:06:19</time>
      </trkpt>
      <trkpt lat="28.16677" lon="-14.21485">
        <ele>29.4</ele>
        <time>2021-07-05 15:06:20</time>
      </trkpt>
      <trkpt lat="28.16679" lon="-14.21486">
        <ele>29.8</ele>
        <time>2021-07-05 15:06:21</time>
      </trkpt>
      <trkpt lat="28.16681" lon="-14.21487">
        <ele>29.8</ele>
        <time>2021-07-05 15:06:22</time>
      </trkpt>
      <trkpt lat="28.16684" lon="-14.21488">
        <ele>30.2</ele>
        <time>2021-07-05 15:06:23</time>
      </trkpt>
      <trkpt lat="28.16686" lon="-14.21489">
        <ele>30.2</ele>
        <time>2021-07-05 15:06:24</time>
      </trkpt>
      <trkpt lat="28.16688" lon="-14.2149">
        <ele>30.8</ele>
        <time>2021-07-05 15:06:25</time>
      </trkpt>
      <trkpt lat="28.1669" lon="-14.21491">
        <ele>30.8</ele>
        <time>2021-07-05 15:06:26</time>
      </trkpt>
      <trkpt lat="28.16692" lon="-14.21492">
        <ele>31</ele>
        <time>2021-07-05 15:06:27</time>
      </trkpt>
      <trkpt lat="28.16694" lon="-14.21494">
        <ele>31.2</ele>
        <time>2021-07-05 15:06:28</time>
      </trkpt>
      <trkpt lat="28.16697" lon="-14.21496">
        <ele>31.2</ele>
        <time>2021-07-05 15:06:29</time>
      </trkpt>
      <trkpt lat="28.16699" lon="-14.21497">
        <ele>31.2</ele>
        <time>2021-07-05 15:06:30</time>
      </trkpt>
      <trkpt lat="28.16701" lon="-14.21499">
        <ele>31.2</ele>
        <time>2021-07-05 15:06:31</time>
      </trkpt>
      <trkpt lat="28.16703" lon="-14.21501">
        <ele>31.4</ele>
        <time>2021-07-05 15:06:32</time>
      </trkpt>
      <trkpt lat="28.16704" lon="-14.21503">
        <ele>31.4</ele>
        <time>2021-07-05 15:06:33</time>
      </trkpt>
      <trkpt lat="28.16706" lon="-14.21505">
        <ele>31.8</ele>
        <time>2021-07-05 15:06:34</time>
      </trkpt>
      <trkpt lat="28.16709" lon="-14.21507">
        <ele>31.8</ele>
        <time>2021-07-05 15:06:35</time>
      </trkpt>
      <trkpt lat="28.1671" lon="-14.21509">
        <ele>31.8</ele>
        <time>2021-07-05 15:06:36</time>
      </trkpt>
      <trkpt lat="28.16713" lon="-14.21511">
        <ele>32</ele>
        <time>2021-07-05 15:06:37</time>
      </trkpt>
      <trkpt lat="28.16715" lon="-14.21513">
        <ele>32</ele>
        <time>2021-07-05 15:06:38</time>
      </trkpt>
      <trkpt lat="28.16717" lon="-14.21516">
        <ele>32</ele>
        <time>2021-07-05 15:06:39</time>
      </trkpt>
      <trkpt lat="28.16719" lon="-14.21518">
        <ele>32</ele>
        <time>2021-07-05 15:06:40</time>
      </trkpt>
      <trkpt lat="28.16721" lon="-14.2152">
        <ele>32</ele>
        <time>2021-07-05 15:06:41</time>
      </trkpt>
      <trkpt lat="28.16723" lon="-14.21523">
        <ele>32.4</ele>
        <time>2021-07-05 15:06:42</time>
      </trkpt>
      <trkpt lat="28.16725" lon="-14.21525">
        <ele>32.4</ele>
        <time>2021-07-05 15:06:43</time>
      </trkpt>
      <trkpt lat="28.16727" lon="-14.21527">
        <ele>32.4</ele>
        <time>2021-07-05 15:06:44</time>
      </trkpt>
      <trkpt lat="28.16729" lon="-14.21529">
        <ele>32.6</ele>
        <time>2021-07-05 15:06:45</time>
      </trkpt>
      <trkpt lat="28.16731" lon="-14.21531">
        <ele>32.8</ele>
        <time>2021-07-05 15:06:46</time>
      </trkpt>
      <trkpt lat="28.16733" lon="-14.21533">
        <ele>32.8</ele>
        <time>2021-07-05 15:06:47</time>
      </trkpt>
      <trkpt lat="28.16735" lon="-14.21536">
        <ele>33</ele>
        <time>2021-07-05 15:06:48</time>
      </trkpt>
      <trkpt lat="28.16736" lon="-14.21538">
        <ele>33</ele>
        <time>2021-07-05 15:06:49</time>
      </trkpt>
      <trkpt lat="28.16738" lon="-14.2154">
        <ele>33</ele>
        <time>2021-07-05 15:06:50</time>
      </trkpt>
      <trkpt lat="28.1674" lon="-14.21542">
        <ele>33</ele>
        <time>2021-07-05 15:06:51</time>
      </trkpt>
      <trkpt lat="28.16742" lon="-14.21544">
        <ele>33</ele>
        <time>2021-07-05 15:06:52</time>
      </trkpt>
      <trkpt lat="28.16744" lon="-14.21545">
        <ele>33</ele>
        <time>2021-07-05 15:06:53</time>
      </trkpt>
      <trkpt lat="28.16745" lon="-14.21547">
        <ele>33</ele>
        <time>2021-07-05 15:06:54</time>
      </trkpt>
      <trkpt lat="28.16747" lon="-14.21549">
        <ele>33.4</ele>
        <time>2021-07-05 15:06:55</time>
      </trkpt>
      <trkpt lat="28.16749" lon="-14.21551">
        <ele>33.4</ele>
        <time>2021-07-05 15:06:56</time>
      </trkpt>
      <trkpt lat="28.16751" lon="-14.21553">
        <ele>33.6</ele>
        <time>2021-07-05 15:06:57</time>
      </trkpt>
      <trkpt lat="28.16752" lon="-14.21555">
        <ele>33.6</ele>
        <time>2021-07-05 15:06:58</time>
      </trkpt>
      <trkpt lat="28.16754" lon="-14.21558">
        <ele>34</ele>
        <time>2021-07-05 15:06:59</time>
      </trkpt>
      <trkpt lat="28.16756" lon="-14.2156">
        <ele>34.4</ele>
        <time>2021-07-05 15:07:00</time>
      </trkpt>
      <trkpt lat="28.16757" lon="-14.21563">
        <ele>34.4</ele>
        <time>2021-07-05 15:07:01</time>
      </trkpt>
      <trkpt lat="28.16759" lon="-14.21566">
        <ele>34.4</ele>
        <time>2021-07-05 15:07:02</time>
      </trkpt>
      <trkpt lat="28.16761" lon="-14.21569">
        <ele>33.6</ele>
        <time>2021-07-05 15:07:03</time>
      </trkpt>
      <trkpt lat="28.16762" lon="-14.21571">
        <ele>33.6</ele>
        <time>2021-07-05 15:07:04</time>
      </trkpt>
      <trkpt lat="28.16764" lon="-14.21573">
        <ele>33.2</ele>
        <time>2021-07-05 15:07:05</time>
      </trkpt>
      <trkpt lat="28.16766" lon="-14.21575">
        <ele>32.4</ele>
        <time>2021-07-05 15:07:06</time>
      </trkpt>
      <trkpt lat="28.16767" lon="-14.21577">
        <ele>32.4</ele>
        <time>2021-07-05 15:07:07</time>
      </trkpt>
      <trkpt lat="28.16769" lon="-14.2158">
        <ele>32.4</ele>
        <time>2021-07-05 15:07:08</time>
      </trkpt>
      <trkpt lat="28.1677" lon="-14.21582">
        <ele>32.6</ele>
        <time>2021-07-05 15:07:09</time>
      </trkpt>
      <trkpt lat="28.16771" lon="-14.21585">
        <ele>32.6</ele>
        <time>2021-07-05 15:07:10</time>
      </trkpt>
      <trkpt lat="28.16772" lon="-14.21589">
        <ele>32.6</ele>
        <time>2021-07-05 15:07:11</time>
      </trkpt>
      <trkpt lat="28.16774" lon="-14.21594">
        <ele>32.6</ele>
        <time>2021-07-05 15:07:12</time>
      </trkpt>
      <trkpt lat="28.16774" lon="-14.216">
        <ele>32.2</ele>
        <time>2021-07-05 15:07:13</time>
      </trkpt>
      <trkpt lat="28.16775" lon="-14.21607">
        <ele>32.2</ele>
        <time>2021-07-05 15:07:14</time>
      </trkpt>
      <trkpt lat="28.16775" lon="-14.21615">
        <ele>31.8</ele>
        <time>2021-07-05 15:07:15</time>
      </trkpt>
      <trkpt lat="28.16775" lon="-14.21623">
        <ele>31.2</ele>
        <time>2021-07-05 15:07:16</time>
      </trkpt>
      <trkpt lat="28.16775" lon="-14.21632">
        <ele>30.4</ele>
        <time>2021-07-05 15:07:17</time>
      </trkpt>
      <trkpt lat="28.16774" lon="-14.21642">
        <ele>29.6</ele>
        <time>2021-07-05 15:07:18</time>
      </trkpt>
      <trkpt lat="28.16773" lon="-14.21651">
        <ele>29</ele>
        <time>2021-07-05 15:07:19</time>
      </trkpt>
      <trkpt lat="28.16773" lon="-14.21661">
        <ele>28.2</ele>
        <time>2021-07-05 15:07:20</time>
      </trkpt>
      <trkpt lat="28.16772" lon="-14.21669">
        <ele>27.4</ele>
        <time>2021-07-05 15:07:21</time>
      </trkpt>
      <trkpt lat="28.16772" lon="-14.21677">
        <ele>26.6</ele>
        <time>2021-07-05 15:07:22</time>
      </trkpt>
      <trkpt lat="28.16771" lon="-14.21685">
        <ele>26</ele>
        <time>2021-07-05 15:07:23</time>
      </trkpt>
      <trkpt lat="28.1677" lon="-14.21692">
        <ele>25.4</ele>
        <time>2021-07-05 15:07:24</time>
      </trkpt>
      <trkpt lat="28.16768" lon="-14.21699">
        <ele>24.6</ele>
        <time>2021-07-05 15:07:25</time>
      </trkpt>
      <trkpt lat="28.16768" lon="-14.21705">
        <ele>24.4</ele>
        <time>2021-07-05 15:07:26</time>
      </trkpt>
      <trkpt lat="28.16767" lon="-14.21712">
        <ele>24.4</ele>
        <time>2021-07-05 15:07:27</time>
      </trkpt>
      <trkpt lat="28.16767" lon="-14.21718">
        <ele>24.4</ele>
        <time>2021-07-05 15:07:28</time>
      </trkpt>
      <trkpt lat="28.16766" lon="-14.21723">
        <ele>24</ele>
        <time>2021-07-05 15:07:29</time>
      </trkpt>
      <trkpt lat="28.16766" lon="-14.21728">
        <ele>24</ele>
        <time>2021-07-05 15:07:30</time>
      </trkpt>
      <trkpt lat="28.16766" lon="-14.21733">
        <ele>24</ele>
        <time>2021-07-05 15:07:31</time>
      </trkpt>
      <trkpt lat="28.16766" lon="-14.21738">
        <ele>24</ele>
        <time>2021-07-05 15:07:32</time>
      </trkpt>
      <trkpt lat="28.16765" lon="-14.21744">
        <ele>24</ele>
        <time>2021-07-05 15:07:33</time>
      </trkpt>
      <trkpt lat="28.16765" lon="-14.21749">
        <ele>24</ele>
        <time>2021-07-05 15:07:34</time>
      </trkpt>
      <trkpt lat="28.16764" lon="-14.21754">
        <ele>24.4</ele>
        <time>2021-07-05 15:07:35</time>
      </trkpt>
      <trkpt lat="28.16763" lon="-14.21759">
        <ele>24.4</ele>
        <time>2021-07-05 15:07:36</time>
      </trkpt>
      <trkpt lat="28.16763" lon="-14.21764">
        <ele>24.6</ele>
        <time>2021-07-05 15:07:37</time>
      </trkpt>
      <trkpt lat="28.16763" lon="-14.21769">
        <ele>24.6</ele>
        <time>2021-07-05 15:07:38</time>
      </trkpt>
      <trkpt lat="28.16762" lon="-14.21774">
        <ele>24.6</ele>
        <time>2021-07-05 15:07:39</time>
      </trkpt>
      <trkpt lat="28.16762" lon="-14.21779">
        <ele>24.6</ele>
        <time>2021-07-05 15:07:40</time>
      </trkpt>
      <trkpt lat="28.16761" lon="-14.21784">
        <ele>24.6</ele>
        <time>2021-07-05 15:07:41</time>
      </trkpt>
      <trkpt lat="28.16761" lon="-14.21789">
        <ele>24.4</ele>
        <time>2021-07-05 15:07:42</time>
      </trkpt>
      <trkpt lat="28.16761" lon="-14.21794">
        <ele>24.4</ele>
        <time>2021-07-05 15:07:43</time>
      </trkpt>
      <trkpt lat="28.16761" lon="-14.21799">
        <ele>24.4</ele>
        <time>2021-07-05 15:07:44</time>
      </trkpt>
      <trkpt lat="28.1676" lon="-14.21804">
        <ele>24.2</ele>
        <time>2021-07-05 15:07:45</time>
      </trkpt>
      <trkpt lat="28.1676" lon="-14.21809">
        <ele>24.2</ele>
        <time>2021-07-05 15:07:46</time>
      </trkpt>
      <trkpt lat="28.16759" lon="-14.21814">
        <ele>24.2</ele>
        <time>2021-07-05 15:07:47</time>
      </trkpt>
      <trkpt lat="28.16759" lon="-14.21818">
        <ele>24.4</ele>
        <time>2021-07-05 15:07:48</time>
      </trkpt>
      <trkpt lat="28.16758" lon="-14.21823">
        <ele>24.4</ele>
        <time>2021-07-05 15:07:49</time>
      </trkpt>
      <trkpt lat="28.16757" lon="-14.21828">
        <ele>24.4</ele>
        <time>2021-07-05 15:07:50</time>
      </trkpt>
      <trkpt lat="28.16757" lon="-14.21833">
        <ele>24.4</ele>
        <time>2021-07-05 15:07:51</time>
      </trkpt>
      <trkpt lat="28.16756" lon="-14.21838">
        <ele>24.4</ele>
        <time>2021-07-05 15:07:52</time>
      </trkpt>
      <trkpt lat="28.16755" lon="-14.21843">
        <ele>24.4</ele>
        <time>2021-07-05 15:07:53</time>
      </trkpt>
      <trkpt lat="28.16755" lon="-14.21848">
        <ele>24.4</ele>
        <time>2021-07-05 15:07:54</time>
      </trkpt>
      <trkpt lat="28.16755" lon="-14.21853">
        <ele>24</ele>
        <time>2021-07-05 15:07:55</time>
      </trkpt>
      <trkpt lat="28.16755" lon="-14.21858">
        <ele>24</ele>
        <time>2021-07-05 15:07:56</time>
      </trkpt>
      <trkpt lat="28.16754" lon="-14.21863">
        <ele>23.8</ele>
        <time>2021-07-05 15:07:57</time>
      </trkpt>
      <trkpt lat="28.16754" lon="-14.21869">
        <ele>23.6</ele>
        <time>2021-07-05 15:07:58</time>
      </trkpt>
      <trkpt lat="28.16753" lon="-14.21875">
        <ele>23.6</ele>
        <time>2021-07-05 15:07:59</time>
      </trkpt>
      <trkpt lat="28.16752" lon="-14.21881">
        <ele>23.6</ele>
        <time>2021-07-05 15:08:00</time>
      </trkpt>
      <trkpt lat="28.16751" lon="-14.21888">
        <ele>23.2</ele>
        <time>2021-07-05 15:08:01</time>
      </trkpt>
      <trkpt lat="28.1675" lon="-14.21894">
        <ele>22.8</ele>
        <time>2021-07-05 15:08:02</time>
      </trkpt>
      <trkpt lat="28.16747" lon="-14.21901">
        <ele>22.8</ele>
        <time>2021-07-05 15:08:03</time>
      </trkpt>
      <trkpt lat="28.16744" lon="-14.21908">
        <ele>22.2</ele>
        <time>2021-07-05 15:08:04</time>
      </trkpt>
      <trkpt lat="28.1674" lon="-14.21915">
        <ele>22.2</ele>
        <time>2021-07-05 15:08:05</time>
      </trkpt>
      <trkpt lat="28.16737" lon="-14.21922">
        <ele>21.8</ele>
        <time>2021-07-05 15:08:06</time>
      </trkpt>
      <trkpt lat="28.16734" lon="-14.21929">
        <ele>21.8</ele>
        <time>2021-07-05 15:08:07</time>
      </trkpt>
      <trkpt lat="28.1673" lon="-14.21935">
        <ele>21.4</ele>
        <time>2021-07-05 15:08:08</time>
      </trkpt>
      <trkpt lat="28.16726" lon="-14.21941">
        <ele>21.2</ele>
        <time>2021-07-05 15:08:09</time>
      </trkpt>
      <trkpt lat="28.16723" lon="-14.21946">
        <ele>20.8</ele>
        <time>2021-07-05 15:08:10</time>
      </trkpt>
      <trkpt lat="28.1672" lon="-14.21952">
        <ele>20</ele>
        <time>2021-07-05 15:08:11</time>
      </trkpt>
      <trkpt lat="28.16717" lon="-14.21957">
        <ele>20</ele>
        <time>2021-07-05 15:08:12</time>
      </trkpt>
      <trkpt lat="28.16714" lon="-14.21962">
        <ele>19</ele>
        <time>2021-07-05 15:08:13</time>
      </trkpt>
      <trkpt lat="28.16714" lon="-14.21967">
        <ele>18.6</ele>
        <time>2021-07-05 15:08:14</time>
      </trkpt>
      <trkpt lat="28.16714" lon="-14.21973">
        <ele>18.2</ele>
        <time>2021-07-05 15:08:15</time>
      </trkpt>
      <trkpt lat="28.16714" lon="-14.21978">
        <ele>17.8</ele>
        <time>2021-07-05 15:08:16</time>
      </trkpt>
      <trkpt lat="28.16716" lon="-14.21984">
        <ele>17.8</ele>
        <time>2021-07-05 15:08:17</time>
      </trkpt>
      <trkpt lat="28.16717" lon="-14.21989">
        <ele>17.2</ele>
        <time>2021-07-05 15:08:18</time>
      </trkpt>
      <trkpt lat="28.16719" lon="-14.21993">
        <ele>17.2</ele>
        <time>2021-07-05 15:08:19</time>
      </trkpt>
      <trkpt lat="28.16721" lon="-14.21998">
        <ele>17</ele>
        <time>2021-07-05 15:08:20</time>
      </trkpt>
      <trkpt lat="28.16723" lon="-14.22003">
        <ele>17</ele>
        <time>2021-07-05 15:08:21</time>
      </trkpt>
      <trkpt lat="28.16724" lon="-14.22008">
        <ele>16.8</ele>
        <time>2021-07-05 15:08:22</time>
      </trkpt>
      <trkpt lat="28.16725" lon="-14.22013">
        <ele>16.8</ele>
        <time>2021-07-05 15:08:23</time>
      </trkpt>
      <trkpt lat="28.16726" lon="-14.22018">
        <ele>16.8</ele>
        <time>2021-07-05 15:08:24</time>
      </trkpt>
      <trkpt lat="28.16726" lon="-14.22024">
        <ele>16.8</ele>
        <time>2021-07-05 15:08:25</time>
      </trkpt>
      <trkpt lat="28.16727" lon="-14.22029">
        <ele>16.8</ele>
        <time>2021-07-05 15:08:26</time>
      </trkpt>
      <trkpt lat="28.16726" lon="-14.22034">
        <ele>16.8</ele>
        <time>2021-07-05 15:08:27</time>
      </trkpt>
      <trkpt lat="28.16726" lon="-14.22039">
        <ele>16.8</ele>
        <time>2021-07-05 15:08:28</time>
      </trkpt>
      <trkpt lat="28.16726" lon="-14.22045">
        <ele>16.8</ele>
        <time>2021-07-05 15:08:29</time>
      </trkpt>
      <trkpt lat="28.16725" lon="-14.2205">
        <ele>16.8</ele>
        <time>2021-07-05 15:08:30</time>
      </trkpt>
      <trkpt lat="28.16726" lon="-14.22056">
        <ele>16.6</ele>
        <time>2021-07-05 15:08:31</time>
      </trkpt>
      <trkpt lat="28.16726" lon="-14.22062">
        <ele>16.6</ele>
        <time>2021-07-05 15:08:32</time>
      </trkpt>
      <trkpt lat="28.16726" lon="-14.22067">
        <ele>16.6</ele>
        <time>2021-07-05 15:08:33</time>
      </trkpt>
      <trkpt lat="28.16726" lon="-14.22072">
        <ele>16.6</ele>
        <time>2021-07-05 15:08:34</time>
      </trkpt>
      <trkpt lat="28.16726" lon="-14.22078">
        <ele>16.6</ele>
        <time>2021-07-05 15:08:35</time>
      </trkpt>
      <trkpt lat="28.16727" lon="-14.22083">
        <ele>16.6</ele>
        <time>2021-07-05 15:08:36</time>
      </trkpt>
      <trkpt lat="28.16729" lon="-14.22089">
        <ele>16.6</ele>
        <time>2021-07-05 15:08:37</time>
      </trkpt>
      <trkpt lat="28.1673" lon="-14.22094">
        <ele>16.4</ele>
        <time>2021-07-05 15:08:38</time>
      </trkpt>
      <trkpt lat="28.16729" lon="-14.22098">
        <ele>16.4</ele>
        <time>2021-07-05 15:08:39</time>
      </trkpt>
      <trkpt lat="28.16728" lon="-14.22102">
        <ele>16.4</ele>
        <time>2021-07-05 15:08:40</time>
      </trkpt>
      <trkpt lat="28.16726" lon="-14.22106">
        <ele>16.6</ele>
        <time>2021-07-05 15:08:41</time>
      </trkpt>
      <trkpt lat="28.16723" lon="-14.22109">
        <ele>16.6</ele>
        <time>2021-07-05 15:08:42</time>
      </trkpt>
      <trkpt lat="28.1672" lon="-14.22112">
        <ele>16.6</ele>
        <time>2021-07-05 15:08:43</time>
      </trkpt>
      <trkpt lat="28.16717" lon="-14.22116">
        <ele>16.6</ele>
        <time>2021-07-05 15:08:44</time>
      </trkpt>
      <trkpt lat="28.16715" lon="-14.2212">
        <ele>16.6</ele>
        <time>2021-07-05 15:08:45</time>
      </trkpt>
      <trkpt lat="28.16713" lon="-14.22124">
        <ele>16.6</ele>
        <time>2021-07-05 15:08:46</time>
      </trkpt>
      <trkpt lat="28.16711" lon="-14.22128">
        <ele>16.6</ele>
        <time>2021-07-05 15:08:47</time>
      </trkpt>
      <trkpt lat="28.16708" lon="-14.22132">
        <ele>16.6</ele>
        <time>2021-07-05 15:08:48</time>
      </trkpt>
      <trkpt lat="28.16706" lon="-14.22136">
        <ele>16.6</ele>
        <time>2021-07-05 15:08:49</time>
      </trkpt>
      <trkpt lat="28.16703" lon="-14.2214">
        <ele>16.6</ele>
        <time>2021-07-05 15:08:50</time>
      </trkpt>
      <trkpt lat="28.16701" lon="-14.22144">
        <ele>16.6</ele>
        <time>2021-07-05 15:08:51</time>
      </trkpt>
      <trkpt lat="28.16698" lon="-14.22148">
        <ele>16.6</ele>
        <time>2021-07-05 15:08:52</time>
      </trkpt>
      <trkpt lat="28.16696" lon="-14.22152">
        <ele>16.8</ele>
        <time>2021-07-05 15:08:53</time>
      </trkpt>
      <trkpt lat="28.16694" lon="-14.22155">
        <ele>17</ele>
        <time>2021-07-05 15:08:54</time>
      </trkpt>
      <trkpt lat="28.16692" lon="-14.22158">
        <ele>17</ele>
        <time>2021-07-05 15:08:55</time>
      </trkpt>
      <trkpt lat="28.1669" lon="-14.22162">
        <ele>17</ele>
        <time>2021-07-05 15:08:56</time>
      </trkpt>
      <trkpt lat="28.16687" lon="-14.22165">
        <ele>17</ele>
        <time>2021-07-05 15:08:57</time>
      </trkpt>
      <trkpt lat="28.16684" lon="-14.22168">
        <ele>17</ele>
        <time>2021-07-05 15:08:58</time>
      </trkpt>
      <trkpt lat="28.16681" lon="-14.22171">
        <ele>17</ele>
        <time>2021-07-05 15:08:59</time>
      </trkpt>
      <trkpt lat="28.16678" lon="-14.22174">
        <ele>17</ele>
        <time>2021-07-05 15:09:00</time>
      </trkpt>
      <trkpt lat="28.16675" lon="-14.22177">
        <ele>17</ele>
        <time>2021-07-05 15:09:01</time>
      </trkpt>
      <trkpt lat="28.16671" lon="-14.2218">
        <ele>17</ele>
        <time>2021-07-05 15:09:02</time>
      </trkpt>
      <trkpt lat="28.16668" lon="-14.22183">
        <ele>17</ele>
        <time>2021-07-05 15:09:03</time>
      </trkpt>
      <trkpt lat="28.16665" lon="-14.22186">
        <ele>17</ele>
        <time>2021-07-05 15:09:04</time>
      </trkpt>
      <trkpt lat="28.16662" lon="-14.22189">
        <ele>17</ele>
        <time>2021-07-05 15:09:05</time>
      </trkpt>
      <trkpt lat="28.16659" lon="-14.22192">
        <ele>17</ele>
        <time>2021-07-05 15:09:06</time>
      </trkpt>
      <trkpt lat="28.16656" lon="-14.22195">
        <ele>17</ele>
        <time>2021-07-05 15:09:07</time>
      </trkpt>
      <trkpt lat="28.16653" lon="-14.22197">
        <ele>17.4</ele>
        <time>2021-07-05 15:09:08</time>
      </trkpt>
      <trkpt lat="28.1665" lon="-14.222">
        <ele>17.6</ele>
        <time>2021-07-05 15:09:09</time>
      </trkpt>
      <trkpt lat="28.16647" lon="-14.22202">
        <ele>17.6</ele>
        <time>2021-07-05 15:09:10</time>
      </trkpt>
      <trkpt lat="28.16644" lon="-14.22205">
        <ele>17.8</ele>
        <time>2021-07-05 15:09:11</time>
      </trkpt>
      <trkpt lat="28.16641" lon="-14.22207">
        <ele>17.8</ele>
        <time>2021-07-05 15:09:12</time>
      </trkpt>
      <trkpt lat="28.16638" lon="-14.22209">
        <ele>17.6</ele>
        <time>2021-07-05 15:09:13</time>
      </trkpt>
      <trkpt lat="28.16635" lon="-14.22212">
        <ele>17.6</ele>
        <time>2021-07-05 15:09:14</time>
      </trkpt>
      <trkpt lat="28.16632" lon="-14.22214">
        <ele>17.6</ele>
        <time>2021-07-05 15:09:15</time>
      </trkpt>
      <trkpt lat="28.16629" lon="-14.22217">
        <ele>17.6</ele>
        <time>2021-07-05 15:09:16</time>
      </trkpt>
      <trkpt lat="28.16626" lon="-14.22219">
        <ele>17.6</ele>
        <time>2021-07-05 15:09:17</time>
      </trkpt>
      <trkpt lat="28.16624" lon="-14.22222">
        <ele>17.6</ele>
        <time>2021-07-05 15:09:18</time>
      </trkpt>
      <trkpt lat="28.16621" lon="-14.22225">
        <ele>17.8</ele>
        <time>2021-07-05 15:09:19</time>
      </trkpt>
      <trkpt lat="28.16618" lon="-14.22227">
        <ele>18.2</ele>
        <time>2021-07-05 15:09:20</time>
      </trkpt>
      <trkpt lat="28.16615" lon="-14.22229">
        <ele>18.4</ele>
        <time>2021-07-05 15:09:21</time>
      </trkpt>
      <trkpt lat="28.16613" lon="-14.22231">
        <ele>18.8</ele>
        <time>2021-07-05 15:09:22</time>
      </trkpt>
      <trkpt lat="28.1661" lon="-14.22234">
        <ele>18.8</ele>
        <time>2021-07-05 15:09:23</time>
      </trkpt>
      <trkpt lat="28.16608" lon="-14.22236">
        <ele>19</ele>
        <time>2021-07-05 15:09:24</time>
      </trkpt>
      <trkpt lat="28.16605" lon="-14.22239">
        <ele>19</ele>
        <time>2021-07-05 15:09:25</time>
      </trkpt>
      <trkpt lat="28.16603" lon="-14.22241">
        <ele>19.2</ele>
        <time>2021-07-05 15:09:26</time>
      </trkpt>
      <trkpt lat="28.166" lon="-14.22244">
        <ele>19.2</ele>
        <time>2021-07-05 15:09:27</time>
      </trkpt>
      <trkpt lat="28.16598" lon="-14.22245">
        <ele>19.6</ele>
        <time>2021-07-05 15:09:28</time>
      </trkpt>
      <trkpt lat="28.16596" lon="-14.22247">
        <ele>19.6</ele>
        <time>2021-07-05 15:09:29</time>
      </trkpt>
      <trkpt lat="28.16594" lon="-14.22249">
        <ele>19.6</ele>
        <time>2021-07-05 15:09:30</time>
      </trkpt>
      <trkpt lat="28.16591" lon="-14.22252">
        <ele>19.6</ele>
        <time>2021-07-05 15:09:31</time>
      </trkpt>
      <trkpt lat="28.16589" lon="-14.22254">
        <ele>19.8</ele>
        <time>2021-07-05 15:09:32</time>
      </trkpt>
      <trkpt lat="28.16587" lon="-14.22256">
        <ele>20</ele>
        <time>2021-07-05 15:09:33</time>
      </trkpt>
      <trkpt lat="28.16585" lon="-14.22257">
        <ele>20</ele>
        <time>2021-07-05 15:09:34</time>
      </trkpt>
      <trkpt lat="28.16583" lon="-14.22259">
        <ele>20.2</ele>
        <time>2021-07-05 15:09:35</time>
      </trkpt>
      <trkpt lat="28.16581" lon="-14.22262">
        <ele>20.4</ele>
        <time>2021-07-05 15:09:36</time>
      </trkpt>
      <trkpt lat="28.16579" lon="-14.22264">
        <ele>21</ele>
        <time>2021-07-05 15:09:37</time>
      </trkpt>
      <trkpt lat="28.16577" lon="-14.22266">
        <ele>21.2</ele>
        <time>2021-07-05 15:09:38</time>
      </trkpt>
      <trkpt lat="28.16575" lon="-14.22268">
        <ele>21.2</ele>
        <time>2021-07-05 15:09:39</time>
      </trkpt>
      <trkpt lat="28.16572" lon="-14.2227">
        <ele>21.2</ele>
        <time>2021-07-05 15:09:40</time>
      </trkpt>
      <trkpt lat="28.1657" lon="-14.22272">
        <ele>21.6</ele>
        <time>2021-07-05 15:09:41</time>
      </trkpt>
      <trkpt lat="28.16568" lon="-14.22274">
        <ele>21.8</ele>
        <time>2021-07-05 15:09:42</time>
      </trkpt>
      <trkpt lat="28.16567" lon="-14.22276">
        <ele>22.2</ele>
        <time>2021-07-05 15:09:43</time>
      </trkpt>
      <trkpt lat="28.16565" lon="-14.22278">
        <ele>22.4</ele>
        <time>2021-07-05 15:09:44</time>
      </trkpt>
      <trkpt lat="28.16562" lon="-14.2228">
        <ele>22.6</ele>
        <time>2021-07-05 15:09:45</time>
      </trkpt>
      <trkpt lat="28.1656" lon="-14.22281">
        <ele>23</ele>
        <time>2021-07-05 15:09:46</time>
      </trkpt>
      <trkpt lat="28.16559" lon="-14.22283">
        <ele>23.2</ele>
        <time>2021-07-05 15:09:47</time>
      </trkpt>
      <trkpt lat="28.16557" lon="-14.22286">
        <ele>23.2</ele>
        <time>2021-07-05 15:09:48</time>
      </trkpt>
      <trkpt lat="28.16555" lon="-14.22288">
        <ele>23.6</ele>
        <time>2021-07-05 15:09:49</time>
      </trkpt>
      <trkpt lat="28.16554" lon="-14.2229">
        <ele>23.8</ele>
        <time>2021-07-05 15:09:50</time>
      </trkpt>
      <trkpt lat="28.16552" lon="-14.22292">
        <ele>24.2</ele>
        <time>2021-07-05 15:09:51</time>
      </trkpt>
      <trkpt lat="28.16551" lon="-14.22294">
        <ele>24.4</ele>
        <time>2021-07-05 15:09:52</time>
      </trkpt>
      <trkpt lat="28.16549" lon="-14.22296">
        <ele>24.6</ele>
        <time>2021-07-05 15:09:53</time>
      </trkpt>
      <trkpt lat="28.16547" lon="-14.22298">
        <ele>25</ele>
        <time>2021-07-05 15:09:54</time>
      </trkpt>
      <trkpt lat="28.16545" lon="-14.223">
        <ele>25.6</ele>
        <time>2021-07-05 15:09:55</time>
      </trkpt>
      <trkpt lat="28.16544" lon="-14.22302">
        <ele>25.6</ele>
        <time>2021-07-05 15:09:56</time>
      </trkpt>
      <trkpt lat="28.16542" lon="-14.22303">
        <ele>26</ele>
        <time>2021-07-05 15:09:57</time>
      </trkpt>
      <trkpt lat="28.1654" lon="-14.22305">
        <ele>26</ele>
        <time>2021-07-05 15:09:58</time>
      </trkpt>
      <trkpt lat="28.16539" lon="-14.22307">
        <ele>26.6</ele>
        <time>2021-07-05 15:09:59</time>
      </trkpt>
      <trkpt lat="28.16537" lon="-14.2231">
        <ele>26.6</ele>
        <time>2021-07-05 15:10:00</time>
      </trkpt>
      <trkpt lat="28.16535" lon="-14.22312">
        <ele>26.8</ele>
        <time>2021-07-05 15:10:01</time>
      </trkpt>
      <trkpt lat="28.16533" lon="-14.22314">
        <ele>27.2</ele>
        <time>2021-07-05 15:10:02</time>
      </trkpt>
      <trkpt lat="28.16532" lon="-14.22316">
        <ele>28</ele>
        <time>2021-07-05 15:10:03</time>
      </trkpt>
      <trkpt lat="28.1653" lon="-14.22318">
        <ele>28.2</ele>
        <time>2021-07-05 15:10:04</time>
      </trkpt>
      <trkpt lat="28.16528" lon="-14.22321">
        <ele>28.2</ele>
        <time>2021-07-05 15:10:05</time>
      </trkpt>
      <trkpt lat="28.16526" lon="-14.22323">
        <ele>28.6</ele>
        <time>2021-07-05 15:10:06</time>
      </trkpt>
      <trkpt lat="28.16524" lon="-14.22326">
        <ele>29.4</ele>
        <time>2021-07-05 15:10:07</time>
      </trkpt>
      <trkpt lat="28.16523" lon="-14.22328">
        <ele>29.4</ele>
        <time>2021-07-05 15:10:08</time>
      </trkpt>
      <trkpt lat="28.16521" lon="-14.22331">
        <ele>30.2</ele>
        <time>2021-07-05 15:10:09</time>
      </trkpt>
      <trkpt lat="28.1652" lon="-14.22333">
        <ele>30.2</ele>
        <time>2021-07-05 15:10:10</time>
      </trkpt>
      <trkpt lat="28.16518" lon="-14.22335">
        <ele>30.8</ele>
        <time>2021-07-05 15:10:11</time>
      </trkpt>
      <trkpt lat="28.16516" lon="-14.22338">
        <ele>30.8</ele>
        <time>2021-07-05 15:10:12</time>
      </trkpt>
      <trkpt lat="28.16514" lon="-14.2234">
        <ele>31.4</ele>
        <time>2021-07-05 15:10:13</time>
      </trkpt>
      <trkpt lat="28.16512" lon="-14.22343">
        <ele>31.4</ele>
        <time>2021-07-05 15:10:14</time>
      </trkpt>
      <trkpt lat="28.1651" lon="-14.22345">
        <ele>31.4</ele>
        <time>2021-07-05 15:10:15</time>
      </trkpt>
      <trkpt lat="28.16509" lon="-14.22347">
        <ele>31.6</ele>
        <time>2021-07-05 15:10:16</time>
      </trkpt>
      <trkpt lat="28.16506" lon="-14.2235">
        <ele>31.6</ele>
        <time>2021-07-05 15:10:17</time>
      </trkpt>
      <trkpt lat="28.16504" lon="-14.22352">
        <ele>32</ele>
        <time>2021-07-05 15:10:18</time>
      </trkpt>
      <trkpt lat="28.16502" lon="-14.22355">
        <ele>32</ele>
        <time>2021-07-05 15:10:19</time>
      </trkpt>
      <trkpt lat="28.165" lon="-14.22357">
        <ele>32.4</ele>
        <time>2021-07-05 15:10:20</time>
      </trkpt>
      <trkpt lat="28.16498" lon="-14.2236">
        <ele>32.4</ele>
        <time>2021-07-05 15:10:21</time>
      </trkpt>
      <trkpt lat="28.16496" lon="-14.22363">
        <ele>32.4</ele>
        <time>2021-07-05 15:10:22</time>
      </trkpt>
      <trkpt lat="28.16494" lon="-14.22366">
        <ele>32.4</ele>
        <time>2021-07-05 15:10:23</time>
      </trkpt>
      <trkpt lat="28.16492" lon="-14.22369">
        <ele>32.6</ele>
        <time>2021-07-05 15:10:24</time>
      </trkpt>
      <trkpt lat="28.1649" lon="-14.22372">
        <ele>32.6</ele>
        <time>2021-07-05 15:10:25</time>
      </trkpt>
      <trkpt lat="28.16487" lon="-14.22375">
        <ele>32.6</ele>
        <time>2021-07-05 15:10:26</time>
      </trkpt>
      <trkpt lat="28.16485" lon="-14.22377">
        <ele>32.8</ele>
        <time>2021-07-05 15:10:27</time>
      </trkpt>
      <trkpt lat="28.16483" lon="-14.22381">
        <ele>32.8</ele>
        <time>2021-07-05 15:10:28</time>
      </trkpt>
      <trkpt lat="28.16481" lon="-14.22384">
        <ele>32.8</ele>
        <time>2021-07-05 15:10:29</time>
      </trkpt>
      <trkpt lat="28.16479" lon="-14.22387">
        <ele>32.8</ele>
        <time>2021-07-05 15:10:30</time>
      </trkpt>
      <trkpt lat="28.16476" lon="-14.2239">
        <ele>32.8</ele>
        <time>2021-07-05 15:10:31</time>
      </trkpt>
      <trkpt lat="28.16474" lon="-14.22393">
        <ele>32.8</ele>
        <time>2021-07-05 15:10:32</time>
      </trkpt>
      <trkpt lat="28.16472" lon="-14.22396">
        <ele>32.8</ele>
        <time>2021-07-05 15:10:33</time>
      </trkpt>
      <trkpt lat="28.1647" lon="-14.22399">
        <ele>32.8</ele>
        <time>2021-07-05 15:10:34</time>
      </trkpt>
      <trkpt lat="28.16469" lon="-14.22401">
        <ele>32.8</ele>
        <time>2021-07-05 15:10:35</time>
      </trkpt>
      <trkpt lat="28.16468" lon="-14.22404">
        <ele>32.8</ele>
        <time>2021-07-05 15:10:36</time>
      </trkpt>
      <trkpt lat="28.16467" lon="-14.22406">
        <ele>33</ele>
        <time>2021-07-05 15:10:37</time>
      </trkpt>
      <trkpt lat="28.16465" lon="-14.22408">
        <ele>33</ele>
        <time>2021-07-05 15:10:38</time>
      </trkpt>
      <trkpt lat="28.16463" lon="-14.22411">
        <ele>33</ele>
        <time>2021-07-05 15:10:39</time>
      </trkpt>
      <trkpt lat="28.16461" lon="-14.22413">
        <ele>33.2</ele>
        <time>2021-07-05 15:10:40</time>
      </trkpt>
      <trkpt lat="28.1646" lon="-14.22415">
        <ele>33.2</ele>
        <time>2021-07-05 15:10:41</time>
      </trkpt>
      <trkpt lat="28.16459" lon="-14.22417">
        <ele>33.2</ele>
        <time>2021-07-05 15:10:42</time>
      </trkpt>
      <trkpt lat="28.16457" lon="-14.22419">
        <ele>33.2</ele>
        <time>2021-07-05 15:10:43</time>
      </trkpt>
      <trkpt lat="28.16456" lon="-14.22421">
        <ele>33.2</ele>
        <time>2021-07-05 15:10:44</time>
      </trkpt>
      <trkpt lat="28.16455" lon="-14.22422">
        <ele>33.2</ele>
        <time>2021-07-05 15:10:45</time>
      </trkpt>
      <trkpt lat="28.16454" lon="-14.22424">
        <ele>33.2</ele>
        <time>2021-07-05 15:10:46</time>
      </trkpt>
      <trkpt lat="28.16453" lon="-14.22425">
        <ele>33.2</ele>
        <time>2021-07-05 15:10:47</time>
      </trkpt>
      <trkpt lat="28.16452" lon="-14.22426">
        <ele>33.2</ele>
        <time>2021-07-05 15:10:48</time>
      </trkpt>
      <trkpt lat="28.16452" lon="-14.22428">
        <ele>33.2</ele>
        <time>2021-07-05 15:10:49</time>
      </trkpt>
      <trkpt lat="28.16451" lon="-14.22429">
        <ele>33.2</ele>
        <time>2021-07-05 15:10:50</time>
      </trkpt>
      <trkpt lat="28.1645" lon="-14.2243">
        <ele>33.2</ele>
        <time>2021-07-05 15:10:51</time>
      </trkpt>
      <trkpt lat="28.1645" lon="-14.22431">
        <ele>33.2</ele>
        <time>2021-07-05 15:10:52</time>
      </trkpt>
      <trkpt lat="28.1645" lon="-14.22431">
        <ele>33.4</ele>
        <time>2021-07-05 15:10:53</time>
      </trkpt>
      <trkpt lat="28.1645" lon="-14.22431">
        <ele>33.4</ele>
        <time>2021-07-05 15:10:54</time>
      </trkpt>
      <trkpt lat="28.1645" lon="-14.22431">
        <ele>33.4</ele>
        <time>2021-07-05 15:10:55</time>
      </trkpt>
      <trkpt lat="28.16448" lon="-14.22431">
        <ele>33.6</ele>
        <time>2021-07-05 15:10:56</time>
      </trkpt>
      <trkpt lat="28.16447" lon="-14.2243">
        <ele>33.6</ele>
        <time>2021-07-05 15:10:57</time>
      </trkpt>
      <trkpt lat="28.16446" lon="-14.22428">
        <ele>33.6</ele>
        <time>2021-07-05 15:11:06</time>
      </trkpt>
      <trkpt lat="28.16446" lon="-14.22425">
        <ele>33.4</ele>
        <time>2021-07-05 15:11:07</time>
      </trkpt>
      <trkpt lat="28.16447" lon="-14.22423">
        <ele>33.4</ele>
        <time>2021-07-05 15:11:08</time>
      </trkpt>
      <trkpt lat="28.16448" lon="-14.22421">
        <ele>33.4</ele>
        <time>2021-07-05 15:11:09</time>
      </trkpt>
      <trkpt lat="28.1645" lon="-14.22419">
        <ele>33.4</ele>
        <time>2021-07-05 15:11:10</time>
      </trkpt>
      <trkpt lat="28.16451" lon="-14.22418">
        <ele>33.2</ele>
        <time>2021-07-05 15:11:11</time>
      </trkpt>
      <trkpt lat="28.16452" lon="-14.22416">
        <ele>33.2</ele>
        <time>2021-07-05 15:11:12</time>
      </trkpt>
      <trkpt lat="28.16454" lon="-14.22415">
        <ele>33.2</ele>
        <time>2021-07-05 15:11:13</time>
      </trkpt>
      <trkpt lat="28.16455" lon="-14.22413">
        <ele>33.2</ele>
        <time>2021-07-05 15:11:14</time>
      </trkpt>
      <trkpt lat="28.16457" lon="-14.2241">
        <ele>33.4</ele>
        <time>2021-07-05 15:11:15</time>
      </trkpt>
      <trkpt lat="28.16457" lon="-14.22409">
        <ele>33.4</ele>
        <time>2021-07-05 15:11:16</time>
      </trkpt>
      <trkpt lat="28.16457" lon="-14.22408">
        <ele>33.8</ele>
        <time>2021-07-05 15:11:17</time>
      </trkpt>
      <trkpt lat="28.16457" lon="-14.22407">
        <ele>33.8</ele>
        <time>2021-07-05 15:11:18</time>
      </trkpt>
      <trkpt lat="28.16458" lon="-14.22406">
        <ele>34</ele>
        <time>2021-07-05 15:11:19</time>
      </trkpt>
      <trkpt lat="28.16458" lon="-14.22405">
        <ele>34</ele>
        <time>2021-07-05 15:11:20</time>
      </trkpt>
      <trkpt lat="28.16458" lon="-14.22404">
        <ele>34</ele>
        <time>2021-07-05 15:11:21</time>
      </trkpt>
      <trkpt lat="28.16458" lon="-14.22404">
        <ele>34.4</ele>
        <time>2021-07-05 15:11:22</time>
      </trkpt>
      <trkpt lat="28.16458" lon="-14.22404">
        <ele>34.4</ele>
        <time>2021-07-05 15:11:23</time>
      </trkpt>
      <trkpt lat="28.16458" lon="-14.22406">
        <ele>35.2</ele>
        <time>2021-07-05 15:11:24</time>
      </trkpt>
      <trkpt lat="28.16458" lon="-14.22406">
        <ele>35.2</ele>
        <time>2021-07-05 15:11:25</time>
      </trkpt>
      <trkpt lat="28.16457" lon="-14.22407">
        <ele>35.2</ele>
        <time>2021-07-05 15:13:45</time>
      </trkpt>
      <trkpt lat="28.16456" lon="-14.22408">
        <ele>35.2</ele>
        <time>2021-07-05 15:13:46</time>
      </trkpt>
      <trkpt lat="28.16455" lon="-14.22409">
        <ele>35</ele>
        <time>2021-07-05 15:13:47</time>
      </trkpt>
      <trkpt lat="28.16454" lon="-14.2241">
        <ele>35</ele>
        <time>2021-07-05 15:13:48</time>
      </trkpt>
      <trkpt lat="28.16454" lon="-14.2241">
        <ele>35</ele>
        <time>2021-07-05 15:13:49</time>
      </trkpt>
      <trkpt lat="28.16454" lon="-14.22411">
        <ele>35</ele>
        <time>2021-07-05 15:13:50</time>
      </trkpt>
      <trkpt lat="28.16454" lon="-14.22413">
        <ele>35</ele>
        <time>2021-07-05 15:13:51</time>
      </trkpt>
      <trkpt lat="28.16455" lon="-14.22415">
        <ele>34.8</ele>
        <time>2021-07-05 15:13:52</time>
      </trkpt>
      <trkpt lat="28.16457" lon="-14.22416">
        <ele>34.4</ele>
        <time>2021-07-05 15:13:53</time>
      </trkpt>
      <trkpt lat="28.16458" lon="-14.22417">
        <ele>34.2</ele>
        <time>2021-07-05 15:13:54</time>
      </trkpt>
      <trkpt lat="28.1646" lon="-14.22418">
        <ele>34</ele>
        <time>2021-07-05 15:13:55</time>
      </trkpt>
      <trkpt lat="28.16461" lon="-14.22419">
        <ele>34</ele>
        <time>2021-07-05 15:13:56</time>
      </trkpt>
      <trkpt lat="28.16462" lon="-14.2242">
        <ele>34</ele>
        <time>2021-07-05 15:13:57</time>
      </trkpt>
      <trkpt lat="28.16464" lon="-14.22421">
        <ele>34.2</ele>
        <time>2021-07-05 15:13:58</time>
      </trkpt>
      <trkpt lat="28.16465" lon="-14.22423">
        <ele>34.2</ele>
        <time>2021-07-05 15:13:59</time>
      </trkpt>
      <trkpt lat="28.16465" lon="-14.22424">
        <ele>34.6</ele>
        <time>2021-07-05 15:14:00</time>
      </trkpt>
      <trkpt lat="28.16466" lon="-14.22426">
        <ele>34.8</ele>
        <time>2021-07-05 15:14:01</time>
      </trkpt>
      <trkpt lat="28.16466" lon="-14.22427">
        <ele>35</ele>
        <time>2021-07-05 15:14:02</time>
      </trkpt>
      <trkpt lat="28.16467" lon="-14.22429">
        <ele>35</ele>
        <time>2021-07-05 15:14:03</time>
      </trkpt>
      <trkpt lat="28.16467" lon="-14.2243">
        <ele>35</ele>
        <time>2021-07-05 15:14:04</time>
      </trkpt>
      <trkpt lat="28.16468" lon="-14.22432">
        <ele>35</ele>
        <time>2021-07-05 15:14:05</time>
      </trkpt>
      <trkpt lat="28.16469" lon="-14.22433">
        <ele>35.2</ele>
        <time>2021-07-05 15:14:06</time>
      </trkpt>
      <trkpt lat="28.16469" lon="-14.22434">
        <ele>35.2</ele>
        <time>2021-07-05 15:14:07</time>
      </trkpt>
      <trkpt lat="28.1647" lon="-14.22435">
        <ele>35.6</ele>
        <time>2021-07-05 15:14:08</time>
      </trkpt>
      <trkpt lat="28.16471" lon="-14.22437">
        <ele>35.6</ele>
        <time>2021-07-05 15:14:09</time>
      </trkpt>
      <trkpt lat="28.16472" lon="-14.22439">
        <ele>35.6</ele>
        <time>2021-07-05 15:14:10</time>
      </trkpt>
      <trkpt lat="28.16472" lon="-14.22441">
        <ele>35.6</ele>
        <time>2021-07-05 15:14:11</time>
      </trkpt>
      <trkpt lat="28.16472" lon="-14.22443">
        <ele>35.6</ele>
        <time>2021-07-05 15:14:12</time>
      </trkpt>
      <trkpt lat="28.16471" lon="-14.22444">
        <ele>35.6</ele>
        <time>2021-07-05 15:14:13</time>
      </trkpt>
      <trkpt lat="28.16471" lon="-14.22446">
        <ele>35.4</ele>
        <time>2021-07-05 15:14:14</time>
      </trkpt>
      <trkpt lat="28.16472" lon="-14.22447">
        <ele>35</ele>
        <time>2021-07-05 15:14:15</time>
      </trkpt>
      <trkpt lat="28.16472" lon="-14.22448">
        <ele>34.8</ele>
        <time>2021-07-05 15:14:16</time>
      </trkpt>
      <trkpt lat="28.16474" lon="-14.22449">
        <ele>34.6</ele>
        <time>2021-07-05 15:14:17</time>
      </trkpt>
      <trkpt lat="28.16475" lon="-14.22451">
        <ele>34.6</ele>
        <time>2021-07-05 15:14:18</time>
      </trkpt>
      <trkpt lat="28.16476" lon="-14.22452">
        <ele>34.4</ele>
        <time>2021-07-05 15:14:19</time>
      </trkpt>
      <trkpt lat="28.16477" lon="-14.22453">
        <ele>34.4</ele>
        <time>2021-07-05 15:14:20</time>
      </trkpt>
      <trkpt lat="28.16479" lon="-14.22454">
        <ele>34.4</ele>
        <time>2021-07-05 15:14:21</time>
      </trkpt>
      <trkpt lat="28.1648" lon="-14.22456">
        <ele>34.4</ele>
        <time>2021-07-05 15:14:22</time>
      </trkpt>
      <trkpt lat="28.16481" lon="-14.22457">
        <ele>34.4</ele>
        <time>2021-07-05 15:14:23</time>
      </trkpt>
      <trkpt lat="28.16482" lon="-14.22458">
        <ele>34.6</ele>
        <time>2021-07-05 15:14:24</time>
      </trkpt>
      <trkpt lat="28.16483" lon="-14.22459">
        <ele>35</ele>
        <time>2021-07-05 15:14:25</time>
      </trkpt>
      <trkpt lat="28.16484" lon="-14.2246">
        <ele>35</ele>
        <time>2021-07-05 15:14:26</time>
      </trkpt>
      <trkpt lat="28.16485" lon="-14.22461">
        <ele>35.4</ele>
        <time>2021-07-05 15:14:27</time>
      </trkpt>
      <trkpt lat="28.16487" lon="-14.22462">
        <ele>35.4</ele>
        <time>2021-07-05 15:14:28</time>
      </trkpt>
      <trkpt lat="28.16488" lon="-14.22462">
        <ele>35.4</ele>
        <time>2021-07-05 15:14:29</time>
      </trkpt>
      <trkpt lat="28.16489" lon="-14.22463">
        <ele>35.6</ele>
        <time>2021-07-05 15:14:30</time>
      </trkpt>
      <trkpt lat="28.16489" lon="-14.22464">
        <ele>35.8</ele>
        <time>2021-07-05 15:14:31</time>
      </trkpt>
      <trkpt lat="28.16489" lon="-14.22465">
        <ele>35.8</ele>
        <time>2021-07-05 15:14:32</time>
      </trkpt>
      <trkpt lat="28.1649" lon="-14.22465">
        <ele>35.8</ele>
        <time>2021-07-05 15:14:33</time>
      </trkpt>
      <trkpt lat="28.1649" lon="-14.22465">
        <ele>35.8</ele>
        <time>2021-07-05 15:14:34</time>
      </trkpt>
      <trkpt lat="28.1649" lon="-14.22465">
        <ele>36</ele>
        <time>2021-07-05 15:14:35</time>
      </trkpt>
      <trkpt lat="28.16491" lon="-14.22466">
        <ele>36</ele>
        <time>2021-07-05 15:14:36</time>
      </trkpt>
      <trkpt lat="28.16491" lon="-14.22468">
        <ele>36</ele>
        <time>2021-07-05 15:14:37</time>
      </trkpt>
      <trkpt lat="28.16491" lon="-14.2247">
        <ele>36</ele>
        <time>2021-07-05 15:14:38</time>
      </trkpt>
      <trkpt lat="28.1649" lon="-14.22472">
        <ele>35.8</ele>
        <time>2021-07-05 15:14:39</time>
      </trkpt>
      <trkpt lat="28.16488" lon="-14.22474">
        <ele>35.8</ele>
        <time>2021-07-05 15:14:40</time>
      </trkpt>
      <trkpt lat="28.16486" lon="-14.22476">
        <ele>35.6</ele>
        <time>2021-07-05 15:14:41</time>
      </trkpt>
      <trkpt lat="28.16483" lon="-14.22479">
        <ele>35.6</ele>
        <time>2021-07-05 15:14:42</time>
      </trkpt>
      <trkpt lat="28.16481" lon="-14.22482">
        <ele>35.6</ele>
        <time>2021-07-05 15:14:43</time>
      </trkpt>
      <trkpt lat="28.16479" lon="-14.22485">
        <ele>36</ele>
        <time>2021-07-05 15:14:44</time>
      </trkpt>
      <trkpt lat="28.16477" lon="-14.22488">
        <ele>36</ele>
        <time>2021-07-05 15:14:45</time>
      </trkpt>
      <trkpt lat="28.16475" lon="-14.22491">
        <ele>36.2</ele>
        <time>2021-07-05 15:14:46</time>
      </trkpt>
      <trkpt lat="28.16472" lon="-14.22494">
        <ele>36.4</ele>
        <time>2021-07-05 15:14:47</time>
      </trkpt>
      <trkpt lat="28.1647" lon="-14.22497">
        <ele>36.4</ele>
        <time>2021-07-05 15:14:48</time>
      </trkpt>
      <trkpt lat="28.16467" lon="-14.22501">
        <ele>36.4</ele>
        <time>2021-07-05 15:14:49</time>
      </trkpt>
      <trkpt lat="28.16465" lon="-14.22504">
        <ele>36.6</ele>
        <time>2021-07-05 15:14:50</time>
      </trkpt>
      <trkpt lat="28.16463" lon="-14.22507">
        <ele>36.6</ele>
        <time>2021-07-05 15:14:51</time>
      </trkpt>
      <trkpt lat="28.1646" lon="-14.2251">
        <ele>36.8</ele>
        <time>2021-07-05 15:14:52</time>
      </trkpt>
      <trkpt lat="28.16458" lon="-14.22513">
        <ele>36.8</ele>
        <time>2021-07-05 15:14:53</time>
      </trkpt>
      <trkpt lat="28.16455" lon="-14.22517">
        <ele>36.8</ele>
        <time>2021-07-05 15:14:54</time>
      </trkpt>
      <trkpt lat="28.16453" lon="-14.2252">
        <ele>37</ele>
        <time>2021-07-05 15:14:55</time>
      </trkpt>
      <trkpt lat="28.1645" lon="-14.22523">
        <ele>37</ele>
        <time>2021-07-05 15:14:56</time>
      </trkpt>
      <trkpt lat="28.16448" lon="-14.22527">
        <ele>37</ele>
        <time>2021-07-05 15:14:57</time>
      </trkpt>
      <trkpt lat="28.16445" lon="-14.2253">
        <ele>37</ele>
        <time>2021-07-05 15:14:58</time>
      </trkpt>
      <trkpt lat="28.16443" lon="-14.22534">
        <ele>37.2</ele>
        <time>2021-07-05 15:14:59</time>
      </trkpt>
      <trkpt lat="28.1644" lon="-14.22537">
        <ele>37.2</ele>
        <time>2021-07-05 15:15:00</time>
      </trkpt>
      <trkpt lat="28.16438" lon="-14.22541">
        <ele>37.6</ele>
        <time>2021-07-05 15:15:01</time>
      </trkpt>
      <trkpt lat="28.16436" lon="-14.22545">
        <ele>37.6</ele>
        <time>2021-07-05 15:15:02</time>
      </trkpt>
      <trkpt lat="28.16433" lon="-14.22548">
        <ele>37.6</ele>
        <time>2021-07-05 15:15:03</time>
      </trkpt>
      <trkpt lat="28.16431" lon="-14.22552">
        <ele>37.8</ele>
        <time>2021-07-05 15:15:04</time>
      </trkpt>
      <trkpt lat="28.16428" lon="-14.22555">
        <ele>37.8</ele>
        <time>2021-07-05 15:15:05</time>
      </trkpt>
      <trkpt lat="28.16425" lon="-14.22559">
        <ele>38.2</ele>
        <time>2021-07-05 15:15:06</time>
      </trkpt>
      <trkpt lat="28.16422" lon="-14.22562">
        <ele>38.2</ele>
        <time>2021-07-05 15:15:07</time>
      </trkpt>
      <trkpt lat="28.1642" lon="-14.22566">
        <ele>38.2</ele>
        <time>2021-07-05 15:15:08</time>
      </trkpt>
      <trkpt lat="28.16416" lon="-14.22569">
        <ele>38.2</ele>
        <time>2021-07-05 15:15:09</time>
      </trkpt>
      <trkpt lat="28.16414" lon="-14.22573">
        <ele>38.2</ele>
        <time>2021-07-05 15:15:10</time>
      </trkpt>
      <trkpt lat="28.16411" lon="-14.22577">
        <ele>38.2</ele>
        <time>2021-07-05 15:15:11</time>
      </trkpt>
      <trkpt lat="28.16409" lon="-14.2258">
        <ele>38.4</ele>
        <time>2021-07-05 15:15:12</time>
      </trkpt>
      <trkpt lat="28.16406" lon="-14.22584">
        <ele>38.4</ele>
        <time>2021-07-05 15:15:13</time>
      </trkpt>
      <trkpt lat="28.16404" lon="-14.22588">
        <ele>38.4</ele>
        <time>2021-07-05 15:15:14</time>
      </trkpt>
      <trkpt lat="28.16401" lon="-14.22591">
        <ele>38.4</ele>
        <time>2021-07-05 15:15:15</time>
      </trkpt>
      <trkpt lat="28.16398" lon="-14.22595">
        <ele>38.8</ele>
        <time>2021-07-05 15:15:16</time>
      </trkpt>
      <trkpt lat="28.16396" lon="-14.22599">
        <ele>39</ele>
        <time>2021-07-05 15:15:17</time>
      </trkpt>
      <trkpt lat="28.16393" lon="-14.22603">
        <ele>39</ele>
        <time>2021-07-05 15:15:18</time>
      </trkpt>
      <trkpt lat="28.1639" lon="-14.22607">
        <ele>39</ele>
        <time>2021-07-05 15:15:19</time>
      </trkpt>
      <trkpt lat="28.16388" lon="-14.2261">
        <ele>39.2</ele>
        <time>2021-07-05 15:15:20</time>
      </trkpt>
      <trkpt lat="28.16385" lon="-14.22614">
        <ele>39.2</ele>
        <time>2021-07-05 15:15:21</time>
      </trkpt>
      <trkpt lat="28.16382" lon="-14.22618">
        <ele>39.2</ele>
        <time>2021-07-05 15:15:22</time>
      </trkpt>
      <trkpt lat="28.16379" lon="-14.22622">
        <ele>39.2</ele>
        <time>2021-07-05 15:15:23</time>
      </trkpt>
      <trkpt lat="28.16377" lon="-14.22625">
        <ele>39.6</ele>
        <time>2021-07-05 15:15:24</time>
      </trkpt>
      <trkpt lat="28.16375" lon="-14.22628">
        <ele>39.6</ele>
        <time>2021-07-05 15:15:25</time>
      </trkpt>
      <trkpt lat="28.16372" lon="-14.22632">
        <ele>39.6</ele>
        <time>2021-07-05 15:15:26</time>
      </trkpt>
      <trkpt lat="28.16369" lon="-14.22635">
        <ele>39.6</ele>
        <time>2021-07-05 15:15:27</time>
      </trkpt>
      <trkpt lat="28.16367" lon="-14.22639">
        <ele>39.6</ele>
        <time>2021-07-05 15:15:28</time>
      </trkpt>
      <trkpt lat="28.16364" lon="-14.22643">
        <ele>39.6</ele>
        <time>2021-07-05 15:15:29</time>
      </trkpt>
      <trkpt lat="28.16362" lon="-14.22646">
        <ele>39.8</ele>
        <time>2021-07-05 15:15:30</time>
      </trkpt>
      <trkpt lat="28.16359" lon="-14.22649">
        <ele>39.8</ele>
        <time>2021-07-05 15:15:31</time>
      </trkpt>
      <trkpt lat="28.16356" lon="-14.22652">
        <ele>39.8</ele>
        <time>2021-07-05 15:15:32</time>
      </trkpt>
      <trkpt lat="28.16354" lon="-14.22656">
        <ele>39.8</ele>
        <time>2021-07-05 15:15:33</time>
      </trkpt>
      <trkpt lat="28.16351" lon="-14.22659">
        <ele>39.8</ele>
        <time>2021-07-05 15:15:34</time>
      </trkpt>
      <trkpt lat="28.16349" lon="-14.22662">
        <ele>39.8</ele>
        <time>2021-07-05 15:15:35</time>
      </trkpt>
      <trkpt lat="28.16347" lon="-14.22666">
        <ele>39.8</ele>
        <time>2021-07-05 15:15:36</time>
      </trkpt>
      <trkpt lat="28.16344" lon="-14.2267">
        <ele>39.4</ele>
        <time>2021-07-05 15:15:37</time>
      </trkpt>
      <trkpt lat="28.16341" lon="-14.22673">
        <ele>39.4</ele>
        <time>2021-07-05 15:15:38</time>
      </trkpt>
      <trkpt lat="28.16338" lon="-14.22677">
        <ele>39.2</ele>
        <time>2021-07-05 15:15:39</time>
      </trkpt>
      <trkpt lat="28.16335" lon="-14.22681">
        <ele>39.2</ele>
        <time>2021-07-05 15:15:40</time>
      </trkpt>
      <trkpt lat="28.16333" lon="-14.22684">
        <ele>39.2</ele>
        <time>2021-07-05 15:15:41</time>
      </trkpt>
      <trkpt lat="28.1633" lon="-14.22688">
        <ele>39.2</ele>
        <time>2021-07-05 15:15:42</time>
      </trkpt>
      <trkpt lat="28.16327" lon="-14.22693">
        <ele>39.2</ele>
        <time>2021-07-05 15:15:43</time>
      </trkpt>
      <trkpt lat="28.16324" lon="-14.22697">
        <ele>39.2</ele>
        <time>2021-07-05 15:15:44</time>
      </trkpt>
      <trkpt lat="28.16321" lon="-14.22702">
        <ele>39.2</ele>
        <time>2021-07-05 15:15:45</time>
      </trkpt>
      <trkpt lat="28.16319" lon="-14.22706">
        <ele>39.2</ele>
        <time>2021-07-05 15:15:46</time>
      </trkpt>
      <trkpt lat="28.16316" lon="-14.2271">
        <ele>39.2</ele>
        <time>2021-07-05 15:15:47</time>
      </trkpt>
      <trkpt lat="28.16312" lon="-14.22714">
        <ele>39.2</ele>
        <time>2021-07-05 15:15:48</time>
      </trkpt>
      <trkpt lat="28.16309" lon="-14.22719">
        <ele>39</ele>
        <time>2021-07-05 15:15:49</time>
      </trkpt>
      <trkpt lat="28.16306" lon="-14.22723">
        <ele>39</ele>
        <time>2021-07-05 15:15:50</time>
      </trkpt>
      <trkpt lat="28.16303" lon="-14.22727">
        <ele>39</ele>
        <time>2021-07-05 15:15:51</time>
      </trkpt>
      <trkpt lat="28.163" lon="-14.22731">
        <ele>39</ele>
        <time>2021-07-05 15:15:52</time>
      </trkpt>
      <trkpt lat="28.16297" lon="-14.22736">
        <ele>38.8</ele>
        <time>2021-07-05 15:15:53</time>
      </trkpt>
      <trkpt lat="28.16295" lon="-14.22741">
        <ele>38.8</ele>
        <time>2021-07-05 15:15:54</time>
      </trkpt>
      <trkpt lat="28.16291" lon="-14.22745">
        <ele>38.8</ele>
        <time>2021-07-05 15:15:55</time>
      </trkpt>
      <trkpt lat="28.16288" lon="-14.22749">
        <ele>38.8</ele>
        <time>2021-07-05 15:15:56</time>
      </trkpt>
      <trkpt lat="28.16285" lon="-14.22754">
        <ele>38.8</ele>
        <time>2021-07-05 15:15:57</time>
      </trkpt>
      <trkpt lat="28.16281" lon="-14.22759">
        <ele>38.8</ele>
        <time>2021-07-05 15:15:58</time>
      </trkpt>
      <trkpt lat="28.16278" lon="-14.22763">
        <ele>38.8</ele>
        <time>2021-07-05 15:15:59</time>
      </trkpt>
      <trkpt lat="28.16275" lon="-14.22768">
        <ele>38.8</ele>
        <time>2021-07-05 15:16:00</time>
      </trkpt>
      <trkpt lat="28.16272" lon="-14.22773">
        <ele>38.8</ele>
        <time>2021-07-05 15:16:01</time>
      </trkpt>
      <trkpt lat="28.16269" lon="-14.22778">
        <ele>38.8</ele>
        <time>2021-07-05 15:16:02</time>
      </trkpt>
      <trkpt lat="28.16266" lon="-14.22783">
        <ele>38.8</ele>
        <time>2021-07-05 15:16:03</time>
      </trkpt>
      <trkpt lat="28.16264" lon="-14.22787">
        <ele>38.8</ele>
        <time>2021-07-05 15:16:04</time>
      </trkpt>
      <trkpt lat="28.16261" lon="-14.22792">
        <ele>38.8</ele>
        <time>2021-07-05 15:16:05</time>
      </trkpt>
      <trkpt lat="28.16257" lon="-14.22797">
        <ele>38.8</ele>
        <time>2021-07-05 15:16:06</time>
      </trkpt>
      <trkpt lat="28.16255" lon="-14.22801">
        <ele>38.8</ele>
        <time>2021-07-05 15:16:07</time>
      </trkpt>
      <trkpt lat="28.16252" lon="-14.22806">
        <ele>39</ele>
        <time>2021-07-05 15:16:08</time>
      </trkpt>
      <trkpt lat="28.16249" lon="-14.2281">
        <ele>39</ele>
        <time>2021-07-05 15:16:09</time>
      </trkpt>
      <trkpt lat="28.16246" lon="-14.22815">
        <ele>39</ele>
        <time>2021-07-05 15:16:10</time>
      </trkpt>
      <trkpt lat="28.16244" lon="-14.22819">
        <ele>39</ele>
        <time>2021-07-05 15:16:11</time>
      </trkpt>
      <trkpt lat="28.16241" lon="-14.22824">
        <ele>39.2</ele>
        <time>2021-07-05 15:16:12</time>
      </trkpt>
      <trkpt lat="28.16239" lon="-14.22829">
        <ele>39.2</ele>
        <time>2021-07-05 15:16:13</time>
      </trkpt>
      <trkpt lat="28.16236" lon="-14.22833">
        <ele>39.2</ele>
        <time>2021-07-05 15:16:14</time>
      </trkpt>
      <trkpt lat="28.16233" lon="-14.22837">
        <ele>39.2</ele>
        <time>2021-07-05 15:16:15</time>
      </trkpt>
      <trkpt lat="28.16232" lon="-14.22841">
        <ele>39.2</ele>
        <time>2021-07-05 15:16:16</time>
      </trkpt>
      <trkpt lat="28.16229" lon="-14.22845">
        <ele>39.2</ele>
        <time>2021-07-05 15:16:17</time>
      </trkpt>
      <trkpt lat="28.16227" lon="-14.2285">
        <ele>39.2</ele>
        <time>2021-07-05 15:16:18</time>
      </trkpt>
      <trkpt lat="28.16225" lon="-14.22854">
        <ele>39.2</ele>
        <time>2021-07-05 15:16:19</time>
      </trkpt>
      <trkpt lat="28.16222" lon="-14.22858">
        <ele>39.2</ele>
        <time>2021-07-05 15:16:20</time>
      </trkpt>
      <trkpt lat="28.1622" lon="-14.22862">
        <ele>39.2</ele>
        <time>2021-07-05 15:16:21</time>
      </trkpt>
      <trkpt lat="28.16217" lon="-14.22867">
        <ele>39.2</ele>
        <time>2021-07-05 15:16:22</time>
      </trkpt>
      <trkpt lat="28.16214" lon="-14.22871">
        <ele>39.2</ele>
        <time>2021-07-05 15:16:23</time>
      </trkpt>
      <trkpt lat="28.16212" lon="-14.22876">
        <ele>39.2</ele>
        <time>2021-07-05 15:16:24</time>
      </trkpt>
      <trkpt lat="28.16209" lon="-14.22881">
        <ele>39.2</ele>
        <time>2021-07-05 15:16:25</time>
      </trkpt>
      <trkpt lat="28.16207" lon="-14.22885">
        <ele>39.2</ele>
        <time>2021-07-05 15:16:26</time>
      </trkpt>
      <trkpt lat="28.16204" lon="-14.22889">
        <ele>39.2</ele>
        <time>2021-07-05 15:16:27</time>
      </trkpt>
      <trkpt lat="28.16201" lon="-14.22894">
        <ele>39.2</ele>
        <time>2021-07-05 15:16:28</time>
      </trkpt>
      <trkpt lat="28.16199" lon="-14.22899">
        <ele>39.2</ele>
        <time>2021-07-05 15:16:29</time>
      </trkpt>
      <trkpt lat="28.16197" lon="-14.22903">
        <ele>39.2</ele>
        <time>2021-07-05 15:16:30</time>
      </trkpt>
      <trkpt lat="28.16195" lon="-14.22908">
        <ele>39</ele>
        <time>2021-07-05 15:16:31</time>
      </trkpt>
      <trkpt lat="28.16192" lon="-14.22912">
        <ele>39</ele>
        <time>2021-07-05 15:16:32</time>
      </trkpt>
      <trkpt lat="28.1619" lon="-14.22916">
        <ele>39</ele>
        <time>2021-07-05 15:16:33</time>
      </trkpt>
      <trkpt lat="28.16187" lon="-14.22921">
        <ele>39</ele>
        <time>2021-07-05 15:16:34</time>
      </trkpt>
      <trkpt lat="28.16185" lon="-14.22925">
        <ele>38.8</ele>
        <time>2021-07-05 15:16:35</time>
      </trkpt>
      <trkpt lat="28.16183" lon="-14.22929">
        <ele>38.8</ele>
        <time>2021-07-05 15:16:36</time>
      </trkpt>
      <trkpt lat="28.16181" lon="-14.22934">
        <ele>38.8</ele>
        <time>2021-07-05 15:16:37</time>
      </trkpt>
      <trkpt lat="28.16178" lon="-14.22938">
        <ele>38.8</ele>
        <time>2021-07-05 15:16:38</time>
      </trkpt>
      <trkpt lat="28.16175" lon="-14.22942">
        <ele>38.8</ele>
        <time>2021-07-05 15:16:39</time>
      </trkpt>
      <trkpt lat="28.16173" lon="-14.22946">
        <ele>38.8</ele>
        <time>2021-07-05 15:16:40</time>
      </trkpt>
      <trkpt lat="28.1617" lon="-14.22949">
        <ele>38.8</ele>
        <time>2021-07-05 15:16:41</time>
      </trkpt>
      <trkpt lat="28.16169" lon="-14.22952">
        <ele>38.8</ele>
        <time>2021-07-05 15:16:42</time>
      </trkpt>
      <trkpt lat="28.16166" lon="-14.22955">
        <ele>38.8</ele>
        <time>2021-07-05 15:16:43</time>
      </trkpt>
      <trkpt lat="28.16164" lon="-14.22958">
        <ele>38.8</ele>
        <time>2021-07-05 15:16:44</time>
      </trkpt>
      <trkpt lat="28.16162" lon="-14.22962">
        <ele>38.8</ele>
        <time>2021-07-05 15:16:45</time>
      </trkpt>
      <trkpt lat="28.1616" lon="-14.22965">
        <ele>39</ele>
        <time>2021-07-05 15:16:46</time>
      </trkpt>
      <trkpt lat="28.16157" lon="-14.22968">
        <ele>39</ele>
        <time>2021-07-05 15:16:47</time>
      </trkpt>
      <trkpt lat="28.16155" lon="-14.22971">
        <ele>39</ele>
        <time>2021-07-05 15:16:48</time>
      </trkpt>
      <trkpt lat="28.16153" lon="-14.22974">
        <ele>39</ele>
        <time>2021-07-05 15:16:49</time>
      </trkpt>
      <trkpt lat="28.16151" lon="-14.22976">
        <ele>39</ele>
        <time>2021-07-05 15:16:50</time>
      </trkpt>
      <trkpt lat="28.16149" lon="-14.22979">
        <ele>39</ele>
        <time>2021-07-05 15:16:51</time>
      </trkpt>
      <trkpt lat="28.16146" lon="-14.22981">
        <ele>39</ele>
        <time>2021-07-05 15:16:52</time>
      </trkpt>
      <trkpt lat="28.16145" lon="-14.22984">
        <ele>39</ele>
        <time>2021-07-05 15:16:53</time>
      </trkpt>
      <trkpt lat="28.16142" lon="-14.22986">
        <ele>39.2</ele>
        <time>2021-07-05 15:16:54</time>
      </trkpt>
      <trkpt lat="28.1614" lon="-14.22988">
        <ele>39.6</ele>
        <time>2021-07-05 15:16:55</time>
      </trkpt>
      <trkpt lat="28.16138" lon="-14.2299">
        <ele>39.6</ele>
        <time>2021-07-05 15:16:56</time>
      </trkpt>
      <trkpt lat="28.16136" lon="-14.22993">
        <ele>40</ele>
        <time>2021-07-05 15:16:57</time>
      </trkpt>
      <trkpt lat="28.16134" lon="-14.22995">
        <ele>40</ele>
        <time>2021-07-05 15:16:58</time>
      </trkpt>
      <trkpt lat="28.16132" lon="-14.22997">
        <ele>40</ele>
        <time>2021-07-05 15:16:59</time>
      </trkpt>
      <trkpt lat="28.1613" lon="-14.22999">
        <ele>40</ele>
        <time>2021-07-05 15:17:00</time>
      </trkpt>
      <trkpt lat="28.16128" lon="-14.23">
        <ele>40</ele>
        <time>2021-07-05 15:17:01</time>
      </trkpt>
      <trkpt lat="28.16126" lon="-14.23002">
        <ele>40</ele>
        <time>2021-07-05 15:17:02</time>
      </trkpt>
      <trkpt lat="28.16124" lon="-14.23004">
        <ele>40</ele>
        <time>2021-07-05 15:17:03</time>
      </trkpt>
      <trkpt lat="28.16122" lon="-14.23005">
        <ele>40</ele>
        <time>2021-07-05 15:17:04</time>
      </trkpt>
      <trkpt lat="28.16119" lon="-14.23007">
        <ele>40</ele>
        <time>2021-07-05 15:17:05</time>
      </trkpt>
      <trkpt lat="28.16116" lon="-14.2301">
        <ele>40</ele>
        <time>2021-07-05 15:17:06</time>
      </trkpt>
      <trkpt lat="28.16113" lon="-14.23012">
        <ele>40</ele>
        <time>2021-07-05 15:17:07</time>
      </trkpt>
      <trkpt lat="28.1611" lon="-14.23014">
        <ele>39.8</ele>
        <time>2021-07-05 15:17:08</time>
      </trkpt>
      <trkpt lat="28.16108" lon="-14.23016">
        <ele>39.8</ele>
        <time>2021-07-05 15:17:09</time>
      </trkpt>
      <trkpt lat="28.16105" lon="-14.23019">
        <ele>40</ele>
        <time>2021-07-05 15:17:10</time>
      </trkpt>
      <trkpt lat="28.16102" lon="-14.23021">
        <ele>40.2</ele>
        <time>2021-07-05 15:17:11</time>
      </trkpt>
      <trkpt lat="28.16099" lon="-14.23023">
        <ele>40.2</ele>
        <time>2021-07-05 15:17:12</time>
      </trkpt>
      <trkpt lat="28.16097" lon="-14.23026">
        <ele>40.4</ele>
        <time>2021-07-05 15:17:13</time>
      </trkpt>
      <trkpt lat="28.16094" lon="-14.23028">
        <ele>40.4</ele>
        <time>2021-07-05 15:17:14</time>
      </trkpt>
      <trkpt lat="28.16091" lon="-14.23031">
        <ele>40.4</ele>
        <time>2021-07-05 15:17:15</time>
      </trkpt>
      <trkpt lat="28.16088" lon="-14.23033">
        <ele>40.8</ele>
        <time>2021-07-05 15:17:16</time>
      </trkpt>
      <trkpt lat="28.16085" lon="-14.23035">
        <ele>40.8</ele>
        <time>2021-07-05 15:17:17</time>
      </trkpt>
      <trkpt lat="28.16083" lon="-14.23038">
        <ele>41</ele>
        <time>2021-07-05 15:17:18</time>
      </trkpt>
      <trkpt lat="28.1608" lon="-14.2304">
        <ele>41.4</ele>
        <time>2021-07-05 15:17:19</time>
      </trkpt>
      <trkpt lat="28.16077" lon="-14.23043">
        <ele>41.4</ele>
        <time>2021-07-05 15:17:20</time>
      </trkpt>
      <trkpt lat="28.16074" lon="-14.23045">
        <ele>41.4</ele>
        <time>2021-07-05 15:17:21</time>
      </trkpt>
      <trkpt lat="28.16071" lon="-14.23048">
        <ele>41.8</ele>
        <time>2021-07-05 15:17:22</time>
      </trkpt>
      <trkpt lat="28.16068" lon="-14.2305">
        <ele>42</ele>
        <time>2021-07-05 15:17:23</time>
      </trkpt>
      <trkpt lat="28.16065" lon="-14.23053">
        <ele>42</ele>
        <time>2021-07-05 15:17:24</time>
      </trkpt>
      <trkpt lat="28.16062" lon="-14.23055">
        <ele>42.2</ele>
        <time>2021-07-05 15:17:25</time>
      </trkpt>
      <trkpt lat="28.16059" lon="-14.23058">
        <ele>42.4</ele>
        <time>2021-07-05 15:17:26</time>
      </trkpt>
      <trkpt lat="28.16055" lon="-14.2306">
        <ele>42.4</ele>
        <time>2021-07-05 15:17:27</time>
      </trkpt>
      <trkpt lat="28.16052" lon="-14.23063">
        <ele>43</ele>
        <time>2021-07-05 15:17:28</time>
      </trkpt>
      <trkpt lat="28.16049" lon="-14.23065">
        <ele>43.2</ele>
        <time>2021-07-05 15:17:29</time>
      </trkpt>
      <trkpt lat="28.16045" lon="-14.23068">
        <ele>43.2</ele>
        <time>2021-07-05 15:17:30</time>
      </trkpt>
      <trkpt lat="28.16042" lon="-14.2307">
        <ele>43.8</ele>
        <time>2021-07-05 15:17:31</time>
      </trkpt>
      <trkpt lat="28.1604" lon="-14.23072">
        <ele>43.8</ele>
        <time>2021-07-05 15:17:32</time>
      </trkpt>
      <trkpt lat="28.16037" lon="-14.23074">
        <ele>44</ele>
        <time>2021-07-05 15:17:33</time>
      </trkpt>
      <trkpt lat="28.16034" lon="-14.23076">
        <ele>44.6</ele>
        <time>2021-07-05 15:17:34</time>
      </trkpt>
      <trkpt lat="28.16032" lon="-14.23078">
        <ele>44.8</ele>
        <time>2021-07-05 15:17:35</time>
      </trkpt>
      <trkpt lat="28.16029" lon="-14.2308">
        <ele>44.8</ele>
        <time>2021-07-05 15:17:36</time>
      </trkpt>
      <trkpt lat="28.16026" lon="-14.23081">
        <ele>45</ele>
        <time>2021-07-05 15:17:37</time>
      </trkpt>
      <trkpt lat="28.16023" lon="-14.23083">
        <ele>45</ele>
        <time>2021-07-05 15:17:38</time>
      </trkpt>
      <trkpt lat="28.16021" lon="-14.23085">
        <ele>45.8</ele>
        <time>2021-07-05 15:17:39</time>
      </trkpt>
      <trkpt lat="28.16018" lon="-14.23087">
        <ele>46</ele>
        <time>2021-07-05 15:17:40</time>
      </trkpt>
      <trkpt lat="28.16015" lon="-14.23088">
        <ele>46</ele>
        <time>2021-07-05 15:17:41</time>
      </trkpt>
      <trkpt lat="28.16013" lon="-14.2309">
        <ele>46.2</ele>
        <time>2021-07-05 15:17:42</time>
      </trkpt>
      <trkpt lat="28.1601" lon="-14.23091">
        <ele>46.6</ele>
        <time>2021-07-05 15:17:43</time>
      </trkpt>
      <trkpt lat="28.16007" lon="-14.23092">
        <ele>46.6</ele>
        <time>2021-07-05 15:17:44</time>
      </trkpt>
      <trkpt lat="28.16004" lon="-14.23092">
        <ele>47</ele>
        <time>2021-07-05 15:17:45</time>
      </trkpt>
      <trkpt lat="28.16001" lon="-14.23093">
        <ele>47</ele>
        <time>2021-07-05 15:17:46</time>
      </trkpt>
      <trkpt lat="28.15999" lon="-14.23093">
        <ele>47.2</ele>
        <time>2021-07-05 15:17:47</time>
      </trkpt>
      <trkpt lat="28.15996" lon="-14.23093">
        <ele>47.2</ele>
        <time>2021-07-05 15:17:48</time>
      </trkpt>
      <trkpt lat="28.15993" lon="-14.23093">
        <ele>47.6</ele>
        <time>2021-07-05 15:17:49</time>
      </trkpt>
      <trkpt lat="28.1599" lon="-14.23093">
        <ele>47.6</ele>
        <time>2021-07-05 15:17:50</time>
      </trkpt>
      <trkpt lat="28.15987" lon="-14.23092">
        <ele>47.8</ele>
        <time>2021-07-05 15:17:51</time>
      </trkpt>
      <trkpt lat="28.15985" lon="-14.23092">
        <ele>47.8</ele>
        <time>2021-07-05 15:17:52</time>
      </trkpt>
      <trkpt lat="28.15982" lon="-14.23091">
        <ele>47.8</ele>
        <time>2021-07-05 15:17:53</time>
      </trkpt>
      <trkpt lat="28.15979" lon="-14.2309">
        <ele>47.8</ele>
        <time>2021-07-05 15:17:54</time>
      </trkpt>
      <trkpt lat="28.15976" lon="-14.23089">
        <ele>47.8</ele>
        <time>2021-07-05 15:17:55</time>
      </trkpt>
      <trkpt lat="28.15974" lon="-14.23088">
        <ele>47.8</ele>
        <time>2021-07-05 15:17:56</time>
      </trkpt>
      <trkpt lat="28.15971" lon="-14.23088">
        <ele>47.8</ele>
        <time>2021-07-05 15:17:57</time>
      </trkpt>
      <trkpt lat="28.15968" lon="-14.23088">
        <ele>47.8</ele>
        <time>2021-07-05 15:17:58</time>
      </trkpt>
      <trkpt lat="28.15966" lon="-14.23088">
        <ele>47.8</ele>
        <time>2021-07-05 15:17:59</time>
      </trkpt>
      <trkpt lat="28.15965" lon="-14.23089">
        <ele>47.8</ele>
        <time>2021-07-05 15:18:00</time>
      </trkpt>
      <trkpt lat="28.15963" lon="-14.23089">
        <ele>47.6</ele>
        <time>2021-07-05 15:18:01</time>
      </trkpt>
      <trkpt lat="28.15962" lon="-14.23089">
        <ele>47.6</ele>
        <time>2021-07-05 15:18:02</time>
      </trkpt>
      <trkpt lat="28.15962" lon="-14.23089">
        <ele>47.2</ele>
        <time>2021-07-05 15:18:03</time>
      </trkpt>
      <trkpt lat="28.15962" lon="-14.23089">
        <ele>47</ele>
        <time>2021-07-05 15:18:04</time>
      </trkpt>
      <trkpt lat="28.15962" lon="-14.23089">
        <ele>47</ele>
        <time>2021-07-05 15:18:05</time>
      </trkpt>
      <trkpt lat="28.1596" lon="-14.23086">
        <ele>46.4</ele>
        <time>2021-07-05 15:18:06</time>
      </trkpt>
      <trkpt lat="28.15959" lon="-14.23084">
        <ele>46.4</ele>
        <time>2021-07-05 15:18:07</time>
      </trkpt>
      <trkpt lat="28.15958" lon="-14.23082">
        <ele>46.4</ele>
        <time>2021-07-05 15:19:57</time>
      </trkpt>
      <trkpt lat="28.15958" lon="-14.2308">
        <ele>46.4</ele>
        <time>2021-07-05 15:19:58</time>
      </trkpt>
      <trkpt lat="28.15959" lon="-14.23079">
        <ele>46.4</ele>
        <time>2021-07-05 15:19:59</time>
      </trkpt>
      <trkpt lat="28.15959" lon="-14.23077">
        <ele>46.4</ele>
        <time>2021-07-05 15:20:00</time>
      </trkpt>
      <trkpt lat="28.15959" lon="-14.23076">
        <ele>46.4</ele>
        <time>2021-07-05 15:20:01</time>
      </trkpt>
      <trkpt lat="28.1596" lon="-14.23074">
        <ele>46.6</ele>
        <time>2021-07-05 15:20:02</time>
      </trkpt>
      <trkpt lat="28.1596" lon="-14.23073">
        <ele>46.6</ele>
        <time>2021-07-05 15:20:03</time>
      </trkpt>
      <trkpt lat="28.15961" lon="-14.23072">
        <ele>46.6</ele>
        <time>2021-07-05 15:20:04</time>
      </trkpt>
      <trkpt lat="28.15962" lon="-14.23072">
        <ele>46.6</ele>
        <time>2021-07-05 15:20:05</time>
      </trkpt>
      <trkpt lat="28.15963" lon="-14.23071">
        <ele>46.6</ele>
        <time>2021-07-05 15:20:06</time>
      </trkpt>
      <trkpt lat="28.15965" lon="-14.2307">
        <ele>46.6</ele>
        <time>2021-07-05 15:20:07</time>
      </trkpt>
      <trkpt lat="28.15967" lon="-14.23069">
        <ele>46.4</ele>
        <time>2021-07-05 15:20:08</time>
      </trkpt>
      <trkpt lat="28.15968" lon="-14.23068">
        <ele>46.2</ele>
        <time>2021-07-05 15:20:09</time>
      </trkpt>
      <trkpt lat="28.1597" lon="-14.23067">
        <ele>46.2</ele>
        <time>2021-07-05 15:20:10</time>
      </trkpt>
      <trkpt lat="28.15972" lon="-14.23065">
        <ele>45.8</ele>
        <time>2021-07-05 15:20:11</time>
      </trkpt>
      <trkpt lat="28.15975" lon="-14.23063">
        <ele>45.8</ele>
        <time>2021-07-05 15:20:12</time>
      </trkpt>
      <trkpt lat="28.15977" lon="-14.23061">
        <ele>45.8</ele>
        <time>2021-07-05 15:20:13</time>
      </trkpt>
      <trkpt lat="28.15979" lon="-14.23059">
        <ele>46</ele>
        <time>2021-07-05 15:20:14</time>
      </trkpt>
      <trkpt lat="28.15982" lon="-14.23057">
        <ele>46</ele>
        <time>2021-07-05 15:20:15</time>
      </trkpt>
      <trkpt lat="28.15984" lon="-14.23056">
        <ele>46</ele>
        <time>2021-07-05 15:20:16</time>
      </trkpt>
      <trkpt lat="28.15986" lon="-14.23054">
        <ele>46</ele>
        <time>2021-07-05 15:20:17</time>
      </trkpt>
      <trkpt lat="28.15988" lon="-14.23052">
        <ele>46</ele>
        <time>2021-07-05 15:20:18</time>
      </trkpt>
      <trkpt lat="28.1599" lon="-14.2305">
        <ele>46</ele>
        <time>2021-07-05 15:20:19</time>
      </trkpt>
      <trkpt lat="28.15993" lon="-14.23048">
        <ele>46</ele>
        <time>2021-07-05 15:20:20</time>
      </trkpt>
      <trkpt lat="28.15995" lon="-14.23046">
        <ele>46</ele>
        <time>2021-07-05 15:20:21</time>
      </trkpt>
      <trkpt lat="28.15997" lon="-14.23044">
        <ele>45.8</ele>
        <time>2021-07-05 15:20:22</time>
      </trkpt>
      <trkpt lat="28.16" lon="-14.23041">
        <ele>45.8</ele>
        <time>2021-07-05 15:20:23</time>
      </trkpt>
      <trkpt lat="28.16002" lon="-14.23039">
        <ele>45.8</ele>
        <time>2021-07-05 15:20:24</time>
      </trkpt>
      <trkpt lat="28.16005" lon="-14.23037">
        <ele>45.6</ele>
        <time>2021-07-05 15:20:25</time>
      </trkpt>
      <trkpt lat="28.16007" lon="-14.23034">
        <ele>45.6</ele>
        <time>2021-07-05 15:20:26</time>
      </trkpt>
      <trkpt lat="28.1601" lon="-14.23033">
        <ele>45.6</ele>
        <time>2021-07-05 15:20:27</time>
      </trkpt>
      <trkpt lat="28.16011" lon="-14.23031">
        <ele>45.6</ele>
        <time>2021-07-05 15:20:28</time>
      </trkpt>
      <trkpt lat="28.16012" lon="-14.2303">
        <ele>45.6</ele>
        <time>2021-07-05 15:20:29</time>
      </trkpt>
      <trkpt lat="28.16012" lon="-14.23029">
        <ele>45.6</ele>
        <time>2021-07-05 15:20:30</time>
      </trkpt>
      <trkpt lat="28.16013" lon="-14.23026">
        <ele>45.6</ele>
        <time>2021-07-05 15:20:31</time>
      </trkpt>
      <trkpt lat="28.16014" lon="-14.23023">
        <ele>45.6</ele>
        <time>2021-07-05 15:20:32</time>
      </trkpt>
      <trkpt lat="28.16015" lon="-14.2302">
        <ele>45.4</ele>
        <time>2021-07-05 15:20:33</time>
      </trkpt>
      <trkpt lat="28.16015" lon="-14.23016">
        <ele>45.4</ele>
        <time>2021-07-05 15:20:34</time>
      </trkpt>
      <trkpt lat="28.16014" lon="-14.23012">
        <ele>45</ele>
        <time>2021-07-05 15:20:35</time>
      </trkpt>
      <trkpt lat="28.16012" lon="-14.23008">
        <ele>44.8</ele>
        <time>2021-07-05 15:20:36</time>
      </trkpt>
      <trkpt lat="28.1601" lon="-14.23005">
        <ele>44.6</ele>
        <time>2021-07-05 15:20:37</time>
      </trkpt>
      <trkpt lat="28.16008" lon="-14.23001">
        <ele>44.2</ele>
        <time>2021-07-05 15:20:38</time>
      </trkpt>
      <trkpt lat="28.16005" lon="-14.22997">
        <ele>44.2</ele>
        <time>2021-07-05 15:20:39</time>
      </trkpt>
      <trkpt lat="28.16003" lon="-14.22993">
        <ele>43.8</ele>
        <time>2021-07-05 15:20:40</time>
      </trkpt>
      <trkpt lat="28.16" lon="-14.22989">
        <ele>43.4</ele>
        <time>2021-07-05 15:20:41</time>
      </trkpt>
      <trkpt lat="28.15997" lon="-14.22985">
        <ele>43</ele>
        <time>2021-07-05 15:20:42</time>
      </trkpt>
      <trkpt lat="28.15995" lon="-14.22981">
        <ele>42.8</ele>
        <time>2021-07-05 15:20:43</time>
      </trkpt>
      <trkpt lat="28.15993" lon="-14.22976">
        <ele>42.6</ele>
        <time>2021-07-05 15:20:44</time>
      </trkpt>
      <trkpt lat="28.1599" lon="-14.22971">
        <ele>42.4</ele>
        <time>2021-07-05 15:20:45</time>
      </trkpt>
      <trkpt lat="28.15987" lon="-14.22966">
        <ele>41.8</ele>
        <time>2021-07-05 15:20:46</time>
      </trkpt>
      <trkpt lat="28.15984" lon="-14.22961">
        <ele>41.8</ele>
        <time>2021-07-05 15:20:47</time>
      </trkpt>
      <trkpt lat="28.15982" lon="-14.22955">
        <ele>41.8</ele>
        <time>2021-07-05 15:20:48</time>
      </trkpt>
      <trkpt lat="28.15979" lon="-14.2295">
        <ele>41.6</ele>
        <time>2021-07-05 15:20:49</time>
      </trkpt>
      <trkpt lat="28.15976" lon="-14.22944">
        <ele>41.2</ele>
        <time>2021-07-05 15:20:50</time>
      </trkpt>
      <trkpt lat="28.15972" lon="-14.22938">
        <ele>40.8</ele>
        <time>2021-07-05 15:20:51</time>
      </trkpt>
      <trkpt lat="28.15969" lon="-14.22932">
        <ele>40.8</ele>
        <time>2021-07-05 15:20:52</time>
      </trkpt>
      <trkpt lat="28.15966" lon="-14.22925">
        <ele>40.2</ele>
        <time>2021-07-05 15:20:53</time>
      </trkpt>
      <trkpt lat="28.15963" lon="-14.22919">
        <ele>40.2</ele>
        <time>2021-07-05 15:20:54</time>
      </trkpt>
      <trkpt lat="28.15959" lon="-14.22913">
        <ele>40</ele>
        <time>2021-07-05 15:20:55</time>
      </trkpt>
      <trkpt lat="28.15956" lon="-14.22907">
        <ele>39.8</ele>
        <time>2021-07-05 15:20:56</time>
      </trkpt>
      <trkpt lat="28.15953" lon="-14.22901">
        <ele>39.8</ele>
        <time>2021-07-05 15:20:57</time>
      </trkpt>
      <trkpt lat="28.1595" lon="-14.22895">
        <ele>39.2</ele>
        <time>2021-07-05 15:20:58</time>
      </trkpt>
      <trkpt lat="28.15947" lon="-14.22889">
        <ele>39</ele>
        <time>2021-07-05 15:20:59</time>
      </trkpt>
      <trkpt lat="28.15944" lon="-14.22884">
        <ele>38.6</ele>
        <time>2021-07-05 15:21:00</time>
      </trkpt>
      <trkpt lat="28.15941" lon="-14.22879">
        <ele>38.6</ele>
        <time>2021-07-05 15:21:01</time>
      </trkpt>
      <trkpt lat="28.15939" lon="-14.22874">
        <ele>38</ele>
        <time>2021-07-05 15:21:02</time>
      </trkpt>
      <trkpt lat="28.15937" lon="-14.2287">
        <ele>38</ele>
        <time>2021-07-05 15:21:03</time>
      </trkpt>
      <trkpt lat="28.15935" lon="-14.22866">
        <ele>37.8</ele>
        <time>2021-07-05 15:21:04</time>
      </trkpt>
      <trkpt lat="28.15933" lon="-14.22862">
        <ele>37.4</ele>
        <time>2021-07-05 15:21:05</time>
      </trkpt>
      <trkpt lat="28.15931" lon="-14.2286">
        <ele>37.4</ele>
        <time>2021-07-05 15:21:06</time>
      </trkpt>
      <trkpt lat="28.15929" lon="-14.22858">
        <ele>36.8</ele>
        <time>2021-07-05 15:21:07</time>
      </trkpt>
      <trkpt lat="28.15927" lon="-14.22855">
        <ele>36.8</ele>
        <time>2021-07-05 15:21:08</time>
      </trkpt>
      <trkpt lat="28.15925" lon="-14.22856">
        <ele>36.2</ele>
        <time>2021-07-05 15:21:09</time>
      </trkpt>
      <trkpt lat="28.15922" lon="-14.22856">
        <ele>36.2</ele>
        <time>2021-07-05 15:21:10</time>
      </trkpt>
      <trkpt lat="28.1592" lon="-14.22857">
        <ele>36</ele>
        <time>2021-07-05 15:21:11</time>
      </trkpt>
      <trkpt lat="28.15917" lon="-14.22859">
        <ele>36</ele>
        <time>2021-07-05 15:21:12</time>
      </trkpt>
      <trkpt lat="28.15914" lon="-14.22861">
        <ele>36</ele>
        <time>2021-07-05 15:21:13</time>
      </trkpt>
      <trkpt lat="28.15912" lon="-14.22862">
        <ele>35.6</ele>
        <time>2021-07-05 15:21:14</time>
      </trkpt>
      <trkpt lat="28.15909" lon="-14.22864">
        <ele>35.6</ele>
        <time>2021-07-05 15:21:15</time>
      </trkpt>
      <trkpt lat="28.15906" lon="-14.22865">
        <ele>35.2</ele>
        <time>2021-07-05 15:21:16</time>
      </trkpt>
      <trkpt lat="28.15904" lon="-14.22864">
        <ele>35.2</ele>
        <time>2021-07-05 15:21:17</time>
      </trkpt>
      <trkpt lat="28.15901" lon="-14.22864">
        <ele>35.2</ele>
        <time>2021-07-05 15:21:18</time>
      </trkpt>
      <trkpt lat="28.15899" lon="-14.22863">
        <ele>35.2</ele>
        <time>2021-07-05 15:21:19</time>
      </trkpt>
      <trkpt lat="28.15897" lon="-14.22863">
        <ele>35.2</ele>
        <time>2021-07-05 15:21:20</time>
      </trkpt>
      <trkpt lat="28.15895" lon="-14.22863">
        <ele>35.2</ele>
        <time>2021-07-05 15:21:21</time>
      </trkpt>
      <trkpt lat="28.15894" lon="-14.22864">
        <ele>35.2</ele>
        <time>2021-07-05 15:21:22</time>
      </trkpt>
      <trkpt lat="28.15892" lon="-14.22865">
        <ele>35.4</ele>
        <time>2021-07-05 15:21:23</time>
      </trkpt>
      <trkpt lat="28.15891" lon="-14.22866">
        <ele>35.4</ele>
        <time>2021-07-05 15:21:24</time>
      </trkpt>
      <trkpt lat="28.1589" lon="-14.22867">
        <ele>35.4</ele>
        <time>2021-07-05 15:21:25</time>
      </trkpt>
      <trkpt lat="28.15888" lon="-14.22867">
        <ele>35.4</ele>
        <time>2021-07-05 15:21:26</time>
      </trkpt>
      <trkpt lat="28.15887" lon="-14.22868">
        <ele>35.4</ele>
        <time>2021-07-05 15:21:27</time>
      </trkpt>
      <trkpt lat="28.15886" lon="-14.22868">
        <ele>35.4</ele>
        <time>2021-07-05 15:21:28</time>
      </trkpt>
      <trkpt lat="28.15885" lon="-14.22869">
        <ele>35.4</ele>
        <time>2021-07-05 15:21:29</time>
      </trkpt>
      <trkpt lat="28.15884" lon="-14.22869">
        <ele>35.2</ele>
        <time>2021-07-05 15:21:30</time>
      </trkpt>
      <trkpt lat="28.15883" lon="-14.2287">
        <ele>35.2</ele>
        <time>2021-07-05 15:21:31</time>
      </trkpt>
      <trkpt lat="28.15883" lon="-14.2287">
        <ele>35.2</ele>
        <time>2021-07-05 15:21:32</time>
      </trkpt>
      <trkpt lat="28.15882" lon="-14.2287">
        <ele>35.2</ele>
        <time>2021-07-05 15:21:33</time>
      </trkpt>
      <trkpt lat="28.15882" lon="-14.2287">
        <ele>35.2</ele>
        <time>2021-07-05 15:21:34</time>
      </trkpt>
      <trkpt lat="28.15882" lon="-14.22869">
        <ele>35.2</ele>
        <time>2021-07-05 15:21:35</time>
      </trkpt>
      <trkpt lat="28.15884" lon="-14.22869">
        <ele>35.2</ele>
        <time>2021-07-05 15:21:36</time>
      </trkpt>
      <trkpt lat="28.15885" lon="-14.22869">
        <ele>35.4</ele>
        <time>2021-07-05 15:21:37</time>
      </trkpt>
      <trkpt lat="28.15885" lon="-14.22869">
        <ele>35.4</ele>
        <time>2021-07-05 15:21:40</time>
      </trkpt>
      <trkpt lat="28.15886" lon="-14.22869">
        <ele>35.4</ele>
        <time>2021-07-05 15:21:41</time>
      </trkpt>
      <trkpt lat="28.15886" lon="-14.22868">
        <ele>35.4</ele>
        <time>2021-07-05 15:21:42</time>
      </trkpt>
      <trkpt lat="28.15887" lon="-14.22868">
        <ele>35.4</ele>
        <time>2021-07-05 15:21:43</time>
      </trkpt>
      <trkpt lat="28.15888" lon="-14.22867">
        <ele>35.4</ele>
        <time>2021-07-05 15:21:44</time>
      </trkpt>
      <trkpt lat="28.15888" lon="-14.22866">
        <ele>35.6</ele>
        <time>2021-07-05 15:21:45</time>
      </trkpt>
      <trkpt lat="28.15889" lon="-14.22866">
        <ele>35.6</ele>
        <time>2021-07-05 15:21:46</time>
      </trkpt>
      <trkpt lat="28.15889" lon="-14.22865">
        <ele>35.6</ele>
        <time>2021-07-05 15:21:47</time>
      </trkpt>
      <trkpt lat="28.15889" lon="-14.22866">
        <ele>35.6</ele>
        <time>2021-07-05 15:21:48</time>
      </trkpt>
      <trkpt lat="28.15889" lon="-14.22866">
        <ele>35.6</ele>
        <time>2021-07-05 15:21:49</time>
      </trkpt>
      <trkpt lat="28.15888" lon="-14.22866">
        <ele>35.6</ele>
        <time>2021-07-05 15:21:50</time>
      </trkpt>
      <trkpt lat="28.15887" lon="-14.22863">
        <ele>35.4</ele>
        <time>2021-07-05 15:21:51</time>
      </trkpt>
      <trkpt lat="28.15887" lon="-14.22864">
        <ele>35.4</ele>
        <time>2021-07-05 15:21:52</time>
      </trkpt>
      <trkpt lat="28.15887" lon="-14.22864">
        <ele>35.4</ele>
        <time>2021-07-05 15:34:24</time>
      </trkpt>
      <trkpt lat="28.15888" lon="-14.22864">
        <ele>35.4</ele>
        <time>2021-07-05 15:34:25</time>
      </trkpt>
      <trkpt lat="28.15888" lon="-14.22865">
        <ele>35.4</ele>
        <time>2021-07-05 15:34:26</time>
      </trkpt>
      <trkpt lat="28.15888" lon="-14.22865">
        <ele>35.6</ele>
        <time>2021-07-05 15:34:27</time>
      </trkpt>
      <trkpt lat="28.15888" lon="-14.22865">
        <ele>35.6</ele>
        <time>2021-07-05 15:34:28</time>
      </trkpt>
      <trkpt lat="28.15889" lon="-14.22866">
        <ele>35.6</ele>
        <time>2021-07-05 15:34:29</time>
      </trkpt>
      <trkpt lat="28.15889" lon="-14.22867">
        <ele>35.4</ele>
        <time>2021-07-05 15:34:30</time>
      </trkpt>
      <trkpt lat="28.15889" lon="-14.22868">
        <ele>35</ele>
        <time>2021-07-05 15:34:31</time>
      </trkpt>
      <trkpt lat="28.15889" lon="-14.22869">
        <ele>35</ele>
        <time>2021-07-05 15:34:32</time>
      </trkpt>
      <trkpt lat="28.15889" lon="-14.2287">
        <ele>35</ele>
        <time>2021-07-05 15:34:33</time>
      </trkpt>
      <trkpt lat="28.15889" lon="-14.22871">
        <ele>34.8</ele>
        <time>2021-07-05 15:34:34</time>
      </trkpt>
      <trkpt lat="28.15889" lon="-14.22872">
        <ele>34.8</ele>
        <time>2021-07-05 15:34:35</time>
      </trkpt>
      <trkpt lat="28.15889" lon="-14.22873">
        <ele>34.8</ele>
        <time>2021-07-05 15:34:36</time>
      </trkpt>
      <trkpt lat="28.15889" lon="-14.22874">
        <ele>34.4</ele>
        <time>2021-07-05 15:34:37</time>
      </trkpt>
      <trkpt lat="28.15889" lon="-14.22876">
        <ele>34.4</ele>
        <time>2021-07-05 15:34:38</time>
      </trkpt>
      <trkpt lat="28.15889" lon="-14.22877">
        <ele>34.4</ele>
        <time>2021-07-05 15:34:39</time>
      </trkpt>
      <trkpt lat="28.1589" lon="-14.22878">
        <ele>34.6</ele>
        <time>2021-07-05 15:34:40</time>
      </trkpt>
      <trkpt lat="28.15891" lon="-14.22879">
        <ele>34.6</ele>
        <time>2021-07-05 15:34:41</time>
      </trkpt>
      <trkpt lat="28.15891" lon="-14.2288">
        <ele>34.6</ele>
        <time>2021-07-05 15:34:42</time>
      </trkpt>
      <trkpt lat="28.15892" lon="-14.22881">
        <ele>35</ele>
        <time>2021-07-05 15:34:43</time>
      </trkpt>
      <trkpt lat="28.15892" lon="-14.22882">
        <ele>35.2</ele>
        <time>2021-07-05 15:34:44</time>
      </trkpt>
      <trkpt lat="28.15892" lon="-14.22882">
        <ele>35.6</ele>
        <time>2021-07-05 15:34:45</time>
      </trkpt>
      <trkpt lat="28.15892" lon="-14.22882">
        <ele>35.8</ele>
        <time>2021-07-05 15:34:46</time>
      </trkpt>
      <trkpt lat="28.15893" lon="-14.22883">
        <ele>36.2</ele>
        <time>2021-07-05 15:34:47</time>
      </trkpt>
      <trkpt lat="28.15893" lon="-14.22884">
        <ele>36.2</ele>
        <time>2021-07-05 15:34:48</time>
      </trkpt>
      <trkpt lat="28.15894" lon="-14.22885">
        <ele>36.2</ele>
        <time>2021-07-05 15:34:51</time>
      </trkpt>
      <trkpt lat="28.15894" lon="-14.22886">
        <ele>36.2</ele>
        <time>2021-07-05 15:34:52</time>
      </trkpt>
      <trkpt lat="28.15895" lon="-14.22887">
        <ele>36.2</ele>
        <time>2021-07-05 15:34:53</time>
      </trkpt>
      <trkpt lat="28.15895" lon="-14.22888">
        <ele>36.4</ele>
        <time>2021-07-05 15:34:54</time>
      </trkpt>
      <trkpt lat="28.15895" lon="-14.22888">
        <ele>36.4</ele>
        <time>2021-07-05 15:34:55</time>
      </trkpt>
      <trkpt lat="28.15895" lon="-14.22888">
        <ele>36.8</ele>
        <time>2021-07-05 15:34:56</time>
      </trkpt>
      <trkpt lat="28.15894" lon="-14.22888">
        <ele>36.2</ele>
        <time>2021-07-05 15:34:57</time>
      </trkpt>
      <trkpt lat="28.15894" lon="-14.22887">
        <ele>36.2</ele>
        <time>2021-07-05 15:34:58</time>
      </trkpt>
      <trkpt lat="28.15893" lon="-14.22887">
        <ele>36.6</ele>
        <time>2021-07-05 16:07:43</time>
      </trkpt>
      <trkpt lat="28.15893" lon="-14.22886">
        <ele>36.6</ele>
        <time>2021-07-05 16:07:44</time>
      </trkpt>
      <trkpt lat="28.15893" lon="-14.22886">
        <ele>36.6</ele>
        <time>2021-07-05 16:07:45</time>
      </trkpt>
      <trkpt lat="28.15892" lon="-14.22885">
        <ele>36.6</ele>
        <time>2021-07-05 16:07:46</time>
      </trkpt>
      <trkpt lat="28.15892" lon="-14.22884">
        <ele>36.6</ele>
        <time>2021-07-05 16:07:47</time>
      </trkpt>
      <trkpt lat="28.15891" lon="-14.22884">
        <ele>37.2</ele>
        <time>2021-07-05 16:07:48</time>
      </trkpt>
      <trkpt lat="28.15891" lon="-14.22884">
        <ele>37</ele>
        <time>2021-07-05 16:08:12</time>
      </trkpt>
      <trkpt lat="28.15891" lon="-14.22884">
        <ele>37</ele>
        <time>2021-07-05 16:08:13</time>
      </trkpt>
      <trkpt lat="28.15891" lon="-14.22885">
        <ele>37</ele>
        <time>2021-07-05 16:08:14</time>
      </trkpt>
      <trkpt lat="28.15891" lon="-14.22885">
        <ele>36.2</ele>
        <time>2021-07-05 16:08:15</time>
      </trkpt>
      <trkpt lat="28.1589" lon="-14.22885">
        <ele>36.4</ele>
        <time>2021-07-05 16:08:16</time>
      </trkpt>
      <trkpt lat="28.15889" lon="-14.22884">
        <ele>36.4</ele>
        <time>2021-07-05 16:10:02</time>
      </trkpt>
      <trkpt lat="28.15888" lon="-14.22883">
        <ele>36.4</ele>
        <time>2021-07-05 16:10:03</time>
      </trkpt>
      <trkpt lat="28.15887" lon="-14.22882">
        <ele>36.4</ele>
        <time>2021-07-05 16:10:04</time>
      </trkpt>
      <trkpt lat="28.15886" lon="-14.22881">
        <ele>36.4</ele>
        <time>2021-07-05 16:10:05</time>
      </trkpt>
      <trkpt lat="28.15884" lon="-14.22881">
        <ele>36.4</ele>
        <time>2021-07-05 16:10:06</time>
      </trkpt>
      <trkpt lat="28.15882" lon="-14.22882">
        <ele>36.2</ele>
        <time>2021-07-05 16:10:07</time>
      </trkpt>
      <trkpt lat="28.15881" lon="-14.22882">
        <ele>36.2</ele>
        <time>2021-07-05 16:10:08</time>
      </trkpt>
      <trkpt lat="28.15879" lon="-14.22883">
        <ele>36.2</ele>
        <time>2021-07-05 16:10:09</time>
      </trkpt>
      <trkpt lat="28.15878" lon="-14.22883">
        <ele>36.2</ele>
        <time>2021-07-05 16:10:10</time>
      </trkpt>
      <trkpt lat="28.15877" lon="-14.22884">
        <ele>36.2</ele>
        <time>2021-07-05 16:10:11</time>
      </trkpt>
      <trkpt lat="28.15875" lon="-14.22885">
        <ele>36.2</ele>
        <time>2021-07-05 16:10:12</time>
      </trkpt>
      <trkpt lat="28.15874" lon="-14.22886">
        <ele>36.2</ele>
        <time>2021-07-05 16:10:13</time>
      </trkpt>
      <trkpt lat="28.15874" lon="-14.22887">
        <ele>36</ele>
        <time>2021-07-05 16:10:14</time>
      </trkpt>
      <trkpt lat="28.15873" lon="-14.22888">
        <ele>36</ele>
        <time>2021-07-05 16:10:15</time>
      </trkpt>
      <trkpt lat="28.15872" lon="-14.2289">
        <ele>36</ele>
        <time>2021-07-05 16:10:16</time>
      </trkpt>
      <trkpt lat="28.15871" lon="-14.22891">
        <ele>35.8</ele>
        <time>2021-07-05 16:10:17</time>
      </trkpt>
      <trkpt lat="28.15871" lon="-14.22893">
        <ele>35.8</ele>
        <time>2021-07-05 16:10:18</time>
      </trkpt>
      <trkpt lat="28.1587" lon="-14.22893">
        <ele>35.8</ele>
        <time>2021-07-05 16:10:19</time>
      </trkpt>
      <trkpt lat="28.1587" lon="-14.22894">
        <ele>35.8</ele>
        <time>2021-07-05 16:10:20</time>
      </trkpt>
      <trkpt lat="28.1587" lon="-14.22893">
        <ele>35.8</ele>
        <time>2021-07-05 16:10:21</time>
      </trkpt>
      <trkpt lat="28.1587" lon="-14.22893">
        <ele>36</ele>
        <time>2021-07-05 16:10:22</time>
      </trkpt>
      <trkpt lat="28.15869" lon="-14.22895">
        <ele>36.6</ele>
        <time>2021-07-05 16:10:23</time>
      </trkpt>
      <trkpt lat="28.15869" lon="-14.22895">
        <ele>36.6</ele>
        <time>2021-07-05 16:10:24</time>
      </trkpt>
      <trkpt lat="28.15868" lon="-14.22895">
        <ele>36.6</ele>
        <time>2021-07-05 16:10:46</time>
      </trkpt>
      <trkpt lat="28.15867" lon="-14.22894">
        <ele>36.6</ele>
        <time>2021-07-05 16:10:47</time>
      </trkpt>
      <trkpt lat="28.15867" lon="-14.22895">
        <ele>36</ele>
        <time>2021-07-05 16:10:48</time>
      </trkpt>
      <trkpt lat="28.15866" lon="-14.22895">
        <ele>36</ele>
        <time>2021-07-05 16:10:54</time>
      </trkpt>
      <trkpt lat="28.15866" lon="-14.22895">
        <ele>36</ele>
        <time>2021-07-05 16:10:55</time>
      </trkpt>
      <trkpt lat="28.15865" lon="-14.22895">
        <ele>36</ele>
        <time>2021-07-05 16:10:56</time>
      </trkpt>
      <trkpt lat="28.15864" lon="-14.22895">
        <ele>36</ele>
        <time>2021-07-05 16:10:57</time>
      </trkpt>
      <trkpt lat="28.15862" lon="-14.22895">
        <ele>36</ele>
        <time>2021-07-05 16:11:01</time>
      </trkpt>
      <trkpt lat="28.1586" lon="-14.22896">
        <ele>36</ele>
        <time>2021-07-05 16:11:02</time>
      </trkpt>
      <trkpt lat="28.15858" lon="-14.22897">
        <ele>36</ele>
        <time>2021-07-05 16:11:03</time>
      </trkpt>
      <trkpt lat="28.15855" lon="-14.22898">
        <ele>36</ele>
        <time>2021-07-05 16:11:04</time>
      </trkpt>
      <trkpt lat="28.15853" lon="-14.229">
        <ele>36</ele>
        <time>2021-07-05 16:11:05</time>
      </trkpt>
      <trkpt lat="28.1585" lon="-14.22902">
        <ele>36</ele>
        <time>2021-07-05 16:11:06</time>
      </trkpt>
      <trkpt lat="28.15847" lon="-14.22904">
        <ele>36</ele>
        <time>2021-07-05 16:11:07</time>
      </trkpt>
      <trkpt lat="28.15844" lon="-14.22906">
        <ele>36</ele>
        <time>2021-07-05 16:11:08</time>
      </trkpt>
      <trkpt lat="28.15841" lon="-14.22907">
        <ele>36.2</ele>
        <time>2021-07-05 16:11:09</time>
      </trkpt>
      <trkpt lat="28.15838" lon="-14.22909">
        <ele>36.2</ele>
        <time>2021-07-05 16:11:10</time>
      </trkpt>
      <trkpt lat="28.15835" lon="-14.22911">
        <ele>36.2</ele>
        <time>2021-07-05 16:11:11</time>
      </trkpt>
      <trkpt lat="28.15832" lon="-14.22913">
        <ele>36.2</ele>
        <time>2021-07-05 16:11:12</time>
      </trkpt>
      <trkpt lat="28.15829" lon="-14.22915">
        <ele>36.2</ele>
        <time>2021-07-05 16:11:13</time>
      </trkpt>
      <trkpt lat="28.15826" lon="-14.22917">
        <ele>36.2</ele>
        <time>2021-07-05 16:11:14</time>
      </trkpt>
      <trkpt lat="28.15824" lon="-14.22919">
        <ele>36.6</ele>
        <time>2021-07-05 16:11:15</time>
      </trkpt>
      <trkpt lat="28.15822" lon="-14.2292">
        <ele>36.6</ele>
        <time>2021-07-05 16:11:16</time>
      </trkpt>
      <trkpt lat="28.15819" lon="-14.22921">
        <ele>36.6</ele>
        <time>2021-07-05 16:11:17</time>
      </trkpt>
      <trkpt lat="28.15817" lon="-14.22923">
        <ele>36.8</ele>
        <time>2021-07-05 16:11:18</time>
      </trkpt>
      <trkpt lat="28.15815" lon="-14.22924">
        <ele>36.8</ele>
        <time>2021-07-05 16:11:19</time>
      </trkpt>
      <trkpt lat="28.15813" lon="-14.22926">
        <ele>36.8</ele>
        <time>2021-07-05 16:11:20</time>
      </trkpt>
      <trkpt lat="28.1581" lon="-14.22927">
        <ele>37</ele>
        <time>2021-07-05 16:11:21</time>
      </trkpt>
      <trkpt lat="28.15808" lon="-14.22929">
        <ele>37</ele>
        <time>2021-07-05 16:11:22</time>
      </trkpt>
      <trkpt lat="28.15806" lon="-14.2293">
        <ele>37</ele>
        <time>2021-07-05 16:11:23</time>
      </trkpt>
      <trkpt lat="28.15804" lon="-14.22932">
        <ele>37</ele>
        <time>2021-07-05 16:11:24</time>
      </trkpt>
      <trkpt lat="28.15802" lon="-14.22933">
        <ele>37</ele>
        <time>2021-07-05 16:11:25</time>
      </trkpt>
      <trkpt lat="28.158" lon="-14.22934">
        <ele>37</ele>
        <time>2021-07-05 16:11:26</time>
      </trkpt>
      <trkpt lat="28.15798" lon="-14.22935">
        <ele>37</ele>
        <time>2021-07-05 16:11:27</time>
      </trkpt>
      <trkpt lat="28.15796" lon="-14.22937">
        <ele>37</ele>
        <time>2021-07-05 16:11:28</time>
      </trkpt>
      <trkpt lat="28.15794" lon="-14.22938">
        <ele>37</ele>
        <time>2021-07-05 16:11:29</time>
      </trkpt>
      <trkpt lat="28.15792" lon="-14.2294">
        <ele>37</ele>
        <time>2021-07-05 16:11:30</time>
      </trkpt>
      <trkpt lat="28.1579" lon="-14.22942">
        <ele>37</ele>
        <time>2021-07-05 16:11:31</time>
      </trkpt>
      <trkpt lat="28.15788" lon="-14.22944">
        <ele>37</ele>
        <time>2021-07-05 16:11:32</time>
      </trkpt>
      <trkpt lat="28.15785" lon="-14.22946">
        <ele>37</ele>
        <time>2021-07-05 16:11:33</time>
      </trkpt>
      <trkpt lat="28.15783" lon="-14.22947">
        <ele>37.4</ele>
        <time>2021-07-05 16:11:34</time>
      </trkpt>
      <trkpt lat="28.1578" lon="-14.22948">
        <ele>37.4</ele>
        <time>2021-07-05 16:11:35</time>
      </trkpt>
      <trkpt lat="28.15777" lon="-14.2295">
        <ele>37.8</ele>
        <time>2021-07-05 16:11:36</time>
      </trkpt>
      <trkpt lat="28.15775" lon="-14.22951">
        <ele>37.8</ele>
        <time>2021-07-05 16:11:37</time>
      </trkpt>
      <trkpt lat="28.15772" lon="-14.22953">
        <ele>38.2</ele>
        <time>2021-07-05 16:11:38</time>
      </trkpt>
      <trkpt lat="28.1577" lon="-14.22955">
        <ele>38.2</ele>
        <time>2021-07-05 16:11:39</time>
      </trkpt>
      <trkpt lat="28.15768" lon="-14.22957">
        <ele>38.2</ele>
        <time>2021-07-05 16:11:40</time>
      </trkpt>
      <trkpt lat="28.15765" lon="-14.22959">
        <ele>38.2</ele>
        <time>2021-07-05 16:11:41</time>
      </trkpt>
      <trkpt lat="28.15763" lon="-14.2296">
        <ele>38.4</ele>
        <time>2021-07-05 16:11:42</time>
      </trkpt>
      <trkpt lat="28.1576" lon="-14.22962">
        <ele>38.4</ele>
        <time>2021-07-05 16:11:43</time>
      </trkpt>
      <trkpt lat="28.15757" lon="-14.22964">
        <ele>38.4</ele>
        <time>2021-07-05 16:11:44</time>
      </trkpt>
      <trkpt lat="28.15755" lon="-14.22965">
        <ele>38.6</ele>
        <time>2021-07-05 16:11:45</time>
      </trkpt>
      <trkpt lat="28.15752" lon="-14.22968">
        <ele>38.6</ele>
        <time>2021-07-05 16:11:46</time>
      </trkpt>
      <trkpt lat="28.1575" lon="-14.2297">
        <ele>38.6</ele>
        <time>2021-07-05 16:11:47</time>
      </trkpt>
      <trkpt lat="28.15747" lon="-14.22972">
        <ele>38.6</ele>
        <time>2021-07-05 16:11:48</time>
      </trkpt>
      <trkpt lat="28.15745" lon="-14.22974">
        <ele>38.6</ele>
        <time>2021-07-05 16:11:49</time>
      </trkpt>
      <trkpt lat="28.15742" lon="-14.22975">
        <ele>38.6</ele>
        <time>2021-07-05 16:11:50</time>
      </trkpt>
      <trkpt lat="28.15739" lon="-14.22977">
        <ele>38.6</ele>
        <time>2021-07-05 16:11:51</time>
      </trkpt>
      <trkpt lat="28.15736" lon="-14.22979">
        <ele>38.6</ele>
        <time>2021-07-05 16:11:52</time>
      </trkpt>
      <trkpt lat="28.15734" lon="-14.22982">
        <ele>38.8</ele>
        <time>2021-07-05 16:11:53</time>
      </trkpt>
      <trkpt lat="28.15731" lon="-14.22984">
        <ele>38.8</ele>
        <time>2021-07-05 16:11:54</time>
      </trkpt>
      <trkpt lat="28.15728" lon="-14.22986">
        <ele>38.8</ele>
        <time>2021-07-05 16:11:55</time>
      </trkpt>
      <trkpt lat="28.15725" lon="-14.22988">
        <ele>38.8</ele>
        <time>2021-07-05 16:11:56</time>
      </trkpt>
      <trkpt lat="28.15722" lon="-14.22989">
        <ele>39</ele>
        <time>2021-07-05 16:11:57</time>
      </trkpt>
      <trkpt lat="28.15719" lon="-14.22991">
        <ele>39</ele>
        <time>2021-07-05 16:11:58</time>
      </trkpt>
      <trkpt lat="28.15716" lon="-14.22993">
        <ele>39</ele>
        <time>2021-07-05 16:11:59</time>
      </trkpt>
      <trkpt lat="28.15713" lon="-14.22995">
        <ele>39</ele>
        <time>2021-07-05 16:12:00</time>
      </trkpt>
      <trkpt lat="28.15711" lon="-14.22997">
        <ele>39</ele>
        <time>2021-07-05 16:12:01</time>
      </trkpt>
      <trkpt lat="28.15708" lon="-14.22999">
        <ele>39</ele>
        <time>2021-07-05 16:12:02</time>
      </trkpt>
      <trkpt lat="28.15706" lon="-14.23001">
        <ele>39</ele>
        <time>2021-07-05 16:12:03</time>
      </trkpt>
      <trkpt lat="28.15703" lon="-14.23003">
        <ele>39.4</ele>
        <time>2021-07-05 16:12:04</time>
      </trkpt>
      <trkpt lat="28.15701" lon="-14.23005">
        <ele>39.4</ele>
        <time>2021-07-05 16:12:05</time>
      </trkpt>
      <trkpt lat="28.15699" lon="-14.23007">
        <ele>39.6</ele>
        <time>2021-07-05 16:12:06</time>
      </trkpt>
      <trkpt lat="28.15697" lon="-14.23008">
        <ele>39.6</ele>
        <time>2021-07-05 16:12:07</time>
      </trkpt>
      <trkpt lat="28.15694" lon="-14.23009">
        <ele>40</ele>
        <time>2021-07-05 16:12:08</time>
      </trkpt>
      <trkpt lat="28.15692" lon="-14.23011">
        <ele>40.2</ele>
        <time>2021-07-05 16:12:09</time>
      </trkpt>
      <trkpt lat="28.15689" lon="-14.23012">
        <ele>40.2</ele>
        <time>2021-07-05 16:12:10</time>
      </trkpt>
      <trkpt lat="28.15686" lon="-14.23013">
        <ele>40.6</ele>
        <time>2021-07-05 16:12:11</time>
      </trkpt>
      <trkpt lat="28.15683" lon="-14.23015">
        <ele>40.6</ele>
        <time>2021-07-05 16:12:12</time>
      </trkpt>
      <trkpt lat="28.1568" lon="-14.23016">
        <ele>40.8</ele>
        <time>2021-07-05 16:12:13</time>
      </trkpt>
      <trkpt lat="28.15677" lon="-14.23018">
        <ele>40.8</ele>
        <time>2021-07-05 16:12:14</time>
      </trkpt>
      <trkpt lat="28.15674" lon="-14.2302">
        <ele>40.8</ele>
        <time>2021-07-05 16:12:15</time>
      </trkpt>
      <trkpt lat="28.15671" lon="-14.23022">
        <ele>41</ele>
        <time>2021-07-05 16:12:16</time>
      </trkpt>
      <trkpt lat="28.15668" lon="-14.23024">
        <ele>41</ele>
        <time>2021-07-05 16:12:17</time>
      </trkpt>
      <trkpt lat="28.15665" lon="-14.23025">
        <ele>41</ele>
        <time>2021-07-05 16:12:18</time>
      </trkpt>
      <trkpt lat="28.15662" lon="-14.23027">
        <ele>41</ele>
        <time>2021-07-05 16:12:19</time>
      </trkpt>
      <trkpt lat="28.15659" lon="-14.23029">
        <ele>41</ele>
        <time>2021-07-05 16:12:20</time>
      </trkpt>
      <trkpt lat="28.15657" lon="-14.23031">
        <ele>41</ele>
        <time>2021-07-05 16:12:21</time>
      </trkpt>
      <trkpt lat="28.15654" lon="-14.23033">
        <ele>41</ele>
        <time>2021-07-05 16:12:22</time>
      </trkpt>
      <trkpt lat="28.15651" lon="-14.23034">
        <ele>41</ele>
        <time>2021-07-05 16:12:23</time>
      </trkpt>
      <trkpt lat="28.15648" lon="-14.23036">
        <ele>41</ele>
        <time>2021-07-05 16:12:24</time>
      </trkpt>
      <trkpt lat="28.15644" lon="-14.23037">
        <ele>41</ele>
        <time>2021-07-05 16:12:25</time>
      </trkpt>
      <trkpt lat="28.15641" lon="-14.23038">
        <ele>41</ele>
        <time>2021-07-05 16:12:26</time>
      </trkpt>
      <trkpt lat="28.15637" lon="-14.23039">
        <ele>41</ele>
        <time>2021-07-05 16:12:27</time>
      </trkpt>
      <trkpt lat="28.15633" lon="-14.23041">
        <ele>40.8</ele>
        <time>2021-07-05 16:12:28</time>
      </trkpt>
      <trkpt lat="28.15629" lon="-14.23041">
        <ele>40.8</ele>
        <time>2021-07-05 16:12:29</time>
      </trkpt>
      <trkpt lat="28.15625" lon="-14.23041">
        <ele>40.2</ele>
        <time>2021-07-05 16:12:30</time>
      </trkpt>
      <trkpt lat="28.15619" lon="-14.2304">
        <ele>40.2</ele>
        <time>2021-07-05 16:12:31</time>
      </trkpt>
      <trkpt lat="28.15613" lon="-14.2304">
        <ele>39.8</ele>
        <time>2021-07-05 16:12:32</time>
      </trkpt>
      <trkpt lat="28.15608" lon="-14.23042">
        <ele>39.6</ele>
        <time>2021-07-05 16:12:33</time>
      </trkpt>
      <trkpt lat="28.15602" lon="-14.23044">
        <ele>39.2</ele>
        <time>2021-07-05 16:12:34</time>
      </trkpt>
      <trkpt lat="28.15597" lon="-14.23046">
        <ele>39.2</ele>
        <time>2021-07-05 16:12:35</time>
      </trkpt>
      <trkpt lat="28.15592" lon="-14.23048">
        <ele>39</ele>
        <time>2021-07-05 16:12:36</time>
      </trkpt>
      <trkpt lat="28.15587" lon="-14.23051">
        <ele>39</ele>
        <time>2021-07-05 16:12:37</time>
      </trkpt>
      <trkpt lat="28.15582" lon="-14.23053">
        <ele>39</ele>
        <time>2021-07-05 16:12:38</time>
      </trkpt>
      <trkpt lat="28.15578" lon="-14.23055">
        <ele>39</ele>
        <time>2021-07-05 16:12:39</time>
      </trkpt>
      <trkpt lat="28.15573" lon="-14.23057">
        <ele>39</ele>
        <time>2021-07-05 16:12:40</time>
      </trkpt>
      <trkpt lat="28.15569" lon="-14.2306">
        <ele>39.2</ele>
        <time>2021-07-05 16:12:41</time>
      </trkpt>
      <trkpt lat="28.15565" lon="-14.23063">
        <ele>39.2</ele>
        <time>2021-07-05 16:12:42</time>
      </trkpt>
      <trkpt lat="28.15561" lon="-14.23066">
        <ele>39.2</ele>
        <time>2021-07-05 16:12:43</time>
      </trkpt>
      <trkpt lat="28.15556" lon="-14.23069">
        <ele>39.4</ele>
        <time>2021-07-05 16:12:44</time>
      </trkpt>
      <trkpt lat="28.15552" lon="-14.23072">
        <ele>39.4</ele>
        <time>2021-07-05 16:12:45</time>
      </trkpt>
      <trkpt lat="28.15548" lon="-14.23076">
        <ele>39.4</ele>
        <time>2021-07-05 16:12:46</time>
      </trkpt>
      <trkpt lat="28.15544" lon="-14.23079">
        <ele>39.6</ele>
        <time>2021-07-05 16:12:47</time>
      </trkpt>
      <trkpt lat="28.1554" lon="-14.23082">
        <ele>39.6</ele>
        <time>2021-07-05 16:12:48</time>
      </trkpt>
      <trkpt lat="28.15536" lon="-14.23085">
        <ele>39.6</ele>
        <time>2021-07-05 16:12:49</time>
      </trkpt>
      <trkpt lat="28.15532" lon="-14.23088">
        <ele>40</ele>
        <time>2021-07-05 16:12:50</time>
      </trkpt>
      <trkpt lat="28.15528" lon="-14.23091">
        <ele>40</ele>
        <time>2021-07-05 16:12:51</time>
      </trkpt>
      <trkpt lat="28.15524" lon="-14.23093">
        <ele>40.4</ele>
        <time>2021-07-05 16:12:52</time>
      </trkpt>
      <trkpt lat="28.1552" lon="-14.23096">
        <ele>40.4</ele>
        <time>2021-07-05 16:12:53</time>
      </trkpt>
      <trkpt lat="28.15517" lon="-14.23099">
        <ele>40.6</ele>
        <time>2021-07-05 16:12:54</time>
      </trkpt>
      <trkpt lat="28.15513" lon="-14.23102">
        <ele>40.6</ele>
        <time>2021-07-05 16:12:55</time>
      </trkpt>
      <trkpt lat="28.15509" lon="-14.23105">
        <ele>40.6</ele>
        <time>2021-07-05 16:12:56</time>
      </trkpt>
      <trkpt lat="28.15506" lon="-14.23107">
        <ele>40.6</ele>
        <time>2021-07-05 16:12:57</time>
      </trkpt>
      <trkpt lat="28.15502" lon="-14.2311">
        <ele>40.8</ele>
        <time>2021-07-05 16:12:58</time>
      </trkpt>
      <trkpt lat="28.15499" lon="-14.23112">
        <ele>41.2</ele>
        <time>2021-07-05 16:12:59</time>
      </trkpt>
      <trkpt lat="28.15495" lon="-14.23115">
        <ele>41.2</ele>
        <time>2021-07-05 16:13:00</time>
      </trkpt>
      <trkpt lat="28.15492" lon="-14.23118">
        <ele>41.2</ele>
        <time>2021-07-05 16:13:01</time>
      </trkpt>
      <trkpt lat="28.15489" lon="-14.2312">
        <ele>41.6</ele>
        <time>2021-07-05 16:13:02</time>
      </trkpt>
      <trkpt lat="28.15486" lon="-14.23123">
        <ele>41.8</ele>
        <time>2021-07-05 16:13:03</time>
      </trkpt>
      <trkpt lat="28.15483" lon="-14.23126">
        <ele>41.8</ele>
        <time>2021-07-05 16:13:04</time>
      </trkpt>
      <trkpt lat="28.1548" lon="-14.23128">
        <ele>42</ele>
        <time>2021-07-05 16:13:05</time>
      </trkpt>
      <trkpt lat="28.15477" lon="-14.2313">
        <ele>42</ele>
        <time>2021-07-05 16:13:06</time>
      </trkpt>
      <trkpt lat="28.15474" lon="-14.23133">
        <ele>42.2</ele>
        <time>2021-07-05 16:13:07</time>
      </trkpt>
      <trkpt lat="28.15471" lon="-14.23135">
        <ele>42.6</ele>
        <time>2021-07-05 16:13:08</time>
      </trkpt>
      <trkpt lat="28.15469" lon="-14.23137">
        <ele>42.6</ele>
        <time>2021-07-05 16:13:09</time>
      </trkpt>
      <trkpt lat="28.15467" lon="-14.2314">
        <ele>43</ele>
        <time>2021-07-05 16:13:10</time>
      </trkpt>
      <trkpt lat="28.15465" lon="-14.23142">
        <ele>43.8</ele>
        <time>2021-07-05 16:13:11</time>
      </trkpt>
      <trkpt lat="28.15462" lon="-14.23144">
        <ele>43.8</ele>
        <time>2021-07-05 16:13:12</time>
      </trkpt>
      <trkpt lat="28.1546" lon="-14.23146">
        <ele>44</ele>
        <time>2021-07-05 16:13:13</time>
      </trkpt>
      <trkpt lat="28.15457" lon="-14.23148">
        <ele>44.2</ele>
        <time>2021-07-05 16:13:14</time>
      </trkpt>
      <trkpt lat="28.15455" lon="-14.2315">
        <ele>44.6</ele>
        <time>2021-07-05 16:13:15</time>
      </trkpt>
      <trkpt lat="28.15452" lon="-14.23152">
        <ele>44.8</ele>
        <time>2021-07-05 16:13:16</time>
      </trkpt>
      <trkpt lat="28.15449" lon="-14.23154">
        <ele>44.8</ele>
        <time>2021-07-05 16:13:17</time>
      </trkpt>
      <trkpt lat="28.15446" lon="-14.23156">
        <ele>45</ele>
        <time>2021-07-05 16:13:18</time>
      </trkpt>
      <trkpt lat="28.15444" lon="-14.23158">
        <ele>45</ele>
        <time>2021-07-05 16:13:19</time>
      </trkpt>
      <trkpt lat="28.15441" lon="-14.23159">
        <ele>45</ele>
        <time>2021-07-05 16:13:20</time>
      </trkpt>
      <trkpt lat="28.15438" lon="-14.23161">
        <ele>45</ele>
        <time>2021-07-05 16:13:21</time>
      </trkpt>
      <trkpt lat="28.15436" lon="-14.23163">
        <ele>45</ele>
        <time>2021-07-05 16:13:22</time>
      </trkpt>
      <trkpt lat="28.15433" lon="-14.23165">
        <ele>45</ele>
        <time>2021-07-05 16:13:23</time>
      </trkpt>
      <trkpt lat="28.15432" lon="-14.23166">
        <ele>45</ele>
        <time>2021-07-05 16:13:24</time>
      </trkpt>
      <trkpt lat="28.15431" lon="-14.23167">
        <ele>45</ele>
        <time>2021-07-05 16:13:25</time>
      </trkpt>
      <trkpt lat="28.1543" lon="-14.23167">
        <ele>45</ele>
        <time>2021-07-05 16:13:26</time>
      </trkpt>
      <trkpt lat="28.1543" lon="-14.23167">
        <ele>45</ele>
        <time>2021-07-05 16:13:27</time>
      </trkpt>
      <trkpt lat="28.1543" lon="-14.23167">
        <ele>45</ele>
        <time>2021-07-05 16:13:28</time>
      </trkpt>
      <trkpt lat="28.15431" lon="-14.23167">
        <ele>45</ele>
        <time>2021-07-05 16:13:29</time>
      </trkpt>
      <trkpt lat="28.15425" lon="-14.23167">
        <ele>45</ele>
        <time>2021-07-05 16:13:30</time>
      </trkpt>
      <trkpt lat="28.15422" lon="-14.23165">
        <ele>45.2</ele>
        <time>2021-07-05 16:13:31</time>
      </trkpt>
      <trkpt lat="28.15419" lon="-14.23163">
        <ele>45</ele>
        <time>2021-07-05 16:13:34</time>
      </trkpt>
      <trkpt lat="28.15416" lon="-14.23159">
        <ele>45</ele>
        <time>2021-07-05 16:13:35</time>
      </trkpt>
      <trkpt lat="28.15416" lon="-14.23153">
        <ele>44.6</ele>
        <time>2021-07-05 16:13:36</time>
      </trkpt>
      <trkpt lat="28.15413" lon="-14.23149">
        <ele>44.6</ele>
        <time>2021-07-05 16:13:37</time>
      </trkpt>
      <trkpt lat="28.1541" lon="-14.23143">
        <ele>44.4</ele>
        <time>2021-07-05 16:13:38</time>
      </trkpt>
      <trkpt lat="28.15407" lon="-14.23138">
        <ele>44.4</ele>
        <time>2021-07-05 16:13:39</time>
      </trkpt>
      <trkpt lat="28.15404" lon="-14.23132">
        <ele>44.4</ele>
        <time>2021-07-05 16:13:40</time>
      </trkpt>
      <trkpt lat="28.154" lon="-14.23127">
        <ele>44</ele>
        <time>2021-07-05 16:13:41</time>
      </trkpt>
      <trkpt lat="28.15397" lon="-14.2312">
        <ele>43.8</ele>
        <time>2021-07-05 16:13:42</time>
      </trkpt>
      <trkpt lat="28.15393" lon="-14.23114">
        <ele>43.8</ele>
        <time>2021-07-05 16:13:43</time>
      </trkpt>
      <trkpt lat="28.1539" lon="-14.23107">
        <ele>43.8</ele>
        <time>2021-07-05 16:13:44</time>
      </trkpt>
      <trkpt lat="28.15386" lon="-14.23101">
        <ele>43.4</ele>
        <time>2021-07-05 16:13:45</time>
      </trkpt>
      <trkpt lat="28.15381" lon="-14.23095">
        <ele>43.2</ele>
        <time>2021-07-05 16:13:46</time>
      </trkpt>
      <trkpt lat="28.15375" lon="-14.23091">
        <ele>43</ele>
        <time>2021-07-05 16:13:47</time>
      </trkpt>
      <trkpt lat="28.15369" lon="-14.23087">
        <ele>43</ele>
        <time>2021-07-05 16:13:48</time>
      </trkpt>
      <trkpt lat="28.15363" lon="-14.23083">
        <ele>43</ele>
        <time>2021-07-05 16:13:49</time>
      </trkpt>
      <trkpt lat="28.15356" lon="-14.23082">
        <ele>42.8</ele>
        <time>2021-07-05 16:13:50</time>
      </trkpt>
      <trkpt lat="28.1535" lon="-14.2308">
        <ele>42.8</ele>
        <time>2021-07-05 16:13:51</time>
      </trkpt>
      <trkpt lat="28.15343" lon="-14.23081">
        <ele>42.8</ele>
        <time>2021-07-05 16:13:52</time>
      </trkpt>
      <trkpt lat="28.15336" lon="-14.23082">
        <ele>42.8</ele>
        <time>2021-07-05 16:13:53</time>
      </trkpt>
      <trkpt lat="28.15329" lon="-14.23084">
        <ele>42.4</ele>
        <time>2021-07-05 16:13:54</time>
      </trkpt>
      <trkpt lat="28.15323" lon="-14.23089">
        <ele>42.4</ele>
        <time>2021-07-05 16:13:55</time>
      </trkpt>
      <trkpt lat="28.15317" lon="-14.23093">
        <ele>42.4</ele>
        <time>2021-07-05 16:13:56</time>
      </trkpt>
      <trkpt lat="28.15311" lon="-14.23098">
        <ele>42.4</ele>
        <time>2021-07-05 16:13:57</time>
      </trkpt>
      <trkpt lat="28.15306" lon="-14.23101">
        <ele>42.4</ele>
        <time>2021-07-05 16:13:58</time>
      </trkpt>
      <trkpt lat="28.153" lon="-14.23105">
        <ele>42.4</ele>
        <time>2021-07-05 16:13:59</time>
      </trkpt>
      <trkpt lat="28.15295" lon="-14.23109">
        <ele>42.4</ele>
        <time>2021-07-05 16:14:00</time>
      </trkpt>
      <trkpt lat="28.1529" lon="-14.23112">
        <ele>42.2</ele>
        <time>2021-07-05 16:14:01</time>
      </trkpt>
      <trkpt lat="28.15285" lon="-14.23116">
        <ele>42.2</ele>
        <time>2021-07-05 16:14:02</time>
      </trkpt>
      <trkpt lat="28.15279" lon="-14.2312">
        <ele>42.2</ele>
        <time>2021-07-05 16:14:03</time>
      </trkpt>
      <trkpt lat="28.15274" lon="-14.23124">
        <ele>42.2</ele>
        <time>2021-07-05 16:14:04</time>
      </trkpt>
      <trkpt lat="28.15269" lon="-14.23128">
        <ele>42.2</ele>
        <time>2021-07-05 16:14:05</time>
      </trkpt>
      <trkpt lat="28.15265" lon="-14.23132">
        <ele>42.2</ele>
        <time>2021-07-05 16:14:06</time>
      </trkpt>
      <trkpt lat="28.1526" lon="-14.23134">
        <ele>42</ele>
        <time>2021-07-05 16:14:07</time>
      </trkpt>
      <trkpt lat="28.15256" lon="-14.23138">
        <ele>42</ele>
        <time>2021-07-05 16:14:08</time>
      </trkpt>
      <trkpt lat="28.15252" lon="-14.23141">
        <ele>42</ele>
        <time>2021-07-05 16:14:09</time>
      </trkpt>
      <trkpt lat="28.15248" lon="-14.23143">
        <ele>42</ele>
        <time>2021-07-05 16:14:10</time>
      </trkpt>
      <trkpt lat="28.15244" lon="-14.23147">
        <ele>42</ele>
        <time>2021-07-05 16:14:11</time>
      </trkpt>
      <trkpt lat="28.15241" lon="-14.23149">
        <ele>42.2</ele>
        <time>2021-07-05 16:14:12</time>
      </trkpt>
      <trkpt lat="28.15237" lon="-14.23152">
        <ele>42.2</ele>
        <time>2021-07-05 16:14:13</time>
      </trkpt>
      <trkpt lat="28.15233" lon="-14.23154">
        <ele>42.2</ele>
        <time>2021-07-05 16:14:14</time>
      </trkpt>
      <trkpt lat="28.15229" lon="-14.23157">
        <ele>42.2</ele>
        <time>2021-07-05 16:14:15</time>
      </trkpt>
      <trkpt lat="28.15225" lon="-14.2316">
        <ele>42.2</ele>
        <time>2021-07-05 16:14:16</time>
      </trkpt>
      <trkpt lat="28.15221" lon="-14.23163">
        <ele>42.4</ele>
        <time>2021-07-05 16:14:17</time>
      </trkpt>
      <trkpt lat="28.15217" lon="-14.23166">
        <ele>42.4</ele>
        <time>2021-07-05 16:14:18</time>
      </trkpt>
      <trkpt lat="28.15213" lon="-14.23169">
        <ele>42.4</ele>
        <time>2021-07-05 16:14:19</time>
      </trkpt>
      <trkpt lat="28.15209" lon="-14.23171">
        <ele>42.4</ele>
        <time>2021-07-05 16:14:20</time>
      </trkpt>
      <trkpt lat="28.15205" lon="-14.23175">
        <ele>42.4</ele>
        <time>2021-07-05 16:14:21</time>
      </trkpt>
      <trkpt lat="28.152" lon="-14.23178">
        <ele>42.4</ele>
        <time>2021-07-05 16:14:22</time>
      </trkpt>
      <trkpt lat="28.15196" lon="-14.23181">
        <ele>42.4</ele>
        <time>2021-07-05 16:14:23</time>
      </trkpt>
      <trkpt lat="28.15192" lon="-14.23184">
        <ele>42.8</ele>
        <time>2021-07-05 16:14:24</time>
      </trkpt>
      <trkpt lat="28.15187" lon="-14.23187">
        <ele>42.8</ele>
        <time>2021-07-05 16:14:25</time>
      </trkpt>
      <trkpt lat="28.15183" lon="-14.2319">
        <ele>42.8</ele>
        <time>2021-07-05 16:14:26</time>
      </trkpt>
      <trkpt lat="28.15179" lon="-14.23193">
        <ele>42.8</ele>
        <time>2021-07-05 16:14:27</time>
      </trkpt>
      <trkpt lat="28.15175" lon="-14.23196">
        <ele>42.8</ele>
        <time>2021-07-05 16:14:28</time>
      </trkpt>
      <trkpt lat="28.15171" lon="-14.23199">
        <ele>43.4</ele>
        <time>2021-07-05 16:14:29</time>
      </trkpt>
      <trkpt lat="28.15167" lon="-14.23201">
        <ele>43.4</ele>
        <time>2021-07-05 16:14:30</time>
      </trkpt>
      <trkpt lat="28.15163" lon="-14.23204">
        <ele>43.6</ele>
        <time>2021-07-05 16:14:31</time>
      </trkpt>
      <trkpt lat="28.15159" lon="-14.23207">
        <ele>43.6</ele>
        <time>2021-07-05 16:14:32</time>
      </trkpt>
      <trkpt lat="28.15155" lon="-14.2321">
        <ele>44</ele>
        <time>2021-07-05 16:14:33</time>
      </trkpt>
      <trkpt lat="28.15151" lon="-14.23212">
        <ele>44.4</ele>
        <time>2021-07-05 16:14:34</time>
      </trkpt>
      <trkpt lat="28.15148" lon="-14.23215">
        <ele>44.4</ele>
        <time>2021-07-05 16:14:35</time>
      </trkpt>
      <trkpt lat="28.15145" lon="-14.23217">
        <ele>44.6</ele>
        <time>2021-07-05 16:14:36</time>
      </trkpt>
      <trkpt lat="28.15141" lon="-14.2322">
        <ele>44.6</ele>
        <time>2021-07-05 16:14:37</time>
      </trkpt>
      <trkpt lat="28.15138" lon="-14.23222">
        <ele>44.8</ele>
        <time>2021-07-05 16:14:38</time>
      </trkpt>
      <trkpt lat="28.15134" lon="-14.23225">
        <ele>44.8</ele>
        <time>2021-07-05 16:14:39</time>
      </trkpt>
      <trkpt lat="28.15132" lon="-14.23227">
        <ele>45</ele>
        <time>2021-07-05 16:14:40</time>
      </trkpt>
      <trkpt lat="28.15129" lon="-14.23229">
        <ele>45</ele>
        <time>2021-07-05 16:14:41</time>
      </trkpt>
      <trkpt lat="28.15126" lon="-14.23232">
        <ele>45.4</ele>
        <time>2021-07-05 16:14:42</time>
      </trkpt>
      <trkpt lat="28.15122" lon="-14.23234">
        <ele>45.4</ele>
        <time>2021-07-05 16:14:43</time>
      </trkpt>
      <trkpt lat="28.15119" lon="-14.23236">
        <ele>45.6</ele>
        <time>2021-07-05 16:14:44</time>
      </trkpt>
      <trkpt lat="28.15116" lon="-14.23238">
        <ele>45.6</ele>
        <time>2021-07-05 16:14:45</time>
      </trkpt>
      <trkpt lat="28.15113" lon="-14.2324">
        <ele>45.8</ele>
        <time>2021-07-05 16:14:46</time>
      </trkpt>
      <trkpt lat="28.1511" lon="-14.23242">
        <ele>45.8</ele>
        <time>2021-07-05 16:14:47</time>
      </trkpt>
      <trkpt lat="28.15107" lon="-14.23245">
        <ele>46.2</ele>
        <time>2021-07-05 16:14:48</time>
      </trkpt>
      <trkpt lat="28.15104" lon="-14.23247">
        <ele>46.2</ele>
        <time>2021-07-05 16:14:49</time>
      </trkpt>
      <trkpt lat="28.15101" lon="-14.2325">
        <ele>46.4</ele>
        <time>2021-07-05 16:14:50</time>
      </trkpt>
      <trkpt lat="28.15098" lon="-14.23252">
        <ele>46.4</ele>
        <time>2021-07-05 16:14:51</time>
      </trkpt>
      <trkpt lat="28.15096" lon="-14.23255">
        <ele>46.4</ele>
        <time>2021-07-05 16:14:52</time>
      </trkpt>
      <trkpt lat="28.15093" lon="-14.23258">
        <ele>46.6</ele>
        <time>2021-07-05 16:14:53</time>
      </trkpt>
      <trkpt lat="28.15091" lon="-14.2326">
        <ele>46.6</ele>
        <time>2021-07-05 16:14:54</time>
      </trkpt>
      <trkpt lat="28.15089" lon="-14.23263">
        <ele>46.6</ele>
        <time>2021-07-05 16:14:55</time>
      </trkpt>
      <trkpt lat="28.15087" lon="-14.23266">
        <ele>46.6</ele>
        <time>2021-07-05 16:14:56</time>
      </trkpt>
      <trkpt lat="28.15085" lon="-14.23268">
        <ele>46.6</ele>
        <time>2021-07-05 16:14:57</time>
      </trkpt>
      <trkpt lat="28.15083" lon="-14.23271">
        <ele>47</ele>
        <time>2021-07-05 16:14:58</time>
      </trkpt>
      <trkpt lat="28.15081" lon="-14.23274">
        <ele>47</ele>
        <time>2021-07-05 16:14:59</time>
      </trkpt>
      <trkpt lat="28.15079" lon="-14.23277">
        <ele>47</ele>
        <time>2021-07-05 16:15:00</time>
      </trkpt>
      <trkpt lat="28.15077" lon="-14.23281">
        <ele>47.2</ele>
        <time>2021-07-05 16:15:01</time>
      </trkpt>
      <trkpt lat="28.15075" lon="-14.23284">
        <ele>47.2</ele>
        <time>2021-07-05 16:15:02</time>
      </trkpt>
      <trkpt lat="28.15074" lon="-14.23288">
        <ele>47.6</ele>
        <time>2021-07-05 16:15:03</time>
      </trkpt>
      <trkpt lat="28.15072" lon="-14.23291">
        <ele>47.6</ele>
        <time>2021-07-05 16:15:04</time>
      </trkpt>
      <trkpt lat="28.1507" lon="-14.23295">
        <ele>47.8</ele>
        <time>2021-07-05 16:15:05</time>
      </trkpt>
      <trkpt lat="28.15068" lon="-14.23299">
        <ele>47.8</ele>
        <time>2021-07-05 16:15:06</time>
      </trkpt>
      <trkpt lat="28.15065" lon="-14.23302">
        <ele>47.8</ele>
        <time>2021-07-05 16:15:07</time>
      </trkpt>
      <trkpt lat="28.15063" lon="-14.23305">
        <ele>47.8</ele>
        <time>2021-07-05 16:15:08</time>
      </trkpt>
      <trkpt lat="28.15061" lon="-14.23309">
        <ele>47.8</ele>
        <time>2021-07-05 16:15:09</time>
      </trkpt>
      <trkpt lat="28.15058" lon="-14.23312">
        <ele>47.8</ele>
        <time>2021-07-05 16:15:10</time>
      </trkpt>
      <trkpt lat="28.15055" lon="-14.23316">
        <ele>47.4</ele>
        <time>2021-07-05 16:15:11</time>
      </trkpt>
      <trkpt lat="28.15053" lon="-14.23319">
        <ele>47.4</ele>
        <time>2021-07-05 16:15:12</time>
      </trkpt>
      <trkpt lat="28.1505" lon="-14.23322">
        <ele>47.4</ele>
        <time>2021-07-05 16:15:13</time>
      </trkpt>
      <trkpt lat="28.15047" lon="-14.23326">
        <ele>47.4</ele>
        <time>2021-07-05 16:15:14</time>
      </trkpt>
      <trkpt lat="28.15044" lon="-14.23329">
        <ele>47.8</ele>
        <time>2021-07-05 16:15:15</time>
      </trkpt>
      <trkpt lat="28.15041" lon="-14.23333">
        <ele>47.8</ele>
        <time>2021-07-05 16:15:16</time>
      </trkpt>
      <trkpt lat="28.15038" lon="-14.23336">
        <ele>48</ele>
        <time>2021-07-05 16:15:17</time>
      </trkpt>
      <trkpt lat="28.15035" lon="-14.2334">
        <ele>48</ele>
        <time>2021-07-05 16:15:18</time>
      </trkpt>
      <trkpt lat="28.15032" lon="-14.23343">
        <ele>48</ele>
        <time>2021-07-05 16:15:19</time>
      </trkpt>
      <trkpt lat="28.15029" lon="-14.23347">
        <ele>48</ele>
        <time>2021-07-05 16:15:20</time>
      </trkpt>
      <trkpt lat="28.15027" lon="-14.23351">
        <ele>48</ele>
        <time>2021-07-05 16:15:21</time>
      </trkpt>
      <trkpt lat="28.15024" lon="-14.23355">
        <ele>48</ele>
        <time>2021-07-05 16:15:22</time>
      </trkpt>
      <trkpt lat="28.15021" lon="-14.23359">
        <ele>48</ele>
        <time>2021-07-05 16:15:23</time>
      </trkpt>
      <trkpt lat="28.15019" lon="-14.23363">
        <ele>48</ele>
        <time>2021-07-05 16:15:24</time>
      </trkpt>
      <trkpt lat="28.15016" lon="-14.23367">
        <ele>48</ele>
        <time>2021-07-05 16:15:25</time>
      </trkpt>
      <trkpt lat="28.15013" lon="-14.23371">
        <ele>48</ele>
        <time>2021-07-05 16:15:26</time>
      </trkpt>
      <trkpt lat="28.15011" lon="-14.23375">
        <ele>48</ele>
        <time>2021-07-05 16:15:27</time>
      </trkpt>
      <trkpt lat="28.15007" lon="-14.23378">
        <ele>48.4</ele>
        <time>2021-07-05 16:15:28</time>
      </trkpt>
      <trkpt lat="28.15005" lon="-14.23382">
        <ele>48.4</ele>
        <time>2021-07-05 16:15:29</time>
      </trkpt>
      <trkpt lat="28.15003" lon="-14.23386">
        <ele>48.4</ele>
        <time>2021-07-05 16:15:30</time>
      </trkpt>
      <trkpt lat="28.15" lon="-14.2339">
        <ele>48.4</ele>
        <time>2021-07-05 16:15:31</time>
      </trkpt>
      <trkpt lat="28.14997" lon="-14.23394">
        <ele>48.4</ele>
        <time>2021-07-05 16:15:32</time>
      </trkpt>
      <trkpt lat="28.14995" lon="-14.23398">
        <ele>48.4</ele>
        <time>2021-07-05 16:15:33</time>
      </trkpt>
      <trkpt lat="28.14993" lon="-14.23402">
        <ele>48.4</ele>
        <time>2021-07-05 16:15:34</time>
      </trkpt>
      <trkpt lat="28.1499" lon="-14.23406">
        <ele>48.6</ele>
        <time>2021-07-05 16:15:35</time>
      </trkpt>
      <trkpt lat="28.14989" lon="-14.23409">
        <ele>48.6</ele>
        <time>2021-07-05 16:15:36</time>
      </trkpt>
      <trkpt lat="28.14986" lon="-14.23412">
        <ele>48.8</ele>
        <time>2021-07-05 16:15:37</time>
      </trkpt>
      <trkpt lat="28.14985" lon="-14.23415">
        <ele>48.8</ele>
        <time>2021-07-05 16:15:38</time>
      </trkpt>
      <trkpt lat="28.14983" lon="-14.23418">
        <ele>48.8</ele>
        <time>2021-07-05 16:15:39</time>
      </trkpt>
      <trkpt lat="28.14981" lon="-14.23421">
        <ele>49.4</ele>
        <time>2021-07-05 16:15:40</time>
      </trkpt>
      <trkpt lat="28.14979" lon="-14.23424">
        <ele>49.4</ele>
        <time>2021-07-05 16:15:41</time>
      </trkpt>
      <trkpt lat="28.14977" lon="-14.23427">
        <ele>49.8</ele>
        <time>2021-07-05 16:15:42</time>
      </trkpt>
      <trkpt lat="28.14975" lon="-14.2343">
        <ele>50</ele>
        <time>2021-07-05 16:15:43</time>
      </trkpt>
      <trkpt lat="28.14974" lon="-14.23433">
        <ele>50</ele>
        <time>2021-07-05 16:15:44</time>
      </trkpt>
      <trkpt lat="28.14972" lon="-14.23437">
        <ele>50.4</ele>
        <time>2021-07-05 16:15:45</time>
      </trkpt>
      <trkpt lat="28.1497" lon="-14.2344">
        <ele>50.4</ele>
        <time>2021-07-05 16:15:46</time>
      </trkpt>
      <trkpt lat="28.14968" lon="-14.23443">
        <ele>50.6</ele>
        <time>2021-07-05 16:15:47</time>
      </trkpt>
      <trkpt lat="28.14966" lon="-14.23445">
        <ele>50.6</ele>
        <time>2021-07-05 16:15:48</time>
      </trkpt>
      <trkpt lat="28.14964" lon="-14.23448">
        <ele>50.6</ele>
        <time>2021-07-05 16:15:49</time>
      </trkpt>
      <trkpt lat="28.14963" lon="-14.23451">
        <ele>51</ele>
        <time>2021-07-05 16:15:50</time>
      </trkpt>
      <trkpt lat="28.14961" lon="-14.23454">
        <ele>51</ele>
        <time>2021-07-05 16:15:51</time>
      </trkpt>
      <trkpt lat="28.14959" lon="-14.23457">
        <ele>51.2</ele>
        <time>2021-07-05 16:15:52</time>
      </trkpt>
      <trkpt lat="28.14958" lon="-14.2346">
        <ele>51.6</ele>
        <time>2021-07-05 16:15:53</time>
      </trkpt>
      <trkpt lat="28.14956" lon="-14.23463">
        <ele>51.6</ele>
        <time>2021-07-05 16:15:54</time>
      </trkpt>
      <trkpt lat="28.14954" lon="-14.23467">
        <ele>51.8</ele>
        <time>2021-07-05 16:15:55</time>
      </trkpt>
      <trkpt lat="28.14952" lon="-14.2347">
        <ele>52</ele>
        <time>2021-07-05 16:15:56</time>
      </trkpt>
      <trkpt lat="28.14951" lon="-14.23473">
        <ele>52</ele>
        <time>2021-07-05 16:15:57</time>
      </trkpt>
      <trkpt lat="28.14949" lon="-14.23476">
        <ele>52.4</ele>
        <time>2021-07-05 16:15:58</time>
      </trkpt>
      <trkpt lat="28.14947" lon="-14.23479">
        <ele>52.4</ele>
        <time>2021-07-05 16:15:59</time>
      </trkpt>
      <trkpt lat="28.14946" lon="-14.23483">
        <ele>52.4</ele>
        <time>2021-07-05 16:16:00</time>
      </trkpt>
      <trkpt lat="28.14944" lon="-14.23486">
        <ele>52.6</ele>
        <time>2021-07-05 16:16:01</time>
      </trkpt>
      <trkpt lat="28.14942" lon="-14.23489">
        <ele>52.6</ele>
        <time>2021-07-05 16:16:02</time>
      </trkpt>
      <trkpt lat="28.1494" lon="-14.23492">
        <ele>52.6</ele>
        <time>2021-07-05 16:16:03</time>
      </trkpt>
      <trkpt lat="28.14938" lon="-14.23496">
        <ele>52.6</ele>
        <time>2021-07-05 16:16:04</time>
      </trkpt>
      <trkpt lat="28.14937" lon="-14.23499">
        <ele>52.8</ele>
        <time>2021-07-05 16:16:05</time>
      </trkpt>
      <trkpt lat="28.14935" lon="-14.23502">
        <ele>52.8</ele>
        <time>2021-07-05 16:16:06</time>
      </trkpt>
      <trkpt lat="28.14933" lon="-14.23505">
        <ele>53</ele>
        <time>2021-07-05 16:16:07</time>
      </trkpt>
      <trkpt lat="28.14932" lon="-14.23508">
        <ele>53.2</ele>
        <time>2021-07-05 16:16:08</time>
      </trkpt>
      <trkpt lat="28.14931" lon="-14.23511">
        <ele>53.2</ele>
        <time>2021-07-05 16:16:09</time>
      </trkpt>
      <trkpt lat="28.14929" lon="-14.23515">
        <ele>53.2</ele>
        <time>2021-07-05 16:16:10</time>
      </trkpt>
      <trkpt lat="28.14928" lon="-14.23518">
        <ele>53.2</ele>
        <time>2021-07-05 16:16:11</time>
      </trkpt>
      <trkpt lat="28.14926" lon="-14.23521">
        <ele>53.4</ele>
        <time>2021-07-05 16:16:12</time>
      </trkpt>
      <trkpt lat="28.14924" lon="-14.23523">
        <ele>53.4</ele>
        <time>2021-07-05 16:16:13</time>
      </trkpt>
      <trkpt lat="28.14923" lon="-14.23527">
        <ele>53.4</ele>
        <time>2021-07-05 16:16:14</time>
      </trkpt>
      <trkpt lat="28.14921" lon="-14.2353">
        <ele>53.4</ele>
        <time>2021-07-05 16:16:15</time>
      </trkpt>
      <trkpt lat="28.14919" lon="-14.23533">
        <ele>53.4</ele>
        <time>2021-07-05 16:16:16</time>
      </trkpt>
      <trkpt lat="28.14918" lon="-14.23536">
        <ele>53.4</ele>
        <time>2021-07-05 16:16:17</time>
      </trkpt>
      <trkpt lat="28.14916" lon="-14.23539">
        <ele>53.4</ele>
        <time>2021-07-05 16:16:18</time>
      </trkpt>
      <trkpt lat="28.14915" lon="-14.23543">
        <ele>53.4</ele>
        <time>2021-07-05 16:16:19</time>
      </trkpt>
      <trkpt lat="28.14913" lon="-14.23546">
        <ele>53.4</ele>
        <time>2021-07-05 16:16:20</time>
      </trkpt>
      <trkpt lat="28.14912" lon="-14.2355">
        <ele>53.4</ele>
        <time>2021-07-05 16:16:21</time>
      </trkpt>
      <trkpt lat="28.14909" lon="-14.23553">
        <ele>53.4</ele>
        <time>2021-07-05 16:16:22</time>
      </trkpt>
      <trkpt lat="28.14907" lon="-14.23558">
        <ele>53.4</ele>
        <time>2021-07-05 16:16:23</time>
      </trkpt>
      <trkpt lat="28.14905" lon="-14.23563">
        <ele>53</ele>
        <time>2021-07-05 16:16:24</time>
      </trkpt>
      <trkpt lat="28.14903" lon="-14.23569">
        <ele>52.8</ele>
        <time>2021-07-05 16:16:25</time>
      </trkpt>
      <trkpt lat="28.14902" lon="-14.23575">
        <ele>52.8</ele>
        <time>2021-07-05 16:16:26</time>
      </trkpt>
      <trkpt lat="28.14901" lon="-14.23582">
        <ele>52.4</ele>
        <time>2021-07-05 16:16:27</time>
      </trkpt>
      <trkpt lat="28.14899" lon="-14.23589">
        <ele>52.2</ele>
        <time>2021-07-05 16:16:28</time>
      </trkpt>
      <trkpt lat="28.14899" lon="-14.23596">
        <ele>51.8</ele>
        <time>2021-07-05 16:16:29</time>
      </trkpt>
      <trkpt lat="28.14899" lon="-14.23604">
        <ele>51.6</ele>
        <time>2021-07-05 16:16:30</time>
      </trkpt>
      <trkpt lat="28.14899" lon="-14.23611">
        <ele>51.4</ele>
        <time>2021-07-05 16:16:31</time>
      </trkpt>
      <trkpt lat="28.14899" lon="-14.23618">
        <ele>51</ele>
        <time>2021-07-05 16:16:32</time>
      </trkpt>
      <trkpt lat="28.14899" lon="-14.23624">
        <ele>50.6</ele>
        <time>2021-07-05 16:16:33</time>
      </trkpt>
      <trkpt lat="28.14897" lon="-14.23629">
        <ele>50.6</ele>
        <time>2021-07-05 16:16:34</time>
      </trkpt>
      <trkpt lat="28.14894" lon="-14.23632">
        <ele>50.4</ele>
        <time>2021-07-05 16:16:35</time>
      </trkpt>
      <trkpt lat="28.14889" lon="-14.23633">
        <ele>50.4</ele>
        <time>2021-07-05 16:16:36</time>
      </trkpt>
      <trkpt lat="28.14885" lon="-14.23633">
        <ele>50.8</ele>
        <time>2021-07-05 16:16:37</time>
      </trkpt>
      <trkpt lat="28.14881" lon="-14.23634">
        <ele>50.8</ele>
        <time>2021-07-05 16:16:38</time>
      </trkpt>
      <trkpt lat="28.14878" lon="-14.23635">
        <ele>50.8</ele>
        <time>2021-07-05 16:16:39</time>
      </trkpt>
      <trkpt lat="28.14874" lon="-14.23637">
        <ele>50.8</ele>
        <time>2021-07-05 16:16:40</time>
      </trkpt>
      <trkpt lat="28.1487" lon="-14.23637">
        <ele>50.8</ele>
        <time>2021-07-05 16:16:41</time>
      </trkpt>
      <trkpt lat="28.14866" lon="-14.23638">
        <ele>50.8</ele>
        <time>2021-07-05 16:16:42</time>
      </trkpt>
      <trkpt lat="28.14863" lon="-14.2364">
        <ele>50.8</ele>
        <time>2021-07-05 16:16:43</time>
      </trkpt>
      <trkpt lat="28.14858" lon="-14.23641">
        <ele>49.8</ele>
        <time>2021-07-05 16:16:44</time>
      </trkpt>
      <trkpt lat="28.14854" lon="-14.23646">
        <ele>49.8</ele>
        <time>2021-07-05 16:16:45</time>
      </trkpt>
      <trkpt lat="28.14849" lon="-14.23651">
        <ele>49.2</ele>
        <time>2021-07-05 16:16:46</time>
      </trkpt>
      <trkpt lat="28.14845" lon="-14.23657">
        <ele>48.8</ele>
        <time>2021-07-05 16:16:47</time>
      </trkpt>
      <trkpt lat="28.14841" lon="-14.23663">
        <ele>48.2</ele>
        <time>2021-07-05 16:16:48</time>
      </trkpt>
      <trkpt lat="28.14837" lon="-14.23669">
        <ele>47.4</ele>
        <time>2021-07-05 16:16:49</time>
      </trkpt>
      <trkpt lat="28.14833" lon="-14.23675">
        <ele>47.4</ele>
        <time>2021-07-05 16:16:50</time>
      </trkpt>
      <trkpt lat="28.1483" lon="-14.23681">
        <ele>46.8</ele>
        <time>2021-07-05 16:16:51</time>
      </trkpt>
      <trkpt lat="28.14828" lon="-14.23687">
        <ele>46.4</ele>
        <time>2021-07-05 16:16:52</time>
      </trkpt>
      <trkpt lat="28.14825" lon="-14.23692">
        <ele>45.8</ele>
        <time>2021-07-05 16:16:53</time>
      </trkpt>
      <trkpt lat="28.14823" lon="-14.23697">
        <ele>45.6</ele>
        <time>2021-07-05 16:16:54</time>
      </trkpt>
      <trkpt lat="28.14821" lon="-14.23702">
        <ele>45.6</ele>
        <time>2021-07-05 16:16:55</time>
      </trkpt>
      <trkpt lat="28.14818" lon="-14.23707">
        <ele>45.6</ele>
        <time>2021-07-05 16:16:56</time>
      </trkpt>
      <trkpt lat="28.14815" lon="-14.23711">
        <ele>46</ele>
        <time>2021-07-05 16:16:57</time>
      </trkpt>
      <trkpt lat="28.14812" lon="-14.23715">
        <ele>46</ele>
        <time>2021-07-05 16:16:58</time>
      </trkpt>
      <trkpt lat="28.14808" lon="-14.23718">
        <ele>46.2</ele>
        <time>2021-07-05 16:16:59</time>
      </trkpt>
      <trkpt lat="28.14803" lon="-14.2372">
        <ele>46.2</ele>
        <time>2021-07-05 16:17:00</time>
      </trkpt>
      <trkpt lat="28.14799" lon="-14.23721">
        <ele>46.2</ele>
        <time>2021-07-05 16:17:01</time>
      </trkpt>
      <trkpt lat="28.14794" lon="-14.23723">
        <ele>46.2</ele>
        <time>2021-07-05 16:17:02</time>
      </trkpt>
      <trkpt lat="28.14789" lon="-14.23726">
        <ele>46.2</ele>
        <time>2021-07-05 16:17:03</time>
      </trkpt>
      <trkpt lat="28.14784" lon="-14.23728">
        <ele>46.2</ele>
        <time>2021-07-05 16:17:04</time>
      </trkpt>
      <trkpt lat="28.14779" lon="-14.23729">
        <ele>46.2</ele>
        <time>2021-07-05 16:17:05</time>
      </trkpt>
      <trkpt lat="28.14774" lon="-14.23731">
        <ele>46.2</ele>
        <time>2021-07-05 16:17:06</time>
      </trkpt>
      <trkpt lat="28.1477" lon="-14.23735">
        <ele>46.2</ele>
        <time>2021-07-05 16:17:07</time>
      </trkpt>
      <trkpt lat="28.14765" lon="-14.23738">
        <ele>46</ele>
        <time>2021-07-05 16:17:08</time>
      </trkpt>
      <trkpt lat="28.1476" lon="-14.23742">
        <ele>46</ele>
        <time>2021-07-05 16:17:09</time>
      </trkpt>
      <trkpt lat="28.14754" lon="-14.23745">
        <ele>45.6</ele>
        <time>2021-07-05 16:17:10</time>
      </trkpt>
      <trkpt lat="28.14746" lon="-14.23746">
        <ele>45.6</ele>
        <time>2021-07-05 16:17:11</time>
      </trkpt>
      <trkpt lat="28.14738" lon="-14.23748">
        <ele>45</ele>
        <time>2021-07-05 16:17:12</time>
      </trkpt>
      <trkpt lat="28.1473" lon="-14.23751">
        <ele>44</ele>
        <time>2021-07-05 16:17:13</time>
      </trkpt>
      <trkpt lat="28.14722" lon="-14.23754">
        <ele>44</ele>
        <time>2021-07-05 16:17:14</time>
      </trkpt>
      <trkpt lat="28.14714" lon="-14.23758">
        <ele>43.4</ele>
        <time>2021-07-05 16:17:15</time>
      </trkpt>
      <trkpt lat="28.14705" lon="-14.23761">
        <ele>43.2</ele>
        <time>2021-07-05 16:17:16</time>
      </trkpt>
      <trkpt lat="28.14697" lon="-14.23765">
        <ele>42.8</ele>
        <time>2021-07-05 16:17:17</time>
      </trkpt>
      <trkpt lat="28.14689" lon="-14.23768">
        <ele>42.2</ele>
        <time>2021-07-05 16:17:18</time>
      </trkpt>
      <trkpt lat="28.14681" lon="-14.2377">
        <ele>41.8</ele>
        <time>2021-07-05 16:17:19</time>
      </trkpt>
      <trkpt lat="28.14673" lon="-14.23773">
        <ele>41.6</ele>
        <time>2021-07-05 16:17:20</time>
      </trkpt>
      <trkpt lat="28.14665" lon="-14.23775">
        <ele>41.6</ele>
        <time>2021-07-05 16:17:21</time>
      </trkpt>
      <trkpt lat="28.14657" lon="-14.23777">
        <ele>41.2</ele>
        <time>2021-07-05 16:17:22</time>
      </trkpt>
      <trkpt lat="28.14649" lon="-14.2378">
        <ele>40.8</ele>
        <time>2021-07-05 16:17:23</time>
      </trkpt>
      <trkpt lat="28.1464" lon="-14.23783">
        <ele>40.6</ele>
        <time>2021-07-05 16:17:24</time>
      </trkpt>
      <trkpt lat="28.14632" lon="-14.23786">
        <ele>40.4</ele>
        <time>2021-07-05 16:17:25</time>
      </trkpt>
      <trkpt lat="28.14624" lon="-14.23789">
        <ele>40</ele>
        <time>2021-07-05 16:17:26</time>
      </trkpt>
      <trkpt lat="28.14616" lon="-14.23793">
        <ele>39.6</ele>
        <time>2021-07-05 16:17:27</time>
      </trkpt>
      <trkpt lat="28.14608" lon="-14.23797">
        <ele>39.4</ele>
        <time>2021-07-05 16:17:28</time>
      </trkpt>
      <trkpt lat="28.14601" lon="-14.23801">
        <ele>39</ele>
        <time>2021-07-05 16:17:29</time>
      </trkpt>
      <trkpt lat="28.14594" lon="-14.23806">
        <ele>38.6</ele>
        <time>2021-07-05 16:17:30</time>
      </trkpt>
      <trkpt lat="28.14588" lon="-14.23812">
        <ele>38.2</ele>
        <time>2021-07-05 16:17:31</time>
      </trkpt>
      <trkpt lat="28.14582" lon="-14.23817">
        <ele>38.2</ele>
        <time>2021-07-05 16:17:32</time>
      </trkpt>
      <trkpt lat="28.14576" lon="-14.23823">
        <ele>38.2</ele>
        <time>2021-07-05 16:17:33</time>
      </trkpt>
      <trkpt lat="28.1457" lon="-14.23827">
        <ele>38.6</ele>
        <time>2021-07-05 16:17:34</time>
      </trkpt>
      <trkpt lat="28.14564" lon="-14.2383">
        <ele>38.6</ele>
        <time>2021-07-05 16:17:35</time>
      </trkpt>
      <trkpt lat="28.14559" lon="-14.23833">
        <ele>39</ele>
        <time>2021-07-05 16:17:36</time>
      </trkpt>
      <trkpt lat="28.14554" lon="-14.23836">
        <ele>39.2</ele>
        <time>2021-07-05 16:17:37</time>
      </trkpt>
      <trkpt lat="28.1455" lon="-14.23839">
        <ele>39.2</ele>
        <time>2021-07-05 16:17:38</time>
      </trkpt>
      <trkpt lat="28.14547" lon="-14.23841">
        <ele>39.6</ele>
        <time>2021-07-05 16:17:39</time>
      </trkpt>
      <trkpt lat="28.14543" lon="-14.23842">
        <ele>39.8</ele>
        <time>2021-07-05 16:17:40</time>
      </trkpt>
      <trkpt lat="28.14541" lon="-14.23844">
        <ele>40.2</ele>
        <time>2021-07-05 16:17:41</time>
      </trkpt>
      <trkpt lat="28.14538" lon="-14.23846">
        <ele>40.6</ele>
        <time>2021-07-05 16:17:42</time>
      </trkpt>
      <trkpt lat="28.14536" lon="-14.23848">
        <ele>41.4</ele>
        <time>2021-07-05 16:17:43</time>
      </trkpt>
      <trkpt lat="28.14534" lon="-14.2385">
        <ele>41.4</ele>
        <time>2021-07-05 16:17:44</time>
      </trkpt>
      <trkpt lat="28.14532" lon="-14.23851">
        <ele>41.8</ele>
        <time>2021-07-05 16:17:45</time>
      </trkpt>
      <trkpt lat="28.14529" lon="-14.23852">
        <ele>42</ele>
        <time>2021-07-05 16:17:46</time>
      </trkpt>
      <trkpt lat="28.14528" lon="-14.23854">
        <ele>42.2</ele>
        <time>2021-07-05 16:17:47</time>
      </trkpt>
      <trkpt lat="28.14526" lon="-14.23855">
        <ele>42.2</ele>
        <time>2021-07-05 16:17:48</time>
      </trkpt>
      <trkpt lat="28.14524" lon="-14.23856">
        <ele>42.8</ele>
        <time>2021-07-05 16:17:49</time>
      </trkpt>
      <trkpt lat="28.14522" lon="-14.23857">
        <ele>43</ele>
        <time>2021-07-05 16:17:50</time>
      </trkpt>
      <trkpt lat="28.14521" lon="-14.23859">
        <ele>43.4</ele>
        <time>2021-07-05 16:17:51</time>
      </trkpt>
      <trkpt lat="28.14519" lon="-14.2386">
        <ele>43.8</ele>
        <time>2021-07-05 16:17:52</time>
      </trkpt>
      <trkpt lat="28.14518" lon="-14.23862">
        <ele>44.4</ele>
        <time>2021-07-05 16:17:53</time>
      </trkpt>
      <trkpt lat="28.14516" lon="-14.23864">
        <ele>44.8</ele>
        <time>2021-07-05 16:17:54</time>
      </trkpt>
      <trkpt lat="28.14514" lon="-14.23866">
        <ele>44.8</ele>
        <time>2021-07-05 16:17:55</time>
      </trkpt>
      <trkpt lat="28.14512" lon="-14.23868">
        <ele>45</ele>
        <time>2021-07-05 16:17:56</time>
      </trkpt>
      <trkpt lat="28.1451" lon="-14.2387">
        <ele>45</ele>
        <time>2021-07-05 16:17:57</time>
      </trkpt>
      <trkpt lat="28.14508" lon="-14.23873">
        <ele>45</ele>
        <time>2021-07-05 16:17:58</time>
      </trkpt>
      <trkpt lat="28.14506" lon="-14.23875">
        <ele>45</ele>
        <time>2021-07-05 16:17:59</time>
      </trkpt>
      <trkpt lat="28.14503" lon="-14.23876">
        <ele>44.6</ele>
        <time>2021-07-05 16:18:00</time>
      </trkpt>
      <trkpt lat="28.145" lon="-14.23878">
        <ele>44.6</ele>
        <time>2021-07-05 16:18:01</time>
      </trkpt>
      <trkpt lat="28.14498" lon="-14.23879">
        <ele>44.6</ele>
        <time>2021-07-05 16:18:02</time>
      </trkpt>
      <trkpt lat="28.14495" lon="-14.23881">
        <ele>44.6</ele>
        <time>2021-07-05 16:18:03</time>
      </trkpt>
      <trkpt lat="28.14493" lon="-14.23883">
        <ele>44.6</ele>
        <time>2021-07-05 16:18:04</time>
      </trkpt>
      <trkpt lat="28.1449" lon="-14.23884">
        <ele>44.6</ele>
        <time>2021-07-05 16:18:05</time>
      </trkpt>
      <trkpt lat="28.14488" lon="-14.23886">
        <ele>44.6</ele>
        <time>2021-07-05 16:18:06</time>
      </trkpt>
      <trkpt lat="28.14485" lon="-14.23888">
        <ele>44.2</ele>
        <time>2021-07-05 16:18:07</time>
      </trkpt>
      <trkpt lat="28.14483" lon="-14.23889">
        <ele>44.2</ele>
        <time>2021-07-05 16:18:08</time>
      </trkpt>
      <trkpt lat="28.14481" lon="-14.23891">
        <ele>44.2</ele>
        <time>2021-07-05 16:18:09</time>
      </trkpt>
      <trkpt lat="28.14479" lon="-14.23892">
        <ele>44</ele>
        <time>2021-07-05 16:18:10</time>
      </trkpt>
      <trkpt lat="28.14478" lon="-14.23893">
        <ele>44</ele>
        <time>2021-07-05 16:18:11</time>
      </trkpt>
      <trkpt lat="28.14476" lon="-14.23894">
        <ele>44</ele>
        <time>2021-07-05 16:18:12</time>
      </trkpt>
      <trkpt lat="28.14474" lon="-14.23896">
        <ele>44</ele>
        <time>2021-07-05 16:18:13</time>
      </trkpt>
      <trkpt lat="28.14472" lon="-14.23898">
        <ele>44.2</ele>
        <time>2021-07-05 16:18:14</time>
      </trkpt>
      <trkpt lat="28.1447" lon="-14.23899">
        <ele>44.4</ele>
        <time>2021-07-05 16:18:15</time>
      </trkpt>
      <trkpt lat="28.14469" lon="-14.23901">
        <ele>44.4</ele>
        <time>2021-07-05 16:18:16</time>
      </trkpt>
      <trkpt lat="28.14467" lon="-14.23903">
        <ele>44.4</ele>
        <time>2021-07-05 16:18:17</time>
      </trkpt>
      <trkpt lat="28.14465" lon="-14.23905">
        <ele>45</ele>
        <time>2021-07-05 16:18:18</time>
      </trkpt>
      <trkpt lat="28.14462" lon="-14.23906">
        <ele>45.4</ele>
        <time>2021-07-05 16:18:19</time>
      </trkpt>
      <trkpt lat="28.1446" lon="-14.23908">
        <ele>45.6</ele>
        <time>2021-07-05 16:18:20</time>
      </trkpt>
      <trkpt lat="28.14458" lon="-14.23909">
        <ele>46</ele>
        <time>2021-07-05 16:18:21</time>
      </trkpt>
      <trkpt lat="28.14456" lon="-14.23911">
        <ele>46.4</ele>
        <time>2021-07-05 16:18:22</time>
      </trkpt>
      <trkpt lat="28.14453" lon="-14.23912">
        <ele>46.8</ele>
        <time>2021-07-05 16:18:23</time>
      </trkpt>
      <trkpt lat="28.14451" lon="-14.23914">
        <ele>47.2</ele>
        <time>2021-07-05 16:18:24</time>
      </trkpt>
      <trkpt lat="28.14448" lon="-14.23916">
        <ele>47.4</ele>
        <time>2021-07-05 16:18:25</time>
      </trkpt>
      <trkpt lat="28.14445" lon="-14.23917">
        <ele>47.8</ele>
        <time>2021-07-05 16:18:26</time>
      </trkpt>
      <trkpt lat="28.14442" lon="-14.23919">
        <ele>47.8</ele>
        <time>2021-07-05 16:18:27</time>
      </trkpt>
      <trkpt lat="28.14439" lon="-14.2392">
        <ele>47.8</ele>
        <time>2021-07-05 16:18:28</time>
      </trkpt>
      <trkpt lat="28.14436" lon="-14.23921">
        <ele>47.8</ele>
        <time>2021-07-05 16:18:29</time>
      </trkpt>
      <trkpt lat="28.14432" lon="-14.23923">
        <ele>47.8</ele>
        <time>2021-07-05 16:18:30</time>
      </trkpt>
      <trkpt lat="28.14428" lon="-14.23924">
        <ele>47.6</ele>
        <time>2021-07-05 16:18:31</time>
      </trkpt>
      <trkpt lat="28.14424" lon="-14.23926">
        <ele>47.6</ele>
        <time>2021-07-05 16:18:32</time>
      </trkpt>
      <trkpt lat="28.14419" lon="-14.23927">
        <ele>47.4</ele>
        <time>2021-07-05 16:18:33</time>
      </trkpt>
      <trkpt lat="28.14414" lon="-14.23928">
        <ele>47</ele>
        <time>2021-07-05 16:18:34</time>
      </trkpt>
      <trkpt lat="28.14409" lon="-14.23929">
        <ele>47</ele>
        <time>2021-07-05 16:18:35</time>
      </trkpt>
      <trkpt lat="28.14404" lon="-14.2393">
        <ele>46.6</ele>
        <time>2021-07-05 16:18:36</time>
      </trkpt>
      <trkpt lat="28.14399" lon="-14.23931">
        <ele>46.4</ele>
        <time>2021-07-05 16:18:37</time>
      </trkpt>
      <trkpt lat="28.14394" lon="-14.23933">
        <ele>46.4</ele>
        <time>2021-07-05 16:18:38</time>
      </trkpt>
      <trkpt lat="28.14389" lon="-14.23934">
        <ele>46.4</ele>
        <time>2021-07-05 16:18:39</time>
      </trkpt>
      <trkpt lat="28.14384" lon="-14.23936">
        <ele>46</ele>
        <time>2021-07-05 16:18:40</time>
      </trkpt>
      <trkpt lat="28.1438" lon="-14.23938">
        <ele>46</ele>
        <time>2021-07-05 16:18:41</time>
      </trkpt>
      <trkpt lat="28.14375" lon="-14.23939">
        <ele>45.8</ele>
        <time>2021-07-05 16:18:42</time>
      </trkpt>
      <trkpt lat="28.1437" lon="-14.2394">
        <ele>45.8</ele>
        <time>2021-07-05 16:18:43</time>
      </trkpt>
      <trkpt lat="28.14366" lon="-14.23941">
        <ele>45.4</ele>
        <time>2021-07-05 16:18:44</time>
      </trkpt>
      <trkpt lat="28.14361" lon="-14.23942">
        <ele>45.4</ele>
        <time>2021-07-05 16:18:45</time>
      </trkpt>
      <trkpt lat="28.14356" lon="-14.23944">
        <ele>45.4</ele>
        <time>2021-07-05 16:18:46</time>
      </trkpt>
      <trkpt lat="28.14351" lon="-14.23946">
        <ele>45.4</ele>
        <time>2021-07-05 16:18:47</time>
      </trkpt>
      <trkpt lat="28.14346" lon="-14.23948">
        <ele>45.4</ele>
        <time>2021-07-05 16:18:48</time>
      </trkpt>
      <trkpt lat="28.14341" lon="-14.2395">
        <ele>45.4</ele>
        <time>2021-07-05 16:18:49</time>
      </trkpt>
      <trkpt lat="28.14336" lon="-14.23953">
        <ele>45.4</ele>
        <time>2021-07-05 16:18:50</time>
      </trkpt>
      <trkpt lat="28.14331" lon="-14.23956">
        <ele>45.4</ele>
        <time>2021-07-05 16:18:51</time>
      </trkpt>
      <trkpt lat="28.14326" lon="-14.23958">
        <ele>46</ele>
        <time>2021-07-05 16:18:52</time>
      </trkpt>
      <trkpt lat="28.14323" lon="-14.2396">
        <ele>46</ele>
        <time>2021-07-05 16:18:53</time>
      </trkpt>
      <trkpt lat="28.14319" lon="-14.23962">
        <ele>46.4</ele>
        <time>2021-07-05 16:18:54</time>
      </trkpt>
      <trkpt lat="28.14316" lon="-14.23964">
        <ele>46.8</ele>
        <time>2021-07-05 16:18:55</time>
      </trkpt>
      <trkpt lat="28.14314" lon="-14.23967">
        <ele>47</ele>
        <time>2021-07-05 16:18:56</time>
      </trkpt>
      <trkpt lat="28.14311" lon="-14.23969">
        <ele>47.4</ele>
        <time>2021-07-05 16:18:57</time>
      </trkpt>
      <trkpt lat="28.14309" lon="-14.23971">
        <ele>47.4</ele>
        <time>2021-07-05 16:18:58</time>
      </trkpt>
      <trkpt lat="28.14307" lon="-14.23973">
        <ele>47.8</ele>
        <time>2021-07-05 16:18:59</time>
      </trkpt>
      <trkpt lat="28.14304" lon="-14.23976">
        <ele>48.4</ele>
        <time>2021-07-05 16:19:00</time>
      </trkpt>
      <trkpt lat="28.14302" lon="-14.23978">
        <ele>48.8</ele>
        <time>2021-07-05 16:19:01</time>
      </trkpt>
      <trkpt lat="28.14299" lon="-14.23981">
        <ele>49.4</ele>
        <time>2021-07-05 16:19:02</time>
      </trkpt>
      <trkpt lat="28.14297" lon="-14.23983">
        <ele>49.6</ele>
        <time>2021-07-05 16:19:03</time>
      </trkpt>
      <trkpt lat="28.14294" lon="-14.23985">
        <ele>49.8</ele>
        <time>2021-07-05 16:19:04</time>
      </trkpt>
      <trkpt lat="28.14291" lon="-14.23988">
        <ele>49.8</ele>
        <time>2021-07-05 16:19:05</time>
      </trkpt>
      <trkpt lat="28.14288" lon="-14.2399">
        <ele>50.2</ele>
        <time>2021-07-05 16:19:06</time>
      </trkpt>
      <trkpt lat="28.14285" lon="-14.23992">
        <ele>50.2</ele>
        <time>2021-07-05 16:19:07</time>
      </trkpt>
      <trkpt lat="28.14281" lon="-14.23993">
        <ele>50.4</ele>
        <time>2021-07-05 16:19:08</time>
      </trkpt>
      <trkpt lat="28.14278" lon="-14.23995">
        <ele>50.4</ele>
        <time>2021-07-05 16:19:09</time>
      </trkpt>
      <trkpt lat="28.14275" lon="-14.23996">
        <ele>50.8</ele>
        <time>2021-07-05 16:19:10</time>
      </trkpt>
      <trkpt lat="28.14271" lon="-14.23998">
        <ele>51</ele>
        <time>2021-07-05 16:19:11</time>
      </trkpt>
      <trkpt lat="28.14268" lon="-14.23999">
        <ele>51</ele>
        <time>2021-07-05 16:19:12</time>
      </trkpt>
      <trkpt lat="28.14265" lon="-14.24001">
        <ele>51.2</ele>
        <time>2021-07-05 16:19:13</time>
      </trkpt>
      <trkpt lat="28.14262" lon="-14.24002">
        <ele>51.2</ele>
        <time>2021-07-05 16:19:14</time>
      </trkpt>
      <trkpt lat="28.14259" lon="-14.24003">
        <ele>51.2</ele>
        <time>2021-07-05 16:19:15</time>
      </trkpt>
      <trkpt lat="28.14256" lon="-14.24005">
        <ele>51.4</ele>
        <time>2021-07-05 16:19:16</time>
      </trkpt>
      <trkpt lat="28.14252" lon="-14.24006">
        <ele>51.4</ele>
        <time>2021-07-05 16:19:17</time>
      </trkpt>
      <trkpt lat="28.14249" lon="-14.24006">
        <ele>51.4</ele>
        <time>2021-07-05 16:19:18</time>
      </trkpt>
      <trkpt lat="28.14245" lon="-14.24007">
        <ele>51.4</ele>
        <time>2021-07-05 16:19:19</time>
      </trkpt>
      <trkpt lat="28.14241" lon="-14.24007">
        <ele>51.4</ele>
        <time>2021-07-05 16:19:20</time>
      </trkpt>
      <trkpt lat="28.14236" lon="-14.24007">
        <ele>51.4</ele>
        <time>2021-07-05 16:19:21</time>
      </trkpt>
      <trkpt lat="28.14232" lon="-14.24005">
        <ele>51.2</ele>
        <time>2021-07-05 16:19:22</time>
      </trkpt>
      <trkpt lat="28.14228" lon="-14.24004">
        <ele>51.2</ele>
        <time>2021-07-05 16:19:23</time>
      </trkpt>
      <trkpt lat="28.14223" lon="-14.24003">
        <ele>50.8</ele>
        <time>2021-07-05 16:19:24</time>
      </trkpt>
      <trkpt lat="28.14219" lon="-14.24001">
        <ele>50.8</ele>
        <time>2021-07-05 16:19:25</time>
      </trkpt>
      <trkpt lat="28.14214" lon="-14.23999">
        <ele>50.4</ele>
        <time>2021-07-05 16:19:26</time>
      </trkpt>
      <trkpt lat="28.1421" lon="-14.23997">
        <ele>50</ele>
        <time>2021-07-05 16:19:27</time>
      </trkpt>
      <trkpt lat="28.14205" lon="-14.23995">
        <ele>49.6</ele>
        <time>2021-07-05 16:19:28</time>
      </trkpt>
      <trkpt lat="28.142" lon="-14.23993">
        <ele>49.2</ele>
        <time>2021-07-05 16:19:29</time>
      </trkpt>
      <trkpt lat="28.14195" lon="-14.2399">
        <ele>48.2</ele>
        <time>2021-07-05 16:19:30</time>
      </trkpt>
      <trkpt lat="28.1419" lon="-14.23987">
        <ele>48.2</ele>
        <time>2021-07-05 16:19:31</time>
      </trkpt>
      <trkpt lat="28.14184" lon="-14.23984">
        <ele>47.6</ele>
        <time>2021-07-05 16:19:32</time>
      </trkpt>
      <trkpt lat="28.14178" lon="-14.23981">
        <ele>46.2</ele>
        <time>2021-07-05 16:19:33</time>
      </trkpt>
      <trkpt lat="28.14171" lon="-14.23979">
        <ele>46.2</ele>
        <time>2021-07-05 16:19:34</time>
      </trkpt>
      <trkpt lat="28.14165" lon="-14.23976">
        <ele>45.6</ele>
        <time>2021-07-05 16:19:35</time>
      </trkpt>
      <trkpt lat="28.14157" lon="-14.23974">
        <ele>45</ele>
        <time>2021-07-05 16:19:36</time>
      </trkpt>
      <trkpt lat="28.14149" lon="-14.23972">
        <ele>44</ele>
        <time>2021-07-05 16:19:37</time>
      </trkpt>
      <trkpt lat="28.14141" lon="-14.23972">
        <ele>43.2</ele>
        <time>2021-07-05 16:19:38</time>
      </trkpt>
      <trkpt lat="28.14133" lon="-14.23971">
        <ele>42.4</ele>
        <time>2021-07-05 16:19:39</time>
      </trkpt>
      <trkpt lat="28.14126" lon="-14.23972">
        <ele>41</ele>
        <time>2021-07-05 16:19:40</time>
      </trkpt>
      <trkpt lat="28.14119" lon="-14.23973">
        <ele>40.6</ele>
        <time>2021-07-05 16:19:41</time>
      </trkpt>
      <trkpt lat="28.14112" lon="-14.23975">
        <ele>40.6</ele>
        <time>2021-07-05 16:19:42</time>
      </trkpt>
      <trkpt lat="28.14106" lon="-14.23978">
        <ele>40.4</ele>
        <time>2021-07-05 16:19:43</time>
      </trkpt>
      <trkpt lat="28.14101" lon="-14.23982">
        <ele>40</ele>
        <time>2021-07-05 16:19:44</time>
      </trkpt>
      <trkpt lat="28.14095" lon="-14.23985">
        <ele>40</ele>
        <time>2021-07-05 16:19:45</time>
      </trkpt>
      <trkpt lat="28.14089" lon="-14.23988">
        <ele>40</ele>
        <time>2021-07-05 16:19:46</time>
      </trkpt>
      <trkpt lat="28.14083" lon="-14.23991">
        <ele>40</ele>
        <time>2021-07-05 16:19:47</time>
      </trkpt>
      <trkpt lat="28.14077" lon="-14.23994">
        <ele>40</ele>
        <time>2021-07-05 16:19:48</time>
      </trkpt>
      <trkpt lat="28.1407" lon="-14.23997">
        <ele>40</ele>
        <time>2021-07-05 16:19:49</time>
      </trkpt>
      <trkpt lat="28.14065" lon="-14.23999">
        <ele>39.6</ele>
        <time>2021-07-05 16:19:50</time>
      </trkpt>
      <trkpt lat="28.1406" lon="-14.24001">
        <ele>39.6</ele>
        <time>2021-07-05 16:19:51</time>
      </trkpt>
      <trkpt lat="28.14055" lon="-14.24002">
        <ele>39.2</ele>
        <time>2021-07-05 16:19:52</time>
      </trkpt>
      <trkpt lat="28.1405" lon="-14.24004">
        <ele>39.2</ele>
        <time>2021-07-05 16:19:53</time>
      </trkpt>
      <trkpt lat="28.14046" lon="-14.24006">
        <ele>39</ele>
        <time>2021-07-05 16:19:54</time>
      </trkpt>
      <trkpt lat="28.14041" lon="-14.24007">
        <ele>39</ele>
        <time>2021-07-05 16:19:55</time>
      </trkpt>
      <trkpt lat="28.14037" lon="-14.24009">
        <ele>38.8</ele>
        <time>2021-07-05 16:19:56</time>
      </trkpt>
      <trkpt lat="28.14033" lon="-14.2401">
        <ele>38.8</ele>
        <time>2021-07-05 16:19:57</time>
      </trkpt>
      <trkpt lat="28.14031" lon="-14.24011">
        <ele>38.8</ele>
        <time>2021-07-05 16:19:58</time>
      </trkpt>
      <trkpt lat="28.14029" lon="-14.24012">
        <ele>38.8</ele>
        <time>2021-07-05 16:19:59</time>
      </trkpt>
      <trkpt lat="28.14028" lon="-14.24012">
        <ele>38.4</ele>
        <time>2021-07-05 16:20:00</time>
      </trkpt>
      <trkpt lat="28.14028" lon="-14.24012">
        <ele>38.4</ele>
        <time>2021-07-05 16:20:01</time>
      </trkpt>
      <trkpt lat="28.14028" lon="-14.24012">
        <ele>38.4</ele>
        <time>2021-07-05 16:20:02</time>
      </trkpt>
      <trkpt lat="28.14028" lon="-14.24012">
        <ele>38.4</ele>
        <time>2021-07-05 16:20:03</time>
      </trkpt>
      <trkpt lat="28.14028" lon="-14.24012">
        <ele>38.4</ele>
        <time>2021-07-05 16:20:04</time>
      </trkpt>
      <trkpt lat="28.14023" lon="-14.24014">
        <ele>41.6</ele>
        <time>2021-07-05 16:20:05</time>
      </trkpt>
      <trkpt lat="28.1402" lon="-14.24015">
        <ele>40.4</ele>
        <time>2021-07-05 16:20:06</time>
      </trkpt>
      <trkpt lat="28.14017" lon="-14.24016">
        <ele>40.4</ele>
        <time>2021-07-05 16:21:25</time>
      </trkpt>
      <trkpt lat="28.14013" lon="-14.24017">
        <ele>40</ele>
        <time>2021-07-05 16:21:26</time>
      </trkpt>
      <trkpt lat="28.1401" lon="-14.2402">
        <ele>39.6</ele>
        <time>2021-07-05 16:21:27</time>
      </trkpt>
      <trkpt lat="28.14008" lon="-14.24025">
        <ele>39.2</ele>
        <time>2021-07-05 16:21:28</time>
      </trkpt>
      <trkpt lat="28.14005" lon="-14.24029">
        <ele>39</ele>
        <time>2021-07-05 16:21:29</time>
      </trkpt>
      <trkpt lat="28.14002" lon="-14.24033">
        <ele>38.6</ele>
        <time>2021-07-05 16:21:30</time>
      </trkpt>
      <trkpt lat="28.13998" lon="-14.24036">
        <ele>38.2</ele>
        <time>2021-07-05 16:21:31</time>
      </trkpt>
      <trkpt lat="28.13994" lon="-14.2404">
        <ele>38</ele>
        <time>2021-07-05 16:21:32</time>
      </trkpt>
      <trkpt lat="28.1399" lon="-14.24043">
        <ele>37.8</ele>
        <time>2021-07-05 16:21:33</time>
      </trkpt>
      <trkpt lat="28.13986" lon="-14.24047">
        <ele>37.8</ele>
        <time>2021-07-05 16:21:34</time>
      </trkpt>
      <trkpt lat="28.13982" lon="-14.24052">
        <ele>37.2</ele>
        <time>2021-07-05 16:21:35</time>
      </trkpt>
      <trkpt lat="28.13978" lon="-14.24058">
        <ele>36.8</ele>
        <time>2021-07-05 16:21:36</time>
      </trkpt>
      <trkpt lat="28.13974" lon="-14.24063">
        <ele>36.2</ele>
        <time>2021-07-05 16:21:37</time>
      </trkpt>
      <trkpt lat="28.1397" lon="-14.24068">
        <ele>35</ele>
        <time>2021-07-05 16:21:38</time>
      </trkpt>
      <trkpt lat="28.13966" lon="-14.24074">
        <ele>35</ele>
        <time>2021-07-05 16:21:39</time>
      </trkpt>
      <trkpt lat="28.13963" lon="-14.2408">
        <ele>34.2</ele>
        <time>2021-07-05 16:21:40</time>
      </trkpt>
      <trkpt lat="28.13959" lon="-14.24087">
        <ele>33.4</ele>
        <time>2021-07-05 16:21:41</time>
      </trkpt>
      <trkpt lat="28.13956" lon="-14.24093">
        <ele>32.6</ele>
        <time>2021-07-05 16:21:42</time>
      </trkpt>
      <trkpt lat="28.13951" lon="-14.24099">
        <ele>31.8</ele>
        <time>2021-07-05 16:21:43</time>
      </trkpt>
      <trkpt lat="28.13946" lon="-14.24104">
        <ele>31</ele>
        <time>2021-07-05 16:21:44</time>
      </trkpt>
      <trkpt lat="28.1394" lon="-14.24109">
        <ele>29.8</ele>
        <time>2021-07-05 16:21:45</time>
      </trkpt>
      <trkpt lat="28.13934" lon="-14.24112">
        <ele>29.8</ele>
        <time>2021-07-05 16:21:46</time>
      </trkpt>
      <trkpt lat="28.13928" lon="-14.24116">
        <ele>29.4</ele>
        <time>2021-07-05 16:21:47</time>
      </trkpt>
      <trkpt lat="28.13922" lon="-14.24121">
        <ele>28.8</ele>
        <time>2021-07-05 16:21:48</time>
      </trkpt>
      <trkpt lat="28.13918" lon="-14.24126">
        <ele>28.2</ele>
        <time>2021-07-05 16:21:49</time>
      </trkpt>
      <trkpt lat="28.13915" lon="-14.24131">
        <ele>27.6</ele>
        <time>2021-07-05 16:21:50</time>
      </trkpt>
      <trkpt lat="28.13913" lon="-14.24137">
        <ele>27.2</ele>
        <time>2021-07-05 16:21:51</time>
      </trkpt>
      <trkpt lat="28.13913" lon="-14.24141">
        <ele>26.8</ele>
        <time>2021-07-05 16:21:52</time>
      </trkpt>
      <trkpt lat="28.13912" lon="-14.24145">
        <ele>26.8</ele>
        <time>2021-07-05 16:21:53</time>
      </trkpt>
      <trkpt lat="28.13912" lon="-14.24148">
        <ele>26.8</ele>
        <time>2021-07-05 16:21:54</time>
      </trkpt>
      <trkpt lat="28.13912" lon="-14.2415">
        <ele>26.8</ele>
        <time>2021-07-05 16:21:55</time>
      </trkpt>
      <trkpt lat="28.13911" lon="-14.24153">
        <ele>27.2</ele>
        <time>2021-07-05 16:21:56</time>
      </trkpt>
      <trkpt lat="28.13912" lon="-14.24155">
        <ele>27.6</ele>
        <time>2021-07-05 16:21:57</time>
      </trkpt>
      <trkpt lat="28.13911" lon="-14.24157">
        <ele>28</ele>
        <time>2021-07-05 16:21:58</time>
      </trkpt>
      <trkpt lat="28.13911" lon="-14.24158">
        <ele>28.4</ele>
        <time>2021-07-05 16:21:59</time>
      </trkpt>
      <trkpt lat="28.1391" lon="-14.24161">
        <ele>29</ele>
        <time>2021-07-05 16:22:00</time>
      </trkpt>
      <trkpt lat="28.1391" lon="-14.24162">
        <ele>29.2</ele>
        <time>2021-07-05 16:22:01</time>
      </trkpt>
      <trkpt lat="28.1391" lon="-14.24164">
        <ele>30</ele>
        <time>2021-07-05 16:22:02</time>
      </trkpt>
      <trkpt lat="28.13909" lon="-14.24166">
        <ele>30</ele>
        <time>2021-07-05 16:22:03</time>
      </trkpt>
      <trkpt lat="28.13908" lon="-14.24168">
        <ele>30.8</ele>
        <time>2021-07-05 16:22:04</time>
      </trkpt>
      <trkpt lat="28.13908" lon="-14.2417">
        <ele>30.8</ele>
        <time>2021-07-05 16:22:05</time>
      </trkpt>
      <trkpt lat="28.13907" lon="-14.24172">
        <ele>31.2</ele>
        <time>2021-07-05 16:22:06</time>
      </trkpt>
      <trkpt lat="28.13907" lon="-14.24174">
        <ele>31.8</ele>
        <time>2021-07-05 16:22:07</time>
      </trkpt>
      <trkpt lat="28.13906" lon="-14.24176">
        <ele>32.2</ele>
        <time>2021-07-05 16:22:08</time>
      </trkpt>
      <trkpt lat="28.13905" lon="-14.24178">
        <ele>32.4</ele>
        <time>2021-07-05 16:22:09</time>
      </trkpt>
      <trkpt lat="28.13905" lon="-14.2418">
        <ele>32.8</ele>
        <time>2021-07-05 16:22:10</time>
      </trkpt>
      <trkpt lat="28.13905" lon="-14.24182">
        <ele>33</ele>
        <time>2021-07-05 16:22:11</time>
      </trkpt>
      <trkpt lat="28.13904" lon="-14.24185">
        <ele>33.4</ele>
        <time>2021-07-05 16:22:12</time>
      </trkpt>
      <trkpt lat="28.13904" lon="-14.24187">
        <ele>33.8</ele>
        <time>2021-07-05 16:22:13</time>
      </trkpt>
      <trkpt lat="28.13903" lon="-14.24189">
        <ele>33.8</ele>
        <time>2021-07-05 16:22:14</time>
      </trkpt>
      <trkpt lat="28.13902" lon="-14.24191">
        <ele>34</ele>
        <time>2021-07-05 16:22:15</time>
      </trkpt>
      <trkpt lat="28.13901" lon="-14.24193">
        <ele>34</ele>
        <time>2021-07-05 16:22:16</time>
      </trkpt>
      <trkpt lat="28.139" lon="-14.24195">
        <ele>34.2</ele>
        <time>2021-07-05 16:22:17</time>
      </trkpt>
      <trkpt lat="28.13899" lon="-14.24197">
        <ele>34.2</ele>
        <time>2021-07-05 16:22:18</time>
      </trkpt>
      <trkpt lat="28.13899" lon="-14.24199">
        <ele>34.2</ele>
        <time>2021-07-05 16:22:19</time>
      </trkpt>
      <trkpt lat="28.13898" lon="-14.24201">
        <ele>34.2</ele>
        <time>2021-07-05 16:22:20</time>
      </trkpt>
      <trkpt lat="28.13897" lon="-14.24203">
        <ele>34</ele>
        <time>2021-07-05 16:22:21</time>
      </trkpt>
      <trkpt lat="28.13896" lon="-14.24205">
        <ele>33.6</ele>
        <time>2021-07-05 16:22:22</time>
      </trkpt>
      <trkpt lat="28.13896" lon="-14.24207">
        <ele>33.4</ele>
        <time>2021-07-05 16:22:23</time>
      </trkpt>
      <trkpt lat="28.13895" lon="-14.24209">
        <ele>33.2</ele>
        <time>2021-07-05 16:22:24</time>
      </trkpt>
      <trkpt lat="28.13895" lon="-14.24212">
        <ele>33.2</ele>
        <time>2021-07-05 16:22:25</time>
      </trkpt>
      <trkpt lat="28.13895" lon="-14.24214">
        <ele>32.8</ele>
        <time>2021-07-05 16:22:26</time>
      </trkpt>
      <trkpt lat="28.13894" lon="-14.24217">
        <ele>32.8</ele>
        <time>2021-07-05 16:22:27</time>
      </trkpt>
      <trkpt lat="28.13894" lon="-14.2422">
        <ele>32.8</ele>
        <time>2021-07-05 16:22:28</time>
      </trkpt>
      <trkpt lat="28.13893" lon="-14.24223">
        <ele>32.8</ele>
        <time>2021-07-05 16:22:29</time>
      </trkpt>
      <trkpt lat="28.13892" lon="-14.24225">
        <ele>32.8</ele>
        <time>2021-07-05 16:22:30</time>
      </trkpt>
      <trkpt lat="28.13891" lon="-14.24227">
        <ele>33.2</ele>
        <time>2021-07-05 16:22:31</time>
      </trkpt>
      <trkpt lat="28.1389" lon="-14.2423">
        <ele>33.2</ele>
        <time>2021-07-05 16:22:32</time>
      </trkpt>
      <trkpt lat="28.13889" lon="-14.24232">
        <ele>33.4</ele>
        <time>2021-07-05 16:22:33</time>
      </trkpt>
      <trkpt lat="28.13887" lon="-14.24235">
        <ele>33.4</ele>
        <time>2021-07-05 16:22:34</time>
      </trkpt>
      <trkpt lat="28.13886" lon="-14.24237">
        <ele>33.4</ele>
        <time>2021-07-05 16:22:35</time>
      </trkpt>
      <trkpt lat="28.13884" lon="-14.24239">
        <ele>33.8</ele>
        <time>2021-07-05 16:22:36</time>
      </trkpt>
      <trkpt lat="28.13883" lon="-14.24241">
        <ele>34</ele>
        <time>2021-07-05 16:22:37</time>
      </trkpt>
      <trkpt lat="28.13881" lon="-14.24243">
        <ele>34.4</ele>
        <time>2021-07-05 16:22:38</time>
      </trkpt>
      <trkpt lat="28.1388" lon="-14.24245">
        <ele>34.6</ele>
        <time>2021-07-05 16:22:39</time>
      </trkpt>
      <trkpt lat="28.13879" lon="-14.24247">
        <ele>34.8</ele>
        <time>2021-07-05 16:22:40</time>
      </trkpt>
      <trkpt lat="28.13878" lon="-14.24248">
        <ele>35</ele>
        <time>2021-07-05 16:22:41</time>
      </trkpt>
      <trkpt lat="28.13876" lon="-14.2425">
        <ele>35</ele>
        <time>2021-07-05 16:22:42</time>
      </trkpt>
      <trkpt lat="28.13875" lon="-14.24251">
        <ele>35.4</ele>
        <time>2021-07-05 16:22:43</time>
      </trkpt>
      <trkpt lat="28.13873" lon="-14.24253">
        <ele>35.4</ele>
        <time>2021-07-05 16:22:44</time>
      </trkpt>
      <trkpt lat="28.13872" lon="-14.24254">
        <ele>35.6</ele>
        <time>2021-07-05 16:22:45</time>
      </trkpt>
      <trkpt lat="28.13871" lon="-14.24256">
        <ele>35.6</ele>
        <time>2021-07-05 16:22:46</time>
      </trkpt>
      <trkpt lat="28.13871" lon="-14.24256">
        <ele>35.8</ele>
        <time>2021-07-05 16:22:47</time>
      </trkpt>
      <trkpt lat="28.13869" lon="-14.2426">
        <ele>35.8</ele>
        <time>2021-07-05 16:22:48</time>
      </trkpt>
      <trkpt lat="28.13868" lon="-14.24262">
        <ele>36</ele>
        <time>2021-07-05 16:22:49</time>
      </trkpt>
      <trkpt lat="28.13867" lon="-14.24263">
        <ele>36.4</ele>
        <time>2021-07-05 16:22:50</time>
      </trkpt>
      <trkpt lat="28.13866" lon="-14.24265">
        <ele>36.6</ele>
        <time>2021-07-05 16:22:51</time>
      </trkpt>
      <trkpt lat="28.13865" lon="-14.24267">
        <ele>36.6</ele>
        <time>2021-07-05 16:22:52</time>
      </trkpt>
      <trkpt lat="28.13863" lon="-14.24269">
        <ele>37</ele>
        <time>2021-07-05 16:22:53</time>
      </trkpt>
      <trkpt lat="28.13863" lon="-14.24271">
        <ele>37.2</ele>
        <time>2021-07-05 16:22:54</time>
      </trkpt>
      <trkpt lat="28.13861" lon="-14.24273">
        <ele>37.6</ele>
        <time>2021-07-05 16:22:55</time>
      </trkpt>
      <trkpt lat="28.1386" lon="-14.24276">
        <ele>37.8</ele>
        <time>2021-07-05 16:22:56</time>
      </trkpt>
      <trkpt lat="28.13859" lon="-14.24278">
        <ele>38</ele>
        <time>2021-07-05 16:22:57</time>
      </trkpt>
      <trkpt lat="28.13858" lon="-14.2428">
        <ele>38</ele>
        <time>2021-07-05 16:22:58</time>
      </trkpt>
      <trkpt lat="28.13856" lon="-14.24283">
        <ele>38.4</ele>
        <time>2021-07-05 16:22:59</time>
      </trkpt>
      <trkpt lat="28.13855" lon="-14.24286">
        <ele>38.4</ele>
        <time>2021-07-05 16:23:00</time>
      </trkpt>
      <trkpt lat="28.13853" lon="-14.2429">
        <ele>38.4</ele>
        <time>2021-07-05 16:23:01</time>
      </trkpt>
      <trkpt lat="28.13852" lon="-14.24293">
        <ele>38.4</ele>
        <time>2021-07-05 16:23:02</time>
      </trkpt>
      <trkpt lat="28.13851" lon="-14.24297">
        <ele>38.4</ele>
        <time>2021-07-05 16:23:03</time>
      </trkpt>
      <trkpt lat="28.1385" lon="-14.243">
        <ele>38.4</ele>
        <time>2021-07-05 16:23:04</time>
      </trkpt>
      <trkpt lat="28.13848" lon="-14.24304">
        <ele>38.4</ele>
        <time>2021-07-05 16:23:05</time>
      </trkpt>
      <trkpt lat="28.13847" lon="-14.24307">
        <ele>38.4</ele>
        <time>2021-07-05 16:23:06</time>
      </trkpt>
      <trkpt lat="28.13845" lon="-14.2431">
        <ele>38.4</ele>
        <time>2021-07-05 16:23:07</time>
      </trkpt>
      <trkpt lat="28.13843" lon="-14.24313">
        <ele>38.4</ele>
        <time>2021-07-05 16:23:08</time>
      </trkpt>
      <trkpt lat="28.13841" lon="-14.24316">
        <ele>38.4</ele>
        <time>2021-07-05 16:23:09</time>
      </trkpt>
      <trkpt lat="28.1384" lon="-14.24319">
        <ele>38.4</ele>
        <time>2021-07-05 16:23:10</time>
      </trkpt>
      <trkpt lat="28.13838" lon="-14.24322">
        <ele>38.2</ele>
        <time>2021-07-05 16:23:11</time>
      </trkpt>
      <trkpt lat="28.13837" lon="-14.24325">
        <ele>38.2</ele>
        <time>2021-07-05 16:23:12</time>
      </trkpt>
      <trkpt lat="28.13835" lon="-14.24329">
        <ele>37.8</ele>
        <time>2021-07-05 16:23:13</time>
      </trkpt>
      <trkpt lat="28.13834" lon="-14.24332">
        <ele>37.8</ele>
        <time>2021-07-05 16:23:14</time>
      </trkpt>
      <trkpt lat="28.13832" lon="-14.24335">
        <ele>37.6</ele>
        <time>2021-07-05 16:23:15</time>
      </trkpt>
      <trkpt lat="28.1383" lon="-14.24339">
        <ele>37.6</ele>
        <time>2021-07-05 16:23:16</time>
      </trkpt>
      <trkpt lat="28.13828" lon="-14.24343">
        <ele>37.4</ele>
        <time>2021-07-05 16:23:17</time>
      </trkpt>
      <trkpt lat="28.13827" lon="-14.24346">
        <ele>37.4</ele>
        <time>2021-07-05 16:23:18</time>
      </trkpt>
      <trkpt lat="28.13825" lon="-14.2435">
        <ele>37.4</ele>
        <time>2021-07-05 16:23:19</time>
      </trkpt>
      <trkpt lat="28.13823" lon="-14.24353">
        <ele>37.4</ele>
        <time>2021-07-05 16:23:20</time>
      </trkpt>
      <trkpt lat="28.13821" lon="-14.24357">
        <ele>37.4</ele>
        <time>2021-07-05 16:23:21</time>
      </trkpt>
      <trkpt lat="28.1382" lon="-14.2436">
        <ele>37.4</ele>
        <time>2021-07-05 16:23:22</time>
      </trkpt>
      <trkpt lat="28.13818" lon="-14.24364">
        <ele>37.4</ele>
        <time>2021-07-05 16:23:23</time>
      </trkpt>
      <trkpt lat="28.13816" lon="-14.24368">
        <ele>37.2</ele>
        <time>2021-07-05 16:23:24</time>
      </trkpt>
      <trkpt lat="28.13814" lon="-14.24371">
        <ele>37.2</ele>
        <time>2021-07-05 16:23:25</time>
      </trkpt>
      <trkpt lat="28.13812" lon="-14.24374">
        <ele>37.2</ele>
        <time>2021-07-05 16:23:26</time>
      </trkpt>
      <trkpt lat="28.1381" lon="-14.24378">
        <ele>37.2</ele>
        <time>2021-07-05 16:23:27</time>
      </trkpt>
      <trkpt lat="28.13808" lon="-14.24381">
        <ele>37.2</ele>
        <time>2021-07-05 16:23:28</time>
      </trkpt>
      <trkpt lat="28.13806" lon="-14.24384">
        <ele>36.8</ele>
        <time>2021-07-05 16:23:29</time>
      </trkpt>
      <trkpt lat="28.13803" lon="-14.24387">
        <ele>36.8</ele>
        <time>2021-07-05 16:23:30</time>
      </trkpt>
      <trkpt lat="28.13801" lon="-14.2439">
        <ele>36.8</ele>
        <time>2021-07-05 16:23:31</time>
      </trkpt>
      <trkpt lat="28.13798" lon="-14.24393">
        <ele>36.8</ele>
        <time>2021-07-05 16:23:32</time>
      </trkpt>
      <trkpt lat="28.13795" lon="-14.24396">
        <ele>37</ele>
        <time>2021-07-05 16:23:33</time>
      </trkpt>
      <trkpt lat="28.13792" lon="-14.24399">
        <ele>36.8</ele>
        <time>2021-07-05 16:23:34</time>
      </trkpt>
      <trkpt lat="28.13788" lon="-14.24402">
        <ele>36.8</ele>
        <time>2021-07-05 16:23:35</time>
      </trkpt>
      <trkpt lat="28.13784" lon="-14.24405">
        <ele>36.6</ele>
        <time>2021-07-05 16:23:36</time>
      </trkpt>
      <trkpt lat="28.13779" lon="-14.24408">
        <ele>36.4</ele>
        <time>2021-07-05 16:23:37</time>
      </trkpt>
      <trkpt lat="28.13776" lon="-14.24411">
        <ele>36</ele>
        <time>2021-07-05 16:23:38</time>
      </trkpt>
      <trkpt lat="28.13772" lon="-14.24414">
        <ele>35.8</ele>
        <time>2021-07-05 16:23:39</time>
      </trkpt>
      <trkpt lat="28.1377" lon="-14.24418">
        <ele>35.4</ele>
        <time>2021-07-05 16:23:40</time>
      </trkpt>
      <trkpt lat="28.13767" lon="-14.24422">
        <ele>35</ele>
        <time>2021-07-05 16:23:41</time>
      </trkpt>
      <trkpt lat="28.13766" lon="-14.24427">
        <ele>34.4</ele>
        <time>2021-07-05 16:23:42</time>
      </trkpt>
      <trkpt lat="28.13765" lon="-14.24432">
        <ele>34.4</ele>
        <time>2021-07-05 16:23:43</time>
      </trkpt>
      <trkpt lat="28.13765" lon="-14.24437">
        <ele>33.8</ele>
        <time>2021-07-05 16:23:44</time>
      </trkpt>
      <trkpt lat="28.13766" lon="-14.24443">
        <ele>33.4</ele>
        <time>2021-07-05 16:23:45</time>
      </trkpt>
      <trkpt lat="28.13766" lon="-14.24448">
        <ele>33</ele>
        <time>2021-07-05 16:23:46</time>
      </trkpt>
      <trkpt lat="28.13767" lon="-14.24452">
        <ele>32.6</ele>
        <time>2021-07-05 16:23:47</time>
      </trkpt>
      <trkpt lat="28.13767" lon="-14.24456">
        <ele>32.4</ele>
        <time>2021-07-05 16:23:48</time>
      </trkpt>
      <trkpt lat="28.13768" lon="-14.2446">
        <ele>32.2</ele>
        <time>2021-07-05 16:23:49</time>
      </trkpt>
      <trkpt lat="28.13769" lon="-14.24463">
        <ele>32</ele>
        <time>2021-07-05 16:23:50</time>
      </trkpt>
      <trkpt lat="28.13769" lon="-14.24467">
        <ele>32</ele>
        <time>2021-07-05 16:23:51</time>
      </trkpt>
      <trkpt lat="28.13769" lon="-14.2447">
        <ele>32</ele>
        <time>2021-07-05 16:23:52</time>
      </trkpt>
      <trkpt lat="28.13769" lon="-14.24473">
        <ele>32</ele>
        <time>2021-07-05 16:23:53</time>
      </trkpt>
      <trkpt lat="28.13769" lon="-14.24476">
        <ele>32.2</ele>
        <time>2021-07-05 16:23:54</time>
      </trkpt>
      <trkpt lat="28.13768" lon="-14.24477">
        <ele>32.6</ele>
        <time>2021-07-05 16:23:55</time>
      </trkpt>
      <trkpt lat="28.13767" lon="-14.24479">
        <ele>32.6</ele>
        <time>2021-07-05 16:23:56</time>
      </trkpt>
      <trkpt lat="28.13768" lon="-14.24481">
        <ele>32.6</ele>
        <time>2021-07-05 16:23:57</time>
      </trkpt>
      <trkpt lat="28.13768" lon="-14.24484">
        <ele>33</ele>
        <time>2021-07-05 16:23:58</time>
      </trkpt>
      <trkpt lat="28.13768" lon="-14.24486">
        <ele>33.2</ele>
        <time>2021-07-05 16:23:59</time>
      </trkpt>
      <trkpt lat="28.13768" lon="-14.24489">
        <ele>33.6</ele>
        <time>2021-07-05 16:24:00</time>
      </trkpt>
      <trkpt lat="28.13767" lon="-14.24493">
        <ele>33.6</ele>
        <time>2021-07-05 16:24:01</time>
      </trkpt>
      <trkpt lat="28.13765" lon="-14.24496">
        <ele>33.8</ele>
        <time>2021-07-05 16:24:02</time>
      </trkpt>
      <trkpt lat="28.13765" lon="-14.24499">
        <ele>33.8</ele>
        <time>2021-07-05 16:24:03</time>
      </trkpt>
      <trkpt lat="28.13764" lon="-14.24503">
        <ele>34.2</ele>
        <time>2021-07-05 16:24:04</time>
      </trkpt>
      <trkpt lat="28.13764" lon="-14.24506">
        <ele>34.2</ele>
        <time>2021-07-05 16:24:05</time>
      </trkpt>
      <trkpt lat="28.13763" lon="-14.2451">
        <ele>34.2</ele>
        <time>2021-07-05 16:24:06</time>
      </trkpt>
      <trkpt lat="28.13762" lon="-14.24513">
        <ele>34.4</ele>
        <time>2021-07-05 16:24:07</time>
      </trkpt>
      <trkpt lat="28.13761" lon="-14.24516">
        <ele>34.4</ele>
        <time>2021-07-05 16:24:08</time>
      </trkpt>
      <trkpt lat="28.1376" lon="-14.2452">
        <ele>34.4</ele>
        <time>2021-07-05 16:24:09</time>
      </trkpt>
      <trkpt lat="28.13759" lon="-14.24523">
        <ele>34.4</ele>
        <time>2021-07-05 16:24:10</time>
      </trkpt>
      <trkpt lat="28.13758" lon="-14.24526">
        <ele>34.8</ele>
        <time>2021-07-05 16:24:11</time>
      </trkpt>
      <trkpt lat="28.13758" lon="-14.2453">
        <ele>34.8</ele>
        <time>2021-07-05 16:24:12</time>
      </trkpt>
      <trkpt lat="28.13757" lon="-14.24533">
        <ele>34.8</ele>
        <time>2021-07-05 16:24:13</time>
      </trkpt>
      <trkpt lat="28.13757" lon="-14.24537">
        <ele>34.8</ele>
        <time>2021-07-05 16:24:14</time>
      </trkpt>
      <trkpt lat="28.13757" lon="-14.2454">
        <ele>35</ele>
        <time>2021-07-05 16:24:15</time>
      </trkpt>
      <trkpt lat="28.13757" lon="-14.24544">
        <ele>35</ele>
        <time>2021-07-05 16:24:16</time>
      </trkpt>
      <trkpt lat="28.13757" lon="-14.24547">
        <ele>35</ele>
        <time>2021-07-05 16:24:17</time>
      </trkpt>
      <trkpt lat="28.13757" lon="-14.2455">
        <ele>35</ele>
        <time>2021-07-05 16:24:18</time>
      </trkpt>
      <trkpt lat="28.13757" lon="-14.24554">
        <ele>35</ele>
        <time>2021-07-05 16:24:19</time>
      </trkpt>
      <trkpt lat="28.13757" lon="-14.24558">
        <ele>35.2</ele>
        <time>2021-07-05 16:24:20</time>
      </trkpt>
      <trkpt lat="28.13757" lon="-14.24561">
        <ele>35.2</ele>
        <time>2021-07-05 16:24:21</time>
      </trkpt>
      <trkpt lat="28.13757" lon="-14.24565">
        <ele>35.2</ele>
        <time>2021-07-05 16:24:22</time>
      </trkpt>
      <trkpt lat="28.13758" lon="-14.24568">
        <ele>35.6</ele>
        <time>2021-07-05 16:24:23</time>
      </trkpt>
      <trkpt lat="28.13758" lon="-14.24572">
        <ele>35.6</ele>
        <time>2021-07-05 16:24:24</time>
      </trkpt>
      <trkpt lat="28.13758" lon="-14.24575">
        <ele>36</ele>
        <time>2021-07-05 16:24:25</time>
      </trkpt>
      <trkpt lat="28.13758" lon="-14.24579">
        <ele>36</ele>
        <time>2021-07-05 16:24:26</time>
      </trkpt>
      <trkpt lat="28.13758" lon="-14.24579">
        <ele>36.2</ele>
        <time>2021-07-05 16:24:27</time>
      </trkpt>
      <trkpt lat="28.13759" lon="-14.24586">
        <ele>36.2</ele>
        <time>2021-07-05 16:24:28</time>
      </trkpt>
      <trkpt lat="28.13759" lon="-14.24589">
        <ele>36.2</ele>
        <time>2021-07-05 16:24:29</time>
      </trkpt>
      <trkpt lat="28.13759" lon="-14.24593">
        <ele>36.2</ele>
        <time>2021-07-05 16:24:30</time>
      </trkpt>
      <trkpt lat="28.1376" lon="-14.24596">
        <ele>36.2</ele>
        <time>2021-07-05 16:24:31</time>
      </trkpt>
      <trkpt lat="28.1376" lon="-14.246">
        <ele>36.4</ele>
        <time>2021-07-05 16:24:32</time>
      </trkpt>
      <trkpt lat="28.13761" lon="-14.24603">
        <ele>36.8</ele>
        <time>2021-07-05 16:24:33</time>
      </trkpt>
      <trkpt lat="28.13762" lon="-14.24606">
        <ele>36.8</ele>
        <time>2021-07-05 16:24:34</time>
      </trkpt>
      <trkpt lat="28.13762" lon="-14.2461">
        <ele>36.8</ele>
        <time>2021-07-05 16:24:35</time>
      </trkpt>
      <trkpt lat="28.13763" lon="-14.24613">
        <ele>36.8</ele>
        <time>2021-07-05 16:24:36</time>
      </trkpt>
      <trkpt lat="28.13763" lon="-14.24616">
        <ele>36.8</ele>
        <time>2021-07-05 16:24:37</time>
      </trkpt>
      <trkpt lat="28.13764" lon="-14.24619">
        <ele>36.8</ele>
        <time>2021-07-05 16:24:38</time>
      </trkpt>
      <trkpt lat="28.13765" lon="-14.24622">
        <ele>37</ele>
        <time>2021-07-05 16:24:39</time>
      </trkpt>
      <trkpt lat="28.13765" lon="-14.24625">
        <ele>37</ele>
        <time>2021-07-05 16:24:40</time>
      </trkpt>
      <trkpt lat="28.13765" lon="-14.24628">
        <ele>37.4</ele>
        <time>2021-07-05 16:24:41</time>
      </trkpt>
      <trkpt lat="28.13766" lon="-14.2463">
        <ele>37.4</ele>
        <time>2021-07-05 16:24:42</time>
      </trkpt>
      <trkpt lat="28.13766" lon="-14.24632">
        <ele>37.6</ele>
        <time>2021-07-05 16:24:43</time>
      </trkpt>
      <trkpt lat="28.13766" lon="-14.24634">
        <ele>37.6</ele>
        <time>2021-07-05 16:24:44</time>
      </trkpt>
      <trkpt lat="28.13765" lon="-14.24635">
        <ele>38.4</ele>
        <time>2021-07-05 16:24:45</time>
      </trkpt>
      <trkpt lat="28.13763" lon="-14.24636">
        <ele>38.4</ele>
        <time>2021-07-05 16:24:46</time>
      </trkpt>
      <trkpt lat="28.13761" lon="-14.24636">
        <ele>38.6</ele>
        <time>2021-07-05 16:24:47</time>
      </trkpt>
      <trkpt lat="28.13759" lon="-14.24636">
        <ele>38.6</ele>
        <time>2021-07-05 16:24:48</time>
      </trkpt>
      <trkpt lat="28.13758" lon="-14.24636">
        <ele>38.8</ele>
        <time>2021-07-05 16:24:49</time>
      </trkpt>
      <trkpt lat="28.13756" lon="-14.24637">
        <ele>38.8</ele>
        <time>2021-07-05 16:24:50</time>
      </trkpt>
      <trkpt lat="28.13754" lon="-14.24638">
        <ele>38.8</ele>
        <time>2021-07-05 16:24:51</time>
      </trkpt>
      <trkpt lat="28.13751" lon="-14.2464">
        <ele>39.2</ele>
        <time>2021-07-05 16:24:52</time>
      </trkpt>
      <trkpt lat="28.13748" lon="-14.24642">
        <ele>39.2</ele>
        <time>2021-07-05 16:24:53</time>
      </trkpt>
      <trkpt lat="28.13745" lon="-14.24645">
        <ele>39</ele>
        <time>2021-07-05 16:24:54</time>
      </trkpt>
      <trkpt lat="28.13741" lon="-14.24649">
        <ele>38.6</ele>
        <time>2021-07-05 16:24:55</time>
      </trkpt>
      <trkpt lat="28.13737" lon="-14.24652">
        <ele>38.4</ele>
        <time>2021-07-05 16:24:56</time>
      </trkpt>
      <trkpt lat="28.13732" lon="-14.24655">
        <ele>38.2</ele>
        <time>2021-07-05 16:24:57</time>
      </trkpt>
      <trkpt lat="28.13728" lon="-14.24658">
        <ele>37.8</ele>
        <time>2021-07-05 16:24:58</time>
      </trkpt>
      <trkpt lat="28.13724" lon="-14.24662">
        <ele>37.8</ele>
        <time>2021-07-05 16:24:59</time>
      </trkpt>
      <trkpt lat="28.1372" lon="-14.24665">
        <ele>37.6</ele>
        <time>2021-07-05 16:25:00</time>
      </trkpt>
      <trkpt lat="28.13716" lon="-14.24668">
        <ele>37.6</ele>
        <time>2021-07-05 16:25:01</time>
      </trkpt>
      <trkpt lat="28.13712" lon="-14.24671">
        <ele>37.8</ele>
        <time>2021-07-05 16:25:02</time>
      </trkpt>
      <trkpt lat="28.13709" lon="-14.24675">
        <ele>37.8</ele>
        <time>2021-07-05 16:25:03</time>
      </trkpt>
      <trkpt lat="28.13707" lon="-14.2468">
        <ele>37.8</ele>
        <time>2021-07-05 16:25:04</time>
      </trkpt>
      <trkpt lat="28.13706" lon="-14.24686">
        <ele>37.2</ele>
        <time>2021-07-05 16:25:05</time>
      </trkpt>
      <trkpt lat="28.13706" lon="-14.24692">
        <ele>36</ele>
        <time>2021-07-05 16:25:06</time>
      </trkpt>
      <trkpt lat="28.13706" lon="-14.24698">
        <ele>36</ele>
        <time>2021-07-05 16:25:07</time>
      </trkpt>
      <trkpt lat="28.13706" lon="-14.24704">
        <ele>35.4</ele>
        <time>2021-07-05 16:25:08</time>
      </trkpt>
      <trkpt lat="28.13706" lon="-14.24709">
        <ele>35</ele>
        <time>2021-07-05 16:25:09</time>
      </trkpt>
      <trkpt lat="28.13706" lon="-14.24715">
        <ele>33.8</ele>
        <time>2021-07-05 16:25:10</time>
      </trkpt>
      <trkpt lat="28.13705" lon="-14.2472">
        <ele>33.8</ele>
        <time>2021-07-05 16:25:11</time>
      </trkpt>
      <trkpt lat="28.13704" lon="-14.24725">
        <ele>33.4</ele>
        <time>2021-07-05 16:25:12</time>
      </trkpt>
      <trkpt lat="28.13703" lon="-14.24731">
        <ele>33</ele>
        <time>2021-07-05 16:25:13</time>
      </trkpt>
      <trkpt lat="28.137" lon="-14.24737">
        <ele>32.6</ele>
        <time>2021-07-05 16:25:14</time>
      </trkpt>
      <trkpt lat="28.13698" lon="-14.24744">
        <ele>31.6</ele>
        <time>2021-07-05 16:25:15</time>
      </trkpt>
      <trkpt lat="28.13698" lon="-14.24752">
        <ele>31.6</ele>
        <time>2021-07-05 16:25:16</time>
      </trkpt>
      <trkpt lat="28.13699" lon="-14.24759">
        <ele>31</ele>
        <time>2021-07-05 16:25:17</time>
      </trkpt>
      <trkpt lat="28.13701" lon="-14.24765">
        <ele>30.6</ele>
        <time>2021-07-05 16:25:18</time>
      </trkpt>
      <trkpt lat="28.13703" lon="-14.2477">
        <ele>29.6</ele>
        <time>2021-07-05 16:25:19</time>
      </trkpt>
      <trkpt lat="28.13703" lon="-14.24775">
        <ele>29.6</ele>
        <time>2021-07-05 16:25:20</time>
      </trkpt>
      <trkpt lat="28.13703" lon="-14.24779">
        <ele>29.4</ele>
        <time>2021-07-05 16:25:21</time>
      </trkpt>
      <trkpt lat="28.13702" lon="-14.24783">
        <ele>29.4</ele>
        <time>2021-07-05 16:25:22</time>
      </trkpt>
      <trkpt lat="28.13701" lon="-14.24786">
        <ele>29.4</ele>
        <time>2021-07-05 16:25:23</time>
      </trkpt>
      <trkpt lat="28.137" lon="-14.24789">
        <ele>29.6</ele>
        <time>2021-07-05 16:25:24</time>
      </trkpt>
      <trkpt lat="28.13698" lon="-14.2479">
        <ele>29.6</ele>
        <time>2021-07-05 16:25:25</time>
      </trkpt>
      <trkpt lat="28.13697" lon="-14.24791">
        <ele>30</ele>
        <time>2021-07-05 16:25:26</time>
      </trkpt>
      <trkpt lat="28.13694" lon="-14.24791">
        <ele>30</ele>
        <time>2021-07-05 16:25:27</time>
      </trkpt>
      <trkpt lat="28.13691" lon="-14.24791">
        <ele>29.6</ele>
        <time>2021-07-05 16:25:28</time>
      </trkpt>
      <trkpt lat="28.13688" lon="-14.24791">
        <ele>29.2</ele>
        <time>2021-07-05 16:25:29</time>
      </trkpt>
      <trkpt lat="28.13685" lon="-14.2479">
        <ele>28.8</ele>
        <time>2021-07-05 16:25:30</time>
      </trkpt>
      <trkpt lat="28.13681" lon="-14.24789">
        <ele>28</ele>
        <time>2021-07-05 16:25:31</time>
      </trkpt>
      <trkpt lat="28.13677" lon="-14.24787">
        <ele>27.6</ele>
        <time>2021-07-05 16:25:32</time>
      </trkpt>
      <trkpt lat="28.13673" lon="-14.24785">
        <ele>27.6</ele>
        <time>2021-07-05 16:25:33</time>
      </trkpt>
      <trkpt lat="28.1367" lon="-14.24784">
        <ele>27.4</ele>
        <time>2021-07-05 16:25:34</time>
      </trkpt>
      <trkpt lat="28.13666" lon="-14.24782">
        <ele>27</ele>
        <time>2021-07-05 16:25:35</time>
      </trkpt>
      <trkpt lat="28.13662" lon="-14.24781">
        <ele>26.8</ele>
        <time>2021-07-05 16:25:36</time>
      </trkpt>
      <trkpt lat="28.13658" lon="-14.24782">
        <ele>26.4</ele>
        <time>2021-07-05 16:25:37</time>
      </trkpt>
      <trkpt lat="28.13655" lon="-14.24782">
        <ele>26.4</ele>
        <time>2021-07-05 16:25:38</time>
      </trkpt>
      <trkpt lat="28.13651" lon="-14.24783">
        <ele>26.4</ele>
        <time>2021-07-05 16:25:39</time>
      </trkpt>
      <trkpt lat="28.13647" lon="-14.24783">
        <ele>26.4</ele>
        <time>2021-07-05 16:25:40</time>
      </trkpt>
      <trkpt lat="28.13644" lon="-14.24784">
        <ele>26.4</ele>
        <time>2021-07-05 16:25:41</time>
      </trkpt>
      <trkpt lat="28.1364" lon="-14.24785">
        <ele>26.6</ele>
        <time>2021-07-05 16:25:42</time>
      </trkpt>
      <trkpt lat="28.13637" lon="-14.24786">
        <ele>26.6</ele>
        <time>2021-07-05 16:25:43</time>
      </trkpt>
      <trkpt lat="28.13633" lon="-14.24787">
        <ele>27</ele>
        <time>2021-07-05 16:25:44</time>
      </trkpt>
      <trkpt lat="28.1363" lon="-14.24788">
        <ele>27</ele>
        <time>2021-07-05 16:25:45</time>
      </trkpt>
      <trkpt lat="28.13626" lon="-14.2479">
        <ele>27.4</ele>
        <time>2021-07-05 16:25:46</time>
      </trkpt>
      <trkpt lat="28.13623" lon="-14.24791">
        <ele>27.8</ele>
        <time>2021-07-05 16:25:47</time>
      </trkpt>
      <trkpt lat="28.13619" lon="-14.24793">
        <ele>28</ele>
        <time>2021-07-05 16:25:48</time>
      </trkpt>
      <trkpt lat="28.13616" lon="-14.24794">
        <ele>28.2</ele>
        <time>2021-07-05 16:25:49</time>
      </trkpt>
      <trkpt lat="28.13613" lon="-14.24796">
        <ele>28.2</ele>
        <time>2021-07-05 16:25:50</time>
      </trkpt>
      <trkpt lat="28.13609" lon="-14.24799">
        <ele>28.2</ele>
        <time>2021-07-05 16:25:51</time>
      </trkpt>
      <trkpt lat="28.13605" lon="-14.24802">
        <ele>28.2</ele>
        <time>2021-07-05 16:25:52</time>
      </trkpt>
      <trkpt lat="28.13601" lon="-14.24804">
        <ele>28.2</ele>
        <time>2021-07-05 16:25:53</time>
      </trkpt>
      <trkpt lat="28.13597" lon="-14.24805">
        <ele>28.2</ele>
        <time>2021-07-05 16:25:54</time>
      </trkpt>
      <trkpt lat="28.13593" lon="-14.24806">
        <ele>28.2</ele>
        <time>2021-07-05 16:25:55</time>
      </trkpt>
      <trkpt lat="28.13589" lon="-14.24807">
        <ele>28.2</ele>
        <time>2021-07-05 16:25:56</time>
      </trkpt>
      <trkpt lat="28.13585" lon="-14.24808">
        <ele>28.2</ele>
        <time>2021-07-05 16:25:57</time>
      </trkpt>
      <trkpt lat="28.13581" lon="-14.24809">
        <ele>28.2</ele>
        <time>2021-07-05 16:25:58</time>
      </trkpt>
      <trkpt lat="28.13577" lon="-14.2481">
        <ele>28.4</ele>
        <time>2021-07-05 16:25:59</time>
      </trkpt>
      <trkpt lat="28.13573" lon="-14.2481">
        <ele>28.4</ele>
        <time>2021-07-05 16:26:00</time>
      </trkpt>
      <trkpt lat="28.1357" lon="-14.24811">
        <ele>28.8</ele>
        <time>2021-07-05 16:26:01</time>
      </trkpt>
      <trkpt lat="28.13567" lon="-14.24811">
        <ele>28.8</ele>
        <time>2021-07-05 16:26:02</time>
      </trkpt>
      <trkpt lat="28.13564" lon="-14.24812">
        <ele>28.8</ele>
        <time>2021-07-05 16:26:03</time>
      </trkpt>
      <trkpt lat="28.13561" lon="-14.24812">
        <ele>29</ele>
        <time>2021-07-05 16:26:04</time>
      </trkpt>
      <trkpt lat="28.13558" lon="-14.24812">
        <ele>29</ele>
        <time>2021-07-05 16:26:05</time>
      </trkpt>
      <trkpt lat="28.13555" lon="-14.24812">
        <ele>29.4</ele>
        <time>2021-07-05 16:26:06</time>
      </trkpt>
      <trkpt lat="28.13553" lon="-14.24813">
        <ele>29.8</ele>
        <time>2021-07-05 16:26:07</time>
      </trkpt>
      <trkpt lat="28.1355" lon="-14.24813">
        <ele>30</ele>
        <time>2021-07-05 16:26:08</time>
      </trkpt>
      <trkpt lat="28.13547" lon="-14.24814">
        <ele>30.2</ele>
        <time>2021-07-05 16:26:09</time>
      </trkpt>
      <trkpt lat="28.13544" lon="-14.24815">
        <ele>30.2</ele>
        <time>2021-07-05 16:26:10</time>
      </trkpt>
      <trkpt lat="28.1354" lon="-14.24816">
        <ele>30.2</ele>
        <time>2021-07-05 16:26:11</time>
      </trkpt>
      <trkpt lat="28.13537" lon="-14.24817">
        <ele>30.4</ele>
        <time>2021-07-05 16:26:12</time>
      </trkpt>
      <trkpt lat="28.13534" lon="-14.24819">
        <ele>30.4</ele>
        <time>2021-07-05 16:26:13</time>
      </trkpt>
      <trkpt lat="28.13532" lon="-14.24821">
        <ele>30.6</ele>
        <time>2021-07-05 16:26:14</time>
      </trkpt>
      <trkpt lat="28.1353" lon="-14.24822">
        <ele>30.6</ele>
        <time>2021-07-05 16:26:15</time>
      </trkpt>
      <trkpt lat="28.13527" lon="-14.24824">
        <ele>31</ele>
        <time>2021-07-05 16:26:16</time>
      </trkpt>
      <trkpt lat="28.13525" lon="-14.24825">
        <ele>31.2</ele>
        <time>2021-07-05 16:26:17</time>
      </trkpt>
      <trkpt lat="28.13523" lon="-14.24827">
        <ele>31.2</ele>
        <time>2021-07-05 16:26:18</time>
      </trkpt>
      <trkpt lat="28.13521" lon="-14.24828">
        <ele>31.6</ele>
        <time>2021-07-05 16:26:19</time>
      </trkpt>
      <trkpt lat="28.1352" lon="-14.24829">
        <ele>31.6</ele>
        <time>2021-07-05 16:26:20</time>
      </trkpt>
      <trkpt lat="28.13518" lon="-14.2483">
        <ele>32.2</ele>
        <time>2021-07-05 16:26:21</time>
      </trkpt>
      <trkpt lat="28.13516" lon="-14.24832">
        <ele>32.6</ele>
        <time>2021-07-05 16:26:22</time>
      </trkpt>
      <trkpt lat="28.13514" lon="-14.24833">
        <ele>32.6</ele>
        <time>2021-07-05 16:26:23</time>
      </trkpt>
      <trkpt lat="28.13512" lon="-14.24835">
        <ele>32.6</ele>
        <time>2021-07-05 16:26:24</time>
      </trkpt>
      <trkpt lat="28.13509" lon="-14.24836">
        <ele>33.2</ele>
        <time>2021-07-05 16:26:25</time>
      </trkpt>
      <trkpt lat="28.13507" lon="-14.24838">
        <ele>33.8</ele>
        <time>2021-07-05 16:26:26</time>
      </trkpt>
      <trkpt lat="28.13504" lon="-14.2484">
        <ele>33.8</ele>
        <time>2021-07-05 16:26:27</time>
      </trkpt>
      <trkpt lat="28.13502" lon="-14.24842">
        <ele>34.2</ele>
        <time>2021-07-05 16:26:28</time>
      </trkpt>
      <trkpt lat="28.13499" lon="-14.24844">
        <ele>34.2</ele>
        <time>2021-07-05 16:26:29</time>
      </trkpt>
      <trkpt lat="28.13496" lon="-14.24847">
        <ele>34.2</ele>
        <time>2021-07-05 16:26:30</time>
      </trkpt>
      <trkpt lat="28.13493" lon="-14.24849">
        <ele>34.2</ele>
        <time>2021-07-05 16:26:31</time>
      </trkpt>
      <trkpt lat="28.1349" lon="-14.24851">
        <ele>34.2</ele>
        <time>2021-07-05 16:26:32</time>
      </trkpt>
      <trkpt lat="28.13487" lon="-14.24852">
        <ele>34.2</ele>
        <time>2021-07-05 16:26:33</time>
      </trkpt>
      <trkpt lat="28.13485" lon="-14.24854">
        <ele>34</ele>
        <time>2021-07-05 16:26:34</time>
      </trkpt>
      <trkpt lat="28.13482" lon="-14.24856">
        <ele>34</ele>
        <time>2021-07-05 16:26:35</time>
      </trkpt>
      <trkpt lat="28.1348" lon="-14.24858">
        <ele>33.6</ele>
        <time>2021-07-05 16:26:36</time>
      </trkpt>
      <trkpt lat="28.13478" lon="-14.24861">
        <ele>33.6</ele>
        <time>2021-07-05 16:26:37</time>
      </trkpt>
      <trkpt lat="28.13477" lon="-14.24863">
        <ele>33.6</ele>
        <time>2021-07-05 16:26:38</time>
      </trkpt>
      <trkpt lat="28.13475" lon="-14.24866">
        <ele>33.6</ele>
        <time>2021-07-05 16:26:39</time>
      </trkpt>
      <trkpt lat="28.13473" lon="-14.24869">
        <ele>33.8</ele>
        <time>2021-07-05 16:26:40</time>
      </trkpt>
      <trkpt lat="28.13472" lon="-14.24871">
        <ele>33.8</ele>
        <time>2021-07-05 16:26:41</time>
      </trkpt>
      <trkpt lat="28.1347" lon="-14.24874">
        <ele>34</ele>
        <time>2021-07-05 16:26:42</time>
      </trkpt>
      <trkpt lat="28.13467" lon="-14.24876">
        <ele>34</ele>
        <time>2021-07-05 16:26:43</time>
      </trkpt>
      <trkpt lat="28.13465" lon="-14.24877">
        <ele>34.4</ele>
        <time>2021-07-05 16:26:44</time>
      </trkpt>
      <trkpt lat="28.13462" lon="-14.24879">
        <ele>34.4</ele>
        <time>2021-07-05 16:26:45</time>
      </trkpt>
      <trkpt lat="28.13459" lon="-14.2488">
        <ele>34.4</ele>
        <time>2021-07-05 16:26:46</time>
      </trkpt>
      <trkpt lat="28.13456" lon="-14.24881">
        <ele>34.6</ele>
        <time>2021-07-05 16:26:47</time>
      </trkpt>
      <trkpt lat="28.13452" lon="-14.24882">
        <ele>34.6</ele>
        <time>2021-07-05 16:26:48</time>
      </trkpt>
      <trkpt lat="28.13449" lon="-14.24883">
        <ele>34.6</ele>
        <time>2021-07-05 16:26:49</time>
      </trkpt>
      <trkpt lat="28.13445" lon="-14.24884">
        <ele>34.6</ele>
        <time>2021-07-05 16:26:50</time>
      </trkpt>
      <trkpt lat="28.13441" lon="-14.24885">
        <ele>34.2</ele>
        <time>2021-07-05 16:26:51</time>
      </trkpt>
      <trkpt lat="28.13438" lon="-14.24886">
        <ele>34</ele>
        <time>2021-07-05 16:26:52</time>
      </trkpt>
      <trkpt lat="28.13435" lon="-14.24888">
        <ele>34</ele>
        <time>2021-07-05 16:26:53</time>
      </trkpt>
      <trkpt lat="28.13431" lon="-14.24889">
        <ele>33.6</ele>
        <time>2021-07-05 16:26:54</time>
      </trkpt>
      <trkpt lat="28.13428" lon="-14.2489">
        <ele>33.4</ele>
        <time>2021-07-05 16:26:55</time>
      </trkpt>
      <trkpt lat="28.13424" lon="-14.24891">
        <ele>33.4</ele>
        <time>2021-07-05 16:26:56</time>
      </trkpt>
      <trkpt lat="28.13421" lon="-14.24893">
        <ele>33.4</ele>
        <time>2021-07-05 16:26:57</time>
      </trkpt>
      <trkpt lat="28.13418" lon="-14.24894">
        <ele>33.4</ele>
        <time>2021-07-05 16:26:58</time>
      </trkpt>
      <trkpt lat="28.13415" lon="-14.24895">
        <ele>33.2</ele>
        <time>2021-07-05 16:26:59</time>
      </trkpt>
      <trkpt lat="28.13412" lon="-14.24897">
        <ele>33.2</ele>
        <time>2021-07-05 16:27:00</time>
      </trkpt>
      <trkpt lat="28.13409" lon="-14.24898">
        <ele>33.2</ele>
        <time>2021-07-05 16:27:01</time>
      </trkpt>
      <trkpt lat="28.13406" lon="-14.24899">
        <ele>33.2</ele>
        <time>2021-07-05 16:27:02</time>
      </trkpt>
      <trkpt lat="28.13403" lon="-14.249">
        <ele>33</ele>
        <time>2021-07-05 16:27:03</time>
      </trkpt>
      <trkpt lat="28.13399" lon="-14.24901">
        <ele>33</ele>
        <time>2021-07-05 16:27:04</time>
      </trkpt>
      <trkpt lat="28.13396" lon="-14.24903">
        <ele>32.6</ele>
        <time>2021-07-05 16:27:05</time>
      </trkpt>
      <trkpt lat="28.13392" lon="-14.24904">
        <ele>32.6</ele>
        <time>2021-07-05 16:27:06</time>
      </trkpt>
      <trkpt lat="28.13389" lon="-14.24905">
        <ele>32.4</ele>
        <time>2021-07-05 16:27:07</time>
      </trkpt>
      <trkpt lat="28.13385" lon="-14.24906">
        <ele>32.4</ele>
        <time>2021-07-05 16:27:08</time>
      </trkpt>
      <trkpt lat="28.13381" lon="-14.24907">
        <ele>32.4</ele>
        <time>2021-07-05 16:27:09</time>
      </trkpt>
      <trkpt lat="28.13377" lon="-14.24908">
        <ele>32.4</ele>
        <time>2021-07-05 16:27:10</time>
      </trkpt>
      <trkpt lat="28.13373" lon="-14.24909">
        <ele>32.2</ele>
        <time>2021-07-05 16:27:11</time>
      </trkpt>
      <trkpt lat="28.13369" lon="-14.2491">
        <ele>32.2</ele>
        <time>2021-07-05 16:27:12</time>
      </trkpt>
      <trkpt lat="28.13364" lon="-14.24911">
        <ele>32.2</ele>
        <time>2021-07-05 16:27:13</time>
      </trkpt>
      <trkpt lat="28.1336" lon="-14.24913">
        <ele>32</ele>
        <time>2021-07-05 16:27:14</time>
      </trkpt>
      <trkpt lat="28.13355" lon="-14.24914">
        <ele>32</ele>
        <time>2021-07-05 16:27:15</time>
      </trkpt>
      <trkpt lat="28.13351" lon="-14.24915">
        <ele>31.6</ele>
        <time>2021-07-05 16:27:16</time>
      </trkpt>
      <trkpt lat="28.13346" lon="-14.24916">
        <ele>31.6</ele>
        <time>2021-07-05 16:27:17</time>
      </trkpt>
      <trkpt lat="28.13342" lon="-14.24918">
        <ele>31.6</ele>
        <time>2021-07-05 16:27:18</time>
      </trkpt>
      <trkpt lat="28.13338" lon="-14.24918">
        <ele>31.2</ele>
        <time>2021-07-05 16:27:19</time>
      </trkpt>
      <trkpt lat="28.13333" lon="-14.2492">
        <ele>31.2</ele>
        <time>2021-07-05 16:27:20</time>
      </trkpt>
      <trkpt lat="28.13329" lon="-14.24921">
        <ele>31</ele>
        <time>2021-07-05 16:27:21</time>
      </trkpt>
      <trkpt lat="28.13324" lon="-14.24923">
        <ele>31</ele>
        <time>2021-07-05 16:27:22</time>
      </trkpt>
      <trkpt lat="28.13318" lon="-14.24924">
        <ele>30.4</ele>
        <time>2021-07-05 16:27:23</time>
      </trkpt>
      <trkpt lat="28.13313" lon="-14.24925">
        <ele>30.2</ele>
        <time>2021-07-05 16:27:24</time>
      </trkpt>
      <trkpt lat="28.13307" lon="-14.24927">
        <ele>30</ele>
        <time>2021-07-05 16:27:25</time>
      </trkpt>
      <trkpt lat="28.13301" lon="-14.24928">
        <ele>29.8</ele>
        <time>2021-07-05 16:27:26</time>
      </trkpt>
      <trkpt lat="28.13295" lon="-14.2493">
        <ele>29.6</ele>
        <time>2021-07-05 16:27:27</time>
      </trkpt>
      <trkpt lat="28.1329" lon="-14.24933">
        <ele>29.2</ele>
        <time>2021-07-05 16:27:28</time>
      </trkpt>
      <trkpt lat="28.13285" lon="-14.24936">
        <ele>29.2</ele>
        <time>2021-07-05 16:27:29</time>
      </trkpt>
      <trkpt lat="28.13282" lon="-14.24938">
        <ele>29</ele>
        <time>2021-07-05 16:27:30</time>
      </trkpt>
      <trkpt lat="28.1328" lon="-14.24941">
        <ele>29</ele>
        <time>2021-07-05 16:27:31</time>
      </trkpt>
      <trkpt lat="28.13279" lon="-14.24942">
        <ele>29</ele>
        <time>2021-07-05 16:27:32</time>
      </trkpt>
      <trkpt lat="28.13278" lon="-14.24944">
        <ele>29.2</ele>
        <time>2021-07-05 16:27:33</time>
      </trkpt>
      <trkpt lat="28.13277" lon="-14.24945">
        <ele>29.6</ele>
        <time>2021-07-05 16:27:34</time>
      </trkpt>
      <trkpt lat="28.13275" lon="-14.24947">
        <ele>30</ele>
        <time>2021-07-05 16:27:35</time>
      </trkpt>
      <trkpt lat="28.13274" lon="-14.2495">
        <ele>30.4</ele>
        <time>2021-07-05 16:27:36</time>
      </trkpt>
      <trkpt lat="28.13273" lon="-14.24952">
        <ele>30.4</ele>
        <time>2021-07-05 16:27:37</time>
      </trkpt>
      <trkpt lat="28.13273" lon="-14.24955">
        <ele>30.6</ele>
        <time>2021-07-05 16:27:38</time>
      </trkpt>
      <trkpt lat="28.13271" lon="-14.24957">
        <ele>30.6</ele>
        <time>2021-07-05 16:27:39</time>
      </trkpt>
      <trkpt lat="28.1327" lon="-14.24959">
        <ele>30.6</ele>
        <time>2021-07-05 16:27:40</time>
      </trkpt>
      <trkpt lat="28.13268" lon="-14.24962">
        <ele>30.8</ele>
        <time>2021-07-05 16:27:41</time>
      </trkpt>
      <trkpt lat="28.13265" lon="-14.24964">
        <ele>30.8</ele>
        <time>2021-07-05 16:27:42</time>
      </trkpt>
      <trkpt lat="28.13263" lon="-14.24967">
        <ele>31.2</ele>
        <time>2021-07-05 16:27:43</time>
      </trkpt>
      <trkpt lat="28.1326" lon="-14.24969">
        <ele>31.2</ele>
        <time>2021-07-05 16:27:44</time>
      </trkpt>
      <trkpt lat="28.13257" lon="-14.24971">
        <ele>31.2</ele>
        <time>2021-07-05 16:27:45</time>
      </trkpt>
      <trkpt lat="28.13254" lon="-14.24972">
        <ele>31.2</ele>
        <time>2021-07-05 16:27:46</time>
      </trkpt>
      <trkpt lat="28.13251" lon="-14.24974">
        <ele>31.2</ele>
        <time>2021-07-05 16:27:47</time>
      </trkpt>
      <trkpt lat="28.13248" lon="-14.24976">
        <ele>31.2</ele>
        <time>2021-07-05 16:27:48</time>
      </trkpt>
      <trkpt lat="28.13245" lon="-14.24978">
        <ele>31.2</ele>
        <time>2021-07-05 16:27:49</time>
      </trkpt>
      <trkpt lat="28.13242" lon="-14.2498">
        <ele>31.2</ele>
        <time>2021-07-05 16:27:50</time>
      </trkpt>
      <trkpt lat="28.1324" lon="-14.24981">
        <ele>31</ele>
        <time>2021-07-05 16:27:51</time>
      </trkpt>
      <trkpt lat="28.13237" lon="-14.24982">
        <ele>31</ele>
        <time>2021-07-05 16:27:52</time>
      </trkpt>
      <trkpt lat="28.13233" lon="-14.24983">
        <ele>31</ele>
        <time>2021-07-05 16:27:53</time>
      </trkpt>
      <trkpt lat="28.13229" lon="-14.24984">
        <ele>31</ele>
        <time>2021-07-05 16:27:54</time>
      </trkpt>
      <trkpt lat="28.13226" lon="-14.24986">
        <ele>31</ele>
        <time>2021-07-05 16:27:55</time>
      </trkpt>
      <trkpt lat="28.13223" lon="-14.24987">
        <ele>31</ele>
        <time>2021-07-05 16:27:56</time>
      </trkpt>
      <trkpt lat="28.13219" lon="-14.24989">
        <ele>31</ele>
        <time>2021-07-05 16:27:57</time>
      </trkpt>
      <trkpt lat="28.13215" lon="-14.24991">
        <ele>31</ele>
        <time>2021-07-05 16:27:58</time>
      </trkpt>
      <trkpt lat="28.13211" lon="-14.24993">
        <ele>31</ele>
        <time>2021-07-05 16:27:59</time>
      </trkpt>
      <trkpt lat="28.13208" lon="-14.24995">
        <ele>31</ele>
        <time>2021-07-05 16:28:00</time>
      </trkpt>
      <trkpt lat="28.13206" lon="-14.24996">
        <ele>31</ele>
        <time>2021-07-05 16:28:01</time>
      </trkpt>
      <trkpt lat="28.13202" lon="-14.24998">
        <ele>31</ele>
        <time>2021-07-05 16:28:02</time>
      </trkpt>
      <trkpt lat="28.13199" lon="-14.25">
        <ele>31</ele>
        <time>2021-07-05 16:28:03</time>
      </trkpt>
      <trkpt lat="28.13196" lon="-14.25002">
        <ele>31</ele>
        <time>2021-07-05 16:28:04</time>
      </trkpt>
      <trkpt lat="28.13193" lon="-14.25005">
        <ele>31</ele>
        <time>2021-07-05 16:28:05</time>
      </trkpt>
      <trkpt lat="28.13189" lon="-14.25008">
        <ele>31</ele>
        <time>2021-07-05 16:28:06</time>
      </trkpt>
      <trkpt lat="28.13184" lon="-14.25011">
        <ele>31</ele>
        <time>2021-07-05 16:28:07</time>
      </trkpt>
      <trkpt lat="28.13179" lon="-14.25012">
        <ele>31</ele>
        <time>2021-07-05 16:28:08</time>
      </trkpt>
      <trkpt lat="28.13174" lon="-14.25014">
        <ele>30.6</ele>
        <time>2021-07-05 16:28:09</time>
      </trkpt>
      <trkpt lat="28.13168" lon="-14.25016">
        <ele>30.4</ele>
        <time>2021-07-05 16:28:10</time>
      </trkpt>
      <trkpt lat="28.13163" lon="-14.25016">
        <ele>30</ele>
        <time>2021-07-05 16:28:11</time>
      </trkpt>
      <trkpt lat="28.13157" lon="-14.25017">
        <ele>29.6</ele>
        <time>2021-07-05 16:28:12</time>
      </trkpt>
      <trkpt lat="28.13152" lon="-14.25016">
        <ele>29.4</ele>
        <time>2021-07-05 16:28:13</time>
      </trkpt>
      <trkpt lat="28.13147" lon="-14.25016">
        <ele>29</ele>
        <time>2021-07-05 16:28:14</time>
      </trkpt>
      <trkpt lat="28.13143" lon="-14.25016">
        <ele>29</ele>
        <time>2021-07-05 16:28:15</time>
      </trkpt>
      <trkpt lat="28.13139" lon="-14.25016">
        <ele>28.8</ele>
        <time>2021-07-05 16:28:16</time>
      </trkpt>
      <trkpt lat="28.13136" lon="-14.25016">
        <ele>28.8</ele>
        <time>2021-07-05 16:28:17</time>
      </trkpt>
      <trkpt lat="28.13133" lon="-14.25016">
        <ele>28.8</ele>
        <time>2021-07-05 16:28:18</time>
      </trkpt>
      <trkpt lat="28.1313" lon="-14.25015">
        <ele>28.8</ele>
        <time>2021-07-05 16:28:19</time>
      </trkpt>
      <trkpt lat="28.13126" lon="-14.25016">
        <ele>29.2</ele>
        <time>2021-07-05 16:28:20</time>
      </trkpt>
      <trkpt lat="28.13123" lon="-14.25016">
        <ele>29.4</ele>
        <time>2021-07-05 16:28:21</time>
      </trkpt>
      <trkpt lat="28.13121" lon="-14.25015">
        <ele>29.6</ele>
        <time>2021-07-05 16:28:22</time>
      </trkpt>
      <trkpt lat="28.13117" lon="-14.25015">
        <ele>30</ele>
        <time>2021-07-05 16:28:23</time>
      </trkpt>
      <trkpt lat="28.13114" lon="-14.25015">
        <ele>30</ele>
        <time>2021-07-05 16:28:24</time>
      </trkpt>
      <trkpt lat="28.13111" lon="-14.25014">
        <ele>30.2</ele>
        <time>2021-07-05 16:28:25</time>
      </trkpt>
      <trkpt lat="28.13107" lon="-14.25013">
        <ele>30.2</ele>
        <time>2021-07-05 16:28:26</time>
      </trkpt>
      <trkpt lat="28.13103" lon="-14.25012">
        <ele>30.2</ele>
        <time>2021-07-05 16:28:27</time>
      </trkpt>
      <trkpt lat="28.13099" lon="-14.25012">
        <ele>30.2</ele>
        <time>2021-07-05 16:28:28</time>
      </trkpt>
      <trkpt lat="28.13094" lon="-14.25013">
        <ele>30.2</ele>
        <time>2021-07-05 16:28:29</time>
      </trkpt>
      <trkpt lat="28.1309" lon="-14.25014">
        <ele>30.2</ele>
        <time>2021-07-05 16:28:30</time>
      </trkpt>
      <trkpt lat="28.13086" lon="-14.25018">
        <ele>30.2</ele>
        <time>2021-07-05 16:28:31</time>
      </trkpt>
      <trkpt lat="28.13082" lon="-14.2502">
        <ele>30</ele>
        <time>2021-07-05 16:28:32</time>
      </trkpt>
      <trkpt lat="28.13079" lon="-14.25021">
        <ele>29.4</ele>
        <time>2021-07-05 16:28:33</time>
      </trkpt>
      <trkpt lat="28.13076" lon="-14.25022">
        <ele>29.4</ele>
        <time>2021-07-05 16:28:34</time>
      </trkpt>
      <trkpt lat="28.13073" lon="-14.25022">
        <ele>28.8</ele>
        <time>2021-07-05 16:28:35</time>
      </trkpt>
      <trkpt lat="28.13069" lon="-14.25023">
        <ele>28.8</ele>
        <time>2021-07-05 16:28:36</time>
      </trkpt>
      <trkpt lat="28.13065" lon="-14.25023">
        <ele>28.4</ele>
        <time>2021-07-05 16:28:37</time>
      </trkpt>
      <trkpt lat="28.13062" lon="-14.25024">
        <ele>28</ele>
        <time>2021-07-05 16:28:38</time>
      </trkpt>
      <trkpt lat="28.13057" lon="-14.25024">
        <ele>27.6</ele>
        <time>2021-07-05 16:28:39</time>
      </trkpt>
      <trkpt lat="28.13053" lon="-14.25024">
        <ele>27</ele>
        <time>2021-07-05 16:28:40</time>
      </trkpt>
      <trkpt lat="28.13048" lon="-14.25025">
        <ele>26.4</ele>
        <time>2021-07-05 16:28:41</time>
      </trkpt>
      <trkpt lat="28.13043" lon="-14.25026">
        <ele>26</ele>
        <time>2021-07-05 16:28:42</time>
      </trkpt>
      <trkpt lat="28.13037" lon="-14.25027">
        <ele>25.4</ele>
        <time>2021-07-05 16:28:43</time>
      </trkpt>
      <trkpt lat="28.13032" lon="-14.25028">
        <ele>24.8</ele>
        <time>2021-07-05 16:28:44</time>
      </trkpt>
      <trkpt lat="28.13027" lon="-14.2503">
        <ele>24.4</ele>
        <time>2021-07-05 16:28:45</time>
      </trkpt>
      <trkpt lat="28.13023" lon="-14.25033">
        <ele>24</ele>
        <time>2021-07-05 16:28:46</time>
      </trkpt>
      <trkpt lat="28.1302" lon="-14.25036">
        <ele>23.6</ele>
        <time>2021-07-05 16:28:47</time>
      </trkpt>
      <trkpt lat="28.13017" lon="-14.25039">
        <ele>23.4</ele>
        <time>2021-07-05 16:28:48</time>
      </trkpt>
      <trkpt lat="28.13015" lon="-14.25043">
        <ele>23</ele>
        <time>2021-07-05 16:28:49</time>
      </trkpt>
      <trkpt lat="28.13013" lon="-14.25047">
        <ele>22.8</ele>
        <time>2021-07-05 16:28:50</time>
      </trkpt>
      <trkpt lat="28.1301" lon="-14.25051">
        <ele>22.6</ele>
        <time>2021-07-05 16:28:51</time>
      </trkpt>
      <trkpt lat="28.13008" lon="-14.25055">
        <ele>22.4</ele>
        <time>2021-07-05 16:28:52</time>
      </trkpt>
      <trkpt lat="28.13005" lon="-14.25058">
        <ele>22.4</ele>
        <time>2021-07-05 16:28:53</time>
      </trkpt>
      <trkpt lat="28.13002" lon="-14.25059">
        <ele>22.4</ele>
        <time>2021-07-05 16:28:54</time>
      </trkpt>
      <trkpt lat="28.13" lon="-14.25061">
        <ele>22.4</ele>
        <time>2021-07-05 16:28:55</time>
      </trkpt>
      <trkpt lat="28.12997" lon="-14.25063">
        <ele>22.6</ele>
        <time>2021-07-05 16:28:56</time>
      </trkpt>
      <trkpt lat="28.12994" lon="-14.25064">
        <ele>22.8</ele>
        <time>2021-07-05 16:28:57</time>
      </trkpt>
      <trkpt lat="28.12991" lon="-14.25064">
        <ele>23.2</ele>
        <time>2021-07-05 16:28:58</time>
      </trkpt>
      <trkpt lat="28.12989" lon="-14.25065">
        <ele>23.2</ele>
        <time>2021-07-05 16:28:59</time>
      </trkpt>
      <trkpt lat="28.12986" lon="-14.25066">
        <ele>23.2</ele>
        <time>2021-07-05 16:29:00</time>
      </trkpt>
      <trkpt lat="28.12984" lon="-14.25067">
        <ele>23.4</ele>
        <time>2021-07-05 16:29:01</time>
      </trkpt>
      <trkpt lat="28.12982" lon="-14.25068">
        <ele>23.8</ele>
        <time>2021-07-05 16:29:02</time>
      </trkpt>
      <trkpt lat="28.12979" lon="-14.25068">
        <ele>24</ele>
        <time>2021-07-05 16:29:03</time>
      </trkpt>
      <trkpt lat="28.12977" lon="-14.25069">
        <ele>24.4</ele>
        <time>2021-07-05 16:29:04</time>
      </trkpt>
      <trkpt lat="28.12975" lon="-14.25069">
        <ele>24.6</ele>
        <time>2021-07-05 16:29:05</time>
      </trkpt>
      <trkpt lat="28.12973" lon="-14.2507">
        <ele>25</ele>
        <time>2021-07-05 16:29:06</time>
      </trkpt>
      <trkpt lat="28.12971" lon="-14.25071">
        <ele>25.4</ele>
        <time>2021-07-05 16:29:07</time>
      </trkpt>
      <trkpt lat="28.12968" lon="-14.25072">
        <ele>25.6</ele>
        <time>2021-07-05 16:29:08</time>
      </trkpt>
      <trkpt lat="28.12965" lon="-14.25073">
        <ele>26</ele>
        <time>2021-07-05 16:29:09</time>
      </trkpt>
      <trkpt lat="28.12963" lon="-14.25074">
        <ele>26.2</ele>
        <time>2021-07-05 16:29:10</time>
      </trkpt>
      <trkpt lat="28.1296" lon="-14.25075">
        <ele>26.2</ele>
        <time>2021-07-05 16:29:11</time>
      </trkpt>
      <trkpt lat="28.12957" lon="-14.25075">
        <ele>26.6</ele>
        <time>2021-07-05 16:29:12</time>
      </trkpt>
      <trkpt lat="28.12954" lon="-14.25076">
        <ele>27</ele>
        <time>2021-07-05 16:29:13</time>
      </trkpt>
      <trkpt lat="28.12951" lon="-14.25076">
        <ele>27</ele>
        <time>2021-07-05 16:29:14</time>
      </trkpt>
      <trkpt lat="28.12948" lon="-14.25076">
        <ele>27</ele>
        <time>2021-07-05 16:29:15</time>
      </trkpt>
      <trkpt lat="28.12945" lon="-14.25076">
        <ele>27</ele>
        <time>2021-07-05 16:29:16</time>
      </trkpt>
      <trkpt lat="28.12942" lon="-14.25076">
        <ele>27</ele>
        <time>2021-07-05 16:29:17</time>
      </trkpt>
      <trkpt lat="28.12939" lon="-14.25075">
        <ele>27</ele>
        <time>2021-07-05 16:29:18</time>
      </trkpt>
      <trkpt lat="28.12936" lon="-14.25074">
        <ele>27</ele>
        <time>2021-07-05 16:29:19</time>
      </trkpt>
      <trkpt lat="28.12933" lon="-14.25073">
        <ele>27</ele>
        <time>2021-07-05 16:29:20</time>
      </trkpt>
      <trkpt lat="28.1293" lon="-14.25073">
        <ele>27</ele>
        <time>2021-07-05 16:29:21</time>
      </trkpt>
      <trkpt lat="28.12926" lon="-14.25073">
        <ele>27.4</ele>
        <time>2021-07-05 16:29:22</time>
      </trkpt>
      <trkpt lat="28.12922" lon="-14.25073">
        <ele>27.4</ele>
        <time>2021-07-05 16:29:23</time>
      </trkpt>
      <trkpt lat="28.12919" lon="-14.25074">
        <ele>27.6</ele>
        <time>2021-07-05 16:29:24</time>
      </trkpt>
      <trkpt lat="28.12915" lon="-14.25075">
        <ele>27.6</ele>
        <time>2021-07-05 16:29:25</time>
      </trkpt>
      <trkpt lat="28.12912" lon="-14.25077">
        <ele>27.6</ele>
        <time>2021-07-05 16:29:26</time>
      </trkpt>
      <trkpt lat="28.12909" lon="-14.25079">
        <ele>27.8</ele>
        <time>2021-07-05 16:29:27</time>
      </trkpt>
      <trkpt lat="28.12907" lon="-14.25081">
        <ele>28.2</ele>
        <time>2021-07-05 16:29:28</time>
      </trkpt>
      <trkpt lat="28.12904" lon="-14.25083">
        <ele>28.2</ele>
        <time>2021-07-05 16:29:29</time>
      </trkpt>
      <trkpt lat="28.12902" lon="-14.25085">
        <ele>28.2</ele>
        <time>2021-07-05 16:29:30</time>
      </trkpt>
      <trkpt lat="28.12899" lon="-14.25087">
        <ele>28.4</ele>
        <time>2021-07-05 16:29:31</time>
      </trkpt>
      <trkpt lat="28.12896" lon="-14.25089">
        <ele>28.4</ele>
        <time>2021-07-05 16:29:32</time>
      </trkpt>
      <trkpt lat="28.12894" lon="-14.25091">
        <ele>28.4</ele>
        <time>2021-07-05 16:29:33</time>
      </trkpt>
      <trkpt lat="28.12891" lon="-14.25093">
        <ele>28.4</ele>
        <time>2021-07-05 16:29:34</time>
      </trkpt>
      <trkpt lat="28.12888" lon="-14.25095">
        <ele>28.4</ele>
        <time>2021-07-05 16:29:35</time>
      </trkpt>
      <trkpt lat="28.12884" lon="-14.25097">
        <ele>28.4</ele>
        <time>2021-07-05 16:29:36</time>
      </trkpt>
      <trkpt lat="28.1288" lon="-14.25098">
        <ele>28.6</ele>
        <time>2021-07-05 16:29:37</time>
      </trkpt>
      <trkpt lat="28.12876" lon="-14.25099">
        <ele>28.6</ele>
        <time>2021-07-05 16:29:38</time>
      </trkpt>
      <trkpt lat="28.12872" lon="-14.25101">
        <ele>28.6</ele>
        <time>2021-07-05 16:29:39</time>
      </trkpt>
      <trkpt lat="28.12868" lon="-14.25102">
        <ele>28.6</ele>
        <time>2021-07-05 16:29:40</time>
      </trkpt>
      <trkpt lat="28.12864" lon="-14.25103">
        <ele>28.6</ele>
        <time>2021-07-05 16:29:41</time>
      </trkpt>
      <trkpt lat="28.12859" lon="-14.25105">
        <ele>28.6</ele>
        <time>2021-07-05 16:29:42</time>
      </trkpt>
      <trkpt lat="28.12855" lon="-14.25106">
        <ele>28.4</ele>
        <time>2021-07-05 16:29:43</time>
      </trkpt>
      <trkpt lat="28.1285" lon="-14.25108">
        <ele>28.4</ele>
        <time>2021-07-05 16:29:44</time>
      </trkpt>
      <trkpt lat="28.12847" lon="-14.25109">
        <ele>28.4</ele>
        <time>2021-07-05 16:29:45</time>
      </trkpt>
      <trkpt lat="28.12842" lon="-14.25111">
        <ele>28.4</ele>
        <time>2021-07-05 16:29:46</time>
      </trkpt>
      <trkpt lat="28.12839" lon="-14.25113">
        <ele>28.4</ele>
        <time>2021-07-05 16:29:47</time>
      </trkpt>
      <trkpt lat="28.12835" lon="-14.25114">
        <ele>28.2</ele>
        <time>2021-07-05 16:29:48</time>
      </trkpt>
      <trkpt lat="28.12831" lon="-14.25116">
        <ele>28.2</ele>
        <time>2021-07-05 16:29:49</time>
      </trkpt>
      <trkpt lat="28.12827" lon="-14.25117">
        <ele>28.2</ele>
        <time>2021-07-05 16:29:50</time>
      </trkpt>
      <trkpt lat="28.12823" lon="-14.25119">
        <ele>28.2</ele>
        <time>2021-07-05 16:29:51</time>
      </trkpt>
      <trkpt lat="28.12818" lon="-14.2512">
        <ele>28</ele>
        <time>2021-07-05 16:29:52</time>
      </trkpt>
      <trkpt lat="28.12814" lon="-14.25121">
        <ele>28</ele>
        <time>2021-07-05 16:29:53</time>
      </trkpt>
      <trkpt lat="28.12809" lon="-14.25121">
        <ele>27.6</ele>
        <time>2021-07-05 16:29:54</time>
      </trkpt>
      <trkpt lat="28.12804" lon="-14.25121">
        <ele>27.4</ele>
        <time>2021-07-05 16:29:55</time>
      </trkpt>
      <trkpt lat="28.12798" lon="-14.25122">
        <ele>27.4</ele>
        <time>2021-07-05 16:29:56</time>
      </trkpt>
      <trkpt lat="28.12792" lon="-14.25123">
        <ele>26.8</ele>
        <time>2021-07-05 16:29:57</time>
      </trkpt>
      <trkpt lat="28.12787" lon="-14.25126">
        <ele>26.4</ele>
        <time>2021-07-05 16:29:58</time>
      </trkpt>
      <trkpt lat="28.12781" lon="-14.25129">
        <ele>26.2</ele>
        <time>2021-07-05 16:29:59</time>
      </trkpt>
      <trkpt lat="28.12776" lon="-14.25132">
        <ele>25.8</ele>
        <time>2021-07-05 16:30:00</time>
      </trkpt>
      <trkpt lat="28.12771" lon="-14.25134">
        <ele>25.8</ele>
        <time>2021-07-05 16:30:01</time>
      </trkpt>
      <trkpt lat="28.12766" lon="-14.25136">
        <ele>25.6</ele>
        <time>2021-07-05 16:30:02</time>
      </trkpt>
      <trkpt lat="28.12762" lon="-14.25137">
        <ele>25.4</ele>
        <time>2021-07-05 16:30:03</time>
      </trkpt>
      <trkpt lat="28.12757" lon="-14.25137">
        <ele>25.4</ele>
        <time>2021-07-05 16:30:04</time>
      </trkpt>
      <trkpt lat="28.12752" lon="-14.25138">
        <ele>25.4</ele>
        <time>2021-07-05 16:30:05</time>
      </trkpt>
      <trkpt lat="28.12747" lon="-14.25138">
        <ele>25</ele>
        <time>2021-07-05 16:30:06</time>
      </trkpt>
      <trkpt lat="28.12743" lon="-14.25138">
        <ele>24.6</ele>
        <time>2021-07-05 16:30:07</time>
      </trkpt>
      <trkpt lat="28.12738" lon="-14.25139">
        <ele>24.4</ele>
        <time>2021-07-05 16:30:08</time>
      </trkpt>
      <trkpt lat="28.12734" lon="-14.2514">
        <ele>24</ele>
        <time>2021-07-05 16:30:09</time>
      </trkpt>
      <trkpt lat="28.1273" lon="-14.25142">
        <ele>23.6</ele>
        <time>2021-07-05 16:30:10</time>
      </trkpt>
      <trkpt lat="28.12725" lon="-14.25144">
        <ele>23</ele>
        <time>2021-07-05 16:30:11</time>
      </trkpt>
      <trkpt lat="28.12721" lon="-14.25147">
        <ele>22.6</ele>
        <time>2021-07-05 16:30:12</time>
      </trkpt>
      <trkpt lat="28.12717" lon="-14.25151">
        <ele>22.2</ele>
        <time>2021-07-05 16:30:13</time>
      </trkpt>
      <trkpt lat="28.12713" lon="-14.25156">
        <ele>21.2</ele>
        <time>2021-07-05 16:30:14</time>
      </trkpt>
      <trkpt lat="28.12709" lon="-14.25162">
        <ele>21.2</ele>
        <time>2021-07-05 16:30:15</time>
      </trkpt>
      <trkpt lat="28.12705" lon="-14.25166">
        <ele>20.8</ele>
        <time>2021-07-05 16:30:16</time>
      </trkpt>
      <trkpt lat="28.12701" lon="-14.25171">
        <ele>20.4</ele>
        <time>2021-07-05 16:30:17</time>
      </trkpt>
      <trkpt lat="28.12698" lon="-14.25176">
        <ele>20</ele>
        <time>2021-07-05 16:30:18</time>
      </trkpt>
      <trkpt lat="28.12695" lon="-14.25179">
        <ele>19.8</ele>
        <time>2021-07-05 16:30:19</time>
      </trkpt>
      <trkpt lat="28.12693" lon="-14.25182">
        <ele>19.6</ele>
        <time>2021-07-05 16:30:20</time>
      </trkpt>
      <trkpt lat="28.1269" lon="-14.25184">
        <ele>19.6</ele>
        <time>2021-07-05 16:30:21</time>
      </trkpt>
      <trkpt lat="28.12689" lon="-14.25187">
        <ele>19.6</ele>
        <time>2021-07-05 16:30:22</time>
      </trkpt>
      <trkpt lat="28.12686" lon="-14.25189">
        <ele>20</ele>
        <time>2021-07-05 16:30:23</time>
      </trkpt>
      <trkpt lat="28.12684" lon="-14.25191">
        <ele>20.2</ele>
        <time>2021-07-05 16:30:24</time>
      </trkpt>
      <trkpt lat="28.12682" lon="-14.25193">
        <ele>20.4</ele>
        <time>2021-07-05 16:30:25</time>
      </trkpt>
      <trkpt lat="28.1268" lon="-14.25194">
        <ele>20.8</ele>
        <time>2021-07-05 16:30:26</time>
      </trkpt>
      <trkpt lat="28.12678" lon="-14.25196">
        <ele>21</ele>
        <time>2021-07-05 16:30:27</time>
      </trkpt>
      <trkpt lat="28.12675" lon="-14.25197">
        <ele>21.2</ele>
        <time>2021-07-05 16:30:28</time>
      </trkpt>
      <trkpt lat="28.12673" lon="-14.25198">
        <ele>21.4</ele>
        <time>2021-07-05 16:30:29</time>
      </trkpt>
      <trkpt lat="28.1267" lon="-14.25199">
        <ele>21.4</ele>
        <time>2021-07-05 16:30:30</time>
      </trkpt>
      <trkpt lat="28.12668" lon="-14.252">
        <ele>21.8</ele>
        <time>2021-07-05 16:30:31</time>
      </trkpt>
      <trkpt lat="28.12665" lon="-14.25201">
        <ele>22</ele>
        <time>2021-07-05 16:30:32</time>
      </trkpt>
      <trkpt lat="28.12663" lon="-14.25202">
        <ele>22.4</ele>
        <time>2021-07-05 16:30:33</time>
      </trkpt>
      <trkpt lat="28.12661" lon="-14.25203">
        <ele>22.8</ele>
        <time>2021-07-05 16:30:34</time>
      </trkpt>
      <trkpt lat="28.12658" lon="-14.25204">
        <ele>23</ele>
        <time>2021-07-05 16:30:35</time>
      </trkpt>
      <trkpt lat="28.12656" lon="-14.25205">
        <ele>23.4</ele>
        <time>2021-07-05 16:30:36</time>
      </trkpt>
      <trkpt lat="28.12653" lon="-14.25206">
        <ele>24</ele>
        <time>2021-07-05 16:30:37</time>
      </trkpt>
      <trkpt lat="28.12651" lon="-14.25208">
        <ele>24</ele>
        <time>2021-07-05 16:30:38</time>
      </trkpt>
      <trkpt lat="28.12649" lon="-14.25209">
        <ele>24.2</ele>
        <time>2021-07-05 16:30:39</time>
      </trkpt>
      <trkpt lat="28.12647" lon="-14.2521">
        <ele>24.4</ele>
        <time>2021-07-05 16:30:40</time>
      </trkpt>
      <trkpt lat="28.12645" lon="-14.25211">
        <ele>24.6</ele>
        <time>2021-07-05 16:30:41</time>
      </trkpt>
      <trkpt lat="28.12642" lon="-14.25212">
        <ele>24.8</ele>
        <time>2021-07-05 16:30:42</time>
      </trkpt>
      <trkpt lat="28.1264" lon="-14.25213">
        <ele>25.2</ele>
        <time>2021-07-05 16:30:43</time>
      </trkpt>
      <trkpt lat="28.12638" lon="-14.25215">
        <ele>25.4</ele>
        <time>2021-07-05 16:30:44</time>
      </trkpt>
      <trkpt lat="28.12636" lon="-14.25217">
        <ele>25.6</ele>
        <time>2021-07-05 16:30:45</time>
      </trkpt>
      <trkpt lat="28.12635" lon="-14.25218">
        <ele>26</ele>
        <time>2021-07-05 16:30:46</time>
      </trkpt>
      <trkpt lat="28.12633" lon="-14.2522">
        <ele>26.6</ele>
        <time>2021-07-05 16:30:47</time>
      </trkpt>
      <trkpt lat="28.12631" lon="-14.25222">
        <ele>27</ele>
        <time>2021-07-05 16:30:48</time>
      </trkpt>
      <trkpt lat="28.12629" lon="-14.25223">
        <ele>27.4</ele>
        <time>2021-07-05 16:30:49</time>
      </trkpt>
      <trkpt lat="28.12628" lon="-14.25225">
        <ele>27.8</ele>
        <time>2021-07-05 16:30:50</time>
      </trkpt>
      <trkpt lat="28.12626" lon="-14.25227">
        <ele>28.2</ele>
        <time>2021-07-05 16:30:51</time>
      </trkpt>
      <trkpt lat="28.12625" lon="-14.25229">
        <ele>28.6</ele>
        <time>2021-07-05 16:30:52</time>
      </trkpt>
      <trkpt lat="28.12623" lon="-14.25231">
        <ele>28.6</ele>
        <time>2021-07-05 16:30:53</time>
      </trkpt>
      <trkpt lat="28.12622" lon="-14.25233">
        <ele>29</ele>
        <time>2021-07-05 16:30:54</time>
      </trkpt>
      <trkpt lat="28.12621" lon="-14.25236">
        <ele>29</ele>
        <time>2021-07-05 16:30:55</time>
      </trkpt>
      <trkpt lat="28.1262" lon="-14.25238">
        <ele>29.2</ele>
        <time>2021-07-05 16:30:56</time>
      </trkpt>
      <trkpt lat="28.12619" lon="-14.25241">
        <ele>29.2</ele>
        <time>2021-07-05 16:30:57</time>
      </trkpt>
      <trkpt lat="28.12618" lon="-14.25244">
        <ele>29.2</ele>
        <time>2021-07-05 16:30:58</time>
      </trkpt>
      <trkpt lat="28.12617" lon="-14.25246">
        <ele>29.2</ele>
        <time>2021-07-05 16:30:59</time>
      </trkpt>
      <trkpt lat="28.12617" lon="-14.25248">
        <ele>29.2</ele>
        <time>2021-07-05 16:31:00</time>
      </trkpt>
      <trkpt lat="28.12616" lon="-14.25251">
        <ele>29.4</ele>
        <time>2021-07-05 16:31:01</time>
      </trkpt>
      <trkpt lat="28.12615" lon="-14.25253">
        <ele>29.8</ele>
        <time>2021-07-05 16:31:02</time>
      </trkpt>
      <trkpt lat="28.12614" lon="-14.25254">
        <ele>30.2</ele>
        <time>2021-07-05 16:31:03</time>
      </trkpt>
      <trkpt lat="28.12612" lon="-14.25256">
        <ele>30.2</ele>
        <time>2021-07-05 16:31:04</time>
      </trkpt>
      <trkpt lat="28.12611" lon="-14.25258">
        <ele>30.2</ele>
        <time>2021-07-05 16:31:05</time>
      </trkpt>
      <trkpt lat="28.12609" lon="-14.25259">
        <ele>30.2</ele>
        <time>2021-07-05 16:31:06</time>
      </trkpt>
      <trkpt lat="28.12607" lon="-14.25261">
        <ele>30.2</ele>
        <time>2021-07-05 16:31:07</time>
      </trkpt>
      <trkpt lat="28.12606" lon="-14.25263">
        <ele>30.4</ele>
        <time>2021-07-05 16:31:08</time>
      </trkpt>
      <trkpt lat="28.12604" lon="-14.25265">
        <ele>30.4</ele>
        <time>2021-07-05 16:31:09</time>
      </trkpt>
      <trkpt lat="28.12602" lon="-14.25267">
        <ele>30.8</ele>
        <time>2021-07-05 16:31:10</time>
      </trkpt>
      <trkpt lat="28.126" lon="-14.25269">
        <ele>31.2</ele>
        <time>2021-07-05 16:31:11</time>
      </trkpt>
      <trkpt lat="28.12598" lon="-14.25272">
        <ele>31.2</ele>
        <time>2021-07-05 16:31:12</time>
      </trkpt>
      <trkpt lat="28.12596" lon="-14.25274">
        <ele>31.6</ele>
        <time>2021-07-05 16:31:13</time>
      </trkpt>
      <trkpt lat="28.12594" lon="-14.25276">
        <ele>31.6</ele>
        <time>2021-07-05 16:31:14</time>
      </trkpt>
      <trkpt lat="28.12592" lon="-14.25278">
        <ele>31.8</ele>
        <time>2021-07-05 16:31:15</time>
      </trkpt>
      <trkpt lat="28.1259" lon="-14.2528">
        <ele>31.8</ele>
        <time>2021-07-05 16:31:16</time>
      </trkpt>
      <trkpt lat="28.12589" lon="-14.25283">
        <ele>32.2</ele>
        <time>2021-07-05 16:31:17</time>
      </trkpt>
      <trkpt lat="28.12587" lon="-14.25285">
        <ele>32.2</ele>
        <time>2021-07-05 16:31:18</time>
      </trkpt>
      <trkpt lat="28.12585" lon="-14.25287">
        <ele>32.4</ele>
        <time>2021-07-05 16:31:19</time>
      </trkpt>
      <trkpt lat="28.12584" lon="-14.25289">
        <ele>32.4</ele>
        <time>2021-07-05 16:31:20</time>
      </trkpt>
      <trkpt lat="28.12582" lon="-14.25292">
        <ele>32.6</ele>
        <time>2021-07-05 16:31:21</time>
      </trkpt>
      <trkpt lat="28.12581" lon="-14.25294">
        <ele>33</ele>
        <time>2021-07-05 16:31:22</time>
      </trkpt>
      <trkpt lat="28.1258" lon="-14.25296">
        <ele>33</ele>
        <time>2021-07-05 16:31:23</time>
      </trkpt>
      <trkpt lat="28.12578" lon="-14.25299">
        <ele>33</ele>
        <time>2021-07-05 16:31:24</time>
      </trkpt>
      <trkpt lat="28.12576" lon="-14.25301">
        <ele>33.4</ele>
        <time>2021-07-05 16:31:25</time>
      </trkpt>
      <trkpt lat="28.12574" lon="-14.25304">
        <ele>33.6</ele>
        <time>2021-07-05 16:31:26</time>
      </trkpt>
      <trkpt lat="28.12572" lon="-14.25306">
        <ele>33.6</ele>
        <time>2021-07-05 16:31:27</time>
      </trkpt>
      <trkpt lat="28.1257" lon="-14.25308">
        <ele>33.2</ele>
        <time>2021-07-05 16:31:28</time>
      </trkpt>
      <trkpt lat="28.12568" lon="-14.2531">
        <ele>33.2</ele>
        <time>2021-07-05 16:31:29</time>
      </trkpt>
      <trkpt lat="28.12566" lon="-14.25311">
        <ele>33</ele>
        <time>2021-07-05 16:31:30</time>
      </trkpt>
      <trkpt lat="28.12564" lon="-14.25312">
        <ele>32.6</ele>
        <time>2021-07-05 16:31:31</time>
      </trkpt>
      <trkpt lat="28.12562" lon="-14.25313">
        <ele>32.2</ele>
        <time>2021-07-05 16:31:32</time>
      </trkpt>
      <trkpt lat="28.12558" lon="-14.25314">
        <ele>32</ele>
        <time>2021-07-05 16:31:33</time>
      </trkpt>
      <trkpt lat="28.12555" lon="-14.25316">
        <ele>31.2</ele>
        <time>2021-07-05 16:31:34</time>
      </trkpt>
      <trkpt lat="28.12552" lon="-14.25317">
        <ele>31.2</ele>
        <time>2021-07-05 16:31:35</time>
      </trkpt>
      <trkpt lat="28.1255" lon="-14.25319">
        <ele>31</ele>
        <time>2021-07-05 16:31:36</time>
      </trkpt>
      <trkpt lat="28.12548" lon="-14.25321">
        <ele>31</ele>
        <time>2021-07-05 16:31:37</time>
      </trkpt>
      <trkpt lat="28.12545" lon="-14.25323">
        <ele>31</ele>
        <time>2021-07-05 16:31:38</time>
      </trkpt>
      <trkpt lat="28.12543" lon="-14.25325">
        <ele>31</ele>
        <time>2021-07-05 16:31:39</time>
      </trkpt>
      <trkpt lat="28.12541" lon="-14.25326">
        <ele>31.2</ele>
        <time>2021-07-05 16:31:40</time>
      </trkpt>
      <trkpt lat="28.12538" lon="-14.25328">
        <ele>31.2</ele>
        <time>2021-07-05 16:31:41</time>
      </trkpt>
      <trkpt lat="28.12536" lon="-14.2533">
        <ele>31.2</ele>
        <time>2021-07-05 16:31:42</time>
      </trkpt>
      <trkpt lat="28.12534" lon="-14.25333">
        <ele>31.6</ele>
        <time>2021-07-05 16:31:43</time>
      </trkpt>
      <trkpt lat="28.12532" lon="-14.25335">
        <ele>31.6</ele>
        <time>2021-07-05 16:31:44</time>
      </trkpt>
      <trkpt lat="28.12529" lon="-14.25336">
        <ele>31.6</ele>
        <time>2021-07-05 16:31:45</time>
      </trkpt>
      <trkpt lat="28.12525" lon="-14.25338">
        <ele>31.6</ele>
        <time>2021-07-05 16:31:46</time>
      </trkpt>
      <trkpt lat="28.12522" lon="-14.25338">
        <ele>31.6</ele>
        <time>2021-07-05 16:31:47</time>
      </trkpt>
      <trkpt lat="28.12518" lon="-14.25338">
        <ele>31.6</ele>
        <time>2021-07-05 16:31:48</time>
      </trkpt>
      <trkpt lat="28.12515" lon="-14.25338">
        <ele>31.6</ele>
        <time>2021-07-05 16:31:49</time>
      </trkpt>
      <trkpt lat="28.12511" lon="-14.25339">
        <ele>31.6</ele>
        <time>2021-07-05 16:31:50</time>
      </trkpt>
      <trkpt lat="28.12508" lon="-14.2534">
        <ele>31.6</ele>
        <time>2021-07-05 16:31:51</time>
      </trkpt>
      <trkpt lat="28.12505" lon="-14.25341">
        <ele>31.6</ele>
        <time>2021-07-05 16:31:52</time>
      </trkpt>
      <trkpt lat="28.12503" lon="-14.25343">
        <ele>31.6</ele>
        <time>2021-07-05 16:31:53</time>
      </trkpt>
      <trkpt lat="28.125" lon="-14.25344">
        <ele>31.6</ele>
        <time>2021-07-05 16:31:54</time>
      </trkpt>
      <trkpt lat="28.12498" lon="-14.25345">
        <ele>31.6</ele>
        <time>2021-07-05 16:31:55</time>
      </trkpt>
      <trkpt lat="28.12496" lon="-14.25347">
        <ele>32.4</ele>
        <time>2021-07-05 16:31:56</time>
      </trkpt>
      <trkpt lat="28.12494" lon="-14.25349">
        <ele>32.4</ele>
        <time>2021-07-05 16:31:57</time>
      </trkpt>
      <trkpt lat="28.12491" lon="-14.25351">
        <ele>32.6</ele>
        <time>2021-07-05 16:31:58</time>
      </trkpt>
      <trkpt lat="28.12488" lon="-14.25352">
        <ele>32.6</ele>
        <time>2021-07-05 16:31:59</time>
      </trkpt>
      <trkpt lat="28.12484" lon="-14.25354">
        <ele>32.6</ele>
        <time>2021-07-05 16:32:00</time>
      </trkpt>
      <trkpt lat="28.12481" lon="-14.25356">
        <ele>32.8</ele>
        <time>2021-07-05 16:32:01</time>
      </trkpt>
      <trkpt lat="28.12478" lon="-14.25357">
        <ele>32.8</ele>
        <time>2021-07-05 16:32:02</time>
      </trkpt>
      <trkpt lat="28.12474" lon="-14.25359">
        <ele>32.8</ele>
        <time>2021-07-05 16:32:03</time>
      </trkpt>
      <trkpt lat="28.12471" lon="-14.25361">
        <ele>32.8</ele>
        <time>2021-07-05 16:32:04</time>
      </trkpt>
      <trkpt lat="28.12467" lon="-14.25363">
        <ele>32.8</ele>
        <time>2021-07-05 16:32:05</time>
      </trkpt>
      <trkpt lat="28.12464" lon="-14.25365">
        <ele>32.8</ele>
        <time>2021-07-05 16:32:06</time>
      </trkpt>
      <trkpt lat="28.12461" lon="-14.25367">
        <ele>32.6</ele>
        <time>2021-07-05 16:32:07</time>
      </trkpt>
      <trkpt lat="28.12459" lon="-14.25369">
        <ele>32.6</ele>
        <time>2021-07-05 16:32:08</time>
      </trkpt>
      <trkpt lat="28.12457" lon="-14.2537">
        <ele>32.6</ele>
        <time>2021-07-05 16:32:09</time>
      </trkpt>
      <trkpt lat="28.12456" lon="-14.25372">
        <ele>32.6</ele>
        <time>2021-07-05 16:32:10</time>
      </trkpt>
      <trkpt lat="28.12454" lon="-14.25374">
        <ele>32.6</ele>
        <time>2021-07-05 16:32:11</time>
      </trkpt>
      <trkpt lat="28.12452" lon="-14.25377">
        <ele>33</ele>
        <time>2021-07-05 16:32:12</time>
      </trkpt>
      <trkpt lat="28.12449" lon="-14.25379">
        <ele>33</ele>
        <time>2021-07-05 16:32:13</time>
      </trkpt>
      <trkpt lat="28.12447" lon="-14.25381">
        <ele>33.2</ele>
        <time>2021-07-05 16:32:14</time>
      </trkpt>
      <trkpt lat="28.12444" lon="-14.25384">
        <ele>33.2</ele>
        <time>2021-07-05 16:32:15</time>
      </trkpt>
      <trkpt lat="28.12442" lon="-14.25386">
        <ele>33.6</ele>
        <time>2021-07-05 16:32:16</time>
      </trkpt>
      <trkpt lat="28.12441" lon="-14.25387">
        <ele>33.6</ele>
        <time>2021-07-05 16:32:17</time>
      </trkpt>
      <trkpt lat="28.12439" lon="-14.25389">
        <ele>34</ele>
        <time>2021-07-05 16:32:18</time>
      </trkpt>
      <trkpt lat="28.12438" lon="-14.25389">
        <ele>34</ele>
        <time>2021-07-05 16:32:19</time>
      </trkpt>
      <trkpt lat="28.12437" lon="-14.2539">
        <ele>34.2</ele>
        <time>2021-07-05 16:32:20</time>
      </trkpt>
      <trkpt lat="28.12437" lon="-14.2539">
        <ele>34.2</ele>
        <time>2021-07-05 16:32:21</time>
      </trkpt>
      <trkpt lat="28.12437" lon="-14.2539">
        <ele>34.2</ele>
        <time>2021-07-05 16:32:22</time>
      </trkpt>
      <trkpt lat="28.12437" lon="-14.2539">
        <ele>34.2</ele>
        <time>2021-07-05 16:32:23</time>
      </trkpt>
      <trkpt lat="28.12435" lon="-14.25391">
        <ele>34.2</ele>
        <time>2021-07-05 16:32:24</time>
      </trkpt>
      <trkpt lat="28.12434" lon="-14.25393">
        <ele>33.2</ele>
        <time>2021-07-05 16:32:25</time>
      </trkpt>
      <trkpt lat="28.12432" lon="-14.25394">
        <ele>33</ele>
        <time>2021-07-05 16:33:39</time>
      </trkpt>
      <trkpt lat="28.12431" lon="-14.25395">
        <ele>33</ele>
        <time>2021-07-05 16:33:40</time>
      </trkpt>
      <trkpt lat="28.12429" lon="-14.25397">
        <ele>32.8</ele>
        <time>2021-07-05 16:33:41</time>
      </trkpt>
      <trkpt lat="28.12428" lon="-14.25399">
        <ele>32.8</ele>
        <time>2021-07-05 16:33:42</time>
      </trkpt>
      <trkpt lat="28.12426" lon="-14.254">
        <ele>32.8</ele>
        <time>2021-07-05 16:33:43</time>
      </trkpt>
      <trkpt lat="28.12424" lon="-14.25402">
        <ele>32.4</ele>
        <time>2021-07-05 16:33:44</time>
      </trkpt>
      <trkpt lat="28.12423" lon="-14.25405">
        <ele>32.4</ele>
        <time>2021-07-05 16:33:45</time>
      </trkpt>
      <trkpt lat="28.12421" lon="-14.25407">
        <ele>32.4</ele>
        <time>2021-07-05 16:33:46</time>
      </trkpt>
      <trkpt lat="28.1242" lon="-14.25409">
        <ele>32.8</ele>
        <time>2021-07-05 16:33:47</time>
      </trkpt>
      <trkpt lat="28.12418" lon="-14.25412">
        <ele>32.8</ele>
        <time>2021-07-05 16:33:48</time>
      </trkpt>
      <trkpt lat="28.12417" lon="-14.25414">
        <ele>32.8</ele>
        <time>2021-07-05 16:33:49</time>
      </trkpt>
      <trkpt lat="28.12415" lon="-14.25416">
        <ele>32.8</ele>
        <time>2021-07-05 16:33:50</time>
      </trkpt>
      <trkpt lat="28.12414" lon="-14.25419">
        <ele>33</ele>
        <time>2021-07-05 16:33:51</time>
      </trkpt>
      <trkpt lat="28.12413" lon="-14.25421">
        <ele>33</ele>
        <time>2021-07-05 16:33:52</time>
      </trkpt>
      <trkpt lat="28.12411" lon="-14.25424">
        <ele>33</ele>
        <time>2021-07-05 16:33:53</time>
      </trkpt>
      <trkpt lat="28.1241" lon="-14.25428">
        <ele>32.8</ele>
        <time>2021-07-05 16:33:54</time>
      </trkpt>
      <trkpt lat="28.12408" lon="-14.2543">
        <ele>32.8</ele>
        <time>2021-07-05 16:33:55</time>
      </trkpt>
      <trkpt lat="28.12406" lon="-14.25433">
        <ele>32.8</ele>
        <time>2021-07-05 16:33:56</time>
      </trkpt>
      <trkpt lat="28.12405" lon="-14.25436">
        <ele>32.8</ele>
        <time>2021-07-05 16:33:57</time>
      </trkpt>
      <trkpt lat="28.12403" lon="-14.25439">
        <ele>32.6</ele>
        <time>2021-07-05 16:33:58</time>
      </trkpt>
      <trkpt lat="28.12402" lon="-14.25442">
        <ele>32.8</ele>
        <time>2021-07-05 16:33:59</time>
      </trkpt>
      <trkpt lat="28.124" lon="-14.25444">
        <ele>32.8</ele>
        <time>2021-07-05 16:34:00</time>
      </trkpt>
      <trkpt lat="28.12399" lon="-14.25446">
        <ele>32.8</ele>
        <time>2021-07-05 16:34:01</time>
      </trkpt>
      <trkpt lat="28.12397" lon="-14.25449">
        <ele>32.8</ele>
        <time>2021-07-05 16:34:02</time>
      </trkpt>
      <trkpt lat="28.12396" lon="-14.25451">
        <ele>32.8</ele>
        <time>2021-07-05 16:34:03</time>
      </trkpt>
      <trkpt lat="28.12395" lon="-14.25453">
        <ele>32.8</ele>
        <time>2021-07-05 16:34:04</time>
      </trkpt>
      <trkpt lat="28.12394" lon="-14.25455">
        <ele>32.8</ele>
        <time>2021-07-05 16:34:05</time>
      </trkpt>
      <trkpt lat="28.12393" lon="-14.25458">
        <ele>32.8</ele>
        <time>2021-07-05 16:34:06</time>
      </trkpt>
      <trkpt lat="28.12392" lon="-14.2546">
        <ele>32.8</ele>
        <time>2021-07-05 16:34:07</time>
      </trkpt>
      <trkpt lat="28.12391" lon="-14.25462">
        <ele>33.2</ele>
        <time>2021-07-05 16:34:08</time>
      </trkpt>
      <trkpt lat="28.1239" lon="-14.25464">
        <ele>33.2</ele>
        <time>2021-07-05 16:34:09</time>
      </trkpt>
      <trkpt lat="28.1239" lon="-14.25466">
        <ele>33.4</ele>
        <time>2021-07-05 16:34:10</time>
      </trkpt>
      <trkpt lat="28.12389" lon="-14.25469">
        <ele>33.4</ele>
        <time>2021-07-05 16:34:11</time>
      </trkpt>
      <trkpt lat="28.12388" lon="-14.25471">
        <ele>33.4</ele>
        <time>2021-07-05 16:34:12</time>
      </trkpt>
      <trkpt lat="28.12388" lon="-14.25473">
        <ele>33</ele>
        <time>2021-07-05 16:34:13</time>
      </trkpt>
      <trkpt lat="28.12387" lon="-14.25475">
        <ele>33</ele>
        <time>2021-07-05 16:34:14</time>
      </trkpt>
      <trkpt lat="28.12387" lon="-14.25477">
        <ele>32.8</ele>
        <time>2021-07-05 16:34:15</time>
      </trkpt>
      <trkpt lat="28.12386" lon="-14.25478">
        <ele>32.8</ele>
        <time>2021-07-05 16:34:16</time>
      </trkpt>
      <trkpt lat="28.12387" lon="-14.25478">
        <ele>32.8</ele>
        <time>2021-07-05 16:34:17</time>
      </trkpt>
      <trkpt lat="28.12387" lon="-14.25478">
        <ele>32.8</ele>
        <time>2021-07-05 16:34:18</time>
      </trkpt>
      <trkpt lat="28.12387" lon="-14.25477">
        <ele>32.4</ele>
        <time>2021-07-05 16:34:19</time>
      </trkpt>
      <trkpt lat="28.12385" lon="-14.25477">
        <ele>32.4</ele>
        <time>2021-07-05 16:34:20</time>
      </trkpt>
      <trkpt lat="28.12383" lon="-14.25477">
        <ele>30.4</ele>
        <time>2021-07-05 16:34:21</time>
      </trkpt>
      <trkpt lat="28.12381" lon="-14.25478">
        <ele>30.4</ele>
        <time>2021-07-05 16:34:39</time>
      </trkpt>
      <trkpt lat="28.12379" lon="-14.25478">
        <ele>30.4</ele>
        <time>2021-07-05 16:34:40</time>
      </trkpt>
      <trkpt lat="28.12378" lon="-14.25478">
        <ele>30.4</ele>
        <time>2021-07-05 16:34:41</time>
      </trkpt>
      <trkpt lat="28.12377" lon="-14.25479">
        <ele>30.4</ele>
        <time>2021-07-05 16:34:42</time>
      </trkpt>
      <trkpt lat="28.12377" lon="-14.25479">
        <ele>30.4</ele>
        <time>2021-07-05 16:34:43</time>
      </trkpt>
      <trkpt lat="28.12376" lon="-14.25479">
        <ele>30.4</ele>
        <time>2021-07-05 16:34:44</time>
      </trkpt>
      <trkpt lat="28.12375" lon="-14.25479">
        <ele>30.4</ele>
        <time>2021-07-05 16:34:45</time>
      </trkpt>
      <trkpt lat="28.12375" lon="-14.2548">
        <ele>30.2</ele>
        <time>2021-07-05 16:34:46</time>
      </trkpt>
      <trkpt lat="28.12374" lon="-14.25482">
        <ele>30.2</ele>
        <time>2021-07-05 16:34:47</time>
      </trkpt>
      <trkpt lat="28.12373" lon="-14.25483">
        <ele>30.2</ele>
        <time>2021-07-05 16:34:48</time>
      </trkpt>
      <trkpt lat="28.12371" lon="-14.25486">
        <ele>30.4</ele>
        <time>2021-07-05 16:34:49</time>
      </trkpt>
      <trkpt lat="28.12369" lon="-14.25488">
        <ele>30.4</ele>
        <time>2021-07-05 16:34:50</time>
      </trkpt>
      <trkpt lat="28.12367" lon="-14.25489">
        <ele>30.4</ele>
        <time>2021-07-05 16:34:51</time>
      </trkpt>
      <trkpt lat="28.12366" lon="-14.25489">
        <ele>30</ele>
        <time>2021-07-05 16:34:52</time>
      </trkpt>
      <trkpt lat="28.12366" lon="-14.25489">
        <ele>29.8</ele>
        <time>2021-07-05 16:34:53</time>
      </trkpt>
      <trkpt lat="28.12366" lon="-14.2549">
        <ele>29.4</ele>
        <time>2021-07-05 16:34:54</time>
      </trkpt>
      <trkpt lat="28.12365" lon="-14.2549">
        <ele>29.4</ele>
        <time>2021-07-05 16:34:55</time>
      </trkpt>
      <trkpt lat="28.12364" lon="-14.2549">
        <ele>29</ele>
        <time>2021-07-05 16:34:56</time>
      </trkpt>
      <trkpt lat="28.12363" lon="-14.2549">
        <ele>29</ele>
        <time>2021-07-05 16:34:57</time>
      </trkpt>
      <trkpt lat="28.12362" lon="-14.25491">
        <ele>29</ele>
        <time>2021-07-05 16:34:58</time>
      </trkpt>
      <trkpt lat="28.12361" lon="-14.25491">
        <ele>29</ele>
        <time>2021-07-05 16:34:59</time>
      </trkpt>
      <trkpt lat="28.1236" lon="-14.25491">
        <ele>29</ele>
        <time>2021-07-05 16:35:00</time>
      </trkpt>
      <trkpt lat="28.12359" lon="-14.25492">
        <ele>29</ele>
        <time>2021-07-05 16:35:01</time>
      </trkpt>
      <trkpt lat="28.12357" lon="-14.25492">
        <ele>28.8</ele>
        <time>2021-07-05 16:35:02</time>
      </trkpt>
      <trkpt lat="28.12354" lon="-14.25491">
        <ele>28.4</ele>
        <time>2021-07-05 16:35:03</time>
      </trkpt>
      <trkpt lat="28.12352" lon="-14.2549">
        <ele>28.4</ele>
        <time>2021-07-05 16:35:04</time>
      </trkpt>
      <trkpt lat="28.12351" lon="-14.25488">
        <ele>28.2</ele>
        <time>2021-07-05 16:35:05</time>
      </trkpt>
      <trkpt lat="28.1235" lon="-14.25487">
        <ele>28.2</ele>
        <time>2021-07-05 16:35:06</time>
      </trkpt>
      <trkpt lat="28.1235" lon="-14.25487">
        <ele>28</ele>
        <time>2021-07-05 16:35:07</time>
      </trkpt>
      <trkpt lat="28.1235" lon="-14.25487">
        <ele>28</ele>
        <time>2021-07-05 16:35:08</time>
      </trkpt>
      <trkpt lat="28.12351" lon="-14.25487">
        <ele>28</ele>
        <time>2021-07-05 16:35:09</time>
      </trkpt>
      <trkpt lat="28.12351" lon="-14.25487">
        <ele>28</ele>
        <time>2021-07-05 16:35:10</time>
      </trkpt>
      <trkpt lat="28.12351" lon="-14.25489">
        <ele>29</ele>
        <time>2021-07-05 16:35:11</time>
      </trkpt>
      <trkpt lat="28.12351" lon="-14.25489">
        <ele>29</ele>
        <time>2021-07-05 16:35:12</time>
      </trkpt>
      <trkpt lat="28.12352" lon="-14.2549">
        <ele>28.6</ele>
        <time>2021-07-05 16:35:15</time>
      </trkpt>
      <trkpt lat="28.12352" lon="-14.25491">
        <ele>28</ele>
        <time>2021-07-05 16:35:16</time>
      </trkpt>
      <trkpt lat="28.12353" lon="-14.25491">
        <ele>28</ele>
        <time>2021-07-05 16:35:17</time>
      </trkpt>
      <trkpt lat="28.12354" lon="-14.25492">
        <ele>28</ele>
        <time>2021-07-05 16:35:18</time>
      </trkpt>
      <trkpt lat="28.12354" lon="-14.25493">
        <ele>28</ele>
        <time>2021-07-05 16:35:19</time>
      </trkpt>
      <trkpt lat="28.12355" lon="-14.25494">
        <ele>28</ele>
        <time>2021-07-05 16:35:20</time>
      </trkpt>
      <trkpt lat="28.12355" lon="-14.25496">
        <ele>28</ele>
        <time>2021-07-05 16:35:21</time>
      </trkpt>
      <trkpt lat="28.12356" lon="-14.25497">
        <ele>28</ele>
        <time>2021-07-05 16:35:22</time>
      </trkpt>
      <trkpt lat="28.12356" lon="-14.25499">
        <ele>28</ele>
        <time>2021-07-05 16:35:23</time>
      </trkpt>
      <trkpt lat="28.12356" lon="-14.25501">
        <ele>28.4</ele>
        <time>2021-07-05 16:35:24</time>
      </trkpt>
      <trkpt lat="28.12356" lon="-14.25503">
        <ele>28.6</ele>
        <time>2021-07-05 16:35:25</time>
      </trkpt>
      <trkpt lat="28.12356" lon="-14.25505">
        <ele>28.6</ele>
        <time>2021-07-05 16:35:26</time>
      </trkpt>
      <trkpt lat="28.12356" lon="-14.25505">
        <ele>28.6</ele>
        <time>2021-07-05 16:35:27</time>
      </trkpt>
      <trkpt lat="28.12356" lon="-14.25505">
        <ele>29</ele>
        <time>2021-07-05 16:35:28</time>
      </trkpt>
      <trkpt lat="28.12355" lon="-14.25506">
        <ele>29</ele>
        <time>2021-07-05 16:35:29</time>
      </trkpt>
      <trkpt lat="28.12355" lon="-14.25506">
        <ele>29</ele>
        <time>2021-07-05 16:35:30</time>
      </trkpt>
      <trkpt lat="28.12356" lon="-14.25506">
        <ele>29</ele>
        <time>2021-07-05 16:35:31</time>
      </trkpt>
      <trkpt lat="28.12356" lon="-14.25508">
        <ele>28.6</ele>
        <time>2021-07-05 16:35:32</time>
      </trkpt>
      <trkpt lat="28.12356" lon="-14.25509">
        <ele>28.6</ele>
        <time>2021-07-05 16:35:33</time>
      </trkpt>
      <trkpt lat="28.12356" lon="-14.25511">
        <ele>28.4</ele>
        <time>2021-07-05 16:35:34</time>
      </trkpt>
      <trkpt lat="28.12356" lon="-14.25512">
        <ele>28.4</ele>
        <time>2021-07-05 16:35:35</time>
      </trkpt>
      <trkpt lat="28.12356" lon="-14.25513">
        <ele>28.2</ele>
        <time>2021-07-05 16:35:36</time>
      </trkpt>
      <trkpt lat="28.12355" lon="-14.25514">
        <ele>27.8</ele>
        <time>2021-07-05 16:35:37</time>
      </trkpt>
      <trkpt lat="28.12354" lon="-14.25515">
        <ele>27.6</ele>
        <time>2021-07-05 16:35:38</time>
      </trkpt>
      <trkpt lat="28.12353" lon="-14.25516">
        <ele>27.2</ele>
        <time>2021-07-05 16:35:39</time>
      </trkpt>
      <trkpt lat="28.12353" lon="-14.25518">
        <ele>26.8</ele>
        <time>2021-07-05 16:35:40</time>
      </trkpt>
      <trkpt lat="28.12352" lon="-14.25519">
        <ele>26.4</ele>
        <time>2021-07-05 16:35:41</time>
      </trkpt>
      <trkpt lat="28.12351" lon="-14.2552">
        <ele>26</ele>
        <time>2021-07-05 16:35:42</time>
      </trkpt>
      <trkpt lat="28.12351" lon="-14.25521">
        <ele>25.6</ele>
        <time>2021-07-05 16:35:43</time>
      </trkpt>
      <trkpt lat="28.1235" lon="-14.25522">
        <ele>25.4</ele>
        <time>2021-07-05 16:35:44</time>
      </trkpt>
      <trkpt lat="28.12349" lon="-14.25523">
        <ele>25</ele>
        <time>2021-07-05 16:35:45</time>
      </trkpt>
      <trkpt lat="28.12347" lon="-14.25524">
        <ele>24.8</ele>
        <time>2021-07-05 16:35:46</time>
      </trkpt>
      <trkpt lat="28.12346" lon="-14.25524">
        <ele>24.6</ele>
        <time>2021-07-05 16:35:47</time>
      </trkpt>
      <trkpt lat="28.12345" lon="-14.25524">
        <ele>24.2</ele>
        <time>2021-07-05 16:35:48</time>
      </trkpt>
      <trkpt lat="28.12344" lon="-14.25524">
        <ele>24</ele>
        <time>2021-07-05 16:35:49</time>
      </trkpt>
      <trkpt lat="28.12342" lon="-14.25525">
        <ele>24</ele>
        <time>2021-07-05 16:35:50</time>
      </trkpt>
      <trkpt lat="28.12341" lon="-14.25525">
        <ele>23.6</ele>
        <time>2021-07-05 16:35:51</time>
      </trkpt>
      <trkpt lat="28.1234" lon="-14.25526">
        <ele>23.4</ele>
        <time>2021-07-05 16:35:52</time>
      </trkpt>
      <trkpt lat="28.12338" lon="-14.25526">
        <ele>23</ele>
        <time>2021-07-05 16:35:53</time>
      </trkpt>
      <trkpt lat="28.12337" lon="-14.25527">
        <ele>22.8</ele>
        <time>2021-07-05 16:35:54</time>
      </trkpt>
      <trkpt lat="28.12336" lon="-14.25527">
        <ele>22.6</ele>
        <time>2021-07-05 16:35:55</time>
      </trkpt>
      <trkpt lat="28.12335" lon="-14.25528">
        <ele>22.2</ele>
        <time>2021-07-05 16:35:56</time>
      </trkpt>
      <trkpt lat="28.12334" lon="-14.25528">
        <ele>21.8</ele>
        <time>2021-07-05 16:35:57</time>
      </trkpt>
      <trkpt lat="28.12333" lon="-14.25529">
        <ele>21.2</ele>
        <time>2021-07-05 16:35:58</time>
      </trkpt>
      <trkpt lat="28.12332" lon="-14.2553">
        <ele>21.2</ele>
        <time>2021-07-05 16:35:59</time>
      </trkpt>
      <trkpt lat="28.12331" lon="-14.25531">
        <ele>20.8</ele>
        <time>2021-07-05 16:36:00</time>
      </trkpt>
      <trkpt lat="28.1233" lon="-14.25532">
        <ele>20.4</ele>
        <time>2021-07-05 16:36:01</time>
      </trkpt>
      <trkpt lat="28.12329" lon="-14.25533">
        <ele>20.2</ele>
        <time>2021-07-05 16:36:02</time>
      </trkpt>
      <trkpt lat="28.12328" lon="-14.25534">
        <ele>20</ele>
        <time>2021-07-05 16:36:03</time>
      </trkpt>
      <trkpt lat="28.12328" lon="-14.25535">
        <ele>19.8</ele>
        <time>2021-07-05 16:36:04</time>
      </trkpt>
      <trkpt lat="28.12327" lon="-14.25536">
        <ele>19.4</ele>
        <time>2021-07-05 16:36:05</time>
      </trkpt>
      <trkpt lat="28.12326" lon="-14.25537">
        <ele>19.4</ele>
        <time>2021-07-05 16:36:06</time>
      </trkpt>
      <trkpt lat="28.12325" lon="-14.25538">
        <ele>19.4</ele>
        <time>2021-07-05 16:36:07</time>
      </trkpt>
      <trkpt lat="28.12324" lon="-14.25539">
        <ele>19.4</ele>
        <time>2021-07-05 16:36:08</time>
      </trkpt>
      <trkpt lat="28.12323" lon="-14.25541">
        <ele>18.8</ele>
        <time>2021-07-05 16:36:09</time>
      </trkpt>
      <trkpt lat="28.12322" lon="-14.25542">
        <ele>18.8</ele>
        <time>2021-07-05 16:36:10</time>
      </trkpt>
      <trkpt lat="28.12321" lon="-14.25543">
        <ele>18.8</ele>
        <time>2021-07-05 16:36:11</time>
      </trkpt>
      <trkpt lat="28.1232" lon="-14.25544">
        <ele>18.6</ele>
        <time>2021-07-05 16:36:12</time>
      </trkpt>
      <trkpt lat="28.1232" lon="-14.25546">
        <ele>18.6</ele>
        <time>2021-07-05 16:36:13</time>
      </trkpt>
      <trkpt lat="28.12319" lon="-14.25547">
        <ele>18.6</ele>
        <time>2021-07-05 16:36:14</time>
      </trkpt>
      <trkpt lat="28.12318" lon="-14.25547">
        <ele>18.6</ele>
        <time>2021-07-05 16:36:15</time>
      </trkpt>
      <trkpt lat="28.12318" lon="-14.25548">
        <ele>18.2</ele>
        <time>2021-07-05 16:36:16</time>
      </trkpt>
      <trkpt lat="28.12317" lon="-14.25549">
        <ele>18.2</ele>
        <time>2021-07-05 16:36:17</time>
      </trkpt>
      <trkpt lat="28.12316" lon="-14.2555">
        <ele>18</ele>
        <time>2021-07-05 16:36:18</time>
      </trkpt>
      <trkpt lat="28.12316" lon="-14.25551">
        <ele>18</ele>
        <time>2021-07-05 16:36:19</time>
      </trkpt>
      <trkpt lat="28.12315" lon="-14.25552">
        <ele>17.6</ele>
        <time>2021-07-05 16:36:20</time>
      </trkpt>
      <trkpt lat="28.12315" lon="-14.25552">
        <ele>17.6</ele>
        <time>2021-07-05 16:36:21</time>
      </trkpt>
      <trkpt lat="28.12315" lon="-14.25553">
        <ele>17.6</ele>
        <time>2021-07-05 16:36:22</time>
      </trkpt>
      <trkpt lat="28.12314" lon="-14.25554">
        <ele>17.6</ele>
        <time>2021-07-05 16:36:23</time>
      </trkpt>
      <trkpt lat="28.12313" lon="-14.25555">
        <ele>17.6</ele>
        <time>2021-07-05 16:36:24</time>
      </trkpt>
      <trkpt lat="28.12313" lon="-14.25556">
        <ele>18</ele>
        <time>2021-07-05 16:36:25</time>
      </trkpt>
      <trkpt lat="28.12312" lon="-14.25558">
        <ele>18</ele>
        <time>2021-07-05 16:36:26</time>
      </trkpt>
      <trkpt lat="28.12312" lon="-14.25559">
        <ele>18.2</ele>
        <time>2021-07-05 16:36:27</time>
      </trkpt>
      <trkpt lat="28.12311" lon="-14.25561">
        <ele>18.2</ele>
        <time>2021-07-05 16:36:28</time>
      </trkpt>
      <trkpt lat="28.12311" lon="-14.25562">
        <ele>18.6</ele>
        <time>2021-07-05 16:36:29</time>
      </trkpt>
      <trkpt lat="28.12311" lon="-14.25564">
        <ele>18.8</ele>
        <time>2021-07-05 16:36:30</time>
      </trkpt>
      <trkpt lat="28.1231" lon="-14.25565">
        <ele>19.2</ele>
        <time>2021-07-05 16:36:31</time>
      </trkpt>
      <trkpt lat="28.1231" lon="-14.25566">
        <ele>19.4</ele>
        <time>2021-07-05 16:36:32</time>
      </trkpt>
      <trkpt lat="28.1231" lon="-14.25567">
        <ele>19.6</ele>
        <time>2021-07-05 16:36:33</time>
      </trkpt>
      <trkpt lat="28.12309" lon="-14.25568">
        <ele>19.6</ele>
        <time>2021-07-05 16:36:34</time>
      </trkpt>
      <trkpt lat="28.12308" lon="-14.25569">
        <ele>19.6</ele>
        <time>2021-07-05 16:36:35</time>
      </trkpt>
      <trkpt lat="28.12308" lon="-14.25571">
        <ele>19.6</ele>
        <time>2021-07-05 16:36:36</time>
      </trkpt>
      <trkpt lat="28.12307" lon="-14.25572">
        <ele>19.6</ele>
        <time>2021-07-05 16:36:37</time>
      </trkpt>
      <trkpt lat="28.12306" lon="-14.25573">
        <ele>19.6</ele>
        <time>2021-07-05 16:36:38</time>
      </trkpt>
      <trkpt lat="28.12305" lon="-14.25574">
        <ele>19.6</ele>
        <time>2021-07-05 16:36:39</time>
      </trkpt>
      <trkpt lat="28.12304" lon="-14.25575">
        <ele>19.6</ele>
        <time>2021-07-05 16:36:40</time>
      </trkpt>
      <trkpt lat="28.12303" lon="-14.25576">
        <ele>19.4</ele>
        <time>2021-07-05 16:36:41</time>
      </trkpt>
      <trkpt lat="28.12302" lon="-14.25577">
        <ele>19.4</ele>
        <time>2021-07-05 16:36:42</time>
      </trkpt>
      <trkpt lat="28.12302" lon="-14.25579">
        <ele>19</ele>
        <time>2021-07-05 16:36:43</time>
      </trkpt>
      <trkpt lat="28.12302" lon="-14.25579">
        <ele>19</ele>
        <time>2021-07-05 16:36:44</time>
      </trkpt>
      <trkpt lat="28.12302" lon="-14.25579">
        <ele>18.8</ele>
        <time>2021-07-05 16:36:45</time>
      </trkpt>
      <trkpt lat="28.12302" lon="-14.25579">
        <ele>18.8</ele>
        <time>2021-07-05 16:36:46</time>
      </trkpt>
      <trkpt lat="28.12302" lon="-14.2558">
        <ele>18.4</ele>
        <time>2021-07-05 16:36:47</time>
      </trkpt>
      <trkpt lat="28.123" lon="-14.25583">
        <ele>18.2</ele>
        <time>2021-07-05 16:36:48</time>
      </trkpt>
      <trkpt lat="28.12299" lon="-14.25585">
        <ele>18.2</ele>
        <time>2021-07-05 16:36:49</time>
      </trkpt>
      <trkpt lat="28.12297" lon="-14.25588">
        <ele>17.4</ele>
        <time>2021-07-05 16:36:52</time>
      </trkpt>
      <trkpt lat="28.12295" lon="-14.25591">
        <ele>17.4</ele>
        <time>2021-07-05 16:36:53</time>
      </trkpt>
      <trkpt lat="28.12294" lon="-14.25595">
        <ele>17</ele>
        <time>2021-07-05 16:36:54</time>
      </trkpt>
      <trkpt lat="28.12292" lon="-14.25598">
        <ele>16.6</ele>
        <time>2021-07-05 16:36:55</time>
      </trkpt>
      <trkpt lat="28.12291" lon="-14.25601">
        <ele>16.2</ele>
        <time>2021-07-05 16:36:56</time>
      </trkpt>
      <trkpt lat="28.1229" lon="-14.25604">
        <ele>16</ele>
        <time>2021-07-05 16:36:57</time>
      </trkpt>
      <trkpt lat="28.12289" lon="-14.25606">
        <ele>16</ele>
        <time>2021-07-05 16:36:58</time>
      </trkpt>
      <trkpt lat="28.12288" lon="-14.25607">
        <ele>15.6</ele>
        <time>2021-07-05 16:36:59</time>
      </trkpt>
      <trkpt lat="28.12287" lon="-14.25608">
        <ele>15.4</ele>
        <time>2021-07-05 16:37:00</time>
      </trkpt>
      <trkpt lat="28.12286" lon="-14.25609">
        <ele>15.2</ele>
        <time>2021-07-05 16:37:01</time>
      </trkpt>
      <trkpt lat="28.12286" lon="-14.25611">
        <ele>15</ele>
        <time>2021-07-05 16:37:02</time>
      </trkpt>
      <trkpt lat="28.12285" lon="-14.25612">
        <ele>14.6</ele>
        <time>2021-07-05 16:37:03</time>
      </trkpt>
      <trkpt lat="28.12283" lon="-14.25614">
        <ele>14.6</ele>
        <time>2021-07-05 16:37:04</time>
      </trkpt>
      <trkpt lat="28.12281" lon="-14.25615">
        <ele>14.2</ele>
        <time>2021-07-05 16:37:05</time>
      </trkpt>
      <trkpt lat="28.12279" lon="-14.25617">
        <ele>14.2</ele>
        <time>2021-07-05 16:37:06</time>
      </trkpt>
      <trkpt lat="28.12276" lon="-14.25619">
        <ele>13.6</ele>
        <time>2021-07-05 16:37:07</time>
      </trkpt>
      <trkpt lat="28.12274" lon="-14.25621">
        <ele>13.6</ele>
        <time>2021-07-05 16:37:08</time>
      </trkpt>
      <trkpt lat="28.12272" lon="-14.25622">
        <ele>13.2</ele>
        <time>2021-07-05 16:37:09</time>
      </trkpt>
      <trkpt lat="28.1227" lon="-14.25625">
        <ele>13.2</ele>
        <time>2021-07-05 16:37:10</time>
      </trkpt>
      <trkpt lat="28.12268" lon="-14.25627">
        <ele>13</ele>
        <time>2021-07-05 16:37:11</time>
      </trkpt>
      <trkpt lat="28.12267" lon="-14.25629">
        <ele>13</ele>
        <time>2021-07-05 16:37:12</time>
      </trkpt>
      <trkpt lat="28.12265" lon="-14.25632">
        <ele>12.6</ele>
        <time>2021-07-05 16:37:13</time>
      </trkpt>
      <trkpt lat="28.12264" lon="-14.25634">
        <ele>12.4</ele>
        <time>2021-07-05 16:37:14</time>
      </trkpt>
      <trkpt lat="28.12263" lon="-14.25637">
        <ele>12.4</ele>
        <time>2021-07-05 16:37:15</time>
      </trkpt>
      <trkpt lat="28.12263" lon="-14.25638">
        <ele>12.2</ele>
        <time>2021-07-05 16:37:16</time>
      </trkpt>
      <trkpt lat="28.12262" lon="-14.2564">
        <ele>12.2</ele>
        <time>2021-07-05 16:37:17</time>
      </trkpt>
      <trkpt lat="28.12261" lon="-14.25643">
        <ele>12.2</ele>
        <time>2021-07-05 16:37:18</time>
      </trkpt>
      <trkpt lat="28.1226" lon="-14.25645">
        <ele>12.2</ele>
        <time>2021-07-05 16:37:19</time>
      </trkpt>
      <trkpt lat="28.12259" lon="-14.25648">
        <ele>11.8</ele>
        <time>2021-07-05 16:37:20</time>
      </trkpt>
      <trkpt lat="28.12258" lon="-14.25651">
        <ele>11.8</ele>
        <time>2021-07-05 16:37:21</time>
      </trkpt>
      <trkpt lat="28.12257" lon="-14.25654">
        <ele>11.8</ele>
        <time>2021-07-05 16:37:22</time>
      </trkpt>
      <trkpt lat="28.12256" lon="-14.25656">
        <ele>11.6</ele>
        <time>2021-07-05 16:37:23</time>
      </trkpt>
      <trkpt lat="28.12254" lon="-14.25658">
        <ele>11.6</ele>
        <time>2021-07-05 16:37:24</time>
      </trkpt>
      <trkpt lat="28.12253" lon="-14.25661">
        <ele>11.6</ele>
        <time>2021-07-05 16:37:25</time>
      </trkpt>
      <trkpt lat="28.12251" lon="-14.25663">
        <ele>11.8</ele>
        <time>2021-07-05 16:37:26</time>
      </trkpt>
      <trkpt lat="28.12249" lon="-14.25665">
        <ele>11.8</ele>
        <time>2021-07-05 16:37:27</time>
      </trkpt>
      <trkpt lat="28.12247" lon="-14.25667">
        <ele>11.8</ele>
        <time>2021-07-05 16:37:28</time>
      </trkpt>
      <trkpt lat="28.12246" lon="-14.25669">
        <ele>12</ele>
        <time>2021-07-05 16:37:29</time>
      </trkpt>
      <trkpt lat="28.12243" lon="-14.25671">
        <ele>12</ele>
        <time>2021-07-05 16:37:30</time>
      </trkpt>
      <trkpt lat="28.12241" lon="-14.25672">
        <ele>12</ele>
        <time>2021-07-05 16:37:31</time>
      </trkpt>
      <trkpt lat="28.12239" lon="-14.25674">
        <ele>12</ele>
        <time>2021-07-05 16:37:32</time>
      </trkpt>
      <trkpt lat="28.12237" lon="-14.25676">
        <ele>12</ele>
        <time>2021-07-05 16:37:33</time>
      </trkpt>
      <trkpt lat="28.12234" lon="-14.25678">
        <ele>12</ele>
        <time>2021-07-05 16:37:34</time>
      </trkpt>
      <trkpt lat="28.12232" lon="-14.25679">
        <ele>11.8</ele>
        <time>2021-07-05 16:37:35</time>
      </trkpt>
      <trkpt lat="28.1223" lon="-14.25681">
        <ele>11.8</ele>
        <time>2021-07-05 16:37:36</time>
      </trkpt>
      <trkpt lat="28.12228" lon="-14.25682">
        <ele>11.8</ele>
        <time>2021-07-05 16:37:37</time>
      </trkpt>
      <trkpt lat="28.12226" lon="-14.25684">
        <ele>11.6</ele>
        <time>2021-07-05 16:37:38</time>
      </trkpt>
      <trkpt lat="28.12224" lon="-14.25685">
        <ele>11.6</ele>
        <time>2021-07-05 16:37:39</time>
      </trkpt>
      <trkpt lat="28.12222" lon="-14.25687">
        <ele>11.6</ele>
        <time>2021-07-05 16:37:40</time>
      </trkpt>
      <trkpt lat="28.1222" lon="-14.25688">
        <ele>11.4</ele>
        <time>2021-07-05 16:37:41</time>
      </trkpt>
      <trkpt lat="28.12218" lon="-14.25689">
        <ele>11.4</ele>
        <time>2021-07-05 16:37:42</time>
      </trkpt>
      <trkpt lat="28.12216" lon="-14.2569">
        <ele>11.4</ele>
        <time>2021-07-05 16:37:43</time>
      </trkpt>
      <trkpt lat="28.12214" lon="-14.25691">
        <ele>11.4</ele>
        <time>2021-07-05 16:37:44</time>
      </trkpt>
      <trkpt lat="28.12212" lon="-14.25692">
        <ele>11.4</ele>
        <time>2021-07-05 16:37:45</time>
      </trkpt>
      <trkpt lat="28.1221" lon="-14.25694">
        <ele>11.4</ele>
        <time>2021-07-05 16:37:46</time>
      </trkpt>
      <trkpt lat="28.12209" lon="-14.25695">
        <ele>11.4</ele>
        <time>2021-07-05 16:37:47</time>
      </trkpt>
      <trkpt lat="28.12209" lon="-14.25695">
        <ele>11.6</ele>
        <time>2021-07-05 16:37:48</time>
      </trkpt>
      <trkpt lat="28.12205" lon="-14.25698">
        <ele>11.6</ele>
        <time>2021-07-05 16:37:49</time>
      </trkpt>
      <trkpt lat="28.12203" lon="-14.25699">
        <ele>11.6</ele>
        <time>2021-07-05 16:37:50</time>
      </trkpt>
      <trkpt lat="28.12201" lon="-14.257">
        <ele>11.8</ele>
        <time>2021-07-05 16:37:51</time>
      </trkpt>
      <trkpt lat="28.122" lon="-14.25702">
        <ele>11.8</ele>
        <time>2021-07-05 16:37:52</time>
      </trkpt>
      <trkpt lat="28.12199" lon="-14.25703">
        <ele>11.8</ele>
        <time>2021-07-05 16:37:53</time>
      </trkpt>
      <trkpt lat="28.12197" lon="-14.25705">
        <ele>11.8</ele>
        <time>2021-07-05 16:37:54</time>
      </trkpt>
      <trkpt lat="28.12196" lon="-14.25706">
        <ele>11.8</ele>
        <time>2021-07-05 16:37:55</time>
      </trkpt>
      <trkpt lat="28.12194" lon="-14.25708">
        <ele>12</ele>
        <time>2021-07-05 16:37:56</time>
      </trkpt>
      <trkpt lat="28.12192" lon="-14.25709">
        <ele>12</ele>
        <time>2021-07-05 16:37:57</time>
      </trkpt>
      <trkpt lat="28.1219" lon="-14.25711">
        <ele>12</ele>
        <time>2021-07-05 16:37:58</time>
      </trkpt>
      <trkpt lat="28.12189" lon="-14.25712">
        <ele>12.2</ele>
        <time>2021-07-05 16:37:59</time>
      </trkpt>
      <trkpt lat="28.12187" lon="-14.25713">
        <ele>12.2</ele>
        <time>2021-07-05 16:38:00</time>
      </trkpt>
      <trkpt lat="28.12187" lon="-14.25714">
        <ele>12.2</ele>
        <time>2021-07-05 16:38:01</time>
      </trkpt>
      <trkpt lat="28.12186" lon="-14.25715">
        <ele>12.2</ele>
        <time>2021-07-05 16:38:02</time>
      </trkpt>
      <trkpt lat="28.12184" lon="-14.25716">
        <ele>12.2</ele>
        <time>2021-07-05 16:38:03</time>
      </trkpt>
      <trkpt lat="28.12183" lon="-14.25717">
        <ele>12.2</ele>
        <time>2021-07-05 16:38:04</time>
      </trkpt>
      <trkpt lat="28.12182" lon="-14.25718">
        <ele>12.2</ele>
        <time>2021-07-05 16:38:05</time>
      </trkpt>
      <trkpt lat="28.12181" lon="-14.25719">
        <ele>12.2</ele>
        <time>2021-07-05 16:38:06</time>
      </trkpt>
      <trkpt lat="28.1218" lon="-14.2572">
        <ele>12.2</ele>
        <time>2021-07-05 16:38:07</time>
      </trkpt>
      <trkpt lat="28.12179" lon="-14.25721">
        <ele>12.6</ele>
        <time>2021-07-05 16:38:08</time>
      </trkpt>
      <trkpt lat="28.12179" lon="-14.25721">
        <ele>12.6</ele>
        <time>2021-07-05 16:38:09</time>
      </trkpt>
      <trkpt lat="28.12177" lon="-14.25722">
        <ele>12.6</ele>
        <time>2021-07-05 16:38:10</time>
      </trkpt>
      <trkpt lat="28.12176" lon="-14.25722">
        <ele>12.6</ele>
        <time>2021-07-05 16:38:11</time>
      </trkpt>
      <trkpt lat="28.12175" lon="-14.25723">
        <ele>12.6</ele>
        <time>2021-07-05 16:38:12</time>
      </trkpt>
      <trkpt lat="28.12173" lon="-14.25723">
        <ele>12.6</ele>
        <time>2021-07-05 16:38:13</time>
      </trkpt>
      <trkpt lat="28.12171" lon="-14.25723">
        <ele>12.2</ele>
        <time>2021-07-05 16:38:14</time>
      </trkpt>
      <trkpt lat="28.12169" lon="-14.25723">
        <ele>12.2</ele>
        <time>2021-07-05 16:38:15</time>
      </trkpt>
      <trkpt lat="28.12167" lon="-14.25724">
        <ele>12.2</ele>
        <time>2021-07-05 16:38:16</time>
      </trkpt>
      <trkpt lat="28.12165" lon="-14.25726">
        <ele>12.2</ele>
        <time>2021-07-05 16:38:17</time>
      </trkpt>
      <trkpt lat="28.12164" lon="-14.25727">
        <ele>12.2</ele>
        <time>2021-07-05 16:38:18</time>
      </trkpt>
      <trkpt lat="28.12162" lon="-14.25729">
        <ele>12.2</ele>
        <time>2021-07-05 16:38:19</time>
      </trkpt>
      <trkpt lat="28.12161" lon="-14.25729">
        <ele>12.2</ele>
        <time>2021-07-05 16:38:20</time>
      </trkpt>
      <trkpt lat="28.12159" lon="-14.25731">
        <ele>12.2</ele>
        <time>2021-07-05 16:38:21</time>
      </trkpt>
      <trkpt lat="28.12157" lon="-14.25732">
        <ele>12</ele>
        <time>2021-07-05 16:38:22</time>
      </trkpt>
      <trkpt lat="28.12155" lon="-14.25733">
        <ele>12</ele>
        <time>2021-07-05 16:38:23</time>
      </trkpt>
      <trkpt lat="28.12153" lon="-14.25734">
        <ele>12</ele>
        <time>2021-07-05 16:38:24</time>
      </trkpt>
      <trkpt lat="28.12152" lon="-14.25735">
        <ele>12</ele>
        <time>2021-07-05 16:38:25</time>
      </trkpt>
      <trkpt lat="28.1215" lon="-14.25737">
        <ele>12</ele>
        <time>2021-07-05 16:38:26</time>
      </trkpt>
      <trkpt lat="28.12147" lon="-14.25738">
        <ele>12</ele>
        <time>2021-07-05 16:38:27</time>
      </trkpt>
      <trkpt lat="28.12144" lon="-14.2574">
        <ele>12</ele>
        <time>2021-07-05 16:38:28</time>
      </trkpt>
      <trkpt lat="28.12141" lon="-14.25741">
        <ele>11.8</ele>
        <time>2021-07-05 16:38:29</time>
      </trkpt>
      <trkpt lat="28.12138" lon="-14.25743">
        <ele>11.8</ele>
        <time>2021-07-05 16:38:30</time>
      </trkpt>
      <trkpt lat="28.12134" lon="-14.25745">
        <ele>11.8</ele>
        <time>2021-07-05 16:38:31</time>
      </trkpt>
      <trkpt lat="28.12131" lon="-14.25747">
        <ele>11.8</ele>
        <time>2021-07-05 16:38:32</time>
      </trkpt>
      <trkpt lat="28.12128" lon="-14.25749">
        <ele>11.8</ele>
        <time>2021-07-05 16:38:33</time>
      </trkpt>
      <trkpt lat="28.12126" lon="-14.25751">
        <ele>11.8</ele>
        <time>2021-07-05 16:38:34</time>
      </trkpt>
      <trkpt lat="28.12123" lon="-14.25753">
        <ele>11.8</ele>
        <time>2021-07-05 16:38:35</time>
      </trkpt>
      <trkpt lat="28.1212" lon="-14.25754">
        <ele>11.8</ele>
        <time>2021-07-05 16:38:36</time>
      </trkpt>
      <trkpt lat="28.12118" lon="-14.25757">
        <ele>11.8</ele>
        <time>2021-07-05 16:38:37</time>
      </trkpt>
      <trkpt lat="28.12117" lon="-14.25759">
        <ele>11.8</ele>
        <time>2021-07-05 16:38:38</time>
      </trkpt>
      <trkpt lat="28.12115" lon="-14.25762">
        <ele>11.8</ele>
        <time>2021-07-05 16:38:39</time>
      </trkpt>
      <trkpt lat="28.12114" lon="-14.25765">
        <ele>11.8</ele>
        <time>2021-07-05 16:38:40</time>
      </trkpt>
      <trkpt lat="28.12112" lon="-14.25768">
        <ele>11.8</ele>
        <time>2021-07-05 16:38:41</time>
      </trkpt>
      <trkpt lat="28.1211" lon="-14.2577">
        <ele>12</ele>
        <time>2021-07-05 16:38:42</time>
      </trkpt>
      <trkpt lat="28.12108" lon="-14.25773">
        <ele>12</ele>
        <time>2021-07-05 16:38:43</time>
      </trkpt>
      <trkpt lat="28.12106" lon="-14.25776">
        <ele>12</ele>
        <time>2021-07-05 16:38:44</time>
      </trkpt>
      <trkpt lat="28.12105" lon="-14.2578">
        <ele>12</ele>
        <time>2021-07-05 16:38:45</time>
      </trkpt>
      <trkpt lat="28.12103" lon="-14.25783">
        <ele>12</ele>
        <time>2021-07-05 16:38:46</time>
      </trkpt>
      <trkpt lat="28.12103" lon="-14.25787">
        <ele>12.2</ele>
        <time>2021-07-05 16:38:47</time>
      </trkpt>
      <trkpt lat="28.12103" lon="-14.25791">
        <ele>12.2</ele>
        <time>2021-07-05 16:38:48</time>
      </trkpt>
      <trkpt lat="28.12102" lon="-14.25794">
        <ele>12.6</ele>
        <time>2021-07-05 16:38:49</time>
      </trkpt>
      <trkpt lat="28.12101" lon="-14.25797">
        <ele>13</ele>
        <time>2021-07-05 16:38:50</time>
      </trkpt>
      <trkpt lat="28.12099" lon="-14.258">
        <ele>13.2</ele>
        <time>2021-07-05 16:38:51</time>
      </trkpt>
      <trkpt lat="28.12098" lon="-14.25803">
        <ele>13.4</ele>
        <time>2021-07-05 16:38:52</time>
      </trkpt>
      <trkpt lat="28.12096" lon="-14.25806">
        <ele>13.4</ele>
        <time>2021-07-05 16:38:53</time>
      </trkpt>
      <trkpt lat="28.12095" lon="-14.25809">
        <ele>13.4</ele>
        <time>2021-07-05 16:38:54</time>
      </trkpt>
      <trkpt lat="28.12093" lon="-14.25812">
        <ele>13.4</ele>
        <time>2021-07-05 16:38:55</time>
      </trkpt>
      <trkpt lat="28.12091" lon="-14.25815">
        <ele>13.4</ele>
        <time>2021-07-05 16:38:56</time>
      </trkpt>
      <trkpt lat="28.12089" lon="-14.25818">
        <ele>13.4</ele>
        <time>2021-07-05 16:38:57</time>
      </trkpt>
      <trkpt lat="28.12087" lon="-14.25822">
        <ele>13.4</ele>
        <time>2021-07-05 16:38:58</time>
      </trkpt>
      <trkpt lat="28.12084" lon="-14.25824">
        <ele>13.4</ele>
        <time>2021-07-05 16:38:59</time>
      </trkpt>
      <trkpt lat="28.12082" lon="-14.25827">
        <ele>13.4</ele>
        <time>2021-07-05 16:39:00</time>
      </trkpt>
      <trkpt lat="28.12079" lon="-14.2583">
        <ele>13.4</ele>
        <time>2021-07-05 16:39:01</time>
      </trkpt>
      <trkpt lat="28.12076" lon="-14.25832">
        <ele>13.4</ele>
        <time>2021-07-05 16:39:02</time>
      </trkpt>
      <trkpt lat="28.12073" lon="-14.25835">
        <ele>13.2</ele>
        <time>2021-07-05 16:39:03</time>
      </trkpt>
      <trkpt lat="28.1207" lon="-14.25837">
        <ele>13.2</ele>
        <time>2021-07-05 16:39:04</time>
      </trkpt>
      <trkpt lat="28.12067" lon="-14.2584">
        <ele>13</ele>
        <time>2021-07-05 16:39:05</time>
      </trkpt>
      <trkpt lat="28.12065" lon="-14.25844">
        <ele>13</ele>
        <time>2021-07-05 16:39:06</time>
      </trkpt>
      <trkpt lat="28.12062" lon="-14.25847">
        <ele>13</ele>
        <time>2021-07-05 16:39:07</time>
      </trkpt>
      <trkpt lat="28.12059" lon="-14.2585">
        <ele>12.8</ele>
        <time>2021-07-05 16:39:08</time>
      </trkpt>
      <trkpt lat="28.12055" lon="-14.25852">
        <ele>12.8</ele>
        <time>2021-07-05 16:39:09</time>
      </trkpt>
      <trkpt lat="28.12052" lon="-14.25854">
        <ele>12.4</ele>
        <time>2021-07-05 16:39:10</time>
      </trkpt>
      <trkpt lat="28.12049" lon="-14.25857">
        <ele>12.4</ele>
        <time>2021-07-05 16:39:11</time>
      </trkpt>
      <trkpt lat="28.12046" lon="-14.25859">
        <ele>12.4</ele>
        <time>2021-07-05 16:39:12</time>
      </trkpt>
      <trkpt lat="28.12042" lon="-14.2586">
        <ele>12.4</ele>
        <time>2021-07-05 16:39:13</time>
      </trkpt>
      <trkpt lat="28.12038" lon="-14.25861">
        <ele>12.2</ele>
        <time>2021-07-05 16:39:14</time>
      </trkpt>
      <trkpt lat="28.12034" lon="-14.25862">
        <ele>12.2</ele>
        <time>2021-07-05 16:39:15</time>
      </trkpt>
      <trkpt lat="28.1203" lon="-14.25863">
        <ele>12.2</ele>
        <time>2021-07-05 16:39:16</time>
      </trkpt>
      <trkpt lat="28.12027" lon="-14.25865">
        <ele>12.2</ele>
        <time>2021-07-05 16:39:17</time>
      </trkpt>
      <trkpt lat="28.12023" lon="-14.25866">
        <ele>12.2</ele>
        <time>2021-07-05 16:39:18</time>
      </trkpt>
      <trkpt lat="28.12019" lon="-14.25868">
        <ele>11.8</ele>
        <time>2021-07-05 16:39:19</time>
      </trkpt>
      <trkpt lat="28.12015" lon="-14.25869">
        <ele>11.8</ele>
        <time>2021-07-05 16:39:20</time>
      </trkpt>
      <trkpt lat="28.12011" lon="-14.25871">
        <ele>11.4</ele>
        <time>2021-07-05 16:39:21</time>
      </trkpt>
      <trkpt lat="28.12007" lon="-14.25873">
        <ele>11.4</ele>
        <time>2021-07-05 16:39:22</time>
      </trkpt>
      <trkpt lat="28.12004" lon="-14.25875">
        <ele>11.2</ele>
        <time>2021-07-05 16:39:23</time>
      </trkpt>
      <trkpt lat="28.11999" lon="-14.25877">
        <ele>11.2</ele>
        <time>2021-07-05 16:39:24</time>
      </trkpt>
      <trkpt lat="28.11995" lon="-14.25878">
        <ele>11.2</ele>
        <time>2021-07-05 16:39:25</time>
      </trkpt>
      <trkpt lat="28.1199" lon="-14.2588">
        <ele>11.2</ele>
        <time>2021-07-05 16:39:26</time>
      </trkpt>
      <trkpt lat="28.11985" lon="-14.25882">
        <ele>11.2</ele>
        <time>2021-07-05 16:39:27</time>
      </trkpt>
      <trkpt lat="28.1198" lon="-14.25884">
        <ele>11</ele>
        <time>2021-07-05 16:39:28</time>
      </trkpt>
      <trkpt lat="28.11975" lon="-14.25885">
        <ele>11</ele>
        <time>2021-07-05 16:39:29</time>
      </trkpt>
      <trkpt lat="28.1197" lon="-14.25886">
        <ele>11</ele>
        <time>2021-07-05 16:39:30</time>
      </trkpt>
      <trkpt lat="28.11965" lon="-14.25888">
        <ele>11</ele>
        <time>2021-07-05 16:39:31</time>
      </trkpt>
      <trkpt lat="28.1196" lon="-14.25889">
        <ele>11</ele>
        <time>2021-07-05 16:39:32</time>
      </trkpt>
      <trkpt lat="28.11955" lon="-14.25891">
        <ele>11</ele>
        <time>2021-07-05 16:39:33</time>
      </trkpt>
      <trkpt lat="28.1195" lon="-14.25892">
        <ele>11</ele>
        <time>2021-07-05 16:39:34</time>
      </trkpt>
      <trkpt lat="28.11946" lon="-14.25894">
        <ele>10.8</ele>
        <time>2021-07-05 16:39:35</time>
      </trkpt>
      <trkpt lat="28.11943" lon="-14.25895">
        <ele>10.8</ele>
        <time>2021-07-05 16:39:36</time>
      </trkpt>
      <trkpt lat="28.11941" lon="-14.25895">
        <ele>10.8</ele>
        <time>2021-07-05 16:39:37</time>
      </trkpt>
      <trkpt lat="28.11941" lon="-14.25895">
        <ele>10.8</ele>
        <time>2021-07-05 16:39:38</time>
      </trkpt>
      <trkpt lat="28.11941" lon="-14.25895">
        <ele>10.8</ele>
        <time>2021-07-05 16:39:39</time>
      </trkpt>
      <trkpt lat="28.11941" lon="-14.25895">
        <ele>10.8</ele>
        <time>2021-07-05 16:39:40</time>
      </trkpt>
      <trkpt lat="28.11939" lon="-14.25896">
        <ele>11.6</ele>
        <time>2021-07-05 16:39:41</time>
      </trkpt>
      <trkpt lat="28.11938" lon="-14.25896">
        <ele>11.6</ele>
        <time>2021-07-05 16:39:42</time>
      </trkpt>
      <trkpt lat="28.11936" lon="-14.25896">
        <ele>11.6</ele>
        <time>2021-07-05 16:40:26</time>
      </trkpt>
      <trkpt lat="28.11934" lon="-14.25897">
        <ele>11.6</ele>
        <time>2021-07-05 16:40:27</time>
      </trkpt>
      <trkpt lat="28.11931" lon="-14.25898">
        <ele>11.6</ele>
        <time>2021-07-05 16:40:28</time>
      </trkpt>
      <trkpt lat="28.11929" lon="-14.25898">
        <ele>11.4</ele>
        <time>2021-07-05 16:40:29</time>
      </trkpt>
      <trkpt lat="28.11927" lon="-14.25898">
        <ele>11.4</ele>
        <time>2021-07-05 16:40:30</time>
      </trkpt>
      <trkpt lat="28.11925" lon="-14.25899">
        <ele>11.4</ele>
        <time>2021-07-05 16:40:31</time>
      </trkpt>
      <trkpt lat="28.11922" lon="-14.259">
        <ele>11.4</ele>
        <time>2021-07-05 16:40:32</time>
      </trkpt>
      <trkpt lat="28.11919" lon="-14.25901">
        <ele>11.4</ele>
        <time>2021-07-05 16:40:33</time>
      </trkpt>
      <trkpt lat="28.11916" lon="-14.25903">
        <ele>11.4</ele>
        <time>2021-07-05 16:40:34</time>
      </trkpt>
      <trkpt lat="28.11912" lon="-14.25905">
        <ele>11.4</ele>
        <time>2021-07-05 16:40:35</time>
      </trkpt>
      <trkpt lat="28.11908" lon="-14.25906">
        <ele>11.4</ele>
        <time>2021-07-05 16:40:36</time>
      </trkpt>
      <trkpt lat="28.11903" lon="-14.25908">
        <ele>11.4</ele>
        <time>2021-07-05 16:40:37</time>
      </trkpt>
      <trkpt lat="28.11899" lon="-14.2591">
        <ele>11</ele>
        <time>2021-07-05 16:40:38</time>
      </trkpt>
      <trkpt lat="28.11895" lon="-14.25913">
        <ele>11</ele>
        <time>2021-07-05 16:40:39</time>
      </trkpt>
      <trkpt lat="28.11891" lon="-14.25915">
        <ele>11</ele>
        <time>2021-07-05 16:40:40</time>
      </trkpt>
      <trkpt lat="28.11887" lon="-14.25918">
        <ele>10.8</ele>
        <time>2021-07-05 16:40:41</time>
      </trkpt>
      <trkpt lat="28.11882" lon="-14.25921">
        <ele>10.8</ele>
        <time>2021-07-05 16:40:42</time>
      </trkpt>
      <trkpt lat="28.11877" lon="-14.25923">
        <ele>10.8</ele>
        <time>2021-07-05 16:40:43</time>
      </trkpt>
      <trkpt lat="28.11872" lon="-14.25925">
        <ele>10.6</ele>
        <time>2021-07-05 16:40:44</time>
      </trkpt>
      <trkpt lat="28.11867" lon="-14.25926">
        <ele>10.6</ele>
        <time>2021-07-05 16:40:45</time>
      </trkpt>
      <trkpt lat="28.11862" lon="-14.25928">
        <ele>10.6</ele>
        <time>2021-07-05 16:40:46</time>
      </trkpt>
      <trkpt lat="28.11858" lon="-14.2593">
        <ele>10.4</ele>
        <time>2021-07-05 16:40:47</time>
      </trkpt>
      <trkpt lat="28.11853" lon="-14.25931">
        <ele>10.4</ele>
        <time>2021-07-05 16:40:48</time>
      </trkpt>
      <trkpt lat="28.11849" lon="-14.25933">
        <ele>10.4</ele>
        <time>2021-07-05 16:40:49</time>
      </trkpt>
      <trkpt lat="28.11844" lon="-14.25935">
        <ele>10.4</ele>
        <time>2021-07-05 16:40:50</time>
      </trkpt>
      <trkpt lat="28.1184" lon="-14.25936">
        <ele>10.4</ele>
        <time>2021-07-05 16:40:51</time>
      </trkpt>
      <trkpt lat="28.11836" lon="-14.25938">
        <ele>10.4</ele>
        <time>2021-07-05 16:40:52</time>
      </trkpt>
      <trkpt lat="28.11833" lon="-14.25939">
        <ele>10.4</ele>
        <time>2021-07-05 16:40:53</time>
      </trkpt>
      <trkpt lat="28.11829" lon="-14.25941">
        <ele>10.4</ele>
        <time>2021-07-05 16:40:54</time>
      </trkpt>
      <trkpt lat="28.11826" lon="-14.25943">
        <ele>10.4</ele>
        <time>2021-07-05 16:40:55</time>
      </trkpt>
      <trkpt lat="28.11822" lon="-14.25945">
        <ele>10.4</ele>
        <time>2021-07-05 16:40:56</time>
      </trkpt>
      <trkpt lat="28.11818" lon="-14.25947">
        <ele>10.4</ele>
        <time>2021-07-05 16:40:57</time>
      </trkpt>
      <trkpt lat="28.11815" lon="-14.25948">
        <ele>10.4</ele>
        <time>2021-07-05 16:40:58</time>
      </trkpt>
      <trkpt lat="28.11811" lon="-14.2595">
        <ele>10.4</ele>
        <time>2021-07-05 16:40:59</time>
      </trkpt>
      <trkpt lat="28.11807" lon="-14.25951">
        <ele>10.6</ele>
        <time>2021-07-05 16:41:00</time>
      </trkpt>
      <trkpt lat="28.11804" lon="-14.25953">
        <ele>10.6</ele>
        <time>2021-07-05 16:41:01</time>
      </trkpt>
      <trkpt lat="28.118" lon="-14.25954">
        <ele>10.6</ele>
        <time>2021-07-05 16:41:02</time>
      </trkpt>
      <trkpt lat="28.11797" lon="-14.25956">
        <ele>10.6</ele>
        <time>2021-07-05 16:41:03</time>
      </trkpt>
      <trkpt lat="28.11793" lon="-14.25957">
        <ele>10.8</ele>
        <time>2021-07-05 16:41:04</time>
      </trkpt>
      <trkpt lat="28.11789" lon="-14.25959">
        <ele>10.8</ele>
        <time>2021-07-05 16:41:05</time>
      </trkpt>
      <trkpt lat="28.11785" lon="-14.2596">
        <ele>10.8</ele>
        <time>2021-07-05 16:41:06</time>
      </trkpt>
      <trkpt lat="28.11781" lon="-14.25962">
        <ele>10.8</ele>
        <time>2021-07-05 16:41:07</time>
      </trkpt>
      <trkpt lat="28.11778" lon="-14.25963">
        <ele>10.8</ele>
        <time>2021-07-05 16:41:08</time>
      </trkpt>
      <trkpt lat="28.11774" lon="-14.25964">
        <ele>10.8</ele>
        <time>2021-07-05 16:41:09</time>
      </trkpt>
      <trkpt lat="28.11771" lon="-14.25965">
        <ele>10.8</ele>
        <time>2021-07-05 16:41:10</time>
      </trkpt>
      <trkpt lat="28.11767" lon="-14.25966">
        <ele>10.8</ele>
        <time>2021-07-05 16:41:11</time>
      </trkpt>
      <trkpt lat="28.11763" lon="-14.25967">
        <ele>10.8</ele>
        <time>2021-07-05 16:41:12</time>
      </trkpt>
      <trkpt lat="28.1176" lon="-14.25968">
        <ele>10.8</ele>
        <time>2021-07-05 16:41:13</time>
      </trkpt>
      <trkpt lat="28.11756" lon="-14.25968">
        <ele>10.8</ele>
        <time>2021-07-05 16:41:14</time>
      </trkpt>
      <trkpt lat="28.11752" lon="-14.25969">
        <ele>10.8</ele>
        <time>2021-07-05 16:41:15</time>
      </trkpt>
      <trkpt lat="28.11748" lon="-14.25969">
        <ele>10.8</ele>
        <time>2021-07-05 16:41:16</time>
      </trkpt>
      <trkpt lat="28.11745" lon="-14.25969">
        <ele>10.8</ele>
        <time>2021-07-05 16:41:17</time>
      </trkpt>
      <trkpt lat="28.11741" lon="-14.25969">
        <ele>11.2</ele>
        <time>2021-07-05 16:41:18</time>
      </trkpt>
      <trkpt lat="28.11737" lon="-14.2597">
        <ele>11.2</ele>
        <time>2021-07-05 16:41:19</time>
      </trkpt>
      <trkpt lat="28.11734" lon="-14.25971">
        <ele>11.6</ele>
        <time>2021-07-05 16:41:20</time>
      </trkpt>
      <trkpt lat="28.1173" lon="-14.25972">
        <ele>11.6</ele>
        <time>2021-07-05 16:41:21</time>
      </trkpt>
      <trkpt lat="28.11727" lon="-14.25974">
        <ele>11.6</ele>
        <time>2021-07-05 16:41:22</time>
      </trkpt>
      <trkpt lat="28.11723" lon="-14.25975">
        <ele>11.6</ele>
        <time>2021-07-05 16:41:23</time>
      </trkpt>
      <trkpt lat="28.11719" lon="-14.25976">
        <ele>11.6</ele>
        <time>2021-07-05 16:41:24</time>
      </trkpt>
      <trkpt lat="28.11716" lon="-14.25978">
        <ele>11.6</ele>
        <time>2021-07-05 16:41:25</time>
      </trkpt>
      <trkpt lat="28.11712" lon="-14.2598">
        <ele>11.6</ele>
        <time>2021-07-05 16:41:26</time>
      </trkpt>
      <trkpt lat="28.11709" lon="-14.25983">
        <ele>11.6</ele>
        <time>2021-07-05 16:41:27</time>
      </trkpt>
      <trkpt lat="28.11705" lon="-14.25986">
        <ele>11.8</ele>
        <time>2021-07-05 16:41:28</time>
      </trkpt>
      <trkpt lat="28.11702" lon="-14.25989">
        <ele>11.8</ele>
        <time>2021-07-05 16:41:29</time>
      </trkpt>
      <trkpt lat="28.117" lon="-14.25992">
        <ele>11.8</ele>
        <time>2021-07-05 16:41:30</time>
      </trkpt>
      <trkpt lat="28.11697" lon="-14.25995">
        <ele>11.8</ele>
        <time>2021-07-05 16:41:31</time>
      </trkpt>
      <trkpt lat="28.11695" lon="-14.25998">
        <ele>11.8</ele>
        <time>2021-07-05 16:41:32</time>
      </trkpt>
      <trkpt lat="28.11691" lon="-14.26001">
        <ele>11.8</ele>
        <time>2021-07-05 16:41:33</time>
      </trkpt>
      <trkpt lat="28.11688" lon="-14.26004">
        <ele>11.8</ele>
        <time>2021-07-05 16:41:34</time>
      </trkpt>
      <trkpt lat="28.11684" lon="-14.26007">
        <ele>11.8</ele>
        <time>2021-07-05 16:41:35</time>
      </trkpt>
      <trkpt lat="28.11681" lon="-14.2601">
        <ele>11.8</ele>
        <time>2021-07-05 16:41:36</time>
      </trkpt>
      <trkpt lat="28.11678" lon="-14.26013">
        <ele>11.8</ele>
        <time>2021-07-05 16:41:37</time>
      </trkpt>
      <trkpt lat="28.11676" lon="-14.26015">
        <ele>11.8</ele>
        <time>2021-07-05 16:41:38</time>
      </trkpt>
      <trkpt lat="28.11674" lon="-14.26018">
        <ele>12</ele>
        <time>2021-07-05 16:41:39</time>
      </trkpt>
      <trkpt lat="28.11672" lon="-14.2602">
        <ele>12</ele>
        <time>2021-07-05 16:41:40</time>
      </trkpt>
      <trkpt lat="28.1167" lon="-14.26023">
        <ele>12</ele>
        <time>2021-07-05 16:41:41</time>
      </trkpt>
      <trkpt lat="28.11668" lon="-14.26025">
        <ele>12</ele>
        <time>2021-07-05 16:41:42</time>
      </trkpt>
      <trkpt lat="28.11665" lon="-14.26028">
        <ele>12</ele>
        <time>2021-07-05 16:41:43</time>
      </trkpt>
      <trkpt lat="28.11662" lon="-14.2603">
        <ele>12</ele>
        <time>2021-07-05 16:41:44</time>
      </trkpt>
      <trkpt lat="28.11659" lon="-14.26032">
        <ele>12</ele>
        <time>2021-07-05 16:41:45</time>
      </trkpt>
      <trkpt lat="28.11656" lon="-14.26034">
        <ele>12</ele>
        <time>2021-07-05 16:41:46</time>
      </trkpt>
      <trkpt lat="28.11652" lon="-14.26035">
        <ele>12</ele>
        <time>2021-07-05 16:41:47</time>
      </trkpt>
      <trkpt lat="28.11648" lon="-14.26036">
        <ele>12</ele>
        <time>2021-07-05 16:41:48</time>
      </trkpt>
      <trkpt lat="28.11646" lon="-14.26037">
        <ele>12</ele>
        <time>2021-07-05 16:41:49</time>
      </trkpt>
      <trkpt lat="28.11643" lon="-14.26038">
        <ele>12</ele>
        <time>2021-07-05 16:41:50</time>
      </trkpt>
      <trkpt lat="28.1164" lon="-14.26039">
        <ele>12</ele>
        <time>2021-07-05 16:41:51</time>
      </trkpt>
      <trkpt lat="28.11637" lon="-14.26039">
        <ele>12</ele>
        <time>2021-07-05 16:41:52</time>
      </trkpt>
      <trkpt lat="28.11634" lon="-14.2604">
        <ele>12</ele>
        <time>2021-07-05 16:41:53</time>
      </trkpt>
      <trkpt lat="28.11632" lon="-14.2604">
        <ele>11.8</ele>
        <time>2021-07-05 16:41:54</time>
      </trkpt>
      <trkpt lat="28.11629" lon="-14.26041">
        <ele>11.8</ele>
        <time>2021-07-05 16:41:55</time>
      </trkpt>
      <trkpt lat="28.11627" lon="-14.26042">
        <ele>11.8</ele>
        <time>2021-07-05 16:41:56</time>
      </trkpt>
      <trkpt lat="28.11625" lon="-14.26043">
        <ele>11.8</ele>
        <time>2021-07-05 16:41:57</time>
      </trkpt>
      <trkpt lat="28.11623" lon="-14.26043">
        <ele>11.8</ele>
        <time>2021-07-05 16:41:58</time>
      </trkpt>
      <trkpt lat="28.11622" lon="-14.26044">
        <ele>11.8</ele>
        <time>2021-07-05 16:41:59</time>
      </trkpt>
      <trkpt lat="28.1162" lon="-14.26045">
        <ele>11.8</ele>
        <time>2021-07-05 16:42:00</time>
      </trkpt>
      <trkpt lat="28.11618" lon="-14.26046">
        <ele>11.8</ele>
        <time>2021-07-05 16:42:01</time>
      </trkpt>
      <trkpt lat="28.11616" lon="-14.26047">
        <ele>11.8</ele>
        <time>2021-07-05 16:42:02</time>
      </trkpt>
      <trkpt lat="28.11614" lon="-14.26047">
        <ele>11.8</ele>
        <time>2021-07-05 16:42:03</time>
      </trkpt>
      <trkpt lat="28.11611" lon="-14.26048">
        <ele>11.8</ele>
        <time>2021-07-05 16:42:04</time>
      </trkpt>
      <trkpt lat="28.11609" lon="-14.2605">
        <ele>11.8</ele>
        <time>2021-07-05 16:42:05</time>
      </trkpt>
      <trkpt lat="28.11607" lon="-14.26051">
        <ele>11.8</ele>
        <time>2021-07-05 16:42:06</time>
      </trkpt>
      <trkpt lat="28.11604" lon="-14.26053">
        <ele>11.8</ele>
        <time>2021-07-05 16:42:07</time>
      </trkpt>
      <trkpt lat="28.11602" lon="-14.26055">
        <ele>11.8</ele>
        <time>2021-07-05 16:42:08</time>
      </trkpt>
      <trkpt lat="28.11599" lon="-14.26056">
        <ele>12</ele>
        <time>2021-07-05 16:42:09</time>
      </trkpt>
      <trkpt lat="28.11595" lon="-14.26056">
        <ele>12</ele>
        <time>2021-07-05 16:42:10</time>
      </trkpt>
      <trkpt lat="28.11592" lon="-14.26057">
        <ele>12</ele>
        <time>2021-07-05 16:42:11</time>
      </trkpt>
      <trkpt lat="28.11589" lon="-14.26058">
        <ele>12</ele>
        <time>2021-07-05 16:42:12</time>
      </trkpt>
      <trkpt lat="28.11586" lon="-14.26059">
        <ele>12</ele>
        <time>2021-07-05 16:42:13</time>
      </trkpt>
      <trkpt lat="28.11582" lon="-14.26059">
        <ele>12</ele>
        <time>2021-07-05 16:42:14</time>
      </trkpt>
      <trkpt lat="28.11579" lon="-14.2606">
        <ele>12</ele>
        <time>2021-07-05 16:42:15</time>
      </trkpt>
      <trkpt lat="28.11576" lon="-14.2606">
        <ele>12</ele>
        <time>2021-07-05 16:42:16</time>
      </trkpt>
      <trkpt lat="28.11573" lon="-14.26061">
        <ele>12</ele>
        <time>2021-07-05 16:42:17</time>
      </trkpt>
      <trkpt lat="28.11571" lon="-14.26061">
        <ele>12</ele>
        <time>2021-07-05 16:42:18</time>
      </trkpt>
      <trkpt lat="28.11568" lon="-14.26062">
        <ele>12</ele>
        <time>2021-07-05 16:42:19</time>
      </trkpt>
      <trkpt lat="28.11565" lon="-14.26062">
        <ele>12</ele>
        <time>2021-07-05 16:42:20</time>
      </trkpt>
      <trkpt lat="28.11563" lon="-14.26062">
        <ele>12.2</ele>
        <time>2021-07-05 16:42:21</time>
      </trkpt>
      <trkpt lat="28.11561" lon="-14.26063">
        <ele>12.2</ele>
        <time>2021-07-05 16:42:22</time>
      </trkpt>
      <trkpt lat="28.11559" lon="-14.26063">
        <ele>12.6</ele>
        <time>2021-07-05 16:42:23</time>
      </trkpt>
      <trkpt lat="28.11556" lon="-14.26063">
        <ele>12.6</ele>
        <time>2021-07-05 16:42:24</time>
      </trkpt>
      <trkpt lat="28.11554" lon="-14.26064">
        <ele>12.6</ele>
        <time>2021-07-05 16:42:25</time>
      </trkpt>
      <trkpt lat="28.11552" lon="-14.26064">
        <ele>12.6</ele>
        <time>2021-07-05 16:42:26</time>
      </trkpt>
      <trkpt lat="28.11551" lon="-14.26064">
        <ele>12.6</ele>
        <time>2021-07-05 16:42:27</time>
      </trkpt>
      <trkpt lat="28.11551" lon="-14.26064">
        <ele>12.8</ele>
        <time>2021-07-05 16:42:28</time>
      </trkpt>
      <trkpt lat="28.11551" lon="-14.26064">
        <ele>13</ele>
        <time>2021-07-05 16:42:29</time>
      </trkpt>
      <trkpt lat="28.11552" lon="-14.26064">
        <ele>14</ele>
        <time>2021-07-05 16:42:30</time>
      </trkpt>
      <trkpt lat="28.1155" lon="-14.26064">
        <ele>15.6</ele>
        <time>2021-07-05 16:42:31</time>
      </trkpt>
      <trkpt lat="28.11548" lon="-14.26064">
        <ele>15.6</ele>
        <time>2021-07-05 16:42:32</time>
      </trkpt>
      <trkpt lat="28.11546" lon="-14.26064">
        <ele>15</ele>
        <time>2021-07-05 16:42:59</time>
      </trkpt>
      <trkpt lat="28.11542" lon="-14.26064">
        <ele>15</ele>
        <time>2021-07-05 16:43:00</time>
      </trkpt>
      <trkpt lat="28.11539" lon="-14.26064">
        <ele>15</ele>
        <time>2021-07-05 16:43:01</time>
      </trkpt>
      <trkpt lat="28.11535" lon="-14.26064">
        <ele>14.8</ele>
        <time>2021-07-05 16:43:02</time>
      </trkpt>
      <trkpt lat="28.11531" lon="-14.26064">
        <ele>14.6</ele>
        <time>2021-07-05 16:43:03</time>
      </trkpt>
      <trkpt lat="28.11526" lon="-14.26064">
        <ele>14.4</ele>
        <time>2021-07-05 16:43:04</time>
      </trkpt>
      <trkpt lat="28.11522" lon="-14.26064">
        <ele>14.4</ele>
        <time>2021-07-05 16:43:05</time>
      </trkpt>
      <trkpt lat="28.11517" lon="-14.26065">
        <ele>14</ele>
        <time>2021-07-05 16:43:06</time>
      </trkpt>
      <trkpt lat="28.11513" lon="-14.26066">
        <ele>14</ele>
        <time>2021-07-05 16:43:07</time>
      </trkpt>
      <trkpt lat="28.11508" lon="-14.26067">
        <ele>13.6</ele>
        <time>2021-07-05 16:43:08</time>
      </trkpt>
      <trkpt lat="28.11503" lon="-14.26067">
        <ele>13.6</ele>
        <time>2021-07-05 16:43:09</time>
      </trkpt>
      <trkpt lat="28.11499" lon="-14.26067">
        <ele>13.6</ele>
        <time>2021-07-05 16:43:10</time>
      </trkpt>
      <trkpt lat="28.11494" lon="-14.26068">
        <ele>13.4</ele>
        <time>2021-07-05 16:43:11</time>
      </trkpt>
      <trkpt lat="28.1149" lon="-14.26068">
        <ele>13.4</ele>
        <time>2021-07-05 16:43:12</time>
      </trkpt>
      <trkpt lat="28.11485" lon="-14.26069">
        <ele>13.4</ele>
        <time>2021-07-05 16:43:13</time>
      </trkpt>
      <trkpt lat="28.11481" lon="-14.2607">
        <ele>13.4</ele>
        <time>2021-07-05 16:43:14</time>
      </trkpt>
      <trkpt lat="28.11476" lon="-14.26071">
        <ele>13.4</ele>
        <time>2021-07-05 16:43:15</time>
      </trkpt>
      <trkpt lat="28.11472" lon="-14.26071">
        <ele>13.4</ele>
        <time>2021-07-05 16:43:16</time>
      </trkpt>
      <trkpt lat="28.11468" lon="-14.26073">
        <ele>13.4</ele>
        <time>2021-07-05 16:43:17</time>
      </trkpt>
      <trkpt lat="28.11463" lon="-14.26074">
        <ele>13.4</ele>
        <time>2021-07-05 16:43:18</time>
      </trkpt>
      <trkpt lat="28.11459" lon="-14.26075">
        <ele>13.4</ele>
        <time>2021-07-05 16:43:19</time>
      </trkpt>
      <trkpt lat="28.11455" lon="-14.26077">
        <ele>13.4</ele>
        <time>2021-07-05 16:43:20</time>
      </trkpt>
      <trkpt lat="28.1145" lon="-14.26078">
        <ele>13.4</ele>
        <time>2021-07-05 16:43:21</time>
      </trkpt>
      <trkpt lat="28.11446" lon="-14.26079">
        <ele>13.4</ele>
        <time>2021-07-05 16:43:22</time>
      </trkpt>
      <trkpt lat="28.11442" lon="-14.2608">
        <ele>13.4</ele>
        <time>2021-07-05 16:43:23</time>
      </trkpt>
      <trkpt lat="28.11437" lon="-14.26081">
        <ele>13.4</ele>
        <time>2021-07-05 16:43:24</time>
      </trkpt>
      <trkpt lat="28.11432" lon="-14.26082">
        <ele>13.4</ele>
        <time>2021-07-05 16:43:25</time>
      </trkpt>
      <trkpt lat="28.11428" lon="-14.26083">
        <ele>13.4</ele>
        <time>2021-07-05 16:43:26</time>
      </trkpt>
      <trkpt lat="28.11423" lon="-14.26084">
        <ele>13.4</ele>
        <time>2021-07-05 16:43:27</time>
      </trkpt>
      <trkpt lat="28.11419" lon="-14.26085">
        <ele>13.4</ele>
        <time>2021-07-05 16:43:28</time>
      </trkpt>
      <trkpt lat="28.11414" lon="-14.26087">
        <ele>13.4</ele>
        <time>2021-07-05 16:43:29</time>
      </trkpt>
      <trkpt lat="28.11409" lon="-14.26088">
        <ele>13.4</ele>
        <time>2021-07-05 16:43:30</time>
      </trkpt>
      <trkpt lat="28.11405" lon="-14.26089">
        <ele>13.4</ele>
        <time>2021-07-05 16:43:31</time>
      </trkpt>
      <trkpt lat="28.114" lon="-14.2609">
        <ele>13.4</ele>
        <time>2021-07-05 16:43:32</time>
      </trkpt>
      <trkpt lat="28.11396" lon="-14.26091">
        <ele>13.2</ele>
        <time>2021-07-05 16:43:33</time>
      </trkpt>
      <trkpt lat="28.11391" lon="-14.26093">
        <ele>13.2</ele>
        <time>2021-07-05 16:43:34</time>
      </trkpt>
      <trkpt lat="28.11386" lon="-14.26093">
        <ele>13.2</ele>
        <time>2021-07-05 16:43:35</time>
      </trkpt>
      <trkpt lat="28.11382" lon="-14.26094">
        <ele>12.8</ele>
        <time>2021-07-05 16:43:36</time>
      </trkpt>
      <trkpt lat="28.11377" lon="-14.26095">
        <ele>12.8</ele>
        <time>2021-07-05 16:43:37</time>
      </trkpt>
      <trkpt lat="28.11373" lon="-14.26096">
        <ele>12.6</ele>
        <time>2021-07-05 16:43:38</time>
      </trkpt>
      <trkpt lat="28.11368" lon="-14.26098">
        <ele>12.6</ele>
        <time>2021-07-05 16:43:39</time>
      </trkpt>
      <trkpt lat="28.11364" lon="-14.26098">
        <ele>12.2</ele>
        <time>2021-07-05 16:43:40</time>
      </trkpt>
      <trkpt lat="28.1136" lon="-14.26099">
        <ele>12.2</ele>
        <time>2021-07-05 16:43:41</time>
      </trkpt>
      <trkpt lat="28.11355" lon="-14.261">
        <ele>12.2</ele>
        <time>2021-07-05 16:43:42</time>
      </trkpt>
      <trkpt lat="28.11351" lon="-14.26102">
        <ele>12.2</ele>
        <time>2021-07-05 16:43:43</time>
      </trkpt>
      <trkpt lat="28.11347" lon="-14.26103">
        <ele>12</ele>
        <time>2021-07-05 16:43:44</time>
      </trkpt>
      <trkpt lat="28.11342" lon="-14.26105">
        <ele>12</ele>
        <time>2021-07-05 16:43:45</time>
      </trkpt>
      <trkpt lat="28.11339" lon="-14.26106">
        <ele>12</ele>
        <time>2021-07-05 16:43:46</time>
      </trkpt>
      <trkpt lat="28.11337" lon="-14.26107">
        <ele>12</ele>
        <time>2021-07-05 16:43:47</time>
      </trkpt>
      <trkpt lat="28.11336" lon="-14.26106">
        <ele>12</ele>
        <time>2021-07-05 16:43:48</time>
      </trkpt>
      <trkpt lat="28.11335" lon="-14.26107">
        <ele>12</ele>
        <time>2021-07-05 16:43:49</time>
      </trkpt>
      <trkpt lat="28.11336" lon="-14.26107">
        <ele>12.4</ele>
        <time>2021-07-05 16:43:50</time>
      </trkpt>
      <trkpt lat="28.11335" lon="-14.26108">
        <ele>12.4</ele>
        <time>2021-07-05 16:43:51</time>
      </trkpt>
      <trkpt lat="28.11335" lon="-14.26108">
        <ele>12.4</ele>
        <time>2021-07-05 16:43:52</time>
      </trkpt>
      <trkpt lat="28.11335" lon="-14.26108">
        <ele>12.6</ele>
        <time>2021-07-05 16:43:53</time>
      </trkpt>
      <trkpt lat="28.11335" lon="-14.26109">
        <ele>12.6</ele>
        <time>2021-07-05 16:43:54</time>
      </trkpt>
      <trkpt lat="28.11334" lon="-14.26109">
        <ele>12.8</ele>
        <time>2021-07-05 16:43:55</time>
      </trkpt>
      <trkpt lat="28.11334" lon="-14.26109">
        <ele>12.8</ele>
        <time>2021-07-05 16:43:56</time>
      </trkpt>
      <trkpt lat="28.11334" lon="-14.2611">
        <ele>12.8</ele>
        <time>2021-07-05 16:43:57</time>
      </trkpt>
      <trkpt lat="28.11333" lon="-14.26111">
        <ele>12.8</ele>
        <time>2021-07-05 16:43:58</time>
      </trkpt>
      <trkpt lat="28.11332" lon="-14.26113">
        <ele>12.8</ele>
        <time>2021-07-05 16:43:59</time>
      </trkpt>
      <trkpt lat="28.11332" lon="-14.26114">
        <ele>12.8</ele>
        <time>2021-07-05 16:44:00</time>
      </trkpt>
      <trkpt lat="28.11331" lon="-14.26116">
        <ele>12.8</ele>
        <time>2021-07-05 16:44:01</time>
      </trkpt>
      <trkpt lat="28.11329" lon="-14.26118">
        <ele>12.8</ele>
        <time>2021-07-05 16:44:02</time>
      </trkpt>
      <trkpt lat="28.11328" lon="-14.2612">
        <ele>13</ele>
        <time>2021-07-05 16:44:03</time>
      </trkpt>
      <trkpt lat="28.11326" lon="-14.26123">
        <ele>13</ele>
        <time>2021-07-05 16:44:04</time>
      </trkpt>
      <trkpt lat="28.11324" lon="-14.26126">
        <ele>13</ele>
        <time>2021-07-05 16:44:05</time>
      </trkpt>
      <trkpt lat="28.11322" lon="-14.26128">
        <ele>13</ele>
        <time>2021-07-05 16:44:06</time>
      </trkpt>
      <trkpt lat="28.1132" lon="-14.26131">
        <ele>13</ele>
        <time>2021-07-05 16:44:07</time>
      </trkpt>
      <trkpt lat="28.11319" lon="-14.26134">
        <ele>12.6</ele>
        <time>2021-07-05 16:44:08</time>
      </trkpt>
      <trkpt lat="28.11316" lon="-14.26137">
        <ele>12.6</ele>
        <time>2021-07-05 16:44:09</time>
      </trkpt>
      <trkpt lat="28.11315" lon="-14.26139">
        <ele>12.4</ele>
        <time>2021-07-05 16:44:10</time>
      </trkpt>
      <trkpt lat="28.11313" lon="-14.26142">
        <ele>12.4</ele>
        <time>2021-07-05 16:44:11</time>
      </trkpt>
      <trkpt lat="28.11311" lon="-14.26145">
        <ele>12</ele>
        <time>2021-07-05 16:44:12</time>
      </trkpt>
      <trkpt lat="28.11309" lon="-14.26148">
        <ele>12</ele>
        <time>2021-07-05 16:44:13</time>
      </trkpt>
      <trkpt lat="28.11308" lon="-14.26151">
        <ele>12</ele>
        <time>2021-07-05 16:44:14</time>
      </trkpt>
      <trkpt lat="28.11306" lon="-14.26153">
        <ele>12.4</ele>
        <time>2021-07-05 16:44:15</time>
      </trkpt>
      <trkpt lat="28.11304" lon="-14.26156">
        <ele>12.4</ele>
        <time>2021-07-05 16:44:16</time>
      </trkpt>
      <trkpt lat="28.11302" lon="-14.26158">
        <ele>12.4</ele>
        <time>2021-07-05 16:44:17</time>
      </trkpt>
      <trkpt lat="28.113" lon="-14.26161">
        <ele>13</ele>
        <time>2021-07-05 16:44:18</time>
      </trkpt>
      <trkpt lat="28.11298" lon="-14.26163">
        <ele>13</ele>
        <time>2021-07-05 16:44:19</time>
      </trkpt>
      <trkpt lat="28.11295" lon="-14.26166">
        <ele>13</ele>
        <time>2021-07-05 16:44:20</time>
      </trkpt>
      <trkpt lat="28.11293" lon="-14.26168">
        <ele>13</ele>
        <time>2021-07-05 16:44:21</time>
      </trkpt>
      <trkpt lat="28.1129" lon="-14.2617">
        <ele>13</ele>
        <time>2021-07-05 16:44:22</time>
      </trkpt>
      <trkpt lat="28.11288" lon="-14.26172">
        <ele>13.2</ele>
        <time>2021-07-05 16:44:23</time>
      </trkpt>
      <trkpt lat="28.11285" lon="-14.26174">
        <ele>13.2</ele>
        <time>2021-07-05 16:44:24</time>
      </trkpt>
      <trkpt lat="28.11282" lon="-14.26176">
        <ele>13.2</ele>
        <time>2021-07-05 16:44:25</time>
      </trkpt>
      <trkpt lat="28.11279" lon="-14.26178">
        <ele>13.2</ele>
        <time>2021-07-05 16:44:26</time>
      </trkpt>
      <trkpt lat="28.11276" lon="-14.2618">
        <ele>13</ele>
        <time>2021-07-05 16:44:27</time>
      </trkpt>
      <trkpt lat="28.11273" lon="-14.26182">
        <ele>13</ele>
        <time>2021-07-05 16:44:28</time>
      </trkpt>
      <trkpt lat="28.1127" lon="-14.26184">
        <ele>13</ele>
        <time>2021-07-05 16:44:29</time>
      </trkpt>
      <trkpt lat="28.11268" lon="-14.26186">
        <ele>12.8</ele>
        <time>2021-07-05 16:44:30</time>
      </trkpt>
      <trkpt lat="28.11265" lon="-14.26188">
        <ele>12.8</ele>
        <time>2021-07-05 16:44:31</time>
      </trkpt>
      <trkpt lat="28.11262" lon="-14.2619">
        <ele>12.8</ele>
        <time>2021-07-05 16:44:32</time>
      </trkpt>
      <trkpt lat="28.11259" lon="-14.26193">
        <ele>12.8</ele>
        <time>2021-07-05 16:44:33</time>
      </trkpt>
      <trkpt lat="28.11256" lon="-14.26195">
        <ele>12.8</ele>
        <time>2021-07-05 16:44:34</time>
      </trkpt>
      <trkpt lat="28.11254" lon="-14.26198">
        <ele>13.2</ele>
        <time>2021-07-05 16:44:35</time>
      </trkpt>
      <trkpt lat="28.11251" lon="-14.262">
        <ele>13.2</ele>
        <time>2021-07-05 16:44:36</time>
      </trkpt>
      <trkpt lat="28.11249" lon="-14.26203">
        <ele>13.4</ele>
        <time>2021-07-05 16:44:37</time>
      </trkpt>
      <trkpt lat="28.11247" lon="-14.26207">
        <ele>13.4</ele>
        <time>2021-07-05 16:44:38</time>
      </trkpt>
      <trkpt lat="28.11245" lon="-14.2621">
        <ele>13.4</ele>
        <time>2021-07-05 16:44:39</time>
      </trkpt>
      <trkpt lat="28.11243" lon="-14.26213">
        <ele>13.4</ele>
        <time>2021-07-05 16:44:40</time>
      </trkpt>
      <trkpt lat="28.11241" lon="-14.26215">
        <ele>13.8</ele>
        <time>2021-07-05 16:44:41</time>
      </trkpt>
      <trkpt lat="28.1124" lon="-14.26218">
        <ele>13.8</ele>
        <time>2021-07-05 16:44:42</time>
      </trkpt>
      <trkpt lat="28.11239" lon="-14.26221">
        <ele>13.8</ele>
        <time>2021-07-05 16:44:43</time>
      </trkpt>
      <trkpt lat="28.11237" lon="-14.26224">
        <ele>14.2</ele>
        <time>2021-07-05 16:44:44</time>
      </trkpt>
      <trkpt lat="28.11236" lon="-14.26226">
        <ele>14.2</ele>
        <time>2021-07-05 16:44:45</time>
      </trkpt>
      <trkpt lat="28.11234" lon="-14.26229">
        <ele>14.2</ele>
        <time>2021-07-05 16:44:46</time>
      </trkpt>
      <trkpt lat="28.11233" lon="-14.26232">
        <ele>14.4</ele>
        <time>2021-07-05 16:44:47</time>
      </trkpt>
      <trkpt lat="28.11231" lon="-14.26234">
        <ele>14.4</ele>
        <time>2021-07-05 16:44:48</time>
      </trkpt>
      <trkpt lat="28.11229" lon="-14.26237">
        <ele>14.4</ele>
        <time>2021-07-05 16:44:49</time>
      </trkpt>
      <trkpt lat="28.11228" lon="-14.2624">
        <ele>14.6</ele>
        <time>2021-07-05 16:44:50</time>
      </trkpt>
      <trkpt lat="28.11226" lon="-14.26242">
        <ele>14.6</ele>
        <time>2021-07-05 16:44:51</time>
      </trkpt>
      <trkpt lat="28.11224" lon="-14.26245">
        <ele>15</ele>
        <time>2021-07-05 16:44:52</time>
      </trkpt>
      <trkpt lat="28.11223" lon="-14.26248">
        <ele>15</ele>
        <time>2021-07-05 16:44:53</time>
      </trkpt>
      <trkpt lat="28.11221" lon="-14.2625">
        <ele>15.2</ele>
        <time>2021-07-05 16:44:54</time>
      </trkpt>
      <trkpt lat="28.11221" lon="-14.26253">
        <ele>15.2</ele>
        <time>2021-07-05 16:44:55</time>
      </trkpt>
      <trkpt lat="28.1122" lon="-14.26255">
        <ele>15.2</ele>
        <time>2021-07-05 16:44:56</time>
      </trkpt>
      <trkpt lat="28.11221" lon="-14.26258">
        <ele>14.8</ele>
        <time>2021-07-05 16:44:57</time>
      </trkpt>
      <trkpt lat="28.11221" lon="-14.2626">
        <ele>14.8</ele>
        <time>2021-07-05 16:44:58</time>
      </trkpt>
      <trkpt lat="28.11221" lon="-14.26263">
        <ele>14.4</ele>
        <time>2021-07-05 16:44:59</time>
      </trkpt>
      <trkpt lat="28.11221" lon="-14.26265">
        <ele>14.4</ele>
        <time>2021-07-05 16:45:00</time>
      </trkpt>
      <trkpt lat="28.11221" lon="-14.26267">
        <ele>14</ele>
        <time>2021-07-05 16:45:01</time>
      </trkpt>
      <trkpt lat="28.11222" lon="-14.2627">
        <ele>14</ele>
        <time>2021-07-05 16:45:02</time>
      </trkpt>
      <trkpt lat="28.11222" lon="-14.26272">
        <ele>14</ele>
        <time>2021-07-05 16:45:03</time>
      </trkpt>
      <trkpt lat="28.11222" lon="-14.26274">
        <ele>14.2</ele>
        <time>2021-07-05 16:45:04</time>
      </trkpt>
      <trkpt lat="28.11221" lon="-14.26276">
        <ele>14.6</ele>
        <time>2021-07-05 16:45:05</time>
      </trkpt>
      <trkpt lat="28.11219" lon="-14.26277">
        <ele>14.6</ele>
        <time>2021-07-05 16:45:06</time>
      </trkpt>
      <trkpt lat="28.11218" lon="-14.26279">
        <ele>14.6</ele>
        <time>2021-07-05 16:45:07</time>
      </trkpt>
      <trkpt lat="28.11217" lon="-14.26281">
        <ele>14.6</ele>
        <time>2021-07-05 16:45:08</time>
      </trkpt>
      <trkpt lat="28.11216" lon="-14.26282">
        <ele>14.6</ele>
        <time>2021-07-05 16:45:09</time>
      </trkpt>
      <trkpt lat="28.11216" lon="-14.26282">
        <ele>14.6</ele>
        <time>2021-07-05 16:45:10</time>
      </trkpt>
      <trkpt lat="28.11216" lon="-14.26282">
        <ele>14.6</ele>
        <time>2021-07-05 16:45:11</time>
      </trkpt>
      <trkpt lat="28.11216" lon="-14.26282">
        <ele>14.6</ele>
        <time>2021-07-05 16:45:12</time>
      </trkpt>
      <trkpt lat="28.11216" lon="-14.26283">
        <ele>16.4</ele>
        <time>2021-07-05 16:45:13</time>
      </trkpt>
      <trkpt lat="28.11216" lon="-14.26285">
        <ele>16</ele>
        <time>2021-07-05 16:45:14</time>
      </trkpt>
      <trkpt lat="28.11216" lon="-14.26286">
        <ele>15.8</ele>
        <time>2021-07-05 16:45:33</time>
      </trkpt>
      <trkpt lat="28.11216" lon="-14.26288">
        <ele>15.6</ele>
        <time>2021-07-05 16:45:34</time>
      </trkpt>
      <trkpt lat="28.11217" lon="-14.26289">
        <ele>15.6</ele>
        <time>2021-07-05 16:45:35</time>
      </trkpt>
      <trkpt lat="28.11217" lon="-14.2629">
        <ele>15.6</ele>
        <time>2021-07-05 16:45:36</time>
      </trkpt>
      <trkpt lat="28.11218" lon="-14.26291">
        <ele>15.2</ele>
        <time>2021-07-05 16:45:37</time>
      </trkpt>
      <trkpt lat="28.11218" lon="-14.26292">
        <ele>15.2</ele>
        <time>2021-07-05 16:45:38</time>
      </trkpt>
      <trkpt lat="28.11218" lon="-14.26293">
        <ele>14.6</ele>
        <time>2021-07-05 16:45:39</time>
      </trkpt>
      <trkpt lat="28.11218" lon="-14.26295">
        <ele>14.6</ele>
        <time>2021-07-05 16:45:40</time>
      </trkpt>
      <trkpt lat="28.11218" lon="-14.26296">
        <ele>14.4</ele>
        <time>2021-07-05 16:45:41</time>
      </trkpt>
      <trkpt lat="28.11219" lon="-14.26297">
        <ele>14.2</ele>
        <time>2021-07-05 16:45:42</time>
      </trkpt>
      <trkpt lat="28.11219" lon="-14.26299">
        <ele>14.2</ele>
        <time>2021-07-05 16:45:43</time>
      </trkpt>
      <trkpt lat="28.1122" lon="-14.263">
        <ele>14</ele>
        <time>2021-07-05 16:45:44</time>
      </trkpt>
      <trkpt lat="28.1122" lon="-14.26302">
        <ele>14</ele>
        <time>2021-07-05 16:45:45</time>
      </trkpt>
      <trkpt lat="28.11221" lon="-14.26303">
        <ele>13.8</ele>
        <time>2021-07-05 16:45:46</time>
      </trkpt>
      <trkpt lat="28.11222" lon="-14.26304">
        <ele>13.8</ele>
        <time>2021-07-05 16:45:47</time>
      </trkpt>
      <trkpt lat="28.11222" lon="-14.26306">
        <ele>13.8</ele>
        <time>2021-07-05 16:45:48</time>
      </trkpt>
      <trkpt lat="28.11223" lon="-14.26307">
        <ele>13.4</ele>
        <time>2021-07-05 16:45:49</time>
      </trkpt>
      <trkpt lat="28.11224" lon="-14.26308">
        <ele>13.4</ele>
        <time>2021-07-05 16:45:50</time>
      </trkpt>
      <trkpt lat="28.11224" lon="-14.26309">
        <ele>13.4</ele>
        <time>2021-07-05 16:45:51</time>
      </trkpt>
      <trkpt lat="28.11225" lon="-14.26311">
        <ele>13.4</ele>
        <time>2021-07-05 16:45:52</time>
      </trkpt>
      <trkpt lat="28.11225" lon="-14.26312">
        <ele>13.4</ele>
        <time>2021-07-05 16:45:53</time>
      </trkpt>
      <trkpt lat="28.11225" lon="-14.26313">
        <ele>13.8</ele>
        <time>2021-07-05 16:45:54</time>
      </trkpt>
      <trkpt lat="28.11225" lon="-14.26315">
        <ele>14</ele>
        <time>2021-07-05 16:45:55</time>
      </trkpt>
      <trkpt lat="28.11225" lon="-14.26316">
        <ele>14.2</ele>
        <time>2021-07-05 16:45:56</time>
      </trkpt>
      <trkpt lat="28.11224" lon="-14.26317">
        <ele>14.4</ele>
        <time>2021-07-05 16:45:57</time>
      </trkpt>
      <trkpt lat="28.11224" lon="-14.26318">
        <ele>14.4</ele>
        <time>2021-07-05 16:45:58</time>
      </trkpt>
      <trkpt lat="28.11223" lon="-14.2632">
        <ele>14.8</ele>
        <time>2021-07-05 16:45:59</time>
      </trkpt>
      <trkpt lat="28.11223" lon="-14.26321">
        <ele>15</ele>
        <time>2021-07-05 16:46:00</time>
      </trkpt>
      <trkpt lat="28.11222" lon="-14.26322">
        <ele>15</ele>
        <time>2021-07-05 16:46:01</time>
      </trkpt>
      <trkpt lat="28.11222" lon="-14.26322">
        <ele>15</ele>
        <time>2021-07-05 16:46:02</time>
      </trkpt>
      <trkpt lat="28.11222" lon="-14.26322">
        <ele>15</ele>
        <time>2021-07-05 16:46:03</time>
      </trkpt>
      <trkpt lat="28.1122" lon="-14.26322">
        <ele>15</ele>
        <time>2021-07-05 16:46:04</time>
      </trkpt>
      <trkpt lat="28.11219" lon="-14.26323">
        <ele>15</ele>
        <time>2021-07-05 16:46:05</time>
      </trkpt>
      <trkpt lat="28.11217" lon="-14.26324">
        <ele>15</ele>
        <time>2021-07-05 16:46:08</time>
      </trkpt>
      <trkpt lat="28.11215" lon="-14.26325">
        <ele>15</ele>
        <time>2021-07-05 16:46:09</time>
      </trkpt>
      <trkpt lat="28.11213" lon="-14.26326">
        <ele>15</ele>
        <time>2021-07-05 16:46:10</time>
      </trkpt>
      <trkpt lat="28.11212" lon="-14.26328">
        <ele>15</ele>
        <time>2021-07-05 16:46:11</time>
      </trkpt>
      <trkpt lat="28.1121" lon="-14.2633">
        <ele>15</ele>
        <time>2021-07-05 16:46:12</time>
      </trkpt>
      <trkpt lat="28.11208" lon="-14.26332">
        <ele>15</ele>
        <time>2021-07-05 16:46:13</time>
      </trkpt>
      <trkpt lat="28.11206" lon="-14.26334">
        <ele>15</ele>
        <time>2021-07-05 16:46:14</time>
      </trkpt>
      <trkpt lat="28.11205" lon="-14.26336">
        <ele>15</ele>
        <time>2021-07-05 16:46:15</time>
      </trkpt>
      <trkpt lat="28.11204" lon="-14.26338">
        <ele>15</ele>
        <time>2021-07-05 16:46:16</time>
      </trkpt>
      <trkpt lat="28.11203" lon="-14.26341">
        <ele>15</ele>
        <time>2021-07-05 16:46:17</time>
      </trkpt>
      <trkpt lat="28.11203" lon="-14.26344">
        <ele>15</ele>
        <time>2021-07-05 16:46:18</time>
      </trkpt>
      <trkpt lat="28.11202" lon="-14.26347">
        <ele>15</ele>
        <time>2021-07-05 16:46:19</time>
      </trkpt>
      <trkpt lat="28.11202" lon="-14.2635">
        <ele>15</ele>
        <time>2021-07-05 16:46:20</time>
      </trkpt>
      <trkpt lat="28.11202" lon="-14.26353">
        <ele>15.2</ele>
        <time>2021-07-05 16:46:21</time>
      </trkpt>
      <trkpt lat="28.11202" lon="-14.26356">
        <ele>15.2</ele>
        <time>2021-07-05 16:46:22</time>
      </trkpt>
      <trkpt lat="28.11202" lon="-14.26359">
        <ele>15.2</ele>
        <time>2021-07-05 16:46:23</time>
      </trkpt>
      <trkpt lat="28.11203" lon="-14.26362">
        <ele>15.2</ele>
        <time>2021-07-05 16:46:24</time>
      </trkpt>
      <trkpt lat="28.11202" lon="-14.26364">
        <ele>15.6</ele>
        <time>2021-07-05 16:46:25</time>
      </trkpt>
      <trkpt lat="28.112" lon="-14.26366">
        <ele>15.8</ele>
        <time>2021-07-05 16:46:26</time>
      </trkpt>
      <trkpt lat="28.11197" lon="-14.26366">
        <ele>15.8</ele>
        <time>2021-07-05 16:46:27</time>
      </trkpt>
      <trkpt lat="28.11195" lon="-14.26365">
        <ele>16.2</ele>
        <time>2021-07-05 16:46:28</time>
      </trkpt>
      <trkpt lat="28.11192" lon="-14.26365">
        <ele>16.2</ele>
        <time>2021-07-05 16:46:29</time>
      </trkpt>
      <trkpt lat="28.11189" lon="-14.26365">
        <ele>16.4</ele>
        <time>2021-07-05 16:46:30</time>
      </trkpt>
      <trkpt lat="28.11187" lon="-14.26366">
        <ele>16.4</ele>
        <time>2021-07-05 16:46:31</time>
      </trkpt>
      <trkpt lat="28.11185" lon="-14.26367">
        <ele>16.4</ele>
        <time>2021-07-05 16:46:32</time>
      </trkpt>
      <trkpt lat="28.11183" lon="-14.26369">
        <ele>16.4</ele>
        <time>2021-07-05 16:46:33</time>
      </trkpt>
      <trkpt lat="28.11181" lon="-14.26372">
        <ele>16.4</ele>
        <time>2021-07-05 16:46:34</time>
      </trkpt>
      <trkpt lat="28.11181" lon="-14.26374">
        <ele>16.4</ele>
        <time>2021-07-05 16:46:35</time>
      </trkpt>
      <trkpt lat="28.1118" lon="-14.26377">
        <ele>16.2</ele>
        <time>2021-07-05 16:46:36</time>
      </trkpt>
      <trkpt lat="28.11181" lon="-14.2638">
        <ele>16.2</ele>
        <time>2021-07-05 16:46:37</time>
      </trkpt>
      <trkpt lat="28.11182" lon="-14.26382">
        <ele>16.6</ele>
        <time>2021-07-05 16:46:38</time>
      </trkpt>
      <trkpt lat="28.11184" lon="-14.26384">
        <ele>16.6</ele>
        <time>2021-07-05 16:46:39</time>
      </trkpt>
      <trkpt lat="28.11185" lon="-14.26386">
        <ele>16.6</ele>
        <time>2021-07-05 16:46:40</time>
      </trkpt>
      <trkpt lat="28.11187" lon="-14.26388">
        <ele>16.6</ele>
        <time>2021-07-05 16:46:41</time>
      </trkpt>
      <trkpt lat="28.11188" lon="-14.2639">
        <ele>16.6</ele>
        <time>2021-07-05 16:46:42</time>
      </trkpt>
      <trkpt lat="28.11189" lon="-14.26392">
        <ele>16.6</ele>
        <time>2021-07-05 16:46:43</time>
      </trkpt>
      <trkpt lat="28.1119" lon="-14.26395">
        <ele>16.6</ele>
        <time>2021-07-05 16:46:44</time>
      </trkpt>
      <trkpt lat="28.11191" lon="-14.26397">
        <ele>16.6</ele>
        <time>2021-07-05 16:46:45</time>
      </trkpt>
      <trkpt lat="28.11193" lon="-14.26399">
        <ele>16.6</ele>
        <time>2021-07-05 16:46:46</time>
      </trkpt>
      <trkpt lat="28.11194" lon="-14.26401">
        <ele>16.8</ele>
        <time>2021-07-05 16:46:47</time>
      </trkpt>
      <trkpt lat="28.11195" lon="-14.26403">
        <ele>16.8</ele>
        <time>2021-07-05 16:46:48</time>
      </trkpt>
      <trkpt lat="28.11197" lon="-14.26406">
        <ele>16.8</ele>
        <time>2021-07-05 16:46:49</time>
      </trkpt>
      <trkpt lat="28.11198" lon="-14.26408">
        <ele>16.8</ele>
        <time>2021-07-05 16:46:50</time>
      </trkpt>
      <trkpt lat="28.112" lon="-14.2641">
        <ele>16.8</ele>
        <time>2021-07-05 16:46:51</time>
      </trkpt>
      <trkpt lat="28.11202" lon="-14.26412">
        <ele>16.8</ele>
        <time>2021-07-05 16:46:52</time>
      </trkpt>
      <trkpt lat="28.11203" lon="-14.26414">
        <ele>16.8</ele>
        <time>2021-07-05 16:46:53</time>
      </trkpt>
      <trkpt lat="28.11205" lon="-14.26417">
        <ele>16.8</ele>
        <time>2021-07-05 16:46:54</time>
      </trkpt>
      <trkpt lat="28.11207" lon="-14.26419">
        <ele>16.8</ele>
        <time>2021-07-05 16:46:55</time>
      </trkpt>
      <trkpt lat="28.11209" lon="-14.26421">
        <ele>16.8</ele>
        <time>2021-07-05 16:46:56</time>
      </trkpt>
      <trkpt lat="28.1121" lon="-14.26423">
        <ele>16.8</ele>
        <time>2021-07-05 16:46:57</time>
      </trkpt>
      <trkpt lat="28.11212" lon="-14.26426">
        <ele>16.8</ele>
        <time>2021-07-05 16:46:58</time>
      </trkpt>
      <trkpt lat="28.11213" lon="-14.26428">
        <ele>16.8</ele>
        <time>2021-07-05 16:46:59</time>
      </trkpt>
      <trkpt lat="28.11215" lon="-14.26431">
        <ele>16.8</ele>
        <time>2021-07-05 16:47:00</time>
      </trkpt>
      <trkpt lat="28.11216" lon="-14.26433">
        <ele>16.8</ele>
        <time>2021-07-05 16:47:01</time>
      </trkpt>
      <trkpt lat="28.11218" lon="-14.26436">
        <ele>16.8</ele>
        <time>2021-07-05 16:47:02</time>
      </trkpt>
      <trkpt lat="28.11219" lon="-14.26439">
        <ele>16.8</ele>
        <time>2021-07-05 16:47:03</time>
      </trkpt>
      <trkpt lat="28.1122" lon="-14.26442">
        <ele>16.8</ele>
        <time>2021-07-05 16:47:04</time>
      </trkpt>
      <trkpt lat="28.11221" lon="-14.26444">
        <ele>17</ele>
        <time>2021-07-05 16:47:05</time>
      </trkpt>
      <trkpt lat="28.11223" lon="-14.26447">
        <ele>17</ele>
        <time>2021-07-05 16:47:06</time>
      </trkpt>
      <trkpt lat="28.11224" lon="-14.2645">
        <ele>17.2</ele>
        <time>2021-07-05 16:47:07</time>
      </trkpt>
      <trkpt lat="28.11225" lon="-14.26452">
        <ele>17.2</ele>
        <time>2021-07-05 16:47:08</time>
      </trkpt>
      <trkpt lat="28.11227" lon="-14.26455">
        <ele>17.2</ele>
        <time>2021-07-05 16:47:09</time>
      </trkpt>
      <trkpt lat="28.11229" lon="-14.26457">
        <ele>17.2</ele>
        <time>2021-07-05 16:47:10</time>
      </trkpt>
      <trkpt lat="28.11231" lon="-14.26459">
        <ele>17.2</ele>
        <time>2021-07-05 16:47:11</time>
      </trkpt>
      <trkpt lat="28.11233" lon="-14.26461">
        <ele>17.2</ele>
        <time>2021-07-05 16:47:12</time>
      </trkpt>
      <trkpt lat="28.11235" lon="-14.26463">
        <ele>17.4</ele>
        <time>2021-07-05 16:47:13</time>
      </trkpt>
      <trkpt lat="28.11236" lon="-14.26465">
        <ele>17.4</ele>
        <time>2021-07-05 16:47:14</time>
      </trkpt>
      <trkpt lat="28.11238" lon="-14.26466">
        <ele>17.4</ele>
        <time>2021-07-05 16:47:15</time>
      </trkpt>
      <trkpt lat="28.1124" lon="-14.26468">
        <ele>17.4</ele>
        <time>2021-07-05 16:47:16</time>
      </trkpt>
      <trkpt lat="28.11242" lon="-14.26469">
        <ele>17.4</ele>
        <time>2021-07-05 16:47:17</time>
      </trkpt>
      <trkpt lat="28.11243" lon="-14.26471">
        <ele>17.4</ele>
        <time>2021-07-05 16:47:18</time>
      </trkpt>
      <trkpt lat="28.11245" lon="-14.26472">
        <ele>17.4</ele>
        <time>2021-07-05 16:47:19</time>
      </trkpt>
      <trkpt lat="28.11247" lon="-14.26473">
        <ele>17.4</ele>
        <time>2021-07-05 16:47:20</time>
      </trkpt>
      <trkpt lat="28.11249" lon="-14.26473">
        <ele>17.6</ele>
        <time>2021-07-05 16:47:21</time>
      </trkpt>
      <trkpt lat="28.1125" lon="-14.26474">
        <ele>17.6</ele>
        <time>2021-07-05 16:47:22</time>
      </trkpt>
      <trkpt lat="28.11252" lon="-14.26476">
        <ele>17.6</ele>
        <time>2021-07-05 16:47:23</time>
      </trkpt>
      <trkpt lat="28.11253" lon="-14.26478">
        <ele>17.6</ele>
        <time>2021-07-05 16:47:24</time>
      </trkpt>
      <trkpt lat="28.11254" lon="-14.26479">
        <ele>17.6</ele>
        <time>2021-07-05 16:47:25</time>
      </trkpt>
      <trkpt lat="28.11255" lon="-14.26481">
        <ele>17.6</ele>
        <time>2021-07-05 16:47:26</time>
      </trkpt>
      <trkpt lat="28.11257" lon="-14.26483">
        <ele>17.6</ele>
        <time>2021-07-05 16:47:27</time>
      </trkpt>
      <trkpt lat="28.11259" lon="-14.26485">
        <ele>17.6</ele>
        <time>2021-07-05 16:47:28</time>
      </trkpt>
      <trkpt lat="28.1126" lon="-14.26487">
        <ele>17.8</ele>
        <time>2021-07-05 16:47:29</time>
      </trkpt>
      <trkpt lat="28.11262" lon="-14.2649">
        <ele>17.8</ele>
        <time>2021-07-05 16:47:30</time>
      </trkpt>
      <trkpt lat="28.11264" lon="-14.26492">
        <ele>18</ele>
        <time>2021-07-05 16:47:31</time>
      </trkpt>
      <trkpt lat="28.11265" lon="-14.26493">
        <ele>18</ele>
        <time>2021-07-05 16:47:32</time>
      </trkpt>
      <trkpt lat="28.11267" lon="-14.26495">
        <ele>18.6</ele>
        <time>2021-07-05 16:47:33</time>
      </trkpt>
      <trkpt lat="28.11268" lon="-14.26497">
        <ele>18.6</ele>
        <time>2021-07-05 16:47:34</time>
      </trkpt>
      <trkpt lat="28.1127" lon="-14.265">
        <ele>18.6</ele>
        <time>2021-07-05 16:47:35</time>
      </trkpt>
      <trkpt lat="28.11271" lon="-14.26502">
        <ele>18.6</ele>
        <time>2021-07-05 16:47:36</time>
      </trkpt>
      <trkpt lat="28.11272" lon="-14.26504">
        <ele>18.4</ele>
        <time>2021-07-05 16:47:37</time>
      </trkpt>
      <trkpt lat="28.11274" lon="-14.26506">
        <ele>18.4</ele>
        <time>2021-07-05 16:47:38</time>
      </trkpt>
      <trkpt lat="28.11275" lon="-14.26508">
        <ele>18.4</ele>
        <time>2021-07-05 16:47:39</time>
      </trkpt>
      <trkpt lat="28.11277" lon="-14.26509">
        <ele>18.2</ele>
        <time>2021-07-05 16:47:40</time>
      </trkpt>
      <trkpt lat="28.11278" lon="-14.26511">
        <ele>18</ele>
        <time>2021-07-05 16:47:41</time>
      </trkpt>
      <trkpt lat="28.1128" lon="-14.26513">
        <ele>18</ele>
        <time>2021-07-05 16:47:42</time>
      </trkpt>
      <trkpt lat="28.11282" lon="-14.26515">
        <ele>18</ele>
        <time>2021-07-05 16:47:43</time>
      </trkpt>
      <trkpt lat="28.11283" lon="-14.26516">
        <ele>18</ele>
        <time>2021-07-05 16:47:44</time>
      </trkpt>
      <trkpt lat="28.11285" lon="-14.26518">
        <ele>18.2</ele>
        <time>2021-07-05 16:47:45</time>
      </trkpt>
      <trkpt lat="28.11286" lon="-14.26519">
        <ele>18.2</ele>
        <time>2021-07-05 16:47:46</time>
      </trkpt>
      <trkpt lat="28.11288" lon="-14.2652">
        <ele>18.4</ele>
        <time>2021-07-05 16:47:47</time>
      </trkpt>
      <trkpt lat="28.1129" lon="-14.26522">
        <ele>18.4</ele>
        <time>2021-07-05 16:47:48</time>
      </trkpt>
      <trkpt lat="28.11292" lon="-14.26523">
        <ele>18.4</ele>
        <time>2021-07-05 16:47:49</time>
      </trkpt>
      <trkpt lat="28.11294" lon="-14.26524">
        <ele>18.6</ele>
        <time>2021-07-05 16:47:50</time>
      </trkpt>
      <trkpt lat="28.11296" lon="-14.26525">
        <ele>18.8</ele>
        <time>2021-07-05 16:47:51</time>
      </trkpt>
      <trkpt lat="28.11298" lon="-14.26526">
        <ele>19</ele>
        <time>2021-07-05 16:47:52</time>
      </trkpt>
      <trkpt lat="28.113" lon="-14.26526">
        <ele>19.2</ele>
        <time>2021-07-05 16:47:53</time>
      </trkpt>
      <trkpt lat="28.11303" lon="-14.26526">
        <ele>19.6</ele>
        <time>2021-07-05 16:47:54</time>
      </trkpt>
      <trkpt lat="28.11305" lon="-14.26527">
        <ele>19.6</ele>
        <time>2021-07-05 16:47:55</time>
      </trkpt>
      <trkpt lat="28.11307" lon="-14.26528">
        <ele>19.6</ele>
        <time>2021-07-05 16:47:56</time>
      </trkpt>
      <trkpt lat="28.11309" lon="-14.26528">
        <ele>20</ele>
        <time>2021-07-05 16:47:57</time>
      </trkpt>
      <trkpt lat="28.11311" lon="-14.26529">
        <ele>20</ele>
        <time>2021-07-05 16:47:58</time>
      </trkpt>
      <trkpt lat="28.11313" lon="-14.26529">
        <ele>20.4</ele>
        <time>2021-07-05 16:47:59</time>
      </trkpt>
      <trkpt lat="28.11315" lon="-14.2653">
        <ele>20.4</ele>
        <time>2021-07-05 16:48:00</time>
      </trkpt>
      <trkpt lat="28.11317" lon="-14.26531">
        <ele>20.4</ele>
        <time>2021-07-05 16:48:01</time>
      </trkpt>
      <trkpt lat="28.1132" lon="-14.26532">
        <ele>20.6</ele>
        <time>2021-07-05 16:48:02</time>
      </trkpt>
      <trkpt lat="28.11321" lon="-14.26534">
        <ele>20.6</ele>
        <time>2021-07-05 16:48:03</time>
      </trkpt>
      <trkpt lat="28.11323" lon="-14.26535">
        <ele>20.6</ele>
        <time>2021-07-05 16:48:04</time>
      </trkpt>
      <trkpt lat="28.11325" lon="-14.26537">
        <ele>20.6</ele>
        <time>2021-07-05 16:48:05</time>
      </trkpt>
      <trkpt lat="28.11325" lon="-14.2654">
        <ele>20.6</ele>
        <time>2021-07-05 16:48:06</time>
      </trkpt>
      <trkpt lat="28.11326" lon="-14.26542">
        <ele>20.6</ele>
        <time>2021-07-05 16:48:07</time>
      </trkpt>
      <trkpt lat="28.11327" lon="-14.26545">
        <ele>20.6</ele>
        <time>2021-07-05 16:48:08</time>
      </trkpt>
      <trkpt lat="28.11328" lon="-14.26547">
        <ele>20.6</ele>
        <time>2021-07-05 16:48:09</time>
      </trkpt>
      <trkpt lat="28.11329" lon="-14.26549">
        <ele>20.6</ele>
        <time>2021-07-05 16:48:10</time>
      </trkpt>
      <trkpt lat="28.1133" lon="-14.26551">
        <ele>20.4</ele>
        <time>2021-07-05 16:48:11</time>
      </trkpt>
      <trkpt lat="28.11331" lon="-14.26554">
        <ele>20.4</ele>
        <time>2021-07-05 16:48:12</time>
      </trkpt>
      <trkpt lat="28.11332" lon="-14.26556">
        <ele>20.4</ele>
        <time>2021-07-05 16:48:13</time>
      </trkpt>
      <trkpt lat="28.11333" lon="-14.26558">
        <ele>20.4</ele>
        <time>2021-07-05 16:48:14</time>
      </trkpt>
      <trkpt lat="28.11334" lon="-14.2656">
        <ele>20.4</ele>
        <time>2021-07-05 16:48:15</time>
      </trkpt>
      <trkpt lat="28.11336" lon="-14.26562">
        <ele>20.4</ele>
        <time>2021-07-05 16:48:16</time>
      </trkpt>
      <trkpt lat="28.11337" lon="-14.26564">
        <ele>20.4</ele>
        <time>2021-07-05 16:48:17</time>
      </trkpt>
      <trkpt lat="28.11339" lon="-14.26566">
        <ele>20.4</ele>
        <time>2021-07-05 16:48:18</time>
      </trkpt>
      <trkpt lat="28.1134" lon="-14.26568">
        <ele>20.4</ele>
        <time>2021-07-05 16:48:19</time>
      </trkpt>
      <trkpt lat="28.11341" lon="-14.2657">
        <ele>20.4</ele>
        <time>2021-07-05 16:48:20</time>
      </trkpt>
      <trkpt lat="28.11342" lon="-14.26573">
        <ele>20.4</ele>
        <time>2021-07-05 16:48:21</time>
      </trkpt>
      <trkpt lat="28.11343" lon="-14.26575">
        <ele>20.6</ele>
        <time>2021-07-05 16:48:22</time>
      </trkpt>
      <trkpt lat="28.11344" lon="-14.26577">
        <ele>20.6</ele>
        <time>2021-07-05 16:48:23</time>
      </trkpt>
      <trkpt lat="28.11345" lon="-14.26579">
        <ele>20.6</ele>
        <time>2021-07-05 16:48:24</time>
      </trkpt>
      <trkpt lat="28.11346" lon="-14.26581">
        <ele>20.4</ele>
        <time>2021-07-05 16:48:25</time>
      </trkpt>
      <trkpt lat="28.11347" lon="-14.26583">
        <ele>20.4</ele>
        <time>2021-07-05 16:48:26</time>
      </trkpt>
      <trkpt lat="28.11349" lon="-14.26586">
        <ele>20.4</ele>
        <time>2021-07-05 16:48:27</time>
      </trkpt>
      <trkpt lat="28.1135" lon="-14.26588">
        <ele>20.4</ele>
        <time>2021-07-05 16:48:28</time>
      </trkpt>
      <trkpt lat="28.11351" lon="-14.2659">
        <ele>20.4</ele>
        <time>2021-07-05 16:48:29</time>
      </trkpt>
      <trkpt lat="28.11352" lon="-14.26592">
        <ele>20.4</ele>
        <time>2021-07-05 16:48:30</time>
      </trkpt>
      <trkpt lat="28.11353" lon="-14.26594">
        <ele>20.6</ele>
        <time>2021-07-05 16:48:31</time>
      </trkpt>
      <trkpt lat="28.11355" lon="-14.26596">
        <ele>20.8</ele>
        <time>2021-07-05 16:48:32</time>
      </trkpt>
      <trkpt lat="28.11356" lon="-14.26599">
        <ele>21</ele>
        <time>2021-07-05 16:48:33</time>
      </trkpt>
      <trkpt lat="28.11357" lon="-14.26601">
        <ele>21</ele>
        <time>2021-07-05 16:48:34</time>
      </trkpt>
      <trkpt lat="28.11358" lon="-14.26603">
        <ele>21</ele>
        <time>2021-07-05 16:48:35</time>
      </trkpt>
      <trkpt lat="28.11359" lon="-14.26605">
        <ele>21.4</ele>
        <time>2021-07-05 16:48:36</time>
      </trkpt>
      <trkpt lat="28.11361" lon="-14.26607">
        <ele>21.4</ele>
        <time>2021-07-05 16:48:37</time>
      </trkpt>
      <trkpt lat="28.11362" lon="-14.26608">
        <ele>21.4</ele>
        <time>2021-07-05 16:48:38</time>
      </trkpt>
      <trkpt lat="28.11363" lon="-14.2661">
        <ele>21.4</ele>
        <time>2021-07-05 16:48:39</time>
      </trkpt>
      <trkpt lat="28.11365" lon="-14.26612">
        <ele>21.8</ele>
        <time>2021-07-05 16:48:40</time>
      </trkpt>
      <trkpt lat="28.11366" lon="-14.26614">
        <ele>22</ele>
        <time>2021-07-05 16:48:41</time>
      </trkpt>
      <trkpt lat="28.11367" lon="-14.26616">
        <ele>22</ele>
        <time>2021-07-05 16:48:42</time>
      </trkpt>
      <trkpt lat="28.11368" lon="-14.26618">
        <ele>22.2</ele>
        <time>2021-07-05 16:48:43</time>
      </trkpt>
      <trkpt lat="28.11369" lon="-14.2662">
        <ele>22.2</ele>
        <time>2021-07-05 16:48:44</time>
      </trkpt>
      <trkpt lat="28.1137" lon="-14.26622">
        <ele>22.2</ele>
        <time>2021-07-05 16:48:45</time>
      </trkpt>
      <trkpt lat="28.11371" lon="-14.26623">
        <ele>22.2</ele>
        <time>2021-07-05 16:48:46</time>
      </trkpt>
      <trkpt lat="28.11373" lon="-14.26625">
        <ele>22.4</ele>
        <time>2021-07-05 16:48:47</time>
      </trkpt>
      <trkpt lat="28.11374" lon="-14.26627">
        <ele>22.4</ele>
        <time>2021-07-05 16:48:48</time>
      </trkpt>
      <trkpt lat="28.11375" lon="-14.26629">
        <ele>22.4</ele>
        <time>2021-07-05 16:48:49</time>
      </trkpt>
      <trkpt lat="28.11376" lon="-14.26631">
        <ele>22.4</ele>
        <time>2021-07-05 16:48:50</time>
      </trkpt>
      <trkpt lat="28.11378" lon="-14.26633">
        <ele>22.8</ele>
        <time>2021-07-05 16:48:51</time>
      </trkpt>
      <trkpt lat="28.11379" lon="-14.26635">
        <ele>22.8</ele>
        <time>2021-07-05 16:48:52</time>
      </trkpt>
      <trkpt lat="28.1138" lon="-14.26637">
        <ele>22.8</ele>
        <time>2021-07-05 16:48:53</time>
      </trkpt>
      <trkpt lat="28.11381" lon="-14.26639">
        <ele>22.8</ele>
        <time>2021-07-05 16:48:54</time>
      </trkpt>
      <trkpt lat="28.11382" lon="-14.26641">
        <ele>22.8</ele>
        <time>2021-07-05 16:48:55</time>
      </trkpt>
      <trkpt lat="28.11383" lon="-14.26643">
        <ele>22.8</ele>
        <time>2021-07-05 16:48:56</time>
      </trkpt>
      <trkpt lat="28.11384" lon="-14.26645">
        <ele>22.8</ele>
        <time>2021-07-05 16:48:57</time>
      </trkpt>
      <trkpt lat="28.11385" lon="-14.26647">
        <ele>22.8</ele>
        <time>2021-07-05 16:48:58</time>
      </trkpt>
      <trkpt lat="28.11386" lon="-14.26649">
        <ele>22.8</ele>
        <time>2021-07-05 16:48:59</time>
      </trkpt>
      <trkpt lat="28.11388" lon="-14.2665">
        <ele>23</ele>
        <time>2021-07-05 16:49:00</time>
      </trkpt>
      <trkpt lat="28.11389" lon="-14.26652">
        <ele>23</ele>
        <time>2021-07-05 16:49:01</time>
      </trkpt>
      <trkpt lat="28.11391" lon="-14.26654">
        <ele>23.2</ele>
        <time>2021-07-05 16:49:02</time>
      </trkpt>
      <trkpt lat="28.11392" lon="-14.26656">
        <ele>23.2</ele>
        <time>2021-07-05 16:49:03</time>
      </trkpt>
      <trkpt lat="28.11394" lon="-14.26658">
        <ele>23.2</ele>
        <time>2021-07-05 16:49:04</time>
      </trkpt>
      <trkpt lat="28.11395" lon="-14.2666">
        <ele>23.2</ele>
        <time>2021-07-05 16:49:05</time>
      </trkpt>
      <trkpt lat="28.11397" lon="-14.26662">
        <ele>23.4</ele>
        <time>2021-07-05 16:49:06</time>
      </trkpt>
      <trkpt lat="28.11398" lon="-14.26664">
        <ele>23.4</ele>
        <time>2021-07-05 16:49:07</time>
      </trkpt>
      <trkpt lat="28.114" lon="-14.26666">
        <ele>23.4</ele>
        <time>2021-07-05 16:49:08</time>
      </trkpt>
      <trkpt lat="28.11401" lon="-14.26667">
        <ele>23.8</ele>
        <time>2021-07-05 16:49:09</time>
      </trkpt>
      <trkpt lat="28.11403" lon="-14.26669">
        <ele>24</ele>
        <time>2021-07-05 16:49:10</time>
      </trkpt>
      <trkpt lat="28.11404" lon="-14.26671">
        <ele>24</ele>
        <time>2021-07-05 16:49:11</time>
      </trkpt>
      <trkpt lat="28.11406" lon="-14.26672">
        <ele>24</ele>
        <time>2021-07-05 16:49:12</time>
      </trkpt>
      <trkpt lat="28.11407" lon="-14.26674">
        <ele>24</ele>
        <time>2021-07-05 16:49:13</time>
      </trkpt>
      <trkpt lat="28.11408" lon="-14.26676">
        <ele>24.2</ele>
        <time>2021-07-05 16:49:14</time>
      </trkpt>
      <trkpt lat="28.1141" lon="-14.26678">
        <ele>24.2</ele>
        <time>2021-07-05 16:49:15</time>
      </trkpt>
      <trkpt lat="28.11411" lon="-14.26679">
        <ele>24.4</ele>
        <time>2021-07-05 16:49:16</time>
      </trkpt>
      <trkpt lat="28.11413" lon="-14.26681">
        <ele>24.4</ele>
        <time>2021-07-05 16:49:17</time>
      </trkpt>
      <trkpt lat="28.11414" lon="-14.26683">
        <ele>24.8</ele>
        <time>2021-07-05 16:49:18</time>
      </trkpt>
      <trkpt lat="28.11416" lon="-14.26685">
        <ele>24.8</ele>
        <time>2021-07-05 16:49:19</time>
      </trkpt>
      <trkpt lat="28.11417" lon="-14.26687">
        <ele>25</ele>
        <time>2021-07-05 16:49:20</time>
      </trkpt>
      <trkpt lat="28.11419" lon="-14.26689">
        <ele>25</ele>
        <time>2021-07-05 16:49:21</time>
      </trkpt>
      <trkpt lat="28.1142" lon="-14.26691">
        <ele>25</ele>
        <time>2021-07-05 16:49:22</time>
      </trkpt>
      <trkpt lat="28.11422" lon="-14.26693">
        <ele>25.2</ele>
        <time>2021-07-05 16:49:23</time>
      </trkpt>
      <trkpt lat="28.11424" lon="-14.26695">
        <ele>25.2</ele>
        <time>2021-07-05 16:49:24</time>
      </trkpt>
      <trkpt lat="28.11425" lon="-14.26697">
        <ele>25.2</ele>
        <time>2021-07-05 16:49:25</time>
      </trkpt>
      <trkpt lat="28.11426" lon="-14.26699">
        <ele>25.2</ele>
        <time>2021-07-05 16:49:26</time>
      </trkpt>
      <trkpt lat="28.11428" lon="-14.267">
        <ele>25.2</ele>
        <time>2021-07-05 16:49:27</time>
      </trkpt>
      <trkpt lat="28.11429" lon="-14.26702">
        <ele>25.2</ele>
        <time>2021-07-05 16:49:28</time>
      </trkpt>
      <trkpt lat="28.11431" lon="-14.26704">
        <ele>25.2</ele>
        <time>2021-07-05 16:49:29</time>
      </trkpt>
      <trkpt lat="28.11432" lon="-14.26706">
        <ele>25</ele>
        <time>2021-07-05 16:49:30</time>
      </trkpt>
      <trkpt lat="28.11434" lon="-14.26708">
        <ele>25</ele>
        <time>2021-07-05 16:49:31</time>
      </trkpt>
      <trkpt lat="28.11435" lon="-14.2671">
        <ele>25</ele>
        <time>2021-07-05 16:49:32</time>
      </trkpt>
      <trkpt lat="28.11437" lon="-14.26712">
        <ele>25</ele>
        <time>2021-07-05 16:49:33</time>
      </trkpt>
      <trkpt lat="28.11438" lon="-14.26714">
        <ele>25</ele>
        <time>2021-07-05 16:49:34</time>
      </trkpt>
      <trkpt lat="28.11439" lon="-14.26717">
        <ele>25</ele>
        <time>2021-07-05 16:49:35</time>
      </trkpt>
      <trkpt lat="28.11441" lon="-14.26719">
        <ele>25.2</ele>
        <time>2021-07-05 16:49:36</time>
      </trkpt>
      <trkpt lat="28.11442" lon="-14.26721">
        <ele>25.4</ele>
        <time>2021-07-05 16:49:37</time>
      </trkpt>
      <trkpt lat="28.11444" lon="-14.26723">
        <ele>25.6</ele>
        <time>2021-07-05 16:49:38</time>
      </trkpt>
      <trkpt lat="28.11446" lon="-14.26726">
        <ele>25.6</ele>
        <time>2021-07-05 16:49:39</time>
      </trkpt>
      <trkpt lat="28.11448" lon="-14.26728">
        <ele>25.6</ele>
        <time>2021-07-05 16:49:40</time>
      </trkpt>
      <trkpt lat="28.11449" lon="-14.2673">
        <ele>25.6</ele>
        <time>2021-07-05 16:49:41</time>
      </trkpt>
      <trkpt lat="28.11451" lon="-14.26732">
        <ele>25.6</ele>
        <time>2021-07-05 16:49:42</time>
      </trkpt>
      <trkpt lat="28.11453" lon="-14.26733">
        <ele>26</ele>
        <time>2021-07-05 16:49:43</time>
      </trkpt>
      <trkpt lat="28.11455" lon="-14.26735">
        <ele>26</ele>
        <time>2021-07-05 16:49:44</time>
      </trkpt>
      <trkpt lat="28.11457" lon="-14.26737">
        <ele>26</ele>
        <time>2021-07-05 16:49:45</time>
      </trkpt>
      <trkpt lat="28.11459" lon="-14.26739">
        <ele>26</ele>
        <time>2021-07-05 16:49:46</time>
      </trkpt>
      <trkpt lat="28.11461" lon="-14.26741">
        <ele>26.2</ele>
        <time>2021-07-05 16:49:47</time>
      </trkpt>
      <trkpt lat="28.11462" lon="-14.26742">
        <ele>26.2</ele>
        <time>2021-07-05 16:49:48</time>
      </trkpt>
      <trkpt lat="28.11464" lon="-14.26744">
        <ele>26.2</ele>
        <time>2021-07-05 16:49:49</time>
      </trkpt>
      <trkpt lat="28.11466" lon="-14.26746">
        <ele>26.6</ele>
        <time>2021-07-05 16:49:50</time>
      </trkpt>
      <trkpt lat="28.11468" lon="-14.26748">
        <ele>26.6</ele>
        <time>2021-07-05 16:49:51</time>
      </trkpt>
      <trkpt lat="28.1147" lon="-14.2675">
        <ele>26.2</ele>
        <time>2021-07-05 16:49:52</time>
      </trkpt>
      <trkpt lat="28.11472" lon="-14.26752">
        <ele>26.2</ele>
        <time>2021-07-05 16:49:53</time>
      </trkpt>
      <trkpt lat="28.11474" lon="-14.26754">
        <ele>26.4</ele>
        <time>2021-07-05 16:49:54</time>
      </trkpt>
      <trkpt lat="28.11476" lon="-14.26756">
        <ele>25.6</ele>
        <time>2021-07-05 16:49:55</time>
      </trkpt>
      <trkpt lat="28.11478" lon="-14.26758">
        <ele>26.4</ele>
        <time>2021-07-05 16:49:56</time>
      </trkpt>
      <trkpt lat="28.1148" lon="-14.2676">
        <ele>26.4</ele>
        <time>2021-07-05 16:49:57</time>
      </trkpt>
      <trkpt lat="28.11482" lon="-14.26762">
        <ele>26.6</ele>
        <time>2021-07-05 16:49:58</time>
      </trkpt>
      <trkpt lat="28.11484" lon="-14.26764">
        <ele>26.6</ele>
        <time>2021-07-05 16:49:59</time>
      </trkpt>
      <trkpt lat="28.11486" lon="-14.26765">
        <ele>26.8</ele>
        <time>2021-07-05 16:50:00</time>
      </trkpt>
      <trkpt lat="28.11487" lon="-14.26767">
        <ele>26.8</ele>
        <time>2021-07-05 16:50:01</time>
      </trkpt>
      <trkpt lat="28.11489" lon="-14.26769">
        <ele>26.8</ele>
        <time>2021-07-05 16:50:02</time>
      </trkpt>
      <trkpt lat="28.1149" lon="-14.26771">
        <ele>26.8</ele>
        <time>2021-07-05 16:50:03</time>
      </trkpt>
      <trkpt lat="28.11491" lon="-14.26772">
        <ele>26.8</ele>
        <time>2021-07-05 16:50:04</time>
      </trkpt>
      <trkpt lat="28.11491" lon="-14.26772">
        <ele>26.8</ele>
        <time>2021-07-05 16:50:05</time>
      </trkpt>
      <trkpt lat="28.11491" lon="-14.26773">
        <ele>26.8</ele>
        <time>2021-07-05 16:50:06</time>
      </trkpt>
      <trkpt lat="28.11492" lon="-14.26774">
        <ele>26.8</ele>
        <time>2021-07-05 16:50:07</time>
      </trkpt>
      <trkpt lat="28.11493" lon="-14.26775">
        <ele>26.8</ele>
        <time>2021-07-05 16:50:08</time>
      </trkpt>
      <trkpt lat="28.11493" lon="-14.26777">
        <ele>27</ele>
        <time>2021-07-05 16:50:09</time>
      </trkpt>
      <trkpt lat="28.11494" lon="-14.26778">
        <ele>27</ele>
        <time>2021-07-05 16:50:10</time>
      </trkpt>
      <trkpt lat="28.11496" lon="-14.2678">
        <ele>27</ele>
        <time>2021-07-05 16:50:11</time>
      </trkpt>
      <trkpt lat="28.11497" lon="-14.26782">
        <ele>27</ele>
        <time>2021-07-05 16:50:12</time>
      </trkpt>
      <trkpt lat="28.11498" lon="-14.26783">
        <ele>27</ele>
        <time>2021-07-05 16:50:13</time>
      </trkpt>
      <trkpt lat="28.11499" lon="-14.26785">
        <ele>27</ele>
        <time>2021-07-05 16:50:14</time>
      </trkpt>
      <trkpt lat="28.11501" lon="-14.26786">
        <ele>27</ele>
        <time>2021-07-05 16:50:15</time>
      </trkpt>
      <trkpt lat="28.11502" lon="-14.26788">
        <ele>27</ele>
        <time>2021-07-05 16:50:16</time>
      </trkpt>
      <trkpt lat="28.11503" lon="-14.2679">
        <ele>27</ele>
        <time>2021-07-05 16:50:17</time>
      </trkpt>
      <trkpt lat="28.11505" lon="-14.26792">
        <ele>27.4</ele>
        <time>2021-07-05 16:50:18</time>
      </trkpt>
      <trkpt lat="28.11507" lon="-14.26794">
        <ele>27.4</ele>
        <time>2021-07-05 16:50:19</time>
      </trkpt>
      <trkpt lat="28.11508" lon="-14.26796">
        <ele>27.4</ele>
        <time>2021-07-05 16:50:20</time>
      </trkpt>
      <trkpt lat="28.1151" lon="-14.26798">
        <ele>27.4</ele>
        <time>2021-07-05 16:50:21</time>
      </trkpt>
      <trkpt lat="28.11511" lon="-14.26801">
        <ele>27.4</ele>
        <time>2021-07-05 16:50:22</time>
      </trkpt>
      <trkpt lat="28.11512" lon="-14.26803">
        <ele>27.4</ele>
        <time>2021-07-05 16:50:23</time>
      </trkpt>
      <trkpt lat="28.11514" lon="-14.26805">
        <ele>27.4</ele>
        <time>2021-07-05 16:50:24</time>
      </trkpt>
      <trkpt lat="28.11515" lon="-14.26807">
        <ele>27</ele>
        <time>2021-07-05 16:50:25</time>
      </trkpt>
      <trkpt lat="28.11517" lon="-14.26809">
        <ele>27</ele>
        <time>2021-07-05 16:50:26</time>
      </trkpt>
      <trkpt lat="28.11519" lon="-14.26811">
        <ele>27</ele>
        <time>2021-07-05 16:50:27</time>
      </trkpt>
      <trkpt lat="28.11521" lon="-14.26812">
        <ele>27</ele>
        <time>2021-07-05 16:50:28</time>
      </trkpt>
      <trkpt lat="28.11522" lon="-14.26814">
        <ele>27</ele>
        <time>2021-07-05 16:50:29</time>
      </trkpt>
      <trkpt lat="28.11524" lon="-14.26816">
        <ele>27</ele>
        <time>2021-07-05 16:50:30</time>
      </trkpt>
      <trkpt lat="28.11525" lon="-14.26817">
        <ele>27.2</ele>
        <time>2021-07-05 16:50:31</time>
      </trkpt>
      <trkpt lat="28.11527" lon="-14.26819">
        <ele>27.6</ele>
        <time>2021-07-05 16:50:32</time>
      </trkpt>
      <trkpt lat="28.11529" lon="-14.2682">
        <ele>27.8</ele>
        <time>2021-07-05 16:50:33</time>
      </trkpt>
      <trkpt lat="28.11531" lon="-14.26821">
        <ele>28</ele>
        <time>2021-07-05 16:50:34</time>
      </trkpt>
      <trkpt lat="28.11532" lon="-14.26822">
        <ele>28.2</ele>
        <time>2021-07-05 16:50:35</time>
      </trkpt>
      <trkpt lat="28.11534" lon="-14.26823">
        <ele>28.6</ele>
        <time>2021-07-05 16:50:36</time>
      </trkpt>
      <trkpt lat="28.11536" lon="-14.26824">
        <ele>28.8</ele>
        <time>2021-07-05 16:50:37</time>
      </trkpt>
      <trkpt lat="28.11538" lon="-14.26824">
        <ele>29.2</ele>
        <time>2021-07-05 16:50:38</time>
      </trkpt>
      <trkpt lat="28.11541" lon="-14.26825">
        <ele>29.4</ele>
        <time>2021-07-05 16:50:39</time>
      </trkpt>
      <trkpt lat="28.11543" lon="-14.26825">
        <ele>29.8</ele>
        <time>2021-07-05 16:50:40</time>
      </trkpt>
      <trkpt lat="28.11545" lon="-14.26825">
        <ele>30</ele>
        <time>2021-07-05 16:50:41</time>
      </trkpt>
      <trkpt lat="28.11547" lon="-14.26825">
        <ele>30.2</ele>
        <time>2021-07-05 16:50:42</time>
      </trkpt>
      <trkpt lat="28.11549" lon="-14.26824">
        <ele>30.4</ele>
        <time>2021-07-05 16:50:43</time>
      </trkpt>
      <trkpt lat="28.11551" lon="-14.26824">
        <ele>30.4</ele>
        <time>2021-07-05 16:50:44</time>
      </trkpt>
      <trkpt lat="28.11552" lon="-14.26824">
        <ele>30.8</ele>
        <time>2021-07-05 16:50:45</time>
      </trkpt>
      <trkpt lat="28.11554" lon="-14.26824">
        <ele>30.8</ele>
        <time>2021-07-05 16:50:46</time>
      </trkpt>
      <trkpt lat="28.11556" lon="-14.26823">
        <ele>30.8</ele>
        <time>2021-07-05 16:50:47</time>
      </trkpt>
      <trkpt lat="28.11557" lon="-14.26822">
        <ele>31</ele>
        <time>2021-07-05 16:50:48</time>
      </trkpt>
      <trkpt lat="28.11559" lon="-14.26821">
        <ele>31.4</ele>
        <time>2021-07-05 16:50:49</time>
      </trkpt>
      <trkpt lat="28.1156" lon="-14.26821">
        <ele>31.4</ele>
        <time>2021-07-05 16:50:50</time>
      </trkpt>
      <trkpt lat="28.11562" lon="-14.2682">
        <ele>31.4</ele>
        <time>2021-07-05 16:50:51</time>
      </trkpt>
      <trkpt lat="28.11564" lon="-14.2682">
        <ele>31.6</ele>
        <time>2021-07-05 16:50:52</time>
      </trkpt>
      <trkpt lat="28.11565" lon="-14.2682">
        <ele>31.6</ele>
        <time>2021-07-05 16:50:53</time>
      </trkpt>
      <trkpt lat="28.11567" lon="-14.2682">
        <ele>32</ele>
        <time>2021-07-05 16:50:54</time>
      </trkpt>
      <trkpt lat="28.11568" lon="-14.2682">
        <ele>32</ele>
        <time>2021-07-05 16:50:55</time>
      </trkpt>
      <trkpt lat="28.1157" lon="-14.2682">
        <ele>32.4</ele>
        <time>2021-07-05 16:50:56</time>
      </trkpt>
      <trkpt lat="28.11572" lon="-14.26821">
        <ele>32.6</ele>
        <time>2021-07-05 16:50:57</time>
      </trkpt>
      <trkpt lat="28.11574" lon="-14.26821">
        <ele>32.6</ele>
        <time>2021-07-05 16:50:58</time>
      </trkpt>
      <trkpt lat="28.11575" lon="-14.26822">
        <ele>33</ele>
        <time>2021-07-05 16:50:59</time>
      </trkpt>
      <trkpt lat="28.11577" lon="-14.26823">
        <ele>33.2</ele>
        <time>2021-07-05 16:51:00</time>
      </trkpt>
      <trkpt lat="28.11579" lon="-14.26823">
        <ele>33.6</ele>
        <time>2021-07-05 16:51:01</time>
      </trkpt>
      <trkpt lat="28.1158" lon="-14.26824">
        <ele>34.4</ele>
        <time>2021-07-05 16:51:02</time>
      </trkpt>
      <trkpt lat="28.11582" lon="-14.26824">
        <ele>34.4</ele>
        <time>2021-07-05 16:51:03</time>
      </trkpt>
      <trkpt lat="28.11584" lon="-14.26825">
        <ele>34.6</ele>
        <time>2021-07-05 16:51:04</time>
      </trkpt>
      <trkpt lat="28.11586" lon="-14.26826">
        <ele>34.6</ele>
        <time>2021-07-05 16:51:05</time>
      </trkpt>
      <trkpt lat="28.11587" lon="-14.26827">
        <ele>34.8</ele>
        <time>2021-07-05 16:51:06</time>
      </trkpt>
      <trkpt lat="28.11589" lon="-14.26827">
        <ele>34.8</ele>
        <time>2021-07-05 16:51:07</time>
      </trkpt>
      <trkpt lat="28.11591" lon="-14.26828">
        <ele>35.2</ele>
        <time>2021-07-05 16:51:08</time>
      </trkpt>
      <trkpt lat="28.11593" lon="-14.26829">
        <ele>35.2</ele>
        <time>2021-07-05 16:51:09</time>
      </trkpt>
      <trkpt lat="28.11594" lon="-14.26831">
        <ele>35.6</ele>
        <time>2021-07-05 16:51:10</time>
      </trkpt>
      <trkpt lat="28.11596" lon="-14.26832">
        <ele>35.6</ele>
        <time>2021-07-05 16:51:11</time>
      </trkpt>
      <trkpt lat="28.11597" lon="-14.26833">
        <ele>35.6</ele>
        <time>2021-07-05 16:51:12</time>
      </trkpt>
      <trkpt lat="28.11599" lon="-14.26834">
        <ele>35.8</ele>
        <time>2021-07-05 16:51:13</time>
      </trkpt>
      <trkpt lat="28.11601" lon="-14.26835">
        <ele>35.8</ele>
        <time>2021-07-05 16:51:14</time>
      </trkpt>
      <trkpt lat="28.11603" lon="-14.26836">
        <ele>35.8</ele>
        <time>2021-07-05 16:51:15</time>
      </trkpt>
      <trkpt lat="28.11604" lon="-14.26837">
        <ele>35.8</ele>
        <time>2021-07-05 16:51:16</time>
      </trkpt>
      <trkpt lat="28.11606" lon="-14.26838">
        <ele>36</ele>
        <time>2021-07-05 16:51:17</time>
      </trkpt>
      <trkpt lat="28.11607" lon="-14.26839">
        <ele>36.2</ele>
        <time>2021-07-05 16:51:18</time>
      </trkpt>
      <trkpt lat="28.11609" lon="-14.2684">
        <ele>36.2</ele>
        <time>2021-07-05 16:51:19</time>
      </trkpt>
      <trkpt lat="28.11611" lon="-14.26841">
        <ele>36.6</ele>
        <time>2021-07-05 16:51:20</time>
      </trkpt>
      <trkpt lat="28.11612" lon="-14.26842">
        <ele>36.6</ele>
        <time>2021-07-05 16:51:21</time>
      </trkpt>
      <trkpt lat="28.11614" lon="-14.26843">
        <ele>36.6</ele>
        <time>2021-07-05 16:51:22</time>
      </trkpt>
      <trkpt lat="28.11615" lon="-14.26844">
        <ele>36.8</ele>
        <time>2021-07-05 16:51:23</time>
      </trkpt>
      <trkpt lat="28.11617" lon="-14.26846">
        <ele>36.8</ele>
        <time>2021-07-05 16:51:24</time>
      </trkpt>
      <trkpt lat="28.11619" lon="-14.26847">
        <ele>37</ele>
        <time>2021-07-05 16:51:25</time>
      </trkpt>
      <trkpt lat="28.1162" lon="-14.26848">
        <ele>37</ele>
        <time>2021-07-05 16:51:26</time>
      </trkpt>
      <trkpt lat="28.11622" lon="-14.26849">
        <ele>37</ele>
        <time>2021-07-05 16:51:27</time>
      </trkpt>
      <trkpt lat="28.11624" lon="-14.2685">
        <ele>37</ele>
        <time>2021-07-05 16:51:28</time>
      </trkpt>
      <trkpt lat="28.11626" lon="-14.26851">
        <ele>37</ele>
        <time>2021-07-05 16:51:29</time>
      </trkpt>
      <trkpt lat="28.11627" lon="-14.26852">
        <ele>37.2</ele>
        <time>2021-07-05 16:51:30</time>
      </trkpt>
      <trkpt lat="28.11629" lon="-14.26853">
        <ele>37.2</ele>
        <time>2021-07-05 16:51:31</time>
      </trkpt>
      <trkpt lat="28.11631" lon="-14.26854">
        <ele>37.6</ele>
        <time>2021-07-05 16:51:32</time>
      </trkpt>
      <trkpt lat="28.11633" lon="-14.26854">
        <ele>37.6</ele>
        <time>2021-07-05 16:51:33</time>
      </trkpt>
      <trkpt lat="28.11635" lon="-14.26855">
        <ele>37.8</ele>
        <time>2021-07-05 16:51:34</time>
      </trkpt>
      <trkpt lat="28.11637" lon="-14.26856">
        <ele>38.2</ele>
        <time>2021-07-05 16:51:35</time>
      </trkpt>
      <trkpt lat="28.11639" lon="-14.26857">
        <ele>38.2</ele>
        <time>2021-07-05 16:51:36</time>
      </trkpt>
      <trkpt lat="28.11641" lon="-14.26858">
        <ele>38.2</ele>
        <time>2021-07-05 16:51:37</time>
      </trkpt>
      <trkpt lat="28.11643" lon="-14.26858">
        <ele>38.2</ele>
        <time>2021-07-05 16:51:38</time>
      </trkpt>
      <trkpt lat="28.11645" lon="-14.26859">
        <ele>38.2</ele>
        <time>2021-07-05 16:51:39</time>
      </trkpt>
      <trkpt lat="28.11647" lon="-14.2686">
        <ele>38.2</ele>
        <time>2021-07-05 16:51:40</time>
      </trkpt>
      <trkpt lat="28.11649" lon="-14.26861">
        <ele>38.4</ele>
        <time>2021-07-05 16:51:41</time>
      </trkpt>
      <trkpt lat="28.11651" lon="-14.26862">
        <ele>38.4</ele>
        <time>2021-07-05 16:51:42</time>
      </trkpt>
      <trkpt lat="28.11653" lon="-14.26863">
        <ele>38.6</ele>
        <time>2021-07-05 16:51:43</time>
      </trkpt>
      <trkpt lat="28.11655" lon="-14.26863">
        <ele>38.6</ele>
        <time>2021-07-05 16:51:44</time>
      </trkpt>
      <trkpt lat="28.11657" lon="-14.26864">
        <ele>38.6</ele>
        <time>2021-07-05 16:51:45</time>
      </trkpt>
      <trkpt lat="28.11659" lon="-14.26865">
        <ele>38.8</ele>
        <time>2021-07-05 16:51:46</time>
      </trkpt>
      <trkpt lat="28.1166" lon="-14.26866">
        <ele>38.8</ele>
        <time>2021-07-05 16:51:47</time>
      </trkpt>
      <trkpt lat="28.11662" lon="-14.26867">
        <ele>39</ele>
        <time>2021-07-05 16:51:48</time>
      </trkpt>
      <trkpt lat="28.11664" lon="-14.26869">
        <ele>39</ele>
        <time>2021-07-05 16:51:49</time>
      </trkpt>
      <trkpt lat="28.11666" lon="-14.2687">
        <ele>39</ele>
        <time>2021-07-05 16:51:50</time>
      </trkpt>
      <trkpt lat="28.11668" lon="-14.26871">
        <ele>39</ele>
        <time>2021-07-05 16:51:51</time>
      </trkpt>
      <trkpt lat="28.1167" lon="-14.26872">
        <ele>39.2</ele>
        <time>2021-07-05 16:51:52</time>
      </trkpt>
      <trkpt lat="28.11672" lon="-14.26873">
        <ele>39.2</ele>
        <time>2021-07-05 16:51:53</time>
      </trkpt>
      <trkpt lat="28.11673" lon="-14.26874">
        <ele>39.2</ele>
        <time>2021-07-05 16:51:54</time>
      </trkpt>
      <trkpt lat="28.11675" lon="-14.26875">
        <ele>39.2</ele>
        <time>2021-07-05 16:51:55</time>
      </trkpt>
      <trkpt lat="28.11677" lon="-14.26876">
        <ele>39.2</ele>
        <time>2021-07-05 16:51:56</time>
      </trkpt>
      <trkpt lat="28.11679" lon="-14.26877">
        <ele>39.2</ele>
        <time>2021-07-05 16:51:57</time>
      </trkpt>
      <trkpt lat="28.11681" lon="-14.26878">
        <ele>39.6</ele>
        <time>2021-07-05 16:51:58</time>
      </trkpt>
      <trkpt lat="28.11683" lon="-14.26879">
        <ele>39.6</ele>
        <time>2021-07-05 16:51:59</time>
      </trkpt>
      <trkpt lat="28.11685" lon="-14.2688">
        <ele>39.8</ele>
        <time>2021-07-05 16:52:00</time>
      </trkpt>
      <trkpt lat="28.11687" lon="-14.26881">
        <ele>39.8</ele>
        <time>2021-07-05 16:52:01</time>
      </trkpt>
      <trkpt lat="28.11689" lon="-14.26882">
        <ele>40.2</ele>
        <time>2021-07-05 16:52:02</time>
      </trkpt>
      <trkpt lat="28.11691" lon="-14.26884">
        <ele>40.2</ele>
        <time>2021-07-05 16:52:03</time>
      </trkpt>
      <trkpt lat="28.11694" lon="-14.26885">
        <ele>40.2</ele>
        <time>2021-07-05 16:52:04</time>
      </trkpt>
      <trkpt lat="28.11696" lon="-14.26886">
        <ele>40.2</ele>
        <time>2021-07-05 16:52:05</time>
      </trkpt>
      <trkpt lat="28.11698" lon="-14.26886">
        <ele>40.2</ele>
        <time>2021-07-05 16:52:06</time>
      </trkpt>
      <trkpt lat="28.117" lon="-14.26888">
        <ele>40</ele>
        <time>2021-07-05 16:52:07</time>
      </trkpt>
      <trkpt lat="28.11702" lon="-14.26889">
        <ele>40</ele>
        <time>2021-07-05 16:52:08</time>
      </trkpt>
      <trkpt lat="28.11703" lon="-14.2689">
        <ele>40</ele>
        <time>2021-07-05 16:52:09</time>
      </trkpt>
      <trkpt lat="28.11705" lon="-14.26891">
        <ele>40</ele>
        <time>2021-07-05 16:52:10</time>
      </trkpt>
      <trkpt lat="28.11707" lon="-14.26892">
        <ele>40</ele>
        <time>2021-07-05 16:52:11</time>
      </trkpt>
      <trkpt lat="28.11709" lon="-14.26893">
        <ele>40</ele>
        <time>2021-07-05 16:52:12</time>
      </trkpt>
      <trkpt lat="28.11711" lon="-14.26894">
        <ele>40</ele>
        <time>2021-07-05 16:52:13</time>
      </trkpt>
      <trkpt lat="28.11713" lon="-14.26895">
        <ele>40.2</ele>
        <time>2021-07-05 16:52:14</time>
      </trkpt>
      <trkpt lat="28.11714" lon="-14.26896">
        <ele>40.2</ele>
        <time>2021-07-05 16:52:15</time>
      </trkpt>
      <trkpt lat="28.11716" lon="-14.26897">
        <ele>40.4</ele>
        <time>2021-07-05 16:52:16</time>
      </trkpt>
      <trkpt lat="28.11718" lon="-14.26898">
        <ele>40.4</ele>
        <time>2021-07-05 16:52:17</time>
      </trkpt>
      <trkpt lat="28.1172" lon="-14.26899">
        <ele>40.8</ele>
        <time>2021-07-05 16:52:18</time>
      </trkpt>
      <trkpt lat="28.11722" lon="-14.269">
        <ele>40.8</ele>
        <time>2021-07-05 16:52:19</time>
      </trkpt>
      <trkpt lat="28.11724" lon="-14.26901">
        <ele>41.2</ele>
        <time>2021-07-05 16:52:20</time>
      </trkpt>
      <trkpt lat="28.11726" lon="-14.26902">
        <ele>41.2</ele>
        <time>2021-07-05 16:52:21</time>
      </trkpt>
      <trkpt lat="28.11728" lon="-14.26903">
        <ele>41.2</ele>
        <time>2021-07-05 16:52:22</time>
      </trkpt>
      <trkpt lat="28.1173" lon="-14.26904">
        <ele>41.2</ele>
        <time>2021-07-05 16:52:23</time>
      </trkpt>
      <trkpt lat="28.11732" lon="-14.26905">
        <ele>41.2</ele>
        <time>2021-07-05 16:52:24</time>
      </trkpt>
      <trkpt lat="28.11733" lon="-14.26906">
        <ele>41.2</ele>
        <time>2021-07-05 16:52:25</time>
      </trkpt>
      <trkpt lat="28.11735" lon="-14.26907">
        <ele>41.4</ele>
        <time>2021-07-05 16:52:26</time>
      </trkpt>
      <trkpt lat="28.11737" lon="-14.26908">
        <ele>41.8</ele>
        <time>2021-07-05 16:52:27</time>
      </trkpt>
      <trkpt lat="28.11739" lon="-14.26909">
        <ele>42</ele>
        <time>2021-07-05 16:52:28</time>
      </trkpt>
      <trkpt lat="28.11741" lon="-14.2691">
        <ele>42.2</ele>
        <time>2021-07-05 16:52:29</time>
      </trkpt>
      <trkpt lat="28.11742" lon="-14.26911">
        <ele>42.2</ele>
        <time>2021-07-05 16:52:30</time>
      </trkpt>
      <trkpt lat="28.11744" lon="-14.26912">
        <ele>42.6</ele>
        <time>2021-07-05 16:52:31</time>
      </trkpt>
      <trkpt lat="28.11746" lon="-14.26913">
        <ele>42.6</ele>
        <time>2021-07-05 16:52:32</time>
      </trkpt>
      <trkpt lat="28.11748" lon="-14.26914">
        <ele>42.6</ele>
        <time>2021-07-05 16:52:33</time>
      </trkpt>
      <trkpt lat="28.1175" lon="-14.26915">
        <ele>42.8</ele>
        <time>2021-07-05 16:52:34</time>
      </trkpt>
      <trkpt lat="28.11751" lon="-14.26916">
        <ele>42.8</ele>
        <time>2021-07-05 16:52:35</time>
      </trkpt>
      <trkpt lat="28.11753" lon="-14.26917">
        <ele>42.8</ele>
        <time>2021-07-05 16:52:36</time>
      </trkpt>
      <trkpt lat="28.11755" lon="-14.26917">
        <ele>43</ele>
        <time>2021-07-05 16:52:37</time>
      </trkpt>
      <trkpt lat="28.11757" lon="-14.26918">
        <ele>43</ele>
        <time>2021-07-05 16:52:38</time>
      </trkpt>
      <trkpt lat="28.11759" lon="-14.2692">
        <ele>43.6</ele>
        <time>2021-07-05 16:52:39</time>
      </trkpt>
      <trkpt lat="28.11761" lon="-14.26921">
        <ele>43.6</ele>
        <time>2021-07-05 16:52:40</time>
      </trkpt>
      <trkpt lat="28.11763" lon="-14.26922">
        <ele>43.6</ele>
        <time>2021-07-05 16:52:41</time>
      </trkpt>
      <trkpt lat="28.11765" lon="-14.26923">
        <ele>43.8</ele>
        <time>2021-07-05 16:52:42</time>
      </trkpt>
      <trkpt lat="28.11766" lon="-14.26924">
        <ele>43.8</ele>
        <time>2021-07-05 16:52:43</time>
      </trkpt>
      <trkpt lat="28.11768" lon="-14.26926">
        <ele>44.2</ele>
        <time>2021-07-05 16:52:44</time>
      </trkpt>
      <trkpt lat="28.1177" lon="-14.26927">
        <ele>44.2</ele>
        <time>2021-07-05 16:52:45</time>
      </trkpt>
      <trkpt lat="28.11771" lon="-14.26928">
        <ele>44.2</ele>
        <time>2021-07-05 16:52:46</time>
      </trkpt>
      <trkpt lat="28.11773" lon="-14.26929">
        <ele>44.4</ele>
        <time>2021-07-05 16:52:47</time>
      </trkpt>
      <trkpt lat="28.11775" lon="-14.2693">
        <ele>44.4</ele>
        <time>2021-07-05 16:52:48</time>
      </trkpt>
      <trkpt lat="28.11777" lon="-14.2693">
        <ele>44.4</ele>
        <time>2021-07-05 16:52:49</time>
      </trkpt>
      <trkpt lat="28.11777" lon="-14.2693">
        <ele>44.8</ele>
        <time>2021-07-05 16:52:50</time>
      </trkpt>
      <trkpt lat="28.11781" lon="-14.26932">
        <ele>44.8</ele>
        <time>2021-07-05 16:52:51</time>
      </trkpt>
      <trkpt lat="28.11783" lon="-14.26933">
        <ele>44.8</ele>
        <time>2021-07-05 16:52:52</time>
      </trkpt>
      <trkpt lat="28.11785" lon="-14.26934">
        <ele>44.8</ele>
        <time>2021-07-05 16:52:53</time>
      </trkpt>
      <trkpt lat="28.11787" lon="-14.26935">
        <ele>44.8</ele>
        <time>2021-07-05 16:52:54</time>
      </trkpt>
      <trkpt lat="28.11789" lon="-14.26936">
        <ele>45</ele>
        <time>2021-07-05 16:52:55</time>
      </trkpt>
      <trkpt lat="28.1179" lon="-14.26937">
        <ele>45</ele>
        <time>2021-07-05 16:52:56</time>
      </trkpt>
      <trkpt lat="28.11792" lon="-14.26938">
        <ele>45.2</ele>
        <time>2021-07-05 16:52:57</time>
      </trkpt>
      <trkpt lat="28.11794" lon="-14.26939">
        <ele>45.2</ele>
        <time>2021-07-05 16:52:58</time>
      </trkpt>
      <trkpt lat="28.11796" lon="-14.2694">
        <ele>45.4</ele>
        <time>2021-07-05 16:52:59</time>
      </trkpt>
      <trkpt lat="28.11798" lon="-14.26941">
        <ele>45.4</ele>
        <time>2021-07-05 16:53:00</time>
      </trkpt>
      <trkpt lat="28.118" lon="-14.26942">
        <ele>45.4</ele>
        <time>2021-07-05 16:53:01</time>
      </trkpt>
      <trkpt lat="28.11802" lon="-14.26943">
        <ele>45.4</ele>
        <time>2021-07-05 16:53:02</time>
      </trkpt>
      <trkpt lat="28.11804" lon="-14.26944">
        <ele>45.4</ele>
        <time>2021-07-05 16:53:03</time>
      </trkpt>
      <trkpt lat="28.11806" lon="-14.26945">
        <ele>45.4</ele>
        <time>2021-07-05 16:53:04</time>
      </trkpt>
      <trkpt lat="28.11808" lon="-14.26945">
        <ele>45.8</ele>
        <time>2021-07-05 16:53:05</time>
      </trkpt>
      <trkpt lat="28.1181" lon="-14.26946">
        <ele>45.8</ele>
        <time>2021-07-05 16:53:06</time>
      </trkpt>
      <trkpt lat="28.11812" lon="-14.26947">
        <ele>45.8</ele>
        <time>2021-07-05 16:53:07</time>
      </trkpt>
      <trkpt lat="28.11814" lon="-14.26948">
        <ele>45.8</ele>
        <time>2021-07-05 16:53:08</time>
      </trkpt>
      <trkpt lat="28.11815" lon="-14.26949">
        <ele>46</ele>
        <time>2021-07-05 16:53:09</time>
      </trkpt>
      <trkpt lat="28.11817" lon="-14.2695">
        <ele>46</ele>
        <time>2021-07-05 16:53:10</time>
      </trkpt>
      <trkpt lat="28.11819" lon="-14.26951">
        <ele>46.4</ele>
        <time>2021-07-05 16:53:11</time>
      </trkpt>
      <trkpt lat="28.11821" lon="-14.26952">
        <ele>46.6</ele>
        <time>2021-07-05 16:53:12</time>
      </trkpt>
      <trkpt lat="28.11823" lon="-14.26953">
        <ele>46.8</ele>
        <time>2021-07-05 16:53:13</time>
      </trkpt>
      <trkpt lat="28.11825" lon="-14.26954">
        <ele>46.8</ele>
        <time>2021-07-05 16:53:14</time>
      </trkpt>
      <trkpt lat="28.11827" lon="-14.26955">
        <ele>47</ele>
        <time>2021-07-05 16:53:15</time>
      </trkpt>
      <trkpt lat="28.11829" lon="-14.26957">
        <ele>47</ele>
        <time>2021-07-05 16:53:16</time>
      </trkpt>
      <trkpt lat="28.11831" lon="-14.26958">
        <ele>47.2</ele>
        <time>2021-07-05 16:53:17</time>
      </trkpt>
      <trkpt lat="28.11833" lon="-14.26959">
        <ele>47.2</ele>
        <time>2021-07-05 16:53:18</time>
      </trkpt>
      <trkpt lat="28.11834" lon="-14.2696">
        <ele>47.4</ele>
        <time>2021-07-05 16:53:19</time>
      </trkpt>
      <trkpt lat="28.11836" lon="-14.26961">
        <ele>47.6</ele>
        <time>2021-07-05 16:53:20</time>
      </trkpt>
      <trkpt lat="28.11838" lon="-14.26962">
        <ele>47.6</ele>
        <time>2021-07-05 16:53:21</time>
      </trkpt>
      <trkpt lat="28.1184" lon="-14.26963">
        <ele>48</ele>
        <time>2021-07-05 16:53:22</time>
      </trkpt>
      <trkpt lat="28.11842" lon="-14.26964">
        <ele>48.2</ele>
        <time>2021-07-05 16:53:23</time>
      </trkpt>
      <trkpt lat="28.11843" lon="-14.26965">
        <ele>48.4</ele>
        <time>2021-07-05 16:53:24</time>
      </trkpt>
      <trkpt lat="28.11845" lon="-14.26966">
        <ele>48.4</ele>
        <time>2021-07-05 16:53:25</time>
      </trkpt>
      <trkpt lat="28.11847" lon="-14.26966">
        <ele>48.8</ele>
        <time>2021-07-05 16:53:26</time>
      </trkpt>
      <trkpt lat="28.11849" lon="-14.26967">
        <ele>48.8</ele>
        <time>2021-07-05 16:53:27</time>
      </trkpt>
      <trkpt lat="28.11851" lon="-14.26968">
        <ele>49</ele>
        <time>2021-07-05 16:53:28</time>
      </trkpt>
      <trkpt lat="28.11853" lon="-14.26969">
        <ele>49</ele>
        <time>2021-07-05 16:53:29</time>
      </trkpt>
      <trkpt lat="28.11854" lon="-14.2697">
        <ele>49.4</ele>
        <time>2021-07-05 16:53:30</time>
      </trkpt>
      <trkpt lat="28.11856" lon="-14.26971">
        <ele>49.6</ele>
        <time>2021-07-05 16:53:31</time>
      </trkpt>
      <trkpt lat="28.11858" lon="-14.26972">
        <ele>49.8</ele>
        <time>2021-07-05 16:53:32</time>
      </trkpt>
      <trkpt lat="28.1186" lon="-14.26973">
        <ele>49.8</ele>
        <time>2021-07-05 16:53:33</time>
      </trkpt>
      <trkpt lat="28.11862" lon="-14.26974">
        <ele>50.2</ele>
        <time>2021-07-05 16:53:34</time>
      </trkpt>
      <trkpt lat="28.11863" lon="-14.26976">
        <ele>50.2</ele>
        <time>2021-07-05 16:53:35</time>
      </trkpt>
      <trkpt lat="28.11865" lon="-14.26977">
        <ele>50.4</ele>
        <time>2021-07-05 16:53:36</time>
      </trkpt>
      <trkpt lat="28.11867" lon="-14.26978">
        <ele>50.4</ele>
        <time>2021-07-05 16:53:37</time>
      </trkpt>
      <trkpt lat="28.11869" lon="-14.26979">
        <ele>50.6</ele>
        <time>2021-07-05 16:53:38</time>
      </trkpt>
      <trkpt lat="28.1187" lon="-14.2698">
        <ele>50.6</ele>
        <time>2021-07-05 16:53:39</time>
      </trkpt>
      <trkpt lat="28.11872" lon="-14.2698">
        <ele>51</ele>
        <time>2021-07-05 16:53:40</time>
      </trkpt>
      <trkpt lat="28.11874" lon="-14.26981">
        <ele>51</ele>
        <time>2021-07-05 16:53:41</time>
      </trkpt>
      <trkpt lat="28.11876" lon="-14.26982">
        <ele>51</ele>
        <time>2021-07-05 16:53:42</time>
      </trkpt>
      <trkpt lat="28.11877" lon="-14.26983">
        <ele>51.2</ele>
        <time>2021-07-05 16:53:43</time>
      </trkpt>
      <trkpt lat="28.11879" lon="-14.26984">
        <ele>51.2</ele>
        <time>2021-07-05 16:53:44</time>
      </trkpt>
      <trkpt lat="28.1188" lon="-14.26985">
        <ele>51.2</ele>
        <time>2021-07-05 16:53:45</time>
      </trkpt>
      <trkpt lat="28.11882" lon="-14.26986">
        <ele>51.2</ele>
        <time>2021-07-05 16:53:46</time>
      </trkpt>
      <trkpt lat="28.11884" lon="-14.26986">
        <ele>51.4</ele>
        <time>2021-07-05 16:53:47</time>
      </trkpt>
      <trkpt lat="28.11885" lon="-14.26987">
        <ele>51.4</ele>
        <time>2021-07-05 16:53:48</time>
      </trkpt>
      <trkpt lat="28.11887" lon="-14.26988">
        <ele>51.6</ele>
        <time>2021-07-05 16:53:49</time>
      </trkpt>
      <trkpt lat="28.11889" lon="-14.26989">
        <ele>51.6</ele>
        <time>2021-07-05 16:53:50</time>
      </trkpt>
      <trkpt lat="28.1189" lon="-14.2699">
        <ele>51.6</ele>
        <time>2021-07-05 16:53:51</time>
      </trkpt>
      <trkpt lat="28.11892" lon="-14.26991">
        <ele>51.6</ele>
        <time>2021-07-05 16:53:52</time>
      </trkpt>
      <trkpt lat="28.11894" lon="-14.26993">
        <ele>51.6</ele>
        <time>2021-07-05 16:53:53</time>
      </trkpt>
      <trkpt lat="28.11896" lon="-14.26994">
        <ele>51.6</ele>
        <time>2021-07-05 16:53:54</time>
      </trkpt>
      <trkpt lat="28.11897" lon="-14.26995">
        <ele>51.6</ele>
        <time>2021-07-05 16:53:55</time>
      </trkpt>
      <trkpt lat="28.11899" lon="-14.26996">
        <ele>51.6</ele>
        <time>2021-07-05 16:53:56</time>
      </trkpt>
      <trkpt lat="28.11901" lon="-14.26997">
        <ele>51.6</ele>
        <time>2021-07-05 16:53:57</time>
      </trkpt>
      <trkpt lat="28.11903" lon="-14.26998">
        <ele>51.6</ele>
        <time>2021-07-05 16:53:58</time>
      </trkpt>
      <trkpt lat="28.11904" lon="-14.26999">
        <ele>52</ele>
        <time>2021-07-05 16:53:59</time>
      </trkpt>
      <trkpt lat="28.11906" lon="-14.26999">
        <ele>52</ele>
        <time>2021-07-05 16:54:00</time>
      </trkpt>
      <trkpt lat="28.11908" lon="-14.27">
        <ele>52</ele>
        <time>2021-07-05 16:54:01</time>
      </trkpt>
      <trkpt lat="28.1191" lon="-14.27001">
        <ele>52.2</ele>
        <time>2021-07-05 16:54:02</time>
      </trkpt>
      <trkpt lat="28.11912" lon="-14.27002">
        <ele>52.2</ele>
        <time>2021-07-05 16:54:03</time>
      </trkpt>
      <trkpt lat="28.11914" lon="-14.27002">
        <ele>52.6</ele>
        <time>2021-07-05 16:54:04</time>
      </trkpt>
      <trkpt lat="28.11915" lon="-14.27003">
        <ele>52.6</ele>
        <time>2021-07-05 16:54:05</time>
      </trkpt>
      <trkpt lat="28.11917" lon="-14.27004">
        <ele>53</ele>
        <time>2021-07-05 16:54:06</time>
      </trkpt>
      <trkpt lat="28.11919" lon="-14.27005">
        <ele>53.4</ele>
        <time>2021-07-05 16:54:07</time>
      </trkpt>
      <trkpt lat="28.11921" lon="-14.27006">
        <ele>53.6</ele>
        <time>2021-07-05 16:54:08</time>
      </trkpt>
      <trkpt lat="28.11923" lon="-14.27007">
        <ele>53.8</ele>
        <time>2021-07-05 16:54:09</time>
      </trkpt>
      <trkpt lat="28.11924" lon="-14.27008">
        <ele>53.8</ele>
        <time>2021-07-05 16:54:10</time>
      </trkpt>
      <trkpt lat="28.11926" lon="-14.2701">
        <ele>53.8</ele>
        <time>2021-07-05 16:54:11</time>
      </trkpt>
      <trkpt lat="28.11928" lon="-14.27011">
        <ele>54.2</ele>
        <time>2021-07-05 16:54:12</time>
      </trkpt>
      <trkpt lat="28.11929" lon="-14.27012">
        <ele>54.2</ele>
        <time>2021-07-05 16:54:13</time>
      </trkpt>
      <trkpt lat="28.11931" lon="-14.27013">
        <ele>54.2</ele>
        <time>2021-07-05 16:54:14</time>
      </trkpt>
      <trkpt lat="28.11933" lon="-14.27013">
        <ele>54.2</ele>
        <time>2021-07-05 16:54:15</time>
      </trkpt>
      <trkpt lat="28.11934" lon="-14.27014">
        <ele>54.2</ele>
        <time>2021-07-05 16:54:16</time>
      </trkpt>
      <trkpt lat="28.11936" lon="-14.27016">
        <ele>54.4</ele>
        <time>2021-07-05 16:54:17</time>
      </trkpt>
      <trkpt lat="28.11938" lon="-14.27017">
        <ele>54.8</ele>
        <time>2021-07-05 16:54:18</time>
      </trkpt>
      <trkpt lat="28.1194" lon="-14.27018">
        <ele>55</ele>
        <time>2021-07-05 16:54:19</time>
      </trkpt>
      <trkpt lat="28.11941" lon="-14.27019">
        <ele>55</ele>
        <time>2021-07-05 16:54:20</time>
      </trkpt>
      <trkpt lat="28.11943" lon="-14.27019">
        <ele>55.4</ele>
        <time>2021-07-05 16:54:21</time>
      </trkpt>
      <trkpt lat="28.11945" lon="-14.2702">
        <ele>55.4</ele>
        <time>2021-07-05 16:54:22</time>
      </trkpt>
      <trkpt lat="28.11947" lon="-14.27021">
        <ele>55.8</ele>
        <time>2021-07-05 16:54:23</time>
      </trkpt>
      <trkpt lat="28.11948" lon="-14.27021">
        <ele>56</ele>
        <time>2021-07-05 16:54:24</time>
      </trkpt>
      <trkpt lat="28.1195" lon="-14.27022">
        <ele>56.6</ele>
        <time>2021-07-05 16:54:25</time>
      </trkpt>
      <trkpt lat="28.11952" lon="-14.27023">
        <ele>57</ele>
        <time>2021-07-05 16:54:26</time>
      </trkpt>
      <trkpt lat="28.11953" lon="-14.27023">
        <ele>57</ele>
        <time>2021-07-05 16:54:27</time>
      </trkpt>
      <trkpt lat="28.11955" lon="-14.27024">
        <ele>57.2</ele>
        <time>2021-07-05 16:54:28</time>
      </trkpt>
      <trkpt lat="28.11957" lon="-14.27025">
        <ele>57.4</ele>
        <time>2021-07-05 16:54:29</time>
      </trkpt>
      <trkpt lat="28.11958" lon="-14.27026">
        <ele>57.8</ele>
        <time>2021-07-05 16:54:30</time>
      </trkpt>
      <trkpt lat="28.1196" lon="-14.27027">
        <ele>57.8</ele>
        <time>2021-07-05 16:54:31</time>
      </trkpt>
      <trkpt lat="28.11961" lon="-14.27028">
        <ele>57.8</ele>
        <time>2021-07-05 16:54:32</time>
      </trkpt>
      <trkpt lat="28.11963" lon="-14.27029">
        <ele>58.2</ele>
        <time>2021-07-05 16:54:33</time>
      </trkpt>
      <trkpt lat="28.11965" lon="-14.27029">
        <ele>58.4</ele>
        <time>2021-07-05 16:54:34</time>
      </trkpt>
      <trkpt lat="28.11966" lon="-14.2703">
        <ele>58.4</ele>
        <time>2021-07-05 16:54:35</time>
      </trkpt>
      <trkpt lat="28.11968" lon="-14.27031">
        <ele>58.6</ele>
        <time>2021-07-05 16:54:36</time>
      </trkpt>
      <trkpt lat="28.11969" lon="-14.27031">
        <ele>58.6</ele>
        <time>2021-07-05 16:54:37</time>
      </trkpt>
      <trkpt lat="28.11971" lon="-14.27032">
        <ele>59</ele>
        <time>2021-07-05 16:54:38</time>
      </trkpt>
      <trkpt lat="28.11973" lon="-14.27033">
        <ele>59</ele>
        <time>2021-07-05 16:54:39</time>
      </trkpt>
      <trkpt lat="28.11974" lon="-14.27034">
        <ele>59.4</ele>
        <time>2021-07-05 16:54:40</time>
      </trkpt>
      <trkpt lat="28.11976" lon="-14.27035">
        <ele>59.4</ele>
        <time>2021-07-05 16:54:41</time>
      </trkpt>
      <trkpt lat="28.11978" lon="-14.27036">
        <ele>59.4</ele>
        <time>2021-07-05 16:54:42</time>
      </trkpt>
      <trkpt lat="28.11979" lon="-14.27036">
        <ele>59.8</ele>
        <time>2021-07-05 16:54:43</time>
      </trkpt>
      <trkpt lat="28.11981" lon="-14.27037">
        <ele>59.8</ele>
        <time>2021-07-05 16:54:44</time>
      </trkpt>
      <trkpt lat="28.11983" lon="-14.27038">
        <ele>60</ele>
        <time>2021-07-05 16:54:45</time>
      </trkpt>
      <trkpt lat="28.11984" lon="-14.27039">
        <ele>60</ele>
        <time>2021-07-05 16:54:46</time>
      </trkpt>
      <trkpt lat="28.11986" lon="-14.27039">
        <ele>60.4</ele>
        <time>2021-07-05 16:54:47</time>
      </trkpt>
      <trkpt lat="28.11988" lon="-14.2704">
        <ele>60.6</ele>
        <time>2021-07-05 16:54:48</time>
      </trkpt>
      <trkpt lat="28.11989" lon="-14.27041">
        <ele>60.6</ele>
        <time>2021-07-05 16:54:49</time>
      </trkpt>
      <trkpt lat="28.11991" lon="-14.27042">
        <ele>60.8</ele>
        <time>2021-07-05 16:54:50</time>
      </trkpt>
      <trkpt lat="28.11993" lon="-14.27042">
        <ele>60.8</ele>
        <time>2021-07-05 16:54:51</time>
      </trkpt>
      <trkpt lat="28.11994" lon="-14.27043">
        <ele>60.8</ele>
        <time>2021-07-05 16:54:52</time>
      </trkpt>
      <trkpt lat="28.11996" lon="-14.27044">
        <ele>61.2</ele>
        <time>2021-07-05 16:54:53</time>
      </trkpt>
      <trkpt lat="28.11997" lon="-14.27045">
        <ele>61.4</ele>
        <time>2021-07-05 16:54:54</time>
      </trkpt>
      <trkpt lat="28.11999" lon="-14.27046">
        <ele>61.6</ele>
        <time>2021-07-05 16:54:55</time>
      </trkpt>
      <trkpt lat="28.12001" lon="-14.27047">
        <ele>61.6</ele>
        <time>2021-07-05 16:54:56</time>
      </trkpt>
      <trkpt lat="28.12002" lon="-14.27048">
        <ele>61.6</ele>
        <time>2021-07-05 16:54:57</time>
      </trkpt>
      <trkpt lat="28.12004" lon="-14.27048">
        <ele>61.6</ele>
        <time>2021-07-05 16:54:58</time>
      </trkpt>
      <trkpt lat="28.12006" lon="-14.27049">
        <ele>62</ele>
        <time>2021-07-05 16:54:59</time>
      </trkpt>
      <trkpt lat="28.12008" lon="-14.27049">
        <ele>62</ele>
        <time>2021-07-05 16:55:00</time>
      </trkpt>
      <trkpt lat="28.1201" lon="-14.2705">
        <ele>62.6</ele>
        <time>2021-07-05 16:55:01</time>
      </trkpt>
      <trkpt lat="28.12011" lon="-14.27051">
        <ele>62.6</ele>
        <time>2021-07-05 16:55:02</time>
      </trkpt>
      <trkpt lat="28.12013" lon="-14.27052">
        <ele>62.6</ele>
        <time>2021-07-05 16:55:03</time>
      </trkpt>
      <trkpt lat="28.12015" lon="-14.27052">
        <ele>63</ele>
        <time>2021-07-05 16:55:04</time>
      </trkpt>
      <trkpt lat="28.12017" lon="-14.27053">
        <ele>63</ele>
        <time>2021-07-05 16:55:05</time>
      </trkpt>
      <trkpt lat="28.12019" lon="-14.27053">
        <ele>63.2</ele>
        <time>2021-07-05 16:55:06</time>
      </trkpt>
      <trkpt lat="28.12021" lon="-14.27054">
        <ele>63.2</ele>
        <time>2021-07-05 16:55:07</time>
      </trkpt>
      <trkpt lat="28.12023" lon="-14.27055">
        <ele>63.4</ele>
        <time>2021-07-05 16:55:08</time>
      </trkpt>
      <trkpt lat="28.12025" lon="-14.27056">
        <ele>63.4</ele>
        <time>2021-07-05 16:55:09</time>
      </trkpt>
      <trkpt lat="28.12027" lon="-14.27057">
        <ele>63.4</ele>
        <time>2021-07-05 16:55:10</time>
      </trkpt>
      <trkpt lat="28.12029" lon="-14.27057">
        <ele>63.4</ele>
        <time>2021-07-05 16:55:11</time>
      </trkpt>
      <trkpt lat="28.12031" lon="-14.27058">
        <ele>63.4</ele>
        <time>2021-07-05 16:55:12</time>
      </trkpt>
      <trkpt lat="28.12033" lon="-14.27059">
        <ele>63.4</ele>
        <time>2021-07-05 16:55:13</time>
      </trkpt>
      <trkpt lat="28.12035" lon="-14.27059">
        <ele>63.4</ele>
        <time>2021-07-05 16:55:14</time>
      </trkpt>
      <trkpt lat="28.12037" lon="-14.2706">
        <ele>63.4</ele>
        <time>2021-07-05 16:55:15</time>
      </trkpt>
      <trkpt lat="28.12039" lon="-14.27061">
        <ele>63.4</ele>
        <time>2021-07-05 16:55:16</time>
      </trkpt>
      <trkpt lat="28.12041" lon="-14.27061">
        <ele>63.8</ele>
        <time>2021-07-05 16:55:17</time>
      </trkpt>
      <trkpt lat="28.12043" lon="-14.27062">
        <ele>64.2</ele>
        <time>2021-07-05 16:55:18</time>
      </trkpt>
      <trkpt lat="28.12045" lon="-14.27063">
        <ele>64.2</ele>
        <time>2021-07-05 16:55:19</time>
      </trkpt>
      <trkpt lat="28.12047" lon="-14.27064">
        <ele>64.4</ele>
        <time>2021-07-05 16:55:20</time>
      </trkpt>
      <trkpt lat="28.12049" lon="-14.27065">
        <ele>64.4</ele>
        <time>2021-07-05 16:55:21</time>
      </trkpt>
      <trkpt lat="28.1205" lon="-14.27065">
        <ele>64.6</ele>
        <time>2021-07-05 16:55:22</time>
      </trkpt>
      <trkpt lat="28.12052" lon="-14.27066">
        <ele>64.6</ele>
        <time>2021-07-05 16:55:23</time>
      </trkpt>
      <trkpt lat="28.12054" lon="-14.27067">
        <ele>64.6</ele>
        <time>2021-07-05 16:55:24</time>
      </trkpt>
      <trkpt lat="28.12056" lon="-14.27068">
        <ele>64.8</ele>
        <time>2021-07-05 16:55:25</time>
      </trkpt>
      <trkpt lat="28.12058" lon="-14.27069">
        <ele>64.8</ele>
        <time>2021-07-05 16:55:26</time>
      </trkpt>
      <trkpt lat="28.1206" lon="-14.2707">
        <ele>65.2</ele>
        <time>2021-07-05 16:55:27</time>
      </trkpt>
      <trkpt lat="28.12062" lon="-14.2707">
        <ele>65.2</ele>
        <time>2021-07-05 16:55:28</time>
      </trkpt>
      <trkpt lat="28.12064" lon="-14.27071">
        <ele>65.4</ele>
        <time>2021-07-05 16:55:29</time>
      </trkpt>
      <trkpt lat="28.12066" lon="-14.27072">
        <ele>65.4</ele>
        <time>2021-07-05 16:55:30</time>
      </trkpt>
      <trkpt lat="28.12068" lon="-14.27073">
        <ele>65.8</ele>
        <time>2021-07-05 16:55:31</time>
      </trkpt>
      <trkpt lat="28.1207" lon="-14.27073">
        <ele>65.8</ele>
        <time>2021-07-05 16:55:32</time>
      </trkpt>
      <trkpt lat="28.12072" lon="-14.27074">
        <ele>66</ele>
        <time>2021-07-05 16:55:33</time>
      </trkpt>
      <trkpt lat="28.12074" lon="-14.27075">
        <ele>66</ele>
        <time>2021-07-05 16:55:34</time>
      </trkpt>
      <trkpt lat="28.12076" lon="-14.27076">
        <ele>66.2</ele>
        <time>2021-07-05 16:55:35</time>
      </trkpt>
      <trkpt lat="28.12078" lon="-14.27077">
        <ele>66.2</ele>
        <time>2021-07-05 16:55:36</time>
      </trkpt>
      <trkpt lat="28.1208" lon="-14.27078">
        <ele>66.6</ele>
        <time>2021-07-05 16:55:37</time>
      </trkpt>
      <trkpt lat="28.12082" lon="-14.27079">
        <ele>66.6</ele>
        <time>2021-07-05 16:55:38</time>
      </trkpt>
      <trkpt lat="28.12084" lon="-14.27079">
        <ele>66.6</ele>
        <time>2021-07-05 16:55:39</time>
      </trkpt>
      <trkpt lat="28.12087" lon="-14.2708">
        <ele>66.8</ele>
        <time>2021-07-05 16:55:40</time>
      </trkpt>
      <trkpt lat="28.12089" lon="-14.27081">
        <ele>66.8</ele>
        <time>2021-07-05 16:55:41</time>
      </trkpt>
      <trkpt lat="28.12091" lon="-14.27082">
        <ele>67</ele>
        <time>2021-07-05 16:55:42</time>
      </trkpt>
      <trkpt lat="28.12093" lon="-14.27082">
        <ele>67</ele>
        <time>2021-07-05 16:55:43</time>
      </trkpt>
      <trkpt lat="28.12095" lon="-14.27083">
        <ele>67</ele>
        <time>2021-07-05 16:55:44</time>
      </trkpt>
      <trkpt lat="28.12097" lon="-14.27084">
        <ele>67.2</ele>
        <time>2021-07-05 16:55:45</time>
      </trkpt>
      <trkpt lat="28.12099" lon="-14.27085">
        <ele>67.2</ele>
        <time>2021-07-05 16:55:46</time>
      </trkpt>
      <trkpt lat="28.12101" lon="-14.27086">
        <ele>67.2</ele>
        <time>2021-07-05 16:55:47</time>
      </trkpt>
      <trkpt lat="28.12103" lon="-14.27087">
        <ele>67.2</ele>
        <time>2021-07-05 16:55:48</time>
      </trkpt>
      <trkpt lat="28.12106" lon="-14.27088">
        <ele>67.2</ele>
        <time>2021-07-05 16:55:49</time>
      </trkpt>
      <trkpt lat="28.12108" lon="-14.27089">
        <ele>67.4</ele>
        <time>2021-07-05 16:55:50</time>
      </trkpt>
      <trkpt lat="28.1211" lon="-14.2709">
        <ele>67.4</ele>
        <time>2021-07-05 16:55:51</time>
      </trkpt>
      <trkpt lat="28.12112" lon="-14.27091">
        <ele>67.4</ele>
        <time>2021-07-05 16:55:52</time>
      </trkpt>
      <trkpt lat="28.12114" lon="-14.27092">
        <ele>67.4</ele>
        <time>2021-07-05 16:55:53</time>
      </trkpt>
      <trkpt lat="28.12116" lon="-14.27093">
        <ele>67.8</ele>
        <time>2021-07-05 16:55:54</time>
      </trkpt>
      <trkpt lat="28.12118" lon="-14.27094">
        <ele>67.8</ele>
        <time>2021-07-05 16:55:55</time>
      </trkpt>
      <trkpt lat="28.1212" lon="-14.27095">
        <ele>67.8</ele>
        <time>2021-07-05 16:55:56</time>
      </trkpt>
      <trkpt lat="28.12122" lon="-14.27095">
        <ele>67.8</ele>
        <time>2021-07-05 16:55:57</time>
      </trkpt>
      <trkpt lat="28.12124" lon="-14.27096">
        <ele>67.8</ele>
        <time>2021-07-05 16:55:58</time>
      </trkpt>
      <trkpt lat="28.12126" lon="-14.27097">
        <ele>67.8</ele>
        <time>2021-07-05 16:55:59</time>
      </trkpt>
      <trkpt lat="28.12128" lon="-14.27098">
        <ele>67.8</ele>
        <time>2021-07-05 16:56:00</time>
      </trkpt>
      <trkpt lat="28.1213" lon="-14.27099">
        <ele>68</ele>
        <time>2021-07-05 16:56:01</time>
      </trkpt>
      <trkpt lat="28.12133" lon="-14.271">
        <ele>68</ele>
        <time>2021-07-05 16:56:02</time>
      </trkpt>
      <trkpt lat="28.12135" lon="-14.27101">
        <ele>68.2</ele>
        <time>2021-07-05 16:56:03</time>
      </trkpt>
      <trkpt lat="28.12137" lon="-14.27101">
        <ele>68.2</ele>
        <time>2021-07-05 16:56:04</time>
      </trkpt>
      <trkpt lat="28.12139" lon="-14.27102">
        <ele>68.2</ele>
        <time>2021-07-05 16:56:05</time>
      </trkpt>
      <trkpt lat="28.12141" lon="-14.27103">
        <ele>68.2</ele>
        <time>2021-07-05 16:56:06</time>
      </trkpt>
      <trkpt lat="28.12143" lon="-14.27104">
        <ele>68.4</ele>
        <time>2021-07-05 16:56:07</time>
      </trkpt>
      <trkpt lat="28.12145" lon="-14.27105">
        <ele>68.4</ele>
        <time>2021-07-05 16:56:08</time>
      </trkpt>
      <trkpt lat="28.12147" lon="-14.27106">
        <ele>68.8</ele>
        <time>2021-07-05 16:56:09</time>
      </trkpt>
      <trkpt lat="28.12149" lon="-14.27107">
        <ele>68.8</ele>
        <time>2021-07-05 16:56:10</time>
      </trkpt>
      <trkpt lat="28.12152" lon="-14.27107">
        <ele>68.8</ele>
        <time>2021-07-05 16:56:11</time>
      </trkpt>
      <trkpt lat="28.12154" lon="-14.27108">
        <ele>68.8</ele>
        <time>2021-07-05 16:56:12</time>
      </trkpt>
      <trkpt lat="28.12156" lon="-14.27108">
        <ele>68.8</ele>
        <time>2021-07-05 16:56:13</time>
      </trkpt>
      <trkpt lat="28.12158" lon="-14.27109">
        <ele>68.8</ele>
        <time>2021-07-05 16:56:14</time>
      </trkpt>
      <trkpt lat="28.1216" lon="-14.2711">
        <ele>69</ele>
        <time>2021-07-05 16:56:15</time>
      </trkpt>
      <trkpt lat="28.12162" lon="-14.27111">
        <ele>69.2</ele>
        <time>2021-07-05 16:56:16</time>
      </trkpt>
      <trkpt lat="28.12164" lon="-14.27112">
        <ele>69.2</ele>
        <time>2021-07-05 16:56:17</time>
      </trkpt>
      <trkpt lat="28.12167" lon="-14.27113">
        <ele>69.2</ele>
        <time>2021-07-05 16:56:18</time>
      </trkpt>
      <trkpt lat="28.12169" lon="-14.27114">
        <ele>69.2</ele>
        <time>2021-07-05 16:56:19</time>
      </trkpt>
      <trkpt lat="28.12171" lon="-14.27115">
        <ele>69.4</ele>
        <time>2021-07-05 16:56:20</time>
      </trkpt>
      <trkpt lat="28.12173" lon="-14.27116">
        <ele>69.4</ele>
        <time>2021-07-05 16:56:21</time>
      </trkpt>
      <trkpt lat="28.12175" lon="-14.27116">
        <ele>69.8</ele>
        <time>2021-07-05 16:56:22</time>
      </trkpt>
      <trkpt lat="28.12177" lon="-14.27117">
        <ele>69.8</ele>
        <time>2021-07-05 16:56:23</time>
      </trkpt>
      <trkpt lat="28.12179" lon="-14.27118">
        <ele>69.8</ele>
        <time>2021-07-05 16:56:24</time>
      </trkpt>
      <trkpt lat="28.12181" lon="-14.27119">
        <ele>70</ele>
        <time>2021-07-05 16:56:25</time>
      </trkpt>
      <trkpt lat="28.12183" lon="-14.2712">
        <ele>70</ele>
        <time>2021-07-05 16:56:26</time>
      </trkpt>
      <trkpt lat="28.12186" lon="-14.27121">
        <ele>70</ele>
        <time>2021-07-05 16:56:27</time>
      </trkpt>
      <trkpt lat="28.12188" lon="-14.27122">
        <ele>70.2</ele>
        <time>2021-07-05 16:56:28</time>
      </trkpt>
      <trkpt lat="28.1219" lon="-14.27123">
        <ele>70.2</ele>
        <time>2021-07-05 16:56:29</time>
      </trkpt>
      <trkpt lat="28.12192" lon="-14.27124">
        <ele>70.6</ele>
        <time>2021-07-05 16:56:30</time>
      </trkpt>
      <trkpt lat="28.12195" lon="-14.27125">
        <ele>70.6</ele>
        <time>2021-07-05 16:56:31</time>
      </trkpt>
      <trkpt lat="28.12197" lon="-14.27126">
        <ele>70.6</ele>
        <time>2021-07-05 16:56:32</time>
      </trkpt>
      <trkpt lat="28.12199" lon="-14.27126">
        <ele>70.6</ele>
        <time>2021-07-05 16:56:33</time>
      </trkpt>
      <trkpt lat="28.12201" lon="-14.27127">
        <ele>70.8</ele>
        <time>2021-07-05 16:56:34</time>
      </trkpt>
      <trkpt lat="28.12204" lon="-14.27128">
        <ele>70.8</ele>
        <time>2021-07-05 16:56:35</time>
      </trkpt>
      <trkpt lat="28.12206" lon="-14.27129">
        <ele>70.8</ele>
        <time>2021-07-05 16:56:36</time>
      </trkpt>
      <trkpt lat="28.12208" lon="-14.2713">
        <ele>71.2</ele>
        <time>2021-07-05 16:56:37</time>
      </trkpt>
      <trkpt lat="28.12211" lon="-14.2713">
        <ele>71.2</ele>
        <time>2021-07-05 16:56:38</time>
      </trkpt>
      <trkpt lat="28.12213" lon="-14.27131">
        <ele>71.4</ele>
        <time>2021-07-05 16:56:39</time>
      </trkpt>
      <trkpt lat="28.12215" lon="-14.27132">
        <ele>71.4</ele>
        <time>2021-07-05 16:56:40</time>
      </trkpt>
      <trkpt lat="28.12217" lon="-14.27133">
        <ele>71.4</ele>
        <time>2021-07-05 16:56:41</time>
      </trkpt>
      <trkpt lat="28.12219" lon="-14.27134">
        <ele>71.4</ele>
        <time>2021-07-05 16:56:42</time>
      </trkpt>
      <trkpt lat="28.12222" lon="-14.27135">
        <ele>71.6</ele>
        <time>2021-07-05 16:56:43</time>
      </trkpt>
      <trkpt lat="28.12224" lon="-14.27136">
        <ele>71.6</ele>
        <time>2021-07-05 16:56:44</time>
      </trkpt>
      <trkpt lat="28.12226" lon="-14.27136">
        <ele>71.6</ele>
        <time>2021-07-05 16:56:45</time>
      </trkpt>
      <trkpt lat="28.12228" lon="-14.27137">
        <ele>71.6</ele>
        <time>2021-07-05 16:56:46</time>
      </trkpt>
      <trkpt lat="28.1223" lon="-14.27138">
        <ele>71.6</ele>
        <time>2021-07-05 16:56:47</time>
      </trkpt>
      <trkpt lat="28.12232" lon="-14.27139">
        <ele>71.6</ele>
        <time>2021-07-05 16:56:48</time>
      </trkpt>
      <trkpt lat="28.12234" lon="-14.2714">
        <ele>71.8</ele>
        <time>2021-07-05 16:56:49</time>
      </trkpt>
      <trkpt lat="28.12236" lon="-14.27141">
        <ele>71.8</ele>
        <time>2021-07-05 16:56:50</time>
      </trkpt>
      <trkpt lat="28.12238" lon="-14.27142">
        <ele>72</ele>
        <time>2021-07-05 16:56:51</time>
      </trkpt>
      <trkpt lat="28.1224" lon="-14.27143">
        <ele>72</ele>
        <time>2021-07-05 16:56:52</time>
      </trkpt>
      <trkpt lat="28.12242" lon="-14.27144">
        <ele>72.4</ele>
        <time>2021-07-05 16:56:53</time>
      </trkpt>
      <trkpt lat="28.12245" lon="-14.27145">
        <ele>72.4</ele>
        <time>2021-07-05 16:56:54</time>
      </trkpt>
      <trkpt lat="28.12247" lon="-14.27146">
        <ele>72.8</ele>
        <time>2021-07-05 16:56:55</time>
      </trkpt>
      <trkpt lat="28.12248" lon="-14.27147">
        <ele>72.8</ele>
        <time>2021-07-05 16:56:56</time>
      </trkpt>
      <trkpt lat="28.1225" lon="-14.27148">
        <ele>73</ele>
        <time>2021-07-05 16:56:57</time>
      </trkpt>
      <trkpt lat="28.12252" lon="-14.27149">
        <ele>73.4</ele>
        <time>2021-07-05 16:56:58</time>
      </trkpt>
      <trkpt lat="28.12254" lon="-14.2715">
        <ele>73.6</ele>
        <time>2021-07-05 16:56:59</time>
      </trkpt>
      <trkpt lat="28.12256" lon="-14.27151">
        <ele>73.8</ele>
        <time>2021-07-05 16:57:00</time>
      </trkpt>
      <trkpt lat="28.12258" lon="-14.27151">
        <ele>74</ele>
        <time>2021-07-05 16:57:01</time>
      </trkpt>
      <trkpt lat="28.1226" lon="-14.27152">
        <ele>74.4</ele>
        <time>2021-07-05 16:57:02</time>
      </trkpt>
      <trkpt lat="28.12262" lon="-14.27153">
        <ele>74.6</ele>
        <time>2021-07-05 16:57:03</time>
      </trkpt>
      <trkpt lat="28.12264" lon="-14.27154">
        <ele>74.6</ele>
        <time>2021-07-05 16:57:04</time>
      </trkpt>
      <trkpt lat="28.12266" lon="-14.27154">
        <ele>74.8</ele>
        <time>2021-07-05 16:57:05</time>
      </trkpt>
      <trkpt lat="28.12268" lon="-14.27155">
        <ele>74.8</ele>
        <time>2021-07-05 16:57:06</time>
      </trkpt>
      <trkpt lat="28.1227" lon="-14.27156">
        <ele>75.2</ele>
        <time>2021-07-05 16:57:07</time>
      </trkpt>
      <trkpt lat="28.12272" lon="-14.27157">
        <ele>75.4</ele>
        <time>2021-07-05 16:57:08</time>
      </trkpt>
      <trkpt lat="28.12274" lon="-14.27158">
        <ele>75.4</ele>
        <time>2021-07-05 16:57:09</time>
      </trkpt>
      <trkpt lat="28.12276" lon="-14.27159">
        <ele>75.8</ele>
        <time>2021-07-05 16:57:10</time>
      </trkpt>
      <trkpt lat="28.12278" lon="-14.27159">
        <ele>76.2</ele>
        <time>2021-07-05 16:57:11</time>
      </trkpt>
      <trkpt lat="28.1228" lon="-14.2716">
        <ele>76.4</ele>
        <time>2021-07-05 16:57:12</time>
      </trkpt>
      <trkpt lat="28.12282" lon="-14.27161">
        <ele>76.4</ele>
        <time>2021-07-05 16:57:13</time>
      </trkpt>
      <trkpt lat="28.12284" lon="-14.27162">
        <ele>76.8</ele>
        <time>2021-07-05 16:57:14</time>
      </trkpt>
      <trkpt lat="28.12286" lon="-14.27163">
        <ele>76.8</ele>
        <time>2021-07-05 16:57:15</time>
      </trkpt>
      <trkpt lat="28.12288" lon="-14.27164">
        <ele>76.8</ele>
        <time>2021-07-05 16:57:16</time>
      </trkpt>
      <trkpt lat="28.12289" lon="-14.27165">
        <ele>76.8</ele>
        <time>2021-07-05 16:57:17</time>
      </trkpt>
      <trkpt lat="28.12292" lon="-14.27166">
        <ele>77</ele>
        <time>2021-07-05 16:57:18</time>
      </trkpt>
      <trkpt lat="28.12294" lon="-14.27167">
        <ele>77</ele>
        <time>2021-07-05 16:57:19</time>
      </trkpt>
      <trkpt lat="28.12296" lon="-14.27167">
        <ele>77.4</ele>
        <time>2021-07-05 16:57:20</time>
      </trkpt>
      <trkpt lat="28.12298" lon="-14.27168">
        <ele>77.4</ele>
        <time>2021-07-05 16:57:21</time>
      </trkpt>
      <trkpt lat="28.123" lon="-14.27168">
        <ele>77.6</ele>
        <time>2021-07-05 16:57:22</time>
      </trkpt>
      <trkpt lat="28.12302" lon="-14.27169">
        <ele>77.6</ele>
        <time>2021-07-05 16:57:23</time>
      </trkpt>
      <trkpt lat="28.12304" lon="-14.2717">
        <ele>77.6</ele>
        <time>2021-07-05 16:57:24</time>
      </trkpt>
      <trkpt lat="28.12306" lon="-14.27171">
        <ele>77.8</ele>
        <time>2021-07-05 16:57:25</time>
      </trkpt>
      <trkpt lat="28.12308" lon="-14.27172">
        <ele>77.8</ele>
        <time>2021-07-05 16:57:26</time>
      </trkpt>
      <trkpt lat="28.1231" lon="-14.27173">
        <ele>77.8</ele>
        <time>2021-07-05 16:57:27</time>
      </trkpt>
      <trkpt lat="28.12312" lon="-14.27174">
        <ele>78</ele>
        <time>2021-07-05 16:57:28</time>
      </trkpt>
      <trkpt lat="28.12314" lon="-14.27175">
        <ele>78.4</ele>
        <time>2021-07-05 16:57:29</time>
      </trkpt>
      <trkpt lat="28.12316" lon="-14.27176">
        <ele>78.6</ele>
        <time>2021-07-05 16:57:30</time>
      </trkpt>
      <trkpt lat="28.12318" lon="-14.27176">
        <ele>78.8</ele>
        <time>2021-07-05 16:57:31</time>
      </trkpt>
      <trkpt lat="28.1232" lon="-14.27177">
        <ele>78.8</ele>
        <time>2021-07-05 16:57:32</time>
      </trkpt>
      <trkpt lat="28.12322" lon="-14.27178">
        <ele>78.8</ele>
        <time>2021-07-05 16:57:33</time>
      </trkpt>
      <trkpt lat="28.12324" lon="-14.27179">
        <ele>79.2</ele>
        <time>2021-07-05 16:57:34</time>
      </trkpt>
      <trkpt lat="28.12327" lon="-14.2718">
        <ele>79.2</ele>
        <time>2021-07-05 16:57:35</time>
      </trkpt>
      <trkpt lat="28.12329" lon="-14.27181">
        <ele>79.4</ele>
        <time>2021-07-05 16:57:36</time>
      </trkpt>
      <trkpt lat="28.12331" lon="-14.27182">
        <ele>79.8</ele>
        <time>2021-07-05 16:57:37</time>
      </trkpt>
      <trkpt lat="28.12333" lon="-14.27183">
        <ele>79.8</ele>
        <time>2021-07-05 16:57:38</time>
      </trkpt>
      <trkpt lat="28.12335" lon="-14.27184">
        <ele>80</ele>
        <time>2021-07-05 16:57:39</time>
      </trkpt>
      <trkpt lat="28.12337" lon="-14.27185">
        <ele>80</ele>
        <time>2021-07-05 16:57:40</time>
      </trkpt>
      <trkpt lat="28.12339" lon="-14.27185">
        <ele>80</ele>
        <time>2021-07-05 16:57:41</time>
      </trkpt>
      <trkpt lat="28.12341" lon="-14.27186">
        <ele>80</ele>
        <time>2021-07-05 16:57:42</time>
      </trkpt>
      <trkpt lat="28.12344" lon="-14.27187">
        <ele>80</ele>
        <time>2021-07-05 16:57:43</time>
      </trkpt>
      <trkpt lat="28.12346" lon="-14.27188">
        <ele>80.2</ele>
        <time>2021-07-05 16:57:44</time>
      </trkpt>
      <trkpt lat="28.12348" lon="-14.27189">
        <ele>80.2</ele>
        <time>2021-07-05 16:57:45</time>
      </trkpt>
      <trkpt lat="28.1235" lon="-14.27189">
        <ele>80.2</ele>
        <time>2021-07-05 16:57:46</time>
      </trkpt>
      <trkpt lat="28.12352" lon="-14.2719">
        <ele>80.6</ele>
        <time>2021-07-05 16:57:47</time>
      </trkpt>
      <trkpt lat="28.12355" lon="-14.2719">
        <ele>80.6</ele>
        <time>2021-07-05 16:57:48</time>
      </trkpt>
      <trkpt lat="28.12357" lon="-14.27191">
        <ele>80.6</ele>
        <time>2021-07-05 16:57:49</time>
      </trkpt>
      <trkpt lat="28.12359" lon="-14.27192">
        <ele>80.8</ele>
        <time>2021-07-05 16:57:50</time>
      </trkpt>
      <trkpt lat="28.12361" lon="-14.27193">
        <ele>81</ele>
        <time>2021-07-05 16:57:51</time>
      </trkpt>
      <trkpt lat="28.12363" lon="-14.27193">
        <ele>81</ele>
        <time>2021-07-05 16:57:52</time>
      </trkpt>
      <trkpt lat="28.12365" lon="-14.27194">
        <ele>81</ele>
        <time>2021-07-05 16:57:53</time>
      </trkpt>
      <trkpt lat="28.12367" lon="-14.27194">
        <ele>81.4</ele>
        <time>2021-07-05 16:57:54</time>
      </trkpt>
      <trkpt lat="28.12369" lon="-14.27194">
        <ele>81.4</ele>
        <time>2021-07-05 16:57:55</time>
      </trkpt>
      <trkpt lat="28.12372" lon="-14.27195">
        <ele>81.8</ele>
        <time>2021-07-05 16:57:56</time>
      </trkpt>
      <trkpt lat="28.12374" lon="-14.27196">
        <ele>81.8</ele>
        <time>2021-07-05 16:57:57</time>
      </trkpt>
      <trkpt lat="28.12376" lon="-14.27197">
        <ele>82</ele>
        <time>2021-07-05 16:57:58</time>
      </trkpt>
      <trkpt lat="28.12378" lon="-14.27197">
        <ele>82</ele>
        <time>2021-07-05 16:57:59</time>
      </trkpt>
      <trkpt lat="28.12381" lon="-14.27197">
        <ele>82</ele>
        <time>2021-07-05 16:58:00</time>
      </trkpt>
      <trkpt lat="28.12383" lon="-14.27197">
        <ele>82</ele>
        <time>2021-07-05 16:58:01</time>
      </trkpt>
      <trkpt lat="28.12385" lon="-14.27197">
        <ele>82.2</ele>
        <time>2021-07-05 16:58:02</time>
      </trkpt>
      <trkpt lat="28.12387" lon="-14.27198">
        <ele>82.2</ele>
        <time>2021-07-05 16:58:03</time>
      </trkpt>
      <trkpt lat="28.1239" lon="-14.27198">
        <ele>82.2</ele>
        <time>2021-07-05 16:58:04</time>
      </trkpt>
      <trkpt lat="28.12392" lon="-14.27199">
        <ele>82.2</ele>
        <time>2021-07-05 16:58:05</time>
      </trkpt>
      <trkpt lat="28.12394" lon="-14.27199">
        <ele>82.2</ele>
        <time>2021-07-05 16:58:06</time>
      </trkpt>
      <trkpt lat="28.12396" lon="-14.27199">
        <ele>82.2</ele>
        <time>2021-07-05 16:58:07</time>
      </trkpt>
      <trkpt lat="28.12398" lon="-14.272">
        <ele>82.2</ele>
        <time>2021-07-05 16:58:08</time>
      </trkpt>
      <trkpt lat="28.124" lon="-14.27201">
        <ele>82.2</ele>
        <time>2021-07-05 16:58:09</time>
      </trkpt>
      <trkpt lat="28.12402" lon="-14.27201">
        <ele>82.2</ele>
        <time>2021-07-05 16:58:10</time>
      </trkpt>
      <trkpt lat="28.12404" lon="-14.27201">
        <ele>82.2</ele>
        <time>2021-07-05 16:58:11</time>
      </trkpt>
      <trkpt lat="28.12407" lon="-14.27201">
        <ele>82.4</ele>
        <time>2021-07-05 16:58:12</time>
      </trkpt>
      <trkpt lat="28.12409" lon="-14.27202">
        <ele>82.4</ele>
        <time>2021-07-05 16:58:13</time>
      </trkpt>
      <trkpt lat="28.12411" lon="-14.27203">
        <ele>82.6</ele>
        <time>2021-07-05 16:58:14</time>
      </trkpt>
      <trkpt lat="28.12413" lon="-14.27203">
        <ele>82.6</ele>
        <time>2021-07-05 16:58:15</time>
      </trkpt>
      <trkpt lat="28.12415" lon="-14.27203">
        <ele>82.6</ele>
        <time>2021-07-05 16:58:16</time>
      </trkpt>
      <trkpt lat="28.12418" lon="-14.27204">
        <ele>82.6</ele>
        <time>2021-07-05 16:58:17</time>
      </trkpt>
      <trkpt lat="28.1242" lon="-14.27204">
        <ele>83</ele>
        <time>2021-07-05 16:58:18</time>
      </trkpt>
      <trkpt lat="28.12422" lon="-14.27204">
        <ele>83</ele>
        <time>2021-07-05 16:58:19</time>
      </trkpt>
      <trkpt lat="28.12424" lon="-14.27205">
        <ele>83</ele>
        <time>2021-07-05 16:58:20</time>
      </trkpt>
      <trkpt lat="28.12427" lon="-14.27205">
        <ele>83</ele>
        <time>2021-07-05 16:58:21</time>
      </trkpt>
      <trkpt lat="28.12429" lon="-14.27206">
        <ele>83</ele>
        <time>2021-07-05 16:58:22</time>
      </trkpt>
      <trkpt lat="28.12431" lon="-14.27206">
        <ele>83.2</ele>
        <time>2021-07-05 16:58:23</time>
      </trkpt>
      <trkpt lat="28.12434" lon="-14.27206">
        <ele>83.2</ele>
        <time>2021-07-05 16:58:24</time>
      </trkpt>
      <trkpt lat="28.12436" lon="-14.27207">
        <ele>83.2</ele>
        <time>2021-07-05 16:58:25</time>
      </trkpt>
      <trkpt lat="28.12438" lon="-14.27207">
        <ele>83.2</ele>
        <time>2021-07-05 16:58:26</time>
      </trkpt>
      <trkpt lat="28.1244" lon="-14.27208">
        <ele>83.4</ele>
        <time>2021-07-05 16:58:27</time>
      </trkpt>
      <trkpt lat="28.12442" lon="-14.27208">
        <ele>83.4</ele>
        <time>2021-07-05 16:58:28</time>
      </trkpt>
      <trkpt lat="28.12444" lon="-14.27209">
        <ele>83.6</ele>
        <time>2021-07-05 16:58:29</time>
      </trkpt>
      <trkpt lat="28.12447" lon="-14.27209">
        <ele>83.8</ele>
        <time>2021-07-05 16:58:30</time>
      </trkpt>
      <trkpt lat="28.12449" lon="-14.27209">
        <ele>83.8</ele>
        <time>2021-07-05 16:58:31</time>
      </trkpt>
      <trkpt lat="28.12451" lon="-14.2721">
        <ele>84.2</ele>
        <time>2021-07-05 16:58:32</time>
      </trkpt>
      <trkpt lat="28.12453" lon="-14.2721">
        <ele>84.2</ele>
        <time>2021-07-05 16:58:33</time>
      </trkpt>
      <trkpt lat="28.12455" lon="-14.27211">
        <ele>84.2</ele>
        <time>2021-07-05 16:58:34</time>
      </trkpt>
      <trkpt lat="28.12458" lon="-14.27211">
        <ele>84.4</ele>
        <time>2021-07-05 16:58:35</time>
      </trkpt>
      <trkpt lat="28.1246" lon="-14.27212">
        <ele>84.4</ele>
        <time>2021-07-05 16:58:36</time>
      </trkpt>
      <trkpt lat="28.12462" lon="-14.27212">
        <ele>84.4</ele>
        <time>2021-07-05 16:58:37</time>
      </trkpt>
      <trkpt lat="28.12465" lon="-14.27213">
        <ele>84.4</ele>
        <time>2021-07-05 16:58:38</time>
      </trkpt>
      <trkpt lat="28.12467" lon="-14.27213">
        <ele>84.6</ele>
        <time>2021-07-05 16:58:39</time>
      </trkpt>
      <trkpt lat="28.12469" lon="-14.27214">
        <ele>84.6</ele>
        <time>2021-07-05 16:58:40</time>
      </trkpt>
      <trkpt lat="28.12472" lon="-14.27214">
        <ele>85</ele>
        <time>2021-07-05 16:58:41</time>
      </trkpt>
      <trkpt lat="28.12474" lon="-14.27215">
        <ele>85</ele>
        <time>2021-07-05 16:58:42</time>
      </trkpt>
      <trkpt lat="28.12476" lon="-14.27215">
        <ele>85.2</ele>
        <time>2021-07-05 16:58:43</time>
      </trkpt>
      <trkpt lat="28.12479" lon="-14.27216">
        <ele>85.6</ele>
        <time>2021-07-05 16:58:44</time>
      </trkpt>
      <trkpt lat="28.12481" lon="-14.27216">
        <ele>85.6</ele>
        <time>2021-07-05 16:58:45</time>
      </trkpt>
      <trkpt lat="28.12483" lon="-14.27217">
        <ele>85.6</ele>
        <time>2021-07-05 16:58:46</time>
      </trkpt>
      <trkpt lat="28.12486" lon="-14.27218">
        <ele>85.8</ele>
        <time>2021-07-05 16:58:47</time>
      </trkpt>
      <trkpt lat="28.12488" lon="-14.27218">
        <ele>86.2</ele>
        <time>2021-07-05 16:58:48</time>
      </trkpt>
      <trkpt lat="28.12491" lon="-14.27219">
        <ele>86.2</ele>
        <time>2021-07-05 16:58:49</time>
      </trkpt>
      <trkpt lat="28.12493" lon="-14.27219">
        <ele>86.2</ele>
        <time>2021-07-05 16:58:50</time>
      </trkpt>
      <trkpt lat="28.12495" lon="-14.2722">
        <ele>86.4</ele>
        <time>2021-07-05 16:58:51</time>
      </trkpt>
      <trkpt lat="28.12497" lon="-14.2722">
        <ele>86.4</ele>
        <time>2021-07-05 16:58:52</time>
      </trkpt>
      <trkpt lat="28.125" lon="-14.27221">
        <ele>86.6</ele>
        <time>2021-07-05 16:58:53</time>
      </trkpt>
      <trkpt lat="28.12502" lon="-14.27221">
        <ele>86.6</ele>
        <time>2021-07-05 16:58:54</time>
      </trkpt>
      <trkpt lat="28.12504" lon="-14.27222">
        <ele>86.8</ele>
        <time>2021-07-05 16:58:55</time>
      </trkpt>
      <trkpt lat="28.12506" lon="-14.27222">
        <ele>86.8</ele>
        <time>2021-07-05 16:58:56</time>
      </trkpt>
      <trkpt lat="28.12508" lon="-14.27223">
        <ele>87.2</ele>
        <time>2021-07-05 16:58:57</time>
      </trkpt>
      <trkpt lat="28.12511" lon="-14.27223">
        <ele>87.2</ele>
        <time>2021-07-05 16:58:58</time>
      </trkpt>
      <trkpt lat="28.12513" lon="-14.27224">
        <ele>87.4</ele>
        <time>2021-07-05 16:58:59</time>
      </trkpt>
      <trkpt lat="28.12515" lon="-14.27224">
        <ele>87.4</ele>
        <time>2021-07-05 16:59:00</time>
      </trkpt>
      <trkpt lat="28.12517" lon="-14.27224">
        <ele>87.6</ele>
        <time>2021-07-05 16:59:01</time>
      </trkpt>
      <trkpt lat="28.12519" lon="-14.27225">
        <ele>87.6</ele>
        <time>2021-07-05 16:59:02</time>
      </trkpt>
      <trkpt lat="28.12521" lon="-14.27225">
        <ele>87.8</ele>
        <time>2021-07-05 16:59:03</time>
      </trkpt>
      <trkpt lat="28.12524" lon="-14.27226">
        <ele>88.2</ele>
        <time>2021-07-05 16:59:04</time>
      </trkpt>
      <trkpt lat="28.12526" lon="-14.27227">
        <ele>88.2</ele>
        <time>2021-07-05 16:59:05</time>
      </trkpt>
      <trkpt lat="28.12528" lon="-14.27227">
        <ele>88.2</ele>
        <time>2021-07-05 16:59:06</time>
      </trkpt>
      <trkpt lat="28.1253" lon="-14.27228">
        <ele>88.2</ele>
        <time>2021-07-05 16:59:07</time>
      </trkpt>
      <trkpt lat="28.12532" lon="-14.27228">
        <ele>88.2</ele>
        <time>2021-07-05 16:59:08</time>
      </trkpt>
      <trkpt lat="28.12535" lon="-14.27228">
        <ele>88.2</ele>
        <time>2021-07-05 16:59:09</time>
      </trkpt>
      <trkpt lat="28.12537" lon="-14.27229">
        <ele>88.2</ele>
        <time>2021-07-05 16:59:10</time>
      </trkpt>
      <trkpt lat="28.12539" lon="-14.27229">
        <ele>88.6</ele>
        <time>2021-07-05 16:59:11</time>
      </trkpt>
      <trkpt lat="28.12542" lon="-14.27229">
        <ele>88.6</ele>
        <time>2021-07-05 16:59:12</time>
      </trkpt>
      <trkpt lat="28.12544" lon="-14.27229">
        <ele>88.8</ele>
        <time>2021-07-05 16:59:13</time>
      </trkpt>
      <trkpt lat="28.12546" lon="-14.27229">
        <ele>88.8</ele>
        <time>2021-07-05 16:59:14</time>
      </trkpt>
      <trkpt lat="28.12549" lon="-14.2723">
        <ele>88.8</ele>
        <time>2021-07-05 16:59:15</time>
      </trkpt>
      <trkpt lat="28.12551" lon="-14.2723">
        <ele>89.2</ele>
        <time>2021-07-05 16:59:16</time>
      </trkpt>
      <trkpt lat="28.12553" lon="-14.2723">
        <ele>89.2</ele>
        <time>2021-07-05 16:59:17</time>
      </trkpt>
      <trkpt lat="28.12556" lon="-14.27231">
        <ele>89.2</ele>
        <time>2021-07-05 16:59:18</time>
      </trkpt>
      <trkpt lat="28.12558" lon="-14.27231">
        <ele>89.2</ele>
        <time>2021-07-05 16:59:19</time>
      </trkpt>
      <trkpt lat="28.1256" lon="-14.27231">
        <ele>89.4</ele>
        <time>2021-07-05 16:59:20</time>
      </trkpt>
      <trkpt lat="28.12562" lon="-14.2723">
        <ele>89.4</ele>
        <time>2021-07-05 16:59:21</time>
      </trkpt>
      <trkpt lat="28.12565" lon="-14.2723">
        <ele>89.4</ele>
        <time>2021-07-05 16:59:22</time>
      </trkpt>
      <trkpt lat="28.12567" lon="-14.2723">
        <ele>89.4</ele>
        <time>2021-07-05 16:59:23</time>
      </trkpt>
      <trkpt lat="28.12569" lon="-14.2723">
        <ele>89.4</ele>
        <time>2021-07-05 16:59:24</time>
      </trkpt>
      <trkpt lat="28.12572" lon="-14.2723">
        <ele>89.4</ele>
        <time>2021-07-05 16:59:25</time>
      </trkpt>
      <trkpt lat="28.12574" lon="-14.27229">
        <ele>89.4</ele>
        <time>2021-07-05 16:59:26</time>
      </trkpt>
      <trkpt lat="28.12576" lon="-14.27229">
        <ele>89.4</ele>
        <time>2021-07-05 16:59:27</time>
      </trkpt>
      <trkpt lat="28.12579" lon="-14.27228">
        <ele>89.4</ele>
        <time>2021-07-05 16:59:28</time>
      </trkpt>
      <trkpt lat="28.12581" lon="-14.27227">
        <ele>89.4</ele>
        <time>2021-07-05 16:59:29</time>
      </trkpt>
      <trkpt lat="28.12583" lon="-14.27226">
        <ele>89.4</ele>
        <time>2021-07-05 16:59:30</time>
      </trkpt>
      <trkpt lat="28.12586" lon="-14.27226">
        <ele>89.4</ele>
        <time>2021-07-05 16:59:31</time>
      </trkpt>
      <trkpt lat="28.12589" lon="-14.27225">
        <ele>89.4</ele>
        <time>2021-07-05 16:59:32</time>
      </trkpt>
      <trkpt lat="28.12591" lon="-14.27224">
        <ele>89.4</ele>
        <time>2021-07-05 16:59:33</time>
      </trkpt>
      <trkpt lat="28.12593" lon="-14.27223">
        <ele>89.4</ele>
        <time>2021-07-05 16:59:34</time>
      </trkpt>
      <trkpt lat="28.12596" lon="-14.27222">
        <ele>89.6</ele>
        <time>2021-07-05 16:59:35</time>
      </trkpt>
      <trkpt lat="28.12598" lon="-14.27221">
        <ele>89.6</ele>
        <time>2021-07-05 16:59:36</time>
      </trkpt>
      <trkpt lat="28.12601" lon="-14.2722">
        <ele>89.6</ele>
        <time>2021-07-05 16:59:37</time>
      </trkpt>
      <trkpt lat="28.12605" lon="-14.27218">
        <ele>89.6</ele>
        <time>2021-07-05 16:59:38</time>
      </trkpt>
      <trkpt lat="28.12608" lon="-14.27217">
        <ele>89.6</ele>
        <time>2021-07-05 16:59:39</time>
      </trkpt>
      <trkpt lat="28.1261" lon="-14.27216">
        <ele>89.6</ele>
        <time>2021-07-05 16:59:40</time>
      </trkpt>
      <trkpt lat="28.12612" lon="-14.27215">
        <ele>89.6</ele>
        <time>2021-07-05 16:59:41</time>
      </trkpt>
      <trkpt lat="28.12615" lon="-14.27214">
        <ele>89.6</ele>
        <time>2021-07-05 16:59:42</time>
      </trkpt>
      <trkpt lat="28.12617" lon="-14.27213">
        <ele>89.6</ele>
        <time>2021-07-05 16:59:43</time>
      </trkpt>
      <trkpt lat="28.1262" lon="-14.27212">
        <ele>89.6</ele>
        <time>2021-07-05 16:59:44</time>
      </trkpt>
      <trkpt lat="28.12623" lon="-14.27211">
        <ele>89.6</ele>
        <time>2021-07-05 16:59:45</time>
      </trkpt>
      <trkpt lat="28.12625" lon="-14.2721">
        <ele>89.6</ele>
        <time>2021-07-05 16:59:46</time>
      </trkpt>
      <trkpt lat="28.12628" lon="-14.27209">
        <ele>89.6</ele>
        <time>2021-07-05 16:59:47</time>
      </trkpt>
      <trkpt lat="28.12631" lon="-14.27208">
        <ele>89.6</ele>
        <time>2021-07-05 16:59:48</time>
      </trkpt>
      <trkpt lat="28.12634" lon="-14.27207">
        <ele>89.8</ele>
        <time>2021-07-05 16:59:49</time>
      </trkpt>
      <trkpt lat="28.12636" lon="-14.27206">
        <ele>89.8</ele>
        <time>2021-07-05 16:59:50</time>
      </trkpt>
      <trkpt lat="28.12639" lon="-14.27205">
        <ele>89.8</ele>
        <time>2021-07-05 16:59:51</time>
      </trkpt>
      <trkpt lat="28.12642" lon="-14.27204">
        <ele>89.8</ele>
        <time>2021-07-05 16:59:52</time>
      </trkpt>
      <trkpt lat="28.12645" lon="-14.27203">
        <ele>89.8</ele>
        <time>2021-07-05 16:59:53</time>
      </trkpt>
      <trkpt lat="28.12648" lon="-14.27202">
        <ele>89.8</ele>
        <time>2021-07-05 16:59:54</time>
      </trkpt>
      <trkpt lat="28.12651" lon="-14.272">
        <ele>89.8</ele>
        <time>2021-07-05 16:59:55</time>
      </trkpt>
      <trkpt lat="28.12654" lon="-14.27199">
        <ele>89.8</ele>
        <time>2021-07-05 16:59:56</time>
      </trkpt>
      <trkpt lat="28.12657" lon="-14.27198">
        <ele>89.8</ele>
        <time>2021-07-05 16:59:57</time>
      </trkpt>
      <trkpt lat="28.1266" lon="-14.27197">
        <ele>89.6</ele>
        <time>2021-07-05 16:59:58</time>
      </trkpt>
      <trkpt lat="28.12663" lon="-14.27196">
        <ele>89.6</ele>
        <time>2021-07-05 16:59:59</time>
      </trkpt>
      <trkpt lat="28.12666" lon="-14.27195">
        <ele>89.6</ele>
        <time>2021-07-05 17:00:00</time>
      </trkpt>
      <trkpt lat="28.12669" lon="-14.27194">
        <ele>89.4</ele>
        <time>2021-07-05 17:00:01</time>
      </trkpt>
      <trkpt lat="28.12672" lon="-14.27193">
        <ele>89.4</ele>
        <time>2021-07-05 17:00:02</time>
      </trkpt>
      <trkpt lat="28.12675" lon="-14.27192">
        <ele>89.4</ele>
        <time>2021-07-05 17:00:03</time>
      </trkpt>
      <trkpt lat="28.12678" lon="-14.27191">
        <ele>89</ele>
        <time>2021-07-05 17:00:04</time>
      </trkpt>
      <trkpt lat="28.12681" lon="-14.2719">
        <ele>89</ele>
        <time>2021-07-05 17:00:05</time>
      </trkpt>
      <trkpt lat="28.12684" lon="-14.27189">
        <ele>89</ele>
        <time>2021-07-05 17:00:06</time>
      </trkpt>
      <trkpt lat="28.12688" lon="-14.27187">
        <ele>89</ele>
        <time>2021-07-05 17:00:07</time>
      </trkpt>
      <trkpt lat="28.12691" lon="-14.27186">
        <ele>89</ele>
        <time>2021-07-05 17:00:08</time>
      </trkpt>
      <trkpt lat="28.12694" lon="-14.27184">
        <ele>89</ele>
        <time>2021-07-05 17:00:09</time>
      </trkpt>
      <trkpt lat="28.12697" lon="-14.27183">
        <ele>89</ele>
        <time>2021-07-05 17:00:10</time>
      </trkpt>
      <trkpt lat="28.127" lon="-14.27182">
        <ele>89</ele>
        <time>2021-07-05 17:00:11</time>
      </trkpt>
      <trkpt lat="28.12703" lon="-14.27181">
        <ele>89</ele>
        <time>2021-07-05 17:00:12</time>
      </trkpt>
      <trkpt lat="28.12706" lon="-14.2718">
        <ele>89</ele>
        <time>2021-07-05 17:00:13</time>
      </trkpt>
      <trkpt lat="28.12709" lon="-14.27179">
        <ele>89</ele>
        <time>2021-07-05 17:00:14</time>
      </trkpt>
      <trkpt lat="28.12712" lon="-14.27178">
        <ele>89</ele>
        <time>2021-07-05 17:00:15</time>
      </trkpt>
      <trkpt lat="28.12715" lon="-14.27177">
        <ele>89</ele>
        <time>2021-07-05 17:00:16</time>
      </trkpt>
      <trkpt lat="28.12718" lon="-14.27176">
        <ele>89</ele>
        <time>2021-07-05 17:00:17</time>
      </trkpt>
      <trkpt lat="28.12721" lon="-14.27175">
        <ele>88.6</ele>
        <time>2021-07-05 17:00:18</time>
      </trkpt>
      <trkpt lat="28.12724" lon="-14.27174">
        <ele>88.6</ele>
        <time>2021-07-05 17:00:19</time>
      </trkpt>
      <trkpt lat="28.12727" lon="-14.27173">
        <ele>88.6</ele>
        <time>2021-07-05 17:00:20</time>
      </trkpt>
      <trkpt lat="28.1273" lon="-14.27171">
        <ele>88.6</ele>
        <time>2021-07-05 17:00:21</time>
      </trkpt>
      <trkpt lat="28.12733" lon="-14.2717">
        <ele>88.6</ele>
        <time>2021-07-05 17:00:22</time>
      </trkpt>
      <trkpt lat="28.12735" lon="-14.27169">
        <ele>88.6</ele>
        <time>2021-07-05 17:00:23</time>
      </trkpt>
      <trkpt lat="28.12738" lon="-14.27168">
        <ele>88.6</ele>
        <time>2021-07-05 17:00:24</time>
      </trkpt>
      <trkpt lat="28.12741" lon="-14.27167">
        <ele>88.6</ele>
        <time>2021-07-05 17:00:25</time>
      </trkpt>
      <trkpt lat="28.12745" lon="-14.27166">
        <ele>88.6</ele>
        <time>2021-07-05 17:00:26</time>
      </trkpt>
      <trkpt lat="28.12747" lon="-14.27165">
        <ele>88.6</ele>
        <time>2021-07-05 17:00:27</time>
      </trkpt>
      <trkpt lat="28.1275" lon="-14.27164">
        <ele>88.6</ele>
        <time>2021-07-05 17:00:28</time>
      </trkpt>
      <trkpt lat="28.12753" lon="-14.27163">
        <ele>88.6</ele>
        <time>2021-07-05 17:00:29</time>
      </trkpt>
      <trkpt lat="28.12756" lon="-14.27162">
        <ele>88.6</ele>
        <time>2021-07-05 17:00:30</time>
      </trkpt>
      <trkpt lat="28.12759" lon="-14.27161">
        <ele>88.6</ele>
        <time>2021-07-05 17:00:31</time>
      </trkpt>
      <trkpt lat="28.12762" lon="-14.2716">
        <ele>88.6</ele>
        <time>2021-07-05 17:00:32</time>
      </trkpt>
      <trkpt lat="28.12765" lon="-14.27159">
        <ele>88.6</ele>
        <time>2021-07-05 17:00:33</time>
      </trkpt>
      <trkpt lat="28.12768" lon="-14.27158">
        <ele>88.6</ele>
        <time>2021-07-05 17:00:34</time>
      </trkpt>
      <trkpt lat="28.12771" lon="-14.27157">
        <ele>88.6</ele>
        <time>2021-07-05 17:00:35</time>
      </trkpt>
      <trkpt lat="28.12773" lon="-14.27156">
        <ele>88.4</ele>
        <time>2021-07-05 17:00:36</time>
      </trkpt>
      <trkpt lat="28.12777" lon="-14.27155">
        <ele>88.4</ele>
        <time>2021-07-05 17:00:37</time>
      </trkpt>
      <trkpt lat="28.1278" lon="-14.27154">
        <ele>88.2</ele>
        <time>2021-07-05 17:00:38</time>
      </trkpt>
      <trkpt lat="28.12782" lon="-14.27153">
        <ele>88.2</ele>
        <time>2021-07-05 17:00:39</time>
      </trkpt>
      <trkpt lat="28.12785" lon="-14.27152">
        <ele>88.2</ele>
        <time>2021-07-05 17:00:40</time>
      </trkpt>
      <trkpt lat="28.12788" lon="-14.27151">
        <ele>88.4</ele>
        <time>2021-07-05 17:00:41</time>
      </trkpt>
      <trkpt lat="28.12791" lon="-14.2715">
        <ele>88.4</ele>
        <time>2021-07-05 17:00:42</time>
      </trkpt>
      <trkpt lat="28.12793" lon="-14.27149">
        <ele>88.6</ele>
        <time>2021-07-05 17:00:43</time>
      </trkpt>
      <trkpt lat="28.12796" lon="-14.27148">
        <ele>88.6</ele>
        <time>2021-07-05 17:00:44</time>
      </trkpt>
      <trkpt lat="28.12799" lon="-14.27147">
        <ele>88.6</ele>
        <time>2021-07-05 17:00:45</time>
      </trkpt>
      <trkpt lat="28.12802" lon="-14.27146">
        <ele>88.6</ele>
        <time>2021-07-05 17:00:46</time>
      </trkpt>
      <trkpt lat="28.12805" lon="-14.27146">
        <ele>88.6</ele>
        <time>2021-07-05 17:00:47</time>
      </trkpt>
      <trkpt lat="28.12807" lon="-14.27145">
        <ele>88.6</ele>
        <time>2021-07-05 17:00:48</time>
      </trkpt>
      <trkpt lat="28.1281" lon="-14.27144">
        <ele>88.8</ele>
        <time>2021-07-05 17:00:49</time>
      </trkpt>
      <trkpt lat="28.12813" lon="-14.27144">
        <ele>88.8</ele>
        <time>2021-07-05 17:00:50</time>
      </trkpt>
      <trkpt lat="28.12816" lon="-14.27145">
        <ele>89.4</ele>
        <time>2021-07-05 17:00:51</time>
      </trkpt>
      <trkpt lat="28.12818" lon="-14.27145">
        <ele>89.4</ele>
        <time>2021-07-05 17:00:52</time>
      </trkpt>
      <trkpt lat="28.1282" lon="-14.27146">
        <ele>89.4</ele>
        <time>2021-07-05 17:00:53</time>
      </trkpt>
      <trkpt lat="28.12823" lon="-14.27147">
        <ele>89.4</ele>
        <time>2021-07-05 17:00:54</time>
      </trkpt>
      <trkpt lat="28.12824" lon="-14.27148">
        <ele>89.4</ele>
        <time>2021-07-05 17:00:55</time>
      </trkpt>
      <trkpt lat="28.12825" lon="-14.27149">
        <ele>89.4</ele>
        <time>2021-07-05 17:00:56</time>
      </trkpt>
      <trkpt lat="28.12826" lon="-14.27151">
        <ele>90</ele>
        <time>2021-07-05 17:00:57</time>
      </trkpt>
      <trkpt lat="28.12825" lon="-14.27153">
        <ele>90.6</ele>
        <time>2021-07-05 17:00:58</time>
      </trkpt>
      <trkpt lat="28.12824" lon="-14.27155">
        <ele>91</ele>
        <time>2021-07-05 17:00:59</time>
      </trkpt>
      <trkpt lat="28.12822" lon="-14.27156">
        <ele>91.2</ele>
        <time>2021-07-05 17:01:00</time>
      </trkpt>
      <trkpt lat="28.1282" lon="-14.27158">
        <ele>91.2</ele>
        <time>2021-07-05 17:01:01</time>
      </trkpt>
      <trkpt lat="28.12819" lon="-14.27159">
        <ele>91.4</ele>
        <time>2021-07-05 17:01:02</time>
      </trkpt>
      <trkpt lat="28.12819" lon="-14.27159">
        <ele>91.4</ele>
        <time>2021-07-05 17:01:03</time>
      </trkpt>
      <trkpt lat="28.12819" lon="-14.27159">
        <ele>91.4</ele>
        <time>2021-07-05 17:01:04</time>
      </trkpt>
      <trkpt lat="28.12819" lon="-14.27159">
        <ele>91.2</ele>
        <time>2021-07-05 17:01:05</time>
      </trkpt>
      <trkpt lat="28.12819" lon="-14.27161">
        <ele>91.2</ele>
        <time>2021-07-05 17:01:06</time>
      </trkpt>
      <trkpt lat="28.12817" lon="-14.27162">
        <ele>91.2</ele>
        <time>2021-07-05 17:01:07</time>
      </trkpt>
      <trkpt lat="28.12816" lon="-14.27164">
        <ele>91.2</ele>
        <time>2021-07-05 17:01:22</time>
      </trkpt>
      <trkpt lat="28.12815" lon="-14.27166">
        <ele>91.2</ele>
        <time>2021-07-05 17:01:23</time>
      </trkpt>
      <trkpt lat="28.12813" lon="-14.27169">
        <ele>91.2</ele>
        <time>2021-07-05 17:01:24</time>
      </trkpt>
      <trkpt lat="28.12813" lon="-14.27172">
        <ele>91.2</ele>
        <time>2021-07-05 17:01:25</time>
      </trkpt>
      <trkpt lat="28.12812" lon="-14.27176">
        <ele>91.2</ele>
        <time>2021-07-05 17:01:26</time>
      </trkpt>
      <trkpt lat="28.12812" lon="-14.2718">
        <ele>91.2</ele>
        <time>2021-07-05 17:01:27</time>
      </trkpt>
      <trkpt lat="28.12812" lon="-14.27184">
        <ele>91.2</ele>
        <time>2021-07-05 17:01:28</time>
      </trkpt>
      <trkpt lat="28.12809" lon="-14.27187">
        <ele>91.2</ele>
        <time>2021-07-05 17:01:29</time>
      </trkpt>
      <trkpt lat="28.12805" lon="-14.27189">
        <ele>91.2</ele>
        <time>2021-07-05 17:01:30</time>
      </trkpt>
      <trkpt lat="28.12801" lon="-14.2719">
        <ele>90.8</ele>
        <time>2021-07-05 17:01:31</time>
      </trkpt>
      <trkpt lat="28.12797" lon="-14.27193">
        <ele>90.4</ele>
        <time>2021-07-05 17:01:32</time>
      </trkpt>
      <trkpt lat="28.12792" lon="-14.27197">
        <ele>89.6</ele>
        <time>2021-07-05 17:01:33</time>
      </trkpt>
      <trkpt lat="28.12788" lon="-14.27201">
        <ele>89.6</ele>
        <time>2021-07-05 17:01:34</time>
      </trkpt>
      <trkpt lat="28.12784" lon="-14.27206">
        <ele>89.4</ele>
        <time>2021-07-05 17:01:35</time>
      </trkpt>
      <trkpt lat="28.12779" lon="-14.27211">
        <ele>89.6</ele>
        <time>2021-07-05 17:01:36</time>
      </trkpt>
      <trkpt lat="28.12775" lon="-14.27218">
        <ele>89.6</ele>
        <time>2021-07-05 17:01:37</time>
      </trkpt>
      <trkpt lat="28.12771" lon="-14.27224">
        <ele>89</ele>
        <time>2021-07-05 17:01:38</time>
      </trkpt>
      <trkpt lat="28.12766" lon="-14.2723">
        <ele>89</ele>
        <time>2021-07-05 17:01:39</time>
      </trkpt>
      <trkpt lat="28.12761" lon="-14.27236">
        <ele>88.6</ele>
        <time>2021-07-05 17:01:40</time>
      </trkpt>
      <trkpt lat="28.12755" lon="-14.27242">
        <ele>87.6</ele>
        <time>2021-07-05 17:01:41</time>
      </trkpt>
      <trkpt lat="28.12748" lon="-14.27248">
        <ele>87.6</ele>
        <time>2021-07-05 17:01:42</time>
      </trkpt>
      <trkpt lat="28.12742" lon="-14.27255">
        <ele>86.4</ele>
        <time>2021-07-05 17:01:43</time>
      </trkpt>
      <trkpt lat="28.12734" lon="-14.2726">
        <ele>86.4</ele>
        <time>2021-07-05 17:01:44</time>
      </trkpt>
      <trkpt lat="28.12726" lon="-14.27265">
        <ele>85.6</ele>
        <time>2021-07-05 17:01:45</time>
      </trkpt>
      <trkpt lat="28.12718" lon="-14.27269">
        <ele>84.4</ele>
        <time>2021-07-05 17:01:46</time>
      </trkpt>
      <trkpt lat="28.12709" lon="-14.27273">
        <ele>84.4</ele>
        <time>2021-07-05 17:01:47</time>
      </trkpt>
      <trkpt lat="28.12701" lon="-14.27277">
        <ele>83.4</ele>
        <time>2021-07-05 17:01:48</time>
      </trkpt>
      <trkpt lat="28.12691" lon="-14.27281">
        <ele>83.4</ele>
        <time>2021-07-05 17:01:49</time>
      </trkpt>
      <trkpt lat="28.12682" lon="-14.27285">
        <ele>82.8</ele>
        <time>2021-07-05 17:01:50</time>
      </trkpt>
      <trkpt lat="28.12673" lon="-14.27289">
        <ele>81.6</ele>
        <time>2021-07-05 17:01:51</time>
      </trkpt>
      <trkpt lat="28.12663" lon="-14.27293">
        <ele>81.6</ele>
        <time>2021-07-05 17:01:52</time>
      </trkpt>
      <trkpt lat="28.12654" lon="-14.27297">
        <ele>80.4</ele>
        <time>2021-07-05 17:01:53</time>
      </trkpt>
      <trkpt lat="28.12645" lon="-14.27301">
        <ele>80.4</ele>
        <time>2021-07-05 17:01:54</time>
      </trkpt>
      <trkpt lat="28.12635" lon="-14.27306">
        <ele>79.8</ele>
        <time>2021-07-05 17:01:55</time>
      </trkpt>
      <trkpt lat="28.12625" lon="-14.2731">
        <ele>78.8</ele>
        <time>2021-07-05 17:01:56</time>
      </trkpt>
      <trkpt lat="28.12615" lon="-14.27314">
        <ele>78.8</ele>
        <time>2021-07-05 17:01:57</time>
      </trkpt>
      <trkpt lat="28.12606" lon="-14.27319">
        <ele>78</ele>
        <time>2021-07-05 17:01:58</time>
      </trkpt>
      <trkpt lat="28.12596" lon="-14.27323">
        <ele>77.6</ele>
        <time>2021-07-05 17:01:59</time>
      </trkpt>
      <trkpt lat="28.12586" lon="-14.27327">
        <ele>77</ele>
        <time>2021-07-05 17:02:00</time>
      </trkpt>
      <trkpt lat="28.12576" lon="-14.27332">
        <ele>76</ele>
        <time>2021-07-05 17:02:01</time>
      </trkpt>
      <trkpt lat="28.12566" lon="-14.27337">
        <ele>76</ele>
        <time>2021-07-05 17:02:02</time>
      </trkpt>
      <trkpt lat="28.12556" lon="-14.27342">
        <ele>75.2</ele>
        <time>2021-07-05 17:02:03</time>
      </trkpt>
      <trkpt lat="28.12546" lon="-14.27347">
        <ele>75.2</ele>
        <time>2021-07-05 17:02:04</time>
      </trkpt>
      <trkpt lat="28.12536" lon="-14.27352">
        <ele>74.8</ele>
        <time>2021-07-05 17:02:05</time>
      </trkpt>
      <trkpt lat="28.12525" lon="-14.27356">
        <ele>73.8</ele>
        <time>2021-07-05 17:02:06</time>
      </trkpt>
      <trkpt lat="28.12515" lon="-14.27361">
        <ele>73.8</ele>
        <time>2021-07-05 17:02:07</time>
      </trkpt>
      <trkpt lat="28.12505" lon="-14.27366">
        <ele>73</ele>
        <time>2021-07-05 17:02:08</time>
      </trkpt>
      <trkpt lat="28.12495" lon="-14.27371">
        <ele>73</ele>
        <time>2021-07-05 17:02:09</time>
      </trkpt>
      <trkpt lat="28.12485" lon="-14.27375">
        <ele>72.2</ele>
        <time>2021-07-05 17:02:10</time>
      </trkpt>
      <trkpt lat="28.12475" lon="-14.2738">
        <ele>72.2</ele>
        <time>2021-07-05 17:02:11</time>
      </trkpt>
      <trkpt lat="28.12465" lon="-14.27385">
        <ele>71.8</ele>
        <time>2021-07-05 17:02:12</time>
      </trkpt>
      <trkpt lat="28.12455" lon="-14.2739">
        <ele>71.6</ele>
        <time>2021-07-05 17:02:13</time>
      </trkpt>
      <trkpt lat="28.12446" lon="-14.27395">
        <ele>71.6</ele>
        <time>2021-07-05 17:02:14</time>
      </trkpt>
      <trkpt lat="28.12436" lon="-14.27399">
        <ele>71.6</ele>
        <time>2021-07-05 17:02:15</time>
      </trkpt>
      <trkpt lat="28.12427" lon="-14.27404">
        <ele>71.6</ele>
        <time>2021-07-05 17:02:16</time>
      </trkpt>
      <trkpt lat="28.12418" lon="-14.27408">
        <ele>71.6</ele>
        <time>2021-07-05 17:02:17</time>
      </trkpt>
      <trkpt lat="28.1241" lon="-14.27412">
        <ele>71.4</ele>
        <time>2021-07-05 17:02:18</time>
      </trkpt>
      <trkpt lat="28.12401" lon="-14.27417">
        <ele>71.4</ele>
        <time>2021-07-05 17:02:19</time>
      </trkpt>
      <trkpt lat="28.12393" lon="-14.27421">
        <ele>71</ele>
        <time>2021-07-05 17:02:20</time>
      </trkpt>
      <trkpt lat="28.12384" lon="-14.27426">
        <ele>71</ele>
        <time>2021-07-05 17:02:21</time>
      </trkpt>
      <trkpt lat="28.12376" lon="-14.2743">
        <ele>70.6</ele>
        <time>2021-07-05 17:02:22</time>
      </trkpt>
      <trkpt lat="28.12367" lon="-14.27435">
        <ele>69.4</ele>
        <time>2021-07-05 17:02:23</time>
      </trkpt>
      <trkpt lat="28.12359" lon="-14.27439">
        <ele>69.4</ele>
        <time>2021-07-05 17:02:24</time>
      </trkpt>
      <trkpt lat="28.1235" lon="-14.27444">
        <ele>68.8</ele>
        <time>2021-07-05 17:02:25</time>
      </trkpt>
      <trkpt lat="28.12341" lon="-14.27449">
        <ele>68.2</ele>
        <time>2021-07-05 17:02:26</time>
      </trkpt>
      <trkpt lat="28.12333" lon="-14.27453">
        <ele>67.4</ele>
        <time>2021-07-05 17:02:27</time>
      </trkpt>
      <trkpt lat="28.12324" lon="-14.27458">
        <ele>66.4</ele>
        <time>2021-07-05 17:02:28</time>
      </trkpt>
      <trkpt lat="28.12315" lon="-14.27463">
        <ele>66.4</ele>
        <time>2021-07-05 17:02:29</time>
      </trkpt>
      <trkpt lat="28.12306" lon="-14.27468">
        <ele>65.8</ele>
        <time>2021-07-05 17:02:30</time>
      </trkpt>
      <trkpt lat="28.12297" lon="-14.27473">
        <ele>65.4</ele>
        <time>2021-07-05 17:02:31</time>
      </trkpt>
      <trkpt lat="28.12288" lon="-14.27478">
        <ele>64.6</ele>
        <time>2021-07-05 17:02:32</time>
      </trkpt>
      <trkpt lat="28.12279" lon="-14.27483">
        <ele>64.6</ele>
        <time>2021-07-05 17:02:33</time>
      </trkpt>
      <trkpt lat="28.1227" lon="-14.27488">
        <ele>64.2</ele>
        <time>2021-07-05 17:02:34</time>
      </trkpt>
      <trkpt lat="28.12261" lon="-14.27493">
        <ele>64</ele>
        <time>2021-07-05 17:02:35</time>
      </trkpt>
      <trkpt lat="28.12252" lon="-14.27498">
        <ele>63.6</ele>
        <time>2021-07-05 17:02:36</time>
      </trkpt>
      <trkpt lat="28.12243" lon="-14.27503">
        <ele>63.4</ele>
        <time>2021-07-05 17:02:37</time>
      </trkpt>
      <trkpt lat="28.12234" lon="-14.27508">
        <ele>63.4</ele>
        <time>2021-07-05 17:02:38</time>
      </trkpt>
      <trkpt lat="28.12225" lon="-14.27513">
        <ele>63</ele>
        <time>2021-07-05 17:02:39</time>
      </trkpt>
      <trkpt lat="28.12217" lon="-14.27518">
        <ele>62.6</ele>
        <time>2021-07-05 17:02:40</time>
      </trkpt>
      <trkpt lat="28.12209" lon="-14.27523">
        <ele>62.2</ele>
        <time>2021-07-05 17:02:41</time>
      </trkpt>
      <trkpt lat="28.12202" lon="-14.27527">
        <ele>62</ele>
        <time>2021-07-05 17:02:42</time>
      </trkpt>
      <trkpt lat="28.12194" lon="-14.27532">
        <ele>62</ele>
        <time>2021-07-05 17:02:43</time>
      </trkpt>
      <trkpt lat="28.12187" lon="-14.27536">
        <ele>62</ele>
        <time>2021-07-05 17:02:44</time>
      </trkpt>
      <trkpt lat="28.1218" lon="-14.2754">
        <ele>61.6</ele>
        <time>2021-07-05 17:02:45</time>
      </trkpt>
      <trkpt lat="28.12174" lon="-14.27544">
        <ele>61.6</ele>
        <time>2021-07-05 17:02:46</time>
      </trkpt>
      <trkpt lat="28.12168" lon="-14.27548">
        <ele>61.4</ele>
        <time>2021-07-05 17:02:47</time>
      </trkpt>
      <trkpt lat="28.12162" lon="-14.27551">
        <ele>61.2</ele>
        <time>2021-07-05 17:02:48</time>
      </trkpt>
      <trkpt lat="28.12156" lon="-14.27555">
        <ele>61.2</ele>
        <time>2021-07-05 17:02:49</time>
      </trkpt>
      <trkpt lat="28.12151" lon="-14.27558">
        <ele>61.2</ele>
        <time>2021-07-05 17:02:50</time>
      </trkpt>
      <trkpt lat="28.12145" lon="-14.27561">
        <ele>61.2</ele>
        <time>2021-07-05 17:02:51</time>
      </trkpt>
      <trkpt lat="28.12139" lon="-14.27564">
        <ele>61.2</ele>
        <time>2021-07-05 17:02:52</time>
      </trkpt>
      <trkpt lat="28.12134" lon="-14.27568">
        <ele>60.8</ele>
        <time>2021-07-05 17:02:53</time>
      </trkpt>
      <trkpt lat="28.12129" lon="-14.27571">
        <ele>60.8</ele>
        <time>2021-07-05 17:02:54</time>
      </trkpt>
      <trkpt lat="28.12123" lon="-14.27574">
        <ele>60.8</ele>
        <time>2021-07-05 17:02:55</time>
      </trkpt>
      <trkpt lat="28.12118" lon="-14.27578">
        <ele>60.8</ele>
        <time>2021-07-05 17:02:56</time>
      </trkpt>
      <trkpt lat="28.12113" lon="-14.2758">
        <ele>60.8</ele>
        <time>2021-07-05 17:02:57</time>
      </trkpt>
      <trkpt lat="28.12108" lon="-14.27583">
        <ele>60.8</ele>
        <time>2021-07-05 17:02:58</time>
      </trkpt>
      <trkpt lat="28.12103" lon="-14.27586">
        <ele>60.8</ele>
        <time>2021-07-05 17:02:59</time>
      </trkpt>
      <trkpt lat="28.12098" lon="-14.27589">
        <ele>61.2</ele>
        <time>2021-07-05 17:03:00</time>
      </trkpt>
      <trkpt lat="28.12093" lon="-14.27591">
        <ele>61.2</ele>
        <time>2021-07-05 17:03:01</time>
      </trkpt>
      <trkpt lat="28.12088" lon="-14.27593">
        <ele>61.4</ele>
        <time>2021-07-05 17:03:02</time>
      </trkpt>
      <trkpt lat="28.12083" lon="-14.27595">
        <ele>61.4</ele>
        <time>2021-07-05 17:03:03</time>
      </trkpt>
      <trkpt lat="28.12078" lon="-14.27597">
        <ele>61.4</ele>
        <time>2021-07-05 17:03:04</time>
      </trkpt>
      <trkpt lat="28.12072" lon="-14.27599">
        <ele>61.6</ele>
        <time>2021-07-05 17:03:05</time>
      </trkpt>
      <trkpt lat="28.12067" lon="-14.27601">
        <ele>61.6</ele>
        <time>2021-07-05 17:03:06</time>
      </trkpt>
      <trkpt lat="28.12062" lon="-14.27603">
        <ele>61.6</ele>
        <time>2021-07-05 17:03:07</time>
      </trkpt>
      <trkpt lat="28.12058" lon="-14.27607">
        <ele>61.6</ele>
        <time>2021-07-05 17:03:08</time>
      </trkpt>
      <trkpt lat="28.12054" lon="-14.27612">
        <ele>61.6</ele>
        <time>2021-07-05 17:03:09</time>
      </trkpt>
      <trkpt lat="28.12052" lon="-14.27618">
        <ele>62</ele>
        <time>2021-07-05 17:03:10</time>
      </trkpt>
      <trkpt lat="28.12051" lon="-14.27625">
        <ele>62</ele>
        <time>2021-07-05 17:03:11</time>
      </trkpt>
      <trkpt lat="28.12051" lon="-14.27631">
        <ele>62</ele>
        <time>2021-07-05 17:03:12</time>
      </trkpt>
      <trkpt lat="28.12051" lon="-14.27637">
        <ele>63</ele>
        <time>2021-07-05 17:03:13</time>
      </trkpt>
      <trkpt lat="28.12051" lon="-14.27644">
        <ele>63</ele>
        <time>2021-07-05 17:03:14</time>
      </trkpt>
      <trkpt lat="28.12051" lon="-14.2765">
        <ele>63.6</ele>
        <time>2021-07-05 17:03:15</time>
      </trkpt>
      <trkpt lat="28.1205" lon="-14.27653">
        <ele>64.6</ele>
        <time>2021-07-05 17:03:16</time>
      </trkpt>
      <trkpt lat="28.1205" lon="-14.27657">
        <ele>64.6</ele>
        <time>2021-07-05 17:03:17</time>
      </trkpt>
      <trkpt lat="28.12055" lon="-14.27661">
        <ele>65</ele>
        <time>2021-07-05 17:03:18</time>
      </trkpt>
      <trkpt lat="28.12055" lon="-14.27663">
        <ele>65</ele>
        <time>2021-07-05 17:03:19</time>
      </trkpt>
      <trkpt lat="28.12053" lon="-14.27664">
        <ele>64.6</ele>
        <time>2021-07-05 17:03:20</time>
      </trkpt>
      <trkpt lat="28.12052" lon="-14.27669">
        <ele>64.4</ele>
        <time>2021-07-05 17:03:21</time>
      </trkpt>
      <trkpt lat="28.12052" lon="-14.27672">
        <ele>63.8</ele>
        <time>2021-07-05 17:03:22</time>
      </trkpt>
      <trkpt lat="28.12052" lon="-14.27676">
        <ele>63.6</ele>
        <time>2021-07-05 17:03:23</time>
      </trkpt>
      <trkpt lat="28.1205" lon="-14.2768">
        <ele>63.2</ele>
        <time>2021-07-05 17:03:24</time>
      </trkpt>
      <trkpt lat="28.12048" lon="-14.27683">
        <ele>63.2</ele>
        <time>2021-07-05 17:03:25</time>
      </trkpt>
      <trkpt lat="28.12045" lon="-14.27686">
        <ele>63.2</ele>
        <time>2021-07-05 17:03:26</time>
      </trkpt>
      <trkpt lat="28.12042" lon="-14.27689">
        <ele>63.2</ele>
        <time>2021-07-05 17:03:27</time>
      </trkpt>
      <trkpt lat="28.12039" lon="-14.27691">
        <ele>63.6</ele>
        <time>2021-07-05 17:03:28</time>
      </trkpt>
      <trkpt lat="28.12036" lon="-14.27693">
        <ele>63.8</ele>
        <time>2021-07-05 17:03:29</time>
      </trkpt>
      <trkpt lat="28.12034" lon="-14.27695">
        <ele>64</ele>
        <time>2021-07-05 17:03:30</time>
      </trkpt>
      <trkpt lat="28.12031" lon="-14.27697">
        <ele>64.2</ele>
        <time>2021-07-05 17:03:31</time>
      </trkpt>
      <trkpt lat="28.12029" lon="-14.27699">
        <ele>64.2</ele>
        <time>2021-07-05 17:03:32</time>
      </trkpt>
      <trkpt lat="28.12026" lon="-14.27701">
        <ele>64.6</ele>
        <time>2021-07-05 17:03:33</time>
      </trkpt>
      <trkpt lat="28.12024" lon="-14.27703">
        <ele>65</ele>
        <time>2021-07-05 17:03:34</time>
      </trkpt>
      <trkpt lat="28.12022" lon="-14.27705">
        <ele>65.2</ele>
        <time>2021-07-05 17:03:35</time>
      </trkpt>
      <trkpt lat="28.12019" lon="-14.27706">
        <ele>65.6</ele>
        <time>2021-07-05 17:03:36</time>
      </trkpt>
      <trkpt lat="28.12017" lon="-14.27708">
        <ele>65.8</ele>
        <time>2021-07-05 17:03:37</time>
      </trkpt>
      <trkpt lat="28.12015" lon="-14.2771">
        <ele>66.2</ele>
        <time>2021-07-05 17:03:38</time>
      </trkpt>
      <trkpt lat="28.12012" lon="-14.27712">
        <ele>66.4</ele>
        <time>2021-07-05 17:03:39</time>
      </trkpt>
      <trkpt lat="28.1201" lon="-14.27713">
        <ele>66.8</ele>
        <time>2021-07-05 17:03:40</time>
      </trkpt>
      <trkpt lat="28.12008" lon="-14.27715">
        <ele>67</ele>
        <time>2021-07-05 17:03:41</time>
      </trkpt>
      <trkpt lat="28.12005" lon="-14.27717">
        <ele>67</ele>
        <time>2021-07-05 17:03:42</time>
      </trkpt>
      <trkpt lat="28.12003" lon="-14.27718">
        <ele>67.2</ele>
        <time>2021-07-05 17:03:43</time>
      </trkpt>
      <trkpt lat="28.12" lon="-14.2772">
        <ele>67.2</ele>
        <time>2021-07-05 17:03:44</time>
      </trkpt>
      <trkpt lat="28.11998" lon="-14.27721">
        <ele>67.6</ele>
        <time>2021-07-05 17:03:45</time>
      </trkpt>
      <trkpt lat="28.11996" lon="-14.27723">
        <ele>68</ele>
        <time>2021-07-05 17:03:46</time>
      </trkpt>
      <trkpt lat="28.11993" lon="-14.27725">
        <ele>68</ele>
        <time>2021-07-05 17:03:47</time>
      </trkpt>
      <trkpt lat="28.11991" lon="-14.27727">
        <ele>68</ele>
        <time>2021-07-05 17:03:48</time>
      </trkpt>
      <trkpt lat="28.11988" lon="-14.27728">
        <ele>68.4</ele>
        <time>2021-07-05 17:03:49</time>
      </trkpt>
      <trkpt lat="28.11986" lon="-14.2773">
        <ele>68.4</ele>
        <time>2021-07-05 17:03:50</time>
      </trkpt>
      <trkpt lat="28.11984" lon="-14.27732">
        <ele>69</ele>
        <time>2021-07-05 17:03:51</time>
      </trkpt>
      <trkpt lat="28.11981" lon="-14.27733">
        <ele>69.2</ele>
        <time>2021-07-05 17:03:52</time>
      </trkpt>
      <trkpt lat="28.11979" lon="-14.27735">
        <ele>69.6</ele>
        <time>2021-07-05 17:03:53</time>
      </trkpt>
      <trkpt lat="28.11977" lon="-14.27736">
        <ele>69.6</ele>
        <time>2021-07-05 17:03:54</time>
      </trkpt>
      <trkpt lat="28.11974" lon="-14.27738">
        <ele>69.8</ele>
        <time>2021-07-05 17:03:55</time>
      </trkpt>
      <trkpt lat="28.11972" lon="-14.27739">
        <ele>69.8</ele>
        <time>2021-07-05 17:03:56</time>
      </trkpt>
      <trkpt lat="28.1197" lon="-14.27741">
        <ele>70</ele>
        <time>2021-07-05 17:03:57</time>
      </trkpt>
      <trkpt lat="28.11967" lon="-14.27743">
        <ele>70</ele>
        <time>2021-07-05 17:03:58</time>
      </trkpt>
      <trkpt lat="28.11965" lon="-14.27744">
        <ele>70.4</ele>
        <time>2021-07-05 17:03:59</time>
      </trkpt>
      <trkpt lat="28.11962" lon="-14.27746">
        <ele>70.4</ele>
        <time>2021-07-05 17:04:00</time>
      </trkpt>
      <trkpt lat="28.1196" lon="-14.27747">
        <ele>71.2</ele>
        <time>2021-07-05 17:04:01</time>
      </trkpt>
      <trkpt lat="28.11957" lon="-14.27749">
        <ele>71.2</ele>
        <time>2021-07-05 17:04:02</time>
      </trkpt>
      <trkpt lat="28.11955" lon="-14.2775">
        <ele>72</ele>
        <time>2021-07-05 17:04:03</time>
      </trkpt>
      <trkpt lat="28.11953" lon="-14.27752">
        <ele>72</ele>
        <time>2021-07-05 17:04:04</time>
      </trkpt>
      <trkpt lat="28.1195" lon="-14.27753">
        <ele>72.4</ele>
        <time>2021-07-05 17:04:05</time>
      </trkpt>
      <trkpt lat="28.11948" lon="-14.27755">
        <ele>73</ele>
        <time>2021-07-05 17:04:06</time>
      </trkpt>
      <trkpt lat="28.11946" lon="-14.27756">
        <ele>73</ele>
        <time>2021-07-05 17:04:07</time>
      </trkpt>
      <trkpt lat="28.11943" lon="-14.27758">
        <ele>73.2</ele>
        <time>2021-07-05 17:04:08</time>
      </trkpt>
      <trkpt lat="28.11941" lon="-14.27759">
        <ele>73.8</ele>
        <time>2021-07-05 17:04:09</time>
      </trkpt>
      <trkpt lat="28.11939" lon="-14.27761">
        <ele>74</ele>
        <time>2021-07-05 17:04:10</time>
      </trkpt>
      <trkpt lat="28.11936" lon="-14.27762">
        <ele>74</ele>
        <time>2021-07-05 17:04:11</time>
      </trkpt>
      <trkpt lat="28.11934" lon="-14.27764">
        <ele>74.2</ele>
        <time>2021-07-05 17:04:12</time>
      </trkpt>
      <trkpt lat="28.11932" lon="-14.27765">
        <ele>74.4</ele>
        <time>2021-07-05 17:04:13</time>
      </trkpt>
      <trkpt lat="28.11929" lon="-14.27767">
        <ele>74.8</ele>
        <time>2021-07-05 17:04:14</time>
      </trkpt>
      <trkpt lat="28.11927" lon="-14.27768">
        <ele>75.4</ele>
        <time>2021-07-05 17:04:15</time>
      </trkpt>
      <trkpt lat="28.11925" lon="-14.2777">
        <ele>75.4</ele>
        <time>2021-07-05 17:04:16</time>
      </trkpt>
      <trkpt lat="28.11922" lon="-14.27771">
        <ele>75.6</ele>
        <time>2021-07-05 17:04:17</time>
      </trkpt>
      <trkpt lat="28.1192" lon="-14.27772">
        <ele>76.4</ele>
        <time>2021-07-05 17:04:18</time>
      </trkpt>
      <trkpt lat="28.11918" lon="-14.27774">
        <ele>76.4</ele>
        <time>2021-07-05 17:04:19</time>
      </trkpt>
      <trkpt lat="28.11916" lon="-14.27775">
        <ele>76.6</ele>
        <time>2021-07-05 17:04:20</time>
      </trkpt>
      <trkpt lat="28.11913" lon="-14.27776">
        <ele>77</ele>
        <time>2021-07-05 17:04:21</time>
      </trkpt>
      <trkpt lat="28.11911" lon="-14.27778">
        <ele>77.4</ele>
        <time>2021-07-05 17:04:22</time>
      </trkpt>
      <trkpt lat="28.11909" lon="-14.27779">
        <ele>78.4</ele>
        <time>2021-07-05 17:04:23</time>
      </trkpt>
      <trkpt lat="28.11906" lon="-14.2778">
        <ele>78.4</ele>
        <time>2021-07-05 17:04:24</time>
      </trkpt>
      <trkpt lat="28.11904" lon="-14.27782">
        <ele>78.8</ele>
        <time>2021-07-05 17:04:25</time>
      </trkpt>
      <trkpt lat="28.11902" lon="-14.27783">
        <ele>79.6</ele>
        <time>2021-07-05 17:04:26</time>
      </trkpt>
      <trkpt lat="28.11899" lon="-14.27784">
        <ele>79.6</ele>
        <time>2021-07-05 17:04:27</time>
      </trkpt>
      <trkpt lat="28.11897" lon="-14.27786">
        <ele>80</ele>
        <time>2021-07-05 17:04:28</time>
      </trkpt>
      <trkpt lat="28.11895" lon="-14.27787">
        <ele>80.2</ele>
        <time>2021-07-05 17:04:29</time>
      </trkpt>
      <trkpt lat="28.11892" lon="-14.27788">
        <ele>80.8</ele>
        <time>2021-07-05 17:04:30</time>
      </trkpt>
      <trkpt lat="28.1189" lon="-14.27789">
        <ele>80.8</ele>
        <time>2021-07-05 17:04:31</time>
      </trkpt>
      <trkpt lat="28.11887" lon="-14.2779">
        <ele>81</ele>
        <time>2021-07-05 17:04:32</time>
      </trkpt>
      <trkpt lat="28.11885" lon="-14.27791">
        <ele>81.4</ele>
        <time>2021-07-05 17:04:33</time>
      </trkpt>
      <trkpt lat="28.11883" lon="-14.27792">
        <ele>81.8</ele>
        <time>2021-07-05 17:04:34</time>
      </trkpt>
      <trkpt lat="28.11881" lon="-14.27794">
        <ele>82.2</ele>
        <time>2021-07-05 17:04:35</time>
      </trkpt>
      <trkpt lat="28.11879" lon="-14.27795">
        <ele>82.6</ele>
        <time>2021-07-05 17:04:36</time>
      </trkpt>
      <trkpt lat="28.11876" lon="-14.27797">
        <ele>83</ele>
        <time>2021-07-05 17:04:37</time>
      </trkpt>
      <trkpt lat="28.11874" lon="-14.27798">
        <ele>83.4</ele>
        <time>2021-07-05 17:04:38</time>
      </trkpt>
      <trkpt lat="28.11872" lon="-14.27799">
        <ele>83.8</ele>
        <time>2021-07-05 17:04:39</time>
      </trkpt>
      <trkpt lat="28.1187" lon="-14.278">
        <ele>84.4</ele>
        <time>2021-07-05 17:04:40</time>
      </trkpt>
      <trkpt lat="28.11867" lon="-14.27801">
        <ele>84.8</ele>
        <time>2021-07-05 17:04:41</time>
      </trkpt>
      <trkpt lat="28.11865" lon="-14.27802">
        <ele>85.2</ele>
        <time>2021-07-05 17:04:42</time>
      </trkpt>
      <trkpt lat="28.11862" lon="-14.27803">
        <ele>85.6</ele>
        <time>2021-07-05 17:04:43</time>
      </trkpt>
      <trkpt lat="28.1186" lon="-14.27804">
        <ele>85.8</ele>
        <time>2021-07-05 17:04:44</time>
      </trkpt>
      <trkpt lat="28.11858" lon="-14.27806">
        <ele>86.2</ele>
        <time>2021-07-05 17:04:45</time>
      </trkpt>
      <trkpt lat="28.11856" lon="-14.27807">
        <ele>86.6</ele>
        <time>2021-07-05 17:04:46</time>
      </trkpt>
      <trkpt lat="28.11853" lon="-14.27808">
        <ele>87.2</ele>
        <time>2021-07-05 17:04:47</time>
      </trkpt>
      <trkpt lat="28.11851" lon="-14.2781">
        <ele>87.2</ele>
        <time>2021-07-05 17:04:48</time>
      </trkpt>
      <trkpt lat="28.11849" lon="-14.27811">
        <ele>87.4</ele>
        <time>2021-07-05 17:04:49</time>
      </trkpt>
      <trkpt lat="28.11846" lon="-14.27812">
        <ele>87.6</ele>
        <time>2021-07-05 17:04:50</time>
      </trkpt>
      <trkpt lat="28.11844" lon="-14.27812">
        <ele>87.6</ele>
        <time>2021-07-05 17:04:51</time>
      </trkpt>
      <trkpt lat="28.11841" lon="-14.27814">
        <ele>87.6</ele>
        <time>2021-07-05 17:04:52</time>
      </trkpt>
      <trkpt lat="28.11839" lon="-14.27815">
        <ele>87.8</ele>
        <time>2021-07-05 17:04:53</time>
      </trkpt>
      <trkpt lat="28.11836" lon="-14.27816">
        <ele>87.8</ele>
        <time>2021-07-05 17:04:54</time>
      </trkpt>
      <trkpt lat="28.11834" lon="-14.27818">
        <ele>87.8</ele>
        <time>2021-07-05 17:04:55</time>
      </trkpt>
      <trkpt lat="28.11832" lon="-14.27819">
        <ele>87.8</ele>
        <time>2021-07-05 17:04:56</time>
      </trkpt>
      <trkpt lat="28.11829" lon="-14.27821">
        <ele>88</ele>
        <time>2021-07-05 17:04:57</time>
      </trkpt>
      <trkpt lat="28.11827" lon="-14.27823">
        <ele>88</ele>
        <time>2021-07-05 17:04:58</time>
      </trkpt>
      <trkpt lat="28.11826" lon="-14.27826">
        <ele>88</ele>
        <time>2021-07-05 17:04:59</time>
      </trkpt>
      <trkpt lat="28.11824" lon="-14.27828">
        <ele>88.4</ele>
        <time>2021-07-05 17:05:00</time>
      </trkpt>
      <trkpt lat="28.11822" lon="-14.27831">
        <ele>88.4</ele>
        <time>2021-07-05 17:05:01</time>
      </trkpt>
      <trkpt lat="28.11819" lon="-14.27833">
        <ele>88.4</ele>
        <time>2021-07-05 17:05:02</time>
      </trkpt>
      <trkpt lat="28.11816" lon="-14.27834">
        <ele>88.8</ele>
        <time>2021-07-05 17:05:03</time>
      </trkpt>
      <trkpt lat="28.11813" lon="-14.27835">
        <ele>88.8</ele>
        <time>2021-07-05 17:05:04</time>
      </trkpt>
      <trkpt lat="28.1181" lon="-14.27836">
        <ele>88.8</ele>
        <time>2021-07-05 17:05:05</time>
      </trkpt>
      <trkpt lat="28.11806" lon="-14.27836">
        <ele>88.8</ele>
        <time>2021-07-05 17:05:06</time>
      </trkpt>
      <trkpt lat="28.11803" lon="-14.27836">
        <ele>89</ele>
        <time>2021-07-05 17:05:07</time>
      </trkpt>
      <trkpt lat="28.118" lon="-14.27837">
        <ele>89</ele>
        <time>2021-07-05 17:05:08</time>
      </trkpt>
      <trkpt lat="28.11796" lon="-14.27837">
        <ele>89.2</ele>
        <time>2021-07-05 17:05:09</time>
      </trkpt>
      <trkpt lat="28.11793" lon="-14.27838">
        <ele>89.2</ele>
        <time>2021-07-05 17:05:10</time>
      </trkpt>
      <trkpt lat="28.11789" lon="-14.27839">
        <ele>89.2</ele>
        <time>2021-07-05 17:05:11</time>
      </trkpt>
      <trkpt lat="28.11786" lon="-14.27841">
        <ele>89.2</ele>
        <time>2021-07-05 17:05:12</time>
      </trkpt>
      <trkpt lat="28.11782" lon="-14.27843">
        <ele>89</ele>
        <time>2021-07-05 17:05:13</time>
      </trkpt>
      <trkpt lat="28.11779" lon="-14.27845">
        <ele>89</ele>
        <time>2021-07-05 17:05:14</time>
      </trkpt>
      <trkpt lat="28.11776" lon="-14.27846">
        <ele>88.8</ele>
        <time>2021-07-05 17:05:15</time>
      </trkpt>
      <trkpt lat="28.11773" lon="-14.27847">
        <ele>88.8</ele>
        <time>2021-07-05 17:05:16</time>
      </trkpt>
      <trkpt lat="28.11769" lon="-14.27848">
        <ele>88.8</ele>
        <time>2021-07-05 17:05:17</time>
      </trkpt>
      <trkpt lat="28.11766" lon="-14.27849">
        <ele>88.8</ele>
        <time>2021-07-05 17:05:18</time>
      </trkpt>
      <trkpt lat="28.11763" lon="-14.27851">
        <ele>88.6</ele>
        <time>2021-07-05 17:05:19</time>
      </trkpt>
      <trkpt lat="28.1176" lon="-14.27853">
        <ele>88.6</ele>
        <time>2021-07-05 17:05:20</time>
      </trkpt>
      <trkpt lat="28.11756" lon="-14.27855">
        <ele>88.6</ele>
        <time>2021-07-05 17:05:21</time>
      </trkpt>
      <trkpt lat="28.11752" lon="-14.27856">
        <ele>88.6</ele>
        <time>2021-07-05 17:05:22</time>
      </trkpt>
      <trkpt lat="28.11748" lon="-14.27858">
        <ele>88.6</ele>
        <time>2021-07-05 17:05:23</time>
      </trkpt>
      <trkpt lat="28.11744" lon="-14.2786">
        <ele>88.6</ele>
        <time>2021-07-05 17:05:24</time>
      </trkpt>
      <trkpt lat="28.1174" lon="-14.27863">
        <ele>88.6</ele>
        <time>2021-07-05 17:05:25</time>
      </trkpt>
      <trkpt lat="28.11736" lon="-14.27865">
        <ele>88.6</ele>
        <time>2021-07-05 17:05:26</time>
      </trkpt>
      <trkpt lat="28.11732" lon="-14.27867">
        <ele>88.8</ele>
        <time>2021-07-05 17:05:27</time>
      </trkpt>
      <trkpt lat="28.11728" lon="-14.27869">
        <ele>89</ele>
        <time>2021-07-05 17:05:28</time>
      </trkpt>
      <trkpt lat="28.11724" lon="-14.27872">
        <ele>89</ele>
        <time>2021-07-05 17:05:29</time>
      </trkpt>
      <trkpt lat="28.1172" lon="-14.27873">
        <ele>89.4</ele>
        <time>2021-07-05 17:05:30</time>
      </trkpt>
      <trkpt lat="28.11716" lon="-14.27876">
        <ele>89.4</ele>
        <time>2021-07-05 17:05:31</time>
      </trkpt>
      <trkpt lat="28.11712" lon="-14.27879">
        <ele>89.6</ele>
        <time>2021-07-05 17:05:32</time>
      </trkpt>
      <trkpt lat="28.11708" lon="-14.27881">
        <ele>89.6</ele>
        <time>2021-07-05 17:05:33</time>
      </trkpt>
      <trkpt lat="28.11704" lon="-14.27884">
        <ele>89.6</ele>
        <time>2021-07-05 17:05:34</time>
      </trkpt>
      <trkpt lat="28.11699" lon="-14.27886">
        <ele>89.8</ele>
        <time>2021-07-05 17:05:35</time>
      </trkpt>
      <trkpt lat="28.11695" lon="-14.27889">
        <ele>89.8</ele>
        <time>2021-07-05 17:05:36</time>
      </trkpt>
      <trkpt lat="28.11691" lon="-14.27891">
        <ele>89.8</ele>
        <time>2021-07-05 17:05:37</time>
      </trkpt>
      <trkpt lat="28.11687" lon="-14.27894">
        <ele>89.8</ele>
        <time>2021-07-05 17:05:38</time>
      </trkpt>
      <trkpt lat="28.11683" lon="-14.27896">
        <ele>90.4</ele>
        <time>2021-07-05 17:05:39</time>
      </trkpt>
      <trkpt lat="28.11678" lon="-14.27897">
        <ele>90.8</ele>
        <time>2021-07-05 17:05:40</time>
      </trkpt>
      <trkpt lat="28.11674" lon="-14.27899">
        <ele>90.8</ele>
        <time>2021-07-05 17:05:41</time>
      </trkpt>
      <trkpt lat="28.11669" lon="-14.27901">
        <ele>91</ele>
        <time>2021-07-05 17:05:42</time>
      </trkpt>
      <trkpt lat="28.11663" lon="-14.27902">
        <ele>91</ele>
        <time>2021-07-05 17:05:43</time>
      </trkpt>
      <trkpt lat="28.11657" lon="-14.27904">
        <ele>91</ele>
        <time>2021-07-05 17:05:44</time>
      </trkpt>
      <trkpt lat="28.11651" lon="-14.27907">
        <ele>91</ele>
        <time>2021-07-05 17:05:45</time>
      </trkpt>
      <trkpt lat="28.11644" lon="-14.27909">
        <ele>90.4</ele>
        <time>2021-07-05 17:05:46</time>
      </trkpt>
      <trkpt lat="28.11636" lon="-14.27911">
        <ele>90</ele>
        <time>2021-07-05 17:05:47</time>
      </trkpt>
      <trkpt lat="28.11628" lon="-14.27913">
        <ele>89.6</ele>
        <time>2021-07-05 17:05:48</time>
      </trkpt>
      <trkpt lat="28.11619" lon="-14.27915">
        <ele>88.8</ele>
        <time>2021-07-05 17:05:49</time>
      </trkpt>
      <trkpt lat="28.1161" lon="-14.27918">
        <ele>88</ele>
        <time>2021-07-05 17:05:50</time>
      </trkpt>
      <trkpt lat="28.11601" lon="-14.27921">
        <ele>87.2</ele>
        <time>2021-07-05 17:05:51</time>
      </trkpt>
      <trkpt lat="28.11592" lon="-14.27923">
        <ele>86.2</ele>
        <time>2021-07-05 17:05:52</time>
      </trkpt>
      <trkpt lat="28.11582" lon="-14.27926">
        <ele>85.4</ele>
        <time>2021-07-05 17:05:53</time>
      </trkpt>
      <trkpt lat="28.11573" lon="-14.27929">
        <ele>84.6</ele>
        <time>2021-07-05 17:05:54</time>
      </trkpt>
      <trkpt lat="28.11563" lon="-14.27931">
        <ele>84.2</ele>
        <time>2021-07-05 17:05:55</time>
      </trkpt>
      <trkpt lat="28.11553" lon="-14.27933">
        <ele>83.6</ele>
        <time>2021-07-05 17:05:56</time>
      </trkpt>
      <trkpt lat="28.11543" lon="-14.27935">
        <ele>83</ele>
        <time>2021-07-05 17:05:57</time>
      </trkpt>
      <trkpt lat="28.11533" lon="-14.27936">
        <ele>82.6</ele>
        <time>2021-07-05 17:05:58</time>
      </trkpt>
      <trkpt lat="28.11524" lon="-14.27938">
        <ele>81.8</ele>
        <time>2021-07-05 17:05:59</time>
      </trkpt>
      <trkpt lat="28.11515" lon="-14.27938">
        <ele>81.8</ele>
        <time>2021-07-05 17:06:00</time>
      </trkpt>
      <trkpt lat="28.11506" lon="-14.27938">
        <ele>81.4</ele>
        <time>2021-07-05 17:06:01</time>
      </trkpt>
      <trkpt lat="28.11497" lon="-14.27938">
        <ele>81.4</ele>
        <time>2021-07-05 17:06:02</time>
      </trkpt>
      <trkpt lat="28.11489" lon="-14.27938">
        <ele>81.2</ele>
        <time>2021-07-05 17:06:03</time>
      </trkpt>
      <trkpt lat="28.11482" lon="-14.27937">
        <ele>81.2</ele>
        <time>2021-07-05 17:06:04</time>
      </trkpt>
      <trkpt lat="28.11474" lon="-14.27936">
        <ele>81.2</ele>
        <time>2021-07-05 17:06:05</time>
      </trkpt>
      <trkpt lat="28.11468" lon="-14.27934">
        <ele>81.2</ele>
        <time>2021-07-05 17:06:06</time>
      </trkpt>
      <trkpt lat="28.11462" lon="-14.27932">
        <ele>81.2</ele>
        <time>2021-07-05 17:06:07</time>
      </trkpt>
      <trkpt lat="28.11457" lon="-14.2793">
        <ele>81.2</ele>
        <time>2021-07-05 17:06:08</time>
      </trkpt>
      <trkpt lat="28.11452" lon="-14.27928">
        <ele>81.2</ele>
        <time>2021-07-05 17:06:09</time>
      </trkpt>
      <trkpt lat="28.11447" lon="-14.27927">
        <ele>81.2</ele>
        <time>2021-07-05 17:06:10</time>
      </trkpt>
      <trkpt lat="28.11442" lon="-14.27925">
        <ele>81.6</ele>
        <time>2021-07-05 17:06:11</time>
      </trkpt>
      <trkpt lat="28.11437" lon="-14.27925">
        <ele>82.2</ele>
        <time>2021-07-05 17:06:12</time>
      </trkpt>
      <trkpt lat="28.11432" lon="-14.27924">
        <ele>82.2</ele>
        <time>2021-07-05 17:06:13</time>
      </trkpt>
      <trkpt lat="28.11427" lon="-14.27923">
        <ele>82.4</ele>
        <time>2021-07-05 17:06:14</time>
      </trkpt>
      <trkpt lat="28.11421" lon="-14.27921">
        <ele>82.8</ele>
        <time>2021-07-05 17:06:15</time>
      </trkpt>
      <trkpt lat="28.11416" lon="-14.2792">
        <ele>83</ele>
        <time>2021-07-05 17:06:16</time>
      </trkpt>
      <trkpt lat="28.11411" lon="-14.27919">
        <ele>83.2</ele>
        <time>2021-07-05 17:06:17</time>
      </trkpt>
      <trkpt lat="28.11406" lon="-14.27917">
        <ele>83.4</ele>
        <time>2021-07-05 17:06:18</time>
      </trkpt>
      <trkpt lat="28.11401" lon="-14.27916">
        <ele>83.4</ele>
        <time>2021-07-05 17:06:19</time>
      </trkpt>
      <trkpt lat="28.11396" lon="-14.27915">
        <ele>83.8</ele>
        <time>2021-07-05 17:06:20</time>
      </trkpt>
      <trkpt lat="28.11391" lon="-14.27914">
        <ele>83.8</ele>
        <time>2021-07-05 17:06:21</time>
      </trkpt>
      <trkpt lat="28.11386" lon="-14.27912">
        <ele>83.8</ele>
        <time>2021-07-05 17:06:22</time>
      </trkpt>
      <trkpt lat="28.1138" lon="-14.27911">
        <ele>83.8</ele>
        <time>2021-07-05 17:06:23</time>
      </trkpt>
      <trkpt lat="28.11375" lon="-14.2791">
        <ele>83.8</ele>
        <time>2021-07-05 17:06:24</time>
      </trkpt>
      <trkpt lat="28.1137" lon="-14.27909">
        <ele>83.8</ele>
        <time>2021-07-05 17:06:25</time>
      </trkpt>
      <trkpt lat="28.11364" lon="-14.27908">
        <ele>83.8</ele>
        <time>2021-07-05 17:06:26</time>
      </trkpt>
      <trkpt lat="28.11359" lon="-14.27908">
        <ele>83.8</ele>
        <time>2021-07-05 17:06:27</time>
      </trkpt>
      <trkpt lat="28.11353" lon="-14.27907">
        <ele>83.8</ele>
        <time>2021-07-05 17:06:28</time>
      </trkpt>
      <trkpt lat="28.11348" lon="-14.27907">
        <ele>83.8</ele>
        <time>2021-07-05 17:06:29</time>
      </trkpt>
      <trkpt lat="28.11343" lon="-14.27907">
        <ele>83.8</ele>
        <time>2021-07-05 17:06:30</time>
      </trkpt>
      <trkpt lat="28.11338" lon="-14.27906">
        <ele>83.8</ele>
        <time>2021-07-05 17:06:31</time>
      </trkpt>
      <trkpt lat="28.11333" lon="-14.27906">
        <ele>83.8</ele>
        <time>2021-07-05 17:06:32</time>
      </trkpt>
      <trkpt lat="28.11328" lon="-14.27906">
        <ele>83.8</ele>
        <time>2021-07-05 17:06:33</time>
      </trkpt>
      <trkpt lat="28.11323" lon="-14.27906">
        <ele>84.2</ele>
        <time>2021-07-05 17:06:34</time>
      </trkpt>
      <trkpt lat="28.11318" lon="-14.27906">
        <ele>84.2</ele>
        <time>2021-07-05 17:06:35</time>
      </trkpt>
      <trkpt lat="28.11313" lon="-14.27906">
        <ele>84.4</ele>
        <time>2021-07-05 17:06:36</time>
      </trkpt>
      <trkpt lat="28.11307" lon="-14.27905">
        <ele>84.8</ele>
        <time>2021-07-05 17:06:37</time>
      </trkpt>
      <trkpt lat="28.11302" lon="-14.27905">
        <ele>84.8</ele>
        <time>2021-07-05 17:06:38</time>
      </trkpt>
      <trkpt lat="28.11297" lon="-14.27905">
        <ele>85</ele>
        <time>2021-07-05 17:06:39</time>
      </trkpt>
      <trkpt lat="28.11292" lon="-14.27906">
        <ele>85</ele>
        <time>2021-07-05 17:06:40</time>
      </trkpt>
      <trkpt lat="28.11288" lon="-14.27906">
        <ele>85</ele>
        <time>2021-07-05 17:06:41</time>
      </trkpt>
      <trkpt lat="28.11283" lon="-14.27906">
        <ele>85.4</ele>
        <time>2021-07-05 17:06:42</time>
      </trkpt>
      <trkpt lat="28.11278" lon="-14.27906">
        <ele>85.4</ele>
        <time>2021-07-05 17:06:43</time>
      </trkpt>
      <trkpt lat="28.11272" lon="-14.27907">
        <ele>85.6</ele>
        <time>2021-07-05 17:06:44</time>
      </trkpt>
      <trkpt lat="28.11267" lon="-14.27907">
        <ele>85.6</ele>
        <time>2021-07-05 17:06:45</time>
      </trkpt>
      <trkpt lat="28.11262" lon="-14.27908">
        <ele>85.6</ele>
        <time>2021-07-05 17:06:46</time>
      </trkpt>
      <trkpt lat="28.11257" lon="-14.27908">
        <ele>86</ele>
        <time>2021-07-05 17:06:47</time>
      </trkpt>
      <trkpt lat="28.11252" lon="-14.27909">
        <ele>86</ele>
        <time>2021-07-05 17:06:48</time>
      </trkpt>
      <trkpt lat="28.11247" lon="-14.2791">
        <ele>86</ele>
        <time>2021-07-05 17:06:49</time>
      </trkpt>
      <trkpt lat="28.11241" lon="-14.27911">
        <ele>86.2</ele>
        <time>2021-07-05 17:06:50</time>
      </trkpt>
      <trkpt lat="28.11236" lon="-14.27912">
        <ele>86.2</ele>
        <time>2021-07-05 17:06:51</time>
      </trkpt>
      <trkpt lat="28.11231" lon="-14.27913">
        <ele>86.6</ele>
        <time>2021-07-05 17:06:52</time>
      </trkpt>
      <trkpt lat="28.11225" lon="-14.27914">
        <ele>86.6</ele>
        <time>2021-07-05 17:06:53</time>
      </trkpt>
      <trkpt lat="28.11219" lon="-14.27915">
        <ele>86.6</ele>
        <time>2021-07-05 17:06:54</time>
      </trkpt>
      <trkpt lat="28.11213" lon="-14.27916">
        <ele>86.6</ele>
        <time>2021-07-05 17:06:55</time>
      </trkpt>
      <trkpt lat="28.11207" lon="-14.27918">
        <ele>86.6</ele>
        <time>2021-07-05 17:06:56</time>
      </trkpt>
      <trkpt lat="28.11201" lon="-14.2792">
        <ele>86.6</ele>
        <time>2021-07-05 17:06:57</time>
      </trkpt>
      <trkpt lat="28.11195" lon="-14.27922">
        <ele>86.6</ele>
        <time>2021-07-05 17:06:58</time>
      </trkpt>
      <trkpt lat="28.11189" lon="-14.27924">
        <ele>86.6</ele>
        <time>2021-07-05 17:06:59</time>
      </trkpt>
      <trkpt lat="28.11182" lon="-14.27926">
        <ele>86.2</ele>
        <time>2021-07-05 17:07:00</time>
      </trkpt>
      <trkpt lat="28.11174" lon="-14.27928">
        <ele>86.2</ele>
        <time>2021-07-05 17:07:01</time>
      </trkpt>
      <trkpt lat="28.11166" lon="-14.2793">
        <ele>85.4</ele>
        <time>2021-07-05 17:07:02</time>
      </trkpt>
      <trkpt lat="28.11158" lon="-14.27932">
        <ele>85</ele>
        <time>2021-07-05 17:07:03</time>
      </trkpt>
      <trkpt lat="28.11149" lon="-14.27935">
        <ele>85</ele>
        <time>2021-07-05 17:07:04</time>
      </trkpt>
      <trkpt lat="28.1114" lon="-14.27938">
        <ele>84.2</ele>
        <time>2021-07-05 17:07:05</time>
      </trkpt>
      <trkpt lat="28.1113" lon="-14.27941">
        <ele>84.2</ele>
        <time>2021-07-05 17:07:06</time>
      </trkpt>
      <trkpt lat="28.1112" lon="-14.27943">
        <ele>83.4</ele>
        <time>2021-07-05 17:07:07</time>
      </trkpt>
      <trkpt lat="28.1111" lon="-14.27946">
        <ele>81.8</ele>
        <time>2021-07-05 17:07:08</time>
      </trkpt>
      <trkpt lat="28.111" lon="-14.27949">
        <ele>80.8</ele>
        <time>2021-07-05 17:07:09</time>
      </trkpt>
      <trkpt lat="28.11089" lon="-14.27952">
        <ele>80.8</ele>
        <time>2021-07-05 17:07:10</time>
      </trkpt>
      <trkpt lat="28.11078" lon="-14.27954">
        <ele>80.2</ele>
        <time>2021-07-05 17:07:11</time>
      </trkpt>
      <trkpt lat="28.11067" lon="-14.27957">
        <ele>78.8</ele>
        <time>2021-07-05 17:07:12</time>
      </trkpt>
      <trkpt lat="28.11055" lon="-14.2796">
        <ele>78.8</ele>
        <time>2021-07-05 17:07:13</time>
      </trkpt>
      <trkpt lat="28.11044" lon="-14.27963">
        <ele>78</ele>
        <time>2021-07-05 17:07:14</time>
      </trkpt>
      <trkpt lat="28.11032" lon="-14.27966">
        <ele>76.6</ele>
        <time>2021-07-05 17:07:15</time>
      </trkpt>
      <trkpt lat="28.1102" lon="-14.27969">
        <ele>76.6</ele>
        <time>2021-07-05 17:07:16</time>
      </trkpt>
      <trkpt lat="28.11008" lon="-14.27972">
        <ele>75.4</ele>
        <time>2021-07-05 17:07:17</time>
      </trkpt>
      <trkpt lat="28.10996" lon="-14.27974">
        <ele>75.2</ele>
        <time>2021-07-05 17:07:18</time>
      </trkpt>
      <trkpt lat="28.10984" lon="-14.27976">
        <ele>75.2</ele>
        <time>2021-07-05 17:07:19</time>
      </trkpt>
      <trkpt lat="28.10973" lon="-14.27977">
        <ele>75.4</ele>
        <time>2021-07-05 17:07:20</time>
      </trkpt>
      <trkpt lat="28.10961" lon="-14.27978">
        <ele>75.8</ele>
        <time>2021-07-05 17:07:21</time>
      </trkpt>
      <trkpt lat="28.10951" lon="-14.27979">
        <ele>76.2</ele>
        <time>2021-07-05 17:07:22</time>
      </trkpt>
      <trkpt lat="28.10942" lon="-14.2798">
        <ele>77</ele>
        <time>2021-07-05 17:07:23</time>
      </trkpt>
      <trkpt lat="28.10934" lon="-14.2798">
        <ele>77</ele>
        <time>2021-07-05 17:07:24</time>
      </trkpt>
      <trkpt lat="28.10926" lon="-14.2798">
        <ele>77.8</ele>
        <time>2021-07-05 17:07:25</time>
      </trkpt>
      <trkpt lat="28.1092" lon="-14.2798">
        <ele>78.6</ele>
        <time>2021-07-05 17:07:26</time>
      </trkpt>
      <trkpt lat="28.10914" lon="-14.2798">
        <ele>79.2</ele>
        <time>2021-07-05 17:07:27</time>
      </trkpt>
      <trkpt lat="28.10908" lon="-14.2798">
        <ele>80</ele>
        <time>2021-07-05 17:07:28</time>
      </trkpt>
      <trkpt lat="28.10902" lon="-14.27979">
        <ele>80.8</ele>
        <time>2021-07-05 17:07:29</time>
      </trkpt>
      <trkpt lat="28.10897" lon="-14.27979">
        <ele>81.4</ele>
        <time>2021-07-05 17:07:30</time>
      </trkpt>
      <trkpt lat="28.10892" lon="-14.27979">
        <ele>82</ele>
        <time>2021-07-05 17:07:31</time>
      </trkpt>
      <trkpt lat="28.10887" lon="-14.27978">
        <ele>82.4</ele>
        <time>2021-07-05 17:07:32</time>
      </trkpt>
      <trkpt lat="28.10882" lon="-14.27978">
        <ele>83</ele>
        <time>2021-07-05 17:07:33</time>
      </trkpt>
      <trkpt lat="28.10877" lon="-14.27977">
        <ele>83.4</ele>
        <time>2021-07-05 17:07:34</time>
      </trkpt>
      <trkpt lat="28.10872" lon="-14.27977">
        <ele>83.8</ele>
        <time>2021-07-05 17:07:35</time>
      </trkpt>
      <trkpt lat="28.10867" lon="-14.27976">
        <ele>84.4</ele>
        <time>2021-07-05 17:07:36</time>
      </trkpt>
      <trkpt lat="28.10862" lon="-14.27975">
        <ele>84.4</ele>
        <time>2021-07-05 17:07:37</time>
      </trkpt>
      <trkpt lat="28.10857" lon="-14.27975">
        <ele>84.6</ele>
        <time>2021-07-05 17:07:38</time>
      </trkpt>
      <trkpt lat="28.10851" lon="-14.27974">
        <ele>85</ele>
        <time>2021-07-05 17:07:39</time>
      </trkpt>
      <trkpt lat="28.10846" lon="-14.27974">
        <ele>85.2</ele>
        <time>2021-07-05 17:07:40</time>
      </trkpt>
      <trkpt lat="28.10841" lon="-14.27974">
        <ele>85.4</ele>
        <time>2021-07-05 17:07:41</time>
      </trkpt>
      <trkpt lat="28.10836" lon="-14.27973">
        <ele>85.8</ele>
        <time>2021-07-05 17:07:42</time>
      </trkpt>
      <trkpt lat="28.10831" lon="-14.27972">
        <ele>85.8</ele>
        <time>2021-07-05 17:07:43</time>
      </trkpt>
      <trkpt lat="28.10826" lon="-14.27971">
        <ele>85.8</ele>
        <time>2021-07-05 17:07:44</time>
      </trkpt>
      <trkpt lat="28.10821" lon="-14.27969">
        <ele>86</ele>
        <time>2021-07-05 17:07:45</time>
      </trkpt>
      <trkpt lat="28.10816" lon="-14.27967">
        <ele>86</ele>
        <time>2021-07-05 17:07:46</time>
      </trkpt>
      <trkpt lat="28.10812" lon="-14.27965">
        <ele>86</ele>
        <time>2021-07-05 17:07:47</time>
      </trkpt>
      <trkpt lat="28.10807" lon="-14.27963">
        <ele>86.2</ele>
        <time>2021-07-05 17:07:48</time>
      </trkpt>
      <trkpt lat="28.10803" lon="-14.27962">
        <ele>86.6</ele>
        <time>2021-07-05 17:07:49</time>
      </trkpt>
      <trkpt lat="28.10798" lon="-14.27961">
        <ele>86.8</ele>
        <time>2021-07-05 17:07:50</time>
      </trkpt>
      <trkpt lat="28.10798" lon="-14.27961">
        <ele>87</ele>
        <time>2021-07-05 17:07:51</time>
      </trkpt>
      <trkpt lat="28.10789" lon="-14.27957">
        <ele>87.2</ele>
        <time>2021-07-05 17:07:52</time>
      </trkpt>
      <trkpt lat="28.10784" lon="-14.27955">
        <ele>87.2</ele>
        <time>2021-07-05 17:07:53</time>
      </trkpt>
      <trkpt lat="28.10779" lon="-14.27953">
        <ele>87.2</ele>
        <time>2021-07-05 17:07:54</time>
      </trkpt>
      <trkpt lat="28.10775" lon="-14.27951">
        <ele>87.2</ele>
        <time>2021-07-05 17:07:55</time>
      </trkpt>
      <trkpt lat="28.1077" lon="-14.27949">
        <ele>87.2</ele>
        <time>2021-07-05 17:07:56</time>
      </trkpt>
      <trkpt lat="28.10765" lon="-14.27947">
        <ele>87.6</ele>
        <time>2021-07-05 17:07:57</time>
      </trkpt>
      <trkpt lat="28.1076" lon="-14.27945">
        <ele>87.6</ele>
        <time>2021-07-05 17:07:58</time>
      </trkpt>
      <trkpt lat="28.10755" lon="-14.27942">
        <ele>87.6</ele>
        <time>2021-07-05 17:07:59</time>
      </trkpt>
      <trkpt lat="28.1075" lon="-14.27941">
        <ele>87.6</ele>
        <time>2021-07-05 17:08:00</time>
      </trkpt>
      <trkpt lat="28.1075" lon="-14.27941">
        <ele>87.6</ele>
        <time>2021-07-05 17:08:01</time>
      </trkpt>
      <trkpt lat="28.10738" lon="-14.27935">
        <ele>87.4</ele>
        <time>2021-07-05 17:08:02</time>
      </trkpt>
      <trkpt lat="28.10732" lon="-14.27933">
        <ele>87.4</ele>
        <time>2021-07-05 17:08:03</time>
      </trkpt>
      <trkpt lat="28.10727" lon="-14.27931">
        <ele>87.4</ele>
        <time>2021-07-05 17:08:04</time>
      </trkpt>
      <trkpt lat="28.10721" lon="-14.27928">
        <ele>87</ele>
        <time>2021-07-05 17:08:05</time>
      </trkpt>
      <trkpt lat="28.10715" lon="-14.27926">
        <ele>87</ele>
        <time>2021-07-05 17:08:06</time>
      </trkpt>
      <trkpt lat="28.1071" lon="-14.27923">
        <ele>86.6</ele>
        <time>2021-07-05 17:08:07</time>
      </trkpt>
      <trkpt lat="28.10704" lon="-14.2792">
        <ele>86</ele>
        <time>2021-07-05 17:08:08</time>
      </trkpt>
      <trkpt lat="28.10697" lon="-14.27918">
        <ele>86</ele>
        <time>2021-07-05 17:08:09</time>
      </trkpt>
      <trkpt lat="28.1069" lon="-14.27915">
        <ele>85.8</ele>
        <time>2021-07-05 17:08:10</time>
      </trkpt>
      <trkpt lat="28.10683" lon="-14.27912">
        <ele>85.6</ele>
        <time>2021-07-05 17:08:11</time>
      </trkpt>
      <trkpt lat="28.10675" lon="-14.27909">
        <ele>85.2</ele>
        <time>2021-07-05 17:08:12</time>
      </trkpt>
      <trkpt lat="28.10668" lon="-14.27906">
        <ele>84.8</ele>
        <time>2021-07-05 17:08:13</time>
      </trkpt>
      <trkpt lat="28.10662" lon="-14.27903">
        <ele>84.2</ele>
        <time>2021-07-05 17:08:14</time>
      </trkpt>
      <trkpt lat="28.10655" lon="-14.279">
        <ele>84.2</ele>
        <time>2021-07-05 17:08:15</time>
      </trkpt>
      <trkpt lat="28.10648" lon="-14.27897">
        <ele>84</ele>
        <time>2021-07-05 17:08:16</time>
      </trkpt>
      <trkpt lat="28.10642" lon="-14.27893">
        <ele>83.4</ele>
        <time>2021-07-05 17:08:17</time>
      </trkpt>
      <trkpt lat="28.10636" lon="-14.27889">
        <ele>83.4</ele>
        <time>2021-07-05 17:08:18</time>
      </trkpt>
      <trkpt lat="28.10631" lon="-14.27886">
        <ele>83</ele>
        <time>2021-07-05 17:08:19</time>
      </trkpt>
      <trkpt lat="28.10626" lon="-14.27882">
        <ele>83</ele>
        <time>2021-07-05 17:08:20</time>
      </trkpt>
      <trkpt lat="28.10621" lon="-14.27879">
        <ele>82.4</ele>
        <time>2021-07-05 17:08:21</time>
      </trkpt>
      <trkpt lat="28.10616" lon="-14.27876">
        <ele>82.4</ele>
        <time>2021-07-05 17:08:22</time>
      </trkpt>
      <trkpt lat="28.10612" lon="-14.27873">
        <ele>82.2</ele>
        <time>2021-07-05 17:08:23</time>
      </trkpt>
      <trkpt lat="28.10608" lon="-14.27869">
        <ele>81.6</ele>
        <time>2021-07-05 17:08:24</time>
      </trkpt>
      <trkpt lat="28.10605" lon="-14.27866">
        <ele>81.4</ele>
        <time>2021-07-05 17:08:25</time>
      </trkpt>
      <trkpt lat="28.10602" lon="-14.27862">
        <ele>81.4</ele>
        <time>2021-07-05 17:08:26</time>
      </trkpt>
      <trkpt lat="28.10599" lon="-14.27859">
        <ele>81.4</ele>
        <time>2021-07-05 17:08:27</time>
      </trkpt>
      <trkpt lat="28.10596" lon="-14.27856">
        <ele>80.8</ele>
        <time>2021-07-05 17:08:28</time>
      </trkpt>
      <trkpt lat="28.10593" lon="-14.27854">
        <ele>80.8</ele>
        <time>2021-07-05 17:08:29</time>
      </trkpt>
      <trkpt lat="28.10591" lon="-14.27851">
        <ele>80.6</ele>
        <time>2021-07-05 17:08:30</time>
      </trkpt>
      <trkpt lat="28.10589" lon="-14.27848">
        <ele>80.6</ele>
        <time>2021-07-05 17:08:31</time>
      </trkpt>
      <trkpt lat="28.10586" lon="-14.27844">
        <ele>80.6</ele>
        <time>2021-07-05 17:08:32</time>
      </trkpt>
      <trkpt lat="28.10586" lon="-14.27839">
        <ele>80.4</ele>
        <time>2021-07-05 17:08:33</time>
      </trkpt>
      <trkpt lat="28.10586" lon="-14.27834">
        <ele>80.4</ele>
        <time>2021-07-05 17:08:34</time>
      </trkpt>
      <trkpt lat="28.10587" lon="-14.27828">
        <ele>80.4</ele>
        <time>2021-07-05 17:08:35</time>
      </trkpt>
      <trkpt lat="28.1059" lon="-14.27823">
        <ele>80.4</ele>
        <time>2021-07-05 17:08:36</time>
      </trkpt>
      <trkpt lat="28.10595" lon="-14.2782">
        <ele>80</ele>
        <time>2021-07-05 17:08:37</time>
      </trkpt>
      <trkpt lat="28.10599" lon="-14.27817">
        <ele>80</ele>
        <time>2021-07-05 17:08:38</time>
      </trkpt>
      <trkpt lat="28.10604" lon="-14.27815">
        <ele>79.8</ele>
        <time>2021-07-05 17:08:39</time>
      </trkpt>
      <trkpt lat="28.10609" lon="-14.27812">
        <ele>79.8</ele>
        <time>2021-07-05 17:08:40</time>
      </trkpt>
      <trkpt lat="28.10614" lon="-14.27809">
        <ele>79.8</ele>
        <time>2021-07-05 17:08:41</time>
      </trkpt>
      <trkpt lat="28.10618" lon="-14.27806">
        <ele>79.8</ele>
        <time>2021-07-05 17:08:42</time>
      </trkpt>
      <trkpt lat="28.10621" lon="-14.27801">
        <ele>79.4</ele>
        <time>2021-07-05 17:08:43</time>
      </trkpt>
      <trkpt lat="28.10625" lon="-14.27797">
        <ele>79.4</ele>
        <time>2021-07-05 17:08:44</time>
      </trkpt>
      <trkpt lat="28.10629" lon="-14.27793">
        <ele>79.4</ele>
        <time>2021-07-05 17:08:45</time>
      </trkpt>
      <trkpt lat="28.10632" lon="-14.27791">
        <ele>79.4</ele>
        <time>2021-07-05 17:08:46</time>
      </trkpt>
      <trkpt lat="28.10635" lon="-14.27788">
        <ele>79.6</ele>
        <time>2021-07-05 17:08:47</time>
      </trkpt>
      <trkpt lat="28.10637" lon="-14.27783">
        <ele>79.6</ele>
        <time>2021-07-05 17:08:48</time>
      </trkpt>
      <trkpt lat="28.10638" lon="-14.2778">
        <ele>79.6</ele>
        <time>2021-07-05 17:08:49</time>
      </trkpt>
      <trkpt lat="28.10638" lon="-14.27775">
        <ele>79.4</ele>
        <time>2021-07-05 17:08:50</time>
      </trkpt>
      <trkpt lat="28.1064" lon="-14.27771">
        <ele>79.2</ele>
        <time>2021-07-05 17:08:51</time>
      </trkpt>
      <trkpt lat="28.10641" lon="-14.27767">
        <ele>79.2</ele>
        <time>2021-07-05 17:08:52</time>
      </trkpt>
      <trkpt lat="28.10641" lon="-14.27762">
        <ele>79.2</ele>
        <time>2021-07-05 17:08:53</time>
      </trkpt>
      <trkpt lat="28.10642" lon="-14.27758">
        <ele>79.6</ele>
        <time>2021-07-05 17:08:54</time>
      </trkpt>
      <trkpt lat="28.10643" lon="-14.27753">
        <ele>79.8</ele>
        <time>2021-07-05 17:08:55</time>
      </trkpt>
      <trkpt lat="28.10644" lon="-14.27749">
        <ele>79.8</ele>
        <time>2021-07-05 17:08:56</time>
      </trkpt>
      <trkpt lat="28.10646" lon="-14.27746">
        <ele>80.2</ele>
        <time>2021-07-05 17:08:57</time>
      </trkpt>
      <trkpt lat="28.10647" lon="-14.27741">
        <ele>80.4</ele>
        <time>2021-07-05 17:08:58</time>
      </trkpt>
      <trkpt lat="28.10649" lon="-14.27738">
        <ele>80.6</ele>
        <time>2021-07-05 17:08:59</time>
      </trkpt>
      <trkpt lat="28.10652" lon="-14.27736">
        <ele>80.6</ele>
        <time>2021-07-05 17:09:00</time>
      </trkpt>
      <trkpt lat="28.10653" lon="-14.27734">
        <ele>80.6</ele>
        <time>2021-07-05 17:09:01</time>
      </trkpt>
      <trkpt lat="28.10655" lon="-14.27732">
        <ele>80.6</ele>
        <time>2021-07-05 17:09:02</time>
      </trkpt>
      <trkpt lat="28.10656" lon="-14.27729">
        <ele>80.8</ele>
        <time>2021-07-05 17:09:03</time>
      </trkpt>
      <trkpt lat="28.10656" lon="-14.27726">
        <ele>81.2</ele>
        <time>2021-07-05 17:09:04</time>
      </trkpt>
      <trkpt lat="28.10657" lon="-14.27724">
        <ele>81.6</ele>
        <time>2021-07-05 17:09:05</time>
      </trkpt>
      <trkpt lat="28.10657" lon="-14.27723">
        <ele>82.2</ele>
        <time>2021-07-05 17:09:06</time>
      </trkpt>
      <trkpt lat="28.10658" lon="-14.27723">
        <ele>82.6</ele>
        <time>2021-07-05 17:09:07</time>
      </trkpt>
      <trkpt lat="28.10658" lon="-14.27723">
        <ele>83</ele>
        <time>2021-07-05 17:09:08</time>
      </trkpt>
      <trkpt lat="28.10658" lon="-14.27719">
        <ele>83.6</ele>
        <time>2021-07-05 17:09:09</time>
      </trkpt>
      <trkpt lat="28.10658" lon="-14.27717">
        <ele>83.6</ele>
        <time>2021-07-05 17:09:10</time>
      </trkpt>
      <trkpt lat="28.10658" lon="-14.27714">
        <ele>83.6</ele>
        <time>2021-07-05 17:09:13</time>
      </trkpt>
      <trkpt lat="28.10657" lon="-14.27711">
        <ele>83.6</ele>
        <time>2021-07-05 17:09:14</time>
      </trkpt>
      <trkpt lat="28.10656" lon="-14.27707">
        <ele>83.6</ele>
        <time>2021-07-05 17:09:15</time>
      </trkpt>
      <trkpt lat="28.10654" lon="-14.27703">
        <ele>83.6</ele>
        <time>2021-07-05 17:09:16</time>
      </trkpt>
      <trkpt lat="28.10652" lon="-14.27699">
        <ele>83.4</ele>
        <time>2021-07-05 17:09:17</time>
      </trkpt>
      <trkpt lat="28.1065" lon="-14.27695">
        <ele>83</ele>
        <time>2021-07-05 17:09:18</time>
      </trkpt>
      <trkpt lat="28.10647" lon="-14.27691">
        <ele>82.8</ele>
        <time>2021-07-05 17:09:19</time>
      </trkpt>
      <trkpt lat="28.10643" lon="-14.27687">
        <ele>82.6</ele>
        <time>2021-07-05 17:09:20</time>
      </trkpt>
      <trkpt lat="28.1064" lon="-14.27683">
        <ele>82.6</ele>
        <time>2021-07-05 17:09:21</time>
      </trkpt>
      <trkpt lat="28.10636" lon="-14.2768">
        <ele>82.2</ele>
        <time>2021-07-05 17:09:22</time>
      </trkpt>
      <trkpt lat="28.10632" lon="-14.27677">
        <ele>82.2</ele>
        <time>2021-07-05 17:09:23</time>
      </trkpt>
      <trkpt lat="28.10629" lon="-14.27674">
        <ele>82</ele>
        <time>2021-07-05 17:09:24</time>
      </trkpt>
      <trkpt lat="28.10624" lon="-14.27671">
        <ele>82</ele>
        <time>2021-07-05 17:09:25</time>
      </trkpt>
      <trkpt lat="28.10619" lon="-14.27669">
        <ele>81.6</ele>
        <time>2021-07-05 17:09:26</time>
      </trkpt>
      <trkpt lat="28.10615" lon="-14.27667">
        <ele>81.4</ele>
        <time>2021-07-05 17:09:27</time>
      </trkpt>
      <trkpt lat="28.10611" lon="-14.27665">
        <ele>81.4</ele>
        <time>2021-07-05 17:09:28</time>
      </trkpt>
      <trkpt lat="28.10606" lon="-14.27664">
        <ele>81.4</ele>
        <time>2021-07-05 17:09:29</time>
      </trkpt>
      <trkpt lat="28.10601" lon="-14.27662">
        <ele>81.2</ele>
        <time>2021-07-05 17:09:30</time>
      </trkpt>
      <trkpt lat="28.10597" lon="-14.2766">
        <ele>81.2</ele>
        <time>2021-07-05 17:09:31</time>
      </trkpt>
      <trkpt lat="28.10592" lon="-14.27658">
        <ele>81</ele>
        <time>2021-07-05 17:09:32</time>
      </trkpt>
      <trkpt lat="28.10587" lon="-14.27657">
        <ele>81</ele>
        <time>2021-07-05 17:09:33</time>
      </trkpt>
      <trkpt lat="28.10583" lon="-14.27654">
        <ele>81</ele>
        <time>2021-07-05 17:09:34</time>
      </trkpt>
      <trkpt lat="28.10579" lon="-14.27652">
        <ele>81</ele>
        <time>2021-07-05 17:09:35</time>
      </trkpt>
      <trkpt lat="28.10574" lon="-14.2765">
        <ele>81</ele>
        <time>2021-07-05 17:09:36</time>
      </trkpt>
      <trkpt lat="28.10569" lon="-14.27648">
        <ele>81</ele>
        <time>2021-07-05 17:09:37</time>
      </trkpt>
      <trkpt lat="28.10564" lon="-14.27646">
        <ele>80.6</ele>
        <time>2021-07-05 17:09:38</time>
      </trkpt>
      <trkpt lat="28.10559" lon="-14.27645">
        <ele>80.6</ele>
        <time>2021-07-05 17:09:39</time>
      </trkpt>
      <trkpt lat="28.10555" lon="-14.27643">
        <ele>80.6</ele>
        <time>2021-07-05 17:09:40</time>
      </trkpt>
      <trkpt lat="28.1055" lon="-14.27642">
        <ele>80.6</ele>
        <time>2021-07-05 17:09:41</time>
      </trkpt>
      <trkpt lat="28.10545" lon="-14.2764">
        <ele>80.6</ele>
        <time>2021-07-05 17:09:42</time>
      </trkpt>
      <trkpt lat="28.1054" lon="-14.27637">
        <ele>80.6</ele>
        <time>2021-07-05 17:09:43</time>
      </trkpt>
      <trkpt lat="28.10536" lon="-14.27635">
        <ele>80.6</ele>
        <time>2021-07-05 17:09:44</time>
      </trkpt>
      <trkpt lat="28.1053" lon="-14.27633">
        <ele>80.6</ele>
        <time>2021-07-05 17:09:45</time>
      </trkpt>
      <trkpt lat="28.10525" lon="-14.27631">
        <ele>80.6</ele>
        <time>2021-07-05 17:09:46</time>
      </trkpt>
      <trkpt lat="28.1052" lon="-14.27628">
        <ele>80.6</ele>
        <time>2021-07-05 17:09:47</time>
      </trkpt>
      <trkpt lat="28.10515" lon="-14.27626">
        <ele>80.6</ele>
        <time>2021-07-05 17:09:48</time>
      </trkpt>
      <trkpt lat="28.1051" lon="-14.27624">
        <ele>80.6</ele>
        <time>2021-07-05 17:09:49</time>
      </trkpt>
      <trkpt lat="28.10505" lon="-14.27621">
        <ele>80.6</ele>
        <time>2021-07-05 17:09:50</time>
      </trkpt>
      <trkpt lat="28.105" lon="-14.27619">
        <ele>80.6</ele>
        <time>2021-07-05 17:09:51</time>
      </trkpt>
      <trkpt lat="28.10495" lon="-14.27617">
        <ele>80.6</ele>
        <time>2021-07-05 17:09:52</time>
      </trkpt>
      <trkpt lat="28.1049" lon="-14.27614">
        <ele>80.6</ele>
        <time>2021-07-05 17:09:53</time>
      </trkpt>
      <trkpt lat="28.10485" lon="-14.27612">
        <ele>80.6</ele>
        <time>2021-07-05 17:09:54</time>
      </trkpt>
      <trkpt lat="28.1048" lon="-14.27609">
        <ele>80.6</ele>
        <time>2021-07-05 17:09:55</time>
      </trkpt>
      <trkpt lat="28.10475" lon="-14.27607">
        <ele>80.6</ele>
        <time>2021-07-05 17:09:56</time>
      </trkpt>
      <trkpt lat="28.10471" lon="-14.27604">
        <ele>80.6</ele>
        <time>2021-07-05 17:09:57</time>
      </trkpt>
      <trkpt lat="28.10466" lon="-14.27601">
        <ele>80.6</ele>
        <time>2021-07-05 17:09:58</time>
      </trkpt>
      <trkpt lat="28.1046" lon="-14.27599">
        <ele>80.6</ele>
        <time>2021-07-05 17:09:59</time>
      </trkpt>
      <trkpt lat="28.10454" lon="-14.27596">
        <ele>80.6</ele>
        <time>2021-07-05 17:10:00</time>
      </trkpt>
      <trkpt lat="28.10449" lon="-14.27593">
        <ele>80.6</ele>
        <time>2021-07-05 17:10:01</time>
      </trkpt>
      <trkpt lat="28.10444" lon="-14.27591">
        <ele>80.6</ele>
        <time>2021-07-05 17:10:02</time>
      </trkpt>
      <trkpt lat="28.10438" lon="-14.27588">
        <ele>80.6</ele>
        <time>2021-07-05 17:10:03</time>
      </trkpt>
      <trkpt lat="28.10433" lon="-14.27585">
        <ele>80.6</ele>
        <time>2021-07-05 17:10:04</time>
      </trkpt>
      <trkpt lat="28.10427" lon="-14.27582">
        <ele>80.4</ele>
        <time>2021-07-05 17:10:05</time>
      </trkpt>
      <trkpt lat="28.10421" lon="-14.27578">
        <ele>80.4</ele>
        <time>2021-07-05 17:10:06</time>
      </trkpt>
      <trkpt lat="28.10414" lon="-14.27574">
        <ele>80</ele>
        <time>2021-07-05 17:10:07</time>
      </trkpt>
      <trkpt lat="28.10408" lon="-14.2757">
        <ele>80</ele>
        <time>2021-07-05 17:10:08</time>
      </trkpt>
      <trkpt lat="28.10401" lon="-14.27566">
        <ele>79.8</ele>
        <time>2021-07-05 17:10:09</time>
      </trkpt>
      <trkpt lat="28.10394" lon="-14.27562">
        <ele>79.4</ele>
        <time>2021-07-05 17:10:10</time>
      </trkpt>
      <trkpt lat="28.10386" lon="-14.27557">
        <ele>79.2</ele>
        <time>2021-07-05 17:10:11</time>
      </trkpt>
      <trkpt lat="28.10379" lon="-14.27552">
        <ele>78.8</ele>
        <time>2021-07-05 17:10:12</time>
      </trkpt>
      <trkpt lat="28.1037" lon="-14.27548">
        <ele>78.4</ele>
        <time>2021-07-05 17:10:13</time>
      </trkpt>
      <trkpt lat="28.10362" lon="-14.27543">
        <ele>78</ele>
        <time>2021-07-05 17:10:14</time>
      </trkpt>
      <trkpt lat="28.10353" lon="-14.27538">
        <ele>77.6</ele>
        <time>2021-07-05 17:10:15</time>
      </trkpt>
      <trkpt lat="28.10343" lon="-14.27533">
        <ele>76.8</ele>
        <time>2021-07-05 17:10:16</time>
      </trkpt>
      <trkpt lat="28.10333" lon="-14.27529">
        <ele>76.8</ele>
        <time>2021-07-05 17:10:17</time>
      </trkpt>
      <trkpt lat="28.10323" lon="-14.27524">
        <ele>76.2</ele>
        <time>2021-07-05 17:10:18</time>
      </trkpt>
      <trkpt lat="28.10313" lon="-14.27521">
        <ele>75.6</ele>
        <time>2021-07-05 17:10:19</time>
      </trkpt>
      <trkpt lat="28.10302" lon="-14.27519">
        <ele>75</ele>
        <time>2021-07-05 17:10:20</time>
      </trkpt>
      <trkpt lat="28.10292" lon="-14.27518">
        <ele>74.4</ele>
        <time>2021-07-05 17:10:21</time>
      </trkpt>
      <trkpt lat="28.10281" lon="-14.27516">
        <ele>73.8</ele>
        <time>2021-07-05 17:10:22</time>
      </trkpt>
      <trkpt lat="28.10271" lon="-14.27516">
        <ele>73.4</ele>
        <time>2021-07-05 17:10:23</time>
      </trkpt>
      <trkpt lat="28.10261" lon="-14.27516">
        <ele>73</ele>
        <time>2021-07-05 17:10:24</time>
      </trkpt>
      <trkpt lat="28.1025" lon="-14.27517">
        <ele>72.6</ele>
        <time>2021-07-05 17:10:25</time>
      </trkpt>
      <trkpt lat="28.1024" lon="-14.27519">
        <ele>72.2</ele>
        <time>2021-07-05 17:10:26</time>
      </trkpt>
      <trkpt lat="28.1023" lon="-14.27521">
        <ele>72</ele>
        <time>2021-07-05 17:10:27</time>
      </trkpt>
      <trkpt lat="28.1022" lon="-14.27524">
        <ele>71.8</ele>
        <time>2021-07-05 17:10:28</time>
      </trkpt>
      <trkpt lat="28.10211" lon="-14.27527">
        <ele>71.8</ele>
        <time>2021-07-05 17:10:29</time>
      </trkpt>
      <trkpt lat="28.10201" lon="-14.27531">
        <ele>71</ele>
        <time>2021-07-05 17:10:30</time>
      </trkpt>
      <trkpt lat="28.10192" lon="-14.27535">
        <ele>71</ele>
        <time>2021-07-05 17:10:31</time>
      </trkpt>
      <trkpt lat="28.10184" lon="-14.2754">
        <ele>70.8</ele>
        <time>2021-07-05 17:10:32</time>
      </trkpt>
      <trkpt lat="28.10176" lon="-14.27546">
        <ele>70.4</ele>
        <time>2021-07-05 17:10:33</time>
      </trkpt>
      <trkpt lat="28.10168" lon="-14.27552">
        <ele>70.4</ele>
        <time>2021-07-05 17:10:34</time>
      </trkpt>
      <trkpt lat="28.10161" lon="-14.27559">
        <ele>70</ele>
        <time>2021-07-05 17:10:35</time>
      </trkpt>
      <trkpt lat="28.10153" lon="-14.27565">
        <ele>70</ele>
        <time>2021-07-05 17:10:36</time>
      </trkpt>
      <trkpt lat="28.10147" lon="-14.27572">
        <ele>70</ele>
        <time>2021-07-05 17:10:37</time>
      </trkpt>
      <trkpt lat="28.1014" lon="-14.27579">
        <ele>69.2</ele>
        <time>2021-07-05 17:10:38</time>
      </trkpt>
      <trkpt lat="28.10133" lon="-14.27585">
        <ele>69.2</ele>
        <time>2021-07-05 17:10:39</time>
      </trkpt>
      <trkpt lat="28.10127" lon="-14.27591">
        <ele>69.2</ele>
        <time>2021-07-05 17:10:40</time>
      </trkpt>
      <trkpt lat="28.10121" lon="-14.27597">
        <ele>68.8</ele>
        <time>2021-07-05 17:10:41</time>
      </trkpt>
      <trkpt lat="28.10115" lon="-14.27603">
        <ele>68.8</ele>
        <time>2021-07-05 17:10:42</time>
      </trkpt>
      <trkpt lat="28.10109" lon="-14.27608">
        <ele>68.6</ele>
        <time>2021-07-05 17:10:43</time>
      </trkpt>
      <trkpt lat="28.10103" lon="-14.27614">
        <ele>68.6</ele>
        <time>2021-07-05 17:10:44</time>
      </trkpt>
      <trkpt lat="28.10097" lon="-14.27621">
        <ele>68.4</ele>
        <time>2021-07-05 17:10:45</time>
      </trkpt>
      <trkpt lat="28.1009" lon="-14.27627">
        <ele>68.4</ele>
        <time>2021-07-05 17:10:46</time>
      </trkpt>
      <trkpt lat="28.10084" lon="-14.27634">
        <ele>68</ele>
        <time>2021-07-05 17:10:47</time>
      </trkpt>
      <trkpt lat="28.10078" lon="-14.2764">
        <ele>67.4</ele>
        <time>2021-07-05 17:10:48</time>
      </trkpt>
      <trkpt lat="28.10072" lon="-14.27646">
        <ele>67.4</ele>
        <time>2021-07-05 17:10:49</time>
      </trkpt>
      <trkpt lat="28.10066" lon="-14.27653">
        <ele>66.8</ele>
        <time>2021-07-05 17:10:50</time>
      </trkpt>
      <trkpt lat="28.1006" lon="-14.27661">
        <ele>66.8</ele>
        <time>2021-07-05 17:10:51</time>
      </trkpt>
      <trkpt lat="28.10056" lon="-14.27668">
        <ele>66.4</ele>
        <time>2021-07-05 17:10:52</time>
      </trkpt>
      <trkpt lat="28.1005" lon="-14.27676">
        <ele>66</ele>
        <time>2021-07-05 17:10:53</time>
      </trkpt>
      <trkpt lat="28.10046" lon="-14.27684">
        <ele>65.6</ele>
        <time>2021-07-05 17:10:54</time>
      </trkpt>
      <trkpt lat="28.10042" lon="-14.27693">
        <ele>65</ele>
        <time>2021-07-05 17:10:55</time>
      </trkpt>
      <trkpt lat="28.10039" lon="-14.27701">
        <ele>64.4</ele>
        <time>2021-07-05 17:10:56</time>
      </trkpt>
      <trkpt lat="28.10035" lon="-14.27708">
        <ele>63</ele>
        <time>2021-07-05 17:10:57</time>
      </trkpt>
      <trkpt lat="28.10032" lon="-14.27716">
        <ele>63</ele>
        <time>2021-07-05 17:10:58</time>
      </trkpt>
      <trkpt lat="28.1003" lon="-14.27723">
        <ele>62.4</ele>
        <time>2021-07-05 17:10:59</time>
      </trkpt>
      <trkpt lat="28.10027" lon="-14.2773">
        <ele>61.8</ele>
        <time>2021-07-05 17:11:00</time>
      </trkpt>
      <trkpt lat="28.10025" lon="-14.27736">
        <ele>61</ele>
        <time>2021-07-05 17:11:01</time>
      </trkpt>
      <trkpt lat="28.10024" lon="-14.27744">
        <ele>60.4</ele>
        <time>2021-07-05 17:11:02</time>
      </trkpt>
      <trkpt lat="28.10022" lon="-14.27751">
        <ele>60</ele>
        <time>2021-07-05 17:11:03</time>
      </trkpt>
      <trkpt lat="28.10021" lon="-14.27758">
        <ele>59.4</ele>
        <time>2021-07-05 17:11:04</time>
      </trkpt>
      <trkpt lat="28.1002" lon="-14.27765">
        <ele>58.4</ele>
        <time>2021-07-05 17:11:05</time>
      </trkpt>
      <trkpt lat="28.1002" lon="-14.27772">
        <ele>58.4</ele>
        <time>2021-07-05 17:11:06</time>
      </trkpt>
      <trkpt lat="28.10019" lon="-14.27779">
        <ele>57.4</ele>
        <time>2021-07-05 17:11:07</time>
      </trkpt>
      <trkpt lat="28.10019" lon="-14.27786">
        <ele>57.4</ele>
        <time>2021-07-05 17:11:08</time>
      </trkpt>
      <trkpt lat="28.10019" lon="-14.27793">
        <ele>57</ele>
        <time>2021-07-05 17:11:09</time>
      </trkpt>
      <trkpt lat="28.10019" lon="-14.27801">
        <ele>56.6</ele>
        <time>2021-07-05 17:11:10</time>
      </trkpt>
      <trkpt lat="28.10019" lon="-14.27808">
        <ele>56.6</ele>
        <time>2021-07-05 17:11:11</time>
      </trkpt>
      <trkpt lat="28.1002" lon="-14.27814">
        <ele>56.6</ele>
        <time>2021-07-05 17:11:12</time>
      </trkpt>
      <trkpt lat="28.1002" lon="-14.2782">
        <ele>56.6</ele>
        <time>2021-07-05 17:11:13</time>
      </trkpt>
      <trkpt lat="28.10021" lon="-14.27827">
        <ele>56.8</ele>
        <time>2021-07-05 17:11:14</time>
      </trkpt>
      <trkpt lat="28.10022" lon="-14.27832">
        <ele>56.8</ele>
        <time>2021-07-05 17:11:15</time>
      </trkpt>
      <trkpt lat="28.10023" lon="-14.27838">
        <ele>56.8</ele>
        <time>2021-07-05 17:11:16</time>
      </trkpt>
      <trkpt lat="28.10024" lon="-14.27844">
        <ele>57</ele>
        <time>2021-07-05 17:11:17</time>
      </trkpt>
      <trkpt lat="28.10025" lon="-14.2785">
        <ele>57</ele>
        <time>2021-07-05 17:11:18</time>
      </trkpt>
      <trkpt lat="28.10027" lon="-14.27856">
        <ele>57</ele>
        <time>2021-07-05 17:11:19</time>
      </trkpt>
      <trkpt lat="28.10028" lon="-14.27862">
        <ele>57</ele>
        <time>2021-07-05 17:11:20</time>
      </trkpt>
      <trkpt lat="28.10029" lon="-14.27868">
        <ele>57</ele>
        <time>2021-07-05 17:11:21</time>
      </trkpt>
      <trkpt lat="28.1003" lon="-14.27874">
        <ele>57</ele>
        <time>2021-07-05 17:11:22</time>
      </trkpt>
      <trkpt lat="28.10031" lon="-14.27879">
        <ele>57</ele>
        <time>2021-07-05 17:11:23</time>
      </trkpt>
      <trkpt lat="28.10031" lon="-14.27886">
        <ele>57</ele>
        <time>2021-07-05 17:11:24</time>
      </trkpt>
      <trkpt lat="28.10032" lon="-14.27891">
        <ele>56.8</ele>
        <time>2021-07-05 17:11:25</time>
      </trkpt>
      <trkpt lat="28.10033" lon="-14.27896">
        <ele>56.8</ele>
        <time>2021-07-05 17:11:26</time>
      </trkpt>
      <trkpt lat="28.10034" lon="-14.27902">
        <ele>56.8</ele>
        <time>2021-07-05 17:11:27</time>
      </trkpt>
      <trkpt lat="28.10035" lon="-14.27907">
        <ele>56.8</ele>
        <time>2021-07-05 17:11:28</time>
      </trkpt>
      <trkpt lat="28.10036" lon="-14.27913">
        <ele>56.8</ele>
        <time>2021-07-05 17:11:29</time>
      </trkpt>
      <trkpt lat="28.10037" lon="-14.27918">
        <ele>57</ele>
        <time>2021-07-05 17:11:30</time>
      </trkpt>
      <trkpt lat="28.10038" lon="-14.27923">
        <ele>57.2</ele>
        <time>2021-07-05 17:11:31</time>
      </trkpt>
      <trkpt lat="28.10038" lon="-14.27928">
        <ele>57.2</ele>
        <time>2021-07-05 17:11:32</time>
      </trkpt>
      <trkpt lat="28.10038" lon="-14.27933">
        <ele>56.6</ele>
        <time>2021-07-05 17:11:33</time>
      </trkpt>
      <trkpt lat="28.10039" lon="-14.27937">
        <ele>56.6</ele>
        <time>2021-07-05 17:11:34</time>
      </trkpt>
      <trkpt lat="28.1004" lon="-14.27942">
        <ele>56</ele>
        <time>2021-07-05 17:11:35</time>
      </trkpt>
      <trkpt lat="28.10041" lon="-14.27947">
        <ele>55.6</ele>
        <time>2021-07-05 17:11:36</time>
      </trkpt>
      <trkpt lat="28.10042" lon="-14.27951">
        <ele>55</ele>
        <time>2021-07-05 17:11:37</time>
      </trkpt>
      <trkpt lat="28.10042" lon="-14.27956">
        <ele>54.6</ele>
        <time>2021-07-05 17:11:38</time>
      </trkpt>
      <trkpt lat="28.10043" lon="-14.27961">
        <ele>54</ele>
        <time>2021-07-05 17:11:39</time>
      </trkpt>
      <trkpt lat="28.10044" lon="-14.27967">
        <ele>53.6</ele>
        <time>2021-07-05 17:11:40</time>
      </trkpt>
      <trkpt lat="28.10045" lon="-14.27973">
        <ele>53.2</ele>
        <time>2021-07-05 17:11:41</time>
      </trkpt>
      <trkpt lat="28.10046" lon="-14.27979">
        <ele>53</ele>
        <time>2021-07-05 17:11:42</time>
      </trkpt>
      <trkpt lat="28.10047" lon="-14.27985">
        <ele>53</ele>
        <time>2021-07-05 17:11:43</time>
      </trkpt>
      <trkpt lat="28.10049" lon="-14.27992">
        <ele>52.2</ele>
        <time>2021-07-05 17:11:44</time>
      </trkpt>
      <trkpt lat="28.1005" lon="-14.27998">
        <ele>52.2</ele>
        <time>2021-07-05 17:11:45</time>
      </trkpt>
      <trkpt lat="28.10053" lon="-14.28004">
        <ele>52</ele>
        <time>2021-07-05 17:11:46</time>
      </trkpt>
      <trkpt lat="28.10055" lon="-14.28009">
        <ele>51.6</ele>
        <time>2021-07-05 17:11:47</time>
      </trkpt>
      <trkpt lat="28.10058" lon="-14.28014">
        <ele>51.6</ele>
        <time>2021-07-05 17:11:48</time>
      </trkpt>
      <trkpt lat="28.10061" lon="-14.28019">
        <ele>51.6</ele>
        <time>2021-07-05 17:11:49</time>
      </trkpt>
      <trkpt lat="28.10063" lon="-14.28024">
        <ele>51.6</ele>
        <time>2021-07-05 17:11:50</time>
      </trkpt>
      <trkpt lat="28.10067" lon="-14.28027">
        <ele>51.6</ele>
        <time>2021-07-05 17:11:51</time>
      </trkpt>
      <trkpt lat="28.10071" lon="-14.28031">
        <ele>51.6</ele>
        <time>2021-07-05 17:11:52</time>
      </trkpt>
      <trkpt lat="28.10074" lon="-14.28034">
        <ele>51.4</ele>
        <time>2021-07-05 17:11:53</time>
      </trkpt>
      <trkpt lat="28.10078" lon="-14.28037">
        <ele>51.4</ele>
        <time>2021-07-05 17:11:54</time>
      </trkpt>
      <trkpt lat="28.10082" lon="-14.28039">
        <ele>51.4</ele>
        <time>2021-07-05 17:11:55</time>
      </trkpt>
      <trkpt lat="28.10085" lon="-14.28041">
        <ele>51.4</ele>
        <time>2021-07-05 17:11:56</time>
      </trkpt>
      <trkpt lat="28.10087" lon="-14.28043">
        <ele>51.4</ele>
        <time>2021-07-05 17:11:57</time>
      </trkpt>
      <trkpt lat="28.1009" lon="-14.28044">
        <ele>52</ele>
        <time>2021-07-05 17:11:58</time>
      </trkpt>
      <trkpt lat="28.10093" lon="-14.28044">
        <ele>52.4</ele>
        <time>2021-07-05 17:11:59</time>
      </trkpt>
      <trkpt lat="28.10096" lon="-14.28046">
        <ele>52.4</ele>
        <time>2021-07-05 17:12:00</time>
      </trkpt>
      <trkpt lat="28.10098" lon="-14.28048">
        <ele>52.4</ele>
        <time>2021-07-05 17:12:01</time>
      </trkpt>
      <trkpt lat="28.10101" lon="-14.28048">
        <ele>52.4</ele>
        <time>2021-07-05 17:12:02</time>
      </trkpt>
      <trkpt lat="28.10104" lon="-14.2805">
        <ele>52.4</ele>
        <time>2021-07-05 17:12:03</time>
      </trkpt>
      <trkpt lat="28.10107" lon="-14.28051">
        <ele>52.4</ele>
        <time>2021-07-05 17:12:04</time>
      </trkpt>
      <trkpt lat="28.1011" lon="-14.28052">
        <ele>52.4</ele>
        <time>2021-07-05 17:12:05</time>
      </trkpt>
      <trkpt lat="28.10112" lon="-14.28053">
        <ele>52.4</ele>
        <time>2021-07-05 17:12:06</time>
      </trkpt>
      <trkpt lat="28.10115" lon="-14.28054">
        <ele>52.4</ele>
        <time>2021-07-05 17:12:07</time>
      </trkpt>
      <trkpt lat="28.10118" lon="-14.28055">
        <ele>52.4</ele>
        <time>2021-07-05 17:12:08</time>
      </trkpt>
      <trkpt lat="28.1012" lon="-14.28056">
        <ele>52.4</ele>
        <time>2021-07-05 17:12:09</time>
      </trkpt>
      <trkpt lat="28.10123" lon="-14.28058">
        <ele>52.4</ele>
        <time>2021-07-05 17:12:10</time>
      </trkpt>
      <trkpt lat="28.10125" lon="-14.28059">
        <ele>52.8</ele>
        <time>2021-07-05 17:12:11</time>
      </trkpt>
      <trkpt lat="28.10127" lon="-14.28061">
        <ele>52.8</ele>
        <time>2021-07-05 17:12:12</time>
      </trkpt>
      <trkpt lat="28.1013" lon="-14.28063">
        <ele>52.8</ele>
        <time>2021-07-05 17:12:13</time>
      </trkpt>
      <trkpt lat="28.10132" lon="-14.28065">
        <ele>52.8</ele>
        <time>2021-07-05 17:12:14</time>
      </trkpt>
      <trkpt lat="28.10134" lon="-14.28066">
        <ele>53.2</ele>
        <time>2021-07-05 17:12:15</time>
      </trkpt>
      <trkpt lat="28.10136" lon="-14.28068">
        <ele>53.2</ele>
        <time>2021-07-05 17:12:16</time>
      </trkpt>
      <trkpt lat="28.10139" lon="-14.2807">
        <ele>53.4</ele>
        <time>2021-07-05 17:12:17</time>
      </trkpt>
      <trkpt lat="28.10141" lon="-14.28073">
        <ele>53.4</ele>
        <time>2021-07-05 17:12:18</time>
      </trkpt>
      <trkpt lat="28.10144" lon="-14.28075">
        <ele>53.4</ele>
        <time>2021-07-05 17:12:19</time>
      </trkpt>
      <trkpt lat="28.10146" lon="-14.28078">
        <ele>53.4</ele>
        <time>2021-07-05 17:12:20</time>
      </trkpt>
      <trkpt lat="28.10148" lon="-14.28081">
        <ele>53.4</ele>
        <time>2021-07-05 17:12:21</time>
      </trkpt>
      <trkpt lat="28.1015" lon="-14.28084">
        <ele>53.2</ele>
        <time>2021-07-05 17:12:22</time>
      </trkpt>
      <trkpt lat="28.10152" lon="-14.28087">
        <ele>53</ele>
        <time>2021-07-05 17:12:23</time>
      </trkpt>
      <trkpt lat="28.10154" lon="-14.28089">
        <ele>52.6</ele>
        <time>2021-07-05 17:12:24</time>
      </trkpt>
      <trkpt lat="28.10156" lon="-14.28093">
        <ele>52.4</ele>
        <time>2021-07-05 17:12:25</time>
      </trkpt>
      <trkpt lat="28.10158" lon="-14.28096">
        <ele>52.4</ele>
        <time>2021-07-05 17:12:26</time>
      </trkpt>
      <trkpt lat="28.10159" lon="-14.28099">
        <ele>52.2</ele>
        <time>2021-07-05 17:12:27</time>
      </trkpt>
      <trkpt lat="28.10161" lon="-14.28102">
        <ele>52.2</ele>
        <time>2021-07-05 17:12:28</time>
      </trkpt>
      <trkpt lat="28.10163" lon="-14.28105">
        <ele>51.8</ele>
        <time>2021-07-05 17:12:29</time>
      </trkpt>
      <trkpt lat="28.10165" lon="-14.28108">
        <ele>51.8</ele>
        <time>2021-07-05 17:12:30</time>
      </trkpt>
      <trkpt lat="28.10167" lon="-14.28112">
        <ele>51.8</ele>
        <time>2021-07-05 17:12:31</time>
      </trkpt>
      <trkpt lat="28.10168" lon="-14.28115">
        <ele>51.8</ele>
        <time>2021-07-05 17:12:32</time>
      </trkpt>
      <trkpt lat="28.1017" lon="-14.28118">
        <ele>51.8</ele>
        <time>2021-07-05 17:12:33</time>
      </trkpt>
      <trkpt lat="28.10172" lon="-14.28121">
        <ele>51.8</ele>
        <time>2021-07-05 17:12:34</time>
      </trkpt>
      <trkpt lat="28.10174" lon="-14.28124">
        <ele>51.8</ele>
        <time>2021-07-05 17:12:35</time>
      </trkpt>
      <trkpt lat="28.10176" lon="-14.28127">
        <ele>51.8</ele>
        <time>2021-07-05 17:12:36</time>
      </trkpt>
      <trkpt lat="28.10177" lon="-14.28131">
        <ele>51.8</ele>
        <time>2021-07-05 17:12:37</time>
      </trkpt>
      <trkpt lat="28.10179" lon="-14.28134">
        <ele>51.6</ele>
        <time>2021-07-05 17:12:38</time>
      </trkpt>
      <trkpt lat="28.10181" lon="-14.28138">
        <ele>51.2</ele>
        <time>2021-07-05 17:12:39</time>
      </trkpt>
      <trkpt lat="28.10182" lon="-14.28141">
        <ele>51</ele>
        <time>2021-07-05 17:12:40</time>
      </trkpt>
      <trkpt lat="28.10184" lon="-14.28145">
        <ele>51</ele>
        <time>2021-07-05 17:12:41</time>
      </trkpt>
      <trkpt lat="28.10185" lon="-14.28148">
        <ele>50.8</ele>
        <time>2021-07-05 17:12:42</time>
      </trkpt>
      <trkpt lat="28.10187" lon="-14.28151">
        <ele>50.8</ele>
        <time>2021-07-05 17:12:43</time>
      </trkpt>
      <trkpt lat="28.10188" lon="-14.28154">
        <ele>50.4</ele>
        <time>2021-07-05 17:12:44</time>
      </trkpt>
      <trkpt lat="28.10189" lon="-14.28158">
        <ele>50.4</ele>
        <time>2021-07-05 17:12:45</time>
      </trkpt>
      <trkpt lat="28.10191" lon="-14.28162">
        <ele>50.4</ele>
        <time>2021-07-05 17:12:46</time>
      </trkpt>
      <trkpt lat="28.10192" lon="-14.28165">
        <ele>50.4</ele>
        <time>2021-07-05 17:12:47</time>
      </trkpt>
      <trkpt lat="28.10193" lon="-14.28169">
        <ele>50.4</ele>
        <time>2021-07-05 17:12:48</time>
      </trkpt>
      <trkpt lat="28.10195" lon="-14.28173">
        <ele>50.4</ele>
        <time>2021-07-05 17:12:49</time>
      </trkpt>
      <trkpt lat="28.10196" lon="-14.28177">
        <ele>50</ele>
        <time>2021-07-05 17:12:50</time>
      </trkpt>
      <trkpt lat="28.10197" lon="-14.28181">
        <ele>50</ele>
        <time>2021-07-05 17:12:51</time>
      </trkpt>
      <trkpt lat="28.10198" lon="-14.28185">
        <ele>50</ele>
        <time>2021-07-05 17:12:52</time>
      </trkpt>
      <trkpt lat="28.10199" lon="-14.28189">
        <ele>49.8</ele>
        <time>2021-07-05 17:12:53</time>
      </trkpt>
      <trkpt lat="28.102" lon="-14.28193">
        <ele>49.8</ele>
        <time>2021-07-05 17:12:54</time>
      </trkpt>
      <trkpt lat="28.10201" lon="-14.28197">
        <ele>49.8</ele>
        <time>2021-07-05 17:12:55</time>
      </trkpt>
      <trkpt lat="28.10201" lon="-14.282">
        <ele>49.8</ele>
        <time>2021-07-05 17:12:56</time>
      </trkpt>
      <trkpt lat="28.10202" lon="-14.28204">
        <ele>49.6</ele>
        <time>2021-07-05 17:12:57</time>
      </trkpt>
      <trkpt lat="28.10203" lon="-14.28208">
        <ele>49.6</ele>
        <time>2021-07-05 17:12:58</time>
      </trkpt>
      <trkpt lat="28.10204" lon="-14.28212">
        <ele>49.4</ele>
        <time>2021-07-05 17:12:59</time>
      </trkpt>
      <trkpt lat="28.10204" lon="-14.28216">
        <ele>49.4</ele>
        <time>2021-07-05 17:13:00</time>
      </trkpt>
      <trkpt lat="28.10205" lon="-14.28221">
        <ele>49.4</ele>
        <time>2021-07-05 17:13:01</time>
      </trkpt>
      <trkpt lat="28.10205" lon="-14.28225">
        <ele>49.4</ele>
        <time>2021-07-05 17:13:02</time>
      </trkpt>
      <trkpt lat="28.10205" lon="-14.28229">
        <ele>49.4</ele>
        <time>2021-07-05 17:13:03</time>
      </trkpt>
      <trkpt lat="28.10206" lon="-14.28233">
        <ele>49.4</ele>
        <time>2021-07-05 17:13:04</time>
      </trkpt>
      <trkpt lat="28.10206" lon="-14.28238">
        <ele>49.4</ele>
        <time>2021-07-05 17:13:05</time>
      </trkpt>
      <trkpt lat="28.10206" lon="-14.28242">
        <ele>49.4</ele>
        <time>2021-07-05 17:13:06</time>
      </trkpt>
      <trkpt lat="28.10206" lon="-14.28245">
        <ele>49.4</ele>
        <time>2021-07-05 17:13:07</time>
      </trkpt>
      <trkpt lat="28.10207" lon="-14.28249">
        <ele>49.4</ele>
        <time>2021-07-05 17:13:08</time>
      </trkpt>
      <trkpt lat="28.10207" lon="-14.28254">
        <ele>49.2</ele>
        <time>2021-07-05 17:13:09</time>
      </trkpt>
      <trkpt lat="28.10207" lon="-14.28258">
        <ele>49.2</ele>
        <time>2021-07-05 17:13:10</time>
      </trkpt>
      <trkpt lat="28.10207" lon="-14.28262">
        <ele>49.2</ele>
        <time>2021-07-05 17:13:11</time>
      </trkpt>
      <trkpt lat="28.10208" lon="-14.28266">
        <ele>49.2</ele>
        <time>2021-07-05 17:13:12</time>
      </trkpt>
      <trkpt lat="28.10208" lon="-14.2827">
        <ele>49.2</ele>
        <time>2021-07-05 17:13:13</time>
      </trkpt>
      <trkpt lat="28.10208" lon="-14.28274">
        <ele>49.4</ele>
        <time>2021-07-05 17:13:14</time>
      </trkpt>
      <trkpt lat="28.10208" lon="-14.28278">
        <ele>49.4</ele>
        <time>2021-07-05 17:13:15</time>
      </trkpt>
      <trkpt lat="28.10208" lon="-14.28282">
        <ele>49.4</ele>
        <time>2021-07-05 17:13:16</time>
      </trkpt>
      <trkpt lat="28.10209" lon="-14.28286">
        <ele>49.4</ele>
        <time>2021-07-05 17:13:17</time>
      </trkpt>
      <trkpt lat="28.10209" lon="-14.28289">
        <ele>49.4</ele>
        <time>2021-07-05 17:13:18</time>
      </trkpt>
      <trkpt lat="28.10209" lon="-14.28293">
        <ele>49.4</ele>
        <time>2021-07-05 17:13:19</time>
      </trkpt>
      <trkpt lat="28.10209" lon="-14.28297">
        <ele>49.4</ele>
        <time>2021-07-05 17:13:20</time>
      </trkpt>
      <trkpt lat="28.1021" lon="-14.283">
        <ele>49.8</ele>
        <time>2021-07-05 17:13:21</time>
      </trkpt>
      <trkpt lat="28.1021" lon="-14.28303">
        <ele>49.8</ele>
        <time>2021-07-05 17:13:22</time>
      </trkpt>
      <trkpt lat="28.1021" lon="-14.28306">
        <ele>49.4</ele>
        <time>2021-07-05 17:13:23</time>
      </trkpt>
      <trkpt lat="28.1021" lon="-14.28309">
        <ele>49.4</ele>
        <time>2021-07-05 17:13:24</time>
      </trkpt>
      <trkpt lat="28.1021" lon="-14.28312">
        <ele>49.4</ele>
        <time>2021-07-05 17:13:25</time>
      </trkpt>
      <trkpt lat="28.1021" lon="-14.28315">
        <ele>49.4</ele>
        <time>2021-07-05 17:13:26</time>
      </trkpt>
      <trkpt lat="28.1021" lon="-14.28318">
        <ele>49.4</ele>
        <time>2021-07-05 17:13:27</time>
      </trkpt>
      <trkpt lat="28.1021" lon="-14.28322">
        <ele>49.8</ele>
        <time>2021-07-05 17:13:28</time>
      </trkpt>
      <trkpt lat="28.10211" lon="-14.28325">
        <ele>50.4</ele>
        <time>2021-07-05 17:13:29</time>
      </trkpt>
      <trkpt lat="28.10211" lon="-14.28328">
        <ele>50.4</ele>
        <time>2021-07-05 17:13:30</time>
      </trkpt>
      <trkpt lat="28.10211" lon="-14.28331">
        <ele>50.6</ele>
        <time>2021-07-05 17:13:31</time>
      </trkpt>
      <trkpt lat="28.1021" lon="-14.28334">
        <ele>50.8</ele>
        <time>2021-07-05 17:13:32</time>
      </trkpt>
      <trkpt lat="28.1021" lon="-14.28338">
        <ele>51.2</ele>
        <time>2021-07-05 17:13:33</time>
      </trkpt>
      <trkpt lat="28.1021" lon="-14.28341">
        <ele>51.2</ele>
        <time>2021-07-05 17:13:34</time>
      </trkpt>
      <trkpt lat="28.10211" lon="-14.28344">
        <ele>51.2</ele>
        <time>2021-07-05 17:13:35</time>
      </trkpt>
      <trkpt lat="28.10211" lon="-14.28347">
        <ele>51.2</ele>
        <time>2021-07-05 17:13:36</time>
      </trkpt>
      <trkpt lat="28.10211" lon="-14.2835">
        <ele>51.2</ele>
        <time>2021-07-05 17:13:37</time>
      </trkpt>
      <trkpt lat="28.10211" lon="-14.28353">
        <ele>51</ele>
        <time>2021-07-05 17:13:38</time>
      </trkpt>
      <trkpt lat="28.10211" lon="-14.28356">
        <ele>51</ele>
        <time>2021-07-05 17:13:39</time>
      </trkpt>
      <trkpt lat="28.10211" lon="-14.28359">
        <ele>51.2</ele>
        <time>2021-07-05 17:13:40</time>
      </trkpt>
      <trkpt lat="28.10212" lon="-14.28362">
        <ele>51.8</ele>
        <time>2021-07-05 17:13:41</time>
      </trkpt>
      <trkpt lat="28.10212" lon="-14.28365">
        <ele>51.8</ele>
        <time>2021-07-05 17:13:42</time>
      </trkpt>
      <trkpt lat="28.10212" lon="-14.28368">
        <ele>52.2</ele>
        <time>2021-07-05 17:13:43</time>
      </trkpt>
      <trkpt lat="28.10212" lon="-14.28371">
        <ele>52.4</ele>
        <time>2021-07-05 17:13:44</time>
      </trkpt>
      <trkpt lat="28.10212" lon="-14.28374">
        <ele>52.4</ele>
        <time>2021-07-05 17:13:45</time>
      </trkpt>
      <trkpt lat="28.10212" lon="-14.28377">
        <ele>52.4</ele>
        <time>2021-07-05 17:13:46</time>
      </trkpt>
      <trkpt lat="28.10213" lon="-14.28379">
        <ele>52.4</ele>
        <time>2021-07-05 17:13:47</time>
      </trkpt>
      <trkpt lat="28.10213" lon="-14.28382">
        <ele>52.6</ele>
        <time>2021-07-05 17:13:48</time>
      </trkpt>
      <trkpt lat="28.10213" lon="-14.28384">
        <ele>52.6</ele>
        <time>2021-07-05 17:13:49</time>
      </trkpt>
      <trkpt lat="28.10213" lon="-14.28387">
        <ele>52.8</ele>
        <time>2021-07-05 17:13:50</time>
      </trkpt>
      <trkpt lat="28.10213" lon="-14.28389">
        <ele>53.2</ele>
        <time>2021-07-05 17:13:51</time>
      </trkpt>
      <trkpt lat="28.10214" lon="-14.28392">
        <ele>53.2</ele>
        <time>2021-07-05 17:13:52</time>
      </trkpt>
      <trkpt lat="28.10214" lon="-14.28395">
        <ele>53.4</ele>
        <time>2021-07-05 17:13:53</time>
      </trkpt>
      <trkpt lat="28.10214" lon="-14.28398">
        <ele>53.4</ele>
        <time>2021-07-05 17:13:54</time>
      </trkpt>
      <trkpt lat="28.10214" lon="-14.28401">
        <ele>53.4</ele>
        <time>2021-07-05 17:13:55</time>
      </trkpt>
      <trkpt lat="28.10214" lon="-14.28404">
        <ele>53.4</ele>
        <time>2021-07-05 17:13:56</time>
      </trkpt>
      <trkpt lat="28.10214" lon="-14.28407">
        <ele>53.6</ele>
        <time>2021-07-05 17:13:57</time>
      </trkpt>
      <trkpt lat="28.10214" lon="-14.2841">
        <ele>53.6</ele>
        <time>2021-07-05 17:13:58</time>
      </trkpt>
      <trkpt lat="28.10214" lon="-14.28412">
        <ele>53.6</ele>
        <time>2021-07-05 17:13:59</time>
      </trkpt>
      <trkpt lat="28.10214" lon="-14.28415">
        <ele>53.2</ele>
        <time>2021-07-05 17:14:00</time>
      </trkpt>
      <trkpt lat="28.10215" lon="-14.28418">
        <ele>53.2</ele>
        <time>2021-07-05 17:14:01</time>
      </trkpt>
      <trkpt lat="28.10215" lon="-14.28421">
        <ele>53.2</ele>
        <time>2021-07-05 17:14:02</time>
      </trkpt>
      <trkpt lat="28.10215" lon="-14.28424">
        <ele>53.2</ele>
        <time>2021-07-05 17:14:03</time>
      </trkpt>
      <trkpt lat="28.10215" lon="-14.28426">
        <ele>53.2</ele>
        <time>2021-07-05 17:14:04</time>
      </trkpt>
      <trkpt lat="28.10215" lon="-14.28429">
        <ele>53.2</ele>
        <time>2021-07-05 17:14:05</time>
      </trkpt>
      <trkpt lat="28.10215" lon="-14.28432">
        <ele>53.6</ele>
        <time>2021-07-05 17:14:06</time>
      </trkpt>
      <trkpt lat="28.10215" lon="-14.28435">
        <ele>54</ele>
        <time>2021-07-05 17:14:07</time>
      </trkpt>
      <trkpt lat="28.10215" lon="-14.28438">
        <ele>54.4</ele>
        <time>2021-07-05 17:14:08</time>
      </trkpt>
      <trkpt lat="28.10215" lon="-14.28441">
        <ele>54.6</ele>
        <time>2021-07-05 17:14:09</time>
      </trkpt>
      <trkpt lat="28.10215" lon="-14.28445">
        <ele>55</ele>
        <time>2021-07-05 17:14:10</time>
      </trkpt>
      <trkpt lat="28.10215" lon="-14.28448">
        <ele>55.6</ele>
        <time>2021-07-05 17:14:11</time>
      </trkpt>
      <trkpt lat="28.10216" lon="-14.28451">
        <ele>56.4</ele>
        <time>2021-07-05 17:14:12</time>
      </trkpt>
      <trkpt lat="28.10216" lon="-14.28454">
        <ele>56.4</ele>
        <time>2021-07-05 17:14:13</time>
      </trkpt>
      <trkpt lat="28.10216" lon="-14.28458">
        <ele>57</ele>
        <time>2021-07-05 17:14:14</time>
      </trkpt>
      <trkpt lat="28.10216" lon="-14.28461">
        <ele>57</ele>
        <time>2021-07-05 17:14:15</time>
      </trkpt>
      <trkpt lat="28.10216" lon="-14.28464">
        <ele>57.4</ele>
        <time>2021-07-05 17:14:16</time>
      </trkpt>
      <trkpt lat="28.10216" lon="-14.28467">
        <ele>57.4</ele>
        <time>2021-07-05 17:14:17</time>
      </trkpt>
      <trkpt lat="28.10217" lon="-14.2847">
        <ele>57.4</ele>
        <time>2021-07-05 17:14:18</time>
      </trkpt>
      <trkpt lat="28.10217" lon="-14.28473">
        <ele>58</ele>
        <time>2021-07-05 17:14:19</time>
      </trkpt>
      <trkpt lat="28.10217" lon="-14.28476">
        <ele>58.2</ele>
        <time>2021-07-05 17:14:20</time>
      </trkpt>
      <trkpt lat="28.10218" lon="-14.28479">
        <ele>58.2</ele>
        <time>2021-07-05 17:14:21</time>
      </trkpt>
      <trkpt lat="28.10218" lon="-14.28482">
        <ele>58.4</ele>
        <time>2021-07-05 17:14:22</time>
      </trkpt>
      <trkpt lat="28.10218" lon="-14.28485">
        <ele>58.6</ele>
        <time>2021-07-05 17:14:23</time>
      </trkpt>
      <trkpt lat="28.10219" lon="-14.28488">
        <ele>58.6</ele>
        <time>2021-07-05 17:14:24</time>
      </trkpt>
      <trkpt lat="28.10219" lon="-14.28491">
        <ele>58.6</ele>
        <time>2021-07-05 17:14:25</time>
      </trkpt>
      <trkpt lat="28.10219" lon="-14.28494">
        <ele>58.6</ele>
        <time>2021-07-05 17:14:26</time>
      </trkpt>
      <trkpt lat="28.10219" lon="-14.28497">
        <ele>58.6</ele>
        <time>2021-07-05 17:14:27</time>
      </trkpt>
      <trkpt lat="28.1022" lon="-14.285">
        <ele>58.6</ele>
        <time>2021-07-05 17:14:28</time>
      </trkpt>
      <trkpt lat="28.1022" lon="-14.28503">
        <ele>59</ele>
        <time>2021-07-05 17:14:29</time>
      </trkpt>
      <trkpt lat="28.1022" lon="-14.28505">
        <ele>59</ele>
        <time>2021-07-05 17:14:30</time>
      </trkpt>
      <trkpt lat="28.1022" lon="-14.28508">
        <ele>59.4</ele>
        <time>2021-07-05 17:14:31</time>
      </trkpt>
      <trkpt lat="28.10221" lon="-14.28511">
        <ele>59.4</ele>
        <time>2021-07-05 17:14:32</time>
      </trkpt>
      <trkpt lat="28.10221" lon="-14.28514">
        <ele>59.4</ele>
        <time>2021-07-05 17:14:33</time>
      </trkpt>
      <trkpt lat="28.10221" lon="-14.28517">
        <ele>59.4</ele>
        <time>2021-07-05 17:14:34</time>
      </trkpt>
      <trkpt lat="28.10222" lon="-14.2852">
        <ele>59.4</ele>
        <time>2021-07-05 17:14:35</time>
      </trkpt>
      <trkpt lat="28.10222" lon="-14.28523">
        <ele>59.6</ele>
        <time>2021-07-05 17:14:36</time>
      </trkpt>
      <trkpt lat="28.10222" lon="-14.28525">
        <ele>60</ele>
        <time>2021-07-05 17:14:37</time>
      </trkpt>
      <trkpt lat="28.10222" lon="-14.28528">
        <ele>60</ele>
        <time>2021-07-05 17:14:38</time>
      </trkpt>
      <trkpt lat="28.10222" lon="-14.28531">
        <ele>60</ele>
        <time>2021-07-05 17:14:39</time>
      </trkpt>
      <trkpt lat="28.10222" lon="-14.28534">
        <ele>60.4</ele>
        <time>2021-07-05 17:14:40</time>
      </trkpt>
      <trkpt lat="28.10223" lon="-14.28538">
        <ele>60.8</ele>
        <time>2021-07-05 17:14:41</time>
      </trkpt>
      <trkpt lat="28.10223" lon="-14.28541">
        <ele>60.8</ele>
        <time>2021-07-05 17:14:42</time>
      </trkpt>
      <trkpt lat="28.10223" lon="-14.28544">
        <ele>61</ele>
        <time>2021-07-05 17:14:43</time>
      </trkpt>
      <trkpt lat="28.10223" lon="-14.28547">
        <ele>61.2</ele>
        <time>2021-07-05 17:14:44</time>
      </trkpt>
      <trkpt lat="28.10223" lon="-14.28551">
        <ele>61.4</ele>
        <time>2021-07-05 17:14:45</time>
      </trkpt>
      <trkpt lat="28.10223" lon="-14.28554">
        <ele>61.6</ele>
        <time>2021-07-05 17:14:46</time>
      </trkpt>
      <trkpt lat="28.10223" lon="-14.28557">
        <ele>61.6</ele>
        <time>2021-07-05 17:14:47</time>
      </trkpt>
      <trkpt lat="28.10223" lon="-14.2856">
        <ele>61.8</ele>
        <time>2021-07-05 17:14:48</time>
      </trkpt>
      <trkpt lat="28.10223" lon="-14.28564">
        <ele>61.8</ele>
        <time>2021-07-05 17:14:49</time>
      </trkpt>
      <trkpt lat="28.10223" lon="-14.28567">
        <ele>61.8</ele>
        <time>2021-07-05 17:14:50</time>
      </trkpt>
      <trkpt lat="28.10223" lon="-14.2857">
        <ele>61.8</ele>
        <time>2021-07-05 17:14:51</time>
      </trkpt>
      <trkpt lat="28.10224" lon="-14.28574">
        <ele>61.6</ele>
        <time>2021-07-05 17:14:52</time>
      </trkpt>
      <trkpt lat="28.10224" lon="-14.28577">
        <ele>61.6</ele>
        <time>2021-07-05 17:14:53</time>
      </trkpt>
      <trkpt lat="28.10224" lon="-14.2858">
        <ele>61.2</ele>
        <time>2021-07-05 17:14:54</time>
      </trkpt>
      <trkpt lat="28.10224" lon="-14.28583">
        <ele>61</ele>
        <time>2021-07-05 17:14:55</time>
      </trkpt>
      <trkpt lat="28.10224" lon="-14.28586">
        <ele>61</ele>
        <time>2021-07-05 17:14:56</time>
      </trkpt>
      <trkpt lat="28.10223" lon="-14.28589">
        <ele>61</ele>
        <time>2021-07-05 17:14:57</time>
      </trkpt>
      <trkpt lat="28.10223" lon="-14.28592">
        <ele>61</ele>
        <time>2021-07-05 17:14:58</time>
      </trkpt>
      <trkpt lat="28.10223" lon="-14.28596">
        <ele>61</ele>
        <time>2021-07-05 17:14:59</time>
      </trkpt>
      <trkpt lat="28.10222" lon="-14.28599">
        <ele>61</ele>
        <time>2021-07-05 17:15:00</time>
      </trkpt>
      <trkpt lat="28.10221" lon="-14.28602">
        <ele>61.2</ele>
        <time>2021-07-05 17:15:01</time>
      </trkpt>
      <trkpt lat="28.1022" lon="-14.28606">
        <ele>61.2</ele>
        <time>2021-07-05 17:15:02</time>
      </trkpt>
      <trkpt lat="28.10218" lon="-14.28609">
        <ele>61.6</ele>
        <time>2021-07-05 17:15:03</time>
      </trkpt>
      <trkpt lat="28.10217" lon="-14.28612">
        <ele>62</ele>
        <time>2021-07-05 17:15:04</time>
      </trkpt>
      <trkpt lat="28.10215" lon="-14.28615">
        <ele>62</ele>
        <time>2021-07-05 17:15:05</time>
      </trkpt>
      <trkpt lat="28.10213" lon="-14.28619">
        <ele>62.4</ele>
        <time>2021-07-05 17:15:06</time>
      </trkpt>
      <trkpt lat="28.10211" lon="-14.28622">
        <ele>62.4</ele>
        <time>2021-07-05 17:15:07</time>
      </trkpt>
      <trkpt lat="28.10208" lon="-14.28625">
        <ele>62.6</ele>
        <time>2021-07-05 17:15:08</time>
      </trkpt>
      <trkpt lat="28.10206" lon="-14.28628">
        <ele>62.6</ele>
        <time>2021-07-05 17:15:09</time>
      </trkpt>
      <trkpt lat="28.10203" lon="-14.28631">
        <ele>62.6</ele>
        <time>2021-07-05 17:15:10</time>
      </trkpt>
      <trkpt lat="28.102" lon="-14.28633">
        <ele>62.6</ele>
        <time>2021-07-05 17:15:11</time>
      </trkpt>
      <trkpt lat="28.10197" lon="-14.28636">
        <ele>62.6</ele>
        <time>2021-07-05 17:15:12</time>
      </trkpt>
      <trkpt lat="28.10194" lon="-14.28638">
        <ele>63</ele>
        <time>2021-07-05 17:15:13</time>
      </trkpt>
      <trkpt lat="28.1019" lon="-14.2864">
        <ele>63</ele>
        <time>2021-07-05 17:15:14</time>
      </trkpt>
      <trkpt lat="28.10187" lon="-14.28642">
        <ele>63</ele>
        <time>2021-07-05 17:15:15</time>
      </trkpt>
      <trkpt lat="28.10183" lon="-14.28643">
        <ele>63.2</ele>
        <time>2021-07-05 17:15:16</time>
      </trkpt>
      <trkpt lat="28.1018" lon="-14.28644">
        <ele>63.4</ele>
        <time>2021-07-05 17:15:17</time>
      </trkpt>
      <trkpt lat="28.10176" lon="-14.28645">
        <ele>63.8</ele>
        <time>2021-07-05 17:15:18</time>
      </trkpt>
      <trkpt lat="28.10173" lon="-14.28646">
        <ele>64.6</ele>
        <time>2021-07-05 17:15:19</time>
      </trkpt>
      <trkpt lat="28.1017" lon="-14.28647">
        <ele>64.6</ele>
        <time>2021-07-05 17:15:20</time>
      </trkpt>
      <trkpt lat="28.10166" lon="-14.28647">
        <ele>64.8</ele>
        <time>2021-07-05 17:15:21</time>
      </trkpt>
      <trkpt lat="28.10163" lon="-14.28647">
        <ele>65</ele>
        <time>2021-07-05 17:15:22</time>
      </trkpt>
      <trkpt lat="28.10159" lon="-14.28647">
        <ele>65</ele>
        <time>2021-07-05 17:15:23</time>
      </trkpt>
      <trkpt lat="28.10155" lon="-14.28646">
        <ele>65</ele>
        <time>2021-07-05 17:15:24</time>
      </trkpt>
      <trkpt lat="28.10151" lon="-14.28646">
        <ele>65</ele>
        <time>2021-07-05 17:15:25</time>
      </trkpt>
      <trkpt lat="28.10147" lon="-14.28645">
        <ele>64.8</ele>
        <time>2021-07-05 17:15:26</time>
      </trkpt>
      <trkpt lat="28.10143" lon="-14.28643">
        <ele>64.6</ele>
        <time>2021-07-05 17:15:27</time>
      </trkpt>
      <trkpt lat="28.1014" lon="-14.28642">
        <ele>64.2</ele>
        <time>2021-07-05 17:15:28</time>
      </trkpt>
      <trkpt lat="28.10136" lon="-14.2864">
        <ele>63.8</ele>
        <time>2021-07-05 17:15:29</time>
      </trkpt>
      <trkpt lat="28.10132" lon="-14.28638">
        <ele>63.6</ele>
        <time>2021-07-05 17:15:30</time>
      </trkpt>
      <trkpt lat="28.10129" lon="-14.28635">
        <ele>63.6</ele>
        <time>2021-07-05 17:15:31</time>
      </trkpt>
      <trkpt lat="28.10126" lon="-14.28632">
        <ele>63.4</ele>
        <time>2021-07-05 17:15:32</time>
      </trkpt>
      <trkpt lat="28.10123" lon="-14.2863">
        <ele>63.4</ele>
        <time>2021-07-05 17:15:33</time>
      </trkpt>
      <trkpt lat="28.10119" lon="-14.28628">
        <ele>63.2</ele>
        <time>2021-07-05 17:15:34</time>
      </trkpt>
      <trkpt lat="28.10116" lon="-14.28625">
        <ele>63.2</ele>
        <time>2021-07-05 17:15:35</time>
      </trkpt>
      <trkpt lat="28.10113" lon="-14.28621">
        <ele>63.2</ele>
        <time>2021-07-05 17:15:36</time>
      </trkpt>
      <trkpt lat="28.1011" lon="-14.28618">
        <ele>63.2</ele>
        <time>2021-07-05 17:15:37</time>
      </trkpt>
      <trkpt lat="28.10106" lon="-14.28615">
        <ele>63.2</ele>
        <time>2021-07-05 17:15:38</time>
      </trkpt>
      <trkpt lat="28.10102" lon="-14.28612">
        <ele>63.2</ele>
        <time>2021-07-05 17:15:39</time>
      </trkpt>
      <trkpt lat="28.10099" lon="-14.28609">
        <ele>63.2</ele>
        <time>2021-07-05 17:15:40</time>
      </trkpt>
      <trkpt lat="28.10095" lon="-14.28605">
        <ele>63.2</ele>
        <time>2021-07-05 17:15:41</time>
      </trkpt>
      <trkpt lat="28.10092" lon="-14.28602">
        <ele>63.2</ele>
        <time>2021-07-05 17:15:42</time>
      </trkpt>
      <trkpt lat="28.10088" lon="-14.28598">
        <ele>63.2</ele>
        <time>2021-07-05 17:15:43</time>
      </trkpt>
      <trkpt lat="28.10085" lon="-14.28595">
        <ele>63.2</ele>
        <time>2021-07-05 17:15:44</time>
      </trkpt>
      <trkpt lat="28.10082" lon="-14.28591">
        <ele>63.2</ele>
        <time>2021-07-05 17:15:45</time>
      </trkpt>
      <trkpt lat="28.10078" lon="-14.28588">
        <ele>63.2</ele>
        <time>2021-07-05 17:15:46</time>
      </trkpt>
      <trkpt lat="28.10075" lon="-14.28584">
        <ele>63.4</ele>
        <time>2021-07-05 17:15:47</time>
      </trkpt>
      <trkpt lat="28.10072" lon="-14.28581">
        <ele>63.4</ele>
        <time>2021-07-05 17:15:48</time>
      </trkpt>
      <trkpt lat="28.10069" lon="-14.28577">
        <ele>63.6</ele>
        <time>2021-07-05 17:15:49</time>
      </trkpt>
      <trkpt lat="28.10066" lon="-14.28574">
        <ele>63.6</ele>
        <time>2021-07-05 17:15:50</time>
      </trkpt>
      <trkpt lat="28.10063" lon="-14.28571">
        <ele>63.8</ele>
        <time>2021-07-05 17:15:51</time>
      </trkpt>
      <trkpt lat="28.1006" lon="-14.28568">
        <ele>63.8</ele>
        <time>2021-07-05 17:15:52</time>
      </trkpt>
      <trkpt lat="28.10058" lon="-14.28565">
        <ele>64.2</ele>
        <time>2021-07-05 17:15:53</time>
      </trkpt>
      <trkpt lat="28.10055" lon="-14.28562">
        <ele>64.2</ele>
        <time>2021-07-05 17:15:54</time>
      </trkpt>
      <trkpt lat="28.10053" lon="-14.2856">
        <ele>64.4</ele>
        <time>2021-07-05 17:15:55</time>
      </trkpt>
      <trkpt lat="28.10051" lon="-14.28557">
        <ele>64.4</ele>
        <time>2021-07-05 17:15:56</time>
      </trkpt>
      <trkpt lat="28.10049" lon="-14.28555">
        <ele>65</ele>
        <time>2021-07-05 17:15:57</time>
      </trkpt>
      <trkpt lat="28.10047" lon="-14.28553">
        <ele>65.2</ele>
        <time>2021-07-05 17:15:58</time>
      </trkpt>
      <trkpt lat="28.10046" lon="-14.28551">
        <ele>65.6</ele>
        <time>2021-07-05 17:15:59</time>
      </trkpt>
      <trkpt lat="28.10044" lon="-14.28549">
        <ele>65.8</ele>
        <time>2021-07-05 17:16:00</time>
      </trkpt>
      <trkpt lat="28.10042" lon="-14.28547">
        <ele>66</ele>
        <time>2021-07-05 17:16:01</time>
      </trkpt>
      <trkpt lat="28.1004" lon="-14.28545">
        <ele>66.2</ele>
        <time>2021-07-05 17:16:02</time>
      </trkpt>
      <trkpt lat="28.10038" lon="-14.28543">
        <ele>66.4</ele>
        <time>2021-07-05 17:16:03</time>
      </trkpt>
      <trkpt lat="28.10036" lon="-14.28541">
        <ele>66.8</ele>
        <time>2021-07-05 17:16:04</time>
      </trkpt>
      <trkpt lat="28.10035" lon="-14.28539">
        <ele>67.6</ele>
        <time>2021-07-05 17:16:05</time>
      </trkpt>
      <trkpt lat="28.10033" lon="-14.28537">
        <ele>67.6</ele>
        <time>2021-07-05 17:16:06</time>
      </trkpt>
      <trkpt lat="28.10031" lon="-14.28535">
        <ele>68</ele>
        <time>2021-07-05 17:16:07</time>
      </trkpt>
      <trkpt lat="28.10029" lon="-14.28533">
        <ele>68.8</ele>
        <time>2021-07-05 17:16:08</time>
      </trkpt>
      <trkpt lat="28.10027" lon="-14.28531">
        <ele>68.8</ele>
        <time>2021-07-05 17:16:09</time>
      </trkpt>
      <trkpt lat="28.10026" lon="-14.28529">
        <ele>69</ele>
        <time>2021-07-05 17:16:10</time>
      </trkpt>
      <trkpt lat="28.10024" lon="-14.28527">
        <ele>69.4</ele>
        <time>2021-07-05 17:16:11</time>
      </trkpt>
      <trkpt lat="28.10022" lon="-14.28524">
        <ele>69.6</ele>
        <time>2021-07-05 17:16:12</time>
      </trkpt>
      <trkpt lat="28.10021" lon="-14.28522">
        <ele>70.2</ele>
        <time>2021-07-05 17:16:13</time>
      </trkpt>
      <trkpt lat="28.10019" lon="-14.2852">
        <ele>70.6</ele>
        <time>2021-07-05 17:16:14</time>
      </trkpt>
      <trkpt lat="28.10017" lon="-14.28519">
        <ele>70.6</ele>
        <time>2021-07-05 17:16:15</time>
      </trkpt>
      <trkpt lat="28.10015" lon="-14.28517">
        <ele>71</ele>
        <time>2021-07-05 17:16:16</time>
      </trkpt>
      <trkpt lat="28.10013" lon="-14.28515">
        <ele>71.6</ele>
        <time>2021-07-05 17:16:17</time>
      </trkpt>
      <trkpt lat="28.10011" lon="-14.28513">
        <ele>71.6</ele>
        <time>2021-07-05 17:16:18</time>
      </trkpt>
      <trkpt lat="28.10009" lon="-14.28511">
        <ele>72</ele>
        <time>2021-07-05 17:16:19</time>
      </trkpt>
      <trkpt lat="28.10007" lon="-14.28509">
        <ele>72.4</ele>
        <time>2021-07-05 17:16:20</time>
      </trkpt>
      <trkpt lat="28.10005" lon="-14.28507">
        <ele>72.6</ele>
        <time>2021-07-05 17:16:21</time>
      </trkpt>
      <trkpt lat="28.10004" lon="-14.28505">
        <ele>73</ele>
        <time>2021-07-05 17:16:22</time>
      </trkpt>
      <trkpt lat="28.10002" lon="-14.28503">
        <ele>73.2</ele>
        <time>2021-07-05 17:16:23</time>
      </trkpt>
      <trkpt lat="28.1" lon="-14.28501">
        <ele>73.4</ele>
        <time>2021-07-05 17:16:24</time>
      </trkpt>
      <trkpt lat="28.09998" lon="-14.28499">
        <ele>73.6</ele>
        <time>2021-07-05 17:16:25</time>
      </trkpt>
      <trkpt lat="28.09996" lon="-14.28497">
        <ele>74</ele>
        <time>2021-07-05 17:16:26</time>
      </trkpt>
      <trkpt lat="28.09995" lon="-14.28495">
        <ele>74.2</ele>
        <time>2021-07-05 17:16:27</time>
      </trkpt>
      <trkpt lat="28.09993" lon="-14.28493">
        <ele>75</ele>
        <time>2021-07-05 17:16:28</time>
      </trkpt>
      <trkpt lat="28.09991" lon="-14.28491">
        <ele>75</ele>
        <time>2021-07-05 17:16:29</time>
      </trkpt>
      <trkpt lat="28.0999" lon="-14.28489">
        <ele>75.2</ele>
        <time>2021-07-05 17:16:30</time>
      </trkpt>
      <trkpt lat="28.09988" lon="-14.28488">
        <ele>75.2</ele>
        <time>2021-07-05 17:16:31</time>
      </trkpt>
      <trkpt lat="28.09986" lon="-14.28486">
        <ele>75.6</ele>
        <time>2021-07-05 17:16:32</time>
      </trkpt>
      <trkpt lat="28.09984" lon="-14.28484">
        <ele>75.8</ele>
        <time>2021-07-05 17:16:33</time>
      </trkpt>
      <trkpt lat="28.09982" lon="-14.28482">
        <ele>76.2</ele>
        <time>2021-07-05 17:16:34</time>
      </trkpt>
      <trkpt lat="28.0998" lon="-14.2848">
        <ele>76.4</ele>
        <time>2021-07-05 17:16:35</time>
      </trkpt>
      <trkpt lat="28.09978" lon="-14.28478">
        <ele>76.6</ele>
        <time>2021-07-05 17:16:36</time>
      </trkpt>
      <trkpt lat="28.09977" lon="-14.28476">
        <ele>77.2</ele>
        <time>2021-07-05 17:16:37</time>
      </trkpt>
      <trkpt lat="28.09975" lon="-14.28474">
        <ele>77.2</ele>
        <time>2021-07-05 17:16:38</time>
      </trkpt>
      <trkpt lat="28.09973" lon="-14.28472">
        <ele>77.4</ele>
        <time>2021-07-05 17:16:39</time>
      </trkpt>
      <trkpt lat="28.09971" lon="-14.2847">
        <ele>77.6</ele>
        <time>2021-07-05 17:16:40</time>
      </trkpt>
      <trkpt lat="28.09969" lon="-14.28469">
        <ele>77.8</ele>
        <time>2021-07-05 17:16:41</time>
      </trkpt>
      <trkpt lat="28.09967" lon="-14.28467">
        <ele>78.2</ele>
        <time>2021-07-05 17:16:42</time>
      </trkpt>
      <trkpt lat="28.09965" lon="-14.28465">
        <ele>78.4</ele>
        <time>2021-07-05 17:16:43</time>
      </trkpt>
      <trkpt lat="28.09963" lon="-14.28464">
        <ele>78.6</ele>
        <time>2021-07-05 17:16:44</time>
      </trkpt>
      <trkpt lat="28.09961" lon="-14.28463">
        <ele>78.6</ele>
        <time>2021-07-05 17:16:45</time>
      </trkpt>
      <trkpt lat="28.09958" lon="-14.28461">
        <ele>78.6</ele>
        <time>2021-07-05 17:16:46</time>
      </trkpt>
      <trkpt lat="28.09956" lon="-14.2846">
        <ele>79</ele>
        <time>2021-07-05 17:16:47</time>
      </trkpt>
      <trkpt lat="28.09954" lon="-14.28459">
        <ele>79</ele>
        <time>2021-07-05 17:16:48</time>
      </trkpt>
      <trkpt lat="28.09951" lon="-14.28457">
        <ele>79.4</ele>
        <time>2021-07-05 17:16:49</time>
      </trkpt>
      <trkpt lat="28.09949" lon="-14.28456">
        <ele>79.6</ele>
        <time>2021-07-05 17:16:50</time>
      </trkpt>
      <trkpt lat="28.09947" lon="-14.28455">
        <ele>80.2</ele>
        <time>2021-07-05 17:16:51</time>
      </trkpt>
      <trkpt lat="28.09945" lon="-14.28454">
        <ele>80.4</ele>
        <time>2021-07-05 17:16:52</time>
      </trkpt>
      <trkpt lat="28.09942" lon="-14.28453">
        <ele>80.4</ele>
        <time>2021-07-05 17:16:53</time>
      </trkpt>
      <trkpt lat="28.0994" lon="-14.28453">
        <ele>80.8</ele>
        <time>2021-07-05 17:16:54</time>
      </trkpt>
      <trkpt lat="28.09937" lon="-14.28452">
        <ele>81.2</ele>
        <time>2021-07-05 17:16:55</time>
      </trkpt>
      <trkpt lat="28.09935" lon="-14.28452">
        <ele>81.6</ele>
        <time>2021-07-05 17:16:56</time>
      </trkpt>
      <trkpt lat="28.09932" lon="-14.28452">
        <ele>82</ele>
        <time>2021-07-05 17:16:57</time>
      </trkpt>
      <trkpt lat="28.09929" lon="-14.28452">
        <ele>82.6</ele>
        <time>2021-07-05 17:16:58</time>
      </trkpt>
      <trkpt lat="28.09927" lon="-14.28452">
        <ele>83.2</ele>
        <time>2021-07-05 17:16:59</time>
      </trkpt>
      <trkpt lat="28.09924" lon="-14.28452">
        <ele>83.6</ele>
        <time>2021-07-05 17:17:00</time>
      </trkpt>
      <trkpt lat="28.09921" lon="-14.28452">
        <ele>84.2</ele>
        <time>2021-07-05 17:17:01</time>
      </trkpt>
      <trkpt lat="28.09918" lon="-14.28453">
        <ele>84.6</ele>
        <time>2021-07-05 17:17:02</time>
      </trkpt>
      <trkpt lat="28.09916" lon="-14.28453">
        <ele>85</ele>
        <time>2021-07-05 17:17:03</time>
      </trkpt>
      <trkpt lat="28.09913" lon="-14.28454">
        <ele>85.4</ele>
        <time>2021-07-05 17:17:04</time>
      </trkpt>
      <trkpt lat="28.09911" lon="-14.28455">
        <ele>85.8</ele>
        <time>2021-07-05 17:17:05</time>
      </trkpt>
      <trkpt lat="28.09908" lon="-14.28455">
        <ele>86.2</ele>
        <time>2021-07-05 17:17:06</time>
      </trkpt>
      <trkpt lat="28.09905" lon="-14.28456">
        <ele>86.8</ele>
        <time>2021-07-05 17:17:07</time>
      </trkpt>
      <trkpt lat="28.09903" lon="-14.28457">
        <ele>87.2</ele>
        <time>2021-07-05 17:17:08</time>
      </trkpt>
      <trkpt lat="28.099" lon="-14.28458">
        <ele>87.6</ele>
        <time>2021-07-05 17:17:09</time>
      </trkpt>
      <trkpt lat="28.09898" lon="-14.2846">
        <ele>88</ele>
        <time>2021-07-05 17:17:10</time>
      </trkpt>
      <trkpt lat="28.09895" lon="-14.28461">
        <ele>88.2</ele>
        <time>2021-07-05 17:17:11</time>
      </trkpt>
      <trkpt lat="28.09892" lon="-14.28462">
        <ele>88.6</ele>
        <time>2021-07-05 17:17:12</time>
      </trkpt>
      <trkpt lat="28.0989" lon="-14.28464">
        <ele>89.2</ele>
        <time>2021-07-05 17:17:13</time>
      </trkpt>
      <trkpt lat="28.09887" lon="-14.28466">
        <ele>89.6</ele>
        <time>2021-07-05 17:17:14</time>
      </trkpt>
      <trkpt lat="28.09885" lon="-14.28468">
        <ele>90.2</ele>
        <time>2021-07-05 17:17:15</time>
      </trkpt>
      <trkpt lat="28.09883" lon="-14.2847">
        <ele>90.2</ele>
        <time>2021-07-05 17:17:16</time>
      </trkpt>
      <trkpt lat="28.0988" lon="-14.28472">
        <ele>90.2</ele>
        <time>2021-07-05 17:17:17</time>
      </trkpt>
      <trkpt lat="28.09878" lon="-14.28474">
        <ele>90.4</ele>
        <time>2021-07-05 17:17:18</time>
      </trkpt>
      <trkpt lat="28.09876" lon="-14.28476">
        <ele>90.4</ele>
        <time>2021-07-05 17:17:19</time>
      </trkpt>
      <trkpt lat="28.09874" lon="-14.28479">
        <ele>90.4</ele>
        <time>2021-07-05 17:17:20</time>
      </trkpt>
      <trkpt lat="28.09872" lon="-14.28481">
        <ele>91</ele>
        <time>2021-07-05 17:17:21</time>
      </trkpt>
      <trkpt lat="28.09871" lon="-14.28483">
        <ele>91.8</ele>
        <time>2021-07-05 17:17:22</time>
      </trkpt>
      <trkpt lat="28.09869" lon="-14.28486">
        <ele>92.4</ele>
        <time>2021-07-05 17:17:23</time>
      </trkpt>
      <trkpt lat="28.09867" lon="-14.28488">
        <ele>93.6</ele>
        <time>2021-07-05 17:17:24</time>
      </trkpt>
      <trkpt lat="28.09866" lon="-14.28491">
        <ele>93.6</ele>
        <time>2021-07-05 17:17:25</time>
      </trkpt>
      <trkpt lat="28.09864" lon="-14.28494">
        <ele>94.2</ele>
        <time>2021-07-05 17:17:26</time>
      </trkpt>
      <trkpt lat="28.09863" lon="-14.28497">
        <ele>94.4</ele>
        <time>2021-07-05 17:17:27</time>
      </trkpt>
      <trkpt lat="28.09862" lon="-14.28499">
        <ele>94.4</ele>
        <time>2021-07-05 17:17:28</time>
      </trkpt>
      <trkpt lat="28.09861" lon="-14.28502">
        <ele>94.4</ele>
        <time>2021-07-05 17:17:29</time>
      </trkpt>
      <trkpt lat="28.09859" lon="-14.28505">
        <ele>94.4</ele>
        <time>2021-07-05 17:17:30</time>
      </trkpt>
      <trkpt lat="28.09858" lon="-14.28508">
        <ele>94.4</ele>
        <time>2021-07-05 17:17:31</time>
      </trkpt>
      <trkpt lat="28.09858" lon="-14.28511">
        <ele>94.4</ele>
        <time>2021-07-05 17:17:32</time>
      </trkpt>
      <trkpt lat="28.09857" lon="-14.28514">
        <ele>94.8</ele>
        <time>2021-07-05 17:17:33</time>
      </trkpt>
      <trkpt lat="28.09857" lon="-14.28517">
        <ele>94.8</ele>
        <time>2021-07-05 17:17:34</time>
      </trkpt>
      <trkpt lat="28.09856" lon="-14.28519">
        <ele>94.8</ele>
        <time>2021-07-05 17:17:35</time>
      </trkpt>
      <trkpt lat="28.09856" lon="-14.28522">
        <ele>95.4</ele>
        <time>2021-07-05 17:17:36</time>
      </trkpt>
      <trkpt lat="28.09856" lon="-14.28525">
        <ele>95.4</ele>
        <time>2021-07-05 17:17:37</time>
      </trkpt>
      <trkpt lat="28.09856" lon="-14.28528">
        <ele>95.4</ele>
        <time>2021-07-05 17:17:38</time>
      </trkpt>
      <trkpt lat="28.09856" lon="-14.28531">
        <ele>95.8</ele>
        <time>2021-07-05 17:17:39</time>
      </trkpt>
      <trkpt lat="28.09856" lon="-14.28534">
        <ele>95.8</ele>
        <time>2021-07-05 17:17:40</time>
      </trkpt>
      <trkpt lat="28.09856" lon="-14.28537">
        <ele>95.8</ele>
        <time>2021-07-05 17:17:41</time>
      </trkpt>
      <trkpt lat="28.09857" lon="-14.2854">
        <ele>95.8</ele>
        <time>2021-07-05 17:17:42</time>
      </trkpt>
      <trkpt lat="28.09857" lon="-14.28543">
        <ele>96</ele>
        <time>2021-07-05 17:17:43</time>
      </trkpt>
      <trkpt lat="28.09857" lon="-14.28545">
        <ele>96.2</ele>
        <time>2021-07-05 17:17:44</time>
      </trkpt>
      <trkpt lat="28.09858" lon="-14.28548">
        <ele>96.2</ele>
        <time>2021-07-05 17:17:45</time>
      </trkpt>
      <trkpt lat="28.09858" lon="-14.2855">
        <ele>96.2</ele>
        <time>2021-07-05 17:17:46</time>
      </trkpt>
      <trkpt lat="28.09858" lon="-14.28553">
        <ele>96.2</ele>
        <time>2021-07-05 17:17:47</time>
      </trkpt>
      <trkpt lat="28.09859" lon="-14.28555">
        <ele>96.2</ele>
        <time>2021-07-05 17:17:48</time>
      </trkpt>
      <trkpt lat="28.0986" lon="-14.28558">
        <ele>96.2</ele>
        <time>2021-07-05 17:17:49</time>
      </trkpt>
      <trkpt lat="28.0986" lon="-14.28561">
        <ele>96</ele>
        <time>2021-07-05 17:17:50</time>
      </trkpt>
      <trkpt lat="28.0986" lon="-14.28564">
        <ele>96</ele>
        <time>2021-07-05 17:17:51</time>
      </trkpt>
      <trkpt lat="28.09861" lon="-14.28567">
        <ele>95.4</ele>
        <time>2021-07-05 17:17:52</time>
      </trkpt>
      <trkpt lat="28.09861" lon="-14.2857">
        <ele>95.4</ele>
        <time>2021-07-05 17:17:53</time>
      </trkpt>
      <trkpt lat="28.09862" lon="-14.28573">
        <ele>95.4</ele>
        <time>2021-07-05 17:17:54</time>
      </trkpt>
      <trkpt lat="28.09862" lon="-14.28575">
        <ele>95.4</ele>
        <time>2021-07-05 17:17:55</time>
      </trkpt>
      <trkpt lat="28.09863" lon="-14.28579">
        <ele>95.4</ele>
        <time>2021-07-05 17:17:56</time>
      </trkpt>
      <trkpt lat="28.09863" lon="-14.28582">
        <ele>95.4</ele>
        <time>2021-07-05 17:17:57</time>
      </trkpt>
      <trkpt lat="28.09864" lon="-14.28585">
        <ele>95.4</ele>
        <time>2021-07-05 17:17:58</time>
      </trkpt>
      <trkpt lat="28.09864" lon="-14.28588">
        <ele>95.4</ele>
        <time>2021-07-05 17:17:59</time>
      </trkpt>
      <trkpt lat="28.09864" lon="-14.28591">
        <ele>95.4</ele>
        <time>2021-07-05 17:18:00</time>
      </trkpt>
      <trkpt lat="28.09865" lon="-14.28594">
        <ele>95.2</ele>
        <time>2021-07-05 17:18:01</time>
      </trkpt>
      <trkpt lat="28.09865" lon="-14.28597">
        <ele>95.2</ele>
        <time>2021-07-05 17:18:02</time>
      </trkpt>
      <trkpt lat="28.09866" lon="-14.286">
        <ele>95.2</ele>
        <time>2021-07-05 17:18:03</time>
      </trkpt>
      <trkpt lat="28.09866" lon="-14.28603">
        <ele>94.8</ele>
        <time>2021-07-05 17:18:04</time>
      </trkpt>
      <trkpt lat="28.09866" lon="-14.28606">
        <ele>94.8</ele>
        <time>2021-07-05 17:18:05</time>
      </trkpt>
      <trkpt lat="28.09867" lon="-14.28609">
        <ele>94.8</ele>
        <time>2021-07-05 17:18:06</time>
      </trkpt>
      <trkpt lat="28.09867" lon="-14.28612">
        <ele>94.8</ele>
        <time>2021-07-05 17:18:07</time>
      </trkpt>
      <trkpt lat="28.09868" lon="-14.28616">
        <ele>94.8</ele>
        <time>2021-07-05 17:18:08</time>
      </trkpt>
      <trkpt lat="28.09868" lon="-14.28619">
        <ele>94.8</ele>
        <time>2021-07-05 17:18:09</time>
      </trkpt>
      <trkpt lat="28.09869" lon="-14.28622">
        <ele>94.8</ele>
        <time>2021-07-05 17:18:10</time>
      </trkpt>
      <trkpt lat="28.09869" lon="-14.28625">
        <ele>94.8</ele>
        <time>2021-07-05 17:18:11</time>
      </trkpt>
      <trkpt lat="28.0987" lon="-14.28628">
        <ele>94.8</ele>
        <time>2021-07-05 17:18:12</time>
      </trkpt>
      <trkpt lat="28.09871" lon="-14.28631">
        <ele>94.8</ele>
        <time>2021-07-05 17:18:13</time>
      </trkpt>
      <trkpt lat="28.09871" lon="-14.28634">
        <ele>94.8</ele>
        <time>2021-07-05 17:18:14</time>
      </trkpt>
      <trkpt lat="28.09871" lon="-14.28636">
        <ele>95.2</ele>
        <time>2021-07-05 17:18:15</time>
      </trkpt>
      <trkpt lat="28.09872" lon="-14.28639">
        <ele>95.4</ele>
        <time>2021-07-05 17:18:16</time>
      </trkpt>
      <trkpt lat="28.09872" lon="-14.28642">
        <ele>95.6</ele>
        <time>2021-07-05 17:18:17</time>
      </trkpt>
      <trkpt lat="28.09872" lon="-14.28645">
        <ele>96</ele>
        <time>2021-07-05 17:18:18</time>
      </trkpt>
      <trkpt lat="28.09873" lon="-14.28648">
        <ele>96.4</ele>
        <time>2021-07-05 17:18:19</time>
      </trkpt>
      <trkpt lat="28.09873" lon="-14.28651">
        <ele>97</ele>
        <time>2021-07-05 17:18:20</time>
      </trkpt>
      <trkpt lat="28.09873" lon="-14.28654">
        <ele>97.4</ele>
        <time>2021-07-05 17:18:21</time>
      </trkpt>
      <trkpt lat="28.09873" lon="-14.28657">
        <ele>98.2</ele>
        <time>2021-07-05 17:18:22</time>
      </trkpt>
      <trkpt lat="28.09873" lon="-14.2866">
        <ele>98.2</ele>
        <time>2021-07-05 17:18:23</time>
      </trkpt>
      <trkpt lat="28.09874" lon="-14.28663">
        <ele>98.4</ele>
        <time>2021-07-05 17:18:24</time>
      </trkpt>
      <trkpt lat="28.09874" lon="-14.28666">
        <ele>98.4</ele>
        <time>2021-07-05 17:18:25</time>
      </trkpt>
      <trkpt lat="28.09874" lon="-14.28668">
        <ele>98.8</ele>
        <time>2021-07-05 17:18:26</time>
      </trkpt>
      <trkpt lat="28.09875" lon="-14.28671">
        <ele>99.2</ele>
        <time>2021-07-05 17:18:27</time>
      </trkpt>
      <trkpt lat="28.09875" lon="-14.28674">
        <ele>99.4</ele>
        <time>2021-07-05 17:18:28</time>
      </trkpt>
      <trkpt lat="28.09875" lon="-14.28677">
        <ele>99.4</ele>
        <time>2021-07-05 17:18:29</time>
      </trkpt>
      <trkpt lat="28.09876" lon="-14.28681">
        <ele>99.6</ele>
        <time>2021-07-05 17:18:30</time>
      </trkpt>
      <trkpt lat="28.09876" lon="-14.28684">
        <ele>99.6</ele>
        <time>2021-07-05 17:18:31</time>
      </trkpt>
      <trkpt lat="28.09876" lon="-14.28687">
        <ele>99.6</ele>
        <time>2021-07-05 17:18:32</time>
      </trkpt>
      <trkpt lat="28.09877" lon="-14.2869">
        <ele>99.6</ele>
        <time>2021-07-05 17:18:33</time>
      </trkpt>
      <trkpt lat="28.09877" lon="-14.28693">
        <ele>99.6</ele>
        <time>2021-07-05 17:18:34</time>
      </trkpt>
      <trkpt lat="28.09878" lon="-14.28696">
        <ele>99.6</ele>
        <time>2021-07-05 17:18:35</time>
      </trkpt>
      <trkpt lat="28.09878" lon="-14.28699">
        <ele>99.6</ele>
        <time>2021-07-05 17:18:36</time>
      </trkpt>
      <trkpt lat="28.09878" lon="-14.28702">
        <ele>99.6</ele>
        <time>2021-07-05 17:18:37</time>
      </trkpt>
      <trkpt lat="28.09879" lon="-14.28705">
        <ele>99.6</ele>
        <time>2021-07-05 17:18:38</time>
      </trkpt>
      <trkpt lat="28.09879" lon="-14.28709">
        <ele>99.4</ele>
        <time>2021-07-05 17:18:39</time>
      </trkpt>
      <trkpt lat="28.09879" lon="-14.28713">
        <ele>99.2</ele>
        <time>2021-07-05 17:18:40</time>
      </trkpt>
      <trkpt lat="28.0988" lon="-14.28717">
        <ele>98.8</ele>
        <time>2021-07-05 17:18:41</time>
      </trkpt>
      <trkpt lat="28.0988" lon="-14.28721">
        <ele>98.6</ele>
        <time>2021-07-05 17:18:42</time>
      </trkpt>
      <trkpt lat="28.0988" lon="-14.28725">
        <ele>98.2</ele>
        <time>2021-07-05 17:18:43</time>
      </trkpt>
      <trkpt lat="28.0988" lon="-14.28729">
        <ele>98.2</ele>
        <time>2021-07-05 17:18:44</time>
      </trkpt>
      <trkpt lat="28.09881" lon="-14.28734">
        <ele>97.8</ele>
        <time>2021-07-05 17:18:45</time>
      </trkpt>
      <trkpt lat="28.09881" lon="-14.28738">
        <ele>97.6</ele>
        <time>2021-07-05 17:18:46</time>
      </trkpt>
      <trkpt lat="28.09881" lon="-14.28743">
        <ele>97.6</ele>
        <time>2021-07-05 17:18:47</time>
      </trkpt>
      <trkpt lat="28.09881" lon="-14.28748">
        <ele>97.2</ele>
        <time>2021-07-05 17:18:48</time>
      </trkpt>
      <trkpt lat="28.09881" lon="-14.28753">
        <ele>96.6</ele>
        <time>2021-07-05 17:18:49</time>
      </trkpt>
      <trkpt lat="28.09881" lon="-14.28758">
        <ele>96.6</ele>
        <time>2021-07-05 17:18:50</time>
      </trkpt>
      <trkpt lat="28.09881" lon="-14.28762">
        <ele>96.4</ele>
        <time>2021-07-05 17:18:51</time>
      </trkpt>
      <trkpt lat="28.09881" lon="-14.28768">
        <ele>96</ele>
        <time>2021-07-05 17:18:52</time>
      </trkpt>
      <trkpt lat="28.09881" lon="-14.28772">
        <ele>95.6</ele>
        <time>2021-07-05 17:18:53</time>
      </trkpt>
      <trkpt lat="28.09881" lon="-14.28777">
        <ele>95.4</ele>
        <time>2021-07-05 17:18:54</time>
      </trkpt>
      <trkpt lat="28.0988" lon="-14.28782">
        <ele>94.8</ele>
        <time>2021-07-05 17:18:55</time>
      </trkpt>
      <trkpt lat="28.09879" lon="-14.28787">
        <ele>94.8</ele>
        <time>2021-07-05 17:18:56</time>
      </trkpt>
      <trkpt lat="28.09878" lon="-14.28791">
        <ele>94.4</ele>
        <time>2021-07-05 17:18:57</time>
      </trkpt>
      <trkpt lat="28.09878" lon="-14.28796">
        <ele>94</ele>
        <time>2021-07-05 17:18:58</time>
      </trkpt>
      <trkpt lat="28.09877" lon="-14.288">
        <ele>93.6</ele>
        <time>2021-07-05 17:18:59</time>
      </trkpt>
      <trkpt lat="28.09877" lon="-14.28804">
        <ele>93.4</ele>
        <time>2021-07-05 17:19:00</time>
      </trkpt>
      <trkpt lat="28.09876" lon="-14.28809">
        <ele>93</ele>
        <time>2021-07-05 17:19:01</time>
      </trkpt>
      <trkpt lat="28.09874" lon="-14.28813">
        <ele>92.6</ele>
        <time>2021-07-05 17:19:02</time>
      </trkpt>
      <trkpt lat="28.09873" lon="-14.28818">
        <ele>92.2</ele>
        <time>2021-07-05 17:19:03</time>
      </trkpt>
      <trkpt lat="28.09872" lon="-14.28823">
        <ele>91.4</ele>
        <time>2021-07-05 17:19:04</time>
      </trkpt>
      <trkpt lat="28.09871" lon="-14.28828">
        <ele>91.4</ele>
        <time>2021-07-05 17:19:05</time>
      </trkpt>
      <trkpt lat="28.09869" lon="-14.28832">
        <ele>91.4</ele>
        <time>2021-07-05 17:19:06</time>
      </trkpt>
      <trkpt lat="28.09867" lon="-14.28836">
        <ele>91</ele>
        <time>2021-07-05 17:19:07</time>
      </trkpt>
      <trkpt lat="28.09866" lon="-14.28841">
        <ele>91</ele>
        <time>2021-07-05 17:19:08</time>
      </trkpt>
      <trkpt lat="28.09865" lon="-14.28845">
        <ele>91</ele>
        <time>2021-07-05 17:19:09</time>
      </trkpt>
      <trkpt lat="28.09862" lon="-14.28849">
        <ele>91</ele>
        <time>2021-07-05 17:19:10</time>
      </trkpt>
      <trkpt lat="28.0986" lon="-14.28853">
        <ele>91</ele>
        <time>2021-07-05 17:19:11</time>
      </trkpt>
      <trkpt lat="28.09858" lon="-14.28857">
        <ele>91.2</ele>
        <time>2021-07-05 17:19:12</time>
      </trkpt>
      <trkpt lat="28.09857" lon="-14.2886">
        <ele>91.2</ele>
        <time>2021-07-05 17:19:13</time>
      </trkpt>
      <trkpt lat="28.09855" lon="-14.28863">
        <ele>91.6</ele>
        <time>2021-07-05 17:19:14</time>
      </trkpt>
      <trkpt lat="28.09854" lon="-14.28866">
        <ele>91.6</ele>
        <time>2021-07-05 17:19:15</time>
      </trkpt>
      <trkpt lat="28.09853" lon="-14.28869">
        <ele>91.8</ele>
        <time>2021-07-05 17:19:16</time>
      </trkpt>
      <trkpt lat="28.09852" lon="-14.28871">
        <ele>92</ele>
        <time>2021-07-05 17:19:17</time>
      </trkpt>
      <trkpt lat="28.0985" lon="-14.28873">
        <ele>92.4</ele>
        <time>2021-07-05 17:19:18</time>
      </trkpt>
      <trkpt lat="28.09849" lon="-14.28876">
        <ele>92.4</ele>
        <time>2021-07-05 17:19:19</time>
      </trkpt>
      <trkpt lat="28.09848" lon="-14.28878">
        <ele>92.6</ele>
        <time>2021-07-05 17:19:20</time>
      </trkpt>
      <trkpt lat="28.09847" lon="-14.2888">
        <ele>92.6</ele>
        <time>2021-07-05 17:19:21</time>
      </trkpt>
      <trkpt lat="28.09845" lon="-14.28882">
        <ele>92.8</ele>
        <time>2021-07-05 17:19:22</time>
      </trkpt>
      <trkpt lat="28.09844" lon="-14.28884">
        <ele>93</ele>
        <time>2021-07-05 17:19:23</time>
      </trkpt>
      <trkpt lat="28.09842" lon="-14.28886">
        <ele>93</ele>
        <time>2021-07-05 17:19:24</time>
      </trkpt>
      <trkpt lat="28.09841" lon="-14.28888">
        <ele>93.2</ele>
        <time>2021-07-05 17:19:25</time>
      </trkpt>
      <trkpt lat="28.09839" lon="-14.2889">
        <ele>93.2</ele>
        <time>2021-07-05 17:19:26</time>
      </trkpt>
      <trkpt lat="28.09837" lon="-14.28893">
        <ele>93.8</ele>
        <time>2021-07-05 17:19:27</time>
      </trkpt>
      <trkpt lat="28.09835" lon="-14.28895">
        <ele>94</ele>
        <time>2021-07-05 17:19:28</time>
      </trkpt>
      <trkpt lat="28.09834" lon="-14.28897">
        <ele>94.4</ele>
        <time>2021-07-05 17:19:29</time>
      </trkpt>
      <trkpt lat="28.09833" lon="-14.28898">
        <ele>95</ele>
        <time>2021-07-05 17:19:30</time>
      </trkpt>
      <trkpt lat="28.09831" lon="-14.289">
        <ele>95</ele>
        <time>2021-07-05 17:19:31</time>
      </trkpt>
      <trkpt lat="28.0983" lon="-14.28902">
        <ele>95.4</ele>
        <time>2021-07-05 17:19:32</time>
      </trkpt>
      <trkpt lat="28.09828" lon="-14.28903">
        <ele>95.6</ele>
        <time>2021-07-05 17:19:33</time>
      </trkpt>
      <trkpt lat="28.09826" lon="-14.28905">
        <ele>96</ele>
        <time>2021-07-05 17:19:34</time>
      </trkpt>
      <trkpt lat="28.09825" lon="-14.28907">
        <ele>96.4</ele>
        <time>2021-07-05 17:19:35</time>
      </trkpt>
      <trkpt lat="28.09823" lon="-14.28908">
        <ele>96.8</ele>
        <time>2021-07-05 17:19:36</time>
      </trkpt>
      <trkpt lat="28.09822" lon="-14.2891">
        <ele>97.4</ele>
        <time>2021-07-05 17:19:37</time>
      </trkpt>
      <trkpt lat="28.09821" lon="-14.28911">
        <ele>98</ele>
        <time>2021-07-05 17:19:38</time>
      </trkpt>
      <trkpt lat="28.09819" lon="-14.28913">
        <ele>98.6</ele>
        <time>2021-07-05 17:19:39</time>
      </trkpt>
      <trkpt lat="28.09818" lon="-14.28914">
        <ele>99.4</ele>
        <time>2021-07-05 17:19:40</time>
      </trkpt>
      <trkpt lat="28.09816" lon="-14.28916">
        <ele>100.6</ele>
        <time>2021-07-05 17:19:41</time>
      </trkpt>
      <trkpt lat="28.09815" lon="-14.28917">
        <ele>100.6</ele>
        <time>2021-07-05 17:19:42</time>
      </trkpt>
      <trkpt lat="28.09814" lon="-14.28919">
        <ele>101.2</ele>
        <time>2021-07-05 17:19:43</time>
      </trkpt>
      <trkpt lat="28.09812" lon="-14.2892">
        <ele>101.4</ele>
        <time>2021-07-05 17:19:44</time>
      </trkpt>
      <trkpt lat="28.09811" lon="-14.28922">
        <ele>101.8</ele>
        <time>2021-07-05 17:19:45</time>
      </trkpt>
      <trkpt lat="28.0981" lon="-14.28923">
        <ele>102</ele>
        <time>2021-07-05 17:19:46</time>
      </trkpt>
      <trkpt lat="28.09809" lon="-14.28924">
        <ele>102.2</ele>
        <time>2021-07-05 17:19:47</time>
      </trkpt>
      <trkpt lat="28.09807" lon="-14.28925">
        <ele>102.4</ele>
        <time>2021-07-05 17:19:48</time>
      </trkpt>
      <trkpt lat="28.09805" lon="-14.28926">
        <ele>102.8</ele>
        <time>2021-07-05 17:19:49</time>
      </trkpt>
      <trkpt lat="28.09803" lon="-14.28927">
        <ele>103</ele>
        <time>2021-07-05 17:19:50</time>
      </trkpt>
      <trkpt lat="28.09802" lon="-14.28928">
        <ele>103.4</ele>
        <time>2021-07-05 17:19:51</time>
      </trkpt>
      <trkpt lat="28.098" lon="-14.28929">
        <ele>103.8</ele>
        <time>2021-07-05 17:19:52</time>
      </trkpt>
      <trkpt lat="28.09798" lon="-14.2893">
        <ele>104</ele>
        <time>2021-07-05 17:19:53</time>
      </trkpt>
      <trkpt lat="28.09797" lon="-14.28932">
        <ele>104.6</ele>
        <time>2021-07-05 17:19:54</time>
      </trkpt>
      <trkpt lat="28.09795" lon="-14.28933">
        <ele>104.6</ele>
        <time>2021-07-05 17:19:55</time>
      </trkpt>
      <trkpt lat="28.09794" lon="-14.28934">
        <ele>104.8</ele>
        <time>2021-07-05 17:19:56</time>
      </trkpt>
      <trkpt lat="28.09792" lon="-14.28935">
        <ele>104.8</ele>
        <time>2021-07-05 17:19:57</time>
      </trkpt>
      <trkpt lat="28.0979" lon="-14.28936">
        <ele>104.8</ele>
        <time>2021-07-05 17:19:58</time>
      </trkpt>
      <trkpt lat="28.09789" lon="-14.28937">
        <ele>104.8</ele>
        <time>2021-07-05 17:19:59</time>
      </trkpt>
      <trkpt lat="28.09787" lon="-14.28938">
        <ele>105.2</ele>
        <time>2021-07-05 17:20:00</time>
      </trkpt>
      <trkpt lat="28.09785" lon="-14.28939">
        <ele>105.2</ele>
        <time>2021-07-05 17:20:01</time>
      </trkpt>
      <trkpt lat="28.09783" lon="-14.28939">
        <ele>105.8</ele>
        <time>2021-07-05 17:20:02</time>
      </trkpt>
      <trkpt lat="28.09782" lon="-14.2894">
        <ele>105.8</ele>
        <time>2021-07-05 17:20:03</time>
      </trkpt>
      <trkpt lat="28.0978" lon="-14.28942">
        <ele>106.2</ele>
        <time>2021-07-05 17:20:04</time>
      </trkpt>
      <trkpt lat="28.09778" lon="-14.28943">
        <ele>106.6</ele>
        <time>2021-07-05 17:20:05</time>
      </trkpt>
      <trkpt lat="28.09777" lon="-14.28944">
        <ele>106.6</ele>
        <time>2021-07-05 17:20:06</time>
      </trkpt>
      <trkpt lat="28.09775" lon="-14.28945">
        <ele>106.8</ele>
        <time>2021-07-05 17:20:07</time>
      </trkpt>
      <trkpt lat="28.09772" lon="-14.28946">
        <ele>106.8</ele>
        <time>2021-07-05 17:20:08</time>
      </trkpt>
      <trkpt lat="28.0977" lon="-14.28947">
        <ele>107</ele>
        <time>2021-07-05 17:20:09</time>
      </trkpt>
      <trkpt lat="28.09768" lon="-14.28947">
        <ele>107.4</ele>
        <time>2021-07-05 17:20:10</time>
      </trkpt>
      <trkpt lat="28.09766" lon="-14.28948">
        <ele>107.4</ele>
        <time>2021-07-05 17:20:11</time>
      </trkpt>
      <trkpt lat="28.09763" lon="-14.28949">
        <ele>107.4</ele>
        <time>2021-07-05 17:20:12</time>
      </trkpt>
      <trkpt lat="28.09761" lon="-14.28949">
        <ele>107.6</ele>
        <time>2021-07-05 17:20:13</time>
      </trkpt>
      <trkpt lat="28.09758" lon="-14.2895">
        <ele>108</ele>
        <time>2021-07-05 17:20:14</time>
      </trkpt>
      <trkpt lat="28.09756" lon="-14.2895">
        <ele>108.2</ele>
        <time>2021-07-05 17:20:15</time>
      </trkpt>
      <trkpt lat="28.09753" lon="-14.28951">
        <ele>108.4</ele>
        <time>2021-07-05 17:20:16</time>
      </trkpt>
      <trkpt lat="28.0975" lon="-14.28951">
        <ele>108.6</ele>
        <time>2021-07-05 17:20:17</time>
      </trkpt>
      <trkpt lat="28.09748" lon="-14.28951">
        <ele>108.8</ele>
        <time>2021-07-05 17:20:18</time>
      </trkpt>
      <trkpt lat="28.09745" lon="-14.28951">
        <ele>108.8</ele>
        <time>2021-07-05 17:20:19</time>
      </trkpt>
      <trkpt lat="28.09743" lon="-14.28951">
        <ele>108.8</ele>
        <time>2021-07-05 17:20:20</time>
      </trkpt>
      <trkpt lat="28.0974" lon="-14.28951">
        <ele>108.8</ele>
        <time>2021-07-05 17:20:21</time>
      </trkpt>
      <trkpt lat="28.09738" lon="-14.28951">
        <ele>108.8</ele>
        <time>2021-07-05 17:20:22</time>
      </trkpt>
      <trkpt lat="28.09735" lon="-14.28951">
        <ele>109.2</ele>
        <time>2021-07-05 17:20:23</time>
      </trkpt>
      <trkpt lat="28.09733" lon="-14.28951">
        <ele>109.2</ele>
        <time>2021-07-05 17:20:24</time>
      </trkpt>
      <trkpt lat="28.0973" lon="-14.28951">
        <ele>109.4</ele>
        <time>2021-07-05 17:20:25</time>
      </trkpt>
      <trkpt lat="28.09726" lon="-14.28951">
        <ele>109.4</ele>
        <time>2021-07-05 17:20:26</time>
      </trkpt>
      <trkpt lat="28.09724" lon="-14.28951">
        <ele>109.4</ele>
        <time>2021-07-05 17:20:27</time>
      </trkpt>
      <trkpt lat="28.09721" lon="-14.28951">
        <ele>109.6</ele>
        <time>2021-07-05 17:20:28</time>
      </trkpt>
      <trkpt lat="28.09719" lon="-14.28951">
        <ele>109.6</ele>
        <time>2021-07-05 17:20:29</time>
      </trkpt>
      <trkpt lat="28.09717" lon="-14.28951">
        <ele>109.6</ele>
        <time>2021-07-05 17:20:30</time>
      </trkpt>
      <trkpt lat="28.09714" lon="-14.28952">
        <ele>109.8</ele>
        <time>2021-07-05 17:20:31</time>
      </trkpt>
      <trkpt lat="28.09711" lon="-14.28952">
        <ele>109.8</ele>
        <time>2021-07-05 17:20:32</time>
      </trkpt>
      <trkpt lat="28.09708" lon="-14.28953">
        <ele>110.2</ele>
        <time>2021-07-05 17:20:33</time>
      </trkpt>
      <trkpt lat="28.09705" lon="-14.28954">
        <ele>110.4</ele>
        <time>2021-07-05 17:20:34</time>
      </trkpt>
      <trkpt lat="28.09701" lon="-14.28955">
        <ele>110.6</ele>
        <time>2021-07-05 17:20:35</time>
      </trkpt>
      <trkpt lat="28.09698" lon="-14.28956">
        <ele>110.8</ele>
        <time>2021-07-05 17:20:36</time>
      </trkpt>
      <trkpt lat="28.09694" lon="-14.28958">
        <ele>111.2</ele>
        <time>2021-07-05 17:20:37</time>
      </trkpt>
      <trkpt lat="28.09691" lon="-14.28959">
        <ele>111.4</ele>
        <time>2021-07-05 17:20:38</time>
      </trkpt>
      <trkpt lat="28.09688" lon="-14.28961">
        <ele>111.8</ele>
        <time>2021-07-05 17:20:39</time>
      </trkpt>
      <trkpt lat="28.09684" lon="-14.28963">
        <ele>112.2</ele>
        <time>2021-07-05 17:20:40</time>
      </trkpt>
      <trkpt lat="28.09681" lon="-14.28965">
        <ele>112.2</ele>
        <time>2021-07-05 17:20:41</time>
      </trkpt>
      <trkpt lat="28.09677" lon="-14.28967">
        <ele>112.6</ele>
        <time>2021-07-05 17:20:42</time>
      </trkpt>
      <trkpt lat="28.09673" lon="-14.28969">
        <ele>112.8</ele>
        <time>2021-07-05 17:20:43</time>
      </trkpt>
      <trkpt lat="28.0967" lon="-14.28971">
        <ele>112.8</ele>
        <time>2021-07-05 17:20:44</time>
      </trkpt>
      <trkpt lat="28.09666" lon="-14.28973">
        <ele>113</ele>
        <time>2021-07-05 17:20:45</time>
      </trkpt>
      <trkpt lat="28.09662" lon="-14.28975">
        <ele>113</ele>
        <time>2021-07-05 17:20:46</time>
      </trkpt>
      <trkpt lat="28.09657" lon="-14.28977">
        <ele>113</ele>
        <time>2021-07-05 17:20:47</time>
      </trkpt>
      <trkpt lat="28.09652" lon="-14.28979">
        <ele>113</ele>
        <time>2021-07-05 17:20:48</time>
      </trkpt>
      <trkpt lat="28.09647" lon="-14.2898">
        <ele>113</ele>
        <time>2021-07-05 17:20:49</time>
      </trkpt>
      <trkpt lat="28.09642" lon="-14.28981">
        <ele>112.2</ele>
        <time>2021-07-05 17:20:50</time>
      </trkpt>
      <trkpt lat="28.09637" lon="-14.28982">
        <ele>112.2</ele>
        <time>2021-07-05 17:20:51</time>
      </trkpt>
      <trkpt lat="28.09632" lon="-14.28983">
        <ele>111.8</ele>
        <time>2021-07-05 17:20:52</time>
      </trkpt>
      <trkpt lat="28.09626" lon="-14.28984">
        <ele>111.2</ele>
        <time>2021-07-05 17:20:53</time>
      </trkpt>
      <trkpt lat="28.0962" lon="-14.28985">
        <ele>110.8</ele>
        <time>2021-07-05 17:20:54</time>
      </trkpt>
      <trkpt lat="28.09614" lon="-14.28985">
        <ele>110.2</ele>
        <time>2021-07-05 17:20:55</time>
      </trkpt>
      <trkpt lat="28.09607" lon="-14.28985">
        <ele>109.6</ele>
        <time>2021-07-05 17:20:56</time>
      </trkpt>
      <trkpt lat="28.096" lon="-14.28985">
        <ele>109</ele>
        <time>2021-07-05 17:20:57</time>
      </trkpt>
      <trkpt lat="28.09593" lon="-14.28984">
        <ele>108.2</ele>
        <time>2021-07-05 17:20:58</time>
      </trkpt>
      <trkpt lat="28.09586" lon="-14.28983">
        <ele>107.4</ele>
        <time>2021-07-05 17:20:59</time>
      </trkpt>
      <trkpt lat="28.09578" lon="-14.28981">
        <ele>106.6</ele>
        <time>2021-07-05 17:21:00</time>
      </trkpt>
      <trkpt lat="28.0957" lon="-14.2898">
        <ele>104.8</ele>
        <time>2021-07-05 17:21:01</time>
      </trkpt>
      <trkpt lat="28.09561" lon="-14.28978">
        <ele>104.8</ele>
        <time>2021-07-05 17:21:02</time>
      </trkpt>
      <trkpt lat="28.09553" lon="-14.28976">
        <ele>103.8</ele>
        <time>2021-07-05 17:21:03</time>
      </trkpt>
      <trkpt lat="28.09544" lon="-14.28974">
        <ele>102.8</ele>
        <time>2021-07-05 17:21:04</time>
      </trkpt>
      <trkpt lat="28.09536" lon="-14.28973">
        <ele>101.8</ele>
        <time>2021-07-05 17:21:05</time>
      </trkpt>
      <trkpt lat="28.09527" lon="-14.2897">
        <ele>101</ele>
        <time>2021-07-05 17:21:06</time>
      </trkpt>
      <trkpt lat="28.09519" lon="-14.28968">
        <ele>100.2</ele>
        <time>2021-07-05 17:21:07</time>
      </trkpt>
      <trkpt lat="28.0951" lon="-14.28966">
        <ele>99.2</ele>
        <time>2021-07-05 17:21:08</time>
      </trkpt>
      <trkpt lat="28.09502" lon="-14.28963">
        <ele>98.4</ele>
        <time>2021-07-05 17:21:09</time>
      </trkpt>
      <trkpt lat="28.09494" lon="-14.28961">
        <ele>97.6</ele>
        <time>2021-07-05 17:21:10</time>
      </trkpt>
      <trkpt lat="28.09487" lon="-14.28959">
        <ele>96.8</ele>
        <time>2021-07-05 17:21:11</time>
      </trkpt>
      <trkpt lat="28.09479" lon="-14.28956">
        <ele>96</ele>
        <time>2021-07-05 17:21:12</time>
      </trkpt>
      <trkpt lat="28.09473" lon="-14.28953">
        <ele>95</ele>
        <time>2021-07-05 17:21:13</time>
      </trkpt>
      <trkpt lat="28.09466" lon="-14.2895">
        <ele>94</ele>
        <time>2021-07-05 17:21:14</time>
      </trkpt>
      <trkpt lat="28.0946" lon="-14.28948">
        <ele>93</ele>
        <time>2021-07-05 17:21:15</time>
      </trkpt>
      <trkpt lat="28.09454" lon="-14.28946">
        <ele>92</ele>
        <time>2021-07-05 17:21:16</time>
      </trkpt>
      <trkpt lat="28.09447" lon="-14.28944">
        <ele>91.2</ele>
        <time>2021-07-05 17:21:17</time>
      </trkpt>
      <trkpt lat="28.09439" lon="-14.28944">
        <ele>89.6</ele>
        <time>2021-07-05 17:21:18</time>
      </trkpt>
      <trkpt lat="28.09431" lon="-14.28945">
        <ele>89.6</ele>
        <time>2021-07-05 17:21:19</time>
      </trkpt>
      <trkpt lat="28.09424" lon="-14.28947">
        <ele>89</ele>
        <time>2021-07-05 17:21:20</time>
      </trkpt>
      <trkpt lat="28.09416" lon="-14.28948">
        <ele>88.4</ele>
        <time>2021-07-05 17:21:21</time>
      </trkpt>
      <trkpt lat="28.09408" lon="-14.28949">
        <ele>87.4</ele>
        <time>2021-07-05 17:21:22</time>
      </trkpt>
      <trkpt lat="28.094" lon="-14.2895">
        <ele>87</ele>
        <time>2021-07-05 17:21:23</time>
      </trkpt>
      <trkpt lat="28.09392" lon="-14.2895">
        <ele>87</ele>
        <time>2021-07-05 17:21:24</time>
      </trkpt>
      <trkpt lat="28.09385" lon="-14.28951">
        <ele>86.6</ele>
        <time>2021-07-05 17:21:25</time>
      </trkpt>
      <trkpt lat="28.09377" lon="-14.28953">
        <ele>86</ele>
        <time>2021-07-05 17:21:26</time>
      </trkpt>
      <trkpt lat="28.09369" lon="-14.28954">
        <ele>85.4</ele>
        <time>2021-07-05 17:21:27</time>
      </trkpt>
      <trkpt lat="28.0936" lon="-14.28957">
        <ele>84.8</ele>
        <time>2021-07-05 17:21:28</time>
      </trkpt>
      <trkpt lat="28.09352" lon="-14.2896">
        <ele>84.2</ele>
        <time>2021-07-05 17:21:29</time>
      </trkpt>
      <trkpt lat="28.09345" lon="-14.28964">
        <ele>83.6</ele>
        <time>2021-07-05 17:21:30</time>
      </trkpt>
      <trkpt lat="28.09339" lon="-14.28967">
        <ele>83.2</ele>
        <time>2021-07-05 17:21:31</time>
      </trkpt>
      <trkpt lat="28.09333" lon="-14.2897">
        <ele>83.2</ele>
        <time>2021-07-05 17:21:32</time>
      </trkpt>
      <trkpt lat="28.09329" lon="-14.28972">
        <ele>83.2</ele>
        <time>2021-07-05 17:21:33</time>
      </trkpt>
      <trkpt lat="28.09325" lon="-14.28973">
        <ele>83.2</ele>
        <time>2021-07-05 17:21:34</time>
      </trkpt>
      <trkpt lat="28.09321" lon="-14.28975">
        <ele>84.2</ele>
        <time>2021-07-05 17:21:35</time>
      </trkpt>
      <trkpt lat="28.09317" lon="-14.28976">
        <ele>84.2</ele>
        <time>2021-07-05 17:21:36</time>
      </trkpt>
      <trkpt lat="28.09314" lon="-14.28977">
        <ele>84.6</ele>
        <time>2021-07-05 17:21:37</time>
      </trkpt>
      <trkpt lat="28.0931" lon="-14.28978">
        <ele>85.2</ele>
        <time>2021-07-05 17:21:38</time>
      </trkpt>
      <trkpt lat="28.09307" lon="-14.28979">
        <ele>85.8</ele>
        <time>2021-07-05 17:21:39</time>
      </trkpt>
      <trkpt lat="28.09304" lon="-14.28979">
        <ele>86</ele>
        <time>2021-07-05 17:21:40</time>
      </trkpt>
      <trkpt lat="28.09301" lon="-14.28979">
        <ele>86.2</ele>
        <time>2021-07-05 17:21:41</time>
      </trkpt>
      <trkpt lat="28.09298" lon="-14.28979">
        <ele>86.4</ele>
        <time>2021-07-05 17:21:42</time>
      </trkpt>
      <trkpt lat="28.09295" lon="-14.28979">
        <ele>86.4</ele>
        <time>2021-07-05 17:21:43</time>
      </trkpt>
      <trkpt lat="28.09292" lon="-14.28979">
        <ele>86.8</ele>
        <time>2021-07-05 17:21:44</time>
      </trkpt>
      <trkpt lat="28.09288" lon="-14.28978">
        <ele>86.8</ele>
        <time>2021-07-05 17:21:45</time>
      </trkpt>
      <trkpt lat="28.09285" lon="-14.28978">
        <ele>87</ele>
        <time>2021-07-05 17:21:46</time>
      </trkpt>
      <trkpt lat="28.09281" lon="-14.28977">
        <ele>87</ele>
        <time>2021-07-05 17:21:47</time>
      </trkpt>
      <trkpt lat="28.09276" lon="-14.28975">
        <ele>87</ele>
        <time>2021-07-05 17:21:48</time>
      </trkpt>
      <trkpt lat="28.09272" lon="-14.28973">
        <ele>86.8</ele>
        <time>2021-07-05 17:21:49</time>
      </trkpt>
      <trkpt lat="28.09266" lon="-14.28972">
        <ele>86.8</ele>
        <time>2021-07-05 17:21:50</time>
      </trkpt>
      <trkpt lat="28.0926" lon="-14.2897">
        <ele>86.4</ele>
        <time>2021-07-05 17:21:51</time>
      </trkpt>
      <trkpt lat="28.09254" lon="-14.28969">
        <ele>86</ele>
        <time>2021-07-05 17:21:52</time>
      </trkpt>
      <trkpt lat="28.09247" lon="-14.28968">
        <ele>85.8</ele>
        <time>2021-07-05 17:21:53</time>
      </trkpt>
      <trkpt lat="28.0924" lon="-14.28969">
        <ele>85.4</ele>
        <time>2021-07-05 17:21:54</time>
      </trkpt>
      <trkpt lat="28.09232" lon="-14.2897">
        <ele>85</ele>
        <time>2021-07-05 17:21:55</time>
      </trkpt>
      <trkpt lat="28.09224" lon="-14.28972">
        <ele>84.6</ele>
        <time>2021-07-05 17:21:56</time>
      </trkpt>
      <trkpt lat="28.09217" lon="-14.28976">
        <ele>84.2</ele>
        <time>2021-07-05 17:21:57</time>
      </trkpt>
      <trkpt lat="28.0921" lon="-14.28981">
        <ele>83.8</ele>
        <time>2021-07-05 17:21:58</time>
      </trkpt>
      <trkpt lat="28.09204" lon="-14.28987">
        <ele>83.8</ele>
        <time>2021-07-05 17:21:59</time>
      </trkpt>
      <trkpt lat="28.09199" lon="-14.28994">
        <ele>83</ele>
        <time>2021-07-05 17:22:00</time>
      </trkpt>
      <trkpt lat="28.09195" lon="-14.29002">
        <ele>83</ele>
        <time>2021-07-05 17:22:01</time>
      </trkpt>
      <trkpt lat="28.09192" lon="-14.29009">
        <ele>82</ele>
        <time>2021-07-05 17:22:02</time>
      </trkpt>
      <trkpt lat="28.0919" lon="-14.29017">
        <ele>82</ele>
        <time>2021-07-05 17:22:03</time>
      </trkpt>
      <trkpt lat="28.0919" lon="-14.29024">
        <ele>81.6</ele>
        <time>2021-07-05 17:22:04</time>
      </trkpt>
      <trkpt lat="28.0919" lon="-14.29031">
        <ele>81.2</ele>
        <time>2021-07-05 17:22:05</time>
      </trkpt>
      <trkpt lat="28.09191" lon="-14.29037">
        <ele>80.6</ele>
        <time>2021-07-05 17:22:06</time>
      </trkpt>
      <trkpt lat="28.09191" lon="-14.29043">
        <ele>80.2</ele>
        <time>2021-07-05 17:22:07</time>
      </trkpt>
      <trkpt lat="28.09192" lon="-14.2905">
        <ele>79.8</ele>
        <time>2021-07-05 17:22:08</time>
      </trkpt>
      <trkpt lat="28.09194" lon="-14.29056">
        <ele>79</ele>
        <time>2021-07-05 17:22:09</time>
      </trkpt>
      <trkpt lat="28.09195" lon="-14.29062">
        <ele>78.4</ele>
        <time>2021-07-05 17:22:10</time>
      </trkpt>
      <trkpt lat="28.09196" lon="-14.29067">
        <ele>77.6</ele>
        <time>2021-07-05 17:22:11</time>
      </trkpt>
      <trkpt lat="28.09198" lon="-14.29072">
        <ele>76.4</ele>
        <time>2021-07-05 17:22:12</time>
      </trkpt>
      <trkpt lat="28.09199" lon="-14.29078">
        <ele>76.4</ele>
        <time>2021-07-05 17:22:13</time>
      </trkpt>
      <trkpt lat="28.09201" lon="-14.29083">
        <ele>76</ele>
        <time>2021-07-05 17:22:14</time>
      </trkpt>
      <trkpt lat="28.09202" lon="-14.29089">
        <ele>75.4</ele>
        <time>2021-07-05 17:22:15</time>
      </trkpt>
      <trkpt lat="28.09203" lon="-14.29095">
        <ele>75.4</ele>
        <time>2021-07-05 17:22:16</time>
      </trkpt>
      <trkpt lat="28.09205" lon="-14.291">
        <ele>75.2</ele>
        <time>2021-07-05 17:22:17</time>
      </trkpt>
      <trkpt lat="28.09206" lon="-14.29106">
        <ele>75.2</ele>
        <time>2021-07-05 17:22:18</time>
      </trkpt>
      <trkpt lat="28.09208" lon="-14.29111">
        <ele>74.8</ele>
        <time>2021-07-05 17:22:19</time>
      </trkpt>
      <trkpt lat="28.0921" lon="-14.29118">
        <ele>74.8</ele>
        <time>2021-07-05 17:22:20</time>
      </trkpt>
      <trkpt lat="28.09211" lon="-14.29124">
        <ele>74.4</ele>
        <time>2021-07-05 17:22:21</time>
      </trkpt>
      <trkpt lat="28.09212" lon="-14.2913">
        <ele>73.8</ele>
        <time>2021-07-05 17:22:22</time>
      </trkpt>
      <trkpt lat="28.09213" lon="-14.29137">
        <ele>73.8</ele>
        <time>2021-07-05 17:22:23</time>
      </trkpt>
      <trkpt lat="28.09213" lon="-14.29143">
        <ele>73.8</ele>
        <time>2021-07-05 17:22:24</time>
      </trkpt>
      <trkpt lat="28.09213" lon="-14.2915">
        <ele>73.4</ele>
        <time>2021-07-05 17:22:25</time>
      </trkpt>
      <trkpt lat="28.09213" lon="-14.29157">
        <ele>73.4</ele>
        <time>2021-07-05 17:22:26</time>
      </trkpt>
      <trkpt lat="28.09213" lon="-14.29164">
        <ele>73.2</ele>
        <time>2021-07-05 17:22:27</time>
      </trkpt>
      <trkpt lat="28.09211" lon="-14.2917">
        <ele>73.2</ele>
        <time>2021-07-05 17:22:28</time>
      </trkpt>
      <trkpt lat="28.09208" lon="-14.29177">
        <ele>73.4</ele>
        <time>2021-07-05 17:22:29</time>
      </trkpt>
      <trkpt lat="28.09205" lon="-14.29185">
        <ele>73.4</ele>
        <time>2021-07-05 17:22:30</time>
      </trkpt>
      <trkpt lat="28.09201" lon="-14.29192">
        <ele>73.4</ele>
        <time>2021-07-05 17:22:31</time>
      </trkpt>
      <trkpt lat="28.09195" lon="-14.292">
        <ele>73.4</ele>
        <time>2021-07-05 17:22:32</time>
      </trkpt>
      <trkpt lat="28.09189" lon="-14.29207">
        <ele>73.4</ele>
        <time>2021-07-05 17:22:33</time>
      </trkpt>
      <trkpt lat="28.09182" lon="-14.29214">
        <ele>73</ele>
        <time>2021-07-05 17:22:34</time>
      </trkpt>
      <trkpt lat="28.09175" lon="-14.2922">
        <ele>72.4</ele>
        <time>2021-07-05 17:22:35</time>
      </trkpt>
      <trkpt lat="28.09166" lon="-14.29227">
        <ele>72</ele>
        <time>2021-07-05 17:22:36</time>
      </trkpt>
      <trkpt lat="28.09158" lon="-14.29233">
        <ele>71.4</ele>
        <time>2021-07-05 17:22:37</time>
      </trkpt>
      <trkpt lat="28.09149" lon="-14.2924">
        <ele>70.6</ele>
        <time>2021-07-05 17:22:38</time>
      </trkpt>
      <trkpt lat="28.0914" lon="-14.29246">
        <ele>69.8</ele>
        <time>2021-07-05 17:22:39</time>
      </trkpt>
      <trkpt lat="28.09132" lon="-14.29252">
        <ele>69.4</ele>
        <time>2021-07-05 17:22:40</time>
      </trkpt>
      <trkpt lat="28.09124" lon="-14.29257">
        <ele>69</ele>
        <time>2021-07-05 17:22:41</time>
      </trkpt>
      <trkpt lat="28.09116" lon="-14.29262">
        <ele>68.6</ele>
        <time>2021-07-05 17:22:42</time>
      </trkpt>
      <trkpt lat="28.0911" lon="-14.29267">
        <ele>68</ele>
        <time>2021-07-05 17:22:43</time>
      </trkpt>
      <trkpt lat="28.09103" lon="-14.29271">
        <ele>67.4</ele>
        <time>2021-07-05 17:22:44</time>
      </trkpt>
      <trkpt lat="28.09096" lon="-14.29275">
        <ele>66</ele>
        <time>2021-07-05 17:22:45</time>
      </trkpt>
      <trkpt lat="28.0909" lon="-14.29278">
        <ele>66</ele>
        <time>2021-07-05 17:22:46</time>
      </trkpt>
      <trkpt lat="28.09084" lon="-14.29282">
        <ele>65.6</ele>
        <time>2021-07-05 17:22:47</time>
      </trkpt>
      <trkpt lat="28.09078" lon="-14.29285">
        <ele>65</ele>
        <time>2021-07-05 17:22:48</time>
      </trkpt>
      <trkpt lat="28.09072" lon="-14.29288">
        <ele>64.4</ele>
        <time>2021-07-05 17:22:49</time>
      </trkpt>
      <trkpt lat="28.09067" lon="-14.29291">
        <ele>64</ele>
        <time>2021-07-05 17:22:50</time>
      </trkpt>
      <trkpt lat="28.09061" lon="-14.29294">
        <ele>63.8</ele>
        <time>2021-07-05 17:22:51</time>
      </trkpt>
      <trkpt lat="28.09056" lon="-14.29297">
        <ele>63.8</ele>
        <time>2021-07-05 17:22:52</time>
      </trkpt>
      <trkpt lat="28.09056" lon="-14.29297">
        <ele>63.6</ele>
        <time>2021-07-05 17:22:53</time>
      </trkpt>
      <trkpt lat="28.09045" lon="-14.29302">
        <ele>63</ele>
        <time>2021-07-05 17:22:54</time>
      </trkpt>
      <trkpt lat="28.09039" lon="-14.29304">
        <ele>62.4</ele>
        <time>2021-07-05 17:22:55</time>
      </trkpt>
      <trkpt lat="28.09033" lon="-14.29306">
        <ele>62.4</ele>
        <time>2021-07-05 17:22:56</time>
      </trkpt>
      <trkpt lat="28.09028" lon="-14.29308">
        <ele>62.4</ele>
        <time>2021-07-05 17:22:57</time>
      </trkpt>
      <trkpt lat="28.09023" lon="-14.29309">
        <ele>62.4</ele>
        <time>2021-07-05 17:22:58</time>
      </trkpt>
      <trkpt lat="28.09018" lon="-14.29311">
        <ele>62.4</ele>
        <time>2021-07-05 17:22:59</time>
      </trkpt>
      <trkpt lat="28.09013" lon="-14.29313">
        <ele>62.4</ele>
        <time>2021-07-05 17:23:00</time>
      </trkpt>
      <trkpt lat="28.09008" lon="-14.29314">
        <ele>62.4</ele>
        <time>2021-07-05 17:23:01</time>
      </trkpt>
      <trkpt lat="28.09003" lon="-14.29315">
        <ele>62.4</ele>
        <time>2021-07-05 17:23:02</time>
      </trkpt>
      <trkpt lat="28.08998" lon="-14.29317">
        <ele>62.4</ele>
        <time>2021-07-05 17:23:03</time>
      </trkpt>
      <trkpt lat="28.08994" lon="-14.29318">
        <ele>62.4</ele>
        <time>2021-07-05 17:23:04</time>
      </trkpt>
      <trkpt lat="28.08989" lon="-14.29319">
        <ele>62.4</ele>
        <time>2021-07-05 17:23:05</time>
      </trkpt>
      <trkpt lat="28.08985" lon="-14.29319">
        <ele>62.4</ele>
        <time>2021-07-05 17:23:06</time>
      </trkpt>
      <trkpt lat="28.08981" lon="-14.2932">
        <ele>62.4</ele>
        <time>2021-07-05 17:23:07</time>
      </trkpt>
      <trkpt lat="28.08977" lon="-14.2932">
        <ele>62.6</ele>
        <time>2021-07-05 17:23:08</time>
      </trkpt>
      <trkpt lat="28.08973" lon="-14.29321">
        <ele>62.6</ele>
        <time>2021-07-05 17:23:09</time>
      </trkpt>
      <trkpt lat="28.0897" lon="-14.29322">
        <ele>62.6</ele>
        <time>2021-07-05 17:23:10</time>
      </trkpt>
      <trkpt lat="28.08966" lon="-14.29322">
        <ele>63</ele>
        <time>2021-07-05 17:23:11</time>
      </trkpt>
      <trkpt lat="28.08962" lon="-14.29323">
        <ele>63</ele>
        <time>2021-07-05 17:23:12</time>
      </trkpt>
      <trkpt lat="28.08959" lon="-14.29323">
        <ele>63</ele>
        <time>2021-07-05 17:23:13</time>
      </trkpt>
      <trkpt lat="28.08955" lon="-14.29324">
        <ele>63.4</ele>
        <time>2021-07-05 17:23:14</time>
      </trkpt>
      <trkpt lat="28.08952" lon="-14.29324">
        <ele>63.8</ele>
        <time>2021-07-05 17:23:15</time>
      </trkpt>
      <trkpt lat="28.08948" lon="-14.29324">
        <ele>64.2</ele>
        <time>2021-07-05 17:23:16</time>
      </trkpt>
      <trkpt lat="28.08944" lon="-14.29324">
        <ele>64.8</ele>
        <time>2021-07-05 17:23:17</time>
      </trkpt>
      <trkpt lat="28.08941" lon="-14.29325">
        <ele>64.8</ele>
        <time>2021-07-05 17:23:18</time>
      </trkpt>
      <trkpt lat="28.08937" lon="-14.29325">
        <ele>64.8</ele>
        <time>2021-07-05 17:23:19</time>
      </trkpt>
      <trkpt lat="28.08934" lon="-14.29325">
        <ele>65</ele>
        <time>2021-07-05 17:23:20</time>
      </trkpt>
      <trkpt lat="28.08931" lon="-14.29325">
        <ele>65</ele>
        <time>2021-07-05 17:23:21</time>
      </trkpt>
      <trkpt lat="28.08927" lon="-14.29325">
        <ele>65.4</ele>
        <time>2021-07-05 17:23:22</time>
      </trkpt>
      <trkpt lat="28.08924" lon="-14.29325">
        <ele>65.4</ele>
        <time>2021-07-05 17:23:23</time>
      </trkpt>
      <trkpt lat="28.08921" lon="-14.29325">
        <ele>65.8</ele>
        <time>2021-07-05 17:23:24</time>
      </trkpt>
      <trkpt lat="28.08918" lon="-14.29325">
        <ele>65.8</ele>
        <time>2021-07-05 17:23:25</time>
      </trkpt>
      <trkpt lat="28.08915" lon="-14.29325">
        <ele>66.2</ele>
        <time>2021-07-05 17:23:26</time>
      </trkpt>
      <trkpt lat="28.08911" lon="-14.29324">
        <ele>66.2</ele>
        <time>2021-07-05 17:23:27</time>
      </trkpt>
      <trkpt lat="28.08908" lon="-14.29323">
        <ele>66.4</ele>
        <time>2021-07-05 17:23:28</time>
      </trkpt>
      <trkpt lat="28.08905" lon="-14.29322">
        <ele>66.4</ele>
        <time>2021-07-05 17:23:29</time>
      </trkpt>
      <trkpt lat="28.08902" lon="-14.2932">
        <ele>66.4</ele>
        <time>2021-07-05 17:23:30</time>
      </trkpt>
      <trkpt lat="28.08898" lon="-14.29319">
        <ele>66.8</ele>
        <time>2021-07-05 17:23:31</time>
      </trkpt>
      <trkpt lat="28.08895" lon="-14.29317">
        <ele>67</ele>
        <time>2021-07-05 17:23:32</time>
      </trkpt>
      <trkpt lat="28.08892" lon="-14.29315">
        <ele>67</ele>
        <time>2021-07-05 17:23:33</time>
      </trkpt>
      <trkpt lat="28.08889" lon="-14.29313">
        <ele>67</ele>
        <time>2021-07-05 17:23:34</time>
      </trkpt>
      <trkpt lat="28.08886" lon="-14.29311">
        <ele>67.4</ele>
        <time>2021-07-05 17:23:35</time>
      </trkpt>
      <trkpt lat="28.08882" lon="-14.29308">
        <ele>67.8</ele>
        <time>2021-07-05 17:23:36</time>
      </trkpt>
      <trkpt lat="28.08879" lon="-14.29306">
        <ele>67.8</ele>
        <time>2021-07-05 17:23:37</time>
      </trkpt>
      <trkpt lat="28.08876" lon="-14.29304">
        <ele>68</ele>
        <time>2021-07-05 17:23:38</time>
      </trkpt>
      <trkpt lat="28.08874" lon="-14.29301">
        <ele>68</ele>
        <time>2021-07-05 17:23:39</time>
      </trkpt>
      <trkpt lat="28.08871" lon="-14.29299">
        <ele>68</ele>
        <time>2021-07-05 17:23:40</time>
      </trkpt>
      <trkpt lat="28.08869" lon="-14.29297">
        <ele>68.8</ele>
        <time>2021-07-05 17:23:41</time>
      </trkpt>
      <trkpt lat="28.08867" lon="-14.29294">
        <ele>69.2</ele>
        <time>2021-07-05 17:23:42</time>
      </trkpt>
      <trkpt lat="28.08864" lon="-14.29291">
        <ele>69.6</ele>
        <time>2021-07-05 17:23:43</time>
      </trkpt>
      <trkpt lat="28.08861" lon="-14.29289">
        <ele>69.8</ele>
        <time>2021-07-05 17:23:44</time>
      </trkpt>
      <trkpt lat="28.08858" lon="-14.29287">
        <ele>70</ele>
        <time>2021-07-05 17:23:45</time>
      </trkpt>
      <trkpt lat="28.08855" lon="-14.29284">
        <ele>70.2</ele>
        <time>2021-07-05 17:23:46</time>
      </trkpt>
      <trkpt lat="28.08852" lon="-14.29282">
        <ele>70.2</ele>
        <time>2021-07-05 17:23:47</time>
      </trkpt>
      <trkpt lat="28.08849" lon="-14.2928">
        <ele>70.4</ele>
        <time>2021-07-05 17:23:48</time>
      </trkpt>
      <trkpt lat="28.08846" lon="-14.29277">
        <ele>70.4</ele>
        <time>2021-07-05 17:23:49</time>
      </trkpt>
      <trkpt lat="28.08843" lon="-14.29275">
        <ele>70.8</ele>
        <time>2021-07-05 17:23:50</time>
      </trkpt>
      <trkpt lat="28.0884" lon="-14.29273">
        <ele>70.8</ele>
        <time>2021-07-05 17:23:51</time>
      </trkpt>
      <trkpt lat="28.08837" lon="-14.29272">
        <ele>70.8</ele>
        <time>2021-07-05 17:23:52</time>
      </trkpt>
      <trkpt lat="28.08834" lon="-14.2927">
        <ele>71.4</ele>
        <time>2021-07-05 17:23:53</time>
      </trkpt>
      <trkpt lat="28.08832" lon="-14.29269">
        <ele>71.4</ele>
        <time>2021-07-05 17:23:54</time>
      </trkpt>
      <trkpt lat="28.08829" lon="-14.29268">
        <ele>72</ele>
        <time>2021-07-05 17:23:55</time>
      </trkpt>
      <trkpt lat="28.08826" lon="-14.29266">
        <ele>72.4</ele>
        <time>2021-07-05 17:23:56</time>
      </trkpt>
      <trkpt lat="28.08823" lon="-14.29264">
        <ele>72.4</ele>
        <time>2021-07-05 17:23:57</time>
      </trkpt>
      <trkpt lat="28.0882" lon="-14.29263">
        <ele>72.4</ele>
        <time>2021-07-05 17:23:58</time>
      </trkpt>
      <trkpt lat="28.08818" lon="-14.29261">
        <ele>72.4</ele>
        <time>2021-07-05 17:23:59</time>
      </trkpt>
      <trkpt lat="28.08814" lon="-14.2926">
        <ele>72.4</ele>
        <time>2021-07-05 17:24:00</time>
      </trkpt>
      <trkpt lat="28.08811" lon="-14.29258">
        <ele>72.6</ele>
        <time>2021-07-05 17:24:01</time>
      </trkpt>
      <trkpt lat="28.08808" lon="-14.29256">
        <ele>72.6</ele>
        <time>2021-07-05 17:24:02</time>
      </trkpt>
      <trkpt lat="28.08805" lon="-14.29254">
        <ele>72.6</ele>
        <time>2021-07-05 17:24:03</time>
      </trkpt>
      <trkpt lat="28.08801" lon="-14.29253">
        <ele>73</ele>
        <time>2021-07-05 17:24:04</time>
      </trkpt>
      <trkpt lat="28.08798" lon="-14.29251">
        <ele>73</ele>
        <time>2021-07-05 17:24:05</time>
      </trkpt>
      <trkpt lat="28.08794" lon="-14.29249">
        <ele>73</ele>
        <time>2021-07-05 17:24:06</time>
      </trkpt>
      <trkpt lat="28.08791" lon="-14.29247">
        <ele>73</ele>
        <time>2021-07-05 17:24:07</time>
      </trkpt>
      <trkpt lat="28.08787" lon="-14.29246">
        <ele>73.4</ele>
        <time>2021-07-05 17:24:08</time>
      </trkpt>
      <trkpt lat="28.08784" lon="-14.29244">
        <ele>73.4</ele>
        <time>2021-07-05 17:24:09</time>
      </trkpt>
      <trkpt lat="28.08781" lon="-14.29242">
        <ele>73.4</ele>
        <time>2021-07-05 17:24:10</time>
      </trkpt>
      <trkpt lat="28.08778" lon="-14.2924">
        <ele>73.4</ele>
        <time>2021-07-05 17:24:11</time>
      </trkpt>
      <trkpt lat="28.08775" lon="-14.29239">
        <ele>73.6</ele>
        <time>2021-07-05 17:24:12</time>
      </trkpt>
      <trkpt lat="28.08771" lon="-14.29237">
        <ele>73.6</ele>
        <time>2021-07-05 17:24:13</time>
      </trkpt>
      <trkpt lat="28.08767" lon="-14.29235">
        <ele>74</ele>
        <time>2021-07-05 17:24:14</time>
      </trkpt>
      <trkpt lat="28.08763" lon="-14.29234">
        <ele>74</ele>
        <time>2021-07-05 17:24:15</time>
      </trkpt>
      <trkpt lat="28.08759" lon="-14.29232">
        <ele>74.2</ele>
        <time>2021-07-05 17:24:16</time>
      </trkpt>
      <trkpt lat="28.08755" lon="-14.2923">
        <ele>74.2</ele>
        <time>2021-07-05 17:24:17</time>
      </trkpt>
      <trkpt lat="28.08751" lon="-14.29228">
        <ele>74.2</ele>
        <time>2021-07-05 17:24:18</time>
      </trkpt>
      <trkpt lat="28.08747" lon="-14.29227">
        <ele>74.2</ele>
        <time>2021-07-05 17:24:19</time>
      </trkpt>
      <trkpt lat="28.08743" lon="-14.29225">
        <ele>74.2</ele>
        <time>2021-07-05 17:24:20</time>
      </trkpt>
      <trkpt lat="28.08738" lon="-14.29224">
        <ele>74.2</ele>
        <time>2021-07-05 17:24:21</time>
      </trkpt>
      <trkpt lat="28.08733" lon="-14.29223">
        <ele>74.2</ele>
        <time>2021-07-05 17:24:22</time>
      </trkpt>
      <trkpt lat="28.08728" lon="-14.29221">
        <ele>74.2</ele>
        <time>2021-07-05 17:24:23</time>
      </trkpt>
      <trkpt lat="28.08723" lon="-14.29221">
        <ele>74.2</ele>
        <time>2021-07-05 17:24:24</time>
      </trkpt>
      <trkpt lat="28.08718" lon="-14.2922">
        <ele>74.2</ele>
        <time>2021-07-05 17:24:25</time>
      </trkpt>
      <trkpt lat="28.08712" lon="-14.2922">
        <ele>74.2</ele>
        <time>2021-07-05 17:24:26</time>
      </trkpt>
      <trkpt lat="28.08706" lon="-14.29219">
        <ele>74</ele>
        <time>2021-07-05 17:24:27</time>
      </trkpt>
      <trkpt lat="28.08701" lon="-14.29219">
        <ele>74</ele>
        <time>2021-07-05 17:24:28</time>
      </trkpt>
      <trkpt lat="28.08695" lon="-14.29219">
        <ele>74</ele>
        <time>2021-07-05 17:24:29</time>
      </trkpt>
      <trkpt lat="28.08688" lon="-14.29218">
        <ele>73.6</ele>
        <time>2021-07-05 17:24:30</time>
      </trkpt>
      <trkpt lat="28.08682" lon="-14.29218">
        <ele>73.4</ele>
        <time>2021-07-05 17:24:31</time>
      </trkpt>
      <trkpt lat="28.08675" lon="-14.29219">
        <ele>73.2</ele>
        <time>2021-07-05 17:24:32</time>
      </trkpt>
      <trkpt lat="28.08669" lon="-14.29219">
        <ele>72.8</ele>
        <time>2021-07-05 17:24:33</time>
      </trkpt>
      <trkpt lat="28.08662" lon="-14.2922">
        <ele>72.6</ele>
        <time>2021-07-05 17:24:34</time>
      </trkpt>
      <trkpt lat="28.08655" lon="-14.2922">
        <ele>72</ele>
        <time>2021-07-05 17:24:35</time>
      </trkpt>
      <trkpt lat="28.08648" lon="-14.2922">
        <ele>72</ele>
        <time>2021-07-05 17:24:36</time>
      </trkpt>
      <trkpt lat="28.0864" lon="-14.29221">
        <ele>71.8</ele>
        <time>2021-07-05 17:24:37</time>
      </trkpt>
      <trkpt lat="28.08633" lon="-14.29221">
        <ele>71.8</ele>
        <time>2021-07-05 17:24:38</time>
      </trkpt>
      <trkpt lat="28.08626" lon="-14.29221">
        <ele>71.4</ele>
        <time>2021-07-05 17:24:39</time>
      </trkpt>
      <trkpt lat="28.08619" lon="-14.29222">
        <ele>71.2</ele>
        <time>2021-07-05 17:24:40</time>
      </trkpt>
      <trkpt lat="28.08612" lon="-14.29222">
        <ele>71.2</ele>
        <time>2021-07-05 17:24:41</time>
      </trkpt>
      <trkpt lat="28.08604" lon="-14.29223">
        <ele>70.8</ele>
        <time>2021-07-05 17:24:42</time>
      </trkpt>
      <trkpt lat="28.08596" lon="-14.29223">
        <ele>70.8</ele>
        <time>2021-07-05 17:24:43</time>
      </trkpt>
      <trkpt lat="28.08588" lon="-14.29223">
        <ele>70.4</ele>
        <time>2021-07-05 17:24:44</time>
      </trkpt>
      <trkpt lat="28.08581" lon="-14.29224">
        <ele>70.2</ele>
        <time>2021-07-05 17:24:45</time>
      </trkpt>
      <trkpt lat="28.08572" lon="-14.29224">
        <ele>70.2</ele>
        <time>2021-07-05 17:24:46</time>
      </trkpt>
      <trkpt lat="28.08564" lon="-14.29224">
        <ele>69.8</ele>
        <time>2021-07-05 17:24:47</time>
      </trkpt>
      <trkpt lat="28.08555" lon="-14.29225">
        <ele>69.8</ele>
        <time>2021-07-05 17:24:48</time>
      </trkpt>
      <trkpt lat="28.08546" lon="-14.29225">
        <ele>69.6</ele>
        <time>2021-07-05 17:24:49</time>
      </trkpt>
      <trkpt lat="28.08538" lon="-14.29225">
        <ele>69</ele>
        <time>2021-07-05 17:24:50</time>
      </trkpt>
      <trkpt lat="28.0853" lon="-14.29226">
        <ele>69</ele>
        <time>2021-07-05 17:24:51</time>
      </trkpt>
      <trkpt lat="28.08521" lon="-14.29226">
        <ele>68.8</ele>
        <time>2021-07-05 17:24:52</time>
      </trkpt>
      <trkpt lat="28.08513" lon="-14.29227">
        <ele>68.4</ele>
        <time>2021-07-05 17:24:53</time>
      </trkpt>
      <trkpt lat="28.08506" lon="-14.29227">
        <ele>68.4</ele>
        <time>2021-07-05 17:24:54</time>
      </trkpt>
      <trkpt lat="28.08498" lon="-14.29227">
        <ele>68</ele>
        <time>2021-07-05 17:24:55</time>
      </trkpt>
      <trkpt lat="28.0849" lon="-14.29227">
        <ele>67.8</ele>
        <time>2021-07-05 17:24:56</time>
      </trkpt>
      <trkpt lat="28.08482" lon="-14.29228">
        <ele>67.6</ele>
        <time>2021-07-05 17:24:57</time>
      </trkpt>
      <trkpt lat="28.08474" lon="-14.29229">
        <ele>67.4</ele>
        <time>2021-07-05 17:24:58</time>
      </trkpt>
      <trkpt lat="28.08466" lon="-14.29229">
        <ele>67.2</ele>
        <time>2021-07-05 17:24:59</time>
      </trkpt>
      <trkpt lat="28.08457" lon="-14.29229">
        <ele>66.8</ele>
        <time>2021-07-05 17:25:00</time>
      </trkpt>
      <trkpt lat="28.08448" lon="-14.2923">
        <ele>66.4</ele>
        <time>2021-07-05 17:25:01</time>
      </trkpt>
      <trkpt lat="28.08439" lon="-14.2923">
        <ele>66.2</ele>
        <time>2021-07-05 17:25:02</time>
      </trkpt>
      <trkpt lat="28.08431" lon="-14.2923">
        <ele>66</ele>
        <time>2021-07-05 17:25:03</time>
      </trkpt>
      <trkpt lat="28.08422" lon="-14.29231">
        <ele>65.6</ele>
        <time>2021-07-05 17:25:04</time>
      </trkpt>
      <trkpt lat="28.08413" lon="-14.29231">
        <ele>65.2</ele>
        <time>2021-07-05 17:25:05</time>
      </trkpt>
      <trkpt lat="28.08405" lon="-14.29231">
        <ele>65</ele>
        <time>2021-07-05 17:25:06</time>
      </trkpt>
      <trkpt lat="28.08397" lon="-14.29232">
        <ele>64.6</ele>
        <time>2021-07-05 17:25:07</time>
      </trkpt>
      <trkpt lat="28.08389" lon="-14.29232">
        <ele>64.4</ele>
        <time>2021-07-05 17:25:08</time>
      </trkpt>
      <trkpt lat="28.08381" lon="-14.29232">
        <ele>64</ele>
        <time>2021-07-05 17:25:09</time>
      </trkpt>
      <trkpt lat="28.08373" lon="-14.29233">
        <ele>63.8</ele>
        <time>2021-07-05 17:25:10</time>
      </trkpt>
      <trkpt lat="28.08365" lon="-14.29233">
        <ele>63.8</ele>
        <time>2021-07-05 17:25:11</time>
      </trkpt>
      <trkpt lat="28.08357" lon="-14.29234">
        <ele>63.4</ele>
        <time>2021-07-05 17:25:12</time>
      </trkpt>
      <trkpt lat="28.08349" lon="-14.29235">
        <ele>63.4</ele>
        <time>2021-07-05 17:25:13</time>
      </trkpt>
      <trkpt lat="28.08341" lon="-14.29236">
        <ele>63.4</ele>
        <time>2021-07-05 17:25:14</time>
      </trkpt>
      <trkpt lat="28.08332" lon="-14.29239">
        <ele>63.4</ele>
        <time>2021-07-05 17:25:15</time>
      </trkpt>
      <trkpt lat="28.08323" lon="-14.29242">
        <ele>63</ele>
        <time>2021-07-05 17:25:16</time>
      </trkpt>
      <trkpt lat="28.08316" lon="-14.29247">
        <ele>62.8</ele>
        <time>2021-07-05 17:25:17</time>
      </trkpt>
      <trkpt lat="28.0831" lon="-14.29253">
        <ele>62.2</ele>
        <time>2021-07-05 17:25:18</time>
      </trkpt>
      <trkpt lat="28.08305" lon="-14.2926">
        <ele>62.2</ele>
        <time>2021-07-05 17:25:19</time>
      </trkpt>
      <trkpt lat="28.08301" lon="-14.29267">
        <ele>61.6</ele>
        <time>2021-07-05 17:25:20</time>
      </trkpt>
      <trkpt lat="28.08297" lon="-14.29274">
        <ele>61</ele>
        <time>2021-07-05 17:25:21</time>
      </trkpt>
      <trkpt lat="28.08295" lon="-14.2928">
        <ele>61</ele>
        <time>2021-07-05 17:25:22</time>
      </trkpt>
      <trkpt lat="28.08294" lon="-14.29287">
        <ele>60</ele>
        <time>2021-07-05 17:25:23</time>
      </trkpt>
      <trkpt lat="28.08293" lon="-14.29294">
        <ele>60</ele>
        <time>2021-07-05 17:25:24</time>
      </trkpt>
      <trkpt lat="28.08293" lon="-14.29301">
        <ele>59.4</ele>
        <time>2021-07-05 17:25:25</time>
      </trkpt>
      <trkpt lat="28.08294" lon="-14.29307">
        <ele>59</ele>
        <time>2021-07-05 17:25:26</time>
      </trkpt>
      <trkpt lat="28.08295" lon="-14.29313">
        <ele>58.6</ele>
        <time>2021-07-05 17:25:27</time>
      </trkpt>
      <trkpt lat="28.08297" lon="-14.29318">
        <ele>58</ele>
        <time>2021-07-05 17:25:28</time>
      </trkpt>
      <trkpt lat="28.083" lon="-14.29323">
        <ele>57.6</ele>
        <time>2021-07-05 17:25:29</time>
      </trkpt>
      <trkpt lat="28.08302" lon="-14.29327">
        <ele>57.2</ele>
        <time>2021-07-05 17:25:30</time>
      </trkpt>
      <trkpt lat="28.08305" lon="-14.29332">
        <ele>57</ele>
        <time>2021-07-05 17:25:31</time>
      </trkpt>
      <trkpt lat="28.08308" lon="-14.29336">
        <ele>56.6</ele>
        <time>2021-07-05 17:25:32</time>
      </trkpt>
      <trkpt lat="28.0831" lon="-14.29341">
        <ele>56.4</ele>
        <time>2021-07-05 17:25:33</time>
      </trkpt>
      <trkpt lat="28.08313" lon="-14.29345">
        <ele>56</ele>
        <time>2021-07-05 17:25:34</time>
      </trkpt>
      <trkpt lat="28.08316" lon="-14.29349">
        <ele>56</ele>
        <time>2021-07-05 17:25:35</time>
      </trkpt>
      <trkpt lat="28.08319" lon="-14.29353">
        <ele>56</ele>
        <time>2021-07-05 17:25:36</time>
      </trkpt>
      <trkpt lat="28.08323" lon="-14.29358">
        <ele>56</ele>
        <time>2021-07-05 17:25:37</time>
      </trkpt>
      <trkpt lat="28.08326" lon="-14.29362">
        <ele>56</ele>
        <time>2021-07-05 17:25:38</time>
      </trkpt>
      <trkpt lat="28.08329" lon="-14.29367">
        <ele>56</ele>
        <time>2021-07-05 17:25:39</time>
      </trkpt>
      <trkpt lat="28.08333" lon="-14.29371">
        <ele>56</ele>
        <time>2021-07-05 17:25:40</time>
      </trkpt>
      <trkpt lat="28.08336" lon="-14.29376">
        <ele>55.6</ele>
        <time>2021-07-05 17:25:41</time>
      </trkpt>
      <trkpt lat="28.08339" lon="-14.2938">
        <ele>55.6</ele>
        <time>2021-07-05 17:25:42</time>
      </trkpt>
      <trkpt lat="28.08343" lon="-14.29384">
        <ele>55.6</ele>
        <time>2021-07-05 17:25:43</time>
      </trkpt>
      <trkpt lat="28.08346" lon="-14.29388">
        <ele>55.6</ele>
        <time>2021-07-05 17:25:44</time>
      </trkpt>
      <trkpt lat="28.08349" lon="-14.29392">
        <ele>55.6</ele>
        <time>2021-07-05 17:25:45</time>
      </trkpt>
      <trkpt lat="28.08352" lon="-14.29396">
        <ele>55.6</ele>
        <time>2021-07-05 17:25:46</time>
      </trkpt>
      <trkpt lat="28.08355" lon="-14.29401">
        <ele>55.6</ele>
        <time>2021-07-05 17:25:47</time>
      </trkpt>
      <trkpt lat="28.08358" lon="-14.29405">
        <ele>55.8</ele>
        <time>2021-07-05 17:25:48</time>
      </trkpt>
      <trkpt lat="28.08361" lon="-14.29409">
        <ele>55.8</ele>
        <time>2021-07-05 17:25:49</time>
      </trkpt>
      <trkpt lat="28.08363" lon="-14.29413">
        <ele>55.8</ele>
        <time>2021-07-05 17:25:50</time>
      </trkpt>
      <trkpt lat="28.08365" lon="-14.29417">
        <ele>55.6</ele>
        <time>2021-07-05 17:25:51</time>
      </trkpt>
      <trkpt lat="28.08367" lon="-14.2942">
        <ele>55.4</ele>
        <time>2021-07-05 17:25:52</time>
      </trkpt>
      <trkpt lat="28.08369" lon="-14.29424">
        <ele>55.4</ele>
        <time>2021-07-05 17:25:53</time>
      </trkpt>
      <trkpt lat="28.0837" lon="-14.29428">
        <ele>55.4</ele>
        <time>2021-07-05 17:25:54</time>
      </trkpt>
      <trkpt lat="28.08371" lon="-14.29432">
        <ele>55</ele>
        <time>2021-07-05 17:25:55</time>
      </trkpt>
      <trkpt lat="28.08373" lon="-14.29436">
        <ele>55</ele>
        <time>2021-07-05 17:25:56</time>
      </trkpt>
      <trkpt lat="28.08373" lon="-14.2944">
        <ele>54.6</ele>
        <time>2021-07-05 17:25:57</time>
      </trkpt>
      <trkpt lat="28.08374" lon="-14.29445">
        <ele>54.6</ele>
        <time>2021-07-05 17:25:58</time>
      </trkpt>
      <trkpt lat="28.08373" lon="-14.29449">
        <ele>54.4</ele>
        <time>2021-07-05 17:25:59</time>
      </trkpt>
      <trkpt lat="28.08373" lon="-14.29453">
        <ele>54.4</ele>
        <time>2021-07-05 17:26:00</time>
      </trkpt>
      <trkpt lat="28.08372" lon="-14.29457">
        <ele>54.4</ele>
        <time>2021-07-05 17:26:01</time>
      </trkpt>
      <trkpt lat="28.08371" lon="-14.29462">
        <ele>54.6</ele>
        <time>2021-07-05 17:26:02</time>
      </trkpt>
      <trkpt lat="28.08369" lon="-14.29466">
        <ele>54.6</ele>
        <time>2021-07-05 17:26:03</time>
      </trkpt>
      <trkpt lat="28.08367" lon="-14.2947">
        <ele>54.8</ele>
        <time>2021-07-05 17:26:04</time>
      </trkpt>
      <trkpt lat="28.08365" lon="-14.29474">
        <ele>54.8</ele>
        <time>2021-07-05 17:26:05</time>
      </trkpt>
      <trkpt lat="28.08361" lon="-14.29477">
        <ele>54.8</ele>
        <time>2021-07-05 17:26:06</time>
      </trkpt>
      <trkpt lat="28.08358" lon="-14.2948">
        <ele>54.8</ele>
        <time>2021-07-05 17:26:07</time>
      </trkpt>
      <trkpt lat="28.08353" lon="-14.29482">
        <ele>54.8</ele>
        <time>2021-07-05 17:26:08</time>
      </trkpt>
      <trkpt lat="28.08349" lon="-14.29485">
        <ele>54.8</ele>
        <time>2021-07-05 17:26:09</time>
      </trkpt>
      <trkpt lat="28.08345" lon="-14.29487">
        <ele>54.8</ele>
        <time>2021-07-05 17:26:10</time>
      </trkpt>
      <trkpt lat="28.08341" lon="-14.29489">
        <ele>54.8</ele>
        <time>2021-07-05 17:26:11</time>
      </trkpt>
      <trkpt lat="28.08336" lon="-14.29491">
        <ele>54.8</ele>
        <time>2021-07-05 17:26:12</time>
      </trkpt>
      <trkpt lat="28.08332" lon="-14.29492">
        <ele>54.8</ele>
        <time>2021-07-05 17:26:13</time>
      </trkpt>
      <trkpt lat="28.08328" lon="-14.29493">
        <ele>54.8</ele>
        <time>2021-07-05 17:26:14</time>
      </trkpt>
      <trkpt lat="28.08324" lon="-14.29495">
        <ele>55</ele>
        <time>2021-07-05 17:26:15</time>
      </trkpt>
      <trkpt lat="28.0832" lon="-14.29495">
        <ele>55.4</ele>
        <time>2021-07-05 17:26:16</time>
      </trkpt>
      <trkpt lat="28.08316" lon="-14.29497">
        <ele>55.6</ele>
        <time>2021-07-05 17:26:17</time>
      </trkpt>
      <trkpt lat="28.08313" lon="-14.29497">
        <ele>55.6</ele>
        <time>2021-07-05 17:26:18</time>
      </trkpt>
      <trkpt lat="28.08309" lon="-14.29498">
        <ele>55.8</ele>
        <time>2021-07-05 17:26:19</time>
      </trkpt>
      <trkpt lat="28.08306" lon="-14.29498">
        <ele>56</ele>
        <time>2021-07-05 17:26:20</time>
      </trkpt>
      <trkpt lat="28.08303" lon="-14.29499">
        <ele>56.4</ele>
        <time>2021-07-05 17:26:21</time>
      </trkpt>
      <trkpt lat="28.083" lon="-14.295">
        <ele>56.8</ele>
        <time>2021-07-05 17:26:22</time>
      </trkpt>
      <trkpt lat="28.08296" lon="-14.295">
        <ele>57.2</ele>
        <time>2021-07-05 17:26:23</time>
      </trkpt>
      <trkpt lat="28.08294" lon="-14.29502">
        <ele>57.8</ele>
        <time>2021-07-05 17:26:24</time>
      </trkpt>
      <trkpt lat="28.08291" lon="-14.29503">
        <ele>58</ele>
        <time>2021-07-05 17:26:25</time>
      </trkpt>
      <trkpt lat="28.08288" lon="-14.29504">
        <ele>58</ele>
        <time>2021-07-05 17:26:26</time>
      </trkpt>
      <trkpt lat="28.08285" lon="-14.29505">
        <ele>58.4</ele>
        <time>2021-07-05 17:26:27</time>
      </trkpt>
      <trkpt lat="28.08281" lon="-14.29505">
        <ele>58.4</ele>
        <time>2021-07-05 17:26:28</time>
      </trkpt>
      <trkpt lat="28.08278" lon="-14.29506">
        <ele>58.4</ele>
        <time>2021-07-05 17:26:29</time>
      </trkpt>
      <trkpt lat="28.08275" lon="-14.29507">
        <ele>58.4</ele>
        <time>2021-07-05 17:26:30</time>
      </trkpt>
      <trkpt lat="28.08271" lon="-14.29508">
        <ele>58.4</ele>
        <time>2021-07-05 17:26:31</time>
      </trkpt>
      <trkpt lat="28.08268" lon="-14.29508">
        <ele>58.4</ele>
        <time>2021-07-05 17:26:32</time>
      </trkpt>
      <trkpt lat="28.08265" lon="-14.29509">
        <ele>58.6</ele>
        <time>2021-07-05 17:26:33</time>
      </trkpt>
      <trkpt lat="28.08262" lon="-14.29509">
        <ele>58.6</ele>
        <time>2021-07-05 17:26:34</time>
      </trkpt>
      <trkpt lat="28.08258" lon="-14.2951">
        <ele>58.6</ele>
        <time>2021-07-05 17:26:35</time>
      </trkpt>
      <trkpt lat="28.08255" lon="-14.29511">
        <ele>58.8</ele>
        <time>2021-07-05 17:26:36</time>
      </trkpt>
      <trkpt lat="28.08252" lon="-14.29513">
        <ele>58.8</ele>
        <time>2021-07-05 17:26:37</time>
      </trkpt>
      <trkpt lat="28.08249" lon="-14.29514">
        <ele>59.2</ele>
        <time>2021-07-05 17:26:38</time>
      </trkpt>
      <trkpt lat="28.08245" lon="-14.29515">
        <ele>59.2</ele>
        <time>2021-07-05 17:26:39</time>
      </trkpt>
      <trkpt lat="28.08242" lon="-14.29516">
        <ele>59.6</ele>
        <time>2021-07-05 17:26:40</time>
      </trkpt>
      <trkpt lat="28.08239" lon="-14.29517">
        <ele>59.6</ele>
        <time>2021-07-05 17:26:41</time>
      </trkpt>
      <trkpt lat="28.08235" lon="-14.29518">
        <ele>59.6</ele>
        <time>2021-07-05 17:26:42</time>
      </trkpt>
      <trkpt lat="28.08232" lon="-14.29519">
        <ele>59.6</ele>
        <time>2021-07-05 17:26:43</time>
      </trkpt>
      <trkpt lat="28.08229" lon="-14.29521">
        <ele>59.6</ele>
        <time>2021-07-05 17:26:44</time>
      </trkpt>
      <trkpt lat="28.08225" lon="-14.29521">
        <ele>60</ele>
        <time>2021-07-05 17:26:45</time>
      </trkpt>
      <trkpt lat="28.08222" lon="-14.29522">
        <ele>60</ele>
        <time>2021-07-05 17:26:46</time>
      </trkpt>
      <trkpt lat="28.08219" lon="-14.29523">
        <ele>60.2</ele>
        <time>2021-07-05 17:26:47</time>
      </trkpt>
      <trkpt lat="28.08215" lon="-14.29525">
        <ele>60.6</ele>
        <time>2021-07-05 17:26:48</time>
      </trkpt>
      <trkpt lat="28.08212" lon="-14.29526">
        <ele>60.6</ele>
        <time>2021-07-05 17:26:49</time>
      </trkpt>
      <trkpt lat="28.08209" lon="-14.29527">
        <ele>60.6</ele>
        <time>2021-07-05 17:26:50</time>
      </trkpt>
      <trkpt lat="28.08205" lon="-14.29529">
        <ele>60.8</ele>
        <time>2021-07-05 17:26:51</time>
      </trkpt>
      <trkpt lat="28.08201" lon="-14.2953">
        <ele>61.2</ele>
        <time>2021-07-05 17:26:52</time>
      </trkpt>
      <trkpt lat="28.08197" lon="-14.29531">
        <ele>61.4</ele>
        <time>2021-07-05 17:26:53</time>
      </trkpt>
      <trkpt lat="28.08194" lon="-14.29533">
        <ele>61.4</ele>
        <time>2021-07-05 17:26:54</time>
      </trkpt>
      <trkpt lat="28.08191" lon="-14.29534">
        <ele>61.8</ele>
        <time>2021-07-05 17:26:55</time>
      </trkpt>
      <trkpt lat="28.08187" lon="-14.29536">
        <ele>62</ele>
        <time>2021-07-05 17:26:56</time>
      </trkpt>
      <trkpt lat="28.08183" lon="-14.29537">
        <ele>62.6</ele>
        <time>2021-07-05 17:26:57</time>
      </trkpt>
      <trkpt lat="28.0818" lon="-14.29538">
        <ele>62.6</ele>
        <time>2021-07-05 17:26:58</time>
      </trkpt>
      <trkpt lat="28.08177" lon="-14.2954">
        <ele>62.8</ele>
        <time>2021-07-05 17:26:59</time>
      </trkpt>
      <trkpt lat="28.08173" lon="-14.29541">
        <ele>63.2</ele>
        <time>2021-07-05 17:27:00</time>
      </trkpt>
      <trkpt lat="28.0817" lon="-14.29543">
        <ele>63.6</ele>
        <time>2021-07-05 17:27:01</time>
      </trkpt>
      <trkpt lat="28.08167" lon="-14.29545">
        <ele>63.6</ele>
        <time>2021-07-05 17:27:02</time>
      </trkpt>
      <trkpt lat="28.08164" lon="-14.29547">
        <ele>63.8</ele>
        <time>2021-07-05 17:27:03</time>
      </trkpt>
      <trkpt lat="28.0816" lon="-14.29548">
        <ele>63.8</ele>
        <time>2021-07-05 17:27:04</time>
      </trkpt>
      <trkpt lat="28.08157" lon="-14.29549">
        <ele>64</ele>
        <time>2021-07-05 17:27:05</time>
      </trkpt>
      <trkpt lat="28.08154" lon="-14.29551">
        <ele>64</ele>
        <time>2021-07-05 17:27:06</time>
      </trkpt>
      <trkpt lat="28.08151" lon="-14.29552">
        <ele>64.4</ele>
        <time>2021-07-05 17:27:07</time>
      </trkpt>
      <trkpt lat="28.08147" lon="-14.29553">
        <ele>64.4</ele>
        <time>2021-07-05 17:27:08</time>
      </trkpt>
      <trkpt lat="28.08144" lon="-14.29555">
        <ele>64.8</ele>
        <time>2021-07-05 17:27:09</time>
      </trkpt>
      <trkpt lat="28.08141" lon="-14.29556">
        <ele>64.8</ele>
        <time>2021-07-05 17:27:10</time>
      </trkpt>
      <trkpt lat="28.08138" lon="-14.29557">
        <ele>64.8</ele>
        <time>2021-07-05 17:27:11</time>
      </trkpt>
      <trkpt lat="28.08135" lon="-14.29558">
        <ele>65</ele>
        <time>2021-07-05 17:27:12</time>
      </trkpt>
      <trkpt lat="28.08131" lon="-14.2956">
        <ele>65</ele>
        <time>2021-07-05 17:27:13</time>
      </trkpt>
      <trkpt lat="28.08128" lon="-14.29561">
        <ele>65</ele>
        <time>2021-07-05 17:27:14</time>
      </trkpt>
      <trkpt lat="28.08125" lon="-14.29563">
        <ele>65.2</ele>
        <time>2021-07-05 17:27:15</time>
      </trkpt>
      <trkpt lat="28.08121" lon="-14.29565">
        <ele>65.2</ele>
        <time>2021-07-05 17:27:16</time>
      </trkpt>
      <trkpt lat="28.08117" lon="-14.29567">
        <ele>65.2</ele>
        <time>2021-07-05 17:27:17</time>
      </trkpt>
      <trkpt lat="28.08114" lon="-14.29569">
        <ele>65.4</ele>
        <time>2021-07-05 17:27:18</time>
      </trkpt>
      <trkpt lat="28.0811" lon="-14.29572">
        <ele>65.4</ele>
        <time>2021-07-05 17:27:19</time>
      </trkpt>
      <trkpt lat="28.08107" lon="-14.29574">
        <ele>65.4</ele>
        <time>2021-07-05 17:27:20</time>
      </trkpt>
      <trkpt lat="28.08103" lon="-14.29577">
        <ele>65.4</ele>
        <time>2021-07-05 17:27:21</time>
      </trkpt>
      <trkpt lat="28.081" lon="-14.2958">
        <ele>65.4</ele>
        <time>2021-07-05 17:27:22</time>
      </trkpt>
      <trkpt lat="28.08097" lon="-14.29584">
        <ele>65.4</ele>
        <time>2021-07-05 17:27:23</time>
      </trkpt>
      <trkpt lat="28.08094" lon="-14.29588">
        <ele>65.4</ele>
        <time>2021-07-05 17:27:24</time>
      </trkpt>
      <trkpt lat="28.0809" lon="-14.29592">
        <ele>65.4</ele>
        <time>2021-07-05 17:27:25</time>
      </trkpt>
      <trkpt lat="28.08087" lon="-14.29596">
        <ele>65.4</ele>
        <time>2021-07-05 17:27:26</time>
      </trkpt>
      <trkpt lat="28.08083" lon="-14.296">
        <ele>65.4</ele>
        <time>2021-07-05 17:27:27</time>
      </trkpt>
      <trkpt lat="28.08079" lon="-14.29602">
        <ele>65.4</ele>
        <time>2021-07-05 17:27:28</time>
      </trkpt>
      <trkpt lat="28.08074" lon="-14.29605">
        <ele>65.4</ele>
        <time>2021-07-05 17:27:29</time>
      </trkpt>
      <trkpt lat="28.08069" lon="-14.29607">
        <ele>65.6</ele>
        <time>2021-07-05 17:27:30</time>
      </trkpt>
      <trkpt lat="28.08064" lon="-14.29609">
        <ele>65.6</ele>
        <time>2021-07-05 17:27:31</time>
      </trkpt>
      <trkpt lat="28.08058" lon="-14.2961">
        <ele>65.6</ele>
        <time>2021-07-05 17:27:32</time>
      </trkpt>
      <trkpt lat="28.08051" lon="-14.29611">
        <ele>65.6</ele>
        <time>2021-07-05 17:27:33</time>
      </trkpt>
      <trkpt lat="28.08045" lon="-14.29613">
        <ele>65.6</ele>
        <time>2021-07-05 17:27:34</time>
      </trkpt>
      <trkpt lat="28.08037" lon="-14.29615">
        <ele>65.6</ele>
        <time>2021-07-05 17:27:35</time>
      </trkpt>
      <trkpt lat="28.0803" lon="-14.29617">
        <ele>65.6</ele>
        <time>2021-07-05 17:27:36</time>
      </trkpt>
      <trkpt lat="28.08021" lon="-14.29619">
        <ele>65</ele>
        <time>2021-07-05 17:27:37</time>
      </trkpt>
      <trkpt lat="28.08013" lon="-14.29623">
        <ele>64.6</ele>
        <time>2021-07-05 17:27:38</time>
      </trkpt>
      <trkpt lat="28.08005" lon="-14.29626">
        <ele>64</ele>
        <time>2021-07-05 17:27:39</time>
      </trkpt>
      <trkpt lat="28.07996" lon="-14.29629">
        <ele>63.4</ele>
        <time>2021-07-05 17:27:40</time>
      </trkpt>
      <trkpt lat="28.07988" lon="-14.29633">
        <ele>62.8</ele>
        <time>2021-07-05 17:27:41</time>
      </trkpt>
      <trkpt lat="28.0798" lon="-14.29636">
        <ele>61.6</ele>
        <time>2021-07-05 17:27:42</time>
      </trkpt>
      <trkpt lat="28.07973" lon="-14.29639">
        <ele>60.8</ele>
        <time>2021-07-05 17:27:43</time>
      </trkpt>
      <trkpt lat="28.07967" lon="-14.29642">
        <ele>60.2</ele>
        <time>2021-07-05 17:27:44</time>
      </trkpt>
      <trkpt lat="28.07961" lon="-14.29647">
        <ele>60.2</ele>
        <time>2021-07-05 17:27:45</time>
      </trkpt>
      <trkpt lat="28.07955" lon="-14.29652">
        <ele>59.4</ele>
        <time>2021-07-05 17:27:46</time>
      </trkpt>
      <trkpt lat="28.07949" lon="-14.29658">
        <ele>58.8</ele>
        <time>2021-07-05 17:27:47</time>
      </trkpt>
      <trkpt lat="28.07945" lon="-14.29665">
        <ele>57.4</ele>
        <time>2021-07-05 17:27:48</time>
      </trkpt>
      <trkpt lat="28.07941" lon="-14.29673">
        <ele>57.4</ele>
        <time>2021-07-05 17:27:49</time>
      </trkpt>
      <trkpt lat="28.07939" lon="-14.29681">
        <ele>56.4</ele>
        <time>2021-07-05 17:27:50</time>
      </trkpt>
      <trkpt lat="28.07937" lon="-14.29689">
        <ele>55.8</ele>
        <time>2021-07-05 17:27:51</time>
      </trkpt>
      <trkpt lat="28.07936" lon="-14.29697">
        <ele>55.2</ele>
        <time>2021-07-05 17:27:52</time>
      </trkpt>
      <trkpt lat="28.07937" lon="-14.29705">
        <ele>54.4</ele>
        <time>2021-07-05 17:27:53</time>
      </trkpt>
      <trkpt lat="28.07938" lon="-14.29713">
        <ele>53.8</ele>
        <time>2021-07-05 17:27:54</time>
      </trkpt>
      <trkpt lat="28.07941" lon="-14.2972">
        <ele>53</ele>
        <time>2021-07-05 17:27:55</time>
      </trkpt>
      <trkpt lat="28.07944" lon="-14.29727">
        <ele>53</ele>
        <time>2021-07-05 17:27:56</time>
      </trkpt>
      <trkpt lat="28.07948" lon="-14.29733">
        <ele>52.6</ele>
        <time>2021-07-05 17:27:57</time>
      </trkpt>
      <trkpt lat="28.07951" lon="-14.29739">
        <ele>52.4</ele>
        <time>2021-07-05 17:27:58</time>
      </trkpt>
      <trkpt lat="28.07954" lon="-14.29745">
        <ele>52.4</ele>
        <time>2021-07-05 17:27:59</time>
      </trkpt>
      <trkpt lat="28.07957" lon="-14.29751">
        <ele>52</ele>
        <time>2021-07-05 17:28:00</time>
      </trkpt>
      <trkpt lat="28.0796" lon="-14.29756">
        <ele>52</ele>
        <time>2021-07-05 17:28:01</time>
      </trkpt>
      <trkpt lat="28.07962" lon="-14.29761">
        <ele>52</ele>
        <time>2021-07-05 17:28:02</time>
      </trkpt>
      <trkpt lat="28.07965" lon="-14.29767">
        <ele>51.8</ele>
        <time>2021-07-05 17:28:03</time>
      </trkpt>
      <trkpt lat="28.07968" lon="-14.29772">
        <ele>51.8</ele>
        <time>2021-07-05 17:28:04</time>
      </trkpt>
      <trkpt lat="28.07972" lon="-14.29777">
        <ele>51.8</ele>
        <time>2021-07-05 17:28:05</time>
      </trkpt>
      <trkpt lat="28.07974" lon="-14.29781">
        <ele>51.8</ele>
        <time>2021-07-05 17:28:06</time>
      </trkpt>
      <trkpt lat="28.07977" lon="-14.29786">
        <ele>51.8</ele>
        <time>2021-07-05 17:28:07</time>
      </trkpt>
      <trkpt lat="28.07979" lon="-14.29791">
        <ele>51.8</ele>
        <time>2021-07-05 17:28:08</time>
      </trkpt>
      <trkpt lat="28.07982" lon="-14.29796">
        <ele>51.8</ele>
        <time>2021-07-05 17:28:09</time>
      </trkpt>
      <trkpt lat="28.07984" lon="-14.298">
        <ele>51.8</ele>
        <time>2021-07-05 17:28:10</time>
      </trkpt>
      <trkpt lat="28.07987" lon="-14.29804">
        <ele>51.8</ele>
        <time>2021-07-05 17:28:11</time>
      </trkpt>
      <trkpt lat="28.07989" lon="-14.29808">
        <ele>51.8</ele>
        <time>2021-07-05 17:28:12</time>
      </trkpt>
      <trkpt lat="28.07991" lon="-14.29813">
        <ele>51.8</ele>
        <time>2021-07-05 17:28:13</time>
      </trkpt>
      <trkpt lat="28.07994" lon="-14.29816">
        <ele>51.8</ele>
        <time>2021-07-05 17:28:14</time>
      </trkpt>
      <trkpt lat="28.07996" lon="-14.29821">
        <ele>51.8</ele>
        <time>2021-07-05 17:28:15</time>
      </trkpt>
      <trkpt lat="28.07998" lon="-14.29825">
        <ele>51.6</ele>
        <time>2021-07-05 17:28:16</time>
      </trkpt>
      <trkpt lat="28.08" lon="-14.29829">
        <ele>51.6</ele>
        <time>2021-07-05 17:28:17</time>
      </trkpt>
      <trkpt lat="28.08003" lon="-14.29833">
        <ele>51.6</ele>
        <time>2021-07-05 17:28:18</time>
      </trkpt>
      <trkpt lat="28.08005" lon="-14.29837">
        <ele>51.6</ele>
        <time>2021-07-05 17:28:19</time>
      </trkpt>
      <trkpt lat="28.08007" lon="-14.29842">
        <ele>51.6</ele>
        <time>2021-07-05 17:28:20</time>
      </trkpt>
      <trkpt lat="28.0801" lon="-14.29845">
        <ele>51.6</ele>
        <time>2021-07-05 17:28:21</time>
      </trkpt>
      <trkpt lat="28.08012" lon="-14.29849">
        <ele>51.6</ele>
        <time>2021-07-05 17:28:22</time>
      </trkpt>
      <trkpt lat="28.08014" lon="-14.29854">
        <ele>51.6</ele>
        <time>2021-07-05 17:28:23</time>
      </trkpt>
      <trkpt lat="28.08017" lon="-14.29858">
        <ele>51.6</ele>
        <time>2021-07-05 17:28:24</time>
      </trkpt>
      <trkpt lat="28.08019" lon="-14.29862">
        <ele>51.6</ele>
        <time>2021-07-05 17:28:25</time>
      </trkpt>
      <trkpt lat="28.08021" lon="-14.29866">
        <ele>51.8</ele>
        <time>2021-07-05 17:28:26</time>
      </trkpt>
      <trkpt lat="28.08023" lon="-14.29871">
        <ele>51.8</ele>
        <time>2021-07-05 17:28:27</time>
      </trkpt>
      <trkpt lat="28.08026" lon="-14.29875">
        <ele>51.8</ele>
        <time>2021-07-05 17:28:28</time>
      </trkpt>
      <trkpt lat="28.08028" lon="-14.29879">
        <ele>51.6</ele>
        <time>2021-07-05 17:28:29</time>
      </trkpt>
      <trkpt lat="28.0803" lon="-14.29883">
        <ele>51.6</ele>
        <time>2021-07-05 17:28:30</time>
      </trkpt>
      <trkpt lat="28.08033" lon="-14.29888">
        <ele>51.6</ele>
        <time>2021-07-05 17:28:31</time>
      </trkpt>
      <trkpt lat="28.08035" lon="-14.29892">
        <ele>51.6</ele>
        <time>2021-07-05 17:28:32</time>
      </trkpt>
      <trkpt lat="28.08037" lon="-14.29896">
        <ele>51.6</ele>
        <time>2021-07-05 17:28:33</time>
      </trkpt>
      <trkpt lat="28.0804" lon="-14.29901">
        <ele>51.6</ele>
        <time>2021-07-05 17:28:34</time>
      </trkpt>
      <trkpt lat="28.08042" lon="-14.29905">
        <ele>51.8</ele>
        <time>2021-07-05 17:28:35</time>
      </trkpt>
      <trkpt lat="28.08044" lon="-14.29909">
        <ele>51.8</ele>
        <time>2021-07-05 17:28:36</time>
      </trkpt>
      <trkpt lat="28.08047" lon="-14.29913">
        <ele>52</ele>
        <time>2021-07-05 17:28:37</time>
      </trkpt>
      <trkpt lat="28.08049" lon="-14.29917">
        <ele>52</ele>
        <time>2021-07-05 17:28:38</time>
      </trkpt>
      <trkpt lat="28.08051" lon="-14.29922">
        <ele>52</ele>
        <time>2021-07-05 17:28:39</time>
      </trkpt>
      <trkpt lat="28.08053" lon="-14.29925">
        <ele>52</ele>
        <time>2021-07-05 17:28:40</time>
      </trkpt>
      <trkpt lat="28.08055" lon="-14.2993">
        <ele>52</ele>
        <time>2021-07-05 17:28:41</time>
      </trkpt>
      <trkpt lat="28.08057" lon="-14.29934">
        <ele>52</ele>
        <time>2021-07-05 17:28:42</time>
      </trkpt>
      <trkpt lat="28.08059" lon="-14.29937">
        <ele>51.8</ele>
        <time>2021-07-05 17:28:43</time>
      </trkpt>
      <trkpt lat="28.08061" lon="-14.29941">
        <ele>51.8</ele>
        <time>2021-07-05 17:28:44</time>
      </trkpt>
      <trkpt lat="28.08063" lon="-14.29945">
        <ele>51.4</ele>
        <time>2021-07-05 17:28:45</time>
      </trkpt>
      <trkpt lat="28.08065" lon="-14.29949">
        <ele>51.4</ele>
        <time>2021-07-05 17:28:46</time>
      </trkpt>
      <trkpt lat="28.08067" lon="-14.29953">
        <ele>51.4</ele>
        <time>2021-07-05 17:28:47</time>
      </trkpt>
      <trkpt lat="28.0807" lon="-14.29956">
        <ele>51.2</ele>
        <time>2021-07-05 17:28:48</time>
      </trkpt>
      <trkpt lat="28.08072" lon="-14.2996">
        <ele>51.2</ele>
        <time>2021-07-05 17:28:49</time>
      </trkpt>
      <trkpt lat="28.08074" lon="-14.29964">
        <ele>51.2</ele>
        <time>2021-07-05 17:28:50</time>
      </trkpt>
      <trkpt lat="28.08076" lon="-14.29967">
        <ele>51.2</ele>
        <time>2021-07-05 17:28:51</time>
      </trkpt>
      <trkpt lat="28.08078" lon="-14.29971">
        <ele>51.6</ele>
        <time>2021-07-05 17:28:52</time>
      </trkpt>
      <trkpt lat="28.0808" lon="-14.29974">
        <ele>51.6</ele>
        <time>2021-07-05 17:28:53</time>
      </trkpt>
      <trkpt lat="28.08082" lon="-14.29977">
        <ele>51.6</ele>
        <time>2021-07-05 17:28:54</time>
      </trkpt>
      <trkpt lat="28.08083" lon="-14.2998">
        <ele>51.4</ele>
        <time>2021-07-05 17:28:55</time>
      </trkpt>
      <trkpt lat="28.08085" lon="-14.29983">
        <ele>51.4</ele>
        <time>2021-07-05 17:28:56</time>
      </trkpt>
      <trkpt lat="28.08087" lon="-14.29986">
        <ele>51.4</ele>
        <time>2021-07-05 17:28:57</time>
      </trkpt>
      <trkpt lat="28.08088" lon="-14.29989">
        <ele>51.4</ele>
        <time>2021-07-05 17:28:58</time>
      </trkpt>
      <trkpt lat="28.0809" lon="-14.29992">
        <ele>51.4</ele>
        <time>2021-07-05 17:28:59</time>
      </trkpt>
      <trkpt lat="28.08092" lon="-14.29996">
        <ele>51.4</ele>
        <time>2021-07-05 17:29:00</time>
      </trkpt>
      <trkpt lat="28.08094" lon="-14.29999">
        <ele>51.4</ele>
        <time>2021-07-05 17:29:01</time>
      </trkpt>
      <trkpt lat="28.08095" lon="-14.30002">
        <ele>51.4</ele>
        <time>2021-07-05 17:29:02</time>
      </trkpt>
      <trkpt lat="28.08098" lon="-14.30005">
        <ele>51.4</ele>
        <time>2021-07-05 17:29:03</time>
      </trkpt>
      <trkpt lat="28.081" lon="-14.30008">
        <ele>51.6</ele>
        <time>2021-07-05 17:29:04</time>
      </trkpt>
      <trkpt lat="28.08102" lon="-14.30011">
        <ele>51.6</ele>
        <time>2021-07-05 17:29:05</time>
      </trkpt>
      <trkpt lat="28.08104" lon="-14.30013">
        <ele>51.8</ele>
        <time>2021-07-05 17:29:06</time>
      </trkpt>
      <trkpt lat="28.08106" lon="-14.30016">
        <ele>51.8</ele>
        <time>2021-07-05 17:29:07</time>
      </trkpt>
      <trkpt lat="28.08107" lon="-14.30019">
        <ele>51.8</ele>
        <time>2021-07-05 17:29:08</time>
      </trkpt>
      <trkpt lat="28.08109" lon="-14.30021">
        <ele>51.8</ele>
        <time>2021-07-05 17:29:09</time>
      </trkpt>
      <trkpt lat="28.08111" lon="-14.30024">
        <ele>51.8</ele>
        <time>2021-07-05 17:29:10</time>
      </trkpt>
      <trkpt lat="28.08113" lon="-14.30026">
        <ele>51.8</ele>
        <time>2021-07-05 17:29:11</time>
      </trkpt>
      <trkpt lat="28.08116" lon="-14.30028">
        <ele>51.8</ele>
        <time>2021-07-05 17:29:12</time>
      </trkpt>
      <trkpt lat="28.08118" lon="-14.30031">
        <ele>52.2</ele>
        <time>2021-07-05 17:29:13</time>
      </trkpt>
      <trkpt lat="28.0812" lon="-14.30033">
        <ele>52.8</ele>
        <time>2021-07-05 17:29:14</time>
      </trkpt>
      <trkpt lat="28.08123" lon="-14.30035">
        <ele>52.8</ele>
        <time>2021-07-05 17:29:15</time>
      </trkpt>
      <trkpt lat="28.08125" lon="-14.30037">
        <ele>53.2</ele>
        <time>2021-07-05 17:29:16</time>
      </trkpt>
      <trkpt lat="28.08126" lon="-14.30039">
        <ele>53.4</ele>
        <time>2021-07-05 17:29:17</time>
      </trkpt>
      <trkpt lat="28.08128" lon="-14.30042">
        <ele>53.8</ele>
        <time>2021-07-05 17:29:18</time>
      </trkpt>
      <trkpt lat="28.0813" lon="-14.30044">
        <ele>54.2</ele>
        <time>2021-07-05 17:29:19</time>
      </trkpt>
      <trkpt lat="28.08133" lon="-14.30046">
        <ele>54.2</ele>
        <time>2021-07-05 17:29:20</time>
      </trkpt>
      <trkpt lat="28.08135" lon="-14.30049">
        <ele>54.6</ele>
        <time>2021-07-05 17:29:21</time>
      </trkpt>
      <trkpt lat="28.08137" lon="-14.30051">
        <ele>54.8</ele>
        <time>2021-07-05 17:29:22</time>
      </trkpt>
      <trkpt lat="28.08139" lon="-14.30052">
        <ele>54.8</ele>
        <time>2021-07-05 17:29:23</time>
      </trkpt>
      <trkpt lat="28.08141" lon="-14.30054">
        <ele>55.2</ele>
        <time>2021-07-05 17:29:24</time>
      </trkpt>
      <trkpt lat="28.08142" lon="-14.30056">
        <ele>55.6</ele>
        <time>2021-07-05 17:29:25</time>
      </trkpt>
      <trkpt lat="28.08144" lon="-14.30057">
        <ele>55.8</ele>
        <time>2021-07-05 17:29:26</time>
      </trkpt>
      <trkpt lat="28.08146" lon="-14.30059">
        <ele>56.2</ele>
        <time>2021-07-05 17:29:27</time>
      </trkpt>
      <trkpt lat="28.08148" lon="-14.30061">
        <ele>56.2</ele>
        <time>2021-07-05 17:29:28</time>
      </trkpt>
      <trkpt lat="28.0815" lon="-14.30063">
        <ele>56.4</ele>
        <time>2021-07-05 17:29:29</time>
      </trkpt>
      <trkpt lat="28.08152" lon="-14.30064">
        <ele>56.4</ele>
        <time>2021-07-05 17:29:30</time>
      </trkpt>
      <trkpt lat="28.08154" lon="-14.30066">
        <ele>56.4</ele>
        <time>2021-07-05 17:29:31</time>
      </trkpt>
      <trkpt lat="28.08156" lon="-14.30068">
        <ele>56.4</ele>
        <time>2021-07-05 17:29:32</time>
      </trkpt>
      <trkpt lat="28.08158" lon="-14.3007">
        <ele>56.4</ele>
        <time>2021-07-05 17:29:33</time>
      </trkpt>
      <trkpt lat="28.0816" lon="-14.30072">
        <ele>56.4</ele>
        <time>2021-07-05 17:29:34</time>
      </trkpt>
      <trkpt lat="28.08162" lon="-14.30074">
        <ele>56.6</ele>
        <time>2021-07-05 17:29:35</time>
      </trkpt>
      <trkpt lat="28.08165" lon="-14.30076">
        <ele>56.6</ele>
        <time>2021-07-05 17:29:36</time>
      </trkpt>
      <trkpt lat="28.08167" lon="-14.30078">
        <ele>56.6</ele>
        <time>2021-07-05 17:29:37</time>
      </trkpt>
      <trkpt lat="28.08169" lon="-14.3008">
        <ele>56.6</ele>
        <time>2021-07-05 17:29:38</time>
      </trkpt>
      <trkpt lat="28.08171" lon="-14.30082">
        <ele>56.6</ele>
        <time>2021-07-05 17:29:39</time>
      </trkpt>
      <trkpt lat="28.08174" lon="-14.30084">
        <ele>56.6</ele>
        <time>2021-07-05 17:29:40</time>
      </trkpt>
      <trkpt lat="28.08176" lon="-14.30086">
        <ele>56.6</ele>
        <time>2021-07-05 17:29:41</time>
      </trkpt>
      <trkpt lat="28.08178" lon="-14.30088">
        <ele>56.6</ele>
        <time>2021-07-05 17:29:42</time>
      </trkpt>
      <trkpt lat="28.08181" lon="-14.3009">
        <ele>56.6</ele>
        <time>2021-07-05 17:29:43</time>
      </trkpt>
      <trkpt lat="28.08183" lon="-14.30092">
        <ele>56.6</ele>
        <time>2021-07-05 17:29:44</time>
      </trkpt>
      <trkpt lat="28.08185" lon="-14.30094">
        <ele>56.8</ele>
        <time>2021-07-05 17:29:45</time>
      </trkpt>
      <trkpt lat="28.08188" lon="-14.30096">
        <ele>56.8</ele>
        <time>2021-07-05 17:29:46</time>
      </trkpt>
      <trkpt lat="28.0819" lon="-14.30098">
        <ele>56.8</ele>
        <time>2021-07-05 17:29:47</time>
      </trkpt>
      <trkpt lat="28.08193" lon="-14.30099">
        <ele>56.8</ele>
        <time>2021-07-05 17:29:48</time>
      </trkpt>
      <trkpt lat="28.08195" lon="-14.30101">
        <ele>56.8</ele>
        <time>2021-07-05 17:29:49</time>
      </trkpt>
      <trkpt lat="28.08197" lon="-14.30103">
        <ele>56.8</ele>
        <time>2021-07-05 17:29:50</time>
      </trkpt>
      <trkpt lat="28.082" lon="-14.30105">
        <ele>56.8</ele>
        <time>2021-07-05 17:29:51</time>
      </trkpt>
      <trkpt lat="28.08202" lon="-14.30107">
        <ele>56.8</ele>
        <time>2021-07-05 17:29:52</time>
      </trkpt>
      <trkpt lat="28.08204" lon="-14.30109">
        <ele>56.8</ele>
        <time>2021-07-05 17:29:53</time>
      </trkpt>
      <trkpt lat="28.08207" lon="-14.30111">
        <ele>56.8</ele>
        <time>2021-07-05 17:29:54</time>
      </trkpt>
      <trkpt lat="28.08209" lon="-14.30113">
        <ele>56.8</ele>
        <time>2021-07-05 17:29:55</time>
      </trkpt>
      <trkpt lat="28.08211" lon="-14.30115">
        <ele>56.8</ele>
        <time>2021-07-05 17:29:56</time>
      </trkpt>
      <trkpt lat="28.08213" lon="-14.30117">
        <ele>57.2</ele>
        <time>2021-07-05 17:29:57</time>
      </trkpt>
      <trkpt lat="28.08215" lon="-14.30119">
        <ele>57.2</ele>
        <time>2021-07-05 17:29:58</time>
      </trkpt>
      <trkpt lat="28.08218" lon="-14.30121">
        <ele>57.2</ele>
        <time>2021-07-05 17:29:59</time>
      </trkpt>
      <trkpt lat="28.0822" lon="-14.30123">
        <ele>57.4</ele>
        <time>2021-07-05 17:30:00</time>
      </trkpt>
      <trkpt lat="28.08222" lon="-14.30126">
        <ele>57.4</ele>
        <time>2021-07-05 17:30:01</time>
      </trkpt>
      <trkpt lat="28.08224" lon="-14.30128">
        <ele>57.6</ele>
        <time>2021-07-05 17:30:02</time>
      </trkpt>
      <trkpt lat="28.08226" lon="-14.3013">
        <ele>57.6</ele>
        <time>2021-07-05 17:30:03</time>
      </trkpt>
      <trkpt lat="28.08228" lon="-14.30132">
        <ele>57.6</ele>
        <time>2021-07-05 17:30:04</time>
      </trkpt>
      <trkpt lat="28.0823" lon="-14.30134">
        <ele>57.4</ele>
        <time>2021-07-05 17:30:05</time>
      </trkpt>
      <trkpt lat="28.08231" lon="-14.30137">
        <ele>57.2</ele>
        <time>2021-07-05 17:30:06</time>
      </trkpt>
      <trkpt lat="28.08233" lon="-14.30139">
        <ele>57.2</ele>
        <time>2021-07-05 17:30:07</time>
      </trkpt>
      <trkpt lat="28.08235" lon="-14.30141">
        <ele>57.2</ele>
        <time>2021-07-05 17:30:08</time>
      </trkpt>
      <trkpt lat="28.08236" lon="-14.30144">
        <ele>57.2</ele>
        <time>2021-07-05 17:30:09</time>
      </trkpt>
      <trkpt lat="28.08238" lon="-14.30147">
        <ele>57.2</ele>
        <time>2021-07-05 17:30:10</time>
      </trkpt>
      <trkpt lat="28.08239" lon="-14.3015">
        <ele>57.2</ele>
        <time>2021-07-05 17:30:11</time>
      </trkpt>
      <trkpt lat="28.0824" lon="-14.30152">
        <ele>57.2</ele>
        <time>2021-07-05 17:30:12</time>
      </trkpt>
      <trkpt lat="28.08242" lon="-14.30155">
        <ele>57.4</ele>
        <time>2021-07-05 17:30:13</time>
      </trkpt>
      <trkpt lat="28.08243" lon="-14.30158">
        <ele>57.8</ele>
        <time>2021-07-05 17:30:14</time>
      </trkpt>
      <trkpt lat="28.08243" lon="-14.30161">
        <ele>58</ele>
        <time>2021-07-05 17:30:15</time>
      </trkpt>
      <trkpt lat="28.08244" lon="-14.30163">
        <ele>58.4</ele>
        <time>2021-07-05 17:30:16</time>
      </trkpt>
      <trkpt lat="28.08244" lon="-14.30166">
        <ele>58.8</ele>
        <time>2021-07-05 17:30:17</time>
      </trkpt>
      <trkpt lat="28.08245" lon="-14.3017">
        <ele>59.2</ele>
        <time>2021-07-05 17:30:18</time>
      </trkpt>
      <trkpt lat="28.08244" lon="-14.30173">
        <ele>59.6</ele>
        <time>2021-07-05 17:30:19</time>
      </trkpt>
      <trkpt lat="28.08244" lon="-14.30176">
        <ele>60</ele>
        <time>2021-07-05 17:30:20</time>
      </trkpt>
      <trkpt lat="28.08244" lon="-14.3018">
        <ele>60.4</ele>
        <time>2021-07-05 17:30:21</time>
      </trkpt>
      <trkpt lat="28.08243" lon="-14.30183">
        <ele>60.8</ele>
        <time>2021-07-05 17:30:22</time>
      </trkpt>
      <trkpt lat="28.08243" lon="-14.30187">
        <ele>61.2</ele>
        <time>2021-07-05 17:30:23</time>
      </trkpt>
      <trkpt lat="28.08242" lon="-14.3019">
        <ele>61.6</ele>
        <time>2021-07-05 17:30:24</time>
      </trkpt>
      <trkpt lat="28.08241" lon="-14.30194">
        <ele>62</ele>
        <time>2021-07-05 17:30:25</time>
      </trkpt>
      <trkpt lat="28.08239" lon="-14.30197">
        <ele>62.4</ele>
        <time>2021-07-05 17:30:26</time>
      </trkpt>
      <trkpt lat="28.08238" lon="-14.302">
        <ele>62.8</ele>
        <time>2021-07-05 17:30:27</time>
      </trkpt>
      <trkpt lat="28.08236" lon="-14.30203">
        <ele>63</ele>
        <time>2021-07-05 17:30:28</time>
      </trkpt>
      <trkpt lat="28.08234" lon="-14.30206">
        <ele>63.2</ele>
        <time>2021-07-05 17:30:29</time>
      </trkpt>
      <trkpt lat="28.08231" lon="-14.30209">
        <ele>63.2</ele>
        <time>2021-07-05 17:30:30</time>
      </trkpt>
      <trkpt lat="28.08229" lon="-14.30211">
        <ele>63.2</ele>
        <time>2021-07-05 17:30:31</time>
      </trkpt>
      <trkpt lat="28.08226" lon="-14.30213">
        <ele>63.2</ele>
        <time>2021-07-05 17:30:32</time>
      </trkpt>
      <trkpt lat="28.08222" lon="-14.30215">
        <ele>63.2</ele>
        <time>2021-07-05 17:30:33</time>
      </trkpt>
      <trkpt lat="28.08219" lon="-14.30217">
        <ele>63.2</ele>
        <time>2021-07-05 17:30:34</time>
      </trkpt>
      <trkpt lat="28.08216" lon="-14.30218">
        <ele>62.8</ele>
        <time>2021-07-05 17:30:35</time>
      </trkpt>
      <trkpt lat="28.08212" lon="-14.30218">
        <ele>62.6</ele>
        <time>2021-07-05 17:30:36</time>
      </trkpt>
      <trkpt lat="28.08209" lon="-14.30219">
        <ele>62</ele>
        <time>2021-07-05 17:30:37</time>
      </trkpt>
      <trkpt lat="28.08205" lon="-14.3022">
        <ele>62</ele>
        <time>2021-07-05 17:30:38</time>
      </trkpt>
      <trkpt lat="28.082" lon="-14.3022">
        <ele>61.8</ele>
        <time>2021-07-05 17:30:39</time>
      </trkpt>
      <trkpt lat="28.08196" lon="-14.30219">
        <ele>61.6</ele>
        <time>2021-07-05 17:30:40</time>
      </trkpt>
      <trkpt lat="28.08192" lon="-14.30219">
        <ele>61.6</ele>
        <time>2021-07-05 17:30:41</time>
      </trkpt>
      <trkpt lat="28.08188" lon="-14.30218">
        <ele>61.2</ele>
        <time>2021-07-05 17:30:42</time>
      </trkpt>
      <trkpt lat="28.08183" lon="-14.30216">
        <ele>61.2</ele>
        <time>2021-07-05 17:30:43</time>
      </trkpt>
      <trkpt lat="28.08179" lon="-14.30215">
        <ele>61</ele>
        <time>2021-07-05 17:30:44</time>
      </trkpt>
      <trkpt lat="28.08175" lon="-14.30213">
        <ele>61</ele>
        <time>2021-07-05 17:30:45</time>
      </trkpt>
      <trkpt lat="28.0817" lon="-14.30213">
        <ele>60.8</ele>
        <time>2021-07-05 17:30:46</time>
      </trkpt>
      <trkpt lat="28.08166" lon="-14.30211">
        <ele>60.8</ele>
        <time>2021-07-05 17:30:47</time>
      </trkpt>
      <trkpt lat="28.08163" lon="-14.3021">
        <ele>60.8</ele>
        <time>2021-07-05 17:30:48</time>
      </trkpt>
      <trkpt lat="28.08159" lon="-14.30209">
        <ele>60.8</ele>
        <time>2021-07-05 17:30:49</time>
      </trkpt>
      <trkpt lat="28.08156" lon="-14.30208">
        <ele>61</ele>
        <time>2021-07-05 17:30:50</time>
      </trkpt>
      <trkpt lat="28.08152" lon="-14.30207">
        <ele>61</ele>
        <time>2021-07-05 17:30:51</time>
      </trkpt>
      <trkpt lat="28.08149" lon="-14.30206">
        <ele>61</ele>
        <time>2021-07-05 17:30:52</time>
      </trkpt>
      <trkpt lat="28.08146" lon="-14.30204">
        <ele>61.4</ele>
        <time>2021-07-05 17:30:53</time>
      </trkpt>
      <trkpt lat="28.08142" lon="-14.30203">
        <ele>61.6</ele>
        <time>2021-07-05 17:30:54</time>
      </trkpt>
      <trkpt lat="28.08139" lon="-14.30202">
        <ele>61.6</ele>
        <time>2021-07-05 17:30:55</time>
      </trkpt>
      <trkpt lat="28.08136" lon="-14.30201">
        <ele>61.6</ele>
        <time>2021-07-05 17:30:56</time>
      </trkpt>
      <trkpt lat="28.08132" lon="-14.302">
        <ele>61.6</ele>
        <time>2021-07-05 17:30:57</time>
      </trkpt>
      <trkpt lat="28.08129" lon="-14.30198">
        <ele>61.8</ele>
        <time>2021-07-05 17:30:58</time>
      </trkpt>
      <trkpt lat="28.08125" lon="-14.30197">
        <ele>61.8</ele>
        <time>2021-07-05 17:30:59</time>
      </trkpt>
      <trkpt lat="28.08122" lon="-14.30196">
        <ele>61.8</ele>
        <time>2021-07-05 17:31:00</time>
      </trkpt>
      <trkpt lat="28.08119" lon="-14.30196">
        <ele>62.2</ele>
        <time>2021-07-05 17:31:01</time>
      </trkpt>
      <trkpt lat="28.08116" lon="-14.30195">
        <ele>62.2</ele>
        <time>2021-07-05 17:31:02</time>
      </trkpt>
      <trkpt lat="28.08113" lon="-14.30194">
        <ele>62.4</ele>
        <time>2021-07-05 17:31:03</time>
      </trkpt>
      <trkpt lat="28.0811" lon="-14.30193">
        <ele>62.4</ele>
        <time>2021-07-05 17:31:04</time>
      </trkpt>
      <trkpt lat="28.08107" lon="-14.30192">
        <ele>63.2</ele>
        <time>2021-07-05 17:31:05</time>
      </trkpt>
      <trkpt lat="28.08105" lon="-14.30191">
        <ele>63.2</ele>
        <time>2021-07-05 17:31:06</time>
      </trkpt>
      <trkpt lat="28.08102" lon="-14.3019">
        <ele>63.6</ele>
        <time>2021-07-05 17:31:07</time>
      </trkpt>
      <trkpt lat="28.08099" lon="-14.30189">
        <ele>64</ele>
        <time>2021-07-05 17:31:08</time>
      </trkpt>
      <trkpt lat="28.08097" lon="-14.30189">
        <ele>64.6</ele>
        <time>2021-07-05 17:31:09</time>
      </trkpt>
      <trkpt lat="28.08094" lon="-14.30188">
        <ele>64.6</ele>
        <time>2021-07-05 17:31:10</time>
      </trkpt>
      <trkpt lat="28.08091" lon="-14.30187">
        <ele>65</ele>
        <time>2021-07-05 17:31:11</time>
      </trkpt>
      <trkpt lat="28.08088" lon="-14.30187">
        <ele>65.6</ele>
        <time>2021-07-05 17:31:12</time>
      </trkpt>
      <trkpt lat="28.08086" lon="-14.30186">
        <ele>66</ele>
        <time>2021-07-05 17:31:13</time>
      </trkpt>
      <trkpt lat="28.08083" lon="-14.30184">
        <ele>66.4</ele>
        <time>2021-07-05 17:31:14</time>
      </trkpt>
      <trkpt lat="28.0808" lon="-14.30183">
        <ele>67.2</ele>
        <time>2021-07-05 17:31:15</time>
      </trkpt>
      <trkpt lat="28.08077" lon="-14.30182">
        <ele>67.2</ele>
        <time>2021-07-05 17:31:16</time>
      </trkpt>
      <trkpt lat="28.08074" lon="-14.30181">
        <ele>68.2</ele>
        <time>2021-07-05 17:31:17</time>
      </trkpt>
      <trkpt lat="28.08071" lon="-14.3018">
        <ele>68.2</ele>
        <time>2021-07-05 17:31:18</time>
      </trkpt>
      <trkpt lat="28.08068" lon="-14.3018">
        <ele>68.6</ele>
        <time>2021-07-05 17:31:19</time>
      </trkpt>
      <trkpt lat="28.08065" lon="-14.30179">
        <ele>69</ele>
        <time>2021-07-05 17:31:20</time>
      </trkpt>
      <trkpt lat="28.08062" lon="-14.30178">
        <ele>69.2</ele>
        <time>2021-07-05 17:31:21</time>
      </trkpt>
      <trkpt lat="28.08059" lon="-14.30177">
        <ele>69.6</ele>
        <time>2021-07-05 17:31:22</time>
      </trkpt>
      <trkpt lat="28.08056" lon="-14.30176">
        <ele>69.6</ele>
        <time>2021-07-05 17:31:23</time>
      </trkpt>
      <trkpt lat="28.08054" lon="-14.30175">
        <ele>70.2</ele>
        <time>2021-07-05 17:31:24</time>
      </trkpt>
      <trkpt lat="28.08051" lon="-14.30174">
        <ele>70.2</ele>
        <time>2021-07-05 17:31:25</time>
      </trkpt>
      <trkpt lat="28.08048" lon="-14.30173">
        <ele>70.4</ele>
        <time>2021-07-05 17:31:26</time>
      </trkpt>
      <trkpt lat="28.08045" lon="-14.30172">
        <ele>70.6</ele>
        <time>2021-07-05 17:31:27</time>
      </trkpt>
      <trkpt lat="28.08043" lon="-14.30172">
        <ele>70.6</ele>
        <time>2021-07-05 17:31:28</time>
      </trkpt>
      <trkpt lat="28.0804" lon="-14.30171">
        <ele>71</ele>
        <time>2021-07-05 17:31:29</time>
      </trkpt>
      <trkpt lat="28.08037" lon="-14.3017">
        <ele>71</ele>
        <time>2021-07-05 17:31:30</time>
      </trkpt>
      <trkpt lat="28.08034" lon="-14.30169">
        <ele>71.4</ele>
        <time>2021-07-05 17:31:31</time>
      </trkpt>
      <trkpt lat="28.08032" lon="-14.30169">
        <ele>71.4</ele>
        <time>2021-07-05 17:31:32</time>
      </trkpt>
      <trkpt lat="28.08029" lon="-14.30168">
        <ele>71.8</ele>
        <time>2021-07-05 17:31:33</time>
      </trkpt>
      <trkpt lat="28.08026" lon="-14.30167">
        <ele>71.8</ele>
        <time>2021-07-05 17:31:34</time>
      </trkpt>
      <trkpt lat="28.08023" lon="-14.30166">
        <ele>72.2</ele>
        <time>2021-07-05 17:31:35</time>
      </trkpt>
      <trkpt lat="28.0802" lon="-14.30166">
        <ele>72.4</ele>
        <time>2021-07-05 17:31:36</time>
      </trkpt>
      <trkpt lat="28.08017" lon="-14.30165">
        <ele>72.8</ele>
        <time>2021-07-05 17:31:37</time>
      </trkpt>
      <trkpt lat="28.08014" lon="-14.30165">
        <ele>73</ele>
        <time>2021-07-05 17:31:38</time>
      </trkpt>
      <trkpt lat="28.08011" lon="-14.30165">
        <ele>73</ele>
        <time>2021-07-05 17:31:39</time>
      </trkpt>
      <trkpt lat="28.08008" lon="-14.30165">
        <ele>73.2</ele>
        <time>2021-07-05 17:31:40</time>
      </trkpt>
      <trkpt lat="28.08005" lon="-14.30165">
        <ele>73.4</ele>
        <time>2021-07-05 17:31:41</time>
      </trkpt>
      <trkpt lat="28.08002" lon="-14.30165">
        <ele>73.8</ele>
        <time>2021-07-05 17:31:42</time>
      </trkpt>
      <trkpt lat="28.07999" lon="-14.30165">
        <ele>74</ele>
        <time>2021-07-05 17:31:43</time>
      </trkpt>
      <trkpt lat="28.07996" lon="-14.30165">
        <ele>74.2</ele>
        <time>2021-07-05 17:31:44</time>
      </trkpt>
      <trkpt lat="28.07993" lon="-14.30166">
        <ele>74.2</ele>
        <time>2021-07-05 17:31:45</time>
      </trkpt>
      <trkpt lat="28.0799" lon="-14.30166">
        <ele>74.2</ele>
        <time>2021-07-05 17:31:46</time>
      </trkpt>
      <trkpt lat="28.07988" lon="-14.30167">
        <ele>74.6</ele>
        <time>2021-07-05 17:31:47</time>
      </trkpt>
      <trkpt lat="28.07985" lon="-14.30168">
        <ele>74.8</ele>
        <time>2021-07-05 17:31:48</time>
      </trkpt>
      <trkpt lat="28.07982" lon="-14.30169">
        <ele>75.2</ele>
        <time>2021-07-05 17:31:49</time>
      </trkpt>
      <trkpt lat="28.07979" lon="-14.30169">
        <ele>75.2</ele>
        <time>2021-07-05 17:31:50</time>
      </trkpt>
      <trkpt lat="28.07976" lon="-14.3017">
        <ele>75.2</ele>
        <time>2021-07-05 17:31:51</time>
      </trkpt>
      <trkpt lat="28.07974" lon="-14.30171">
        <ele>75.4</ele>
        <time>2021-07-05 17:31:52</time>
      </trkpt>
      <trkpt lat="28.07971" lon="-14.30172">
        <ele>75.4</ele>
        <time>2021-07-05 17:31:53</time>
      </trkpt>
      <trkpt lat="28.07968" lon="-14.30173">
        <ele>75.8</ele>
        <time>2021-07-05 17:31:54</time>
      </trkpt>
      <trkpt lat="28.07965" lon="-14.30174">
        <ele>76</ele>
        <time>2021-07-05 17:31:55</time>
      </trkpt>
      <trkpt lat="28.07962" lon="-14.30175">
        <ele>76.2</ele>
        <time>2021-07-05 17:31:56</time>
      </trkpt>
      <trkpt lat="28.07959" lon="-14.30176">
        <ele>76.6</ele>
        <time>2021-07-05 17:31:57</time>
      </trkpt>
      <trkpt lat="28.07956" lon="-14.30177">
        <ele>76.6</ele>
        <time>2021-07-05 17:31:58</time>
      </trkpt>
      <trkpt lat="28.07953" lon="-14.30178">
        <ele>77</ele>
        <time>2021-07-05 17:31:59</time>
      </trkpt>
      <trkpt lat="28.07951" lon="-14.30179">
        <ele>77</ele>
        <time>2021-07-05 17:32:00</time>
      </trkpt>
      <trkpt lat="28.07948" lon="-14.3018">
        <ele>77.2</ele>
        <time>2021-07-05 17:32:01</time>
      </trkpt>
      <trkpt lat="28.07946" lon="-14.3018">
        <ele>77.2</ele>
        <time>2021-07-05 17:32:02</time>
      </trkpt>
      <trkpt lat="28.07943" lon="-14.30181">
        <ele>77.4</ele>
        <time>2021-07-05 17:32:03</time>
      </trkpt>
      <trkpt lat="28.07941" lon="-14.30182">
        <ele>77.8</ele>
        <time>2021-07-05 17:32:04</time>
      </trkpt>
      <trkpt lat="28.07938" lon="-14.30183">
        <ele>77.8</ele>
        <time>2021-07-05 17:32:05</time>
      </trkpt>
      <trkpt lat="28.07935" lon="-14.30185">
        <ele>77.8</ele>
        <time>2021-07-05 17:32:06</time>
      </trkpt>
      <trkpt lat="28.07933" lon="-14.30186">
        <ele>78.2</ele>
        <time>2021-07-05 17:32:07</time>
      </trkpt>
      <trkpt lat="28.0793" lon="-14.30186">
        <ele>78.2</ele>
        <time>2021-07-05 17:32:08</time>
      </trkpt>
      <trkpt lat="28.07927" lon="-14.30187">
        <ele>78.6</ele>
        <time>2021-07-05 17:32:09</time>
      </trkpt>
      <trkpt lat="28.07924" lon="-14.30188">
        <ele>78.6</ele>
        <time>2021-07-05 17:32:10</time>
      </trkpt>
      <trkpt lat="28.07922" lon="-14.30189">
        <ele>78.6</ele>
        <time>2021-07-05 17:32:11</time>
      </trkpt>
      <trkpt lat="28.07919" lon="-14.3019">
        <ele>79</ele>
        <time>2021-07-05 17:32:12</time>
      </trkpt>
      <trkpt lat="28.07916" lon="-14.30192">
        <ele>79.4</ele>
        <time>2021-07-05 17:32:13</time>
      </trkpt>
      <trkpt lat="28.07913" lon="-14.30193">
        <ele>79.4</ele>
        <time>2021-07-05 17:32:14</time>
      </trkpt>
      <trkpt lat="28.0791" lon="-14.30194">
        <ele>79.4</ele>
        <time>2021-07-05 17:32:15</time>
      </trkpt>
      <trkpt lat="28.07908" lon="-14.30195">
        <ele>79.6</ele>
        <time>2021-07-05 17:32:16</time>
      </trkpt>
      <trkpt lat="28.07905" lon="-14.30196">
        <ele>79.6</ele>
        <time>2021-07-05 17:32:17</time>
      </trkpt>
      <trkpt lat="28.07903" lon="-14.30197">
        <ele>79.8</ele>
        <time>2021-07-05 17:32:18</time>
      </trkpt>
      <trkpt lat="28.079" lon="-14.30197">
        <ele>80.2</ele>
        <time>2021-07-05 17:32:19</time>
      </trkpt>
      <trkpt lat="28.07897" lon="-14.30198">
        <ele>80.4</ele>
        <time>2021-07-05 17:32:20</time>
      </trkpt>
      <trkpt lat="28.07895" lon="-14.30199">
        <ele>80.8</ele>
        <time>2021-07-05 17:32:21</time>
      </trkpt>
      <trkpt lat="28.07892" lon="-14.30201">
        <ele>81</ele>
        <time>2021-07-05 17:32:22</time>
      </trkpt>
      <trkpt lat="28.0789" lon="-14.30202">
        <ele>81.4</ele>
        <time>2021-07-05 17:32:23</time>
      </trkpt>
      <trkpt lat="28.07887" lon="-14.30203">
        <ele>81.4</ele>
        <time>2021-07-05 17:32:24</time>
      </trkpt>
      <trkpt lat="28.07884" lon="-14.30205">
        <ele>82.2</ele>
        <time>2021-07-05 17:32:25</time>
      </trkpt>
      <trkpt lat="28.07882" lon="-14.30206">
        <ele>82.2</ele>
        <time>2021-07-05 17:32:26</time>
      </trkpt>
      <trkpt lat="28.07879" lon="-14.30208">
        <ele>82.6</ele>
        <time>2021-07-05 17:32:27</time>
      </trkpt>
      <trkpt lat="28.07876" lon="-14.3021">
        <ele>82.6</ele>
        <time>2021-07-05 17:32:28</time>
      </trkpt>
      <trkpt lat="28.07874" lon="-14.30212">
        <ele>82.6</ele>
        <time>2021-07-05 17:32:29</time>
      </trkpt>
      <trkpt lat="28.07871" lon="-14.30213">
        <ele>83</ele>
        <time>2021-07-05 17:32:30</time>
      </trkpt>
      <trkpt lat="28.07869" lon="-14.30214">
        <ele>83</ele>
        <time>2021-07-05 17:32:31</time>
      </trkpt>
      <trkpt lat="28.07866" lon="-14.30215">
        <ele>83.4</ele>
        <time>2021-07-05 17:32:32</time>
      </trkpt>
      <trkpt lat="28.07864" lon="-14.30217">
        <ele>83.4</ele>
        <time>2021-07-05 17:32:33</time>
      </trkpt>
      <trkpt lat="28.07862" lon="-14.30219">
        <ele>83.4</ele>
        <time>2021-07-05 17:32:34</time>
      </trkpt>
      <trkpt lat="28.0786" lon="-14.30221">
        <ele>83.8</ele>
        <time>2021-07-05 17:32:35</time>
      </trkpt>
      <trkpt lat="28.07859" lon="-14.30223">
        <ele>84.2</ele>
        <time>2021-07-05 17:32:36</time>
      </trkpt>
      <trkpt lat="28.07857" lon="-14.30225">
        <ele>84.6</ele>
        <time>2021-07-05 17:32:37</time>
      </trkpt>
      <trkpt lat="28.07855" lon="-14.30227">
        <ele>85</ele>
        <time>2021-07-05 17:32:38</time>
      </trkpt>
      <trkpt lat="28.07853" lon="-14.30229">
        <ele>85.6</ele>
        <time>2021-07-05 17:32:39</time>
      </trkpt>
      <trkpt lat="28.07851" lon="-14.30232">
        <ele>85.6</ele>
        <time>2021-07-05 17:32:40</time>
      </trkpt>
      <trkpt lat="28.07849" lon="-14.30234">
        <ele>85.6</ele>
        <time>2021-07-05 17:32:41</time>
      </trkpt>
      <trkpt lat="28.07847" lon="-14.30236">
        <ele>85.8</ele>
        <time>2021-07-05 17:32:42</time>
      </trkpt>
      <trkpt lat="28.07845" lon="-14.30238">
        <ele>86.2</ele>
        <time>2021-07-05 17:32:43</time>
      </trkpt>
      <trkpt lat="28.07844" lon="-14.30241">
        <ele>86.8</ele>
        <time>2021-07-05 17:32:44</time>
      </trkpt>
      <trkpt lat="28.07842" lon="-14.30243">
        <ele>86.8</ele>
        <time>2021-07-05 17:32:45</time>
      </trkpt>
      <trkpt lat="28.07841" lon="-14.30246">
        <ele>86.8</ele>
        <time>2021-07-05 17:32:46</time>
      </trkpt>
      <trkpt lat="28.07839" lon="-14.30248">
        <ele>86.8</ele>
        <time>2021-07-05 17:32:47</time>
      </trkpt>
      <trkpt lat="28.07838" lon="-14.3025">
        <ele>87</ele>
        <time>2021-07-05 17:32:48</time>
      </trkpt>
      <trkpt lat="28.07836" lon="-14.30253">
        <ele>87</ele>
        <time>2021-07-05 17:32:49</time>
      </trkpt>
      <trkpt lat="28.07835" lon="-14.30255">
        <ele>87</ele>
        <time>2021-07-05 17:32:50</time>
      </trkpt>
      <trkpt lat="28.07833" lon="-14.30257">
        <ele>87</ele>
        <time>2021-07-05 17:32:51</time>
      </trkpt>
      <trkpt lat="28.07832" lon="-14.3026">
        <ele>87</ele>
        <time>2021-07-05 17:32:52</time>
      </trkpt>
      <trkpt lat="28.07831" lon="-14.30262">
        <ele>86.8</ele>
        <time>2021-07-05 17:32:53</time>
      </trkpt>
      <trkpt lat="28.0783" lon="-14.30265">
        <ele>86.8</ele>
        <time>2021-07-05 17:32:54</time>
      </trkpt>
      <trkpt lat="28.07828" lon="-14.30267">
        <ele>86.8</ele>
        <time>2021-07-05 17:32:55</time>
      </trkpt>
      <trkpt lat="28.07827" lon="-14.3027">
        <ele>86.8</ele>
        <time>2021-07-05 17:32:56</time>
      </trkpt>
      <trkpt lat="28.07826" lon="-14.30273">
        <ele>86.8</ele>
        <time>2021-07-05 17:32:57</time>
      </trkpt>
      <trkpt lat="28.07825" lon="-14.30275">
        <ele>86.8</ele>
        <time>2021-07-05 17:32:58</time>
      </trkpt>
      <trkpt lat="28.07824" lon="-14.30278">
        <ele>86.8</ele>
        <time>2021-07-05 17:32:59</time>
      </trkpt>
      <trkpt lat="28.07824" lon="-14.3028">
        <ele>86.8</ele>
        <time>2021-07-05 17:33:00</time>
      </trkpt>
      <trkpt lat="28.07823" lon="-14.30282">
        <ele>87</ele>
        <time>2021-07-05 17:33:01</time>
      </trkpt>
      <trkpt lat="28.07823" lon="-14.30285">
        <ele>87</ele>
        <time>2021-07-05 17:33:02</time>
      </trkpt>
      <trkpt lat="28.07822" lon="-14.30288">
        <ele>87</ele>
        <time>2021-07-05 17:33:03</time>
      </trkpt>
      <trkpt lat="28.07822" lon="-14.3029">
        <ele>87</ele>
        <time>2021-07-05 17:33:04</time>
      </trkpt>
      <trkpt lat="28.07822" lon="-14.30293">
        <ele>87.4</ele>
        <time>2021-07-05 17:33:05</time>
      </trkpt>
      <trkpt lat="28.07822" lon="-14.30296">
        <ele>87.8</ele>
        <time>2021-07-05 17:33:06</time>
      </trkpt>
      <trkpt lat="28.07821" lon="-14.30298">
        <ele>87.8</ele>
        <time>2021-07-05 17:33:07</time>
      </trkpt>
      <trkpt lat="28.07821" lon="-14.303">
        <ele>87.8</ele>
        <time>2021-07-05 17:33:08</time>
      </trkpt>
      <trkpt lat="28.07821" lon="-14.30302">
        <ele>87.8</ele>
        <time>2021-07-05 17:33:09</time>
      </trkpt>
      <trkpt lat="28.07822" lon="-14.30304">
        <ele>87.8</ele>
        <time>2021-07-05 17:33:10</time>
      </trkpt>
      <trkpt lat="28.07822" lon="-14.30306">
        <ele>88</ele>
        <time>2021-07-05 17:33:11</time>
      </trkpt>
      <trkpt lat="28.07822" lon="-14.30307">
        <ele>88</ele>
        <time>2021-07-05 17:33:12</time>
      </trkpt>
      <trkpt lat="28.07822" lon="-14.3031">
        <ele>88</ele>
        <time>2021-07-05 17:33:13</time>
      </trkpt>
      <trkpt lat="28.07822" lon="-14.30312">
        <ele>88.2</ele>
        <time>2021-07-05 17:33:14</time>
      </trkpt>
      <trkpt lat="28.07822" lon="-14.30314">
        <ele>88.2</ele>
        <time>2021-07-05 17:33:15</time>
      </trkpt>
      <trkpt lat="28.07822" lon="-14.30316">
        <ele>88.2</ele>
        <time>2021-07-05 17:33:16</time>
      </trkpt>
      <trkpt lat="28.07822" lon="-14.30319">
        <ele>88.2</ele>
        <time>2021-07-05 17:33:17</time>
      </trkpt>
      <trkpt lat="28.07822" lon="-14.30321">
        <ele>88.2</ele>
        <time>2021-07-05 17:33:18</time>
      </trkpt>
      <trkpt lat="28.07822" lon="-14.30323">
        <ele>88.2</ele>
        <time>2021-07-05 17:33:19</time>
      </trkpt>
      <trkpt lat="28.07822" lon="-14.30325">
        <ele>89</ele>
        <time>2021-07-05 17:33:20</time>
      </trkpt>
      <trkpt lat="28.07822" lon="-14.30327">
        <ele>89</ele>
        <time>2021-07-05 17:33:21</time>
      </trkpt>
      <trkpt lat="28.07822" lon="-14.30329">
        <ele>89.2</ele>
        <time>2021-07-05 17:33:22</time>
      </trkpt>
      <trkpt lat="28.07823" lon="-14.30331">
        <ele>89.6</ele>
        <time>2021-07-05 17:33:23</time>
      </trkpt>
      <trkpt lat="28.07823" lon="-14.30333">
        <ele>90</ele>
        <time>2021-07-05 17:33:24</time>
      </trkpt>
      <trkpt lat="28.07823" lon="-14.30335">
        <ele>90.4</ele>
        <time>2021-07-05 17:33:25</time>
      </trkpt>
      <trkpt lat="28.07823" lon="-14.30337">
        <ele>90.4</ele>
        <time>2021-07-05 17:33:26</time>
      </trkpt>
      <trkpt lat="28.07824" lon="-14.30339">
        <ele>90.6</ele>
        <time>2021-07-05 17:33:27</time>
      </trkpt>
      <trkpt lat="28.07824" lon="-14.30341">
        <ele>90.6</ele>
        <time>2021-07-05 17:33:28</time>
      </trkpt>
      <trkpt lat="28.07824" lon="-14.30343">
        <ele>91</ele>
        <time>2021-07-05 17:33:29</time>
      </trkpt>
      <trkpt lat="28.07824" lon="-14.30346">
        <ele>91.8</ele>
        <time>2021-07-05 17:33:30</time>
      </trkpt>
      <trkpt lat="28.07824" lon="-14.30348">
        <ele>91.8</ele>
        <time>2021-07-05 17:33:31</time>
      </trkpt>
      <trkpt lat="28.07825" lon="-14.3035">
        <ele>91.8</ele>
        <time>2021-07-05 17:33:32</time>
      </trkpt>
      <trkpt lat="28.07825" lon="-14.30352">
        <ele>91.8</ele>
        <time>2021-07-05 17:33:33</time>
      </trkpt>
      <trkpt lat="28.07826" lon="-14.30354">
        <ele>91.4</ele>
        <time>2021-07-05 17:33:34</time>
      </trkpt>
      <trkpt lat="28.07827" lon="-14.30356">
        <ele>91.8</ele>
        <time>2021-07-05 17:33:35</time>
      </trkpt>
      <trkpt lat="28.07827" lon="-14.30359">
        <ele>91.8</ele>
        <time>2021-07-05 17:33:36</time>
      </trkpt>
      <trkpt lat="28.07827" lon="-14.30361">
        <ele>92</ele>
        <time>2021-07-05 17:33:37</time>
      </trkpt>
      <trkpt lat="28.07828" lon="-14.30364">
        <ele>92</ele>
        <time>2021-07-05 17:33:38</time>
      </trkpt>
      <trkpt lat="28.07828" lon="-14.30366">
        <ele>92.4</ele>
        <time>2021-07-05 17:33:39</time>
      </trkpt>
      <trkpt lat="28.07829" lon="-14.30368">
        <ele>92.8</ele>
        <time>2021-07-05 17:33:40</time>
      </trkpt>
      <trkpt lat="28.07829" lon="-14.30371">
        <ele>93.2</ele>
        <time>2021-07-05 17:33:41</time>
      </trkpt>
      <trkpt lat="28.07829" lon="-14.30374">
        <ele>93.8</ele>
        <time>2021-07-05 17:33:42</time>
      </trkpt>
      <trkpt lat="28.07829" lon="-14.30376">
        <ele>94</ele>
        <time>2021-07-05 17:33:43</time>
      </trkpt>
      <trkpt lat="28.07829" lon="-14.30378">
        <ele>94</ele>
        <time>2021-07-05 17:33:44</time>
      </trkpt>
      <trkpt lat="28.07829" lon="-14.30381">
        <ele>94</ele>
        <time>2021-07-05 17:33:45</time>
      </trkpt>
      <trkpt lat="28.0783" lon="-14.30383">
        <ele>94</ele>
        <time>2021-07-05 17:33:46</time>
      </trkpt>
      <trkpt lat="28.0783" lon="-14.30386">
        <ele>94</ele>
        <time>2021-07-05 17:33:47</time>
      </trkpt>
      <trkpt lat="28.07831" lon="-14.30388">
        <ele>94</ele>
        <time>2021-07-05 17:33:48</time>
      </trkpt>
      <trkpt lat="28.07831" lon="-14.3039">
        <ele>94</ele>
        <time>2021-07-05 17:33:49</time>
      </trkpt>
      <trkpt lat="28.07831" lon="-14.30393">
        <ele>95.4</ele>
        <time>2021-07-05 17:33:50</time>
      </trkpt>
      <trkpt lat="28.07831" lon="-14.30395">
        <ele>95.4</ele>
        <time>2021-07-05 17:33:51</time>
      </trkpt>
      <trkpt lat="28.07831" lon="-14.30397">
        <ele>95.6</ele>
        <time>2021-07-05 17:33:52</time>
      </trkpt>
      <trkpt lat="28.07832" lon="-14.304">
        <ele>96</ele>
        <time>2021-07-05 17:33:53</time>
      </trkpt>
      <trkpt lat="28.07833" lon="-14.30402">
        <ele>96</ele>
        <time>2021-07-05 17:33:54</time>
      </trkpt>
      <trkpt lat="28.07833" lon="-14.30405">
        <ele>96</ele>
        <time>2021-07-05 17:33:55</time>
      </trkpt>
      <trkpt lat="28.07834" lon="-14.30407">
        <ele>96</ele>
        <time>2021-07-05 17:33:56</time>
      </trkpt>
      <trkpt lat="28.07834" lon="-14.30409">
        <ele>95.6</ele>
        <time>2021-07-05 17:33:57</time>
      </trkpt>
      <trkpt lat="28.07834" lon="-14.30412">
        <ele>95.6</ele>
        <time>2021-07-05 17:33:58</time>
      </trkpt>
      <trkpt lat="28.07834" lon="-14.30414">
        <ele>95.4</ele>
        <time>2021-07-05 17:33:59</time>
      </trkpt>
      <trkpt lat="28.07834" lon="-14.30417">
        <ele>95.2</ele>
        <time>2021-07-05 17:34:00</time>
      </trkpt>
      <trkpt lat="28.07835" lon="-14.30419">
        <ele>95</ele>
        <time>2021-07-05 17:34:01</time>
      </trkpt>
      <trkpt lat="28.07835" lon="-14.30421">
        <ele>95</ele>
        <time>2021-07-05 17:34:02</time>
      </trkpt>
      <trkpt lat="28.07835" lon="-14.30424">
        <ele>95</ele>
        <time>2021-07-05 17:34:03</time>
      </trkpt>
      <trkpt lat="28.07836" lon="-14.30426">
        <ele>95.4</ele>
        <time>2021-07-05 17:34:04</time>
      </trkpt>
      <trkpt lat="28.07836" lon="-14.30429">
        <ele>95.6</ele>
        <time>2021-07-05 17:34:05</time>
      </trkpt>
      <trkpt lat="28.07837" lon="-14.30431">
        <ele>96</ele>
        <time>2021-07-05 17:34:06</time>
      </trkpt>
      <trkpt lat="28.07837" lon="-14.30434">
        <ele>96</ele>
        <time>2021-07-05 17:34:07</time>
      </trkpt>
      <trkpt lat="28.07838" lon="-14.30436">
        <ele>96</ele>
        <time>2021-07-05 17:34:08</time>
      </trkpt>
      <trkpt lat="28.07838" lon="-14.30438">
        <ele>95.6</ele>
        <time>2021-07-05 17:34:09</time>
      </trkpt>
      <trkpt lat="28.07838" lon="-14.30441">
        <ele>95.6</ele>
        <time>2021-07-05 17:34:10</time>
      </trkpt>
      <trkpt lat="28.07839" lon="-14.30443">
        <ele>96.2</ele>
        <time>2021-07-05 17:34:11</time>
      </trkpt>
      <trkpt lat="28.07839" lon="-14.30445">
        <ele>96.6</ele>
        <time>2021-07-05 17:34:12</time>
      </trkpt>
      <trkpt lat="28.07839" lon="-14.30447">
        <ele>96.6</ele>
        <time>2021-07-05 17:34:13</time>
      </trkpt>
      <trkpt lat="28.07839" lon="-14.3045">
        <ele>96.8</ele>
        <time>2021-07-05 17:34:14</time>
      </trkpt>
      <trkpt lat="28.0784" lon="-14.30452">
        <ele>96.8</ele>
        <time>2021-07-05 17:34:15</time>
      </trkpt>
      <trkpt lat="28.07841" lon="-14.30454">
        <ele>96.8</ele>
        <time>2021-07-05 17:34:16</time>
      </trkpt>
      <trkpt lat="28.07841" lon="-14.30457">
        <ele>96.8</ele>
        <time>2021-07-05 17:34:17</time>
      </trkpt>
      <trkpt lat="28.07842" lon="-14.3046">
        <ele>97.2</ele>
        <time>2021-07-05 17:34:18</time>
      </trkpt>
      <trkpt lat="28.07842" lon="-14.30463">
        <ele>97.2</ele>
        <time>2021-07-05 17:34:19</time>
      </trkpt>
      <trkpt lat="28.07842" lon="-14.30465">
        <ele>97.2</ele>
        <time>2021-07-05 17:34:20</time>
      </trkpt>
      <trkpt lat="28.07843" lon="-14.30468">
        <ele>97.6</ele>
        <time>2021-07-05 17:34:21</time>
      </trkpt>
      <trkpt lat="28.07843" lon="-14.30471">
        <ele>97.6</ele>
        <time>2021-07-05 17:34:22</time>
      </trkpt>
      <trkpt lat="28.07843" lon="-14.30474">
        <ele>97.8</ele>
        <time>2021-07-05 17:34:23</time>
      </trkpt>
      <trkpt lat="28.07844" lon="-14.30477">
        <ele>97.8</ele>
        <time>2021-07-05 17:34:24</time>
      </trkpt>
      <trkpt lat="28.07844" lon="-14.30479">
        <ele>97.8</ele>
        <time>2021-07-05 17:34:25</time>
      </trkpt>
      <trkpt lat="28.07844" lon="-14.30482">
        <ele>97.8</ele>
        <time>2021-07-05 17:34:26</time>
      </trkpt>
      <trkpt lat="28.07844" lon="-14.30484">
        <ele>98.2</ele>
        <time>2021-07-05 17:34:27</time>
      </trkpt>
      <trkpt lat="28.07845" lon="-14.30487">
        <ele>98.2</ele>
        <time>2021-07-05 17:34:28</time>
      </trkpt>
      <trkpt lat="28.07845" lon="-14.3049">
        <ele>98.2</ele>
        <time>2021-07-05 17:34:29</time>
      </trkpt>
      <trkpt lat="28.07846" lon="-14.30492">
        <ele>98.2</ele>
        <time>2021-07-05 17:34:30</time>
      </trkpt>
      <trkpt lat="28.07847" lon="-14.30495">
        <ele>98.2</ele>
        <time>2021-07-05 17:34:31</time>
      </trkpt>
      <trkpt lat="28.07847" lon="-14.30498">
        <ele>98.2</ele>
        <time>2021-07-05 17:34:32</time>
      </trkpt>
      <trkpt lat="28.07848" lon="-14.30501">
        <ele>98.4</ele>
        <time>2021-07-05 17:34:33</time>
      </trkpt>
      <trkpt lat="28.07848" lon="-14.30503">
        <ele>98.4</ele>
        <time>2021-07-05 17:34:34</time>
      </trkpt>
      <trkpt lat="28.07848" lon="-14.30506">
        <ele>98.6</ele>
        <time>2021-07-05 17:34:35</time>
      </trkpt>
      <trkpt lat="28.07849" lon="-14.30509">
        <ele>98.6</ele>
        <time>2021-07-05 17:34:36</time>
      </trkpt>
      <trkpt lat="28.07849" lon="-14.30512">
        <ele>99</ele>
        <time>2021-07-05 17:34:37</time>
      </trkpt>
      <trkpt lat="28.07849" lon="-14.30515">
        <ele>99</ele>
        <time>2021-07-05 17:34:38</time>
      </trkpt>
      <trkpt lat="28.07849" lon="-14.30517">
        <ele>99.2</ele>
        <time>2021-07-05 17:34:39</time>
      </trkpt>
      <trkpt lat="28.0785" lon="-14.30521">
        <ele>99.2</ele>
        <time>2021-07-05 17:34:40</time>
      </trkpt>
      <trkpt lat="28.0785" lon="-14.30524">
        <ele>99.2</ele>
        <time>2021-07-05 17:34:41</time>
      </trkpt>
      <trkpt lat="28.07851" lon="-14.30526">
        <ele>99.2</ele>
        <time>2021-07-05 17:34:42</time>
      </trkpt>
      <trkpt lat="28.07851" lon="-14.30529">
        <ele>99.2</ele>
        <time>2021-07-05 17:34:43</time>
      </trkpt>
      <trkpt lat="28.07852" lon="-14.30532">
        <ele>99.4</ele>
        <time>2021-07-05 17:34:44</time>
      </trkpt>
      <trkpt lat="28.07852" lon="-14.30535">
        <ele>99.4</ele>
        <time>2021-07-05 17:34:45</time>
      </trkpt>
      <trkpt lat="28.07852" lon="-14.30538">
        <ele>99.4</ele>
        <time>2021-07-05 17:34:46</time>
      </trkpt>
      <trkpt lat="28.07853" lon="-14.30541">
        <ele>99.4</ele>
        <time>2021-07-05 17:34:47</time>
      </trkpt>
      <trkpt lat="28.07853" lon="-14.30544">
        <ele>99.4</ele>
        <time>2021-07-05 17:34:48</time>
      </trkpt>
      <trkpt lat="28.07854" lon="-14.30546">
        <ele>99.4</ele>
        <time>2021-07-05 17:34:49</time>
      </trkpt>
      <trkpt lat="28.07854" lon="-14.30549">
        <ele>99.6</ele>
        <time>2021-07-05 17:34:50</time>
      </trkpt>
      <trkpt lat="28.07855" lon="-14.30552">
        <ele>100</ele>
        <time>2021-07-05 17:34:51</time>
      </trkpt>
      <trkpt lat="28.07855" lon="-14.30555">
        <ele>100</ele>
        <time>2021-07-05 17:34:52</time>
      </trkpt>
      <trkpt lat="28.07855" lon="-14.30557">
        <ele>100.2</ele>
        <time>2021-07-05 17:34:53</time>
      </trkpt>
      <trkpt lat="28.07856" lon="-14.30561">
        <ele>100.6</ele>
        <time>2021-07-05 17:34:54</time>
      </trkpt>
      <trkpt lat="28.07856" lon="-14.30564">
        <ele>101</ele>
        <time>2021-07-05 17:34:55</time>
      </trkpt>
      <trkpt lat="28.07856" lon="-14.30567">
        <ele>101</ele>
        <time>2021-07-05 17:34:56</time>
      </trkpt>
      <trkpt lat="28.07857" lon="-14.3057">
        <ele>101</ele>
        <time>2021-07-05 17:34:57</time>
      </trkpt>
      <trkpt lat="28.07856" lon="-14.30573">
        <ele>101.4</ele>
        <time>2021-07-05 17:34:58</time>
      </trkpt>
      <trkpt lat="28.07856" lon="-14.30575">
        <ele>101.4</ele>
        <time>2021-07-05 17:34:59</time>
      </trkpt>
      <trkpt lat="28.07856" lon="-14.30578">
        <ele>101.6</ele>
        <time>2021-07-05 17:35:00</time>
      </trkpt>
      <trkpt lat="28.07856" lon="-14.30581">
        <ele>102.2</ele>
        <time>2021-07-05 17:35:01</time>
      </trkpt>
      <trkpt lat="28.07856" lon="-14.30584">
        <ele>102.4</ele>
        <time>2021-07-05 17:35:02</time>
      </trkpt>
      <trkpt lat="28.07856" lon="-14.30587">
        <ele>102.4</ele>
        <time>2021-07-05 17:35:03</time>
      </trkpt>
      <trkpt lat="28.07855" lon="-14.3059">
        <ele>102.8</ele>
        <time>2021-07-05 17:35:04</time>
      </trkpt>
      <trkpt lat="28.07855" lon="-14.30593">
        <ele>103</ele>
        <time>2021-07-05 17:35:05</time>
      </trkpt>
      <trkpt lat="28.07854" lon="-14.30596">
        <ele>103.4</ele>
        <time>2021-07-05 17:35:06</time>
      </trkpt>
      <trkpt lat="28.07853" lon="-14.30599">
        <ele>103.8</ele>
        <time>2021-07-05 17:35:07</time>
      </trkpt>
      <trkpt lat="28.07853" lon="-14.30602">
        <ele>104.2</ele>
        <time>2021-07-05 17:35:08</time>
      </trkpt>
      <trkpt lat="28.07852" lon="-14.30605">
        <ele>104.2</ele>
        <time>2021-07-05 17:35:09</time>
      </trkpt>
      <trkpt lat="28.07851" lon="-14.30608">
        <ele>104.2</ele>
        <time>2021-07-05 17:35:10</time>
      </trkpt>
      <trkpt lat="28.0785" lon="-14.30611">
        <ele>104.2</ele>
        <time>2021-07-05 17:35:11</time>
      </trkpt>
      <trkpt lat="28.07849" lon="-14.30615">
        <ele>104.2</ele>
        <time>2021-07-05 17:35:12</time>
      </trkpt>
      <trkpt lat="28.07848" lon="-14.30618">
        <ele>104.2</ele>
        <time>2021-07-05 17:35:13</time>
      </trkpt>
      <trkpt lat="28.07846" lon="-14.30621">
        <ele>104.2</ele>
        <time>2021-07-05 17:35:14</time>
      </trkpt>
      <trkpt lat="28.07845" lon="-14.30625">
        <ele>104.2</ele>
        <time>2021-07-05 17:35:15</time>
      </trkpt>
      <trkpt lat="28.07844" lon="-14.30628">
        <ele>104.2</ele>
        <time>2021-07-05 17:35:16</time>
      </trkpt>
      <trkpt lat="28.07843" lon="-14.30631">
        <ele>104.2</ele>
        <time>2021-07-05 17:35:17</time>
      </trkpt>
      <trkpt lat="28.07841" lon="-14.30634">
        <ele>104.2</ele>
        <time>2021-07-05 17:35:18</time>
      </trkpt>
      <trkpt lat="28.0784" lon="-14.30638">
        <ele>103.8</ele>
        <time>2021-07-05 17:35:19</time>
      </trkpt>
      <trkpt lat="28.07838" lon="-14.30641">
        <ele>103.8</ele>
        <time>2021-07-05 17:35:20</time>
      </trkpt>
      <trkpt lat="28.07836" lon="-14.30645">
        <ele>103.8</ele>
        <time>2021-07-05 17:35:21</time>
      </trkpt>
      <trkpt lat="28.07834" lon="-14.30649">
        <ele>103.4</ele>
        <time>2021-07-05 17:35:22</time>
      </trkpt>
      <trkpt lat="28.07832" lon="-14.30654">
        <ele>103.4</ele>
        <time>2021-07-05 17:35:23</time>
      </trkpt>
      <trkpt lat="28.07829" lon="-14.30658">
        <ele>103.2</ele>
        <time>2021-07-05 17:35:24</time>
      </trkpt>
      <trkpt lat="28.07826" lon="-14.30663">
        <ele>103.2</ele>
        <time>2021-07-05 17:35:25</time>
      </trkpt>
      <trkpt lat="28.07824" lon="-14.30668">
        <ele>102.8</ele>
        <time>2021-07-05 17:35:26</time>
      </trkpt>
      <trkpt lat="28.0782" lon="-14.30674">
        <ele>102.8</ele>
        <time>2021-07-05 17:35:27</time>
      </trkpt>
      <trkpt lat="28.07817" lon="-14.30681">
        <ele>102.4</ele>
        <time>2021-07-05 17:35:28</time>
      </trkpt>
      <trkpt lat="28.07813" lon="-14.30687">
        <ele>101.6</ele>
        <time>2021-07-05 17:35:29</time>
      </trkpt>
      <trkpt lat="28.0781" lon="-14.30695">
        <ele>101.6</ele>
        <time>2021-07-05 17:35:30</time>
      </trkpt>
      <trkpt lat="28.07806" lon="-14.30702">
        <ele>101.2</ele>
        <time>2021-07-05 17:35:31</time>
      </trkpt>
      <trkpt lat="28.07802" lon="-14.30709">
        <ele>101.2</ele>
        <time>2021-07-05 17:35:32</time>
      </trkpt>
      <trkpt lat="28.07799" lon="-14.30716">
        <ele>100.8</ele>
        <time>2021-07-05 17:35:33</time>
      </trkpt>
      <trkpt lat="28.07796" lon="-14.30723">
        <ele>100.6</ele>
        <time>2021-07-05 17:35:34</time>
      </trkpt>
      <trkpt lat="28.07794" lon="-14.30729">
        <ele>100.6</ele>
        <time>2021-07-05 17:35:35</time>
      </trkpt>
      <trkpt lat="28.07792" lon="-14.30733">
        <ele>100.2</ele>
        <time>2021-07-05 17:35:36</time>
      </trkpt>
      <trkpt lat="28.07791" lon="-14.30736">
        <ele>99.8</ele>
        <time>2021-07-05 17:35:37</time>
      </trkpt>
      <trkpt lat="28.07791" lon="-14.30738">
        <ele>99.8</ele>
        <time>2021-07-05 17:35:38</time>
      </trkpt>
      <trkpt lat="28.07791" lon="-14.30738">
        <ele>99.8</ele>
        <time>2021-07-05 17:35:39</time>
      </trkpt>
      <trkpt lat="28.07791" lon="-14.30738">
        <ele>99.6</ele>
        <time>2021-07-05 17:35:40</time>
      </trkpt>
      <trkpt lat="28.07792" lon="-14.30739">
        <ele>99.6</ele>
        <time>2021-07-05 17:35:41</time>
      </trkpt>
      <trkpt lat="28.07791" lon="-14.30741">
        <ele>100</ele>
        <time>2021-07-05 17:35:42</time>
      </trkpt>
      <trkpt lat="28.07791" lon="-14.30742">
        <ele>99.8</ele>
        <time>2021-07-05 17:35:49</time>
      </trkpt>
      <trkpt lat="28.07791" lon="-14.30745">
        <ele>99.8</ele>
        <time>2021-07-05 17:35:50</time>
      </trkpt>
      <trkpt lat="28.0779" lon="-14.30747">
        <ele>99.4</ele>
        <time>2021-07-05 17:35:51</time>
      </trkpt>
      <trkpt lat="28.0779" lon="-14.30751">
        <ele>99.4</ele>
        <time>2021-07-05 17:35:52</time>
      </trkpt>
      <trkpt lat="28.0779" lon="-14.30754">
        <ele>99.4</ele>
        <time>2021-07-05 17:35:53</time>
      </trkpt>
      <trkpt lat="28.07789" lon="-14.30757">
        <ele>99.2</ele>
        <time>2021-07-05 17:35:54</time>
      </trkpt>
      <trkpt lat="28.07788" lon="-14.3076">
        <ele>99.4</ele>
        <time>2021-07-05 17:35:55</time>
      </trkpt>
      <trkpt lat="28.07787" lon="-14.30763">
        <ele>99.8</ele>
        <time>2021-07-05 17:35:56</time>
      </trkpt>
      <trkpt lat="28.07784" lon="-14.30766">
        <ele>100.2</ele>
        <time>2021-07-05 17:35:57</time>
      </trkpt>
      <trkpt lat="28.07782" lon="-14.30769">
        <ele>100.4</ele>
        <time>2021-07-05 17:35:58</time>
      </trkpt>
      <trkpt lat="28.07778" lon="-14.30771">
        <ele>100.4</ele>
        <time>2021-07-05 17:35:59</time>
      </trkpt>
      <trkpt lat="28.07774" lon="-14.30773">
        <ele>100</ele>
        <time>2021-07-05 17:36:00</time>
      </trkpt>
      <trkpt lat="28.0777" lon="-14.30773">
        <ele>100</ele>
        <time>2021-07-05 17:36:01</time>
      </trkpt>
      <trkpt lat="28.07765" lon="-14.3077">
        <ele>99.6</ele>
        <time>2021-07-05 17:36:02</time>
      </trkpt>
      <trkpt lat="28.0776" lon="-14.3077">
        <ele>99.6</ele>
        <time>2021-07-05 17:36:03</time>
      </trkpt>
      <trkpt lat="28.07755" lon="-14.30769">
        <ele>99.2</ele>
        <time>2021-07-05 17:36:04</time>
      </trkpt>
      <trkpt lat="28.0775" lon="-14.3077">
        <ele>98.6</ele>
        <time>2021-07-05 17:36:05</time>
      </trkpt>
      <trkpt lat="28.07745" lon="-14.30773">
        <ele>98</ele>
        <time>2021-07-05 17:36:06</time>
      </trkpt>
      <trkpt lat="28.07741" lon="-14.30777">
        <ele>97.6</ele>
        <time>2021-07-05 17:36:07</time>
      </trkpt>
      <trkpt lat="28.07738" lon="-14.30782">
        <ele>97</ele>
        <time>2021-07-05 17:36:08</time>
      </trkpt>
      <trkpt lat="28.07735" lon="-14.30787">
        <ele>97</ele>
        <time>2021-07-05 17:36:09</time>
      </trkpt>
      <trkpt lat="28.07733" lon="-14.30792">
        <ele>97</ele>
        <time>2021-07-05 17:36:10</time>
      </trkpt>
      <trkpt lat="28.07731" lon="-14.30796">
        <ele>97.4</ele>
        <time>2021-07-05 17:36:11</time>
      </trkpt>
      <trkpt lat="28.07729" lon="-14.30799">
        <ele>97.6</ele>
        <time>2021-07-05 17:36:12</time>
      </trkpt>
      <trkpt lat="28.07727" lon="-14.30803">
        <ele>97.6</ele>
        <time>2021-07-05 17:36:13</time>
      </trkpt>
      <trkpt lat="28.07725" lon="-14.30806">
        <ele>97.6</ele>
        <time>2021-07-05 17:36:14</time>
      </trkpt>
      <trkpt lat="28.07723" lon="-14.3081">
        <ele>98</ele>
        <time>2021-07-05 17:36:15</time>
      </trkpt>
      <trkpt lat="28.0772" lon="-14.30812">
        <ele>98.2</ele>
        <time>2021-07-05 17:36:16</time>
      </trkpt>
      <trkpt lat="28.07718" lon="-14.30815">
        <ele>98.2</ele>
        <time>2021-07-05 17:36:17</time>
      </trkpt>
      <trkpt lat="28.07716" lon="-14.30818">
        <ele>98.6</ele>
        <time>2021-07-05 17:36:18</time>
      </trkpt>
      <trkpt lat="28.07714" lon="-14.30821">
        <ele>98.6</ele>
        <time>2021-07-05 17:36:19</time>
      </trkpt>
      <trkpt lat="28.07711" lon="-14.30823">
        <ele>98.6</ele>
        <time>2021-07-05 17:36:20</time>
      </trkpt>
      <trkpt lat="28.07708" lon="-14.30826">
        <ele>98.6</ele>
        <time>2021-07-05 17:36:21</time>
      </trkpt>
      <trkpt lat="28.07705" lon="-14.30829">
        <ele>98.6</ele>
        <time>2021-07-05 17:36:22</time>
      </trkpt>
      <trkpt lat="28.07702" lon="-14.30832">
        <ele>98.6</ele>
        <time>2021-07-05 17:36:23</time>
      </trkpt>
      <trkpt lat="28.077" lon="-14.30835">
        <ele>98.6</ele>
        <time>2021-07-05 17:36:24</time>
      </trkpt>
      <trkpt lat="28.07697" lon="-14.30838">
        <ele>98.6</ele>
        <time>2021-07-05 17:36:25</time>
      </trkpt>
      <trkpt lat="28.07694" lon="-14.3084">
        <ele>98.6</ele>
        <time>2021-07-05 17:36:26</time>
      </trkpt>
      <trkpt lat="28.07691" lon="-14.30843">
        <ele>98.4</ele>
        <time>2021-07-05 17:36:27</time>
      </trkpt>
      <trkpt lat="28.07687" lon="-14.30845">
        <ele>98.4</ele>
        <time>2021-07-05 17:36:28</time>
      </trkpt>
      <trkpt lat="28.07684" lon="-14.30848">
        <ele>98.4</ele>
        <time>2021-07-05 17:36:29</time>
      </trkpt>
      <trkpt lat="28.0768" lon="-14.3085">
        <ele>98.4</ele>
        <time>2021-07-05 17:36:30</time>
      </trkpt>
      <trkpt lat="28.07676" lon="-14.30851">
        <ele>98.6</ele>
        <time>2021-07-05 17:36:31</time>
      </trkpt>
      <trkpt lat="28.07672" lon="-14.30853">
        <ele>98.6</ele>
        <time>2021-07-05 17:36:32</time>
      </trkpt>
      <trkpt lat="28.07668" lon="-14.30856">
        <ele>98.6</ele>
        <time>2021-07-05 17:36:33</time>
      </trkpt>
      <trkpt lat="28.07664" lon="-14.30857">
        <ele>98.4</ele>
        <time>2021-07-05 17:36:34</time>
      </trkpt>
      <trkpt lat="28.0766" lon="-14.30859">
        <ele>97.8</ele>
        <time>2021-07-05 17:36:35</time>
      </trkpt>
      <trkpt lat="28.07655" lon="-14.30861">
        <ele>97.8</ele>
        <time>2021-07-05 17:36:36</time>
      </trkpt>
      <trkpt lat="28.07651" lon="-14.30862">
        <ele>97.4</ele>
        <time>2021-07-05 17:36:37</time>
      </trkpt>
      <trkpt lat="28.07647" lon="-14.30864">
        <ele>97.2</ele>
        <time>2021-07-05 17:36:38</time>
      </trkpt>
      <trkpt lat="28.07643" lon="-14.30865">
        <ele>97.2</ele>
        <time>2021-07-05 17:36:39</time>
      </trkpt>
      <trkpt lat="28.07639" lon="-14.30865">
        <ele>97.2</ele>
        <time>2021-07-05 17:36:40</time>
      </trkpt>
      <trkpt lat="28.07635" lon="-14.30866">
        <ele>97</ele>
        <time>2021-07-05 17:36:41</time>
      </trkpt>
      <trkpt lat="28.07631" lon="-14.30868">
        <ele>97</ele>
        <time>2021-07-05 17:36:42</time>
      </trkpt>
      <trkpt lat="28.07627" lon="-14.3087">
        <ele>97</ele>
        <time>2021-07-05 17:36:43</time>
      </trkpt>
      <trkpt lat="28.07623" lon="-14.30873">
        <ele>96.8</ele>
        <time>2021-07-05 17:36:44</time>
      </trkpt>
      <trkpt lat="28.07619" lon="-14.30876">
        <ele>96.6</ele>
        <time>2021-07-05 17:36:45</time>
      </trkpt>
      <trkpt lat="28.07615" lon="-14.3088">
        <ele>96.2</ele>
        <time>2021-07-05 17:36:46</time>
      </trkpt>
      <trkpt lat="28.07612" lon="-14.30884">
        <ele>95.8</ele>
        <time>2021-07-05 17:36:47</time>
      </trkpt>
      <trkpt lat="28.07609" lon="-14.30888">
        <ele>95</ele>
        <time>2021-07-05 17:36:48</time>
      </trkpt>
      <trkpt lat="28.07606" lon="-14.30893">
        <ele>95</ele>
        <time>2021-07-05 17:36:49</time>
      </trkpt>
      <trkpt lat="28.07604" lon="-14.30899">
        <ele>94.2</ele>
        <time>2021-07-05 17:36:50</time>
      </trkpt>
      <trkpt lat="28.07602" lon="-14.30904">
        <ele>93.6</ele>
        <time>2021-07-05 17:36:51</time>
      </trkpt>
      <trkpt lat="28.07601" lon="-14.30908">
        <ele>93</ele>
        <time>2021-07-05 17:36:52</time>
      </trkpt>
      <trkpt lat="28.07599" lon="-14.30912">
        <ele>92.6</ele>
        <time>2021-07-05 17:36:53</time>
      </trkpt>
      <trkpt lat="28.07598" lon="-14.30916">
        <ele>92.2</ele>
        <time>2021-07-05 17:36:54</time>
      </trkpt>
      <trkpt lat="28.07595" lon="-14.30919">
        <ele>91.6</ele>
        <time>2021-07-05 17:36:55</time>
      </trkpt>
      <trkpt lat="28.07594" lon="-14.30921">
        <ele>91.4</ele>
        <time>2021-07-05 17:36:56</time>
      </trkpt>
      <trkpt lat="28.07593" lon="-14.30924">
        <ele>91.4</ele>
        <time>2021-07-05 17:36:57</time>
      </trkpt>
      <trkpt lat="28.07593" lon="-14.30926">
        <ele>91.4</ele>
        <time>2021-07-05 17:36:58</time>
      </trkpt>
      <trkpt lat="28.07592" lon="-14.30929">
        <ele>91.2</ele>
        <time>2021-07-05 17:36:59</time>
      </trkpt>
      <trkpt lat="28.0759" lon="-14.3093">
        <ele>91.2</ele>
        <time>2021-07-05 17:37:00</time>
      </trkpt>
      <trkpt lat="28.07589" lon="-14.30933">
        <ele>91.2</ele>
        <time>2021-07-05 17:37:01</time>
      </trkpt>
      <trkpt lat="28.07587" lon="-14.30935">
        <ele>91.2</ele>
        <time>2021-07-05 17:37:02</time>
      </trkpt>
      <trkpt lat="28.07583" lon="-14.30937">
        <ele>91.2</ele>
        <time>2021-07-05 17:37:03</time>
      </trkpt>
      <trkpt lat="28.0758" lon="-14.30938">
        <ele>90.8</ele>
        <time>2021-07-05 17:37:04</time>
      </trkpt>
      <trkpt lat="28.07576" lon="-14.3094">
        <ele>90.6</ele>
        <time>2021-07-05 17:37:05</time>
      </trkpt>
      <trkpt lat="28.07571" lon="-14.30942">
        <ele>90.6</ele>
        <time>2021-07-05 17:37:06</time>
      </trkpt>
      <trkpt lat="28.07566" lon="-14.30943">
        <ele>90.6</ele>
        <time>2021-07-05 17:37:07</time>
      </trkpt>
      <trkpt lat="28.0756" lon="-14.30944">
        <ele>90.2</ele>
        <time>2021-07-05 17:37:08</time>
      </trkpt>
      <trkpt lat="28.07554" lon="-14.30945">
        <ele>90</ele>
        <time>2021-07-05 17:37:09</time>
      </trkpt>
      <trkpt lat="28.07548" lon="-14.30945">
        <ele>89.8</ele>
        <time>2021-07-05 17:37:10</time>
      </trkpt>
      <trkpt lat="28.07542" lon="-14.30946">
        <ele>89.4</ele>
        <time>2021-07-05 17:37:11</time>
      </trkpt>
      <trkpt lat="28.07536" lon="-14.30947">
        <ele>89.2</ele>
        <time>2021-07-05 17:37:12</time>
      </trkpt>
      <trkpt lat="28.0753" lon="-14.30948">
        <ele>88.2</ele>
        <time>2021-07-05 17:37:13</time>
      </trkpt>
      <trkpt lat="28.07523" lon="-14.30949">
        <ele>88.2</ele>
        <time>2021-07-05 17:37:14</time>
      </trkpt>
      <trkpt lat="28.07516" lon="-14.30949">
        <ele>87.8</ele>
        <time>2021-07-05 17:37:15</time>
      </trkpt>
      <trkpt lat="28.07516" lon="-14.30949">
        <ele>86.6</ele>
        <time>2021-07-05 17:37:16</time>
      </trkpt>
      <trkpt lat="28.07489" lon="-14.30952">
        <ele>85.4</ele>
        <time>2021-07-05 17:37:17</time>
      </trkpt>
      <trkpt lat="28.07482" lon="-14.30953">
        <ele>84.6</ele>
        <time>2021-07-05 17:37:18</time>
      </trkpt>
      <trkpt lat="28.07476" lon="-14.30954">
        <ele>84.2</ele>
        <time>2021-07-05 17:37:19</time>
      </trkpt>
      <trkpt lat="28.0747" lon="-14.30955">
        <ele>83.6</ele>
        <time>2021-07-05 17:37:20</time>
      </trkpt>
      <trkpt lat="28.07463" lon="-14.30955">
        <ele>83</ele>
        <time>2021-07-05 17:37:21</time>
      </trkpt>
      <trkpt lat="28.07457" lon="-14.30956">
        <ele>82.4</ele>
        <time>2021-07-05 17:37:22</time>
      </trkpt>
      <trkpt lat="28.0745" lon="-14.30956">
        <ele>82</ele>
        <time>2021-07-05 17:37:23</time>
      </trkpt>
      <trkpt lat="28.07444" lon="-14.30957">
        <ele>80.8</ele>
        <time>2021-07-05 17:37:24</time>
      </trkpt>
      <trkpt lat="28.07437" lon="-14.30959">
        <ele>80.8</ele>
        <time>2021-07-05 17:37:25</time>
      </trkpt>
      <trkpt lat="28.0743" lon="-14.3096">
        <ele>80.2</ele>
        <time>2021-07-05 17:37:26</time>
      </trkpt>
      <trkpt lat="28.07424" lon="-14.30961">
        <ele>79.6</ele>
        <time>2021-07-05 17:37:27</time>
      </trkpt>
      <trkpt lat="28.07417" lon="-14.30962">
        <ele>79.2</ele>
        <time>2021-07-05 17:37:28</time>
      </trkpt>
      <trkpt lat="28.0741" lon="-14.30963">
        <ele>78.6</ele>
        <time>2021-07-05 17:37:29</time>
      </trkpt>
      <trkpt lat="28.07402" lon="-14.30963">
        <ele>78</ele>
        <time>2021-07-05 17:37:30</time>
      </trkpt>
      <trkpt lat="28.07395" lon="-14.30965">
        <ele>77.4</ele>
        <time>2021-07-05 17:37:31</time>
      </trkpt>
      <trkpt lat="28.07387" lon="-14.30966">
        <ele>76.8</ele>
        <time>2021-07-05 17:37:32</time>
      </trkpt>
      <trkpt lat="28.0738" lon="-14.30966">
        <ele>76.2</ele>
        <time>2021-07-05 17:37:33</time>
      </trkpt>
      <trkpt lat="28.0738" lon="-14.30966">
        <ele>75</ele>
        <time>2021-07-05 17:37:34</time>
      </trkpt>
      <trkpt lat="28.07367" lon="-14.30967">
        <ele>74.2</ele>
        <time>2021-07-05 17:37:35</time>
      </trkpt>
      <trkpt lat="28.07361" lon="-14.30968">
        <ele>74.2</ele>
        <time>2021-07-05 17:37:36</time>
      </trkpt>
      <trkpt lat="28.07355" lon="-14.30969">
        <ele>73</ele>
        <time>2021-07-05 17:37:37</time>
      </trkpt>
      <trkpt lat="28.07349" lon="-14.3097">
        <ele>73</ele>
        <time>2021-07-05 17:37:38</time>
      </trkpt>
      <trkpt lat="28.07342" lon="-14.30971">
        <ele>72.4</ele>
        <time>2021-07-05 17:37:39</time>
      </trkpt>
      <trkpt lat="28.07334" lon="-14.30972">
        <ele>71.8</ele>
        <time>2021-07-05 17:37:40</time>
      </trkpt>
      <trkpt lat="28.07327" lon="-14.30973">
        <ele>70.2</ele>
        <time>2021-07-05 17:37:41</time>
      </trkpt>
      <trkpt lat="28.07319" lon="-14.30974">
        <ele>69.4</ele>
        <time>2021-07-05 17:37:42</time>
      </trkpt>
      <trkpt lat="28.07312" lon="-14.30975">
        <ele>69.4</ele>
        <time>2021-07-05 17:37:43</time>
      </trkpt>
      <trkpt lat="28.07305" lon="-14.30976">
        <ele>67.8</ele>
        <time>2021-07-05 17:37:44</time>
      </trkpt>
      <trkpt lat="28.07298" lon="-14.30977">
        <ele>67.8</ele>
        <time>2021-07-05 17:37:45</time>
      </trkpt>
      <trkpt lat="28.07291" lon="-14.30978">
        <ele>66.2</ele>
        <time>2021-07-05 17:37:46</time>
      </trkpt>
      <trkpt lat="28.07285" lon="-14.30979">
        <ele>65.6</ele>
        <time>2021-07-05 17:37:47</time>
      </trkpt>
      <trkpt lat="28.07278" lon="-14.3098">
        <ele>65.6</ele>
        <time>2021-07-05 17:37:48</time>
      </trkpt>
      <trkpt lat="28.07271" lon="-14.3098">
        <ele>64.8</ele>
        <time>2021-07-05 17:37:49</time>
      </trkpt>
      <trkpt lat="28.07264" lon="-14.30981">
        <ele>64</ele>
        <time>2021-07-05 17:37:50</time>
      </trkpt>
      <trkpt lat="28.07258" lon="-14.30983">
        <ele>63.2</ele>
        <time>2021-07-05 17:37:51</time>
      </trkpt>
      <trkpt lat="28.07251" lon="-14.30983">
        <ele>62.8</ele>
        <time>2021-07-05 17:37:52</time>
      </trkpt>
      <trkpt lat="28.07245" lon="-14.30984">
        <ele>62</ele>
        <time>2021-07-05 17:37:53</time>
      </trkpt>
      <trkpt lat="28.07238" lon="-14.30985">
        <ele>61.2</ele>
        <time>2021-07-05 17:37:54</time>
      </trkpt>
      <trkpt lat="28.07233" lon="-14.30986">
        <ele>60.4</ele>
        <time>2021-07-05 17:37:55</time>
      </trkpt>
      <trkpt lat="28.07227" lon="-14.30986">
        <ele>59.2</ele>
        <time>2021-07-05 17:37:56</time>
      </trkpt>
      <trkpt lat="28.07222" lon="-14.30987">
        <ele>59.2</ele>
        <time>2021-07-05 17:37:57</time>
      </trkpt>
      <trkpt lat="28.07218" lon="-14.30987">
        <ele>58.4</ele>
        <time>2021-07-05 17:37:58</time>
      </trkpt>
      <trkpt lat="28.07214" lon="-14.30988">
        <ele>57.8</ele>
        <time>2021-07-05 17:37:59</time>
      </trkpt>
      <trkpt lat="28.0721" lon="-14.30989">
        <ele>56.4</ele>
        <time>2021-07-05 17:38:00</time>
      </trkpt>
      <trkpt lat="28.07208" lon="-14.30991">
        <ele>56.4</ele>
        <time>2021-07-05 17:38:01</time>
      </trkpt>
      <trkpt lat="28.07208" lon="-14.30994">
        <ele>55.8</ele>
        <time>2021-07-05 17:38:02</time>
      </trkpt>
      <trkpt lat="28.07208" lon="-14.30997">
        <ele>55</ele>
        <time>2021-07-05 17:38:03</time>
      </trkpt>
      <trkpt lat="28.07209" lon="-14.31001">
        <ele>54.6</ele>
        <time>2021-07-05 17:38:04</time>
      </trkpt>
      <trkpt lat="28.07209" lon="-14.31005">
        <ele>54.2</ele>
        <time>2021-07-05 17:38:05</time>
      </trkpt>
      <trkpt lat="28.0721" lon="-14.31008">
        <ele>54.2</ele>
        <time>2021-07-05 17:38:06</time>
      </trkpt>
      <trkpt lat="28.07211" lon="-14.31012">
        <ele>53.8</ele>
        <time>2021-07-05 17:38:07</time>
      </trkpt>
      <trkpt lat="28.07212" lon="-14.31017">
        <ele>53.6</ele>
        <time>2021-07-05 17:38:08</time>
      </trkpt>
      <trkpt lat="28.07213" lon="-14.31021">
        <ele>53.6</ele>
        <time>2021-07-05 17:38:09</time>
      </trkpt>
      <trkpt lat="28.07214" lon="-14.31025">
        <ele>53.6</ele>
        <time>2021-07-05 17:38:10</time>
      </trkpt>
      <trkpt lat="28.07215" lon="-14.31029">
        <ele>53.6</ele>
        <time>2021-07-05 17:38:11</time>
      </trkpt>
      <trkpt lat="28.07216" lon="-14.31033">
        <ele>53.6</ele>
        <time>2021-07-05 17:38:12</time>
      </trkpt>
      <trkpt lat="28.07217" lon="-14.31038">
        <ele>54</ele>
        <time>2021-07-05 17:38:13</time>
      </trkpt>
      <trkpt lat="28.07218" lon="-14.31042">
        <ele>54</ele>
        <time>2021-07-05 17:38:14</time>
      </trkpt>
      <trkpt lat="28.0722" lon="-14.31047">
        <ele>54</ele>
        <time>2021-07-05 17:38:15</time>
      </trkpt>
      <trkpt lat="28.07221" lon="-14.31051">
        <ele>54.2</ele>
        <time>2021-07-05 17:38:16</time>
      </trkpt>
      <trkpt lat="28.07222" lon="-14.31056">
        <ele>54.2</ele>
        <time>2021-07-05 17:38:17</time>
      </trkpt>
      <trkpt lat="28.07223" lon="-14.3106">
        <ele>54.2</ele>
        <time>2021-07-05 17:38:18</time>
      </trkpt>
      <trkpt lat="28.07224" lon="-14.31065">
        <ele>54.2</ele>
        <time>2021-07-05 17:38:19</time>
      </trkpt>
      <trkpt lat="28.07225" lon="-14.31069">
        <ele>54.2</ele>
        <time>2021-07-05 17:38:20</time>
      </trkpt>
      <trkpt lat="28.07226" lon="-14.31073">
        <ele>54.2</ele>
        <time>2021-07-05 17:38:21</time>
      </trkpt>
      <trkpt lat="28.07226" lon="-14.31078">
        <ele>54.2</ele>
        <time>2021-07-05 17:38:22</time>
      </trkpt>
      <trkpt lat="28.07226" lon="-14.31082">
        <ele>54.2</ele>
        <time>2021-07-05 17:38:23</time>
      </trkpt>
      <trkpt lat="28.07226" lon="-14.31087">
        <ele>54.4</ele>
        <time>2021-07-05 17:38:24</time>
      </trkpt>
      <trkpt lat="28.07226" lon="-14.31091">
        <ele>54.4</ele>
        <time>2021-07-05 17:38:25</time>
      </trkpt>
      <trkpt lat="28.07226" lon="-14.31096">
        <ele>54.4</ele>
        <time>2021-07-05 17:38:26</time>
      </trkpt>
      <trkpt lat="28.07225" lon="-14.311">
        <ele>54.2</ele>
        <time>2021-07-05 17:38:27</time>
      </trkpt>
      <trkpt lat="28.07224" lon="-14.31104">
        <ele>54.2</ele>
        <time>2021-07-05 17:38:28</time>
      </trkpt>
      <trkpt lat="28.07223" lon="-14.31109">
        <ele>54.6</ele>
        <time>2021-07-05 17:38:29</time>
      </trkpt>
      <trkpt lat="28.07222" lon="-14.31113">
        <ele>54.6</ele>
        <time>2021-07-05 17:38:30</time>
      </trkpt>
      <trkpt lat="28.07221" lon="-14.31117">
        <ele>54.8</ele>
        <time>2021-07-05 17:38:31</time>
      </trkpt>
      <trkpt lat="28.0722" lon="-14.31121">
        <ele>55</ele>
        <time>2021-07-05 17:38:32</time>
      </trkpt>
      <trkpt lat="28.07218" lon="-14.31126">
        <ele>55.4</ele>
        <time>2021-07-05 17:38:33</time>
      </trkpt>
      <trkpt lat="28.07215" lon="-14.3113">
        <ele>55.4</ele>
        <time>2021-07-05 17:38:34</time>
      </trkpt>
      <trkpt lat="28.07213" lon="-14.31134">
        <ele>55.6</ele>
        <time>2021-07-05 17:38:35</time>
      </trkpt>
      <trkpt lat="28.0721" lon="-14.31138">
        <ele>55.6</ele>
        <time>2021-07-05 17:38:36</time>
      </trkpt>
      <trkpt lat="28.07208" lon="-14.31142">
        <ele>56.2</ele>
        <time>2021-07-05 17:38:37</time>
      </trkpt>
      <trkpt lat="28.07206" lon="-14.31146">
        <ele>56.6</ele>
        <time>2021-07-05 17:38:38</time>
      </trkpt>
      <trkpt lat="28.07204" lon="-14.31149">
        <ele>57.2</ele>
        <time>2021-07-05 17:38:39</time>
      </trkpt>
      <trkpt lat="28.07201" lon="-14.31153">
        <ele>59</ele>
        <time>2021-07-05 17:38:40</time>
      </trkpt>
      <trkpt lat="28.07198" lon="-14.31156">
        <ele>59.6</ele>
        <time>2021-07-05 17:38:41</time>
      </trkpt>
      <trkpt lat="28.07195" lon="-14.31158">
        <ele>59.6</ele>
        <time>2021-07-05 17:38:42</time>
      </trkpt>
      <trkpt lat="28.07192" lon="-14.31161">
        <ele>60</ele>
        <time>2021-07-05 17:38:43</time>
      </trkpt>
      <trkpt lat="28.07188" lon="-14.31163">
        <ele>60</ele>
        <time>2021-07-05 17:38:44</time>
      </trkpt>
      <trkpt lat="28.07185" lon="-14.31166">
        <ele>60</ele>
        <time>2021-07-05 17:38:45</time>
      </trkpt>
      <trkpt lat="28.07181" lon="-14.31168">
        <ele>60.2</ele>
        <time>2021-07-05 17:38:46</time>
      </trkpt>
      <trkpt lat="28.07178" lon="-14.3117">
        <ele>60.2</ele>
        <time>2021-07-05 17:38:47</time>
      </trkpt>
      <trkpt lat="28.07174" lon="-14.31172">
        <ele>60</ele>
        <time>2021-07-05 17:38:48</time>
      </trkpt>
      <trkpt lat="28.07171" lon="-14.31174">
        <ele>60</ele>
        <time>2021-07-05 17:38:49</time>
      </trkpt>
      <trkpt lat="28.07167" lon="-14.31175">
        <ele>59.6</ele>
        <time>2021-07-05 17:38:50</time>
      </trkpt>
      <trkpt lat="28.07163" lon="-14.31176">
        <ele>59.2</ele>
        <time>2021-07-05 17:38:51</time>
      </trkpt>
      <trkpt lat="28.0716" lon="-14.31177">
        <ele>59</ele>
        <time>2021-07-05 17:38:52</time>
      </trkpt>
      <trkpt lat="28.07156" lon="-14.31178">
        <ele>58.6</ele>
        <time>2021-07-05 17:38:53</time>
      </trkpt>
      <trkpt lat="28.07152" lon="-14.31178">
        <ele>58.2</ele>
        <time>2021-07-05 17:38:54</time>
      </trkpt>
      <trkpt lat="28.07149" lon="-14.31179">
        <ele>58</ele>
        <time>2021-07-05 17:38:55</time>
      </trkpt>
      <trkpt lat="28.07146" lon="-14.31179">
        <ele>58</ele>
        <time>2021-07-05 17:38:56</time>
      </trkpt>
      <trkpt lat="28.07141" lon="-14.31179">
        <ele>58</ele>
        <time>2021-07-05 17:38:57</time>
      </trkpt>
      <trkpt lat="28.07137" lon="-14.31178">
        <ele>57.6</ele>
        <time>2021-07-05 17:38:58</time>
      </trkpt>
      <trkpt lat="28.07133" lon="-14.31177">
        <ele>57.6</ele>
        <time>2021-07-05 17:38:59</time>
      </trkpt>
      <trkpt lat="28.07128" lon="-14.31176">
        <ele>57.2</ele>
        <time>2021-07-05 17:39:00</time>
      </trkpt>
      <trkpt lat="28.07124" lon="-14.31176">
        <ele>57.2</ele>
        <time>2021-07-05 17:39:01</time>
      </trkpt>
      <trkpt lat="28.07119" lon="-14.31174">
        <ele>57</ele>
        <time>2021-07-05 17:39:02</time>
      </trkpt>
      <trkpt lat="28.07114" lon="-14.31172">
        <ele>57</ele>
        <time>2021-07-05 17:39:03</time>
      </trkpt>
      <trkpt lat="28.07109" lon="-14.3117">
        <ele>57</ele>
        <time>2021-07-05 17:39:04</time>
      </trkpt>
      <trkpt lat="28.07105" lon="-14.31168">
        <ele>56.8</ele>
        <time>2021-07-05 17:39:05</time>
      </trkpt>
      <trkpt lat="28.071" lon="-14.31165">
        <ele>56.8</ele>
        <time>2021-07-05 17:39:06</time>
      </trkpt>
      <trkpt lat="28.07096" lon="-14.31162">
        <ele>56.8</ele>
        <time>2021-07-05 17:39:07</time>
      </trkpt>
      <trkpt lat="28.07091" lon="-14.31159">
        <ele>56.6</ele>
        <time>2021-07-05 17:39:08</time>
      </trkpt>
      <trkpt lat="28.07087" lon="-14.31156">
        <ele>56.6</ele>
        <time>2021-07-05 17:39:09</time>
      </trkpt>
      <trkpt lat="28.07083" lon="-14.31153">
        <ele>56.6</ele>
        <time>2021-07-05 17:39:10</time>
      </trkpt>
      <trkpt lat="28.07079" lon="-14.31149">
        <ele>56.6</ele>
        <time>2021-07-05 17:39:11</time>
      </trkpt>
      <trkpt lat="28.07075" lon="-14.31146">
        <ele>56.6</ele>
        <time>2021-07-05 17:39:12</time>
      </trkpt>
      <trkpt lat="28.07071" lon="-14.31143">
        <ele>56.6</ele>
        <time>2021-07-05 17:39:13</time>
      </trkpt>
      <trkpt lat="28.07067" lon="-14.31139">
        <ele>56.6</ele>
        <time>2021-07-05 17:39:14</time>
      </trkpt>
      <trkpt lat="28.07063" lon="-14.31136">
        <ele>56.4</ele>
        <time>2021-07-05 17:39:15</time>
      </trkpt>
      <trkpt lat="28.07058" lon="-14.31133">
        <ele>56.4</ele>
        <time>2021-07-05 17:39:16</time>
      </trkpt>
      <trkpt lat="28.07054" lon="-14.31129">
        <ele>56.4</ele>
        <time>2021-07-05 17:39:17</time>
      </trkpt>
      <trkpt lat="28.0705" lon="-14.31126">
        <ele>56.4</ele>
        <time>2021-07-05 17:39:18</time>
      </trkpt>
      <trkpt lat="28.07045" lon="-14.31123">
        <ele>56.4</ele>
        <time>2021-07-05 17:39:19</time>
      </trkpt>
      <trkpt lat="28.07041" lon="-14.31119">
        <ele>56.4</ele>
        <time>2021-07-05 17:39:20</time>
      </trkpt>
      <trkpt lat="28.07036" lon="-14.31115">
        <ele>56.4</ele>
        <time>2021-07-05 17:39:21</time>
      </trkpt>
      <trkpt lat="28.07032" lon="-14.31112">
        <ele>56.4</ele>
        <time>2021-07-05 17:39:22</time>
      </trkpt>
      <trkpt lat="28.07027" lon="-14.31109">
        <ele>56.2</ele>
        <time>2021-07-05 17:39:23</time>
      </trkpt>
      <trkpt lat="28.07023" lon="-14.31105">
        <ele>56.2</ele>
        <time>2021-07-05 17:39:24</time>
      </trkpt>
      <trkpt lat="28.07019" lon="-14.31102">
        <ele>56.2</ele>
        <time>2021-07-05 17:39:25</time>
      </trkpt>
      <trkpt lat="28.07015" lon="-14.31099">
        <ele>56.2</ele>
        <time>2021-07-05 17:39:26</time>
      </trkpt>
      <trkpt lat="28.07011" lon="-14.31095">
        <ele>56.2</ele>
        <time>2021-07-05 17:39:27</time>
      </trkpt>
      <trkpt lat="28.07006" lon="-14.31092">
        <ele>56.2</ele>
        <time>2021-07-05 17:39:28</time>
      </trkpt>
      <trkpt lat="28.07001" lon="-14.31089">
        <ele>56.4</ele>
        <time>2021-07-05 17:39:29</time>
      </trkpt>
      <trkpt lat="28.06997" lon="-14.31085">
        <ele>56.4</ele>
        <time>2021-07-05 17:39:30</time>
      </trkpt>
      <trkpt lat="28.06992" lon="-14.31082">
        <ele>56.4</ele>
        <time>2021-07-05 17:39:31</time>
      </trkpt>
      <trkpt lat="28.06988" lon="-14.31079">
        <ele>56.6</ele>
        <time>2021-07-05 17:39:32</time>
      </trkpt>
      <trkpt lat="28.06984" lon="-14.31075">
        <ele>56.6</ele>
        <time>2021-07-05 17:39:33</time>
      </trkpt>
      <trkpt lat="28.06979" lon="-14.31071">
        <ele>56.6</ele>
        <time>2021-07-05 17:39:34</time>
      </trkpt>
      <trkpt lat="28.06975" lon="-14.31068">
        <ele>56.8</ele>
        <time>2021-07-05 17:39:35</time>
      </trkpt>
      <trkpt lat="28.0697" lon="-14.31064">
        <ele>56.8</ele>
        <time>2021-07-05 17:39:36</time>
      </trkpt>
      <trkpt lat="28.06966" lon="-14.31061">
        <ele>57</ele>
        <time>2021-07-05 17:39:37</time>
      </trkpt>
      <trkpt lat="28.06962" lon="-14.31059">
        <ele>57</ele>
        <time>2021-07-05 17:39:38</time>
      </trkpt>
      <trkpt lat="28.06958" lon="-14.31056">
        <ele>57.6</ele>
        <time>2021-07-05 17:39:39</time>
      </trkpt>
      <trkpt lat="28.06955" lon="-14.31053">
        <ele>57.6</ele>
        <time>2021-07-05 17:39:40</time>
      </trkpt>
      <trkpt lat="28.06951" lon="-14.31049">
        <ele>57.8</ele>
        <time>2021-07-05 17:39:41</time>
      </trkpt>
      <trkpt lat="28.06947" lon="-14.31046">
        <ele>57.8</ele>
        <time>2021-07-05 17:39:42</time>
      </trkpt>
      <trkpt lat="28.06943" lon="-14.31043">
        <ele>57.8</ele>
        <time>2021-07-05 17:39:43</time>
      </trkpt>
      <trkpt lat="28.06939" lon="-14.31041">
        <ele>58.2</ele>
        <time>2021-07-05 17:39:44</time>
      </trkpt>
      <trkpt lat="28.06936" lon="-14.31037">
        <ele>58.4</ele>
        <time>2021-07-05 17:39:45</time>
      </trkpt>
      <trkpt lat="28.06932" lon="-14.31034">
        <ele>58.4</ele>
        <time>2021-07-05 17:39:46</time>
      </trkpt>
      <trkpt lat="28.06928" lon="-14.31032">
        <ele>58.6</ele>
        <time>2021-07-05 17:39:47</time>
      </trkpt>
      <trkpt lat="28.06924" lon="-14.3103">
        <ele>58.6</ele>
        <time>2021-07-05 17:39:48</time>
      </trkpt>
      <trkpt lat="28.06921" lon="-14.31027">
        <ele>58.6</ele>
        <time>2021-07-05 17:39:49</time>
      </trkpt>
      <trkpt lat="28.06917" lon="-14.31024">
        <ele>58.6</ele>
        <time>2021-07-05 17:39:50</time>
      </trkpt>
      <trkpt lat="28.06913" lon="-14.31022">
        <ele>58.6</ele>
        <time>2021-07-05 17:39:51</time>
      </trkpt>
      <trkpt lat="28.06908" lon="-14.3102">
        <ele>58.6</ele>
        <time>2021-07-05 17:39:52</time>
      </trkpt>
      <trkpt lat="28.06904" lon="-14.31017">
        <ele>58.6</ele>
        <time>2021-07-05 17:39:53</time>
      </trkpt>
      <trkpt lat="28.069" lon="-14.31015">
        <ele>58.6</ele>
        <time>2021-07-05 17:39:54</time>
      </trkpt>
      <trkpt lat="28.06895" lon="-14.31013">
        <ele>58.4</ele>
        <time>2021-07-05 17:39:55</time>
      </trkpt>
      <trkpt lat="28.06891" lon="-14.31011">
        <ele>58.4</ele>
        <time>2021-07-05 17:39:56</time>
      </trkpt>
      <trkpt lat="28.06887" lon="-14.31009">
        <ele>58.4</ele>
        <time>2021-07-05 17:39:57</time>
      </trkpt>
      <trkpt lat="28.06883" lon="-14.31008">
        <ele>58</ele>
        <time>2021-07-05 17:39:58</time>
      </trkpt>
      <trkpt lat="28.06879" lon="-14.31007">
        <ele>58</ele>
        <time>2021-07-05 17:39:59</time>
      </trkpt>
      <trkpt lat="28.06875" lon="-14.31005">
        <ele>58</ele>
        <time>2021-07-05 17:40:00</time>
      </trkpt>
      <trkpt lat="28.0687" lon="-14.31003">
        <ele>57.8</ele>
        <time>2021-07-05 17:40:01</time>
      </trkpt>
      <trkpt lat="28.06866" lon="-14.31003">
        <ele>57.8</ele>
        <time>2021-07-05 17:40:02</time>
      </trkpt>
      <trkpt lat="28.06861" lon="-14.31002">
        <ele>57.8</ele>
        <time>2021-07-05 17:40:03</time>
      </trkpt>
      <trkpt lat="28.06856" lon="-14.31001">
        <ele>57.8</ele>
        <time>2021-07-05 17:40:04</time>
      </trkpt>
      <trkpt lat="28.06851" lon="-14.31">
        <ele>57.6</ele>
        <time>2021-07-05 17:40:05</time>
      </trkpt>
      <trkpt lat="28.06846" lon="-14.30999">
        <ele>57.6</ele>
        <time>2021-07-05 17:40:06</time>
      </trkpt>
      <trkpt lat="28.06841" lon="-14.30998">
        <ele>57.4</ele>
        <time>2021-07-05 17:40:07</time>
      </trkpt>
      <trkpt lat="28.06836" lon="-14.30998">
        <ele>57.4</ele>
        <time>2021-07-05 17:40:08</time>
      </trkpt>
      <trkpt lat="28.06832" lon="-14.30997">
        <ele>57.4</ele>
        <time>2021-07-05 17:40:09</time>
      </trkpt>
      <trkpt lat="28.06827" lon="-14.30997">
        <ele>57.4</ele>
        <time>2021-07-05 17:40:10</time>
      </trkpt>
      <trkpt lat="28.06822" lon="-14.30998">
        <ele>57.4</ele>
        <time>2021-07-05 17:40:11</time>
      </trkpt>
      <trkpt lat="28.06817" lon="-14.30998">
        <ele>57.4</ele>
        <time>2021-07-05 17:40:12</time>
      </trkpt>
      <trkpt lat="28.06812" lon="-14.30999">
        <ele>57.4</ele>
        <time>2021-07-05 17:40:13</time>
      </trkpt>
      <trkpt lat="28.06807" lon="-14.30999">
        <ele>57.4</ele>
        <time>2021-07-05 17:40:14</time>
      </trkpt>
      <trkpt lat="28.06803" lon="-14.31">
        <ele>57.4</ele>
        <time>2021-07-05 17:40:15</time>
      </trkpt>
      <trkpt lat="28.06799" lon="-14.31001">
        <ele>57.4</ele>
        <time>2021-07-05 17:40:16</time>
      </trkpt>
      <trkpt lat="28.06794" lon="-14.31002">
        <ele>57.4</ele>
        <time>2021-07-05 17:40:17</time>
      </trkpt>
      <trkpt lat="28.06789" lon="-14.31003">
        <ele>57.4</ele>
        <time>2021-07-05 17:40:18</time>
      </trkpt>
      <trkpt lat="28.06784" lon="-14.31004">
        <ele>57.4</ele>
        <time>2021-07-05 17:40:19</time>
      </trkpt>
      <trkpt lat="28.0678" lon="-14.31005">
        <ele>57.4</ele>
        <time>2021-07-05 17:40:20</time>
      </trkpt>
      <trkpt lat="28.06775" lon="-14.31007">
        <ele>57.8</ele>
        <time>2021-07-05 17:40:21</time>
      </trkpt>
      <trkpt lat="28.0677" lon="-14.31009">
        <ele>57.8</ele>
        <time>2021-07-05 17:40:22</time>
      </trkpt>
      <trkpt lat="28.06765" lon="-14.31011">
        <ele>58</ele>
        <time>2021-07-05 17:40:23</time>
      </trkpt>
      <trkpt lat="28.06761" lon="-14.31013">
        <ele>58</ele>
        <time>2021-07-05 17:40:24</time>
      </trkpt>
      <trkpt lat="28.06756" lon="-14.31016">
        <ele>58</ele>
        <time>2021-07-05 17:40:25</time>
      </trkpt>
      <trkpt lat="28.06752" lon="-14.31018">
        <ele>58</ele>
        <time>2021-07-05 17:40:26</time>
      </trkpt>
      <trkpt lat="28.06747" lon="-14.31021">
        <ele>58</ele>
        <time>2021-07-05 17:40:27</time>
      </trkpt>
      <trkpt lat="28.06742" lon="-14.31024">
        <ele>57.8</ele>
        <time>2021-07-05 17:40:28</time>
      </trkpt>
      <trkpt lat="28.06738" lon="-14.31026">
        <ele>57.8</ele>
        <time>2021-07-05 17:40:29</time>
      </trkpt>
      <trkpt lat="28.06734" lon="-14.31029">
        <ele>57.6</ele>
        <time>2021-07-05 17:40:30</time>
      </trkpt>
      <trkpt lat="28.0673" lon="-14.31032">
        <ele>57.6</ele>
        <time>2021-07-05 17:40:31</time>
      </trkpt>
      <trkpt lat="28.06727" lon="-14.31035">
        <ele>57.4</ele>
        <time>2021-07-05 17:40:32</time>
      </trkpt>
      <trkpt lat="28.06723" lon="-14.31038">
        <ele>57.4</ele>
        <time>2021-07-05 17:40:33</time>
      </trkpt>
      <trkpt lat="28.06719" lon="-14.31041">
        <ele>57</ele>
        <time>2021-07-05 17:40:34</time>
      </trkpt>
      <trkpt lat="28.06715" lon="-14.31044">
        <ele>57</ele>
        <time>2021-07-05 17:40:35</time>
      </trkpt>
      <trkpt lat="28.06711" lon="-14.31048">
        <ele>57</ele>
        <time>2021-07-05 17:40:36</time>
      </trkpt>
      <trkpt lat="28.06708" lon="-14.31051">
        <ele>57</ele>
        <time>2021-07-05 17:40:37</time>
      </trkpt>
      <trkpt lat="28.06704" lon="-14.31055">
        <ele>57</ele>
        <time>2021-07-05 17:40:38</time>
      </trkpt>
      <trkpt lat="28.067" lon="-14.31059">
        <ele>57</ele>
        <time>2021-07-05 17:40:39</time>
      </trkpt>
      <trkpt lat="28.06697" lon="-14.31062">
        <ele>57</ele>
        <time>2021-07-05 17:40:40</time>
      </trkpt>
      <trkpt lat="28.06693" lon="-14.31066">
        <ele>57</ele>
        <time>2021-07-05 17:40:41</time>
      </trkpt>
      <trkpt lat="28.0669" lon="-14.3107">
        <ele>57</ele>
        <time>2021-07-05 17:40:42</time>
      </trkpt>
      <trkpt lat="28.06687" lon="-14.31073">
        <ele>57</ele>
        <time>2021-07-05 17:40:43</time>
      </trkpt>
      <trkpt lat="28.06683" lon="-14.31076">
        <ele>57</ele>
        <time>2021-07-05 17:40:44</time>
      </trkpt>
      <trkpt lat="28.0668" lon="-14.3108">
        <ele>57</ele>
        <time>2021-07-05 17:40:45</time>
      </trkpt>
      <trkpt lat="28.06676" lon="-14.31084">
        <ele>57.4</ele>
        <time>2021-07-05 17:40:46</time>
      </trkpt>
      <trkpt lat="28.06672" lon="-14.31087">
        <ele>57.4</ele>
        <time>2021-07-05 17:40:47</time>
      </trkpt>
      <trkpt lat="28.06669" lon="-14.3109">
        <ele>57.6</ele>
        <time>2021-07-05 17:40:48</time>
      </trkpt>
      <trkpt lat="28.06666" lon="-14.31094">
        <ele>57.6</ele>
        <time>2021-07-05 17:40:49</time>
      </trkpt>
      <trkpt lat="28.06662" lon="-14.31097">
        <ele>57.6</ele>
        <time>2021-07-05 17:40:50</time>
      </trkpt>
      <trkpt lat="28.06659" lon="-14.31101">
        <ele>57.8</ele>
        <time>2021-07-05 17:40:51</time>
      </trkpt>
      <trkpt lat="28.06655" lon="-14.31105">
        <ele>57.8</ele>
        <time>2021-07-05 17:40:52</time>
      </trkpt>
      <trkpt lat="28.06651" lon="-14.31108">
        <ele>57.8</ele>
        <time>2021-07-05 17:40:53</time>
      </trkpt>
      <trkpt lat="28.06648" lon="-14.31112">
        <ele>58.2</ele>
        <time>2021-07-05 17:40:54</time>
      </trkpt>
      <trkpt lat="28.06645" lon="-14.31115">
        <ele>58.2</ele>
        <time>2021-07-05 17:40:55</time>
      </trkpt>
      <trkpt lat="28.06641" lon="-14.31119">
        <ele>58.2</ele>
        <time>2021-07-05 17:40:56</time>
      </trkpt>
      <trkpt lat="28.06637" lon="-14.31123">
        <ele>58.2</ele>
        <time>2021-07-05 17:40:57</time>
      </trkpt>
      <trkpt lat="28.06634" lon="-14.31126">
        <ele>58.4</ele>
        <time>2021-07-05 17:40:58</time>
      </trkpt>
      <trkpt lat="28.06631" lon="-14.3113">
        <ele>58.4</ele>
        <time>2021-07-05 17:40:59</time>
      </trkpt>
      <trkpt lat="28.06627" lon="-14.31133">
        <ele>58.4</ele>
        <time>2021-07-05 17:41:00</time>
      </trkpt>
      <trkpt lat="28.06624" lon="-14.31137">
        <ele>58.6</ele>
        <time>2021-07-05 17:41:01</time>
      </trkpt>
      <trkpt lat="28.0662" lon="-14.3114">
        <ele>58.6</ele>
        <time>2021-07-05 17:41:02</time>
      </trkpt>
      <trkpt lat="28.06617" lon="-14.31143">
        <ele>58.6</ele>
        <time>2021-07-05 17:41:03</time>
      </trkpt>
      <trkpt lat="28.06615" lon="-14.31145">
        <ele>59</ele>
        <time>2021-07-05 17:41:04</time>
      </trkpt>
      <trkpt lat="28.06612" lon="-14.31147">
        <ele>59</ele>
        <time>2021-07-05 17:41:05</time>
      </trkpt>
      <trkpt lat="28.0661" lon="-14.3115">
        <ele>59</ele>
        <time>2021-07-05 17:41:06</time>
      </trkpt>
      <trkpt lat="28.06607" lon="-14.31153">
        <ele>59</ele>
        <time>2021-07-05 17:41:07</time>
      </trkpt>
      <trkpt lat="28.06604" lon="-14.31156">
        <ele>59</ele>
        <time>2021-07-05 17:41:08</time>
      </trkpt>
      <trkpt lat="28.06599" lon="-14.3116">
        <ele>58.8</ele>
        <time>2021-07-05 17:41:09</time>
      </trkpt>
      <trkpt lat="28.06596" lon="-14.31164">
        <ele>58.8</ele>
        <time>2021-07-05 17:41:10</time>
      </trkpt>
      <trkpt lat="28.06593" lon="-14.31168">
        <ele>58.8</ele>
        <time>2021-07-05 17:41:11</time>
      </trkpt>
      <trkpt lat="28.0659" lon="-14.31172">
        <ele>58.4</ele>
        <time>2021-07-05 17:41:12</time>
      </trkpt>
      <trkpt lat="28.06587" lon="-14.31175">
        <ele>58</ele>
        <time>2021-07-05 17:41:13</time>
      </trkpt>
      <trkpt lat="28.06583" lon="-14.31179">
        <ele>58</ele>
        <time>2021-07-05 17:41:14</time>
      </trkpt>
      <trkpt lat="28.0658" lon="-14.31183">
        <ele>58</ele>
        <time>2021-07-05 17:41:15</time>
      </trkpt>
      <trkpt lat="28.06576" lon="-14.31187">
        <ele>58.4</ele>
        <time>2021-07-05 17:41:16</time>
      </trkpt>
      <trkpt lat="28.06573" lon="-14.31191">
        <ele>58.6</ele>
        <time>2021-07-05 17:41:17</time>
      </trkpt>
      <trkpt lat="28.06569" lon="-14.31194">
        <ele>58.6</ele>
        <time>2021-07-05 17:41:18</time>
      </trkpt>
      <trkpt lat="28.06565" lon="-14.31198">
        <ele>58.8</ele>
        <time>2021-07-05 17:41:19</time>
      </trkpt>
      <trkpt lat="28.06562" lon="-14.31201">
        <ele>58.8</ele>
        <time>2021-07-05 17:41:20</time>
      </trkpt>
      <trkpt lat="28.06558" lon="-14.31205">
        <ele>58.8</ele>
        <time>2021-07-05 17:41:21</time>
      </trkpt>
      <trkpt lat="28.06554" lon="-14.31209">
        <ele>58.8</ele>
        <time>2021-07-05 17:41:22</time>
      </trkpt>
      <trkpt lat="28.0655" lon="-14.31213">
        <ele>58.6</ele>
        <time>2021-07-05 17:41:23</time>
      </trkpt>
      <trkpt lat="28.06547" lon="-14.31217">
        <ele>58.6</ele>
        <time>2021-07-05 17:41:24</time>
      </trkpt>
      <trkpt lat="28.06543" lon="-14.3122">
        <ele>58.6</ele>
        <time>2021-07-05 17:41:25</time>
      </trkpt>
      <trkpt lat="28.0654" lon="-14.31224">
        <ele>58.2</ele>
        <time>2021-07-05 17:41:26</time>
      </trkpt>
      <trkpt lat="28.06536" lon="-14.31227">
        <ele>57.8</ele>
        <time>2021-07-05 17:41:27</time>
      </trkpt>
      <trkpt lat="28.06533" lon="-14.31231">
        <ele>57.6</ele>
        <time>2021-07-05 17:41:28</time>
      </trkpt>
      <trkpt lat="28.06529" lon="-14.31235">
        <ele>57.6</ele>
        <time>2021-07-05 17:41:29</time>
      </trkpt>
      <trkpt lat="28.06526" lon="-14.31239">
        <ele>57.2</ele>
        <time>2021-07-05 17:41:30</time>
      </trkpt>
      <trkpt lat="28.06522" lon="-14.31243">
        <ele>57.2</ele>
        <time>2021-07-05 17:41:31</time>
      </trkpt>
      <trkpt lat="28.06518" lon="-14.31247">
        <ele>57.2</ele>
        <time>2021-07-05 17:41:32</time>
      </trkpt>
      <trkpt lat="28.06514" lon="-14.31252">
        <ele>57.2</ele>
        <time>2021-07-05 17:41:33</time>
      </trkpt>
      <trkpt lat="28.06511" lon="-14.31256">
        <ele>57.2</ele>
        <time>2021-07-05 17:41:34</time>
      </trkpt>
      <trkpt lat="28.06507" lon="-14.31259">
        <ele>57.2</ele>
        <time>2021-07-05 17:41:35</time>
      </trkpt>
      <trkpt lat="28.06503" lon="-14.31263">
        <ele>57.6</ele>
        <time>2021-07-05 17:41:36</time>
      </trkpt>
      <trkpt lat="28.06499" lon="-14.31268">
        <ele>57.6</ele>
        <time>2021-07-05 17:41:37</time>
      </trkpt>
      <trkpt lat="28.06495" lon="-14.31272">
        <ele>57.6</ele>
        <time>2021-07-05 17:41:38</time>
      </trkpt>
      <trkpt lat="28.06491" lon="-14.31276">
        <ele>57.6</ele>
        <time>2021-07-05 17:41:39</time>
      </trkpt>
      <trkpt lat="28.06487" lon="-14.3128">
        <ele>57.2</ele>
        <time>2021-07-05 17:41:40</time>
      </trkpt>
      <trkpt lat="28.06483" lon="-14.31284">
        <ele>57.2</ele>
        <time>2021-07-05 17:41:41</time>
      </trkpt>
      <trkpt lat="28.06479" lon="-14.31287">
        <ele>57.2</ele>
        <time>2021-07-05 17:41:42</time>
      </trkpt>
      <trkpt lat="28.06476" lon="-14.31291">
        <ele>57.6</ele>
        <time>2021-07-05 17:41:43</time>
      </trkpt>
      <trkpt lat="28.06473" lon="-14.31295">
        <ele>57.6</ele>
        <time>2021-07-05 17:41:44</time>
      </trkpt>
      <trkpt lat="28.06469" lon="-14.31298">
        <ele>57.8</ele>
        <time>2021-07-05 17:41:45</time>
      </trkpt>
      <trkpt lat="28.06466" lon="-14.31301">
        <ele>58.2</ele>
        <time>2021-07-05 17:41:46</time>
      </trkpt>
      <trkpt lat="28.06463" lon="-14.31305">
        <ele>58.2</ele>
        <time>2021-07-05 17:41:47</time>
      </trkpt>
      <trkpt lat="28.0646" lon="-14.31308">
        <ele>58.2</ele>
        <time>2021-07-05 17:41:48</time>
      </trkpt>
      <trkpt lat="28.06457" lon="-14.31311">
        <ele>58.6</ele>
        <time>2021-07-05 17:41:49</time>
      </trkpt>
      <trkpt lat="28.06454" lon="-14.31315">
        <ele>58.6</ele>
        <time>2021-07-05 17:41:50</time>
      </trkpt>
      <trkpt lat="28.0645" lon="-14.31318">
        <ele>58.6</ele>
        <time>2021-07-05 17:41:51</time>
      </trkpt>
      <trkpt lat="28.06447" lon="-14.31322">
        <ele>58.6</ele>
        <time>2021-07-05 17:41:52</time>
      </trkpt>
      <trkpt lat="28.06443" lon="-14.31325">
        <ele>58.6</ele>
        <time>2021-07-05 17:41:53</time>
      </trkpt>
      <trkpt lat="28.06439" lon="-14.31329">
        <ele>58.6</ele>
        <time>2021-07-05 17:41:54</time>
      </trkpt>
      <trkpt lat="28.06435" lon="-14.31332">
        <ele>58.6</ele>
        <time>2021-07-05 17:41:55</time>
      </trkpt>
      <trkpt lat="28.06431" lon="-14.31336">
        <ele>58.8</ele>
        <time>2021-07-05 17:41:56</time>
      </trkpt>
      <trkpt lat="28.06427" lon="-14.31339">
        <ele>59</ele>
        <time>2021-07-05 17:41:57</time>
      </trkpt>
      <trkpt lat="28.06423" lon="-14.31343">
        <ele>59</ele>
        <time>2021-07-05 17:41:58</time>
      </trkpt>
      <trkpt lat="28.06419" lon="-14.31347">
        <ele>59</ele>
        <time>2021-07-05 17:41:59</time>
      </trkpt>
      <trkpt lat="28.06415" lon="-14.31351">
        <ele>59</ele>
        <time>2021-07-05 17:42:00</time>
      </trkpt>
      <trkpt lat="28.06411" lon="-14.31355">
        <ele>59</ele>
        <time>2021-07-05 17:42:01</time>
      </trkpt>
      <trkpt lat="28.06407" lon="-14.31359">
        <ele>59</ele>
        <time>2021-07-05 17:42:02</time>
      </trkpt>
      <trkpt lat="28.06404" lon="-14.31363">
        <ele>59</ele>
        <time>2021-07-05 17:42:03</time>
      </trkpt>
      <trkpt lat="28.06401" lon="-14.31367">
        <ele>59</ele>
        <time>2021-07-05 17:42:04</time>
      </trkpt>
      <trkpt lat="28.06398" lon="-14.3137">
        <ele>59.2</ele>
        <time>2021-07-05 17:42:05</time>
      </trkpt>
      <trkpt lat="28.06394" lon="-14.31373">
        <ele>59.2</ele>
        <time>2021-07-05 17:42:06</time>
      </trkpt>
      <trkpt lat="28.06391" lon="-14.31377">
        <ele>59.2</ele>
        <time>2021-07-05 17:42:07</time>
      </trkpt>
      <trkpt lat="28.06388" lon="-14.3138">
        <ele>59.6</ele>
        <time>2021-07-05 17:42:08</time>
      </trkpt>
      <trkpt lat="28.06384" lon="-14.31384">
        <ele>59.6</ele>
        <time>2021-07-05 17:42:09</time>
      </trkpt>
      <trkpt lat="28.06381" lon="-14.31388">
        <ele>59.8</ele>
        <time>2021-07-05 17:42:10</time>
      </trkpt>
      <trkpt lat="28.06377" lon="-14.31392">
        <ele>59.8</ele>
        <time>2021-07-05 17:42:11</time>
      </trkpt>
      <trkpt lat="28.06374" lon="-14.31395">
        <ele>60</ele>
        <time>2021-07-05 17:42:12</time>
      </trkpt>
      <trkpt lat="28.06371" lon="-14.31399">
        <ele>60</ele>
        <time>2021-07-05 17:42:13</time>
      </trkpt>
      <trkpt lat="28.06368" lon="-14.31402">
        <ele>60</ele>
        <time>2021-07-05 17:42:14</time>
      </trkpt>
      <trkpt lat="28.06365" lon="-14.31406">
        <ele>60</ele>
        <time>2021-07-05 17:42:15</time>
      </trkpt>
      <trkpt lat="28.06362" lon="-14.31409">
        <ele>60</ele>
        <time>2021-07-05 17:42:16</time>
      </trkpt>
      <trkpt lat="28.06358" lon="-14.31413">
        <ele>60</ele>
        <time>2021-07-05 17:42:17</time>
      </trkpt>
      <trkpt lat="28.06355" lon="-14.31416">
        <ele>60</ele>
        <time>2021-07-05 17:42:18</time>
      </trkpt>
      <trkpt lat="28.06353" lon="-14.3142">
        <ele>59.8</ele>
        <time>2021-07-05 17:42:19</time>
      </trkpt>
      <trkpt lat="28.0635" lon="-14.31423">
        <ele>59.8</ele>
        <time>2021-07-05 17:42:20</time>
      </trkpt>
      <trkpt lat="28.06346" lon="-14.31426">
        <ele>59.8</ele>
        <time>2021-07-05 17:42:21</time>
      </trkpt>
      <trkpt lat="28.06343" lon="-14.3143">
        <ele>59.8</ele>
        <time>2021-07-05 17:42:22</time>
      </trkpt>
      <trkpt lat="28.0634" lon="-14.31433">
        <ele>59.8</ele>
        <time>2021-07-05 17:42:23</time>
      </trkpt>
      <trkpt lat="28.06337" lon="-14.31436">
        <ele>59.8</ele>
        <time>2021-07-05 17:42:24</time>
      </trkpt>
      <trkpt lat="28.06333" lon="-14.3144">
        <ele>59.4</ele>
        <time>2021-07-05 17:42:25</time>
      </trkpt>
      <trkpt lat="28.0633" lon="-14.31444">
        <ele>59.4</ele>
        <time>2021-07-05 17:42:26</time>
      </trkpt>
      <trkpt lat="28.06327" lon="-14.31448">
        <ele>59.4</ele>
        <time>2021-07-05 17:42:27</time>
      </trkpt>
      <trkpt lat="28.06324" lon="-14.31452">
        <ele>59.4</ele>
        <time>2021-07-05 17:42:28</time>
      </trkpt>
      <trkpt lat="28.06321" lon="-14.31456">
        <ele>59</ele>
        <time>2021-07-05 17:42:29</time>
      </trkpt>
      <trkpt lat="28.06318" lon="-14.3146">
        <ele>59</ele>
        <time>2021-07-05 17:42:30</time>
      </trkpt>
      <trkpt lat="28.06314" lon="-14.31465">
        <ele>58.8</ele>
        <time>2021-07-05 17:42:31</time>
      </trkpt>
      <trkpt lat="28.06311" lon="-14.31469">
        <ele>58.8</ele>
        <time>2021-07-05 17:42:32</time>
      </trkpt>
      <trkpt lat="28.06308" lon="-14.31474">
        <ele>58.8</ele>
        <time>2021-07-05 17:42:33</time>
      </trkpt>
      <trkpt lat="28.06305" lon="-14.31478">
        <ele>58.6</ele>
        <time>2021-07-05 17:42:34</time>
      </trkpt>
      <trkpt lat="28.06301" lon="-14.31483">
        <ele>58.6</ele>
        <time>2021-07-05 17:42:35</time>
      </trkpt>
      <trkpt lat="28.06298" lon="-14.31488">
        <ele>58.6</ele>
        <time>2021-07-05 17:42:36</time>
      </trkpt>
      <trkpt lat="28.06295" lon="-14.31494">
        <ele>58.6</ele>
        <time>2021-07-05 17:42:37</time>
      </trkpt>
      <trkpt lat="28.06292" lon="-14.31499">
        <ele>58.6</ele>
        <time>2021-07-05 17:42:38</time>
      </trkpt>
      <trkpt lat="28.06288" lon="-14.31504">
        <ele>58.6</ele>
        <time>2021-07-05 17:42:39</time>
      </trkpt>
      <trkpt lat="28.06284" lon="-14.31509">
        <ele>58.4</ele>
        <time>2021-07-05 17:42:40</time>
      </trkpt>
      <trkpt lat="28.0628" lon="-14.31514">
        <ele>58.4</ele>
        <time>2021-07-05 17:42:41</time>
      </trkpt>
      <trkpt lat="28.06276" lon="-14.31519">
        <ele>58.4</ele>
        <time>2021-07-05 17:42:42</time>
      </trkpt>
      <trkpt lat="28.06271" lon="-14.31525">
        <ele>58.4</ele>
        <time>2021-07-05 17:42:43</time>
      </trkpt>
      <trkpt lat="28.06267" lon="-14.3153">
        <ele>58.2</ele>
        <time>2021-07-05 17:42:44</time>
      </trkpt>
      <trkpt lat="28.06263" lon="-14.31536">
        <ele>58.2</ele>
        <time>2021-07-05 17:42:45</time>
      </trkpt>
      <trkpt lat="28.06259" lon="-14.31542">
        <ele>58.2</ele>
        <time>2021-07-05 17:42:46</time>
      </trkpt>
      <trkpt lat="28.06256" lon="-14.31547">
        <ele>58.2</ele>
        <time>2021-07-05 17:42:47</time>
      </trkpt>
      <trkpt lat="28.06254" lon="-14.31552">
        <ele>57.8</ele>
        <time>2021-07-05 17:42:48</time>
      </trkpt>
      <trkpt lat="28.06253" lon="-14.31555">
        <ele>57.8</ele>
        <time>2021-07-05 17:42:49</time>
      </trkpt>
      <trkpt lat="28.06251" lon="-14.31559">
        <ele>58.4</ele>
        <time>2021-07-05 17:42:50</time>
      </trkpt>
      <trkpt lat="28.0625" lon="-14.31562">
        <ele>58.4</ele>
        <time>2021-07-05 17:42:51</time>
      </trkpt>
      <trkpt lat="28.06248" lon="-14.31565">
        <ele>58.8</ele>
        <time>2021-07-05 17:42:52</time>
      </trkpt>
      <trkpt lat="28.06246" lon="-14.31569">
        <ele>58.8</ele>
        <time>2021-07-05 17:42:53</time>
      </trkpt>
      <trkpt lat="28.06245" lon="-14.31573">
        <ele>59.2</ele>
        <time>2021-07-05 17:42:54</time>
      </trkpt>
      <trkpt lat="28.06243" lon="-14.31577">
        <ele>59.4</ele>
        <time>2021-07-05 17:42:55</time>
      </trkpt>
      <trkpt lat="28.06242" lon="-14.3158">
        <ele>59.4</ele>
        <time>2021-07-05 17:42:56</time>
      </trkpt>
      <trkpt lat="28.0624" lon="-14.31584">
        <ele>59.8</ele>
        <time>2021-07-05 17:42:57</time>
      </trkpt>
      <trkpt lat="28.06238" lon="-14.31588">
        <ele>60</ele>
        <time>2021-07-05 17:42:58</time>
      </trkpt>
      <trkpt lat="28.06237" lon="-14.31592">
        <ele>60</ele>
        <time>2021-07-05 17:42:59</time>
      </trkpt>
      <trkpt lat="28.06236" lon="-14.31596">
        <ele>60.2</ele>
        <time>2021-07-05 17:43:00</time>
      </trkpt>
      <trkpt lat="28.06234" lon="-14.316">
        <ele>60.2</ele>
        <time>2021-07-05 17:43:01</time>
      </trkpt>
      <trkpt lat="28.06232" lon="-14.31604">
        <ele>60.2</ele>
        <time>2021-07-05 17:43:02</time>
      </trkpt>
      <trkpt lat="28.0623" lon="-14.31608">
        <ele>60.2</ele>
        <time>2021-07-05 17:43:03</time>
      </trkpt>
      <trkpt lat="28.06227" lon="-14.31612">
        <ele>60.2</ele>
        <time>2021-07-05 17:43:04</time>
      </trkpt>
      <trkpt lat="28.06226" lon="-14.31618">
        <ele>60</ele>
        <time>2021-07-05 17:43:05</time>
      </trkpt>
      <trkpt lat="28.06224" lon="-14.31625">
        <ele>60</ele>
        <time>2021-07-05 17:43:06</time>
      </trkpt>
      <trkpt lat="28.06223" lon="-14.31631">
        <ele>59.6</ele>
        <time>2021-07-05 17:43:07</time>
      </trkpt>
      <trkpt lat="28.06221" lon="-14.31637">
        <ele>59.4</ele>
        <time>2021-07-05 17:43:08</time>
      </trkpt>
      <trkpt lat="28.06216" lon="-14.31641">
        <ele>59</ele>
        <time>2021-07-05 17:43:09</time>
      </trkpt>
      <trkpt lat="28.06212" lon="-14.31645">
        <ele>58.6</ele>
        <time>2021-07-05 17:43:10</time>
      </trkpt>
      <trkpt lat="28.0621" lon="-14.31649">
        <ele>58.2</ele>
        <time>2021-07-05 17:43:11</time>
      </trkpt>
      <trkpt lat="28.06208" lon="-14.31654">
        <ele>57.4</ele>
        <time>2021-07-05 17:43:12</time>
      </trkpt>
      <trkpt lat="28.06205" lon="-14.31658">
        <ele>57.4</ele>
        <time>2021-07-05 17:43:13</time>
      </trkpt>
      <trkpt lat="28.06203" lon="-14.31663">
        <ele>57</ele>
        <time>2021-07-05 17:43:14</time>
      </trkpt>
      <trkpt lat="28.062" lon="-14.31668">
        <ele>56.4</ele>
        <time>2021-07-05 17:43:15</time>
      </trkpt>
      <trkpt lat="28.06197" lon="-14.31672">
        <ele>56</ele>
        <time>2021-07-05 17:43:16</time>
      </trkpt>
      <trkpt lat="28.06194" lon="-14.31676">
        <ele>55.6</ele>
        <time>2021-07-05 17:43:17</time>
      </trkpt>
      <trkpt lat="28.06191" lon="-14.31679">
        <ele>55.4</ele>
        <time>2021-07-05 17:43:18</time>
      </trkpt>
      <trkpt lat="28.06188" lon="-14.31682">
        <ele>55.4</ele>
        <time>2021-07-05 17:43:19</time>
      </trkpt>
      <trkpt lat="28.06184" lon="-14.31685">
        <ele>55.4</ele>
        <time>2021-07-05 17:43:20</time>
      </trkpt>
      <trkpt lat="28.06181" lon="-14.31688">
        <ele>55.4</ele>
        <time>2021-07-05 17:43:21</time>
      </trkpt>
      <trkpt lat="28.06178" lon="-14.3169">
        <ele>55.6</ele>
        <time>2021-07-05 17:43:22</time>
      </trkpt>
      <trkpt lat="28.06174" lon="-14.31693">
        <ele>55.6</ele>
        <time>2021-07-05 17:43:23</time>
      </trkpt>
      <trkpt lat="28.06171" lon="-14.31695">
        <ele>56</ele>
        <time>2021-07-05 17:43:24</time>
      </trkpt>
      <trkpt lat="28.06167" lon="-14.31697">
        <ele>56</ele>
        <time>2021-07-05 17:43:25</time>
      </trkpt>
      <trkpt lat="28.06163" lon="-14.31698">
        <ele>56</ele>
        <time>2021-07-05 17:43:26</time>
      </trkpt>
      <trkpt lat="28.0616" lon="-14.31698">
        <ele>56.2</ele>
        <time>2021-07-05 17:43:27</time>
      </trkpt>
      <trkpt lat="28.06156" lon="-14.31697">
        <ele>56.2</ele>
        <time>2021-07-05 17:43:28</time>
      </trkpt>
      <trkpt lat="28.06153" lon="-14.31696">
        <ele>56.2</ele>
        <time>2021-07-05 17:43:29</time>
      </trkpt>
      <trkpt lat="28.06149" lon="-14.31695">
        <ele>56.2</ele>
        <time>2021-07-05 17:43:30</time>
      </trkpt>
      <trkpt lat="28.06145" lon="-14.31694">
        <ele>56.2</ele>
        <time>2021-07-05 17:43:31</time>
      </trkpt>
      <trkpt lat="28.06141" lon="-14.31692">
        <ele>56.2</ele>
        <time>2021-07-05 17:43:32</time>
      </trkpt>
      <trkpt lat="28.06137" lon="-14.3169">
        <ele>56.2</ele>
        <time>2021-07-05 17:43:33</time>
      </trkpt>
      <trkpt lat="28.06132" lon="-14.31689">
        <ele>56.2</ele>
        <time>2021-07-05 17:43:34</time>
      </trkpt>
      <trkpt lat="28.06127" lon="-14.31688">
        <ele>56.2</ele>
        <time>2021-07-05 17:43:35</time>
      </trkpt>
      <trkpt lat="28.06122" lon="-14.31687">
        <ele>55.8</ele>
        <time>2021-07-05 17:43:36</time>
      </trkpt>
      <trkpt lat="28.06118" lon="-14.31688">
        <ele>55.8</ele>
        <time>2021-07-05 17:43:37</time>
      </trkpt>
      <trkpt lat="28.06113" lon="-14.31689">
        <ele>55.6</ele>
        <time>2021-07-05 17:43:38</time>
      </trkpt>
      <trkpt lat="28.06109" lon="-14.31691">
        <ele>55.6</ele>
        <time>2021-07-05 17:43:39</time>
      </trkpt>
      <trkpt lat="28.06107" lon="-14.31693">
        <ele>55.6</ele>
        <time>2021-07-05 17:43:40</time>
      </trkpt>
      <trkpt lat="28.06105" lon="-14.31695">
        <ele>55.6</ele>
        <time>2021-07-05 17:43:41</time>
      </trkpt>
      <trkpt lat="28.06104" lon="-14.31696">
        <ele>55.6</ele>
        <time>2021-07-05 17:43:42</time>
      </trkpt>
      <trkpt lat="28.06103" lon="-14.31698">
        <ele>55.6</ele>
        <time>2021-07-05 17:43:43</time>
      </trkpt>
      <trkpt lat="28.06102" lon="-14.31699">
        <ele>55.6</ele>
        <time>2021-07-05 17:43:44</time>
      </trkpt>
      <trkpt lat="28.06103" lon="-14.31701">
        <ele>55.6</ele>
        <time>2021-07-05 17:43:45</time>
      </trkpt>
      <trkpt lat="28.06105" lon="-14.31701">
        <ele>55.6</ele>
        <time>2021-07-05 17:43:46</time>
      </trkpt>
      <trkpt lat="28.06106" lon="-14.31702">
        <ele>55.6</ele>
        <time>2021-07-05 17:43:47</time>
      </trkpt>
      <trkpt lat="28.06108" lon="-14.31703">
        <ele>55.8</ele>
        <time>2021-07-05 17:43:48</time>
      </trkpt>
      <trkpt lat="28.06109" lon="-14.31705">
        <ele>55.8</ele>
        <time>2021-07-05 17:43:49</time>
      </trkpt>
      <trkpt lat="28.0611" lon="-14.31707">
        <ele>55.8</ele>
        <time>2021-07-05 17:43:50</time>
      </trkpt>
      <trkpt lat="28.06111" lon="-14.31709">
        <ele>55.8</ele>
        <time>2021-07-05 17:43:51</time>
      </trkpt>
      <trkpt lat="28.06113" lon="-14.31712">
        <ele>56</ele>
        <time>2021-07-05 17:43:52</time>
      </trkpt>
      <trkpt lat="28.06115" lon="-14.31714">
        <ele>56</ele>
        <time>2021-07-05 17:43:53</time>
      </trkpt>
      <trkpt lat="28.06117" lon="-14.31716">
        <ele>56</ele>
        <time>2021-07-05 17:43:54</time>
      </trkpt>
      <trkpt lat="28.0612" lon="-14.31717">
        <ele>56</ele>
        <time>2021-07-05 17:43:55</time>
      </trkpt>
      <trkpt lat="28.06122" lon="-14.31719">
        <ele>56.4</ele>
        <time>2021-07-05 17:43:56</time>
      </trkpt>
      <trkpt lat="28.06124" lon="-14.3172">
        <ele>56.4</ele>
        <time>2021-07-05 17:43:57</time>
      </trkpt>
      <trkpt lat="28.06126" lon="-14.3172">
        <ele>56.4</ele>
        <time>2021-07-05 17:43:58</time>
      </trkpt>
      <trkpt lat="28.06129" lon="-14.31721">
        <ele>56.6</ele>
        <time>2021-07-05 17:43:59</time>
      </trkpt>
      <trkpt lat="28.06131" lon="-14.31721">
        <ele>56.6</ele>
        <time>2021-07-05 17:44:00</time>
      </trkpt>
      <trkpt lat="28.06133" lon="-14.3172">
        <ele>56.6</ele>
        <time>2021-07-05 17:44:01</time>
      </trkpt>
      <trkpt lat="28.06135" lon="-14.31719">
        <ele>56.8</ele>
        <time>2021-07-05 17:44:02</time>
      </trkpt>
      <trkpt lat="28.06136" lon="-14.31718">
        <ele>56.8</ele>
        <time>2021-07-05 17:44:03</time>
      </trkpt>
      <trkpt lat="28.06138" lon="-14.31717">
        <ele>56.8</ele>
        <time>2021-07-05 17:44:04</time>
      </trkpt>
      <trkpt lat="28.0614" lon="-14.31718">
        <ele>57</ele>
        <time>2021-07-05 17:44:05</time>
      </trkpt>
      <trkpt lat="28.06143" lon="-14.31719">
        <ele>57</ele>
        <time>2021-07-05 17:44:06</time>
      </trkpt>
      <trkpt lat="28.06146" lon="-14.3172">
        <ele>57.4</ele>
        <time>2021-07-05 17:44:07</time>
      </trkpt>
      <trkpt lat="28.06148" lon="-14.31721">
        <ele>57.6</ele>
        <time>2021-07-05 17:44:08</time>
      </trkpt>
      <trkpt lat="28.06151" lon="-14.31723">
        <ele>57.6</ele>
        <time>2021-07-05 17:44:09</time>
      </trkpt>
      <trkpt lat="28.06153" lon="-14.31724">
        <ele>58</ele>
        <time>2021-07-05 17:44:10</time>
      </trkpt>
      <trkpt lat="28.06156" lon="-14.31726">
        <ele>58.2</ele>
        <time>2021-07-05 17:44:11</time>
      </trkpt>
      <trkpt lat="28.06159" lon="-14.31728">
        <ele>58.2</ele>
        <time>2021-07-05 17:44:12</time>
      </trkpt>
      <trkpt lat="28.06161" lon="-14.3173">
        <ele>58.4</ele>
        <time>2021-07-05 17:44:13</time>
      </trkpt>
      <trkpt lat="28.06163" lon="-14.31733">
        <ele>58.4</ele>
        <time>2021-07-05 17:44:14</time>
      </trkpt>
      <trkpt lat="28.06165" lon="-14.31736">
        <ele>58.4</ele>
        <time>2021-07-05 17:44:15</time>
      </trkpt>
      <trkpt lat="28.06167" lon="-14.3174">
        <ele>58.4</ele>
        <time>2021-07-05 17:44:16</time>
      </trkpt>
      <trkpt lat="28.06168" lon="-14.31743">
        <ele>58.8</ele>
        <time>2021-07-05 17:44:17</time>
      </trkpt>
      <trkpt lat="28.06168" lon="-14.31747">
        <ele>58.8</ele>
        <time>2021-07-05 17:44:18</time>
      </trkpt>
      <trkpt lat="28.06168" lon="-14.31751">
        <ele>59.4</ele>
        <time>2021-07-05 17:44:19</time>
      </trkpt>
      <trkpt lat="28.06167" lon="-14.31755">
        <ele>59.4</ele>
        <time>2021-07-05 17:44:20</time>
      </trkpt>
      <trkpt lat="28.06165" lon="-14.31758">
        <ele>59.4</ele>
        <time>2021-07-05 17:44:21</time>
      </trkpt>
      <trkpt lat="28.06163" lon="-14.31762">
        <ele>59.4</ele>
        <time>2021-07-05 17:44:22</time>
      </trkpt>
      <trkpt lat="28.0616" lon="-14.31764">
        <ele>59.4</ele>
        <time>2021-07-05 17:44:23</time>
      </trkpt>
      <trkpt lat="28.06157" lon="-14.31767">
        <ele>59.4</ele>
        <time>2021-07-05 17:44:24</time>
      </trkpt>
      <trkpt lat="28.06155" lon="-14.31769">
        <ele>59.4</ele>
        <time>2021-07-05 17:44:25</time>
      </trkpt>
      <trkpt lat="28.06152" lon="-14.31771">
        <ele>59.4</ele>
        <time>2021-07-05 17:44:26</time>
      </trkpt>
      <trkpt lat="28.06149" lon="-14.31772">
        <ele>59.6</ele>
        <time>2021-07-05 17:44:27</time>
      </trkpt>
      <trkpt lat="28.06145" lon="-14.31773">
        <ele>59.6</ele>
        <time>2021-07-05 17:44:28</time>
      </trkpt>
      <trkpt lat="28.06142" lon="-14.31773">
        <ele>59.6</ele>
        <time>2021-07-05 17:44:29</time>
      </trkpt>
      <trkpt lat="28.06138" lon="-14.31773">
        <ele>59.6</ele>
        <time>2021-07-05 17:44:30</time>
      </trkpt>
      <trkpt lat="28.06134" lon="-14.31773">
        <ele>59.8</ele>
        <time>2021-07-05 17:44:31</time>
      </trkpt>
      <trkpt lat="28.0613" lon="-14.31773">
        <ele>59.8</ele>
        <time>2021-07-05 17:44:32</time>
      </trkpt>
      <trkpt lat="28.06127" lon="-14.31774">
        <ele>59.8</ele>
        <time>2021-07-05 17:44:33</time>
      </trkpt>
      <trkpt lat="28.06123" lon="-14.31775">
        <ele>59.8</ele>
        <time>2021-07-05 17:44:34</time>
      </trkpt>
      <trkpt lat="28.06118" lon="-14.31775">
        <ele>59.8</ele>
        <time>2021-07-05 17:44:35</time>
      </trkpt>
      <trkpt lat="28.06114" lon="-14.31775">
        <ele>59.8</ele>
        <time>2021-07-05 17:44:36</time>
      </trkpt>
      <trkpt lat="28.0611" lon="-14.31776">
        <ele>59.8</ele>
        <time>2021-07-05 17:44:37</time>
      </trkpt>
      <trkpt lat="28.06105" lon="-14.31776">
        <ele>59.8</ele>
        <time>2021-07-05 17:44:38</time>
      </trkpt>
      <trkpt lat="28.06101" lon="-14.31776">
        <ele>59.4</ele>
        <time>2021-07-05 17:44:39</time>
      </trkpt>
      <trkpt lat="28.06096" lon="-14.31777">
        <ele>59.2</ele>
        <time>2021-07-05 17:44:40</time>
      </trkpt>
      <trkpt lat="28.06091" lon="-14.31778">
        <ele>59.2</ele>
        <time>2021-07-05 17:44:41</time>
      </trkpt>
      <trkpt lat="28.06087" lon="-14.31779">
        <ele>58.8</ele>
        <time>2021-07-05 17:44:42</time>
      </trkpt>
      <trkpt lat="28.06082" lon="-14.3178">
        <ele>58.8</ele>
        <time>2021-07-05 17:44:43</time>
      </trkpt>
      <trkpt lat="28.06076" lon="-14.31781">
        <ele>58.8</ele>
        <time>2021-07-05 17:44:44</time>
      </trkpt>
      <trkpt lat="28.0607" lon="-14.31784">
        <ele>58.4</ele>
        <time>2021-07-05 17:44:45</time>
      </trkpt>
      <trkpt lat="28.06065" lon="-14.31786">
        <ele>58</ele>
        <time>2021-07-05 17:44:46</time>
      </trkpt>
      <trkpt lat="28.06059" lon="-14.31789">
        <ele>57.4</ele>
        <time>2021-07-05 17:44:47</time>
      </trkpt>
      <trkpt lat="28.06052" lon="-14.31792">
        <ele>57.4</ele>
        <time>2021-07-05 17:44:48</time>
      </trkpt>
      <trkpt lat="28.06047" lon="-14.31797">
        <ele>57.2</ele>
        <time>2021-07-05 17:44:49</time>
      </trkpt>
      <trkpt lat="28.06041" lon="-14.31802">
        <ele>56.4</ele>
        <time>2021-07-05 17:44:50</time>
      </trkpt>
      <trkpt lat="28.06036" lon="-14.31808">
        <ele>56.4</ele>
        <time>2021-07-05 17:44:51</time>
      </trkpt>
      <trkpt lat="28.06032" lon="-14.31814">
        <ele>56</ele>
        <time>2021-07-05 17:44:52</time>
      </trkpt>
      <trkpt lat="28.06029" lon="-14.31821">
        <ele>55.8</ele>
        <time>2021-07-05 17:44:53</time>
      </trkpt>
      <trkpt lat="28.06026" lon="-14.31829">
        <ele>55.6</ele>
        <time>2021-07-05 17:44:54</time>
      </trkpt>
      <trkpt lat="28.06024" lon="-14.31838">
        <ele>55.6</ele>
        <time>2021-07-05 17:44:55</time>
      </trkpt>
      <trkpt lat="28.06023" lon="-14.31846">
        <ele>55</ele>
        <time>2021-07-05 17:44:56</time>
      </trkpt>
      <trkpt lat="28.06023" lon="-14.31854">
        <ele>54.6</ele>
        <time>2021-07-05 17:44:57</time>
      </trkpt>
      <trkpt lat="28.06024" lon="-14.31862">
        <ele>54.2</ele>
        <time>2021-07-05 17:44:58</time>
      </trkpt>
      <trkpt lat="28.06026" lon="-14.3187">
        <ele>53.8</ele>
        <time>2021-07-05 17:44:59</time>
      </trkpt>
      <trkpt lat="28.06028" lon="-14.31878">
        <ele>53.2</ele>
        <time>2021-07-05 17:45:00</time>
      </trkpt>
      <trkpt lat="28.06031" lon="-14.31885">
        <ele>52.4</ele>
        <time>2021-07-05 17:45:01</time>
      </trkpt>
      <trkpt lat="28.06033" lon="-14.31892">
        <ele>52.4</ele>
        <time>2021-07-05 17:45:02</time>
      </trkpt>
      <trkpt lat="28.06036" lon="-14.31898">
        <ele>52.4</ele>
        <time>2021-07-05 17:45:03</time>
      </trkpt>
      <trkpt lat="28.06039" lon="-14.31905">
        <ele>52</ele>
        <time>2021-07-05 17:45:04</time>
      </trkpt>
      <trkpt lat="28.06042" lon="-14.31911">
        <ele>52</ele>
        <time>2021-07-05 17:45:05</time>
      </trkpt>
      <trkpt lat="28.06045" lon="-14.31917">
        <ele>52</ele>
        <time>2021-07-05 17:45:06</time>
      </trkpt>
      <trkpt lat="28.06047" lon="-14.31923">
        <ele>52</ele>
        <time>2021-07-05 17:45:07</time>
      </trkpt>
      <trkpt lat="28.06049" lon="-14.31929">
        <ele>52</ele>
        <time>2021-07-05 17:45:08</time>
      </trkpt>
      <trkpt lat="28.0605" lon="-14.31935">
        <ele>52</ele>
        <time>2021-07-05 17:45:09</time>
      </trkpt>
      <trkpt lat="28.06051" lon="-14.3194">
        <ele>52</ele>
        <time>2021-07-05 17:45:10</time>
      </trkpt>
      <trkpt lat="28.06052" lon="-14.31946">
        <ele>52.2</ele>
        <time>2021-07-05 17:45:11</time>
      </trkpt>
      <trkpt lat="28.06052" lon="-14.31951">
        <ele>52.2</ele>
        <time>2021-07-05 17:45:12</time>
      </trkpt>
      <trkpt lat="28.06052" lon="-14.31957">
        <ele>52.2</ele>
        <time>2021-07-05 17:45:13</time>
      </trkpt>
      <trkpt lat="28.06051" lon="-14.31962">
        <ele>52.6</ele>
        <time>2021-07-05 17:45:14</time>
      </trkpt>
      <trkpt lat="28.0605" lon="-14.31966">
        <ele>52.6</ele>
        <time>2021-07-05 17:45:15</time>
      </trkpt>
      <trkpt lat="28.06049" lon="-14.31971">
        <ele>52.6</ele>
        <time>2021-07-05 17:45:16</time>
      </trkpt>
      <trkpt lat="28.06047" lon="-14.31975">
        <ele>52.8</ele>
        <time>2021-07-05 17:45:17</time>
      </trkpt>
      <trkpt lat="28.06045" lon="-14.3198">
        <ele>52.8</ele>
        <time>2021-07-05 17:45:18</time>
      </trkpt>
      <trkpt lat="28.06043" lon="-14.31984">
        <ele>53.2</ele>
        <time>2021-07-05 17:45:19</time>
      </trkpt>
      <trkpt lat="28.0604" lon="-14.31989">
        <ele>53.4</ele>
        <time>2021-07-05 17:45:20</time>
      </trkpt>
      <trkpt lat="28.06038" lon="-14.31993">
        <ele>53.4</ele>
        <time>2021-07-05 17:45:21</time>
      </trkpt>
      <trkpt lat="28.06036" lon="-14.31996">
        <ele>53.8</ele>
        <time>2021-07-05 17:45:22</time>
      </trkpt>
      <trkpt lat="28.06033" lon="-14.31999">
        <ele>53.8</ele>
        <time>2021-07-05 17:45:23</time>
      </trkpt>
      <trkpt lat="28.06032" lon="-14.32002">
        <ele>54.2</ele>
        <time>2021-07-05 17:45:24</time>
      </trkpt>
      <trkpt lat="28.0603" lon="-14.32005">
        <ele>54.2</ele>
        <time>2021-07-05 17:45:25</time>
      </trkpt>
      <trkpt lat="28.06027" lon="-14.32008">
        <ele>54.4</ele>
        <time>2021-07-05 17:45:26</time>
      </trkpt>
      <trkpt lat="28.06025" lon="-14.3201">
        <ele>54.4</ele>
        <time>2021-07-05 17:45:27</time>
      </trkpt>
      <trkpt lat="28.06023" lon="-14.32012">
        <ele>54.4</ele>
        <time>2021-07-05 17:45:28</time>
      </trkpt>
      <trkpt lat="28.0602" lon="-14.32014">
        <ele>54.4</ele>
        <time>2021-07-05 17:45:29</time>
      </trkpt>
      <trkpt lat="28.06017" lon="-14.32017">
        <ele>54.4</ele>
        <time>2021-07-05 17:45:30</time>
      </trkpt>
      <trkpt lat="28.06014" lon="-14.32019">
        <ele>54.4</ele>
        <time>2021-07-05 17:45:31</time>
      </trkpt>
      <trkpt lat="28.06012" lon="-14.32022">
        <ele>54.4</ele>
        <time>2021-07-05 17:45:32</time>
      </trkpt>
      <trkpt lat="28.06009" lon="-14.32025">
        <ele>54.4</ele>
        <time>2021-07-05 17:45:33</time>
      </trkpt>
      <trkpt lat="28.06006" lon="-14.32027">
        <ele>54.2</ele>
        <time>2021-07-05 17:45:34</time>
      </trkpt>
      <trkpt lat="28.06002" lon="-14.3203">
        <ele>54.2</ele>
        <time>2021-07-05 17:45:35</time>
      </trkpt>
      <trkpt lat="28.05999" lon="-14.32033">
        <ele>54.2</ele>
        <time>2021-07-05 17:45:36</time>
      </trkpt>
      <trkpt lat="28.05996" lon="-14.32036">
        <ele>54.2</ele>
        <time>2021-07-05 17:45:37</time>
      </trkpt>
      <trkpt lat="28.05993" lon="-14.32038">
        <ele>54.4</ele>
        <time>2021-07-05 17:45:38</time>
      </trkpt>
      <trkpt lat="28.0599" lon="-14.32041">
        <ele>54.4</ele>
        <time>2021-07-05 17:45:39</time>
      </trkpt>
      <trkpt lat="28.05988" lon="-14.32043">
        <ele>55</ele>
        <time>2021-07-05 17:45:40</time>
      </trkpt>
      <trkpt lat="28.05985" lon="-14.32046">
        <ele>55.4</ele>
        <time>2021-07-05 17:45:41</time>
      </trkpt>
      <trkpt lat="28.05983" lon="-14.32048">
        <ele>55.4</ele>
        <time>2021-07-05 17:45:42</time>
      </trkpt>
      <trkpt lat="28.0598" lon="-14.3205">
        <ele>55.6</ele>
        <time>2021-07-05 17:45:43</time>
      </trkpt>
      <trkpt lat="28.05978" lon="-14.32052">
        <ele>56</ele>
        <time>2021-07-05 17:45:44</time>
      </trkpt>
      <trkpt lat="28.05975" lon="-14.32054">
        <ele>56.2</ele>
        <time>2021-07-05 17:45:45</time>
      </trkpt>
      <trkpt lat="28.05973" lon="-14.32055">
        <ele>56.4</ele>
        <time>2021-07-05 17:45:46</time>
      </trkpt>
      <trkpt lat="28.05971" lon="-14.32057">
        <ele>56.8</ele>
        <time>2021-07-05 17:45:47</time>
      </trkpt>
      <trkpt lat="28.05969" lon="-14.32059">
        <ele>57</ele>
        <time>2021-07-05 17:45:48</time>
      </trkpt>
      <trkpt lat="28.05967" lon="-14.32061">
        <ele>57.2</ele>
        <time>2021-07-05 17:45:49</time>
      </trkpt>
      <trkpt lat="28.05965" lon="-14.32062">
        <ele>57.4</ele>
        <time>2021-07-05 17:45:50</time>
      </trkpt>
      <trkpt lat="28.05962" lon="-14.32064">
        <ele>57.4</ele>
        <time>2021-07-05 17:45:51</time>
      </trkpt>
      <trkpt lat="28.0596" lon="-14.32065">
        <ele>57.8</ele>
        <time>2021-07-05 17:45:52</time>
      </trkpt>
      <trkpt lat="28.05958" lon="-14.32067">
        <ele>58</ele>
        <time>2021-07-05 17:45:53</time>
      </trkpt>
      <trkpt lat="28.05955" lon="-14.32069">
        <ele>58.4</ele>
        <time>2021-07-05 17:45:54</time>
      </trkpt>
      <trkpt lat="28.05953" lon="-14.3207">
        <ele>58.4</ele>
        <time>2021-07-05 17:45:55</time>
      </trkpt>
      <trkpt lat="28.0595" lon="-14.32072">
        <ele>58.6</ele>
        <time>2021-07-05 17:45:56</time>
      </trkpt>
      <trkpt lat="28.05948" lon="-14.32073">
        <ele>58.8</ele>
        <time>2021-07-05 17:45:57</time>
      </trkpt>
      <trkpt lat="28.05946" lon="-14.32075">
        <ele>59</ele>
        <time>2021-07-05 17:45:58</time>
      </trkpt>
      <trkpt lat="28.05944" lon="-14.32076">
        <ele>59.4</ele>
        <time>2021-07-05 17:45:59</time>
      </trkpt>
      <trkpt lat="28.05942" lon="-14.32078">
        <ele>60</ele>
        <time>2021-07-05 17:46:00</time>
      </trkpt>
      <trkpt lat="28.05941" lon="-14.3208">
        <ele>60</ele>
        <time>2021-07-05 17:46:01</time>
      </trkpt>
      <trkpt lat="28.05939" lon="-14.32082">
        <ele>60.4</ele>
        <time>2021-07-05 17:46:02</time>
      </trkpt>
      <trkpt lat="28.05938" lon="-14.32084">
        <ele>60.8</ele>
        <time>2021-07-05 17:46:03</time>
      </trkpt>
      <trkpt lat="28.05936" lon="-14.32085">
        <ele>60.8</ele>
        <time>2021-07-05 17:46:04</time>
      </trkpt>
      <trkpt lat="28.05935" lon="-14.32087">
        <ele>61</ele>
        <time>2021-07-05 17:46:05</time>
      </trkpt>
      <trkpt lat="28.05933" lon="-14.32088">
        <ele>61.2</ele>
        <time>2021-07-05 17:46:06</time>
      </trkpt>
      <trkpt lat="28.0593" lon="-14.32088">
        <ele>61.2</ele>
        <time>2021-07-05 17:46:07</time>
      </trkpt>
      <trkpt lat="28.05926" lon="-14.32088">
        <ele>61.2</ele>
        <time>2021-07-05 17:46:08</time>
      </trkpt>
      <trkpt lat="28.05922" lon="-14.32087">
        <ele>61.2</ele>
        <time>2021-07-05 17:46:09</time>
      </trkpt>
      <trkpt lat="28.05918" lon="-14.32088">
        <ele>61</ele>
        <time>2021-07-05 17:46:10</time>
      </trkpt>
      <trkpt lat="28.05914" lon="-14.32089">
        <ele>60.8</ele>
        <time>2021-07-05 17:46:11</time>
      </trkpt>
      <trkpt lat="28.05909" lon="-14.32089">
        <ele>60.6</ele>
        <time>2021-07-05 17:46:12</time>
      </trkpt>
      <trkpt lat="28.05904" lon="-14.32091">
        <ele>60.2</ele>
        <time>2021-07-05 17:46:13</time>
      </trkpt>
      <trkpt lat="28.05898" lon="-14.32093">
        <ele>59.8</ele>
        <time>2021-07-05 17:46:14</time>
      </trkpt>
      <trkpt lat="28.05894" lon="-14.32094">
        <ele>59.8</ele>
        <time>2021-07-05 17:46:15</time>
      </trkpt>
      <trkpt lat="28.05889" lon="-14.32095">
        <ele>59.6</ele>
        <time>2021-07-05 17:46:16</time>
      </trkpt>
      <trkpt lat="28.05884" lon="-14.32096">
        <ele>59.2</ele>
        <time>2021-07-05 17:46:17</time>
      </trkpt>
      <trkpt lat="28.05878" lon="-14.32098">
        <ele>58.8</ele>
        <time>2021-07-05 17:46:18</time>
      </trkpt>
      <trkpt lat="28.05872" lon="-14.321">
        <ele>58</ele>
        <time>2021-07-05 17:46:19</time>
      </trkpt>
      <trkpt lat="28.05866" lon="-14.32101">
        <ele>58</ele>
        <time>2021-07-05 17:46:20</time>
      </trkpt>
      <trkpt lat="28.0586" lon="-14.32103">
        <ele>57.6</ele>
        <time>2021-07-05 17:46:21</time>
      </trkpt>
      <trkpt lat="28.05854" lon="-14.32105">
        <ele>57</ele>
        <time>2021-07-05 17:46:22</time>
      </trkpt>
      <trkpt lat="28.05847" lon="-14.32107">
        <ele>56.6</ele>
        <time>2021-07-05 17:46:23</time>
      </trkpt>
      <trkpt lat="28.0584" lon="-14.32109">
        <ele>56</ele>
        <time>2021-07-05 17:46:24</time>
      </trkpt>
      <trkpt lat="28.05833" lon="-14.32111">
        <ele>55.4</ele>
        <time>2021-07-05 17:46:25</time>
      </trkpt>
      <trkpt lat="28.05827" lon="-14.32112">
        <ele>54.8</ele>
        <time>2021-07-05 17:46:26</time>
      </trkpt>
      <trkpt lat="28.05821" lon="-14.32114">
        <ele>54.2</ele>
        <time>2021-07-05 17:46:27</time>
      </trkpt>
      <trkpt lat="28.05815" lon="-14.32115">
        <ele>53.6</ele>
        <time>2021-07-05 17:46:28</time>
      </trkpt>
      <trkpt lat="28.0581" lon="-14.32116">
        <ele>53</ele>
        <time>2021-07-05 17:46:29</time>
      </trkpt>
      <trkpt lat="28.05804" lon="-14.32118">
        <ele>52.6</ele>
        <time>2021-07-05 17:46:30</time>
      </trkpt>
      <trkpt lat="28.05798" lon="-14.32119">
        <ele>52</ele>
        <time>2021-07-05 17:46:31</time>
      </trkpt>
      <trkpt lat="28.05792" lon="-14.32121">
        <ele>51.6</ele>
        <time>2021-07-05 17:46:32</time>
      </trkpt>
      <trkpt lat="28.05785" lon="-14.32124">
        <ele>50.6</ele>
        <time>2021-07-05 17:46:33</time>
      </trkpt>
      <trkpt lat="28.05779" lon="-14.32126">
        <ele>50.6</ele>
        <time>2021-07-05 17:46:34</time>
      </trkpt>
      <trkpt lat="28.05773" lon="-14.32129">
        <ele>49.8</ele>
        <time>2021-07-05 17:46:35</time>
      </trkpt>
      <trkpt lat="28.05766" lon="-14.32132">
        <ele>49.8</ele>
        <time>2021-07-05 17:46:36</time>
      </trkpt>
      <trkpt lat="28.0576" lon="-14.32135">
        <ele>49.4</ele>
        <time>2021-07-05 17:46:37</time>
      </trkpt>
      <trkpt lat="28.05753" lon="-14.32138">
        <ele>49</ele>
        <time>2021-07-05 17:46:38</time>
      </trkpt>
      <trkpt lat="28.05746" lon="-14.32141">
        <ele>48.4</ele>
        <time>2021-07-05 17:46:39</time>
      </trkpt>
      <trkpt lat="28.05739" lon="-14.32145">
        <ele>48</ele>
        <time>2021-07-05 17:46:40</time>
      </trkpt>
      <trkpt lat="28.05732" lon="-14.32148">
        <ele>47</ele>
        <time>2021-07-05 17:46:41</time>
      </trkpt>
      <trkpt lat="28.05724" lon="-14.32152">
        <ele>47</ele>
        <time>2021-07-05 17:46:42</time>
      </trkpt>
      <trkpt lat="28.05717" lon="-14.32155">
        <ele>46.6</ele>
        <time>2021-07-05 17:46:43</time>
      </trkpt>
      <trkpt lat="28.0571" lon="-14.32158">
        <ele>46</ele>
        <time>2021-07-05 17:46:44</time>
      </trkpt>
      <trkpt lat="28.05701" lon="-14.32162">
        <ele>45</ele>
        <time>2021-07-05 17:46:45</time>
      </trkpt>
      <trkpt lat="28.05692" lon="-14.32166">
        <ele>45</ele>
        <time>2021-07-05 17:46:46</time>
      </trkpt>
      <trkpt lat="28.05684" lon="-14.32169">
        <ele>44.6</ele>
        <time>2021-07-05 17:46:47</time>
      </trkpt>
      <trkpt lat="28.05675" lon="-14.32173">
        <ele>44</ele>
        <time>2021-07-05 17:46:48</time>
      </trkpt>
      <trkpt lat="28.05665" lon="-14.32176">
        <ele>43.4</ele>
        <time>2021-07-05 17:46:49</time>
      </trkpt>
      <trkpt lat="28.05656" lon="-14.32179">
        <ele>42.6</ele>
        <time>2021-07-05 17:46:50</time>
      </trkpt>
      <trkpt lat="28.05648" lon="-14.32182">
        <ele>42</ele>
        <time>2021-07-05 17:46:51</time>
      </trkpt>
      <trkpt lat="28.05639" lon="-14.32185">
        <ele>41.2</ele>
        <time>2021-07-05 17:46:52</time>
      </trkpt>
      <trkpt lat="28.0563" lon="-14.32187">
        <ele>40.6</ele>
        <time>2021-07-05 17:46:53</time>
      </trkpt>
      <trkpt lat="28.05621" lon="-14.3219">
        <ele>39.8</ele>
        <time>2021-07-05 17:46:54</time>
      </trkpt>
      <trkpt lat="28.05612" lon="-14.32192">
        <ele>39</ele>
        <time>2021-07-05 17:46:55</time>
      </trkpt>
      <trkpt lat="28.05602" lon="-14.32194">
        <ele>38.2</ele>
        <time>2021-07-05 17:46:56</time>
      </trkpt>
      <trkpt lat="28.05593" lon="-14.32196">
        <ele>37.4</ele>
        <time>2021-07-05 17:46:57</time>
      </trkpt>
      <trkpt lat="28.05584" lon="-14.32199">
        <ele>36.6</ele>
        <time>2021-07-05 17:46:58</time>
      </trkpt>
      <trkpt lat="28.05574" lon="-14.32201">
        <ele>36</ele>
        <time>2021-07-05 17:46:59</time>
      </trkpt>
      <trkpt lat="28.05566" lon="-14.32203">
        <ele>35.2</ele>
        <time>2021-07-05 17:47:00</time>
      </trkpt>
      <trkpt lat="28.05556" lon="-14.32206">
        <ele>33.4</ele>
        <time>2021-07-05 17:47:01</time>
      </trkpt>
      <trkpt lat="28.05546" lon="-14.32208">
        <ele>33.4</ele>
        <time>2021-07-05 17:47:02</time>
      </trkpt>
      <trkpt lat="28.05536" lon="-14.32211">
        <ele>32.2</ele>
        <time>2021-07-05 17:47:03</time>
      </trkpt>
      <trkpt lat="28.05526" lon="-14.32213">
        <ele>31.2</ele>
        <time>2021-07-05 17:47:04</time>
      </trkpt>
      <trkpt lat="28.05517" lon="-14.32216">
        <ele>30.2</ele>
        <time>2021-07-05 17:47:05</time>
      </trkpt>
      <trkpt lat="28.05507" lon="-14.32218">
        <ele>29.4</ele>
        <time>2021-07-05 17:47:06</time>
      </trkpt>
      <trkpt lat="28.05499" lon="-14.32221">
        <ele>28</ele>
        <time>2021-07-05 17:47:07</time>
      </trkpt>
      <trkpt lat="28.05491" lon="-14.32224">
        <ele>27.4</ele>
        <time>2021-07-05 17:47:08</time>
      </trkpt>
      <trkpt lat="28.05483" lon="-14.32228">
        <ele>27.4</ele>
        <time>2021-07-05 17:47:09</time>
      </trkpt>
      <trkpt lat="28.05476" lon="-14.32232">
        <ele>26.8</ele>
        <time>2021-07-05 17:47:10</time>
      </trkpt>
      <trkpt lat="28.05469" lon="-14.32237">
        <ele>26.6</ele>
        <time>2021-07-05 17:47:11</time>
      </trkpt>
      <trkpt lat="28.05463" lon="-14.32242">
        <ele>26</ele>
        <time>2021-07-05 17:47:12</time>
      </trkpt>
      <trkpt lat="28.05459" lon="-14.32249">
        <ele>26</ele>
        <time>2021-07-05 17:47:13</time>
      </trkpt>
      <trkpt lat="28.05455" lon="-14.32255">
        <ele>26</ele>
        <time>2021-07-05 17:47:14</time>
      </trkpt>
      <trkpt lat="28.05451" lon="-14.32261">
        <ele>25.6</ele>
        <time>2021-07-05 17:47:15</time>
      </trkpt>
      <trkpt lat="28.05445" lon="-14.32265">
        <ele>25.6</ele>
        <time>2021-07-05 17:47:16</time>
      </trkpt>
      <trkpt lat="28.0544" lon="-14.32268">
        <ele>25.6</ele>
        <time>2021-07-05 17:47:17</time>
      </trkpt>
      <trkpt lat="28.05434" lon="-14.3227">
        <ele>25.6</ele>
        <time>2021-07-05 17:47:18</time>
      </trkpt>
      <trkpt lat="28.05428" lon="-14.32272">
        <ele>25.6</ele>
        <time>2021-07-05 17:47:19</time>
      </trkpt>
      <trkpt lat="28.05423" lon="-14.32273">
        <ele>25.6</ele>
        <time>2021-07-05 17:47:20</time>
      </trkpt>
      <trkpt lat="28.05419" lon="-14.32274">
        <ele>25.6</ele>
        <time>2021-07-05 17:47:21</time>
      </trkpt>
      <trkpt lat="28.05415" lon="-14.32274">
        <ele>25.4</ele>
        <time>2021-07-05 17:47:22</time>
      </trkpt>
      <trkpt lat="28.0541" lon="-14.32276">
        <ele>25.4</ele>
        <time>2021-07-05 17:47:23</time>
      </trkpt>
      <trkpt lat="28.05405" lon="-14.32278">
        <ele>25.2</ele>
        <time>2021-07-05 17:47:24</time>
      </trkpt>
      <trkpt lat="28.054" lon="-14.3228">
        <ele>25.2</ele>
        <time>2021-07-05 17:47:25</time>
      </trkpt>
      <trkpt lat="28.05395" lon="-14.32283">
        <ele>24.8</ele>
        <time>2021-07-05 17:47:26</time>
      </trkpt>
      <trkpt lat="28.0539" lon="-14.32285">
        <ele>24.8</ele>
        <time>2021-07-05 17:47:27</time>
      </trkpt>
      <trkpt lat="28.05385" lon="-14.32289">
        <ele>24.2</ele>
        <time>2021-07-05 17:47:28</time>
      </trkpt>
      <trkpt lat="28.0538" lon="-14.32292">
        <ele>24.2</ele>
        <time>2021-07-05 17:47:29</time>
      </trkpt>
      <trkpt lat="28.05375" lon="-14.32295">
        <ele>24</ele>
        <time>2021-07-05 17:47:30</time>
      </trkpt>
      <trkpt lat="28.05369" lon="-14.32298">
        <ele>23.6</ele>
        <time>2021-07-05 17:47:31</time>
      </trkpt>
      <trkpt lat="28.05364" lon="-14.32302">
        <ele>23.4</ele>
        <time>2021-07-05 17:47:32</time>
      </trkpt>
      <trkpt lat="28.05358" lon="-14.32305">
        <ele>23</ele>
        <time>2021-07-05 17:47:33</time>
      </trkpt>
      <trkpt lat="28.05353" lon="-14.32309">
        <ele>23</ele>
        <time>2021-07-05 17:47:34</time>
      </trkpt>
      <trkpt lat="28.05348" lon="-14.32312">
        <ele>23</ele>
        <time>2021-07-05 17:47:35</time>
      </trkpt>
      <trkpt lat="28.05342" lon="-14.32315">
        <ele>22.8</ele>
        <time>2021-07-05 17:47:36</time>
      </trkpt>
      <trkpt lat="28.05337" lon="-14.32319">
        <ele>22.8</ele>
        <time>2021-07-05 17:47:37</time>
      </trkpt>
      <trkpt lat="28.05332" lon="-14.32321">
        <ele>22.4</ele>
        <time>2021-07-05 17:47:38</time>
      </trkpt>
      <trkpt lat="28.05328" lon="-14.32324">
        <ele>22.4</ele>
        <time>2021-07-05 17:47:39</time>
      </trkpt>
      <trkpt lat="28.05324" lon="-14.32327">
        <ele>22.4</ele>
        <time>2021-07-05 17:47:40</time>
      </trkpt>
      <trkpt lat="28.05321" lon="-14.32329">
        <ele>22.2</ele>
        <time>2021-07-05 17:47:41</time>
      </trkpt>
      <trkpt lat="28.05318" lon="-14.32331">
        <ele>22.2</ele>
        <time>2021-07-05 17:47:42</time>
      </trkpt>
      <trkpt lat="28.05315" lon="-14.32333">
        <ele>22.2</ele>
        <time>2021-07-05 17:47:43</time>
      </trkpt>
      <trkpt lat="28.05313" lon="-14.32334">
        <ele>22.2</ele>
        <time>2021-07-05 17:47:44</time>
      </trkpt>
      <trkpt lat="28.05313" lon="-14.32335">
        <ele>22</ele>
        <time>2021-07-05 17:47:45</time>
      </trkpt>
      <trkpt lat="28.05312" lon="-14.32335">
        <ele>22</ele>
        <time>2021-07-05 17:47:46</time>
      </trkpt>
      <trkpt lat="28.05312" lon="-14.32335">
        <ele>22</ele>
        <time>2021-07-05 17:47:47</time>
      </trkpt>
      <trkpt lat="28.05313" lon="-14.32334">
        <ele>22</ele>
        <time>2021-07-05 17:47:48</time>
      </trkpt>
      <trkpt lat="28.05312" lon="-14.32333">
        <ele>21.6</ele>
        <time>2021-07-05 17:47:49</time>
      </trkpt>
      <trkpt lat="28.0531" lon="-14.32332">
        <ele>21.4</ele>
        <time>2021-07-05 17:47:50</time>
      </trkpt>
      <trkpt lat="28.05309" lon="-14.32331">
        <ele>21.4</ele>
        <time>2021-07-05 17:47:51</time>
      </trkpt>
      <trkpt lat="28.05307" lon="-14.32329">
        <ele>21.4</ele>
        <time>2021-07-05 17:47:52</time>
      </trkpt>
      <trkpt lat="28.05305" lon="-14.32327">
        <ele>21.2</ele>
        <time>2021-07-05 17:47:53</time>
      </trkpt>
      <trkpt lat="28.05303" lon="-14.32325">
        <ele>21.2</ele>
        <time>2021-07-05 17:47:54</time>
      </trkpt>
      <trkpt lat="28.05302" lon="-14.32322">
        <ele>21.2</ele>
        <time>2021-07-05 17:47:55</time>
      </trkpt>
      <trkpt lat="28.05299" lon="-14.3232">
        <ele>21.2</ele>
        <time>2021-07-05 17:47:56</time>
      </trkpt>
      <trkpt lat="28.05297" lon="-14.32319">
        <ele>21</ele>
        <time>2021-07-05 17:47:57</time>
      </trkpt>
      <trkpt lat="28.05295" lon="-14.3232">
        <ele>21</ele>
        <time>2021-07-05 17:47:58</time>
      </trkpt>
      <trkpt lat="28.05292" lon="-14.32323">
        <ele>21</ele>
        <time>2021-07-05 17:47:59</time>
      </trkpt>
      <trkpt lat="28.05289" lon="-14.32326">
        <ele>20.6</ele>
        <time>2021-07-05 17:48:00</time>
      </trkpt>
      <trkpt lat="28.05286" lon="-14.32329">
        <ele>20.6</ele>
        <time>2021-07-05 17:48:01</time>
      </trkpt>
      <trkpt lat="28.05284" lon="-14.32333">
        <ele>20.6</ele>
        <time>2021-07-05 17:48:02</time>
      </trkpt>
      <trkpt lat="28.05281" lon="-14.32337">
        <ele>20.6</ele>
        <time>2021-07-05 17:48:03</time>
      </trkpt>
      <trkpt lat="28.05278" lon="-14.32341">
        <ele>20.6</ele>
        <time>2021-07-05 17:48:04</time>
      </trkpt>
      <trkpt lat="28.05275" lon="-14.32345">
        <ele>20.6</ele>
        <time>2021-07-05 17:48:05</time>
      </trkpt>
      <trkpt lat="28.05271" lon="-14.32349">
        <ele>20.6</ele>
        <time>2021-07-05 17:48:06</time>
      </trkpt>
      <trkpt lat="28.05269" lon="-14.32352">
        <ele>20.6</ele>
        <time>2021-07-05 17:48:07</time>
      </trkpt>
      <trkpt lat="28.05266" lon="-14.32356">
        <ele>20.6</ele>
        <time>2021-07-05 17:48:08</time>
      </trkpt>
      <trkpt lat="28.05264" lon="-14.3236">
        <ele>20.8</ele>
        <time>2021-07-05 17:48:09</time>
      </trkpt>
      <trkpt lat="28.05261" lon="-14.32363">
        <ele>20.8</ele>
        <time>2021-07-05 17:48:10</time>
      </trkpt>
      <trkpt lat="28.05258" lon="-14.32366">
        <ele>20.8</ele>
        <time>2021-07-05 17:48:11</time>
      </trkpt>
      <trkpt lat="28.05254" lon="-14.32368">
        <ele>20.8</ele>
        <time>2021-07-05 17:48:12</time>
      </trkpt>
      <trkpt lat="28.05251" lon="-14.32372">
        <ele>20.8</ele>
        <time>2021-07-05 17:48:13</time>
      </trkpt>
      <trkpt lat="28.05249" lon="-14.32375">
        <ele>20.8</ele>
        <time>2021-07-05 17:48:14</time>
      </trkpt>
      <trkpt lat="28.05247" lon="-14.3238">
        <ele>20.8</ele>
        <time>2021-07-05 17:48:15</time>
      </trkpt>
      <trkpt lat="28.05245" lon="-14.32384">
        <ele>20.8</ele>
        <time>2021-07-05 17:48:16</time>
      </trkpt>
      <trkpt lat="28.05243" lon="-14.32388">
        <ele>21</ele>
        <time>2021-07-05 17:48:17</time>
      </trkpt>
      <trkpt lat="28.05241" lon="-14.32393">
        <ele>21</ele>
        <time>2021-07-05 17:48:18</time>
      </trkpt>
      <trkpt lat="28.05239" lon="-14.32397">
        <ele>21.4</ele>
        <time>2021-07-05 17:48:19</time>
      </trkpt>
      <trkpt lat="28.05237" lon="-14.32401">
        <ele>21.4</ele>
        <time>2021-07-05 17:48:20</time>
      </trkpt>
      <trkpt lat="28.05235" lon="-14.32406">
        <ele>21.6</ele>
        <time>2021-07-05 17:48:21</time>
      </trkpt>
      <trkpt lat="28.05232" lon="-14.3241">
        <ele>21.6</ele>
        <time>2021-07-05 17:48:22</time>
      </trkpt>
      <trkpt lat="28.0523" lon="-14.32415">
        <ele>22</ele>
        <time>2021-07-05 17:48:23</time>
      </trkpt>
      <trkpt lat="28.05228" lon="-14.3242">
        <ele>22</ele>
        <time>2021-07-05 17:48:24</time>
      </trkpt>
      <trkpt lat="28.05225" lon="-14.32425">
        <ele>22.2</ele>
        <time>2021-07-05 17:48:25</time>
      </trkpt>
      <trkpt lat="28.05223" lon="-14.32429">
        <ele>22.4</ele>
        <time>2021-07-05 17:48:26</time>
      </trkpt>
      <trkpt lat="28.05221" lon="-14.32434">
        <ele>22.4</ele>
        <time>2021-07-05 17:48:27</time>
      </trkpt>
      <trkpt lat="28.05219" lon="-14.32439">
        <ele>22.4</ele>
        <time>2021-07-05 17:48:28</time>
      </trkpt>
      <trkpt lat="28.05217" lon="-14.32443">
        <ele>22.6</ele>
        <time>2021-07-05 17:48:29</time>
      </trkpt>
      <trkpt lat="28.05215" lon="-14.32448">
        <ele>22.6</ele>
        <time>2021-07-05 17:48:30</time>
      </trkpt>
      <trkpt lat="28.05213" lon="-14.32452">
        <ele>23</ele>
        <time>2021-07-05 17:48:31</time>
      </trkpt>
      <trkpt lat="28.0521" lon="-14.32457">
        <ele>23</ele>
        <time>2021-07-05 17:48:32</time>
      </trkpt>
      <trkpt lat="28.05208" lon="-14.32461">
        <ele>23</ele>
        <time>2021-07-05 17:48:33</time>
      </trkpt>
      <trkpt lat="28.05205" lon="-14.32466">
        <ele>23.2</ele>
        <time>2021-07-05 17:48:34</time>
      </trkpt>
      <trkpt lat="28.05203" lon="-14.3247">
        <ele>23.2</ele>
        <time>2021-07-05 17:48:35</time>
      </trkpt>
      <trkpt lat="28.05201" lon="-14.32475">
        <ele>23.2</ele>
        <time>2021-07-05 17:48:36</time>
      </trkpt>
      <trkpt lat="28.05199" lon="-14.32479">
        <ele>23.2</ele>
        <time>2021-07-05 17:48:37</time>
      </trkpt>
      <trkpt lat="28.05199" lon="-14.32479">
        <ele>23.4</ele>
        <time>2021-07-05 17:48:38</time>
      </trkpt>
      <trkpt lat="28.05188" lon="-14.325">
        <ele>23.8</ele>
        <time>2021-07-05 17:48:39</time>
      </trkpt>
      <trkpt lat="28.05187" lon="-14.32505">
        <ele>23.8</ele>
        <time>2021-07-05 17:48:40</time>
      </trkpt>
      <trkpt lat="28.05185" lon="-14.32509">
        <ele>23.8</ele>
        <time>2021-07-05 17:48:41</time>
      </trkpt>
      <trkpt lat="28.05183" lon="-14.32513">
        <ele>23.8</ele>
        <time>2021-07-05 17:48:42</time>
      </trkpt>
      <trkpt lat="28.0518" lon="-14.32518">
        <ele>24</ele>
        <time>2021-07-05 17:48:43</time>
      </trkpt>
      <trkpt lat="28.05179" lon="-14.32522">
        <ele>24</ele>
        <time>2021-07-05 17:48:44</time>
      </trkpt>
      <trkpt lat="28.05177" lon="-14.32527">
        <ele>24</ele>
        <time>2021-07-05 17:48:45</time>
      </trkpt>
      <trkpt lat="28.05174" lon="-14.32531">
        <ele>24</ele>
        <time>2021-07-05 17:48:46</time>
      </trkpt>
      <trkpt lat="28.05172" lon="-14.32535">
        <ele>24.2</ele>
        <time>2021-07-05 17:48:47</time>
      </trkpt>
      <trkpt lat="28.0517" lon="-14.3254">
        <ele>24.2</ele>
        <time>2021-07-05 17:48:48</time>
      </trkpt>
      <trkpt lat="28.05168" lon="-14.32544">
        <ele>24.6</ele>
        <time>2021-07-05 17:48:49</time>
      </trkpt>
      <trkpt lat="28.05165" lon="-14.32548">
        <ele>24.6</ele>
        <time>2021-07-05 17:48:50</time>
      </trkpt>
      <trkpt lat="28.05163" lon="-14.32553">
        <ele>24.6</ele>
        <time>2021-07-05 17:48:51</time>
      </trkpt>
      <trkpt lat="28.05161" lon="-14.32557">
        <ele>24.8</ele>
        <time>2021-07-05 17:48:52</time>
      </trkpt>
      <trkpt lat="28.05158" lon="-14.32562">
        <ele>24.8</ele>
        <time>2021-07-05 17:48:53</time>
      </trkpt>
      <trkpt lat="28.05156" lon="-14.32565">
        <ele>24.8</ele>
        <time>2021-07-05 17:48:54</time>
      </trkpt>
      <trkpt lat="28.05156" lon="-14.32565">
        <ele>25</ele>
        <time>2021-07-05 17:48:55</time>
      </trkpt>
      <trkpt lat="28.05153" lon="-14.32573">
        <ele>25</ele>
        <time>2021-07-05 17:48:56</time>
      </trkpt>
      <trkpt lat="28.05151" lon="-14.32577">
        <ele>25</ele>
        <time>2021-07-05 17:48:57</time>
      </trkpt>
      <trkpt lat="28.05149" lon="-14.32581">
        <ele>25</ele>
        <time>2021-07-05 17:48:58</time>
      </trkpt>
      <trkpt lat="28.05147" lon="-14.32586">
        <ele>25</ele>
        <time>2021-07-05 17:48:59</time>
      </trkpt>
      <trkpt lat="28.05145" lon="-14.3259">
        <ele>25</ele>
        <time>2021-07-05 17:49:00</time>
      </trkpt>
      <trkpt lat="28.05143" lon="-14.32594">
        <ele>25</ele>
        <time>2021-07-05 17:49:01</time>
      </trkpt>
      <trkpt lat="28.0514" lon="-14.32598">
        <ele>25</ele>
        <time>2021-07-05 17:49:02</time>
      </trkpt>
      <trkpt lat="28.05138" lon="-14.32602">
        <ele>25.2</ele>
        <time>2021-07-05 17:49:03</time>
      </trkpt>
      <trkpt lat="28.05136" lon="-14.32605">
        <ele>25.2</ele>
        <time>2021-07-05 17:49:04</time>
      </trkpt>
      <trkpt lat="28.05134" lon="-14.32609">
        <ele>25.2</ele>
        <time>2021-07-05 17:49:05</time>
      </trkpt>
      <trkpt lat="28.05133" lon="-14.32614">
        <ele>25.2</ele>
        <time>2021-07-05 17:49:06</time>
      </trkpt>
      <trkpt lat="28.05131" lon="-14.32618">
        <ele>24.6</ele>
        <time>2021-07-05 17:49:07</time>
      </trkpt>
      <trkpt lat="28.05128" lon="-14.32623">
        <ele>24.8</ele>
        <time>2021-07-05 17:49:08</time>
      </trkpt>
      <trkpt lat="28.05126" lon="-14.32627">
        <ele>24.8</ele>
        <time>2021-07-05 17:49:09</time>
      </trkpt>
      <trkpt lat="28.05124" lon="-14.32632">
        <ele>24.8</ele>
        <time>2021-07-05 17:49:10</time>
      </trkpt>
      <trkpt lat="28.05122" lon="-14.32636">
        <ele>24.8</ele>
        <time>2021-07-05 17:49:11</time>
      </trkpt>
      <trkpt lat="28.0512" lon="-14.3264">
        <ele>24.8</ele>
        <time>2021-07-05 17:49:12</time>
      </trkpt>
      <trkpt lat="28.05118" lon="-14.32645">
        <ele>24.8</ele>
        <time>2021-07-05 17:49:13</time>
      </trkpt>
      <trkpt lat="28.05115" lon="-14.32649">
        <ele>24.8</ele>
        <time>2021-07-05 17:49:14</time>
      </trkpt>
      <trkpt lat="28.05113" lon="-14.32654">
        <ele>24.8</ele>
        <time>2021-07-05 17:49:15</time>
      </trkpt>
      <trkpt lat="28.05111" lon="-14.32658">
        <ele>24.8</ele>
        <time>2021-07-05 17:49:16</time>
      </trkpt>
      <trkpt lat="28.05108" lon="-14.32662">
        <ele>24.8</ele>
        <time>2021-07-05 17:49:17</time>
      </trkpt>
      <trkpt lat="28.05106" lon="-14.32667">
        <ele>24.8</ele>
        <time>2021-07-05 17:49:18</time>
      </trkpt>
      <trkpt lat="28.05104" lon="-14.32671">
        <ele>24.8</ele>
        <time>2021-07-05 17:49:19</time>
      </trkpt>
      <trkpt lat="28.05102" lon="-14.32676">
        <ele>24.8</ele>
        <time>2021-07-05 17:49:20</time>
      </trkpt>
      <trkpt lat="28.051" lon="-14.32681">
        <ele>24.8</ele>
        <time>2021-07-05 17:49:21</time>
      </trkpt>
      <trkpt lat="28.05098" lon="-14.32686">
        <ele>24.8</ele>
        <time>2021-07-05 17:49:22</time>
      </trkpt>
      <trkpt lat="28.05095" lon="-14.32691">
        <ele>24.8</ele>
        <time>2021-07-05 17:49:23</time>
      </trkpt>
      <trkpt lat="28.05093" lon="-14.32696">
        <ele>24.8</ele>
        <time>2021-07-05 17:49:24</time>
      </trkpt>
      <trkpt lat="28.05091" lon="-14.327">
        <ele>24.8</ele>
        <time>2021-07-05 17:49:25</time>
      </trkpt>
      <trkpt lat="28.05088" lon="-14.32705">
        <ele>25</ele>
        <time>2021-07-05 17:49:26</time>
      </trkpt>
      <trkpt lat="28.05086" lon="-14.32709">
        <ele>25</ele>
        <time>2021-07-05 17:49:27</time>
      </trkpt>
      <trkpt lat="28.05084" lon="-14.32714">
        <ele>25</ele>
        <time>2021-07-05 17:49:28</time>
      </trkpt>
      <trkpt lat="28.05081" lon="-14.32718">
        <ele>25.4</ele>
        <time>2021-07-05 17:49:29</time>
      </trkpt>
      <trkpt lat="28.05079" lon="-14.32722">
        <ele>25.4</ele>
        <time>2021-07-05 17:49:30</time>
      </trkpt>
      <trkpt lat="28.05077" lon="-14.32726">
        <ele>25.6</ele>
        <time>2021-07-05 17:49:31</time>
      </trkpt>
      <trkpt lat="28.05075" lon="-14.32731">
        <ele>25.6</ele>
        <time>2021-07-05 17:49:32</time>
      </trkpt>
      <trkpt lat="28.05073" lon="-14.32734">
        <ele>25.6</ele>
        <time>2021-07-05 17:49:33</time>
      </trkpt>
      <trkpt lat="28.05071" lon="-14.32738">
        <ele>25.6</ele>
        <time>2021-07-05 17:49:34</time>
      </trkpt>
      <trkpt lat="28.05069" lon="-14.32742">
        <ele>25.6</ele>
        <time>2021-07-05 17:49:35</time>
      </trkpt>
      <trkpt lat="28.05067" lon="-14.32747">
        <ele>25.8</ele>
        <time>2021-07-05 17:49:36</time>
      </trkpt>
      <trkpt lat="28.05065" lon="-14.32751">
        <ele>25.8</ele>
        <time>2021-07-05 17:49:37</time>
      </trkpt>
      <trkpt lat="28.05063" lon="-14.32755">
        <ele>25.8</ele>
        <time>2021-07-05 17:49:38</time>
      </trkpt>
      <trkpt lat="28.05062" lon="-14.32759">
        <ele>25.8</ele>
        <time>2021-07-05 17:49:39</time>
      </trkpt>
      <trkpt lat="28.0506" lon="-14.32763">
        <ele>26</ele>
        <time>2021-07-05 17:49:40</time>
      </trkpt>
      <trkpt lat="28.05058" lon="-14.32768">
        <ele>26</ele>
        <time>2021-07-05 17:49:41</time>
      </trkpt>
      <trkpt lat="28.05056" lon="-14.32772">
        <ele>26.4</ele>
        <time>2021-07-05 17:49:42</time>
      </trkpt>
      <trkpt lat="28.05054" lon="-14.32776">
        <ele>26.4</ele>
        <time>2021-07-05 17:49:43</time>
      </trkpt>
      <trkpt lat="28.05052" lon="-14.3278">
        <ele>26.4</ele>
        <time>2021-07-05 17:49:44</time>
      </trkpt>
      <trkpt lat="28.0505" lon="-14.32784">
        <ele>26.4</ele>
        <time>2021-07-05 17:49:45</time>
      </trkpt>
      <trkpt lat="28.05047" lon="-14.32789">
        <ele>26.4</ele>
        <time>2021-07-05 17:49:46</time>
      </trkpt>
      <trkpt lat="28.05045" lon="-14.32793">
        <ele>26.6</ele>
        <time>2021-07-05 17:49:47</time>
      </trkpt>
      <trkpt lat="28.05043" lon="-14.32797">
        <ele>26.6</ele>
        <time>2021-07-05 17:49:48</time>
      </trkpt>
      <trkpt lat="28.0504" lon="-14.32801">
        <ele>26.6</ele>
        <time>2021-07-05 17:49:49</time>
      </trkpt>
      <trkpt lat="28.05038" lon="-14.32806">
        <ele>26.8</ele>
        <time>2021-07-05 17:49:50</time>
      </trkpt>
      <trkpt lat="28.05035" lon="-14.3281">
        <ele>26.8</ele>
        <time>2021-07-05 17:49:51</time>
      </trkpt>
      <trkpt lat="28.05033" lon="-14.32815">
        <ele>27.2</ele>
        <time>2021-07-05 17:49:52</time>
      </trkpt>
      <trkpt lat="28.05031" lon="-14.3282">
        <ele>27.2</ele>
        <time>2021-07-05 17:49:53</time>
      </trkpt>
      <trkpt lat="28.05028" lon="-14.32825">
        <ele>27.4</ele>
        <time>2021-07-05 17:49:54</time>
      </trkpt>
      <trkpt lat="28.05026" lon="-14.3283">
        <ele>27.4</ele>
        <time>2021-07-05 17:49:55</time>
      </trkpt>
      <trkpt lat="28.05023" lon="-14.32835">
        <ele>27.4</ele>
        <time>2021-07-05 17:49:56</time>
      </trkpt>
      <trkpt lat="28.0502" lon="-14.3284">
        <ele>27.4</ele>
        <time>2021-07-05 17:49:57</time>
      </trkpt>
      <trkpt lat="28.05017" lon="-14.32844">
        <ele>27.4</ele>
        <time>2021-07-05 17:49:58</time>
      </trkpt>
      <trkpt lat="28.05015" lon="-14.32849">
        <ele>27.4</ele>
        <time>2021-07-05 17:49:59</time>
      </trkpt>
      <trkpt lat="28.05012" lon="-14.32854">
        <ele>27.4</ele>
        <time>2021-07-05 17:50:00</time>
      </trkpt>
      <trkpt lat="28.05009" lon="-14.32859">
        <ele>27.4</ele>
        <time>2021-07-05 17:50:01</time>
      </trkpt>
      <trkpt lat="28.05007" lon="-14.32863">
        <ele>27.4</ele>
        <time>2021-07-05 17:50:02</time>
      </trkpt>
      <trkpt lat="28.05004" lon="-14.32868">
        <ele>27.4</ele>
        <time>2021-07-05 17:50:03</time>
      </trkpt>
      <trkpt lat="28.05002" lon="-14.32872">
        <ele>27.2</ele>
        <time>2021-07-05 17:50:04</time>
      </trkpt>
      <trkpt lat="28.04999" lon="-14.32877">
        <ele>27.2</ele>
        <time>2021-07-05 17:50:05</time>
      </trkpt>
      <trkpt lat="28.04996" lon="-14.32881">
        <ele>27.2</ele>
        <time>2021-07-05 17:50:06</time>
      </trkpt>
      <trkpt lat="28.04993" lon="-14.32885">
        <ele>27</ele>
        <time>2021-07-05 17:50:07</time>
      </trkpt>
      <trkpt lat="28.0499" lon="-14.32889">
        <ele>27</ele>
        <time>2021-07-05 17:50:08</time>
      </trkpt>
      <trkpt lat="28.04987" lon="-14.32892">
        <ele>27</ele>
        <time>2021-07-05 17:50:09</time>
      </trkpt>
      <trkpt lat="28.04983" lon="-14.32896">
        <ele>26.8</ele>
        <time>2021-07-05 17:50:10</time>
      </trkpt>
      <trkpt lat="28.0498" lon="-14.32899">
        <ele>26.8</ele>
        <time>2021-07-05 17:50:11</time>
      </trkpt>
      <trkpt lat="28.04977" lon="-14.32903">
        <ele>26.8</ele>
        <time>2021-07-05 17:50:12</time>
      </trkpt>
      <trkpt lat="28.04974" lon="-14.32907">
        <ele>26.6</ele>
        <time>2021-07-05 17:50:13</time>
      </trkpt>
      <trkpt lat="28.04971" lon="-14.32913">
        <ele>26.6</ele>
        <time>2021-07-05 17:50:14</time>
      </trkpt>
      <trkpt lat="28.04969" lon="-14.32918">
        <ele>26.6</ele>
        <time>2021-07-05 17:50:15</time>
      </trkpt>
      <trkpt lat="28.04968" lon="-14.32923">
        <ele>26.2</ele>
        <time>2021-07-05 17:50:16</time>
      </trkpt>
      <trkpt lat="28.04968" lon="-14.32929">
        <ele>26.2</ele>
        <time>2021-07-05 17:50:17</time>
      </trkpt>
      <trkpt lat="28.04967" lon="-14.32935">
        <ele>26</ele>
        <time>2021-07-05 17:50:18</time>
      </trkpt>
      <trkpt lat="28.04966" lon="-14.3294">
        <ele>26</ele>
        <time>2021-07-05 17:50:19</time>
      </trkpt>
      <trkpt lat="28.04965" lon="-14.32946">
        <ele>26</ele>
        <time>2021-07-05 17:50:20</time>
      </trkpt>
      <trkpt lat="28.04964" lon="-14.32951">
        <ele>25.8</ele>
        <time>2021-07-05 17:50:21</time>
      </trkpt>
      <trkpt lat="28.04963" lon="-14.32956">
        <ele>25.8</ele>
        <time>2021-07-05 17:50:22</time>
      </trkpt>
      <trkpt lat="28.04963" lon="-14.32963">
        <ele>25.8</ele>
        <time>2021-07-05 17:50:23</time>
      </trkpt>
      <trkpt lat="28.04961" lon="-14.32968">
        <ele>25.8</ele>
        <time>2021-07-05 17:50:24</time>
      </trkpt>
      <trkpt lat="28.0496" lon="-14.32974">
        <ele>25.8</ele>
        <time>2021-07-05 17:50:25</time>
      </trkpt>
      <trkpt lat="28.04959" lon="-14.32979">
        <ele>25.6</ele>
        <time>2021-07-05 17:50:26</time>
      </trkpt>
      <trkpt lat="28.04958" lon="-14.32985">
        <ele>25.6</ele>
        <time>2021-07-05 17:50:27</time>
      </trkpt>
      <trkpt lat="28.04956" lon="-14.3299">
        <ele>25.6</ele>
        <time>2021-07-05 17:50:28</time>
      </trkpt>
      <trkpt lat="28.04955" lon="-14.32996">
        <ele>25.6</ele>
        <time>2021-07-05 17:50:29</time>
      </trkpt>
      <trkpt lat="28.04954" lon="-14.33001">
        <ele>25.6</ele>
        <time>2021-07-05 17:50:30</time>
      </trkpt>
      <trkpt lat="28.04952" lon="-14.33007">
        <ele>25.6</ele>
        <time>2021-07-05 17:50:31</time>
      </trkpt>
      <trkpt lat="28.04951" lon="-14.33013">
        <ele>25.4</ele>
        <time>2021-07-05 17:50:32</time>
      </trkpt>
      <trkpt lat="28.0495" lon="-14.33019">
        <ele>25.4</ele>
        <time>2021-07-05 17:50:33</time>
      </trkpt>
      <trkpt lat="28.04949" lon="-14.33024">
        <ele>25.4</ele>
        <time>2021-07-05 17:50:34</time>
      </trkpt>
      <trkpt lat="28.04948" lon="-14.3303">
        <ele>25</ele>
        <time>2021-07-05 17:50:35</time>
      </trkpt>
      <trkpt lat="28.04946" lon="-14.33036">
        <ele>25</ele>
        <time>2021-07-05 17:50:36</time>
      </trkpt>
      <trkpt lat="28.04945" lon="-14.33042">
        <ele>25</ele>
        <time>2021-07-05 17:50:37</time>
      </trkpt>
      <trkpt lat="28.04943" lon="-14.33048">
        <ele>25</ele>
        <time>2021-07-05 17:50:38</time>
      </trkpt>
      <trkpt lat="28.04942" lon="-14.33055">
        <ele>24.8</ele>
        <time>2021-07-05 17:50:39</time>
      </trkpt>
      <trkpt lat="28.0494" lon="-14.33062">
        <ele>24.8</ele>
        <time>2021-07-05 17:50:40</time>
      </trkpt>
      <trkpt lat="28.04939" lon="-14.33068">
        <ele>24.8</ele>
        <time>2021-07-05 17:50:41</time>
      </trkpt>
      <trkpt lat="28.04937" lon="-14.33074">
        <ele>24.6</ele>
        <time>2021-07-05 17:50:42</time>
      </trkpt>
      <trkpt lat="28.04935" lon="-14.33081">
        <ele>24.6</ele>
        <time>2021-07-05 17:50:43</time>
      </trkpt>
      <trkpt lat="28.04934" lon="-14.33087">
        <ele>24.6</ele>
        <time>2021-07-05 17:50:44</time>
      </trkpt>
      <trkpt lat="28.04933" lon="-14.33094">
        <ele>24.6</ele>
        <time>2021-07-05 17:50:45</time>
      </trkpt>
      <trkpt lat="28.04931" lon="-14.331">
        <ele>24.6</ele>
        <time>2021-07-05 17:50:46</time>
      </trkpt>
      <trkpt lat="28.0493" lon="-14.33106">
        <ele>24.4</ele>
        <time>2021-07-05 17:50:47</time>
      </trkpt>
      <trkpt lat="28.04928" lon="-14.33113">
        <ele>24.4</ele>
        <time>2021-07-05 17:50:48</time>
      </trkpt>
      <trkpt lat="28.04927" lon="-14.33119">
        <ele>24.4</ele>
        <time>2021-07-05 17:50:49</time>
      </trkpt>
      <trkpt lat="28.04925" lon="-14.33126">
        <ele>24.4</ele>
        <time>2021-07-05 17:50:50</time>
      </trkpt>
      <trkpt lat="28.04924" lon="-14.33132">
        <ele>24.2</ele>
        <time>2021-07-05 17:50:51</time>
      </trkpt>
      <trkpt lat="28.04922" lon="-14.33139">
        <ele>24.2</ele>
        <time>2021-07-05 17:50:52</time>
      </trkpt>
      <trkpt lat="28.04921" lon="-14.33146">
        <ele>24.2</ele>
        <time>2021-07-05 17:50:53</time>
      </trkpt>
      <trkpt lat="28.04919" lon="-14.33152">
        <ele>24.2</ele>
        <time>2021-07-05 17:50:54</time>
      </trkpt>
      <trkpt lat="28.04917" lon="-14.33159">
        <ele>23.8</ele>
        <time>2021-07-05 17:50:55</time>
      </trkpt>
      <trkpt lat="28.04916" lon="-14.33166">
        <ele>23.6</ele>
        <time>2021-07-05 17:50:56</time>
      </trkpt>
      <trkpt lat="28.04914" lon="-14.33173">
        <ele>23.6</ele>
        <time>2021-07-05 17:50:57</time>
      </trkpt>
      <trkpt lat="28.04912" lon="-14.3318">
        <ele>23.6</ele>
        <time>2021-07-05 17:50:58</time>
      </trkpt>
      <trkpt lat="28.04911" lon="-14.33187">
        <ele>23.6</ele>
        <time>2021-07-05 17:50:59</time>
      </trkpt>
      <trkpt lat="28.04909" lon="-14.33194">
        <ele>23.6</ele>
        <time>2021-07-05 17:51:00</time>
      </trkpt>
      <trkpt lat="28.04908" lon="-14.33201">
        <ele>23.6</ele>
        <time>2021-07-05 17:51:01</time>
      </trkpt>
      <trkpt lat="28.04906" lon="-14.33208">
        <ele>23.2</ele>
        <time>2021-07-05 17:51:02</time>
      </trkpt>
      <trkpt lat="28.04904" lon="-14.33216">
        <ele>23</ele>
        <time>2021-07-05 17:51:03</time>
      </trkpt>
      <trkpt lat="28.04903" lon="-14.33223">
        <ele>23</ele>
        <time>2021-07-05 17:51:04</time>
      </trkpt>
      <trkpt lat="28.04902" lon="-14.3323">
        <ele>23</ele>
        <time>2021-07-05 17:51:05</time>
      </trkpt>
      <trkpt lat="28.049" lon="-14.33237">
        <ele>23</ele>
        <time>2021-07-05 17:51:06</time>
      </trkpt>
      <trkpt lat="28.04898" lon="-14.33244">
        <ele>23</ele>
        <time>2021-07-05 17:51:07</time>
      </trkpt>
      <trkpt lat="28.04896" lon="-14.33251">
        <ele>22.8</ele>
        <time>2021-07-05 17:51:08</time>
      </trkpt>
      <trkpt lat="28.04895" lon="-14.33258">
        <ele>22.8</ele>
        <time>2021-07-05 17:51:09</time>
      </trkpt>
      <trkpt lat="28.04894" lon="-14.33265">
        <ele>22.8</ele>
        <time>2021-07-05 17:51:10</time>
      </trkpt>
      <trkpt lat="28.04892" lon="-14.33272">
        <ele>22.8</ele>
        <time>2021-07-05 17:51:11</time>
      </trkpt>
      <trkpt lat="28.04891" lon="-14.33279">
        <ele>22.8</ele>
        <time>2021-07-05 17:51:12</time>
      </trkpt>
      <trkpt lat="28.04889" lon="-14.33286">
        <ele>22.8</ele>
        <time>2021-07-05 17:51:13</time>
      </trkpt>
      <trkpt lat="28.04888" lon="-14.33293">
        <ele>22.6</ele>
        <time>2021-07-05 17:51:14</time>
      </trkpt>
      <trkpt lat="28.04886" lon="-14.333">
        <ele>22.6</ele>
        <time>2021-07-05 17:51:15</time>
      </trkpt>
      <trkpt lat="28.04885" lon="-14.33306">
        <ele>22.6</ele>
        <time>2021-07-05 17:51:16</time>
      </trkpt>
      <trkpt lat="28.04883" lon="-14.33313">
        <ele>22.6</ele>
        <time>2021-07-05 17:51:17</time>
      </trkpt>
      <trkpt lat="28.04881" lon="-14.3332">
        <ele>22.6</ele>
        <time>2021-07-05 17:51:18</time>
      </trkpt>
      <trkpt lat="28.0488" lon="-14.33327">
        <ele>22.2</ele>
        <time>2021-07-05 17:51:19</time>
      </trkpt>
      <trkpt lat="28.04878" lon="-14.33334">
        <ele>22.2</ele>
        <time>2021-07-05 17:51:20</time>
      </trkpt>
      <trkpt lat="28.04876" lon="-14.33341">
        <ele>22.2</ele>
        <time>2021-07-05 17:51:21</time>
      </trkpt>
      <trkpt lat="28.04875" lon="-14.33348">
        <ele>22.2</ele>
        <time>2021-07-05 17:51:22</time>
      </trkpt>
      <trkpt lat="28.04873" lon="-14.33355">
        <ele>22.2</ele>
        <time>2021-07-05 17:51:23</time>
      </trkpt>
      <trkpt lat="28.04871" lon="-14.33362">
        <ele>22.2</ele>
        <time>2021-07-05 17:51:24</time>
      </trkpt>
      <trkpt lat="28.0487" lon="-14.33369">
        <ele>22</ele>
        <time>2021-07-05 17:51:25</time>
      </trkpt>
      <trkpt lat="28.04868" lon="-14.33376">
        <ele>22</ele>
        <time>2021-07-05 17:51:26</time>
      </trkpt>
      <trkpt lat="28.04866" lon="-14.33382">
        <ele>22</ele>
        <time>2021-07-05 17:51:27</time>
      </trkpt>
      <trkpt lat="28.04865" lon="-14.33389">
        <ele>22</ele>
        <time>2021-07-05 17:51:28</time>
      </trkpt>
      <trkpt lat="28.04863" lon="-14.33396">
        <ele>22</ele>
        <time>2021-07-05 17:51:29</time>
      </trkpt>
      <trkpt lat="28.04862" lon="-14.33403">
        <ele>22</ele>
        <time>2021-07-05 17:51:30</time>
      </trkpt>
      <trkpt lat="28.04861" lon="-14.3341">
        <ele>22</ele>
        <time>2021-07-05 17:51:31</time>
      </trkpt>
      <trkpt lat="28.04859" lon="-14.33417">
        <ele>22</ele>
        <time>2021-07-05 17:51:32</time>
      </trkpt>
      <trkpt lat="28.04857" lon="-14.33423">
        <ele>22</ele>
        <time>2021-07-05 17:51:33</time>
      </trkpt>
      <trkpt lat="28.04856" lon="-14.33429">
        <ele>22</ele>
        <time>2021-07-05 17:51:34</time>
      </trkpt>
      <trkpt lat="28.04854" lon="-14.33435">
        <ele>22</ele>
        <time>2021-07-05 17:51:35</time>
      </trkpt>
      <trkpt lat="28.04853" lon="-14.33441">
        <ele>22</ele>
        <time>2021-07-05 17:51:36</time>
      </trkpt>
      <trkpt lat="28.04852" lon="-14.33447">
        <ele>22</ele>
        <time>2021-07-05 17:51:37</time>
      </trkpt>
      <trkpt lat="28.04851" lon="-14.33453">
        <ele>22</ele>
        <time>2021-07-05 17:51:38</time>
      </trkpt>
      <trkpt lat="28.0485" lon="-14.33459">
        <ele>22</ele>
        <time>2021-07-05 17:51:39</time>
      </trkpt>
      <trkpt lat="28.04848" lon="-14.33465">
        <ele>22</ele>
        <time>2021-07-05 17:51:40</time>
      </trkpt>
      <trkpt lat="28.04847" lon="-14.33471">
        <ele>22</ele>
        <time>2021-07-05 17:51:41</time>
      </trkpt>
      <trkpt lat="28.04846" lon="-14.33477">
        <ele>22</ele>
        <time>2021-07-05 17:51:42</time>
      </trkpt>
      <trkpt lat="28.04844" lon="-14.33484">
        <ele>22</ele>
        <time>2021-07-05 17:51:43</time>
      </trkpt>
      <trkpt lat="28.04843" lon="-14.3349">
        <ele>22</ele>
        <time>2021-07-05 17:51:44</time>
      </trkpt>
      <trkpt lat="28.04842" lon="-14.33496">
        <ele>22</ele>
        <time>2021-07-05 17:51:45</time>
      </trkpt>
      <trkpt lat="28.0484" lon="-14.33503">
        <ele>22</ele>
        <time>2021-07-05 17:51:46</time>
      </trkpt>
      <trkpt lat="28.04839" lon="-14.3351">
        <ele>22</ele>
        <time>2021-07-05 17:51:47</time>
      </trkpt>
      <trkpt lat="28.04838" lon="-14.33516">
        <ele>22</ele>
        <time>2021-07-05 17:51:48</time>
      </trkpt>
      <trkpt lat="28.04837" lon="-14.33523">
        <ele>22</ele>
        <time>2021-07-05 17:51:49</time>
      </trkpt>
      <trkpt lat="28.04836" lon="-14.33529">
        <ele>22</ele>
        <time>2021-07-05 17:51:50</time>
      </trkpt>
      <trkpt lat="28.04835" lon="-14.33535">
        <ele>22.2</ele>
        <time>2021-07-05 17:51:51</time>
      </trkpt>
      <trkpt lat="28.04834" lon="-14.33542">
        <ele>22.2</ele>
        <time>2021-07-05 17:51:52</time>
      </trkpt>
      <trkpt lat="28.04833" lon="-14.33549">
        <ele>22.2</ele>
        <time>2021-07-05 17:51:53</time>
      </trkpt>
      <trkpt lat="28.04833" lon="-14.33555">
        <ele>22.2</ele>
        <time>2021-07-05 17:51:54</time>
      </trkpt>
      <trkpt lat="28.04833" lon="-14.33562">
        <ele>22.2</ele>
        <time>2021-07-05 17:51:55</time>
      </trkpt>
      <trkpt lat="28.04833" lon="-14.33568">
        <ele>22.2</ele>
        <time>2021-07-05 17:51:56</time>
      </trkpt>
      <trkpt lat="28.04833" lon="-14.33575">
        <ele>22.2</ele>
        <time>2021-07-05 17:51:57</time>
      </trkpt>
      <trkpt lat="28.04833" lon="-14.33581">
        <ele>22.2</ele>
        <time>2021-07-05 17:51:58</time>
      </trkpt>
      <trkpt lat="28.04834" lon="-14.33588">
        <ele>22.4</ele>
        <time>2021-07-05 17:51:59</time>
      </trkpt>
      <trkpt lat="28.04835" lon="-14.33594">
        <ele>22.4</ele>
        <time>2021-07-05 17:52:00</time>
      </trkpt>
      <trkpt lat="28.04836" lon="-14.33601">
        <ele>22.4</ele>
        <time>2021-07-05 17:52:01</time>
      </trkpt>
      <trkpt lat="28.04836" lon="-14.33607">
        <ele>22.4</ele>
        <time>2021-07-05 17:52:02</time>
      </trkpt>
      <trkpt lat="28.04837" lon="-14.33614">
        <ele>22.4</ele>
        <time>2021-07-05 17:52:03</time>
      </trkpt>
      <trkpt lat="28.04838" lon="-14.3362">
        <ele>22.4</ele>
        <time>2021-07-05 17:52:04</time>
      </trkpt>
      <trkpt lat="28.04838" lon="-14.33626">
        <ele>22.4</ele>
        <time>2021-07-05 17:52:05</time>
      </trkpt>
      <trkpt lat="28.04838" lon="-14.33633">
        <ele>22.8</ele>
        <time>2021-07-05 17:52:06</time>
      </trkpt>
      <trkpt lat="28.04838" lon="-14.3364">
        <ele>22.8</ele>
        <time>2021-07-05 17:52:07</time>
      </trkpt>
      <trkpt lat="28.04839" lon="-14.33646">
        <ele>22.8</ele>
        <time>2021-07-05 17:52:08</time>
      </trkpt>
      <trkpt lat="28.04839" lon="-14.33652">
        <ele>22.8</ele>
        <time>2021-07-05 17:52:09</time>
      </trkpt>
      <trkpt lat="28.04839" lon="-14.33658">
        <ele>22.8</ele>
        <time>2021-07-05 17:52:10</time>
      </trkpt>
      <trkpt lat="28.0484" lon="-14.33665">
        <ele>22.8</ele>
        <time>2021-07-05 17:52:11</time>
      </trkpt>
      <trkpt lat="28.0484" lon="-14.33671">
        <ele>22.8</ele>
        <time>2021-07-05 17:52:12</time>
      </trkpt>
      <trkpt lat="28.04841" lon="-14.33678">
        <ele>22.8</ele>
        <time>2021-07-05 17:52:13</time>
      </trkpt>
      <trkpt lat="28.04841" lon="-14.33684">
        <ele>22.8</ele>
        <time>2021-07-05 17:52:14</time>
      </trkpt>
      <trkpt lat="28.04841" lon="-14.33691">
        <ele>22.8</ele>
        <time>2021-07-05 17:52:15</time>
      </trkpt>
      <trkpt lat="28.04842" lon="-14.33697">
        <ele>23</ele>
        <time>2021-07-05 17:52:16</time>
      </trkpt>
      <trkpt lat="28.04842" lon="-14.33704">
        <ele>23</ele>
        <time>2021-07-05 17:52:17</time>
      </trkpt>
      <trkpt lat="28.04843" lon="-14.3371">
        <ele>23</ele>
        <time>2021-07-05 17:52:18</time>
      </trkpt>
      <trkpt lat="28.04843" lon="-14.33717">
        <ele>23.2</ele>
        <time>2021-07-05 17:52:19</time>
      </trkpt>
      <trkpt lat="28.04843" lon="-14.33723">
        <ele>23.2</ele>
        <time>2021-07-05 17:52:20</time>
      </trkpt>
      <trkpt lat="28.04844" lon="-14.33728">
        <ele>23.2</ele>
        <time>2021-07-05 17:52:21</time>
      </trkpt>
      <trkpt lat="28.04844" lon="-14.33734">
        <ele>23.4</ele>
        <time>2021-07-05 17:52:22</time>
      </trkpt>
      <trkpt lat="28.04842" lon="-14.33739">
        <ele>23.4</ele>
        <time>2021-07-05 17:52:23</time>
      </trkpt>
      <trkpt lat="28.0484" lon="-14.33744">
        <ele>23.4</ele>
        <time>2021-07-05 17:52:24</time>
      </trkpt>
      <trkpt lat="28.04838" lon="-14.33749">
        <ele>23.4</ele>
        <time>2021-07-05 17:52:25</time>
      </trkpt>
      <trkpt lat="28.04836" lon="-14.33755">
        <ele>23.6</ele>
        <time>2021-07-05 17:52:26</time>
      </trkpt>
      <trkpt lat="28.04834" lon="-14.3376">
        <ele>23.6</ele>
        <time>2021-07-05 17:52:27</time>
      </trkpt>
      <trkpt lat="28.04833" lon="-14.33766">
        <ele>24</ele>
        <time>2021-07-05 17:52:28</time>
      </trkpt>
      <trkpt lat="28.04834" lon="-14.33772">
        <ele>24</ele>
        <time>2021-07-05 17:52:29</time>
      </trkpt>
      <trkpt lat="28.04835" lon="-14.33778">
        <ele>24</ele>
        <time>2021-07-05 17:52:30</time>
      </trkpt>
      <trkpt lat="28.04836" lon="-14.33783">
        <ele>24</ele>
        <time>2021-07-05 17:52:31</time>
      </trkpt>
      <trkpt lat="28.04839" lon="-14.33789">
        <ele>24</ele>
        <time>2021-07-05 17:52:32</time>
      </trkpt>
      <trkpt lat="28.04841" lon="-14.33794">
        <ele>24</ele>
        <time>2021-07-05 17:52:33</time>
      </trkpt>
      <trkpt lat="28.04843" lon="-14.33799">
        <ele>23.8</ele>
        <time>2021-07-05 17:52:34</time>
      </trkpt>
      <trkpt lat="28.04845" lon="-14.33804">
        <ele>23.6</ele>
        <time>2021-07-05 17:52:35</time>
      </trkpt>
      <trkpt lat="28.04845" lon="-14.33811">
        <ele>23.2</ele>
        <time>2021-07-05 17:52:36</time>
      </trkpt>
      <trkpt lat="28.04846" lon="-14.33816">
        <ele>23.2</ele>
        <time>2021-07-05 17:52:37</time>
      </trkpt>
      <trkpt lat="28.04846" lon="-14.33821">
        <ele>23</ele>
        <time>2021-07-05 17:52:38</time>
      </trkpt>
      <trkpt lat="28.04847" lon="-14.33827">
        <ele>23</ele>
        <time>2021-07-05 17:52:39</time>
      </trkpt>
      <trkpt lat="28.04847" lon="-14.33833">
        <ele>22.6</ele>
        <time>2021-07-05 17:52:40</time>
      </trkpt>
      <trkpt lat="28.04848" lon="-14.33838">
        <ele>22.6</ele>
        <time>2021-07-05 17:52:41</time>
      </trkpt>
      <trkpt lat="28.04848" lon="-14.33843">
        <ele>22.4</ele>
        <time>2021-07-05 17:52:42</time>
      </trkpt>
      <trkpt lat="28.04848" lon="-14.33848">
        <ele>22.4</ele>
        <time>2021-07-05 17:52:43</time>
      </trkpt>
      <trkpt lat="28.04849" lon="-14.33854">
        <ele>22.4</ele>
        <time>2021-07-05 17:52:44</time>
      </trkpt>
      <trkpt lat="28.04848" lon="-14.3386">
        <ele>22.4</ele>
        <time>2021-07-05 17:52:45</time>
      </trkpt>
      <trkpt lat="28.04848" lon="-14.33865">
        <ele>22.4</ele>
        <time>2021-07-05 17:52:46</time>
      </trkpt>
      <trkpt lat="28.04848" lon="-14.33871">
        <ele>22.4</ele>
        <time>2021-07-05 17:52:47</time>
      </trkpt>
      <trkpt lat="28.04848" lon="-14.33878">
        <ele>22.4</ele>
        <time>2021-07-05 17:52:48</time>
      </trkpt>
      <trkpt lat="28.04848" lon="-14.33884">
        <ele>22.4</ele>
        <time>2021-07-05 17:52:49</time>
      </trkpt>
      <trkpt lat="28.04848" lon="-14.3389">
        <ele>22.2</ele>
        <time>2021-07-05 17:52:50</time>
      </trkpt>
      <trkpt lat="28.04848" lon="-14.33896">
        <ele>22.2</ele>
        <time>2021-07-05 17:52:51</time>
      </trkpt>
      <trkpt lat="28.04849" lon="-14.33903">
        <ele>22.2</ele>
        <time>2021-07-05 17:52:52</time>
      </trkpt>
      <trkpt lat="28.0485" lon="-14.33909">
        <ele>22.2</ele>
        <time>2021-07-05 17:52:53</time>
      </trkpt>
      <trkpt lat="28.04849" lon="-14.33915">
        <ele>22</ele>
        <time>2021-07-05 17:52:54</time>
      </trkpt>
      <trkpt lat="28.0485" lon="-14.33921">
        <ele>22</ele>
        <time>2021-07-05 17:52:55</time>
      </trkpt>
      <trkpt lat="28.0485" lon="-14.33927">
        <ele>22</ele>
        <time>2021-07-05 17:52:56</time>
      </trkpt>
      <trkpt lat="28.0485" lon="-14.33933">
        <ele>22</ele>
        <time>2021-07-05 17:52:57</time>
      </trkpt>
      <trkpt lat="28.0485" lon="-14.3394">
        <ele>22</ele>
        <time>2021-07-05 17:52:58</time>
      </trkpt>
      <trkpt lat="28.04848" lon="-14.33945">
        <ele>21.8</ele>
        <time>2021-07-05 17:52:59</time>
      </trkpt>
      <trkpt lat="28.04844" lon="-14.33949">
        <ele>21.8</ele>
        <time>2021-07-05 17:53:00</time>
      </trkpt>
      <trkpt lat="28.04841" lon="-14.33952">
        <ele>21.8</ele>
        <time>2021-07-05 17:53:01</time>
      </trkpt>
      <trkpt lat="28.04837" lon="-14.33955">
        <ele>21.8</ele>
        <time>2021-07-05 17:53:02</time>
      </trkpt>
      <trkpt lat="28.04831" lon="-14.33957">
        <ele>21.4</ele>
        <time>2021-07-05 17:53:03</time>
      </trkpt>
      <trkpt lat="28.04826" lon="-14.33959">
        <ele>21.4</ele>
        <time>2021-07-05 17:53:04</time>
      </trkpt>
      <trkpt lat="28.04822" lon="-14.33962">
        <ele>21.4</ele>
        <time>2021-07-05 17:53:05</time>
      </trkpt>
      <trkpt lat="28.04817" lon="-14.33964">
        <ele>21.2</ele>
        <time>2021-07-05 17:53:06</time>
      </trkpt>
      <trkpt lat="28.04812" lon="-14.33966">
        <ele>21.2</ele>
        <time>2021-07-05 17:53:07</time>
      </trkpt>
      <trkpt lat="28.04807" lon="-14.33969">
        <ele>21</ele>
        <time>2021-07-05 17:53:08</time>
      </trkpt>
      <trkpt lat="28.04802" lon="-14.33971">
        <ele>20.8</ele>
        <time>2021-07-05 17:53:09</time>
      </trkpt>
      <trkpt lat="28.04798" lon="-14.33973">
        <ele>20.8</ele>
        <time>2021-07-05 17:53:10</time>
      </trkpt>
      <trkpt lat="28.04793" lon="-14.33976">
        <ele>20.8</ele>
        <time>2021-07-05 17:53:11</time>
      </trkpt>
      <trkpt lat="28.04789" lon="-14.33978">
        <ele>20.6</ele>
        <time>2021-07-05 17:53:12</time>
      </trkpt>
      <trkpt lat="28.04785" lon="-14.3398">
        <ele>20.6</ele>
        <time>2021-07-05 17:53:13</time>
      </trkpt>
      <trkpt lat="28.0478" lon="-14.33982">
        <ele>20.6</ele>
        <time>2021-07-05 17:53:14</time>
      </trkpt>
      <trkpt lat="28.04775" lon="-14.33985">
        <ele>20.6</ele>
        <time>2021-07-05 17:53:15</time>
      </trkpt>
      <trkpt lat="28.04771" lon="-14.33987">
        <ele>20.6</ele>
        <time>2021-07-05 17:53:16</time>
      </trkpt>
      <trkpt lat="28.04767" lon="-14.33989">
        <ele>20.6</ele>
        <time>2021-07-05 17:53:17</time>
      </trkpt>
      <trkpt lat="28.04762" lon="-14.33992">
        <ele>20.6</ele>
        <time>2021-07-05 17:53:18</time>
      </trkpt>
      <trkpt lat="28.04758" lon="-14.33994">
        <ele>20.6</ele>
        <time>2021-07-05 17:53:19</time>
      </trkpt>
      <trkpt lat="28.04754" lon="-14.33995">
        <ele>20.6</ele>
        <time>2021-07-05 17:53:20</time>
      </trkpt>
      <trkpt lat="28.04749" lon="-14.33997">
        <ele>20.6</ele>
        <time>2021-07-05 17:53:21</time>
      </trkpt>
      <trkpt lat="28.04745" lon="-14.33999">
        <ele>20.6</ele>
        <time>2021-07-05 17:53:22</time>
      </trkpt>
      <trkpt lat="28.0474" lon="-14.34002">
        <ele>20.6</ele>
        <time>2021-07-05 17:53:23</time>
      </trkpt>
      <trkpt lat="28.04735" lon="-14.34003">
        <ele>20.6</ele>
        <time>2021-07-05 17:53:24</time>
      </trkpt>
      <trkpt lat="28.04731" lon="-14.34005">
        <ele>20.6</ele>
        <time>2021-07-05 17:53:25</time>
      </trkpt>
      <trkpt lat="28.04727" lon="-14.34007">
        <ele>20.6</ele>
        <time>2021-07-05 17:53:26</time>
      </trkpt>
      <trkpt lat="28.04723" lon="-14.34009">
        <ele>20.6</ele>
        <time>2021-07-05 17:53:27</time>
      </trkpt>
      <trkpt lat="28.04719" lon="-14.34011">
        <ele>20.4</ele>
        <time>2021-07-05 17:53:28</time>
      </trkpt>
      <trkpt lat="28.04715" lon="-14.34013">
        <ele>20.4</ele>
        <time>2021-07-05 17:53:29</time>
      </trkpt>
      <trkpt lat="28.04711" lon="-14.34016">
        <ele>20.4</ele>
        <time>2021-07-05 17:53:30</time>
      </trkpt>
      <trkpt lat="28.04706" lon="-14.34018">
        <ele>20.4</ele>
        <time>2021-07-05 17:53:31</time>
      </trkpt>
      <trkpt lat="28.04703" lon="-14.34019">
        <ele>20.4</ele>
        <time>2021-07-05 17:53:32</time>
      </trkpt>
      <trkpt lat="28.04699" lon="-14.34021">
        <ele>20.4</ele>
        <time>2021-07-05 17:53:33</time>
      </trkpt>
      <trkpt lat="28.04695" lon="-14.34023">
        <ele>20.4</ele>
        <time>2021-07-05 17:53:34</time>
      </trkpt>
      <trkpt lat="28.04692" lon="-14.34024">
        <ele>20.4</ele>
        <time>2021-07-05 17:53:35</time>
      </trkpt>
      <trkpt lat="28.04688" lon="-14.34026">
        <ele>20.4</ele>
        <time>2021-07-05 17:53:36</time>
      </trkpt>
      <trkpt lat="28.04686" lon="-14.34029">
        <ele>20.6</ele>
        <time>2021-07-05 17:53:37</time>
      </trkpt>
      <trkpt lat="28.04685" lon="-14.34032">
        <ele>20.6</ele>
        <time>2021-07-05 17:53:38</time>
      </trkpt>
      <trkpt lat="28.04685" lon="-14.34036">
        <ele>20.6</ele>
        <time>2021-07-05 17:53:39</time>
      </trkpt>
      <trkpt lat="28.04686" lon="-14.3404">
        <ele>20.6</ele>
        <time>2021-07-05 17:53:40</time>
      </trkpt>
      <trkpt lat="28.04687" lon="-14.34043">
        <ele>20.6</ele>
        <time>2021-07-05 17:53:41</time>
      </trkpt>
      <trkpt lat="28.04688" lon="-14.34047">
        <ele>20.6</ele>
        <time>2021-07-05 17:53:42</time>
      </trkpt>
      <trkpt lat="28.04689" lon="-14.34051">
        <ele>20.8</ele>
        <time>2021-07-05 17:53:43</time>
      </trkpt>
      <trkpt lat="28.0469" lon="-14.34056">
        <ele>20.8</ele>
        <time>2021-07-05 17:53:44</time>
      </trkpt>
      <trkpt lat="28.04691" lon="-14.3406">
        <ele>20.8</ele>
        <time>2021-07-05 17:53:45</time>
      </trkpt>
      <trkpt lat="28.04692" lon="-14.34064">
        <ele>21</ele>
        <time>2021-07-05 17:53:46</time>
      </trkpt>
      <trkpt lat="28.04693" lon="-14.34068">
        <ele>21</ele>
        <time>2021-07-05 17:53:47</time>
      </trkpt>
      <trkpt lat="28.04694" lon="-14.34072">
        <ele>21</ele>
        <time>2021-07-05 17:53:48</time>
      </trkpt>
      <trkpt lat="28.04695" lon="-14.34076">
        <ele>21</ele>
        <time>2021-07-05 17:53:49</time>
      </trkpt>
      <trkpt lat="28.04697" lon="-14.3408">
        <ele>21</ele>
        <time>2021-07-05 17:53:50</time>
      </trkpt>
      <trkpt lat="28.04698" lon="-14.34085">
        <ele>21</ele>
        <time>2021-07-05 17:53:51</time>
      </trkpt>
      <trkpt lat="28.04699" lon="-14.34089">
        <ele>21</ele>
        <time>2021-07-05 17:53:52</time>
      </trkpt>
      <trkpt lat="28.047" lon="-14.34094">
        <ele>21</ele>
        <time>2021-07-05 17:53:53</time>
      </trkpt>
      <trkpt lat="28.04701" lon="-14.34098">
        <ele>21</ele>
        <time>2021-07-05 17:53:54</time>
      </trkpt>
      <trkpt lat="28.04703" lon="-14.34103">
        <ele>21</ele>
        <time>2021-07-05 17:53:55</time>
      </trkpt>
      <trkpt lat="28.04704" lon="-14.34107">
        <ele>21</ele>
        <time>2021-07-05 17:53:56</time>
      </trkpt>
      <trkpt lat="28.04706" lon="-14.34112">
        <ele>21</ele>
        <time>2021-07-05 17:53:57</time>
      </trkpt>
      <trkpt lat="28.04707" lon="-14.34116">
        <ele>21</ele>
        <time>2021-07-05 17:53:58</time>
      </trkpt>
      <trkpt lat="28.04709" lon="-14.34121">
        <ele>21</ele>
        <time>2021-07-05 17:53:59</time>
      </trkpt>
      <trkpt lat="28.0471" lon="-14.34126">
        <ele>21</ele>
        <time>2021-07-05 17:54:00</time>
      </trkpt>
      <trkpt lat="28.04712" lon="-14.34131">
        <ele>21</ele>
        <time>2021-07-05 17:54:01</time>
      </trkpt>
      <trkpt lat="28.04713" lon="-14.34135">
        <ele>21</ele>
        <time>2021-07-05 17:54:02</time>
      </trkpt>
      <trkpt lat="28.04715" lon="-14.3414">
        <ele>21</ele>
        <time>2021-07-05 17:54:03</time>
      </trkpt>
      <trkpt lat="28.04716" lon="-14.34145">
        <ele>21</ele>
        <time>2021-07-05 17:54:04</time>
      </trkpt>
      <trkpt lat="28.04718" lon="-14.3415">
        <ele>21</ele>
        <time>2021-07-05 17:54:05</time>
      </trkpt>
      <trkpt lat="28.0472" lon="-14.34155">
        <ele>21</ele>
        <time>2021-07-05 17:54:06</time>
      </trkpt>
      <trkpt lat="28.04721" lon="-14.3416">
        <ele>21</ele>
        <time>2021-07-05 17:54:07</time>
      </trkpt>
      <trkpt lat="28.04723" lon="-14.34164">
        <ele>21</ele>
        <time>2021-07-05 17:54:08</time>
      </trkpt>
      <trkpt lat="28.04724" lon="-14.34169">
        <ele>21</ele>
        <time>2021-07-05 17:54:09</time>
      </trkpt>
      <trkpt lat="28.04726" lon="-14.34174">
        <ele>21</ele>
        <time>2021-07-05 17:54:10</time>
      </trkpt>
      <trkpt lat="28.04727" lon="-14.34179">
        <ele>21</ele>
        <time>2021-07-05 17:54:11</time>
      </trkpt>
      <trkpt lat="28.04729" lon="-14.34183">
        <ele>21</ele>
        <time>2021-07-05 17:54:12</time>
      </trkpt>
      <trkpt lat="28.0473" lon="-14.34188">
        <ele>21</ele>
        <time>2021-07-05 17:54:13</time>
      </trkpt>
      <trkpt lat="28.04732" lon="-14.34193">
        <ele>21</ele>
        <time>2021-07-05 17:54:14</time>
      </trkpt>
      <trkpt lat="28.04733" lon="-14.34198">
        <ele>21</ele>
        <time>2021-07-05 17:54:15</time>
      </trkpt>
      <trkpt lat="28.04735" lon="-14.34202">
        <ele>21.2</ele>
        <time>2021-07-05 17:54:16</time>
      </trkpt>
      <trkpt lat="28.04736" lon="-14.34207">
        <ele>21.2</ele>
        <time>2021-07-05 17:54:17</time>
      </trkpt>
      <trkpt lat="28.04738" lon="-14.34212">
        <ele>21.2</ele>
        <time>2021-07-05 17:54:18</time>
      </trkpt>
      <trkpt lat="28.04739" lon="-14.34216">
        <ele>21.4</ele>
        <time>2021-07-05 17:54:19</time>
      </trkpt>
      <trkpt lat="28.04741" lon="-14.34221">
        <ele>21.4</ele>
        <time>2021-07-05 17:54:20</time>
      </trkpt>
      <trkpt lat="28.04742" lon="-14.34225">
        <ele>21.4</ele>
        <time>2021-07-05 17:54:21</time>
      </trkpt>
      <trkpt lat="28.04744" lon="-14.34229">
        <ele>21.4</ele>
        <time>2021-07-05 17:54:22</time>
      </trkpt>
      <trkpt lat="28.04744" lon="-14.34234">
        <ele>21.4</ele>
        <time>2021-07-05 17:54:23</time>
      </trkpt>
      <trkpt lat="28.04746" lon="-14.34238">
        <ele>21.4</ele>
        <time>2021-07-05 17:54:24</time>
      </trkpt>
      <trkpt lat="28.04747" lon="-14.34242">
        <ele>21.4</ele>
        <time>2021-07-05 17:54:25</time>
      </trkpt>
      <trkpt lat="28.04749" lon="-14.34247">
        <ele>21.6</ele>
        <time>2021-07-05 17:54:26</time>
      </trkpt>
      <trkpt lat="28.04751" lon="-14.34252">
        <ele>21.6</ele>
        <time>2021-07-05 17:54:27</time>
      </trkpt>
      <trkpt lat="28.04752" lon="-14.34257">
        <ele>21.6</ele>
        <time>2021-07-05 17:54:28</time>
      </trkpt>
      <trkpt lat="28.04753" lon="-14.34262">
        <ele>21.6</ele>
        <time>2021-07-05 17:54:29</time>
      </trkpt>
      <trkpt lat="28.04754" lon="-14.34267">
        <ele>21.6</ele>
        <time>2021-07-05 17:54:30</time>
      </trkpt>
      <trkpt lat="28.04755" lon="-14.34271">
        <ele>21.6</ele>
        <time>2021-07-05 17:54:31</time>
      </trkpt>
      <trkpt lat="28.04757" lon="-14.34276">
        <ele>21.6</ele>
        <time>2021-07-05 17:54:32</time>
      </trkpt>
      <trkpt lat="28.04758" lon="-14.3428">
        <ele>21.6</ele>
        <time>2021-07-05 17:54:33</time>
      </trkpt>
      <trkpt lat="28.04759" lon="-14.34284">
        <ele>21.6</ele>
        <time>2021-07-05 17:54:34</time>
      </trkpt>
      <trkpt lat="28.04761" lon="-14.34288">
        <ele>21.6</ele>
        <time>2021-07-05 17:54:35</time>
      </trkpt>
      <trkpt lat="28.04762" lon="-14.34292">
        <ele>21.6</ele>
        <time>2021-07-05 17:54:36</time>
      </trkpt>
      <trkpt lat="28.04763" lon="-14.34297">
        <ele>21.6</ele>
        <time>2021-07-05 17:54:37</time>
      </trkpt>
      <trkpt lat="28.04764" lon="-14.343">
        <ele>21.6</ele>
        <time>2021-07-05 17:54:38</time>
      </trkpt>
      <trkpt lat="28.04765" lon="-14.34304">
        <ele>21.6</ele>
        <time>2021-07-05 17:54:39</time>
      </trkpt>
      <trkpt lat="28.04767" lon="-14.34307">
        <ele>21.6</ele>
        <time>2021-07-05 17:54:40</time>
      </trkpt>
      <trkpt lat="28.04768" lon="-14.34311">
        <ele>21.6</ele>
        <time>2021-07-05 17:54:41</time>
      </trkpt>
      <trkpt lat="28.0477" lon="-14.34316">
        <ele>21.6</ele>
        <time>2021-07-05 17:54:42</time>
      </trkpt>
      <trkpt lat="28.04771" lon="-14.3432">
        <ele>21.6</ele>
        <time>2021-07-05 17:54:43</time>
      </trkpt>
      <trkpt lat="28.04772" lon="-14.34324">
        <ele>21.6</ele>
        <time>2021-07-05 17:54:44</time>
      </trkpt>
      <trkpt lat="28.04774" lon="-14.34328">
        <ele>21.6</ele>
        <time>2021-07-05 17:54:45</time>
      </trkpt>
      <trkpt lat="28.04775" lon="-14.34332">
        <ele>21.6</ele>
        <time>2021-07-05 17:54:46</time>
      </trkpt>
      <trkpt lat="28.04776" lon="-14.34337">
        <ele>21.6</ele>
        <time>2021-07-05 17:54:47</time>
      </trkpt>
      <trkpt lat="28.04777" lon="-14.34341">
        <ele>21.6</ele>
        <time>2021-07-05 17:54:48</time>
      </trkpt>
      <trkpt lat="28.04778" lon="-14.34345">
        <ele>21.6</ele>
        <time>2021-07-05 17:54:49</time>
      </trkpt>
      <trkpt lat="28.04779" lon="-14.34349">
        <ele>21.6</ele>
        <time>2021-07-05 17:54:50</time>
      </trkpt>
      <trkpt lat="28.04781" lon="-14.34352">
        <ele>21.6</ele>
        <time>2021-07-05 17:54:51</time>
      </trkpt>
      <trkpt lat="28.04782" lon="-14.34356">
        <ele>21.6</ele>
        <time>2021-07-05 17:54:52</time>
      </trkpt>
      <trkpt lat="28.04783" lon="-14.34359">
        <ele>21.6</ele>
        <time>2021-07-05 17:54:53</time>
      </trkpt>
      <trkpt lat="28.04784" lon="-14.34363">
        <ele>21.6</ele>
        <time>2021-07-05 17:54:54</time>
      </trkpt>
      <trkpt lat="28.04784" lon="-14.34366">
        <ele>21.6</ele>
        <time>2021-07-05 17:54:55</time>
      </trkpt>
      <trkpt lat="28.04785" lon="-14.3437">
        <ele>21.6</ele>
        <time>2021-07-05 17:54:56</time>
      </trkpt>
      <trkpt lat="28.04786" lon="-14.34373">
        <ele>21.6</ele>
        <time>2021-07-05 17:54:57</time>
      </trkpt>
      <trkpt lat="28.04787" lon="-14.34376">
        <ele>21.6</ele>
        <time>2021-07-05 17:54:58</time>
      </trkpt>
      <trkpt lat="28.04788" lon="-14.3438">
        <ele>21.6</ele>
        <time>2021-07-05 17:54:59</time>
      </trkpt>
      <trkpt lat="28.04791" lon="-14.34383">
        <ele>21.6</ele>
        <time>2021-07-05 17:55:00</time>
      </trkpt>
      <trkpt lat="28.04793" lon="-14.34387">
        <ele>21.6</ele>
        <time>2021-07-05 17:55:01</time>
      </trkpt>
      <trkpt lat="28.04795" lon="-14.34391">
        <ele>21.6</ele>
        <time>2021-07-05 17:55:02</time>
      </trkpt>
      <trkpt lat="28.04796" lon="-14.34395">
        <ele>21.6</ele>
        <time>2021-07-05 17:55:03</time>
      </trkpt>
      <trkpt lat="28.04798" lon="-14.344">
        <ele>21.6</ele>
        <time>2021-07-05 17:55:04</time>
      </trkpt>
      <trkpt lat="28.048" lon="-14.34404">
        <ele>21.6</ele>
        <time>2021-07-05 17:55:05</time>
      </trkpt>
      <trkpt lat="28.04801" lon="-14.34408">
        <ele>21.6</ele>
        <time>2021-07-05 17:55:06</time>
      </trkpt>
      <trkpt lat="28.04802" lon="-14.34412">
        <ele>21.6</ele>
        <time>2021-07-05 17:55:07</time>
      </trkpt>
      <trkpt lat="28.04804" lon="-14.34416">
        <ele>21.6</ele>
        <time>2021-07-05 17:55:08</time>
      </trkpt>
      <trkpt lat="28.04805" lon="-14.34419">
        <ele>22</ele>
        <time>2021-07-05 17:55:09</time>
      </trkpt>
      <trkpt lat="28.04807" lon="-14.34423">
        <ele>22</ele>
        <time>2021-07-05 17:55:10</time>
      </trkpt>
      <trkpt lat="28.04808" lon="-14.34427">
        <ele>22</ele>
        <time>2021-07-05 17:55:11</time>
      </trkpt>
      <trkpt lat="28.04809" lon="-14.34431">
        <ele>22</ele>
        <time>2021-07-05 17:55:12</time>
      </trkpt>
      <trkpt lat="28.0481" lon="-14.34435">
        <ele>22</ele>
        <time>2021-07-05 17:55:13</time>
      </trkpt>
      <trkpt lat="28.04811" lon="-14.34439">
        <ele>22</ele>
        <time>2021-07-05 17:55:14</time>
      </trkpt>
      <trkpt lat="28.04813" lon="-14.34444">
        <ele>22</ele>
        <time>2021-07-05 17:55:15</time>
      </trkpt>
      <trkpt lat="28.04814" lon="-14.34448">
        <ele>22</ele>
        <time>2021-07-05 17:55:16</time>
      </trkpt>
      <trkpt lat="28.04815" lon="-14.34452">
        <ele>22</ele>
        <time>2021-07-05 17:55:17</time>
      </trkpt>
      <trkpt lat="28.04817" lon="-14.34457">
        <ele>22</ele>
        <time>2021-07-05 17:55:18</time>
      </trkpt>
      <trkpt lat="28.04818" lon="-14.34461">
        <ele>22</ele>
        <time>2021-07-05 17:55:19</time>
      </trkpt>
      <trkpt lat="28.04819" lon="-14.34464">
        <ele>22</ele>
        <time>2021-07-05 17:55:20</time>
      </trkpt>
      <trkpt lat="28.0482" lon="-14.34468">
        <ele>22</ele>
        <time>2021-07-05 17:55:21</time>
      </trkpt>
      <trkpt lat="28.04821" lon="-14.34471">
        <ele>22</ele>
        <time>2021-07-05 17:55:22</time>
      </trkpt>
      <trkpt lat="28.04822" lon="-14.34475">
        <ele>22</ele>
        <time>2021-07-05 17:55:23</time>
      </trkpt>
      <trkpt lat="28.04823" lon="-14.34478">
        <ele>22</ele>
        <time>2021-07-05 17:55:24</time>
      </trkpt>
      <trkpt lat="28.04824" lon="-14.34481">
        <ele>22</ele>
        <time>2021-07-05 17:55:25</time>
      </trkpt>
      <trkpt lat="28.04825" lon="-14.34485">
        <ele>22</ele>
        <time>2021-07-05 17:55:26</time>
      </trkpt>
      <trkpt lat="28.04826" lon="-14.34489">
        <ele>22</ele>
        <time>2021-07-05 17:55:27</time>
      </trkpt>
      <trkpt lat="28.04827" lon="-14.34494">
        <ele>22</ele>
        <time>2021-07-05 17:55:28</time>
      </trkpt>
      <trkpt lat="28.04828" lon="-14.34498">
        <ele>22</ele>
        <time>2021-07-05 17:55:29</time>
      </trkpt>
      <trkpt lat="28.04829" lon="-14.34503">
        <ele>22</ele>
        <time>2021-07-05 17:55:30</time>
      </trkpt>
      <trkpt lat="28.0483" lon="-14.34507">
        <ele>22</ele>
        <time>2021-07-05 17:55:31</time>
      </trkpt>
      <trkpt lat="28.04831" lon="-14.34511">
        <ele>22</ele>
        <time>2021-07-05 17:55:32</time>
      </trkpt>
      <trkpt lat="28.04832" lon="-14.34515">
        <ele>22</ele>
        <time>2021-07-05 17:55:33</time>
      </trkpt>
      <trkpt lat="28.04833" lon="-14.34519">
        <ele>22.2</ele>
        <time>2021-07-05 17:55:34</time>
      </trkpt>
      <trkpt lat="28.04834" lon="-14.34523">
        <ele>22.2</ele>
        <time>2021-07-05 17:55:35</time>
      </trkpt>
      <trkpt lat="28.04835" lon="-14.34527">
        <ele>22.6</ele>
        <time>2021-07-05 17:55:36</time>
      </trkpt>
      <trkpt lat="28.04836" lon="-14.34531">
        <ele>22.6</ele>
        <time>2021-07-05 17:55:37</time>
      </trkpt>
      <trkpt lat="28.04837" lon="-14.34534">
        <ele>23</ele>
        <time>2021-07-05 17:55:38</time>
      </trkpt>
      <trkpt lat="28.04838" lon="-14.34538">
        <ele>23</ele>
        <time>2021-07-05 17:55:39</time>
      </trkpt>
      <trkpt lat="28.04838" lon="-14.34541">
        <ele>23</ele>
        <time>2021-07-05 17:55:40</time>
      </trkpt>
      <trkpt lat="28.04839" lon="-14.34544">
        <ele>23.4</ele>
        <time>2021-07-05 17:55:41</time>
      </trkpt>
      <trkpt lat="28.0484" lon="-14.34548">
        <ele>23.8</ele>
        <time>2021-07-05 17:55:42</time>
      </trkpt>
      <trkpt lat="28.04841" lon="-14.34551">
        <ele>24</ele>
        <time>2021-07-05 17:55:43</time>
      </trkpt>
      <trkpt lat="28.04842" lon="-14.34554">
        <ele>24.2</ele>
        <time>2021-07-05 17:55:44</time>
      </trkpt>
      <trkpt lat="28.04843" lon="-14.34557">
        <ele>24.6</ele>
        <time>2021-07-05 17:55:45</time>
      </trkpt>
      <trkpt lat="28.04845" lon="-14.34561">
        <ele>24.8</ele>
        <time>2021-07-05 17:55:46</time>
      </trkpt>
      <trkpt lat="28.04845" lon="-14.34564">
        <ele>25.2</ele>
        <time>2021-07-05 17:55:47</time>
      </trkpt>
      <trkpt lat="28.04846" lon="-14.34567">
        <ele>25.4</ele>
        <time>2021-07-05 17:55:48</time>
      </trkpt>
      <trkpt lat="28.04847" lon="-14.34569">
        <ele>25.8</ele>
        <time>2021-07-05 17:55:49</time>
      </trkpt>
      <trkpt lat="28.04848" lon="-14.34572">
        <ele>26</ele>
        <time>2021-07-05 17:55:50</time>
      </trkpt>
      <trkpt lat="28.04848" lon="-14.34574">
        <ele>26.2</ele>
        <time>2021-07-05 17:55:51</time>
      </trkpt>
      <trkpt lat="28.04849" lon="-14.34576">
        <ele>26.6</ele>
        <time>2021-07-05 17:55:52</time>
      </trkpt>
      <trkpt lat="28.0485" lon="-14.34578">
        <ele>27</ele>
        <time>2021-07-05 17:55:53</time>
      </trkpt>
      <trkpt lat="28.04851" lon="-14.3458">
        <ele>27.2</ele>
        <time>2021-07-05 17:55:54</time>
      </trkpt>
      <trkpt lat="28.04851" lon="-14.34583">
        <ele>27.6</ele>
        <time>2021-07-05 17:55:55</time>
      </trkpt>
      <trkpt lat="28.04851" lon="-14.34586">
        <ele>27.8</ele>
        <time>2021-07-05 17:55:56</time>
      </trkpt>
      <trkpt lat="28.04852" lon="-14.34589">
        <ele>28</ele>
        <time>2021-07-05 17:55:57</time>
      </trkpt>
      <trkpt lat="28.04852" lon="-14.34591">
        <ele>28.2</ele>
        <time>2021-07-05 17:55:58</time>
      </trkpt>
      <trkpt lat="28.04853" lon="-14.34593">
        <ele>28.6</ele>
        <time>2021-07-05 17:55:59</time>
      </trkpt>
      <trkpt lat="28.04853" lon="-14.34596">
        <ele>28.8</ele>
        <time>2021-07-05 17:56:00</time>
      </trkpt>
      <trkpt lat="28.04854" lon="-14.34599">
        <ele>29</ele>
        <time>2021-07-05 17:56:01</time>
      </trkpt>
      <trkpt lat="28.04854" lon="-14.34601">
        <ele>29.2</ele>
        <time>2021-07-05 17:56:02</time>
      </trkpt>
      <trkpt lat="28.04855" lon="-14.34604">
        <ele>29.4</ele>
        <time>2021-07-05 17:56:03</time>
      </trkpt>
      <trkpt lat="28.04856" lon="-14.34607">
        <ele>29.4</ele>
        <time>2021-07-05 17:56:04</time>
      </trkpt>
      <trkpt lat="28.04857" lon="-14.3461">
        <ele>29.8</ele>
        <time>2021-07-05 17:56:05</time>
      </trkpt>
      <trkpt lat="28.04858" lon="-14.34612">
        <ele>30</ele>
        <time>2021-07-05 17:56:06</time>
      </trkpt>
      <trkpt lat="28.04858" lon="-14.34615">
        <ele>30</ele>
        <time>2021-07-05 17:56:07</time>
      </trkpt>
      <trkpt lat="28.04859" lon="-14.34618">
        <ele>30.2</ele>
        <time>2021-07-05 17:56:08</time>
      </trkpt>
      <trkpt lat="28.04859" lon="-14.34621">
        <ele>30.6</ele>
        <time>2021-07-05 17:56:09</time>
      </trkpt>
      <trkpt lat="28.0486" lon="-14.34623">
        <ele>30.8</ele>
        <time>2021-07-05 17:56:10</time>
      </trkpt>
      <trkpt lat="28.04861" lon="-14.34626">
        <ele>31</ele>
        <time>2021-07-05 17:56:11</time>
      </trkpt>
      <trkpt lat="28.04862" lon="-14.34629">
        <ele>31.2</ele>
        <time>2021-07-05 17:56:12</time>
      </trkpt>
      <trkpt lat="28.04862" lon="-14.34632">
        <ele>31.4</ele>
        <time>2021-07-05 17:56:13</time>
      </trkpt>
      <trkpt lat="28.04863" lon="-14.34635">
        <ele>32</ele>
        <time>2021-07-05 17:56:14</time>
      </trkpt>
      <trkpt lat="28.04863" lon="-14.34638">
        <ele>32</ele>
        <time>2021-07-05 17:56:15</time>
      </trkpt>
      <trkpt lat="28.04864" lon="-14.34641">
        <ele>32</ele>
        <time>2021-07-05 17:56:16</time>
      </trkpt>
      <trkpt lat="28.04866" lon="-14.34644">
        <ele>32.2</ele>
        <time>2021-07-05 17:56:17</time>
      </trkpt>
      <trkpt lat="28.04867" lon="-14.34647">
        <ele>32.6</ele>
        <time>2021-07-05 17:56:18</time>
      </trkpt>
      <trkpt lat="28.04868" lon="-14.34649">
        <ele>32.6</ele>
        <time>2021-07-05 17:56:19</time>
      </trkpt>
      <trkpt lat="28.04869" lon="-14.34652">
        <ele>32.8</ele>
        <time>2021-07-05 17:56:20</time>
      </trkpt>
      <trkpt lat="28.0487" lon="-14.34655">
        <ele>32.8</ele>
        <time>2021-07-05 17:56:21</time>
      </trkpt>
      <trkpt lat="28.04872" lon="-14.34658">
        <ele>33.2</ele>
        <time>2021-07-05 17:56:22</time>
      </trkpt>
      <trkpt lat="28.04873" lon="-14.34661">
        <ele>33.2</ele>
        <time>2021-07-05 17:56:23</time>
      </trkpt>
      <trkpt lat="28.04875" lon="-14.34664">
        <ele>33.4</ele>
        <time>2021-07-05 17:56:24</time>
      </trkpt>
      <trkpt lat="28.04876" lon="-14.34667">
        <ele>33.4</ele>
        <time>2021-07-05 17:56:25</time>
      </trkpt>
      <trkpt lat="28.04877" lon="-14.3467">
        <ele>33.8</ele>
        <time>2021-07-05 17:56:26</time>
      </trkpt>
      <trkpt lat="28.04879" lon="-14.34673">
        <ele>33.8</ele>
        <time>2021-07-05 17:56:27</time>
      </trkpt>
      <trkpt lat="28.0488" lon="-14.34677">
        <ele>34</ele>
        <time>2021-07-05 17:56:28</time>
      </trkpt>
      <trkpt lat="28.04881" lon="-14.3468">
        <ele>34</ele>
        <time>2021-07-05 17:56:29</time>
      </trkpt>
      <trkpt lat="28.04883" lon="-14.34683">
        <ele>34</ele>
        <time>2021-07-05 17:56:30</time>
      </trkpt>
      <trkpt lat="28.04884" lon="-14.34687">
        <ele>34.2</ele>
        <time>2021-07-05 17:56:31</time>
      </trkpt>
      <trkpt lat="28.04886" lon="-14.3469">
        <ele>34.2</ele>
        <time>2021-07-05 17:56:32</time>
      </trkpt>
      <trkpt lat="28.04888" lon="-14.34694">
        <ele>34.2</ele>
        <time>2021-07-05 17:56:33</time>
      </trkpt>
      <trkpt lat="28.0489" lon="-14.34697">
        <ele>34.2</ele>
        <time>2021-07-05 17:56:34</time>
      </trkpt>
      <trkpt lat="28.04893" lon="-14.34701">
        <ele>34.2</ele>
        <time>2021-07-05 17:56:35</time>
      </trkpt>
      <trkpt lat="28.04895" lon="-14.34704">
        <ele>34.4</ele>
        <time>2021-07-05 17:56:36</time>
      </trkpt>
      <trkpt lat="28.04897" lon="-14.34708">
        <ele>34.4</ele>
        <time>2021-07-05 17:56:37</time>
      </trkpt>
      <trkpt lat="28.04899" lon="-14.34712">
        <ele>34.4</ele>
        <time>2021-07-05 17:56:38</time>
      </trkpt>
      <trkpt lat="28.04901" lon="-14.34715">
        <ele>34.4</ele>
        <time>2021-07-05 17:56:39</time>
      </trkpt>
      <trkpt lat="28.04903" lon="-14.34719">
        <ele>34.4</ele>
        <time>2021-07-05 17:56:40</time>
      </trkpt>
      <trkpt lat="28.04905" lon="-14.34723">
        <ele>34.4</ele>
        <time>2021-07-05 17:56:41</time>
      </trkpt>
      <trkpt lat="28.04907" lon="-14.34727">
        <ele>34</ele>
        <time>2021-07-05 17:56:42</time>
      </trkpt>
      <trkpt lat="28.04909" lon="-14.34731">
        <ele>34</ele>
        <time>2021-07-05 17:56:43</time>
      </trkpt>
      <trkpt lat="28.0491" lon="-14.34735">
        <ele>33.4</ele>
        <time>2021-07-05 17:56:44</time>
      </trkpt>
      <trkpt lat="28.04911" lon="-14.3474">
        <ele>33.2</ele>
        <time>2021-07-05 17:56:45</time>
      </trkpt>
      <trkpt lat="28.04913" lon="-14.34744">
        <ele>33.2</ele>
        <time>2021-07-05 17:56:46</time>
      </trkpt>
      <trkpt lat="28.04915" lon="-14.34748">
        <ele>32.6</ele>
        <time>2021-07-05 17:56:47</time>
      </trkpt>
      <trkpt lat="28.04916" lon="-14.34753">
        <ele>32.8</ele>
        <time>2021-07-05 17:56:48</time>
      </trkpt>
      <trkpt lat="28.04918" lon="-14.34758">
        <ele>32</ele>
        <time>2021-07-05 17:56:49</time>
      </trkpt>
      <trkpt lat="28.0492" lon="-14.34763">
        <ele>32</ele>
        <time>2021-07-05 17:56:50</time>
      </trkpt>
      <trkpt lat="28.04921" lon="-14.34768">
        <ele>32.4</ele>
        <time>2021-07-05 17:56:51</time>
      </trkpt>
      <trkpt lat="28.04922" lon="-14.34772">
        <ele>32.4</ele>
        <time>2021-07-05 17:56:52</time>
      </trkpt>
      <trkpt lat="28.04924" lon="-14.34777">
        <ele>32</ele>
        <time>2021-07-05 17:56:53</time>
      </trkpt>
      <trkpt lat="28.04925" lon="-14.34782">
        <ele>32</ele>
        <time>2021-07-05 17:56:54</time>
      </trkpt>
      <trkpt lat="28.04926" lon="-14.34787">
        <ele>32</ele>
        <time>2021-07-05 17:56:55</time>
      </trkpt>
      <trkpt lat="28.04927" lon="-14.34792">
        <ele>31.8</ele>
        <time>2021-07-05 17:56:56</time>
      </trkpt>
      <trkpt lat="28.04927" lon="-14.34799">
        <ele>31.6</ele>
        <time>2021-07-05 17:56:57</time>
      </trkpt>
      <trkpt lat="28.04927" lon="-14.34805">
        <ele>31.4</ele>
        <time>2021-07-05 17:56:58</time>
      </trkpt>
      <trkpt lat="28.04928" lon="-14.34811">
        <ele>30.8</ele>
        <time>2021-07-05 17:56:59</time>
      </trkpt>
      <trkpt lat="28.04929" lon="-14.34818">
        <ele>30.8</ele>
        <time>2021-07-05 17:57:00</time>
      </trkpt>
      <trkpt lat="28.0493" lon="-14.34825">
        <ele>30.6</ele>
        <time>2021-07-05 17:57:01</time>
      </trkpt>
      <trkpt lat="28.04931" lon="-14.34832">
        <ele>30.4</ele>
        <time>2021-07-05 17:57:02</time>
      </trkpt>
      <trkpt lat="28.04931" lon="-14.34838">
        <ele>30.2</ele>
        <time>2021-07-05 17:57:03</time>
      </trkpt>
      <trkpt lat="28.04932" lon="-14.34845">
        <ele>30</ele>
        <time>2021-07-05 17:57:04</time>
      </trkpt>
      <trkpt lat="28.04933" lon="-14.34852">
        <ele>29.6</ele>
        <time>2021-07-05 17:57:05</time>
      </trkpt>
      <trkpt lat="28.04933" lon="-14.34858">
        <ele>29</ele>
        <time>2021-07-05 17:57:06</time>
      </trkpt>
      <trkpt lat="28.04934" lon="-14.34865">
        <ele>28.8</ele>
        <time>2021-07-05 17:57:07</time>
      </trkpt>
      <trkpt lat="28.04934" lon="-14.34871">
        <ele>28.4</ele>
        <time>2021-07-05 17:57:08</time>
      </trkpt>
      <trkpt lat="28.04935" lon="-14.34878">
        <ele>28.4</ele>
        <time>2021-07-05 17:57:09</time>
      </trkpt>
      <trkpt lat="28.04935" lon="-14.34884">
        <ele>28</ele>
        <time>2021-07-05 17:57:10</time>
      </trkpt>
      <trkpt lat="28.04936" lon="-14.3489">
        <ele>28</ele>
        <time>2021-07-05 17:57:11</time>
      </trkpt>
      <trkpt lat="28.04936" lon="-14.34896">
        <ele>27.4</ele>
        <time>2021-07-05 17:57:12</time>
      </trkpt>
      <trkpt lat="28.04937" lon="-14.34902">
        <ele>27.4</ele>
        <time>2021-07-05 17:57:13</time>
      </trkpt>
      <trkpt lat="28.04938" lon="-14.34908">
        <ele>27</ele>
        <time>2021-07-05 17:57:14</time>
      </trkpt>
      <trkpt lat="28.04939" lon="-14.34914">
        <ele>26.8</ele>
        <time>2021-07-05 17:57:15</time>
      </trkpt>
      <trkpt lat="28.04939" lon="-14.34919">
        <ele>26.4</ele>
        <time>2021-07-05 17:57:16</time>
      </trkpt>
      <trkpt lat="28.04939" lon="-14.34925">
        <ele>26.4</ele>
        <time>2021-07-05 17:57:17</time>
      </trkpt>
      <trkpt lat="28.04939" lon="-14.34931">
        <ele>26.2</ele>
        <time>2021-07-05 17:57:18</time>
      </trkpt>
      <trkpt lat="28.04939" lon="-14.34936">
        <ele>26.2</ele>
        <time>2021-07-05 17:57:19</time>
      </trkpt>
      <trkpt lat="28.04938" lon="-14.34941">
        <ele>25.8</ele>
        <time>2021-07-05 17:57:20</time>
      </trkpt>
      <trkpt lat="28.04939" lon="-14.34945">
        <ele>25.8</ele>
        <time>2021-07-05 17:57:21</time>
      </trkpt>
      <trkpt lat="28.04939" lon="-14.34948">
        <ele>25.6</ele>
        <time>2021-07-05 17:57:22</time>
      </trkpt>
      <trkpt lat="28.04938" lon="-14.3495">
        <ele>25.6</ele>
        <time>2021-07-05 17:57:23</time>
      </trkpt>
      <trkpt lat="28.04938" lon="-14.34953">
        <ele>25.4</ele>
        <time>2021-07-05 17:57:24</time>
      </trkpt>
      <trkpt lat="28.04938" lon="-14.34954">
        <ele>25.2</ele>
        <time>2021-07-05 17:57:25</time>
      </trkpt>
      <trkpt lat="28.04937" lon="-14.34956">
        <ele>25.2</ele>
        <time>2021-07-05 17:57:26</time>
      </trkpt>
      <trkpt lat="28.04937" lon="-14.34958">
        <ele>25.2</ele>
        <time>2021-07-05 17:57:27</time>
      </trkpt>
      <trkpt lat="28.04937" lon="-14.34959">
        <ele>25</ele>
        <time>2021-07-05 17:57:28</time>
      </trkpt>
      <trkpt lat="28.04937" lon="-14.34961">
        <ele>25</ele>
        <time>2021-07-05 17:57:29</time>
      </trkpt>
      <trkpt lat="28.04937" lon="-14.34962">
        <ele>25</ele>
        <time>2021-07-05 17:57:30</time>
      </trkpt>
      <trkpt lat="28.04937" lon="-14.34964">
        <ele>25</ele>
        <time>2021-07-05 17:57:31</time>
      </trkpt>
      <trkpt lat="28.04937" lon="-14.34966">
        <ele>25</ele>
        <time>2021-07-05 17:57:32</time>
      </trkpt>
      <trkpt lat="28.04937" lon="-14.34967">
        <ele>25</ele>
        <time>2021-07-05 17:57:33</time>
      </trkpt>
      <trkpt lat="28.04937" lon="-14.34969">
        <ele>25</ele>
        <time>2021-07-05 17:57:34</time>
      </trkpt>
      <trkpt lat="28.04937" lon="-14.3497">
        <ele>25</ele>
        <time>2021-07-05 17:57:35</time>
      </trkpt>
      <trkpt lat="28.04937" lon="-14.34972">
        <ele>25</ele>
        <time>2021-07-05 17:57:36</time>
      </trkpt>
      <trkpt lat="28.04937" lon="-14.34974">
        <ele>25</ele>
        <time>2021-07-05 17:57:37</time>
      </trkpt>
      <trkpt lat="28.04936" lon="-14.34976">
        <ele>25</ele>
        <time>2021-07-05 17:57:38</time>
      </trkpt>
      <trkpt lat="28.04936" lon="-14.34977">
        <ele>25</ele>
        <time>2021-07-05 17:57:39</time>
      </trkpt>
      <trkpt lat="28.04936" lon="-14.34979">
        <ele>25</ele>
        <time>2021-07-05 17:57:40</time>
      </trkpt>
      <trkpt lat="28.04936" lon="-14.3498">
        <ele>25</ele>
        <time>2021-07-05 17:57:41</time>
      </trkpt>
      <trkpt lat="28.04935" lon="-14.34982">
        <ele>25</ele>
        <time>2021-07-05 17:57:42</time>
      </trkpt>
      <trkpt lat="28.04935" lon="-14.34983">
        <ele>25</ele>
        <time>2021-07-05 17:57:43</time>
      </trkpt>
      <trkpt lat="28.04935" lon="-14.34985">
        <ele>25</ele>
        <time>2021-07-05 17:57:44</time>
      </trkpt>
      <trkpt lat="28.04936" lon="-14.34986">
        <ele>25</ele>
        <time>2021-07-05 17:57:45</time>
      </trkpt>
      <trkpt lat="28.04936" lon="-14.34988">
        <ele>25</ele>
        <time>2021-07-05 17:57:46</time>
      </trkpt>
      <trkpt lat="28.04936" lon="-14.34989">
        <ele>25</ele>
        <time>2021-07-05 17:57:47</time>
      </trkpt>
      <trkpt lat="28.04936" lon="-14.34991">
        <ele>25</ele>
        <time>2021-07-05 17:57:48</time>
      </trkpt>
      <trkpt lat="28.04936" lon="-14.34992">
        <ele>25</ele>
        <time>2021-07-05 17:57:49</time>
      </trkpt>
      <trkpt lat="28.04936" lon="-14.34994">
        <ele>25</ele>
        <time>2021-07-05 17:57:50</time>
      </trkpt>
      <trkpt lat="28.04935" lon="-14.34995">
        <ele>25</ele>
        <time>2021-07-05 17:57:51</time>
      </trkpt>
      <trkpt lat="28.04935" lon="-14.34996">
        <ele>25</ele>
        <time>2021-07-05 17:57:52</time>
      </trkpt>
      <trkpt lat="28.04935" lon="-14.34997">
        <ele>25</ele>
        <time>2021-07-05 17:57:53</time>
      </trkpt>
      <trkpt lat="28.04935" lon="-14.34999">
        <ele>25</ele>
        <time>2021-07-05 17:57:54</time>
      </trkpt>
      <trkpt lat="28.04936" lon="-14.35">
        <ele>25</ele>
        <time>2021-07-05 17:57:55</time>
      </trkpt>
      <trkpt lat="28.04935" lon="-14.35002">
        <ele>25</ele>
        <time>2021-07-05 17:57:56</time>
      </trkpt>
      <trkpt lat="28.04935" lon="-14.35003">
        <ele>24.6</ele>
        <time>2021-07-05 17:57:57</time>
      </trkpt>
      <trkpt lat="28.04935" lon="-14.35004">
        <ele>24.6</ele>
        <time>2021-07-05 17:57:58</time>
      </trkpt>
      <trkpt lat="28.04935" lon="-14.35005">
        <ele>24.6</ele>
        <time>2021-07-05 17:57:59</time>
      </trkpt>
      <trkpt lat="28.04935" lon="-14.35007">
        <ele>24.6</ele>
        <time>2021-07-05 17:58:00</time>
      </trkpt>
      <trkpt lat="28.04934" lon="-14.35008">
        <ele>24.4</ele>
        <time>2021-07-05 17:58:01</time>
      </trkpt>
      <trkpt lat="28.04934" lon="-14.3501">
        <ele>24.4</ele>
        <time>2021-07-05 17:58:02</time>
      </trkpt>
      <trkpt lat="28.04934" lon="-14.35012">
        <ele>24.4</ele>
        <time>2021-07-05 17:58:03</time>
      </trkpt>
      <trkpt lat="28.04934" lon="-14.35013">
        <ele>24.4</ele>
        <time>2021-07-05 17:58:04</time>
      </trkpt>
      <trkpt lat="28.04934" lon="-14.35015">
        <ele>24.2</ele>
        <time>2021-07-05 17:58:05</time>
      </trkpt>
      <trkpt lat="28.04934" lon="-14.35016">
        <ele>24.2</ele>
        <time>2021-07-05 17:58:06</time>
      </trkpt>
      <trkpt lat="28.04934" lon="-14.35018">
        <ele>24.2</ele>
        <time>2021-07-05 17:58:07</time>
      </trkpt>
      <trkpt lat="28.04934" lon="-14.35019">
        <ele>24.2</ele>
        <time>2021-07-05 17:58:08</time>
      </trkpt>
      <trkpt lat="28.04934" lon="-14.3502">
        <ele>24.2</ele>
        <time>2021-07-05 17:58:09</time>
      </trkpt>
      <trkpt lat="28.04935" lon="-14.35022">
        <ele>24.2</ele>
        <time>2021-07-05 17:58:10</time>
      </trkpt>
      <trkpt lat="28.04935" lon="-14.35023">
        <ele>24</ele>
        <time>2021-07-05 17:58:11</time>
      </trkpt>
      <trkpt lat="28.04935" lon="-14.35025">
        <ele>24</ele>
        <time>2021-07-05 17:58:12</time>
      </trkpt>
      <trkpt lat="28.04936" lon="-14.35027">
        <ele>24</ele>
        <time>2021-07-05 17:58:13</time>
      </trkpt>
      <trkpt lat="28.04936" lon="-14.35028">
        <ele>24</ele>
        <time>2021-07-05 17:58:14</time>
      </trkpt>
      <trkpt lat="28.04936" lon="-14.3503">
        <ele>24</ele>
        <time>2021-07-05 17:58:15</time>
      </trkpt>
      <trkpt lat="28.04937" lon="-14.35032">
        <ele>23.6</ele>
        <time>2021-07-05 17:58:16</time>
      </trkpt>
      <trkpt lat="28.04937" lon="-14.35033">
        <ele>23.6</ele>
        <time>2021-07-05 17:58:17</time>
      </trkpt>
      <trkpt lat="28.04937" lon="-14.35035">
        <ele>23.4</ele>
        <time>2021-07-05 17:58:18</time>
      </trkpt>
      <trkpt lat="28.04937" lon="-14.35037">
        <ele>23.4</ele>
        <time>2021-07-05 17:58:19</time>
      </trkpt>
      <trkpt lat="28.04937" lon="-14.35038">
        <ele>23.4</ele>
        <time>2021-07-05 17:58:20</time>
      </trkpt>
      <trkpt lat="28.04937" lon="-14.3504">
        <ele>23.2</ele>
        <time>2021-07-05 17:58:21</time>
      </trkpt>
      <trkpt lat="28.04937" lon="-14.35041">
        <ele>23.2</ele>
        <time>2021-07-05 17:58:22</time>
      </trkpt>
      <trkpt lat="28.04937" lon="-14.35043">
        <ele>23.2</ele>
        <time>2021-07-05 17:58:23</time>
      </trkpt>
      <trkpt lat="28.04937" lon="-14.35044">
        <ele>23</ele>
        <time>2021-07-05 17:58:24</time>
      </trkpt>
      <trkpt lat="28.04937" lon="-14.35046">
        <ele>23</ele>
        <time>2021-07-05 17:58:25</time>
      </trkpt>
      <trkpt lat="28.04938" lon="-14.35047">
        <ele>23</ele>
        <time>2021-07-05 17:58:26</time>
      </trkpt>
      <trkpt lat="28.04938" lon="-14.35049">
        <ele>22.8</ele>
        <time>2021-07-05 17:58:27</time>
      </trkpt>
      <trkpt lat="28.04938" lon="-14.3505">
        <ele>22.8</ele>
        <time>2021-07-05 17:58:28</time>
      </trkpt>
      <trkpt lat="28.04938" lon="-14.35052">
        <ele>22.8</ele>
        <time>2021-07-05 17:58:29</time>
      </trkpt>
      <trkpt lat="28.04938" lon="-14.35053">
        <ele>22.4</ele>
        <time>2021-07-05 17:58:30</time>
      </trkpt>
      <trkpt lat="28.04938" lon="-14.35055">
        <ele>22.4</ele>
        <time>2021-07-05 17:58:31</time>
      </trkpt>
      <trkpt lat="28.04939" lon="-14.35056">
        <ele>22.4</ele>
        <time>2021-07-05 17:58:32</time>
      </trkpt>
      <trkpt lat="28.04939" lon="-14.35058">
        <ele>22.2</ele>
        <time>2021-07-05 17:58:33</time>
      </trkpt>
      <trkpt lat="28.04939" lon="-14.35059">
        <ele>22.2</ele>
        <time>2021-07-05 17:58:34</time>
      </trkpt>
      <trkpt lat="28.04939" lon="-14.3506">
        <ele>22.2</ele>
        <time>2021-07-05 17:58:35</time>
      </trkpt>
      <trkpt lat="28.0494" lon="-14.35062">
        <ele>22</ele>
        <time>2021-07-05 17:58:36</time>
      </trkpt>
      <trkpt lat="28.0494" lon="-14.35062">
        <ele>22</ele>
        <time>2021-07-05 17:58:37</time>
      </trkpt>
      <trkpt lat="28.04941" lon="-14.35068">
        <ele>20.8</ele>
        <time>2021-07-05 17:58:38</time>
      </trkpt>
      <trkpt lat="28.04942" lon="-14.35069">
        <ele>20.4</ele>
        <time>2021-07-05 17:58:39</time>
      </trkpt>
      <trkpt lat="28.04942" lon="-14.35071">
        <ele>20.4</ele>
        <time>2021-07-05 17:58:40</time>
      </trkpt>
      <trkpt lat="28.04942" lon="-14.35072">
        <ele>20.4</ele>
        <time>2021-07-05 17:58:41</time>
      </trkpt>
      <trkpt lat="28.04942" lon="-14.35073">
        <ele>20.2</ele>
        <time>2021-07-05 17:58:42</time>
      </trkpt>
      <trkpt lat="28.04942" lon="-14.35075">
        <ele>20.2</ele>
        <time>2021-07-05 17:58:43</time>
      </trkpt>
      <trkpt lat="28.04942" lon="-14.35076">
        <ele>20.2</ele>
        <time>2021-07-05 17:58:44</time>
      </trkpt>
      <trkpt lat="28.04943" lon="-14.35078">
        <ele>20.2</ele>
        <time>2021-07-05 17:58:45</time>
      </trkpt>
      <trkpt lat="28.04943" lon="-14.35079">
        <ele>19.8</ele>
        <time>2021-07-05 17:58:47</time>
      </trkpt>
      <trkpt lat="28.04943" lon="-14.3508">
        <ele>19.8</ele>
        <time>2021-07-05 17:58:48</time>
      </trkpt>
      <trkpt lat="28.04943" lon="-14.35081">
        <ele>19.8</ele>
        <time>2021-07-05 17:58:49</time>
      </trkpt>
      <trkpt lat="28.04943" lon="-14.35083">
        <ele>19.8</ele>
        <time>2021-07-05 17:58:50</time>
      </trkpt>
      <trkpt lat="28.04943" lon="-14.35084">
        <ele>19.8</ele>
        <time>2021-07-05 17:58:51</time>
      </trkpt>
      <trkpt lat="28.04943" lon="-14.35085">
        <ele>19.8</ele>
        <time>2021-07-05 17:58:52</time>
      </trkpt>
      <trkpt lat="28.04943" lon="-14.35087">
        <ele>19.8</ele>
        <time>2021-07-05 17:58:53</time>
      </trkpt>
      <trkpt lat="28.04943" lon="-14.35088">
        <ele>19.6</ele>
        <time>2021-07-05 17:58:54</time>
      </trkpt>
      <trkpt lat="28.04943" lon="-14.35089">
        <ele>19.6</ele>
        <time>2021-07-05 17:58:55</time>
      </trkpt>
      <trkpt lat="28.04943" lon="-14.3509">
        <ele>19.6</ele>
        <time>2021-07-05 17:58:56</time>
      </trkpt>
      <trkpt lat="28.04943" lon="-14.35092">
        <ele>19.6</ele>
        <time>2021-07-05 17:58:57</time>
      </trkpt>
      <trkpt lat="28.04943" lon="-14.35093">
        <ele>19.6</ele>
        <time>2021-07-05 17:58:58</time>
      </trkpt>
      <trkpt lat="28.04943" lon="-14.35095">
        <ele>19.4</ele>
        <time>2021-07-05 17:58:59</time>
      </trkpt>
      <trkpt lat="28.04943" lon="-14.35096">
        <ele>19.4</ele>
        <time>2021-07-05 17:59:00</time>
      </trkpt>
      <trkpt lat="28.04942" lon="-14.35098">
        <ele>19.4</ele>
        <time>2021-07-05 17:59:01</time>
      </trkpt>
      <trkpt lat="28.04942" lon="-14.35099">
        <ele>19.4</ele>
        <time>2021-07-05 17:59:02</time>
      </trkpt>
      <trkpt lat="28.04942" lon="-14.351">
        <ele>19.4</ele>
        <time>2021-07-05 17:59:03</time>
      </trkpt>
      <trkpt lat="28.04942" lon="-14.35102">
        <ele>19.4</ele>
        <time>2021-07-05 17:59:04</time>
      </trkpt>
      <trkpt lat="28.04942" lon="-14.35103">
        <ele>19.4</ele>
        <time>2021-07-05 17:59:05</time>
      </trkpt>
      <trkpt lat="28.04942" lon="-14.35105">
        <ele>19.4</ele>
        <time>2021-07-05 17:59:06</time>
      </trkpt>
      <trkpt lat="28.04942" lon="-14.35106">
        <ele>19.4</ele>
        <time>2021-07-05 17:59:07</time>
      </trkpt>
      <trkpt lat="28.04942" lon="-14.35108">
        <ele>19.4</ele>
        <time>2021-07-05 17:59:08</time>
      </trkpt>
      <trkpt lat="28.04942" lon="-14.35109">
        <ele>19.4</ele>
        <time>2021-07-05 17:59:09</time>
      </trkpt>
      <trkpt lat="28.04942" lon="-14.3511">
        <ele>19.4</ele>
        <time>2021-07-05 17:59:10</time>
      </trkpt>
      <trkpt lat="28.04942" lon="-14.35112">
        <ele>19.4</ele>
        <time>2021-07-05 17:59:11</time>
      </trkpt>
      <trkpt lat="28.04942" lon="-14.35112">
        <ele>19.4</ele>
        <time>2021-07-05 17:59:12</time>
      </trkpt>
      <trkpt lat="28.04941" lon="-14.35115">
        <ele>19.4</ele>
        <time>2021-07-05 17:59:13</time>
      </trkpt>
      <trkpt lat="28.04941" lon="-14.35117">
        <ele>19.4</ele>
        <time>2021-07-05 17:59:14</time>
      </trkpt>
      <trkpt lat="28.04941" lon="-14.35118">
        <ele>19.4</ele>
        <time>2021-07-05 17:59:15</time>
      </trkpt>
      <trkpt lat="28.04941" lon="-14.3512">
        <ele>19.4</ele>
        <time>2021-07-05 17:59:16</time>
      </trkpt>
      <trkpt lat="28.04941" lon="-14.35121">
        <ele>19.4</ele>
        <time>2021-07-05 17:59:17</time>
      </trkpt>
      <trkpt lat="28.04942" lon="-14.35123">
        <ele>19.4</ele>
        <time>2021-07-05 17:59:18</time>
      </trkpt>
      <trkpt lat="28.04942" lon="-14.35124">
        <ele>19.8</ele>
        <time>2021-07-05 17:59:19</time>
      </trkpt>
      <trkpt lat="28.04942" lon="-14.35125">
        <ele>19.8</ele>
        <time>2021-07-05 17:59:20</time>
      </trkpt>
      <trkpt lat="28.04942" lon="-14.35127">
        <ele>19.8</ele>
        <time>2021-07-05 17:59:21</time>
      </trkpt>
      <trkpt lat="28.04942" lon="-14.35128">
        <ele>19.8</ele>
        <time>2021-07-05 17:59:22</time>
      </trkpt>
      <trkpt lat="28.04942" lon="-14.3513">
        <ele>19.8</ele>
        <time>2021-07-05 17:59:23</time>
      </trkpt>
      <trkpt lat="28.04942" lon="-14.35131">
        <ele>19.8</ele>
        <time>2021-07-05 17:59:24</time>
      </trkpt>
      <trkpt lat="28.04942" lon="-14.35132">
        <ele>19.8</ele>
        <time>2021-07-05 17:59:25</time>
      </trkpt>
      <trkpt lat="28.04942" lon="-14.35133">
        <ele>19.8</ele>
        <time>2021-07-05 17:59:26</time>
      </trkpt>
      <trkpt lat="28.04942" lon="-14.35135">
        <ele>19.8</ele>
        <time>2021-07-05 17:59:27</time>
      </trkpt>
      <trkpt lat="28.04942" lon="-14.35136">
        <ele>19.8</ele>
        <time>2021-07-05 17:59:28</time>
      </trkpt>
      <trkpt lat="28.04942" lon="-14.35138">
        <ele>19.8</ele>
        <time>2021-07-05 17:59:29</time>
      </trkpt>
      <trkpt lat="28.04942" lon="-14.35139">
        <ele>20</ele>
        <time>2021-07-05 17:59:30</time>
      </trkpt>
      <trkpt lat="28.04942" lon="-14.35141">
        <ele>20</ele>
        <time>2021-07-05 17:59:31</time>
      </trkpt>
      <trkpt lat="28.04943" lon="-14.35143">
        <ele>20</ele>
        <time>2021-07-05 17:59:32</time>
      </trkpt>
      <trkpt lat="28.04943" lon="-14.35144">
        <ele>20</ele>
        <time>2021-07-05 17:59:33</time>
      </trkpt>
      <trkpt lat="28.04943" lon="-14.35146">
        <ele>20</ele>
        <time>2021-07-05 17:59:34</time>
      </trkpt>
      <trkpt lat="28.04943" lon="-14.35147">
        <ele>20</ele>
        <time>2021-07-05 17:59:35</time>
      </trkpt>
      <trkpt lat="28.04943" lon="-14.35148">
        <ele>20</ele>
        <time>2021-07-05 17:59:36</time>
      </trkpt>
      <trkpt lat="28.04943" lon="-14.3515">
        <ele>20</ele>
        <time>2021-07-05 17:59:37</time>
      </trkpt>
      <trkpt lat="28.04943" lon="-14.35152">
        <ele>20</ele>
        <time>2021-07-05 17:59:38</time>
      </trkpt>
      <trkpt lat="28.04943" lon="-14.35153">
        <ele>20</ele>
        <time>2021-07-05 17:59:39</time>
      </trkpt>
      <trkpt lat="28.04943" lon="-14.35154">
        <ele>20</ele>
        <time>2021-07-05 17:59:40</time>
      </trkpt>
      <trkpt lat="28.04943" lon="-14.35155">
        <ele>20</ele>
        <time>2021-07-05 17:59:41</time>
      </trkpt>
      <trkpt lat="28.04943" lon="-14.35156">
        <ele>20</ele>
        <time>2021-07-05 17:59:42</time>
      </trkpt>
      <trkpt lat="28.04944" lon="-14.35157">
        <ele>20</ele>
        <time>2021-07-05 17:59:43</time>
      </trkpt>
      <trkpt lat="28.04944" lon="-14.35158">
        <ele>20</ele>
        <time>2021-07-05 17:59:44</time>
      </trkpt>
      <trkpt lat="28.04944" lon="-14.35159">
        <ele>20</ele>
        <time>2021-07-05 17:59:45</time>
      </trkpt>
      <trkpt lat="28.04944" lon="-14.35161">
        <ele>20</ele>
        <time>2021-07-05 17:59:46</time>
      </trkpt>
      <trkpt lat="28.04944" lon="-14.35162">
        <ele>20</ele>
        <time>2021-07-05 17:59:47</time>
      </trkpt>
      <trkpt lat="28.04944" lon="-14.35163">
        <ele>20</ele>
        <time>2021-07-05 17:59:48</time>
      </trkpt>
      <trkpt lat="28.04945" lon="-14.35164">
        <ele>20</ele>
        <time>2021-07-05 17:59:49</time>
      </trkpt>
      <trkpt lat="28.04945" lon="-14.35165">
        <ele>20</ele>
        <time>2021-07-05 17:59:50</time>
      </trkpt>
      <trkpt lat="28.04945" lon="-14.35166">
        <ele>20</ele>
        <time>2021-07-05 17:59:51</time>
      </trkpt>
      <trkpt lat="28.04945" lon="-14.35167">
        <ele>20</ele>
        <time>2021-07-05 17:59:52</time>
      </trkpt>
      <trkpt lat="28.04945" lon="-14.35168">
        <ele>20</ele>
        <time>2021-07-05 17:59:53</time>
      </trkpt>
      <trkpt lat="28.04946" lon="-14.35169">
        <ele>19.8</ele>
        <time>2021-07-05 17:59:54</time>
      </trkpt>
      <trkpt lat="28.04946" lon="-14.3517">
        <ele>19.8</ele>
        <time>2021-07-05 17:59:55</time>
      </trkpt>
      <trkpt lat="28.04946" lon="-14.35171">
        <ele>19.8</ele>
        <time>2021-07-05 17:59:56</time>
      </trkpt>
      <trkpt lat="28.04946" lon="-14.35171">
        <ele>19.8</ele>
        <time>2021-07-05 17:59:57</time>
      </trkpt>
      <trkpt lat="28.04946" lon="-14.35171">
        <ele>19.8</ele>
        <time>2021-07-05 17:59:58</time>
      </trkpt>
      <trkpt lat="28.04946" lon="-14.35172">
        <ele>19.8</ele>
        <time>2021-07-05 17:59:59</time>
      </trkpt>
      <trkpt lat="28.04947" lon="-14.35172">
        <ele>19.8</ele>
        <time>2021-07-05 18:00:00</time>
      </trkpt>
      <trkpt lat="28.04947" lon="-14.35172">
        <ele>19.8</ele>
        <time>2021-07-05 18:00:01</time>
      </trkpt>
      <trkpt lat="28.04947" lon="-14.35173">
        <ele>19.8</ele>
        <time>2021-07-05 18:00:02</time>
      </trkpt>
      <trkpt lat="28.04947" lon="-14.35173">
        <ele>19.8</ele>
        <time>2021-07-05 18:00:03</time>
      </trkpt>
      <trkpt lat="28.04947" lon="-14.35174">
        <ele>19.8</ele>
        <time>2021-07-05 18:00:04</time>
      </trkpt>
      <trkpt lat="28.04947" lon="-14.35175">
        <ele>19.8</ele>
        <time>2021-07-05 18:00:05</time>
      </trkpt>
      <trkpt lat="28.04947" lon="-14.35176">
        <ele>19.8</ele>
        <time>2021-07-05 18:00:06</time>
      </trkpt>
      <trkpt lat="28.04948" lon="-14.35177">
        <ele>19.8</ele>
        <time>2021-07-05 18:00:07</time>
      </trkpt>
      <trkpt lat="28.04948" lon="-14.35178">
        <ele>19.8</ele>
        <time>2021-07-05 18:00:08</time>
      </trkpt>
      <trkpt lat="28.04948" lon="-14.35179">
        <ele>19.8</ele>
        <time>2021-07-05 18:00:09</time>
      </trkpt>
      <trkpt lat="28.04948" lon="-14.35181">
        <ele>19.8</ele>
        <time>2021-07-05 18:00:10</time>
      </trkpt>
      <trkpt lat="28.04949" lon="-14.35182">
        <ele>19.8</ele>
        <time>2021-07-05 18:00:11</time>
      </trkpt>
      <trkpt lat="28.04949" lon="-14.35183">
        <ele>19.8</ele>
        <time>2021-07-05 18:00:12</time>
      </trkpt>
      <trkpt lat="28.04949" lon="-14.35184">
        <ele>19.8</ele>
        <time>2021-07-05 18:00:13</time>
      </trkpt>
      <trkpt lat="28.0495" lon="-14.35184">
        <ele>19.8</ele>
        <time>2021-07-05 18:00:14</time>
      </trkpt>
      <trkpt lat="28.0495" lon="-14.35185">
        <ele>19.8</ele>
        <time>2021-07-05 18:00:15</time>
      </trkpt>
      <trkpt lat="28.0495" lon="-14.35186">
        <ele>19.8</ele>
        <time>2021-07-05 18:00:16</time>
      </trkpt>
      <trkpt lat="28.04951" lon="-14.35187">
        <ele>19.8</ele>
        <time>2021-07-05 18:00:17</time>
      </trkpt>
      <trkpt lat="28.04951" lon="-14.35188">
        <ele>19.8</ele>
        <time>2021-07-05 18:00:18</time>
      </trkpt>
      <trkpt lat="28.04952" lon="-14.35188">
        <ele>19.8</ele>
        <time>2021-07-05 18:00:19</time>
      </trkpt>
      <trkpt lat="28.04953" lon="-14.35189">
        <ele>19.8</ele>
        <time>2021-07-05 18:00:20</time>
      </trkpt>
      <trkpt lat="28.04954" lon="-14.35189">
        <ele>19.8</ele>
        <time>2021-07-05 18:00:21</time>
      </trkpt>
      <trkpt lat="28.04955" lon="-14.35189">
        <ele>19.8</ele>
        <time>2021-07-05 18:00:22</time>
      </trkpt>
      <trkpt lat="28.04956" lon="-14.35189">
        <ele>19.8</ele>
        <time>2021-07-05 18:00:23</time>
      </trkpt>
      <trkpt lat="28.04957" lon="-14.35188">
        <ele>19.8</ele>
        <time>2021-07-05 18:00:24</time>
      </trkpt>
      <trkpt lat="28.04958" lon="-14.35188">
        <ele>19.8</ele>
        <time>2021-07-05 18:00:25</time>
      </trkpt>
      <trkpt lat="28.04959" lon="-14.35187">
        <ele>20</ele>
        <time>2021-07-05 18:00:26</time>
      </trkpt>
      <trkpt lat="28.04959" lon="-14.35187">
        <ele>20</ele>
        <time>2021-07-05 18:00:27</time>
      </trkpt>
      <trkpt lat="28.0496" lon="-14.35186">
        <ele>20</ele>
        <time>2021-07-05 18:00:28</time>
      </trkpt>
      <trkpt lat="28.04959" lon="-14.35186">
        <ele>20.2</ele>
        <time>2021-07-05 18:00:29</time>
      </trkpt>
      <trkpt lat="28.04959" lon="-14.35185">
        <ele>20.2</ele>
        <time>2021-07-05 18:00:30</time>
      </trkpt>
      <trkpt lat="28.04959" lon="-14.35187">
        <ele>20.6</ele>
        <time>2021-07-05 18:00:31</time>
      </trkpt>
      <trkpt lat="28.04958" lon="-14.35187">
        <ele>20.6</ele>
        <time>2021-07-05 18:00:32</time>
      </trkpt>
      <trkpt lat="28.04958" lon="-14.35188">
        <ele>20.6</ele>
        <time>2021-07-05 18:00:33</time>
      </trkpt>
      <trkpt lat="28.04957" lon="-14.35189">
        <ele>20.8</ele>
        <time>2021-07-05 18:00:34</time>
      </trkpt>
      <trkpt lat="28.04957" lon="-14.35189">
        <ele>20.8</ele>
        <time>2021-07-05 18:00:35</time>
      </trkpt>
      <trkpt lat="28.04957" lon="-14.3519">
        <ele>20.8</ele>
        <time>2021-07-05 18:00:36</time>
      </trkpt>
      <trkpt lat="28.04958" lon="-14.3519">
        <ele>20.8</ele>
        <time>2021-07-05 18:00:37</time>
      </trkpt>
      <trkpt lat="28.04958" lon="-14.3519">
        <ele>20.8</ele>
        <time>2021-07-05 18:00:38</time>
      </trkpt>
      <trkpt lat="28.04959" lon="-14.3519">
        <ele>20.8</ele>
        <time>2021-07-05 18:00:39</time>
      </trkpt>
      <trkpt lat="28.0496" lon="-14.3519">
        <ele>20.8</ele>
        <time>2021-07-05 18:00:43</time>
      </trkpt>
      <trkpt lat="28.0496" lon="-14.3519">
        <ele>20.8</ele>
        <time>2021-07-05 18:00:44</time>
      </trkpt>
      <trkpt lat="28.0496" lon="-14.3519">
        <ele>20.8</ele>
        <time>2021-07-05 18:00:45</time>
      </trkpt>
      <trkpt lat="28.0496" lon="-14.3519">
        <ele>21</ele>
        <time>2021-07-05 18:00:46</time>
      </trkpt>
      <trkpt lat="28.04958" lon="-14.35189">
        <ele>21.2</ele>
        <time>2021-07-05 18:00:47</time>
      </trkpt>
      <trkpt lat="28.04957" lon="-14.35187">
        <ele>21</ele>
        <time>2021-07-05 18:00:48</time>
      </trkpt>
      <trkpt lat="28.04958" lon="-14.35185">
        <ele>20.8</ele>
        <time>2021-07-05 18:00:49</time>
      </trkpt>
      <trkpt lat="28.0496" lon="-14.35184">
        <ele>20.8</ele>
        <time>2021-07-05 18:00:50</time>
      </trkpt>
      <trkpt lat="28.04961" lon="-14.35183">
        <ele>20.8</ele>
        <time>2021-07-05 18:00:51</time>
      </trkpt>
      <trkpt lat="28.04962" lon="-14.35183">
        <ele>20.8</ele>
        <time>2021-07-05 18:00:52</time>
      </trkpt>
      <trkpt lat="28.04964" lon="-14.35183">
        <ele>20.8</ele>
        <time>2021-07-05 18:00:53</time>
      </trkpt>
      <trkpt lat="28.04965" lon="-14.35183">
        <ele>20.8</ele>
        <time>2021-07-05 18:00:54</time>
      </trkpt>
      <trkpt lat="28.04966" lon="-14.35183">
        <ele>20.8</ele>
        <time>2021-07-05 18:00:55</time>
      </trkpt>
      <trkpt lat="28.04968" lon="-14.35183">
        <ele>20.8</ele>
        <time>2021-07-05 18:08:26</time>
      </trkpt>
      <trkpt lat="28.04969" lon="-14.35183">
        <ele>20.8</ele>
        <time>2021-07-05 18:08:27</time>
      </trkpt>
      <trkpt lat="28.0497" lon="-14.35183">
        <ele>20.8</ele>
        <time>2021-07-05 18:08:28</time>
      </trkpt>
      <trkpt lat="28.04971" lon="-14.35183">
        <ele>20.8</ele>
        <time>2021-07-05 18:08:29</time>
      </trkpt>
      <trkpt lat="28.04973" lon="-14.35182">
        <ele>21</ele>
        <time>2021-07-05 18:08:30</time>
      </trkpt>
      <trkpt lat="28.04974" lon="-14.35182">
        <ele>21</ele>
        <time>2021-07-05 18:08:31</time>
      </trkpt>
      <trkpt lat="28.04975" lon="-14.35182">
        <ele>21</ele>
        <time>2021-07-05 18:08:32</time>
      </trkpt>
      <trkpt lat="28.04976" lon="-14.35182">
        <ele>21</ele>
        <time>2021-07-05 18:08:33</time>
      </trkpt>
      <trkpt lat="28.04978" lon="-14.35182">
        <ele>21.2</ele>
        <time>2021-07-05 18:08:34</time>
      </trkpt>
      <trkpt lat="28.04979" lon="-14.35182">
        <ele>21.2</ele>
        <time>2021-07-05 18:08:35</time>
      </trkpt>
      <trkpt lat="28.04981" lon="-14.35182">
        <ele>21.6</ele>
        <time>2021-07-05 18:08:36</time>
      </trkpt>
      <trkpt lat="28.04982" lon="-14.35182">
        <ele>21.6</ele>
        <time>2021-07-05 18:08:37</time>
      </trkpt>
      <trkpt lat="28.04983" lon="-14.35183">
        <ele>21.8</ele>
        <time>2021-07-05 18:08:38</time>
      </trkpt>
      <trkpt lat="28.04984" lon="-14.35184">
        <ele>21.8</ele>
        <time>2021-07-05 18:08:39</time>
      </trkpt>
      <trkpt lat="28.04985" lon="-14.35185">
        <ele>21.8</ele>
        <time>2021-07-05 18:08:40</time>
      </trkpt>
      <trkpt lat="28.04986" lon="-14.35186">
        <ele>22</ele>
        <time>2021-07-05 18:08:41</time>
      </trkpt>
      <trkpt lat="28.04986" lon="-14.35186">
        <ele>22</ele>
        <time>2021-07-05 18:08:42</time>
      </trkpt>
      <trkpt lat="28.04986" lon="-14.35186">
        <ele>22</ele>
        <time>2021-07-05 18:08:43</time>
      </trkpt>
      <trkpt lat="28.04987" lon="-14.35187">
        <ele>22</ele>
        <time>2021-07-05 18:08:44</time>
      </trkpt>
      <trkpt lat="28.04987" lon="-14.35187">
        <ele>22</ele>
        <time>2021-07-05 18:08:45</time>
      </trkpt>
      <trkpt lat="28.04987" lon="-14.35187">
        <ele>22</ele>
        <time>2021-07-05 18:08:46</time>
      </trkpt>
      <trkpt lat="28.04988" lon="-14.35191">
        <ele>21.6</ele>
        <time>2021-07-05 18:08:47</time>
      </trkpt>
      <trkpt lat="28.04989" lon="-14.35193">
        <ele>21.6</ele>
        <time>2021-07-05 18:08:48</time>
      </trkpt>
      <trkpt lat="28.0499" lon="-14.35196">
        <ele>21.4</ele>
        <time>2021-07-05 18:08:49</time>
      </trkpt>
      <trkpt lat="28.0499" lon="-14.35199">
        <ele>21.4</ele>
        <time>2021-07-05 18:08:50</time>
      </trkpt>
      <trkpt lat="28.04991" lon="-14.35202">
        <ele>21.4</ele>
        <time>2021-07-05 18:08:51</time>
      </trkpt>
      <trkpt lat="28.04993" lon="-14.35205">
        <ele>21.2</ele>
        <time>2021-07-05 18:08:52</time>
      </trkpt>
      <trkpt lat="28.04994" lon="-14.35207">
        <ele>21.2</ele>
        <time>2021-07-05 18:08:53</time>
      </trkpt>
      <trkpt lat="28.04996" lon="-14.35209">
        <ele>21.2</ele>
        <time>2021-07-05 18:08:54</time>
      </trkpt>
      <trkpt lat="28.05" lon="-14.35212">
        <ele>21.2</ele>
        <time>2021-07-05 18:08:55</time>
      </trkpt>
      <trkpt lat="28.05003" lon="-14.35214">
        <ele>21.2</ele>
        <time>2021-07-05 18:08:58</time>
      </trkpt>
      <trkpt lat="28.05004" lon="-14.35215">
        <ele>21.4</ele>
        <time>2021-07-05 18:08:59</time>
      </trkpt>
      <trkpt lat="28.05005" lon="-14.35217">
        <ele>21.4</ele>
        <time>2021-07-05 18:09:00</time>
      </trkpt>
      <trkpt lat="28.05005" lon="-14.35219">
        <ele>21.4</ele>
        <time>2021-07-05 18:09:01</time>
      </trkpt>
      <trkpt lat="28.05005" lon="-14.35221">
        <ele>21.8</ele>
        <time>2021-07-05 18:09:02</time>
      </trkpt>
      <trkpt lat="28.05004" lon="-14.35223">
        <ele>21.8</ele>
        <time>2021-07-05 18:09:03</time>
      </trkpt>
      <trkpt lat="28.05004" lon="-14.35226">
        <ele>22.2</ele>
        <time>2021-07-05 18:09:04</time>
      </trkpt>
      <trkpt lat="28.05003" lon="-14.35229">
        <ele>22.2</ele>
        <time>2021-07-05 18:09:05</time>
      </trkpt>
      <trkpt lat="28.05003" lon="-14.3523">
        <ele>22.4</ele>
        <time>2021-07-05 18:09:06</time>
      </trkpt>
      <trkpt lat="28.05003" lon="-14.35232">
        <ele>22.4</ele>
        <time>2021-07-05 18:09:07</time>
      </trkpt>
      <trkpt lat="28.05003" lon="-14.35233">
        <ele>22.4</ele>
        <time>2021-07-05 18:09:08</time>
      </trkpt>
      <trkpt lat="28.05003" lon="-14.35234">
        <ele>22.4</ele>
        <time>2021-07-05 18:09:09</time>
      </trkpt>
      <trkpt lat="28.05004" lon="-14.35235">
        <ele>22.4</ele>
        <time>2021-07-05 18:09:10</time>
      </trkpt>
      <trkpt lat="28.05005" lon="-14.35236">
        <ele>22.4</ele>
        <time>2021-07-05 18:09:11</time>
      </trkpt>
      <trkpt lat="28.05006" lon="-14.35236">
        <ele>22.4</ele>
        <time>2021-07-05 18:09:12</time>
      </trkpt>
      <trkpt lat="28.05008" lon="-14.35236">
        <ele>22.4</ele>
        <time>2021-07-05 18:09:13</time>
      </trkpt>
      <trkpt lat="28.0501" lon="-14.35236">
        <ele>22.4</ele>
        <time>2021-07-05 18:09:14</time>
      </trkpt>
      <trkpt lat="28.05011" lon="-14.35236">
        <ele>22.4</ele>
        <time>2021-07-05 18:09:15</time>
      </trkpt>
      <trkpt lat="28.05012" lon="-14.35236">
        <ele>22.4</ele>
        <time>2021-07-05 18:09:16</time>
      </trkpt>
      <trkpt lat="28.05014" lon="-14.35236">
        <ele>22.6</ele>
        <time>2021-07-05 18:09:17</time>
      </trkpt>
      <trkpt lat="28.05016" lon="-14.35237">
        <ele>22.6</ele>
        <time>2021-07-05 18:09:18</time>
      </trkpt>
      <trkpt lat="28.05018" lon="-14.35238">
        <ele>23</ele>
        <time>2021-07-05 18:09:19</time>
      </trkpt>
      <trkpt lat="28.0502" lon="-14.35238">
        <ele>23</ele>
        <time>2021-07-05 18:09:20</time>
      </trkpt>
      <trkpt lat="28.05022" lon="-14.35238">
        <ele>23.4</ele>
        <time>2021-07-05 18:09:21</time>
      </trkpt>
      <trkpt lat="28.05025" lon="-14.35238">
        <ele>23.6</ele>
        <time>2021-07-05 18:09:22</time>
      </trkpt>
      <trkpt lat="28.05028" lon="-14.35237">
        <ele>23.8</ele>
        <time>2021-07-05 18:09:23</time>
      </trkpt>
      <trkpt lat="28.0503" lon="-14.35237">
        <ele>24</ele>
        <time>2021-07-05 18:09:24</time>
      </trkpt>
      <trkpt lat="28.05033" lon="-14.35237">
        <ele>24.2</ele>
        <time>2021-07-05 18:09:25</time>
      </trkpt>
      <trkpt lat="28.05036" lon="-14.35237">
        <ele>24.4</ele>
        <time>2021-07-05 18:09:26</time>
      </trkpt>
      <trkpt lat="28.05038" lon="-14.35238">
        <ele>24.6</ele>
        <time>2021-07-05 18:09:27</time>
      </trkpt>
      <trkpt lat="28.0504" lon="-14.35238">
        <ele>25</ele>
        <time>2021-07-05 18:09:28</time>
      </trkpt>
      <trkpt lat="28.05042" lon="-14.35239">
        <ele>25</ele>
        <time>2021-07-05 18:09:29</time>
      </trkpt>
      <trkpt lat="28.05044" lon="-14.35239">
        <ele>25.2</ele>
        <time>2021-07-05 18:09:30</time>
      </trkpt>
      <trkpt lat="28.05047" lon="-14.35239">
        <ele>25.2</ele>
        <time>2021-07-05 18:09:31</time>
      </trkpt>
      <trkpt lat="28.05049" lon="-14.35239">
        <ele>25.6</ele>
        <time>2021-07-05 18:09:32</time>
      </trkpt>
      <trkpt lat="28.05052" lon="-14.35239">
        <ele>25.6</ele>
        <time>2021-07-05 18:09:33</time>
      </trkpt>
      <trkpt lat="28.05054" lon="-14.3524">
        <ele>25.6</ele>
        <time>2021-07-05 18:09:34</time>
      </trkpt>
      <trkpt lat="28.05057" lon="-14.3524">
        <ele>25.6</ele>
        <time>2021-07-05 18:09:35</time>
      </trkpt>
      <trkpt lat="28.0506" lon="-14.35241">
        <ele>25.6</ele>
        <time>2021-07-05 18:09:36</time>
      </trkpt>
      <trkpt lat="28.05063" lon="-14.35241">
        <ele>25.6</ele>
        <time>2021-07-05 18:09:37</time>
      </trkpt>
      <trkpt lat="28.05065" lon="-14.35241">
        <ele>25.6</ele>
        <time>2021-07-05 18:09:38</time>
      </trkpt>
      <trkpt lat="28.05068" lon="-14.35241">
        <ele>25.6</ele>
        <time>2021-07-05 18:09:39</time>
      </trkpt>
      <trkpt lat="28.0507" lon="-14.35241">
        <ele>25.8</ele>
        <time>2021-07-05 18:09:40</time>
      </trkpt>
      <trkpt lat="28.05073" lon="-14.35241">
        <ele>25.8</ele>
        <time>2021-07-05 18:09:41</time>
      </trkpt>
      <trkpt lat="28.05075" lon="-14.35242">
        <ele>26</ele>
        <time>2021-07-05 18:09:42</time>
      </trkpt>
      <trkpt lat="28.05078" lon="-14.35242">
        <ele>26</ele>
        <time>2021-07-05 18:09:43</time>
      </trkpt>
      <trkpt lat="28.0508" lon="-14.35243">
        <ele>26.2</ele>
        <time>2021-07-05 18:09:44</time>
      </trkpt>
      <trkpt lat="28.05082" lon="-14.35244">
        <ele>26.2</ele>
        <time>2021-07-05 18:09:45</time>
      </trkpt>
      <trkpt lat="28.05084" lon="-14.35245">
        <ele>26.2</ele>
        <time>2021-07-05 18:09:46</time>
      </trkpt>
      <trkpt lat="28.05086" lon="-14.35246">
        <ele>26.6</ele>
        <time>2021-07-05 18:09:47</time>
      </trkpt>
      <trkpt lat="28.05089" lon="-14.35246">
        <ele>26.6</ele>
        <time>2021-07-05 18:09:48</time>
      </trkpt>
      <trkpt lat="28.05091" lon="-14.35247">
        <ele>26.8</ele>
        <time>2021-07-05 18:09:49</time>
      </trkpt>
      <trkpt lat="28.05093" lon="-14.35247">
        <ele>26.8</ele>
        <time>2021-07-05 18:09:50</time>
      </trkpt>
      <trkpt lat="28.05095" lon="-14.35247">
        <ele>27.2</ele>
        <time>2021-07-05 18:09:51</time>
      </trkpt>
      <trkpt lat="28.05098" lon="-14.35247">
        <ele>27.2</ele>
        <time>2021-07-05 18:09:52</time>
      </trkpt>
      <trkpt lat="28.051" lon="-14.35247">
        <ele>27.6</ele>
        <time>2021-07-05 18:09:53</time>
      </trkpt>
      <trkpt lat="28.05103" lon="-14.35247">
        <ele>27.8</ele>
        <time>2021-07-05 18:09:54</time>
      </trkpt>
      <trkpt lat="28.05104" lon="-14.35248">
        <ele>27.8</ele>
        <time>2021-07-05 18:09:55</time>
      </trkpt>
      <trkpt lat="28.05106" lon="-14.35249">
        <ele>27.8</ele>
        <time>2021-07-05 18:09:56</time>
      </trkpt>
      <trkpt lat="28.05109" lon="-14.35249">
        <ele>28.2</ele>
        <time>2021-07-05 18:09:57</time>
      </trkpt>
      <trkpt lat="28.05112" lon="-14.3525">
        <ele>28.2</ele>
        <time>2021-07-05 18:09:58</time>
      </trkpt>
      <trkpt lat="28.05114" lon="-14.3525">
        <ele>28.6</ele>
        <time>2021-07-05 18:09:59</time>
      </trkpt>
      <trkpt lat="28.05117" lon="-14.3525">
        <ele>28.6</ele>
        <time>2021-07-05 18:10:00</time>
      </trkpt>
      <trkpt lat="28.05119" lon="-14.3525">
        <ele>29</ele>
        <time>2021-07-05 18:10:01</time>
      </trkpt>
      <trkpt lat="28.05121" lon="-14.3525">
        <ele>29</ele>
        <time>2021-07-05 18:10:02</time>
      </trkpt>
      <trkpt lat="28.05123" lon="-14.35251">
        <ele>29.2</ele>
        <time>2021-07-05 18:10:03</time>
      </trkpt>
      <trkpt lat="28.05125" lon="-14.35251">
        <ele>29.2</ele>
        <time>2021-07-05 18:10:04</time>
      </trkpt>
      <trkpt lat="28.05125" lon="-14.35251">
        <ele>29.4</ele>
        <time>2021-07-05 18:10:05</time>
      </trkpt>
      <trkpt lat="28.05133" lon="-14.35254">
        <ele>29.8</ele>
        <time>2021-07-05 18:10:06</time>
      </trkpt>
      <trkpt lat="28.05136" lon="-14.35255">
        <ele>30.2</ele>
        <time>2021-07-05 18:10:07</time>
      </trkpt>
      <trkpt lat="28.05139" lon="-14.35254">
        <ele>30.4</ele>
        <time>2021-07-05 18:10:08</time>
      </trkpt>
      <trkpt lat="28.05141" lon="-14.35253">
        <ele>30.8</ele>
        <time>2021-07-05 18:10:09</time>
      </trkpt>
      <trkpt lat="28.05144" lon="-14.35252">
        <ele>31</ele>
        <time>2021-07-05 18:10:10</time>
      </trkpt>
      <trkpt lat="28.05146" lon="-14.35252">
        <ele>31.4</ele>
        <time>2021-07-05 18:10:11</time>
      </trkpt>
      <trkpt lat="28.05148" lon="-14.35252">
        <ele>31.8</ele>
        <time>2021-07-05 18:10:12</time>
      </trkpt>
      <trkpt lat="28.05151" lon="-14.35252">
        <ele>32</ele>
        <time>2021-07-05 18:10:13</time>
      </trkpt>
      <trkpt lat="28.05153" lon="-14.35252">
        <ele>32.4</ele>
        <time>2021-07-05 18:10:14</time>
      </trkpt>
      <trkpt lat="28.05155" lon="-14.35252">
        <ele>32.6</ele>
        <time>2021-07-05 18:10:15</time>
      </trkpt>
      <trkpt lat="28.05157" lon="-14.35253">
        <ele>32.8</ele>
        <time>2021-07-05 18:10:16</time>
      </trkpt>
      <trkpt lat="28.0516" lon="-14.35254">
        <ele>33.2</ele>
        <time>2021-07-05 18:10:17</time>
      </trkpt>
      <trkpt lat="28.05162" lon="-14.35255">
        <ele>33.4</ele>
        <time>2021-07-05 18:10:18</time>
      </trkpt>
      <trkpt lat="28.05164" lon="-14.35256">
        <ele>33.6</ele>
        <time>2021-07-05 18:10:19</time>
      </trkpt>
      <trkpt lat="28.05167" lon="-14.35256">
        <ele>33.8</ele>
        <time>2021-07-05 18:10:20</time>
      </trkpt>
      <trkpt lat="28.05169" lon="-14.35257">
        <ele>33.8</ele>
        <time>2021-07-05 18:10:21</time>
      </trkpt>
      <trkpt lat="28.05172" lon="-14.35258">
        <ele>33.8</ele>
        <time>2021-07-05 18:10:22</time>
      </trkpt>
      <trkpt lat="28.05174" lon="-14.35259">
        <ele>33.8</ele>
        <time>2021-07-05 18:10:23</time>
      </trkpt>
      <trkpt lat="28.05174" lon="-14.35259">
        <ele>33.8</ele>
        <time>2021-07-05 18:10:24</time>
      </trkpt>
      <trkpt lat="28.0518" lon="-14.3526">
        <ele>33.8</ele>
        <time>2021-07-05 18:10:25</time>
      </trkpt>
      <trkpt lat="28.05183" lon="-14.35261">
        <ele>33.8</ele>
        <time>2021-07-05 18:10:26</time>
      </trkpt>
      <trkpt lat="28.05185" lon="-14.35261">
        <ele>33.6</ele>
        <time>2021-07-05 18:10:27</time>
      </trkpt>
      <trkpt lat="28.05188" lon="-14.35262">
        <ele>33.6</ele>
        <time>2021-07-05 18:10:28</time>
      </trkpt>
      <trkpt lat="28.0519" lon="-14.35262">
        <ele>33.6</ele>
        <time>2021-07-05 18:10:29</time>
      </trkpt>
      <trkpt lat="28.05193" lon="-14.35263">
        <ele>33.4</ele>
        <time>2021-07-05 18:10:30</time>
      </trkpt>
      <trkpt lat="28.05195" lon="-14.35263">
        <ele>33.4</ele>
        <time>2021-07-05 18:10:31</time>
      </trkpt>
      <trkpt lat="28.05197" lon="-14.35264">
        <ele>33.6</ele>
        <time>2021-07-05 18:10:32</time>
      </trkpt>
      <trkpt lat="28.052" lon="-14.35265">
        <ele>33.6</ele>
        <time>2021-07-05 18:10:33</time>
      </trkpt>
      <trkpt lat="28.05202" lon="-14.35265">
        <ele>33.6</ele>
        <time>2021-07-05 18:10:34</time>
      </trkpt>
      <trkpt lat="28.05205" lon="-14.35265">
        <ele>34</ele>
        <time>2021-07-05 18:10:35</time>
      </trkpt>
      <trkpt lat="28.05207" lon="-14.35266">
        <ele>34</ele>
        <time>2021-07-05 18:10:36</time>
      </trkpt>
      <trkpt lat="28.05209" lon="-14.35267">
        <ele>34.2</ele>
        <time>2021-07-05 18:10:37</time>
      </trkpt>
      <trkpt lat="28.05212" lon="-14.35267">
        <ele>34.2</ele>
        <time>2021-07-05 18:10:38</time>
      </trkpt>
      <trkpt lat="28.05214" lon="-14.35267">
        <ele>34.6</ele>
        <time>2021-07-05 18:10:39</time>
      </trkpt>
      <trkpt lat="28.05217" lon="-14.35268">
        <ele>34.8</ele>
        <time>2021-07-05 18:10:40</time>
      </trkpt>
      <trkpt lat="28.05219" lon="-14.35268">
        <ele>35</ele>
        <time>2021-07-05 18:10:41</time>
      </trkpt>
      <trkpt lat="28.05222" lon="-14.35269">
        <ele>35.2</ele>
        <time>2021-07-05 18:10:42</time>
      </trkpt>
      <trkpt lat="28.05225" lon="-14.35269">
        <ele>35.6</ele>
        <time>2021-07-05 18:10:43</time>
      </trkpt>
      <trkpt lat="28.05227" lon="-14.3527">
        <ele>35.8</ele>
        <time>2021-07-05 18:10:44</time>
      </trkpt>
      <trkpt lat="28.0523" lon="-14.3527">
        <ele>36</ele>
        <time>2021-07-05 18:10:45</time>
      </trkpt>
      <trkpt lat="28.05232" lon="-14.35271">
        <ele>36.2</ele>
        <time>2021-07-05 18:10:46</time>
      </trkpt>
      <trkpt lat="28.05234" lon="-14.35271">
        <ele>36.6</ele>
        <time>2021-07-05 18:10:47</time>
      </trkpt>
      <trkpt lat="28.05236" lon="-14.35271">
        <ele>36.8</ele>
        <time>2021-07-05 18:10:48</time>
      </trkpt>
      <trkpt lat="28.05239" lon="-14.35272">
        <ele>36.8</ele>
        <time>2021-07-05 18:10:49</time>
      </trkpt>
      <trkpt lat="28.05242" lon="-14.35272">
        <ele>37</ele>
        <time>2021-07-05 18:10:50</time>
      </trkpt>
      <trkpt lat="28.05244" lon="-14.35272">
        <ele>37</ele>
        <time>2021-07-05 18:10:51</time>
      </trkpt>
      <trkpt lat="28.05247" lon="-14.35273">
        <ele>37.2</ele>
        <time>2021-07-05 18:10:52</time>
      </trkpt>
      <trkpt lat="28.05249" lon="-14.35273">
        <ele>37.2</ele>
        <time>2021-07-05 18:10:53</time>
      </trkpt>
      <trkpt lat="28.05251" lon="-14.35273">
        <ele>37.6</ele>
        <time>2021-07-05 18:10:54</time>
      </trkpt>
      <trkpt lat="28.05253" lon="-14.35274">
        <ele>37.6</ele>
        <time>2021-07-05 18:10:55</time>
      </trkpt>
      <trkpt lat="28.05256" lon="-14.35274">
        <ele>37.8</ele>
        <time>2021-07-05 18:10:56</time>
      </trkpt>
      <trkpt lat="28.05259" lon="-14.35275">
        <ele>37.8</ele>
        <time>2021-07-05 18:10:57</time>
      </trkpt>
      <trkpt lat="28.05261" lon="-14.35275">
        <ele>37.8</ele>
        <time>2021-07-05 18:10:58</time>
      </trkpt>
      <trkpt lat="28.05263" lon="-14.35276">
        <ele>38.2</ele>
        <time>2021-07-05 18:10:59</time>
      </trkpt>
      <trkpt lat="28.05265" lon="-14.35276">
        <ele>38.2</ele>
        <time>2021-07-05 18:11:00</time>
      </trkpt>
      <trkpt lat="28.05266" lon="-14.35276">
        <ele>38.4</ele>
        <time>2021-07-05 18:11:01</time>
      </trkpt>
      <trkpt lat="28.05269" lon="-14.35276">
        <ele>38.4</ele>
        <time>2021-07-05 18:11:02</time>
      </trkpt>
      <trkpt lat="28.05272" lon="-14.35276">
        <ele>38.6</ele>
        <time>2021-07-05 18:11:03</time>
      </trkpt>
      <trkpt lat="28.05274" lon="-14.35276">
        <ele>38.6</ele>
        <time>2021-07-05 18:11:04</time>
      </trkpt>
      <trkpt lat="28.05277" lon="-14.35276">
        <ele>38.6</ele>
        <time>2021-07-05 18:11:05</time>
      </trkpt>
      <trkpt lat="28.05279" lon="-14.35276">
        <ele>39</ele>
        <time>2021-07-05 18:11:06</time>
      </trkpt>
      <trkpt lat="28.05282" lon="-14.35276">
        <ele>39.2</ele>
        <time>2021-07-05 18:11:07</time>
      </trkpt>
      <trkpt lat="28.05285" lon="-14.35277">
        <ele>39.2</ele>
        <time>2021-07-05 18:11:08</time>
      </trkpt>
      <trkpt lat="28.05287" lon="-14.35277">
        <ele>39.2</ele>
        <time>2021-07-05 18:11:09</time>
      </trkpt>
      <trkpt lat="28.0529" lon="-14.35277">
        <ele>39.6</ele>
        <time>2021-07-05 18:11:10</time>
      </trkpt>
      <trkpt lat="28.05292" lon="-14.35277">
        <ele>39.6</ele>
        <time>2021-07-05 18:11:11</time>
      </trkpt>
      <trkpt lat="28.05295" lon="-14.35277">
        <ele>39.6</ele>
        <time>2021-07-05 18:11:12</time>
      </trkpt>
      <trkpt lat="28.05297" lon="-14.35278">
        <ele>39.8</ele>
        <time>2021-07-05 18:11:13</time>
      </trkpt>
      <trkpt lat="28.053" lon="-14.35278">
        <ele>39.8</ele>
        <time>2021-07-05 18:11:14</time>
      </trkpt>
      <trkpt lat="28.05302" lon="-14.35279">
        <ele>39.8</ele>
        <time>2021-07-05 18:11:15</time>
      </trkpt>
      <trkpt lat="28.05304" lon="-14.3528">
        <ele>39.8</ele>
        <time>2021-07-05 18:11:16</time>
      </trkpt>
      <trkpt lat="28.05306" lon="-14.35281">
        <ele>39.8</ele>
        <time>2021-07-05 18:11:17</time>
      </trkpt>
      <trkpt lat="28.05307" lon="-14.35282">
        <ele>39.8</ele>
        <time>2021-07-05 18:11:18</time>
      </trkpt>
      <trkpt lat="28.05309" lon="-14.35283">
        <ele>39.8</ele>
        <time>2021-07-05 18:11:19</time>
      </trkpt>
      <trkpt lat="28.05309" lon="-14.35284">
        <ele>39.8</ele>
        <time>2021-07-05 18:11:20</time>
      </trkpt>
      <trkpt lat="28.0531" lon="-14.35287">
        <ele>39.8</ele>
        <time>2021-07-05 18:11:21</time>
      </trkpt>
      <trkpt lat="28.0531" lon="-14.35289">
        <ele>39.8</ele>
        <time>2021-07-05 18:11:22</time>
      </trkpt>
      <trkpt lat="28.0531" lon="-14.35292">
        <ele>39.6</ele>
        <time>2021-07-05 18:11:23</time>
      </trkpt>
      <trkpt lat="28.0531" lon="-14.35295">
        <ele>39.6</ele>
        <time>2021-07-05 18:11:24</time>
      </trkpt>
      <trkpt lat="28.0531" lon="-14.35298">
        <ele>39.6</ele>
        <time>2021-07-05 18:11:25</time>
      </trkpt>
      <trkpt lat="28.0531" lon="-14.353">
        <ele>39.6</ele>
        <time>2021-07-05 18:11:26</time>
      </trkpt>
      <trkpt lat="28.0531" lon="-14.35303">
        <ele>39.6</ele>
        <time>2021-07-05 18:11:27</time>
      </trkpt>
      <trkpt lat="28.0531" lon="-14.35306">
        <ele>39.6</ele>
        <time>2021-07-05 18:11:28</time>
      </trkpt>
      <trkpt lat="28.0531" lon="-14.35309">
        <ele>39.6</ele>
        <time>2021-07-05 18:11:29</time>
      </trkpt>
      <trkpt lat="28.0531" lon="-14.35312">
        <ele>39.6</ele>
        <time>2021-07-05 18:11:30</time>
      </trkpt>
      <trkpt lat="28.0531" lon="-14.35315">
        <ele>39.8</ele>
        <time>2021-07-05 18:11:31</time>
      </trkpt>
      <trkpt lat="28.05309" lon="-14.35318">
        <ele>39.8</ele>
        <time>2021-07-05 18:11:32</time>
      </trkpt>
      <trkpt lat="28.05309" lon="-14.35321">
        <ele>40</ele>
        <time>2021-07-05 18:11:33</time>
      </trkpt>
      <trkpt lat="28.05309" lon="-14.35324">
        <ele>40</ele>
        <time>2021-07-05 18:11:34</time>
      </trkpt>
      <trkpt lat="28.05308" lon="-14.35327">
        <ele>40.2</ele>
        <time>2021-07-05 18:11:35</time>
      </trkpt>
      <trkpt lat="28.05308" lon="-14.3533">
        <ele>40.2</ele>
        <time>2021-07-05 18:11:36</time>
      </trkpt>
      <trkpt lat="28.05307" lon="-14.35332">
        <ele>40.4</ele>
        <time>2021-07-05 18:11:37</time>
      </trkpt>
      <trkpt lat="28.05306" lon="-14.35335">
        <ele>40.4</ele>
        <time>2021-07-05 18:11:38</time>
      </trkpt>
      <trkpt lat="28.05306" lon="-14.35338">
        <ele>40.8</ele>
        <time>2021-07-05 18:11:39</time>
      </trkpt>
      <trkpt lat="28.05304" lon="-14.3534">
        <ele>40.8</ele>
        <time>2021-07-05 18:11:40</time>
      </trkpt>
      <trkpt lat="28.05303" lon="-14.35343">
        <ele>41.2</ele>
        <time>2021-07-05 18:11:41</time>
      </trkpt>
      <trkpt lat="28.05303" lon="-14.35345">
        <ele>41.4</ele>
        <time>2021-07-05 18:11:42</time>
      </trkpt>
      <trkpt lat="28.05302" lon="-14.35348">
        <ele>42</ele>
        <time>2021-07-05 18:11:43</time>
      </trkpt>
      <trkpt lat="28.05302" lon="-14.3535">
        <ele>42</ele>
        <time>2021-07-05 18:11:44</time>
      </trkpt>
      <trkpt lat="28.05302" lon="-14.35353">
        <ele>42.2</ele>
        <time>2021-07-05 18:11:45</time>
      </trkpt>
      <trkpt lat="28.05302" lon="-14.35355">
        <ele>42.6</ele>
        <time>2021-07-05 18:11:46</time>
      </trkpt>
      <trkpt lat="28.05303" lon="-14.35357">
        <ele>43</ele>
        <time>2021-07-05 18:11:47</time>
      </trkpt>
      <trkpt lat="28.05303" lon="-14.35359">
        <ele>43.2</ele>
        <time>2021-07-05 18:11:48</time>
      </trkpt>
      <trkpt lat="28.05302" lon="-14.35361">
        <ele>43.4</ele>
        <time>2021-07-05 18:11:49</time>
      </trkpt>
      <trkpt lat="28.05301" lon="-14.35363">
        <ele>43.6</ele>
        <time>2021-07-05 18:11:50</time>
      </trkpt>
      <trkpt lat="28.053" lon="-14.35364">
        <ele>43.6</ele>
        <time>2021-07-05 18:11:51</time>
      </trkpt>
      <trkpt lat="28.05298" lon="-14.35365">
        <ele>43.6</ele>
        <time>2021-07-05 18:11:52</time>
      </trkpt>
      <trkpt lat="28.05296" lon="-14.35367">
        <ele>43.6</ele>
        <time>2021-07-05 18:11:53</time>
      </trkpt>
      <trkpt lat="28.05294" lon="-14.35368">
        <ele>44</ele>
        <time>2021-07-05 18:11:54</time>
      </trkpt>
      <trkpt lat="28.05291" lon="-14.3537">
        <ele>44</ele>
        <time>2021-07-05 18:11:55</time>
      </trkpt>
      <trkpt lat="28.05288" lon="-14.3537">
        <ele>44</ele>
        <time>2021-07-05 18:11:56</time>
      </trkpt>
      <trkpt lat="28.05285" lon="-14.35371">
        <ele>44</ele>
        <time>2021-07-05 18:11:57</time>
      </trkpt>
      <trkpt lat="28.05282" lon="-14.35371">
        <ele>44</ele>
        <time>2021-07-05 18:11:58</time>
      </trkpt>
      <trkpt lat="28.05279" lon="-14.35371">
        <ele>44</ele>
        <time>2021-07-05 18:11:59</time>
      </trkpt>
      <trkpt lat="28.05276" lon="-14.3537">
        <ele>44</ele>
        <time>2021-07-05 18:12:00</time>
      </trkpt>
      <trkpt lat="28.05273" lon="-14.3537">
        <ele>44</ele>
        <time>2021-07-05 18:12:01</time>
      </trkpt>
      <trkpt lat="28.0527" lon="-14.35369">
        <ele>44</ele>
        <time>2021-07-05 18:12:02</time>
      </trkpt>
      <trkpt lat="28.05267" lon="-14.35368">
        <ele>44</ele>
        <time>2021-07-05 18:12:03</time>
      </trkpt>
      <trkpt lat="28.05263" lon="-14.35367">
        <ele>43.6</ele>
        <time>2021-07-05 18:12:04</time>
      </trkpt>
      <trkpt lat="28.0526" lon="-14.35366">
        <ele>43.6</ele>
        <time>2021-07-05 18:12:05</time>
      </trkpt>
      <trkpt lat="28.05257" lon="-14.35366">
        <ele>43.6</ele>
        <time>2021-07-05 18:12:06</time>
      </trkpt>
      <trkpt lat="28.05253" lon="-14.35366">
        <ele>43.6</ele>
        <time>2021-07-05 18:12:07</time>
      </trkpt>
      <trkpt lat="28.0525" lon="-14.35365">
        <ele>43.6</ele>
        <time>2021-07-05 18:12:08</time>
      </trkpt>
      <trkpt lat="28.05247" lon="-14.35365">
        <ele>43.6</ele>
        <time>2021-07-05 18:12:09</time>
      </trkpt>
      <trkpt lat="28.05243" lon="-14.35365">
        <ele>43.4</ele>
        <time>2021-07-05 18:12:10</time>
      </trkpt>
      <trkpt lat="28.0524" lon="-14.35365">
        <ele>43.4</ele>
        <time>2021-07-05 18:12:11</time>
      </trkpt>
      <trkpt lat="28.05236" lon="-14.35365">
        <ele>43.4</ele>
        <time>2021-07-05 18:12:12</time>
      </trkpt>
      <trkpt lat="28.05233" lon="-14.35364">
        <ele>43.2</ele>
        <time>2021-07-05 18:12:13</time>
      </trkpt>
      <trkpt lat="28.05229" lon="-14.35364">
        <ele>43</ele>
        <time>2021-07-05 18:12:14</time>
      </trkpt>
      <trkpt lat="28.05226" lon="-14.35364">
        <ele>42.8</ele>
        <time>2021-07-05 18:12:15</time>
      </trkpt>
      <trkpt lat="28.05222" lon="-14.35364">
        <ele>42.8</ele>
        <time>2021-07-05 18:12:16</time>
      </trkpt>
      <trkpt lat="28.05218" lon="-14.35364">
        <ele>42.8</ele>
        <time>2021-07-05 18:12:17</time>
      </trkpt>
      <trkpt lat="28.05214" lon="-14.35364">
        <ele>42.8</ele>
        <time>2021-07-05 18:12:18</time>
      </trkpt>
      <trkpt lat="28.0521" lon="-14.35364">
        <ele>42.8</ele>
        <time>2021-07-05 18:12:19</time>
      </trkpt>
      <trkpt lat="28.05206" lon="-14.35363">
        <ele>42.8</ele>
        <time>2021-07-05 18:12:20</time>
      </trkpt>
      <trkpt lat="28.05202" lon="-14.35363">
        <ele>42.8</ele>
        <time>2021-07-05 18:12:21</time>
      </trkpt>
      <trkpt lat="28.05198" lon="-14.35362">
        <ele>42.8</ele>
        <time>2021-07-05 18:12:22</time>
      </trkpt>
      <trkpt lat="28.05194" lon="-14.35362">
        <ele>43.2</ele>
        <time>2021-07-05 18:12:23</time>
      </trkpt>
      <trkpt lat="28.0519" lon="-14.35362">
        <ele>43.2</ele>
        <time>2021-07-05 18:12:24</time>
      </trkpt>
      <trkpt lat="28.05187" lon="-14.35361">
        <ele>43.4</ele>
        <time>2021-07-05 18:12:25</time>
      </trkpt>
      <trkpt lat="28.05183" lon="-14.35361">
        <ele>43.4</ele>
        <time>2021-07-05 18:12:26</time>
      </trkpt>
      <trkpt lat="28.05179" lon="-14.35361">
        <ele>43.8</ele>
        <time>2021-07-05 18:12:27</time>
      </trkpt>
      <trkpt lat="28.05175" lon="-14.3536">
        <ele>43.8</ele>
        <time>2021-07-05 18:12:28</time>
      </trkpt>
      <trkpt lat="28.05171" lon="-14.3536">
        <ele>44</ele>
        <time>2021-07-05 18:12:29</time>
      </trkpt>
      <trkpt lat="28.05167" lon="-14.35359">
        <ele>44</ele>
        <time>2021-07-05 18:12:30</time>
      </trkpt>
      <trkpt lat="28.05163" lon="-14.35359">
        <ele>44.2</ele>
        <time>2021-07-05 18:12:31</time>
      </trkpt>
      <trkpt lat="28.0516" lon="-14.35359">
        <ele>44.2</ele>
        <time>2021-07-05 18:12:32</time>
      </trkpt>
      <trkpt lat="28.05156" lon="-14.35358">
        <ele>44.2</ele>
        <time>2021-07-05 18:12:33</time>
      </trkpt>
      <trkpt lat="28.05152" lon="-14.35358">
        <ele>44.4</ele>
        <time>2021-07-05 18:12:34</time>
      </trkpt>
      <trkpt lat="28.05148" lon="-14.35358">
        <ele>44.4</ele>
        <time>2021-07-05 18:12:35</time>
      </trkpt>
      <trkpt lat="28.05145" lon="-14.35358">
        <ele>44.6</ele>
        <time>2021-07-05 18:12:36</time>
      </trkpt>
      <trkpt lat="28.05141" lon="-14.35358">
        <ele>44.6</ele>
        <time>2021-07-05 18:12:37</time>
      </trkpt>
      <trkpt lat="28.05137" lon="-14.35358">
        <ele>44.6</ele>
        <time>2021-07-05 18:12:38</time>
      </trkpt>
      <trkpt lat="28.05133" lon="-14.35358">
        <ele>45</ele>
        <time>2021-07-05 18:12:39</time>
      </trkpt>
      <trkpt lat="28.05129" lon="-14.35358">
        <ele>45</ele>
        <time>2021-07-05 18:12:40</time>
      </trkpt>
      <trkpt lat="28.05125" lon="-14.35357">
        <ele>45</ele>
        <time>2021-07-05 18:12:41</time>
      </trkpt>
      <trkpt lat="28.05121" lon="-14.35358">
        <ele>45.2</ele>
        <time>2021-07-05 18:12:42</time>
      </trkpt>
      <trkpt lat="28.05117" lon="-14.35359">
        <ele>45.2</ele>
        <time>2021-07-05 18:12:43</time>
      </trkpt>
      <trkpt lat="28.05114" lon="-14.35361">
        <ele>45.2</ele>
        <time>2021-07-05 18:12:44</time>
      </trkpt>
      <trkpt lat="28.0511" lon="-14.35363">
        <ele>45.2</ele>
        <time>2021-07-05 18:12:45</time>
      </trkpt>
      <trkpt lat="28.05106" lon="-14.35366">
        <ele>45.2</ele>
        <time>2021-07-05 18:12:46</time>
      </trkpt>
      <trkpt lat="28.05103" lon="-14.35369">
        <ele>45.2</ele>
        <time>2021-07-05 18:12:47</time>
      </trkpt>
      <trkpt lat="28.051" lon="-14.35372">
        <ele>45.2</ele>
        <time>2021-07-05 18:12:48</time>
      </trkpt>
      <trkpt lat="28.05097" lon="-14.35375">
        <ele>45.4</ele>
        <time>2021-07-05 18:12:49</time>
      </trkpt>
      <trkpt lat="28.05094" lon="-14.35378">
        <ele>45.4</ele>
        <time>2021-07-05 18:12:50</time>
      </trkpt>
      <trkpt lat="28.05092" lon="-14.35381">
        <ele>45.4</ele>
        <time>2021-07-05 18:12:51</time>
      </trkpt>
      <trkpt lat="28.05089" lon="-14.35384">
        <ele>45.4</ele>
        <time>2021-07-05 18:12:52</time>
      </trkpt>
      <trkpt lat="28.05087" lon="-14.35387">
        <ele>45.6</ele>
        <time>2021-07-05 18:12:53</time>
      </trkpt>
      <trkpt lat="28.05084" lon="-14.3539">
        <ele>45.6</ele>
        <time>2021-07-05 18:12:54</time>
      </trkpt>
      <trkpt lat="28.05082" lon="-14.35393">
        <ele>46</ele>
        <time>2021-07-05 18:12:55</time>
      </trkpt>
      <trkpt lat="28.05079" lon="-14.35396">
        <ele>46.2</ele>
        <time>2021-07-05 18:12:56</time>
      </trkpt>
      <trkpt lat="28.05077" lon="-14.354">
        <ele>46.2</ele>
        <time>2021-07-05 18:12:57</time>
      </trkpt>
      <trkpt lat="28.05074" lon="-14.35403">
        <ele>46.2</ele>
        <time>2021-07-05 18:12:58</time>
      </trkpt>
      <trkpt lat="28.05071" lon="-14.35406">
        <ele>46.6</ele>
        <time>2021-07-05 18:12:59</time>
      </trkpt>
      <trkpt lat="28.05069" lon="-14.35409">
        <ele>46.6</ele>
        <time>2021-07-05 18:13:00</time>
      </trkpt>
      <trkpt lat="28.05066" lon="-14.35412">
        <ele>46.6</ele>
        <time>2021-07-05 18:13:01</time>
      </trkpt>
      <trkpt lat="28.05063" lon="-14.35415">
        <ele>46.6</ele>
        <time>2021-07-05 18:13:02</time>
      </trkpt>
      <trkpt lat="28.0506" lon="-14.35418">
        <ele>46.6</ele>
        <time>2021-07-05 18:13:03</time>
      </trkpt>
      <trkpt lat="28.05058" lon="-14.35421">
        <ele>46.6</ele>
        <time>2021-07-05 18:13:04</time>
      </trkpt>
      <trkpt lat="28.05056" lon="-14.35424">
        <ele>46.6</ele>
        <time>2021-07-05 18:13:05</time>
      </trkpt>
      <trkpt lat="28.05054" lon="-14.35426">
        <ele>46.6</ele>
        <time>2021-07-05 18:13:06</time>
      </trkpt>
      <trkpt lat="28.05051" lon="-14.35429">
        <ele>46.6</ele>
        <time>2021-07-05 18:13:07</time>
      </trkpt>
      <trkpt lat="28.05049" lon="-14.35432">
        <ele>46.6</ele>
        <time>2021-07-05 18:13:08</time>
      </trkpt>
      <trkpt lat="28.05047" lon="-14.35435">
        <ele>46.6</ele>
        <time>2021-07-05 18:13:09</time>
      </trkpt>
      <trkpt lat="28.05045" lon="-14.35438">
        <ele>46.8</ele>
        <time>2021-07-05 18:13:10</time>
      </trkpt>
      <trkpt lat="28.05043" lon="-14.3544">
        <ele>47.2</ele>
        <time>2021-07-05 18:13:11</time>
      </trkpt>
      <trkpt lat="28.0504" lon="-14.35443">
        <ele>47.2</ele>
        <time>2021-07-05 18:13:12</time>
      </trkpt>
      <trkpt lat="28.05038" lon="-14.35445">
        <ele>47.4</ele>
        <time>2021-07-05 18:13:13</time>
      </trkpt>
      <trkpt lat="28.05036" lon="-14.35448">
        <ele>47.4</ele>
        <time>2021-07-05 18:13:14</time>
      </trkpt>
      <trkpt lat="28.05033" lon="-14.3545">
        <ele>47.8</ele>
        <time>2021-07-05 18:13:15</time>
      </trkpt>
      <trkpt lat="28.05031" lon="-14.35453">
        <ele>47.8</ele>
        <time>2021-07-05 18:13:16</time>
      </trkpt>
      <trkpt lat="28.05029" lon="-14.35456">
        <ele>48</ele>
        <time>2021-07-05 18:13:17</time>
      </trkpt>
      <trkpt lat="28.05027" lon="-14.35458">
        <ele>48</ele>
        <time>2021-07-05 18:13:18</time>
      </trkpt>
      <trkpt lat="28.05025" lon="-14.35461">
        <ele>48.2</ele>
        <time>2021-07-05 18:13:19</time>
      </trkpt>
      <trkpt lat="28.05023" lon="-14.35463">
        <ele>48.2</ele>
        <time>2021-07-05 18:13:20</time>
      </trkpt>
      <trkpt lat="28.05021" lon="-14.35466">
        <ele>48.6</ele>
        <time>2021-07-05 18:13:21</time>
      </trkpt>
      <trkpt lat="28.0502" lon="-14.35468">
        <ele>48.6</ele>
        <time>2021-07-05 18:13:22</time>
      </trkpt>
      <trkpt lat="28.05019" lon="-14.35471">
        <ele>48.8</ele>
        <time>2021-07-05 18:13:23</time>
      </trkpt>
      <trkpt lat="28.05019" lon="-14.35474">
        <ele>49</ele>
        <time>2021-07-05 18:13:24</time>
      </trkpt>
      <trkpt lat="28.05019" lon="-14.35476">
        <ele>49</ele>
        <time>2021-07-05 18:13:25</time>
      </trkpt>
      <trkpt lat="28.0502" lon="-14.35479">
        <ele>49.4</ele>
        <time>2021-07-05 18:13:26</time>
      </trkpt>
      <trkpt lat="28.0502" lon="-14.35481">
        <ele>49.8</ele>
        <time>2021-07-05 18:13:27</time>
      </trkpt>
      <trkpt lat="28.05021" lon="-14.35483">
        <ele>50</ele>
        <time>2021-07-05 18:13:28</time>
      </trkpt>
      <trkpt lat="28.05022" lon="-14.35485">
        <ele>50.4</ele>
        <time>2021-07-05 18:13:29</time>
      </trkpt>
      <trkpt lat="28.05023" lon="-14.35487">
        <ele>50.6</ele>
        <time>2021-07-05 18:13:30</time>
      </trkpt>
      <trkpt lat="28.05024" lon="-14.35489">
        <ele>50.8</ele>
        <time>2021-07-05 18:13:31</time>
      </trkpt>
      <trkpt lat="28.05025" lon="-14.35491">
        <ele>51.2</ele>
        <time>2021-07-05 18:13:32</time>
      </trkpt>
      <trkpt lat="28.05026" lon="-14.35493">
        <ele>51.4</ele>
        <time>2021-07-05 18:13:33</time>
      </trkpt>
      <trkpt lat="28.05027" lon="-14.35495">
        <ele>51.8</ele>
        <time>2021-07-05 18:13:34</time>
      </trkpt>
      <trkpt lat="28.05028" lon="-14.35497">
        <ele>52</ele>
        <time>2021-07-05 18:13:35</time>
      </trkpt>
      <trkpt lat="28.0503" lon="-14.355">
        <ele>52</ele>
        <time>2021-07-05 18:13:36</time>
      </trkpt>
      <trkpt lat="28.05031" lon="-14.35502">
        <ele>52.2</ele>
        <time>2021-07-05 18:13:37</time>
      </trkpt>
      <trkpt lat="28.05032" lon="-14.35504">
        <ele>52.2</ele>
        <time>2021-07-05 18:13:38</time>
      </trkpt>
      <trkpt lat="28.05033" lon="-14.35507">
        <ele>52.6</ele>
        <time>2021-07-05 18:13:39</time>
      </trkpt>
      <trkpt lat="28.05034" lon="-14.3551">
        <ele>52.6</ele>
        <time>2021-07-05 18:13:40</time>
      </trkpt>
      <trkpt lat="28.05035" lon="-14.35513">
        <ele>52.6</ele>
        <time>2021-07-05 18:13:41</time>
      </trkpt>
      <trkpt lat="28.05037" lon="-14.35515">
        <ele>52.6</ele>
        <time>2021-07-05 18:13:42</time>
      </trkpt>
      <trkpt lat="28.05038" lon="-14.35518">
        <ele>52.6</ele>
        <time>2021-07-05 18:13:43</time>
      </trkpt>
      <trkpt lat="28.0504" lon="-14.35521">
        <ele>52.6</ele>
        <time>2021-07-05 18:13:44</time>
      </trkpt>
      <trkpt lat="28.05042" lon="-14.35524">
        <ele>52.6</ele>
        <time>2021-07-05 18:13:45</time>
      </trkpt>
      <trkpt lat="28.05044" lon="-14.35527">
        <ele>52.4</ele>
        <time>2021-07-05 18:13:46</time>
      </trkpt>
      <trkpt lat="28.05047" lon="-14.35529">
        <ele>52</ele>
        <time>2021-07-05 18:13:47</time>
      </trkpt>
      <trkpt lat="28.0505" lon="-14.3553">
        <ele>52</ele>
        <time>2021-07-05 18:13:48</time>
      </trkpt>
      <trkpt lat="28.05053" lon="-14.3553">
        <ele>52</ele>
        <time>2021-07-05 18:13:49</time>
      </trkpt>
      <trkpt lat="28.05056" lon="-14.35531">
        <ele>52</ele>
        <time>2021-07-05 18:13:50</time>
      </trkpt>
      <trkpt lat="28.05059" lon="-14.3553">
        <ele>52</ele>
        <time>2021-07-05 18:13:51</time>
      </trkpt>
      <trkpt lat="28.05062" lon="-14.3553">
        <ele>52</ele>
        <time>2021-07-05 18:13:52</time>
      </trkpt>
      <trkpt lat="28.05064" lon="-14.3553">
        <ele>52.2</ele>
        <time>2021-07-05 18:13:53</time>
      </trkpt>
      <trkpt lat="28.05067" lon="-14.3553">
        <ele>52.6</ele>
        <time>2021-07-05 18:13:54</time>
      </trkpt>
      <trkpt lat="28.05069" lon="-14.35529">
        <ele>53</ele>
        <time>2021-07-05 18:13:55</time>
      </trkpt>
      <trkpt lat="28.05071" lon="-14.35529">
        <ele>53.2</ele>
        <time>2021-07-05 18:13:56</time>
      </trkpt>
      <trkpt lat="28.05073" lon="-14.35529">
        <ele>54</ele>
        <time>2021-07-05 18:13:57</time>
      </trkpt>
      <trkpt lat="28.05074" lon="-14.35529">
        <ele>54.4</ele>
        <time>2021-07-05 18:13:58</time>
      </trkpt>
      <trkpt lat="28.05076" lon="-14.35529">
        <ele>54.4</ele>
        <time>2021-07-05 18:13:59</time>
      </trkpt>
      <trkpt lat="28.05076" lon="-14.35529">
        <ele>54.6</ele>
        <time>2021-07-05 18:14:00</time>
      </trkpt>
      <trkpt lat="28.05077" lon="-14.35529">
        <ele>55</ele>
        <time>2021-07-05 18:14:01</time>
      </trkpt>
      <trkpt lat="28.05076" lon="-14.35529">
        <ele>55.2</ele>
        <time>2021-07-05 18:14:02</time>
      </trkpt>
      <trkpt lat="28.05076" lon="-14.35529">
        <ele>55.2</ele>
        <time>2021-07-05 18:14:03</time>
      </trkpt>
      <trkpt lat="28.05078" lon="-14.35531">
        <ele>55.2</ele>
        <time>2021-07-05 18:14:04</time>
      </trkpt>
      <trkpt lat="28.0508" lon="-14.35534">
        <ele>55.8</ele>
        <time>2021-07-05 18:14:05</time>
      </trkpt>
      <trkpt lat="28.05081" lon="-14.35538">
        <ele>55.4</ele>
        <time>2021-07-05 18:14:06</time>
      </trkpt>
      <trkpt lat="28.05081" lon="-14.35544">
        <ele>55.2</ele>
        <time>2021-07-05 18:14:07</time>
      </trkpt>
      <trkpt lat="28.05082" lon="-14.35549">
        <ele>55.2</ele>
        <time>2021-07-05 18:14:08</time>
      </trkpt>
      <trkpt lat="28.05083" lon="-14.35554">
        <ele>54.8</ele>
        <time>2021-07-05 18:14:09</time>
      </trkpt>
      <trkpt lat="28.05085" lon="-14.35561">
        <ele>54.6</ele>
        <time>2021-07-05 18:14:10</time>
      </trkpt>
      <trkpt lat="28.05087" lon="-14.35568">
        <ele>54.2</ele>
        <time>2021-07-05 18:14:11</time>
      </trkpt>
      <trkpt lat="28.05091" lon="-14.35575">
        <ele>53.8</ele>
        <time>2021-07-05 18:14:12</time>
      </trkpt>
      <trkpt lat="28.05094" lon="-14.35582">
        <ele>53.2</ele>
        <time>2021-07-05 18:14:13</time>
      </trkpt>
      <trkpt lat="28.05098" lon="-14.35588">
        <ele>52.8</ele>
        <time>2021-07-05 18:14:14</time>
      </trkpt>
      <trkpt lat="28.05102" lon="-14.35593">
        <ele>52.4</ele>
        <time>2021-07-05 18:14:15</time>
      </trkpt>
      <trkpt lat="28.05107" lon="-14.35599">
        <ele>52</ele>
        <time>2021-07-05 18:14:21</time>
      </trkpt>
      <trkpt lat="28.05111" lon="-14.35604">
        <ele>51.6</ele>
        <time>2021-07-05 18:14:22</time>
      </trkpt>
      <trkpt lat="28.05116" lon="-14.35609">
        <ele>51.4</ele>
        <time>2021-07-05 18:14:23</time>
      </trkpt>
      <trkpt lat="28.05121" lon="-14.35614">
        <ele>51</ele>
        <time>2021-07-05 18:14:24</time>
      </trkpt>
      <trkpt lat="28.05126" lon="-14.35618">
        <ele>50.6</ele>
        <time>2021-07-05 18:14:25</time>
      </trkpt>
      <trkpt lat="28.05131" lon="-14.35622">
        <ele>50.2</ele>
        <time>2021-07-05 18:14:26</time>
      </trkpt>
      <trkpt lat="28.05135" lon="-14.35626">
        <ele>49.8</ele>
        <time>2021-07-05 18:14:27</time>
      </trkpt>
      <trkpt lat="28.0514" lon="-14.3563">
        <ele>49</ele>
        <time>2021-07-05 18:14:28</time>
      </trkpt>
      <trkpt lat="28.05144" lon="-14.35634">
        <ele>49</ele>
        <time>2021-07-05 18:14:29</time>
      </trkpt>
      <trkpt lat="28.05149" lon="-14.35638">
        <ele>48.6</ele>
        <time>2021-07-05 18:14:30</time>
      </trkpt>
      <trkpt lat="28.05154" lon="-14.35643">
        <ele>48.2</ele>
        <time>2021-07-05 18:14:31</time>
      </trkpt>
      <trkpt lat="28.05158" lon="-14.35647">
        <ele>47.4</ele>
        <time>2021-07-05 18:14:32</time>
      </trkpt>
      <trkpt lat="28.05162" lon="-14.35651">
        <ele>47.4</ele>
        <time>2021-07-05 18:14:33</time>
      </trkpt>
      <trkpt lat="28.05166" lon="-14.35655">
        <ele>47.2</ele>
        <time>2021-07-05 18:14:34</time>
      </trkpt>
      <trkpt lat="28.05169" lon="-14.35658">
        <ele>46.4</ele>
        <time>2021-07-05 18:14:35</time>
      </trkpt>
      <trkpt lat="28.05173" lon="-14.35661">
        <ele>46.4</ele>
        <time>2021-07-05 18:14:36</time>
      </trkpt>
      <trkpt lat="28.05177" lon="-14.35662">
        <ele>45.8</ele>
        <time>2021-07-05 18:14:37</time>
      </trkpt>
      <trkpt lat="28.05181" lon="-14.35663">
        <ele>45.2</ele>
        <time>2021-07-05 18:14:38</time>
      </trkpt>
      <trkpt lat="28.05184" lon="-14.35665">
        <ele>45.2</ele>
        <time>2021-07-05 18:14:39</time>
      </trkpt>
      <trkpt lat="28.05188" lon="-14.35665">
        <ele>44.6</ele>
        <time>2021-07-05 18:14:40</time>
      </trkpt>
      <trkpt lat="28.0519" lon="-14.35666">
        <ele>44.6</ele>
        <time>2021-07-05 18:14:41</time>
      </trkpt>
      <trkpt lat="28.05191" lon="-14.35667">
        <ele>44.6</ele>
        <time>2021-07-05 18:14:42</time>
      </trkpt>
      <trkpt lat="28.05193" lon="-14.35668">
        <ele>44.2</ele>
        <time>2021-07-05 18:14:43</time>
      </trkpt>
      <trkpt lat="28.05193" lon="-14.35668">
        <ele>44.2</ele>
        <time>2021-07-05 18:14:44</time>
      </trkpt>
      <trkpt lat="28.05193" lon="-14.35668">
        <ele>44</ele>
        <time>2021-07-05 18:14:45</time>
      </trkpt>
      <trkpt lat="28.05192" lon="-14.35669">
        <ele>44</ele>
        <time>2021-07-05 18:14:46</time>
      </trkpt>
      <trkpt lat="28.05192" lon="-14.35669">
        <ele>44</ele>
        <time>2021-07-05 18:14:47</time>
      </trkpt>
      <trkpt lat="28.05192" lon="-14.35673">
        <ele>43.6</ele>
        <time>2021-07-05 18:14:48</time>
      </trkpt>
      <trkpt lat="28.05191" lon="-14.35675">
        <ele>43.2</ele>
        <time>2021-07-05 18:14:49</time>
      </trkpt>
      <trkpt lat="28.05189" lon="-14.35676">
        <ele>43</ele>
        <time>2021-07-05 18:14:50</time>
      </trkpt>
      <trkpt lat="28.05187" lon="-14.35676">
        <ele>43</ele>
        <time>2021-07-05 18:14:51</time>
      </trkpt>
      <trkpt lat="28.05185" lon="-14.35675">
        <ele>43</ele>
        <time>2021-07-05 18:14:52</time>
      </trkpt>
      <trkpt lat="28.05183" lon="-14.35674">
        <ele>43</ele>
        <time>2021-07-05 18:14:53</time>
      </trkpt>
      <trkpt lat="28.0518" lon="-14.35674">
        <ele>42.6</ele>
        <time>2021-07-05 18:14:54</time>
      </trkpt>
      <trkpt lat="28.05179" lon="-14.35676">
        <ele>42.6</ele>
        <time>2021-07-05 18:14:55</time>
      </trkpt>
      <trkpt lat="28.05178" lon="-14.35679">
        <ele>42.6</ele>
        <time>2021-07-05 18:14:56</time>
      </trkpt>
      <trkpt lat="28.05179" lon="-14.35683">
        <ele>42.6</ele>
        <time>2021-07-05 18:14:57</time>
      </trkpt>
      <trkpt lat="28.05181" lon="-14.35686">
        <ele>42.6</ele>
        <time>2021-07-05 18:14:58</time>
      </trkpt>
      <trkpt lat="28.05184" lon="-14.3569">
        <ele>42.4</ele>
        <time>2021-07-05 18:14:59</time>
      </trkpt>
      <trkpt lat="28.05186" lon="-14.35694">
        <ele>42.4</ele>
        <time>2021-07-05 18:15:11</time>
      </trkpt>
      <trkpt lat="28.05189" lon="-14.35698">
        <ele>42</ele>
        <time>2021-07-05 18:15:12</time>
      </trkpt>
      <trkpt lat="28.05192" lon="-14.35703">
        <ele>41.8</ele>
        <time>2021-07-05 18:15:13</time>
      </trkpt>
      <trkpt lat="28.05193" lon="-14.35707">
        <ele>41.6</ele>
        <time>2021-07-05 18:15:14</time>
      </trkpt>
      <trkpt lat="28.05195" lon="-14.35712">
        <ele>41.2</ele>
        <time>2021-07-05 18:15:15</time>
      </trkpt>
      <trkpt lat="28.05196" lon="-14.35717">
        <ele>41.2</ele>
        <time>2021-07-05 18:15:16</time>
      </trkpt>
      <trkpt lat="28.05198" lon="-14.35723">
        <ele>40.8</ele>
        <time>2021-07-05 18:15:17</time>
      </trkpt>
      <trkpt lat="28.05199" lon="-14.35729">
        <ele>40.6</ele>
        <time>2021-07-05 18:15:18</time>
      </trkpt>
      <trkpt lat="28.052" lon="-14.35734">
        <ele>40.6</ele>
        <time>2021-07-05 18:15:19</time>
      </trkpt>
      <trkpt lat="28.05201" lon="-14.3574">
        <ele>40.2</ele>
        <time>2021-07-05 18:15:20</time>
      </trkpt>
      <trkpt lat="28.05201" lon="-14.35746">
        <ele>39.8</ele>
        <time>2021-07-05 18:15:21</time>
      </trkpt>
      <trkpt lat="28.05202" lon="-14.35753">
        <ele>39.8</ele>
        <time>2021-07-05 18:15:22</time>
      </trkpt>
      <trkpt lat="28.05203" lon="-14.35759">
        <ele>39.4</ele>
        <time>2021-07-05 18:15:23</time>
      </trkpt>
      <trkpt lat="28.05203" lon="-14.35765">
        <ele>39.2</ele>
        <time>2021-07-05 18:15:24</time>
      </trkpt>
      <trkpt lat="28.05204" lon="-14.35772">
        <ele>39</ele>
        <time>2021-07-05 18:15:25</time>
      </trkpt>
      <trkpt lat="28.05203" lon="-14.35778">
        <ele>38.6</ele>
        <time>2021-07-05 18:15:26</time>
      </trkpt>
      <trkpt lat="28.05204" lon="-14.35785">
        <ele>38.4</ele>
        <time>2021-07-05 18:15:27</time>
      </trkpt>
      <trkpt lat="28.05204" lon="-14.35791">
        <ele>38.4</ele>
        <time>2021-07-05 18:15:28</time>
      </trkpt>
      <trkpt lat="28.05204" lon="-14.35798">
        <ele>38</ele>
        <time>2021-07-05 18:15:29</time>
      </trkpt>
      <trkpt lat="28.05204" lon="-14.35804">
        <ele>38</ele>
        <time>2021-07-05 18:15:30</time>
      </trkpt>
      <trkpt lat="28.05204" lon="-14.3581">
        <ele>37.4</ele>
        <time>2021-07-05 18:15:31</time>
      </trkpt>
      <trkpt lat="28.05203" lon="-14.35816">
        <ele>37.4</ele>
        <time>2021-07-05 18:15:32</time>
      </trkpt>
      <trkpt lat="28.05203" lon="-14.3582">
        <ele>36.8</ele>
        <time>2021-07-05 18:15:33</time>
      </trkpt>
      <trkpt lat="28.05202" lon="-14.35825">
        <ele>36.8</ele>
        <time>2021-07-05 18:15:34</time>
      </trkpt>
      <trkpt lat="28.05202" lon="-14.35829">
        <ele>36.6</ele>
        <time>2021-07-05 18:15:35</time>
      </trkpt>
      <trkpt lat="28.05201" lon="-14.35833">
        <ele>36.4</ele>
        <time>2021-07-05 18:15:36</time>
      </trkpt>
      <trkpt lat="28.05199" lon="-14.35836">
        <ele>36.4</ele>
        <time>2021-07-05 18:15:37</time>
      </trkpt>
      <trkpt lat="28.05197" lon="-14.35839">
        <ele>36.4</ele>
        <time>2021-07-05 18:15:38</time>
      </trkpt>
      <trkpt lat="28.05195" lon="-14.35843">
        <ele>36</ele>
        <time>2021-07-05 18:15:39</time>
      </trkpt>
      <trkpt lat="28.05193" lon="-14.35847">
        <ele>36</ele>
        <time>2021-07-05 18:15:40</time>
      </trkpt>
      <trkpt lat="28.0519" lon="-14.3585">
        <ele>35.8</ele>
        <time>2021-07-05 18:15:41</time>
      </trkpt>
      <trkpt lat="28.05187" lon="-14.35853">
        <ele>35.8</ele>
        <time>2021-07-05 18:15:42</time>
      </trkpt>
      <trkpt lat="28.05183" lon="-14.35856">
        <ele>35.6</ele>
        <time>2021-07-05 18:15:43</time>
      </trkpt>
      <trkpt lat="28.05179" lon="-14.35858">
        <ele>35.6</ele>
        <time>2021-07-05 18:15:44</time>
      </trkpt>
      <trkpt lat="28.05176" lon="-14.3586">
        <ele>35.2</ele>
        <time>2021-07-05 18:15:45</time>
      </trkpt>
      <trkpt lat="28.05172" lon="-14.35861">
        <ele>35.2</ele>
        <time>2021-07-05 18:15:46</time>
      </trkpt>
      <trkpt lat="28.05167" lon="-14.35862">
        <ele>35</ele>
        <time>2021-07-05 18:15:47</time>
      </trkpt>
      <trkpt lat="28.05163" lon="-14.35863">
        <ele>34.6</ele>
        <time>2021-07-05 18:15:48</time>
      </trkpt>
      <trkpt lat="28.0516" lon="-14.35864">
        <ele>34.2</ele>
        <time>2021-07-05 18:15:49</time>
      </trkpt>
      <trkpt lat="28.05157" lon="-14.35865">
        <ele>34</ele>
        <time>2021-07-05 18:15:50</time>
      </trkpt>
      <trkpt lat="28.05154" lon="-14.35865">
        <ele>33.6</ele>
        <time>2021-07-05 18:15:51</time>
      </trkpt>
      <trkpt lat="28.05151" lon="-14.35864">
        <ele>33.4</ele>
        <time>2021-07-05 18:15:52</time>
      </trkpt>
      <trkpt lat="28.05148" lon="-14.35864">
        <ele>33</ele>
        <time>2021-07-05 18:15:53</time>
      </trkpt>
      <trkpt lat="28.05145" lon="-14.35863">
        <ele>32.6</ele>
        <time>2021-07-05 18:15:54</time>
      </trkpt>
      <trkpt lat="28.05143" lon="-14.35863">
        <ele>32.4</ele>
        <time>2021-07-05 18:15:55</time>
      </trkpt>
      <trkpt lat="28.05142" lon="-14.35863">
        <ele>32</ele>
        <time>2021-07-05 18:15:56</time>
      </trkpt>
      <trkpt lat="28.05142" lon="-14.35864">
        <ele>31.8</ele>
        <time>2021-07-05 18:15:57</time>
      </trkpt>
      <trkpt lat="28.05143" lon="-14.35864">
        <ele>31.6</ele>
        <time>2021-07-05 18:15:58</time>
      </trkpt>
      <trkpt lat="28.05143" lon="-14.35864">
        <ele>31.6</ele>
        <time>2021-07-05 18:15:59</time>
      </trkpt>
      <trkpt lat="28.05143" lon="-14.35864">
        <ele>31.2</ele>
        <time>2021-07-05 18:16:00</time>
      </trkpt>
      <trkpt lat="28.0514" lon="-14.35863">
        <ele>31.2</ele>
        <time>2021-07-05 18:16:01</time>
      </trkpt>
      <trkpt lat="28.05137" lon="-14.35862">
        <ele>30</ele>
        <time>2021-07-05 18:16:02</time>
      </trkpt>
      <trkpt lat="28.05134" lon="-14.35861">
        <ele>30</ele>
        <time>2021-07-05 18:16:03</time>
      </trkpt>
      <trkpt lat="28.0513" lon="-14.3586">
        <ele>29.6</ele>
        <time>2021-07-05 18:16:04</time>
      </trkpt>
      <trkpt lat="28.05125" lon="-14.35859">
        <ele>29.6</ele>
        <time>2021-07-05 18:16:05</time>
      </trkpt>
      <trkpt lat="28.05121" lon="-14.35857">
        <ele>29.2</ele>
        <time>2021-07-05 18:16:06</time>
      </trkpt>
      <trkpt lat="28.05115" lon="-14.35856">
        <ele>29</ele>
        <time>2021-07-05 18:16:07</time>
      </trkpt>
      <trkpt lat="28.0511" lon="-14.35853">
        <ele>28.8</ele>
        <time>2021-07-05 18:16:08</time>
      </trkpt>
      <trkpt lat="28.05105" lon="-14.35851">
        <ele>28.2</ele>
        <time>2021-07-05 18:16:09</time>
      </trkpt>
      <trkpt lat="28.05101" lon="-14.35848">
        <ele>28.2</ele>
        <time>2021-07-05 18:16:10</time>
      </trkpt>
      <trkpt lat="28.05096" lon="-14.35845">
        <ele>28</ele>
        <time>2021-07-05 18:16:11</time>
      </trkpt>
      <trkpt lat="28.05091" lon="-14.35841">
        <ele>27.6</ele>
        <time>2021-07-05 18:16:12</time>
      </trkpt>
      <trkpt lat="28.05086" lon="-14.35837">
        <ele>27.2</ele>
        <time>2021-07-05 18:16:21</time>
      </trkpt>
      <trkpt lat="28.05081" lon="-14.35833">
        <ele>26.4</ele>
        <time>2021-07-05 18:16:22</time>
      </trkpt>
      <trkpt lat="28.05076" lon="-14.35829">
        <ele>26.4</ele>
        <time>2021-07-05 18:16:23</time>
      </trkpt>
      <trkpt lat="28.05071" lon="-14.35824">
        <ele>26</ele>
        <time>2021-07-05 18:16:24</time>
      </trkpt>
      <trkpt lat="28.05066" lon="-14.35819">
        <ele>25.4</ele>
        <time>2021-07-05 18:16:25</time>
      </trkpt>
      <trkpt lat="28.05061" lon="-14.35815">
        <ele>25</ele>
        <time>2021-07-05 18:16:26</time>
      </trkpt>
      <trkpt lat="28.05056" lon="-14.3581">
        <ele>24.6</ele>
        <time>2021-07-05 18:16:27</time>
      </trkpt>
      <trkpt lat="28.05052" lon="-14.35806">
        <ele>24</ele>
        <time>2021-07-05 18:16:28</time>
      </trkpt>
      <trkpt lat="28.05046" lon="-14.35802">
        <ele>23</ele>
        <time>2021-07-05 18:16:29</time>
      </trkpt>
      <trkpt lat="28.05042" lon="-14.35798">
        <ele>23</ele>
        <time>2021-07-05 18:16:30</time>
      </trkpt>
      <trkpt lat="28.05036" lon="-14.35794">
        <ele>22.6</ele>
        <time>2021-07-05 18:16:31</time>
      </trkpt>
      <trkpt lat="28.05031" lon="-14.35791">
        <ele>22.4</ele>
        <time>2021-07-05 18:16:32</time>
      </trkpt>
      <trkpt lat="28.05026" lon="-14.35789">
        <ele>22</ele>
        <time>2021-07-05 18:16:33</time>
      </trkpt>
      <trkpt lat="28.0502" lon="-14.35788">
        <ele>21.6</ele>
        <time>2021-07-05 18:16:34</time>
      </trkpt>
      <trkpt lat="28.05014" lon="-14.3579">
        <ele>21.2</ele>
        <time>2021-07-05 18:16:35</time>
      </trkpt>
      <trkpt lat="28.05009" lon="-14.35791">
        <ele>20.8</ele>
        <time>2021-07-05 18:16:36</time>
      </trkpt>
      <trkpt lat="28.05004" lon="-14.35791">
        <ele>20.4</ele>
        <time>2021-07-05 18:16:37</time>
      </trkpt>
      <trkpt lat="28.04998" lon="-14.35791">
        <ele>20.2</ele>
        <time>2021-07-05 18:16:38</time>
      </trkpt>
      <trkpt lat="28.04993" lon="-14.35789">
        <ele>20.2</ele>
        <time>2021-07-05 18:16:39</time>
      </trkpt>
      <trkpt lat="28.04988" lon="-14.35787">
        <ele>19.8</ele>
        <time>2021-07-05 18:16:40</time>
      </trkpt>
      <trkpt lat="28.04983" lon="-14.35786">
        <ele>19.8</ele>
        <time>2021-07-05 18:16:41</time>
      </trkpt>
      <trkpt lat="28.04978" lon="-14.35786">
        <ele>19.4</ele>
        <time>2021-07-05 18:16:42</time>
      </trkpt>
      <trkpt lat="28.04973" lon="-14.35787">
        <ele>19.4</ele>
        <time>2021-07-05 18:16:43</time>
      </trkpt>
      <trkpt lat="28.04969" lon="-14.35788">
        <ele>19</ele>
        <time>2021-07-05 18:16:44</time>
      </trkpt>
      <trkpt lat="28.04965" lon="-14.3579">
        <ele>19</ele>
        <time>2021-07-05 18:16:45</time>
      </trkpt>
      <trkpt lat="28.04961" lon="-14.35791">
        <ele>19</ele>
        <time>2021-07-05 18:16:46</time>
      </trkpt>
      <trkpt lat="28.04958" lon="-14.35793">
        <ele>18.8</ele>
        <time>2021-07-05 18:16:47</time>
      </trkpt>
      <trkpt lat="28.04954" lon="-14.35795">
        <ele>18.8</ele>
        <time>2021-07-05 18:16:48</time>
      </trkpt>
      <trkpt lat="28.04951" lon="-14.35797">
        <ele>18.8</ele>
        <time>2021-07-05 18:16:49</time>
      </trkpt>
      <trkpt lat="28.04949" lon="-14.35799">
        <ele>18.8</ele>
        <time>2021-07-05 18:16:50</time>
      </trkpt>
      <trkpt lat="28.04945" lon="-14.35801">
        <ele>18.8</ele>
        <time>2021-07-05 18:16:51</time>
      </trkpt>
      <trkpt lat="28.04943" lon="-14.35802">
        <ele>18.8</ele>
        <time>2021-07-05 18:16:52</time>
      </trkpt>
      <trkpt lat="28.04941" lon="-14.35804">
        <ele>18.8</ele>
        <time>2021-07-05 18:16:53</time>
      </trkpt>
      <trkpt lat="28.04939" lon="-14.35806">
        <ele>18.8</ele>
        <time>2021-07-05 18:16:54</time>
      </trkpt>
      <trkpt lat="28.04936" lon="-14.35807">
        <ele>19</ele>
        <time>2021-07-05 18:16:55</time>
      </trkpt>
      <trkpt lat="28.04934" lon="-14.35808">
        <ele>19</ele>
        <time>2021-07-05 18:16:56</time>
      </trkpt>
      <trkpt lat="28.04932" lon="-14.35809">
        <ele>19</ele>
        <time>2021-07-05 18:16:57</time>
      </trkpt>
      <trkpt lat="28.04929" lon="-14.3581">
        <ele>19</ele>
        <time>2021-07-05 18:16:58</time>
      </trkpt>
      <trkpt lat="28.04927" lon="-14.35811">
        <ele>19</ele>
        <time>2021-07-05 18:16:59</time>
      </trkpt>
      <trkpt lat="28.04924" lon="-14.3581">
        <ele>19.2</ele>
        <time>2021-07-05 18:17:00</time>
      </trkpt>
      <trkpt lat="28.04924" lon="-14.35806">
        <ele>19.2</ele>
        <time>2021-07-05 18:17:01</time>
      </trkpt>
      <trkpt lat="28.04926" lon="-14.35803">
        <ele>19.2</ele>
        <time>2021-07-05 18:17:02</time>
      </trkpt>
      <trkpt lat="28.04929" lon="-14.35802">
        <ele>19.2</ele>
        <time>2021-07-05 18:17:03</time>
      </trkpt>
      <trkpt lat="28.04933" lon="-14.35802">
        <ele>18.8</ele>
        <time>2021-07-05 18:17:04</time>
      </trkpt>
      <trkpt lat="28.04936" lon="-14.35803">
        <ele>18.6</ele>
        <time>2021-07-05 18:17:05</time>
      </trkpt>
      <trkpt lat="28.0494" lon="-14.35804">
        <ele>18.6</ele>
        <time>2021-07-05 18:17:06</time>
      </trkpt>
      <trkpt lat="28.04943" lon="-14.35805">
        <ele>18.4</ele>
        <time>2021-07-05 18:17:07</time>
      </trkpt>
      <trkpt lat="28.04945" lon="-14.35807">
        <ele>18.4</ele>
        <time>2021-07-05 18:17:08</time>
      </trkpt>
      <trkpt lat="28.04947" lon="-14.3581">
        <ele>18.4</ele>
        <time>2021-07-05 18:17:09</time>
      </trkpt>
      <trkpt lat="28.04949" lon="-14.35813">
        <ele>18.4</ele>
        <time>2021-07-05 18:17:10</time>
      </trkpt>
      <trkpt lat="28.0495" lon="-14.35816">
        <ele>18.4</ele>
        <time>2021-07-05 18:17:11</time>
      </trkpt>
      <trkpt lat="28.04952" lon="-14.35819">
        <ele>18.4</ele>
        <time>2021-07-05 18:17:12</time>
      </trkpt>
      <trkpt lat="28.04953" lon="-14.35822">
        <ele>18.6</ele>
        <time>2021-07-05 18:17:13</time>
      </trkpt>
      <trkpt lat="28.04955" lon="-14.35826">
        <ele>18.6</ele>
        <time>2021-07-05 18:17:14</time>
      </trkpt>
      <trkpt lat="28.04957" lon="-14.35829">
        <ele>18.6</ele>
        <time>2021-07-05 18:17:15</time>
      </trkpt>
      <trkpt lat="28.04959" lon="-14.35832">
        <ele>18.6</ele>
        <time>2021-07-05 18:17:16</time>
      </trkpt>
      <trkpt lat="28.04961" lon="-14.35835">
        <ele>18.6</ele>
        <time>2021-07-05 18:17:17</time>
      </trkpt>
      <trkpt lat="28.04964" lon="-14.35838">
        <ele>18.6</ele>
        <time>2021-07-05 18:17:18</time>
      </trkpt>
      <trkpt lat="28.04966" lon="-14.3584">
        <ele>18.6</ele>
        <time>2021-07-05 18:17:19</time>
      </trkpt>
      <trkpt lat="28.04968" lon="-14.35843">
        <ele>18.6</ele>
        <time>2021-07-05 18:17:20</time>
      </trkpt>
      <trkpt lat="28.04969" lon="-14.35846">
        <ele>18.6</ele>
        <time>2021-07-05 18:17:21</time>
      </trkpt>
      <trkpt lat="28.04972" lon="-14.35849">
        <ele>18.6</ele>
        <time>2021-07-05 18:17:22</time>
      </trkpt>
      <trkpt lat="28.04974" lon="-14.35852">
        <ele>18.6</ele>
        <time>2021-07-05 18:17:23</time>
      </trkpt>
      <trkpt lat="28.04975" lon="-14.35854">
        <ele>18.6</ele>
        <time>2021-07-05 18:17:24</time>
      </trkpt>
      <trkpt lat="28.04977" lon="-14.35857">
        <ele>18.6</ele>
        <time>2021-07-05 18:17:25</time>
      </trkpt>
      <trkpt lat="28.04979" lon="-14.35859">
        <ele>18.6</ele>
        <time>2021-07-05 18:17:26</time>
      </trkpt>
      <trkpt lat="28.0498" lon="-14.35862">
        <ele>18.6</ele>
        <time>2021-07-05 18:17:27</time>
      </trkpt>
      <trkpt lat="28.04982" lon="-14.35865">
        <ele>18.6</ele>
        <time>2021-07-05 18:17:28</time>
      </trkpt>
      <trkpt lat="28.04983" lon="-14.35868">
        <ele>18.6</ele>
        <time>2021-07-05 18:17:29</time>
      </trkpt>
      <trkpt lat="28.04985" lon="-14.35871">
        <ele>18.6</ele>
        <time>2021-07-05 18:17:30</time>
      </trkpt>
      <trkpt lat="28.04986" lon="-14.35873">
        <ele>18.6</ele>
        <time>2021-07-05 18:17:31</time>
      </trkpt>
      <trkpt lat="28.04988" lon="-14.35876">
        <ele>18.6</ele>
        <time>2021-07-05 18:17:32</time>
      </trkpt>
      <trkpt lat="28.04989" lon="-14.35878">
        <ele>18.6</ele>
        <time>2021-07-05 18:17:33</time>
      </trkpt>
      <trkpt lat="28.0499" lon="-14.3588">
        <ele>18.6</ele>
        <time>2021-07-05 18:17:34</time>
      </trkpt>
      <trkpt lat="28.04991" lon="-14.3588">
        <ele>18.8</ele>
        <time>2021-07-05 18:17:35</time>
      </trkpt>
      <trkpt lat="28.04991" lon="-14.3588">
        <ele>18.8</ele>
        <time>2021-07-05 18:17:36</time>
      </trkpt>
      <trkpt lat="28.04992" lon="-14.3588">
        <ele>18.8</ele>
        <time>2021-07-05 18:17:37</time>
      </trkpt>
      <trkpt lat="28.04992" lon="-14.3588">
        <ele>18.8</ele>
        <time>2021-07-05 18:17:38</time>
      </trkpt>
      <trkpt lat="28.04992" lon="-14.35881">
        <ele>18.8</ele>
        <time>2021-07-05 18:17:39</time>
      </trkpt>
      <trkpt lat="28.04992" lon="-14.35881">
        <ele>19</ele>
        <time>2021-07-05 18:17:40</time>
      </trkpt>
      <trkpt lat="28.04992" lon="-14.35881">
        <ele>19</ele>
        <time>2021-07-05 18:17:41</time>
      </trkpt>
      <trkpt lat="28.04993" lon="-14.35881">
        <ele>19</ele>
        <time>2021-07-05 18:17:42</time>
      </trkpt>
      <trkpt lat="28.04994" lon="-14.3588">
        <ele>19</ele>
        <time>2021-07-05 18:17:43</time>
      </trkpt>
      <trkpt lat="28.04993" lon="-14.35879">
        <ele>19</ele>
        <time>2021-07-05 18:17:44</time>
      </trkpt>
      <trkpt lat="28.04993" lon="-14.35878">
        <ele>19.4</ele>
        <time>2021-07-05 18:17:45</time>
      </trkpt>
      <trkpt lat="28.04993" lon="-14.35877">
        <ele>19.4</ele>
        <time>2021-07-05 18:17:46</time>
      </trkpt>
      <trkpt lat="28.04992" lon="-14.35876">
        <ele>19.4</ele>
        <time>2021-07-05 18:17:47</time>
      </trkpt>
      <trkpt lat="28.04992" lon="-14.35876">
        <ele>19.6</ele>
        <time>2021-07-05 18:17:48</time>
      </trkpt>
      <trkpt lat="28.04992" lon="-14.35876">
        <ele>19.6</ele>
        <time>2021-07-05 18:17:49</time>
      </trkpt>
      <trkpt lat="28.0499" lon="-14.35875">
        <ele>19.6</ele>
        <time>2021-07-05 18:17:50</time>
      </trkpt>
      <trkpt lat="28.0499" lon="-14.35875">
        <ele>19.6</ele>
        <time>2021-07-05 18:18:01</time>
      </trkpt>
      <trkpt lat="28.04989" lon="-14.35875">
        <ele>19.6</ele>
        <time>2021-07-05 18:18:02</time>
      </trkpt>
      <trkpt lat="28.04989" lon="-14.35875">
        <ele>19.8</ele>
        <time>2021-07-05 18:18:03</time>
      </trkpt>
      <trkpt lat="28.04989" lon="-14.35874">
        <ele>18.4</ele>
        <time>2021-07-05 18:18:07</time>
      </trkpt>
      <trkpt lat="28.04989" lon="-14.35873">
        <ele>18.4</ele>
        <time>2021-07-05 18:18:08</time>
      </trkpt>
      <trkpt lat="28.04988" lon="-14.35872">
        <ele>18.4</ele>
        <time>2021-07-05 18:18:09</time>
      </trkpt>
      <trkpt lat="28.04987" lon="-14.35871">
        <ele>18.4</ele>
        <time>2021-07-05 18:18:10</time>
      </trkpt>
      <trkpt lat="28.04987" lon="-14.3587">
        <ele>18</ele>
        <time>2021-07-05 18:18:11</time>
      </trkpt>
      <trkpt lat="28.04986" lon="-14.35868">
        <ele>18</ele>
        <time>2021-07-05 18:18:12</time>
      </trkpt>
      <trkpt lat="28.04985" lon="-14.35866">
        <ele>18</ele>
        <time>2021-07-05 18:18:13</time>
      </trkpt>
      <trkpt lat="28.04984" lon="-14.35865">
        <ele>18</ele>
        <time>2021-07-05 18:18:14</time>
      </trkpt>
      <trkpt lat="28.04983" lon="-14.35864">
        <ele>18</ele>
        <time>2021-07-05 18:18:17</time>
      </trkpt>
      <trkpt lat="28.04983" lon="-14.35863">
        <ele>18</ele>
        <time>2021-07-05 18:18:18</time>
      </trkpt>
      <trkpt lat="28.04982" lon="-14.35862">
        <ele>18.4</ele>
        <time>2021-07-05 18:18:19</time>
      </trkpt>
      <trkpt lat="28.04982" lon="-14.3586">
        <ele>18.4</ele>
        <time>2021-07-05 18:18:20</time>
      </trkpt>
      <trkpt lat="28.04981" lon="-14.35859">
        <ele>18.4</ele>
        <time>2021-07-05 18:40:02</time>
      </trkpt>
      <trkpt lat="28.04981" lon="-14.35859">
        <ele>18.4</ele>
        <time>2021-07-05 18:40:03</time>
      </trkpt>
      <trkpt lat="28.04981" lon="-14.35857">
        <ele>18.6</ele>
        <time>2021-07-05 18:40:04</time>
      </trkpt>
      <trkpt lat="28.04981" lon="-14.35856">
        <ele>18.6</ele>
        <time>2021-07-05 18:40:05</time>
      </trkpt>
      <trkpt lat="28.04982" lon="-14.35856">
        <ele>18.6</ele>
        <time>2021-07-05 18:40:06</time>
      </trkpt>
      <trkpt lat="28.04982" lon="-14.35856">
        <ele>18.6</ele>
        <time>2021-07-05 18:40:07</time>
      </trkpt>
      <trkpt lat="28.04983" lon="-14.35855">
        <ele>18.8</ele>
        <time>2021-07-05 18:40:08</time>
      </trkpt>
      <trkpt lat="28.04984" lon="-14.35855">
        <ele>18.8</ele>
        <time>2021-07-05 18:40:09</time>
      </trkpt>
      <trkpt lat="28.04984" lon="-14.35856">
        <ele>18.8</ele>
        <time>2021-07-05 18:40:10</time>
      </trkpt>
      <trkpt lat="28.04984" lon="-14.35856">
        <ele>19</ele>
        <time>2021-07-05 18:40:11</time>
      </trkpt>
      <trkpt lat="28.04985" lon="-14.35855">
        <ele>19</ele>
        <time>2021-07-05 18:40:12</time>
      </trkpt>
      <trkpt lat="28.04985" lon="-14.35854">
        <ele>18.8</ele>
        <time>2021-07-05 18:40:13</time>
      </trkpt>
      <trkpt lat="28.04984" lon="-14.35854">
        <ele>18.8</ele>
        <time>2021-07-05 18:40:14</time>
      </trkpt>
      <trkpt lat="28.04983" lon="-14.35854">
        <ele>18.8</ele>
        <time>2021-07-05 18:40:15</time>
      </trkpt>
      <trkpt lat="28.04983" lon="-14.35855">
        <ele>18.8</ele>
        <time>2021-07-05 18:40:16</time>
      </trkpt>
      <trkpt lat="28.04982" lon="-14.35855">
        <ele>19</ele>
        <time>2021-07-05 18:40:17</time>
      </trkpt>
      <trkpt lat="28.04981" lon="-14.35855">
        <ele>19</ele>
        <time>2021-07-05 18:40:18</time>
      </trkpt>
      <trkpt lat="28.04981" lon="-14.35855">
        <ele>19</ele>
        <time>2021-07-05 18:40:19</time>
      </trkpt>
      <trkpt lat="28.04981" lon="-14.35855">
        <ele>19</ele>
        <time>2021-07-05 18:40:20</time>
      </trkpt>
      <trkpt lat="28.04981" lon="-14.35855">
        <ele>19</ele>
        <time>2021-07-05 18:40:21</time>
      </trkpt>
      <trkpt lat="28.0498" lon="-14.35854">
        <ele>19</ele>
        <time>2021-07-05 18:40:22</time>
      </trkpt>
      <trkpt lat="28.0498" lon="-14.35854">
        <ele>19</ele>
        <time>2021-07-05 18:40:23</time>
      </trkpt>
      <trkpt lat="28.0498" lon="-14.35854">
        <ele>19</ele>
        <time>2021-07-05 18:48:33</time>
      </trkpt>
      <trkpt lat="28.0498" lon="-14.35857">
        <ele>19</ele>
        <time>2021-07-05 18:48:34</time>
      </trkpt>
      <trkpt lat="28.04981" lon="-14.35858">
        <ele>19</ele>
        <time>2021-07-05 18:48:35</time>
      </trkpt>
      <trkpt lat="28.04982" lon="-14.35858">
        <ele>19</ele>
        <time>2021-07-05 18:48:36</time>
      </trkpt>
      <trkpt lat="28.04984" lon="-14.35859">
        <ele>19</ele>
        <time>2021-07-05 18:48:37</time>
      </trkpt>
      <trkpt lat="28.04985" lon="-14.3586">
        <ele>19</ele>
        <time>2021-07-05 18:51:03</time>
      </trkpt>
      <trkpt lat="28.04985" lon="-14.3586">
        <ele>19</ele>
        <time>2021-07-05 18:51:04</time>
      </trkpt>
      <trkpt lat="28.04985" lon="-14.3586">
        <ele>19</ele>
        <time>2021-07-05 18:51:05</time>
      </trkpt>
      <trkpt lat="28.04985" lon="-14.3586">
        <ele>19</ele>
        <time>2021-07-05 18:51:06</time>
      </trkpt>
    </trkseg>
  </trk>
</gpx>
